﻿_id	﻿cod_depto	departamento	cod_mun	municipio	cod_estacion	estacion	cod_mes	mes	fecha	hora	cod_parametro	parametro	Valor
1	7	Sololá	712	San Antonio Palopó	9	San Antonio Palopo	8	Agosto	2023-07-08T00:00:00	2024-11-08T10:00:00	2	Temperatura media	23.8
2	7	Sololá	712	San Antonio Palopó	9	San Antonio Palopo	8	Agosto	2023-07-08T00:00:00	2024-11-08T10:00:00	4	Temperatura máxima	24.1
3	7	Sololá	712	San Antonio Palopó	9	San Antonio Palopo	8	Agosto	2023-07-08T00:00:00	2024-11-08T10:00:00	3	Temperatura mínima	23.4
4	7	Sololá	712	San Antonio Palopó	9	San Antonio Palopo	8	Agosto	2023-07-08T00:00:00	2024-11-08T10:00:00	5	Humedad	60
5	7	Sololá	712	San Antonio Palopó	9	San Antonio Palopo	8	Agosto	2023-07-08T00:00:00	2024-11-08T10:00:00	6	Velocidad del viento	6.4
6	7	Sololá	712	San Antonio Palopó	9	San Antonio Palopo	8	Agosto	2023-07-08T00:00:00	2024-11-08T10:00:00	7	Dirección del viento	6.44
7	7	Sololá	712	San Antonio Palopó	9	San Antonio Palopo	8	Agosto	2023-07-08T00:00:00	2024-11-08T10:00:00	1	Precipitación	0
8	7	Sololá	712	San Antonio Palopó	9	San Antonio Palopo	8	Agosto	2023-07-08T00:00:00	2024-11-08T10:00:00	8	Radiación solar	710
9	7	Sololá	712	San Antonio Palopó	9	San Antonio Palopo	8	Agosto	2023-07-08T00:00:00	2024-11-08T11:00:00	2	Temperatura media	25.5
10	7	Sololá	712	San Antonio Palopó	9	San Antonio Palopo	8	Agosto	2023-07-08T00:00:00	2024-11-08T11:00:00	4	Temperatura máxima	25.5
11	7	Sololá	712	San Antonio Palopó	9	San Antonio Palopo	8	Agosto	2023-07-08T00:00:00	2024-11-08T11:00:00	3	Temperatura mínima	23.7
12	7	Sololá	712	San Antonio Palopó	9	San Antonio Palopo	8	Agosto	2023-07-08T00:00:00	2024-11-08T11:00:00	5	Humedad	58
13	7	Sololá	712	San Antonio Palopó	9	San Antonio Palopo	8	Agosto	2023-07-08T00:00:00	2024-11-08T11:00:00	6	Velocidad del viento	9.7
14	7	Sololá	712	San Antonio Palopó	9	San Antonio Palopo	8	Agosto	2023-07-08T00:00:00	2024-11-08T11:00:00	7	Dirección del viento	9.66
15	7	Sololá	712	San Antonio Palopó	9	San Antonio Palopo	8	Agosto	2023-07-08T00:00:00	2024-11-08T11:00:00	1	Precipitación	0
16	7	Sololá	712	San Antonio Palopó	9	San Antonio Palopo	8	Agosto	2023-07-08T00:00:00	2024-11-08T11:00:00	8	Radiación solar	878
17	7	Sololá	712	San Antonio Palopó	9	San Antonio Palopo	8	Agosto	2023-07-08T00:00:00	2024-11-08T12:00:00	2	Temperatura media	25.8
18	7	Sololá	712	San Antonio Palopó	9	San Antonio Palopo	8	Agosto	2023-07-08T00:00:00	2024-11-08T12:00:00	4	Temperatura máxima	26.4
19	7	Sololá	712	San Antonio Palopó	9	San Antonio Palopo	8	Agosto	2023-07-08T00:00:00	2024-11-08T12:00:00	3	Temperatura mínima	25.2
20	7	Sololá	712	San Antonio Palopó	9	San Antonio Palopo	8	Agosto	2023-07-08T00:00:00	2024-11-08T12:00:00	5	Humedad	51
21	7	Sololá	712	San Antonio Palopó	9	San Antonio Palopo	8	Agosto	2023-07-08T00:00:00	2024-11-08T12:00:00	6	Velocidad del viento	11.3
22	7	Sololá	712	San Antonio Palopó	9	San Antonio Palopo	8	Agosto	2023-07-08T00:00:00	2024-11-08T12:00:00	7	Dirección del viento	11.27
23	7	Sololá	712	San Antonio Palopó	9	San Antonio Palopo	8	Agosto	2023-07-08T00:00:00	2024-11-08T12:00:00	1	Precipitación	0
24	7	Sololá	712	San Antonio Palopó	9	San Antonio Palopo	8	Agosto	2023-07-08T00:00:00	2024-11-08T12:00:00	8	Radiación solar	925
25	7	Sololá	712	San Antonio Palopó	9	San Antonio Palopo	8	Agosto	2023-07-08T00:00:00	2024-11-08T13:00:00	2	Temperatura media	27.2
26	7	Sololá	712	San Antonio Palopó	9	San Antonio Palopo	8	Agosto	2023-07-08T00:00:00	2024-11-08T13:00:00	4	Temperatura máxima	27.3
27	7	Sololá	712	San Antonio Palopó	9	San Antonio Palopo	8	Agosto	2023-07-08T00:00:00	2024-11-08T13:00:00	3	Temperatura mínima	25.9
28	7	Sololá	712	San Antonio Palopó	9	San Antonio Palopo	8	Agosto	2023-07-08T00:00:00	2024-11-08T13:00:00	5	Humedad	45
29	7	Sololá	712	San Antonio Palopó	9	San Antonio Palopo	8	Agosto	2023-07-08T00:00:00	2024-11-08T13:00:00	6	Velocidad del viento	9.7
30	7	Sololá	712	San Antonio Palopó	9	San Antonio Palopo	8	Agosto	2023-07-08T00:00:00	2024-11-08T13:00:00	7	Dirección del viento	9.66
31	7	Sololá	712	San Antonio Palopó	9	San Antonio Palopo	8	Agosto	2023-07-08T00:00:00	2024-11-08T13:00:00	1	Precipitación	0
32	7	Sololá	712	San Antonio Palopó	9	San Antonio Palopo	8	Agosto	2023-07-08T00:00:00	2024-11-08T13:00:00	8	Radiación solar	966
33	7	Sololá	712	San Antonio Palopó	9	San Antonio Palopo	8	Agosto	2023-07-08T00:00:00	2024-11-08T14:00:00	2	Temperatura media	26.9
34	7	Sololá	712	San Antonio Palopó	9	San Antonio Palopo	8	Agosto	2023-07-08T00:00:00	2024-11-08T14:00:00	4	Temperatura máxima	27.6
35	7	Sololá	712	San Antonio Palopó	9	San Antonio Palopo	8	Agosto	2023-07-08T00:00:00	2024-11-08T14:00:00	3	Temperatura mínima	26.8
36	7	Sololá	712	San Antonio Palopó	9	San Antonio Palopo	8	Agosto	2023-07-08T00:00:00	2024-11-08T14:00:00	5	Humedad	52
37	7	Sololá	712	San Antonio Palopó	9	San Antonio Palopo	8	Agosto	2023-07-08T00:00:00	2024-11-08T14:00:00	6	Velocidad del viento	9.7
38	7	Sololá	712	San Antonio Palopó	9	San Antonio Palopo	8	Agosto	2023-07-08T00:00:00	2024-11-08T14:00:00	7	Dirección del viento	9.66
39	7	Sololá	712	San Antonio Palopó	9	San Antonio Palopo	8	Agosto	2023-07-08T00:00:00	2024-11-08T14:00:00	1	Precipitación	0
40	7	Sololá	712	San Antonio Palopó	9	San Antonio Palopo	8	Agosto	2023-07-08T00:00:00	2024-11-08T14:00:00	8	Radiación solar	988
41	7	Sololá	712	San Antonio Palopó	9	San Antonio Palopo	8	Agosto	2023-07-08T00:00:00	2024-11-08T15:00:00	2	Temperatura media	26.9
42	7	Sololá	712	San Antonio Palopó	9	San Antonio Palopo	8	Agosto	2023-07-08T00:00:00	2024-11-08T15:00:00	4	Temperatura máxima	27.5
43	7	Sololá	712	San Antonio Palopó	9	San Antonio Palopo	8	Agosto	2023-07-08T00:00:00	2024-11-08T15:00:00	3	Temperatura mínima	26.8
44	7	Sololá	712	San Antonio Palopó	9	San Antonio Palopo	8	Agosto	2023-07-08T00:00:00	2024-11-08T15:00:00	5	Humedad	52
45	7	Sololá	712	San Antonio Palopó	9	San Antonio Palopo	8	Agosto	2023-07-08T00:00:00	2024-11-08T15:00:00	6	Velocidad del viento	11.3
46	7	Sololá	712	San Antonio Palopó	9	San Antonio Palopo	8	Agosto	2023-07-08T00:00:00	2024-11-08T15:00:00	7	Dirección del viento	11.27
47	7	Sololá	712	San Antonio Palopó	9	San Antonio Palopo	8	Agosto	2023-07-08T00:00:00	2024-11-08T15:00:00	1	Precipitación	0
48	7	Sololá	712	San Antonio Palopó	9	San Antonio Palopo	8	Agosto	2023-07-08T00:00:00	2024-11-08T15:00:00	8	Radiación solar	801
49	7	Sololá	712	San Antonio Palopó	9	San Antonio Palopo	8	Agosto	2023-07-08T00:00:00	2024-11-08T16:00:00	2	Temperatura media	25.2
50	7	Sololá	712	San Antonio Palopó	9	San Antonio Palopo	8	Agosto	2023-07-08T00:00:00	2024-11-08T16:00:00	4	Temperatura máxima	27.8
51	7	Sololá	712	San Antonio Palopó	9	San Antonio Palopo	8	Agosto	2023-07-08T00:00:00	2024-11-08T16:00:00	3	Temperatura mínima	25.1
52	7	Sololá	712	San Antonio Palopó	9	San Antonio Palopo	8	Agosto	2023-07-08T00:00:00	2024-11-08T16:00:00	5	Humedad	66
53	7	Sololá	712	San Antonio Palopó	9	San Antonio Palopo	8	Agosto	2023-07-08T00:00:00	2024-11-08T16:00:00	6	Velocidad del viento	11.3
54	7	Sololá	712	San Antonio Palopó	9	San Antonio Palopo	8	Agosto	2023-07-08T00:00:00	2024-11-08T16:00:00	7	Dirección del viento	11.27
55	7	Sololá	712	San Antonio Palopó	9	San Antonio Palopo	8	Agosto	2023-07-08T00:00:00	2024-11-08T16:00:00	1	Precipitación	0
56	7	Sololá	712	San Antonio Palopó	9	San Antonio Palopo	8	Agosto	2023-07-08T00:00:00	2024-11-08T16:00:00	8	Radiación solar	637
57	7	Sololá	712	San Antonio Palopó	9	San Antonio Palopo	8	Agosto	2023-07-08T00:00:00	2024-11-08T17:00:00	2	Temperatura media	25.8
58	7	Sololá	712	San Antonio Palopó	9	San Antonio Palopo	8	Agosto	2023-07-08T00:00:00	2024-11-08T17:00:00	4	Temperatura máxima	26.2
59	7	Sololá	712	San Antonio Palopó	9	San Antonio Palopo	8	Agosto	2023-07-08T00:00:00	2024-11-08T17:00:00	3	Temperatura mínima	24.7
60	7	Sololá	712	San Antonio Palopó	9	San Antonio Palopo	8	Agosto	2023-07-08T00:00:00	2024-11-08T17:00:00	5	Humedad	63
61	7	Sololá	712	San Antonio Palopó	9	San Antonio Palopo	8	Agosto	2023-07-08T00:00:00	2024-11-08T17:00:00	6	Velocidad del viento	14.5
62	7	Sololá	712	San Antonio Palopó	9	San Antonio Palopo	8	Agosto	2023-07-08T00:00:00	2024-11-08T17:00:00	7	Dirección del viento	14.48
63	7	Sololá	712	San Antonio Palopó	9	San Antonio Palopo	8	Agosto	2023-07-08T00:00:00	2024-11-08T17:00:00	1	Precipitación	0
64	7	Sololá	712	San Antonio Palopó	9	San Antonio Palopo	8	Agosto	2023-07-08T00:00:00	2024-11-08T17:00:00	8	Radiación solar	390
65	7	Sololá	712	San Antonio Palopó	9	San Antonio Palopo	8	Agosto	2023-07-08T00:00:00	2024-11-08T18:00:00	2	Temperatura media	24.4
66	7	Sololá	712	San Antonio Palopó	9	San Antonio Palopo	8	Agosto	2023-07-08T00:00:00	2024-11-08T18:00:00	4	Temperatura máxima	25.9
67	7	Sololá	712	San Antonio Palopó	9	San Antonio Palopo	8	Agosto	2023-07-08T00:00:00	2024-11-08T18:00:00	3	Temperatura mínima	24.4
68	7	Sololá	712	San Antonio Palopó	9	San Antonio Palopo	8	Agosto	2023-07-08T00:00:00	2024-11-08T18:00:00	5	Humedad	71
69	7	Sololá	712	San Antonio Palopó	9	San Antonio Palopo	8	Agosto	2023-07-08T00:00:00	2024-11-08T18:00:00	6	Velocidad del viento	12.9
70	7	Sololá	712	San Antonio Palopó	9	San Antonio Palopo	8	Agosto	2023-07-08T00:00:00	2024-11-08T18:00:00	7	Dirección del viento	12.87
71	7	Sololá	712	San Antonio Palopó	9	San Antonio Palopo	8	Agosto	2023-07-08T00:00:00	2024-11-08T18:00:00	1	Precipitación	0
72	7	Sololá	712	San Antonio Palopó	9	San Antonio Palopo	8	Agosto	2023-07-08T00:00:00	2024-11-08T18:00:00	8	Radiación solar	194
73	7	Sololá	712	San Antonio Palopó	9	San Antonio Palopo	8	Agosto	2023-07-08T00:00:00	2024-11-08T19:00:00	2	Temperatura media	23.8
74	7	Sololá	712	San Antonio Palopó	9	San Antonio Palopo	8	Agosto	2023-07-08T00:00:00	2024-11-08T19:00:00	4	Temperatura máxima	24.4
75	7	Sololá	712	San Antonio Palopó	9	San Antonio Palopo	8	Agosto	2023-07-08T00:00:00	2024-11-08T19:00:00	3	Temperatura mínima	23.6
76	7	Sololá	712	San Antonio Palopó	9	San Antonio Palopo	8	Agosto	2023-07-08T00:00:00	2024-11-08T19:00:00	5	Humedad	65
77	7	Sololá	712	San Antonio Palopó	9	San Antonio Palopo	8	Agosto	2023-07-08T00:00:00	2024-11-08T19:00:00	6	Velocidad del viento	6.4
78	7	Sololá	712	San Antonio Palopó	9	San Antonio Palopo	8	Agosto	2023-07-08T00:00:00	2024-11-08T19:00:00	7	Dirección del viento	6.44
79	7	Sololá	712	San Antonio Palopó	9	San Antonio Palopo	8	Agosto	2023-07-08T00:00:00	2024-11-08T19:00:00	1	Precipitación	0
80	7	Sololá	712	San Antonio Palopó	9	San Antonio Palopo	8	Agosto	2023-07-08T00:00:00	2024-11-08T19:00:00	8	Radiación solar	0
81	7	Sololá	712	San Antonio Palopó	9	San Antonio Palopo	8	Agosto	2023-07-08T00:00:00	2024-11-08T20:00:00	2	Temperatura media	22.7
82	7	Sololá	712	San Antonio Palopó	9	San Antonio Palopo	8	Agosto	2023-07-08T00:00:00	2024-11-08T20:00:00	4	Temperatura máxima	23.8
83	7	Sololá	712	San Antonio Palopó	9	San Antonio Palopo	8	Agosto	2023-07-08T00:00:00	2024-11-08T20:00:00	3	Temperatura mínima	22.7
84	7	Sololá	712	San Antonio Palopó	9	San Antonio Palopo	8	Agosto	2023-07-08T00:00:00	2024-11-08T20:00:00	5	Humedad	67
85	7	Sololá	712	San Antonio Palopó	9	San Antonio Palopo	8	Agosto	2023-07-08T00:00:00	2024-11-08T20:00:00	6	Velocidad del viento	3.2
86	7	Sololá	712	San Antonio Palopó	9	San Antonio Palopo	8	Agosto	2023-07-08T00:00:00	2024-11-08T20:00:00	7	Dirección del viento	3.22
87	7	Sololá	712	San Antonio Palopó	9	San Antonio Palopo	8	Agosto	2023-07-08T00:00:00	2024-11-08T20:00:00	1	Precipitación	0
88	7	Sololá	712	San Antonio Palopó	9	San Antonio Palopo	8	Agosto	2023-07-08T00:00:00	2024-11-08T20:00:00	8	Radiación solar	0
89	7	Sololá	712	San Antonio Palopó	9	San Antonio Palopo	8	Agosto	2023-07-08T00:00:00	2024-11-08T21:00:00	2	Temperatura media	22.3
90	7	Sololá	712	San Antonio Palopó	9	San Antonio Palopo	8	Agosto	2023-07-08T00:00:00	2024-11-08T21:00:00	4	Temperatura máxima	23.1
91	7	Sololá	712	San Antonio Palopó	9	San Antonio Palopo	8	Agosto	2023-07-08T00:00:00	2024-11-08T21:00:00	3	Temperatura mínima	22.3
92	7	Sololá	712	San Antonio Palopó	9	San Antonio Palopo	8	Agosto	2023-07-08T00:00:00	2024-11-08T21:00:00	5	Humedad	69
93	7	Sololá	712	San Antonio Palopó	9	San Antonio Palopo	8	Agosto	2023-07-08T00:00:00	2024-11-08T21:00:00	6	Velocidad del viento	3.2
94	7	Sololá	712	San Antonio Palopó	9	San Antonio Palopo	8	Agosto	2023-07-08T00:00:00	2024-11-08T21:00:00	7	Dirección del viento	3.22
95	7	Sololá	712	San Antonio Palopó	9	San Antonio Palopo	8	Agosto	2023-07-08T00:00:00	2024-11-08T21:00:00	1	Precipitación	0
96	7	Sololá	712	San Antonio Palopó	9	San Antonio Palopo	8	Agosto	2023-07-08T00:00:00	2024-11-08T21:00:00	8	Radiación solar	0
97	7	Sololá	712	San Antonio Palopó	9	San Antonio Palopo	8	Agosto	2023-07-08T00:00:00	2024-11-08T22:00:00	2	Temperatura media	22
98	7	Sololá	712	San Antonio Palopó	9	San Antonio Palopo	8	Agosto	2023-07-08T00:00:00	2024-11-08T22:00:00	4	Temperatura máxima	22.4
99	7	Sololá	712	San Antonio Palopó	9	San Antonio Palopo	8	Agosto	2023-07-08T00:00:00	2024-11-08T22:00:00	3	Temperatura mínima	21.8
100	7	Sololá	712	San Antonio Palopó	9	San Antonio Palopo	8	Agosto	2023-07-08T00:00:00	2024-11-08T22:00:00	5	Humedad	70
101	7	Sololá	712	San Antonio Palopó	9	San Antonio Palopo	8	Agosto	2023-07-08T00:00:00	2024-11-08T22:00:00	6	Velocidad del viento	6.4
102	7	Sololá	712	San Antonio Palopó	9	San Antonio Palopo	8	Agosto	2023-07-08T00:00:00	2024-11-08T22:00:00	7	Dirección del viento	6.44
103	7	Sololá	712	San Antonio Palopó	9	San Antonio Palopo	8	Agosto	2023-07-08T00:00:00	2024-11-08T22:00:00	1	Precipitación	0
104	7	Sololá	712	San Antonio Palopó	9	San Antonio Palopo	8	Agosto	2023-07-08T00:00:00	2024-11-08T22:00:00	8	Radiación solar	0
105	7	Sololá	712	San Antonio Palopó	9	San Antonio Palopo	8	Agosto	2023-07-08T00:00:00	2024-11-08T23:00:00	2	Temperatura media	21.7
106	7	Sololá	712	San Antonio Palopó	9	San Antonio Palopo	8	Agosto	2023-07-08T00:00:00	2024-11-08T23:00:00	4	Temperatura máxima	22.1
107	7	Sololá	712	San Antonio Palopó	9	San Antonio Palopo	8	Agosto	2023-07-08T00:00:00	2024-11-08T23:00:00	3	Temperatura mínima	21.7
108	7	Sololá	712	San Antonio Palopó	9	San Antonio Palopo	8	Agosto	2023-07-08T00:00:00	2024-11-08T23:00:00	5	Humedad	70
109	7	Sololá	712	San Antonio Palopó	9	San Antonio Palopo	8	Agosto	2023-07-08T00:00:00	2024-11-08T23:00:00	6	Velocidad del viento	6.4
110	7	Sololá	712	San Antonio Palopó	9	San Antonio Palopo	8	Agosto	2023-07-08T00:00:00	2024-11-08T23:00:00	7	Dirección del viento	6.44
111	7	Sololá	712	San Antonio Palopó	9	San Antonio Palopo	8	Agosto	2023-07-08T00:00:00	2024-11-08T23:00:00	1	Precipitación	0
112	7	Sololá	712	San Antonio Palopó	9	San Antonio Palopo	8	Agosto	2023-07-08T00:00:00	2024-11-08T23:00:00	8	Radiación solar	0
113	7	Sololá	712	San Antonio Palopó	9	San Antonio Palopo	8	Agosto	2023-08-08T00:00:00	2024-11-08T00:00:00	2	Temperatura media	21.5
114	7	Sololá	712	San Antonio Palopó	9	San Antonio Palopo	8	Agosto	2023-08-08T00:00:00	2024-11-08T00:00:00	4	Temperatura máxima	21.7
115	7	Sololá	712	San Antonio Palopó	9	San Antonio Palopo	8	Agosto	2023-08-08T00:00:00	2024-11-08T00:00:00	3	Temperatura mínima	21
116	7	Sololá	712	San Antonio Palopó	9	San Antonio Palopo	8	Agosto	2023-08-08T00:00:00	2024-11-08T00:00:00	5	Humedad	68
117	7	Sololá	712	San Antonio Palopó	9	San Antonio Palopo	8	Agosto	2023-08-08T00:00:00	2024-11-08T00:00:00	6	Velocidad del viento	6.4
118	7	Sololá	712	San Antonio Palopó	9	San Antonio Palopo	8	Agosto	2023-08-08T00:00:00	2024-11-08T00:00:00	7	Dirección del viento	6.44
119	7	Sololá	712	San Antonio Palopó	9	San Antonio Palopo	8	Agosto	2023-08-08T00:00:00	2024-11-08T00:00:00	1	Precipitación	0
120	7	Sololá	712	San Antonio Palopó	9	San Antonio Palopo	8	Agosto	2023-08-08T00:00:00	2024-11-08T00:00:00	8	Radiación solar	0
121	7	Sololá	712	San Antonio Palopó	9	San Antonio Palopo	8	Agosto	2023-08-08T00:00:00	2024-11-08T01:00:00	2	Temperatura media	20.7
122	7	Sololá	712	San Antonio Palopó	9	San Antonio Palopo	8	Agosto	2023-08-08T00:00:00	2024-11-08T01:00:00	4	Temperatura máxima	21.7
123	7	Sololá	712	San Antonio Palopó	9	San Antonio Palopo	8	Agosto	2023-08-08T00:00:00	2024-11-08T01:00:00	3	Temperatura mínima	20.7
124	7	Sololá	712	San Antonio Palopó	9	San Antonio Palopo	8	Agosto	2023-08-08T00:00:00	2024-11-08T01:00:00	5	Humedad	72
125	7	Sololá	712	San Antonio Palopó	9	San Antonio Palopo	8	Agosto	2023-08-08T00:00:00	2024-11-08T01:00:00	6	Velocidad del viento	6.4
126	7	Sololá	712	San Antonio Palopó	9	San Antonio Palopo	8	Agosto	2023-08-08T00:00:00	2024-11-08T01:00:00	7	Dirección del viento	6.44
127	7	Sololá	712	San Antonio Palopó	9	San Antonio Palopo	8	Agosto	2023-08-08T00:00:00	2024-11-08T01:00:00	1	Precipitación	0
128	7	Sololá	712	San Antonio Palopó	9	San Antonio Palopo	8	Agosto	2023-08-08T00:00:00	2024-11-08T01:00:00	8	Radiación solar	0
129	7	Sololá	712	San Antonio Palopó	9	San Antonio Palopo	8	Agosto	2023-08-08T00:00:00	2024-11-08T02:00:00	2	Temperatura media	21.1
130	7	Sololá	712	San Antonio Palopó	9	San Antonio Palopo	8	Agosto	2023-08-08T00:00:00	2024-11-08T02:00:00	4	Temperatura máxima	21.4
131	7	Sololá	712	San Antonio Palopó	9	San Antonio Palopo	8	Agosto	2023-08-08T00:00:00	2024-11-08T02:00:00	3	Temperatura mínima	20.7
132	7	Sololá	712	San Antonio Palopó	9	San Antonio Palopo	8	Agosto	2023-08-08T00:00:00	2024-11-08T02:00:00	5	Humedad	69
133	7	Sololá	712	San Antonio Palopó	9	San Antonio Palopo	8	Agosto	2023-08-08T00:00:00	2024-11-08T02:00:00	6	Velocidad del viento	4.8
134	7	Sololá	712	San Antonio Palopó	9	San Antonio Palopo	8	Agosto	2023-08-08T00:00:00	2024-11-08T02:00:00	7	Dirección del viento	4.83
135	7	Sololá	712	San Antonio Palopó	9	San Antonio Palopo	8	Agosto	2023-08-08T00:00:00	2024-11-08T02:00:00	1	Precipitación	0
136	7	Sololá	712	San Antonio Palopó	9	San Antonio Palopo	8	Agosto	2023-08-08T00:00:00	2024-11-08T02:00:00	8	Radiación solar	0
137	7	Sololá	712	San Antonio Palopó	9	San Antonio Palopo	8	Agosto	2023-08-08T00:00:00	2024-11-08T03:00:00	2	Temperatura media	21.6
138	7	Sololá	712	San Antonio Palopó	9	San Antonio Palopo	8	Agosto	2023-08-08T00:00:00	2024-11-08T03:00:00	4	Temperatura máxima	21.6
139	7	Sololá	712	San Antonio Palopó	9	San Antonio Palopo	8	Agosto	2023-08-08T00:00:00	2024-11-08T03:00:00	3	Temperatura mínima	20.7
140	7	Sololá	712	San Antonio Palopó	9	San Antonio Palopo	8	Agosto	2023-08-08T00:00:00	2024-11-08T03:00:00	5	Humedad	67
141	7	Sololá	712	San Antonio Palopó	9	San Antonio Palopo	8	Agosto	2023-08-08T00:00:00	2024-11-08T03:00:00	6	Velocidad del viento	6.4
142	7	Sololá	712	San Antonio Palopó	9	San Antonio Palopo	8	Agosto	2023-08-08T00:00:00	2024-11-08T03:00:00	7	Dirección del viento	6.44
143	7	Sololá	712	San Antonio Palopó	9	San Antonio Palopo	8	Agosto	2023-08-08T00:00:00	2024-11-08T03:00:00	1	Precipitación	0
144	7	Sololá	712	San Antonio Palopó	9	San Antonio Palopo	8	Agosto	2023-08-08T00:00:00	2024-11-08T03:00:00	8	Radiación solar	0
145	7	Sololá	712	San Antonio Palopó	9	San Antonio Palopo	8	Agosto	2023-08-08T00:00:00	2024-11-08T04:00:00	2	Temperatura media	21.3
146	7	Sololá	712	San Antonio Palopó	9	San Antonio Palopo	8	Agosto	2023-08-08T00:00:00	2024-11-08T04:00:00	4	Temperatura máxima	21.6
147	7	Sololá	712	San Antonio Palopó	9	San Antonio Palopo	8	Agosto	2023-08-08T00:00:00	2024-11-08T04:00:00	3	Temperatura mínima	21
148	7	Sololá	712	San Antonio Palopó	9	San Antonio Palopo	8	Agosto	2023-08-08T00:00:00	2024-11-08T04:00:00	5	Humedad	67
149	7	Sololá	712	San Antonio Palopó	9	San Antonio Palopo	8	Agosto	2023-08-08T00:00:00	2024-11-08T04:00:00	6	Velocidad del viento	6.4
150	7	Sololá	712	San Antonio Palopó	9	San Antonio Palopo	8	Agosto	2023-08-08T00:00:00	2024-11-08T04:00:00	7	Dirección del viento	6.44
151	7	Sololá	712	San Antonio Palopó	9	San Antonio Palopo	8	Agosto	2023-08-08T00:00:00	2024-11-08T04:00:00	1	Precipitación	0
152	7	Sololá	712	San Antonio Palopó	9	San Antonio Palopo	8	Agosto	2023-08-08T00:00:00	2024-11-08T04:00:00	8	Radiación solar	0
153	7	Sololá	712	San Antonio Palopó	9	San Antonio Palopo	8	Agosto	2023-08-08T00:00:00	2024-11-08T05:00:00	2	Temperatura media	20.9
154	7	Sololá	712	San Antonio Palopó	9	San Antonio Palopo	8	Agosto	2023-08-08T00:00:00	2024-11-08T05:00:00	4	Temperatura máxima	21.4
155	7	Sololá	712	San Antonio Palopó	9	San Antonio Palopo	8	Agosto	2023-08-08T00:00:00	2024-11-08T05:00:00	3	Temperatura mínima	20.9
156	7	Sololá	712	San Antonio Palopó	9	San Antonio Palopo	8	Agosto	2023-08-08T00:00:00	2024-11-08T05:00:00	5	Humedad	69
157	7	Sololá	712	San Antonio Palopó	9	San Antonio Palopo	8	Agosto	2023-08-08T00:00:00	2024-11-08T05:00:00	6	Velocidad del viento	8
158	7	Sololá	712	San Antonio Palopó	9	San Antonio Palopo	8	Agosto	2023-08-08T00:00:00	2024-11-08T05:00:00	7	Dirección del viento	8.05
159	7	Sololá	712	San Antonio Palopó	9	San Antonio Palopo	8	Agosto	2023-08-08T00:00:00	2024-11-08T05:00:00	1	Precipitación	0
160	7	Sololá	712	San Antonio Palopó	9	San Antonio Palopo	8	Agosto	2023-08-08T00:00:00	2024-11-08T05:00:00	8	Radiación solar	0
161	7	Sololá	712	San Antonio Palopó	9	San Antonio Palopo	8	Agosto	2023-08-08T00:00:00	2024-11-08T06:00:00	2	Temperatura media	20.7
162	7	Sololá	712	San Antonio Palopó	9	San Antonio Palopo	8	Agosto	2023-08-08T00:00:00	2024-11-08T06:00:00	4	Temperatura máxima	20.9
163	7	Sololá	712	San Antonio Palopó	9	San Antonio Palopo	8	Agosto	2023-08-08T00:00:00	2024-11-08T06:00:00	3	Temperatura mínima	20.6
164	7	Sololá	712	San Antonio Palopó	9	San Antonio Palopo	8	Agosto	2023-08-08T00:00:00	2024-11-08T06:00:00	5	Humedad	69
165	7	Sololá	712	San Antonio Palopó	9	San Antonio Palopo	8	Agosto	2023-08-08T00:00:00	2024-11-08T06:00:00	6	Velocidad del viento	14.5
166	7	Sololá	712	San Antonio Palopó	9	San Antonio Palopo	8	Agosto	2023-08-08T00:00:00	2024-11-08T06:00:00	7	Dirección del viento	14.48
167	7	Sololá	712	San Antonio Palopó	9	San Antonio Palopo	8	Agosto	2023-08-08T00:00:00	2024-11-08T06:00:00	1	Precipitación	0
168	7	Sololá	712	San Antonio Palopó	9	San Antonio Palopo	8	Agosto	2023-08-08T00:00:00	2024-11-08T06:00:00	8	Radiación solar	0
169	7	Sololá	712	San Antonio Palopó	9	San Antonio Palopo	8	Agosto	2023-08-08T00:00:00	2024-11-08T07:00:00	2	Temperatura media	20.9
170	7	Sololá	712	San Antonio Palopó	9	San Antonio Palopo	8	Agosto	2023-08-08T00:00:00	2024-11-08T07:00:00	4	Temperatura máxima	20.9
171	7	Sololá	712	San Antonio Palopó	9	San Antonio Palopo	8	Agosto	2023-08-08T00:00:00	2024-11-08T07:00:00	3	Temperatura mínima	20.7
172	7	Sololá	712	San Antonio Palopó	9	San Antonio Palopo	8	Agosto	2023-08-08T00:00:00	2024-11-08T07:00:00	5	Humedad	71
173	7	Sololá	712	San Antonio Palopó	9	San Antonio Palopo	8	Agosto	2023-08-08T00:00:00	2024-11-08T07:00:00	6	Velocidad del viento	8
174	7	Sololá	712	San Antonio Palopó	9	San Antonio Palopo	8	Agosto	2023-08-08T00:00:00	2024-11-08T07:00:00	7	Dirección del viento	8.05
175	7	Sololá	712	San Antonio Palopó	9	San Antonio Palopo	8	Agosto	2023-08-08T00:00:00	2024-11-08T07:00:00	1	Precipitación	0
176	7	Sololá	712	San Antonio Palopó	9	San Antonio Palopo	8	Agosto	2023-08-08T00:00:00	2024-11-08T07:00:00	8	Radiación solar	43
177	7	Sololá	712	San Antonio Palopó	9	San Antonio Palopo	8	Agosto	2023-08-08T00:00:00	2024-11-08T08:00:00	2	Temperatura media	22.7
178	7	Sololá	712	San Antonio Palopó	9	San Antonio Palopo	8	Agosto	2023-08-08T00:00:00	2024-11-08T08:00:00	4	Temperatura máxima	22.8
179	7	Sololá	712	San Antonio Palopó	9	San Antonio Palopo	8	Agosto	2023-08-08T00:00:00	2024-11-08T08:00:00	3	Temperatura mínima	20.9
180	7	Sololá	712	San Antonio Palopó	9	San Antonio Palopo	8	Agosto	2023-08-08T00:00:00	2024-11-08T08:00:00	5	Humedad	65
181	7	Sololá	712	San Antonio Palopó	9	San Antonio Palopo	8	Agosto	2023-08-08T00:00:00	2024-11-08T08:00:00	6	Velocidad del viento	11.3
182	7	Sololá	712	San Antonio Palopó	9	San Antonio Palopo	8	Agosto	2023-08-08T00:00:00	2024-11-08T08:00:00	7	Dirección del viento	11.27
183	7	Sololá	712	San Antonio Palopó	9	San Antonio Palopo	8	Agosto	2023-08-08T00:00:00	2024-11-08T08:00:00	1	Precipitación	0
184	7	Sololá	712	San Antonio Palopó	9	San Antonio Palopo	8	Agosto	2023-08-08T00:00:00	2024-11-08T08:00:00	8	Radiación solar	164
185	7	Sololá	712	San Antonio Palopó	9	San Antonio Palopo	8	Agosto	2023-08-08T00:00:00	2024-11-08T09:00:00	2	Temperatura media	24.9
186	7	Sololá	712	San Antonio Palopó	9	San Antonio Palopo	8	Agosto	2023-08-08T00:00:00	2024-11-08T09:00:00	4	Temperatura máxima	24.9
187	7	Sololá	712	San Antonio Palopó	9	San Antonio Palopo	8	Agosto	2023-08-08T00:00:00	2024-11-08T09:00:00	3	Temperatura mínima	22.7
188	7	Sololá	712	San Antonio Palopó	9	San Antonio Palopo	8	Agosto	2023-08-08T00:00:00	2024-11-08T09:00:00	5	Humedad	58
189	7	Sololá	712	San Antonio Palopó	9	San Antonio Palopo	8	Agosto	2023-08-08T00:00:00	2024-11-08T09:00:00	6	Velocidad del viento	9.7
190	7	Sololá	712	San Antonio Palopó	9	San Antonio Palopo	8	Agosto	2023-08-08T00:00:00	2024-11-08T09:00:00	7	Dirección del viento	9.66
191	7	Sololá	712	San Antonio Palopó	9	San Antonio Palopo	8	Agosto	2023-08-08T00:00:00	2024-11-08T09:00:00	1	Precipitación	0
192	7	Sololá	712	San Antonio Palopó	9	San Antonio Palopo	8	Agosto	2023-08-08T00:00:00	2024-11-08T09:00:00	8	Radiación solar	504
193	7	Sololá	712	San Antonio Palopó	9	San Antonio Palopo	8	Agosto	2023-08-08T00:00:00	2024-11-08T10:00:00	2	Temperatura media	25.3
194	7	Sololá	712	San Antonio Palopó	9	San Antonio Palopo	8	Agosto	2023-08-08T00:00:00	2024-11-08T10:00:00	4	Temperatura máxima	25.4
195	7	Sololá	712	San Antonio Palopó	9	San Antonio Palopo	8	Agosto	2023-08-08T00:00:00	2024-11-08T10:00:00	3	Temperatura mínima	24.3
196	7	Sololá	712	San Antonio Palopó	9	San Antonio Palopo	8	Agosto	2023-08-08T00:00:00	2024-11-08T10:00:00	5	Humedad	55
197	7	Sololá	712	San Antonio Palopó	9	San Antonio Palopo	8	Agosto	2023-08-08T00:00:00	2024-11-08T10:00:00	6	Velocidad del viento	12.9
198	7	Sololá	712	San Antonio Palopó	9	San Antonio Palopo	8	Agosto	2023-08-08T00:00:00	2024-11-08T10:00:00	7	Dirección del viento	12.87
199	7	Sololá	712	San Antonio Palopó	9	San Antonio Palopo	8	Agosto	2023-08-08T00:00:00	2024-11-08T10:00:00	1	Precipitación	0
200	7	Sololá	712	San Antonio Palopó	9	San Antonio Palopo	8	Agosto	2023-08-08T00:00:00	2024-11-08T10:00:00	8	Radiación solar	790
201	7	Sololá	712	San Antonio Palopó	9	San Antonio Palopo	8	Agosto	2023-08-08T00:00:00	2024-11-08T11:00:00	2	Temperatura media	25.7
202	7	Sololá	712	San Antonio Palopó	9	San Antonio Palopo	8	Agosto	2023-08-08T00:00:00	2024-11-08T11:00:00	4	Temperatura máxima	26.1
203	7	Sololá	712	San Antonio Palopó	9	San Antonio Palopo	8	Agosto	2023-08-08T00:00:00	2024-11-08T11:00:00	3	Temperatura mínima	25.3
204	7	Sololá	712	San Antonio Palopó	9	San Antonio Palopo	8	Agosto	2023-08-08T00:00:00	2024-11-08T11:00:00	5	Humedad	55
205	7	Sololá	712	San Antonio Palopó	9	San Antonio Palopo	8	Agosto	2023-08-08T00:00:00	2024-11-08T11:00:00	6	Velocidad del viento	12.9
206	7	Sololá	712	San Antonio Palopó	9	San Antonio Palopo	8	Agosto	2023-08-08T00:00:00	2024-11-08T11:00:00	7	Dirección del viento	12.87
207	7	Sololá	712	San Antonio Palopó	9	San Antonio Palopo	8	Agosto	2023-08-08T00:00:00	2024-11-08T11:00:00	1	Precipitación	0
208	7	Sololá	712	San Antonio Palopó	9	San Antonio Palopo	8	Agosto	2023-08-08T00:00:00	2024-11-08T11:00:00	8	Radiación solar	889
209	7	Sololá	712	San Antonio Palopó	9	San Antonio Palopo	8	Agosto	2023-08-08T00:00:00	2024-11-08T12:00:00	2	Temperatura media	27.1
210	7	Sololá	712	San Antonio Palopó	9	San Antonio Palopo	8	Agosto	2023-08-08T00:00:00	2024-11-08T12:00:00	4	Temperatura máxima	27.1
211	7	Sololá	712	San Antonio Palopó	9	San Antonio Palopo	8	Agosto	2023-08-08T00:00:00	2024-11-08T12:00:00	3	Temperatura mínima	25.7
212	7	Sololá	712	San Antonio Palopó	9	San Antonio Palopo	8	Agosto	2023-08-08T00:00:00	2024-11-08T12:00:00	5	Humedad	51
213	7	Sololá	712	San Antonio Palopó	9	San Antonio Palopo	8	Agosto	2023-08-08T00:00:00	2024-11-08T12:00:00	6	Velocidad del viento	12.9
214	7	Sololá	712	San Antonio Palopó	9	San Antonio Palopo	8	Agosto	2023-08-08T00:00:00	2024-11-08T12:00:00	7	Dirección del viento	12.87
215	7	Sololá	712	San Antonio Palopó	9	San Antonio Palopo	8	Agosto	2023-08-08T00:00:00	2024-11-08T12:00:00	1	Precipitación	0
216	7	Sololá	712	San Antonio Palopó	9	San Antonio Palopo	8	Agosto	2023-08-08T00:00:00	2024-11-08T12:00:00	8	Radiación solar	1006
217	7	Sololá	712	San Antonio Palopó	9	San Antonio Palopo	8	Agosto	2023-08-08T00:00:00	2024-11-08T13:00:00	2	Temperatura media	25.6
218	7	Sololá	712	San Antonio Palopó	9	San Antonio Palopo	8	Agosto	2023-08-08T00:00:00	2024-11-08T13:00:00	4	Temperatura máxima	27.7
219	7	Sololá	712	San Antonio Palopó	9	San Antonio Palopo	8	Agosto	2023-08-08T00:00:00	2024-11-08T13:00:00	3	Temperatura mínima	25.4
220	7	Sololá	712	San Antonio Palopó	9	San Antonio Palopo	8	Agosto	2023-08-08T00:00:00	2024-11-08T13:00:00	5	Humedad	65
221	7	Sololá	712	San Antonio Palopó	9	San Antonio Palopo	8	Agosto	2023-08-08T00:00:00	2024-11-08T13:00:00	6	Velocidad del viento	12.9
222	7	Sololá	712	San Antonio Palopó	9	San Antonio Palopo	8	Agosto	2023-08-08T00:00:00	2024-11-08T13:00:00	7	Dirección del viento	12.87
223	7	Sololá	712	San Antonio Palopó	9	San Antonio Palopo	8	Agosto	2023-08-08T00:00:00	2024-11-08T13:00:00	1	Precipitación	0
224	7	Sololá	712	San Antonio Palopó	9	San Antonio Palopo	8	Agosto	2023-08-08T00:00:00	2024-11-08T13:00:00	8	Radiación solar	918
225	7	Sololá	712	San Antonio Palopó	9	San Antonio Palopo	8	Agosto	2023-08-08T00:00:00	2024-11-08T14:00:00	2	Temperatura media	25.1
226	7	Sololá	712	San Antonio Palopó	9	San Antonio Palopo	8	Agosto	2023-08-08T00:00:00	2024-11-08T14:00:00	4	Temperatura máxima	26.1
227	7	Sololá	712	San Antonio Palopó	9	San Antonio Palopo	8	Agosto	2023-08-08T00:00:00	2024-11-08T14:00:00	3	Temperatura mínima	24.4
228	7	Sololá	712	San Antonio Palopó	9	San Antonio Palopo	8	Agosto	2023-08-08T00:00:00	2024-11-08T14:00:00	5	Humedad	67
229	7	Sololá	712	San Antonio Palopó	9	San Antonio Palopo	8	Agosto	2023-08-08T00:00:00	2024-11-08T14:00:00	6	Velocidad del viento	17.7
230	7	Sololá	712	San Antonio Palopó	9	San Antonio Palopo	8	Agosto	2023-08-08T00:00:00	2024-11-08T14:00:00	7	Dirección del viento	17.7
231	7	Sololá	712	San Antonio Palopó	9	San Antonio Palopo	8	Agosto	2023-08-08T00:00:00	2024-11-08T14:00:00	1	Precipitación	0
232	7	Sololá	712	San Antonio Palopó	9	San Antonio Palopo	8	Agosto	2023-08-08T00:00:00	2024-11-08T14:00:00	8	Radiación solar	935
233	7	Sololá	712	San Antonio Palopó	9	San Antonio Palopo	8	Agosto	2023-08-08T00:00:00	2024-11-08T15:00:00	2	Temperatura media	25.8
234	7	Sololá	712	San Antonio Palopó	9	San Antonio Palopo	8	Agosto	2023-08-08T00:00:00	2024-11-08T15:00:00	4	Temperatura máxima	25.8
235	7	Sololá	712	San Antonio Palopó	9	San Antonio Palopo	8	Agosto	2023-08-08T00:00:00	2024-11-08T15:00:00	3	Temperatura mínima	24.8
236	7	Sololá	712	San Antonio Palopó	9	San Antonio Palopo	8	Agosto	2023-08-08T00:00:00	2024-11-08T15:00:00	5	Humedad	64
237	7	Sololá	712	San Antonio Palopó	9	San Antonio Palopo	8	Agosto	2023-08-08T00:00:00	2024-11-08T15:00:00	6	Velocidad del viento	16.1
238	7	Sololá	712	San Antonio Palopó	9	San Antonio Palopo	8	Agosto	2023-08-08T00:00:00	2024-11-08T15:00:00	7	Dirección del viento	16.09
239	7	Sololá	712	San Antonio Palopó	9	San Antonio Palopo	8	Agosto	2023-08-08T00:00:00	2024-11-08T15:00:00	1	Precipitación	0
240	7	Sololá	712	San Antonio Palopó	9	San Antonio Palopo	8	Agosto	2023-08-08T00:00:00	2024-11-08T15:00:00	8	Radiación solar	772
241	7	Sololá	712	San Antonio Palopó	9	San Antonio Palopo	8	Agosto	2023-08-08T00:00:00	2024-11-08T16:00:00	2	Temperatura media	26.6
242	7	Sololá	712	San Antonio Palopó	9	San Antonio Palopo	8	Agosto	2023-08-08T00:00:00	2024-11-08T16:00:00	4	Temperatura máxima	26.6
243	7	Sololá	712	San Antonio Palopó	9	San Antonio Palopo	8	Agosto	2023-08-08T00:00:00	2024-11-08T16:00:00	3	Temperatura mínima	25.8
244	7	Sololá	712	San Antonio Palopó	9	San Antonio Palopo	8	Agosto	2023-08-08T00:00:00	2024-11-08T16:00:00	5	Humedad	68
245	7	Sololá	712	San Antonio Palopó	9	San Antonio Palopo	8	Agosto	2023-08-08T00:00:00	2024-11-08T16:00:00	6	Velocidad del viento	12.9
246	7	Sololá	712	San Antonio Palopó	9	San Antonio Palopo	8	Agosto	2023-08-08T00:00:00	2024-11-08T16:00:00	7	Dirección del viento	12.87
247	7	Sololá	712	San Antonio Palopó	9	San Antonio Palopo	8	Agosto	2023-08-08T00:00:00	2024-11-08T16:00:00	1	Precipitación	0
248	7	Sololá	712	San Antonio Palopó	9	San Antonio Palopo	8	Agosto	2023-08-08T00:00:00	2024-11-08T16:00:00	8	Radiación solar	596
249	7	Sololá	712	San Antonio Palopó	9	San Antonio Palopo	8	Agosto	2023-08-08T00:00:00	2024-11-08T17:00:00	2	Temperatura media	23.6
250	7	Sololá	712	San Antonio Palopó	9	San Antonio Palopo	8	Agosto	2023-08-08T00:00:00	2024-11-08T17:00:00	4	Temperatura máxima	27.4
251	7	Sololá	712	San Antonio Palopó	9	San Antonio Palopo	8	Agosto	2023-08-08T00:00:00	2024-11-08T17:00:00	3	Temperatura mínima	23.1
252	7	Sololá	712	San Antonio Palopó	9	San Antonio Palopo	8	Agosto	2023-08-08T00:00:00	2024-11-08T17:00:00	5	Humedad	75
253	7	Sololá	712	San Antonio Palopó	9	San Antonio Palopo	8	Agosto	2023-08-08T00:00:00	2024-11-08T17:00:00	6	Velocidad del viento	11.3
254	7	Sololá	712	San Antonio Palopó	9	San Antonio Palopo	8	Agosto	2023-08-08T00:00:00	2024-11-08T17:00:00	7	Dirección del viento	11.27
255	7	Sololá	712	San Antonio Palopó	9	San Antonio Palopo	8	Agosto	2023-08-08T00:00:00	2024-11-08T17:00:00	1	Precipitación	0
256	7	Sololá	712	San Antonio Palopó	9	San Antonio Palopo	8	Agosto	2023-08-08T00:00:00	2024-11-08T17:00:00	8	Radiación solar	393
257	7	Sololá	712	San Antonio Palopó	9	San Antonio Palopo	8	Agosto	2023-08-08T00:00:00	2024-11-08T18:00:00	2	Temperatura media	22.7
258	7	Sololá	712	San Antonio Palopó	9	San Antonio Palopo	8	Agosto	2023-08-08T00:00:00	2024-11-08T18:00:00	4	Temperatura máxima	24.4
259	7	Sololá	712	San Antonio Palopó	9	San Antonio Palopo	8	Agosto	2023-08-08T00:00:00	2024-11-08T18:00:00	3	Temperatura mínima	22.6
260	7	Sololá	712	San Antonio Palopó	9	San Antonio Palopo	8	Agosto	2023-08-08T00:00:00	2024-11-08T18:00:00	5	Humedad	75
261	7	Sololá	712	San Antonio Palopó	9	San Antonio Palopo	8	Agosto	2023-08-08T00:00:00	2024-11-08T18:00:00	6	Velocidad del viento	6.4
262	7	Sololá	712	San Antonio Palopó	9	San Antonio Palopo	8	Agosto	2023-08-08T00:00:00	2024-11-08T18:00:00	7	Dirección del viento	6.44
263	7	Sololá	712	San Antonio Palopó	9	San Antonio Palopo	8	Agosto	2023-08-08T00:00:00	2024-11-08T18:00:00	1	Precipitación	0
264	7	Sololá	712	San Antonio Palopó	9	San Antonio Palopo	8	Agosto	2023-08-08T00:00:00	2024-11-08T18:00:00	8	Radiación solar	135
265	7	Sololá	712	San Antonio Palopó	9	San Antonio Palopo	8	Agosto	2023-08-08T00:00:00	2024-11-08T19:00:00	2	Temperatura media	21.6
266	7	Sololá	712	San Antonio Palopó	9	San Antonio Palopo	8	Agosto	2023-08-08T00:00:00	2024-11-08T19:00:00	4	Temperatura máxima	22.6
267	7	Sololá	712	San Antonio Palopó	9	San Antonio Palopo	8	Agosto	2023-08-08T00:00:00	2024-11-08T19:00:00	3	Temperatura mínima	21.6
268	7	Sololá	712	San Antonio Palopó	9	San Antonio Palopo	8	Agosto	2023-08-08T00:00:00	2024-11-08T19:00:00	5	Humedad	78
269	7	Sololá	712	San Antonio Palopó	9	San Antonio Palopo	8	Agosto	2023-08-08T00:00:00	2024-11-08T19:00:00	6	Velocidad del viento	3.2
270	7	Sololá	712	San Antonio Palopó	9	San Antonio Palopo	8	Agosto	2023-08-08T00:00:00	2024-11-08T19:00:00	7	Dirección del viento	3.22
271	7	Sololá	712	San Antonio Palopó	9	San Antonio Palopo	8	Agosto	2023-08-08T00:00:00	2024-11-08T19:00:00	1	Precipitación	0
272	7	Sololá	712	San Antonio Palopó	9	San Antonio Palopo	8	Agosto	2023-08-08T00:00:00	2024-11-08T19:00:00	8	Radiación solar	0
273	7	Sololá	712	San Antonio Palopó	9	San Antonio Palopo	8	Agosto	2023-08-08T00:00:00	2024-11-08T20:00:00	2	Temperatura media	21.2
274	7	Sololá	712	San Antonio Palopó	9	San Antonio Palopo	8	Agosto	2023-08-08T00:00:00	2024-11-08T20:00:00	4	Temperatura máxima	21.6
275	7	Sololá	712	San Antonio Palopó	9	San Antonio Palopo	8	Agosto	2023-08-08T00:00:00	2024-11-08T20:00:00	3	Temperatura mínima	20.9
276	7	Sololá	712	San Antonio Palopó	9	San Antonio Palopo	8	Agosto	2023-08-08T00:00:00	2024-11-08T20:00:00	5	Humedad	77
277	7	Sololá	712	San Antonio Palopó	9	San Antonio Palopo	8	Agosto	2023-08-08T00:00:00	2024-11-08T20:00:00	6	Velocidad del viento	3.2
278	7	Sololá	712	San Antonio Palopó	9	San Antonio Palopo	8	Agosto	2023-08-08T00:00:00	2024-11-08T20:00:00	7	Dirección del viento	3.22
279	7	Sololá	712	San Antonio Palopó	9	San Antonio Palopo	8	Agosto	2023-08-08T00:00:00	2024-11-08T20:00:00	1	Precipitación	0
280	7	Sololá	712	San Antonio Palopó	9	San Antonio Palopo	8	Agosto	2023-08-08T00:00:00	2024-11-08T20:00:00	8	Radiación solar	0
281	7	Sololá	712	San Antonio Palopó	9	San Antonio Palopo	8	Agosto	2023-08-08T00:00:00	2024-11-08T21:00:00	2	Temperatura media	20.8
282	7	Sololá	712	San Antonio Palopó	9	San Antonio Palopo	8	Agosto	2023-08-08T00:00:00	2024-11-08T21:00:00	4	Temperatura máxima	21.2
283	7	Sololá	712	San Antonio Palopó	9	San Antonio Palopo	8	Agosto	2023-08-08T00:00:00	2024-11-08T21:00:00	3	Temperatura mínima	20.3
284	7	Sololá	712	San Antonio Palopó	9	San Antonio Palopo	8	Agosto	2023-08-08T00:00:00	2024-11-08T21:00:00	5	Humedad	77
285	7	Sololá	712	San Antonio Palopó	9	San Antonio Palopo	8	Agosto	2023-08-08T00:00:00	2024-11-08T21:00:00	6	Velocidad del viento	4.8
286	7	Sololá	712	San Antonio Palopó	9	San Antonio Palopo	8	Agosto	2023-08-08T00:00:00	2024-11-08T21:00:00	7	Dirección del viento	4.83
287	7	Sololá	712	San Antonio Palopó	9	San Antonio Palopo	8	Agosto	2023-08-08T00:00:00	2024-11-08T21:00:00	1	Precipitación	0
288	7	Sololá	712	San Antonio Palopó	9	San Antonio Palopo	8	Agosto	2023-08-08T00:00:00	2024-11-08T21:00:00	8	Radiación solar	0
289	7	Sololá	712	San Antonio Palopó	9	San Antonio Palopo	8	Agosto	2023-08-08T00:00:00	2024-11-08T22:00:00	2	Temperatura media	20.7
290	7	Sololá	712	San Antonio Palopó	9	San Antonio Palopo	8	Agosto	2023-08-08T00:00:00	2024-11-08T22:00:00	4	Temperatura máxima	20.9
291	7	Sololá	712	San Antonio Palopó	9	San Antonio Palopo	8	Agosto	2023-08-08T00:00:00	2024-11-08T22:00:00	3	Temperatura mínima	20.6
292	7	Sololá	712	San Antonio Palopó	9	San Antonio Palopo	8	Agosto	2023-08-08T00:00:00	2024-11-08T22:00:00	5	Humedad	77
293	7	Sololá	712	San Antonio Palopó	9	San Antonio Palopo	8	Agosto	2023-08-08T00:00:00	2024-11-08T22:00:00	6	Velocidad del viento	3.2
294	7	Sololá	712	San Antonio Palopó	9	San Antonio Palopo	8	Agosto	2023-08-08T00:00:00	2024-11-08T22:00:00	7	Dirección del viento	3.22
295	7	Sololá	712	San Antonio Palopó	9	San Antonio Palopo	8	Agosto	2023-08-08T00:00:00	2024-11-08T22:00:00	1	Precipitación	0
296	7	Sololá	712	San Antonio Palopó	9	San Antonio Palopo	8	Agosto	2023-08-08T00:00:00	2024-11-08T22:00:00	8	Radiación solar	0
297	7	Sololá	712	San Antonio Palopó	9	San Antonio Palopo	8	Agosto	2023-08-08T00:00:00	2024-11-08T23:00:00	2	Temperatura media	20.7
298	7	Sololá	712	San Antonio Palopó	9	San Antonio Palopo	8	Agosto	2023-08-08T00:00:00	2024-11-08T23:00:00	4	Temperatura máxima	21.1
299	7	Sololá	712	San Antonio Palopó	9	San Antonio Palopo	8	Agosto	2023-08-08T00:00:00	2024-11-08T23:00:00	3	Temperatura mínima	20.7
300	7	Sololá	712	San Antonio Palopó	9	San Antonio Palopo	8	Agosto	2023-08-08T00:00:00	2024-11-08T23:00:00	5	Humedad	72
301	7	Sololá	712	San Antonio Palopó	9	San Antonio Palopo	8	Agosto	2023-08-08T00:00:00	2024-11-08T23:00:00	6	Velocidad del viento	6.4
302	7	Sololá	712	San Antonio Palopó	9	San Antonio Palopo	8	Agosto	2023-08-08T00:00:00	2024-11-08T23:00:00	7	Dirección del viento	6.44
303	7	Sololá	712	San Antonio Palopó	9	San Antonio Palopo	8	Agosto	2023-08-08T00:00:00	2024-11-08T23:00:00	1	Precipitación	0
304	7	Sololá	712	San Antonio Palopó	9	San Antonio Palopo	8	Agosto	2023-08-08T00:00:00	2024-11-08T23:00:00	8	Radiación solar	0
305	7	Sololá	712	San Antonio Palopó	9	San Antonio Palopo	8	Agosto	2023-09-08T00:00:00	2024-11-08T00:00:00	2	Temperatura media	20.6
306	7	Sololá	712	San Antonio Palopó	9	San Antonio Palopo	8	Agosto	2023-09-08T00:00:00	2024-11-08T00:00:00	4	Temperatura máxima	20.9
307	7	Sololá	712	San Antonio Palopó	9	San Antonio Palopo	8	Agosto	2023-09-08T00:00:00	2024-11-08T00:00:00	3	Temperatura mínima	20.3
308	7	Sololá	712	San Antonio Palopó	9	San Antonio Palopo	8	Agosto	2023-09-08T00:00:00	2024-11-08T00:00:00	5	Humedad	73
309	7	Sololá	712	San Antonio Palopó	9	San Antonio Palopo	8	Agosto	2023-09-08T00:00:00	2024-11-08T00:00:00	6	Velocidad del viento	8
310	7	Sololá	712	San Antonio Palopó	9	San Antonio Palopo	8	Agosto	2023-09-08T00:00:00	2024-11-08T00:00:00	7	Dirección del viento	8.05
311	7	Sololá	712	San Antonio Palopó	9	San Antonio Palopo	8	Agosto	2023-09-08T00:00:00	2024-11-08T00:00:00	1	Precipitación	0
312	7	Sololá	712	San Antonio Palopó	9	San Antonio Palopo	8	Agosto	2023-09-08T00:00:00	2024-11-08T00:00:00	8	Radiación solar	0
313	7	Sololá	712	San Antonio Palopó	9	San Antonio Palopo	8	Agosto	2023-09-08T00:00:00	2024-11-08T01:00:00	2	Temperatura media	20.1
314	7	Sololá	712	San Antonio Palopó	9	San Antonio Palopo	8	Agosto	2023-09-08T00:00:00	2024-11-08T01:00:00	4	Temperatura máxima	20.6
315	7	Sololá	712	San Antonio Palopó	9	San Antonio Palopo	8	Agosto	2023-09-08T00:00:00	2024-11-08T01:00:00	3	Temperatura mínima	19.9
316	7	Sololá	712	San Antonio Palopó	9	San Antonio Palopo	8	Agosto	2023-09-08T00:00:00	2024-11-08T01:00:00	5	Humedad	72
317	7	Sololá	712	San Antonio Palopó	9	San Antonio Palopo	8	Agosto	2023-09-08T00:00:00	2024-11-08T01:00:00	6	Velocidad del viento	3.2
318	7	Sololá	712	San Antonio Palopó	9	San Antonio Palopo	8	Agosto	2023-09-08T00:00:00	2024-11-08T01:00:00	7	Dirección del viento	3.22
319	7	Sololá	712	San Antonio Palopó	9	San Antonio Palopo	8	Agosto	2023-09-08T00:00:00	2024-11-08T01:00:00	1	Precipitación	0
320	7	Sololá	712	San Antonio Palopó	9	San Antonio Palopo	8	Agosto	2023-09-08T00:00:00	2024-11-08T01:00:00	8	Radiación solar	0
321	7	Sololá	712	San Antonio Palopó	9	San Antonio Palopo	8	Agosto	2023-09-08T00:00:00	2024-11-08T02:00:00	2	Temperatura media	19.7
322	7	Sololá	712	San Antonio Palopó	9	San Antonio Palopo	8	Agosto	2023-09-08T00:00:00	2024-11-08T02:00:00	4	Temperatura máxima	20.4
323	7	Sololá	712	San Antonio Palopó	9	San Antonio Palopo	8	Agosto	2023-09-08T00:00:00	2024-11-08T02:00:00	3	Temperatura mínima	19.7
324	7	Sololá	712	San Antonio Palopó	9	San Antonio Palopo	8	Agosto	2023-09-08T00:00:00	2024-11-08T02:00:00	5	Humedad	74
325	7	Sololá	712	San Antonio Palopó	9	San Antonio Palopo	8	Agosto	2023-09-08T00:00:00	2024-11-08T02:00:00	6	Velocidad del viento	4.8
326	7	Sololá	712	San Antonio Palopó	9	San Antonio Palopo	8	Agosto	2023-09-08T00:00:00	2024-11-08T02:00:00	7	Dirección del viento	4.83
327	7	Sololá	712	San Antonio Palopó	9	San Antonio Palopo	8	Agosto	2023-09-08T00:00:00	2024-11-08T02:00:00	1	Precipitación	0
328	7	Sololá	712	San Antonio Palopó	9	San Antonio Palopo	8	Agosto	2023-09-08T00:00:00	2024-11-08T02:00:00	8	Radiación solar	0
329	7	Sololá	712	San Antonio Palopó	9	San Antonio Palopo	8	Agosto	2023-09-08T00:00:00	2024-11-08T03:00:00	2	Temperatura media	19.6
330	7	Sololá	712	San Antonio Palopó	9	San Antonio Palopo	8	Agosto	2023-09-08T00:00:00	2024-11-08T03:00:00	4	Temperatura máxima	20.1
331	7	Sololá	712	San Antonio Palopó	9	San Antonio Palopo	8	Agosto	2023-09-08T00:00:00	2024-11-08T03:00:00	3	Temperatura mínima	19.6
332	7	Sololá	712	San Antonio Palopó	9	San Antonio Palopo	8	Agosto	2023-09-08T00:00:00	2024-11-08T03:00:00	5	Humedad	74
333	7	Sololá	712	San Antonio Palopó	9	San Antonio Palopo	8	Agosto	2023-09-08T00:00:00	2024-11-08T03:00:00	6	Velocidad del viento	9.7
334	7	Sololá	712	San Antonio Palopó	9	San Antonio Palopo	8	Agosto	2023-09-08T00:00:00	2024-11-08T03:00:00	7	Dirección del viento	9.66
335	7	Sololá	712	San Antonio Palopó	9	San Antonio Palopo	8	Agosto	2023-09-08T00:00:00	2024-11-08T03:00:00	1	Precipitación	0
336	7	Sololá	712	San Antonio Palopó	9	San Antonio Palopo	8	Agosto	2023-09-08T00:00:00	2024-11-08T03:00:00	8	Radiación solar	0
337	7	Sololá	712	San Antonio Palopó	9	San Antonio Palopo	8	Agosto	2023-09-08T00:00:00	2024-11-08T04:00:00	2	Temperatura media	19.7
338	7	Sololá	712	San Antonio Palopó	9	San Antonio Palopo	8	Agosto	2023-09-08T00:00:00	2024-11-08T04:00:00	4	Temperatura máxima	19.9
339	7	Sololá	712	San Antonio Palopó	9	San Antonio Palopo	8	Agosto	2023-09-08T00:00:00	2024-11-08T04:00:00	3	Temperatura mínima	19.6
340	7	Sololá	712	San Antonio Palopó	9	San Antonio Palopo	8	Agosto	2023-09-08T00:00:00	2024-11-08T04:00:00	5	Humedad	73
341	7	Sololá	712	San Antonio Palopó	9	San Antonio Palopo	8	Agosto	2023-09-08T00:00:00	2024-11-08T04:00:00	6	Velocidad del viento	11.3
342	7	Sololá	712	San Antonio Palopó	9	San Antonio Palopo	8	Agosto	2023-09-08T00:00:00	2024-11-08T04:00:00	7	Dirección del viento	11.27
343	7	Sololá	712	San Antonio Palopó	9	San Antonio Palopo	8	Agosto	2023-09-08T00:00:00	2024-11-08T04:00:00	1	Precipitación	0
344	7	Sololá	712	San Antonio Palopó	9	San Antonio Palopo	8	Agosto	2023-09-08T00:00:00	2024-11-08T04:00:00	8	Radiación solar	0
345	7	Sololá	712	San Antonio Palopó	9	San Antonio Palopo	8	Agosto	2023-09-08T00:00:00	2024-11-08T05:00:00	2	Temperatura media	19.8
346	7	Sololá	712	San Antonio Palopó	9	San Antonio Palopo	8	Agosto	2023-09-08T00:00:00	2024-11-08T05:00:00	4	Temperatura máxima	20
347	7	Sololá	712	San Antonio Palopó	9	San Antonio Palopo	8	Agosto	2023-09-08T00:00:00	2024-11-08T05:00:00	3	Temperatura mínima	19.7
348	7	Sololá	712	San Antonio Palopó	9	San Antonio Palopo	8	Agosto	2023-09-08T00:00:00	2024-11-08T05:00:00	5	Humedad	73
349	7	Sololá	712	San Antonio Palopó	9	San Antonio Palopo	8	Agosto	2023-09-08T00:00:00	2024-11-08T05:00:00	6	Velocidad del viento	11.3
350	7	Sololá	712	San Antonio Palopó	9	San Antonio Palopo	8	Agosto	2023-09-08T00:00:00	2024-11-08T05:00:00	7	Dirección del viento	11.27
351	7	Sololá	712	San Antonio Palopó	9	San Antonio Palopo	8	Agosto	2023-09-08T00:00:00	2024-11-08T05:00:00	1	Precipitación	0
352	7	Sololá	712	San Antonio Palopó	9	San Antonio Palopo	8	Agosto	2023-09-08T00:00:00	2024-11-08T05:00:00	8	Radiación solar	0
353	7	Sololá	712	San Antonio Palopó	9	San Antonio Palopo	8	Agosto	2023-09-08T00:00:00	2024-11-08T06:00:00	2	Temperatura media	19.7
354	7	Sololá	712	San Antonio Palopó	9	San Antonio Palopo	8	Agosto	2023-09-08T00:00:00	2024-11-08T06:00:00	4	Temperatura máxima	20
355	7	Sololá	712	San Antonio Palopó	9	San Antonio Palopo	8	Agosto	2023-09-08T00:00:00	2024-11-08T06:00:00	3	Temperatura mínima	19.7
356	7	Sololá	712	San Antonio Palopó	9	San Antonio Palopo	8	Agosto	2023-09-08T00:00:00	2024-11-08T06:00:00	5	Humedad	73
357	7	Sololá	712	San Antonio Palopó	9	San Antonio Palopo	8	Agosto	2023-09-08T00:00:00	2024-11-08T06:00:00	6	Velocidad del viento	11.3
358	7	Sololá	712	San Antonio Palopó	9	San Antonio Palopo	8	Agosto	2023-09-08T00:00:00	2024-11-08T06:00:00	7	Dirección del viento	11.27
359	7	Sololá	712	San Antonio Palopó	9	San Antonio Palopo	8	Agosto	2023-09-08T00:00:00	2024-11-08T06:00:00	1	Precipitación	0
360	7	Sololá	712	San Antonio Palopó	9	San Antonio Palopo	8	Agosto	2023-09-08T00:00:00	2024-11-08T06:00:00	8	Radiación solar	0
361	7	Sololá	712	San Antonio Palopó	9	San Antonio Palopo	8	Agosto	2023-09-08T00:00:00	2024-11-08T07:00:00	2	Temperatura media	19.7
362	7	Sololá	712	San Antonio Palopó	9	San Antonio Palopo	8	Agosto	2023-09-08T00:00:00	2024-11-08T07:00:00	4	Temperatura máxima	19.8
363	7	Sololá	712	San Antonio Palopó	9	San Antonio Palopo	8	Agosto	2023-09-08T00:00:00	2024-11-08T07:00:00	3	Temperatura mínima	19.4
364	7	Sololá	712	San Antonio Palopó	9	San Antonio Palopo	8	Agosto	2023-09-08T00:00:00	2024-11-08T07:00:00	5	Humedad	73
365	7	Sololá	712	San Antonio Palopó	9	San Antonio Palopo	8	Agosto	2023-09-08T00:00:00	2024-11-08T07:00:00	6	Velocidad del viento	11.3
366	7	Sololá	712	San Antonio Palopó	9	San Antonio Palopo	8	Agosto	2023-09-08T00:00:00	2024-11-08T07:00:00	7	Dirección del viento	11.27
367	7	Sololá	712	San Antonio Palopó	9	San Antonio Palopo	8	Agosto	2023-09-08T00:00:00	2024-11-08T07:00:00	1	Precipitación	0
368	7	Sololá	712	San Antonio Palopó	9	San Antonio Palopo	8	Agosto	2023-09-08T00:00:00	2024-11-08T07:00:00	8	Radiación solar	18
369	7	Sololá	712	San Antonio Palopó	9	San Antonio Palopo	8	Agosto	2023-09-08T00:00:00	2024-11-08T08:00:00	2	Temperatura media	21.7
370	7	Sololá	712	San Antonio Palopó	9	San Antonio Palopo	8	Agosto	2023-09-08T00:00:00	2024-11-08T08:00:00	4	Temperatura máxima	21.7
371	7	Sololá	712	San Antonio Palopó	9	San Antonio Palopo	8	Agosto	2023-09-08T00:00:00	2024-11-08T08:00:00	3	Temperatura mínima	19.7
372	7	Sololá	712	San Antonio Palopó	9	San Antonio Palopo	8	Agosto	2023-09-08T00:00:00	2024-11-08T08:00:00	5	Humedad	71
373	7	Sololá	712	San Antonio Palopó	9	San Antonio Palopo	8	Agosto	2023-09-08T00:00:00	2024-11-08T08:00:00	6	Velocidad del viento	3.2
374	7	Sololá	712	San Antonio Palopó	9	San Antonio Palopo	8	Agosto	2023-09-08T00:00:00	2024-11-08T08:00:00	7	Dirección del viento	3.22
375	7	Sololá	712	San Antonio Palopó	9	San Antonio Palopo	8	Agosto	2023-09-08T00:00:00	2024-11-08T08:00:00	1	Precipitación	0
376	7	Sololá	712	San Antonio Palopó	9	San Antonio Palopo	8	Agosto	2023-09-08T00:00:00	2024-11-08T08:00:00	8	Radiación solar	162
377	7	Sololá	712	San Antonio Palopó	9	San Antonio Palopo	8	Agosto	2023-09-08T00:00:00	2024-11-08T09:00:00	2	Temperatura media	22.5
378	7	Sololá	712	San Antonio Palopó	9	San Antonio Palopo	8	Agosto	2023-09-08T00:00:00	2024-11-08T09:00:00	4	Temperatura máxima	22.6
379	7	Sololá	712	San Antonio Palopó	9	San Antonio Palopo	8	Agosto	2023-09-08T00:00:00	2024-11-08T09:00:00	3	Temperatura mínima	21.6
380	7	Sololá	712	San Antonio Palopó	9	San Antonio Palopo	8	Agosto	2023-09-08T00:00:00	2024-11-08T09:00:00	5	Humedad	70
381	7	Sololá	712	San Antonio Palopó	9	San Antonio Palopo	8	Agosto	2023-09-08T00:00:00	2024-11-08T09:00:00	6	Velocidad del viento	1.6
382	7	Sololá	712	San Antonio Palopó	9	San Antonio Palopo	8	Agosto	2023-09-08T00:00:00	2024-11-08T09:00:00	7	Dirección del viento	1.61
383	7	Sololá	712	San Antonio Palopó	9	San Antonio Palopo	8	Agosto	2023-09-08T00:00:00	2024-11-08T09:00:00	1	Precipitación	0
384	7	Sololá	712	San Antonio Palopó	9	San Antonio Palopo	8	Agosto	2023-09-08T00:00:00	2024-11-08T09:00:00	8	Radiación solar	614
385	7	Sololá	712	San Antonio Palopó	9	San Antonio Palopo	8	Agosto	2023-09-08T00:00:00	2024-11-08T10:00:00	2	Temperatura media	22.9
386	7	Sololá	712	San Antonio Palopó	9	San Antonio Palopo	8	Agosto	2023-09-08T00:00:00	2024-11-08T10:00:00	4	Temperatura máxima	23.1
387	7	Sololá	712	San Antonio Palopó	9	San Antonio Palopo	8	Agosto	2023-09-08T00:00:00	2024-11-08T10:00:00	3	Temperatura mínima	21.9
388	7	Sololá	712	San Antonio Palopó	9	San Antonio Palopo	8	Agosto	2023-09-08T00:00:00	2024-11-08T10:00:00	5	Humedad	69
389	7	Sololá	712	San Antonio Palopó	9	San Antonio Palopo	8	Agosto	2023-09-08T00:00:00	2024-11-08T10:00:00	6	Velocidad del viento	3.2
390	7	Sololá	712	San Antonio Palopó	9	San Antonio Palopo	8	Agosto	2023-09-08T00:00:00	2024-11-08T10:00:00	7	Dirección del viento	3.22
391	7	Sololá	712	San Antonio Palopó	9	San Antonio Palopo	8	Agosto	2023-09-08T00:00:00	2024-11-08T10:00:00	1	Precipitación	0
392	7	Sololá	712	San Antonio Palopó	9	San Antonio Palopo	8	Agosto	2023-09-08T00:00:00	2024-11-08T10:00:00	8	Radiación solar	744
393	7	Sololá	712	San Antonio Palopó	9	San Antonio Palopo	8	Agosto	2023-09-08T00:00:00	2024-11-08T11:00:00	2	Temperatura media	23.9
394	7	Sololá	712	San Antonio Palopó	9	San Antonio Palopo	8	Agosto	2023-09-08T00:00:00	2024-11-08T11:00:00	4	Temperatura máxima	23.9
395	7	Sololá	712	San Antonio Palopó	9	San Antonio Palopo	8	Agosto	2023-09-08T00:00:00	2024-11-08T11:00:00	3	Temperatura mínima	22.8
396	7	Sololá	712	San Antonio Palopó	9	San Antonio Palopo	8	Agosto	2023-09-08T00:00:00	2024-11-08T11:00:00	5	Humedad	69
397	7	Sololá	712	San Antonio Palopó	9	San Antonio Palopo	8	Agosto	2023-09-08T00:00:00	2024-11-08T11:00:00	6	Velocidad del viento	3.2
398	7	Sololá	712	San Antonio Palopó	9	San Antonio Palopo	8	Agosto	2023-09-08T00:00:00	2024-11-08T11:00:00	7	Dirección del viento	3.22
399	7	Sololá	712	San Antonio Palopó	9	San Antonio Palopo	8	Agosto	2023-09-08T00:00:00	2024-11-08T11:00:00	1	Precipitación	0
400	7	Sololá	712	San Antonio Palopó	9	San Antonio Palopo	8	Agosto	2023-09-08T00:00:00	2024-11-08T11:00:00	8	Radiación solar	859
401	7	Sololá	712	San Antonio Palopó	9	San Antonio Palopo	8	Agosto	2023-09-08T00:00:00	2024-11-08T12:00:00	2	Temperatura media	25.4
402	7	Sololá	712	San Antonio Palopó	9	San Antonio Palopo	8	Agosto	2023-09-08T00:00:00	2024-11-08T12:00:00	4	Temperatura máxima	25.4
403	7	Sololá	712	San Antonio Palopó	9	San Antonio Palopo	8	Agosto	2023-09-08T00:00:00	2024-11-08T12:00:00	3	Temperatura mínima	23.6
404	7	Sololá	712	San Antonio Palopó	9	San Antonio Palopo	8	Agosto	2023-09-08T00:00:00	2024-11-08T12:00:00	5	Humedad	70
405	7	Sololá	712	San Antonio Palopó	9	San Antonio Palopo	8	Agosto	2023-09-08T00:00:00	2024-11-08T12:00:00	6	Velocidad del viento	4.8
406	7	Sololá	712	San Antonio Palopó	9	San Antonio Palopo	8	Agosto	2023-09-08T00:00:00	2024-11-08T12:00:00	7	Dirección del viento	4.83
407	7	Sololá	712	San Antonio Palopó	9	San Antonio Palopo	8	Agosto	2023-09-08T00:00:00	2024-11-08T12:00:00	1	Precipitación	0
408	7	Sololá	712	San Antonio Palopó	9	San Antonio Palopo	8	Agosto	2023-09-08T00:00:00	2024-11-08T12:00:00	8	Radiación solar	945
409	7	Sololá	712	San Antonio Palopó	9	San Antonio Palopo	8	Agosto	2023-09-08T00:00:00	2024-11-08T13:00:00	2	Temperatura media	25.1
410	7	Sololá	712	San Antonio Palopó	9	San Antonio Palopo	8	Agosto	2023-09-08T00:00:00	2024-11-08T13:00:00	4	Temperatura máxima	25.9
411	7	Sololá	712	San Antonio Palopó	9	San Antonio Palopo	8	Agosto	2023-09-08T00:00:00	2024-11-08T13:00:00	3	Temperatura mínima	25.1
412	7	Sololá	712	San Antonio Palopó	9	San Antonio Palopo	8	Agosto	2023-09-08T00:00:00	2024-11-08T13:00:00	5	Humedad	71
413	7	Sololá	712	San Antonio Palopó	9	San Antonio Palopo	8	Agosto	2023-09-08T00:00:00	2024-11-08T13:00:00	6	Velocidad del viento	6.4
414	7	Sololá	712	San Antonio Palopó	9	San Antonio Palopo	8	Agosto	2023-09-08T00:00:00	2024-11-08T13:00:00	7	Dirección del viento	6.44
415	7	Sololá	712	San Antonio Palopó	9	San Antonio Palopo	8	Agosto	2023-09-08T00:00:00	2024-11-08T13:00:00	1	Precipitación	0
416	7	Sololá	712	San Antonio Palopó	9	San Antonio Palopo	8	Agosto	2023-09-08T00:00:00	2024-11-08T13:00:00	8	Radiación solar	874
417	7	Sololá	712	San Antonio Palopó	9	San Antonio Palopo	8	Agosto	2023-09-08T00:00:00	2024-11-08T14:00:00	2	Temperatura media	24.8
418	7	Sololá	712	San Antonio Palopó	9	San Antonio Palopo	8	Agosto	2023-09-08T00:00:00	2024-11-08T14:00:00	4	Temperatura máxima	25.7
419	7	Sololá	712	San Antonio Palopó	9	San Antonio Palopo	8	Agosto	2023-09-08T00:00:00	2024-11-08T14:00:00	3	Temperatura mínima	24.8
420	7	Sololá	712	San Antonio Palopó	9	San Antonio Palopo	8	Agosto	2023-09-08T00:00:00	2024-11-08T14:00:00	5	Humedad	72
421	7	Sololá	712	San Antonio Palopó	9	San Antonio Palopo	8	Agosto	2023-09-08T00:00:00	2024-11-08T14:00:00	6	Velocidad del viento	11.3
422	7	Sololá	712	San Antonio Palopó	9	San Antonio Palopo	8	Agosto	2023-09-08T00:00:00	2024-11-08T14:00:00	7	Dirección del viento	11.27
423	7	Sololá	712	San Antonio Palopó	9	San Antonio Palopo	8	Agosto	2023-09-08T00:00:00	2024-11-08T14:00:00	1	Precipitación	0
424	7	Sololá	712	San Antonio Palopó	9	San Antonio Palopo	8	Agosto	2023-09-08T00:00:00	2024-11-08T14:00:00	8	Radiación solar	945
425	7	Sololá	712	San Antonio Palopó	9	San Antonio Palopo	8	Agosto	2023-09-08T00:00:00	2024-11-08T15:00:00	2	Temperatura media	23.7
426	7	Sololá	712	San Antonio Palopó	9	San Antonio Palopo	8	Agosto	2023-09-08T00:00:00	2024-11-08T15:00:00	4	Temperatura máxima	24.8
427	7	Sololá	712	San Antonio Palopó	9	San Antonio Palopo	8	Agosto	2023-09-08T00:00:00	2024-11-08T15:00:00	3	Temperatura mínima	22.8
428	7	Sololá	712	San Antonio Palopó	9	San Antonio Palopo	8	Agosto	2023-09-08T00:00:00	2024-11-08T15:00:00	5	Humedad	73
429	7	Sololá	712	San Antonio Palopó	9	San Antonio Palopo	8	Agosto	2023-09-08T00:00:00	2024-11-08T15:00:00	6	Velocidad del viento	11.3
430	7	Sololá	712	San Antonio Palopó	9	San Antonio Palopo	8	Agosto	2023-09-08T00:00:00	2024-11-08T15:00:00	7	Dirección del viento	11.27
431	7	Sololá	712	San Antonio Palopó	9	San Antonio Palopo	8	Agosto	2023-09-08T00:00:00	2024-11-08T15:00:00	1	Precipitación	0
432	7	Sololá	712	San Antonio Palopó	9	San Antonio Palopo	8	Agosto	2023-09-08T00:00:00	2024-11-08T15:00:00	8	Radiación solar	224
433	7	Sololá	712	San Antonio Palopó	9	San Antonio Palopo	8	Agosto	2023-09-08T00:00:00	2024-11-08T16:00:00	2	Temperatura media	21.9
434	7	Sololá	712	San Antonio Palopó	9	San Antonio Palopo	8	Agosto	2023-09-08T00:00:00	2024-11-08T16:00:00	4	Temperatura máxima	24.1
435	7	Sololá	712	San Antonio Palopó	9	San Antonio Palopo	8	Agosto	2023-09-08T00:00:00	2024-11-08T16:00:00	3	Temperatura mínima	21.9
436	7	Sololá	712	San Antonio Palopó	9	San Antonio Palopo	8	Agosto	2023-09-08T00:00:00	2024-11-08T16:00:00	5	Humedad	79
437	7	Sololá	712	San Antonio Palopó	9	San Antonio Palopo	8	Agosto	2023-09-08T00:00:00	2024-11-08T16:00:00	6	Velocidad del viento	9.7
438	7	Sololá	712	San Antonio Palopó	9	San Antonio Palopo	8	Agosto	2023-09-08T00:00:00	2024-11-08T16:00:00	7	Dirección del viento	9.66
439	7	Sololá	712	San Antonio Palopó	9	San Antonio Palopo	8	Agosto	2023-09-08T00:00:00	2024-11-08T16:00:00	1	Precipitación	0
440	7	Sololá	712	San Antonio Palopó	9	San Antonio Palopo	8	Agosto	2023-09-08T00:00:00	2024-11-08T16:00:00	8	Radiación solar	175
441	7	Sololá	712	San Antonio Palopó	9	San Antonio Palopo	8	Agosto	2023-09-08T00:00:00	2024-11-08T17:00:00	2	Temperatura media	21.6
442	7	Sololá	712	San Antonio Palopó	9	San Antonio Palopo	8	Agosto	2023-09-08T00:00:00	2024-11-08T17:00:00	4	Temperatura máxima	22.1
443	7	Sololá	712	San Antonio Palopó	9	San Antonio Palopo	8	Agosto	2023-09-08T00:00:00	2024-11-08T17:00:00	3	Temperatura mínima	21.4
444	7	Sololá	712	San Antonio Palopó	9	San Antonio Palopo	8	Agosto	2023-09-08T00:00:00	2024-11-08T17:00:00	5	Humedad	80
445	7	Sololá	712	San Antonio Palopó	9	San Antonio Palopo	8	Agosto	2023-09-08T00:00:00	2024-11-08T17:00:00	6	Velocidad del viento	4.8
446	7	Sololá	712	San Antonio Palopó	9	San Antonio Palopo	8	Agosto	2023-09-08T00:00:00	2024-11-08T17:00:00	7	Dirección del viento	4.83
447	7	Sololá	712	San Antonio Palopó	9	San Antonio Palopo	8	Agosto	2023-09-08T00:00:00	2024-11-08T17:00:00	1	Precipitación	0
448	7	Sololá	712	San Antonio Palopó	9	San Antonio Palopo	8	Agosto	2023-09-08T00:00:00	2024-11-08T17:00:00	8	Radiación solar	105
449	7	Sololá	712	San Antonio Palopó	9	San Antonio Palopo	8	Agosto	2023-09-08T00:00:00	2024-11-08T18:00:00	2	Temperatura media	21.6
450	7	Sololá	712	San Antonio Palopó	9	San Antonio Palopo	8	Agosto	2023-09-08T00:00:00	2024-11-08T18:00:00	4	Temperatura máxima	22.5
451	7	Sololá	712	San Antonio Palopó	9	San Antonio Palopo	8	Agosto	2023-09-08T00:00:00	2024-11-08T18:00:00	3	Temperatura mínima	21.5
452	7	Sololá	712	San Antonio Palopó	9	San Antonio Palopo	8	Agosto	2023-09-08T00:00:00	2024-11-08T18:00:00	5	Humedad	80
453	7	Sololá	712	San Antonio Palopó	9	San Antonio Palopo	8	Agosto	2023-09-08T00:00:00	2024-11-08T18:00:00	6	Velocidad del viento	3.2
454	7	Sololá	712	San Antonio Palopó	9	San Antonio Palopo	8	Agosto	2023-09-08T00:00:00	2024-11-08T18:00:00	7	Dirección del viento	3.22
455	7	Sololá	712	San Antonio Palopó	9	San Antonio Palopo	8	Agosto	2023-09-08T00:00:00	2024-11-08T18:00:00	1	Precipitación	0
456	7	Sololá	712	San Antonio Palopó	9	San Antonio Palopo	8	Agosto	2023-09-08T00:00:00	2024-11-08T18:00:00	8	Radiación solar	69
457	7	Sololá	712	San Antonio Palopó	9	San Antonio Palopo	8	Agosto	2023-09-08T00:00:00	2024-11-08T19:00:00	2	Temperatura media	21.3
458	7	Sololá	712	San Antonio Palopó	9	San Antonio Palopo	8	Agosto	2023-09-08T00:00:00	2024-11-08T19:00:00	4	Temperatura máxima	21.7
459	7	Sololá	712	San Antonio Palopó	9	San Antonio Palopo	8	Agosto	2023-09-08T00:00:00	2024-11-08T19:00:00	3	Temperatura mínima	21.3
460	7	Sololá	712	San Antonio Palopó	9	San Antonio Palopo	8	Agosto	2023-09-08T00:00:00	2024-11-08T19:00:00	5	Humedad	77
461	7	Sololá	712	San Antonio Palopó	9	San Antonio Palopo	8	Agosto	2023-09-08T00:00:00	2024-11-08T19:00:00	6	Velocidad del viento	4.8
462	7	Sololá	712	San Antonio Palopó	9	San Antonio Palopo	8	Agosto	2023-09-08T00:00:00	2024-11-08T19:00:00	7	Dirección del viento	4.83
463	7	Sololá	712	San Antonio Palopó	9	San Antonio Palopo	8	Agosto	2023-09-08T00:00:00	2024-11-08T19:00:00	1	Precipitación	0
464	7	Sololá	712	San Antonio Palopó	9	San Antonio Palopo	8	Agosto	2023-09-08T00:00:00	2024-11-08T19:00:00	8	Radiación solar	0
465	7	Sololá	712	San Antonio Palopó	9	San Antonio Palopo	8	Agosto	2023-09-08T00:00:00	2024-11-08T20:00:00	2	Temperatura media	20.7
466	7	Sololá	712	San Antonio Palopó	9	San Antonio Palopo	8	Agosto	2023-09-08T00:00:00	2024-11-08T20:00:00	4	Temperatura máxima	21.3
467	7	Sololá	712	San Antonio Palopó	9	San Antonio Palopo	8	Agosto	2023-09-08T00:00:00	2024-11-08T20:00:00	3	Temperatura mínima	20.7
468	7	Sololá	712	San Antonio Palopó	9	San Antonio Palopo	8	Agosto	2023-09-08T00:00:00	2024-11-08T20:00:00	5	Humedad	81
469	7	Sololá	712	San Antonio Palopó	9	San Antonio Palopo	8	Agosto	2023-09-08T00:00:00	2024-11-08T20:00:00	6	Velocidad del viento	3.2
470	7	Sololá	712	San Antonio Palopó	9	San Antonio Palopo	8	Agosto	2023-09-08T00:00:00	2024-11-08T20:00:00	7	Dirección del viento	3.22
471	7	Sololá	712	San Antonio Palopó	9	San Antonio Palopo	8	Agosto	2023-09-08T00:00:00	2024-11-08T20:00:00	1	Precipitación	0
472	7	Sololá	712	San Antonio Palopó	9	San Antonio Palopo	8	Agosto	2023-09-08T00:00:00	2024-11-08T20:00:00	8	Radiación solar	0
473	7	Sololá	712	San Antonio Palopó	9	San Antonio Palopo	8	Agosto	2023-09-08T00:00:00	2024-11-08T21:00:00	2	Temperatura media	19.9
474	7	Sololá	712	San Antonio Palopó	9	San Antonio Palopo	8	Agosto	2023-09-08T00:00:00	2024-11-08T21:00:00	4	Temperatura máxima	20.6
475	7	Sololá	712	San Antonio Palopó	9	San Antonio Palopo	8	Agosto	2023-09-08T00:00:00	2024-11-08T21:00:00	3	Temperatura mínima	19.9
476	7	Sololá	712	San Antonio Palopó	9	San Antonio Palopo	8	Agosto	2023-09-08T00:00:00	2024-11-08T21:00:00	5	Humedad	82
477	7	Sololá	712	San Antonio Palopó	9	San Antonio Palopo	8	Agosto	2023-09-08T00:00:00	2024-11-08T21:00:00	6	Velocidad del viento	3.2
478	7	Sololá	712	San Antonio Palopó	9	San Antonio Palopo	8	Agosto	2023-09-08T00:00:00	2024-11-08T21:00:00	7	Dirección del viento	3.22
479	7	Sololá	712	San Antonio Palopó	9	San Antonio Palopo	8	Agosto	2023-09-08T00:00:00	2024-11-08T21:00:00	1	Precipitación	0
480	7	Sololá	712	San Antonio Palopó	9	San Antonio Palopo	8	Agosto	2023-09-08T00:00:00	2024-11-08T21:00:00	8	Radiación solar	0
481	7	Sololá	712	San Antonio Palopó	9	San Antonio Palopo	8	Agosto	2023-09-08T00:00:00	2024-11-08T22:00:00	2	Temperatura media	20.6
482	7	Sololá	712	San Antonio Palopó	9	San Antonio Palopo	8	Agosto	2023-09-08T00:00:00	2024-11-08T22:00:00	4	Temperatura máxima	20.6
483	7	Sololá	712	San Antonio Palopó	9	San Antonio Palopo	8	Agosto	2023-09-08T00:00:00	2024-11-08T22:00:00	3	Temperatura mínima	19.4
484	7	Sololá	712	San Antonio Palopó	9	San Antonio Palopo	8	Agosto	2023-09-08T00:00:00	2024-11-08T22:00:00	5	Humedad	80
485	7	Sololá	712	San Antonio Palopó	9	San Antonio Palopo	8	Agosto	2023-09-08T00:00:00	2024-11-08T22:00:00	6	Velocidad del viento	3.2
486	7	Sololá	712	San Antonio Palopó	9	San Antonio Palopo	8	Agosto	2023-09-08T00:00:00	2024-11-08T22:00:00	7	Dirección del viento	3.22
487	7	Sololá	712	San Antonio Palopó	9	San Antonio Palopo	8	Agosto	2023-09-08T00:00:00	2024-11-08T22:00:00	1	Precipitación	0
488	7	Sololá	712	San Antonio Palopó	9	San Antonio Palopo	8	Agosto	2023-09-08T00:00:00	2024-11-08T22:00:00	8	Radiación solar	0
489	7	Sololá	712	San Antonio Palopó	9	San Antonio Palopo	8	Agosto	2023-09-08T00:00:00	2024-11-08T23:00:00	2	Temperatura media	20.2
490	7	Sololá	712	San Antonio Palopó	9	San Antonio Palopo	8	Agosto	2023-09-08T00:00:00	2024-11-08T23:00:00	4	Temperatura máxima	20.6
491	7	Sololá	712	San Antonio Palopó	9	San Antonio Palopo	8	Agosto	2023-09-08T00:00:00	2024-11-08T23:00:00	3	Temperatura mínima	19.6
492	7	Sololá	712	San Antonio Palopó	9	San Antonio Palopo	8	Agosto	2023-09-08T00:00:00	2024-11-08T23:00:00	5	Humedad	77
493	7	Sololá	712	San Antonio Palopó	9	San Antonio Palopo	8	Agosto	2023-09-08T00:00:00	2024-11-08T23:00:00	6	Velocidad del viento	3.2
494	7	Sololá	712	San Antonio Palopó	9	San Antonio Palopo	8	Agosto	2023-09-08T00:00:00	2024-11-08T23:00:00	7	Dirección del viento	3.22
495	7	Sololá	712	San Antonio Palopó	9	San Antonio Palopo	8	Agosto	2023-09-08T00:00:00	2024-11-08T23:00:00	1	Precipitación	0
496	7	Sololá	712	San Antonio Palopó	9	San Antonio Palopo	8	Agosto	2023-09-08T00:00:00	2024-11-08T23:00:00	8	Radiación solar	0
497	7	Sololá	712	San Antonio Palopó	9	San Antonio Palopo	8	Agosto	2023-10-08T00:00:00	2024-11-08T00:00:00	2	Temperatura media	20.7
498	7	Sololá	712	San Antonio Palopó	9	San Antonio Palopo	8	Agosto	2023-10-08T00:00:00	2024-11-08T00:00:00	4	Temperatura máxima	20.9
499	7	Sololá	712	San Antonio Palopó	9	San Antonio Palopo	8	Agosto	2023-10-08T00:00:00	2024-11-08T00:00:00	3	Temperatura mínima	20.2
500	7	Sololá	712	San Antonio Palopó	9	San Antonio Palopo	8	Agosto	2023-10-08T00:00:00	2024-11-08T00:00:00	5	Humedad	77
501	7	Sololá	712	San Antonio Palopó	9	San Antonio Palopo	8	Agosto	2023-10-08T00:00:00	2024-11-08T00:00:00	6	Velocidad del viento	3.2
502	7	Sololá	712	San Antonio Palopó	9	San Antonio Palopo	8	Agosto	2023-10-08T00:00:00	2024-11-08T00:00:00	7	Dirección del viento	3.22
503	7	Sololá	712	San Antonio Palopó	9	San Antonio Palopo	8	Agosto	2023-10-08T00:00:00	2024-11-08T00:00:00	1	Precipitación	0
504	7	Sololá	712	San Antonio Palopó	9	San Antonio Palopo	8	Agosto	2023-10-08T00:00:00	2024-11-08T00:00:00	8	Radiación solar	0
505	7	Sololá	712	San Antonio Palopó	9	San Antonio Palopo	8	Agosto	2023-10-08T00:00:00	2024-11-08T01:00:00	2	Temperatura media	19.3
506	7	Sololá	712	San Antonio Palopó	9	San Antonio Palopo	8	Agosto	2023-10-08T00:00:00	2024-11-08T01:00:00	4	Temperatura máxima	20.7
507	7	Sololá	712	San Antonio Palopó	9	San Antonio Palopo	8	Agosto	2023-10-08T00:00:00	2024-11-08T01:00:00	3	Temperatura mínima	19.3
508	7	Sololá	712	San Antonio Palopó	9	San Antonio Palopo	8	Agosto	2023-10-08T00:00:00	2024-11-08T01:00:00	5	Humedad	82
509	7	Sololá	712	San Antonio Palopó	9	San Antonio Palopo	8	Agosto	2023-10-08T00:00:00	2024-11-08T01:00:00	6	Velocidad del viento	3.2
510	7	Sololá	712	San Antonio Palopó	9	San Antonio Palopo	8	Agosto	2023-10-08T00:00:00	2024-11-08T01:00:00	7	Dirección del viento	3.22
511	7	Sololá	712	San Antonio Palopó	9	San Antonio Palopo	8	Agosto	2023-10-08T00:00:00	2024-11-08T01:00:00	1	Precipitación	0
512	7	Sololá	712	San Antonio Palopó	9	San Antonio Palopo	8	Agosto	2023-10-08T00:00:00	2024-11-08T01:00:00	8	Radiación solar	0
513	7	Sololá	712	San Antonio Palopó	9	San Antonio Palopo	8	Agosto	2023-10-08T00:00:00	2024-11-08T02:00:00	2	Temperatura media	19.1
514	7	Sololá	712	San Antonio Palopó	9	San Antonio Palopo	8	Agosto	2023-10-08T00:00:00	2024-11-08T02:00:00	4	Temperatura máxima	19.4
515	7	Sololá	712	San Antonio Palopó	9	San Antonio Palopo	8	Agosto	2023-10-08T00:00:00	2024-11-08T02:00:00	3	Temperatura mínima	19
516	7	Sololá	712	San Antonio Palopó	9	San Antonio Palopo	8	Agosto	2023-10-08T00:00:00	2024-11-08T02:00:00	5	Humedad	82
517	7	Sololá	712	San Antonio Palopó	9	San Antonio Palopo	8	Agosto	2023-10-08T00:00:00	2024-11-08T02:00:00	6	Velocidad del viento	3.2
518	7	Sololá	712	San Antonio Palopó	9	San Antonio Palopo	8	Agosto	2023-10-08T00:00:00	2024-11-08T02:00:00	7	Dirección del viento	3.22
519	7	Sololá	712	San Antonio Palopó	9	San Antonio Palopo	8	Agosto	2023-10-08T00:00:00	2024-11-08T02:00:00	1	Precipitación	0
520	7	Sololá	712	San Antonio Palopó	9	San Antonio Palopo	8	Agosto	2023-10-08T00:00:00	2024-11-08T02:00:00	8	Radiación solar	0
521	7	Sololá	712	San Antonio Palopó	9	San Antonio Palopo	8	Agosto	2023-10-08T00:00:00	2024-11-08T03:00:00	2	Temperatura media	18.9
522	7	Sololá	712	San Antonio Palopó	9	San Antonio Palopo	8	Agosto	2023-10-08T00:00:00	2024-11-08T03:00:00	4	Temperatura máxima	19
523	7	Sololá	712	San Antonio Palopó	9	San Antonio Palopo	8	Agosto	2023-10-08T00:00:00	2024-11-08T03:00:00	3	Temperatura mínima	18.7
524	7	Sololá	712	San Antonio Palopó	9	San Antonio Palopo	8	Agosto	2023-10-08T00:00:00	2024-11-08T03:00:00	5	Humedad	84
525	7	Sololá	712	San Antonio Palopó	9	San Antonio Palopo	8	Agosto	2023-10-08T00:00:00	2024-11-08T03:00:00	6	Velocidad del viento	3.2
526	7	Sololá	712	San Antonio Palopó	9	San Antonio Palopo	8	Agosto	2023-10-08T00:00:00	2024-11-08T03:00:00	7	Dirección del viento	3.22
527	7	Sololá	712	San Antonio Palopó	9	San Antonio Palopo	8	Agosto	2023-10-08T00:00:00	2024-11-08T03:00:00	1	Precipitación	0
528	7	Sololá	712	San Antonio Palopó	9	San Antonio Palopo	8	Agosto	2023-10-08T00:00:00	2024-11-08T03:00:00	8	Radiación solar	0
529	7	Sololá	712	San Antonio Palopó	9	San Antonio Palopo	8	Agosto	2023-10-08T00:00:00	2024-11-08T04:00:00	2	Temperatura media	18.9
530	7	Sololá	712	San Antonio Palopó	9	San Antonio Palopo	8	Agosto	2023-10-08T00:00:00	2024-11-08T04:00:00	4	Temperatura máxima	19.2
531	7	Sololá	712	San Antonio Palopó	9	San Antonio Palopo	8	Agosto	2023-10-08T00:00:00	2024-11-08T04:00:00	3	Temperatura mínima	18.9
532	7	Sololá	712	San Antonio Palopó	9	San Antonio Palopo	8	Agosto	2023-10-08T00:00:00	2024-11-08T04:00:00	5	Humedad	83
533	7	Sololá	712	San Antonio Palopó	9	San Antonio Palopo	8	Agosto	2023-10-08T00:00:00	2024-11-08T04:00:00	6	Velocidad del viento	3.2
534	7	Sololá	712	San Antonio Palopó	9	San Antonio Palopo	8	Agosto	2023-10-08T00:00:00	2024-11-08T04:00:00	7	Dirección del viento	3.22
535	7	Sololá	712	San Antonio Palopó	9	San Antonio Palopo	8	Agosto	2023-10-08T00:00:00	2024-11-08T04:00:00	1	Precipitación	0
536	7	Sololá	712	San Antonio Palopó	9	San Antonio Palopo	8	Agosto	2023-10-08T00:00:00	2024-11-08T04:00:00	8	Radiación solar	0
537	7	Sololá	712	San Antonio Palopó	9	San Antonio Palopo	8	Agosto	2023-10-08T00:00:00	2024-11-08T05:00:00	2	Temperatura media	19.3
538	7	Sololá	712	San Antonio Palopó	9	San Antonio Palopo	8	Agosto	2023-10-08T00:00:00	2024-11-08T05:00:00	4	Temperatura máxima	19.6
539	7	Sololá	712	San Antonio Palopó	9	San Antonio Palopo	8	Agosto	2023-10-08T00:00:00	2024-11-08T05:00:00	3	Temperatura mínima	18.9
540	7	Sololá	712	San Antonio Palopó	9	San Antonio Palopo	8	Agosto	2023-10-08T00:00:00	2024-11-08T05:00:00	5	Humedad	81
541	7	Sololá	712	San Antonio Palopó	9	San Antonio Palopo	8	Agosto	2023-10-08T00:00:00	2024-11-08T05:00:00	6	Velocidad del viento	3.2
542	7	Sololá	712	San Antonio Palopó	9	San Antonio Palopo	8	Agosto	2023-10-08T00:00:00	2024-11-08T05:00:00	7	Dirección del viento	3.22
543	7	Sololá	712	San Antonio Palopó	9	San Antonio Palopo	8	Agosto	2023-10-08T00:00:00	2024-11-08T05:00:00	1	Precipitación	0
544	7	Sololá	712	San Antonio Palopó	9	San Antonio Palopo	8	Agosto	2023-10-08T00:00:00	2024-11-08T05:00:00	8	Radiación solar	0
545	7	Sololá	712	San Antonio Palopó	9	San Antonio Palopo	8	Agosto	2023-10-08T00:00:00	2024-11-08T06:00:00	2	Temperatura media	19.1
546	7	Sololá	712	San Antonio Palopó	9	San Antonio Palopo	8	Agosto	2023-10-08T00:00:00	2024-11-08T06:00:00	4	Temperatura máxima	19.6
547	7	Sololá	712	San Antonio Palopó	9	San Antonio Palopo	8	Agosto	2023-10-08T00:00:00	2024-11-08T06:00:00	3	Temperatura mínima	19.1
548	7	Sololá	712	San Antonio Palopó	9	San Antonio Palopo	8	Agosto	2023-10-08T00:00:00	2024-11-08T06:00:00	5	Humedad	79
549	7	Sololá	712	San Antonio Palopó	9	San Antonio Palopo	8	Agosto	2023-10-08T00:00:00	2024-11-08T06:00:00	6	Velocidad del viento	3.2
550	7	Sololá	712	San Antonio Palopó	9	San Antonio Palopo	8	Agosto	2023-10-08T00:00:00	2024-11-08T06:00:00	7	Dirección del viento	3.22
551	7	Sololá	712	San Antonio Palopó	9	San Antonio Palopo	8	Agosto	2023-10-08T00:00:00	2024-11-08T06:00:00	1	Precipitación	0
552	7	Sololá	712	San Antonio Palopó	9	San Antonio Palopo	8	Agosto	2023-10-08T00:00:00	2024-11-08T06:00:00	8	Radiación solar	0
553	7	Sololá	712	San Antonio Palopó	9	San Antonio Palopo	8	Agosto	2023-10-08T00:00:00	2024-11-08T07:00:00	2	Temperatura media	19.5
554	7	Sololá	712	San Antonio Palopó	9	San Antonio Palopo	8	Agosto	2023-10-08T00:00:00	2024-11-08T07:00:00	4	Temperatura máxima	19.8
555	7	Sololá	712	San Antonio Palopó	9	San Antonio Palopo	8	Agosto	2023-10-08T00:00:00	2024-11-08T07:00:00	3	Temperatura mínima	19.1
556	7	Sololá	712	San Antonio Palopó	9	San Antonio Palopo	8	Agosto	2023-10-08T00:00:00	2024-11-08T07:00:00	5	Humedad	79
557	7	Sololá	712	San Antonio Palopó	9	San Antonio Palopo	8	Agosto	2023-10-08T00:00:00	2024-11-08T07:00:00	6	Velocidad del viento	3.2
558	7	Sololá	712	San Antonio Palopó	9	San Antonio Palopo	8	Agosto	2023-10-08T00:00:00	2024-11-08T07:00:00	7	Dirección del viento	3.22
559	7	Sololá	712	San Antonio Palopó	9	San Antonio Palopo	8	Agosto	2023-10-08T00:00:00	2024-11-08T07:00:00	1	Precipitación	0
560	7	Sololá	712	San Antonio Palopó	9	San Antonio Palopo	8	Agosto	2023-10-08T00:00:00	2024-11-08T07:00:00	8	Radiación solar	34
561	7	Sololá	712	San Antonio Palopó	9	San Antonio Palopo	8	Agosto	2023-10-08T00:00:00	2024-11-08T08:00:00	2	Temperatura media	20.8
562	7	Sololá	712	San Antonio Palopó	9	San Antonio Palopo	8	Agosto	2023-10-08T00:00:00	2024-11-08T08:00:00	4	Temperatura máxima	20.8
563	7	Sololá	712	San Antonio Palopó	9	San Antonio Palopo	8	Agosto	2023-10-08T00:00:00	2024-11-08T08:00:00	3	Temperatura mínima	19.2
564	7	Sololá	712	San Antonio Palopó	9	San Antonio Palopo	8	Agosto	2023-10-08T00:00:00	2024-11-08T08:00:00	5	Humedad	80
565	7	Sololá	712	San Antonio Palopó	9	San Antonio Palopo	8	Agosto	2023-10-08T00:00:00	2024-11-08T08:00:00	6	Velocidad del viento	1.6
566	7	Sololá	712	San Antonio Palopó	9	San Antonio Palopo	8	Agosto	2023-10-08T00:00:00	2024-11-08T08:00:00	7	Dirección del viento	1.61
567	7	Sololá	712	San Antonio Palopó	9	San Antonio Palopo	8	Agosto	2023-10-08T00:00:00	2024-11-08T08:00:00	1	Precipitación	0
568	7	Sololá	712	San Antonio Palopó	9	San Antonio Palopo	8	Agosto	2023-10-08T00:00:00	2024-11-08T08:00:00	8	Radiación solar	145
569	7	Sololá	712	San Antonio Palopó	9	San Antonio Palopo	8	Agosto	2023-10-08T00:00:00	2024-11-08T09:00:00	2	Temperatura media	21.8
570	7	Sololá	712	San Antonio Palopó	9	San Antonio Palopo	8	Agosto	2023-10-08T00:00:00	2024-11-08T09:00:00	4	Temperatura máxima	21.9
571	7	Sololá	712	San Antonio Palopó	9	San Antonio Palopo	8	Agosto	2023-10-08T00:00:00	2024-11-08T09:00:00	3	Temperatura mínima	20.8
572	7	Sololá	712	San Antonio Palopó	9	San Antonio Palopo	8	Agosto	2023-10-08T00:00:00	2024-11-08T09:00:00	5	Humedad	75
573	7	Sololá	712	San Antonio Palopó	9	San Antonio Palopo	8	Agosto	2023-10-08T00:00:00	2024-11-08T09:00:00	6	Velocidad del viento	1.6
574	7	Sololá	712	San Antonio Palopó	9	San Antonio Palopo	8	Agosto	2023-10-08T00:00:00	2024-11-08T09:00:00	7	Dirección del viento	1.61
575	7	Sololá	712	San Antonio Palopó	9	San Antonio Palopo	8	Agosto	2023-10-08T00:00:00	2024-11-08T09:00:00	1	Precipitación	0
576	7	Sololá	712	San Antonio Palopó	9	San Antonio Palopo	8	Agosto	2023-10-08T00:00:00	2024-11-08T09:00:00	8	Radiación solar	524
577	7	Sololá	712	San Antonio Palopó	9	San Antonio Palopo	8	Agosto	2023-10-08T00:00:00	2024-11-08T10:00:00	2	Temperatura media	22.8
578	7	Sololá	712	San Antonio Palopó	9	San Antonio Palopo	8	Agosto	2023-10-08T00:00:00	2024-11-08T10:00:00	4	Temperatura máxima	23.1
579	7	Sololá	712	San Antonio Palopó	9	San Antonio Palopo	8	Agosto	2023-10-08T00:00:00	2024-11-08T10:00:00	3	Temperatura mínima	21.8
580	7	Sololá	712	San Antonio Palopó	9	San Antonio Palopo	8	Agosto	2023-10-08T00:00:00	2024-11-08T10:00:00	5	Humedad	72
581	7	Sololá	712	San Antonio Palopó	9	San Antonio Palopo	8	Agosto	2023-10-08T00:00:00	2024-11-08T10:00:00	6	Velocidad del viento	3.2
582	7	Sololá	712	San Antonio Palopó	9	San Antonio Palopo	8	Agosto	2023-10-08T00:00:00	2024-11-08T10:00:00	7	Dirección del viento	3.22
583	7	Sololá	712	San Antonio Palopó	9	San Antonio Palopo	8	Agosto	2023-10-08T00:00:00	2024-11-08T10:00:00	1	Precipitación	0
584	7	Sololá	712	San Antonio Palopó	9	San Antonio Palopo	8	Agosto	2023-10-08T00:00:00	2024-11-08T10:00:00	8	Radiación solar	719
585	7	Sololá	712	San Antonio Palopó	9	San Antonio Palopo	8	Agosto	2023-10-08T00:00:00	2024-11-08T11:00:00	2	Temperatura media	23.6
586	7	Sololá	712	San Antonio Palopó	9	San Antonio Palopo	8	Agosto	2023-10-08T00:00:00	2024-11-08T11:00:00	4	Temperatura máxima	24
587	7	Sololá	712	San Antonio Palopó	9	San Antonio Palopo	8	Agosto	2023-10-08T00:00:00	2024-11-08T11:00:00	3	Temperatura mínima	22.8
588	7	Sololá	712	San Antonio Palopó	9	San Antonio Palopo	8	Agosto	2023-10-08T00:00:00	2024-11-08T11:00:00	5	Humedad	72
589	7	Sololá	712	San Antonio Palopó	9	San Antonio Palopo	8	Agosto	2023-10-08T00:00:00	2024-11-08T11:00:00	6	Velocidad del viento	3.2
590	7	Sololá	712	San Antonio Palopó	9	San Antonio Palopo	8	Agosto	2023-10-08T00:00:00	2024-11-08T11:00:00	7	Dirección del viento	3.22
591	7	Sololá	712	San Antonio Palopó	9	San Antonio Palopo	8	Agosto	2023-10-08T00:00:00	2024-11-08T11:00:00	1	Precipitación	0
592	7	Sololá	712	San Antonio Palopó	9	San Antonio Palopo	8	Agosto	2023-10-08T00:00:00	2024-11-08T11:00:00	8	Radiación solar	778
593	7	Sololá	712	San Antonio Palopó	9	San Antonio Palopo	8	Agosto	2023-10-08T00:00:00	2024-11-08T12:00:00	2	Temperatura media	25.3
594	7	Sololá	712	San Antonio Palopó	9	San Antonio Palopo	8	Agosto	2023-10-08T00:00:00	2024-11-08T12:00:00	4	Temperatura máxima	25.4
595	7	Sololá	712	San Antonio Palopó	9	San Antonio Palopo	8	Agosto	2023-10-08T00:00:00	2024-11-08T12:00:00	3	Temperatura mínima	23.6
596	7	Sololá	712	San Antonio Palopó	9	San Antonio Palopo	8	Agosto	2023-10-08T00:00:00	2024-11-08T12:00:00	5	Humedad	71
597	7	Sololá	712	San Antonio Palopó	9	San Antonio Palopo	8	Agosto	2023-10-08T00:00:00	2024-11-08T12:00:00	6	Velocidad del viento	4.8
598	7	Sololá	712	San Antonio Palopó	9	San Antonio Palopo	8	Agosto	2023-10-08T00:00:00	2024-11-08T12:00:00	7	Dirección del viento	4.83
599	7	Sololá	712	San Antonio Palopó	9	San Antonio Palopo	8	Agosto	2023-10-08T00:00:00	2024-11-08T12:00:00	1	Precipitación	0
600	7	Sololá	712	San Antonio Palopó	9	San Antonio Palopo	8	Agosto	2023-10-08T00:00:00	2024-11-08T12:00:00	8	Radiación solar	965
601	7	Sololá	712	San Antonio Palopó	9	San Antonio Palopo	8	Agosto	2023-10-08T00:00:00	2024-11-08T13:00:00	2	Temperatura media	24.1
602	7	Sololá	712	San Antonio Palopó	9	San Antonio Palopo	8	Agosto	2023-10-08T00:00:00	2024-11-08T13:00:00	4	Temperatura máxima	25.4
603	7	Sololá	712	San Antonio Palopó	9	San Antonio Palopo	8	Agosto	2023-10-08T00:00:00	2024-11-08T13:00:00	3	Temperatura mínima	24.1
604	7	Sololá	712	San Antonio Palopó	9	San Antonio Palopo	8	Agosto	2023-10-08T00:00:00	2024-11-08T13:00:00	5	Humedad	75
605	7	Sololá	712	San Antonio Palopó	9	San Antonio Palopo	8	Agosto	2023-10-08T00:00:00	2024-11-08T13:00:00	6	Velocidad del viento	11.3
606	7	Sololá	712	San Antonio Palopó	9	San Antonio Palopo	8	Agosto	2023-10-08T00:00:00	2024-11-08T13:00:00	7	Dirección del viento	11.27
607	7	Sololá	712	San Antonio Palopó	9	San Antonio Palopo	8	Agosto	2023-10-08T00:00:00	2024-11-08T13:00:00	1	Precipitación	0
608	7	Sololá	712	San Antonio Palopó	9	San Antonio Palopo	8	Agosto	2023-10-08T00:00:00	2024-11-08T13:00:00	8	Radiación solar	691
609	7	Sololá	712	San Antonio Palopó	9	San Antonio Palopo	8	Agosto	2023-10-08T00:00:00	2024-11-08T14:00:00	2	Temperatura media	23.1
610	7	Sololá	712	San Antonio Palopó	9	San Antonio Palopo	8	Agosto	2023-10-08T00:00:00	2024-11-08T14:00:00	4	Temperatura máxima	24.3
611	7	Sololá	712	San Antonio Palopó	9	San Antonio Palopo	8	Agosto	2023-10-08T00:00:00	2024-11-08T14:00:00	3	Temperatura mínima	22.9
612	7	Sololá	712	San Antonio Palopó	9	San Antonio Palopo	8	Agosto	2023-10-08T00:00:00	2024-11-08T14:00:00	5	Humedad	77
613	7	Sololá	712	San Antonio Palopó	9	San Antonio Palopo	8	Agosto	2023-10-08T00:00:00	2024-11-08T14:00:00	6	Velocidad del viento	9.7
614	7	Sololá	712	San Antonio Palopó	9	San Antonio Palopo	8	Agosto	2023-10-08T00:00:00	2024-11-08T14:00:00	7	Dirección del viento	9.66
615	7	Sololá	712	San Antonio Palopó	9	San Antonio Palopo	8	Agosto	2023-10-08T00:00:00	2024-11-08T14:00:00	1	Precipitación	0
616	7	Sololá	712	San Antonio Palopó	9	San Antonio Palopo	8	Agosto	2023-10-08T00:00:00	2024-11-08T14:00:00	8	Radiación solar	342
617	7	Sololá	712	San Antonio Palopó	9	San Antonio Palopo	8	Agosto	2023-10-08T00:00:00	2024-11-08T15:00:00	2	Temperatura media	22.5
618	7	Sololá	712	San Antonio Palopó	9	San Antonio Palopo	8	Agosto	2023-10-08T00:00:00	2024-11-08T15:00:00	4	Temperatura máxima	23.2
619	7	Sololá	712	San Antonio Palopó	9	San Antonio Palopo	8	Agosto	2023-10-08T00:00:00	2024-11-08T15:00:00	3	Temperatura mínima	22.5
620	7	Sololá	712	San Antonio Palopó	9	San Antonio Palopo	8	Agosto	2023-10-08T00:00:00	2024-11-08T15:00:00	5	Humedad	69
621	7	Sololá	712	San Antonio Palopó	9	San Antonio Palopo	8	Agosto	2023-10-08T00:00:00	2024-11-08T15:00:00	6	Velocidad del viento	8
622	7	Sololá	712	San Antonio Palopó	9	San Antonio Palopo	8	Agosto	2023-10-08T00:00:00	2024-11-08T15:00:00	7	Dirección del viento	8.05
623	7	Sololá	712	San Antonio Palopó	9	San Antonio Palopo	8	Agosto	2023-10-08T00:00:00	2024-11-08T15:00:00	1	Precipitación	0
624	7	Sololá	712	San Antonio Palopó	9	San Antonio Palopo	8	Agosto	2023-10-08T00:00:00	2024-11-08T15:00:00	8	Radiación solar	89
625	7	Sololá	712	San Antonio Palopó	9	San Antonio Palopo	8	Agosto	2023-10-08T00:00:00	2024-11-08T16:00:00	2	Temperatura media	23.4
626	7	Sololá	712	San Antonio Palopó	9	San Antonio Palopo	8	Agosto	2023-10-08T00:00:00	2024-11-08T16:00:00	4	Temperatura máxima	23.4
627	7	Sololá	712	San Antonio Palopó	9	San Antonio Palopo	8	Agosto	2023-10-08T00:00:00	2024-11-08T16:00:00	3	Temperatura mínima	22.5
628	7	Sololá	712	San Antonio Palopó	9	San Antonio Palopo	8	Agosto	2023-10-08T00:00:00	2024-11-08T16:00:00	5	Humedad	72
629	7	Sololá	712	San Antonio Palopó	9	San Antonio Palopo	8	Agosto	2023-10-08T00:00:00	2024-11-08T16:00:00	6	Velocidad del viento	3.2
630	7	Sololá	712	San Antonio Palopó	9	San Antonio Palopo	8	Agosto	2023-10-08T00:00:00	2024-11-08T16:00:00	7	Dirección del viento	3.22
631	7	Sololá	712	San Antonio Palopó	9	San Antonio Palopo	8	Agosto	2023-10-08T00:00:00	2024-11-08T16:00:00	1	Precipitación	0
632	7	Sololá	712	San Antonio Palopó	9	San Antonio Palopo	8	Agosto	2023-10-08T00:00:00	2024-11-08T16:00:00	8	Radiación solar	125
633	7	Sololá	712	San Antonio Palopó	9	San Antonio Palopo	8	Agosto	2023-10-08T00:00:00	2024-11-08T17:00:00	2	Temperatura media	23.3
634	7	Sololá	712	San Antonio Palopó	9	San Antonio Palopo	8	Agosto	2023-10-08T00:00:00	2024-11-08T17:00:00	4	Temperatura máxima	23.5
635	7	Sololá	712	San Antonio Palopó	9	San Antonio Palopo	8	Agosto	2023-10-08T00:00:00	2024-11-08T17:00:00	3	Temperatura mínima	22.9
636	7	Sololá	712	San Antonio Palopó	9	San Antonio Palopo	8	Agosto	2023-10-08T00:00:00	2024-11-08T17:00:00	5	Humedad	73
637	7	Sololá	712	San Antonio Palopó	9	San Antonio Palopo	8	Agosto	2023-10-08T00:00:00	2024-11-08T17:00:00	6	Velocidad del viento	4.8
638	7	Sololá	712	San Antonio Palopó	9	San Antonio Palopo	8	Agosto	2023-10-08T00:00:00	2024-11-08T17:00:00	7	Dirección del viento	4.83
639	7	Sololá	712	San Antonio Palopó	9	San Antonio Palopo	8	Agosto	2023-10-08T00:00:00	2024-11-08T17:00:00	1	Precipitación	0
640	7	Sololá	712	San Antonio Palopó	9	San Antonio Palopo	8	Agosto	2023-10-08T00:00:00	2024-11-08T17:00:00	8	Radiación solar	147
641	7	Sololá	712	San Antonio Palopó	9	San Antonio Palopo	8	Agosto	2023-10-08T00:00:00	2024-11-08T18:00:00	2	Temperatura media	23.4
642	7	Sololá	712	San Antonio Palopó	9	San Antonio Palopo	8	Agosto	2023-10-08T00:00:00	2024-11-08T18:00:00	4	Temperatura máxima	23.4
643	7	Sololá	712	San Antonio Palopó	9	San Antonio Palopo	8	Agosto	2023-10-08T00:00:00	2024-11-08T18:00:00	3	Temperatura mínima	22.8
644	7	Sololá	712	San Antonio Palopó	9	San Antonio Palopo	8	Agosto	2023-10-08T00:00:00	2024-11-08T18:00:00	5	Humedad	68
645	7	Sololá	712	San Antonio Palopó	9	San Antonio Palopo	8	Agosto	2023-10-08T00:00:00	2024-11-08T18:00:00	6	Velocidad del viento	8
646	7	Sololá	712	San Antonio Palopó	9	San Antonio Palopo	8	Agosto	2023-10-08T00:00:00	2024-11-08T18:00:00	7	Dirección del viento	8.05
647	7	Sololá	712	San Antonio Palopó	9	San Antonio Palopo	8	Agosto	2023-10-08T00:00:00	2024-11-08T18:00:00	1	Precipitación	0
648	7	Sololá	712	San Antonio Palopó	9	San Antonio Palopo	8	Agosto	2023-10-08T00:00:00	2024-11-08T18:00:00	8	Radiación solar	59
649	7	Sololá	712	San Antonio Palopó	9	San Antonio Palopo	8	Agosto	2023-10-08T00:00:00	2024-11-08T19:00:00	2	Temperatura media	22.6
650	7	Sololá	712	San Antonio Palopó	9	San Antonio Palopo	8	Agosto	2023-10-08T00:00:00	2024-11-08T19:00:00	4	Temperatura máxima	23.4
651	7	Sololá	712	San Antonio Palopó	9	San Antonio Palopo	8	Agosto	2023-10-08T00:00:00	2024-11-08T19:00:00	3	Temperatura mínima	22.3
652	7	Sololá	712	San Antonio Palopó	9	San Antonio Palopo	8	Agosto	2023-10-08T00:00:00	2024-11-08T19:00:00	5	Humedad	67
653	7	Sololá	712	San Antonio Palopó	9	San Antonio Palopo	8	Agosto	2023-10-08T00:00:00	2024-11-08T19:00:00	6	Velocidad del viento	3.2
654	7	Sololá	712	San Antonio Palopó	9	San Antonio Palopo	8	Agosto	2023-10-08T00:00:00	2024-11-08T19:00:00	7	Dirección del viento	3.22
655	7	Sololá	712	San Antonio Palopó	9	San Antonio Palopo	8	Agosto	2023-10-08T00:00:00	2024-11-08T19:00:00	1	Precipitación	0
656	7	Sololá	712	San Antonio Palopó	9	San Antonio Palopo	8	Agosto	2023-10-08T00:00:00	2024-11-08T19:00:00	8	Radiación solar	0
657	7	Sololá	712	San Antonio Palopó	9	San Antonio Palopo	8	Agosto	2023-10-08T00:00:00	2024-11-08T20:00:00	2	Temperatura media	22.2
658	7	Sololá	712	San Antonio Palopó	9	San Antonio Palopo	8	Agosto	2023-10-08T00:00:00	2024-11-08T20:00:00	4	Temperatura máxima	22.7
659	7	Sololá	712	San Antonio Palopó	9	San Antonio Palopo	8	Agosto	2023-10-08T00:00:00	2024-11-08T20:00:00	3	Temperatura mínima	22.1
660	7	Sololá	712	San Antonio Palopó	9	San Antonio Palopo	8	Agosto	2023-10-08T00:00:00	2024-11-08T20:00:00	5	Humedad	67
661	7	Sololá	712	San Antonio Palopó	9	San Antonio Palopo	8	Agosto	2023-10-08T00:00:00	2024-11-08T20:00:00	6	Velocidad del viento	6.4
662	7	Sololá	712	San Antonio Palopó	9	San Antonio Palopo	8	Agosto	2023-10-08T00:00:00	2024-11-08T20:00:00	7	Dirección del viento	6.44
663	7	Sololá	712	San Antonio Palopó	9	San Antonio Palopo	8	Agosto	2023-10-08T00:00:00	2024-11-08T20:00:00	1	Precipitación	0
664	7	Sololá	712	San Antonio Palopó	9	San Antonio Palopo	8	Agosto	2023-10-08T00:00:00	2024-11-08T20:00:00	8	Radiación solar	0
665	7	Sololá	712	San Antonio Palopó	9	San Antonio Palopo	8	Agosto	2023-10-08T00:00:00	2024-11-08T21:00:00	2	Temperatura media	21.4
666	7	Sololá	712	San Antonio Palopó	9	San Antonio Palopo	8	Agosto	2023-10-08T00:00:00	2024-11-08T21:00:00	4	Temperatura máxima	22.6
667	7	Sololá	712	San Antonio Palopó	9	San Antonio Palopo	8	Agosto	2023-10-08T00:00:00	2024-11-08T21:00:00	3	Temperatura mínima	21.4
668	7	Sololá	712	San Antonio Palopó	9	San Antonio Palopo	8	Agosto	2023-10-08T00:00:00	2024-11-08T21:00:00	5	Humedad	69
669	7	Sololá	712	San Antonio Palopó	9	San Antonio Palopo	8	Agosto	2023-10-08T00:00:00	2024-11-08T21:00:00	6	Velocidad del viento	6.4
670	7	Sololá	712	San Antonio Palopó	9	San Antonio Palopo	8	Agosto	2023-10-08T00:00:00	2024-11-08T21:00:00	7	Dirección del viento	6.44
671	7	Sololá	712	San Antonio Palopó	9	San Antonio Palopo	8	Agosto	2023-10-08T00:00:00	2024-11-08T21:00:00	1	Precipitación	0
672	7	Sololá	712	San Antonio Palopó	9	San Antonio Palopo	8	Agosto	2023-10-08T00:00:00	2024-11-08T21:00:00	8	Radiación solar	0
673	7	Sololá	712	San Antonio Palopó	9	San Antonio Palopo	8	Agosto	2023-10-08T00:00:00	2024-11-08T22:00:00	2	Temperatura media	21.8
674	7	Sololá	712	San Antonio Palopó	9	San Antonio Palopo	8	Agosto	2023-10-08T00:00:00	2024-11-08T22:00:00	4	Temperatura máxima	22.2
675	7	Sololá	712	San Antonio Palopó	9	San Antonio Palopo	8	Agosto	2023-10-08T00:00:00	2024-11-08T22:00:00	3	Temperatura mínima	21.4
676	7	Sololá	712	San Antonio Palopó	9	San Antonio Palopo	8	Agosto	2023-10-08T00:00:00	2024-11-08T22:00:00	5	Humedad	71
677	7	Sololá	712	San Antonio Palopó	9	San Antonio Palopo	8	Agosto	2023-10-08T00:00:00	2024-11-08T22:00:00	6	Velocidad del viento	9.7
678	7	Sololá	712	San Antonio Palopó	9	San Antonio Palopo	8	Agosto	2023-10-08T00:00:00	2024-11-08T22:00:00	7	Dirección del viento	9.66
679	7	Sololá	712	San Antonio Palopó	9	San Antonio Palopo	8	Agosto	2023-10-08T00:00:00	2024-11-08T22:00:00	1	Precipitación	0
680	7	Sololá	712	San Antonio Palopó	9	San Antonio Palopo	8	Agosto	2023-10-08T00:00:00	2024-11-08T22:00:00	8	Radiación solar	0
681	7	Sololá	712	San Antonio Palopó	9	San Antonio Palopo	8	Agosto	2023-10-08T00:00:00	2024-11-08T23:00:00	2	Temperatura media	21.4
682	7	Sololá	712	San Antonio Palopó	9	San Antonio Palopo	8	Agosto	2023-10-08T00:00:00	2024-11-08T23:00:00	4	Temperatura máxima	21.8
683	7	Sololá	712	San Antonio Palopó	9	San Antonio Palopo	8	Agosto	2023-10-08T00:00:00	2024-11-08T23:00:00	3	Temperatura mínima	21.4
684	7	Sololá	712	San Antonio Palopó	9	San Antonio Palopo	8	Agosto	2023-10-08T00:00:00	2024-11-08T23:00:00	5	Humedad	73
685	7	Sololá	712	San Antonio Palopó	9	San Antonio Palopo	8	Agosto	2023-10-08T00:00:00	2024-11-08T23:00:00	6	Velocidad del viento	6.4
686	7	Sololá	712	San Antonio Palopó	9	San Antonio Palopo	8	Agosto	2023-10-08T00:00:00	2024-11-08T23:00:00	7	Dirección del viento	6.44
687	7	Sololá	712	San Antonio Palopó	9	San Antonio Palopo	8	Agosto	2023-10-08T00:00:00	2024-11-08T23:00:00	1	Precipitación	0
688	7	Sololá	712	San Antonio Palopó	9	San Antonio Palopo	8	Agosto	2023-10-08T00:00:00	2024-11-08T23:00:00	8	Radiación solar	0
689	7	Sololá	712	San Antonio Palopó	9	San Antonio Palopo	8	Agosto	2023-11-08T00:00:00	2024-11-08T00:00:00	2	Temperatura media	21.4
690	7	Sololá	712	San Antonio Palopó	9	San Antonio Palopo	8	Agosto	2023-11-08T00:00:00	2024-11-08T00:00:00	4	Temperatura máxima	21.5
691	7	Sololá	712	San Antonio Palopó	9	San Antonio Palopo	8	Agosto	2023-11-08T00:00:00	2024-11-08T00:00:00	3	Temperatura mínima	20.7
692	7	Sololá	712	San Antonio Palopó	9	San Antonio Palopo	8	Agosto	2023-11-08T00:00:00	2024-11-08T00:00:00	5	Humedad	72
693	7	Sololá	712	San Antonio Palopó	9	San Antonio Palopo	8	Agosto	2023-11-08T00:00:00	2024-11-08T00:00:00	6	Velocidad del viento	4.8
694	7	Sololá	712	San Antonio Palopó	9	San Antonio Palopo	8	Agosto	2023-11-08T00:00:00	2024-11-08T00:00:00	7	Dirección del viento	4.83
695	7	Sololá	712	San Antonio Palopó	9	San Antonio Palopo	8	Agosto	2023-11-08T00:00:00	2024-11-08T00:00:00	1	Precipitación	0
696	7	Sololá	712	San Antonio Palopó	9	San Antonio Palopo	8	Agosto	2023-11-08T00:00:00	2024-11-08T00:00:00	8	Radiación solar	0
697	7	Sololá	712	San Antonio Palopó	9	San Antonio Palopo	8	Agosto	2023-11-08T00:00:00	2024-11-08T01:00:00	2	Temperatura media	20.8
698	7	Sololá	712	San Antonio Palopó	9	San Antonio Palopo	8	Agosto	2023-11-08T00:00:00	2024-11-08T01:00:00	4	Temperatura máxima	21.4
699	7	Sololá	712	San Antonio Palopó	9	San Antonio Palopo	8	Agosto	2023-11-08T00:00:00	2024-11-08T01:00:00	3	Temperatura mínima	20.8
700	7	Sololá	712	San Antonio Palopó	9	San Antonio Palopo	8	Agosto	2023-11-08T00:00:00	2024-11-08T01:00:00	5	Humedad	73
701	7	Sololá	712	San Antonio Palopó	9	San Antonio Palopo	8	Agosto	2023-11-08T00:00:00	2024-11-08T01:00:00	6	Velocidad del viento	8
702	7	Sololá	712	San Antonio Palopó	9	San Antonio Palopo	8	Agosto	2023-11-08T00:00:00	2024-11-08T01:00:00	7	Dirección del viento	8.05
703	7	Sololá	712	San Antonio Palopó	9	San Antonio Palopo	8	Agosto	2023-11-08T00:00:00	2024-11-08T01:00:00	1	Precipitación	0
704	7	Sololá	712	San Antonio Palopó	9	San Antonio Palopo	8	Agosto	2023-11-08T00:00:00	2024-11-08T01:00:00	8	Radiación solar	0
705	7	Sololá	712	San Antonio Palopó	9	San Antonio Palopo	8	Agosto	2023-11-08T00:00:00	2024-11-08T02:00:00	2	Temperatura media	20.5
706	7	Sololá	712	San Antonio Palopó	9	San Antonio Palopo	8	Agosto	2023-11-08T00:00:00	2024-11-08T02:00:00	4	Temperatura máxima	21.1
707	7	Sololá	712	San Antonio Palopó	9	San Antonio Palopo	8	Agosto	2023-11-08T00:00:00	2024-11-08T02:00:00	3	Temperatura mínima	20.3
708	7	Sololá	712	San Antonio Palopó	9	San Antonio Palopo	8	Agosto	2023-11-08T00:00:00	2024-11-08T02:00:00	5	Humedad	71
709	7	Sololá	712	San Antonio Palopó	9	San Antonio Palopo	8	Agosto	2023-11-08T00:00:00	2024-11-08T02:00:00	6	Velocidad del viento	4.8
710	7	Sololá	712	San Antonio Palopó	9	San Antonio Palopo	8	Agosto	2023-11-08T00:00:00	2024-11-08T02:00:00	7	Dirección del viento	4.83
711	7	Sololá	712	San Antonio Palopó	9	San Antonio Palopo	8	Agosto	2023-11-08T00:00:00	2024-11-08T02:00:00	1	Precipitación	0
712	7	Sololá	712	San Antonio Palopó	9	San Antonio Palopo	8	Agosto	2023-11-08T00:00:00	2024-11-08T02:00:00	8	Radiación solar	0
713	7	Sololá	712	San Antonio Palopó	9	San Antonio Palopo	8	Agosto	2023-11-08T00:00:00	2024-11-08T03:00:00	2	Temperatura media	20.1
714	7	Sololá	712	San Antonio Palopó	9	San Antonio Palopo	8	Agosto	2023-11-08T00:00:00	2024-11-08T03:00:00	4	Temperatura máxima	20.6
715	7	Sololá	712	San Antonio Palopó	9	San Antonio Palopo	8	Agosto	2023-11-08T00:00:00	2024-11-08T03:00:00	3	Temperatura mínima	20.1
716	7	Sololá	712	San Antonio Palopó	9	San Antonio Palopo	8	Agosto	2023-11-08T00:00:00	2024-11-08T03:00:00	5	Humedad	75
717	7	Sololá	712	San Antonio Palopó	9	San Antonio Palopo	8	Agosto	2023-11-08T00:00:00	2024-11-08T03:00:00	6	Velocidad del viento	3.2
718	7	Sololá	712	San Antonio Palopó	9	San Antonio Palopo	8	Agosto	2023-11-08T00:00:00	2024-11-08T03:00:00	7	Dirección del viento	3.22
719	7	Sololá	712	San Antonio Palopó	9	San Antonio Palopo	8	Agosto	2023-11-08T00:00:00	2024-11-08T03:00:00	1	Precipitación	0
720	7	Sololá	712	San Antonio Palopó	9	San Antonio Palopo	8	Agosto	2023-11-08T00:00:00	2024-11-08T03:00:00	8	Radiación solar	0
721	7	Sololá	712	San Antonio Palopó	9	San Antonio Palopo	8	Agosto	2023-11-08T00:00:00	2024-11-08T04:00:00	2	Temperatura media	19.6
722	7	Sololá	712	San Antonio Palopó	9	San Antonio Palopo	8	Agosto	2023-11-08T00:00:00	2024-11-08T04:00:00	4	Temperatura máxima	20.1
723	7	Sololá	712	San Antonio Palopó	9	San Antonio Palopo	8	Agosto	2023-11-08T00:00:00	2024-11-08T04:00:00	3	Temperatura mínima	19.6
724	7	Sololá	712	San Antonio Palopó	9	San Antonio Palopo	8	Agosto	2023-11-08T00:00:00	2024-11-08T04:00:00	5	Humedad	74
725	7	Sololá	712	San Antonio Palopó	9	San Antonio Palopo	8	Agosto	2023-11-08T00:00:00	2024-11-08T04:00:00	6	Velocidad del viento	4.8
726	7	Sololá	712	San Antonio Palopó	9	San Antonio Palopo	8	Agosto	2023-11-08T00:00:00	2024-11-08T04:00:00	7	Dirección del viento	4.83
727	7	Sololá	712	San Antonio Palopó	9	San Antonio Palopo	8	Agosto	2023-11-08T00:00:00	2024-11-08T04:00:00	1	Precipitación	0
728	7	Sololá	712	San Antonio Palopó	9	San Antonio Palopo	8	Agosto	2023-11-08T00:00:00	2024-11-08T04:00:00	8	Radiación solar	0
729	7	Sololá	712	San Antonio Palopó	9	San Antonio Palopo	8	Agosto	2023-11-08T00:00:00	2024-11-08T05:00:00	2	Temperatura media	19.4
730	7	Sololá	712	San Antonio Palopó	9	San Antonio Palopo	8	Agosto	2023-11-08T00:00:00	2024-11-08T05:00:00	4	Temperatura máxima	19.6
731	7	Sololá	712	San Antonio Palopó	9	San Antonio Palopo	8	Agosto	2023-11-08T00:00:00	2024-11-08T05:00:00	3	Temperatura mínima	19.2
732	7	Sololá	712	San Antonio Palopó	9	San Antonio Palopo	8	Agosto	2023-11-08T00:00:00	2024-11-08T05:00:00	5	Humedad	76
733	7	Sololá	712	San Antonio Palopó	9	San Antonio Palopo	8	Agosto	2023-11-08T00:00:00	2024-11-08T05:00:00	6	Velocidad del viento	8
734	7	Sololá	712	San Antonio Palopó	9	San Antonio Palopo	8	Agosto	2023-11-08T00:00:00	2024-11-08T05:00:00	7	Dirección del viento	8.05
735	7	Sololá	712	San Antonio Palopó	9	San Antonio Palopo	8	Agosto	2023-11-08T00:00:00	2024-11-08T05:00:00	1	Precipitación	0
736	7	Sololá	712	San Antonio Palopó	9	San Antonio Palopo	8	Agosto	2023-11-08T00:00:00	2024-11-08T05:00:00	8	Radiación solar	0
737	7	Sololá	712	San Antonio Palopó	9	San Antonio Palopo	8	Agosto	2023-11-08T00:00:00	2024-11-08T06:00:00	2	Temperatura media	19.1
738	7	Sololá	712	San Antonio Palopó	9	San Antonio Palopo	8	Agosto	2023-11-08T00:00:00	2024-11-08T06:00:00	4	Temperatura máxima	19.7
739	7	Sololá	712	San Antonio Palopó	9	San Antonio Palopo	8	Agosto	2023-11-08T00:00:00	2024-11-08T06:00:00	3	Temperatura mínima	19.1
740	7	Sololá	712	San Antonio Palopó	9	San Antonio Palopo	8	Agosto	2023-11-08T00:00:00	2024-11-08T06:00:00	5	Humedad	76
741	7	Sololá	712	San Antonio Palopó	9	San Antonio Palopo	8	Agosto	2023-11-08T00:00:00	2024-11-08T06:00:00	6	Velocidad del viento	8
742	7	Sololá	712	San Antonio Palopó	9	San Antonio Palopo	8	Agosto	2023-11-08T00:00:00	2024-11-08T06:00:00	7	Dirección del viento	8.05
743	7	Sololá	712	San Antonio Palopó	9	San Antonio Palopo	8	Agosto	2023-11-08T00:00:00	2024-11-08T06:00:00	1	Precipitación	0
744	7	Sololá	712	San Antonio Palopó	9	San Antonio Palopo	8	Agosto	2023-11-08T00:00:00	2024-11-08T06:00:00	8	Radiación solar	1
745	7	Sololá	712	San Antonio Palopó	9	San Antonio Palopo	8	Agosto	2023-11-08T00:00:00	2024-11-08T07:00:00	2	Temperatura media	19.7
746	7	Sololá	712	San Antonio Palopó	9	San Antonio Palopo	8	Agosto	2023-11-08T00:00:00	2024-11-08T07:00:00	4	Temperatura máxima	19.7
747	7	Sololá	712	San Antonio Palopó	9	San Antonio Palopo	8	Agosto	2023-11-08T00:00:00	2024-11-08T07:00:00	3	Temperatura mínima	18.9
748	7	Sololá	712	San Antonio Palopó	9	San Antonio Palopo	8	Agosto	2023-11-08T00:00:00	2024-11-08T07:00:00	5	Humedad	77
749	7	Sololá	712	San Antonio Palopó	9	San Antonio Palopo	8	Agosto	2023-11-08T00:00:00	2024-11-08T07:00:00	6	Velocidad del viento	11.3
750	7	Sololá	712	San Antonio Palopó	9	San Antonio Palopo	8	Agosto	2023-11-08T00:00:00	2024-11-08T07:00:00	7	Dirección del viento	11.27
751	7	Sololá	712	San Antonio Palopó	9	San Antonio Palopo	8	Agosto	2023-11-08T00:00:00	2024-11-08T07:00:00	1	Precipitación	0
752	7	Sololá	712	San Antonio Palopó	9	San Antonio Palopo	8	Agosto	2023-11-08T00:00:00	2024-11-08T07:00:00	8	Radiación solar	14
753	7	Sololá	712	San Antonio Palopó	9	San Antonio Palopo	8	Agosto	2023-11-08T00:00:00	2024-11-08T08:00:00	2	Temperatura media	20.9
754	7	Sololá	712	San Antonio Palopó	9	San Antonio Palopo	8	Agosto	2023-11-08T00:00:00	2024-11-08T08:00:00	4	Temperatura máxima	20.9
755	7	Sololá	712	San Antonio Palopó	9	San Antonio Palopo	8	Agosto	2023-11-08T00:00:00	2024-11-08T08:00:00	3	Temperatura mínima	19.4
756	7	Sololá	712	San Antonio Palopó	9	San Antonio Palopo	8	Agosto	2023-11-08T00:00:00	2024-11-08T08:00:00	5	Humedad	76
757	7	Sololá	712	San Antonio Palopó	9	San Antonio Palopo	8	Agosto	2023-11-08T00:00:00	2024-11-08T08:00:00	6	Velocidad del viento	1.6
758	7	Sololá	712	San Antonio Palopó	9	San Antonio Palopo	8	Agosto	2023-11-08T00:00:00	2024-11-08T08:00:00	7	Dirección del viento	1.61
759	7	Sololá	712	San Antonio Palopó	9	San Antonio Palopo	8	Agosto	2023-11-08T00:00:00	2024-11-08T08:00:00	1	Precipitación	0
760	7	Sololá	712	San Antonio Palopó	9	San Antonio Palopo	8	Agosto	2023-11-08T00:00:00	2024-11-08T08:00:00	8	Radiación solar	135
761	7	Sololá	712	San Antonio Palopó	9	San Antonio Palopo	8	Agosto	2023-11-08T00:00:00	2024-11-08T09:00:00	2	Temperatura media	21.3
762	7	Sololá	712	San Antonio Palopó	9	San Antonio Palopo	8	Agosto	2023-11-08T00:00:00	2024-11-08T09:00:00	4	Temperatura máxima	21.7
763	7	Sololá	712	San Antonio Palopó	9	San Antonio Palopo	8	Agosto	2023-11-08T00:00:00	2024-11-08T09:00:00	3	Temperatura mínima	20.9
764	7	Sololá	712	San Antonio Palopó	9	San Antonio Palopo	8	Agosto	2023-11-08T00:00:00	2024-11-08T09:00:00	5	Humedad	76
765	7	Sololá	712	San Antonio Palopó	9	San Antonio Palopo	8	Agosto	2023-11-08T00:00:00	2024-11-08T09:00:00	6	Velocidad del viento	1.6
766	7	Sololá	712	San Antonio Palopó	9	San Antonio Palopo	8	Agosto	2023-11-08T00:00:00	2024-11-08T09:00:00	7	Dirección del viento	1.61
767	7	Sololá	712	San Antonio Palopó	9	San Antonio Palopo	8	Agosto	2023-11-08T00:00:00	2024-11-08T09:00:00	1	Precipitación	0
768	7	Sololá	712	San Antonio Palopó	9	San Antonio Palopo	8	Agosto	2023-11-08T00:00:00	2024-11-08T09:00:00	8	Radiación solar	429
769	7	Sololá	712	San Antonio Palopó	9	San Antonio Palopo	8	Agosto	2023-11-08T00:00:00	2024-11-08T10:00:00	2	Temperatura media	21.8
770	7	Sololá	712	San Antonio Palopó	9	San Antonio Palopo	8	Agosto	2023-11-08T00:00:00	2024-11-08T10:00:00	4	Temperatura máxima	21.9
771	7	Sololá	712	San Antonio Palopó	9	San Antonio Palopo	8	Agosto	2023-11-08T00:00:00	2024-11-08T10:00:00	3	Temperatura mínima	21.2
772	7	Sololá	712	San Antonio Palopó	9	San Antonio Palopo	8	Agosto	2023-11-08T00:00:00	2024-11-08T10:00:00	5	Humedad	75
773	7	Sololá	712	San Antonio Palopó	9	San Antonio Palopo	8	Agosto	2023-11-08T00:00:00	2024-11-08T10:00:00	6	Velocidad del viento	3.2
774	7	Sololá	712	San Antonio Palopó	9	San Antonio Palopo	8	Agosto	2023-11-08T00:00:00	2024-11-08T10:00:00	7	Dirección del viento	3.22
775	7	Sololá	712	San Antonio Palopó	9	San Antonio Palopo	8	Agosto	2023-11-08T00:00:00	2024-11-08T10:00:00	1	Precipitación	0
776	7	Sololá	712	San Antonio Palopó	9	San Antonio Palopo	8	Agosto	2023-11-08T00:00:00	2024-11-08T10:00:00	8	Radiación solar	457
777	7	Sololá	712	San Antonio Palopó	9	San Antonio Palopo	8	Agosto	2023-11-08T00:00:00	2024-11-08T11:00:00	2	Temperatura media	23.2
778	7	Sololá	712	San Antonio Palopó	9	San Antonio Palopo	8	Agosto	2023-11-08T00:00:00	2024-11-08T11:00:00	4	Temperatura máxima	23.2
779	7	Sololá	712	San Antonio Palopó	9	San Antonio Palopo	8	Agosto	2023-11-08T00:00:00	2024-11-08T11:00:00	3	Temperatura mínima	21.8
780	7	Sololá	712	San Antonio Palopó	9	San Antonio Palopo	8	Agosto	2023-11-08T00:00:00	2024-11-08T11:00:00	5	Humedad	71
781	7	Sololá	712	San Antonio Palopó	9	San Antonio Palopo	8	Agosto	2023-11-08T00:00:00	2024-11-08T11:00:00	6	Velocidad del viento	3.2
782	7	Sololá	712	San Antonio Palopó	9	San Antonio Palopo	8	Agosto	2023-11-08T00:00:00	2024-11-08T11:00:00	7	Dirección del viento	3.22
783	7	Sololá	712	San Antonio Palopó	9	San Antonio Palopo	8	Agosto	2023-11-08T00:00:00	2024-11-08T11:00:00	1	Precipitación	0
784	7	Sololá	712	San Antonio Palopó	9	San Antonio Palopo	8	Agosto	2023-11-08T00:00:00	2024-11-08T11:00:00	8	Radiación solar	548
785	7	Sololá	712	San Antonio Palopó	9	San Antonio Palopo	8	Agosto	2023-11-08T00:00:00	2024-11-08T12:00:00	2	Temperatura media	23.9
786	7	Sololá	712	San Antonio Palopó	9	San Antonio Palopo	8	Agosto	2023-11-08T00:00:00	2024-11-08T12:00:00	4	Temperatura máxima	24.1
787	7	Sololá	712	San Antonio Palopó	9	San Antonio Palopo	8	Agosto	2023-11-08T00:00:00	2024-11-08T12:00:00	3	Temperatura mínima	23.1
788	7	Sololá	712	San Antonio Palopó	9	San Antonio Palopo	8	Agosto	2023-11-08T00:00:00	2024-11-08T12:00:00	5	Humedad	70
789	7	Sololá	712	San Antonio Palopó	9	San Antonio Palopo	8	Agosto	2023-11-08T00:00:00	2024-11-08T12:00:00	6	Velocidad del viento	3.2
790	7	Sololá	712	San Antonio Palopó	9	San Antonio Palopo	8	Agosto	2023-11-08T00:00:00	2024-11-08T12:00:00	7	Dirección del viento	3.22
791	7	Sololá	712	San Antonio Palopó	9	San Antonio Palopo	8	Agosto	2023-11-08T00:00:00	2024-11-08T12:00:00	1	Precipitación	0
792	7	Sololá	712	San Antonio Palopó	9	San Antonio Palopo	8	Agosto	2023-11-08T00:00:00	2024-11-08T12:00:00	8	Radiación solar	728
793	7	Sololá	712	San Antonio Palopó	9	San Antonio Palopo	8	Agosto	2023-11-08T00:00:00	2024-11-08T13:00:00	2	Temperatura media	24
794	7	Sololá	712	San Antonio Palopó	9	San Antonio Palopo	8	Agosto	2023-11-08T00:00:00	2024-11-08T13:00:00	4	Temperatura máxima	25.1
795	7	Sololá	712	San Antonio Palopó	9	San Antonio Palopo	8	Agosto	2023-11-08T00:00:00	2024-11-08T13:00:00	3	Temperatura mínima	23.7
796	7	Sololá	712	San Antonio Palopó	9	San Antonio Palopo	8	Agosto	2023-11-08T00:00:00	2024-11-08T13:00:00	5	Humedad	70
797	7	Sololá	712	San Antonio Palopó	9	San Antonio Palopo	8	Agosto	2023-11-08T00:00:00	2024-11-08T13:00:00	6	Velocidad del viento	4.8
798	7	Sololá	712	San Antonio Palopó	9	San Antonio Palopo	8	Agosto	2023-11-08T00:00:00	2024-11-08T13:00:00	7	Dirección del viento	4.83
799	7	Sololá	712	San Antonio Palopó	9	San Antonio Palopo	8	Agosto	2023-11-08T00:00:00	2024-11-08T13:00:00	1	Precipitación	0
800	7	Sololá	712	San Antonio Palopó	9	San Antonio Palopo	8	Agosto	2023-11-08T00:00:00	2024-11-08T13:00:00	8	Radiación solar	613
801	7	Sololá	712	San Antonio Palopó	9	San Antonio Palopo	8	Agosto	2023-11-08T00:00:00	2024-11-08T14:00:00	2	Temperatura media	25.2
802	7	Sololá	712	San Antonio Palopó	9	San Antonio Palopo	8	Agosto	2023-11-08T00:00:00	2024-11-08T14:00:00	4	Temperatura máxima	26.1
803	7	Sololá	712	San Antonio Palopó	9	San Antonio Palopo	8	Agosto	2023-11-08T00:00:00	2024-11-08T14:00:00	3	Temperatura mínima	24
804	7	Sololá	712	San Antonio Palopó	9	San Antonio Palopo	8	Agosto	2023-11-08T00:00:00	2024-11-08T14:00:00	5	Humedad	68
805	7	Sololá	712	San Antonio Palopó	9	San Antonio Palopo	8	Agosto	2023-11-08T00:00:00	2024-11-08T14:00:00	6	Velocidad del viento	4.8
806	7	Sololá	712	San Antonio Palopó	9	San Antonio Palopo	8	Agosto	2023-11-08T00:00:00	2024-11-08T14:00:00	7	Dirección del viento	4.83
807	7	Sololá	712	San Antonio Palopó	9	San Antonio Palopo	8	Agosto	2023-11-08T00:00:00	2024-11-08T14:00:00	1	Precipitación	0
808	7	Sololá	712	San Antonio Palopó	9	San Antonio Palopo	8	Agosto	2023-11-08T00:00:00	2024-11-08T14:00:00	8	Radiación solar	712
809	7	Sololá	712	San Antonio Palopó	9	San Antonio Palopo	8	Agosto	2023-11-08T00:00:00	2024-11-08T15:00:00	2	Temperatura media	24.4
810	7	Sololá	712	San Antonio Palopó	9	San Antonio Palopo	8	Agosto	2023-11-08T00:00:00	2024-11-08T15:00:00	4	Temperatura máxima	25.2
811	7	Sololá	712	San Antonio Palopó	9	San Antonio Palopo	8	Agosto	2023-11-08T00:00:00	2024-11-08T15:00:00	3	Temperatura mínima	24.2
812	7	Sololá	712	San Antonio Palopó	9	San Antonio Palopo	8	Agosto	2023-11-08T00:00:00	2024-11-08T15:00:00	5	Humedad	74
813	7	Sololá	712	San Antonio Palopó	9	San Antonio Palopo	8	Agosto	2023-11-08T00:00:00	2024-11-08T15:00:00	6	Velocidad del viento	4.8
814	7	Sololá	712	San Antonio Palopó	9	San Antonio Palopo	8	Agosto	2023-11-08T00:00:00	2024-11-08T15:00:00	7	Dirección del viento	4.83
815	7	Sololá	712	San Antonio Palopó	9	San Antonio Palopo	8	Agosto	2023-11-08T00:00:00	2024-11-08T15:00:00	1	Precipitación	0
816	7	Sololá	712	San Antonio Palopó	9	San Antonio Palopo	8	Agosto	2023-11-08T00:00:00	2024-11-08T15:00:00	8	Radiación solar	433
817	7	Sololá	712	San Antonio Palopó	9	San Antonio Palopo	8	Agosto	2023-11-08T00:00:00	2024-11-08T16:00:00	2	Temperatura media	24.5
818	7	Sololá	712	San Antonio Palopó	9	San Antonio Palopo	8	Agosto	2023-11-08T00:00:00	2024-11-08T16:00:00	4	Temperatura máxima	24.6
819	7	Sololá	712	San Antonio Palopó	9	San Antonio Palopo	8	Agosto	2023-11-08T00:00:00	2024-11-08T16:00:00	3	Temperatura mínima	23.7
820	7	Sololá	712	San Antonio Palopó	9	San Antonio Palopo	8	Agosto	2023-11-08T00:00:00	2024-11-08T16:00:00	5	Humedad	75
821	7	Sololá	712	San Antonio Palopó	9	San Antonio Palopo	8	Agosto	2023-11-08T00:00:00	2024-11-08T16:00:00	6	Velocidad del viento	6.4
822	7	Sololá	712	San Antonio Palopó	9	San Antonio Palopo	8	Agosto	2023-11-08T00:00:00	2024-11-08T16:00:00	7	Dirección del viento	6.44
823	7	Sololá	712	San Antonio Palopó	9	San Antonio Palopo	8	Agosto	2023-11-08T00:00:00	2024-11-08T16:00:00	1	Precipitación	0
824	7	Sololá	712	San Antonio Palopó	9	San Antonio Palopo	8	Agosto	2023-11-08T00:00:00	2024-11-08T16:00:00	8	Radiación solar	353
825	7	Sololá	712	San Antonio Palopó	9	San Antonio Palopo	8	Agosto	2023-11-08T00:00:00	2024-11-08T17:00:00	2	Temperatura media	23.4
826	7	Sololá	712	San Antonio Palopó	9	San Antonio Palopo	8	Agosto	2023-11-08T00:00:00	2024-11-08T17:00:00	4	Temperatura máxima	24.6
827	7	Sololá	712	San Antonio Palopó	9	San Antonio Palopo	8	Agosto	2023-11-08T00:00:00	2024-11-08T17:00:00	3	Temperatura mínima	23.4
828	7	Sololá	712	San Antonio Palopó	9	San Antonio Palopo	8	Agosto	2023-11-08T00:00:00	2024-11-08T17:00:00	5	Humedad	78
829	7	Sololá	712	San Antonio Palopó	9	San Antonio Palopo	8	Agosto	2023-11-08T00:00:00	2024-11-08T17:00:00	6	Velocidad del viento	3.2
830	7	Sololá	712	San Antonio Palopó	9	San Antonio Palopo	8	Agosto	2023-11-08T00:00:00	2024-11-08T17:00:00	7	Dirección del viento	3.22
831	7	Sololá	712	San Antonio Palopó	9	San Antonio Palopo	8	Agosto	2023-11-08T00:00:00	2024-11-08T17:00:00	1	Precipitación	0
832	7	Sololá	712	San Antonio Palopó	9	San Antonio Palopo	8	Agosto	2023-11-08T00:00:00	2024-11-08T17:00:00	8	Radiación solar	183
833	7	Sololá	712	San Antonio Palopó	9	San Antonio Palopo	8	Agosto	2023-11-08T00:00:00	2024-11-08T18:00:00	2	Temperatura media	22.8
834	7	Sololá	712	San Antonio Palopó	9	San Antonio Palopo	8	Agosto	2023-11-08T00:00:00	2024-11-08T18:00:00	4	Temperatura máxima	23.6
835	7	Sololá	712	San Antonio Palopó	9	San Antonio Palopo	8	Agosto	2023-11-08T00:00:00	2024-11-08T18:00:00	3	Temperatura mínima	22.8
836	7	Sololá	712	San Antonio Palopó	9	San Antonio Palopo	8	Agosto	2023-11-08T00:00:00	2024-11-08T18:00:00	5	Humedad	80
837	7	Sololá	712	San Antonio Palopó	9	San Antonio Palopo	8	Agosto	2023-11-08T00:00:00	2024-11-08T18:00:00	6	Velocidad del viento	3.2
838	7	Sololá	712	San Antonio Palopó	9	San Antonio Palopo	8	Agosto	2023-11-08T00:00:00	2024-11-08T18:00:00	7	Dirección del viento	3.22
839	7	Sololá	712	San Antonio Palopó	9	San Antonio Palopo	8	Agosto	2023-11-08T00:00:00	2024-11-08T18:00:00	1	Precipitación	0
840	7	Sololá	712	San Antonio Palopó	9	San Antonio Palopo	8	Agosto	2023-11-08T00:00:00	2024-11-08T18:00:00	8	Radiación solar	61
841	7	Sololá	712	San Antonio Palopó	9	San Antonio Palopo	8	Agosto	2023-11-08T00:00:00	2024-11-08T19:00:00	2	Temperatura media	21.9
842	7	Sololá	712	San Antonio Palopó	9	San Antonio Palopo	8	Agosto	2023-11-08T00:00:00	2024-11-08T19:00:00	4	Temperatura máxima	22.8
843	7	Sololá	712	San Antonio Palopó	9	San Antonio Palopo	8	Agosto	2023-11-08T00:00:00	2024-11-08T19:00:00	3	Temperatura mínima	21.9
844	7	Sololá	712	San Antonio Palopó	9	San Antonio Palopo	8	Agosto	2023-11-08T00:00:00	2024-11-08T19:00:00	5	Humedad	81
845	7	Sololá	712	San Antonio Palopó	9	San Antonio Palopo	8	Agosto	2023-11-08T00:00:00	2024-11-08T19:00:00	6	Velocidad del viento	3.2
846	7	Sololá	712	San Antonio Palopó	9	San Antonio Palopo	8	Agosto	2023-11-08T00:00:00	2024-11-08T19:00:00	7	Dirección del viento	3.22
847	7	Sololá	712	San Antonio Palopó	9	San Antonio Palopo	8	Agosto	2023-11-08T00:00:00	2024-11-08T19:00:00	1	Precipitación	0
848	7	Sololá	712	San Antonio Palopó	9	San Antonio Palopo	8	Agosto	2023-11-08T00:00:00	2024-11-08T19:00:00	8	Radiación solar	0
849	7	Sololá	712	San Antonio Palopó	9	San Antonio Palopo	8	Agosto	2023-11-08T00:00:00	2024-11-08T20:00:00	2	Temperatura media	21
850	7	Sololá	712	San Antonio Palopó	9	San Antonio Palopo	8	Agosto	2023-11-08T00:00:00	2024-11-08T20:00:00	4	Temperatura máxima	22
851	7	Sololá	712	San Antonio Palopó	9	San Antonio Palopo	8	Agosto	2023-11-08T00:00:00	2024-11-08T20:00:00	3	Temperatura mínima	20.9
852	7	Sololá	712	San Antonio Palopó	9	San Antonio Palopo	8	Agosto	2023-11-08T00:00:00	2024-11-08T20:00:00	5	Humedad	83
853	7	Sololá	712	San Antonio Palopó	9	San Antonio Palopo	8	Agosto	2023-11-08T00:00:00	2024-11-08T20:00:00	6	Velocidad del viento	1.6
854	7	Sololá	712	San Antonio Palopó	9	San Antonio Palopo	8	Agosto	2023-11-08T00:00:00	2024-11-08T20:00:00	7	Dirección del viento	1.61
855	7	Sololá	712	San Antonio Palopó	9	San Antonio Palopo	8	Agosto	2023-11-08T00:00:00	2024-11-08T20:00:00	1	Precipitación	0
856	7	Sololá	712	San Antonio Palopó	9	San Antonio Palopo	8	Agosto	2023-11-08T00:00:00	2024-11-08T20:00:00	8	Radiación solar	0
857	7	Sololá	712	San Antonio Palopó	9	San Antonio Palopo	8	Agosto	2023-11-08T00:00:00	2024-11-08T21:00:00	2	Temperatura media	22.3
858	7	Sololá	712	San Antonio Palopó	9	San Antonio Palopo	8	Agosto	2023-11-08T00:00:00	2024-11-08T21:00:00	4	Temperatura máxima	22.4
859	7	Sololá	712	San Antonio Palopó	9	San Antonio Palopo	8	Agosto	2023-11-08T00:00:00	2024-11-08T21:00:00	3	Temperatura mínima	20.9
860	7	Sololá	712	San Antonio Palopó	9	San Antonio Palopo	8	Agosto	2023-11-08T00:00:00	2024-11-08T21:00:00	5	Humedad	73
861	7	Sololá	712	San Antonio Palopó	9	San Antonio Palopo	8	Agosto	2023-11-08T00:00:00	2024-11-08T21:00:00	6	Velocidad del viento	3.2
862	7	Sololá	712	San Antonio Palopó	9	San Antonio Palopo	8	Agosto	2023-11-08T00:00:00	2024-11-08T21:00:00	7	Dirección del viento	3.22
863	7	Sololá	712	San Antonio Palopó	9	San Antonio Palopo	8	Agosto	2023-11-08T00:00:00	2024-11-08T21:00:00	1	Precipitación	0
864	7	Sololá	712	San Antonio Palopó	9	San Antonio Palopo	8	Agosto	2023-11-08T00:00:00	2024-11-08T21:00:00	8	Radiación solar	0
865	7	Sololá	712	San Antonio Palopó	9	San Antonio Palopo	8	Agosto	2023-11-08T00:00:00	2024-11-08T22:00:00	2	Temperatura media	21.8
866	7	Sololá	712	San Antonio Palopó	9	San Antonio Palopo	8	Agosto	2023-11-08T00:00:00	2024-11-08T22:00:00	4	Temperatura máxima	22.3
867	7	Sololá	712	San Antonio Palopó	9	San Antonio Palopo	8	Agosto	2023-11-08T00:00:00	2024-11-08T22:00:00	3	Temperatura mínima	21.8
868	7	Sololá	712	San Antonio Palopó	9	San Antonio Palopo	8	Agosto	2023-11-08T00:00:00	2024-11-08T22:00:00	5	Humedad	73
869	7	Sololá	712	San Antonio Palopó	9	San Antonio Palopo	8	Agosto	2023-11-08T00:00:00	2024-11-08T22:00:00	6	Velocidad del viento	6.4
870	7	Sololá	712	San Antonio Palopó	9	San Antonio Palopo	8	Agosto	2023-11-08T00:00:00	2024-11-08T22:00:00	7	Dirección del viento	6.44
871	7	Sololá	712	San Antonio Palopó	9	San Antonio Palopo	8	Agosto	2023-11-08T00:00:00	2024-11-08T22:00:00	1	Precipitación	0
872	7	Sololá	712	San Antonio Palopó	9	San Antonio Palopo	8	Agosto	2023-11-08T00:00:00	2024-11-08T22:00:00	8	Radiación solar	0
873	7	Sololá	712	San Antonio Palopó	9	San Antonio Palopo	8	Agosto	2023-11-08T00:00:00	2024-11-08T23:00:00	2	Temperatura media	21.5
874	7	Sololá	712	San Antonio Palopó	9	San Antonio Palopo	8	Agosto	2023-11-08T00:00:00	2024-11-08T23:00:00	4	Temperatura máxima	21.9
875	7	Sololá	712	San Antonio Palopó	9	San Antonio Palopo	8	Agosto	2023-11-08T00:00:00	2024-11-08T23:00:00	3	Temperatura mínima	21.5
876	7	Sololá	712	San Antonio Palopó	9	San Antonio Palopo	8	Agosto	2023-11-08T00:00:00	2024-11-08T23:00:00	5	Humedad	73
877	7	Sololá	712	San Antonio Palopó	9	San Antonio Palopo	8	Agosto	2023-11-08T00:00:00	2024-11-08T23:00:00	6	Velocidad del viento	8
878	7	Sololá	712	San Antonio Palopó	9	San Antonio Palopo	8	Agosto	2023-11-08T00:00:00	2024-11-08T23:00:00	7	Dirección del viento	8.05
879	7	Sololá	712	San Antonio Palopó	9	San Antonio Palopo	8	Agosto	2023-11-08T00:00:00	2024-11-08T23:00:00	1	Precipitación	0
880	7	Sololá	712	San Antonio Palopó	9	San Antonio Palopo	8	Agosto	2023-11-08T00:00:00	2024-11-08T23:00:00	8	Radiación solar	0
881	7	Sololá	712	San Antonio Palopó	9	San Antonio Palopo	8	Agosto	2023-12-08T00:00:00	2024-11-08T00:00:00	2	Temperatura media	21
882	7	Sololá	712	San Antonio Palopó	9	San Antonio Palopo	8	Agosto	2023-12-08T00:00:00	2024-11-08T00:00:00	4	Temperatura máxima	21.5
883	7	Sololá	712	San Antonio Palopó	9	San Antonio Palopo	8	Agosto	2023-12-08T00:00:00	2024-11-08T00:00:00	3	Temperatura mínima	21
884	7	Sololá	712	San Antonio Palopó	9	San Antonio Palopo	8	Agosto	2023-12-08T00:00:00	2024-11-08T00:00:00	5	Humedad	73
885	7	Sololá	712	San Antonio Palopó	9	San Antonio Palopo	8	Agosto	2023-12-08T00:00:00	2024-11-08T00:00:00	6	Velocidad del viento	6.4
886	7	Sololá	712	San Antonio Palopó	9	San Antonio Palopo	8	Agosto	2023-12-08T00:00:00	2024-11-08T00:00:00	7	Dirección del viento	6.44
887	7	Sololá	712	San Antonio Palopó	9	San Antonio Palopo	8	Agosto	2023-12-08T00:00:00	2024-11-08T00:00:00	1	Precipitación	0
888	7	Sololá	712	San Antonio Palopó	9	San Antonio Palopo	8	Agosto	2023-12-08T00:00:00	2024-11-08T00:00:00	8	Radiación solar	0
889	7	Sololá	712	San Antonio Palopó	9	San Antonio Palopo	8	Agosto	2023-12-08T00:00:00	2024-11-08T01:00:00	2	Temperatura media	21.1
890	7	Sololá	712	San Antonio Palopó	9	San Antonio Palopo	8	Agosto	2023-12-08T00:00:00	2024-11-08T01:00:00	4	Temperatura máxima	21.1
891	7	Sololá	712	San Antonio Palopó	9	San Antonio Palopo	8	Agosto	2023-12-08T00:00:00	2024-11-08T01:00:00	3	Temperatura mínima	20.6
892	7	Sololá	712	San Antonio Palopó	9	San Antonio Palopo	8	Agosto	2023-12-08T00:00:00	2024-11-08T01:00:00	5	Humedad	69
893	7	Sololá	712	San Antonio Palopó	9	San Antonio Palopo	8	Agosto	2023-12-08T00:00:00	2024-11-08T01:00:00	6	Velocidad del viento	4.8
894	7	Sololá	712	San Antonio Palopó	9	San Antonio Palopo	8	Agosto	2023-12-08T00:00:00	2024-11-08T01:00:00	7	Dirección del viento	4.83
895	7	Sololá	712	San Antonio Palopó	9	San Antonio Palopo	8	Agosto	2023-12-08T00:00:00	2024-11-08T01:00:00	1	Precipitación	0
896	7	Sololá	712	San Antonio Palopó	9	San Antonio Palopo	8	Agosto	2023-12-08T00:00:00	2024-11-08T01:00:00	8	Radiación solar	0
897	7	Sololá	712	San Antonio Palopó	9	San Antonio Palopo	8	Agosto	2023-12-08T00:00:00	2024-11-08T02:00:00	2	Temperatura media	20.7
898	7	Sololá	712	San Antonio Palopó	9	San Antonio Palopo	8	Agosto	2023-12-08T00:00:00	2024-11-08T02:00:00	4	Temperatura máxima	21.2
899	7	Sololá	712	San Antonio Palopó	9	San Antonio Palopo	8	Agosto	2023-12-08T00:00:00	2024-11-08T02:00:00	3	Temperatura mínima	20.7
900	7	Sololá	712	San Antonio Palopó	9	San Antonio Palopo	8	Agosto	2023-12-08T00:00:00	2024-11-08T02:00:00	5	Humedad	70
901	7	Sololá	712	San Antonio Palopó	9	San Antonio Palopo	8	Agosto	2023-12-08T00:00:00	2024-11-08T02:00:00	6	Velocidad del viento	8
902	7	Sololá	712	San Antonio Palopó	9	San Antonio Palopo	8	Agosto	2023-12-08T00:00:00	2024-11-08T02:00:00	7	Dirección del viento	8.05
903	7	Sololá	712	San Antonio Palopó	9	San Antonio Palopo	8	Agosto	2023-12-08T00:00:00	2024-11-08T02:00:00	1	Precipitación	0
904	7	Sololá	712	San Antonio Palopó	9	San Antonio Palopo	8	Agosto	2023-12-08T00:00:00	2024-11-08T02:00:00	8	Radiación solar	0
905	7	Sololá	712	San Antonio Palopó	9	San Antonio Palopo	8	Agosto	2023-12-08T00:00:00	2024-11-08T03:00:00	2	Temperatura media	20.8
906	7	Sololá	712	San Antonio Palopó	9	San Antonio Palopo	8	Agosto	2023-12-08T00:00:00	2024-11-08T03:00:00	4	Temperatura máxima	20.8
907	7	Sololá	712	San Antonio Palopó	9	San Antonio Palopo	8	Agosto	2023-12-08T00:00:00	2024-11-08T03:00:00	3	Temperatura mínima	20.3
908	7	Sololá	712	San Antonio Palopó	9	San Antonio Palopo	8	Agosto	2023-12-08T00:00:00	2024-11-08T03:00:00	5	Humedad	70
909	7	Sololá	712	San Antonio Palopó	9	San Antonio Palopo	8	Agosto	2023-12-08T00:00:00	2024-11-08T03:00:00	6	Velocidad del viento	9.7
910	7	Sololá	712	San Antonio Palopó	9	San Antonio Palopo	8	Agosto	2023-12-08T00:00:00	2024-11-08T03:00:00	7	Dirección del viento	9.66
911	7	Sololá	712	San Antonio Palopó	9	San Antonio Palopo	8	Agosto	2023-12-08T00:00:00	2024-11-08T03:00:00	1	Precipitación	0
912	7	Sololá	712	San Antonio Palopó	9	San Antonio Palopo	8	Agosto	2023-12-08T00:00:00	2024-11-08T03:00:00	8	Radiación solar	0
913	7	Sololá	712	San Antonio Palopó	9	San Antonio Palopo	8	Agosto	2023-12-08T00:00:00	2024-11-08T04:00:00	2	Temperatura media	20.5
914	7	Sololá	712	San Antonio Palopó	9	San Antonio Palopo	8	Agosto	2023-12-08T00:00:00	2024-11-08T04:00:00	4	Temperatura máxima	20.9
915	7	Sololá	712	San Antonio Palopó	9	San Antonio Palopo	8	Agosto	2023-12-08T00:00:00	2024-11-08T04:00:00	3	Temperatura mínima	20.4
916	7	Sololá	712	San Antonio Palopó	9	San Antonio Palopo	8	Agosto	2023-12-08T00:00:00	2024-11-08T04:00:00	5	Humedad	71
917	7	Sololá	712	San Antonio Palopó	9	San Antonio Palopo	8	Agosto	2023-12-08T00:00:00	2024-11-08T04:00:00	6	Velocidad del viento	11.3
918	7	Sololá	712	San Antonio Palopó	9	San Antonio Palopo	8	Agosto	2023-12-08T00:00:00	2024-11-08T04:00:00	7	Dirección del viento	11.27
919	7	Sololá	712	San Antonio Palopó	9	San Antonio Palopo	8	Agosto	2023-12-08T00:00:00	2024-11-08T04:00:00	1	Precipitación	0
920	7	Sololá	712	San Antonio Palopó	9	San Antonio Palopo	8	Agosto	2023-12-08T00:00:00	2024-11-08T04:00:00	8	Radiación solar	0
921	7	Sololá	712	San Antonio Palopó	9	San Antonio Palopo	8	Agosto	2023-12-08T00:00:00	2024-11-08T05:00:00	2	Temperatura media	20.3
922	7	Sololá	712	San Antonio Palopó	9	San Antonio Palopo	8	Agosto	2023-12-08T00:00:00	2024-11-08T05:00:00	4	Temperatura máxima	20.5
923	7	Sololá	712	San Antonio Palopó	9	San Antonio Palopo	8	Agosto	2023-12-08T00:00:00	2024-11-08T05:00:00	3	Temperatura mínima	20.3
924	7	Sololá	712	San Antonio Palopó	9	San Antonio Palopo	8	Agosto	2023-12-08T00:00:00	2024-11-08T05:00:00	5	Humedad	72
925	7	Sololá	712	San Antonio Palopó	9	San Antonio Palopo	8	Agosto	2023-12-08T00:00:00	2024-11-08T05:00:00	6	Velocidad del viento	8
926	7	Sololá	712	San Antonio Palopó	9	San Antonio Palopo	8	Agosto	2023-12-08T00:00:00	2024-11-08T05:00:00	7	Dirección del viento	8.05
927	7	Sololá	712	San Antonio Palopó	9	San Antonio Palopo	8	Agosto	2023-12-08T00:00:00	2024-11-08T05:00:00	1	Precipitación	0
928	7	Sololá	712	San Antonio Palopó	9	San Antonio Palopo	8	Agosto	2023-12-08T00:00:00	2024-11-08T05:00:00	8	Radiación solar	0
929	7	Sololá	712	San Antonio Palopó	9	San Antonio Palopo	8	Agosto	2023-12-08T00:00:00	2024-11-08T06:00:00	2	Temperatura media	19.9
930	7	Sololá	712	San Antonio Palopó	9	San Antonio Palopo	8	Agosto	2023-12-08T00:00:00	2024-11-08T06:00:00	4	Temperatura máxima	20.3
931	7	Sololá	712	San Antonio Palopó	9	San Antonio Palopo	8	Agosto	2023-12-08T00:00:00	2024-11-08T06:00:00	3	Temperatura mínima	19.9
932	7	Sololá	712	San Antonio Palopó	9	San Antonio Palopo	8	Agosto	2023-12-08T00:00:00	2024-11-08T06:00:00	5	Humedad	73
933	7	Sololá	712	San Antonio Palopó	9	San Antonio Palopo	8	Agosto	2023-12-08T00:00:00	2024-11-08T06:00:00	6	Velocidad del viento	9.7
934	7	Sololá	712	San Antonio Palopó	9	San Antonio Palopo	8	Agosto	2023-12-08T00:00:00	2024-11-08T06:00:00	7	Dirección del viento	9.66
935	7	Sololá	712	San Antonio Palopó	9	San Antonio Palopo	8	Agosto	2023-12-08T00:00:00	2024-11-08T06:00:00	1	Precipitación	0
936	7	Sololá	712	San Antonio Palopó	9	San Antonio Palopo	8	Agosto	2023-12-08T00:00:00	2024-11-08T06:00:00	8	Radiación solar	1
937	7	Sololá	712	San Antonio Palopó	9	San Antonio Palopo	8	Agosto	2023-12-08T00:00:00	2024-11-08T07:00:00	2	Temperatura media	20.7
938	7	Sololá	712	San Antonio Palopó	9	San Antonio Palopo	8	Agosto	2023-12-08T00:00:00	2024-11-08T07:00:00	4	Temperatura máxima	20.7
939	7	Sololá	712	San Antonio Palopó	9	San Antonio Palopo	8	Agosto	2023-12-08T00:00:00	2024-11-08T07:00:00	3	Temperatura mínima	19.9
940	7	Sololá	712	San Antonio Palopó	9	San Antonio Palopo	8	Agosto	2023-12-08T00:00:00	2024-11-08T07:00:00	5	Humedad	70
941	7	Sololá	712	San Antonio Palopó	9	San Antonio Palopo	8	Agosto	2023-12-08T00:00:00	2024-11-08T07:00:00	6	Velocidad del viento	8
942	7	Sololá	712	San Antonio Palopó	9	San Antonio Palopo	8	Agosto	2023-12-08T00:00:00	2024-11-08T07:00:00	7	Dirección del viento	8.05
943	7	Sololá	712	San Antonio Palopó	9	San Antonio Palopo	8	Agosto	2023-12-08T00:00:00	2024-11-08T07:00:00	1	Precipitación	0
944	7	Sololá	712	San Antonio Palopó	9	San Antonio Palopo	8	Agosto	2023-12-08T00:00:00	2024-11-08T07:00:00	8	Radiación solar	41
945	7	Sololá	712	San Antonio Palopó	9	San Antonio Palopo	8	Agosto	2023-12-08T00:00:00	2024-11-08T08:00:00	2	Temperatura media	21.8
946	7	Sololá	712	San Antonio Palopó	9	San Antonio Palopo	8	Agosto	2023-12-08T00:00:00	2024-11-08T08:00:00	4	Temperatura máxima	21.8
947	7	Sololá	712	San Antonio Palopó	9	San Antonio Palopo	8	Agosto	2023-12-08T00:00:00	2024-11-08T08:00:00	3	Temperatura mínima	20.7
948	7	Sololá	712	San Antonio Palopó	9	San Antonio Palopo	8	Agosto	2023-12-08T00:00:00	2024-11-08T08:00:00	5	Humedad	69
949	7	Sololá	712	San Antonio Palopó	9	San Antonio Palopo	8	Agosto	2023-12-08T00:00:00	2024-11-08T08:00:00	6	Velocidad del viento	6.4
950	7	Sololá	712	San Antonio Palopó	9	San Antonio Palopo	8	Agosto	2023-12-08T00:00:00	2024-11-08T08:00:00	7	Dirección del viento	6.44
951	7	Sololá	712	San Antonio Palopó	9	San Antonio Palopo	8	Agosto	2023-12-08T00:00:00	2024-11-08T08:00:00	1	Precipitación	0
952	7	Sololá	712	San Antonio Palopó	9	San Antonio Palopo	8	Agosto	2023-12-08T00:00:00	2024-11-08T08:00:00	8	Radiación solar	148
953	7	Sololá	712	San Antonio Palopó	9	San Antonio Palopo	8	Agosto	2023-12-08T00:00:00	2024-11-08T09:00:00	2	Temperatura media	22.8
954	7	Sololá	712	San Antonio Palopó	9	San Antonio Palopo	8	Agosto	2023-12-08T00:00:00	2024-11-08T09:00:00	4	Temperatura máxima	22.8
955	7	Sololá	712	San Antonio Palopó	9	San Antonio Palopo	8	Agosto	2023-12-08T00:00:00	2024-11-08T09:00:00	3	Temperatura mínima	21.7
956	7	Sololá	712	San Antonio Palopó	9	San Antonio Palopo	8	Agosto	2023-12-08T00:00:00	2024-11-08T09:00:00	5	Humedad	68
957	7	Sololá	712	San Antonio Palopó	9	San Antonio Palopo	8	Agosto	2023-12-08T00:00:00	2024-11-08T09:00:00	6	Velocidad del viento	1.6
958	7	Sololá	712	San Antonio Palopó	9	San Antonio Palopo	8	Agosto	2023-12-08T00:00:00	2024-11-08T09:00:00	7	Dirección del viento	1.61
959	7	Sololá	712	San Antonio Palopó	9	San Antonio Palopo	8	Agosto	2023-12-08T00:00:00	2024-11-08T09:00:00	1	Precipitación	0
960	7	Sololá	712	San Antonio Palopó	9	San Antonio Palopo	8	Agosto	2023-12-08T00:00:00	2024-11-08T09:00:00	8	Radiación solar	286
961	7	Sololá	712	San Antonio Palopó	9	San Antonio Palopo	8	Agosto	2023-12-08T00:00:00	2024-11-08T10:00:00	2	Temperatura media	23.3
962	7	Sololá	712	San Antonio Palopó	9	San Antonio Palopo	8	Agosto	2023-12-08T00:00:00	2024-11-08T10:00:00	4	Temperatura máxima	23.6
963	7	Sololá	712	San Antonio Palopó	9	San Antonio Palopo	8	Agosto	2023-12-08T00:00:00	2024-11-08T10:00:00	3	Temperatura mínima	22.7
964	7	Sololá	712	San Antonio Palopó	9	San Antonio Palopo	8	Agosto	2023-12-08T00:00:00	2024-11-08T10:00:00	5	Humedad	67
965	7	Sololá	712	San Antonio Palopó	9	San Antonio Palopo	8	Agosto	2023-12-08T00:00:00	2024-11-08T10:00:00	6	Velocidad del viento	3.2
966	7	Sololá	712	San Antonio Palopó	9	San Antonio Palopo	8	Agosto	2023-12-08T00:00:00	2024-11-08T10:00:00	7	Dirección del viento	3.22
967	7	Sololá	712	San Antonio Palopó	9	San Antonio Palopo	8	Agosto	2023-12-08T00:00:00	2024-11-08T10:00:00	1	Precipitación	0
968	7	Sololá	712	San Antonio Palopó	9	San Antonio Palopo	8	Agosto	2023-12-08T00:00:00	2024-11-08T10:00:00	8	Radiación solar	639
969	7	Sololá	712	San Antonio Palopó	9	San Antonio Palopo	8	Agosto	2023-12-08T00:00:00	2024-11-08T11:00:00	2	Temperatura media	23.7
970	7	Sololá	712	San Antonio Palopó	9	San Antonio Palopo	8	Agosto	2023-12-08T00:00:00	2024-11-08T11:00:00	4	Temperatura máxima	24.1
971	7	Sololá	712	San Antonio Palopó	9	San Antonio Palopo	8	Agosto	2023-12-08T00:00:00	2024-11-08T11:00:00	3	Temperatura mínima	23.3
972	7	Sololá	712	San Antonio Palopó	9	San Antonio Palopo	8	Agosto	2023-12-08T00:00:00	2024-11-08T11:00:00	5	Humedad	70
973	7	Sololá	712	San Antonio Palopó	9	San Antonio Palopo	8	Agosto	2023-12-08T00:00:00	2024-11-08T11:00:00	6	Velocidad del viento	3.2
974	7	Sololá	712	San Antonio Palopó	9	San Antonio Palopo	8	Agosto	2023-12-08T00:00:00	2024-11-08T11:00:00	7	Dirección del viento	3.22
975	7	Sololá	712	San Antonio Palopó	9	San Antonio Palopo	8	Agosto	2023-12-08T00:00:00	2024-11-08T11:00:00	1	Precipitación	0
976	7	Sololá	712	San Antonio Palopó	9	San Antonio Palopo	8	Agosto	2023-12-08T00:00:00	2024-11-08T11:00:00	8	Radiación solar	643
977	7	Sololá	712	San Antonio Palopó	9	San Antonio Palopo	8	Agosto	2023-12-08T00:00:00	2024-11-08T12:00:00	2	Temperatura media	23.9
978	7	Sololá	712	San Antonio Palopó	9	San Antonio Palopo	8	Agosto	2023-12-08T00:00:00	2024-11-08T12:00:00	4	Temperatura máxima	24.6
979	7	Sololá	712	San Antonio Palopó	9	San Antonio Palopo	8	Agosto	2023-12-08T00:00:00	2024-11-08T12:00:00	3	Temperatura mínima	23.7
980	7	Sololá	712	San Antonio Palopó	9	San Antonio Palopo	8	Agosto	2023-12-08T00:00:00	2024-11-08T12:00:00	5	Humedad	74
981	7	Sololá	712	San Antonio Palopó	9	San Antonio Palopo	8	Agosto	2023-12-08T00:00:00	2024-11-08T12:00:00	6	Velocidad del viento	6.4
982	7	Sololá	712	San Antonio Palopó	9	San Antonio Palopo	8	Agosto	2023-12-08T00:00:00	2024-11-08T12:00:00	7	Dirección del viento	6.44
983	7	Sololá	712	San Antonio Palopó	9	San Antonio Palopo	8	Agosto	2023-12-08T00:00:00	2024-11-08T12:00:00	1	Precipitación	0
984	7	Sololá	712	San Antonio Palopó	9	San Antonio Palopo	8	Agosto	2023-12-08T00:00:00	2024-11-08T12:00:00	8	Radiación solar	654
985	7	Sololá	712	San Antonio Palopó	9	San Antonio Palopo	8	Agosto	2023-12-08T00:00:00	2024-11-08T13:00:00	2	Temperatura media	24.9
986	7	Sololá	712	San Antonio Palopó	9	San Antonio Palopo	8	Agosto	2023-12-08T00:00:00	2024-11-08T13:00:00	4	Temperatura máxima	26.1
987	7	Sololá	712	San Antonio Palopó	9	San Antonio Palopo	8	Agosto	2023-12-08T00:00:00	2024-11-08T13:00:00	3	Temperatura mínima	23.8
988	7	Sololá	712	San Antonio Palopó	9	San Antonio Palopo	8	Agosto	2023-12-08T00:00:00	2024-11-08T13:00:00	5	Humedad	72
989	7	Sololá	712	San Antonio Palopó	9	San Antonio Palopo	8	Agosto	2023-12-08T00:00:00	2024-11-08T13:00:00	6	Velocidad del viento	6.4
990	7	Sololá	712	San Antonio Palopó	9	San Antonio Palopo	8	Agosto	2023-12-08T00:00:00	2024-11-08T13:00:00	7	Dirección del viento	6.44
991	7	Sololá	712	San Antonio Palopó	9	San Antonio Palopo	8	Agosto	2023-12-08T00:00:00	2024-11-08T13:00:00	1	Precipitación	0
992	7	Sololá	712	San Antonio Palopó	9	San Antonio Palopo	8	Agosto	2023-12-08T00:00:00	2024-11-08T13:00:00	8	Radiación solar	800
993	7	Sololá	712	San Antonio Palopó	9	San Antonio Palopo	8	Agosto	2023-12-08T00:00:00	2024-11-08T14:00:00	2	Temperatura media	25.6
994	7	Sololá	712	San Antonio Palopó	9	San Antonio Palopo	8	Agosto	2023-12-08T00:00:00	2024-11-08T14:00:00	4	Temperatura máxima	26.6
995	7	Sololá	712	San Antonio Palopó	9	San Antonio Palopo	8	Agosto	2023-12-08T00:00:00	2024-11-08T14:00:00	3	Temperatura mínima	24.6
996	7	Sololá	712	San Antonio Palopó	9	San Antonio Palopo	8	Agosto	2023-12-08T00:00:00	2024-11-08T14:00:00	5	Humedad	73
997	7	Sololá	712	San Antonio Palopó	9	San Antonio Palopo	8	Agosto	2023-12-08T00:00:00	2024-11-08T14:00:00	6	Velocidad del viento	4.8
998	7	Sololá	712	San Antonio Palopó	9	San Antonio Palopo	8	Agosto	2023-12-08T00:00:00	2024-11-08T14:00:00	7	Dirección del viento	4.83
999	7	Sololá	712	San Antonio Palopó	9	San Antonio Palopo	8	Agosto	2023-12-08T00:00:00	2024-11-08T14:00:00	1	Precipitación	0
1000	7	Sololá	712	San Antonio Palopó	9	San Antonio Palopo	8	Agosto	2023-12-08T00:00:00	2024-11-08T14:00:00	8	Radiación solar	631
1001	7	Sololá	712	San Antonio Palopó	9	San Antonio Palopo	8	Agosto	2023-12-08T00:00:00	2024-11-08T15:00:00	2	Temperatura media	24.5
1002	7	Sololá	712	San Antonio Palopó	9	San Antonio Palopo	8	Agosto	2023-12-08T00:00:00	2024-11-08T15:00:00	4	Temperatura máxima	26
1003	7	Sololá	712	San Antonio Palopó	9	San Antonio Palopo	8	Agosto	2023-12-08T00:00:00	2024-11-08T15:00:00	3	Temperatura mínima	24.2
1004	7	Sololá	712	San Antonio Palopó	9	San Antonio Palopo	8	Agosto	2023-12-08T00:00:00	2024-11-08T15:00:00	5	Humedad	77
1005	7	Sololá	712	San Antonio Palopó	9	San Antonio Palopo	8	Agosto	2023-12-08T00:00:00	2024-11-08T15:00:00	6	Velocidad del viento	4.8
1006	7	Sololá	712	San Antonio Palopó	9	San Antonio Palopo	8	Agosto	2023-12-08T00:00:00	2024-11-08T15:00:00	7	Dirección del viento	4.83
1007	7	Sololá	712	San Antonio Palopó	9	San Antonio Palopo	8	Agosto	2023-12-08T00:00:00	2024-11-08T15:00:00	1	Precipitación	0
1008	7	Sololá	712	San Antonio Palopó	9	San Antonio Palopo	8	Agosto	2023-12-08T00:00:00	2024-11-08T15:00:00	8	Radiación solar	405
1009	7	Sololá	712	San Antonio Palopó	9	San Antonio Palopo	8	Agosto	2023-12-08T00:00:00	2024-11-08T16:00:00	2	Temperatura media	25.7
1010	7	Sololá	712	San Antonio Palopó	9	San Antonio Palopo	8	Agosto	2023-12-08T00:00:00	2024-11-08T16:00:00	4	Temperatura máxima	26.6
1011	7	Sololá	712	San Antonio Palopó	9	San Antonio Palopo	8	Agosto	2023-12-08T00:00:00	2024-11-08T16:00:00	3	Temperatura mínima	24.6
1012	7	Sololá	712	San Antonio Palopó	9	San Antonio Palopo	8	Agosto	2023-12-08T00:00:00	2024-11-08T16:00:00	5	Humedad	73
1013	7	Sololá	712	San Antonio Palopó	9	San Antonio Palopo	8	Agosto	2023-12-08T00:00:00	2024-11-08T16:00:00	6	Velocidad del viento	4.8
1014	7	Sololá	712	San Antonio Palopó	9	San Antonio Palopo	8	Agosto	2023-12-08T00:00:00	2024-11-08T16:00:00	7	Dirección del viento	4.83
1015	7	Sololá	712	San Antonio Palopó	9	San Antonio Palopo	8	Agosto	2023-12-08T00:00:00	2024-11-08T16:00:00	1	Precipitación	0
1016	7	Sololá	712	San Antonio Palopó	9	San Antonio Palopo	8	Agosto	2023-12-08T00:00:00	2024-11-08T16:00:00	8	Radiación solar	502
1017	7	Sololá	712	San Antonio Palopó	9	San Antonio Palopo	8	Agosto	2023-12-08T00:00:00	2024-11-08T17:00:00	2	Temperatura media	24.1
1018	7	Sololá	712	San Antonio Palopó	9	San Antonio Palopo	8	Agosto	2023-12-08T00:00:00	2024-11-08T17:00:00	4	Temperatura máxima	25.8
1019	7	Sololá	712	San Antonio Palopó	9	San Antonio Palopo	8	Agosto	2023-12-08T00:00:00	2024-11-08T17:00:00	3	Temperatura mínima	24.1
1020	7	Sololá	712	San Antonio Palopó	9	San Antonio Palopo	8	Agosto	2023-12-08T00:00:00	2024-11-08T17:00:00	5	Humedad	76
1021	7	Sololá	712	San Antonio Palopó	9	San Antonio Palopo	8	Agosto	2023-12-08T00:00:00	2024-11-08T17:00:00	6	Velocidad del viento	6.4
1022	7	Sololá	712	San Antonio Palopó	9	San Antonio Palopo	8	Agosto	2023-12-08T00:00:00	2024-11-08T17:00:00	7	Dirección del viento	6.44
1023	7	Sololá	712	San Antonio Palopó	9	San Antonio Palopo	8	Agosto	2023-12-08T00:00:00	2024-11-08T17:00:00	1	Precipitación	0
1024	7	Sololá	712	San Antonio Palopó	9	San Antonio Palopo	8	Agosto	2023-12-08T00:00:00	2024-11-08T17:00:00	8	Radiación solar	310
1025	7	Sololá	712	San Antonio Palopó	9	San Antonio Palopo	8	Agosto	2023-12-08T00:00:00	2024-11-08T18:00:00	2	Temperatura media	22.8
1026	7	Sololá	712	San Antonio Palopó	9	San Antonio Palopo	8	Agosto	2023-12-08T00:00:00	2024-11-08T18:00:00	4	Temperatura máxima	24.1
1027	7	Sololá	712	San Antonio Palopó	9	San Antonio Palopo	8	Agosto	2023-12-08T00:00:00	2024-11-08T18:00:00	3	Temperatura mínima	22.8
1028	7	Sololá	712	San Antonio Palopó	9	San Antonio Palopo	8	Agosto	2023-12-08T00:00:00	2024-11-08T18:00:00	5	Humedad	80
1029	7	Sololá	712	San Antonio Palopó	9	San Antonio Palopo	8	Agosto	2023-12-08T00:00:00	2024-11-08T18:00:00	6	Velocidad del viento	4.8
1030	7	Sololá	712	San Antonio Palopó	9	San Antonio Palopo	8	Agosto	2023-12-08T00:00:00	2024-11-08T18:00:00	7	Dirección del viento	4.83
1031	7	Sololá	712	San Antonio Palopó	9	San Antonio Palopo	8	Agosto	2023-12-08T00:00:00	2024-11-08T18:00:00	1	Precipitación	0
1032	7	Sololá	712	San Antonio Palopó	9	San Antonio Palopo	8	Agosto	2023-12-08T00:00:00	2024-11-08T18:00:00	8	Radiación solar	48
1033	7	Sololá	712	San Antonio Palopó	9	San Antonio Palopo	8	Agosto	2023-12-08T00:00:00	2024-11-08T19:00:00	2	Temperatura media	22.9
1034	7	Sololá	712	San Antonio Palopó	9	San Antonio Palopo	8	Agosto	2023-12-08T00:00:00	2024-11-08T19:00:00	4	Temperatura máxima	22.9
1035	7	Sololá	712	San Antonio Palopó	9	San Antonio Palopo	8	Agosto	2023-12-08T00:00:00	2024-11-08T19:00:00	3	Temperatura mínima	22.7
1036	7	Sololá	712	San Antonio Palopó	9	San Antonio Palopo	8	Agosto	2023-12-08T00:00:00	2024-11-08T19:00:00	5	Humedad	71
1037	7	Sololá	712	San Antonio Palopó	9	San Antonio Palopo	8	Agosto	2023-12-08T00:00:00	2024-11-08T19:00:00	6	Velocidad del viento	3.2
1038	7	Sololá	712	San Antonio Palopó	9	San Antonio Palopo	8	Agosto	2023-12-08T00:00:00	2024-11-08T19:00:00	7	Dirección del viento	3.22
1039	7	Sololá	712	San Antonio Palopó	9	San Antonio Palopo	8	Agosto	2023-12-08T00:00:00	2024-11-08T19:00:00	1	Precipitación	0
1040	7	Sololá	712	San Antonio Palopó	9	San Antonio Palopo	8	Agosto	2023-12-08T00:00:00	2024-11-08T19:00:00	8	Radiación solar	0
1041	7	Sololá	712	San Antonio Palopó	9	San Antonio Palopo	8	Agosto	2023-12-08T00:00:00	2024-11-08T20:00:00	2	Temperatura media	22.7
1042	7	Sololá	712	San Antonio Palopó	9	San Antonio Palopo	8	Agosto	2023-12-08T00:00:00	2024-11-08T20:00:00	4	Temperatura máxima	23.1
1043	7	Sololá	712	San Antonio Palopó	9	San Antonio Palopo	8	Agosto	2023-12-08T00:00:00	2024-11-08T20:00:00	3	Temperatura mínima	22.7
1044	7	Sololá	712	San Antonio Palopó	9	San Antonio Palopo	8	Agosto	2023-12-08T00:00:00	2024-11-08T20:00:00	5	Humedad	71
1045	7	Sololá	712	San Antonio Palopó	9	San Antonio Palopo	8	Agosto	2023-12-08T00:00:00	2024-11-08T20:00:00	6	Velocidad del viento	3.2
1046	7	Sololá	712	San Antonio Palopó	9	San Antonio Palopo	8	Agosto	2023-12-08T00:00:00	2024-11-08T20:00:00	7	Dirección del viento	3.22
1047	7	Sololá	712	San Antonio Palopó	9	San Antonio Palopo	8	Agosto	2023-12-08T00:00:00	2024-11-08T20:00:00	1	Precipitación	0
1048	7	Sololá	712	San Antonio Palopó	9	San Antonio Palopo	8	Agosto	2023-12-08T00:00:00	2024-11-08T20:00:00	8	Radiación solar	0
1049	7	Sololá	712	San Antonio Palopó	9	San Antonio Palopo	8	Agosto	2023-12-08T00:00:00	2024-11-08T21:00:00	2	Temperatura media	22.1
1050	7	Sololá	712	San Antonio Palopó	9	San Antonio Palopo	8	Agosto	2023-12-08T00:00:00	2024-11-08T21:00:00	4	Temperatura máxima	22.7
1051	7	Sololá	712	San Antonio Palopó	9	San Antonio Palopo	8	Agosto	2023-12-08T00:00:00	2024-11-08T21:00:00	3	Temperatura mínima	22.1
1052	7	Sololá	712	San Antonio Palopó	9	San Antonio Palopo	8	Agosto	2023-12-08T00:00:00	2024-11-08T21:00:00	5	Humedad	69
1053	7	Sololá	712	San Antonio Palopó	9	San Antonio Palopo	8	Agosto	2023-12-08T00:00:00	2024-11-08T21:00:00	6	Velocidad del viento	4.8
1054	7	Sololá	712	San Antonio Palopó	9	San Antonio Palopo	8	Agosto	2023-12-08T00:00:00	2024-11-08T21:00:00	7	Dirección del viento	4.83
1055	7	Sololá	712	San Antonio Palopó	9	San Antonio Palopo	8	Agosto	2023-12-08T00:00:00	2024-11-08T21:00:00	1	Precipitación	0
1056	7	Sololá	712	San Antonio Palopó	9	San Antonio Palopo	8	Agosto	2023-12-08T00:00:00	2024-11-08T21:00:00	8	Radiación solar	0
1057	7	Sololá	712	San Antonio Palopó	9	San Antonio Palopo	8	Agosto	2023-12-08T00:00:00	2024-11-08T22:00:00	2	Temperatura media	21.1
1058	7	Sololá	712	San Antonio Palopó	9	San Antonio Palopo	8	Agosto	2023-12-08T00:00:00	2024-11-08T22:00:00	4	Temperatura máxima	22.2
1059	7	Sololá	712	San Antonio Palopó	9	San Antonio Palopo	8	Agosto	2023-12-08T00:00:00	2024-11-08T22:00:00	3	Temperatura mínima	21
1060	7	Sololá	712	San Antonio Palopó	9	San Antonio Palopo	8	Agosto	2023-12-08T00:00:00	2024-11-08T22:00:00	5	Humedad	71
1061	7	Sololá	712	San Antonio Palopó	9	San Antonio Palopo	8	Agosto	2023-12-08T00:00:00	2024-11-08T22:00:00	6	Velocidad del viento	8
1062	7	Sololá	712	San Antonio Palopó	9	San Antonio Palopo	8	Agosto	2023-12-08T00:00:00	2024-11-08T22:00:00	7	Dirección del viento	8.05
1063	7	Sololá	712	San Antonio Palopó	9	San Antonio Palopo	8	Agosto	2023-12-08T00:00:00	2024-11-08T22:00:00	1	Precipitación	0
1064	7	Sololá	712	San Antonio Palopó	9	San Antonio Palopo	8	Agosto	2023-12-08T00:00:00	2024-11-08T22:00:00	8	Radiación solar	0
1065	7	Sololá	712	San Antonio Palopó	9	San Antonio Palopo	8	Agosto	2023-12-08T00:00:00	2024-11-08T23:00:00	2	Temperatura media	21.4
1066	7	Sololá	712	San Antonio Palopó	9	San Antonio Palopo	8	Agosto	2023-12-08T00:00:00	2024-11-08T23:00:00	4	Temperatura máxima	21.6
1067	7	Sololá	712	San Antonio Palopó	9	San Antonio Palopo	8	Agosto	2023-12-08T00:00:00	2024-11-08T23:00:00	3	Temperatura mínima	21
1068	7	Sololá	712	San Antonio Palopó	9	San Antonio Palopo	8	Agosto	2023-12-08T00:00:00	2024-11-08T23:00:00	5	Humedad	68
1069	7	Sololá	712	San Antonio Palopó	9	San Antonio Palopo	8	Agosto	2023-12-08T00:00:00	2024-11-08T23:00:00	6	Velocidad del viento	4.8
1070	7	Sololá	712	San Antonio Palopó	9	San Antonio Palopo	8	Agosto	2023-12-08T00:00:00	2024-11-08T23:00:00	7	Dirección del viento	4.83
1071	7	Sololá	712	San Antonio Palopó	9	San Antonio Palopo	8	Agosto	2023-12-08T00:00:00	2024-11-08T23:00:00	1	Precipitación	0
1072	7	Sololá	712	San Antonio Palopó	9	San Antonio Palopo	8	Agosto	2023-12-08T00:00:00	2024-11-08T23:00:00	8	Radiación solar	0
1073	7	Sololá	712	San Antonio Palopó	9	San Antonio Palopo	8	Agosto	2023-08-13T00:00:00	2024-11-08T00:00:00	2	Temperatura media	21.1
1074	7	Sololá	712	San Antonio Palopó	9	San Antonio Palopo	8	Agosto	2023-08-13T00:00:00	2024-11-08T00:00:00	4	Temperatura máxima	21.7
1075	7	Sololá	712	San Antonio Palopó	9	San Antonio Palopo	8	Agosto	2023-08-13T00:00:00	2024-11-08T00:00:00	3	Temperatura mínima	21
1076	7	Sololá	712	San Antonio Palopó	9	San Antonio Palopo	8	Agosto	2023-08-13T00:00:00	2024-11-08T00:00:00	5	Humedad	67
1077	7	Sololá	712	San Antonio Palopó	9	San Antonio Palopo	8	Agosto	2023-08-13T00:00:00	2024-11-08T00:00:00	6	Velocidad del viento	4.8
1078	7	Sololá	712	San Antonio Palopó	9	San Antonio Palopo	8	Agosto	2023-08-13T00:00:00	2024-11-08T00:00:00	7	Dirección del viento	4.83
1079	7	Sololá	712	San Antonio Palopó	9	San Antonio Palopo	8	Agosto	2023-08-13T00:00:00	2024-11-08T00:00:00	1	Precipitación	0
1080	7	Sololá	712	San Antonio Palopó	9	San Antonio Palopo	8	Agosto	2023-08-13T00:00:00	2024-11-08T00:00:00	8	Radiación solar	0
1081	7	Sololá	712	San Antonio Palopó	9	San Antonio Palopo	8	Agosto	2023-08-13T00:00:00	2024-11-08T01:00:00	2	Temperatura media	21.1
1082	7	Sololá	712	San Antonio Palopó	9	San Antonio Palopo	8	Agosto	2023-08-13T00:00:00	2024-11-08T01:00:00	4	Temperatura máxima	21.4
1083	7	Sololá	712	San Antonio Palopó	9	San Antonio Palopo	8	Agosto	2023-08-13T00:00:00	2024-11-08T01:00:00	3	Temperatura mínima	21.1
1084	7	Sololá	712	San Antonio Palopó	9	San Antonio Palopo	8	Agosto	2023-08-13T00:00:00	2024-11-08T01:00:00	5	Humedad	60
1085	7	Sololá	712	San Antonio Palopó	9	San Antonio Palopo	8	Agosto	2023-08-13T00:00:00	2024-11-08T01:00:00	6	Velocidad del viento	12.9
1086	7	Sololá	712	San Antonio Palopó	9	San Antonio Palopo	8	Agosto	2023-08-13T00:00:00	2024-11-08T01:00:00	7	Dirección del viento	12.87
1087	7	Sololá	712	San Antonio Palopó	9	San Antonio Palopo	8	Agosto	2023-08-13T00:00:00	2024-11-08T01:00:00	1	Precipitación	0
1088	7	Sololá	712	San Antonio Palopó	9	San Antonio Palopo	8	Agosto	2023-08-13T00:00:00	2024-11-08T01:00:00	8	Radiación solar	0
1089	7	Sololá	712	San Antonio Palopó	9	San Antonio Palopo	8	Agosto	2023-08-13T00:00:00	2024-11-08T02:00:00	2	Temperatura media	21.2
1090	7	Sololá	712	San Antonio Palopó	9	San Antonio Palopo	8	Agosto	2023-08-13T00:00:00	2024-11-08T02:00:00	4	Temperatura máxima	21.2
1091	7	Sololá	712	San Antonio Palopó	9	San Antonio Palopo	8	Agosto	2023-08-13T00:00:00	2024-11-08T02:00:00	3	Temperatura mínima	20.6
1092	7	Sololá	712	San Antonio Palopó	9	San Antonio Palopo	8	Agosto	2023-08-13T00:00:00	2024-11-08T02:00:00	5	Humedad	59
1093	7	Sololá	712	San Antonio Palopó	9	San Antonio Palopo	8	Agosto	2023-08-13T00:00:00	2024-11-08T02:00:00	6	Velocidad del viento	12.9
1094	7	Sololá	712	San Antonio Palopó	9	San Antonio Palopo	8	Agosto	2023-08-13T00:00:00	2024-11-08T02:00:00	7	Dirección del viento	12.87
1095	7	Sololá	712	San Antonio Palopó	9	San Antonio Palopo	8	Agosto	2023-08-13T00:00:00	2024-11-08T02:00:00	1	Precipitación	0
1096	7	Sololá	712	San Antonio Palopó	9	San Antonio Palopo	8	Agosto	2023-08-13T00:00:00	2024-11-08T02:00:00	8	Radiación solar	0
1097	7	Sololá	712	San Antonio Palopó	9	San Antonio Palopo	8	Agosto	2023-08-13T00:00:00	2024-11-08T03:00:00	2	Temperatura media	21.1
1098	7	Sololá	712	San Antonio Palopó	9	San Antonio Palopo	8	Agosto	2023-08-13T00:00:00	2024-11-08T03:00:00	4	Temperatura máxima	21.3
1099	7	Sololá	712	San Antonio Palopó	9	San Antonio Palopo	8	Agosto	2023-08-13T00:00:00	2024-11-08T03:00:00	3	Temperatura mínima	21
1100	7	Sololá	712	San Antonio Palopó	9	San Antonio Palopo	8	Agosto	2023-08-13T00:00:00	2024-11-08T03:00:00	5	Humedad	61
1101	7	Sololá	712	San Antonio Palopó	9	San Antonio Palopo	8	Agosto	2023-08-13T00:00:00	2024-11-08T03:00:00	6	Velocidad del viento	12.9
1102	7	Sololá	712	San Antonio Palopó	9	San Antonio Palopo	8	Agosto	2023-08-13T00:00:00	2024-11-08T03:00:00	7	Dirección del viento	12.87
1103	7	Sololá	712	San Antonio Palopó	9	San Antonio Palopo	8	Agosto	2023-08-13T00:00:00	2024-11-08T03:00:00	1	Precipitación	0
1104	7	Sololá	712	San Antonio Palopó	9	San Antonio Palopo	8	Agosto	2023-08-13T00:00:00	2024-11-08T03:00:00	8	Radiación solar	0
1105	7	Sololá	712	San Antonio Palopó	9	San Antonio Palopo	8	Agosto	2023-08-13T00:00:00	2024-11-08T04:00:00	2	Temperatura media	20.4
1106	7	Sololá	712	San Antonio Palopó	9	San Antonio Palopo	8	Agosto	2023-08-13T00:00:00	2024-11-08T04:00:00	4	Temperatura máxima	21.2
1107	7	Sololá	712	San Antonio Palopó	9	San Antonio Palopo	8	Agosto	2023-08-13T00:00:00	2024-11-08T04:00:00	3	Temperatura mínima	20.4
1108	7	Sololá	712	San Antonio Palopó	9	San Antonio Palopo	8	Agosto	2023-08-13T00:00:00	2024-11-08T04:00:00	5	Humedad	64
1109	7	Sololá	712	San Antonio Palopó	9	San Antonio Palopo	8	Agosto	2023-08-13T00:00:00	2024-11-08T04:00:00	6	Velocidad del viento	6.4
1110	7	Sololá	712	San Antonio Palopó	9	San Antonio Palopo	8	Agosto	2023-08-13T00:00:00	2024-11-08T04:00:00	7	Dirección del viento	6.44
1111	7	Sololá	712	San Antonio Palopó	9	San Antonio Palopo	8	Agosto	2023-08-13T00:00:00	2024-11-08T04:00:00	1	Precipitación	0
1112	7	Sololá	712	San Antonio Palopó	9	San Antonio Palopo	8	Agosto	2023-08-13T00:00:00	2024-11-08T04:00:00	8	Radiación solar	0
1113	7	Sololá	712	San Antonio Palopó	9	San Antonio Palopo	8	Agosto	2023-08-13T00:00:00	2024-11-08T05:00:00	2	Temperatura media	20.1
1114	7	Sololá	712	San Antonio Palopó	9	San Antonio Palopo	8	Agosto	2023-08-13T00:00:00	2024-11-08T05:00:00	4	Temperatura máxima	20.6
1115	7	Sololá	712	San Antonio Palopó	9	San Antonio Palopo	8	Agosto	2023-08-13T00:00:00	2024-11-08T05:00:00	3	Temperatura mínima	20.1
1116	7	Sololá	712	San Antonio Palopó	9	San Antonio Palopo	8	Agosto	2023-08-13T00:00:00	2024-11-08T05:00:00	5	Humedad	67
1117	7	Sololá	712	San Antonio Palopó	9	San Antonio Palopo	8	Agosto	2023-08-13T00:00:00	2024-11-08T05:00:00	6	Velocidad del viento	6.4
1118	7	Sololá	712	San Antonio Palopó	9	San Antonio Palopo	8	Agosto	2023-08-13T00:00:00	2024-11-08T05:00:00	7	Dirección del viento	6.44
1119	7	Sololá	712	San Antonio Palopó	9	San Antonio Palopo	8	Agosto	2023-08-13T00:00:00	2024-11-08T05:00:00	1	Precipitación	0
1120	7	Sololá	712	San Antonio Palopó	9	San Antonio Palopo	8	Agosto	2023-08-13T00:00:00	2024-11-08T05:00:00	8	Radiación solar	0
1121	7	Sololá	712	San Antonio Palopó	9	San Antonio Palopo	8	Agosto	2023-08-13T00:00:00	2024-11-08T06:00:00	2	Temperatura media	20.5
1122	7	Sololá	712	San Antonio Palopó	9	San Antonio Palopo	8	Agosto	2023-08-13T00:00:00	2024-11-08T06:00:00	4	Temperatura máxima	20.5
1123	7	Sololá	712	San Antonio Palopó	9	San Antonio Palopo	8	Agosto	2023-08-13T00:00:00	2024-11-08T06:00:00	3	Temperatura mínima	19.8
1124	7	Sololá	712	San Antonio Palopó	9	San Antonio Palopo	8	Agosto	2023-08-13T00:00:00	2024-11-08T06:00:00	5	Humedad	67
1125	7	Sololá	712	San Antonio Palopó	9	San Antonio Palopo	8	Agosto	2023-08-13T00:00:00	2024-11-08T06:00:00	6	Velocidad del viento	3.2
1126	7	Sololá	712	San Antonio Palopó	9	San Antonio Palopo	8	Agosto	2023-08-13T00:00:00	2024-11-08T06:00:00	7	Dirección del viento	3.22
1127	7	Sololá	712	San Antonio Palopó	9	San Antonio Palopo	8	Agosto	2023-08-13T00:00:00	2024-11-08T06:00:00	1	Precipitación	0
1128	7	Sololá	712	San Antonio Palopó	9	San Antonio Palopo	8	Agosto	2023-08-13T00:00:00	2024-11-08T06:00:00	8	Radiación solar	0
1129	7	Sololá	712	San Antonio Palopó	9	San Antonio Palopo	8	Agosto	2023-08-13T00:00:00	2024-11-08T07:00:00	2	Temperatura media	21.3
1130	7	Sololá	712	San Antonio Palopó	9	San Antonio Palopo	8	Agosto	2023-08-13T00:00:00	2024-11-08T07:00:00	4	Temperatura máxima	21.3
1131	7	Sololá	712	San Antonio Palopó	9	San Antonio Palopo	8	Agosto	2023-08-13T00:00:00	2024-11-08T07:00:00	3	Temperatura mínima	20.3
1132	7	Sololá	712	San Antonio Palopó	9	San Antonio Palopo	8	Agosto	2023-08-13T00:00:00	2024-11-08T07:00:00	5	Humedad	65
1133	7	Sololá	712	San Antonio Palopó	9	San Antonio Palopo	8	Agosto	2023-08-13T00:00:00	2024-11-08T07:00:00	6	Velocidad del viento	6.4
1134	7	Sololá	712	San Antonio Palopó	9	San Antonio Palopo	8	Agosto	2023-08-13T00:00:00	2024-11-08T07:00:00	7	Dirección del viento	6.44
1135	7	Sololá	712	San Antonio Palopó	9	San Antonio Palopo	8	Agosto	2023-08-13T00:00:00	2024-11-08T07:00:00	1	Precipitación	0
1136	7	Sololá	712	San Antonio Palopó	9	San Antonio Palopo	8	Agosto	2023-08-13T00:00:00	2024-11-08T07:00:00	8	Radiación solar	45
1137	7	Sololá	712	San Antonio Palopó	9	San Antonio Palopo	8	Agosto	2023-08-13T00:00:00	2024-11-08T08:00:00	2	Temperatura media	22.4
1138	7	Sololá	712	San Antonio Palopó	9	San Antonio Palopo	8	Agosto	2023-08-13T00:00:00	2024-11-08T08:00:00	4	Temperatura máxima	22.4
1139	7	Sololá	712	San Antonio Palopó	9	San Antonio Palopo	8	Agosto	2023-08-13T00:00:00	2024-11-08T08:00:00	3	Temperatura mínima	21.3
1140	7	Sololá	712	San Antonio Palopó	9	San Antonio Palopo	8	Agosto	2023-08-13T00:00:00	2024-11-08T08:00:00	5	Humedad	65
1141	7	Sololá	712	San Antonio Palopó	9	San Antonio Palopo	8	Agosto	2023-08-13T00:00:00	2024-11-08T08:00:00	6	Velocidad del viento	3.2
1142	7	Sololá	712	San Antonio Palopó	9	San Antonio Palopo	8	Agosto	2023-08-13T00:00:00	2024-11-08T08:00:00	7	Dirección del viento	3.22
1143	7	Sololá	712	San Antonio Palopó	9	San Antonio Palopo	8	Agosto	2023-08-13T00:00:00	2024-11-08T08:00:00	1	Precipitación	0
1144	7	Sololá	712	San Antonio Palopó	9	San Antonio Palopo	8	Agosto	2023-08-13T00:00:00	2024-11-08T08:00:00	8	Radiación solar	170
1145	7	Sololá	712	San Antonio Palopó	9	San Antonio Palopo	8	Agosto	2023-08-13T00:00:00	2024-11-08T09:00:00	2	Temperatura media	23.8
1146	7	Sololá	712	San Antonio Palopó	9	San Antonio Palopo	8	Agosto	2023-08-13T00:00:00	2024-11-08T09:00:00	4	Temperatura máxima	24
1147	7	Sololá	712	San Antonio Palopó	9	San Antonio Palopo	8	Agosto	2023-08-13T00:00:00	2024-11-08T09:00:00	3	Temperatura mínima	22.4
1148	7	Sololá	712	San Antonio Palopó	9	San Antonio Palopo	8	Agosto	2023-08-13T00:00:00	2024-11-08T09:00:00	5	Humedad	61
1149	7	Sololá	712	San Antonio Palopó	9	San Antonio Palopo	8	Agosto	2023-08-13T00:00:00	2024-11-08T09:00:00	6	Velocidad del viento	3.2
1150	7	Sololá	712	San Antonio Palopó	9	San Antonio Palopo	8	Agosto	2023-08-13T00:00:00	2024-11-08T09:00:00	7	Dirección del viento	3.22
1151	7	Sololá	712	San Antonio Palopó	9	San Antonio Palopo	8	Agosto	2023-08-13T00:00:00	2024-11-08T09:00:00	1	Precipitación	0
1152	7	Sololá	712	San Antonio Palopó	9	San Antonio Palopo	8	Agosto	2023-08-13T00:00:00	2024-11-08T09:00:00	8	Radiación solar	416
1153	7	Sololá	712	San Antonio Palopó	9	San Antonio Palopo	8	Agosto	2023-08-13T00:00:00	2024-11-08T10:00:00	2	Temperatura media	23.9
1154	7	Sololá	712	San Antonio Palopó	9	San Antonio Palopo	8	Agosto	2023-08-13T00:00:00	2024-11-08T10:00:00	4	Temperatura máxima	25.2
1155	7	Sololá	712	San Antonio Palopó	9	San Antonio Palopo	8	Agosto	2023-08-13T00:00:00	2024-11-08T10:00:00	3	Temperatura mínima	23.7
1156	7	Sololá	712	San Antonio Palopó	9	San Antonio Palopo	8	Agosto	2023-08-13T00:00:00	2024-11-08T10:00:00	5	Humedad	61
1157	7	Sololá	712	San Antonio Palopó	9	San Antonio Palopo	8	Agosto	2023-08-13T00:00:00	2024-11-08T10:00:00	6	Velocidad del viento	6.4
1158	7	Sololá	712	San Antonio Palopó	9	San Antonio Palopo	8	Agosto	2023-08-13T00:00:00	2024-11-08T10:00:00	7	Dirección del viento	6.44
1159	7	Sololá	712	San Antonio Palopó	9	San Antonio Palopo	8	Agosto	2023-08-13T00:00:00	2024-11-08T10:00:00	1	Precipitación	0
1160	7	Sololá	712	San Antonio Palopó	9	San Antonio Palopo	8	Agosto	2023-08-13T00:00:00	2024-11-08T10:00:00	8	Radiación solar	526
1161	7	Sololá	712	San Antonio Palopó	9	San Antonio Palopo	8	Agosto	2023-08-13T00:00:00	2024-11-08T11:00:00	2	Temperatura media	24.4
1162	7	Sololá	712	San Antonio Palopó	9	San Antonio Palopo	8	Agosto	2023-08-13T00:00:00	2024-11-08T11:00:00	4	Temperatura máxima	25.4
1163	7	Sololá	712	San Antonio Palopó	9	San Antonio Palopo	8	Agosto	2023-08-13T00:00:00	2024-11-08T11:00:00	3	Temperatura mínima	23.9
1164	7	Sololá	712	San Antonio Palopó	9	San Antonio Palopo	8	Agosto	2023-08-13T00:00:00	2024-11-08T11:00:00	5	Humedad	59
1165	7	Sololá	712	San Antonio Palopó	9	San Antonio Palopo	8	Agosto	2023-08-13T00:00:00	2024-11-08T11:00:00	6	Velocidad del viento	9.7
1166	7	Sololá	712	San Antonio Palopó	9	San Antonio Palopo	8	Agosto	2023-08-13T00:00:00	2024-11-08T11:00:00	7	Dirección del viento	9.66
1167	7	Sololá	712	San Antonio Palopó	9	San Antonio Palopo	8	Agosto	2023-08-13T00:00:00	2024-11-08T11:00:00	1	Precipitación	0
1168	7	Sololá	712	San Antonio Palopó	9	San Antonio Palopo	8	Agosto	2023-08-13T00:00:00	2024-11-08T11:00:00	8	Radiación solar	913
1169	7	Sololá	712	San Antonio Palopó	9	San Antonio Palopo	8	Agosto	2023-08-13T00:00:00	2024-11-08T12:00:00	2	Temperatura media	24.8
1170	7	Sololá	712	San Antonio Palopó	9	San Antonio Palopo	8	Agosto	2023-08-13T00:00:00	2024-11-08T12:00:00	4	Temperatura máxima	25.8
1171	7	Sololá	712	San Antonio Palopó	9	San Antonio Palopo	8	Agosto	2023-08-13T00:00:00	2024-11-08T12:00:00	3	Temperatura mínima	24.4
1172	7	Sololá	712	San Antonio Palopó	9	San Antonio Palopo	8	Agosto	2023-08-13T00:00:00	2024-11-08T12:00:00	5	Humedad	59
1173	7	Sololá	712	San Antonio Palopó	9	San Antonio Palopo	8	Agosto	2023-08-13T00:00:00	2024-11-08T12:00:00	6	Velocidad del viento	8
1174	7	Sololá	712	San Antonio Palopó	9	San Antonio Palopo	8	Agosto	2023-08-13T00:00:00	2024-11-08T12:00:00	7	Dirección del viento	8.05
1175	7	Sololá	712	San Antonio Palopó	9	San Antonio Palopo	8	Agosto	2023-08-13T00:00:00	2024-11-08T12:00:00	1	Precipitación	0
1176	7	Sololá	712	San Antonio Palopó	9	San Antonio Palopo	8	Agosto	2023-08-13T00:00:00	2024-11-08T12:00:00	8	Radiación solar	774
1177	7	Sololá	712	San Antonio Palopó	9	San Antonio Palopo	8	Agosto	2023-08-13T00:00:00	2024-11-08T13:00:00	2	Temperatura media	23.7
1178	7	Sololá	712	San Antonio Palopó	9	San Antonio Palopo	8	Agosto	2023-08-13T00:00:00	2024-11-08T13:00:00	4	Temperatura máxima	25.4
1179	7	Sololá	712	San Antonio Palopó	9	San Antonio Palopo	8	Agosto	2023-08-13T00:00:00	2024-11-08T13:00:00	3	Temperatura mínima	23.6
1180	7	Sololá	712	San Antonio Palopó	9	San Antonio Palopo	8	Agosto	2023-08-13T00:00:00	2024-11-08T13:00:00	5	Humedad	71
1181	7	Sololá	712	San Antonio Palopó	9	San Antonio Palopo	8	Agosto	2023-08-13T00:00:00	2024-11-08T13:00:00	6	Velocidad del viento	11.3
1182	7	Sololá	712	San Antonio Palopó	9	San Antonio Palopo	8	Agosto	2023-08-13T00:00:00	2024-11-08T13:00:00	7	Dirección del viento	11.27
1183	7	Sololá	712	San Antonio Palopó	9	San Antonio Palopo	8	Agosto	2023-08-13T00:00:00	2024-11-08T13:00:00	1	Precipitación	0
1184	7	Sololá	712	San Antonio Palopó	9	San Antonio Palopo	8	Agosto	2023-08-13T00:00:00	2024-11-08T13:00:00	8	Radiación solar	384
1185	7	Sololá	712	San Antonio Palopó	9	San Antonio Palopo	8	Agosto	2023-08-13T00:00:00	2024-11-08T14:00:00	2	Temperatura media	23.4
1186	7	Sololá	712	San Antonio Palopó	9	San Antonio Palopo	8	Agosto	2023-08-13T00:00:00	2024-11-08T14:00:00	4	Temperatura máxima	23.7
1187	7	Sololá	712	San Antonio Palopó	9	San Antonio Palopo	8	Agosto	2023-08-13T00:00:00	2024-11-08T14:00:00	3	Temperatura mínima	22.7
1188	7	Sololá	712	San Antonio Palopó	9	San Antonio Palopo	8	Agosto	2023-08-13T00:00:00	2024-11-08T14:00:00	5	Humedad	72
1189	7	Sololá	712	San Antonio Palopó	9	San Antonio Palopo	8	Agosto	2023-08-13T00:00:00	2024-11-08T14:00:00	6	Velocidad del viento	6.4
1190	7	Sololá	712	San Antonio Palopó	9	San Antonio Palopo	8	Agosto	2023-08-13T00:00:00	2024-11-08T14:00:00	7	Dirección del viento	6.44
1191	7	Sololá	712	San Antonio Palopó	9	San Antonio Palopo	8	Agosto	2023-08-13T00:00:00	2024-11-08T14:00:00	1	Precipitación	0
1192	7	Sololá	712	San Antonio Palopó	9	San Antonio Palopo	8	Agosto	2023-08-13T00:00:00	2024-11-08T14:00:00	8	Radiación solar	211
1193	7	Sololá	712	San Antonio Palopó	9	San Antonio Palopo	8	Agosto	2023-08-13T00:00:00	2024-11-08T15:00:00	2	Temperatura media	22.4
1194	7	Sololá	712	San Antonio Palopó	9	San Antonio Palopo	8	Agosto	2023-08-13T00:00:00	2024-11-08T15:00:00	4	Temperatura máxima	24.8
1195	7	Sololá	712	San Antonio Palopó	9	San Antonio Palopo	8	Agosto	2023-08-13T00:00:00	2024-11-08T15:00:00	3	Temperatura mínima	22.4
1196	7	Sololá	712	San Antonio Palopó	9	San Antonio Palopo	8	Agosto	2023-08-13T00:00:00	2024-11-08T15:00:00	5	Humedad	78
1197	7	Sololá	712	San Antonio Palopó	9	San Antonio Palopo	8	Agosto	2023-08-13T00:00:00	2024-11-08T15:00:00	6	Velocidad del viento	9.7
1198	7	Sololá	712	San Antonio Palopó	9	San Antonio Palopo	8	Agosto	2023-08-13T00:00:00	2024-11-08T15:00:00	7	Dirección del viento	9.66
1199	7	Sololá	712	San Antonio Palopó	9	San Antonio Palopo	8	Agosto	2023-08-13T00:00:00	2024-11-08T15:00:00	1	Precipitación	0
1200	7	Sololá	712	San Antonio Palopó	9	San Antonio Palopo	8	Agosto	2023-08-13T00:00:00	2024-11-08T15:00:00	8	Radiación solar	362
1201	7	Sololá	712	San Antonio Palopó	9	San Antonio Palopo	8	Agosto	2023-08-13T00:00:00	2024-11-08T16:00:00	2	Temperatura media	21.3
1202	7	Sololá	712	San Antonio Palopó	9	San Antonio Palopo	8	Agosto	2023-08-13T00:00:00	2024-11-08T16:00:00	4	Temperatura máxima	22.3
1203	7	Sololá	712	San Antonio Palopó	9	San Antonio Palopo	8	Agosto	2023-08-13T00:00:00	2024-11-08T16:00:00	3	Temperatura mínima	21.3
1204	7	Sololá	712	San Antonio Palopó	9	San Antonio Palopo	8	Agosto	2023-08-13T00:00:00	2024-11-08T16:00:00	5	Humedad	81
1205	7	Sololá	712	San Antonio Palopó	9	San Antonio Palopo	8	Agosto	2023-08-13T00:00:00	2024-11-08T16:00:00	6	Velocidad del viento	9.7
1206	7	Sololá	712	San Antonio Palopó	9	San Antonio Palopo	8	Agosto	2023-08-13T00:00:00	2024-11-08T16:00:00	7	Dirección del viento	9.66
1207	7	Sololá	712	San Antonio Palopó	9	San Antonio Palopo	8	Agosto	2023-08-13T00:00:00	2024-11-08T16:00:00	1	Precipitación	0
1208	7	Sololá	712	San Antonio Palopó	9	San Antonio Palopo	8	Agosto	2023-08-13T00:00:00	2024-11-08T16:00:00	8	Radiación solar	257
1209	7	Sololá	712	San Antonio Palopó	9	San Antonio Palopo	8	Agosto	2023-08-13T00:00:00	2024-11-08T17:00:00	2	Temperatura media	22.9
1210	7	Sololá	712	San Antonio Palopó	9	San Antonio Palopo	8	Agosto	2023-08-13T00:00:00	2024-11-08T17:00:00	4	Temperatura máxima	22.9
1211	7	Sololá	712	San Antonio Palopó	9	San Antonio Palopo	8	Agosto	2023-08-13T00:00:00	2024-11-08T17:00:00	3	Temperatura mínima	20.9
1212	7	Sololá	712	San Antonio Palopó	9	San Antonio Palopo	8	Agosto	2023-08-13T00:00:00	2024-11-08T17:00:00	5	Humedad	76
1213	7	Sololá	712	San Antonio Palopó	9	San Antonio Palopo	8	Agosto	2023-08-13T00:00:00	2024-11-08T17:00:00	6	Velocidad del viento	4.8
1214	7	Sololá	712	San Antonio Palopó	9	San Antonio Palopo	8	Agosto	2023-08-13T00:00:00	2024-11-08T17:00:00	7	Dirección del viento	4.83
1215	7	Sololá	712	San Antonio Palopó	9	San Antonio Palopo	8	Agosto	2023-08-13T00:00:00	2024-11-08T17:00:00	1	Precipitación	0
1216	7	Sololá	712	San Antonio Palopó	9	San Antonio Palopo	8	Agosto	2023-08-13T00:00:00	2024-11-08T17:00:00	8	Radiación solar	272
1217	7	Sololá	712	San Antonio Palopó	9	San Antonio Palopo	8	Agosto	2023-08-13T00:00:00	2024-11-08T18:00:00	2	Temperatura media	21
1218	7	Sololá	712	San Antonio Palopó	9	San Antonio Palopo	8	Agosto	2023-08-13T00:00:00	2024-11-08T18:00:00	4	Temperatura máxima	23.2
1219	7	Sololá	712	San Antonio Palopó	9	San Antonio Palopo	8	Agosto	2023-08-13T00:00:00	2024-11-08T18:00:00	3	Temperatura mínima	20.9
1220	7	Sololá	712	San Antonio Palopó	9	San Antonio Palopo	8	Agosto	2023-08-13T00:00:00	2024-11-08T18:00:00	5	Humedad	80
1221	7	Sololá	712	San Antonio Palopó	9	San Antonio Palopo	8	Agosto	2023-08-13T00:00:00	2024-11-08T18:00:00	6	Velocidad del viento	4.8
1222	7	Sololá	712	San Antonio Palopó	9	San Antonio Palopo	8	Agosto	2023-08-13T00:00:00	2024-11-08T18:00:00	7	Dirección del viento	4.83
1223	7	Sololá	712	San Antonio Palopó	9	San Antonio Palopo	8	Agosto	2023-08-13T00:00:00	2024-11-08T18:00:00	1	Precipitación	0
1224	7	Sololá	712	San Antonio Palopó	9	San Antonio Palopo	8	Agosto	2023-08-13T00:00:00	2024-11-08T18:00:00	8	Radiación solar	101
1225	7	Sololá	712	San Antonio Palopó	9	San Antonio Palopo	8	Agosto	2023-08-13T00:00:00	2024-11-08T19:00:00	2	Temperatura media	19.6
1226	7	Sololá	712	San Antonio Palopó	9	San Antonio Palopo	8	Agosto	2023-08-13T00:00:00	2024-11-08T19:00:00	4	Temperatura máxima	21.1
1227	7	Sololá	712	San Antonio Palopó	9	San Antonio Palopo	8	Agosto	2023-08-13T00:00:00	2024-11-08T19:00:00	3	Temperatura mínima	19.3
1228	7	Sololá	712	San Antonio Palopó	9	San Antonio Palopo	8	Agosto	2023-08-13T00:00:00	2024-11-08T19:00:00	5	Humedad	75
1229	7	Sololá	712	San Antonio Palopó	9	San Antonio Palopo	8	Agosto	2023-08-13T00:00:00	2024-11-08T19:00:00	6	Velocidad del viento	6.4
1230	7	Sololá	712	San Antonio Palopó	9	San Antonio Palopo	8	Agosto	2023-08-13T00:00:00	2024-11-08T19:00:00	7	Dirección del viento	6.44
1231	7	Sololá	712	San Antonio Palopó	9	San Antonio Palopo	8	Agosto	2023-08-13T00:00:00	2024-11-08T19:00:00	1	Precipitación	4.6
1232	7	Sololá	712	San Antonio Palopó	9	San Antonio Palopo	8	Agosto	2023-08-13T00:00:00	2024-11-08T19:00:00	8	Radiación solar	0
1233	7	Sololá	712	San Antonio Palopó	9	San Antonio Palopo	8	Agosto	2023-08-13T00:00:00	2024-11-08T20:00:00	2	Temperatura media	19.8
1234	7	Sololá	712	San Antonio Palopó	9	San Antonio Palopo	8	Agosto	2023-08-13T00:00:00	2024-11-08T20:00:00	4	Temperatura máxima	20
1235	7	Sololá	712	San Antonio Palopó	9	San Antonio Palopo	8	Agosto	2023-08-13T00:00:00	2024-11-08T20:00:00	3	Temperatura mínima	18.3
1236	7	Sololá	712	San Antonio Palopó	9	San Antonio Palopo	8	Agosto	2023-08-13T00:00:00	2024-11-08T20:00:00	5	Humedad	77
1237	7	Sololá	712	San Antonio Palopó	9	San Antonio Palopo	8	Agosto	2023-08-13T00:00:00	2024-11-08T20:00:00	6	Velocidad del viento	4.8
1238	7	Sololá	712	San Antonio Palopó	9	San Antonio Palopo	8	Agosto	2023-08-13T00:00:00	2024-11-08T20:00:00	7	Dirección del viento	4.83
1239	7	Sololá	712	San Antonio Palopó	9	San Antonio Palopo	8	Agosto	2023-08-13T00:00:00	2024-11-08T20:00:00	1	Precipitación	0
1240	7	Sololá	712	San Antonio Palopó	9	San Antonio Palopo	8	Agosto	2023-08-13T00:00:00	2024-11-08T20:00:00	8	Radiación solar	0
1241	7	Sololá	712	San Antonio Palopó	9	San Antonio Palopo	8	Agosto	2023-08-13T00:00:00	2024-11-08T21:00:00	2	Temperatura media	20.3
1242	7	Sololá	712	San Antonio Palopó	9	San Antonio Palopo	8	Agosto	2023-08-13T00:00:00	2024-11-08T21:00:00	4	Temperatura máxima	20.3
1243	7	Sololá	712	San Antonio Palopó	9	San Antonio Palopo	8	Agosto	2023-08-13T00:00:00	2024-11-08T21:00:00	3	Temperatura mínima	19.1
1244	7	Sololá	712	San Antonio Palopó	9	San Antonio Palopo	8	Agosto	2023-08-13T00:00:00	2024-11-08T21:00:00	5	Humedad	75
1245	7	Sololá	712	San Antonio Palopó	9	San Antonio Palopo	8	Agosto	2023-08-13T00:00:00	2024-11-08T21:00:00	6	Velocidad del viento	8
1246	7	Sololá	712	San Antonio Palopó	9	San Antonio Palopo	8	Agosto	2023-08-13T00:00:00	2024-11-08T21:00:00	7	Dirección del viento	8.05
1247	7	Sololá	712	San Antonio Palopó	9	San Antonio Palopo	8	Agosto	2023-08-13T00:00:00	2024-11-08T21:00:00	1	Precipitación	0
1248	7	Sololá	712	San Antonio Palopó	9	San Antonio Palopo	8	Agosto	2023-08-13T00:00:00	2024-11-08T21:00:00	8	Radiación solar	0
1249	7	Sololá	712	San Antonio Palopó	9	San Antonio Palopo	8	Agosto	2023-08-13T00:00:00	2024-11-08T22:00:00	2	Temperatura media	19.1
1250	7	Sololá	712	San Antonio Palopó	9	San Antonio Palopo	8	Agosto	2023-08-13T00:00:00	2024-11-08T22:00:00	4	Temperatura máxima	20.6
1251	7	Sololá	712	San Antonio Palopó	9	San Antonio Palopo	8	Agosto	2023-08-13T00:00:00	2024-11-08T22:00:00	3	Temperatura mínima	18.9
1252	7	Sololá	712	San Antonio Palopó	9	San Antonio Palopo	8	Agosto	2023-08-13T00:00:00	2024-11-08T22:00:00	5	Humedad	82
1253	7	Sololá	712	San Antonio Palopó	9	San Antonio Palopo	8	Agosto	2023-08-13T00:00:00	2024-11-08T22:00:00	6	Velocidad del viento	4.8
1254	7	Sololá	712	San Antonio Palopó	9	San Antonio Palopo	8	Agosto	2023-08-13T00:00:00	2024-11-08T22:00:00	7	Dirección del viento	4.83
1255	7	Sololá	712	San Antonio Palopó	9	San Antonio Palopo	8	Agosto	2023-08-13T00:00:00	2024-11-08T22:00:00	1	Precipitación	0
1256	7	Sololá	712	San Antonio Palopó	9	San Antonio Palopo	8	Agosto	2023-08-13T00:00:00	2024-11-08T22:00:00	8	Radiación solar	0
1257	7	Sololá	712	San Antonio Palopó	9	San Antonio Palopo	8	Agosto	2023-08-13T00:00:00	2024-11-08T23:00:00	2	Temperatura media	19.8
1258	7	Sololá	712	San Antonio Palopó	9	San Antonio Palopo	8	Agosto	2023-08-13T00:00:00	2024-11-08T23:00:00	4	Temperatura máxima	19.8
1259	7	Sololá	712	San Antonio Palopó	9	San Antonio Palopo	8	Agosto	2023-08-13T00:00:00	2024-11-08T23:00:00	3	Temperatura mínima	18.8
1260	7	Sololá	712	San Antonio Palopó	9	San Antonio Palopo	8	Agosto	2023-08-13T00:00:00	2024-11-08T23:00:00	5	Humedad	77
1261	7	Sololá	712	San Antonio Palopó	9	San Antonio Palopo	8	Agosto	2023-08-13T00:00:00	2024-11-08T23:00:00	6	Velocidad del viento	3.2
1262	7	Sololá	712	San Antonio Palopó	9	San Antonio Palopo	8	Agosto	2023-08-13T00:00:00	2024-11-08T23:00:00	7	Dirección del viento	3.22
1263	7	Sololá	712	San Antonio Palopó	9	San Antonio Palopo	8	Agosto	2023-08-13T00:00:00	2024-11-08T23:00:00	1	Precipitación	0
1264	7	Sololá	712	San Antonio Palopó	9	San Antonio Palopo	8	Agosto	2023-08-13T00:00:00	2024-11-08T23:00:00	8	Radiación solar	0
1265	7	Sololá	712	San Antonio Palopó	9	San Antonio Palopo	8	Agosto	2023-08-14T00:00:00	2024-11-08T00:00:00	2	Temperatura media	18.6
1266	7	Sololá	712	San Antonio Palopó	9	San Antonio Palopo	8	Agosto	2023-08-14T00:00:00	2024-11-08T00:00:00	4	Temperatura máxima	20.1
1267	7	Sololá	712	San Antonio Palopó	9	San Antonio Palopo	8	Agosto	2023-08-14T00:00:00	2024-11-08T00:00:00	3	Temperatura mínima	18.6
1268	7	Sololá	712	San Antonio Palopó	9	San Antonio Palopo	8	Agosto	2023-08-14T00:00:00	2024-11-08T00:00:00	5	Humedad	82
1269	7	Sololá	712	San Antonio Palopó	9	San Antonio Palopo	8	Agosto	2023-08-14T00:00:00	2024-11-08T00:00:00	6	Velocidad del viento	3.2
1270	7	Sololá	712	San Antonio Palopó	9	San Antonio Palopo	8	Agosto	2023-08-14T00:00:00	2024-11-08T00:00:00	7	Dirección del viento	3.22
1271	7	Sololá	712	San Antonio Palopó	9	San Antonio Palopo	8	Agosto	2023-08-14T00:00:00	2024-11-08T00:00:00	1	Precipitación	0
1272	7	Sololá	712	San Antonio Palopó	9	San Antonio Palopo	8	Agosto	2023-08-14T00:00:00	2024-11-08T00:00:00	8	Radiación solar	0
1273	7	Sololá	712	San Antonio Palopó	9	San Antonio Palopo	8	Agosto	2023-08-14T00:00:00	2024-11-08T01:00:00	2	Temperatura media	19.8
1274	7	Sololá	712	San Antonio Palopó	9	San Antonio Palopo	8	Agosto	2023-08-14T00:00:00	2024-11-08T01:00:00	4	Temperatura máxima	20.1
1275	7	Sololá	712	San Antonio Palopó	9	San Antonio Palopo	8	Agosto	2023-08-14T00:00:00	2024-11-08T01:00:00	3	Temperatura mínima	18.6
1276	7	Sololá	712	San Antonio Palopó	9	San Antonio Palopo	8	Agosto	2023-08-14T00:00:00	2024-11-08T01:00:00	5	Humedad	76
1277	7	Sololá	712	San Antonio Palopó	9	San Antonio Palopo	8	Agosto	2023-08-14T00:00:00	2024-11-08T01:00:00	6	Velocidad del viento	3.2
1278	7	Sololá	712	San Antonio Palopó	9	San Antonio Palopo	8	Agosto	2023-08-14T00:00:00	2024-11-08T01:00:00	7	Dirección del viento	3.22
1279	7	Sololá	712	San Antonio Palopó	9	San Antonio Palopo	8	Agosto	2023-08-14T00:00:00	2024-11-08T01:00:00	1	Precipitación	0
1280	7	Sololá	712	San Antonio Palopó	9	San Antonio Palopo	8	Agosto	2023-08-14T00:00:00	2024-11-08T01:00:00	8	Radiación solar	0
1281	7	Sololá	712	San Antonio Palopó	9	San Antonio Palopo	8	Agosto	2023-08-14T00:00:00	2024-11-08T02:00:00	2	Temperatura media	20.1
1282	7	Sololá	712	San Antonio Palopó	9	San Antonio Palopo	8	Agosto	2023-08-14T00:00:00	2024-11-08T02:00:00	4	Temperatura máxima	20.3
1283	7	Sololá	712	San Antonio Palopó	9	San Antonio Palopo	8	Agosto	2023-08-14T00:00:00	2024-11-08T02:00:00	3	Temperatura mínima	19.8
1284	7	Sololá	712	San Antonio Palopó	9	San Antonio Palopo	8	Agosto	2023-08-14T00:00:00	2024-11-08T02:00:00	5	Humedad	73
1285	7	Sololá	712	San Antonio Palopó	9	San Antonio Palopo	8	Agosto	2023-08-14T00:00:00	2024-11-08T02:00:00	6	Velocidad del viento	8
1286	7	Sololá	712	San Antonio Palopó	9	San Antonio Palopo	8	Agosto	2023-08-14T00:00:00	2024-11-08T02:00:00	7	Dirección del viento	8.05
1287	7	Sololá	712	San Antonio Palopó	9	San Antonio Palopo	8	Agosto	2023-08-14T00:00:00	2024-11-08T02:00:00	1	Precipitación	0
1288	7	Sololá	712	San Antonio Palopó	9	San Antonio Palopo	8	Agosto	2023-08-14T00:00:00	2024-11-08T02:00:00	8	Radiación solar	0
1289	7	Sololá	712	San Antonio Palopó	9	San Antonio Palopo	8	Agosto	2023-08-14T00:00:00	2024-11-08T03:00:00	2	Temperatura media	19.7
1290	7	Sololá	712	San Antonio Palopó	9	San Antonio Palopo	8	Agosto	2023-08-14T00:00:00	2024-11-08T03:00:00	4	Temperatura máxima	20.1
1291	7	Sololá	712	San Antonio Palopó	9	San Antonio Palopo	8	Agosto	2023-08-14T00:00:00	2024-11-08T03:00:00	3	Temperatura mínima	19.7
1292	7	Sololá	712	San Antonio Palopó	9	San Antonio Palopo	8	Agosto	2023-08-14T00:00:00	2024-11-08T03:00:00	5	Humedad	73
1293	7	Sololá	712	San Antonio Palopó	9	San Antonio Palopo	8	Agosto	2023-08-14T00:00:00	2024-11-08T03:00:00	6	Velocidad del viento	4.8
1294	7	Sololá	712	San Antonio Palopó	9	San Antonio Palopo	8	Agosto	2023-08-14T00:00:00	2024-11-08T03:00:00	7	Dirección del viento	4.83
1295	7	Sololá	712	San Antonio Palopó	9	San Antonio Palopo	8	Agosto	2023-08-14T00:00:00	2024-11-08T03:00:00	1	Precipitación	0
1296	7	Sololá	712	San Antonio Palopó	9	San Antonio Palopo	8	Agosto	2023-08-14T00:00:00	2024-11-08T03:00:00	8	Radiación solar	0
1297	7	Sololá	712	San Antonio Palopó	9	San Antonio Palopo	8	Agosto	2023-08-14T00:00:00	2024-11-08T04:00:00	2	Temperatura media	19.8
1298	7	Sololá	712	San Antonio Palopó	9	San Antonio Palopo	8	Agosto	2023-08-14T00:00:00	2024-11-08T04:00:00	4	Temperatura máxima	19.8
1299	7	Sololá	712	San Antonio Palopó	9	San Antonio Palopo	8	Agosto	2023-08-14T00:00:00	2024-11-08T04:00:00	3	Temperatura mínima	19.4
1300	7	Sololá	712	San Antonio Palopó	9	San Antonio Palopo	8	Agosto	2023-08-14T00:00:00	2024-11-08T04:00:00	5	Humedad	71
1301	7	Sololá	712	San Antonio Palopó	9	San Antonio Palopo	8	Agosto	2023-08-14T00:00:00	2024-11-08T04:00:00	6	Velocidad del viento	6.4
1302	7	Sololá	712	San Antonio Palopó	9	San Antonio Palopo	8	Agosto	2023-08-14T00:00:00	2024-11-08T04:00:00	7	Dirección del viento	6.44
1303	7	Sololá	712	San Antonio Palopó	9	San Antonio Palopo	8	Agosto	2023-08-14T00:00:00	2024-11-08T04:00:00	1	Precipitación	0
1304	7	Sololá	712	San Antonio Palopó	9	San Antonio Palopo	8	Agosto	2023-08-14T00:00:00	2024-11-08T04:00:00	8	Radiación solar	0
1305	7	Sololá	712	San Antonio Palopó	9	San Antonio Palopo	8	Agosto	2023-08-14T00:00:00	2024-11-08T05:00:00	2	Temperatura media	18.6
1306	7	Sololá	712	San Antonio Palopó	9	San Antonio Palopo	8	Agosto	2023-08-14T00:00:00	2024-11-08T05:00:00	4	Temperatura máxima	19.8
1307	7	Sololá	712	San Antonio Palopó	9	San Antonio Palopo	8	Agosto	2023-08-14T00:00:00	2024-11-08T05:00:00	3	Temperatura mínima	18.4
1308	7	Sololá	712	San Antonio Palopó	9	San Antonio Palopo	8	Agosto	2023-08-14T00:00:00	2024-11-08T05:00:00	5	Humedad	74
1309	7	Sololá	712	San Antonio Palopó	9	San Antonio Palopo	8	Agosto	2023-08-14T00:00:00	2024-11-08T05:00:00	6	Velocidad del viento	3.2
1310	7	Sololá	712	San Antonio Palopó	9	San Antonio Palopo	8	Agosto	2023-08-14T00:00:00	2024-11-08T05:00:00	7	Dirección del viento	3.22
1311	7	Sololá	712	San Antonio Palopó	9	San Antonio Palopo	8	Agosto	2023-08-14T00:00:00	2024-11-08T05:00:00	1	Precipitación	0
1312	7	Sololá	712	San Antonio Palopó	9	San Antonio Palopo	8	Agosto	2023-08-14T00:00:00	2024-11-08T05:00:00	8	Radiación solar	0
1313	7	Sololá	712	San Antonio Palopó	9	San Antonio Palopo	8	Agosto	2023-08-14T00:00:00	2024-11-08T06:00:00	2	Temperatura media	19.6
1314	7	Sololá	712	San Antonio Palopó	9	San Antonio Palopo	8	Agosto	2023-08-14T00:00:00	2024-11-08T06:00:00	4	Temperatura máxima	19.6
1315	7	Sololá	712	San Antonio Palopó	9	San Antonio Palopo	8	Agosto	2023-08-14T00:00:00	2024-11-08T06:00:00	3	Temperatura mínima	18.6
1316	7	Sololá	712	San Antonio Palopó	9	San Antonio Palopo	8	Agosto	2023-08-14T00:00:00	2024-11-08T06:00:00	5	Humedad	70
1317	7	Sololá	712	San Antonio Palopó	9	San Antonio Palopo	8	Agosto	2023-08-14T00:00:00	2024-11-08T06:00:00	6	Velocidad del viento	4.8
1318	7	Sololá	712	San Antonio Palopó	9	San Antonio Palopo	8	Agosto	2023-08-14T00:00:00	2024-11-08T06:00:00	7	Dirección del viento	4.83
1319	7	Sololá	712	San Antonio Palopó	9	San Antonio Palopo	8	Agosto	2023-08-14T00:00:00	2024-11-08T06:00:00	1	Precipitación	0
1320	7	Sololá	712	San Antonio Palopó	9	San Antonio Palopo	8	Agosto	2023-08-14T00:00:00	2024-11-08T06:00:00	8	Radiación solar	0
1321	7	Sololá	712	San Antonio Palopó	9	San Antonio Palopo	8	Agosto	2023-08-14T00:00:00	2024-11-08T07:00:00	2	Temperatura media	19.8
1322	7	Sololá	712	San Antonio Palopó	9	San Antonio Palopo	8	Agosto	2023-08-14T00:00:00	2024-11-08T07:00:00	4	Temperatura máxima	19.9
1323	7	Sololá	712	San Antonio Palopó	9	San Antonio Palopo	8	Agosto	2023-08-14T00:00:00	2024-11-08T07:00:00	3	Temperatura mínima	19.1
1324	7	Sololá	712	San Antonio Palopó	9	San Antonio Palopo	8	Agosto	2023-08-14T00:00:00	2024-11-08T07:00:00	5	Humedad	72
1325	7	Sololá	712	San Antonio Palopó	9	San Antonio Palopo	8	Agosto	2023-08-14T00:00:00	2024-11-08T07:00:00	6	Velocidad del viento	4.8
1326	7	Sololá	712	San Antonio Palopó	9	San Antonio Palopo	8	Agosto	2023-08-14T00:00:00	2024-11-08T07:00:00	7	Dirección del viento	4.83
1327	7	Sololá	712	San Antonio Palopó	9	San Antonio Palopo	8	Agosto	2023-08-14T00:00:00	2024-11-08T07:00:00	1	Precipitación	0
1328	7	Sololá	712	San Antonio Palopó	9	San Antonio Palopo	8	Agosto	2023-08-14T00:00:00	2024-11-08T07:00:00	8	Radiación solar	41
1329	7	Sololá	712	San Antonio Palopó	9	San Antonio Palopo	8	Agosto	2023-08-14T00:00:00	2024-11-08T08:00:00	2	Temperatura media	21.2
1330	7	Sololá	712	San Antonio Palopó	9	San Antonio Palopo	8	Agosto	2023-08-14T00:00:00	2024-11-08T08:00:00	4	Temperatura máxima	21.2
1331	7	Sololá	712	San Antonio Palopó	9	San Antonio Palopo	8	Agosto	2023-08-14T00:00:00	2024-11-08T08:00:00	3	Temperatura mínima	19.6
1332	7	Sololá	712	San Antonio Palopó	9	San Antonio Palopo	8	Agosto	2023-08-14T00:00:00	2024-11-08T08:00:00	5	Humedad	69
1333	7	Sololá	712	San Antonio Palopó	9	San Antonio Palopo	8	Agosto	2023-08-14T00:00:00	2024-11-08T08:00:00	6	Velocidad del viento	3.2
1334	7	Sololá	712	San Antonio Palopó	9	San Antonio Palopo	8	Agosto	2023-08-14T00:00:00	2024-11-08T08:00:00	7	Dirección del viento	3.22
1335	7	Sololá	712	San Antonio Palopó	9	San Antonio Palopo	8	Agosto	2023-08-14T00:00:00	2024-11-08T08:00:00	1	Precipitación	0
1336	7	Sololá	712	San Antonio Palopó	9	San Antonio Palopo	8	Agosto	2023-08-14T00:00:00	2024-11-08T08:00:00	8	Radiación solar	186
1337	7	Sololá	712	San Antonio Palopó	9	San Antonio Palopo	8	Agosto	2023-08-14T00:00:00	2024-11-08T09:00:00	2	Temperatura media	23.1
1338	7	Sololá	712	San Antonio Palopó	9	San Antonio Palopo	8	Agosto	2023-08-14T00:00:00	2024-11-08T09:00:00	4	Temperatura máxima	23.1
1339	7	Sololá	712	San Antonio Palopó	9	San Antonio Palopo	8	Agosto	2023-08-14T00:00:00	2024-11-08T09:00:00	3	Temperatura mínima	21.2
1340	7	Sololá	712	San Antonio Palopó	9	San Antonio Palopo	8	Agosto	2023-08-14T00:00:00	2024-11-08T09:00:00	5	Humedad	59
1341	7	Sololá	712	San Antonio Palopó	9	San Antonio Palopo	8	Agosto	2023-08-14T00:00:00	2024-11-08T09:00:00	6	Velocidad del viento	9.7
1342	7	Sololá	712	San Antonio Palopó	9	San Antonio Palopo	8	Agosto	2023-08-14T00:00:00	2024-11-08T09:00:00	7	Dirección del viento	9.66
1343	7	Sololá	712	San Antonio Palopó	9	San Antonio Palopo	8	Agosto	2023-08-14T00:00:00	2024-11-08T09:00:00	1	Precipitación	0
1344	7	Sololá	712	San Antonio Palopó	9	San Antonio Palopo	8	Agosto	2023-08-14T00:00:00	2024-11-08T09:00:00	8	Radiación solar	551
1345	7	Sololá	712	San Antonio Palopó	9	San Antonio Palopo	8	Agosto	2023-08-14T00:00:00	2024-11-08T10:00:00	2	Temperatura media	23.8
1346	7	Sololá	712	San Antonio Palopó	9	San Antonio Palopo	8	Agosto	2023-08-14T00:00:00	2024-11-08T10:00:00	4	Temperatura máxima	23.8
1347	7	Sololá	712	San Antonio Palopó	9	San Antonio Palopo	8	Agosto	2023-08-14T00:00:00	2024-11-08T10:00:00	3	Temperatura mínima	22.9
1348	7	Sololá	712	San Antonio Palopó	9	San Antonio Palopo	8	Agosto	2023-08-14T00:00:00	2024-11-08T10:00:00	5	Humedad	54
1349	7	Sololá	712	San Antonio Palopó	9	San Antonio Palopo	8	Agosto	2023-08-14T00:00:00	2024-11-08T10:00:00	6	Velocidad del viento	9.7
1350	7	Sololá	712	San Antonio Palopó	9	San Antonio Palopo	8	Agosto	2023-08-14T00:00:00	2024-11-08T10:00:00	7	Dirección del viento	9.66
1351	7	Sololá	712	San Antonio Palopó	9	San Antonio Palopo	8	Agosto	2023-08-14T00:00:00	2024-11-08T10:00:00	1	Precipitación	0
1352	7	Sololá	712	San Antonio Palopó	9	San Antonio Palopo	8	Agosto	2023-08-14T00:00:00	2024-11-08T10:00:00	8	Radiación solar	743
1353	7	Sololá	712	San Antonio Palopó	9	San Antonio Palopo	8	Agosto	2023-08-14T00:00:00	2024-11-08T11:00:00	2	Temperatura media	24.6
1354	7	Sololá	712	San Antonio Palopó	9	San Antonio Palopo	8	Agosto	2023-08-14T00:00:00	2024-11-08T11:00:00	4	Temperatura máxima	24.7
1355	7	Sololá	712	San Antonio Palopó	9	San Antonio Palopo	8	Agosto	2023-08-14T00:00:00	2024-11-08T11:00:00	3	Temperatura mínima	23.7
1356	7	Sololá	712	San Antonio Palopó	9	San Antonio Palopo	8	Agosto	2023-08-14T00:00:00	2024-11-08T11:00:00	5	Humedad	51
1357	7	Sololá	712	San Antonio Palopó	9	San Antonio Palopo	8	Agosto	2023-08-14T00:00:00	2024-11-08T11:00:00	6	Velocidad del viento	9.7
1358	7	Sololá	712	San Antonio Palopó	9	San Antonio Palopo	8	Agosto	2023-08-14T00:00:00	2024-11-08T11:00:00	7	Dirección del viento	9.66
1359	7	Sololá	712	San Antonio Palopó	9	San Antonio Palopo	8	Agosto	2023-08-14T00:00:00	2024-11-08T11:00:00	1	Precipitación	0
1360	7	Sololá	712	San Antonio Palopó	9	San Antonio Palopo	8	Agosto	2023-08-14T00:00:00	2024-11-08T11:00:00	8	Radiación solar	890
1361	7	Sololá	712	San Antonio Palopó	9	San Antonio Palopo	8	Agosto	2023-08-14T00:00:00	2024-11-08T12:00:00	2	Temperatura media	25.3
1362	7	Sololá	712	San Antonio Palopó	9	San Antonio Palopo	8	Agosto	2023-08-14T00:00:00	2024-11-08T12:00:00	4	Temperatura máxima	25.7
1363	7	Sololá	712	San Antonio Palopó	9	San Antonio Palopo	8	Agosto	2023-08-14T00:00:00	2024-11-08T12:00:00	3	Temperatura mínima	24.4
1364	7	Sololá	712	San Antonio Palopó	9	San Antonio Palopo	8	Agosto	2023-08-14T00:00:00	2024-11-08T12:00:00	5	Humedad	49
1365	7	Sololá	712	San Antonio Palopó	9	San Antonio Palopo	8	Agosto	2023-08-14T00:00:00	2024-11-08T12:00:00	6	Velocidad del viento	9.7
1366	7	Sololá	712	San Antonio Palopó	9	San Antonio Palopo	8	Agosto	2023-08-14T00:00:00	2024-11-08T12:00:00	7	Dirección del viento	9.66
1367	7	Sololá	712	San Antonio Palopó	9	San Antonio Palopo	8	Agosto	2023-08-14T00:00:00	2024-11-08T12:00:00	1	Precipitación	0
1368	7	Sololá	712	San Antonio Palopó	9	San Antonio Palopo	8	Agosto	2023-08-14T00:00:00	2024-11-08T12:00:00	8	Radiación solar	972
1369	7	Sololá	712	San Antonio Palopó	9	San Antonio Palopo	8	Agosto	2023-08-14T00:00:00	2024-11-08T13:00:00	2	Temperatura media	25.4
1370	7	Sololá	712	San Antonio Palopó	9	San Antonio Palopo	8	Agosto	2023-08-14T00:00:00	2024-11-08T13:00:00	4	Temperatura máxima	25.7
1371	7	Sololá	712	San Antonio Palopó	9	San Antonio Palopo	8	Agosto	2023-08-14T00:00:00	2024-11-08T13:00:00	3	Temperatura mínima	24.6
1372	7	Sololá	712	San Antonio Palopó	9	San Antonio Palopo	8	Agosto	2023-08-14T00:00:00	2024-11-08T13:00:00	5	Humedad	49
1373	7	Sololá	712	San Antonio Palopó	9	San Antonio Palopo	8	Agosto	2023-08-14T00:00:00	2024-11-08T13:00:00	6	Velocidad del viento	9.7
1374	7	Sololá	712	San Antonio Palopó	9	San Antonio Palopo	8	Agosto	2023-08-14T00:00:00	2024-11-08T13:00:00	7	Dirección del viento	9.66
1375	7	Sololá	712	San Antonio Palopó	9	San Antonio Palopo	8	Agosto	2023-08-14T00:00:00	2024-11-08T13:00:00	1	Precipitación	0
1376	7	Sololá	712	San Antonio Palopó	9	San Antonio Palopo	8	Agosto	2023-08-14T00:00:00	2024-11-08T13:00:00	8	Radiación solar	829
1377	7	Sololá	712	San Antonio Palopó	9	San Antonio Palopo	8	Agosto	2023-08-14T00:00:00	2024-11-08T14:00:00	2	Temperatura media	26.4
1378	7	Sololá	712	San Antonio Palopó	9	San Antonio Palopo	8	Agosto	2023-08-14T00:00:00	2024-11-08T14:00:00	4	Temperatura máxima	26.7
1379	7	Sololá	712	San Antonio Palopó	9	San Antonio Palopo	8	Agosto	2023-08-14T00:00:00	2024-11-08T14:00:00	3	Temperatura mínima	25.4
1380	7	Sololá	712	San Antonio Palopó	9	San Antonio Palopo	8	Agosto	2023-08-14T00:00:00	2024-11-08T14:00:00	5	Humedad	50
1381	7	Sololá	712	San Antonio Palopó	9	San Antonio Palopo	8	Agosto	2023-08-14T00:00:00	2024-11-08T14:00:00	6	Velocidad del viento	9.7
1382	7	Sololá	712	San Antonio Palopó	9	San Antonio Palopo	8	Agosto	2023-08-14T00:00:00	2024-11-08T14:00:00	7	Dirección del viento	9.66
1383	7	Sololá	712	San Antonio Palopó	9	San Antonio Palopo	8	Agosto	2023-08-14T00:00:00	2024-11-08T14:00:00	1	Precipitación	0
1384	7	Sololá	712	San Antonio Palopó	9	San Antonio Palopo	8	Agosto	2023-08-14T00:00:00	2024-11-08T14:00:00	8	Radiación solar	959
1385	7	Sololá	712	San Antonio Palopó	9	San Antonio Palopo	8	Agosto	2023-08-14T00:00:00	2024-11-08T15:00:00	2	Temperatura media	26
1386	7	Sololá	712	San Antonio Palopó	9	San Antonio Palopo	8	Agosto	2023-08-14T00:00:00	2024-11-08T15:00:00	4	Temperatura máxima	27.4
1387	7	Sololá	712	San Antonio Palopó	9	San Antonio Palopo	8	Agosto	2023-08-14T00:00:00	2024-11-08T15:00:00	3	Temperatura mínima	25.9
1388	7	Sololá	712	San Antonio Palopó	9	San Antonio Palopo	8	Agosto	2023-08-14T00:00:00	2024-11-08T15:00:00	5	Humedad	51
1389	7	Sololá	712	San Antonio Palopó	9	San Antonio Palopo	8	Agosto	2023-08-14T00:00:00	2024-11-08T15:00:00	6	Velocidad del viento	12.9
1390	7	Sololá	712	San Antonio Palopó	9	San Antonio Palopo	8	Agosto	2023-08-14T00:00:00	2024-11-08T15:00:00	7	Dirección del viento	12.87
1391	7	Sololá	712	San Antonio Palopó	9	San Antonio Palopo	8	Agosto	2023-08-14T00:00:00	2024-11-08T15:00:00	1	Precipitación	0
1392	7	Sololá	712	San Antonio Palopó	9	San Antonio Palopo	8	Agosto	2023-08-14T00:00:00	2024-11-08T15:00:00	8	Radiación solar	848
1393	7	Sololá	712	San Antonio Palopó	9	San Antonio Palopo	8	Agosto	2023-08-14T00:00:00	2024-11-08T16:00:00	2	Temperatura media	23.6
1394	7	Sololá	712	San Antonio Palopó	9	San Antonio Palopo	8	Agosto	2023-08-14T00:00:00	2024-11-08T16:00:00	4	Temperatura máxima	26.4
1395	7	Sololá	712	San Antonio Palopó	9	San Antonio Palopo	8	Agosto	2023-08-14T00:00:00	2024-11-08T16:00:00	3	Temperatura mínima	23.1
1396	7	Sololá	712	San Antonio Palopó	9	San Antonio Palopo	8	Agosto	2023-08-14T00:00:00	2024-11-08T16:00:00	5	Humedad	75
1397	7	Sololá	712	San Antonio Palopó	9	San Antonio Palopo	8	Agosto	2023-08-14T00:00:00	2024-11-08T16:00:00	6	Velocidad del viento	14.5
1398	7	Sololá	712	San Antonio Palopó	9	San Antonio Palopo	8	Agosto	2023-08-14T00:00:00	2024-11-08T16:00:00	7	Dirección del viento	14.48
1399	7	Sololá	712	San Antonio Palopó	9	San Antonio Palopo	8	Agosto	2023-08-14T00:00:00	2024-11-08T16:00:00	1	Precipitación	0
1400	7	Sololá	712	San Antonio Palopó	9	San Antonio Palopo	8	Agosto	2023-08-14T00:00:00	2024-11-08T16:00:00	8	Radiación solar	628
1401	7	Sololá	712	San Antonio Palopó	9	San Antonio Palopo	8	Agosto	2023-08-14T00:00:00	2024-11-08T17:00:00	2	Temperatura media	25.3
1402	7	Sololá	712	San Antonio Palopó	9	San Antonio Palopo	8	Agosto	2023-08-14T00:00:00	2024-11-08T17:00:00	4	Temperatura máxima	25.6
1403	7	Sololá	712	San Antonio Palopó	9	San Antonio Palopo	8	Agosto	2023-08-14T00:00:00	2024-11-08T17:00:00	3	Temperatura mínima	23.6
1404	7	Sololá	712	San Antonio Palopó	9	San Antonio Palopo	8	Agosto	2023-08-14T00:00:00	2024-11-08T17:00:00	5	Humedad	55
1405	7	Sololá	712	San Antonio Palopó	9	San Antonio Palopo	8	Agosto	2023-08-14T00:00:00	2024-11-08T17:00:00	6	Velocidad del viento	9.7
1406	7	Sololá	712	San Antonio Palopó	9	San Antonio Palopo	8	Agosto	2023-08-14T00:00:00	2024-11-08T17:00:00	7	Dirección del viento	9.66
1407	7	Sololá	712	San Antonio Palopó	9	San Antonio Palopo	8	Agosto	2023-08-14T00:00:00	2024-11-08T17:00:00	1	Precipitación	0
1408	7	Sololá	712	San Antonio Palopó	9	San Antonio Palopo	8	Agosto	2023-08-14T00:00:00	2024-11-08T17:00:00	8	Radiación solar	295
1409	7	Sololá	712	San Antonio Palopó	9	San Antonio Palopo	8	Agosto	2023-08-14T00:00:00	2024-11-08T18:00:00	2	Temperatura media	24.3
1410	7	Sololá	712	San Antonio Palopó	9	San Antonio Palopo	8	Agosto	2023-08-14T00:00:00	2024-11-08T18:00:00	4	Temperatura máxima	25.3
1411	7	Sololá	712	San Antonio Palopó	9	San Antonio Palopo	8	Agosto	2023-08-14T00:00:00	2024-11-08T18:00:00	3	Temperatura mínima	23.6
1412	7	Sololá	712	San Antonio Palopó	9	San Antonio Palopo	8	Agosto	2023-08-14T00:00:00	2024-11-08T18:00:00	5	Humedad	59
1413	7	Sololá	712	San Antonio Palopó	9	San Antonio Palopo	8	Agosto	2023-08-14T00:00:00	2024-11-08T18:00:00	6	Velocidad del viento	6.4
1414	7	Sololá	712	San Antonio Palopó	9	San Antonio Palopo	8	Agosto	2023-08-14T00:00:00	2024-11-08T18:00:00	7	Dirección del viento	6.44
1415	7	Sololá	712	San Antonio Palopó	9	San Antonio Palopo	8	Agosto	2023-08-14T00:00:00	2024-11-08T18:00:00	1	Precipitación	0
1416	7	Sololá	712	San Antonio Palopó	9	San Antonio Palopo	8	Agosto	2023-08-14T00:00:00	2024-11-08T18:00:00	8	Radiación solar	84
1417	7	Sololá	712	San Antonio Palopó	9	San Antonio Palopo	8	Agosto	2023-08-14T00:00:00	2024-11-08T19:00:00	2	Temperatura media	21.6
1418	7	Sololá	712	San Antonio Palopó	9	San Antonio Palopo	8	Agosto	2023-08-14T00:00:00	2024-11-08T19:00:00	4	Temperatura máxima	24.3
1419	7	Sololá	712	San Antonio Palopó	9	San Antonio Palopo	8	Agosto	2023-08-14T00:00:00	2024-11-08T19:00:00	3	Temperatura mínima	21.6
1420	7	Sololá	712	San Antonio Palopó	9	San Antonio Palopo	8	Agosto	2023-08-14T00:00:00	2024-11-08T19:00:00	5	Humedad	72
1421	7	Sololá	712	San Antonio Palopó	9	San Antonio Palopo	8	Agosto	2023-08-14T00:00:00	2024-11-08T19:00:00	6	Velocidad del viento	3.2
1422	7	Sololá	712	San Antonio Palopó	9	San Antonio Palopo	8	Agosto	2023-08-14T00:00:00	2024-11-08T19:00:00	7	Dirección del viento	3.22
1423	7	Sololá	712	San Antonio Palopó	9	San Antonio Palopo	8	Agosto	2023-08-14T00:00:00	2024-11-08T19:00:00	1	Precipitación	0
1424	7	Sololá	712	San Antonio Palopó	9	San Antonio Palopo	8	Agosto	2023-08-14T00:00:00	2024-11-08T19:00:00	8	Radiación solar	0
1425	7	Sololá	712	San Antonio Palopó	9	San Antonio Palopo	8	Agosto	2023-08-14T00:00:00	2024-11-08T20:00:00	2	Temperatura media	21.2
1426	7	Sololá	712	San Antonio Palopó	9	San Antonio Palopo	8	Agosto	2023-08-14T00:00:00	2024-11-08T20:00:00	4	Temperatura máxima	21.6
1427	7	Sololá	712	San Antonio Palopó	9	San Antonio Palopo	8	Agosto	2023-08-14T00:00:00	2024-11-08T20:00:00	3	Temperatura mínima	20.9
1428	7	Sololá	712	San Antonio Palopó	9	San Antonio Palopo	8	Agosto	2023-08-14T00:00:00	2024-11-08T20:00:00	5	Humedad	72
1429	7	Sololá	712	San Antonio Palopó	9	San Antonio Palopo	8	Agosto	2023-08-14T00:00:00	2024-11-08T20:00:00	6	Velocidad del viento	3.2
1430	7	Sololá	712	San Antonio Palopó	9	San Antonio Palopo	8	Agosto	2023-08-14T00:00:00	2024-11-08T20:00:00	7	Dirección del viento	3.22
1431	7	Sololá	712	San Antonio Palopó	9	San Antonio Palopo	8	Agosto	2023-08-14T00:00:00	2024-11-08T20:00:00	1	Precipitación	0
1432	7	Sololá	712	San Antonio Palopó	9	San Antonio Palopo	8	Agosto	2023-08-14T00:00:00	2024-11-08T20:00:00	8	Radiación solar	0
1433	7	Sololá	712	San Antonio Palopó	9	San Antonio Palopo	8	Agosto	2023-08-14T00:00:00	2024-11-08T21:00:00	2	Temperatura media	20.9
1434	7	Sololá	712	San Antonio Palopó	9	San Antonio Palopo	8	Agosto	2023-08-14T00:00:00	2024-11-08T21:00:00	4	Temperatura máxima	21.3
1435	7	Sololá	712	San Antonio Palopó	9	San Antonio Palopo	8	Agosto	2023-08-14T00:00:00	2024-11-08T21:00:00	3	Temperatura mínima	20.3
1436	7	Sololá	712	San Antonio Palopó	9	San Antonio Palopo	8	Agosto	2023-08-14T00:00:00	2024-11-08T21:00:00	5	Humedad	72
1437	7	Sololá	712	San Antonio Palopó	9	San Antonio Palopo	8	Agosto	2023-08-14T00:00:00	2024-11-08T21:00:00	6	Velocidad del viento	3.2
1438	7	Sololá	712	San Antonio Palopó	9	San Antonio Palopo	8	Agosto	2023-08-14T00:00:00	2024-11-08T21:00:00	7	Dirección del viento	3.22
1439	7	Sololá	712	San Antonio Palopó	9	San Antonio Palopo	8	Agosto	2023-08-14T00:00:00	2024-11-08T21:00:00	1	Precipitación	0
1440	7	Sololá	712	San Antonio Palopó	9	San Antonio Palopo	8	Agosto	2023-08-14T00:00:00	2024-11-08T21:00:00	8	Radiación solar	0
1441	7	Sololá	712	San Antonio Palopó	9	San Antonio Palopo	8	Agosto	2023-08-14T00:00:00	2024-11-08T22:00:00	2	Temperatura media	20.1
1442	7	Sololá	712	San Antonio Palopó	9	San Antonio Palopo	8	Agosto	2023-08-14T00:00:00	2024-11-08T22:00:00	4	Temperatura máxima	21
1443	7	Sololá	712	San Antonio Palopó	9	San Antonio Palopo	8	Agosto	2023-08-14T00:00:00	2024-11-08T22:00:00	3	Temperatura mínima	20
1444	7	Sololá	712	San Antonio Palopó	9	San Antonio Palopo	8	Agosto	2023-08-14T00:00:00	2024-11-08T22:00:00	5	Humedad	76
1445	7	Sololá	712	San Antonio Palopó	9	San Antonio Palopo	8	Agosto	2023-08-14T00:00:00	2024-11-08T22:00:00	6	Velocidad del viento	4.8
1446	7	Sololá	712	San Antonio Palopó	9	San Antonio Palopo	8	Agosto	2023-08-14T00:00:00	2024-11-08T22:00:00	7	Dirección del viento	4.83
1447	7	Sololá	712	San Antonio Palopó	9	San Antonio Palopo	8	Agosto	2023-08-14T00:00:00	2024-11-08T22:00:00	1	Precipitación	0
1448	7	Sololá	712	San Antonio Palopó	9	San Antonio Palopo	8	Agosto	2023-08-14T00:00:00	2024-11-08T22:00:00	8	Radiación solar	0
1449	7	Sololá	712	San Antonio Palopó	9	San Antonio Palopo	8	Agosto	2023-08-14T00:00:00	2024-11-08T23:00:00	2	Temperatura media	20.6
1450	7	Sololá	712	San Antonio Palopó	9	San Antonio Palopo	8	Agosto	2023-08-14T00:00:00	2024-11-08T23:00:00	4	Temperatura máxima	20.6
1451	7	Sololá	712	San Antonio Palopó	9	San Antonio Palopo	8	Agosto	2023-08-14T00:00:00	2024-11-08T23:00:00	3	Temperatura mínima	19.9
1452	7	Sololá	712	San Antonio Palopó	9	San Antonio Palopo	8	Agosto	2023-08-14T00:00:00	2024-11-08T23:00:00	5	Humedad	75
1453	7	Sololá	712	San Antonio Palopó	9	San Antonio Palopo	8	Agosto	2023-08-14T00:00:00	2024-11-08T23:00:00	6	Velocidad del viento	1.6
1454	7	Sololá	712	San Antonio Palopó	9	San Antonio Palopo	8	Agosto	2023-08-14T00:00:00	2024-11-08T23:00:00	7	Dirección del viento	1.61
1455	7	Sololá	712	San Antonio Palopó	9	San Antonio Palopo	8	Agosto	2023-08-14T00:00:00	2024-11-08T23:00:00	1	Precipitación	0
1456	7	Sololá	712	San Antonio Palopó	9	San Antonio Palopo	8	Agosto	2023-08-14T00:00:00	2024-11-08T23:00:00	8	Radiación solar	0
1457	7	Sololá	712	San Antonio Palopó	9	San Antonio Palopo	8	Agosto	2023-08-15T00:00:00	2024-11-08T00:00:00	2	Temperatura media	19.4
1458	7	Sololá	712	San Antonio Palopó	9	San Antonio Palopo	8	Agosto	2023-08-15T00:00:00	2024-11-08T00:00:00	4	Temperatura máxima	20.6
1459	7	Sololá	712	San Antonio Palopó	9	San Antonio Palopo	8	Agosto	2023-08-15T00:00:00	2024-11-08T00:00:00	3	Temperatura mínima	19.3
1460	7	Sololá	712	San Antonio Palopó	9	San Antonio Palopo	8	Agosto	2023-08-15T00:00:00	2024-11-08T00:00:00	5	Humedad	80
1461	7	Sololá	712	San Antonio Palopó	9	San Antonio Palopo	8	Agosto	2023-08-15T00:00:00	2024-11-08T00:00:00	6	Velocidad del viento	3.2
1462	7	Sololá	712	San Antonio Palopó	9	San Antonio Palopo	8	Agosto	2023-08-15T00:00:00	2024-11-08T00:00:00	7	Dirección del viento	3.22
1463	7	Sololá	712	San Antonio Palopó	9	San Antonio Palopo	8	Agosto	2023-08-15T00:00:00	2024-11-08T00:00:00	1	Precipitación	1
1464	7	Sololá	712	San Antonio Palopó	9	San Antonio Palopo	8	Agosto	2023-08-15T00:00:00	2024-11-08T00:00:00	8	Radiación solar	0
1465	7	Sololá	712	San Antonio Palopó	9	San Antonio Palopo	8	Agosto	2023-08-15T00:00:00	2024-11-08T01:00:00	2	Temperatura media	18.4
1466	7	Sololá	712	San Antonio Palopó	9	San Antonio Palopo	8	Agosto	2023-08-15T00:00:00	2024-11-08T01:00:00	4	Temperatura máxima	19.4
1467	7	Sololá	712	San Antonio Palopó	9	San Antonio Palopo	8	Agosto	2023-08-15T00:00:00	2024-11-08T01:00:00	3	Temperatura mínima	18.2
1468	7	Sololá	712	San Antonio Palopó	9	San Antonio Palopo	8	Agosto	2023-08-15T00:00:00	2024-11-08T01:00:00	5	Humedad	87
1469	7	Sololá	712	San Antonio Palopó	9	San Antonio Palopo	8	Agosto	2023-08-15T00:00:00	2024-11-08T01:00:00	6	Velocidad del viento	1.6
1470	7	Sololá	712	San Antonio Palopó	9	San Antonio Palopo	8	Agosto	2023-08-15T00:00:00	2024-11-08T01:00:00	7	Dirección del viento	1.61
1471	7	Sololá	712	San Antonio Palopó	9	San Antonio Palopo	8	Agosto	2023-08-15T00:00:00	2024-11-08T01:00:00	1	Precipitación	0.6
1472	7	Sololá	712	San Antonio Palopó	9	San Antonio Palopo	8	Agosto	2023-08-15T00:00:00	2024-11-08T01:00:00	8	Radiación solar	0
1473	7	Sololá	712	San Antonio Palopó	9	San Antonio Palopo	8	Agosto	2023-08-15T00:00:00	2024-11-08T02:00:00	2	Temperatura media	18.2
1474	7	Sololá	712	San Antonio Palopó	9	San Antonio Palopo	8	Agosto	2023-08-15T00:00:00	2024-11-08T02:00:00	4	Temperatura máxima	18.5
1475	7	Sololá	712	San Antonio Palopó	9	San Antonio Palopo	8	Agosto	2023-08-15T00:00:00	2024-11-08T02:00:00	3	Temperatura mínima	18.1
1476	7	Sololá	712	San Antonio Palopó	9	San Antonio Palopo	8	Agosto	2023-08-15T00:00:00	2024-11-08T02:00:00	5	Humedad	87
1477	7	Sololá	712	San Antonio Palopó	9	San Antonio Palopo	8	Agosto	2023-08-15T00:00:00	2024-11-08T02:00:00	6	Velocidad del viento	1.6
1478	7	Sololá	712	San Antonio Palopó	9	San Antonio Palopo	8	Agosto	2023-08-15T00:00:00	2024-11-08T02:00:00	7	Dirección del viento	1.61
1479	7	Sololá	712	San Antonio Palopó	9	San Antonio Palopo	8	Agosto	2023-08-15T00:00:00	2024-11-08T02:00:00	1	Precipitación	0
1480	7	Sololá	712	San Antonio Palopó	9	San Antonio Palopo	8	Agosto	2023-08-15T00:00:00	2024-11-08T02:00:00	8	Radiación solar	0
1481	7	Sololá	712	San Antonio Palopó	9	San Antonio Palopo	8	Agosto	2023-08-15T00:00:00	2024-11-08T03:00:00	2	Temperatura media	17.9
1482	7	Sololá	712	San Antonio Palopó	9	San Antonio Palopo	8	Agosto	2023-08-15T00:00:00	2024-11-08T03:00:00	4	Temperatura máxima	18.2
1483	7	Sololá	712	San Antonio Palopó	9	San Antonio Palopo	8	Agosto	2023-08-15T00:00:00	2024-11-08T03:00:00	3	Temperatura mínima	17.8
1484	7	Sololá	712	San Antonio Palopó	9	San Antonio Palopo	8	Agosto	2023-08-15T00:00:00	2024-11-08T03:00:00	5	Humedad	79
1485	7	Sololá	712	San Antonio Palopó	9	San Antonio Palopo	8	Agosto	2023-08-15T00:00:00	2024-11-08T03:00:00	6	Velocidad del viento	3.2
1486	7	Sololá	712	San Antonio Palopó	9	San Antonio Palopo	8	Agosto	2023-08-15T00:00:00	2024-11-08T03:00:00	7	Dirección del viento	3.22
1487	7	Sololá	712	San Antonio Palopó	9	San Antonio Palopo	8	Agosto	2023-08-15T00:00:00	2024-11-08T03:00:00	1	Precipitación	0
1488	7	Sololá	712	San Antonio Palopó	9	San Antonio Palopo	8	Agosto	2023-08-15T00:00:00	2024-11-08T03:00:00	8	Radiación solar	0
1489	7	Sololá	712	San Antonio Palopó	9	San Antonio Palopo	8	Agosto	2023-08-15T00:00:00	2024-11-08T04:00:00	2	Temperatura media	18.1
1490	7	Sololá	712	San Antonio Palopó	9	San Antonio Palopo	8	Agosto	2023-08-15T00:00:00	2024-11-08T04:00:00	4	Temperatura máxima	18.2
1491	7	Sololá	712	San Antonio Palopó	9	San Antonio Palopo	8	Agosto	2023-08-15T00:00:00	2024-11-08T04:00:00	3	Temperatura mínima	17.7
1492	7	Sololá	712	San Antonio Palopó	9	San Antonio Palopo	8	Agosto	2023-08-15T00:00:00	2024-11-08T04:00:00	5	Humedad	76
1493	7	Sololá	712	San Antonio Palopó	9	San Antonio Palopo	8	Agosto	2023-08-15T00:00:00	2024-11-08T04:00:00	6	Velocidad del viento	4.8
1494	7	Sololá	712	San Antonio Palopó	9	San Antonio Palopo	8	Agosto	2023-08-15T00:00:00	2024-11-08T04:00:00	7	Dirección del viento	4.83
1495	7	Sololá	712	San Antonio Palopó	9	San Antonio Palopo	8	Agosto	2023-08-15T00:00:00	2024-11-08T04:00:00	1	Precipitación	0
1496	7	Sololá	712	San Antonio Palopó	9	San Antonio Palopo	8	Agosto	2023-08-15T00:00:00	2024-11-08T04:00:00	8	Radiación solar	0
1497	7	Sololá	712	San Antonio Palopó	9	San Antonio Palopo	8	Agosto	2023-08-15T00:00:00	2024-11-08T05:00:00	2	Temperatura media	18.4
1498	7	Sololá	712	San Antonio Palopó	9	San Antonio Palopo	8	Agosto	2023-08-15T00:00:00	2024-11-08T05:00:00	4	Temperatura máxima	18.4
1499	7	Sololá	712	San Antonio Palopó	9	San Antonio Palopo	8	Agosto	2023-08-15T00:00:00	2024-11-08T05:00:00	3	Temperatura mínima	18.1
1500	7	Sololá	712	San Antonio Palopó	9	San Antonio Palopo	8	Agosto	2023-08-15T00:00:00	2024-11-08T05:00:00	5	Humedad	78
1501	7	Sololá	712	San Antonio Palopó	9	San Antonio Palopo	8	Agosto	2023-08-15T00:00:00	2024-11-08T05:00:00	6	Velocidad del viento	6.4
1502	7	Sololá	712	San Antonio Palopó	9	San Antonio Palopo	8	Agosto	2023-08-15T00:00:00	2024-11-08T05:00:00	7	Dirección del viento	6.44
1503	7	Sololá	712	San Antonio Palopó	9	San Antonio Palopo	8	Agosto	2023-08-15T00:00:00	2024-11-08T05:00:00	1	Precipitación	0
1504	7	Sololá	712	San Antonio Palopó	9	San Antonio Palopo	8	Agosto	2023-08-15T00:00:00	2024-11-08T05:00:00	8	Radiación solar	0
1505	7	Sololá	712	San Antonio Palopó	9	San Antonio Palopo	8	Agosto	2023-08-15T00:00:00	2024-11-08T06:00:00	2	Temperatura media	18.6
1506	7	Sololá	712	San Antonio Palopó	9	San Antonio Palopo	8	Agosto	2023-08-15T00:00:00	2024-11-08T06:00:00	4	Temperatura máxima	18.8
1507	7	Sololá	712	San Antonio Palopó	9	San Antonio Palopo	8	Agosto	2023-08-15T00:00:00	2024-11-08T06:00:00	3	Temperatura mínima	18.3
1508	7	Sololá	712	San Antonio Palopó	9	San Antonio Palopo	8	Agosto	2023-08-15T00:00:00	2024-11-08T06:00:00	5	Humedad	75
1509	7	Sololá	712	San Antonio Palopó	9	San Antonio Palopo	8	Agosto	2023-08-15T00:00:00	2024-11-08T06:00:00	6	Velocidad del viento	4.8
1510	7	Sololá	712	San Antonio Palopó	9	San Antonio Palopo	8	Agosto	2023-08-15T00:00:00	2024-11-08T06:00:00	7	Dirección del viento	4.83
1511	7	Sololá	712	San Antonio Palopó	9	San Antonio Palopo	8	Agosto	2023-08-15T00:00:00	2024-11-08T06:00:00	1	Precipitación	0.2
1512	7	Sololá	712	San Antonio Palopó	9	San Antonio Palopo	8	Agosto	2023-08-15T00:00:00	2024-11-08T06:00:00	8	Radiación solar	1
1513	7	Sololá	712	San Antonio Palopó	9	San Antonio Palopo	8	Agosto	2023-08-15T00:00:00	2024-11-08T07:00:00	2	Temperatura media	19.4
1514	7	Sololá	712	San Antonio Palopó	9	San Antonio Palopo	8	Agosto	2023-08-15T00:00:00	2024-11-08T07:00:00	4	Temperatura máxima	19.4
1515	7	Sololá	712	San Antonio Palopó	9	San Antonio Palopo	8	Agosto	2023-08-15T00:00:00	2024-11-08T07:00:00	3	Temperatura mínima	18.6
1516	7	Sololá	712	San Antonio Palopó	9	San Antonio Palopo	8	Agosto	2023-08-15T00:00:00	2024-11-08T07:00:00	5	Humedad	72
1517	7	Sololá	712	San Antonio Palopó	9	San Antonio Palopo	8	Agosto	2023-08-15T00:00:00	2024-11-08T07:00:00	6	Velocidad del viento	14.5
1518	7	Sololá	712	San Antonio Palopó	9	San Antonio Palopo	8	Agosto	2023-08-15T00:00:00	2024-11-08T07:00:00	7	Dirección del viento	14.48
1519	7	Sololá	712	San Antonio Palopó	9	San Antonio Palopo	8	Agosto	2023-08-15T00:00:00	2024-11-08T07:00:00	1	Precipitación	0
1520	7	Sololá	712	San Antonio Palopó	9	San Antonio Palopo	8	Agosto	2023-08-15T00:00:00	2024-11-08T07:00:00	8	Radiación solar	66
1521	7	Sololá	712	San Antonio Palopó	9	San Antonio Palopo	8	Agosto	2023-08-15T00:00:00	2024-11-08T08:00:00	2	Temperatura media	20.9
1522	7	Sololá	712	San Antonio Palopó	9	San Antonio Palopo	8	Agosto	2023-08-15T00:00:00	2024-11-08T08:00:00	4	Temperatura máxima	20.9
1523	7	Sololá	712	San Antonio Palopó	9	San Antonio Palopo	8	Agosto	2023-08-15T00:00:00	2024-11-08T08:00:00	3	Temperatura mínima	19.4
1524	7	Sololá	712	San Antonio Palopó	9	San Antonio Palopo	8	Agosto	2023-08-15T00:00:00	2024-11-08T08:00:00	5	Humedad	67
1525	7	Sololá	712	San Antonio Palopó	9	San Antonio Palopo	8	Agosto	2023-08-15T00:00:00	2024-11-08T08:00:00	6	Velocidad del viento	12.9
1526	7	Sololá	712	San Antonio Palopó	9	San Antonio Palopo	8	Agosto	2023-08-15T00:00:00	2024-11-08T08:00:00	7	Dirección del viento	12.87
1527	7	Sololá	712	San Antonio Palopó	9	San Antonio Palopo	8	Agosto	2023-08-15T00:00:00	2024-11-08T08:00:00	1	Precipitación	0
1528	7	Sololá	712	San Antonio Palopó	9	San Antonio Palopo	8	Agosto	2023-08-15T00:00:00	2024-11-08T08:00:00	8	Radiación solar	200
1529	7	Sololá	712	San Antonio Palopó	9	San Antonio Palopo	8	Agosto	2023-08-15T00:00:00	2024-11-08T09:00:00	2	Temperatura media	22.2
1530	7	Sololá	712	San Antonio Palopó	9	San Antonio Palopo	8	Agosto	2023-08-15T00:00:00	2024-11-08T09:00:00	4	Temperatura máxima	22.2
1531	7	Sololá	712	San Antonio Palopó	9	San Antonio Palopo	8	Agosto	2023-08-15T00:00:00	2024-11-08T09:00:00	3	Temperatura mínima	20.9
1532	7	Sololá	712	San Antonio Palopó	9	San Antonio Palopo	8	Agosto	2023-08-15T00:00:00	2024-11-08T09:00:00	5	Humedad	64
1533	7	Sololá	712	San Antonio Palopó	9	San Antonio Palopo	8	Agosto	2023-08-15T00:00:00	2024-11-08T09:00:00	6	Velocidad del viento	9.7
1534	7	Sololá	712	San Antonio Palopó	9	San Antonio Palopo	8	Agosto	2023-08-15T00:00:00	2024-11-08T09:00:00	7	Dirección del viento	9.66
1535	7	Sololá	712	San Antonio Palopó	9	San Antonio Palopo	8	Agosto	2023-08-15T00:00:00	2024-11-08T09:00:00	1	Precipitación	0
1536	7	Sololá	712	San Antonio Palopó	9	San Antonio Palopo	8	Agosto	2023-08-15T00:00:00	2024-11-08T09:00:00	8	Radiación solar	532
1537	7	Sololá	712	San Antonio Palopó	9	San Antonio Palopo	8	Agosto	2023-08-15T00:00:00	2024-11-08T10:00:00	2	Temperatura media	23.1
1538	7	Sololá	712	San Antonio Palopó	9	San Antonio Palopo	8	Agosto	2023-08-15T00:00:00	2024-11-08T10:00:00	4	Temperatura máxima	23.6
1539	7	Sololá	712	San Antonio Palopó	9	San Antonio Palopo	8	Agosto	2023-08-15T00:00:00	2024-11-08T10:00:00	3	Temperatura mínima	22.2
1540	7	Sololá	712	San Antonio Palopó	9	San Antonio Palopo	8	Agosto	2023-08-15T00:00:00	2024-11-08T10:00:00	5	Humedad	60
1541	7	Sololá	712	San Antonio Palopó	9	San Antonio Palopo	8	Agosto	2023-08-15T00:00:00	2024-11-08T10:00:00	6	Velocidad del viento	9.7
1542	7	Sololá	712	San Antonio Palopó	9	San Antonio Palopo	8	Agosto	2023-08-15T00:00:00	2024-11-08T10:00:00	7	Dirección del viento	9.66
1543	7	Sololá	712	San Antonio Palopó	9	San Antonio Palopo	8	Agosto	2023-08-15T00:00:00	2024-11-08T10:00:00	1	Precipitación	0
1544	7	Sololá	712	San Antonio Palopó	9	San Antonio Palopo	8	Agosto	2023-08-15T00:00:00	2024-11-08T10:00:00	8	Radiación solar	786
1545	7	Sololá	712	San Antonio Palopó	9	San Antonio Palopo	8	Agosto	2023-08-15T00:00:00	2024-11-08T11:00:00	2	Temperatura media	24.2
1546	7	Sololá	712	San Antonio Palopó	9	San Antonio Palopo	8	Agosto	2023-08-15T00:00:00	2024-11-08T11:00:00	4	Temperatura máxima	24.4
1547	7	Sololá	712	San Antonio Palopó	9	San Antonio Palopo	8	Agosto	2023-08-15T00:00:00	2024-11-08T11:00:00	3	Temperatura mínima	23.1
1548	7	Sololá	712	San Antonio Palopó	9	San Antonio Palopo	8	Agosto	2023-08-15T00:00:00	2024-11-08T11:00:00	5	Humedad	53
1549	7	Sololá	712	San Antonio Palopó	9	San Antonio Palopo	8	Agosto	2023-08-15T00:00:00	2024-11-08T11:00:00	6	Velocidad del viento	9.7
1550	7	Sololá	712	San Antonio Palopó	9	San Antonio Palopo	8	Agosto	2023-08-15T00:00:00	2024-11-08T11:00:00	7	Dirección del viento	9.66
1551	7	Sololá	712	San Antonio Palopó	9	San Antonio Palopo	8	Agosto	2023-08-15T00:00:00	2024-11-08T11:00:00	1	Precipitación	0
1552	7	Sololá	712	San Antonio Palopó	9	San Antonio Palopo	8	Agosto	2023-08-15T00:00:00	2024-11-08T11:00:00	8	Radiación solar	800
1553	7	Sololá	712	San Antonio Palopó	9	San Antonio Palopo	8	Agosto	2023-08-15T00:00:00	2024-11-08T12:00:00	2	Temperatura media	24.1
1554	7	Sololá	712	San Antonio Palopó	9	San Antonio Palopo	8	Agosto	2023-08-15T00:00:00	2024-11-08T12:00:00	4	Temperatura máxima	24.8
1555	7	Sololá	712	San Antonio Palopó	9	San Antonio Palopo	8	Agosto	2023-08-15T00:00:00	2024-11-08T12:00:00	3	Temperatura mínima	23.8
1556	7	Sololá	712	San Antonio Palopó	9	San Antonio Palopo	8	Agosto	2023-08-15T00:00:00	2024-11-08T12:00:00	5	Humedad	55
1557	7	Sololá	712	San Antonio Palopó	9	San Antonio Palopo	8	Agosto	2023-08-15T00:00:00	2024-11-08T12:00:00	6	Velocidad del viento	9.7
1558	7	Sololá	712	San Antonio Palopó	9	San Antonio Palopo	8	Agosto	2023-08-15T00:00:00	2024-11-08T12:00:00	7	Dirección del viento	9.66
1559	7	Sololá	712	San Antonio Palopó	9	San Antonio Palopo	8	Agosto	2023-08-15T00:00:00	2024-11-08T12:00:00	1	Precipitación	0
1560	7	Sololá	712	San Antonio Palopó	9	San Antonio Palopo	8	Agosto	2023-08-15T00:00:00	2024-11-08T12:00:00	8	Radiación solar	696
1561	7	Sololá	712	San Antonio Palopó	9	San Antonio Palopo	8	Agosto	2023-08-15T00:00:00	2024-11-08T13:00:00	2	Temperatura media	22.2
1562	7	Sololá	712	San Antonio Palopó	9	San Antonio Palopo	8	Agosto	2023-08-15T00:00:00	2024-11-08T13:00:00	4	Temperatura máxima	24.3
1563	7	Sololá	712	San Antonio Palopó	9	San Antonio Palopo	8	Agosto	2023-08-15T00:00:00	2024-11-08T13:00:00	3	Temperatura mínima	22.2
1564	7	Sololá	712	San Antonio Palopó	9	San Antonio Palopo	8	Agosto	2023-08-15T00:00:00	2024-11-08T13:00:00	5	Humedad	68
1565	7	Sololá	712	San Antonio Palopó	9	San Antonio Palopo	8	Agosto	2023-08-15T00:00:00	2024-11-08T13:00:00	6	Velocidad del viento	14.5
1566	7	Sololá	712	San Antonio Palopó	9	San Antonio Palopo	8	Agosto	2023-08-15T00:00:00	2024-11-08T13:00:00	7	Dirección del viento	14.48
1567	7	Sololá	712	San Antonio Palopó	9	San Antonio Palopo	8	Agosto	2023-08-15T00:00:00	2024-11-08T13:00:00	1	Precipitación	0
1568	7	Sololá	712	San Antonio Palopó	9	San Antonio Palopo	8	Agosto	2023-08-15T00:00:00	2024-11-08T13:00:00	8	Radiación solar	562
1569	7	Sololá	712	San Antonio Palopó	9	San Antonio Palopo	8	Agosto	2023-08-15T00:00:00	2024-11-08T14:00:00	2	Temperatura media	23.3
1570	7	Sololá	712	San Antonio Palopó	9	San Antonio Palopo	8	Agosto	2023-08-15T00:00:00	2024-11-08T14:00:00	4	Temperatura máxima	23.3
1571	7	Sololá	712	San Antonio Palopó	9	San Antonio Palopo	8	Agosto	2023-08-15T00:00:00	2024-11-08T14:00:00	3	Temperatura mínima	22.2
1572	7	Sololá	712	San Antonio Palopó	9	San Antonio Palopo	8	Agosto	2023-08-15T00:00:00	2024-11-08T14:00:00	5	Humedad	60
1573	7	Sololá	712	San Antonio Palopó	9	San Antonio Palopo	8	Agosto	2023-08-15T00:00:00	2024-11-08T14:00:00	6	Velocidad del viento	11.3
1574	7	Sololá	712	San Antonio Palopó	9	San Antonio Palopo	8	Agosto	2023-08-15T00:00:00	2024-11-08T14:00:00	7	Dirección del viento	11.27
1575	7	Sololá	712	San Antonio Palopó	9	San Antonio Palopo	8	Agosto	2023-08-15T00:00:00	2024-11-08T14:00:00	1	Precipitación	0
1576	7	Sololá	712	San Antonio Palopó	9	San Antonio Palopo	8	Agosto	2023-08-15T00:00:00	2024-11-08T14:00:00	8	Radiación solar	265
1577	7	Sololá	712	San Antonio Palopó	9	San Antonio Palopo	8	Agosto	2023-08-15T00:00:00	2024-11-08T15:00:00	2	Temperatura media	23.7
1578	7	Sololá	712	San Antonio Palopó	9	San Antonio Palopo	8	Agosto	2023-08-15T00:00:00	2024-11-08T15:00:00	4	Temperatura máxima	24.4
1579	7	Sololá	712	San Antonio Palopó	9	San Antonio Palopo	8	Agosto	2023-08-15T00:00:00	2024-11-08T15:00:00	3	Temperatura mínima	23.3
1580	7	Sololá	712	San Antonio Palopó	9	San Antonio Palopo	8	Agosto	2023-08-15T00:00:00	2024-11-08T15:00:00	5	Humedad	61
1581	7	Sololá	712	San Antonio Palopó	9	San Antonio Palopo	8	Agosto	2023-08-15T00:00:00	2024-11-08T15:00:00	6	Velocidad del viento	12.9
1582	7	Sololá	712	San Antonio Palopó	9	San Antonio Palopo	8	Agosto	2023-08-15T00:00:00	2024-11-08T15:00:00	7	Dirección del viento	12.87
1583	7	Sololá	712	San Antonio Palopó	9	San Antonio Palopo	8	Agosto	2023-08-15T00:00:00	2024-11-08T15:00:00	1	Precipitación	0
1584	7	Sololá	712	San Antonio Palopó	9	San Antonio Palopo	8	Agosto	2023-08-15T00:00:00	2024-11-08T15:00:00	8	Radiación solar	394
1585	7	Sololá	712	San Antonio Palopó	9	San Antonio Palopo	8	Agosto	2023-08-15T00:00:00	2024-11-08T16:00:00	2	Temperatura media	21.7
1586	7	Sololá	712	San Antonio Palopó	9	San Antonio Palopo	8	Agosto	2023-08-15T00:00:00	2024-11-08T16:00:00	4	Temperatura máxima	23.7
1587	7	Sololá	712	San Antonio Palopó	9	San Antonio Palopo	8	Agosto	2023-08-15T00:00:00	2024-11-08T16:00:00	3	Temperatura mínima	21.1
1588	7	Sololá	712	San Antonio Palopó	9	San Antonio Palopo	8	Agosto	2023-08-15T00:00:00	2024-11-08T16:00:00	5	Humedad	72
1589	7	Sololá	712	San Antonio Palopó	9	San Antonio Palopo	8	Agosto	2023-08-15T00:00:00	2024-11-08T16:00:00	6	Velocidad del viento	9.7
1590	7	Sololá	712	San Antonio Palopó	9	San Antonio Palopo	8	Agosto	2023-08-15T00:00:00	2024-11-08T16:00:00	7	Dirección del viento	9.66
1591	7	Sololá	712	San Antonio Palopó	9	San Antonio Palopo	8	Agosto	2023-08-15T00:00:00	2024-11-08T16:00:00	1	Precipitación	0
1592	7	Sololá	712	San Antonio Palopó	9	San Antonio Palopo	8	Agosto	2023-08-15T00:00:00	2024-11-08T16:00:00	8	Radiación solar	119
1593	7	Sololá	712	San Antonio Palopó	9	San Antonio Palopo	8	Agosto	2023-08-15T00:00:00	2024-11-08T17:00:00	2	Temperatura media	21.9
1594	7	Sololá	712	San Antonio Palopó	9	San Antonio Palopo	8	Agosto	2023-08-15T00:00:00	2024-11-08T17:00:00	4	Temperatura máxima	21.9
1595	7	Sololá	712	San Antonio Palopó	9	San Antonio Palopo	8	Agosto	2023-08-15T00:00:00	2024-11-08T17:00:00	3	Temperatura mínima	21.3
1596	7	Sololá	712	San Antonio Palopó	9	San Antonio Palopo	8	Agosto	2023-08-15T00:00:00	2024-11-08T17:00:00	5	Humedad	72
1597	7	Sololá	712	San Antonio Palopó	9	San Antonio Palopo	8	Agosto	2023-08-15T00:00:00	2024-11-08T17:00:00	6	Velocidad del viento	4.8
1598	7	Sololá	712	San Antonio Palopó	9	San Antonio Palopo	8	Agosto	2023-08-15T00:00:00	2024-11-08T17:00:00	7	Dirección del viento	4.83
1599	7	Sololá	712	San Antonio Palopó	9	San Antonio Palopo	8	Agosto	2023-08-15T00:00:00	2024-11-08T17:00:00	1	Precipitación	0
1600	7	Sololá	712	San Antonio Palopó	9	San Antonio Palopo	8	Agosto	2023-08-15T00:00:00	2024-11-08T17:00:00	8	Radiación solar	175
1601	7	Sololá	712	San Antonio Palopó	9	San Antonio Palopo	8	Agosto	2023-08-15T00:00:00	2024-11-08T18:00:00	2	Temperatura media	21.3
1602	7	Sololá	712	San Antonio Palopó	9	San Antonio Palopo	8	Agosto	2023-08-15T00:00:00	2024-11-08T18:00:00	4	Temperatura máxima	22.1
1603	7	Sololá	712	San Antonio Palopó	9	San Antonio Palopo	8	Agosto	2023-08-15T00:00:00	2024-11-08T18:00:00	3	Temperatura mínima	21.3
1604	7	Sololá	712	San Antonio Palopó	9	San Antonio Palopo	8	Agosto	2023-08-15T00:00:00	2024-11-08T18:00:00	5	Humedad	77
1605	7	Sololá	712	San Antonio Palopó	9	San Antonio Palopo	8	Agosto	2023-08-15T00:00:00	2024-11-08T18:00:00	6	Velocidad del viento	4.8
1606	7	Sololá	712	San Antonio Palopó	9	San Antonio Palopo	8	Agosto	2023-08-15T00:00:00	2024-11-08T18:00:00	7	Dirección del viento	4.83
1607	7	Sololá	712	San Antonio Palopó	9	San Antonio Palopo	8	Agosto	2023-08-15T00:00:00	2024-11-08T18:00:00	1	Precipitación	0
1608	7	Sololá	712	San Antonio Palopó	9	San Antonio Palopo	8	Agosto	2023-08-15T00:00:00	2024-11-08T18:00:00	8	Radiación solar	90
1609	7	Sololá	712	San Antonio Palopó	9	San Antonio Palopo	8	Agosto	2023-08-15T00:00:00	2024-11-08T19:00:00	2	Temperatura media	21.4
1610	7	Sololá	712	San Antonio Palopó	9	San Antonio Palopo	8	Agosto	2023-08-15T00:00:00	2024-11-08T19:00:00	4	Temperatura máxima	21.4
1611	7	Sololá	712	San Antonio Palopó	9	San Antonio Palopo	8	Agosto	2023-08-15T00:00:00	2024-11-08T19:00:00	3	Temperatura mínima	21.2
1612	7	Sololá	712	San Antonio Palopó	9	San Antonio Palopo	8	Agosto	2023-08-15T00:00:00	2024-11-08T19:00:00	5	Humedad	70
1613	7	Sololá	712	San Antonio Palopó	9	San Antonio Palopo	8	Agosto	2023-08-15T00:00:00	2024-11-08T19:00:00	6	Velocidad del viento	3.2
1614	7	Sololá	712	San Antonio Palopó	9	San Antonio Palopo	8	Agosto	2023-08-15T00:00:00	2024-11-08T19:00:00	7	Dirección del viento	3.22
1615	7	Sololá	712	San Antonio Palopó	9	San Antonio Palopo	8	Agosto	2023-08-15T00:00:00	2024-11-08T19:00:00	1	Precipitación	0
1616	7	Sololá	712	San Antonio Palopó	9	San Antonio Palopo	8	Agosto	2023-08-15T00:00:00	2024-11-08T19:00:00	8	Radiación solar	0
1617	7	Sololá	712	San Antonio Palopó	9	San Antonio Palopo	8	Agosto	2023-08-15T00:00:00	2024-11-08T20:00:00	2	Temperatura media	21.1
1618	7	Sololá	712	San Antonio Palopó	9	San Antonio Palopo	8	Agosto	2023-08-15T00:00:00	2024-11-08T20:00:00	4	Temperatura máxima	21.5
1619	7	Sololá	712	San Antonio Palopó	9	San Antonio Palopo	8	Agosto	2023-08-15T00:00:00	2024-11-08T20:00:00	3	Temperatura mínima	21.1
1620	7	Sololá	712	San Antonio Palopó	9	San Antonio Palopo	8	Agosto	2023-08-15T00:00:00	2024-11-08T20:00:00	5	Humedad	70
1621	7	Sololá	712	San Antonio Palopó	9	San Antonio Palopo	8	Agosto	2023-08-15T00:00:00	2024-11-08T20:00:00	6	Velocidad del viento	3.2
1622	7	Sololá	712	San Antonio Palopó	9	San Antonio Palopo	8	Agosto	2023-08-15T00:00:00	2024-11-08T20:00:00	7	Dirección del viento	3.22
1623	7	Sololá	712	San Antonio Palopó	9	San Antonio Palopo	8	Agosto	2023-08-15T00:00:00	2024-11-08T20:00:00	1	Precipitación	0
1624	7	Sololá	712	San Antonio Palopó	9	San Antonio Palopo	8	Agosto	2023-08-15T00:00:00	2024-11-08T20:00:00	8	Radiación solar	0
1625	7	Sololá	712	San Antonio Palopó	9	San Antonio Palopo	8	Agosto	2023-08-15T00:00:00	2024-11-08T21:00:00	2	Temperatura media	20.6
1626	7	Sololá	712	San Antonio Palopó	9	San Antonio Palopo	8	Agosto	2023-08-15T00:00:00	2024-11-08T21:00:00	4	Temperatura máxima	21.2
1627	7	Sololá	712	San Antonio Palopó	9	San Antonio Palopo	8	Agosto	2023-08-15T00:00:00	2024-11-08T21:00:00	3	Temperatura mínima	20.6
1628	7	Sololá	712	San Antonio Palopó	9	San Antonio Palopo	8	Agosto	2023-08-15T00:00:00	2024-11-08T21:00:00	5	Humedad	70
1629	7	Sololá	712	San Antonio Palopó	9	San Antonio Palopo	8	Agosto	2023-08-15T00:00:00	2024-11-08T21:00:00	6	Velocidad del viento	11.3
1630	7	Sololá	712	San Antonio Palopó	9	San Antonio Palopo	8	Agosto	2023-08-15T00:00:00	2024-11-08T21:00:00	7	Dirección del viento	11.27
1631	7	Sololá	712	San Antonio Palopó	9	San Antonio Palopo	8	Agosto	2023-08-15T00:00:00	2024-11-08T21:00:00	1	Precipitación	0
1632	7	Sololá	712	San Antonio Palopó	9	San Antonio Palopo	8	Agosto	2023-08-15T00:00:00	2024-11-08T21:00:00	8	Radiación solar	0
1633	7	Sololá	712	San Antonio Palopó	9	San Antonio Palopo	8	Agosto	2023-08-15T00:00:00	2024-11-08T22:00:00	2	Temperatura media	20.4
1634	7	Sololá	712	San Antonio Palopó	9	San Antonio Palopo	8	Agosto	2023-08-15T00:00:00	2024-11-08T22:00:00	4	Temperatura máxima	20.6
1635	7	Sololá	712	San Antonio Palopó	9	San Antonio Palopo	8	Agosto	2023-08-15T00:00:00	2024-11-08T22:00:00	3	Temperatura mínima	20.4
1636	7	Sololá	712	San Antonio Palopó	9	San Antonio Palopo	8	Agosto	2023-08-15T00:00:00	2024-11-08T22:00:00	5	Humedad	71
1637	7	Sololá	712	San Antonio Palopó	9	San Antonio Palopo	8	Agosto	2023-08-15T00:00:00	2024-11-08T22:00:00	6	Velocidad del viento	11.3
1638	7	Sololá	712	San Antonio Palopó	9	San Antonio Palopo	8	Agosto	2023-08-15T00:00:00	2024-11-08T22:00:00	7	Dirección del viento	11.27
1639	7	Sololá	712	San Antonio Palopó	9	San Antonio Palopo	8	Agosto	2023-08-15T00:00:00	2024-11-08T22:00:00	1	Precipitación	0
1640	7	Sololá	712	San Antonio Palopó	9	San Antonio Palopo	8	Agosto	2023-08-15T00:00:00	2024-11-08T22:00:00	8	Radiación solar	0
1641	7	Sololá	712	San Antonio Palopó	9	San Antonio Palopo	8	Agosto	2023-08-15T00:00:00	2024-11-08T23:00:00	2	Temperatura media	20
1642	7	Sololá	712	San Antonio Palopó	9	San Antonio Palopo	8	Agosto	2023-08-15T00:00:00	2024-11-08T23:00:00	4	Temperatura máxima	20.5
1643	7	Sololá	712	San Antonio Palopó	9	San Antonio Palopo	8	Agosto	2023-08-15T00:00:00	2024-11-08T23:00:00	3	Temperatura mínima	20
1644	7	Sololá	712	San Antonio Palopó	9	San Antonio Palopo	8	Agosto	2023-08-15T00:00:00	2024-11-08T23:00:00	5	Humedad	72
1645	7	Sololá	712	San Antonio Palopó	9	San Antonio Palopo	8	Agosto	2023-08-15T00:00:00	2024-11-08T23:00:00	6	Velocidad del viento	12.9
1646	7	Sololá	712	San Antonio Palopó	9	San Antonio Palopo	8	Agosto	2023-08-15T00:00:00	2024-11-08T23:00:00	7	Dirección del viento	12.87
1647	7	Sololá	712	San Antonio Palopó	9	San Antonio Palopo	8	Agosto	2023-08-15T00:00:00	2024-11-08T23:00:00	1	Precipitación	0
1648	7	Sololá	712	San Antonio Palopó	9	San Antonio Palopo	8	Agosto	2023-08-15T00:00:00	2024-11-08T23:00:00	8	Radiación solar	0
1649	7	Sololá	712	San Antonio Palopó	9	San Antonio Palopo	8	Agosto	2023-08-16T00:00:00	2024-11-08T00:00:00	2	Temperatura media	19.9
1650	7	Sololá	712	San Antonio Palopó	9	San Antonio Palopo	8	Agosto	2023-08-16T00:00:00	2024-11-08T00:00:00	4	Temperatura máxima	20.1
1651	7	Sololá	712	San Antonio Palopó	9	San Antonio Palopo	8	Agosto	2023-08-16T00:00:00	2024-11-08T00:00:00	3	Temperatura mínima	19.9
1652	7	Sololá	712	San Antonio Palopó	9	San Antonio Palopo	8	Agosto	2023-08-16T00:00:00	2024-11-08T00:00:00	5	Humedad	72
1653	7	Sololá	712	San Antonio Palopó	9	San Antonio Palopo	8	Agosto	2023-08-16T00:00:00	2024-11-08T00:00:00	6	Velocidad del viento	19.3
1654	7	Sololá	712	San Antonio Palopó	9	San Antonio Palopo	8	Agosto	2023-08-16T00:00:00	2024-11-08T00:00:00	7	Dirección del viento	19.31
1655	7	Sololá	712	San Antonio Palopó	9	San Antonio Palopo	8	Agosto	2023-08-16T00:00:00	2024-11-08T00:00:00	1	Precipitación	0
1656	7	Sololá	712	San Antonio Palopó	9	San Antonio Palopo	8	Agosto	2023-08-16T00:00:00	2024-11-08T00:00:00	8	Radiación solar	0
1657	7	Sololá	712	San Antonio Palopó	9	San Antonio Palopo	8	Agosto	2023-08-16T00:00:00	2024-11-08T01:00:00	2	Temperatura media	19.8
1658	7	Sololá	712	San Antonio Palopó	9	San Antonio Palopo	8	Agosto	2023-08-16T00:00:00	2024-11-08T01:00:00	4	Temperatura máxima	20.1
1659	7	Sololá	712	San Antonio Palopó	9	San Antonio Palopo	8	Agosto	2023-08-16T00:00:00	2024-11-08T01:00:00	3	Temperatura mínima	19.8
1660	7	Sololá	712	San Antonio Palopó	9	San Antonio Palopo	8	Agosto	2023-08-16T00:00:00	2024-11-08T01:00:00	5	Humedad	72
1661	7	Sololá	712	San Antonio Palopó	9	San Antonio Palopo	8	Agosto	2023-08-16T00:00:00	2024-11-08T01:00:00	6	Velocidad del viento	12.9
1662	7	Sololá	712	San Antonio Palopó	9	San Antonio Palopo	8	Agosto	2023-08-16T00:00:00	2024-11-08T01:00:00	7	Dirección del viento	12.87
1663	7	Sololá	712	San Antonio Palopó	9	San Antonio Palopo	8	Agosto	2023-08-16T00:00:00	2024-11-08T01:00:00	1	Precipitación	0
1664	7	Sololá	712	San Antonio Palopó	9	San Antonio Palopo	8	Agosto	2023-08-16T00:00:00	2024-11-08T01:00:00	8	Radiación solar	0
1665	7	Sololá	712	San Antonio Palopó	9	San Antonio Palopo	8	Agosto	2023-08-16T00:00:00	2024-11-08T02:00:00	2	Temperatura media	19.6
1666	7	Sololá	712	San Antonio Palopó	9	San Antonio Palopo	8	Agosto	2023-08-16T00:00:00	2024-11-08T02:00:00	4	Temperatura máxima	19.9
1667	7	Sololá	712	San Antonio Palopó	9	San Antonio Palopo	8	Agosto	2023-08-16T00:00:00	2024-11-08T02:00:00	3	Temperatura mínima	19.2
1668	7	Sololá	712	San Antonio Palopó	9	San Antonio Palopo	8	Agosto	2023-08-16T00:00:00	2024-11-08T02:00:00	5	Humedad	72
1669	7	Sololá	712	San Antonio Palopó	9	San Antonio Palopo	8	Agosto	2023-08-16T00:00:00	2024-11-08T02:00:00	6	Velocidad del viento	12.9
1670	7	Sololá	712	San Antonio Palopó	9	San Antonio Palopo	8	Agosto	2023-08-16T00:00:00	2024-11-08T02:00:00	7	Dirección del viento	12.87
1671	7	Sololá	712	San Antonio Palopó	9	San Antonio Palopo	8	Agosto	2023-08-16T00:00:00	2024-11-08T02:00:00	1	Precipitación	0
1672	7	Sololá	712	San Antonio Palopó	9	San Antonio Palopo	8	Agosto	2023-08-16T00:00:00	2024-11-08T02:00:00	8	Radiación solar	0
1673	7	Sololá	712	San Antonio Palopó	9	San Antonio Palopo	8	Agosto	2023-08-16T00:00:00	2024-11-08T03:00:00	2	Temperatura media	18.9
1674	7	Sololá	712	San Antonio Palopó	9	San Antonio Palopo	8	Agosto	2023-08-16T00:00:00	2024-11-08T03:00:00	4	Temperatura máxima	19.7
1675	7	Sololá	712	San Antonio Palopó	9	San Antonio Palopo	8	Agosto	2023-08-16T00:00:00	2024-11-08T03:00:00	3	Temperatura mínima	18.9
1676	7	Sololá	712	San Antonio Palopó	9	San Antonio Palopo	8	Agosto	2023-08-16T00:00:00	2024-11-08T03:00:00	5	Humedad	74
1677	7	Sololá	712	San Antonio Palopó	9	San Antonio Palopo	8	Agosto	2023-08-16T00:00:00	2024-11-08T03:00:00	6	Velocidad del viento	12.9
1678	7	Sololá	712	San Antonio Palopó	9	San Antonio Palopo	8	Agosto	2023-08-16T00:00:00	2024-11-08T03:00:00	7	Dirección del viento	12.87
1679	7	Sololá	712	San Antonio Palopó	9	San Antonio Palopo	8	Agosto	2023-08-16T00:00:00	2024-11-08T03:00:00	1	Precipitación	0
1680	7	Sololá	712	San Antonio Palopó	9	San Antonio Palopo	8	Agosto	2023-08-16T00:00:00	2024-11-08T03:00:00	8	Radiación solar	0
1681	7	Sololá	712	San Antonio Palopó	9	San Antonio Palopo	8	Agosto	2023-08-16T00:00:00	2024-11-08T04:00:00	2	Temperatura media	19
1682	7	Sololá	712	San Antonio Palopó	9	San Antonio Palopo	8	Agosto	2023-08-16T00:00:00	2024-11-08T04:00:00	4	Temperatura máxima	19.1
1683	7	Sololá	712	San Antonio Palopó	9	San Antonio Palopo	8	Agosto	2023-08-16T00:00:00	2024-11-08T04:00:00	3	Temperatura mínima	18.8
1684	7	Sololá	712	San Antonio Palopó	9	San Antonio Palopo	8	Agosto	2023-08-16T00:00:00	2024-11-08T04:00:00	5	Humedad	73
1685	7	Sololá	712	San Antonio Palopó	9	San Antonio Palopo	8	Agosto	2023-08-16T00:00:00	2024-11-08T04:00:00	6	Velocidad del viento	11.3
1686	7	Sololá	712	San Antonio Palopó	9	San Antonio Palopo	8	Agosto	2023-08-16T00:00:00	2024-11-08T04:00:00	7	Dirección del viento	11.27
1687	7	Sololá	712	San Antonio Palopó	9	San Antonio Palopo	8	Agosto	2023-08-16T00:00:00	2024-11-08T04:00:00	1	Precipitación	0
1688	7	Sololá	712	San Antonio Palopó	9	San Antonio Palopo	8	Agosto	2023-08-16T00:00:00	2024-11-08T04:00:00	8	Radiación solar	0
1689	7	Sololá	712	San Antonio Palopó	9	San Antonio Palopo	8	Agosto	2023-08-16T00:00:00	2024-11-08T05:00:00	2	Temperatura media	19.4
1690	7	Sololá	712	San Antonio Palopó	9	San Antonio Palopo	8	Agosto	2023-08-16T00:00:00	2024-11-08T05:00:00	4	Temperatura máxima	19.7
1691	7	Sololá	712	San Antonio Palopó	9	San Antonio Palopo	8	Agosto	2023-08-16T00:00:00	2024-11-08T05:00:00	3	Temperatura mínima	19
1692	7	Sololá	712	San Antonio Palopó	9	San Antonio Palopo	8	Agosto	2023-08-16T00:00:00	2024-11-08T05:00:00	5	Humedad	69
1693	7	Sololá	712	San Antonio Palopó	9	San Antonio Palopo	8	Agosto	2023-08-16T00:00:00	2024-11-08T05:00:00	6	Velocidad del viento	8
1694	7	Sololá	712	San Antonio Palopó	9	San Antonio Palopo	8	Agosto	2023-08-16T00:00:00	2024-11-08T05:00:00	7	Dirección del viento	8.05
1695	7	Sololá	712	San Antonio Palopó	9	San Antonio Palopo	8	Agosto	2023-08-16T00:00:00	2024-11-08T05:00:00	1	Precipitación	0
1696	7	Sololá	712	San Antonio Palopó	9	San Antonio Palopo	8	Agosto	2023-08-16T00:00:00	2024-11-08T05:00:00	8	Radiación solar	0
1697	7	Sololá	712	San Antonio Palopó	9	San Antonio Palopo	8	Agosto	2023-08-16T00:00:00	2024-11-08T06:00:00	2	Temperatura media	20.1
1698	7	Sololá	712	San Antonio Palopó	9	San Antonio Palopo	8	Agosto	2023-08-16T00:00:00	2024-11-08T06:00:00	4	Temperatura máxima	20.1
1699	7	Sololá	712	San Antonio Palopó	9	San Antonio Palopo	8	Agosto	2023-08-16T00:00:00	2024-11-08T06:00:00	3	Temperatura mínima	19.4
1700	7	Sololá	712	San Antonio Palopó	9	San Antonio Palopo	8	Agosto	2023-08-16T00:00:00	2024-11-08T06:00:00	5	Humedad	65
1701	7	Sololá	712	San Antonio Palopó	9	San Antonio Palopo	8	Agosto	2023-08-16T00:00:00	2024-11-08T06:00:00	6	Velocidad del viento	8
1702	7	Sololá	712	San Antonio Palopó	9	San Antonio Palopo	8	Agosto	2023-08-16T00:00:00	2024-11-08T06:00:00	7	Dirección del viento	8.05
1703	7	Sololá	712	San Antonio Palopó	9	San Antonio Palopo	8	Agosto	2023-08-16T00:00:00	2024-11-08T06:00:00	1	Precipitación	0
1704	7	Sololá	712	San Antonio Palopó	9	San Antonio Palopo	8	Agosto	2023-08-16T00:00:00	2024-11-08T06:00:00	8	Radiación solar	1
1705	7	Sololá	712	San Antonio Palopó	9	San Antonio Palopo	8	Agosto	2023-08-16T00:00:00	2024-11-08T07:00:00	2	Temperatura media	19.9
1706	7	Sololá	712	San Antonio Palopó	9	San Antonio Palopo	8	Agosto	2023-08-16T00:00:00	2024-11-08T07:00:00	4	Temperatura máxima	20.1
1707	7	Sololá	712	San Antonio Palopó	9	San Antonio Palopo	8	Agosto	2023-08-16T00:00:00	2024-11-08T07:00:00	3	Temperatura mínima	19.3
1708	7	Sololá	712	San Antonio Palopó	9	San Antonio Palopo	8	Agosto	2023-08-16T00:00:00	2024-11-08T07:00:00	5	Humedad	67
1709	7	Sololá	712	San Antonio Palopó	9	San Antonio Palopo	8	Agosto	2023-08-16T00:00:00	2024-11-08T07:00:00	6	Velocidad del viento	11.3
1710	7	Sololá	712	San Antonio Palopó	9	San Antonio Palopo	8	Agosto	2023-08-16T00:00:00	2024-11-08T07:00:00	7	Dirección del viento	11.27
1711	7	Sololá	712	San Antonio Palopó	9	San Antonio Palopo	8	Agosto	2023-08-16T00:00:00	2024-11-08T07:00:00	1	Precipitación	0
1712	7	Sololá	712	San Antonio Palopó	9	San Antonio Palopo	8	Agosto	2023-08-16T00:00:00	2024-11-08T07:00:00	8	Radiación solar	46
1713	7	Sololá	712	San Antonio Palopó	9	San Antonio Palopo	8	Agosto	2023-08-16T00:00:00	2024-11-08T08:00:00	2	Temperatura media	21.1
1714	7	Sololá	712	San Antonio Palopó	9	San Antonio Palopo	8	Agosto	2023-08-16T00:00:00	2024-11-08T08:00:00	4	Temperatura máxima	21.1
1715	7	Sololá	712	San Antonio Palopó	9	San Antonio Palopo	8	Agosto	2023-08-16T00:00:00	2024-11-08T08:00:00	3	Temperatura mínima	19.9
1716	7	Sololá	712	San Antonio Palopó	9	San Antonio Palopo	8	Agosto	2023-08-16T00:00:00	2024-11-08T08:00:00	5	Humedad	66
1717	7	Sololá	712	San Antonio Palopó	9	San Antonio Palopo	8	Agosto	2023-08-16T00:00:00	2024-11-08T08:00:00	6	Velocidad del viento	9.7
1718	7	Sololá	712	San Antonio Palopó	9	San Antonio Palopo	8	Agosto	2023-08-16T00:00:00	2024-11-08T08:00:00	7	Dirección del viento	9.66
1719	7	Sololá	712	San Antonio Palopó	9	San Antonio Palopo	8	Agosto	2023-08-16T00:00:00	2024-11-08T08:00:00	1	Precipitación	0
1720	7	Sololá	712	San Antonio Palopó	9	San Antonio Palopo	8	Agosto	2023-08-16T00:00:00	2024-11-08T08:00:00	8	Radiación solar	153
1721	7	Sololá	712	San Antonio Palopó	9	San Antonio Palopo	8	Agosto	2023-08-16T00:00:00	2024-11-08T09:00:00	2	Temperatura media	22.4
1722	7	Sololá	712	San Antonio Palopó	9	San Antonio Palopo	8	Agosto	2023-08-16T00:00:00	2024-11-08T09:00:00	4	Temperatura máxima	22.7
1723	7	Sololá	712	San Antonio Palopó	9	San Antonio Palopo	8	Agosto	2023-08-16T00:00:00	2024-11-08T09:00:00	3	Temperatura mínima	21.1
1724	7	Sololá	712	San Antonio Palopó	9	San Antonio Palopo	8	Agosto	2023-08-16T00:00:00	2024-11-08T09:00:00	5	Humedad	64
1725	7	Sololá	712	San Antonio Palopó	9	San Antonio Palopo	8	Agosto	2023-08-16T00:00:00	2024-11-08T09:00:00	6	Velocidad del viento	1.6
1726	7	Sololá	712	San Antonio Palopó	9	San Antonio Palopo	8	Agosto	2023-08-16T00:00:00	2024-11-08T09:00:00	7	Dirección del viento	1.61
1727	7	Sololá	712	San Antonio Palopó	9	San Antonio Palopo	8	Agosto	2023-08-16T00:00:00	2024-11-08T09:00:00	1	Precipitación	0
1728	7	Sololá	712	San Antonio Palopó	9	San Antonio Palopo	8	Agosto	2023-08-16T00:00:00	2024-11-08T09:00:00	8	Radiación solar	419
1729	7	Sololá	712	San Antonio Palopó	9	San Antonio Palopo	8	Agosto	2023-08-16T00:00:00	2024-11-08T10:00:00	2	Temperatura media	23.8
1730	7	Sololá	712	San Antonio Palopó	9	San Antonio Palopo	8	Agosto	2023-08-16T00:00:00	2024-11-08T10:00:00	4	Temperatura máxima	23.8
1731	7	Sololá	712	San Antonio Palopó	9	San Antonio Palopo	8	Agosto	2023-08-16T00:00:00	2024-11-08T10:00:00	3	Temperatura mínima	22.4
1732	7	Sololá	712	San Antonio Palopó	9	San Antonio Palopo	8	Agosto	2023-08-16T00:00:00	2024-11-08T10:00:00	5	Humedad	60
1733	7	Sololá	712	San Antonio Palopó	9	San Antonio Palopo	8	Agosto	2023-08-16T00:00:00	2024-11-08T10:00:00	6	Velocidad del viento	1.6
1734	7	Sololá	712	San Antonio Palopó	9	San Antonio Palopo	8	Agosto	2023-08-16T00:00:00	2024-11-08T10:00:00	7	Dirección del viento	1.61
1735	7	Sololá	712	San Antonio Palopó	9	San Antonio Palopo	8	Agosto	2023-08-16T00:00:00	2024-11-08T10:00:00	1	Precipitación	0
1736	7	Sololá	712	San Antonio Palopó	9	San Antonio Palopo	8	Agosto	2023-08-16T00:00:00	2024-11-08T10:00:00	8	Radiación solar	686
1737	7	Sololá	712	San Antonio Palopó	9	San Antonio Palopo	8	Agosto	2023-08-16T00:00:00	2024-11-08T11:00:00	2	Temperatura media	24.7
1738	7	Sololá	712	San Antonio Palopó	9	San Antonio Palopo	8	Agosto	2023-08-16T00:00:00	2024-11-08T11:00:00	4	Temperatura máxima	24.9
1739	7	Sololá	712	San Antonio Palopó	9	San Antonio Palopo	8	Agosto	2023-08-16T00:00:00	2024-11-08T11:00:00	3	Temperatura mínima	23.5
1740	7	Sololá	712	San Antonio Palopó	9	San Antonio Palopo	8	Agosto	2023-08-16T00:00:00	2024-11-08T11:00:00	5	Humedad	58
1741	7	Sololá	712	San Antonio Palopó	9	San Antonio Palopo	8	Agosto	2023-08-16T00:00:00	2024-11-08T11:00:00	6	Velocidad del viento	3.2
1742	7	Sololá	712	San Antonio Palopó	9	San Antonio Palopo	8	Agosto	2023-08-16T00:00:00	2024-11-08T11:00:00	7	Dirección del viento	3.22
1743	7	Sololá	712	San Antonio Palopó	9	San Antonio Palopo	8	Agosto	2023-08-16T00:00:00	2024-11-08T11:00:00	1	Precipitación	0
1744	7	Sololá	712	San Antonio Palopó	9	San Antonio Palopo	8	Agosto	2023-08-16T00:00:00	2024-11-08T11:00:00	8	Radiación solar	957
1745	7	Sololá	712	San Antonio Palopó	9	San Antonio Palopo	8	Agosto	2023-08-16T00:00:00	2024-11-08T12:00:00	2	Temperatura media	25.4
1746	7	Sololá	712	San Antonio Palopó	9	San Antonio Palopo	8	Agosto	2023-08-16T00:00:00	2024-11-08T12:00:00	4	Temperatura máxima	25.9
1747	7	Sololá	712	San Antonio Palopó	9	San Antonio Palopo	8	Agosto	2023-08-16T00:00:00	2024-11-08T12:00:00	3	Temperatura mínima	24.6
1748	7	Sololá	712	San Antonio Palopó	9	San Antonio Palopo	8	Agosto	2023-08-16T00:00:00	2024-11-08T12:00:00	5	Humedad	63
1749	7	Sololá	712	San Antonio Palopó	9	San Antonio Palopo	8	Agosto	2023-08-16T00:00:00	2024-11-08T12:00:00	6	Velocidad del viento	8
1750	7	Sololá	712	San Antonio Palopó	9	San Antonio Palopo	8	Agosto	2023-08-16T00:00:00	2024-11-08T12:00:00	7	Dirección del viento	8.05
1751	7	Sololá	712	San Antonio Palopó	9	San Antonio Palopo	8	Agosto	2023-08-16T00:00:00	2024-11-08T12:00:00	1	Precipitación	0
1752	7	Sololá	712	San Antonio Palopó	9	San Antonio Palopo	8	Agosto	2023-08-16T00:00:00	2024-11-08T12:00:00	8	Radiación solar	957
1753	7	Sololá	712	San Antonio Palopó	9	San Antonio Palopo	8	Agosto	2023-08-16T00:00:00	2024-11-08T13:00:00	2	Temperatura media	24.1
1754	7	Sololá	712	San Antonio Palopó	9	San Antonio Palopo	8	Agosto	2023-08-16T00:00:00	2024-11-08T13:00:00	4	Temperatura máxima	25.4
1755	7	Sololá	712	San Antonio Palopó	9	San Antonio Palopo	8	Agosto	2023-08-16T00:00:00	2024-11-08T13:00:00	3	Temperatura mínima	23.2
1756	7	Sololá	712	San Antonio Palopó	9	San Antonio Palopo	8	Agosto	2023-08-16T00:00:00	2024-11-08T13:00:00	5	Humedad	68
1757	7	Sololá	712	San Antonio Palopó	9	San Antonio Palopo	8	Agosto	2023-08-16T00:00:00	2024-11-08T13:00:00	6	Velocidad del viento	14.5
1758	7	Sololá	712	San Antonio Palopó	9	San Antonio Palopo	8	Agosto	2023-08-16T00:00:00	2024-11-08T13:00:00	7	Dirección del viento	14.48
1759	7	Sololá	712	San Antonio Palopó	9	San Antonio Palopo	8	Agosto	2023-08-16T00:00:00	2024-11-08T13:00:00	1	Precipitación	0
1760	7	Sololá	712	San Antonio Palopó	9	San Antonio Palopo	8	Agosto	2023-08-16T00:00:00	2024-11-08T13:00:00	8	Radiación solar	544
1761	7	Sololá	712	San Antonio Palopó	9	San Antonio Palopo	8	Agosto	2023-08-16T00:00:00	2024-11-08T14:00:00	2	Temperatura media	25.1
1762	7	Sololá	712	San Antonio Palopó	9	San Antonio Palopo	8	Agosto	2023-08-16T00:00:00	2024-11-08T14:00:00	4	Temperatura máxima	25.4
1763	7	Sololá	712	San Antonio Palopó	9	San Antonio Palopo	8	Agosto	2023-08-16T00:00:00	2024-11-08T14:00:00	3	Temperatura mínima	23.9
1764	7	Sololá	712	San Antonio Palopó	9	San Antonio Palopo	8	Agosto	2023-08-16T00:00:00	2024-11-08T14:00:00	5	Humedad	70
1765	7	Sololá	712	San Antonio Palopó	9	San Antonio Palopo	8	Agosto	2023-08-16T00:00:00	2024-11-08T14:00:00	6	Velocidad del viento	9.7
1766	7	Sololá	712	San Antonio Palopó	9	San Antonio Palopo	8	Agosto	2023-08-16T00:00:00	2024-11-08T14:00:00	7	Dirección del viento	9.66
1767	7	Sololá	712	San Antonio Palopó	9	San Antonio Palopo	8	Agosto	2023-08-16T00:00:00	2024-11-08T14:00:00	1	Precipitación	0
1768	7	Sololá	712	San Antonio Palopó	9	San Antonio Palopo	8	Agosto	2023-08-16T00:00:00	2024-11-08T14:00:00	8	Radiación solar	784
1769	7	Sololá	712	San Antonio Palopó	9	San Antonio Palopo	8	Agosto	2023-08-16T00:00:00	2024-11-08T15:00:00	2	Temperatura media	23.2
1770	7	Sololá	712	San Antonio Palopó	9	San Antonio Palopo	8	Agosto	2023-08-16T00:00:00	2024-11-08T15:00:00	4	Temperatura máxima	25.1
1771	7	Sololá	712	San Antonio Palopó	9	San Antonio Palopo	8	Agosto	2023-08-16T00:00:00	2024-11-08T15:00:00	3	Temperatura mínima	23.1
1772	7	Sololá	712	San Antonio Palopó	9	San Antonio Palopo	8	Agosto	2023-08-16T00:00:00	2024-11-08T15:00:00	5	Humedad	74
1773	7	Sololá	712	San Antonio Palopó	9	San Antonio Palopo	8	Agosto	2023-08-16T00:00:00	2024-11-08T15:00:00	6	Velocidad del viento	6.4
1774	7	Sololá	712	San Antonio Palopó	9	San Antonio Palopo	8	Agosto	2023-08-16T00:00:00	2024-11-08T15:00:00	7	Dirección del viento	6.44
1775	7	Sololá	712	San Antonio Palopó	9	San Antonio Palopo	8	Agosto	2023-08-16T00:00:00	2024-11-08T15:00:00	1	Precipitación	0
1776	7	Sololá	712	San Antonio Palopó	9	San Antonio Palopo	8	Agosto	2023-08-16T00:00:00	2024-11-08T15:00:00	8	Radiación solar	300
1777	7	Sololá	712	San Antonio Palopó	9	San Antonio Palopo	8	Agosto	2023-08-16T00:00:00	2024-11-08T16:00:00	2	Temperatura media	22.4
1778	7	Sololá	712	San Antonio Palopó	9	San Antonio Palopo	8	Agosto	2023-08-16T00:00:00	2024-11-08T16:00:00	4	Temperatura máxima	23.9
1779	7	Sololá	712	San Antonio Palopó	9	San Antonio Palopo	8	Agosto	2023-08-16T00:00:00	2024-11-08T16:00:00	3	Temperatura mínima	22.4
1780	7	Sololá	712	San Antonio Palopó	9	San Antonio Palopo	8	Agosto	2023-08-16T00:00:00	2024-11-08T16:00:00	5	Humedad	76
1781	7	Sololá	712	San Antonio Palopó	9	San Antonio Palopo	8	Agosto	2023-08-16T00:00:00	2024-11-08T16:00:00	6	Velocidad del viento	4.8
1782	7	Sololá	712	San Antonio Palopó	9	San Antonio Palopo	8	Agosto	2023-08-16T00:00:00	2024-11-08T16:00:00	7	Dirección del viento	4.83
1783	7	Sololá	712	San Antonio Palopó	9	San Antonio Palopo	8	Agosto	2023-08-16T00:00:00	2024-11-08T16:00:00	1	Precipitación	0
1784	7	Sololá	712	San Antonio Palopó	9	San Antonio Palopo	8	Agosto	2023-08-16T00:00:00	2024-11-08T16:00:00	8	Radiación solar	264
1785	7	Sololá	712	San Antonio Palopó	9	San Antonio Palopo	8	Agosto	2023-08-16T00:00:00	2024-11-08T17:00:00	2	Temperatura media	21.8
1786	7	Sololá	712	San Antonio Palopó	9	San Antonio Palopo	8	Agosto	2023-08-16T00:00:00	2024-11-08T17:00:00	4	Temperatura máxima	22.4
1787	7	Sololá	712	San Antonio Palopó	9	San Antonio Palopo	8	Agosto	2023-08-16T00:00:00	2024-11-08T17:00:00	3	Temperatura mínima	21.8
1788	7	Sololá	712	San Antonio Palopó	9	San Antonio Palopo	8	Agosto	2023-08-16T00:00:00	2024-11-08T17:00:00	5	Humedad	78
1789	7	Sololá	712	San Antonio Palopó	9	San Antonio Palopo	8	Agosto	2023-08-16T00:00:00	2024-11-08T17:00:00	6	Velocidad del viento	3.2
1790	7	Sololá	712	San Antonio Palopó	9	San Antonio Palopo	8	Agosto	2023-08-16T00:00:00	2024-11-08T17:00:00	7	Dirección del viento	3.22
1791	7	Sololá	712	San Antonio Palopó	9	San Antonio Palopo	8	Agosto	2023-08-16T00:00:00	2024-11-08T17:00:00	1	Precipitación	0
1792	7	Sololá	712	San Antonio Palopó	9	San Antonio Palopo	8	Agosto	2023-08-16T00:00:00	2024-11-08T17:00:00	8	Radiación solar	96
1793	7	Sololá	712	San Antonio Palopó	9	San Antonio Palopo	8	Agosto	2023-08-16T00:00:00	2024-11-08T18:00:00	2	Temperatura media	20.9
1794	7	Sololá	712	San Antonio Palopó	9	San Antonio Palopo	8	Agosto	2023-08-16T00:00:00	2024-11-08T18:00:00	4	Temperatura máxima	21.8
1795	7	Sololá	712	San Antonio Palopó	9	San Antonio Palopo	8	Agosto	2023-08-16T00:00:00	2024-11-08T18:00:00	3	Temperatura mínima	20.9
1796	7	Sololá	712	San Antonio Palopó	9	San Antonio Palopo	8	Agosto	2023-08-16T00:00:00	2024-11-08T18:00:00	5	Humedad	81
1797	7	Sololá	712	San Antonio Palopó	9	San Antonio Palopo	8	Agosto	2023-08-16T00:00:00	2024-11-08T18:00:00	6	Velocidad del viento	4.8
1798	7	Sololá	712	San Antonio Palopó	9	San Antonio Palopo	8	Agosto	2023-08-16T00:00:00	2024-11-08T18:00:00	7	Dirección del viento	4.83
1799	7	Sololá	712	San Antonio Palopó	9	San Antonio Palopo	8	Agosto	2023-08-16T00:00:00	2024-11-08T18:00:00	1	Precipitación	0
1800	7	Sololá	712	San Antonio Palopó	9	San Antonio Palopo	8	Agosto	2023-08-16T00:00:00	2024-11-08T18:00:00	8	Radiación solar	30
1801	7	Sololá	712	San Antonio Palopó	9	San Antonio Palopo	8	Agosto	2023-08-16T00:00:00	2024-11-08T19:00:00	2	Temperatura media	20.8
1802	7	Sololá	712	San Antonio Palopó	9	San Antonio Palopo	8	Agosto	2023-08-16T00:00:00	2024-11-08T19:00:00	4	Temperatura máxima	20.9
1803	7	Sololá	712	San Antonio Palopó	9	San Antonio Palopo	8	Agosto	2023-08-16T00:00:00	2024-11-08T19:00:00	3	Temperatura mínima	20.7
1804	7	Sololá	712	San Antonio Palopó	9	San Antonio Palopo	8	Agosto	2023-08-16T00:00:00	2024-11-08T19:00:00	5	Humedad	81
1805	7	Sololá	712	San Antonio Palopó	9	San Antonio Palopo	8	Agosto	2023-08-16T00:00:00	2024-11-08T19:00:00	6	Velocidad del viento	1.6
1806	7	Sololá	712	San Antonio Palopó	9	San Antonio Palopo	8	Agosto	2023-08-16T00:00:00	2024-11-08T19:00:00	7	Dirección del viento	1.61
1807	7	Sololá	712	San Antonio Palopó	9	San Antonio Palopo	8	Agosto	2023-08-16T00:00:00	2024-11-08T19:00:00	1	Precipitación	0
1808	7	Sololá	712	San Antonio Palopó	9	San Antonio Palopo	8	Agosto	2023-08-16T00:00:00	2024-11-08T19:00:00	8	Radiación solar	0
1809	7	Sololá	712	San Antonio Palopó	9	San Antonio Palopo	8	Agosto	2023-08-16T00:00:00	2024-11-08T20:00:00	2	Temperatura media	20.3
1810	7	Sololá	712	San Antonio Palopó	9	San Antonio Palopo	8	Agosto	2023-08-16T00:00:00	2024-11-08T20:00:00	4	Temperatura máxima	20.8
1811	7	Sololá	712	San Antonio Palopó	9	San Antonio Palopo	8	Agosto	2023-08-16T00:00:00	2024-11-08T20:00:00	3	Temperatura mínima	20.3
1812	7	Sololá	712	San Antonio Palopó	9	San Antonio Palopo	8	Agosto	2023-08-16T00:00:00	2024-11-08T20:00:00	5	Humedad	80
1813	7	Sololá	712	San Antonio Palopó	9	San Antonio Palopo	8	Agosto	2023-08-16T00:00:00	2024-11-08T20:00:00	6	Velocidad del viento	1.6
1814	7	Sololá	712	San Antonio Palopó	9	San Antonio Palopo	8	Agosto	2023-08-16T00:00:00	2024-11-08T20:00:00	7	Dirección del viento	1.61
1815	7	Sololá	712	San Antonio Palopó	9	San Antonio Palopo	8	Agosto	2023-08-16T00:00:00	2024-11-08T20:00:00	1	Precipitación	0
1816	7	Sololá	712	San Antonio Palopó	9	San Antonio Palopo	8	Agosto	2023-08-16T00:00:00	2024-11-08T20:00:00	8	Radiación solar	0
1817	7	Sololá	712	San Antonio Palopó	9	San Antonio Palopo	8	Agosto	2023-08-16T00:00:00	2024-11-08T21:00:00	2	Temperatura media	20.9
1818	7	Sololá	712	San Antonio Palopó	9	San Antonio Palopo	8	Agosto	2023-08-16T00:00:00	2024-11-08T21:00:00	4	Temperatura máxima	20.9
1819	7	Sololá	712	San Antonio Palopó	9	San Antonio Palopo	8	Agosto	2023-08-16T00:00:00	2024-11-08T21:00:00	3	Temperatura mínima	20.1
1820	7	Sololá	712	San Antonio Palopó	9	San Antonio Palopo	8	Agosto	2023-08-16T00:00:00	2024-11-08T21:00:00	5	Humedad	72
1821	7	Sololá	712	San Antonio Palopó	9	San Antonio Palopo	8	Agosto	2023-08-16T00:00:00	2024-11-08T21:00:00	6	Velocidad del viento	3.2
1822	7	Sololá	712	San Antonio Palopó	9	San Antonio Palopo	8	Agosto	2023-08-16T00:00:00	2024-11-08T21:00:00	7	Dirección del viento	3.22
1823	7	Sololá	712	San Antonio Palopó	9	San Antonio Palopo	8	Agosto	2023-08-16T00:00:00	2024-11-08T21:00:00	1	Precipitación	0
1824	7	Sololá	712	San Antonio Palopó	9	San Antonio Palopo	8	Agosto	2023-08-16T00:00:00	2024-11-08T21:00:00	8	Radiación solar	0
1825	7	Sololá	712	San Antonio Palopó	9	San Antonio Palopo	8	Agosto	2023-08-16T00:00:00	2024-11-08T22:00:00	2	Temperatura media	21.1
1826	7	Sololá	712	San Antonio Palopó	9	San Antonio Palopo	8	Agosto	2023-08-16T00:00:00	2024-11-08T22:00:00	4	Temperatura máxima	21.2
1827	7	Sololá	712	San Antonio Palopó	9	San Antonio Palopo	8	Agosto	2023-08-16T00:00:00	2024-11-08T22:00:00	3	Temperatura mínima	20.6
1828	7	Sololá	712	San Antonio Palopó	9	San Antonio Palopo	8	Agosto	2023-08-16T00:00:00	2024-11-08T22:00:00	5	Humedad	71
1829	7	Sololá	712	San Antonio Palopó	9	San Antonio Palopo	8	Agosto	2023-08-16T00:00:00	2024-11-08T22:00:00	6	Velocidad del viento	8
1830	7	Sololá	712	San Antonio Palopó	9	San Antonio Palopo	8	Agosto	2023-08-16T00:00:00	2024-11-08T22:00:00	7	Dirección del viento	8.05
1831	7	Sololá	712	San Antonio Palopó	9	San Antonio Palopo	8	Agosto	2023-08-16T00:00:00	2024-11-08T22:00:00	1	Precipitación	0
1832	7	Sololá	712	San Antonio Palopó	9	San Antonio Palopo	8	Agosto	2023-08-16T00:00:00	2024-11-08T22:00:00	8	Radiación solar	0
1833	7	Sololá	712	San Antonio Palopó	9	San Antonio Palopo	8	Agosto	2023-08-16T00:00:00	2024-11-08T23:00:00	2	Temperatura media	20.4
1834	7	Sololá	712	San Antonio Palopó	9	San Antonio Palopo	8	Agosto	2023-08-16T00:00:00	2024-11-08T23:00:00	4	Temperatura máxima	21.1
1835	7	Sololá	712	San Antonio Palopó	9	San Antonio Palopo	8	Agosto	2023-08-16T00:00:00	2024-11-08T23:00:00	3	Temperatura mínima	20.4
1836	7	Sololá	712	San Antonio Palopó	9	San Antonio Palopo	8	Agosto	2023-08-16T00:00:00	2024-11-08T23:00:00	5	Humedad	73
1837	7	Sololá	712	San Antonio Palopó	9	San Antonio Palopo	8	Agosto	2023-08-16T00:00:00	2024-11-08T23:00:00	6	Velocidad del viento	14.5
1838	7	Sololá	712	San Antonio Palopó	9	San Antonio Palopo	8	Agosto	2023-08-16T00:00:00	2024-11-08T23:00:00	7	Dirección del viento	14.48
1839	7	Sololá	712	San Antonio Palopó	9	San Antonio Palopo	8	Agosto	2023-08-16T00:00:00	2024-11-08T23:00:00	1	Precipitación	0
1840	7	Sololá	712	San Antonio Palopó	9	San Antonio Palopo	8	Agosto	2023-08-16T00:00:00	2024-11-08T23:00:00	8	Radiación solar	0
1841	7	Sololá	712	San Antonio Palopó	9	San Antonio Palopo	8	Agosto	2023-08-17T00:00:00	2024-11-08T00:00:00	2	Temperatura media	20.1
1842	7	Sololá	712	San Antonio Palopó	9	San Antonio Palopo	8	Agosto	2023-08-17T00:00:00	2024-11-08T00:00:00	4	Temperatura máxima	20.4
1843	7	Sololá	712	San Antonio Palopó	9	San Antonio Palopo	8	Agosto	2023-08-17T00:00:00	2024-11-08T00:00:00	3	Temperatura mínima	20.1
1844	7	Sololá	712	San Antonio Palopó	9	San Antonio Palopo	8	Agosto	2023-08-17T00:00:00	2024-11-08T00:00:00	5	Humedad	73
1845	7	Sololá	712	San Antonio Palopó	9	San Antonio Palopo	8	Agosto	2023-08-17T00:00:00	2024-11-08T00:00:00	6	Velocidad del viento	11.3
1846	7	Sololá	712	San Antonio Palopó	9	San Antonio Palopo	8	Agosto	2023-08-17T00:00:00	2024-11-08T00:00:00	7	Dirección del viento	11.27
1847	7	Sololá	712	San Antonio Palopó	9	San Antonio Palopo	8	Agosto	2023-08-17T00:00:00	2024-11-08T00:00:00	1	Precipitación	0
1848	7	Sololá	712	San Antonio Palopó	9	San Antonio Palopo	8	Agosto	2023-08-17T00:00:00	2024-11-08T00:00:00	8	Radiación solar	0
1849	7	Sololá	712	San Antonio Palopó	9	San Antonio Palopo	8	Agosto	2023-08-17T00:00:00	2024-11-08T01:00:00	2	Temperatura media	19.8
1850	7	Sololá	712	San Antonio Palopó	9	San Antonio Palopo	8	Agosto	2023-08-17T00:00:00	2024-11-08T01:00:00	4	Temperatura máxima	20.3
1851	7	Sololá	712	San Antonio Palopó	9	San Antonio Palopo	8	Agosto	2023-08-17T00:00:00	2024-11-08T01:00:00	3	Temperatura mínima	19.8
1852	7	Sololá	712	San Antonio Palopó	9	San Antonio Palopo	8	Agosto	2023-08-17T00:00:00	2024-11-08T01:00:00	5	Humedad	73
1853	7	Sololá	712	San Antonio Palopó	9	San Antonio Palopo	8	Agosto	2023-08-17T00:00:00	2024-11-08T01:00:00	6	Velocidad del viento	8
1854	7	Sololá	712	San Antonio Palopó	9	San Antonio Palopo	8	Agosto	2023-08-17T00:00:00	2024-11-08T01:00:00	7	Dirección del viento	8.05
1855	7	Sololá	712	San Antonio Palopó	9	San Antonio Palopo	8	Agosto	2023-08-17T00:00:00	2024-11-08T01:00:00	1	Precipitación	0
1856	7	Sololá	712	San Antonio Palopó	9	San Antonio Palopo	8	Agosto	2023-08-17T00:00:00	2024-11-08T01:00:00	8	Radiación solar	0
1857	7	Sololá	712	San Antonio Palopó	9	San Antonio Palopo	8	Agosto	2023-08-17T00:00:00	2024-11-08T02:00:00	2	Temperatura media	19.8
1858	7	Sololá	712	San Antonio Palopó	9	San Antonio Palopo	8	Agosto	2023-08-17T00:00:00	2024-11-08T02:00:00	4	Temperatura máxima	20.1
1859	7	Sololá	712	San Antonio Palopó	9	San Antonio Palopo	8	Agosto	2023-08-17T00:00:00	2024-11-08T02:00:00	3	Temperatura mínima	19.7
1860	7	Sololá	712	San Antonio Palopó	9	San Antonio Palopo	8	Agosto	2023-08-17T00:00:00	2024-11-08T02:00:00	5	Humedad	72
1861	7	Sololá	712	San Antonio Palopó	9	San Antonio Palopo	8	Agosto	2023-08-17T00:00:00	2024-11-08T02:00:00	6	Velocidad del viento	9.7
1862	7	Sololá	712	San Antonio Palopó	9	San Antonio Palopo	8	Agosto	2023-08-17T00:00:00	2024-11-08T02:00:00	7	Dirección del viento	9.66
1863	7	Sololá	712	San Antonio Palopó	9	San Antonio Palopo	8	Agosto	2023-08-17T00:00:00	2024-11-08T02:00:00	1	Precipitación	0
1864	7	Sololá	712	San Antonio Palopó	9	San Antonio Palopo	8	Agosto	2023-08-17T00:00:00	2024-11-08T02:00:00	8	Radiación solar	0
1865	7	Sololá	712	San Antonio Palopó	9	San Antonio Palopo	8	Agosto	2023-08-17T00:00:00	2024-11-08T03:00:00	2	Temperatura media	19.3
1866	7	Sololá	712	San Antonio Palopó	9	San Antonio Palopo	8	Agosto	2023-08-17T00:00:00	2024-11-08T03:00:00	4	Temperatura máxima	19.8
1867	7	Sololá	712	San Antonio Palopó	9	San Antonio Palopo	8	Agosto	2023-08-17T00:00:00	2024-11-08T03:00:00	3	Temperatura mínima	19.3
1868	7	Sololá	712	San Antonio Palopó	9	San Antonio Palopo	8	Agosto	2023-08-17T00:00:00	2024-11-08T03:00:00	5	Humedad	73
1869	7	Sololá	712	San Antonio Palopó	9	San Antonio Palopo	8	Agosto	2023-08-17T00:00:00	2024-11-08T03:00:00	6	Velocidad del viento	8
1870	7	Sololá	712	San Antonio Palopó	9	San Antonio Palopo	8	Agosto	2023-08-17T00:00:00	2024-11-08T03:00:00	7	Dirección del viento	8.05
1871	7	Sololá	712	San Antonio Palopó	9	San Antonio Palopo	8	Agosto	2023-08-17T00:00:00	2024-11-08T03:00:00	1	Precipitación	0
1872	7	Sololá	712	San Antonio Palopó	9	San Antonio Palopo	8	Agosto	2023-08-17T00:00:00	2024-11-08T03:00:00	8	Radiación solar	0
1873	7	Sololá	712	San Antonio Palopó	9	San Antonio Palopo	8	Agosto	2023-08-17T00:00:00	2024-11-08T04:00:00	2	Temperatura media	18.9
1874	7	Sololá	712	San Antonio Palopó	9	San Antonio Palopo	8	Agosto	2023-08-17T00:00:00	2024-11-08T04:00:00	4	Temperatura máxima	19.3
1875	7	Sololá	712	San Antonio Palopó	9	San Antonio Palopo	8	Agosto	2023-08-17T00:00:00	2024-11-08T04:00:00	3	Temperatura mínima	18.7
1876	7	Sololá	712	San Antonio Palopó	9	San Antonio Palopo	8	Agosto	2023-08-17T00:00:00	2024-11-08T04:00:00	5	Humedad	73
1877	7	Sololá	712	San Antonio Palopó	9	San Antonio Palopo	8	Agosto	2023-08-17T00:00:00	2024-11-08T04:00:00	6	Velocidad del viento	8
1878	7	Sololá	712	San Antonio Palopó	9	San Antonio Palopo	8	Agosto	2023-08-17T00:00:00	2024-11-08T04:00:00	7	Dirección del viento	8.05
1879	7	Sololá	712	San Antonio Palopó	9	San Antonio Palopo	8	Agosto	2023-08-17T00:00:00	2024-11-08T04:00:00	1	Precipitación	0
1880	7	Sololá	712	San Antonio Palopó	9	San Antonio Palopo	8	Agosto	2023-08-17T00:00:00	2024-11-08T04:00:00	8	Radiación solar	0
1881	7	Sololá	712	San Antonio Palopó	9	San Antonio Palopo	8	Agosto	2023-08-17T00:00:00	2024-11-08T05:00:00	2	Temperatura media	18.9
1882	7	Sololá	712	San Antonio Palopó	9	San Antonio Palopo	8	Agosto	2023-08-17T00:00:00	2024-11-08T05:00:00	4	Temperatura máxima	19.2
1883	7	Sololá	712	San Antonio Palopó	9	San Antonio Palopo	8	Agosto	2023-08-17T00:00:00	2024-11-08T05:00:00	3	Temperatura mínima	18.7
1884	7	Sololá	712	San Antonio Palopó	9	San Antonio Palopo	8	Agosto	2023-08-17T00:00:00	2024-11-08T05:00:00	5	Humedad	73
1885	7	Sololá	712	San Antonio Palopó	9	San Antonio Palopo	8	Agosto	2023-08-17T00:00:00	2024-11-08T05:00:00	6	Velocidad del viento	9.7
1886	7	Sololá	712	San Antonio Palopó	9	San Antonio Palopo	8	Agosto	2023-08-17T00:00:00	2024-11-08T05:00:00	7	Dirección del viento	9.66
1887	7	Sololá	712	San Antonio Palopó	9	San Antonio Palopo	8	Agosto	2023-08-17T00:00:00	2024-11-08T05:00:00	1	Precipitación	0
1888	7	Sololá	712	San Antonio Palopó	9	San Antonio Palopo	8	Agosto	2023-08-17T00:00:00	2024-11-08T05:00:00	8	Radiación solar	0
1889	7	Sololá	712	San Antonio Palopó	9	San Antonio Palopo	8	Agosto	2023-08-17T00:00:00	2024-11-08T06:00:00	2	Temperatura media	18.7
1890	7	Sololá	712	San Antonio Palopó	9	San Antonio Palopo	8	Agosto	2023-08-17T00:00:00	2024-11-08T06:00:00	4	Temperatura máxima	19.1
1891	7	Sololá	712	San Antonio Palopó	9	San Antonio Palopo	8	Agosto	2023-08-17T00:00:00	2024-11-08T06:00:00	3	Temperatura mínima	18.7
1892	7	Sololá	712	San Antonio Palopó	9	San Antonio Palopo	8	Agosto	2023-08-17T00:00:00	2024-11-08T06:00:00	5	Humedad	73
1893	7	Sololá	712	San Antonio Palopó	9	San Antonio Palopo	8	Agosto	2023-08-17T00:00:00	2024-11-08T06:00:00	6	Velocidad del viento	9.7
1894	7	Sololá	712	San Antonio Palopó	9	San Antonio Palopo	8	Agosto	2023-08-17T00:00:00	2024-11-08T06:00:00	7	Dirección del viento	9.66
1895	7	Sololá	712	San Antonio Palopó	9	San Antonio Palopo	8	Agosto	2023-08-17T00:00:00	2024-11-08T06:00:00	1	Precipitación	0
1896	7	Sololá	712	San Antonio Palopó	9	San Antonio Palopo	8	Agosto	2023-08-17T00:00:00	2024-11-08T06:00:00	8	Radiación solar	0
1897	7	Sololá	712	San Antonio Palopó	9	San Antonio Palopo	8	Agosto	2023-08-17T00:00:00	2024-11-08T07:00:00	2	Temperatura media	19.2
1898	7	Sololá	712	San Antonio Palopó	9	San Antonio Palopo	8	Agosto	2023-08-17T00:00:00	2024-11-08T07:00:00	4	Temperatura máxima	19.3
1899	7	Sololá	712	San Antonio Palopó	9	San Antonio Palopo	8	Agosto	2023-08-17T00:00:00	2024-11-08T07:00:00	3	Temperatura mínima	18.6
1900	7	Sololá	712	San Antonio Palopó	9	San Antonio Palopo	8	Agosto	2023-08-17T00:00:00	2024-11-08T07:00:00	5	Humedad	72
1901	7	Sololá	712	San Antonio Palopó	9	San Antonio Palopo	8	Agosto	2023-08-17T00:00:00	2024-11-08T07:00:00	6	Velocidad del viento	12.9
1902	7	Sololá	712	San Antonio Palopó	9	San Antonio Palopo	8	Agosto	2023-08-17T00:00:00	2024-11-08T07:00:00	7	Dirección del viento	12.87
1903	7	Sololá	712	San Antonio Palopó	9	San Antonio Palopo	8	Agosto	2023-08-17T00:00:00	2024-11-08T07:00:00	1	Precipitación	0
1904	7	Sololá	712	San Antonio Palopó	9	San Antonio Palopo	8	Agosto	2023-08-17T00:00:00	2024-11-08T07:00:00	8	Radiación solar	17
1905	7	Sololá	712	San Antonio Palopó	9	San Antonio Palopo	8	Agosto	2023-08-17T00:00:00	2024-11-08T08:00:00	2	Temperatura media	21.1
1906	7	Sololá	712	San Antonio Palopó	9	San Antonio Palopo	8	Agosto	2023-08-17T00:00:00	2024-11-08T08:00:00	4	Temperatura máxima	21.1
1907	7	Sololá	712	San Antonio Palopó	9	San Antonio Palopo	8	Agosto	2023-08-17T00:00:00	2024-11-08T08:00:00	3	Temperatura mínima	19.2
1908	7	Sololá	712	San Antonio Palopó	9	San Antonio Palopo	8	Agosto	2023-08-17T00:00:00	2024-11-08T08:00:00	5	Humedad	67
1909	7	Sololá	712	San Antonio Palopó	9	San Antonio Palopo	8	Agosto	2023-08-17T00:00:00	2024-11-08T08:00:00	6	Velocidad del viento	6.4
1910	7	Sololá	712	San Antonio Palopó	9	San Antonio Palopo	8	Agosto	2023-08-17T00:00:00	2024-11-08T08:00:00	7	Dirección del viento	6.44
1911	7	Sololá	712	San Antonio Palopó	9	San Antonio Palopo	8	Agosto	2023-08-17T00:00:00	2024-11-08T08:00:00	1	Precipitación	0
1912	7	Sololá	712	San Antonio Palopó	9	San Antonio Palopo	8	Agosto	2023-08-17T00:00:00	2024-11-08T08:00:00	8	Radiación solar	124
1913	7	Sololá	712	San Antonio Palopó	9	San Antonio Palopo	8	Agosto	2023-08-17T00:00:00	2024-11-08T09:00:00	2	Temperatura media	22
1914	7	Sololá	712	San Antonio Palopó	9	San Antonio Palopo	8	Agosto	2023-08-17T00:00:00	2024-11-08T09:00:00	4	Temperatura máxima	22
1915	7	Sololá	712	San Antonio Palopó	9	San Antonio Palopo	8	Agosto	2023-08-17T00:00:00	2024-11-08T09:00:00	3	Temperatura mínima	20.8
1916	7	Sololá	712	San Antonio Palopó	9	San Antonio Palopo	8	Agosto	2023-08-17T00:00:00	2024-11-08T09:00:00	5	Humedad	66
1917	7	Sololá	712	San Antonio Palopó	9	San Antonio Palopo	8	Agosto	2023-08-17T00:00:00	2024-11-08T09:00:00	6	Velocidad del viento	1.6
1918	7	Sololá	712	San Antonio Palopó	9	San Antonio Palopo	8	Agosto	2023-08-17T00:00:00	2024-11-08T09:00:00	7	Dirección del viento	1.61
1919	7	Sololá	712	San Antonio Palopó	9	San Antonio Palopo	8	Agosto	2023-08-17T00:00:00	2024-11-08T09:00:00	1	Precipitación	0
1920	7	Sololá	712	San Antonio Palopó	9	San Antonio Palopo	8	Agosto	2023-08-17T00:00:00	2024-11-08T09:00:00	8	Radiación solar	363
1921	7	Sololá	712	San Antonio Palopó	9	San Antonio Palopo	8	Agosto	2023-08-17T00:00:00	2024-11-08T10:00:00	2	Temperatura media	22.7
1922	7	Sololá	712	San Antonio Palopó	9	San Antonio Palopo	8	Agosto	2023-08-17T00:00:00	2024-11-08T10:00:00	4	Temperatura máxima	22.7
1923	7	Sololá	712	San Antonio Palopó	9	San Antonio Palopo	8	Agosto	2023-08-17T00:00:00	2024-11-08T10:00:00	3	Temperatura mínima	21.8
1924	7	Sololá	712	San Antonio Palopó	9	San Antonio Palopo	8	Agosto	2023-08-17T00:00:00	2024-11-08T10:00:00	5	Humedad	66
1925	7	Sololá	712	San Antonio Palopó	9	San Antonio Palopo	8	Agosto	2023-08-17T00:00:00	2024-11-08T10:00:00	6	Velocidad del viento	1.6
1926	7	Sololá	712	San Antonio Palopó	9	San Antonio Palopo	8	Agosto	2023-08-17T00:00:00	2024-11-08T10:00:00	7	Dirección del viento	1.61
1927	7	Sololá	712	San Antonio Palopó	9	San Antonio Palopo	8	Agosto	2023-08-17T00:00:00	2024-11-08T10:00:00	1	Precipitación	0
1928	7	Sololá	712	San Antonio Palopó	9	San Antonio Palopo	8	Agosto	2023-08-17T00:00:00	2024-11-08T10:00:00	8	Radiación solar	488
1929	7	Sololá	712	San Antonio Palopó	9	San Antonio Palopo	8	Agosto	2023-08-17T00:00:00	2024-11-08T11:00:00	2	Temperatura media	24.6
1930	7	Sololá	712	San Antonio Palopó	9	San Antonio Palopo	8	Agosto	2023-08-17T00:00:00	2024-11-08T11:00:00	4	Temperatura máxima	24.8
1931	7	Sololá	712	San Antonio Palopó	9	San Antonio Palopo	8	Agosto	2023-08-17T00:00:00	2024-11-08T11:00:00	3	Temperatura mínima	22.7
1932	7	Sololá	712	San Antonio Palopó	9	San Antonio Palopo	8	Agosto	2023-08-17T00:00:00	2024-11-08T11:00:00	5	Humedad	57
1933	7	Sololá	712	San Antonio Palopó	9	San Antonio Palopo	8	Agosto	2023-08-17T00:00:00	2024-11-08T11:00:00	6	Velocidad del viento	4.8
1934	7	Sololá	712	San Antonio Palopó	9	San Antonio Palopo	8	Agosto	2023-08-17T00:00:00	2024-11-08T11:00:00	7	Dirección del viento	4.83
1935	7	Sololá	712	San Antonio Palopó	9	San Antonio Palopo	8	Agosto	2023-08-17T00:00:00	2024-11-08T11:00:00	1	Precipitación	0
1936	7	Sololá	712	San Antonio Palopó	9	San Antonio Palopo	8	Agosto	2023-08-17T00:00:00	2024-11-08T11:00:00	8	Radiación solar	978
1937	7	Sololá	712	San Antonio Palopó	9	San Antonio Palopo	8	Agosto	2023-08-17T00:00:00	2024-11-08T12:00:00	2	Temperatura media	26.4
1938	7	Sololá	712	San Antonio Palopó	9	San Antonio Palopo	8	Agosto	2023-08-17T00:00:00	2024-11-08T12:00:00	4	Temperatura máxima	26.5
1939	7	Sololá	712	San Antonio Palopó	9	San Antonio Palopo	8	Agosto	2023-08-17T00:00:00	2024-11-08T12:00:00	3	Temperatura mínima	24.5
1940	7	Sololá	712	San Antonio Palopó	9	San Antonio Palopo	8	Agosto	2023-08-17T00:00:00	2024-11-08T12:00:00	5	Humedad	46
1941	7	Sololá	712	San Antonio Palopó	9	San Antonio Palopo	8	Agosto	2023-08-17T00:00:00	2024-11-08T12:00:00	6	Velocidad del viento	12.9
1942	7	Sololá	712	San Antonio Palopó	9	San Antonio Palopo	8	Agosto	2023-08-17T00:00:00	2024-11-08T12:00:00	7	Dirección del viento	12.87
1943	7	Sololá	712	San Antonio Palopó	9	San Antonio Palopo	8	Agosto	2023-08-17T00:00:00	2024-11-08T12:00:00	1	Precipitación	0
1944	7	Sololá	712	San Antonio Palopó	9	San Antonio Palopo	8	Agosto	2023-08-17T00:00:00	2024-11-08T12:00:00	8	Radiación solar	1027
1945	7	Sololá	712	San Antonio Palopó	9	San Antonio Palopo	8	Agosto	2023-08-17T00:00:00	2024-11-08T13:00:00	2	Temperatura media	25.4
1946	7	Sololá	712	San Antonio Palopó	9	San Antonio Palopo	8	Agosto	2023-08-17T00:00:00	2024-11-08T13:00:00	4	Temperatura máxima	26.9
1947	7	Sololá	712	San Antonio Palopó	9	San Antonio Palopo	8	Agosto	2023-08-17T00:00:00	2024-11-08T13:00:00	3	Temperatura mínima	24.9
1948	7	Sololá	712	San Antonio Palopó	9	San Antonio Palopo	8	Agosto	2023-08-17T00:00:00	2024-11-08T13:00:00	5	Humedad	60
1949	7	Sololá	712	San Antonio Palopó	9	San Antonio Palopo	8	Agosto	2023-08-17T00:00:00	2024-11-08T13:00:00	6	Velocidad del viento	12.9
1950	7	Sololá	712	San Antonio Palopó	9	San Antonio Palopo	8	Agosto	2023-08-17T00:00:00	2024-11-08T13:00:00	7	Dirección del viento	12.87
1951	7	Sololá	712	San Antonio Palopó	9	San Antonio Palopo	8	Agosto	2023-08-17T00:00:00	2024-11-08T13:00:00	1	Precipitación	0
1952	7	Sololá	712	San Antonio Palopó	9	San Antonio Palopo	8	Agosto	2023-08-17T00:00:00	2024-11-08T13:00:00	8	Radiación solar	969
1953	7	Sololá	712	San Antonio Palopó	9	San Antonio Palopo	8	Agosto	2023-08-17T00:00:00	2024-11-08T14:00:00	2	Temperatura media	24.1
1954	7	Sololá	712	San Antonio Palopó	9	San Antonio Palopo	8	Agosto	2023-08-17T00:00:00	2024-11-08T14:00:00	4	Temperatura máxima	25.8
1955	7	Sololá	712	San Antonio Palopó	9	San Antonio Palopo	8	Agosto	2023-08-17T00:00:00	2024-11-08T14:00:00	3	Temperatura mínima	23.8
1956	7	Sololá	712	San Antonio Palopó	9	San Antonio Palopo	8	Agosto	2023-08-17T00:00:00	2024-11-08T14:00:00	5	Humedad	67
1957	7	Sololá	712	San Antonio Palopó	9	San Antonio Palopo	8	Agosto	2023-08-17T00:00:00	2024-11-08T14:00:00	6	Velocidad del viento	12.9
1958	7	Sololá	712	San Antonio Palopó	9	San Antonio Palopo	8	Agosto	2023-08-17T00:00:00	2024-11-08T14:00:00	7	Dirección del viento	12.87
1959	7	Sololá	712	San Antonio Palopó	9	San Antonio Palopo	8	Agosto	2023-08-17T00:00:00	2024-11-08T14:00:00	1	Precipitación	0
1960	7	Sololá	712	San Antonio Palopó	9	San Antonio Palopo	8	Agosto	2023-08-17T00:00:00	2024-11-08T14:00:00	8	Radiación solar	528
1961	7	Sololá	712	San Antonio Palopó	9	San Antonio Palopo	8	Agosto	2023-08-17T00:00:00	2024-11-08T15:00:00	2	Temperatura media	25.3
1962	7	Sololá	712	San Antonio Palopó	9	San Antonio Palopo	8	Agosto	2023-08-17T00:00:00	2024-11-08T15:00:00	4	Temperatura máxima	25.6
1963	7	Sololá	712	San Antonio Palopó	9	San Antonio Palopo	8	Agosto	2023-08-17T00:00:00	2024-11-08T15:00:00	3	Temperatura mínima	24.1
1964	7	Sololá	712	San Antonio Palopó	9	San Antonio Palopo	8	Agosto	2023-08-17T00:00:00	2024-11-08T15:00:00	5	Humedad	62
1965	7	Sololá	712	San Antonio Palopó	9	San Antonio Palopo	8	Agosto	2023-08-17T00:00:00	2024-11-08T15:00:00	6	Velocidad del viento	12.9
1966	7	Sololá	712	San Antonio Palopó	9	San Antonio Palopo	8	Agosto	2023-08-17T00:00:00	2024-11-08T15:00:00	7	Dirección del viento	12.87
1967	7	Sololá	712	San Antonio Palopó	9	San Antonio Palopo	8	Agosto	2023-08-17T00:00:00	2024-11-08T15:00:00	1	Precipitación	0
1968	7	Sololá	712	San Antonio Palopó	9	San Antonio Palopo	8	Agosto	2023-08-17T00:00:00	2024-11-08T15:00:00	8	Radiación solar	775
1969	7	Sololá	712	San Antonio Palopó	9	San Antonio Palopo	8	Agosto	2023-08-17T00:00:00	2024-11-08T16:00:00	2	Temperatura media	25
1970	7	Sololá	712	San Antonio Palopó	9	San Antonio Palopo	8	Agosto	2023-08-17T00:00:00	2024-11-08T16:00:00	4	Temperatura máxima	25.4
1971	7	Sololá	712	San Antonio Palopó	9	San Antonio Palopo	8	Agosto	2023-08-17T00:00:00	2024-11-08T16:00:00	3	Temperatura mínima	24.1
1972	7	Sololá	712	San Antonio Palopó	9	San Antonio Palopo	8	Agosto	2023-08-17T00:00:00	2024-11-08T16:00:00	5	Humedad	70
1973	7	Sololá	712	San Antonio Palopó	9	San Antonio Palopo	8	Agosto	2023-08-17T00:00:00	2024-11-08T16:00:00	6	Velocidad del viento	6.4
1974	7	Sololá	712	San Antonio Palopó	9	San Antonio Palopo	8	Agosto	2023-08-17T00:00:00	2024-11-08T16:00:00	7	Dirección del viento	6.44
1975	7	Sololá	712	San Antonio Palopó	9	San Antonio Palopo	8	Agosto	2023-08-17T00:00:00	2024-11-08T16:00:00	1	Precipitación	0
1976	7	Sololá	712	San Antonio Palopó	9	San Antonio Palopo	8	Agosto	2023-08-17T00:00:00	2024-11-08T16:00:00	8	Radiación solar	421
1977	7	Sololá	712	San Antonio Palopó	9	San Antonio Palopo	8	Agosto	2023-08-17T00:00:00	2024-11-08T17:00:00	2	Temperatura media	24.6
1978	7	Sololá	712	San Antonio Palopó	9	San Antonio Palopo	8	Agosto	2023-08-17T00:00:00	2024-11-08T17:00:00	4	Temperatura máxima	25.8
1979	7	Sololá	712	San Antonio Palopó	9	San Antonio Palopo	8	Agosto	2023-08-17T00:00:00	2024-11-08T17:00:00	3	Temperatura mínima	24.6
1980	7	Sololá	712	San Antonio Palopó	9	San Antonio Palopo	8	Agosto	2023-08-17T00:00:00	2024-11-08T17:00:00	5	Humedad	71
1981	7	Sololá	712	San Antonio Palopó	9	San Antonio Palopo	8	Agosto	2023-08-17T00:00:00	2024-11-08T17:00:00	6	Velocidad del viento	4.8
1982	7	Sololá	712	San Antonio Palopó	9	San Antonio Palopo	8	Agosto	2023-08-17T00:00:00	2024-11-08T17:00:00	7	Dirección del viento	4.83
1983	7	Sololá	712	San Antonio Palopó	9	San Antonio Palopo	8	Agosto	2023-08-17T00:00:00	2024-11-08T17:00:00	1	Precipitación	0
1984	7	Sololá	712	San Antonio Palopó	9	San Antonio Palopo	8	Agosto	2023-08-17T00:00:00	2024-11-08T17:00:00	8	Radiación solar	381
1985	7	Sololá	712	San Antonio Palopó	9	San Antonio Palopo	8	Agosto	2023-08-17T00:00:00	2024-11-08T18:00:00	2	Temperatura media	22.6
1986	7	Sololá	712	San Antonio Palopó	9	San Antonio Palopo	8	Agosto	2023-08-17T00:00:00	2024-11-08T18:00:00	4	Temperatura máxima	24.6
1987	7	Sololá	712	San Antonio Palopó	9	San Antonio Palopo	8	Agosto	2023-08-17T00:00:00	2024-11-08T18:00:00	3	Temperatura mínima	22.6
1988	7	Sololá	712	San Antonio Palopó	9	San Antonio Palopo	8	Agosto	2023-08-17T00:00:00	2024-11-08T18:00:00	5	Humedad	78
1989	7	Sololá	712	San Antonio Palopó	9	San Antonio Palopo	8	Agosto	2023-08-17T00:00:00	2024-11-08T18:00:00	6	Velocidad del viento	8
1990	7	Sololá	712	San Antonio Palopó	9	San Antonio Palopo	8	Agosto	2023-08-17T00:00:00	2024-11-08T18:00:00	7	Dirección del viento	8.05
1991	7	Sololá	712	San Antonio Palopó	9	San Antonio Palopo	8	Agosto	2023-08-17T00:00:00	2024-11-08T18:00:00	1	Precipitación	0
1992	7	Sololá	712	San Antonio Palopó	9	San Antonio Palopo	8	Agosto	2023-08-17T00:00:00	2024-11-08T18:00:00	8	Radiación solar	109
1993	7	Sololá	712	San Antonio Palopó	9	San Antonio Palopo	8	Agosto	2023-08-17T00:00:00	2024-11-08T19:00:00	2	Temperatura media	21.4
1994	7	Sololá	712	San Antonio Palopó	9	San Antonio Palopo	8	Agosto	2023-08-17T00:00:00	2024-11-08T19:00:00	4	Temperatura máxima	22.6
1995	7	Sololá	712	San Antonio Palopó	9	San Antonio Palopo	8	Agosto	2023-08-17T00:00:00	2024-11-08T19:00:00	3	Temperatura mínima	21.4
1996	7	Sololá	712	San Antonio Palopó	9	San Antonio Palopo	8	Agosto	2023-08-17T00:00:00	2024-11-08T19:00:00	5	Humedad	80
1997	7	Sololá	712	San Antonio Palopó	9	San Antonio Palopo	8	Agosto	2023-08-17T00:00:00	2024-11-08T19:00:00	6	Velocidad del viento	4.8
1998	7	Sololá	712	San Antonio Palopó	9	San Antonio Palopo	8	Agosto	2023-08-17T00:00:00	2024-11-08T19:00:00	7	Dirección del viento	4.83
1999	7	Sololá	712	San Antonio Palopó	9	San Antonio Palopo	8	Agosto	2023-08-17T00:00:00	2024-11-08T19:00:00	1	Precipitación	0
2000	7	Sololá	712	San Antonio Palopó	9	San Antonio Palopo	8	Agosto	2023-08-17T00:00:00	2024-11-08T19:00:00	8	Radiación solar	0
2001	7	Sololá	712	San Antonio Palopó	9	San Antonio Palopo	8	Agosto	2023-08-17T00:00:00	2024-11-08T20:00:00	2	Temperatura media	22.1
2002	7	Sololá	712	San Antonio Palopó	9	San Antonio Palopo	8	Agosto	2023-08-17T00:00:00	2024-11-08T20:00:00	4	Temperatura máxima	22.2
2003	7	Sololá	712	San Antonio Palopó	9	San Antonio Palopo	8	Agosto	2023-08-17T00:00:00	2024-11-08T20:00:00	3	Temperatura mínima	21.4
2004	7	Sololá	712	San Antonio Palopó	9	San Antonio Palopo	8	Agosto	2023-08-17T00:00:00	2024-11-08T20:00:00	5	Humedad	73
2005	7	Sololá	712	San Antonio Palopó	9	San Antonio Palopo	8	Agosto	2023-08-17T00:00:00	2024-11-08T20:00:00	6	Velocidad del viento	4.8
2006	7	Sololá	712	San Antonio Palopó	9	San Antonio Palopo	8	Agosto	2023-08-17T00:00:00	2024-11-08T20:00:00	7	Dirección del viento	4.83
2007	7	Sololá	712	San Antonio Palopó	9	San Antonio Palopo	8	Agosto	2023-08-17T00:00:00	2024-11-08T20:00:00	1	Precipitación	0
2008	7	Sololá	712	San Antonio Palopó	9	San Antonio Palopo	8	Agosto	2023-08-17T00:00:00	2024-11-08T20:00:00	8	Radiación solar	0
2009	7	Sololá	712	San Antonio Palopó	9	San Antonio Palopo	8	Agosto	2023-08-17T00:00:00	2024-11-08T21:00:00	2	Temperatura media	21.4
2010	7	Sololá	712	San Antonio Palopó	9	San Antonio Palopo	8	Agosto	2023-08-17T00:00:00	2024-11-08T21:00:00	4	Temperatura máxima	22.1
2011	7	Sololá	712	San Antonio Palopó	9	San Antonio Palopo	8	Agosto	2023-08-17T00:00:00	2024-11-08T21:00:00	3	Temperatura mínima	21.3
2012	7	Sololá	712	San Antonio Palopó	9	San Antonio Palopo	8	Agosto	2023-08-17T00:00:00	2024-11-08T21:00:00	5	Humedad	68
2013	7	Sololá	712	San Antonio Palopó	9	San Antonio Palopo	8	Agosto	2023-08-17T00:00:00	2024-11-08T21:00:00	6	Velocidad del viento	4.8
2014	7	Sololá	712	San Antonio Palopó	9	San Antonio Palopo	8	Agosto	2023-08-17T00:00:00	2024-11-08T21:00:00	7	Dirección del viento	4.83
2015	7	Sololá	712	San Antonio Palopó	9	San Antonio Palopo	8	Agosto	2023-08-17T00:00:00	2024-11-08T21:00:00	1	Precipitación	0
2016	7	Sololá	712	San Antonio Palopó	9	San Antonio Palopo	8	Agosto	2023-08-17T00:00:00	2024-11-08T21:00:00	8	Radiación solar	0
2017	7	Sololá	712	San Antonio Palopó	9	San Antonio Palopo	8	Agosto	2023-08-17T00:00:00	2024-11-08T22:00:00	2	Temperatura media	21.3
2018	7	Sololá	712	San Antonio Palopó	9	San Antonio Palopo	8	Agosto	2023-08-17T00:00:00	2024-11-08T22:00:00	4	Temperatura máxima	21.7
2019	7	Sololá	712	San Antonio Palopó	9	San Antonio Palopo	8	Agosto	2023-08-17T00:00:00	2024-11-08T22:00:00	3	Temperatura mínima	20.8
2020	7	Sololá	712	San Antonio Palopó	9	San Antonio Palopo	8	Agosto	2023-08-17T00:00:00	2024-11-08T22:00:00	5	Humedad	69
2021	7	Sololá	712	San Antonio Palopó	9	San Antonio Palopo	8	Agosto	2023-08-17T00:00:00	2024-11-08T22:00:00	6	Velocidad del viento	6.4
2022	7	Sololá	712	San Antonio Palopó	9	San Antonio Palopo	8	Agosto	2023-08-17T00:00:00	2024-11-08T22:00:00	7	Dirección del viento	6.44
2023	7	Sololá	712	San Antonio Palopó	9	San Antonio Palopo	8	Agosto	2023-08-17T00:00:00	2024-11-08T22:00:00	1	Precipitación	0
2024	7	Sololá	712	San Antonio Palopó	9	San Antonio Palopo	8	Agosto	2023-08-17T00:00:00	2024-11-08T22:00:00	8	Radiación solar	0
2025	7	Sololá	712	San Antonio Palopó	9	San Antonio Palopo	8	Agosto	2023-08-17T00:00:00	2024-11-08T23:00:00	2	Temperatura media	20.6
2026	7	Sololá	712	San Antonio Palopó	9	San Antonio Palopo	8	Agosto	2023-08-17T00:00:00	2024-11-08T23:00:00	4	Temperatura máxima	21.4
2027	7	Sololá	712	San Antonio Palopó	9	San Antonio Palopo	8	Agosto	2023-08-17T00:00:00	2024-11-08T23:00:00	3	Temperatura mínima	20.6
2028	7	Sololá	712	San Antonio Palopó	9	San Antonio Palopo	8	Agosto	2023-08-17T00:00:00	2024-11-08T23:00:00	5	Humedad	72
2029	7	Sololá	712	San Antonio Palopó	9	San Antonio Palopo	8	Agosto	2023-08-17T00:00:00	2024-11-08T23:00:00	6	Velocidad del viento	4.8
2030	7	Sololá	712	San Antonio Palopó	9	San Antonio Palopo	8	Agosto	2023-08-17T00:00:00	2024-11-08T23:00:00	7	Dirección del viento	4.83
2031	7	Sololá	712	San Antonio Palopó	9	San Antonio Palopo	8	Agosto	2023-08-17T00:00:00	2024-11-08T23:00:00	1	Precipitación	0
2032	7	Sololá	712	San Antonio Palopó	9	San Antonio Palopo	8	Agosto	2023-08-17T00:00:00	2024-11-08T23:00:00	8	Radiación solar	0
2033	7	Sololá	712	San Antonio Palopó	9	San Antonio Palopo	8	Agosto	2023-08-18T00:00:00	2024-11-08T00:00:00	2	Temperatura media	20.2
2034	7	Sololá	712	San Antonio Palopó	9	San Antonio Palopo	8	Agosto	2023-08-18T00:00:00	2024-11-08T00:00:00	4	Temperatura máxima	20.6
2035	7	Sololá	712	San Antonio Palopó	9	San Antonio Palopo	8	Agosto	2023-08-18T00:00:00	2024-11-08T00:00:00	3	Temperatura mínima	19.7
2036	7	Sololá	712	San Antonio Palopó	9	San Antonio Palopo	8	Agosto	2023-08-18T00:00:00	2024-11-08T00:00:00	5	Humedad	72
2037	7	Sololá	712	San Antonio Palopó	9	San Antonio Palopo	8	Agosto	2023-08-18T00:00:00	2024-11-08T00:00:00	6	Velocidad del viento	6.4
2038	7	Sololá	712	San Antonio Palopó	9	San Antonio Palopo	8	Agosto	2023-08-18T00:00:00	2024-11-08T00:00:00	7	Dirección del viento	6.44
2039	7	Sololá	712	San Antonio Palopó	9	San Antonio Palopo	8	Agosto	2023-08-18T00:00:00	2024-11-08T00:00:00	1	Precipitación	0
2040	7	Sololá	712	San Antonio Palopó	9	San Antonio Palopo	8	Agosto	2023-08-18T00:00:00	2024-11-08T00:00:00	8	Radiación solar	0
2041	7	Sololá	712	San Antonio Palopó	9	San Antonio Palopo	8	Agosto	2023-08-18T00:00:00	2024-11-08T01:00:00	2	Temperatura media	20.3
2042	7	Sololá	712	San Antonio Palopó	9	San Antonio Palopo	8	Agosto	2023-08-18T00:00:00	2024-11-08T01:00:00	4	Temperatura máxima	20.4
2043	7	Sololá	712	San Antonio Palopó	9	San Antonio Palopo	8	Agosto	2023-08-18T00:00:00	2024-11-08T01:00:00	3	Temperatura mínima	19.8
2044	7	Sololá	712	San Antonio Palopó	9	San Antonio Palopo	8	Agosto	2023-08-18T00:00:00	2024-11-08T01:00:00	5	Humedad	70
2045	7	Sololá	712	San Antonio Palopó	9	San Antonio Palopo	8	Agosto	2023-08-18T00:00:00	2024-11-08T01:00:00	6	Velocidad del viento	6.4
2046	7	Sololá	712	San Antonio Palopó	9	San Antonio Palopo	8	Agosto	2023-08-18T00:00:00	2024-11-08T01:00:00	7	Dirección del viento	6.44
2047	7	Sololá	712	San Antonio Palopó	9	San Antonio Palopo	8	Agosto	2023-08-18T00:00:00	2024-11-08T01:00:00	1	Precipitación	0
2048	7	Sololá	712	San Antonio Palopó	9	San Antonio Palopo	8	Agosto	2023-08-18T00:00:00	2024-11-08T01:00:00	8	Radiación solar	0
2049	7	Sololá	712	San Antonio Palopó	9	San Antonio Palopo	8	Agosto	2023-08-18T00:00:00	2024-11-08T02:00:00	2	Temperatura media	20.7
2050	7	Sololá	712	San Antonio Palopó	9	San Antonio Palopo	8	Agosto	2023-08-18T00:00:00	2024-11-08T02:00:00	4	Temperatura máxima	20.7
2051	7	Sololá	712	San Antonio Palopó	9	San Antonio Palopo	8	Agosto	2023-08-18T00:00:00	2024-11-08T02:00:00	3	Temperatura mínima	20.2
2052	7	Sololá	712	San Antonio Palopó	9	San Antonio Palopo	8	Agosto	2023-08-18T00:00:00	2024-11-08T02:00:00	5	Humedad	70
2053	7	Sololá	712	San Antonio Palopó	9	San Antonio Palopo	8	Agosto	2023-08-18T00:00:00	2024-11-08T02:00:00	6	Velocidad del viento	4.8
2054	7	Sololá	712	San Antonio Palopó	9	San Antonio Palopo	8	Agosto	2023-08-18T00:00:00	2024-11-08T02:00:00	7	Dirección del viento	4.83
2055	7	Sololá	712	San Antonio Palopó	9	San Antonio Palopo	8	Agosto	2023-08-18T00:00:00	2024-11-08T02:00:00	1	Precipitación	0
2056	7	Sololá	712	San Antonio Palopó	9	San Antonio Palopo	8	Agosto	2023-08-18T00:00:00	2024-11-08T02:00:00	8	Radiación solar	0
2057	7	Sololá	712	San Antonio Palopó	9	San Antonio Palopo	8	Agosto	2023-08-18T00:00:00	2024-11-08T03:00:00	2	Temperatura media	20.7
2058	7	Sololá	712	San Antonio Palopó	9	San Antonio Palopo	8	Agosto	2023-08-18T00:00:00	2024-11-08T03:00:00	4	Temperatura máxima	20.8
2059	7	Sololá	712	San Antonio Palopó	9	San Antonio Palopo	8	Agosto	2023-08-18T00:00:00	2024-11-08T03:00:00	3	Temperatura mínima	20.6
2060	7	Sololá	712	San Antonio Palopó	9	San Antonio Palopo	8	Agosto	2023-08-18T00:00:00	2024-11-08T03:00:00	5	Humedad	70
2061	7	Sololá	712	San Antonio Palopó	9	San Antonio Palopo	8	Agosto	2023-08-18T00:00:00	2024-11-08T03:00:00	6	Velocidad del viento	8
2062	7	Sololá	712	San Antonio Palopó	9	San Antonio Palopo	8	Agosto	2023-08-18T00:00:00	2024-11-08T03:00:00	7	Dirección del viento	8.05
2063	7	Sololá	712	San Antonio Palopó	9	San Antonio Palopo	8	Agosto	2023-08-18T00:00:00	2024-11-08T03:00:00	1	Precipitación	0
2064	7	Sololá	712	San Antonio Palopó	9	San Antonio Palopo	8	Agosto	2023-08-18T00:00:00	2024-11-08T03:00:00	8	Radiación solar	0
2065	7	Sololá	712	San Antonio Palopó	9	San Antonio Palopo	8	Agosto	2023-08-18T00:00:00	2024-11-08T04:00:00	2	Temperatura media	20.7
2066	7	Sololá	712	San Antonio Palopó	9	San Antonio Palopo	8	Agosto	2023-08-18T00:00:00	2024-11-08T04:00:00	4	Temperatura máxima	20.7
2067	7	Sololá	712	San Antonio Palopó	9	San Antonio Palopo	8	Agosto	2023-08-18T00:00:00	2024-11-08T04:00:00	3	Temperatura mínima	20.6
2068	7	Sololá	712	San Antonio Palopó	9	San Antonio Palopo	8	Agosto	2023-08-18T00:00:00	2024-11-08T04:00:00	5	Humedad	70
2069	7	Sololá	712	San Antonio Palopó	9	San Antonio Palopo	8	Agosto	2023-08-18T00:00:00	2024-11-08T04:00:00	6	Velocidad del viento	8
2070	7	Sololá	712	San Antonio Palopó	9	San Antonio Palopo	8	Agosto	2023-08-18T00:00:00	2024-11-08T04:00:00	7	Dirección del viento	8.05
2071	7	Sololá	712	San Antonio Palopó	9	San Antonio Palopo	8	Agosto	2023-08-18T00:00:00	2024-11-08T04:00:00	1	Precipitación	0
2072	7	Sololá	712	San Antonio Palopó	9	San Antonio Palopo	8	Agosto	2023-08-18T00:00:00	2024-11-08T04:00:00	8	Radiación solar	0
2073	7	Sololá	712	San Antonio Palopó	9	San Antonio Palopo	8	Agosto	2023-08-18T00:00:00	2024-11-08T05:00:00	2	Temperatura media	20.3
2074	7	Sololá	712	San Antonio Palopó	9	San Antonio Palopo	8	Agosto	2023-08-18T00:00:00	2024-11-08T05:00:00	4	Temperatura máxima	20.7
2075	7	Sololá	712	San Antonio Palopó	9	San Antonio Palopo	8	Agosto	2023-08-18T00:00:00	2024-11-08T05:00:00	3	Temperatura mínima	19.9
2076	7	Sololá	712	San Antonio Palopó	9	San Antonio Palopo	8	Agosto	2023-08-18T00:00:00	2024-11-08T05:00:00	5	Humedad	72
2077	7	Sololá	712	San Antonio Palopó	9	San Antonio Palopo	8	Agosto	2023-08-18T00:00:00	2024-11-08T05:00:00	6	Velocidad del viento	6.4
2078	7	Sololá	712	San Antonio Palopó	9	San Antonio Palopo	8	Agosto	2023-08-18T00:00:00	2024-11-08T05:00:00	7	Dirección del viento	6.44
2079	7	Sololá	712	San Antonio Palopó	9	San Antonio Palopo	8	Agosto	2023-08-18T00:00:00	2024-11-08T05:00:00	1	Precipitación	0
2080	7	Sololá	712	San Antonio Palopó	9	San Antonio Palopo	8	Agosto	2023-08-18T00:00:00	2024-11-08T05:00:00	8	Radiación solar	0
2081	7	Sololá	712	San Antonio Palopó	9	San Antonio Palopo	8	Agosto	2023-08-18T00:00:00	2024-11-08T06:00:00	2	Temperatura media	19.6
2082	7	Sololá	712	San Antonio Palopó	9	San Antonio Palopo	8	Agosto	2023-08-18T00:00:00	2024-11-08T06:00:00	4	Temperatura máxima	20.3
2083	7	Sololá	712	San Antonio Palopó	9	San Antonio Palopo	8	Agosto	2023-08-18T00:00:00	2024-11-08T06:00:00	3	Temperatura mínima	19.3
2084	7	Sololá	712	San Antonio Palopó	9	San Antonio Palopo	8	Agosto	2023-08-18T00:00:00	2024-11-08T06:00:00	5	Humedad	73
2085	7	Sololá	712	San Antonio Palopó	9	San Antonio Palopo	8	Agosto	2023-08-18T00:00:00	2024-11-08T06:00:00	6	Velocidad del viento	6.4
2086	7	Sololá	712	San Antonio Palopó	9	San Antonio Palopo	8	Agosto	2023-08-18T00:00:00	2024-11-08T06:00:00	7	Dirección del viento	6.44
2087	7	Sololá	712	San Antonio Palopó	9	San Antonio Palopo	8	Agosto	2023-08-18T00:00:00	2024-11-08T06:00:00	1	Precipitación	0
2088	7	Sololá	712	San Antonio Palopó	9	San Antonio Palopo	8	Agosto	2023-08-18T00:00:00	2024-11-08T06:00:00	8	Radiación solar	0
2089	7	Sololá	712	San Antonio Palopó	9	San Antonio Palopo	8	Agosto	2023-08-18T00:00:00	2024-11-08T07:00:00	2	Temperatura media	19.3
2090	7	Sololá	712	San Antonio Palopó	9	San Antonio Palopo	8	Agosto	2023-08-18T00:00:00	2024-11-08T07:00:00	4	Temperatura máxima	20
2091	7	Sololá	712	San Antonio Palopó	9	San Antonio Palopo	8	Agosto	2023-08-18T00:00:00	2024-11-08T07:00:00	3	Temperatura mínima	19.3
2092	7	Sololá	712	San Antonio Palopó	9	San Antonio Palopo	8	Agosto	2023-08-18T00:00:00	2024-11-08T07:00:00	5	Humedad	74
2093	7	Sololá	712	San Antonio Palopó	9	San Antonio Palopo	8	Agosto	2023-08-18T00:00:00	2024-11-08T07:00:00	6	Velocidad del viento	4.8
2094	7	Sololá	712	San Antonio Palopó	9	San Antonio Palopo	8	Agosto	2023-08-18T00:00:00	2024-11-08T07:00:00	7	Dirección del viento	4.83
2095	7	Sololá	712	San Antonio Palopó	9	San Antonio Palopo	8	Agosto	2023-08-18T00:00:00	2024-11-08T07:00:00	1	Precipitación	0
2096	7	Sololá	712	San Antonio Palopó	9	San Antonio Palopo	8	Agosto	2023-08-18T00:00:00	2024-11-08T07:00:00	8	Radiación solar	18
2097	7	Sololá	712	San Antonio Palopó	9	San Antonio Palopo	8	Agosto	2023-08-18T00:00:00	2024-11-08T08:00:00	2	Temperatura media	21.1
2098	7	Sololá	712	San Antonio Palopó	9	San Antonio Palopo	8	Agosto	2023-08-18T00:00:00	2024-11-08T08:00:00	4	Temperatura máxima	21.1
2099	7	Sololá	712	San Antonio Palopó	9	San Antonio Palopo	8	Agosto	2023-08-18T00:00:00	2024-11-08T08:00:00	3	Temperatura mínima	19.1
2100	7	Sololá	712	San Antonio Palopó	9	San Antonio Palopo	8	Agosto	2023-08-18T00:00:00	2024-11-08T08:00:00	5	Humedad	69
2101	7	Sololá	712	San Antonio Palopó	9	San Antonio Palopo	8	Agosto	2023-08-18T00:00:00	2024-11-08T08:00:00	6	Velocidad del viento	3.2
2102	7	Sololá	712	San Antonio Palopó	9	San Antonio Palopo	8	Agosto	2023-08-18T00:00:00	2024-11-08T08:00:00	7	Dirección del viento	3.22
2103	7	Sololá	712	San Antonio Palopó	9	San Antonio Palopo	8	Agosto	2023-08-18T00:00:00	2024-11-08T08:00:00	1	Precipitación	0
2104	7	Sololá	712	San Antonio Palopó	9	San Antonio Palopo	8	Agosto	2023-08-18T00:00:00	2024-11-08T08:00:00	8	Radiación solar	83
2105	7	Sololá	712	San Antonio Palopó	9	San Antonio Palopo	8	Agosto	2023-08-18T00:00:00	2024-11-08T09:00:00	2	Temperatura media	22.9
2106	7	Sololá	712	San Antonio Palopó	9	San Antonio Palopo	8	Agosto	2023-08-18T00:00:00	2024-11-08T09:00:00	4	Temperatura máxima	23.3
2107	7	Sololá	712	San Antonio Palopó	9	San Antonio Palopo	8	Agosto	2023-08-18T00:00:00	2024-11-08T09:00:00	3	Temperatura mínima	21.1
2108	7	Sololá	712	San Antonio Palopó	9	San Antonio Palopo	8	Agosto	2023-08-18T00:00:00	2024-11-08T09:00:00	5	Humedad	65
2109	7	Sololá	712	San Antonio Palopó	9	San Antonio Palopo	8	Agosto	2023-08-18T00:00:00	2024-11-08T09:00:00	6	Velocidad del viento	3.2
2110	7	Sololá	712	San Antonio Palopó	9	San Antonio Palopo	8	Agosto	2023-08-18T00:00:00	2024-11-08T09:00:00	7	Dirección del viento	3.22
2111	7	Sololá	712	San Antonio Palopó	9	San Antonio Palopo	8	Agosto	2023-08-18T00:00:00	2024-11-08T09:00:00	1	Precipitación	0
2112	7	Sololá	712	San Antonio Palopó	9	San Antonio Palopo	8	Agosto	2023-08-18T00:00:00	2024-11-08T09:00:00	8	Radiación solar	539
2113	7	Sololá	712	San Antonio Palopó	9	San Antonio Palopo	8	Agosto	2023-08-18T00:00:00	2024-11-08T10:00:00	2	Temperatura media	23.9
2114	7	Sololá	712	San Antonio Palopó	9	San Antonio Palopo	8	Agosto	2023-08-18T00:00:00	2024-11-08T10:00:00	4	Temperatura máxima	24.3
2115	7	Sololá	712	San Antonio Palopó	9	San Antonio Palopo	8	Agosto	2023-08-18T00:00:00	2024-11-08T10:00:00	3	Temperatura mínima	22.7
2116	7	Sololá	712	San Antonio Palopó	9	San Antonio Palopo	8	Agosto	2023-08-18T00:00:00	2024-11-08T10:00:00	5	Humedad	59
2117	7	Sololá	712	San Antonio Palopó	9	San Antonio Palopo	8	Agosto	2023-08-18T00:00:00	2024-11-08T10:00:00	6	Velocidad del viento	11.3
2118	7	Sololá	712	San Antonio Palopó	9	San Antonio Palopo	8	Agosto	2023-08-18T00:00:00	2024-11-08T10:00:00	7	Dirección del viento	11.27
2119	7	Sololá	712	San Antonio Palopó	9	San Antonio Palopo	8	Agosto	2023-08-18T00:00:00	2024-11-08T10:00:00	1	Precipitación	0
2120	7	Sololá	712	San Antonio Palopó	9	San Antonio Palopo	8	Agosto	2023-08-18T00:00:00	2024-11-08T10:00:00	8	Radiación solar	758
2121	7	Sololá	712	San Antonio Palopó	9	San Antonio Palopo	8	Agosto	2023-08-18T00:00:00	2024-11-08T11:00:00	2	Temperatura media	25.7
2122	7	Sololá	712	San Antonio Palopó	9	San Antonio Palopo	8	Agosto	2023-08-18T00:00:00	2024-11-08T11:00:00	4	Temperatura máxima	25.7
2123	7	Sololá	712	San Antonio Palopó	9	San Antonio Palopo	8	Agosto	2023-08-18T00:00:00	2024-11-08T11:00:00	3	Temperatura mínima	23.8
2124	7	Sololá	712	San Antonio Palopó	9	San Antonio Palopo	8	Agosto	2023-08-18T00:00:00	2024-11-08T11:00:00	5	Humedad	53
2125	7	Sololá	712	San Antonio Palopó	9	San Antonio Palopo	8	Agosto	2023-08-18T00:00:00	2024-11-08T11:00:00	6	Velocidad del viento	9.7
2126	7	Sololá	712	San Antonio Palopó	9	San Antonio Palopo	8	Agosto	2023-08-18T00:00:00	2024-11-08T11:00:00	7	Dirección del viento	9.66
2127	7	Sololá	712	San Antonio Palopó	9	San Antonio Palopo	8	Agosto	2023-08-18T00:00:00	2024-11-08T11:00:00	1	Precipitación	0
2128	7	Sololá	712	San Antonio Palopó	9	San Antonio Palopo	8	Agosto	2023-08-18T00:00:00	2024-11-08T11:00:00	8	Radiación solar	921
2129	7	Sololá	712	San Antonio Palopó	9	San Antonio Palopo	8	Agosto	2023-08-18T00:00:00	2024-11-08T12:00:00	2	Temperatura media	25.1
2130	7	Sololá	712	San Antonio Palopó	9	San Antonio Palopo	8	Agosto	2023-08-18T00:00:00	2024-11-08T12:00:00	4	Temperatura máxima	26.1
2131	7	Sololá	712	San Antonio Palopó	9	San Antonio Palopo	8	Agosto	2023-08-18T00:00:00	2024-11-08T12:00:00	3	Temperatura mínima	24.3
2132	7	Sololá	712	San Antonio Palopó	9	San Antonio Palopo	8	Agosto	2023-08-18T00:00:00	2024-11-08T12:00:00	5	Humedad	55
2133	7	Sololá	712	San Antonio Palopó	9	San Antonio Palopo	8	Agosto	2023-08-18T00:00:00	2024-11-08T12:00:00	6	Velocidad del viento	9.7
2134	7	Sololá	712	San Antonio Palopó	9	San Antonio Palopo	8	Agosto	2023-08-18T00:00:00	2024-11-08T12:00:00	7	Dirección del viento	9.66
2135	7	Sololá	712	San Antonio Palopó	9	San Antonio Palopo	8	Agosto	2023-08-18T00:00:00	2024-11-08T12:00:00	1	Precipitación	0
2136	7	Sololá	712	San Antonio Palopó	9	San Antonio Palopo	8	Agosto	2023-08-18T00:00:00	2024-11-08T12:00:00	8	Radiación solar	526
2137	7	Sololá	712	San Antonio Palopó	9	San Antonio Palopo	8	Agosto	2023-08-18T00:00:00	2024-11-08T13:00:00	2	Temperatura media	26.3
2138	7	Sololá	712	San Antonio Palopó	9	San Antonio Palopo	8	Agosto	2023-08-18T00:00:00	2024-11-08T13:00:00	4	Temperatura máxima	26.3
2139	7	Sololá	712	San Antonio Palopó	9	San Antonio Palopo	8	Agosto	2023-08-18T00:00:00	2024-11-08T13:00:00	3	Temperatura mínima	25.1
2140	7	Sololá	712	San Antonio Palopó	9	San Antonio Palopo	8	Agosto	2023-08-18T00:00:00	2024-11-08T13:00:00	5	Humedad	51
2141	7	Sololá	712	San Antonio Palopó	9	San Antonio Palopo	8	Agosto	2023-08-18T00:00:00	2024-11-08T13:00:00	6	Velocidad del viento	12.9
2142	7	Sololá	712	San Antonio Palopó	9	San Antonio Palopo	8	Agosto	2023-08-18T00:00:00	2024-11-08T13:00:00	7	Dirección del viento	12.87
2143	7	Sololá	712	San Antonio Palopó	9	San Antonio Palopo	8	Agosto	2023-08-18T00:00:00	2024-11-08T13:00:00	1	Precipitación	0
2144	7	Sololá	712	San Antonio Palopó	9	San Antonio Palopo	8	Agosto	2023-08-18T00:00:00	2024-11-08T13:00:00	8	Radiación solar	724
2145	7	Sololá	712	San Antonio Palopó	9	San Antonio Palopo	8	Agosto	2023-08-18T00:00:00	2024-11-08T14:00:00	2	Temperatura media	25.5
2146	7	Sololá	712	San Antonio Palopó	9	San Antonio Palopo	8	Agosto	2023-08-18T00:00:00	2024-11-08T14:00:00	4	Temperatura máxima	27.7
2147	7	Sololá	712	San Antonio Palopó	9	San Antonio Palopo	8	Agosto	2023-08-18T00:00:00	2024-11-08T14:00:00	3	Temperatura mínima	25.1
2148	7	Sololá	712	San Antonio Palopó	9	San Antonio Palopo	8	Agosto	2023-08-18T00:00:00	2024-11-08T14:00:00	5	Humedad	71
2149	7	Sololá	712	San Antonio Palopó	9	San Antonio Palopo	8	Agosto	2023-08-18T00:00:00	2024-11-08T14:00:00	6	Velocidad del viento	8
2150	7	Sololá	712	San Antonio Palopó	9	San Antonio Palopo	8	Agosto	2023-08-18T00:00:00	2024-11-08T14:00:00	7	Dirección del viento	8.05
2151	7	Sololá	712	San Antonio Palopó	9	San Antonio Palopo	8	Agosto	2023-08-18T00:00:00	2024-11-08T14:00:00	1	Precipitación	0
2152	7	Sololá	712	San Antonio Palopó	9	San Antonio Palopo	8	Agosto	2023-08-18T00:00:00	2024-11-08T14:00:00	8	Radiación solar	898
2153	7	Sololá	712	San Antonio Palopó	9	San Antonio Palopo	8	Agosto	2023-08-18T00:00:00	2024-11-08T15:00:00	2	Temperatura media	26.5
2154	7	Sololá	712	San Antonio Palopó	9	San Antonio Palopo	8	Agosto	2023-08-18T00:00:00	2024-11-08T15:00:00	4	Temperatura máxima	26.8
2155	7	Sololá	712	San Antonio Palopó	9	San Antonio Palopo	8	Agosto	2023-08-18T00:00:00	2024-11-08T15:00:00	3	Temperatura mínima	25.5
2156	7	Sololá	712	San Antonio Palopó	9	San Antonio Palopo	8	Agosto	2023-08-18T00:00:00	2024-11-08T15:00:00	5	Humedad	52
2157	7	Sololá	712	San Antonio Palopó	9	San Antonio Palopo	8	Agosto	2023-08-18T00:00:00	2024-11-08T15:00:00	6	Velocidad del viento	12.9
2158	7	Sololá	712	San Antonio Palopó	9	San Antonio Palopo	8	Agosto	2023-08-18T00:00:00	2024-11-08T15:00:00	7	Dirección del viento	12.87
2159	7	Sololá	712	San Antonio Palopó	9	San Antonio Palopo	8	Agosto	2023-08-18T00:00:00	2024-11-08T15:00:00	1	Precipitación	0
2160	7	Sololá	712	San Antonio Palopó	9	San Antonio Palopo	8	Agosto	2023-08-18T00:00:00	2024-11-08T15:00:00	8	Radiación solar	833
2161	7	Sololá	712	San Antonio Palopó	9	San Antonio Palopo	8	Agosto	2023-08-18T00:00:00	2024-11-08T16:00:00	2	Temperatura media	26.2
2162	7	Sololá	712	San Antonio Palopó	9	San Antonio Palopo	8	Agosto	2023-08-18T00:00:00	2024-11-08T16:00:00	4	Temperatura máxima	26.8
2163	7	Sololá	712	San Antonio Palopó	9	San Antonio Palopo	8	Agosto	2023-08-18T00:00:00	2024-11-08T16:00:00	3	Temperatura mínima	23.3
2164	7	Sololá	712	San Antonio Palopó	9	San Antonio Palopo	8	Agosto	2023-08-18T00:00:00	2024-11-08T16:00:00	5	Humedad	48
2165	7	Sololá	712	San Antonio Palopó	9	San Antonio Palopo	8	Agosto	2023-08-18T00:00:00	2024-11-08T16:00:00	6	Velocidad del viento	16.1
2166	7	Sololá	712	San Antonio Palopó	9	San Antonio Palopo	8	Agosto	2023-08-18T00:00:00	2024-11-08T16:00:00	7	Dirección del viento	16.09
2167	7	Sololá	712	San Antonio Palopó	9	San Antonio Palopo	8	Agosto	2023-08-18T00:00:00	2024-11-08T16:00:00	1	Precipitación	0
2168	7	Sololá	712	San Antonio Palopó	9	San Antonio Palopo	8	Agosto	2023-08-18T00:00:00	2024-11-08T16:00:00	8	Radiación solar	610
2169	7	Sololá	712	San Antonio Palopó	9	San Antonio Palopo	8	Agosto	2023-08-18T00:00:00	2024-11-08T17:00:00	2	Temperatura media	25.8
2170	7	Sololá	712	San Antonio Palopó	9	San Antonio Palopo	8	Agosto	2023-08-18T00:00:00	2024-11-08T17:00:00	4	Temperatura máxima	26.7
2171	7	Sololá	712	San Antonio Palopó	9	San Antonio Palopo	8	Agosto	2023-08-18T00:00:00	2024-11-08T17:00:00	3	Temperatura mínima	25.8
2172	7	Sololá	712	San Antonio Palopó	9	San Antonio Palopo	8	Agosto	2023-08-18T00:00:00	2024-11-08T17:00:00	5	Humedad	38
2173	7	Sololá	712	San Antonio Palopó	9	San Antonio Palopo	8	Agosto	2023-08-18T00:00:00	2024-11-08T17:00:00	6	Velocidad del viento	6.4
2174	7	Sololá	712	San Antonio Palopó	9	San Antonio Palopo	8	Agosto	2023-08-18T00:00:00	2024-11-08T17:00:00	7	Dirección del viento	6.44
2175	7	Sololá	712	San Antonio Palopó	9	San Antonio Palopo	8	Agosto	2023-08-18T00:00:00	2024-11-08T17:00:00	1	Precipitación	0
2176	7	Sololá	712	San Antonio Palopó	9	San Antonio Palopo	8	Agosto	2023-08-18T00:00:00	2024-11-08T17:00:00	8	Radiación solar	180
2177	7	Sololá	712	San Antonio Palopó	9	San Antonio Palopo	8	Agosto	2023-08-18T00:00:00	2024-11-08T18:00:00	2	Temperatura media	23.4
2178	7	Sololá	712	San Antonio Palopó	9	San Antonio Palopo	8	Agosto	2023-08-18T00:00:00	2024-11-08T18:00:00	4	Temperatura máxima	25.8
2179	7	Sololá	712	San Antonio Palopó	9	San Antonio Palopo	8	Agosto	2023-08-18T00:00:00	2024-11-08T18:00:00	3	Temperatura mínima	23.4
2180	7	Sololá	712	San Antonio Palopó	9	San Antonio Palopo	8	Agosto	2023-08-18T00:00:00	2024-11-08T18:00:00	5	Humedad	66
2181	7	Sololá	712	San Antonio Palopó	9	San Antonio Palopo	8	Agosto	2023-08-18T00:00:00	2024-11-08T18:00:00	6	Velocidad del viento	8
2182	7	Sololá	712	San Antonio Palopó	9	San Antonio Palopo	8	Agosto	2023-08-18T00:00:00	2024-11-08T18:00:00	7	Dirección del viento	8.05
2183	7	Sololá	712	San Antonio Palopó	9	San Antonio Palopo	8	Agosto	2023-08-18T00:00:00	2024-11-08T18:00:00	1	Precipitación	0
2184	7	Sololá	712	San Antonio Palopó	9	San Antonio Palopo	8	Agosto	2023-08-18T00:00:00	2024-11-08T18:00:00	8	Radiación solar	62
2185	7	Sololá	712	San Antonio Palopó	9	San Antonio Palopo	8	Agosto	2023-08-18T00:00:00	2024-11-08T19:00:00	2	Temperatura media	21.7
2186	7	Sololá	712	San Antonio Palopó	9	San Antonio Palopo	8	Agosto	2023-08-18T00:00:00	2024-11-08T19:00:00	4	Temperatura máxima	23.4
2187	7	Sololá	712	San Antonio Palopó	9	San Antonio Palopo	8	Agosto	2023-08-18T00:00:00	2024-11-08T19:00:00	3	Temperatura mínima	21.7
2188	7	Sololá	712	San Antonio Palopó	9	San Antonio Palopo	8	Agosto	2023-08-18T00:00:00	2024-11-08T19:00:00	5	Humedad	73
2189	7	Sololá	712	San Antonio Palopó	9	San Antonio Palopo	8	Agosto	2023-08-18T00:00:00	2024-11-08T19:00:00	6	Velocidad del viento	4.8
2190	7	Sololá	712	San Antonio Palopó	9	San Antonio Palopo	8	Agosto	2023-08-18T00:00:00	2024-11-08T19:00:00	7	Dirección del viento	4.83
2191	7	Sololá	712	San Antonio Palopó	9	San Antonio Palopo	8	Agosto	2023-08-18T00:00:00	2024-11-08T19:00:00	1	Precipitación	0
2192	7	Sololá	712	San Antonio Palopó	9	San Antonio Palopo	8	Agosto	2023-08-18T00:00:00	2024-11-08T19:00:00	8	Radiación solar	0
2193	7	Sololá	712	San Antonio Palopó	9	San Antonio Palopo	8	Agosto	2023-08-18T00:00:00	2024-11-08T20:00:00	2	Temperatura media	21.4
2194	7	Sololá	712	San Antonio Palopó	9	San Antonio Palopo	8	Agosto	2023-08-18T00:00:00	2024-11-08T20:00:00	4	Temperatura máxima	21.7
2195	7	Sololá	712	San Antonio Palopó	9	San Antonio Palopo	8	Agosto	2023-08-18T00:00:00	2024-11-08T20:00:00	3	Temperatura mínima	21.3
2196	7	Sololá	712	San Antonio Palopó	9	San Antonio Palopo	8	Agosto	2023-08-18T00:00:00	2024-11-08T20:00:00	5	Humedad	77
2197	7	Sololá	712	San Antonio Palopó	9	San Antonio Palopo	8	Agosto	2023-08-18T00:00:00	2024-11-08T20:00:00	6	Velocidad del viento	0
2198	7	Sololá	712	San Antonio Palopó	9	San Antonio Palopo	8	Agosto	2023-08-18T00:00:00	2024-11-08T20:00:00	7	Dirección del viento	0
2199	7	Sololá	712	San Antonio Palopó	9	San Antonio Palopo	8	Agosto	2023-08-18T00:00:00	2024-11-08T20:00:00	1	Precipitación	0
2200	7	Sololá	712	San Antonio Palopó	9	San Antonio Palopo	8	Agosto	2023-08-18T00:00:00	2024-11-08T20:00:00	8	Radiación solar	0
2201	7	Sololá	712	San Antonio Palopó	9	San Antonio Palopo	8	Agosto	2023-08-18T00:00:00	2024-11-08T21:00:00	2	Temperatura media	21.4
2202	7	Sololá	712	San Antonio Palopó	9	San Antonio Palopo	8	Agosto	2023-08-18T00:00:00	2024-11-08T21:00:00	4	Temperatura máxima	21.7
2203	7	Sololá	712	San Antonio Palopó	9	San Antonio Palopo	8	Agosto	2023-08-18T00:00:00	2024-11-08T21:00:00	3	Temperatura mínima	21.3
2204	7	Sololá	712	San Antonio Palopó	9	San Antonio Palopo	8	Agosto	2023-08-18T00:00:00	2024-11-08T21:00:00	5	Humedad	67
2205	7	Sololá	712	San Antonio Palopó	9	San Antonio Palopo	8	Agosto	2023-08-18T00:00:00	2024-11-08T21:00:00	6	Velocidad del viento	3.2
2206	7	Sololá	712	San Antonio Palopó	9	San Antonio Palopo	8	Agosto	2023-08-18T00:00:00	2024-11-08T21:00:00	7	Dirección del viento	3.22
2207	7	Sololá	712	San Antonio Palopó	9	San Antonio Palopo	8	Agosto	2023-08-18T00:00:00	2024-11-08T21:00:00	1	Precipitación	0
2208	7	Sololá	712	San Antonio Palopó	9	San Antonio Palopo	8	Agosto	2023-08-18T00:00:00	2024-11-08T21:00:00	8	Radiación solar	0
2209	7	Sololá	712	San Antonio Palopó	9	San Antonio Palopo	8	Agosto	2023-08-18T00:00:00	2024-11-08T22:00:00	2	Temperatura media	20.4
2210	7	Sololá	712	San Antonio Palopó	9	San Antonio Palopo	8	Agosto	2023-08-18T00:00:00	2024-11-08T22:00:00	4	Temperatura máxima	21.4
2211	7	Sololá	712	San Antonio Palopó	9	San Antonio Palopo	8	Agosto	2023-08-18T00:00:00	2024-11-08T22:00:00	3	Temperatura mínima	20.4
2212	7	Sololá	712	San Antonio Palopó	9	San Antonio Palopo	8	Agosto	2023-08-18T00:00:00	2024-11-08T22:00:00	5	Humedad	69
2213	7	Sololá	712	San Antonio Palopó	9	San Antonio Palopo	8	Agosto	2023-08-18T00:00:00	2024-11-08T22:00:00	6	Velocidad del viento	3.2
2214	7	Sololá	712	San Antonio Palopó	9	San Antonio Palopo	8	Agosto	2023-08-18T00:00:00	2024-11-08T22:00:00	7	Dirección del viento	3.22
2215	7	Sololá	712	San Antonio Palopó	9	San Antonio Palopo	8	Agosto	2023-08-18T00:00:00	2024-11-08T22:00:00	1	Precipitación	0
2216	7	Sololá	712	San Antonio Palopó	9	San Antonio Palopo	8	Agosto	2023-08-18T00:00:00	2024-11-08T22:00:00	8	Radiación solar	0
2217	7	Sololá	712	San Antonio Palopó	9	San Antonio Palopo	8	Agosto	2023-08-18T00:00:00	2024-11-08T23:00:00	2	Temperatura media	20
2218	7	Sololá	712	San Antonio Palopó	9	San Antonio Palopo	8	Agosto	2023-08-18T00:00:00	2024-11-08T23:00:00	4	Temperatura máxima	20.4
2219	7	Sololá	712	San Antonio Palopó	9	San Antonio Palopo	8	Agosto	2023-08-18T00:00:00	2024-11-08T23:00:00	3	Temperatura mínima	20
2220	7	Sololá	712	San Antonio Palopó	9	San Antonio Palopo	8	Agosto	2023-08-18T00:00:00	2024-11-08T23:00:00	5	Humedad	68
2221	7	Sololá	712	San Antonio Palopó	9	San Antonio Palopo	8	Agosto	2023-08-18T00:00:00	2024-11-08T23:00:00	6	Velocidad del viento	6.4
2222	7	Sololá	712	San Antonio Palopó	9	San Antonio Palopo	8	Agosto	2023-08-18T00:00:00	2024-11-08T23:00:00	7	Dirección del viento	6.44
2223	7	Sololá	712	San Antonio Palopó	9	San Antonio Palopo	8	Agosto	2023-08-18T00:00:00	2024-11-08T23:00:00	1	Precipitación	0
2224	7	Sololá	712	San Antonio Palopó	9	San Antonio Palopo	8	Agosto	2023-08-18T00:00:00	2024-11-08T23:00:00	8	Radiación solar	0
2225	7	Sololá	712	San Antonio Palopó	9	San Antonio Palopo	8	Agosto	2023-08-19T00:00:00	2024-11-08T00:00:00	2	Temperatura media	20.3
2226	7	Sololá	712	San Antonio Palopó	9	San Antonio Palopo	8	Agosto	2023-08-19T00:00:00	2024-11-08T00:00:00	4	Temperatura máxima	20.3
2227	7	Sololá	712	San Antonio Palopó	9	San Antonio Palopo	8	Agosto	2023-08-19T00:00:00	2024-11-08T00:00:00	3	Temperatura mínima	19.3
2228	7	Sololá	712	San Antonio Palopó	9	San Antonio Palopo	8	Agosto	2023-08-19T00:00:00	2024-11-08T00:00:00	5	Humedad	64
2229	7	Sololá	712	San Antonio Palopó	9	San Antonio Palopo	8	Agosto	2023-08-19T00:00:00	2024-11-08T00:00:00	6	Velocidad del viento	4.8
2230	7	Sololá	712	San Antonio Palopó	9	San Antonio Palopo	8	Agosto	2023-08-19T00:00:00	2024-11-08T00:00:00	7	Dirección del viento	4.83
2231	7	Sololá	712	San Antonio Palopó	9	San Antonio Palopo	8	Agosto	2023-08-19T00:00:00	2024-11-08T00:00:00	1	Precipitación	0
2232	7	Sololá	712	San Antonio Palopó	9	San Antonio Palopo	8	Agosto	2023-08-19T00:00:00	2024-11-08T00:00:00	8	Radiación solar	0
2233	7	Sololá	712	San Antonio Palopó	9	San Antonio Palopo	8	Agosto	2023-08-19T00:00:00	2024-11-08T01:00:00	2	Temperatura media	19.9
2234	7	Sololá	712	San Antonio Palopó	9	San Antonio Palopo	8	Agosto	2023-08-19T00:00:00	2024-11-08T01:00:00	4	Temperatura máxima	20.3
2235	7	Sololá	712	San Antonio Palopó	9	San Antonio Palopo	8	Agosto	2023-08-19T00:00:00	2024-11-08T01:00:00	3	Temperatura mínima	19.7
2236	7	Sololá	712	San Antonio Palopó	9	San Antonio Palopo	8	Agosto	2023-08-19T00:00:00	2024-11-08T01:00:00	5	Humedad	65
2237	7	Sololá	712	San Antonio Palopó	9	San Antonio Palopo	8	Agosto	2023-08-19T00:00:00	2024-11-08T01:00:00	6	Velocidad del viento	8
2238	7	Sololá	712	San Antonio Palopó	9	San Antonio Palopo	8	Agosto	2023-08-19T00:00:00	2024-11-08T01:00:00	7	Dirección del viento	8.05
2239	7	Sololá	712	San Antonio Palopó	9	San Antonio Palopo	8	Agosto	2023-08-19T00:00:00	2024-11-08T01:00:00	1	Precipitación	0
2240	7	Sololá	712	San Antonio Palopó	9	San Antonio Palopo	8	Agosto	2023-08-19T00:00:00	2024-11-08T01:00:00	8	Radiación solar	0
2241	7	Sololá	712	San Antonio Palopó	9	San Antonio Palopo	8	Agosto	2023-08-19T00:00:00	2024-11-08T02:00:00	2	Temperatura media	19.5
2242	7	Sololá	712	San Antonio Palopó	9	San Antonio Palopo	8	Agosto	2023-08-19T00:00:00	2024-11-08T02:00:00	4	Temperatura máxima	20
2243	7	Sololá	712	San Antonio Palopó	9	San Antonio Palopo	8	Agosto	2023-08-19T00:00:00	2024-11-08T02:00:00	3	Temperatura mínima	19.2
2244	7	Sololá	712	San Antonio Palopó	9	San Antonio Palopo	8	Agosto	2023-08-19T00:00:00	2024-11-08T02:00:00	5	Humedad	64
2245	7	Sololá	712	San Antonio Palopó	9	San Antonio Palopo	8	Agosto	2023-08-19T00:00:00	2024-11-08T02:00:00	6	Velocidad del viento	8
2246	7	Sololá	712	San Antonio Palopó	9	San Antonio Palopo	8	Agosto	2023-08-19T00:00:00	2024-11-08T02:00:00	7	Dirección del viento	8.05
2247	7	Sololá	712	San Antonio Palopó	9	San Antonio Palopo	8	Agosto	2023-08-19T00:00:00	2024-11-08T02:00:00	1	Precipitación	0
2248	7	Sololá	712	San Antonio Palopó	9	San Antonio Palopo	8	Agosto	2023-08-19T00:00:00	2024-11-08T02:00:00	8	Radiación solar	0
2249	7	Sololá	712	San Antonio Palopó	9	San Antonio Palopo	8	Agosto	2023-08-19T00:00:00	2024-11-08T03:00:00	2	Temperatura media	18.6
2250	7	Sololá	712	San Antonio Palopó	9	San Antonio Palopo	8	Agosto	2023-08-19T00:00:00	2024-11-08T03:00:00	4	Temperatura máxima	19.6
2251	7	Sololá	712	San Antonio Palopó	9	San Antonio Palopo	8	Agosto	2023-08-19T00:00:00	2024-11-08T03:00:00	3	Temperatura mínima	18.6
2252	7	Sololá	712	San Antonio Palopó	9	San Antonio Palopo	8	Agosto	2023-08-19T00:00:00	2024-11-08T03:00:00	5	Humedad	65
2253	7	Sololá	712	San Antonio Palopó	9	San Antonio Palopo	8	Agosto	2023-08-19T00:00:00	2024-11-08T03:00:00	6	Velocidad del viento	6.4
2254	7	Sololá	712	San Antonio Palopó	9	San Antonio Palopo	8	Agosto	2023-08-19T00:00:00	2024-11-08T03:00:00	7	Dirección del viento	6.44
2255	7	Sololá	712	San Antonio Palopó	9	San Antonio Palopo	8	Agosto	2023-08-19T00:00:00	2024-11-08T03:00:00	1	Precipitación	0
2256	7	Sololá	712	San Antonio Palopó	9	San Antonio Palopo	8	Agosto	2023-08-19T00:00:00	2024-11-08T03:00:00	8	Radiación solar	0
2257	7	Sololá	712	San Antonio Palopó	9	San Antonio Palopo	8	Agosto	2023-08-19T00:00:00	2024-11-08T04:00:00	2	Temperatura media	18.9
2258	7	Sololá	712	San Antonio Palopó	9	San Antonio Palopo	8	Agosto	2023-08-19T00:00:00	2024-11-08T04:00:00	4	Temperatura máxima	19.1
2259	7	Sololá	712	San Antonio Palopó	9	San Antonio Palopo	8	Agosto	2023-08-19T00:00:00	2024-11-08T04:00:00	3	Temperatura mínima	18
2260	7	Sololá	712	San Antonio Palopó	9	San Antonio Palopo	8	Agosto	2023-08-19T00:00:00	2024-11-08T04:00:00	5	Humedad	63
2261	7	Sololá	712	San Antonio Palopó	9	San Antonio Palopo	8	Agosto	2023-08-19T00:00:00	2024-11-08T04:00:00	6	Velocidad del viento	6.4
2262	7	Sololá	712	San Antonio Palopó	9	San Antonio Palopo	8	Agosto	2023-08-19T00:00:00	2024-11-08T04:00:00	7	Dirección del viento	6.44
2263	7	Sololá	712	San Antonio Palopó	9	San Antonio Palopo	8	Agosto	2023-08-19T00:00:00	2024-11-08T04:00:00	1	Precipitación	0
2264	7	Sololá	712	San Antonio Palopó	9	San Antonio Palopo	8	Agosto	2023-08-19T00:00:00	2024-11-08T04:00:00	8	Radiación solar	0
2265	7	Sololá	712	San Antonio Palopó	9	San Antonio Palopo	8	Agosto	2023-08-19T00:00:00	2024-11-08T05:00:00	2	Temperatura media	17.8
2266	7	Sololá	712	San Antonio Palopó	9	San Antonio Palopo	8	Agosto	2023-08-19T00:00:00	2024-11-08T05:00:00	4	Temperatura máxima	18.9
2267	7	Sololá	712	San Antonio Palopó	9	San Antonio Palopo	8	Agosto	2023-08-19T00:00:00	2024-11-08T05:00:00	3	Temperatura mínima	17.6
2268	7	Sololá	712	San Antonio Palopó	9	San Antonio Palopo	8	Agosto	2023-08-19T00:00:00	2024-11-08T05:00:00	5	Humedad	65
2269	7	Sololá	712	San Antonio Palopó	9	San Antonio Palopo	8	Agosto	2023-08-19T00:00:00	2024-11-08T05:00:00	6	Velocidad del viento	4.8
2270	7	Sololá	712	San Antonio Palopó	9	San Antonio Palopo	8	Agosto	2023-08-19T00:00:00	2024-11-08T05:00:00	7	Dirección del viento	4.83
2271	7	Sololá	712	San Antonio Palopó	9	San Antonio Palopo	8	Agosto	2023-08-19T00:00:00	2024-11-08T05:00:00	1	Precipitación	0
2272	7	Sololá	712	San Antonio Palopó	9	San Antonio Palopo	8	Agosto	2023-08-19T00:00:00	2024-11-08T05:00:00	8	Radiación solar	0
2273	7	Sololá	712	San Antonio Palopó	9	San Antonio Palopo	8	Agosto	2023-08-19T00:00:00	2024-11-08T06:00:00	2	Temperatura media	18.1
2274	7	Sololá	712	San Antonio Palopó	9	San Antonio Palopo	8	Agosto	2023-08-19T00:00:00	2024-11-08T06:00:00	4	Temperatura máxima	18.1
2275	7	Sololá	712	San Antonio Palopó	9	San Antonio Palopo	8	Agosto	2023-08-19T00:00:00	2024-11-08T06:00:00	3	Temperatura mínima	17.8
2276	7	Sololá	712	San Antonio Palopó	9	San Antonio Palopo	8	Agosto	2023-08-19T00:00:00	2024-11-08T06:00:00	5	Humedad	63
2277	7	Sololá	712	San Antonio Palopó	9	San Antonio Palopo	8	Agosto	2023-08-19T00:00:00	2024-11-08T06:00:00	6	Velocidad del viento	4.8
2278	7	Sololá	712	San Antonio Palopó	9	San Antonio Palopo	8	Agosto	2023-08-19T00:00:00	2024-11-08T06:00:00	7	Dirección del viento	4.83
2279	7	Sololá	712	San Antonio Palopó	9	San Antonio Palopo	8	Agosto	2023-08-19T00:00:00	2024-11-08T06:00:00	1	Precipitación	0
2280	7	Sololá	712	San Antonio Palopó	9	San Antonio Palopo	8	Agosto	2023-08-19T00:00:00	2024-11-08T06:00:00	8	Radiación solar	1
2281	7	Sololá	712	San Antonio Palopó	9	San Antonio Palopo	8	Agosto	2023-08-19T00:00:00	2024-11-08T07:00:00	2	Temperatura media	18.2
2282	7	Sololá	712	San Antonio Palopó	9	San Antonio Palopo	8	Agosto	2023-08-19T00:00:00	2024-11-08T07:00:00	4	Temperatura máxima	18.6
2283	7	Sololá	712	San Antonio Palopó	9	San Antonio Palopo	8	Agosto	2023-08-19T00:00:00	2024-11-08T07:00:00	3	Temperatura mínima	18.1
2284	7	Sololá	712	San Antonio Palopó	9	San Antonio Palopo	8	Agosto	2023-08-19T00:00:00	2024-11-08T07:00:00	5	Humedad	67
2285	7	Sololá	712	San Antonio Palopó	9	San Antonio Palopo	8	Agosto	2023-08-19T00:00:00	2024-11-08T07:00:00	6	Velocidad del viento	4.8
2286	7	Sololá	712	San Antonio Palopó	9	San Antonio Palopo	8	Agosto	2023-08-19T00:00:00	2024-11-08T07:00:00	7	Dirección del viento	4.83
2287	7	Sololá	712	San Antonio Palopó	9	San Antonio Palopo	8	Agosto	2023-08-19T00:00:00	2024-11-08T07:00:00	1	Precipitación	0
2288	7	Sololá	712	San Antonio Palopó	9	San Antonio Palopo	8	Agosto	2023-08-19T00:00:00	2024-11-08T07:00:00	8	Radiación solar	40
2289	7	Sololá	712	San Antonio Palopó	9	San Antonio Palopo	8	Agosto	2023-08-19T00:00:00	2024-11-08T08:00:00	2	Temperatura media	20.3
2290	7	Sololá	712	San Antonio Palopó	9	San Antonio Palopo	8	Agosto	2023-08-19T00:00:00	2024-11-08T08:00:00	4	Temperatura máxima	20.3
2291	7	Sololá	712	San Antonio Palopó	9	San Antonio Palopo	8	Agosto	2023-08-19T00:00:00	2024-11-08T08:00:00	3	Temperatura mínima	18.1
2292	7	Sololá	712	San Antonio Palopó	9	San Antonio Palopo	8	Agosto	2023-08-19T00:00:00	2024-11-08T08:00:00	5	Humedad	61
2293	7	Sololá	712	San Antonio Palopó	9	San Antonio Palopo	8	Agosto	2023-08-19T00:00:00	2024-11-08T08:00:00	6	Velocidad del viento	1.6
2294	7	Sololá	712	San Antonio Palopó	9	San Antonio Palopo	8	Agosto	2023-08-19T00:00:00	2024-11-08T08:00:00	7	Dirección del viento	1.61
2295	7	Sololá	712	San Antonio Palopó	9	San Antonio Palopo	8	Agosto	2023-08-19T00:00:00	2024-11-08T08:00:00	1	Precipitación	0
2296	7	Sololá	712	San Antonio Palopó	9	San Antonio Palopo	8	Agosto	2023-08-19T00:00:00	2024-11-08T08:00:00	8	Radiación solar	139
2297	7	Sololá	712	San Antonio Palopó	9	San Antonio Palopo	8	Agosto	2023-08-19T00:00:00	2024-11-08T09:00:00	2	Temperatura media	22.1
2298	7	Sololá	712	San Antonio Palopó	9	San Antonio Palopo	8	Agosto	2023-08-19T00:00:00	2024-11-08T09:00:00	4	Temperatura máxima	22.4
2299	7	Sololá	712	San Antonio Palopó	9	San Antonio Palopo	8	Agosto	2023-08-19T00:00:00	2024-11-08T09:00:00	3	Temperatura mínima	20.3
2300	7	Sololá	712	San Antonio Palopó	9	San Antonio Palopo	8	Agosto	2023-08-19T00:00:00	2024-11-08T09:00:00	5	Humedad	57
2301	7	Sololá	712	San Antonio Palopó	9	San Antonio Palopo	8	Agosto	2023-08-19T00:00:00	2024-11-08T09:00:00	6	Velocidad del viento	8
2302	7	Sololá	712	San Antonio Palopó	9	San Antonio Palopo	8	Agosto	2023-08-19T00:00:00	2024-11-08T09:00:00	7	Dirección del viento	8.05
2303	7	Sololá	712	San Antonio Palopó	9	San Antonio Palopo	8	Agosto	2023-08-19T00:00:00	2024-11-08T09:00:00	1	Precipitación	0
2304	7	Sololá	712	San Antonio Palopó	9	San Antonio Palopo	8	Agosto	2023-08-19T00:00:00	2024-11-08T09:00:00	8	Radiación solar	538
2305	7	Sololá	712	San Antonio Palopó	9	San Antonio Palopo	8	Agosto	2023-08-19T00:00:00	2024-11-08T10:00:00	2	Temperatura media	23.3
2306	7	Sololá	712	San Antonio Palopó	9	San Antonio Palopo	8	Agosto	2023-08-19T00:00:00	2024-11-08T10:00:00	4	Temperatura máxima	23.3
2307	7	Sololá	712	San Antonio Palopó	9	San Antonio Palopo	8	Agosto	2023-08-19T00:00:00	2024-11-08T10:00:00	3	Temperatura mínima	22
2308	7	Sololá	712	San Antonio Palopó	9	San Antonio Palopo	8	Agosto	2023-08-19T00:00:00	2024-11-08T10:00:00	5	Humedad	58
2309	7	Sololá	712	San Antonio Palopó	9	San Antonio Palopo	8	Agosto	2023-08-19T00:00:00	2024-11-08T10:00:00	6	Velocidad del viento	6.4
2310	7	Sololá	712	San Antonio Palopó	9	San Antonio Palopo	8	Agosto	2023-08-19T00:00:00	2024-11-08T10:00:00	7	Dirección del viento	6.44
2311	7	Sololá	712	San Antonio Palopó	9	San Antonio Palopo	8	Agosto	2023-08-19T00:00:00	2024-11-08T10:00:00	1	Precipitación	0
2312	7	Sololá	712	San Antonio Palopó	9	San Antonio Palopo	8	Agosto	2023-08-19T00:00:00	2024-11-08T10:00:00	8	Radiación solar	735
2313	7	Sololá	712	San Antonio Palopó	9	San Antonio Palopo	8	Agosto	2023-08-19T00:00:00	2024-11-08T11:00:00	2	Temperatura media	25.3
2314	7	Sololá	712	San Antonio Palopó	9	San Antonio Palopo	8	Agosto	2023-08-19T00:00:00	2024-11-08T11:00:00	4	Temperatura máxima	25.3
2315	7	Sololá	712	San Antonio Palopó	9	San Antonio Palopo	8	Agosto	2023-08-19T00:00:00	2024-11-08T11:00:00	3	Temperatura mínima	23.1
2316	7	Sololá	712	San Antonio Palopó	9	San Antonio Palopo	8	Agosto	2023-08-19T00:00:00	2024-11-08T11:00:00	5	Humedad	49
2317	7	Sololá	712	San Antonio Palopó	9	San Antonio Palopo	8	Agosto	2023-08-19T00:00:00	2024-11-08T11:00:00	6	Velocidad del viento	8
2318	7	Sololá	712	San Antonio Palopó	9	San Antonio Palopo	8	Agosto	2023-08-19T00:00:00	2024-11-08T11:00:00	7	Dirección del viento	8.05
2319	7	Sololá	712	San Antonio Palopó	9	San Antonio Palopo	8	Agosto	2023-08-19T00:00:00	2024-11-08T11:00:00	1	Precipitación	0
2320	7	Sololá	712	San Antonio Palopó	9	San Antonio Palopo	8	Agosto	2023-08-19T00:00:00	2024-11-08T11:00:00	8	Radiación solar	893
2321	7	Sololá	712	San Antonio Palopó	9	San Antonio Palopo	8	Agosto	2023-08-19T00:00:00	2024-11-08T12:00:00	2	Temperatura media	26.8
2322	7	Sololá	712	San Antonio Palopó	9	San Antonio Palopo	8	Agosto	2023-08-19T00:00:00	2024-11-08T12:00:00	4	Temperatura máxima	26.9
2323	7	Sololá	712	San Antonio Palopó	9	San Antonio Palopo	8	Agosto	2023-08-19T00:00:00	2024-11-08T12:00:00	3	Temperatura mínima	25.2
2324	7	Sololá	712	San Antonio Palopó	9	San Antonio Palopo	8	Agosto	2023-08-19T00:00:00	2024-11-08T12:00:00	5	Humedad	43
2325	7	Sololá	712	San Antonio Palopó	9	San Antonio Palopo	8	Agosto	2023-08-19T00:00:00	2024-11-08T12:00:00	6	Velocidad del viento	11.3
2326	7	Sololá	712	San Antonio Palopó	9	San Antonio Palopo	8	Agosto	2023-08-19T00:00:00	2024-11-08T12:00:00	7	Dirección del viento	11.27
2327	7	Sololá	712	San Antonio Palopó	9	San Antonio Palopo	8	Agosto	2023-08-19T00:00:00	2024-11-08T12:00:00	1	Precipitación	0
2328	7	Sololá	712	San Antonio Palopó	9	San Antonio Palopo	8	Agosto	2023-08-19T00:00:00	2024-11-08T12:00:00	8	Radiación solar	973
2329	7	Sololá	712	San Antonio Palopó	9	San Antonio Palopo	8	Agosto	2023-08-19T00:00:00	2024-11-08T13:00:00	2	Temperatura media	26.7
2330	7	Sololá	712	San Antonio Palopó	9	San Antonio Palopo	8	Agosto	2023-08-19T00:00:00	2024-11-08T13:00:00	4	Temperatura máxima	27
2331	7	Sololá	712	San Antonio Palopó	9	San Antonio Palopo	8	Agosto	2023-08-19T00:00:00	2024-11-08T13:00:00	3	Temperatura mínima	25.9
2332	7	Sololá	712	San Antonio Palopó	9	San Antonio Palopo	8	Agosto	2023-08-19T00:00:00	2024-11-08T13:00:00	5	Humedad	46
2333	7	Sololá	712	San Antonio Palopó	9	San Antonio Palopo	8	Agosto	2023-08-19T00:00:00	2024-11-08T13:00:00	6	Velocidad del viento	12.9
2334	7	Sololá	712	San Antonio Palopó	9	San Antonio Palopo	8	Agosto	2023-08-19T00:00:00	2024-11-08T13:00:00	7	Dirección del viento	12.87
2335	7	Sololá	712	San Antonio Palopó	9	San Antonio Palopo	8	Agosto	2023-08-19T00:00:00	2024-11-08T13:00:00	1	Precipitación	0
2336	7	Sololá	712	San Antonio Palopó	9	San Antonio Palopo	8	Agosto	2023-08-19T00:00:00	2024-11-08T13:00:00	8	Radiación solar	793
2337	7	Sololá	712	San Antonio Palopó	9	San Antonio Palopo	8	Agosto	2023-08-19T00:00:00	2024-11-08T14:00:00	2	Temperatura media	26.8
2338	7	Sololá	712	San Antonio Palopó	9	San Antonio Palopo	8	Agosto	2023-08-19T00:00:00	2024-11-08T14:00:00	4	Temperatura máxima	26.8
2339	7	Sololá	712	San Antonio Palopó	9	San Antonio Palopo	8	Agosto	2023-08-19T00:00:00	2024-11-08T14:00:00	3	Temperatura mínima	25.7
2340	7	Sololá	712	San Antonio Palopó	9	San Antonio Palopo	8	Agosto	2023-08-19T00:00:00	2024-11-08T14:00:00	5	Humedad	47
2341	7	Sololá	712	San Antonio Palopó	9	San Antonio Palopo	8	Agosto	2023-08-19T00:00:00	2024-11-08T14:00:00	6	Velocidad del viento	9.7
2342	7	Sololá	712	San Antonio Palopó	9	San Antonio Palopo	8	Agosto	2023-08-19T00:00:00	2024-11-08T14:00:00	7	Dirección del viento	9.66
2343	7	Sololá	712	San Antonio Palopó	9	San Antonio Palopo	8	Agosto	2023-08-19T00:00:00	2024-11-08T14:00:00	1	Precipitación	0
2344	7	Sololá	712	San Antonio Palopó	9	San Antonio Palopo	8	Agosto	2023-08-19T00:00:00	2024-11-08T14:00:00	8	Radiación solar	663
2345	7	Sololá	712	San Antonio Palopó	9	San Antonio Palopo	8	Agosto	2023-08-19T00:00:00	2024-11-08T15:00:00	2	Temperatura media	24.7
2346	7	Sololá	712	San Antonio Palopó	9	San Antonio Palopo	8	Agosto	2023-08-19T00:00:00	2024-11-08T15:00:00	4	Temperatura máxima	26.8
2347	7	Sololá	712	San Antonio Palopó	9	San Antonio Palopo	8	Agosto	2023-08-19T00:00:00	2024-11-08T15:00:00	3	Temperatura mínima	24.4
2348	7	Sololá	712	San Antonio Palopó	9	San Antonio Palopo	8	Agosto	2023-08-19T00:00:00	2024-11-08T15:00:00	5	Humedad	58
2349	7	Sololá	712	San Antonio Palopó	9	San Antonio Palopo	8	Agosto	2023-08-19T00:00:00	2024-11-08T15:00:00	6	Velocidad del viento	9.7
2350	7	Sololá	712	San Antonio Palopó	9	San Antonio Palopo	8	Agosto	2023-08-19T00:00:00	2024-11-08T15:00:00	7	Dirección del viento	9.66
2351	7	Sololá	712	San Antonio Palopó	9	San Antonio Palopo	8	Agosto	2023-08-19T00:00:00	2024-11-08T15:00:00	1	Precipitación	0
2352	7	Sololá	712	San Antonio Palopó	9	San Antonio Palopo	8	Agosto	2023-08-19T00:00:00	2024-11-08T15:00:00	8	Radiación solar	233
2353	7	Sololá	712	San Antonio Palopó	9	San Antonio Palopo	8	Agosto	2023-08-19T00:00:00	2024-11-08T16:00:00	2	Temperatura media	23.1
2354	7	Sololá	712	San Antonio Palopó	9	San Antonio Palopo	8	Agosto	2023-08-19T00:00:00	2024-11-08T16:00:00	4	Temperatura máxima	25.8
2355	7	Sololá	712	San Antonio Palopó	9	San Antonio Palopo	8	Agosto	2023-08-19T00:00:00	2024-11-08T16:00:00	3	Temperatura mínima	23.1
2356	7	Sololá	712	San Antonio Palopó	9	San Antonio Palopo	8	Agosto	2023-08-19T00:00:00	2024-11-08T16:00:00	5	Humedad	75
2357	7	Sololá	712	San Antonio Palopó	9	San Antonio Palopo	8	Agosto	2023-08-19T00:00:00	2024-11-08T16:00:00	6	Velocidad del viento	12.9
2358	7	Sololá	712	San Antonio Palopó	9	San Antonio Palopo	8	Agosto	2023-08-19T00:00:00	2024-11-08T16:00:00	7	Dirección del viento	12.87
2359	7	Sololá	712	San Antonio Palopó	9	San Antonio Palopo	8	Agosto	2023-08-19T00:00:00	2024-11-08T16:00:00	1	Precipitación	0
2360	7	Sololá	712	San Antonio Palopó	9	San Antonio Palopo	8	Agosto	2023-08-19T00:00:00	2024-11-08T16:00:00	8	Radiación solar	264
2361	7	Sololá	712	San Antonio Palopó	9	San Antonio Palopo	8	Agosto	2023-08-19T00:00:00	2024-11-08T17:00:00	2	Temperatura media	22.9
2362	7	Sololá	712	San Antonio Palopó	9	San Antonio Palopo	8	Agosto	2023-08-19T00:00:00	2024-11-08T17:00:00	4	Temperatura máxima	23.1
2363	7	Sololá	712	San Antonio Palopó	9	San Antonio Palopo	8	Agosto	2023-08-19T00:00:00	2024-11-08T17:00:00	3	Temperatura mínima	22.6
2364	7	Sololá	712	San Antonio Palopó	9	San Antonio Palopo	8	Agosto	2023-08-19T00:00:00	2024-11-08T17:00:00	5	Humedad	77
2365	7	Sololá	712	San Antonio Palopó	9	San Antonio Palopo	8	Agosto	2023-08-19T00:00:00	2024-11-08T17:00:00	6	Velocidad del viento	11.3
2366	7	Sololá	712	San Antonio Palopó	9	San Antonio Palopo	8	Agosto	2023-08-19T00:00:00	2024-11-08T17:00:00	7	Dirección del viento	11.27
2367	7	Sololá	712	San Antonio Palopó	9	San Antonio Palopo	8	Agosto	2023-08-19T00:00:00	2024-11-08T17:00:00	1	Precipitación	0
2368	7	Sololá	712	San Antonio Palopó	9	San Antonio Palopo	8	Agosto	2023-08-19T00:00:00	2024-11-08T17:00:00	8	Radiación solar	138
2369	7	Sololá	712	San Antonio Palopó	9	San Antonio Palopo	8	Agosto	2023-08-19T00:00:00	2024-11-08T18:00:00	2	Temperatura media	21.9
2370	7	Sololá	712	San Antonio Palopó	9	San Antonio Palopo	8	Agosto	2023-08-19T00:00:00	2024-11-08T18:00:00	4	Temperatura máxima	23.9
2371	7	Sololá	712	San Antonio Palopó	9	San Antonio Palopo	8	Agosto	2023-08-19T00:00:00	2024-11-08T18:00:00	3	Temperatura mínima	21.7
2372	7	Sololá	712	San Antonio Palopó	9	San Antonio Palopo	8	Agosto	2023-08-19T00:00:00	2024-11-08T18:00:00	5	Humedad	75
2373	7	Sololá	712	San Antonio Palopó	9	San Antonio Palopo	8	Agosto	2023-08-19T00:00:00	2024-11-08T18:00:00	6	Velocidad del viento	4.8
2374	7	Sololá	712	San Antonio Palopó	9	San Antonio Palopo	8	Agosto	2023-08-19T00:00:00	2024-11-08T18:00:00	7	Dirección del viento	4.83
2375	7	Sololá	712	San Antonio Palopó	9	San Antonio Palopo	8	Agosto	2023-08-19T00:00:00	2024-11-08T18:00:00	1	Precipitación	0
2376	7	Sololá	712	San Antonio Palopó	9	San Antonio Palopo	8	Agosto	2023-08-19T00:00:00	2024-11-08T18:00:00	8	Radiación solar	79
2377	7	Sololá	712	San Antonio Palopó	9	San Antonio Palopo	8	Agosto	2023-08-19T00:00:00	2024-11-08T19:00:00	2	Temperatura media	21.3
2378	7	Sololá	712	San Antonio Palopó	9	San Antonio Palopo	8	Agosto	2023-08-19T00:00:00	2024-11-08T19:00:00	4	Temperatura máxima	22.1
2379	7	Sololá	712	San Antonio Palopó	9	San Antonio Palopo	8	Agosto	2023-08-19T00:00:00	2024-11-08T19:00:00	3	Temperatura mínima	21.3
2380	7	Sololá	712	San Antonio Palopó	9	San Antonio Palopo	8	Agosto	2023-08-19T00:00:00	2024-11-08T19:00:00	5	Humedad	75
2381	7	Sololá	712	San Antonio Palopó	9	San Antonio Palopo	8	Agosto	2023-08-19T00:00:00	2024-11-08T19:00:00	6	Velocidad del viento	4.8
2382	7	Sololá	712	San Antonio Palopó	9	San Antonio Palopo	8	Agosto	2023-08-19T00:00:00	2024-11-08T19:00:00	7	Dirección del viento	4.83
2383	7	Sololá	712	San Antonio Palopó	9	San Antonio Palopo	8	Agosto	2023-08-19T00:00:00	2024-11-08T19:00:00	1	Precipitación	0
2384	7	Sololá	712	San Antonio Palopó	9	San Antonio Palopo	8	Agosto	2023-08-19T00:00:00	2024-11-08T19:00:00	8	Radiación solar	0
2385	7	Sololá	712	San Antonio Palopó	9	San Antonio Palopo	8	Agosto	2023-08-19T00:00:00	2024-11-08T20:00:00	2	Temperatura media	20.2
2386	7	Sololá	712	San Antonio Palopó	9	San Antonio Palopo	8	Agosto	2023-08-19T00:00:00	2024-11-08T20:00:00	4	Temperatura máxima	21.7
2387	7	Sololá	712	San Antonio Palopó	9	San Antonio Palopo	8	Agosto	2023-08-19T00:00:00	2024-11-08T20:00:00	3	Temperatura mínima	20.2
2388	7	Sololá	712	San Antonio Palopó	9	San Antonio Palopo	8	Agosto	2023-08-19T00:00:00	2024-11-08T20:00:00	5	Humedad	75
2389	7	Sololá	712	San Antonio Palopó	9	San Antonio Palopo	8	Agosto	2023-08-19T00:00:00	2024-11-08T20:00:00	6	Velocidad del viento	6.4
2390	7	Sololá	712	San Antonio Palopó	9	San Antonio Palopo	8	Agosto	2023-08-19T00:00:00	2024-11-08T20:00:00	7	Dirección del viento	6.44
2391	7	Sololá	712	San Antonio Palopó	9	San Antonio Palopo	8	Agosto	2023-08-19T00:00:00	2024-11-08T20:00:00	1	Precipitación	0.2
2392	7	Sololá	712	San Antonio Palopó	9	San Antonio Palopo	8	Agosto	2023-08-19T00:00:00	2024-11-08T20:00:00	8	Radiación solar	0
2393	7	Sololá	712	San Antonio Palopó	9	San Antonio Palopo	8	Agosto	2023-08-19T00:00:00	2024-11-08T21:00:00	2	Temperatura media	19.2
2394	7	Sololá	712	San Antonio Palopó	9	San Antonio Palopo	8	Agosto	2023-08-19T00:00:00	2024-11-08T21:00:00	4	Temperatura máxima	20.4
2395	7	Sololá	712	San Antonio Palopó	9	San Antonio Palopo	8	Agosto	2023-08-19T00:00:00	2024-11-08T21:00:00	3	Temperatura mínima	19
2396	7	Sololá	712	San Antonio Palopó	9	San Antonio Palopo	8	Agosto	2023-08-19T00:00:00	2024-11-08T21:00:00	5	Humedad	76
2397	7	Sololá	712	San Antonio Palopó	9	San Antonio Palopo	8	Agosto	2023-08-19T00:00:00	2024-11-08T21:00:00	6	Velocidad del viento	4.8
2398	7	Sololá	712	San Antonio Palopó	9	San Antonio Palopo	8	Agosto	2023-08-19T00:00:00	2024-11-08T21:00:00	7	Dirección del viento	4.83
2399	7	Sololá	712	San Antonio Palopó	9	San Antonio Palopo	8	Agosto	2023-08-19T00:00:00	2024-11-08T21:00:00	1	Precipitación	0
2400	7	Sololá	712	San Antonio Palopó	9	San Antonio Palopo	8	Agosto	2023-08-19T00:00:00	2024-11-08T21:00:00	8	Radiación solar	0
2401	7	Sololá	712	San Antonio Palopó	9	San Antonio Palopo	8	Agosto	2023-08-19T00:00:00	2024-11-08T22:00:00	2	Temperatura media	19.3
2402	7	Sololá	712	San Antonio Palopó	9	San Antonio Palopo	8	Agosto	2023-08-19T00:00:00	2024-11-08T22:00:00	4	Temperatura máxima	19.7
2403	7	Sololá	712	San Antonio Palopó	9	San Antonio Palopo	8	Agosto	2023-08-19T00:00:00	2024-11-08T22:00:00	3	Temperatura mínima	19.2
2404	7	Sololá	712	San Antonio Palopó	9	San Antonio Palopo	8	Agosto	2023-08-19T00:00:00	2024-11-08T22:00:00	5	Humedad	69
2405	7	Sololá	712	San Antonio Palopó	9	San Antonio Palopo	8	Agosto	2023-08-19T00:00:00	2024-11-08T22:00:00	6	Velocidad del viento	4.8
2406	7	Sololá	712	San Antonio Palopó	9	San Antonio Palopo	8	Agosto	2023-08-19T00:00:00	2024-11-08T22:00:00	7	Dirección del viento	4.83
2407	7	Sololá	712	San Antonio Palopó	9	San Antonio Palopo	8	Agosto	2023-08-19T00:00:00	2024-11-08T22:00:00	1	Precipitación	0
2408	7	Sololá	712	San Antonio Palopó	9	San Antonio Palopo	8	Agosto	2023-08-19T00:00:00	2024-11-08T22:00:00	8	Radiación solar	0
2409	7	Sololá	712	San Antonio Palopó	9	San Antonio Palopo	8	Agosto	2023-08-19T00:00:00	2024-11-08T23:00:00	2	Temperatura media	18.8
2410	7	Sololá	712	San Antonio Palopó	9	San Antonio Palopo	8	Agosto	2023-08-19T00:00:00	2024-11-08T23:00:00	4	Temperatura máxima	19.3
2411	7	Sololá	712	San Antonio Palopó	9	San Antonio Palopo	8	Agosto	2023-08-19T00:00:00	2024-11-08T23:00:00	3	Temperatura mínima	18.8
2412	7	Sololá	712	San Antonio Palopó	9	San Antonio Palopo	8	Agosto	2023-08-19T00:00:00	2024-11-08T23:00:00	5	Humedad	70
2413	7	Sololá	712	San Antonio Palopó	9	San Antonio Palopo	8	Agosto	2023-08-19T00:00:00	2024-11-08T23:00:00	6	Velocidad del viento	4.8
2414	7	Sololá	712	San Antonio Palopó	9	San Antonio Palopo	8	Agosto	2023-08-19T00:00:00	2024-11-08T23:00:00	7	Dirección del viento	4.83
2415	7	Sololá	712	San Antonio Palopó	9	San Antonio Palopo	8	Agosto	2023-08-19T00:00:00	2024-11-08T23:00:00	1	Precipitación	0
2416	7	Sololá	712	San Antonio Palopó	9	San Antonio Palopo	8	Agosto	2023-08-19T00:00:00	2024-11-08T23:00:00	8	Radiación solar	0
2417	7	Sololá	712	San Antonio Palopó	9	San Antonio Palopo	8	Agosto	2023-08-20T00:00:00	2024-11-08T00:00:00	2	Temperatura media	19.1
2418	7	Sololá	712	San Antonio Palopó	9	San Antonio Palopo	8	Agosto	2023-08-20T00:00:00	2024-11-08T00:00:00	4	Temperatura máxima	19.2
2419	7	Sololá	712	San Antonio Palopó	9	San Antonio Palopo	8	Agosto	2023-08-20T00:00:00	2024-11-08T00:00:00	3	Temperatura mínima	18.7
2420	7	Sololá	712	San Antonio Palopó	9	San Antonio Palopo	8	Agosto	2023-08-20T00:00:00	2024-11-08T00:00:00	5	Humedad	65
2421	7	Sololá	712	San Antonio Palopó	9	San Antonio Palopo	8	Agosto	2023-08-20T00:00:00	2024-11-08T00:00:00	6	Velocidad del viento	4.8
2422	7	Sololá	712	San Antonio Palopó	9	San Antonio Palopo	8	Agosto	2023-08-20T00:00:00	2024-11-08T00:00:00	7	Dirección del viento	4.83
2423	7	Sololá	712	San Antonio Palopó	9	San Antonio Palopo	8	Agosto	2023-08-20T00:00:00	2024-11-08T00:00:00	1	Precipitación	0
2424	7	Sololá	712	San Antonio Palopó	9	San Antonio Palopo	8	Agosto	2023-08-20T00:00:00	2024-11-08T00:00:00	8	Radiación solar	0
2425	7	Sololá	712	San Antonio Palopó	9	San Antonio Palopo	8	Agosto	2023-08-20T00:00:00	2024-11-08T01:00:00	2	Temperatura media	19.2
2426	7	Sololá	712	San Antonio Palopó	9	San Antonio Palopo	8	Agosto	2023-08-20T00:00:00	2024-11-08T01:00:00	4	Temperatura máxima	19.4
2427	7	Sololá	712	San Antonio Palopó	9	San Antonio Palopo	8	Agosto	2023-08-20T00:00:00	2024-11-08T01:00:00	3	Temperatura mínima	18.4
2428	7	Sololá	712	San Antonio Palopó	9	San Antonio Palopo	8	Agosto	2023-08-20T00:00:00	2024-11-08T01:00:00	5	Humedad	63
2429	7	Sololá	712	San Antonio Palopó	9	San Antonio Palopo	8	Agosto	2023-08-20T00:00:00	2024-11-08T01:00:00	6	Velocidad del viento	4.8
2430	7	Sololá	712	San Antonio Palopó	9	San Antonio Palopo	8	Agosto	2023-08-20T00:00:00	2024-11-08T01:00:00	7	Dirección del viento	4.83
2431	7	Sololá	712	San Antonio Palopó	9	San Antonio Palopo	8	Agosto	2023-08-20T00:00:00	2024-11-08T01:00:00	1	Precipitación	0
2432	7	Sololá	712	San Antonio Palopó	9	San Antonio Palopo	8	Agosto	2023-08-20T00:00:00	2024-11-08T01:00:00	8	Radiación solar	0
2433	7	Sololá	712	San Antonio Palopó	9	San Antonio Palopo	8	Agosto	2023-08-20T00:00:00	2024-11-08T02:00:00	2	Temperatura media	19.1
2434	7	Sololá	712	San Antonio Palopó	9	San Antonio Palopo	8	Agosto	2023-08-20T00:00:00	2024-11-08T02:00:00	4	Temperatura máxima	19.4
2435	7	Sololá	712	San Antonio Palopó	9	San Antonio Palopo	8	Agosto	2023-08-20T00:00:00	2024-11-08T02:00:00	3	Temperatura mínima	18.9
2436	7	Sololá	712	San Antonio Palopó	9	San Antonio Palopo	8	Agosto	2023-08-20T00:00:00	2024-11-08T02:00:00	5	Humedad	63
2437	7	Sololá	712	San Antonio Palopó	9	San Antonio Palopo	8	Agosto	2023-08-20T00:00:00	2024-11-08T02:00:00	6	Velocidad del viento	8
2438	7	Sololá	712	San Antonio Palopó	9	San Antonio Palopo	8	Agosto	2023-08-20T00:00:00	2024-11-08T02:00:00	7	Dirección del viento	8.05
2439	7	Sololá	712	San Antonio Palopó	9	San Antonio Palopo	8	Agosto	2023-08-20T00:00:00	2024-11-08T02:00:00	1	Precipitación	0
2440	7	Sololá	712	San Antonio Palopó	9	San Antonio Palopo	8	Agosto	2023-08-20T00:00:00	2024-11-08T02:00:00	8	Radiación solar	0
2441	7	Sololá	712	San Antonio Palopó	9	San Antonio Palopo	8	Agosto	2023-08-20T00:00:00	2024-11-08T03:00:00	2	Temperatura media	18.1
2442	7	Sololá	712	San Antonio Palopó	9	San Antonio Palopo	8	Agosto	2023-08-20T00:00:00	2024-11-08T03:00:00	4	Temperatura máxima	19.1
2443	7	Sololá	712	San Antonio Palopó	9	San Antonio Palopo	8	Agosto	2023-08-20T00:00:00	2024-11-08T03:00:00	3	Temperatura mínima	18.1
2444	7	Sololá	712	San Antonio Palopó	9	San Antonio Palopo	8	Agosto	2023-08-20T00:00:00	2024-11-08T03:00:00	5	Humedad	65
2445	7	Sololá	712	San Antonio Palopó	9	San Antonio Palopo	8	Agosto	2023-08-20T00:00:00	2024-11-08T03:00:00	6	Velocidad del viento	6.4
2446	7	Sololá	712	San Antonio Palopó	9	San Antonio Palopo	8	Agosto	2023-08-20T00:00:00	2024-11-08T03:00:00	7	Dirección del viento	6.44
2447	7	Sololá	712	San Antonio Palopó	9	San Antonio Palopo	8	Agosto	2023-08-20T00:00:00	2024-11-08T03:00:00	1	Precipitación	0
2448	7	Sololá	712	San Antonio Palopó	9	San Antonio Palopo	8	Agosto	2023-08-20T00:00:00	2024-11-08T03:00:00	8	Radiación solar	0
2449	7	Sololá	712	San Antonio Palopó	9	San Antonio Palopo	8	Agosto	2023-08-20T00:00:00	2024-11-08T04:00:00	2	Temperatura media	18
2450	7	Sololá	712	San Antonio Palopó	9	San Antonio Palopo	8	Agosto	2023-08-20T00:00:00	2024-11-08T04:00:00	4	Temperatura máxima	18.9
2451	7	Sololá	712	San Antonio Palopó	9	San Antonio Palopo	8	Agosto	2023-08-20T00:00:00	2024-11-08T04:00:00	3	Temperatura mínima	17.9
2452	7	Sololá	712	San Antonio Palopó	9	San Antonio Palopo	8	Agosto	2023-08-20T00:00:00	2024-11-08T04:00:00	5	Humedad	62
2453	7	Sololá	712	San Antonio Palopó	9	San Antonio Palopo	8	Agosto	2023-08-20T00:00:00	2024-11-08T04:00:00	6	Velocidad del viento	8
2454	7	Sololá	712	San Antonio Palopó	9	San Antonio Palopo	8	Agosto	2023-08-20T00:00:00	2024-11-08T04:00:00	7	Dirección del viento	8.05
2455	7	Sololá	712	San Antonio Palopó	9	San Antonio Palopo	8	Agosto	2023-08-20T00:00:00	2024-11-08T04:00:00	1	Precipitación	0
2456	7	Sololá	712	San Antonio Palopó	9	San Antonio Palopo	8	Agosto	2023-08-20T00:00:00	2024-11-08T04:00:00	8	Radiación solar	0
2457	7	Sololá	712	San Antonio Palopó	9	San Antonio Palopo	8	Agosto	2023-08-20T00:00:00	2024-11-08T05:00:00	2	Temperatura media	18.3
2458	7	Sololá	712	San Antonio Palopó	9	San Antonio Palopo	8	Agosto	2023-08-20T00:00:00	2024-11-08T05:00:00	4	Temperatura máxima	18.5
2459	7	Sololá	712	San Antonio Palopó	9	San Antonio Palopo	8	Agosto	2023-08-20T00:00:00	2024-11-08T05:00:00	3	Temperatura mínima	17.8
2460	7	Sololá	712	San Antonio Palopó	9	San Antonio Palopo	8	Agosto	2023-08-20T00:00:00	2024-11-08T05:00:00	5	Humedad	61
2461	7	Sololá	712	San Antonio Palopó	9	San Antonio Palopo	8	Agosto	2023-08-20T00:00:00	2024-11-08T05:00:00	6	Velocidad del viento	8
2462	7	Sololá	712	San Antonio Palopó	9	San Antonio Palopo	8	Agosto	2023-08-20T00:00:00	2024-11-08T05:00:00	7	Dirección del viento	8.05
2463	7	Sololá	712	San Antonio Palopó	9	San Antonio Palopo	8	Agosto	2023-08-20T00:00:00	2024-11-08T05:00:00	1	Precipitación	0
2464	7	Sololá	712	San Antonio Palopó	9	San Antonio Palopo	8	Agosto	2023-08-20T00:00:00	2024-11-08T05:00:00	8	Radiación solar	0
2465	7	Sololá	712	San Antonio Palopó	9	San Antonio Palopo	8	Agosto	2023-08-20T00:00:00	2024-11-08T06:00:00	2	Temperatura media	17.8
2466	7	Sololá	712	San Antonio Palopó	9	San Antonio Palopo	8	Agosto	2023-08-20T00:00:00	2024-11-08T06:00:00	4	Temperatura máxima	18.3
2467	7	Sololá	712	San Antonio Palopó	9	San Antonio Palopo	8	Agosto	2023-08-20T00:00:00	2024-11-08T06:00:00	3	Temperatura mínima	17.6
2468	7	Sololá	712	San Antonio Palopó	9	San Antonio Palopo	8	Agosto	2023-08-20T00:00:00	2024-11-08T06:00:00	5	Humedad	62
2469	7	Sololá	712	San Antonio Palopó	9	San Antonio Palopo	8	Agosto	2023-08-20T00:00:00	2024-11-08T06:00:00	6	Velocidad del viento	8
2470	7	Sololá	712	San Antonio Palopó	9	San Antonio Palopo	8	Agosto	2023-08-20T00:00:00	2024-11-08T06:00:00	7	Dirección del viento	8.05
2471	7	Sololá	712	San Antonio Palopó	9	San Antonio Palopo	8	Agosto	2023-08-20T00:00:00	2024-11-08T06:00:00	1	Precipitación	0
2472	7	Sololá	712	San Antonio Palopó	9	San Antonio Palopo	8	Agosto	2023-08-20T00:00:00	2024-11-08T06:00:00	8	Radiación solar	0
2473	7	Sololá	712	San Antonio Palopó	9	San Antonio Palopo	8	Agosto	2023-08-20T00:00:00	2024-11-08T07:00:00	2	Temperatura media	18.5
2474	7	Sololá	712	San Antonio Palopó	9	San Antonio Palopo	8	Agosto	2023-08-20T00:00:00	2024-11-08T07:00:00	4	Temperatura máxima	18.5
2475	7	Sololá	712	San Antonio Palopó	9	San Antonio Palopo	8	Agosto	2023-08-20T00:00:00	2024-11-08T07:00:00	3	Temperatura mínima	17.8
2476	7	Sololá	712	San Antonio Palopó	9	San Antonio Palopo	8	Agosto	2023-08-20T00:00:00	2024-11-08T07:00:00	5	Humedad	59
2477	7	Sololá	712	San Antonio Palopó	9	San Antonio Palopo	8	Agosto	2023-08-20T00:00:00	2024-11-08T07:00:00	6	Velocidad del viento	6.4
2478	7	Sololá	712	San Antonio Palopó	9	San Antonio Palopo	8	Agosto	2023-08-20T00:00:00	2024-11-08T07:00:00	7	Dirección del viento	6.44
2479	7	Sololá	712	San Antonio Palopó	9	San Antonio Palopo	8	Agosto	2023-08-20T00:00:00	2024-11-08T07:00:00	1	Precipitación	0
2480	7	Sololá	712	San Antonio Palopó	9	San Antonio Palopo	8	Agosto	2023-08-20T00:00:00	2024-11-08T07:00:00	8	Radiación solar	17
2481	7	Sololá	712	San Antonio Palopó	9	San Antonio Palopo	8	Agosto	2023-08-20T00:00:00	2024-11-08T08:00:00	2	Temperatura media	20.2
2482	7	Sololá	712	San Antonio Palopó	9	San Antonio Palopo	8	Agosto	2023-08-20T00:00:00	2024-11-08T08:00:00	4	Temperatura máxima	20.2
2483	7	Sololá	712	San Antonio Palopó	9	San Antonio Palopo	8	Agosto	2023-08-20T00:00:00	2024-11-08T08:00:00	3	Temperatura mínima	18.5
2484	7	Sololá	712	San Antonio Palopó	9	San Antonio Palopo	8	Agosto	2023-08-20T00:00:00	2024-11-08T08:00:00	5	Humedad	56
2485	7	Sololá	712	San Antonio Palopó	9	San Antonio Palopo	8	Agosto	2023-08-20T00:00:00	2024-11-08T08:00:00	6	Velocidad del viento	4.8
2486	7	Sololá	712	San Antonio Palopó	9	San Antonio Palopo	8	Agosto	2023-08-20T00:00:00	2024-11-08T08:00:00	7	Dirección del viento	4.83
2487	7	Sololá	712	San Antonio Palopó	9	San Antonio Palopo	8	Agosto	2023-08-20T00:00:00	2024-11-08T08:00:00	1	Precipitación	0
2488	7	Sololá	712	San Antonio Palopó	9	San Antonio Palopo	8	Agosto	2023-08-20T00:00:00	2024-11-08T08:00:00	8	Radiación solar	129
2489	7	Sololá	712	San Antonio Palopó	9	San Antonio Palopo	8	Agosto	2023-08-20T00:00:00	2024-11-08T09:00:00	2	Temperatura media	22.4
2490	7	Sololá	712	San Antonio Palopó	9	San Antonio Palopo	8	Agosto	2023-08-20T00:00:00	2024-11-08T09:00:00	4	Temperatura máxima	22.4
2491	7	Sololá	712	San Antonio Palopó	9	San Antonio Palopo	8	Agosto	2023-08-20T00:00:00	2024-11-08T09:00:00	3	Temperatura mínima	20.3
2492	7	Sololá	712	San Antonio Palopó	9	San Antonio Palopo	8	Agosto	2023-08-20T00:00:00	2024-11-08T09:00:00	5	Humedad	53
2493	7	Sololá	712	San Antonio Palopó	9	San Antonio Palopo	8	Agosto	2023-08-20T00:00:00	2024-11-08T09:00:00	6	Velocidad del viento	1.6
2494	7	Sololá	712	San Antonio Palopó	9	San Antonio Palopo	8	Agosto	2023-08-20T00:00:00	2024-11-08T09:00:00	7	Dirección del viento	1.61
2495	7	Sololá	712	San Antonio Palopó	9	San Antonio Palopo	8	Agosto	2023-08-20T00:00:00	2024-11-08T09:00:00	1	Precipitación	0
2496	7	Sololá	712	San Antonio Palopó	9	San Antonio Palopo	8	Agosto	2023-08-20T00:00:00	2024-11-08T09:00:00	8	Radiación solar	547
2497	7	Sololá	712	San Antonio Palopó	9	San Antonio Palopo	8	Agosto	2023-08-20T00:00:00	2024-11-08T10:00:00	2	Temperatura media	24.2
2498	7	Sololá	712	San Antonio Palopó	9	San Antonio Palopo	8	Agosto	2023-08-20T00:00:00	2024-11-08T10:00:00	4	Temperatura máxima	24.2
2499	7	Sololá	712	San Antonio Palopó	9	San Antonio Palopo	8	Agosto	2023-08-20T00:00:00	2024-11-08T10:00:00	3	Temperatura mínima	22.3
2500	7	Sololá	712	San Antonio Palopó	9	San Antonio Palopo	8	Agosto	2023-08-20T00:00:00	2024-11-08T10:00:00	5	Humedad	49
2501	7	Sololá	712	San Antonio Palopó	9	San Antonio Palopo	8	Agosto	2023-08-20T00:00:00	2024-11-08T10:00:00	6	Velocidad del viento	1.6
2502	7	Sololá	712	San Antonio Palopó	9	San Antonio Palopo	8	Agosto	2023-08-20T00:00:00	2024-11-08T10:00:00	7	Dirección del viento	1.61
2503	7	Sololá	712	San Antonio Palopó	9	San Antonio Palopo	8	Agosto	2023-08-20T00:00:00	2024-11-08T10:00:00	1	Precipitación	0
2504	7	Sololá	712	San Antonio Palopó	9	San Antonio Palopo	8	Agosto	2023-08-20T00:00:00	2024-11-08T10:00:00	8	Radiación solar	737
2505	7	Sololá	712	San Antonio Palopó	9	San Antonio Palopo	8	Agosto	2023-08-20T00:00:00	2024-11-08T11:00:00	2	Temperatura media	24.8
2506	7	Sololá	712	San Antonio Palopó	9	San Antonio Palopo	8	Agosto	2023-08-20T00:00:00	2024-11-08T11:00:00	4	Temperatura máxima	25.2
2507	7	Sololá	712	San Antonio Palopó	9	San Antonio Palopo	8	Agosto	2023-08-20T00:00:00	2024-11-08T11:00:00	3	Temperatura mínima	24.1
2508	7	Sololá	712	San Antonio Palopó	9	San Antonio Palopo	8	Agosto	2023-08-20T00:00:00	2024-11-08T11:00:00	5	Humedad	47
2509	7	Sololá	712	San Antonio Palopó	9	San Antonio Palopo	8	Agosto	2023-08-20T00:00:00	2024-11-08T11:00:00	6	Velocidad del viento	3.2
2510	7	Sololá	712	San Antonio Palopó	9	San Antonio Palopo	8	Agosto	2023-08-20T00:00:00	2024-11-08T11:00:00	7	Dirección del viento	3.22
2511	7	Sololá	712	San Antonio Palopó	9	San Antonio Palopo	8	Agosto	2023-08-20T00:00:00	2024-11-08T11:00:00	1	Precipitación	0
2512	7	Sololá	712	San Antonio Palopó	9	San Antonio Palopo	8	Agosto	2023-08-20T00:00:00	2024-11-08T11:00:00	8	Radiación solar	875
2513	7	Sololá	712	San Antonio Palopó	9	San Antonio Palopo	8	Agosto	2023-08-20T00:00:00	2024-11-08T12:00:00	2	Temperatura media	25.3
2514	7	Sololá	712	San Antonio Palopó	9	San Antonio Palopo	8	Agosto	2023-08-20T00:00:00	2024-11-08T12:00:00	4	Temperatura máxima	25.7
2515	7	Sololá	712	San Antonio Palopó	9	San Antonio Palopo	8	Agosto	2023-08-20T00:00:00	2024-11-08T12:00:00	3	Temperatura mínima	24.8
2516	7	Sololá	712	San Antonio Palopó	9	San Antonio Palopo	8	Agosto	2023-08-20T00:00:00	2024-11-08T12:00:00	5	Humedad	59
2517	7	Sololá	712	San Antonio Palopó	9	San Antonio Palopo	8	Agosto	2023-08-20T00:00:00	2024-11-08T12:00:00	6	Velocidad del viento	4.8
2518	7	Sololá	712	San Antonio Palopó	9	San Antonio Palopo	8	Agosto	2023-08-20T00:00:00	2024-11-08T12:00:00	7	Dirección del viento	4.83
2519	7	Sololá	712	San Antonio Palopó	9	San Antonio Palopo	8	Agosto	2023-08-20T00:00:00	2024-11-08T12:00:00	1	Precipitación	0
2520	7	Sololá	712	San Antonio Palopó	9	San Antonio Palopo	8	Agosto	2023-08-20T00:00:00	2024-11-08T12:00:00	8	Radiación solar	958
2521	7	Sololá	712	San Antonio Palopó	9	San Antonio Palopo	8	Agosto	2023-08-20T00:00:00	2024-11-08T13:00:00	2	Temperatura media	25.3
2522	7	Sololá	712	San Antonio Palopó	9	San Antonio Palopo	8	Agosto	2023-08-20T00:00:00	2024-11-08T13:00:00	4	Temperatura máxima	26
2523	7	Sololá	712	San Antonio Palopó	9	San Antonio Palopo	8	Agosto	2023-08-20T00:00:00	2024-11-08T13:00:00	3	Temperatura mínima	24.9
2524	7	Sololá	712	San Antonio Palopó	9	San Antonio Palopo	8	Agosto	2023-08-20T00:00:00	2024-11-08T13:00:00	5	Humedad	65
2525	7	Sololá	712	San Antonio Palopó	9	San Antonio Palopo	8	Agosto	2023-08-20T00:00:00	2024-11-08T13:00:00	6	Velocidad del viento	6.4
2526	7	Sololá	712	San Antonio Palopó	9	San Antonio Palopo	8	Agosto	2023-08-20T00:00:00	2024-11-08T13:00:00	7	Dirección del viento	6.44
2527	7	Sololá	712	San Antonio Palopó	9	San Antonio Palopo	8	Agosto	2023-08-20T00:00:00	2024-11-08T13:00:00	1	Precipitación	0
2528	7	Sololá	712	San Antonio Palopó	9	San Antonio Palopo	8	Agosto	2023-08-20T00:00:00	2024-11-08T13:00:00	8	Radiación solar	937
2529	7	Sololá	712	San Antonio Palopó	9	San Antonio Palopo	8	Agosto	2023-08-20T00:00:00	2024-11-08T14:00:00	2	Temperatura media	23.3
2530	7	Sololá	712	San Antonio Palopó	9	San Antonio Palopo	8	Agosto	2023-08-20T00:00:00	2024-11-08T14:00:00	4	Temperatura máxima	25.8
2531	7	Sololá	712	San Antonio Palopó	9	San Antonio Palopo	8	Agosto	2023-08-20T00:00:00	2024-11-08T14:00:00	3	Temperatura mínima	23.1
2532	7	Sololá	712	San Antonio Palopó	9	San Antonio Palopo	8	Agosto	2023-08-20T00:00:00	2024-11-08T14:00:00	5	Humedad	72
2533	7	Sololá	712	San Antonio Palopó	9	San Antonio Palopo	8	Agosto	2023-08-20T00:00:00	2024-11-08T14:00:00	6	Velocidad del viento	12.9
2534	7	Sololá	712	San Antonio Palopó	9	San Antonio Palopo	8	Agosto	2023-08-20T00:00:00	2024-11-08T14:00:00	7	Dirección del viento	12.87
2535	7	Sololá	712	San Antonio Palopó	9	San Antonio Palopo	8	Agosto	2023-08-20T00:00:00	2024-11-08T14:00:00	1	Precipitación	0
2536	7	Sololá	712	San Antonio Palopó	9	San Antonio Palopo	8	Agosto	2023-08-20T00:00:00	2024-11-08T14:00:00	8	Radiación solar	529
2537	7	Sololá	712	San Antonio Palopó	9	San Antonio Palopo	8	Agosto	2023-08-20T00:00:00	2024-11-08T15:00:00	2	Temperatura media	23.7
2538	7	Sololá	712	San Antonio Palopó	9	San Antonio Palopo	8	Agosto	2023-08-20T00:00:00	2024-11-08T15:00:00	4	Temperatura máxima	23.7
2539	7	Sololá	712	San Antonio Palopó	9	San Antonio Palopo	8	Agosto	2023-08-20T00:00:00	2024-11-08T15:00:00	3	Temperatura mínima	22.9
2540	7	Sololá	712	San Antonio Palopó	9	San Antonio Palopo	8	Agosto	2023-08-20T00:00:00	2024-11-08T15:00:00	5	Humedad	74
2541	7	Sololá	712	San Antonio Palopó	9	San Antonio Palopo	8	Agosto	2023-08-20T00:00:00	2024-11-08T15:00:00	6	Velocidad del viento	6.4
2542	7	Sololá	712	San Antonio Palopó	9	San Antonio Palopo	8	Agosto	2023-08-20T00:00:00	2024-11-08T15:00:00	7	Dirección del viento	6.44
2543	7	Sololá	712	San Antonio Palopó	9	San Antonio Palopo	8	Agosto	2023-08-20T00:00:00	2024-11-08T15:00:00	1	Precipitación	0
2544	7	Sololá	712	San Antonio Palopó	9	San Antonio Palopo	8	Agosto	2023-08-20T00:00:00	2024-11-08T15:00:00	8	Radiación solar	191
2545	7	Sololá	712	San Antonio Palopó	9	San Antonio Palopo	8	Agosto	2023-08-20T00:00:00	2024-11-08T16:00:00	2	Temperatura media	24.5
2546	7	Sololá	712	San Antonio Palopó	9	San Antonio Palopo	8	Agosto	2023-08-20T00:00:00	2024-11-08T16:00:00	4	Temperatura máxima	24.6
2547	7	Sololá	712	San Antonio Palopó	9	San Antonio Palopo	8	Agosto	2023-08-20T00:00:00	2024-11-08T16:00:00	3	Temperatura mínima	23.4
2548	7	Sololá	712	San Antonio Palopó	9	San Antonio Palopo	8	Agosto	2023-08-20T00:00:00	2024-11-08T16:00:00	5	Humedad	73
2549	7	Sololá	712	San Antonio Palopó	9	San Antonio Palopo	8	Agosto	2023-08-20T00:00:00	2024-11-08T16:00:00	6	Velocidad del viento	4.8
2550	7	Sololá	712	San Antonio Palopó	9	San Antonio Palopo	8	Agosto	2023-08-20T00:00:00	2024-11-08T16:00:00	7	Dirección del viento	4.83
2551	7	Sololá	712	San Antonio Palopó	9	San Antonio Palopo	8	Agosto	2023-08-20T00:00:00	2024-11-08T16:00:00	1	Precipitación	0
2552	7	Sololá	712	San Antonio Palopó	9	San Antonio Palopo	8	Agosto	2023-08-20T00:00:00	2024-11-08T16:00:00	8	Radiación solar	308
2553	7	Sololá	712	San Antonio Palopó	9	San Antonio Palopo	8	Agosto	2023-08-20T00:00:00	2024-11-08T17:00:00	2	Temperatura media	24.3
2554	7	Sololá	712	San Antonio Palopó	9	San Antonio Palopo	8	Agosto	2023-08-20T00:00:00	2024-11-08T17:00:00	4	Temperatura máxima	24.8
2555	7	Sololá	712	San Antonio Palopó	9	San Antonio Palopo	8	Agosto	2023-08-20T00:00:00	2024-11-08T17:00:00	3	Temperatura mínima	23.5
2556	7	Sololá	712	San Antonio Palopó	9	San Antonio Palopo	8	Agosto	2023-08-20T00:00:00	2024-11-08T17:00:00	5	Humedad	75
2557	7	Sololá	712	San Antonio Palopó	9	San Antonio Palopo	8	Agosto	2023-08-20T00:00:00	2024-11-08T17:00:00	6	Velocidad del viento	4.8
2558	7	Sololá	712	San Antonio Palopó	9	San Antonio Palopo	8	Agosto	2023-08-20T00:00:00	2024-11-08T17:00:00	7	Dirección del viento	4.83
2559	7	Sololá	712	San Antonio Palopó	9	San Antonio Palopo	8	Agosto	2023-08-20T00:00:00	2024-11-08T17:00:00	1	Precipitación	0
2560	7	Sololá	712	San Antonio Palopó	9	San Antonio Palopo	8	Agosto	2023-08-20T00:00:00	2024-11-08T17:00:00	8	Radiación solar	240
2561	7	Sololá	712	San Antonio Palopó	9	San Antonio Palopo	8	Agosto	2023-08-20T00:00:00	2024-11-08T18:00:00	2	Temperatura media	22.8
2562	7	Sololá	712	San Antonio Palopó	9	San Antonio Palopo	8	Agosto	2023-08-20T00:00:00	2024-11-08T18:00:00	4	Temperatura máxima	24.5
2563	7	Sololá	712	San Antonio Palopó	9	San Antonio Palopo	8	Agosto	2023-08-20T00:00:00	2024-11-08T18:00:00	3	Temperatura mínima	22.8
2564	7	Sololá	712	San Antonio Palopó	9	San Antonio Palopo	8	Agosto	2023-08-20T00:00:00	2024-11-08T18:00:00	5	Humedad	76
2565	7	Sololá	712	San Antonio Palopó	9	San Antonio Palopo	8	Agosto	2023-08-20T00:00:00	2024-11-08T18:00:00	6	Velocidad del viento	3.2
2566	7	Sololá	712	San Antonio Palopó	9	San Antonio Palopo	8	Agosto	2023-08-20T00:00:00	2024-11-08T18:00:00	7	Dirección del viento	3.22
2567	7	Sololá	712	San Antonio Palopó	9	San Antonio Palopo	8	Agosto	2023-08-20T00:00:00	2024-11-08T18:00:00	1	Precipitación	0
2568	7	Sololá	712	San Antonio Palopó	9	San Antonio Palopo	8	Agosto	2023-08-20T00:00:00	2024-11-08T18:00:00	8	Radiación solar	103
2569	7	Sololá	712	San Antonio Palopó	9	San Antonio Palopo	8	Agosto	2023-08-20T00:00:00	2024-11-08T19:00:00	2	Temperatura media	21.5
2570	7	Sololá	712	San Antonio Palopó	9	San Antonio Palopo	8	Agosto	2023-08-20T00:00:00	2024-11-08T19:00:00	4	Temperatura máxima	22.8
2571	7	Sololá	712	San Antonio Palopó	9	San Antonio Palopo	8	Agosto	2023-08-20T00:00:00	2024-11-08T19:00:00	3	Temperatura mínima	21.5
2572	7	Sololá	712	San Antonio Palopó	9	San Antonio Palopo	8	Agosto	2023-08-20T00:00:00	2024-11-08T19:00:00	5	Humedad	75
2573	7	Sololá	712	San Antonio Palopó	9	San Antonio Palopo	8	Agosto	2023-08-20T00:00:00	2024-11-08T19:00:00	6	Velocidad del viento	1.6
2574	7	Sololá	712	San Antonio Palopó	9	San Antonio Palopo	8	Agosto	2023-08-20T00:00:00	2024-11-08T19:00:00	7	Dirección del viento	1.61
2575	7	Sololá	712	San Antonio Palopó	9	San Antonio Palopo	8	Agosto	2023-08-20T00:00:00	2024-11-08T19:00:00	1	Precipitación	0
2576	7	Sololá	712	San Antonio Palopó	9	San Antonio Palopo	8	Agosto	2023-08-20T00:00:00	2024-11-08T19:00:00	8	Radiación solar	0
2577	7	Sololá	712	San Antonio Palopó	9	San Antonio Palopo	8	Agosto	2023-08-20T00:00:00	2024-11-08T20:00:00	2	Temperatura media	21.9
2578	7	Sololá	712	San Antonio Palopó	9	San Antonio Palopo	8	Agosto	2023-08-20T00:00:00	2024-11-08T20:00:00	4	Temperatura máxima	21.9
2579	7	Sololá	712	San Antonio Palopó	9	San Antonio Palopo	8	Agosto	2023-08-20T00:00:00	2024-11-08T20:00:00	3	Temperatura mínima	20.9
2580	7	Sololá	712	San Antonio Palopó	9	San Antonio Palopo	8	Agosto	2023-08-20T00:00:00	2024-11-08T20:00:00	5	Humedad	70
2581	7	Sololá	712	San Antonio Palopó	9	San Antonio Palopo	8	Agosto	2023-08-20T00:00:00	2024-11-08T20:00:00	6	Velocidad del viento	3.2
2582	7	Sololá	712	San Antonio Palopó	9	San Antonio Palopo	8	Agosto	2023-08-20T00:00:00	2024-11-08T20:00:00	7	Dirección del viento	3.22
2583	7	Sololá	712	San Antonio Palopó	9	San Antonio Palopo	8	Agosto	2023-08-20T00:00:00	2024-11-08T20:00:00	1	Precipitación	0
2584	7	Sololá	712	San Antonio Palopó	9	San Antonio Palopo	8	Agosto	2023-08-20T00:00:00	2024-11-08T20:00:00	8	Radiación solar	0
2585	7	Sololá	712	San Antonio Palopó	9	San Antonio Palopo	8	Agosto	2023-08-20T00:00:00	2024-11-08T21:00:00	2	Temperatura media	21.5
2586	7	Sololá	712	San Antonio Palopó	9	San Antonio Palopo	8	Agosto	2023-08-20T00:00:00	2024-11-08T21:00:00	4	Temperatura máxima	22
2587	7	Sololá	712	San Antonio Palopó	9	San Antonio Palopo	8	Agosto	2023-08-20T00:00:00	2024-11-08T21:00:00	3	Temperatura mínima	21.4
2588	7	Sololá	712	San Antonio Palopó	9	San Antonio Palopo	8	Agosto	2023-08-20T00:00:00	2024-11-08T21:00:00	5	Humedad	71
2589	7	Sololá	712	San Antonio Palopó	9	San Antonio Palopo	8	Agosto	2023-08-20T00:00:00	2024-11-08T21:00:00	6	Velocidad del viento	4.8
2590	7	Sololá	712	San Antonio Palopó	9	San Antonio Palopo	8	Agosto	2023-08-20T00:00:00	2024-11-08T21:00:00	7	Dirección del viento	4.83
2591	7	Sololá	712	San Antonio Palopó	9	San Antonio Palopo	8	Agosto	2023-08-20T00:00:00	2024-11-08T21:00:00	1	Precipitación	0
2592	7	Sololá	712	San Antonio Palopó	9	San Antonio Palopo	8	Agosto	2023-08-20T00:00:00	2024-11-08T21:00:00	8	Radiación solar	0
2593	7	Sololá	712	San Antonio Palopó	9	San Antonio Palopo	8	Agosto	2023-08-20T00:00:00	2024-11-08T22:00:00	2	Temperatura media	21
2594	7	Sololá	712	San Antonio Palopó	9	San Antonio Palopo	8	Agosto	2023-08-20T00:00:00	2024-11-08T22:00:00	4	Temperatura máxima	21.5
2595	7	Sololá	712	San Antonio Palopó	9	San Antonio Palopo	8	Agosto	2023-08-20T00:00:00	2024-11-08T22:00:00	3	Temperatura mínima	21
2596	7	Sololá	712	San Antonio Palopó	9	San Antonio Palopo	8	Agosto	2023-08-20T00:00:00	2024-11-08T22:00:00	5	Humedad	70
2597	7	Sololá	712	San Antonio Palopó	9	San Antonio Palopo	8	Agosto	2023-08-20T00:00:00	2024-11-08T22:00:00	6	Velocidad del viento	4.8
2598	7	Sololá	712	San Antonio Palopó	9	San Antonio Palopo	8	Agosto	2023-08-20T00:00:00	2024-11-08T22:00:00	7	Dirección del viento	4.83
2599	7	Sololá	712	San Antonio Palopó	9	San Antonio Palopo	8	Agosto	2023-08-20T00:00:00	2024-11-08T22:00:00	1	Precipitación	0
2600	7	Sololá	712	San Antonio Palopó	9	San Antonio Palopo	8	Agosto	2023-08-20T00:00:00	2024-11-08T22:00:00	8	Radiación solar	0
2601	7	Sololá	712	San Antonio Palopó	9	San Antonio Palopo	8	Agosto	2023-08-20T00:00:00	2024-11-08T23:00:00	2	Temperatura media	20.9
2602	7	Sololá	712	San Antonio Palopó	9	San Antonio Palopo	8	Agosto	2023-08-20T00:00:00	2024-11-08T23:00:00	4	Temperatura máxima	21.1
2603	7	Sololá	712	San Antonio Palopó	9	San Antonio Palopo	8	Agosto	2023-08-20T00:00:00	2024-11-08T23:00:00	3	Temperatura mínima	20.7
2604	7	Sololá	712	San Antonio Palopó	9	San Antonio Palopo	8	Agosto	2023-08-20T00:00:00	2024-11-08T23:00:00	5	Humedad	70
2605	7	Sololá	712	San Antonio Palopó	9	San Antonio Palopo	8	Agosto	2023-08-20T00:00:00	2024-11-08T23:00:00	6	Velocidad del viento	6.4
2606	7	Sololá	712	San Antonio Palopó	9	San Antonio Palopo	8	Agosto	2023-08-20T00:00:00	2024-11-08T23:00:00	7	Dirección del viento	6.44
2607	7	Sololá	712	San Antonio Palopó	9	San Antonio Palopo	8	Agosto	2023-08-20T00:00:00	2024-11-08T23:00:00	1	Precipitación	0
2608	7	Sololá	712	San Antonio Palopó	9	San Antonio Palopo	8	Agosto	2023-08-20T00:00:00	2024-11-08T23:00:00	8	Radiación solar	0
2609	7	Sololá	712	San Antonio Palopó	9	San Antonio Palopo	8	Agosto	2023-08-21T00:00:00	2024-11-08T00:00:00	2	Temperatura media	20.2
2610	7	Sololá	712	San Antonio Palopó	9	San Antonio Palopo	8	Agosto	2023-08-21T00:00:00	2024-11-08T00:00:00	4	Temperatura máxima	21
2611	7	Sololá	712	San Antonio Palopó	9	San Antonio Palopo	8	Agosto	2023-08-21T00:00:00	2024-11-08T00:00:00	3	Temperatura mínima	20.1
2612	7	Sololá	712	San Antonio Palopó	9	San Antonio Palopo	8	Agosto	2023-08-21T00:00:00	2024-11-08T00:00:00	5	Humedad	72
2613	7	Sololá	712	San Antonio Palopó	9	San Antonio Palopo	8	Agosto	2023-08-21T00:00:00	2024-11-08T00:00:00	6	Velocidad del viento	8
2614	7	Sololá	712	San Antonio Palopó	9	San Antonio Palopo	8	Agosto	2023-08-21T00:00:00	2024-11-08T00:00:00	7	Dirección del viento	8.05
2615	7	Sololá	712	San Antonio Palopó	9	San Antonio Palopo	8	Agosto	2023-08-21T00:00:00	2024-11-08T00:00:00	1	Precipitación	0
2616	7	Sololá	712	San Antonio Palopó	9	San Antonio Palopo	8	Agosto	2023-08-21T00:00:00	2024-11-08T00:00:00	8	Radiación solar	0
2617	7	Sololá	712	San Antonio Palopó	9	San Antonio Palopo	8	Agosto	2023-08-21T00:00:00	2024-11-08T01:00:00	2	Temperatura media	20.1
2618	7	Sololá	712	San Antonio Palopó	9	San Antonio Palopo	8	Agosto	2023-08-21T00:00:00	2024-11-08T01:00:00	4	Temperatura máxima	20.3
2619	7	Sololá	712	San Antonio Palopó	9	San Antonio Palopo	8	Agosto	2023-08-21T00:00:00	2024-11-08T01:00:00	3	Temperatura mínima	19.9
2620	7	Sololá	712	San Antonio Palopó	9	San Antonio Palopo	8	Agosto	2023-08-21T00:00:00	2024-11-08T01:00:00	5	Humedad	72
2621	7	Sololá	712	San Antonio Palopó	9	San Antonio Palopo	8	Agosto	2023-08-21T00:00:00	2024-11-08T01:00:00	6	Velocidad del viento	6.4
2622	7	Sololá	712	San Antonio Palopó	9	San Antonio Palopo	8	Agosto	2023-08-21T00:00:00	2024-11-08T01:00:00	7	Dirección del viento	6.44
2623	7	Sololá	712	San Antonio Palopó	9	San Antonio Palopo	8	Agosto	2023-08-21T00:00:00	2024-11-08T01:00:00	1	Precipitación	0
2624	7	Sololá	712	San Antonio Palopó	9	San Antonio Palopo	8	Agosto	2023-08-21T00:00:00	2024-11-08T01:00:00	8	Radiación solar	0
2625	7	Sololá	712	San Antonio Palopó	9	San Antonio Palopo	8	Agosto	2023-08-21T00:00:00	2024-11-08T02:00:00	2	Temperatura media	19.7
2626	7	Sololá	712	San Antonio Palopó	9	San Antonio Palopo	8	Agosto	2023-08-21T00:00:00	2024-11-08T02:00:00	4	Temperatura máxima	20.1
2627	7	Sololá	712	San Antonio Palopó	9	San Antonio Palopo	8	Agosto	2023-08-21T00:00:00	2024-11-08T02:00:00	3	Temperatura mínima	19.7
2628	7	Sololá	712	San Antonio Palopó	9	San Antonio Palopo	8	Agosto	2023-08-21T00:00:00	2024-11-08T02:00:00	5	Humedad	71
2629	7	Sololá	712	San Antonio Palopó	9	San Antonio Palopo	8	Agosto	2023-08-21T00:00:00	2024-11-08T02:00:00	6	Velocidad del viento	8
2630	7	Sololá	712	San Antonio Palopó	9	San Antonio Palopo	8	Agosto	2023-08-21T00:00:00	2024-11-08T02:00:00	7	Dirección del viento	8.05
2631	7	Sololá	712	San Antonio Palopó	9	San Antonio Palopo	8	Agosto	2023-08-21T00:00:00	2024-11-08T02:00:00	1	Precipitación	0
2632	7	Sololá	712	San Antonio Palopó	9	San Antonio Palopo	8	Agosto	2023-08-21T00:00:00	2024-11-08T02:00:00	8	Radiación solar	0
2633	7	Sololá	712	San Antonio Palopó	9	San Antonio Palopo	8	Agosto	2023-08-21T00:00:00	2024-11-08T03:00:00	2	Temperatura media	19.3
2634	7	Sololá	712	San Antonio Palopó	9	San Antonio Palopo	8	Agosto	2023-08-21T00:00:00	2024-11-08T03:00:00	4	Temperatura máxima	19.7
2635	7	Sololá	712	San Antonio Palopó	9	San Antonio Palopo	8	Agosto	2023-08-21T00:00:00	2024-11-08T03:00:00	3	Temperatura mínima	19.3
2636	7	Sololá	712	San Antonio Palopó	9	San Antonio Palopo	8	Agosto	2023-08-21T00:00:00	2024-11-08T03:00:00	5	Humedad	72
2637	7	Sololá	712	San Antonio Palopó	9	San Antonio Palopo	8	Agosto	2023-08-21T00:00:00	2024-11-08T03:00:00	6	Velocidad del viento	11.3
2638	7	Sololá	712	San Antonio Palopó	9	San Antonio Palopo	8	Agosto	2023-08-21T00:00:00	2024-11-08T03:00:00	7	Dirección del viento	11.27
2639	7	Sololá	712	San Antonio Palopó	9	San Antonio Palopo	8	Agosto	2023-08-21T00:00:00	2024-11-08T03:00:00	1	Precipitación	0
2640	7	Sololá	712	San Antonio Palopó	9	San Antonio Palopo	8	Agosto	2023-08-21T00:00:00	2024-11-08T03:00:00	8	Radiación solar	0
2641	7	Sololá	712	San Antonio Palopó	9	San Antonio Palopo	8	Agosto	2023-08-21T00:00:00	2024-11-08T04:00:00	2	Temperatura media	19.4
2642	7	Sololá	712	San Antonio Palopó	9	San Antonio Palopo	8	Agosto	2023-08-21T00:00:00	2024-11-08T04:00:00	4	Temperatura máxima	19.6
2643	7	Sololá	712	San Antonio Palopó	9	San Antonio Palopo	8	Agosto	2023-08-21T00:00:00	2024-11-08T04:00:00	3	Temperatura mínima	19.2
2644	7	Sololá	712	San Antonio Palopó	9	San Antonio Palopo	8	Agosto	2023-08-21T00:00:00	2024-11-08T04:00:00	5	Humedad	70
2645	7	Sololá	712	San Antonio Palopó	9	San Antonio Palopo	8	Agosto	2023-08-21T00:00:00	2024-11-08T04:00:00	6	Velocidad del viento	8
2646	7	Sololá	712	San Antonio Palopó	9	San Antonio Palopo	8	Agosto	2023-08-21T00:00:00	2024-11-08T04:00:00	7	Dirección del viento	8.05
2647	7	Sololá	712	San Antonio Palopó	9	San Antonio Palopo	8	Agosto	2023-08-21T00:00:00	2024-11-08T04:00:00	1	Precipitación	0
2648	7	Sololá	712	San Antonio Palopó	9	San Antonio Palopo	8	Agosto	2023-08-21T00:00:00	2024-11-08T04:00:00	8	Radiación solar	0
2649	7	Sololá	712	San Antonio Palopó	9	San Antonio Palopo	8	Agosto	2023-08-21T00:00:00	2024-11-08T05:00:00	2	Temperatura media	19.7
2650	7	Sololá	712	San Antonio Palopó	9	San Antonio Palopo	8	Agosto	2023-08-21T00:00:00	2024-11-08T05:00:00	4	Temperatura máxima	19.7
2651	7	Sololá	712	San Antonio Palopó	9	San Antonio Palopo	8	Agosto	2023-08-21T00:00:00	2024-11-08T05:00:00	3	Temperatura mínima	19.2
2652	7	Sololá	712	San Antonio Palopó	9	San Antonio Palopo	8	Agosto	2023-08-21T00:00:00	2024-11-08T05:00:00	5	Humedad	69
2653	7	Sololá	712	San Antonio Palopó	9	San Antonio Palopo	8	Agosto	2023-08-21T00:00:00	2024-11-08T05:00:00	6	Velocidad del viento	6.4
2654	7	Sololá	712	San Antonio Palopó	9	San Antonio Palopo	8	Agosto	2023-08-21T00:00:00	2024-11-08T05:00:00	7	Dirección del viento	6.44
2655	7	Sololá	712	San Antonio Palopó	9	San Antonio Palopo	8	Agosto	2023-08-21T00:00:00	2024-11-08T05:00:00	1	Precipitación	0
2656	7	Sololá	712	San Antonio Palopó	9	San Antonio Palopo	8	Agosto	2023-08-21T00:00:00	2024-11-08T05:00:00	8	Radiación solar	0
2657	7	Sololá	712	San Antonio Palopó	9	San Antonio Palopo	8	Agosto	2023-08-21T00:00:00	2024-11-08T06:00:00	2	Temperatura media	19.4
2658	7	Sololá	712	San Antonio Palopó	9	San Antonio Palopo	8	Agosto	2023-08-21T00:00:00	2024-11-08T06:00:00	4	Temperatura máxima	20.1
2659	7	Sololá	712	San Antonio Palopó	9	San Antonio Palopo	8	Agosto	2023-08-21T00:00:00	2024-11-08T06:00:00	3	Temperatura mínima	19.4
2660	7	Sololá	712	San Antonio Palopó	9	San Antonio Palopo	8	Agosto	2023-08-21T00:00:00	2024-11-08T06:00:00	5	Humedad	70
2661	7	Sololá	712	San Antonio Palopó	9	San Antonio Palopo	8	Agosto	2023-08-21T00:00:00	2024-11-08T06:00:00	6	Velocidad del viento	8
2662	7	Sololá	712	San Antonio Palopó	9	San Antonio Palopo	8	Agosto	2023-08-21T00:00:00	2024-11-08T06:00:00	7	Dirección del viento	8.05
2663	7	Sololá	712	San Antonio Palopó	9	San Antonio Palopo	8	Agosto	2023-08-21T00:00:00	2024-11-08T06:00:00	1	Precipitación	0
2664	7	Sololá	712	San Antonio Palopó	9	San Antonio Palopo	8	Agosto	2023-08-21T00:00:00	2024-11-08T06:00:00	8	Radiación solar	0
2665	7	Sololá	712	San Antonio Palopó	9	San Antonio Palopo	8	Agosto	2023-08-21T00:00:00	2024-11-08T07:00:00	2	Temperatura media	19.5
2666	7	Sololá	712	San Antonio Palopó	9	San Antonio Palopo	8	Agosto	2023-08-21T00:00:00	2024-11-08T07:00:00	4	Temperatura máxima	19.5
2667	7	Sololá	712	San Antonio Palopó	9	San Antonio Palopo	8	Agosto	2023-08-21T00:00:00	2024-11-08T07:00:00	3	Temperatura mínima	19.3
2668	7	Sololá	712	San Antonio Palopó	9	San Antonio Palopo	8	Agosto	2023-08-21T00:00:00	2024-11-08T07:00:00	5	Humedad	70
2669	7	Sololá	712	San Antonio Palopó	9	San Antonio Palopo	8	Agosto	2023-08-21T00:00:00	2024-11-08T07:00:00	6	Velocidad del viento	9.7
2670	7	Sololá	712	San Antonio Palopó	9	San Antonio Palopo	8	Agosto	2023-08-21T00:00:00	2024-11-08T07:00:00	7	Dirección del viento	9.66
2671	7	Sololá	712	San Antonio Palopó	9	San Antonio Palopo	8	Agosto	2023-08-21T00:00:00	2024-11-08T07:00:00	1	Precipitación	0
2672	7	Sololá	712	San Antonio Palopó	9	San Antonio Palopo	8	Agosto	2023-08-21T00:00:00	2024-11-08T07:00:00	8	Radiación solar	30
2673	7	Sololá	712	San Antonio Palopó	9	San Antonio Palopo	8	Agosto	2023-08-21T00:00:00	2024-11-08T08:00:00	2	Temperatura media	21.2
2674	7	Sololá	712	San Antonio Palopó	9	San Antonio Palopo	8	Agosto	2023-08-21T00:00:00	2024-11-08T08:00:00	4	Temperatura máxima	21.2
2675	7	Sololá	712	San Antonio Palopó	9	San Antonio Palopo	8	Agosto	2023-08-21T00:00:00	2024-11-08T08:00:00	3	Temperatura mínima	19.4
2676	7	Sololá	712	San Antonio Palopó	9	San Antonio Palopo	8	Agosto	2023-08-21T00:00:00	2024-11-08T08:00:00	5	Humedad	67
2677	7	Sololá	712	San Antonio Palopó	9	San Antonio Palopo	8	Agosto	2023-08-21T00:00:00	2024-11-08T08:00:00	6	Velocidad del viento	3.2
2678	7	Sololá	712	San Antonio Palopó	9	San Antonio Palopo	8	Agosto	2023-08-21T00:00:00	2024-11-08T08:00:00	7	Dirección del viento	3.22
2679	7	Sololá	712	San Antonio Palopó	9	San Antonio Palopo	8	Agosto	2023-08-21T00:00:00	2024-11-08T08:00:00	1	Precipitación	0
2680	7	Sololá	712	San Antonio Palopó	9	San Antonio Palopo	8	Agosto	2023-08-21T00:00:00	2024-11-08T08:00:00	8	Radiación solar	127
2681	7	Sololá	712	San Antonio Palopó	9	San Antonio Palopo	8	Agosto	2023-08-21T00:00:00	2024-11-08T09:00:00	2	Temperatura media	21.7
2682	7	Sololá	712	San Antonio Palopó	9	San Antonio Palopo	8	Agosto	2023-08-21T00:00:00	2024-11-08T09:00:00	4	Temperatura máxima	21.9
2683	7	Sololá	712	San Antonio Palopó	9	San Antonio Palopo	8	Agosto	2023-08-21T00:00:00	2024-11-08T09:00:00	3	Temperatura mínima	21
2684	7	Sololá	712	San Antonio Palopó	9	San Antonio Palopo	8	Agosto	2023-08-21T00:00:00	2024-11-08T09:00:00	5	Humedad	65
2685	7	Sololá	712	San Antonio Palopó	9	San Antonio Palopo	8	Agosto	2023-08-21T00:00:00	2024-11-08T09:00:00	6	Velocidad del viento	1.6
2686	7	Sololá	712	San Antonio Palopó	9	San Antonio Palopo	8	Agosto	2023-08-21T00:00:00	2024-11-08T09:00:00	7	Dirección del viento	1.61
2687	7	Sololá	712	San Antonio Palopó	9	San Antonio Palopo	8	Agosto	2023-08-21T00:00:00	2024-11-08T09:00:00	1	Precipitación	0
2688	7	Sololá	712	San Antonio Palopó	9	San Antonio Palopo	8	Agosto	2023-08-21T00:00:00	2024-11-08T09:00:00	8	Radiación solar	245
2689	7	Sololá	712	San Antonio Palopó	9	San Antonio Palopo	8	Agosto	2023-08-21T00:00:00	2024-11-08T10:00:00	2	Temperatura media	22.3
2690	7	Sololá	712	San Antonio Palopó	9	San Antonio Palopo	8	Agosto	2023-08-21T00:00:00	2024-11-08T10:00:00	4	Temperatura máxima	22.5
2691	7	Sololá	712	San Antonio Palopó	9	San Antonio Palopo	8	Agosto	2023-08-21T00:00:00	2024-11-08T10:00:00	3	Temperatura mínima	21.6
2692	7	Sololá	712	San Antonio Palopó	9	San Antonio Palopo	8	Agosto	2023-08-21T00:00:00	2024-11-08T10:00:00	5	Humedad	65
2693	7	Sololá	712	San Antonio Palopó	9	San Antonio Palopo	8	Agosto	2023-08-21T00:00:00	2024-11-08T10:00:00	6	Velocidad del viento	3.2
2694	7	Sololá	712	San Antonio Palopó	9	San Antonio Palopo	8	Agosto	2023-08-21T00:00:00	2024-11-08T10:00:00	7	Dirección del viento	3.22
2695	7	Sololá	712	San Antonio Palopó	9	San Antonio Palopo	8	Agosto	2023-08-21T00:00:00	2024-11-08T10:00:00	1	Precipitación	0
2696	7	Sololá	712	San Antonio Palopó	9	San Antonio Palopo	8	Agosto	2023-08-21T00:00:00	2024-11-08T10:00:00	8	Radiación solar	486
2697	7	Sololá	712	San Antonio Palopó	9	San Antonio Palopo	8	Agosto	2023-08-21T00:00:00	2024-11-08T11:00:00	2	Temperatura media	23.1
2698	7	Sololá	712	San Antonio Palopó	9	San Antonio Palopo	8	Agosto	2023-08-21T00:00:00	2024-11-08T11:00:00	4	Temperatura máxima	23.1
2699	7	Sololá	712	San Antonio Palopó	9	San Antonio Palopo	8	Agosto	2023-08-21T00:00:00	2024-11-08T11:00:00	3	Temperatura mínima	22.2
2700	7	Sololá	712	San Antonio Palopó	9	San Antonio Palopo	8	Agosto	2023-08-21T00:00:00	2024-11-08T11:00:00	5	Humedad	65
2701	7	Sololá	712	San Antonio Palopó	9	San Antonio Palopo	8	Agosto	2023-08-21T00:00:00	2024-11-08T11:00:00	6	Velocidad del viento	3.2
2702	7	Sololá	712	San Antonio Palopó	9	San Antonio Palopo	8	Agosto	2023-08-21T00:00:00	2024-11-08T11:00:00	7	Dirección del viento	3.22
2703	7	Sololá	712	San Antonio Palopó	9	San Antonio Palopo	8	Agosto	2023-08-21T00:00:00	2024-11-08T11:00:00	1	Precipitación	0
2704	7	Sololá	712	San Antonio Palopó	9	San Antonio Palopo	8	Agosto	2023-08-21T00:00:00	2024-11-08T11:00:00	8	Radiación solar	644
2705	7	Sololá	712	San Antonio Palopó	9	San Antonio Palopo	8	Agosto	2023-08-21T00:00:00	2024-11-08T12:00:00	2	Temperatura media	23.8
2706	7	Sololá	712	San Antonio Palopó	9	San Antonio Palopo	8	Agosto	2023-08-21T00:00:00	2024-11-08T12:00:00	4	Temperatura máxima	23.8
2707	7	Sololá	712	San Antonio Palopó	9	San Antonio Palopo	8	Agosto	2023-08-21T00:00:00	2024-11-08T12:00:00	3	Temperatura mínima	23.1
2708	7	Sololá	712	San Antonio Palopó	9	San Antonio Palopo	8	Agosto	2023-08-21T00:00:00	2024-11-08T12:00:00	5	Humedad	68
2709	7	Sololá	712	San Antonio Palopó	9	San Antonio Palopo	8	Agosto	2023-08-21T00:00:00	2024-11-08T12:00:00	6	Velocidad del viento	3.2
2710	7	Sololá	712	San Antonio Palopó	9	San Antonio Palopo	8	Agosto	2023-08-21T00:00:00	2024-11-08T12:00:00	7	Dirección del viento	3.22
2711	7	Sololá	712	San Antonio Palopó	9	San Antonio Palopo	8	Agosto	2023-08-21T00:00:00	2024-11-08T12:00:00	1	Precipitación	0
2712	7	Sololá	712	San Antonio Palopó	9	San Antonio Palopo	8	Agosto	2023-08-21T00:00:00	2024-11-08T12:00:00	8	Radiación solar	587
2713	7	Sololá	712	San Antonio Palopó	9	San Antonio Palopo	8	Agosto	2023-08-21T00:00:00	2024-11-08T13:00:00	2	Temperatura media	24.5
2714	7	Sololá	712	San Antonio Palopó	9	San Antonio Palopo	8	Agosto	2023-08-21T00:00:00	2024-11-08T13:00:00	4	Temperatura máxima	24.9
2715	7	Sololá	712	San Antonio Palopó	9	San Antonio Palopo	8	Agosto	2023-08-21T00:00:00	2024-11-08T13:00:00	3	Temperatura mínima	23.7
2716	7	Sololá	712	San Antonio Palopó	9	San Antonio Palopo	8	Agosto	2023-08-21T00:00:00	2024-11-08T13:00:00	5	Humedad	71
2717	7	Sololá	712	San Antonio Palopó	9	San Antonio Palopo	8	Agosto	2023-08-21T00:00:00	2024-11-08T13:00:00	6	Velocidad del viento	4.8
2718	7	Sololá	712	San Antonio Palopó	9	San Antonio Palopo	8	Agosto	2023-08-21T00:00:00	2024-11-08T13:00:00	7	Dirección del viento	4.83
2719	7	Sololá	712	San Antonio Palopó	9	San Antonio Palopo	8	Agosto	2023-08-21T00:00:00	2024-11-08T13:00:00	1	Precipitación	0
2720	7	Sololá	712	San Antonio Palopó	9	San Antonio Palopo	8	Agosto	2023-08-21T00:00:00	2024-11-08T13:00:00	8	Radiación solar	464
2721	7	Sololá	712	San Antonio Palopó	9	San Antonio Palopo	8	Agosto	2023-08-21T00:00:00	2024-11-08T14:00:00	2	Temperatura media	24.3
2722	7	Sololá	712	San Antonio Palopó	9	San Antonio Palopo	8	Agosto	2023-08-21T00:00:00	2024-11-08T14:00:00	4	Temperatura máxima	24.8
2723	7	Sololá	712	San Antonio Palopó	9	San Antonio Palopo	8	Agosto	2023-08-21T00:00:00	2024-11-08T14:00:00	3	Temperatura mínima	23.7
2724	7	Sololá	712	San Antonio Palopó	9	San Antonio Palopo	8	Agosto	2023-08-21T00:00:00	2024-11-08T14:00:00	5	Humedad	73
2725	7	Sololá	712	San Antonio Palopó	9	San Antonio Palopo	8	Agosto	2023-08-21T00:00:00	2024-11-08T14:00:00	6	Velocidad del viento	8
2726	7	Sololá	712	San Antonio Palopó	9	San Antonio Palopo	8	Agosto	2023-08-21T00:00:00	2024-11-08T14:00:00	7	Dirección del viento	8.05
2727	7	Sololá	712	San Antonio Palopó	9	San Antonio Palopo	8	Agosto	2023-08-21T00:00:00	2024-11-08T14:00:00	1	Precipitación	0
2728	7	Sololá	712	San Antonio Palopó	9	San Antonio Palopo	8	Agosto	2023-08-21T00:00:00	2024-11-08T14:00:00	8	Radiación solar	701
2729	7	Sololá	712	San Antonio Palopó	9	San Antonio Palopo	8	Agosto	2023-08-21T00:00:00	2024-11-08T15:00:00	2	Temperatura media	24.8
2730	7	Sololá	712	San Antonio Palopó	9	San Antonio Palopo	8	Agosto	2023-08-21T00:00:00	2024-11-08T15:00:00	4	Temperatura máxima	24.8
2731	7	Sololá	712	San Antonio Palopó	9	San Antonio Palopo	8	Agosto	2023-08-21T00:00:00	2024-11-08T15:00:00	3	Temperatura mínima	23.3
2732	7	Sololá	712	San Antonio Palopó	9	San Antonio Palopo	8	Agosto	2023-08-21T00:00:00	2024-11-08T15:00:00	5	Humedad	73
2733	7	Sololá	712	San Antonio Palopó	9	San Antonio Palopo	8	Agosto	2023-08-21T00:00:00	2024-11-08T15:00:00	6	Velocidad del viento	8
2734	7	Sololá	712	San Antonio Palopó	9	San Antonio Palopo	8	Agosto	2023-08-21T00:00:00	2024-11-08T15:00:00	7	Dirección del viento	8.05
2735	7	Sololá	712	San Antonio Palopó	9	San Antonio Palopo	8	Agosto	2023-08-21T00:00:00	2024-11-08T15:00:00	1	Precipitación	0
2736	7	Sololá	712	San Antonio Palopó	9	San Antonio Palopo	8	Agosto	2023-08-21T00:00:00	2024-11-08T15:00:00	8	Radiación solar	781
2737	7	Sololá	712	San Antonio Palopó	9	San Antonio Palopo	8	Agosto	2023-08-21T00:00:00	2024-11-08T16:00:00	2	Temperatura media	22
2738	7	Sololá	712	San Antonio Palopó	9	San Antonio Palopo	8	Agosto	2023-08-21T00:00:00	2024-11-08T16:00:00	4	Temperatura máxima	24.9
2739	7	Sololá	712	San Antonio Palopó	9	San Antonio Palopo	8	Agosto	2023-08-21T00:00:00	2024-11-08T16:00:00	3	Temperatura mínima	21.6
2740	7	Sololá	712	San Antonio Palopó	9	San Antonio Palopo	8	Agosto	2023-08-21T00:00:00	2024-11-08T16:00:00	5	Humedad	76
2741	7	Sololá	712	San Antonio Palopó	9	San Antonio Palopo	8	Agosto	2023-08-21T00:00:00	2024-11-08T16:00:00	6	Velocidad del viento	9.7
2742	7	Sololá	712	San Antonio Palopó	9	San Antonio Palopo	8	Agosto	2023-08-21T00:00:00	2024-11-08T16:00:00	7	Dirección del viento	9.66
2743	7	Sololá	712	San Antonio Palopó	9	San Antonio Palopo	8	Agosto	2023-08-21T00:00:00	2024-11-08T16:00:00	1	Precipitación	0
2744	7	Sololá	712	San Antonio Palopó	9	San Antonio Palopo	8	Agosto	2023-08-21T00:00:00	2024-11-08T16:00:00	8	Radiación solar	181
2745	7	Sololá	712	San Antonio Palopó	9	San Antonio Palopo	8	Agosto	2023-08-21T00:00:00	2024-11-08T17:00:00	2	Temperatura media	20.7
2746	7	Sololá	712	San Antonio Palopó	9	San Antonio Palopo	8	Agosto	2023-08-21T00:00:00	2024-11-08T17:00:00	4	Temperatura máxima	22.1
2747	7	Sololá	712	San Antonio Palopó	9	San Antonio Palopo	8	Agosto	2023-08-21T00:00:00	2024-11-08T17:00:00	3	Temperatura mínima	20.3
2748	7	Sololá	712	San Antonio Palopó	9	San Antonio Palopo	8	Agosto	2023-08-21T00:00:00	2024-11-08T17:00:00	5	Humedad	80
2749	7	Sololá	712	San Antonio Palopó	9	San Antonio Palopo	8	Agosto	2023-08-21T00:00:00	2024-11-08T17:00:00	6	Velocidad del viento	9.7
2750	7	Sololá	712	San Antonio Palopó	9	San Antonio Palopo	8	Agosto	2023-08-21T00:00:00	2024-11-08T17:00:00	7	Dirección del viento	9.66
2751	7	Sololá	712	San Antonio Palopó	9	San Antonio Palopo	8	Agosto	2023-08-21T00:00:00	2024-11-08T17:00:00	1	Precipitación	0
2752	7	Sololá	712	San Antonio Palopó	9	San Antonio Palopo	8	Agosto	2023-08-21T00:00:00	2024-11-08T17:00:00	8	Radiación solar	21
2753	7	Sololá	712	San Antonio Palopó	9	San Antonio Palopo	8	Agosto	2023-08-21T00:00:00	2024-11-08T18:00:00	2	Temperatura media	20.9
2754	7	Sololá	712	San Antonio Palopó	9	San Antonio Palopo	8	Agosto	2023-08-21T00:00:00	2024-11-08T18:00:00	4	Temperatura máxima	20.9
2755	7	Sololá	712	San Antonio Palopó	9	San Antonio Palopo	8	Agosto	2023-08-21T00:00:00	2024-11-08T18:00:00	3	Temperatura mínima	20.7
2756	7	Sololá	712	San Antonio Palopó	9	San Antonio Palopo	8	Agosto	2023-08-21T00:00:00	2024-11-08T18:00:00	5	Humedad	81
2757	7	Sololá	712	San Antonio Palopó	9	San Antonio Palopo	8	Agosto	2023-08-21T00:00:00	2024-11-08T18:00:00	6	Velocidad del viento	6.4
2758	7	Sololá	712	San Antonio Palopó	9	San Antonio Palopo	8	Agosto	2023-08-21T00:00:00	2024-11-08T18:00:00	7	Dirección del viento	6.44
2759	7	Sololá	712	San Antonio Palopó	9	San Antonio Palopo	8	Agosto	2023-08-21T00:00:00	2024-11-08T18:00:00	1	Precipitación	0
2760	7	Sololá	712	San Antonio Palopó	9	San Antonio Palopo	8	Agosto	2023-08-21T00:00:00	2024-11-08T18:00:00	8	Radiación solar	10
2761	7	Sololá	712	San Antonio Palopó	9	San Antonio Palopo	8	Agosto	2023-08-21T00:00:00	2024-11-08T19:00:00	2	Temperatura media	20.7
2762	7	Sololá	712	San Antonio Palopó	9	San Antonio Palopo	8	Agosto	2023-08-21T00:00:00	2024-11-08T19:00:00	4	Temperatura máxima	20.9
2763	7	Sololá	712	San Antonio Palopó	9	San Antonio Palopo	8	Agosto	2023-08-21T00:00:00	2024-11-08T19:00:00	3	Temperatura mínima	20.4
2764	7	Sololá	712	San Antonio Palopó	9	San Antonio Palopo	8	Agosto	2023-08-21T00:00:00	2024-11-08T19:00:00	5	Humedad	80
2765	7	Sololá	712	San Antonio Palopó	9	San Antonio Palopo	8	Agosto	2023-08-21T00:00:00	2024-11-08T19:00:00	6	Velocidad del viento	1.6
2766	7	Sololá	712	San Antonio Palopó	9	San Antonio Palopo	8	Agosto	2023-08-21T00:00:00	2024-11-08T19:00:00	7	Dirección del viento	1.61
2767	7	Sololá	712	San Antonio Palopó	9	San Antonio Palopo	8	Agosto	2023-08-21T00:00:00	2024-11-08T19:00:00	1	Precipitación	0
2768	7	Sololá	712	San Antonio Palopó	9	San Antonio Palopo	8	Agosto	2023-08-21T00:00:00	2024-11-08T19:00:00	8	Radiación solar	0
2769	7	Sololá	712	San Antonio Palopó	9	San Antonio Palopo	8	Agosto	2023-08-21T00:00:00	2024-11-08T20:00:00	2	Temperatura media	20.8
2770	7	Sololá	712	San Antonio Palopó	9	San Antonio Palopo	8	Agosto	2023-08-21T00:00:00	2024-11-08T20:00:00	4	Temperatura máxima	20.9
2771	7	Sololá	712	San Antonio Palopó	9	San Antonio Palopo	8	Agosto	2023-08-21T00:00:00	2024-11-08T20:00:00	3	Temperatura mínima	20.7
2772	7	Sololá	712	San Antonio Palopó	9	San Antonio Palopo	8	Agosto	2023-08-21T00:00:00	2024-11-08T20:00:00	5	Humedad	79
2773	7	Sololá	712	San Antonio Palopó	9	San Antonio Palopo	8	Agosto	2023-08-21T00:00:00	2024-11-08T20:00:00	6	Velocidad del viento	0
2774	7	Sololá	712	San Antonio Palopó	9	San Antonio Palopo	8	Agosto	2023-08-21T00:00:00	2024-11-08T20:00:00	7	Dirección del viento	0
2775	7	Sololá	712	San Antonio Palopó	9	San Antonio Palopo	8	Agosto	2023-08-21T00:00:00	2024-11-08T20:00:00	1	Precipitación	0
2776	7	Sololá	712	San Antonio Palopó	9	San Antonio Palopo	8	Agosto	2023-08-21T00:00:00	2024-11-08T20:00:00	8	Radiación solar	0
2777	7	Sololá	712	San Antonio Palopó	9	San Antonio Palopo	8	Agosto	2023-08-21T00:00:00	2024-11-08T21:00:00	2	Temperatura media	21.2
2778	7	Sololá	712	San Antonio Palopó	9	San Antonio Palopo	8	Agosto	2023-08-21T00:00:00	2024-11-08T21:00:00	4	Temperatura máxima	21.2
2779	7	Sololá	712	San Antonio Palopó	9	San Antonio Palopo	8	Agosto	2023-08-21T00:00:00	2024-11-08T21:00:00	3	Temperatura mínima	20.6
2780	7	Sololá	712	San Antonio Palopó	9	San Antonio Palopo	8	Agosto	2023-08-21T00:00:00	2024-11-08T21:00:00	5	Humedad	72
2781	7	Sololá	712	San Antonio Palopó	9	San Antonio Palopo	8	Agosto	2023-08-21T00:00:00	2024-11-08T21:00:00	6	Velocidad del viento	1.6
2782	7	Sololá	712	San Antonio Palopó	9	San Antonio Palopo	8	Agosto	2023-08-21T00:00:00	2024-11-08T21:00:00	7	Dirección del viento	1.61
2783	7	Sololá	712	San Antonio Palopó	9	San Antonio Palopo	8	Agosto	2023-08-21T00:00:00	2024-11-08T21:00:00	1	Precipitación	0
2784	7	Sololá	712	San Antonio Palopó	9	San Antonio Palopo	8	Agosto	2023-08-21T00:00:00	2024-11-08T21:00:00	8	Radiación solar	0
2785	7	Sololá	712	San Antonio Palopó	9	San Antonio Palopo	8	Agosto	2023-08-21T00:00:00	2024-11-08T22:00:00	2	Temperatura media	21.2
2786	7	Sololá	712	San Antonio Palopó	9	San Antonio Palopo	8	Agosto	2023-08-21T00:00:00	2024-11-08T22:00:00	4	Temperatura máxima	21.3
2787	7	Sololá	712	San Antonio Palopó	9	San Antonio Palopo	8	Agosto	2023-08-21T00:00:00	2024-11-08T22:00:00	3	Temperatura mínima	21.1
2788	7	Sololá	712	San Antonio Palopó	9	San Antonio Palopo	8	Agosto	2023-08-21T00:00:00	2024-11-08T22:00:00	5	Humedad	71
2789	7	Sololá	712	San Antonio Palopó	9	San Antonio Palopo	8	Agosto	2023-08-21T00:00:00	2024-11-08T22:00:00	6	Velocidad del viento	4.8
2790	7	Sololá	712	San Antonio Palopó	9	San Antonio Palopo	8	Agosto	2023-08-21T00:00:00	2024-11-08T22:00:00	7	Dirección del viento	4.83
2791	7	Sololá	712	San Antonio Palopó	9	San Antonio Palopo	8	Agosto	2023-08-21T00:00:00	2024-11-08T22:00:00	1	Precipitación	0
2792	7	Sololá	712	San Antonio Palopó	9	San Antonio Palopo	8	Agosto	2023-08-21T00:00:00	2024-11-08T22:00:00	8	Radiación solar	0
2793	7	Sololá	712	San Antonio Palopó	9	San Antonio Palopo	8	Agosto	2023-08-21T00:00:00	2024-11-08T23:00:00	2	Temperatura media	20.8
2794	7	Sololá	712	San Antonio Palopó	9	San Antonio Palopo	8	Agosto	2023-08-21T00:00:00	2024-11-08T23:00:00	4	Temperatura máxima	21.2
2795	7	Sololá	712	San Antonio Palopó	9	San Antonio Palopo	8	Agosto	2023-08-21T00:00:00	2024-11-08T23:00:00	3	Temperatura mínima	20.8
2796	7	Sololá	712	San Antonio Palopó	9	San Antonio Palopo	8	Agosto	2023-08-21T00:00:00	2024-11-08T23:00:00	5	Humedad	71
2797	7	Sololá	712	San Antonio Palopó	9	San Antonio Palopo	8	Agosto	2023-08-21T00:00:00	2024-11-08T23:00:00	6	Velocidad del viento	6.4
2798	7	Sololá	712	San Antonio Palopó	9	San Antonio Palopo	8	Agosto	2023-08-21T00:00:00	2024-11-08T23:00:00	7	Dirección del viento	6.44
2799	7	Sololá	712	San Antonio Palopó	9	San Antonio Palopo	8	Agosto	2023-08-21T00:00:00	2024-11-08T23:00:00	1	Precipitación	0
2800	7	Sololá	712	San Antonio Palopó	9	San Antonio Palopo	8	Agosto	2023-08-21T00:00:00	2024-11-08T23:00:00	8	Radiación solar	0
2801	7	Sololá	712	San Antonio Palopó	9	San Antonio Palopo	8	Agosto	2023-08-22T00:00:00	2024-11-08T00:00:00	2	Temperatura media	20.8
2802	7	Sololá	712	San Antonio Palopó	9	San Antonio Palopo	8	Agosto	2023-08-22T00:00:00	2024-11-08T00:00:00	4	Temperatura máxima	21
2803	7	Sololá	712	San Antonio Palopó	9	San Antonio Palopo	8	Agosto	2023-08-22T00:00:00	2024-11-08T00:00:00	3	Temperatura mínima	20.6
2804	7	Sololá	712	San Antonio Palopó	9	San Antonio Palopo	8	Agosto	2023-08-22T00:00:00	2024-11-08T00:00:00	5	Humedad	71
2805	7	Sololá	712	San Antonio Palopó	9	San Antonio Palopo	8	Agosto	2023-08-22T00:00:00	2024-11-08T00:00:00	6	Velocidad del viento	6.4
2806	7	Sololá	712	San Antonio Palopó	9	San Antonio Palopo	8	Agosto	2023-08-22T00:00:00	2024-11-08T00:00:00	7	Dirección del viento	6.44
2807	7	Sololá	712	San Antonio Palopó	9	San Antonio Palopo	8	Agosto	2023-08-22T00:00:00	2024-11-08T00:00:00	1	Precipitación	0
2808	7	Sololá	712	San Antonio Palopó	9	San Antonio Palopo	8	Agosto	2023-08-22T00:00:00	2024-11-08T00:00:00	8	Radiación solar	0
2809	7	Sololá	712	San Antonio Palopó	9	San Antonio Palopo	8	Agosto	2023-08-22T00:00:00	2024-11-08T01:00:00	2	Temperatura media	20.8
2810	7	Sololá	712	San Antonio Palopó	9	San Antonio Palopo	8	Agosto	2023-08-22T00:00:00	2024-11-08T01:00:00	4	Temperatura máxima	20.9
2811	7	Sololá	712	San Antonio Palopó	9	San Antonio Palopo	8	Agosto	2023-08-22T00:00:00	2024-11-08T01:00:00	3	Temperatura mínima	20.7
2812	7	Sololá	712	San Antonio Palopó	9	San Antonio Palopo	8	Agosto	2023-08-22T00:00:00	2024-11-08T01:00:00	5	Humedad	69
2813	7	Sololá	712	San Antonio Palopó	9	San Antonio Palopo	8	Agosto	2023-08-22T00:00:00	2024-11-08T01:00:00	6	Velocidad del viento	4.8
2814	7	Sololá	712	San Antonio Palopó	9	San Antonio Palopo	8	Agosto	2023-08-22T00:00:00	2024-11-08T01:00:00	7	Dirección del viento	4.83
2815	7	Sololá	712	San Antonio Palopó	9	San Antonio Palopo	8	Agosto	2023-08-22T00:00:00	2024-11-08T01:00:00	1	Precipitación	0
2816	7	Sololá	712	San Antonio Palopó	9	San Antonio Palopo	8	Agosto	2023-08-22T00:00:00	2024-11-08T01:00:00	8	Radiación solar	0
2817	7	Sololá	712	San Antonio Palopó	9	San Antonio Palopo	8	Agosto	2023-08-22T00:00:00	2024-11-08T02:00:00	2	Temperatura media	20.5
2818	7	Sololá	712	San Antonio Palopó	9	San Antonio Palopo	8	Agosto	2023-08-22T00:00:00	2024-11-08T02:00:00	4	Temperatura máxima	20.8
2819	7	Sololá	712	San Antonio Palopó	9	San Antonio Palopo	8	Agosto	2023-08-22T00:00:00	2024-11-08T02:00:00	3	Temperatura mínima	20.4
2820	7	Sololá	712	San Antonio Palopó	9	San Antonio Palopo	8	Agosto	2023-08-22T00:00:00	2024-11-08T02:00:00	5	Humedad	69
2821	7	Sololá	712	San Antonio Palopó	9	San Antonio Palopo	8	Agosto	2023-08-22T00:00:00	2024-11-08T02:00:00	6	Velocidad del viento	4.8
2822	7	Sololá	712	San Antonio Palopó	9	San Antonio Palopo	8	Agosto	2023-08-22T00:00:00	2024-11-08T02:00:00	7	Dirección del viento	4.83
2823	7	Sololá	712	San Antonio Palopó	9	San Antonio Palopo	8	Agosto	2023-08-22T00:00:00	2024-11-08T02:00:00	1	Precipitación	0
2824	7	Sololá	712	San Antonio Palopó	9	San Antonio Palopo	8	Agosto	2023-08-22T00:00:00	2024-11-08T02:00:00	8	Radiación solar	0
2825	7	Sololá	712	San Antonio Palopó	9	San Antonio Palopo	8	Agosto	2023-08-22T00:00:00	2024-11-08T03:00:00	2	Temperatura media	20
2826	7	Sololá	712	San Antonio Palopó	9	San Antonio Palopo	8	Agosto	2023-08-22T00:00:00	2024-11-08T03:00:00	4	Temperatura máxima	20.6
2827	7	Sololá	712	San Antonio Palopó	9	San Antonio Palopo	8	Agosto	2023-08-22T00:00:00	2024-11-08T03:00:00	3	Temperatura mínima	20
2828	7	Sololá	712	San Antonio Palopó	9	San Antonio Palopo	8	Agosto	2023-08-22T00:00:00	2024-11-08T03:00:00	5	Humedad	70
2829	7	Sololá	712	San Antonio Palopó	9	San Antonio Palopo	8	Agosto	2023-08-22T00:00:00	2024-11-08T03:00:00	6	Velocidad del viento	6.4
2830	7	Sololá	712	San Antonio Palopó	9	San Antonio Palopo	8	Agosto	2023-08-22T00:00:00	2024-11-08T03:00:00	7	Dirección del viento	6.44
2831	7	Sololá	712	San Antonio Palopó	9	San Antonio Palopo	8	Agosto	2023-08-22T00:00:00	2024-11-08T03:00:00	1	Precipitación	0
2832	7	Sololá	712	San Antonio Palopó	9	San Antonio Palopo	8	Agosto	2023-08-22T00:00:00	2024-11-08T03:00:00	8	Radiación solar	0
2833	7	Sololá	712	San Antonio Palopó	9	San Antonio Palopo	8	Agosto	2023-08-22T00:00:00	2024-11-08T04:00:00	2	Temperatura media	19.8
2834	7	Sololá	712	San Antonio Palopó	9	San Antonio Palopo	8	Agosto	2023-08-22T00:00:00	2024-11-08T04:00:00	4	Temperatura máxima	20.3
2835	7	Sololá	712	San Antonio Palopó	9	San Antonio Palopo	8	Agosto	2023-08-22T00:00:00	2024-11-08T04:00:00	3	Temperatura mínima	19.8
2836	7	Sololá	712	San Antonio Palopó	9	San Antonio Palopo	8	Agosto	2023-08-22T00:00:00	2024-11-08T04:00:00	5	Humedad	69
2837	7	Sololá	712	San Antonio Palopó	9	San Antonio Palopo	8	Agosto	2023-08-22T00:00:00	2024-11-08T04:00:00	6	Velocidad del viento	6.4
2838	7	Sololá	712	San Antonio Palopó	9	San Antonio Palopo	8	Agosto	2023-08-22T00:00:00	2024-11-08T04:00:00	7	Dirección del viento	6.44
2839	7	Sololá	712	San Antonio Palopó	9	San Antonio Palopo	8	Agosto	2023-08-22T00:00:00	2024-11-08T04:00:00	1	Precipitación	0
2840	7	Sololá	712	San Antonio Palopó	9	San Antonio Palopo	8	Agosto	2023-08-22T00:00:00	2024-11-08T04:00:00	8	Radiación solar	0
2841	7	Sololá	712	San Antonio Palopó	9	San Antonio Palopo	8	Agosto	2023-08-22T00:00:00	2024-11-08T05:00:00	2	Temperatura media	19.5
2842	7	Sololá	712	San Antonio Palopó	9	San Antonio Palopo	8	Agosto	2023-08-22T00:00:00	2024-11-08T05:00:00	4	Temperatura máxima	19.8
2843	7	Sololá	712	San Antonio Palopó	9	San Antonio Palopo	8	Agosto	2023-08-22T00:00:00	2024-11-08T05:00:00	3	Temperatura mínima	19.5
2844	7	Sololá	712	San Antonio Palopó	9	San Antonio Palopo	8	Agosto	2023-08-22T00:00:00	2024-11-08T05:00:00	5	Humedad	70
2845	7	Sololá	712	San Antonio Palopó	9	San Antonio Palopo	8	Agosto	2023-08-22T00:00:00	2024-11-08T05:00:00	6	Velocidad del viento	9.7
2846	7	Sololá	712	San Antonio Palopó	9	San Antonio Palopo	8	Agosto	2023-08-22T00:00:00	2024-11-08T05:00:00	7	Dirección del viento	9.66
2847	7	Sololá	712	San Antonio Palopó	9	San Antonio Palopo	8	Agosto	2023-08-22T00:00:00	2024-11-08T05:00:00	1	Precipitación	0
2848	7	Sololá	712	San Antonio Palopó	9	San Antonio Palopo	8	Agosto	2023-08-22T00:00:00	2024-11-08T05:00:00	8	Radiación solar	0
2849	7	Sololá	712	San Antonio Palopó	9	San Antonio Palopo	8	Agosto	2023-08-22T00:00:00	2024-11-08T06:00:00	2	Temperatura media	19.4
2850	7	Sololá	712	San Antonio Palopó	9	San Antonio Palopo	8	Agosto	2023-08-22T00:00:00	2024-11-08T06:00:00	4	Temperatura máxima	19.5
2851	7	Sololá	712	San Antonio Palopó	9	San Antonio Palopo	8	Agosto	2023-08-22T00:00:00	2024-11-08T06:00:00	3	Temperatura mínima	19.2
2852	7	Sololá	712	San Antonio Palopó	9	San Antonio Palopo	8	Agosto	2023-08-22T00:00:00	2024-11-08T06:00:00	5	Humedad	69
2853	7	Sololá	712	San Antonio Palopó	9	San Antonio Palopo	8	Agosto	2023-08-22T00:00:00	2024-11-08T06:00:00	6	Velocidad del viento	8
2854	7	Sololá	712	San Antonio Palopó	9	San Antonio Palopo	8	Agosto	2023-08-22T00:00:00	2024-11-08T06:00:00	7	Dirección del viento	8.05
2855	7	Sololá	712	San Antonio Palopó	9	San Antonio Palopo	8	Agosto	2023-08-22T00:00:00	2024-11-08T06:00:00	1	Precipitación	0
2856	7	Sololá	712	San Antonio Palopó	9	San Antonio Palopo	8	Agosto	2023-08-22T00:00:00	2024-11-08T06:00:00	8	Radiación solar	0
2857	7	Sololá	712	San Antonio Palopó	9	San Antonio Palopo	8	Agosto	2023-08-22T00:00:00	2024-11-08T07:00:00	2	Temperatura media	20.1
2858	7	Sololá	712	San Antonio Palopó	9	San Antonio Palopo	8	Agosto	2023-08-22T00:00:00	2024-11-08T07:00:00	4	Temperatura máxima	20.1
2859	7	Sololá	712	San Antonio Palopó	9	San Antonio Palopo	8	Agosto	2023-08-22T00:00:00	2024-11-08T07:00:00	3	Temperatura mínima	19.4
2860	7	Sololá	712	San Antonio Palopó	9	San Antonio Palopo	8	Agosto	2023-08-22T00:00:00	2024-11-08T07:00:00	5	Humedad	68
2861	7	Sololá	712	San Antonio Palopó	9	San Antonio Palopo	8	Agosto	2023-08-22T00:00:00	2024-11-08T07:00:00	6	Velocidad del viento	9.7
2862	7	Sololá	712	San Antonio Palopó	9	San Antonio Palopo	8	Agosto	2023-08-22T00:00:00	2024-11-08T07:00:00	7	Dirección del viento	9.66
2863	7	Sololá	712	San Antonio Palopó	9	San Antonio Palopo	8	Agosto	2023-08-22T00:00:00	2024-11-08T07:00:00	1	Precipitación	0
2864	7	Sololá	712	San Antonio Palopó	9	San Antonio Palopo	8	Agosto	2023-08-22T00:00:00	2024-11-08T07:00:00	8	Radiación solar	49
2865	7	Sololá	712	San Antonio Palopó	9	San Antonio Palopo	8	Agosto	2023-08-22T00:00:00	2024-11-08T08:00:00	2	Temperatura media	21.2
2866	7	Sololá	712	San Antonio Palopó	9	San Antonio Palopo	8	Agosto	2023-08-22T00:00:00	2024-11-08T08:00:00	4	Temperatura máxima	21.2
2867	7	Sololá	712	San Antonio Palopó	9	San Antonio Palopo	8	Agosto	2023-08-22T00:00:00	2024-11-08T08:00:00	3	Temperatura mínima	20.1
2868	7	Sololá	712	San Antonio Palopó	9	San Antonio Palopo	8	Agosto	2023-08-22T00:00:00	2024-11-08T08:00:00	5	Humedad	65
2869	7	Sololá	712	San Antonio Palopó	9	San Antonio Palopo	8	Agosto	2023-08-22T00:00:00	2024-11-08T08:00:00	6	Velocidad del viento	8
2870	7	Sololá	712	San Antonio Palopó	9	San Antonio Palopo	8	Agosto	2023-08-22T00:00:00	2024-11-08T08:00:00	7	Dirección del viento	8.05
2871	7	Sololá	712	San Antonio Palopó	9	San Antonio Palopo	8	Agosto	2023-08-22T00:00:00	2024-11-08T08:00:00	1	Precipitación	0
2872	7	Sololá	712	San Antonio Palopó	9	San Antonio Palopo	8	Agosto	2023-08-22T00:00:00	2024-11-08T08:00:00	8	Radiación solar	109
2873	7	Sololá	712	San Antonio Palopó	9	San Antonio Palopo	8	Agosto	2023-08-22T00:00:00	2024-11-08T09:00:00	2	Temperatura media	23.1
2874	7	Sololá	712	San Antonio Palopó	9	San Antonio Palopo	8	Agosto	2023-08-22T00:00:00	2024-11-08T09:00:00	4	Temperatura máxima	23.1
2875	7	Sololá	712	San Antonio Palopó	9	San Antonio Palopo	8	Agosto	2023-08-22T00:00:00	2024-11-08T09:00:00	3	Temperatura mínima	20.9
2876	7	Sololá	712	San Antonio Palopó	9	San Antonio Palopo	8	Agosto	2023-08-22T00:00:00	2024-11-08T09:00:00	5	Humedad	62
2877	7	Sololá	712	San Antonio Palopó	9	San Antonio Palopo	8	Agosto	2023-08-22T00:00:00	2024-11-08T09:00:00	6	Velocidad del viento	1.6
2878	7	Sololá	712	San Antonio Palopó	9	San Antonio Palopo	8	Agosto	2023-08-22T00:00:00	2024-11-08T09:00:00	7	Dirección del viento	1.61
2879	7	Sololá	712	San Antonio Palopó	9	San Antonio Palopo	8	Agosto	2023-08-22T00:00:00	2024-11-08T09:00:00	1	Precipitación	0
2880	7	Sololá	712	San Antonio Palopó	9	San Antonio Palopo	8	Agosto	2023-08-22T00:00:00	2024-11-08T09:00:00	8	Radiación solar	356
2881	7	Sololá	712	San Antonio Palopó	9	San Antonio Palopo	8	Agosto	2023-08-22T00:00:00	2024-11-08T10:00:00	2	Temperatura media	23.9
2882	7	Sololá	712	San Antonio Palopó	9	San Antonio Palopo	8	Agosto	2023-08-22T00:00:00	2024-11-08T10:00:00	4	Temperatura máxima	23.9
2883	7	Sololá	712	San Antonio Palopó	9	San Antonio Palopo	8	Agosto	2023-08-22T00:00:00	2024-11-08T10:00:00	3	Temperatura mínima	23.1
2884	7	Sololá	712	San Antonio Palopó	9	San Antonio Palopo	8	Agosto	2023-08-22T00:00:00	2024-11-08T10:00:00	5	Humedad	59
2885	7	Sololá	712	San Antonio Palopó	9	San Antonio Palopo	8	Agosto	2023-08-22T00:00:00	2024-11-08T10:00:00	6	Velocidad del viento	1.6
2886	7	Sololá	712	San Antonio Palopó	9	San Antonio Palopo	8	Agosto	2023-08-22T00:00:00	2024-11-08T10:00:00	7	Dirección del viento	1.61
2887	7	Sololá	712	San Antonio Palopó	9	San Antonio Palopo	8	Agosto	2023-08-22T00:00:00	2024-11-08T10:00:00	1	Precipitación	0
2888	7	Sololá	712	San Antonio Palopó	9	San Antonio Palopo	8	Agosto	2023-08-22T00:00:00	2024-11-08T10:00:00	8	Radiación solar	730
2889	7	Sololá	712	San Antonio Palopó	9	San Antonio Palopo	8	Agosto	2023-08-22T00:00:00	2024-11-08T11:00:00	2	Temperatura media	23.2
2890	7	Sololá	712	San Antonio Palopó	9	San Antonio Palopo	8	Agosto	2023-08-22T00:00:00	2024-11-08T11:00:00	4	Temperatura máxima	24.2
2891	7	Sololá	712	San Antonio Palopó	9	San Antonio Palopo	8	Agosto	2023-08-22T00:00:00	2024-11-08T11:00:00	3	Temperatura mínima	22.6
2892	7	Sololá	712	San Antonio Palopó	9	San Antonio Palopo	8	Agosto	2023-08-22T00:00:00	2024-11-08T11:00:00	5	Humedad	68
2893	7	Sololá	712	San Antonio Palopó	9	San Antonio Palopo	8	Agosto	2023-08-22T00:00:00	2024-11-08T11:00:00	6	Velocidad del viento	4.8
2894	7	Sololá	712	San Antonio Palopó	9	San Antonio Palopo	8	Agosto	2023-08-22T00:00:00	2024-11-08T11:00:00	7	Dirección del viento	4.83
2895	7	Sololá	712	San Antonio Palopó	9	San Antonio Palopo	8	Agosto	2023-08-22T00:00:00	2024-11-08T11:00:00	1	Precipitación	0
2896	7	Sololá	712	San Antonio Palopó	9	San Antonio Palopo	8	Agosto	2023-08-22T00:00:00	2024-11-08T11:00:00	8	Radiación solar	871
2897	7	Sololá	712	San Antonio Palopó	9	San Antonio Palopo	8	Agosto	2023-08-22T00:00:00	2024-11-08T12:00:00	2	Temperatura media	24.4
2898	7	Sololá	712	San Antonio Palopó	9	San Antonio Palopo	8	Agosto	2023-08-22T00:00:00	2024-11-08T12:00:00	4	Temperatura máxima	25.1
2899	7	Sololá	712	San Antonio Palopó	9	San Antonio Palopo	8	Agosto	2023-08-22T00:00:00	2024-11-08T12:00:00	3	Temperatura mínima	23.3
2900	7	Sololá	712	San Antonio Palopó	9	San Antonio Palopo	8	Agosto	2023-08-22T00:00:00	2024-11-08T12:00:00	5	Humedad	65
2901	7	Sololá	712	San Antonio Palopó	9	San Antonio Palopo	8	Agosto	2023-08-22T00:00:00	2024-11-08T12:00:00	6	Velocidad del viento	8
2902	7	Sololá	712	San Antonio Palopó	9	San Antonio Palopo	8	Agosto	2023-08-22T00:00:00	2024-11-08T12:00:00	7	Dirección del viento	8.05
2903	7	Sololá	712	San Antonio Palopó	9	San Antonio Palopo	8	Agosto	2023-08-22T00:00:00	2024-11-08T12:00:00	1	Precipitación	0
2904	7	Sololá	712	San Antonio Palopó	9	San Antonio Palopo	8	Agosto	2023-08-22T00:00:00	2024-11-08T12:00:00	8	Radiación solar	808
2905	7	Sololá	712	San Antonio Palopó	9	San Antonio Palopo	8	Agosto	2023-08-22T00:00:00	2024-11-08T13:00:00	2	Temperatura media	24.9
2906	7	Sololá	712	San Antonio Palopó	9	San Antonio Palopo	8	Agosto	2023-08-22T00:00:00	2024-11-08T13:00:00	4	Temperatura máxima	24.9
2907	7	Sololá	712	San Antonio Palopó	9	San Antonio Palopo	8	Agosto	2023-08-22T00:00:00	2024-11-08T13:00:00	3	Temperatura mínima	24.1
2908	7	Sololá	712	San Antonio Palopó	9	San Antonio Palopo	8	Agosto	2023-08-22T00:00:00	2024-11-08T13:00:00	5	Humedad	64
2909	7	Sololá	712	San Antonio Palopó	9	San Antonio Palopo	8	Agosto	2023-08-22T00:00:00	2024-11-08T13:00:00	6	Velocidad del viento	12.9
2910	7	Sololá	712	San Antonio Palopó	9	San Antonio Palopo	8	Agosto	2023-08-22T00:00:00	2024-11-08T13:00:00	7	Dirección del viento	12.87
2911	7	Sololá	712	San Antonio Palopó	9	San Antonio Palopo	8	Agosto	2023-08-22T00:00:00	2024-11-08T13:00:00	1	Precipitación	0
2912	7	Sololá	712	San Antonio Palopó	9	San Antonio Palopo	8	Agosto	2023-08-22T00:00:00	2024-11-08T13:00:00	8	Radiación solar	724
2913	7	Sololá	712	San Antonio Palopó	9	San Antonio Palopo	8	Agosto	2023-08-22T00:00:00	2024-11-08T14:00:00	2	Temperatura media	25.2
2914	7	Sololá	712	San Antonio Palopó	9	San Antonio Palopo	8	Agosto	2023-08-22T00:00:00	2024-11-08T14:00:00	4	Temperatura máxima	25.8
2915	7	Sololá	712	San Antonio Palopó	9	San Antonio Palopo	8	Agosto	2023-08-22T00:00:00	2024-11-08T14:00:00	3	Temperatura mínima	24.4
2916	7	Sololá	712	San Antonio Palopó	9	San Antonio Palopo	8	Agosto	2023-08-22T00:00:00	2024-11-08T14:00:00	5	Humedad	61
2917	7	Sololá	712	San Antonio Palopó	9	San Antonio Palopo	8	Agosto	2023-08-22T00:00:00	2024-11-08T14:00:00	6	Velocidad del viento	14.5
2918	7	Sololá	712	San Antonio Palopó	9	San Antonio Palopo	8	Agosto	2023-08-22T00:00:00	2024-11-08T14:00:00	7	Dirección del viento	14.48
2919	7	Sololá	712	San Antonio Palopó	9	San Antonio Palopo	8	Agosto	2023-08-22T00:00:00	2024-11-08T14:00:00	1	Precipitación	0
2920	7	Sololá	712	San Antonio Palopó	9	San Antonio Palopo	8	Agosto	2023-08-22T00:00:00	2024-11-08T14:00:00	8	Radiación solar	842
2921	7	Sololá	712	San Antonio Palopó	9	San Antonio Palopo	8	Agosto	2023-08-22T00:00:00	2024-11-08T15:00:00	2	Temperatura media	23.7
2922	7	Sololá	712	San Antonio Palopó	9	San Antonio Palopo	8	Agosto	2023-08-22T00:00:00	2024-11-08T15:00:00	4	Temperatura máxima	26.1
2923	7	Sololá	712	San Antonio Palopó	9	San Antonio Palopo	8	Agosto	2023-08-22T00:00:00	2024-11-08T15:00:00	3	Temperatura mínima	23.7
2924	7	Sololá	712	San Antonio Palopó	9	San Antonio Palopo	8	Agosto	2023-08-22T00:00:00	2024-11-08T15:00:00	5	Humedad	70
2925	7	Sololá	712	San Antonio Palopó	9	San Antonio Palopo	8	Agosto	2023-08-22T00:00:00	2024-11-08T15:00:00	6	Velocidad del viento	6.4
2926	7	Sololá	712	San Antonio Palopó	9	San Antonio Palopo	8	Agosto	2023-08-22T00:00:00	2024-11-08T15:00:00	7	Dirección del viento	6.44
2927	7	Sololá	712	San Antonio Palopó	9	San Antonio Palopo	8	Agosto	2023-08-22T00:00:00	2024-11-08T15:00:00	1	Precipitación	0
2928	7	Sololá	712	San Antonio Palopó	9	San Antonio Palopo	8	Agosto	2023-08-22T00:00:00	2024-11-08T15:00:00	8	Radiación solar	534
2929	7	Sololá	712	San Antonio Palopó	9	San Antonio Palopo	8	Agosto	2023-08-22T00:00:00	2024-11-08T16:00:00	2	Temperatura media	23.6
2930	7	Sololá	712	San Antonio Palopó	9	San Antonio Palopo	8	Agosto	2023-08-22T00:00:00	2024-11-08T16:00:00	4	Temperatura máxima	23.7
2931	7	Sololá	712	San Antonio Palopó	9	San Antonio Palopo	8	Agosto	2023-08-22T00:00:00	2024-11-08T16:00:00	3	Temperatura mínima	22.9
2932	7	Sololá	712	San Antonio Palopó	9	San Antonio Palopo	8	Agosto	2023-08-22T00:00:00	2024-11-08T16:00:00	5	Humedad	73
2933	7	Sololá	712	San Antonio Palopó	9	San Antonio Palopo	8	Agosto	2023-08-22T00:00:00	2024-11-08T16:00:00	6	Velocidad del viento	4.8
2934	7	Sololá	712	San Antonio Palopó	9	San Antonio Palopo	8	Agosto	2023-08-22T00:00:00	2024-11-08T16:00:00	7	Dirección del viento	4.83
2935	7	Sololá	712	San Antonio Palopó	9	San Antonio Palopo	8	Agosto	2023-08-22T00:00:00	2024-11-08T16:00:00	1	Precipitación	0
2936	7	Sololá	712	San Antonio Palopó	9	San Antonio Palopo	8	Agosto	2023-08-22T00:00:00	2024-11-08T16:00:00	8	Radiación solar	293
2937	7	Sololá	712	San Antonio Palopó	9	San Antonio Palopo	8	Agosto	2023-08-22T00:00:00	2024-11-08T17:00:00	2	Temperatura media	23.4
2938	7	Sololá	712	San Antonio Palopó	9	San Antonio Palopo	8	Agosto	2023-08-22T00:00:00	2024-11-08T17:00:00	4	Temperatura máxima	23.9
2939	7	Sololá	712	San Antonio Palopó	9	San Antonio Palopo	8	Agosto	2023-08-22T00:00:00	2024-11-08T17:00:00	3	Temperatura mínima	22.7
2940	7	Sololá	712	San Antonio Palopó	9	San Antonio Palopo	8	Agosto	2023-08-22T00:00:00	2024-11-08T17:00:00	5	Humedad	69
2941	7	Sololá	712	San Antonio Palopó	9	San Antonio Palopo	8	Agosto	2023-08-22T00:00:00	2024-11-08T17:00:00	6	Velocidad del viento	6.4
2942	7	Sololá	712	San Antonio Palopó	9	San Antonio Palopo	8	Agosto	2023-08-22T00:00:00	2024-11-08T17:00:00	7	Dirección del viento	6.44
2943	7	Sololá	712	San Antonio Palopó	9	San Antonio Palopo	8	Agosto	2023-08-22T00:00:00	2024-11-08T17:00:00	1	Precipitación	0
2944	7	Sololá	712	San Antonio Palopó	9	San Antonio Palopo	8	Agosto	2023-08-22T00:00:00	2024-11-08T17:00:00	8	Radiación solar	133
2945	7	Sololá	712	San Antonio Palopó	9	San Antonio Palopo	8	Agosto	2023-08-22T00:00:00	2024-11-08T18:00:00	2	Temperatura media	24.3
2946	7	Sololá	712	San Antonio Palopó	9	San Antonio Palopo	8	Agosto	2023-08-22T00:00:00	2024-11-08T18:00:00	4	Temperatura máxima	24.4
2947	7	Sololá	712	San Antonio Palopó	9	San Antonio Palopo	8	Agosto	2023-08-22T00:00:00	2024-11-08T18:00:00	3	Temperatura mínima	22.7
2948	7	Sololá	712	San Antonio Palopó	9	San Antonio Palopo	8	Agosto	2023-08-22T00:00:00	2024-11-08T18:00:00	5	Humedad	66
2949	7	Sololá	712	San Antonio Palopó	9	San Antonio Palopo	8	Agosto	2023-08-22T00:00:00	2024-11-08T18:00:00	6	Velocidad del viento	4.8
2950	7	Sololá	712	San Antonio Palopó	9	San Antonio Palopo	8	Agosto	2023-08-22T00:00:00	2024-11-08T18:00:00	7	Dirección del viento	4.83
2951	7	Sololá	712	San Antonio Palopó	9	San Antonio Palopo	8	Agosto	2023-08-22T00:00:00	2024-11-08T18:00:00	1	Precipitación	0
2952	7	Sololá	712	San Antonio Palopó	9	San Antonio Palopo	8	Agosto	2023-08-22T00:00:00	2024-11-08T18:00:00	8	Radiación solar	90
2953	7	Sololá	712	San Antonio Palopó	9	San Antonio Palopo	8	Agosto	2023-08-22T00:00:00	2024-11-08T19:00:00	2	Temperatura media	22.5
2954	7	Sololá	712	San Antonio Palopó	9	San Antonio Palopo	8	Agosto	2023-08-22T00:00:00	2024-11-08T19:00:00	4	Temperatura máxima	24.3
2955	7	Sololá	712	San Antonio Palopó	9	San Antonio Palopo	8	Agosto	2023-08-22T00:00:00	2024-11-08T19:00:00	3	Temperatura mínima	22.5
2956	7	Sololá	712	San Antonio Palopó	9	San Antonio Palopo	8	Agosto	2023-08-22T00:00:00	2024-11-08T19:00:00	5	Humedad	63
2957	7	Sololá	712	San Antonio Palopó	9	San Antonio Palopo	8	Agosto	2023-08-22T00:00:00	2024-11-08T19:00:00	6	Velocidad del viento	1.6
2958	7	Sololá	712	San Antonio Palopó	9	San Antonio Palopo	8	Agosto	2023-08-22T00:00:00	2024-11-08T19:00:00	7	Dirección del viento	1.61
2959	7	Sololá	712	San Antonio Palopó	9	San Antonio Palopo	8	Agosto	2023-08-22T00:00:00	2024-11-08T19:00:00	1	Precipitación	0
2960	7	Sololá	712	San Antonio Palopó	9	San Antonio Palopo	8	Agosto	2023-08-22T00:00:00	2024-11-08T19:00:00	8	Radiación solar	0
2961	7	Sololá	712	San Antonio Palopó	9	San Antonio Palopo	8	Agosto	2023-08-22T00:00:00	2024-11-08T20:00:00	2	Temperatura media	21.9
2962	7	Sololá	712	San Antonio Palopó	9	San Antonio Palopo	8	Agosto	2023-08-22T00:00:00	2024-11-08T20:00:00	4	Temperatura máxima	22.5
2963	7	Sololá	712	San Antonio Palopó	9	San Antonio Palopo	8	Agosto	2023-08-22T00:00:00	2024-11-08T20:00:00	3	Temperatura mínima	21.9
2964	7	Sololá	712	San Antonio Palopó	9	San Antonio Palopo	8	Agosto	2023-08-22T00:00:00	2024-11-08T20:00:00	5	Humedad	69
2965	7	Sololá	712	San Antonio Palopó	9	San Antonio Palopo	8	Agosto	2023-08-22T00:00:00	2024-11-08T20:00:00	6	Velocidad del viento	4.8
2966	7	Sololá	712	San Antonio Palopó	9	San Antonio Palopo	8	Agosto	2023-08-22T00:00:00	2024-11-08T20:00:00	7	Dirección del viento	4.83
2967	7	Sololá	712	San Antonio Palopó	9	San Antonio Palopo	8	Agosto	2023-08-22T00:00:00	2024-11-08T20:00:00	1	Precipitación	0
2968	7	Sololá	712	San Antonio Palopó	9	San Antonio Palopo	8	Agosto	2023-08-22T00:00:00	2024-11-08T20:00:00	8	Radiación solar	0
2969	7	Sololá	712	San Antonio Palopó	9	San Antonio Palopo	8	Agosto	2023-08-22T00:00:00	2024-11-08T21:00:00	2	Temperatura media	21.1
2970	7	Sololá	712	San Antonio Palopó	9	San Antonio Palopo	8	Agosto	2023-08-22T00:00:00	2024-11-08T21:00:00	4	Temperatura máxima	22.1
2971	7	Sololá	712	San Antonio Palopó	9	San Antonio Palopo	8	Agosto	2023-08-22T00:00:00	2024-11-08T21:00:00	3	Temperatura mínima	21.1
2972	7	Sololá	712	San Antonio Palopó	9	San Antonio Palopo	8	Agosto	2023-08-22T00:00:00	2024-11-08T21:00:00	5	Humedad	70
2973	7	Sololá	712	San Antonio Palopó	9	San Antonio Palopo	8	Agosto	2023-08-22T00:00:00	2024-11-08T21:00:00	6	Velocidad del viento	4.8
2974	7	Sololá	712	San Antonio Palopó	9	San Antonio Palopo	8	Agosto	2023-08-22T00:00:00	2024-11-08T21:00:00	7	Dirección del viento	4.83
2975	7	Sololá	712	San Antonio Palopó	9	San Antonio Palopo	8	Agosto	2023-08-22T00:00:00	2024-11-08T21:00:00	1	Precipitación	0
2976	7	Sololá	712	San Antonio Palopó	9	San Antonio Palopo	8	Agosto	2023-08-22T00:00:00	2024-11-08T21:00:00	8	Radiación solar	0
2977	7	Sololá	712	San Antonio Palopó	9	San Antonio Palopo	8	Agosto	2023-08-22T00:00:00	2024-11-08T22:00:00	2	Temperatura media	20.5
2978	7	Sololá	712	San Antonio Palopó	9	San Antonio Palopo	8	Agosto	2023-08-22T00:00:00	2024-11-08T22:00:00	4	Temperatura máxima	21.2
2979	7	Sololá	712	San Antonio Palopó	9	San Antonio Palopo	8	Agosto	2023-08-22T00:00:00	2024-11-08T22:00:00	3	Temperatura mínima	20.5
2980	7	Sololá	712	San Antonio Palopó	9	San Antonio Palopo	8	Agosto	2023-08-22T00:00:00	2024-11-08T22:00:00	5	Humedad	68
2981	7	Sololá	712	San Antonio Palopó	9	San Antonio Palopo	8	Agosto	2023-08-22T00:00:00	2024-11-08T22:00:00	6	Velocidad del viento	3.2
2982	7	Sololá	712	San Antonio Palopó	9	San Antonio Palopo	8	Agosto	2023-08-22T00:00:00	2024-11-08T22:00:00	7	Dirección del viento	3.22
2983	7	Sololá	712	San Antonio Palopó	9	San Antonio Palopo	8	Agosto	2023-08-22T00:00:00	2024-11-08T22:00:00	1	Precipitación	0
2984	7	Sololá	712	San Antonio Palopó	9	San Antonio Palopo	8	Agosto	2023-08-22T00:00:00	2024-11-08T22:00:00	8	Radiación solar	0
2985	7	Sololá	712	San Antonio Palopó	9	San Antonio Palopo	8	Agosto	2023-08-22T00:00:00	2024-11-08T23:00:00	2	Temperatura media	20.1
2986	7	Sololá	712	San Antonio Palopó	9	San Antonio Palopo	8	Agosto	2023-08-22T00:00:00	2024-11-08T23:00:00	4	Temperatura máxima	20.8
2987	7	Sololá	712	San Antonio Palopó	9	San Antonio Palopo	8	Agosto	2023-08-22T00:00:00	2024-11-08T23:00:00	3	Temperatura mínima	20.1
2988	7	Sololá	712	San Antonio Palopó	9	San Antonio Palopo	8	Agosto	2023-08-22T00:00:00	2024-11-08T23:00:00	5	Humedad	69
2989	7	Sololá	712	San Antonio Palopó	9	San Antonio Palopo	8	Agosto	2023-08-22T00:00:00	2024-11-08T23:00:00	6	Velocidad del viento	8
2990	7	Sololá	712	San Antonio Palopó	9	San Antonio Palopo	8	Agosto	2023-08-22T00:00:00	2024-11-08T23:00:00	7	Dirección del viento	8.05
2991	7	Sololá	712	San Antonio Palopó	9	San Antonio Palopo	8	Agosto	2023-08-22T00:00:00	2024-11-08T23:00:00	1	Precipitación	0
2992	7	Sololá	712	San Antonio Palopó	9	San Antonio Palopo	8	Agosto	2023-08-22T00:00:00	2024-11-08T23:00:00	8	Radiación solar	0
2993	7	Sololá	712	San Antonio Palopó	9	San Antonio Palopo	8	Agosto	2023-08-23T00:00:00	2024-11-08T00:00:00	2	Temperatura media	19.4
2994	7	Sololá	712	San Antonio Palopó	9	San Antonio Palopo	8	Agosto	2023-08-23T00:00:00	2024-11-08T00:00:00	4	Temperatura máxima	20.1
2995	7	Sololá	712	San Antonio Palopó	9	San Antonio Palopo	8	Agosto	2023-08-23T00:00:00	2024-11-08T00:00:00	3	Temperatura mínima	19.4
2996	7	Sololá	712	San Antonio Palopó	9	San Antonio Palopo	8	Agosto	2023-08-23T00:00:00	2024-11-08T00:00:00	5	Humedad	71
2997	7	Sololá	712	San Antonio Palopó	9	San Antonio Palopo	8	Agosto	2023-08-23T00:00:00	2024-11-08T00:00:00	6	Velocidad del viento	8
2998	7	Sololá	712	San Antonio Palopó	9	San Antonio Palopo	8	Agosto	2023-08-23T00:00:00	2024-11-08T00:00:00	7	Dirección del viento	8.05
2999	7	Sololá	712	San Antonio Palopó	9	San Antonio Palopo	8	Agosto	2023-08-23T00:00:00	2024-11-08T00:00:00	1	Precipitación	0
3000	7	Sololá	712	San Antonio Palopó	9	San Antonio Palopo	8	Agosto	2023-08-23T00:00:00	2024-11-08T00:00:00	8	Radiación solar	0
3001	7	Sololá	712	San Antonio Palopó	9	San Antonio Palopo	8	Agosto	2023-08-23T00:00:00	2024-11-08T01:00:00	2	Temperatura media	19.5
3002	7	Sololá	712	San Antonio Palopó	9	San Antonio Palopo	8	Agosto	2023-08-23T00:00:00	2024-11-08T01:00:00	4	Temperatura máxima	19.7
3003	7	Sololá	712	San Antonio Palopó	9	San Antonio Palopo	8	Agosto	2023-08-23T00:00:00	2024-11-08T01:00:00	3	Temperatura mínima	19.3
3004	7	Sololá	712	San Antonio Palopó	9	San Antonio Palopo	8	Agosto	2023-08-23T00:00:00	2024-11-08T01:00:00	5	Humedad	69
3005	7	Sololá	712	San Antonio Palopó	9	San Antonio Palopo	8	Agosto	2023-08-23T00:00:00	2024-11-08T01:00:00	6	Velocidad del viento	8
3006	7	Sololá	712	San Antonio Palopó	9	San Antonio Palopo	8	Agosto	2023-08-23T00:00:00	2024-11-08T01:00:00	7	Dirección del viento	8.05
3007	7	Sololá	712	San Antonio Palopó	9	San Antonio Palopo	8	Agosto	2023-08-23T00:00:00	2024-11-08T01:00:00	1	Precipitación	0
3008	7	Sololá	712	San Antonio Palopó	9	San Antonio Palopo	8	Agosto	2023-08-23T00:00:00	2024-11-08T01:00:00	8	Radiación solar	0
3009	7	Sololá	712	San Antonio Palopó	9	San Antonio Palopo	8	Agosto	2023-08-23T00:00:00	2024-11-08T02:00:00	2	Temperatura media	19.9
3010	7	Sololá	712	San Antonio Palopó	9	San Antonio Palopo	8	Agosto	2023-08-23T00:00:00	2024-11-08T02:00:00	4	Temperatura máxima	19.9
3011	7	Sololá	712	San Antonio Palopó	9	San Antonio Palopo	8	Agosto	2023-08-23T00:00:00	2024-11-08T02:00:00	3	Temperatura mínima	19.4
3012	7	Sololá	712	San Antonio Palopó	9	San Antonio Palopo	8	Agosto	2023-08-23T00:00:00	2024-11-08T02:00:00	5	Humedad	63
3013	7	Sololá	712	San Antonio Palopó	9	San Antonio Palopo	8	Agosto	2023-08-23T00:00:00	2024-11-08T02:00:00	6	Velocidad del viento	6.4
3014	7	Sololá	712	San Antonio Palopó	9	San Antonio Palopo	8	Agosto	2023-08-23T00:00:00	2024-11-08T02:00:00	7	Dirección del viento	6.44
3015	7	Sololá	712	San Antonio Palopó	9	San Antonio Palopo	8	Agosto	2023-08-23T00:00:00	2024-11-08T02:00:00	1	Precipitación	0
3016	7	Sololá	712	San Antonio Palopó	9	San Antonio Palopo	8	Agosto	2023-08-23T00:00:00	2024-11-08T02:00:00	8	Radiación solar	0
3017	7	Sololá	712	San Antonio Palopó	9	San Antonio Palopo	8	Agosto	2023-08-23T00:00:00	2024-11-08T03:00:00	2	Temperatura media	19.2
3018	7	Sololá	712	San Antonio Palopó	9	San Antonio Palopo	8	Agosto	2023-08-23T00:00:00	2024-11-08T03:00:00	4	Temperatura máxima	20.1
3019	7	Sololá	712	San Antonio Palopó	9	San Antonio Palopo	8	Agosto	2023-08-23T00:00:00	2024-11-08T03:00:00	3	Temperatura mínima	19.1
3020	7	Sololá	712	San Antonio Palopó	9	San Antonio Palopo	8	Agosto	2023-08-23T00:00:00	2024-11-08T03:00:00	5	Humedad	66
3021	7	Sololá	712	San Antonio Palopó	9	San Antonio Palopo	8	Agosto	2023-08-23T00:00:00	2024-11-08T03:00:00	6	Velocidad del viento	6.4
3022	7	Sololá	712	San Antonio Palopó	9	San Antonio Palopo	8	Agosto	2023-08-23T00:00:00	2024-11-08T03:00:00	7	Dirección del viento	6.44
3023	7	Sololá	712	San Antonio Palopó	9	San Antonio Palopo	8	Agosto	2023-08-23T00:00:00	2024-11-08T03:00:00	1	Precipitación	0
3024	7	Sololá	712	San Antonio Palopó	9	San Antonio Palopo	8	Agosto	2023-08-23T00:00:00	2024-11-08T03:00:00	8	Radiación solar	0
3025	7	Sololá	712	San Antonio Palopó	9	San Antonio Palopo	8	Agosto	2023-08-23T00:00:00	2024-11-08T04:00:00	2	Temperatura media	18.5
3026	7	Sololá	712	San Antonio Palopó	9	San Antonio Palopo	8	Agosto	2023-08-23T00:00:00	2024-11-08T04:00:00	4	Temperatura máxima	19.2
3027	7	Sololá	712	San Antonio Palopó	9	San Antonio Palopo	8	Agosto	2023-08-23T00:00:00	2024-11-08T04:00:00	3	Temperatura mínima	18.4
3028	7	Sololá	712	San Antonio Palopó	9	San Antonio Palopo	8	Agosto	2023-08-23T00:00:00	2024-11-08T04:00:00	5	Humedad	69
3029	7	Sololá	712	San Antonio Palopó	9	San Antonio Palopo	8	Agosto	2023-08-23T00:00:00	2024-11-08T04:00:00	6	Velocidad del viento	8
3030	7	Sololá	712	San Antonio Palopó	9	San Antonio Palopo	8	Agosto	2023-08-23T00:00:00	2024-11-08T04:00:00	7	Dirección del viento	8.05
3031	7	Sololá	712	San Antonio Palopó	9	San Antonio Palopo	8	Agosto	2023-08-23T00:00:00	2024-11-08T04:00:00	1	Precipitación	0
3032	7	Sololá	712	San Antonio Palopó	9	San Antonio Palopo	8	Agosto	2023-08-23T00:00:00	2024-11-08T04:00:00	8	Radiación solar	0
3033	7	Sololá	712	San Antonio Palopó	9	San Antonio Palopo	8	Agosto	2023-08-23T00:00:00	2024-11-08T05:00:00	2	Temperatura media	18.7
3034	7	Sololá	712	San Antonio Palopó	9	San Antonio Palopo	8	Agosto	2023-08-23T00:00:00	2024-11-08T05:00:00	4	Temperatura máxima	19
3035	7	Sololá	712	San Antonio Palopó	9	San Antonio Palopo	8	Agosto	2023-08-23T00:00:00	2024-11-08T05:00:00	3	Temperatura mínima	18.4
3036	7	Sololá	712	San Antonio Palopó	9	San Antonio Palopo	8	Agosto	2023-08-23T00:00:00	2024-11-08T05:00:00	5	Humedad	67
3037	7	Sololá	712	San Antonio Palopó	9	San Antonio Palopo	8	Agosto	2023-08-23T00:00:00	2024-11-08T05:00:00	6	Velocidad del viento	6.4
3038	7	Sololá	712	San Antonio Palopó	9	San Antonio Palopo	8	Agosto	2023-08-23T00:00:00	2024-11-08T05:00:00	7	Dirección del viento	6.44
3039	7	Sololá	712	San Antonio Palopó	9	San Antonio Palopo	8	Agosto	2023-08-23T00:00:00	2024-11-08T05:00:00	1	Precipitación	0
3040	7	Sololá	712	San Antonio Palopó	9	San Antonio Palopo	8	Agosto	2023-08-23T00:00:00	2024-11-08T05:00:00	8	Radiación solar	0
3041	7	Sololá	712	San Antonio Palopó	9	San Antonio Palopo	8	Agosto	2023-08-23T00:00:00	2024-11-08T06:00:00	2	Temperatura media	18.9
3042	7	Sololá	712	San Antonio Palopó	9	San Antonio Palopo	8	Agosto	2023-08-23T00:00:00	2024-11-08T06:00:00	4	Temperatura máxima	18.9
3043	7	Sololá	712	San Antonio Palopó	9	San Antonio Palopo	8	Agosto	2023-08-23T00:00:00	2024-11-08T06:00:00	3	Temperatura mínima	18.4
3044	7	Sololá	712	San Antonio Palopó	9	San Antonio Palopo	8	Agosto	2023-08-23T00:00:00	2024-11-08T06:00:00	5	Humedad	66
3045	7	Sololá	712	San Antonio Palopó	9	San Antonio Palopo	8	Agosto	2023-08-23T00:00:00	2024-11-08T06:00:00	6	Velocidad del viento	4.8
3046	7	Sololá	712	San Antonio Palopó	9	San Antonio Palopo	8	Agosto	2023-08-23T00:00:00	2024-11-08T06:00:00	7	Dirección del viento	4.83
3047	7	Sololá	712	San Antonio Palopó	9	San Antonio Palopo	8	Agosto	2023-08-23T00:00:00	2024-11-08T06:00:00	1	Precipitación	0
3048	7	Sololá	712	San Antonio Palopó	9	San Antonio Palopo	8	Agosto	2023-08-23T00:00:00	2024-11-08T06:00:00	8	Radiación solar	0
3049	7	Sololá	712	San Antonio Palopó	9	San Antonio Palopo	8	Agosto	2023-08-23T00:00:00	2024-11-08T07:00:00	2	Temperatura media	19.7
3050	7	Sololá	712	San Antonio Palopó	9	San Antonio Palopo	8	Agosto	2023-08-23T00:00:00	2024-11-08T07:00:00	4	Temperatura máxima	19.7
3051	7	Sololá	712	San Antonio Palopó	9	San Antonio Palopo	8	Agosto	2023-08-23T00:00:00	2024-11-08T07:00:00	3	Temperatura mínima	18.8
3052	7	Sololá	712	San Antonio Palopó	9	San Antonio Palopo	8	Agosto	2023-08-23T00:00:00	2024-11-08T07:00:00	5	Humedad	63
3053	7	Sololá	712	San Antonio Palopó	9	San Antonio Palopo	8	Agosto	2023-08-23T00:00:00	2024-11-08T07:00:00	6	Velocidad del viento	6.4
3054	7	Sololá	712	San Antonio Palopó	9	San Antonio Palopo	8	Agosto	2023-08-23T00:00:00	2024-11-08T07:00:00	7	Dirección del viento	6.44
3055	7	Sololá	712	San Antonio Palopó	9	San Antonio Palopo	8	Agosto	2023-08-23T00:00:00	2024-11-08T07:00:00	1	Precipitación	0
3056	7	Sololá	712	San Antonio Palopó	9	San Antonio Palopo	8	Agosto	2023-08-23T00:00:00	2024-11-08T07:00:00	8	Radiación solar	37
3057	7	Sololá	712	San Antonio Palopó	9	San Antonio Palopo	8	Agosto	2023-08-23T00:00:00	2024-11-08T08:00:00	2	Temperatura media	21.4
3058	7	Sololá	712	San Antonio Palopó	9	San Antonio Palopo	8	Agosto	2023-08-23T00:00:00	2024-11-08T08:00:00	4	Temperatura máxima	21.4
3059	7	Sololá	712	San Antonio Palopó	9	San Antonio Palopo	8	Agosto	2023-08-23T00:00:00	2024-11-08T08:00:00	3	Temperatura mínima	19.7
3060	7	Sololá	712	San Antonio Palopó	9	San Antonio Palopo	8	Agosto	2023-08-23T00:00:00	2024-11-08T08:00:00	5	Humedad	64
3061	7	Sololá	712	San Antonio Palopó	9	San Antonio Palopo	8	Agosto	2023-08-23T00:00:00	2024-11-08T08:00:00	6	Velocidad del viento	4.8
3062	7	Sololá	712	San Antonio Palopó	9	San Antonio Palopo	8	Agosto	2023-08-23T00:00:00	2024-11-08T08:00:00	7	Dirección del viento	4.83
3063	7	Sololá	712	San Antonio Palopó	9	San Antonio Palopo	8	Agosto	2023-08-23T00:00:00	2024-11-08T08:00:00	1	Precipitación	0
3064	7	Sololá	712	San Antonio Palopó	9	San Antonio Palopo	8	Agosto	2023-08-23T00:00:00	2024-11-08T08:00:00	8	Radiación solar	172
3065	7	Sololá	712	San Antonio Palopó	9	San Antonio Palopo	8	Agosto	2023-08-23T00:00:00	2024-11-08T09:00:00	2	Temperatura media	21.4
3066	7	Sololá	712	San Antonio Palopó	9	San Antonio Palopo	8	Agosto	2023-08-23T00:00:00	2024-11-08T09:00:00	4	Temperatura máxima	21.5
3067	7	Sololá	712	San Antonio Palopó	9	San Antonio Palopo	8	Agosto	2023-08-23T00:00:00	2024-11-08T09:00:00	3	Temperatura mínima	21.2
3068	7	Sololá	712	San Antonio Palopó	9	San Antonio Palopo	8	Agosto	2023-08-23T00:00:00	2024-11-08T09:00:00	5	Humedad	74
3069	7	Sololá	712	San Antonio Palopó	9	San Antonio Palopo	8	Agosto	2023-08-23T00:00:00	2024-11-08T09:00:00	6	Velocidad del viento	3.2
3070	7	Sololá	712	San Antonio Palopó	9	San Antonio Palopo	8	Agosto	2023-08-23T00:00:00	2024-11-08T09:00:00	7	Dirección del viento	3.22
3071	7	Sololá	712	San Antonio Palopó	9	San Antonio Palopo	8	Agosto	2023-08-23T00:00:00	2024-11-08T09:00:00	1	Precipitación	0
3072	7	Sololá	712	San Antonio Palopó	9	San Antonio Palopo	8	Agosto	2023-08-23T00:00:00	2024-11-08T09:00:00	8	Radiación solar	317
3073	7	Sololá	712	San Antonio Palopó	9	San Antonio Palopo	8	Agosto	2023-08-23T00:00:00	2024-11-08T10:00:00	2	Temperatura media	22.1
3074	7	Sololá	712	San Antonio Palopó	9	San Antonio Palopo	8	Agosto	2023-08-23T00:00:00	2024-11-08T10:00:00	4	Temperatura máxima	22.5
3075	7	Sololá	712	San Antonio Palopó	9	San Antonio Palopo	8	Agosto	2023-08-23T00:00:00	2024-11-08T10:00:00	3	Temperatura mínima	21.2
3076	7	Sololá	712	San Antonio Palopó	9	San Antonio Palopo	8	Agosto	2023-08-23T00:00:00	2024-11-08T10:00:00	5	Humedad	67
3077	7	Sololá	712	San Antonio Palopó	9	San Antonio Palopo	8	Agosto	2023-08-23T00:00:00	2024-11-08T10:00:00	6	Velocidad del viento	3.2
3078	7	Sololá	712	San Antonio Palopó	9	San Antonio Palopo	8	Agosto	2023-08-23T00:00:00	2024-11-08T10:00:00	7	Dirección del viento	3.22
3079	7	Sololá	712	San Antonio Palopó	9	San Antonio Palopo	8	Agosto	2023-08-23T00:00:00	2024-11-08T10:00:00	1	Precipitación	0
3080	7	Sololá	712	San Antonio Palopó	9	San Antonio Palopo	8	Agosto	2023-08-23T00:00:00	2024-11-08T10:00:00	8	Radiación solar	645
3081	7	Sololá	712	San Antonio Palopó	9	San Antonio Palopo	8	Agosto	2023-08-23T00:00:00	2024-11-08T11:00:00	2	Temperatura media	22.9
3082	7	Sololá	712	San Antonio Palopó	9	San Antonio Palopo	8	Agosto	2023-08-23T00:00:00	2024-11-08T11:00:00	4	Temperatura máxima	22.9
3083	7	Sololá	712	San Antonio Palopó	9	San Antonio Palopo	8	Agosto	2023-08-23T00:00:00	2024-11-08T11:00:00	3	Temperatura mínima	21.7
3084	7	Sololá	712	San Antonio Palopó	9	San Antonio Palopo	8	Agosto	2023-08-23T00:00:00	2024-11-08T11:00:00	5	Humedad	67
3085	7	Sololá	712	San Antonio Palopó	9	San Antonio Palopo	8	Agosto	2023-08-23T00:00:00	2024-11-08T11:00:00	6	Velocidad del viento	3.2
3086	7	Sololá	712	San Antonio Palopó	9	San Antonio Palopo	8	Agosto	2023-08-23T00:00:00	2024-11-08T11:00:00	7	Dirección del viento	3.22
3087	7	Sololá	712	San Antonio Palopó	9	San Antonio Palopo	8	Agosto	2023-08-23T00:00:00	2024-11-08T11:00:00	1	Precipitación	0
3088	7	Sololá	712	San Antonio Palopó	9	San Antonio Palopo	8	Agosto	2023-08-23T00:00:00	2024-11-08T11:00:00	8	Radiación solar	461
3089	7	Sololá	712	San Antonio Palopó	9	San Antonio Palopo	8	Agosto	2023-08-23T00:00:00	2024-11-08T12:00:00	2	Temperatura media	23
3090	7	Sololá	712	San Antonio Palopó	9	San Antonio Palopo	8	Agosto	2023-08-23T00:00:00	2024-11-08T12:00:00	4	Temperatura máxima	23.7
3091	7	Sololá	712	San Antonio Palopó	9	San Antonio Palopo	8	Agosto	2023-08-23T00:00:00	2024-11-08T12:00:00	3	Temperatura mínima	22.9
3092	7	Sololá	712	San Antonio Palopó	9	San Antonio Palopo	8	Agosto	2023-08-23T00:00:00	2024-11-08T12:00:00	5	Humedad	72
3093	7	Sololá	712	San Antonio Palopó	9	San Antonio Palopo	8	Agosto	2023-08-23T00:00:00	2024-11-08T12:00:00	6	Velocidad del viento	3.2
3094	7	Sololá	712	San Antonio Palopó	9	San Antonio Palopo	8	Agosto	2023-08-23T00:00:00	2024-11-08T12:00:00	7	Dirección del viento	3.22
3095	7	Sololá	712	San Antonio Palopó	9	San Antonio Palopo	8	Agosto	2023-08-23T00:00:00	2024-11-08T12:00:00	1	Precipitación	0
3096	7	Sololá	712	San Antonio Palopó	9	San Antonio Palopo	8	Agosto	2023-08-23T00:00:00	2024-11-08T12:00:00	8	Radiación solar	534
3097	7	Sololá	712	San Antonio Palopó	9	San Antonio Palopo	8	Agosto	2023-08-23T00:00:00	2024-11-08T13:00:00	2	Temperatura media	23.2
3098	7	Sololá	712	San Antonio Palopó	9	San Antonio Palopo	8	Agosto	2023-08-23T00:00:00	2024-11-08T13:00:00	4	Temperatura máxima	23.6
3099	7	Sololá	712	San Antonio Palopó	9	San Antonio Palopo	8	Agosto	2023-08-23T00:00:00	2024-11-08T13:00:00	3	Temperatura mínima	22.7
3100	7	Sololá	712	San Antonio Palopó	9	San Antonio Palopo	8	Agosto	2023-08-23T00:00:00	2024-11-08T13:00:00	5	Humedad	72
3101	7	Sololá	712	San Antonio Palopó	9	San Antonio Palopo	8	Agosto	2023-08-23T00:00:00	2024-11-08T13:00:00	6	Velocidad del viento	4.8
3102	7	Sololá	712	San Antonio Palopó	9	San Antonio Palopo	8	Agosto	2023-08-23T00:00:00	2024-11-08T13:00:00	7	Dirección del viento	4.83
3103	7	Sololá	712	San Antonio Palopó	9	San Antonio Palopo	8	Agosto	2023-08-23T00:00:00	2024-11-08T13:00:00	1	Precipitación	0
3104	7	Sololá	712	San Antonio Palopó	9	San Antonio Palopo	8	Agosto	2023-08-23T00:00:00	2024-11-08T13:00:00	8	Radiación solar	515
3105	7	Sololá	712	San Antonio Palopó	9	San Antonio Palopo	8	Agosto	2023-08-23T00:00:00	2024-11-08T14:00:00	2	Temperatura media	22.8
3106	7	Sololá	712	San Antonio Palopó	9	San Antonio Palopo	8	Agosto	2023-08-23T00:00:00	2024-11-08T14:00:00	4	Temperatura máxima	23.9
3107	7	Sololá	712	San Antonio Palopó	9	San Antonio Palopo	8	Agosto	2023-08-23T00:00:00	2024-11-08T14:00:00	3	Temperatura mínima	22.6
3108	7	Sololá	712	San Antonio Palopó	9	San Antonio Palopo	8	Agosto	2023-08-23T00:00:00	2024-11-08T14:00:00	5	Humedad	76
3109	7	Sololá	712	San Antonio Palopó	9	San Antonio Palopo	8	Agosto	2023-08-23T00:00:00	2024-11-08T14:00:00	6	Velocidad del viento	4.8
3110	7	Sololá	712	San Antonio Palopó	9	San Antonio Palopo	8	Agosto	2023-08-23T00:00:00	2024-11-08T14:00:00	7	Dirección del viento	4.83
3111	7	Sololá	712	San Antonio Palopó	9	San Antonio Palopo	8	Agosto	2023-08-23T00:00:00	2024-11-08T14:00:00	1	Precipitación	0
3112	7	Sololá	712	San Antonio Palopó	9	San Antonio Palopo	8	Agosto	2023-08-23T00:00:00	2024-11-08T14:00:00	8	Radiación solar	509
3113	7	Sololá	712	San Antonio Palopó	9	San Antonio Palopo	8	Agosto	2023-08-23T00:00:00	2024-11-08T15:00:00	2	Temperatura media	22.8
3114	7	Sololá	712	San Antonio Palopó	9	San Antonio Palopo	8	Agosto	2023-08-23T00:00:00	2024-11-08T15:00:00	4	Temperatura máxima	23.2
3115	7	Sololá	712	San Antonio Palopó	9	San Antonio Palopo	8	Agosto	2023-08-23T00:00:00	2024-11-08T15:00:00	3	Temperatura mínima	22.6
3116	7	Sololá	712	San Antonio Palopó	9	San Antonio Palopo	8	Agosto	2023-08-23T00:00:00	2024-11-08T15:00:00	5	Humedad	73
3117	7	Sololá	712	San Antonio Palopó	9	San Antonio Palopo	8	Agosto	2023-08-23T00:00:00	2024-11-08T15:00:00	6	Velocidad del viento	4.8
3118	7	Sololá	712	San Antonio Palopó	9	San Antonio Palopo	8	Agosto	2023-08-23T00:00:00	2024-11-08T15:00:00	7	Dirección del viento	4.83
3119	7	Sololá	712	San Antonio Palopó	9	San Antonio Palopo	8	Agosto	2023-08-23T00:00:00	2024-11-08T15:00:00	1	Precipitación	0
3120	7	Sololá	712	San Antonio Palopó	9	San Antonio Palopo	8	Agosto	2023-08-23T00:00:00	2024-11-08T15:00:00	8	Radiación solar	367
3121	7	Sololá	712	San Antonio Palopó	9	San Antonio Palopo	8	Agosto	2023-08-23T00:00:00	2024-11-08T16:00:00	2	Temperatura media	23.1
3122	7	Sololá	712	San Antonio Palopó	9	San Antonio Palopo	8	Agosto	2023-08-23T00:00:00	2024-11-08T16:00:00	4	Temperatura máxima	23.7
3123	7	Sololá	712	San Antonio Palopó	9	San Antonio Palopo	8	Agosto	2023-08-23T00:00:00	2024-11-08T16:00:00	3	Temperatura mínima	22.6
3124	7	Sololá	712	San Antonio Palopó	9	San Antonio Palopo	8	Agosto	2023-08-23T00:00:00	2024-11-08T16:00:00	5	Humedad	73
3125	7	Sololá	712	San Antonio Palopó	9	San Antonio Palopo	8	Agosto	2023-08-23T00:00:00	2024-11-08T16:00:00	6	Velocidad del viento	1.6
3126	7	Sololá	712	San Antonio Palopó	9	San Antonio Palopo	8	Agosto	2023-08-23T00:00:00	2024-11-08T16:00:00	7	Dirección del viento	1.61
3127	7	Sololá	712	San Antonio Palopó	9	San Antonio Palopo	8	Agosto	2023-08-23T00:00:00	2024-11-08T16:00:00	1	Precipitación	0
3128	7	Sololá	712	San Antonio Palopó	9	San Antonio Palopo	8	Agosto	2023-08-23T00:00:00	2024-11-08T16:00:00	8	Radiación solar	270
3129	7	Sololá	712	San Antonio Palopó	9	San Antonio Palopo	8	Agosto	2023-08-23T00:00:00	2024-11-08T17:00:00	2	Temperatura media	21.8
3130	7	Sololá	712	San Antonio Palopó	9	San Antonio Palopo	8	Agosto	2023-08-23T00:00:00	2024-11-08T17:00:00	4	Temperatura máxima	23.1
3131	7	Sololá	712	San Antonio Palopó	9	San Antonio Palopo	8	Agosto	2023-08-23T00:00:00	2024-11-08T17:00:00	3	Temperatura mínima	21.8
3132	7	Sololá	712	San Antonio Palopó	9	San Antonio Palopo	8	Agosto	2023-08-23T00:00:00	2024-11-08T17:00:00	5	Humedad	75
3133	7	Sololá	712	San Antonio Palopó	9	San Antonio Palopo	8	Agosto	2023-08-23T00:00:00	2024-11-08T17:00:00	6	Velocidad del viento	3.2
3134	7	Sololá	712	San Antonio Palopó	9	San Antonio Palopo	8	Agosto	2023-08-23T00:00:00	2024-11-08T17:00:00	7	Dirección del viento	3.22
3135	7	Sololá	712	San Antonio Palopó	9	San Antonio Palopo	8	Agosto	2023-08-23T00:00:00	2024-11-08T17:00:00	1	Precipitación	0
3136	7	Sololá	712	San Antonio Palopó	9	San Antonio Palopo	8	Agosto	2023-08-23T00:00:00	2024-11-08T17:00:00	8	Radiación solar	160
3137	7	Sololá	712	San Antonio Palopó	9	San Antonio Palopo	8	Agosto	2023-08-23T00:00:00	2024-11-08T18:00:00	2	Temperatura media	21.4
3138	7	Sololá	712	San Antonio Palopó	9	San Antonio Palopo	8	Agosto	2023-08-23T00:00:00	2024-11-08T18:00:00	4	Temperatura máxima	21.9
3139	7	Sololá	712	San Antonio Palopó	9	San Antonio Palopo	8	Agosto	2023-08-23T00:00:00	2024-11-08T18:00:00	3	Temperatura mínima	21.2
3140	7	Sololá	712	San Antonio Palopó	9	San Antonio Palopo	8	Agosto	2023-08-23T00:00:00	2024-11-08T18:00:00	5	Humedad	78
3141	7	Sololá	712	San Antonio Palopó	9	San Antonio Palopo	8	Agosto	2023-08-23T00:00:00	2024-11-08T18:00:00	6	Velocidad del viento	3.2
3142	7	Sololá	712	San Antonio Palopó	9	San Antonio Palopo	8	Agosto	2023-08-23T00:00:00	2024-11-08T18:00:00	7	Dirección del viento	3.22
3143	7	Sololá	712	San Antonio Palopó	9	San Antonio Palopo	8	Agosto	2023-08-23T00:00:00	2024-11-08T18:00:00	1	Precipitación	0
3144	7	Sololá	712	San Antonio Palopó	9	San Antonio Palopo	8	Agosto	2023-08-23T00:00:00	2024-11-08T18:00:00	8	Radiación solar	57
3145	7	Sololá	712	San Antonio Palopó	9	San Antonio Palopo	8	Agosto	2023-08-23T00:00:00	2024-11-08T19:00:00	2	Temperatura media	20.6
3146	7	Sololá	712	San Antonio Palopó	9	San Antonio Palopo	8	Agosto	2023-08-23T00:00:00	2024-11-08T19:00:00	4	Temperatura máxima	21.5
3147	7	Sololá	712	San Antonio Palopó	9	San Antonio Palopo	8	Agosto	2023-08-23T00:00:00	2024-11-08T19:00:00	3	Temperatura mínima	20.6
3148	7	Sololá	712	San Antonio Palopó	9	San Antonio Palopo	8	Agosto	2023-08-23T00:00:00	2024-11-08T19:00:00	5	Humedad	78
3149	7	Sololá	712	San Antonio Palopó	9	San Antonio Palopo	8	Agosto	2023-08-23T00:00:00	2024-11-08T19:00:00	6	Velocidad del viento	1.6
3150	7	Sololá	712	San Antonio Palopó	9	San Antonio Palopo	8	Agosto	2023-08-23T00:00:00	2024-11-08T19:00:00	7	Dirección del viento	1.61
3151	7	Sololá	712	San Antonio Palopó	9	San Antonio Palopo	8	Agosto	2023-08-23T00:00:00	2024-11-08T19:00:00	1	Precipitación	0
3152	7	Sololá	712	San Antonio Palopó	9	San Antonio Palopo	8	Agosto	2023-08-23T00:00:00	2024-11-08T19:00:00	8	Radiación solar	0
3153	7	Sololá	712	San Antonio Palopó	9	San Antonio Palopo	8	Agosto	2023-08-23T00:00:00	2024-11-08T20:00:00	2	Temperatura media	19.6
3154	7	Sololá	712	San Antonio Palopó	9	San Antonio Palopo	8	Agosto	2023-08-23T00:00:00	2024-11-08T20:00:00	4	Temperatura máxima	20.6
3155	7	Sololá	712	San Antonio Palopó	9	San Antonio Palopo	8	Agosto	2023-08-23T00:00:00	2024-11-08T20:00:00	3	Temperatura mínima	19.6
3156	7	Sololá	712	San Antonio Palopó	9	San Antonio Palopo	8	Agosto	2023-08-23T00:00:00	2024-11-08T20:00:00	5	Humedad	80
3157	7	Sololá	712	San Antonio Palopó	9	San Antonio Palopo	8	Agosto	2023-08-23T00:00:00	2024-11-08T20:00:00	6	Velocidad del viento	1.6
3158	7	Sololá	712	San Antonio Palopó	9	San Antonio Palopo	8	Agosto	2023-08-23T00:00:00	2024-11-08T20:00:00	7	Dirección del viento	1.61
3159	7	Sololá	712	San Antonio Palopó	9	San Antonio Palopo	8	Agosto	2023-08-23T00:00:00	2024-11-08T20:00:00	1	Precipitación	0
3160	7	Sololá	712	San Antonio Palopó	9	San Antonio Palopo	8	Agosto	2023-08-23T00:00:00	2024-11-08T20:00:00	8	Radiación solar	0
3161	7	Sololá	712	San Antonio Palopó	9	San Antonio Palopo	8	Agosto	2023-08-23T00:00:00	2024-11-08T21:00:00	2	Temperatura media	20.7
3162	7	Sololá	712	San Antonio Palopó	9	San Antonio Palopo	8	Agosto	2023-08-23T00:00:00	2024-11-08T21:00:00	4	Temperatura máxima	20.7
3163	7	Sololá	712	San Antonio Palopó	9	San Antonio Palopo	8	Agosto	2023-08-23T00:00:00	2024-11-08T21:00:00	3	Temperatura mínima	19.6
3164	7	Sololá	712	San Antonio Palopó	9	San Antonio Palopo	8	Agosto	2023-08-23T00:00:00	2024-11-08T21:00:00	5	Humedad	72
3165	7	Sololá	712	San Antonio Palopó	9	San Antonio Palopo	8	Agosto	2023-08-23T00:00:00	2024-11-08T21:00:00	6	Velocidad del viento	3.2
3166	7	Sololá	712	San Antonio Palopó	9	San Antonio Palopo	8	Agosto	2023-08-23T00:00:00	2024-11-08T21:00:00	7	Dirección del viento	3.22
3167	7	Sololá	712	San Antonio Palopó	9	San Antonio Palopo	8	Agosto	2023-08-23T00:00:00	2024-11-08T21:00:00	1	Precipitación	0
3168	7	Sololá	712	San Antonio Palopó	9	San Antonio Palopo	8	Agosto	2023-08-23T00:00:00	2024-11-08T21:00:00	8	Radiación solar	0
3169	7	Sololá	712	San Antonio Palopó	9	San Antonio Palopo	8	Agosto	2023-08-23T00:00:00	2024-11-08T22:00:00	2	Temperatura media	20.4
3170	7	Sololá	712	San Antonio Palopó	9	San Antonio Palopo	8	Agosto	2023-08-23T00:00:00	2024-11-08T22:00:00	4	Temperatura máxima	20.7
3171	7	Sololá	712	San Antonio Palopó	9	San Antonio Palopo	8	Agosto	2023-08-23T00:00:00	2024-11-08T22:00:00	3	Temperatura mínima	20.2
3172	7	Sololá	712	San Antonio Palopó	9	San Antonio Palopo	8	Agosto	2023-08-23T00:00:00	2024-11-08T22:00:00	5	Humedad	73
3173	7	Sololá	712	San Antonio Palopó	9	San Antonio Palopo	8	Agosto	2023-08-23T00:00:00	2024-11-08T22:00:00	6	Velocidad del viento	4.8
3174	7	Sololá	712	San Antonio Palopó	9	San Antonio Palopo	8	Agosto	2023-08-23T00:00:00	2024-11-08T22:00:00	7	Dirección del viento	4.83
3175	7	Sololá	712	San Antonio Palopó	9	San Antonio Palopo	8	Agosto	2023-08-23T00:00:00	2024-11-08T22:00:00	1	Precipitación	0
3176	7	Sololá	712	San Antonio Palopó	9	San Antonio Palopo	8	Agosto	2023-08-23T00:00:00	2024-11-08T22:00:00	8	Radiación solar	0
3177	7	Sololá	712	San Antonio Palopó	9	San Antonio Palopo	8	Agosto	2023-08-23T00:00:00	2024-11-08T23:00:00	2	Temperatura media	20
3178	7	Sololá	712	San Antonio Palopó	9	San Antonio Palopo	8	Agosto	2023-08-23T00:00:00	2024-11-08T23:00:00	4	Temperatura máxima	20.4
3179	7	Sololá	712	San Antonio Palopó	9	San Antonio Palopo	8	Agosto	2023-08-23T00:00:00	2024-11-08T23:00:00	3	Temperatura mínima	19.9
3180	7	Sololá	712	San Antonio Palopó	9	San Antonio Palopo	8	Agosto	2023-08-23T00:00:00	2024-11-08T23:00:00	5	Humedad	73
3181	7	Sololá	712	San Antonio Palopó	9	San Antonio Palopo	8	Agosto	2023-08-23T00:00:00	2024-11-08T23:00:00	6	Velocidad del viento	1.6
3182	7	Sololá	712	San Antonio Palopó	9	San Antonio Palopo	8	Agosto	2023-08-23T00:00:00	2024-11-08T23:00:00	7	Dirección del viento	1.61
3183	7	Sololá	712	San Antonio Palopó	9	San Antonio Palopo	8	Agosto	2023-08-23T00:00:00	2024-11-08T23:00:00	1	Precipitación	0
3184	7	Sololá	712	San Antonio Palopó	9	San Antonio Palopo	8	Agosto	2023-08-23T00:00:00	2024-11-08T23:00:00	8	Radiación solar	0
3185	7	Sololá	712	San Antonio Palopó	9	San Antonio Palopo	8	Agosto	2023-08-24T00:00:00	2024-11-08T00:00:00	2	Temperatura media	20.6
3186	7	Sololá	712	San Antonio Palopó	9	San Antonio Palopo	8	Agosto	2023-08-24T00:00:00	2024-11-08T00:00:00	4	Temperatura máxima	20.6
3187	7	Sololá	712	San Antonio Palopó	9	San Antonio Palopo	8	Agosto	2023-08-24T00:00:00	2024-11-08T00:00:00	3	Temperatura mínima	19.9
3188	7	Sololá	712	San Antonio Palopó	9	San Antonio Palopo	8	Agosto	2023-08-24T00:00:00	2024-11-08T00:00:00	5	Humedad	70
3189	7	Sololá	712	San Antonio Palopó	9	San Antonio Palopo	8	Agosto	2023-08-24T00:00:00	2024-11-08T00:00:00	6	Velocidad del viento	3.2
3190	7	Sololá	712	San Antonio Palopó	9	San Antonio Palopo	8	Agosto	2023-08-24T00:00:00	2024-11-08T00:00:00	7	Dirección del viento	3.22
3191	7	Sololá	712	San Antonio Palopó	9	San Antonio Palopo	8	Agosto	2023-08-24T00:00:00	2024-11-08T00:00:00	1	Precipitación	0
3192	7	Sololá	712	San Antonio Palopó	9	San Antonio Palopo	8	Agosto	2023-08-24T00:00:00	2024-11-08T00:00:00	8	Radiación solar	0
3193	7	Sololá	712	San Antonio Palopó	9	San Antonio Palopo	8	Agosto	2023-08-24T00:00:00	2024-11-08T01:00:00	2	Temperatura media	19.9
3194	7	Sololá	712	San Antonio Palopó	9	San Antonio Palopo	8	Agosto	2023-08-24T00:00:00	2024-11-08T01:00:00	4	Temperatura máxima	20.5
3195	7	Sololá	712	San Antonio Palopó	9	San Antonio Palopo	8	Agosto	2023-08-24T00:00:00	2024-11-08T01:00:00	3	Temperatura mínima	19.8
3196	7	Sololá	712	San Antonio Palopó	9	San Antonio Palopo	8	Agosto	2023-08-24T00:00:00	2024-11-08T01:00:00	5	Humedad	71
3197	7	Sololá	712	San Antonio Palopó	9	San Antonio Palopo	8	Agosto	2023-08-24T00:00:00	2024-11-08T01:00:00	6	Velocidad del viento	8
3198	7	Sololá	712	San Antonio Palopó	9	San Antonio Palopo	8	Agosto	2023-08-24T00:00:00	2024-11-08T01:00:00	7	Dirección del viento	8.05
3199	7	Sololá	712	San Antonio Palopó	9	San Antonio Palopo	8	Agosto	2023-08-24T00:00:00	2024-11-08T01:00:00	1	Precipitación	0
3200	7	Sololá	712	San Antonio Palopó	9	San Antonio Palopo	8	Agosto	2023-08-24T00:00:00	2024-11-08T01:00:00	8	Radiación solar	0
3201	7	Sololá	712	San Antonio Palopó	9	San Antonio Palopo	8	Agosto	2023-08-24T00:00:00	2024-11-08T02:00:00	2	Temperatura media	19.6
3202	7	Sololá	712	San Antonio Palopó	9	San Antonio Palopo	8	Agosto	2023-08-24T00:00:00	2024-11-08T02:00:00	4	Temperatura máxima	20
3203	7	Sololá	712	San Antonio Palopó	9	San Antonio Palopo	8	Agosto	2023-08-24T00:00:00	2024-11-08T02:00:00	3	Temperatura mínima	19.6
3204	7	Sololá	712	San Antonio Palopó	9	San Antonio Palopo	8	Agosto	2023-08-24T00:00:00	2024-11-08T02:00:00	5	Humedad	72
3205	7	Sololá	712	San Antonio Palopó	9	San Antonio Palopo	8	Agosto	2023-08-24T00:00:00	2024-11-08T02:00:00	6	Velocidad del viento	9.7
3206	7	Sololá	712	San Antonio Palopó	9	San Antonio Palopo	8	Agosto	2023-08-24T00:00:00	2024-11-08T02:00:00	7	Dirección del viento	9.66
3207	7	Sololá	712	San Antonio Palopó	9	San Antonio Palopo	8	Agosto	2023-08-24T00:00:00	2024-11-08T02:00:00	1	Precipitación	0
3208	7	Sololá	712	San Antonio Palopó	9	San Antonio Palopo	8	Agosto	2023-08-24T00:00:00	2024-11-08T02:00:00	8	Radiación solar	0
3209	7	Sololá	712	San Antonio Palopó	9	San Antonio Palopo	8	Agosto	2023-08-24T00:00:00	2024-11-08T03:00:00	2	Temperatura media	19.6
3210	7	Sololá	712	San Antonio Palopó	9	San Antonio Palopo	8	Agosto	2023-08-24T00:00:00	2024-11-08T03:00:00	4	Temperatura máxima	19.6
3211	7	Sololá	712	San Antonio Palopó	9	San Antonio Palopo	8	Agosto	2023-08-24T00:00:00	2024-11-08T03:00:00	3	Temperatura mínima	19.3
3212	7	Sololá	712	San Antonio Palopó	9	San Antonio Palopo	8	Agosto	2023-08-24T00:00:00	2024-11-08T03:00:00	5	Humedad	72
3213	7	Sololá	712	San Antonio Palopó	9	San Antonio Palopo	8	Agosto	2023-08-24T00:00:00	2024-11-08T03:00:00	6	Velocidad del viento	4.8
3214	7	Sololá	712	San Antonio Palopó	9	San Antonio Palopo	8	Agosto	2023-08-24T00:00:00	2024-11-08T03:00:00	7	Dirección del viento	4.83
3215	7	Sololá	712	San Antonio Palopó	9	San Antonio Palopo	8	Agosto	2023-08-24T00:00:00	2024-11-08T03:00:00	1	Precipitación	0
3216	7	Sololá	712	San Antonio Palopó	9	San Antonio Palopo	8	Agosto	2023-08-24T00:00:00	2024-11-08T03:00:00	8	Radiación solar	0
3217	7	Sololá	712	San Antonio Palopó	9	San Antonio Palopo	8	Agosto	2023-08-24T00:00:00	2024-11-08T04:00:00	2	Temperatura media	18.8
3218	7	Sololá	712	San Antonio Palopó	9	San Antonio Palopo	8	Agosto	2023-08-24T00:00:00	2024-11-08T04:00:00	4	Temperatura máxima	19.6
3219	7	Sololá	712	San Antonio Palopó	9	San Antonio Palopo	8	Agosto	2023-08-24T00:00:00	2024-11-08T04:00:00	3	Temperatura mínima	18.8
3220	7	Sololá	712	San Antonio Palopó	9	San Antonio Palopo	8	Agosto	2023-08-24T00:00:00	2024-11-08T04:00:00	5	Humedad	75
3221	7	Sololá	712	San Antonio Palopó	9	San Antonio Palopo	8	Agosto	2023-08-24T00:00:00	2024-11-08T04:00:00	6	Velocidad del viento	3.2
3222	7	Sololá	712	San Antonio Palopó	9	San Antonio Palopo	8	Agosto	2023-08-24T00:00:00	2024-11-08T04:00:00	7	Dirección del viento	3.22
3223	7	Sololá	712	San Antonio Palopó	9	San Antonio Palopo	8	Agosto	2023-08-24T00:00:00	2024-11-08T04:00:00	1	Precipitación	0
3224	7	Sololá	712	San Antonio Palopó	9	San Antonio Palopo	8	Agosto	2023-08-24T00:00:00	2024-11-08T04:00:00	8	Radiación solar	0
3225	7	Sololá	712	San Antonio Palopó	9	San Antonio Palopo	8	Agosto	2023-08-24T00:00:00	2024-11-08T05:00:00	2	Temperatura media	18.7
3226	7	Sololá	712	San Antonio Palopó	9	San Antonio Palopo	8	Agosto	2023-08-24T00:00:00	2024-11-08T05:00:00	4	Temperatura máxima	18.9
3227	7	Sololá	712	San Antonio Palopó	9	San Antonio Palopo	8	Agosto	2023-08-24T00:00:00	2024-11-08T05:00:00	3	Temperatura mínima	18.6
3228	7	Sololá	712	San Antonio Palopó	9	San Antonio Palopo	8	Agosto	2023-08-24T00:00:00	2024-11-08T05:00:00	5	Humedad	76
3229	7	Sololá	712	San Antonio Palopó	9	San Antonio Palopo	8	Agosto	2023-08-24T00:00:00	2024-11-08T05:00:00	6	Velocidad del viento	4.8
3230	7	Sololá	712	San Antonio Palopó	9	San Antonio Palopo	8	Agosto	2023-08-24T00:00:00	2024-11-08T05:00:00	7	Dirección del viento	4.83
3231	7	Sololá	712	San Antonio Palopó	9	San Antonio Palopo	8	Agosto	2023-08-24T00:00:00	2024-11-08T05:00:00	1	Precipitación	0
3232	7	Sololá	712	San Antonio Palopó	9	San Antonio Palopo	8	Agosto	2023-08-24T00:00:00	2024-11-08T05:00:00	8	Radiación solar	0
3233	7	Sololá	712	San Antonio Palopó	9	San Antonio Palopo	8	Agosto	2023-08-24T00:00:00	2024-11-08T06:00:00	2	Temperatura media	18.6
3234	7	Sololá	712	San Antonio Palopó	9	San Antonio Palopo	8	Agosto	2023-08-24T00:00:00	2024-11-08T06:00:00	4	Temperatura máxima	18.9
3235	7	Sololá	712	San Antonio Palopó	9	San Antonio Palopo	8	Agosto	2023-08-24T00:00:00	2024-11-08T06:00:00	3	Temperatura mínima	18.6
3236	7	Sololá	712	San Antonio Palopó	9	San Antonio Palopo	8	Agosto	2023-08-24T00:00:00	2024-11-08T06:00:00	5	Humedad	76
3237	7	Sololá	712	San Antonio Palopó	9	San Antonio Palopo	8	Agosto	2023-08-24T00:00:00	2024-11-08T06:00:00	6	Velocidad del viento	3.2
3238	7	Sololá	712	San Antonio Palopó	9	San Antonio Palopo	8	Agosto	2023-08-24T00:00:00	2024-11-08T06:00:00	7	Dirección del viento	3.22
3239	7	Sololá	712	San Antonio Palopó	9	San Antonio Palopo	8	Agosto	2023-08-24T00:00:00	2024-11-08T06:00:00	1	Precipitación	0
3240	7	Sololá	712	San Antonio Palopó	9	San Antonio Palopo	8	Agosto	2023-08-24T00:00:00	2024-11-08T06:00:00	8	Radiación solar	0
3241	7	Sololá	712	San Antonio Palopó	9	San Antonio Palopo	8	Agosto	2023-08-24T00:00:00	2024-11-08T07:00:00	2	Temperatura media	19.4
3242	7	Sololá	712	San Antonio Palopó	9	San Antonio Palopo	8	Agosto	2023-08-24T00:00:00	2024-11-08T07:00:00	4	Temperatura máxima	19.4
3243	7	Sololá	712	San Antonio Palopó	9	San Antonio Palopo	8	Agosto	2023-08-24T00:00:00	2024-11-08T07:00:00	3	Temperatura mínima	18.6
3244	7	Sololá	712	San Antonio Palopó	9	San Antonio Palopo	8	Agosto	2023-08-24T00:00:00	2024-11-08T07:00:00	5	Humedad	72
3245	7	Sololá	712	San Antonio Palopó	9	San Antonio Palopo	8	Agosto	2023-08-24T00:00:00	2024-11-08T07:00:00	6	Velocidad del viento	1.6
3246	7	Sololá	712	San Antonio Palopó	9	San Antonio Palopo	8	Agosto	2023-08-24T00:00:00	2024-11-08T07:00:00	7	Dirección del viento	1.61
3247	7	Sololá	712	San Antonio Palopó	9	San Antonio Palopo	8	Agosto	2023-08-24T00:00:00	2024-11-08T07:00:00	1	Precipitación	0
3248	7	Sololá	712	San Antonio Palopó	9	San Antonio Palopo	8	Agosto	2023-08-24T00:00:00	2024-11-08T07:00:00	8	Radiación solar	26
3249	7	Sololá	712	San Antonio Palopó	9	San Antonio Palopo	8	Agosto	2023-08-24T00:00:00	2024-11-08T08:00:00	2	Temperatura media	20.2
3250	7	Sololá	712	San Antonio Palopó	9	San Antonio Palopo	8	Agosto	2023-08-24T00:00:00	2024-11-08T08:00:00	4	Temperatura máxima	20.2
3251	7	Sololá	712	San Antonio Palopó	9	San Antonio Palopo	8	Agosto	2023-08-24T00:00:00	2024-11-08T08:00:00	3	Temperatura mínima	19.4
3252	7	Sololá	712	San Antonio Palopó	9	San Antonio Palopo	8	Agosto	2023-08-24T00:00:00	2024-11-08T08:00:00	5	Humedad	76
3253	7	Sololá	712	San Antonio Palopó	9	San Antonio Palopo	8	Agosto	2023-08-24T00:00:00	2024-11-08T08:00:00	6	Velocidad del viento	1.6
3254	7	Sololá	712	San Antonio Palopó	9	San Antonio Palopo	8	Agosto	2023-08-24T00:00:00	2024-11-08T08:00:00	7	Dirección del viento	1.61
3255	7	Sololá	712	San Antonio Palopó	9	San Antonio Palopo	8	Agosto	2023-08-24T00:00:00	2024-11-08T08:00:00	1	Precipitación	0
3256	7	Sololá	712	San Antonio Palopó	9	San Antonio Palopo	8	Agosto	2023-08-24T00:00:00	2024-11-08T08:00:00	8	Radiación solar	118
3257	7	Sololá	712	San Antonio Palopó	9	San Antonio Palopo	8	Agosto	2023-08-24T00:00:00	2024-11-08T09:00:00	2	Temperatura media	20.6
3258	7	Sololá	712	San Antonio Palopó	9	San Antonio Palopo	8	Agosto	2023-08-24T00:00:00	2024-11-08T09:00:00	4	Temperatura máxima	20.6
3259	7	Sololá	712	San Antonio Palopó	9	San Antonio Palopo	8	Agosto	2023-08-24T00:00:00	2024-11-08T09:00:00	3	Temperatura mínima	20.2
3260	7	Sololá	712	San Antonio Palopó	9	San Antonio Palopo	8	Agosto	2023-08-24T00:00:00	2024-11-08T09:00:00	5	Humedad	74
3261	7	Sololá	712	San Antonio Palopó	9	San Antonio Palopo	8	Agosto	2023-08-24T00:00:00	2024-11-08T09:00:00	6	Velocidad del viento	1.6
3262	7	Sololá	712	San Antonio Palopó	9	San Antonio Palopo	8	Agosto	2023-08-24T00:00:00	2024-11-08T09:00:00	7	Dirección del viento	1.61
3263	7	Sololá	712	San Antonio Palopó	9	San Antonio Palopo	8	Agosto	2023-08-24T00:00:00	2024-11-08T09:00:00	1	Precipitación	0
3264	7	Sololá	712	San Antonio Palopó	9	San Antonio Palopo	8	Agosto	2023-08-24T00:00:00	2024-11-08T09:00:00	8	Radiación solar	182
3265	7	Sololá	712	San Antonio Palopó	9	San Antonio Palopo	8	Agosto	2023-08-24T00:00:00	2024-11-08T10:00:00	2	Temperatura media	21.3
3266	7	Sololá	712	San Antonio Palopó	9	San Antonio Palopo	8	Agosto	2023-08-24T00:00:00	2024-11-08T10:00:00	4	Temperatura máxima	21.3
3267	7	Sololá	712	San Antonio Palopó	9	San Antonio Palopo	8	Agosto	2023-08-24T00:00:00	2024-11-08T10:00:00	3	Temperatura mínima	20.6
3268	7	Sololá	712	San Antonio Palopó	9	San Antonio Palopo	8	Agosto	2023-08-24T00:00:00	2024-11-08T10:00:00	5	Humedad	73
3269	7	Sololá	712	San Antonio Palopó	9	San Antonio Palopo	8	Agosto	2023-08-24T00:00:00	2024-11-08T10:00:00	6	Velocidad del viento	1.6
3270	7	Sololá	712	San Antonio Palopó	9	San Antonio Palopo	8	Agosto	2023-08-24T00:00:00	2024-11-08T10:00:00	7	Dirección del viento	1.61
3271	7	Sololá	712	San Antonio Palopó	9	San Antonio Palopo	8	Agosto	2023-08-24T00:00:00	2024-11-08T10:00:00	1	Precipitación	0
3272	7	Sololá	712	San Antonio Palopó	9	San Antonio Palopo	8	Agosto	2023-08-24T00:00:00	2024-11-08T10:00:00	8	Radiación solar	263
3273	7	Sololá	712	San Antonio Palopó	9	San Antonio Palopo	8	Agosto	2023-08-24T00:00:00	2024-11-08T11:00:00	2	Temperatura media	21.1
3274	7	Sololá	712	San Antonio Palopó	9	San Antonio Palopo	8	Agosto	2023-08-24T00:00:00	2024-11-08T11:00:00	4	Temperatura máxima	21.4
3275	7	Sololá	712	San Antonio Palopó	9	San Antonio Palopo	8	Agosto	2023-08-24T00:00:00	2024-11-08T11:00:00	3	Temperatura mínima	21
3276	7	Sololá	712	San Antonio Palopó	9	San Antonio Palopo	8	Agosto	2023-08-24T00:00:00	2024-11-08T11:00:00	5	Humedad	79
3277	7	Sololá	712	San Antonio Palopó	9	San Antonio Palopo	8	Agosto	2023-08-24T00:00:00	2024-11-08T11:00:00	6	Velocidad del viento	4.8
3278	7	Sololá	712	San Antonio Palopó	9	San Antonio Palopo	8	Agosto	2023-08-24T00:00:00	2024-11-08T11:00:00	7	Dirección del viento	4.83
3279	7	Sololá	712	San Antonio Palopó	9	San Antonio Palopo	8	Agosto	2023-08-24T00:00:00	2024-11-08T11:00:00	1	Precipitación	0
3280	7	Sololá	712	San Antonio Palopó	9	San Antonio Palopo	8	Agosto	2023-08-24T00:00:00	2024-11-08T11:00:00	8	Radiación solar	341
3281	7	Sololá	712	San Antonio Palopó	9	San Antonio Palopo	8	Agosto	2023-08-24T00:00:00	2024-11-08T12:00:00	2	Temperatura media	21.1
3282	7	Sololá	712	San Antonio Palopó	9	San Antonio Palopo	8	Agosto	2023-08-24T00:00:00	2024-11-08T12:00:00	4	Temperatura máxima	21.2
3283	7	Sololá	712	San Antonio Palopó	9	San Antonio Palopo	8	Agosto	2023-08-24T00:00:00	2024-11-08T12:00:00	3	Temperatura mínima	20.9
3284	7	Sololá	712	San Antonio Palopó	9	San Antonio Palopo	8	Agosto	2023-08-24T00:00:00	2024-11-08T12:00:00	5	Humedad	78
3285	7	Sololá	712	San Antonio Palopó	9	San Antonio Palopo	8	Agosto	2023-08-24T00:00:00	2024-11-08T12:00:00	6	Velocidad del viento	4.8
3286	7	Sololá	712	San Antonio Palopó	9	San Antonio Palopo	8	Agosto	2023-08-24T00:00:00	2024-11-08T12:00:00	7	Dirección del viento	4.83
3287	7	Sololá	712	San Antonio Palopó	9	San Antonio Palopo	8	Agosto	2023-08-24T00:00:00	2024-11-08T12:00:00	1	Precipitación	0
3288	7	Sololá	712	San Antonio Palopó	9	San Antonio Palopo	8	Agosto	2023-08-24T00:00:00	2024-11-08T12:00:00	8	Radiación solar	309
3289	7	Sololá	712	San Antonio Palopó	9	San Antonio Palopo	8	Agosto	2023-08-24T00:00:00	2024-11-08T13:00:00	2	Temperatura media	20.8
3290	7	Sololá	712	San Antonio Palopó	9	San Antonio Palopo	8	Agosto	2023-08-24T00:00:00	2024-11-08T13:00:00	4	Temperatura máxima	21.5
3291	7	Sololá	712	San Antonio Palopó	9	San Antonio Palopo	8	Agosto	2023-08-24T00:00:00	2024-11-08T13:00:00	3	Temperatura mínima	20.8
3292	7	Sololá	712	San Antonio Palopó	9	San Antonio Palopo	8	Agosto	2023-08-24T00:00:00	2024-11-08T13:00:00	5	Humedad	79
3293	7	Sololá	712	San Antonio Palopó	9	San Antonio Palopo	8	Agosto	2023-08-24T00:00:00	2024-11-08T13:00:00	6	Velocidad del viento	4.8
3294	7	Sololá	712	San Antonio Palopó	9	San Antonio Palopo	8	Agosto	2023-08-24T00:00:00	2024-11-08T13:00:00	7	Dirección del viento	4.83
3295	7	Sololá	712	San Antonio Palopó	9	San Antonio Palopo	8	Agosto	2023-08-24T00:00:00	2024-11-08T13:00:00	1	Precipitación	0
3296	7	Sololá	712	San Antonio Palopó	9	San Antonio Palopo	8	Agosto	2023-08-24T00:00:00	2024-11-08T13:00:00	8	Radiación solar	264
3297	7	Sololá	712	San Antonio Palopó	9	San Antonio Palopo	8	Agosto	2023-08-24T00:00:00	2024-11-08T14:00:00	2	Temperatura media	20.9
3298	7	Sololá	712	San Antonio Palopó	9	San Antonio Palopo	8	Agosto	2023-08-24T00:00:00	2024-11-08T14:00:00	4	Temperatura máxima	21
3299	7	Sololá	712	San Antonio Palopó	9	San Antonio Palopo	8	Agosto	2023-08-24T00:00:00	2024-11-08T14:00:00	3	Temperatura mínima	20.4
3300	7	Sololá	712	San Antonio Palopó	9	San Antonio Palopo	8	Agosto	2023-08-24T00:00:00	2024-11-08T14:00:00	5	Humedad	79
3301	7	Sololá	712	San Antonio Palopó	9	San Antonio Palopo	8	Agosto	2023-08-24T00:00:00	2024-11-08T14:00:00	6	Velocidad del viento	1.6
3302	7	Sololá	712	San Antonio Palopó	9	San Antonio Palopo	8	Agosto	2023-08-24T00:00:00	2024-11-08T14:00:00	7	Dirección del viento	1.61
3303	7	Sololá	712	San Antonio Palopó	9	San Antonio Palopo	8	Agosto	2023-08-24T00:00:00	2024-11-08T14:00:00	1	Precipitación	0.2
3304	7	Sololá	712	San Antonio Palopó	9	San Antonio Palopo	8	Agosto	2023-08-24T00:00:00	2024-11-08T14:00:00	8	Radiación solar	187
3305	7	Sololá	712	San Antonio Palopó	9	San Antonio Palopo	8	Agosto	2023-08-24T00:00:00	2024-11-08T15:00:00	2	Temperatura media	21.7
3306	7	Sololá	712	San Antonio Palopó	9	San Antonio Palopo	8	Agosto	2023-08-24T00:00:00	2024-11-08T15:00:00	4	Temperatura máxima	21.7
3307	7	Sololá	712	San Antonio Palopó	9	San Antonio Palopo	8	Agosto	2023-08-24T00:00:00	2024-11-08T15:00:00	3	Temperatura mínima	20.7
3308	7	Sololá	712	San Antonio Palopó	9	San Antonio Palopo	8	Agosto	2023-08-24T00:00:00	2024-11-08T15:00:00	5	Humedad	77
3309	7	Sololá	712	San Antonio Palopó	9	San Antonio Palopo	8	Agosto	2023-08-24T00:00:00	2024-11-08T15:00:00	6	Velocidad del viento	1.6
3310	7	Sololá	712	San Antonio Palopó	9	San Antonio Palopo	8	Agosto	2023-08-24T00:00:00	2024-11-08T15:00:00	7	Dirección del viento	1.61
3311	7	Sololá	712	San Antonio Palopó	9	San Antonio Palopo	8	Agosto	2023-08-24T00:00:00	2024-11-08T15:00:00	1	Precipitación	0.4
3312	7	Sololá	712	San Antonio Palopó	9	San Antonio Palopo	8	Agosto	2023-08-24T00:00:00	2024-11-08T15:00:00	8	Radiación solar	343
3313	7	Sololá	712	San Antonio Palopó	9	San Antonio Palopo	8	Agosto	2023-08-24T00:00:00	2024-11-08T16:00:00	2	Temperatura media	19.9
3314	7	Sololá	712	San Antonio Palopó	9	San Antonio Palopo	8	Agosto	2023-08-24T00:00:00	2024-11-08T16:00:00	4	Temperatura máxima	21.9
3315	7	Sololá	712	San Antonio Palopó	9	San Antonio Palopo	8	Agosto	2023-08-24T00:00:00	2024-11-08T16:00:00	3	Temperatura mínima	19.8
3316	7	Sololá	712	San Antonio Palopó	9	San Antonio Palopo	8	Agosto	2023-08-24T00:00:00	2024-11-08T16:00:00	5	Humedad	82
3317	7	Sololá	712	San Antonio Palopó	9	San Antonio Palopo	8	Agosto	2023-08-24T00:00:00	2024-11-08T16:00:00	6	Velocidad del viento	3.2
3318	7	Sololá	712	San Antonio Palopó	9	San Antonio Palopo	8	Agosto	2023-08-24T00:00:00	2024-11-08T16:00:00	7	Dirección del viento	3.22
3319	7	Sololá	712	San Antonio Palopó	9	San Antonio Palopo	8	Agosto	2023-08-24T00:00:00	2024-11-08T16:00:00	1	Precipitación	2
3320	7	Sololá	712	San Antonio Palopó	9	San Antonio Palopo	8	Agosto	2023-08-24T00:00:00	2024-11-08T16:00:00	8	Radiación solar	204
3321	7	Sololá	712	San Antonio Palopó	9	San Antonio Palopo	8	Agosto	2023-08-24T00:00:00	2024-11-08T17:00:00	2	Temperatura media	20.4
3322	7	Sololá	712	San Antonio Palopó	9	San Antonio Palopo	8	Agosto	2023-08-24T00:00:00	2024-11-08T17:00:00	4	Temperatura máxima	20.5
3323	7	Sololá	712	San Antonio Palopó	9	San Antonio Palopo	8	Agosto	2023-08-24T00:00:00	2024-11-08T17:00:00	3	Temperatura mínima	19.8
3324	7	Sololá	712	San Antonio Palopó	9	San Antonio Palopo	8	Agosto	2023-08-24T00:00:00	2024-11-08T17:00:00	5	Humedad	82
3325	7	Sololá	712	San Antonio Palopó	9	San Antonio Palopo	8	Agosto	2023-08-24T00:00:00	2024-11-08T17:00:00	6	Velocidad del viento	1.6
3326	7	Sololá	712	San Antonio Palopó	9	San Antonio Palopo	8	Agosto	2023-08-24T00:00:00	2024-11-08T17:00:00	7	Dirección del viento	1.61
3327	7	Sololá	712	San Antonio Palopó	9	San Antonio Palopo	8	Agosto	2023-08-24T00:00:00	2024-11-08T17:00:00	1	Precipitación	0
3328	7	Sololá	712	San Antonio Palopó	9	San Antonio Palopo	8	Agosto	2023-08-24T00:00:00	2024-11-08T17:00:00	8	Radiación solar	104
3329	7	Sololá	712	San Antonio Palopó	9	San Antonio Palopo	8	Agosto	2023-08-24T00:00:00	2024-11-08T18:00:00	2	Temperatura media	19.9
3330	7	Sololá	712	San Antonio Palopó	9	San Antonio Palopo	8	Agosto	2023-08-24T00:00:00	2024-11-08T18:00:00	4	Temperatura máxima	20.4
3331	7	Sololá	712	San Antonio Palopó	9	San Antonio Palopo	8	Agosto	2023-08-24T00:00:00	2024-11-08T18:00:00	3	Temperatura mínima	19.9
3332	7	Sololá	712	San Antonio Palopó	9	San Antonio Palopo	8	Agosto	2023-08-24T00:00:00	2024-11-08T18:00:00	5	Humedad	82
3333	7	Sololá	712	San Antonio Palopó	9	San Antonio Palopo	8	Agosto	2023-08-24T00:00:00	2024-11-08T18:00:00	6	Velocidad del viento	1.6
3334	7	Sololá	712	San Antonio Palopó	9	San Antonio Palopo	8	Agosto	2023-08-24T00:00:00	2024-11-08T18:00:00	7	Dirección del viento	1.61
3335	7	Sololá	712	San Antonio Palopó	9	San Antonio Palopo	8	Agosto	2023-08-24T00:00:00	2024-11-08T18:00:00	1	Precipitación	0
3336	7	Sololá	712	San Antonio Palopó	9	San Antonio Palopo	8	Agosto	2023-08-24T00:00:00	2024-11-08T18:00:00	8	Radiación solar	59
3337	7	Sololá	712	San Antonio Palopó	9	San Antonio Palopo	8	Agosto	2023-08-24T00:00:00	2024-11-08T19:00:00	2	Temperatura media	19.8
3338	7	Sololá	712	San Antonio Palopó	9	San Antonio Palopo	8	Agosto	2023-08-24T00:00:00	2024-11-08T19:00:00	4	Temperatura máxima	19.9
3339	7	Sololá	712	San Antonio Palopó	9	San Antonio Palopo	8	Agosto	2023-08-24T00:00:00	2024-11-08T19:00:00	3	Temperatura mínima	19.3
3340	7	Sololá	712	San Antonio Palopó	9	San Antonio Palopo	8	Agosto	2023-08-24T00:00:00	2024-11-08T19:00:00	5	Humedad	80
3341	7	Sololá	712	San Antonio Palopó	9	San Antonio Palopo	8	Agosto	2023-08-24T00:00:00	2024-11-08T19:00:00	6	Velocidad del viento	1.6
3342	7	Sololá	712	San Antonio Palopó	9	San Antonio Palopo	8	Agosto	2023-08-24T00:00:00	2024-11-08T19:00:00	7	Dirección del viento	1.61
3343	7	Sololá	712	San Antonio Palopó	9	San Antonio Palopo	8	Agosto	2023-08-24T00:00:00	2024-11-08T19:00:00	1	Precipitación	0
3344	7	Sololá	712	San Antonio Palopó	9	San Antonio Palopo	8	Agosto	2023-08-24T00:00:00	2024-11-08T19:00:00	8	Radiación solar	0
3345	7	Sololá	712	San Antonio Palopó	9	San Antonio Palopo	8	Agosto	2023-08-24T00:00:00	2024-11-08T20:00:00	2	Temperatura media	19.7
3346	7	Sololá	712	San Antonio Palopó	9	San Antonio Palopo	8	Agosto	2023-08-24T00:00:00	2024-11-08T20:00:00	4	Temperatura máxima	20.1
3347	7	Sololá	712	San Antonio Palopó	9	San Antonio Palopo	8	Agosto	2023-08-24T00:00:00	2024-11-08T20:00:00	3	Temperatura mínima	19.7
3348	7	Sololá	712	San Antonio Palopó	9	San Antonio Palopo	8	Agosto	2023-08-24T00:00:00	2024-11-08T20:00:00	5	Humedad	82
3349	7	Sololá	712	San Antonio Palopó	9	San Antonio Palopo	8	Agosto	2023-08-24T00:00:00	2024-11-08T20:00:00	6	Velocidad del viento	3.2
3350	7	Sololá	712	San Antonio Palopó	9	San Antonio Palopo	8	Agosto	2023-08-24T00:00:00	2024-11-08T20:00:00	7	Dirección del viento	3.22
3351	7	Sololá	712	San Antonio Palopó	9	San Antonio Palopo	8	Agosto	2023-08-24T00:00:00	2024-11-08T20:00:00	1	Precipitación	0
3352	7	Sololá	712	San Antonio Palopó	9	San Antonio Palopo	8	Agosto	2023-08-24T00:00:00	2024-11-08T20:00:00	8	Radiación solar	0
3353	7	Sololá	712	San Antonio Palopó	9	San Antonio Palopo	8	Agosto	2023-08-24T00:00:00	2024-11-08T21:00:00	2	Temperatura media	20.5
3354	7	Sololá	712	San Antonio Palopó	9	San Antonio Palopo	8	Agosto	2023-08-24T00:00:00	2024-11-08T21:00:00	4	Temperatura máxima	20.6
3355	7	Sololá	712	San Antonio Palopó	9	San Antonio Palopo	8	Agosto	2023-08-24T00:00:00	2024-11-08T21:00:00	3	Temperatura mínima	19.6
3356	7	Sololá	712	San Antonio Palopó	9	San Antonio Palopo	8	Agosto	2023-08-24T00:00:00	2024-11-08T21:00:00	5	Humedad	77
3357	7	Sololá	712	San Antonio Palopó	9	San Antonio Palopo	8	Agosto	2023-08-24T00:00:00	2024-11-08T21:00:00	6	Velocidad del viento	4.8
3358	7	Sololá	712	San Antonio Palopó	9	San Antonio Palopo	8	Agosto	2023-08-24T00:00:00	2024-11-08T21:00:00	7	Dirección del viento	4.83
3359	7	Sololá	712	San Antonio Palopó	9	San Antonio Palopo	8	Agosto	2023-08-24T00:00:00	2024-11-08T21:00:00	1	Precipitación	0
3360	7	Sololá	712	San Antonio Palopó	9	San Antonio Palopo	8	Agosto	2023-08-24T00:00:00	2024-11-08T21:00:00	8	Radiación solar	0
3361	7	Sololá	712	San Antonio Palopó	9	San Antonio Palopo	8	Agosto	2023-08-24T00:00:00	2024-11-08T22:00:00	2	Temperatura media	19.9
3362	7	Sololá	712	San Antonio Palopó	9	San Antonio Palopo	8	Agosto	2023-08-24T00:00:00	2024-11-08T22:00:00	4	Temperatura máxima	20.6
3363	7	Sololá	712	San Antonio Palopó	9	San Antonio Palopo	8	Agosto	2023-08-24T00:00:00	2024-11-08T22:00:00	3	Temperatura mínima	19.8
3364	7	Sololá	712	San Antonio Palopó	9	San Antonio Palopo	8	Agosto	2023-08-24T00:00:00	2024-11-08T22:00:00	5	Humedad	79
3365	7	Sololá	712	San Antonio Palopó	9	San Antonio Palopo	8	Agosto	2023-08-24T00:00:00	2024-11-08T22:00:00	6	Velocidad del viento	4.8
3366	7	Sololá	712	San Antonio Palopó	9	San Antonio Palopo	8	Agosto	2023-08-24T00:00:00	2024-11-08T22:00:00	7	Dirección del viento	4.83
3367	7	Sololá	712	San Antonio Palopó	9	San Antonio Palopo	8	Agosto	2023-08-24T00:00:00	2024-11-08T22:00:00	1	Precipitación	0
3368	7	Sololá	712	San Antonio Palopó	9	San Antonio Palopo	8	Agosto	2023-08-24T00:00:00	2024-11-08T22:00:00	8	Radiación solar	0
3369	7	Sololá	712	San Antonio Palopó	9	San Antonio Palopo	8	Agosto	2023-08-24T00:00:00	2024-11-08T23:00:00	2	Temperatura media	18.6
3370	7	Sololá	712	San Antonio Palopó	9	San Antonio Palopo	8	Agosto	2023-08-24T00:00:00	2024-11-08T23:00:00	4	Temperatura máxima	20
3371	7	Sololá	712	San Antonio Palopó	9	San Antonio Palopo	8	Agosto	2023-08-24T00:00:00	2024-11-08T23:00:00	3	Temperatura mínima	18.4
3372	7	Sololá	712	San Antonio Palopó	9	San Antonio Palopo	8	Agosto	2023-08-24T00:00:00	2024-11-08T23:00:00	5	Humedad	85
3373	7	Sololá	712	San Antonio Palopó	9	San Antonio Palopo	8	Agosto	2023-08-24T00:00:00	2024-11-08T23:00:00	6	Velocidad del viento	3.2
3374	7	Sololá	712	San Antonio Palopó	9	San Antonio Palopo	8	Agosto	2023-08-24T00:00:00	2024-11-08T23:00:00	7	Dirección del viento	3.22
3375	7	Sololá	712	San Antonio Palopó	9	San Antonio Palopo	8	Agosto	2023-08-24T00:00:00	2024-11-08T23:00:00	1	Precipitación	0
3376	7	Sololá	712	San Antonio Palopó	9	San Antonio Palopo	8	Agosto	2023-08-24T00:00:00	2024-11-08T23:00:00	8	Radiación solar	0
3377	7	Sololá	712	San Antonio Palopó	9	San Antonio Palopo	8	Agosto	2023-08-25T00:00:00	2024-11-08T00:00:00	2	Temperatura media	18.3
3378	7	Sololá	712	San Antonio Palopó	9	San Antonio Palopo	8	Agosto	2023-08-25T00:00:00	2024-11-08T00:00:00	4	Temperatura máxima	18.7
3379	7	Sololá	712	San Antonio Palopó	9	San Antonio Palopo	8	Agosto	2023-08-25T00:00:00	2024-11-08T00:00:00	3	Temperatura mínima	18.2
3380	7	Sololá	712	San Antonio Palopó	9	San Antonio Palopo	8	Agosto	2023-08-25T00:00:00	2024-11-08T00:00:00	5	Humedad	83
3381	7	Sololá	712	San Antonio Palopó	9	San Antonio Palopo	8	Agosto	2023-08-25T00:00:00	2024-11-08T00:00:00	6	Velocidad del viento	3.2
3382	7	Sololá	712	San Antonio Palopó	9	San Antonio Palopo	8	Agosto	2023-08-25T00:00:00	2024-11-08T00:00:00	7	Dirección del viento	3.22
3383	7	Sololá	712	San Antonio Palopó	9	San Antonio Palopo	8	Agosto	2023-08-25T00:00:00	2024-11-08T00:00:00	1	Precipitación	0
3384	7	Sololá	712	San Antonio Palopó	9	San Antonio Palopo	8	Agosto	2023-08-25T00:00:00	2024-11-08T00:00:00	8	Radiación solar	0
3385	7	Sololá	712	San Antonio Palopó	9	San Antonio Palopo	8	Agosto	2023-08-25T00:00:00	2024-11-08T01:00:00	2	Temperatura media	18.6
3386	7	Sololá	712	San Antonio Palopó	9	San Antonio Palopo	8	Agosto	2023-08-25T00:00:00	2024-11-08T01:00:00	4	Temperatura máxima	18.8
3387	7	Sololá	712	San Antonio Palopó	9	San Antonio Palopo	8	Agosto	2023-08-25T00:00:00	2024-11-08T01:00:00	3	Temperatura mínima	18.3
3388	7	Sololá	712	San Antonio Palopó	9	San Antonio Palopo	8	Agosto	2023-08-25T00:00:00	2024-11-08T01:00:00	5	Humedad	85
3389	7	Sololá	712	San Antonio Palopó	9	San Antonio Palopo	8	Agosto	2023-08-25T00:00:00	2024-11-08T01:00:00	6	Velocidad del viento	1.6
3390	7	Sololá	712	San Antonio Palopó	9	San Antonio Palopo	8	Agosto	2023-08-25T00:00:00	2024-11-08T01:00:00	7	Dirección del viento	1.61
3391	7	Sololá	712	San Antonio Palopó	9	San Antonio Palopo	8	Agosto	2023-08-25T00:00:00	2024-11-08T01:00:00	1	Precipitación	0
3392	7	Sololá	712	San Antonio Palopó	9	San Antonio Palopo	8	Agosto	2023-08-25T00:00:00	2024-11-08T01:00:00	8	Radiación solar	0
3393	7	Sololá	712	San Antonio Palopó	9	San Antonio Palopo	8	Agosto	2023-08-25T00:00:00	2024-11-08T02:00:00	2	Temperatura media	18.5
3394	7	Sololá	712	San Antonio Palopó	9	San Antonio Palopo	8	Agosto	2023-08-25T00:00:00	2024-11-08T02:00:00	4	Temperatura máxima	18.8
3395	7	Sololá	712	San Antonio Palopó	9	San Antonio Palopo	8	Agosto	2023-08-25T00:00:00	2024-11-08T02:00:00	3	Temperatura mínima	18.4
3396	7	Sololá	712	San Antonio Palopó	9	San Antonio Palopo	8	Agosto	2023-08-25T00:00:00	2024-11-08T02:00:00	5	Humedad	82
3397	7	Sololá	712	San Antonio Palopó	9	San Antonio Palopo	8	Agosto	2023-08-25T00:00:00	2024-11-08T02:00:00	6	Velocidad del viento	3.2
3398	7	Sololá	712	San Antonio Palopó	9	San Antonio Palopo	8	Agosto	2023-08-25T00:00:00	2024-11-08T02:00:00	7	Dirección del viento	3.22
3399	7	Sololá	712	San Antonio Palopó	9	San Antonio Palopo	8	Agosto	2023-08-25T00:00:00	2024-11-08T02:00:00	1	Precipitación	0
3400	7	Sololá	712	San Antonio Palopó	9	San Antonio Palopo	8	Agosto	2023-08-25T00:00:00	2024-11-08T02:00:00	8	Radiación solar	0
3401	7	Sololá	712	San Antonio Palopó	9	San Antonio Palopo	8	Agosto	2023-08-25T00:00:00	2024-11-08T03:00:00	2	Temperatura media	17.8
3402	7	Sololá	712	San Antonio Palopó	9	San Antonio Palopo	8	Agosto	2023-08-25T00:00:00	2024-11-08T03:00:00	4	Temperatura máxima	18.5
3403	7	Sololá	712	San Antonio Palopó	9	San Antonio Palopo	8	Agosto	2023-08-25T00:00:00	2024-11-08T03:00:00	3	Temperatura mínima	17.8
3404	7	Sololá	712	San Antonio Palopó	9	San Antonio Palopo	8	Agosto	2023-08-25T00:00:00	2024-11-08T03:00:00	5	Humedad	86
3405	7	Sololá	712	San Antonio Palopó	9	San Antonio Palopo	8	Agosto	2023-08-25T00:00:00	2024-11-08T03:00:00	6	Velocidad del viento	3.2
3406	7	Sololá	712	San Antonio Palopó	9	San Antonio Palopo	8	Agosto	2023-08-25T00:00:00	2024-11-08T03:00:00	7	Dirección del viento	3.22
3407	7	Sololá	712	San Antonio Palopó	9	San Antonio Palopo	8	Agosto	2023-08-25T00:00:00	2024-11-08T03:00:00	1	Precipitación	0
3408	7	Sololá	712	San Antonio Palopó	9	San Antonio Palopo	8	Agosto	2023-08-25T00:00:00	2024-11-08T03:00:00	8	Radiación solar	0
3409	7	Sololá	712	San Antonio Palopó	9	San Antonio Palopo	8	Agosto	2023-08-25T00:00:00	2024-11-08T04:00:00	2	Temperatura media	18.7
3410	7	Sololá	712	San Antonio Palopó	9	San Antonio Palopo	8	Agosto	2023-08-25T00:00:00	2024-11-08T04:00:00	4	Temperatura máxima	19.2
3411	7	Sololá	712	San Antonio Palopó	9	San Antonio Palopo	8	Agosto	2023-08-25T00:00:00	2024-11-08T04:00:00	3	Temperatura mínima	17.8
3412	7	Sololá	712	San Antonio Palopó	9	San Antonio Palopo	8	Agosto	2023-08-25T00:00:00	2024-11-08T04:00:00	5	Humedad	82
3413	7	Sololá	712	San Antonio Palopó	9	San Antonio Palopo	8	Agosto	2023-08-25T00:00:00	2024-11-08T04:00:00	6	Velocidad del viento	3.2
3414	7	Sololá	712	San Antonio Palopó	9	San Antonio Palopo	8	Agosto	2023-08-25T00:00:00	2024-11-08T04:00:00	7	Dirección del viento	3.22
3415	7	Sololá	712	San Antonio Palopó	9	San Antonio Palopo	8	Agosto	2023-08-25T00:00:00	2024-11-08T04:00:00	1	Precipitación	0
3416	7	Sololá	712	San Antonio Palopó	9	San Antonio Palopo	8	Agosto	2023-08-25T00:00:00	2024-11-08T04:00:00	8	Radiación solar	0
3417	7	Sololá	712	San Antonio Palopó	9	San Antonio Palopo	8	Agosto	2023-08-25T00:00:00	2024-11-08T05:00:00	2	Temperatura media	18.6
3418	7	Sololá	712	San Antonio Palopó	9	San Antonio Palopo	8	Agosto	2023-08-25T00:00:00	2024-11-08T05:00:00	4	Temperatura máxima	18.8
3419	7	Sololá	712	San Antonio Palopó	9	San Antonio Palopo	8	Agosto	2023-08-25T00:00:00	2024-11-08T05:00:00	3	Temperatura mínima	18.4
3420	7	Sololá	712	San Antonio Palopó	9	San Antonio Palopo	8	Agosto	2023-08-25T00:00:00	2024-11-08T05:00:00	5	Humedad	82
3421	7	Sololá	712	San Antonio Palopó	9	San Antonio Palopo	8	Agosto	2023-08-25T00:00:00	2024-11-08T05:00:00	6	Velocidad del viento	3.2
3422	7	Sololá	712	San Antonio Palopó	9	San Antonio Palopo	8	Agosto	2023-08-25T00:00:00	2024-11-08T05:00:00	7	Dirección del viento	3.22
3423	7	Sololá	712	San Antonio Palopó	9	San Antonio Palopo	8	Agosto	2023-08-25T00:00:00	2024-11-08T05:00:00	1	Precipitación	0
3424	7	Sololá	712	San Antonio Palopó	9	San Antonio Palopo	8	Agosto	2023-08-25T00:00:00	2024-11-08T05:00:00	8	Radiación solar	0
3425	7	Sololá	712	San Antonio Palopó	9	San Antonio Palopo	8	Agosto	2023-08-25T00:00:00	2024-11-08T06:00:00	2	Temperatura media	18.1
3426	7	Sololá	712	San Antonio Palopó	9	San Antonio Palopo	8	Agosto	2023-08-25T00:00:00	2024-11-08T06:00:00	4	Temperatura máxima	18.6
3427	7	Sololá	712	San Antonio Palopó	9	San Antonio Palopo	8	Agosto	2023-08-25T00:00:00	2024-11-08T06:00:00	3	Temperatura mínima	18
3428	7	Sololá	712	San Antonio Palopó	9	San Antonio Palopo	8	Agosto	2023-08-25T00:00:00	2024-11-08T06:00:00	5	Humedad	82
3429	7	Sololá	712	San Antonio Palopó	9	San Antonio Palopo	8	Agosto	2023-08-25T00:00:00	2024-11-08T06:00:00	6	Velocidad del viento	3.2
3430	7	Sololá	712	San Antonio Palopó	9	San Antonio Palopo	8	Agosto	2023-08-25T00:00:00	2024-11-08T06:00:00	7	Dirección del viento	3.22
3431	7	Sololá	712	San Antonio Palopó	9	San Antonio Palopo	8	Agosto	2023-08-25T00:00:00	2024-11-08T06:00:00	1	Precipitación	0
3432	7	Sololá	712	San Antonio Palopó	9	San Antonio Palopo	8	Agosto	2023-08-25T00:00:00	2024-11-08T06:00:00	8	Radiación solar	0
3433	7	Sololá	712	San Antonio Palopó	9	San Antonio Palopo	8	Agosto	2023-08-25T00:00:00	2024-11-08T07:00:00	2	Temperatura media	18.6
3434	7	Sololá	712	San Antonio Palopó	9	San Antonio Palopo	8	Agosto	2023-08-25T00:00:00	2024-11-08T07:00:00	4	Temperatura máxima	18.6
3435	7	Sololá	712	San Antonio Palopó	9	San Antonio Palopo	8	Agosto	2023-08-25T00:00:00	2024-11-08T07:00:00	3	Temperatura mínima	18.1
3436	7	Sololá	712	San Antonio Palopó	9	San Antonio Palopo	8	Agosto	2023-08-25T00:00:00	2024-11-08T07:00:00	5	Humedad	83
3437	7	Sololá	712	San Antonio Palopó	9	San Antonio Palopo	8	Agosto	2023-08-25T00:00:00	2024-11-08T07:00:00	6	Velocidad del viento	3.2
3438	7	Sololá	712	San Antonio Palopó	9	San Antonio Palopo	8	Agosto	2023-08-25T00:00:00	2024-11-08T07:00:00	7	Dirección del viento	3.22
3439	7	Sololá	712	San Antonio Palopó	9	San Antonio Palopo	8	Agosto	2023-08-25T00:00:00	2024-11-08T07:00:00	1	Precipitación	0
3440	7	Sololá	712	San Antonio Palopó	9	San Antonio Palopo	8	Agosto	2023-08-25T00:00:00	2024-11-08T07:00:00	8	Radiación solar	27
3441	7	Sololá	712	San Antonio Palopó	9	San Antonio Palopo	8	Agosto	2023-08-25T00:00:00	2024-11-08T08:00:00	2	Temperatura media	19.9
3442	7	Sololá	712	San Antonio Palopó	9	San Antonio Palopo	8	Agosto	2023-08-25T00:00:00	2024-11-08T08:00:00	4	Temperatura máxima	19.9
3443	7	Sololá	712	San Antonio Palopó	9	San Antonio Palopo	8	Agosto	2023-08-25T00:00:00	2024-11-08T08:00:00	3	Temperatura mínima	18.6
3444	7	Sololá	712	San Antonio Palopó	9	San Antonio Palopo	8	Agosto	2023-08-25T00:00:00	2024-11-08T08:00:00	5	Humedad	81
3445	7	Sololá	712	San Antonio Palopó	9	San Antonio Palopo	8	Agosto	2023-08-25T00:00:00	2024-11-08T08:00:00	6	Velocidad del viento	1.6
3446	7	Sololá	712	San Antonio Palopó	9	San Antonio Palopo	8	Agosto	2023-08-25T00:00:00	2024-11-08T08:00:00	7	Dirección del viento	1.61
3447	7	Sololá	712	San Antonio Palopó	9	San Antonio Palopo	8	Agosto	2023-08-25T00:00:00	2024-11-08T08:00:00	1	Precipitación	0
3448	7	Sololá	712	San Antonio Palopó	9	San Antonio Palopo	8	Agosto	2023-08-25T00:00:00	2024-11-08T08:00:00	8	Radiación solar	138
3449	7	Sololá	712	San Antonio Palopó	9	San Antonio Palopo	8	Agosto	2023-08-25T00:00:00	2024-11-08T09:00:00	2	Temperatura media	20.7
3450	7	Sololá	712	San Antonio Palopó	9	San Antonio Palopo	8	Agosto	2023-08-25T00:00:00	2024-11-08T09:00:00	4	Temperatura máxima	20.7
3451	7	Sololá	712	San Antonio Palopó	9	San Antonio Palopo	8	Agosto	2023-08-25T00:00:00	2024-11-08T09:00:00	3	Temperatura mínima	19.9
3452	7	Sololá	712	San Antonio Palopó	9	San Antonio Palopo	8	Agosto	2023-08-25T00:00:00	2024-11-08T09:00:00	5	Humedad	79
3453	7	Sololá	712	San Antonio Palopó	9	San Antonio Palopo	8	Agosto	2023-08-25T00:00:00	2024-11-08T09:00:00	6	Velocidad del viento	0
3454	7	Sololá	712	San Antonio Palopó	9	San Antonio Palopo	8	Agosto	2023-08-25T00:00:00	2024-11-08T09:00:00	7	Dirección del viento	0
3455	7	Sololá	712	San Antonio Palopó	9	San Antonio Palopo	8	Agosto	2023-08-25T00:00:00	2024-11-08T09:00:00	1	Precipitación	0
3456	7	Sololá	712	San Antonio Palopó	9	San Antonio Palopo	8	Agosto	2023-08-25T00:00:00	2024-11-08T09:00:00	8	Radiación solar	174
3457	7	Sololá	712	San Antonio Palopó	9	San Antonio Palopo	8	Agosto	2023-08-25T00:00:00	2024-11-08T10:00:00	2	Temperatura media	21.5
3458	7	Sololá	712	San Antonio Palopó	9	San Antonio Palopo	8	Agosto	2023-08-25T00:00:00	2024-11-08T10:00:00	4	Temperatura máxima	21.5
3459	7	Sololá	712	San Antonio Palopó	9	San Antonio Palopo	8	Agosto	2023-08-25T00:00:00	2024-11-08T10:00:00	3	Temperatura mínima	20.7
3460	7	Sololá	712	San Antonio Palopó	9	San Antonio Palopo	8	Agosto	2023-08-25T00:00:00	2024-11-08T10:00:00	5	Humedad	77
3461	7	Sololá	712	San Antonio Palopó	9	San Antonio Palopo	8	Agosto	2023-08-25T00:00:00	2024-11-08T10:00:00	6	Velocidad del viento	1.6
3462	7	Sololá	712	San Antonio Palopó	9	San Antonio Palopo	8	Agosto	2023-08-25T00:00:00	2024-11-08T10:00:00	7	Dirección del viento	1.61
3463	7	Sololá	712	San Antonio Palopó	9	San Antonio Palopo	8	Agosto	2023-08-25T00:00:00	2024-11-08T10:00:00	1	Precipitación	0
3464	7	Sololá	712	San Antonio Palopó	9	San Antonio Palopo	8	Agosto	2023-08-25T00:00:00	2024-11-08T10:00:00	8	Radiación solar	362
3465	7	Sololá	712	San Antonio Palopó	9	San Antonio Palopo	8	Agosto	2023-08-25T00:00:00	2024-11-08T11:00:00	2	Temperatura media	22
3466	7	Sololá	712	San Antonio Palopó	9	San Antonio Palopo	8	Agosto	2023-08-25T00:00:00	2024-11-08T11:00:00	4	Temperatura máxima	22.5
3467	7	Sololá	712	San Antonio Palopó	9	San Antonio Palopo	8	Agosto	2023-08-25T00:00:00	2024-11-08T11:00:00	3	Temperatura mínima	21.5
3468	7	Sololá	712	San Antonio Palopó	9	San Antonio Palopo	8	Agosto	2023-08-25T00:00:00	2024-11-08T11:00:00	5	Humedad	76
3469	7	Sololá	712	San Antonio Palopó	9	San Antonio Palopo	8	Agosto	2023-08-25T00:00:00	2024-11-08T11:00:00	6	Velocidad del viento	4.8
3470	7	Sololá	712	San Antonio Palopó	9	San Antonio Palopo	8	Agosto	2023-08-25T00:00:00	2024-11-08T11:00:00	7	Dirección del viento	4.83
3471	7	Sololá	712	San Antonio Palopó	9	San Antonio Palopo	8	Agosto	2023-08-25T00:00:00	2024-11-08T11:00:00	1	Precipitación	0
3472	7	Sololá	712	San Antonio Palopó	9	San Antonio Palopo	8	Agosto	2023-08-25T00:00:00	2024-11-08T11:00:00	8	Radiación solar	710
3473	7	Sololá	712	San Antonio Palopó	9	San Antonio Palopo	8	Agosto	2023-08-25T00:00:00	2024-11-08T12:00:00	2	Temperatura media	22.8
3474	7	Sololá	712	San Antonio Palopó	9	San Antonio Palopo	8	Agosto	2023-08-25T00:00:00	2024-11-08T12:00:00	4	Temperatura máxima	23.1
3475	7	Sololá	712	San Antonio Palopó	9	San Antonio Palopo	8	Agosto	2023-08-25T00:00:00	2024-11-08T12:00:00	3	Temperatura mínima	21.9
3476	7	Sololá	712	San Antonio Palopó	9	San Antonio Palopo	8	Agosto	2023-08-25T00:00:00	2024-11-08T12:00:00	5	Humedad	73
3477	7	Sololá	712	San Antonio Palopó	9	San Antonio Palopo	8	Agosto	2023-08-25T00:00:00	2024-11-08T12:00:00	6	Velocidad del viento	3.2
3478	7	Sololá	712	San Antonio Palopó	9	San Antonio Palopo	8	Agosto	2023-08-25T00:00:00	2024-11-08T12:00:00	7	Dirección del viento	3.22
3479	7	Sololá	712	San Antonio Palopó	9	San Antonio Palopo	8	Agosto	2023-08-25T00:00:00	2024-11-08T12:00:00	1	Precipitación	0
3480	7	Sololá	712	San Antonio Palopó	9	San Antonio Palopo	8	Agosto	2023-08-25T00:00:00	2024-11-08T12:00:00	8	Radiación solar	710
3481	7	Sololá	712	San Antonio Palopó	9	San Antonio Palopo	8	Agosto	2023-08-25T00:00:00	2024-11-08T13:00:00	2	Temperatura media	23.6
3482	7	Sololá	712	San Antonio Palopó	9	San Antonio Palopo	8	Agosto	2023-08-25T00:00:00	2024-11-08T13:00:00	4	Temperatura máxima	23.8
3483	7	Sololá	712	San Antonio Palopó	9	San Antonio Palopo	8	Agosto	2023-08-25T00:00:00	2024-11-08T13:00:00	3	Temperatura mínima	22.8
3484	7	Sololá	712	San Antonio Palopó	9	San Antonio Palopo	8	Agosto	2023-08-25T00:00:00	2024-11-08T13:00:00	5	Humedad	74
3485	7	Sololá	712	San Antonio Palopó	9	San Antonio Palopo	8	Agosto	2023-08-25T00:00:00	2024-11-08T13:00:00	6	Velocidad del viento	6.4
3486	7	Sololá	712	San Antonio Palopó	9	San Antonio Palopo	8	Agosto	2023-08-25T00:00:00	2024-11-08T13:00:00	7	Dirección del viento	6.44
3487	7	Sololá	712	San Antonio Palopó	9	San Antonio Palopo	8	Agosto	2023-08-25T00:00:00	2024-11-08T13:00:00	1	Precipitación	0
3488	7	Sololá	712	San Antonio Palopó	9	San Antonio Palopo	8	Agosto	2023-08-25T00:00:00	2024-11-08T13:00:00	8	Radiación solar	720
3489	7	Sololá	712	San Antonio Palopó	9	San Antonio Palopo	8	Agosto	2023-08-25T00:00:00	2024-11-08T14:00:00	2	Temperatura media	23.3
3490	7	Sololá	712	San Antonio Palopó	9	San Antonio Palopo	8	Agosto	2023-08-25T00:00:00	2024-11-08T14:00:00	4	Temperatura máxima	23.7
3491	7	Sololá	712	San Antonio Palopó	9	San Antonio Palopo	8	Agosto	2023-08-25T00:00:00	2024-11-08T14:00:00	3	Temperatura mínima	23.3
3492	7	Sololá	712	San Antonio Palopó	9	San Antonio Palopo	8	Agosto	2023-08-25T00:00:00	2024-11-08T14:00:00	5	Humedad	74
3493	7	Sololá	712	San Antonio Palopó	9	San Antonio Palopo	8	Agosto	2023-08-25T00:00:00	2024-11-08T14:00:00	6	Velocidad del viento	8
3494	7	Sololá	712	San Antonio Palopó	9	San Antonio Palopo	8	Agosto	2023-08-25T00:00:00	2024-11-08T14:00:00	7	Dirección del viento	8.05
3495	7	Sololá	712	San Antonio Palopó	9	San Antonio Palopo	8	Agosto	2023-08-25T00:00:00	2024-11-08T14:00:00	1	Precipitación	0
3496	7	Sololá	712	San Antonio Palopó	9	San Antonio Palopo	8	Agosto	2023-08-25T00:00:00	2024-11-08T14:00:00	8	Radiación solar	556
3497	7	Sololá	712	San Antonio Palopó	9	San Antonio Palopo	8	Agosto	2023-08-25T00:00:00	2024-11-08T15:00:00	2	Temperatura media	23.2
3498	7	Sololá	712	San Antonio Palopó	9	San Antonio Palopo	8	Agosto	2023-08-25T00:00:00	2024-11-08T15:00:00	4	Temperatura máxima	24.4
3499	7	Sololá	712	San Antonio Palopó	9	San Antonio Palopo	8	Agosto	2023-08-25T00:00:00	2024-11-08T15:00:00	3	Temperatura mínima	22.9
3500	7	Sololá	712	San Antonio Palopó	9	San Antonio Palopo	8	Agosto	2023-08-25T00:00:00	2024-11-08T15:00:00	5	Humedad	75
3501	7	Sololá	712	San Antonio Palopó	9	San Antonio Palopo	8	Agosto	2023-08-25T00:00:00	2024-11-08T15:00:00	6	Velocidad del viento	6.4
3502	7	Sololá	712	San Antonio Palopó	9	San Antonio Palopo	8	Agosto	2023-08-25T00:00:00	2024-11-08T15:00:00	7	Dirección del viento	6.44
3503	7	Sololá	712	San Antonio Palopó	9	San Antonio Palopo	8	Agosto	2023-08-25T00:00:00	2024-11-08T15:00:00	1	Precipitación	0
3504	7	Sololá	712	San Antonio Palopó	9	San Antonio Palopo	8	Agosto	2023-08-25T00:00:00	2024-11-08T15:00:00	8	Radiación solar	409
3505	7	Sololá	712	San Antonio Palopó	9	San Antonio Palopo	8	Agosto	2023-08-25T00:00:00	2024-11-08T16:00:00	2	Temperatura media	22.6
3506	7	Sololá	712	San Antonio Palopó	9	San Antonio Palopo	8	Agosto	2023-08-25T00:00:00	2024-11-08T16:00:00	4	Temperatura máxima	23.4
3507	7	Sololá	712	San Antonio Palopó	9	San Antonio Palopo	8	Agosto	2023-08-25T00:00:00	2024-11-08T16:00:00	3	Temperatura mínima	22.1
3508	7	Sololá	712	San Antonio Palopó	9	San Antonio Palopo	8	Agosto	2023-08-25T00:00:00	2024-11-08T16:00:00	5	Humedad	77
3509	7	Sololá	712	San Antonio Palopó	9	San Antonio Palopo	8	Agosto	2023-08-25T00:00:00	2024-11-08T16:00:00	6	Velocidad del viento	9.7
3510	7	Sololá	712	San Antonio Palopó	9	San Antonio Palopo	8	Agosto	2023-08-25T00:00:00	2024-11-08T16:00:00	7	Dirección del viento	9.66
3511	7	Sololá	712	San Antonio Palopó	9	San Antonio Palopo	8	Agosto	2023-08-25T00:00:00	2024-11-08T16:00:00	1	Precipitación	0
3512	7	Sololá	712	San Antonio Palopó	9	San Antonio Palopo	8	Agosto	2023-08-25T00:00:00	2024-11-08T16:00:00	8	Radiación solar	209
3513	7	Sololá	712	San Antonio Palopó	9	San Antonio Palopo	8	Agosto	2023-08-25T00:00:00	2024-11-08T17:00:00	2	Temperatura media	22.3
3514	7	Sololá	712	San Antonio Palopó	9	San Antonio Palopo	8	Agosto	2023-08-25T00:00:00	2024-11-08T17:00:00	4	Temperatura máxima	23.3
3515	7	Sololá	712	San Antonio Palopó	9	San Antonio Palopo	8	Agosto	2023-08-25T00:00:00	2024-11-08T17:00:00	3	Temperatura mínima	22.2
3516	7	Sololá	712	San Antonio Palopó	9	San Antonio Palopo	8	Agosto	2023-08-25T00:00:00	2024-11-08T17:00:00	5	Humedad	75
3517	7	Sololá	712	San Antonio Palopó	9	San Antonio Palopo	8	Agosto	2023-08-25T00:00:00	2024-11-08T17:00:00	6	Velocidad del viento	6.4
3518	7	Sololá	712	San Antonio Palopó	9	San Antonio Palopo	8	Agosto	2023-08-25T00:00:00	2024-11-08T17:00:00	7	Dirección del viento	6.44
3519	7	Sololá	712	San Antonio Palopó	9	San Antonio Palopo	8	Agosto	2023-08-25T00:00:00	2024-11-08T17:00:00	1	Precipitación	0
3520	7	Sololá	712	San Antonio Palopó	9	San Antonio Palopo	8	Agosto	2023-08-25T00:00:00	2024-11-08T17:00:00	8	Radiación solar	179
3521	7	Sololá	712	San Antonio Palopó	9	San Antonio Palopo	8	Agosto	2023-08-25T00:00:00	2024-11-08T18:00:00	2	Temperatura media	21.7
3522	7	Sololá	712	San Antonio Palopó	9	San Antonio Palopo	8	Agosto	2023-08-25T00:00:00	2024-11-08T18:00:00	4	Temperatura máxima	22.7
3523	7	Sololá	712	San Antonio Palopó	9	San Antonio Palopo	8	Agosto	2023-08-25T00:00:00	2024-11-08T18:00:00	3	Temperatura mínima	21.7
3524	7	Sololá	712	San Antonio Palopó	9	San Antonio Palopo	8	Agosto	2023-08-25T00:00:00	2024-11-08T18:00:00	5	Humedad	80
3525	7	Sololá	712	San Antonio Palopó	9	San Antonio Palopo	8	Agosto	2023-08-25T00:00:00	2024-11-08T18:00:00	6	Velocidad del viento	4.8
3526	7	Sololá	712	San Antonio Palopó	9	San Antonio Palopo	8	Agosto	2023-08-25T00:00:00	2024-11-08T18:00:00	7	Dirección del viento	4.83
3527	7	Sololá	712	San Antonio Palopó	9	San Antonio Palopo	8	Agosto	2023-08-25T00:00:00	2024-11-08T18:00:00	1	Precipitación	0
3528	7	Sololá	712	San Antonio Palopó	9	San Antonio Palopo	8	Agosto	2023-08-25T00:00:00	2024-11-08T18:00:00	8	Radiación solar	75
3529	7	Sololá	712	San Antonio Palopó	9	San Antonio Palopo	8	Agosto	2023-08-25T00:00:00	2024-11-08T19:00:00	2	Temperatura media	20.9
3530	7	Sololá	712	San Antonio Palopó	9	San Antonio Palopo	8	Agosto	2023-08-25T00:00:00	2024-11-08T19:00:00	4	Temperatura máxima	21.6
3531	7	Sololá	712	San Antonio Palopó	9	San Antonio Palopo	8	Agosto	2023-08-25T00:00:00	2024-11-08T19:00:00	3	Temperatura mínima	20.9
3532	7	Sololá	712	San Antonio Palopó	9	San Antonio Palopo	8	Agosto	2023-08-25T00:00:00	2024-11-08T19:00:00	5	Humedad	82
3533	7	Sololá	712	San Antonio Palopó	9	San Antonio Palopo	8	Agosto	2023-08-25T00:00:00	2024-11-08T19:00:00	6	Velocidad del viento	3.2
3534	7	Sololá	712	San Antonio Palopó	9	San Antonio Palopo	8	Agosto	2023-08-25T00:00:00	2024-11-08T19:00:00	7	Dirección del viento	3.22
3535	7	Sololá	712	San Antonio Palopó	9	San Antonio Palopo	8	Agosto	2023-08-25T00:00:00	2024-11-08T19:00:00	1	Precipitación	0
3536	7	Sololá	712	San Antonio Palopó	9	San Antonio Palopo	8	Agosto	2023-08-25T00:00:00	2024-11-08T19:00:00	8	Radiación solar	0
3537	7	Sololá	712	San Antonio Palopó	9	San Antonio Palopo	8	Agosto	2023-08-25T00:00:00	2024-11-08T20:00:00	2	Temperatura media	20.1
3538	7	Sololá	712	San Antonio Palopó	9	San Antonio Palopo	8	Agosto	2023-08-25T00:00:00	2024-11-08T20:00:00	4	Temperatura máxima	21
3539	7	Sololá	712	San Antonio Palopó	9	San Antonio Palopo	8	Agosto	2023-08-25T00:00:00	2024-11-08T20:00:00	3	Temperatura mínima	20
3540	7	Sololá	712	San Antonio Palopó	9	San Antonio Palopo	8	Agosto	2023-08-25T00:00:00	2024-11-08T20:00:00	5	Humedad	86
3541	7	Sololá	712	San Antonio Palopó	9	San Antonio Palopo	8	Agosto	2023-08-25T00:00:00	2024-11-08T20:00:00	6	Velocidad del viento	1.6
3542	7	Sololá	712	San Antonio Palopó	9	San Antonio Palopo	8	Agosto	2023-08-25T00:00:00	2024-11-08T20:00:00	7	Dirección del viento	1.61
3543	7	Sololá	712	San Antonio Palopó	9	San Antonio Palopo	8	Agosto	2023-08-25T00:00:00	2024-11-08T20:00:00	1	Precipitación	0
3544	7	Sololá	712	San Antonio Palopó	9	San Antonio Palopo	8	Agosto	2023-08-25T00:00:00	2024-11-08T20:00:00	8	Radiación solar	0
3545	7	Sololá	712	San Antonio Palopó	9	San Antonio Palopo	8	Agosto	2023-08-25T00:00:00	2024-11-08T21:00:00	2	Temperatura media	20
3546	7	Sololá	712	San Antonio Palopó	9	San Antonio Palopo	8	Agosto	2023-08-25T00:00:00	2024-11-08T21:00:00	4	Temperatura máxima	20.1
3547	7	Sololá	712	San Antonio Palopó	9	San Antonio Palopo	8	Agosto	2023-08-25T00:00:00	2024-11-08T21:00:00	3	Temperatura mínima	19.2
3548	7	Sololá	712	San Antonio Palopó	9	San Antonio Palopo	8	Agosto	2023-08-25T00:00:00	2024-11-08T21:00:00	5	Humedad	85
3549	7	Sololá	712	San Antonio Palopó	9	San Antonio Palopo	8	Agosto	2023-08-25T00:00:00	2024-11-08T21:00:00	6	Velocidad del viento	0
3550	7	Sololá	712	San Antonio Palopó	9	San Antonio Palopo	8	Agosto	2023-08-25T00:00:00	2024-11-08T21:00:00	7	Dirección del viento	0
3551	7	Sololá	712	San Antonio Palopó	9	San Antonio Palopo	8	Agosto	2023-08-25T00:00:00	2024-11-08T21:00:00	1	Precipitación	0
3552	7	Sololá	712	San Antonio Palopó	9	San Antonio Palopo	8	Agosto	2023-08-25T00:00:00	2024-11-08T21:00:00	8	Radiación solar	0
3553	7	Sololá	712	San Antonio Palopó	9	San Antonio Palopo	8	Agosto	2023-08-25T00:00:00	2024-11-08T22:00:00	2	Temperatura media	19.4
3554	7	Sololá	712	San Antonio Palopó	9	San Antonio Palopo	8	Agosto	2023-08-25T00:00:00	2024-11-08T22:00:00	4	Temperatura máxima	19.7
3555	7	Sololá	712	San Antonio Palopó	9	San Antonio Palopo	8	Agosto	2023-08-25T00:00:00	2024-11-08T22:00:00	3	Temperatura mínima	19.4
3556	7	Sololá	712	San Antonio Palopó	9	San Antonio Palopo	8	Agosto	2023-08-25T00:00:00	2024-11-08T22:00:00	5	Humedad	87
3557	7	Sololá	712	San Antonio Palopó	9	San Antonio Palopo	8	Agosto	2023-08-25T00:00:00	2024-11-08T22:00:00	6	Velocidad del viento	1.6
3558	7	Sololá	712	San Antonio Palopó	9	San Antonio Palopo	8	Agosto	2023-08-25T00:00:00	2024-11-08T22:00:00	7	Dirección del viento	1.61
3559	7	Sololá	712	San Antonio Palopó	9	San Antonio Palopo	8	Agosto	2023-08-25T00:00:00	2024-11-08T22:00:00	1	Precipitación	0
3560	7	Sololá	712	San Antonio Palopó	9	San Antonio Palopo	8	Agosto	2023-08-25T00:00:00	2024-11-08T22:00:00	8	Radiación solar	0
3561	7	Sololá	712	San Antonio Palopó	9	San Antonio Palopo	8	Agosto	2023-08-25T00:00:00	2024-11-08T23:00:00	2	Temperatura media	19.6
3562	7	Sololá	712	San Antonio Palopó	9	San Antonio Palopo	8	Agosto	2023-08-25T00:00:00	2024-11-08T23:00:00	4	Temperatura máxima	19.7
3563	7	Sololá	712	San Antonio Palopó	9	San Antonio Palopo	8	Agosto	2023-08-25T00:00:00	2024-11-08T23:00:00	3	Temperatura mínima	19.4
3564	7	Sololá	712	San Antonio Palopó	9	San Antonio Palopo	8	Agosto	2023-08-25T00:00:00	2024-11-08T23:00:00	5	Humedad	85
3565	7	Sololá	712	San Antonio Palopó	9	San Antonio Palopo	8	Agosto	2023-08-25T00:00:00	2024-11-08T23:00:00	6	Velocidad del viento	1.6
3566	7	Sololá	712	San Antonio Palopó	9	San Antonio Palopo	8	Agosto	2023-08-25T00:00:00	2024-11-08T23:00:00	7	Dirección del viento	1.61
3567	7	Sololá	712	San Antonio Palopó	9	San Antonio Palopo	8	Agosto	2023-08-25T00:00:00	2024-11-08T23:00:00	1	Precipitación	0
3568	7	Sololá	712	San Antonio Palopó	9	San Antonio Palopo	8	Agosto	2023-08-25T00:00:00	2024-11-08T23:00:00	8	Radiación solar	0
3569	7	Sololá	712	San Antonio Palopó	9	San Antonio Palopo	8	Agosto	2023-08-26T00:00:00	2024-11-08T00:00:00	2	Temperatura media	19.5
3570	7	Sololá	712	San Antonio Palopó	9	San Antonio Palopo	8	Agosto	2023-08-26T00:00:00	2024-11-08T00:00:00	4	Temperatura máxima	19.6
3571	7	Sololá	712	San Antonio Palopó	9	San Antonio Palopo	8	Agosto	2023-08-26T00:00:00	2024-11-08T00:00:00	3	Temperatura mínima	19.4
3572	7	Sololá	712	San Antonio Palopó	9	San Antonio Palopo	8	Agosto	2023-08-26T00:00:00	2024-11-08T00:00:00	5	Humedad	87
3573	7	Sololá	712	San Antonio Palopó	9	San Antonio Palopo	8	Agosto	2023-08-26T00:00:00	2024-11-08T00:00:00	6	Velocidad del viento	1.6
3574	7	Sololá	712	San Antonio Palopó	9	San Antonio Palopo	8	Agosto	2023-08-26T00:00:00	2024-11-08T00:00:00	7	Dirección del viento	1.61
3575	7	Sololá	712	San Antonio Palopó	9	San Antonio Palopo	8	Agosto	2023-08-26T00:00:00	2024-11-08T00:00:00	1	Precipitación	0
3576	7	Sololá	712	San Antonio Palopó	9	San Antonio Palopo	8	Agosto	2023-08-26T00:00:00	2024-11-08T00:00:00	8	Radiación solar	0
3577	7	Sololá	712	San Antonio Palopó	9	San Antonio Palopo	8	Agosto	2023-08-26T00:00:00	2024-11-08T01:00:00	2	Temperatura media	19.3
3578	7	Sololá	712	San Antonio Palopó	9	San Antonio Palopo	8	Agosto	2023-08-26T00:00:00	2024-11-08T01:00:00	4	Temperatura máxima	19.6
3579	7	Sololá	712	San Antonio Palopó	9	San Antonio Palopo	8	Agosto	2023-08-26T00:00:00	2024-11-08T01:00:00	3	Temperatura mínima	19.2
3580	7	Sololá	712	San Antonio Palopó	9	San Antonio Palopo	8	Agosto	2023-08-26T00:00:00	2024-11-08T01:00:00	5	Humedad	88
3581	7	Sololá	712	San Antonio Palopó	9	San Antonio Palopo	8	Agosto	2023-08-26T00:00:00	2024-11-08T01:00:00	6	Velocidad del viento	3.2
3582	7	Sololá	712	San Antonio Palopó	9	San Antonio Palopo	8	Agosto	2023-08-26T00:00:00	2024-11-08T01:00:00	7	Dirección del viento	3.22
3583	7	Sololá	712	San Antonio Palopó	9	San Antonio Palopo	8	Agosto	2023-08-26T00:00:00	2024-11-08T01:00:00	1	Precipitación	0
3584	7	Sololá	712	San Antonio Palopó	9	San Antonio Palopo	8	Agosto	2023-08-26T00:00:00	2024-11-08T01:00:00	8	Radiación solar	0
3585	7	Sololá	712	San Antonio Palopó	9	San Antonio Palopo	8	Agosto	2023-08-26T00:00:00	2024-11-08T02:00:00	2	Temperatura media	19.1
3586	7	Sololá	712	San Antonio Palopó	9	San Antonio Palopo	8	Agosto	2023-08-26T00:00:00	2024-11-08T02:00:00	4	Temperatura máxima	19.3
3587	7	Sololá	712	San Antonio Palopó	9	San Antonio Palopo	8	Agosto	2023-08-26T00:00:00	2024-11-08T02:00:00	3	Temperatura mínima	19.1
3588	7	Sololá	712	San Antonio Palopó	9	San Antonio Palopo	8	Agosto	2023-08-26T00:00:00	2024-11-08T02:00:00	5	Humedad	87
3589	7	Sololá	712	San Antonio Palopó	9	San Antonio Palopo	8	Agosto	2023-08-26T00:00:00	2024-11-08T02:00:00	6	Velocidad del viento	1.6
3590	7	Sololá	712	San Antonio Palopó	9	San Antonio Palopo	8	Agosto	2023-08-26T00:00:00	2024-11-08T02:00:00	7	Dirección del viento	1.61
3591	7	Sololá	712	San Antonio Palopó	9	San Antonio Palopo	8	Agosto	2023-08-26T00:00:00	2024-11-08T02:00:00	1	Precipitación	0
3592	7	Sololá	712	San Antonio Palopó	9	San Antonio Palopo	8	Agosto	2023-08-26T00:00:00	2024-11-08T02:00:00	8	Radiación solar	0
3593	7	Sololá	712	San Antonio Palopó	9	San Antonio Palopo	8	Agosto	2023-08-26T00:00:00	2024-11-08T03:00:00	2	Temperatura media	19.3
3594	7	Sololá	712	San Antonio Palopó	9	San Antonio Palopo	8	Agosto	2023-08-26T00:00:00	2024-11-08T03:00:00	4	Temperatura máxima	19.4
3595	7	Sololá	712	San Antonio Palopó	9	San Antonio Palopo	8	Agosto	2023-08-26T00:00:00	2024-11-08T03:00:00	3	Temperatura mínima	18.8
3596	7	Sololá	712	San Antonio Palopó	9	San Antonio Palopo	8	Agosto	2023-08-26T00:00:00	2024-11-08T03:00:00	5	Humedad	86
3597	7	Sololá	712	San Antonio Palopó	9	San Antonio Palopo	8	Agosto	2023-08-26T00:00:00	2024-11-08T03:00:00	6	Velocidad del viento	1.6
3598	7	Sololá	712	San Antonio Palopó	9	San Antonio Palopo	8	Agosto	2023-08-26T00:00:00	2024-11-08T03:00:00	7	Dirección del viento	1.61
3599	7	Sololá	712	San Antonio Palopó	9	San Antonio Palopo	8	Agosto	2023-08-26T00:00:00	2024-11-08T03:00:00	1	Precipitación	0
3600	7	Sololá	712	San Antonio Palopó	9	San Antonio Palopo	8	Agosto	2023-08-26T00:00:00	2024-11-08T03:00:00	8	Radiación solar	0
3601	7	Sololá	712	San Antonio Palopó	9	San Antonio Palopo	8	Agosto	2023-08-26T00:00:00	2024-11-08T04:00:00	2	Temperatura media	19
3602	7	Sololá	712	San Antonio Palopó	9	San Antonio Palopo	8	Agosto	2023-08-26T00:00:00	2024-11-08T04:00:00	4	Temperatura máxima	19.3
3603	7	Sololá	712	San Antonio Palopó	9	San Antonio Palopo	8	Agosto	2023-08-26T00:00:00	2024-11-08T04:00:00	3	Temperatura mínima	18.9
3604	7	Sololá	712	San Antonio Palopó	9	San Antonio Palopo	8	Agosto	2023-08-26T00:00:00	2024-11-08T04:00:00	5	Humedad	85
3605	7	Sololá	712	San Antonio Palopó	9	San Antonio Palopo	8	Agosto	2023-08-26T00:00:00	2024-11-08T04:00:00	6	Velocidad del viento	1.6
3606	7	Sololá	712	San Antonio Palopó	9	San Antonio Palopo	8	Agosto	2023-08-26T00:00:00	2024-11-08T04:00:00	7	Dirección del viento	1.61
3607	7	Sololá	712	San Antonio Palopó	9	San Antonio Palopo	8	Agosto	2023-08-26T00:00:00	2024-11-08T04:00:00	1	Precipitación	0
3608	7	Sololá	712	San Antonio Palopó	9	San Antonio Palopo	8	Agosto	2023-08-26T00:00:00	2024-11-08T04:00:00	8	Radiación solar	0
3609	7	Sololá	712	San Antonio Palopó	9	San Antonio Palopo	8	Agosto	2023-08-26T00:00:00	2024-11-08T05:00:00	2	Temperatura media	19.3
3610	7	Sololá	712	San Antonio Palopó	9	San Antonio Palopo	8	Agosto	2023-08-26T00:00:00	2024-11-08T05:00:00	4	Temperatura máxima	19.3
3611	7	Sololá	712	San Antonio Palopó	9	San Antonio Palopo	8	Agosto	2023-08-26T00:00:00	2024-11-08T05:00:00	3	Temperatura mínima	18.9
3612	7	Sololá	712	San Antonio Palopó	9	San Antonio Palopo	8	Agosto	2023-08-26T00:00:00	2024-11-08T05:00:00	5	Humedad	82
3613	7	Sololá	712	San Antonio Palopó	9	San Antonio Palopo	8	Agosto	2023-08-26T00:00:00	2024-11-08T05:00:00	6	Velocidad del viento	1.6
3614	7	Sololá	712	San Antonio Palopó	9	San Antonio Palopo	8	Agosto	2023-08-26T00:00:00	2024-11-08T05:00:00	7	Dirección del viento	1.61
3615	7	Sololá	712	San Antonio Palopó	9	San Antonio Palopo	8	Agosto	2023-08-26T00:00:00	2024-11-08T05:00:00	1	Precipitación	0
3616	7	Sololá	712	San Antonio Palopó	9	San Antonio Palopo	8	Agosto	2023-08-26T00:00:00	2024-11-08T05:00:00	8	Radiación solar	0
3617	7	Sololá	712	San Antonio Palopó	9	San Antonio Palopo	8	Agosto	2023-08-26T00:00:00	2024-11-08T06:00:00	2	Temperatura media	19.3
3618	7	Sololá	712	San Antonio Palopó	9	San Antonio Palopo	8	Agosto	2023-08-26T00:00:00	2024-11-08T06:00:00	4	Temperatura máxima	19.6
3619	7	Sololá	712	San Antonio Palopó	9	San Antonio Palopo	8	Agosto	2023-08-26T00:00:00	2024-11-08T06:00:00	3	Temperatura mínima	19.3
3620	7	Sololá	712	San Antonio Palopó	9	San Antonio Palopo	8	Agosto	2023-08-26T00:00:00	2024-11-08T06:00:00	5	Humedad	81
3621	7	Sololá	712	San Antonio Palopó	9	San Antonio Palopo	8	Agosto	2023-08-26T00:00:00	2024-11-08T06:00:00	6	Velocidad del viento	4.8
3622	7	Sololá	712	San Antonio Palopó	9	San Antonio Palopo	8	Agosto	2023-08-26T00:00:00	2024-11-08T06:00:00	7	Dirección del viento	4.83
3623	7	Sololá	712	San Antonio Palopó	9	San Antonio Palopo	8	Agosto	2023-08-26T00:00:00	2024-11-08T06:00:00	1	Precipitación	0
3624	7	Sololá	712	San Antonio Palopó	9	San Antonio Palopo	8	Agosto	2023-08-26T00:00:00	2024-11-08T06:00:00	8	Radiación solar	0
3625	7	Sololá	712	San Antonio Palopó	9	San Antonio Palopo	8	Agosto	2023-08-26T00:00:00	2024-11-08T07:00:00	2	Temperatura media	19.9
3626	7	Sololá	712	San Antonio Palopó	9	San Antonio Palopo	8	Agosto	2023-08-26T00:00:00	2024-11-08T07:00:00	4	Temperatura máxima	19.9
3627	7	Sololá	712	San Antonio Palopó	9	San Antonio Palopo	8	Agosto	2023-08-26T00:00:00	2024-11-08T07:00:00	3	Temperatura mínima	19.1
3628	7	Sololá	712	San Antonio Palopó	9	San Antonio Palopo	8	Agosto	2023-08-26T00:00:00	2024-11-08T07:00:00	5	Humedad	78
3629	7	Sololá	712	San Antonio Palopó	9	San Antonio Palopo	8	Agosto	2023-08-26T00:00:00	2024-11-08T07:00:00	6	Velocidad del viento	3.2
3630	7	Sololá	712	San Antonio Palopó	9	San Antonio Palopo	8	Agosto	2023-08-26T00:00:00	2024-11-08T07:00:00	7	Dirección del viento	3.22
3631	7	Sololá	712	San Antonio Palopó	9	San Antonio Palopo	8	Agosto	2023-08-26T00:00:00	2024-11-08T07:00:00	1	Precipitación	0
3632	7	Sololá	712	San Antonio Palopó	9	San Antonio Palopo	8	Agosto	2023-08-26T00:00:00	2024-11-08T07:00:00	8	Radiación solar	31
3633	7	Sololá	712	San Antonio Palopó	9	San Antonio Palopo	8	Agosto	2023-08-26T00:00:00	2024-11-08T08:00:00	2	Temperatura media	20.8
3634	7	Sololá	712	San Antonio Palopó	9	San Antonio Palopo	8	Agosto	2023-08-26T00:00:00	2024-11-08T08:00:00	4	Temperatura máxima	20.8
3635	7	Sololá	712	San Antonio Palopó	9	San Antonio Palopo	8	Agosto	2023-08-26T00:00:00	2024-11-08T08:00:00	3	Temperatura mínima	19.6
3636	7	Sololá	712	San Antonio Palopó	9	San Antonio Palopo	8	Agosto	2023-08-26T00:00:00	2024-11-08T08:00:00	5	Humedad	81
3637	7	Sololá	712	San Antonio Palopó	9	San Antonio Palopo	8	Agosto	2023-08-26T00:00:00	2024-11-08T08:00:00	6	Velocidad del viento	1.6
3638	7	Sololá	712	San Antonio Palopó	9	San Antonio Palopo	8	Agosto	2023-08-26T00:00:00	2024-11-08T08:00:00	7	Dirección del viento	1.61
3639	7	Sololá	712	San Antonio Palopó	9	San Antonio Palopo	8	Agosto	2023-08-26T00:00:00	2024-11-08T08:00:00	1	Precipitación	0
3640	7	Sololá	712	San Antonio Palopó	9	San Antonio Palopo	8	Agosto	2023-08-26T00:00:00	2024-11-08T08:00:00	8	Radiación solar	125
3641	7	Sololá	712	San Antonio Palopó	9	San Antonio Palopo	8	Agosto	2023-08-26T00:00:00	2024-11-08T09:00:00	2	Temperatura media	22.1
3642	7	Sololá	712	San Antonio Palopó	9	San Antonio Palopo	8	Agosto	2023-08-26T00:00:00	2024-11-08T09:00:00	4	Temperatura máxima	22.2
3643	7	Sololá	712	San Antonio Palopó	9	San Antonio Palopo	8	Agosto	2023-08-26T00:00:00	2024-11-08T09:00:00	3	Temperatura mínima	20.8
3644	7	Sololá	712	San Antonio Palopó	9	San Antonio Palopo	8	Agosto	2023-08-26T00:00:00	2024-11-08T09:00:00	5	Humedad	75
3645	7	Sololá	712	San Antonio Palopó	9	San Antonio Palopo	8	Agosto	2023-08-26T00:00:00	2024-11-08T09:00:00	6	Velocidad del viento	1.6
3646	7	Sololá	712	San Antonio Palopó	9	San Antonio Palopo	8	Agosto	2023-08-26T00:00:00	2024-11-08T09:00:00	7	Dirección del viento	1.61
3647	7	Sololá	712	San Antonio Palopó	9	San Antonio Palopo	8	Agosto	2023-08-26T00:00:00	2024-11-08T09:00:00	1	Precipitación	0
3648	7	Sololá	712	San Antonio Palopó	9	San Antonio Palopo	8	Agosto	2023-08-26T00:00:00	2024-11-08T09:00:00	8	Radiación solar	493
3649	7	Sololá	712	San Antonio Palopó	9	San Antonio Palopo	8	Agosto	2023-08-26T00:00:00	2024-11-08T10:00:00	2	Temperatura media	22.2
3650	7	Sololá	712	San Antonio Palopó	9	San Antonio Palopo	8	Agosto	2023-08-26T00:00:00	2024-11-08T10:00:00	4	Temperatura máxima	22.4
3651	7	Sololá	712	San Antonio Palopó	9	San Antonio Palopo	8	Agosto	2023-08-26T00:00:00	2024-11-08T10:00:00	3	Temperatura mínima	21.4
3652	7	Sololá	712	San Antonio Palopó	9	San Antonio Palopo	8	Agosto	2023-08-26T00:00:00	2024-11-08T10:00:00	5	Humedad	76
3653	7	Sololá	712	San Antonio Palopó	9	San Antonio Palopo	8	Agosto	2023-08-26T00:00:00	2024-11-08T10:00:00	6	Velocidad del viento	3.2
3654	7	Sololá	712	San Antonio Palopó	9	San Antonio Palopo	8	Agosto	2023-08-26T00:00:00	2024-11-08T10:00:00	7	Dirección del viento	3.22
3655	7	Sololá	712	San Antonio Palopó	9	San Antonio Palopo	8	Agosto	2023-08-26T00:00:00	2024-11-08T10:00:00	1	Precipitación	0
3656	7	Sololá	712	San Antonio Palopó	9	San Antonio Palopo	8	Agosto	2023-08-26T00:00:00	2024-11-08T10:00:00	8	Radiación solar	692
3657	7	Sololá	712	San Antonio Palopó	9	San Antonio Palopo	8	Agosto	2023-08-26T00:00:00	2024-11-08T11:00:00	2	Temperatura media	23.3
3658	7	Sololá	712	San Antonio Palopó	9	San Antonio Palopo	8	Agosto	2023-08-26T00:00:00	2024-11-08T11:00:00	4	Temperatura máxima	23.6
3659	7	Sololá	712	San Antonio Palopó	9	San Antonio Palopo	8	Agosto	2023-08-26T00:00:00	2024-11-08T11:00:00	3	Temperatura mínima	22.2
3660	7	Sololá	712	San Antonio Palopó	9	San Antonio Palopo	8	Agosto	2023-08-26T00:00:00	2024-11-08T11:00:00	5	Humedad	75
3661	7	Sololá	712	San Antonio Palopó	9	San Antonio Palopo	8	Agosto	2023-08-26T00:00:00	2024-11-08T11:00:00	6	Velocidad del viento	3.2
3662	7	Sololá	712	San Antonio Palopó	9	San Antonio Palopo	8	Agosto	2023-08-26T00:00:00	2024-11-08T11:00:00	7	Dirección del viento	3.22
3663	7	Sololá	712	San Antonio Palopó	9	San Antonio Palopo	8	Agosto	2023-08-26T00:00:00	2024-11-08T11:00:00	1	Precipitación	0
3664	7	Sololá	712	San Antonio Palopó	9	San Antonio Palopo	8	Agosto	2023-08-26T00:00:00	2024-11-08T11:00:00	8	Radiación solar	865
3665	7	Sololá	712	San Antonio Palopó	9	San Antonio Palopo	8	Agosto	2023-08-26T00:00:00	2024-11-08T12:00:00	2	Temperatura media	24.6
3666	7	Sololá	712	San Antonio Palopó	9	San Antonio Palopo	8	Agosto	2023-08-26T00:00:00	2024-11-08T12:00:00	4	Temperatura máxima	24.7
3667	7	Sololá	712	San Antonio Palopó	9	San Antonio Palopo	8	Agosto	2023-08-26T00:00:00	2024-11-08T12:00:00	3	Temperatura mínima	23.3
3668	7	Sololá	712	San Antonio Palopó	9	San Antonio Palopo	8	Agosto	2023-08-26T00:00:00	2024-11-08T12:00:00	5	Humedad	75
3669	7	Sololá	712	San Antonio Palopó	9	San Antonio Palopo	8	Agosto	2023-08-26T00:00:00	2024-11-08T12:00:00	6	Velocidad del viento	6.4
3670	7	Sololá	712	San Antonio Palopó	9	San Antonio Palopo	8	Agosto	2023-08-26T00:00:00	2024-11-08T12:00:00	7	Dirección del viento	6.44
3671	7	Sololá	712	San Antonio Palopó	9	San Antonio Palopo	8	Agosto	2023-08-26T00:00:00	2024-11-08T12:00:00	1	Precipitación	0
3672	7	Sololá	712	San Antonio Palopó	9	San Antonio Palopo	8	Agosto	2023-08-26T00:00:00	2024-11-08T12:00:00	8	Radiación solar	968
3673	7	Sololá	712	San Antonio Palopó	9	San Antonio Palopo	8	Agosto	2023-08-26T00:00:00	2024-11-08T13:00:00	2	Temperatura media	24.7
3674	7	Sololá	712	San Antonio Palopó	9	San Antonio Palopo	8	Agosto	2023-08-26T00:00:00	2024-11-08T13:00:00	4	Temperatura máxima	24.9
3675	7	Sololá	712	San Antonio Palopó	9	San Antonio Palopo	8	Agosto	2023-08-26T00:00:00	2024-11-08T13:00:00	3	Temperatura mínima	24.6
3676	7	Sololá	712	San Antonio Palopó	9	San Antonio Palopo	8	Agosto	2023-08-26T00:00:00	2024-11-08T13:00:00	5	Humedad	70
3677	7	Sololá	712	San Antonio Palopó	9	San Antonio Palopo	8	Agosto	2023-08-26T00:00:00	2024-11-08T13:00:00	6	Velocidad del viento	9.7
3678	7	Sololá	712	San Antonio Palopó	9	San Antonio Palopo	8	Agosto	2023-08-26T00:00:00	2024-11-08T13:00:00	7	Dirección del viento	9.66
3679	7	Sololá	712	San Antonio Palopó	9	San Antonio Palopo	8	Agosto	2023-08-26T00:00:00	2024-11-08T13:00:00	1	Precipitación	0
3680	7	Sololá	712	San Antonio Palopó	9	San Antonio Palopo	8	Agosto	2023-08-26T00:00:00	2024-11-08T13:00:00	8	Radiación solar	972
3681	7	Sololá	712	San Antonio Palopó	9	San Antonio Palopo	8	Agosto	2023-08-26T00:00:00	2024-11-08T14:00:00	2	Temperatura media	24.7
3682	7	Sololá	712	San Antonio Palopó	9	San Antonio Palopo	8	Agosto	2023-08-26T00:00:00	2024-11-08T14:00:00	4	Temperatura máxima	25.4
3683	7	Sololá	712	San Antonio Palopó	9	San Antonio Palopo	8	Agosto	2023-08-26T00:00:00	2024-11-08T14:00:00	3	Temperatura mínima	24.6
3684	7	Sololá	712	San Antonio Palopó	9	San Antonio Palopo	8	Agosto	2023-08-26T00:00:00	2024-11-08T14:00:00	5	Humedad	71
3685	7	Sololá	712	San Antonio Palopó	9	San Antonio Palopo	8	Agosto	2023-08-26T00:00:00	2024-11-08T14:00:00	6	Velocidad del viento	8
3686	7	Sololá	712	San Antonio Palopó	9	San Antonio Palopo	8	Agosto	2023-08-26T00:00:00	2024-11-08T14:00:00	7	Dirección del viento	8.05
3687	7	Sololá	712	San Antonio Palopó	9	San Antonio Palopo	8	Agosto	2023-08-26T00:00:00	2024-11-08T14:00:00	1	Precipitación	0
3688	7	Sololá	712	San Antonio Palopó	9	San Antonio Palopo	8	Agosto	2023-08-26T00:00:00	2024-11-08T14:00:00	8	Radiación solar	906
3689	7	Sololá	712	San Antonio Palopó	9	San Antonio Palopo	8	Agosto	2023-08-26T00:00:00	2024-11-08T15:00:00	2	Temperatura media	23.8
3690	7	Sololá	712	San Antonio Palopó	9	San Antonio Palopo	8	Agosto	2023-08-26T00:00:00	2024-11-08T15:00:00	4	Temperatura máxima	24.9
3691	7	Sololá	712	San Antonio Palopó	9	San Antonio Palopo	8	Agosto	2023-08-26T00:00:00	2024-11-08T15:00:00	3	Temperatura mínima	23.8
3692	7	Sololá	712	San Antonio Palopó	9	San Antonio Palopo	8	Agosto	2023-08-26T00:00:00	2024-11-08T15:00:00	5	Humedad	73
3693	7	Sololá	712	San Antonio Palopó	9	San Antonio Palopo	8	Agosto	2023-08-26T00:00:00	2024-11-08T15:00:00	6	Velocidad del viento	8
3694	7	Sololá	712	San Antonio Palopó	9	San Antonio Palopo	8	Agosto	2023-08-26T00:00:00	2024-11-08T15:00:00	7	Dirección del viento	8.05
3695	7	Sololá	712	San Antonio Palopó	9	San Antonio Palopo	8	Agosto	2023-08-26T00:00:00	2024-11-08T15:00:00	1	Precipitación	0
3696	7	Sololá	712	San Antonio Palopó	9	San Antonio Palopo	8	Agosto	2023-08-26T00:00:00	2024-11-08T15:00:00	8	Radiación solar	468
3697	7	Sololá	712	San Antonio Palopó	9	San Antonio Palopo	8	Agosto	2023-08-26T00:00:00	2024-11-08T16:00:00	2	Temperatura media	23
3698	7	Sololá	712	San Antonio Palopó	9	San Antonio Palopo	8	Agosto	2023-08-26T00:00:00	2024-11-08T16:00:00	4	Temperatura máxima	24
3699	7	Sololá	712	San Antonio Palopó	9	San Antonio Palopo	8	Agosto	2023-08-26T00:00:00	2024-11-08T16:00:00	3	Temperatura mínima	23
3700	7	Sololá	712	San Antonio Palopó	9	San Antonio Palopo	8	Agosto	2023-08-26T00:00:00	2024-11-08T16:00:00	5	Humedad	76
3701	7	Sololá	712	San Antonio Palopó	9	San Antonio Palopo	8	Agosto	2023-08-26T00:00:00	2024-11-08T16:00:00	6	Velocidad del viento	8
3702	7	Sololá	712	San Antonio Palopó	9	San Antonio Palopo	8	Agosto	2023-08-26T00:00:00	2024-11-08T16:00:00	7	Dirección del viento	8.05
3703	7	Sololá	712	San Antonio Palopó	9	San Antonio Palopo	8	Agosto	2023-08-26T00:00:00	2024-11-08T16:00:00	1	Precipitación	0
3704	7	Sololá	712	San Antonio Palopó	9	San Antonio Palopo	8	Agosto	2023-08-26T00:00:00	2024-11-08T16:00:00	8	Radiación solar	286
3705	7	Sololá	712	San Antonio Palopó	9	San Antonio Palopo	8	Agosto	2023-08-26T00:00:00	2024-11-08T17:00:00	2	Temperatura media	23.3
3706	7	Sololá	712	San Antonio Palopó	9	San Antonio Palopo	8	Agosto	2023-08-26T00:00:00	2024-11-08T17:00:00	4	Temperatura máxima	23.8
3707	7	Sololá	712	San Antonio Palopó	9	San Antonio Palopo	8	Agosto	2023-08-26T00:00:00	2024-11-08T17:00:00	3	Temperatura mínima	22.9
3708	7	Sololá	712	San Antonio Palopó	9	San Antonio Palopo	8	Agosto	2023-08-26T00:00:00	2024-11-08T17:00:00	5	Humedad	74
3709	7	Sololá	712	San Antonio Palopó	9	San Antonio Palopo	8	Agosto	2023-08-26T00:00:00	2024-11-08T17:00:00	6	Velocidad del viento	4.8
3710	7	Sololá	712	San Antonio Palopó	9	San Antonio Palopo	8	Agosto	2023-08-26T00:00:00	2024-11-08T17:00:00	7	Dirección del viento	4.83
3711	7	Sololá	712	San Antonio Palopó	9	San Antonio Palopo	8	Agosto	2023-08-26T00:00:00	2024-11-08T17:00:00	1	Precipitación	0
3712	7	Sololá	712	San Antonio Palopó	9	San Antonio Palopo	8	Agosto	2023-08-26T00:00:00	2024-11-08T17:00:00	8	Radiación solar	233
3713	7	Sololá	712	San Antonio Palopó	9	San Antonio Palopo	8	Agosto	2023-08-26T00:00:00	2024-11-08T18:00:00	2	Temperatura media	22.4
3714	7	Sololá	712	San Antonio Palopó	9	San Antonio Palopo	8	Agosto	2023-08-26T00:00:00	2024-11-08T18:00:00	4	Temperatura máxima	23.3
3715	7	Sololá	712	San Antonio Palopó	9	San Antonio Palopo	8	Agosto	2023-08-26T00:00:00	2024-11-08T18:00:00	3	Temperatura mínima	22.3
3716	7	Sololá	712	San Antonio Palopó	9	San Antonio Palopo	8	Agosto	2023-08-26T00:00:00	2024-11-08T18:00:00	5	Humedad	77
3717	7	Sololá	712	San Antonio Palopó	9	San Antonio Palopo	8	Agosto	2023-08-26T00:00:00	2024-11-08T18:00:00	6	Velocidad del viento	3.2
3718	7	Sololá	712	San Antonio Palopó	9	San Antonio Palopo	8	Agosto	2023-08-26T00:00:00	2024-11-08T18:00:00	7	Dirección del viento	3.22
3719	7	Sololá	712	San Antonio Palopó	9	San Antonio Palopo	8	Agosto	2023-08-26T00:00:00	2024-11-08T18:00:00	1	Precipitación	0
3720	7	Sololá	712	San Antonio Palopó	9	San Antonio Palopo	8	Agosto	2023-08-26T00:00:00	2024-11-08T18:00:00	8	Radiación solar	65
3721	7	Sololá	712	San Antonio Palopó	9	San Antonio Palopo	8	Agosto	2023-08-26T00:00:00	2024-11-08T19:00:00	2	Temperatura media	21.8
3722	7	Sololá	712	San Antonio Palopó	9	San Antonio Palopo	8	Agosto	2023-08-26T00:00:00	2024-11-08T19:00:00	4	Temperatura máxima	22.4
3723	7	Sololá	712	San Antonio Palopó	9	San Antonio Palopo	8	Agosto	2023-08-26T00:00:00	2024-11-08T19:00:00	3	Temperatura mínima	21.8
3724	7	Sololá	712	San Antonio Palopó	9	San Antonio Palopo	8	Agosto	2023-08-26T00:00:00	2024-11-08T19:00:00	5	Humedad	78
3725	7	Sololá	712	San Antonio Palopó	9	San Antonio Palopo	8	Agosto	2023-08-26T00:00:00	2024-11-08T19:00:00	6	Velocidad del viento	3.2
3726	7	Sololá	712	San Antonio Palopó	9	San Antonio Palopo	8	Agosto	2023-08-26T00:00:00	2024-11-08T19:00:00	7	Dirección del viento	3.22
3727	7	Sololá	712	San Antonio Palopó	9	San Antonio Palopo	8	Agosto	2023-08-26T00:00:00	2024-11-08T19:00:00	1	Precipitación	0
3728	7	Sololá	712	San Antonio Palopó	9	San Antonio Palopo	8	Agosto	2023-08-26T00:00:00	2024-11-08T19:00:00	8	Radiación solar	0
3729	7	Sololá	712	San Antonio Palopó	9	San Antonio Palopo	8	Agosto	2023-08-26T00:00:00	2024-11-08T20:00:00	2	Temperatura media	21.3
3730	7	Sololá	712	San Antonio Palopó	9	San Antonio Palopo	8	Agosto	2023-08-26T00:00:00	2024-11-08T20:00:00	4	Temperatura máxima	21.8
3731	7	Sololá	712	San Antonio Palopó	9	San Antonio Palopo	8	Agosto	2023-08-26T00:00:00	2024-11-08T20:00:00	3	Temperatura mínima	21.3
3732	7	Sololá	712	San Antonio Palopó	9	San Antonio Palopo	8	Agosto	2023-08-26T00:00:00	2024-11-08T20:00:00	5	Humedad	81
3733	7	Sololá	712	San Antonio Palopó	9	San Antonio Palopo	8	Agosto	2023-08-26T00:00:00	2024-11-08T20:00:00	6	Velocidad del viento	4.8
3734	7	Sololá	712	San Antonio Palopó	9	San Antonio Palopo	8	Agosto	2023-08-26T00:00:00	2024-11-08T20:00:00	7	Dirección del viento	4.83
3735	7	Sololá	712	San Antonio Palopó	9	San Antonio Palopo	8	Agosto	2023-08-26T00:00:00	2024-11-08T20:00:00	1	Precipitación	0
3736	7	Sololá	712	San Antonio Palopó	9	San Antonio Palopo	8	Agosto	2023-08-26T00:00:00	2024-11-08T20:00:00	8	Radiación solar	0
3737	7	Sololá	712	San Antonio Palopó	9	San Antonio Palopo	8	Agosto	2023-08-26T00:00:00	2024-11-08T21:00:00	2	Temperatura media	21.3
3738	7	Sololá	712	San Antonio Palopó	9	San Antonio Palopo	8	Agosto	2023-08-26T00:00:00	2024-11-08T21:00:00	4	Temperatura máxima	21.4
3739	7	Sololá	712	San Antonio Palopó	9	San Antonio Palopo	8	Agosto	2023-08-26T00:00:00	2024-11-08T21:00:00	3	Temperatura mínima	21.3
3740	7	Sololá	712	San Antonio Palopó	9	San Antonio Palopo	8	Agosto	2023-08-26T00:00:00	2024-11-08T21:00:00	5	Humedad	81
3741	7	Sololá	712	San Antonio Palopó	9	San Antonio Palopo	8	Agosto	2023-08-26T00:00:00	2024-11-08T21:00:00	6	Velocidad del viento	3.2
3742	7	Sololá	712	San Antonio Palopó	9	San Antonio Palopo	8	Agosto	2023-08-26T00:00:00	2024-11-08T21:00:00	7	Dirección del viento	3.22
3743	7	Sololá	712	San Antonio Palopó	9	San Antonio Palopo	8	Agosto	2023-08-26T00:00:00	2024-11-08T21:00:00	1	Precipitación	0
3744	7	Sololá	712	San Antonio Palopó	9	San Antonio Palopo	8	Agosto	2023-08-26T00:00:00	2024-11-08T21:00:00	8	Radiación solar	0
3745	7	Sololá	712	San Antonio Palopó	9	San Antonio Palopo	8	Agosto	2023-08-26T00:00:00	2024-11-08T22:00:00	2	Temperatura media	20.8
3746	7	Sololá	712	San Antonio Palopó	9	San Antonio Palopo	8	Agosto	2023-08-26T00:00:00	2024-11-08T22:00:00	4	Temperatura máxima	21.3
3747	7	Sololá	712	San Antonio Palopó	9	San Antonio Palopo	8	Agosto	2023-08-26T00:00:00	2024-11-08T22:00:00	3	Temperatura mínima	20.6
3748	7	Sololá	712	San Antonio Palopó	9	San Antonio Palopo	8	Agosto	2023-08-26T00:00:00	2024-11-08T22:00:00	5	Humedad	83
3749	7	Sololá	712	San Antonio Palopó	9	San Antonio Palopo	8	Agosto	2023-08-26T00:00:00	2024-11-08T22:00:00	6	Velocidad del viento	4.8
3750	7	Sololá	712	San Antonio Palopó	9	San Antonio Palopo	8	Agosto	2023-08-26T00:00:00	2024-11-08T22:00:00	7	Dirección del viento	4.83
3751	7	Sololá	712	San Antonio Palopó	9	San Antonio Palopo	8	Agosto	2023-08-26T00:00:00	2024-11-08T22:00:00	1	Precipitación	0
3752	7	Sololá	712	San Antonio Palopó	9	San Antonio Palopo	8	Agosto	2023-08-26T00:00:00	2024-11-08T22:00:00	8	Radiación solar	0
3753	7	Sololá	712	San Antonio Palopó	9	San Antonio Palopo	8	Agosto	2023-08-26T00:00:00	2024-11-08T23:00:00	2	Temperatura media	20.8
3754	7	Sololá	712	San Antonio Palopó	9	San Antonio Palopo	8	Agosto	2023-08-26T00:00:00	2024-11-08T23:00:00	4	Temperatura máxima	20.8
3755	7	Sololá	712	San Antonio Palopó	9	San Antonio Palopo	8	Agosto	2023-08-26T00:00:00	2024-11-08T23:00:00	3	Temperatura mínima	20.7
3756	7	Sololá	712	San Antonio Palopó	9	San Antonio Palopo	8	Agosto	2023-08-26T00:00:00	2024-11-08T23:00:00	5	Humedad	81
3757	7	Sololá	712	San Antonio Palopó	9	San Antonio Palopo	8	Agosto	2023-08-26T00:00:00	2024-11-08T23:00:00	6	Velocidad del viento	3.2
3758	7	Sololá	712	San Antonio Palopó	9	San Antonio Palopo	8	Agosto	2023-08-26T00:00:00	2024-11-08T23:00:00	7	Dirección del viento	3.22
3759	7	Sololá	712	San Antonio Palopó	9	San Antonio Palopo	8	Agosto	2023-08-26T00:00:00	2024-11-08T23:00:00	1	Precipitación	0
3760	7	Sololá	712	San Antonio Palopó	9	San Antonio Palopo	8	Agosto	2023-08-26T00:00:00	2024-11-08T23:00:00	8	Radiación solar	0
3761	7	Sololá	712	San Antonio Palopó	9	San Antonio Palopo	8	Agosto	2023-08-27T00:00:00	2024-11-08T00:00:00	2	Temperatura media	20.4
3762	7	Sololá	712	San Antonio Palopó	9	San Antonio Palopo	8	Agosto	2023-08-27T00:00:00	2024-11-08T00:00:00	4	Temperatura máxima	20.8
3763	7	Sololá	712	San Antonio Palopó	9	San Antonio Palopo	8	Agosto	2023-08-27T00:00:00	2024-11-08T00:00:00	3	Temperatura mínima	20.4
3764	7	Sololá	712	San Antonio Palopó	9	San Antonio Palopo	8	Agosto	2023-08-27T00:00:00	2024-11-08T00:00:00	5	Humedad	81
3765	7	Sololá	712	San Antonio Palopó	9	San Antonio Palopo	8	Agosto	2023-08-27T00:00:00	2024-11-08T00:00:00	6	Velocidad del viento	1.6
3766	7	Sololá	712	San Antonio Palopó	9	San Antonio Palopo	8	Agosto	2023-08-27T00:00:00	2024-11-08T00:00:00	7	Dirección del viento	1.61
3767	7	Sololá	712	San Antonio Palopó	9	San Antonio Palopo	8	Agosto	2023-08-27T00:00:00	2024-11-08T00:00:00	1	Precipitación	0
3768	7	Sololá	712	San Antonio Palopó	9	San Antonio Palopo	8	Agosto	2023-08-27T00:00:00	2024-11-08T00:00:00	8	Radiación solar	0
3769	7	Sololá	712	San Antonio Palopó	9	San Antonio Palopo	8	Agosto	2023-08-27T00:00:00	2024-11-08T01:00:00	2	Temperatura media	19.8
3770	7	Sololá	712	San Antonio Palopó	9	San Antonio Palopo	8	Agosto	2023-08-27T00:00:00	2024-11-08T01:00:00	4	Temperatura máxima	20.4
3771	7	Sololá	712	San Antonio Palopó	9	San Antonio Palopo	8	Agosto	2023-08-27T00:00:00	2024-11-08T01:00:00	3	Temperatura mínima	19.8
3772	7	Sololá	712	San Antonio Palopó	9	San Antonio Palopo	8	Agosto	2023-08-27T00:00:00	2024-11-08T01:00:00	5	Humedad	82
3773	7	Sololá	712	San Antonio Palopó	9	San Antonio Palopo	8	Agosto	2023-08-27T00:00:00	2024-11-08T01:00:00	6	Velocidad del viento	1.6
3774	7	Sololá	712	San Antonio Palopó	9	San Antonio Palopo	8	Agosto	2023-08-27T00:00:00	2024-11-08T01:00:00	7	Dirección del viento	1.61
3775	7	Sololá	712	San Antonio Palopó	9	San Antonio Palopo	8	Agosto	2023-08-27T00:00:00	2024-11-08T01:00:00	1	Precipitación	0
3776	7	Sololá	712	San Antonio Palopó	9	San Antonio Palopo	8	Agosto	2023-08-27T00:00:00	2024-11-08T01:00:00	8	Radiación solar	0
3777	7	Sololá	712	San Antonio Palopó	9	San Antonio Palopo	8	Agosto	2023-08-27T00:00:00	2024-11-08T02:00:00	2	Temperatura media	19.6
3778	7	Sololá	712	San Antonio Palopó	9	San Antonio Palopo	8	Agosto	2023-08-27T00:00:00	2024-11-08T02:00:00	4	Temperatura máxima	19.8
3779	7	Sololá	712	San Antonio Palopó	9	San Antonio Palopo	8	Agosto	2023-08-27T00:00:00	2024-11-08T02:00:00	3	Temperatura mínima	19.6
3780	7	Sololá	712	San Antonio Palopó	9	San Antonio Palopo	8	Agosto	2023-08-27T00:00:00	2024-11-08T02:00:00	5	Humedad	82
3781	7	Sololá	712	San Antonio Palopó	9	San Antonio Palopo	8	Agosto	2023-08-27T00:00:00	2024-11-08T02:00:00	6	Velocidad del viento	1.6
3782	7	Sololá	712	San Antonio Palopó	9	San Antonio Palopo	8	Agosto	2023-08-27T00:00:00	2024-11-08T02:00:00	7	Dirección del viento	1.61
3783	7	Sololá	712	San Antonio Palopó	9	San Antonio Palopo	8	Agosto	2023-08-27T00:00:00	2024-11-08T02:00:00	1	Precipitación	0
3784	7	Sololá	712	San Antonio Palopó	9	San Antonio Palopo	8	Agosto	2023-08-27T00:00:00	2024-11-08T02:00:00	8	Radiación solar	0
3785	7	Sololá	712	San Antonio Palopó	9	San Antonio Palopo	8	Agosto	2023-08-27T00:00:00	2024-11-08T03:00:00	2	Temperatura media	19.4
3786	7	Sololá	712	San Antonio Palopó	9	San Antonio Palopo	8	Agosto	2023-08-27T00:00:00	2024-11-08T03:00:00	4	Temperatura máxima	19.6
3787	7	Sololá	712	San Antonio Palopó	9	San Antonio Palopo	8	Agosto	2023-08-27T00:00:00	2024-11-08T03:00:00	3	Temperatura mínima	19.3
3788	7	Sololá	712	San Antonio Palopó	9	San Antonio Palopo	8	Agosto	2023-08-27T00:00:00	2024-11-08T03:00:00	5	Humedad	84
3789	7	Sololá	712	San Antonio Palopó	9	San Antonio Palopo	8	Agosto	2023-08-27T00:00:00	2024-11-08T03:00:00	6	Velocidad del viento	3.2
3790	7	Sololá	712	San Antonio Palopó	9	San Antonio Palopo	8	Agosto	2023-08-27T00:00:00	2024-11-08T03:00:00	7	Dirección del viento	3.22
3791	7	Sololá	712	San Antonio Palopó	9	San Antonio Palopo	8	Agosto	2023-08-27T00:00:00	2024-11-08T03:00:00	1	Precipitación	0
3792	7	Sololá	712	San Antonio Palopó	9	San Antonio Palopo	8	Agosto	2023-08-27T00:00:00	2024-11-08T03:00:00	8	Radiación solar	0
3793	7	Sololá	712	San Antonio Palopó	9	San Antonio Palopo	8	Agosto	2023-08-27T00:00:00	2024-11-08T04:00:00	2	Temperatura media	19.4
3794	7	Sololá	712	San Antonio Palopó	9	San Antonio Palopo	8	Agosto	2023-08-27T00:00:00	2024-11-08T04:00:00	4	Temperatura máxima	19.4
3795	7	Sololá	712	San Antonio Palopó	9	San Antonio Palopo	8	Agosto	2023-08-27T00:00:00	2024-11-08T04:00:00	3	Temperatura mínima	19.2
3796	7	Sololá	712	San Antonio Palopó	9	San Antonio Palopo	8	Agosto	2023-08-27T00:00:00	2024-11-08T04:00:00	5	Humedad	84
3797	7	Sololá	712	San Antonio Palopó	9	San Antonio Palopo	8	Agosto	2023-08-27T00:00:00	2024-11-08T04:00:00	6	Velocidad del viento	1.6
3798	7	Sololá	712	San Antonio Palopó	9	San Antonio Palopo	8	Agosto	2023-08-27T00:00:00	2024-11-08T04:00:00	7	Dirección del viento	1.61
3799	7	Sololá	712	San Antonio Palopó	9	San Antonio Palopo	8	Agosto	2023-08-27T00:00:00	2024-11-08T04:00:00	1	Precipitación	0
3800	7	Sololá	712	San Antonio Palopó	9	San Antonio Palopo	8	Agosto	2023-08-27T00:00:00	2024-11-08T04:00:00	8	Radiación solar	0
3801	7	Sololá	712	San Antonio Palopó	9	San Antonio Palopo	8	Agosto	2023-08-27T00:00:00	2024-11-08T05:00:00	2	Temperatura media	19.3
3802	7	Sololá	712	San Antonio Palopó	9	San Antonio Palopo	8	Agosto	2023-08-27T00:00:00	2024-11-08T05:00:00	4	Temperatura máxima	19.6
3803	7	Sololá	712	San Antonio Palopó	9	San Antonio Palopo	8	Agosto	2023-08-27T00:00:00	2024-11-08T05:00:00	3	Temperatura mínima	19.2
3804	7	Sololá	712	San Antonio Palopó	9	San Antonio Palopo	8	Agosto	2023-08-27T00:00:00	2024-11-08T05:00:00	5	Humedad	84
3805	7	Sololá	712	San Antonio Palopó	9	San Antonio Palopo	8	Agosto	2023-08-27T00:00:00	2024-11-08T05:00:00	6	Velocidad del viento	1.6
3806	7	Sololá	712	San Antonio Palopó	9	San Antonio Palopo	8	Agosto	2023-08-27T00:00:00	2024-11-08T05:00:00	7	Dirección del viento	1.61
3807	7	Sololá	712	San Antonio Palopó	9	San Antonio Palopo	8	Agosto	2023-08-27T00:00:00	2024-11-08T05:00:00	1	Precipitación	0
3808	7	Sololá	712	San Antonio Palopó	9	San Antonio Palopo	8	Agosto	2023-08-27T00:00:00	2024-11-08T05:00:00	8	Radiación solar	0
3809	7	Sololá	712	San Antonio Palopó	9	San Antonio Palopo	8	Agosto	2023-08-27T00:00:00	2024-11-08T06:00:00	2	Temperatura media	18.7
3810	7	Sololá	712	San Antonio Palopó	9	San Antonio Palopo	8	Agosto	2023-08-27T00:00:00	2024-11-08T06:00:00	4	Temperatura máxima	19.3
3811	7	Sololá	712	San Antonio Palopó	9	San Antonio Palopo	8	Agosto	2023-08-27T00:00:00	2024-11-08T06:00:00	3	Temperatura mínima	18.7
3812	7	Sololá	712	San Antonio Palopó	9	San Antonio Palopo	8	Agosto	2023-08-27T00:00:00	2024-11-08T06:00:00	5	Humedad	83
3813	7	Sololá	712	San Antonio Palopó	9	San Antonio Palopo	8	Agosto	2023-08-27T00:00:00	2024-11-08T06:00:00	6	Velocidad del viento	3.2
3814	7	Sololá	712	San Antonio Palopó	9	San Antonio Palopo	8	Agosto	2023-08-27T00:00:00	2024-11-08T06:00:00	7	Dirección del viento	3.22
3815	7	Sololá	712	San Antonio Palopó	9	San Antonio Palopo	8	Agosto	2023-08-27T00:00:00	2024-11-08T06:00:00	1	Precipitación	0
3816	7	Sololá	712	San Antonio Palopó	9	San Antonio Palopo	8	Agosto	2023-08-27T00:00:00	2024-11-08T06:00:00	8	Radiación solar	0
3817	7	Sololá	712	San Antonio Palopó	9	San Antonio Palopo	8	Agosto	2023-08-27T00:00:00	2024-11-08T07:00:00	2	Temperatura media	19.2
3818	7	Sololá	712	San Antonio Palopó	9	San Antonio Palopo	8	Agosto	2023-08-27T00:00:00	2024-11-08T07:00:00	4	Temperatura máxima	19.2
3819	7	Sololá	712	San Antonio Palopó	9	San Antonio Palopo	8	Agosto	2023-08-27T00:00:00	2024-11-08T07:00:00	3	Temperatura mínima	18.7
3820	7	Sololá	712	San Antonio Palopó	9	San Antonio Palopo	8	Agosto	2023-08-27T00:00:00	2024-11-08T07:00:00	5	Humedad	83
3821	7	Sololá	712	San Antonio Palopó	9	San Antonio Palopo	8	Agosto	2023-08-27T00:00:00	2024-11-08T07:00:00	6	Velocidad del viento	3.2
3822	7	Sololá	712	San Antonio Palopó	9	San Antonio Palopo	8	Agosto	2023-08-27T00:00:00	2024-11-08T07:00:00	7	Dirección del viento	3.22
3823	7	Sololá	712	San Antonio Palopó	9	San Antonio Palopo	8	Agosto	2023-08-27T00:00:00	2024-11-08T07:00:00	1	Precipitación	0
3824	7	Sololá	712	San Antonio Palopó	9	San Antonio Palopo	8	Agosto	2023-08-27T00:00:00	2024-11-08T07:00:00	8	Radiación solar	32
3825	7	Sololá	712	San Antonio Palopó	9	San Antonio Palopo	8	Agosto	2023-08-27T00:00:00	2024-11-08T08:00:00	2	Temperatura media	21.3
3826	7	Sololá	712	San Antonio Palopó	9	San Antonio Palopo	8	Agosto	2023-08-27T00:00:00	2024-11-08T08:00:00	4	Temperatura máxima	21.3
3827	7	Sololá	712	San Antonio Palopó	9	San Antonio Palopo	8	Agosto	2023-08-27T00:00:00	2024-11-08T08:00:00	3	Temperatura mínima	19.2
3828	7	Sololá	712	San Antonio Palopó	9	San Antonio Palopo	8	Agosto	2023-08-27T00:00:00	2024-11-08T08:00:00	5	Humedad	81
3829	7	Sololá	712	San Antonio Palopó	9	San Antonio Palopo	8	Agosto	2023-08-27T00:00:00	2024-11-08T08:00:00	6	Velocidad del viento	1.6
3830	7	Sololá	712	San Antonio Palopó	9	San Antonio Palopo	8	Agosto	2023-08-27T00:00:00	2024-11-08T08:00:00	7	Dirección del viento	1.61
3831	7	Sololá	712	San Antonio Palopó	9	San Antonio Palopo	8	Agosto	2023-08-27T00:00:00	2024-11-08T08:00:00	1	Precipitación	0
3832	7	Sololá	712	San Antonio Palopó	9	San Antonio Palopo	8	Agosto	2023-08-27T00:00:00	2024-11-08T08:00:00	8	Radiación solar	183
3833	7	Sololá	712	San Antonio Palopó	9	San Antonio Palopo	8	Agosto	2023-08-27T00:00:00	2024-11-08T09:00:00	2	Temperatura media	21.7
3834	7	Sololá	712	San Antonio Palopó	9	San Antonio Palopo	8	Agosto	2023-08-27T00:00:00	2024-11-08T09:00:00	4	Temperatura máxima	21.8
3835	7	Sololá	712	San Antonio Palopó	9	San Antonio Palopo	8	Agosto	2023-08-27T00:00:00	2024-11-08T09:00:00	3	Temperatura mínima	21.3
3836	7	Sololá	712	San Antonio Palopó	9	San Antonio Palopo	8	Agosto	2023-08-27T00:00:00	2024-11-08T09:00:00	5	Humedad	79
3837	7	Sololá	712	San Antonio Palopó	9	San Antonio Palopo	8	Agosto	2023-08-27T00:00:00	2024-11-08T09:00:00	6	Velocidad del viento	3.2
3838	7	Sololá	712	San Antonio Palopó	9	San Antonio Palopo	8	Agosto	2023-08-27T00:00:00	2024-11-08T09:00:00	7	Dirección del viento	3.22
3839	7	Sololá	712	San Antonio Palopó	9	San Antonio Palopo	8	Agosto	2023-08-27T00:00:00	2024-11-08T09:00:00	1	Precipitación	0
3840	7	Sololá	712	San Antonio Palopó	9	San Antonio Palopo	8	Agosto	2023-08-27T00:00:00	2024-11-08T09:00:00	8	Radiación solar	513
3841	7	Sololá	712	San Antonio Palopó	9	San Antonio Palopo	8	Agosto	2023-08-27T00:00:00	2024-11-08T10:00:00	2	Temperatura media	22.6
3842	7	Sololá	712	San Antonio Palopó	9	San Antonio Palopo	8	Agosto	2023-08-27T00:00:00	2024-11-08T10:00:00	4	Temperatura máxima	22.6
3843	7	Sololá	712	San Antonio Palopó	9	San Antonio Palopo	8	Agosto	2023-08-27T00:00:00	2024-11-08T10:00:00	3	Temperatura mínima	21.7
3844	7	Sololá	712	San Antonio Palopó	9	San Antonio Palopo	8	Agosto	2023-08-27T00:00:00	2024-11-08T10:00:00	5	Humedad	76
3845	7	Sololá	712	San Antonio Palopó	9	San Antonio Palopo	8	Agosto	2023-08-27T00:00:00	2024-11-08T10:00:00	6	Velocidad del viento	3.2
3846	7	Sololá	712	San Antonio Palopó	9	San Antonio Palopo	8	Agosto	2023-08-27T00:00:00	2024-11-08T10:00:00	7	Dirección del viento	3.22
3847	7	Sololá	712	San Antonio Palopó	9	San Antonio Palopo	8	Agosto	2023-08-27T00:00:00	2024-11-08T10:00:00	1	Precipitación	0
3848	7	Sololá	712	San Antonio Palopó	9	San Antonio Palopo	8	Agosto	2023-08-27T00:00:00	2024-11-08T10:00:00	8	Radiación solar	723
3849	7	Sololá	712	San Antonio Palopó	9	San Antonio Palopo	8	Agosto	2023-08-27T00:00:00	2024-11-08T11:00:00	2	Temperatura media	23.6
3850	7	Sololá	712	San Antonio Palopó	9	San Antonio Palopo	8	Agosto	2023-08-27T00:00:00	2024-11-08T11:00:00	4	Temperatura máxima	23.6
3851	7	Sololá	712	San Antonio Palopó	9	San Antonio Palopo	8	Agosto	2023-08-27T00:00:00	2024-11-08T11:00:00	3	Temperatura mínima	22.5
3852	7	Sololá	712	San Antonio Palopó	9	San Antonio Palopo	8	Agosto	2023-08-27T00:00:00	2024-11-08T11:00:00	5	Humedad	74
3853	7	Sololá	712	San Antonio Palopó	9	San Antonio Palopo	8	Agosto	2023-08-27T00:00:00	2024-11-08T11:00:00	6	Velocidad del viento	4.8
3854	7	Sololá	712	San Antonio Palopó	9	San Antonio Palopo	8	Agosto	2023-08-27T00:00:00	2024-11-08T11:00:00	7	Dirección del viento	4.83
3855	7	Sololá	712	San Antonio Palopó	9	San Antonio Palopo	8	Agosto	2023-08-27T00:00:00	2024-11-08T11:00:00	1	Precipitación	0
3856	7	Sololá	712	San Antonio Palopó	9	San Antonio Palopo	8	Agosto	2023-08-27T00:00:00	2024-11-08T11:00:00	8	Radiación solar	894
3857	7	Sololá	712	San Antonio Palopó	9	San Antonio Palopo	8	Agosto	2023-08-27T00:00:00	2024-11-08T12:00:00	2	Temperatura media	25
3858	7	Sololá	712	San Antonio Palopó	9	San Antonio Palopo	8	Agosto	2023-08-27T00:00:00	2024-11-08T12:00:00	4	Temperatura máxima	25.6
3859	7	Sololá	712	San Antonio Palopó	9	San Antonio Palopo	8	Agosto	2023-08-27T00:00:00	2024-11-08T12:00:00	3	Temperatura mínima	23.6
3860	7	Sololá	712	San Antonio Palopó	9	San Antonio Palopo	8	Agosto	2023-08-27T00:00:00	2024-11-08T12:00:00	5	Humedad	68
3861	7	Sololá	712	San Antonio Palopó	9	San Antonio Palopo	8	Agosto	2023-08-27T00:00:00	2024-11-08T12:00:00	6	Velocidad del viento	6.4
3862	7	Sololá	712	San Antonio Palopó	9	San Antonio Palopo	8	Agosto	2023-08-27T00:00:00	2024-11-08T12:00:00	7	Dirección del viento	6.44
3863	7	Sololá	712	San Antonio Palopó	9	San Antonio Palopo	8	Agosto	2023-08-27T00:00:00	2024-11-08T12:00:00	1	Precipitación	0
3864	7	Sololá	712	San Antonio Palopó	9	San Antonio Palopo	8	Agosto	2023-08-27T00:00:00	2024-11-08T12:00:00	8	Radiación solar	943
3865	7	Sololá	712	San Antonio Palopó	9	San Antonio Palopo	8	Agosto	2023-08-27T00:00:00	2024-11-08T13:00:00	2	Temperatura media	24.4
3866	7	Sololá	712	San Antonio Palopó	9	San Antonio Palopo	8	Agosto	2023-08-27T00:00:00	2024-11-08T13:00:00	4	Temperatura máxima	24.9
3867	7	Sololá	712	San Antonio Palopó	9	San Antonio Palopo	8	Agosto	2023-08-27T00:00:00	2024-11-08T13:00:00	3	Temperatura mínima	24.1
3868	7	Sololá	712	San Antonio Palopó	9	San Antonio Palopo	8	Agosto	2023-08-27T00:00:00	2024-11-08T13:00:00	5	Humedad	71
3869	7	Sololá	712	San Antonio Palopó	9	San Antonio Palopo	8	Agosto	2023-08-27T00:00:00	2024-11-08T13:00:00	6	Velocidad del viento	9.7
3870	7	Sololá	712	San Antonio Palopó	9	San Antonio Palopo	8	Agosto	2023-08-27T00:00:00	2024-11-08T13:00:00	7	Dirección del viento	9.66
3871	7	Sololá	712	San Antonio Palopó	9	San Antonio Palopo	8	Agosto	2023-08-27T00:00:00	2024-11-08T13:00:00	1	Precipitación	0
3872	7	Sololá	712	San Antonio Palopó	9	San Antonio Palopo	8	Agosto	2023-08-27T00:00:00	2024-11-08T13:00:00	8	Radiación solar	782
3873	7	Sololá	712	San Antonio Palopó	9	San Antonio Palopo	8	Agosto	2023-08-27T00:00:00	2024-11-08T14:00:00	2	Temperatura media	25.4
3874	7	Sololá	712	San Antonio Palopó	9	San Antonio Palopo	8	Agosto	2023-08-27T00:00:00	2024-11-08T14:00:00	4	Temperatura máxima	25.9
3875	7	Sololá	712	San Antonio Palopó	9	San Antonio Palopo	8	Agosto	2023-08-27T00:00:00	2024-11-08T14:00:00	3	Temperatura mínima	24.3
3876	7	Sololá	712	San Antonio Palopó	9	San Antonio Palopo	8	Agosto	2023-08-27T00:00:00	2024-11-08T14:00:00	5	Humedad	69
3877	7	Sololá	712	San Antonio Palopó	9	San Antonio Palopo	8	Agosto	2023-08-27T00:00:00	2024-11-08T14:00:00	6	Velocidad del viento	6.4
3878	7	Sololá	712	San Antonio Palopó	9	San Antonio Palopo	8	Agosto	2023-08-27T00:00:00	2024-11-08T14:00:00	7	Dirección del viento	6.44
3879	7	Sololá	712	San Antonio Palopó	9	San Antonio Palopo	8	Agosto	2023-08-27T00:00:00	2024-11-08T14:00:00	1	Precipitación	0
3880	7	Sololá	712	San Antonio Palopó	9	San Antonio Palopo	8	Agosto	2023-08-27T00:00:00	2024-11-08T14:00:00	8	Radiación solar	793
3881	7	Sololá	712	San Antonio Palopó	9	San Antonio Palopo	8	Agosto	2023-08-27T00:00:00	2024-11-08T15:00:00	2	Temperatura media	23.8
3882	7	Sololá	712	San Antonio Palopó	9	San Antonio Palopo	8	Agosto	2023-08-27T00:00:00	2024-11-08T15:00:00	4	Temperatura máxima	25.7
3883	7	Sololá	712	San Antonio Palopó	9	San Antonio Palopo	8	Agosto	2023-08-27T00:00:00	2024-11-08T15:00:00	3	Temperatura mínima	23.6
3884	7	Sololá	712	San Antonio Palopó	9	San Antonio Palopo	8	Agosto	2023-08-27T00:00:00	2024-11-08T15:00:00	5	Humedad	74
3885	7	Sololá	712	San Antonio Palopó	9	San Antonio Palopo	8	Agosto	2023-08-27T00:00:00	2024-11-08T15:00:00	6	Velocidad del viento	8
3886	7	Sololá	712	San Antonio Palopó	9	San Antonio Palopo	8	Agosto	2023-08-27T00:00:00	2024-11-08T15:00:00	7	Dirección del viento	8.05
3887	7	Sololá	712	San Antonio Palopó	9	San Antonio Palopo	8	Agosto	2023-08-27T00:00:00	2024-11-08T15:00:00	1	Precipitación	0
3888	7	Sololá	712	San Antonio Palopó	9	San Antonio Palopo	8	Agosto	2023-08-27T00:00:00	2024-11-08T15:00:00	8	Radiación solar	403
3889	7	Sololá	712	San Antonio Palopó	9	San Antonio Palopo	8	Agosto	2023-08-27T00:00:00	2024-11-08T16:00:00	2	Temperatura media	24.6
3890	7	Sololá	712	San Antonio Palopó	9	San Antonio Palopo	8	Agosto	2023-08-27T00:00:00	2024-11-08T16:00:00	4	Temperatura máxima	24.6
3891	7	Sololá	712	San Antonio Palopó	9	San Antonio Palopo	8	Agosto	2023-08-27T00:00:00	2024-11-08T16:00:00	3	Temperatura mínima	23.1
3892	7	Sololá	712	San Antonio Palopó	9	San Antonio Palopo	8	Agosto	2023-08-27T00:00:00	2024-11-08T16:00:00	5	Humedad	72
3893	7	Sololá	712	San Antonio Palopó	9	San Antonio Palopo	8	Agosto	2023-08-27T00:00:00	2024-11-08T16:00:00	6	Velocidad del viento	8
3894	7	Sololá	712	San Antonio Palopó	9	San Antonio Palopo	8	Agosto	2023-08-27T00:00:00	2024-11-08T16:00:00	7	Dirección del viento	8.05
3895	7	Sololá	712	San Antonio Palopó	9	San Antonio Palopo	8	Agosto	2023-08-27T00:00:00	2024-11-08T16:00:00	1	Precipitación	0
3896	7	Sololá	712	San Antonio Palopó	9	San Antonio Palopo	8	Agosto	2023-08-27T00:00:00	2024-11-08T16:00:00	8	Radiación solar	277
3897	7	Sololá	712	San Antonio Palopó	9	San Antonio Palopo	8	Agosto	2023-08-27T00:00:00	2024-11-08T17:00:00	2	Temperatura media	23.9
3898	7	Sololá	712	San Antonio Palopó	9	San Antonio Palopo	8	Agosto	2023-08-27T00:00:00	2024-11-08T17:00:00	4	Temperatura máxima	24.8
3899	7	Sololá	712	San Antonio Palopó	9	San Antonio Palopo	8	Agosto	2023-08-27T00:00:00	2024-11-08T17:00:00	3	Temperatura mínima	23.6
3900	7	Sololá	712	San Antonio Palopó	9	San Antonio Palopo	8	Agosto	2023-08-27T00:00:00	2024-11-08T17:00:00	5	Humedad	74
3901	7	Sololá	712	San Antonio Palopó	9	San Antonio Palopo	8	Agosto	2023-08-27T00:00:00	2024-11-08T17:00:00	6	Velocidad del viento	8
3902	7	Sololá	712	San Antonio Palopó	9	San Antonio Palopo	8	Agosto	2023-08-27T00:00:00	2024-11-08T17:00:00	7	Dirección del viento	8.05
3903	7	Sololá	712	San Antonio Palopó	9	San Antonio Palopo	8	Agosto	2023-08-27T00:00:00	2024-11-08T17:00:00	1	Precipitación	0
3904	7	Sololá	712	San Antonio Palopó	9	San Antonio Palopo	8	Agosto	2023-08-27T00:00:00	2024-11-08T17:00:00	8	Radiación solar	305
3905	7	Sololá	712	San Antonio Palopó	9	San Antonio Palopo	8	Agosto	2023-08-27T00:00:00	2024-11-08T18:00:00	2	Temperatura media	22.6
3906	7	Sololá	712	San Antonio Palopó	9	San Antonio Palopo	8	Agosto	2023-08-27T00:00:00	2024-11-08T18:00:00	4	Temperatura máxima	24.3
3907	7	Sololá	712	San Antonio Palopó	9	San Antonio Palopo	8	Agosto	2023-08-27T00:00:00	2024-11-08T18:00:00	3	Temperatura mínima	22.6
3908	7	Sololá	712	San Antonio Palopó	9	San Antonio Palopo	8	Agosto	2023-08-27T00:00:00	2024-11-08T18:00:00	5	Humedad	77
3909	7	Sololá	712	San Antonio Palopó	9	San Antonio Palopo	8	Agosto	2023-08-27T00:00:00	2024-11-08T18:00:00	6	Velocidad del viento	4.8
3910	7	Sololá	712	San Antonio Palopó	9	San Antonio Palopo	8	Agosto	2023-08-27T00:00:00	2024-11-08T18:00:00	7	Dirección del viento	4.83
3911	7	Sololá	712	San Antonio Palopó	9	San Antonio Palopo	8	Agosto	2023-08-27T00:00:00	2024-11-08T18:00:00	1	Precipitación	0
3912	7	Sololá	712	San Antonio Palopó	9	San Antonio Palopo	8	Agosto	2023-08-27T00:00:00	2024-11-08T18:00:00	8	Radiación solar	82
3913	7	Sololá	712	San Antonio Palopó	9	San Antonio Palopo	8	Agosto	2023-08-27T00:00:00	2024-11-08T19:00:00	2	Temperatura media	22.1
3914	7	Sololá	712	San Antonio Palopó	9	San Antonio Palopo	8	Agosto	2023-08-27T00:00:00	2024-11-08T19:00:00	4	Temperatura máxima	22.6
3915	7	Sololá	712	San Antonio Palopó	9	San Antonio Palopo	8	Agosto	2023-08-27T00:00:00	2024-11-08T19:00:00	3	Temperatura mínima	22.1
3916	7	Sololá	712	San Antonio Palopó	9	San Antonio Palopo	8	Agosto	2023-08-27T00:00:00	2024-11-08T19:00:00	5	Humedad	78
3917	7	Sololá	712	San Antonio Palopó	9	San Antonio Palopo	8	Agosto	2023-08-27T00:00:00	2024-11-08T19:00:00	6	Velocidad del viento	3.2
3918	7	Sololá	712	San Antonio Palopó	9	San Antonio Palopo	8	Agosto	2023-08-27T00:00:00	2024-11-08T19:00:00	7	Dirección del viento	3.22
3919	7	Sololá	712	San Antonio Palopó	9	San Antonio Palopo	8	Agosto	2023-08-27T00:00:00	2024-11-08T19:00:00	1	Precipitación	0
3920	7	Sololá	712	San Antonio Palopó	9	San Antonio Palopo	8	Agosto	2023-08-27T00:00:00	2024-11-08T19:00:00	8	Radiación solar	0
3921	7	Sololá	712	San Antonio Palopó	9	San Antonio Palopo	8	Agosto	2023-08-27T00:00:00	2024-11-08T20:00:00	2	Temperatura media	21.7
3922	7	Sololá	712	San Antonio Palopó	9	San Antonio Palopo	8	Agosto	2023-08-27T00:00:00	2024-11-08T20:00:00	4	Temperatura máxima	22.1
3923	7	Sololá	712	San Antonio Palopó	9	San Antonio Palopo	8	Agosto	2023-08-27T00:00:00	2024-11-08T20:00:00	3	Temperatura mínima	21.6
3924	7	Sololá	712	San Antonio Palopó	9	San Antonio Palopo	8	Agosto	2023-08-27T00:00:00	2024-11-08T20:00:00	5	Humedad	80
3925	7	Sololá	712	San Antonio Palopó	9	San Antonio Palopo	8	Agosto	2023-08-27T00:00:00	2024-11-08T20:00:00	6	Velocidad del viento	3.2
3926	7	Sololá	712	San Antonio Palopó	9	San Antonio Palopo	8	Agosto	2023-08-27T00:00:00	2024-11-08T20:00:00	7	Dirección del viento	3.22
3927	7	Sololá	712	San Antonio Palopó	9	San Antonio Palopo	8	Agosto	2023-08-27T00:00:00	2024-11-08T20:00:00	1	Precipitación	0
3928	7	Sololá	712	San Antonio Palopó	9	San Antonio Palopo	8	Agosto	2023-08-27T00:00:00	2024-11-08T20:00:00	8	Radiación solar	0
3929	7	Sololá	712	San Antonio Palopó	9	San Antonio Palopo	8	Agosto	2023-08-27T00:00:00	2024-11-08T21:00:00	2	Temperatura media	20.4
3930	7	Sololá	712	San Antonio Palopó	9	San Antonio Palopo	8	Agosto	2023-08-27T00:00:00	2024-11-08T21:00:00	4	Temperatura máxima	21.9
3931	7	Sololá	712	San Antonio Palopó	9	San Antonio Palopo	8	Agosto	2023-08-27T00:00:00	2024-11-08T21:00:00	3	Temperatura mínima	20.4
3932	7	Sololá	712	San Antonio Palopó	9	San Antonio Palopo	8	Agosto	2023-08-27T00:00:00	2024-11-08T21:00:00	5	Humedad	83
3933	7	Sololá	712	San Antonio Palopó	9	San Antonio Palopo	8	Agosto	2023-08-27T00:00:00	2024-11-08T21:00:00	6	Velocidad del viento	6.4
3934	7	Sololá	712	San Antonio Palopó	9	San Antonio Palopo	8	Agosto	2023-08-27T00:00:00	2024-11-08T21:00:00	7	Dirección del viento	6.44
3935	7	Sololá	712	San Antonio Palopó	9	San Antonio Palopo	8	Agosto	2023-08-27T00:00:00	2024-11-08T21:00:00	1	Precipitación	0
3936	7	Sololá	712	San Antonio Palopó	9	San Antonio Palopo	8	Agosto	2023-08-27T00:00:00	2024-11-08T21:00:00	8	Radiación solar	0
3937	7	Sololá	712	San Antonio Palopó	9	San Antonio Palopo	8	Agosto	2023-08-27T00:00:00	2024-11-08T22:00:00	2	Temperatura media	19.4
3938	7	Sololá	712	San Antonio Palopó	9	San Antonio Palopo	8	Agosto	2023-08-27T00:00:00	2024-11-08T22:00:00	4	Temperatura máxima	20.4
3939	7	Sololá	712	San Antonio Palopó	9	San Antonio Palopo	8	Agosto	2023-08-27T00:00:00	2024-11-08T22:00:00	3	Temperatura mínima	19.4
3940	7	Sololá	712	San Antonio Palopó	9	San Antonio Palopo	8	Agosto	2023-08-27T00:00:00	2024-11-08T22:00:00	5	Humedad	88
3941	7	Sololá	712	San Antonio Palopó	9	San Antonio Palopo	8	Agosto	2023-08-27T00:00:00	2024-11-08T22:00:00	6	Velocidad del viento	3.2
3942	7	Sololá	712	San Antonio Palopó	9	San Antonio Palopo	8	Agosto	2023-08-27T00:00:00	2024-11-08T22:00:00	7	Dirección del viento	3.22
3943	7	Sololá	712	San Antonio Palopó	9	San Antonio Palopo	8	Agosto	2023-08-27T00:00:00	2024-11-08T22:00:00	1	Precipitación	1.4
3944	7	Sololá	712	San Antonio Palopó	9	San Antonio Palopo	8	Agosto	2023-08-27T00:00:00	2024-11-08T22:00:00	8	Radiación solar	0
3945	7	Sololá	712	San Antonio Palopó	9	San Antonio Palopo	8	Agosto	2023-08-27T00:00:00	2024-11-08T23:00:00	2	Temperatura media	19.3
3946	7	Sololá	712	San Antonio Palopó	9	San Antonio Palopo	8	Agosto	2023-08-27T00:00:00	2024-11-08T23:00:00	4	Temperatura máxima	19.5
3947	7	Sololá	712	San Antonio Palopó	9	San Antonio Palopo	8	Agosto	2023-08-27T00:00:00	2024-11-08T23:00:00	3	Temperatura mínima	19.1
3948	7	Sololá	712	San Antonio Palopó	9	San Antonio Palopo	8	Agosto	2023-08-27T00:00:00	2024-11-08T23:00:00	5	Humedad	89
3949	7	Sololá	712	San Antonio Palopó	9	San Antonio Palopo	8	Agosto	2023-08-27T00:00:00	2024-11-08T23:00:00	6	Velocidad del viento	1.6
3950	7	Sololá	712	San Antonio Palopó	9	San Antonio Palopo	8	Agosto	2023-08-27T00:00:00	2024-11-08T23:00:00	7	Dirección del viento	1.61
3951	7	Sololá	712	San Antonio Palopó	9	San Antonio Palopo	8	Agosto	2023-08-27T00:00:00	2024-11-08T23:00:00	1	Precipitación	1.2
3952	7	Sololá	712	San Antonio Palopó	9	San Antonio Palopo	8	Agosto	2023-08-27T00:00:00	2024-11-08T23:00:00	8	Radiación solar	0
3953	7	Sololá	712	San Antonio Palopó	9	San Antonio Palopo	8	Agosto	2023-08-28T00:00:00	2024-11-08T00:00:00	2	Temperatura media	19.2
3954	7	Sololá	712	San Antonio Palopó	9	San Antonio Palopo	8	Agosto	2023-08-28T00:00:00	2024-11-08T00:00:00	4	Temperatura máxima	19.3
3955	7	Sololá	712	San Antonio Palopó	9	San Antonio Palopo	8	Agosto	2023-08-28T00:00:00	2024-11-08T00:00:00	3	Temperatura mínima	19.1
3956	7	Sololá	712	San Antonio Palopó	9	San Antonio Palopo	8	Agosto	2023-08-28T00:00:00	2024-11-08T00:00:00	5	Humedad	89
3957	7	Sololá	712	San Antonio Palopó	9	San Antonio Palopo	8	Agosto	2023-08-28T00:00:00	2024-11-08T00:00:00	6	Velocidad del viento	1.6
3958	7	Sololá	712	San Antonio Palopó	9	San Antonio Palopo	8	Agosto	2023-08-28T00:00:00	2024-11-08T00:00:00	7	Dirección del viento	1.61
3959	7	Sololá	712	San Antonio Palopó	9	San Antonio Palopo	8	Agosto	2023-08-28T00:00:00	2024-11-08T00:00:00	1	Precipitación	1.2
3960	7	Sololá	712	San Antonio Palopó	9	San Antonio Palopo	8	Agosto	2023-08-28T00:00:00	2024-11-08T00:00:00	8	Radiación solar	0
3961	7	Sololá	712	San Antonio Palopó	9	San Antonio Palopo	8	Agosto	2023-08-28T00:00:00	2024-11-08T01:00:00	2	Temperatura media	18.9
3962	7	Sololá	712	San Antonio Palopó	9	San Antonio Palopo	8	Agosto	2023-08-28T00:00:00	2024-11-08T01:00:00	4	Temperatura máxima	19.2
3963	7	Sololá	712	San Antonio Palopó	9	San Antonio Palopo	8	Agosto	2023-08-28T00:00:00	2024-11-08T01:00:00	3	Temperatura mínima	18.9
3964	7	Sololá	712	San Antonio Palopó	9	San Antonio Palopo	8	Agosto	2023-08-28T00:00:00	2024-11-08T01:00:00	5	Humedad	89
3965	7	Sololá	712	San Antonio Palopó	9	San Antonio Palopo	8	Agosto	2023-08-28T00:00:00	2024-11-08T01:00:00	6	Velocidad del viento	1.6
3966	7	Sololá	712	San Antonio Palopó	9	San Antonio Palopo	8	Agosto	2023-08-28T00:00:00	2024-11-08T01:00:00	7	Dirección del viento	1.61
3967	7	Sololá	712	San Antonio Palopó	9	San Antonio Palopo	8	Agosto	2023-08-28T00:00:00	2024-11-08T01:00:00	1	Precipitación	0.6
3968	7	Sololá	712	San Antonio Palopó	9	San Antonio Palopo	8	Agosto	2023-08-28T00:00:00	2024-11-08T01:00:00	8	Radiación solar	0
3969	7	Sololá	712	San Antonio Palopó	9	San Antonio Palopo	8	Agosto	2023-08-28T00:00:00	2024-11-08T02:00:00	2	Temperatura media	18.9
3970	7	Sololá	712	San Antonio Palopó	9	San Antonio Palopo	8	Agosto	2023-08-28T00:00:00	2024-11-08T02:00:00	4	Temperatura máxima	18.9
3971	7	Sololá	712	San Antonio Palopó	9	San Antonio Palopo	8	Agosto	2023-08-28T00:00:00	2024-11-08T02:00:00	3	Temperatura mínima	18.4
3972	7	Sololá	712	San Antonio Palopó	9	San Antonio Palopo	8	Agosto	2023-08-28T00:00:00	2024-11-08T02:00:00	5	Humedad	85
3973	7	Sololá	712	San Antonio Palopó	9	San Antonio Palopo	8	Agosto	2023-08-28T00:00:00	2024-11-08T02:00:00	6	Velocidad del viento	4.8
3974	7	Sololá	712	San Antonio Palopó	9	San Antonio Palopo	8	Agosto	2023-08-28T00:00:00	2024-11-08T02:00:00	7	Dirección del viento	4.83
3975	7	Sololá	712	San Antonio Palopó	9	San Antonio Palopo	8	Agosto	2023-08-28T00:00:00	2024-11-08T02:00:00	1	Precipitación	0
3976	7	Sololá	712	San Antonio Palopó	9	San Antonio Palopo	8	Agosto	2023-08-28T00:00:00	2024-11-08T02:00:00	8	Radiación solar	0
3977	7	Sololá	712	San Antonio Palopó	9	San Antonio Palopo	8	Agosto	2023-08-28T00:00:00	2024-11-08T03:00:00	2	Temperatura media	18.4
3978	7	Sololá	712	San Antonio Palopó	9	San Antonio Palopo	8	Agosto	2023-08-28T00:00:00	2024-11-08T03:00:00	4	Temperatura máxima	18.9
3979	7	Sololá	712	San Antonio Palopó	9	San Antonio Palopo	8	Agosto	2023-08-28T00:00:00	2024-11-08T03:00:00	3	Temperatura mínima	18.4
3980	7	Sololá	712	San Antonio Palopó	9	San Antonio Palopo	8	Agosto	2023-08-28T00:00:00	2024-11-08T03:00:00	5	Humedad	87
3981	7	Sololá	712	San Antonio Palopó	9	San Antonio Palopo	8	Agosto	2023-08-28T00:00:00	2024-11-08T03:00:00	6	Velocidad del viento	1.6
3982	7	Sololá	712	San Antonio Palopó	9	San Antonio Palopo	8	Agosto	2023-08-28T00:00:00	2024-11-08T03:00:00	7	Dirección del viento	1.61
3983	7	Sololá	712	San Antonio Palopó	9	San Antonio Palopo	8	Agosto	2023-08-28T00:00:00	2024-11-08T03:00:00	1	Precipitación	0
3984	7	Sololá	712	San Antonio Palopó	9	San Antonio Palopo	8	Agosto	2023-08-28T00:00:00	2024-11-08T03:00:00	8	Radiación solar	0
3985	7	Sololá	712	San Antonio Palopó	9	San Antonio Palopo	8	Agosto	2023-08-28T00:00:00	2024-11-08T04:00:00	2	Temperatura media	18
3986	7	Sololá	712	San Antonio Palopó	9	San Antonio Palopo	8	Agosto	2023-08-28T00:00:00	2024-11-08T04:00:00	4	Temperatura máxima	18.4
3987	7	Sololá	712	San Antonio Palopó	9	San Antonio Palopo	8	Agosto	2023-08-28T00:00:00	2024-11-08T04:00:00	3	Temperatura mínima	17.9
3988	7	Sololá	712	San Antonio Palopó	9	San Antonio Palopo	8	Agosto	2023-08-28T00:00:00	2024-11-08T04:00:00	5	Humedad	86
3989	7	Sololá	712	San Antonio Palopó	9	San Antonio Palopo	8	Agosto	2023-08-28T00:00:00	2024-11-08T04:00:00	6	Velocidad del viento	1.6
3990	7	Sololá	712	San Antonio Palopó	9	San Antonio Palopo	8	Agosto	2023-08-28T00:00:00	2024-11-08T04:00:00	7	Dirección del viento	1.61
3991	7	Sololá	712	San Antonio Palopó	9	San Antonio Palopo	8	Agosto	2023-08-28T00:00:00	2024-11-08T04:00:00	1	Precipitación	0.2
3992	7	Sololá	712	San Antonio Palopó	9	San Antonio Palopo	8	Agosto	2023-08-28T00:00:00	2024-11-08T04:00:00	8	Radiación solar	0
3993	7	Sololá	712	San Antonio Palopó	9	San Antonio Palopo	8	Agosto	2023-08-28T00:00:00	2024-11-08T05:00:00	2	Temperatura media	18.2
3994	7	Sololá	712	San Antonio Palopó	9	San Antonio Palopo	8	Agosto	2023-08-28T00:00:00	2024-11-08T05:00:00	4	Temperatura máxima	18.2
3995	7	Sololá	712	San Antonio Palopó	9	San Antonio Palopo	8	Agosto	2023-08-28T00:00:00	2024-11-08T05:00:00	3	Temperatura mínima	17.7
3996	7	Sololá	712	San Antonio Palopó	9	San Antonio Palopo	8	Agosto	2023-08-28T00:00:00	2024-11-08T05:00:00	5	Humedad	82
3997	7	Sololá	712	San Antonio Palopó	9	San Antonio Palopo	8	Agosto	2023-08-28T00:00:00	2024-11-08T05:00:00	6	Velocidad del viento	1.6
3998	7	Sololá	712	San Antonio Palopó	9	San Antonio Palopo	8	Agosto	2023-08-28T00:00:00	2024-11-08T05:00:00	7	Dirección del viento	1.61
3999	7	Sololá	712	San Antonio Palopó	9	San Antonio Palopo	8	Agosto	2023-08-28T00:00:00	2024-11-08T05:00:00	1	Precipitación	0
4000	7	Sololá	712	San Antonio Palopó	9	San Antonio Palopo	8	Agosto	2023-08-28T00:00:00	2024-11-08T05:00:00	8	Radiación solar	0
4001	7	Sololá	712	San Antonio Palopó	9	San Antonio Palopo	8	Agosto	2023-08-28T00:00:00	2024-11-08T06:00:00	2	Temperatura media	17.9
4002	7	Sololá	712	San Antonio Palopó	9	San Antonio Palopo	8	Agosto	2023-08-28T00:00:00	2024-11-08T06:00:00	4	Temperatura máxima	18.3
4003	7	Sololá	712	San Antonio Palopó	9	San Antonio Palopo	8	Agosto	2023-08-28T00:00:00	2024-11-08T06:00:00	3	Temperatura mínima	17.3
4004	7	Sololá	712	San Antonio Palopó	9	San Antonio Palopo	8	Agosto	2023-08-28T00:00:00	2024-11-08T06:00:00	5	Humedad	85
4005	7	Sololá	712	San Antonio Palopó	9	San Antonio Palopo	8	Agosto	2023-08-28T00:00:00	2024-11-08T06:00:00	6	Velocidad del viento	3.2
4006	7	Sololá	712	San Antonio Palopó	9	San Antonio Palopo	8	Agosto	2023-08-28T00:00:00	2024-11-08T06:00:00	7	Dirección del viento	3.22
4007	7	Sololá	712	San Antonio Palopó	9	San Antonio Palopo	8	Agosto	2023-08-28T00:00:00	2024-11-08T06:00:00	1	Precipitación	0
4008	7	Sololá	712	San Antonio Palopó	9	San Antonio Palopo	8	Agosto	2023-08-28T00:00:00	2024-11-08T06:00:00	8	Radiación solar	0
4009	7	Sololá	712	San Antonio Palopó	9	San Antonio Palopo	8	Agosto	2023-08-28T00:00:00	2024-11-08T07:00:00	2	Temperatura media	18.5
4010	7	Sololá	712	San Antonio Palopó	9	San Antonio Palopo	8	Agosto	2023-08-28T00:00:00	2024-11-08T07:00:00	4	Temperatura máxima	18.5
4011	7	Sololá	712	San Antonio Palopó	9	San Antonio Palopo	8	Agosto	2023-08-28T00:00:00	2024-11-08T07:00:00	3	Temperatura mínima	17.9
4012	7	Sololá	712	San Antonio Palopó	9	San Antonio Palopo	8	Agosto	2023-08-28T00:00:00	2024-11-08T07:00:00	5	Humedad	86
4013	7	Sololá	712	San Antonio Palopó	9	San Antonio Palopo	8	Agosto	2023-08-28T00:00:00	2024-11-08T07:00:00	6	Velocidad del viento	3.2
4014	7	Sololá	712	San Antonio Palopó	9	San Antonio Palopo	8	Agosto	2023-08-28T00:00:00	2024-11-08T07:00:00	7	Dirección del viento	3.22
4015	7	Sololá	712	San Antonio Palopó	9	San Antonio Palopo	8	Agosto	2023-08-28T00:00:00	2024-11-08T07:00:00	1	Precipitación	0
4016	7	Sololá	712	San Antonio Palopó	9	San Antonio Palopo	8	Agosto	2023-08-28T00:00:00	2024-11-08T07:00:00	8	Radiación solar	33
4017	7	Sololá	712	San Antonio Palopó	9	San Antonio Palopo	8	Agosto	2023-08-28T00:00:00	2024-11-08T08:00:00	2	Temperatura media	20.4
4018	7	Sololá	712	San Antonio Palopó	9	San Antonio Palopo	8	Agosto	2023-08-28T00:00:00	2024-11-08T08:00:00	4	Temperatura máxima	20.4
4019	7	Sololá	712	San Antonio Palopó	9	San Antonio Palopo	8	Agosto	2023-08-28T00:00:00	2024-11-08T08:00:00	3	Temperatura mínima	18.5
4020	7	Sololá	712	San Antonio Palopó	9	San Antonio Palopo	8	Agosto	2023-08-28T00:00:00	2024-11-08T08:00:00	5	Humedad	82
4021	7	Sololá	712	San Antonio Palopó	9	San Antonio Palopo	8	Agosto	2023-08-28T00:00:00	2024-11-08T08:00:00	6	Velocidad del viento	0
4022	7	Sololá	712	San Antonio Palopó	9	San Antonio Palopo	8	Agosto	2023-08-28T00:00:00	2024-11-08T08:00:00	7	Dirección del viento	0
4023	7	Sololá	712	San Antonio Palopó	9	San Antonio Palopo	8	Agosto	2023-08-28T00:00:00	2024-11-08T08:00:00	1	Precipitación	0
4024	7	Sololá	712	San Antonio Palopó	9	San Antonio Palopo	8	Agosto	2023-08-28T00:00:00	2024-11-08T08:00:00	8	Radiación solar	183
4025	7	Sololá	712	San Antonio Palopó	9	San Antonio Palopo	8	Agosto	2023-08-28T00:00:00	2024-11-08T09:00:00	2	Temperatura media	20.7
4026	7	Sololá	712	San Antonio Palopó	9	San Antonio Palopo	8	Agosto	2023-08-28T00:00:00	2024-11-08T09:00:00	4	Temperatura máxima	21.2
4027	7	Sololá	712	San Antonio Palopó	9	San Antonio Palopo	8	Agosto	2023-08-28T00:00:00	2024-11-08T09:00:00	3	Temperatura mínima	20.4
4028	7	Sololá	712	San Antonio Palopó	9	San Antonio Palopo	8	Agosto	2023-08-28T00:00:00	2024-11-08T09:00:00	5	Humedad	78
4029	7	Sololá	712	San Antonio Palopó	9	San Antonio Palopo	8	Agosto	2023-08-28T00:00:00	2024-11-08T09:00:00	6	Velocidad del viento	3.2
4030	7	Sololá	712	San Antonio Palopó	9	San Antonio Palopo	8	Agosto	2023-08-28T00:00:00	2024-11-08T09:00:00	7	Dirección del viento	3.22
4031	7	Sololá	712	San Antonio Palopó	9	San Antonio Palopo	8	Agosto	2023-08-28T00:00:00	2024-11-08T09:00:00	1	Precipitación	0
4032	7	Sololá	712	San Antonio Palopó	9	San Antonio Palopo	8	Agosto	2023-08-28T00:00:00	2024-11-08T09:00:00	8	Radiación solar	510
4033	7	Sololá	712	San Antonio Palopó	9	San Antonio Palopo	8	Agosto	2023-08-28T00:00:00	2024-11-08T10:00:00	2	Temperatura media	21.5
4034	7	Sololá	712	San Antonio Palopó	9	San Antonio Palopo	8	Agosto	2023-08-28T00:00:00	2024-11-08T10:00:00	4	Temperatura máxima	21.6
4035	7	Sololá	712	San Antonio Palopó	9	San Antonio Palopo	8	Agosto	2023-08-28T00:00:00	2024-11-08T10:00:00	3	Temperatura mínima	20.8
4036	7	Sololá	712	San Antonio Palopó	9	San Antonio Palopo	8	Agosto	2023-08-28T00:00:00	2024-11-08T10:00:00	5	Humedad	73
4037	7	Sololá	712	San Antonio Palopó	9	San Antonio Palopo	8	Agosto	2023-08-28T00:00:00	2024-11-08T10:00:00	6	Velocidad del viento	3.2
4038	7	Sololá	712	San Antonio Palopó	9	San Antonio Palopo	8	Agosto	2023-08-28T00:00:00	2024-11-08T10:00:00	7	Dirección del viento	3.22
4039	7	Sololá	712	San Antonio Palopó	9	San Antonio Palopo	8	Agosto	2023-08-28T00:00:00	2024-11-08T10:00:00	1	Precipitación	0
4040	7	Sololá	712	San Antonio Palopó	9	San Antonio Palopo	8	Agosto	2023-08-28T00:00:00	2024-11-08T10:00:00	8	Radiación solar	735
4041	7	Sololá	712	San Antonio Palopó	9	San Antonio Palopo	8	Agosto	2023-08-28T00:00:00	2024-11-08T11:00:00	2	Temperatura media	22.6
4042	7	Sololá	712	San Antonio Palopó	9	San Antonio Palopo	8	Agosto	2023-08-28T00:00:00	2024-11-08T11:00:00	4	Temperatura máxima	22.7
4043	7	Sololá	712	San Antonio Palopó	9	San Antonio Palopo	8	Agosto	2023-08-28T00:00:00	2024-11-08T11:00:00	3	Temperatura mínima	21.4
4044	7	Sololá	712	San Antonio Palopó	9	San Antonio Palopo	8	Agosto	2023-08-28T00:00:00	2024-11-08T11:00:00	5	Humedad	73
4045	7	Sololá	712	San Antonio Palopó	9	San Antonio Palopo	8	Agosto	2023-08-28T00:00:00	2024-11-08T11:00:00	6	Velocidad del viento	3.2
4046	7	Sololá	712	San Antonio Palopó	9	San Antonio Palopo	8	Agosto	2023-08-28T00:00:00	2024-11-08T11:00:00	7	Dirección del viento	3.22
4047	7	Sololá	712	San Antonio Palopó	9	San Antonio Palopo	8	Agosto	2023-08-28T00:00:00	2024-11-08T11:00:00	1	Precipitación	0
4048	7	Sololá	712	San Antonio Palopó	9	San Antonio Palopo	8	Agosto	2023-08-28T00:00:00	2024-11-08T11:00:00	8	Radiación solar	881
4049	7	Sololá	712	San Antonio Palopó	9	San Antonio Palopo	8	Agosto	2023-08-28T00:00:00	2024-11-08T12:00:00	2	Temperatura media	23.2
4050	7	Sololá	712	San Antonio Palopó	9	San Antonio Palopo	8	Agosto	2023-08-28T00:00:00	2024-11-08T12:00:00	4	Temperatura máxima	23.9
4051	7	Sololá	712	San Antonio Palopó	9	San Antonio Palopo	8	Agosto	2023-08-28T00:00:00	2024-11-08T12:00:00	3	Temperatura mínima	22.6
4052	7	Sololá	712	San Antonio Palopó	9	San Antonio Palopo	8	Agosto	2023-08-28T00:00:00	2024-11-08T12:00:00	5	Humedad	73
4053	7	Sololá	712	San Antonio Palopó	9	San Antonio Palopo	8	Agosto	2023-08-28T00:00:00	2024-11-08T12:00:00	6	Velocidad del viento	4.8
4054	7	Sololá	712	San Antonio Palopó	9	San Antonio Palopo	8	Agosto	2023-08-28T00:00:00	2024-11-08T12:00:00	7	Dirección del viento	4.83
4055	7	Sololá	712	San Antonio Palopó	9	San Antonio Palopo	8	Agosto	2023-08-28T00:00:00	2024-11-08T12:00:00	1	Precipitación	0
4056	7	Sololá	712	San Antonio Palopó	9	San Antonio Palopo	8	Agosto	2023-08-28T00:00:00	2024-11-08T12:00:00	8	Radiación solar	992
4057	7	Sololá	712	San Antonio Palopó	9	San Antonio Palopo	8	Agosto	2023-08-28T00:00:00	2024-11-08T13:00:00	2	Temperatura media	23.1
4058	7	Sololá	712	San Antonio Palopó	9	San Antonio Palopo	8	Agosto	2023-08-28T00:00:00	2024-11-08T13:00:00	4	Temperatura máxima	23.9
4059	7	Sololá	712	San Antonio Palopó	9	San Antonio Palopo	8	Agosto	2023-08-28T00:00:00	2024-11-08T13:00:00	3	Temperatura mínima	22.4
4060	7	Sololá	712	San Antonio Palopó	9	San Antonio Palopo	8	Agosto	2023-08-28T00:00:00	2024-11-08T13:00:00	5	Humedad	73
4061	7	Sololá	712	San Antonio Palopó	9	San Antonio Palopo	8	Agosto	2023-08-28T00:00:00	2024-11-08T13:00:00	6	Velocidad del viento	8
4062	7	Sololá	712	San Antonio Palopó	9	San Antonio Palopo	8	Agosto	2023-08-28T00:00:00	2024-11-08T13:00:00	7	Dirección del viento	8.05
4063	7	Sololá	712	San Antonio Palopó	9	San Antonio Palopo	8	Agosto	2023-08-28T00:00:00	2024-11-08T13:00:00	1	Precipitación	0
4064	7	Sololá	712	San Antonio Palopó	9	San Antonio Palopo	8	Agosto	2023-08-28T00:00:00	2024-11-08T13:00:00	8	Radiación solar	365
4065	7	Sololá	712	San Antonio Palopó	9	San Antonio Palopo	8	Agosto	2023-08-28T00:00:00	2024-11-08T14:00:00	2	Temperatura media	22.3
4066	7	Sololá	712	San Antonio Palopó	9	San Antonio Palopo	8	Agosto	2023-08-28T00:00:00	2024-11-08T14:00:00	4	Temperatura máxima	23.6
4067	7	Sololá	712	San Antonio Palopó	9	San Antonio Palopo	8	Agosto	2023-08-28T00:00:00	2024-11-08T14:00:00	3	Temperatura mínima	22.2
4068	7	Sololá	712	San Antonio Palopó	9	San Antonio Palopo	8	Agosto	2023-08-28T00:00:00	2024-11-08T14:00:00	5	Humedad	75
4069	7	Sololá	712	San Antonio Palopó	9	San Antonio Palopo	8	Agosto	2023-08-28T00:00:00	2024-11-08T14:00:00	6	Velocidad del viento	9.7
4070	7	Sololá	712	San Antonio Palopó	9	San Antonio Palopo	8	Agosto	2023-08-28T00:00:00	2024-11-08T14:00:00	7	Dirección del viento	9.66
4071	7	Sololá	712	San Antonio Palopó	9	San Antonio Palopo	8	Agosto	2023-08-28T00:00:00	2024-11-08T14:00:00	1	Precipitación	0
4072	7	Sololá	712	San Antonio Palopó	9	San Antonio Palopo	8	Agosto	2023-08-28T00:00:00	2024-11-08T14:00:00	8	Radiación solar	380
4073	7	Sololá	712	San Antonio Palopó	9	San Antonio Palopo	8	Agosto	2023-08-28T00:00:00	2024-11-08T15:00:00	2	Temperatura media	21.8
4074	7	Sololá	712	San Antonio Palopó	9	San Antonio Palopo	8	Agosto	2023-08-28T00:00:00	2024-11-08T15:00:00	4	Temperatura máxima	22.6
4075	7	Sololá	712	San Antonio Palopó	9	San Antonio Palopo	8	Agosto	2023-08-28T00:00:00	2024-11-08T15:00:00	3	Temperatura mínima	21.5
4076	7	Sololá	712	San Antonio Palopó	9	San Antonio Palopo	8	Agosto	2023-08-28T00:00:00	2024-11-08T15:00:00	5	Humedad	79
4077	7	Sololá	712	San Antonio Palopó	9	San Antonio Palopo	8	Agosto	2023-08-28T00:00:00	2024-11-08T15:00:00	6	Velocidad del viento	6.4
4078	7	Sololá	712	San Antonio Palopó	9	San Antonio Palopo	8	Agosto	2023-08-28T00:00:00	2024-11-08T15:00:00	7	Dirección del viento	6.44
4079	7	Sololá	712	San Antonio Palopó	9	San Antonio Palopo	8	Agosto	2023-08-28T00:00:00	2024-11-08T15:00:00	1	Precipitación	0
4080	7	Sololá	712	San Antonio Palopó	9	San Antonio Palopo	8	Agosto	2023-08-28T00:00:00	2024-11-08T15:00:00	8	Radiación solar	173
4081	7	Sololá	712	San Antonio Palopó	9	San Antonio Palopo	8	Agosto	2023-08-28T00:00:00	2024-11-08T16:00:00	2	Temperatura media	20.1
4082	7	Sololá	712	San Antonio Palopó	9	San Antonio Palopo	8	Agosto	2023-08-28T00:00:00	2024-11-08T16:00:00	4	Temperatura máxima	21.9
4083	7	Sololá	712	San Antonio Palopó	9	San Antonio Palopo	8	Agosto	2023-08-28T00:00:00	2024-11-08T16:00:00	3	Temperatura mínima	20.1
4084	7	Sololá	712	San Antonio Palopó	9	San Antonio Palopo	8	Agosto	2023-08-28T00:00:00	2024-11-08T16:00:00	5	Humedad	86
4085	7	Sololá	712	San Antonio Palopó	9	San Antonio Palopo	8	Agosto	2023-08-28T00:00:00	2024-11-08T16:00:00	6	Velocidad del viento	6.4
4086	7	Sololá	712	San Antonio Palopó	9	San Antonio Palopo	8	Agosto	2023-08-28T00:00:00	2024-11-08T16:00:00	7	Dirección del viento	6.44
4087	7	Sololá	712	San Antonio Palopó	9	San Antonio Palopo	8	Agosto	2023-08-28T00:00:00	2024-11-08T16:00:00	1	Precipitación	0
4088	7	Sololá	712	San Antonio Palopó	9	San Antonio Palopo	8	Agosto	2023-08-28T00:00:00	2024-11-08T16:00:00	8	Radiación solar	128
4089	7	Sololá	712	San Antonio Palopó	9	San Antonio Palopo	8	Agosto	2023-08-28T00:00:00	2024-11-08T17:00:00	2	Temperatura media	19.3
4090	7	Sololá	712	San Antonio Palopó	9	San Antonio Palopo	8	Agosto	2023-08-28T00:00:00	2024-11-08T17:00:00	4	Temperatura máxima	20.1
4091	7	Sololá	712	San Antonio Palopó	9	San Antonio Palopo	8	Agosto	2023-08-28T00:00:00	2024-11-08T17:00:00	3	Temperatura mínima	19.2
4092	7	Sololá	712	San Antonio Palopó	9	San Antonio Palopo	8	Agosto	2023-08-28T00:00:00	2024-11-08T17:00:00	5	Humedad	87
4093	7	Sololá	712	San Antonio Palopó	9	San Antonio Palopo	8	Agosto	2023-08-28T00:00:00	2024-11-08T17:00:00	6	Velocidad del viento	6.4
4094	7	Sololá	712	San Antonio Palopó	9	San Antonio Palopo	8	Agosto	2023-08-28T00:00:00	2024-11-08T17:00:00	7	Dirección del viento	6.44
4095	7	Sololá	712	San Antonio Palopó	9	San Antonio Palopo	8	Agosto	2023-08-28T00:00:00	2024-11-08T17:00:00	1	Precipitación	1.6
4096	7	Sololá	712	San Antonio Palopó	9	San Antonio Palopo	8	Agosto	2023-08-28T00:00:00	2024-11-08T17:00:00	8	Radiación solar	20
4097	7	Sololá	712	San Antonio Palopó	9	San Antonio Palopo	8	Agosto	2023-08-28T00:00:00	2024-11-08T18:00:00	2	Temperatura media	19.2
4098	7	Sololá	712	San Antonio Palopó	9	San Antonio Palopo	8	Agosto	2023-08-28T00:00:00	2024-11-08T18:00:00	4	Temperatura máxima	19.4
4099	7	Sololá	712	San Antonio Palopó	9	San Antonio Palopo	8	Agosto	2023-08-28T00:00:00	2024-11-08T18:00:00	3	Temperatura mínima	19.2
4100	7	Sololá	712	San Antonio Palopó	9	San Antonio Palopo	8	Agosto	2023-08-28T00:00:00	2024-11-08T18:00:00	5	Humedad	85
4101	7	Sololá	712	San Antonio Palopó	9	San Antonio Palopo	8	Agosto	2023-08-28T00:00:00	2024-11-08T18:00:00	6	Velocidad del viento	1.6
4102	7	Sololá	712	San Antonio Palopó	9	San Antonio Palopo	8	Agosto	2023-08-28T00:00:00	2024-11-08T18:00:00	7	Dirección del viento	1.61
4103	7	Sololá	712	San Antonio Palopó	9	San Antonio Palopo	8	Agosto	2023-08-28T00:00:00	2024-11-08T18:00:00	1	Precipitación	1.4
4104	7	Sololá	712	San Antonio Palopó	9	San Antonio Palopo	8	Agosto	2023-08-28T00:00:00	2024-11-08T18:00:00	8	Radiación solar	21
4105	7	Sololá	712	San Antonio Palopó	9	San Antonio Palopo	8	Agosto	2023-08-28T00:00:00	2024-11-08T19:00:00	2	Temperatura media	19.2
4106	7	Sololá	712	San Antonio Palopó	9	San Antonio Palopo	8	Agosto	2023-08-28T00:00:00	2024-11-08T19:00:00	4	Temperatura máxima	19.3
4107	7	Sololá	712	San Antonio Palopó	9	San Antonio Palopo	8	Agosto	2023-08-28T00:00:00	2024-11-08T19:00:00	3	Temperatura mínima	19.2
4108	7	Sololá	712	San Antonio Palopó	9	San Antonio Palopo	8	Agosto	2023-08-28T00:00:00	2024-11-08T19:00:00	5	Humedad	83
4109	7	Sololá	712	San Antonio Palopó	9	San Antonio Palopo	8	Agosto	2023-08-28T00:00:00	2024-11-08T19:00:00	6	Velocidad del viento	1.6
4110	7	Sololá	712	San Antonio Palopó	9	San Antonio Palopo	8	Agosto	2023-08-28T00:00:00	2024-11-08T19:00:00	7	Dirección del viento	1.61
4111	7	Sololá	712	San Antonio Palopó	9	San Antonio Palopo	8	Agosto	2023-08-28T00:00:00	2024-11-08T19:00:00	1	Precipitación	0.4
4112	7	Sololá	712	San Antonio Palopó	9	San Antonio Palopo	8	Agosto	2023-08-28T00:00:00	2024-11-08T19:00:00	8	Radiación solar	0
4113	7	Sololá	712	San Antonio Palopó	9	San Antonio Palopo	8	Agosto	2023-08-28T00:00:00	2024-11-08T20:00:00	2	Temperatura media	18.9
4114	7	Sololá	712	San Antonio Palopó	9	San Antonio Palopo	8	Agosto	2023-08-28T00:00:00	2024-11-08T20:00:00	4	Temperatura máxima	19.2
4115	7	Sololá	712	San Antonio Palopó	9	San Antonio Palopo	8	Agosto	2023-08-28T00:00:00	2024-11-08T20:00:00	3	Temperatura mínima	18.8
4116	7	Sololá	712	San Antonio Palopó	9	San Antonio Palopo	8	Agosto	2023-08-28T00:00:00	2024-11-08T20:00:00	5	Humedad	86
4117	7	Sololá	712	San Antonio Palopó	9	San Antonio Palopo	8	Agosto	2023-08-28T00:00:00	2024-11-08T20:00:00	6	Velocidad del viento	1.6
4118	7	Sololá	712	San Antonio Palopó	9	San Antonio Palopo	8	Agosto	2023-08-28T00:00:00	2024-11-08T20:00:00	7	Dirección del viento	1.61
4119	7	Sololá	712	San Antonio Palopó	9	San Antonio Palopo	8	Agosto	2023-08-28T00:00:00	2024-11-08T20:00:00	1	Precipitación	0
4120	7	Sololá	712	San Antonio Palopó	9	San Antonio Palopo	8	Agosto	2023-08-28T00:00:00	2024-11-08T20:00:00	8	Radiación solar	0
4121	7	Sololá	712	San Antonio Palopó	9	San Antonio Palopo	8	Agosto	2023-08-28T00:00:00	2024-11-08T21:00:00	2	Temperatura media	17.9
4122	7	Sololá	712	San Antonio Palopó	9	San Antonio Palopo	8	Agosto	2023-08-28T00:00:00	2024-11-08T21:00:00	4	Temperatura máxima	18.9
4123	7	Sololá	712	San Antonio Palopó	9	San Antonio Palopo	8	Agosto	2023-08-28T00:00:00	2024-11-08T21:00:00	3	Temperatura mínima	17.9
4124	7	Sololá	712	San Antonio Palopó	9	San Antonio Palopo	8	Agosto	2023-08-28T00:00:00	2024-11-08T21:00:00	5	Humedad	90
4125	7	Sololá	712	San Antonio Palopó	9	San Antonio Palopo	8	Agosto	2023-08-28T00:00:00	2024-11-08T21:00:00	6	Velocidad del viento	3.2
4126	7	Sololá	712	San Antonio Palopó	9	San Antonio Palopo	8	Agosto	2023-08-28T00:00:00	2024-11-08T21:00:00	7	Dirección del viento	3.22
4127	7	Sololá	712	San Antonio Palopó	9	San Antonio Palopo	8	Agosto	2023-08-28T00:00:00	2024-11-08T21:00:00	1	Precipitación	0.4
4128	7	Sololá	712	San Antonio Palopó	9	San Antonio Palopo	8	Agosto	2023-08-28T00:00:00	2024-11-08T21:00:00	8	Radiación solar	0
4129	7	Sololá	712	San Antonio Palopó	9	San Antonio Palopo	8	Agosto	2023-08-28T00:00:00	2024-11-08T22:00:00	2	Temperatura media	17.9
4130	7	Sololá	712	San Antonio Palopó	9	San Antonio Palopo	8	Agosto	2023-08-28T00:00:00	2024-11-08T22:00:00	4	Temperatura máxima	18.2
4131	7	Sololá	712	San Antonio Palopó	9	San Antonio Palopo	8	Agosto	2023-08-28T00:00:00	2024-11-08T22:00:00	3	Temperatura mínima	17.8
4132	7	Sololá	712	San Antonio Palopó	9	San Antonio Palopo	8	Agosto	2023-08-28T00:00:00	2024-11-08T22:00:00	5	Humedad	90
4133	7	Sololá	712	San Antonio Palopó	9	San Antonio Palopo	8	Agosto	2023-08-28T00:00:00	2024-11-08T22:00:00	6	Velocidad del viento	3.2
4134	7	Sololá	712	San Antonio Palopó	9	San Antonio Palopo	8	Agosto	2023-08-28T00:00:00	2024-11-08T22:00:00	7	Dirección del viento	3.22
4135	7	Sololá	712	San Antonio Palopó	9	San Antonio Palopo	8	Agosto	2023-08-28T00:00:00	2024-11-08T22:00:00	1	Precipitación	0
4136	7	Sololá	712	San Antonio Palopó	9	San Antonio Palopo	8	Agosto	2023-08-28T00:00:00	2024-11-08T22:00:00	8	Radiación solar	0
4137	7	Sololá	712	San Antonio Palopó	9	San Antonio Palopo	8	Agosto	2023-08-28T00:00:00	2024-11-08T23:00:00	2	Temperatura media	18.8
4138	7	Sololá	712	San Antonio Palopó	9	San Antonio Palopo	8	Agosto	2023-08-28T00:00:00	2024-11-08T23:00:00	4	Temperatura máxima	18.8
4139	7	Sololá	712	San Antonio Palopó	9	San Antonio Palopo	8	Agosto	2023-08-28T00:00:00	2024-11-08T23:00:00	3	Temperatura mínima	17.9
4140	7	Sololá	712	San Antonio Palopó	9	San Antonio Palopo	8	Agosto	2023-08-28T00:00:00	2024-11-08T23:00:00	5	Humedad	87
4141	7	Sololá	712	San Antonio Palopó	9	San Antonio Palopo	8	Agosto	2023-08-28T00:00:00	2024-11-08T23:00:00	6	Velocidad del viento	3.2
4142	7	Sololá	712	San Antonio Palopó	9	San Antonio Palopo	8	Agosto	2023-08-28T00:00:00	2024-11-08T23:00:00	7	Dirección del viento	3.22
4143	7	Sololá	712	San Antonio Palopó	9	San Antonio Palopo	8	Agosto	2023-08-28T00:00:00	2024-11-08T23:00:00	1	Precipitación	0
4144	7	Sololá	712	San Antonio Palopó	9	San Antonio Palopo	8	Agosto	2023-08-28T00:00:00	2024-11-08T23:00:00	8	Radiación solar	0
4145	7	Sololá	712	San Antonio Palopó	9	San Antonio Palopo	8	Agosto	2023-08-29T00:00:00	2024-11-08T00:00:00	2	Temperatura media	18.6
4146	7	Sololá	712	San Antonio Palopó	9	San Antonio Palopo	8	Agosto	2023-08-29T00:00:00	2024-11-08T00:00:00	4	Temperatura máxima	18.8
4147	7	Sololá	712	San Antonio Palopó	9	San Antonio Palopo	8	Agosto	2023-08-29T00:00:00	2024-11-08T00:00:00	3	Temperatura mínima	18.2
4148	7	Sololá	712	San Antonio Palopó	9	San Antonio Palopo	8	Agosto	2023-08-29T00:00:00	2024-11-08T00:00:00	5	Humedad	83
4149	7	Sololá	712	San Antonio Palopó	9	San Antonio Palopo	8	Agosto	2023-08-29T00:00:00	2024-11-08T00:00:00	6	Velocidad del viento	3.2
4150	7	Sololá	712	San Antonio Palopó	9	San Antonio Palopo	8	Agosto	2023-08-29T00:00:00	2024-11-08T00:00:00	7	Dirección del viento	3.22
4151	7	Sololá	712	San Antonio Palopó	9	San Antonio Palopo	8	Agosto	2023-08-29T00:00:00	2024-11-08T00:00:00	1	Precipitación	0
4152	7	Sololá	712	San Antonio Palopó	9	San Antonio Palopo	8	Agosto	2023-08-29T00:00:00	2024-11-08T00:00:00	8	Radiación solar	0
4153	7	Sololá	712	San Antonio Palopó	9	San Antonio Palopo	8	Agosto	2023-08-29T00:00:00	2024-11-08T01:00:00	2	Temperatura media	18.1
4154	7	Sololá	712	San Antonio Palopó	9	San Antonio Palopo	8	Agosto	2023-08-29T00:00:00	2024-11-08T01:00:00	4	Temperatura máxima	18.9
4155	7	Sololá	712	San Antonio Palopó	9	San Antonio Palopo	8	Agosto	2023-08-29T00:00:00	2024-11-08T01:00:00	3	Temperatura mínima	18.1
4156	7	Sololá	712	San Antonio Palopó	9	San Antonio Palopo	8	Agosto	2023-08-29T00:00:00	2024-11-08T01:00:00	5	Humedad	85
4157	7	Sololá	712	San Antonio Palopó	9	San Antonio Palopo	8	Agosto	2023-08-29T00:00:00	2024-11-08T01:00:00	6	Velocidad del viento	3.2
4158	7	Sololá	712	San Antonio Palopó	9	San Antonio Palopo	8	Agosto	2023-08-29T00:00:00	2024-11-08T01:00:00	7	Dirección del viento	3.22
4159	7	Sololá	712	San Antonio Palopó	9	San Antonio Palopo	8	Agosto	2023-08-29T00:00:00	2024-11-08T01:00:00	1	Precipitación	0
4160	7	Sololá	712	San Antonio Palopó	9	San Antonio Palopo	8	Agosto	2023-08-29T00:00:00	2024-11-08T01:00:00	8	Radiación solar	0
4161	7	Sololá	712	San Antonio Palopó	9	San Antonio Palopo	8	Agosto	2023-08-29T00:00:00	2024-11-08T02:00:00	2	Temperatura media	18.4
4162	7	Sololá	712	San Antonio Palopó	9	San Antonio Palopo	8	Agosto	2023-08-29T00:00:00	2024-11-08T02:00:00	4	Temperatura máxima	18.4
4163	7	Sololá	712	San Antonio Palopó	9	San Antonio Palopo	8	Agosto	2023-08-29T00:00:00	2024-11-08T02:00:00	3	Temperatura mínima	17.9
4164	7	Sololá	712	San Antonio Palopó	9	San Antonio Palopo	8	Agosto	2023-08-29T00:00:00	2024-11-08T02:00:00	5	Humedad	85
4165	7	Sololá	712	San Antonio Palopó	9	San Antonio Palopo	8	Agosto	2023-08-29T00:00:00	2024-11-08T02:00:00	6	Velocidad del viento	3.2
4166	7	Sololá	712	San Antonio Palopó	9	San Antonio Palopo	8	Agosto	2023-08-29T00:00:00	2024-11-08T02:00:00	7	Dirección del viento	3.22
4167	7	Sololá	712	San Antonio Palopó	9	San Antonio Palopo	8	Agosto	2023-08-29T00:00:00	2024-11-08T02:00:00	1	Precipitación	0
4168	7	Sololá	712	San Antonio Palopó	9	San Antonio Palopo	8	Agosto	2023-08-29T00:00:00	2024-11-08T02:00:00	8	Radiación solar	0
4169	7	Sololá	712	San Antonio Palopó	9	San Antonio Palopo	8	Agosto	2023-08-29T00:00:00	2024-11-08T03:00:00	2	Temperatura media	18.8
4170	7	Sololá	712	San Antonio Palopó	9	San Antonio Palopo	8	Agosto	2023-08-29T00:00:00	2024-11-08T03:00:00	4	Temperatura máxima	19.1
4171	7	Sololá	712	San Antonio Palopó	9	San Antonio Palopo	8	Agosto	2023-08-29T00:00:00	2024-11-08T03:00:00	3	Temperatura mínima	18.4
4172	7	Sololá	712	San Antonio Palopó	9	San Antonio Palopo	8	Agosto	2023-08-29T00:00:00	2024-11-08T03:00:00	5	Humedad	82
4173	7	Sololá	712	San Antonio Palopó	9	San Antonio Palopo	8	Agosto	2023-08-29T00:00:00	2024-11-08T03:00:00	6	Velocidad del viento	3.2
4174	7	Sololá	712	San Antonio Palopó	9	San Antonio Palopo	8	Agosto	2023-08-29T00:00:00	2024-11-08T03:00:00	7	Dirección del viento	3.22
4175	7	Sololá	712	San Antonio Palopó	9	San Antonio Palopo	8	Agosto	2023-08-29T00:00:00	2024-11-08T03:00:00	1	Precipitación	0
4176	7	Sololá	712	San Antonio Palopó	9	San Antonio Palopo	8	Agosto	2023-08-29T00:00:00	2024-11-08T03:00:00	8	Radiación solar	0
4177	7	Sololá	712	San Antonio Palopó	9	San Antonio Palopo	8	Agosto	2023-08-29T00:00:00	2024-11-08T04:00:00	2	Temperatura media	17.7
4178	7	Sololá	712	San Antonio Palopó	9	San Antonio Palopo	8	Agosto	2023-08-29T00:00:00	2024-11-08T04:00:00	4	Temperatura máxima	18.7
4179	7	Sololá	712	San Antonio Palopó	9	San Antonio Palopo	8	Agosto	2023-08-29T00:00:00	2024-11-08T04:00:00	3	Temperatura mínima	17.7
4180	7	Sololá	712	San Antonio Palopó	9	San Antonio Palopo	8	Agosto	2023-08-29T00:00:00	2024-11-08T04:00:00	5	Humedad	86
4181	7	Sololá	712	San Antonio Palopó	9	San Antonio Palopo	8	Agosto	2023-08-29T00:00:00	2024-11-08T04:00:00	6	Velocidad del viento	3.2
4182	7	Sololá	712	San Antonio Palopó	9	San Antonio Palopo	8	Agosto	2023-08-29T00:00:00	2024-11-08T04:00:00	7	Dirección del viento	3.22
4183	7	Sololá	712	San Antonio Palopó	9	San Antonio Palopo	8	Agosto	2023-08-29T00:00:00	2024-11-08T04:00:00	1	Precipitación	0
4184	7	Sololá	712	San Antonio Palopó	9	San Antonio Palopo	8	Agosto	2023-08-29T00:00:00	2024-11-08T04:00:00	8	Radiación solar	0
4185	7	Sololá	712	San Antonio Palopó	9	San Antonio Palopo	8	Agosto	2023-08-29T00:00:00	2024-11-08T05:00:00	2	Temperatura media	18.2
4186	7	Sololá	712	San Antonio Palopó	9	San Antonio Palopo	8	Agosto	2023-08-29T00:00:00	2024-11-08T05:00:00	4	Temperatura máxima	18.2
4187	7	Sololá	712	San Antonio Palopó	9	San Antonio Palopo	8	Agosto	2023-08-29T00:00:00	2024-11-08T05:00:00	3	Temperatura mínima	17.6
4188	7	Sololá	712	San Antonio Palopó	9	San Antonio Palopo	8	Agosto	2023-08-29T00:00:00	2024-11-08T05:00:00	5	Humedad	87
4189	7	Sololá	712	San Antonio Palopó	9	San Antonio Palopo	8	Agosto	2023-08-29T00:00:00	2024-11-08T05:00:00	6	Velocidad del viento	3.2
4190	7	Sololá	712	San Antonio Palopó	9	San Antonio Palopo	8	Agosto	2023-08-29T00:00:00	2024-11-08T05:00:00	7	Dirección del viento	3.22
4191	7	Sololá	712	San Antonio Palopó	9	San Antonio Palopo	8	Agosto	2023-08-29T00:00:00	2024-11-08T05:00:00	1	Precipitación	0
4192	7	Sololá	712	San Antonio Palopó	9	San Antonio Palopo	8	Agosto	2023-08-29T00:00:00	2024-11-08T05:00:00	8	Radiación solar	0
4193	7	Sololá	712	San Antonio Palopó	9	San Antonio Palopo	8	Agosto	2023-08-29T00:00:00	2024-11-08T06:00:00	2	Temperatura media	18.3
4194	7	Sololá	712	San Antonio Palopó	9	San Antonio Palopo	8	Agosto	2023-08-29T00:00:00	2024-11-08T06:00:00	4	Temperatura máxima	18.4
4195	7	Sololá	712	San Antonio Palopó	9	San Antonio Palopo	8	Agosto	2023-08-29T00:00:00	2024-11-08T06:00:00	3	Temperatura mínima	18.2
4196	7	Sololá	712	San Antonio Palopó	9	San Antonio Palopo	8	Agosto	2023-08-29T00:00:00	2024-11-08T06:00:00	5	Humedad	87
4197	7	Sololá	712	San Antonio Palopó	9	San Antonio Palopo	8	Agosto	2023-08-29T00:00:00	2024-11-08T06:00:00	6	Velocidad del viento	1.6
4198	7	Sololá	712	San Antonio Palopó	9	San Antonio Palopo	8	Agosto	2023-08-29T00:00:00	2024-11-08T06:00:00	7	Dirección del viento	1.61
4199	7	Sololá	712	San Antonio Palopó	9	San Antonio Palopo	8	Agosto	2023-08-29T00:00:00	2024-11-08T06:00:00	1	Precipitación	0
4200	7	Sololá	712	San Antonio Palopó	9	San Antonio Palopo	8	Agosto	2023-08-29T00:00:00	2024-11-08T06:00:00	8	Radiación solar	0
4201	7	Sololá	712	San Antonio Palopó	9	San Antonio Palopo	8	Agosto	2023-08-29T00:00:00	2024-11-08T07:00:00	2	Temperatura media	18.4
4202	7	Sololá	712	San Antonio Palopó	9	San Antonio Palopo	8	Agosto	2023-08-29T00:00:00	2024-11-08T07:00:00	4	Temperatura máxima	18.4
4203	7	Sololá	712	San Antonio Palopó	9	San Antonio Palopo	8	Agosto	2023-08-29T00:00:00	2024-11-08T07:00:00	3	Temperatura mínima	17.8
4204	7	Sololá	712	San Antonio Palopó	9	San Antonio Palopo	8	Agosto	2023-08-29T00:00:00	2024-11-08T07:00:00	5	Humedad	87
4205	7	Sololá	712	San Antonio Palopó	9	San Antonio Palopo	8	Agosto	2023-08-29T00:00:00	2024-11-08T07:00:00	6	Velocidad del viento	1.6
4206	7	Sololá	712	San Antonio Palopó	9	San Antonio Palopo	8	Agosto	2023-08-29T00:00:00	2024-11-08T07:00:00	7	Dirección del viento	1.61
4207	7	Sololá	712	San Antonio Palopó	9	San Antonio Palopo	8	Agosto	2023-08-29T00:00:00	2024-11-08T07:00:00	1	Precipitación	0
4208	7	Sololá	712	San Antonio Palopó	9	San Antonio Palopo	8	Agosto	2023-08-29T00:00:00	2024-11-08T07:00:00	8	Radiación solar	42
4209	7	Sololá	712	San Antonio Palopó	9	San Antonio Palopo	8	Agosto	2023-08-29T00:00:00	2024-11-08T08:00:00	2	Temperatura media	19.9
4210	7	Sololá	712	San Antonio Palopó	9	San Antonio Palopo	8	Agosto	2023-08-29T00:00:00	2024-11-08T08:00:00	4	Temperatura máxima	19.9
4211	7	Sololá	712	San Antonio Palopó	9	San Antonio Palopo	8	Agosto	2023-08-29T00:00:00	2024-11-08T08:00:00	3	Temperatura mínima	18.4
4212	7	Sololá	712	San Antonio Palopó	9	San Antonio Palopo	8	Agosto	2023-08-29T00:00:00	2024-11-08T08:00:00	5	Humedad	82
4213	7	Sololá	712	San Antonio Palopó	9	San Antonio Palopo	8	Agosto	2023-08-29T00:00:00	2024-11-08T08:00:00	6	Velocidad del viento	1.6
4214	7	Sololá	712	San Antonio Palopó	9	San Antonio Palopo	8	Agosto	2023-08-29T00:00:00	2024-11-08T08:00:00	7	Dirección del viento	1.61
4215	7	Sololá	712	San Antonio Palopó	9	San Antonio Palopo	8	Agosto	2023-08-29T00:00:00	2024-11-08T08:00:00	1	Precipitación	0
4216	7	Sololá	712	San Antonio Palopó	9	San Antonio Palopo	8	Agosto	2023-08-29T00:00:00	2024-11-08T08:00:00	8	Radiación solar	119
4217	7	Sololá	712	San Antonio Palopó	9	San Antonio Palopo	8	Agosto	2023-08-29T00:00:00	2024-11-08T09:00:00	2	Temperatura media	20.4
4218	7	Sololá	712	San Antonio Palopó	9	San Antonio Palopo	8	Agosto	2023-08-29T00:00:00	2024-11-08T09:00:00	4	Temperatura máxima	20.4
4219	7	Sololá	712	San Antonio Palopó	9	San Antonio Palopo	8	Agosto	2023-08-29T00:00:00	2024-11-08T09:00:00	3	Temperatura mínima	19.9
4220	7	Sololá	712	San Antonio Palopó	9	San Antonio Palopo	8	Agosto	2023-08-29T00:00:00	2024-11-08T09:00:00	5	Humedad	80
4221	7	Sololá	712	San Antonio Palopó	9	San Antonio Palopo	8	Agosto	2023-08-29T00:00:00	2024-11-08T09:00:00	6	Velocidad del viento	1.6
4222	7	Sololá	712	San Antonio Palopó	9	San Antonio Palopo	8	Agosto	2023-08-29T00:00:00	2024-11-08T09:00:00	7	Dirección del viento	1.61
4223	7	Sololá	712	San Antonio Palopó	9	San Antonio Palopo	8	Agosto	2023-08-29T00:00:00	2024-11-08T09:00:00	1	Precipitación	0
4224	7	Sololá	712	San Antonio Palopó	9	San Antonio Palopo	8	Agosto	2023-08-29T00:00:00	2024-11-08T09:00:00	8	Radiación solar	249
4225	7	Sololá	712	San Antonio Palopó	9	San Antonio Palopo	8	Agosto	2023-08-29T00:00:00	2024-11-08T10:00:00	2	Temperatura media	21.3
4226	7	Sololá	712	San Antonio Palopó	9	San Antonio Palopo	8	Agosto	2023-08-29T00:00:00	2024-11-08T10:00:00	4	Temperatura máxima	21.4
4227	7	Sololá	712	San Antonio Palopó	9	San Antonio Palopo	8	Agosto	2023-08-29T00:00:00	2024-11-08T10:00:00	3	Temperatura mínima	20.2
4228	7	Sololá	712	San Antonio Palopó	9	San Antonio Palopo	8	Agosto	2023-08-29T00:00:00	2024-11-08T10:00:00	5	Humedad	78
4229	7	Sololá	712	San Antonio Palopó	9	San Antonio Palopo	8	Agosto	2023-08-29T00:00:00	2024-11-08T10:00:00	6	Velocidad del viento	3.2
4230	7	Sololá	712	San Antonio Palopó	9	San Antonio Palopo	8	Agosto	2023-08-29T00:00:00	2024-11-08T10:00:00	7	Dirección del viento	3.22
4231	7	Sololá	712	San Antonio Palopó	9	San Antonio Palopo	8	Agosto	2023-08-29T00:00:00	2024-11-08T10:00:00	1	Precipitación	0
4232	7	Sololá	712	San Antonio Palopó	9	San Antonio Palopo	8	Agosto	2023-08-29T00:00:00	2024-11-08T10:00:00	8	Radiación solar	565
4233	7	Sololá	712	San Antonio Palopó	9	San Antonio Palopo	8	Agosto	2023-08-29T00:00:00	2024-11-08T11:00:00	2	Temperatura media	22.3
4234	7	Sololá	712	San Antonio Palopó	9	San Antonio Palopo	8	Agosto	2023-08-29T00:00:00	2024-11-08T11:00:00	4	Temperatura máxima	22.3
4235	7	Sololá	712	San Antonio Palopó	9	San Antonio Palopo	8	Agosto	2023-08-29T00:00:00	2024-11-08T11:00:00	3	Temperatura mínima	21.3
4236	7	Sololá	712	San Antonio Palopó	9	San Antonio Palopo	8	Agosto	2023-08-29T00:00:00	2024-11-08T11:00:00	5	Humedad	71
4237	7	Sololá	712	San Antonio Palopó	9	San Antonio Palopo	8	Agosto	2023-08-29T00:00:00	2024-11-08T11:00:00	6	Velocidad del viento	3.2
4238	7	Sololá	712	San Antonio Palopó	9	San Antonio Palopo	8	Agosto	2023-08-29T00:00:00	2024-11-08T11:00:00	7	Dirección del viento	3.22
4239	7	Sololá	712	San Antonio Palopó	9	San Antonio Palopo	8	Agosto	2023-08-29T00:00:00	2024-11-08T11:00:00	1	Precipitación	0
4240	7	Sololá	712	San Antonio Palopó	9	San Antonio Palopo	8	Agosto	2023-08-29T00:00:00	2024-11-08T11:00:00	8	Radiación solar	564
4241	7	Sololá	712	San Antonio Palopó	9	San Antonio Palopo	8	Agosto	2023-08-29T00:00:00	2024-11-08T12:00:00	2	Temperatura media	23.4
4242	7	Sololá	712	San Antonio Palopó	9	San Antonio Palopo	8	Agosto	2023-08-29T00:00:00	2024-11-08T12:00:00	4	Temperatura máxima	23.4
4243	7	Sololá	712	San Antonio Palopó	9	San Antonio Palopo	8	Agosto	2023-08-29T00:00:00	2024-11-08T12:00:00	3	Temperatura mínima	22.3
4244	7	Sololá	712	San Antonio Palopó	9	San Antonio Palopo	8	Agosto	2023-08-29T00:00:00	2024-11-08T12:00:00	5	Humedad	73
4245	7	Sololá	712	San Antonio Palopó	9	San Antonio Palopo	8	Agosto	2023-08-29T00:00:00	2024-11-08T12:00:00	6	Velocidad del viento	6.4
4246	7	Sololá	712	San Antonio Palopó	9	San Antonio Palopo	8	Agosto	2023-08-29T00:00:00	2024-11-08T12:00:00	7	Dirección del viento	6.44
4247	7	Sololá	712	San Antonio Palopó	9	San Antonio Palopo	8	Agosto	2023-08-29T00:00:00	2024-11-08T12:00:00	1	Precipitación	0
4248	7	Sololá	712	San Antonio Palopó	9	San Antonio Palopo	8	Agosto	2023-08-29T00:00:00	2024-11-08T12:00:00	8	Radiación solar	905
4249	7	Sololá	712	San Antonio Palopó	9	San Antonio Palopo	8	Agosto	2023-08-29T00:00:00	2024-11-08T13:00:00	2	Temperatura media	24.1
4250	7	Sololá	712	San Antonio Palopó	9	San Antonio Palopo	8	Agosto	2023-08-29T00:00:00	2024-11-08T13:00:00	4	Temperatura máxima	24.3
4251	7	Sololá	712	San Antonio Palopó	9	San Antonio Palopo	8	Agosto	2023-08-29T00:00:00	2024-11-08T13:00:00	3	Temperatura mínima	23.3
4252	7	Sololá	712	San Antonio Palopó	9	San Antonio Palopo	8	Agosto	2023-08-29T00:00:00	2024-11-08T13:00:00	5	Humedad	71
4253	7	Sololá	712	San Antonio Palopó	9	San Antonio Palopo	8	Agosto	2023-08-29T00:00:00	2024-11-08T13:00:00	6	Velocidad del viento	6.4
4254	7	Sololá	712	San Antonio Palopó	9	San Antonio Palopo	8	Agosto	2023-08-29T00:00:00	2024-11-08T13:00:00	7	Dirección del viento	6.44
4255	7	Sololá	712	San Antonio Palopó	9	San Antonio Palopo	8	Agosto	2023-08-29T00:00:00	2024-11-08T13:00:00	1	Precipitación	0
4256	7	Sololá	712	San Antonio Palopó	9	San Antonio Palopo	8	Agosto	2023-08-29T00:00:00	2024-11-08T13:00:00	8	Radiación solar	741
4257	7	Sololá	712	San Antonio Palopó	9	San Antonio Palopo	8	Agosto	2023-08-29T00:00:00	2024-11-08T14:00:00	2	Temperatura media	23.9
4258	7	Sololá	712	San Antonio Palopó	9	San Antonio Palopo	8	Agosto	2023-08-29T00:00:00	2024-11-08T14:00:00	4	Temperatura máxima	24.6
4259	7	Sololá	712	San Antonio Palopó	9	San Antonio Palopo	8	Agosto	2023-08-29T00:00:00	2024-11-08T14:00:00	3	Temperatura mínima	23.8
4260	7	Sololá	712	San Antonio Palopó	9	San Antonio Palopo	8	Agosto	2023-08-29T00:00:00	2024-11-08T14:00:00	5	Humedad	72
4261	7	Sololá	712	San Antonio Palopó	9	San Antonio Palopo	8	Agosto	2023-08-29T00:00:00	2024-11-08T14:00:00	6	Velocidad del viento	8
4262	7	Sololá	712	San Antonio Palopó	9	San Antonio Palopo	8	Agosto	2023-08-29T00:00:00	2024-11-08T14:00:00	7	Dirección del viento	8.05
4263	7	Sololá	712	San Antonio Palopó	9	San Antonio Palopo	8	Agosto	2023-08-29T00:00:00	2024-11-08T14:00:00	1	Precipitación	0
4264	7	Sololá	712	San Antonio Palopó	9	San Antonio Palopo	8	Agosto	2023-08-29T00:00:00	2024-11-08T14:00:00	8	Radiación solar	674
4265	7	Sololá	712	San Antonio Palopó	9	San Antonio Palopo	8	Agosto	2023-08-29T00:00:00	2024-11-08T15:00:00	2	Temperatura media	23.5
4266	7	Sololá	712	San Antonio Palopó	9	San Antonio Palopo	8	Agosto	2023-08-29T00:00:00	2024-11-08T15:00:00	4	Temperatura máxima	25.1
4267	7	Sololá	712	San Antonio Palopó	9	San Antonio Palopo	8	Agosto	2023-08-29T00:00:00	2024-11-08T15:00:00	3	Temperatura mínima	22.8
4268	7	Sololá	712	San Antonio Palopó	9	San Antonio Palopo	8	Agosto	2023-08-29T00:00:00	2024-11-08T15:00:00	5	Humedad	74
4269	7	Sololá	712	San Antonio Palopó	9	San Antonio Palopo	8	Agosto	2023-08-29T00:00:00	2024-11-08T15:00:00	6	Velocidad del viento	6.4
4270	7	Sololá	712	San Antonio Palopó	9	San Antonio Palopo	8	Agosto	2023-08-29T00:00:00	2024-11-08T15:00:00	7	Dirección del viento	6.44
4271	7	Sololá	712	San Antonio Palopó	9	San Antonio Palopo	8	Agosto	2023-08-29T00:00:00	2024-11-08T15:00:00	1	Precipitación	0
4272	7	Sololá	712	San Antonio Palopó	9	San Antonio Palopo	8	Agosto	2023-08-29T00:00:00	2024-11-08T15:00:00	8	Radiación solar	477
4273	7	Sololá	712	San Antonio Palopó	9	San Antonio Palopo	8	Agosto	2023-08-29T00:00:00	2024-11-08T16:00:00	2	Temperatura media	21.9
4274	7	Sololá	712	San Antonio Palopó	9	San Antonio Palopo	8	Agosto	2023-08-29T00:00:00	2024-11-08T16:00:00	4	Temperatura máxima	23.6
4275	7	Sololá	712	San Antonio Palopó	9	San Antonio Palopo	8	Agosto	2023-08-29T00:00:00	2024-11-08T16:00:00	3	Temperatura mínima	21.9
4276	7	Sololá	712	San Antonio Palopó	9	San Antonio Palopo	8	Agosto	2023-08-29T00:00:00	2024-11-08T16:00:00	5	Humedad	79
4277	7	Sololá	712	San Antonio Palopó	9	San Antonio Palopo	8	Agosto	2023-08-29T00:00:00	2024-11-08T16:00:00	6	Velocidad del viento	4.8
4278	7	Sololá	712	San Antonio Palopó	9	San Antonio Palopo	8	Agosto	2023-08-29T00:00:00	2024-11-08T16:00:00	7	Dirección del viento	4.83
4279	7	Sololá	712	San Antonio Palopó	9	San Antonio Palopo	8	Agosto	2023-08-29T00:00:00	2024-11-08T16:00:00	1	Precipitación	0
4280	7	Sololá	712	San Antonio Palopó	9	San Antonio Palopo	8	Agosto	2023-08-29T00:00:00	2024-11-08T16:00:00	8	Radiación solar	101
4281	7	Sololá	712	San Antonio Palopó	9	San Antonio Palopo	8	Agosto	2023-08-29T00:00:00	2024-11-08T17:00:00	2	Temperatura media	21.4
4282	7	Sololá	712	San Antonio Palopó	9	San Antonio Palopo	8	Agosto	2023-08-29T00:00:00	2024-11-08T17:00:00	4	Temperatura máxima	22
4283	7	Sololá	712	San Antonio Palopó	9	San Antonio Palopo	8	Agosto	2023-08-29T00:00:00	2024-11-08T17:00:00	3	Temperatura mínima	21.4
4284	7	Sololá	712	San Antonio Palopó	9	San Antonio Palopo	8	Agosto	2023-08-29T00:00:00	2024-11-08T17:00:00	5	Humedad	83
4285	7	Sololá	712	San Antonio Palopó	9	San Antonio Palopo	8	Agosto	2023-08-29T00:00:00	2024-11-08T17:00:00	6	Velocidad del viento	3.2
4286	7	Sololá	712	San Antonio Palopó	9	San Antonio Palopo	8	Agosto	2023-08-29T00:00:00	2024-11-08T17:00:00	7	Dirección del viento	3.22
4287	7	Sololá	712	San Antonio Palopó	9	San Antonio Palopo	8	Agosto	2023-08-29T00:00:00	2024-11-08T17:00:00	1	Precipitación	0
4288	7	Sololá	712	San Antonio Palopó	9	San Antonio Palopo	8	Agosto	2023-08-29T00:00:00	2024-11-08T17:00:00	8	Radiación solar	53
4289	7	Sololá	712	San Antonio Palopó	9	San Antonio Palopo	8	Agosto	2023-08-29T00:00:00	2024-11-08T18:00:00	2	Temperatura media	21.3
4290	7	Sololá	712	San Antonio Palopó	9	San Antonio Palopo	8	Agosto	2023-08-29T00:00:00	2024-11-08T18:00:00	4	Temperatura máxima	21.4
4291	7	Sololá	712	San Antonio Palopó	9	San Antonio Palopo	8	Agosto	2023-08-29T00:00:00	2024-11-08T18:00:00	3	Temperatura mínima	21.2
4292	7	Sololá	712	San Antonio Palopó	9	San Antonio Palopo	8	Agosto	2023-08-29T00:00:00	2024-11-08T18:00:00	5	Humedad	79
4293	7	Sololá	712	San Antonio Palopó	9	San Antonio Palopo	8	Agosto	2023-08-29T00:00:00	2024-11-08T18:00:00	6	Velocidad del viento	4.8
4294	7	Sololá	712	San Antonio Palopó	9	San Antonio Palopo	8	Agosto	2023-08-29T00:00:00	2024-11-08T18:00:00	7	Dirección del viento	4.83
4295	7	Sololá	712	San Antonio Palopó	9	San Antonio Palopo	8	Agosto	2023-08-29T00:00:00	2024-11-08T18:00:00	1	Precipitación	0
4296	7	Sololá	712	San Antonio Palopó	9	San Antonio Palopo	8	Agosto	2023-08-29T00:00:00	2024-11-08T18:00:00	8	Radiación solar	14
4297	7	Sololá	712	San Antonio Palopó	9	San Antonio Palopo	8	Agosto	2023-08-29T00:00:00	2024-11-08T19:00:00	2	Temperatura media	19.8
4298	7	Sololá	712	San Antonio Palopó	9	San Antonio Palopo	8	Agosto	2023-08-29T00:00:00	2024-11-08T19:00:00	4	Temperatura máxima	21.3
4299	7	Sololá	712	San Antonio Palopó	9	San Antonio Palopo	8	Agosto	2023-08-29T00:00:00	2024-11-08T19:00:00	3	Temperatura mínima	19.8
4300	7	Sololá	712	San Antonio Palopó	9	San Antonio Palopo	8	Agosto	2023-08-29T00:00:00	2024-11-08T19:00:00	5	Humedad	85
4301	7	Sololá	712	San Antonio Palopó	9	San Antonio Palopo	8	Agosto	2023-08-29T00:00:00	2024-11-08T19:00:00	6	Velocidad del viento	3.2
4302	7	Sololá	712	San Antonio Palopó	9	San Antonio Palopo	8	Agosto	2023-08-29T00:00:00	2024-11-08T19:00:00	7	Dirección del viento	3.22
4303	7	Sololá	712	San Antonio Palopó	9	San Antonio Palopo	8	Agosto	2023-08-29T00:00:00	2024-11-08T19:00:00	1	Precipitación	0.8
4304	7	Sololá	712	San Antonio Palopó	9	San Antonio Palopo	8	Agosto	2023-08-29T00:00:00	2024-11-08T19:00:00	8	Radiación solar	0
4305	7	Sololá	712	San Antonio Palopó	9	San Antonio Palopo	8	Agosto	2023-08-29T00:00:00	2024-11-08T20:00:00	2	Temperatura media	19
4306	7	Sololá	712	San Antonio Palopó	9	San Antonio Palopo	8	Agosto	2023-08-29T00:00:00	2024-11-08T20:00:00	4	Temperatura máxima	19.8
4307	7	Sololá	712	San Antonio Palopó	9	San Antonio Palopo	8	Agosto	2023-08-29T00:00:00	2024-11-08T20:00:00	3	Temperatura mínima	19
4308	7	Sololá	712	San Antonio Palopó	9	San Antonio Palopo	8	Agosto	2023-08-29T00:00:00	2024-11-08T20:00:00	5	Humedad	89
4309	7	Sololá	712	San Antonio Palopó	9	San Antonio Palopo	8	Agosto	2023-08-29T00:00:00	2024-11-08T20:00:00	6	Velocidad del viento	3.2
4310	7	Sololá	712	San Antonio Palopó	9	San Antonio Palopo	8	Agosto	2023-08-29T00:00:00	2024-11-08T20:00:00	7	Dirección del viento	3.22
4311	7	Sololá	712	San Antonio Palopó	9	San Antonio Palopo	8	Agosto	2023-08-29T00:00:00	2024-11-08T20:00:00	1	Precipitación	4
4312	7	Sololá	712	San Antonio Palopó	9	San Antonio Palopo	8	Agosto	2023-08-29T00:00:00	2024-11-08T20:00:00	8	Radiación solar	0
4313	7	Sololá	712	San Antonio Palopó	9	San Antonio Palopo	8	Agosto	2023-08-29T00:00:00	2024-11-08T21:00:00	2	Temperatura media	18.7
4314	7	Sololá	712	San Antonio Palopó	9	San Antonio Palopo	8	Agosto	2023-08-29T00:00:00	2024-11-08T21:00:00	4	Temperatura máxima	19
4315	7	Sololá	712	San Antonio Palopó	9	San Antonio Palopo	8	Agosto	2023-08-29T00:00:00	2024-11-08T21:00:00	3	Temperatura mínima	18.7
4316	7	Sololá	712	San Antonio Palopó	9	San Antonio Palopo	8	Agosto	2023-08-29T00:00:00	2024-11-08T21:00:00	5	Humedad	89
4317	7	Sololá	712	San Antonio Palopó	9	San Antonio Palopo	8	Agosto	2023-08-29T00:00:00	2024-11-08T21:00:00	6	Velocidad del viento	3.2
4318	7	Sololá	712	San Antonio Palopó	9	San Antonio Palopo	8	Agosto	2023-08-29T00:00:00	2024-11-08T21:00:00	7	Dirección del viento	3.22
4319	7	Sololá	712	San Antonio Palopó	9	San Antonio Palopo	8	Agosto	2023-08-29T00:00:00	2024-11-08T21:00:00	1	Precipitación	1.8
4320	7	Sololá	712	San Antonio Palopó	9	San Antonio Palopo	8	Agosto	2023-08-29T00:00:00	2024-11-08T21:00:00	8	Radiación solar	0
4321	7	Sololá	712	San Antonio Palopó	9	San Antonio Palopo	8	Agosto	2023-08-29T00:00:00	2024-11-08T22:00:00	2	Temperatura media	18.4
4322	7	Sololá	712	San Antonio Palopó	9	San Antonio Palopo	8	Agosto	2023-08-29T00:00:00	2024-11-08T22:00:00	4	Temperatura máxima	18.7
4323	7	Sololá	712	San Antonio Palopó	9	San Antonio Palopo	8	Agosto	2023-08-29T00:00:00	2024-11-08T22:00:00	3	Temperatura mínima	18.4
4324	7	Sololá	712	San Antonio Palopó	9	San Antonio Palopo	8	Agosto	2023-08-29T00:00:00	2024-11-08T22:00:00	5	Humedad	91
4325	7	Sololá	712	San Antonio Palopó	9	San Antonio Palopo	8	Agosto	2023-08-29T00:00:00	2024-11-08T22:00:00	6	Velocidad del viento	1.6
4326	7	Sololá	712	San Antonio Palopó	9	San Antonio Palopo	8	Agosto	2023-08-29T00:00:00	2024-11-08T22:00:00	7	Dirección del viento	1.61
4327	7	Sololá	712	San Antonio Palopó	9	San Antonio Palopo	8	Agosto	2023-08-29T00:00:00	2024-11-08T22:00:00	1	Precipitación	0.2
4328	7	Sololá	712	San Antonio Palopó	9	San Antonio Palopo	8	Agosto	2023-08-29T00:00:00	2024-11-08T22:00:00	8	Radiación solar	0
4329	7	Sololá	712	San Antonio Palopó	9	San Antonio Palopo	8	Agosto	2023-08-29T00:00:00	2024-11-08T23:00:00	2	Temperatura media	19.2
4330	7	Sololá	712	San Antonio Palopó	9	San Antonio Palopo	8	Agosto	2023-08-29T00:00:00	2024-11-08T23:00:00	4	Temperatura máxima	19.2
4331	7	Sololá	712	San Antonio Palopó	9	San Antonio Palopo	8	Agosto	2023-08-29T00:00:00	2024-11-08T23:00:00	3	Temperatura mínima	18.4
4332	7	Sololá	712	San Antonio Palopó	9	San Antonio Palopo	8	Agosto	2023-08-29T00:00:00	2024-11-08T23:00:00	5	Humedad	88
4333	7	Sololá	712	San Antonio Palopó	9	San Antonio Palopo	8	Agosto	2023-08-29T00:00:00	2024-11-08T23:00:00	6	Velocidad del viento	1.6
4334	7	Sololá	712	San Antonio Palopó	9	San Antonio Palopo	8	Agosto	2023-08-29T00:00:00	2024-11-08T23:00:00	7	Dirección del viento	1.61
4335	7	Sololá	712	San Antonio Palopó	9	San Antonio Palopo	8	Agosto	2023-08-29T00:00:00	2024-11-08T23:00:00	1	Precipitación	0
4336	7	Sololá	712	San Antonio Palopó	9	San Antonio Palopo	8	Agosto	2023-08-29T00:00:00	2024-11-08T23:00:00	8	Radiación solar	0
4337	7	Sololá	712	San Antonio Palopó	9	San Antonio Palopo	8	Agosto	2023-08-30T00:00:00	2024-11-08T00:00:00	2	Temperatura media	18.8
4338	7	Sololá	712	San Antonio Palopó	9	San Antonio Palopo	8	Agosto	2023-08-30T00:00:00	2024-11-08T00:00:00	4	Temperatura máxima	19.3
4339	7	Sololá	712	San Antonio Palopó	9	San Antonio Palopo	8	Agosto	2023-08-30T00:00:00	2024-11-08T00:00:00	3	Temperatura mínima	18.7
4340	7	Sololá	712	San Antonio Palopó	9	San Antonio Palopo	8	Agosto	2023-08-30T00:00:00	2024-11-08T00:00:00	5	Humedad	85
4341	7	Sololá	712	San Antonio Palopó	9	San Antonio Palopo	8	Agosto	2023-08-30T00:00:00	2024-11-08T00:00:00	6	Velocidad del viento	3.2
4342	7	Sololá	712	San Antonio Palopó	9	San Antonio Palopo	8	Agosto	2023-08-30T00:00:00	2024-11-08T00:00:00	7	Dirección del viento	3.22
4343	7	Sololá	712	San Antonio Palopó	9	San Antonio Palopo	8	Agosto	2023-08-30T00:00:00	2024-11-08T00:00:00	1	Precipitación	0
4344	7	Sololá	712	San Antonio Palopó	9	San Antonio Palopo	8	Agosto	2023-08-30T00:00:00	2024-11-08T00:00:00	8	Radiación solar	0
4345	7	Sololá	712	San Antonio Palopó	9	San Antonio Palopo	8	Agosto	2023-08-30T00:00:00	2024-11-08T01:00:00	2	Temperatura media	18.7
4346	7	Sololá	712	San Antonio Palopó	9	San Antonio Palopo	8	Agosto	2023-08-30T00:00:00	2024-11-08T01:00:00	4	Temperatura máxima	19.1
4347	7	Sololá	712	San Antonio Palopó	9	San Antonio Palopo	8	Agosto	2023-08-30T00:00:00	2024-11-08T01:00:00	3	Temperatura mínima	18.4
4348	7	Sololá	712	San Antonio Palopó	9	San Antonio Palopo	8	Agosto	2023-08-30T00:00:00	2024-11-08T01:00:00	5	Humedad	88
4349	7	Sololá	712	San Antonio Palopó	9	San Antonio Palopo	8	Agosto	2023-08-30T00:00:00	2024-11-08T01:00:00	6	Velocidad del viento	3.2
4350	7	Sololá	712	San Antonio Palopó	9	San Antonio Palopo	8	Agosto	2023-08-30T00:00:00	2024-11-08T01:00:00	7	Dirección del viento	3.22
4351	7	Sololá	712	San Antonio Palopó	9	San Antonio Palopo	8	Agosto	2023-08-30T00:00:00	2024-11-08T01:00:00	1	Precipitación	0
4352	7	Sololá	712	San Antonio Palopó	9	San Antonio Palopo	8	Agosto	2023-08-30T00:00:00	2024-11-08T01:00:00	8	Radiación solar	0
4353	7	Sololá	712	San Antonio Palopó	9	San Antonio Palopo	8	Agosto	2023-08-30T00:00:00	2024-11-08T02:00:00	2	Temperatura media	18.7
4354	7	Sololá	712	San Antonio Palopó	9	San Antonio Palopo	8	Agosto	2023-08-30T00:00:00	2024-11-08T02:00:00	4	Temperatura máxima	19.2
4355	7	Sololá	712	San Antonio Palopó	9	San Antonio Palopo	8	Agosto	2023-08-30T00:00:00	2024-11-08T02:00:00	3	Temperatura mínima	18.6
4356	7	Sololá	712	San Antonio Palopó	9	San Antonio Palopo	8	Agosto	2023-08-30T00:00:00	2024-11-08T02:00:00	5	Humedad	86
4357	7	Sololá	712	San Antonio Palopó	9	San Antonio Palopo	8	Agosto	2023-08-30T00:00:00	2024-11-08T02:00:00	6	Velocidad del viento	1.6
4358	7	Sololá	712	San Antonio Palopó	9	San Antonio Palopo	8	Agosto	2023-08-30T00:00:00	2024-11-08T02:00:00	7	Dirección del viento	1.61
4359	7	Sololá	712	San Antonio Palopó	9	San Antonio Palopo	8	Agosto	2023-08-30T00:00:00	2024-11-08T02:00:00	1	Precipitación	0
4360	7	Sololá	712	San Antonio Palopó	9	San Antonio Palopo	8	Agosto	2023-08-30T00:00:00	2024-11-08T02:00:00	8	Radiación solar	0
4361	7	Sololá	712	San Antonio Palopó	9	San Antonio Palopo	8	Agosto	2023-08-30T00:00:00	2024-11-08T03:00:00	2	Temperatura media	18.3
4362	7	Sololá	712	San Antonio Palopó	9	San Antonio Palopo	8	Agosto	2023-08-30T00:00:00	2024-11-08T03:00:00	4	Temperatura máxima	19.2
4363	7	Sololá	712	San Antonio Palopó	9	San Antonio Palopo	8	Agosto	2023-08-30T00:00:00	2024-11-08T03:00:00	3	Temperatura mínima	18.3
4364	7	Sololá	712	San Antonio Palopó	9	San Antonio Palopo	8	Agosto	2023-08-30T00:00:00	2024-11-08T03:00:00	5	Humedad	88
4365	7	Sololá	712	San Antonio Palopó	9	San Antonio Palopo	8	Agosto	2023-08-30T00:00:00	2024-11-08T03:00:00	6	Velocidad del viento	3.2
4366	7	Sololá	712	San Antonio Palopó	9	San Antonio Palopo	8	Agosto	2023-08-30T00:00:00	2024-11-08T03:00:00	7	Dirección del viento	3.22
4367	7	Sololá	712	San Antonio Palopó	9	San Antonio Palopo	8	Agosto	2023-08-30T00:00:00	2024-11-08T03:00:00	1	Precipitación	0
4368	7	Sololá	712	San Antonio Palopó	9	San Antonio Palopo	8	Agosto	2023-08-30T00:00:00	2024-11-08T03:00:00	8	Radiación solar	0
4369	7	Sololá	712	San Antonio Palopó	9	San Antonio Palopo	8	Agosto	2023-08-30T00:00:00	2024-11-08T04:00:00	2	Temperatura media	18.7
4370	7	Sololá	712	San Antonio Palopó	9	San Antonio Palopo	8	Agosto	2023-08-30T00:00:00	2024-11-08T04:00:00	4	Temperatura máxima	18.8
4371	7	Sololá	712	San Antonio Palopó	9	San Antonio Palopo	8	Agosto	2023-08-30T00:00:00	2024-11-08T04:00:00	3	Temperatura mínima	18.3
4372	7	Sololá	712	San Antonio Palopó	9	San Antonio Palopo	8	Agosto	2023-08-30T00:00:00	2024-11-08T04:00:00	5	Humedad	83
4373	7	Sololá	712	San Antonio Palopó	9	San Antonio Palopo	8	Agosto	2023-08-30T00:00:00	2024-11-08T04:00:00	6	Velocidad del viento	3.2
4374	7	Sololá	712	San Antonio Palopó	9	San Antonio Palopo	8	Agosto	2023-08-30T00:00:00	2024-11-08T04:00:00	7	Dirección del viento	3.22
4375	7	Sololá	712	San Antonio Palopó	9	San Antonio Palopo	8	Agosto	2023-08-30T00:00:00	2024-11-08T04:00:00	1	Precipitación	0
4376	7	Sololá	712	San Antonio Palopó	9	San Antonio Palopo	8	Agosto	2023-08-30T00:00:00	2024-11-08T04:00:00	8	Radiación solar	0
4377	7	Sololá	712	San Antonio Palopó	9	San Antonio Palopo	8	Agosto	2023-08-30T00:00:00	2024-11-08T05:00:00	2	Temperatura media	19.4
4378	7	Sololá	712	San Antonio Palopó	9	San Antonio Palopo	8	Agosto	2023-08-30T00:00:00	2024-11-08T05:00:00	4	Temperatura máxima	19.6
4379	7	Sololá	712	San Antonio Palopó	9	San Antonio Palopo	8	Agosto	2023-08-30T00:00:00	2024-11-08T05:00:00	3	Temperatura mínima	18.3
4380	7	Sololá	712	San Antonio Palopó	9	San Antonio Palopo	8	Agosto	2023-08-30T00:00:00	2024-11-08T05:00:00	5	Humedad	79
4381	7	Sololá	712	San Antonio Palopó	9	San Antonio Palopo	8	Agosto	2023-08-30T00:00:00	2024-11-08T05:00:00	6	Velocidad del viento	3.2
4382	7	Sololá	712	San Antonio Palopó	9	San Antonio Palopo	8	Agosto	2023-08-30T00:00:00	2024-11-08T05:00:00	7	Dirección del viento	3.22
4383	7	Sololá	712	San Antonio Palopó	9	San Antonio Palopo	8	Agosto	2023-08-30T00:00:00	2024-11-08T05:00:00	1	Precipitación	0
4384	7	Sololá	712	San Antonio Palopó	9	San Antonio Palopo	8	Agosto	2023-08-30T00:00:00	2024-11-08T05:00:00	8	Radiación solar	0
4385	7	Sololá	712	San Antonio Palopó	9	San Antonio Palopo	8	Agosto	2023-08-30T00:00:00	2024-11-08T06:00:00	2	Temperatura media	18.6
4386	7	Sololá	712	San Antonio Palopó	9	San Antonio Palopo	8	Agosto	2023-08-30T00:00:00	2024-11-08T06:00:00	4	Temperatura máxima	19.4
4387	7	Sololá	712	San Antonio Palopó	9	San Antonio Palopo	8	Agosto	2023-08-30T00:00:00	2024-11-08T06:00:00	3	Temperatura mínima	18.5
4388	7	Sololá	712	San Antonio Palopó	9	San Antonio Palopo	8	Agosto	2023-08-30T00:00:00	2024-11-08T06:00:00	5	Humedad	83
4389	7	Sololá	712	San Antonio Palopó	9	San Antonio Palopo	8	Agosto	2023-08-30T00:00:00	2024-11-08T06:00:00	6	Velocidad del viento	3.2
4390	7	Sololá	712	San Antonio Palopó	9	San Antonio Palopo	8	Agosto	2023-08-30T00:00:00	2024-11-08T06:00:00	7	Dirección del viento	3.22
4391	7	Sololá	712	San Antonio Palopó	9	San Antonio Palopo	8	Agosto	2023-08-30T00:00:00	2024-11-08T06:00:00	1	Precipitación	0
4392	7	Sololá	712	San Antonio Palopó	9	San Antonio Palopo	8	Agosto	2023-08-30T00:00:00	2024-11-08T06:00:00	8	Radiación solar	0
4393	7	Sololá	712	San Antonio Palopó	9	San Antonio Palopo	8	Agosto	2023-08-30T00:00:00	2024-11-08T07:00:00	2	Temperatura media	18.9
4394	7	Sololá	712	San Antonio Palopó	9	San Antonio Palopo	8	Agosto	2023-08-30T00:00:00	2024-11-08T07:00:00	4	Temperatura máxima	18.9
4395	7	Sololá	712	San Antonio Palopó	9	San Antonio Palopo	8	Agosto	2023-08-30T00:00:00	2024-11-08T07:00:00	3	Temperatura mínima	18.5
4396	7	Sololá	712	San Antonio Palopó	9	San Antonio Palopo	8	Agosto	2023-08-30T00:00:00	2024-11-08T07:00:00	5	Humedad	83
4397	7	Sololá	712	San Antonio Palopó	9	San Antonio Palopo	8	Agosto	2023-08-30T00:00:00	2024-11-08T07:00:00	6	Velocidad del viento	3.2
4398	7	Sololá	712	San Antonio Palopó	9	San Antonio Palopo	8	Agosto	2023-08-30T00:00:00	2024-11-08T07:00:00	7	Dirección del viento	3.22
4399	7	Sololá	712	San Antonio Palopó	9	San Antonio Palopo	8	Agosto	2023-08-30T00:00:00	2024-11-08T07:00:00	1	Precipitación	0
4400	7	Sololá	712	San Antonio Palopó	9	San Antonio Palopo	8	Agosto	2023-08-30T00:00:00	2024-11-08T07:00:00	8	Radiación solar	34
4401	7	Sololá	712	San Antonio Palopó	9	San Antonio Palopo	8	Agosto	2023-08-30T00:00:00	2024-11-08T08:00:00	2	Temperatura media	20.9
4402	7	Sololá	712	San Antonio Palopó	9	San Antonio Palopo	8	Agosto	2023-08-30T00:00:00	2024-11-08T08:00:00	4	Temperatura máxima	20.9
4403	7	Sololá	712	San Antonio Palopó	9	San Antonio Palopo	8	Agosto	2023-08-30T00:00:00	2024-11-08T08:00:00	3	Temperatura mínima	18.9
4404	7	Sololá	712	San Antonio Palopó	9	San Antonio Palopo	8	Agosto	2023-08-30T00:00:00	2024-11-08T08:00:00	5	Humedad	81
4405	7	Sololá	712	San Antonio Palopó	9	San Antonio Palopo	8	Agosto	2023-08-30T00:00:00	2024-11-08T08:00:00	6	Velocidad del viento	1.6
4406	7	Sololá	712	San Antonio Palopó	9	San Antonio Palopo	8	Agosto	2023-08-30T00:00:00	2024-11-08T08:00:00	7	Dirección del viento	1.61
4407	7	Sololá	712	San Antonio Palopó	9	San Antonio Palopo	8	Agosto	2023-08-30T00:00:00	2024-11-08T08:00:00	1	Precipitación	0
4408	7	Sololá	712	San Antonio Palopó	9	San Antonio Palopo	8	Agosto	2023-08-30T00:00:00	2024-11-08T08:00:00	8	Radiación solar	179
4409	7	Sololá	712	San Antonio Palopó	9	San Antonio Palopo	8	Agosto	2023-08-30T00:00:00	2024-11-08T09:00:00	2	Temperatura media	21.4
4410	7	Sololá	712	San Antonio Palopó	9	San Antonio Palopo	8	Agosto	2023-08-30T00:00:00	2024-11-08T09:00:00	4	Temperatura máxima	21.4
4411	7	Sololá	712	San Antonio Palopó	9	San Antonio Palopo	8	Agosto	2023-08-30T00:00:00	2024-11-08T09:00:00	3	Temperatura mínima	20.9
4412	7	Sololá	712	San Antonio Palopó	9	San Antonio Palopo	8	Agosto	2023-08-30T00:00:00	2024-11-08T09:00:00	5	Humedad	81
4413	7	Sololá	712	San Antonio Palopó	9	San Antonio Palopo	8	Agosto	2023-08-30T00:00:00	2024-11-08T09:00:00	6	Velocidad del viento	1.6
4414	7	Sololá	712	San Antonio Palopó	9	San Antonio Palopo	8	Agosto	2023-08-30T00:00:00	2024-11-08T09:00:00	7	Dirección del viento	1.61
4415	7	Sololá	712	San Antonio Palopó	9	San Antonio Palopo	8	Agosto	2023-08-30T00:00:00	2024-11-08T09:00:00	1	Precipitación	0
4416	7	Sololá	712	San Antonio Palopó	9	San Antonio Palopo	8	Agosto	2023-08-30T00:00:00	2024-11-08T09:00:00	8	Radiación solar	287
4417	7	Sololá	712	San Antonio Palopó	9	San Antonio Palopo	8	Agosto	2023-08-30T00:00:00	2024-11-08T10:00:00	2	Temperatura media	22.5
4418	7	Sololá	712	San Antonio Palopó	9	San Antonio Palopo	8	Agosto	2023-08-30T00:00:00	2024-11-08T10:00:00	4	Temperatura máxima	22.5
4419	7	Sololá	712	San Antonio Palopó	9	San Antonio Palopo	8	Agosto	2023-08-30T00:00:00	2024-11-08T10:00:00	3	Temperatura mínima	21.3
4420	7	Sololá	712	San Antonio Palopó	9	San Antonio Palopo	8	Agosto	2023-08-30T00:00:00	2024-11-08T10:00:00	5	Humedad	79
4421	7	Sololá	712	San Antonio Palopó	9	San Antonio Palopo	8	Agosto	2023-08-30T00:00:00	2024-11-08T10:00:00	6	Velocidad del viento	3.2
4422	7	Sololá	712	San Antonio Palopó	9	San Antonio Palopo	8	Agosto	2023-08-30T00:00:00	2024-11-08T10:00:00	7	Dirección del viento	3.22
4423	7	Sololá	712	San Antonio Palopó	9	San Antonio Palopo	8	Agosto	2023-08-30T00:00:00	2024-11-08T10:00:00	1	Precipitación	0
4424	7	Sololá	712	San Antonio Palopó	9	San Antonio Palopo	8	Agosto	2023-08-30T00:00:00	2024-11-08T10:00:00	8	Radiación solar	592
4425	7	Sololá	712	San Antonio Palopó	9	San Antonio Palopo	8	Agosto	2023-08-30T00:00:00	2024-11-08T11:00:00	2	Temperatura media	22.9
4426	7	Sololá	712	San Antonio Palopó	9	San Antonio Palopo	8	Agosto	2023-08-30T00:00:00	2024-11-08T11:00:00	4	Temperatura máxima	22.9
4427	7	Sololá	712	San Antonio Palopó	9	San Antonio Palopo	8	Agosto	2023-08-30T00:00:00	2024-11-08T11:00:00	3	Temperatura mínima	22.2
4428	7	Sololá	712	San Antonio Palopó	9	San Antonio Palopo	8	Agosto	2023-08-30T00:00:00	2024-11-08T11:00:00	5	Humedad	72
4429	7	Sololá	712	San Antonio Palopó	9	San Antonio Palopo	8	Agosto	2023-08-30T00:00:00	2024-11-08T11:00:00	6	Velocidad del viento	3.2
4430	7	Sololá	712	San Antonio Palopó	9	San Antonio Palopo	8	Agosto	2023-08-30T00:00:00	2024-11-08T11:00:00	7	Dirección del viento	3.22
4431	7	Sololá	712	San Antonio Palopó	9	San Antonio Palopo	8	Agosto	2023-08-30T00:00:00	2024-11-08T11:00:00	1	Precipitación	0
4432	7	Sololá	712	San Antonio Palopó	9	San Antonio Palopo	8	Agosto	2023-08-30T00:00:00	2024-11-08T11:00:00	8	Radiación solar	633
4433	7	Sololá	712	San Antonio Palopó	9	San Antonio Palopo	8	Agosto	2023-08-30T00:00:00	2024-11-08T12:00:00	2	Temperatura media	24.1
4434	7	Sololá	712	San Antonio Palopó	9	San Antonio Palopo	8	Agosto	2023-08-30T00:00:00	2024-11-08T12:00:00	4	Temperatura máxima	24.1
4435	7	Sololá	712	San Antonio Palopó	9	San Antonio Palopo	8	Agosto	2023-08-30T00:00:00	2024-11-08T12:00:00	3	Temperatura mínima	22.9
4436	7	Sololá	712	San Antonio Palopó	9	San Antonio Palopo	8	Agosto	2023-08-30T00:00:00	2024-11-08T12:00:00	5	Humedad	71
4437	7	Sololá	712	San Antonio Palopó	9	San Antonio Palopo	8	Agosto	2023-08-30T00:00:00	2024-11-08T12:00:00	6	Velocidad del viento	4.8
4438	7	Sololá	712	San Antonio Palopó	9	San Antonio Palopo	8	Agosto	2023-08-30T00:00:00	2024-11-08T12:00:00	7	Dirección del viento	4.83
4439	7	Sololá	712	San Antonio Palopó	9	San Antonio Palopo	8	Agosto	2023-08-30T00:00:00	2024-11-08T12:00:00	1	Precipitación	0
4440	7	Sololá	712	San Antonio Palopó	9	San Antonio Palopo	8	Agosto	2023-08-30T00:00:00	2024-11-08T12:00:00	8	Radiación solar	951
4441	7	Sololá	712	San Antonio Palopó	9	San Antonio Palopo	8	Agosto	2023-08-30T00:00:00	2024-11-08T13:00:00	2	Temperatura media	25.4
4442	7	Sololá	712	San Antonio Palopó	9	San Antonio Palopo	8	Agosto	2023-08-30T00:00:00	2024-11-08T13:00:00	4	Temperatura máxima	25.4
4443	7	Sololá	712	San Antonio Palopó	9	San Antonio Palopo	8	Agosto	2023-08-30T00:00:00	2024-11-08T13:00:00	3	Temperatura mínima	23.7
4444	7	Sololá	712	San Antonio Palopó	9	San Antonio Palopo	8	Agosto	2023-08-30T00:00:00	2024-11-08T13:00:00	5	Humedad	66
4445	7	Sololá	712	San Antonio Palopó	9	San Antonio Palopo	8	Agosto	2023-08-30T00:00:00	2024-11-08T13:00:00	6	Velocidad del viento	6.4
4446	7	Sololá	712	San Antonio Palopó	9	San Antonio Palopo	8	Agosto	2023-08-30T00:00:00	2024-11-08T13:00:00	7	Dirección del viento	6.44
4447	7	Sololá	712	San Antonio Palopó	9	San Antonio Palopo	8	Agosto	2023-08-30T00:00:00	2024-11-08T13:00:00	1	Precipitación	0
4448	7	Sololá	712	San Antonio Palopó	9	San Antonio Palopo	8	Agosto	2023-08-30T00:00:00	2024-11-08T13:00:00	8	Radiación solar	817
4449	7	Sololá	712	San Antonio Palopó	9	San Antonio Palopo	8	Agosto	2023-08-30T00:00:00	2024-11-08T14:00:00	2	Temperatura media	24.7
4450	7	Sololá	712	San Antonio Palopó	9	San Antonio Palopo	8	Agosto	2023-08-30T00:00:00	2024-11-08T14:00:00	4	Temperatura máxima	25.7
4451	7	Sololá	712	San Antonio Palopó	9	San Antonio Palopo	8	Agosto	2023-08-30T00:00:00	2024-11-08T14:00:00	3	Temperatura mínima	24.6
4452	7	Sololá	712	San Antonio Palopó	9	San Antonio Palopo	8	Agosto	2023-08-30T00:00:00	2024-11-08T14:00:00	5	Humedad	69
4453	7	Sololá	712	San Antonio Palopó	9	San Antonio Palopo	8	Agosto	2023-08-30T00:00:00	2024-11-08T14:00:00	6	Velocidad del viento	9.7
4454	7	Sololá	712	San Antonio Palopó	9	San Antonio Palopo	8	Agosto	2023-08-30T00:00:00	2024-11-08T14:00:00	7	Dirección del viento	9.66
4455	7	Sololá	712	San Antonio Palopó	9	San Antonio Palopo	8	Agosto	2023-08-30T00:00:00	2024-11-08T14:00:00	1	Precipitación	0
4456	7	Sololá	712	San Antonio Palopó	9	San Antonio Palopo	8	Agosto	2023-08-30T00:00:00	2024-11-08T14:00:00	8	Radiación solar	975
4457	7	Sololá	712	San Antonio Palopó	9	San Antonio Palopo	8	Agosto	2023-08-30T00:00:00	2024-11-08T15:00:00	2	Temperatura media	23.2
4458	7	Sololá	712	San Antonio Palopó	9	San Antonio Palopo	8	Agosto	2023-08-30T00:00:00	2024-11-08T15:00:00	4	Temperatura máxima	24.7
4459	7	Sololá	712	San Antonio Palopó	9	San Antonio Palopo	8	Agosto	2023-08-30T00:00:00	2024-11-08T15:00:00	3	Temperatura mínima	22.8
4460	7	Sololá	712	San Antonio Palopó	9	San Antonio Palopo	8	Agosto	2023-08-30T00:00:00	2024-11-08T15:00:00	5	Humedad	76
4461	7	Sololá	712	San Antonio Palopó	9	San Antonio Palopo	8	Agosto	2023-08-30T00:00:00	2024-11-08T15:00:00	6	Velocidad del viento	9.7
4462	7	Sololá	712	San Antonio Palopó	9	San Antonio Palopo	8	Agosto	2023-08-30T00:00:00	2024-11-08T15:00:00	7	Dirección del viento	9.66
4463	7	Sololá	712	San Antonio Palopó	9	San Antonio Palopo	8	Agosto	2023-08-30T00:00:00	2024-11-08T15:00:00	1	Precipitación	0
4464	7	Sololá	712	San Antonio Palopó	9	San Antonio Palopo	8	Agosto	2023-08-30T00:00:00	2024-11-08T15:00:00	8	Radiación solar	323
4465	7	Sololá	712	San Antonio Palopó	9	San Antonio Palopo	8	Agosto	2023-08-30T00:00:00	2024-11-08T16:00:00	2	Temperatura media	22.6
4466	7	Sololá	712	San Antonio Palopó	9	San Antonio Palopo	8	Agosto	2023-08-30T00:00:00	2024-11-08T16:00:00	4	Temperatura máxima	23.2
4467	7	Sololá	712	San Antonio Palopó	9	San Antonio Palopo	8	Agosto	2023-08-30T00:00:00	2024-11-08T16:00:00	3	Temperatura mínima	21.7
4468	7	Sololá	712	San Antonio Palopó	9	San Antonio Palopo	8	Agosto	2023-08-30T00:00:00	2024-11-08T16:00:00	5	Humedad	79
4469	7	Sololá	712	San Antonio Palopó	9	San Antonio Palopo	8	Agosto	2023-08-30T00:00:00	2024-11-08T16:00:00	6	Velocidad del viento	8
4470	7	Sololá	712	San Antonio Palopó	9	San Antonio Palopo	8	Agosto	2023-08-30T00:00:00	2024-11-08T16:00:00	7	Dirección del viento	8.05
4471	7	Sololá	712	San Antonio Palopó	9	San Antonio Palopo	8	Agosto	2023-08-30T00:00:00	2024-11-08T16:00:00	1	Precipitación	0
4472	7	Sololá	712	San Antonio Palopó	9	San Antonio Palopo	8	Agosto	2023-08-30T00:00:00	2024-11-08T16:00:00	8	Radiación solar	229
4473	7	Sololá	712	San Antonio Palopó	9	San Antonio Palopo	8	Agosto	2023-08-30T00:00:00	2024-11-08T17:00:00	2	Temperatura media	22.1
4474	7	Sololá	712	San Antonio Palopó	9	San Antonio Palopo	8	Agosto	2023-08-30T00:00:00	2024-11-08T17:00:00	4	Temperatura máxima	22.9
4475	7	Sololá	712	San Antonio Palopó	9	San Antonio Palopo	8	Agosto	2023-08-30T00:00:00	2024-11-08T17:00:00	3	Temperatura mínima	22.1
4476	7	Sololá	712	San Antonio Palopó	9	San Antonio Palopo	8	Agosto	2023-08-30T00:00:00	2024-11-08T17:00:00	5	Humedad	79
4477	7	Sololá	712	San Antonio Palopó	9	San Antonio Palopo	8	Agosto	2023-08-30T00:00:00	2024-11-08T17:00:00	6	Velocidad del viento	3.2
4478	7	Sololá	712	San Antonio Palopó	9	San Antonio Palopo	8	Agosto	2023-08-30T00:00:00	2024-11-08T17:00:00	7	Dirección del viento	3.22
4479	7	Sololá	712	San Antonio Palopó	9	San Antonio Palopo	8	Agosto	2023-08-30T00:00:00	2024-11-08T17:00:00	1	Precipitación	0
4480	7	Sololá	712	San Antonio Palopó	9	San Antonio Palopo	8	Agosto	2023-08-30T00:00:00	2024-11-08T17:00:00	8	Radiación solar	87
4481	7	Sololá	712	San Antonio Palopó	9	San Antonio Palopo	8	Agosto	2023-08-30T00:00:00	2024-11-08T18:00:00	2	Temperatura media	21.8
4482	7	Sololá	712	San Antonio Palopó	9	San Antonio Palopo	8	Agosto	2023-08-30T00:00:00	2024-11-08T18:00:00	4	Temperatura máxima	22.1
4483	7	Sololá	712	San Antonio Palopó	9	San Antonio Palopo	8	Agosto	2023-08-30T00:00:00	2024-11-08T18:00:00	3	Temperatura mínima	21.7
4484	7	Sololá	712	San Antonio Palopó	9	San Antonio Palopo	8	Agosto	2023-08-30T00:00:00	2024-11-08T18:00:00	5	Humedad	81
4485	7	Sololá	712	San Antonio Palopó	9	San Antonio Palopo	8	Agosto	2023-08-30T00:00:00	2024-11-08T18:00:00	6	Velocidad del viento	1.6
4486	7	Sololá	712	San Antonio Palopó	9	San Antonio Palopo	8	Agosto	2023-08-30T00:00:00	2024-11-08T18:00:00	7	Dirección del viento	1.61
4487	7	Sololá	712	San Antonio Palopó	9	San Antonio Palopo	8	Agosto	2023-08-30T00:00:00	2024-11-08T18:00:00	1	Precipitación	0
4488	7	Sololá	712	San Antonio Palopó	9	San Antonio Palopo	8	Agosto	2023-08-30T00:00:00	2024-11-08T18:00:00	8	Radiación solar	27
4489	7	Sololá	712	San Antonio Palopó	9	San Antonio Palopo	8	Agosto	2023-08-30T00:00:00	2024-11-08T19:00:00	2	Temperatura media	21.2
4490	7	Sololá	712	San Antonio Palopó	9	San Antonio Palopo	8	Agosto	2023-08-30T00:00:00	2024-11-08T19:00:00	4	Temperatura máxima	21.8
4491	7	Sololá	712	San Antonio Palopó	9	San Antonio Palopo	8	Agosto	2023-08-30T00:00:00	2024-11-08T19:00:00	3	Temperatura mínima	21.2
4492	7	Sololá	712	San Antonio Palopó	9	San Antonio Palopo	8	Agosto	2023-08-30T00:00:00	2024-11-08T19:00:00	5	Humedad	81
4493	7	Sololá	712	San Antonio Palopó	9	San Antonio Palopo	8	Agosto	2023-08-30T00:00:00	2024-11-08T19:00:00	6	Velocidad del viento	1.6
4494	7	Sololá	712	San Antonio Palopó	9	San Antonio Palopo	8	Agosto	2023-08-30T00:00:00	2024-11-08T19:00:00	7	Dirección del viento	1.61
4495	7	Sololá	712	San Antonio Palopó	9	San Antonio Palopo	8	Agosto	2023-08-30T00:00:00	2024-11-08T19:00:00	1	Precipitación	0
4496	7	Sololá	712	San Antonio Palopó	9	San Antonio Palopo	8	Agosto	2023-08-30T00:00:00	2024-11-08T19:00:00	8	Radiación solar	0
4497	7	Sololá	712	San Antonio Palopó	9	San Antonio Palopo	8	Agosto	2023-08-30T00:00:00	2024-11-08T20:00:00	2	Temperatura media	20.9
4498	7	Sololá	712	San Antonio Palopó	9	San Antonio Palopo	8	Agosto	2023-08-30T00:00:00	2024-11-08T20:00:00	4	Temperatura máxima	21.3
4499	7	Sololá	712	San Antonio Palopó	9	San Antonio Palopo	8	Agosto	2023-08-30T00:00:00	2024-11-08T20:00:00	3	Temperatura mínima	20.9
4500	7	Sololá	712	San Antonio Palopó	9	San Antonio Palopo	8	Agosto	2023-08-30T00:00:00	2024-11-08T20:00:00	5	Humedad	82
4501	7	Sololá	712	San Antonio Palopó	9	San Antonio Palopo	8	Agosto	2023-08-30T00:00:00	2024-11-08T20:00:00	6	Velocidad del viento	1.6
4502	7	Sololá	712	San Antonio Palopó	9	San Antonio Palopo	8	Agosto	2023-08-30T00:00:00	2024-11-08T20:00:00	7	Dirección del viento	1.61
4503	7	Sololá	712	San Antonio Palopó	9	San Antonio Palopo	8	Agosto	2023-08-30T00:00:00	2024-11-08T20:00:00	1	Precipitación	0
4504	7	Sololá	712	San Antonio Palopó	9	San Antonio Palopo	8	Agosto	2023-08-30T00:00:00	2024-11-08T20:00:00	8	Radiación solar	0
4505	7	Sololá	712	San Antonio Palopó	9	San Antonio Palopo	8	Agosto	2023-08-30T00:00:00	2024-11-08T21:00:00	2	Temperatura media	20.9
4506	7	Sololá	712	San Antonio Palopó	9	San Antonio Palopo	8	Agosto	2023-08-30T00:00:00	2024-11-08T21:00:00	4	Temperatura máxima	20.9
4507	7	Sololá	712	San Antonio Palopó	9	San Antonio Palopo	8	Agosto	2023-08-30T00:00:00	2024-11-08T21:00:00	3	Temperatura mínima	20.6
4508	7	Sololá	712	San Antonio Palopó	9	San Antonio Palopo	8	Agosto	2023-08-30T00:00:00	2024-11-08T21:00:00	5	Humedad	80
4509	7	Sololá	712	San Antonio Palopó	9	San Antonio Palopo	8	Agosto	2023-08-30T00:00:00	2024-11-08T21:00:00	6	Velocidad del viento	1.6
4510	7	Sololá	712	San Antonio Palopó	9	San Antonio Palopo	8	Agosto	2023-08-30T00:00:00	2024-11-08T21:00:00	7	Dirección del viento	1.61
4511	7	Sololá	712	San Antonio Palopó	9	San Antonio Palopo	8	Agosto	2023-08-30T00:00:00	2024-11-08T21:00:00	1	Precipitación	0
4512	7	Sololá	712	San Antonio Palopó	9	San Antonio Palopo	8	Agosto	2023-08-30T00:00:00	2024-11-08T21:00:00	8	Radiación solar	0
4513	7	Sololá	712	San Antonio Palopó	9	San Antonio Palopo	8	Agosto	2023-08-30T00:00:00	2024-11-08T22:00:00	2	Temperatura media	20.2
4514	7	Sololá	712	San Antonio Palopó	9	San Antonio Palopo	8	Agosto	2023-08-30T00:00:00	2024-11-08T22:00:00	4	Temperatura máxima	21
4515	7	Sololá	712	San Antonio Palopó	9	San Antonio Palopo	8	Agosto	2023-08-30T00:00:00	2024-11-08T22:00:00	3	Temperatura mínima	20.2
4516	7	Sololá	712	San Antonio Palopó	9	San Antonio Palopo	8	Agosto	2023-08-30T00:00:00	2024-11-08T22:00:00	5	Humedad	85
4517	7	Sololá	712	San Antonio Palopó	9	San Antonio Palopo	8	Agosto	2023-08-30T00:00:00	2024-11-08T22:00:00	6	Velocidad del viento	1.6
4518	7	Sololá	712	San Antonio Palopó	9	San Antonio Palopo	8	Agosto	2023-08-30T00:00:00	2024-11-08T22:00:00	7	Dirección del viento	1.61
4519	7	Sololá	712	San Antonio Palopó	9	San Antonio Palopo	8	Agosto	2023-08-30T00:00:00	2024-11-08T22:00:00	1	Precipitación	0
4520	7	Sololá	712	San Antonio Palopó	9	San Antonio Palopo	8	Agosto	2023-08-30T00:00:00	2024-11-08T22:00:00	8	Radiación solar	0
4521	7	Sololá	712	San Antonio Palopó	9	San Antonio Palopo	8	Agosto	2023-08-30T00:00:00	2024-11-08T23:00:00	2	Temperatura media	19.9
4522	7	Sololá	712	San Antonio Palopó	9	San Antonio Palopo	8	Agosto	2023-08-30T00:00:00	2024-11-08T23:00:00	4	Temperatura máxima	20.3
4523	7	Sololá	712	San Antonio Palopó	9	San Antonio Palopo	8	Agosto	2023-08-30T00:00:00	2024-11-08T23:00:00	3	Temperatura mínima	19.8
4524	7	Sololá	712	San Antonio Palopó	9	San Antonio Palopo	8	Agosto	2023-08-30T00:00:00	2024-11-08T23:00:00	5	Humedad	84
4525	7	Sololá	712	San Antonio Palopó	9	San Antonio Palopo	8	Agosto	2023-08-30T00:00:00	2024-11-08T23:00:00	6	Velocidad del viento	3.2
4526	7	Sololá	712	San Antonio Palopó	9	San Antonio Palopo	8	Agosto	2023-08-30T00:00:00	2024-11-08T23:00:00	7	Dirección del viento	3.22
4527	7	Sololá	712	San Antonio Palopó	9	San Antonio Palopo	8	Agosto	2023-08-30T00:00:00	2024-11-08T23:00:00	1	Precipitación	0
4528	7	Sololá	712	San Antonio Palopó	9	San Antonio Palopo	8	Agosto	2023-08-30T00:00:00	2024-11-08T23:00:00	8	Radiación solar	0
4529	7	Sololá	712	San Antonio Palopó	9	San Antonio Palopo	8	Agosto	2023-08-31T00:00:00	2024-11-08T00:00:00	2	Temperatura media	20.7
4530	7	Sololá	712	San Antonio Palopó	9	San Antonio Palopo	8	Agosto	2023-08-31T00:00:00	2024-11-08T00:00:00	4	Temperatura máxima	20.8
4531	7	Sololá	712	San Antonio Palopó	9	San Antonio Palopo	8	Agosto	2023-08-31T00:00:00	2024-11-08T00:00:00	3	Temperatura mínima	19.8
4532	7	Sololá	712	San Antonio Palopó	9	San Antonio Palopo	8	Agosto	2023-08-31T00:00:00	2024-11-08T00:00:00	5	Humedad	80
4533	7	Sololá	712	San Antonio Palopó	9	San Antonio Palopo	8	Agosto	2023-08-31T00:00:00	2024-11-08T00:00:00	6	Velocidad del viento	3.2
4534	7	Sololá	712	San Antonio Palopó	9	San Antonio Palopo	8	Agosto	2023-08-31T00:00:00	2024-11-08T00:00:00	7	Dirección del viento	3.22
4535	7	Sololá	712	San Antonio Palopó	9	San Antonio Palopo	8	Agosto	2023-08-31T00:00:00	2024-11-08T00:00:00	1	Precipitación	0
4536	7	Sololá	712	San Antonio Palopó	9	San Antonio Palopo	8	Agosto	2023-08-31T00:00:00	2024-11-08T00:00:00	8	Radiación solar	0
4537	7	Sololá	712	San Antonio Palopó	9	San Antonio Palopo	8	Agosto	2023-08-31T00:00:00	2024-11-08T01:00:00	2	Temperatura media	21
4538	7	Sololá	712	San Antonio Palopó	9	San Antonio Palopo	8	Agosto	2023-08-31T00:00:00	2024-11-08T01:00:00	4	Temperatura máxima	21
4539	7	Sololá	712	San Antonio Palopó	9	San Antonio Palopo	8	Agosto	2023-08-31T00:00:00	2024-11-08T01:00:00	3	Temperatura mínima	20.6
4540	7	Sololá	712	San Antonio Palopó	9	San Antonio Palopo	8	Agosto	2023-08-31T00:00:00	2024-11-08T01:00:00	5	Humedad	75
4541	7	Sololá	712	San Antonio Palopó	9	San Antonio Palopo	8	Agosto	2023-08-31T00:00:00	2024-11-08T01:00:00	6	Velocidad del viento	3.2
4542	7	Sololá	712	San Antonio Palopó	9	San Antonio Palopo	8	Agosto	2023-08-31T00:00:00	2024-11-08T01:00:00	7	Dirección del viento	3.22
4543	7	Sololá	712	San Antonio Palopó	9	San Antonio Palopo	8	Agosto	2023-08-31T00:00:00	2024-11-08T01:00:00	1	Precipitación	0
4544	7	Sololá	712	San Antonio Palopó	9	San Antonio Palopo	8	Agosto	2023-08-31T00:00:00	2024-11-08T01:00:00	8	Radiación solar	0
4545	7	Sololá	712	San Antonio Palopó	9	San Antonio Palopo	8	Agosto	2023-08-31T00:00:00	2024-11-08T02:00:00	2	Temperatura media	20.1
4546	7	Sololá	712	San Antonio Palopó	9	San Antonio Palopo	8	Agosto	2023-08-31T00:00:00	2024-11-08T02:00:00	4	Temperatura máxima	21
4547	7	Sololá	712	San Antonio Palopó	9	San Antonio Palopo	8	Agosto	2023-08-31T00:00:00	2024-11-08T02:00:00	3	Temperatura mínima	20.1
4548	7	Sololá	712	San Antonio Palopó	9	San Antonio Palopo	8	Agosto	2023-08-31T00:00:00	2024-11-08T02:00:00	5	Humedad	82
4549	7	Sololá	712	San Antonio Palopó	9	San Antonio Palopo	8	Agosto	2023-08-31T00:00:00	2024-11-08T02:00:00	6	Velocidad del viento	6.4
4550	7	Sololá	712	San Antonio Palopó	9	San Antonio Palopo	8	Agosto	2023-08-31T00:00:00	2024-11-08T02:00:00	7	Dirección del viento	6.44
4551	7	Sololá	712	San Antonio Palopó	9	San Antonio Palopo	8	Agosto	2023-08-31T00:00:00	2024-11-08T02:00:00	1	Precipitación	0
4552	7	Sololá	712	San Antonio Palopó	9	San Antonio Palopo	8	Agosto	2023-08-31T00:00:00	2024-11-08T02:00:00	8	Radiación solar	0
4553	7	Sololá	712	San Antonio Palopó	9	San Antonio Palopo	8	Agosto	2023-08-31T00:00:00	2024-11-08T03:00:00	2	Temperatura media	19.9
4554	7	Sololá	712	San Antonio Palopó	9	San Antonio Palopo	8	Agosto	2023-08-31T00:00:00	2024-11-08T03:00:00	4	Temperatura máxima	20.2
4555	7	Sololá	712	San Antonio Palopó	9	San Antonio Palopo	8	Agosto	2023-08-31T00:00:00	2024-11-08T03:00:00	3	Temperatura mínima	19.8
4556	7	Sololá	712	San Antonio Palopó	9	San Antonio Palopo	8	Agosto	2023-08-31T00:00:00	2024-11-08T03:00:00	5	Humedad	83
4557	7	Sololá	712	San Antonio Palopó	9	San Antonio Palopo	8	Agosto	2023-08-31T00:00:00	2024-11-08T03:00:00	6	Velocidad del viento	3.2
4558	7	Sololá	712	San Antonio Palopó	9	San Antonio Palopo	8	Agosto	2023-08-31T00:00:00	2024-11-08T03:00:00	7	Dirección del viento	3.22
4559	7	Sololá	712	San Antonio Palopó	9	San Antonio Palopo	8	Agosto	2023-08-31T00:00:00	2024-11-08T03:00:00	1	Precipitación	0
4560	7	Sololá	712	San Antonio Palopó	9	San Antonio Palopo	8	Agosto	2023-08-31T00:00:00	2024-11-08T03:00:00	8	Radiación solar	0
4561	7	Sololá	712	San Antonio Palopó	9	San Antonio Palopo	8	Agosto	2023-08-31T00:00:00	2024-11-08T04:00:00	2	Temperatura media	19.7
4562	7	Sololá	712	San Antonio Palopó	9	San Antonio Palopo	8	Agosto	2023-08-31T00:00:00	2024-11-08T04:00:00	4	Temperatura máxima	19.9
4563	7	Sololá	712	San Antonio Palopó	9	San Antonio Palopo	8	Agosto	2023-08-31T00:00:00	2024-11-08T04:00:00	3	Temperatura mínima	19.6
4564	7	Sololá	712	San Antonio Palopó	9	San Antonio Palopo	8	Agosto	2023-08-31T00:00:00	2024-11-08T04:00:00	5	Humedad	80
4565	7	Sololá	712	San Antonio Palopó	9	San Antonio Palopo	8	Agosto	2023-08-31T00:00:00	2024-11-08T04:00:00	6	Velocidad del viento	3.2
4566	7	Sololá	712	San Antonio Palopó	9	San Antonio Palopo	8	Agosto	2023-08-31T00:00:00	2024-11-08T04:00:00	7	Dirección del viento	3.22
4567	7	Sololá	712	San Antonio Palopó	9	San Antonio Palopo	8	Agosto	2023-08-31T00:00:00	2024-11-08T04:00:00	1	Precipitación	0
4568	7	Sololá	712	San Antonio Palopó	9	San Antonio Palopo	8	Agosto	2023-08-31T00:00:00	2024-11-08T04:00:00	8	Radiación solar	0
4569	7	Sololá	712	San Antonio Palopó	9	San Antonio Palopo	8	Agosto	2023-08-31T00:00:00	2024-11-08T05:00:00	2	Temperatura media	19.8
4570	7	Sololá	712	San Antonio Palopó	9	San Antonio Palopo	8	Agosto	2023-08-31T00:00:00	2024-11-08T05:00:00	4	Temperatura máxima	20.1
4571	7	Sololá	712	San Antonio Palopó	9	San Antonio Palopo	8	Agosto	2023-08-31T00:00:00	2024-11-08T05:00:00	3	Temperatura mínima	19.6
4572	7	Sololá	712	San Antonio Palopó	9	San Antonio Palopo	8	Agosto	2023-08-31T00:00:00	2024-11-08T05:00:00	5	Humedad	77
4573	7	Sololá	712	San Antonio Palopó	9	San Antonio Palopo	8	Agosto	2023-08-31T00:00:00	2024-11-08T05:00:00	6	Velocidad del viento	3.2
4574	7	Sololá	712	San Antonio Palopó	9	San Antonio Palopo	8	Agosto	2023-08-31T00:00:00	2024-11-08T05:00:00	7	Dirección del viento	3.22
4575	7	Sololá	712	San Antonio Palopó	9	San Antonio Palopo	8	Agosto	2023-08-31T00:00:00	2024-11-08T05:00:00	1	Precipitación	0
4576	7	Sololá	712	San Antonio Palopó	9	San Antonio Palopo	8	Agosto	2023-08-31T00:00:00	2024-11-08T05:00:00	8	Radiación solar	0
4577	7	Sololá	712	San Antonio Palopó	9	San Antonio Palopo	8	Agosto	2023-08-31T00:00:00	2024-11-08T06:00:00	2	Temperatura media	19.8
4578	7	Sololá	712	San Antonio Palopó	9	San Antonio Palopo	8	Agosto	2023-08-31T00:00:00	2024-11-08T06:00:00	4	Temperatura máxima	19.9
4579	7	Sololá	712	San Antonio Palopó	9	San Antonio Palopo	8	Agosto	2023-08-31T00:00:00	2024-11-08T06:00:00	3	Temperatura mínima	19.7
4580	7	Sololá	712	San Antonio Palopó	9	San Antonio Palopo	8	Agosto	2023-08-31T00:00:00	2024-11-08T06:00:00	5	Humedad	76
4581	7	Sololá	712	San Antonio Palopó	9	San Antonio Palopo	8	Agosto	2023-08-31T00:00:00	2024-11-08T06:00:00	6	Velocidad del viento	3.2
4582	7	Sololá	712	San Antonio Palopó	9	San Antonio Palopo	8	Agosto	2023-08-31T00:00:00	2024-11-08T06:00:00	7	Dirección del viento	3.22
4583	7	Sololá	712	San Antonio Palopó	9	San Antonio Palopo	8	Agosto	2023-08-31T00:00:00	2024-11-08T06:00:00	1	Precipitación	0
4584	7	Sololá	712	San Antonio Palopó	9	San Antonio Palopo	8	Agosto	2023-08-31T00:00:00	2024-11-08T06:00:00	8	Radiación solar	0
4585	7	Sololá	712	San Antonio Palopó	9	San Antonio Palopo	8	Agosto	2023-08-31T00:00:00	2024-11-08T07:00:00	2	Temperatura media	20.6
4586	7	Sololá	712	San Antonio Palopó	9	San Antonio Palopo	8	Agosto	2023-08-31T00:00:00	2024-11-08T07:00:00	4	Temperatura máxima	20.6
4587	7	Sololá	712	San Antonio Palopó	9	San Antonio Palopo	8	Agosto	2023-08-31T00:00:00	2024-11-08T07:00:00	3	Temperatura mínima	19.8
4588	7	Sololá	712	San Antonio Palopó	9	San Antonio Palopo	8	Agosto	2023-08-31T00:00:00	2024-11-08T07:00:00	5	Humedad	78
4589	7	Sololá	712	San Antonio Palopó	9	San Antonio Palopo	8	Agosto	2023-08-31T00:00:00	2024-11-08T07:00:00	6	Velocidad del viento	3.2
4590	7	Sololá	712	San Antonio Palopó	9	San Antonio Palopo	8	Agosto	2023-08-31T00:00:00	2024-11-08T07:00:00	7	Dirección del viento	3.22
4591	7	Sololá	712	San Antonio Palopó	9	San Antonio Palopo	8	Agosto	2023-08-31T00:00:00	2024-11-08T07:00:00	1	Precipitación	0
4592	7	Sololá	712	San Antonio Palopó	9	San Antonio Palopo	8	Agosto	2023-08-31T00:00:00	2024-11-08T07:00:00	8	Radiación solar	43
4593	7	Sololá	712	San Antonio Palopó	9	San Antonio Palopo	8	Agosto	2023-08-31T00:00:00	2024-11-08T08:00:00	2	Temperatura media	21.1
4594	7	Sololá	712	San Antonio Palopó	9	San Antonio Palopo	8	Agosto	2023-08-31T00:00:00	2024-11-08T08:00:00	4	Temperatura máxima	21.1
4595	7	Sololá	712	San Antonio Palopó	9	San Antonio Palopo	8	Agosto	2023-08-31T00:00:00	2024-11-08T08:00:00	3	Temperatura mínima	19.7
4596	7	Sololá	712	San Antonio Palopó	9	San Antonio Palopo	8	Agosto	2023-08-31T00:00:00	2024-11-08T08:00:00	5	Humedad	79
4597	7	Sololá	712	San Antonio Palopó	9	San Antonio Palopo	8	Agosto	2023-08-31T00:00:00	2024-11-08T08:00:00	6	Velocidad del viento	1.6
4598	7	Sololá	712	San Antonio Palopó	9	San Antonio Palopo	8	Agosto	2023-08-31T00:00:00	2024-11-08T08:00:00	7	Dirección del viento	1.61
4599	7	Sololá	712	San Antonio Palopó	9	San Antonio Palopo	8	Agosto	2023-08-31T00:00:00	2024-11-08T08:00:00	1	Precipitación	0
4600	7	Sololá	712	San Antonio Palopó	9	San Antonio Palopo	8	Agosto	2023-08-31T00:00:00	2024-11-08T08:00:00	8	Radiación solar	147
4601	7	Sololá	712	San Antonio Palopó	9	San Antonio Palopo	8	Agosto	2023-08-31T00:00:00	2024-11-08T09:00:00	2	Temperatura media	21.9
4602	7	Sololá	712	San Antonio Palopó	9	San Antonio Palopo	8	Agosto	2023-08-31T00:00:00	2024-11-08T09:00:00	4	Temperatura máxima	22.3
4603	7	Sololá	712	San Antonio Palopó	9	San Antonio Palopo	8	Agosto	2023-08-31T00:00:00	2024-11-08T09:00:00	3	Temperatura mínima	21.1
4604	7	Sololá	712	San Antonio Palopó	9	San Antonio Palopo	8	Agosto	2023-08-31T00:00:00	2024-11-08T09:00:00	5	Humedad	73
4605	7	Sololá	712	San Antonio Palopó	9	San Antonio Palopo	8	Agosto	2023-08-31T00:00:00	2024-11-08T09:00:00	6	Velocidad del viento	1.6
4606	7	Sololá	712	San Antonio Palopó	9	San Antonio Palopo	8	Agosto	2023-08-31T00:00:00	2024-11-08T09:00:00	7	Dirección del viento	1.61
4607	7	Sololá	712	San Antonio Palopó	9	San Antonio Palopo	8	Agosto	2023-08-31T00:00:00	2024-11-08T09:00:00	1	Precipitación	0
4608	7	Sololá	712	San Antonio Palopó	9	San Antonio Palopo	8	Agosto	2023-08-31T00:00:00	2024-11-08T09:00:00	8	Radiación solar	464
4609	7	Sololá	712	San Antonio Palopó	9	San Antonio Palopo	8	Agosto	2023-08-31T00:00:00	2024-11-08T10:00:00	2	Temperatura media	23.3
4610	7	Sololá	712	San Antonio Palopó	9	San Antonio Palopo	8	Agosto	2023-08-31T00:00:00	2024-11-08T10:00:00	4	Temperatura máxima	23.3
4611	7	Sololá	712	San Antonio Palopó	9	San Antonio Palopo	8	Agosto	2023-08-31T00:00:00	2024-11-08T10:00:00	3	Temperatura mínima	21.9
4612	7	Sololá	712	San Antonio Palopó	9	San Antonio Palopo	8	Agosto	2023-08-31T00:00:00	2024-11-08T10:00:00	5	Humedad	69
4613	7	Sololá	712	San Antonio Palopó	9	San Antonio Palopo	8	Agosto	2023-08-31T00:00:00	2024-11-08T10:00:00	6	Velocidad del viento	3.2
4614	7	Sololá	712	San Antonio Palopó	9	San Antonio Palopo	8	Agosto	2023-08-31T00:00:00	2024-11-08T10:00:00	7	Dirección del viento	3.22
4615	7	Sololá	712	San Antonio Palopó	9	San Antonio Palopo	8	Agosto	2023-08-31T00:00:00	2024-11-08T10:00:00	1	Precipitación	0
4616	7	Sololá	712	San Antonio Palopó	9	San Antonio Palopo	8	Agosto	2023-08-31T00:00:00	2024-11-08T10:00:00	8	Radiación solar	720
4617	7	Sololá	712	San Antonio Palopó	9	San Antonio Palopo	8	Agosto	2023-08-31T00:00:00	2024-11-08T11:00:00	2	Temperatura media	24.8
4618	7	Sololá	712	San Antonio Palopó	9	San Antonio Palopo	8	Agosto	2023-08-31T00:00:00	2024-11-08T11:00:00	4	Temperatura máxima	24.8
4619	7	Sololá	712	San Antonio Palopó	9	San Antonio Palopo	8	Agosto	2023-08-31T00:00:00	2024-11-08T11:00:00	3	Temperatura mínima	23.3
4620	7	Sololá	712	San Antonio Palopó	9	San Antonio Palopo	8	Agosto	2023-08-31T00:00:00	2024-11-08T11:00:00	5	Humedad	67
4621	7	Sololá	712	San Antonio Palopó	9	San Antonio Palopo	8	Agosto	2023-08-31T00:00:00	2024-11-08T11:00:00	6	Velocidad del viento	4.8
4622	7	Sololá	712	San Antonio Palopó	9	San Antonio Palopo	8	Agosto	2023-08-31T00:00:00	2024-11-08T11:00:00	7	Dirección del viento	4.83
4623	7	Sololá	712	San Antonio Palopó	9	San Antonio Palopo	8	Agosto	2023-08-31T00:00:00	2024-11-08T11:00:00	1	Precipitación	0
4624	7	Sololá	712	San Antonio Palopó	9	San Antonio Palopo	8	Agosto	2023-08-31T00:00:00	2024-11-08T11:00:00	8	Radiación solar	850
4625	7	Sololá	712	San Antonio Palopó	9	San Antonio Palopo	8	Agosto	2023-08-31T00:00:00	2024-11-08T12:00:00	2	Temperatura media	24.3
4626	7	Sololá	712	San Antonio Palopó	9	San Antonio Palopo	8	Agosto	2023-08-31T00:00:00	2024-11-08T12:00:00	4	Temperatura máxima	25.2
4627	7	Sololá	712	San Antonio Palopó	9	San Antonio Palopo	8	Agosto	2023-08-31T00:00:00	2024-11-08T12:00:00	3	Temperatura mínima	24.3
4628	7	Sololá	712	San Antonio Palopó	9	San Antonio Palopo	8	Agosto	2023-08-31T00:00:00	2024-11-08T12:00:00	5	Humedad	70
4629	7	Sololá	712	San Antonio Palopó	9	San Antonio Palopo	8	Agosto	2023-08-31T00:00:00	2024-11-08T12:00:00	6	Velocidad del viento	11.3
4630	7	Sololá	712	San Antonio Palopó	9	San Antonio Palopo	8	Agosto	2023-08-31T00:00:00	2024-11-08T12:00:00	7	Dirección del viento	11.27
4631	7	Sololá	712	San Antonio Palopó	9	San Antonio Palopo	8	Agosto	2023-08-31T00:00:00	2024-11-08T12:00:00	1	Precipitación	0
4632	7	Sololá	712	San Antonio Palopó	9	San Antonio Palopo	8	Agosto	2023-08-31T00:00:00	2024-11-08T12:00:00	8	Radiación solar	825
4633	7	Sololá	712	San Antonio Palopó	9	San Antonio Palopo	8	Agosto	2023-08-31T00:00:00	2024-11-08T13:00:00	2	Temperatura media	23.4
4634	7	Sololá	712	San Antonio Palopó	9	San Antonio Palopo	8	Agosto	2023-08-31T00:00:00	2024-11-08T13:00:00	4	Temperatura máxima	24.8
4635	7	Sololá	712	San Antonio Palopó	9	San Antonio Palopo	8	Agosto	2023-08-31T00:00:00	2024-11-08T13:00:00	3	Temperatura mínima	23.4
4636	7	Sololá	712	San Antonio Palopó	9	San Antonio Palopo	8	Agosto	2023-08-31T00:00:00	2024-11-08T13:00:00	5	Humedad	75
4637	7	Sololá	712	San Antonio Palopó	9	San Antonio Palopo	8	Agosto	2023-08-31T00:00:00	2024-11-08T13:00:00	6	Velocidad del viento	11.3
4638	7	Sololá	712	San Antonio Palopó	9	San Antonio Palopo	8	Agosto	2023-08-31T00:00:00	2024-11-08T13:00:00	7	Dirección del viento	11.27
4639	7	Sololá	712	San Antonio Palopó	9	San Antonio Palopo	8	Agosto	2023-08-31T00:00:00	2024-11-08T13:00:00	1	Precipitación	0
4640	7	Sololá	712	San Antonio Palopó	9	San Antonio Palopo	8	Agosto	2023-08-31T00:00:00	2024-11-08T13:00:00	8	Radiación solar	465
4641	7	Sololá	712	San Antonio Palopó	9	San Antonio Palopo	8	Agosto	2023-08-31T00:00:00	2024-11-08T14:00:00	2	Temperatura media	21.9
4642	7	Sololá	712	San Antonio Palopó	9	San Antonio Palopo	8	Agosto	2023-08-31T00:00:00	2024-11-08T14:00:00	4	Temperatura máxima	23.3
4643	7	Sololá	712	San Antonio Palopó	9	San Antonio Palopo	8	Agosto	2023-08-31T00:00:00	2024-11-08T14:00:00	3	Temperatura mínima	21.9
4644	7	Sololá	712	San Antonio Palopó	9	San Antonio Palopo	8	Agosto	2023-08-31T00:00:00	2024-11-08T14:00:00	5	Humedad	71
4645	7	Sololá	712	San Antonio Palopó	9	San Antonio Palopo	8	Agosto	2023-08-31T00:00:00	2024-11-08T14:00:00	6	Velocidad del viento	8
4646	7	Sololá	712	San Antonio Palopó	9	San Antonio Palopo	8	Agosto	2023-08-31T00:00:00	2024-11-08T14:00:00	7	Dirección del viento	8.05
4647	7	Sololá	712	San Antonio Palopó	9	San Antonio Palopo	8	Agosto	2023-08-31T00:00:00	2024-11-08T14:00:00	1	Precipitación	0
4648	7	Sololá	712	San Antonio Palopó	9	San Antonio Palopo	8	Agosto	2023-08-31T00:00:00	2024-11-08T14:00:00	8	Radiación solar	74
4649	7	Sololá	712	San Antonio Palopó	9	San Antonio Palopo	8	Agosto	2023-08-31T00:00:00	2024-11-08T15:00:00	2	Temperatura media	22.1
4650	7	Sololá	712	San Antonio Palopó	9	San Antonio Palopo	8	Agosto	2023-08-31T00:00:00	2024-11-08T15:00:00	4	Temperatura máxima	22.2
4651	7	Sololá	712	San Antonio Palopó	9	San Antonio Palopo	8	Agosto	2023-08-31T00:00:00	2024-11-08T15:00:00	3	Temperatura mínima	21.8
4652	7	Sololá	712	San Antonio Palopó	9	San Antonio Palopo	8	Agosto	2023-08-31T00:00:00	2024-11-08T15:00:00	5	Humedad	69
4653	7	Sololá	712	San Antonio Palopó	9	San Antonio Palopo	8	Agosto	2023-08-31T00:00:00	2024-11-08T15:00:00	6	Velocidad del viento	6.4
4654	7	Sololá	712	San Antonio Palopó	9	San Antonio Palopo	8	Agosto	2023-08-31T00:00:00	2024-11-08T15:00:00	7	Dirección del viento	6.44
4655	7	Sololá	712	San Antonio Palopó	9	San Antonio Palopo	8	Agosto	2023-08-31T00:00:00	2024-11-08T15:00:00	1	Precipitación	0
4656	7	Sololá	712	San Antonio Palopó	9	San Antonio Palopo	8	Agosto	2023-08-31T00:00:00	2024-11-08T15:00:00	8	Radiación solar	49
4657	7	Sololá	712	San Antonio Palopó	9	San Antonio Palopo	8	Agosto	2023-08-31T00:00:00	2024-11-08T16:00:00	2	Temperatura media	22.3
4658	7	Sololá	712	San Antonio Palopó	9	San Antonio Palopo	8	Agosto	2023-08-31T00:00:00	2024-11-08T16:00:00	4	Temperatura máxima	22.3
4659	7	Sololá	712	San Antonio Palopó	9	San Antonio Palopo	8	Agosto	2023-08-31T00:00:00	2024-11-08T16:00:00	3	Temperatura mínima	22.1
4660	7	Sololá	712	San Antonio Palopó	9	San Antonio Palopo	8	Agosto	2023-08-31T00:00:00	2024-11-08T16:00:00	5	Humedad	74
4661	7	Sololá	712	San Antonio Palopó	9	San Antonio Palopo	8	Agosto	2023-08-31T00:00:00	2024-11-08T16:00:00	6	Velocidad del viento	3.2
4662	7	Sololá	712	San Antonio Palopó	9	San Antonio Palopo	8	Agosto	2023-08-31T00:00:00	2024-11-08T16:00:00	7	Dirección del viento	3.22
4663	7	Sololá	712	San Antonio Palopó	9	San Antonio Palopo	8	Agosto	2023-08-31T00:00:00	2024-11-08T16:00:00	1	Precipitación	0
4664	7	Sololá	712	San Antonio Palopó	9	San Antonio Palopo	8	Agosto	2023-08-31T00:00:00	2024-11-08T16:00:00	8	Radiación solar	80
4665	7	Sololá	712	San Antonio Palopó	9	San Antonio Palopo	8	Agosto	2023-08-31T00:00:00	2024-11-08T17:00:00	2	Temperatura media	21.6
4666	7	Sololá	712	San Antonio Palopó	9	San Antonio Palopo	8	Agosto	2023-08-31T00:00:00	2024-11-08T17:00:00	4	Temperatura máxima	22.4
4667	7	Sololá	712	San Antonio Palopó	9	San Antonio Palopo	8	Agosto	2023-08-31T00:00:00	2024-11-08T17:00:00	3	Temperatura mínima	21.6
4668	7	Sololá	712	San Antonio Palopó	9	San Antonio Palopo	8	Agosto	2023-08-31T00:00:00	2024-11-08T17:00:00	5	Humedad	75
4669	7	Sololá	712	San Antonio Palopó	9	San Antonio Palopo	8	Agosto	2023-08-31T00:00:00	2024-11-08T17:00:00	6	Velocidad del viento	1.6
4670	7	Sololá	712	San Antonio Palopó	9	San Antonio Palopo	8	Agosto	2023-08-31T00:00:00	2024-11-08T17:00:00	7	Dirección del viento	1.61
4671	7	Sololá	712	San Antonio Palopó	9	San Antonio Palopo	8	Agosto	2023-08-31T00:00:00	2024-11-08T17:00:00	1	Precipitación	0
4672	7	Sololá	712	San Antonio Palopó	9	San Antonio Palopo	8	Agosto	2023-08-31T00:00:00	2024-11-08T17:00:00	8	Radiación solar	28
4673	7	Sololá	712	San Antonio Palopó	9	San Antonio Palopo	8	Agosto	2023-08-31T00:00:00	2024-11-08T18:00:00	2	Temperatura media	20.8
4674	7	Sololá	712	San Antonio Palopó	9	San Antonio Palopo	8	Agosto	2023-08-31T00:00:00	2024-11-08T18:00:00	4	Temperatura máxima	21.6
4675	7	Sololá	712	San Antonio Palopó	9	San Antonio Palopo	8	Agosto	2023-08-31T00:00:00	2024-11-08T18:00:00	3	Temperatura mínima	20.7
4676	7	Sololá	712	San Antonio Palopó	9	San Antonio Palopo	8	Agosto	2023-08-31T00:00:00	2024-11-08T18:00:00	5	Humedad	79
4677	7	Sololá	712	San Antonio Palopó	9	San Antonio Palopo	8	Agosto	2023-08-31T00:00:00	2024-11-08T18:00:00	6	Velocidad del viento	1.6
4678	7	Sololá	712	San Antonio Palopó	9	San Antonio Palopo	8	Agosto	2023-08-31T00:00:00	2024-11-08T18:00:00	7	Dirección del viento	1.61
4679	7	Sololá	712	San Antonio Palopó	9	San Antonio Palopo	8	Agosto	2023-08-31T00:00:00	2024-11-08T18:00:00	1	Precipitación	0
4680	7	Sololá	712	San Antonio Palopó	9	San Antonio Palopo	8	Agosto	2023-08-31T00:00:00	2024-11-08T18:00:00	8	Radiación solar	1
4681	7	Sololá	712	San Antonio Palopó	9	San Antonio Palopo	8	Agosto	2023-08-31T00:00:00	2024-11-08T19:00:00	2	Temperatura media	20
4682	7	Sololá	712	San Antonio Palopó	9	San Antonio Palopo	8	Agosto	2023-08-31T00:00:00	2024-11-08T19:00:00	4	Temperatura máxima	21.2
4683	7	Sololá	712	San Antonio Palopó	9	San Antonio Palopo	8	Agosto	2023-08-31T00:00:00	2024-11-08T19:00:00	3	Temperatura mínima	19.9
4684	7	Sololá	712	San Antonio Palopó	9	San Antonio Palopo	8	Agosto	2023-08-31T00:00:00	2024-11-08T19:00:00	5	Humedad	83
4685	7	Sololá	712	San Antonio Palopó	9	San Antonio Palopo	8	Agosto	2023-08-31T00:00:00	2024-11-08T19:00:00	6	Velocidad del viento	3.2
4686	7	Sololá	712	San Antonio Palopó	9	San Antonio Palopo	8	Agosto	2023-08-31T00:00:00	2024-11-08T19:00:00	7	Dirección del viento	3.22
4687	7	Sololá	712	San Antonio Palopó	9	San Antonio Palopo	8	Agosto	2023-08-31T00:00:00	2024-11-08T19:00:00	1	Precipitación	1
4688	7	Sololá	712	San Antonio Palopó	9	San Antonio Palopo	8	Agosto	2023-08-31T00:00:00	2024-11-08T19:00:00	8	Radiación solar	0
4689	7	Sololá	712	San Antonio Palopó	9	San Antonio Palopo	8	Agosto	2023-08-31T00:00:00	2024-11-08T20:00:00	2	Temperatura media	20.1
4690	7	Sololá	712	San Antonio Palopó	9	San Antonio Palopo	8	Agosto	2023-08-31T00:00:00	2024-11-08T20:00:00	4	Temperatura máxima	20.2
4691	7	Sololá	712	San Antonio Palopó	9	San Antonio Palopo	8	Agosto	2023-08-31T00:00:00	2024-11-08T20:00:00	3	Temperatura mínima	19.8
4692	7	Sololá	712	San Antonio Palopó	9	San Antonio Palopo	8	Agosto	2023-08-31T00:00:00	2024-11-08T20:00:00	5	Humedad	81
4693	7	Sololá	712	San Antonio Palopó	9	San Antonio Palopo	8	Agosto	2023-08-31T00:00:00	2024-11-08T20:00:00	6	Velocidad del viento	3.2
4694	7	Sololá	712	San Antonio Palopó	9	San Antonio Palopo	8	Agosto	2023-08-31T00:00:00	2024-11-08T20:00:00	7	Dirección del viento	3.22
4695	7	Sololá	712	San Antonio Palopó	9	San Antonio Palopo	8	Agosto	2023-08-31T00:00:00	2024-11-08T20:00:00	1	Precipitación	1
4696	7	Sololá	712	San Antonio Palopó	9	San Antonio Palopo	8	Agosto	2023-08-31T00:00:00	2024-11-08T20:00:00	8	Radiación solar	0
4697	7	Sololá	712	San Antonio Palopó	9	San Antonio Palopo	8	Agosto	2023-08-31T00:00:00	2024-11-08T21:00:00	2	Temperatura media	20.5
4698	7	Sololá	712	San Antonio Palopó	9	San Antonio Palopo	8	Agosto	2023-08-31T00:00:00	2024-11-08T21:00:00	4	Temperatura máxima	20.6
4699	7	Sololá	712	San Antonio Palopó	9	San Antonio Palopo	8	Agosto	2023-08-31T00:00:00	2024-11-08T21:00:00	3	Temperatura mínima	19.8
4700	7	Sololá	712	San Antonio Palopó	9	San Antonio Palopo	8	Agosto	2023-08-31T00:00:00	2024-11-08T21:00:00	5	Humedad	78
4701	7	Sololá	712	San Antonio Palopó	9	San Antonio Palopo	8	Agosto	2023-08-31T00:00:00	2024-11-08T21:00:00	6	Velocidad del viento	6.4
4702	7	Sololá	712	San Antonio Palopó	9	San Antonio Palopo	8	Agosto	2023-08-31T00:00:00	2024-11-08T21:00:00	7	Dirección del viento	6.44
4703	7	Sololá	712	San Antonio Palopó	9	San Antonio Palopo	8	Agosto	2023-08-31T00:00:00	2024-11-08T21:00:00	1	Precipitación	0
4704	7	Sololá	712	San Antonio Palopó	9	San Antonio Palopo	8	Agosto	2023-08-31T00:00:00	2024-11-08T21:00:00	8	Radiación solar	0
4705	7	Sololá	712	San Antonio Palopó	9	San Antonio Palopo	8	Agosto	2023-08-31T00:00:00	2024-11-08T22:00:00	2	Temperatura media	20.4
4706	7	Sololá	712	San Antonio Palopó	9	San Antonio Palopo	8	Agosto	2023-08-31T00:00:00	2024-11-08T22:00:00	4	Temperatura máxima	20.7
4707	7	Sololá	712	San Antonio Palopó	9	San Antonio Palopo	8	Agosto	2023-08-31T00:00:00	2024-11-08T22:00:00	3	Temperatura mínima	19.9
4708	7	Sololá	712	San Antonio Palopó	9	San Antonio Palopo	8	Agosto	2023-08-31T00:00:00	2024-11-08T22:00:00	5	Humedad	82
4709	7	Sololá	712	San Antonio Palopó	9	San Antonio Palopo	8	Agosto	2023-08-31T00:00:00	2024-11-08T22:00:00	6	Velocidad del viento	4.8
4710	7	Sololá	712	San Antonio Palopó	9	San Antonio Palopo	8	Agosto	2023-08-31T00:00:00	2024-11-08T22:00:00	7	Dirección del viento	4.83
4711	7	Sololá	712	San Antonio Palopó	9	San Antonio Palopo	8	Agosto	2023-08-31T00:00:00	2024-11-08T22:00:00	1	Precipitación	0
4712	7	Sololá	712	San Antonio Palopó	9	San Antonio Palopo	8	Agosto	2023-08-31T00:00:00	2024-11-08T22:00:00	8	Radiación solar	0
4713	7	Sololá	712	San Antonio Palopó	9	San Antonio Palopo	8	Agosto	2023-08-31T00:00:00	2024-11-08T23:00:00	2	Temperatura media	19.5
4714	7	Sololá	712	San Antonio Palopó	9	San Antonio Palopo	8	Agosto	2023-08-31T00:00:00	2024-11-08T23:00:00	4	Temperatura máxima	20.5
4715	7	Sololá	712	San Antonio Palopó	9	San Antonio Palopo	8	Agosto	2023-08-31T00:00:00	2024-11-08T23:00:00	3	Temperatura mínima	19.4
4716	7	Sololá	712	San Antonio Palopó	9	San Antonio Palopo	8	Agosto	2023-08-31T00:00:00	2024-11-08T23:00:00	5	Humedad	83
4717	7	Sololá	712	San Antonio Palopó	9	San Antonio Palopo	8	Agosto	2023-08-31T00:00:00	2024-11-08T23:00:00	6	Velocidad del viento	3.2
4718	7	Sololá	712	San Antonio Palopó	9	San Antonio Palopo	8	Agosto	2023-08-31T00:00:00	2024-11-08T23:00:00	7	Dirección del viento	3.22
4719	7	Sololá	712	San Antonio Palopó	9	San Antonio Palopo	8	Agosto	2023-08-31T00:00:00	2024-11-08T23:00:00	1	Precipitación	0
4720	7	Sololá	712	San Antonio Palopó	9	San Antonio Palopo	8	Agosto	2023-08-31T00:00:00	2024-11-08T23:00:00	8	Radiación solar	0
4721	7	Sololá	712	San Antonio Palopó	9	San Antonio Palopo	9	Septiembre	2023-01-09T00:00:00	2024-11-08T00:00:00	2	Temperatura media	19.8
4722	7	Sololá	712	San Antonio Palopó	9	San Antonio Palopo	9	Septiembre	2023-01-09T00:00:00	2024-11-08T00:00:00	4	Temperatura máxima	19.9
4723	7	Sololá	712	San Antonio Palopó	9	San Antonio Palopo	9	Septiembre	2023-01-09T00:00:00	2024-11-08T00:00:00	3	Temperatura mínima	19.3
4724	7	Sololá	712	San Antonio Palopó	9	San Antonio Palopo	9	Septiembre	2023-01-09T00:00:00	2024-11-08T00:00:00	5	Humedad	79
4725	7	Sololá	712	San Antonio Palopó	9	San Antonio Palopo	9	Septiembre	2023-01-09T00:00:00	2024-11-08T00:00:00	6	Velocidad del viento	4.8
4726	7	Sololá	712	San Antonio Palopó	9	San Antonio Palopo	9	Septiembre	2023-01-09T00:00:00	2024-11-08T00:00:00	7	Dirección del viento	4.83
4727	7	Sololá	712	San Antonio Palopó	9	San Antonio Palopo	9	Septiembre	2023-01-09T00:00:00	2024-11-08T00:00:00	1	Precipitación	0
4728	7	Sololá	712	San Antonio Palopó	9	San Antonio Palopo	9	Septiembre	2023-01-09T00:00:00	2024-11-08T00:00:00	8	Radiación solar	0
4729	7	Sololá	712	San Antonio Palopó	9	San Antonio Palopo	9	Septiembre	2023-01-09T00:00:00	2024-11-08T01:00:00	2	Temperatura media	19
4730	7	Sololá	712	San Antonio Palopó	9	San Antonio Palopo	9	Septiembre	2023-01-09T00:00:00	2024-11-08T01:00:00	4	Temperatura máxima	20
4731	7	Sololá	712	San Antonio Palopó	9	San Antonio Palopo	9	Septiembre	2023-01-09T00:00:00	2024-11-08T01:00:00	3	Temperatura mínima	18.9
4732	7	Sololá	712	San Antonio Palopó	9	San Antonio Palopo	9	Septiembre	2023-01-09T00:00:00	2024-11-08T01:00:00	5	Humedad	77
4733	7	Sololá	712	San Antonio Palopó	9	San Antonio Palopo	9	Septiembre	2023-01-09T00:00:00	2024-11-08T01:00:00	6	Velocidad del viento	4.8
4734	7	Sololá	712	San Antonio Palopó	9	San Antonio Palopo	9	Septiembre	2023-01-09T00:00:00	2024-11-08T01:00:00	7	Dirección del viento	4.83
4735	7	Sololá	712	San Antonio Palopó	9	San Antonio Palopo	9	Septiembre	2023-01-09T00:00:00	2024-11-08T01:00:00	1	Precipitación	0
4736	7	Sololá	712	San Antonio Palopó	9	San Antonio Palopo	9	Septiembre	2023-01-09T00:00:00	2024-11-08T01:00:00	8	Radiación solar	0
4737	7	Sololá	712	San Antonio Palopó	9	San Antonio Palopo	9	Septiembre	2023-01-09T00:00:00	2024-11-08T02:00:00	2	Temperatura media	19.9
4738	7	Sololá	712	San Antonio Palopó	9	San Antonio Palopo	9	Septiembre	2023-01-09T00:00:00	2024-11-08T02:00:00	4	Temperatura máxima	20
4739	7	Sololá	712	San Antonio Palopó	9	San Antonio Palopo	9	Septiembre	2023-01-09T00:00:00	2024-11-08T02:00:00	3	Temperatura mínima	19
4740	7	Sololá	712	San Antonio Palopó	9	San Antonio Palopo	9	Septiembre	2023-01-09T00:00:00	2024-11-08T02:00:00	5	Humedad	68
4741	7	Sololá	712	San Antonio Palopó	9	San Antonio Palopo	9	Septiembre	2023-01-09T00:00:00	2024-11-08T02:00:00	6	Velocidad del viento	8
4742	7	Sololá	712	San Antonio Palopó	9	San Antonio Palopo	9	Septiembre	2023-01-09T00:00:00	2024-11-08T02:00:00	7	Dirección del viento	8.05
4743	7	Sololá	712	San Antonio Palopó	9	San Antonio Palopo	9	Septiembre	2023-01-09T00:00:00	2024-11-08T02:00:00	1	Precipitación	0
4744	7	Sololá	712	San Antonio Palopó	9	San Antonio Palopo	9	Septiembre	2023-01-09T00:00:00	2024-11-08T02:00:00	8	Radiación solar	0
4745	7	Sololá	712	San Antonio Palopó	9	San Antonio Palopo	9	Septiembre	2023-01-09T00:00:00	2024-11-08T03:00:00	2	Temperatura media	19.6
4746	7	Sololá	712	San Antonio Palopó	9	San Antonio Palopo	9	Septiembre	2023-01-09T00:00:00	2024-11-08T03:00:00	4	Temperatura máxima	20
4747	7	Sololá	712	San Antonio Palopó	9	San Antonio Palopo	9	Septiembre	2023-01-09T00:00:00	2024-11-08T03:00:00	3	Temperatura mínima	19.6
4748	7	Sololá	712	San Antonio Palopó	9	San Antonio Palopo	9	Septiembre	2023-01-09T00:00:00	2024-11-08T03:00:00	5	Humedad	69
4749	7	Sololá	712	San Antonio Palopó	9	San Antonio Palopo	9	Septiembre	2023-01-09T00:00:00	2024-11-08T03:00:00	6	Velocidad del viento	9.7
4750	7	Sololá	712	San Antonio Palopó	9	San Antonio Palopo	9	Septiembre	2023-01-09T00:00:00	2024-11-08T03:00:00	7	Dirección del viento	9.66
4751	7	Sololá	712	San Antonio Palopó	9	San Antonio Palopo	9	Septiembre	2023-01-09T00:00:00	2024-11-08T03:00:00	1	Precipitación	0
4752	7	Sololá	712	San Antonio Palopó	9	San Antonio Palopo	9	Septiembre	2023-01-09T00:00:00	2024-11-08T03:00:00	8	Radiación solar	0
4753	7	Sololá	712	San Antonio Palopó	9	San Antonio Palopo	9	Septiembre	2023-01-09T00:00:00	2024-11-08T04:00:00	2	Temperatura media	19.9
4754	7	Sololá	712	San Antonio Palopó	9	San Antonio Palopo	9	Septiembre	2023-01-09T00:00:00	2024-11-08T04:00:00	4	Temperatura máxima	20.1
4755	7	Sololá	712	San Antonio Palopó	9	San Antonio Palopo	9	Septiembre	2023-01-09T00:00:00	2024-11-08T04:00:00	3	Temperatura mínima	19.4
4756	7	Sololá	712	San Antonio Palopó	9	San Antonio Palopo	9	Septiembre	2023-01-09T00:00:00	2024-11-08T04:00:00	5	Humedad	67
4757	7	Sololá	712	San Antonio Palopó	9	San Antonio Palopo	9	Septiembre	2023-01-09T00:00:00	2024-11-08T04:00:00	6	Velocidad del viento	6.4
4758	7	Sololá	712	San Antonio Palopó	9	San Antonio Palopo	9	Septiembre	2023-01-09T00:00:00	2024-11-08T04:00:00	7	Dirección del viento	6.44
4759	7	Sololá	712	San Antonio Palopó	9	San Antonio Palopo	9	Septiembre	2023-01-09T00:00:00	2024-11-08T04:00:00	1	Precipitación	0
4760	7	Sololá	712	San Antonio Palopó	9	San Antonio Palopo	9	Septiembre	2023-01-09T00:00:00	2024-11-08T04:00:00	8	Radiación solar	0
4761	7	Sololá	712	San Antonio Palopó	9	San Antonio Palopo	9	Septiembre	2023-01-09T00:00:00	2024-11-08T05:00:00	2	Temperatura media	20.3
4762	7	Sololá	712	San Antonio Palopó	9	San Antonio Palopo	9	Septiembre	2023-01-09T00:00:00	2024-11-08T05:00:00	4	Temperatura máxima	20.4
4763	7	Sololá	712	San Antonio Palopó	9	San Antonio Palopo	9	Septiembre	2023-01-09T00:00:00	2024-11-08T05:00:00	3	Temperatura mínima	19.4
4764	7	Sololá	712	San Antonio Palopó	9	San Antonio Palopo	9	Septiembre	2023-01-09T00:00:00	2024-11-08T05:00:00	5	Humedad	67
4765	7	Sololá	712	San Antonio Palopó	9	San Antonio Palopo	9	Septiembre	2023-01-09T00:00:00	2024-11-08T05:00:00	6	Velocidad del viento	11.3
4766	7	Sololá	712	San Antonio Palopó	9	San Antonio Palopo	9	Septiembre	2023-01-09T00:00:00	2024-11-08T05:00:00	7	Dirección del viento	11.27
4767	7	Sololá	712	San Antonio Palopó	9	San Antonio Palopo	9	Septiembre	2023-01-09T00:00:00	2024-11-08T05:00:00	1	Precipitación	0
4768	7	Sololá	712	San Antonio Palopó	9	San Antonio Palopo	9	Septiembre	2023-01-09T00:00:00	2024-11-08T05:00:00	8	Radiación solar	0
4769	7	Sololá	712	San Antonio Palopó	9	San Antonio Palopo	9	Septiembre	2023-01-09T00:00:00	2024-11-08T06:00:00	2	Temperatura media	19.9
4770	7	Sololá	712	San Antonio Palopó	9	San Antonio Palopo	9	Septiembre	2023-01-09T00:00:00	2024-11-08T06:00:00	4	Temperatura máxima	20.3
4771	7	Sololá	712	San Antonio Palopó	9	San Antonio Palopo	9	Septiembre	2023-01-09T00:00:00	2024-11-08T06:00:00	3	Temperatura mínima	19.9
4772	7	Sololá	712	San Antonio Palopó	9	San Antonio Palopo	9	Septiembre	2023-01-09T00:00:00	2024-11-08T06:00:00	5	Humedad	68
4773	7	Sololá	712	San Antonio Palopó	9	San Antonio Palopo	9	Septiembre	2023-01-09T00:00:00	2024-11-08T06:00:00	6	Velocidad del viento	12.9
4774	7	Sololá	712	San Antonio Palopó	9	San Antonio Palopo	9	Septiembre	2023-01-09T00:00:00	2024-11-08T06:00:00	7	Dirección del viento	12.87
4775	7	Sololá	712	San Antonio Palopó	9	San Antonio Palopo	9	Septiembre	2023-01-09T00:00:00	2024-11-08T06:00:00	1	Precipitación	0
4776	7	Sololá	712	San Antonio Palopó	9	San Antonio Palopo	9	Septiembre	2023-01-09T00:00:00	2024-11-08T06:00:00	8	Radiación solar	0
4777	7	Sololá	712	San Antonio Palopó	9	San Antonio Palopo	9	Septiembre	2023-01-09T00:00:00	2024-11-08T07:00:00	2	Temperatura media	20.3
4778	7	Sololá	712	San Antonio Palopó	9	San Antonio Palopo	9	Septiembre	2023-01-09T00:00:00	2024-11-08T07:00:00	4	Temperatura máxima	20.3
4779	7	Sololá	712	San Antonio Palopó	9	San Antonio Palopo	9	Septiembre	2023-01-09T00:00:00	2024-11-08T07:00:00	3	Temperatura mínima	19.6
4780	7	Sololá	712	San Antonio Palopó	9	San Antonio Palopo	9	Septiembre	2023-01-09T00:00:00	2024-11-08T07:00:00	5	Humedad	66
4781	7	Sololá	712	San Antonio Palopó	9	San Antonio Palopo	9	Septiembre	2023-01-09T00:00:00	2024-11-08T07:00:00	6	Velocidad del viento	4.8
4782	7	Sololá	712	San Antonio Palopó	9	San Antonio Palopo	9	Septiembre	2023-01-09T00:00:00	2024-11-08T07:00:00	7	Dirección del viento	4.83
4783	7	Sololá	712	San Antonio Palopó	9	San Antonio Palopo	9	Septiembre	2023-01-09T00:00:00	2024-11-08T07:00:00	1	Precipitación	0
4784	7	Sololá	712	San Antonio Palopó	9	San Antonio Palopo	9	Septiembre	2023-01-09T00:00:00	2024-11-08T07:00:00	8	Radiación solar	32
4785	7	Sololá	712	San Antonio Palopó	9	San Antonio Palopo	9	Septiembre	2023-01-09T00:00:00	2024-11-08T08:00:00	2	Temperatura media	20.8
4786	7	Sololá	712	San Antonio Palopó	9	San Antonio Palopo	9	Septiembre	2023-01-09T00:00:00	2024-11-08T08:00:00	4	Temperatura máxima	20.8
4787	7	Sololá	712	San Antonio Palopó	9	San Antonio Palopo	9	Septiembre	2023-01-09T00:00:00	2024-11-08T08:00:00	3	Temperatura mínima	19.3
4788	7	Sololá	712	San Antonio Palopó	9	San Antonio Palopo	9	Septiembre	2023-01-09T00:00:00	2024-11-08T08:00:00	5	Humedad	70
4789	7	Sololá	712	San Antonio Palopó	9	San Antonio Palopo	9	Septiembre	2023-01-09T00:00:00	2024-11-08T08:00:00	6	Velocidad del viento	3.2
4790	7	Sololá	712	San Antonio Palopó	9	San Antonio Palopo	9	Septiembre	2023-01-09T00:00:00	2024-11-08T08:00:00	7	Dirección del viento	3.22
4791	7	Sololá	712	San Antonio Palopó	9	San Antonio Palopo	9	Septiembre	2023-01-09T00:00:00	2024-11-08T08:00:00	1	Precipitación	0
4792	7	Sololá	712	San Antonio Palopó	9	San Antonio Palopo	9	Septiembre	2023-01-09T00:00:00	2024-11-08T08:00:00	8	Radiación solar	149
4793	7	Sololá	712	San Antonio Palopó	9	San Antonio Palopo	9	Septiembre	2023-01-09T00:00:00	2024-11-08T09:00:00	2	Temperatura media	22.7
4794	7	Sololá	712	San Antonio Palopó	9	San Antonio Palopo	9	Septiembre	2023-01-09T00:00:00	2024-11-08T09:00:00	4	Temperatura máxima	22.7
4795	7	Sololá	712	San Antonio Palopó	9	San Antonio Palopo	9	Septiembre	2023-01-09T00:00:00	2024-11-08T09:00:00	3	Temperatura mínima	20.8
4796	7	Sololá	712	San Antonio Palopó	9	San Antonio Palopo	9	Septiembre	2023-01-09T00:00:00	2024-11-08T09:00:00	5	Humedad	67
4797	7	Sololá	712	San Antonio Palopó	9	San Antonio Palopo	9	Septiembre	2023-01-09T00:00:00	2024-11-08T09:00:00	6	Velocidad del viento	1.6
4798	7	Sololá	712	San Antonio Palopó	9	San Antonio Palopo	9	Septiembre	2023-01-09T00:00:00	2024-11-08T09:00:00	7	Dirección del viento	1.61
4799	7	Sololá	712	San Antonio Palopó	9	San Antonio Palopo	9	Septiembre	2023-01-09T00:00:00	2024-11-08T09:00:00	1	Precipitación	0
4800	7	Sololá	712	San Antonio Palopó	9	San Antonio Palopo	9	Septiembre	2023-01-09T00:00:00	2024-11-08T09:00:00	8	Radiación solar	445
4801	7	Sololá	712	San Antonio Palopó	9	San Antonio Palopo	9	Septiembre	2023-01-09T00:00:00	2024-11-08T10:00:00	2	Temperatura media	25.1
4802	7	Sololá	712	San Antonio Palopó	9	San Antonio Palopo	9	Septiembre	2023-01-09T00:00:00	2024-11-08T10:00:00	4	Temperatura máxima	25.1
4803	7	Sololá	712	San Antonio Palopó	9	San Antonio Palopo	9	Septiembre	2023-01-09T00:00:00	2024-11-08T10:00:00	3	Temperatura mínima	22.7
4804	7	Sololá	712	San Antonio Palopó	9	San Antonio Palopo	9	Septiembre	2023-01-09T00:00:00	2024-11-08T10:00:00	5	Humedad	58
4805	7	Sololá	712	San Antonio Palopó	9	San Antonio Palopo	9	Septiembre	2023-01-09T00:00:00	2024-11-08T10:00:00	6	Velocidad del viento	3.2
4806	7	Sololá	712	San Antonio Palopó	9	San Antonio Palopo	9	Septiembre	2023-01-09T00:00:00	2024-11-08T10:00:00	7	Dirección del viento	3.22
4807	7	Sololá	712	San Antonio Palopó	9	San Antonio Palopo	9	Septiembre	2023-01-09T00:00:00	2024-11-08T10:00:00	1	Precipitación	0
4808	7	Sololá	712	San Antonio Palopó	9	San Antonio Palopo	9	Septiembre	2023-01-09T00:00:00	2024-11-08T10:00:00	8	Radiación solar	699
4809	7	Sololá	712	San Antonio Palopó	9	San Antonio Palopo	9	Septiembre	2023-01-09T00:00:00	2024-11-08T11:00:00	2	Temperatura media	26.3
4810	7	Sololá	712	San Antonio Palopó	9	San Antonio Palopo	9	Septiembre	2023-01-09T00:00:00	2024-11-08T11:00:00	4	Temperatura máxima	26.3
4811	7	Sololá	712	San Antonio Palopó	9	San Antonio Palopo	9	Septiembre	2023-01-09T00:00:00	2024-11-08T11:00:00	3	Temperatura mínima	24.9
4812	7	Sololá	712	San Antonio Palopó	9	San Antonio Palopo	9	Septiembre	2023-01-09T00:00:00	2024-11-08T11:00:00	5	Humedad	57
4813	7	Sololá	712	San Antonio Palopó	9	San Antonio Palopo	9	Septiembre	2023-01-09T00:00:00	2024-11-08T11:00:00	6	Velocidad del viento	4.8
4814	7	Sololá	712	San Antonio Palopó	9	San Antonio Palopo	9	Septiembre	2023-01-09T00:00:00	2024-11-08T11:00:00	7	Dirección del viento	4.83
4815	7	Sololá	712	San Antonio Palopó	9	San Antonio Palopo	9	Septiembre	2023-01-09T00:00:00	2024-11-08T11:00:00	1	Precipitación	0
4816	7	Sololá	712	San Antonio Palopó	9	San Antonio Palopo	9	Septiembre	2023-01-09T00:00:00	2024-11-08T11:00:00	8	Radiación solar	841
4817	7	Sololá	712	San Antonio Palopó	9	San Antonio Palopo	9	Septiembre	2023-01-09T00:00:00	2024-11-08T12:00:00	2	Temperatura media	27.2
4818	7	Sololá	712	San Antonio Palopó	9	San Antonio Palopo	9	Septiembre	2023-01-09T00:00:00	2024-11-08T12:00:00	4	Temperatura máxima	27.8
4819	7	Sololá	712	San Antonio Palopó	9	San Antonio Palopo	9	Septiembre	2023-01-09T00:00:00	2024-11-08T12:00:00	3	Temperatura mínima	26.1
4820	7	Sololá	712	San Antonio Palopó	9	San Antonio Palopo	9	Septiembre	2023-01-09T00:00:00	2024-11-08T12:00:00	5	Humedad	55
4821	7	Sololá	712	San Antonio Palopó	9	San Antonio Palopo	9	Septiembre	2023-01-09T00:00:00	2024-11-08T12:00:00	6	Velocidad del viento	6.4
4822	7	Sololá	712	San Antonio Palopó	9	San Antonio Palopo	9	Septiembre	2023-01-09T00:00:00	2024-11-08T12:00:00	7	Dirección del viento	6.44
4823	7	Sololá	712	San Antonio Palopó	9	San Antonio Palopo	9	Septiembre	2023-01-09T00:00:00	2024-11-08T12:00:00	1	Precipitación	0
4824	7	Sololá	712	San Antonio Palopó	9	San Antonio Palopo	9	Septiembre	2023-01-09T00:00:00	2024-11-08T12:00:00	8	Radiación solar	969
4825	7	Sololá	712	San Antonio Palopó	9	San Antonio Palopo	9	Septiembre	2023-01-09T00:00:00	2024-11-08T13:00:00	2	Temperatura media	27.6
4826	7	Sololá	712	San Antonio Palopó	9	San Antonio Palopo	9	Septiembre	2023-01-09T00:00:00	2024-11-08T13:00:00	4	Temperatura máxima	28.6
4827	7	Sololá	712	San Antonio Palopó	9	San Antonio Palopo	9	Septiembre	2023-01-09T00:00:00	2024-11-08T13:00:00	3	Temperatura mínima	27.1
4828	7	Sololá	712	San Antonio Palopó	9	San Antonio Palopo	9	Septiembre	2023-01-09T00:00:00	2024-11-08T13:00:00	5	Humedad	57
4829	7	Sololá	712	San Antonio Palopó	9	San Antonio Palopo	9	Septiembre	2023-01-09T00:00:00	2024-11-08T13:00:00	6	Velocidad del viento	11.3
4830	7	Sololá	712	San Antonio Palopó	9	San Antonio Palopo	9	Septiembre	2023-01-09T00:00:00	2024-11-08T13:00:00	7	Dirección del viento	11.27
4831	7	Sololá	712	San Antonio Palopó	9	San Antonio Palopo	9	Septiembre	2023-01-09T00:00:00	2024-11-08T13:00:00	1	Precipitación	0
4832	7	Sololá	712	San Antonio Palopó	9	San Antonio Palopo	9	Septiembre	2023-01-09T00:00:00	2024-11-08T13:00:00	8	Radiación solar	1019
4833	7	Sololá	712	San Antonio Palopó	9	San Antonio Palopo	9	Septiembre	2023-01-09T00:00:00	2024-11-08T14:00:00	2	Temperatura media	25.5
4834	7	Sololá	712	San Antonio Palopó	9	San Antonio Palopo	9	Septiembre	2023-01-09T00:00:00	2024-11-08T14:00:00	4	Temperatura máxima	27.8
4835	7	Sololá	712	San Antonio Palopó	9	San Antonio Palopo	9	Septiembre	2023-01-09T00:00:00	2024-11-08T14:00:00	3	Temperatura mínima	25.4
4836	7	Sololá	712	San Antonio Palopó	9	San Antonio Palopo	9	Septiembre	2023-01-09T00:00:00	2024-11-08T14:00:00	5	Humedad	67
4837	7	Sololá	712	San Antonio Palopó	9	San Antonio Palopo	9	Septiembre	2023-01-09T00:00:00	2024-11-08T14:00:00	6	Velocidad del viento	16.1
4838	7	Sololá	712	San Antonio Palopó	9	San Antonio Palopo	9	Septiembre	2023-01-09T00:00:00	2024-11-08T14:00:00	7	Dirección del viento	16.09
4839	7	Sololá	712	San Antonio Palopó	9	San Antonio Palopo	9	Septiembre	2023-01-09T00:00:00	2024-11-08T14:00:00	1	Precipitación	0
4840	7	Sololá	712	San Antonio Palopó	9	San Antonio Palopo	9	Septiembre	2023-01-09T00:00:00	2024-11-08T14:00:00	8	Radiación solar	916
4841	7	Sololá	712	San Antonio Palopó	9	San Antonio Palopo	9	Septiembre	2023-01-09T00:00:00	2024-11-08T15:00:00	2	Temperatura media	26.1
4842	7	Sololá	712	San Antonio Palopó	9	San Antonio Palopo	9	Septiembre	2023-01-09T00:00:00	2024-11-08T15:00:00	4	Temperatura máxima	26.2
4843	7	Sololá	712	San Antonio Palopó	9	San Antonio Palopo	9	Septiembre	2023-01-09T00:00:00	2024-11-08T15:00:00	3	Temperatura mínima	25.3
4844	7	Sololá	712	San Antonio Palopó	9	San Antonio Palopo	9	Septiembre	2023-01-09T00:00:00	2024-11-08T15:00:00	5	Humedad	70
4845	7	Sololá	712	San Antonio Palopó	9	San Antonio Palopo	9	Septiembre	2023-01-09T00:00:00	2024-11-08T15:00:00	6	Velocidad del viento	9.7
4846	7	Sololá	712	San Antonio Palopó	9	San Antonio Palopo	9	Septiembre	2023-01-09T00:00:00	2024-11-08T15:00:00	7	Dirección del viento	9.66
4847	7	Sololá	712	San Antonio Palopó	9	San Antonio Palopo	9	Septiembre	2023-01-09T00:00:00	2024-11-08T15:00:00	1	Precipitación	0
4848	7	Sololá	712	San Antonio Palopó	9	San Antonio Palopo	9	Septiembre	2023-01-09T00:00:00	2024-11-08T15:00:00	8	Radiación solar	797
4849	7	Sololá	712	San Antonio Palopó	9	San Antonio Palopo	9	Septiembre	2023-01-09T00:00:00	2024-11-08T16:00:00	2	Temperatura media	25.1
4850	7	Sololá	712	San Antonio Palopó	9	San Antonio Palopo	9	Septiembre	2023-01-09T00:00:00	2024-11-08T16:00:00	4	Temperatura máxima	26.4
4851	7	Sololá	712	San Antonio Palopó	9	San Antonio Palopo	9	Septiembre	2023-01-09T00:00:00	2024-11-08T16:00:00	3	Temperatura mínima	24.3
4852	7	Sololá	712	San Antonio Palopó	9	San Antonio Palopo	9	Septiembre	2023-01-09T00:00:00	2024-11-08T16:00:00	5	Humedad	72
4853	7	Sololá	712	San Antonio Palopó	9	San Antonio Palopo	9	Septiembre	2023-01-09T00:00:00	2024-11-08T16:00:00	6	Velocidad del viento	6.4
4854	7	Sololá	712	San Antonio Palopó	9	San Antonio Palopo	9	Septiembre	2023-01-09T00:00:00	2024-11-08T16:00:00	7	Dirección del viento	6.44
4855	7	Sololá	712	San Antonio Palopó	9	San Antonio Palopo	9	Septiembre	2023-01-09T00:00:00	2024-11-08T16:00:00	1	Precipitación	0
4856	7	Sololá	712	San Antonio Palopó	9	San Antonio Palopo	9	Septiembre	2023-01-09T00:00:00	2024-11-08T16:00:00	8	Radiación solar	467
4857	7	Sololá	712	San Antonio Palopó	9	San Antonio Palopo	9	Septiembre	2023-01-09T00:00:00	2024-11-08T17:00:00	2	Temperatura media	23.3
4858	7	Sololá	712	San Antonio Palopó	9	San Antonio Palopo	9	Septiembre	2023-01-09T00:00:00	2024-11-08T17:00:00	4	Temperatura máxima	25.9
4859	7	Sololá	712	San Antonio Palopó	9	San Antonio Palopo	9	Septiembre	2023-01-09T00:00:00	2024-11-08T17:00:00	3	Temperatura mínima	23.3
4860	7	Sololá	712	San Antonio Palopó	9	San Antonio Palopo	9	Septiembre	2023-01-09T00:00:00	2024-11-08T17:00:00	5	Humedad	79
4861	7	Sololá	712	San Antonio Palopó	9	San Antonio Palopo	9	Septiembre	2023-01-09T00:00:00	2024-11-08T17:00:00	6	Velocidad del viento	4.8
4862	7	Sololá	712	San Antonio Palopó	9	San Antonio Palopo	9	Septiembre	2023-01-09T00:00:00	2024-11-08T17:00:00	7	Dirección del viento	4.83
4863	7	Sololá	712	San Antonio Palopó	9	San Antonio Palopo	9	Septiembre	2023-01-09T00:00:00	2024-11-08T17:00:00	1	Precipitación	0
4864	7	Sololá	712	San Antonio Palopó	9	San Antonio Palopo	9	Septiembre	2023-01-09T00:00:00	2024-11-08T17:00:00	8	Radiación solar	252
4865	7	Sololá	712	San Antonio Palopó	9	San Antonio Palopo	9	Septiembre	2023-01-09T00:00:00	2024-11-08T18:00:00	2	Temperatura media	22.1
4866	7	Sololá	712	San Antonio Palopó	9	San Antonio Palopo	9	Septiembre	2023-01-09T00:00:00	2024-11-08T18:00:00	4	Temperatura máxima	23.3
4867	7	Sololá	712	San Antonio Palopó	9	San Antonio Palopo	9	Septiembre	2023-01-09T00:00:00	2024-11-08T18:00:00	3	Temperatura mínima	21.9
4868	7	Sololá	712	San Antonio Palopó	9	San Antonio Palopo	9	Septiembre	2023-01-09T00:00:00	2024-11-08T18:00:00	5	Humedad	83
4869	7	Sololá	712	San Antonio Palopó	9	San Antonio Palopo	9	Septiembre	2023-01-09T00:00:00	2024-11-08T18:00:00	6	Velocidad del viento	4.8
4870	7	Sololá	712	San Antonio Palopó	9	San Antonio Palopo	9	Septiembre	2023-01-09T00:00:00	2024-11-08T18:00:00	7	Dirección del viento	4.83
4871	7	Sololá	712	San Antonio Palopó	9	San Antonio Palopo	9	Septiembre	2023-01-09T00:00:00	2024-11-08T18:00:00	1	Precipitación	0
4872	7	Sololá	712	San Antonio Palopó	9	San Antonio Palopo	9	Septiembre	2023-01-09T00:00:00	2024-11-08T18:00:00	8	Radiación solar	24
4873	7	Sololá	712	San Antonio Palopó	9	San Antonio Palopo	9	Septiembre	2023-01-09T00:00:00	2024-11-08T19:00:00	2	Temperatura media	21.8
4874	7	Sololá	712	San Antonio Palopó	9	San Antonio Palopo	9	Septiembre	2023-01-09T00:00:00	2024-11-08T19:00:00	4	Temperatura máxima	22.2
4875	7	Sololá	712	San Antonio Palopó	9	San Antonio Palopo	9	Septiembre	2023-01-09T00:00:00	2024-11-08T19:00:00	3	Temperatura mínima	21.8
4876	7	Sololá	712	San Antonio Palopó	9	San Antonio Palopo	9	Septiembre	2023-01-09T00:00:00	2024-11-08T19:00:00	5	Humedad	83
4877	7	Sololá	712	San Antonio Palopó	9	San Antonio Palopo	9	Septiembre	2023-01-09T00:00:00	2024-11-08T19:00:00	6	Velocidad del viento	3.2
4878	7	Sololá	712	San Antonio Palopó	9	San Antonio Palopo	9	Septiembre	2023-01-09T00:00:00	2024-11-08T19:00:00	7	Dirección del viento	3.22
4879	7	Sololá	712	San Antonio Palopó	9	San Antonio Palopo	9	Septiembre	2023-01-09T00:00:00	2024-11-08T19:00:00	1	Precipitación	0
4880	7	Sololá	712	San Antonio Palopó	9	San Antonio Palopo	9	Septiembre	2023-01-09T00:00:00	2024-11-08T19:00:00	8	Radiación solar	0
4881	7	Sololá	712	San Antonio Palopó	9	San Antonio Palopo	9	Septiembre	2023-01-09T00:00:00	2024-11-08T20:00:00	2	Temperatura media	19.7
4882	7	Sololá	712	San Antonio Palopó	9	San Antonio Palopo	9	Septiembre	2023-01-09T00:00:00	2024-11-08T20:00:00	4	Temperatura máxima	21.9
4883	7	Sololá	712	San Antonio Palopó	9	San Antonio Palopo	9	Septiembre	2023-01-09T00:00:00	2024-11-08T20:00:00	3	Temperatura mínima	19.4
4884	7	Sololá	712	San Antonio Palopó	9	San Antonio Palopo	9	Septiembre	2023-01-09T00:00:00	2024-11-08T20:00:00	5	Humedad	78
4885	7	Sololá	712	San Antonio Palopó	9	San Antonio Palopo	9	Septiembre	2023-01-09T00:00:00	2024-11-08T20:00:00	6	Velocidad del viento	6.4
4886	7	Sololá	712	San Antonio Palopó	9	San Antonio Palopo	9	Septiembre	2023-01-09T00:00:00	2024-11-08T20:00:00	7	Dirección del viento	6.44
4887	7	Sololá	712	San Antonio Palopó	9	San Antonio Palopo	9	Septiembre	2023-01-09T00:00:00	2024-11-08T20:00:00	1	Precipitación	3.6
4888	7	Sololá	712	San Antonio Palopó	9	San Antonio Palopo	9	Septiembre	2023-01-09T00:00:00	2024-11-08T20:00:00	8	Radiación solar	0
4889	7	Sololá	712	San Antonio Palopó	9	San Antonio Palopo	9	Septiembre	2023-01-09T00:00:00	2024-11-08T21:00:00	2	Temperatura media	20
4890	7	Sololá	712	San Antonio Palopó	9	San Antonio Palopo	9	Septiembre	2023-01-09T00:00:00	2024-11-08T21:00:00	4	Temperatura máxima	20.2
4891	7	Sololá	712	San Antonio Palopó	9	San Antonio Palopo	9	Septiembre	2023-01-09T00:00:00	2024-11-08T21:00:00	3	Temperatura mínima	19.6
4892	7	Sololá	712	San Antonio Palopó	9	San Antonio Palopo	9	Septiembre	2023-01-09T00:00:00	2024-11-08T21:00:00	5	Humedad	81
4893	7	Sololá	712	San Antonio Palopó	9	San Antonio Palopo	9	Septiembre	2023-01-09T00:00:00	2024-11-08T21:00:00	6	Velocidad del viento	8
4894	7	Sololá	712	San Antonio Palopó	9	San Antonio Palopo	9	Septiembre	2023-01-09T00:00:00	2024-11-08T21:00:00	7	Dirección del viento	8.05
4895	7	Sololá	712	San Antonio Palopó	9	San Antonio Palopo	9	Septiembre	2023-01-09T00:00:00	2024-11-08T21:00:00	1	Precipitación	0.8
4896	7	Sololá	712	San Antonio Palopó	9	San Antonio Palopo	9	Septiembre	2023-01-09T00:00:00	2024-11-08T21:00:00	8	Radiación solar	0
4897	7	Sololá	712	San Antonio Palopó	9	San Antonio Palopo	9	Septiembre	2023-01-09T00:00:00	2024-11-08T22:00:00	2	Temperatura media	19.9
4898	7	Sololá	712	San Antonio Palopó	9	San Antonio Palopo	9	Septiembre	2023-01-09T00:00:00	2024-11-08T22:00:00	4	Temperatura máxima	20.3
4899	7	Sololá	712	San Antonio Palopó	9	San Antonio Palopo	9	Septiembre	2023-01-09T00:00:00	2024-11-08T22:00:00	3	Temperatura mínima	19.8
4900	7	Sololá	712	San Antonio Palopó	9	San Antonio Palopo	9	Septiembre	2023-01-09T00:00:00	2024-11-08T22:00:00	5	Humedad	75
4901	7	Sololá	712	San Antonio Palopó	9	San Antonio Palopo	9	Septiembre	2023-01-09T00:00:00	2024-11-08T22:00:00	6	Velocidad del viento	8
4902	7	Sololá	712	San Antonio Palopó	9	San Antonio Palopo	9	Septiembre	2023-01-09T00:00:00	2024-11-08T22:00:00	7	Dirección del viento	8.05
4903	7	Sololá	712	San Antonio Palopó	9	San Antonio Palopo	9	Septiembre	2023-01-09T00:00:00	2024-11-08T22:00:00	1	Precipitación	0
4904	7	Sololá	712	San Antonio Palopó	9	San Antonio Palopo	9	Septiembre	2023-01-09T00:00:00	2024-11-08T22:00:00	8	Radiación solar	0
4905	7	Sololá	712	San Antonio Palopó	9	San Antonio Palopo	9	Septiembre	2023-01-09T00:00:00	2024-11-08T23:00:00	2	Temperatura media	20.3
4906	7	Sololá	712	San Antonio Palopó	9	San Antonio Palopo	9	Septiembre	2023-01-09T00:00:00	2024-11-08T23:00:00	4	Temperatura máxima	20.3
4907	7	Sololá	712	San Antonio Palopó	9	San Antonio Palopo	9	Septiembre	2023-01-09T00:00:00	2024-11-08T23:00:00	3	Temperatura mínima	19.7
4908	7	Sololá	712	San Antonio Palopó	9	San Antonio Palopo	9	Septiembre	2023-01-09T00:00:00	2024-11-08T23:00:00	5	Humedad	73
4909	7	Sololá	712	San Antonio Palopó	9	San Antonio Palopo	9	Septiembre	2023-01-09T00:00:00	2024-11-08T23:00:00	6	Velocidad del viento	6.4
4910	7	Sololá	712	San Antonio Palopó	9	San Antonio Palopo	9	Septiembre	2023-01-09T00:00:00	2024-11-08T23:00:00	7	Dirección del viento	6.44
4911	7	Sololá	712	San Antonio Palopó	9	San Antonio Palopo	9	Septiembre	2023-01-09T00:00:00	2024-11-08T23:00:00	1	Precipitación	0
4912	7	Sololá	712	San Antonio Palopó	9	San Antonio Palopo	9	Septiembre	2023-01-09T00:00:00	2024-11-08T23:00:00	8	Radiación solar	0
4913	7	Sololá	712	San Antonio Palopó	9	San Antonio Palopo	9	Septiembre	2023-02-09T00:00:00	2024-11-08T00:00:00	2	Temperatura media	19.4
4914	7	Sololá	712	San Antonio Palopó	9	San Antonio Palopo	9	Septiembre	2023-02-09T00:00:00	2024-11-08T00:00:00	4	Temperatura máxima	20.4
4915	7	Sololá	712	San Antonio Palopó	9	San Antonio Palopo	9	Septiembre	2023-02-09T00:00:00	2024-11-08T00:00:00	3	Temperatura mínima	19.4
4916	7	Sololá	712	San Antonio Palopó	9	San Antonio Palopo	9	Septiembre	2023-02-09T00:00:00	2024-11-08T00:00:00	5	Humedad	78
4917	7	Sololá	712	San Antonio Palopó	9	San Antonio Palopo	9	Septiembre	2023-02-09T00:00:00	2024-11-08T00:00:00	6	Velocidad del viento	3.2
4918	7	Sololá	712	San Antonio Palopó	9	San Antonio Palopo	9	Septiembre	2023-02-09T00:00:00	2024-11-08T00:00:00	7	Dirección del viento	3.22
4919	7	Sololá	712	San Antonio Palopó	9	San Antonio Palopo	9	Septiembre	2023-02-09T00:00:00	2024-11-08T00:00:00	1	Precipitación	0
4920	7	Sololá	712	San Antonio Palopó	9	San Antonio Palopo	9	Septiembre	2023-02-09T00:00:00	2024-11-08T00:00:00	8	Radiación solar	0
4921	7	Sololá	712	San Antonio Palopó	9	San Antonio Palopo	9	Septiembre	2023-02-09T00:00:00	2024-11-08T01:00:00	2	Temperatura media	20.2
4922	7	Sololá	712	San Antonio Palopó	9	San Antonio Palopo	9	Septiembre	2023-02-09T00:00:00	2024-11-08T01:00:00	4	Temperatura máxima	20.7
4923	7	Sololá	712	San Antonio Palopó	9	San Antonio Palopo	9	Septiembre	2023-02-09T00:00:00	2024-11-08T01:00:00	3	Temperatura mínima	19.3
4924	7	Sololá	712	San Antonio Palopó	9	San Antonio Palopo	9	Septiembre	2023-02-09T00:00:00	2024-11-08T01:00:00	5	Humedad	71
4925	7	Sololá	712	San Antonio Palopó	9	San Antonio Palopo	9	Septiembre	2023-02-09T00:00:00	2024-11-08T01:00:00	6	Velocidad del viento	4.8
4926	7	Sololá	712	San Antonio Palopó	9	San Antonio Palopo	9	Septiembre	2023-02-09T00:00:00	2024-11-08T01:00:00	7	Dirección del viento	4.83
4927	7	Sololá	712	San Antonio Palopó	9	San Antonio Palopo	9	Septiembre	2023-02-09T00:00:00	2024-11-08T01:00:00	1	Precipitación	0
4928	7	Sololá	712	San Antonio Palopó	9	San Antonio Palopo	9	Septiembre	2023-02-09T00:00:00	2024-11-08T01:00:00	8	Radiación solar	0
4929	7	Sololá	712	San Antonio Palopó	9	San Antonio Palopo	9	Septiembre	2023-02-09T00:00:00	2024-11-08T02:00:00	2	Temperatura media	19.2
4930	7	Sololá	712	San Antonio Palopó	9	San Antonio Palopo	9	Septiembre	2023-02-09T00:00:00	2024-11-08T02:00:00	4	Temperatura máxima	20.3
4931	7	Sololá	712	San Antonio Palopó	9	San Antonio Palopo	9	Septiembre	2023-02-09T00:00:00	2024-11-08T02:00:00	3	Temperatura mínima	19.2
4932	7	Sololá	712	San Antonio Palopó	9	San Antonio Palopo	9	Septiembre	2023-02-09T00:00:00	2024-11-08T02:00:00	5	Humedad	76
4933	7	Sololá	712	San Antonio Palopó	9	San Antonio Palopo	9	Septiembre	2023-02-09T00:00:00	2024-11-08T02:00:00	6	Velocidad del viento	3.2
4934	7	Sololá	712	San Antonio Palopó	9	San Antonio Palopo	9	Septiembre	2023-02-09T00:00:00	2024-11-08T02:00:00	7	Dirección del viento	3.22
4935	7	Sololá	712	San Antonio Palopó	9	San Antonio Palopo	9	Septiembre	2023-02-09T00:00:00	2024-11-08T02:00:00	1	Precipitación	0
4936	7	Sololá	712	San Antonio Palopó	9	San Antonio Palopo	9	Septiembre	2023-02-09T00:00:00	2024-11-08T02:00:00	8	Radiación solar	0
4937	7	Sololá	712	San Antonio Palopó	9	San Antonio Palopo	9	Septiembre	2023-02-09T00:00:00	2024-11-08T03:00:00	2	Temperatura media	18.4
4938	7	Sololá	712	San Antonio Palopó	9	San Antonio Palopo	9	Septiembre	2023-02-09T00:00:00	2024-11-08T03:00:00	4	Temperatura máxima	19.6
4939	7	Sololá	712	San Antonio Palopó	9	San Antonio Palopo	9	Septiembre	2023-02-09T00:00:00	2024-11-08T03:00:00	3	Temperatura mínima	18.4
4940	7	Sololá	712	San Antonio Palopó	9	San Antonio Palopo	9	Septiembre	2023-02-09T00:00:00	2024-11-08T03:00:00	5	Humedad	77
4941	7	Sololá	712	San Antonio Palopó	9	San Antonio Palopo	9	Septiembre	2023-02-09T00:00:00	2024-11-08T03:00:00	6	Velocidad del viento	4.8
4942	7	Sololá	712	San Antonio Palopó	9	San Antonio Palopo	9	Septiembre	2023-02-09T00:00:00	2024-11-08T03:00:00	7	Dirección del viento	4.83
4943	7	Sololá	712	San Antonio Palopó	9	San Antonio Palopo	9	Septiembre	2023-02-09T00:00:00	2024-11-08T03:00:00	1	Precipitación	0
4944	7	Sololá	712	San Antonio Palopó	9	San Antonio Palopo	9	Septiembre	2023-02-09T00:00:00	2024-11-08T03:00:00	8	Radiación solar	0
4945	7	Sololá	712	San Antonio Palopó	9	San Antonio Palopo	9	Septiembre	2023-02-09T00:00:00	2024-11-08T04:00:00	2	Temperatura media	20.6
4946	7	Sololá	712	San Antonio Palopó	9	San Antonio Palopo	9	Septiembre	2023-02-09T00:00:00	2024-11-08T04:00:00	4	Temperatura máxima	20.6
4947	7	Sololá	712	San Antonio Palopó	9	San Antonio Palopo	9	Septiembre	2023-02-09T00:00:00	2024-11-08T04:00:00	3	Temperatura mínima	18.4
4948	7	Sololá	712	San Antonio Palopó	9	San Antonio Palopo	9	Septiembre	2023-02-09T00:00:00	2024-11-08T04:00:00	5	Humedad	68
4949	7	Sololá	712	San Antonio Palopó	9	San Antonio Palopo	9	Septiembre	2023-02-09T00:00:00	2024-11-08T04:00:00	6	Velocidad del viento	4.8
4950	7	Sololá	712	San Antonio Palopó	9	San Antonio Palopo	9	Septiembre	2023-02-09T00:00:00	2024-11-08T04:00:00	7	Dirección del viento	4.83
4951	7	Sololá	712	San Antonio Palopó	9	San Antonio Palopo	9	Septiembre	2023-02-09T00:00:00	2024-11-08T04:00:00	1	Precipitación	0
4952	7	Sololá	712	San Antonio Palopó	9	San Antonio Palopo	9	Septiembre	2023-02-09T00:00:00	2024-11-08T04:00:00	8	Radiación solar	0
4953	7	Sololá	712	San Antonio Palopó	9	San Antonio Palopo	9	Septiembre	2023-02-09T00:00:00	2024-11-08T05:00:00	2	Temperatura media	19.6
4954	7	Sololá	712	San Antonio Palopó	9	San Antonio Palopo	9	Septiembre	2023-02-09T00:00:00	2024-11-08T05:00:00	4	Temperatura máxima	20.5
4955	7	Sololá	712	San Antonio Palopó	9	San Antonio Palopo	9	Septiembre	2023-02-09T00:00:00	2024-11-08T05:00:00	3	Temperatura mínima	19.6
4956	7	Sololá	712	San Antonio Palopó	9	San Antonio Palopo	9	Septiembre	2023-02-09T00:00:00	2024-11-08T05:00:00	5	Humedad	70
4957	7	Sololá	712	San Antonio Palopó	9	San Antonio Palopo	9	Septiembre	2023-02-09T00:00:00	2024-11-08T05:00:00	6	Velocidad del viento	9.7
4958	7	Sololá	712	San Antonio Palopó	9	San Antonio Palopo	9	Septiembre	2023-02-09T00:00:00	2024-11-08T05:00:00	7	Dirección del viento	9.66
4959	7	Sololá	712	San Antonio Palopó	9	San Antonio Palopo	9	Septiembre	2023-02-09T00:00:00	2024-11-08T05:00:00	1	Precipitación	0
4960	7	Sololá	712	San Antonio Palopó	9	San Antonio Palopo	9	Septiembre	2023-02-09T00:00:00	2024-11-08T05:00:00	8	Radiación solar	0
4961	7	Sololá	712	San Antonio Palopó	9	San Antonio Palopo	9	Septiembre	2023-02-09T00:00:00	2024-11-08T06:00:00	2	Temperatura media	19.9
4962	7	Sololá	712	San Antonio Palopó	9	San Antonio Palopo	9	Septiembre	2023-02-09T00:00:00	2024-11-08T06:00:00	4	Temperatura máxima	20.2
4963	7	Sololá	712	San Antonio Palopó	9	San Antonio Palopo	9	Septiembre	2023-02-09T00:00:00	2024-11-08T06:00:00	3	Temperatura mínima	19.6
4964	7	Sololá	712	San Antonio Palopó	9	San Antonio Palopo	9	Septiembre	2023-02-09T00:00:00	2024-11-08T06:00:00	5	Humedad	69
4965	7	Sololá	712	San Antonio Palopó	9	San Antonio Palopo	9	Septiembre	2023-02-09T00:00:00	2024-11-08T06:00:00	6	Velocidad del viento	12.9
4966	7	Sololá	712	San Antonio Palopó	9	San Antonio Palopo	9	Septiembre	2023-02-09T00:00:00	2024-11-08T06:00:00	7	Dirección del viento	12.87
4967	7	Sololá	712	San Antonio Palopó	9	San Antonio Palopo	9	Septiembre	2023-02-09T00:00:00	2024-11-08T06:00:00	1	Precipitación	0
4968	7	Sololá	712	San Antonio Palopó	9	San Antonio Palopo	9	Septiembre	2023-02-09T00:00:00	2024-11-08T06:00:00	8	Radiación solar	1
4969	7	Sololá	712	San Antonio Palopó	9	San Antonio Palopo	9	Septiembre	2023-02-09T00:00:00	2024-11-08T07:00:00	2	Temperatura media	20.8
4970	7	Sololá	712	San Antonio Palopó	9	San Antonio Palopo	9	Septiembre	2023-02-09T00:00:00	2024-11-08T07:00:00	4	Temperatura máxima	20.8
4971	7	Sololá	712	San Antonio Palopó	9	San Antonio Palopo	9	Septiembre	2023-02-09T00:00:00	2024-11-08T07:00:00	3	Temperatura mínima	19.7
4972	7	Sololá	712	San Antonio Palopó	9	San Antonio Palopo	9	Septiembre	2023-02-09T00:00:00	2024-11-08T07:00:00	5	Humedad	68
4973	7	Sololá	712	San Antonio Palopó	9	San Antonio Palopo	9	Septiembre	2023-02-09T00:00:00	2024-11-08T07:00:00	6	Velocidad del viento	11.3
4974	7	Sololá	712	San Antonio Palopó	9	San Antonio Palopo	9	Septiembre	2023-02-09T00:00:00	2024-11-08T07:00:00	7	Dirección del viento	11.27
4975	7	Sololá	712	San Antonio Palopó	9	San Antonio Palopo	9	Septiembre	2023-02-09T00:00:00	2024-11-08T07:00:00	1	Precipitación	0
4976	7	Sololá	712	San Antonio Palopó	9	San Antonio Palopo	9	Septiembre	2023-02-09T00:00:00	2024-11-08T07:00:00	8	Radiación solar	35
4977	7	Sololá	712	San Antonio Palopó	9	San Antonio Palopo	9	Septiembre	2023-02-09T00:00:00	2024-11-08T08:00:00	2	Temperatura media	22.1
4978	7	Sololá	712	San Antonio Palopó	9	San Antonio Palopo	9	Septiembre	2023-02-09T00:00:00	2024-11-08T08:00:00	4	Temperatura máxima	22.2
4979	7	Sololá	712	San Antonio Palopó	9	San Antonio Palopo	9	Septiembre	2023-02-09T00:00:00	2024-11-08T08:00:00	3	Temperatura mínima	20.6
4980	7	Sololá	712	San Antonio Palopó	9	San Antonio Palopo	9	Septiembre	2023-02-09T00:00:00	2024-11-08T08:00:00	5	Humedad	64
4981	7	Sololá	712	San Antonio Palopó	9	San Antonio Palopo	9	Septiembre	2023-02-09T00:00:00	2024-11-08T08:00:00	6	Velocidad del viento	4.8
4982	7	Sololá	712	San Antonio Palopó	9	San Antonio Palopo	9	Septiembre	2023-02-09T00:00:00	2024-11-08T08:00:00	7	Dirección del viento	4.83
4983	7	Sololá	712	San Antonio Palopó	9	San Antonio Palopo	9	Septiembre	2023-02-09T00:00:00	2024-11-08T08:00:00	1	Precipitación	0
4984	7	Sololá	712	San Antonio Palopó	9	San Antonio Palopo	9	Septiembre	2023-02-09T00:00:00	2024-11-08T08:00:00	8	Radiación solar	164
4985	7	Sololá	712	San Antonio Palopó	9	San Antonio Palopo	9	Septiembre	2023-02-09T00:00:00	2024-11-08T09:00:00	2	Temperatura media	23.4
4986	7	Sololá	712	San Antonio Palopó	9	San Antonio Palopo	9	Septiembre	2023-02-09T00:00:00	2024-11-08T09:00:00	4	Temperatura máxima	23.9
4987	7	Sololá	712	San Antonio Palopó	9	San Antonio Palopo	9	Septiembre	2023-02-09T00:00:00	2024-11-08T09:00:00	3	Temperatura mínima	22.2
4988	7	Sololá	712	San Antonio Palopó	9	San Antonio Palopo	9	Septiembre	2023-02-09T00:00:00	2024-11-08T09:00:00	5	Humedad	64
4989	7	Sololá	712	San Antonio Palopó	9	San Antonio Palopo	9	Septiembre	2023-02-09T00:00:00	2024-11-08T09:00:00	6	Velocidad del viento	4.8
4990	7	Sololá	712	San Antonio Palopó	9	San Antonio Palopo	9	Septiembre	2023-02-09T00:00:00	2024-11-08T09:00:00	7	Dirección del viento	4.83
4991	7	Sololá	712	San Antonio Palopó	9	San Antonio Palopo	9	Septiembre	2023-02-09T00:00:00	2024-11-08T09:00:00	1	Precipitación	0
4992	7	Sololá	712	San Antonio Palopó	9	San Antonio Palopo	9	Septiembre	2023-02-09T00:00:00	2024-11-08T09:00:00	8	Radiación solar	441
4993	7	Sololá	712	San Antonio Palopó	9	San Antonio Palopo	9	Septiembre	2023-02-09T00:00:00	2024-11-08T10:00:00	2	Temperatura media	24.8
4994	7	Sololá	712	San Antonio Palopó	9	San Antonio Palopo	9	Septiembre	2023-02-09T00:00:00	2024-11-08T10:00:00	4	Temperatura máxima	24.9
4995	7	Sololá	712	San Antonio Palopó	9	San Antonio Palopo	9	Septiembre	2023-02-09T00:00:00	2024-11-08T10:00:00	3	Temperatura mínima	23.2
4996	7	Sololá	712	San Antonio Palopó	9	San Antonio Palopo	9	Septiembre	2023-02-09T00:00:00	2024-11-08T10:00:00	5	Humedad	58
4997	7	Sololá	712	San Antonio Palopó	9	San Antonio Palopo	9	Septiembre	2023-02-09T00:00:00	2024-11-08T10:00:00	6	Velocidad del viento	8
4998	7	Sololá	712	San Antonio Palopó	9	San Antonio Palopo	9	Septiembre	2023-02-09T00:00:00	2024-11-08T10:00:00	7	Dirección del viento	8.05
4999	7	Sololá	712	San Antonio Palopó	9	San Antonio Palopo	9	Septiembre	2023-02-09T00:00:00	2024-11-08T10:00:00	1	Precipitación	0
5000	7	Sololá	712	San Antonio Palopó	9	San Antonio Palopo	9	Septiembre	2023-02-09T00:00:00	2024-11-08T10:00:00	8	Radiación solar	686
5001	7	Sololá	712	San Antonio Palopó	9	San Antonio Palopo	9	Septiembre	2023-02-09T00:00:00	2024-11-08T11:00:00	2	Temperatura media	25.8
5002	7	Sololá	712	San Antonio Palopó	9	San Antonio Palopo	9	Septiembre	2023-02-09T00:00:00	2024-11-08T11:00:00	4	Temperatura máxima	26.1
5003	7	Sololá	712	San Antonio Palopó	9	San Antonio Palopo	9	Septiembre	2023-02-09T00:00:00	2024-11-08T11:00:00	3	Temperatura mínima	24.8
5004	7	Sololá	712	San Antonio Palopó	9	San Antonio Palopo	9	Septiembre	2023-02-09T00:00:00	2024-11-08T11:00:00	5	Humedad	54
5005	7	Sololá	712	San Antonio Palopó	9	San Antonio Palopo	9	Septiembre	2023-02-09T00:00:00	2024-11-08T11:00:00	6	Velocidad del viento	8
5006	7	Sololá	712	San Antonio Palopó	9	San Antonio Palopo	9	Septiembre	2023-02-09T00:00:00	2024-11-08T11:00:00	7	Dirección del viento	8.05
5007	7	Sololá	712	San Antonio Palopó	9	San Antonio Palopo	9	Septiembre	2023-02-09T00:00:00	2024-11-08T11:00:00	1	Precipitación	0
5008	7	Sololá	712	San Antonio Palopó	9	San Antonio Palopo	9	Septiembre	2023-02-09T00:00:00	2024-11-08T11:00:00	8	Radiación solar	835
5009	7	Sololá	712	San Antonio Palopó	9	San Antonio Palopo	9	Septiembre	2023-02-09T00:00:00	2024-11-08T12:00:00	2	Temperatura media	25.8
5010	7	Sololá	712	San Antonio Palopó	9	San Antonio Palopo	9	Septiembre	2023-02-09T00:00:00	2024-11-08T12:00:00	4	Temperatura máxima	26.7
5011	7	Sololá	712	San Antonio Palopó	9	San Antonio Palopo	9	Septiembre	2023-02-09T00:00:00	2024-11-08T12:00:00	3	Temperatura mínima	25.7
5012	7	Sololá	712	San Antonio Palopó	9	San Antonio Palopo	9	Septiembre	2023-02-09T00:00:00	2024-11-08T12:00:00	5	Humedad	62
5013	7	Sololá	712	San Antonio Palopó	9	San Antonio Palopo	9	Septiembre	2023-02-09T00:00:00	2024-11-08T12:00:00	6	Velocidad del viento	9.7
5014	7	Sololá	712	San Antonio Palopó	9	San Antonio Palopo	9	Septiembre	2023-02-09T00:00:00	2024-11-08T12:00:00	7	Dirección del viento	9.66
5015	7	Sololá	712	San Antonio Palopó	9	San Antonio Palopo	9	Septiembre	2023-02-09T00:00:00	2024-11-08T12:00:00	1	Precipitación	0
5016	7	Sololá	712	San Antonio Palopó	9	San Antonio Palopo	9	Septiembre	2023-02-09T00:00:00	2024-11-08T12:00:00	8	Radiación solar	872
5017	7	Sololá	712	San Antonio Palopó	9	San Antonio Palopo	9	Septiembre	2023-02-09T00:00:00	2024-11-08T13:00:00	2	Temperatura media	25.9
5018	7	Sololá	712	San Antonio Palopó	9	San Antonio Palopo	9	Septiembre	2023-02-09T00:00:00	2024-11-08T13:00:00	4	Temperatura máxima	26.9
5019	7	Sololá	712	San Antonio Palopó	9	San Antonio Palopo	9	Septiembre	2023-02-09T00:00:00	2024-11-08T13:00:00	3	Temperatura mínima	25.2
5020	7	Sololá	712	San Antonio Palopó	9	San Antonio Palopo	9	Septiembre	2023-02-09T00:00:00	2024-11-08T13:00:00	5	Humedad	52
5021	7	Sololá	712	San Antonio Palopó	9	San Antonio Palopo	9	Septiembre	2023-02-09T00:00:00	2024-11-08T13:00:00	6	Velocidad del viento	8
5022	7	Sololá	712	San Antonio Palopó	9	San Antonio Palopo	9	Septiembre	2023-02-09T00:00:00	2024-11-08T13:00:00	7	Dirección del viento	8.05
5023	7	Sololá	712	San Antonio Palopó	9	San Antonio Palopo	9	Septiembre	2023-02-09T00:00:00	2024-11-08T13:00:00	1	Precipitación	0
5024	7	Sololá	712	San Antonio Palopó	9	San Antonio Palopo	9	Septiembre	2023-02-09T00:00:00	2024-11-08T13:00:00	8	Radiación solar	895
5025	7	Sololá	712	San Antonio Palopó	9	San Antonio Palopo	9	Septiembre	2023-02-09T00:00:00	2024-11-08T14:00:00	2	Temperatura media	24
5026	7	Sololá	712	San Antonio Palopó	9	San Antonio Palopo	9	Septiembre	2023-02-09T00:00:00	2024-11-08T14:00:00	4	Temperatura máxima	26.1
5027	7	Sololá	712	San Antonio Palopó	9	San Antonio Palopo	9	Septiembre	2023-02-09T00:00:00	2024-11-08T14:00:00	3	Temperatura mínima	22.3
5028	7	Sololá	712	San Antonio Palopó	9	San Antonio Palopo	9	Septiembre	2023-02-09T00:00:00	2024-11-08T14:00:00	5	Humedad	65
5029	7	Sololá	712	San Antonio Palopó	9	San Antonio Palopo	9	Septiembre	2023-02-09T00:00:00	2024-11-08T14:00:00	6	Velocidad del viento	12.9
5030	7	Sololá	712	San Antonio Palopó	9	San Antonio Palopo	9	Septiembre	2023-02-09T00:00:00	2024-11-08T14:00:00	7	Dirección del viento	12.87
5031	7	Sololá	712	San Antonio Palopó	9	San Antonio Palopo	9	Septiembre	2023-02-09T00:00:00	2024-11-08T14:00:00	1	Precipitación	0
5032	7	Sololá	712	San Antonio Palopó	9	San Antonio Palopo	9	Septiembre	2023-02-09T00:00:00	2024-11-08T14:00:00	8	Radiación solar	347
5033	7	Sololá	712	San Antonio Palopó	9	San Antonio Palopo	9	Septiembre	2023-02-09T00:00:00	2024-11-08T15:00:00	2	Temperatura media	21.6
5034	7	Sololá	712	San Antonio Palopó	9	San Antonio Palopo	9	Septiembre	2023-02-09T00:00:00	2024-11-08T15:00:00	4	Temperatura máxima	24.4
5035	7	Sololá	712	San Antonio Palopó	9	San Antonio Palopo	9	Septiembre	2023-02-09T00:00:00	2024-11-08T15:00:00	3	Temperatura mínima	21.4
5036	7	Sololá	712	San Antonio Palopó	9	San Antonio Palopo	9	Septiembre	2023-02-09T00:00:00	2024-11-08T15:00:00	5	Humedad	74
5037	7	Sololá	712	San Antonio Palopó	9	San Antonio Palopo	9	Septiembre	2023-02-09T00:00:00	2024-11-08T15:00:00	6	Velocidad del viento	11.3
5038	7	Sololá	712	San Antonio Palopó	9	San Antonio Palopo	9	Septiembre	2023-02-09T00:00:00	2024-11-08T15:00:00	7	Dirección del viento	11.27
5039	7	Sololá	712	San Antonio Palopó	9	San Antonio Palopo	9	Septiembre	2023-02-09T00:00:00	2024-11-08T15:00:00	1	Precipitación	0
5040	7	Sololá	712	San Antonio Palopó	9	San Antonio Palopo	9	Septiembre	2023-02-09T00:00:00	2024-11-08T15:00:00	8	Radiación solar	158
5041	7	Sololá	712	San Antonio Palopó	9	San Antonio Palopo	9	Septiembre	2023-02-09T00:00:00	2024-11-08T16:00:00	2	Temperatura media	22.2
5042	7	Sololá	712	San Antonio Palopó	9	San Antonio Palopo	9	Septiembre	2023-02-09T00:00:00	2024-11-08T16:00:00	4	Temperatura máxima	22.7
5043	7	Sololá	712	San Antonio Palopó	9	San Antonio Palopo	9	Septiembre	2023-02-09T00:00:00	2024-11-08T16:00:00	3	Temperatura mínima	21.6
5044	7	Sololá	712	San Antonio Palopó	9	San Antonio Palopo	9	Septiembre	2023-02-09T00:00:00	2024-11-08T16:00:00	5	Humedad	72
5045	7	Sololá	712	San Antonio Palopó	9	San Antonio Palopo	9	Septiembre	2023-02-09T00:00:00	2024-11-08T16:00:00	6	Velocidad del viento	4.8
5046	7	Sololá	712	San Antonio Palopó	9	San Antonio Palopo	9	Septiembre	2023-02-09T00:00:00	2024-11-08T16:00:00	7	Dirección del viento	4.83
5047	7	Sololá	712	San Antonio Palopó	9	San Antonio Palopo	9	Septiembre	2023-02-09T00:00:00	2024-11-08T16:00:00	1	Precipitación	0
5048	7	Sololá	712	San Antonio Palopó	9	San Antonio Palopo	9	Septiembre	2023-02-09T00:00:00	2024-11-08T16:00:00	8	Radiación solar	271
5049	7	Sololá	712	San Antonio Palopó	9	San Antonio Palopo	9	Septiembre	2023-02-09T00:00:00	2024-11-08T17:00:00	2	Temperatura media	22.8
5050	7	Sololá	712	San Antonio Palopó	9	San Antonio Palopo	9	Septiembre	2023-02-09T00:00:00	2024-11-08T17:00:00	4	Temperatura máxima	23.1
5051	7	Sololá	712	San Antonio Palopó	9	San Antonio Palopo	9	Septiembre	2023-02-09T00:00:00	2024-11-08T17:00:00	3	Temperatura mínima	22.2
5052	7	Sololá	712	San Antonio Palopó	9	San Antonio Palopo	9	Septiembre	2023-02-09T00:00:00	2024-11-08T17:00:00	5	Humedad	67
5053	7	Sololá	712	San Antonio Palopó	9	San Antonio Palopo	9	Septiembre	2023-02-09T00:00:00	2024-11-08T17:00:00	6	Velocidad del viento	4.8
5054	7	Sololá	712	San Antonio Palopó	9	San Antonio Palopo	9	Septiembre	2023-02-09T00:00:00	2024-11-08T17:00:00	7	Dirección del viento	4.83
5055	7	Sololá	712	San Antonio Palopó	9	San Antonio Palopo	9	Septiembre	2023-02-09T00:00:00	2024-11-08T17:00:00	1	Precipitación	0
5056	7	Sololá	712	San Antonio Palopó	9	San Antonio Palopo	9	Septiembre	2023-02-09T00:00:00	2024-11-08T17:00:00	8	Radiación solar	198
5057	7	Sololá	712	San Antonio Palopó	9	San Antonio Palopo	9	Septiembre	2023-02-09T00:00:00	2024-11-08T18:00:00	2	Temperatura media	22.6
5058	7	Sololá	712	San Antonio Palopó	9	San Antonio Palopo	9	Septiembre	2023-02-09T00:00:00	2024-11-08T18:00:00	4	Temperatura máxima	22.7
5059	7	Sololá	712	San Antonio Palopó	9	San Antonio Palopo	9	Septiembre	2023-02-09T00:00:00	2024-11-08T18:00:00	3	Temperatura mínima	22.4
5060	7	Sololá	712	San Antonio Palopó	9	San Antonio Palopo	9	Septiembre	2023-02-09T00:00:00	2024-11-08T18:00:00	5	Humedad	68
5061	7	Sololá	712	San Antonio Palopó	9	San Antonio Palopo	9	Septiembre	2023-02-09T00:00:00	2024-11-08T18:00:00	6	Velocidad del viento	4.8
5062	7	Sololá	712	San Antonio Palopó	9	San Antonio Palopo	9	Septiembre	2023-02-09T00:00:00	2024-11-08T18:00:00	7	Dirección del viento	4.83
5063	7	Sololá	712	San Antonio Palopó	9	San Antonio Palopo	9	Septiembre	2023-02-09T00:00:00	2024-11-08T18:00:00	1	Precipitación	0
5064	7	Sololá	712	San Antonio Palopó	9	San Antonio Palopo	9	Septiembre	2023-02-09T00:00:00	2024-11-08T18:00:00	8	Radiación solar	41
5065	7	Sololá	712	San Antonio Palopó	9	San Antonio Palopo	9	Septiembre	2023-02-09T00:00:00	2024-11-08T19:00:00	2	Temperatura media	21.8
5066	7	Sololá	712	San Antonio Palopó	9	San Antonio Palopo	9	Septiembre	2023-02-09T00:00:00	2024-11-08T19:00:00	4	Temperatura máxima	22.6
5067	7	Sololá	712	San Antonio Palopó	9	San Antonio Palopo	9	Septiembre	2023-02-09T00:00:00	2024-11-08T19:00:00	3	Temperatura mínima	21.8
5068	7	Sololá	712	San Antonio Palopó	9	San Antonio Palopo	9	Septiembre	2023-02-09T00:00:00	2024-11-08T19:00:00	5	Humedad	70
5069	7	Sololá	712	San Antonio Palopó	9	San Antonio Palopo	9	Septiembre	2023-02-09T00:00:00	2024-11-08T19:00:00	6	Velocidad del viento	4.8
5070	7	Sololá	712	San Antonio Palopó	9	San Antonio Palopo	9	Septiembre	2023-02-09T00:00:00	2024-11-08T19:00:00	7	Dirección del viento	4.83
5071	7	Sololá	712	San Antonio Palopó	9	San Antonio Palopo	9	Septiembre	2023-02-09T00:00:00	2024-11-08T19:00:00	1	Precipitación	0
5072	7	Sololá	712	San Antonio Palopó	9	San Antonio Palopo	9	Septiembre	2023-02-09T00:00:00	2024-11-08T19:00:00	8	Radiación solar	0
5073	7	Sololá	712	San Antonio Palopó	9	San Antonio Palopo	9	Septiembre	2023-02-09T00:00:00	2024-11-08T20:00:00	2	Temperatura media	20.9
5074	7	Sololá	712	San Antonio Palopó	9	San Antonio Palopo	9	Septiembre	2023-02-09T00:00:00	2024-11-08T20:00:00	4	Temperatura máxima	21.8
5075	7	Sololá	712	San Antonio Palopó	9	San Antonio Palopo	9	Septiembre	2023-02-09T00:00:00	2024-11-08T20:00:00	3	Temperatura mínima	20.9
5076	7	Sololá	712	San Antonio Palopó	9	San Antonio Palopo	9	Septiembre	2023-02-09T00:00:00	2024-11-08T20:00:00	5	Humedad	72
5077	7	Sololá	712	San Antonio Palopó	9	San Antonio Palopo	9	Septiembre	2023-02-09T00:00:00	2024-11-08T20:00:00	6	Velocidad del viento	9.7
5078	7	Sololá	712	San Antonio Palopó	9	San Antonio Palopo	9	Septiembre	2023-02-09T00:00:00	2024-11-08T20:00:00	7	Dirección del viento	9.66
5079	7	Sololá	712	San Antonio Palopó	9	San Antonio Palopo	9	Septiembre	2023-02-09T00:00:00	2024-11-08T20:00:00	1	Precipitación	0
5080	7	Sololá	712	San Antonio Palopó	9	San Antonio Palopo	9	Septiembre	2023-02-09T00:00:00	2024-11-08T20:00:00	8	Radiación solar	0
5081	7	Sololá	712	San Antonio Palopó	9	San Antonio Palopo	9	Septiembre	2023-02-09T00:00:00	2024-11-08T21:00:00	2	Temperatura media	21.3
5082	7	Sololá	712	San Antonio Palopó	9	San Antonio Palopo	9	Septiembre	2023-02-09T00:00:00	2024-11-08T21:00:00	4	Temperatura máxima	21.3
5083	7	Sololá	712	San Antonio Palopó	9	San Antonio Palopo	9	Septiembre	2023-02-09T00:00:00	2024-11-08T21:00:00	3	Temperatura mínima	20.9
5084	7	Sololá	712	San Antonio Palopó	9	San Antonio Palopo	9	Septiembre	2023-02-09T00:00:00	2024-11-08T21:00:00	5	Humedad	72
5085	7	Sololá	712	San Antonio Palopó	9	San Antonio Palopo	9	Septiembre	2023-02-09T00:00:00	2024-11-08T21:00:00	6	Velocidad del viento	8
5086	7	Sololá	712	San Antonio Palopó	9	San Antonio Palopo	9	Septiembre	2023-02-09T00:00:00	2024-11-08T21:00:00	7	Dirección del viento	8.05
5087	7	Sololá	712	San Antonio Palopó	9	San Antonio Palopo	9	Septiembre	2023-02-09T00:00:00	2024-11-08T21:00:00	1	Precipitación	0
5088	7	Sololá	712	San Antonio Palopó	9	San Antonio Palopo	9	Septiembre	2023-02-09T00:00:00	2024-11-08T21:00:00	8	Radiación solar	0
5089	7	Sololá	712	San Antonio Palopó	9	San Antonio Palopo	9	Septiembre	2023-02-09T00:00:00	2024-11-08T22:00:00	2	Temperatura media	21.6
5090	7	Sololá	712	San Antonio Palopó	9	San Antonio Palopo	9	Septiembre	2023-02-09T00:00:00	2024-11-08T22:00:00	4	Temperatura máxima	21.6
5091	7	Sololá	712	San Antonio Palopó	9	San Antonio Palopo	9	Septiembre	2023-02-09T00:00:00	2024-11-08T22:00:00	3	Temperatura mínima	21.2
5092	7	Sololá	712	San Antonio Palopó	9	San Antonio Palopo	9	Septiembre	2023-02-09T00:00:00	2024-11-08T22:00:00	5	Humedad	71
5093	7	Sololá	712	San Antonio Palopó	9	San Antonio Palopo	9	Septiembre	2023-02-09T00:00:00	2024-11-08T22:00:00	6	Velocidad del viento	8
5094	7	Sololá	712	San Antonio Palopó	9	San Antonio Palopo	9	Septiembre	2023-02-09T00:00:00	2024-11-08T22:00:00	7	Dirección del viento	8.05
5095	7	Sololá	712	San Antonio Palopó	9	San Antonio Palopo	9	Septiembre	2023-02-09T00:00:00	2024-11-08T22:00:00	1	Precipitación	0
5096	7	Sololá	712	San Antonio Palopó	9	San Antonio Palopo	9	Septiembre	2023-02-09T00:00:00	2024-11-08T22:00:00	8	Radiación solar	0
5097	7	Sololá	712	San Antonio Palopó	9	San Antonio Palopo	9	Septiembre	2023-02-09T00:00:00	2024-11-08T23:00:00	2	Temperatura media	21.7
5098	7	Sololá	712	San Antonio Palopó	9	San Antonio Palopo	9	Septiembre	2023-02-09T00:00:00	2024-11-08T23:00:00	4	Temperatura máxima	21.7
5099	7	Sololá	712	San Antonio Palopó	9	San Antonio Palopo	9	Septiembre	2023-02-09T00:00:00	2024-11-08T23:00:00	3	Temperatura mínima	21.2
5100	7	Sololá	712	San Antonio Palopó	9	San Antonio Palopo	9	Septiembre	2023-02-09T00:00:00	2024-11-08T23:00:00	5	Humedad	68
5101	7	Sololá	712	San Antonio Palopó	9	San Antonio Palopo	9	Septiembre	2023-02-09T00:00:00	2024-11-08T23:00:00	6	Velocidad del viento	4.8
5102	7	Sololá	712	San Antonio Palopó	9	San Antonio Palopo	9	Septiembre	2023-02-09T00:00:00	2024-11-08T23:00:00	7	Dirección del viento	4.83
5103	7	Sololá	712	San Antonio Palopó	9	San Antonio Palopo	9	Septiembre	2023-02-09T00:00:00	2024-11-08T23:00:00	1	Precipitación	0
5104	7	Sololá	712	San Antonio Palopó	9	San Antonio Palopo	9	Septiembre	2023-02-09T00:00:00	2024-11-08T23:00:00	8	Radiación solar	0
5105	7	Sololá	712	San Antonio Palopó	9	San Antonio Palopo	9	Septiembre	2023-03-09T00:00:00	2024-11-08T00:00:00	2	Temperatura media	20.7
5106	7	Sololá	712	San Antonio Palopó	9	San Antonio Palopo	9	Septiembre	2023-03-09T00:00:00	2024-11-08T00:00:00	4	Temperatura máxima	21.7
5107	7	Sololá	712	San Antonio Palopó	9	San Antonio Palopo	9	Septiembre	2023-03-09T00:00:00	2024-11-08T00:00:00	3	Temperatura mínima	20.7
5108	7	Sololá	712	San Antonio Palopó	9	San Antonio Palopo	9	Septiembre	2023-03-09T00:00:00	2024-11-08T00:00:00	5	Humedad	71
5109	7	Sololá	712	San Antonio Palopó	9	San Antonio Palopo	9	Septiembre	2023-03-09T00:00:00	2024-11-08T00:00:00	6	Velocidad del viento	4.8
5110	7	Sololá	712	San Antonio Palopó	9	San Antonio Palopo	9	Septiembre	2023-03-09T00:00:00	2024-11-08T00:00:00	7	Dirección del viento	4.83
5111	7	Sololá	712	San Antonio Palopó	9	San Antonio Palopo	9	Septiembre	2023-03-09T00:00:00	2024-11-08T00:00:00	1	Precipitación	0
5112	7	Sololá	712	San Antonio Palopó	9	San Antonio Palopo	9	Septiembre	2023-03-09T00:00:00	2024-11-08T00:00:00	8	Radiación solar	0
5113	7	Sololá	712	San Antonio Palopó	9	San Antonio Palopo	9	Septiembre	2023-03-09T00:00:00	2024-11-08T01:00:00	2	Temperatura media	20.3
5114	7	Sololá	712	San Antonio Palopó	9	San Antonio Palopo	9	Septiembre	2023-03-09T00:00:00	2024-11-08T01:00:00	4	Temperatura máxima	20.7
5115	7	Sololá	712	San Antonio Palopó	9	San Antonio Palopo	9	Septiembre	2023-03-09T00:00:00	2024-11-08T01:00:00	3	Temperatura mínima	20
5116	7	Sololá	712	San Antonio Palopó	9	San Antonio Palopo	9	Septiembre	2023-03-09T00:00:00	2024-11-08T01:00:00	5	Humedad	71
5117	7	Sololá	712	San Antonio Palopó	9	San Antonio Palopo	9	Septiembre	2023-03-09T00:00:00	2024-11-08T01:00:00	6	Velocidad del viento	8
5118	7	Sololá	712	San Antonio Palopó	9	San Antonio Palopo	9	Septiembre	2023-03-09T00:00:00	2024-11-08T01:00:00	7	Dirección del viento	8.05
5119	7	Sololá	712	San Antonio Palopó	9	San Antonio Palopo	9	Septiembre	2023-03-09T00:00:00	2024-11-08T01:00:00	1	Precipitación	0
5120	7	Sololá	712	San Antonio Palopó	9	San Antonio Palopo	9	Septiembre	2023-03-09T00:00:00	2024-11-08T01:00:00	8	Radiación solar	0
5121	7	Sololá	712	San Antonio Palopó	9	San Antonio Palopo	9	Septiembre	2023-03-09T00:00:00	2024-11-08T02:00:00	2	Temperatura media	20.1
5122	7	Sololá	712	San Antonio Palopó	9	San Antonio Palopo	9	Septiembre	2023-03-09T00:00:00	2024-11-08T02:00:00	4	Temperatura máxima	20.4
5123	7	Sololá	712	San Antonio Palopó	9	San Antonio Palopo	9	Septiembre	2023-03-09T00:00:00	2024-11-08T02:00:00	3	Temperatura mínima	19.9
5124	7	Sololá	712	San Antonio Palopó	9	San Antonio Palopo	9	Septiembre	2023-03-09T00:00:00	2024-11-08T02:00:00	5	Humedad	71
5125	7	Sololá	712	San Antonio Palopó	9	San Antonio Palopo	9	Septiembre	2023-03-09T00:00:00	2024-11-08T02:00:00	6	Velocidad del viento	6.4
5126	7	Sololá	712	San Antonio Palopó	9	San Antonio Palopo	9	Septiembre	2023-03-09T00:00:00	2024-11-08T02:00:00	7	Dirección del viento	6.44
5127	7	Sololá	712	San Antonio Palopó	9	San Antonio Palopo	9	Septiembre	2023-03-09T00:00:00	2024-11-08T02:00:00	1	Precipitación	0
5128	7	Sololá	712	San Antonio Palopó	9	San Antonio Palopo	9	Septiembre	2023-03-09T00:00:00	2024-11-08T02:00:00	8	Radiación solar	0
5129	7	Sololá	712	San Antonio Palopó	9	San Antonio Palopo	9	Septiembre	2023-03-09T00:00:00	2024-11-08T03:00:00	2	Temperatura media	20.1
5130	7	Sololá	712	San Antonio Palopó	9	San Antonio Palopo	9	Septiembre	2023-03-09T00:00:00	2024-11-08T03:00:00	4	Temperatura máxima	20.8
5131	7	Sololá	712	San Antonio Palopó	9	San Antonio Palopo	9	Septiembre	2023-03-09T00:00:00	2024-11-08T03:00:00	3	Temperatura mínima	20.1
5132	7	Sololá	712	San Antonio Palopó	9	San Antonio Palopo	9	Septiembre	2023-03-09T00:00:00	2024-11-08T03:00:00	5	Humedad	71
5133	7	Sololá	712	San Antonio Palopó	9	San Antonio Palopo	9	Septiembre	2023-03-09T00:00:00	2024-11-08T03:00:00	6	Velocidad del viento	6.4
5134	7	Sololá	712	San Antonio Palopó	9	San Antonio Palopo	9	Septiembre	2023-03-09T00:00:00	2024-11-08T03:00:00	7	Dirección del viento	6.44
5135	7	Sololá	712	San Antonio Palopó	9	San Antonio Palopo	9	Septiembre	2023-03-09T00:00:00	2024-11-08T03:00:00	1	Precipitación	0
5136	7	Sololá	712	San Antonio Palopó	9	San Antonio Palopo	9	Septiembre	2023-03-09T00:00:00	2024-11-08T03:00:00	8	Radiación solar	0
5137	7	Sololá	712	San Antonio Palopó	9	San Antonio Palopo	9	Septiembre	2023-03-09T00:00:00	2024-11-08T04:00:00	2	Temperatura media	19.8
5138	7	Sololá	712	San Antonio Palopó	9	San Antonio Palopo	9	Septiembre	2023-03-09T00:00:00	2024-11-08T04:00:00	4	Temperatura máxima	20.4
5139	7	Sololá	712	San Antonio Palopó	9	San Antonio Palopo	9	Septiembre	2023-03-09T00:00:00	2024-11-08T04:00:00	3	Temperatura mínima	19.7
5140	7	Sololá	712	San Antonio Palopó	9	San Antonio Palopo	9	Septiembre	2023-03-09T00:00:00	2024-11-08T04:00:00	5	Humedad	71
5141	7	Sololá	712	San Antonio Palopó	9	San Antonio Palopo	9	Septiembre	2023-03-09T00:00:00	2024-11-08T04:00:00	6	Velocidad del viento	6.4
5142	7	Sololá	712	San Antonio Palopó	9	San Antonio Palopo	9	Septiembre	2023-03-09T00:00:00	2024-11-08T04:00:00	7	Dirección del viento	6.44
5143	7	Sololá	712	San Antonio Palopó	9	San Antonio Palopo	9	Septiembre	2023-03-09T00:00:00	2024-11-08T04:00:00	1	Precipitación	0
5144	7	Sololá	712	San Antonio Palopó	9	San Antonio Palopo	9	Septiembre	2023-03-09T00:00:00	2024-11-08T04:00:00	8	Radiación solar	0
5145	7	Sololá	712	San Antonio Palopó	9	San Antonio Palopo	9	Septiembre	2023-03-09T00:00:00	2024-11-08T05:00:00	2	Temperatura media	19.2
5146	7	Sololá	712	San Antonio Palopó	9	San Antonio Palopo	9	Septiembre	2023-03-09T00:00:00	2024-11-08T05:00:00	4	Temperatura máxima	20
5147	7	Sololá	712	San Antonio Palopó	9	San Antonio Palopo	9	Septiembre	2023-03-09T00:00:00	2024-11-08T05:00:00	3	Temperatura mínima	19.2
5148	7	Sololá	712	San Antonio Palopó	9	San Antonio Palopo	9	Septiembre	2023-03-09T00:00:00	2024-11-08T05:00:00	5	Humedad	73
5149	7	Sololá	712	San Antonio Palopó	9	San Antonio Palopo	9	Septiembre	2023-03-09T00:00:00	2024-11-08T05:00:00	6	Velocidad del viento	8
5150	7	Sololá	712	San Antonio Palopó	9	San Antonio Palopo	9	Septiembre	2023-03-09T00:00:00	2024-11-08T05:00:00	7	Dirección del viento	8.05
5151	7	Sololá	712	San Antonio Palopó	9	San Antonio Palopo	9	Septiembre	2023-03-09T00:00:00	2024-11-08T05:00:00	1	Precipitación	0
5152	7	Sololá	712	San Antonio Palopó	9	San Antonio Palopo	9	Septiembre	2023-03-09T00:00:00	2024-11-08T05:00:00	8	Radiación solar	0
5153	7	Sololá	712	San Antonio Palopó	9	San Antonio Palopo	9	Septiembre	2023-03-09T00:00:00	2024-11-08T06:00:00	2	Temperatura media	18.8
5154	7	Sololá	712	San Antonio Palopó	9	San Antonio Palopo	9	Septiembre	2023-03-09T00:00:00	2024-11-08T06:00:00	4	Temperatura máxima	19.3
5155	7	Sololá	712	San Antonio Palopó	9	San Antonio Palopo	9	Septiembre	2023-03-09T00:00:00	2024-11-08T06:00:00	3	Temperatura mínima	18.6
5156	7	Sololá	712	San Antonio Palopó	9	San Antonio Palopo	9	Septiembre	2023-03-09T00:00:00	2024-11-08T06:00:00	5	Humedad	74
5157	7	Sololá	712	San Antonio Palopó	9	San Antonio Palopo	9	Septiembre	2023-03-09T00:00:00	2024-11-08T06:00:00	6	Velocidad del viento	4.8
5158	7	Sololá	712	San Antonio Palopó	9	San Antonio Palopo	9	Septiembre	2023-03-09T00:00:00	2024-11-08T06:00:00	7	Dirección del viento	4.83
5159	7	Sololá	712	San Antonio Palopó	9	San Antonio Palopo	9	Septiembre	2023-03-09T00:00:00	2024-11-08T06:00:00	1	Precipitación	0
5160	7	Sololá	712	San Antonio Palopó	9	San Antonio Palopo	9	Septiembre	2023-03-09T00:00:00	2024-11-08T06:00:00	8	Radiación solar	0
5161	7	Sololá	712	San Antonio Palopó	9	San Antonio Palopo	9	Septiembre	2023-03-09T00:00:00	2024-11-08T07:00:00	2	Temperatura media	20
5162	7	Sololá	712	San Antonio Palopó	9	San Antonio Palopo	9	Septiembre	2023-03-09T00:00:00	2024-11-08T07:00:00	4	Temperatura máxima	20
5163	7	Sololá	712	San Antonio Palopó	9	San Antonio Palopo	9	Septiembre	2023-03-09T00:00:00	2024-11-08T07:00:00	3	Temperatura mínima	18.8
5164	7	Sololá	712	San Antonio Palopó	9	San Antonio Palopo	9	Septiembre	2023-03-09T00:00:00	2024-11-08T07:00:00	5	Humedad	70
5165	7	Sololá	712	San Antonio Palopó	9	San Antonio Palopo	9	Septiembre	2023-03-09T00:00:00	2024-11-08T07:00:00	6	Velocidad del viento	3.2
5166	7	Sololá	712	San Antonio Palopó	9	San Antonio Palopo	9	Septiembre	2023-03-09T00:00:00	2024-11-08T07:00:00	7	Dirección del viento	3.22
5167	7	Sololá	712	San Antonio Palopó	9	San Antonio Palopo	9	Septiembre	2023-03-09T00:00:00	2024-11-08T07:00:00	1	Precipitación	0
5168	7	Sololá	712	San Antonio Palopó	9	San Antonio Palopo	9	Septiembre	2023-03-09T00:00:00	2024-11-08T07:00:00	8	Radiación solar	27
5169	7	Sololá	712	San Antonio Palopó	9	San Antonio Palopo	9	Septiembre	2023-03-09T00:00:00	2024-11-08T08:00:00	2	Temperatura media	21.7
5170	7	Sololá	712	San Antonio Palopó	9	San Antonio Palopo	9	Septiembre	2023-03-09T00:00:00	2024-11-08T08:00:00	4	Temperatura máxima	21.7
5171	7	Sololá	712	San Antonio Palopó	9	San Antonio Palopo	9	Septiembre	2023-03-09T00:00:00	2024-11-08T08:00:00	3	Temperatura mínima	19.7
5172	7	Sololá	712	San Antonio Palopó	9	San Antonio Palopo	9	Septiembre	2023-03-09T00:00:00	2024-11-08T08:00:00	5	Humedad	70
5173	7	Sololá	712	San Antonio Palopó	9	San Antonio Palopo	9	Septiembre	2023-03-09T00:00:00	2024-11-08T08:00:00	6	Velocidad del viento	3.2
5174	7	Sololá	712	San Antonio Palopó	9	San Antonio Palopo	9	Septiembre	2023-03-09T00:00:00	2024-11-08T08:00:00	7	Dirección del viento	3.22
5175	7	Sololá	712	San Antonio Palopó	9	San Antonio Palopo	9	Septiembre	2023-03-09T00:00:00	2024-11-08T08:00:00	1	Precipitación	0
5176	7	Sololá	712	San Antonio Palopó	9	San Antonio Palopo	9	Septiembre	2023-03-09T00:00:00	2024-11-08T08:00:00	8	Radiación solar	160
5177	7	Sololá	712	San Antonio Palopó	9	San Antonio Palopo	9	Septiembre	2023-03-09T00:00:00	2024-11-08T09:00:00	2	Temperatura media	23.4
5178	7	Sololá	712	San Antonio Palopó	9	San Antonio Palopo	9	Septiembre	2023-03-09T00:00:00	2024-11-08T09:00:00	4	Temperatura máxima	23.5
5179	7	Sololá	712	San Antonio Palopó	9	San Antonio Palopo	9	Septiembre	2023-03-09T00:00:00	2024-11-08T09:00:00	3	Temperatura mínima	21.6
5180	7	Sololá	712	San Antonio Palopó	9	San Antonio Palopo	9	Septiembre	2023-03-09T00:00:00	2024-11-08T09:00:00	5	Humedad	61
5181	7	Sololá	712	San Antonio Palopó	9	San Antonio Palopo	9	Septiembre	2023-03-09T00:00:00	2024-11-08T09:00:00	6	Velocidad del viento	1.6
5182	7	Sololá	712	San Antonio Palopó	9	San Antonio Palopo	9	Septiembre	2023-03-09T00:00:00	2024-11-08T09:00:00	7	Dirección del viento	1.61
5183	7	Sololá	712	San Antonio Palopó	9	San Antonio Palopo	9	Septiembre	2023-03-09T00:00:00	2024-11-08T09:00:00	1	Precipitación	0
5184	7	Sololá	712	San Antonio Palopó	9	San Antonio Palopo	9	Septiembre	2023-03-09T00:00:00	2024-11-08T09:00:00	8	Radiación solar	423
5185	7	Sololá	712	San Antonio Palopó	9	San Antonio Palopo	9	Septiembre	2023-03-09T00:00:00	2024-11-08T10:00:00	2	Temperatura media	23.5
5186	7	Sololá	712	San Antonio Palopó	9	San Antonio Palopo	9	Septiembre	2023-03-09T00:00:00	2024-11-08T10:00:00	4	Temperatura máxima	23.7
5187	7	Sololá	712	San Antonio Palopó	9	San Antonio Palopo	9	Septiembre	2023-03-09T00:00:00	2024-11-08T10:00:00	3	Temperatura mínima	22.9
5188	7	Sololá	712	San Antonio Palopó	9	San Antonio Palopo	9	Septiembre	2023-03-09T00:00:00	2024-11-08T10:00:00	5	Humedad	63
5189	7	Sololá	712	San Antonio Palopó	9	San Antonio Palopo	9	Septiembre	2023-03-09T00:00:00	2024-11-08T10:00:00	6	Velocidad del viento	3.2
5190	7	Sololá	712	San Antonio Palopó	9	San Antonio Palopo	9	Septiembre	2023-03-09T00:00:00	2024-11-08T10:00:00	7	Dirección del viento	3.22
5191	7	Sololá	712	San Antonio Palopó	9	San Antonio Palopo	9	Septiembre	2023-03-09T00:00:00	2024-11-08T10:00:00	1	Precipitación	0
5192	7	Sololá	712	San Antonio Palopó	9	San Antonio Palopo	9	Septiembre	2023-03-09T00:00:00	2024-11-08T10:00:00	8	Radiación solar	670
5193	7	Sololá	712	San Antonio Palopó	9	San Antonio Palopo	9	Septiembre	2023-03-09T00:00:00	2024-11-08T11:00:00	2	Temperatura media	24.8
5194	7	Sololá	712	San Antonio Palopó	9	San Antonio Palopo	9	Septiembre	2023-03-09T00:00:00	2024-11-08T11:00:00	4	Temperatura máxima	24.8
5195	7	Sololá	712	San Antonio Palopó	9	San Antonio Palopo	9	Septiembre	2023-03-09T00:00:00	2024-11-08T11:00:00	3	Temperatura mínima	23.5
5196	7	Sololá	712	San Antonio Palopó	9	San Antonio Palopo	9	Septiembre	2023-03-09T00:00:00	2024-11-08T11:00:00	5	Humedad	62
5197	7	Sololá	712	San Antonio Palopó	9	San Antonio Palopo	9	Septiembre	2023-03-09T00:00:00	2024-11-08T11:00:00	6	Velocidad del viento	3.2
5198	7	Sololá	712	San Antonio Palopó	9	San Antonio Palopo	9	Septiembre	2023-03-09T00:00:00	2024-11-08T11:00:00	7	Dirección del viento	3.22
5199	7	Sololá	712	San Antonio Palopó	9	San Antonio Palopo	9	Septiembre	2023-03-09T00:00:00	2024-11-08T11:00:00	1	Precipitación	0
5200	7	Sololá	712	San Antonio Palopó	9	San Antonio Palopo	9	Septiembre	2023-03-09T00:00:00	2024-11-08T11:00:00	8	Radiación solar	865
5201	7	Sololá	712	San Antonio Palopó	9	San Antonio Palopo	9	Septiembre	2023-03-09T00:00:00	2024-11-08T12:00:00	2	Temperatura media	25.4
5202	7	Sololá	712	San Antonio Palopó	9	San Antonio Palopo	9	Septiembre	2023-03-09T00:00:00	2024-11-08T12:00:00	4	Temperatura máxima	26.9
5203	7	Sololá	712	San Antonio Palopó	9	San Antonio Palopo	9	Septiembre	2023-03-09T00:00:00	2024-11-08T12:00:00	3	Temperatura mínima	24.8
5204	7	Sololá	712	San Antonio Palopó	9	San Antonio Palopo	9	Septiembre	2023-03-09T00:00:00	2024-11-08T12:00:00	5	Humedad	67
5205	7	Sololá	712	San Antonio Palopó	9	San Antonio Palopo	9	Septiembre	2023-03-09T00:00:00	2024-11-08T12:00:00	6	Velocidad del viento	9.7
5206	7	Sololá	712	San Antonio Palopó	9	San Antonio Palopo	9	Septiembre	2023-03-09T00:00:00	2024-11-08T12:00:00	7	Dirección del viento	9.66
5207	7	Sololá	712	San Antonio Palopó	9	San Antonio Palopo	9	Septiembre	2023-03-09T00:00:00	2024-11-08T12:00:00	1	Precipitación	0
5208	7	Sololá	712	San Antonio Palopó	9	San Antonio Palopo	9	Septiembre	2023-03-09T00:00:00	2024-11-08T12:00:00	8	Radiación solar	1013
5209	7	Sololá	712	San Antonio Palopó	9	San Antonio Palopo	9	Septiembre	2023-03-09T00:00:00	2024-11-08T13:00:00	2	Temperatura media	24.8
5210	7	Sololá	712	San Antonio Palopó	9	San Antonio Palopo	9	Septiembre	2023-03-09T00:00:00	2024-11-08T13:00:00	4	Temperatura máxima	26.7
5211	7	Sololá	712	San Antonio Palopó	9	San Antonio Palopo	9	Septiembre	2023-03-09T00:00:00	2024-11-08T13:00:00	3	Temperatura mínima	24.8
5212	7	Sololá	712	San Antonio Palopó	9	San Antonio Palopo	9	Septiembre	2023-03-09T00:00:00	2024-11-08T13:00:00	5	Humedad	66
5213	7	Sololá	712	San Antonio Palopó	9	San Antonio Palopo	9	Septiembre	2023-03-09T00:00:00	2024-11-08T13:00:00	6	Velocidad del viento	9.7
5214	7	Sololá	712	San Antonio Palopó	9	San Antonio Palopo	9	Septiembre	2023-03-09T00:00:00	2024-11-08T13:00:00	7	Dirección del viento	9.66
5215	7	Sololá	712	San Antonio Palopó	9	San Antonio Palopo	9	Septiembre	2023-03-09T00:00:00	2024-11-08T13:00:00	1	Precipitación	0
5216	7	Sololá	712	San Antonio Palopó	9	San Antonio Palopo	9	Septiembre	2023-03-09T00:00:00	2024-11-08T13:00:00	8	Radiación solar	998
5217	7	Sololá	712	San Antonio Palopó	9	San Antonio Palopo	9	Septiembre	2023-03-09T00:00:00	2024-11-08T14:00:00	2	Temperatura media	24.3
5218	7	Sololá	712	San Antonio Palopó	9	San Antonio Palopo	9	Septiembre	2023-03-09T00:00:00	2024-11-08T14:00:00	4	Temperatura máxima	25.4
5219	7	Sololá	712	San Antonio Palopó	9	San Antonio Palopo	9	Septiembre	2023-03-09T00:00:00	2024-11-08T14:00:00	3	Temperatura mínima	24.1
5220	7	Sololá	712	San Antonio Palopó	9	San Antonio Palopo	9	Septiembre	2023-03-09T00:00:00	2024-11-08T14:00:00	5	Humedad	71
5221	7	Sololá	712	San Antonio Palopó	9	San Antonio Palopo	9	Septiembre	2023-03-09T00:00:00	2024-11-08T14:00:00	6	Velocidad del viento	12.9
5222	7	Sololá	712	San Antonio Palopó	9	San Antonio Palopo	9	Septiembre	2023-03-09T00:00:00	2024-11-08T14:00:00	7	Dirección del viento	12.87
5223	7	Sololá	712	San Antonio Palopó	9	San Antonio Palopo	9	Septiembre	2023-03-09T00:00:00	2024-11-08T14:00:00	1	Precipitación	0
5224	7	Sololá	712	San Antonio Palopó	9	San Antonio Palopo	9	Septiembre	2023-03-09T00:00:00	2024-11-08T14:00:00	8	Radiación solar	860
5225	7	Sololá	712	San Antonio Palopó	9	San Antonio Palopo	9	Septiembre	2023-03-09T00:00:00	2024-11-08T15:00:00	2	Temperatura media	24.8
5226	7	Sololá	712	San Antonio Palopó	9	San Antonio Palopo	9	Septiembre	2023-03-09T00:00:00	2024-11-08T15:00:00	4	Temperatura máxima	25.4
5227	7	Sololá	712	San Antonio Palopó	9	San Antonio Palopo	9	Septiembre	2023-03-09T00:00:00	2024-11-08T15:00:00	3	Temperatura mínima	24.2
5228	7	Sololá	712	San Antonio Palopó	9	San Antonio Palopo	9	Septiembre	2023-03-09T00:00:00	2024-11-08T15:00:00	5	Humedad	71
5229	7	Sololá	712	San Antonio Palopó	9	San Antonio Palopo	9	Septiembre	2023-03-09T00:00:00	2024-11-08T15:00:00	6	Velocidad del viento	9.7
5230	7	Sololá	712	San Antonio Palopó	9	San Antonio Palopo	9	Septiembre	2023-03-09T00:00:00	2024-11-08T15:00:00	7	Dirección del viento	9.66
5231	7	Sololá	712	San Antonio Palopó	9	San Antonio Palopo	9	Septiembre	2023-03-09T00:00:00	2024-11-08T15:00:00	1	Precipitación	0
5232	7	Sololá	712	San Antonio Palopó	9	San Antonio Palopo	9	Septiembre	2023-03-09T00:00:00	2024-11-08T15:00:00	8	Radiación solar	744
5233	7	Sololá	712	San Antonio Palopó	9	San Antonio Palopo	9	Septiembre	2023-03-09T00:00:00	2024-11-08T16:00:00	2	Temperatura media	23.6
5234	7	Sololá	712	San Antonio Palopó	9	San Antonio Palopo	9	Septiembre	2023-03-09T00:00:00	2024-11-08T16:00:00	4	Temperatura máxima	25
5235	7	Sololá	712	San Antonio Palopó	9	San Antonio Palopo	9	Septiembre	2023-03-09T00:00:00	2024-11-08T16:00:00	3	Temperatura mínima	23.4
5236	7	Sololá	712	San Antonio Palopó	9	San Antonio Palopo	9	Septiembre	2023-03-09T00:00:00	2024-11-08T16:00:00	5	Humedad	73
5237	7	Sololá	712	San Antonio Palopó	9	San Antonio Palopo	9	Septiembre	2023-03-09T00:00:00	2024-11-08T16:00:00	6	Velocidad del viento	9.7
5238	7	Sololá	712	San Antonio Palopó	9	San Antonio Palopo	9	Septiembre	2023-03-09T00:00:00	2024-11-08T16:00:00	7	Dirección del viento	9.66
5239	7	Sololá	712	San Antonio Palopó	9	San Antonio Palopo	9	Septiembre	2023-03-09T00:00:00	2024-11-08T16:00:00	1	Precipitación	0
5240	7	Sololá	712	San Antonio Palopó	9	San Antonio Palopo	9	Septiembre	2023-03-09T00:00:00	2024-11-08T16:00:00	8	Radiación solar	587
5241	7	Sololá	712	San Antonio Palopó	9	San Antonio Palopo	9	Septiembre	2023-03-09T00:00:00	2024-11-08T17:00:00	2	Temperatura media	21.7
5242	7	Sololá	712	San Antonio Palopó	9	San Antonio Palopo	9	Septiembre	2023-03-09T00:00:00	2024-11-08T17:00:00	4	Temperatura máxima	24.3
5243	7	Sololá	712	San Antonio Palopó	9	San Antonio Palopo	9	Septiembre	2023-03-09T00:00:00	2024-11-08T17:00:00	3	Temperatura mínima	21.7
5244	7	Sololá	712	San Antonio Palopó	9	San Antonio Palopo	9	Septiembre	2023-03-09T00:00:00	2024-11-08T17:00:00	5	Humedad	79
5245	7	Sololá	712	San Antonio Palopó	9	San Antonio Palopo	9	Septiembre	2023-03-09T00:00:00	2024-11-08T17:00:00	6	Velocidad del viento	11.3
5246	7	Sololá	712	San Antonio Palopó	9	San Antonio Palopo	9	Septiembre	2023-03-09T00:00:00	2024-11-08T17:00:00	7	Dirección del viento	11.27
5247	7	Sololá	712	San Antonio Palopó	9	San Antonio Palopo	9	Septiembre	2023-03-09T00:00:00	2024-11-08T17:00:00	1	Precipitación	0
5248	7	Sololá	712	San Antonio Palopó	9	San Antonio Palopo	9	Septiembre	2023-03-09T00:00:00	2024-11-08T17:00:00	8	Radiación solar	267
5249	7	Sololá	712	San Antonio Palopó	9	San Antonio Palopo	9	Septiembre	2023-03-09T00:00:00	2024-11-08T18:00:00	2	Temperatura media	19.6
5250	7	Sololá	712	San Antonio Palopó	9	San Antonio Palopo	9	Septiembre	2023-03-09T00:00:00	2024-11-08T18:00:00	4	Temperatura máxima	21.7
5251	7	Sololá	712	San Antonio Palopó	9	San Antonio Palopo	9	Septiembre	2023-03-09T00:00:00	2024-11-08T18:00:00	3	Temperatura mínima	19.5
5252	7	Sololá	712	San Antonio Palopó	9	San Antonio Palopo	9	Septiembre	2023-03-09T00:00:00	2024-11-08T18:00:00	5	Humedad	87
5253	7	Sololá	712	San Antonio Palopó	9	San Antonio Palopo	9	Septiembre	2023-03-09T00:00:00	2024-11-08T18:00:00	6	Velocidad del viento	6.4
5254	7	Sololá	712	San Antonio Palopó	9	San Antonio Palopo	9	Septiembre	2023-03-09T00:00:00	2024-11-08T18:00:00	7	Dirección del viento	6.44
5255	7	Sololá	712	San Antonio Palopó	9	San Antonio Palopo	9	Septiembre	2023-03-09T00:00:00	2024-11-08T18:00:00	1	Precipitación	4.2
5256	7	Sololá	712	San Antonio Palopó	9	San Antonio Palopo	9	Septiembre	2023-03-09T00:00:00	2024-11-08T18:00:00	8	Radiación solar	12
5257	7	Sololá	712	San Antonio Palopó	9	San Antonio Palopo	9	Septiembre	2023-03-09T00:00:00	2024-11-08T19:00:00	2	Temperatura media	18.2
5258	7	Sololá	712	San Antonio Palopó	9	San Antonio Palopo	9	Septiembre	2023-03-09T00:00:00	2024-11-08T19:00:00	4	Temperatura máxima	19.6
5259	7	Sololá	712	San Antonio Palopó	9	San Antonio Palopo	9	Septiembre	2023-03-09T00:00:00	2024-11-08T19:00:00	3	Temperatura mínima	18.1
5260	7	Sololá	712	San Antonio Palopó	9	San Antonio Palopo	9	Septiembre	2023-03-09T00:00:00	2024-11-08T19:00:00	5	Humedad	90
5261	7	Sololá	712	San Antonio Palopó	9	San Antonio Palopo	9	Septiembre	2023-03-09T00:00:00	2024-11-08T19:00:00	6	Velocidad del viento	4.8
5262	7	Sololá	712	San Antonio Palopó	9	San Antonio Palopo	9	Septiembre	2023-03-09T00:00:00	2024-11-08T19:00:00	7	Dirección del viento	4.83
5263	7	Sololá	712	San Antonio Palopó	9	San Antonio Palopo	9	Septiembre	2023-03-09T00:00:00	2024-11-08T19:00:00	1	Precipitación	9
5264	7	Sololá	712	San Antonio Palopó	9	San Antonio Palopo	9	Septiembre	2023-03-09T00:00:00	2024-11-08T19:00:00	8	Radiación solar	0
5265	7	Sololá	712	San Antonio Palopó	9	San Antonio Palopo	9	Septiembre	2023-03-09T00:00:00	2024-11-08T20:00:00	2	Temperatura media	18.6
5266	7	Sololá	712	San Antonio Palopó	9	San Antonio Palopo	9	Septiembre	2023-03-09T00:00:00	2024-11-08T20:00:00	4	Temperatura máxima	18.6
5267	7	Sololá	712	San Antonio Palopó	9	San Antonio Palopo	9	Septiembre	2023-03-09T00:00:00	2024-11-08T20:00:00	3	Temperatura mínima	18.2
5268	7	Sololá	712	San Antonio Palopó	9	San Antonio Palopo	9	Septiembre	2023-03-09T00:00:00	2024-11-08T20:00:00	5	Humedad	88
5269	7	Sololá	712	San Antonio Palopó	9	San Antonio Palopo	9	Septiembre	2023-03-09T00:00:00	2024-11-08T20:00:00	6	Velocidad del viento	1.6
5270	7	Sololá	712	San Antonio Palopó	9	San Antonio Palopo	9	Septiembre	2023-03-09T00:00:00	2024-11-08T20:00:00	7	Dirección del viento	1.61
5271	7	Sololá	712	San Antonio Palopó	9	San Antonio Palopo	9	Septiembre	2023-03-09T00:00:00	2024-11-08T20:00:00	1	Precipitación	0
5272	7	Sololá	712	San Antonio Palopó	9	San Antonio Palopo	9	Septiembre	2023-03-09T00:00:00	2024-11-08T20:00:00	8	Radiación solar	0
5273	7	Sololá	712	San Antonio Palopó	9	San Antonio Palopo	9	Septiembre	2023-03-09T00:00:00	2024-11-08T21:00:00	2	Temperatura media	19.1
5274	7	Sololá	712	San Antonio Palopó	9	San Antonio Palopo	9	Septiembre	2023-03-09T00:00:00	2024-11-08T21:00:00	4	Temperatura máxima	19.2
5275	7	Sololá	712	San Antonio Palopó	9	San Antonio Palopo	9	Septiembre	2023-03-09T00:00:00	2024-11-08T21:00:00	3	Temperatura mínima	18.3
5276	7	Sololá	712	San Antonio Palopó	9	San Antonio Palopo	9	Septiembre	2023-03-09T00:00:00	2024-11-08T21:00:00	5	Humedad	81
5277	7	Sololá	712	San Antonio Palopó	9	San Antonio Palopo	9	Septiembre	2023-03-09T00:00:00	2024-11-08T21:00:00	6	Velocidad del viento	3.2
5278	7	Sololá	712	San Antonio Palopó	9	San Antonio Palopo	9	Septiembre	2023-03-09T00:00:00	2024-11-08T21:00:00	7	Dirección del viento	3.22
5279	7	Sololá	712	San Antonio Palopó	9	San Antonio Palopo	9	Septiembre	2023-03-09T00:00:00	2024-11-08T21:00:00	1	Precipitación	0.8
5280	7	Sololá	712	San Antonio Palopó	9	San Antonio Palopo	9	Septiembre	2023-03-09T00:00:00	2024-11-08T21:00:00	8	Radiación solar	0
5281	7	Sololá	712	San Antonio Palopó	9	San Antonio Palopo	9	Septiembre	2023-03-09T00:00:00	2024-11-08T22:00:00	2	Temperatura media	18.2
5282	7	Sololá	712	San Antonio Palopó	9	San Antonio Palopo	9	Septiembre	2023-03-09T00:00:00	2024-11-08T22:00:00	4	Temperatura máxima	19.1
5283	7	Sololá	712	San Antonio Palopó	9	San Antonio Palopo	9	Septiembre	2023-03-09T00:00:00	2024-11-08T22:00:00	3	Temperatura mínima	17.9
5284	7	Sololá	712	San Antonio Palopó	9	San Antonio Palopo	9	Septiembre	2023-03-09T00:00:00	2024-11-08T22:00:00	5	Humedad	86
5285	7	Sololá	712	San Antonio Palopó	9	San Antonio Palopo	9	Septiembre	2023-03-09T00:00:00	2024-11-08T22:00:00	6	Velocidad del viento	4.8
5286	7	Sololá	712	San Antonio Palopó	9	San Antonio Palopo	9	Septiembre	2023-03-09T00:00:00	2024-11-08T22:00:00	7	Dirección del viento	4.83
5287	7	Sololá	712	San Antonio Palopó	9	San Antonio Palopo	9	Septiembre	2023-03-09T00:00:00	2024-11-08T22:00:00	1	Precipitación	2.2
5288	7	Sololá	712	San Antonio Palopó	9	San Antonio Palopo	9	Septiembre	2023-03-09T00:00:00	2024-11-08T22:00:00	8	Radiación solar	0
5289	7	Sololá	712	San Antonio Palopó	9	San Antonio Palopo	9	Septiembre	2023-03-09T00:00:00	2024-11-08T23:00:00	2	Temperatura media	17.8
5290	7	Sololá	712	San Antonio Palopó	9	San Antonio Palopo	9	Septiembre	2023-03-09T00:00:00	2024-11-08T23:00:00	4	Temperatura máxima	18.7
5291	7	Sololá	712	San Antonio Palopó	9	San Antonio Palopo	9	Septiembre	2023-03-09T00:00:00	2024-11-08T23:00:00	3	Temperatura mínima	17.7
5292	7	Sololá	712	San Antonio Palopó	9	San Antonio Palopo	9	Septiembre	2023-03-09T00:00:00	2024-11-08T23:00:00	5	Humedad	88
5293	7	Sololá	712	San Antonio Palopó	9	San Antonio Palopo	9	Septiembre	2023-03-09T00:00:00	2024-11-08T23:00:00	6	Velocidad del viento	4.8
5294	7	Sololá	712	San Antonio Palopó	9	San Antonio Palopo	9	Septiembre	2023-03-09T00:00:00	2024-11-08T23:00:00	7	Dirección del viento	4.83
5295	7	Sololá	712	San Antonio Palopó	9	San Antonio Palopo	9	Septiembre	2023-03-09T00:00:00	2024-11-08T23:00:00	1	Precipitación	2.6
5296	7	Sololá	712	San Antonio Palopó	9	San Antonio Palopo	9	Septiembre	2023-03-09T00:00:00	2024-11-08T23:00:00	8	Radiación solar	0
5297	7	Sololá	712	San Antonio Palopó	9	San Antonio Palopo	9	Septiembre	2023-04-09T00:00:00	2024-11-08T00:00:00	2	Temperatura media	17.4
5298	7	Sololá	712	San Antonio Palopó	9	San Antonio Palopo	9	Septiembre	2023-04-09T00:00:00	2024-11-08T00:00:00	4	Temperatura máxima	17.8
5299	7	Sololá	712	San Antonio Palopó	9	San Antonio Palopo	9	Septiembre	2023-04-09T00:00:00	2024-11-08T00:00:00	3	Temperatura mínima	17.3
5300	7	Sololá	712	San Antonio Palopó	9	San Antonio Palopo	9	Septiembre	2023-04-09T00:00:00	2024-11-08T00:00:00	5	Humedad	88
5301	7	Sololá	712	San Antonio Palopó	9	San Antonio Palopo	9	Septiembre	2023-04-09T00:00:00	2024-11-08T00:00:00	6	Velocidad del viento	3.2
5302	7	Sololá	712	San Antonio Palopó	9	San Antonio Palopo	9	Septiembre	2023-04-09T00:00:00	2024-11-08T00:00:00	7	Dirección del viento	3.22
5303	7	Sololá	712	San Antonio Palopó	9	San Antonio Palopo	9	Septiembre	2023-04-09T00:00:00	2024-11-08T00:00:00	1	Precipitación	0
5304	7	Sololá	712	San Antonio Palopó	9	San Antonio Palopo	9	Septiembre	2023-04-09T00:00:00	2024-11-08T00:00:00	8	Radiación solar	0
5305	7	Sololá	712	San Antonio Palopó	9	San Antonio Palopo	9	Septiembre	2023-04-09T00:00:00	2024-11-08T01:00:00	2	Temperatura media	18.4
5306	7	Sololá	712	San Antonio Palopó	9	San Antonio Palopo	9	Septiembre	2023-04-09T00:00:00	2024-11-08T01:00:00	4	Temperatura máxima	18.4
5307	7	Sololá	712	San Antonio Palopó	9	San Antonio Palopo	9	Septiembre	2023-04-09T00:00:00	2024-11-08T01:00:00	3	Temperatura mínima	17.4
5308	7	Sololá	712	San Antonio Palopó	9	San Antonio Palopo	9	Septiembre	2023-04-09T00:00:00	2024-11-08T01:00:00	5	Humedad	81
5309	7	Sololá	712	San Antonio Palopó	9	San Antonio Palopo	9	Septiembre	2023-04-09T00:00:00	2024-11-08T01:00:00	6	Velocidad del viento	3.2
5310	7	Sololá	712	San Antonio Palopó	9	San Antonio Palopo	9	Septiembre	2023-04-09T00:00:00	2024-11-08T01:00:00	7	Dirección del viento	3.22
5311	7	Sololá	712	San Antonio Palopó	9	San Antonio Palopo	9	Septiembre	2023-04-09T00:00:00	2024-11-08T01:00:00	1	Precipitación	0
5312	7	Sololá	712	San Antonio Palopó	9	San Antonio Palopo	9	Septiembre	2023-04-09T00:00:00	2024-11-08T01:00:00	8	Radiación solar	0
5313	7	Sololá	712	San Antonio Palopó	9	San Antonio Palopo	9	Septiembre	2023-04-09T00:00:00	2024-11-08T02:00:00	2	Temperatura media	18.8
5314	7	Sololá	712	San Antonio Palopó	9	San Antonio Palopo	9	Septiembre	2023-04-09T00:00:00	2024-11-08T02:00:00	4	Temperatura máxima	18.9
5315	7	Sololá	712	San Antonio Palopó	9	San Antonio Palopo	9	Septiembre	2023-04-09T00:00:00	2024-11-08T02:00:00	3	Temperatura mínima	18.4
5316	7	Sololá	712	San Antonio Palopó	9	San Antonio Palopo	9	Septiembre	2023-04-09T00:00:00	2024-11-08T02:00:00	5	Humedad	78
5317	7	Sololá	712	San Antonio Palopó	9	San Antonio Palopo	9	Septiembre	2023-04-09T00:00:00	2024-11-08T02:00:00	6	Velocidad del viento	4.8
5318	7	Sololá	712	San Antonio Palopó	9	San Antonio Palopo	9	Septiembre	2023-04-09T00:00:00	2024-11-08T02:00:00	7	Dirección del viento	4.83
5319	7	Sololá	712	San Antonio Palopó	9	San Antonio Palopo	9	Septiembre	2023-04-09T00:00:00	2024-11-08T02:00:00	1	Precipitación	0
5320	7	Sololá	712	San Antonio Palopó	9	San Antonio Palopo	9	Septiembre	2023-04-09T00:00:00	2024-11-08T02:00:00	8	Radiación solar	0
5321	7	Sololá	712	San Antonio Palopó	9	San Antonio Palopo	9	Septiembre	2023-04-09T00:00:00	2024-11-08T03:00:00	2	Temperatura media	18.5
5322	7	Sololá	712	San Antonio Palopó	9	San Antonio Palopo	9	Septiembre	2023-04-09T00:00:00	2024-11-08T03:00:00	4	Temperatura máxima	18.9
5323	7	Sololá	712	San Antonio Palopó	9	San Antonio Palopo	9	Septiembre	2023-04-09T00:00:00	2024-11-08T03:00:00	3	Temperatura mínima	18.3
5324	7	Sololá	712	San Antonio Palopó	9	San Antonio Palopo	9	Septiembre	2023-04-09T00:00:00	2024-11-08T03:00:00	5	Humedad	77
5325	7	Sololá	712	San Antonio Palopó	9	San Antonio Palopo	9	Septiembre	2023-04-09T00:00:00	2024-11-08T03:00:00	6	Velocidad del viento	6.4
5326	7	Sololá	712	San Antonio Palopó	9	San Antonio Palopo	9	Septiembre	2023-04-09T00:00:00	2024-11-08T03:00:00	7	Dirección del viento	6.44
5327	7	Sololá	712	San Antonio Palopó	9	San Antonio Palopo	9	Septiembre	2023-04-09T00:00:00	2024-11-08T03:00:00	1	Precipitación	0
5328	7	Sololá	712	San Antonio Palopó	9	San Antonio Palopo	9	Septiembre	2023-04-09T00:00:00	2024-11-08T03:00:00	8	Radiación solar	0
5329	7	Sololá	712	San Antonio Palopó	9	San Antonio Palopo	9	Septiembre	2023-04-09T00:00:00	2024-11-08T04:00:00	2	Temperatura media	18.6
5330	7	Sololá	712	San Antonio Palopó	9	San Antonio Palopo	9	Septiembre	2023-04-09T00:00:00	2024-11-08T04:00:00	4	Temperatura máxima	18.8
5331	7	Sololá	712	San Antonio Palopó	9	San Antonio Palopo	9	Septiembre	2023-04-09T00:00:00	2024-11-08T04:00:00	3	Temperatura mínima	18.5
5332	7	Sololá	712	San Antonio Palopó	9	San Antonio Palopo	9	Septiembre	2023-04-09T00:00:00	2024-11-08T04:00:00	5	Humedad	76
5333	7	Sololá	712	San Antonio Palopó	9	San Antonio Palopo	9	Septiembre	2023-04-09T00:00:00	2024-11-08T04:00:00	6	Velocidad del viento	9.7
5334	7	Sololá	712	San Antonio Palopó	9	San Antonio Palopo	9	Septiembre	2023-04-09T00:00:00	2024-11-08T04:00:00	7	Dirección del viento	9.66
5335	7	Sololá	712	San Antonio Palopó	9	San Antonio Palopo	9	Septiembre	2023-04-09T00:00:00	2024-11-08T04:00:00	1	Precipitación	0
5336	7	Sololá	712	San Antonio Palopó	9	San Antonio Palopo	9	Septiembre	2023-04-09T00:00:00	2024-11-08T04:00:00	8	Radiación solar	0
5337	7	Sololá	712	San Antonio Palopó	9	San Antonio Palopo	9	Septiembre	2023-04-09T00:00:00	2024-11-08T05:00:00	2	Temperatura media	17.7
5338	7	Sololá	712	San Antonio Palopó	9	San Antonio Palopo	9	Septiembre	2023-04-09T00:00:00	2024-11-08T05:00:00	4	Temperatura máxima	18.7
5339	7	Sololá	712	San Antonio Palopó	9	San Antonio Palopo	9	Septiembre	2023-04-09T00:00:00	2024-11-08T05:00:00	3	Temperatura mínima	17.7
5340	7	Sololá	712	San Antonio Palopó	9	San Antonio Palopo	9	Septiembre	2023-04-09T00:00:00	2024-11-08T05:00:00	5	Humedad	81
5341	7	Sololá	712	San Antonio Palopó	9	San Antonio Palopo	9	Septiembre	2023-04-09T00:00:00	2024-11-08T05:00:00	6	Velocidad del viento	3.2
5342	7	Sololá	712	San Antonio Palopó	9	San Antonio Palopo	9	Septiembre	2023-04-09T00:00:00	2024-11-08T05:00:00	7	Dirección del viento	3.22
5343	7	Sololá	712	San Antonio Palopó	9	San Antonio Palopo	9	Septiembre	2023-04-09T00:00:00	2024-11-08T05:00:00	1	Precipitación	0
5344	7	Sololá	712	San Antonio Palopó	9	San Antonio Palopo	9	Septiembre	2023-04-09T00:00:00	2024-11-08T05:00:00	8	Radiación solar	0
5345	7	Sololá	712	San Antonio Palopó	9	San Antonio Palopo	9	Septiembre	2023-04-09T00:00:00	2024-11-08T06:00:00	2	Temperatura media	17.6
5346	7	Sololá	712	San Antonio Palopó	9	San Antonio Palopo	9	Septiembre	2023-04-09T00:00:00	2024-11-08T06:00:00	4	Temperatura máxima	18.2
5347	7	Sololá	712	San Antonio Palopó	9	San Antonio Palopo	9	Septiembre	2023-04-09T00:00:00	2024-11-08T06:00:00	3	Temperatura mínima	17.2
5348	7	Sololá	712	San Antonio Palopó	9	San Antonio Palopo	9	Septiembre	2023-04-09T00:00:00	2024-11-08T06:00:00	5	Humedad	78
5349	7	Sololá	712	San Antonio Palopó	9	San Antonio Palopo	9	Septiembre	2023-04-09T00:00:00	2024-11-08T06:00:00	6	Velocidad del viento	4.8
5350	7	Sololá	712	San Antonio Palopó	9	San Antonio Palopo	9	Septiembre	2023-04-09T00:00:00	2024-11-08T06:00:00	7	Dirección del viento	4.83
5351	7	Sololá	712	San Antonio Palopó	9	San Antonio Palopo	9	Septiembre	2023-04-09T00:00:00	2024-11-08T06:00:00	1	Precipitación	0
5352	7	Sololá	712	San Antonio Palopó	9	San Antonio Palopo	9	Septiembre	2023-04-09T00:00:00	2024-11-08T06:00:00	8	Radiación solar	0
5353	7	Sololá	712	San Antonio Palopó	9	San Antonio Palopo	9	Septiembre	2023-04-09T00:00:00	2024-11-08T07:00:00	2	Temperatura media	18.1
5354	7	Sololá	712	San Antonio Palopó	9	San Antonio Palopo	9	Septiembre	2023-04-09T00:00:00	2024-11-08T07:00:00	4	Temperatura máxima	18.1
5355	7	Sololá	712	San Antonio Palopó	9	San Antonio Palopo	9	Septiembre	2023-04-09T00:00:00	2024-11-08T07:00:00	3	Temperatura mínima	17.5
5356	7	Sololá	712	San Antonio Palopó	9	San Antonio Palopo	9	Septiembre	2023-04-09T00:00:00	2024-11-08T07:00:00	5	Humedad	76
5357	7	Sololá	712	San Antonio Palopó	9	San Antonio Palopo	9	Septiembre	2023-04-09T00:00:00	2024-11-08T07:00:00	6	Velocidad del viento	8
5358	7	Sololá	712	San Antonio Palopó	9	San Antonio Palopo	9	Septiembre	2023-04-09T00:00:00	2024-11-08T07:00:00	7	Dirección del viento	8.05
5359	7	Sololá	712	San Antonio Palopó	9	San Antonio Palopo	9	Septiembre	2023-04-09T00:00:00	2024-11-08T07:00:00	1	Precipitación	0
5360	7	Sololá	712	San Antonio Palopó	9	San Antonio Palopo	9	Septiembre	2023-04-09T00:00:00	2024-11-08T07:00:00	8	Radiación solar	35
5361	7	Sololá	712	San Antonio Palopó	9	San Antonio Palopo	9	Septiembre	2023-04-09T00:00:00	2024-11-08T08:00:00	2	Temperatura media	19.7
5362	7	Sololá	712	San Antonio Palopó	9	San Antonio Palopo	9	Septiembre	2023-04-09T00:00:00	2024-11-08T08:00:00	4	Temperatura máxima	19.7
5363	7	Sololá	712	San Antonio Palopó	9	San Antonio Palopo	9	Septiembre	2023-04-09T00:00:00	2024-11-08T08:00:00	3	Temperatura mínima	18.1
5364	7	Sololá	712	San Antonio Palopó	9	San Antonio Palopo	9	Septiembre	2023-04-09T00:00:00	2024-11-08T08:00:00	5	Humedad	77
5365	7	Sololá	712	San Antonio Palopó	9	San Antonio Palopo	9	Septiembre	2023-04-09T00:00:00	2024-11-08T08:00:00	6	Velocidad del viento	3.2
5366	7	Sololá	712	San Antonio Palopó	9	San Antonio Palopo	9	Septiembre	2023-04-09T00:00:00	2024-11-08T08:00:00	7	Dirección del viento	3.22
5367	7	Sololá	712	San Antonio Palopó	9	San Antonio Palopo	9	Septiembre	2023-04-09T00:00:00	2024-11-08T08:00:00	1	Precipitación	0
5368	7	Sololá	712	San Antonio Palopó	9	San Antonio Palopo	9	Septiembre	2023-04-09T00:00:00	2024-11-08T08:00:00	8	Radiación solar	150
5369	7	Sololá	712	San Antonio Palopó	9	San Antonio Palopo	9	Septiembre	2023-04-09T00:00:00	2024-11-08T09:00:00	2	Temperatura media	20.7
5370	7	Sololá	712	San Antonio Palopó	9	San Antonio Palopo	9	Septiembre	2023-04-09T00:00:00	2024-11-08T09:00:00	4	Temperatura máxima	21
5371	7	Sololá	712	San Antonio Palopó	9	San Antonio Palopo	9	Septiembre	2023-04-09T00:00:00	2024-11-08T09:00:00	3	Temperatura mínima	19.7
5372	7	Sololá	712	San Antonio Palopó	9	San Antonio Palopo	9	Septiembre	2023-04-09T00:00:00	2024-11-08T09:00:00	5	Humedad	72
5373	7	Sololá	712	San Antonio Palopó	9	San Antonio Palopo	9	Septiembre	2023-04-09T00:00:00	2024-11-08T09:00:00	6	Velocidad del viento	1.6
5374	7	Sololá	712	San Antonio Palopó	9	San Antonio Palopo	9	Septiembre	2023-04-09T00:00:00	2024-11-08T09:00:00	7	Dirección del viento	1.61
5375	7	Sololá	712	San Antonio Palopó	9	San Antonio Palopo	9	Septiembre	2023-04-09T00:00:00	2024-11-08T09:00:00	1	Precipitación	0
5376	7	Sololá	712	San Antonio Palopó	9	San Antonio Palopo	9	Septiembre	2023-04-09T00:00:00	2024-11-08T09:00:00	8	Radiación solar	426
5377	7	Sololá	712	San Antonio Palopó	9	San Antonio Palopo	9	Septiembre	2023-04-09T00:00:00	2024-11-08T10:00:00	2	Temperatura media	21.4
5378	7	Sololá	712	San Antonio Palopó	9	San Antonio Palopo	9	Septiembre	2023-04-09T00:00:00	2024-11-08T10:00:00	4	Temperatura máxima	21.6
5379	7	Sololá	712	San Antonio Palopó	9	San Antonio Palopo	9	Septiembre	2023-04-09T00:00:00	2024-11-08T10:00:00	3	Temperatura mínima	20.7
5380	7	Sololá	712	San Antonio Palopó	9	San Antonio Palopo	9	Septiembre	2023-04-09T00:00:00	2024-11-08T10:00:00	5	Humedad	75
5381	7	Sololá	712	San Antonio Palopó	9	San Antonio Palopo	9	Septiembre	2023-04-09T00:00:00	2024-11-08T10:00:00	6	Velocidad del viento	3.2
5382	7	Sololá	712	San Antonio Palopó	9	San Antonio Palopo	9	Septiembre	2023-04-09T00:00:00	2024-11-08T10:00:00	7	Dirección del viento	3.22
5383	7	Sololá	712	San Antonio Palopó	9	San Antonio Palopo	9	Septiembre	2023-04-09T00:00:00	2024-11-08T10:00:00	1	Precipitación	0
5384	7	Sololá	712	San Antonio Palopó	9	San Antonio Palopo	9	Septiembre	2023-04-09T00:00:00	2024-11-08T10:00:00	8	Radiación solar	543
5385	7	Sololá	712	San Antonio Palopó	9	San Antonio Palopo	9	Septiembre	2023-04-09T00:00:00	2024-11-08T11:00:00	2	Temperatura media	22.7
5386	7	Sololá	712	San Antonio Palopó	9	San Antonio Palopo	9	Septiembre	2023-04-09T00:00:00	2024-11-08T11:00:00	4	Temperatura máxima	22.7
5387	7	Sololá	712	San Antonio Palopó	9	San Antonio Palopo	9	Septiembre	2023-04-09T00:00:00	2024-11-08T11:00:00	3	Temperatura mínima	21.3
5388	7	Sololá	712	San Antonio Palopó	9	San Antonio Palopo	9	Septiembre	2023-04-09T00:00:00	2024-11-08T11:00:00	5	Humedad	70
5389	7	Sololá	712	San Antonio Palopó	9	San Antonio Palopo	9	Septiembre	2023-04-09T00:00:00	2024-11-08T11:00:00	6	Velocidad del viento	3.2
5390	7	Sololá	712	San Antonio Palopó	9	San Antonio Palopo	9	Septiembre	2023-04-09T00:00:00	2024-11-08T11:00:00	7	Dirección del viento	3.22
5391	7	Sololá	712	San Antonio Palopó	9	San Antonio Palopo	9	Septiembre	2023-04-09T00:00:00	2024-11-08T11:00:00	1	Precipitación	0
5392	7	Sololá	712	San Antonio Palopó	9	San Antonio Palopo	9	Septiembre	2023-04-09T00:00:00	2024-11-08T11:00:00	8	Radiación solar	847
5393	7	Sololá	712	San Antonio Palopó	9	San Antonio Palopo	9	Septiembre	2023-04-09T00:00:00	2024-11-08T12:00:00	2	Temperatura media	23.9
5394	7	Sololá	712	San Antonio Palopó	9	San Antonio Palopo	9	Septiembre	2023-04-09T00:00:00	2024-11-08T12:00:00	4	Temperatura máxima	25.3
5395	7	Sololá	712	San Antonio Palopó	9	San Antonio Palopo	9	Septiembre	2023-04-09T00:00:00	2024-11-08T12:00:00	3	Temperatura mínima	22.7
5396	7	Sololá	712	San Antonio Palopó	9	San Antonio Palopo	9	Septiembre	2023-04-09T00:00:00	2024-11-08T12:00:00	5	Humedad	69
5397	7	Sololá	712	San Antonio Palopó	9	San Antonio Palopo	9	Septiembre	2023-04-09T00:00:00	2024-11-08T12:00:00	6	Velocidad del viento	3.2
5398	7	Sololá	712	San Antonio Palopó	9	San Antonio Palopo	9	Septiembre	2023-04-09T00:00:00	2024-11-08T12:00:00	7	Dirección del viento	3.22
5399	7	Sololá	712	San Antonio Palopó	9	San Antonio Palopo	9	Septiembre	2023-04-09T00:00:00	2024-11-08T12:00:00	1	Precipitación	0
5400	7	Sololá	712	San Antonio Palopó	9	San Antonio Palopo	9	Septiembre	2023-04-09T00:00:00	2024-11-08T12:00:00	8	Radiación solar	774
5401	7	Sololá	712	San Antonio Palopó	9	San Antonio Palopo	9	Septiembre	2023-04-09T00:00:00	2024-11-08T13:00:00	2	Temperatura media	23.9
5402	7	Sololá	712	San Antonio Palopó	9	San Antonio Palopo	9	Septiembre	2023-04-09T00:00:00	2024-11-08T13:00:00	4	Temperatura máxima	24.8
5403	7	Sololá	712	San Antonio Palopó	9	San Antonio Palopo	9	Septiembre	2023-04-09T00:00:00	2024-11-08T13:00:00	3	Temperatura mínima	23.6
5404	7	Sololá	712	San Antonio Palopó	9	San Antonio Palopo	9	Septiembre	2023-04-09T00:00:00	2024-11-08T13:00:00	5	Humedad	72
5405	7	Sololá	712	San Antonio Palopó	9	San Antonio Palopo	9	Septiembre	2023-04-09T00:00:00	2024-11-08T13:00:00	6	Velocidad del viento	8
5406	7	Sololá	712	San Antonio Palopó	9	San Antonio Palopo	9	Septiembre	2023-04-09T00:00:00	2024-11-08T13:00:00	7	Dirección del viento	8.05
5407	7	Sololá	712	San Antonio Palopó	9	San Antonio Palopo	9	Septiembre	2023-04-09T00:00:00	2024-11-08T13:00:00	1	Precipitación	0
5408	7	Sololá	712	San Antonio Palopó	9	San Antonio Palopo	9	Septiembre	2023-04-09T00:00:00	2024-11-08T13:00:00	8	Radiación solar	677
5409	7	Sololá	712	San Antonio Palopó	9	San Antonio Palopo	9	Septiembre	2023-04-09T00:00:00	2024-11-08T14:00:00	2	Temperatura media	22
5410	7	Sololá	712	San Antonio Palopó	9	San Antonio Palopo	9	Septiembre	2023-04-09T00:00:00	2024-11-08T14:00:00	4	Temperatura máxima	23.9
5411	7	Sololá	712	San Antonio Palopó	9	San Antonio Palopo	9	Septiembre	2023-04-09T00:00:00	2024-11-08T14:00:00	3	Temperatura mínima	21.6
5412	7	Sololá	712	San Antonio Palopó	9	San Antonio Palopo	9	Septiembre	2023-04-09T00:00:00	2024-11-08T14:00:00	5	Humedad	75
5413	7	Sololá	712	San Antonio Palopó	9	San Antonio Palopo	9	Septiembre	2023-04-09T00:00:00	2024-11-08T14:00:00	6	Velocidad del viento	14.5
5414	7	Sololá	712	San Antonio Palopó	9	San Antonio Palopo	9	Septiembre	2023-04-09T00:00:00	2024-11-08T14:00:00	7	Dirección del viento	14.48
5415	7	Sololá	712	San Antonio Palopó	9	San Antonio Palopo	9	Septiembre	2023-04-09T00:00:00	2024-11-08T14:00:00	1	Precipitación	0
5416	7	Sololá	712	San Antonio Palopó	9	San Antonio Palopo	9	Septiembre	2023-04-09T00:00:00	2024-11-08T14:00:00	8	Radiación solar	317
5417	7	Sololá	712	San Antonio Palopó	9	San Antonio Palopo	9	Septiembre	2023-04-09T00:00:00	2024-11-08T15:00:00	2	Temperatura media	21.2
5418	7	Sololá	712	San Antonio Palopó	9	San Antonio Palopo	9	Septiembre	2023-04-09T00:00:00	2024-11-08T15:00:00	4	Temperatura máxima	22.3
5419	7	Sololá	712	San Antonio Palopó	9	San Antonio Palopo	9	Septiembre	2023-04-09T00:00:00	2024-11-08T15:00:00	3	Temperatura mínima	21.2
5420	7	Sololá	712	San Antonio Palopó	9	San Antonio Palopo	9	Septiembre	2023-04-09T00:00:00	2024-11-08T15:00:00	5	Humedad	79
5421	7	Sololá	712	San Antonio Palopó	9	San Antonio Palopo	9	Septiembre	2023-04-09T00:00:00	2024-11-08T15:00:00	6	Velocidad del viento	6.4
5422	7	Sololá	712	San Antonio Palopó	9	San Antonio Palopo	9	Septiembre	2023-04-09T00:00:00	2024-11-08T15:00:00	7	Dirección del viento	6.44
5423	7	Sololá	712	San Antonio Palopó	9	San Antonio Palopo	9	Septiembre	2023-04-09T00:00:00	2024-11-08T15:00:00	1	Precipitación	0
5424	7	Sololá	712	San Antonio Palopó	9	San Antonio Palopo	9	Septiembre	2023-04-09T00:00:00	2024-11-08T15:00:00	8	Radiación solar	234
5425	7	Sololá	712	San Antonio Palopó	9	San Antonio Palopo	9	Septiembre	2023-04-09T00:00:00	2024-11-08T16:00:00	2	Temperatura media	18.4
5426	7	Sololá	712	San Antonio Palopó	9	San Antonio Palopo	9	Septiembre	2023-04-09T00:00:00	2024-11-08T16:00:00	4	Temperatura máxima	21.2
5427	7	Sololá	712	San Antonio Palopó	9	San Antonio Palopo	9	Septiembre	2023-04-09T00:00:00	2024-11-08T16:00:00	3	Temperatura mínima	18.4
5428	7	Sololá	712	San Antonio Palopó	9	San Antonio Palopo	9	Septiembre	2023-04-09T00:00:00	2024-11-08T16:00:00	5	Humedad	89
5429	7	Sololá	712	San Antonio Palopó	9	San Antonio Palopo	9	Septiembre	2023-04-09T00:00:00	2024-11-08T16:00:00	6	Velocidad del viento	8
5430	7	Sololá	712	San Antonio Palopó	9	San Antonio Palopo	9	Septiembre	2023-04-09T00:00:00	2024-11-08T16:00:00	7	Dirección del viento	8.05
5431	7	Sololá	712	San Antonio Palopó	9	San Antonio Palopo	9	Septiembre	2023-04-09T00:00:00	2024-11-08T16:00:00	1	Precipitación	11.8
5432	7	Sololá	712	San Antonio Palopó	9	San Antonio Palopo	9	Septiembre	2023-04-09T00:00:00	2024-11-08T16:00:00	8	Radiación solar	34
5433	7	Sololá	712	San Antonio Palopó	9	San Antonio Palopo	9	Septiembre	2023-04-09T00:00:00	2024-11-08T17:00:00	2	Temperatura media	18
5434	7	Sololá	712	San Antonio Palopó	9	San Antonio Palopo	9	Septiembre	2023-04-09T00:00:00	2024-11-08T17:00:00	4	Temperatura máxima	18.5
5435	7	Sololá	712	San Antonio Palopó	9	San Antonio Palopo	9	Septiembre	2023-04-09T00:00:00	2024-11-08T17:00:00	3	Temperatura mínima	17.9
5436	7	Sololá	712	San Antonio Palopó	9	San Antonio Palopo	9	Septiembre	2023-04-09T00:00:00	2024-11-08T17:00:00	5	Humedad	92
5437	7	Sololá	712	San Antonio Palopó	9	San Antonio Palopo	9	Septiembre	2023-04-09T00:00:00	2024-11-08T17:00:00	6	Velocidad del viento	4.8
5438	7	Sololá	712	San Antonio Palopó	9	San Antonio Palopo	9	Septiembre	2023-04-09T00:00:00	2024-11-08T17:00:00	7	Dirección del viento	4.83
5439	7	Sololá	712	San Antonio Palopó	9	San Antonio Palopo	9	Septiembre	2023-04-09T00:00:00	2024-11-08T17:00:00	1	Precipitación	14.4
5440	7	Sololá	712	San Antonio Palopó	9	San Antonio Palopo	9	Septiembre	2023-04-09T00:00:00	2024-11-08T17:00:00	8	Radiación solar	22
5441	7	Sololá	712	San Antonio Palopó	9	San Antonio Palopo	9	Septiembre	2023-04-09T00:00:00	2024-11-08T18:00:00	2	Temperatura media	18.3
5442	7	Sololá	712	San Antonio Palopó	9	San Antonio Palopo	9	Septiembre	2023-04-09T00:00:00	2024-11-08T18:00:00	4	Temperatura máxima	18.3
5443	7	Sololá	712	San Antonio Palopó	9	San Antonio Palopo	9	Septiembre	2023-04-09T00:00:00	2024-11-08T18:00:00	3	Temperatura mínima	17.9
5444	7	Sololá	712	San Antonio Palopó	9	San Antonio Palopo	9	Septiembre	2023-04-09T00:00:00	2024-11-08T18:00:00	5	Humedad	92
5445	7	Sololá	712	San Antonio Palopó	9	San Antonio Palopo	9	Septiembre	2023-04-09T00:00:00	2024-11-08T18:00:00	6	Velocidad del viento	1.6
5446	7	Sololá	712	San Antonio Palopó	9	San Antonio Palopo	9	Septiembre	2023-04-09T00:00:00	2024-11-08T18:00:00	7	Dirección del viento	1.61
5447	7	Sololá	712	San Antonio Palopó	9	San Antonio Palopo	9	Septiembre	2023-04-09T00:00:00	2024-11-08T18:00:00	1	Precipitación	0.8
5448	7	Sololá	712	San Antonio Palopó	9	San Antonio Palopo	9	Septiembre	2023-04-09T00:00:00	2024-11-08T18:00:00	8	Radiación solar	4
5449	7	Sololá	712	San Antonio Palopó	9	San Antonio Palopo	9	Septiembre	2023-04-09T00:00:00	2024-11-08T19:00:00	2	Temperatura media	18.4
5450	7	Sololá	712	San Antonio Palopó	9	San Antonio Palopo	9	Septiembre	2023-04-09T00:00:00	2024-11-08T19:00:00	4	Temperatura máxima	18.4
5451	7	Sololá	712	San Antonio Palopó	9	San Antonio Palopo	9	Septiembre	2023-04-09T00:00:00	2024-11-08T19:00:00	3	Temperatura mínima	18.2
5452	7	Sololá	712	San Antonio Palopó	9	San Antonio Palopo	9	Septiembre	2023-04-09T00:00:00	2024-11-08T19:00:00	5	Humedad	90
5453	7	Sololá	712	San Antonio Palopó	9	San Antonio Palopo	9	Septiembre	2023-04-09T00:00:00	2024-11-08T19:00:00	6	Velocidad del viento	1.6
5454	7	Sololá	712	San Antonio Palopó	9	San Antonio Palopo	9	Septiembre	2023-04-09T00:00:00	2024-11-08T19:00:00	7	Dirección del viento	1.61
5455	7	Sololá	712	San Antonio Palopó	9	San Antonio Palopo	9	Septiembre	2023-04-09T00:00:00	2024-11-08T19:00:00	1	Precipitación	0
5456	7	Sololá	712	San Antonio Palopó	9	San Antonio Palopo	9	Septiembre	2023-04-09T00:00:00	2024-11-08T19:00:00	8	Radiación solar	0
5457	7	Sololá	712	San Antonio Palopó	9	San Antonio Palopo	9	Septiembre	2023-04-09T00:00:00	2024-11-08T20:00:00	2	Temperatura media	18.3
5458	7	Sololá	712	San Antonio Palopó	9	San Antonio Palopo	9	Septiembre	2023-04-09T00:00:00	2024-11-08T20:00:00	4	Temperatura máxima	18.6
5459	7	Sololá	712	San Antonio Palopó	9	San Antonio Palopo	9	Septiembre	2023-04-09T00:00:00	2024-11-08T20:00:00	3	Temperatura mínima	18.2
5460	7	Sololá	712	San Antonio Palopó	9	San Antonio Palopo	9	Septiembre	2023-04-09T00:00:00	2024-11-08T20:00:00	5	Humedad	89
5461	7	Sololá	712	San Antonio Palopó	9	San Antonio Palopo	9	Septiembre	2023-04-09T00:00:00	2024-11-08T20:00:00	6	Velocidad del viento	1.6
5462	7	Sololá	712	San Antonio Palopó	9	San Antonio Palopo	9	Septiembre	2023-04-09T00:00:00	2024-11-08T20:00:00	7	Dirección del viento	1.61
5463	7	Sololá	712	San Antonio Palopó	9	San Antonio Palopo	9	Septiembre	2023-04-09T00:00:00	2024-11-08T20:00:00	1	Precipitación	0
5464	7	Sololá	712	San Antonio Palopó	9	San Antonio Palopo	9	Septiembre	2023-04-09T00:00:00	2024-11-08T20:00:00	8	Radiación solar	0
5465	7	Sololá	712	San Antonio Palopó	9	San Antonio Palopo	9	Septiembre	2023-04-09T00:00:00	2024-11-08T21:00:00	2	Temperatura media	17.9
5466	7	Sololá	712	San Antonio Palopó	9	San Antonio Palopo	9	Septiembre	2023-04-09T00:00:00	2024-11-08T21:00:00	4	Temperatura máxima	18.3
5467	7	Sololá	712	San Antonio Palopó	9	San Antonio Palopo	9	Septiembre	2023-04-09T00:00:00	2024-11-08T21:00:00	3	Temperatura mínima	17.7
5468	7	Sololá	712	San Antonio Palopó	9	San Antonio Palopo	9	Septiembre	2023-04-09T00:00:00	2024-11-08T21:00:00	5	Humedad	90
5469	7	Sololá	712	San Antonio Palopó	9	San Antonio Palopo	9	Septiembre	2023-04-09T00:00:00	2024-11-08T21:00:00	6	Velocidad del viento	1.6
5470	7	Sololá	712	San Antonio Palopó	9	San Antonio Palopo	9	Septiembre	2023-04-09T00:00:00	2024-11-08T21:00:00	7	Dirección del viento	1.61
5471	7	Sololá	712	San Antonio Palopó	9	San Antonio Palopo	9	Septiembre	2023-04-09T00:00:00	2024-11-08T21:00:00	1	Precipitación	0
5472	7	Sololá	712	San Antonio Palopó	9	San Antonio Palopo	9	Septiembre	2023-04-09T00:00:00	2024-11-08T21:00:00	8	Radiación solar	0
5473	7	Sololá	712	San Antonio Palopó	9	San Antonio Palopo	9	Septiembre	2023-04-09T00:00:00	2024-11-08T22:00:00	2	Temperatura media	17.8
5474	7	Sololá	712	San Antonio Palopó	9	San Antonio Palopo	9	Septiembre	2023-04-09T00:00:00	2024-11-08T22:00:00	4	Temperatura máxima	18.1
5475	7	Sololá	712	San Antonio Palopó	9	San Antonio Palopo	9	Septiembre	2023-04-09T00:00:00	2024-11-08T22:00:00	3	Temperatura mínima	17.6
5476	7	Sololá	712	San Antonio Palopó	9	San Antonio Palopo	9	Septiembre	2023-04-09T00:00:00	2024-11-08T22:00:00	5	Humedad	90
5477	7	Sololá	712	San Antonio Palopó	9	San Antonio Palopo	9	Septiembre	2023-04-09T00:00:00	2024-11-08T22:00:00	6	Velocidad del viento	1.6
5478	7	Sololá	712	San Antonio Palopó	9	San Antonio Palopo	9	Septiembre	2023-04-09T00:00:00	2024-11-08T22:00:00	7	Dirección del viento	1.61
5479	7	Sololá	712	San Antonio Palopó	9	San Antonio Palopo	9	Septiembre	2023-04-09T00:00:00	2024-11-08T22:00:00	1	Precipitación	0
5480	7	Sololá	712	San Antonio Palopó	9	San Antonio Palopo	9	Septiembre	2023-04-09T00:00:00	2024-11-08T22:00:00	8	Radiación solar	0
5481	7	Sololá	712	San Antonio Palopó	9	San Antonio Palopo	9	Septiembre	2023-04-09T00:00:00	2024-11-08T23:00:00	2	Temperatura media	17.8
5482	7	Sololá	712	San Antonio Palopó	9	San Antonio Palopo	9	Septiembre	2023-04-09T00:00:00	2024-11-08T23:00:00	4	Temperatura máxima	18.1
5483	7	Sololá	712	San Antonio Palopó	9	San Antonio Palopo	9	Septiembre	2023-04-09T00:00:00	2024-11-08T23:00:00	3	Temperatura mínima	17.8
5484	7	Sololá	712	San Antonio Palopó	9	San Antonio Palopo	9	Septiembre	2023-04-09T00:00:00	2024-11-08T23:00:00	5	Humedad	91
5485	7	Sololá	712	San Antonio Palopó	9	San Antonio Palopo	9	Septiembre	2023-04-09T00:00:00	2024-11-08T23:00:00	6	Velocidad del viento	1.6
5486	7	Sololá	712	San Antonio Palopó	9	San Antonio Palopo	9	Septiembre	2023-04-09T00:00:00	2024-11-08T23:00:00	7	Dirección del viento	1.61
5487	7	Sololá	712	San Antonio Palopó	9	San Antonio Palopo	9	Septiembre	2023-04-09T00:00:00	2024-11-08T23:00:00	1	Precipitación	0
5488	7	Sololá	712	San Antonio Palopó	9	San Antonio Palopo	9	Septiembre	2023-04-09T00:00:00	2024-11-08T23:00:00	8	Radiación solar	0
5489	7	Sololá	712	San Antonio Palopó	9	San Antonio Palopo	9	Septiembre	2023-05-09T00:00:00	2024-11-08T00:00:00	2	Temperatura media	17.9
5490	7	Sololá	712	San Antonio Palopó	9	San Antonio Palopo	9	Septiembre	2023-05-09T00:00:00	2024-11-08T00:00:00	4	Temperatura máxima	18.1
5491	7	Sololá	712	San Antonio Palopó	9	San Antonio Palopo	9	Septiembre	2023-05-09T00:00:00	2024-11-08T00:00:00	3	Temperatura mínima	17.8
5492	7	Sololá	712	San Antonio Palopó	9	San Antonio Palopo	9	Septiembre	2023-05-09T00:00:00	2024-11-08T00:00:00	5	Humedad	91
5493	7	Sololá	712	San Antonio Palopó	9	San Antonio Palopo	9	Septiembre	2023-05-09T00:00:00	2024-11-08T00:00:00	6	Velocidad del viento	3.2
5494	7	Sololá	712	San Antonio Palopó	9	San Antonio Palopo	9	Septiembre	2023-05-09T00:00:00	2024-11-08T00:00:00	7	Dirección del viento	3.22
5495	7	Sololá	712	San Antonio Palopó	9	San Antonio Palopo	9	Septiembre	2023-05-09T00:00:00	2024-11-08T00:00:00	1	Precipitación	0
5496	7	Sololá	712	San Antonio Palopó	9	San Antonio Palopo	9	Septiembre	2023-05-09T00:00:00	2024-11-08T00:00:00	8	Radiación solar	0
5497	7	Sololá	712	San Antonio Palopó	9	San Antonio Palopo	9	Septiembre	2023-05-09T00:00:00	2024-11-08T01:00:00	2	Temperatura media	18
5498	7	Sololá	712	San Antonio Palopó	9	San Antonio Palopo	9	Septiembre	2023-05-09T00:00:00	2024-11-08T01:00:00	4	Temperatura máxima	18.2
5499	7	Sololá	712	San Antonio Palopó	9	San Antonio Palopo	9	Septiembre	2023-05-09T00:00:00	2024-11-08T01:00:00	3	Temperatura mínima	17.8
5500	7	Sololá	712	San Antonio Palopó	9	San Antonio Palopo	9	Septiembre	2023-05-09T00:00:00	2024-11-08T01:00:00	5	Humedad	90
5501	7	Sololá	712	San Antonio Palopó	9	San Antonio Palopo	9	Septiembre	2023-05-09T00:00:00	2024-11-08T01:00:00	6	Velocidad del viento	3.2
5502	7	Sololá	712	San Antonio Palopó	9	San Antonio Palopo	9	Septiembre	2023-05-09T00:00:00	2024-11-08T01:00:00	7	Dirección del viento	3.22
5503	7	Sololá	712	San Antonio Palopó	9	San Antonio Palopo	9	Septiembre	2023-05-09T00:00:00	2024-11-08T01:00:00	1	Precipitación	0
5504	7	Sololá	712	San Antonio Palopó	9	San Antonio Palopo	9	Septiembre	2023-05-09T00:00:00	2024-11-08T01:00:00	8	Radiación solar	0
5505	7	Sololá	712	San Antonio Palopó	9	San Antonio Palopo	9	Septiembre	2023-05-09T00:00:00	2024-11-08T02:00:00	2	Temperatura media	18.7
5506	7	Sololá	712	San Antonio Palopó	9	San Antonio Palopo	9	Septiembre	2023-05-09T00:00:00	2024-11-08T02:00:00	4	Temperatura máxima	18.8
5507	7	Sololá	712	San Antonio Palopó	9	San Antonio Palopo	9	Septiembre	2023-05-09T00:00:00	2024-11-08T02:00:00	3	Temperatura mínima	18
5508	7	Sololá	712	San Antonio Palopó	9	San Antonio Palopo	9	Septiembre	2023-05-09T00:00:00	2024-11-08T02:00:00	5	Humedad	81
5509	7	Sololá	712	San Antonio Palopó	9	San Antonio Palopo	9	Septiembre	2023-05-09T00:00:00	2024-11-08T02:00:00	6	Velocidad del viento	3.2
5510	7	Sololá	712	San Antonio Palopó	9	San Antonio Palopo	9	Septiembre	2023-05-09T00:00:00	2024-11-08T02:00:00	7	Dirección del viento	3.22
5511	7	Sololá	712	San Antonio Palopó	9	San Antonio Palopo	9	Septiembre	2023-05-09T00:00:00	2024-11-08T02:00:00	1	Precipitación	0
5512	7	Sololá	712	San Antonio Palopó	9	San Antonio Palopo	9	Septiembre	2023-05-09T00:00:00	2024-11-08T02:00:00	8	Radiación solar	0
5513	7	Sololá	712	San Antonio Palopó	9	San Antonio Palopo	9	Septiembre	2023-05-09T00:00:00	2024-11-08T03:00:00	2	Temperatura media	18.2
5514	7	Sololá	712	San Antonio Palopó	9	San Antonio Palopo	9	Septiembre	2023-05-09T00:00:00	2024-11-08T03:00:00	4	Temperatura máxima	18.7
5515	7	Sololá	712	San Antonio Palopó	9	San Antonio Palopo	9	Septiembre	2023-05-09T00:00:00	2024-11-08T03:00:00	3	Temperatura mínima	18.2
5516	7	Sololá	712	San Antonio Palopó	9	San Antonio Palopo	9	Septiembre	2023-05-09T00:00:00	2024-11-08T03:00:00	5	Humedad	83
5517	7	Sololá	712	San Antonio Palopó	9	San Antonio Palopo	9	Septiembre	2023-05-09T00:00:00	2024-11-08T03:00:00	6	Velocidad del viento	4.8
5518	7	Sololá	712	San Antonio Palopó	9	San Antonio Palopo	9	Septiembre	2023-05-09T00:00:00	2024-11-08T03:00:00	7	Dirección del viento	4.83
5519	7	Sololá	712	San Antonio Palopó	9	San Antonio Palopo	9	Septiembre	2023-05-09T00:00:00	2024-11-08T03:00:00	1	Precipitación	0
5520	7	Sololá	712	San Antonio Palopó	9	San Antonio Palopo	9	Septiembre	2023-05-09T00:00:00	2024-11-08T03:00:00	8	Radiación solar	0
5521	7	Sololá	712	San Antonio Palopó	9	San Antonio Palopo	9	Septiembre	2023-05-09T00:00:00	2024-11-08T04:00:00	2	Temperatura media	18.2
5522	7	Sololá	712	San Antonio Palopó	9	San Antonio Palopo	9	Septiembre	2023-05-09T00:00:00	2024-11-08T04:00:00	4	Temperatura máxima	18.3
5523	7	Sololá	712	San Antonio Palopó	9	San Antonio Palopo	9	Septiembre	2023-05-09T00:00:00	2024-11-08T04:00:00	3	Temperatura mínima	17.9
5524	7	Sololá	712	San Antonio Palopó	9	San Antonio Palopo	9	Septiembre	2023-05-09T00:00:00	2024-11-08T04:00:00	5	Humedad	81
5525	7	Sololá	712	San Antonio Palopó	9	San Antonio Palopo	9	Septiembre	2023-05-09T00:00:00	2024-11-08T04:00:00	6	Velocidad del viento	4.8
5526	7	Sololá	712	San Antonio Palopó	9	San Antonio Palopo	9	Septiembre	2023-05-09T00:00:00	2024-11-08T04:00:00	7	Dirección del viento	4.83
5527	7	Sololá	712	San Antonio Palopó	9	San Antonio Palopo	9	Septiembre	2023-05-09T00:00:00	2024-11-08T04:00:00	1	Precipitación	0
5528	7	Sololá	712	San Antonio Palopó	9	San Antonio Palopo	9	Septiembre	2023-05-09T00:00:00	2024-11-08T04:00:00	8	Radiación solar	0
5529	7	Sololá	712	San Antonio Palopó	9	San Antonio Palopo	9	Septiembre	2023-05-09T00:00:00	2024-11-08T05:00:00	2	Temperatura media	17.3
5530	7	Sololá	712	San Antonio Palopó	9	San Antonio Palopo	9	Septiembre	2023-05-09T00:00:00	2024-11-08T05:00:00	4	Temperatura máxima	18.3
5531	7	Sololá	712	San Antonio Palopó	9	San Antonio Palopo	9	Septiembre	2023-05-09T00:00:00	2024-11-08T05:00:00	3	Temperatura mínima	17.2
5532	7	Sololá	712	San Antonio Palopó	9	San Antonio Palopo	9	Septiembre	2023-05-09T00:00:00	2024-11-08T05:00:00	5	Humedad	86
5533	7	Sololá	712	San Antonio Palopó	9	San Antonio Palopo	9	Septiembre	2023-05-09T00:00:00	2024-11-08T05:00:00	6	Velocidad del viento	3.2
5534	7	Sololá	712	San Antonio Palopó	9	San Antonio Palopo	9	Septiembre	2023-05-09T00:00:00	2024-11-08T05:00:00	7	Dirección del viento	3.22
5535	7	Sololá	712	San Antonio Palopó	9	San Antonio Palopo	9	Septiembre	2023-05-09T00:00:00	2024-11-08T05:00:00	1	Precipitación	0
5536	7	Sololá	712	San Antonio Palopó	9	San Antonio Palopo	9	Septiembre	2023-05-09T00:00:00	2024-11-08T05:00:00	8	Radiación solar	0
5537	7	Sololá	712	San Antonio Palopó	9	San Antonio Palopo	9	Septiembre	2023-05-09T00:00:00	2024-11-08T06:00:00	2	Temperatura media	17.6
5538	7	Sololá	712	San Antonio Palopó	9	San Antonio Palopo	9	Septiembre	2023-05-09T00:00:00	2024-11-08T06:00:00	4	Temperatura máxima	18.1
5539	7	Sololá	712	San Antonio Palopó	9	San Antonio Palopo	9	Septiembre	2023-05-09T00:00:00	2024-11-08T06:00:00	3	Temperatura mínima	17.3
5540	7	Sololá	712	San Antonio Palopó	9	San Antonio Palopo	9	Septiembre	2023-05-09T00:00:00	2024-11-08T06:00:00	5	Humedad	82
5541	7	Sololá	712	San Antonio Palopó	9	San Antonio Palopo	9	Septiembre	2023-05-09T00:00:00	2024-11-08T06:00:00	6	Velocidad del viento	3.2
5542	7	Sololá	712	San Antonio Palopó	9	San Antonio Palopo	9	Septiembre	2023-05-09T00:00:00	2024-11-08T06:00:00	7	Dirección del viento	3.22
5543	7	Sololá	712	San Antonio Palopó	9	San Antonio Palopo	9	Septiembre	2023-05-09T00:00:00	2024-11-08T06:00:00	1	Precipitación	0
5544	7	Sololá	712	San Antonio Palopó	9	San Antonio Palopo	9	Septiembre	2023-05-09T00:00:00	2024-11-08T06:00:00	8	Radiación solar	0
5545	7	Sololá	712	San Antonio Palopó	9	San Antonio Palopo	9	Septiembre	2023-05-09T00:00:00	2024-11-08T07:00:00	2	Temperatura media	18.3
5546	7	Sololá	712	San Antonio Palopó	9	San Antonio Palopo	9	Septiembre	2023-05-09T00:00:00	2024-11-08T07:00:00	4	Temperatura máxima	18.3
5547	7	Sololá	712	San Antonio Palopó	9	San Antonio Palopo	9	Septiembre	2023-05-09T00:00:00	2024-11-08T07:00:00	3	Temperatura mínima	17.4
5548	7	Sololá	712	San Antonio Palopó	9	San Antonio Palopo	9	Septiembre	2023-05-09T00:00:00	2024-11-08T07:00:00	5	Humedad	77
5549	7	Sololá	712	San Antonio Palopó	9	San Antonio Palopo	9	Septiembre	2023-05-09T00:00:00	2024-11-08T07:00:00	6	Velocidad del viento	4.8
5550	7	Sololá	712	San Antonio Palopó	9	San Antonio Palopo	9	Septiembre	2023-05-09T00:00:00	2024-11-08T07:00:00	7	Dirección del viento	4.83
5551	7	Sololá	712	San Antonio Palopó	9	San Antonio Palopo	9	Septiembre	2023-05-09T00:00:00	2024-11-08T07:00:00	1	Precipitación	0
5552	7	Sololá	712	San Antonio Palopó	9	San Antonio Palopo	9	Septiembre	2023-05-09T00:00:00	2024-11-08T07:00:00	8	Radiación solar	19
5553	7	Sololá	712	San Antonio Palopó	9	San Antonio Palopo	9	Septiembre	2023-05-09T00:00:00	2024-11-08T08:00:00	2	Temperatura media	20.6
5554	7	Sololá	712	San Antonio Palopó	9	San Antonio Palopo	9	Septiembre	2023-05-09T00:00:00	2024-11-08T08:00:00	4	Temperatura máxima	20.6
5555	7	Sololá	712	San Antonio Palopó	9	San Antonio Palopo	9	Septiembre	2023-05-09T00:00:00	2024-11-08T08:00:00	3	Temperatura mínima	18.3
5556	7	Sololá	712	San Antonio Palopó	9	San Antonio Palopo	9	Septiembre	2023-05-09T00:00:00	2024-11-08T08:00:00	5	Humedad	75
5557	7	Sololá	712	San Antonio Palopó	9	San Antonio Palopo	9	Septiembre	2023-05-09T00:00:00	2024-11-08T08:00:00	6	Velocidad del viento	3.2
5558	7	Sololá	712	San Antonio Palopó	9	San Antonio Palopo	9	Septiembre	2023-05-09T00:00:00	2024-11-08T08:00:00	7	Dirección del viento	3.22
5559	7	Sololá	712	San Antonio Palopó	9	San Antonio Palopo	9	Septiembre	2023-05-09T00:00:00	2024-11-08T08:00:00	1	Precipitación	0
5560	7	Sololá	712	San Antonio Palopó	9	San Antonio Palopo	9	Septiembre	2023-05-09T00:00:00	2024-11-08T08:00:00	8	Radiación solar	182
5561	7	Sololá	712	San Antonio Palopó	9	San Antonio Palopo	9	Septiembre	2023-05-09T00:00:00	2024-11-08T09:00:00	2	Temperatura media	21.2
5562	7	Sololá	712	San Antonio Palopó	9	San Antonio Palopo	9	Septiembre	2023-05-09T00:00:00	2024-11-08T09:00:00	4	Temperatura máxima	21.3
5563	7	Sololá	712	San Antonio Palopó	9	San Antonio Palopo	9	Septiembre	2023-05-09T00:00:00	2024-11-08T09:00:00	3	Temperatura mínima	20.6
5564	7	Sololá	712	San Antonio Palopó	9	San Antonio Palopo	9	Septiembre	2023-05-09T00:00:00	2024-11-08T09:00:00	5	Humedad	74
5565	7	Sololá	712	San Antonio Palopó	9	San Antonio Palopo	9	Septiembre	2023-05-09T00:00:00	2024-11-08T09:00:00	6	Velocidad del viento	3.2
5566	7	Sololá	712	San Antonio Palopó	9	San Antonio Palopo	9	Septiembre	2023-05-09T00:00:00	2024-11-08T09:00:00	7	Dirección del viento	3.22
5567	7	Sololá	712	San Antonio Palopó	9	San Antonio Palopo	9	Septiembre	2023-05-09T00:00:00	2024-11-08T09:00:00	1	Precipitación	0
5568	7	Sololá	712	San Antonio Palopó	9	San Antonio Palopo	9	Septiembre	2023-05-09T00:00:00	2024-11-08T09:00:00	8	Radiación solar	435
5569	7	Sololá	712	San Antonio Palopó	9	San Antonio Palopo	9	Septiembre	2023-05-09T00:00:00	2024-11-08T10:00:00	2	Temperatura media	20.9
5570	7	Sololá	712	San Antonio Palopó	9	San Antonio Palopo	9	Septiembre	2023-05-09T00:00:00	2024-11-08T10:00:00	4	Temperatura máxima	21.5
5571	7	Sololá	712	San Antonio Palopó	9	San Antonio Palopo	9	Septiembre	2023-05-09T00:00:00	2024-11-08T10:00:00	3	Temperatura mínima	20.7
5572	7	Sololá	712	San Antonio Palopó	9	San Antonio Palopo	9	Septiembre	2023-05-09T00:00:00	2024-11-08T10:00:00	5	Humedad	76
5573	7	Sololá	712	San Antonio Palopó	9	San Antonio Palopo	9	Septiembre	2023-05-09T00:00:00	2024-11-08T10:00:00	6	Velocidad del viento	1.6
5574	7	Sololá	712	San Antonio Palopó	9	San Antonio Palopo	9	Septiembre	2023-05-09T00:00:00	2024-11-08T10:00:00	7	Dirección del viento	1.61
5575	7	Sololá	712	San Antonio Palopó	9	San Antonio Palopo	9	Septiembre	2023-05-09T00:00:00	2024-11-08T10:00:00	1	Precipitación	0
5576	7	Sololá	712	San Antonio Palopó	9	San Antonio Palopo	9	Septiembre	2023-05-09T00:00:00	2024-11-08T10:00:00	8	Radiación solar	474
5577	7	Sololá	712	San Antonio Palopó	9	San Antonio Palopo	9	Septiembre	2023-05-09T00:00:00	2024-11-08T11:00:00	2	Temperatura media	23.4
5578	7	Sololá	712	San Antonio Palopó	9	San Antonio Palopo	9	Septiembre	2023-05-09T00:00:00	2024-11-08T11:00:00	4	Temperatura máxima	23.5
5579	7	Sololá	712	San Antonio Palopó	9	San Antonio Palopo	9	Septiembre	2023-05-09T00:00:00	2024-11-08T11:00:00	3	Temperatura mínima	20.9
5580	7	Sololá	712	San Antonio Palopó	9	San Antonio Palopo	9	Septiembre	2023-05-09T00:00:00	2024-11-08T11:00:00	5	Humedad	67
5581	7	Sololá	712	San Antonio Palopó	9	San Antonio Palopo	9	Septiembre	2023-05-09T00:00:00	2024-11-08T11:00:00	6	Velocidad del viento	4.8
5582	7	Sololá	712	San Antonio Palopó	9	San Antonio Palopo	9	Septiembre	2023-05-09T00:00:00	2024-11-08T11:00:00	7	Dirección del viento	4.83
5583	7	Sololá	712	San Antonio Palopó	9	San Antonio Palopo	9	Septiembre	2023-05-09T00:00:00	2024-11-08T11:00:00	1	Precipitación	0
5584	7	Sololá	712	San Antonio Palopó	9	San Antonio Palopo	9	Septiembre	2023-05-09T00:00:00	2024-11-08T11:00:00	8	Radiación solar	518
5585	7	Sololá	712	San Antonio Palopó	9	San Antonio Palopo	9	Septiembre	2023-05-09T00:00:00	2024-11-08T12:00:00	2	Temperatura media	21.2
5586	7	Sololá	712	San Antonio Palopó	9	San Antonio Palopo	9	Septiembre	2023-05-09T00:00:00	2024-11-08T12:00:00	4	Temperatura máxima	23.4
5587	7	Sololá	712	San Antonio Palopó	9	San Antonio Palopo	9	Septiembre	2023-05-09T00:00:00	2024-11-08T12:00:00	3	Temperatura mínima	21.1
5588	7	Sololá	712	San Antonio Palopó	9	San Antonio Palopo	9	Septiembre	2023-05-09T00:00:00	2024-11-08T12:00:00	5	Humedad	80
5589	7	Sololá	712	San Antonio Palopó	9	San Antonio Palopo	9	Septiembre	2023-05-09T00:00:00	2024-11-08T12:00:00	6	Velocidad del viento	6.4
5590	7	Sololá	712	San Antonio Palopó	9	San Antonio Palopo	9	Septiembre	2023-05-09T00:00:00	2024-11-08T12:00:00	7	Dirección del viento	6.44
5591	7	Sololá	712	San Antonio Palopó	9	San Antonio Palopo	9	Septiembre	2023-05-09T00:00:00	2024-11-08T12:00:00	1	Precipitación	0.2
5592	7	Sololá	712	San Antonio Palopó	9	San Antonio Palopo	9	Septiembre	2023-05-09T00:00:00	2024-11-08T12:00:00	8	Radiación solar	265
5593	7	Sololá	712	San Antonio Palopó	9	San Antonio Palopo	9	Septiembre	2023-05-09T00:00:00	2024-11-08T13:00:00	2	Temperatura media	22.8
5594	7	Sololá	712	San Antonio Palopó	9	San Antonio Palopo	9	Septiembre	2023-05-09T00:00:00	2024-11-08T13:00:00	4	Temperatura máxima	23.2
5595	7	Sololá	712	San Antonio Palopó	9	San Antonio Palopo	9	Septiembre	2023-05-09T00:00:00	2024-11-08T13:00:00	3	Temperatura mínima	21.2
5596	7	Sololá	712	San Antonio Palopó	9	San Antonio Palopo	9	Septiembre	2023-05-09T00:00:00	2024-11-08T13:00:00	5	Humedad	74
5597	7	Sololá	712	San Antonio Palopó	9	San Antonio Palopo	9	Septiembre	2023-05-09T00:00:00	2024-11-08T13:00:00	6	Velocidad del viento	4.8
5598	7	Sololá	712	San Antonio Palopó	9	San Antonio Palopo	9	Septiembre	2023-05-09T00:00:00	2024-11-08T13:00:00	7	Dirección del viento	4.83
5599	7	Sololá	712	San Antonio Palopó	9	San Antonio Palopo	9	Septiembre	2023-05-09T00:00:00	2024-11-08T13:00:00	1	Precipitación	0
5600	7	Sololá	712	San Antonio Palopó	9	San Antonio Palopo	9	Septiembre	2023-05-09T00:00:00	2024-11-08T13:00:00	8	Radiación solar	391
5601	7	Sololá	712	San Antonio Palopó	9	San Antonio Palopo	9	Septiembre	2023-05-09T00:00:00	2024-11-08T14:00:00	2	Temperatura media	21
5602	7	Sololá	712	San Antonio Palopó	9	San Antonio Palopo	9	Septiembre	2023-05-09T00:00:00	2024-11-08T14:00:00	4	Temperatura máxima	22.9
5603	7	Sololá	712	San Antonio Palopó	9	San Antonio Palopo	9	Septiembre	2023-05-09T00:00:00	2024-11-08T14:00:00	3	Temperatura mínima	21
5604	7	Sololá	712	San Antonio Palopó	9	San Antonio Palopo	9	Septiembre	2023-05-09T00:00:00	2024-11-08T14:00:00	5	Humedad	77
5605	7	Sololá	712	San Antonio Palopó	9	San Antonio Palopo	9	Septiembre	2023-05-09T00:00:00	2024-11-08T14:00:00	6	Velocidad del viento	6.4
5606	7	Sololá	712	San Antonio Palopó	9	San Antonio Palopo	9	Septiembre	2023-05-09T00:00:00	2024-11-08T14:00:00	7	Dirección del viento	6.44
5607	7	Sololá	712	San Antonio Palopó	9	San Antonio Palopo	9	Septiembre	2023-05-09T00:00:00	2024-11-08T14:00:00	1	Precipitación	0.6
5608	7	Sololá	712	San Antonio Palopó	9	San Antonio Palopo	9	Septiembre	2023-05-09T00:00:00	2024-11-08T14:00:00	8	Radiación solar	191
5609	7	Sololá	712	San Antonio Palopó	9	San Antonio Palopo	9	Septiembre	2023-05-09T00:00:00	2024-11-08T15:00:00	2	Temperatura media	19.1
5610	7	Sololá	712	San Antonio Palopó	9	San Antonio Palopo	9	Septiembre	2023-05-09T00:00:00	2024-11-08T15:00:00	4	Temperatura máxima	21.1
5611	7	Sololá	712	San Antonio Palopó	9	San Antonio Palopo	9	Septiembre	2023-05-09T00:00:00	2024-11-08T15:00:00	3	Temperatura mínima	19.1
5612	7	Sololá	712	San Antonio Palopó	9	San Antonio Palopo	9	Septiembre	2023-05-09T00:00:00	2024-11-08T15:00:00	5	Humedad	84
5613	7	Sololá	712	San Antonio Palopó	9	San Antonio Palopo	9	Septiembre	2023-05-09T00:00:00	2024-11-08T15:00:00	6	Velocidad del viento	3.2
5614	7	Sololá	712	San Antonio Palopó	9	San Antonio Palopo	9	Septiembre	2023-05-09T00:00:00	2024-11-08T15:00:00	7	Dirección del viento	3.22
5615	7	Sololá	712	San Antonio Palopó	9	San Antonio Palopo	9	Septiembre	2023-05-09T00:00:00	2024-11-08T15:00:00	1	Precipitación	1
5616	7	Sololá	712	San Antonio Palopó	9	San Antonio Palopo	9	Septiembre	2023-05-09T00:00:00	2024-11-08T15:00:00	8	Radiación solar	42
5617	7	Sololá	712	San Antonio Palopó	9	San Antonio Palopo	9	Septiembre	2023-05-09T00:00:00	2024-11-08T16:00:00	2	Temperatura media	18.4
5618	7	Sololá	712	San Antonio Palopó	9	San Antonio Palopo	9	Septiembre	2023-05-09T00:00:00	2024-11-08T16:00:00	4	Temperatura máxima	19.1
5619	7	Sololá	712	San Antonio Palopó	9	San Antonio Palopo	9	Septiembre	2023-05-09T00:00:00	2024-11-08T16:00:00	3	Temperatura mínima	18.2
5620	7	Sololá	712	San Antonio Palopó	9	San Antonio Palopo	9	Septiembre	2023-05-09T00:00:00	2024-11-08T16:00:00	5	Humedad	87
5621	7	Sololá	712	San Antonio Palopó	9	San Antonio Palopo	9	Septiembre	2023-05-09T00:00:00	2024-11-08T16:00:00	6	Velocidad del viento	3.2
5622	7	Sololá	712	San Antonio Palopó	9	San Antonio Palopo	9	Septiembre	2023-05-09T00:00:00	2024-11-08T16:00:00	7	Dirección del viento	3.22
5623	7	Sololá	712	San Antonio Palopó	9	San Antonio Palopo	9	Septiembre	2023-05-09T00:00:00	2024-11-08T16:00:00	1	Precipitación	0.8
5624	7	Sololá	712	San Antonio Palopó	9	San Antonio Palopo	9	Septiembre	2023-05-09T00:00:00	2024-11-08T16:00:00	8	Radiación solar	17
5625	7	Sololá	712	San Antonio Palopó	9	San Antonio Palopo	9	Septiembre	2023-05-09T00:00:00	2024-11-08T17:00:00	2	Temperatura media	18.6
5626	7	Sololá	712	San Antonio Palopó	9	San Antonio Palopo	9	Septiembre	2023-05-09T00:00:00	2024-11-08T17:00:00	4	Temperatura máxima	18.6
5627	7	Sololá	712	San Antonio Palopó	9	San Antonio Palopo	9	Septiembre	2023-05-09T00:00:00	2024-11-08T17:00:00	3	Temperatura mínima	18.2
5628	7	Sololá	712	San Antonio Palopó	9	San Antonio Palopo	9	Septiembre	2023-05-09T00:00:00	2024-11-08T17:00:00	5	Humedad	85
5629	7	Sololá	712	San Antonio Palopó	9	San Antonio Palopo	9	Septiembre	2023-05-09T00:00:00	2024-11-08T17:00:00	6	Velocidad del viento	1.6
5630	7	Sololá	712	San Antonio Palopó	9	San Antonio Palopo	9	Septiembre	2023-05-09T00:00:00	2024-11-08T17:00:00	7	Dirección del viento	1.61
5631	7	Sololá	712	San Antonio Palopó	9	San Antonio Palopo	9	Septiembre	2023-05-09T00:00:00	2024-11-08T17:00:00	1	Precipitación	0.2
5632	7	Sololá	712	San Antonio Palopó	9	San Antonio Palopo	9	Septiembre	2023-05-09T00:00:00	2024-11-08T17:00:00	8	Radiación solar	17
5633	7	Sololá	712	San Antonio Palopó	9	San Antonio Palopo	9	Septiembre	2023-05-09T00:00:00	2024-11-08T18:00:00	2	Temperatura media	18.2
5634	7	Sololá	712	San Antonio Palopó	9	San Antonio Palopo	9	Septiembre	2023-05-09T00:00:00	2024-11-08T18:00:00	4	Temperatura máxima	18.7
5635	7	Sololá	712	San Antonio Palopó	9	San Antonio Palopo	9	Septiembre	2023-05-09T00:00:00	2024-11-08T18:00:00	3	Temperatura mínima	18.2
5636	7	Sololá	712	San Antonio Palopó	9	San Antonio Palopo	9	Septiembre	2023-05-09T00:00:00	2024-11-08T18:00:00	5	Humedad	86
5637	7	Sololá	712	San Antonio Palopó	9	San Antonio Palopo	9	Septiembre	2023-05-09T00:00:00	2024-11-08T18:00:00	6	Velocidad del viento	1.6
5638	7	Sololá	712	San Antonio Palopó	9	San Antonio Palopo	9	Septiembre	2023-05-09T00:00:00	2024-11-08T18:00:00	7	Dirección del viento	1.61
5639	7	Sololá	712	San Antonio Palopó	9	San Antonio Palopo	9	Septiembre	2023-05-09T00:00:00	2024-11-08T18:00:00	1	Precipitación	0
5640	7	Sololá	712	San Antonio Palopó	9	San Antonio Palopo	9	Septiembre	2023-05-09T00:00:00	2024-11-08T18:00:00	8	Radiación solar	5
5641	7	Sololá	712	San Antonio Palopó	9	San Antonio Palopo	9	Septiembre	2023-05-09T00:00:00	2024-11-08T19:00:00	2	Temperatura media	18.2
5642	7	Sololá	712	San Antonio Palopó	9	San Antonio Palopo	9	Septiembre	2023-05-09T00:00:00	2024-11-08T19:00:00	4	Temperatura máxima	18.5
5643	7	Sololá	712	San Antonio Palopó	9	San Antonio Palopo	9	Septiembre	2023-05-09T00:00:00	2024-11-08T19:00:00	3	Temperatura mínima	17.8
5644	7	Sololá	712	San Antonio Palopó	9	San Antonio Palopo	9	Septiembre	2023-05-09T00:00:00	2024-11-08T19:00:00	5	Humedad	88
5645	7	Sololá	712	San Antonio Palopó	9	San Antonio Palopo	9	Septiembre	2023-05-09T00:00:00	2024-11-08T19:00:00	6	Velocidad del viento	3.2
5646	7	Sololá	712	San Antonio Palopó	9	San Antonio Palopo	9	Septiembre	2023-05-09T00:00:00	2024-11-08T19:00:00	7	Dirección del viento	3.22
5647	7	Sololá	712	San Antonio Palopó	9	San Antonio Palopo	9	Septiembre	2023-05-09T00:00:00	2024-11-08T19:00:00	1	Precipitación	0
5648	7	Sololá	712	San Antonio Palopó	9	San Antonio Palopo	9	Septiembre	2023-05-09T00:00:00	2024-11-08T19:00:00	8	Radiación solar	0
5649	7	Sololá	712	San Antonio Palopó	9	San Antonio Palopo	9	Septiembre	2023-05-09T00:00:00	2024-11-08T20:00:00	2	Temperatura media	17.9
5650	7	Sololá	712	San Antonio Palopó	9	San Antonio Palopo	9	Septiembre	2023-05-09T00:00:00	2024-11-08T20:00:00	4	Temperatura máxima	18.4
5651	7	Sololá	712	San Antonio Palopó	9	San Antonio Palopo	9	Septiembre	2023-05-09T00:00:00	2024-11-08T20:00:00	3	Temperatura mínima	17.9
5652	7	Sololá	712	San Antonio Palopó	9	San Antonio Palopo	9	Septiembre	2023-05-09T00:00:00	2024-11-08T20:00:00	5	Humedad	88
5653	7	Sololá	712	San Antonio Palopó	9	San Antonio Palopo	9	Septiembre	2023-05-09T00:00:00	2024-11-08T20:00:00	6	Velocidad del viento	3.2
5654	7	Sololá	712	San Antonio Palopó	9	San Antonio Palopo	9	Septiembre	2023-05-09T00:00:00	2024-11-08T20:00:00	7	Dirección del viento	3.22
5655	7	Sololá	712	San Antonio Palopó	9	San Antonio Palopo	9	Septiembre	2023-05-09T00:00:00	2024-11-08T20:00:00	1	Precipitación	0
5656	7	Sololá	712	San Antonio Palopó	9	San Antonio Palopo	9	Septiembre	2023-05-09T00:00:00	2024-11-08T20:00:00	8	Radiación solar	0
5657	7	Sololá	712	San Antonio Palopó	9	San Antonio Palopo	9	Septiembre	2023-05-09T00:00:00	2024-11-08T21:00:00	2	Temperatura media	20
5658	7	Sololá	712	San Antonio Palopó	9	San Antonio Palopo	9	Septiembre	2023-05-09T00:00:00	2024-11-08T21:00:00	4	Temperatura máxima	20.1
5659	7	Sololá	712	San Antonio Palopó	9	San Antonio Palopo	9	Septiembre	2023-05-09T00:00:00	2024-11-08T21:00:00	3	Temperatura mínima	17.9
5660	7	Sololá	712	San Antonio Palopó	9	San Antonio Palopo	9	Septiembre	2023-05-09T00:00:00	2024-11-08T21:00:00	5	Humedad	75
5661	7	Sololá	712	San Antonio Palopó	9	San Antonio Palopo	9	Septiembre	2023-05-09T00:00:00	2024-11-08T21:00:00	6	Velocidad del viento	6.4
5662	7	Sololá	712	San Antonio Palopó	9	San Antonio Palopo	9	Septiembre	2023-05-09T00:00:00	2024-11-08T21:00:00	7	Dirección del viento	6.44
5663	7	Sololá	712	San Antonio Palopó	9	San Antonio Palopo	9	Septiembre	2023-05-09T00:00:00	2024-11-08T21:00:00	1	Precipitación	0
5664	7	Sololá	712	San Antonio Palopó	9	San Antonio Palopo	9	Septiembre	2023-05-09T00:00:00	2024-11-08T21:00:00	8	Radiación solar	0
5665	7	Sololá	712	San Antonio Palopó	9	San Antonio Palopo	9	Septiembre	2023-05-09T00:00:00	2024-11-08T22:00:00	2	Temperatura media	20.1
5666	7	Sololá	712	San Antonio Palopó	9	San Antonio Palopo	9	Septiembre	2023-05-09T00:00:00	2024-11-08T22:00:00	4	Temperatura máxima	20.1
5667	7	Sololá	712	San Antonio Palopó	9	San Antonio Palopo	9	Septiembre	2023-05-09T00:00:00	2024-11-08T22:00:00	3	Temperatura mínima	19.7
5668	7	Sololá	712	San Antonio Palopó	9	San Antonio Palopo	9	Septiembre	2023-05-09T00:00:00	2024-11-08T22:00:00	5	Humedad	74
5669	7	Sololá	712	San Antonio Palopó	9	San Antonio Palopo	9	Septiembre	2023-05-09T00:00:00	2024-11-08T22:00:00	6	Velocidad del viento	11.3
5670	7	Sololá	712	San Antonio Palopó	9	San Antonio Palopo	9	Septiembre	2023-05-09T00:00:00	2024-11-08T22:00:00	7	Dirección del viento	11.27
5671	7	Sololá	712	San Antonio Palopó	9	San Antonio Palopo	9	Septiembre	2023-05-09T00:00:00	2024-11-08T22:00:00	1	Precipitación	0
5672	7	Sololá	712	San Antonio Palopó	9	San Antonio Palopo	9	Septiembre	2023-05-09T00:00:00	2024-11-08T22:00:00	8	Radiación solar	0
5673	7	Sololá	712	San Antonio Palopó	9	San Antonio Palopo	9	Septiembre	2023-05-09T00:00:00	2024-11-08T23:00:00	2	Temperatura media	19.6
5674	7	Sololá	712	San Antonio Palopó	9	San Antonio Palopo	9	Septiembre	2023-05-09T00:00:00	2024-11-08T23:00:00	4	Temperatura máxima	20.2
5675	7	Sololá	712	San Antonio Palopó	9	San Antonio Palopo	9	Septiembre	2023-05-09T00:00:00	2024-11-08T23:00:00	3	Temperatura mínima	19.6
5676	7	Sololá	712	San Antonio Palopó	9	San Antonio Palopo	9	Septiembre	2023-05-09T00:00:00	2024-11-08T23:00:00	5	Humedad	74
5677	7	Sololá	712	San Antonio Palopó	9	San Antonio Palopo	9	Septiembre	2023-05-09T00:00:00	2024-11-08T23:00:00	6	Velocidad del viento	9.7
5678	7	Sololá	712	San Antonio Palopó	9	San Antonio Palopo	9	Septiembre	2023-05-09T00:00:00	2024-11-08T23:00:00	7	Dirección del viento	9.66
5679	7	Sololá	712	San Antonio Palopó	9	San Antonio Palopo	9	Septiembre	2023-05-09T00:00:00	2024-11-08T23:00:00	1	Precipitación	0
5680	7	Sololá	712	San Antonio Palopó	9	San Antonio Palopo	9	Septiembre	2023-05-09T00:00:00	2024-11-08T23:00:00	8	Radiación solar	0
5681	7	Sololá	712	San Antonio Palopó	9	San Antonio Palopo	9	Septiembre	2023-06-09T00:00:00	2024-11-08T00:00:00	2	Temperatura media	19.8
5682	7	Sololá	712	San Antonio Palopó	9	San Antonio Palopo	9	Septiembre	2023-06-09T00:00:00	2024-11-08T00:00:00	4	Temperatura máxima	19.8
5683	7	Sololá	712	San Antonio Palopó	9	San Antonio Palopo	9	Septiembre	2023-06-09T00:00:00	2024-11-08T00:00:00	3	Temperatura mínima	19.6
5684	7	Sololá	712	San Antonio Palopó	9	San Antonio Palopo	9	Septiembre	2023-06-09T00:00:00	2024-11-08T00:00:00	5	Humedad	74
5685	7	Sololá	712	San Antonio Palopó	9	San Antonio Palopo	9	Septiembre	2023-06-09T00:00:00	2024-11-08T00:00:00	6	Velocidad del viento	9.7
5686	7	Sololá	712	San Antonio Palopó	9	San Antonio Palopo	9	Septiembre	2023-06-09T00:00:00	2024-11-08T00:00:00	7	Dirección del viento	9.66
5687	7	Sololá	712	San Antonio Palopó	9	San Antonio Palopo	9	Septiembre	2023-06-09T00:00:00	2024-11-08T00:00:00	1	Precipitación	0
5688	7	Sololá	712	San Antonio Palopó	9	San Antonio Palopo	9	Septiembre	2023-06-09T00:00:00	2024-11-08T00:00:00	8	Radiación solar	0
5689	7	Sololá	712	San Antonio Palopó	9	San Antonio Palopo	9	Septiembre	2023-06-09T00:00:00	2024-11-08T01:00:00	2	Temperatura media	19.6
5690	7	Sololá	712	San Antonio Palopó	9	San Antonio Palopo	9	Septiembre	2023-06-09T00:00:00	2024-11-08T01:00:00	4	Temperatura máxima	20.3
5691	7	Sololá	712	San Antonio Palopó	9	San Antonio Palopo	9	Septiembre	2023-06-09T00:00:00	2024-11-08T01:00:00	3	Temperatura mínima	19.6
5692	7	Sololá	712	San Antonio Palopó	9	San Antonio Palopo	9	Septiembre	2023-06-09T00:00:00	2024-11-08T01:00:00	5	Humedad	75
5693	7	Sololá	712	San Antonio Palopó	9	San Antonio Palopo	9	Septiembre	2023-06-09T00:00:00	2024-11-08T01:00:00	6	Velocidad del viento	8
5694	7	Sololá	712	San Antonio Palopó	9	San Antonio Palopo	9	Septiembre	2023-06-09T00:00:00	2024-11-08T01:00:00	7	Dirección del viento	8.05
5695	7	Sololá	712	San Antonio Palopó	9	San Antonio Palopo	9	Septiembre	2023-06-09T00:00:00	2024-11-08T01:00:00	1	Precipitación	0
5696	7	Sololá	712	San Antonio Palopó	9	San Antonio Palopo	9	Septiembre	2023-06-09T00:00:00	2024-11-08T01:00:00	8	Radiación solar	0
5697	7	Sololá	712	San Antonio Palopó	9	San Antonio Palopo	9	Septiembre	2023-06-09T00:00:00	2024-11-08T02:00:00	2	Temperatura media	19.6
5698	7	Sololá	712	San Antonio Palopó	9	San Antonio Palopo	9	Septiembre	2023-06-09T00:00:00	2024-11-08T02:00:00	4	Temperatura máxima	19.9
5699	7	Sololá	712	San Antonio Palopó	9	San Antonio Palopo	9	Septiembre	2023-06-09T00:00:00	2024-11-08T02:00:00	3	Temperatura mínima	19.6
5700	7	Sololá	712	San Antonio Palopó	9	San Antonio Palopo	9	Septiembre	2023-06-09T00:00:00	2024-11-08T02:00:00	5	Humedad	75
5701	7	Sololá	712	San Antonio Palopó	9	San Antonio Palopo	9	Septiembre	2023-06-09T00:00:00	2024-11-08T02:00:00	6	Velocidad del viento	4.8
5702	7	Sololá	712	San Antonio Palopó	9	San Antonio Palopo	9	Septiembre	2023-06-09T00:00:00	2024-11-08T02:00:00	7	Dirección del viento	4.83
5703	7	Sololá	712	San Antonio Palopó	9	San Antonio Palopo	9	Septiembre	2023-06-09T00:00:00	2024-11-08T02:00:00	1	Precipitación	0
5704	7	Sololá	712	San Antonio Palopó	9	San Antonio Palopo	9	Septiembre	2023-06-09T00:00:00	2024-11-08T02:00:00	8	Radiación solar	0
5705	7	Sololá	712	San Antonio Palopó	9	San Antonio Palopo	9	Septiembre	2023-06-09T00:00:00	2024-11-08T03:00:00	2	Temperatura media	19.7
5706	7	Sololá	712	San Antonio Palopó	9	San Antonio Palopo	9	Septiembre	2023-06-09T00:00:00	2024-11-08T03:00:00	4	Temperatura máxima	19.7
5707	7	Sololá	712	San Antonio Palopó	9	San Antonio Palopo	9	Septiembre	2023-06-09T00:00:00	2024-11-08T03:00:00	3	Temperatura mínima	18.9
5708	7	Sololá	712	San Antonio Palopó	9	San Antonio Palopo	9	Septiembre	2023-06-09T00:00:00	2024-11-08T03:00:00	5	Humedad	73
5709	7	Sololá	712	San Antonio Palopó	9	San Antonio Palopo	9	Septiembre	2023-06-09T00:00:00	2024-11-08T03:00:00	6	Velocidad del viento	6.4
5710	7	Sololá	712	San Antonio Palopó	9	San Antonio Palopo	9	Septiembre	2023-06-09T00:00:00	2024-11-08T03:00:00	7	Dirección del viento	6.44
5711	7	Sololá	712	San Antonio Palopó	9	San Antonio Palopo	9	Septiembre	2023-06-09T00:00:00	2024-11-08T03:00:00	1	Precipitación	0
5712	7	Sololá	712	San Antonio Palopó	9	San Antonio Palopo	9	Septiembre	2023-06-09T00:00:00	2024-11-08T03:00:00	8	Radiación solar	0
5713	7	Sololá	712	San Antonio Palopó	9	San Antonio Palopo	9	Septiembre	2023-06-09T00:00:00	2024-11-08T04:00:00	2	Temperatura media	19.6
5714	7	Sololá	712	San Antonio Palopó	9	San Antonio Palopo	9	Septiembre	2023-06-09T00:00:00	2024-11-08T04:00:00	4	Temperatura máxima	19.8
5715	7	Sololá	712	San Antonio Palopó	9	San Antonio Palopo	9	Septiembre	2023-06-09T00:00:00	2024-11-08T04:00:00	3	Temperatura mínima	19.3
5716	7	Sololá	712	San Antonio Palopó	9	San Antonio Palopo	9	Septiembre	2023-06-09T00:00:00	2024-11-08T04:00:00	5	Humedad	73
5717	7	Sololá	712	San Antonio Palopó	9	San Antonio Palopo	9	Septiembre	2023-06-09T00:00:00	2024-11-08T04:00:00	6	Velocidad del viento	11.3
5718	7	Sololá	712	San Antonio Palopó	9	San Antonio Palopo	9	Septiembre	2023-06-09T00:00:00	2024-11-08T04:00:00	7	Dirección del viento	11.27
5719	7	Sololá	712	San Antonio Palopó	9	San Antonio Palopo	9	Septiembre	2023-06-09T00:00:00	2024-11-08T04:00:00	1	Precipitación	0
5720	7	Sololá	712	San Antonio Palopó	9	San Antonio Palopo	9	Septiembre	2023-06-09T00:00:00	2024-11-08T04:00:00	8	Radiación solar	0
5721	7	Sololá	712	San Antonio Palopó	9	San Antonio Palopo	9	Septiembre	2023-06-09T00:00:00	2024-11-08T05:00:00	2	Temperatura media	18.5
5722	7	Sololá	712	San Antonio Palopó	9	San Antonio Palopo	9	Septiembre	2023-06-09T00:00:00	2024-11-08T05:00:00	4	Temperatura máxima	19.7
5723	7	Sololá	712	San Antonio Palopó	9	San Antonio Palopo	9	Septiembre	2023-06-09T00:00:00	2024-11-08T05:00:00	3	Temperatura mínima	18.5
5724	7	Sololá	712	San Antonio Palopó	9	San Antonio Palopo	9	Septiembre	2023-06-09T00:00:00	2024-11-08T05:00:00	5	Humedad	78
5725	7	Sololá	712	San Antonio Palopó	9	San Antonio Palopo	9	Septiembre	2023-06-09T00:00:00	2024-11-08T05:00:00	6	Velocidad del viento	4.8
5726	7	Sololá	712	San Antonio Palopó	9	San Antonio Palopo	9	Septiembre	2023-06-09T00:00:00	2024-11-08T05:00:00	7	Dirección del viento	4.83
5727	7	Sololá	712	San Antonio Palopó	9	San Antonio Palopo	9	Septiembre	2023-06-09T00:00:00	2024-11-08T05:00:00	1	Precipitación	0
5728	7	Sololá	712	San Antonio Palopó	9	San Antonio Palopo	9	Septiembre	2023-06-09T00:00:00	2024-11-08T05:00:00	8	Radiación solar	0
5729	7	Sololá	712	San Antonio Palopó	9	San Antonio Palopo	9	Septiembre	2023-06-09T00:00:00	2024-11-08T06:00:00	2	Temperatura media	19.3
5730	7	Sololá	712	San Antonio Palopó	9	San Antonio Palopo	9	Septiembre	2023-06-09T00:00:00	2024-11-08T06:00:00	4	Temperatura máxima	19.3
5731	7	Sololá	712	San Antonio Palopó	9	San Antonio Palopo	9	Septiembre	2023-06-09T00:00:00	2024-11-08T06:00:00	3	Temperatura mínima	18.4
5732	7	Sololá	712	San Antonio Palopó	9	San Antonio Palopo	9	Septiembre	2023-06-09T00:00:00	2024-11-08T06:00:00	5	Humedad	74
5733	7	Sololá	712	San Antonio Palopó	9	San Antonio Palopo	9	Septiembre	2023-06-09T00:00:00	2024-11-08T06:00:00	6	Velocidad del viento	6.4
5734	7	Sololá	712	San Antonio Palopó	9	San Antonio Palopo	9	Septiembre	2023-06-09T00:00:00	2024-11-08T06:00:00	7	Dirección del viento	6.44
5735	7	Sololá	712	San Antonio Palopó	9	San Antonio Palopo	9	Septiembre	2023-06-09T00:00:00	2024-11-08T06:00:00	1	Precipitación	0
5736	7	Sololá	712	San Antonio Palopó	9	San Antonio Palopo	9	Septiembre	2023-06-09T00:00:00	2024-11-08T06:00:00	8	Radiación solar	0
5737	7	Sololá	712	San Antonio Palopó	9	San Antonio Palopo	9	Septiembre	2023-06-09T00:00:00	2024-11-08T07:00:00	2	Temperatura media	19.6
5738	7	Sololá	712	San Antonio Palopó	9	San Antonio Palopo	9	Septiembre	2023-06-09T00:00:00	2024-11-08T07:00:00	4	Temperatura máxima	19.6
5739	7	Sololá	712	San Antonio Palopó	9	San Antonio Palopo	9	Septiembre	2023-06-09T00:00:00	2024-11-08T07:00:00	3	Temperatura mínima	19.3
5740	7	Sololá	712	San Antonio Palopó	9	San Antonio Palopo	9	Septiembre	2023-06-09T00:00:00	2024-11-08T07:00:00	5	Humedad	73
5741	7	Sololá	712	San Antonio Palopó	9	San Antonio Palopo	9	Septiembre	2023-06-09T00:00:00	2024-11-08T07:00:00	6	Velocidad del viento	8
5742	7	Sololá	712	San Antonio Palopó	9	San Antonio Palopo	9	Septiembre	2023-06-09T00:00:00	2024-11-08T07:00:00	7	Dirección del viento	8.05
5743	7	Sololá	712	San Antonio Palopó	9	San Antonio Palopo	9	Septiembre	2023-06-09T00:00:00	2024-11-08T07:00:00	1	Precipitación	0
5744	7	Sololá	712	San Antonio Palopó	9	San Antonio Palopo	9	Septiembre	2023-06-09T00:00:00	2024-11-08T07:00:00	8	Radiación solar	44
5745	7	Sololá	712	San Antonio Palopó	9	San Antonio Palopo	9	Septiembre	2023-06-09T00:00:00	2024-11-08T08:00:00	2	Temperatura media	20.8
5746	7	Sololá	712	San Antonio Palopó	9	San Antonio Palopo	9	Septiembre	2023-06-09T00:00:00	2024-11-08T08:00:00	4	Temperatura máxima	20.8
5747	7	Sololá	712	San Antonio Palopó	9	San Antonio Palopo	9	Septiembre	2023-06-09T00:00:00	2024-11-08T08:00:00	3	Temperatura mínima	19.7
5748	7	Sololá	712	San Antonio Palopó	9	San Antonio Palopo	9	Septiembre	2023-06-09T00:00:00	2024-11-08T08:00:00	5	Humedad	69
5749	7	Sololá	712	San Antonio Palopó	9	San Antonio Palopo	9	Septiembre	2023-06-09T00:00:00	2024-11-08T08:00:00	6	Velocidad del viento	6.4
5750	7	Sololá	712	San Antonio Palopó	9	San Antonio Palopo	9	Septiembre	2023-06-09T00:00:00	2024-11-08T08:00:00	7	Dirección del viento	6.44
5751	7	Sololá	712	San Antonio Palopó	9	San Antonio Palopo	9	Septiembre	2023-06-09T00:00:00	2024-11-08T08:00:00	1	Precipitación	0
5752	7	Sololá	712	San Antonio Palopó	9	San Antonio Palopo	9	Septiembre	2023-06-09T00:00:00	2024-11-08T08:00:00	8	Radiación solar	154
5753	7	Sololá	712	San Antonio Palopó	9	San Antonio Palopo	9	Septiembre	2023-06-09T00:00:00	2024-11-08T09:00:00	2	Temperatura media	22.9
5754	7	Sololá	712	San Antonio Palopó	9	San Antonio Palopo	9	Septiembre	2023-06-09T00:00:00	2024-11-08T09:00:00	4	Temperatura máxima	22.9
5755	7	Sololá	712	San Antonio Palopó	9	San Antonio Palopo	9	Septiembre	2023-06-09T00:00:00	2024-11-08T09:00:00	3	Temperatura mínima	20.8
5756	7	Sololá	712	San Antonio Palopó	9	San Antonio Palopo	9	Septiembre	2023-06-09T00:00:00	2024-11-08T09:00:00	5	Humedad	64
5757	7	Sololá	712	San Antonio Palopó	9	San Antonio Palopo	9	Septiembre	2023-06-09T00:00:00	2024-11-08T09:00:00	6	Velocidad del viento	8
5758	7	Sololá	712	San Antonio Palopó	9	San Antonio Palopo	9	Septiembre	2023-06-09T00:00:00	2024-11-08T09:00:00	7	Dirección del viento	8.05
5759	7	Sololá	712	San Antonio Palopó	9	San Antonio Palopo	9	Septiembre	2023-06-09T00:00:00	2024-11-08T09:00:00	1	Precipitación	0
5760	7	Sololá	712	San Antonio Palopó	9	San Antonio Palopo	9	Septiembre	2023-06-09T00:00:00	2024-11-08T09:00:00	8	Radiación solar	331
5761	7	Sololá	712	San Antonio Palopó	9	San Antonio Palopo	9	Septiembre	2023-06-09T00:00:00	2024-11-08T10:00:00	2	Temperatura media	21.7
5762	7	Sololá	712	San Antonio Palopó	9	San Antonio Palopo	9	Septiembre	2023-06-09T00:00:00	2024-11-08T10:00:00	4	Temperatura máxima	23
5763	7	Sololá	712	San Antonio Palopó	9	San Antonio Palopo	9	Septiembre	2023-06-09T00:00:00	2024-11-08T10:00:00	3	Temperatura mínima	21.4
5764	7	Sololá	712	San Antonio Palopó	9	San Antonio Palopo	9	Septiembre	2023-06-09T00:00:00	2024-11-08T10:00:00	5	Humedad	68
5765	7	Sololá	712	San Antonio Palopó	9	San Antonio Palopo	9	Septiembre	2023-06-09T00:00:00	2024-11-08T10:00:00	6	Velocidad del viento	4.8
5766	7	Sololá	712	San Antonio Palopó	9	San Antonio Palopo	9	Septiembre	2023-06-09T00:00:00	2024-11-08T10:00:00	7	Dirección del viento	4.83
5767	7	Sololá	712	San Antonio Palopó	9	San Antonio Palopo	9	Septiembre	2023-06-09T00:00:00	2024-11-08T10:00:00	1	Precipitación	0
5768	7	Sololá	712	San Antonio Palopó	9	San Antonio Palopo	9	Septiembre	2023-06-09T00:00:00	2024-11-08T10:00:00	8	Radiación solar	269
5769	7	Sololá	712	San Antonio Palopó	9	San Antonio Palopo	9	Septiembre	2023-06-09T00:00:00	2024-11-08T11:00:00	2	Temperatura media	22.6
5770	7	Sololá	712	San Antonio Palopó	9	San Antonio Palopo	9	Septiembre	2023-06-09T00:00:00	2024-11-08T11:00:00	4	Temperatura máxima	23.1
5771	7	Sololá	712	San Antonio Palopó	9	San Antonio Palopo	9	Septiembre	2023-06-09T00:00:00	2024-11-08T11:00:00	3	Temperatura mínima	21.7
5772	7	Sololá	712	San Antonio Palopó	9	San Antonio Palopo	9	Septiembre	2023-06-09T00:00:00	2024-11-08T11:00:00	5	Humedad	67
5773	7	Sololá	712	San Antonio Palopó	9	San Antonio Palopo	9	Septiembre	2023-06-09T00:00:00	2024-11-08T11:00:00	6	Velocidad del viento	3.2
5774	7	Sololá	712	San Antonio Palopó	9	San Antonio Palopo	9	Septiembre	2023-06-09T00:00:00	2024-11-08T11:00:00	7	Dirección del viento	3.22
5775	7	Sololá	712	San Antonio Palopó	9	San Antonio Palopo	9	Septiembre	2023-06-09T00:00:00	2024-11-08T11:00:00	1	Precipitación	0
5776	7	Sololá	712	San Antonio Palopó	9	San Antonio Palopo	9	Septiembre	2023-06-09T00:00:00	2024-11-08T11:00:00	8	Radiación solar	401
5777	7	Sololá	712	San Antonio Palopó	9	San Antonio Palopo	9	Septiembre	2023-06-09T00:00:00	2024-11-08T12:00:00	2	Temperatura media	23.3
5778	7	Sololá	712	San Antonio Palopó	9	San Antonio Palopo	9	Septiembre	2023-06-09T00:00:00	2024-11-08T12:00:00	4	Temperatura máxima	23.3
5779	7	Sololá	712	San Antonio Palopó	9	San Antonio Palopo	9	Septiembre	2023-06-09T00:00:00	2024-11-08T12:00:00	3	Temperatura mínima	22.5
5780	7	Sololá	712	San Antonio Palopó	9	San Antonio Palopo	9	Septiembre	2023-06-09T00:00:00	2024-11-08T12:00:00	5	Humedad	67
5781	7	Sololá	712	San Antonio Palopó	9	San Antonio Palopo	9	Septiembre	2023-06-09T00:00:00	2024-11-08T12:00:00	6	Velocidad del viento	3.2
5782	7	Sololá	712	San Antonio Palopó	9	San Antonio Palopo	9	Septiembre	2023-06-09T00:00:00	2024-11-08T12:00:00	7	Dirección del viento	3.22
5783	7	Sololá	712	San Antonio Palopó	9	San Antonio Palopo	9	Septiembre	2023-06-09T00:00:00	2024-11-08T12:00:00	1	Precipitación	0
5784	7	Sololá	712	San Antonio Palopó	9	San Antonio Palopo	9	Septiembre	2023-06-09T00:00:00	2024-11-08T12:00:00	8	Radiación solar	533
5785	7	Sololá	712	San Antonio Palopó	9	San Antonio Palopo	9	Septiembre	2023-06-09T00:00:00	2024-11-08T13:00:00	2	Temperatura media	24.1
5786	7	Sololá	712	San Antonio Palopó	9	San Antonio Palopo	9	Septiembre	2023-06-09T00:00:00	2024-11-08T13:00:00	4	Temperatura máxima	24.1
5787	7	Sololá	712	San Antonio Palopó	9	San Antonio Palopo	9	Septiembre	2023-06-09T00:00:00	2024-11-08T13:00:00	3	Temperatura mínima	23.3
5788	7	Sololá	712	San Antonio Palopó	9	San Antonio Palopo	9	Septiembre	2023-06-09T00:00:00	2024-11-08T13:00:00	5	Humedad	67
5789	7	Sololá	712	San Antonio Palopó	9	San Antonio Palopo	9	Septiembre	2023-06-09T00:00:00	2024-11-08T13:00:00	6	Velocidad del viento	3.2
5790	7	Sololá	712	San Antonio Palopó	9	San Antonio Palopo	9	Septiembre	2023-06-09T00:00:00	2024-11-08T13:00:00	7	Dirección del viento	3.22
5791	7	Sololá	712	San Antonio Palopó	9	San Antonio Palopo	9	Septiembre	2023-06-09T00:00:00	2024-11-08T13:00:00	1	Precipitación	0
5792	7	Sololá	712	San Antonio Palopó	9	San Antonio Palopo	9	Septiembre	2023-06-09T00:00:00	2024-11-08T13:00:00	8	Radiación solar	670
5793	7	Sololá	712	San Antonio Palopó	9	San Antonio Palopo	9	Septiembre	2023-06-09T00:00:00	2024-11-08T14:00:00	2	Temperatura media	23.6
5794	7	Sololá	712	San Antonio Palopó	9	San Antonio Palopo	9	Septiembre	2023-06-09T00:00:00	2024-11-08T14:00:00	4	Temperatura máxima	24.3
5795	7	Sololá	712	San Antonio Palopó	9	San Antonio Palopo	9	Septiembre	2023-06-09T00:00:00	2024-11-08T14:00:00	3	Temperatura mínima	23.1
5796	7	Sololá	712	San Antonio Palopó	9	San Antonio Palopo	9	Septiembre	2023-06-09T00:00:00	2024-11-08T14:00:00	5	Humedad	72
5797	7	Sololá	712	San Antonio Palopó	9	San Antonio Palopo	9	Septiembre	2023-06-09T00:00:00	2024-11-08T14:00:00	6	Velocidad del viento	3.2
5798	7	Sololá	712	San Antonio Palopó	9	San Antonio Palopo	9	Septiembre	2023-06-09T00:00:00	2024-11-08T14:00:00	7	Dirección del viento	3.22
5799	7	Sololá	712	San Antonio Palopó	9	San Antonio Palopo	9	Septiembre	2023-06-09T00:00:00	2024-11-08T14:00:00	1	Precipitación	0
5800	7	Sololá	712	San Antonio Palopó	9	San Antonio Palopo	9	Septiembre	2023-06-09T00:00:00	2024-11-08T14:00:00	8	Radiación solar	364
5801	7	Sololá	712	San Antonio Palopó	9	San Antonio Palopo	9	Septiembre	2023-06-09T00:00:00	2024-11-08T15:00:00	2	Temperatura media	24.8
5802	7	Sololá	712	San Antonio Palopó	9	San Antonio Palopo	9	Septiembre	2023-06-09T00:00:00	2024-11-08T15:00:00	4	Temperatura máxima	25.2
5803	7	Sololá	712	San Antonio Palopó	9	San Antonio Palopo	9	Septiembre	2023-06-09T00:00:00	2024-11-08T15:00:00	3	Temperatura mínima	23.4
5804	7	Sololá	712	San Antonio Palopó	9	San Antonio Palopo	9	Septiembre	2023-06-09T00:00:00	2024-11-08T15:00:00	5	Humedad	69
5805	7	Sololá	712	San Antonio Palopó	9	San Antonio Palopo	9	Septiembre	2023-06-09T00:00:00	2024-11-08T15:00:00	6	Velocidad del viento	6.4
5806	7	Sololá	712	San Antonio Palopó	9	San Antonio Palopo	9	Septiembre	2023-06-09T00:00:00	2024-11-08T15:00:00	7	Dirección del viento	6.44
5807	7	Sololá	712	San Antonio Palopó	9	San Antonio Palopo	9	Septiembre	2023-06-09T00:00:00	2024-11-08T15:00:00	1	Precipitación	0
5808	7	Sololá	712	San Antonio Palopó	9	San Antonio Palopo	9	Septiembre	2023-06-09T00:00:00	2024-11-08T15:00:00	8	Radiación solar	510
5809	7	Sololá	712	San Antonio Palopó	9	San Antonio Palopo	9	Septiembre	2023-06-09T00:00:00	2024-11-08T16:00:00	2	Temperatura media	23.1
5810	7	Sololá	712	San Antonio Palopó	9	San Antonio Palopo	9	Septiembre	2023-06-09T00:00:00	2024-11-08T16:00:00	4	Temperatura máxima	24.8
5811	7	Sololá	712	San Antonio Palopó	9	San Antonio Palopo	9	Septiembre	2023-06-09T00:00:00	2024-11-08T16:00:00	3	Temperatura mínima	23.1
5812	7	Sololá	712	San Antonio Palopó	9	San Antonio Palopo	9	Septiembre	2023-06-09T00:00:00	2024-11-08T16:00:00	5	Humedad	76
5813	7	Sololá	712	San Antonio Palopó	9	San Antonio Palopo	9	Septiembre	2023-06-09T00:00:00	2024-11-08T16:00:00	6	Velocidad del viento	9.7
5814	7	Sololá	712	San Antonio Palopó	9	San Antonio Palopo	9	Septiembre	2023-06-09T00:00:00	2024-11-08T16:00:00	7	Dirección del viento	9.66
5815	7	Sololá	712	San Antonio Palopó	9	San Antonio Palopo	9	Septiembre	2023-06-09T00:00:00	2024-11-08T16:00:00	1	Precipitación	0
5816	7	Sololá	712	San Antonio Palopó	9	San Antonio Palopo	9	Septiembre	2023-06-09T00:00:00	2024-11-08T16:00:00	8	Radiación solar	414
5817	7	Sololá	712	San Antonio Palopó	9	San Antonio Palopo	9	Septiembre	2023-06-09T00:00:00	2024-11-08T17:00:00	2	Temperatura media	24.2
5818	7	Sololá	712	San Antonio Palopó	9	San Antonio Palopo	9	Septiembre	2023-06-09T00:00:00	2024-11-08T17:00:00	4	Temperatura máxima	24.7
5819	7	Sololá	712	San Antonio Palopó	9	San Antonio Palopo	9	Septiembre	2023-06-09T00:00:00	2024-11-08T17:00:00	3	Temperatura mínima	23.1
5820	7	Sololá	712	San Antonio Palopó	9	San Antonio Palopo	9	Septiembre	2023-06-09T00:00:00	2024-11-08T17:00:00	5	Humedad	73
5821	7	Sololá	712	San Antonio Palopó	9	San Antonio Palopo	9	Septiembre	2023-06-09T00:00:00	2024-11-08T17:00:00	6	Velocidad del viento	11.3
5822	7	Sololá	712	San Antonio Palopó	9	San Antonio Palopo	9	Septiembre	2023-06-09T00:00:00	2024-11-08T17:00:00	7	Dirección del viento	11.27
5823	7	Sololá	712	San Antonio Palopó	9	San Antonio Palopo	9	Septiembre	2023-06-09T00:00:00	2024-11-08T17:00:00	1	Precipitación	0
5824	7	Sololá	712	San Antonio Palopó	9	San Antonio Palopo	9	Septiembre	2023-06-09T00:00:00	2024-11-08T17:00:00	8	Radiación solar	396
5825	7	Sololá	712	San Antonio Palopó	9	San Antonio Palopo	9	Septiembre	2023-06-09T00:00:00	2024-11-08T18:00:00	2	Temperatura media	22.3
5826	7	Sololá	712	San Antonio Palopó	9	San Antonio Palopo	9	Septiembre	2023-06-09T00:00:00	2024-11-08T18:00:00	4	Temperatura máxima	24.2
5827	7	Sololá	712	San Antonio Palopó	9	San Antonio Palopo	9	Septiembre	2023-06-09T00:00:00	2024-11-08T18:00:00	3	Temperatura mínima	22.2
5828	7	Sololá	712	San Antonio Palopó	9	San Antonio Palopo	9	Septiembre	2023-06-09T00:00:00	2024-11-08T18:00:00	5	Humedad	79
5829	7	Sololá	712	San Antonio Palopó	9	San Antonio Palopo	9	Septiembre	2023-06-09T00:00:00	2024-11-08T18:00:00	6	Velocidad del viento	4.8
5830	7	Sololá	712	San Antonio Palopó	9	San Antonio Palopo	9	Septiembre	2023-06-09T00:00:00	2024-11-08T18:00:00	7	Dirección del viento	4.83
5831	7	Sololá	712	San Antonio Palopó	9	San Antonio Palopo	9	Septiembre	2023-06-09T00:00:00	2024-11-08T18:00:00	1	Precipitación	0
5832	7	Sololá	712	San Antonio Palopó	9	San Antonio Palopo	9	Septiembre	2023-06-09T00:00:00	2024-11-08T18:00:00	8	Radiación solar	114
5833	7	Sololá	712	San Antonio Palopó	9	San Antonio Palopo	9	Septiembre	2023-06-09T00:00:00	2024-11-08T19:00:00	2	Temperatura media	20.9
5834	7	Sololá	712	San Antonio Palopó	9	San Antonio Palopo	9	Septiembre	2023-06-09T00:00:00	2024-11-08T19:00:00	4	Temperatura máxima	22.2
5835	7	Sololá	712	San Antonio Palopó	9	San Antonio Palopo	9	Septiembre	2023-06-09T00:00:00	2024-11-08T19:00:00	3	Temperatura mínima	20.9
5836	7	Sololá	712	San Antonio Palopó	9	San Antonio Palopo	9	Septiembre	2023-06-09T00:00:00	2024-11-08T19:00:00	5	Humedad	82
5837	7	Sololá	712	San Antonio Palopó	9	San Antonio Palopo	9	Septiembre	2023-06-09T00:00:00	2024-11-08T19:00:00	6	Velocidad del viento	1.6
5838	7	Sololá	712	San Antonio Palopó	9	San Antonio Palopo	9	Septiembre	2023-06-09T00:00:00	2024-11-08T19:00:00	7	Dirección del viento	1.61
5839	7	Sololá	712	San Antonio Palopó	9	San Antonio Palopo	9	Septiembre	2023-06-09T00:00:00	2024-11-08T19:00:00	1	Precipitación	0
5840	7	Sololá	712	San Antonio Palopó	9	San Antonio Palopo	9	Septiembre	2023-06-09T00:00:00	2024-11-08T19:00:00	8	Radiación solar	0
5841	7	Sololá	712	San Antonio Palopó	9	San Antonio Palopo	9	Septiembre	2023-06-09T00:00:00	2024-11-08T20:00:00	2	Temperatura media	20.8
5842	7	Sololá	712	San Antonio Palopó	9	San Antonio Palopo	9	Septiembre	2023-06-09T00:00:00	2024-11-08T20:00:00	4	Temperatura máxima	21.1
5843	7	Sololá	712	San Antonio Palopó	9	San Antonio Palopo	9	Septiembre	2023-06-09T00:00:00	2024-11-08T20:00:00	3	Temperatura mínima	20.7
5844	7	Sololá	712	San Antonio Palopó	9	San Antonio Palopo	9	Septiembre	2023-06-09T00:00:00	2024-11-08T20:00:00	5	Humedad	84
5845	7	Sololá	712	San Antonio Palopó	9	San Antonio Palopo	9	Septiembre	2023-06-09T00:00:00	2024-11-08T20:00:00	6	Velocidad del viento	3.2
5846	7	Sololá	712	San Antonio Palopó	9	San Antonio Palopo	9	Septiembre	2023-06-09T00:00:00	2024-11-08T20:00:00	7	Dirección del viento	3.22
5847	7	Sololá	712	San Antonio Palopó	9	San Antonio Palopo	9	Septiembre	2023-06-09T00:00:00	2024-11-08T20:00:00	1	Precipitación	0
5848	7	Sololá	712	San Antonio Palopó	9	San Antonio Palopo	9	Septiembre	2023-06-09T00:00:00	2024-11-08T20:00:00	8	Radiación solar	0
5849	7	Sololá	712	San Antonio Palopó	9	San Antonio Palopo	9	Septiembre	2023-06-09T00:00:00	2024-11-08T21:00:00	2	Temperatura media	21.4
5850	7	Sololá	712	San Antonio Palopó	9	San Antonio Palopo	9	Septiembre	2023-06-09T00:00:00	2024-11-08T21:00:00	4	Temperatura máxima	21.6
5851	7	Sololá	712	San Antonio Palopó	9	San Antonio Palopo	9	Septiembre	2023-06-09T00:00:00	2024-11-08T21:00:00	3	Temperatura mínima	20.3
5852	7	Sololá	712	San Antonio Palopó	9	San Antonio Palopo	9	Septiembre	2023-06-09T00:00:00	2024-11-08T21:00:00	5	Humedad	74
5853	7	Sololá	712	San Antonio Palopó	9	San Antonio Palopo	9	Septiembre	2023-06-09T00:00:00	2024-11-08T21:00:00	6	Velocidad del viento	4.8
5854	7	Sololá	712	San Antonio Palopó	9	San Antonio Palopo	9	Septiembre	2023-06-09T00:00:00	2024-11-08T21:00:00	7	Dirección del viento	4.83
5855	7	Sololá	712	San Antonio Palopó	9	San Antonio Palopo	9	Septiembre	2023-06-09T00:00:00	2024-11-08T21:00:00	1	Precipitación	0
5856	7	Sololá	712	San Antonio Palopó	9	San Antonio Palopo	9	Septiembre	2023-06-09T00:00:00	2024-11-08T21:00:00	8	Radiación solar	0
5857	7	Sololá	712	San Antonio Palopó	9	San Antonio Palopo	9	Septiembre	2023-06-09T00:00:00	2024-11-08T22:00:00	2	Temperatura media	21.4
5858	7	Sololá	712	San Antonio Palopó	9	San Antonio Palopo	9	Septiembre	2023-06-09T00:00:00	2024-11-08T22:00:00	4	Temperatura máxima	21.6
5859	7	Sololá	712	San Antonio Palopó	9	San Antonio Palopo	9	Septiembre	2023-06-09T00:00:00	2024-11-08T22:00:00	3	Temperatura mínima	21.2
5860	7	Sololá	712	San Antonio Palopó	9	San Antonio Palopo	9	Septiembre	2023-06-09T00:00:00	2024-11-08T22:00:00	5	Humedad	71
5861	7	Sololá	712	San Antonio Palopó	9	San Antonio Palopo	9	Septiembre	2023-06-09T00:00:00	2024-11-08T22:00:00	6	Velocidad del viento	4.8
5862	7	Sololá	712	San Antonio Palopó	9	San Antonio Palopo	9	Septiembre	2023-06-09T00:00:00	2024-11-08T22:00:00	7	Dirección del viento	4.83
5863	7	Sololá	712	San Antonio Palopó	9	San Antonio Palopo	9	Septiembre	2023-06-09T00:00:00	2024-11-08T22:00:00	1	Precipitación	0
5864	7	Sololá	712	San Antonio Palopó	9	San Antonio Palopo	9	Septiembre	2023-06-09T00:00:00	2024-11-08T22:00:00	8	Radiación solar	0
5865	7	Sololá	712	San Antonio Palopó	9	San Antonio Palopo	9	Septiembre	2023-06-09T00:00:00	2024-11-08T23:00:00	2	Temperatura media	20.7
5866	7	Sololá	712	San Antonio Palopó	9	San Antonio Palopo	9	Septiembre	2023-06-09T00:00:00	2024-11-08T23:00:00	4	Temperatura máxima	21.4
5867	7	Sololá	712	San Antonio Palopó	9	San Antonio Palopo	9	Septiembre	2023-06-09T00:00:00	2024-11-08T23:00:00	3	Temperatura mínima	20.6
5868	7	Sololá	712	San Antonio Palopó	9	San Antonio Palopo	9	Septiembre	2023-06-09T00:00:00	2024-11-08T23:00:00	5	Humedad	74
5869	7	Sololá	712	San Antonio Palopó	9	San Antonio Palopo	9	Septiembre	2023-06-09T00:00:00	2024-11-08T23:00:00	6	Velocidad del viento	11.3
5870	7	Sololá	712	San Antonio Palopó	9	San Antonio Palopo	9	Septiembre	2023-06-09T00:00:00	2024-11-08T23:00:00	7	Dirección del viento	11.27
5871	7	Sololá	712	San Antonio Palopó	9	San Antonio Palopo	9	Septiembre	2023-06-09T00:00:00	2024-11-08T23:00:00	1	Precipitación	0
5872	7	Sololá	712	San Antonio Palopó	9	San Antonio Palopo	9	Septiembre	2023-06-09T00:00:00	2024-11-08T23:00:00	8	Radiación solar	0
5873	7	Sololá	712	San Antonio Palopó	9	San Antonio Palopo	9	Septiembre	2023-07-09T00:00:00	2024-11-08T00:00:00	2	Temperatura media	20.8
5874	7	Sololá	712	San Antonio Palopó	9	San Antonio Palopo	9	Septiembre	2023-07-09T00:00:00	2024-11-08T00:00:00	4	Temperatura máxima	21.1
5875	7	Sololá	712	San Antonio Palopó	9	San Antonio Palopo	9	Septiembre	2023-07-09T00:00:00	2024-11-08T00:00:00	3	Temperatura mínima	20.5
5876	7	Sololá	712	San Antonio Palopó	9	San Antonio Palopo	9	Septiembre	2023-07-09T00:00:00	2024-11-08T00:00:00	5	Humedad	73
5877	7	Sololá	712	San Antonio Palopó	9	San Antonio Palopo	9	Septiembre	2023-07-09T00:00:00	2024-11-08T00:00:00	6	Velocidad del viento	14.5
5878	7	Sololá	712	San Antonio Palopó	9	San Antonio Palopo	9	Septiembre	2023-07-09T00:00:00	2024-11-08T00:00:00	7	Dirección del viento	14.48
5879	7	Sololá	712	San Antonio Palopó	9	San Antonio Palopo	9	Septiembre	2023-07-09T00:00:00	2024-11-08T00:00:00	1	Precipitación	0
5880	7	Sololá	712	San Antonio Palopó	9	San Antonio Palopo	9	Septiembre	2023-07-09T00:00:00	2024-11-08T00:00:00	8	Radiación solar	0
5881	7	Sololá	712	San Antonio Palopó	9	San Antonio Palopo	9	Septiembre	2023-07-09T00:00:00	2024-11-08T01:00:00	2	Temperatura media	20.6
5882	7	Sololá	712	San Antonio Palopó	9	San Antonio Palopo	9	Septiembre	2023-07-09T00:00:00	2024-11-08T01:00:00	4	Temperatura máxima	20.8
5883	7	Sololá	712	San Antonio Palopó	9	San Antonio Palopo	9	Septiembre	2023-07-09T00:00:00	2024-11-08T01:00:00	3	Temperatura mínima	20.4
5884	7	Sololá	712	San Antonio Palopó	9	San Antonio Palopo	9	Septiembre	2023-07-09T00:00:00	2024-11-08T01:00:00	5	Humedad	75
5885	7	Sololá	712	San Antonio Palopó	9	San Antonio Palopo	9	Septiembre	2023-07-09T00:00:00	2024-11-08T01:00:00	6	Velocidad del viento	14.5
5886	7	Sololá	712	San Antonio Palopó	9	San Antonio Palopo	9	Septiembre	2023-07-09T00:00:00	2024-11-08T01:00:00	7	Dirección del viento	14.48
5887	7	Sololá	712	San Antonio Palopó	9	San Antonio Palopo	9	Septiembre	2023-07-09T00:00:00	2024-11-08T01:00:00	1	Precipitación	0
5888	7	Sololá	712	San Antonio Palopó	9	San Antonio Palopo	9	Septiembre	2023-07-09T00:00:00	2024-11-08T01:00:00	8	Radiación solar	0
5889	7	Sololá	712	San Antonio Palopó	9	San Antonio Palopo	9	Septiembre	2023-07-09T00:00:00	2024-11-08T02:00:00	2	Temperatura media	20.3
5890	7	Sololá	712	San Antonio Palopó	9	San Antonio Palopo	9	Septiembre	2023-07-09T00:00:00	2024-11-08T02:00:00	4	Temperatura máxima	20.5
5891	7	Sololá	712	San Antonio Palopó	9	San Antonio Palopo	9	Septiembre	2023-07-09T00:00:00	2024-11-08T02:00:00	3	Temperatura mínima	20.2
5892	7	Sololá	712	San Antonio Palopó	9	San Antonio Palopo	9	Septiembre	2023-07-09T00:00:00	2024-11-08T02:00:00	5	Humedad	75
5893	7	Sololá	712	San Antonio Palopó	9	San Antonio Palopo	9	Septiembre	2023-07-09T00:00:00	2024-11-08T02:00:00	6	Velocidad del viento	16.1
5894	7	Sololá	712	San Antonio Palopó	9	San Antonio Palopo	9	Septiembre	2023-07-09T00:00:00	2024-11-08T02:00:00	7	Dirección del viento	16.09
5895	7	Sololá	712	San Antonio Palopó	9	San Antonio Palopo	9	Septiembre	2023-07-09T00:00:00	2024-11-08T02:00:00	1	Precipitación	0
5896	7	Sololá	712	San Antonio Palopó	9	San Antonio Palopo	9	Septiembre	2023-07-09T00:00:00	2024-11-08T02:00:00	8	Radiación solar	0
5897	7	Sololá	712	San Antonio Palopó	9	San Antonio Palopo	9	Septiembre	2023-07-09T00:00:00	2024-11-08T03:00:00	2	Temperatura media	19.9
5898	7	Sololá	712	San Antonio Palopó	9	San Antonio Palopo	9	Septiembre	2023-07-09T00:00:00	2024-11-08T03:00:00	4	Temperatura máxima	20.3
5899	7	Sololá	712	San Antonio Palopó	9	San Antonio Palopo	9	Septiembre	2023-07-09T00:00:00	2024-11-08T03:00:00	3	Temperatura mínima	19.8
5900	7	Sololá	712	San Antonio Palopó	9	San Antonio Palopo	9	Septiembre	2023-07-09T00:00:00	2024-11-08T03:00:00	5	Humedad	75
5901	7	Sololá	712	San Antonio Palopó	9	San Antonio Palopo	9	Septiembre	2023-07-09T00:00:00	2024-11-08T03:00:00	6	Velocidad del viento	9.7
5902	7	Sololá	712	San Antonio Palopó	9	San Antonio Palopo	9	Septiembre	2023-07-09T00:00:00	2024-11-08T03:00:00	7	Dirección del viento	9.66
5903	7	Sololá	712	San Antonio Palopó	9	San Antonio Palopo	9	Septiembre	2023-07-09T00:00:00	2024-11-08T03:00:00	1	Precipitación	0
5904	7	Sololá	712	San Antonio Palopó	9	San Antonio Palopo	9	Septiembre	2023-07-09T00:00:00	2024-11-08T03:00:00	8	Radiación solar	0
5905	7	Sololá	712	San Antonio Palopó	9	San Antonio Palopo	9	Septiembre	2023-07-09T00:00:00	2024-11-08T04:00:00	2	Temperatura media	20.1
5906	7	Sololá	712	San Antonio Palopó	9	San Antonio Palopo	9	Septiembre	2023-07-09T00:00:00	2024-11-08T04:00:00	4	Temperatura máxima	20.1
5907	7	Sololá	712	San Antonio Palopó	9	San Antonio Palopo	9	Septiembre	2023-07-09T00:00:00	2024-11-08T04:00:00	3	Temperatura mínima	19.6
5908	7	Sololá	712	San Antonio Palopó	9	San Antonio Palopo	9	Septiembre	2023-07-09T00:00:00	2024-11-08T04:00:00	5	Humedad	75
5909	7	Sololá	712	San Antonio Palopó	9	San Antonio Palopo	9	Septiembre	2023-07-09T00:00:00	2024-11-08T04:00:00	6	Velocidad del viento	8
5910	7	Sololá	712	San Antonio Palopó	9	San Antonio Palopo	9	Septiembre	2023-07-09T00:00:00	2024-11-08T04:00:00	7	Dirección del viento	8.05
5911	7	Sololá	712	San Antonio Palopó	9	San Antonio Palopo	9	Septiembre	2023-07-09T00:00:00	2024-11-08T04:00:00	1	Precipitación	0
5912	7	Sololá	712	San Antonio Palopó	9	San Antonio Palopo	9	Septiembre	2023-07-09T00:00:00	2024-11-08T04:00:00	8	Radiación solar	0
5913	7	Sololá	712	San Antonio Palopó	9	San Antonio Palopo	9	Septiembre	2023-07-09T00:00:00	2024-11-08T05:00:00	2	Temperatura media	20
5914	7	Sololá	712	San Antonio Palopó	9	San Antonio Palopo	9	Septiembre	2023-07-09T00:00:00	2024-11-08T05:00:00	4	Temperatura máxima	20.2
5915	7	Sololá	712	San Antonio Palopó	9	San Antonio Palopo	9	Septiembre	2023-07-09T00:00:00	2024-11-08T05:00:00	3	Temperatura mínima	19.9
5916	7	Sololá	712	San Antonio Palopó	9	San Antonio Palopo	9	Septiembre	2023-07-09T00:00:00	2024-11-08T05:00:00	5	Humedad	75
5917	7	Sololá	712	San Antonio Palopó	9	San Antonio Palopo	9	Septiembre	2023-07-09T00:00:00	2024-11-08T05:00:00	6	Velocidad del viento	9.7
5918	7	Sololá	712	San Antonio Palopó	9	San Antonio Palopo	9	Septiembre	2023-07-09T00:00:00	2024-11-08T05:00:00	7	Dirección del viento	9.66
5919	7	Sololá	712	San Antonio Palopó	9	San Antonio Palopo	9	Septiembre	2023-07-09T00:00:00	2024-11-08T05:00:00	1	Precipitación	0
5920	7	Sololá	712	San Antonio Palopó	9	San Antonio Palopo	9	Septiembre	2023-07-09T00:00:00	2024-11-08T05:00:00	8	Radiación solar	0
5921	7	Sololá	712	San Antonio Palopó	9	San Antonio Palopo	9	Septiembre	2023-07-09T00:00:00	2024-11-08T06:00:00	2	Temperatura media	19.3
5922	7	Sololá	712	San Antonio Palopó	9	San Antonio Palopo	9	Septiembre	2023-07-09T00:00:00	2024-11-08T06:00:00	4	Temperatura máxima	20.1
5923	7	Sololá	712	San Antonio Palopó	9	San Antonio Palopo	9	Septiembre	2023-07-09T00:00:00	2024-11-08T06:00:00	3	Temperatura mínima	19.3
5924	7	Sololá	712	San Antonio Palopó	9	San Antonio Palopo	9	Septiembre	2023-07-09T00:00:00	2024-11-08T06:00:00	5	Humedad	81
5925	7	Sololá	712	San Antonio Palopó	9	San Antonio Palopo	9	Septiembre	2023-07-09T00:00:00	2024-11-08T06:00:00	6	Velocidad del viento	8
5926	7	Sololá	712	San Antonio Palopó	9	San Antonio Palopo	9	Septiembre	2023-07-09T00:00:00	2024-11-08T06:00:00	7	Dirección del viento	8.05
5927	7	Sololá	712	San Antonio Palopó	9	San Antonio Palopo	9	Septiembre	2023-07-09T00:00:00	2024-11-08T06:00:00	1	Precipitación	0
5928	7	Sololá	712	San Antonio Palopó	9	San Antonio Palopo	9	Septiembre	2023-07-09T00:00:00	2024-11-08T06:00:00	8	Radiación solar	0
5929	7	Sololá	712	San Antonio Palopó	9	San Antonio Palopo	9	Septiembre	2023-07-09T00:00:00	2024-11-08T07:00:00	2	Temperatura media	19.5
5930	7	Sololá	712	San Antonio Palopó	9	San Antonio Palopo	9	Septiembre	2023-07-09T00:00:00	2024-11-08T07:00:00	4	Temperatura máxima	19.6
5931	7	Sololá	712	San Antonio Palopó	9	San Antonio Palopo	9	Septiembre	2023-07-09T00:00:00	2024-11-08T07:00:00	3	Temperatura mínima	18.9
5932	7	Sololá	712	San Antonio Palopó	9	San Antonio Palopo	9	Septiembre	2023-07-09T00:00:00	2024-11-08T07:00:00	5	Humedad	80
5933	7	Sololá	712	San Antonio Palopó	9	San Antonio Palopo	9	Septiembre	2023-07-09T00:00:00	2024-11-08T07:00:00	6	Velocidad del viento	3.2
5934	7	Sololá	712	San Antonio Palopó	9	San Antonio Palopo	9	Septiembre	2023-07-09T00:00:00	2024-11-08T07:00:00	7	Dirección del viento	3.22
5935	7	Sololá	712	San Antonio Palopó	9	San Antonio Palopo	9	Septiembre	2023-07-09T00:00:00	2024-11-08T07:00:00	1	Precipitación	0
5936	7	Sololá	712	San Antonio Palopó	9	San Antonio Palopo	9	Septiembre	2023-07-09T00:00:00	2024-11-08T07:00:00	8	Radiación solar	31
5937	7	Sololá	712	San Antonio Palopó	9	San Antonio Palopo	9	Septiembre	2023-07-09T00:00:00	2024-11-08T08:00:00	2	Temperatura media	21.1
5938	7	Sololá	712	San Antonio Palopó	9	San Antonio Palopo	9	Septiembre	2023-07-09T00:00:00	2024-11-08T08:00:00	4	Temperatura máxima	21.1
5939	7	Sololá	712	San Antonio Palopó	9	San Antonio Palopo	9	Septiembre	2023-07-09T00:00:00	2024-11-08T08:00:00	3	Temperatura mínima	19.5
5940	7	Sololá	712	San Antonio Palopó	9	San Antonio Palopo	9	Septiembre	2023-07-09T00:00:00	2024-11-08T08:00:00	5	Humedad	77
5941	7	Sololá	712	San Antonio Palopó	9	San Antonio Palopo	9	Septiembre	2023-07-09T00:00:00	2024-11-08T08:00:00	6	Velocidad del viento	4.8
5942	7	Sololá	712	San Antonio Palopó	9	San Antonio Palopo	9	Septiembre	2023-07-09T00:00:00	2024-11-08T08:00:00	7	Dirección del viento	4.83
5943	7	Sololá	712	San Antonio Palopó	9	San Antonio Palopo	9	Septiembre	2023-07-09T00:00:00	2024-11-08T08:00:00	1	Precipitación	0
5944	7	Sololá	712	San Antonio Palopó	9	San Antonio Palopo	9	Septiembre	2023-07-09T00:00:00	2024-11-08T08:00:00	8	Radiación solar	137
5945	7	Sololá	712	San Antonio Palopó	9	San Antonio Palopo	9	Septiembre	2023-07-09T00:00:00	2024-11-08T09:00:00	2	Temperatura media	23.8
5946	7	Sololá	712	San Antonio Palopó	9	San Antonio Palopo	9	Septiembre	2023-07-09T00:00:00	2024-11-08T09:00:00	4	Temperatura máxima	23.8
5947	7	Sololá	712	San Antonio Palopó	9	San Antonio Palopo	9	Septiembre	2023-07-09T00:00:00	2024-11-08T09:00:00	3	Temperatura mínima	21.1
5948	7	Sololá	712	San Antonio Palopó	9	San Antonio Palopo	9	Septiembre	2023-07-09T00:00:00	2024-11-08T09:00:00	5	Humedad	62
5949	7	Sololá	712	San Antonio Palopó	9	San Antonio Palopo	9	Septiembre	2023-07-09T00:00:00	2024-11-08T09:00:00	6	Velocidad del viento	4.8
5950	7	Sololá	712	San Antonio Palopó	9	San Antonio Palopo	9	Septiembre	2023-07-09T00:00:00	2024-11-08T09:00:00	7	Dirección del viento	4.83
5951	7	Sololá	712	San Antonio Palopó	9	San Antonio Palopo	9	Septiembre	2023-07-09T00:00:00	2024-11-08T09:00:00	1	Precipitación	0
5952	7	Sololá	712	San Antonio Palopó	9	San Antonio Palopo	9	Septiembre	2023-07-09T00:00:00	2024-11-08T09:00:00	8	Radiación solar	427
5953	7	Sololá	712	San Antonio Palopó	9	San Antonio Palopo	9	Septiembre	2023-07-09T00:00:00	2024-11-08T10:00:00	2	Temperatura media	24.3
5954	7	Sololá	712	San Antonio Palopó	9	San Antonio Palopo	9	Septiembre	2023-07-09T00:00:00	2024-11-08T10:00:00	4	Temperatura máxima	27.8
5955	7	Sololá	712	San Antonio Palopó	9	San Antonio Palopo	9	Septiembre	2023-07-09T00:00:00	2024-11-08T10:00:00	3	Temperatura mínima	23.8
5956	7	Sololá	712	San Antonio Palopó	9	San Antonio Palopo	9	Septiembre	2023-07-09T00:00:00	2024-11-08T10:00:00	5	Humedad	66
5957	7	Sololá	712	San Antonio Palopó	9	San Antonio Palopo	9	Septiembre	2023-07-09T00:00:00	2024-11-08T10:00:00	6	Velocidad del viento	1.6
5958	7	Sololá	712	San Antonio Palopó	9	San Antonio Palopo	9	Septiembre	2023-07-09T00:00:00	2024-11-08T10:00:00	7	Dirección del viento	1.61
5959	7	Sololá	712	San Antonio Palopó	9	San Antonio Palopo	9	Septiembre	2023-07-09T00:00:00	2024-11-08T10:00:00	1	Precipitación	0
5960	7	Sololá	712	San Antonio Palopó	9	San Antonio Palopo	9	Septiembre	2023-07-09T00:00:00	2024-11-08T10:00:00	8	Radiación solar	574
5961	7	Sololá	712	San Antonio Palopó	9	San Antonio Palopo	9	Septiembre	2023-07-09T00:00:00	2024-11-08T11:00:00	2	Temperatura media	24.2
5962	7	Sololá	712	San Antonio Palopó	9	San Antonio Palopo	9	Septiembre	2023-07-09T00:00:00	2024-11-08T11:00:00	4	Temperatura máxima	24.3
5963	7	Sololá	712	San Antonio Palopó	9	San Antonio Palopo	9	Septiembre	2023-07-09T00:00:00	2024-11-08T11:00:00	3	Temperatura mínima	23.7
5964	7	Sololá	712	San Antonio Palopó	9	San Antonio Palopo	9	Septiembre	2023-07-09T00:00:00	2024-11-08T11:00:00	5	Humedad	70
5965	7	Sololá	712	San Antonio Palopó	9	San Antonio Palopo	9	Septiembre	2023-07-09T00:00:00	2024-11-08T11:00:00	6	Velocidad del viento	3.2
5966	7	Sololá	712	San Antonio Palopó	9	San Antonio Palopo	9	Septiembre	2023-07-09T00:00:00	2024-11-08T11:00:00	7	Dirección del viento	3.22
5967	7	Sololá	712	San Antonio Palopó	9	San Antonio Palopo	9	Septiembre	2023-07-09T00:00:00	2024-11-08T11:00:00	1	Precipitación	0
5968	7	Sololá	712	San Antonio Palopó	9	San Antonio Palopo	9	Septiembre	2023-07-09T00:00:00	2024-11-08T11:00:00	8	Radiación solar	757
5969	7	Sololá	712	San Antonio Palopó	9	San Antonio Palopo	9	Septiembre	2023-07-09T00:00:00	2024-11-08T12:00:00	2	Temperatura media	25.2
5970	7	Sololá	712	San Antonio Palopó	9	San Antonio Palopo	9	Septiembre	2023-07-09T00:00:00	2024-11-08T12:00:00	4	Temperatura máxima	25.2
5971	7	Sololá	712	San Antonio Palopó	9	San Antonio Palopo	9	Septiembre	2023-07-09T00:00:00	2024-11-08T12:00:00	3	Temperatura mínima	24
5972	7	Sololá	712	San Antonio Palopó	9	San Antonio Palopo	9	Septiembre	2023-07-09T00:00:00	2024-11-08T12:00:00	5	Humedad	65
5973	7	Sololá	712	San Antonio Palopó	9	San Antonio Palopo	9	Septiembre	2023-07-09T00:00:00	2024-11-08T12:00:00	6	Velocidad del viento	3.2
5974	7	Sololá	712	San Antonio Palopó	9	San Antonio Palopo	9	Septiembre	2023-07-09T00:00:00	2024-11-08T12:00:00	7	Dirección del viento	3.22
5975	7	Sololá	712	San Antonio Palopó	9	San Antonio Palopo	9	Septiembre	2023-07-09T00:00:00	2024-11-08T12:00:00	1	Precipitación	0
5976	7	Sololá	712	San Antonio Palopó	9	San Antonio Palopo	9	Septiembre	2023-07-09T00:00:00	2024-11-08T12:00:00	8	Radiación solar	860
5977	7	Sololá	712	San Antonio Palopó	9	San Antonio Palopo	9	Septiembre	2023-07-09T00:00:00	2024-11-08T13:00:00	2	Temperatura media	26.1
5978	7	Sololá	712	San Antonio Palopó	9	San Antonio Palopo	9	Septiembre	2023-07-09T00:00:00	2024-11-08T13:00:00	4	Temperatura máxima	26.3
5979	7	Sololá	712	San Antonio Palopó	9	San Antonio Palopo	9	Septiembre	2023-07-09T00:00:00	2024-11-08T13:00:00	3	Temperatura mínima	24.8
5980	7	Sololá	712	San Antonio Palopó	9	San Antonio Palopo	9	Septiembre	2023-07-09T00:00:00	2024-11-08T13:00:00	5	Humedad	70
5981	7	Sololá	712	San Antonio Palopó	9	San Antonio Palopo	9	Septiembre	2023-07-09T00:00:00	2024-11-08T13:00:00	6	Velocidad del viento	4.8
5982	7	Sololá	712	San Antonio Palopó	9	San Antonio Palopo	9	Septiembre	2023-07-09T00:00:00	2024-11-08T13:00:00	7	Dirección del viento	4.83
5983	7	Sololá	712	San Antonio Palopó	9	San Antonio Palopo	9	Septiembre	2023-07-09T00:00:00	2024-11-08T13:00:00	1	Precipitación	0
5984	7	Sololá	712	San Antonio Palopó	9	San Antonio Palopo	9	Septiembre	2023-07-09T00:00:00	2024-11-08T13:00:00	8	Radiación solar	835
5985	7	Sololá	712	San Antonio Palopó	9	San Antonio Palopo	9	Septiembre	2023-07-09T00:00:00	2024-11-08T14:00:00	2	Temperatura media	23.1
5986	7	Sololá	712	San Antonio Palopó	9	San Antonio Palopo	9	Septiembre	2023-07-09T00:00:00	2024-11-08T14:00:00	4	Temperatura máxima	26.3
5987	7	Sololá	712	San Antonio Palopó	9	San Antonio Palopo	9	Septiembre	2023-07-09T00:00:00	2024-11-08T14:00:00	3	Temperatura mínima	23.1
5988	7	Sololá	712	San Antonio Palopó	9	San Antonio Palopo	9	Septiembre	2023-07-09T00:00:00	2024-11-08T14:00:00	5	Humedad	80
5989	7	Sololá	712	San Antonio Palopó	9	San Antonio Palopo	9	Septiembre	2023-07-09T00:00:00	2024-11-08T14:00:00	6	Velocidad del viento	12.9
5990	7	Sololá	712	San Antonio Palopó	9	San Antonio Palopo	9	Septiembre	2023-07-09T00:00:00	2024-11-08T14:00:00	7	Dirección del viento	12.87
5991	7	Sololá	712	San Antonio Palopó	9	San Antonio Palopo	9	Septiembre	2023-07-09T00:00:00	2024-11-08T14:00:00	1	Precipitación	0
5992	7	Sololá	712	San Antonio Palopó	9	San Antonio Palopo	9	Septiembre	2023-07-09T00:00:00	2024-11-08T14:00:00	8	Radiación solar	831
5993	7	Sololá	712	San Antonio Palopó	9	San Antonio Palopo	9	Septiembre	2023-07-09T00:00:00	2024-11-08T15:00:00	2	Temperatura media	22.7
5994	7	Sololá	712	San Antonio Palopó	9	San Antonio Palopo	9	Septiembre	2023-07-09T00:00:00	2024-11-08T15:00:00	4	Temperatura máxima	23.5
5995	7	Sololá	712	San Antonio Palopó	9	San Antonio Palopo	9	Septiembre	2023-07-09T00:00:00	2024-11-08T15:00:00	3	Temperatura mínima	22.1
5996	7	Sololá	712	San Antonio Palopó	9	San Antonio Palopo	9	Septiembre	2023-07-09T00:00:00	2024-11-08T15:00:00	5	Humedad	82
5997	7	Sololá	712	San Antonio Palopó	9	San Antonio Palopo	9	Septiembre	2023-07-09T00:00:00	2024-11-08T15:00:00	6	Velocidad del viento	11.3
5998	7	Sololá	712	San Antonio Palopó	9	San Antonio Palopo	9	Septiembre	2023-07-09T00:00:00	2024-11-08T15:00:00	7	Dirección del viento	11.27
5999	7	Sololá	712	San Antonio Palopó	9	San Antonio Palopo	9	Septiembre	2023-07-09T00:00:00	2024-11-08T15:00:00	1	Precipitación	0
6000	7	Sololá	712	San Antonio Palopó	9	San Antonio Palopo	9	Septiembre	2023-07-09T00:00:00	2024-11-08T15:00:00	8	Radiación solar	480
6001	7	Sololá	712	San Antonio Palopó	9	San Antonio Palopo	9	Septiembre	2023-07-09T00:00:00	2024-11-08T16:00:00	2	Temperatura media	21.6
6002	7	Sololá	712	San Antonio Palopó	9	San Antonio Palopo	9	Septiembre	2023-07-09T00:00:00	2024-11-08T16:00:00	4	Temperatura máxima	22.7
6003	7	Sololá	712	San Antonio Palopó	9	San Antonio Palopo	9	Septiembre	2023-07-09T00:00:00	2024-11-08T16:00:00	3	Temperatura mínima	21.2
6004	7	Sololá	712	San Antonio Palopó	9	San Antonio Palopo	9	Septiembre	2023-07-09T00:00:00	2024-11-08T16:00:00	5	Humedad	85
6005	7	Sololá	712	San Antonio Palopó	9	San Antonio Palopo	9	Septiembre	2023-07-09T00:00:00	2024-11-08T16:00:00	6	Velocidad del viento	9.7
6006	7	Sololá	712	San Antonio Palopó	9	San Antonio Palopo	9	Septiembre	2023-07-09T00:00:00	2024-11-08T16:00:00	7	Dirección del viento	9.66
6007	7	Sololá	712	San Antonio Palopó	9	San Antonio Palopo	9	Septiembre	2023-07-09T00:00:00	2024-11-08T16:00:00	1	Precipitación	0
6008	7	Sololá	712	San Antonio Palopó	9	San Antonio Palopo	9	Septiembre	2023-07-09T00:00:00	2024-11-08T16:00:00	8	Radiación solar	307
6009	7	Sololá	712	San Antonio Palopó	9	San Antonio Palopo	9	Septiembre	2023-07-09T00:00:00	2024-11-08T17:00:00	2	Temperatura media	21.1
6010	7	Sololá	712	San Antonio Palopó	9	San Antonio Palopo	9	Septiembre	2023-07-09T00:00:00	2024-11-08T17:00:00	4	Temperatura máxima	21.7
6011	7	Sololá	712	San Antonio Palopó	9	San Antonio Palopo	9	Septiembre	2023-07-09T00:00:00	2024-11-08T17:00:00	3	Temperatura mínima	21
6012	7	Sololá	712	San Antonio Palopó	9	San Antonio Palopo	9	Septiembre	2023-07-09T00:00:00	2024-11-08T17:00:00	5	Humedad	84
6013	7	Sololá	712	San Antonio Palopó	9	San Antonio Palopo	9	Septiembre	2023-07-09T00:00:00	2024-11-08T17:00:00	6	Velocidad del viento	6.4
6014	7	Sololá	712	San Antonio Palopó	9	San Antonio Palopo	9	Septiembre	2023-07-09T00:00:00	2024-11-08T17:00:00	7	Dirección del viento	6.44
6015	7	Sololá	712	San Antonio Palopó	9	San Antonio Palopo	9	Septiembre	2023-07-09T00:00:00	2024-11-08T17:00:00	1	Precipitación	0
6016	7	Sololá	712	San Antonio Palopó	9	San Antonio Palopo	9	Septiembre	2023-07-09T00:00:00	2024-11-08T17:00:00	8	Radiación solar	53
6017	7	Sololá	712	San Antonio Palopó	9	San Antonio Palopo	9	Septiembre	2023-07-09T00:00:00	2024-11-08T18:00:00	2	Temperatura media	21
6018	7	Sololá	712	San Antonio Palopó	9	San Antonio Palopo	9	Septiembre	2023-07-09T00:00:00	2024-11-08T18:00:00	4	Temperatura máxima	21.2
6019	7	Sololá	712	San Antonio Palopó	9	San Antonio Palopo	9	Septiembre	2023-07-09T00:00:00	2024-11-08T18:00:00	3	Temperatura mínima	20.8
6020	7	Sololá	712	San Antonio Palopó	9	San Antonio Palopo	9	Septiembre	2023-07-09T00:00:00	2024-11-08T18:00:00	5	Humedad	84
6021	7	Sololá	712	San Antonio Palopó	9	San Antonio Palopo	9	Septiembre	2023-07-09T00:00:00	2024-11-08T18:00:00	6	Velocidad del viento	4.8
6022	7	Sololá	712	San Antonio Palopó	9	San Antonio Palopo	9	Septiembre	2023-07-09T00:00:00	2024-11-08T18:00:00	7	Dirección del viento	4.83
6023	7	Sololá	712	San Antonio Palopó	9	San Antonio Palopo	9	Septiembre	2023-07-09T00:00:00	2024-11-08T18:00:00	1	Precipitación	0
6024	7	Sololá	712	San Antonio Palopó	9	San Antonio Palopo	9	Septiembre	2023-07-09T00:00:00	2024-11-08T18:00:00	8	Radiación solar	10
6025	7	Sololá	712	San Antonio Palopó	9	San Antonio Palopo	9	Septiembre	2023-07-09T00:00:00	2024-11-08T19:00:00	2	Temperatura media	20.7
6026	7	Sololá	712	San Antonio Palopó	9	San Antonio Palopo	9	Septiembre	2023-07-09T00:00:00	2024-11-08T19:00:00	4	Temperatura máxima	21.1
6027	7	Sololá	712	San Antonio Palopó	9	San Antonio Palopo	9	Septiembre	2023-07-09T00:00:00	2024-11-08T19:00:00	3	Temperatura mínima	20.4
6028	7	Sololá	712	San Antonio Palopó	9	San Antonio Palopo	9	Septiembre	2023-07-09T00:00:00	2024-11-08T19:00:00	5	Humedad	83
6029	7	Sololá	712	San Antonio Palopó	9	San Antonio Palopo	9	Septiembre	2023-07-09T00:00:00	2024-11-08T19:00:00	6	Velocidad del viento	1.6
6030	7	Sololá	712	San Antonio Palopó	9	San Antonio Palopo	9	Septiembre	2023-07-09T00:00:00	2024-11-08T19:00:00	7	Dirección del viento	1.61
6031	7	Sololá	712	San Antonio Palopó	9	San Antonio Palopo	9	Septiembre	2023-07-09T00:00:00	2024-11-08T19:00:00	1	Precipitación	0
6032	7	Sololá	712	San Antonio Palopó	9	San Antonio Palopo	9	Septiembre	2023-07-09T00:00:00	2024-11-08T19:00:00	8	Radiación solar	0
6033	7	Sololá	712	San Antonio Palopó	9	San Antonio Palopo	9	Septiembre	2023-07-09T00:00:00	2024-11-08T20:00:00	2	Temperatura media	20.3
6034	7	Sololá	712	San Antonio Palopó	9	San Antonio Palopo	9	Septiembre	2023-07-09T00:00:00	2024-11-08T20:00:00	4	Temperatura máxima	20.7
6035	7	Sololá	712	San Antonio Palopó	9	San Antonio Palopo	9	Septiembre	2023-07-09T00:00:00	2024-11-08T20:00:00	3	Temperatura mínima	20.3
6036	7	Sololá	712	San Antonio Palopó	9	San Antonio Palopo	9	Septiembre	2023-07-09T00:00:00	2024-11-08T20:00:00	5	Humedad	84
6037	7	Sololá	712	San Antonio Palopó	9	San Antonio Palopo	9	Septiembre	2023-07-09T00:00:00	2024-11-08T20:00:00	6	Velocidad del viento	1.6
6038	7	Sololá	712	San Antonio Palopó	9	San Antonio Palopo	9	Septiembre	2023-07-09T00:00:00	2024-11-08T20:00:00	7	Dirección del viento	1.61
6039	7	Sololá	712	San Antonio Palopó	9	San Antonio Palopo	9	Septiembre	2023-07-09T00:00:00	2024-11-08T20:00:00	1	Precipitación	0
6040	7	Sololá	712	San Antonio Palopó	9	San Antonio Palopo	9	Septiembre	2023-07-09T00:00:00	2024-11-08T20:00:00	8	Radiación solar	0
6041	7	Sololá	712	San Antonio Palopó	9	San Antonio Palopo	9	Septiembre	2023-07-09T00:00:00	2024-11-08T21:00:00	2	Temperatura media	19.6
6042	7	Sololá	712	San Antonio Palopó	9	San Antonio Palopo	9	Septiembre	2023-07-09T00:00:00	2024-11-08T21:00:00	4	Temperatura máxima	20.3
6043	7	Sololá	712	San Antonio Palopó	9	San Antonio Palopo	9	Septiembre	2023-07-09T00:00:00	2024-11-08T21:00:00	3	Temperatura mínima	19.4
6044	7	Sololá	712	San Antonio Palopó	9	San Antonio Palopo	9	Septiembre	2023-07-09T00:00:00	2024-11-08T21:00:00	5	Humedad	84
6045	7	Sololá	712	San Antonio Palopó	9	San Antonio Palopo	9	Septiembre	2023-07-09T00:00:00	2024-11-08T21:00:00	6	Velocidad del viento	3.2
6046	7	Sololá	712	San Antonio Palopó	9	San Antonio Palopo	9	Septiembre	2023-07-09T00:00:00	2024-11-08T21:00:00	7	Dirección del viento	3.22
6047	7	Sololá	712	San Antonio Palopó	9	San Antonio Palopo	9	Septiembre	2023-07-09T00:00:00	2024-11-08T21:00:00	1	Precipitación	0
6048	7	Sololá	712	San Antonio Palopó	9	San Antonio Palopo	9	Septiembre	2023-07-09T00:00:00	2024-11-08T21:00:00	8	Radiación solar	0
6049	7	Sololá	712	San Antonio Palopó	9	San Antonio Palopo	9	Septiembre	2023-07-09T00:00:00	2024-11-08T22:00:00	2	Temperatura media	20.6
6050	7	Sololá	712	San Antonio Palopó	9	San Antonio Palopo	9	Septiembre	2023-07-09T00:00:00	2024-11-08T22:00:00	4	Temperatura máxima	20.6
6051	7	Sololá	712	San Antonio Palopó	9	San Antonio Palopo	9	Septiembre	2023-07-09T00:00:00	2024-11-08T22:00:00	3	Temperatura mínima	19.6
6052	7	Sololá	712	San Antonio Palopó	9	San Antonio Palopo	9	Septiembre	2023-07-09T00:00:00	2024-11-08T22:00:00	5	Humedad	73
6053	7	Sololá	712	San Antonio Palopó	9	San Antonio Palopo	9	Septiembre	2023-07-09T00:00:00	2024-11-08T22:00:00	6	Velocidad del viento	3.2
6054	7	Sololá	712	San Antonio Palopó	9	San Antonio Palopo	9	Septiembre	2023-07-09T00:00:00	2024-11-08T22:00:00	7	Dirección del viento	3.22
6055	7	Sololá	712	San Antonio Palopó	9	San Antonio Palopo	9	Septiembre	2023-07-09T00:00:00	2024-11-08T22:00:00	1	Precipitación	0
6056	7	Sololá	712	San Antonio Palopó	9	San Antonio Palopo	9	Septiembre	2023-07-09T00:00:00	2024-11-08T22:00:00	8	Radiación solar	0
6057	7	Sololá	712	San Antonio Palopó	9	San Antonio Palopo	9	Septiembre	2023-07-09T00:00:00	2024-11-08T23:00:00	2	Temperatura media	20.6
6058	7	Sololá	712	San Antonio Palopó	9	San Antonio Palopo	9	Septiembre	2023-07-09T00:00:00	2024-11-08T23:00:00	4	Temperatura máxima	20.9
6059	7	Sololá	712	San Antonio Palopó	9	San Antonio Palopo	9	Septiembre	2023-07-09T00:00:00	2024-11-08T23:00:00	3	Temperatura mínima	20.6
6060	7	Sololá	712	San Antonio Palopó	9	San Antonio Palopo	9	Septiembre	2023-07-09T00:00:00	2024-11-08T23:00:00	5	Humedad	72
6061	7	Sololá	712	San Antonio Palopó	9	San Antonio Palopo	9	Septiembre	2023-07-09T00:00:00	2024-11-08T23:00:00	6	Velocidad del viento	6.4
6062	7	Sololá	712	San Antonio Palopó	9	San Antonio Palopo	9	Septiembre	2023-07-09T00:00:00	2024-11-08T23:00:00	7	Dirección del viento	6.44
6063	7	Sololá	712	San Antonio Palopó	9	San Antonio Palopo	9	Septiembre	2023-07-09T00:00:00	2024-11-08T23:00:00	1	Precipitación	0
6064	7	Sololá	712	San Antonio Palopó	9	San Antonio Palopo	9	Septiembre	2023-07-09T00:00:00	2024-11-08T23:00:00	8	Radiación solar	0
6065	7	Sololá	712	San Antonio Palopó	9	San Antonio Palopo	9	Septiembre	2023-08-09T00:00:00	2024-11-08T00:00:00	2	Temperatura media	20.5
6066	7	Sololá	712	San Antonio Palopó	9	San Antonio Palopo	9	Septiembre	2023-08-09T00:00:00	2024-11-08T00:00:00	4	Temperatura máxima	20.6
6067	7	Sololá	712	San Antonio Palopó	9	San Antonio Palopo	9	Septiembre	2023-08-09T00:00:00	2024-11-08T00:00:00	3	Temperatura mínima	20.3
6068	7	Sololá	712	San Antonio Palopó	9	San Antonio Palopo	9	Septiembre	2023-08-09T00:00:00	2024-11-08T00:00:00	5	Humedad	68
6069	7	Sololá	712	San Antonio Palopó	9	San Antonio Palopo	9	Septiembre	2023-08-09T00:00:00	2024-11-08T00:00:00	6	Velocidad del viento	6.4
6070	7	Sololá	712	San Antonio Palopó	9	San Antonio Palopo	9	Septiembre	2023-08-09T00:00:00	2024-11-08T00:00:00	7	Dirección del viento	6.44
6071	7	Sololá	712	San Antonio Palopó	9	San Antonio Palopo	9	Septiembre	2023-08-09T00:00:00	2024-11-08T00:00:00	1	Precipitación	0
6072	7	Sololá	712	San Antonio Palopó	9	San Antonio Palopo	9	Septiembre	2023-08-09T00:00:00	2024-11-08T00:00:00	8	Radiación solar	0
6073	7	Sololá	712	San Antonio Palopó	9	San Antonio Palopo	9	Septiembre	2023-08-09T00:00:00	2024-11-08T01:00:00	2	Temperatura media	19.9
6074	7	Sololá	712	San Antonio Palopó	9	San Antonio Palopo	9	Septiembre	2023-08-09T00:00:00	2024-11-08T01:00:00	4	Temperatura máxima	20.6
6075	7	Sololá	712	San Antonio Palopó	9	San Antonio Palopo	9	Septiembre	2023-08-09T00:00:00	2024-11-08T01:00:00	3	Temperatura mínima	19.6
6076	7	Sololá	712	San Antonio Palopó	9	San Antonio Palopo	9	Septiembre	2023-08-09T00:00:00	2024-11-08T01:00:00	5	Humedad	69
6077	7	Sololá	712	San Antonio Palopó	9	San Antonio Palopo	9	Septiembre	2023-08-09T00:00:00	2024-11-08T01:00:00	6	Velocidad del viento	8
6078	7	Sololá	712	San Antonio Palopó	9	San Antonio Palopo	9	Septiembre	2023-08-09T00:00:00	2024-11-08T01:00:00	7	Dirección del viento	8.05
6079	7	Sololá	712	San Antonio Palopó	9	San Antonio Palopo	9	Septiembre	2023-08-09T00:00:00	2024-11-08T01:00:00	1	Precipitación	0
6080	7	Sololá	712	San Antonio Palopó	9	San Antonio Palopo	9	Septiembre	2023-08-09T00:00:00	2024-11-08T01:00:00	8	Radiación solar	0
6081	7	Sololá	712	San Antonio Palopó	9	San Antonio Palopo	9	Septiembre	2023-08-09T00:00:00	2024-11-08T02:00:00	2	Temperatura media	19.3
6082	7	Sololá	712	San Antonio Palopó	9	San Antonio Palopo	9	Septiembre	2023-08-09T00:00:00	2024-11-08T02:00:00	4	Temperatura máxima	20
6083	7	Sololá	712	San Antonio Palopó	9	San Antonio Palopo	9	Septiembre	2023-08-09T00:00:00	2024-11-08T02:00:00	3	Temperatura mínima	19
6084	7	Sololá	712	San Antonio Palopó	9	San Antonio Palopo	9	Septiembre	2023-08-09T00:00:00	2024-11-08T02:00:00	5	Humedad	71
6085	7	Sololá	712	San Antonio Palopó	9	San Antonio Palopo	9	Septiembre	2023-08-09T00:00:00	2024-11-08T02:00:00	6	Velocidad del viento	4.8
6086	7	Sololá	712	San Antonio Palopó	9	San Antonio Palopo	9	Septiembre	2023-08-09T00:00:00	2024-11-08T02:00:00	7	Dirección del viento	4.83
6087	7	Sololá	712	San Antonio Palopó	9	San Antonio Palopo	9	Septiembre	2023-08-09T00:00:00	2024-11-08T02:00:00	1	Precipitación	0
6088	7	Sololá	712	San Antonio Palopó	9	San Antonio Palopo	9	Septiembre	2023-08-09T00:00:00	2024-11-08T02:00:00	8	Radiación solar	0
6089	7	Sololá	712	San Antonio Palopó	9	San Antonio Palopo	9	Septiembre	2023-08-09T00:00:00	2024-11-08T03:00:00	2	Temperatura media	19.4
6090	7	Sololá	712	San Antonio Palopó	9	San Antonio Palopo	9	Septiembre	2023-08-09T00:00:00	2024-11-08T03:00:00	4	Temperatura máxima	19.8
6091	7	Sololá	712	San Antonio Palopó	9	San Antonio Palopo	9	Septiembre	2023-08-09T00:00:00	2024-11-08T03:00:00	3	Temperatura mínima	19.3
6092	7	Sololá	712	San Antonio Palopó	9	San Antonio Palopo	9	Septiembre	2023-08-09T00:00:00	2024-11-08T03:00:00	5	Humedad	70
6093	7	Sololá	712	San Antonio Palopó	9	San Antonio Palopo	9	Septiembre	2023-08-09T00:00:00	2024-11-08T03:00:00	6	Velocidad del viento	8
6094	7	Sololá	712	San Antonio Palopó	9	San Antonio Palopo	9	Septiembre	2023-08-09T00:00:00	2024-11-08T03:00:00	7	Dirección del viento	8.05
6095	7	Sololá	712	San Antonio Palopó	9	San Antonio Palopo	9	Septiembre	2023-08-09T00:00:00	2024-11-08T03:00:00	1	Precipitación	0
6096	7	Sololá	712	San Antonio Palopó	9	San Antonio Palopo	9	Septiembre	2023-08-09T00:00:00	2024-11-08T03:00:00	8	Radiación solar	0
6097	7	Sololá	712	San Antonio Palopó	9	San Antonio Palopo	9	Septiembre	2023-08-09T00:00:00	2024-11-08T04:00:00	2	Temperatura media	19.2
6098	7	Sololá	712	San Antonio Palopó	9	San Antonio Palopo	9	Septiembre	2023-08-09T00:00:00	2024-11-08T04:00:00	4	Temperatura máxima	19.5
6099	7	Sololá	712	San Antonio Palopó	9	San Antonio Palopo	9	Septiembre	2023-08-09T00:00:00	2024-11-08T04:00:00	3	Temperatura mínima	19.1
6100	7	Sololá	712	San Antonio Palopó	9	San Antonio Palopo	9	Septiembre	2023-08-09T00:00:00	2024-11-08T04:00:00	5	Humedad	71
6101	7	Sololá	712	San Antonio Palopó	9	San Antonio Palopo	9	Septiembre	2023-08-09T00:00:00	2024-11-08T04:00:00	6	Velocidad del viento	8
6102	7	Sololá	712	San Antonio Palopó	9	San Antonio Palopo	9	Septiembre	2023-08-09T00:00:00	2024-11-08T04:00:00	7	Dirección del viento	8.05
6103	7	Sololá	712	San Antonio Palopó	9	San Antonio Palopo	9	Septiembre	2023-08-09T00:00:00	2024-11-08T04:00:00	1	Precipitación	0
6104	7	Sololá	712	San Antonio Palopó	9	San Antonio Palopo	9	Septiembre	2023-08-09T00:00:00	2024-11-08T04:00:00	8	Radiación solar	0
6105	7	Sololá	712	San Antonio Palopó	9	San Antonio Palopo	9	Septiembre	2023-08-09T00:00:00	2024-11-08T05:00:00	2	Temperatura media	19.1
6106	7	Sololá	712	San Antonio Palopó	9	San Antonio Palopo	9	Septiembre	2023-08-09T00:00:00	2024-11-08T05:00:00	4	Temperatura máxima	19.4
6107	7	Sololá	712	San Antonio Palopó	9	San Antonio Palopo	9	Septiembre	2023-08-09T00:00:00	2024-11-08T05:00:00	3	Temperatura mínima	19
6108	7	Sololá	712	San Antonio Palopó	9	San Antonio Palopo	9	Septiembre	2023-08-09T00:00:00	2024-11-08T05:00:00	5	Humedad	70
6109	7	Sololá	712	San Antonio Palopó	9	San Antonio Palopo	9	Septiembre	2023-08-09T00:00:00	2024-11-08T05:00:00	6	Velocidad del viento	9.7
6110	7	Sololá	712	San Antonio Palopó	9	San Antonio Palopo	9	Septiembre	2023-08-09T00:00:00	2024-11-08T05:00:00	7	Dirección del viento	9.66
6111	7	Sololá	712	San Antonio Palopó	9	San Antonio Palopo	9	Septiembre	2023-08-09T00:00:00	2024-11-08T05:00:00	1	Precipitación	0
6112	7	Sololá	712	San Antonio Palopó	9	San Antonio Palopo	9	Septiembre	2023-08-09T00:00:00	2024-11-08T05:00:00	8	Radiación solar	0
6113	7	Sololá	712	San Antonio Palopó	9	San Antonio Palopo	9	Septiembre	2023-08-09T00:00:00	2024-11-08T06:00:00	2	Temperatura media	19.1
6114	7	Sololá	712	San Antonio Palopó	9	San Antonio Palopo	9	Septiembre	2023-08-09T00:00:00	2024-11-08T06:00:00	4	Temperatura máxima	19.2
6115	7	Sololá	712	San Antonio Palopó	9	San Antonio Palopo	9	Septiembre	2023-08-09T00:00:00	2024-11-08T06:00:00	3	Temperatura mínima	18.9
6116	7	Sololá	712	San Antonio Palopó	9	San Antonio Palopo	9	Septiembre	2023-08-09T00:00:00	2024-11-08T06:00:00	5	Humedad	70
6117	7	Sololá	712	San Antonio Palopó	9	San Antonio Palopo	9	Septiembre	2023-08-09T00:00:00	2024-11-08T06:00:00	6	Velocidad del viento	8
6118	7	Sololá	712	San Antonio Palopó	9	San Antonio Palopo	9	Septiembre	2023-08-09T00:00:00	2024-11-08T06:00:00	7	Dirección del viento	8.05
6119	7	Sololá	712	San Antonio Palopó	9	San Antonio Palopo	9	Septiembre	2023-08-09T00:00:00	2024-11-08T06:00:00	1	Precipitación	0
6120	7	Sololá	712	San Antonio Palopó	9	San Antonio Palopo	9	Septiembre	2023-08-09T00:00:00	2024-11-08T06:00:00	8	Radiación solar	0
6121	7	Sololá	712	San Antonio Palopó	9	San Antonio Palopo	9	Septiembre	2023-08-09T00:00:00	2024-11-08T07:00:00	2	Temperatura media	19.6
6122	7	Sololá	712	San Antonio Palopó	9	San Antonio Palopo	9	Septiembre	2023-08-09T00:00:00	2024-11-08T07:00:00	4	Temperatura máxima	19.6
6123	7	Sololá	712	San Antonio Palopó	9	San Antonio Palopo	9	Septiembre	2023-08-09T00:00:00	2024-11-08T07:00:00	3	Temperatura mínima	18.8
6124	7	Sololá	712	San Antonio Palopó	9	San Antonio Palopo	9	Septiembre	2023-08-09T00:00:00	2024-11-08T07:00:00	5	Humedad	68
6125	7	Sololá	712	San Antonio Palopó	9	San Antonio Palopo	9	Septiembre	2023-08-09T00:00:00	2024-11-08T07:00:00	6	Velocidad del viento	6.4
6126	7	Sololá	712	San Antonio Palopó	9	San Antonio Palopo	9	Septiembre	2023-08-09T00:00:00	2024-11-08T07:00:00	7	Dirección del viento	6.44
6127	7	Sololá	712	San Antonio Palopó	9	San Antonio Palopo	9	Septiembre	2023-08-09T00:00:00	2024-11-08T07:00:00	1	Precipitación	0
6128	7	Sololá	712	San Antonio Palopó	9	San Antonio Palopo	9	Septiembre	2023-08-09T00:00:00	2024-11-08T07:00:00	8	Radiación solar	29
6129	7	Sololá	712	San Antonio Palopó	9	San Antonio Palopo	9	Septiembre	2023-08-09T00:00:00	2024-11-08T08:00:00	2	Temperatura media	19.9
6130	7	Sololá	712	San Antonio Palopó	9	San Antonio Palopo	9	Septiembre	2023-08-09T00:00:00	2024-11-08T08:00:00	4	Temperatura máxima	20
6131	7	Sololá	712	San Antonio Palopó	9	San Antonio Palopo	9	Septiembre	2023-08-09T00:00:00	2024-11-08T08:00:00	3	Temperatura mínima	19
6132	7	Sololá	712	San Antonio Palopó	9	San Antonio Palopo	9	Septiembre	2023-08-09T00:00:00	2024-11-08T08:00:00	5	Humedad	72
6133	7	Sololá	712	San Antonio Palopó	9	San Antonio Palopo	9	Septiembre	2023-08-09T00:00:00	2024-11-08T08:00:00	6	Velocidad del viento	4.8
6134	7	Sololá	712	San Antonio Palopó	9	San Antonio Palopo	9	Septiembre	2023-08-09T00:00:00	2024-11-08T08:00:00	7	Dirección del viento	4.83
6135	7	Sololá	712	San Antonio Palopó	9	San Antonio Palopo	9	Septiembre	2023-08-09T00:00:00	2024-11-08T08:00:00	1	Precipitación	0
6136	7	Sololá	712	San Antonio Palopó	9	San Antonio Palopo	9	Septiembre	2023-08-09T00:00:00	2024-11-08T08:00:00	8	Radiación solar	133
6137	7	Sololá	712	San Antonio Palopó	9	San Antonio Palopo	9	Septiembre	2023-08-09T00:00:00	2024-11-08T09:00:00	2	Temperatura media	23.6
6138	7	Sololá	712	San Antonio Palopó	9	San Antonio Palopo	9	Septiembre	2023-08-09T00:00:00	2024-11-08T09:00:00	4	Temperatura máxima	23.6
6139	7	Sololá	712	San Antonio Palopó	9	San Antonio Palopo	9	Septiembre	2023-08-09T00:00:00	2024-11-08T09:00:00	3	Temperatura mínima	19.9
6140	7	Sololá	712	San Antonio Palopó	9	San Antonio Palopo	9	Septiembre	2023-08-09T00:00:00	2024-11-08T09:00:00	5	Humedad	59
6141	7	Sololá	712	San Antonio Palopó	9	San Antonio Palopo	9	Septiembre	2023-08-09T00:00:00	2024-11-08T09:00:00	6	Velocidad del viento	1.6
6142	7	Sololá	712	San Antonio Palopó	9	San Antonio Palopo	9	Septiembre	2023-08-09T00:00:00	2024-11-08T09:00:00	7	Dirección del viento	1.61
6143	7	Sololá	712	San Antonio Palopó	9	San Antonio Palopo	9	Septiembre	2023-08-09T00:00:00	2024-11-08T09:00:00	1	Precipitación	0
6144	7	Sololá	712	San Antonio Palopó	9	San Antonio Palopo	9	Septiembre	2023-08-09T00:00:00	2024-11-08T09:00:00	8	Radiación solar	442
6145	7	Sololá	712	San Antonio Palopó	9	San Antonio Palopo	9	Septiembre	2023-08-09T00:00:00	2024-11-08T10:00:00	2	Temperatura media	23.4
6146	7	Sololá	712	San Antonio Palopó	9	San Antonio Palopo	9	Septiembre	2023-08-09T00:00:00	2024-11-08T10:00:00	4	Temperatura máxima	24.1
6147	7	Sololá	712	San Antonio Palopó	9	San Antonio Palopo	9	Septiembre	2023-08-09T00:00:00	2024-11-08T10:00:00	3	Temperatura mínima	23.4
6148	7	Sololá	712	San Antonio Palopó	9	San Antonio Palopo	9	Septiembre	2023-08-09T00:00:00	2024-11-08T10:00:00	5	Humedad	71
6149	7	Sololá	712	San Antonio Palopó	9	San Antonio Palopo	9	Septiembre	2023-08-09T00:00:00	2024-11-08T10:00:00	6	Velocidad del viento	4.8
6150	7	Sololá	712	San Antonio Palopó	9	San Antonio Palopo	9	Septiembre	2023-08-09T00:00:00	2024-11-08T10:00:00	7	Dirección del viento	4.83
6151	7	Sololá	712	San Antonio Palopó	9	San Antonio Palopo	9	Septiembre	2023-08-09T00:00:00	2024-11-08T10:00:00	1	Precipitación	0
6152	7	Sololá	712	San Antonio Palopó	9	San Antonio Palopo	9	Septiembre	2023-08-09T00:00:00	2024-11-08T10:00:00	8	Radiación solar	605
6153	7	Sololá	712	San Antonio Palopó	9	San Antonio Palopo	9	Septiembre	2023-08-09T00:00:00	2024-11-08T11:00:00	2	Temperatura media	24.2
6154	7	Sololá	712	San Antonio Palopó	9	San Antonio Palopo	9	Septiembre	2023-08-09T00:00:00	2024-11-08T11:00:00	4	Temperatura máxima	24.4
6155	7	Sololá	712	San Antonio Palopó	9	San Antonio Palopo	9	Septiembre	2023-08-09T00:00:00	2024-11-08T11:00:00	3	Temperatura mínima	23.4
6156	7	Sololá	712	San Antonio Palopó	9	San Antonio Palopo	9	Septiembre	2023-08-09T00:00:00	2024-11-08T11:00:00	5	Humedad	73
6157	7	Sololá	712	San Antonio Palopó	9	San Antonio Palopo	9	Septiembre	2023-08-09T00:00:00	2024-11-08T11:00:00	6	Velocidad del viento	4.8
6158	7	Sololá	712	San Antonio Palopó	9	San Antonio Palopo	9	Septiembre	2023-08-09T00:00:00	2024-11-08T11:00:00	7	Dirección del viento	4.83
6159	7	Sololá	712	San Antonio Palopó	9	San Antonio Palopo	9	Septiembre	2023-08-09T00:00:00	2024-11-08T11:00:00	1	Precipitación	0
6160	7	Sololá	712	San Antonio Palopó	9	San Antonio Palopo	9	Septiembre	2023-08-09T00:00:00	2024-11-08T11:00:00	8	Radiación solar	806
6161	7	Sololá	712	San Antonio Palopó	9	San Antonio Palopo	9	Septiembre	2023-08-09T00:00:00	2024-11-08T12:00:00	2	Temperatura media	25.6
6162	7	Sololá	712	San Antonio Palopó	9	San Antonio Palopo	9	Septiembre	2023-08-09T00:00:00	2024-11-08T12:00:00	4	Temperatura máxima	25.6
6163	7	Sololá	712	San Antonio Palopó	9	San Antonio Palopo	9	Septiembre	2023-08-09T00:00:00	2024-11-08T12:00:00	3	Temperatura mínima	24.1
6164	7	Sololá	712	San Antonio Palopó	9	San Antonio Palopo	9	Septiembre	2023-08-09T00:00:00	2024-11-08T12:00:00	5	Humedad	68
6165	7	Sololá	712	San Antonio Palopó	9	San Antonio Palopo	9	Septiembre	2023-08-09T00:00:00	2024-11-08T12:00:00	6	Velocidad del viento	6.4
6166	7	Sololá	712	San Antonio Palopó	9	San Antonio Palopo	9	Septiembre	2023-08-09T00:00:00	2024-11-08T12:00:00	7	Dirección del viento	6.44
6167	7	Sololá	712	San Antonio Palopó	9	San Antonio Palopo	9	Septiembre	2023-08-09T00:00:00	2024-11-08T12:00:00	1	Precipitación	0
6168	7	Sololá	712	San Antonio Palopó	9	San Antonio Palopo	9	Septiembre	2023-08-09T00:00:00	2024-11-08T12:00:00	8	Radiación solar	980
6169	7	Sololá	712	San Antonio Palopó	9	San Antonio Palopo	9	Septiembre	2023-08-09T00:00:00	2024-11-08T13:00:00	2	Temperatura media	24.6
6170	7	Sololá	712	San Antonio Palopó	9	San Antonio Palopo	9	Septiembre	2023-08-09T00:00:00	2024-11-08T13:00:00	4	Temperatura máxima	25.9
6171	7	Sololá	712	San Antonio Palopó	9	San Antonio Palopo	9	Septiembre	2023-08-09T00:00:00	2024-11-08T13:00:00	3	Temperatura mínima	24.6
6172	7	Sololá	712	San Antonio Palopó	9	San Antonio Palopo	9	Septiembre	2023-08-09T00:00:00	2024-11-08T13:00:00	5	Humedad	69
6173	7	Sololá	712	San Antonio Palopó	9	San Antonio Palopo	9	Septiembre	2023-08-09T00:00:00	2024-11-08T13:00:00	6	Velocidad del viento	9.7
6174	7	Sololá	712	San Antonio Palopó	9	San Antonio Palopo	9	Septiembre	2023-08-09T00:00:00	2024-11-08T13:00:00	7	Dirección del viento	9.66
6175	7	Sololá	712	San Antonio Palopó	9	San Antonio Palopo	9	Septiembre	2023-08-09T00:00:00	2024-11-08T13:00:00	1	Precipitación	0
6176	7	Sololá	712	San Antonio Palopó	9	San Antonio Palopo	9	Septiembre	2023-08-09T00:00:00	2024-11-08T13:00:00	8	Radiación solar	1017
6177	7	Sololá	712	San Antonio Palopó	9	San Antonio Palopo	9	Septiembre	2023-08-09T00:00:00	2024-11-08T14:00:00	2	Temperatura media	24.9
6178	7	Sololá	712	San Antonio Palopó	9	San Antonio Palopo	9	Septiembre	2023-08-09T00:00:00	2024-11-08T14:00:00	4	Temperatura máxima	24.9
6179	7	Sololá	712	San Antonio Palopó	9	San Antonio Palopo	9	Septiembre	2023-08-09T00:00:00	2024-11-08T14:00:00	3	Temperatura mínima	24.3
6180	7	Sololá	712	San Antonio Palopó	9	San Antonio Palopo	9	Septiembre	2023-08-09T00:00:00	2024-11-08T14:00:00	5	Humedad	69
6181	7	Sololá	712	San Antonio Palopó	9	San Antonio Palopo	9	Septiembre	2023-08-09T00:00:00	2024-11-08T14:00:00	6	Velocidad del viento	11.3
6182	7	Sololá	712	San Antonio Palopó	9	San Antonio Palopo	9	Septiembre	2023-08-09T00:00:00	2024-11-08T14:00:00	7	Dirección del viento	11.27
6183	7	Sololá	712	San Antonio Palopó	9	San Antonio Palopo	9	Septiembre	2023-08-09T00:00:00	2024-11-08T14:00:00	1	Precipitación	0
6184	7	Sololá	712	San Antonio Palopó	9	San Antonio Palopo	9	Septiembre	2023-08-09T00:00:00	2024-11-08T14:00:00	8	Radiación solar	628
6185	7	Sololá	712	San Antonio Palopó	9	San Antonio Palopo	9	Septiembre	2023-08-09T00:00:00	2024-11-08T15:00:00	2	Temperatura media	24.8
6186	7	Sololá	712	San Antonio Palopó	9	San Antonio Palopo	9	Septiembre	2023-08-09T00:00:00	2024-11-08T15:00:00	4	Temperatura máxima	25.5
6187	7	Sololá	712	San Antonio Palopó	9	San Antonio Palopo	9	Septiembre	2023-08-09T00:00:00	2024-11-08T15:00:00	3	Temperatura mínima	24.5
6188	7	Sololá	712	San Antonio Palopó	9	San Antonio Palopo	9	Septiembre	2023-08-09T00:00:00	2024-11-08T15:00:00	5	Humedad	71
6189	7	Sololá	712	San Antonio Palopó	9	San Antonio Palopo	9	Septiembre	2023-08-09T00:00:00	2024-11-08T15:00:00	6	Velocidad del viento	9.7
6190	7	Sololá	712	San Antonio Palopó	9	San Antonio Palopo	9	Septiembre	2023-08-09T00:00:00	2024-11-08T15:00:00	7	Dirección del viento	9.66
6191	7	Sololá	712	San Antonio Palopó	9	San Antonio Palopo	9	Septiembre	2023-08-09T00:00:00	2024-11-08T15:00:00	1	Precipitación	0
6192	7	Sololá	712	San Antonio Palopó	9	San Antonio Palopo	9	Septiembre	2023-08-09T00:00:00	2024-11-08T15:00:00	8	Radiación solar	665
6193	7	Sololá	712	San Antonio Palopó	9	San Antonio Palopo	9	Septiembre	2023-08-09T00:00:00	2024-11-08T16:00:00	2	Temperatura media	23.4
6194	7	Sololá	712	San Antonio Palopó	9	San Antonio Palopo	9	Septiembre	2023-08-09T00:00:00	2024-11-08T16:00:00	4	Temperatura máxima	24.7
6195	7	Sololá	712	San Antonio Palopó	9	San Antonio Palopo	9	Septiembre	2023-08-09T00:00:00	2024-11-08T16:00:00	3	Temperatura mínima	23.2
6196	7	Sololá	712	San Antonio Palopó	9	San Antonio Palopo	9	Septiembre	2023-08-09T00:00:00	2024-11-08T16:00:00	5	Humedad	76
6197	7	Sololá	712	San Antonio Palopó	9	San Antonio Palopo	9	Septiembre	2023-08-09T00:00:00	2024-11-08T16:00:00	6	Velocidad del viento	11.3
6198	7	Sololá	712	San Antonio Palopó	9	San Antonio Palopo	9	Septiembre	2023-08-09T00:00:00	2024-11-08T16:00:00	7	Dirección del viento	11.27
6199	7	Sololá	712	San Antonio Palopó	9	San Antonio Palopo	9	Septiembre	2023-08-09T00:00:00	2024-11-08T16:00:00	1	Precipitación	0
6200	7	Sololá	712	San Antonio Palopó	9	San Antonio Palopo	9	Septiembre	2023-08-09T00:00:00	2024-11-08T16:00:00	8	Radiación solar	241
6201	7	Sololá	712	San Antonio Palopó	9	San Antonio Palopo	9	Septiembre	2023-08-09T00:00:00	2024-11-08T17:00:00	2	Temperatura media	22.1
6202	7	Sololá	712	San Antonio Palopó	9	San Antonio Palopo	9	Septiembre	2023-08-09T00:00:00	2024-11-08T17:00:00	4	Temperatura máxima	23.4
6203	7	Sololá	712	San Antonio Palopó	9	San Antonio Palopo	9	Septiembre	2023-08-09T00:00:00	2024-11-08T17:00:00	3	Temperatura mínima	22.1
6204	7	Sololá	712	San Antonio Palopó	9	San Antonio Palopo	9	Septiembre	2023-08-09T00:00:00	2024-11-08T17:00:00	5	Humedad	78
6205	7	Sololá	712	San Antonio Palopó	9	San Antonio Palopo	9	Septiembre	2023-08-09T00:00:00	2024-11-08T17:00:00	6	Velocidad del viento	8
6206	7	Sololá	712	San Antonio Palopó	9	San Antonio Palopo	9	Septiembre	2023-08-09T00:00:00	2024-11-08T17:00:00	7	Dirección del viento	8.05
6207	7	Sololá	712	San Antonio Palopó	9	San Antonio Palopo	9	Septiembre	2023-08-09T00:00:00	2024-11-08T17:00:00	1	Precipitación	0
6208	7	Sololá	712	San Antonio Palopó	9	San Antonio Palopo	9	Septiembre	2023-08-09T00:00:00	2024-11-08T17:00:00	8	Radiación solar	53
6209	7	Sololá	712	San Antonio Palopó	9	San Antonio Palopo	9	Septiembre	2023-08-09T00:00:00	2024-11-08T18:00:00	2	Temperatura media	20.8
6210	7	Sololá	712	San Antonio Palopó	9	San Antonio Palopo	9	Septiembre	2023-08-09T00:00:00	2024-11-08T18:00:00	4	Temperatura máxima	22.3
6211	7	Sololá	712	San Antonio Palopó	9	San Antonio Palopo	9	Septiembre	2023-08-09T00:00:00	2024-11-08T18:00:00	3	Temperatura mínima	20.8
6212	7	Sololá	712	San Antonio Palopó	9	San Antonio Palopo	9	Septiembre	2023-08-09T00:00:00	2024-11-08T18:00:00	5	Humedad	79
6213	7	Sololá	712	San Antonio Palopó	9	San Antonio Palopo	9	Septiembre	2023-08-09T00:00:00	2024-11-08T18:00:00	6	Velocidad del viento	6.4
6214	7	Sololá	712	San Antonio Palopó	9	San Antonio Palopo	9	Septiembre	2023-08-09T00:00:00	2024-11-08T18:00:00	7	Dirección del viento	6.44
6215	7	Sololá	712	San Antonio Palopó	9	San Antonio Palopo	9	Septiembre	2023-08-09T00:00:00	2024-11-08T18:00:00	1	Precipitación	0
6216	7	Sololá	712	San Antonio Palopó	9	San Antonio Palopo	9	Septiembre	2023-08-09T00:00:00	2024-11-08T18:00:00	8	Radiación solar	9
6217	7	Sololá	712	San Antonio Palopó	9	San Antonio Palopo	9	Septiembre	2023-08-09T00:00:00	2024-11-08T19:00:00	2	Temperatura media	18.8
6218	7	Sololá	712	San Antonio Palopó	9	San Antonio Palopo	9	Septiembre	2023-08-09T00:00:00	2024-11-08T19:00:00	4	Temperatura máxima	20.9
6219	7	Sololá	712	San Antonio Palopó	9	San Antonio Palopo	9	Septiembre	2023-08-09T00:00:00	2024-11-08T19:00:00	3	Temperatura mínima	18.8
6220	7	Sololá	712	San Antonio Palopó	9	San Antonio Palopo	9	Septiembre	2023-08-09T00:00:00	2024-11-08T19:00:00	5	Humedad	87
6221	7	Sololá	712	San Antonio Palopó	9	San Antonio Palopo	9	Septiembre	2023-08-09T00:00:00	2024-11-08T19:00:00	6	Velocidad del viento	6.4
6222	7	Sololá	712	San Antonio Palopó	9	San Antonio Palopo	9	Septiembre	2023-08-09T00:00:00	2024-11-08T19:00:00	7	Dirección del viento	6.44
6223	7	Sololá	712	San Antonio Palopó	9	San Antonio Palopo	9	Septiembre	2023-08-09T00:00:00	2024-11-08T19:00:00	1	Precipitación	10.8
6224	7	Sololá	712	San Antonio Palopó	9	San Antonio Palopo	9	Septiembre	2023-08-09T00:00:00	2024-11-08T19:00:00	8	Radiación solar	0
6225	7	Sololá	712	San Antonio Palopó	9	San Antonio Palopo	9	Septiembre	2023-08-09T00:00:00	2024-11-08T20:00:00	2	Temperatura media	18.4
6226	7	Sololá	712	San Antonio Palopó	9	San Antonio Palopo	9	Septiembre	2023-08-09T00:00:00	2024-11-08T20:00:00	4	Temperatura máxima	18.8
6227	7	Sololá	712	San Antonio Palopó	9	San Antonio Palopo	9	Septiembre	2023-08-09T00:00:00	2024-11-08T20:00:00	3	Temperatura mínima	17.9
6228	7	Sololá	712	San Antonio Palopó	9	San Antonio Palopo	9	Septiembre	2023-08-09T00:00:00	2024-11-08T20:00:00	5	Humedad	88
6229	7	Sololá	712	San Antonio Palopó	9	San Antonio Palopo	9	Septiembre	2023-08-09T00:00:00	2024-11-08T20:00:00	6	Velocidad del viento	6.4
6230	7	Sololá	712	San Antonio Palopó	9	San Antonio Palopo	9	Septiembre	2023-08-09T00:00:00	2024-11-08T20:00:00	7	Dirección del viento	6.44
6231	7	Sololá	712	San Antonio Palopó	9	San Antonio Palopo	9	Septiembre	2023-08-09T00:00:00	2024-11-08T20:00:00	1	Precipitación	2.6
6232	7	Sololá	712	San Antonio Palopó	9	San Antonio Palopo	9	Septiembre	2023-08-09T00:00:00	2024-11-08T20:00:00	8	Radiación solar	0
6233	7	Sololá	712	San Antonio Palopó	9	San Antonio Palopo	9	Septiembre	2023-08-09T00:00:00	2024-11-08T21:00:00	2	Temperatura media	18.4
6234	7	Sololá	712	San Antonio Palopó	9	San Antonio Palopo	9	Septiembre	2023-08-09T00:00:00	2024-11-08T21:00:00	4	Temperatura máxima	18.8
6235	7	Sololá	712	San Antonio Palopó	9	San Antonio Palopo	9	Septiembre	2023-08-09T00:00:00	2024-11-08T21:00:00	3	Temperatura mínima	18.3
6236	7	Sololá	712	San Antonio Palopó	9	San Antonio Palopo	9	Septiembre	2023-08-09T00:00:00	2024-11-08T21:00:00	5	Humedad	88
6237	7	Sololá	712	San Antonio Palopó	9	San Antonio Palopo	9	Septiembre	2023-08-09T00:00:00	2024-11-08T21:00:00	6	Velocidad del viento	1.6
6238	7	Sololá	712	San Antonio Palopó	9	San Antonio Palopo	9	Septiembre	2023-08-09T00:00:00	2024-11-08T21:00:00	7	Dirección del viento	1.61
6239	7	Sololá	712	San Antonio Palopó	9	San Antonio Palopo	9	Septiembre	2023-08-09T00:00:00	2024-11-08T21:00:00	1	Precipitación	1
6240	7	Sololá	712	San Antonio Palopó	9	San Antonio Palopo	9	Septiembre	2023-08-09T00:00:00	2024-11-08T21:00:00	8	Radiación solar	0
6241	7	Sololá	712	San Antonio Palopó	9	San Antonio Palopo	9	Septiembre	2023-08-09T00:00:00	2024-11-08T22:00:00	2	Temperatura media	19.3
6242	7	Sololá	712	San Antonio Palopó	9	San Antonio Palopo	9	Septiembre	2023-08-09T00:00:00	2024-11-08T22:00:00	4	Temperatura máxima	19.3
6243	7	Sololá	712	San Antonio Palopó	9	San Antonio Palopo	9	Septiembre	2023-08-09T00:00:00	2024-11-08T22:00:00	3	Temperatura mínima	18.1
6244	7	Sololá	712	San Antonio Palopó	9	San Antonio Palopo	9	Septiembre	2023-08-09T00:00:00	2024-11-08T22:00:00	5	Humedad	79
6245	7	Sololá	712	San Antonio Palopó	9	San Antonio Palopo	9	Septiembre	2023-08-09T00:00:00	2024-11-08T22:00:00	6	Velocidad del viento	3.2
6246	7	Sololá	712	San Antonio Palopó	9	San Antonio Palopo	9	Septiembre	2023-08-09T00:00:00	2024-11-08T22:00:00	7	Dirección del viento	3.22
6247	7	Sololá	712	San Antonio Palopó	9	San Antonio Palopo	9	Septiembre	2023-08-09T00:00:00	2024-11-08T22:00:00	1	Precipitación	0.6
6248	7	Sololá	712	San Antonio Palopó	9	San Antonio Palopo	9	Septiembre	2023-08-09T00:00:00	2024-11-08T22:00:00	8	Radiación solar	0
6249	7	Sololá	712	San Antonio Palopó	9	San Antonio Palopo	9	Septiembre	2023-08-09T00:00:00	2024-11-08T23:00:00	2	Temperatura media	18.9
6250	7	Sololá	712	San Antonio Palopó	9	San Antonio Palopo	9	Septiembre	2023-08-09T00:00:00	2024-11-08T23:00:00	4	Temperatura máxima	19.4
6251	7	Sololá	712	San Antonio Palopó	9	San Antonio Palopo	9	Septiembre	2023-08-09T00:00:00	2024-11-08T23:00:00	3	Temperatura mínima	18.6
6252	7	Sololá	712	San Antonio Palopó	9	San Antonio Palopo	9	Septiembre	2023-08-09T00:00:00	2024-11-08T23:00:00	5	Humedad	85
6253	7	Sololá	712	San Antonio Palopó	9	San Antonio Palopo	9	Septiembre	2023-08-09T00:00:00	2024-11-08T23:00:00	6	Velocidad del viento	4.8
6254	7	Sololá	712	San Antonio Palopó	9	San Antonio Palopo	9	Septiembre	2023-08-09T00:00:00	2024-11-08T23:00:00	7	Dirección del viento	4.83
6255	7	Sololá	712	San Antonio Palopó	9	San Antonio Palopo	9	Septiembre	2023-08-09T00:00:00	2024-11-08T23:00:00	1	Precipitación	0
6256	7	Sololá	712	San Antonio Palopó	9	San Antonio Palopo	9	Septiembre	2023-08-09T00:00:00	2024-11-08T23:00:00	8	Radiación solar	0
6257	7	Sololá	712	San Antonio Palopó	9	San Antonio Palopo	9	Septiembre	2023-09-09T00:00:00	2024-11-08T00:00:00	2	Temperatura media	18
6258	7	Sololá	712	San Antonio Palopó	9	San Antonio Palopo	9	Septiembre	2023-09-09T00:00:00	2024-11-08T00:00:00	4	Temperatura máxima	18.9
6259	7	Sololá	712	San Antonio Palopó	9	San Antonio Palopo	9	Septiembre	2023-09-09T00:00:00	2024-11-08T00:00:00	3	Temperatura mínima	17.9
6260	7	Sololá	712	San Antonio Palopó	9	San Antonio Palopo	9	Septiembre	2023-09-09T00:00:00	2024-11-08T00:00:00	5	Humedad	87
6261	7	Sololá	712	San Antonio Palopó	9	San Antonio Palopo	9	Septiembre	2023-09-09T00:00:00	2024-11-08T00:00:00	6	Velocidad del viento	3.2
6262	7	Sololá	712	San Antonio Palopó	9	San Antonio Palopo	9	Septiembre	2023-09-09T00:00:00	2024-11-08T00:00:00	7	Dirección del viento	3.22
6263	7	Sololá	712	San Antonio Palopó	9	San Antonio Palopo	9	Septiembre	2023-09-09T00:00:00	2024-11-08T00:00:00	1	Precipitación	0
6264	7	Sololá	712	San Antonio Palopó	9	San Antonio Palopo	9	Septiembre	2023-09-09T00:00:00	2024-11-08T00:00:00	8	Radiación solar	0
6265	7	Sololá	712	San Antonio Palopó	9	San Antonio Palopo	9	Septiembre	2023-09-09T00:00:00	2024-11-08T01:00:00	2	Temperatura media	18.1
6266	7	Sololá	712	San Antonio Palopó	9	San Antonio Palopo	9	Septiembre	2023-09-09T00:00:00	2024-11-08T01:00:00	4	Temperatura máxima	18.1
6267	7	Sololá	712	San Antonio Palopó	9	San Antonio Palopo	9	Septiembre	2023-09-09T00:00:00	2024-11-08T01:00:00	3	Temperatura mínima	17.7
6268	7	Sololá	712	San Antonio Palopó	9	San Antonio Palopo	9	Septiembre	2023-09-09T00:00:00	2024-11-08T01:00:00	5	Humedad	85
6269	7	Sololá	712	San Antonio Palopó	9	San Antonio Palopo	9	Septiembre	2023-09-09T00:00:00	2024-11-08T01:00:00	6	Velocidad del viento	1.6
6270	7	Sololá	712	San Antonio Palopó	9	San Antonio Palopo	9	Septiembre	2023-09-09T00:00:00	2024-11-08T01:00:00	7	Dirección del viento	1.61
6271	7	Sololá	712	San Antonio Palopó	9	San Antonio Palopo	9	Septiembre	2023-09-09T00:00:00	2024-11-08T01:00:00	1	Precipitación	0
6272	7	Sololá	712	San Antonio Palopó	9	San Antonio Palopo	9	Septiembre	2023-09-09T00:00:00	2024-11-08T01:00:00	8	Radiación solar	0
6273	7	Sololá	712	San Antonio Palopó	9	San Antonio Palopo	9	Septiembre	2023-09-09T00:00:00	2024-11-08T02:00:00	2	Temperatura media	19.4
6274	7	Sololá	712	San Antonio Palopó	9	San Antonio Palopo	9	Septiembre	2023-09-09T00:00:00	2024-11-08T02:00:00	4	Temperatura máxima	19.5
6275	7	Sololá	712	San Antonio Palopó	9	San Antonio Palopo	9	Septiembre	2023-09-09T00:00:00	2024-11-08T02:00:00	3	Temperatura mínima	18.1
6276	7	Sololá	712	San Antonio Palopó	9	San Antonio Palopo	9	Septiembre	2023-09-09T00:00:00	2024-11-08T02:00:00	5	Humedad	76
6277	7	Sololá	712	San Antonio Palopó	9	San Antonio Palopo	9	Septiembre	2023-09-09T00:00:00	2024-11-08T02:00:00	6	Velocidad del viento	4.8
6278	7	Sololá	712	San Antonio Palopó	9	San Antonio Palopo	9	Septiembre	2023-09-09T00:00:00	2024-11-08T02:00:00	7	Dirección del viento	4.83
6279	7	Sololá	712	San Antonio Palopó	9	San Antonio Palopo	9	Septiembre	2023-09-09T00:00:00	2024-11-08T02:00:00	1	Precipitación	0
6280	7	Sololá	712	San Antonio Palopó	9	San Antonio Palopo	9	Septiembre	2023-09-09T00:00:00	2024-11-08T02:00:00	8	Radiación solar	0
6281	7	Sololá	712	San Antonio Palopó	9	San Antonio Palopo	9	Septiembre	2023-09-09T00:00:00	2024-11-08T03:00:00	2	Temperatura media	19.1
6282	7	Sololá	712	San Antonio Palopó	9	San Antonio Palopo	9	Septiembre	2023-09-09T00:00:00	2024-11-08T03:00:00	4	Temperatura máxima	19.6
6283	7	Sololá	712	San Antonio Palopó	9	San Antonio Palopo	9	Septiembre	2023-09-09T00:00:00	2024-11-08T03:00:00	3	Temperatura mínima	19.1
6284	7	Sololá	712	San Antonio Palopó	9	San Antonio Palopo	9	Septiembre	2023-09-09T00:00:00	2024-11-08T03:00:00	5	Humedad	80
6285	7	Sololá	712	San Antonio Palopó	9	San Antonio Palopo	9	Septiembre	2023-09-09T00:00:00	2024-11-08T03:00:00	6	Velocidad del viento	6.4
6286	7	Sololá	712	San Antonio Palopó	9	San Antonio Palopo	9	Septiembre	2023-09-09T00:00:00	2024-11-08T03:00:00	7	Dirección del viento	6.44
6287	7	Sololá	712	San Antonio Palopó	9	San Antonio Palopo	9	Septiembre	2023-09-09T00:00:00	2024-11-08T03:00:00	1	Precipitación	0
6288	7	Sololá	712	San Antonio Palopó	9	San Antonio Palopo	9	Septiembre	2023-09-09T00:00:00	2024-11-08T03:00:00	8	Radiación solar	0
6289	7	Sololá	712	San Antonio Palopó	9	San Antonio Palopo	9	Septiembre	2023-09-09T00:00:00	2024-11-08T04:00:00	2	Temperatura media	18.8
6290	7	Sololá	712	San Antonio Palopó	9	San Antonio Palopo	9	Septiembre	2023-09-09T00:00:00	2024-11-08T04:00:00	4	Temperatura máxima	19.2
6291	7	Sololá	712	San Antonio Palopó	9	San Antonio Palopo	9	Septiembre	2023-09-09T00:00:00	2024-11-08T04:00:00	3	Temperatura mínima	18.6
6292	7	Sololá	712	San Antonio Palopó	9	San Antonio Palopo	9	Septiembre	2023-09-09T00:00:00	2024-11-08T04:00:00	5	Humedad	76
6293	7	Sololá	712	San Antonio Palopó	9	San Antonio Palopo	9	Septiembre	2023-09-09T00:00:00	2024-11-08T04:00:00	6	Velocidad del viento	6.4
6294	7	Sololá	712	San Antonio Palopó	9	San Antonio Palopo	9	Septiembre	2023-09-09T00:00:00	2024-11-08T04:00:00	7	Dirección del viento	6.44
6295	7	Sololá	712	San Antonio Palopó	9	San Antonio Palopo	9	Septiembre	2023-09-09T00:00:00	2024-11-08T04:00:00	1	Precipitación	0
6296	7	Sololá	712	San Antonio Palopó	9	San Antonio Palopo	9	Septiembre	2023-09-09T00:00:00	2024-11-08T04:00:00	8	Radiación solar	0
6297	7	Sololá	712	San Antonio Palopó	9	San Antonio Palopo	9	Septiembre	2023-09-09T00:00:00	2024-11-08T05:00:00	2	Temperatura media	19.3
6298	7	Sololá	712	San Antonio Palopó	9	San Antonio Palopo	9	Septiembre	2023-09-09T00:00:00	2024-11-08T05:00:00	4	Temperatura máxima	19.4
6299	7	Sololá	712	San Antonio Palopó	9	San Antonio Palopo	9	Septiembre	2023-09-09T00:00:00	2024-11-08T05:00:00	3	Temperatura mínima	18.1
6300	7	Sololá	712	San Antonio Palopó	9	San Antonio Palopo	9	Septiembre	2023-09-09T00:00:00	2024-11-08T05:00:00	5	Humedad	72
6301	7	Sololá	712	San Antonio Palopó	9	San Antonio Palopo	9	Septiembre	2023-09-09T00:00:00	2024-11-08T05:00:00	6	Velocidad del viento	6.4
6302	7	Sololá	712	San Antonio Palopó	9	San Antonio Palopo	9	Septiembre	2023-09-09T00:00:00	2024-11-08T05:00:00	7	Dirección del viento	6.44
6303	7	Sololá	712	San Antonio Palopó	9	San Antonio Palopo	9	Septiembre	2023-09-09T00:00:00	2024-11-08T05:00:00	1	Precipitación	0
6304	7	Sololá	712	San Antonio Palopó	9	San Antonio Palopo	9	Septiembre	2023-09-09T00:00:00	2024-11-08T05:00:00	8	Radiación solar	0
6305	7	Sololá	712	San Antonio Palopó	9	San Antonio Palopo	9	Septiembre	2023-09-09T00:00:00	2024-11-08T06:00:00	2	Temperatura media	18
6306	7	Sololá	712	San Antonio Palopó	9	San Antonio Palopo	9	Septiembre	2023-09-09T00:00:00	2024-11-08T06:00:00	4	Temperatura máxima	19.3
6307	7	Sololá	712	San Antonio Palopó	9	San Antonio Palopo	9	Septiembre	2023-09-09T00:00:00	2024-11-08T06:00:00	3	Temperatura mínima	18
6308	7	Sololá	712	San Antonio Palopó	9	San Antonio Palopo	9	Septiembre	2023-09-09T00:00:00	2024-11-08T06:00:00	5	Humedad	76
6309	7	Sololá	712	San Antonio Palopó	9	San Antonio Palopo	9	Septiembre	2023-09-09T00:00:00	2024-11-08T06:00:00	6	Velocidad del viento	8
6310	7	Sololá	712	San Antonio Palopó	9	San Antonio Palopo	9	Septiembre	2023-09-09T00:00:00	2024-11-08T06:00:00	7	Dirección del viento	8.05
6311	7	Sololá	712	San Antonio Palopó	9	San Antonio Palopo	9	Septiembre	2023-09-09T00:00:00	2024-11-08T06:00:00	1	Precipitación	0
6312	7	Sololá	712	San Antonio Palopó	9	San Antonio Palopo	9	Septiembre	2023-09-09T00:00:00	2024-11-08T06:00:00	8	Radiación solar	1
6313	7	Sololá	712	San Antonio Palopó	9	San Antonio Palopo	9	Septiembre	2023-09-09T00:00:00	2024-11-08T07:00:00	2	Temperatura media	19.1
6314	7	Sololá	712	San Antonio Palopó	9	San Antonio Palopo	9	Septiembre	2023-09-09T00:00:00	2024-11-08T07:00:00	4	Temperatura máxima	19.2
6315	7	Sololá	712	San Antonio Palopó	9	San Antonio Palopo	9	Septiembre	2023-09-09T00:00:00	2024-11-08T07:00:00	3	Temperatura mínima	17.9
6316	7	Sololá	712	San Antonio Palopó	9	San Antonio Palopo	9	Septiembre	2023-09-09T00:00:00	2024-11-08T07:00:00	5	Humedad	74
6317	7	Sololá	712	San Antonio Palopó	9	San Antonio Palopo	9	Septiembre	2023-09-09T00:00:00	2024-11-08T07:00:00	6	Velocidad del viento	8
6318	7	Sololá	712	San Antonio Palopó	9	San Antonio Palopo	9	Septiembre	2023-09-09T00:00:00	2024-11-08T07:00:00	7	Dirección del viento	8.05
6319	7	Sololá	712	San Antonio Palopó	9	San Antonio Palopo	9	Septiembre	2023-09-09T00:00:00	2024-11-08T07:00:00	1	Precipitación	0
6320	7	Sololá	712	San Antonio Palopó	9	San Antonio Palopo	9	Septiembre	2023-09-09T00:00:00	2024-11-08T07:00:00	8	Radiación solar	47
6321	7	Sololá	712	San Antonio Palopó	9	San Antonio Palopo	9	Septiembre	2023-09-09T00:00:00	2024-11-08T08:00:00	2	Temperatura media	20.2
6322	7	Sololá	712	San Antonio Palopó	9	San Antonio Palopo	9	Septiembre	2023-09-09T00:00:00	2024-11-08T08:00:00	4	Temperatura máxima	20.2
6323	7	Sololá	712	San Antonio Palopó	9	San Antonio Palopo	9	Septiembre	2023-09-09T00:00:00	2024-11-08T08:00:00	3	Temperatura mínima	19.1
6324	7	Sololá	712	San Antonio Palopó	9	San Antonio Palopo	9	Septiembre	2023-09-09T00:00:00	2024-11-08T08:00:00	5	Humedad	73
6325	7	Sololá	712	San Antonio Palopó	9	San Antonio Palopo	9	Septiembre	2023-09-09T00:00:00	2024-11-08T08:00:00	6	Velocidad del viento	3.2
6326	7	Sololá	712	San Antonio Palopó	9	San Antonio Palopo	9	Septiembre	2023-09-09T00:00:00	2024-11-08T08:00:00	7	Dirección del viento	3.22
6327	7	Sololá	712	San Antonio Palopó	9	San Antonio Palopo	9	Septiembre	2023-09-09T00:00:00	2024-11-08T08:00:00	1	Precipitación	0
6328	7	Sololá	712	San Antonio Palopó	9	San Antonio Palopo	9	Septiembre	2023-09-09T00:00:00	2024-11-08T08:00:00	8	Radiación solar	154
6329	7	Sololá	712	San Antonio Palopó	9	San Antonio Palopo	9	Septiembre	2023-09-09T00:00:00	2024-11-08T09:00:00	2	Temperatura media	20.9
6330	7	Sololá	712	San Antonio Palopó	9	San Antonio Palopo	9	Septiembre	2023-09-09T00:00:00	2024-11-08T09:00:00	4	Temperatura máxima	20.9
6331	7	Sololá	712	San Antonio Palopó	9	San Antonio Palopo	9	Septiembre	2023-09-09T00:00:00	2024-11-08T09:00:00	3	Temperatura mínima	20.2
6332	7	Sololá	712	San Antonio Palopó	9	San Antonio Palopo	9	Septiembre	2023-09-09T00:00:00	2024-11-08T09:00:00	5	Humedad	70
6333	7	Sololá	712	San Antonio Palopó	9	San Antonio Palopo	9	Septiembre	2023-09-09T00:00:00	2024-11-08T09:00:00	6	Velocidad del viento	3.2
6334	7	Sololá	712	San Antonio Palopó	9	San Antonio Palopo	9	Septiembre	2023-09-09T00:00:00	2024-11-08T09:00:00	7	Dirección del viento	3.22
6335	7	Sololá	712	San Antonio Palopó	9	San Antonio Palopo	9	Septiembre	2023-09-09T00:00:00	2024-11-08T09:00:00	1	Precipitación	0
6336	7	Sololá	712	San Antonio Palopó	9	San Antonio Palopo	9	Septiembre	2023-09-09T00:00:00	2024-11-08T09:00:00	8	Radiación solar	332
6337	7	Sololá	712	San Antonio Palopó	9	San Antonio Palopo	9	Septiembre	2023-09-09T00:00:00	2024-11-08T10:00:00	2	Temperatura media	21.4
6338	7	Sololá	712	San Antonio Palopó	9	San Antonio Palopo	9	Septiembre	2023-09-09T00:00:00	2024-11-08T10:00:00	4	Temperatura máxima	21.6
6339	7	Sololá	712	San Antonio Palopó	9	San Antonio Palopo	9	Septiembre	2023-09-09T00:00:00	2024-11-08T10:00:00	3	Temperatura mínima	20.8
6340	7	Sololá	712	San Antonio Palopó	9	San Antonio Palopo	9	Septiembre	2023-09-09T00:00:00	2024-11-08T10:00:00	5	Humedad	70
6341	7	Sololá	712	San Antonio Palopó	9	San Antonio Palopo	9	Septiembre	2023-09-09T00:00:00	2024-11-08T10:00:00	6	Velocidad del viento	1.6
6342	7	Sololá	712	San Antonio Palopó	9	San Antonio Palopo	9	Septiembre	2023-09-09T00:00:00	2024-11-08T10:00:00	7	Dirección del viento	1.61
6343	7	Sololá	712	San Antonio Palopó	9	San Antonio Palopo	9	Septiembre	2023-09-09T00:00:00	2024-11-08T10:00:00	1	Precipitación	0
6344	7	Sololá	712	San Antonio Palopó	9	San Antonio Palopo	9	Septiembre	2023-09-09T00:00:00	2024-11-08T10:00:00	8	Radiación solar	344
6345	7	Sololá	712	San Antonio Palopó	9	San Antonio Palopo	9	Septiembre	2023-09-09T00:00:00	2024-11-08T11:00:00	2	Temperatura media	23.5
6346	7	Sololá	712	San Antonio Palopó	9	San Antonio Palopo	9	Septiembre	2023-09-09T00:00:00	2024-11-08T11:00:00	4	Temperatura máxima	23.5
6347	7	Sololá	712	San Antonio Palopó	9	San Antonio Palopo	9	Septiembre	2023-09-09T00:00:00	2024-11-08T11:00:00	3	Temperatura mínima	21.4
6348	7	Sololá	712	San Antonio Palopó	9	San Antonio Palopo	9	Septiembre	2023-09-09T00:00:00	2024-11-08T11:00:00	5	Humedad	68
6349	7	Sololá	712	San Antonio Palopó	9	San Antonio Palopo	9	Septiembre	2023-09-09T00:00:00	2024-11-08T11:00:00	6	Velocidad del viento	3.2
6350	7	Sololá	712	San Antonio Palopó	9	San Antonio Palopo	9	Septiembre	2023-09-09T00:00:00	2024-11-08T11:00:00	7	Dirección del viento	3.22
6351	7	Sololá	712	San Antonio Palopó	9	San Antonio Palopo	9	Septiembre	2023-09-09T00:00:00	2024-11-08T11:00:00	1	Precipitación	0
6352	7	Sololá	712	San Antonio Palopó	9	San Antonio Palopo	9	Septiembre	2023-09-09T00:00:00	2024-11-08T11:00:00	8	Radiación solar	830
6353	7	Sololá	712	San Antonio Palopó	9	San Antonio Palopo	9	Septiembre	2023-09-09T00:00:00	2024-11-08T12:00:00	2	Temperatura media	23.8
6354	7	Sololá	712	San Antonio Palopó	9	San Antonio Palopo	9	Septiembre	2023-09-09T00:00:00	2024-11-08T12:00:00	4	Temperatura máxima	24.1
6355	7	Sololá	712	San Antonio Palopó	9	San Antonio Palopo	9	Septiembre	2023-09-09T00:00:00	2024-11-08T12:00:00	3	Temperatura mínima	22.6
6356	7	Sololá	712	San Antonio Palopó	9	San Antonio Palopo	9	Septiembre	2023-09-09T00:00:00	2024-11-08T12:00:00	5	Humedad	69
6357	7	Sololá	712	San Antonio Palopó	9	San Antonio Palopo	9	Septiembre	2023-09-09T00:00:00	2024-11-08T12:00:00	6	Velocidad del viento	3.2
6358	7	Sololá	712	San Antonio Palopó	9	San Antonio Palopo	9	Septiembre	2023-09-09T00:00:00	2024-11-08T12:00:00	7	Dirección del viento	3.22
6359	7	Sololá	712	San Antonio Palopó	9	San Antonio Palopo	9	Septiembre	2023-09-09T00:00:00	2024-11-08T12:00:00	1	Precipitación	0
6360	7	Sololá	712	San Antonio Palopó	9	San Antonio Palopo	9	Septiembre	2023-09-09T00:00:00	2024-11-08T12:00:00	8	Radiación solar	717
6361	7	Sololá	712	San Antonio Palopó	9	San Antonio Palopo	9	Septiembre	2023-09-09T00:00:00	2024-11-08T13:00:00	2	Temperatura media	23.3
6362	7	Sololá	712	San Antonio Palopó	9	San Antonio Palopo	9	Septiembre	2023-09-09T00:00:00	2024-11-08T13:00:00	4	Temperatura máxima	23.8
6363	7	Sololá	712	San Antonio Palopó	9	San Antonio Palopo	9	Septiembre	2023-09-09T00:00:00	2024-11-08T13:00:00	3	Temperatura mínima	23.3
6364	7	Sololá	712	San Antonio Palopó	9	San Antonio Palopo	9	Septiembre	2023-09-09T00:00:00	2024-11-08T13:00:00	5	Humedad	72
6365	7	Sololá	712	San Antonio Palopó	9	San Antonio Palopo	9	Septiembre	2023-09-09T00:00:00	2024-11-08T13:00:00	6	Velocidad del viento	3.2
6366	7	Sololá	712	San Antonio Palopó	9	San Antonio Palopo	9	Septiembre	2023-09-09T00:00:00	2024-11-08T13:00:00	7	Dirección del viento	3.22
6367	7	Sololá	712	San Antonio Palopó	9	San Antonio Palopo	9	Septiembre	2023-09-09T00:00:00	2024-11-08T13:00:00	1	Precipitación	0
6368	7	Sololá	712	San Antonio Palopó	9	San Antonio Palopo	9	Septiembre	2023-09-09T00:00:00	2024-11-08T13:00:00	8	Radiación solar	387
6369	7	Sololá	712	San Antonio Palopó	9	San Antonio Palopo	9	Septiembre	2023-09-09T00:00:00	2024-11-08T14:00:00	2	Temperatura media	23.3
6370	7	Sololá	712	San Antonio Palopó	9	San Antonio Palopo	9	Septiembre	2023-09-09T00:00:00	2024-11-08T14:00:00	4	Temperatura máxima	23.8
6371	7	Sololá	712	San Antonio Palopó	9	San Antonio Palopo	9	Septiembre	2023-09-09T00:00:00	2024-11-08T14:00:00	3	Temperatura mínima	23.1
6372	7	Sololá	712	San Antonio Palopó	9	San Antonio Palopo	9	Septiembre	2023-09-09T00:00:00	2024-11-08T14:00:00	5	Humedad	73
6373	7	Sololá	712	San Antonio Palopó	9	San Antonio Palopo	9	Septiembre	2023-09-09T00:00:00	2024-11-08T14:00:00	6	Velocidad del viento	3.2
6374	7	Sololá	712	San Antonio Palopó	9	San Antonio Palopo	9	Septiembre	2023-09-09T00:00:00	2024-11-08T14:00:00	7	Dirección del viento	3.22
6375	7	Sololá	712	San Antonio Palopó	9	San Antonio Palopo	9	Septiembre	2023-09-09T00:00:00	2024-11-08T14:00:00	1	Precipitación	0
6376	7	Sololá	712	San Antonio Palopó	9	San Antonio Palopo	9	Septiembre	2023-09-09T00:00:00	2024-11-08T14:00:00	8	Radiación solar	210
6377	7	Sololá	712	San Antonio Palopó	9	San Antonio Palopo	9	Septiembre	2023-09-09T00:00:00	2024-11-08T15:00:00	2	Temperatura media	22
6378	7	Sololá	712	San Antonio Palopó	9	San Antonio Palopo	9	Septiembre	2023-09-09T00:00:00	2024-11-08T15:00:00	4	Temperatura máxima	24.4
6379	7	Sololá	712	San Antonio Palopó	9	San Antonio Palopo	9	Septiembre	2023-09-09T00:00:00	2024-11-08T15:00:00	3	Temperatura mínima	22
6380	7	Sololá	712	San Antonio Palopó	9	San Antonio Palopo	9	Septiembre	2023-09-09T00:00:00	2024-11-08T15:00:00	5	Humedad	77
6381	7	Sololá	712	San Antonio Palopó	9	San Antonio Palopo	9	Septiembre	2023-09-09T00:00:00	2024-11-08T15:00:00	6	Velocidad del viento	6.4
6382	7	Sololá	712	San Antonio Palopó	9	San Antonio Palopo	9	Septiembre	2023-09-09T00:00:00	2024-11-08T15:00:00	7	Dirección del viento	6.44
6383	7	Sololá	712	San Antonio Palopó	9	San Antonio Palopo	9	Septiembre	2023-09-09T00:00:00	2024-11-08T15:00:00	1	Precipitación	0
6384	7	Sololá	712	San Antonio Palopó	9	San Antonio Palopo	9	Septiembre	2023-09-09T00:00:00	2024-11-08T15:00:00	8	Radiación solar	166
6385	7	Sololá	712	San Antonio Palopó	9	San Antonio Palopo	9	Septiembre	2023-09-09T00:00:00	2024-11-08T16:00:00	2	Temperatura media	20.4
6386	7	Sololá	712	San Antonio Palopó	9	San Antonio Palopo	9	Septiembre	2023-09-09T00:00:00	2024-11-08T16:00:00	4	Temperatura máxima	22.2
6387	7	Sololá	712	San Antonio Palopó	9	San Antonio Palopo	9	Septiembre	2023-09-09T00:00:00	2024-11-08T16:00:00	3	Temperatura mínima	20.3
6388	7	Sololá	712	San Antonio Palopó	9	San Antonio Palopo	9	Septiembre	2023-09-09T00:00:00	2024-11-08T16:00:00	5	Humedad	84
6389	7	Sololá	712	San Antonio Palopó	9	San Antonio Palopo	9	Septiembre	2023-09-09T00:00:00	2024-11-08T16:00:00	6	Velocidad del viento	4.8
6390	7	Sololá	712	San Antonio Palopó	9	San Antonio Palopo	9	Septiembre	2023-09-09T00:00:00	2024-11-08T16:00:00	7	Dirección del viento	4.83
6391	7	Sololá	712	San Antonio Palopó	9	San Antonio Palopo	9	Septiembre	2023-09-09T00:00:00	2024-11-08T16:00:00	1	Precipitación	0
6392	7	Sololá	712	San Antonio Palopó	9	San Antonio Palopo	9	Septiembre	2023-09-09T00:00:00	2024-11-08T16:00:00	8	Radiación solar	34
6393	7	Sololá	712	San Antonio Palopó	9	San Antonio Palopo	9	Septiembre	2023-09-09T00:00:00	2024-11-08T17:00:00	2	Temperatura media	19.9
6394	7	Sololá	712	San Antonio Palopó	9	San Antonio Palopo	9	Septiembre	2023-09-09T00:00:00	2024-11-08T17:00:00	4	Temperatura máxima	20.4
6395	7	Sololá	712	San Antonio Palopó	9	San Antonio Palopo	9	Septiembre	2023-09-09T00:00:00	2024-11-08T17:00:00	3	Temperatura mínima	19.9
6396	7	Sololá	712	San Antonio Palopó	9	San Antonio Palopo	9	Septiembre	2023-09-09T00:00:00	2024-11-08T17:00:00	5	Humedad	86
6397	7	Sololá	712	San Antonio Palopó	9	San Antonio Palopo	9	Septiembre	2023-09-09T00:00:00	2024-11-08T17:00:00	6	Velocidad del viento	3.2
6398	7	Sololá	712	San Antonio Palopó	9	San Antonio Palopo	9	Septiembre	2023-09-09T00:00:00	2024-11-08T17:00:00	7	Dirección del viento	3.22
6399	7	Sololá	712	San Antonio Palopó	9	San Antonio Palopo	9	Septiembre	2023-09-09T00:00:00	2024-11-08T17:00:00	1	Precipitación	0.4
6400	7	Sololá	712	San Antonio Palopó	9	San Antonio Palopo	9	Septiembre	2023-09-09T00:00:00	2024-11-08T17:00:00	8	Radiación solar	20
6401	7	Sololá	712	San Antonio Palopó	9	San Antonio Palopo	9	Septiembre	2023-09-09T00:00:00	2024-11-08T18:00:00	2	Temperatura media	19.5
6402	7	Sololá	712	San Antonio Palopó	9	San Antonio Palopo	9	Septiembre	2023-09-09T00:00:00	2024-11-08T18:00:00	4	Temperatura máxima	19.9
6403	7	Sololá	712	San Antonio Palopó	9	San Antonio Palopo	9	Septiembre	2023-09-09T00:00:00	2024-11-08T18:00:00	3	Temperatura mínima	19.4
6404	7	Sololá	712	San Antonio Palopó	9	San Antonio Palopo	9	Septiembre	2023-09-09T00:00:00	2024-11-08T18:00:00	5	Humedad	87
6405	7	Sololá	712	San Antonio Palopó	9	San Antonio Palopo	9	Septiembre	2023-09-09T00:00:00	2024-11-08T18:00:00	6	Velocidad del viento	1.6
6406	7	Sololá	712	San Antonio Palopó	9	San Antonio Palopo	9	Septiembre	2023-09-09T00:00:00	2024-11-08T18:00:00	7	Dirección del viento	1.61
6407	7	Sololá	712	San Antonio Palopó	9	San Antonio Palopo	9	Septiembre	2023-09-09T00:00:00	2024-11-08T18:00:00	1	Precipitación	0.2
6408	7	Sololá	712	San Antonio Palopó	9	San Antonio Palopo	9	Septiembre	2023-09-09T00:00:00	2024-11-08T18:00:00	8	Radiación solar	13
6409	7	Sololá	712	San Antonio Palopó	9	San Antonio Palopo	9	Septiembre	2023-09-09T00:00:00	2024-11-08T19:00:00	2	Temperatura media	19.1
6410	7	Sololá	712	San Antonio Palopó	9	San Antonio Palopo	9	Septiembre	2023-09-09T00:00:00	2024-11-08T19:00:00	4	Temperatura máxima	19.7
6411	7	Sololá	712	San Antonio Palopó	9	San Antonio Palopo	9	Septiembre	2023-09-09T00:00:00	2024-11-08T19:00:00	3	Temperatura mínima	19.1
6412	7	Sololá	712	San Antonio Palopó	9	San Antonio Palopo	9	Septiembre	2023-09-09T00:00:00	2024-11-08T19:00:00	5	Humedad	89
6413	7	Sololá	712	San Antonio Palopó	9	San Antonio Palopo	9	Septiembre	2023-09-09T00:00:00	2024-11-08T19:00:00	6	Velocidad del viento	3.2
6414	7	Sololá	712	San Antonio Palopó	9	San Antonio Palopo	9	Septiembre	2023-09-09T00:00:00	2024-11-08T19:00:00	7	Dirección del viento	3.22
6415	7	Sololá	712	San Antonio Palopó	9	San Antonio Palopo	9	Septiembre	2023-09-09T00:00:00	2024-11-08T19:00:00	1	Precipitación	0
6416	7	Sololá	712	San Antonio Palopó	9	San Antonio Palopo	9	Septiembre	2023-09-09T00:00:00	2024-11-08T19:00:00	8	Radiación solar	0
6417	7	Sololá	712	San Antonio Palopó	9	San Antonio Palopo	9	Septiembre	2023-09-09T00:00:00	2024-11-08T20:00:00	2	Temperatura media	19.4
6418	7	Sololá	712	San Antonio Palopó	9	San Antonio Palopo	9	Septiembre	2023-09-09T00:00:00	2024-11-08T20:00:00	4	Temperatura máxima	19.4
6419	7	Sololá	712	San Antonio Palopó	9	San Antonio Palopo	9	Septiembre	2023-09-09T00:00:00	2024-11-08T20:00:00	3	Temperatura mínima	19
6420	7	Sololá	712	San Antonio Palopó	9	San Antonio Palopo	9	Septiembre	2023-09-09T00:00:00	2024-11-08T20:00:00	5	Humedad	88
6421	7	Sololá	712	San Antonio Palopó	9	San Antonio Palopo	9	Septiembre	2023-09-09T00:00:00	2024-11-08T20:00:00	6	Velocidad del viento	3.2
6422	7	Sololá	712	San Antonio Palopó	9	San Antonio Palopo	9	Septiembre	2023-09-09T00:00:00	2024-11-08T20:00:00	7	Dirección del viento	3.22
6423	7	Sololá	712	San Antonio Palopó	9	San Antonio Palopo	9	Septiembre	2023-09-09T00:00:00	2024-11-08T20:00:00	1	Precipitación	0
6424	7	Sololá	712	San Antonio Palopó	9	San Antonio Palopo	9	Septiembre	2023-09-09T00:00:00	2024-11-08T20:00:00	8	Radiación solar	0
6425	7	Sololá	712	San Antonio Palopó	9	San Antonio Palopo	9	Septiembre	2023-09-09T00:00:00	2024-11-08T21:00:00	2	Temperatura media	19
6426	7	Sololá	712	San Antonio Palopó	9	San Antonio Palopo	9	Septiembre	2023-09-09T00:00:00	2024-11-08T21:00:00	4	Temperatura máxima	19.4
6427	7	Sololá	712	San Antonio Palopó	9	San Antonio Palopo	9	Septiembre	2023-09-09T00:00:00	2024-11-08T21:00:00	3	Temperatura mínima	19
6428	7	Sololá	712	San Antonio Palopó	9	San Antonio Palopo	9	Septiembre	2023-09-09T00:00:00	2024-11-08T21:00:00	5	Humedad	89
6429	7	Sololá	712	San Antonio Palopó	9	San Antonio Palopo	9	Septiembre	2023-09-09T00:00:00	2024-11-08T21:00:00	6	Velocidad del viento	3.2
6430	7	Sololá	712	San Antonio Palopó	9	San Antonio Palopo	9	Septiembre	2023-09-09T00:00:00	2024-11-08T21:00:00	7	Dirección del viento	3.22
6431	7	Sololá	712	San Antonio Palopó	9	San Antonio Palopo	9	Septiembre	2023-09-09T00:00:00	2024-11-08T21:00:00	1	Precipitación	0
6432	7	Sololá	712	San Antonio Palopó	9	San Antonio Palopo	9	Septiembre	2023-09-09T00:00:00	2024-11-08T21:00:00	8	Radiación solar	0
6433	7	Sololá	712	San Antonio Palopó	9	San Antonio Palopo	9	Septiembre	2023-09-09T00:00:00	2024-11-08T22:00:00	2	Temperatura media	19
6434	7	Sololá	712	San Antonio Palopó	9	San Antonio Palopo	9	Septiembre	2023-09-09T00:00:00	2024-11-08T22:00:00	4	Temperatura máxima	19
6435	7	Sololá	712	San Antonio Palopó	9	San Antonio Palopo	9	Septiembre	2023-09-09T00:00:00	2024-11-08T22:00:00	3	Temperatura mínima	18.7
6436	7	Sololá	712	San Antonio Palopó	9	San Antonio Palopo	9	Septiembre	2023-09-09T00:00:00	2024-11-08T22:00:00	5	Humedad	90
6437	7	Sololá	712	San Antonio Palopó	9	San Antonio Palopo	9	Septiembre	2023-09-09T00:00:00	2024-11-08T22:00:00	6	Velocidad del viento	3.2
6438	7	Sololá	712	San Antonio Palopó	9	San Antonio Palopo	9	Septiembre	2023-09-09T00:00:00	2024-11-08T22:00:00	7	Dirección del viento	3.22
6439	7	Sololá	712	San Antonio Palopó	9	San Antonio Palopo	9	Septiembre	2023-09-09T00:00:00	2024-11-08T22:00:00	1	Precipitación	0
6440	7	Sololá	712	San Antonio Palopó	9	San Antonio Palopo	9	Septiembre	2023-09-09T00:00:00	2024-11-08T22:00:00	8	Radiación solar	0
6441	7	Sololá	712	San Antonio Palopó	9	San Antonio Palopo	9	Septiembre	2023-09-09T00:00:00	2024-11-08T23:00:00	2	Temperatura media	19.3
6442	7	Sololá	712	San Antonio Palopó	9	San Antonio Palopo	9	Septiembre	2023-09-09T00:00:00	2024-11-08T23:00:00	4	Temperatura máxima	19.4
6443	7	Sololá	712	San Antonio Palopó	9	San Antonio Palopo	9	Septiembre	2023-09-09T00:00:00	2024-11-08T23:00:00	3	Temperatura mínima	19
6444	7	Sololá	712	San Antonio Palopó	9	San Antonio Palopo	9	Septiembre	2023-09-09T00:00:00	2024-11-08T23:00:00	5	Humedad	88
6445	7	Sololá	712	San Antonio Palopó	9	San Antonio Palopo	9	Septiembre	2023-09-09T00:00:00	2024-11-08T23:00:00	6	Velocidad del viento	1.6
6446	7	Sololá	712	San Antonio Palopó	9	San Antonio Palopo	9	Septiembre	2023-09-09T00:00:00	2024-11-08T23:00:00	7	Dirección del viento	1.61
6447	7	Sololá	712	San Antonio Palopó	9	San Antonio Palopo	9	Septiembre	2023-09-09T00:00:00	2024-11-08T23:00:00	1	Precipitación	0
6448	7	Sololá	712	San Antonio Palopó	9	San Antonio Palopo	9	Septiembre	2023-09-09T00:00:00	2024-11-08T23:00:00	8	Radiación solar	0
6449	7	Sololá	712	San Antonio Palopó	9	San Antonio Palopo	9	Septiembre	2023-10-09T00:00:00	2024-11-08T00:00:00	2	Temperatura media	19.7
6450	7	Sololá	712	San Antonio Palopó	9	San Antonio Palopo	9	Septiembre	2023-10-09T00:00:00	2024-11-08T00:00:00	4	Temperatura máxima	19.9
6451	7	Sololá	712	San Antonio Palopó	9	San Antonio Palopo	9	Septiembre	2023-10-09T00:00:00	2024-11-08T00:00:00	3	Temperatura mínima	18.8
6452	7	Sololá	712	San Antonio Palopó	9	San Antonio Palopo	9	Septiembre	2023-10-09T00:00:00	2024-11-08T00:00:00	5	Humedad	80
6453	7	Sololá	712	San Antonio Palopó	9	San Antonio Palopo	9	Septiembre	2023-10-09T00:00:00	2024-11-08T00:00:00	6	Velocidad del viento	3.2
6454	7	Sololá	712	San Antonio Palopó	9	San Antonio Palopo	9	Septiembre	2023-10-09T00:00:00	2024-11-08T00:00:00	7	Dirección del viento	3.22
6455	7	Sololá	712	San Antonio Palopó	9	San Antonio Palopo	9	Septiembre	2023-10-09T00:00:00	2024-11-08T00:00:00	1	Precipitación	0
6456	7	Sololá	712	San Antonio Palopó	9	San Antonio Palopo	9	Septiembre	2023-10-09T00:00:00	2024-11-08T00:00:00	8	Radiación solar	0
6457	7	Sololá	712	San Antonio Palopó	9	San Antonio Palopo	9	Septiembre	2023-10-09T00:00:00	2024-11-08T01:00:00	2	Temperatura media	20.3
6458	7	Sololá	712	San Antonio Palopó	9	San Antonio Palopo	9	Septiembre	2023-10-09T00:00:00	2024-11-08T01:00:00	4	Temperatura máxima	20.3
6459	7	Sololá	712	San Antonio Palopó	9	San Antonio Palopo	9	Septiembre	2023-10-09T00:00:00	2024-11-08T01:00:00	3	Temperatura mínima	19.7
6460	7	Sololá	712	San Antonio Palopó	9	San Antonio Palopo	9	Septiembre	2023-10-09T00:00:00	2024-11-08T01:00:00	5	Humedad	73
6461	7	Sololá	712	San Antonio Palopó	9	San Antonio Palopo	9	Septiembre	2023-10-09T00:00:00	2024-11-08T01:00:00	6	Velocidad del viento	4.8
6462	7	Sololá	712	San Antonio Palopó	9	San Antonio Palopo	9	Septiembre	2023-10-09T00:00:00	2024-11-08T01:00:00	7	Dirección del viento	4.83
6463	7	Sololá	712	San Antonio Palopó	9	San Antonio Palopo	9	Septiembre	2023-10-09T00:00:00	2024-11-08T01:00:00	1	Precipitación	0
6464	7	Sololá	712	San Antonio Palopó	9	San Antonio Palopo	9	Septiembre	2023-10-09T00:00:00	2024-11-08T01:00:00	8	Radiación solar	0
6465	7	Sololá	712	San Antonio Palopó	9	San Antonio Palopo	9	Septiembre	2023-10-09T00:00:00	2024-11-08T02:00:00	2	Temperatura media	19.9
6466	7	Sololá	712	San Antonio Palopó	9	San Antonio Palopo	9	Septiembre	2023-10-09T00:00:00	2024-11-08T02:00:00	4	Temperatura máxima	20.3
6467	7	Sololá	712	San Antonio Palopó	9	San Antonio Palopo	9	Septiembre	2023-10-09T00:00:00	2024-11-08T02:00:00	3	Temperatura mínima	19.7
6468	7	Sololá	712	San Antonio Palopó	9	San Antonio Palopo	9	Septiembre	2023-10-09T00:00:00	2024-11-08T02:00:00	5	Humedad	74
6469	7	Sololá	712	San Antonio Palopó	9	San Antonio Palopo	9	Septiembre	2023-10-09T00:00:00	2024-11-08T02:00:00	6	Velocidad del viento	4.8
6470	7	Sololá	712	San Antonio Palopó	9	San Antonio Palopo	9	Septiembre	2023-10-09T00:00:00	2024-11-08T02:00:00	7	Dirección del viento	4.83
6471	7	Sololá	712	San Antonio Palopó	9	San Antonio Palopo	9	Septiembre	2023-10-09T00:00:00	2024-11-08T02:00:00	1	Precipitación	0
6472	7	Sololá	712	San Antonio Palopó	9	San Antonio Palopo	9	Septiembre	2023-10-09T00:00:00	2024-11-08T02:00:00	8	Radiación solar	0
6473	7	Sololá	712	San Antonio Palopó	9	San Antonio Palopo	9	Septiembre	2023-10-09T00:00:00	2024-11-08T03:00:00	2	Temperatura media	19.6
6474	7	Sololá	712	San Antonio Palopó	9	San Antonio Palopo	9	Septiembre	2023-10-09T00:00:00	2024-11-08T03:00:00	4	Temperatura máxima	20
6475	7	Sololá	712	San Antonio Palopó	9	San Antonio Palopo	9	Septiembre	2023-10-09T00:00:00	2024-11-08T03:00:00	3	Temperatura mínima	19.6
6476	7	Sololá	712	San Antonio Palopó	9	San Antonio Palopo	9	Septiembre	2023-10-09T00:00:00	2024-11-08T03:00:00	5	Humedad	75
6477	7	Sololá	712	San Antonio Palopó	9	San Antonio Palopo	9	Septiembre	2023-10-09T00:00:00	2024-11-08T03:00:00	6	Velocidad del viento	8
6478	7	Sololá	712	San Antonio Palopó	9	San Antonio Palopo	9	Septiembre	2023-10-09T00:00:00	2024-11-08T03:00:00	7	Dirección del viento	8.05
6479	7	Sololá	712	San Antonio Palopó	9	San Antonio Palopo	9	Septiembre	2023-10-09T00:00:00	2024-11-08T03:00:00	1	Precipitación	0
6480	7	Sololá	712	San Antonio Palopó	9	San Antonio Palopo	9	Septiembre	2023-10-09T00:00:00	2024-11-08T03:00:00	8	Radiación solar	0
6481	7	Sololá	712	San Antonio Palopó	9	San Antonio Palopo	9	Septiembre	2023-10-09T00:00:00	2024-11-08T04:00:00	2	Temperatura media	19.3
6482	7	Sololá	712	San Antonio Palopó	9	San Antonio Palopo	9	Septiembre	2023-10-09T00:00:00	2024-11-08T04:00:00	4	Temperatura máxima	19.7
6483	7	Sololá	712	San Antonio Palopó	9	San Antonio Palopo	9	Septiembre	2023-10-09T00:00:00	2024-11-08T04:00:00	3	Temperatura mínima	19.3
6484	7	Sololá	712	San Antonio Palopó	9	San Antonio Palopo	9	Septiembre	2023-10-09T00:00:00	2024-11-08T04:00:00	5	Humedad	75
6485	7	Sololá	712	San Antonio Palopó	9	San Antonio Palopo	9	Septiembre	2023-10-09T00:00:00	2024-11-08T04:00:00	6	Velocidad del viento	12.9
6486	7	Sololá	712	San Antonio Palopó	9	San Antonio Palopo	9	Septiembre	2023-10-09T00:00:00	2024-11-08T04:00:00	7	Dirección del viento	12.87
6487	7	Sololá	712	San Antonio Palopó	9	San Antonio Palopo	9	Septiembre	2023-10-09T00:00:00	2024-11-08T04:00:00	1	Precipitación	0
6488	7	Sololá	712	San Antonio Palopó	9	San Antonio Palopo	9	Septiembre	2023-10-09T00:00:00	2024-11-08T04:00:00	8	Radiación solar	0
6489	7	Sololá	712	San Antonio Palopó	9	San Antonio Palopo	9	Septiembre	2023-10-09T00:00:00	2024-11-08T05:00:00	2	Temperatura media	19.6
6490	7	Sololá	712	San Antonio Palopó	9	San Antonio Palopo	9	Septiembre	2023-10-09T00:00:00	2024-11-08T05:00:00	4	Temperatura máxima	19.6
6491	7	Sololá	712	San Antonio Palopó	9	San Antonio Palopo	9	Septiembre	2023-10-09T00:00:00	2024-11-08T05:00:00	3	Temperatura mínima	19.2
6492	7	Sololá	712	San Antonio Palopó	9	San Antonio Palopo	9	Septiembre	2023-10-09T00:00:00	2024-11-08T05:00:00	5	Humedad	72
6493	7	Sololá	712	San Antonio Palopó	9	San Antonio Palopo	9	Septiembre	2023-10-09T00:00:00	2024-11-08T05:00:00	6	Velocidad del viento	11.3
6494	7	Sololá	712	San Antonio Palopó	9	San Antonio Palopo	9	Septiembre	2023-10-09T00:00:00	2024-11-08T05:00:00	7	Dirección del viento	11.27
6495	7	Sololá	712	San Antonio Palopó	9	San Antonio Palopo	9	Septiembre	2023-10-09T00:00:00	2024-11-08T05:00:00	1	Precipitación	0
6496	7	Sololá	712	San Antonio Palopó	9	San Antonio Palopo	9	Septiembre	2023-10-09T00:00:00	2024-11-08T05:00:00	8	Radiación solar	0
6497	7	Sololá	712	San Antonio Palopó	9	San Antonio Palopo	9	Septiembre	2023-10-09T00:00:00	2024-11-08T06:00:00	2	Temperatura media	19.5
6498	7	Sololá	712	San Antonio Palopó	9	San Antonio Palopo	9	Septiembre	2023-10-09T00:00:00	2024-11-08T06:00:00	4	Temperatura máxima	20
6499	7	Sololá	712	San Antonio Palopó	9	San Antonio Palopo	9	Septiembre	2023-10-09T00:00:00	2024-11-08T06:00:00	3	Temperatura mínima	19.5
6500	7	Sololá	712	San Antonio Palopó	9	San Antonio Palopo	9	Septiembre	2023-10-09T00:00:00	2024-11-08T06:00:00	5	Humedad	74
6501	7	Sololá	712	San Antonio Palopó	9	San Antonio Palopo	9	Septiembre	2023-10-09T00:00:00	2024-11-08T06:00:00	6	Velocidad del viento	8
6502	7	Sololá	712	San Antonio Palopó	9	San Antonio Palopo	9	Septiembre	2023-10-09T00:00:00	2024-11-08T06:00:00	7	Dirección del viento	8.05
6503	7	Sololá	712	San Antonio Palopó	9	San Antonio Palopo	9	Septiembre	2023-10-09T00:00:00	2024-11-08T06:00:00	1	Precipitación	0
6504	7	Sololá	712	San Antonio Palopó	9	San Antonio Palopo	9	Septiembre	2023-10-09T00:00:00	2024-11-08T06:00:00	8	Radiación solar	0
6505	7	Sololá	712	San Antonio Palopó	9	San Antonio Palopo	9	Septiembre	2023-10-09T00:00:00	2024-11-08T07:00:00	2	Temperatura media	19.7
6506	7	Sololá	712	San Antonio Palopó	9	San Antonio Palopo	9	Septiembre	2023-10-09T00:00:00	2024-11-08T07:00:00	4	Temperatura máxima	19.7
6507	7	Sololá	712	San Antonio Palopó	9	San Antonio Palopo	9	Septiembre	2023-10-09T00:00:00	2024-11-08T07:00:00	3	Temperatura mínima	19.2
6508	7	Sololá	712	San Antonio Palopó	9	San Antonio Palopo	9	Septiembre	2023-10-09T00:00:00	2024-11-08T07:00:00	5	Humedad	72
6509	7	Sololá	712	San Antonio Palopó	9	San Antonio Palopo	9	Septiembre	2023-10-09T00:00:00	2024-11-08T07:00:00	6	Velocidad del viento	8
6510	7	Sololá	712	San Antonio Palopó	9	San Antonio Palopo	9	Septiembre	2023-10-09T00:00:00	2024-11-08T07:00:00	7	Dirección del viento	8.05
6511	7	Sololá	712	San Antonio Palopó	9	San Antonio Palopo	9	Septiembre	2023-10-09T00:00:00	2024-11-08T07:00:00	1	Precipitación	0
6512	7	Sololá	712	San Antonio Palopó	9	San Antonio Palopo	9	Septiembre	2023-10-09T00:00:00	2024-11-08T07:00:00	8	Radiación solar	21
6513	7	Sololá	712	San Antonio Palopó	9	San Antonio Palopo	9	Septiembre	2023-10-09T00:00:00	2024-11-08T08:00:00	2	Temperatura media	20.6
6514	7	Sololá	712	San Antonio Palopó	9	San Antonio Palopo	9	Septiembre	2023-10-09T00:00:00	2024-11-08T08:00:00	4	Temperatura máxima	20.6
6515	7	Sololá	712	San Antonio Palopó	9	San Antonio Palopo	9	Septiembre	2023-10-09T00:00:00	2024-11-08T08:00:00	3	Temperatura mínima	19.6
6516	7	Sololá	712	San Antonio Palopó	9	San Antonio Palopo	9	Septiembre	2023-10-09T00:00:00	2024-11-08T08:00:00	5	Humedad	71
6517	7	Sololá	712	San Antonio Palopó	9	San Antonio Palopo	9	Septiembre	2023-10-09T00:00:00	2024-11-08T08:00:00	6	Velocidad del viento	8
6518	7	Sololá	712	San Antonio Palopó	9	San Antonio Palopo	9	Septiembre	2023-10-09T00:00:00	2024-11-08T08:00:00	7	Dirección del viento	8.05
6519	7	Sololá	712	San Antonio Palopó	9	San Antonio Palopo	9	Septiembre	2023-10-09T00:00:00	2024-11-08T08:00:00	1	Precipitación	0
6520	7	Sololá	712	San Antonio Palopó	9	San Antonio Palopo	9	Septiembre	2023-10-09T00:00:00	2024-11-08T08:00:00	8	Radiación solar	86
6521	7	Sololá	712	San Antonio Palopó	9	San Antonio Palopo	9	Septiembre	2023-10-09T00:00:00	2024-11-08T09:00:00	2	Temperatura media	21.4
6522	7	Sololá	712	San Antonio Palopó	9	San Antonio Palopo	9	Septiembre	2023-10-09T00:00:00	2024-11-08T09:00:00	4	Temperatura máxima	21.4
6523	7	Sololá	712	San Antonio Palopó	9	San Antonio Palopo	9	Septiembre	2023-10-09T00:00:00	2024-11-08T09:00:00	3	Temperatura mínima	20.6
6524	7	Sololá	712	San Antonio Palopó	9	San Antonio Palopo	9	Septiembre	2023-10-09T00:00:00	2024-11-08T09:00:00	5	Humedad	70
6525	7	Sololá	712	San Antonio Palopó	9	San Antonio Palopo	9	Septiembre	2023-10-09T00:00:00	2024-11-08T09:00:00	6	Velocidad del viento	6.4
6526	7	Sololá	712	San Antonio Palopó	9	San Antonio Palopo	9	Septiembre	2023-10-09T00:00:00	2024-11-08T09:00:00	7	Dirección del viento	6.44
6527	7	Sololá	712	San Antonio Palopó	9	San Antonio Palopo	9	Septiembre	2023-10-09T00:00:00	2024-11-08T09:00:00	1	Precipitación	0
6528	7	Sololá	712	San Antonio Palopó	9	San Antonio Palopo	9	Septiembre	2023-10-09T00:00:00	2024-11-08T09:00:00	8	Radiación solar	163
6529	7	Sololá	712	San Antonio Palopó	9	San Antonio Palopo	9	Septiembre	2023-10-09T00:00:00	2024-11-08T10:00:00	2	Temperatura media	22.1
6530	7	Sololá	712	San Antonio Palopó	9	San Antonio Palopo	9	Septiembre	2023-10-09T00:00:00	2024-11-08T10:00:00	4	Temperatura máxima	22.1
6531	7	Sololá	712	San Antonio Palopó	9	San Antonio Palopo	9	Septiembre	2023-10-09T00:00:00	2024-11-08T10:00:00	3	Temperatura mínima	21.4
6532	7	Sololá	712	San Antonio Palopó	9	San Antonio Palopo	9	Septiembre	2023-10-09T00:00:00	2024-11-08T10:00:00	5	Humedad	68
6533	7	Sololá	712	San Antonio Palopó	9	San Antonio Palopo	9	Septiembre	2023-10-09T00:00:00	2024-11-08T10:00:00	6	Velocidad del viento	8
6534	7	Sololá	712	San Antonio Palopó	9	San Antonio Palopo	9	Septiembre	2023-10-09T00:00:00	2024-11-08T10:00:00	7	Dirección del viento	8.05
6535	7	Sololá	712	San Antonio Palopó	9	San Antonio Palopo	9	Septiembre	2023-10-09T00:00:00	2024-11-08T10:00:00	1	Precipitación	0
6536	7	Sololá	712	San Antonio Palopó	9	San Antonio Palopo	9	Septiembre	2023-10-09T00:00:00	2024-11-08T10:00:00	8	Radiación solar	278
6537	7	Sololá	712	San Antonio Palopó	9	San Antonio Palopo	9	Septiembre	2023-10-09T00:00:00	2024-11-08T11:00:00	2	Temperatura media	23.2
6538	7	Sololá	712	San Antonio Palopó	9	San Antonio Palopo	9	Septiembre	2023-10-09T00:00:00	2024-11-08T11:00:00	4	Temperatura máxima	23.2
6539	7	Sololá	712	San Antonio Palopó	9	San Antonio Palopo	9	Septiembre	2023-10-09T00:00:00	2024-11-08T11:00:00	3	Temperatura mínima	22.1
6540	7	Sololá	712	San Antonio Palopó	9	San Antonio Palopo	9	Septiembre	2023-10-09T00:00:00	2024-11-08T11:00:00	5	Humedad	70
6541	7	Sololá	712	San Antonio Palopó	9	San Antonio Palopo	9	Septiembre	2023-10-09T00:00:00	2024-11-08T11:00:00	6	Velocidad del viento	6.4
6542	7	Sololá	712	San Antonio Palopó	9	San Antonio Palopo	9	Septiembre	2023-10-09T00:00:00	2024-11-08T11:00:00	7	Dirección del viento	6.44
6543	7	Sololá	712	San Antonio Palopó	9	San Antonio Palopo	9	Septiembre	2023-10-09T00:00:00	2024-11-08T11:00:00	1	Precipitación	0
6544	7	Sololá	712	San Antonio Palopó	9	San Antonio Palopo	9	Septiembre	2023-10-09T00:00:00	2024-11-08T11:00:00	8	Radiación solar	548
6545	7	Sololá	712	San Antonio Palopó	9	San Antonio Palopo	9	Septiembre	2023-10-09T00:00:00	2024-11-08T12:00:00	2	Temperatura media	23.6
6546	7	Sololá	712	San Antonio Palopó	9	San Antonio Palopo	9	Septiembre	2023-10-09T00:00:00	2024-11-08T12:00:00	4	Temperatura máxima	24
6547	7	Sololá	712	San Antonio Palopó	9	San Antonio Palopo	9	Septiembre	2023-10-09T00:00:00	2024-11-08T12:00:00	3	Temperatura mínima	23
6548	7	Sololá	712	San Antonio Palopó	9	San Antonio Palopo	9	Septiembre	2023-10-09T00:00:00	2024-11-08T12:00:00	5	Humedad	70
6549	7	Sololá	712	San Antonio Palopó	9	San Antonio Palopo	9	Septiembre	2023-10-09T00:00:00	2024-11-08T12:00:00	6	Velocidad del viento	4.8
6550	7	Sololá	712	San Antonio Palopó	9	San Antonio Palopo	9	Septiembre	2023-10-09T00:00:00	2024-11-08T12:00:00	7	Dirección del viento	4.83
6551	7	Sololá	712	San Antonio Palopó	9	San Antonio Palopo	9	Septiembre	2023-10-09T00:00:00	2024-11-08T12:00:00	1	Precipitación	0
6552	7	Sololá	712	San Antonio Palopó	9	San Antonio Palopo	9	Septiembre	2023-10-09T00:00:00	2024-11-08T12:00:00	8	Radiación solar	966
6553	7	Sololá	712	San Antonio Palopó	9	San Antonio Palopo	9	Septiembre	2023-10-09T00:00:00	2024-11-08T13:00:00	2	Temperatura media	24.2
6554	7	Sololá	712	San Antonio Palopó	9	San Antonio Palopo	9	Septiembre	2023-10-09T00:00:00	2024-11-08T13:00:00	4	Temperatura máxima	24.9
6555	7	Sololá	712	San Antonio Palopó	9	San Antonio Palopo	9	Septiembre	2023-10-09T00:00:00	2024-11-08T13:00:00	3	Temperatura mínima	23.2
6556	7	Sololá	712	San Antonio Palopó	9	San Antonio Palopo	9	Septiembre	2023-10-09T00:00:00	2024-11-08T13:00:00	5	Humedad	72
6557	7	Sololá	712	San Antonio Palopó	9	San Antonio Palopo	9	Septiembre	2023-10-09T00:00:00	2024-11-08T13:00:00	6	Velocidad del viento	6.4
6558	7	Sololá	712	San Antonio Palopó	9	San Antonio Palopo	9	Septiembre	2023-10-09T00:00:00	2024-11-08T13:00:00	7	Dirección del viento	6.44
6559	7	Sololá	712	San Antonio Palopó	9	San Antonio Palopo	9	Septiembre	2023-10-09T00:00:00	2024-11-08T13:00:00	1	Precipitación	0
6560	7	Sololá	712	San Antonio Palopó	9	San Antonio Palopo	9	Septiembre	2023-10-09T00:00:00	2024-11-08T13:00:00	8	Radiación solar	788
6561	7	Sololá	712	San Antonio Palopó	9	San Antonio Palopo	9	Septiembre	2023-10-09T00:00:00	2024-11-08T14:00:00	2	Temperatura media	24
6562	7	Sololá	712	San Antonio Palopó	9	San Antonio Palopo	9	Septiembre	2023-10-09T00:00:00	2024-11-08T14:00:00	4	Temperatura máxima	25
6563	7	Sololá	712	San Antonio Palopó	9	San Antonio Palopo	9	Septiembre	2023-10-09T00:00:00	2024-11-08T14:00:00	3	Temperatura mínima	23.9
6564	7	Sololá	712	San Antonio Palopó	9	San Antonio Palopo	9	Septiembre	2023-10-09T00:00:00	2024-11-08T14:00:00	5	Humedad	74
6565	7	Sololá	712	San Antonio Palopó	9	San Antonio Palopo	9	Septiembre	2023-10-09T00:00:00	2024-11-08T14:00:00	6	Velocidad del viento	4.8
6566	7	Sololá	712	San Antonio Palopó	9	San Antonio Palopo	9	Septiembre	2023-10-09T00:00:00	2024-11-08T14:00:00	7	Dirección del viento	4.83
6567	7	Sololá	712	San Antonio Palopó	9	San Antonio Palopo	9	Septiembre	2023-10-09T00:00:00	2024-11-08T14:00:00	1	Precipitación	0
6568	7	Sololá	712	San Antonio Palopó	9	San Antonio Palopo	9	Septiembre	2023-10-09T00:00:00	2024-11-08T14:00:00	8	Radiación solar	691
6569	7	Sololá	712	San Antonio Palopó	9	San Antonio Palopo	9	Septiembre	2023-10-09T00:00:00	2024-11-08T15:00:00	2	Temperatura media	24.8
6570	7	Sololá	712	San Antonio Palopó	9	San Antonio Palopo	9	Septiembre	2023-10-09T00:00:00	2024-11-08T15:00:00	4	Temperatura máxima	25.9
6571	7	Sololá	712	San Antonio Palopó	9	San Antonio Palopo	9	Septiembre	2023-10-09T00:00:00	2024-11-08T15:00:00	3	Temperatura mínima	24
6572	7	Sololá	712	San Antonio Palopó	9	San Antonio Palopo	9	Septiembre	2023-10-09T00:00:00	2024-11-08T15:00:00	5	Humedad	71
6573	7	Sololá	712	San Antonio Palopó	9	San Antonio Palopo	9	Septiembre	2023-10-09T00:00:00	2024-11-08T15:00:00	6	Velocidad del viento	4.8
6574	7	Sololá	712	San Antonio Palopó	9	San Antonio Palopo	9	Septiembre	2023-10-09T00:00:00	2024-11-08T15:00:00	7	Dirección del viento	4.83
6575	7	Sololá	712	San Antonio Palopó	9	San Antonio Palopo	9	Septiembre	2023-10-09T00:00:00	2024-11-08T15:00:00	1	Precipitación	0
6576	7	Sololá	712	San Antonio Palopó	9	San Antonio Palopo	9	Septiembre	2023-10-09T00:00:00	2024-11-08T15:00:00	8	Radiación solar	813
6577	7	Sololá	712	San Antonio Palopó	9	San Antonio Palopo	9	Septiembre	2023-10-09T00:00:00	2024-11-08T16:00:00	2	Temperatura media	25.9
6578	7	Sololá	712	San Antonio Palopó	9	San Antonio Palopo	9	Septiembre	2023-10-09T00:00:00	2024-11-08T16:00:00	4	Temperatura máxima	26.1
6579	7	Sololá	712	San Antonio Palopó	9	San Antonio Palopo	9	Septiembre	2023-10-09T00:00:00	2024-11-08T16:00:00	3	Temperatura mínima	24.7
6580	7	Sololá	712	San Antonio Palopó	9	San Antonio Palopo	9	Septiembre	2023-10-09T00:00:00	2024-11-08T16:00:00	5	Humedad	68
6581	7	Sololá	712	San Antonio Palopó	9	San Antonio Palopo	9	Septiembre	2023-10-09T00:00:00	2024-11-08T16:00:00	6	Velocidad del viento	4.8
6582	7	Sololá	712	San Antonio Palopó	9	San Antonio Palopo	9	Septiembre	2023-10-09T00:00:00	2024-11-08T16:00:00	7	Dirección del viento	4.83
6583	7	Sololá	712	San Antonio Palopó	9	San Antonio Palopo	9	Septiembre	2023-10-09T00:00:00	2024-11-08T16:00:00	1	Precipitación	0
6584	7	Sololá	712	San Antonio Palopó	9	San Antonio Palopo	9	Septiembre	2023-10-09T00:00:00	2024-11-08T16:00:00	8	Radiación solar	578
6585	7	Sololá	712	San Antonio Palopó	9	San Antonio Palopo	9	Septiembre	2023-10-09T00:00:00	2024-11-08T17:00:00	2	Temperatura media	22.9
6586	7	Sololá	712	San Antonio Palopó	9	San Antonio Palopo	9	Septiembre	2023-10-09T00:00:00	2024-11-08T17:00:00	4	Temperatura máxima	25.9
6587	7	Sololá	712	San Antonio Palopó	9	San Antonio Palopo	9	Septiembre	2023-10-09T00:00:00	2024-11-08T17:00:00	3	Temperatura mínima	22.8
6588	7	Sololá	712	San Antonio Palopó	9	San Antonio Palopo	9	Septiembre	2023-10-09T00:00:00	2024-11-08T17:00:00	5	Humedad	77
6589	7	Sololá	712	San Antonio Palopó	9	San Antonio Palopo	9	Septiembre	2023-10-09T00:00:00	2024-11-08T17:00:00	6	Velocidad del viento	8
6590	7	Sololá	712	San Antonio Palopó	9	San Antonio Palopo	9	Septiembre	2023-10-09T00:00:00	2024-11-08T17:00:00	7	Dirección del viento	8.05
6591	7	Sololá	712	San Antonio Palopó	9	San Antonio Palopo	9	Septiembre	2023-10-09T00:00:00	2024-11-08T17:00:00	1	Precipitación	0
6592	7	Sololá	712	San Antonio Palopó	9	San Antonio Palopo	9	Septiembre	2023-10-09T00:00:00	2024-11-08T17:00:00	8	Radiación solar	193
6593	7	Sololá	712	San Antonio Palopó	9	San Antonio Palopo	9	Septiembre	2023-10-09T00:00:00	2024-11-08T18:00:00	2	Temperatura media	21.6
6594	7	Sololá	712	San Antonio Palopó	9	San Antonio Palopo	9	Septiembre	2023-10-09T00:00:00	2024-11-08T18:00:00	4	Temperatura máxima	22.9
6595	7	Sololá	712	San Antonio Palopó	9	San Antonio Palopo	9	Septiembre	2023-10-09T00:00:00	2024-11-08T18:00:00	3	Temperatura mínima	21.4
6596	7	Sololá	712	San Antonio Palopó	9	San Antonio Palopo	9	Septiembre	2023-10-09T00:00:00	2024-11-08T18:00:00	5	Humedad	82
6597	7	Sololá	712	San Antonio Palopó	9	San Antonio Palopo	9	Septiembre	2023-10-09T00:00:00	2024-11-08T18:00:00	6	Velocidad del viento	6.4
6598	7	Sololá	712	San Antonio Palopó	9	San Antonio Palopo	9	Septiembre	2023-10-09T00:00:00	2024-11-08T18:00:00	7	Dirección del viento	6.44
6599	7	Sololá	712	San Antonio Palopó	9	San Antonio Palopo	9	Septiembre	2023-10-09T00:00:00	2024-11-08T18:00:00	1	Precipitación	0
6600	7	Sololá	712	San Antonio Palopó	9	San Antonio Palopo	9	Septiembre	2023-10-09T00:00:00	2024-11-08T18:00:00	8	Radiación solar	18
6601	7	Sololá	712	San Antonio Palopó	9	San Antonio Palopo	9	Septiembre	2023-10-09T00:00:00	2024-11-08T19:00:00	2	Temperatura media	21.3
6602	7	Sololá	712	San Antonio Palopó	9	San Antonio Palopo	9	Septiembre	2023-10-09T00:00:00	2024-11-08T19:00:00	4	Temperatura máxima	21.5
6603	7	Sololá	712	San Antonio Palopó	9	San Antonio Palopo	9	Septiembre	2023-10-09T00:00:00	2024-11-08T19:00:00	3	Temperatura mínima	21.1
6604	7	Sololá	712	San Antonio Palopó	9	San Antonio Palopo	9	Septiembre	2023-10-09T00:00:00	2024-11-08T19:00:00	5	Humedad	81
6605	7	Sololá	712	San Antonio Palopó	9	San Antonio Palopo	9	Septiembre	2023-10-09T00:00:00	2024-11-08T19:00:00	6	Velocidad del viento	6.4
6606	7	Sololá	712	San Antonio Palopó	9	San Antonio Palopo	9	Septiembre	2023-10-09T00:00:00	2024-11-08T19:00:00	7	Dirección del viento	6.44
6607	7	Sololá	712	San Antonio Palopó	9	San Antonio Palopo	9	Septiembre	2023-10-09T00:00:00	2024-11-08T19:00:00	1	Precipitación	0
6608	7	Sololá	712	San Antonio Palopó	9	San Antonio Palopo	9	Septiembre	2023-10-09T00:00:00	2024-11-08T19:00:00	8	Radiación solar	0
6609	7	Sololá	712	San Antonio Palopó	9	San Antonio Palopo	9	Septiembre	2023-10-09T00:00:00	2024-11-08T20:00:00	2	Temperatura media	21.1
6610	7	Sololá	712	San Antonio Palopó	9	San Antonio Palopo	9	Septiembre	2023-10-09T00:00:00	2024-11-08T20:00:00	4	Temperatura máxima	21.4
6611	7	Sololá	712	San Antonio Palopó	9	San Antonio Palopo	9	Septiembre	2023-10-09T00:00:00	2024-11-08T20:00:00	3	Temperatura mínima	20.9
6612	7	Sololá	712	San Antonio Palopó	9	San Antonio Palopo	9	Septiembre	2023-10-09T00:00:00	2024-11-08T20:00:00	5	Humedad	81
6613	7	Sololá	712	San Antonio Palopó	9	San Antonio Palopo	9	Septiembre	2023-10-09T00:00:00	2024-11-08T20:00:00	6	Velocidad del viento	1.6
6614	7	Sololá	712	San Antonio Palopó	9	San Antonio Palopo	9	Septiembre	2023-10-09T00:00:00	2024-11-08T20:00:00	7	Dirección del viento	1.61
6615	7	Sololá	712	San Antonio Palopó	9	San Antonio Palopo	9	Septiembre	2023-10-09T00:00:00	2024-11-08T20:00:00	1	Precipitación	0
6616	7	Sololá	712	San Antonio Palopó	9	San Antonio Palopo	9	Septiembre	2023-10-09T00:00:00	2024-11-08T20:00:00	8	Radiación solar	0
6617	7	Sololá	712	San Antonio Palopó	9	San Antonio Palopo	9	Septiembre	2023-10-09T00:00:00	2024-11-08T21:00:00	2	Temperatura media	20.4
6618	7	Sololá	712	San Antonio Palopó	9	San Antonio Palopo	9	Septiembre	2023-10-09T00:00:00	2024-11-08T21:00:00	4	Temperatura máxima	21.2
6619	7	Sololá	712	San Antonio Palopó	9	San Antonio Palopo	9	Septiembre	2023-10-09T00:00:00	2024-11-08T21:00:00	3	Temperatura mínima	20.4
6620	7	Sololá	712	San Antonio Palopó	9	San Antonio Palopo	9	Septiembre	2023-10-09T00:00:00	2024-11-08T21:00:00	5	Humedad	83
6621	7	Sololá	712	San Antonio Palopó	9	San Antonio Palopo	9	Septiembre	2023-10-09T00:00:00	2024-11-08T21:00:00	6	Velocidad del viento	3.2
6622	7	Sololá	712	San Antonio Palopó	9	San Antonio Palopo	9	Septiembre	2023-10-09T00:00:00	2024-11-08T21:00:00	7	Dirección del viento	3.22
6623	7	Sololá	712	San Antonio Palopó	9	San Antonio Palopo	9	Septiembre	2023-10-09T00:00:00	2024-11-08T21:00:00	1	Precipitación	0
6624	7	Sololá	712	San Antonio Palopó	9	San Antonio Palopo	9	Septiembre	2023-10-09T00:00:00	2024-11-08T21:00:00	8	Radiación solar	0
6625	7	Sololá	712	San Antonio Palopó	9	San Antonio Palopo	9	Septiembre	2023-10-09T00:00:00	2024-11-08T22:00:00	2	Temperatura media	19.8
6626	7	Sololá	712	San Antonio Palopó	9	San Antonio Palopo	9	Septiembre	2023-10-09T00:00:00	2024-11-08T22:00:00	4	Temperatura máxima	20.5
6627	7	Sololá	712	San Antonio Palopó	9	San Antonio Palopo	9	Septiembre	2023-10-09T00:00:00	2024-11-08T22:00:00	3	Temperatura mínima	19.7
6628	7	Sololá	712	San Antonio Palopó	9	San Antonio Palopo	9	Septiembre	2023-10-09T00:00:00	2024-11-08T22:00:00	5	Humedad	81
6629	7	Sololá	712	San Antonio Palopó	9	San Antonio Palopo	9	Septiembre	2023-10-09T00:00:00	2024-11-08T22:00:00	6	Velocidad del viento	3.2
6630	7	Sololá	712	San Antonio Palopó	9	San Antonio Palopo	9	Septiembre	2023-10-09T00:00:00	2024-11-08T22:00:00	7	Dirección del viento	3.22
6631	7	Sololá	712	San Antonio Palopó	9	San Antonio Palopo	9	Septiembre	2023-10-09T00:00:00	2024-11-08T22:00:00	1	Precipitación	0
6632	7	Sololá	712	San Antonio Palopó	9	San Antonio Palopo	9	Septiembre	2023-10-09T00:00:00	2024-11-08T22:00:00	8	Radiación solar	0
6633	7	Sololá	712	San Antonio Palopó	9	San Antonio Palopo	9	Septiembre	2023-10-09T00:00:00	2024-11-08T23:00:00	2	Temperatura media	20.1
6634	7	Sololá	712	San Antonio Palopó	9	San Antonio Palopo	9	Septiembre	2023-10-09T00:00:00	2024-11-08T23:00:00	4	Temperatura máxima	20.6
6635	7	Sololá	712	San Antonio Palopó	9	San Antonio Palopo	9	Septiembre	2023-10-09T00:00:00	2024-11-08T23:00:00	3	Temperatura mínima	19.8
6636	7	Sololá	712	San Antonio Palopó	9	San Antonio Palopo	9	Septiembre	2023-10-09T00:00:00	2024-11-08T23:00:00	5	Humedad	82
6637	7	Sololá	712	San Antonio Palopó	9	San Antonio Palopo	9	Septiembre	2023-10-09T00:00:00	2024-11-08T23:00:00	6	Velocidad del viento	3.2
6638	7	Sololá	712	San Antonio Palopó	9	San Antonio Palopo	9	Septiembre	2023-10-09T00:00:00	2024-11-08T23:00:00	7	Dirección del viento	3.22
6639	7	Sololá	712	San Antonio Palopó	9	San Antonio Palopo	9	Septiembre	2023-10-09T00:00:00	2024-11-08T23:00:00	1	Precipitación	0
6640	7	Sololá	712	San Antonio Palopó	9	San Antonio Palopo	9	Septiembre	2023-10-09T00:00:00	2024-11-08T23:00:00	8	Radiación solar	0
6641	7	Sololá	712	San Antonio Palopó	9	San Antonio Palopo	9	Septiembre	2023-11-09T00:00:00	2024-11-08T00:00:00	2	Temperatura media	20.2
6642	7	Sololá	712	San Antonio Palopó	9	San Antonio Palopo	9	Septiembre	2023-11-09T00:00:00	2024-11-08T00:00:00	4	Temperatura máxima	20.6
6643	7	Sololá	712	San Antonio Palopó	9	San Antonio Palopo	9	Septiembre	2023-11-09T00:00:00	2024-11-08T00:00:00	3	Temperatura mínima	20.1
6644	7	Sololá	712	San Antonio Palopó	9	San Antonio Palopo	9	Septiembre	2023-11-09T00:00:00	2024-11-08T00:00:00	5	Humedad	81
6645	7	Sololá	712	San Antonio Palopó	9	San Antonio Palopo	9	Septiembre	2023-11-09T00:00:00	2024-11-08T00:00:00	6	Velocidad del viento	3.2
6646	7	Sololá	712	San Antonio Palopó	9	San Antonio Palopo	9	Septiembre	2023-11-09T00:00:00	2024-11-08T00:00:00	7	Dirección del viento	3.22
6647	7	Sololá	712	San Antonio Palopó	9	San Antonio Palopo	9	Septiembre	2023-11-09T00:00:00	2024-11-08T00:00:00	1	Precipitación	0
6648	7	Sololá	712	San Antonio Palopó	9	San Antonio Palopo	9	Septiembre	2023-11-09T00:00:00	2024-11-08T00:00:00	8	Radiación solar	0
6649	7	Sololá	712	San Antonio Palopó	9	San Antonio Palopo	9	Septiembre	2023-11-09T00:00:00	2024-11-08T01:00:00	2	Temperatura media	20.1
6650	7	Sololá	712	San Antonio Palopó	9	San Antonio Palopo	9	Septiembre	2023-11-09T00:00:00	2024-11-08T01:00:00	4	Temperatura máxima	20.4
6651	7	Sololá	712	San Antonio Palopó	9	San Antonio Palopo	9	Septiembre	2023-11-09T00:00:00	2024-11-08T01:00:00	3	Temperatura mínima	19.9
6652	7	Sololá	712	San Antonio Palopó	9	San Antonio Palopo	9	Septiembre	2023-11-09T00:00:00	2024-11-08T01:00:00	5	Humedad	74
6653	7	Sololá	712	San Antonio Palopó	9	San Antonio Palopo	9	Septiembre	2023-11-09T00:00:00	2024-11-08T01:00:00	6	Velocidad del viento	9.7
6654	7	Sololá	712	San Antonio Palopó	9	San Antonio Palopo	9	Septiembre	2023-11-09T00:00:00	2024-11-08T01:00:00	7	Dirección del viento	9.66
6655	7	Sololá	712	San Antonio Palopó	9	San Antonio Palopo	9	Septiembre	2023-11-09T00:00:00	2024-11-08T01:00:00	1	Precipitación	0
6656	7	Sololá	712	San Antonio Palopó	9	San Antonio Palopo	9	Septiembre	2023-11-09T00:00:00	2024-11-08T01:00:00	8	Radiación solar	0
6657	7	Sololá	712	San Antonio Palopó	9	San Antonio Palopo	9	Septiembre	2023-11-09T00:00:00	2024-11-08T02:00:00	2	Temperatura media	20.2
6658	7	Sololá	712	San Antonio Palopó	9	San Antonio Palopo	9	Septiembre	2023-11-09T00:00:00	2024-11-08T02:00:00	4	Temperatura máxima	20.4
6659	7	Sololá	712	San Antonio Palopó	9	San Antonio Palopo	9	Septiembre	2023-11-09T00:00:00	2024-11-08T02:00:00	3	Temperatura mínima	20
6660	7	Sololá	712	San Antonio Palopó	9	San Antonio Palopo	9	Septiembre	2023-11-09T00:00:00	2024-11-08T02:00:00	5	Humedad	72
6661	7	Sololá	712	San Antonio Palopó	9	San Antonio Palopo	9	Septiembre	2023-11-09T00:00:00	2024-11-08T02:00:00	6	Velocidad del viento	9.7
6662	7	Sololá	712	San Antonio Palopó	9	San Antonio Palopo	9	Septiembre	2023-11-09T00:00:00	2024-11-08T02:00:00	7	Dirección del viento	9.66
6663	7	Sololá	712	San Antonio Palopó	9	San Antonio Palopo	9	Septiembre	2023-11-09T00:00:00	2024-11-08T02:00:00	1	Precipitación	0
6664	7	Sololá	712	San Antonio Palopó	9	San Antonio Palopo	9	Septiembre	2023-11-09T00:00:00	2024-11-08T02:00:00	8	Radiación solar	0
6665	7	Sololá	712	San Antonio Palopó	9	San Antonio Palopo	9	Septiembre	2023-11-09T00:00:00	2024-11-08T03:00:00	2	Temperatura media	20.2
6666	7	Sololá	712	San Antonio Palopó	9	San Antonio Palopo	9	Septiembre	2023-11-09T00:00:00	2024-11-08T03:00:00	4	Temperatura máxima	20.4
6667	7	Sololá	712	San Antonio Palopó	9	San Antonio Palopo	9	Septiembre	2023-11-09T00:00:00	2024-11-08T03:00:00	3	Temperatura mínima	20.1
6668	7	Sololá	712	San Antonio Palopó	9	San Antonio Palopo	9	Septiembre	2023-11-09T00:00:00	2024-11-08T03:00:00	5	Humedad	71
6669	7	Sololá	712	San Antonio Palopó	9	San Antonio Palopo	9	Septiembre	2023-11-09T00:00:00	2024-11-08T03:00:00	6	Velocidad del viento	8
6670	7	Sololá	712	San Antonio Palopó	9	San Antonio Palopo	9	Septiembre	2023-11-09T00:00:00	2024-11-08T03:00:00	7	Dirección del viento	8.05
6671	7	Sololá	712	San Antonio Palopó	9	San Antonio Palopo	9	Septiembre	2023-11-09T00:00:00	2024-11-08T03:00:00	1	Precipitación	0
6672	7	Sololá	712	San Antonio Palopó	9	San Antonio Palopo	9	Septiembre	2023-11-09T00:00:00	2024-11-08T03:00:00	8	Radiación solar	0
6673	7	Sololá	712	San Antonio Palopó	9	San Antonio Palopo	9	Septiembre	2023-11-09T00:00:00	2024-11-08T04:00:00	2	Temperatura media	19.5
6674	7	Sololá	712	San Antonio Palopó	9	San Antonio Palopo	9	Septiembre	2023-11-09T00:00:00	2024-11-08T04:00:00	4	Temperatura máxima	20.2
6675	7	Sololá	712	San Antonio Palopó	9	San Antonio Palopo	9	Septiembre	2023-11-09T00:00:00	2024-11-08T04:00:00	3	Temperatura mínima	19.4
6676	7	Sololá	712	San Antonio Palopó	9	San Antonio Palopo	9	Septiembre	2023-11-09T00:00:00	2024-11-08T04:00:00	5	Humedad	74
6677	7	Sololá	712	San Antonio Palopó	9	San Antonio Palopo	9	Septiembre	2023-11-09T00:00:00	2024-11-08T04:00:00	6	Velocidad del viento	8
6678	7	Sololá	712	San Antonio Palopó	9	San Antonio Palopo	9	Septiembre	2023-11-09T00:00:00	2024-11-08T04:00:00	7	Dirección del viento	8.05
6679	7	Sololá	712	San Antonio Palopó	9	San Antonio Palopo	9	Septiembre	2023-11-09T00:00:00	2024-11-08T04:00:00	1	Precipitación	0
6680	7	Sololá	712	San Antonio Palopó	9	San Antonio Palopo	9	Septiembre	2023-11-09T00:00:00	2024-11-08T04:00:00	8	Radiación solar	0
6681	7	Sololá	712	San Antonio Palopó	9	San Antonio Palopo	9	Septiembre	2023-11-09T00:00:00	2024-11-08T05:00:00	2	Temperatura media	19.3
6682	7	Sololá	712	San Antonio Palopó	9	San Antonio Palopo	9	Septiembre	2023-11-09T00:00:00	2024-11-08T05:00:00	4	Temperatura máxima	19.5
6683	7	Sololá	712	San Antonio Palopó	9	San Antonio Palopo	9	Septiembre	2023-11-09T00:00:00	2024-11-08T05:00:00	3	Temperatura mínima	19
6684	7	Sololá	712	San Antonio Palopó	9	San Antonio Palopo	9	Septiembre	2023-11-09T00:00:00	2024-11-08T05:00:00	5	Humedad	73
6685	7	Sololá	712	San Antonio Palopó	9	San Antonio Palopo	9	Septiembre	2023-11-09T00:00:00	2024-11-08T05:00:00	6	Velocidad del viento	4.8
6686	7	Sololá	712	San Antonio Palopó	9	San Antonio Palopo	9	Septiembre	2023-11-09T00:00:00	2024-11-08T05:00:00	7	Dirección del viento	4.83
6687	7	Sololá	712	San Antonio Palopó	9	San Antonio Palopo	9	Septiembre	2023-11-09T00:00:00	2024-11-08T05:00:00	1	Precipitación	0
6688	7	Sololá	712	San Antonio Palopó	9	San Antonio Palopo	9	Septiembre	2023-11-09T00:00:00	2024-11-08T05:00:00	8	Radiación solar	0
6689	7	Sololá	712	San Antonio Palopó	9	San Antonio Palopo	9	Septiembre	2023-11-09T00:00:00	2024-11-08T06:00:00	2	Temperatura media	19.1
6690	7	Sololá	712	San Antonio Palopó	9	San Antonio Palopo	9	Septiembre	2023-11-09T00:00:00	2024-11-08T06:00:00	4	Temperatura máxima	19.4
6691	7	Sololá	712	San Antonio Palopó	9	San Antonio Palopo	9	Septiembre	2023-11-09T00:00:00	2024-11-08T06:00:00	3	Temperatura mínima	19.1
6692	7	Sololá	712	San Antonio Palopó	9	San Antonio Palopo	9	Septiembre	2023-11-09T00:00:00	2024-11-08T06:00:00	5	Humedad	72
6693	7	Sololá	712	San Antonio Palopó	9	San Antonio Palopo	9	Septiembre	2023-11-09T00:00:00	2024-11-08T06:00:00	6	Velocidad del viento	9.7
6694	7	Sololá	712	San Antonio Palopó	9	San Antonio Palopo	9	Septiembre	2023-11-09T00:00:00	2024-11-08T06:00:00	7	Dirección del viento	9.66
6695	7	Sololá	712	San Antonio Palopó	9	San Antonio Palopo	9	Septiembre	2023-11-09T00:00:00	2024-11-08T06:00:00	1	Precipitación	0
6696	7	Sololá	712	San Antonio Palopó	9	San Antonio Palopo	9	Septiembre	2023-11-09T00:00:00	2024-11-08T06:00:00	8	Radiación solar	0
6697	7	Sololá	712	San Antonio Palopó	9	San Antonio Palopo	9	Septiembre	2023-11-09T00:00:00	2024-11-08T07:00:00	2	Temperatura media	19.4
6698	7	Sololá	712	San Antonio Palopó	9	San Antonio Palopo	9	Septiembre	2023-11-09T00:00:00	2024-11-08T07:00:00	4	Temperatura máxima	19.4
6699	7	Sololá	712	San Antonio Palopó	9	San Antonio Palopo	9	Septiembre	2023-11-09T00:00:00	2024-11-08T07:00:00	3	Temperatura mínima	18.7
6700	7	Sololá	712	San Antonio Palopó	9	San Antonio Palopo	9	Septiembre	2023-11-09T00:00:00	2024-11-08T07:00:00	5	Humedad	71
6701	7	Sololá	712	San Antonio Palopó	9	San Antonio Palopo	9	Septiembre	2023-11-09T00:00:00	2024-11-08T07:00:00	6	Velocidad del viento	9.7
6702	7	Sololá	712	San Antonio Palopó	9	San Antonio Palopo	9	Septiembre	2023-11-09T00:00:00	2024-11-08T07:00:00	7	Dirección del viento	9.66
6703	7	Sololá	712	San Antonio Palopó	9	San Antonio Palopo	9	Septiembre	2023-11-09T00:00:00	2024-11-08T07:00:00	1	Precipitación	0
6704	7	Sololá	712	San Antonio Palopó	9	San Antonio Palopo	9	Septiembre	2023-11-09T00:00:00	2024-11-08T07:00:00	8	Radiación solar	45
6705	7	Sololá	712	San Antonio Palopó	9	San Antonio Palopo	9	Septiembre	2023-11-09T00:00:00	2024-11-08T08:00:00	2	Temperatura media	20.8
6706	7	Sololá	712	San Antonio Palopó	9	San Antonio Palopo	9	Septiembre	2023-11-09T00:00:00	2024-11-08T08:00:00	4	Temperatura máxima	20.8
6707	7	Sololá	712	San Antonio Palopó	9	San Antonio Palopo	9	Septiembre	2023-11-09T00:00:00	2024-11-08T08:00:00	3	Temperatura mínima	19.4
6708	7	Sololá	712	San Antonio Palopó	9	San Antonio Palopo	9	Septiembre	2023-11-09T00:00:00	2024-11-08T08:00:00	5	Humedad	71
6709	7	Sololá	712	San Antonio Palopó	9	San Antonio Palopo	9	Septiembre	2023-11-09T00:00:00	2024-11-08T08:00:00	6	Velocidad del viento	4.8
6710	7	Sololá	712	San Antonio Palopó	9	San Antonio Palopo	9	Septiembre	2023-11-09T00:00:00	2024-11-08T08:00:00	7	Dirección del viento	4.83
6711	7	Sololá	712	San Antonio Palopó	9	San Antonio Palopo	9	Septiembre	2023-11-09T00:00:00	2024-11-08T08:00:00	1	Precipitación	0
6712	7	Sololá	712	San Antonio Palopó	9	San Antonio Palopo	9	Septiembre	2023-11-09T00:00:00	2024-11-08T08:00:00	8	Radiación solar	141
6713	7	Sololá	712	San Antonio Palopó	9	San Antonio Palopo	9	Septiembre	2023-11-09T00:00:00	2024-11-08T09:00:00	2	Temperatura media	22.4
6714	7	Sololá	712	San Antonio Palopó	9	San Antonio Palopo	9	Septiembre	2023-11-09T00:00:00	2024-11-08T09:00:00	4	Temperatura máxima	22.7
6715	7	Sololá	712	San Antonio Palopó	9	San Antonio Palopo	9	Septiembre	2023-11-09T00:00:00	2024-11-08T09:00:00	3	Temperatura mínima	20.8
6716	7	Sololá	712	San Antonio Palopó	9	San Antonio Palopo	9	Septiembre	2023-11-09T00:00:00	2024-11-08T09:00:00	5	Humedad	67
6717	7	Sololá	712	San Antonio Palopó	9	San Antonio Palopo	9	Septiembre	2023-11-09T00:00:00	2024-11-08T09:00:00	6	Velocidad del viento	3.2
6718	7	Sololá	712	San Antonio Palopó	9	San Antonio Palopo	9	Septiembre	2023-11-09T00:00:00	2024-11-08T09:00:00	7	Dirección del viento	3.22
6719	7	Sololá	712	San Antonio Palopó	9	San Antonio Palopo	9	Septiembre	2023-11-09T00:00:00	2024-11-08T09:00:00	1	Precipitación	0
6720	7	Sololá	712	San Antonio Palopó	9	San Antonio Palopo	9	Septiembre	2023-11-09T00:00:00	2024-11-08T09:00:00	8	Radiación solar	442
6721	7	Sololá	712	San Antonio Palopó	9	San Antonio Palopo	9	Septiembre	2023-11-09T00:00:00	2024-11-08T10:00:00	2	Temperatura media	22.6
6722	7	Sololá	712	San Antonio Palopó	9	San Antonio Palopo	9	Septiembre	2023-11-09T00:00:00	2024-11-08T10:00:00	4	Temperatura máxima	22.7
6723	7	Sololá	712	San Antonio Palopó	9	San Antonio Palopo	9	Septiembre	2023-11-09T00:00:00	2024-11-08T10:00:00	3	Temperatura mínima	22.2
6724	7	Sololá	712	San Antonio Palopó	9	San Antonio Palopo	9	Septiembre	2023-11-09T00:00:00	2024-11-08T10:00:00	5	Humedad	67
6725	7	Sololá	712	San Antonio Palopó	9	San Antonio Palopo	9	Septiembre	2023-11-09T00:00:00	2024-11-08T10:00:00	6	Velocidad del viento	3.2
6726	7	Sololá	712	San Antonio Palopó	9	San Antonio Palopo	9	Septiembre	2023-11-09T00:00:00	2024-11-08T10:00:00	7	Dirección del viento	3.22
6727	7	Sololá	712	San Antonio Palopó	9	San Antonio Palopo	9	Septiembre	2023-11-09T00:00:00	2024-11-08T10:00:00	1	Precipitación	0
6728	7	Sololá	712	San Antonio Palopó	9	San Antonio Palopo	9	Septiembre	2023-11-09T00:00:00	2024-11-08T10:00:00	8	Radiación solar	601
6729	7	Sololá	712	San Antonio Palopó	9	San Antonio Palopo	9	Septiembre	2023-11-09T00:00:00	2024-11-08T11:00:00	2	Temperatura media	24.4
6730	7	Sololá	712	San Antonio Palopó	9	San Antonio Palopo	9	Septiembre	2023-11-09T00:00:00	2024-11-08T11:00:00	4	Temperatura máxima	24.6
6731	7	Sololá	712	San Antonio Palopó	9	San Antonio Palopo	9	Septiembre	2023-11-09T00:00:00	2024-11-08T11:00:00	3	Temperatura mínima	22.5
6732	7	Sololá	712	San Antonio Palopó	9	San Antonio Palopo	9	Septiembre	2023-11-09T00:00:00	2024-11-08T11:00:00	5	Humedad	71
6733	7	Sololá	712	San Antonio Palopó	9	San Antonio Palopo	9	Septiembre	2023-11-09T00:00:00	2024-11-08T11:00:00	6	Velocidad del viento	4.8
6734	7	Sololá	712	San Antonio Palopó	9	San Antonio Palopo	9	Septiembre	2023-11-09T00:00:00	2024-11-08T11:00:00	7	Dirección del viento	4.83
6735	7	Sololá	712	San Antonio Palopó	9	San Antonio Palopo	9	Septiembre	2023-11-09T00:00:00	2024-11-08T11:00:00	1	Precipitación	0
6736	7	Sololá	712	San Antonio Palopó	9	San Antonio Palopo	9	Septiembre	2023-11-09T00:00:00	2024-11-08T11:00:00	8	Radiación solar	824
6737	7	Sololá	712	San Antonio Palopó	9	San Antonio Palopo	9	Septiembre	2023-11-09T00:00:00	2024-11-08T12:00:00	2	Temperatura media	24.4
6738	7	Sololá	712	San Antonio Palopó	9	San Antonio Palopo	9	Septiembre	2023-11-09T00:00:00	2024-11-08T12:00:00	4	Temperatura máxima	25
6739	7	Sololá	712	San Antonio Palopó	9	San Antonio Palopo	9	Septiembre	2023-11-09T00:00:00	2024-11-08T12:00:00	3	Temperatura mínima	24.2
6740	7	Sololá	712	San Antonio Palopó	9	San Antonio Palopo	9	Septiembre	2023-11-09T00:00:00	2024-11-08T12:00:00	5	Humedad	71
6741	7	Sololá	712	San Antonio Palopó	9	San Antonio Palopo	9	Septiembre	2023-11-09T00:00:00	2024-11-08T12:00:00	6	Velocidad del viento	6.4
6742	7	Sololá	712	San Antonio Palopó	9	San Antonio Palopo	9	Septiembre	2023-11-09T00:00:00	2024-11-08T12:00:00	7	Dirección del viento	6.44
6743	7	Sololá	712	San Antonio Palopó	9	San Antonio Palopo	9	Septiembre	2023-11-09T00:00:00	2024-11-08T12:00:00	1	Precipitación	0
6744	7	Sololá	712	San Antonio Palopó	9	San Antonio Palopo	9	Septiembre	2023-11-09T00:00:00	2024-11-08T12:00:00	8	Radiación solar	869
6745	7	Sololá	712	San Antonio Palopó	9	San Antonio Palopo	9	Septiembre	2023-11-09T00:00:00	2024-11-08T13:00:00	2	Temperatura media	23.4
6746	7	Sololá	712	San Antonio Palopó	9	San Antonio Palopo	9	Septiembre	2023-11-09T00:00:00	2024-11-08T13:00:00	4	Temperatura máxima	24.8
6747	7	Sololá	712	San Antonio Palopó	9	San Antonio Palopo	9	Septiembre	2023-11-09T00:00:00	2024-11-08T13:00:00	3	Temperatura mínima	23.3
6748	7	Sololá	712	San Antonio Palopó	9	San Antonio Palopo	9	Septiembre	2023-11-09T00:00:00	2024-11-08T13:00:00	5	Humedad	76
6749	7	Sololá	712	San Antonio Palopó	9	San Antonio Palopo	9	Septiembre	2023-11-09T00:00:00	2024-11-08T13:00:00	6	Velocidad del viento	6.4
6750	7	Sololá	712	San Antonio Palopó	9	San Antonio Palopo	9	Septiembre	2023-11-09T00:00:00	2024-11-08T13:00:00	7	Dirección del viento	6.44
6751	7	Sololá	712	San Antonio Palopó	9	San Antonio Palopo	9	Septiembre	2023-11-09T00:00:00	2024-11-08T13:00:00	1	Precipitación	0
6752	7	Sololá	712	San Antonio Palopó	9	San Antonio Palopo	9	Septiembre	2023-11-09T00:00:00	2024-11-08T13:00:00	8	Radiación solar	308
6753	7	Sololá	712	San Antonio Palopó	9	San Antonio Palopo	9	Septiembre	2023-11-09T00:00:00	2024-11-08T14:00:00	2	Temperatura media	24.8
6754	7	Sololá	712	San Antonio Palopó	9	San Antonio Palopo	9	Septiembre	2023-11-09T00:00:00	2024-11-08T14:00:00	4	Temperatura máxima	24.8
6755	7	Sololá	712	San Antonio Palopó	9	San Antonio Palopo	9	Septiembre	2023-11-09T00:00:00	2024-11-08T14:00:00	3	Temperatura mínima	23.4
6756	7	Sololá	712	San Antonio Palopó	9	San Antonio Palopo	9	Septiembre	2023-11-09T00:00:00	2024-11-08T14:00:00	5	Humedad	71
6757	7	Sololá	712	San Antonio Palopó	9	San Antonio Palopo	9	Septiembre	2023-11-09T00:00:00	2024-11-08T14:00:00	6	Velocidad del viento	4.8
6758	7	Sololá	712	San Antonio Palopó	9	San Antonio Palopo	9	Septiembre	2023-11-09T00:00:00	2024-11-08T14:00:00	7	Dirección del viento	4.83
6759	7	Sololá	712	San Antonio Palopó	9	San Antonio Palopo	9	Septiembre	2023-11-09T00:00:00	2024-11-08T14:00:00	1	Precipitación	0
6760	7	Sololá	712	San Antonio Palopó	9	San Antonio Palopo	9	Septiembre	2023-11-09T00:00:00	2024-11-08T14:00:00	8	Radiación solar	497
6761	7	Sololá	712	San Antonio Palopó	9	San Antonio Palopo	9	Septiembre	2023-11-09T00:00:00	2024-11-08T15:00:00	2	Temperatura media	23.9
6762	7	Sololá	712	San Antonio Palopó	9	San Antonio Palopo	9	Septiembre	2023-11-09T00:00:00	2024-11-08T15:00:00	4	Temperatura máxima	24.9
6763	7	Sololá	712	San Antonio Palopó	9	San Antonio Palopo	9	Septiembre	2023-11-09T00:00:00	2024-11-08T15:00:00	3	Temperatura mínima	23.9
6764	7	Sololá	712	San Antonio Palopó	9	San Antonio Palopo	9	Septiembre	2023-11-09T00:00:00	2024-11-08T15:00:00	5	Humedad	75
6765	7	Sololá	712	San Antonio Palopó	9	San Antonio Palopo	9	Septiembre	2023-11-09T00:00:00	2024-11-08T15:00:00	6	Velocidad del viento	8
6766	7	Sololá	712	San Antonio Palopó	9	San Antonio Palopo	9	Septiembre	2023-11-09T00:00:00	2024-11-08T15:00:00	7	Dirección del viento	8.05
6767	7	Sololá	712	San Antonio Palopó	9	San Antonio Palopo	9	Septiembre	2023-11-09T00:00:00	2024-11-08T15:00:00	1	Precipitación	0
6768	7	Sololá	712	San Antonio Palopó	9	San Antonio Palopo	9	Septiembre	2023-11-09T00:00:00	2024-11-08T15:00:00	8	Radiación solar	559
6769	7	Sololá	712	San Antonio Palopó	9	San Antonio Palopo	9	Septiembre	2023-11-09T00:00:00	2024-11-08T16:00:00	2	Temperatura media	21.9
6770	7	Sololá	712	San Antonio Palopó	9	San Antonio Palopo	9	Septiembre	2023-11-09T00:00:00	2024-11-08T16:00:00	4	Temperatura máxima	23.9
6771	7	Sololá	712	San Antonio Palopó	9	San Antonio Palopo	9	Septiembre	2023-11-09T00:00:00	2024-11-08T16:00:00	3	Temperatura mínima	21.9
6772	7	Sololá	712	San Antonio Palopó	9	San Antonio Palopo	9	Septiembre	2023-11-09T00:00:00	2024-11-08T16:00:00	5	Humedad	80
6773	7	Sololá	712	San Antonio Palopó	9	San Antonio Palopo	9	Septiembre	2023-11-09T00:00:00	2024-11-08T16:00:00	6	Velocidad del viento	14.5
6774	7	Sololá	712	San Antonio Palopó	9	San Antonio Palopo	9	Septiembre	2023-11-09T00:00:00	2024-11-08T16:00:00	7	Dirección del viento	14.48
6775	7	Sololá	712	San Antonio Palopó	9	San Antonio Palopo	9	Septiembre	2023-11-09T00:00:00	2024-11-08T16:00:00	1	Precipitación	0
6776	7	Sololá	712	San Antonio Palopó	9	San Antonio Palopo	9	Septiembre	2023-11-09T00:00:00	2024-11-08T16:00:00	8	Radiación solar	108
6777	7	Sololá	712	San Antonio Palopó	9	San Antonio Palopo	9	Septiembre	2023-11-09T00:00:00	2024-11-08T17:00:00	2	Temperatura media	21.7
6778	7	Sololá	712	San Antonio Palopó	9	San Antonio Palopo	9	Septiembre	2023-11-09T00:00:00	2024-11-08T17:00:00	4	Temperatura máxima	21.9
6779	7	Sololá	712	San Antonio Palopó	9	San Antonio Palopo	9	Septiembre	2023-11-09T00:00:00	2024-11-08T17:00:00	3	Temperatura mínima	21.6
6780	7	Sololá	712	San Antonio Palopó	9	San Antonio Palopo	9	Septiembre	2023-11-09T00:00:00	2024-11-08T17:00:00	5	Humedad	78
6781	7	Sololá	712	San Antonio Palopó	9	San Antonio Palopo	9	Septiembre	2023-11-09T00:00:00	2024-11-08T17:00:00	6	Velocidad del viento	6.4
6782	7	Sololá	712	San Antonio Palopó	9	San Antonio Palopo	9	Septiembre	2023-11-09T00:00:00	2024-11-08T17:00:00	7	Dirección del viento	6.44
6783	7	Sololá	712	San Antonio Palopó	9	San Antonio Palopo	9	Septiembre	2023-11-09T00:00:00	2024-11-08T17:00:00	1	Precipitación	0
6784	7	Sololá	712	San Antonio Palopó	9	San Antonio Palopo	9	Septiembre	2023-11-09T00:00:00	2024-11-08T17:00:00	8	Radiación solar	37
6785	7	Sololá	712	San Antonio Palopó	9	San Antonio Palopo	9	Septiembre	2023-11-09T00:00:00	2024-11-08T18:00:00	2	Temperatura media	21.3
6786	7	Sololá	712	San Antonio Palopó	9	San Antonio Palopo	9	Septiembre	2023-11-09T00:00:00	2024-11-08T18:00:00	4	Temperatura máxima	21.7
6787	7	Sololá	712	San Antonio Palopó	9	San Antonio Palopo	9	Septiembre	2023-11-09T00:00:00	2024-11-08T18:00:00	3	Temperatura mínima	21.2
6788	7	Sololá	712	San Antonio Palopó	9	San Antonio Palopo	9	Septiembre	2023-11-09T00:00:00	2024-11-08T18:00:00	5	Humedad	82
6789	7	Sololá	712	San Antonio Palopó	9	San Antonio Palopo	9	Septiembre	2023-11-09T00:00:00	2024-11-08T18:00:00	6	Velocidad del viento	3.2
6790	7	Sololá	712	San Antonio Palopó	9	San Antonio Palopo	9	Septiembre	2023-11-09T00:00:00	2024-11-08T18:00:00	7	Dirección del viento	3.22
6791	7	Sololá	712	San Antonio Palopó	9	San Antonio Palopo	9	Septiembre	2023-11-09T00:00:00	2024-11-08T18:00:00	1	Precipitación	0
6792	7	Sololá	712	San Antonio Palopó	9	San Antonio Palopo	9	Septiembre	2023-11-09T00:00:00	2024-11-08T18:00:00	8	Radiación solar	17
6793	7	Sololá	712	San Antonio Palopó	9	San Antonio Palopo	9	Septiembre	2023-11-09T00:00:00	2024-11-08T19:00:00	2	Temperatura media	20.9
6794	7	Sololá	712	San Antonio Palopó	9	San Antonio Palopo	9	Septiembre	2023-11-09T00:00:00	2024-11-08T19:00:00	4	Temperatura máxima	21.3
6795	7	Sololá	712	San Antonio Palopó	9	San Antonio Palopo	9	Septiembre	2023-11-09T00:00:00	2024-11-08T19:00:00	3	Temperatura mínima	20.9
6796	7	Sololá	712	San Antonio Palopó	9	San Antonio Palopo	9	Septiembre	2023-11-09T00:00:00	2024-11-08T19:00:00	5	Humedad	82
6797	7	Sololá	712	San Antonio Palopó	9	San Antonio Palopo	9	Septiembre	2023-11-09T00:00:00	2024-11-08T19:00:00	6	Velocidad del viento	3.2
6798	7	Sololá	712	San Antonio Palopó	9	San Antonio Palopo	9	Septiembre	2023-11-09T00:00:00	2024-11-08T19:00:00	7	Dirección del viento	3.22
6799	7	Sololá	712	San Antonio Palopó	9	San Antonio Palopo	9	Septiembre	2023-11-09T00:00:00	2024-11-08T19:00:00	1	Precipitación	0
6800	7	Sololá	712	San Antonio Palopó	9	San Antonio Palopo	9	Septiembre	2023-11-09T00:00:00	2024-11-08T19:00:00	8	Radiación solar	0
6801	7	Sololá	712	San Antonio Palopó	9	San Antonio Palopo	9	Septiembre	2023-11-09T00:00:00	2024-11-08T20:00:00	2	Temperatura media	20.6
6802	7	Sololá	712	San Antonio Palopó	9	San Antonio Palopo	9	Septiembre	2023-11-09T00:00:00	2024-11-08T20:00:00	4	Temperatura máxima	20.9
6803	7	Sololá	712	San Antonio Palopó	9	San Antonio Palopo	9	Septiembre	2023-11-09T00:00:00	2024-11-08T20:00:00	3	Temperatura mínima	20.5
6804	7	Sololá	712	San Antonio Palopó	9	San Antonio Palopo	9	Septiembre	2023-11-09T00:00:00	2024-11-08T20:00:00	5	Humedad	86
6805	7	Sololá	712	San Antonio Palopó	9	San Antonio Palopo	9	Septiembre	2023-11-09T00:00:00	2024-11-08T20:00:00	6	Velocidad del viento	1.6
6806	7	Sololá	712	San Antonio Palopó	9	San Antonio Palopo	9	Septiembre	2023-11-09T00:00:00	2024-11-08T20:00:00	7	Dirección del viento	1.61
6807	7	Sololá	712	San Antonio Palopó	9	San Antonio Palopo	9	Septiembre	2023-11-09T00:00:00	2024-11-08T20:00:00	1	Precipitación	0
6808	7	Sololá	712	San Antonio Palopó	9	San Antonio Palopo	9	Septiembre	2023-11-09T00:00:00	2024-11-08T20:00:00	8	Radiación solar	0
6809	7	Sololá	712	San Antonio Palopó	9	San Antonio Palopo	9	Septiembre	2023-11-09T00:00:00	2024-11-08T21:00:00	2	Temperatura media	20.4
6810	7	Sololá	712	San Antonio Palopó	9	San Antonio Palopo	9	Septiembre	2023-11-09T00:00:00	2024-11-08T21:00:00	4	Temperatura máxima	20.6
6811	7	Sololá	712	San Antonio Palopó	9	San Antonio Palopo	9	Septiembre	2023-11-09T00:00:00	2024-11-08T21:00:00	3	Temperatura mínima	20.4
6812	7	Sololá	712	San Antonio Palopó	9	San Antonio Palopo	9	Septiembre	2023-11-09T00:00:00	2024-11-08T21:00:00	5	Humedad	85
6813	7	Sololá	712	San Antonio Palopó	9	San Antonio Palopo	9	Septiembre	2023-11-09T00:00:00	2024-11-08T21:00:00	6	Velocidad del viento	1.6
6814	7	Sololá	712	San Antonio Palopó	9	San Antonio Palopo	9	Septiembre	2023-11-09T00:00:00	2024-11-08T21:00:00	7	Dirección del viento	1.61
6815	7	Sololá	712	San Antonio Palopó	9	San Antonio Palopo	9	Septiembre	2023-11-09T00:00:00	2024-11-08T21:00:00	1	Precipitación	0
6816	7	Sololá	712	San Antonio Palopó	9	San Antonio Palopo	9	Septiembre	2023-11-09T00:00:00	2024-11-08T21:00:00	8	Radiación solar	0
6817	7	Sololá	712	San Antonio Palopó	9	San Antonio Palopo	9	Septiembre	2023-11-09T00:00:00	2024-11-08T22:00:00	2	Temperatura media	20.6
6818	7	Sololá	712	San Antonio Palopó	9	San Antonio Palopo	9	Septiembre	2023-11-09T00:00:00	2024-11-08T22:00:00	4	Temperatura máxima	20.7
6819	7	Sololá	712	San Antonio Palopó	9	San Antonio Palopo	9	Septiembre	2023-11-09T00:00:00	2024-11-08T22:00:00	3	Temperatura mínima	20.3
6820	7	Sololá	712	San Antonio Palopó	9	San Antonio Palopo	9	Septiembre	2023-11-09T00:00:00	2024-11-08T22:00:00	5	Humedad	77
6821	7	Sololá	712	San Antonio Palopó	9	San Antonio Palopo	9	Septiembre	2023-11-09T00:00:00	2024-11-08T22:00:00	6	Velocidad del viento	3.2
6822	7	Sololá	712	San Antonio Palopó	9	San Antonio Palopo	9	Septiembre	2023-11-09T00:00:00	2024-11-08T22:00:00	7	Dirección del viento	3.22
6823	7	Sololá	712	San Antonio Palopó	9	San Antonio Palopo	9	Septiembre	2023-11-09T00:00:00	2024-11-08T22:00:00	1	Precipitación	0
6824	7	Sololá	712	San Antonio Palopó	9	San Antonio Palopo	9	Septiembre	2023-11-09T00:00:00	2024-11-08T22:00:00	8	Radiación solar	0
6825	7	Sololá	712	San Antonio Palopó	9	San Antonio Palopo	9	Septiembre	2023-11-09T00:00:00	2024-11-08T23:00:00	2	Temperatura media	20.6
6826	7	Sololá	712	San Antonio Palopó	9	San Antonio Palopo	9	Septiembre	2023-11-09T00:00:00	2024-11-08T23:00:00	4	Temperatura máxima	20.8
6827	7	Sololá	712	San Antonio Palopó	9	San Antonio Palopo	9	Septiembre	2023-11-09T00:00:00	2024-11-08T23:00:00	3	Temperatura mínima	20.4
6828	7	Sololá	712	San Antonio Palopó	9	San Antonio Palopo	9	Septiembre	2023-11-09T00:00:00	2024-11-08T23:00:00	5	Humedad	73
6829	7	Sololá	712	San Antonio Palopó	9	San Antonio Palopo	9	Septiembre	2023-11-09T00:00:00	2024-11-08T23:00:00	6	Velocidad del viento	8
6830	7	Sololá	712	San Antonio Palopó	9	San Antonio Palopo	9	Septiembre	2023-11-09T00:00:00	2024-11-08T23:00:00	7	Dirección del viento	8.05
6831	7	Sololá	712	San Antonio Palopó	9	San Antonio Palopo	9	Septiembre	2023-11-09T00:00:00	2024-11-08T23:00:00	1	Precipitación	0
6832	7	Sololá	712	San Antonio Palopó	9	San Antonio Palopo	9	Septiembre	2023-11-09T00:00:00	2024-11-08T23:00:00	8	Radiación solar	0
6833	7	Sololá	712	San Antonio Palopó	9	San Antonio Palopo	9	Septiembre	2023-12-09T00:00:00	2024-11-08T00:00:00	2	Temperatura media	19.9
6834	7	Sololá	712	San Antonio Palopó	9	San Antonio Palopo	9	Septiembre	2023-12-09T00:00:00	2024-11-08T00:00:00	4	Temperatura máxima	20.7
6835	7	Sololá	712	San Antonio Palopó	9	San Antonio Palopo	9	Septiembre	2023-12-09T00:00:00	2024-11-08T00:00:00	3	Temperatura mínima	19.8
6836	7	Sololá	712	San Antonio Palopó	9	San Antonio Palopo	9	Septiembre	2023-12-09T00:00:00	2024-11-08T00:00:00	5	Humedad	75
6837	7	Sololá	712	San Antonio Palopó	9	San Antonio Palopo	9	Septiembre	2023-12-09T00:00:00	2024-11-08T00:00:00	6	Velocidad del viento	6.4
6838	7	Sololá	712	San Antonio Palopó	9	San Antonio Palopo	9	Septiembre	2023-12-09T00:00:00	2024-11-08T00:00:00	7	Dirección del viento	6.44
6839	7	Sololá	712	San Antonio Palopó	9	San Antonio Palopo	9	Septiembre	2023-12-09T00:00:00	2024-11-08T00:00:00	1	Precipitación	0
6840	7	Sololá	712	San Antonio Palopó	9	San Antonio Palopo	9	Septiembre	2023-12-09T00:00:00	2024-11-08T00:00:00	8	Radiación solar	0
6841	7	Sololá	712	San Antonio Palopó	9	San Antonio Palopo	9	Septiembre	2023-12-09T00:00:00	2024-11-08T01:00:00	2	Temperatura media	19.6
6842	7	Sololá	712	San Antonio Palopó	9	San Antonio Palopo	9	Septiembre	2023-12-09T00:00:00	2024-11-08T01:00:00	4	Temperatura máxima	19.9
6843	7	Sololá	712	San Antonio Palopó	9	San Antonio Palopo	9	Septiembre	2023-12-09T00:00:00	2024-11-08T01:00:00	3	Temperatura mínima	19.5
6844	7	Sololá	712	San Antonio Palopó	9	San Antonio Palopo	9	Septiembre	2023-12-09T00:00:00	2024-11-08T01:00:00	5	Humedad	75
6845	7	Sololá	712	San Antonio Palopó	9	San Antonio Palopo	9	Septiembre	2023-12-09T00:00:00	2024-11-08T01:00:00	6	Velocidad del viento	6.4
6846	7	Sololá	712	San Antonio Palopó	9	San Antonio Palopo	9	Septiembre	2023-12-09T00:00:00	2024-11-08T01:00:00	7	Dirección del viento	6.44
6847	7	Sololá	712	San Antonio Palopó	9	San Antonio Palopo	9	Septiembre	2023-12-09T00:00:00	2024-11-08T01:00:00	1	Precipitación	0
6848	7	Sololá	712	San Antonio Palopó	9	San Antonio Palopo	9	Septiembre	2023-12-09T00:00:00	2024-11-08T01:00:00	8	Radiación solar	0
6849	7	Sololá	712	San Antonio Palopó	9	San Antonio Palopo	9	Septiembre	2023-12-09T00:00:00	2024-11-08T02:00:00	2	Temperatura media	19.9
6850	7	Sololá	712	San Antonio Palopó	9	San Antonio Palopo	9	Septiembre	2023-12-09T00:00:00	2024-11-08T02:00:00	4	Temperatura máxima	20
6851	7	Sololá	712	San Antonio Palopó	9	San Antonio Palopo	9	Septiembre	2023-12-09T00:00:00	2024-11-08T02:00:00	3	Temperatura mínima	19.6
6852	7	Sololá	712	San Antonio Palopó	9	San Antonio Palopo	9	Septiembre	2023-12-09T00:00:00	2024-11-08T02:00:00	5	Humedad	73
6853	7	Sololá	712	San Antonio Palopó	9	San Antonio Palopo	9	Septiembre	2023-12-09T00:00:00	2024-11-08T02:00:00	6	Velocidad del viento	8
6854	7	Sololá	712	San Antonio Palopó	9	San Antonio Palopo	9	Septiembre	2023-12-09T00:00:00	2024-11-08T02:00:00	7	Dirección del viento	8.05
6855	7	Sololá	712	San Antonio Palopó	9	San Antonio Palopo	9	Septiembre	2023-12-09T00:00:00	2024-11-08T02:00:00	1	Precipitación	0
6856	7	Sololá	712	San Antonio Palopó	9	San Antonio Palopo	9	Septiembre	2023-12-09T00:00:00	2024-11-08T02:00:00	8	Radiación solar	0
6857	7	Sololá	712	San Antonio Palopó	9	San Antonio Palopo	9	Septiembre	2023-12-09T00:00:00	2024-11-08T03:00:00	2	Temperatura media	19.8
6858	7	Sololá	712	San Antonio Palopó	9	San Antonio Palopo	9	Septiembre	2023-12-09T00:00:00	2024-11-08T03:00:00	4	Temperatura máxima	20
6859	7	Sololá	712	San Antonio Palopó	9	San Antonio Palopo	9	Septiembre	2023-12-09T00:00:00	2024-11-08T03:00:00	3	Temperatura mínima	19.7
6860	7	Sololá	712	San Antonio Palopó	9	San Antonio Palopo	9	Septiembre	2023-12-09T00:00:00	2024-11-08T03:00:00	5	Humedad	73
6861	7	Sololá	712	San Antonio Palopó	9	San Antonio Palopo	9	Septiembre	2023-12-09T00:00:00	2024-11-08T03:00:00	6	Velocidad del viento	9.7
6862	7	Sololá	712	San Antonio Palopó	9	San Antonio Palopo	9	Septiembre	2023-12-09T00:00:00	2024-11-08T03:00:00	7	Dirección del viento	9.66
6863	7	Sololá	712	San Antonio Palopó	9	San Antonio Palopo	9	Septiembre	2023-12-09T00:00:00	2024-11-08T03:00:00	1	Precipitación	0
6864	7	Sololá	712	San Antonio Palopó	9	San Antonio Palopo	9	Septiembre	2023-12-09T00:00:00	2024-11-08T03:00:00	8	Radiación solar	0
6865	7	Sololá	712	San Antonio Palopó	9	San Antonio Palopo	9	Septiembre	2023-12-09T00:00:00	2024-11-08T04:00:00	2	Temperatura media	19.2
6866	7	Sololá	712	San Antonio Palopó	9	San Antonio Palopo	9	Septiembre	2023-12-09T00:00:00	2024-11-08T04:00:00	4	Temperatura máxima	20.1
6867	7	Sololá	712	San Antonio Palopó	9	San Antonio Palopo	9	Septiembre	2023-12-09T00:00:00	2024-11-08T04:00:00	3	Temperatura mínima	19.2
6868	7	Sololá	712	San Antonio Palopó	9	San Antonio Palopo	9	Septiembre	2023-12-09T00:00:00	2024-11-08T04:00:00	5	Humedad	75
6869	7	Sololá	712	San Antonio Palopó	9	San Antonio Palopo	9	Septiembre	2023-12-09T00:00:00	2024-11-08T04:00:00	6	Velocidad del viento	14.5
6870	7	Sololá	712	San Antonio Palopó	9	San Antonio Palopo	9	Septiembre	2023-12-09T00:00:00	2024-11-08T04:00:00	7	Dirección del viento	14.48
6871	7	Sololá	712	San Antonio Palopó	9	San Antonio Palopo	9	Septiembre	2023-12-09T00:00:00	2024-11-08T04:00:00	1	Precipitación	0
6872	7	Sololá	712	San Antonio Palopó	9	San Antonio Palopo	9	Septiembre	2023-12-09T00:00:00	2024-11-08T04:00:00	8	Radiación solar	0
6873	7	Sololá	712	San Antonio Palopó	9	San Antonio Palopo	9	Septiembre	2023-12-09T00:00:00	2024-11-08T05:00:00	2	Temperatura media	18.9
6874	7	Sololá	712	San Antonio Palopó	9	San Antonio Palopo	9	Septiembre	2023-12-09T00:00:00	2024-11-08T05:00:00	4	Temperatura máxima	19.3
6875	7	Sololá	712	San Antonio Palopó	9	San Antonio Palopo	9	Septiembre	2023-12-09T00:00:00	2024-11-08T05:00:00	3	Temperatura mínima	18.9
6876	7	Sololá	712	San Antonio Palopó	9	San Antonio Palopo	9	Septiembre	2023-12-09T00:00:00	2024-11-08T05:00:00	5	Humedad	75
6877	7	Sololá	712	San Antonio Palopó	9	San Antonio Palopo	9	Septiembre	2023-12-09T00:00:00	2024-11-08T05:00:00	6	Velocidad del viento	12.9
6878	7	Sololá	712	San Antonio Palopó	9	San Antonio Palopo	9	Septiembre	2023-12-09T00:00:00	2024-11-08T05:00:00	7	Dirección del viento	12.87
6879	7	Sololá	712	San Antonio Palopó	9	San Antonio Palopo	9	Septiembre	2023-12-09T00:00:00	2024-11-08T05:00:00	1	Precipitación	0
6880	7	Sololá	712	San Antonio Palopó	9	San Antonio Palopo	9	Septiembre	2023-12-09T00:00:00	2024-11-08T05:00:00	8	Radiación solar	0
6881	7	Sololá	712	San Antonio Palopó	9	San Antonio Palopo	9	Septiembre	2023-12-09T00:00:00	2024-11-08T06:00:00	2	Temperatura media	18.9
6882	7	Sololá	712	San Antonio Palopó	9	San Antonio Palopo	9	Septiembre	2023-12-09T00:00:00	2024-11-08T06:00:00	4	Temperatura máxima	18.9
6883	7	Sololá	712	San Antonio Palopó	9	San Antonio Palopo	9	Septiembre	2023-12-09T00:00:00	2024-11-08T06:00:00	3	Temperatura mínima	18.7
6884	7	Sololá	712	San Antonio Palopó	9	San Antonio Palopo	9	Septiembre	2023-12-09T00:00:00	2024-11-08T06:00:00	5	Humedad	74
6885	7	Sololá	712	San Antonio Palopó	9	San Antonio Palopo	9	Septiembre	2023-12-09T00:00:00	2024-11-08T06:00:00	6	Velocidad del viento	11.3
6886	7	Sololá	712	San Antonio Palopó	9	San Antonio Palopo	9	Septiembre	2023-12-09T00:00:00	2024-11-08T06:00:00	7	Dirección del viento	11.27
6887	7	Sololá	712	San Antonio Palopó	9	San Antonio Palopo	9	Septiembre	2023-12-09T00:00:00	2024-11-08T06:00:00	1	Precipitación	0
6888	7	Sololá	712	San Antonio Palopó	9	San Antonio Palopo	9	Septiembre	2023-12-09T00:00:00	2024-11-08T06:00:00	8	Radiación solar	0
6889	7	Sololá	712	San Antonio Palopó	9	San Antonio Palopo	9	Septiembre	2023-12-09T00:00:00	2024-11-08T07:00:00	2	Temperatura media	18.9
6890	7	Sololá	712	San Antonio Palopó	9	San Antonio Palopo	9	Septiembre	2023-12-09T00:00:00	2024-11-08T07:00:00	4	Temperatura máxima	19
6891	7	Sololá	712	San Antonio Palopó	9	San Antonio Palopo	9	Septiembre	2023-12-09T00:00:00	2024-11-08T07:00:00	3	Temperatura mínima	18.8
6892	7	Sololá	712	San Antonio Palopó	9	San Antonio Palopo	9	Septiembre	2023-12-09T00:00:00	2024-11-08T07:00:00	5	Humedad	74
6893	7	Sololá	712	San Antonio Palopó	9	San Antonio Palopo	9	Septiembre	2023-12-09T00:00:00	2024-11-08T07:00:00	6	Velocidad del viento	11.3
6894	7	Sololá	712	San Antonio Palopó	9	San Antonio Palopo	9	Septiembre	2023-12-09T00:00:00	2024-11-08T07:00:00	7	Dirección del viento	11.27
6895	7	Sololá	712	San Antonio Palopó	9	San Antonio Palopo	9	Septiembre	2023-12-09T00:00:00	2024-11-08T07:00:00	1	Precipitación	0
6896	7	Sololá	712	San Antonio Palopó	9	San Antonio Palopo	9	Septiembre	2023-12-09T00:00:00	2024-11-08T07:00:00	8	Radiación solar	13
6897	7	Sololá	712	San Antonio Palopó	9	San Antonio Palopo	9	Septiembre	2023-12-09T00:00:00	2024-11-08T08:00:00	2	Temperatura media	20.7
6898	7	Sololá	712	San Antonio Palopó	9	San Antonio Palopo	9	Septiembre	2023-12-09T00:00:00	2024-11-08T08:00:00	4	Temperatura máxima	20.7
6899	7	Sololá	712	San Antonio Palopó	9	San Antonio Palopo	9	Septiembre	2023-12-09T00:00:00	2024-11-08T08:00:00	3	Temperatura mínima	18.9
6900	7	Sololá	712	San Antonio Palopó	9	San Antonio Palopo	9	Septiembre	2023-12-09T00:00:00	2024-11-08T08:00:00	5	Humedad	71
6901	7	Sololá	712	San Antonio Palopó	9	San Antonio Palopo	9	Septiembre	2023-12-09T00:00:00	2024-11-08T08:00:00	6	Velocidad del viento	8
6902	7	Sololá	712	San Antonio Palopó	9	San Antonio Palopo	9	Septiembre	2023-12-09T00:00:00	2024-11-08T08:00:00	7	Dirección del viento	8.05
6903	7	Sololá	712	San Antonio Palopó	9	San Antonio Palopo	9	Septiembre	2023-12-09T00:00:00	2024-11-08T08:00:00	1	Precipitación	0
6904	7	Sololá	712	San Antonio Palopó	9	San Antonio Palopo	9	Septiembre	2023-12-09T00:00:00	2024-11-08T08:00:00	8	Radiación solar	114
6905	7	Sololá	712	San Antonio Palopó	9	San Antonio Palopo	9	Septiembre	2023-12-09T00:00:00	2024-11-08T09:00:00	2	Temperatura media	23.3
6906	7	Sololá	712	San Antonio Palopó	9	San Antonio Palopo	9	Septiembre	2023-12-09T00:00:00	2024-11-08T09:00:00	4	Temperatura máxima	23.3
6907	7	Sololá	712	San Antonio Palopó	9	San Antonio Palopo	9	Septiembre	2023-12-09T00:00:00	2024-11-08T09:00:00	3	Temperatura mínima	20.7
6908	7	Sololá	712	San Antonio Palopó	9	San Antonio Palopo	9	Septiembre	2023-12-09T00:00:00	2024-11-08T09:00:00	5	Humedad	65
6909	7	Sololá	712	San Antonio Palopó	9	San Antonio Palopo	9	Septiembre	2023-12-09T00:00:00	2024-11-08T09:00:00	6	Velocidad del viento	1.6
6910	7	Sololá	712	San Antonio Palopó	9	San Antonio Palopo	9	Septiembre	2023-12-09T00:00:00	2024-11-08T09:00:00	7	Dirección del viento	1.61
6911	7	Sololá	712	San Antonio Palopó	9	San Antonio Palopo	9	Septiembre	2023-12-09T00:00:00	2024-11-08T09:00:00	1	Precipitación	0
6912	7	Sololá	712	San Antonio Palopó	9	San Antonio Palopo	9	Septiembre	2023-12-09T00:00:00	2024-11-08T09:00:00	8	Radiación solar	464
6913	7	Sololá	712	San Antonio Palopó	9	San Antonio Palopo	9	Septiembre	2023-12-09T00:00:00	2024-11-08T10:00:00	2	Temperatura media	23.4
6914	7	Sololá	712	San Antonio Palopó	9	San Antonio Palopo	9	Septiembre	2023-12-09T00:00:00	2024-11-08T10:00:00	4	Temperatura máxima	23.4
6915	7	Sololá	712	San Antonio Palopó	9	San Antonio Palopo	9	Septiembre	2023-12-09T00:00:00	2024-11-08T10:00:00	3	Temperatura mínima	22.5
6916	7	Sololá	712	San Antonio Palopó	9	San Antonio Palopo	9	Septiembre	2023-12-09T00:00:00	2024-11-08T10:00:00	5	Humedad	67
6917	7	Sololá	712	San Antonio Palopó	9	San Antonio Palopo	9	Septiembre	2023-12-09T00:00:00	2024-11-08T10:00:00	6	Velocidad del viento	3.2
6918	7	Sololá	712	San Antonio Palopó	9	San Antonio Palopo	9	Septiembre	2023-12-09T00:00:00	2024-11-08T10:00:00	7	Dirección del viento	3.22
6919	7	Sololá	712	San Antonio Palopó	9	San Antonio Palopo	9	Septiembre	2023-12-09T00:00:00	2024-11-08T10:00:00	1	Precipitación	0
6920	7	Sololá	712	San Antonio Palopó	9	San Antonio Palopo	9	Septiembre	2023-12-09T00:00:00	2024-11-08T10:00:00	8	Radiación solar	571
6921	7	Sololá	712	San Antonio Palopó	9	San Antonio Palopo	9	Septiembre	2023-12-09T00:00:00	2024-11-08T11:00:00	2	Temperatura media	23.9
6922	7	Sololá	712	San Antonio Palopó	9	San Antonio Palopo	9	Septiembre	2023-12-09T00:00:00	2024-11-08T11:00:00	4	Temperatura máxima	24.2
6923	7	Sololá	712	San Antonio Palopó	9	San Antonio Palopo	9	Septiembre	2023-12-09T00:00:00	2024-11-08T11:00:00	3	Temperatura mínima	23.4
6924	7	Sololá	712	San Antonio Palopó	9	San Antonio Palopo	9	Septiembre	2023-12-09T00:00:00	2024-11-08T11:00:00	5	Humedad	69
6925	7	Sololá	712	San Antonio Palopó	9	San Antonio Palopo	9	Septiembre	2023-12-09T00:00:00	2024-11-08T11:00:00	6	Velocidad del viento	3.2
6926	7	Sololá	712	San Antonio Palopó	9	San Antonio Palopo	9	Septiembre	2023-12-09T00:00:00	2024-11-08T11:00:00	7	Dirección del viento	3.22
6927	7	Sololá	712	San Antonio Palopó	9	San Antonio Palopo	9	Septiembre	2023-12-09T00:00:00	2024-11-08T11:00:00	1	Precipitación	0
6928	7	Sololá	712	San Antonio Palopó	9	San Antonio Palopo	9	Septiembre	2023-12-09T00:00:00	2024-11-08T11:00:00	8	Radiación solar	844
6929	7	Sololá	712	San Antonio Palopó	9	San Antonio Palopo	9	Septiembre	2023-12-09T00:00:00	2024-11-08T12:00:00	2	Temperatura media	23.8
6930	7	Sololá	712	San Antonio Palopó	9	San Antonio Palopo	9	Septiembre	2023-12-09T00:00:00	2024-11-08T12:00:00	4	Temperatura máxima	25.2
6931	7	Sololá	712	San Antonio Palopó	9	San Antonio Palopo	9	Septiembre	2023-12-09T00:00:00	2024-11-08T12:00:00	3	Temperatura mínima	23.8
6932	7	Sololá	712	San Antonio Palopó	9	San Antonio Palopo	9	Septiembre	2023-12-09T00:00:00	2024-11-08T12:00:00	5	Humedad	70
6933	7	Sololá	712	San Antonio Palopó	9	San Antonio Palopo	9	Septiembre	2023-12-09T00:00:00	2024-11-08T12:00:00	6	Velocidad del viento	4.8
6934	7	Sololá	712	San Antonio Palopó	9	San Antonio Palopo	9	Septiembre	2023-12-09T00:00:00	2024-11-08T12:00:00	7	Dirección del viento	4.83
6935	7	Sololá	712	San Antonio Palopó	9	San Antonio Palopo	9	Septiembre	2023-12-09T00:00:00	2024-11-08T12:00:00	1	Precipitación	0
6936	7	Sololá	712	San Antonio Palopó	9	San Antonio Palopo	9	Septiembre	2023-12-09T00:00:00	2024-11-08T12:00:00	8	Radiación solar	731
6937	7	Sololá	712	San Antonio Palopó	9	San Antonio Palopo	9	Septiembre	2023-12-09T00:00:00	2024-11-08T13:00:00	2	Temperatura media	23.7
6938	7	Sololá	712	San Antonio Palopó	9	San Antonio Palopo	9	Septiembre	2023-12-09T00:00:00	2024-11-08T13:00:00	4	Temperatura máxima	24.8
6939	7	Sololá	712	San Antonio Palopó	9	San Antonio Palopo	9	Septiembre	2023-12-09T00:00:00	2024-11-08T13:00:00	3	Temperatura mínima	23.7
6940	7	Sololá	712	San Antonio Palopó	9	San Antonio Palopo	9	Septiembre	2023-12-09T00:00:00	2024-11-08T13:00:00	5	Humedad	75
6941	7	Sololá	712	San Antonio Palopó	9	San Antonio Palopo	9	Septiembre	2023-12-09T00:00:00	2024-11-08T13:00:00	6	Velocidad del viento	6.4
6942	7	Sololá	712	San Antonio Palopó	9	San Antonio Palopo	9	Septiembre	2023-12-09T00:00:00	2024-11-08T13:00:00	7	Dirección del viento	6.44
6943	7	Sololá	712	San Antonio Palopó	9	San Antonio Palopo	9	Septiembre	2023-12-09T00:00:00	2024-11-08T13:00:00	1	Precipitación	0
6944	7	Sololá	712	San Antonio Palopó	9	San Antonio Palopo	9	Septiembre	2023-12-09T00:00:00	2024-11-08T13:00:00	8	Radiación solar	631
6945	7	Sololá	712	San Antonio Palopó	9	San Antonio Palopo	9	Septiembre	2023-12-09T00:00:00	2024-11-08T14:00:00	2	Temperatura media	23.9
6946	7	Sololá	712	San Antonio Palopó	9	San Antonio Palopo	9	Septiembre	2023-12-09T00:00:00	2024-11-08T14:00:00	4	Temperatura máxima	24.9
6947	7	Sololá	712	San Antonio Palopó	9	San Antonio Palopo	9	Septiembre	2023-12-09T00:00:00	2024-11-08T14:00:00	3	Temperatura mínima	23.6
6948	7	Sololá	712	San Antonio Palopó	9	San Antonio Palopo	9	Septiembre	2023-12-09T00:00:00	2024-11-08T14:00:00	5	Humedad	74
6949	7	Sololá	712	San Antonio Palopó	9	San Antonio Palopo	9	Septiembre	2023-12-09T00:00:00	2024-11-08T14:00:00	6	Velocidad del viento	4.8
6950	7	Sololá	712	San Antonio Palopó	9	San Antonio Palopo	9	Septiembre	2023-12-09T00:00:00	2024-11-08T14:00:00	7	Dirección del viento	4.83
6951	7	Sololá	712	San Antonio Palopó	9	San Antonio Palopo	9	Septiembre	2023-12-09T00:00:00	2024-11-08T14:00:00	1	Precipitación	0
6952	7	Sololá	712	San Antonio Palopó	9	San Antonio Palopo	9	Septiembre	2023-12-09T00:00:00	2024-11-08T14:00:00	8	Radiación solar	417
6953	7	Sololá	712	San Antonio Palopó	9	San Antonio Palopo	9	Septiembre	2023-12-09T00:00:00	2024-11-08T15:00:00	2	Temperatura media	24.7
6954	7	Sololá	712	San Antonio Palopó	9	San Antonio Palopo	9	Septiembre	2023-12-09T00:00:00	2024-11-08T15:00:00	4	Temperatura máxima	24.9
6955	7	Sololá	712	San Antonio Palopó	9	San Antonio Palopo	9	Septiembre	2023-12-09T00:00:00	2024-11-08T15:00:00	3	Temperatura mínima	23.9
6956	7	Sololá	712	San Antonio Palopó	9	San Antonio Palopo	9	Septiembre	2023-12-09T00:00:00	2024-11-08T15:00:00	5	Humedad	72
6957	7	Sololá	712	San Antonio Palopó	9	San Antonio Palopo	9	Septiembre	2023-12-09T00:00:00	2024-11-08T15:00:00	6	Velocidad del viento	6.4
6958	7	Sololá	712	San Antonio Palopó	9	San Antonio Palopo	9	Septiembre	2023-12-09T00:00:00	2024-11-08T15:00:00	7	Dirección del viento	6.44
6959	7	Sololá	712	San Antonio Palopó	9	San Antonio Palopo	9	Septiembre	2023-12-09T00:00:00	2024-11-08T15:00:00	1	Precipitación	0
6960	7	Sololá	712	San Antonio Palopó	9	San Antonio Palopo	9	Septiembre	2023-12-09T00:00:00	2024-11-08T15:00:00	8	Radiación solar	450
6961	7	Sololá	712	San Antonio Palopó	9	San Antonio Palopo	9	Septiembre	2023-12-09T00:00:00	2024-11-08T16:00:00	2	Temperatura media	23.8
6962	7	Sololá	712	San Antonio Palopó	9	San Antonio Palopo	9	Septiembre	2023-12-09T00:00:00	2024-11-08T16:00:00	4	Temperatura máxima	25.2
6963	7	Sololá	712	San Antonio Palopó	9	San Antonio Palopo	9	Septiembre	2023-12-09T00:00:00	2024-11-08T16:00:00	3	Temperatura mínima	23.7
6964	7	Sololá	712	San Antonio Palopó	9	San Antonio Palopo	9	Septiembre	2023-12-09T00:00:00	2024-11-08T16:00:00	5	Humedad	77
6965	7	Sololá	712	San Antonio Palopó	9	San Antonio Palopo	9	Septiembre	2023-12-09T00:00:00	2024-11-08T16:00:00	6	Velocidad del viento	6.4
6966	7	Sololá	712	San Antonio Palopó	9	San Antonio Palopo	9	Septiembre	2023-12-09T00:00:00	2024-11-08T16:00:00	7	Dirección del viento	6.44
6967	7	Sololá	712	San Antonio Palopó	9	San Antonio Palopo	9	Septiembre	2023-12-09T00:00:00	2024-11-08T16:00:00	1	Precipitación	0
6968	7	Sololá	712	San Antonio Palopó	9	San Antonio Palopo	9	Septiembre	2023-12-09T00:00:00	2024-11-08T16:00:00	8	Radiación solar	397
6969	7	Sololá	712	San Antonio Palopó	9	San Antonio Palopo	9	Septiembre	2023-12-09T00:00:00	2024-11-08T17:00:00	2	Temperatura media	22.4
6970	7	Sololá	712	San Antonio Palopó	9	San Antonio Palopo	9	Septiembre	2023-12-09T00:00:00	2024-11-08T17:00:00	4	Temperatura máxima	23.9
6971	7	Sololá	712	San Antonio Palopó	9	San Antonio Palopo	9	Septiembre	2023-12-09T00:00:00	2024-11-08T17:00:00	3	Temperatura mínima	22.4
6972	7	Sololá	712	San Antonio Palopó	9	San Antonio Palopo	9	Septiembre	2023-12-09T00:00:00	2024-11-08T17:00:00	5	Humedad	78
6973	7	Sololá	712	San Antonio Palopó	9	San Antonio Palopo	9	Septiembre	2023-12-09T00:00:00	2024-11-08T17:00:00	6	Velocidad del viento	8
6974	7	Sololá	712	San Antonio Palopó	9	San Antonio Palopo	9	Septiembre	2023-12-09T00:00:00	2024-11-08T17:00:00	7	Dirección del viento	8.05
6975	7	Sololá	712	San Antonio Palopó	9	San Antonio Palopo	9	Septiembre	2023-12-09T00:00:00	2024-11-08T17:00:00	1	Precipitación	0
6976	7	Sololá	712	San Antonio Palopó	9	San Antonio Palopo	9	Septiembre	2023-12-09T00:00:00	2024-11-08T17:00:00	8	Radiación solar	248
6977	7	Sololá	712	San Antonio Palopó	9	San Antonio Palopo	9	Septiembre	2023-12-09T00:00:00	2024-11-08T18:00:00	2	Temperatura media	21.8
6978	7	Sololá	712	San Antonio Palopó	9	San Antonio Palopo	9	Septiembre	2023-12-09T00:00:00	2024-11-08T18:00:00	4	Temperatura máxima	22.6
6979	7	Sololá	712	San Antonio Palopó	9	San Antonio Palopo	9	Septiembre	2023-12-09T00:00:00	2024-11-08T18:00:00	3	Temperatura mínima	21.8
6980	7	Sololá	712	San Antonio Palopó	9	San Antonio Palopo	9	Septiembre	2023-12-09T00:00:00	2024-11-08T18:00:00	5	Humedad	81
6981	7	Sololá	712	San Antonio Palopó	9	San Antonio Palopo	9	Septiembre	2023-12-09T00:00:00	2024-11-08T18:00:00	6	Velocidad del viento	3.2
6982	7	Sololá	712	San Antonio Palopó	9	San Antonio Palopo	9	Septiembre	2023-12-09T00:00:00	2024-11-08T18:00:00	7	Dirección del viento	3.22
6983	7	Sololá	712	San Antonio Palopó	9	San Antonio Palopo	9	Septiembre	2023-12-09T00:00:00	2024-11-08T18:00:00	1	Precipitación	0
6984	7	Sololá	712	San Antonio Palopó	9	San Antonio Palopo	9	Septiembre	2023-12-09T00:00:00	2024-11-08T18:00:00	8	Radiación solar	49
6985	7	Sololá	712	San Antonio Palopó	9	San Antonio Palopo	9	Septiembre	2023-12-09T00:00:00	2024-11-08T19:00:00	2	Temperatura media	21.3
6986	7	Sololá	712	San Antonio Palopó	9	San Antonio Palopo	9	Septiembre	2023-12-09T00:00:00	2024-11-08T19:00:00	4	Temperatura máxima	21.8
6987	7	Sololá	712	San Antonio Palopó	9	San Antonio Palopo	9	Septiembre	2023-12-09T00:00:00	2024-11-08T19:00:00	3	Temperatura mínima	21.3
6988	7	Sololá	712	San Antonio Palopó	9	San Antonio Palopo	9	Septiembre	2023-12-09T00:00:00	2024-11-08T19:00:00	5	Humedad	82
6989	7	Sololá	712	San Antonio Palopó	9	San Antonio Palopo	9	Septiembre	2023-12-09T00:00:00	2024-11-08T19:00:00	6	Velocidad del viento	1.6
6990	7	Sololá	712	San Antonio Palopó	9	San Antonio Palopo	9	Septiembre	2023-12-09T00:00:00	2024-11-08T19:00:00	7	Dirección del viento	1.61
6991	7	Sololá	712	San Antonio Palopó	9	San Antonio Palopo	9	Septiembre	2023-12-09T00:00:00	2024-11-08T19:00:00	1	Precipitación	0
6992	7	Sololá	712	San Antonio Palopó	9	San Antonio Palopo	9	Septiembre	2023-12-09T00:00:00	2024-11-08T19:00:00	8	Radiación solar	0
6993	7	Sololá	712	San Antonio Palopó	9	San Antonio Palopo	9	Septiembre	2023-12-09T00:00:00	2024-11-08T20:00:00	2	Temperatura media	21.2
6994	7	Sololá	712	San Antonio Palopó	9	San Antonio Palopo	9	Septiembre	2023-12-09T00:00:00	2024-11-08T20:00:00	4	Temperatura máxima	21.3
6995	7	Sololá	712	San Antonio Palopó	9	San Antonio Palopo	9	Septiembre	2023-12-09T00:00:00	2024-11-08T20:00:00	3	Temperatura mínima	21.2
6996	7	Sololá	712	San Antonio Palopó	9	San Antonio Palopo	9	Septiembre	2023-12-09T00:00:00	2024-11-08T20:00:00	5	Humedad	83
6997	7	Sololá	712	San Antonio Palopó	9	San Antonio Palopo	9	Septiembre	2023-12-09T00:00:00	2024-11-08T20:00:00	6	Velocidad del viento	3.2
6998	7	Sololá	712	San Antonio Palopó	9	San Antonio Palopo	9	Septiembre	2023-12-09T00:00:00	2024-11-08T20:00:00	7	Dirección del viento	3.22
6999	7	Sololá	712	San Antonio Palopó	9	San Antonio Palopo	9	Septiembre	2023-12-09T00:00:00	2024-11-08T20:00:00	1	Precipitación	0
7000	7	Sololá	712	San Antonio Palopó	9	San Antonio Palopo	9	Septiembre	2023-12-09T00:00:00	2024-11-08T20:00:00	8	Radiación solar	0
7001	7	Sololá	712	San Antonio Palopó	9	San Antonio Palopo	9	Septiembre	2023-12-09T00:00:00	2024-11-08T21:00:00	2	Temperatura media	20.4
7002	7	Sololá	712	San Antonio Palopó	9	San Antonio Palopo	9	Septiembre	2023-12-09T00:00:00	2024-11-08T21:00:00	4	Temperatura máxima	21.2
7003	7	Sololá	712	San Antonio Palopó	9	San Antonio Palopo	9	Septiembre	2023-12-09T00:00:00	2024-11-08T21:00:00	3	Temperatura mínima	19.8
7004	7	Sololá	712	San Antonio Palopó	9	San Antonio Palopo	9	Septiembre	2023-12-09T00:00:00	2024-11-08T21:00:00	5	Humedad	84
7005	7	Sololá	712	San Antonio Palopó	9	San Antonio Palopo	9	Septiembre	2023-12-09T00:00:00	2024-11-08T21:00:00	6	Velocidad del viento	4.8
7006	7	Sololá	712	San Antonio Palopó	9	San Antonio Palopo	9	Septiembre	2023-12-09T00:00:00	2024-11-08T21:00:00	7	Dirección del viento	4.83
7007	7	Sololá	712	San Antonio Palopó	9	San Antonio Palopo	9	Septiembre	2023-12-09T00:00:00	2024-11-08T21:00:00	1	Precipitación	0
7008	7	Sololá	712	San Antonio Palopó	9	San Antonio Palopo	9	Septiembre	2023-12-09T00:00:00	2024-11-08T21:00:00	8	Radiación solar	0
7009	7	Sololá	712	San Antonio Palopó	9	San Antonio Palopo	9	Septiembre	2023-12-09T00:00:00	2024-11-08T22:00:00	2	Temperatura media	19.9
7010	7	Sololá	712	San Antonio Palopó	9	San Antonio Palopo	9	Septiembre	2023-12-09T00:00:00	2024-11-08T22:00:00	4	Temperatura máxima	20.6
7011	7	Sololá	712	San Antonio Palopó	9	San Antonio Palopo	9	Septiembre	2023-12-09T00:00:00	2024-11-08T22:00:00	3	Temperatura mínima	19.9
7012	7	Sololá	712	San Antonio Palopó	9	San Antonio Palopo	9	Septiembre	2023-12-09T00:00:00	2024-11-08T22:00:00	5	Humedad	82
7013	7	Sololá	712	San Antonio Palopó	9	San Antonio Palopo	9	Septiembre	2023-12-09T00:00:00	2024-11-08T22:00:00	6	Velocidad del viento	3.2
7014	7	Sololá	712	San Antonio Palopó	9	San Antonio Palopo	9	Septiembre	2023-12-09T00:00:00	2024-11-08T22:00:00	7	Dirección del viento	3.22
7015	7	Sololá	712	San Antonio Palopó	9	San Antonio Palopo	9	Septiembre	2023-12-09T00:00:00	2024-11-08T22:00:00	1	Precipitación	0
7016	7	Sololá	712	San Antonio Palopó	9	San Antonio Palopo	9	Septiembre	2023-12-09T00:00:00	2024-11-08T22:00:00	8	Radiación solar	0
7017	7	Sololá	712	San Antonio Palopó	9	San Antonio Palopo	9	Septiembre	2023-12-09T00:00:00	2024-11-08T23:00:00	2	Temperatura media	20.8
7018	7	Sololá	712	San Antonio Palopó	9	San Antonio Palopo	9	Septiembre	2023-12-09T00:00:00	2024-11-08T23:00:00	4	Temperatura máxima	20.9
7019	7	Sololá	712	San Antonio Palopó	9	San Antonio Palopo	9	Septiembre	2023-12-09T00:00:00	2024-11-08T23:00:00	3	Temperatura mínima	19.9
7020	7	Sololá	712	San Antonio Palopó	9	San Antonio Palopo	9	Septiembre	2023-12-09T00:00:00	2024-11-08T23:00:00	5	Humedad	78
7021	7	Sololá	712	San Antonio Palopó	9	San Antonio Palopo	9	Septiembre	2023-12-09T00:00:00	2024-11-08T23:00:00	6	Velocidad del viento	4.8
7022	7	Sololá	712	San Antonio Palopó	9	San Antonio Palopo	9	Septiembre	2023-12-09T00:00:00	2024-11-08T23:00:00	7	Dirección del viento	4.83
7023	7	Sololá	712	San Antonio Palopó	9	San Antonio Palopo	9	Septiembre	2023-12-09T00:00:00	2024-11-08T23:00:00	1	Precipitación	0
7024	7	Sololá	712	San Antonio Palopó	9	San Antonio Palopo	9	Septiembre	2023-12-09T00:00:00	2024-11-08T23:00:00	8	Radiación solar	0
7025	7	Sololá	712	San Antonio Palopó	9	San Antonio Palopo	9	Septiembre	2023-09-13T00:00:00	2024-11-08T00:00:00	2	Temperatura media	19.9
7026	7	Sololá	712	San Antonio Palopó	9	San Antonio Palopo	9	Septiembre	2023-09-13T00:00:00	2024-11-08T00:00:00	4	Temperatura máxima	20.9
7027	7	Sololá	712	San Antonio Palopó	9	San Antonio Palopo	9	Septiembre	2023-09-13T00:00:00	2024-11-08T00:00:00	3	Temperatura mínima	19.9
7028	7	Sololá	712	San Antonio Palopó	9	San Antonio Palopo	9	Septiembre	2023-09-13T00:00:00	2024-11-08T00:00:00	5	Humedad	82
7029	7	Sololá	712	San Antonio Palopó	9	San Antonio Palopo	9	Septiembre	2023-09-13T00:00:00	2024-11-08T00:00:00	6	Velocidad del viento	3.2
7030	7	Sololá	712	San Antonio Palopó	9	San Antonio Palopo	9	Septiembre	2023-09-13T00:00:00	2024-11-08T00:00:00	7	Dirección del viento	3.22
7031	7	Sololá	712	San Antonio Palopó	9	San Antonio Palopo	9	Septiembre	2023-09-13T00:00:00	2024-11-08T00:00:00	1	Precipitación	0
7032	7	Sololá	712	San Antonio Palopó	9	San Antonio Palopo	9	Septiembre	2023-09-13T00:00:00	2024-11-08T00:00:00	8	Radiación solar	0
7033	7	Sololá	712	San Antonio Palopó	9	San Antonio Palopo	9	Septiembre	2023-09-13T00:00:00	2024-11-08T01:00:00	2	Temperatura media	20.1
7034	7	Sololá	712	San Antonio Palopó	9	San Antonio Palopo	9	Septiembre	2023-09-13T00:00:00	2024-11-08T01:00:00	4	Temperatura máxima	20.1
7035	7	Sololá	712	San Antonio Palopó	9	San Antonio Palopo	9	Septiembre	2023-09-13T00:00:00	2024-11-08T01:00:00	3	Temperatura mínima	19.6
7036	7	Sololá	712	San Antonio Palopó	9	San Antonio Palopo	9	Septiembre	2023-09-13T00:00:00	2024-11-08T01:00:00	5	Humedad	83
7037	7	Sololá	712	San Antonio Palopó	9	San Antonio Palopo	9	Septiembre	2023-09-13T00:00:00	2024-11-08T01:00:00	6	Velocidad del viento	1.6
7038	7	Sololá	712	San Antonio Palopó	9	San Antonio Palopo	9	Septiembre	2023-09-13T00:00:00	2024-11-08T01:00:00	7	Dirección del viento	1.61
7039	7	Sololá	712	San Antonio Palopó	9	San Antonio Palopo	9	Septiembre	2023-09-13T00:00:00	2024-11-08T01:00:00	1	Precipitación	0
7040	7	Sololá	712	San Antonio Palopó	9	San Antonio Palopo	9	Septiembre	2023-09-13T00:00:00	2024-11-08T01:00:00	8	Radiación solar	0
7041	7	Sololá	712	San Antonio Palopó	9	San Antonio Palopo	9	Septiembre	2023-09-13T00:00:00	2024-11-08T02:00:00	2	Temperatura media	20.3
7042	7	Sololá	712	San Antonio Palopó	9	San Antonio Palopo	9	Septiembre	2023-09-13T00:00:00	2024-11-08T02:00:00	4	Temperatura máxima	20.3
7043	7	Sololá	712	San Antonio Palopó	9	San Antonio Palopo	9	Septiembre	2023-09-13T00:00:00	2024-11-08T02:00:00	3	Temperatura mínima	20.1
7044	7	Sololá	712	San Antonio Palopó	9	San Antonio Palopo	9	Septiembre	2023-09-13T00:00:00	2024-11-08T02:00:00	5	Humedad	83
7045	7	Sololá	712	San Antonio Palopó	9	San Antonio Palopo	9	Septiembre	2023-09-13T00:00:00	2024-11-08T02:00:00	6	Velocidad del viento	1.6
7046	7	Sololá	712	San Antonio Palopó	9	San Antonio Palopo	9	Septiembre	2023-09-13T00:00:00	2024-11-08T02:00:00	7	Dirección del viento	1.61
7047	7	Sololá	712	San Antonio Palopó	9	San Antonio Palopo	9	Septiembre	2023-09-13T00:00:00	2024-11-08T02:00:00	1	Precipitación	0
7048	7	Sololá	712	San Antonio Palopó	9	San Antonio Palopo	9	Septiembre	2023-09-13T00:00:00	2024-11-08T02:00:00	8	Radiación solar	0
7049	7	Sololá	712	San Antonio Palopó	9	San Antonio Palopo	9	Septiembre	2023-09-13T00:00:00	2024-11-08T03:00:00	2	Temperatura media	20.3
7050	7	Sololá	712	San Antonio Palopó	9	San Antonio Palopo	9	Septiembre	2023-09-13T00:00:00	2024-11-08T03:00:00	4	Temperatura máxima	20.3
7051	7	Sololá	712	San Antonio Palopó	9	San Antonio Palopo	9	Septiembre	2023-09-13T00:00:00	2024-11-08T03:00:00	3	Temperatura mínima	20.2
7052	7	Sololá	712	San Antonio Palopó	9	San Antonio Palopo	9	Septiembre	2023-09-13T00:00:00	2024-11-08T03:00:00	5	Humedad	83
7053	7	Sololá	712	San Antonio Palopó	9	San Antonio Palopo	9	Septiembre	2023-09-13T00:00:00	2024-11-08T03:00:00	6	Velocidad del viento	1.6
7054	7	Sololá	712	San Antonio Palopó	9	San Antonio Palopo	9	Septiembre	2023-09-13T00:00:00	2024-11-08T03:00:00	7	Dirección del viento	1.61
7055	7	Sololá	712	San Antonio Palopó	9	San Antonio Palopo	9	Septiembre	2023-09-13T00:00:00	2024-11-08T03:00:00	1	Precipitación	0
7056	7	Sololá	712	San Antonio Palopó	9	San Antonio Palopo	9	Septiembre	2023-09-13T00:00:00	2024-11-08T03:00:00	8	Radiación solar	0
7057	7	Sololá	712	San Antonio Palopó	9	San Antonio Palopo	9	Septiembre	2023-09-13T00:00:00	2024-11-08T04:00:00	2	Temperatura media	20.6
7058	7	Sololá	712	San Antonio Palopó	9	San Antonio Palopo	9	Septiembre	2023-09-13T00:00:00	2024-11-08T04:00:00	4	Temperatura máxima	20.6
7059	7	Sololá	712	San Antonio Palopó	9	San Antonio Palopo	9	Septiembre	2023-09-13T00:00:00	2024-11-08T04:00:00	3	Temperatura mínima	19.9
7060	7	Sololá	712	San Antonio Palopó	9	San Antonio Palopo	9	Septiembre	2023-09-13T00:00:00	2024-11-08T04:00:00	5	Humedad	76
7061	7	Sololá	712	San Antonio Palopó	9	San Antonio Palopo	9	Septiembre	2023-09-13T00:00:00	2024-11-08T04:00:00	6	Velocidad del viento	4.8
7062	7	Sololá	712	San Antonio Palopó	9	San Antonio Palopo	9	Septiembre	2023-09-13T00:00:00	2024-11-08T04:00:00	7	Dirección del viento	4.83
7063	7	Sololá	712	San Antonio Palopó	9	San Antonio Palopo	9	Septiembre	2023-09-13T00:00:00	2024-11-08T04:00:00	1	Precipitación	0
7064	7	Sololá	712	San Antonio Palopó	9	San Antonio Palopo	9	Septiembre	2023-09-13T00:00:00	2024-11-08T04:00:00	8	Radiación solar	0
7065	7	Sololá	712	San Antonio Palopó	9	San Antonio Palopo	9	Septiembre	2023-09-13T00:00:00	2024-11-08T05:00:00	2	Temperatura media	20.3
7066	7	Sololá	712	San Antonio Palopó	9	San Antonio Palopo	9	Septiembre	2023-09-13T00:00:00	2024-11-08T05:00:00	4	Temperatura máxima	20.6
7067	7	Sololá	712	San Antonio Palopó	9	San Antonio Palopo	9	Septiembre	2023-09-13T00:00:00	2024-11-08T05:00:00	3	Temperatura mínima	20.1
7068	7	Sololá	712	San Antonio Palopó	9	San Antonio Palopo	9	Septiembre	2023-09-13T00:00:00	2024-11-08T05:00:00	5	Humedad	75
7069	7	Sololá	712	San Antonio Palopó	9	San Antonio Palopo	9	Septiembre	2023-09-13T00:00:00	2024-11-08T05:00:00	6	Velocidad del viento	4.8
7070	7	Sololá	712	San Antonio Palopó	9	San Antonio Palopo	9	Septiembre	2023-09-13T00:00:00	2024-11-08T05:00:00	7	Dirección del viento	4.83
7071	7	Sololá	712	San Antonio Palopó	9	San Antonio Palopo	9	Septiembre	2023-09-13T00:00:00	2024-11-08T05:00:00	1	Precipitación	0
7072	7	Sololá	712	San Antonio Palopó	9	San Antonio Palopo	9	Septiembre	2023-09-13T00:00:00	2024-11-08T05:00:00	8	Radiación solar	0
7073	7	Sololá	712	San Antonio Palopó	9	San Antonio Palopo	9	Septiembre	2023-09-13T00:00:00	2024-11-08T06:00:00	2	Temperatura media	20
7074	7	Sololá	712	San Antonio Palopó	9	San Antonio Palopo	9	Septiembre	2023-09-13T00:00:00	2024-11-08T06:00:00	4	Temperatura máxima	20.4
7075	7	Sololá	712	San Antonio Palopó	9	San Antonio Palopo	9	Septiembre	2023-09-13T00:00:00	2024-11-08T06:00:00	3	Temperatura mínima	19.8
7076	7	Sololá	712	San Antonio Palopó	9	San Antonio Palopo	9	Septiembre	2023-09-13T00:00:00	2024-11-08T06:00:00	5	Humedad	76
7077	7	Sololá	712	San Antonio Palopó	9	San Antonio Palopo	9	Septiembre	2023-09-13T00:00:00	2024-11-08T06:00:00	6	Velocidad del viento	6.4
7078	7	Sololá	712	San Antonio Palopó	9	San Antonio Palopo	9	Septiembre	2023-09-13T00:00:00	2024-11-08T06:00:00	7	Dirección del viento	6.44
7079	7	Sololá	712	San Antonio Palopó	9	San Antonio Palopo	9	Septiembre	2023-09-13T00:00:00	2024-11-08T06:00:00	1	Precipitación	0
7080	7	Sololá	712	San Antonio Palopó	9	San Antonio Palopo	9	Septiembre	2023-09-13T00:00:00	2024-11-08T06:00:00	8	Radiación solar	0
7081	7	Sololá	712	San Antonio Palopó	9	San Antonio Palopo	9	Septiembre	2023-09-13T00:00:00	2024-11-08T07:00:00	2	Temperatura media	20.6
7082	7	Sololá	712	San Antonio Palopó	9	San Antonio Palopo	9	Septiembre	2023-09-13T00:00:00	2024-11-08T07:00:00	4	Temperatura máxima	20.6
7083	7	Sololá	712	San Antonio Palopó	9	San Antonio Palopo	9	Septiembre	2023-09-13T00:00:00	2024-11-08T07:00:00	3	Temperatura mínima	20
7084	7	Sololá	712	San Antonio Palopó	9	San Antonio Palopo	9	Septiembre	2023-09-13T00:00:00	2024-11-08T07:00:00	5	Humedad	72
7085	7	Sololá	712	San Antonio Palopó	9	San Antonio Palopo	9	Septiembre	2023-09-13T00:00:00	2024-11-08T07:00:00	6	Velocidad del viento	8
7086	7	Sololá	712	San Antonio Palopó	9	San Antonio Palopo	9	Septiembre	2023-09-13T00:00:00	2024-11-08T07:00:00	7	Dirección del viento	8.05
7087	7	Sololá	712	San Antonio Palopó	9	San Antonio Palopo	9	Septiembre	2023-09-13T00:00:00	2024-11-08T07:00:00	1	Precipitación	0
7088	7	Sololá	712	San Antonio Palopó	9	San Antonio Palopo	9	Septiembre	2023-09-13T00:00:00	2024-11-08T07:00:00	8	Radiación solar	44
7089	7	Sololá	712	San Antonio Palopó	9	San Antonio Palopo	9	Septiembre	2023-09-13T00:00:00	2024-11-08T08:00:00	2	Temperatura media	22.7
7090	7	Sololá	712	San Antonio Palopó	9	San Antonio Palopo	9	Septiembre	2023-09-13T00:00:00	2024-11-08T08:00:00	4	Temperatura máxima	22.7
7091	7	Sololá	712	San Antonio Palopó	9	San Antonio Palopo	9	Septiembre	2023-09-13T00:00:00	2024-11-08T08:00:00	3	Temperatura mínima	20.6
7092	7	Sololá	712	San Antonio Palopó	9	San Antonio Palopo	9	Septiembre	2023-09-13T00:00:00	2024-11-08T08:00:00	5	Humedad	70
7093	7	Sololá	712	San Antonio Palopó	9	San Antonio Palopo	9	Septiembre	2023-09-13T00:00:00	2024-11-08T08:00:00	6	Velocidad del viento	8
7094	7	Sololá	712	San Antonio Palopó	9	San Antonio Palopo	9	Septiembre	2023-09-13T00:00:00	2024-11-08T08:00:00	7	Dirección del viento	8.05
7095	7	Sololá	712	San Antonio Palopó	9	San Antonio Palopo	9	Septiembre	2023-09-13T00:00:00	2024-11-08T08:00:00	1	Precipitación	0
7096	7	Sololá	712	San Antonio Palopó	9	San Antonio Palopo	9	Septiembre	2023-09-13T00:00:00	2024-11-08T08:00:00	8	Radiación solar	188
7097	7	Sololá	712	San Antonio Palopó	9	San Antonio Palopo	9	Septiembre	2023-09-13T00:00:00	2024-11-08T09:00:00	2	Temperatura media	23.4
7098	7	Sololá	712	San Antonio Palopó	9	San Antonio Palopo	9	Septiembre	2023-09-13T00:00:00	2024-11-08T09:00:00	4	Temperatura máxima	23.4
7099	7	Sololá	712	San Antonio Palopó	9	San Antonio Palopo	9	Septiembre	2023-09-13T00:00:00	2024-11-08T09:00:00	3	Temperatura mínima	22.4
7100	7	Sololá	712	San Antonio Palopó	9	San Antonio Palopo	9	Septiembre	2023-09-13T00:00:00	2024-11-08T09:00:00	5	Humedad	71
7101	7	Sololá	712	San Antonio Palopó	9	San Antonio Palopo	9	Septiembre	2023-09-13T00:00:00	2024-11-08T09:00:00	6	Velocidad del viento	4.8
7102	7	Sololá	712	San Antonio Palopó	9	San Antonio Palopo	9	Septiembre	2023-09-13T00:00:00	2024-11-08T09:00:00	7	Dirección del viento	4.83
7103	7	Sololá	712	San Antonio Palopó	9	San Antonio Palopo	9	Septiembre	2023-09-13T00:00:00	2024-11-08T09:00:00	1	Precipitación	0
7104	7	Sololá	712	San Antonio Palopó	9	San Antonio Palopo	9	Septiembre	2023-09-13T00:00:00	2024-11-08T09:00:00	8	Radiación solar	531
7105	7	Sololá	712	San Antonio Palopó	9	San Antonio Palopo	9	Septiembre	2023-09-13T00:00:00	2024-11-08T10:00:00	2	Temperatura media	24.1
7106	7	Sololá	712	San Antonio Palopó	9	San Antonio Palopo	9	Septiembre	2023-09-13T00:00:00	2024-11-08T10:00:00	4	Temperatura máxima	24.2
7107	7	Sololá	712	San Antonio Palopó	9	San Antonio Palopo	9	Septiembre	2023-09-13T00:00:00	2024-11-08T10:00:00	3	Temperatura mínima	23.4
7108	7	Sololá	712	San Antonio Palopó	9	San Antonio Palopo	9	Septiembre	2023-09-13T00:00:00	2024-11-08T10:00:00	5	Humedad	71
7109	7	Sololá	712	San Antonio Palopó	9	San Antonio Palopo	9	Septiembre	2023-09-13T00:00:00	2024-11-08T10:00:00	6	Velocidad del viento	4.8
7110	7	Sololá	712	San Antonio Palopó	9	San Antonio Palopo	9	Septiembre	2023-09-13T00:00:00	2024-11-08T10:00:00	7	Dirección del viento	4.83
7111	7	Sololá	712	San Antonio Palopó	9	San Antonio Palopo	9	Septiembre	2023-09-13T00:00:00	2024-11-08T10:00:00	1	Precipitación	0
7112	7	Sololá	712	San Antonio Palopó	9	San Antonio Palopo	9	Septiembre	2023-09-13T00:00:00	2024-11-08T10:00:00	8	Radiación solar	619
7113	7	Sololá	712	San Antonio Palopó	9	San Antonio Palopo	9	Septiembre	2023-09-13T00:00:00	2024-11-08T11:00:00	2	Temperatura media	23.8
7114	7	Sololá	712	San Antonio Palopó	9	San Antonio Palopo	9	Septiembre	2023-09-13T00:00:00	2024-11-08T11:00:00	4	Temperatura máxima	24.8
7115	7	Sololá	712	San Antonio Palopó	9	San Antonio Palopo	9	Septiembre	2023-09-13T00:00:00	2024-11-08T11:00:00	3	Temperatura mínima	23.8
7116	7	Sololá	712	San Antonio Palopó	9	San Antonio Palopo	9	Septiembre	2023-09-13T00:00:00	2024-11-08T11:00:00	5	Humedad	72
7117	7	Sololá	712	San Antonio Palopó	9	San Antonio Palopo	9	Septiembre	2023-09-13T00:00:00	2024-11-08T11:00:00	6	Velocidad del viento	3.2
7118	7	Sololá	712	San Antonio Palopó	9	San Antonio Palopo	9	Septiembre	2023-09-13T00:00:00	2024-11-08T11:00:00	7	Dirección del viento	3.22
7119	7	Sololá	712	San Antonio Palopó	9	San Antonio Palopo	9	Septiembre	2023-09-13T00:00:00	2024-11-08T11:00:00	1	Precipitación	0
7120	7	Sololá	712	San Antonio Palopó	9	San Antonio Palopo	9	Septiembre	2023-09-13T00:00:00	2024-11-08T11:00:00	8	Radiación solar	828
7121	7	Sololá	712	San Antonio Palopó	9	San Antonio Palopo	9	Septiembre	2023-09-13T00:00:00	2024-11-08T12:00:00	2	Temperatura media	23.6
7122	7	Sololá	712	San Antonio Palopó	9	San Antonio Palopo	9	Septiembre	2023-09-13T00:00:00	2024-11-08T12:00:00	4	Temperatura máxima	24.4
7123	7	Sololá	712	San Antonio Palopó	9	San Antonio Palopo	9	Septiembre	2023-09-13T00:00:00	2024-11-08T12:00:00	3	Temperatura mínima	23.4
7124	7	Sololá	712	San Antonio Palopó	9	San Antonio Palopo	9	Septiembre	2023-09-13T00:00:00	2024-11-08T12:00:00	5	Humedad	74
7125	7	Sololá	712	San Antonio Palopó	9	San Antonio Palopo	9	Septiembre	2023-09-13T00:00:00	2024-11-08T12:00:00	6	Velocidad del viento	3.2
7126	7	Sololá	712	San Antonio Palopó	9	San Antonio Palopo	9	Septiembre	2023-09-13T00:00:00	2024-11-08T12:00:00	7	Dirección del viento	3.22
7127	7	Sololá	712	San Antonio Palopó	9	San Antonio Palopo	9	Septiembre	2023-09-13T00:00:00	2024-11-08T12:00:00	1	Precipitación	0
7128	7	Sololá	712	San Antonio Palopó	9	San Antonio Palopo	9	Septiembre	2023-09-13T00:00:00	2024-11-08T12:00:00	8	Radiación solar	544
7129	7	Sololá	712	San Antonio Palopó	9	San Antonio Palopo	9	Septiembre	2023-09-13T00:00:00	2024-11-08T13:00:00	2	Temperatura media	24.1
7130	7	Sololá	712	San Antonio Palopó	9	San Antonio Palopo	9	Septiembre	2023-09-13T00:00:00	2024-11-08T13:00:00	4	Temperatura máxima	24.8
7131	7	Sololá	712	San Antonio Palopó	9	San Antonio Palopo	9	Septiembre	2023-09-13T00:00:00	2024-11-08T13:00:00	3	Temperatura mínima	23.4
7132	7	Sololá	712	San Antonio Palopó	9	San Antonio Palopo	9	Septiembre	2023-09-13T00:00:00	2024-11-08T13:00:00	5	Humedad	74
7133	7	Sololá	712	San Antonio Palopó	9	San Antonio Palopo	9	Septiembre	2023-09-13T00:00:00	2024-11-08T13:00:00	6	Velocidad del viento	6.4
7134	7	Sololá	712	San Antonio Palopó	9	San Antonio Palopo	9	Septiembre	2023-09-13T00:00:00	2024-11-08T13:00:00	7	Dirección del viento	6.44
7135	7	Sololá	712	San Antonio Palopó	9	San Antonio Palopo	9	Septiembre	2023-09-13T00:00:00	2024-11-08T13:00:00	1	Precipitación	0
7136	7	Sololá	712	San Antonio Palopó	9	San Antonio Palopo	9	Septiembre	2023-09-13T00:00:00	2024-11-08T13:00:00	8	Radiación solar	407
7137	7	Sololá	712	San Antonio Palopó	9	San Antonio Palopo	9	Septiembre	2023-09-13T00:00:00	2024-11-08T14:00:00	2	Temperatura media	23.2
7138	7	Sololá	712	San Antonio Palopó	9	San Antonio Palopo	9	Septiembre	2023-09-13T00:00:00	2024-11-08T14:00:00	4	Temperatura máxima	24.3
7139	7	Sololá	712	San Antonio Palopó	9	San Antonio Palopo	9	Septiembre	2023-09-13T00:00:00	2024-11-08T14:00:00	3	Temperatura mínima	23.2
7140	7	Sololá	712	San Antonio Palopó	9	San Antonio Palopo	9	Septiembre	2023-09-13T00:00:00	2024-11-08T14:00:00	5	Humedad	78
7141	7	Sololá	712	San Antonio Palopó	9	San Antonio Palopo	9	Septiembre	2023-09-13T00:00:00	2024-11-08T14:00:00	6	Velocidad del viento	6.4
7142	7	Sololá	712	San Antonio Palopó	9	San Antonio Palopo	9	Septiembre	2023-09-13T00:00:00	2024-11-08T14:00:00	7	Dirección del viento	6.44
7143	7	Sololá	712	San Antonio Palopó	9	San Antonio Palopo	9	Septiembre	2023-09-13T00:00:00	2024-11-08T14:00:00	1	Precipitación	0
7144	7	Sololá	712	San Antonio Palopó	9	San Antonio Palopo	9	Septiembre	2023-09-13T00:00:00	2024-11-08T14:00:00	8	Radiación solar	220
7145	7	Sololá	712	San Antonio Palopó	9	San Antonio Palopo	9	Septiembre	2023-09-13T00:00:00	2024-11-08T15:00:00	2	Temperatura media	21.2
7146	7	Sololá	712	San Antonio Palopó	9	San Antonio Palopo	9	Septiembre	2023-09-13T00:00:00	2024-11-08T15:00:00	4	Temperatura máxima	23.2
7147	7	Sololá	712	San Antonio Palopó	9	San Antonio Palopo	9	Septiembre	2023-09-13T00:00:00	2024-11-08T15:00:00	3	Temperatura mínima	21.2
7148	7	Sololá	712	San Antonio Palopó	9	San Antonio Palopo	9	Septiembre	2023-09-13T00:00:00	2024-11-08T15:00:00	5	Humedad	86
7149	7	Sololá	712	San Antonio Palopó	9	San Antonio Palopo	9	Septiembre	2023-09-13T00:00:00	2024-11-08T15:00:00	6	Velocidad del viento	8
7150	7	Sololá	712	San Antonio Palopó	9	San Antonio Palopo	9	Septiembre	2023-09-13T00:00:00	2024-11-08T15:00:00	7	Dirección del viento	8.05
7151	7	Sololá	712	San Antonio Palopó	9	San Antonio Palopo	9	Septiembre	2023-09-13T00:00:00	2024-11-08T15:00:00	1	Precipitación	0.2
7152	7	Sololá	712	San Antonio Palopó	9	San Antonio Palopo	9	Septiembre	2023-09-13T00:00:00	2024-11-08T15:00:00	8	Radiación solar	99
7153	7	Sololá	712	San Antonio Palopó	9	San Antonio Palopo	9	Septiembre	2023-09-13T00:00:00	2024-11-08T16:00:00	2	Temperatura media	20.7
7154	7	Sololá	712	San Antonio Palopó	9	San Antonio Palopo	9	Septiembre	2023-09-13T00:00:00	2024-11-08T16:00:00	4	Temperatura máxima	21.2
7155	7	Sololá	712	San Antonio Palopó	9	San Antonio Palopo	9	Septiembre	2023-09-13T00:00:00	2024-11-08T16:00:00	3	Temperatura mínima	20.4
7156	7	Sololá	712	San Antonio Palopó	9	San Antonio Palopo	9	Septiembre	2023-09-13T00:00:00	2024-11-08T16:00:00	5	Humedad	87
7157	7	Sololá	712	San Antonio Palopó	9	San Antonio Palopo	9	Septiembre	2023-09-13T00:00:00	2024-11-08T16:00:00	6	Velocidad del viento	8
7158	7	Sololá	712	San Antonio Palopó	9	San Antonio Palopo	9	Septiembre	2023-09-13T00:00:00	2024-11-08T16:00:00	7	Dirección del viento	8.05
7159	7	Sololá	712	San Antonio Palopó	9	San Antonio Palopo	9	Septiembre	2023-09-13T00:00:00	2024-11-08T16:00:00	1	Precipitación	0
7160	7	Sololá	712	San Antonio Palopó	9	San Antonio Palopo	9	Septiembre	2023-09-13T00:00:00	2024-11-08T16:00:00	8	Radiación solar	25
7161	7	Sololá	712	San Antonio Palopó	9	San Antonio Palopo	9	Septiembre	2023-09-13T00:00:00	2024-11-08T17:00:00	2	Temperatura media	20.3
7162	7	Sololá	712	San Antonio Palopó	9	San Antonio Palopo	9	Septiembre	2023-09-13T00:00:00	2024-11-08T17:00:00	4	Temperatura máxima	20.7
7163	7	Sololá	712	San Antonio Palopó	9	San Antonio Palopo	9	Septiembre	2023-09-13T00:00:00	2024-11-08T17:00:00	3	Temperatura mínima	20.1
7164	7	Sololá	712	San Antonio Palopó	9	San Antonio Palopo	9	Septiembre	2023-09-13T00:00:00	2024-11-08T17:00:00	5	Humedad	88
7165	7	Sololá	712	San Antonio Palopó	9	San Antonio Palopo	9	Septiembre	2023-09-13T00:00:00	2024-11-08T17:00:00	6	Velocidad del viento	4.8
7166	7	Sololá	712	San Antonio Palopó	9	San Antonio Palopo	9	Septiembre	2023-09-13T00:00:00	2024-11-08T17:00:00	7	Dirección del viento	4.83
7167	7	Sololá	712	San Antonio Palopó	9	San Antonio Palopo	9	Septiembre	2023-09-13T00:00:00	2024-11-08T17:00:00	1	Precipitación	1.2
7168	7	Sololá	712	San Antonio Palopó	9	San Antonio Palopo	9	Septiembre	2023-09-13T00:00:00	2024-11-08T17:00:00	8	Radiación solar	52
7169	7	Sololá	712	San Antonio Palopó	9	San Antonio Palopo	9	Septiembre	2023-09-13T00:00:00	2024-11-08T18:00:00	2	Temperatura media	20.2
7170	7	Sololá	712	San Antonio Palopó	9	San Antonio Palopo	9	Septiembre	2023-09-13T00:00:00	2024-11-08T18:00:00	4	Temperatura máxima	20.3
7171	7	Sololá	712	San Antonio Palopó	9	San Antonio Palopo	9	Septiembre	2023-09-13T00:00:00	2024-11-08T18:00:00	3	Temperatura mínima	20.2
7172	7	Sololá	712	San Antonio Palopó	9	San Antonio Palopo	9	Septiembre	2023-09-13T00:00:00	2024-11-08T18:00:00	5	Humedad	89
7173	7	Sololá	712	San Antonio Palopó	9	San Antonio Palopo	9	Septiembre	2023-09-13T00:00:00	2024-11-08T18:00:00	6	Velocidad del viento	1.6
7174	7	Sololá	712	San Antonio Palopó	9	San Antonio Palopo	9	Septiembre	2023-09-13T00:00:00	2024-11-08T18:00:00	7	Dirección del viento	1.61
7175	7	Sololá	712	San Antonio Palopó	9	San Antonio Palopo	9	Septiembre	2023-09-13T00:00:00	2024-11-08T18:00:00	1	Precipitación	1.6
7176	7	Sololá	712	San Antonio Palopó	9	San Antonio Palopo	9	Septiembre	2023-09-13T00:00:00	2024-11-08T18:00:00	8	Radiación solar	27
7177	7	Sololá	712	San Antonio Palopó	9	San Antonio Palopo	9	Septiembre	2023-09-13T00:00:00	2024-11-08T19:00:00	2	Temperatura media	19.8
7178	7	Sololá	712	San Antonio Palopó	9	San Antonio Palopo	9	Septiembre	2023-09-13T00:00:00	2024-11-08T19:00:00	4	Temperatura máxima	20.2
7179	7	Sololá	712	San Antonio Palopó	9	San Antonio Palopo	9	Septiembre	2023-09-13T00:00:00	2024-11-08T19:00:00	3	Temperatura mínima	19.8
7180	7	Sololá	712	San Antonio Palopó	9	San Antonio Palopo	9	Septiembre	2023-09-13T00:00:00	2024-11-08T19:00:00	5	Humedad	90
7181	7	Sololá	712	San Antonio Palopó	9	San Antonio Palopo	9	Septiembre	2023-09-13T00:00:00	2024-11-08T19:00:00	6	Velocidad del viento	1.6
7182	7	Sololá	712	San Antonio Palopó	9	San Antonio Palopo	9	Septiembre	2023-09-13T00:00:00	2024-11-08T19:00:00	7	Dirección del viento	1.61
7183	7	Sololá	712	San Antonio Palopó	9	San Antonio Palopo	9	Septiembre	2023-09-13T00:00:00	2024-11-08T19:00:00	1	Precipitación	1.2
7184	7	Sololá	712	San Antonio Palopó	9	San Antonio Palopo	9	Septiembre	2023-09-13T00:00:00	2024-11-08T19:00:00	8	Radiación solar	0
7185	7	Sololá	712	San Antonio Palopó	9	San Antonio Palopo	9	Septiembre	2023-09-13T00:00:00	2024-11-08T20:00:00	2	Temperatura media	19.8
7186	7	Sololá	712	San Antonio Palopó	9	San Antonio Palopo	9	Septiembre	2023-09-13T00:00:00	2024-11-08T20:00:00	4	Temperatura máxima	20
7187	7	Sololá	712	San Antonio Palopó	9	San Antonio Palopo	9	Septiembre	2023-09-13T00:00:00	2024-11-08T20:00:00	3	Temperatura mínima	19.7
7188	7	Sololá	712	San Antonio Palopó	9	San Antonio Palopo	9	Septiembre	2023-09-13T00:00:00	2024-11-08T20:00:00	5	Humedad	91
7189	7	Sololá	712	San Antonio Palopó	9	San Antonio Palopo	9	Septiembre	2023-09-13T00:00:00	2024-11-08T20:00:00	6	Velocidad del viento	1.6
7190	7	Sololá	712	San Antonio Palopó	9	San Antonio Palopo	9	Septiembre	2023-09-13T00:00:00	2024-11-08T20:00:00	7	Dirección del viento	1.61
7191	7	Sololá	712	San Antonio Palopó	9	San Antonio Palopo	9	Septiembre	2023-09-13T00:00:00	2024-11-08T20:00:00	1	Precipitación	1.6
7192	7	Sololá	712	San Antonio Palopó	9	San Antonio Palopo	9	Septiembre	2023-09-13T00:00:00	2024-11-08T20:00:00	8	Radiación solar	0
7193	7	Sololá	712	San Antonio Palopó	9	San Antonio Palopo	9	Septiembre	2023-09-13T00:00:00	2024-11-08T21:00:00	2	Temperatura media	20
7194	7	Sololá	712	San Antonio Palopó	9	San Antonio Palopo	9	Septiembre	2023-09-13T00:00:00	2024-11-08T21:00:00	4	Temperatura máxima	20.1
7195	7	Sololá	712	San Antonio Palopó	9	San Antonio Palopo	9	Septiembre	2023-09-13T00:00:00	2024-11-08T21:00:00	3	Temperatura mínima	19.7
7196	7	Sololá	712	San Antonio Palopó	9	San Antonio Palopo	9	Septiembre	2023-09-13T00:00:00	2024-11-08T21:00:00	5	Humedad	89
7197	7	Sololá	712	San Antonio Palopó	9	San Antonio Palopo	9	Septiembre	2023-09-13T00:00:00	2024-11-08T21:00:00	6	Velocidad del viento	1.6
7198	7	Sololá	712	San Antonio Palopó	9	San Antonio Palopo	9	Septiembre	2023-09-13T00:00:00	2024-11-08T21:00:00	7	Dirección del viento	1.61
7199	7	Sololá	712	San Antonio Palopó	9	San Antonio Palopo	9	Septiembre	2023-09-13T00:00:00	2024-11-08T21:00:00	1	Precipitación	0
7200	7	Sololá	712	San Antonio Palopó	9	San Antonio Palopo	9	Septiembre	2023-09-13T00:00:00	2024-11-08T21:00:00	8	Radiación solar	0
7201	7	Sololá	712	San Antonio Palopó	9	San Antonio Palopo	9	Septiembre	2023-09-13T00:00:00	2024-11-08T22:00:00	2	Temperatura media	19.3
7202	7	Sololá	712	San Antonio Palopó	9	San Antonio Palopo	9	Septiembre	2023-09-13T00:00:00	2024-11-08T22:00:00	4	Temperatura máxima	20
7203	7	Sololá	712	San Antonio Palopó	9	San Antonio Palopo	9	Septiembre	2023-09-13T00:00:00	2024-11-08T22:00:00	3	Temperatura mínima	19
7204	7	Sololá	712	San Antonio Palopó	9	San Antonio Palopo	9	Septiembre	2023-09-13T00:00:00	2024-11-08T22:00:00	5	Humedad	87
7205	7	Sololá	712	San Antonio Palopó	9	San Antonio Palopo	9	Septiembre	2023-09-13T00:00:00	2024-11-08T22:00:00	6	Velocidad del viento	3.2
7206	7	Sololá	712	San Antonio Palopó	9	San Antonio Palopo	9	Septiembre	2023-09-13T00:00:00	2024-11-08T22:00:00	7	Dirección del viento	3.22
7207	7	Sololá	712	San Antonio Palopó	9	San Antonio Palopo	9	Septiembre	2023-09-13T00:00:00	2024-11-08T22:00:00	1	Precipitación	0.4
7208	7	Sololá	712	San Antonio Palopó	9	San Antonio Palopo	9	Septiembre	2023-09-13T00:00:00	2024-11-08T22:00:00	8	Radiación solar	0
7209	7	Sololá	712	San Antonio Palopó	9	San Antonio Palopo	9	Septiembre	2023-09-13T00:00:00	2024-11-08T23:00:00	2	Temperatura media	20.2
7210	7	Sololá	712	San Antonio Palopó	9	San Antonio Palopo	9	Septiembre	2023-09-13T00:00:00	2024-11-08T23:00:00	4	Temperatura máxima	20.2
7211	7	Sololá	712	San Antonio Palopó	9	San Antonio Palopo	9	Septiembre	2023-09-13T00:00:00	2024-11-08T23:00:00	3	Temperatura mínima	19.3
7212	7	Sololá	712	San Antonio Palopó	9	San Antonio Palopo	9	Septiembre	2023-09-13T00:00:00	2024-11-08T23:00:00	5	Humedad	79
7213	7	Sololá	712	San Antonio Palopó	9	San Antonio Palopo	9	Septiembre	2023-09-13T00:00:00	2024-11-08T23:00:00	6	Velocidad del viento	3.2
7214	7	Sololá	712	San Antonio Palopó	9	San Antonio Palopo	9	Septiembre	2023-09-13T00:00:00	2024-11-08T23:00:00	7	Dirección del viento	3.22
7215	7	Sololá	712	San Antonio Palopó	9	San Antonio Palopo	9	Septiembre	2023-09-13T00:00:00	2024-11-08T23:00:00	1	Precipitación	0.2
7216	7	Sololá	712	San Antonio Palopó	9	San Antonio Palopo	9	Septiembre	2023-09-13T00:00:00	2024-11-08T23:00:00	8	Radiación solar	0
7217	7	Sololá	712	San Antonio Palopó	9	San Antonio Palopo	9	Septiembre	2023-09-14T00:00:00	2024-11-08T00:00:00	2	Temperatura media	19.6
7218	7	Sololá	712	San Antonio Palopó	9	San Antonio Palopo	9	Septiembre	2023-09-14T00:00:00	2024-11-08T00:00:00	4	Temperatura máxima	20.3
7219	7	Sololá	712	San Antonio Palopó	9	San Antonio Palopo	9	Septiembre	2023-09-14T00:00:00	2024-11-08T00:00:00	3	Temperatura mínima	19.5
7220	7	Sololá	712	San Antonio Palopó	9	San Antonio Palopo	9	Septiembre	2023-09-14T00:00:00	2024-11-08T00:00:00	5	Humedad	81
7221	7	Sololá	712	San Antonio Palopó	9	San Antonio Palopo	9	Septiembre	2023-09-14T00:00:00	2024-11-08T00:00:00	6	Velocidad del viento	8
7222	7	Sololá	712	San Antonio Palopó	9	San Antonio Palopo	9	Septiembre	2023-09-14T00:00:00	2024-11-08T00:00:00	7	Dirección del viento	8.05
7223	7	Sololá	712	San Antonio Palopó	9	San Antonio Palopo	9	Septiembre	2023-09-14T00:00:00	2024-11-08T00:00:00	1	Precipitación	1.4
7224	7	Sololá	712	San Antonio Palopó	9	San Antonio Palopo	9	Septiembre	2023-09-14T00:00:00	2024-11-08T00:00:00	8	Radiación solar	0
7225	7	Sololá	712	San Antonio Palopó	9	San Antonio Palopo	9	Septiembre	2023-09-14T00:00:00	2024-11-08T01:00:00	2	Temperatura media	18.9
7226	7	Sololá	712	San Antonio Palopó	9	San Antonio Palopo	9	Septiembre	2023-09-14T00:00:00	2024-11-08T01:00:00	4	Temperatura máxima	19.7
7227	7	Sololá	712	San Antonio Palopó	9	San Antonio Palopo	9	Septiembre	2023-09-14T00:00:00	2024-11-08T01:00:00	3	Temperatura mínima	18.7
7228	7	Sololá	712	San Antonio Palopó	9	San Antonio Palopo	9	Septiembre	2023-09-14T00:00:00	2024-11-08T01:00:00	5	Humedad	84
7229	7	Sololá	712	San Antonio Palopó	9	San Antonio Palopo	9	Septiembre	2023-09-14T00:00:00	2024-11-08T01:00:00	6	Velocidad del viento	3.2
7230	7	Sololá	712	San Antonio Palopó	9	San Antonio Palopo	9	Septiembre	2023-09-14T00:00:00	2024-11-08T01:00:00	7	Dirección del viento	3.22
7231	7	Sololá	712	San Antonio Palopó	9	San Antonio Palopo	9	Septiembre	2023-09-14T00:00:00	2024-11-08T01:00:00	1	Precipitación	0.6
7232	7	Sololá	712	San Antonio Palopó	9	San Antonio Palopo	9	Septiembre	2023-09-14T00:00:00	2024-11-08T01:00:00	8	Radiación solar	0
7233	7	Sololá	712	San Antonio Palopó	9	San Antonio Palopo	9	Septiembre	2023-09-14T00:00:00	2024-11-08T02:00:00	2	Temperatura media	18.8
7234	7	Sololá	712	San Antonio Palopó	9	San Antonio Palopo	9	Septiembre	2023-09-14T00:00:00	2024-11-08T02:00:00	4	Temperatura máxima	18.9
7235	7	Sololá	712	San Antonio Palopó	9	San Antonio Palopo	9	Septiembre	2023-09-14T00:00:00	2024-11-08T02:00:00	3	Temperatura mínima	18.1
7236	7	Sololá	712	San Antonio Palopó	9	San Antonio Palopo	9	Septiembre	2023-09-14T00:00:00	2024-11-08T02:00:00	5	Humedad	81
7237	7	Sololá	712	San Antonio Palopó	9	San Antonio Palopo	9	Septiembre	2023-09-14T00:00:00	2024-11-08T02:00:00	6	Velocidad del viento	4.8
7238	7	Sololá	712	San Antonio Palopó	9	San Antonio Palopo	9	Septiembre	2023-09-14T00:00:00	2024-11-08T02:00:00	7	Dirección del viento	4.83
7239	7	Sololá	712	San Antonio Palopó	9	San Antonio Palopo	9	Septiembre	2023-09-14T00:00:00	2024-11-08T02:00:00	1	Precipitación	0.6
7240	7	Sololá	712	San Antonio Palopó	9	San Antonio Palopo	9	Septiembre	2023-09-14T00:00:00	2024-11-08T02:00:00	8	Radiación solar	0
7241	7	Sololá	712	San Antonio Palopó	9	San Antonio Palopo	9	Septiembre	2023-09-14T00:00:00	2024-11-08T03:00:00	2	Temperatura media	18.7
7242	7	Sololá	712	San Antonio Palopó	9	San Antonio Palopo	9	Septiembre	2023-09-14T00:00:00	2024-11-08T03:00:00	4	Temperatura máxima	19.1
7243	7	Sololá	712	San Antonio Palopó	9	San Antonio Palopo	9	Septiembre	2023-09-14T00:00:00	2024-11-08T03:00:00	3	Temperatura mínima	18.6
7244	7	Sololá	712	San Antonio Palopó	9	San Antonio Palopo	9	Septiembre	2023-09-14T00:00:00	2024-11-08T03:00:00	5	Humedad	80
7245	7	Sololá	712	San Antonio Palopó	9	San Antonio Palopo	9	Septiembre	2023-09-14T00:00:00	2024-11-08T03:00:00	6	Velocidad del viento	6.4
7246	7	Sololá	712	San Antonio Palopó	9	San Antonio Palopo	9	Septiembre	2023-09-14T00:00:00	2024-11-08T03:00:00	7	Dirección del viento	6.44
7247	7	Sololá	712	San Antonio Palopó	9	San Antonio Palopo	9	Septiembre	2023-09-14T00:00:00	2024-11-08T03:00:00	1	Precipitación	0
7248	7	Sololá	712	San Antonio Palopó	9	San Antonio Palopo	9	Septiembre	2023-09-14T00:00:00	2024-11-08T03:00:00	8	Radiación solar	0
7249	7	Sololá	712	San Antonio Palopó	9	San Antonio Palopo	9	Septiembre	2023-09-14T00:00:00	2024-11-08T04:00:00	2	Temperatura media	18.9
7250	7	Sololá	712	San Antonio Palopó	9	San Antonio Palopo	9	Septiembre	2023-09-14T00:00:00	2024-11-08T04:00:00	4	Temperatura máxima	18.9
7251	7	Sololá	712	San Antonio Palopó	9	San Antonio Palopo	9	Septiembre	2023-09-14T00:00:00	2024-11-08T04:00:00	3	Temperatura mínima	18.4
7252	7	Sololá	712	San Antonio Palopó	9	San Antonio Palopo	9	Septiembre	2023-09-14T00:00:00	2024-11-08T04:00:00	5	Humedad	79
7253	7	Sololá	712	San Antonio Palopó	9	San Antonio Palopo	9	Septiembre	2023-09-14T00:00:00	2024-11-08T04:00:00	6	Velocidad del viento	4.8
7254	7	Sololá	712	San Antonio Palopó	9	San Antonio Palopo	9	Septiembre	2023-09-14T00:00:00	2024-11-08T04:00:00	7	Dirección del viento	4.83
7255	7	Sololá	712	San Antonio Palopó	9	San Antonio Palopo	9	Septiembre	2023-09-14T00:00:00	2024-11-08T04:00:00	1	Precipitación	0
7256	7	Sololá	712	San Antonio Palopó	9	San Antonio Palopo	9	Septiembre	2023-09-14T00:00:00	2024-11-08T04:00:00	8	Radiación solar	0
7257	7	Sololá	712	San Antonio Palopó	9	San Antonio Palopo	9	Septiembre	2023-09-14T00:00:00	2024-11-08T05:00:00	2	Temperatura media	18.9
7258	7	Sololá	712	San Antonio Palopó	9	San Antonio Palopo	9	Septiembre	2023-09-14T00:00:00	2024-11-08T05:00:00	4	Temperatura máxima	19
7259	7	Sololá	712	San Antonio Palopó	9	San Antonio Palopo	9	Septiembre	2023-09-14T00:00:00	2024-11-08T05:00:00	3	Temperatura mínima	17.8
7260	7	Sololá	712	San Antonio Palopó	9	San Antonio Palopo	9	Septiembre	2023-09-14T00:00:00	2024-11-08T05:00:00	5	Humedad	79
7261	7	Sololá	712	San Antonio Palopó	9	San Antonio Palopo	9	Septiembre	2023-09-14T00:00:00	2024-11-08T05:00:00	6	Velocidad del viento	4.8
7262	7	Sololá	712	San Antonio Palopó	9	San Antonio Palopo	9	Septiembre	2023-09-14T00:00:00	2024-11-08T05:00:00	7	Dirección del viento	4.83
7263	7	Sololá	712	San Antonio Palopó	9	San Antonio Palopo	9	Septiembre	2023-09-14T00:00:00	2024-11-08T05:00:00	1	Precipitación	0
7264	7	Sololá	712	San Antonio Palopó	9	San Antonio Palopo	9	Septiembre	2023-09-14T00:00:00	2024-11-08T05:00:00	8	Radiación solar	0
7265	7	Sololá	712	San Antonio Palopó	9	San Antonio Palopo	9	Septiembre	2023-09-14T00:00:00	2024-11-08T06:00:00	2	Temperatura media	18.7
7266	7	Sololá	712	San Antonio Palopó	9	San Antonio Palopo	9	Septiembre	2023-09-14T00:00:00	2024-11-08T06:00:00	4	Temperatura máxima	19.2
7267	7	Sololá	712	San Antonio Palopó	9	San Antonio Palopo	9	Septiembre	2023-09-14T00:00:00	2024-11-08T06:00:00	3	Temperatura mínima	18.7
7268	7	Sololá	712	San Antonio Palopó	9	San Antonio Palopo	9	Septiembre	2023-09-14T00:00:00	2024-11-08T06:00:00	5	Humedad	77
7269	7	Sololá	712	San Antonio Palopó	9	San Antonio Palopo	9	Septiembre	2023-09-14T00:00:00	2024-11-08T06:00:00	6	Velocidad del viento	6.4
7270	7	Sololá	712	San Antonio Palopó	9	San Antonio Palopo	9	Septiembre	2023-09-14T00:00:00	2024-11-08T06:00:00	7	Dirección del viento	6.44
7271	7	Sololá	712	San Antonio Palopó	9	San Antonio Palopo	9	Septiembre	2023-09-14T00:00:00	2024-11-08T06:00:00	1	Precipitación	0
7272	7	Sololá	712	San Antonio Palopó	9	San Antonio Palopo	9	Septiembre	2023-09-14T00:00:00	2024-11-08T06:00:00	8	Radiación solar	0
7273	7	Sololá	712	San Antonio Palopó	9	San Antonio Palopo	9	Septiembre	2023-09-14T00:00:00	2024-11-08T07:00:00	2	Temperatura media	19.1
7274	7	Sololá	712	San Antonio Palopó	9	San Antonio Palopo	9	Septiembre	2023-09-14T00:00:00	2024-11-08T07:00:00	4	Temperatura máxima	19.2
7275	7	Sololá	712	San Antonio Palopó	9	San Antonio Palopo	9	Septiembre	2023-09-14T00:00:00	2024-11-08T07:00:00	3	Temperatura mínima	18.3
7276	7	Sololá	712	San Antonio Palopó	9	San Antonio Palopo	9	Septiembre	2023-09-14T00:00:00	2024-11-08T07:00:00	5	Humedad	80
7277	7	Sololá	712	San Antonio Palopó	9	San Antonio Palopo	9	Septiembre	2023-09-14T00:00:00	2024-11-08T07:00:00	6	Velocidad del viento	3.2
7278	7	Sololá	712	San Antonio Palopó	9	San Antonio Palopo	9	Septiembre	2023-09-14T00:00:00	2024-11-08T07:00:00	7	Dirección del viento	3.22
7279	7	Sololá	712	San Antonio Palopó	9	San Antonio Palopo	9	Septiembre	2023-09-14T00:00:00	2024-11-08T07:00:00	1	Precipitación	0
7280	7	Sololá	712	San Antonio Palopó	9	San Antonio Palopo	9	Septiembre	2023-09-14T00:00:00	2024-11-08T07:00:00	8	Radiación solar	34
7281	7	Sololá	712	San Antonio Palopó	9	San Antonio Palopo	9	Septiembre	2023-09-14T00:00:00	2024-11-08T08:00:00	2	Temperatura media	19.4
7282	7	Sololá	712	San Antonio Palopó	9	San Antonio Palopo	9	Septiembre	2023-09-14T00:00:00	2024-11-08T08:00:00	4	Temperatura máxima	19.5
7283	7	Sololá	712	San Antonio Palopó	9	San Antonio Palopo	9	Septiembre	2023-09-14T00:00:00	2024-11-08T08:00:00	3	Temperatura mínima	19.1
7284	7	Sololá	712	San Antonio Palopó	9	San Antonio Palopo	9	Septiembre	2023-09-14T00:00:00	2024-11-08T08:00:00	5	Humedad	83
7285	7	Sololá	712	San Antonio Palopó	9	San Antonio Palopo	9	Septiembre	2023-09-14T00:00:00	2024-11-08T08:00:00	6	Velocidad del viento	3.2
7286	7	Sololá	712	San Antonio Palopó	9	San Antonio Palopo	9	Septiembre	2023-09-14T00:00:00	2024-11-08T08:00:00	7	Dirección del viento	3.22
7287	7	Sololá	712	San Antonio Palopó	9	San Antonio Palopo	9	Septiembre	2023-09-14T00:00:00	2024-11-08T08:00:00	1	Precipitación	0
7288	7	Sololá	712	San Antonio Palopó	9	San Antonio Palopo	9	Septiembre	2023-09-14T00:00:00	2024-11-08T08:00:00	8	Radiación solar	116
7289	7	Sololá	712	San Antonio Palopó	9	San Antonio Palopo	9	Septiembre	2023-09-14T00:00:00	2024-11-08T09:00:00	2	Temperatura media	20.9
7290	7	Sololá	712	San Antonio Palopó	9	San Antonio Palopo	9	Septiembre	2023-09-14T00:00:00	2024-11-08T09:00:00	4	Temperatura máxima	20.9
7291	7	Sololá	712	San Antonio Palopó	9	San Antonio Palopo	9	Septiembre	2023-09-14T00:00:00	2024-11-08T09:00:00	3	Temperatura mínima	19.4
7292	7	Sololá	712	San Antonio Palopó	9	San Antonio Palopo	9	Septiembre	2023-09-14T00:00:00	2024-11-08T09:00:00	5	Humedad	78
7293	7	Sololá	712	San Antonio Palopó	9	San Antonio Palopo	9	Septiembre	2023-09-14T00:00:00	2024-11-08T09:00:00	6	Velocidad del viento	1.6
7294	7	Sololá	712	San Antonio Palopó	9	San Antonio Palopo	9	Septiembre	2023-09-14T00:00:00	2024-11-08T09:00:00	7	Dirección del viento	1.61
7295	7	Sololá	712	San Antonio Palopó	9	San Antonio Palopo	9	Septiembre	2023-09-14T00:00:00	2024-11-08T09:00:00	1	Precipitación	0
7296	7	Sololá	712	San Antonio Palopó	9	San Antonio Palopo	9	Septiembre	2023-09-14T00:00:00	2024-11-08T09:00:00	8	Radiación solar	317
7297	7	Sololá	712	San Antonio Palopó	9	San Antonio Palopo	9	Septiembre	2023-09-14T00:00:00	2024-11-08T10:00:00	2	Temperatura media	21.7
7298	7	Sololá	712	San Antonio Palopó	9	San Antonio Palopo	9	Septiembre	2023-09-14T00:00:00	2024-11-08T10:00:00	4	Temperatura máxima	21.7
7299	7	Sololá	712	San Antonio Palopó	9	San Antonio Palopo	9	Septiembre	2023-09-14T00:00:00	2024-11-08T10:00:00	3	Temperatura mínima	20.9
7300	7	Sololá	712	San Antonio Palopó	9	San Antonio Palopo	9	Septiembre	2023-09-14T00:00:00	2024-11-08T10:00:00	5	Humedad	80
7301	7	Sololá	712	San Antonio Palopó	9	San Antonio Palopo	9	Septiembre	2023-09-14T00:00:00	2024-11-08T10:00:00	6	Velocidad del viento	3.2
7302	7	Sololá	712	San Antonio Palopó	9	San Antonio Palopo	9	Septiembre	2023-09-14T00:00:00	2024-11-08T10:00:00	7	Dirección del viento	3.22
7303	7	Sololá	712	San Antonio Palopó	9	San Antonio Palopo	9	Septiembre	2023-09-14T00:00:00	2024-11-08T10:00:00	1	Precipitación	0
7304	7	Sololá	712	San Antonio Palopó	9	San Antonio Palopo	9	Septiembre	2023-09-14T00:00:00	2024-11-08T10:00:00	8	Radiación solar	533
7305	7	Sololá	712	San Antonio Palopó	9	San Antonio Palopo	9	Septiembre	2023-09-14T00:00:00	2024-11-08T11:00:00	2	Temperatura media	22.7
7306	7	Sololá	712	San Antonio Palopó	9	San Antonio Palopo	9	Septiembre	2023-09-14T00:00:00	2024-11-08T11:00:00	4	Temperatura máxima	22.7
7307	7	Sololá	712	San Antonio Palopó	9	San Antonio Palopo	9	Septiembre	2023-09-14T00:00:00	2024-11-08T11:00:00	3	Temperatura mínima	21.7
7308	7	Sololá	712	San Antonio Palopó	9	San Antonio Palopo	9	Septiembre	2023-09-14T00:00:00	2024-11-08T11:00:00	5	Humedad	72
7309	7	Sololá	712	San Antonio Palopó	9	San Antonio Palopo	9	Septiembre	2023-09-14T00:00:00	2024-11-08T11:00:00	6	Velocidad del viento	3.2
7310	7	Sololá	712	San Antonio Palopó	9	San Antonio Palopo	9	Septiembre	2023-09-14T00:00:00	2024-11-08T11:00:00	7	Dirección del viento	3.22
7311	7	Sololá	712	San Antonio Palopó	9	San Antonio Palopo	9	Septiembre	2023-09-14T00:00:00	2024-11-08T11:00:00	1	Precipitación	0
7312	7	Sololá	712	San Antonio Palopó	9	San Antonio Palopo	9	Septiembre	2023-09-14T00:00:00	2024-11-08T11:00:00	8	Radiación solar	816
7313	7	Sololá	712	San Antonio Palopó	9	San Antonio Palopo	9	Septiembre	2023-09-14T00:00:00	2024-11-08T12:00:00	2	Temperatura media	24.2
7314	7	Sololá	712	San Antonio Palopó	9	San Antonio Palopo	9	Septiembre	2023-09-14T00:00:00	2024-11-08T12:00:00	4	Temperatura máxima	24.2
7315	7	Sololá	712	San Antonio Palopó	9	San Antonio Palopo	9	Septiembre	2023-09-14T00:00:00	2024-11-08T12:00:00	3	Temperatura mínima	22.7
7316	7	Sololá	712	San Antonio Palopó	9	San Antonio Palopo	9	Septiembre	2023-09-14T00:00:00	2024-11-08T12:00:00	5	Humedad	70
7317	7	Sololá	712	San Antonio Palopó	9	San Antonio Palopo	9	Septiembre	2023-09-14T00:00:00	2024-11-08T12:00:00	6	Velocidad del viento	3.2
7318	7	Sololá	712	San Antonio Palopó	9	San Antonio Palopo	9	Septiembre	2023-09-14T00:00:00	2024-11-08T12:00:00	7	Dirección del viento	3.22
7319	7	Sololá	712	San Antonio Palopó	9	San Antonio Palopo	9	Septiembre	2023-09-14T00:00:00	2024-11-08T12:00:00	1	Precipitación	0
7320	7	Sololá	712	San Antonio Palopó	9	San Antonio Palopo	9	Septiembre	2023-09-14T00:00:00	2024-11-08T12:00:00	8	Radiación solar	586
7321	7	Sololá	712	San Antonio Palopó	9	San Antonio Palopo	9	Septiembre	2023-09-14T00:00:00	2024-11-08T13:00:00	2	Temperatura media	24.7
7322	7	Sololá	712	San Antonio Palopó	9	San Antonio Palopo	9	Septiembre	2023-09-14T00:00:00	2024-11-08T13:00:00	4	Temperatura máxima	25.2
7323	7	Sololá	712	San Antonio Palopó	9	San Antonio Palopo	9	Septiembre	2023-09-14T00:00:00	2024-11-08T13:00:00	3	Temperatura mínima	24.1
7324	7	Sololá	712	San Antonio Palopó	9	San Antonio Palopo	9	Septiembre	2023-09-14T00:00:00	2024-11-08T13:00:00	5	Humedad	74
7325	7	Sololá	712	San Antonio Palopó	9	San Antonio Palopo	9	Septiembre	2023-09-14T00:00:00	2024-11-08T13:00:00	6	Velocidad del viento	3.2
7326	7	Sololá	712	San Antonio Palopó	9	San Antonio Palopo	9	Septiembre	2023-09-14T00:00:00	2024-11-08T13:00:00	7	Dirección del viento	3.22
7327	7	Sololá	712	San Antonio Palopó	9	San Antonio Palopo	9	Septiembre	2023-09-14T00:00:00	2024-11-08T13:00:00	1	Precipitación	0
7328	7	Sololá	712	San Antonio Palopó	9	San Antonio Palopo	9	Septiembre	2023-09-14T00:00:00	2024-11-08T13:00:00	8	Radiación solar	658
7329	7	Sololá	712	San Antonio Palopó	9	San Antonio Palopo	9	Septiembre	2023-09-14T00:00:00	2024-11-08T14:00:00	2	Temperatura media	24.3
7330	7	Sololá	712	San Antonio Palopó	9	San Antonio Palopo	9	Septiembre	2023-09-14T00:00:00	2024-11-08T14:00:00	4	Temperatura máxima	25.6
7331	7	Sololá	712	San Antonio Palopó	9	San Antonio Palopo	9	Septiembre	2023-09-14T00:00:00	2024-11-08T14:00:00	3	Temperatura mínima	23.7
7332	7	Sololá	712	San Antonio Palopó	9	San Antonio Palopo	9	Septiembre	2023-09-14T00:00:00	2024-11-08T14:00:00	5	Humedad	74
7333	7	Sololá	712	San Antonio Palopó	9	San Antonio Palopo	9	Septiembre	2023-09-14T00:00:00	2024-11-08T14:00:00	6	Velocidad del viento	8
7334	7	Sololá	712	San Antonio Palopó	9	San Antonio Palopo	9	Septiembre	2023-09-14T00:00:00	2024-11-08T14:00:00	7	Dirección del viento	8.05
7335	7	Sololá	712	San Antonio Palopó	9	San Antonio Palopo	9	Septiembre	2023-09-14T00:00:00	2024-11-08T14:00:00	1	Precipitación	0
7336	7	Sololá	712	San Antonio Palopó	9	San Antonio Palopo	9	Septiembre	2023-09-14T00:00:00	2024-11-08T14:00:00	8	Radiación solar	590
7337	7	Sololá	712	San Antonio Palopó	9	San Antonio Palopo	9	Septiembre	2023-09-14T00:00:00	2024-11-08T15:00:00	2	Temperatura media	22.1
7338	7	Sololá	712	San Antonio Palopó	9	San Antonio Palopo	9	Septiembre	2023-09-14T00:00:00	2024-11-08T15:00:00	4	Temperatura máxima	24.7
7339	7	Sololá	712	San Antonio Palopó	9	San Antonio Palopo	9	Septiembre	2023-09-14T00:00:00	2024-11-08T15:00:00	3	Temperatura mínima	22.1
7340	7	Sololá	712	San Antonio Palopó	9	San Antonio Palopo	9	Septiembre	2023-09-14T00:00:00	2024-11-08T15:00:00	5	Humedad	82
7341	7	Sololá	712	San Antonio Palopó	9	San Antonio Palopo	9	Septiembre	2023-09-14T00:00:00	2024-11-08T15:00:00	6	Velocidad del viento	9.7
7342	7	Sololá	712	San Antonio Palopó	9	San Antonio Palopo	9	Septiembre	2023-09-14T00:00:00	2024-11-08T15:00:00	7	Dirección del viento	9.66
7343	7	Sololá	712	San Antonio Palopó	9	San Antonio Palopo	9	Septiembre	2023-09-14T00:00:00	2024-11-08T15:00:00	1	Precipitación	0
7344	7	Sololá	712	San Antonio Palopó	9	San Antonio Palopo	9	Septiembre	2023-09-14T00:00:00	2024-11-08T15:00:00	8	Radiación solar	274
7345	7	Sololá	712	San Antonio Palopó	9	San Antonio Palopo	9	Septiembre	2023-09-14T00:00:00	2024-11-08T16:00:00	2	Temperatura media	22.3
7346	7	Sololá	712	San Antonio Palopó	9	San Antonio Palopo	9	Septiembre	2023-09-14T00:00:00	2024-11-08T16:00:00	4	Temperatura máxima	23.2
7347	7	Sololá	712	San Antonio Palopó	9	San Antonio Palopo	9	Septiembre	2023-09-14T00:00:00	2024-11-08T16:00:00	3	Temperatura mínima	22.1
7348	7	Sololá	712	San Antonio Palopó	9	San Antonio Palopo	9	Septiembre	2023-09-14T00:00:00	2024-11-08T16:00:00	5	Humedad	79
7349	7	Sololá	712	San Antonio Palopó	9	San Antonio Palopo	9	Septiembre	2023-09-14T00:00:00	2024-11-08T16:00:00	6	Velocidad del viento	6.4
7350	7	Sololá	712	San Antonio Palopó	9	San Antonio Palopo	9	Septiembre	2023-09-14T00:00:00	2024-11-08T16:00:00	7	Dirección del viento	6.44
7351	7	Sololá	712	San Antonio Palopó	9	San Antonio Palopo	9	Septiembre	2023-09-14T00:00:00	2024-11-08T16:00:00	1	Precipitación	0
7352	7	Sololá	712	San Antonio Palopó	9	San Antonio Palopo	9	Septiembre	2023-09-14T00:00:00	2024-11-08T16:00:00	8	Radiación solar	233
7353	7	Sololá	712	San Antonio Palopó	9	San Antonio Palopo	9	Septiembre	2023-09-14T00:00:00	2024-11-08T17:00:00	2	Temperatura media	22.1
7354	7	Sololá	712	San Antonio Palopó	9	San Antonio Palopo	9	Septiembre	2023-09-14T00:00:00	2024-11-08T17:00:00	4	Temperatura máxima	22.3
7355	7	Sololá	712	San Antonio Palopó	9	San Antonio Palopo	9	Septiembre	2023-09-14T00:00:00	2024-11-08T17:00:00	3	Temperatura mínima	22
7356	7	Sololá	712	San Antonio Palopó	9	San Antonio Palopo	9	Septiembre	2023-09-14T00:00:00	2024-11-08T17:00:00	5	Humedad	76
7357	7	Sololá	712	San Antonio Palopó	9	San Antonio Palopo	9	Septiembre	2023-09-14T00:00:00	2024-11-08T17:00:00	6	Velocidad del viento	4.8
7358	7	Sololá	712	San Antonio Palopó	9	San Antonio Palopo	9	Septiembre	2023-09-14T00:00:00	2024-11-08T17:00:00	7	Dirección del viento	4.83
7359	7	Sololá	712	San Antonio Palopó	9	San Antonio Palopo	9	Septiembre	2023-09-14T00:00:00	2024-11-08T17:00:00	1	Precipitación	0
7360	7	Sololá	712	San Antonio Palopó	9	San Antonio Palopo	9	Septiembre	2023-09-14T00:00:00	2024-11-08T17:00:00	8	Radiación solar	89
7361	7	Sololá	712	San Antonio Palopó	9	San Antonio Palopo	9	Septiembre	2023-09-14T00:00:00	2024-11-08T18:00:00	2	Temperatura media	21.3
7362	7	Sololá	712	San Antonio Palopó	9	San Antonio Palopo	9	Septiembre	2023-09-14T00:00:00	2024-11-08T18:00:00	4	Temperatura máxima	22.2
7363	7	Sololá	712	San Antonio Palopó	9	San Antonio Palopo	9	Septiembre	2023-09-14T00:00:00	2024-11-08T18:00:00	3	Temperatura mínima	21.3
7364	7	Sololá	712	San Antonio Palopó	9	San Antonio Palopo	9	Septiembre	2023-09-14T00:00:00	2024-11-08T18:00:00	5	Humedad	81
7365	7	Sololá	712	San Antonio Palopó	9	San Antonio Palopo	9	Septiembre	2023-09-14T00:00:00	2024-11-08T18:00:00	6	Velocidad del viento	3.2
7366	7	Sololá	712	San Antonio Palopó	9	San Antonio Palopo	9	Septiembre	2023-09-14T00:00:00	2024-11-08T18:00:00	7	Dirección del viento	3.22
7367	7	Sololá	712	San Antonio Palopó	9	San Antonio Palopo	9	Septiembre	2023-09-14T00:00:00	2024-11-08T18:00:00	1	Precipitación	0
7368	7	Sololá	712	San Antonio Palopó	9	San Antonio Palopo	9	Septiembre	2023-09-14T00:00:00	2024-11-08T18:00:00	8	Radiación solar	34
7369	7	Sololá	712	San Antonio Palopó	9	San Antonio Palopo	9	Septiembre	2023-09-14T00:00:00	2024-11-08T19:00:00	2	Temperatura media	20.7
7370	7	Sololá	712	San Antonio Palopó	9	San Antonio Palopo	9	Septiembre	2023-09-14T00:00:00	2024-11-08T19:00:00	4	Temperatura máxima	21.3
7371	7	Sololá	712	San Antonio Palopó	9	San Antonio Palopo	9	Septiembre	2023-09-14T00:00:00	2024-11-08T19:00:00	3	Temperatura mínima	20.7
7372	7	Sololá	712	San Antonio Palopó	9	San Antonio Palopo	9	Septiembre	2023-09-14T00:00:00	2024-11-08T19:00:00	5	Humedad	82
7373	7	Sololá	712	San Antonio Palopó	9	San Antonio Palopo	9	Septiembre	2023-09-14T00:00:00	2024-11-08T19:00:00	6	Velocidad del viento	1.6
7374	7	Sololá	712	San Antonio Palopó	9	San Antonio Palopo	9	Septiembre	2023-09-14T00:00:00	2024-11-08T19:00:00	7	Dirección del viento	1.61
7375	7	Sololá	712	San Antonio Palopó	9	San Antonio Palopo	9	Septiembre	2023-09-14T00:00:00	2024-11-08T19:00:00	1	Precipitación	0
7376	7	Sololá	712	San Antonio Palopó	9	San Antonio Palopo	9	Septiembre	2023-09-14T00:00:00	2024-11-08T19:00:00	8	Radiación solar	0
7377	7	Sololá	712	San Antonio Palopó	9	San Antonio Palopo	9	Septiembre	2023-09-14T00:00:00	2024-11-08T20:00:00	2	Temperatura media	20.8
7378	7	Sololá	712	San Antonio Palopó	9	San Antonio Palopo	9	Septiembre	2023-09-14T00:00:00	2024-11-08T20:00:00	4	Temperatura máxima	20.8
7379	7	Sololá	712	San Antonio Palopó	9	San Antonio Palopo	9	Septiembre	2023-09-14T00:00:00	2024-11-08T20:00:00	3	Temperatura mínima	20.4
7380	7	Sololá	712	San Antonio Palopó	9	San Antonio Palopo	9	Septiembre	2023-09-14T00:00:00	2024-11-08T20:00:00	5	Humedad	78
7381	7	Sololá	712	San Antonio Palopó	9	San Antonio Palopo	9	Septiembre	2023-09-14T00:00:00	2024-11-08T20:00:00	6	Velocidad del viento	1.6
7382	7	Sololá	712	San Antonio Palopó	9	San Antonio Palopo	9	Septiembre	2023-09-14T00:00:00	2024-11-08T20:00:00	7	Dirección del viento	1.61
7383	7	Sololá	712	San Antonio Palopó	9	San Antonio Palopo	9	Septiembre	2023-09-14T00:00:00	2024-11-08T20:00:00	1	Precipitación	0
7384	7	Sololá	712	San Antonio Palopó	9	San Antonio Palopo	9	Septiembre	2023-09-14T00:00:00	2024-11-08T20:00:00	8	Radiación solar	0
7385	7	Sololá	712	San Antonio Palopó	9	San Antonio Palopo	9	Septiembre	2023-09-14T00:00:00	2024-11-08T21:00:00	2	Temperatura media	19.8
7386	7	Sololá	712	San Antonio Palopó	9	San Antonio Palopo	9	Septiembre	2023-09-14T00:00:00	2024-11-08T21:00:00	4	Temperatura máxima	20.9
7387	7	Sololá	712	San Antonio Palopó	9	San Antonio Palopo	9	Septiembre	2023-09-14T00:00:00	2024-11-08T21:00:00	3	Temperatura mínima	19.8
7388	7	Sololá	712	San Antonio Palopó	9	San Antonio Palopo	9	Septiembre	2023-09-14T00:00:00	2024-11-08T21:00:00	5	Humedad	84
7389	7	Sololá	712	San Antonio Palopó	9	San Antonio Palopo	9	Septiembre	2023-09-14T00:00:00	2024-11-08T21:00:00	6	Velocidad del viento	3.2
7390	7	Sololá	712	San Antonio Palopó	9	San Antonio Palopo	9	Septiembre	2023-09-14T00:00:00	2024-11-08T21:00:00	7	Dirección del viento	3.22
7391	7	Sololá	712	San Antonio Palopó	9	San Antonio Palopo	9	Septiembre	2023-09-14T00:00:00	2024-11-08T21:00:00	1	Precipitación	0
7392	7	Sololá	712	San Antonio Palopó	9	San Antonio Palopo	9	Septiembre	2023-09-14T00:00:00	2024-11-08T21:00:00	8	Radiación solar	0
7393	7	Sololá	712	San Antonio Palopó	9	San Antonio Palopo	9	Septiembre	2023-09-14T00:00:00	2024-11-08T22:00:00	2	Temperatura media	21.5
7394	7	Sololá	712	San Antonio Palopó	9	San Antonio Palopo	9	Septiembre	2023-09-14T00:00:00	2024-11-08T22:00:00	4	Temperatura máxima	21.5
7395	7	Sololá	712	San Antonio Palopó	9	San Antonio Palopo	9	Septiembre	2023-09-14T00:00:00	2024-11-08T22:00:00	3	Temperatura mínima	19.7
7396	7	Sololá	712	San Antonio Palopó	9	San Antonio Palopo	9	Septiembre	2023-09-14T00:00:00	2024-11-08T22:00:00	5	Humedad	75
7397	7	Sololá	712	San Antonio Palopó	9	San Antonio Palopo	9	Septiembre	2023-09-14T00:00:00	2024-11-08T22:00:00	6	Velocidad del viento	6.4
7398	7	Sololá	712	San Antonio Palopó	9	San Antonio Palopo	9	Septiembre	2023-09-14T00:00:00	2024-11-08T22:00:00	7	Dirección del viento	6.44
7399	7	Sololá	712	San Antonio Palopó	9	San Antonio Palopo	9	Septiembre	2023-09-14T00:00:00	2024-11-08T22:00:00	1	Precipitación	0
7400	7	Sololá	712	San Antonio Palopó	9	San Antonio Palopo	9	Septiembre	2023-09-14T00:00:00	2024-11-08T22:00:00	8	Radiación solar	0
7401	7	Sololá	712	San Antonio Palopó	9	San Antonio Palopo	9	Septiembre	2023-09-14T00:00:00	2024-11-08T23:00:00	2	Temperatura media	21.2
7402	7	Sololá	712	San Antonio Palopó	9	San Antonio Palopo	9	Septiembre	2023-09-14T00:00:00	2024-11-08T23:00:00	4	Temperatura máxima	21.6
7403	7	Sololá	712	San Antonio Palopó	9	San Antonio Palopo	9	Septiembre	2023-09-14T00:00:00	2024-11-08T23:00:00	3	Temperatura mínima	21.1
7404	7	Sololá	712	San Antonio Palopó	9	San Antonio Palopo	9	Septiembre	2023-09-14T00:00:00	2024-11-08T23:00:00	5	Humedad	74
7405	7	Sololá	712	San Antonio Palopó	9	San Antonio Palopo	9	Septiembre	2023-09-14T00:00:00	2024-11-08T23:00:00	6	Velocidad del viento	6.4
7406	7	Sololá	712	San Antonio Palopó	9	San Antonio Palopo	9	Septiembre	2023-09-14T00:00:00	2024-11-08T23:00:00	7	Dirección del viento	6.44
7407	7	Sololá	712	San Antonio Palopó	9	San Antonio Palopo	9	Septiembre	2023-09-14T00:00:00	2024-11-08T23:00:00	1	Precipitación	0
7408	7	Sololá	712	San Antonio Palopó	9	San Antonio Palopo	9	Septiembre	2023-09-14T00:00:00	2024-11-08T23:00:00	8	Radiación solar	0
7409	7	Sololá	712	San Antonio Palopó	9	San Antonio Palopo	9	Septiembre	2023-09-15T00:00:00	2024-11-08T00:00:00	2	Temperatura media	21.2
7410	7	Sololá	712	San Antonio Palopó	9	San Antonio Palopo	9	Septiembre	2023-09-15T00:00:00	2024-11-08T00:00:00	4	Temperatura máxima	21.2
7411	7	Sololá	712	San Antonio Palopó	9	San Antonio Palopo	9	Septiembre	2023-09-15T00:00:00	2024-11-08T00:00:00	3	Temperatura mínima	20.9
7412	7	Sololá	712	San Antonio Palopó	9	San Antonio Palopo	9	Septiembre	2023-09-15T00:00:00	2024-11-08T00:00:00	5	Humedad	74
7413	7	Sololá	712	San Antonio Palopó	9	San Antonio Palopo	9	Septiembre	2023-09-15T00:00:00	2024-11-08T00:00:00	6	Velocidad del viento	9.7
7414	7	Sololá	712	San Antonio Palopó	9	San Antonio Palopo	9	Septiembre	2023-09-15T00:00:00	2024-11-08T00:00:00	7	Dirección del viento	9.66
7415	7	Sololá	712	San Antonio Palopó	9	San Antonio Palopo	9	Septiembre	2023-09-15T00:00:00	2024-11-08T00:00:00	1	Precipitación	0
7416	7	Sololá	712	San Antonio Palopó	9	San Antonio Palopo	9	Septiembre	2023-09-15T00:00:00	2024-11-08T00:00:00	8	Radiación solar	0
7417	7	Sololá	712	San Antonio Palopó	9	San Antonio Palopo	9	Septiembre	2023-09-15T00:00:00	2024-11-08T01:00:00	2	Temperatura media	20.6
7418	7	Sololá	712	San Antonio Palopó	9	San Antonio Palopo	9	Septiembre	2023-09-15T00:00:00	2024-11-08T01:00:00	4	Temperatura máxima	21.3
7419	7	Sololá	712	San Antonio Palopó	9	San Antonio Palopo	9	Septiembre	2023-09-15T00:00:00	2024-11-08T01:00:00	3	Temperatura mínima	20.4
7420	7	Sololá	712	San Antonio Palopó	9	San Antonio Palopo	9	Septiembre	2023-09-15T00:00:00	2024-11-08T01:00:00	5	Humedad	75
7421	7	Sololá	712	San Antonio Palopó	9	San Antonio Palopo	9	Septiembre	2023-09-15T00:00:00	2024-11-08T01:00:00	6	Velocidad del viento	6.4
7422	7	Sololá	712	San Antonio Palopó	9	San Antonio Palopo	9	Septiembre	2023-09-15T00:00:00	2024-11-08T01:00:00	7	Dirección del viento	6.44
7423	7	Sololá	712	San Antonio Palopó	9	San Antonio Palopo	9	Septiembre	2023-09-15T00:00:00	2024-11-08T01:00:00	1	Precipitación	0
7424	7	Sololá	712	San Antonio Palopó	9	San Antonio Palopo	9	Septiembre	2023-09-15T00:00:00	2024-11-08T01:00:00	8	Radiación solar	0
7425	7	Sololá	712	San Antonio Palopó	9	San Antonio Palopo	9	Septiembre	2023-09-15T00:00:00	2024-11-08T02:00:00	2	Temperatura media	20.6
7426	7	Sololá	712	San Antonio Palopó	9	San Antonio Palopo	9	Septiembre	2023-09-15T00:00:00	2024-11-08T02:00:00	4	Temperatura máxima	20.7
7427	7	Sololá	712	San Antonio Palopó	9	San Antonio Palopo	9	Septiembre	2023-09-15T00:00:00	2024-11-08T02:00:00	3	Temperatura mínima	20.4
7428	7	Sololá	712	San Antonio Palopó	9	San Antonio Palopo	9	Septiembre	2023-09-15T00:00:00	2024-11-08T02:00:00	5	Humedad	74
7429	7	Sololá	712	San Antonio Palopó	9	San Antonio Palopo	9	Septiembre	2023-09-15T00:00:00	2024-11-08T02:00:00	6	Velocidad del viento	12.9
7430	7	Sololá	712	San Antonio Palopó	9	San Antonio Palopo	9	Septiembre	2023-09-15T00:00:00	2024-11-08T02:00:00	7	Dirección del viento	12.87
7431	7	Sololá	712	San Antonio Palopó	9	San Antonio Palopo	9	Septiembre	2023-09-15T00:00:00	2024-11-08T02:00:00	1	Precipitación	0
7432	7	Sololá	712	San Antonio Palopó	9	San Antonio Palopo	9	Septiembre	2023-09-15T00:00:00	2024-11-08T02:00:00	8	Radiación solar	0
7433	7	Sololá	712	San Antonio Palopó	9	San Antonio Palopo	9	Septiembre	2023-09-15T00:00:00	2024-11-08T03:00:00	2	Temperatura media	19.9
7434	7	Sololá	712	San Antonio Palopó	9	San Antonio Palopo	9	Septiembre	2023-09-15T00:00:00	2024-11-08T03:00:00	4	Temperatura máxima	20.7
7435	7	Sololá	712	San Antonio Palopó	9	San Antonio Palopo	9	Septiembre	2023-09-15T00:00:00	2024-11-08T03:00:00	3	Temperatura mínima	19.9
7436	7	Sololá	712	San Antonio Palopó	9	San Antonio Palopo	9	Septiembre	2023-09-15T00:00:00	2024-11-08T03:00:00	5	Humedad	75
7437	7	Sololá	712	San Antonio Palopó	9	San Antonio Palopo	9	Septiembre	2023-09-15T00:00:00	2024-11-08T03:00:00	6	Velocidad del viento	14.5
7438	7	Sololá	712	San Antonio Palopó	9	San Antonio Palopo	9	Septiembre	2023-09-15T00:00:00	2024-11-08T03:00:00	7	Dirección del viento	14.48
7439	7	Sololá	712	San Antonio Palopó	9	San Antonio Palopo	9	Septiembre	2023-09-15T00:00:00	2024-11-08T03:00:00	1	Precipitación	0
7440	7	Sololá	712	San Antonio Palopó	9	San Antonio Palopo	9	Septiembre	2023-09-15T00:00:00	2024-11-08T03:00:00	8	Radiación solar	0
7441	7	Sololá	712	San Antonio Palopó	9	San Antonio Palopo	9	Septiembre	2023-09-15T00:00:00	2024-11-08T04:00:00	2	Temperatura media	19.7
7442	7	Sololá	712	San Antonio Palopó	9	San Antonio Palopo	9	Septiembre	2023-09-15T00:00:00	2024-11-08T04:00:00	4	Temperatura máxima	20
7443	7	Sololá	712	San Antonio Palopó	9	San Antonio Palopo	9	Septiembre	2023-09-15T00:00:00	2024-11-08T04:00:00	3	Temperatura mínima	19.7
7444	7	Sololá	712	San Antonio Palopó	9	San Antonio Palopo	9	Septiembre	2023-09-15T00:00:00	2024-11-08T04:00:00	5	Humedad	75
7445	7	Sololá	712	San Antonio Palopó	9	San Antonio Palopo	9	Septiembre	2023-09-15T00:00:00	2024-11-08T04:00:00	6	Velocidad del viento	11.3
7446	7	Sololá	712	San Antonio Palopó	9	San Antonio Palopo	9	Septiembre	2023-09-15T00:00:00	2024-11-08T04:00:00	7	Dirección del viento	11.27
7447	7	Sololá	712	San Antonio Palopó	9	San Antonio Palopo	9	Septiembre	2023-09-15T00:00:00	2024-11-08T04:00:00	1	Precipitación	0
7448	7	Sololá	712	San Antonio Palopó	9	San Antonio Palopo	9	Septiembre	2023-09-15T00:00:00	2024-11-08T04:00:00	8	Radiación solar	0
7449	7	Sololá	712	San Antonio Palopó	9	San Antonio Palopo	9	Septiembre	2023-09-15T00:00:00	2024-11-08T05:00:00	2	Temperatura media	19.4
7450	7	Sololá	712	San Antonio Palopó	9	San Antonio Palopo	9	Septiembre	2023-09-15T00:00:00	2024-11-08T05:00:00	4	Temperatura máxima	19.7
7451	7	Sololá	712	San Antonio Palopó	9	San Antonio Palopo	9	Septiembre	2023-09-15T00:00:00	2024-11-08T05:00:00	3	Temperatura mínima	19.3
7452	7	Sololá	712	San Antonio Palopó	9	San Antonio Palopo	9	Septiembre	2023-09-15T00:00:00	2024-11-08T05:00:00	5	Humedad	75
7453	7	Sololá	712	San Antonio Palopó	9	San Antonio Palopo	9	Septiembre	2023-09-15T00:00:00	2024-11-08T05:00:00	6	Velocidad del viento	11.3
7454	7	Sololá	712	San Antonio Palopó	9	San Antonio Palopo	9	Septiembre	2023-09-15T00:00:00	2024-11-08T05:00:00	7	Dirección del viento	11.27
7455	7	Sololá	712	San Antonio Palopó	9	San Antonio Palopo	9	Septiembre	2023-09-15T00:00:00	2024-11-08T05:00:00	1	Precipitación	0
7456	7	Sololá	712	San Antonio Palopó	9	San Antonio Palopo	9	Septiembre	2023-09-15T00:00:00	2024-11-08T05:00:00	8	Radiación solar	0
7457	7	Sololá	712	San Antonio Palopó	9	San Antonio Palopo	9	Septiembre	2023-09-15T00:00:00	2024-11-08T06:00:00	2	Temperatura media	19.6
7458	7	Sololá	712	San Antonio Palopó	9	San Antonio Palopo	9	Septiembre	2023-09-15T00:00:00	2024-11-08T06:00:00	4	Temperatura máxima	19.9
7459	7	Sololá	712	San Antonio Palopó	9	San Antonio Palopo	9	Septiembre	2023-09-15T00:00:00	2024-11-08T06:00:00	3	Temperatura mínima	19.4
7460	7	Sololá	712	San Antonio Palopó	9	San Antonio Palopo	9	Septiembre	2023-09-15T00:00:00	2024-11-08T06:00:00	5	Humedad	74
7461	7	Sololá	712	San Antonio Palopó	9	San Antonio Palopo	9	Septiembre	2023-09-15T00:00:00	2024-11-08T06:00:00	6	Velocidad del viento	14.5
7462	7	Sololá	712	San Antonio Palopó	9	San Antonio Palopo	9	Septiembre	2023-09-15T00:00:00	2024-11-08T06:00:00	7	Dirección del viento	14.48
7463	7	Sololá	712	San Antonio Palopó	9	San Antonio Palopo	9	Septiembre	2023-09-15T00:00:00	2024-11-08T06:00:00	1	Precipitación	0
7464	7	Sololá	712	San Antonio Palopó	9	San Antonio Palopo	9	Septiembre	2023-09-15T00:00:00	2024-11-08T06:00:00	8	Radiación solar	0
7465	7	Sololá	712	San Antonio Palopó	9	San Antonio Palopo	9	Septiembre	2023-09-15T00:00:00	2024-11-08T07:00:00	2	Temperatura media	20.1
7466	7	Sololá	712	San Antonio Palopó	9	San Antonio Palopo	9	Septiembre	2023-09-15T00:00:00	2024-11-08T07:00:00	4	Temperatura máxima	20.1
7467	7	Sololá	712	San Antonio Palopó	9	San Antonio Palopo	9	Septiembre	2023-09-15T00:00:00	2024-11-08T07:00:00	3	Temperatura mínima	19.4
7468	7	Sololá	712	San Antonio Palopó	9	San Antonio Palopo	9	Septiembre	2023-09-15T00:00:00	2024-11-08T07:00:00	5	Humedad	73
7469	7	Sololá	712	San Antonio Palopó	9	San Antonio Palopo	9	Septiembre	2023-09-15T00:00:00	2024-11-08T07:00:00	6	Velocidad del viento	12.9
7470	7	Sololá	712	San Antonio Palopó	9	San Antonio Palopo	9	Septiembre	2023-09-15T00:00:00	2024-11-08T07:00:00	7	Dirección del viento	12.87
7471	7	Sololá	712	San Antonio Palopó	9	San Antonio Palopo	9	Septiembre	2023-09-15T00:00:00	2024-11-08T07:00:00	1	Precipitación	0
7472	7	Sololá	712	San Antonio Palopó	9	San Antonio Palopo	9	Septiembre	2023-09-15T00:00:00	2024-11-08T07:00:00	8	Radiación solar	36
7473	7	Sololá	712	San Antonio Palopó	9	San Antonio Palopo	9	Septiembre	2023-09-15T00:00:00	2024-11-08T08:00:00	2	Temperatura media	21.2
7474	7	Sololá	712	San Antonio Palopó	9	San Antonio Palopo	9	Septiembre	2023-09-15T00:00:00	2024-11-08T08:00:00	4	Temperatura máxima	21.3
7475	7	Sololá	712	San Antonio Palopó	9	San Antonio Palopo	9	Septiembre	2023-09-15T00:00:00	2024-11-08T08:00:00	3	Temperatura mínima	20.1
7476	7	Sololá	712	San Antonio Palopó	9	San Antonio Palopo	9	Septiembre	2023-09-15T00:00:00	2024-11-08T08:00:00	5	Humedad	76
7477	7	Sololá	712	San Antonio Palopó	9	San Antonio Palopo	9	Septiembre	2023-09-15T00:00:00	2024-11-08T08:00:00	6	Velocidad del viento	4.8
7478	7	Sololá	712	San Antonio Palopó	9	San Antonio Palopo	9	Septiembre	2023-09-15T00:00:00	2024-11-08T08:00:00	7	Dirección del viento	4.83
7479	7	Sololá	712	San Antonio Palopó	9	San Antonio Palopo	9	Septiembre	2023-09-15T00:00:00	2024-11-08T08:00:00	1	Precipitación	0
7480	7	Sololá	712	San Antonio Palopó	9	San Antonio Palopo	9	Septiembre	2023-09-15T00:00:00	2024-11-08T08:00:00	8	Radiación solar	116
7481	7	Sololá	712	San Antonio Palopó	9	San Antonio Palopo	9	Septiembre	2023-09-15T00:00:00	2024-11-08T09:00:00	2	Temperatura media	22.4
7482	7	Sololá	712	San Antonio Palopó	9	San Antonio Palopo	9	Septiembre	2023-09-15T00:00:00	2024-11-08T09:00:00	4	Temperatura máxima	22.8
7483	7	Sololá	712	San Antonio Palopó	9	San Antonio Palopo	9	Septiembre	2023-09-15T00:00:00	2024-11-08T09:00:00	3	Temperatura mínima	21.2
7484	7	Sololá	712	San Antonio Palopó	9	San Antonio Palopo	9	Septiembre	2023-09-15T00:00:00	2024-11-08T09:00:00	5	Humedad	70
7485	7	Sololá	712	San Antonio Palopó	9	San Antonio Palopo	9	Septiembre	2023-09-15T00:00:00	2024-11-08T09:00:00	6	Velocidad del viento	1.6
7486	7	Sololá	712	San Antonio Palopó	9	San Antonio Palopo	9	Septiembre	2023-09-15T00:00:00	2024-11-08T09:00:00	7	Dirección del viento	1.61
7487	7	Sololá	712	San Antonio Palopó	9	San Antonio Palopo	9	Septiembre	2023-09-15T00:00:00	2024-11-08T09:00:00	1	Precipitación	0
7488	7	Sololá	712	San Antonio Palopó	9	San Antonio Palopo	9	Septiembre	2023-09-15T00:00:00	2024-11-08T09:00:00	8	Radiación solar	430
7489	7	Sololá	712	San Antonio Palopó	9	San Antonio Palopo	9	Septiembre	2023-09-15T00:00:00	2024-11-08T10:00:00	2	Temperatura media	23.3
7490	7	Sololá	712	San Antonio Palopó	9	San Antonio Palopo	9	Septiembre	2023-09-15T00:00:00	2024-11-08T10:00:00	4	Temperatura máxima	23.3
7491	7	Sololá	712	San Antonio Palopó	9	San Antonio Palopo	9	Septiembre	2023-09-15T00:00:00	2024-11-08T10:00:00	3	Temperatura mínima	22.1
7492	7	Sololá	712	San Antonio Palopó	9	San Antonio Palopo	9	Septiembre	2023-09-15T00:00:00	2024-11-08T10:00:00	5	Humedad	69
7493	7	Sololá	712	San Antonio Palopó	9	San Antonio Palopo	9	Septiembre	2023-09-15T00:00:00	2024-11-08T10:00:00	6	Velocidad del viento	4.8
7494	7	Sololá	712	San Antonio Palopó	9	San Antonio Palopo	9	Septiembre	2023-09-15T00:00:00	2024-11-08T10:00:00	7	Dirección del viento	4.83
7495	7	Sololá	712	San Antonio Palopó	9	San Antonio Palopo	9	Septiembre	2023-09-15T00:00:00	2024-11-08T10:00:00	1	Precipitación	0
7496	7	Sololá	712	San Antonio Palopó	9	San Antonio Palopo	9	Septiembre	2023-09-15T00:00:00	2024-11-08T10:00:00	8	Radiación solar	615
7497	7	Sololá	712	San Antonio Palopó	9	San Antonio Palopo	9	Septiembre	2023-09-15T00:00:00	2024-11-08T11:00:00	2	Temperatura media	23.9
7498	7	Sololá	712	San Antonio Palopó	9	San Antonio Palopo	9	Septiembre	2023-09-15T00:00:00	2024-11-08T11:00:00	4	Temperatura máxima	24.1
7499	7	Sololá	712	San Antonio Palopó	9	San Antonio Palopo	9	Septiembre	2023-09-15T00:00:00	2024-11-08T11:00:00	3	Temperatura mínima	23.2
7500	7	Sololá	712	San Antonio Palopó	9	San Antonio Palopo	9	Septiembre	2023-09-15T00:00:00	2024-11-08T11:00:00	5	Humedad	68
7501	7	Sololá	712	San Antonio Palopó	9	San Antonio Palopo	9	Septiembre	2023-09-15T00:00:00	2024-11-08T11:00:00	6	Velocidad del viento	3.2
7502	7	Sololá	712	San Antonio Palopó	9	San Antonio Palopo	9	Septiembre	2023-09-15T00:00:00	2024-11-08T11:00:00	7	Dirección del viento	3.22
7503	7	Sololá	712	San Antonio Palopó	9	San Antonio Palopo	9	Septiembre	2023-09-15T00:00:00	2024-11-08T11:00:00	1	Precipitación	0
7504	7	Sololá	712	San Antonio Palopó	9	San Antonio Palopo	9	Septiembre	2023-09-15T00:00:00	2024-11-08T11:00:00	8	Radiación solar	904
7505	7	Sololá	712	San Antonio Palopó	9	San Antonio Palopo	9	Septiembre	2023-09-15T00:00:00	2024-11-08T12:00:00	2	Temperatura media	24.8
7506	7	Sololá	712	San Antonio Palopó	9	San Antonio Palopo	9	Septiembre	2023-09-15T00:00:00	2024-11-08T12:00:00	4	Temperatura máxima	25
7507	7	Sololá	712	San Antonio Palopó	9	San Antonio Palopo	9	Septiembre	2023-09-15T00:00:00	2024-11-08T12:00:00	3	Temperatura mínima	23.6
7508	7	Sololá	712	San Antonio Palopó	9	San Antonio Palopo	9	Septiembre	2023-09-15T00:00:00	2024-11-08T12:00:00	5	Humedad	69
7509	7	Sololá	712	San Antonio Palopó	9	San Antonio Palopo	9	Septiembre	2023-09-15T00:00:00	2024-11-08T12:00:00	6	Velocidad del viento	4.8
7510	7	Sololá	712	San Antonio Palopó	9	San Antonio Palopo	9	Septiembre	2023-09-15T00:00:00	2024-11-08T12:00:00	7	Dirección del viento	4.83
7511	7	Sololá	712	San Antonio Palopó	9	San Antonio Palopo	9	Septiembre	2023-09-15T00:00:00	2024-11-08T12:00:00	1	Precipitación	0
7512	7	Sololá	712	San Antonio Palopó	9	San Antonio Palopo	9	Septiembre	2023-09-15T00:00:00	2024-11-08T12:00:00	8	Radiación solar	896
7513	7	Sololá	712	San Antonio Palopó	9	San Antonio Palopo	9	Septiembre	2023-09-15T00:00:00	2024-11-08T13:00:00	2	Temperatura media	24.7
7514	7	Sololá	712	San Antonio Palopó	9	San Antonio Palopo	9	Septiembre	2023-09-15T00:00:00	2024-11-08T13:00:00	4	Temperatura máxima	25.8
7515	7	Sololá	712	San Antonio Palopó	9	San Antonio Palopo	9	Septiembre	2023-09-15T00:00:00	2024-11-08T13:00:00	3	Temperatura mínima	24.2
7516	7	Sololá	712	San Antonio Palopó	9	San Antonio Palopo	9	Septiembre	2023-09-15T00:00:00	2024-11-08T13:00:00	5	Humedad	73
7517	7	Sololá	712	San Antonio Palopó	9	San Antonio Palopo	9	Septiembre	2023-09-15T00:00:00	2024-11-08T13:00:00	6	Velocidad del viento	6.4
7518	7	Sololá	712	San Antonio Palopó	9	San Antonio Palopo	9	Septiembre	2023-09-15T00:00:00	2024-11-08T13:00:00	7	Dirección del viento	6.44
7519	7	Sololá	712	San Antonio Palopó	9	San Antonio Palopo	9	Septiembre	2023-09-15T00:00:00	2024-11-08T13:00:00	1	Precipitación	0
7520	7	Sololá	712	San Antonio Palopó	9	San Antonio Palopo	9	Septiembre	2023-09-15T00:00:00	2024-11-08T13:00:00	8	Radiación solar	757
7521	7	Sololá	712	San Antonio Palopó	9	San Antonio Palopo	9	Septiembre	2023-09-15T00:00:00	2024-11-08T14:00:00	2	Temperatura media	23.3
7522	7	Sololá	712	San Antonio Palopó	9	San Antonio Palopo	9	Septiembre	2023-09-15T00:00:00	2024-11-08T14:00:00	4	Temperatura máxima	24.8
7523	7	Sololá	712	San Antonio Palopó	9	San Antonio Palopo	9	Septiembre	2023-09-15T00:00:00	2024-11-08T14:00:00	3	Temperatura mínima	23.3
7524	7	Sololá	712	San Antonio Palopó	9	San Antonio Palopo	9	Septiembre	2023-09-15T00:00:00	2024-11-08T14:00:00	5	Humedad	75
7525	7	Sololá	712	San Antonio Palopó	9	San Antonio Palopo	9	Septiembre	2023-09-15T00:00:00	2024-11-08T14:00:00	6	Velocidad del viento	8
7526	7	Sololá	712	San Antonio Palopó	9	San Antonio Palopo	9	Septiembre	2023-09-15T00:00:00	2024-11-08T14:00:00	7	Dirección del viento	8.05
7527	7	Sololá	712	San Antonio Palopó	9	San Antonio Palopo	9	Septiembre	2023-09-15T00:00:00	2024-11-08T14:00:00	1	Precipitación	0
7528	7	Sololá	712	San Antonio Palopó	9	San Antonio Palopo	9	Septiembre	2023-09-15T00:00:00	2024-11-08T14:00:00	8	Radiación solar	208
7529	7	Sololá	712	San Antonio Palopó	9	San Antonio Palopo	9	Septiembre	2023-09-15T00:00:00	2024-11-08T15:00:00	2	Temperatura media	20.8
7530	7	Sololá	712	San Antonio Palopó	9	San Antonio Palopo	9	Septiembre	2023-09-15T00:00:00	2024-11-08T15:00:00	4	Temperatura máxima	23.6
7531	7	Sololá	712	San Antonio Palopó	9	San Antonio Palopo	9	Septiembre	2023-09-15T00:00:00	2024-11-08T15:00:00	3	Temperatura mínima	20.8
7532	7	Sololá	712	San Antonio Palopó	9	San Antonio Palopo	9	Septiembre	2023-09-15T00:00:00	2024-11-08T15:00:00	5	Humedad	84
7533	7	Sololá	712	San Antonio Palopó	9	San Antonio Palopo	9	Septiembre	2023-09-15T00:00:00	2024-11-08T15:00:00	6	Velocidad del viento	9.7
7534	7	Sololá	712	San Antonio Palopó	9	San Antonio Palopo	9	Septiembre	2023-09-15T00:00:00	2024-11-08T15:00:00	7	Dirección del viento	9.66
7535	7	Sololá	712	San Antonio Palopó	9	San Antonio Palopo	9	Septiembre	2023-09-15T00:00:00	2024-11-08T15:00:00	1	Precipitación	0
7536	7	Sololá	712	San Antonio Palopó	9	San Antonio Palopo	9	Septiembre	2023-09-15T00:00:00	2024-11-08T15:00:00	8	Radiación solar	201
7537	7	Sololá	712	San Antonio Palopó	9	San Antonio Palopo	9	Septiembre	2023-09-15T00:00:00	2024-11-08T16:00:00	2	Temperatura media	20.7
7538	7	Sololá	712	San Antonio Palopó	9	San Antonio Palopo	9	Septiembre	2023-09-15T00:00:00	2024-11-08T16:00:00	4	Temperatura máxima	21.5
7539	7	Sololá	712	San Antonio Palopó	9	San Antonio Palopo	9	Septiembre	2023-09-15T00:00:00	2024-11-08T16:00:00	3	Temperatura mínima	20.4
7540	7	Sololá	712	San Antonio Palopó	9	San Antonio Palopo	9	Septiembre	2023-09-15T00:00:00	2024-11-08T16:00:00	5	Humedad	83
7541	7	Sololá	712	San Antonio Palopó	9	San Antonio Palopo	9	Septiembre	2023-09-15T00:00:00	2024-11-08T16:00:00	6	Velocidad del viento	12.9
7542	7	Sololá	712	San Antonio Palopó	9	San Antonio Palopo	9	Septiembre	2023-09-15T00:00:00	2024-11-08T16:00:00	7	Dirección del viento	12.87
7543	7	Sololá	712	San Antonio Palopó	9	San Antonio Palopo	9	Septiembre	2023-09-15T00:00:00	2024-11-08T16:00:00	1	Precipitación	0.4
7544	7	Sololá	712	San Antonio Palopó	9	San Antonio Palopo	9	Septiembre	2023-09-15T00:00:00	2024-11-08T16:00:00	8	Radiación solar	235
7545	7	Sololá	712	San Antonio Palopó	9	San Antonio Palopo	9	Septiembre	2023-09-15T00:00:00	2024-11-08T17:00:00	2	Temperatura media	19.9
7546	7	Sololá	712	San Antonio Palopó	9	San Antonio Palopo	9	Septiembre	2023-09-15T00:00:00	2024-11-08T17:00:00	4	Temperatura máxima	21.4
7547	7	Sololá	712	San Antonio Palopó	9	San Antonio Palopo	9	Septiembre	2023-09-15T00:00:00	2024-11-08T17:00:00	3	Temperatura mínima	19.9
7548	7	Sololá	712	San Antonio Palopó	9	San Antonio Palopo	9	Septiembre	2023-09-15T00:00:00	2024-11-08T17:00:00	5	Humedad	87
7549	7	Sololá	712	San Antonio Palopó	9	San Antonio Palopo	9	Septiembre	2023-09-15T00:00:00	2024-11-08T17:00:00	6	Velocidad del viento	4.8
7550	7	Sololá	712	San Antonio Palopó	9	San Antonio Palopo	9	Septiembre	2023-09-15T00:00:00	2024-11-08T17:00:00	7	Dirección del viento	4.83
7551	7	Sololá	712	San Antonio Palopó	9	San Antonio Palopo	9	Septiembre	2023-09-15T00:00:00	2024-11-08T17:00:00	1	Precipitación	0
7552	7	Sololá	712	San Antonio Palopó	9	San Antonio Palopo	9	Septiembre	2023-09-15T00:00:00	2024-11-08T17:00:00	8	Radiación solar	108
7553	7	Sololá	712	San Antonio Palopó	9	San Antonio Palopo	9	Septiembre	2023-09-15T00:00:00	2024-11-08T18:00:00	2	Temperatura media	19.4
7554	7	Sololá	712	San Antonio Palopó	9	San Antonio Palopo	9	Septiembre	2023-09-15T00:00:00	2024-11-08T18:00:00	4	Temperatura máxima	19.8
7555	7	Sololá	712	San Antonio Palopó	9	San Antonio Palopo	9	Septiembre	2023-09-15T00:00:00	2024-11-08T18:00:00	3	Temperatura mínima	19.3
7556	7	Sololá	712	San Antonio Palopó	9	San Antonio Palopo	9	Septiembre	2023-09-15T00:00:00	2024-11-08T18:00:00	5	Humedad	89
7557	7	Sololá	712	San Antonio Palopó	9	San Antonio Palopo	9	Septiembre	2023-09-15T00:00:00	2024-11-08T18:00:00	6	Velocidad del viento	4.8
7558	7	Sololá	712	San Antonio Palopó	9	San Antonio Palopo	9	Septiembre	2023-09-15T00:00:00	2024-11-08T18:00:00	7	Dirección del viento	4.83
7559	7	Sololá	712	San Antonio Palopó	9	San Antonio Palopo	9	Septiembre	2023-09-15T00:00:00	2024-11-08T18:00:00	1	Precipitación	0
7560	7	Sololá	712	San Antonio Palopó	9	San Antonio Palopo	9	Septiembre	2023-09-15T00:00:00	2024-11-08T18:00:00	8	Radiación solar	21
7561	7	Sololá	712	San Antonio Palopó	9	San Antonio Palopo	9	Septiembre	2023-09-15T00:00:00	2024-11-08T19:00:00	2	Temperatura media	19.5
7562	7	Sololá	712	San Antonio Palopó	9	San Antonio Palopo	9	Septiembre	2023-09-15T00:00:00	2024-11-08T19:00:00	4	Temperatura máxima	19.6
7563	7	Sololá	712	San Antonio Palopó	9	San Antonio Palopo	9	Septiembre	2023-09-15T00:00:00	2024-11-08T19:00:00	3	Temperatura mínima	19.3
7564	7	Sololá	712	San Antonio Palopó	9	San Antonio Palopo	9	Septiembre	2023-09-15T00:00:00	2024-11-08T19:00:00	5	Humedad	89
7565	7	Sololá	712	San Antonio Palopó	9	San Antonio Palopo	9	Septiembre	2023-09-15T00:00:00	2024-11-08T19:00:00	6	Velocidad del viento	1.6
7566	7	Sololá	712	San Antonio Palopó	9	San Antonio Palopo	9	Septiembre	2023-09-15T00:00:00	2024-11-08T19:00:00	7	Dirección del viento	1.61
7567	7	Sololá	712	San Antonio Palopó	9	San Antonio Palopo	9	Septiembre	2023-09-15T00:00:00	2024-11-08T19:00:00	1	Precipitación	0
7568	7	Sololá	712	San Antonio Palopó	9	San Antonio Palopo	9	Septiembre	2023-09-15T00:00:00	2024-11-08T19:00:00	8	Radiación solar	0
7569	7	Sololá	712	San Antonio Palopó	9	San Antonio Palopo	9	Septiembre	2023-09-15T00:00:00	2024-11-08T20:00:00	2	Temperatura media	19.7
7570	7	Sololá	712	San Antonio Palopó	9	San Antonio Palopo	9	Septiembre	2023-09-15T00:00:00	2024-11-08T20:00:00	4	Temperatura máxima	19.7
7571	7	Sololá	712	San Antonio Palopó	9	San Antonio Palopo	9	Septiembre	2023-09-15T00:00:00	2024-11-08T20:00:00	3	Temperatura mínima	19.5
7572	7	Sololá	712	San Antonio Palopó	9	San Antonio Palopo	9	Septiembre	2023-09-15T00:00:00	2024-11-08T20:00:00	5	Humedad	85
7573	7	Sololá	712	San Antonio Palopó	9	San Antonio Palopo	9	Septiembre	2023-09-15T00:00:00	2024-11-08T20:00:00	6	Velocidad del viento	1.6
7574	7	Sololá	712	San Antonio Palopó	9	San Antonio Palopo	9	Septiembre	2023-09-15T00:00:00	2024-11-08T20:00:00	7	Dirección del viento	1.61
7575	7	Sololá	712	San Antonio Palopó	9	San Antonio Palopo	9	Septiembre	2023-09-15T00:00:00	2024-11-08T20:00:00	1	Precipitación	0
7576	7	Sololá	712	San Antonio Palopó	9	San Antonio Palopo	9	Septiembre	2023-09-15T00:00:00	2024-11-08T20:00:00	8	Radiación solar	0
7577	7	Sololá	712	San Antonio Palopó	9	San Antonio Palopo	9	Septiembre	2023-09-15T00:00:00	2024-11-08T21:00:00	2	Temperatura media	18.5
7578	7	Sololá	712	San Antonio Palopó	9	San Antonio Palopo	9	Septiembre	2023-09-15T00:00:00	2024-11-08T21:00:00	4	Temperatura máxima	19.7
7579	7	Sololá	712	San Antonio Palopó	9	San Antonio Palopo	9	Septiembre	2023-09-15T00:00:00	2024-11-08T21:00:00	3	Temperatura mínima	18.5
7580	7	Sololá	712	San Antonio Palopó	9	San Antonio Palopo	9	Septiembre	2023-09-15T00:00:00	2024-11-08T21:00:00	5	Humedad	87
7581	7	Sololá	712	San Antonio Palopó	9	San Antonio Palopo	9	Septiembre	2023-09-15T00:00:00	2024-11-08T21:00:00	6	Velocidad del viento	3.2
7582	7	Sololá	712	San Antonio Palopó	9	San Antonio Palopo	9	Septiembre	2023-09-15T00:00:00	2024-11-08T21:00:00	7	Dirección del viento	3.22
7583	7	Sololá	712	San Antonio Palopó	9	San Antonio Palopo	9	Septiembre	2023-09-15T00:00:00	2024-11-08T21:00:00	1	Precipitación	0
7584	7	Sololá	712	San Antonio Palopó	9	San Antonio Palopo	9	Septiembre	2023-09-15T00:00:00	2024-11-08T21:00:00	8	Radiación solar	0
7585	7	Sololá	712	San Antonio Palopó	9	San Antonio Palopo	9	Septiembre	2023-09-15T00:00:00	2024-11-08T22:00:00	2	Temperatura media	19.3
7586	7	Sololá	712	San Antonio Palopó	9	San Antonio Palopo	9	Septiembre	2023-09-15T00:00:00	2024-11-08T22:00:00	4	Temperatura máxima	19.3
7587	7	Sololá	712	San Antonio Palopó	9	San Antonio Palopo	9	Septiembre	2023-09-15T00:00:00	2024-11-08T22:00:00	3	Temperatura mínima	18.3
7588	7	Sololá	712	San Antonio Palopó	9	San Antonio Palopo	9	Septiembre	2023-09-15T00:00:00	2024-11-08T22:00:00	5	Humedad	79
7589	7	Sololá	712	San Antonio Palopó	9	San Antonio Palopo	9	Septiembre	2023-09-15T00:00:00	2024-11-08T22:00:00	6	Velocidad del viento	3.2
7590	7	Sololá	712	San Antonio Palopó	9	San Antonio Palopo	9	Septiembre	2023-09-15T00:00:00	2024-11-08T22:00:00	7	Dirección del viento	3.22
7591	7	Sololá	712	San Antonio Palopó	9	San Antonio Palopo	9	Septiembre	2023-09-15T00:00:00	2024-11-08T22:00:00	1	Precipitación	0
7592	7	Sololá	712	San Antonio Palopó	9	San Antonio Palopo	9	Septiembre	2023-09-15T00:00:00	2024-11-08T22:00:00	8	Radiación solar	0
7593	7	Sololá	712	San Antonio Palopó	9	San Antonio Palopo	9	Septiembre	2023-09-15T00:00:00	2024-11-08T23:00:00	2	Temperatura media	19.3
7594	7	Sololá	712	San Antonio Palopó	9	San Antonio Palopo	9	Septiembre	2023-09-15T00:00:00	2024-11-08T23:00:00	4	Temperatura máxima	19.7
7595	7	Sololá	712	San Antonio Palopó	9	San Antonio Palopo	9	Septiembre	2023-09-15T00:00:00	2024-11-08T23:00:00	3	Temperatura mínima	18.8
7596	7	Sololá	712	San Antonio Palopó	9	San Antonio Palopo	9	Septiembre	2023-09-15T00:00:00	2024-11-08T23:00:00	5	Humedad	78
7597	7	Sololá	712	San Antonio Palopó	9	San Antonio Palopo	9	Septiembre	2023-09-15T00:00:00	2024-11-08T23:00:00	6	Velocidad del viento	4.8
7598	7	Sololá	712	San Antonio Palopó	9	San Antonio Palopo	9	Septiembre	2023-09-15T00:00:00	2024-11-08T23:00:00	7	Dirección del viento	4.83
7599	7	Sololá	712	San Antonio Palopó	9	San Antonio Palopo	9	Septiembre	2023-09-15T00:00:00	2024-11-08T23:00:00	1	Precipitación	0
7600	7	Sololá	712	San Antonio Palopó	9	San Antonio Palopo	9	Septiembre	2023-09-15T00:00:00	2024-11-08T23:00:00	8	Radiación solar	0
7601	7	Sololá	712	San Antonio Palopó	9	San Antonio Palopo	9	Septiembre	2023-09-16T00:00:00	2024-11-08T00:00:00	2	Temperatura media	19
7602	7	Sololá	712	San Antonio Palopó	9	San Antonio Palopo	9	Septiembre	2023-09-16T00:00:00	2024-11-08T00:00:00	4	Temperatura máxima	19.8
7603	7	Sololá	712	San Antonio Palopó	9	San Antonio Palopo	9	Septiembre	2023-09-16T00:00:00	2024-11-08T00:00:00	3	Temperatura mínima	19
7604	7	Sololá	712	San Antonio Palopó	9	San Antonio Palopo	9	Septiembre	2023-09-16T00:00:00	2024-11-08T00:00:00	5	Humedad	76
7605	7	Sololá	712	San Antonio Palopó	9	San Antonio Palopo	9	Septiembre	2023-09-16T00:00:00	2024-11-08T00:00:00	6	Velocidad del viento	4.8
7606	7	Sololá	712	San Antonio Palopó	9	San Antonio Palopo	9	Septiembre	2023-09-16T00:00:00	2024-11-08T00:00:00	7	Dirección del viento	4.83
7607	7	Sololá	712	San Antonio Palopó	9	San Antonio Palopo	9	Septiembre	2023-09-16T00:00:00	2024-11-08T00:00:00	1	Precipitación	0
7608	7	Sololá	712	San Antonio Palopó	9	San Antonio Palopo	9	Septiembre	2023-09-16T00:00:00	2024-11-08T00:00:00	8	Radiación solar	0
7609	7	Sololá	712	San Antonio Palopó	9	San Antonio Palopo	9	Septiembre	2023-09-16T00:00:00	2024-11-08T01:00:00	2	Temperatura media	19.3
7610	7	Sololá	712	San Antonio Palopó	9	San Antonio Palopo	9	Septiembre	2023-09-16T00:00:00	2024-11-08T01:00:00	4	Temperatura máxima	19.4
7611	7	Sololá	712	San Antonio Palopó	9	San Antonio Palopo	9	Septiembre	2023-09-16T00:00:00	2024-11-08T01:00:00	3	Temperatura mínima	18.9
7612	7	Sololá	712	San Antonio Palopó	9	San Antonio Palopo	9	Septiembre	2023-09-16T00:00:00	2024-11-08T01:00:00	5	Humedad	74
7613	7	Sololá	712	San Antonio Palopó	9	San Antonio Palopo	9	Septiembre	2023-09-16T00:00:00	2024-11-08T01:00:00	6	Velocidad del viento	8
7614	7	Sololá	712	San Antonio Palopó	9	San Antonio Palopo	9	Septiembre	2023-09-16T00:00:00	2024-11-08T01:00:00	7	Dirección del viento	8.05
7615	7	Sololá	712	San Antonio Palopó	9	San Antonio Palopo	9	Septiembre	2023-09-16T00:00:00	2024-11-08T01:00:00	1	Precipitación	0
7616	7	Sololá	712	San Antonio Palopó	9	San Antonio Palopo	9	Septiembre	2023-09-16T00:00:00	2024-11-08T01:00:00	8	Radiación solar	0
7617	7	Sololá	712	San Antonio Palopó	9	San Antonio Palopo	9	Septiembre	2023-09-16T00:00:00	2024-11-08T02:00:00	2	Temperatura media	18.9
7618	7	Sololá	712	San Antonio Palopó	9	San Antonio Palopo	9	Septiembre	2023-09-16T00:00:00	2024-11-08T02:00:00	4	Temperatura máxima	19.4
7619	7	Sololá	712	San Antonio Palopó	9	San Antonio Palopo	9	Septiembre	2023-09-16T00:00:00	2024-11-08T02:00:00	3	Temperatura mínima	18.9
7620	7	Sololá	712	San Antonio Palopó	9	San Antonio Palopo	9	Septiembre	2023-09-16T00:00:00	2024-11-08T02:00:00	5	Humedad	74
7621	7	Sololá	712	San Antonio Palopó	9	San Antonio Palopo	9	Septiembre	2023-09-16T00:00:00	2024-11-08T02:00:00	6	Velocidad del viento	9.7
7622	7	Sololá	712	San Antonio Palopó	9	San Antonio Palopo	9	Septiembre	2023-09-16T00:00:00	2024-11-08T02:00:00	7	Dirección del viento	9.66
7623	7	Sololá	712	San Antonio Palopó	9	San Antonio Palopo	9	Septiembre	2023-09-16T00:00:00	2024-11-08T02:00:00	1	Precipitación	0
7624	7	Sololá	712	San Antonio Palopó	9	San Antonio Palopo	9	Septiembre	2023-09-16T00:00:00	2024-11-08T02:00:00	8	Radiación solar	0
7625	7	Sololá	712	San Antonio Palopó	9	San Antonio Palopo	9	Septiembre	2023-09-16T00:00:00	2024-11-08T03:00:00	2	Temperatura media	18.7
7626	7	Sololá	712	San Antonio Palopó	9	San Antonio Palopo	9	Septiembre	2023-09-16T00:00:00	2024-11-08T03:00:00	4	Temperatura máxima	19.1
7627	7	Sololá	712	San Antonio Palopó	9	San Antonio Palopo	9	Septiembre	2023-09-16T00:00:00	2024-11-08T03:00:00	3	Temperatura mínima	18.7
7628	7	Sololá	712	San Antonio Palopó	9	San Antonio Palopo	9	Septiembre	2023-09-16T00:00:00	2024-11-08T03:00:00	5	Humedad	75
7629	7	Sololá	712	San Antonio Palopó	9	San Antonio Palopo	9	Septiembre	2023-09-16T00:00:00	2024-11-08T03:00:00	6	Velocidad del viento	9.7
7630	7	Sololá	712	San Antonio Palopó	9	San Antonio Palopo	9	Septiembre	2023-09-16T00:00:00	2024-11-08T03:00:00	7	Dirección del viento	9.66
7631	7	Sololá	712	San Antonio Palopó	9	San Antonio Palopo	9	Septiembre	2023-09-16T00:00:00	2024-11-08T03:00:00	1	Precipitación	0
7632	7	Sololá	712	San Antonio Palopó	9	San Antonio Palopo	9	Septiembre	2023-09-16T00:00:00	2024-11-08T03:00:00	8	Radiación solar	0
7633	7	Sololá	712	San Antonio Palopó	9	San Antonio Palopo	9	Septiembre	2023-09-16T00:00:00	2024-11-08T04:00:00	2	Temperatura media	19.1
7634	7	Sololá	712	San Antonio Palopó	9	San Antonio Palopo	9	Septiembre	2023-09-16T00:00:00	2024-11-08T04:00:00	4	Temperatura máxima	19.3
7635	7	Sololá	712	San Antonio Palopó	9	San Antonio Palopo	9	Septiembre	2023-09-16T00:00:00	2024-11-08T04:00:00	3	Temperatura mínima	18.7
7636	7	Sololá	712	San Antonio Palopó	9	San Antonio Palopo	9	Septiembre	2023-09-16T00:00:00	2024-11-08T04:00:00	5	Humedad	72
7637	7	Sololá	712	San Antonio Palopó	9	San Antonio Palopo	9	Septiembre	2023-09-16T00:00:00	2024-11-08T04:00:00	6	Velocidad del viento	11.3
7638	7	Sololá	712	San Antonio Palopó	9	San Antonio Palopo	9	Septiembre	2023-09-16T00:00:00	2024-11-08T04:00:00	7	Dirección del viento	11.27
7639	7	Sololá	712	San Antonio Palopó	9	San Antonio Palopo	9	Septiembre	2023-09-16T00:00:00	2024-11-08T04:00:00	1	Precipitación	0
7640	7	Sololá	712	San Antonio Palopó	9	San Antonio Palopo	9	Septiembre	2023-09-16T00:00:00	2024-11-08T04:00:00	8	Radiación solar	0
7641	7	Sololá	712	San Antonio Palopó	9	San Antonio Palopo	9	Septiembre	2023-09-16T00:00:00	2024-11-08T05:00:00	2	Temperatura media	18.8
7642	7	Sololá	712	San Antonio Palopó	9	San Antonio Palopo	9	Septiembre	2023-09-16T00:00:00	2024-11-08T05:00:00	4	Temperatura máxima	19.1
7643	7	Sololá	712	San Antonio Palopó	9	San Antonio Palopo	9	Septiembre	2023-09-16T00:00:00	2024-11-08T05:00:00	3	Temperatura mínima	18.6
7644	7	Sololá	712	San Antonio Palopó	9	San Antonio Palopo	9	Septiembre	2023-09-16T00:00:00	2024-11-08T05:00:00	5	Humedad	73
7645	7	Sololá	712	San Antonio Palopó	9	San Antonio Palopo	9	Septiembre	2023-09-16T00:00:00	2024-11-08T05:00:00	6	Velocidad del viento	11.3
7646	7	Sololá	712	San Antonio Palopó	9	San Antonio Palopo	9	Septiembre	2023-09-16T00:00:00	2024-11-08T05:00:00	7	Dirección del viento	11.27
7647	7	Sololá	712	San Antonio Palopó	9	San Antonio Palopo	9	Septiembre	2023-09-16T00:00:00	2024-11-08T05:00:00	1	Precipitación	0
7648	7	Sololá	712	San Antonio Palopó	9	San Antonio Palopo	9	Septiembre	2023-09-16T00:00:00	2024-11-08T05:00:00	8	Radiación solar	0
7649	7	Sololá	712	San Antonio Palopó	9	San Antonio Palopo	9	Septiembre	2023-09-16T00:00:00	2024-11-08T06:00:00	2	Temperatura media	18.4
7650	7	Sololá	712	San Antonio Palopó	9	San Antonio Palopo	9	Septiembre	2023-09-16T00:00:00	2024-11-08T06:00:00	4	Temperatura máxima	18.9
7651	7	Sololá	712	San Antonio Palopó	9	San Antonio Palopo	9	Septiembre	2023-09-16T00:00:00	2024-11-08T06:00:00	3	Temperatura mínima	18.3
7652	7	Sololá	712	San Antonio Palopó	9	San Antonio Palopo	9	Septiembre	2023-09-16T00:00:00	2024-11-08T06:00:00	5	Humedad	73
7653	7	Sololá	712	San Antonio Palopó	9	San Antonio Palopo	9	Septiembre	2023-09-16T00:00:00	2024-11-08T06:00:00	6	Velocidad del viento	9.7
7654	7	Sololá	712	San Antonio Palopó	9	San Antonio Palopo	9	Septiembre	2023-09-16T00:00:00	2024-11-08T06:00:00	7	Dirección del viento	9.66
7655	7	Sololá	712	San Antonio Palopó	9	San Antonio Palopo	9	Septiembre	2023-09-16T00:00:00	2024-11-08T06:00:00	1	Precipitación	0
7656	7	Sololá	712	San Antonio Palopó	9	San Antonio Palopo	9	Septiembre	2023-09-16T00:00:00	2024-11-08T06:00:00	8	Radiación solar	0
7657	7	Sololá	712	San Antonio Palopó	9	San Antonio Palopo	9	Septiembre	2023-09-16T00:00:00	2024-11-08T07:00:00	2	Temperatura media	19.2
7658	7	Sololá	712	San Antonio Palopó	9	San Antonio Palopo	9	Septiembre	2023-09-16T00:00:00	2024-11-08T07:00:00	4	Temperatura máxima	19.2
7659	7	Sololá	712	San Antonio Palopó	9	San Antonio Palopo	9	Septiembre	2023-09-16T00:00:00	2024-11-08T07:00:00	3	Temperatura mínima	18.4
7660	7	Sololá	712	San Antonio Palopó	9	San Antonio Palopo	9	Septiembre	2023-09-16T00:00:00	2024-11-08T07:00:00	5	Humedad	71
7661	7	Sololá	712	San Antonio Palopó	9	San Antonio Palopo	9	Septiembre	2023-09-16T00:00:00	2024-11-08T07:00:00	6	Velocidad del viento	8
7662	7	Sololá	712	San Antonio Palopó	9	San Antonio Palopo	9	Septiembre	2023-09-16T00:00:00	2024-11-08T07:00:00	7	Dirección del viento	8.05
7663	7	Sololá	712	San Antonio Palopó	9	San Antonio Palopo	9	Septiembre	2023-09-16T00:00:00	2024-11-08T07:00:00	1	Precipitación	0
7664	7	Sololá	712	San Antonio Palopó	9	San Antonio Palopo	9	Septiembre	2023-09-16T00:00:00	2024-11-08T07:00:00	8	Radiación solar	18
7665	7	Sololá	712	San Antonio Palopó	9	San Antonio Palopo	9	Septiembre	2023-09-16T00:00:00	2024-11-08T08:00:00	2	Temperatura media	21.5
7666	7	Sololá	712	San Antonio Palopó	9	San Antonio Palopo	9	Septiembre	2023-09-16T00:00:00	2024-11-08T08:00:00	4	Temperatura máxima	21.5
7667	7	Sololá	712	San Antonio Palopó	9	San Antonio Palopo	9	Septiembre	2023-09-16T00:00:00	2024-11-08T08:00:00	3	Temperatura mínima	19.2
7668	7	Sololá	712	San Antonio Palopó	9	San Antonio Palopo	9	Septiembre	2023-09-16T00:00:00	2024-11-08T08:00:00	5	Humedad	66
7669	7	Sololá	712	San Antonio Palopó	9	San Antonio Palopo	9	Septiembre	2023-09-16T00:00:00	2024-11-08T08:00:00	6	Velocidad del viento	4.8
7670	7	Sololá	712	San Antonio Palopó	9	San Antonio Palopo	9	Septiembre	2023-09-16T00:00:00	2024-11-08T08:00:00	7	Dirección del viento	4.83
7671	7	Sololá	712	San Antonio Palopó	9	San Antonio Palopo	9	Septiembre	2023-09-16T00:00:00	2024-11-08T08:00:00	1	Precipitación	0
7672	7	Sololá	712	San Antonio Palopó	9	San Antonio Palopo	9	Septiembre	2023-09-16T00:00:00	2024-11-08T08:00:00	8	Radiación solar	129
7673	7	Sololá	712	San Antonio Palopó	9	San Antonio Palopo	9	Septiembre	2023-09-16T00:00:00	2024-11-08T09:00:00	2	Temperatura media	22.8
7674	7	Sololá	712	San Antonio Palopó	9	San Antonio Palopo	9	Septiembre	2023-09-16T00:00:00	2024-11-08T09:00:00	4	Temperatura máxima	22.9
7675	7	Sololá	712	San Antonio Palopó	9	San Antonio Palopo	9	Septiembre	2023-09-16T00:00:00	2024-11-08T09:00:00	3	Temperatura mínima	21.5
7676	7	Sololá	712	San Antonio Palopó	9	San Antonio Palopo	9	Septiembre	2023-09-16T00:00:00	2024-11-08T09:00:00	5	Humedad	63
7677	7	Sololá	712	San Antonio Palopó	9	San Antonio Palopo	9	Septiembre	2023-09-16T00:00:00	2024-11-08T09:00:00	6	Velocidad del viento	3.2
7678	7	Sololá	712	San Antonio Palopó	9	San Antonio Palopo	9	Septiembre	2023-09-16T00:00:00	2024-11-08T09:00:00	7	Dirección del viento	3.22
7679	7	Sololá	712	San Antonio Palopó	9	San Antonio Palopo	9	Septiembre	2023-09-16T00:00:00	2024-11-08T09:00:00	1	Precipitación	0
7680	7	Sololá	712	San Antonio Palopó	9	San Antonio Palopo	9	Septiembre	2023-09-16T00:00:00	2024-11-08T09:00:00	8	Radiación solar	440
7681	7	Sololá	712	San Antonio Palopó	9	San Antonio Palopo	9	Septiembre	2023-09-16T00:00:00	2024-11-08T10:00:00	2	Temperatura media	24.4
7682	7	Sololá	712	San Antonio Palopó	9	San Antonio Palopo	9	Septiembre	2023-09-16T00:00:00	2024-11-08T10:00:00	4	Temperatura máxima	24.4
7683	7	Sololá	712	San Antonio Palopó	9	San Antonio Palopo	9	Septiembre	2023-09-16T00:00:00	2024-11-08T10:00:00	3	Temperatura mínima	22.7
7684	7	Sololá	712	San Antonio Palopó	9	San Antonio Palopo	9	Septiembre	2023-09-16T00:00:00	2024-11-08T10:00:00	5	Humedad	57
7685	7	Sololá	712	San Antonio Palopó	9	San Antonio Palopo	9	Septiembre	2023-09-16T00:00:00	2024-11-08T10:00:00	6	Velocidad del viento	1.6
7686	7	Sololá	712	San Antonio Palopó	9	San Antonio Palopo	9	Septiembre	2023-09-16T00:00:00	2024-11-08T10:00:00	7	Dirección del viento	1.61
7687	7	Sololá	712	San Antonio Palopó	9	San Antonio Palopo	9	Septiembre	2023-09-16T00:00:00	2024-11-08T10:00:00	1	Precipitación	0
7688	7	Sololá	712	San Antonio Palopó	9	San Antonio Palopo	9	Septiembre	2023-09-16T00:00:00	2024-11-08T10:00:00	8	Radiación solar	592
7689	7	Sololá	712	San Antonio Palopó	9	San Antonio Palopo	9	Septiembre	2023-09-16T00:00:00	2024-11-08T11:00:00	2	Temperatura media	24.9
7690	7	Sololá	712	San Antonio Palopó	9	San Antonio Palopo	9	Septiembre	2023-09-16T00:00:00	2024-11-08T11:00:00	4	Temperatura máxima	24.9
7691	7	Sololá	712	San Antonio Palopó	9	San Antonio Palopo	9	Septiembre	2023-09-16T00:00:00	2024-11-08T11:00:00	3	Temperatura mínima	23.9
7692	7	Sololá	712	San Antonio Palopó	9	San Antonio Palopo	9	Septiembre	2023-09-16T00:00:00	2024-11-08T11:00:00	5	Humedad	62
7693	7	Sololá	712	San Antonio Palopó	9	San Antonio Palopo	9	Septiembre	2023-09-16T00:00:00	2024-11-08T11:00:00	6	Velocidad del viento	3.2
7694	7	Sololá	712	San Antonio Palopó	9	San Antonio Palopo	9	Septiembre	2023-09-16T00:00:00	2024-11-08T11:00:00	7	Dirección del viento	3.22
7695	7	Sololá	712	San Antonio Palopó	9	San Antonio Palopo	9	Septiembre	2023-09-16T00:00:00	2024-11-08T11:00:00	1	Precipitación	0
7696	7	Sololá	712	San Antonio Palopó	9	San Antonio Palopo	9	Septiembre	2023-09-16T00:00:00	2024-11-08T11:00:00	8	Radiación solar	908
7697	7	Sololá	712	San Antonio Palopó	9	San Antonio Palopo	9	Septiembre	2023-09-16T00:00:00	2024-11-08T12:00:00	2	Temperatura media	24.7
7698	7	Sololá	712	San Antonio Palopó	9	San Antonio Palopo	9	Septiembre	2023-09-16T00:00:00	2024-11-08T12:00:00	4	Temperatura máxima	25.8
7699	7	Sololá	712	San Antonio Palopó	9	San Antonio Palopo	9	Septiembre	2023-09-16T00:00:00	2024-11-08T12:00:00	3	Temperatura mínima	24.2
7700	7	Sololá	712	San Antonio Palopó	9	San Antonio Palopo	9	Septiembre	2023-09-16T00:00:00	2024-11-08T12:00:00	5	Humedad	68
7701	7	Sololá	712	San Antonio Palopó	9	San Antonio Palopo	9	Septiembre	2023-09-16T00:00:00	2024-11-08T12:00:00	6	Velocidad del viento	6.4
7702	7	Sololá	712	San Antonio Palopó	9	San Antonio Palopo	9	Septiembre	2023-09-16T00:00:00	2024-11-08T12:00:00	7	Dirección del viento	6.44
7703	7	Sololá	712	San Antonio Palopó	9	San Antonio Palopo	9	Septiembre	2023-09-16T00:00:00	2024-11-08T12:00:00	1	Precipitación	0
7704	7	Sololá	712	San Antonio Palopó	9	San Antonio Palopo	9	Septiembre	2023-09-16T00:00:00	2024-11-08T12:00:00	8	Radiación solar	981
7705	7	Sololá	712	San Antonio Palopó	9	San Antonio Palopo	9	Septiembre	2023-09-16T00:00:00	2024-11-08T13:00:00	2	Temperatura media	25.8
7706	7	Sololá	712	San Antonio Palopó	9	San Antonio Palopo	9	Septiembre	2023-09-16T00:00:00	2024-11-08T13:00:00	4	Temperatura máxima	25.9
7707	7	Sololá	712	San Antonio Palopó	9	San Antonio Palopo	9	Septiembre	2023-09-16T00:00:00	2024-11-08T13:00:00	3	Temperatura mínima	24.7
7708	7	Sololá	712	San Antonio Palopó	9	San Antonio Palopo	9	Septiembre	2023-09-16T00:00:00	2024-11-08T13:00:00	5	Humedad	57
7709	7	Sololá	712	San Antonio Palopó	9	San Antonio Palopo	9	Septiembre	2023-09-16T00:00:00	2024-11-08T13:00:00	6	Velocidad del viento	4.8
7710	7	Sololá	712	San Antonio Palopó	9	San Antonio Palopo	9	Septiembre	2023-09-16T00:00:00	2024-11-08T13:00:00	7	Dirección del viento	4.83
7711	7	Sololá	712	San Antonio Palopó	9	San Antonio Palopo	9	Septiembre	2023-09-16T00:00:00	2024-11-08T13:00:00	1	Precipitación	0
7712	7	Sololá	712	San Antonio Palopó	9	San Antonio Palopo	9	Septiembre	2023-09-16T00:00:00	2024-11-08T13:00:00	8	Radiación solar	492
7713	7	Sololá	712	San Antonio Palopó	9	San Antonio Palopo	9	Septiembre	2023-09-16T00:00:00	2024-11-08T14:00:00	2	Temperatura media	26.8
7714	7	Sololá	712	San Antonio Palopó	9	San Antonio Palopo	9	Septiembre	2023-09-16T00:00:00	2024-11-08T14:00:00	4	Temperatura máxima	27.1
7715	7	Sololá	712	San Antonio Palopó	9	San Antonio Palopo	9	Septiembre	2023-09-16T00:00:00	2024-11-08T14:00:00	3	Temperatura mínima	25.4
7716	7	Sololá	712	San Antonio Palopó	9	San Antonio Palopo	9	Septiembre	2023-09-16T00:00:00	2024-11-08T14:00:00	5	Humedad	61
7717	7	Sololá	712	San Antonio Palopó	9	San Antonio Palopo	9	Septiembre	2023-09-16T00:00:00	2024-11-08T14:00:00	6	Velocidad del viento	6.4
7718	7	Sololá	712	San Antonio Palopó	9	San Antonio Palopo	9	Septiembre	2023-09-16T00:00:00	2024-11-08T14:00:00	7	Dirección del viento	6.44
7719	7	Sololá	712	San Antonio Palopó	9	San Antonio Palopo	9	Septiembre	2023-09-16T00:00:00	2024-11-08T14:00:00	1	Precipitación	0
7720	7	Sololá	712	San Antonio Palopó	9	San Antonio Palopo	9	Septiembre	2023-09-16T00:00:00	2024-11-08T14:00:00	8	Radiación solar	643
7721	7	Sololá	712	San Antonio Palopó	9	San Antonio Palopo	9	Septiembre	2023-09-16T00:00:00	2024-11-08T15:00:00	2	Temperatura media	25.1
7722	7	Sololá	712	San Antonio Palopó	9	San Antonio Palopo	9	Septiembre	2023-09-16T00:00:00	2024-11-08T15:00:00	4	Temperatura máxima	26.8
7723	7	Sololá	712	San Antonio Palopó	9	San Antonio Palopo	9	Septiembre	2023-09-16T00:00:00	2024-11-08T15:00:00	3	Temperatura mínima	24.6
7724	7	Sololá	712	San Antonio Palopó	9	San Antonio Palopo	9	Septiembre	2023-09-16T00:00:00	2024-11-08T15:00:00	5	Humedad	67
7725	7	Sololá	712	San Antonio Palopó	9	San Antonio Palopo	9	Septiembre	2023-09-16T00:00:00	2024-11-08T15:00:00	6	Velocidad del viento	16.1
7726	7	Sololá	712	San Antonio Palopó	9	San Antonio Palopo	9	Septiembre	2023-09-16T00:00:00	2024-11-08T15:00:00	7	Dirección del viento	16.09
7727	7	Sololá	712	San Antonio Palopó	9	San Antonio Palopo	9	Septiembre	2023-09-16T00:00:00	2024-11-08T15:00:00	1	Precipitación	0
7728	7	Sololá	712	San Antonio Palopó	9	San Antonio Palopo	9	Septiembre	2023-09-16T00:00:00	2024-11-08T15:00:00	8	Radiación solar	626
7729	7	Sololá	712	San Antonio Palopó	9	San Antonio Palopo	9	Septiembre	2023-09-16T00:00:00	2024-11-08T16:00:00	2	Temperatura media	25.7
7730	7	Sololá	712	San Antonio Palopó	9	San Antonio Palopo	9	Septiembre	2023-09-16T00:00:00	2024-11-08T16:00:00	4	Temperatura máxima	25.7
7731	7	Sololá	712	San Antonio Palopó	9	San Antonio Palopo	9	Septiembre	2023-09-16T00:00:00	2024-11-08T16:00:00	3	Temperatura mínima	24.7
7732	7	Sololá	712	San Antonio Palopó	9	San Antonio Palopo	9	Septiembre	2023-09-16T00:00:00	2024-11-08T16:00:00	5	Humedad	68
7733	7	Sololá	712	San Antonio Palopó	9	San Antonio Palopo	9	Septiembre	2023-09-16T00:00:00	2024-11-08T16:00:00	6	Velocidad del viento	16.1
7734	7	Sololá	712	San Antonio Palopó	9	San Antonio Palopo	9	Septiembre	2023-09-16T00:00:00	2024-11-08T16:00:00	7	Dirección del viento	16.09
7735	7	Sololá	712	San Antonio Palopó	9	San Antonio Palopo	9	Septiembre	2023-09-16T00:00:00	2024-11-08T16:00:00	1	Precipitación	0
7736	7	Sololá	712	San Antonio Palopó	9	San Antonio Palopo	9	Septiembre	2023-09-16T00:00:00	2024-11-08T16:00:00	8	Radiación solar	531
7737	7	Sololá	712	San Antonio Palopó	9	San Antonio Palopo	9	Septiembre	2023-09-16T00:00:00	2024-11-08T17:00:00	2	Temperatura media	24.8
7738	7	Sololá	712	San Antonio Palopó	9	San Antonio Palopo	9	Septiembre	2023-09-16T00:00:00	2024-11-08T17:00:00	4	Temperatura máxima	26.3
7739	7	Sololá	712	San Antonio Palopó	9	San Antonio Palopo	9	Septiembre	2023-09-16T00:00:00	2024-11-08T17:00:00	3	Temperatura mínima	23.7
7740	7	Sololá	712	San Antonio Palopó	9	San Antonio Palopo	9	Septiembre	2023-09-16T00:00:00	2024-11-08T17:00:00	5	Humedad	74
7741	7	Sololá	712	San Antonio Palopó	9	San Antonio Palopo	9	Septiembre	2023-09-16T00:00:00	2024-11-08T17:00:00	6	Velocidad del viento	6.4
7742	7	Sololá	712	San Antonio Palopó	9	San Antonio Palopo	9	Septiembre	2023-09-16T00:00:00	2024-11-08T17:00:00	7	Dirección del viento	6.44
7743	7	Sololá	712	San Antonio Palopó	9	San Antonio Palopo	9	Septiembre	2023-09-16T00:00:00	2024-11-08T17:00:00	1	Precipitación	0
7744	7	Sololá	712	San Antonio Palopó	9	San Antonio Palopo	9	Septiembre	2023-09-16T00:00:00	2024-11-08T17:00:00	8	Radiación solar	198
7745	7	Sololá	712	San Antonio Palopó	9	San Antonio Palopo	9	Septiembre	2023-09-16T00:00:00	2024-11-08T18:00:00	2	Temperatura media	22.7
7746	7	Sololá	712	San Antonio Palopó	9	San Antonio Palopo	9	Septiembre	2023-09-16T00:00:00	2024-11-08T18:00:00	4	Temperatura máxima	25.5
7747	7	Sololá	712	San Antonio Palopó	9	San Antonio Palopo	9	Septiembre	2023-09-16T00:00:00	2024-11-08T18:00:00	3	Temperatura mínima	22.7
7748	7	Sololá	712	San Antonio Palopó	9	San Antonio Palopo	9	Septiembre	2023-09-16T00:00:00	2024-11-08T18:00:00	5	Humedad	77
7749	7	Sololá	712	San Antonio Palopó	9	San Antonio Palopo	9	Septiembre	2023-09-16T00:00:00	2024-11-08T18:00:00	6	Velocidad del viento	4.8
7750	7	Sololá	712	San Antonio Palopó	9	San Antonio Palopo	9	Septiembre	2023-09-16T00:00:00	2024-11-08T18:00:00	7	Dirección del viento	4.83
7751	7	Sololá	712	San Antonio Palopó	9	San Antonio Palopo	9	Septiembre	2023-09-16T00:00:00	2024-11-08T18:00:00	1	Precipitación	0
7752	7	Sololá	712	San Antonio Palopó	9	San Antonio Palopo	9	Septiembre	2023-09-16T00:00:00	2024-11-08T18:00:00	8	Radiación solar	63
7753	7	Sololá	712	San Antonio Palopó	9	San Antonio Palopo	9	Septiembre	2023-09-16T00:00:00	2024-11-08T19:00:00	2	Temperatura media	22.6
7754	7	Sololá	712	San Antonio Palopó	9	San Antonio Palopo	9	Septiembre	2023-09-16T00:00:00	2024-11-08T19:00:00	4	Temperatura máxima	22.8
7755	7	Sololá	712	San Antonio Palopó	9	San Antonio Palopo	9	Septiembre	2023-09-16T00:00:00	2024-11-08T19:00:00	3	Temperatura mínima	22.3
7756	7	Sololá	712	San Antonio Palopó	9	San Antonio Palopo	9	Septiembre	2023-09-16T00:00:00	2024-11-08T19:00:00	5	Humedad	68
7757	7	Sololá	712	San Antonio Palopó	9	San Antonio Palopo	9	Septiembre	2023-09-16T00:00:00	2024-11-08T19:00:00	6	Velocidad del viento	4.8
7758	7	Sololá	712	San Antonio Palopó	9	San Antonio Palopo	9	Septiembre	2023-09-16T00:00:00	2024-11-08T19:00:00	7	Dirección del viento	4.83
7759	7	Sololá	712	San Antonio Palopó	9	San Antonio Palopo	9	Septiembre	2023-09-16T00:00:00	2024-11-08T19:00:00	1	Precipitación	0
7760	7	Sololá	712	San Antonio Palopó	9	San Antonio Palopo	9	Septiembre	2023-09-16T00:00:00	2024-11-08T19:00:00	8	Radiación solar	0
7761	7	Sololá	712	San Antonio Palopó	9	San Antonio Palopo	9	Septiembre	2023-09-16T00:00:00	2024-11-08T20:00:00	2	Temperatura media	22.1
7762	7	Sololá	712	San Antonio Palopó	9	San Antonio Palopo	9	Septiembre	2023-09-16T00:00:00	2024-11-08T20:00:00	4	Temperatura máxima	22.6
7763	7	Sololá	712	San Antonio Palopó	9	San Antonio Palopo	9	Septiembre	2023-09-16T00:00:00	2024-11-08T20:00:00	3	Temperatura mínima	22.1
7764	7	Sololá	712	San Antonio Palopó	9	San Antonio Palopo	9	Septiembre	2023-09-16T00:00:00	2024-11-08T20:00:00	5	Humedad	71
7765	7	Sololá	712	San Antonio Palopó	9	San Antonio Palopo	9	Septiembre	2023-09-16T00:00:00	2024-11-08T20:00:00	6	Velocidad del viento	8
7766	7	Sololá	712	San Antonio Palopó	9	San Antonio Palopo	9	Septiembre	2023-09-16T00:00:00	2024-11-08T20:00:00	7	Dirección del viento	8.05
7767	7	Sololá	712	San Antonio Palopó	9	San Antonio Palopo	9	Septiembre	2023-09-16T00:00:00	2024-11-08T20:00:00	1	Precipitación	0
7768	7	Sololá	712	San Antonio Palopó	9	San Antonio Palopo	9	Septiembre	2023-09-16T00:00:00	2024-11-08T20:00:00	8	Radiación solar	0
7769	7	Sololá	712	San Antonio Palopó	9	San Antonio Palopo	9	Septiembre	2023-09-16T00:00:00	2024-11-08T21:00:00	2	Temperatura media	21.5
7770	7	Sololá	712	San Antonio Palopó	9	San Antonio Palopo	9	Septiembre	2023-09-16T00:00:00	2024-11-08T21:00:00	4	Temperatura máxima	22
7771	7	Sololá	712	San Antonio Palopó	9	San Antonio Palopo	9	Septiembre	2023-09-16T00:00:00	2024-11-08T21:00:00	3	Temperatura mínima	21.5
7772	7	Sololá	712	San Antonio Palopó	9	San Antonio Palopo	9	Septiembre	2023-09-16T00:00:00	2024-11-08T21:00:00	5	Humedad	72
7773	7	Sololá	712	San Antonio Palopó	9	San Antonio Palopo	9	Septiembre	2023-09-16T00:00:00	2024-11-08T21:00:00	6	Velocidad del viento	6.4
7774	7	Sololá	712	San Antonio Palopó	9	San Antonio Palopo	9	Septiembre	2023-09-16T00:00:00	2024-11-08T21:00:00	7	Dirección del viento	6.44
7775	7	Sololá	712	San Antonio Palopó	9	San Antonio Palopo	9	Septiembre	2023-09-16T00:00:00	2024-11-08T21:00:00	1	Precipitación	0
7776	7	Sololá	712	San Antonio Palopó	9	San Antonio Palopo	9	Septiembre	2023-09-16T00:00:00	2024-11-08T21:00:00	8	Radiación solar	0
7777	7	Sololá	712	San Antonio Palopó	9	San Antonio Palopo	9	Septiembre	2023-09-16T00:00:00	2024-11-08T22:00:00	2	Temperatura media	21.3
7778	7	Sololá	712	San Antonio Palopó	9	San Antonio Palopo	9	Septiembre	2023-09-16T00:00:00	2024-11-08T22:00:00	4	Temperatura máxima	21.6
7779	7	Sololá	712	San Antonio Palopó	9	San Antonio Palopo	9	Septiembre	2023-09-16T00:00:00	2024-11-08T22:00:00	3	Temperatura mínima	21.2
7780	7	Sololá	712	San Antonio Palopó	9	San Antonio Palopo	9	Septiembre	2023-09-16T00:00:00	2024-11-08T22:00:00	5	Humedad	70
7781	7	Sololá	712	San Antonio Palopó	9	San Antonio Palopo	9	Septiembre	2023-09-16T00:00:00	2024-11-08T22:00:00	6	Velocidad del viento	8
7782	7	Sololá	712	San Antonio Palopó	9	San Antonio Palopo	9	Septiembre	2023-09-16T00:00:00	2024-11-08T22:00:00	7	Dirección del viento	8.05
7783	7	Sololá	712	San Antonio Palopó	9	San Antonio Palopo	9	Septiembre	2023-09-16T00:00:00	2024-11-08T22:00:00	1	Precipitación	0
7784	7	Sololá	712	San Antonio Palopó	9	San Antonio Palopo	9	Septiembre	2023-09-16T00:00:00	2024-11-08T22:00:00	8	Radiación solar	0
7785	7	Sololá	712	San Antonio Palopó	9	San Antonio Palopo	9	Septiembre	2023-09-16T00:00:00	2024-11-08T23:00:00	2	Temperatura media	20.7
7786	7	Sololá	712	San Antonio Palopó	9	San Antonio Palopo	9	Septiembre	2023-09-16T00:00:00	2024-11-08T23:00:00	4	Temperatura máxima	21.3
7787	7	Sololá	712	San Antonio Palopó	9	San Antonio Palopo	9	Septiembre	2023-09-16T00:00:00	2024-11-08T23:00:00	3	Temperatura mínima	20.7
7788	7	Sololá	712	San Antonio Palopó	9	San Antonio Palopo	9	Septiembre	2023-09-16T00:00:00	2024-11-08T23:00:00	5	Humedad	71
7789	7	Sololá	712	San Antonio Palopó	9	San Antonio Palopo	9	Septiembre	2023-09-16T00:00:00	2024-11-08T23:00:00	6	Velocidad del viento	11.3
7790	7	Sololá	712	San Antonio Palopó	9	San Antonio Palopo	9	Septiembre	2023-09-16T00:00:00	2024-11-08T23:00:00	7	Dirección del viento	11.27
7791	7	Sololá	712	San Antonio Palopó	9	San Antonio Palopo	9	Septiembre	2023-09-16T00:00:00	2024-11-08T23:00:00	1	Precipitación	0
7792	7	Sololá	712	San Antonio Palopó	9	San Antonio Palopo	9	Septiembre	2023-09-16T00:00:00	2024-11-08T23:00:00	8	Radiación solar	0
7793	7	Sololá	712	San Antonio Palopó	9	San Antonio Palopo	9	Septiembre	2023-09-17T00:00:00	2024-11-08T00:00:00	2	Temperatura media	20.4
7794	7	Sololá	712	San Antonio Palopó	9	San Antonio Palopo	9	Septiembre	2023-09-17T00:00:00	2024-11-08T00:00:00	4	Temperatura máxima	20.8
7795	7	Sololá	712	San Antonio Palopó	9	San Antonio Palopo	9	Septiembre	2023-09-17T00:00:00	2024-11-08T00:00:00	3	Temperatura mínima	20.3
7796	7	Sololá	712	San Antonio Palopó	9	San Antonio Palopo	9	Septiembre	2023-09-17T00:00:00	2024-11-08T00:00:00	5	Humedad	69
7797	7	Sololá	712	San Antonio Palopó	9	San Antonio Palopo	9	Septiembre	2023-09-17T00:00:00	2024-11-08T00:00:00	6	Velocidad del viento	12.9
7798	7	Sololá	712	San Antonio Palopó	9	San Antonio Palopo	9	Septiembre	2023-09-17T00:00:00	2024-11-08T00:00:00	7	Dirección del viento	12.87
7799	7	Sololá	712	San Antonio Palopó	9	San Antonio Palopo	9	Septiembre	2023-09-17T00:00:00	2024-11-08T00:00:00	1	Precipitación	0
7800	7	Sololá	712	San Antonio Palopó	9	San Antonio Palopo	9	Septiembre	2023-09-17T00:00:00	2024-11-08T00:00:00	8	Radiación solar	0
7801	7	Sololá	712	San Antonio Palopó	9	San Antonio Palopo	9	Septiembre	2023-09-17T00:00:00	2024-11-08T01:00:00	2	Temperatura media	20
7802	7	Sololá	712	San Antonio Palopó	9	San Antonio Palopo	9	Septiembre	2023-09-17T00:00:00	2024-11-08T01:00:00	4	Temperatura máxima	20.6
7803	7	Sololá	712	San Antonio Palopó	9	San Antonio Palopo	9	Septiembre	2023-09-17T00:00:00	2024-11-08T01:00:00	3	Temperatura mínima	19.8
7804	7	Sololá	712	San Antonio Palopó	9	San Antonio Palopo	9	Septiembre	2023-09-17T00:00:00	2024-11-08T01:00:00	5	Humedad	69
7805	7	Sololá	712	San Antonio Palopó	9	San Antonio Palopo	9	Septiembre	2023-09-17T00:00:00	2024-11-08T01:00:00	6	Velocidad del viento	9.7
7806	7	Sololá	712	San Antonio Palopó	9	San Antonio Palopo	9	Septiembre	2023-09-17T00:00:00	2024-11-08T01:00:00	7	Dirección del viento	9.66
7807	7	Sololá	712	San Antonio Palopó	9	San Antonio Palopo	9	Septiembre	2023-09-17T00:00:00	2024-11-08T01:00:00	1	Precipitación	0
7808	7	Sololá	712	San Antonio Palopó	9	San Antonio Palopo	9	Septiembre	2023-09-17T00:00:00	2024-11-08T01:00:00	8	Radiación solar	0
7809	7	Sololá	712	San Antonio Palopó	9	San Antonio Palopo	9	Septiembre	2023-09-17T00:00:00	2024-11-08T02:00:00	2	Temperatura media	19.1
7810	7	Sololá	712	San Antonio Palopó	9	San Antonio Palopo	9	Septiembre	2023-09-17T00:00:00	2024-11-08T02:00:00	4	Temperatura máxima	20.1
7811	7	Sololá	712	San Antonio Palopó	9	San Antonio Palopo	9	Septiembre	2023-09-17T00:00:00	2024-11-08T02:00:00	3	Temperatura mínima	19.1
7812	7	Sololá	712	San Antonio Palopó	9	San Antonio Palopo	9	Septiembre	2023-09-17T00:00:00	2024-11-08T02:00:00	5	Humedad	72
7813	7	Sololá	712	San Antonio Palopó	9	San Antonio Palopo	9	Septiembre	2023-09-17T00:00:00	2024-11-08T02:00:00	6	Velocidad del viento	9.7
7814	7	Sololá	712	San Antonio Palopó	9	San Antonio Palopo	9	Septiembre	2023-09-17T00:00:00	2024-11-08T02:00:00	7	Dirección del viento	9.66
7815	7	Sololá	712	San Antonio Palopó	9	San Antonio Palopo	9	Septiembre	2023-09-17T00:00:00	2024-11-08T02:00:00	1	Precipitación	0
7816	7	Sololá	712	San Antonio Palopó	9	San Antonio Palopo	9	Septiembre	2023-09-17T00:00:00	2024-11-08T02:00:00	8	Radiación solar	0
7817	7	Sololá	712	San Antonio Palopó	9	San Antonio Palopo	9	Septiembre	2023-09-17T00:00:00	2024-11-08T03:00:00	2	Temperatura media	18.8
7818	7	Sololá	712	San Antonio Palopó	9	San Antonio Palopo	9	Septiembre	2023-09-17T00:00:00	2024-11-08T03:00:00	4	Temperatura máxima	19.2
7819	7	Sololá	712	San Antonio Palopó	9	San Antonio Palopo	9	Septiembre	2023-09-17T00:00:00	2024-11-08T03:00:00	3	Temperatura mínima	18.8
7820	7	Sololá	712	San Antonio Palopó	9	San Antonio Palopo	9	Septiembre	2023-09-17T00:00:00	2024-11-08T03:00:00	5	Humedad	72
7821	7	Sololá	712	San Antonio Palopó	9	San Antonio Palopo	9	Septiembre	2023-09-17T00:00:00	2024-11-08T03:00:00	6	Velocidad del viento	14.5
7822	7	Sololá	712	San Antonio Palopó	9	San Antonio Palopo	9	Septiembre	2023-09-17T00:00:00	2024-11-08T03:00:00	7	Dirección del viento	14.48
7823	7	Sololá	712	San Antonio Palopó	9	San Antonio Palopo	9	Septiembre	2023-09-17T00:00:00	2024-11-08T03:00:00	1	Precipitación	0
7824	7	Sololá	712	San Antonio Palopó	9	San Antonio Palopo	9	Septiembre	2023-09-17T00:00:00	2024-11-08T03:00:00	8	Radiación solar	0
7825	7	Sololá	712	San Antonio Palopó	9	San Antonio Palopo	9	Septiembre	2023-09-17T00:00:00	2024-11-08T04:00:00	2	Temperatura media	18.4
7826	7	Sololá	712	San Antonio Palopó	9	San Antonio Palopo	9	Septiembre	2023-09-17T00:00:00	2024-11-08T04:00:00	4	Temperatura máxima	18.8
7827	7	Sololá	712	San Antonio Palopó	9	San Antonio Palopo	9	Septiembre	2023-09-17T00:00:00	2024-11-08T04:00:00	3	Temperatura mínima	18.3
7828	7	Sololá	712	San Antonio Palopó	9	San Antonio Palopo	9	Septiembre	2023-09-17T00:00:00	2024-11-08T04:00:00	5	Humedad	71
7829	7	Sololá	712	San Antonio Palopó	9	San Antonio Palopo	9	Septiembre	2023-09-17T00:00:00	2024-11-08T04:00:00	6	Velocidad del viento	11.3
7830	7	Sololá	712	San Antonio Palopó	9	San Antonio Palopo	9	Septiembre	2023-09-17T00:00:00	2024-11-08T04:00:00	7	Dirección del viento	11.27
7831	7	Sololá	712	San Antonio Palopó	9	San Antonio Palopo	9	Septiembre	2023-09-17T00:00:00	2024-11-08T04:00:00	1	Precipitación	0
7832	7	Sololá	712	San Antonio Palopó	9	San Antonio Palopo	9	Septiembre	2023-09-17T00:00:00	2024-11-08T04:00:00	8	Radiación solar	0
7833	7	Sololá	712	San Antonio Palopó	9	San Antonio Palopo	9	Septiembre	2023-09-17T00:00:00	2024-11-08T05:00:00	2	Temperatura media	18.2
7834	7	Sololá	712	San Antonio Palopó	9	San Antonio Palopo	9	Septiembre	2023-09-17T00:00:00	2024-11-08T05:00:00	4	Temperatura máxima	18.9
7835	7	Sololá	712	San Antonio Palopó	9	San Antonio Palopo	9	Septiembre	2023-09-17T00:00:00	2024-11-08T05:00:00	3	Temperatura mínima	18.1
7836	7	Sololá	712	San Antonio Palopó	9	San Antonio Palopo	9	Septiembre	2023-09-17T00:00:00	2024-11-08T05:00:00	5	Humedad	69
7837	7	Sololá	712	San Antonio Palopó	9	San Antonio Palopo	9	Septiembre	2023-09-17T00:00:00	2024-11-08T05:00:00	6	Velocidad del viento	9.7
7838	7	Sololá	712	San Antonio Palopó	9	San Antonio Palopo	9	Septiembre	2023-09-17T00:00:00	2024-11-08T05:00:00	7	Dirección del viento	9.66
7839	7	Sololá	712	San Antonio Palopó	9	San Antonio Palopo	9	Septiembre	2023-09-17T00:00:00	2024-11-08T05:00:00	1	Precipitación	0
7840	7	Sololá	712	San Antonio Palopó	9	San Antonio Palopo	9	Septiembre	2023-09-17T00:00:00	2024-11-08T05:00:00	8	Radiación solar	0
7841	7	Sololá	712	San Antonio Palopó	9	San Antonio Palopo	9	Septiembre	2023-09-17T00:00:00	2024-11-08T06:00:00	2	Temperatura media	17.6
7842	7	Sololá	712	San Antonio Palopó	9	San Antonio Palopo	9	Septiembre	2023-09-17T00:00:00	2024-11-08T06:00:00	4	Temperatura máxima	18.9
7843	7	Sololá	712	San Antonio Palopó	9	San Antonio Palopo	9	Septiembre	2023-09-17T00:00:00	2024-11-08T06:00:00	3	Temperatura mínima	17.6
7844	7	Sololá	712	San Antonio Palopó	9	San Antonio Palopo	9	Septiembre	2023-09-17T00:00:00	2024-11-08T06:00:00	5	Humedad	71
7845	7	Sololá	712	San Antonio Palopó	9	San Antonio Palopo	9	Septiembre	2023-09-17T00:00:00	2024-11-08T06:00:00	6	Velocidad del viento	12.9
7846	7	Sololá	712	San Antonio Palopó	9	San Antonio Palopo	9	Septiembre	2023-09-17T00:00:00	2024-11-08T06:00:00	7	Dirección del viento	12.87
7847	7	Sololá	712	San Antonio Palopó	9	San Antonio Palopo	9	Septiembre	2023-09-17T00:00:00	2024-11-08T06:00:00	1	Precipitación	0
7848	7	Sololá	712	San Antonio Palopó	9	San Antonio Palopo	9	Septiembre	2023-09-17T00:00:00	2024-11-08T06:00:00	8	Radiación solar	0
7849	7	Sololá	712	San Antonio Palopó	9	San Antonio Palopo	9	Septiembre	2023-09-17T00:00:00	2024-11-08T07:00:00	2	Temperatura media	18.6
7850	7	Sololá	712	San Antonio Palopó	9	San Antonio Palopo	9	Septiembre	2023-09-17T00:00:00	2024-11-08T07:00:00	4	Temperatura máxima	18.7
7851	7	Sololá	712	San Antonio Palopó	9	San Antonio Palopo	9	Septiembre	2023-09-17T00:00:00	2024-11-08T07:00:00	3	Temperatura mínima	17.6
7852	7	Sololá	712	San Antonio Palopó	9	San Antonio Palopo	9	Septiembre	2023-09-17T00:00:00	2024-11-08T07:00:00	5	Humedad	68
7853	7	Sololá	712	San Antonio Palopó	9	San Antonio Palopo	9	Septiembre	2023-09-17T00:00:00	2024-11-08T07:00:00	6	Velocidad del viento	12.9
7854	7	Sololá	712	San Antonio Palopó	9	San Antonio Palopo	9	Septiembre	2023-09-17T00:00:00	2024-11-08T07:00:00	7	Dirección del viento	12.87
7855	7	Sololá	712	San Antonio Palopó	9	San Antonio Palopo	9	Septiembre	2023-09-17T00:00:00	2024-11-08T07:00:00	1	Precipitación	0
7856	7	Sololá	712	San Antonio Palopó	9	San Antonio Palopo	9	Septiembre	2023-09-17T00:00:00	2024-11-08T07:00:00	8	Radiación solar	24
7857	7	Sololá	712	San Antonio Palopó	9	San Antonio Palopo	9	Septiembre	2023-09-17T00:00:00	2024-11-08T08:00:00	2	Temperatura media	20.2
7858	7	Sololá	712	San Antonio Palopó	9	San Antonio Palopo	9	Septiembre	2023-09-17T00:00:00	2024-11-08T08:00:00	4	Temperatura máxima	20.2
7859	7	Sololá	712	San Antonio Palopó	9	San Antonio Palopo	9	Septiembre	2023-09-17T00:00:00	2024-11-08T08:00:00	3	Temperatura mínima	18.3
7860	7	Sololá	712	San Antonio Palopó	9	San Antonio Palopo	9	Septiembre	2023-09-17T00:00:00	2024-11-08T08:00:00	5	Humedad	66
7861	7	Sololá	712	San Antonio Palopó	9	San Antonio Palopo	9	Septiembre	2023-09-17T00:00:00	2024-11-08T08:00:00	6	Velocidad del viento	8
7862	7	Sololá	712	San Antonio Palopó	9	San Antonio Palopo	9	Septiembre	2023-09-17T00:00:00	2024-11-08T08:00:00	7	Dirección del viento	8.05
7863	7	Sololá	712	San Antonio Palopó	9	San Antonio Palopo	9	Septiembre	2023-09-17T00:00:00	2024-11-08T08:00:00	1	Precipitación	0
7864	7	Sololá	712	San Antonio Palopó	9	San Antonio Palopo	9	Septiembre	2023-09-17T00:00:00	2024-11-08T08:00:00	8	Radiación solar	104
7865	7	Sololá	712	San Antonio Palopó	9	San Antonio Palopo	9	Septiembre	2023-09-17T00:00:00	2024-11-08T09:00:00	2	Temperatura media	22.6
7866	7	Sololá	712	San Antonio Palopó	9	San Antonio Palopo	9	Septiembre	2023-09-17T00:00:00	2024-11-08T09:00:00	4	Temperatura máxima	22.6
7867	7	Sololá	712	San Antonio Palopó	9	San Antonio Palopo	9	Septiembre	2023-09-17T00:00:00	2024-11-08T09:00:00	3	Temperatura mínima	20.2
7868	7	Sololá	712	San Antonio Palopó	9	San Antonio Palopo	9	Septiembre	2023-09-17T00:00:00	2024-11-08T09:00:00	5	Humedad	62
7869	7	Sololá	712	San Antonio Palopó	9	San Antonio Palopo	9	Septiembre	2023-09-17T00:00:00	2024-11-08T09:00:00	6	Velocidad del viento	3.2
7870	7	Sololá	712	San Antonio Palopó	9	San Antonio Palopo	9	Septiembre	2023-09-17T00:00:00	2024-11-08T09:00:00	7	Dirección del viento	3.22
7871	7	Sololá	712	San Antonio Palopó	9	San Antonio Palopo	9	Septiembre	2023-09-17T00:00:00	2024-11-08T09:00:00	1	Precipitación	0
7872	7	Sololá	712	San Antonio Palopó	9	San Antonio Palopo	9	Septiembre	2023-09-17T00:00:00	2024-11-08T09:00:00	8	Radiación solar	364
7873	7	Sololá	712	San Antonio Palopó	9	San Antonio Palopo	9	Septiembre	2023-09-17T00:00:00	2024-11-08T10:00:00	2	Temperatura media	23.2
7874	7	Sololá	712	San Antonio Palopó	9	San Antonio Palopo	9	Septiembre	2023-09-17T00:00:00	2024-11-08T10:00:00	4	Temperatura máxima	23.2
7875	7	Sololá	712	San Antonio Palopó	9	San Antonio Palopo	9	Septiembre	2023-09-17T00:00:00	2024-11-08T10:00:00	3	Temperatura mínima	22.4
7876	7	Sololá	712	San Antonio Palopó	9	San Antonio Palopo	9	Septiembre	2023-09-17T00:00:00	2024-11-08T10:00:00	5	Humedad	61
7877	7	Sololá	712	San Antonio Palopó	9	San Antonio Palopo	9	Septiembre	2023-09-17T00:00:00	2024-11-08T10:00:00	6	Velocidad del viento	6.4
7878	7	Sololá	712	San Antonio Palopó	9	San Antonio Palopo	9	Septiembre	2023-09-17T00:00:00	2024-11-08T10:00:00	7	Dirección del viento	6.44
7879	7	Sololá	712	San Antonio Palopó	9	San Antonio Palopo	9	Septiembre	2023-09-17T00:00:00	2024-11-08T10:00:00	1	Precipitación	0
7880	7	Sololá	712	San Antonio Palopó	9	San Antonio Palopo	9	Septiembre	2023-09-17T00:00:00	2024-11-08T10:00:00	8	Radiación solar	596
7881	7	Sololá	712	San Antonio Palopó	9	San Antonio Palopo	9	Septiembre	2023-09-17T00:00:00	2024-11-08T11:00:00	2	Temperatura media	23.6
7882	7	Sololá	712	San Antonio Palopó	9	San Antonio Palopo	9	Septiembre	2023-09-17T00:00:00	2024-11-08T11:00:00	4	Temperatura máxima	23.8
7883	7	Sololá	712	San Antonio Palopó	9	San Antonio Palopo	9	Septiembre	2023-09-17T00:00:00	2024-11-08T11:00:00	3	Temperatura mínima	23.1
7884	7	Sololá	712	San Antonio Palopó	9	San Antonio Palopo	9	Septiembre	2023-09-17T00:00:00	2024-11-08T11:00:00	5	Humedad	64
7885	7	Sololá	712	San Antonio Palopó	9	San Antonio Palopo	9	Septiembre	2023-09-17T00:00:00	2024-11-08T11:00:00	6	Velocidad del viento	4.8
7886	7	Sololá	712	San Antonio Palopó	9	San Antonio Palopo	9	Septiembre	2023-09-17T00:00:00	2024-11-08T11:00:00	7	Dirección del viento	4.83
7887	7	Sololá	712	San Antonio Palopó	9	San Antonio Palopo	9	Septiembre	2023-09-17T00:00:00	2024-11-08T11:00:00	1	Precipitación	0
7888	7	Sololá	712	San Antonio Palopó	9	San Antonio Palopo	9	Septiembre	2023-09-17T00:00:00	2024-11-08T11:00:00	8	Radiación solar	862
7889	7	Sololá	712	San Antonio Palopó	9	San Antonio Palopo	9	Septiembre	2023-09-17T00:00:00	2024-11-08T12:00:00	2	Temperatura media	23.6
7890	7	Sololá	712	San Antonio Palopó	9	San Antonio Palopo	9	Septiembre	2023-09-17T00:00:00	2024-11-08T12:00:00	4	Temperatura máxima	24.1
7891	7	Sololá	712	San Antonio Palopó	9	San Antonio Palopo	9	Septiembre	2023-09-17T00:00:00	2024-11-08T12:00:00	3	Temperatura mínima	23.4
7892	7	Sololá	712	San Antonio Palopó	9	San Antonio Palopo	9	Septiembre	2023-09-17T00:00:00	2024-11-08T12:00:00	5	Humedad	66
7893	7	Sololá	712	San Antonio Palopó	9	San Antonio Palopo	9	Septiembre	2023-09-17T00:00:00	2024-11-08T12:00:00	6	Velocidad del viento	4.8
7894	7	Sololá	712	San Antonio Palopó	9	San Antonio Palopo	9	Septiembre	2023-09-17T00:00:00	2024-11-08T12:00:00	7	Dirección del viento	4.83
7895	7	Sololá	712	San Antonio Palopó	9	San Antonio Palopo	9	Septiembre	2023-09-17T00:00:00	2024-11-08T12:00:00	1	Precipitación	0
7896	7	Sololá	712	San Antonio Palopó	9	San Antonio Palopo	9	Septiembre	2023-09-17T00:00:00	2024-11-08T12:00:00	8	Radiación solar	904
7897	7	Sololá	712	San Antonio Palopó	9	San Antonio Palopo	9	Septiembre	2023-09-17T00:00:00	2024-11-08T13:00:00	2	Temperatura media	24.6
7898	7	Sololá	712	San Antonio Palopó	9	San Antonio Palopo	9	Septiembre	2023-09-17T00:00:00	2024-11-08T13:00:00	4	Temperatura máxima	25
7899	7	Sololá	712	San Antonio Palopó	9	San Antonio Palopo	9	Septiembre	2023-09-17T00:00:00	2024-11-08T13:00:00	3	Temperatura mínima	23.6
7900	7	Sololá	712	San Antonio Palopó	9	San Antonio Palopo	9	Septiembre	2023-09-17T00:00:00	2024-11-08T13:00:00	5	Humedad	70
7901	7	Sololá	712	San Antonio Palopó	9	San Antonio Palopo	9	Septiembre	2023-09-17T00:00:00	2024-11-08T13:00:00	6	Velocidad del viento	4.8
7902	7	Sololá	712	San Antonio Palopó	9	San Antonio Palopo	9	Septiembre	2023-09-17T00:00:00	2024-11-08T13:00:00	7	Dirección del viento	4.83
7903	7	Sololá	712	San Antonio Palopó	9	San Antonio Palopo	9	Septiembre	2023-09-17T00:00:00	2024-11-08T13:00:00	1	Precipitación	0
7904	7	Sololá	712	San Antonio Palopó	9	San Antonio Palopo	9	Septiembre	2023-09-17T00:00:00	2024-11-08T13:00:00	8	Radiación solar	666
7905	7	Sololá	712	San Antonio Palopó	9	San Antonio Palopo	9	Septiembre	2023-09-17T00:00:00	2024-11-08T14:00:00	2	Temperatura media	25.3
7906	7	Sololá	712	San Antonio Palopó	9	San Antonio Palopo	9	Septiembre	2023-09-17T00:00:00	2024-11-08T14:00:00	4	Temperatura máxima	25.4
7907	7	Sololá	712	San Antonio Palopó	9	San Antonio Palopo	9	Septiembre	2023-09-17T00:00:00	2024-11-08T14:00:00	3	Temperatura mínima	24.3
7908	7	Sololá	712	San Antonio Palopó	9	San Antonio Palopo	9	Septiembre	2023-09-17T00:00:00	2024-11-08T14:00:00	5	Humedad	69
7909	7	Sololá	712	San Antonio Palopó	9	San Antonio Palopo	9	Septiembre	2023-09-17T00:00:00	2024-11-08T14:00:00	6	Velocidad del viento	6.4
7910	7	Sololá	712	San Antonio Palopó	9	San Antonio Palopo	9	Septiembre	2023-09-17T00:00:00	2024-11-08T14:00:00	7	Dirección del viento	6.44
7911	7	Sololá	712	San Antonio Palopó	9	San Antonio Palopo	9	Septiembre	2023-09-17T00:00:00	2024-11-08T14:00:00	1	Precipitación	0
7912	7	Sololá	712	San Antonio Palopó	9	San Antonio Palopo	9	Septiembre	2023-09-17T00:00:00	2024-11-08T14:00:00	8	Radiación solar	828
7913	7	Sololá	712	San Antonio Palopó	9	San Antonio Palopo	9	Septiembre	2023-09-17T00:00:00	2024-11-08T15:00:00	2	Temperatura media	25.2
7914	7	Sololá	712	San Antonio Palopó	9	San Antonio Palopo	9	Septiembre	2023-09-17T00:00:00	2024-11-08T15:00:00	4	Temperatura máxima	26.3
7915	7	Sololá	712	San Antonio Palopó	9	San Antonio Palopo	9	Septiembre	2023-09-17T00:00:00	2024-11-08T15:00:00	3	Temperatura mínima	25
7916	7	Sololá	712	San Antonio Palopó	9	San Antonio Palopo	9	Septiembre	2023-09-17T00:00:00	2024-11-08T15:00:00	5	Humedad	68
7917	7	Sololá	712	San Antonio Palopó	9	San Antonio Palopo	9	Septiembre	2023-09-17T00:00:00	2024-11-08T15:00:00	6	Velocidad del viento	4.8
7918	7	Sololá	712	San Antonio Palopó	9	San Antonio Palopo	9	Septiembre	2023-09-17T00:00:00	2024-11-08T15:00:00	7	Dirección del viento	4.83
7919	7	Sololá	712	San Antonio Palopó	9	San Antonio Palopo	9	Septiembre	2023-09-17T00:00:00	2024-11-08T15:00:00	1	Precipitación	0
7920	7	Sololá	712	San Antonio Palopó	9	San Antonio Palopo	9	Septiembre	2023-09-17T00:00:00	2024-11-08T15:00:00	8	Radiación solar	713
7921	7	Sololá	712	San Antonio Palopó	9	San Antonio Palopo	9	Septiembre	2023-09-17T00:00:00	2024-11-08T16:00:00	2	Temperatura media	26.1
7922	7	Sololá	712	San Antonio Palopó	9	San Antonio Palopo	9	Septiembre	2023-09-17T00:00:00	2024-11-08T16:00:00	4	Temperatura máxima	26.2
7923	7	Sololá	712	San Antonio Palopó	9	San Antonio Palopo	9	Septiembre	2023-09-17T00:00:00	2024-11-08T16:00:00	3	Temperatura mínima	24.9
7924	7	Sololá	712	San Antonio Palopó	9	San Antonio Palopo	9	Septiembre	2023-09-17T00:00:00	2024-11-08T16:00:00	5	Humedad	71
7925	7	Sololá	712	San Antonio Palopó	9	San Antonio Palopo	9	Septiembre	2023-09-17T00:00:00	2024-11-08T16:00:00	6	Velocidad del viento	4.8
7926	7	Sololá	712	San Antonio Palopó	9	San Antonio Palopo	9	Septiembre	2023-09-17T00:00:00	2024-11-08T16:00:00	7	Dirección del viento	4.83
7927	7	Sololá	712	San Antonio Palopó	9	San Antonio Palopo	9	Septiembre	2023-09-17T00:00:00	2024-11-08T16:00:00	1	Precipitación	0
7928	7	Sololá	712	San Antonio Palopó	9	San Antonio Palopo	9	Septiembre	2023-09-17T00:00:00	2024-11-08T16:00:00	8	Radiación solar	557
7929	7	Sololá	712	San Antonio Palopó	9	San Antonio Palopo	9	Septiembre	2023-09-17T00:00:00	2024-11-08T17:00:00	2	Temperatura media	25.1
7930	7	Sololá	712	San Antonio Palopó	9	San Antonio Palopo	9	Septiembre	2023-09-17T00:00:00	2024-11-08T17:00:00	4	Temperatura máxima	26.2
7931	7	Sololá	712	San Antonio Palopó	9	San Antonio Palopo	9	Septiembre	2023-09-17T00:00:00	2024-11-08T17:00:00	3	Temperatura mínima	25.1
7932	7	Sololá	712	San Antonio Palopó	9	San Antonio Palopo	9	Septiembre	2023-09-17T00:00:00	2024-11-08T17:00:00	5	Humedad	73
7933	7	Sololá	712	San Antonio Palopó	9	San Antonio Palopo	9	Septiembre	2023-09-17T00:00:00	2024-11-08T17:00:00	6	Velocidad del viento	6.4
7934	7	Sololá	712	San Antonio Palopó	9	San Antonio Palopo	9	Septiembre	2023-09-17T00:00:00	2024-11-08T17:00:00	7	Dirección del viento	6.44
7935	7	Sololá	712	San Antonio Palopó	9	San Antonio Palopo	9	Septiembre	2023-09-17T00:00:00	2024-11-08T17:00:00	1	Precipitación	0
7936	7	Sololá	712	San Antonio Palopó	9	San Antonio Palopo	9	Septiembre	2023-09-17T00:00:00	2024-11-08T17:00:00	8	Radiación solar	298
7937	7	Sololá	712	San Antonio Palopó	9	San Antonio Palopo	9	Septiembre	2023-09-17T00:00:00	2024-11-08T18:00:00	2	Temperatura media	22.8
7938	7	Sololá	712	San Antonio Palopó	9	San Antonio Palopo	9	Septiembre	2023-09-17T00:00:00	2024-11-08T18:00:00	4	Temperatura máxima	25.2
7939	7	Sololá	712	San Antonio Palopó	9	San Antonio Palopo	9	Septiembre	2023-09-17T00:00:00	2024-11-08T18:00:00	3	Temperatura mínima	22.8
7940	7	Sololá	712	San Antonio Palopó	9	San Antonio Palopo	9	Septiembre	2023-09-17T00:00:00	2024-11-08T18:00:00	5	Humedad	78
7941	7	Sololá	712	San Antonio Palopó	9	San Antonio Palopo	9	Septiembre	2023-09-17T00:00:00	2024-11-08T18:00:00	6	Velocidad del viento	4.8
7942	7	Sololá	712	San Antonio Palopó	9	San Antonio Palopo	9	Septiembre	2023-09-17T00:00:00	2024-11-08T18:00:00	7	Dirección del viento	4.83
7943	7	Sololá	712	San Antonio Palopó	9	San Antonio Palopo	9	Septiembre	2023-09-17T00:00:00	2024-11-08T18:00:00	1	Precipitación	0
7944	7	Sololá	712	San Antonio Palopó	9	San Antonio Palopo	9	Septiembre	2023-09-17T00:00:00	2024-11-08T18:00:00	8	Radiación solar	58
7945	7	Sololá	712	San Antonio Palopó	9	San Antonio Palopo	9	Septiembre	2023-09-17T00:00:00	2024-11-08T19:00:00	2	Temperatura media	21.7
7946	7	Sololá	712	San Antonio Palopó	9	San Antonio Palopo	9	Septiembre	2023-09-17T00:00:00	2024-11-08T19:00:00	4	Temperatura máxima	22.8
7947	7	Sololá	712	San Antonio Palopó	9	San Antonio Palopo	9	Septiembre	2023-09-17T00:00:00	2024-11-08T19:00:00	3	Temperatura mínima	21.7
7948	7	Sololá	712	San Antonio Palopó	9	San Antonio Palopo	9	Septiembre	2023-09-17T00:00:00	2024-11-08T19:00:00	5	Humedad	80
7949	7	Sololá	712	San Antonio Palopó	9	San Antonio Palopo	9	Septiembre	2023-09-17T00:00:00	2024-11-08T19:00:00	6	Velocidad del viento	4.8
7950	7	Sololá	712	San Antonio Palopó	9	San Antonio Palopo	9	Septiembre	2023-09-17T00:00:00	2024-11-08T19:00:00	7	Dirección del viento	4.83
7951	7	Sololá	712	San Antonio Palopó	9	San Antonio Palopo	9	Septiembre	2023-09-17T00:00:00	2024-11-08T19:00:00	1	Precipitación	0
7952	7	Sololá	712	San Antonio Palopó	9	San Antonio Palopo	9	Septiembre	2023-09-17T00:00:00	2024-11-08T19:00:00	8	Radiación solar	0
7953	7	Sololá	712	San Antonio Palopó	9	San Antonio Palopo	9	Septiembre	2023-09-17T00:00:00	2024-11-08T20:00:00	2	Temperatura media	21.2
7954	7	Sololá	712	San Antonio Palopó	9	San Antonio Palopo	9	Septiembre	2023-09-17T00:00:00	2024-11-08T20:00:00	4	Temperatura máxima	21.7
7955	7	Sololá	712	San Antonio Palopó	9	San Antonio Palopo	9	Septiembre	2023-09-17T00:00:00	2024-11-08T20:00:00	3	Temperatura mínima	21.2
7956	7	Sololá	712	San Antonio Palopó	9	San Antonio Palopo	9	Septiembre	2023-09-17T00:00:00	2024-11-08T20:00:00	5	Humedad	77
7957	7	Sololá	712	San Antonio Palopó	9	San Antonio Palopo	9	Septiembre	2023-09-17T00:00:00	2024-11-08T20:00:00	6	Velocidad del viento	3.2
7958	7	Sololá	712	San Antonio Palopó	9	San Antonio Palopo	9	Septiembre	2023-09-17T00:00:00	2024-11-08T20:00:00	7	Dirección del viento	3.22
7959	7	Sololá	712	San Antonio Palopó	9	San Antonio Palopo	9	Septiembre	2023-09-17T00:00:00	2024-11-08T20:00:00	1	Precipitación	0
7960	7	Sololá	712	San Antonio Palopó	9	San Antonio Palopo	9	Septiembre	2023-09-17T00:00:00	2024-11-08T20:00:00	8	Radiación solar	0
7961	7	Sololá	712	San Antonio Palopó	9	San Antonio Palopo	9	Septiembre	2023-09-17T00:00:00	2024-11-08T21:00:00	2	Temperatura media	21.3
7962	7	Sololá	712	San Antonio Palopó	9	San Antonio Palopo	9	Septiembre	2023-09-17T00:00:00	2024-11-08T21:00:00	4	Temperatura máxima	21.7
7963	7	Sololá	712	San Antonio Palopó	9	San Antonio Palopo	9	Septiembre	2023-09-17T00:00:00	2024-11-08T21:00:00	3	Temperatura mínima	21
7964	7	Sololá	712	San Antonio Palopó	9	San Antonio Palopo	9	Septiembre	2023-09-17T00:00:00	2024-11-08T21:00:00	5	Humedad	76
7965	7	Sololá	712	San Antonio Palopó	9	San Antonio Palopo	9	Septiembre	2023-09-17T00:00:00	2024-11-08T21:00:00	6	Velocidad del viento	8
7966	7	Sololá	712	San Antonio Palopó	9	San Antonio Palopo	9	Septiembre	2023-09-17T00:00:00	2024-11-08T21:00:00	7	Dirección del viento	8.05
7967	7	Sololá	712	San Antonio Palopó	9	San Antonio Palopo	9	Septiembre	2023-09-17T00:00:00	2024-11-08T21:00:00	1	Precipitación	0
7968	7	Sololá	712	San Antonio Palopó	9	San Antonio Palopo	9	Septiembre	2023-09-17T00:00:00	2024-11-08T21:00:00	8	Radiación solar	0
7969	7	Sololá	712	San Antonio Palopó	9	San Antonio Palopo	9	Septiembre	2023-09-17T00:00:00	2024-11-08T22:00:00	2	Temperatura media	20
7970	7	Sololá	712	San Antonio Palopó	9	San Antonio Palopo	9	Septiembre	2023-09-17T00:00:00	2024-11-08T22:00:00	4	Temperatura máxima	21.3
7971	7	Sololá	712	San Antonio Palopó	9	San Antonio Palopo	9	Septiembre	2023-09-17T00:00:00	2024-11-08T22:00:00	3	Temperatura mínima	19.9
7972	7	Sololá	712	San Antonio Palopó	9	San Antonio Palopo	9	Septiembre	2023-09-17T00:00:00	2024-11-08T22:00:00	5	Humedad	85
7973	7	Sololá	712	San Antonio Palopó	9	San Antonio Palopo	9	Septiembre	2023-09-17T00:00:00	2024-11-08T22:00:00	6	Velocidad del viento	4.8
7974	7	Sololá	712	San Antonio Palopó	9	San Antonio Palopo	9	Septiembre	2023-09-17T00:00:00	2024-11-08T22:00:00	7	Dirección del viento	4.83
7975	7	Sololá	712	San Antonio Palopó	9	San Antonio Palopo	9	Septiembre	2023-09-17T00:00:00	2024-11-08T22:00:00	1	Precipitación	0
7976	7	Sololá	712	San Antonio Palopó	9	San Antonio Palopo	9	Septiembre	2023-09-17T00:00:00	2024-11-08T22:00:00	8	Radiación solar	0
7977	7	Sololá	712	San Antonio Palopó	9	San Antonio Palopo	9	Septiembre	2023-09-17T00:00:00	2024-11-08T23:00:00	2	Temperatura media	18.4
7978	7	Sololá	712	San Antonio Palopó	9	San Antonio Palopo	9	Septiembre	2023-09-17T00:00:00	2024-11-08T23:00:00	4	Temperatura máxima	20.1
7979	7	Sololá	712	San Antonio Palopó	9	San Antonio Palopo	9	Septiembre	2023-09-17T00:00:00	2024-11-08T23:00:00	3	Temperatura mínima	18.4
7980	7	Sololá	712	San Antonio Palopó	9	San Antonio Palopo	9	Septiembre	2023-09-17T00:00:00	2024-11-08T23:00:00	5	Humedad	81
7981	7	Sololá	712	San Antonio Palopó	9	San Antonio Palopo	9	Septiembre	2023-09-17T00:00:00	2024-11-08T23:00:00	6	Velocidad del viento	6.4
7982	7	Sololá	712	San Antonio Palopó	9	San Antonio Palopo	9	Septiembre	2023-09-17T00:00:00	2024-11-08T23:00:00	7	Dirección del viento	6.44
7983	7	Sololá	712	San Antonio Palopó	9	San Antonio Palopo	9	Septiembre	2023-09-17T00:00:00	2024-11-08T23:00:00	1	Precipitación	3.2
7984	7	Sololá	712	San Antonio Palopó	9	San Antonio Palopo	9	Septiembre	2023-09-17T00:00:00	2024-11-08T23:00:00	8	Radiación solar	0
7985	7	Sololá	712	San Antonio Palopó	9	San Antonio Palopo	9	Septiembre	2023-09-18T00:00:00	2024-11-08T00:00:00	2	Temperatura media	17.8
7986	7	Sololá	712	San Antonio Palopó	9	San Antonio Palopo	9	Septiembre	2023-09-18T00:00:00	2024-11-08T00:00:00	4	Temperatura máxima	18.6
7987	7	Sololá	712	San Antonio Palopó	9	San Antonio Palopo	9	Septiembre	2023-09-18T00:00:00	2024-11-08T00:00:00	3	Temperatura mínima	17.7
7988	7	Sololá	712	San Antonio Palopó	9	San Antonio Palopo	9	Septiembre	2023-09-18T00:00:00	2024-11-08T00:00:00	5	Humedad	88
7989	7	Sololá	712	San Antonio Palopó	9	San Antonio Palopo	9	Septiembre	2023-09-18T00:00:00	2024-11-08T00:00:00	6	Velocidad del viento	4.8
7990	7	Sololá	712	San Antonio Palopó	9	San Antonio Palopo	9	Septiembre	2023-09-18T00:00:00	2024-11-08T00:00:00	7	Dirección del viento	4.83
7991	7	Sololá	712	San Antonio Palopó	9	San Antonio Palopo	9	Septiembre	2023-09-18T00:00:00	2024-11-08T00:00:00	1	Precipitación	7.8
7992	7	Sololá	712	San Antonio Palopó	9	San Antonio Palopo	9	Septiembre	2023-09-18T00:00:00	2024-11-08T00:00:00	8	Radiación solar	0
7993	7	Sololá	712	San Antonio Palopó	9	San Antonio Palopo	9	Septiembre	2023-09-18T00:00:00	2024-11-08T01:00:00	2	Temperatura media	18.3
7994	7	Sololá	712	San Antonio Palopó	9	San Antonio Palopo	9	Septiembre	2023-09-18T00:00:00	2024-11-08T01:00:00	4	Temperatura máxima	18.3
7995	7	Sololá	712	San Antonio Palopó	9	San Antonio Palopo	9	Septiembre	2023-09-18T00:00:00	2024-11-08T01:00:00	3	Temperatura mínima	17.7
7996	7	Sololá	712	San Antonio Palopó	9	San Antonio Palopo	9	Septiembre	2023-09-18T00:00:00	2024-11-08T01:00:00	5	Humedad	85
7997	7	Sololá	712	San Antonio Palopó	9	San Antonio Palopo	9	Septiembre	2023-09-18T00:00:00	2024-11-08T01:00:00	6	Velocidad del viento	3.2
7998	7	Sololá	712	San Antonio Palopó	9	San Antonio Palopo	9	Septiembre	2023-09-18T00:00:00	2024-11-08T01:00:00	7	Dirección del viento	3.22
7999	7	Sololá	712	San Antonio Palopó	9	San Antonio Palopo	9	Septiembre	2023-09-18T00:00:00	2024-11-08T01:00:00	1	Precipitación	0
8000	7	Sololá	712	San Antonio Palopó	9	San Antonio Palopo	9	Septiembre	2023-09-18T00:00:00	2024-11-08T01:00:00	8	Radiación solar	0
8001	7	Sololá	712	San Antonio Palopó	9	San Antonio Palopo	9	Septiembre	2023-09-18T00:00:00	2024-11-08T02:00:00	2	Temperatura media	17.6
8002	7	Sololá	712	San Antonio Palopó	9	San Antonio Palopo	9	Septiembre	2023-09-18T00:00:00	2024-11-08T02:00:00	4	Temperatura máxima	18.3
8003	7	Sololá	712	San Antonio Palopó	9	San Antonio Palopo	9	Septiembre	2023-09-18T00:00:00	2024-11-08T02:00:00	3	Temperatura mínima	17.6
8004	7	Sololá	712	San Antonio Palopó	9	San Antonio Palopo	9	Septiembre	2023-09-18T00:00:00	2024-11-08T02:00:00	5	Humedad	84
8005	7	Sololá	712	San Antonio Palopó	9	San Antonio Palopo	9	Septiembre	2023-09-18T00:00:00	2024-11-08T02:00:00	6	Velocidad del viento	3.2
8006	7	Sololá	712	San Antonio Palopó	9	San Antonio Palopo	9	Septiembre	2023-09-18T00:00:00	2024-11-08T02:00:00	7	Dirección del viento	3.22
8007	7	Sololá	712	San Antonio Palopó	9	San Antonio Palopo	9	Septiembre	2023-09-18T00:00:00	2024-11-08T02:00:00	1	Precipitación	0
8008	7	Sololá	712	San Antonio Palopó	9	San Antonio Palopo	9	Septiembre	2023-09-18T00:00:00	2024-11-08T02:00:00	8	Radiación solar	0
8009	7	Sololá	712	San Antonio Palopó	9	San Antonio Palopo	9	Septiembre	2023-09-18T00:00:00	2024-11-08T03:00:00	2	Temperatura media	18.8
8010	7	Sololá	712	San Antonio Palopó	9	San Antonio Palopo	9	Septiembre	2023-09-18T00:00:00	2024-11-08T03:00:00	4	Temperatura máxima	19.2
8011	7	Sololá	712	San Antonio Palopó	9	San Antonio Palopo	9	Septiembre	2023-09-18T00:00:00	2024-11-08T03:00:00	3	Temperatura mínima	17.6
8012	7	Sololá	712	San Antonio Palopó	9	San Antonio Palopo	9	Septiembre	2023-09-18T00:00:00	2024-11-08T03:00:00	5	Humedad	72
8013	7	Sololá	712	San Antonio Palopó	9	San Antonio Palopo	9	Septiembre	2023-09-18T00:00:00	2024-11-08T03:00:00	6	Velocidad del viento	6.4
8014	7	Sololá	712	San Antonio Palopó	9	San Antonio Palopo	9	Septiembre	2023-09-18T00:00:00	2024-11-08T03:00:00	7	Dirección del viento	6.44
8015	7	Sololá	712	San Antonio Palopó	9	San Antonio Palopo	9	Septiembre	2023-09-18T00:00:00	2024-11-08T03:00:00	1	Precipitación	0
8016	7	Sololá	712	San Antonio Palopó	9	San Antonio Palopo	9	Septiembre	2023-09-18T00:00:00	2024-11-08T03:00:00	8	Radiación solar	0
8017	7	Sololá	712	San Antonio Palopó	9	San Antonio Palopo	9	Septiembre	2023-09-18T00:00:00	2024-11-08T04:00:00	2	Temperatura media	18.3
8018	7	Sololá	712	San Antonio Palopó	9	San Antonio Palopo	9	Septiembre	2023-09-18T00:00:00	2024-11-08T04:00:00	4	Temperatura máxima	18.8
8019	7	Sololá	712	San Antonio Palopó	9	San Antonio Palopo	9	Septiembre	2023-09-18T00:00:00	2024-11-08T04:00:00	3	Temperatura mínima	17.8
8020	7	Sololá	712	San Antonio Palopó	9	San Antonio Palopo	9	Septiembre	2023-09-18T00:00:00	2024-11-08T04:00:00	5	Humedad	75
8021	7	Sololá	712	San Antonio Palopó	9	San Antonio Palopo	9	Septiembre	2023-09-18T00:00:00	2024-11-08T04:00:00	6	Velocidad del viento	3.2
8022	7	Sololá	712	San Antonio Palopó	9	San Antonio Palopo	9	Septiembre	2023-09-18T00:00:00	2024-11-08T04:00:00	7	Dirección del viento	3.22
8023	7	Sololá	712	San Antonio Palopó	9	San Antonio Palopo	9	Septiembre	2023-09-18T00:00:00	2024-11-08T04:00:00	1	Precipitación	0
8024	7	Sololá	712	San Antonio Palopó	9	San Antonio Palopo	9	Septiembre	2023-09-18T00:00:00	2024-11-08T04:00:00	8	Radiación solar	0
8025	7	Sololá	712	San Antonio Palopó	9	San Antonio Palopo	9	Septiembre	2023-09-18T00:00:00	2024-11-08T05:00:00	2	Temperatura media	18.5
8026	7	Sololá	712	San Antonio Palopó	9	San Antonio Palopo	9	Septiembre	2023-09-18T00:00:00	2024-11-08T05:00:00	4	Temperatura máxima	19.3
8027	7	Sololá	712	San Antonio Palopó	9	San Antonio Palopo	9	Septiembre	2023-09-18T00:00:00	2024-11-08T05:00:00	3	Temperatura mínima	17.8
8028	7	Sololá	712	San Antonio Palopó	9	San Antonio Palopo	9	Septiembre	2023-09-18T00:00:00	2024-11-08T05:00:00	5	Humedad	72
8029	7	Sololá	712	San Antonio Palopó	9	San Antonio Palopo	9	Septiembre	2023-09-18T00:00:00	2024-11-08T05:00:00	6	Velocidad del viento	4.8
8030	7	Sololá	712	San Antonio Palopó	9	San Antonio Palopo	9	Septiembre	2023-09-18T00:00:00	2024-11-08T05:00:00	7	Dirección del viento	4.83
8031	7	Sololá	712	San Antonio Palopó	9	San Antonio Palopo	9	Septiembre	2023-09-18T00:00:00	2024-11-08T05:00:00	1	Precipitación	0
8032	7	Sololá	712	San Antonio Palopó	9	San Antonio Palopo	9	Septiembre	2023-09-18T00:00:00	2024-11-08T05:00:00	8	Radiación solar	0
8033	7	Sololá	712	San Antonio Palopó	9	San Antonio Palopo	9	Septiembre	2023-09-18T00:00:00	2024-11-08T06:00:00	2	Temperatura media	19
8034	7	Sololá	712	San Antonio Palopó	9	San Antonio Palopo	9	Septiembre	2023-09-18T00:00:00	2024-11-08T06:00:00	4	Temperatura máxima	19.1
8035	7	Sololá	712	San Antonio Palopó	9	San Antonio Palopo	9	Septiembre	2023-09-18T00:00:00	2024-11-08T06:00:00	3	Temperatura mínima	17.8
8036	7	Sololá	712	San Antonio Palopó	9	San Antonio Palopo	9	Septiembre	2023-09-18T00:00:00	2024-11-08T06:00:00	5	Humedad	66
8037	7	Sololá	712	San Antonio Palopó	9	San Antonio Palopo	9	Septiembre	2023-09-18T00:00:00	2024-11-08T06:00:00	6	Velocidad del viento	6.4
8038	7	Sololá	712	San Antonio Palopó	9	San Antonio Palopo	9	Septiembre	2023-09-18T00:00:00	2024-11-08T06:00:00	7	Dirección del viento	6.44
8039	7	Sololá	712	San Antonio Palopó	9	San Antonio Palopo	9	Septiembre	2023-09-18T00:00:00	2024-11-08T06:00:00	1	Precipitación	0
8040	7	Sololá	712	San Antonio Palopó	9	San Antonio Palopo	9	Septiembre	2023-09-18T00:00:00	2024-11-08T06:00:00	8	Radiación solar	0
8041	7	Sololá	712	San Antonio Palopó	9	San Antonio Palopo	9	Septiembre	2023-09-18T00:00:00	2024-11-08T07:00:00	2	Temperatura media	18.9
8042	7	Sololá	712	San Antonio Palopó	9	San Antonio Palopo	9	Septiembre	2023-09-18T00:00:00	2024-11-08T07:00:00	4	Temperatura máxima	19.3
8043	7	Sololá	712	San Antonio Palopó	9	San Antonio Palopo	9	Septiembre	2023-09-18T00:00:00	2024-11-08T07:00:00	3	Temperatura mínima	18.8
8044	7	Sololá	712	San Antonio Palopó	9	San Antonio Palopo	9	Septiembre	2023-09-18T00:00:00	2024-11-08T07:00:00	5	Humedad	65
8045	7	Sololá	712	San Antonio Palopó	9	San Antonio Palopo	9	Septiembre	2023-09-18T00:00:00	2024-11-08T07:00:00	6	Velocidad del viento	6.4
8046	7	Sololá	712	San Antonio Palopó	9	San Antonio Palopo	9	Septiembre	2023-09-18T00:00:00	2024-11-08T07:00:00	7	Dirección del viento	6.44
8047	7	Sololá	712	San Antonio Palopó	9	San Antonio Palopo	9	Septiembre	2023-09-18T00:00:00	2024-11-08T07:00:00	1	Precipitación	0
8048	7	Sololá	712	San Antonio Palopó	9	San Antonio Palopo	9	Septiembre	2023-09-18T00:00:00	2024-11-08T07:00:00	8	Radiación solar	41
8049	7	Sololá	712	San Antonio Palopó	9	San Antonio Palopo	9	Septiembre	2023-09-18T00:00:00	2024-11-08T08:00:00	2	Temperatura media	20.2
8050	7	Sololá	712	San Antonio Palopó	9	San Antonio Palopo	9	Septiembre	2023-09-18T00:00:00	2024-11-08T08:00:00	4	Temperatura máxima	20.2
8051	7	Sololá	712	San Antonio Palopó	9	San Antonio Palopo	9	Septiembre	2023-09-18T00:00:00	2024-11-08T08:00:00	3	Temperatura mínima	18.9
8052	7	Sololá	712	San Antonio Palopó	9	San Antonio Palopo	9	Septiembre	2023-09-18T00:00:00	2024-11-08T08:00:00	5	Humedad	66
8053	7	Sololá	712	San Antonio Palopó	9	San Antonio Palopo	9	Septiembre	2023-09-18T00:00:00	2024-11-08T08:00:00	6	Velocidad del viento	3.2
8054	7	Sololá	712	San Antonio Palopó	9	San Antonio Palopo	9	Septiembre	2023-09-18T00:00:00	2024-11-08T08:00:00	7	Dirección del viento	3.22
8055	7	Sololá	712	San Antonio Palopó	9	San Antonio Palopo	9	Septiembre	2023-09-18T00:00:00	2024-11-08T08:00:00	1	Precipitación	0
8056	7	Sololá	712	San Antonio Palopó	9	San Antonio Palopo	9	Septiembre	2023-09-18T00:00:00	2024-11-08T08:00:00	8	Radiación solar	132
8057	7	Sololá	712	San Antonio Palopó	9	San Antonio Palopo	9	Septiembre	2023-09-18T00:00:00	2024-11-08T09:00:00	2	Temperatura media	21.7
8058	7	Sololá	712	San Antonio Palopó	9	San Antonio Palopo	9	Septiembre	2023-09-18T00:00:00	2024-11-08T09:00:00	4	Temperatura máxima	22.3
8059	7	Sololá	712	San Antonio Palopó	9	San Antonio Palopo	9	Septiembre	2023-09-18T00:00:00	2024-11-08T09:00:00	3	Temperatura mínima	20.2
8060	7	Sololá	712	San Antonio Palopó	9	San Antonio Palopo	9	Septiembre	2023-09-18T00:00:00	2024-11-08T09:00:00	5	Humedad	63
8061	7	Sololá	712	San Antonio Palopó	9	San Antonio Palopo	9	Septiembre	2023-09-18T00:00:00	2024-11-08T09:00:00	6	Velocidad del viento	3.2
8062	7	Sololá	712	San Antonio Palopó	9	San Antonio Palopo	9	Septiembre	2023-09-18T00:00:00	2024-11-08T09:00:00	7	Dirección del viento	3.22
8063	7	Sololá	712	San Antonio Palopó	9	San Antonio Palopo	9	Septiembre	2023-09-18T00:00:00	2024-11-08T09:00:00	1	Precipitación	0
8064	7	Sololá	712	San Antonio Palopó	9	San Antonio Palopo	9	Septiembre	2023-09-18T00:00:00	2024-11-08T09:00:00	8	Radiación solar	361
8065	7	Sololá	712	San Antonio Palopó	9	San Antonio Palopo	9	Septiembre	2023-09-18T00:00:00	2024-11-08T10:00:00	2	Temperatura media	23.5
8066	7	Sololá	712	San Antonio Palopó	9	San Antonio Palopo	9	Septiembre	2023-09-18T00:00:00	2024-11-08T10:00:00	4	Temperatura máxima	23.6
8067	7	Sololá	712	San Antonio Palopó	9	San Antonio Palopo	9	Septiembre	2023-09-18T00:00:00	2024-11-08T10:00:00	3	Temperatura mínima	21.7
8068	7	Sololá	712	San Antonio Palopó	9	San Antonio Palopo	9	Septiembre	2023-09-18T00:00:00	2024-11-08T10:00:00	5	Humedad	56
8069	7	Sololá	712	San Antonio Palopó	9	San Antonio Palopo	9	Septiembre	2023-09-18T00:00:00	2024-11-08T10:00:00	6	Velocidad del viento	3.2
8070	7	Sololá	712	San Antonio Palopó	9	San Antonio Palopo	9	Septiembre	2023-09-18T00:00:00	2024-11-08T10:00:00	7	Dirección del viento	3.22
8071	7	Sololá	712	San Antonio Palopó	9	San Antonio Palopo	9	Septiembre	2023-09-18T00:00:00	2024-11-08T10:00:00	1	Precipitación	0
8072	7	Sololá	712	San Antonio Palopó	9	San Antonio Palopo	9	Septiembre	2023-09-18T00:00:00	2024-11-08T10:00:00	8	Radiación solar	616
8073	7	Sololá	712	San Antonio Palopó	9	San Antonio Palopo	9	Septiembre	2023-09-18T00:00:00	2024-11-08T11:00:00	2	Temperatura media	24.4
8074	7	Sololá	712	San Antonio Palopó	9	San Antonio Palopo	9	Septiembre	2023-09-18T00:00:00	2024-11-08T11:00:00	4	Temperatura máxima	24.8
8075	7	Sololá	712	San Antonio Palopó	9	San Antonio Palopo	9	Septiembre	2023-09-18T00:00:00	2024-11-08T11:00:00	3	Temperatura mínima	23.5
8076	7	Sololá	712	San Antonio Palopó	9	San Antonio Palopo	9	Septiembre	2023-09-18T00:00:00	2024-11-08T11:00:00	5	Humedad	67
8077	7	Sololá	712	San Antonio Palopó	9	San Antonio Palopo	9	Septiembre	2023-09-18T00:00:00	2024-11-08T11:00:00	6	Velocidad del viento	6.4
8078	7	Sololá	712	San Antonio Palopó	9	San Antonio Palopo	9	Septiembre	2023-09-18T00:00:00	2024-11-08T11:00:00	7	Dirección del viento	6.44
8079	7	Sololá	712	San Antonio Palopó	9	San Antonio Palopo	9	Septiembre	2023-09-18T00:00:00	2024-11-08T11:00:00	1	Precipitación	0
8080	7	Sololá	712	San Antonio Palopó	9	San Antonio Palopo	9	Septiembre	2023-09-18T00:00:00	2024-11-08T11:00:00	8	Radiación solar	870
8081	7	Sololá	712	San Antonio Palopó	9	San Antonio Palopo	9	Septiembre	2023-09-18T00:00:00	2024-11-08T12:00:00	2	Temperatura media	24.2
8082	7	Sololá	712	San Antonio Palopó	9	San Antonio Palopo	9	Septiembre	2023-09-18T00:00:00	2024-11-08T12:00:00	4	Temperatura máxima	24.9
8083	7	Sololá	712	San Antonio Palopó	9	San Antonio Palopo	9	Septiembre	2023-09-18T00:00:00	2024-11-08T12:00:00	3	Temperatura mínima	23.7
8084	7	Sololá	712	San Antonio Palopó	9	San Antonio Palopo	9	Septiembre	2023-09-18T00:00:00	2024-11-08T12:00:00	5	Humedad	68
8085	7	Sololá	712	San Antonio Palopó	9	San Antonio Palopo	9	Septiembre	2023-09-18T00:00:00	2024-11-08T12:00:00	6	Velocidad del viento	8
8086	7	Sololá	712	San Antonio Palopó	9	San Antonio Palopo	9	Septiembre	2023-09-18T00:00:00	2024-11-08T12:00:00	7	Dirección del viento	8.05
8087	7	Sololá	712	San Antonio Palopó	9	San Antonio Palopo	9	Septiembre	2023-09-18T00:00:00	2024-11-08T12:00:00	1	Precipitación	0
8088	7	Sololá	712	San Antonio Palopó	9	San Antonio Palopo	9	Septiembre	2023-09-18T00:00:00	2024-11-08T12:00:00	8	Radiación solar	939
8089	7	Sololá	712	San Antonio Palopó	9	San Antonio Palopo	9	Septiembre	2023-09-18T00:00:00	2024-11-08T13:00:00	2	Temperatura media	23.6
8090	7	Sololá	712	San Antonio Palopó	9	San Antonio Palopo	9	Septiembre	2023-09-18T00:00:00	2024-11-08T13:00:00	4	Temperatura máxima	24.4
8091	7	Sololá	712	San Antonio Palopó	9	San Antonio Palopo	9	Septiembre	2023-09-18T00:00:00	2024-11-08T13:00:00	3	Temperatura mínima	22.6
8092	7	Sololá	712	San Antonio Palopó	9	San Antonio Palopo	9	Septiembre	2023-09-18T00:00:00	2024-11-08T13:00:00	5	Humedad	72
8093	7	Sololá	712	San Antonio Palopó	9	San Antonio Palopo	9	Septiembre	2023-09-18T00:00:00	2024-11-08T13:00:00	6	Velocidad del viento	11.3
8094	7	Sololá	712	San Antonio Palopó	9	San Antonio Palopo	9	Septiembre	2023-09-18T00:00:00	2024-11-08T13:00:00	7	Dirección del viento	11.27
8095	7	Sololá	712	San Antonio Palopó	9	San Antonio Palopo	9	Septiembre	2023-09-18T00:00:00	2024-11-08T13:00:00	1	Precipitación	0
8096	7	Sololá	712	San Antonio Palopó	9	San Antonio Palopo	9	Septiembre	2023-09-18T00:00:00	2024-11-08T13:00:00	8	Radiación solar	790
8097	7	Sololá	712	San Antonio Palopó	9	San Antonio Palopo	9	Septiembre	2023-09-18T00:00:00	2024-11-08T14:00:00	2	Temperatura media	24.2
8098	7	Sololá	712	San Antonio Palopó	9	San Antonio Palopo	9	Septiembre	2023-09-18T00:00:00	2024-11-08T14:00:00	4	Temperatura máxima	24.3
8099	7	Sololá	712	San Antonio Palopó	9	San Antonio Palopo	9	Septiembre	2023-09-18T00:00:00	2024-11-08T14:00:00	3	Temperatura mínima	23.3
8100	7	Sololá	712	San Antonio Palopó	9	San Antonio Palopo	9	Septiembre	2023-09-18T00:00:00	2024-11-08T14:00:00	5	Humedad	72
8101	7	Sololá	712	San Antonio Palopó	9	San Antonio Palopo	9	Septiembre	2023-09-18T00:00:00	2024-11-08T14:00:00	6	Velocidad del viento	8
8102	7	Sololá	712	San Antonio Palopó	9	San Antonio Palopo	9	Septiembre	2023-09-18T00:00:00	2024-11-08T14:00:00	7	Dirección del viento	8.05
8103	7	Sololá	712	San Antonio Palopó	9	San Antonio Palopo	9	Septiembre	2023-09-18T00:00:00	2024-11-08T14:00:00	1	Precipitación	0
8104	7	Sololá	712	San Antonio Palopó	9	San Antonio Palopo	9	Septiembre	2023-09-18T00:00:00	2024-11-08T14:00:00	8	Radiación solar	772
8105	7	Sololá	712	San Antonio Palopó	9	San Antonio Palopo	9	Septiembre	2023-09-18T00:00:00	2024-11-08T15:00:00	2	Temperatura media	24.9
8106	7	Sololá	712	San Antonio Palopó	9	San Antonio Palopo	9	Septiembre	2023-09-18T00:00:00	2024-11-08T15:00:00	4	Temperatura máxima	25
8107	7	Sololá	712	San Antonio Palopó	9	San Antonio Palopo	9	Septiembre	2023-09-18T00:00:00	2024-11-08T15:00:00	3	Temperatura mínima	24.2
8108	7	Sololá	712	San Antonio Palopó	9	San Antonio Palopo	9	Septiembre	2023-09-18T00:00:00	2024-11-08T15:00:00	5	Humedad	72
8109	7	Sololá	712	San Antonio Palopó	9	San Antonio Palopo	9	Septiembre	2023-09-18T00:00:00	2024-11-08T15:00:00	6	Velocidad del viento	6.4
8110	7	Sololá	712	San Antonio Palopó	9	San Antonio Palopo	9	Septiembre	2023-09-18T00:00:00	2024-11-08T15:00:00	7	Dirección del viento	6.44
8111	7	Sololá	712	San Antonio Palopó	9	San Antonio Palopo	9	Septiembre	2023-09-18T00:00:00	2024-11-08T15:00:00	1	Precipitación	0
8112	7	Sololá	712	San Antonio Palopó	9	San Antonio Palopo	9	Septiembre	2023-09-18T00:00:00	2024-11-08T15:00:00	8	Radiación solar	823
8113	7	Sololá	712	San Antonio Palopó	9	San Antonio Palopo	9	Septiembre	2023-09-18T00:00:00	2024-11-08T16:00:00	2	Temperatura media	22.6
8114	7	Sololá	712	San Antonio Palopó	9	San Antonio Palopo	9	Septiembre	2023-09-18T00:00:00	2024-11-08T16:00:00	4	Temperatura máxima	25.2
8115	7	Sololá	712	San Antonio Palopó	9	San Antonio Palopo	9	Septiembre	2023-09-18T00:00:00	2024-11-08T16:00:00	3	Temperatura mínima	22.5
8116	7	Sololá	712	San Antonio Palopó	9	San Antonio Palopo	9	Septiembre	2023-09-18T00:00:00	2024-11-08T16:00:00	5	Humedad	78
8117	7	Sololá	712	San Antonio Palopó	9	San Antonio Palopo	9	Septiembre	2023-09-18T00:00:00	2024-11-08T16:00:00	6	Velocidad del viento	4.8
8118	7	Sololá	712	San Antonio Palopó	9	San Antonio Palopo	9	Septiembre	2023-09-18T00:00:00	2024-11-08T16:00:00	7	Dirección del viento	4.83
8119	7	Sololá	712	San Antonio Palopó	9	San Antonio Palopo	9	Septiembre	2023-09-18T00:00:00	2024-11-08T16:00:00	1	Precipitación	0
8120	7	Sololá	712	San Antonio Palopó	9	San Antonio Palopo	9	Septiembre	2023-09-18T00:00:00	2024-11-08T16:00:00	8	Radiación solar	313
8121	7	Sololá	712	San Antonio Palopó	9	San Antonio Palopo	9	Septiembre	2023-09-18T00:00:00	2024-11-08T17:00:00	2	Temperatura media	21.4
8122	7	Sololá	712	San Antonio Palopó	9	San Antonio Palopo	9	Septiembre	2023-09-18T00:00:00	2024-11-08T17:00:00	4	Temperatura máxima	22.7
8123	7	Sololá	712	San Antonio Palopó	9	San Antonio Palopo	9	Septiembre	2023-09-18T00:00:00	2024-11-08T17:00:00	3	Temperatura mínima	21.4
8124	7	Sololá	712	San Antonio Palopó	9	San Antonio Palopo	9	Septiembre	2023-09-18T00:00:00	2024-11-08T17:00:00	5	Humedad	82
8125	7	Sololá	712	San Antonio Palopó	9	San Antonio Palopo	9	Septiembre	2023-09-18T00:00:00	2024-11-08T17:00:00	6	Velocidad del viento	6.4
8126	7	Sololá	712	San Antonio Palopó	9	San Antonio Palopo	9	Septiembre	2023-09-18T00:00:00	2024-11-08T17:00:00	7	Dirección del viento	6.44
8127	7	Sololá	712	San Antonio Palopó	9	San Antonio Palopo	9	Septiembre	2023-09-18T00:00:00	2024-11-08T17:00:00	1	Precipitación	0
8128	7	Sololá	712	San Antonio Palopó	9	San Antonio Palopo	9	Septiembre	2023-09-18T00:00:00	2024-11-08T17:00:00	8	Radiación solar	62
8129	7	Sololá	712	San Antonio Palopó	9	San Antonio Palopo	9	Septiembre	2023-09-18T00:00:00	2024-11-08T18:00:00	2	Temperatura media	20.2
8130	7	Sololá	712	San Antonio Palopó	9	San Antonio Palopo	9	Septiembre	2023-09-18T00:00:00	2024-11-08T18:00:00	4	Temperatura máxima	21.4
8131	7	Sololá	712	San Antonio Palopó	9	San Antonio Palopo	9	Septiembre	2023-09-18T00:00:00	2024-11-08T18:00:00	3	Temperatura mínima	20.1
8132	7	Sololá	712	San Antonio Palopó	9	San Antonio Palopo	9	Septiembre	2023-09-18T00:00:00	2024-11-08T18:00:00	5	Humedad	84
8133	7	Sololá	712	San Antonio Palopó	9	San Antonio Palopo	9	Septiembre	2023-09-18T00:00:00	2024-11-08T18:00:00	6	Velocidad del viento	6.4
8134	7	Sololá	712	San Antonio Palopó	9	San Antonio Palopo	9	Septiembre	2023-09-18T00:00:00	2024-11-08T18:00:00	7	Dirección del viento	6.44
8135	7	Sololá	712	San Antonio Palopó	9	San Antonio Palopo	9	Septiembre	2023-09-18T00:00:00	2024-11-08T18:00:00	1	Precipitación	0
8136	7	Sololá	712	San Antonio Palopó	9	San Antonio Palopo	9	Septiembre	2023-09-18T00:00:00	2024-11-08T18:00:00	8	Radiación solar	14
8137	7	Sololá	712	San Antonio Palopó	9	San Antonio Palopo	9	Septiembre	2023-09-18T00:00:00	2024-11-08T19:00:00	2	Temperatura media	20.3
8138	7	Sololá	712	San Antonio Palopó	9	San Antonio Palopo	9	Septiembre	2023-09-18T00:00:00	2024-11-08T19:00:00	4	Temperatura máxima	20.4
8139	7	Sololá	712	San Antonio Palopó	9	San Antonio Palopo	9	Septiembre	2023-09-18T00:00:00	2024-11-08T19:00:00	3	Temperatura mínima	20.2
8140	7	Sololá	712	San Antonio Palopó	9	San Antonio Palopo	9	Septiembre	2023-09-18T00:00:00	2024-11-08T19:00:00	5	Humedad	81
8141	7	Sololá	712	San Antonio Palopó	9	San Antonio Palopo	9	Septiembre	2023-09-18T00:00:00	2024-11-08T19:00:00	6	Velocidad del viento	1.6
8142	7	Sololá	712	San Antonio Palopó	9	San Antonio Palopo	9	Septiembre	2023-09-18T00:00:00	2024-11-08T19:00:00	7	Dirección del viento	1.61
8143	7	Sololá	712	San Antonio Palopó	9	San Antonio Palopo	9	Septiembre	2023-09-18T00:00:00	2024-11-08T19:00:00	1	Precipitación	0
8144	7	Sololá	712	San Antonio Palopó	9	San Antonio Palopo	9	Septiembre	2023-09-18T00:00:00	2024-11-08T19:00:00	8	Radiación solar	0
8145	7	Sololá	712	San Antonio Palopó	9	San Antonio Palopo	9	Septiembre	2023-09-18T00:00:00	2024-11-08T20:00:00	2	Temperatura media	20.1
8146	7	Sololá	712	San Antonio Palopó	9	San Antonio Palopo	9	Septiembre	2023-09-18T00:00:00	2024-11-08T20:00:00	4	Temperatura máxima	20.3
8147	7	Sololá	712	San Antonio Palopó	9	San Antonio Palopo	9	Septiembre	2023-09-18T00:00:00	2024-11-08T20:00:00	3	Temperatura mínima	20.1
8148	7	Sololá	712	San Antonio Palopó	9	San Antonio Palopo	9	Septiembre	2023-09-18T00:00:00	2024-11-08T20:00:00	5	Humedad	83
8149	7	Sololá	712	San Antonio Palopó	9	San Antonio Palopo	9	Septiembre	2023-09-18T00:00:00	2024-11-08T20:00:00	6	Velocidad del viento	1.6
8150	7	Sololá	712	San Antonio Palopó	9	San Antonio Palopo	9	Septiembre	2023-09-18T00:00:00	2024-11-08T20:00:00	7	Dirección del viento	1.61
8151	7	Sololá	712	San Antonio Palopó	9	San Antonio Palopo	9	Septiembre	2023-09-18T00:00:00	2024-11-08T20:00:00	1	Precipitación	0
8152	7	Sololá	712	San Antonio Palopó	9	San Antonio Palopo	9	Septiembre	2023-09-18T00:00:00	2024-11-08T20:00:00	8	Radiación solar	0
8153	7	Sololá	712	San Antonio Palopó	9	San Antonio Palopo	9	Septiembre	2023-09-18T00:00:00	2024-11-08T21:00:00	2	Temperatura media	19.3
8154	7	Sololá	712	San Antonio Palopó	9	San Antonio Palopo	9	Septiembre	2023-09-18T00:00:00	2024-11-08T21:00:00	4	Temperatura máxima	20.2
8155	7	Sololá	712	San Antonio Palopó	9	San Antonio Palopo	9	Septiembre	2023-09-18T00:00:00	2024-11-08T21:00:00	3	Temperatura mínima	19.3
8156	7	Sololá	712	San Antonio Palopó	9	San Antonio Palopo	9	Septiembre	2023-09-18T00:00:00	2024-11-08T21:00:00	5	Humedad	83
8157	7	Sololá	712	San Antonio Palopó	9	San Antonio Palopo	9	Septiembre	2023-09-18T00:00:00	2024-11-08T21:00:00	6	Velocidad del viento	1.6
8158	7	Sololá	712	San Antonio Palopó	9	San Antonio Palopo	9	Septiembre	2023-09-18T00:00:00	2024-11-08T21:00:00	7	Dirección del viento	1.61
8159	7	Sololá	712	San Antonio Palopó	9	San Antonio Palopo	9	Septiembre	2023-09-18T00:00:00	2024-11-08T21:00:00	1	Precipitación	0
8160	7	Sololá	712	San Antonio Palopó	9	San Antonio Palopo	9	Septiembre	2023-09-18T00:00:00	2024-11-08T21:00:00	8	Radiación solar	0
8161	7	Sololá	712	San Antonio Palopó	9	San Antonio Palopo	9	Septiembre	2023-09-18T00:00:00	2024-11-08T22:00:00	2	Temperatura media	20.3
8162	7	Sololá	712	San Antonio Palopó	9	San Antonio Palopo	9	Septiembre	2023-09-18T00:00:00	2024-11-08T22:00:00	4	Temperatura máxima	20.5
8163	7	Sololá	712	San Antonio Palopó	9	San Antonio Palopo	9	Septiembre	2023-09-18T00:00:00	2024-11-08T22:00:00	3	Temperatura mínima	19.2
8164	7	Sololá	712	San Antonio Palopó	9	San Antonio Palopo	9	Septiembre	2023-09-18T00:00:00	2024-11-08T22:00:00	5	Humedad	73
8165	7	Sololá	712	San Antonio Palopó	9	San Antonio Palopo	9	Septiembre	2023-09-18T00:00:00	2024-11-08T22:00:00	6	Velocidad del viento	6.4
8166	7	Sololá	712	San Antonio Palopó	9	San Antonio Palopo	9	Septiembre	2023-09-18T00:00:00	2024-11-08T22:00:00	7	Dirección del viento	6.44
8167	7	Sololá	712	San Antonio Palopó	9	San Antonio Palopo	9	Septiembre	2023-09-18T00:00:00	2024-11-08T22:00:00	1	Precipitación	0
8168	7	Sololá	712	San Antonio Palopó	9	San Antonio Palopo	9	Septiembre	2023-09-18T00:00:00	2024-11-08T22:00:00	8	Radiación solar	0
8169	7	Sololá	712	San Antonio Palopó	9	San Antonio Palopo	9	Septiembre	2023-09-18T00:00:00	2024-11-08T23:00:00	2	Temperatura media	19.6
8170	7	Sololá	712	San Antonio Palopó	9	San Antonio Palopo	9	Septiembre	2023-09-18T00:00:00	2024-11-08T23:00:00	4	Temperatura máxima	20.3
8171	7	Sololá	712	San Antonio Palopó	9	San Antonio Palopo	9	Septiembre	2023-09-18T00:00:00	2024-11-08T23:00:00	3	Temperatura mínima	19.6
8172	7	Sololá	712	San Antonio Palopó	9	San Antonio Palopo	9	Septiembre	2023-09-18T00:00:00	2024-11-08T23:00:00	5	Humedad	73
8173	7	Sololá	712	San Antonio Palopó	9	San Antonio Palopo	9	Septiembre	2023-09-18T00:00:00	2024-11-08T23:00:00	6	Velocidad del viento	6.4
8174	7	Sololá	712	San Antonio Palopó	9	San Antonio Palopo	9	Septiembre	2023-09-18T00:00:00	2024-11-08T23:00:00	7	Dirección del viento	6.44
8175	7	Sololá	712	San Antonio Palopó	9	San Antonio Palopo	9	Septiembre	2023-09-18T00:00:00	2024-11-08T23:00:00	1	Precipitación	0
8176	7	Sololá	712	San Antonio Palopó	9	San Antonio Palopo	9	Septiembre	2023-09-18T00:00:00	2024-11-08T23:00:00	8	Radiación solar	0
8177	7	Sololá	712	San Antonio Palopó	9	San Antonio Palopo	9	Septiembre	2023-09-19T00:00:00	2024-11-08T00:00:00	2	Temperatura media	19.4
8178	7	Sololá	712	San Antonio Palopó	9	San Antonio Palopo	9	Septiembre	2023-09-19T00:00:00	2024-11-08T00:00:00	4	Temperatura máxima	19.8
8179	7	Sololá	712	San Antonio Palopó	9	San Antonio Palopo	9	Septiembre	2023-09-19T00:00:00	2024-11-08T00:00:00	3	Temperatura mínima	19.3
8180	7	Sololá	712	San Antonio Palopó	9	San Antonio Palopo	9	Septiembre	2023-09-19T00:00:00	2024-11-08T00:00:00	5	Humedad	74
8181	7	Sololá	712	San Antonio Palopó	9	San Antonio Palopo	9	Septiembre	2023-09-19T00:00:00	2024-11-08T00:00:00	6	Velocidad del viento	8
8182	7	Sololá	712	San Antonio Palopó	9	San Antonio Palopo	9	Septiembre	2023-09-19T00:00:00	2024-11-08T00:00:00	7	Dirección del viento	8.05
8183	7	Sololá	712	San Antonio Palopó	9	San Antonio Palopo	9	Septiembre	2023-09-19T00:00:00	2024-11-08T00:00:00	1	Precipitación	0
8184	7	Sololá	712	San Antonio Palopó	9	San Antonio Palopo	9	Septiembre	2023-09-19T00:00:00	2024-11-08T00:00:00	8	Radiación solar	0
8185	7	Sololá	712	San Antonio Palopó	9	San Antonio Palopo	9	Septiembre	2023-09-19T00:00:00	2024-11-08T01:00:00	2	Temperatura media	19.3
8186	7	Sololá	712	San Antonio Palopó	9	San Antonio Palopo	9	Septiembre	2023-09-19T00:00:00	2024-11-08T01:00:00	4	Temperatura máxima	19.4
8187	7	Sololá	712	San Antonio Palopó	9	San Antonio Palopo	9	Septiembre	2023-09-19T00:00:00	2024-11-08T01:00:00	3	Temperatura mínima	19.3
8188	7	Sololá	712	San Antonio Palopó	9	San Antonio Palopo	9	Septiembre	2023-09-19T00:00:00	2024-11-08T01:00:00	5	Humedad	73
8189	7	Sololá	712	San Antonio Palopó	9	San Antonio Palopo	9	Septiembre	2023-09-19T00:00:00	2024-11-08T01:00:00	6	Velocidad del viento	9.7
8190	7	Sololá	712	San Antonio Palopó	9	San Antonio Palopo	9	Septiembre	2023-09-19T00:00:00	2024-11-08T01:00:00	7	Dirección del viento	9.66
8191	7	Sololá	712	San Antonio Palopó	9	San Antonio Palopo	9	Septiembre	2023-09-19T00:00:00	2024-11-08T01:00:00	1	Precipitación	0
8192	7	Sololá	712	San Antonio Palopó	9	San Antonio Palopo	9	Septiembre	2023-09-19T00:00:00	2024-11-08T01:00:00	8	Radiación solar	0
8193	7	Sololá	712	San Antonio Palopó	9	San Antonio Palopo	9	Septiembre	2023-09-19T00:00:00	2024-11-08T02:00:00	2	Temperatura media	18.8
8194	7	Sololá	712	San Antonio Palopó	9	San Antonio Palopo	9	Septiembre	2023-09-19T00:00:00	2024-11-08T02:00:00	4	Temperatura máxima	19.6
8195	7	Sololá	712	San Antonio Palopó	9	San Antonio Palopo	9	Septiembre	2023-09-19T00:00:00	2024-11-08T02:00:00	3	Temperatura mínima	18.8
8196	7	Sololá	712	San Antonio Palopó	9	San Antonio Palopo	9	Septiembre	2023-09-19T00:00:00	2024-11-08T02:00:00	5	Humedad	75
8197	7	Sololá	712	San Antonio Palopó	9	San Antonio Palopo	9	Septiembre	2023-09-19T00:00:00	2024-11-08T02:00:00	6	Velocidad del viento	6.4
8198	7	Sololá	712	San Antonio Palopó	9	San Antonio Palopo	9	Septiembre	2023-09-19T00:00:00	2024-11-08T02:00:00	7	Dirección del viento	6.44
8199	7	Sololá	712	San Antonio Palopó	9	San Antonio Palopo	9	Septiembre	2023-09-19T00:00:00	2024-11-08T02:00:00	1	Precipitación	0
8200	7	Sololá	712	San Antonio Palopó	9	San Antonio Palopo	9	Septiembre	2023-09-19T00:00:00	2024-11-08T02:00:00	8	Radiación solar	0
8201	7	Sololá	712	San Antonio Palopó	9	San Antonio Palopo	9	Septiembre	2023-09-19T00:00:00	2024-11-08T03:00:00	2	Temperatura media	19.2
8202	7	Sololá	712	San Antonio Palopó	9	San Antonio Palopo	9	Septiembre	2023-09-19T00:00:00	2024-11-08T03:00:00	4	Temperatura máxima	19.3
8203	7	Sololá	712	San Antonio Palopó	9	San Antonio Palopo	9	Septiembre	2023-09-19T00:00:00	2024-11-08T03:00:00	3	Temperatura mínima	18.3
8204	7	Sololá	712	San Antonio Palopó	9	San Antonio Palopo	9	Septiembre	2023-09-19T00:00:00	2024-11-08T03:00:00	5	Humedad	71
8205	7	Sololá	712	San Antonio Palopó	9	San Antonio Palopo	9	Septiembre	2023-09-19T00:00:00	2024-11-08T03:00:00	6	Velocidad del viento	4.8
8206	7	Sololá	712	San Antonio Palopó	9	San Antonio Palopo	9	Septiembre	2023-09-19T00:00:00	2024-11-08T03:00:00	7	Dirección del viento	4.83
8207	7	Sololá	712	San Antonio Palopó	9	San Antonio Palopo	9	Septiembre	2023-09-19T00:00:00	2024-11-08T03:00:00	1	Precipitación	0
8208	7	Sololá	712	San Antonio Palopó	9	San Antonio Palopo	9	Septiembre	2023-09-19T00:00:00	2024-11-08T03:00:00	8	Radiación solar	0
8209	7	Sololá	712	San Antonio Palopó	9	San Antonio Palopo	9	Septiembre	2023-09-19T00:00:00	2024-11-08T04:00:00	2	Temperatura media	19
8210	7	Sololá	712	San Antonio Palopó	9	San Antonio Palopo	9	Septiembre	2023-09-19T00:00:00	2024-11-08T04:00:00	4	Temperatura máxima	19.4
8211	7	Sololá	712	San Antonio Palopó	9	San Antonio Palopo	9	Septiembre	2023-09-19T00:00:00	2024-11-08T04:00:00	3	Temperatura mínima	18.9
8212	7	Sololá	712	San Antonio Palopó	9	San Antonio Palopo	9	Septiembre	2023-09-19T00:00:00	2024-11-08T04:00:00	5	Humedad	69
8213	7	Sololá	712	San Antonio Palopó	9	San Antonio Palopo	9	Septiembre	2023-09-19T00:00:00	2024-11-08T04:00:00	6	Velocidad del viento	6.4
8214	7	Sololá	712	San Antonio Palopó	9	San Antonio Palopo	9	Septiembre	2023-09-19T00:00:00	2024-11-08T04:00:00	7	Dirección del viento	6.44
8215	7	Sololá	712	San Antonio Palopó	9	San Antonio Palopo	9	Septiembre	2023-09-19T00:00:00	2024-11-08T04:00:00	1	Precipitación	0
8216	7	Sololá	712	San Antonio Palopó	9	San Antonio Palopo	9	Septiembre	2023-09-19T00:00:00	2024-11-08T04:00:00	8	Radiación solar	0
8217	7	Sololá	712	San Antonio Palopó	9	San Antonio Palopo	9	Septiembre	2023-09-19T00:00:00	2024-11-08T05:00:00	2	Temperatura media	18.4
8218	7	Sololá	712	San Antonio Palopó	9	San Antonio Palopo	9	Septiembre	2023-09-19T00:00:00	2024-11-08T05:00:00	4	Temperatura máxima	19
8219	7	Sololá	712	San Antonio Palopó	9	San Antonio Palopo	9	Septiembre	2023-09-19T00:00:00	2024-11-08T05:00:00	3	Temperatura mínima	18.4
8220	7	Sololá	712	San Antonio Palopó	9	San Antonio Palopo	9	Septiembre	2023-09-19T00:00:00	2024-11-08T05:00:00	5	Humedad	68
8221	7	Sololá	712	San Antonio Palopó	9	San Antonio Palopo	9	Septiembre	2023-09-19T00:00:00	2024-11-08T05:00:00	6	Velocidad del viento	6.4
8222	7	Sololá	712	San Antonio Palopó	9	San Antonio Palopo	9	Septiembre	2023-09-19T00:00:00	2024-11-08T05:00:00	7	Dirección del viento	6.44
8223	7	Sololá	712	San Antonio Palopó	9	San Antonio Palopo	9	Septiembre	2023-09-19T00:00:00	2024-11-08T05:00:00	1	Precipitación	0
8224	7	Sololá	712	San Antonio Palopó	9	San Antonio Palopo	9	Septiembre	2023-09-19T00:00:00	2024-11-08T05:00:00	8	Radiación solar	0
8225	7	Sololá	712	San Antonio Palopó	9	San Antonio Palopo	9	Septiembre	2023-09-19T00:00:00	2024-11-08T06:00:00	2	Temperatura media	18
8226	7	Sololá	712	San Antonio Palopó	9	San Antonio Palopo	9	Septiembre	2023-09-19T00:00:00	2024-11-08T06:00:00	4	Temperatura máxima	18.5
8227	7	Sololá	712	San Antonio Palopó	9	San Antonio Palopo	9	Septiembre	2023-09-19T00:00:00	2024-11-08T06:00:00	3	Temperatura mínima	17.9
8228	7	Sololá	712	San Antonio Palopó	9	San Antonio Palopo	9	Septiembre	2023-09-19T00:00:00	2024-11-08T06:00:00	5	Humedad	67
8229	7	Sololá	712	San Antonio Palopó	9	San Antonio Palopo	9	Septiembre	2023-09-19T00:00:00	2024-11-08T06:00:00	6	Velocidad del viento	4.8
8230	7	Sololá	712	San Antonio Palopó	9	San Antonio Palopo	9	Septiembre	2023-09-19T00:00:00	2024-11-08T06:00:00	7	Dirección del viento	4.83
8231	7	Sololá	712	San Antonio Palopó	9	San Antonio Palopo	9	Septiembre	2023-09-19T00:00:00	2024-11-08T06:00:00	1	Precipitación	0
8232	7	Sololá	712	San Antonio Palopó	9	San Antonio Palopo	9	Septiembre	2023-09-19T00:00:00	2024-11-08T06:00:00	8	Radiación solar	0
8233	7	Sololá	712	San Antonio Palopó	9	San Antonio Palopo	9	Septiembre	2023-09-19T00:00:00	2024-11-08T07:00:00	2	Temperatura media	18.4
8234	7	Sololá	712	San Antonio Palopó	9	San Antonio Palopo	9	Septiembre	2023-09-19T00:00:00	2024-11-08T07:00:00	4	Temperatura máxima	18.7
8235	7	Sololá	712	San Antonio Palopó	9	San Antonio Palopo	9	Septiembre	2023-09-19T00:00:00	2024-11-08T07:00:00	3	Temperatura mínima	18
8236	7	Sololá	712	San Antonio Palopó	9	San Antonio Palopo	9	Septiembre	2023-09-19T00:00:00	2024-11-08T07:00:00	5	Humedad	64
8237	7	Sololá	712	San Antonio Palopó	9	San Antonio Palopo	9	Septiembre	2023-09-19T00:00:00	2024-11-08T07:00:00	6	Velocidad del viento	6.4
8238	7	Sololá	712	San Antonio Palopó	9	San Antonio Palopo	9	Septiembre	2023-09-19T00:00:00	2024-11-08T07:00:00	7	Dirección del viento	6.44
8239	7	Sololá	712	San Antonio Palopó	9	San Antonio Palopo	9	Septiembre	2023-09-19T00:00:00	2024-11-08T07:00:00	1	Precipitación	0
8240	7	Sololá	712	San Antonio Palopó	9	San Antonio Palopo	9	Septiembre	2023-09-19T00:00:00	2024-11-08T07:00:00	8	Radiación solar	24
8241	7	Sololá	712	San Antonio Palopó	9	San Antonio Palopo	9	Septiembre	2023-09-19T00:00:00	2024-11-08T08:00:00	2	Temperatura media	20.2
8242	7	Sololá	712	San Antonio Palopó	9	San Antonio Palopo	9	Septiembre	2023-09-19T00:00:00	2024-11-08T08:00:00	4	Temperatura máxima	20.2
8243	7	Sololá	712	San Antonio Palopó	9	San Antonio Palopo	9	Septiembre	2023-09-19T00:00:00	2024-11-08T08:00:00	3	Temperatura mínima	18.4
8244	7	Sololá	712	San Antonio Palopó	9	San Antonio Palopo	9	Septiembre	2023-09-19T00:00:00	2024-11-08T08:00:00	5	Humedad	60
8245	7	Sololá	712	San Antonio Palopó	9	San Antonio Palopo	9	Septiembre	2023-09-19T00:00:00	2024-11-08T08:00:00	6	Velocidad del viento	4.8
8246	7	Sololá	712	San Antonio Palopó	9	San Antonio Palopo	9	Septiembre	2023-09-19T00:00:00	2024-11-08T08:00:00	7	Dirección del viento	4.83
8247	7	Sololá	712	San Antonio Palopó	9	San Antonio Palopo	9	Septiembre	2023-09-19T00:00:00	2024-11-08T08:00:00	1	Precipitación	0
8248	7	Sololá	712	San Antonio Palopó	9	San Antonio Palopo	9	Septiembre	2023-09-19T00:00:00	2024-11-08T08:00:00	8	Radiación solar	120
8249	7	Sololá	712	San Antonio Palopó	9	San Antonio Palopo	9	Septiembre	2023-09-19T00:00:00	2024-11-08T09:00:00	2	Temperatura media	22.8
8250	7	Sololá	712	San Antonio Palopó	9	San Antonio Palopo	9	Septiembre	2023-09-19T00:00:00	2024-11-08T09:00:00	4	Temperatura máxima	22.8
8251	7	Sololá	712	San Antonio Palopó	9	San Antonio Palopo	9	Septiembre	2023-09-19T00:00:00	2024-11-08T09:00:00	3	Temperatura mínima	20.2
8252	7	Sololá	712	San Antonio Palopó	9	San Antonio Palopo	9	Septiembre	2023-09-19T00:00:00	2024-11-08T09:00:00	5	Humedad	58
8253	7	Sololá	712	San Antonio Palopó	9	San Antonio Palopo	9	Septiembre	2023-09-19T00:00:00	2024-11-08T09:00:00	6	Velocidad del viento	1.6
8254	7	Sololá	712	San Antonio Palopó	9	San Antonio Palopo	9	Septiembre	2023-09-19T00:00:00	2024-11-08T09:00:00	7	Dirección del viento	1.61
8255	7	Sololá	712	San Antonio Palopó	9	San Antonio Palopo	9	Septiembre	2023-09-19T00:00:00	2024-11-08T09:00:00	1	Precipitación	0
8256	7	Sololá	712	San Antonio Palopó	9	San Antonio Palopo	9	Septiembre	2023-09-19T00:00:00	2024-11-08T09:00:00	8	Radiación solar	444
8257	7	Sololá	712	San Antonio Palopó	9	San Antonio Palopo	9	Septiembre	2023-09-19T00:00:00	2024-11-08T10:00:00	2	Temperatura media	23.8
8258	7	Sololá	712	San Antonio Palopó	9	San Antonio Palopo	9	Septiembre	2023-09-19T00:00:00	2024-11-08T10:00:00	4	Temperatura máxima	23.9
8259	7	Sololá	712	San Antonio Palopó	9	San Antonio Palopo	9	Septiembre	2023-09-19T00:00:00	2024-11-08T10:00:00	3	Temperatura mínima	22.7
8260	7	Sololá	712	San Antonio Palopó	9	San Antonio Palopo	9	Septiembre	2023-09-19T00:00:00	2024-11-08T10:00:00	5	Humedad	54
8261	7	Sololá	712	San Antonio Palopó	9	San Antonio Palopo	9	Septiembre	2023-09-19T00:00:00	2024-11-08T10:00:00	6	Velocidad del viento	1.6
8262	7	Sololá	712	San Antonio Palopó	9	San Antonio Palopo	9	Septiembre	2023-09-19T00:00:00	2024-11-08T10:00:00	7	Dirección del viento	1.61
8263	7	Sololá	712	San Antonio Palopó	9	San Antonio Palopo	9	Septiembre	2023-09-19T00:00:00	2024-11-08T10:00:00	1	Precipitación	0
8264	7	Sololá	712	San Antonio Palopó	9	San Antonio Palopo	9	Septiembre	2023-09-19T00:00:00	2024-11-08T10:00:00	8	Radiación solar	623
8265	7	Sololá	712	San Antonio Palopó	9	San Antonio Palopo	9	Septiembre	2023-09-19T00:00:00	2024-11-08T11:00:00	2	Temperatura media	24.4
8266	7	Sololá	712	San Antonio Palopó	9	San Antonio Palopo	9	Septiembre	2023-09-19T00:00:00	2024-11-08T11:00:00	4	Temperatura máxima	24.9
8267	7	Sololá	712	San Antonio Palopó	9	San Antonio Palopo	9	Septiembre	2023-09-19T00:00:00	2024-11-08T11:00:00	3	Temperatura mínima	23.7
8268	7	Sololá	712	San Antonio Palopó	9	San Antonio Palopo	9	Septiembre	2023-09-19T00:00:00	2024-11-08T11:00:00	5	Humedad	58
8269	7	Sololá	712	San Antonio Palopó	9	San Antonio Palopo	9	Septiembre	2023-09-19T00:00:00	2024-11-08T11:00:00	6	Velocidad del viento	4.8
8270	7	Sololá	712	San Antonio Palopó	9	San Antonio Palopo	9	Septiembre	2023-09-19T00:00:00	2024-11-08T11:00:00	7	Dirección del viento	4.83
8271	7	Sololá	712	San Antonio Palopó	9	San Antonio Palopo	9	Septiembre	2023-09-19T00:00:00	2024-11-08T11:00:00	1	Precipitación	0
8272	7	Sololá	712	San Antonio Palopó	9	San Antonio Palopo	9	Septiembre	2023-09-19T00:00:00	2024-11-08T11:00:00	8	Radiación solar	854
8273	7	Sololá	712	San Antonio Palopó	9	San Antonio Palopo	9	Septiembre	2023-09-19T00:00:00	2024-11-08T12:00:00	2	Temperatura media	26.2
8274	7	Sololá	712	San Antonio Palopó	9	San Antonio Palopo	9	Septiembre	2023-09-19T00:00:00	2024-11-08T12:00:00	4	Temperatura máxima	26.2
8275	7	Sololá	712	San Antonio Palopó	9	San Antonio Palopo	9	Septiembre	2023-09-19T00:00:00	2024-11-08T12:00:00	3	Temperatura mínima	24.2
8276	7	Sololá	712	San Antonio Palopó	9	San Antonio Palopo	9	Septiembre	2023-09-19T00:00:00	2024-11-08T12:00:00	5	Humedad	40
8277	7	Sololá	712	San Antonio Palopó	9	San Antonio Palopo	9	Septiembre	2023-09-19T00:00:00	2024-11-08T12:00:00	6	Velocidad del viento	6.4
8278	7	Sololá	712	San Antonio Palopó	9	San Antonio Palopo	9	Septiembre	2023-09-19T00:00:00	2024-11-08T12:00:00	7	Dirección del viento	6.44
8279	7	Sololá	712	San Antonio Palopó	9	San Antonio Palopo	9	Septiembre	2023-09-19T00:00:00	2024-11-08T12:00:00	1	Precipitación	0
8280	7	Sololá	712	San Antonio Palopó	9	San Antonio Palopo	9	Septiembre	2023-09-19T00:00:00	2024-11-08T12:00:00	8	Radiación solar	928
8281	7	Sololá	712	San Antonio Palopó	9	San Antonio Palopo	9	Septiembre	2023-09-19T00:00:00	2024-11-08T13:00:00	2	Temperatura media	26.3
8282	7	Sololá	712	San Antonio Palopó	9	San Antonio Palopo	9	Septiembre	2023-09-19T00:00:00	2024-11-08T13:00:00	4	Temperatura máxima	26.5
8283	7	Sololá	712	San Antonio Palopó	9	San Antonio Palopo	9	Septiembre	2023-09-19T00:00:00	2024-11-08T13:00:00	3	Temperatura mínima	25.4
8284	7	Sololá	712	San Antonio Palopó	9	San Antonio Palopo	9	Septiembre	2023-09-19T00:00:00	2024-11-08T13:00:00	5	Humedad	59
8285	7	Sololá	712	San Antonio Palopó	9	San Antonio Palopo	9	Septiembre	2023-09-19T00:00:00	2024-11-08T13:00:00	6	Velocidad del viento	11.3
8286	7	Sololá	712	San Antonio Palopó	9	San Antonio Palopo	9	Septiembre	2023-09-19T00:00:00	2024-11-08T13:00:00	7	Dirección del viento	11.27
8287	7	Sololá	712	San Antonio Palopó	9	San Antonio Palopo	9	Septiembre	2023-09-19T00:00:00	2024-11-08T13:00:00	1	Precipitación	0
8288	7	Sololá	712	San Antonio Palopó	9	San Antonio Palopo	9	Septiembre	2023-09-19T00:00:00	2024-11-08T13:00:00	8	Radiación solar	912
8289	7	Sololá	712	San Antonio Palopó	9	San Antonio Palopo	9	Septiembre	2023-09-19T00:00:00	2024-11-08T14:00:00	2	Temperatura media	24.7
8290	7	Sololá	712	San Antonio Palopó	9	San Antonio Palopo	9	Septiembre	2023-09-19T00:00:00	2024-11-08T14:00:00	4	Temperatura máxima	26.2
8291	7	Sololá	712	San Antonio Palopó	9	San Antonio Palopo	9	Septiembre	2023-09-19T00:00:00	2024-11-08T14:00:00	3	Temperatura mínima	24.5
8292	7	Sololá	712	San Antonio Palopó	9	San Antonio Palopo	9	Septiembre	2023-09-19T00:00:00	2024-11-08T14:00:00	5	Humedad	63
8293	7	Sololá	712	San Antonio Palopó	9	San Antonio Palopo	9	Septiembre	2023-09-19T00:00:00	2024-11-08T14:00:00	6	Velocidad del viento	12.9
8294	7	Sololá	712	San Antonio Palopó	9	San Antonio Palopo	9	Septiembre	2023-09-19T00:00:00	2024-11-08T14:00:00	7	Dirección del viento	12.87
8295	7	Sololá	712	San Antonio Palopó	9	San Antonio Palopo	9	Septiembre	2023-09-19T00:00:00	2024-11-08T14:00:00	1	Precipitación	0
8296	7	Sololá	712	San Antonio Palopó	9	San Antonio Palopo	9	Septiembre	2023-09-19T00:00:00	2024-11-08T14:00:00	8	Radiación solar	826
8297	7	Sololá	712	San Antonio Palopó	9	San Antonio Palopo	9	Septiembre	2023-09-19T00:00:00	2024-11-08T15:00:00	2	Temperatura media	23.9
8298	7	Sololá	712	San Antonio Palopó	9	San Antonio Palopo	9	Septiembre	2023-09-19T00:00:00	2024-11-08T15:00:00	4	Temperatura máxima	24.8
8299	7	Sololá	712	San Antonio Palopó	9	San Antonio Palopo	9	Septiembre	2023-09-19T00:00:00	2024-11-08T15:00:00	3	Temperatura mínima	23.8
8300	7	Sololá	712	San Antonio Palopó	9	San Antonio Palopo	9	Septiembre	2023-09-19T00:00:00	2024-11-08T15:00:00	5	Humedad	68
8301	7	Sololá	712	San Antonio Palopó	9	San Antonio Palopo	9	Septiembre	2023-09-19T00:00:00	2024-11-08T15:00:00	6	Velocidad del viento	17.7
8302	7	Sololá	712	San Antonio Palopó	9	San Antonio Palopo	9	Septiembre	2023-09-19T00:00:00	2024-11-08T15:00:00	7	Dirección del viento	17.7
8303	7	Sololá	712	San Antonio Palopó	9	San Antonio Palopo	9	Septiembre	2023-09-19T00:00:00	2024-11-08T15:00:00	1	Precipitación	0
8304	7	Sololá	712	San Antonio Palopó	9	San Antonio Palopo	9	Septiembre	2023-09-19T00:00:00	2024-11-08T15:00:00	8	Radiación solar	674
8305	7	Sololá	712	San Antonio Palopó	9	San Antonio Palopo	9	Septiembre	2023-09-19T00:00:00	2024-11-08T16:00:00	2	Temperatura media	23.3
8306	7	Sololá	712	San Antonio Palopó	9	San Antonio Palopo	9	Septiembre	2023-09-19T00:00:00	2024-11-08T16:00:00	4	Temperatura máxima	25
8307	7	Sololá	712	San Antonio Palopó	9	San Antonio Palopo	9	Septiembre	2023-09-19T00:00:00	2024-11-08T16:00:00	3	Temperatura mínima	23.1
8308	7	Sololá	712	San Antonio Palopó	9	San Antonio Palopo	9	Septiembre	2023-09-19T00:00:00	2024-11-08T16:00:00	5	Humedad	74
8309	7	Sololá	712	San Antonio Palopó	9	San Antonio Palopo	9	Septiembre	2023-09-19T00:00:00	2024-11-08T16:00:00	6	Velocidad del viento	12.9
8310	7	Sololá	712	San Antonio Palopó	9	San Antonio Palopo	9	Septiembre	2023-09-19T00:00:00	2024-11-08T16:00:00	7	Dirección del viento	12.87
8311	7	Sololá	712	San Antonio Palopó	9	San Antonio Palopo	9	Septiembre	2023-09-19T00:00:00	2024-11-08T16:00:00	1	Precipitación	0
8312	7	Sololá	712	San Antonio Palopó	9	San Antonio Palopo	9	Septiembre	2023-09-19T00:00:00	2024-11-08T16:00:00	8	Radiación solar	435
8313	7	Sololá	712	San Antonio Palopó	9	San Antonio Palopo	9	Septiembre	2023-09-19T00:00:00	2024-11-08T17:00:00	2	Temperatura media	24.4
8314	7	Sololá	712	San Antonio Palopó	9	San Antonio Palopo	9	Septiembre	2023-09-19T00:00:00	2024-11-08T17:00:00	4	Temperatura máxima	25.1
8315	7	Sololá	712	San Antonio Palopó	9	San Antonio Palopo	9	Septiembre	2023-09-19T00:00:00	2024-11-08T17:00:00	3	Temperatura mínima	23.3
8316	7	Sololá	712	San Antonio Palopó	9	San Antonio Palopo	9	Septiembre	2023-09-19T00:00:00	2024-11-08T17:00:00	5	Humedad	70
8317	7	Sololá	712	San Antonio Palopó	9	San Antonio Palopo	9	Septiembre	2023-09-19T00:00:00	2024-11-08T17:00:00	6	Velocidad del viento	6.4
8318	7	Sololá	712	San Antonio Palopó	9	San Antonio Palopo	9	Septiembre	2023-09-19T00:00:00	2024-11-08T17:00:00	7	Dirección del viento	6.44
8319	7	Sololá	712	San Antonio Palopó	9	San Antonio Palopo	9	Septiembre	2023-09-19T00:00:00	2024-11-08T17:00:00	1	Precipitación	0
8320	7	Sololá	712	San Antonio Palopó	9	San Antonio Palopo	9	Septiembre	2023-09-19T00:00:00	2024-11-08T17:00:00	8	Radiación solar	302
8321	7	Sololá	712	San Antonio Palopó	9	San Antonio Palopo	9	Septiembre	2023-09-19T00:00:00	2024-11-08T18:00:00	2	Temperatura media	21.9
8322	7	Sololá	712	San Antonio Palopó	9	San Antonio Palopo	9	Septiembre	2023-09-19T00:00:00	2024-11-08T18:00:00	4	Temperatura máxima	24.4
8323	7	Sololá	712	San Antonio Palopó	9	San Antonio Palopo	9	Septiembre	2023-09-19T00:00:00	2024-11-08T18:00:00	3	Temperatura mínima	21.9
8324	7	Sololá	712	San Antonio Palopó	9	San Antonio Palopo	9	Septiembre	2023-09-19T00:00:00	2024-11-08T18:00:00	5	Humedad	76
8325	7	Sololá	712	San Antonio Palopó	9	San Antonio Palopo	9	Septiembre	2023-09-19T00:00:00	2024-11-08T18:00:00	6	Velocidad del viento	4.8
8326	7	Sololá	712	San Antonio Palopó	9	San Antonio Palopo	9	Septiembre	2023-09-19T00:00:00	2024-11-08T18:00:00	7	Dirección del viento	4.83
8327	7	Sololá	712	San Antonio Palopó	9	San Antonio Palopo	9	Septiembre	2023-09-19T00:00:00	2024-11-08T18:00:00	1	Precipitación	0
8328	7	Sololá	712	San Antonio Palopó	9	San Antonio Palopo	9	Septiembre	2023-09-19T00:00:00	2024-11-08T18:00:00	8	Radiación solar	49
8329	7	Sololá	712	San Antonio Palopó	9	San Antonio Palopo	9	Septiembre	2023-09-19T00:00:00	2024-11-08T19:00:00	2	Temperatura media	21.1
8330	7	Sololá	712	San Antonio Palopó	9	San Antonio Palopo	9	Septiembre	2023-09-19T00:00:00	2024-11-08T19:00:00	4	Temperatura máxima	21.9
8331	7	Sololá	712	San Antonio Palopó	9	San Antonio Palopo	9	Septiembre	2023-09-19T00:00:00	2024-11-08T19:00:00	3	Temperatura mínima	21.1
8332	7	Sololá	712	San Antonio Palopó	9	San Antonio Palopo	9	Septiembre	2023-09-19T00:00:00	2024-11-08T19:00:00	5	Humedad	76
8333	7	Sololá	712	San Antonio Palopó	9	San Antonio Palopo	9	Septiembre	2023-09-19T00:00:00	2024-11-08T19:00:00	6	Velocidad del viento	3.2
8334	7	Sololá	712	San Antonio Palopó	9	San Antonio Palopo	9	Septiembre	2023-09-19T00:00:00	2024-11-08T19:00:00	7	Dirección del viento	3.22
8335	7	Sololá	712	San Antonio Palopó	9	San Antonio Palopo	9	Septiembre	2023-09-19T00:00:00	2024-11-08T19:00:00	1	Precipitación	0
8336	7	Sololá	712	San Antonio Palopó	9	San Antonio Palopo	9	Septiembre	2023-09-19T00:00:00	2024-11-08T19:00:00	8	Radiación solar	0
8337	7	Sololá	712	San Antonio Palopó	9	San Antonio Palopo	9	Septiembre	2023-09-19T00:00:00	2024-11-08T20:00:00	2	Temperatura media	20.3
8338	7	Sololá	712	San Antonio Palopó	9	San Antonio Palopo	9	Septiembre	2023-09-19T00:00:00	2024-11-08T20:00:00	4	Temperatura máxima	21.1
8339	7	Sololá	712	San Antonio Palopó	9	San Antonio Palopo	9	Septiembre	2023-09-19T00:00:00	2024-11-08T20:00:00	3	Temperatura mínima	20.3
8340	7	Sololá	712	San Antonio Palopó	9	San Antonio Palopo	9	Septiembre	2023-09-19T00:00:00	2024-11-08T20:00:00	5	Humedad	76
8341	7	Sololá	712	San Antonio Palopó	9	San Antonio Palopo	9	Septiembre	2023-09-19T00:00:00	2024-11-08T20:00:00	6	Velocidad del viento	3.2
8342	7	Sololá	712	San Antonio Palopó	9	San Antonio Palopo	9	Septiembre	2023-09-19T00:00:00	2024-11-08T20:00:00	7	Dirección del viento	3.22
8343	7	Sololá	712	San Antonio Palopó	9	San Antonio Palopo	9	Septiembre	2023-09-19T00:00:00	2024-11-08T20:00:00	1	Precipitación	0
8344	7	Sololá	712	San Antonio Palopó	9	San Antonio Palopo	9	Septiembre	2023-09-19T00:00:00	2024-11-08T20:00:00	8	Radiación solar	0
8345	7	Sololá	712	San Antonio Palopó	9	San Antonio Palopo	9	Septiembre	2023-09-19T00:00:00	2024-11-08T21:00:00	2	Temperatura media	20.7
8346	7	Sololá	712	San Antonio Palopó	9	San Antonio Palopo	9	Septiembre	2023-09-19T00:00:00	2024-11-08T21:00:00	4	Temperatura máxima	21
8347	7	Sololá	712	San Antonio Palopó	9	San Antonio Palopo	9	Septiembre	2023-09-19T00:00:00	2024-11-08T21:00:00	3	Temperatura mínima	20.1
8348	7	Sololá	712	San Antonio Palopó	9	San Antonio Palopo	9	Septiembre	2023-09-19T00:00:00	2024-11-08T21:00:00	5	Humedad	71
8349	7	Sololá	712	San Antonio Palopó	9	San Antonio Palopo	9	Septiembre	2023-09-19T00:00:00	2024-11-08T21:00:00	6	Velocidad del viento	4.8
8350	7	Sololá	712	San Antonio Palopó	9	San Antonio Palopo	9	Septiembre	2023-09-19T00:00:00	2024-11-08T21:00:00	7	Dirección del viento	4.83
8351	7	Sololá	712	San Antonio Palopó	9	San Antonio Palopo	9	Septiembre	2023-09-19T00:00:00	2024-11-08T21:00:00	1	Precipitación	0
8352	7	Sololá	712	San Antonio Palopó	9	San Antonio Palopo	9	Septiembre	2023-09-19T00:00:00	2024-11-08T21:00:00	8	Radiación solar	0
8353	7	Sololá	712	San Antonio Palopó	9	San Antonio Palopo	9	Septiembre	2023-09-19T00:00:00	2024-11-08T22:00:00	2	Temperatura media	20.2
8354	7	Sololá	712	San Antonio Palopó	9	San Antonio Palopo	9	Septiembre	2023-09-19T00:00:00	2024-11-08T22:00:00	4	Temperatura máxima	20.8
8355	7	Sololá	712	San Antonio Palopó	9	San Antonio Palopo	9	Septiembre	2023-09-19T00:00:00	2024-11-08T22:00:00	3	Temperatura mínima	20.2
8356	7	Sololá	712	San Antonio Palopó	9	San Antonio Palopo	9	Septiembre	2023-09-19T00:00:00	2024-11-08T22:00:00	5	Humedad	71
8357	7	Sololá	712	San Antonio Palopó	9	San Antonio Palopo	9	Septiembre	2023-09-19T00:00:00	2024-11-08T22:00:00	6	Velocidad del viento	9.7
8358	7	Sololá	712	San Antonio Palopó	9	San Antonio Palopo	9	Septiembre	2023-09-19T00:00:00	2024-11-08T22:00:00	7	Dirección del viento	9.66
8359	7	Sololá	712	San Antonio Palopó	9	San Antonio Palopo	9	Septiembre	2023-09-19T00:00:00	2024-11-08T22:00:00	1	Precipitación	0
8360	7	Sololá	712	San Antonio Palopó	9	San Antonio Palopo	9	Septiembre	2023-09-19T00:00:00	2024-11-08T22:00:00	8	Radiación solar	0
8361	7	Sololá	712	San Antonio Palopó	9	San Antonio Palopo	9	Septiembre	2023-09-19T00:00:00	2024-11-08T23:00:00	2	Temperatura media	19.8
8362	7	Sololá	712	San Antonio Palopó	9	San Antonio Palopo	9	Septiembre	2023-09-19T00:00:00	2024-11-08T23:00:00	4	Temperatura máxima	20.3
8363	7	Sololá	712	San Antonio Palopó	9	San Antonio Palopo	9	Septiembre	2023-09-19T00:00:00	2024-11-08T23:00:00	3	Temperatura mínima	19.7
8364	7	Sololá	712	San Antonio Palopó	9	San Antonio Palopo	9	Septiembre	2023-09-19T00:00:00	2024-11-08T23:00:00	5	Humedad	72
8365	7	Sololá	712	San Antonio Palopó	9	San Antonio Palopo	9	Septiembre	2023-09-19T00:00:00	2024-11-08T23:00:00	6	Velocidad del viento	12.9
8366	7	Sololá	712	San Antonio Palopó	9	San Antonio Palopo	9	Septiembre	2023-09-19T00:00:00	2024-11-08T23:00:00	7	Dirección del viento	12.87
8367	7	Sololá	712	San Antonio Palopó	9	San Antonio Palopo	9	Septiembre	2023-09-19T00:00:00	2024-11-08T23:00:00	1	Precipitación	0
8368	7	Sololá	712	San Antonio Palopó	9	San Antonio Palopo	9	Septiembre	2023-09-19T00:00:00	2024-11-08T23:00:00	8	Radiación solar	0
8369	7	Sololá	712	San Antonio Palopó	9	San Antonio Palopo	9	Septiembre	2023-09-20T00:00:00	2024-11-08T00:00:00	2	Temperatura media	19.4
8370	7	Sololá	712	San Antonio Palopó	9	San Antonio Palopo	9	Septiembre	2023-09-20T00:00:00	2024-11-08T00:00:00	4	Temperatura máxima	19.8
8371	7	Sololá	712	San Antonio Palopó	9	San Antonio Palopo	9	Septiembre	2023-09-20T00:00:00	2024-11-08T00:00:00	3	Temperatura mínima	19.3
8372	7	Sololá	712	San Antonio Palopó	9	San Antonio Palopo	9	Septiembre	2023-09-20T00:00:00	2024-11-08T00:00:00	5	Humedad	71
8373	7	Sololá	712	San Antonio Palopó	9	San Antonio Palopo	9	Septiembre	2023-09-20T00:00:00	2024-11-08T00:00:00	6	Velocidad del viento	11.3
8374	7	Sololá	712	San Antonio Palopó	9	San Antonio Palopo	9	Septiembre	2023-09-20T00:00:00	2024-11-08T00:00:00	7	Dirección del viento	11.27
8375	7	Sololá	712	San Antonio Palopó	9	San Antonio Palopo	9	Septiembre	2023-09-20T00:00:00	2024-11-08T00:00:00	1	Precipitación	0
8376	7	Sololá	712	San Antonio Palopó	9	San Antonio Palopo	9	Septiembre	2023-09-20T00:00:00	2024-11-08T00:00:00	8	Radiación solar	0
8377	7	Sololá	712	San Antonio Palopó	9	San Antonio Palopo	9	Septiembre	2023-09-20T00:00:00	2024-11-08T01:00:00	2	Temperatura media	19.1
8378	7	Sololá	712	San Antonio Palopó	9	San Antonio Palopo	9	Septiembre	2023-09-20T00:00:00	2024-11-08T01:00:00	4	Temperatura máxima	19.4
8379	7	Sololá	712	San Antonio Palopó	9	San Antonio Palopo	9	Septiembre	2023-09-20T00:00:00	2024-11-08T01:00:00	3	Temperatura mínima	19.1
8380	7	Sololá	712	San Antonio Palopó	9	San Antonio Palopo	9	Septiembre	2023-09-20T00:00:00	2024-11-08T01:00:00	5	Humedad	71
8381	7	Sololá	712	San Antonio Palopó	9	San Antonio Palopo	9	Septiembre	2023-09-20T00:00:00	2024-11-08T01:00:00	6	Velocidad del viento	6.4
8382	7	Sololá	712	San Antonio Palopó	9	San Antonio Palopo	9	Septiembre	2023-09-20T00:00:00	2024-11-08T01:00:00	7	Dirección del viento	6.44
8383	7	Sololá	712	San Antonio Palopó	9	San Antonio Palopo	9	Septiembre	2023-09-20T00:00:00	2024-11-08T01:00:00	1	Precipitación	0
8384	7	Sololá	712	San Antonio Palopó	9	San Antonio Palopo	9	Septiembre	2023-09-20T00:00:00	2024-11-08T01:00:00	8	Radiación solar	0
8385	7	Sololá	712	San Antonio Palopó	9	San Antonio Palopo	9	Septiembre	2023-09-20T00:00:00	2024-11-08T02:00:00	2	Temperatura media	18.9
8386	7	Sololá	712	San Antonio Palopó	9	San Antonio Palopo	9	Septiembre	2023-09-20T00:00:00	2024-11-08T02:00:00	4	Temperatura máxima	19.2
8387	7	Sololá	712	San Antonio Palopó	9	San Antonio Palopo	9	Septiembre	2023-09-20T00:00:00	2024-11-08T02:00:00	3	Temperatura mínima	18.7
8388	7	Sololá	712	San Antonio Palopó	9	San Antonio Palopo	9	Septiembre	2023-09-20T00:00:00	2024-11-08T02:00:00	5	Humedad	70
8389	7	Sololá	712	San Antonio Palopó	9	San Antonio Palopo	9	Septiembre	2023-09-20T00:00:00	2024-11-08T02:00:00	6	Velocidad del viento	6.4
8390	7	Sololá	712	San Antonio Palopó	9	San Antonio Palopo	9	Septiembre	2023-09-20T00:00:00	2024-11-08T02:00:00	7	Dirección del viento	6.44
8391	7	Sololá	712	San Antonio Palopó	9	San Antonio Palopo	9	Septiembre	2023-09-20T00:00:00	2024-11-08T02:00:00	1	Precipitación	0
8392	7	Sololá	712	San Antonio Palopó	9	San Antonio Palopo	9	Septiembre	2023-09-20T00:00:00	2024-11-08T02:00:00	8	Radiación solar	0
8393	7	Sololá	712	San Antonio Palopó	9	San Antonio Palopo	9	Septiembre	2023-09-20T00:00:00	2024-11-08T03:00:00	2	Temperatura media	18.8
8394	7	Sololá	712	San Antonio Palopó	9	San Antonio Palopo	9	Septiembre	2023-09-20T00:00:00	2024-11-08T03:00:00	4	Temperatura máxima	19.4
8395	7	Sololá	712	San Antonio Palopó	9	San Antonio Palopo	9	Septiembre	2023-09-20T00:00:00	2024-11-08T03:00:00	3	Temperatura mínima	18.8
8396	7	Sololá	712	San Antonio Palopó	9	San Antonio Palopo	9	Septiembre	2023-09-20T00:00:00	2024-11-08T03:00:00	5	Humedad	72
8397	7	Sololá	712	San Antonio Palopó	9	San Antonio Palopo	9	Septiembre	2023-09-20T00:00:00	2024-11-08T03:00:00	6	Velocidad del viento	8
8398	7	Sololá	712	San Antonio Palopó	9	San Antonio Palopo	9	Septiembre	2023-09-20T00:00:00	2024-11-08T03:00:00	7	Dirección del viento	8.05
8399	7	Sololá	712	San Antonio Palopó	9	San Antonio Palopo	9	Septiembre	2023-09-20T00:00:00	2024-11-08T03:00:00	1	Precipitación	0
8400	7	Sololá	712	San Antonio Palopó	9	San Antonio Palopo	9	Septiembre	2023-09-20T00:00:00	2024-11-08T03:00:00	8	Radiación solar	0
8401	7	Sololá	712	San Antonio Palopó	9	San Antonio Palopo	9	Septiembre	2023-09-20T00:00:00	2024-11-08T04:00:00	2	Temperatura media	18.6
8402	7	Sololá	712	San Antonio Palopó	9	San Antonio Palopo	9	Septiembre	2023-09-20T00:00:00	2024-11-08T04:00:00	4	Temperatura máxima	18.8
8403	7	Sololá	712	San Antonio Palopó	9	San Antonio Palopo	9	Septiembre	2023-09-20T00:00:00	2024-11-08T04:00:00	3	Temperatura mínima	18.6
8404	7	Sololá	712	San Antonio Palopó	9	San Antonio Palopo	9	Septiembre	2023-09-20T00:00:00	2024-11-08T04:00:00	5	Humedad	72
8405	7	Sololá	712	San Antonio Palopó	9	San Antonio Palopo	9	Septiembre	2023-09-20T00:00:00	2024-11-08T04:00:00	6	Velocidad del viento	8
8406	7	Sololá	712	San Antonio Palopó	9	San Antonio Palopo	9	Septiembre	2023-09-20T00:00:00	2024-11-08T04:00:00	7	Dirección del viento	8.05
8407	7	Sololá	712	San Antonio Palopó	9	San Antonio Palopo	9	Septiembre	2023-09-20T00:00:00	2024-11-08T04:00:00	1	Precipitación	0
8408	7	Sololá	712	San Antonio Palopó	9	San Antonio Palopo	9	Septiembre	2023-09-20T00:00:00	2024-11-08T04:00:00	8	Radiación solar	0
8409	7	Sololá	712	San Antonio Palopó	9	San Antonio Palopo	9	Septiembre	2023-09-20T00:00:00	2024-11-08T05:00:00	2	Temperatura media	18.3
8410	7	Sololá	712	San Antonio Palopó	9	San Antonio Palopo	9	Septiembre	2023-09-20T00:00:00	2024-11-08T05:00:00	4	Temperatura máxima	18.6
8411	7	Sololá	712	San Antonio Palopó	9	San Antonio Palopo	9	Septiembre	2023-09-20T00:00:00	2024-11-08T05:00:00	3	Temperatura mínima	18.1
8412	7	Sololá	712	San Antonio Palopó	9	San Antonio Palopo	9	Septiembre	2023-09-20T00:00:00	2024-11-08T05:00:00	5	Humedad	73
8413	7	Sololá	712	San Antonio Palopó	9	San Antonio Palopo	9	Septiembre	2023-09-20T00:00:00	2024-11-08T05:00:00	6	Velocidad del viento	4.8
8414	7	Sololá	712	San Antonio Palopó	9	San Antonio Palopo	9	Septiembre	2023-09-20T00:00:00	2024-11-08T05:00:00	7	Dirección del viento	4.83
8415	7	Sololá	712	San Antonio Palopó	9	San Antonio Palopo	9	Septiembre	2023-09-20T00:00:00	2024-11-08T05:00:00	1	Precipitación	0
8416	7	Sololá	712	San Antonio Palopó	9	San Antonio Palopo	9	Septiembre	2023-09-20T00:00:00	2024-11-08T05:00:00	8	Radiación solar	0
8417	7	Sololá	712	San Antonio Palopó	9	San Antonio Palopo	9	Septiembre	2023-09-20T00:00:00	2024-11-08T06:00:00	2	Temperatura media	17.9
8418	7	Sololá	712	San Antonio Palopó	9	San Antonio Palopo	9	Septiembre	2023-09-20T00:00:00	2024-11-08T06:00:00	4	Temperatura máxima	18.3
8419	7	Sololá	712	San Antonio Palopó	9	San Antonio Palopo	9	Septiembre	2023-09-20T00:00:00	2024-11-08T06:00:00	3	Temperatura mínima	17.8
8420	7	Sololá	712	San Antonio Palopó	9	San Antonio Palopo	9	Septiembre	2023-09-20T00:00:00	2024-11-08T06:00:00	5	Humedad	72
8421	7	Sololá	712	San Antonio Palopó	9	San Antonio Palopo	9	Septiembre	2023-09-20T00:00:00	2024-11-08T06:00:00	6	Velocidad del viento	3.2
8422	7	Sololá	712	San Antonio Palopó	9	San Antonio Palopo	9	Septiembre	2023-09-20T00:00:00	2024-11-08T06:00:00	7	Dirección del viento	3.22
8423	7	Sololá	712	San Antonio Palopó	9	San Antonio Palopo	9	Septiembre	2023-09-20T00:00:00	2024-11-08T06:00:00	1	Precipitación	0
8424	7	Sololá	712	San Antonio Palopó	9	San Antonio Palopo	9	Septiembre	2023-09-20T00:00:00	2024-11-08T06:00:00	8	Radiación solar	0
8425	7	Sololá	712	San Antonio Palopó	9	San Antonio Palopo	9	Septiembre	2023-09-20T00:00:00	2024-11-08T07:00:00	2	Temperatura media	18.8
8426	7	Sololá	712	San Antonio Palopó	9	San Antonio Palopo	9	Septiembre	2023-09-20T00:00:00	2024-11-08T07:00:00	4	Temperatura máxima	18.8
8427	7	Sololá	712	San Antonio Palopó	9	San Antonio Palopo	9	Septiembre	2023-09-20T00:00:00	2024-11-08T07:00:00	3	Temperatura mínima	17.7
8428	7	Sololá	712	San Antonio Palopó	9	San Antonio Palopo	9	Septiembre	2023-09-20T00:00:00	2024-11-08T07:00:00	5	Humedad	70
8429	7	Sololá	712	San Antonio Palopó	9	San Antonio Palopo	9	Septiembre	2023-09-20T00:00:00	2024-11-08T07:00:00	6	Velocidad del viento	9.7
8430	7	Sololá	712	San Antonio Palopó	9	San Antonio Palopo	9	Septiembre	2023-09-20T00:00:00	2024-11-08T07:00:00	7	Dirección del viento	9.66
8431	7	Sololá	712	San Antonio Palopó	9	San Antonio Palopo	9	Septiembre	2023-09-20T00:00:00	2024-11-08T07:00:00	1	Precipitación	0
8432	7	Sololá	712	San Antonio Palopó	9	San Antonio Palopo	9	Septiembre	2023-09-20T00:00:00	2024-11-08T07:00:00	8	Radiación solar	35
8433	7	Sololá	712	San Antonio Palopó	9	San Antonio Palopo	9	Septiembre	2023-09-20T00:00:00	2024-11-08T08:00:00	2	Temperatura media	20.3
8434	7	Sololá	712	San Antonio Palopó	9	San Antonio Palopo	9	Septiembre	2023-09-20T00:00:00	2024-11-08T08:00:00	4	Temperatura máxima	20.3
8435	7	Sololá	712	San Antonio Palopó	9	San Antonio Palopo	9	Septiembre	2023-09-20T00:00:00	2024-11-08T08:00:00	3	Temperatura mínima	18.8
8436	7	Sololá	712	San Antonio Palopó	9	San Antonio Palopo	9	Septiembre	2023-09-20T00:00:00	2024-11-08T08:00:00	5	Humedad	69
8437	7	Sololá	712	San Antonio Palopó	9	San Antonio Palopo	9	Septiembre	2023-09-20T00:00:00	2024-11-08T08:00:00	6	Velocidad del viento	3.2
8438	7	Sololá	712	San Antonio Palopó	9	San Antonio Palopo	9	Septiembre	2023-09-20T00:00:00	2024-11-08T08:00:00	7	Dirección del viento	3.22
8439	7	Sololá	712	San Antonio Palopó	9	San Antonio Palopo	9	Septiembre	2023-09-20T00:00:00	2024-11-08T08:00:00	1	Precipitación	0
8440	7	Sololá	712	San Antonio Palopó	9	San Antonio Palopo	9	Septiembre	2023-09-20T00:00:00	2024-11-08T08:00:00	8	Radiación solar	135
8441	7	Sololá	712	San Antonio Palopó	9	San Antonio Palopo	9	Septiembre	2023-09-20T00:00:00	2024-11-08T09:00:00	2	Temperatura media	22.7
8442	7	Sololá	712	San Antonio Palopó	9	San Antonio Palopo	9	Septiembre	2023-09-20T00:00:00	2024-11-08T09:00:00	4	Temperatura máxima	22.7
8443	7	Sololá	712	San Antonio Palopó	9	San Antonio Palopo	9	Septiembre	2023-09-20T00:00:00	2024-11-08T09:00:00	3	Temperatura mínima	20.3
8444	7	Sololá	712	San Antonio Palopó	9	San Antonio Palopo	9	Septiembre	2023-09-20T00:00:00	2024-11-08T09:00:00	5	Humedad	64
8445	7	Sololá	712	San Antonio Palopó	9	San Antonio Palopo	9	Septiembre	2023-09-20T00:00:00	2024-11-08T09:00:00	6	Velocidad del viento	1.6
8446	7	Sololá	712	San Antonio Palopó	9	San Antonio Palopo	9	Septiembre	2023-09-20T00:00:00	2024-11-08T09:00:00	7	Dirección del viento	1.61
8447	7	Sololá	712	San Antonio Palopó	9	San Antonio Palopo	9	Septiembre	2023-09-20T00:00:00	2024-11-08T09:00:00	1	Precipitación	0
8448	7	Sololá	712	San Antonio Palopó	9	San Antonio Palopo	9	Septiembre	2023-09-20T00:00:00	2024-11-08T09:00:00	8	Radiación solar	416
8449	7	Sololá	712	San Antonio Palopó	9	San Antonio Palopo	9	Septiembre	2023-09-20T00:00:00	2024-11-08T10:00:00	2	Temperatura media	21.9
8450	7	Sololá	712	San Antonio Palopó	9	San Antonio Palopo	9	Septiembre	2023-09-20T00:00:00	2024-11-08T10:00:00	4	Temperatura máxima	22.7
8451	7	Sololá	712	San Antonio Palopó	9	San Antonio Palopo	9	Septiembre	2023-09-20T00:00:00	2024-11-08T10:00:00	3	Temperatura mínima	21.6
8452	7	Sololá	712	San Antonio Palopó	9	San Antonio Palopo	9	Septiembre	2023-09-20T00:00:00	2024-11-08T10:00:00	5	Humedad	68
8453	7	Sololá	712	San Antonio Palopó	9	San Antonio Palopo	9	Septiembre	2023-09-20T00:00:00	2024-11-08T10:00:00	6	Velocidad del viento	3.2
8454	7	Sololá	712	San Antonio Palopó	9	San Antonio Palopo	9	Septiembre	2023-09-20T00:00:00	2024-11-08T10:00:00	7	Dirección del viento	3.22
8455	7	Sololá	712	San Antonio Palopó	9	San Antonio Palopo	9	Septiembre	2023-09-20T00:00:00	2024-11-08T10:00:00	1	Precipitación	0
8456	7	Sololá	712	San Antonio Palopó	9	San Antonio Palopo	9	Septiembre	2023-09-20T00:00:00	2024-11-08T10:00:00	8	Radiación solar	576
8457	7	Sololá	712	San Antonio Palopó	9	San Antonio Palopo	9	Septiembre	2023-09-20T00:00:00	2024-11-08T11:00:00	2	Temperatura media	23.2
8458	7	Sololá	712	San Antonio Palopó	9	San Antonio Palopo	9	Septiembre	2023-09-20T00:00:00	2024-11-08T11:00:00	4	Temperatura máxima	23.3
8459	7	Sololá	712	San Antonio Palopó	9	San Antonio Palopo	9	Septiembre	2023-09-20T00:00:00	2024-11-08T11:00:00	3	Temperatura mínima	21.9
8460	7	Sololá	712	San Antonio Palopó	9	San Antonio Palopo	9	Septiembre	2023-09-20T00:00:00	2024-11-08T11:00:00	5	Humedad	64
8461	7	Sololá	712	San Antonio Palopó	9	San Antonio Palopo	9	Septiembre	2023-09-20T00:00:00	2024-11-08T11:00:00	6	Velocidad del viento	1.6
8462	7	Sololá	712	San Antonio Palopó	9	San Antonio Palopo	9	Septiembre	2023-09-20T00:00:00	2024-11-08T11:00:00	7	Dirección del viento	1.61
8463	7	Sololá	712	San Antonio Palopó	9	San Antonio Palopo	9	Septiembre	2023-09-20T00:00:00	2024-11-08T11:00:00	1	Precipitación	0
8464	7	Sololá	712	San Antonio Palopó	9	San Antonio Palopo	9	Septiembre	2023-09-20T00:00:00	2024-11-08T11:00:00	8	Radiación solar	481
8465	7	Sololá	712	San Antonio Palopó	9	San Antonio Palopo	9	Septiembre	2023-09-20T00:00:00	2024-11-08T12:00:00	2	Temperatura media	24.2
8466	7	Sololá	712	San Antonio Palopó	9	San Antonio Palopo	9	Septiembre	2023-09-20T00:00:00	2024-11-08T12:00:00	4	Temperatura máxima	24.2
8467	7	Sololá	712	San Antonio Palopó	9	San Antonio Palopo	9	Septiembre	2023-09-20T00:00:00	2024-11-08T12:00:00	3	Temperatura mínima	23.3
8468	7	Sololá	712	San Antonio Palopó	9	San Antonio Palopo	9	Septiembre	2023-09-20T00:00:00	2024-11-08T12:00:00	5	Humedad	66
8469	7	Sololá	712	San Antonio Palopó	9	San Antonio Palopo	9	Septiembre	2023-09-20T00:00:00	2024-11-08T12:00:00	6	Velocidad del viento	3.2
8470	7	Sololá	712	San Antonio Palopó	9	San Antonio Palopo	9	Septiembre	2023-09-20T00:00:00	2024-11-08T12:00:00	7	Dirección del viento	3.22
8471	7	Sololá	712	San Antonio Palopó	9	San Antonio Palopo	9	Septiembre	2023-09-20T00:00:00	2024-11-08T12:00:00	1	Precipitación	0
8472	7	Sololá	712	San Antonio Palopó	9	San Antonio Palopo	9	Septiembre	2023-09-20T00:00:00	2024-11-08T12:00:00	8	Radiación solar	708
8473	7	Sololá	712	San Antonio Palopó	9	San Antonio Palopo	9	Septiembre	2023-09-20T00:00:00	2024-11-08T13:00:00	2	Temperatura media	24.4
8474	7	Sololá	712	San Antonio Palopó	9	San Antonio Palopo	9	Septiembre	2023-09-20T00:00:00	2024-11-08T13:00:00	4	Temperatura máxima	25.1
8475	7	Sololá	712	San Antonio Palopó	9	San Antonio Palopo	9	Septiembre	2023-09-20T00:00:00	2024-11-08T13:00:00	3	Temperatura mínima	24.1
8476	7	Sololá	712	San Antonio Palopó	9	San Antonio Palopo	9	Septiembre	2023-09-20T00:00:00	2024-11-08T13:00:00	5	Humedad	65
8477	7	Sololá	712	San Antonio Palopó	9	San Antonio Palopo	9	Septiembre	2023-09-20T00:00:00	2024-11-08T13:00:00	6	Velocidad del viento	8
8478	7	Sololá	712	San Antonio Palopó	9	San Antonio Palopo	9	Septiembre	2023-09-20T00:00:00	2024-11-08T13:00:00	7	Dirección del viento	8.05
8479	7	Sololá	712	San Antonio Palopó	9	San Antonio Palopo	9	Septiembre	2023-09-20T00:00:00	2024-11-08T13:00:00	1	Precipitación	0
8480	7	Sololá	712	San Antonio Palopó	9	San Antonio Palopo	9	Septiembre	2023-09-20T00:00:00	2024-11-08T13:00:00	8	Radiación solar	982
8481	7	Sololá	712	San Antonio Palopó	9	San Antonio Palopo	9	Septiembre	2023-09-20T00:00:00	2024-11-08T14:00:00	2	Temperatura media	24.6
8482	7	Sololá	712	San Antonio Palopó	9	San Antonio Palopo	9	Septiembre	2023-09-20T00:00:00	2024-11-08T14:00:00	4	Temperatura máxima	25.2
8483	7	Sololá	712	San Antonio Palopó	9	San Antonio Palopo	9	Septiembre	2023-09-20T00:00:00	2024-11-08T14:00:00	3	Temperatura mínima	24.1
8484	7	Sololá	712	San Antonio Palopó	9	San Antonio Palopo	9	Septiembre	2023-09-20T00:00:00	2024-11-08T14:00:00	5	Humedad	70
8485	7	Sololá	712	San Antonio Palopó	9	San Antonio Palopo	9	Septiembre	2023-09-20T00:00:00	2024-11-08T14:00:00	6	Velocidad del viento	9.7
8486	7	Sololá	712	San Antonio Palopó	9	San Antonio Palopo	9	Septiembre	2023-09-20T00:00:00	2024-11-08T14:00:00	7	Dirección del viento	9.66
8487	7	Sololá	712	San Antonio Palopó	9	San Antonio Palopo	9	Septiembre	2023-09-20T00:00:00	2024-11-08T14:00:00	1	Precipitación	0
8488	7	Sololá	712	San Antonio Palopó	9	San Antonio Palopo	9	Septiembre	2023-09-20T00:00:00	2024-11-08T14:00:00	8	Radiación solar	493
8489	7	Sololá	712	San Antonio Palopó	9	San Antonio Palopo	9	Septiembre	2023-09-20T00:00:00	2024-11-08T15:00:00	2	Temperatura media	24.6
8490	7	Sololá	712	San Antonio Palopó	9	San Antonio Palopo	9	Septiembre	2023-09-20T00:00:00	2024-11-08T15:00:00	4	Temperatura máxima	25
8491	7	Sololá	712	San Antonio Palopó	9	San Antonio Palopo	9	Septiembre	2023-09-20T00:00:00	2024-11-08T15:00:00	3	Temperatura mínima	23.1
8492	7	Sololá	712	San Antonio Palopó	9	San Antonio Palopo	9	Septiembre	2023-09-20T00:00:00	2024-11-08T15:00:00	5	Humedad	70
8493	7	Sololá	712	San Antonio Palopó	9	San Antonio Palopo	9	Septiembre	2023-09-20T00:00:00	2024-11-08T15:00:00	6	Velocidad del viento	16.1
8494	7	Sololá	712	San Antonio Palopó	9	San Antonio Palopo	9	Septiembre	2023-09-20T00:00:00	2024-11-08T15:00:00	7	Dirección del viento	16.09
8495	7	Sololá	712	San Antonio Palopó	9	San Antonio Palopo	9	Septiembre	2023-09-20T00:00:00	2024-11-08T15:00:00	1	Precipitación	0
8496	7	Sololá	712	San Antonio Palopó	9	San Antonio Palopo	9	Septiembre	2023-09-20T00:00:00	2024-11-08T15:00:00	8	Radiación solar	583
8497	7	Sololá	712	San Antonio Palopó	9	San Antonio Palopo	9	Septiembre	2023-09-20T00:00:00	2024-11-08T16:00:00	2	Temperatura media	22.3
8498	7	Sololá	712	San Antonio Palopó	9	San Antonio Palopo	9	Septiembre	2023-09-20T00:00:00	2024-11-08T16:00:00	4	Temperatura máxima	24.8
8499	7	Sololá	712	San Antonio Palopó	9	San Antonio Palopo	9	Septiembre	2023-09-20T00:00:00	2024-11-08T16:00:00	3	Temperatura mínima	22.2
8500	7	Sololá	712	San Antonio Palopó	9	San Antonio Palopo	9	Septiembre	2023-09-20T00:00:00	2024-11-08T16:00:00	5	Humedad	76
8501	7	Sololá	712	San Antonio Palopó	9	San Antonio Palopo	9	Septiembre	2023-09-20T00:00:00	2024-11-08T16:00:00	6	Velocidad del viento	14.5
8502	7	Sololá	712	San Antonio Palopó	9	San Antonio Palopo	9	Septiembre	2023-09-20T00:00:00	2024-11-08T16:00:00	7	Dirección del viento	14.48
8503	7	Sololá	712	San Antonio Palopó	9	San Antonio Palopo	9	Septiembre	2023-09-20T00:00:00	2024-11-08T16:00:00	1	Precipitación	0
8504	7	Sololá	712	San Antonio Palopó	9	San Antonio Palopo	9	Septiembre	2023-09-20T00:00:00	2024-11-08T16:00:00	8	Radiación solar	408
8505	7	Sololá	712	San Antonio Palopó	9	San Antonio Palopo	9	Septiembre	2023-09-20T00:00:00	2024-11-08T17:00:00	2	Temperatura media	20.2
8506	7	Sololá	712	San Antonio Palopó	9	San Antonio Palopo	9	Septiembre	2023-09-20T00:00:00	2024-11-08T17:00:00	4	Temperatura máxima	22.3
8507	7	Sololá	712	San Antonio Palopó	9	San Antonio Palopo	9	Septiembre	2023-09-20T00:00:00	2024-11-08T17:00:00	3	Temperatura mínima	20.2
8508	7	Sololá	712	San Antonio Palopó	9	San Antonio Palopo	9	Septiembre	2023-09-20T00:00:00	2024-11-08T17:00:00	5	Humedad	83
8509	7	Sololá	712	San Antonio Palopó	9	San Antonio Palopo	9	Septiembre	2023-09-20T00:00:00	2024-11-08T17:00:00	6	Velocidad del viento	12.9
8510	7	Sololá	712	San Antonio Palopó	9	San Antonio Palopo	9	Septiembre	2023-09-20T00:00:00	2024-11-08T17:00:00	7	Dirección del viento	12.87
8511	7	Sololá	712	San Antonio Palopó	9	San Antonio Palopo	9	Septiembre	2023-09-20T00:00:00	2024-11-08T17:00:00	1	Precipitación	0
8512	7	Sololá	712	San Antonio Palopó	9	San Antonio Palopo	9	Septiembre	2023-09-20T00:00:00	2024-11-08T17:00:00	8	Radiación solar	95
8513	7	Sololá	712	San Antonio Palopó	9	San Antonio Palopo	9	Septiembre	2023-09-20T00:00:00	2024-11-08T18:00:00	2	Temperatura media	20.4
8514	7	Sololá	712	San Antonio Palopó	9	San Antonio Palopo	9	Septiembre	2023-09-20T00:00:00	2024-11-08T18:00:00	4	Temperatura máxima	20.5
8515	7	Sololá	712	San Antonio Palopó	9	San Antonio Palopo	9	Septiembre	2023-09-20T00:00:00	2024-11-08T18:00:00	3	Temperatura mínima	20.1
8516	7	Sololá	712	San Antonio Palopó	9	San Antonio Palopo	9	Septiembre	2023-09-20T00:00:00	2024-11-08T18:00:00	5	Humedad	84
8517	7	Sololá	712	San Antonio Palopó	9	San Antonio Palopo	9	Septiembre	2023-09-20T00:00:00	2024-11-08T18:00:00	6	Velocidad del viento	4.8
8518	7	Sololá	712	San Antonio Palopó	9	San Antonio Palopo	9	Septiembre	2023-09-20T00:00:00	2024-11-08T18:00:00	7	Dirección del viento	4.83
8519	7	Sololá	712	San Antonio Palopó	9	San Antonio Palopo	9	Septiembre	2023-09-20T00:00:00	2024-11-08T18:00:00	1	Precipitación	0
8520	7	Sololá	712	San Antonio Palopó	9	San Antonio Palopo	9	Septiembre	2023-09-20T00:00:00	2024-11-08T18:00:00	8	Radiación solar	20
8521	7	Sololá	712	San Antonio Palopó	9	San Antonio Palopo	9	Septiembre	2023-09-20T00:00:00	2024-11-08T19:00:00	2	Temperatura media	20.2
8522	7	Sololá	712	San Antonio Palopó	9	San Antonio Palopo	9	Septiembre	2023-09-20T00:00:00	2024-11-08T19:00:00	4	Temperatura máxima	20.4
8523	7	Sololá	712	San Antonio Palopó	9	San Antonio Palopo	9	Septiembre	2023-09-20T00:00:00	2024-11-08T19:00:00	3	Temperatura mínima	20.2
8524	7	Sololá	712	San Antonio Palopó	9	San Antonio Palopo	9	Septiembre	2023-09-20T00:00:00	2024-11-08T19:00:00	5	Humedad	83
8525	7	Sololá	712	San Antonio Palopó	9	San Antonio Palopo	9	Septiembre	2023-09-20T00:00:00	2024-11-08T19:00:00	6	Velocidad del viento	3.2
8526	7	Sololá	712	San Antonio Palopó	9	San Antonio Palopo	9	Septiembre	2023-09-20T00:00:00	2024-11-08T19:00:00	7	Dirección del viento	3.22
8527	7	Sololá	712	San Antonio Palopó	9	San Antonio Palopo	9	Septiembre	2023-09-20T00:00:00	2024-11-08T19:00:00	1	Precipitación	0
8528	7	Sololá	712	San Antonio Palopó	9	San Antonio Palopo	9	Septiembre	2023-09-20T00:00:00	2024-11-08T19:00:00	8	Radiación solar	0
8529	7	Sololá	712	San Antonio Palopó	9	San Antonio Palopo	9	Septiembre	2023-09-20T00:00:00	2024-11-08T20:00:00	2	Temperatura media	20.1
8530	7	Sololá	712	San Antonio Palopó	9	San Antonio Palopo	9	Septiembre	2023-09-20T00:00:00	2024-11-08T20:00:00	4	Temperatura máxima	20.3
8531	7	Sololá	712	San Antonio Palopó	9	San Antonio Palopo	9	Septiembre	2023-09-20T00:00:00	2024-11-08T20:00:00	3	Temperatura mínima	19.9
8532	7	Sololá	712	San Antonio Palopó	9	San Antonio Palopo	9	Septiembre	2023-09-20T00:00:00	2024-11-08T20:00:00	5	Humedad	83
8533	7	Sololá	712	San Antonio Palopó	9	San Antonio Palopo	9	Septiembre	2023-09-20T00:00:00	2024-11-08T20:00:00	6	Velocidad del viento	3.2
8534	7	Sololá	712	San Antonio Palopó	9	San Antonio Palopo	9	Septiembre	2023-09-20T00:00:00	2024-11-08T20:00:00	7	Dirección del viento	3.22
8535	7	Sololá	712	San Antonio Palopó	9	San Antonio Palopo	9	Septiembre	2023-09-20T00:00:00	2024-11-08T20:00:00	1	Precipitación	0
8536	7	Sololá	712	San Antonio Palopó	9	San Antonio Palopo	9	Septiembre	2023-09-20T00:00:00	2024-11-08T20:00:00	8	Radiación solar	0
8537	7	Sololá	712	San Antonio Palopó	9	San Antonio Palopo	9	Septiembre	2023-09-20T00:00:00	2024-11-08T21:00:00	2	Temperatura media	19.8
8538	7	Sololá	712	San Antonio Palopó	9	San Antonio Palopo	9	Septiembre	2023-09-20T00:00:00	2024-11-08T21:00:00	4	Temperatura máxima	20.1
8539	7	Sololá	712	San Antonio Palopó	9	San Antonio Palopo	9	Septiembre	2023-09-20T00:00:00	2024-11-08T21:00:00	3	Temperatura mínima	19.8
8540	7	Sololá	712	San Antonio Palopó	9	San Antonio Palopo	9	Septiembre	2023-09-20T00:00:00	2024-11-08T21:00:00	5	Humedad	85
8541	7	Sololá	712	San Antonio Palopó	9	San Antonio Palopo	9	Septiembre	2023-09-20T00:00:00	2024-11-08T21:00:00	6	Velocidad del viento	1.6
8542	7	Sololá	712	San Antonio Palopó	9	San Antonio Palopo	9	Septiembre	2023-09-20T00:00:00	2024-11-08T21:00:00	7	Dirección del viento	1.61
8543	7	Sololá	712	San Antonio Palopó	9	San Antonio Palopo	9	Septiembre	2023-09-20T00:00:00	2024-11-08T21:00:00	1	Precipitación	0
8544	7	Sololá	712	San Antonio Palopó	9	San Antonio Palopo	9	Septiembre	2023-09-20T00:00:00	2024-11-08T21:00:00	8	Radiación solar	0
8545	7	Sololá	712	San Antonio Palopó	9	San Antonio Palopo	9	Septiembre	2023-09-20T00:00:00	2024-11-08T22:00:00	2	Temperatura media	19.4
8546	7	Sololá	712	San Antonio Palopó	9	San Antonio Palopo	9	Septiembre	2023-09-20T00:00:00	2024-11-08T22:00:00	4	Temperatura máxima	19.8
8547	7	Sololá	712	San Antonio Palopó	9	San Antonio Palopo	9	Septiembre	2023-09-20T00:00:00	2024-11-08T22:00:00	3	Temperatura mínima	19.3
8548	7	Sololá	712	San Antonio Palopó	9	San Antonio Palopo	9	Septiembre	2023-09-20T00:00:00	2024-11-08T22:00:00	5	Humedad	83
8549	7	Sololá	712	San Antonio Palopó	9	San Antonio Palopo	9	Septiembre	2023-09-20T00:00:00	2024-11-08T22:00:00	6	Velocidad del viento	1.6
8550	7	Sololá	712	San Antonio Palopó	9	San Antonio Palopo	9	Septiembre	2023-09-20T00:00:00	2024-11-08T22:00:00	7	Dirección del viento	1.61
8551	7	Sololá	712	San Antonio Palopó	9	San Antonio Palopo	9	Septiembre	2023-09-20T00:00:00	2024-11-08T22:00:00	1	Precipitación	0
8552	7	Sololá	712	San Antonio Palopó	9	San Antonio Palopo	9	Septiembre	2023-09-20T00:00:00	2024-11-08T22:00:00	8	Radiación solar	0
8553	7	Sololá	712	San Antonio Palopó	9	San Antonio Palopo	9	Septiembre	2023-09-20T00:00:00	2024-11-08T23:00:00	2	Temperatura media	19.5
8554	7	Sololá	712	San Antonio Palopó	9	San Antonio Palopo	9	Septiembre	2023-09-20T00:00:00	2024-11-08T23:00:00	4	Temperatura máxima	19.6
8555	7	Sololá	712	San Antonio Palopó	9	San Antonio Palopo	9	Septiembre	2023-09-20T00:00:00	2024-11-08T23:00:00	3	Temperatura mínima	19.2
8556	7	Sololá	712	San Antonio Palopó	9	San Antonio Palopo	9	Septiembre	2023-09-20T00:00:00	2024-11-08T23:00:00	5	Humedad	86
8557	7	Sololá	712	San Antonio Palopó	9	San Antonio Palopo	9	Septiembre	2023-09-20T00:00:00	2024-11-08T23:00:00	6	Velocidad del viento	1.6
8558	7	Sololá	712	San Antonio Palopó	9	San Antonio Palopo	9	Septiembre	2023-09-20T00:00:00	2024-11-08T23:00:00	7	Dirección del viento	1.61
8559	7	Sololá	712	San Antonio Palopó	9	San Antonio Palopo	9	Septiembre	2023-09-20T00:00:00	2024-11-08T23:00:00	1	Precipitación	0
8560	7	Sololá	712	San Antonio Palopó	9	San Antonio Palopo	9	Septiembre	2023-09-20T00:00:00	2024-11-08T23:00:00	8	Radiación solar	0
8561	7	Sololá	712	San Antonio Palopó	9	San Antonio Palopo	9	Septiembre	2023-09-21T00:00:00	2024-11-08T00:00:00	2	Temperatura media	19.8
8562	7	Sololá	712	San Antonio Palopó	9	San Antonio Palopo	9	Septiembre	2023-09-21T00:00:00	2024-11-08T00:00:00	4	Temperatura máxima	19.9
8563	7	Sololá	712	San Antonio Palopó	9	San Antonio Palopo	9	Septiembre	2023-09-21T00:00:00	2024-11-08T00:00:00	3	Temperatura mínima	19.5
8564	7	Sololá	712	San Antonio Palopó	9	San Antonio Palopo	9	Septiembre	2023-09-21T00:00:00	2024-11-08T00:00:00	5	Humedad	79
8565	7	Sololá	712	San Antonio Palopó	9	San Antonio Palopo	9	Septiembre	2023-09-21T00:00:00	2024-11-08T00:00:00	6	Velocidad del viento	3.2
8566	7	Sololá	712	San Antonio Palopó	9	San Antonio Palopo	9	Septiembre	2023-09-21T00:00:00	2024-11-08T00:00:00	7	Dirección del viento	3.22
8567	7	Sololá	712	San Antonio Palopó	9	San Antonio Palopo	9	Septiembre	2023-09-21T00:00:00	2024-11-08T00:00:00	1	Precipitación	0
8568	7	Sololá	712	San Antonio Palopó	9	San Antonio Palopo	9	Septiembre	2023-09-21T00:00:00	2024-11-08T00:00:00	8	Radiación solar	0
8569	7	Sololá	712	San Antonio Palopó	9	San Antonio Palopo	9	Septiembre	2023-09-21T00:00:00	2024-11-08T01:00:00	2	Temperatura media	19.6
8570	7	Sololá	712	San Antonio Palopó	9	San Antonio Palopo	9	Septiembre	2023-09-21T00:00:00	2024-11-08T01:00:00	4	Temperatura máxima	19.8
8571	7	Sololá	712	San Antonio Palopó	9	San Antonio Palopo	9	Septiembre	2023-09-21T00:00:00	2024-11-08T01:00:00	3	Temperatura mínima	19.4
8572	7	Sololá	712	San Antonio Palopó	9	San Antonio Palopo	9	Septiembre	2023-09-21T00:00:00	2024-11-08T01:00:00	5	Humedad	76
8573	7	Sololá	712	San Antonio Palopó	9	San Antonio Palopo	9	Septiembre	2023-09-21T00:00:00	2024-11-08T01:00:00	6	Velocidad del viento	3.2
8574	7	Sololá	712	San Antonio Palopó	9	San Antonio Palopo	9	Septiembre	2023-09-21T00:00:00	2024-11-08T01:00:00	7	Dirección del viento	3.22
8575	7	Sololá	712	San Antonio Palopó	9	San Antonio Palopo	9	Septiembre	2023-09-21T00:00:00	2024-11-08T01:00:00	1	Precipitación	0
8576	7	Sololá	712	San Antonio Palopó	9	San Antonio Palopo	9	Septiembre	2023-09-21T00:00:00	2024-11-08T01:00:00	8	Radiación solar	0
8577	7	Sololá	712	San Antonio Palopó	9	San Antonio Palopo	9	Septiembre	2023-09-21T00:00:00	2024-11-08T02:00:00	2	Temperatura media	19.4
8578	7	Sololá	712	San Antonio Palopó	9	San Antonio Palopo	9	Septiembre	2023-09-21T00:00:00	2024-11-08T02:00:00	4	Temperatura máxima	19.6
8579	7	Sololá	712	San Antonio Palopó	9	San Antonio Palopo	9	Septiembre	2023-09-21T00:00:00	2024-11-08T02:00:00	3	Temperatura mínima	19.4
8580	7	Sololá	712	San Antonio Palopó	9	San Antonio Palopo	9	Septiembre	2023-09-21T00:00:00	2024-11-08T02:00:00	5	Humedad	75
8581	7	Sololá	712	San Antonio Palopó	9	San Antonio Palopo	9	Septiembre	2023-09-21T00:00:00	2024-11-08T02:00:00	6	Velocidad del viento	6.4
8582	7	Sololá	712	San Antonio Palopó	9	San Antonio Palopo	9	Septiembre	2023-09-21T00:00:00	2024-11-08T02:00:00	7	Dirección del viento	6.44
8583	7	Sololá	712	San Antonio Palopó	9	San Antonio Palopo	9	Septiembre	2023-09-21T00:00:00	2024-11-08T02:00:00	1	Precipitación	0
8584	7	Sololá	712	San Antonio Palopó	9	San Antonio Palopo	9	Septiembre	2023-09-21T00:00:00	2024-11-08T02:00:00	8	Radiación solar	0
8585	7	Sololá	712	San Antonio Palopó	9	San Antonio Palopo	9	Septiembre	2023-09-21T00:00:00	2024-11-08T03:00:00	2	Temperatura media	19.5
8586	7	Sololá	712	San Antonio Palopó	9	San Antonio Palopo	9	Septiembre	2023-09-21T00:00:00	2024-11-08T03:00:00	4	Temperatura máxima	19.8
8587	7	Sololá	712	San Antonio Palopó	9	San Antonio Palopo	9	Septiembre	2023-09-21T00:00:00	2024-11-08T03:00:00	3	Temperatura mínima	19.4
8588	7	Sololá	712	San Antonio Palopó	9	San Antonio Palopo	9	Septiembre	2023-09-21T00:00:00	2024-11-08T03:00:00	5	Humedad	74
8589	7	Sololá	712	San Antonio Palopó	9	San Antonio Palopo	9	Septiembre	2023-09-21T00:00:00	2024-11-08T03:00:00	6	Velocidad del viento	9.7
8590	7	Sololá	712	San Antonio Palopó	9	San Antonio Palopo	9	Septiembre	2023-09-21T00:00:00	2024-11-08T03:00:00	7	Dirección del viento	9.66
8591	7	Sololá	712	San Antonio Palopó	9	San Antonio Palopo	9	Septiembre	2023-09-21T00:00:00	2024-11-08T03:00:00	1	Precipitación	0
8592	7	Sololá	712	San Antonio Palopó	9	San Antonio Palopo	9	Septiembre	2023-09-21T00:00:00	2024-11-08T03:00:00	8	Radiación solar	0
8593	7	Sololá	712	San Antonio Palopó	9	San Antonio Palopo	9	Septiembre	2023-09-21T00:00:00	2024-11-08T04:00:00	2	Temperatura media	19.5
8594	7	Sololá	712	San Antonio Palopó	9	San Antonio Palopo	9	Septiembre	2023-09-21T00:00:00	2024-11-08T04:00:00	4	Temperatura máxima	19.6
8595	7	Sololá	712	San Antonio Palopó	9	San Antonio Palopo	9	Septiembre	2023-09-21T00:00:00	2024-11-08T04:00:00	3	Temperatura mínima	19.1
8596	7	Sololá	712	San Antonio Palopó	9	San Antonio Palopo	9	Septiembre	2023-09-21T00:00:00	2024-11-08T04:00:00	5	Humedad	72
8597	7	Sololá	712	San Antonio Palopó	9	San Antonio Palopo	9	Septiembre	2023-09-21T00:00:00	2024-11-08T04:00:00	6	Velocidad del viento	8
8598	7	Sololá	712	San Antonio Palopó	9	San Antonio Palopo	9	Septiembre	2023-09-21T00:00:00	2024-11-08T04:00:00	7	Dirección del viento	8.05
8599	7	Sololá	712	San Antonio Palopó	9	San Antonio Palopo	9	Septiembre	2023-09-21T00:00:00	2024-11-08T04:00:00	1	Precipitación	0
8600	7	Sololá	712	San Antonio Palopó	9	San Antonio Palopo	9	Septiembre	2023-09-21T00:00:00	2024-11-08T04:00:00	8	Radiación solar	0
8601	7	Sololá	712	San Antonio Palopó	9	San Antonio Palopo	9	Septiembre	2023-09-21T00:00:00	2024-11-08T05:00:00	2	Temperatura media	18.8
8602	7	Sololá	712	San Antonio Palopó	9	San Antonio Palopo	9	Septiembre	2023-09-21T00:00:00	2024-11-08T05:00:00	4	Temperatura máxima	19.5
8603	7	Sololá	712	San Antonio Palopó	9	San Antonio Palopo	9	Septiembre	2023-09-21T00:00:00	2024-11-08T05:00:00	3	Temperatura mínima	18.8
8604	7	Sololá	712	San Antonio Palopó	9	San Antonio Palopo	9	Septiembre	2023-09-21T00:00:00	2024-11-08T05:00:00	5	Humedad	73
8605	7	Sololá	712	San Antonio Palopó	9	San Antonio Palopo	9	Septiembre	2023-09-21T00:00:00	2024-11-08T05:00:00	6	Velocidad del viento	8
8606	7	Sololá	712	San Antonio Palopó	9	San Antonio Palopo	9	Septiembre	2023-09-21T00:00:00	2024-11-08T05:00:00	7	Dirección del viento	8.05
8607	7	Sololá	712	San Antonio Palopó	9	San Antonio Palopo	9	Septiembre	2023-09-21T00:00:00	2024-11-08T05:00:00	1	Precipitación	0
8608	7	Sololá	712	San Antonio Palopó	9	San Antonio Palopo	9	Septiembre	2023-09-21T00:00:00	2024-11-08T05:00:00	8	Radiación solar	0
8609	7	Sololá	712	San Antonio Palopó	9	San Antonio Palopo	9	Septiembre	2023-09-21T00:00:00	2024-11-08T06:00:00	2	Temperatura media	19.2
8610	7	Sololá	712	San Antonio Palopó	9	San Antonio Palopo	9	Septiembre	2023-09-21T00:00:00	2024-11-08T06:00:00	4	Temperatura máxima	19.2
8611	7	Sololá	712	San Antonio Palopó	9	San Antonio Palopo	9	Septiembre	2023-09-21T00:00:00	2024-11-08T06:00:00	3	Temperatura mínima	18.7
8612	7	Sololá	712	San Antonio Palopó	9	San Antonio Palopo	9	Septiembre	2023-09-21T00:00:00	2024-11-08T06:00:00	5	Humedad	71
8613	7	Sololá	712	San Antonio Palopó	9	San Antonio Palopo	9	Septiembre	2023-09-21T00:00:00	2024-11-08T06:00:00	6	Velocidad del viento	8
8614	7	Sololá	712	San Antonio Palopó	9	San Antonio Palopo	9	Septiembre	2023-09-21T00:00:00	2024-11-08T06:00:00	7	Dirección del viento	8.05
8615	7	Sololá	712	San Antonio Palopó	9	San Antonio Palopo	9	Septiembre	2023-09-21T00:00:00	2024-11-08T06:00:00	1	Precipitación	0
8616	7	Sololá	712	San Antonio Palopó	9	San Antonio Palopo	9	Septiembre	2023-09-21T00:00:00	2024-11-08T06:00:00	8	Radiación solar	0
8617	7	Sololá	712	San Antonio Palopó	9	San Antonio Palopo	9	Septiembre	2023-09-21T00:00:00	2024-11-08T07:00:00	2	Temperatura media	20.1
8618	7	Sololá	712	San Antonio Palopó	9	San Antonio Palopo	9	Septiembre	2023-09-21T00:00:00	2024-11-08T07:00:00	4	Temperatura máxima	20.1
8619	7	Sololá	712	San Antonio Palopó	9	San Antonio Palopo	9	Septiembre	2023-09-21T00:00:00	2024-11-08T07:00:00	3	Temperatura mínima	19.3
8620	7	Sololá	712	San Antonio Palopó	9	San Antonio Palopo	9	Septiembre	2023-09-21T00:00:00	2024-11-08T07:00:00	5	Humedad	70
8621	7	Sololá	712	San Antonio Palopó	9	San Antonio Palopo	9	Septiembre	2023-09-21T00:00:00	2024-11-08T07:00:00	6	Velocidad del viento	8
8622	7	Sololá	712	San Antonio Palopó	9	San Antonio Palopo	9	Septiembre	2023-09-21T00:00:00	2024-11-08T07:00:00	7	Dirección del viento	8.05
8623	7	Sololá	712	San Antonio Palopó	9	San Antonio Palopo	9	Septiembre	2023-09-21T00:00:00	2024-11-08T07:00:00	1	Precipitación	0
8624	7	Sololá	712	San Antonio Palopó	9	San Antonio Palopo	9	Septiembre	2023-09-21T00:00:00	2024-11-08T07:00:00	8	Radiación solar	52
8625	7	Sololá	712	San Antonio Palopó	9	San Antonio Palopo	9	Septiembre	2023-09-21T00:00:00	2024-11-08T08:00:00	2	Temperatura media	22.3
8626	7	Sololá	712	San Antonio Palopó	9	San Antonio Palopo	9	Septiembre	2023-09-21T00:00:00	2024-11-08T08:00:00	4	Temperatura máxima	22.3
8627	7	Sololá	712	San Antonio Palopó	9	San Antonio Palopo	9	Septiembre	2023-09-21T00:00:00	2024-11-08T08:00:00	3	Temperatura mínima	20.1
8628	7	Sololá	712	San Antonio Palopó	9	San Antonio Palopo	9	Septiembre	2023-09-21T00:00:00	2024-11-08T08:00:00	5	Humedad	67
8629	7	Sololá	712	San Antonio Palopó	9	San Antonio Palopo	9	Septiembre	2023-09-21T00:00:00	2024-11-08T08:00:00	6	Velocidad del viento	1.6
8630	7	Sololá	712	San Antonio Palopó	9	San Antonio Palopo	9	Septiembre	2023-09-21T00:00:00	2024-11-08T08:00:00	7	Dirección del viento	1.61
8631	7	Sololá	712	San Antonio Palopó	9	San Antonio Palopo	9	Septiembre	2023-09-21T00:00:00	2024-11-08T08:00:00	1	Precipitación	0
8632	7	Sololá	712	San Antonio Palopó	9	San Antonio Palopo	9	Septiembre	2023-09-21T00:00:00	2024-11-08T08:00:00	8	Radiación solar	246
8633	7	Sololá	712	San Antonio Palopó	9	San Antonio Palopo	9	Septiembre	2023-09-21T00:00:00	2024-11-08T09:00:00	2	Temperatura media	23.3
8634	7	Sololá	712	San Antonio Palopó	9	San Antonio Palopo	9	Septiembre	2023-09-21T00:00:00	2024-11-08T09:00:00	4	Temperatura máxima	24.5
8635	7	Sololá	712	San Antonio Palopó	9	San Antonio Palopo	9	Septiembre	2023-09-21T00:00:00	2024-11-08T09:00:00	3	Temperatura mínima	22.3
8636	7	Sololá	712	San Antonio Palopó	9	San Antonio Palopo	9	Septiembre	2023-09-21T00:00:00	2024-11-08T09:00:00	5	Humedad	62
8637	7	Sololá	712	San Antonio Palopó	9	San Antonio Palopo	9	Septiembre	2023-09-21T00:00:00	2024-11-08T09:00:00	6	Velocidad del viento	1.6
8638	7	Sololá	712	San Antonio Palopó	9	San Antonio Palopo	9	Septiembre	2023-09-21T00:00:00	2024-11-08T09:00:00	7	Dirección del viento	1.61
8639	7	Sololá	712	San Antonio Palopó	9	San Antonio Palopo	9	Septiembre	2023-09-21T00:00:00	2024-11-08T09:00:00	1	Precipitación	0
8640	7	Sololá	712	San Antonio Palopó	9	San Antonio Palopo	9	Septiembre	2023-09-21T00:00:00	2024-11-08T09:00:00	8	Radiación solar	513
8641	7	Sololá	712	San Antonio Palopó	9	San Antonio Palopo	9	Septiembre	2023-09-21T00:00:00	2024-11-08T10:00:00	2	Temperatura media	23.8
8642	7	Sololá	712	San Antonio Palopó	9	San Antonio Palopo	9	Septiembre	2023-09-21T00:00:00	2024-11-08T10:00:00	4	Temperatura máxima	24.3
8643	7	Sololá	712	San Antonio Palopó	9	San Antonio Palopo	9	Septiembre	2023-09-21T00:00:00	2024-11-08T10:00:00	3	Temperatura mínima	23.3
8644	7	Sololá	712	San Antonio Palopó	9	San Antonio Palopo	9	Septiembre	2023-09-21T00:00:00	2024-11-08T10:00:00	5	Humedad	66
8645	7	Sololá	712	San Antonio Palopó	9	San Antonio Palopo	9	Septiembre	2023-09-21T00:00:00	2024-11-08T10:00:00	6	Velocidad del viento	3.2
8646	7	Sololá	712	San Antonio Palopó	9	San Antonio Palopo	9	Septiembre	2023-09-21T00:00:00	2024-11-08T10:00:00	7	Dirección del viento	3.22
8647	7	Sololá	712	San Antonio Palopó	9	San Antonio Palopo	9	Septiembre	2023-09-21T00:00:00	2024-11-08T10:00:00	1	Precipitación	0
8648	7	Sololá	712	San Antonio Palopó	9	San Antonio Palopo	9	Septiembre	2023-09-21T00:00:00	2024-11-08T10:00:00	8	Radiación solar	656
8649	7	Sololá	712	San Antonio Palopó	9	San Antonio Palopo	9	Septiembre	2023-09-21T00:00:00	2024-11-08T11:00:00	2	Temperatura media	25.2
8650	7	Sololá	712	San Antonio Palopó	9	San Antonio Palopo	9	Septiembre	2023-09-21T00:00:00	2024-11-08T11:00:00	4	Temperatura máxima	25.2
8651	7	Sololá	712	San Antonio Palopó	9	San Antonio Palopo	9	Septiembre	2023-09-21T00:00:00	2024-11-08T11:00:00	3	Temperatura mínima	23.4
8652	7	Sololá	712	San Antonio Palopó	9	San Antonio Palopo	9	Septiembre	2023-09-21T00:00:00	2024-11-08T11:00:00	5	Humedad	70
8653	7	Sololá	712	San Antonio Palopó	9	San Antonio Palopo	9	Septiembre	2023-09-21T00:00:00	2024-11-08T11:00:00	6	Velocidad del viento	6.4
8654	7	Sololá	712	San Antonio Palopó	9	San Antonio Palopo	9	Septiembre	2023-09-21T00:00:00	2024-11-08T11:00:00	7	Dirección del viento	6.44
8655	7	Sololá	712	San Antonio Palopó	9	San Antonio Palopo	9	Septiembre	2023-09-21T00:00:00	2024-11-08T11:00:00	1	Precipitación	0
8656	7	Sololá	712	San Antonio Palopó	9	San Antonio Palopo	9	Septiembre	2023-09-21T00:00:00	2024-11-08T11:00:00	8	Radiación solar	967
8657	7	Sololá	712	San Antonio Palopó	9	San Antonio Palopo	9	Septiembre	2023-09-21T00:00:00	2024-11-08T12:00:00	2	Temperatura media	24.4
8658	7	Sololá	712	San Antonio Palopó	9	San Antonio Palopo	9	Septiembre	2023-09-21T00:00:00	2024-11-08T12:00:00	4	Temperatura máxima	25.6
8659	7	Sololá	712	San Antonio Palopó	9	San Antonio Palopo	9	Septiembre	2023-09-21T00:00:00	2024-11-08T12:00:00	3	Temperatura mínima	24.4
8660	7	Sololá	712	San Antonio Palopó	9	San Antonio Palopo	9	Septiembre	2023-09-21T00:00:00	2024-11-08T12:00:00	5	Humedad	69
8661	7	Sololá	712	San Antonio Palopó	9	San Antonio Palopo	9	Septiembre	2023-09-21T00:00:00	2024-11-08T12:00:00	6	Velocidad del viento	8
8662	7	Sololá	712	San Antonio Palopó	9	San Antonio Palopo	9	Septiembre	2023-09-21T00:00:00	2024-11-08T12:00:00	7	Dirección del viento	8.05
8663	7	Sololá	712	San Antonio Palopó	9	San Antonio Palopo	9	Septiembre	2023-09-21T00:00:00	2024-11-08T12:00:00	1	Precipitación	0
8664	7	Sololá	712	San Antonio Palopó	9	San Antonio Palopo	9	Septiembre	2023-09-21T00:00:00	2024-11-08T12:00:00	8	Radiación solar	885
8665	7	Sololá	712	San Antonio Palopó	9	San Antonio Palopo	9	Septiembre	2023-09-21T00:00:00	2024-11-08T13:00:00	2	Temperatura media	25.4
8666	7	Sololá	712	San Antonio Palopó	9	San Antonio Palopo	9	Septiembre	2023-09-21T00:00:00	2024-11-08T13:00:00	4	Temperatura máxima	26.7
8667	7	Sololá	712	San Antonio Palopó	9	San Antonio Palopo	9	Septiembre	2023-09-21T00:00:00	2024-11-08T13:00:00	3	Temperatura mínima	24.4
8668	7	Sololá	712	San Antonio Palopó	9	San Antonio Palopo	9	Septiembre	2023-09-21T00:00:00	2024-11-08T13:00:00	5	Humedad	63
8669	7	Sololá	712	San Antonio Palopó	9	San Antonio Palopo	9	Septiembre	2023-09-21T00:00:00	2024-11-08T13:00:00	6	Velocidad del viento	11.3
8670	7	Sololá	712	San Antonio Palopó	9	San Antonio Palopo	9	Septiembre	2023-09-21T00:00:00	2024-11-08T13:00:00	7	Dirección del viento	11.27
8671	7	Sololá	712	San Antonio Palopó	9	San Antonio Palopo	9	Septiembre	2023-09-21T00:00:00	2024-11-08T13:00:00	1	Precipitación	0
8672	7	Sololá	712	San Antonio Palopó	9	San Antonio Palopo	9	Septiembre	2023-09-21T00:00:00	2024-11-08T13:00:00	8	Radiación solar	1005
8673	7	Sololá	712	San Antonio Palopó	9	San Antonio Palopo	9	Septiembre	2023-09-21T00:00:00	2024-11-08T14:00:00	2	Temperatura media	27.9
8674	7	Sololá	712	San Antonio Palopó	9	San Antonio Palopo	9	Septiembre	2023-09-21T00:00:00	2024-11-08T14:00:00	4	Temperatura máxima	28.3
8675	7	Sololá	712	San Antonio Palopó	9	San Antonio Palopo	9	Septiembre	2023-09-21T00:00:00	2024-11-08T14:00:00	3	Temperatura mínima	25.2
8676	7	Sololá	712	San Antonio Palopó	9	San Antonio Palopo	9	Septiembre	2023-09-21T00:00:00	2024-11-08T14:00:00	5	Humedad	50
8677	7	Sololá	712	San Antonio Palopó	9	San Antonio Palopo	9	Septiembre	2023-09-21T00:00:00	2024-11-08T14:00:00	6	Velocidad del viento	11.3
8678	7	Sololá	712	San Antonio Palopó	9	San Antonio Palopo	9	Septiembre	2023-09-21T00:00:00	2024-11-08T14:00:00	7	Dirección del viento	11.27
8679	7	Sololá	712	San Antonio Palopó	9	San Antonio Palopo	9	Septiembre	2023-09-21T00:00:00	2024-11-08T14:00:00	1	Precipitación	0
8680	7	Sololá	712	San Antonio Palopó	9	San Antonio Palopo	9	Septiembre	2023-09-21T00:00:00	2024-11-08T14:00:00	8	Radiación solar	846
8681	7	Sololá	712	San Antonio Palopó	9	San Antonio Palopo	9	Septiembre	2023-09-21T00:00:00	2024-11-08T15:00:00	2	Temperatura media	26
8682	7	Sololá	712	San Antonio Palopó	9	San Antonio Palopo	9	Septiembre	2023-09-21T00:00:00	2024-11-08T15:00:00	4	Temperatura máxima	28.4
8683	7	Sololá	712	San Antonio Palopó	9	San Antonio Palopo	9	Septiembre	2023-09-21T00:00:00	2024-11-08T15:00:00	3	Temperatura mínima	25.8
8684	7	Sololá	712	San Antonio Palopó	9	San Antonio Palopo	9	Septiembre	2023-09-21T00:00:00	2024-11-08T15:00:00	5	Humedad	62
8685	7	Sololá	712	San Antonio Palopó	9	San Antonio Palopo	9	Septiembre	2023-09-21T00:00:00	2024-11-08T15:00:00	6	Velocidad del viento	9.7
8686	7	Sololá	712	San Antonio Palopó	9	San Antonio Palopo	9	Septiembre	2023-09-21T00:00:00	2024-11-08T15:00:00	7	Dirección del viento	9.66
8687	7	Sololá	712	San Antonio Palopó	9	San Antonio Palopo	9	Septiembre	2023-09-21T00:00:00	2024-11-08T15:00:00	1	Precipitación	0
8688	7	Sololá	712	San Antonio Palopó	9	San Antonio Palopo	9	Septiembre	2023-09-21T00:00:00	2024-11-08T15:00:00	8	Radiación solar	546
8689	7	Sololá	712	San Antonio Palopó	9	San Antonio Palopo	9	Septiembre	2023-09-21T00:00:00	2024-11-08T16:00:00	2	Temperatura media	24.9
8690	7	Sololá	712	San Antonio Palopó	9	San Antonio Palopo	9	Septiembre	2023-09-21T00:00:00	2024-11-08T16:00:00	4	Temperatura máxima	26.8
8691	7	Sololá	712	San Antonio Palopó	9	San Antonio Palopo	9	Septiembre	2023-09-21T00:00:00	2024-11-08T16:00:00	3	Temperatura mínima	24.9
8692	7	Sololá	712	San Antonio Palopó	9	San Antonio Palopo	9	Septiembre	2023-09-21T00:00:00	2024-11-08T16:00:00	5	Humedad	75
8693	7	Sololá	712	San Antonio Palopó	9	San Antonio Palopo	9	Septiembre	2023-09-21T00:00:00	2024-11-08T16:00:00	6	Velocidad del viento	12.9
8694	7	Sololá	712	San Antonio Palopó	9	San Antonio Palopo	9	Septiembre	2023-09-21T00:00:00	2024-11-08T16:00:00	7	Dirección del viento	12.87
8695	7	Sololá	712	San Antonio Palopó	9	San Antonio Palopo	9	Septiembre	2023-09-21T00:00:00	2024-11-08T16:00:00	1	Precipitación	0
8696	7	Sololá	712	San Antonio Palopó	9	San Antonio Palopo	9	Septiembre	2023-09-21T00:00:00	2024-11-08T16:00:00	8	Radiación solar	513
8697	7	Sololá	712	San Antonio Palopó	9	San Antonio Palopo	9	Septiembre	2023-09-21T00:00:00	2024-11-08T17:00:00	2	Temperatura media	23.1
8698	7	Sololá	712	San Antonio Palopó	9	San Antonio Palopo	9	Septiembre	2023-09-21T00:00:00	2024-11-08T17:00:00	4	Temperatura máxima	26.2
8699	7	Sololá	712	San Antonio Palopó	9	San Antonio Palopo	9	Septiembre	2023-09-21T00:00:00	2024-11-08T17:00:00	3	Temperatura mínima	23.1
8700	7	Sololá	712	San Antonio Palopó	9	San Antonio Palopo	9	Septiembre	2023-09-21T00:00:00	2024-11-08T17:00:00	5	Humedad	78
8701	7	Sololá	712	San Antonio Palopó	9	San Antonio Palopo	9	Septiembre	2023-09-21T00:00:00	2024-11-08T17:00:00	6	Velocidad del viento	9.7
8702	7	Sololá	712	San Antonio Palopó	9	San Antonio Palopo	9	Septiembre	2023-09-21T00:00:00	2024-11-08T17:00:00	7	Dirección del viento	9.66
8703	7	Sololá	712	San Antonio Palopó	9	San Antonio Palopo	9	Septiembre	2023-09-21T00:00:00	2024-11-08T17:00:00	1	Precipitación	0
8704	7	Sololá	712	San Antonio Palopó	9	San Antonio Palopo	9	Septiembre	2023-09-21T00:00:00	2024-11-08T17:00:00	8	Radiación solar	274
8705	7	Sololá	712	San Antonio Palopó	9	San Antonio Palopo	9	Septiembre	2023-09-21T00:00:00	2024-11-08T18:00:00	2	Temperatura media	22
8706	7	Sololá	712	San Antonio Palopó	9	San Antonio Palopo	9	Septiembre	2023-09-21T00:00:00	2024-11-08T18:00:00	4	Temperatura máxima	23.4
8707	7	Sololá	712	San Antonio Palopó	9	San Antonio Palopo	9	Septiembre	2023-09-21T00:00:00	2024-11-08T18:00:00	3	Temperatura mínima	21.9
8708	7	Sololá	712	San Antonio Palopó	9	San Antonio Palopo	9	Septiembre	2023-09-21T00:00:00	2024-11-08T18:00:00	5	Humedad	79
8709	7	Sololá	712	San Antonio Palopó	9	San Antonio Palopo	9	Septiembre	2023-09-21T00:00:00	2024-11-08T18:00:00	6	Velocidad del viento	6.4
8710	7	Sololá	712	San Antonio Palopó	9	San Antonio Palopo	9	Septiembre	2023-09-21T00:00:00	2024-11-08T18:00:00	7	Dirección del viento	6.44
8711	7	Sololá	712	San Antonio Palopó	9	San Antonio Palopo	9	Septiembre	2023-09-21T00:00:00	2024-11-08T18:00:00	1	Precipitación	0
8712	7	Sololá	712	San Antonio Palopó	9	San Antonio Palopo	9	Septiembre	2023-09-21T00:00:00	2024-11-08T18:00:00	8	Radiación solar	62
8713	7	Sololá	712	San Antonio Palopó	9	San Antonio Palopo	9	Septiembre	2023-09-21T00:00:00	2024-11-08T19:00:00	2	Temperatura media	21.4
8714	7	Sololá	712	San Antonio Palopó	9	San Antonio Palopo	9	Septiembre	2023-09-21T00:00:00	2024-11-08T19:00:00	4	Temperatura máxima	22
8715	7	Sololá	712	San Antonio Palopó	9	San Antonio Palopo	9	Septiembre	2023-09-21T00:00:00	2024-11-08T19:00:00	3	Temperatura mínima	21.4
8716	7	Sololá	712	San Antonio Palopó	9	San Antonio Palopo	9	Septiembre	2023-09-21T00:00:00	2024-11-08T19:00:00	5	Humedad	82
8717	7	Sololá	712	San Antonio Palopó	9	San Antonio Palopo	9	Septiembre	2023-09-21T00:00:00	2024-11-08T19:00:00	6	Velocidad del viento	3.2
8718	7	Sololá	712	San Antonio Palopó	9	San Antonio Palopo	9	Septiembre	2023-09-21T00:00:00	2024-11-08T19:00:00	7	Dirección del viento	3.22
8719	7	Sololá	712	San Antonio Palopó	9	San Antonio Palopo	9	Septiembre	2023-09-21T00:00:00	2024-11-08T19:00:00	1	Precipitación	0
8720	7	Sololá	712	San Antonio Palopó	9	San Antonio Palopo	9	Septiembre	2023-09-21T00:00:00	2024-11-08T19:00:00	8	Radiación solar	0
8721	7	Sololá	712	San Antonio Palopó	9	San Antonio Palopo	9	Septiembre	2023-09-21T00:00:00	2024-11-08T20:00:00	2	Temperatura media	20.5
8722	7	Sololá	712	San Antonio Palopó	9	San Antonio Palopo	9	Septiembre	2023-09-21T00:00:00	2024-11-08T20:00:00	4	Temperatura máxima	21.3
8723	7	Sololá	712	San Antonio Palopó	9	San Antonio Palopo	9	Septiembre	2023-09-21T00:00:00	2024-11-08T20:00:00	3	Temperatura mínima	20.5
8724	7	Sololá	712	San Antonio Palopó	9	San Antonio Palopo	9	Septiembre	2023-09-21T00:00:00	2024-11-08T20:00:00	5	Humedad	83
8725	7	Sololá	712	San Antonio Palopó	9	San Antonio Palopo	9	Septiembre	2023-09-21T00:00:00	2024-11-08T20:00:00	6	Velocidad del viento	1.6
8726	7	Sololá	712	San Antonio Palopó	9	San Antonio Palopo	9	Septiembre	2023-09-21T00:00:00	2024-11-08T20:00:00	7	Dirección del viento	1.61
8727	7	Sololá	712	San Antonio Palopó	9	San Antonio Palopo	9	Septiembre	2023-09-21T00:00:00	2024-11-08T20:00:00	1	Precipitación	0.2
8728	7	Sololá	712	San Antonio Palopó	9	San Antonio Palopo	9	Septiembre	2023-09-21T00:00:00	2024-11-08T20:00:00	8	Radiación solar	0
8729	7	Sololá	712	San Antonio Palopó	9	San Antonio Palopo	9	Septiembre	2023-09-21T00:00:00	2024-11-08T21:00:00	2	Temperatura media	20.6
8730	7	Sololá	712	San Antonio Palopó	9	San Antonio Palopo	9	Septiembre	2023-09-21T00:00:00	2024-11-08T21:00:00	4	Temperatura máxima	20.8
8731	7	Sololá	712	San Antonio Palopó	9	San Antonio Palopo	9	Septiembre	2023-09-21T00:00:00	2024-11-08T21:00:00	3	Temperatura mínima	20.5
8732	7	Sololá	712	San Antonio Palopó	9	San Antonio Palopo	9	Septiembre	2023-09-21T00:00:00	2024-11-08T21:00:00	5	Humedad	85
8733	7	Sololá	712	San Antonio Palopó	9	San Antonio Palopo	9	Septiembre	2023-09-21T00:00:00	2024-11-08T21:00:00	6	Velocidad del viento	3.2
8734	7	Sololá	712	San Antonio Palopó	9	San Antonio Palopo	9	Septiembre	2023-09-21T00:00:00	2024-11-08T21:00:00	7	Dirección del viento	3.22
8735	7	Sololá	712	San Antonio Palopó	9	San Antonio Palopo	9	Septiembre	2023-09-21T00:00:00	2024-11-08T21:00:00	1	Precipitación	0
8736	7	Sololá	712	San Antonio Palopó	9	San Antonio Palopo	9	Septiembre	2023-09-21T00:00:00	2024-11-08T21:00:00	8	Radiación solar	0
8737	7	Sololá	712	San Antonio Palopó	9	San Antonio Palopo	9	Septiembre	2023-09-21T00:00:00	2024-11-08T22:00:00	2	Temperatura media	20.1
8738	7	Sololá	712	San Antonio Palopó	9	San Antonio Palopo	9	Septiembre	2023-09-21T00:00:00	2024-11-08T22:00:00	4	Temperatura máxima	20.6
8739	7	Sololá	712	San Antonio Palopó	9	San Antonio Palopo	9	Septiembre	2023-09-21T00:00:00	2024-11-08T22:00:00	3	Temperatura mínima	20
8740	7	Sololá	712	San Antonio Palopó	9	San Antonio Palopo	9	Septiembre	2023-09-21T00:00:00	2024-11-08T22:00:00	5	Humedad	85
8741	7	Sololá	712	San Antonio Palopó	9	San Antonio Palopo	9	Septiembre	2023-09-21T00:00:00	2024-11-08T22:00:00	6	Velocidad del viento	4.8
8742	7	Sololá	712	San Antonio Palopó	9	San Antonio Palopo	9	Septiembre	2023-09-21T00:00:00	2024-11-08T22:00:00	7	Dirección del viento	4.83
8743	7	Sololá	712	San Antonio Palopó	9	San Antonio Palopo	9	Septiembre	2023-09-21T00:00:00	2024-11-08T22:00:00	1	Precipitación	0.2
8744	7	Sololá	712	San Antonio Palopó	9	San Antonio Palopo	9	Septiembre	2023-09-21T00:00:00	2024-11-08T22:00:00	8	Radiación solar	0
8745	7	Sololá	712	San Antonio Palopó	9	San Antonio Palopo	9	Septiembre	2023-09-21T00:00:00	2024-11-08T23:00:00	2	Temperatura media	19.6
8746	7	Sololá	712	San Antonio Palopó	9	San Antonio Palopo	9	Septiembre	2023-09-21T00:00:00	2024-11-08T23:00:00	4	Temperatura máxima	20
8747	7	Sololá	712	San Antonio Palopó	9	San Antonio Palopo	9	Septiembre	2023-09-21T00:00:00	2024-11-08T23:00:00	3	Temperatura mínima	19.4
8748	7	Sololá	712	San Antonio Palopó	9	San Antonio Palopo	9	Septiembre	2023-09-21T00:00:00	2024-11-08T23:00:00	5	Humedad	88
8749	7	Sololá	712	San Antonio Palopó	9	San Antonio Palopo	9	Septiembre	2023-09-21T00:00:00	2024-11-08T23:00:00	6	Velocidad del viento	3.2
8750	7	Sololá	712	San Antonio Palopó	9	San Antonio Palopo	9	Septiembre	2023-09-21T00:00:00	2024-11-08T23:00:00	7	Dirección del viento	3.22
8751	7	Sololá	712	San Antonio Palopó	9	San Antonio Palopo	9	Septiembre	2023-09-21T00:00:00	2024-11-08T23:00:00	1	Precipitación	1.2
8752	7	Sololá	712	San Antonio Palopó	9	San Antonio Palopo	9	Septiembre	2023-09-21T00:00:00	2024-11-08T23:00:00	8	Radiación solar	0
8753	7	Sololá	712	San Antonio Palopó	9	San Antonio Palopo	9	Septiembre	2023-09-22T00:00:00	2024-11-08T00:00:00	2	Temperatura media	19.4
8754	7	Sololá	712	San Antonio Palopó	9	San Antonio Palopo	9	Septiembre	2023-09-22T00:00:00	2024-11-08T00:00:00	4	Temperatura máxima	19.6
8755	7	Sololá	712	San Antonio Palopó	9	San Antonio Palopo	9	Septiembre	2023-09-22T00:00:00	2024-11-08T00:00:00	3	Temperatura mínima	19.3
8756	7	Sololá	712	San Antonio Palopó	9	San Antonio Palopo	9	Septiembre	2023-09-22T00:00:00	2024-11-08T00:00:00	5	Humedad	88
8757	7	Sololá	712	San Antonio Palopó	9	San Antonio Palopo	9	Septiembre	2023-09-22T00:00:00	2024-11-08T00:00:00	6	Velocidad del viento	3.2
8758	7	Sololá	712	San Antonio Palopó	9	San Antonio Palopo	9	Septiembre	2023-09-22T00:00:00	2024-11-08T00:00:00	7	Dirección del viento	3.22
8759	7	Sololá	712	San Antonio Palopó	9	San Antonio Palopo	9	Septiembre	2023-09-22T00:00:00	2024-11-08T00:00:00	1	Precipitación	0
8760	7	Sololá	712	San Antonio Palopó	9	San Antonio Palopo	9	Septiembre	2023-09-22T00:00:00	2024-11-08T00:00:00	8	Radiación solar	0
8761	7	Sololá	712	San Antonio Palopó	9	San Antonio Palopo	9	Septiembre	2023-09-22T00:00:00	2024-11-08T01:00:00	2	Temperatura media	18.9
8762	7	Sololá	712	San Antonio Palopó	9	San Antonio Palopo	9	Septiembre	2023-09-22T00:00:00	2024-11-08T01:00:00	4	Temperatura máxima	19.4
8763	7	Sololá	712	San Antonio Palopó	9	San Antonio Palopo	9	Septiembre	2023-09-22T00:00:00	2024-11-08T01:00:00	3	Temperatura mínima	18.9
8764	7	Sololá	712	San Antonio Palopó	9	San Antonio Palopo	9	Septiembre	2023-09-22T00:00:00	2024-11-08T01:00:00	5	Humedad	88
8765	7	Sololá	712	San Antonio Palopó	9	San Antonio Palopo	9	Septiembre	2023-09-22T00:00:00	2024-11-08T01:00:00	6	Velocidad del viento	1.6
8766	7	Sololá	712	San Antonio Palopó	9	San Antonio Palopo	9	Septiembre	2023-09-22T00:00:00	2024-11-08T01:00:00	7	Dirección del viento	1.61
8767	7	Sololá	712	San Antonio Palopó	9	San Antonio Palopo	9	Septiembre	2023-09-22T00:00:00	2024-11-08T01:00:00	1	Precipitación	0
8768	7	Sololá	712	San Antonio Palopó	9	San Antonio Palopo	9	Septiembre	2023-09-22T00:00:00	2024-11-08T01:00:00	8	Radiación solar	0
8769	7	Sololá	712	San Antonio Palopó	9	San Antonio Palopo	9	Septiembre	2023-09-22T00:00:00	2024-11-08T02:00:00	2	Temperatura media	18.6
8770	7	Sololá	712	San Antonio Palopó	9	San Antonio Palopo	9	Septiembre	2023-09-22T00:00:00	2024-11-08T02:00:00	4	Temperatura máxima	19.4
8771	7	Sololá	712	San Antonio Palopó	9	San Antonio Palopo	9	Septiembre	2023-09-22T00:00:00	2024-11-08T02:00:00	3	Temperatura mínima	18.6
8772	7	Sololá	712	San Antonio Palopó	9	San Antonio Palopo	9	Septiembre	2023-09-22T00:00:00	2024-11-08T02:00:00	5	Humedad	87
8773	7	Sololá	712	San Antonio Palopó	9	San Antonio Palopo	9	Septiembre	2023-09-22T00:00:00	2024-11-08T02:00:00	6	Velocidad del viento	1.6
8774	7	Sololá	712	San Antonio Palopó	9	San Antonio Palopo	9	Septiembre	2023-09-22T00:00:00	2024-11-08T02:00:00	7	Dirección del viento	1.61
8775	7	Sololá	712	San Antonio Palopó	9	San Antonio Palopo	9	Septiembre	2023-09-22T00:00:00	2024-11-08T02:00:00	1	Precipitación	0
8776	7	Sololá	712	San Antonio Palopó	9	San Antonio Palopo	9	Septiembre	2023-09-22T00:00:00	2024-11-08T02:00:00	8	Radiación solar	0
8777	7	Sololá	712	San Antonio Palopó	9	San Antonio Palopo	9	Septiembre	2023-09-22T00:00:00	2024-11-08T03:00:00	2	Temperatura media	19.7
8778	7	Sololá	712	San Antonio Palopó	9	San Antonio Palopo	9	Septiembre	2023-09-22T00:00:00	2024-11-08T03:00:00	4	Temperatura máxima	19.7
8779	7	Sololá	712	San Antonio Palopó	9	San Antonio Palopo	9	Septiembre	2023-09-22T00:00:00	2024-11-08T03:00:00	3	Temperatura mínima	18.5
8780	7	Sololá	712	San Antonio Palopó	9	San Antonio Palopo	9	Septiembre	2023-09-22T00:00:00	2024-11-08T03:00:00	5	Humedad	77
8781	7	Sololá	712	San Antonio Palopó	9	San Antonio Palopo	9	Septiembre	2023-09-22T00:00:00	2024-11-08T03:00:00	6	Velocidad del viento	3.2
8782	7	Sololá	712	San Antonio Palopó	9	San Antonio Palopo	9	Septiembre	2023-09-22T00:00:00	2024-11-08T03:00:00	7	Dirección del viento	3.22
8783	7	Sololá	712	San Antonio Palopó	9	San Antonio Palopo	9	Septiembre	2023-09-22T00:00:00	2024-11-08T03:00:00	1	Precipitación	0
8784	7	Sololá	712	San Antonio Palopó	9	San Antonio Palopo	9	Septiembre	2023-09-22T00:00:00	2024-11-08T03:00:00	8	Radiación solar	0
8785	7	Sololá	712	San Antonio Palopó	9	San Antonio Palopo	9	Septiembre	2023-09-22T00:00:00	2024-11-08T04:00:00	2	Temperatura media	19.9
8786	7	Sololá	712	San Antonio Palopó	9	San Antonio Palopo	9	Septiembre	2023-09-22T00:00:00	2024-11-08T04:00:00	4	Temperatura máxima	20.3
8787	7	Sololá	712	San Antonio Palopó	9	San Antonio Palopo	9	Septiembre	2023-09-22T00:00:00	2024-11-08T04:00:00	3	Temperatura mínima	19.7
8788	7	Sololá	712	San Antonio Palopó	9	San Antonio Palopo	9	Septiembre	2023-09-22T00:00:00	2024-11-08T04:00:00	5	Humedad	76
8789	7	Sololá	712	San Antonio Palopó	9	San Antonio Palopo	9	Septiembre	2023-09-22T00:00:00	2024-11-08T04:00:00	6	Velocidad del viento	9.7
8790	7	Sololá	712	San Antonio Palopó	9	San Antonio Palopo	9	Septiembre	2023-09-22T00:00:00	2024-11-08T04:00:00	7	Dirección del viento	9.66
8791	7	Sololá	712	San Antonio Palopó	9	San Antonio Palopo	9	Septiembre	2023-09-22T00:00:00	2024-11-08T04:00:00	1	Precipitación	0
8792	7	Sololá	712	San Antonio Palopó	9	San Antonio Palopo	9	Septiembre	2023-09-22T00:00:00	2024-11-08T04:00:00	8	Radiación solar	0
8793	7	Sololá	712	San Antonio Palopó	9	San Antonio Palopo	9	Septiembre	2023-09-22T00:00:00	2024-11-08T05:00:00	2	Temperatura media	19.6
8794	7	Sololá	712	San Antonio Palopó	9	San Antonio Palopo	9	Septiembre	2023-09-22T00:00:00	2024-11-08T05:00:00	4	Temperatura máxima	19.9
8795	7	Sololá	712	San Antonio Palopó	9	San Antonio Palopo	9	Septiembre	2023-09-22T00:00:00	2024-11-08T05:00:00	3	Temperatura mínima	19.5
8796	7	Sololá	712	San Antonio Palopó	9	San Antonio Palopo	9	Septiembre	2023-09-22T00:00:00	2024-11-08T05:00:00	5	Humedad	75
8797	7	Sololá	712	San Antonio Palopó	9	San Antonio Palopo	9	Septiembre	2023-09-22T00:00:00	2024-11-08T05:00:00	6	Velocidad del viento	8
8798	7	Sololá	712	San Antonio Palopó	9	San Antonio Palopo	9	Septiembre	2023-09-22T00:00:00	2024-11-08T05:00:00	7	Dirección del viento	8.05
8799	7	Sololá	712	San Antonio Palopó	9	San Antonio Palopo	9	Septiembre	2023-09-22T00:00:00	2024-11-08T05:00:00	1	Precipitación	0
8800	7	Sololá	712	San Antonio Palopó	9	San Antonio Palopo	9	Septiembre	2023-09-22T00:00:00	2024-11-08T05:00:00	8	Radiación solar	0
8801	7	Sololá	712	San Antonio Palopó	9	San Antonio Palopo	9	Septiembre	2023-09-22T00:00:00	2024-11-08T06:00:00	2	Temperatura media	19.7
8802	7	Sololá	712	San Antonio Palopó	9	San Antonio Palopo	9	Septiembre	2023-09-22T00:00:00	2024-11-08T06:00:00	4	Temperatura máxima	19.9
8803	7	Sololá	712	San Antonio Palopó	9	San Antonio Palopo	9	Septiembre	2023-09-22T00:00:00	2024-11-08T06:00:00	3	Temperatura mínima	19.6
8804	7	Sololá	712	San Antonio Palopó	9	San Antonio Palopo	9	Septiembre	2023-09-22T00:00:00	2024-11-08T06:00:00	5	Humedad	74
8805	7	Sololá	712	San Antonio Palopó	9	San Antonio Palopo	9	Septiembre	2023-09-22T00:00:00	2024-11-08T06:00:00	6	Velocidad del viento	6.4
8806	7	Sololá	712	San Antonio Palopó	9	San Antonio Palopo	9	Septiembre	2023-09-22T00:00:00	2024-11-08T06:00:00	7	Dirección del viento	6.44
8807	7	Sololá	712	San Antonio Palopó	9	San Antonio Palopo	9	Septiembre	2023-09-22T00:00:00	2024-11-08T06:00:00	1	Precipitación	0
8808	7	Sololá	712	San Antonio Palopó	9	San Antonio Palopo	9	Septiembre	2023-09-22T00:00:00	2024-11-08T06:00:00	8	Radiación solar	0
8809	7	Sololá	712	San Antonio Palopó	9	San Antonio Palopo	9	Septiembre	2023-09-22T00:00:00	2024-11-08T07:00:00	2	Temperatura media	19.9
8810	7	Sololá	712	San Antonio Palopó	9	San Antonio Palopo	9	Septiembre	2023-09-22T00:00:00	2024-11-08T07:00:00	4	Temperatura máxima	19.9
8811	7	Sololá	712	San Antonio Palopó	9	San Antonio Palopo	9	Septiembre	2023-09-22T00:00:00	2024-11-08T07:00:00	3	Temperatura mínima	19.6
8812	7	Sololá	712	San Antonio Palopó	9	San Antonio Palopo	9	Septiembre	2023-09-22T00:00:00	2024-11-08T07:00:00	5	Humedad	74
8813	7	Sololá	712	San Antonio Palopó	9	San Antonio Palopo	9	Septiembre	2023-09-22T00:00:00	2024-11-08T07:00:00	6	Velocidad del viento	8
8814	7	Sololá	712	San Antonio Palopó	9	San Antonio Palopo	9	Septiembre	2023-09-22T00:00:00	2024-11-08T07:00:00	7	Dirección del viento	8.05
8815	7	Sololá	712	San Antonio Palopó	9	San Antonio Palopo	9	Septiembre	2023-09-22T00:00:00	2024-11-08T07:00:00	1	Precipitación	0
8816	7	Sololá	712	San Antonio Palopó	9	San Antonio Palopo	9	Septiembre	2023-09-22T00:00:00	2024-11-08T07:00:00	8	Radiación solar	25
8817	7	Sololá	712	San Antonio Palopó	9	San Antonio Palopo	9	Septiembre	2023-09-22T00:00:00	2024-11-08T08:00:00	2	Temperatura media	21.3
8818	7	Sololá	712	San Antonio Palopó	9	San Antonio Palopo	9	Septiembre	2023-09-22T00:00:00	2024-11-08T08:00:00	4	Temperatura máxima	21.3
8819	7	Sololá	712	San Antonio Palopó	9	San Antonio Palopo	9	Septiembre	2023-09-22T00:00:00	2024-11-08T08:00:00	3	Temperatura mínima	19.8
8820	7	Sololá	712	San Antonio Palopó	9	San Antonio Palopo	9	Septiembre	2023-09-22T00:00:00	2024-11-08T08:00:00	5	Humedad	73
8821	7	Sololá	712	San Antonio Palopó	9	San Antonio Palopo	9	Septiembre	2023-09-22T00:00:00	2024-11-08T08:00:00	6	Velocidad del viento	6.4
8822	7	Sololá	712	San Antonio Palopó	9	San Antonio Palopo	9	Septiembre	2023-09-22T00:00:00	2024-11-08T08:00:00	7	Dirección del viento	6.44
8823	7	Sololá	712	San Antonio Palopó	9	San Antonio Palopo	9	Septiembre	2023-09-22T00:00:00	2024-11-08T08:00:00	1	Precipitación	0
8824	7	Sololá	712	San Antonio Palopó	9	San Antonio Palopo	9	Septiembre	2023-09-22T00:00:00	2024-11-08T08:00:00	8	Radiación solar	120
8825	7	Sololá	712	San Antonio Palopó	9	San Antonio Palopo	9	Septiembre	2023-09-22T00:00:00	2024-11-08T09:00:00	2	Temperatura media	23.7
8826	7	Sololá	712	San Antonio Palopó	9	San Antonio Palopo	9	Septiembre	2023-09-22T00:00:00	2024-11-08T09:00:00	4	Temperatura máxima	23.7
8827	7	Sololá	712	San Antonio Palopó	9	San Antonio Palopo	9	Septiembre	2023-09-22T00:00:00	2024-11-08T09:00:00	3	Temperatura mínima	21.3
8828	7	Sololá	712	San Antonio Palopó	9	San Antonio Palopo	9	Septiembre	2023-09-22T00:00:00	2024-11-08T09:00:00	5	Humedad	60
8829	7	Sololá	712	San Antonio Palopó	9	San Antonio Palopo	9	Septiembre	2023-09-22T00:00:00	2024-11-08T09:00:00	6	Velocidad del viento	8
8830	7	Sololá	712	San Antonio Palopó	9	San Antonio Palopo	9	Septiembre	2023-09-22T00:00:00	2024-11-08T09:00:00	7	Dirección del viento	8.05
8831	7	Sololá	712	San Antonio Palopó	9	San Antonio Palopo	9	Septiembre	2023-09-22T00:00:00	2024-11-08T09:00:00	1	Precipitación	0
8832	7	Sololá	712	San Antonio Palopó	9	San Antonio Palopo	9	Septiembre	2023-09-22T00:00:00	2024-11-08T09:00:00	8	Radiación solar	430
8833	7	Sololá	712	San Antonio Palopó	9	San Antonio Palopo	9	Septiembre	2023-09-22T00:00:00	2024-11-08T10:00:00	2	Temperatura media	23.9
8834	7	Sololá	712	San Antonio Palopó	9	San Antonio Palopo	9	Septiembre	2023-09-22T00:00:00	2024-11-08T10:00:00	4	Temperatura máxima	24.1
8835	7	Sololá	712	San Antonio Palopó	9	San Antonio Palopo	9	Septiembre	2023-09-22T00:00:00	2024-11-08T10:00:00	3	Temperatura mínima	23.3
8836	7	Sololá	712	San Antonio Palopó	9	San Antonio Palopo	9	Septiembre	2023-09-22T00:00:00	2024-11-08T10:00:00	5	Humedad	59
8837	7	Sololá	712	San Antonio Palopó	9	San Antonio Palopo	9	Septiembre	2023-09-22T00:00:00	2024-11-08T10:00:00	6	Velocidad del viento	8
8838	7	Sololá	712	San Antonio Palopó	9	San Antonio Palopo	9	Septiembre	2023-09-22T00:00:00	2024-11-08T10:00:00	7	Dirección del viento	8.05
8839	7	Sololá	712	San Antonio Palopó	9	San Antonio Palopo	9	Septiembre	2023-09-22T00:00:00	2024-11-08T10:00:00	1	Precipitación	0
8840	7	Sololá	712	San Antonio Palopó	9	San Antonio Palopo	9	Septiembre	2023-09-22T00:00:00	2024-11-08T10:00:00	8	Radiación solar	410
8841	7	Sololá	712	San Antonio Palopó	9	San Antonio Palopo	9	Septiembre	2023-09-22T00:00:00	2024-11-08T11:00:00	2	Temperatura media	25.8
8842	7	Sololá	712	San Antonio Palopó	9	San Antonio Palopo	9	Septiembre	2023-09-22T00:00:00	2024-11-08T11:00:00	4	Temperatura máxima	25.8
8843	7	Sololá	712	San Antonio Palopó	9	San Antonio Palopo	9	Septiembre	2023-09-22T00:00:00	2024-11-08T11:00:00	3	Temperatura mínima	23.9
8844	7	Sololá	712	San Antonio Palopó	9	San Antonio Palopo	9	Septiembre	2023-09-22T00:00:00	2024-11-08T11:00:00	5	Humedad	53
8845	7	Sololá	712	San Antonio Palopó	9	San Antonio Palopo	9	Septiembre	2023-09-22T00:00:00	2024-11-08T11:00:00	6	Velocidad del viento	9.7
8846	7	Sololá	712	San Antonio Palopó	9	San Antonio Palopo	9	Septiembre	2023-09-22T00:00:00	2024-11-08T11:00:00	7	Dirección del viento	9.66
8847	7	Sololá	712	San Antonio Palopó	9	San Antonio Palopo	9	Septiembre	2023-09-22T00:00:00	2024-11-08T11:00:00	1	Precipitación	0
8848	7	Sololá	712	San Antonio Palopó	9	San Antonio Palopo	9	Septiembre	2023-09-22T00:00:00	2024-11-08T11:00:00	8	Radiación solar	899
8849	7	Sololá	712	San Antonio Palopó	9	San Antonio Palopo	9	Septiembre	2023-09-22T00:00:00	2024-11-08T12:00:00	2	Temperatura media	24.9
8850	7	Sololá	712	San Antonio Palopó	9	San Antonio Palopo	9	Septiembre	2023-09-22T00:00:00	2024-11-08T12:00:00	4	Temperatura máxima	25.9
8851	7	Sololá	712	San Antonio Palopó	9	San Antonio Palopo	9	Septiembre	2023-09-22T00:00:00	2024-11-08T12:00:00	3	Temperatura mínima	24.7
8852	7	Sololá	712	San Antonio Palopó	9	San Antonio Palopo	9	Septiembre	2023-09-22T00:00:00	2024-11-08T12:00:00	5	Humedad	67
8853	7	Sololá	712	San Antonio Palopó	9	San Antonio Palopo	9	Septiembre	2023-09-22T00:00:00	2024-11-08T12:00:00	6	Velocidad del viento	9.7
8854	7	Sololá	712	San Antonio Palopó	9	San Antonio Palopo	9	Septiembre	2023-09-22T00:00:00	2024-11-08T12:00:00	7	Dirección del viento	9.66
8855	7	Sololá	712	San Antonio Palopó	9	San Antonio Palopo	9	Septiembre	2023-09-22T00:00:00	2024-11-08T12:00:00	1	Precipitación	0
8856	7	Sololá	712	San Antonio Palopó	9	San Antonio Palopo	9	Septiembre	2023-09-22T00:00:00	2024-11-08T12:00:00	8	Radiación solar	984
8857	7	Sololá	712	San Antonio Palopó	9	San Antonio Palopo	9	Septiembre	2023-09-22T00:00:00	2024-11-08T13:00:00	2	Temperatura media	24.6
8858	7	Sololá	712	San Antonio Palopó	9	San Antonio Palopo	9	Septiembre	2023-09-22T00:00:00	2024-11-08T13:00:00	4	Temperatura máxima	25.3
8859	7	Sololá	712	San Antonio Palopó	9	San Antonio Palopo	9	Septiembre	2023-09-22T00:00:00	2024-11-08T13:00:00	3	Temperatura mínima	24.4
8860	7	Sololá	712	San Antonio Palopó	9	San Antonio Palopo	9	Septiembre	2023-09-22T00:00:00	2024-11-08T13:00:00	5	Humedad	69
8861	7	Sololá	712	San Antonio Palopó	9	San Antonio Palopo	9	Septiembre	2023-09-22T00:00:00	2024-11-08T13:00:00	6	Velocidad del viento	12.9
8862	7	Sololá	712	San Antonio Palopó	9	San Antonio Palopo	9	Septiembre	2023-09-22T00:00:00	2024-11-08T13:00:00	7	Dirección del viento	12.87
8863	7	Sololá	712	San Antonio Palopó	9	San Antonio Palopo	9	Septiembre	2023-09-22T00:00:00	2024-11-08T13:00:00	1	Precipitación	0
8864	7	Sololá	712	San Antonio Palopó	9	San Antonio Palopo	9	Septiembre	2023-09-22T00:00:00	2024-11-08T13:00:00	8	Radiación solar	980
8865	7	Sololá	712	San Antonio Palopó	9	San Antonio Palopo	9	Septiembre	2023-09-22T00:00:00	2024-11-08T14:00:00	2	Temperatura media	25.1
8866	7	Sololá	712	San Antonio Palopó	9	San Antonio Palopo	9	Septiembre	2023-09-22T00:00:00	2024-11-08T14:00:00	4	Temperatura máxima	26
8867	7	Sololá	712	San Antonio Palopó	9	San Antonio Palopo	9	Septiembre	2023-09-22T00:00:00	2024-11-08T14:00:00	3	Temperatura mínima	23.4
8868	7	Sololá	712	San Antonio Palopó	9	San Antonio Palopo	9	Septiembre	2023-09-22T00:00:00	2024-11-08T14:00:00	5	Humedad	73
8869	7	Sololá	712	San Antonio Palopó	9	San Antonio Palopo	9	Septiembre	2023-09-22T00:00:00	2024-11-08T14:00:00	6	Velocidad del viento	9.7
8870	7	Sololá	712	San Antonio Palopó	9	San Antonio Palopo	9	Septiembre	2023-09-22T00:00:00	2024-11-08T14:00:00	7	Dirección del viento	9.66
8871	7	Sololá	712	San Antonio Palopó	9	San Antonio Palopo	9	Septiembre	2023-09-22T00:00:00	2024-11-08T14:00:00	1	Precipitación	0
8872	7	Sololá	712	San Antonio Palopó	9	San Antonio Palopo	9	Septiembre	2023-09-22T00:00:00	2024-11-08T14:00:00	8	Radiación solar	880
8873	7	Sololá	712	San Antonio Palopó	9	San Antonio Palopo	9	Septiembre	2023-09-22T00:00:00	2024-11-08T15:00:00	2	Temperatura media	25.7
8874	7	Sololá	712	San Antonio Palopó	9	San Antonio Palopo	9	Septiembre	2023-09-22T00:00:00	2024-11-08T15:00:00	4	Temperatura máxima	25.9
8875	7	Sololá	712	San Antonio Palopó	9	San Antonio Palopo	9	Septiembre	2023-09-22T00:00:00	2024-11-08T15:00:00	3	Temperatura mínima	25.1
8876	7	Sololá	712	San Antonio Palopó	9	San Antonio Palopo	9	Septiembre	2023-09-22T00:00:00	2024-11-08T15:00:00	5	Humedad	71
8877	7	Sololá	712	San Antonio Palopó	9	San Antonio Palopo	9	Septiembre	2023-09-22T00:00:00	2024-11-08T15:00:00	6	Velocidad del viento	6.4
8878	7	Sololá	712	San Antonio Palopó	9	San Antonio Palopo	9	Septiembre	2023-09-22T00:00:00	2024-11-08T15:00:00	7	Dirección del viento	6.44
8879	7	Sololá	712	San Antonio Palopó	9	San Antonio Palopo	9	Septiembre	2023-09-22T00:00:00	2024-11-08T15:00:00	1	Precipitación	0
8880	7	Sololá	712	San Antonio Palopó	9	San Antonio Palopo	9	Septiembre	2023-09-22T00:00:00	2024-11-08T15:00:00	8	Radiación solar	707
8881	7	Sololá	712	San Antonio Palopó	9	San Antonio Palopo	9	Septiembre	2023-09-22T00:00:00	2024-11-08T16:00:00	2	Temperatura media	25.3
8882	7	Sololá	712	San Antonio Palopó	9	San Antonio Palopo	9	Septiembre	2023-09-22T00:00:00	2024-11-08T16:00:00	4	Temperatura máxima	26.3
8883	7	Sololá	712	San Antonio Palopó	9	San Antonio Palopo	9	Septiembre	2023-09-22T00:00:00	2024-11-08T16:00:00	3	Temperatura mínima	24.9
8884	7	Sololá	712	San Antonio Palopó	9	San Antonio Palopo	9	Septiembre	2023-09-22T00:00:00	2024-11-08T16:00:00	5	Humedad	71
8885	7	Sololá	712	San Antonio Palopó	9	San Antonio Palopo	9	Septiembre	2023-09-22T00:00:00	2024-11-08T16:00:00	6	Velocidad del viento	4.8
8886	7	Sololá	712	San Antonio Palopó	9	San Antonio Palopo	9	Septiembre	2023-09-22T00:00:00	2024-11-08T16:00:00	7	Dirección del viento	4.83
8887	7	Sololá	712	San Antonio Palopó	9	San Antonio Palopo	9	Septiembre	2023-09-22T00:00:00	2024-11-08T16:00:00	1	Precipitación	0
8888	7	Sololá	712	San Antonio Palopó	9	San Antonio Palopo	9	Septiembre	2023-09-22T00:00:00	2024-11-08T16:00:00	8	Radiación solar	513
8889	7	Sololá	712	San Antonio Palopó	9	San Antonio Palopo	9	Septiembre	2023-09-22T00:00:00	2024-11-08T17:00:00	2	Temperatura media	24.8
8890	7	Sololá	712	San Antonio Palopó	9	San Antonio Palopo	9	Septiembre	2023-09-22T00:00:00	2024-11-08T17:00:00	4	Temperatura máxima	25.3
8891	7	Sololá	712	San Antonio Palopó	9	San Antonio Palopo	9	Septiembre	2023-09-22T00:00:00	2024-11-08T17:00:00	3	Temperatura mínima	24.6
8892	7	Sololá	712	San Antonio Palopó	9	San Antonio Palopo	9	Septiembre	2023-09-22T00:00:00	2024-11-08T17:00:00	5	Humedad	72
8893	7	Sololá	712	San Antonio Palopó	9	San Antonio Palopo	9	Septiembre	2023-09-22T00:00:00	2024-11-08T17:00:00	6	Velocidad del viento	8
8894	7	Sololá	712	San Antonio Palopó	9	San Antonio Palopo	9	Septiembre	2023-09-22T00:00:00	2024-11-08T17:00:00	7	Dirección del viento	8.05
8895	7	Sololá	712	San Antonio Palopó	9	San Antonio Palopo	9	Septiembre	2023-09-22T00:00:00	2024-11-08T17:00:00	1	Precipitación	0
8896	7	Sololá	712	San Antonio Palopó	9	San Antonio Palopo	9	Septiembre	2023-09-22T00:00:00	2024-11-08T17:00:00	8	Radiación solar	336
8897	7	Sololá	712	San Antonio Palopó	9	San Antonio Palopo	9	Septiembre	2023-09-22T00:00:00	2024-11-08T18:00:00	2	Temperatura media	22.4
8898	7	Sololá	712	San Antonio Palopó	9	San Antonio Palopo	9	Septiembre	2023-09-22T00:00:00	2024-11-08T18:00:00	4	Temperatura máxima	24.8
8899	7	Sololá	712	San Antonio Palopó	9	San Antonio Palopo	9	Septiembre	2023-09-22T00:00:00	2024-11-08T18:00:00	3	Temperatura mínima	22.4
8900	7	Sololá	712	San Antonio Palopó	9	San Antonio Palopo	9	Septiembre	2023-09-22T00:00:00	2024-11-08T18:00:00	5	Humedad	78
8901	7	Sololá	712	San Antonio Palopó	9	San Antonio Palopo	9	Septiembre	2023-09-22T00:00:00	2024-11-08T18:00:00	6	Velocidad del viento	4.8
8902	7	Sololá	712	San Antonio Palopó	9	San Antonio Palopo	9	Septiembre	2023-09-22T00:00:00	2024-11-08T18:00:00	7	Dirección del viento	4.83
8903	7	Sololá	712	San Antonio Palopó	9	San Antonio Palopo	9	Septiembre	2023-09-22T00:00:00	2024-11-08T18:00:00	1	Precipitación	0
8904	7	Sololá	712	San Antonio Palopó	9	San Antonio Palopo	9	Septiembre	2023-09-22T00:00:00	2024-11-08T18:00:00	8	Radiación solar	64
8905	7	Sololá	712	San Antonio Palopó	9	San Antonio Palopo	9	Septiembre	2023-09-22T00:00:00	2024-11-08T19:00:00	2	Temperatura media	21.6
8906	7	Sololá	712	San Antonio Palopó	9	San Antonio Palopo	9	Septiembre	2023-09-22T00:00:00	2024-11-08T19:00:00	4	Temperatura máxima	22.6
8907	7	Sololá	712	San Antonio Palopó	9	San Antonio Palopo	9	Septiembre	2023-09-22T00:00:00	2024-11-08T19:00:00	3	Temperatura mínima	21.6
8908	7	Sololá	712	San Antonio Palopó	9	San Antonio Palopo	9	Septiembre	2023-09-22T00:00:00	2024-11-08T19:00:00	5	Humedad	82
8909	7	Sololá	712	San Antonio Palopó	9	San Antonio Palopo	9	Septiembre	2023-09-22T00:00:00	2024-11-08T19:00:00	6	Velocidad del viento	4.8
8910	7	Sololá	712	San Antonio Palopó	9	San Antonio Palopo	9	Septiembre	2023-09-22T00:00:00	2024-11-08T19:00:00	7	Dirección del viento	4.83
8911	7	Sololá	712	San Antonio Palopó	9	San Antonio Palopo	9	Septiembre	2023-09-22T00:00:00	2024-11-08T19:00:00	1	Precipitación	0
8912	7	Sololá	712	San Antonio Palopó	9	San Antonio Palopo	9	Septiembre	2023-09-22T00:00:00	2024-11-08T19:00:00	8	Radiación solar	0
8913	7	Sololá	712	San Antonio Palopó	9	San Antonio Palopo	9	Septiembre	2023-09-22T00:00:00	2024-11-08T20:00:00	2	Temperatura media	21.7
8914	7	Sololá	712	San Antonio Palopó	9	San Antonio Palopo	9	Septiembre	2023-09-22T00:00:00	2024-11-08T20:00:00	4	Temperatura máxima	21.9
8915	7	Sololá	712	San Antonio Palopó	9	San Antonio Palopo	9	Septiembre	2023-09-22T00:00:00	2024-11-08T20:00:00	3	Temperatura mínima	21.3
8916	7	Sololá	712	San Antonio Palopó	9	San Antonio Palopo	9	Septiembre	2023-09-22T00:00:00	2024-11-08T20:00:00	5	Humedad	75
8917	7	Sololá	712	San Antonio Palopó	9	San Antonio Palopo	9	Septiembre	2023-09-22T00:00:00	2024-11-08T20:00:00	6	Velocidad del viento	6.4
8918	7	Sololá	712	San Antonio Palopó	9	San Antonio Palopo	9	Septiembre	2023-09-22T00:00:00	2024-11-08T20:00:00	7	Dirección del viento	6.44
8919	7	Sololá	712	San Antonio Palopó	9	San Antonio Palopo	9	Septiembre	2023-09-22T00:00:00	2024-11-08T20:00:00	1	Precipitación	0
8920	7	Sololá	712	San Antonio Palopó	9	San Antonio Palopo	9	Septiembre	2023-09-22T00:00:00	2024-11-08T20:00:00	8	Radiación solar	0
8921	7	Sololá	712	San Antonio Palopó	9	San Antonio Palopo	9	Septiembre	2023-09-22T00:00:00	2024-11-08T21:00:00	2	Temperatura media	22.2
8922	7	Sololá	712	San Antonio Palopó	9	San Antonio Palopo	9	Septiembre	2023-09-22T00:00:00	2024-11-08T21:00:00	4	Temperatura máxima	22.2
8923	7	Sololá	712	San Antonio Palopó	9	San Antonio Palopo	9	Septiembre	2023-09-22T00:00:00	2024-11-08T21:00:00	3	Temperatura mínima	21.7
8924	7	Sololá	712	San Antonio Palopó	9	San Antonio Palopo	9	Septiembre	2023-09-22T00:00:00	2024-11-08T21:00:00	5	Humedad	68
8925	7	Sololá	712	San Antonio Palopó	9	San Antonio Palopo	9	Septiembre	2023-09-22T00:00:00	2024-11-08T21:00:00	6	Velocidad del viento	6.4
8926	7	Sololá	712	San Antonio Palopó	9	San Antonio Palopo	9	Septiembre	2023-09-22T00:00:00	2024-11-08T21:00:00	7	Dirección del viento	6.44
8927	7	Sololá	712	San Antonio Palopó	9	San Antonio Palopo	9	Septiembre	2023-09-22T00:00:00	2024-11-08T21:00:00	1	Precipitación	0
8928	7	Sololá	712	San Antonio Palopó	9	San Antonio Palopo	9	Septiembre	2023-09-22T00:00:00	2024-11-08T21:00:00	8	Radiación solar	0
8929	7	Sololá	712	San Antonio Palopó	9	San Antonio Palopo	9	Septiembre	2023-09-22T00:00:00	2024-11-08T22:00:00	2	Temperatura media	21.4
8930	7	Sololá	712	San Antonio Palopó	9	San Antonio Palopo	9	Septiembre	2023-09-22T00:00:00	2024-11-08T22:00:00	4	Temperatura máxima	22.2
8931	7	Sololá	712	San Antonio Palopó	9	San Antonio Palopo	9	Septiembre	2023-09-22T00:00:00	2024-11-08T22:00:00	3	Temperatura mínima	21.3
8932	7	Sololá	712	San Antonio Palopó	9	San Antonio Palopo	9	Septiembre	2023-09-22T00:00:00	2024-11-08T22:00:00	5	Humedad	71
8933	7	Sololá	712	San Antonio Palopó	9	San Antonio Palopo	9	Septiembre	2023-09-22T00:00:00	2024-11-08T22:00:00	6	Velocidad del viento	6.4
8934	7	Sololá	712	San Antonio Palopó	9	San Antonio Palopo	9	Septiembre	2023-09-22T00:00:00	2024-11-08T22:00:00	7	Dirección del viento	6.44
8935	7	Sololá	712	San Antonio Palopó	9	San Antonio Palopo	9	Septiembre	2023-09-22T00:00:00	2024-11-08T22:00:00	1	Precipitación	0
8936	7	Sololá	712	San Antonio Palopó	9	San Antonio Palopo	9	Septiembre	2023-09-22T00:00:00	2024-11-08T22:00:00	8	Radiación solar	0
8937	7	Sololá	712	San Antonio Palopó	9	San Antonio Palopo	9	Septiembre	2023-09-22T00:00:00	2024-11-08T23:00:00	2	Temperatura media	20.8
8938	7	Sololá	712	San Antonio Palopó	9	San Antonio Palopo	9	Septiembre	2023-09-22T00:00:00	2024-11-08T23:00:00	4	Temperatura máxima	21.6
8939	7	Sololá	712	San Antonio Palopó	9	San Antonio Palopo	9	Septiembre	2023-09-22T00:00:00	2024-11-08T23:00:00	3	Temperatura mínima	20.8
8940	7	Sololá	712	San Antonio Palopó	9	San Antonio Palopo	9	Septiembre	2023-09-22T00:00:00	2024-11-08T23:00:00	5	Humedad	72
8941	7	Sololá	712	San Antonio Palopó	9	San Antonio Palopo	9	Septiembre	2023-09-22T00:00:00	2024-11-08T23:00:00	6	Velocidad del viento	6.4
8942	7	Sololá	712	San Antonio Palopó	9	San Antonio Palopo	9	Septiembre	2023-09-22T00:00:00	2024-11-08T23:00:00	7	Dirección del viento	6.44
8943	7	Sololá	712	San Antonio Palopó	9	San Antonio Palopo	9	Septiembre	2023-09-22T00:00:00	2024-11-08T23:00:00	1	Precipitación	0
8944	7	Sololá	712	San Antonio Palopó	9	San Antonio Palopo	9	Septiembre	2023-09-22T00:00:00	2024-11-08T23:00:00	8	Radiación solar	0
8945	7	Sololá	712	San Antonio Palopó	9	San Antonio Palopo	9	Septiembre	2023-09-23T00:00:00	2024-11-08T00:00:00	2	Temperatura media	20.5
8946	7	Sololá	712	San Antonio Palopó	9	San Antonio Palopo	9	Septiembre	2023-09-23T00:00:00	2024-11-08T00:00:00	4	Temperatura máxima	20.9
8947	7	Sololá	712	San Antonio Palopó	9	San Antonio Palopo	9	Septiembre	2023-09-23T00:00:00	2024-11-08T00:00:00	3	Temperatura mínima	20.4
8948	7	Sololá	712	San Antonio Palopó	9	San Antonio Palopo	9	Septiembre	2023-09-23T00:00:00	2024-11-08T00:00:00	5	Humedad	71
8949	7	Sololá	712	San Antonio Palopó	9	San Antonio Palopo	9	Septiembre	2023-09-23T00:00:00	2024-11-08T00:00:00	6	Velocidad del viento	8
8950	7	Sololá	712	San Antonio Palopó	9	San Antonio Palopo	9	Septiembre	2023-09-23T00:00:00	2024-11-08T00:00:00	7	Dirección del viento	8.05
8951	7	Sololá	712	San Antonio Palopó	9	San Antonio Palopo	9	Septiembre	2023-09-23T00:00:00	2024-11-08T00:00:00	1	Precipitación	0
8952	7	Sololá	712	San Antonio Palopó	9	San Antonio Palopo	9	Septiembre	2023-09-23T00:00:00	2024-11-08T00:00:00	8	Radiación solar	0
8953	7	Sololá	712	San Antonio Palopó	9	San Antonio Palopo	9	Septiembre	2023-09-23T00:00:00	2024-11-08T01:00:00	2	Temperatura media	19.8
8954	7	Sololá	712	San Antonio Palopó	9	San Antonio Palopo	9	Septiembre	2023-09-23T00:00:00	2024-11-08T01:00:00	4	Temperatura máxima	20.5
8955	7	Sololá	712	San Antonio Palopó	9	San Antonio Palopo	9	Septiembre	2023-09-23T00:00:00	2024-11-08T01:00:00	3	Temperatura mínima	19.8
8956	7	Sololá	712	San Antonio Palopó	9	San Antonio Palopo	9	Septiembre	2023-09-23T00:00:00	2024-11-08T01:00:00	5	Humedad	72
8957	7	Sololá	712	San Antonio Palopó	9	San Antonio Palopo	9	Septiembre	2023-09-23T00:00:00	2024-11-08T01:00:00	6	Velocidad del viento	9.7
8958	7	Sololá	712	San Antonio Palopó	9	San Antonio Palopo	9	Septiembre	2023-09-23T00:00:00	2024-11-08T01:00:00	7	Dirección del viento	9.66
8959	7	Sololá	712	San Antonio Palopó	9	San Antonio Palopo	9	Septiembre	2023-09-23T00:00:00	2024-11-08T01:00:00	1	Precipitación	0
8960	7	Sololá	712	San Antonio Palopó	9	San Antonio Palopo	9	Septiembre	2023-09-23T00:00:00	2024-11-08T01:00:00	8	Radiación solar	0
8961	7	Sololá	712	San Antonio Palopó	9	San Antonio Palopo	9	Septiembre	2023-09-23T00:00:00	2024-11-08T02:00:00	2	Temperatura media	19.7
8962	7	Sololá	712	San Antonio Palopó	9	San Antonio Palopo	9	Septiembre	2023-09-23T00:00:00	2024-11-08T02:00:00	4	Temperatura máxima	19.8
8963	7	Sololá	712	San Antonio Palopó	9	San Antonio Palopo	9	Septiembre	2023-09-23T00:00:00	2024-11-08T02:00:00	3	Temperatura mínima	19.4
8964	7	Sololá	712	San Antonio Palopó	9	San Antonio Palopo	9	Septiembre	2023-09-23T00:00:00	2024-11-08T02:00:00	5	Humedad	71
8965	7	Sololá	712	San Antonio Palopó	9	San Antonio Palopo	9	Septiembre	2023-09-23T00:00:00	2024-11-08T02:00:00	6	Velocidad del viento	8
8966	7	Sololá	712	San Antonio Palopó	9	San Antonio Palopo	9	Septiembre	2023-09-23T00:00:00	2024-11-08T02:00:00	7	Dirección del viento	8.05
8967	7	Sololá	712	San Antonio Palopó	9	San Antonio Palopo	9	Septiembre	2023-09-23T00:00:00	2024-11-08T02:00:00	1	Precipitación	0
8968	7	Sololá	712	San Antonio Palopó	9	San Antonio Palopo	9	Septiembre	2023-09-23T00:00:00	2024-11-08T02:00:00	8	Radiación solar	0
8969	7	Sololá	712	San Antonio Palopó	9	San Antonio Palopo	9	Septiembre	2023-09-23T00:00:00	2024-11-08T03:00:00	2	Temperatura media	19.6
8970	7	Sololá	712	San Antonio Palopó	9	San Antonio Palopo	9	Septiembre	2023-09-23T00:00:00	2024-11-08T03:00:00	4	Temperatura máxima	19.8
8971	7	Sololá	712	San Antonio Palopó	9	San Antonio Palopo	9	Septiembre	2023-09-23T00:00:00	2024-11-08T03:00:00	3	Temperatura mínima	19.5
8972	7	Sololá	712	San Antonio Palopó	9	San Antonio Palopo	9	Septiembre	2023-09-23T00:00:00	2024-11-08T03:00:00	5	Humedad	70
8973	7	Sololá	712	San Antonio Palopó	9	San Antonio Palopo	9	Septiembre	2023-09-23T00:00:00	2024-11-08T03:00:00	6	Velocidad del viento	8
8974	7	Sololá	712	San Antonio Palopó	9	San Antonio Palopo	9	Septiembre	2023-09-23T00:00:00	2024-11-08T03:00:00	7	Dirección del viento	8.05
8975	7	Sololá	712	San Antonio Palopó	9	San Antonio Palopo	9	Septiembre	2023-09-23T00:00:00	2024-11-08T03:00:00	1	Precipitación	0
8976	7	Sololá	712	San Antonio Palopó	9	San Antonio Palopo	9	Septiembre	2023-09-23T00:00:00	2024-11-08T03:00:00	8	Radiación solar	0
8977	7	Sololá	712	San Antonio Palopó	9	San Antonio Palopo	9	Septiembre	2023-09-23T00:00:00	2024-11-08T04:00:00	2	Temperatura media	19.4
8978	7	Sololá	712	San Antonio Palopó	9	San Antonio Palopo	9	Septiembre	2023-09-23T00:00:00	2024-11-08T04:00:00	4	Temperatura máxima	19.8
8979	7	Sololá	712	San Antonio Palopó	9	San Antonio Palopo	9	Septiembre	2023-09-23T00:00:00	2024-11-08T04:00:00	3	Temperatura mínima	19.3
8980	7	Sololá	712	San Antonio Palopó	9	San Antonio Palopo	9	Septiembre	2023-09-23T00:00:00	2024-11-08T04:00:00	5	Humedad	68
8981	7	Sololá	712	San Antonio Palopó	9	San Antonio Palopo	9	Septiembre	2023-09-23T00:00:00	2024-11-08T04:00:00	6	Velocidad del viento	6.4
8982	7	Sololá	712	San Antonio Palopó	9	San Antonio Palopo	9	Septiembre	2023-09-23T00:00:00	2024-11-08T04:00:00	7	Dirección del viento	6.44
8983	7	Sololá	712	San Antonio Palopó	9	San Antonio Palopo	9	Septiembre	2023-09-23T00:00:00	2024-11-08T04:00:00	1	Precipitación	0
8984	7	Sololá	712	San Antonio Palopó	9	San Antonio Palopo	9	Septiembre	2023-09-23T00:00:00	2024-11-08T04:00:00	8	Radiación solar	0
8985	7	Sololá	712	San Antonio Palopó	9	San Antonio Palopo	9	Septiembre	2023-09-23T00:00:00	2024-11-08T05:00:00	2	Temperatura media	18.8
8986	7	Sololá	712	San Antonio Palopó	9	San Antonio Palopo	9	Septiembre	2023-09-23T00:00:00	2024-11-08T05:00:00	4	Temperatura máxima	20.1
8987	7	Sololá	712	San Antonio Palopó	9	San Antonio Palopo	9	Septiembre	2023-09-23T00:00:00	2024-11-08T05:00:00	3	Temperatura mínima	18.7
8988	7	Sololá	712	San Antonio Palopó	9	San Antonio Palopo	9	Septiembre	2023-09-23T00:00:00	2024-11-08T05:00:00	5	Humedad	70
8989	7	Sololá	712	San Antonio Palopó	9	San Antonio Palopo	9	Septiembre	2023-09-23T00:00:00	2024-11-08T05:00:00	6	Velocidad del viento	4.8
8990	7	Sololá	712	San Antonio Palopó	9	San Antonio Palopo	9	Septiembre	2023-09-23T00:00:00	2024-11-08T05:00:00	7	Dirección del viento	4.83
8991	7	Sololá	712	San Antonio Palopó	9	San Antonio Palopo	9	Septiembre	2023-09-23T00:00:00	2024-11-08T05:00:00	1	Precipitación	0
8992	7	Sololá	712	San Antonio Palopó	9	San Antonio Palopo	9	Septiembre	2023-09-23T00:00:00	2024-11-08T05:00:00	8	Radiación solar	0
8993	7	Sololá	712	San Antonio Palopó	9	San Antonio Palopo	9	Septiembre	2023-09-23T00:00:00	2024-11-08T06:00:00	2	Temperatura media	18.7
8994	7	Sololá	712	San Antonio Palopó	9	San Antonio Palopo	9	Septiembre	2023-09-23T00:00:00	2024-11-08T06:00:00	4	Temperatura máxima	19.2
8995	7	Sololá	712	San Antonio Palopó	9	San Antonio Palopo	9	Septiembre	2023-09-23T00:00:00	2024-11-08T06:00:00	3	Temperatura mínima	18.4
8996	7	Sololá	712	San Antonio Palopó	9	San Antonio Palopo	9	Septiembre	2023-09-23T00:00:00	2024-11-08T06:00:00	5	Humedad	68
8997	7	Sololá	712	San Antonio Palopó	9	San Antonio Palopo	9	Septiembre	2023-09-23T00:00:00	2024-11-08T06:00:00	6	Velocidad del viento	6.4
8998	7	Sololá	712	San Antonio Palopó	9	San Antonio Palopo	9	Septiembre	2023-09-23T00:00:00	2024-11-08T06:00:00	7	Dirección del viento	6.44
8999	7	Sololá	712	San Antonio Palopó	9	San Antonio Palopo	9	Septiembre	2023-09-23T00:00:00	2024-11-08T06:00:00	1	Precipitación	0
9000	7	Sololá	712	San Antonio Palopó	9	San Antonio Palopo	9	Septiembre	2023-09-23T00:00:00	2024-11-08T06:00:00	8	Radiación solar	0
9001	7	Sololá	712	San Antonio Palopó	9	San Antonio Palopo	9	Septiembre	2023-09-23T00:00:00	2024-11-08T07:00:00	2	Temperatura media	19.6
9002	7	Sololá	712	San Antonio Palopó	9	San Antonio Palopo	9	Septiembre	2023-09-23T00:00:00	2024-11-08T07:00:00	4	Temperatura máxima	19.6
9003	7	Sololá	712	San Antonio Palopó	9	San Antonio Palopo	9	Septiembre	2023-09-23T00:00:00	2024-11-08T07:00:00	3	Temperatura mínima	18.7
9004	7	Sololá	712	San Antonio Palopó	9	San Antonio Palopo	9	Septiembre	2023-09-23T00:00:00	2024-11-08T07:00:00	5	Humedad	64
9005	7	Sololá	712	San Antonio Palopó	9	San Antonio Palopo	9	Septiembre	2023-09-23T00:00:00	2024-11-08T07:00:00	6	Velocidad del viento	6.4
9006	7	Sololá	712	San Antonio Palopó	9	San Antonio Palopo	9	Septiembre	2023-09-23T00:00:00	2024-11-08T07:00:00	7	Dirección del viento	6.44
9007	7	Sololá	712	San Antonio Palopó	9	San Antonio Palopo	9	Septiembre	2023-09-23T00:00:00	2024-11-08T07:00:00	1	Precipitación	0
9008	7	Sololá	712	San Antonio Palopó	9	San Antonio Palopo	9	Septiembre	2023-09-23T00:00:00	2024-11-08T07:00:00	8	Radiación solar	13
9009	7	Sololá	712	San Antonio Palopó	9	San Antonio Palopo	9	Septiembre	2023-09-23T00:00:00	2024-11-08T08:00:00	2	Temperatura media	19.6
9010	7	Sololá	712	San Antonio Palopó	9	San Antonio Palopo	9	Septiembre	2023-09-23T00:00:00	2024-11-08T08:00:00	4	Temperatura máxima	19.7
9011	7	Sololá	712	San Antonio Palopó	9	San Antonio Palopo	9	Septiembre	2023-09-23T00:00:00	2024-11-08T08:00:00	3	Temperatura mínima	17.9
9012	7	Sololá	712	San Antonio Palopó	9	San Antonio Palopo	9	Septiembre	2023-09-23T00:00:00	2024-11-08T08:00:00	5	Humedad	73
9013	7	Sololá	712	San Antonio Palopó	9	San Antonio Palopo	9	Septiembre	2023-09-23T00:00:00	2024-11-08T08:00:00	6	Velocidad del viento	3.2
9014	7	Sololá	712	San Antonio Palopó	9	San Antonio Palopo	9	Septiembre	2023-09-23T00:00:00	2024-11-08T08:00:00	7	Dirección del viento	3.22
9015	7	Sololá	712	San Antonio Palopó	9	San Antonio Palopo	9	Septiembre	2023-09-23T00:00:00	2024-11-08T08:00:00	1	Precipitación	0
9016	7	Sololá	712	San Antonio Palopó	9	San Antonio Palopo	9	Septiembre	2023-09-23T00:00:00	2024-11-08T08:00:00	8	Radiación solar	111
9017	7	Sololá	712	San Antonio Palopó	9	San Antonio Palopo	9	Septiembre	2023-09-23T00:00:00	2024-11-08T09:00:00	2	Temperatura media	22.2
9018	7	Sololá	712	San Antonio Palopó	9	San Antonio Palopo	9	Septiembre	2023-09-23T00:00:00	2024-11-08T09:00:00	4	Temperatura máxima	22.8
9019	7	Sololá	712	San Antonio Palopó	9	San Antonio Palopo	9	Septiembre	2023-09-23T00:00:00	2024-11-08T09:00:00	3	Temperatura mínima	19.6
9020	7	Sololá	712	San Antonio Palopó	9	San Antonio Palopo	9	Septiembre	2023-09-23T00:00:00	2024-11-08T09:00:00	5	Humedad	64
9021	7	Sololá	712	San Antonio Palopó	9	San Antonio Palopo	9	Septiembre	2023-09-23T00:00:00	2024-11-08T09:00:00	6	Velocidad del viento	1.6
9022	7	Sololá	712	San Antonio Palopó	9	San Antonio Palopo	9	Septiembre	2023-09-23T00:00:00	2024-11-08T09:00:00	7	Dirección del viento	1.61
9023	7	Sololá	712	San Antonio Palopó	9	San Antonio Palopo	9	Septiembre	2023-09-23T00:00:00	2024-11-08T09:00:00	1	Precipitación	0
9024	7	Sololá	712	San Antonio Palopó	9	San Antonio Palopo	9	Septiembre	2023-09-23T00:00:00	2024-11-08T09:00:00	8	Radiación solar	410
9025	7	Sololá	712	San Antonio Palopó	9	San Antonio Palopo	9	Septiembre	2023-09-23T00:00:00	2024-11-08T10:00:00	2	Temperatura media	23.3
9026	7	Sololá	712	San Antonio Palopó	9	San Antonio Palopo	9	Septiembre	2023-09-23T00:00:00	2024-11-08T10:00:00	4	Temperatura máxima	23.3
9027	7	Sololá	712	San Antonio Palopó	9	San Antonio Palopo	9	Septiembre	2023-09-23T00:00:00	2024-11-08T10:00:00	3	Temperatura mínima	22
9028	7	Sololá	712	San Antonio Palopó	9	San Antonio Palopo	9	Septiembre	2023-09-23T00:00:00	2024-11-08T10:00:00	5	Humedad	59
9029	7	Sololá	712	San Antonio Palopó	9	San Antonio Palopo	9	Septiembre	2023-09-23T00:00:00	2024-11-08T10:00:00	6	Velocidad del viento	1.6
9030	7	Sololá	712	San Antonio Palopó	9	San Antonio Palopo	9	Septiembre	2023-09-23T00:00:00	2024-11-08T10:00:00	7	Dirección del viento	1.61
9031	7	Sololá	712	San Antonio Palopó	9	San Antonio Palopo	9	Septiembre	2023-09-23T00:00:00	2024-11-08T10:00:00	1	Precipitación	0
9032	7	Sololá	712	San Antonio Palopó	9	San Antonio Palopo	9	Septiembre	2023-09-23T00:00:00	2024-11-08T10:00:00	8	Radiación solar	652
9033	7	Sololá	712	San Antonio Palopó	9	San Antonio Palopo	9	Septiembre	2023-09-23T00:00:00	2024-11-08T11:00:00	2	Temperatura media	24.6
9034	7	Sololá	712	San Antonio Palopó	9	San Antonio Palopo	9	Septiembre	2023-09-23T00:00:00	2024-11-08T11:00:00	4	Temperatura máxima	24.6
9035	7	Sololá	712	San Antonio Palopó	9	San Antonio Palopo	9	Septiembre	2023-09-23T00:00:00	2024-11-08T11:00:00	3	Temperatura mínima	23.2
9036	7	Sololá	712	San Antonio Palopó	9	San Antonio Palopo	9	Septiembre	2023-09-23T00:00:00	2024-11-08T11:00:00	5	Humedad	58
9037	7	Sololá	712	San Antonio Palopó	9	San Antonio Palopo	9	Septiembre	2023-09-23T00:00:00	2024-11-08T11:00:00	6	Velocidad del viento	3.2
9038	7	Sololá	712	San Antonio Palopó	9	San Antonio Palopo	9	Septiembre	2023-09-23T00:00:00	2024-11-08T11:00:00	7	Dirección del viento	3.22
9039	7	Sololá	712	San Antonio Palopó	9	San Antonio Palopo	9	Septiembre	2023-09-23T00:00:00	2024-11-08T11:00:00	1	Precipitación	0
9040	7	Sololá	712	San Antonio Palopó	9	San Antonio Palopo	9	Septiembre	2023-09-23T00:00:00	2024-11-08T11:00:00	8	Radiación solar	864
9041	7	Sololá	712	San Antonio Palopó	9	San Antonio Palopo	9	Septiembre	2023-09-23T00:00:00	2024-11-08T12:00:00	2	Temperatura media	26.8
9042	7	Sololá	712	San Antonio Palopó	9	San Antonio Palopo	9	Septiembre	2023-09-23T00:00:00	2024-11-08T12:00:00	4	Temperatura máxima	26.9
9043	7	Sololá	712	San Antonio Palopó	9	San Antonio Palopo	9	Septiembre	2023-09-23T00:00:00	2024-11-08T12:00:00	3	Temperatura mínima	24.7
9044	7	Sololá	712	San Antonio Palopó	9	San Antonio Palopo	9	Septiembre	2023-09-23T00:00:00	2024-11-08T12:00:00	5	Humedad	60
9045	7	Sololá	712	San Antonio Palopó	9	San Antonio Palopo	9	Septiembre	2023-09-23T00:00:00	2024-11-08T12:00:00	6	Velocidad del viento	3.2
9046	7	Sololá	712	San Antonio Palopó	9	San Antonio Palopo	9	Septiembre	2023-09-23T00:00:00	2024-11-08T12:00:00	7	Dirección del viento	3.22
9047	7	Sololá	712	San Antonio Palopó	9	San Antonio Palopo	9	Septiembre	2023-09-23T00:00:00	2024-11-08T12:00:00	1	Precipitación	0
9048	7	Sololá	712	San Antonio Palopó	9	San Antonio Palopo	9	Septiembre	2023-09-23T00:00:00	2024-11-08T12:00:00	8	Radiación solar	938
9049	7	Sololá	712	San Antonio Palopó	9	San Antonio Palopo	9	Septiembre	2023-09-23T00:00:00	2024-11-08T13:00:00	2	Temperatura media	25.8
9050	7	Sololá	712	San Antonio Palopó	9	San Antonio Palopo	9	Septiembre	2023-09-23T00:00:00	2024-11-08T13:00:00	4	Temperatura máxima	26.9
9051	7	Sololá	712	San Antonio Palopó	9	San Antonio Palopo	9	Septiembre	2023-09-23T00:00:00	2024-11-08T13:00:00	3	Temperatura mínima	25.6
9052	7	Sololá	712	San Antonio Palopó	9	San Antonio Palopo	9	Septiembre	2023-09-23T00:00:00	2024-11-08T13:00:00	5	Humedad	64
9053	7	Sololá	712	San Antonio Palopó	9	San Antonio Palopo	9	Septiembre	2023-09-23T00:00:00	2024-11-08T13:00:00	6	Velocidad del viento	8
9054	7	Sololá	712	San Antonio Palopó	9	San Antonio Palopo	9	Septiembre	2023-09-23T00:00:00	2024-11-08T13:00:00	7	Dirección del viento	8.05
9055	7	Sololá	712	San Antonio Palopó	9	San Antonio Palopo	9	Septiembre	2023-09-23T00:00:00	2024-11-08T13:00:00	1	Precipitación	0
9056	7	Sololá	712	San Antonio Palopó	9	San Antonio Palopo	9	Septiembre	2023-09-23T00:00:00	2024-11-08T13:00:00	8	Radiación solar	980
9057	7	Sololá	712	San Antonio Palopó	9	San Antonio Palopo	9	Septiembre	2023-09-23T00:00:00	2024-11-08T14:00:00	2	Temperatura media	26
9058	7	Sololá	712	San Antonio Palopó	9	San Antonio Palopo	9	Septiembre	2023-09-23T00:00:00	2024-11-08T14:00:00	4	Temperatura máxima	26
9059	7	Sololá	712	San Antonio Palopó	9	San Antonio Palopo	9	Septiembre	2023-09-23T00:00:00	2024-11-08T14:00:00	3	Temperatura mínima	25.1
9060	7	Sololá	712	San Antonio Palopó	9	San Antonio Palopo	9	Septiembre	2023-09-23T00:00:00	2024-11-08T14:00:00	5	Humedad	66
9061	7	Sololá	712	San Antonio Palopó	9	San Antonio Palopo	9	Septiembre	2023-09-23T00:00:00	2024-11-08T14:00:00	6	Velocidad del viento	9.7
9062	7	Sololá	712	San Antonio Palopó	9	San Antonio Palopo	9	Septiembre	2023-09-23T00:00:00	2024-11-08T14:00:00	7	Dirección del viento	9.66
9063	7	Sololá	712	San Antonio Palopó	9	San Antonio Palopo	9	Septiembre	2023-09-23T00:00:00	2024-11-08T14:00:00	1	Precipitación	0
9064	7	Sololá	712	San Antonio Palopó	9	San Antonio Palopo	9	Septiembre	2023-09-23T00:00:00	2024-11-08T14:00:00	8	Radiación solar	698
9065	7	Sololá	712	San Antonio Palopó	9	San Antonio Palopo	9	Septiembre	2023-09-23T00:00:00	2024-11-08T15:00:00	2	Temperatura media	25.9
9066	7	Sololá	712	San Antonio Palopó	9	San Antonio Palopo	9	Septiembre	2023-09-23T00:00:00	2024-11-08T15:00:00	4	Temperatura máxima	26.1
9067	7	Sololá	712	San Antonio Palopó	9	San Antonio Palopo	9	Septiembre	2023-09-23T00:00:00	2024-11-08T15:00:00	3	Temperatura mínima	25.4
9068	7	Sololá	712	San Antonio Palopó	9	San Antonio Palopo	9	Septiembre	2023-09-23T00:00:00	2024-11-08T15:00:00	5	Humedad	68
9069	7	Sololá	712	San Antonio Palopó	9	San Antonio Palopo	9	Septiembre	2023-09-23T00:00:00	2024-11-08T15:00:00	6	Velocidad del viento	11.3
9070	7	Sololá	712	San Antonio Palopó	9	San Antonio Palopo	9	Septiembre	2023-09-23T00:00:00	2024-11-08T15:00:00	7	Dirección del viento	11.27
9071	7	Sololá	712	San Antonio Palopó	9	San Antonio Palopo	9	Septiembre	2023-09-23T00:00:00	2024-11-08T15:00:00	1	Precipitación	0
9072	7	Sololá	712	San Antonio Palopó	9	San Antonio Palopo	9	Septiembre	2023-09-23T00:00:00	2024-11-08T15:00:00	8	Radiación solar	801
9073	7	Sololá	712	San Antonio Palopó	9	San Antonio Palopo	9	Septiembre	2023-09-23T00:00:00	2024-11-08T16:00:00	2	Temperatura media	24.7
9074	7	Sololá	712	San Antonio Palopó	9	San Antonio Palopo	9	Septiembre	2023-09-23T00:00:00	2024-11-08T16:00:00	4	Temperatura máxima	26
9075	7	Sololá	712	San Antonio Palopó	9	San Antonio Palopo	9	Septiembre	2023-09-23T00:00:00	2024-11-08T16:00:00	3	Temperatura mínima	23.9
9076	7	Sololá	712	San Antonio Palopó	9	San Antonio Palopo	9	Septiembre	2023-09-23T00:00:00	2024-11-08T16:00:00	5	Humedad	73
9077	7	Sololá	712	San Antonio Palopó	9	San Antonio Palopo	9	Septiembre	2023-09-23T00:00:00	2024-11-08T16:00:00	6	Velocidad del viento	9.7
9078	7	Sololá	712	San Antonio Palopó	9	San Antonio Palopo	9	Septiembre	2023-09-23T00:00:00	2024-11-08T16:00:00	7	Dirección del viento	9.66
9079	7	Sololá	712	San Antonio Palopó	9	San Antonio Palopo	9	Septiembre	2023-09-23T00:00:00	2024-11-08T16:00:00	1	Precipitación	0
9080	7	Sololá	712	San Antonio Palopó	9	San Antonio Palopo	9	Septiembre	2023-09-23T00:00:00	2024-11-08T16:00:00	8	Radiación solar	322
9081	7	Sololá	712	San Antonio Palopó	9	San Antonio Palopo	9	Septiembre	2023-09-23T00:00:00	2024-11-08T17:00:00	2	Temperatura media	24.2
9082	7	Sololá	712	San Antonio Palopó	9	San Antonio Palopo	9	Septiembre	2023-09-23T00:00:00	2024-11-08T17:00:00	4	Temperatura máxima	26
9083	7	Sololá	712	San Antonio Palopó	9	San Antonio Palopo	9	Septiembre	2023-09-23T00:00:00	2024-11-08T17:00:00	3	Temperatura mínima	24.2
9084	7	Sololá	712	San Antonio Palopó	9	San Antonio Palopo	9	Septiembre	2023-09-23T00:00:00	2024-11-08T17:00:00	5	Humedad	75
9085	7	Sololá	712	San Antonio Palopó	9	San Antonio Palopo	9	Septiembre	2023-09-23T00:00:00	2024-11-08T17:00:00	6	Velocidad del viento	6.4
9086	7	Sololá	712	San Antonio Palopó	9	San Antonio Palopo	9	Septiembre	2023-09-23T00:00:00	2024-11-08T17:00:00	7	Dirección del viento	6.44
9087	7	Sololá	712	San Antonio Palopó	9	San Antonio Palopo	9	Septiembre	2023-09-23T00:00:00	2024-11-08T17:00:00	1	Precipitación	0
9088	7	Sololá	712	San Antonio Palopó	9	San Antonio Palopo	9	Septiembre	2023-09-23T00:00:00	2024-11-08T17:00:00	8	Radiación solar	325
9089	7	Sololá	712	San Antonio Palopó	9	San Antonio Palopo	9	Septiembre	2023-09-23T00:00:00	2024-11-08T18:00:00	2	Temperatura media	22.5
9090	7	Sololá	712	San Antonio Palopó	9	San Antonio Palopo	9	Septiembre	2023-09-23T00:00:00	2024-11-08T18:00:00	4	Temperatura máxima	24.6
9091	7	Sololá	712	San Antonio Palopó	9	San Antonio Palopo	9	Septiembre	2023-09-23T00:00:00	2024-11-08T18:00:00	3	Temperatura mínima	22.5
9092	7	Sololá	712	San Antonio Palopó	9	San Antonio Palopo	9	Septiembre	2023-09-23T00:00:00	2024-11-08T18:00:00	5	Humedad	77
9093	7	Sololá	712	San Antonio Palopó	9	San Antonio Palopo	9	Septiembre	2023-09-23T00:00:00	2024-11-08T18:00:00	6	Velocidad del viento	8
9094	7	Sololá	712	San Antonio Palopó	9	San Antonio Palopo	9	Septiembre	2023-09-23T00:00:00	2024-11-08T18:00:00	7	Dirección del viento	8.05
9095	7	Sololá	712	San Antonio Palopó	9	San Antonio Palopo	9	Septiembre	2023-09-23T00:00:00	2024-11-08T18:00:00	1	Precipitación	0
9096	7	Sololá	712	San Antonio Palopó	9	San Antonio Palopo	9	Septiembre	2023-09-23T00:00:00	2024-11-08T18:00:00	8	Radiación solar	44
9097	7	Sololá	712	San Antonio Palopó	9	San Antonio Palopo	9	Septiembre	2023-09-23T00:00:00	2024-11-08T19:00:00	2	Temperatura media	21.6
9098	7	Sololá	712	San Antonio Palopó	9	San Antonio Palopo	9	Septiembre	2023-09-23T00:00:00	2024-11-08T19:00:00	4	Temperatura máxima	22.5
9099	7	Sololá	712	San Antonio Palopó	9	San Antonio Palopo	9	Septiembre	2023-09-23T00:00:00	2024-11-08T19:00:00	3	Temperatura mínima	21.4
9100	7	Sololá	712	San Antonio Palopó	9	San Antonio Palopo	9	Septiembre	2023-09-23T00:00:00	2024-11-08T19:00:00	5	Humedad	81
9101	7	Sololá	712	San Antonio Palopó	9	San Antonio Palopo	9	Septiembre	2023-09-23T00:00:00	2024-11-08T19:00:00	6	Velocidad del viento	4.8
9102	7	Sololá	712	San Antonio Palopó	9	San Antonio Palopo	9	Septiembre	2023-09-23T00:00:00	2024-11-08T19:00:00	7	Dirección del viento	4.83
9103	7	Sololá	712	San Antonio Palopó	9	San Antonio Palopo	9	Septiembre	2023-09-23T00:00:00	2024-11-08T19:00:00	1	Precipitación	0
9104	7	Sololá	712	San Antonio Palopó	9	San Antonio Palopo	9	Septiembre	2023-09-23T00:00:00	2024-11-08T19:00:00	8	Radiación solar	0
9105	7	Sololá	712	San Antonio Palopó	9	San Antonio Palopo	9	Septiembre	2023-09-23T00:00:00	2024-11-08T20:00:00	2	Temperatura media	20.3
9106	7	Sololá	712	San Antonio Palopó	9	San Antonio Palopo	9	Septiembre	2023-09-23T00:00:00	2024-11-08T20:00:00	4	Temperatura máxima	21.7
9107	7	Sololá	712	San Antonio Palopó	9	San Antonio Palopo	9	Septiembre	2023-09-23T00:00:00	2024-11-08T20:00:00	3	Temperatura mínima	20.1
9108	7	Sololá	712	San Antonio Palopó	9	San Antonio Palopo	9	Septiembre	2023-09-23T00:00:00	2024-11-08T20:00:00	5	Humedad	86
9109	7	Sololá	712	San Antonio Palopó	9	San Antonio Palopo	9	Septiembre	2023-09-23T00:00:00	2024-11-08T20:00:00	6	Velocidad del viento	6.4
9110	7	Sololá	712	San Antonio Palopó	9	San Antonio Palopo	9	Septiembre	2023-09-23T00:00:00	2024-11-08T20:00:00	7	Dirección del viento	6.44
9111	7	Sololá	712	San Antonio Palopó	9	San Antonio Palopo	9	Septiembre	2023-09-23T00:00:00	2024-11-08T20:00:00	1	Precipitación	0
9112	7	Sololá	712	San Antonio Palopó	9	San Antonio Palopo	9	Septiembre	2023-09-23T00:00:00	2024-11-08T20:00:00	8	Radiación solar	0
9113	7	Sololá	712	San Antonio Palopó	9	San Antonio Palopo	9	Septiembre	2023-09-23T00:00:00	2024-11-08T21:00:00	2	Temperatura media	21.9
9114	7	Sololá	712	San Antonio Palopó	9	San Antonio Palopo	9	Septiembre	2023-09-23T00:00:00	2024-11-08T21:00:00	4	Temperatura máxima	21.9
9115	7	Sololá	712	San Antonio Palopó	9	San Antonio Palopo	9	Septiembre	2023-09-23T00:00:00	2024-11-08T21:00:00	3	Temperatura mínima	20.3
9116	7	Sololá	712	San Antonio Palopó	9	San Antonio Palopo	9	Septiembre	2023-09-23T00:00:00	2024-11-08T21:00:00	5	Humedad	76
9117	7	Sololá	712	San Antonio Palopó	9	San Antonio Palopo	9	Septiembre	2023-09-23T00:00:00	2024-11-08T21:00:00	6	Velocidad del viento	3.2
9118	7	Sololá	712	San Antonio Palopó	9	San Antonio Palopo	9	Septiembre	2023-09-23T00:00:00	2024-11-08T21:00:00	7	Dirección del viento	3.22
9119	7	Sololá	712	San Antonio Palopó	9	San Antonio Palopo	9	Septiembre	2023-09-23T00:00:00	2024-11-08T21:00:00	1	Precipitación	0
9120	7	Sololá	712	San Antonio Palopó	9	San Antonio Palopo	9	Septiembre	2023-09-23T00:00:00	2024-11-08T21:00:00	8	Radiación solar	0
9121	7	Sololá	712	San Antonio Palopó	9	San Antonio Palopo	9	Septiembre	2023-09-23T00:00:00	2024-11-08T22:00:00	2	Temperatura media	20.7
9122	7	Sololá	712	San Antonio Palopó	9	San Antonio Palopo	9	Septiembre	2023-09-23T00:00:00	2024-11-08T22:00:00	4	Temperatura máxima	22
9123	7	Sololá	712	San Antonio Palopó	9	San Antonio Palopo	9	Septiembre	2023-09-23T00:00:00	2024-11-08T22:00:00	3	Temperatura mínima	20.6
9124	7	Sololá	712	San Antonio Palopó	9	San Antonio Palopo	9	Septiembre	2023-09-23T00:00:00	2024-11-08T22:00:00	5	Humedad	82
9125	7	Sololá	712	San Antonio Palopó	9	San Antonio Palopo	9	Septiembre	2023-09-23T00:00:00	2024-11-08T22:00:00	6	Velocidad del viento	3.2
9126	7	Sololá	712	San Antonio Palopó	9	San Antonio Palopo	9	Septiembre	2023-09-23T00:00:00	2024-11-08T22:00:00	7	Dirección del viento	3.22
9127	7	Sololá	712	San Antonio Palopó	9	San Antonio Palopo	9	Septiembre	2023-09-23T00:00:00	2024-11-08T22:00:00	1	Precipitación	0
9128	7	Sololá	712	San Antonio Palopó	9	San Antonio Palopo	9	Septiembre	2023-09-23T00:00:00	2024-11-08T22:00:00	8	Radiación solar	0
9129	7	Sololá	712	San Antonio Palopó	9	San Antonio Palopo	9	Septiembre	2023-09-23T00:00:00	2024-11-08T23:00:00	2	Temperatura media	20.7
9130	7	Sololá	712	San Antonio Palopó	9	San Antonio Palopo	9	Septiembre	2023-09-23T00:00:00	2024-11-08T23:00:00	4	Temperatura máxima	20.8
9131	7	Sololá	712	San Antonio Palopó	9	San Antonio Palopo	9	Septiembre	2023-09-23T00:00:00	2024-11-08T23:00:00	3	Temperatura mínima	19.9
9132	7	Sololá	712	San Antonio Palopó	9	San Antonio Palopo	9	Septiembre	2023-09-23T00:00:00	2024-11-08T23:00:00	5	Humedad	79
9133	7	Sololá	712	San Antonio Palopó	9	San Antonio Palopo	9	Septiembre	2023-09-23T00:00:00	2024-11-08T23:00:00	6	Velocidad del viento	1.6
9134	7	Sololá	712	San Antonio Palopó	9	San Antonio Palopo	9	Septiembre	2023-09-23T00:00:00	2024-11-08T23:00:00	7	Dirección del viento	1.61
9135	7	Sololá	712	San Antonio Palopó	9	San Antonio Palopo	9	Septiembre	2023-09-23T00:00:00	2024-11-08T23:00:00	1	Precipitación	0
9136	7	Sololá	712	San Antonio Palopó	9	San Antonio Palopo	9	Septiembre	2023-09-23T00:00:00	2024-11-08T23:00:00	8	Radiación solar	0
9137	7	Sololá	712	San Antonio Palopó	9	San Antonio Palopo	9	Septiembre	2023-09-24T00:00:00	2024-11-08T00:00:00	2	Temperatura media	20.3
9138	7	Sololá	712	San Antonio Palopó	9	San Antonio Palopo	9	Septiembre	2023-09-24T00:00:00	2024-11-08T00:00:00	4	Temperatura máxima	20.8
9139	7	Sololá	712	San Antonio Palopó	9	San Antonio Palopo	9	Septiembre	2023-09-24T00:00:00	2024-11-08T00:00:00	3	Temperatura mínima	20.3
9140	7	Sololá	712	San Antonio Palopó	9	San Antonio Palopo	9	Septiembre	2023-09-24T00:00:00	2024-11-08T00:00:00	5	Humedad	75
9141	7	Sololá	712	San Antonio Palopó	9	San Antonio Palopo	9	Septiembre	2023-09-24T00:00:00	2024-11-08T00:00:00	6	Velocidad del viento	6.4
9142	7	Sololá	712	San Antonio Palopó	9	San Antonio Palopo	9	Septiembre	2023-09-24T00:00:00	2024-11-08T00:00:00	7	Dirección del viento	6.44
9143	7	Sololá	712	San Antonio Palopó	9	San Antonio Palopo	9	Septiembre	2023-09-24T00:00:00	2024-11-08T00:00:00	1	Precipitación	0
9144	7	Sololá	712	San Antonio Palopó	9	San Antonio Palopo	9	Septiembre	2023-09-24T00:00:00	2024-11-08T00:00:00	8	Radiación solar	0
9145	7	Sololá	712	San Antonio Palopó	9	San Antonio Palopo	9	Septiembre	2023-09-24T00:00:00	2024-11-08T01:00:00	2	Temperatura media	20
9146	7	Sololá	712	San Antonio Palopó	9	San Antonio Palopo	9	Septiembre	2023-09-24T00:00:00	2024-11-08T01:00:00	4	Temperatura máxima	20.3
9147	7	Sololá	712	San Antonio Palopó	9	San Antonio Palopo	9	Septiembre	2023-09-24T00:00:00	2024-11-08T01:00:00	3	Temperatura mínima	19.8
9148	7	Sololá	712	San Antonio Palopó	9	San Antonio Palopo	9	Septiembre	2023-09-24T00:00:00	2024-11-08T01:00:00	5	Humedad	75
9149	7	Sololá	712	San Antonio Palopó	9	San Antonio Palopo	9	Septiembre	2023-09-24T00:00:00	2024-11-08T01:00:00	6	Velocidad del viento	8
9150	7	Sololá	712	San Antonio Palopó	9	San Antonio Palopo	9	Septiembre	2023-09-24T00:00:00	2024-11-08T01:00:00	7	Dirección del viento	8.05
9151	7	Sololá	712	San Antonio Palopó	9	San Antonio Palopo	9	Septiembre	2023-09-24T00:00:00	2024-11-08T01:00:00	1	Precipitación	0
9152	7	Sololá	712	San Antonio Palopó	9	San Antonio Palopo	9	Septiembre	2023-09-24T00:00:00	2024-11-08T01:00:00	8	Radiación solar	0
9153	7	Sololá	712	San Antonio Palopó	9	San Antonio Palopo	9	Septiembre	2023-09-24T00:00:00	2024-11-08T02:00:00	2	Temperatura media	19.4
9154	7	Sololá	712	San Antonio Palopó	9	San Antonio Palopo	9	Septiembre	2023-09-24T00:00:00	2024-11-08T02:00:00	4	Temperatura máxima	20.3
9155	7	Sololá	712	San Antonio Palopó	9	San Antonio Palopo	9	Septiembre	2023-09-24T00:00:00	2024-11-08T02:00:00	3	Temperatura mínima	19.4
9156	7	Sololá	712	San Antonio Palopó	9	San Antonio Palopo	9	Septiembre	2023-09-24T00:00:00	2024-11-08T02:00:00	5	Humedad	76
9157	7	Sololá	712	San Antonio Palopó	9	San Antonio Palopo	9	Septiembre	2023-09-24T00:00:00	2024-11-08T02:00:00	6	Velocidad del viento	6.4
9158	7	Sololá	712	San Antonio Palopó	9	San Antonio Palopo	9	Septiembre	2023-09-24T00:00:00	2024-11-08T02:00:00	7	Dirección del viento	6.44
9159	7	Sololá	712	San Antonio Palopó	9	San Antonio Palopo	9	Septiembre	2023-09-24T00:00:00	2024-11-08T02:00:00	1	Precipitación	0
9160	7	Sololá	712	San Antonio Palopó	9	San Antonio Palopo	9	Septiembre	2023-09-24T00:00:00	2024-11-08T02:00:00	8	Radiación solar	0
9161	7	Sololá	712	San Antonio Palopó	9	San Antonio Palopo	9	Septiembre	2023-09-24T00:00:00	2024-11-08T03:00:00	2	Temperatura media	19
9162	7	Sololá	712	San Antonio Palopó	9	San Antonio Palopo	9	Septiembre	2023-09-24T00:00:00	2024-11-08T03:00:00	4	Temperatura máxima	19.7
9163	7	Sololá	712	San Antonio Palopó	9	San Antonio Palopo	9	Septiembre	2023-09-24T00:00:00	2024-11-08T03:00:00	3	Temperatura mínima	19
9164	7	Sololá	712	San Antonio Palopó	9	San Antonio Palopo	9	Septiembre	2023-09-24T00:00:00	2024-11-08T03:00:00	5	Humedad	76
9165	7	Sololá	712	San Antonio Palopó	9	San Antonio Palopo	9	Septiembre	2023-09-24T00:00:00	2024-11-08T03:00:00	6	Velocidad del viento	6.4
9166	7	Sololá	712	San Antonio Palopó	9	San Antonio Palopo	9	Septiembre	2023-09-24T00:00:00	2024-11-08T03:00:00	7	Dirección del viento	6.44
9167	7	Sololá	712	San Antonio Palopó	9	San Antonio Palopo	9	Septiembre	2023-09-24T00:00:00	2024-11-08T03:00:00	1	Precipitación	0
9168	7	Sololá	712	San Antonio Palopó	9	San Antonio Palopo	9	Septiembre	2023-09-24T00:00:00	2024-11-08T03:00:00	8	Radiación solar	0
9169	7	Sololá	712	San Antonio Palopó	9	San Antonio Palopo	9	Septiembre	2023-09-24T00:00:00	2024-11-08T04:00:00	2	Temperatura media	19.3
9170	7	Sololá	712	San Antonio Palopó	9	San Antonio Palopo	9	Septiembre	2023-09-24T00:00:00	2024-11-08T04:00:00	4	Temperatura máxima	19.4
9171	7	Sololá	712	San Antonio Palopó	9	San Antonio Palopo	9	Septiembre	2023-09-24T00:00:00	2024-11-08T04:00:00	3	Temperatura mínima	18.9
9172	7	Sololá	712	San Antonio Palopó	9	San Antonio Palopo	9	Septiembre	2023-09-24T00:00:00	2024-11-08T04:00:00	5	Humedad	74
9173	7	Sololá	712	San Antonio Palopó	9	San Antonio Palopo	9	Septiembre	2023-09-24T00:00:00	2024-11-08T04:00:00	6	Velocidad del viento	8
9174	7	Sololá	712	San Antonio Palopó	9	San Antonio Palopo	9	Septiembre	2023-09-24T00:00:00	2024-11-08T04:00:00	7	Dirección del viento	8.05
9175	7	Sololá	712	San Antonio Palopó	9	San Antonio Palopo	9	Septiembre	2023-09-24T00:00:00	2024-11-08T04:00:00	1	Precipitación	0
9176	7	Sololá	712	San Antonio Palopó	9	San Antonio Palopo	9	Septiembre	2023-09-24T00:00:00	2024-11-08T04:00:00	8	Radiación solar	0
9177	7	Sololá	712	San Antonio Palopó	9	San Antonio Palopo	9	Septiembre	2023-09-24T00:00:00	2024-11-08T05:00:00	2	Temperatura media	18.9
9178	7	Sololá	712	San Antonio Palopó	9	San Antonio Palopo	9	Septiembre	2023-09-24T00:00:00	2024-11-08T05:00:00	4	Temperatura máxima	19.4
9179	7	Sololá	712	San Antonio Palopó	9	San Antonio Palopo	9	Septiembre	2023-09-24T00:00:00	2024-11-08T05:00:00	3	Temperatura mínima	18.9
9180	7	Sololá	712	San Antonio Palopó	9	San Antonio Palopo	9	Septiembre	2023-09-24T00:00:00	2024-11-08T05:00:00	5	Humedad	75
9181	7	Sololá	712	San Antonio Palopó	9	San Antonio Palopo	9	Septiembre	2023-09-24T00:00:00	2024-11-08T05:00:00	6	Velocidad del viento	8
9182	7	Sololá	712	San Antonio Palopó	9	San Antonio Palopo	9	Septiembre	2023-09-24T00:00:00	2024-11-08T05:00:00	7	Dirección del viento	8.05
9183	7	Sololá	712	San Antonio Palopó	9	San Antonio Palopo	9	Septiembre	2023-09-24T00:00:00	2024-11-08T05:00:00	1	Precipitación	0
9184	7	Sololá	712	San Antonio Palopó	9	San Antonio Palopo	9	Septiembre	2023-09-24T00:00:00	2024-11-08T05:00:00	8	Radiación solar	0
9185	7	Sololá	712	San Antonio Palopó	9	San Antonio Palopo	9	Septiembre	2023-09-24T00:00:00	2024-11-08T06:00:00	2	Temperatura media	18.6
9186	7	Sololá	712	San Antonio Palopó	9	San Antonio Palopo	9	Septiembre	2023-09-24T00:00:00	2024-11-08T06:00:00	4	Temperatura máxima	18.9
9187	7	Sololá	712	San Antonio Palopó	9	San Antonio Palopo	9	Septiembre	2023-09-24T00:00:00	2024-11-08T06:00:00	3	Temperatura mínima	18.5
9188	7	Sololá	712	San Antonio Palopó	9	San Antonio Palopo	9	Septiembre	2023-09-24T00:00:00	2024-11-08T06:00:00	5	Humedad	75
9189	7	Sololá	712	San Antonio Palopó	9	San Antonio Palopo	9	Septiembre	2023-09-24T00:00:00	2024-11-08T06:00:00	6	Velocidad del viento	4.8
9190	7	Sololá	712	San Antonio Palopó	9	San Antonio Palopo	9	Septiembre	2023-09-24T00:00:00	2024-11-08T06:00:00	7	Dirección del viento	4.83
9191	7	Sololá	712	San Antonio Palopó	9	San Antonio Palopo	9	Septiembre	2023-09-24T00:00:00	2024-11-08T06:00:00	1	Precipitación	0
9192	7	Sololá	712	San Antonio Palopó	9	San Antonio Palopo	9	Septiembre	2023-09-24T00:00:00	2024-11-08T06:00:00	8	Radiación solar	2
9193	7	Sololá	712	San Antonio Palopó	9	San Antonio Palopo	9	Septiembre	2023-09-24T00:00:00	2024-11-08T07:00:00	2	Temperatura media	18.6
9194	7	Sololá	712	San Antonio Palopó	9	San Antonio Palopo	9	Septiembre	2023-09-24T00:00:00	2024-11-08T07:00:00	4	Temperatura máxima	18.7
9195	7	Sololá	712	San Antonio Palopó	9	San Antonio Palopo	9	Septiembre	2023-09-24T00:00:00	2024-11-08T07:00:00	3	Temperatura mínima	18.3
9196	7	Sololá	712	San Antonio Palopó	9	San Antonio Palopo	9	Septiembre	2023-09-24T00:00:00	2024-11-08T07:00:00	5	Humedad	77
9197	7	Sololá	712	San Antonio Palopó	9	San Antonio Palopo	9	Septiembre	2023-09-24T00:00:00	2024-11-08T07:00:00	6	Velocidad del viento	3.2
9198	7	Sololá	712	San Antonio Palopó	9	San Antonio Palopo	9	Septiembre	2023-09-24T00:00:00	2024-11-08T07:00:00	7	Dirección del viento	3.22
9199	7	Sololá	712	San Antonio Palopó	9	San Antonio Palopo	9	Septiembre	2023-09-24T00:00:00	2024-11-08T07:00:00	1	Precipitación	0
9200	7	Sololá	712	San Antonio Palopó	9	San Antonio Palopo	9	Septiembre	2023-09-24T00:00:00	2024-11-08T07:00:00	8	Radiación solar	43
9201	7	Sololá	712	San Antonio Palopó	9	San Antonio Palopo	9	Septiembre	2023-09-24T00:00:00	2024-11-08T08:00:00	2	Temperatura media	20.6
9202	7	Sololá	712	San Antonio Palopó	9	San Antonio Palopo	9	Septiembre	2023-09-24T00:00:00	2024-11-08T08:00:00	4	Temperatura máxima	20.6
9203	7	Sololá	712	San Antonio Palopó	9	San Antonio Palopo	9	Septiembre	2023-09-24T00:00:00	2024-11-08T08:00:00	3	Temperatura mínima	18.6
9204	7	Sololá	712	San Antonio Palopó	9	San Antonio Palopo	9	Septiembre	2023-09-24T00:00:00	2024-11-08T08:00:00	5	Humedad	74
9205	7	Sololá	712	San Antonio Palopó	9	San Antonio Palopo	9	Septiembre	2023-09-24T00:00:00	2024-11-08T08:00:00	6	Velocidad del viento	1.6
9206	7	Sololá	712	San Antonio Palopó	9	San Antonio Palopo	9	Septiembre	2023-09-24T00:00:00	2024-11-08T08:00:00	7	Dirección del viento	1.61
9207	7	Sololá	712	San Antonio Palopó	9	San Antonio Palopo	9	Septiembre	2023-09-24T00:00:00	2024-11-08T08:00:00	1	Precipitación	0
9208	7	Sololá	712	San Antonio Palopó	9	San Antonio Palopo	9	Septiembre	2023-09-24T00:00:00	2024-11-08T08:00:00	8	Radiación solar	146
9209	7	Sololá	712	San Antonio Palopó	9	San Antonio Palopo	9	Septiembre	2023-09-24T00:00:00	2024-11-08T09:00:00	2	Temperatura media	22
9210	7	Sololá	712	San Antonio Palopó	9	San Antonio Palopo	9	Septiembre	2023-09-24T00:00:00	2024-11-08T09:00:00	4	Temperatura máxima	22
9211	7	Sololá	712	San Antonio Palopó	9	San Antonio Palopo	9	Septiembre	2023-09-24T00:00:00	2024-11-08T09:00:00	3	Temperatura mínima	20.4
9212	7	Sololá	712	San Antonio Palopó	9	San Antonio Palopo	9	Septiembre	2023-09-24T00:00:00	2024-11-08T09:00:00	5	Humedad	73
9213	7	Sololá	712	San Antonio Palopó	9	San Antonio Palopo	9	Septiembre	2023-09-24T00:00:00	2024-11-08T09:00:00	6	Velocidad del viento	1.6
9214	7	Sololá	712	San Antonio Palopó	9	San Antonio Palopo	9	Septiembre	2023-09-24T00:00:00	2024-11-08T09:00:00	7	Dirección del viento	1.61
9215	7	Sololá	712	San Antonio Palopó	9	San Antonio Palopo	9	Septiembre	2023-09-24T00:00:00	2024-11-08T09:00:00	1	Precipitación	0
9216	7	Sololá	712	San Antonio Palopó	9	San Antonio Palopo	9	Septiembre	2023-09-24T00:00:00	2024-11-08T09:00:00	8	Radiación solar	320
9217	7	Sololá	712	San Antonio Palopó	9	San Antonio Palopo	9	Septiembre	2023-09-24T00:00:00	2024-11-08T10:00:00	2	Temperatura media	23.2
9218	7	Sololá	712	San Antonio Palopó	9	San Antonio Palopo	9	Septiembre	2023-09-24T00:00:00	2024-11-08T10:00:00	4	Temperatura máxima	23.2
9219	7	Sololá	712	San Antonio Palopó	9	San Antonio Palopo	9	Septiembre	2023-09-24T00:00:00	2024-11-08T10:00:00	3	Temperatura mínima	22
9220	7	Sololá	712	San Antonio Palopó	9	San Antonio Palopo	9	Septiembre	2023-09-24T00:00:00	2024-11-08T10:00:00	5	Humedad	69
9221	7	Sololá	712	San Antonio Palopó	9	San Antonio Palopo	9	Septiembre	2023-09-24T00:00:00	2024-11-08T10:00:00	6	Velocidad del viento	3.2
9222	7	Sololá	712	San Antonio Palopó	9	San Antonio Palopo	9	Septiembre	2023-09-24T00:00:00	2024-11-08T10:00:00	7	Dirección del viento	3.22
9223	7	Sololá	712	San Antonio Palopó	9	San Antonio Palopo	9	Septiembre	2023-09-24T00:00:00	2024-11-08T10:00:00	1	Precipitación	0
9224	7	Sololá	712	San Antonio Palopó	9	San Antonio Palopo	9	Septiembre	2023-09-24T00:00:00	2024-11-08T10:00:00	8	Radiación solar	638
9225	7	Sololá	712	San Antonio Palopó	9	San Antonio Palopo	9	Septiembre	2023-09-24T00:00:00	2024-11-08T11:00:00	2	Temperatura media	23.7
9226	7	Sololá	712	San Antonio Palopó	9	San Antonio Palopo	9	Septiembre	2023-09-24T00:00:00	2024-11-08T11:00:00	4	Temperatura máxima	24.6
9227	7	Sololá	712	San Antonio Palopó	9	San Antonio Palopo	9	Septiembre	2023-09-24T00:00:00	2024-11-08T11:00:00	3	Temperatura mínima	22.7
9228	7	Sololá	712	San Antonio Palopó	9	San Antonio Palopo	9	Septiembre	2023-09-24T00:00:00	2024-11-08T11:00:00	5	Humedad	70
9229	7	Sololá	712	San Antonio Palopó	9	San Antonio Palopo	9	Septiembre	2023-09-24T00:00:00	2024-11-08T11:00:00	6	Velocidad del viento	4.8
9230	7	Sololá	712	San Antonio Palopó	9	San Antonio Palopo	9	Septiembre	2023-09-24T00:00:00	2024-11-08T11:00:00	7	Dirección del viento	4.83
9231	7	Sololá	712	San Antonio Palopó	9	San Antonio Palopo	9	Septiembre	2023-09-24T00:00:00	2024-11-08T11:00:00	1	Precipitación	0
9232	7	Sololá	712	San Antonio Palopó	9	San Antonio Palopo	9	Septiembre	2023-09-24T00:00:00	2024-11-08T11:00:00	8	Radiación solar	754
9233	7	Sololá	712	San Antonio Palopó	9	San Antonio Palopo	9	Septiembre	2023-09-24T00:00:00	2024-11-08T12:00:00	2	Temperatura media	24.4
9234	7	Sololá	712	San Antonio Palopó	9	San Antonio Palopo	9	Septiembre	2023-09-24T00:00:00	2024-11-08T12:00:00	4	Temperatura máxima	24.8
9235	7	Sololá	712	San Antonio Palopó	9	San Antonio Palopo	9	Septiembre	2023-09-24T00:00:00	2024-11-08T12:00:00	3	Temperatura mínima	23.6
9236	7	Sololá	712	San Antonio Palopó	9	San Antonio Palopo	9	Septiembre	2023-09-24T00:00:00	2024-11-08T12:00:00	5	Humedad	68
9237	7	Sololá	712	San Antonio Palopó	9	San Antonio Palopo	9	Septiembre	2023-09-24T00:00:00	2024-11-08T12:00:00	6	Velocidad del viento	8
9238	7	Sololá	712	San Antonio Palopó	9	San Antonio Palopo	9	Septiembre	2023-09-24T00:00:00	2024-11-08T12:00:00	7	Dirección del viento	8.05
9239	7	Sololá	712	San Antonio Palopó	9	San Antonio Palopo	9	Septiembre	2023-09-24T00:00:00	2024-11-08T12:00:00	1	Precipitación	0
9240	7	Sololá	712	San Antonio Palopó	9	San Antonio Palopo	9	Septiembre	2023-09-24T00:00:00	2024-11-08T12:00:00	8	Radiación solar	943
9241	7	Sololá	712	San Antonio Palopó	9	San Antonio Palopo	9	Septiembre	2023-09-24T00:00:00	2024-11-08T13:00:00	2	Temperatura media	23.8
9242	7	Sololá	712	San Antonio Palopó	9	San Antonio Palopo	9	Septiembre	2023-09-24T00:00:00	2024-11-08T13:00:00	4	Temperatura máxima	25.4
9243	7	Sololá	712	San Antonio Palopó	9	San Antonio Palopo	9	Septiembre	2023-09-24T00:00:00	2024-11-08T13:00:00	3	Temperatura mínima	23.8
9244	7	Sololá	712	San Antonio Palopó	9	San Antonio Palopo	9	Septiembre	2023-09-24T00:00:00	2024-11-08T13:00:00	5	Humedad	70
9245	7	Sololá	712	San Antonio Palopó	9	San Antonio Palopo	9	Septiembre	2023-09-24T00:00:00	2024-11-08T13:00:00	6	Velocidad del viento	8
9246	7	Sololá	712	San Antonio Palopó	9	San Antonio Palopo	9	Septiembre	2023-09-24T00:00:00	2024-11-08T13:00:00	7	Dirección del viento	8.05
9247	7	Sololá	712	San Antonio Palopó	9	San Antonio Palopo	9	Septiembre	2023-09-24T00:00:00	2024-11-08T13:00:00	1	Precipitación	0
9248	7	Sololá	712	San Antonio Palopó	9	San Antonio Palopo	9	Septiembre	2023-09-24T00:00:00	2024-11-08T13:00:00	8	Radiación solar	929
9249	7	Sololá	712	San Antonio Palopó	9	San Antonio Palopo	9	Septiembre	2023-09-24T00:00:00	2024-11-08T14:00:00	2	Temperatura media	22.8
9250	7	Sololá	712	San Antonio Palopó	9	San Antonio Palopo	9	Septiembre	2023-09-24T00:00:00	2024-11-08T14:00:00	4	Temperatura máxima	24.4
9251	7	Sololá	712	San Antonio Palopó	9	San Antonio Palopo	9	Septiembre	2023-09-24T00:00:00	2024-11-08T14:00:00	3	Temperatura mínima	22.8
9252	7	Sololá	712	San Antonio Palopó	9	San Antonio Palopo	9	Septiembre	2023-09-24T00:00:00	2024-11-08T14:00:00	5	Humedad	74
9253	7	Sololá	712	San Antonio Palopó	9	San Antonio Palopo	9	Septiembre	2023-09-24T00:00:00	2024-11-08T14:00:00	6	Velocidad del viento	8
9254	7	Sololá	712	San Antonio Palopó	9	San Antonio Palopo	9	Septiembre	2023-09-24T00:00:00	2024-11-08T14:00:00	7	Dirección del viento	8.05
9255	7	Sololá	712	San Antonio Palopó	9	San Antonio Palopo	9	Septiembre	2023-09-24T00:00:00	2024-11-08T14:00:00	1	Precipitación	0
9256	7	Sololá	712	San Antonio Palopó	9	San Antonio Palopo	9	Septiembre	2023-09-24T00:00:00	2024-11-08T14:00:00	8	Radiación solar	420
9257	7	Sololá	712	San Antonio Palopó	9	San Antonio Palopo	9	Septiembre	2023-09-24T00:00:00	2024-11-08T15:00:00	2	Temperatura media	21.7
9258	7	Sololá	712	San Antonio Palopó	9	San Antonio Palopo	9	Septiembre	2023-09-24T00:00:00	2024-11-08T15:00:00	4	Temperatura máxima	22.9
9259	7	Sololá	712	San Antonio Palopó	9	San Antonio Palopo	9	Septiembre	2023-09-24T00:00:00	2024-11-08T15:00:00	3	Temperatura mínima	21.1
9260	7	Sololá	712	San Antonio Palopó	9	San Antonio Palopo	9	Septiembre	2023-09-24T00:00:00	2024-11-08T15:00:00	5	Humedad	76
9261	7	Sololá	712	San Antonio Palopó	9	San Antonio Palopo	9	Septiembre	2023-09-24T00:00:00	2024-11-08T15:00:00	6	Velocidad del viento	4.8
9262	7	Sololá	712	San Antonio Palopó	9	San Antonio Palopo	9	Septiembre	2023-09-24T00:00:00	2024-11-08T15:00:00	7	Dirección del viento	4.83
9263	7	Sololá	712	San Antonio Palopó	9	San Antonio Palopo	9	Septiembre	2023-09-24T00:00:00	2024-11-08T15:00:00	1	Precipitación	4
9264	7	Sololá	712	San Antonio Palopó	9	San Antonio Palopo	9	Septiembre	2023-09-24T00:00:00	2024-11-08T15:00:00	8	Radiación solar	122
9265	7	Sololá	712	San Antonio Palopó	9	San Antonio Palopo	9	Septiembre	2023-09-24T00:00:00	2024-11-08T16:00:00	2	Temperatura media	22.8
9266	7	Sololá	712	San Antonio Palopó	9	San Antonio Palopo	9	Septiembre	2023-09-24T00:00:00	2024-11-08T16:00:00	4	Temperatura máxima	22.8
9267	7	Sololá	712	San Antonio Palopó	9	San Antonio Palopo	9	Septiembre	2023-09-24T00:00:00	2024-11-08T16:00:00	3	Temperatura mínima	21.4
9268	7	Sololá	712	San Antonio Palopó	9	San Antonio Palopo	9	Septiembre	2023-09-24T00:00:00	2024-11-08T16:00:00	5	Humedad	76
9269	7	Sololá	712	San Antonio Palopó	9	San Antonio Palopo	9	Septiembre	2023-09-24T00:00:00	2024-11-08T16:00:00	6	Velocidad del viento	4.8
9270	7	Sololá	712	San Antonio Palopó	9	San Antonio Palopo	9	Septiembre	2023-09-24T00:00:00	2024-11-08T16:00:00	7	Dirección del viento	4.83
9271	7	Sololá	712	San Antonio Palopó	9	San Antonio Palopo	9	Septiembre	2023-09-24T00:00:00	2024-11-08T16:00:00	1	Precipitación	0
9272	7	Sololá	712	San Antonio Palopó	9	San Antonio Palopo	9	Septiembre	2023-09-24T00:00:00	2024-11-08T16:00:00	8	Radiación solar	287
9273	7	Sololá	712	San Antonio Palopó	9	San Antonio Palopo	9	Septiembre	2023-09-24T00:00:00	2024-11-08T17:00:00	2	Temperatura media	21.3
9274	7	Sololá	712	San Antonio Palopó	9	San Antonio Palopo	9	Septiembre	2023-09-24T00:00:00	2024-11-08T17:00:00	4	Temperatura máxima	23.4
9275	7	Sololá	712	San Antonio Palopó	9	San Antonio Palopo	9	Septiembre	2023-09-24T00:00:00	2024-11-08T17:00:00	3	Temperatura mínima	21.3
9276	7	Sololá	712	San Antonio Palopó	9	San Antonio Palopo	9	Septiembre	2023-09-24T00:00:00	2024-11-08T17:00:00	5	Humedad	79
9277	7	Sololá	712	San Antonio Palopó	9	San Antonio Palopo	9	Septiembre	2023-09-24T00:00:00	2024-11-08T17:00:00	6	Velocidad del viento	4.8
9278	7	Sololá	712	San Antonio Palopó	9	San Antonio Palopo	9	Septiembre	2023-09-24T00:00:00	2024-11-08T17:00:00	7	Dirección del viento	4.83
9279	7	Sololá	712	San Antonio Palopó	9	San Antonio Palopo	9	Septiembre	2023-09-24T00:00:00	2024-11-08T17:00:00	1	Precipitación	0
9280	7	Sololá	712	San Antonio Palopó	9	San Antonio Palopo	9	Septiembre	2023-09-24T00:00:00	2024-11-08T17:00:00	8	Radiación solar	132
9281	7	Sololá	712	San Antonio Palopó	9	San Antonio Palopo	9	Septiembre	2023-09-24T00:00:00	2024-11-08T18:00:00	2	Temperatura media	20.7
9282	7	Sololá	712	San Antonio Palopó	9	San Antonio Palopo	9	Septiembre	2023-09-24T00:00:00	2024-11-08T18:00:00	4	Temperatura máxima	21.4
9283	7	Sololá	712	San Antonio Palopó	9	San Antonio Palopo	9	Septiembre	2023-09-24T00:00:00	2024-11-08T18:00:00	3	Temperatura mínima	20.7
9284	7	Sololá	712	San Antonio Palopó	9	San Antonio Palopo	9	Septiembre	2023-09-24T00:00:00	2024-11-08T18:00:00	5	Humedad	82
9285	7	Sololá	712	San Antonio Palopó	9	San Antonio Palopo	9	Septiembre	2023-09-24T00:00:00	2024-11-08T18:00:00	6	Velocidad del viento	3.2
9286	7	Sololá	712	San Antonio Palopó	9	San Antonio Palopo	9	Septiembre	2023-09-24T00:00:00	2024-11-08T18:00:00	7	Dirección del viento	3.22
9287	7	Sololá	712	San Antonio Palopó	9	San Antonio Palopo	9	Septiembre	2023-09-24T00:00:00	2024-11-08T18:00:00	1	Precipitación	0
9288	7	Sololá	712	San Antonio Palopó	9	San Antonio Palopo	9	Septiembre	2023-09-24T00:00:00	2024-11-08T18:00:00	8	Radiación solar	6
9289	7	Sololá	712	San Antonio Palopó	9	San Antonio Palopo	9	Septiembre	2023-09-24T00:00:00	2024-11-08T19:00:00	2	Temperatura media	20.6
9290	7	Sololá	712	San Antonio Palopó	9	San Antonio Palopo	9	Septiembre	2023-09-24T00:00:00	2024-11-08T19:00:00	4	Temperatura máxima	20.7
9291	7	Sololá	712	San Antonio Palopó	9	San Antonio Palopo	9	Septiembre	2023-09-24T00:00:00	2024-11-08T19:00:00	3	Temperatura mínima	20.6
9292	7	Sololá	712	San Antonio Palopó	9	San Antonio Palopo	9	Septiembre	2023-09-24T00:00:00	2024-11-08T19:00:00	5	Humedad	79
9293	7	Sololá	712	San Antonio Palopó	9	San Antonio Palopo	9	Septiembre	2023-09-24T00:00:00	2024-11-08T19:00:00	6	Velocidad del viento	1.6
9294	7	Sololá	712	San Antonio Palopó	9	San Antonio Palopo	9	Septiembre	2023-09-24T00:00:00	2024-11-08T19:00:00	7	Dirección del viento	1.61
9295	7	Sololá	712	San Antonio Palopó	9	San Antonio Palopo	9	Septiembre	2023-09-24T00:00:00	2024-11-08T19:00:00	1	Precipitación	0
9296	7	Sololá	712	San Antonio Palopó	9	San Antonio Palopo	9	Septiembre	2023-09-24T00:00:00	2024-11-08T19:00:00	8	Radiación solar	0
9297	7	Sololá	712	San Antonio Palopó	9	San Antonio Palopo	9	Septiembre	2023-09-24T00:00:00	2024-11-08T20:00:00	2	Temperatura media	19.9
9298	7	Sololá	712	San Antonio Palopó	9	San Antonio Palopo	9	Septiembre	2023-09-24T00:00:00	2024-11-08T20:00:00	4	Temperatura máxima	20.7
9299	7	Sololá	712	San Antonio Palopó	9	San Antonio Palopo	9	Septiembre	2023-09-24T00:00:00	2024-11-08T20:00:00	3	Temperatura mínima	19.9
9300	7	Sololá	712	San Antonio Palopó	9	San Antonio Palopo	9	Septiembre	2023-09-24T00:00:00	2024-11-08T20:00:00	5	Humedad	83
9301	7	Sololá	712	San Antonio Palopó	9	San Antonio Palopo	9	Septiembre	2023-09-24T00:00:00	2024-11-08T20:00:00	6	Velocidad del viento	3.2
9302	7	Sololá	712	San Antonio Palopó	9	San Antonio Palopo	9	Septiembre	2023-09-24T00:00:00	2024-11-08T20:00:00	7	Dirección del viento	3.22
9303	7	Sololá	712	San Antonio Palopó	9	San Antonio Palopo	9	Septiembre	2023-09-24T00:00:00	2024-11-08T20:00:00	1	Precipitación	1.6
9304	7	Sololá	712	San Antonio Palopó	9	San Antonio Palopo	9	Septiembre	2023-09-24T00:00:00	2024-11-08T20:00:00	8	Radiación solar	0
9305	7	Sololá	712	San Antonio Palopó	9	San Antonio Palopo	9	Septiembre	2023-09-24T00:00:00	2024-11-08T21:00:00	2	Temperatura media	19.4
9306	7	Sololá	712	San Antonio Palopó	9	San Antonio Palopo	9	Septiembre	2023-09-24T00:00:00	2024-11-08T21:00:00	4	Temperatura máxima	19.9
9307	7	Sololá	712	San Antonio Palopó	9	San Antonio Palopo	9	Septiembre	2023-09-24T00:00:00	2024-11-08T21:00:00	3	Temperatura mínima	19.3
9308	7	Sololá	712	San Antonio Palopó	9	San Antonio Palopo	9	Septiembre	2023-09-24T00:00:00	2024-11-08T21:00:00	5	Humedad	87
9309	7	Sololá	712	San Antonio Palopó	9	San Antonio Palopo	9	Septiembre	2023-09-24T00:00:00	2024-11-08T21:00:00	6	Velocidad del viento	3.2
9310	7	Sololá	712	San Antonio Palopó	9	San Antonio Palopo	9	Septiembre	2023-09-24T00:00:00	2024-11-08T21:00:00	7	Dirección del viento	3.22
9311	7	Sololá	712	San Antonio Palopó	9	San Antonio Palopo	9	Septiembre	2023-09-24T00:00:00	2024-11-08T21:00:00	1	Precipitación	0
9312	7	Sololá	712	San Antonio Palopó	9	San Antonio Palopo	9	Septiembre	2023-09-24T00:00:00	2024-11-08T21:00:00	8	Radiación solar	0
9313	7	Sololá	712	San Antonio Palopó	9	San Antonio Palopo	9	Septiembre	2023-09-24T00:00:00	2024-11-08T22:00:00	2	Temperatura media	19.4
9314	7	Sololá	712	San Antonio Palopó	9	San Antonio Palopo	9	Septiembre	2023-09-24T00:00:00	2024-11-08T22:00:00	4	Temperatura máxima	19.8
9315	7	Sololá	712	San Antonio Palopó	9	San Antonio Palopo	9	Septiembre	2023-09-24T00:00:00	2024-11-08T22:00:00	3	Temperatura mínima	19.3
9316	7	Sololá	712	San Antonio Palopó	9	San Antonio Palopo	9	Septiembre	2023-09-24T00:00:00	2024-11-08T22:00:00	5	Humedad	86
9317	7	Sololá	712	San Antonio Palopó	9	San Antonio Palopo	9	Septiembre	2023-09-24T00:00:00	2024-11-08T22:00:00	6	Velocidad del viento	3.2
9318	7	Sololá	712	San Antonio Palopó	9	San Antonio Palopo	9	Septiembre	2023-09-24T00:00:00	2024-11-08T22:00:00	7	Dirección del viento	3.22
9319	7	Sololá	712	San Antonio Palopó	9	San Antonio Palopo	9	Septiembre	2023-09-24T00:00:00	2024-11-08T22:00:00	1	Precipitación	0.4
9320	7	Sololá	712	San Antonio Palopó	9	San Antonio Palopo	9	Septiembre	2023-09-24T00:00:00	2024-11-08T22:00:00	8	Radiación solar	0
9321	7	Sololá	712	San Antonio Palopó	9	San Antonio Palopo	9	Septiembre	2023-09-24T00:00:00	2024-11-08T23:00:00	2	Temperatura media	18.6
9322	7	Sololá	712	San Antonio Palopó	9	San Antonio Palopo	9	Septiembre	2023-09-24T00:00:00	2024-11-08T23:00:00	4	Temperatura máxima	19.5
9323	7	Sololá	712	San Antonio Palopó	9	San Antonio Palopo	9	Septiembre	2023-09-24T00:00:00	2024-11-08T23:00:00	3	Temperatura mínima	18.6
9324	7	Sololá	712	San Antonio Palopó	9	San Antonio Palopo	9	Septiembre	2023-09-24T00:00:00	2024-11-08T23:00:00	5	Humedad	91
9325	7	Sololá	712	San Antonio Palopó	9	San Antonio Palopo	9	Septiembre	2023-09-24T00:00:00	2024-11-08T23:00:00	6	Velocidad del viento	1.6
9326	7	Sololá	712	San Antonio Palopó	9	San Antonio Palopo	9	Septiembre	2023-09-24T00:00:00	2024-11-08T23:00:00	7	Dirección del viento	1.61
9327	7	Sololá	712	San Antonio Palopó	9	San Antonio Palopo	9	Septiembre	2023-09-24T00:00:00	2024-11-08T23:00:00	1	Precipitación	5.4
9328	7	Sololá	712	San Antonio Palopó	9	San Antonio Palopo	9	Septiembre	2023-09-24T00:00:00	2024-11-08T23:00:00	8	Radiación solar	0
9329	7	Sololá	712	San Antonio Palopó	9	San Antonio Palopo	9	Septiembre	2023-09-25T00:00:00	2024-11-08T00:00:00	2	Temperatura media	18.1
9330	7	Sololá	712	San Antonio Palopó	9	San Antonio Palopo	9	Septiembre	2023-09-25T00:00:00	2024-11-08T00:00:00	4	Temperatura máxima	18.6
9331	7	Sololá	712	San Antonio Palopó	9	San Antonio Palopo	9	Septiembre	2023-09-25T00:00:00	2024-11-08T00:00:00	3	Temperatura mínima	18.1
9332	7	Sololá	712	San Antonio Palopó	9	San Antonio Palopo	9	Septiembre	2023-09-25T00:00:00	2024-11-08T00:00:00	5	Humedad	89
9333	7	Sololá	712	San Antonio Palopó	9	San Antonio Palopo	9	Septiembre	2023-09-25T00:00:00	2024-11-08T00:00:00	6	Velocidad del viento	1.6
9334	7	Sololá	712	San Antonio Palopó	9	San Antonio Palopo	9	Septiembre	2023-09-25T00:00:00	2024-11-08T00:00:00	7	Dirección del viento	1.61
9335	7	Sololá	712	San Antonio Palopó	9	San Antonio Palopo	9	Septiembre	2023-09-25T00:00:00	2024-11-08T00:00:00	1	Precipitación	2.2
9336	7	Sololá	712	San Antonio Palopó	9	San Antonio Palopo	9	Septiembre	2023-09-25T00:00:00	2024-11-08T00:00:00	8	Radiación solar	0
9337	7	Sololá	712	San Antonio Palopó	9	San Antonio Palopo	9	Septiembre	2023-09-25T00:00:00	2024-11-08T01:00:00	2	Temperatura media	18.3
9338	7	Sololá	712	San Antonio Palopó	9	San Antonio Palopo	9	Septiembre	2023-09-25T00:00:00	2024-11-08T01:00:00	4	Temperatura máxima	18.5
9339	7	Sololá	712	San Antonio Palopó	9	San Antonio Palopo	9	Septiembre	2023-09-25T00:00:00	2024-11-08T01:00:00	3	Temperatura mínima	17.9
9340	7	Sololá	712	San Antonio Palopó	9	San Antonio Palopo	9	Septiembre	2023-09-25T00:00:00	2024-11-08T01:00:00	5	Humedad	90
9341	7	Sololá	712	San Antonio Palopó	9	San Antonio Palopo	9	Septiembre	2023-09-25T00:00:00	2024-11-08T01:00:00	6	Velocidad del viento	3.2
9342	7	Sololá	712	San Antonio Palopó	9	San Antonio Palopo	9	Septiembre	2023-09-25T00:00:00	2024-11-08T01:00:00	7	Dirección del viento	3.22
9343	7	Sololá	712	San Antonio Palopó	9	San Antonio Palopo	9	Septiembre	2023-09-25T00:00:00	2024-11-08T01:00:00	1	Precipitación	1.8
9344	7	Sololá	712	San Antonio Palopó	9	San Antonio Palopo	9	Septiembre	2023-09-25T00:00:00	2024-11-08T01:00:00	8	Radiación solar	0
9345	7	Sololá	712	San Antonio Palopó	9	San Antonio Palopo	9	Septiembre	2023-09-25T00:00:00	2024-11-08T02:00:00	2	Temperatura media	17.8
9346	7	Sololá	712	San Antonio Palopó	9	San Antonio Palopo	9	Septiembre	2023-09-25T00:00:00	2024-11-08T02:00:00	4	Temperatura máxima	18.3
9347	7	Sololá	712	San Antonio Palopó	9	San Antonio Palopo	9	Septiembre	2023-09-25T00:00:00	2024-11-08T02:00:00	3	Temperatura mínima	17.8
9348	7	Sololá	712	San Antonio Palopó	9	San Antonio Palopo	9	Septiembre	2023-09-25T00:00:00	2024-11-08T02:00:00	5	Humedad	91
9349	7	Sololá	712	San Antonio Palopó	9	San Antonio Palopo	9	Septiembre	2023-09-25T00:00:00	2024-11-08T02:00:00	6	Velocidad del viento	3.2
9350	7	Sololá	712	San Antonio Palopó	9	San Antonio Palopo	9	Septiembre	2023-09-25T00:00:00	2024-11-08T02:00:00	7	Dirección del viento	3.22
9351	7	Sololá	712	San Antonio Palopó	9	San Antonio Palopo	9	Septiembre	2023-09-25T00:00:00	2024-11-08T02:00:00	1	Precipitación	3.6
9352	7	Sololá	712	San Antonio Palopó	9	San Antonio Palopo	9	Septiembre	2023-09-25T00:00:00	2024-11-08T02:00:00	8	Radiación solar	0
9353	7	Sololá	712	San Antonio Palopó	9	San Antonio Palopo	9	Septiembre	2023-09-25T00:00:00	2024-11-08T03:00:00	2	Temperatura media	18.1
9354	7	Sololá	712	San Antonio Palopó	9	San Antonio Palopo	9	Septiembre	2023-09-25T00:00:00	2024-11-08T03:00:00	4	Temperatura máxima	18.2
9355	7	Sololá	712	San Antonio Palopó	9	San Antonio Palopo	9	Septiembre	2023-09-25T00:00:00	2024-11-08T03:00:00	3	Temperatura mínima	17.7
9356	7	Sololá	712	San Antonio Palopó	9	San Antonio Palopo	9	Septiembre	2023-09-25T00:00:00	2024-11-08T03:00:00	5	Humedad	86
9357	7	Sololá	712	San Antonio Palopó	9	San Antonio Palopo	9	Septiembre	2023-09-25T00:00:00	2024-11-08T03:00:00	6	Velocidad del viento	4.8
9358	7	Sololá	712	San Antonio Palopó	9	San Antonio Palopo	9	Septiembre	2023-09-25T00:00:00	2024-11-08T03:00:00	7	Dirección del viento	4.83
9359	7	Sololá	712	San Antonio Palopó	9	San Antonio Palopo	9	Septiembre	2023-09-25T00:00:00	2024-11-08T03:00:00	1	Precipitación	0.2
9360	7	Sololá	712	San Antonio Palopó	9	San Antonio Palopo	9	Septiembre	2023-09-25T00:00:00	2024-11-08T03:00:00	8	Radiación solar	0
9361	7	Sololá	712	San Antonio Palopó	9	San Antonio Palopo	9	Septiembre	2023-09-25T00:00:00	2024-11-08T04:00:00	2	Temperatura media	18.3
9362	7	Sololá	712	San Antonio Palopó	9	San Antonio Palopo	9	Septiembre	2023-09-25T00:00:00	2024-11-08T04:00:00	4	Temperatura máxima	18.4
9363	7	Sololá	712	San Antonio Palopó	9	San Antonio Palopo	9	Septiembre	2023-09-25T00:00:00	2024-11-08T04:00:00	3	Temperatura mínima	18.1
9364	7	Sololá	712	San Antonio Palopó	9	San Antonio Palopo	9	Septiembre	2023-09-25T00:00:00	2024-11-08T04:00:00	5	Humedad	78
9365	7	Sololá	712	San Antonio Palopó	9	San Antonio Palopo	9	Septiembre	2023-09-25T00:00:00	2024-11-08T04:00:00	6	Velocidad del viento	4.8
9366	7	Sololá	712	San Antonio Palopó	9	San Antonio Palopo	9	Septiembre	2023-09-25T00:00:00	2024-11-08T04:00:00	7	Dirección del viento	4.83
9367	7	Sololá	712	San Antonio Palopó	9	San Antonio Palopo	9	Septiembre	2023-09-25T00:00:00	2024-11-08T04:00:00	1	Precipitación	0
9368	7	Sololá	712	San Antonio Palopó	9	San Antonio Palopo	9	Septiembre	2023-09-25T00:00:00	2024-11-08T04:00:00	8	Radiación solar	0
9369	7	Sololá	712	San Antonio Palopó	9	San Antonio Palopo	9	Septiembre	2023-09-25T00:00:00	2024-11-08T05:00:00	2	Temperatura media	17.7
9370	7	Sololá	712	San Antonio Palopó	9	San Antonio Palopo	9	Septiembre	2023-09-25T00:00:00	2024-11-08T05:00:00	4	Temperatura máxima	18.3
9371	7	Sololá	712	San Antonio Palopó	9	San Antonio Palopo	9	Septiembre	2023-09-25T00:00:00	2024-11-08T05:00:00	3	Temperatura mínima	17.4
9372	7	Sololá	712	San Antonio Palopó	9	San Antonio Palopo	9	Septiembre	2023-09-25T00:00:00	2024-11-08T05:00:00	5	Humedad	82
9373	7	Sololá	712	San Antonio Palopó	9	San Antonio Palopo	9	Septiembre	2023-09-25T00:00:00	2024-11-08T05:00:00	6	Velocidad del viento	3.2
9374	7	Sololá	712	San Antonio Palopó	9	San Antonio Palopo	9	Septiembre	2023-09-25T00:00:00	2024-11-08T05:00:00	7	Dirección del viento	3.22
9375	7	Sololá	712	San Antonio Palopó	9	San Antonio Palopo	9	Septiembre	2023-09-25T00:00:00	2024-11-08T05:00:00	1	Precipitación	0
9376	7	Sololá	712	San Antonio Palopó	9	San Antonio Palopo	9	Septiembre	2023-09-25T00:00:00	2024-11-08T05:00:00	8	Radiación solar	0
9377	7	Sololá	712	San Antonio Palopó	9	San Antonio Palopo	9	Septiembre	2023-09-25T00:00:00	2024-11-08T06:00:00	2	Temperatura media	18
9378	7	Sololá	712	San Antonio Palopó	9	San Antonio Palopo	9	Septiembre	2023-09-25T00:00:00	2024-11-08T06:00:00	4	Temperatura máxima	18
9379	7	Sololá	712	San Antonio Palopó	9	San Antonio Palopo	9	Septiembre	2023-09-25T00:00:00	2024-11-08T06:00:00	3	Temperatura mínima	17.4
9380	7	Sololá	712	San Antonio Palopó	9	San Antonio Palopo	9	Septiembre	2023-09-25T00:00:00	2024-11-08T06:00:00	5	Humedad	79
9381	7	Sololá	712	San Antonio Palopó	9	San Antonio Palopo	9	Septiembre	2023-09-25T00:00:00	2024-11-08T06:00:00	6	Velocidad del viento	3.2
9382	7	Sololá	712	San Antonio Palopó	9	San Antonio Palopo	9	Septiembre	2023-09-25T00:00:00	2024-11-08T06:00:00	7	Dirección del viento	3.22
9383	7	Sololá	712	San Antonio Palopó	9	San Antonio Palopo	9	Septiembre	2023-09-25T00:00:00	2024-11-08T06:00:00	1	Precipitación	0
9384	7	Sololá	712	San Antonio Palopó	9	San Antonio Palopo	9	Septiembre	2023-09-25T00:00:00	2024-11-08T06:00:00	8	Radiación solar	0
9385	7	Sololá	712	San Antonio Palopó	9	San Antonio Palopo	9	Septiembre	2023-09-25T00:00:00	2024-11-08T07:00:00	2	Temperatura media	18.6
9386	7	Sololá	712	San Antonio Palopó	9	San Antonio Palopo	9	Septiembre	2023-09-25T00:00:00	2024-11-08T07:00:00	4	Temperatura máxima	18.7
9387	7	Sololá	712	San Antonio Palopó	9	San Antonio Palopo	9	Septiembre	2023-09-25T00:00:00	2024-11-08T07:00:00	3	Temperatura mínima	18
9388	7	Sololá	712	San Antonio Palopó	9	San Antonio Palopo	9	Septiembre	2023-09-25T00:00:00	2024-11-08T07:00:00	5	Humedad	77
9389	7	Sololá	712	San Antonio Palopó	9	San Antonio Palopo	9	Septiembre	2023-09-25T00:00:00	2024-11-08T07:00:00	6	Velocidad del viento	6.4
9390	7	Sololá	712	San Antonio Palopó	9	San Antonio Palopo	9	Septiembre	2023-09-25T00:00:00	2024-11-08T07:00:00	7	Dirección del viento	6.44
9391	7	Sololá	712	San Antonio Palopó	9	San Antonio Palopo	9	Septiembre	2023-09-25T00:00:00	2024-11-08T07:00:00	1	Precipitación	0
9392	7	Sololá	712	San Antonio Palopó	9	San Antonio Palopo	9	Septiembre	2023-09-25T00:00:00	2024-11-08T07:00:00	8	Radiación solar	30
9393	7	Sololá	712	San Antonio Palopó	9	San Antonio Palopo	9	Septiembre	2023-09-25T00:00:00	2024-11-08T08:00:00	2	Temperatura media	19.7
9394	7	Sololá	712	San Antonio Palopó	9	San Antonio Palopo	9	Septiembre	2023-09-25T00:00:00	2024-11-08T08:00:00	4	Temperatura máxima	19.8
9395	7	Sololá	712	San Antonio Palopó	9	San Antonio Palopo	9	Septiembre	2023-09-25T00:00:00	2024-11-08T08:00:00	3	Temperatura mínima	18.4
9396	7	Sololá	712	San Antonio Palopó	9	San Antonio Palopo	9	Septiembre	2023-09-25T00:00:00	2024-11-08T08:00:00	5	Humedad	77
9397	7	Sololá	712	San Antonio Palopó	9	San Antonio Palopo	9	Septiembre	2023-09-25T00:00:00	2024-11-08T08:00:00	6	Velocidad del viento	3.2
9398	7	Sololá	712	San Antonio Palopó	9	San Antonio Palopo	9	Septiembre	2023-09-25T00:00:00	2024-11-08T08:00:00	7	Dirección del viento	3.22
9399	7	Sololá	712	San Antonio Palopó	9	San Antonio Palopo	9	Septiembre	2023-09-25T00:00:00	2024-11-08T08:00:00	1	Precipitación	0
9400	7	Sololá	712	San Antonio Palopó	9	San Antonio Palopo	9	Septiembre	2023-09-25T00:00:00	2024-11-08T08:00:00	8	Radiación solar	126
9401	7	Sololá	712	San Antonio Palopó	9	San Antonio Palopo	9	Septiembre	2023-09-25T00:00:00	2024-11-08T09:00:00	2	Temperatura media	21.5
9402	7	Sololá	712	San Antonio Palopó	9	San Antonio Palopo	9	Septiembre	2023-09-25T00:00:00	2024-11-08T09:00:00	4	Temperatura máxima	21.8
9403	7	Sololá	712	San Antonio Palopó	9	San Antonio Palopo	9	Septiembre	2023-09-25T00:00:00	2024-11-08T09:00:00	3	Temperatura mínima	19.7
9404	7	Sololá	712	San Antonio Palopó	9	San Antonio Palopo	9	Septiembre	2023-09-25T00:00:00	2024-11-08T09:00:00	5	Humedad	68
9405	7	Sololá	712	San Antonio Palopó	9	San Antonio Palopo	9	Septiembre	2023-09-25T00:00:00	2024-11-08T09:00:00	6	Velocidad del viento	3.2
9406	7	Sololá	712	San Antonio Palopó	9	San Antonio Palopo	9	Septiembre	2023-09-25T00:00:00	2024-11-08T09:00:00	7	Dirección del viento	3.22
9407	7	Sololá	712	San Antonio Palopó	9	San Antonio Palopo	9	Septiembre	2023-09-25T00:00:00	2024-11-08T09:00:00	1	Precipitación	0
9408	7	Sololá	712	San Antonio Palopó	9	San Antonio Palopo	9	Septiembre	2023-09-25T00:00:00	2024-11-08T09:00:00	8	Radiación solar	387
9409	7	Sololá	712	San Antonio Palopó	9	San Antonio Palopo	9	Septiembre	2023-09-25T00:00:00	2024-11-08T10:00:00	2	Temperatura media	21.4
9410	7	Sololá	712	San Antonio Palopó	9	San Antonio Palopo	9	Septiembre	2023-09-25T00:00:00	2024-11-08T10:00:00	4	Temperatura máxima	21.9
9411	7	Sololá	712	San Antonio Palopó	9	San Antonio Palopo	9	Septiembre	2023-09-25T00:00:00	2024-11-08T10:00:00	3	Temperatura mínima	21.1
9412	7	Sololá	712	San Antonio Palopó	9	San Antonio Palopo	9	Septiembre	2023-09-25T00:00:00	2024-11-08T10:00:00	5	Humedad	72
9413	7	Sololá	712	San Antonio Palopó	9	San Antonio Palopo	9	Septiembre	2023-09-25T00:00:00	2024-11-08T10:00:00	6	Velocidad del viento	8
9414	7	Sololá	712	San Antonio Palopó	9	San Antonio Palopo	9	Septiembre	2023-09-25T00:00:00	2024-11-08T10:00:00	7	Dirección del viento	8.05
9415	7	Sololá	712	San Antonio Palopó	9	San Antonio Palopo	9	Septiembre	2023-09-25T00:00:00	2024-11-08T10:00:00	1	Precipitación	0
9416	7	Sololá	712	San Antonio Palopó	9	San Antonio Palopo	9	Septiembre	2023-09-25T00:00:00	2024-11-08T10:00:00	8	Radiación solar	553
9417	7	Sololá	712	San Antonio Palopó	9	San Antonio Palopo	9	Septiembre	2023-09-25T00:00:00	2024-11-08T11:00:00	2	Temperatura media	22
9418	7	Sololá	712	San Antonio Palopó	9	San Antonio Palopo	9	Septiembre	2023-09-25T00:00:00	2024-11-08T11:00:00	4	Temperatura máxima	22
9419	7	Sololá	712	San Antonio Palopó	9	San Antonio Palopo	9	Septiembre	2023-09-25T00:00:00	2024-11-08T11:00:00	3	Temperatura mínima	21.4
9420	7	Sololá	712	San Antonio Palopó	9	San Antonio Palopo	9	Septiembre	2023-09-25T00:00:00	2024-11-08T11:00:00	5	Humedad	75
9421	7	Sololá	712	San Antonio Palopó	9	San Antonio Palopo	9	Septiembre	2023-09-25T00:00:00	2024-11-08T11:00:00	6	Velocidad del viento	3.2
9422	7	Sololá	712	San Antonio Palopó	9	San Antonio Palopo	9	Septiembre	2023-09-25T00:00:00	2024-11-08T11:00:00	7	Dirección del viento	3.22
9423	7	Sololá	712	San Antonio Palopó	9	San Antonio Palopo	9	Septiembre	2023-09-25T00:00:00	2024-11-08T11:00:00	1	Precipitación	0
9424	7	Sololá	712	San Antonio Palopó	9	San Antonio Palopo	9	Septiembre	2023-09-25T00:00:00	2024-11-08T11:00:00	8	Radiación solar	402
9425	7	Sololá	712	San Antonio Palopó	9	San Antonio Palopo	9	Septiembre	2023-09-25T00:00:00	2024-11-08T12:00:00	2	Temperatura media	22.6
9426	7	Sololá	712	San Antonio Palopó	9	San Antonio Palopo	9	Septiembre	2023-09-25T00:00:00	2024-11-08T12:00:00	4	Temperatura máxima	23.1
9427	7	Sololá	712	San Antonio Palopó	9	San Antonio Palopo	9	Septiembre	2023-09-25T00:00:00	2024-11-08T12:00:00	3	Temperatura mínima	22
9428	7	Sololá	712	San Antonio Palopó	9	San Antonio Palopo	9	Septiembre	2023-09-25T00:00:00	2024-11-08T12:00:00	5	Humedad	74
9429	7	Sololá	712	San Antonio Palopó	9	San Antonio Palopo	9	Septiembre	2023-09-25T00:00:00	2024-11-08T12:00:00	6	Velocidad del viento	6.4
9430	7	Sololá	712	San Antonio Palopó	9	San Antonio Palopo	9	Septiembre	2023-09-25T00:00:00	2024-11-08T12:00:00	7	Dirección del viento	6.44
9431	7	Sololá	712	San Antonio Palopó	9	San Antonio Palopo	9	Septiembre	2023-09-25T00:00:00	2024-11-08T12:00:00	1	Precipitación	0
9432	7	Sololá	712	San Antonio Palopó	9	San Antonio Palopo	9	Septiembre	2023-09-25T00:00:00	2024-11-08T12:00:00	8	Radiación solar	450
9433	7	Sololá	712	San Antonio Palopó	9	San Antonio Palopo	9	Septiembre	2023-09-25T00:00:00	2024-11-08T13:00:00	2	Temperatura media	22.9
9434	7	Sololá	712	San Antonio Palopó	9	San Antonio Palopo	9	Septiembre	2023-09-25T00:00:00	2024-11-08T13:00:00	4	Temperatura máxima	22.9
9435	7	Sololá	712	San Antonio Palopó	9	San Antonio Palopo	9	Septiembre	2023-09-25T00:00:00	2024-11-08T13:00:00	3	Temperatura mínima	21.9
9436	7	Sololá	712	San Antonio Palopó	9	San Antonio Palopo	9	Septiembre	2023-09-25T00:00:00	2024-11-08T13:00:00	5	Humedad	73
9437	7	Sololá	712	San Antonio Palopó	9	San Antonio Palopo	9	Septiembre	2023-09-25T00:00:00	2024-11-08T13:00:00	6	Velocidad del viento	11.3
9438	7	Sololá	712	San Antonio Palopó	9	San Antonio Palopo	9	Septiembre	2023-09-25T00:00:00	2024-11-08T13:00:00	7	Dirección del viento	11.27
9439	7	Sololá	712	San Antonio Palopó	9	San Antonio Palopo	9	Septiembre	2023-09-25T00:00:00	2024-11-08T13:00:00	1	Precipitación	0
9440	7	Sololá	712	San Antonio Palopó	9	San Antonio Palopo	9	Septiembre	2023-09-25T00:00:00	2024-11-08T13:00:00	8	Radiación solar	797
9441	7	Sololá	712	San Antonio Palopó	9	San Antonio Palopo	9	Septiembre	2023-09-25T00:00:00	2024-11-08T14:00:00	2	Temperatura media	22.3
9442	7	Sololá	712	San Antonio Palopó	9	San Antonio Palopo	9	Septiembre	2023-09-25T00:00:00	2024-11-08T14:00:00	4	Temperatura máxima	23.1
9443	7	Sololá	712	San Antonio Palopó	9	San Antonio Palopo	9	Septiembre	2023-09-25T00:00:00	2024-11-08T14:00:00	3	Temperatura mínima	22.2
9444	7	Sololá	712	San Antonio Palopó	9	San Antonio Palopo	9	Septiembre	2023-09-25T00:00:00	2024-11-08T14:00:00	5	Humedad	73
9445	7	Sololá	712	San Antonio Palopó	9	San Antonio Palopo	9	Septiembre	2023-09-25T00:00:00	2024-11-08T14:00:00	6	Velocidad del viento	9.7
9446	7	Sololá	712	San Antonio Palopó	9	San Antonio Palopo	9	Septiembre	2023-09-25T00:00:00	2024-11-08T14:00:00	7	Dirección del viento	9.66
9447	7	Sololá	712	San Antonio Palopó	9	San Antonio Palopo	9	Septiembre	2023-09-25T00:00:00	2024-11-08T14:00:00	1	Precipitación	0
9448	7	Sololá	712	San Antonio Palopó	9	San Antonio Palopo	9	Septiembre	2023-09-25T00:00:00	2024-11-08T14:00:00	8	Radiación solar	824
9449	7	Sololá	712	San Antonio Palopó	9	San Antonio Palopo	9	Septiembre	2023-09-25T00:00:00	2024-11-08T15:00:00	2	Temperatura media	21.2
9450	7	Sololá	712	San Antonio Palopó	9	San Antonio Palopo	9	Septiembre	2023-09-25T00:00:00	2024-11-08T15:00:00	4	Temperatura máxima	22.6
9451	7	Sololá	712	San Antonio Palopó	9	San Antonio Palopo	9	Septiembre	2023-09-25T00:00:00	2024-11-08T15:00:00	3	Temperatura mínima	21.2
9452	7	Sololá	712	San Antonio Palopó	9	San Antonio Palopo	9	Septiembre	2023-09-25T00:00:00	2024-11-08T15:00:00	5	Humedad	75
9453	7	Sololá	712	San Antonio Palopó	9	San Antonio Palopo	9	Septiembre	2023-09-25T00:00:00	2024-11-08T15:00:00	6	Velocidad del viento	3.2
9454	7	Sololá	712	San Antonio Palopó	9	San Antonio Palopo	9	Septiembre	2023-09-25T00:00:00	2024-11-08T15:00:00	7	Dirección del viento	3.22
9455	7	Sololá	712	San Antonio Palopó	9	San Antonio Palopo	9	Septiembre	2023-09-25T00:00:00	2024-11-08T15:00:00	1	Precipitación	0
9456	7	Sololá	712	San Antonio Palopó	9	San Antonio Palopo	9	Septiembre	2023-09-25T00:00:00	2024-11-08T15:00:00	8	Radiación solar	205
9457	7	Sololá	712	San Antonio Palopó	9	San Antonio Palopo	9	Septiembre	2023-09-25T00:00:00	2024-11-08T16:00:00	2	Temperatura media	21.2
9458	7	Sololá	712	San Antonio Palopó	9	San Antonio Palopo	9	Septiembre	2023-09-25T00:00:00	2024-11-08T16:00:00	4	Temperatura máxima	21.6
9459	7	Sololá	712	San Antonio Palopó	9	San Antonio Palopo	9	Septiembre	2023-09-25T00:00:00	2024-11-08T16:00:00	3	Temperatura mínima	21.2
9460	7	Sololá	712	San Antonio Palopó	9	San Antonio Palopo	9	Septiembre	2023-09-25T00:00:00	2024-11-08T16:00:00	5	Humedad	77
9461	7	Sololá	712	San Antonio Palopó	9	San Antonio Palopo	9	Septiembre	2023-09-25T00:00:00	2024-11-08T16:00:00	6	Velocidad del viento	1.6
9462	7	Sololá	712	San Antonio Palopó	9	San Antonio Palopo	9	Septiembre	2023-09-25T00:00:00	2024-11-08T16:00:00	7	Dirección del viento	1.61
9463	7	Sololá	712	San Antonio Palopó	9	San Antonio Palopo	9	Septiembre	2023-09-25T00:00:00	2024-11-08T16:00:00	1	Precipitación	0
9464	7	Sololá	712	San Antonio Palopó	9	San Antonio Palopo	9	Septiembre	2023-09-25T00:00:00	2024-11-08T16:00:00	8	Radiación solar	109
9465	7	Sololá	712	San Antonio Palopó	9	San Antonio Palopo	9	Septiembre	2023-09-25T00:00:00	2024-11-08T17:00:00	2	Temperatura media	20.9
9466	7	Sololá	712	San Antonio Palopó	9	San Antonio Palopo	9	Septiembre	2023-09-25T00:00:00	2024-11-08T17:00:00	4	Temperatura máxima	21.3
9467	7	Sololá	712	San Antonio Palopó	9	San Antonio Palopo	9	Septiembre	2023-09-25T00:00:00	2024-11-08T17:00:00	3	Temperatura mínima	20.8
9468	7	Sololá	712	San Antonio Palopó	9	San Antonio Palopo	9	Septiembre	2023-09-25T00:00:00	2024-11-08T17:00:00	5	Humedad	77
9469	7	Sololá	712	San Antonio Palopó	9	San Antonio Palopo	9	Septiembre	2023-09-25T00:00:00	2024-11-08T17:00:00	6	Velocidad del viento	3.2
9470	7	Sololá	712	San Antonio Palopó	9	San Antonio Palopo	9	Septiembre	2023-09-25T00:00:00	2024-11-08T17:00:00	7	Dirección del viento	3.22
9471	7	Sololá	712	San Antonio Palopó	9	San Antonio Palopo	9	Septiembre	2023-09-25T00:00:00	2024-11-08T17:00:00	1	Precipitación	0
9472	7	Sololá	712	San Antonio Palopó	9	San Antonio Palopo	9	Septiembre	2023-09-25T00:00:00	2024-11-08T17:00:00	8	Radiación solar	63
9473	7	Sololá	712	San Antonio Palopó	9	San Antonio Palopo	9	Septiembre	2023-09-25T00:00:00	2024-11-08T18:00:00	2	Temperatura media	20.5
9474	7	Sololá	712	San Antonio Palopó	9	San Antonio Palopo	9	Septiembre	2023-09-25T00:00:00	2024-11-08T18:00:00	4	Temperatura máxima	21
9475	7	Sololá	712	San Antonio Palopó	9	San Antonio Palopo	9	Septiembre	2023-09-25T00:00:00	2024-11-08T18:00:00	3	Temperatura mínima	20.5
9476	7	Sololá	712	San Antonio Palopó	9	San Antonio Palopo	9	Septiembre	2023-09-25T00:00:00	2024-11-08T18:00:00	5	Humedad	82
9477	7	Sololá	712	San Antonio Palopó	9	San Antonio Palopo	9	Septiembre	2023-09-25T00:00:00	2024-11-08T18:00:00	6	Velocidad del viento	1.6
9478	7	Sololá	712	San Antonio Palopó	9	San Antonio Palopo	9	Septiembre	2023-09-25T00:00:00	2024-11-08T18:00:00	7	Dirección del viento	1.61
9479	7	Sololá	712	San Antonio Palopó	9	San Antonio Palopo	9	Septiembre	2023-09-25T00:00:00	2024-11-08T18:00:00	1	Precipitación	0
9480	7	Sololá	712	San Antonio Palopó	9	San Antonio Palopo	9	Septiembre	2023-09-25T00:00:00	2024-11-08T18:00:00	8	Radiación solar	19
9481	7	Sololá	712	San Antonio Palopó	9	San Antonio Palopo	9	Septiembre	2023-09-25T00:00:00	2024-11-08T19:00:00	2	Temperatura media	19.9
9482	7	Sololá	712	San Antonio Palopó	9	San Antonio Palopo	9	Septiembre	2023-09-25T00:00:00	2024-11-08T19:00:00	4	Temperatura máxima	20.6
9483	7	Sololá	712	San Antonio Palopó	9	San Antonio Palopo	9	Septiembre	2023-09-25T00:00:00	2024-11-08T19:00:00	3	Temperatura mínima	19.9
9484	7	Sololá	712	San Antonio Palopó	9	San Antonio Palopo	9	Septiembre	2023-09-25T00:00:00	2024-11-08T19:00:00	5	Humedad	81
9485	7	Sololá	712	San Antonio Palopó	9	San Antonio Palopo	9	Septiembre	2023-09-25T00:00:00	2024-11-08T19:00:00	6	Velocidad del viento	1.6
9486	7	Sololá	712	San Antonio Palopó	9	San Antonio Palopo	9	Septiembre	2023-09-25T00:00:00	2024-11-08T19:00:00	7	Dirección del viento	1.61
9487	7	Sololá	712	San Antonio Palopó	9	San Antonio Palopo	9	Septiembre	2023-09-25T00:00:00	2024-11-08T19:00:00	1	Precipitación	0
9488	7	Sololá	712	San Antonio Palopó	9	San Antonio Palopo	9	Septiembre	2023-09-25T00:00:00	2024-11-08T19:00:00	8	Radiación solar	0
9489	7	Sololá	712	San Antonio Palopó	9	San Antonio Palopo	9	Septiembre	2023-09-25T00:00:00	2024-11-08T20:00:00	2	Temperatura media	19.9
9490	7	Sololá	712	San Antonio Palopó	9	San Antonio Palopo	9	Septiembre	2023-09-25T00:00:00	2024-11-08T20:00:00	4	Temperatura máxima	20.3
9491	7	Sololá	712	San Antonio Palopó	9	San Antonio Palopo	9	Septiembre	2023-09-25T00:00:00	2024-11-08T20:00:00	3	Temperatura mínima	19.8
9492	7	Sololá	712	San Antonio Palopó	9	San Antonio Palopo	9	Septiembre	2023-09-25T00:00:00	2024-11-08T20:00:00	5	Humedad	82
9493	7	Sololá	712	San Antonio Palopó	9	San Antonio Palopo	9	Septiembre	2023-09-25T00:00:00	2024-11-08T20:00:00	6	Velocidad del viento	1.6
9494	7	Sololá	712	San Antonio Palopó	9	San Antonio Palopo	9	Septiembre	2023-09-25T00:00:00	2024-11-08T20:00:00	7	Dirección del viento	1.61
9495	7	Sololá	712	San Antonio Palopó	9	San Antonio Palopo	9	Septiembre	2023-09-25T00:00:00	2024-11-08T20:00:00	1	Precipitación	0
9496	7	Sololá	712	San Antonio Palopó	9	San Antonio Palopo	9	Septiembre	2023-09-25T00:00:00	2024-11-08T20:00:00	8	Radiación solar	0
9497	7	Sololá	712	San Antonio Palopó	9	San Antonio Palopo	9	Septiembre	2023-09-25T00:00:00	2024-11-08T21:00:00	2	Temperatura media	19.7
9498	7	Sololá	712	San Antonio Palopó	9	San Antonio Palopo	9	Septiembre	2023-09-25T00:00:00	2024-11-08T21:00:00	4	Temperatura máxima	19.9
9499	7	Sololá	712	San Antonio Palopó	9	San Antonio Palopo	9	Septiembre	2023-09-25T00:00:00	2024-11-08T21:00:00	3	Temperatura mínima	19.5
9500	7	Sololá	712	San Antonio Palopó	9	San Antonio Palopo	9	Septiembre	2023-09-25T00:00:00	2024-11-08T21:00:00	5	Humedad	82
9501	7	Sololá	712	San Antonio Palopó	9	San Antonio Palopo	9	Septiembre	2023-09-25T00:00:00	2024-11-08T21:00:00	6	Velocidad del viento	3.2
9502	7	Sololá	712	San Antonio Palopó	9	San Antonio Palopo	9	Septiembre	2023-09-25T00:00:00	2024-11-08T21:00:00	7	Dirección del viento	3.22
9503	7	Sololá	712	San Antonio Palopó	9	San Antonio Palopo	9	Septiembre	2023-09-25T00:00:00	2024-11-08T21:00:00	1	Precipitación	0
9504	7	Sololá	712	San Antonio Palopó	9	San Antonio Palopo	9	Septiembre	2023-09-25T00:00:00	2024-11-08T21:00:00	8	Radiación solar	0
9505	7	Sololá	712	San Antonio Palopó	9	San Antonio Palopo	9	Septiembre	2023-09-25T00:00:00	2024-11-08T22:00:00	2	Temperatura media	19.8
9506	7	Sololá	712	San Antonio Palopó	9	San Antonio Palopo	9	Septiembre	2023-09-25T00:00:00	2024-11-08T22:00:00	4	Temperatura máxima	19.8
9507	7	Sololá	712	San Antonio Palopó	9	San Antonio Palopo	9	Septiembre	2023-09-25T00:00:00	2024-11-08T22:00:00	3	Temperatura mínima	19.5
9508	7	Sololá	712	San Antonio Palopó	9	San Antonio Palopo	9	Septiembre	2023-09-25T00:00:00	2024-11-08T22:00:00	5	Humedad	82
9509	7	Sololá	712	San Antonio Palopó	9	San Antonio Palopo	9	Septiembre	2023-09-25T00:00:00	2024-11-08T22:00:00	6	Velocidad del viento	1.6
9510	7	Sololá	712	San Antonio Palopó	9	San Antonio Palopo	9	Septiembre	2023-09-25T00:00:00	2024-11-08T22:00:00	7	Dirección del viento	1.61
9511	7	Sololá	712	San Antonio Palopó	9	San Antonio Palopo	9	Septiembre	2023-09-25T00:00:00	2024-11-08T22:00:00	1	Precipitación	0
9512	7	Sololá	712	San Antonio Palopó	9	San Antonio Palopo	9	Septiembre	2023-09-25T00:00:00	2024-11-08T22:00:00	8	Radiación solar	0
9513	7	Sololá	712	San Antonio Palopó	9	San Antonio Palopo	9	Septiembre	2023-09-25T00:00:00	2024-11-08T23:00:00	2	Temperatura media	19.7
9514	7	Sololá	712	San Antonio Palopó	9	San Antonio Palopo	9	Septiembre	2023-09-25T00:00:00	2024-11-08T23:00:00	4	Temperatura máxima	19.9
9515	7	Sololá	712	San Antonio Palopó	9	San Antonio Palopo	9	Septiembre	2023-09-25T00:00:00	2024-11-08T23:00:00	3	Temperatura mínima	19.6
9516	7	Sololá	712	San Antonio Palopó	9	San Antonio Palopo	9	Septiembre	2023-09-25T00:00:00	2024-11-08T23:00:00	5	Humedad	85
9517	7	Sololá	712	San Antonio Palopó	9	San Antonio Palopo	9	Septiembre	2023-09-25T00:00:00	2024-11-08T23:00:00	6	Velocidad del viento	1.6
9518	7	Sololá	712	San Antonio Palopó	9	San Antonio Palopo	9	Septiembre	2023-09-25T00:00:00	2024-11-08T23:00:00	7	Dirección del viento	1.61
9519	7	Sololá	712	San Antonio Palopó	9	San Antonio Palopo	9	Septiembre	2023-09-25T00:00:00	2024-11-08T23:00:00	1	Precipitación	0
9520	7	Sololá	712	San Antonio Palopó	9	San Antonio Palopo	9	Septiembre	2023-09-25T00:00:00	2024-11-08T23:00:00	8	Radiación solar	0
9521	7	Sololá	712	San Antonio Palopó	9	San Antonio Palopo	9	Septiembre	2023-09-26T00:00:00	2024-11-08T00:00:00	2	Temperatura media	19.3
9522	7	Sololá	712	San Antonio Palopó	9	San Antonio Palopo	9	Septiembre	2023-09-26T00:00:00	2024-11-08T00:00:00	4	Temperatura máxima	19.8
9523	7	Sololá	712	San Antonio Palopó	9	San Antonio Palopo	9	Septiembre	2023-09-26T00:00:00	2024-11-08T00:00:00	3	Temperatura mínima	19.2
9524	7	Sololá	712	San Antonio Palopó	9	San Antonio Palopo	9	Septiembre	2023-09-26T00:00:00	2024-11-08T00:00:00	5	Humedad	84
9525	7	Sololá	712	San Antonio Palopó	9	San Antonio Palopo	9	Septiembre	2023-09-26T00:00:00	2024-11-08T00:00:00	6	Velocidad del viento	1.6
9526	7	Sololá	712	San Antonio Palopó	9	San Antonio Palopo	9	Septiembre	2023-09-26T00:00:00	2024-11-08T00:00:00	7	Dirección del viento	1.61
9527	7	Sololá	712	San Antonio Palopó	9	San Antonio Palopo	9	Septiembre	2023-09-26T00:00:00	2024-11-08T00:00:00	1	Precipitación	0
9528	7	Sololá	712	San Antonio Palopó	9	San Antonio Palopo	9	Septiembre	2023-09-26T00:00:00	2024-11-08T00:00:00	8	Radiación solar	0
9529	7	Sololá	712	San Antonio Palopó	9	San Antonio Palopo	9	Septiembre	2023-09-26T00:00:00	2024-11-08T01:00:00	2	Temperatura media	19.2
9530	7	Sololá	712	San Antonio Palopó	9	San Antonio Palopo	9	Septiembre	2023-09-26T00:00:00	2024-11-08T01:00:00	4	Temperatura máxima	19.3
9531	7	Sololá	712	San Antonio Palopó	9	San Antonio Palopo	9	Septiembre	2023-09-26T00:00:00	2024-11-08T01:00:00	3	Temperatura mínima	18.7
9532	7	Sololá	712	San Antonio Palopó	9	San Antonio Palopo	9	Septiembre	2023-09-26T00:00:00	2024-11-08T01:00:00	5	Humedad	82
9533	7	Sololá	712	San Antonio Palopó	9	San Antonio Palopo	9	Septiembre	2023-09-26T00:00:00	2024-11-08T01:00:00	6	Velocidad del viento	3.2
9534	7	Sololá	712	San Antonio Palopó	9	San Antonio Palopo	9	Septiembre	2023-09-26T00:00:00	2024-11-08T01:00:00	7	Dirección del viento	3.22
9535	7	Sololá	712	San Antonio Palopó	9	San Antonio Palopo	9	Septiembre	2023-09-26T00:00:00	2024-11-08T01:00:00	1	Precipitación	0
9536	7	Sololá	712	San Antonio Palopó	9	San Antonio Palopo	9	Septiembre	2023-09-26T00:00:00	2024-11-08T01:00:00	8	Radiación solar	0
9537	7	Sololá	712	San Antonio Palopó	9	San Antonio Palopo	9	Septiembre	2023-09-26T00:00:00	2024-11-08T02:00:00	2	Temperatura media	19.8
9538	7	Sololá	712	San Antonio Palopó	9	San Antonio Palopo	9	Septiembre	2023-09-26T00:00:00	2024-11-08T02:00:00	4	Temperatura máxima	19.8
9539	7	Sololá	712	San Antonio Palopó	9	San Antonio Palopo	9	Septiembre	2023-09-26T00:00:00	2024-11-08T02:00:00	3	Temperatura mínima	19.2
9540	7	Sololá	712	San Antonio Palopó	9	San Antonio Palopo	9	Septiembre	2023-09-26T00:00:00	2024-11-08T02:00:00	5	Humedad	77
9541	7	Sololá	712	San Antonio Palopó	9	San Antonio Palopo	9	Septiembre	2023-09-26T00:00:00	2024-11-08T02:00:00	6	Velocidad del viento	4.8
9542	7	Sololá	712	San Antonio Palopó	9	San Antonio Palopo	9	Septiembre	2023-09-26T00:00:00	2024-11-08T02:00:00	7	Dirección del viento	4.83
9543	7	Sololá	712	San Antonio Palopó	9	San Antonio Palopo	9	Septiembre	2023-09-26T00:00:00	2024-11-08T02:00:00	1	Precipitación	0
9544	7	Sololá	712	San Antonio Palopó	9	San Antonio Palopo	9	Septiembre	2023-09-26T00:00:00	2024-11-08T02:00:00	8	Radiación solar	0
9545	7	Sololá	712	San Antonio Palopó	9	San Antonio Palopo	9	Septiembre	2023-09-26T00:00:00	2024-11-08T03:00:00	2	Temperatura media	19.2
9546	7	Sololá	712	San Antonio Palopó	9	San Antonio Palopo	9	Septiembre	2023-09-26T00:00:00	2024-11-08T03:00:00	4	Temperatura máxima	19.8
9547	7	Sololá	712	San Antonio Palopó	9	San Antonio Palopo	9	Septiembre	2023-09-26T00:00:00	2024-11-08T03:00:00	3	Temperatura mínima	19.2
9548	7	Sololá	712	San Antonio Palopó	9	San Antonio Palopo	9	Septiembre	2023-09-26T00:00:00	2024-11-08T03:00:00	5	Humedad	79
9549	7	Sololá	712	San Antonio Palopó	9	San Antonio Palopo	9	Septiembre	2023-09-26T00:00:00	2024-11-08T03:00:00	6	Velocidad del viento	3.2
9550	7	Sololá	712	San Antonio Palopó	9	San Antonio Palopo	9	Septiembre	2023-09-26T00:00:00	2024-11-08T03:00:00	7	Dirección del viento	3.22
9551	7	Sololá	712	San Antonio Palopó	9	San Antonio Palopo	9	Septiembre	2023-09-26T00:00:00	2024-11-08T03:00:00	1	Precipitación	0
9552	7	Sololá	712	San Antonio Palopó	9	San Antonio Palopo	9	Septiembre	2023-09-26T00:00:00	2024-11-08T03:00:00	8	Radiación solar	0
9553	7	Sololá	712	San Antonio Palopó	9	San Antonio Palopo	9	Septiembre	2023-09-26T00:00:00	2024-11-08T04:00:00	2	Temperatura media	19.2
9554	7	Sololá	712	San Antonio Palopó	9	San Antonio Palopo	9	Septiembre	2023-09-26T00:00:00	2024-11-08T04:00:00	4	Temperatura máxima	19.3
9555	7	Sololá	712	San Antonio Palopó	9	San Antonio Palopo	9	Septiembre	2023-09-26T00:00:00	2024-11-08T04:00:00	3	Temperatura mínima	18.9
9556	7	Sololá	712	San Antonio Palopó	9	San Antonio Palopo	9	Septiembre	2023-09-26T00:00:00	2024-11-08T04:00:00	5	Humedad	76
9557	7	Sololá	712	San Antonio Palopó	9	San Antonio Palopo	9	Septiembre	2023-09-26T00:00:00	2024-11-08T04:00:00	6	Velocidad del viento	6.4
9558	7	Sololá	712	San Antonio Palopó	9	San Antonio Palopo	9	Septiembre	2023-09-26T00:00:00	2024-11-08T04:00:00	7	Dirección del viento	6.44
9559	7	Sololá	712	San Antonio Palopó	9	San Antonio Palopo	9	Septiembre	2023-09-26T00:00:00	2024-11-08T04:00:00	1	Precipitación	0
9560	7	Sololá	712	San Antonio Palopó	9	San Antonio Palopo	9	Septiembre	2023-09-26T00:00:00	2024-11-08T04:00:00	8	Radiación solar	0
9561	7	Sololá	712	San Antonio Palopó	9	San Antonio Palopo	9	Septiembre	2023-09-26T00:00:00	2024-11-08T05:00:00	2	Temperatura media	18.8
9562	7	Sololá	712	San Antonio Palopó	9	San Antonio Palopo	9	Septiembre	2023-09-26T00:00:00	2024-11-08T05:00:00	4	Temperatura máxima	19.4
9563	7	Sololá	712	San Antonio Palopó	9	San Antonio Palopo	9	Septiembre	2023-09-26T00:00:00	2024-11-08T05:00:00	3	Temperatura mínima	18.8
9564	7	Sololá	712	San Antonio Palopó	9	San Antonio Palopo	9	Septiembre	2023-09-26T00:00:00	2024-11-08T05:00:00	5	Humedad	76
9565	7	Sololá	712	San Antonio Palopó	9	San Antonio Palopo	9	Septiembre	2023-09-26T00:00:00	2024-11-08T05:00:00	6	Velocidad del viento	9.7
9566	7	Sololá	712	San Antonio Palopó	9	San Antonio Palopo	9	Septiembre	2023-09-26T00:00:00	2024-11-08T05:00:00	7	Dirección del viento	9.66
9567	7	Sololá	712	San Antonio Palopó	9	San Antonio Palopo	9	Septiembre	2023-09-26T00:00:00	2024-11-08T05:00:00	1	Precipitación	0
9568	7	Sololá	712	San Antonio Palopó	9	San Antonio Palopo	9	Septiembre	2023-09-26T00:00:00	2024-11-08T05:00:00	8	Radiación solar	0
9569	7	Sololá	712	San Antonio Palopó	9	San Antonio Palopo	9	Septiembre	2023-09-26T00:00:00	2024-11-08T06:00:00	2	Temperatura media	18.6
9570	7	Sololá	712	San Antonio Palopó	9	San Antonio Palopo	9	Septiembre	2023-09-26T00:00:00	2024-11-08T06:00:00	4	Temperatura máxima	18.8
9571	7	Sololá	712	San Antonio Palopó	9	San Antonio Palopo	9	Septiembre	2023-09-26T00:00:00	2024-11-08T06:00:00	3	Temperatura mínima	18.3
9572	7	Sololá	712	San Antonio Palopó	9	San Antonio Palopo	9	Septiembre	2023-09-26T00:00:00	2024-11-08T06:00:00	5	Humedad	76
9573	7	Sololá	712	San Antonio Palopó	9	San Antonio Palopo	9	Septiembre	2023-09-26T00:00:00	2024-11-08T06:00:00	6	Velocidad del viento	12.9
9574	7	Sololá	712	San Antonio Palopó	9	San Antonio Palopo	9	Septiembre	2023-09-26T00:00:00	2024-11-08T06:00:00	7	Dirección del viento	12.87
9575	7	Sololá	712	San Antonio Palopó	9	San Antonio Palopo	9	Septiembre	2023-09-26T00:00:00	2024-11-08T06:00:00	1	Precipitación	0
9576	7	Sololá	712	San Antonio Palopó	9	San Antonio Palopo	9	Septiembre	2023-09-26T00:00:00	2024-11-08T06:00:00	8	Radiación solar	0
9577	7	Sololá	712	San Antonio Palopó	9	San Antonio Palopo	9	Septiembre	2023-09-26T00:00:00	2024-11-08T07:00:00	2	Temperatura media	18.6
9578	7	Sololá	712	San Antonio Palopó	9	San Antonio Palopo	9	Septiembre	2023-09-26T00:00:00	2024-11-08T07:00:00	4	Temperatura máxima	18.6
9579	7	Sololá	712	San Antonio Palopó	9	San Antonio Palopo	9	Septiembre	2023-09-26T00:00:00	2024-11-08T07:00:00	3	Temperatura mínima	18.3
9580	7	Sololá	712	San Antonio Palopó	9	San Antonio Palopo	9	Septiembre	2023-09-26T00:00:00	2024-11-08T07:00:00	5	Humedad	76
9581	7	Sololá	712	San Antonio Palopó	9	San Antonio Palopo	9	Septiembre	2023-09-26T00:00:00	2024-11-08T07:00:00	6	Velocidad del viento	11.3
9582	7	Sololá	712	San Antonio Palopó	9	San Antonio Palopo	9	Septiembre	2023-09-26T00:00:00	2024-11-08T07:00:00	7	Dirección del viento	11.27
9583	7	Sololá	712	San Antonio Palopó	9	San Antonio Palopo	9	Septiembre	2023-09-26T00:00:00	2024-11-08T07:00:00	1	Precipitación	0
9584	7	Sololá	712	San Antonio Palopó	9	San Antonio Palopo	9	Septiembre	2023-09-26T00:00:00	2024-11-08T07:00:00	8	Radiación solar	19
9585	7	Sololá	712	San Antonio Palopó	9	San Antonio Palopo	9	Septiembre	2023-09-26T00:00:00	2024-11-08T08:00:00	2	Temperatura media	20.6
9586	7	Sololá	712	San Antonio Palopó	9	San Antonio Palopo	9	Septiembre	2023-09-26T00:00:00	2024-11-08T08:00:00	4	Temperatura máxima	20.6
9587	7	Sololá	712	San Antonio Palopó	9	San Antonio Palopo	9	Septiembre	2023-09-26T00:00:00	2024-11-08T08:00:00	3	Temperatura mínima	18.6
9588	7	Sololá	712	San Antonio Palopó	9	San Antonio Palopo	9	Septiembre	2023-09-26T00:00:00	2024-11-08T08:00:00	5	Humedad	75
9589	7	Sololá	712	San Antonio Palopó	9	San Antonio Palopo	9	Septiembre	2023-09-26T00:00:00	2024-11-08T08:00:00	6	Velocidad del viento	6.4
9590	7	Sololá	712	San Antonio Palopó	9	San Antonio Palopo	9	Septiembre	2023-09-26T00:00:00	2024-11-08T08:00:00	7	Dirección del viento	6.44
9591	7	Sololá	712	San Antonio Palopó	9	San Antonio Palopo	9	Septiembre	2023-09-26T00:00:00	2024-11-08T08:00:00	1	Precipitación	0
9592	7	Sololá	712	San Antonio Palopó	9	San Antonio Palopo	9	Septiembre	2023-09-26T00:00:00	2024-11-08T08:00:00	8	Radiación solar	133
9593	7	Sololá	712	San Antonio Palopó	9	San Antonio Palopo	9	Septiembre	2023-09-26T00:00:00	2024-11-08T09:00:00	2	Temperatura media	21.1
9594	7	Sololá	712	San Antonio Palopó	9	San Antonio Palopo	9	Septiembre	2023-09-26T00:00:00	2024-11-08T09:00:00	4	Temperatura máxima	21.7
9595	7	Sololá	712	San Antonio Palopó	9	San Antonio Palopo	9	Septiembre	2023-09-26T00:00:00	2024-11-08T09:00:00	3	Temperatura mínima	20.6
9596	7	Sololá	712	San Antonio Palopó	9	San Antonio Palopo	9	Septiembre	2023-09-26T00:00:00	2024-11-08T09:00:00	5	Humedad	73
9597	7	Sololá	712	San Antonio Palopó	9	San Antonio Palopo	9	Septiembre	2023-09-26T00:00:00	2024-11-08T09:00:00	6	Velocidad del viento	3.2
9598	7	Sololá	712	San Antonio Palopó	9	San Antonio Palopo	9	Septiembre	2023-09-26T00:00:00	2024-11-08T09:00:00	7	Dirección del viento	3.22
9599	7	Sololá	712	San Antonio Palopó	9	San Antonio Palopo	9	Septiembre	2023-09-26T00:00:00	2024-11-08T09:00:00	1	Precipitación	0
9600	7	Sololá	712	San Antonio Palopó	9	San Antonio Palopo	9	Septiembre	2023-09-26T00:00:00	2024-11-08T09:00:00	8	Radiación solar	415
9601	7	Sololá	712	San Antonio Palopó	9	San Antonio Palopo	9	Septiembre	2023-09-26T00:00:00	2024-11-08T10:00:00	2	Temperatura media	21.9
9602	7	Sololá	712	San Antonio Palopó	9	San Antonio Palopo	9	Septiembre	2023-09-26T00:00:00	2024-11-08T10:00:00	4	Temperatura máxima	22
9603	7	Sololá	712	San Antonio Palopó	9	San Antonio Palopo	9	Septiembre	2023-09-26T00:00:00	2024-11-08T10:00:00	3	Temperatura mínima	21.1
9604	7	Sololá	712	San Antonio Palopó	9	San Antonio Palopo	9	Septiembre	2023-09-26T00:00:00	2024-11-08T10:00:00	5	Humedad	75
9605	7	Sololá	712	San Antonio Palopó	9	San Antonio Palopo	9	Septiembre	2023-09-26T00:00:00	2024-11-08T10:00:00	6	Velocidad del viento	3.2
9606	7	Sololá	712	San Antonio Palopó	9	San Antonio Palopo	9	Septiembre	2023-09-26T00:00:00	2024-11-08T10:00:00	7	Dirección del viento	3.22
9607	7	Sololá	712	San Antonio Palopó	9	San Antonio Palopo	9	Septiembre	2023-09-26T00:00:00	2024-11-08T10:00:00	1	Precipitación	0
9608	7	Sololá	712	San Antonio Palopó	9	San Antonio Palopo	9	Septiembre	2023-09-26T00:00:00	2024-11-08T10:00:00	8	Radiación solar	669
9609	7	Sololá	712	San Antonio Palopó	9	San Antonio Palopo	9	Septiembre	2023-09-26T00:00:00	2024-11-08T11:00:00	2	Temperatura media	24.1
9610	7	Sololá	712	San Antonio Palopó	9	San Antonio Palopo	9	Septiembre	2023-09-26T00:00:00	2024-11-08T11:00:00	4	Temperatura máxima	24.4
9611	7	Sololá	712	San Antonio Palopó	9	San Antonio Palopo	9	Septiembre	2023-09-26T00:00:00	2024-11-08T11:00:00	3	Temperatura mínima	21.9
9612	7	Sololá	712	San Antonio Palopó	9	San Antonio Palopo	9	Septiembre	2023-09-26T00:00:00	2024-11-08T11:00:00	5	Humedad	69
9613	7	Sololá	712	San Antonio Palopó	9	San Antonio Palopo	9	Septiembre	2023-09-26T00:00:00	2024-11-08T11:00:00	6	Velocidad del viento	3.2
9614	7	Sololá	712	San Antonio Palopó	9	San Antonio Palopo	9	Septiembre	2023-09-26T00:00:00	2024-11-08T11:00:00	7	Dirección del viento	3.22
9615	7	Sololá	712	San Antonio Palopó	9	San Antonio Palopo	9	Septiembre	2023-09-26T00:00:00	2024-11-08T11:00:00	1	Precipitación	0
9616	7	Sololá	712	San Antonio Palopó	9	San Antonio Palopo	9	Septiembre	2023-09-26T00:00:00	2024-11-08T11:00:00	8	Radiación solar	796
9617	7	Sololá	712	San Antonio Palopó	9	San Antonio Palopo	9	Septiembre	2023-09-26T00:00:00	2024-11-08T12:00:00	2	Temperatura media	23.3
9618	7	Sololá	712	San Antonio Palopó	9	San Antonio Palopo	9	Septiembre	2023-09-26T00:00:00	2024-11-08T12:00:00	4	Temperatura máxima	25
9619	7	Sololá	712	San Antonio Palopó	9	San Antonio Palopo	9	Septiembre	2023-09-26T00:00:00	2024-11-08T12:00:00	3	Temperatura mínima	23.3
9620	7	Sololá	712	San Antonio Palopó	9	San Antonio Palopo	9	Septiembre	2023-09-26T00:00:00	2024-11-08T12:00:00	5	Humedad	76
9621	7	Sololá	712	San Antonio Palopó	9	San Antonio Palopo	9	Septiembre	2023-09-26T00:00:00	2024-11-08T12:00:00	6	Velocidad del viento	4.8
9622	7	Sololá	712	San Antonio Palopó	9	San Antonio Palopo	9	Septiembre	2023-09-26T00:00:00	2024-11-08T12:00:00	7	Dirección del viento	4.83
9623	7	Sololá	712	San Antonio Palopó	9	San Antonio Palopo	9	Septiembre	2023-09-26T00:00:00	2024-11-08T12:00:00	1	Precipitación	0
9624	7	Sololá	712	San Antonio Palopó	9	San Antonio Palopo	9	Septiembre	2023-09-26T00:00:00	2024-11-08T12:00:00	8	Radiación solar	620
9625	7	Sololá	712	San Antonio Palopó	9	San Antonio Palopo	9	Septiembre	2023-09-26T00:00:00	2024-11-08T13:00:00	2	Temperatura media	25.2
9626	7	Sololá	712	San Antonio Palopó	9	San Antonio Palopo	9	Septiembre	2023-09-26T00:00:00	2024-11-08T13:00:00	4	Temperatura máxima	25.2
9627	7	Sololá	712	San Antonio Palopó	9	San Antonio Palopo	9	Septiembre	2023-09-26T00:00:00	2024-11-08T13:00:00	3	Temperatura mínima	22.9
9628	7	Sololá	712	San Antonio Palopó	9	San Antonio Palopo	9	Septiembre	2023-09-26T00:00:00	2024-11-08T13:00:00	5	Humedad	72
9629	7	Sololá	712	San Antonio Palopó	9	San Antonio Palopo	9	Septiembre	2023-09-26T00:00:00	2024-11-08T13:00:00	6	Velocidad del viento	6.4
9630	7	Sololá	712	San Antonio Palopó	9	San Antonio Palopo	9	Septiembre	2023-09-26T00:00:00	2024-11-08T13:00:00	7	Dirección del viento	6.44
9631	7	Sololá	712	San Antonio Palopó	9	San Antonio Palopo	9	Septiembre	2023-09-26T00:00:00	2024-11-08T13:00:00	1	Precipitación	0
9632	7	Sololá	712	San Antonio Palopó	9	San Antonio Palopo	9	Septiembre	2023-09-26T00:00:00	2024-11-08T13:00:00	8	Radiación solar	473
9633	7	Sololá	712	San Antonio Palopó	9	San Antonio Palopo	9	Septiembre	2023-09-26T00:00:00	2024-11-08T14:00:00	2	Temperatura media	23.2
9634	7	Sololá	712	San Antonio Palopó	9	San Antonio Palopo	9	Septiembre	2023-09-26T00:00:00	2024-11-08T14:00:00	4	Temperatura máxima	25.3
9635	7	Sololá	712	San Antonio Palopó	9	San Antonio Palopo	9	Septiembre	2023-09-26T00:00:00	2024-11-08T14:00:00	3	Temperatura mínima	22.7
9636	7	Sololá	712	San Antonio Palopó	9	San Antonio Palopo	9	Septiembre	2023-09-26T00:00:00	2024-11-08T14:00:00	5	Humedad	78
9637	7	Sololá	712	San Antonio Palopó	9	San Antonio Palopo	9	Septiembre	2023-09-26T00:00:00	2024-11-08T14:00:00	6	Velocidad del viento	9.7
9638	7	Sololá	712	San Antonio Palopó	9	San Antonio Palopo	9	Septiembre	2023-09-26T00:00:00	2024-11-08T14:00:00	7	Dirección del viento	9.66
9639	7	Sololá	712	San Antonio Palopó	9	San Antonio Palopo	9	Septiembre	2023-09-26T00:00:00	2024-11-08T14:00:00	1	Precipitación	0
9640	7	Sololá	712	San Antonio Palopó	9	San Antonio Palopo	9	Septiembre	2023-09-26T00:00:00	2024-11-08T14:00:00	8	Radiación solar	286
9641	7	Sololá	712	San Antonio Palopó	9	San Antonio Palopo	9	Septiembre	2023-09-26T00:00:00	2024-11-08T15:00:00	2	Temperatura media	23.2
9642	7	Sololá	712	San Antonio Palopó	9	San Antonio Palopo	9	Septiembre	2023-09-26T00:00:00	2024-11-08T15:00:00	4	Temperatura máxima	23.4
9643	7	Sololá	712	San Antonio Palopó	9	San Antonio Palopo	9	Septiembre	2023-09-26T00:00:00	2024-11-08T15:00:00	3	Temperatura mínima	22.4
9644	7	Sololá	712	San Antonio Palopó	9	San Antonio Palopo	9	Septiembre	2023-09-26T00:00:00	2024-11-08T15:00:00	5	Humedad	79
9645	7	Sololá	712	San Antonio Palopó	9	San Antonio Palopo	9	Septiembre	2023-09-26T00:00:00	2024-11-08T15:00:00	6	Velocidad del viento	8
9646	7	Sololá	712	San Antonio Palopó	9	San Antonio Palopo	9	Septiembre	2023-09-26T00:00:00	2024-11-08T15:00:00	7	Dirección del viento	8.05
9647	7	Sololá	712	San Antonio Palopó	9	San Antonio Palopo	9	Septiembre	2023-09-26T00:00:00	2024-11-08T15:00:00	1	Precipitación	0
9648	7	Sololá	712	San Antonio Palopó	9	San Antonio Palopo	9	Septiembre	2023-09-26T00:00:00	2024-11-08T15:00:00	8	Radiación solar	352
9649	7	Sololá	712	San Antonio Palopó	9	San Antonio Palopo	9	Septiembre	2023-09-26T00:00:00	2024-11-08T16:00:00	2	Temperatura media	21.5
9650	7	Sololá	712	San Antonio Palopó	9	San Antonio Palopo	9	Septiembre	2023-09-26T00:00:00	2024-11-08T16:00:00	4	Temperatura máxima	23.4
9651	7	Sololá	712	San Antonio Palopó	9	San Antonio Palopo	9	Septiembre	2023-09-26T00:00:00	2024-11-08T16:00:00	3	Temperatura mínima	21.5
9652	7	Sololá	712	San Antonio Palopó	9	San Antonio Palopo	9	Septiembre	2023-09-26T00:00:00	2024-11-08T16:00:00	5	Humedad	73
9653	7	Sololá	712	San Antonio Palopó	9	San Antonio Palopo	9	Septiembre	2023-09-26T00:00:00	2024-11-08T16:00:00	6	Velocidad del viento	6.4
9654	7	Sololá	712	San Antonio Palopó	9	San Antonio Palopo	9	Septiembre	2023-09-26T00:00:00	2024-11-08T16:00:00	7	Dirección del viento	6.44
9655	7	Sololá	712	San Antonio Palopó	9	San Antonio Palopo	9	Septiembre	2023-09-26T00:00:00	2024-11-08T16:00:00	1	Precipitación	0
9656	7	Sololá	712	San Antonio Palopó	9	San Antonio Palopo	9	Septiembre	2023-09-26T00:00:00	2024-11-08T16:00:00	8	Radiación solar	179
9657	7	Sololá	712	San Antonio Palopó	9	San Antonio Palopo	9	Septiembre	2023-09-26T00:00:00	2024-11-08T17:00:00	2	Temperatura media	20.4
9658	7	Sololá	712	San Antonio Palopó	9	San Antonio Palopo	9	Septiembre	2023-09-26T00:00:00	2024-11-08T17:00:00	4	Temperatura máxima	21.5
9659	7	Sololá	712	San Antonio Palopó	9	San Antonio Palopo	9	Septiembre	2023-09-26T00:00:00	2024-11-08T17:00:00	3	Temperatura mínima	20.4
9660	7	Sololá	712	San Antonio Palopó	9	San Antonio Palopo	9	Septiembre	2023-09-26T00:00:00	2024-11-08T17:00:00	5	Humedad	81
9661	7	Sololá	712	San Antonio Palopó	9	San Antonio Palopo	9	Septiembre	2023-09-26T00:00:00	2024-11-08T17:00:00	6	Velocidad del viento	6.4
9662	7	Sololá	712	San Antonio Palopó	9	San Antonio Palopo	9	Septiembre	2023-09-26T00:00:00	2024-11-08T17:00:00	7	Dirección del viento	6.44
9663	7	Sololá	712	San Antonio Palopó	9	San Antonio Palopo	9	Septiembre	2023-09-26T00:00:00	2024-11-08T17:00:00	1	Precipitación	0.2
9664	7	Sololá	712	San Antonio Palopó	9	San Antonio Palopo	9	Septiembre	2023-09-26T00:00:00	2024-11-08T17:00:00	8	Radiación solar	5
9665	7	Sololá	712	San Antonio Palopó	9	San Antonio Palopo	9	Septiembre	2023-09-26T00:00:00	2024-11-08T18:00:00	2	Temperatura media	19.6
9666	7	Sololá	712	San Antonio Palopó	9	San Antonio Palopo	9	Septiembre	2023-09-26T00:00:00	2024-11-08T18:00:00	4	Temperatura máxima	20.4
9667	7	Sololá	712	San Antonio Palopó	9	San Antonio Palopo	9	Septiembre	2023-09-26T00:00:00	2024-11-08T18:00:00	3	Temperatura mínima	19.5
9668	7	Sololá	712	San Antonio Palopó	9	San Antonio Palopo	9	Septiembre	2023-09-26T00:00:00	2024-11-08T18:00:00	5	Humedad	87
9669	7	Sololá	712	San Antonio Palopó	9	San Antonio Palopo	9	Septiembre	2023-09-26T00:00:00	2024-11-08T18:00:00	6	Velocidad del viento	1.6
9670	7	Sololá	712	San Antonio Palopó	9	San Antonio Palopo	9	Septiembre	2023-09-26T00:00:00	2024-11-08T18:00:00	7	Dirección del viento	1.61
9671	7	Sololá	712	San Antonio Palopó	9	San Antonio Palopo	9	Septiembre	2023-09-26T00:00:00	2024-11-08T18:00:00	1	Precipitación	0.6
9672	7	Sololá	712	San Antonio Palopó	9	San Antonio Palopo	9	Septiembre	2023-09-26T00:00:00	2024-11-08T18:00:00	8	Radiación solar	0
9673	7	Sololá	712	San Antonio Palopó	9	San Antonio Palopo	9	Septiembre	2023-09-26T00:00:00	2024-11-08T19:00:00	2	Temperatura media	18.9
9674	7	Sololá	712	San Antonio Palopó	9	San Antonio Palopo	9	Septiembre	2023-09-26T00:00:00	2024-11-08T19:00:00	4	Temperatura máxima	19.6
9675	7	Sololá	712	San Antonio Palopó	9	San Antonio Palopo	9	Septiembre	2023-09-26T00:00:00	2024-11-08T19:00:00	3	Temperatura mínima	18.8
9676	7	Sololá	712	San Antonio Palopó	9	San Antonio Palopo	9	Septiembre	2023-09-26T00:00:00	2024-11-08T19:00:00	5	Humedad	88
9677	7	Sololá	712	San Antonio Palopó	9	San Antonio Palopo	9	Septiembre	2023-09-26T00:00:00	2024-11-08T19:00:00	6	Velocidad del viento	3.2
9678	7	Sololá	712	San Antonio Palopó	9	San Antonio Palopo	9	Septiembre	2023-09-26T00:00:00	2024-11-08T19:00:00	7	Dirección del viento	3.22
9679	7	Sololá	712	San Antonio Palopó	9	San Antonio Palopo	9	Septiembre	2023-09-26T00:00:00	2024-11-08T19:00:00	1	Precipitación	1.2
9680	7	Sololá	712	San Antonio Palopó	9	San Antonio Palopo	9	Septiembre	2023-09-26T00:00:00	2024-11-08T19:00:00	8	Radiación solar	0
9681	7	Sololá	712	San Antonio Palopó	9	San Antonio Palopo	9	Septiembre	2023-09-26T00:00:00	2024-11-08T20:00:00	2	Temperatura media	18.8
9682	7	Sololá	712	San Antonio Palopó	9	San Antonio Palopo	9	Septiembre	2023-09-26T00:00:00	2024-11-08T20:00:00	4	Temperatura máxima	18.9
9683	7	Sololá	712	San Antonio Palopó	9	San Antonio Palopo	9	Septiembre	2023-09-26T00:00:00	2024-11-08T20:00:00	3	Temperatura mínima	18.7
9684	7	Sololá	712	San Antonio Palopó	9	San Antonio Palopo	9	Septiembre	2023-09-26T00:00:00	2024-11-08T20:00:00	5	Humedad	90
9685	7	Sololá	712	San Antonio Palopó	9	San Antonio Palopo	9	Septiembre	2023-09-26T00:00:00	2024-11-08T20:00:00	6	Velocidad del viento	0
9686	7	Sololá	712	San Antonio Palopó	9	San Antonio Palopo	9	Septiembre	2023-09-26T00:00:00	2024-11-08T20:00:00	7	Dirección del viento	0
9687	7	Sololá	712	San Antonio Palopó	9	San Antonio Palopo	9	Septiembre	2023-09-26T00:00:00	2024-11-08T20:00:00	1	Precipitación	1.2
9688	7	Sololá	712	San Antonio Palopó	9	San Antonio Palopo	9	Septiembre	2023-09-26T00:00:00	2024-11-08T20:00:00	8	Radiación solar	0
9689	7	Sololá	712	San Antonio Palopó	9	San Antonio Palopo	9	Septiembre	2023-09-26T00:00:00	2024-11-08T21:00:00	2	Temperatura media	19.1
9690	7	Sololá	712	San Antonio Palopó	9	San Antonio Palopo	9	Septiembre	2023-09-26T00:00:00	2024-11-08T21:00:00	4	Temperatura máxima	19.3
9691	7	Sololá	712	San Antonio Palopó	9	San Antonio Palopo	9	Septiembre	2023-09-26T00:00:00	2024-11-08T21:00:00	3	Temperatura mínima	18.8
9692	7	Sololá	712	San Antonio Palopó	9	San Antonio Palopo	9	Septiembre	2023-09-26T00:00:00	2024-11-08T21:00:00	5	Humedad	89
9693	7	Sololá	712	San Antonio Palopó	9	San Antonio Palopo	9	Septiembre	2023-09-26T00:00:00	2024-11-08T21:00:00	6	Velocidad del viento	1.6
9694	7	Sololá	712	San Antonio Palopó	9	San Antonio Palopo	9	Septiembre	2023-09-26T00:00:00	2024-11-08T21:00:00	7	Dirección del viento	1.61
9695	7	Sololá	712	San Antonio Palopó	9	San Antonio Palopo	9	Septiembre	2023-09-26T00:00:00	2024-11-08T21:00:00	1	Precipitación	0.4
9696	7	Sololá	712	San Antonio Palopó	9	San Antonio Palopo	9	Septiembre	2023-09-26T00:00:00	2024-11-08T21:00:00	8	Radiación solar	0
9697	7	Sololá	712	San Antonio Palopó	9	San Antonio Palopo	9	Septiembre	2023-09-26T00:00:00	2024-11-08T22:00:00	2	Temperatura media	19.3
9698	7	Sololá	712	San Antonio Palopó	9	San Antonio Palopo	9	Septiembre	2023-09-26T00:00:00	2024-11-08T22:00:00	4	Temperatura máxima	19.4
9699	7	Sololá	712	San Antonio Palopó	9	San Antonio Palopo	9	Septiembre	2023-09-26T00:00:00	2024-11-08T22:00:00	3	Temperatura mínima	18.9
9700	7	Sololá	712	San Antonio Palopó	9	San Antonio Palopo	9	Septiembre	2023-09-26T00:00:00	2024-11-08T22:00:00	5	Humedad	89
9701	7	Sololá	712	San Antonio Palopó	9	San Antonio Palopo	9	Septiembre	2023-09-26T00:00:00	2024-11-08T22:00:00	6	Velocidad del viento	1.6
9702	7	Sololá	712	San Antonio Palopó	9	San Antonio Palopo	9	Septiembre	2023-09-26T00:00:00	2024-11-08T22:00:00	7	Dirección del viento	1.61
9703	7	Sololá	712	San Antonio Palopó	9	San Antonio Palopo	9	Septiembre	2023-09-26T00:00:00	2024-11-08T22:00:00	1	Precipitación	0
9704	7	Sololá	712	San Antonio Palopó	9	San Antonio Palopo	9	Septiembre	2023-09-26T00:00:00	2024-11-08T22:00:00	8	Radiación solar	0
9705	7	Sololá	712	San Antonio Palopó	9	San Antonio Palopo	9	Septiembre	2023-09-26T00:00:00	2024-11-08T23:00:00	2	Temperatura media	19.1
9706	7	Sololá	712	San Antonio Palopó	9	San Antonio Palopo	9	Septiembre	2023-09-26T00:00:00	2024-11-08T23:00:00	4	Temperatura máxima	19.4
9707	7	Sololá	712	San Antonio Palopó	9	San Antonio Palopo	9	Septiembre	2023-09-26T00:00:00	2024-11-08T23:00:00	3	Temperatura mínima	19.1
9708	7	Sololá	712	San Antonio Palopó	9	San Antonio Palopo	9	Septiembre	2023-09-26T00:00:00	2024-11-08T23:00:00	5	Humedad	84
9709	7	Sololá	712	San Antonio Palopó	9	San Antonio Palopo	9	Septiembre	2023-09-26T00:00:00	2024-11-08T23:00:00	6	Velocidad del viento	3.2
9710	7	Sololá	712	San Antonio Palopó	9	San Antonio Palopo	9	Septiembre	2023-09-26T00:00:00	2024-11-08T23:00:00	7	Dirección del viento	3.22
9711	7	Sololá	712	San Antonio Palopó	9	San Antonio Palopo	9	Septiembre	2023-09-26T00:00:00	2024-11-08T23:00:00	1	Precipitación	0
9712	7	Sololá	712	San Antonio Palopó	9	San Antonio Palopo	9	Septiembre	2023-09-26T00:00:00	2024-11-08T23:00:00	8	Radiación solar	0
9713	7	Sololá	712	San Antonio Palopó	9	San Antonio Palopo	9	Septiembre	2023-09-27T00:00:00	2024-11-08T00:00:00	2	Temperatura media	18.9
9714	7	Sololá	712	San Antonio Palopó	9	San Antonio Palopo	9	Septiembre	2023-09-27T00:00:00	2024-11-08T00:00:00	4	Temperatura máxima	19.2
9715	7	Sololá	712	San Antonio Palopó	9	San Antonio Palopo	9	Septiembre	2023-09-27T00:00:00	2024-11-08T00:00:00	3	Temperatura mínima	18.6
9716	7	Sololá	712	San Antonio Palopó	9	San Antonio Palopo	9	Septiembre	2023-09-27T00:00:00	2024-11-08T00:00:00	5	Humedad	81
9717	7	Sololá	712	San Antonio Palopó	9	San Antonio Palopo	9	Septiembre	2023-09-27T00:00:00	2024-11-08T00:00:00	6	Velocidad del viento	3.2
9718	7	Sololá	712	San Antonio Palopó	9	San Antonio Palopo	9	Septiembre	2023-09-27T00:00:00	2024-11-08T00:00:00	7	Dirección del viento	3.22
9719	7	Sololá	712	San Antonio Palopó	9	San Antonio Palopo	9	Septiembre	2023-09-27T00:00:00	2024-11-08T00:00:00	1	Precipitación	0
9720	7	Sololá	712	San Antonio Palopó	9	San Antonio Palopo	9	Septiembre	2023-09-27T00:00:00	2024-11-08T00:00:00	8	Radiación solar	0
9721	7	Sololá	712	San Antonio Palopó	9	San Antonio Palopo	9	Septiembre	2023-09-27T00:00:00	2024-11-08T01:00:00	2	Temperatura media	18.6
9722	7	Sololá	712	San Antonio Palopó	9	San Antonio Palopo	9	Septiembre	2023-09-27T00:00:00	2024-11-08T01:00:00	4	Temperatura máxima	19.1
9723	7	Sololá	712	San Antonio Palopó	9	San Antonio Palopo	9	Septiembre	2023-09-27T00:00:00	2024-11-08T01:00:00	3	Temperatura mínima	18.6
9724	7	Sololá	712	San Antonio Palopó	9	San Antonio Palopo	9	Septiembre	2023-09-27T00:00:00	2024-11-08T01:00:00	5	Humedad	83
9725	7	Sololá	712	San Antonio Palopó	9	San Antonio Palopo	9	Septiembre	2023-09-27T00:00:00	2024-11-08T01:00:00	6	Velocidad del viento	3.2
9726	7	Sololá	712	San Antonio Palopó	9	San Antonio Palopo	9	Septiembre	2023-09-27T00:00:00	2024-11-08T01:00:00	7	Dirección del viento	3.22
9727	7	Sololá	712	San Antonio Palopó	9	San Antonio Palopo	9	Septiembre	2023-09-27T00:00:00	2024-11-08T01:00:00	1	Precipitación	0
9728	7	Sololá	712	San Antonio Palopó	9	San Antonio Palopo	9	Septiembre	2023-09-27T00:00:00	2024-11-08T01:00:00	8	Radiación solar	0
9729	7	Sololá	712	San Antonio Palopó	9	San Antonio Palopo	9	Septiembre	2023-09-27T00:00:00	2024-11-08T02:00:00	2	Temperatura media	19.2
9730	7	Sololá	712	San Antonio Palopó	9	San Antonio Palopo	9	Septiembre	2023-09-27T00:00:00	2024-11-08T02:00:00	4	Temperatura máxima	19.2
9731	7	Sololá	712	San Antonio Palopó	9	San Antonio Palopo	9	Septiembre	2023-09-27T00:00:00	2024-11-08T02:00:00	3	Temperatura mínima	18.3
9732	7	Sololá	712	San Antonio Palopó	9	San Antonio Palopo	9	Septiembre	2023-09-27T00:00:00	2024-11-08T02:00:00	5	Humedad	76
9733	7	Sololá	712	San Antonio Palopó	9	San Antonio Palopo	9	Septiembre	2023-09-27T00:00:00	2024-11-08T02:00:00	6	Velocidad del viento	4.8
9734	7	Sololá	712	San Antonio Palopó	9	San Antonio Palopo	9	Septiembre	2023-09-27T00:00:00	2024-11-08T02:00:00	7	Dirección del viento	4.83
9735	7	Sololá	712	San Antonio Palopó	9	San Antonio Palopo	9	Septiembre	2023-09-27T00:00:00	2024-11-08T02:00:00	1	Precipitación	0
9736	7	Sololá	712	San Antonio Palopó	9	San Antonio Palopo	9	Septiembre	2023-09-27T00:00:00	2024-11-08T02:00:00	8	Radiación solar	0
9737	7	Sololá	712	San Antonio Palopó	9	San Antonio Palopo	9	Septiembre	2023-09-27T00:00:00	2024-11-08T03:00:00	2	Temperatura media	19.3
9738	7	Sololá	712	San Antonio Palopó	9	San Antonio Palopo	9	Septiembre	2023-09-27T00:00:00	2024-11-08T03:00:00	4	Temperatura máxima	19.3
9739	7	Sololá	712	San Antonio Palopó	9	San Antonio Palopo	9	Septiembre	2023-09-27T00:00:00	2024-11-08T03:00:00	3	Temperatura mínima	18.9
9740	7	Sololá	712	San Antonio Palopó	9	San Antonio Palopo	9	Septiembre	2023-09-27T00:00:00	2024-11-08T03:00:00	5	Humedad	76
9741	7	Sololá	712	San Antonio Palopó	9	San Antonio Palopo	9	Septiembre	2023-09-27T00:00:00	2024-11-08T03:00:00	6	Velocidad del viento	6.4
9742	7	Sololá	712	San Antonio Palopó	9	San Antonio Palopo	9	Septiembre	2023-09-27T00:00:00	2024-11-08T03:00:00	7	Dirección del viento	6.44
9743	7	Sololá	712	San Antonio Palopó	9	San Antonio Palopo	9	Septiembre	2023-09-27T00:00:00	2024-11-08T03:00:00	1	Precipitación	0
9744	7	Sololá	712	San Antonio Palopó	9	San Antonio Palopo	9	Septiembre	2023-09-27T00:00:00	2024-11-08T03:00:00	8	Radiación solar	0
9745	7	Sololá	712	San Antonio Palopó	9	San Antonio Palopo	9	Septiembre	2023-09-27T00:00:00	2024-11-08T04:00:00	2	Temperatura media	19.2
9746	7	Sololá	712	San Antonio Palopó	9	San Antonio Palopo	9	Septiembre	2023-09-27T00:00:00	2024-11-08T04:00:00	4	Temperatura máxima	19.4
9747	7	Sololá	712	San Antonio Palopó	9	San Antonio Palopo	9	Septiembre	2023-09-27T00:00:00	2024-11-08T04:00:00	3	Temperatura mínima	18.7
9748	7	Sololá	712	San Antonio Palopó	9	San Antonio Palopo	9	Septiembre	2023-09-27T00:00:00	2024-11-08T04:00:00	5	Humedad	80
9749	7	Sololá	712	San Antonio Palopó	9	San Antonio Palopo	9	Septiembre	2023-09-27T00:00:00	2024-11-08T04:00:00	6	Velocidad del viento	4.8
9750	7	Sololá	712	San Antonio Palopó	9	San Antonio Palopo	9	Septiembre	2023-09-27T00:00:00	2024-11-08T04:00:00	7	Dirección del viento	4.83
9751	7	Sololá	712	San Antonio Palopó	9	San Antonio Palopo	9	Septiembre	2023-09-27T00:00:00	2024-11-08T04:00:00	1	Precipitación	0
9752	7	Sololá	712	San Antonio Palopó	9	San Antonio Palopo	9	Septiembre	2023-09-27T00:00:00	2024-11-08T04:00:00	8	Radiación solar	0
9753	7	Sololá	712	San Antonio Palopó	9	San Antonio Palopo	9	Septiembre	2023-09-27T00:00:00	2024-11-08T05:00:00	2	Temperatura media	18
9754	7	Sololá	712	San Antonio Palopó	9	San Antonio Palopo	9	Septiembre	2023-09-27T00:00:00	2024-11-08T05:00:00	4	Temperatura máxima	19.2
9755	7	Sololá	712	San Antonio Palopó	9	San Antonio Palopo	9	Septiembre	2023-09-27T00:00:00	2024-11-08T05:00:00	3	Temperatura mínima	17.9
9756	7	Sololá	712	San Antonio Palopó	9	San Antonio Palopo	9	Septiembre	2023-09-27T00:00:00	2024-11-08T05:00:00	5	Humedad	82
9757	7	Sololá	712	San Antonio Palopó	9	San Antonio Palopo	9	Septiembre	2023-09-27T00:00:00	2024-11-08T05:00:00	6	Velocidad del viento	3.2
9758	7	Sololá	712	San Antonio Palopó	9	San Antonio Palopo	9	Septiembre	2023-09-27T00:00:00	2024-11-08T05:00:00	7	Dirección del viento	3.22
9759	7	Sololá	712	San Antonio Palopó	9	San Antonio Palopo	9	Septiembre	2023-09-27T00:00:00	2024-11-08T05:00:00	1	Precipitación	0
9760	7	Sololá	712	San Antonio Palopó	9	San Antonio Palopo	9	Septiembre	2023-09-27T00:00:00	2024-11-08T05:00:00	8	Radiación solar	0
9761	7	Sololá	712	San Antonio Palopó	9	San Antonio Palopo	9	Septiembre	2023-09-27T00:00:00	2024-11-08T06:00:00	2	Temperatura media	18.6
9762	7	Sololá	712	San Antonio Palopó	9	San Antonio Palopo	9	Septiembre	2023-09-27T00:00:00	2024-11-08T06:00:00	4	Temperatura máxima	18.9
9763	7	Sololá	712	San Antonio Palopó	9	San Antonio Palopo	9	Septiembre	2023-09-27T00:00:00	2024-11-08T06:00:00	3	Temperatura mínima	18.1
9764	7	Sololá	712	San Antonio Palopó	9	San Antonio Palopo	9	Septiembre	2023-09-27T00:00:00	2024-11-08T06:00:00	5	Humedad	79
9765	7	Sololá	712	San Antonio Palopó	9	San Antonio Palopo	9	Septiembre	2023-09-27T00:00:00	2024-11-08T06:00:00	6	Velocidad del viento	4.8
9766	7	Sololá	712	San Antonio Palopó	9	San Antonio Palopo	9	Septiembre	2023-09-27T00:00:00	2024-11-08T06:00:00	7	Dirección del viento	4.83
9767	7	Sololá	712	San Antonio Palopó	9	San Antonio Palopo	9	Septiembre	2023-09-27T00:00:00	2024-11-08T06:00:00	1	Precipitación	0
9768	7	Sololá	712	San Antonio Palopó	9	San Antonio Palopo	9	Septiembre	2023-09-27T00:00:00	2024-11-08T06:00:00	8	Radiación solar	0
9769	7	Sololá	712	San Antonio Palopó	9	San Antonio Palopo	9	Septiembre	2023-09-27T00:00:00	2024-11-08T07:00:00	2	Temperatura media	18.8
9770	7	Sololá	712	San Antonio Palopó	9	San Antonio Palopo	9	Septiembre	2023-09-27T00:00:00	2024-11-08T07:00:00	4	Temperatura máxima	18.8
9771	7	Sololá	712	San Antonio Palopó	9	San Antonio Palopo	9	Septiembre	2023-09-27T00:00:00	2024-11-08T07:00:00	3	Temperatura mínima	18.1
9772	7	Sololá	712	San Antonio Palopó	9	San Antonio Palopo	9	Septiembre	2023-09-27T00:00:00	2024-11-08T07:00:00	5	Humedad	76
9773	7	Sololá	712	San Antonio Palopó	9	San Antonio Palopo	9	Septiembre	2023-09-27T00:00:00	2024-11-08T07:00:00	6	Velocidad del viento	4.8
9774	7	Sololá	712	San Antonio Palopó	9	San Antonio Palopo	9	Septiembre	2023-09-27T00:00:00	2024-11-08T07:00:00	7	Dirección del viento	4.83
9775	7	Sololá	712	San Antonio Palopó	9	San Antonio Palopo	9	Septiembre	2023-09-27T00:00:00	2024-11-08T07:00:00	1	Precipitación	0
9776	7	Sololá	712	San Antonio Palopó	9	San Antonio Palopo	9	Septiembre	2023-09-27T00:00:00	2024-11-08T07:00:00	8	Radiación solar	27
9777	7	Sololá	712	San Antonio Palopó	9	San Antonio Palopo	9	Septiembre	2023-09-27T00:00:00	2024-11-08T08:00:00	2	Temperatura media	20.2
9778	7	Sololá	712	San Antonio Palopó	9	San Antonio Palopo	9	Septiembre	2023-09-27T00:00:00	2024-11-08T08:00:00	4	Temperatura máxima	20.2
9779	7	Sololá	712	San Antonio Palopó	9	San Antonio Palopo	9	Septiembre	2023-09-27T00:00:00	2024-11-08T08:00:00	3	Temperatura mínima	18
9780	7	Sololá	712	San Antonio Palopó	9	San Antonio Palopo	9	Septiembre	2023-09-27T00:00:00	2024-11-08T08:00:00	5	Humedad	80
9781	7	Sololá	712	San Antonio Palopó	9	San Antonio Palopo	9	Septiembre	2023-09-27T00:00:00	2024-11-08T08:00:00	6	Velocidad del viento	3.2
9782	7	Sololá	712	San Antonio Palopó	9	San Antonio Palopo	9	Septiembre	2023-09-27T00:00:00	2024-11-08T08:00:00	7	Dirección del viento	3.22
9783	7	Sololá	712	San Antonio Palopó	9	San Antonio Palopo	9	Septiembre	2023-09-27T00:00:00	2024-11-08T08:00:00	1	Precipitación	0
9784	7	Sololá	712	San Antonio Palopó	9	San Antonio Palopo	9	Septiembre	2023-09-27T00:00:00	2024-11-08T08:00:00	8	Radiación solar	138
9785	7	Sololá	712	San Antonio Palopó	9	San Antonio Palopo	9	Septiembre	2023-09-27T00:00:00	2024-11-08T09:00:00	2	Temperatura media	21.7
9786	7	Sololá	712	San Antonio Palopó	9	San Antonio Palopo	9	Septiembre	2023-09-27T00:00:00	2024-11-08T09:00:00	4	Temperatura máxima	21.9
9787	7	Sololá	712	San Antonio Palopó	9	San Antonio Palopo	9	Septiembre	2023-09-27T00:00:00	2024-11-08T09:00:00	3	Temperatura mínima	20.2
9788	7	Sololá	712	San Antonio Palopó	9	San Antonio Palopo	9	Septiembre	2023-09-27T00:00:00	2024-11-08T09:00:00	5	Humedad	73
9789	7	Sololá	712	San Antonio Palopó	9	San Antonio Palopo	9	Septiembre	2023-09-27T00:00:00	2024-11-08T09:00:00	6	Velocidad del viento	1.6
9790	7	Sololá	712	San Antonio Palopó	9	San Antonio Palopo	9	Septiembre	2023-09-27T00:00:00	2024-11-08T09:00:00	7	Dirección del viento	1.61
9791	7	Sololá	712	San Antonio Palopó	9	San Antonio Palopo	9	Septiembre	2023-09-27T00:00:00	2024-11-08T09:00:00	1	Precipitación	0
9792	7	Sololá	712	San Antonio Palopó	9	San Antonio Palopo	9	Septiembre	2023-09-27T00:00:00	2024-11-08T09:00:00	8	Radiación solar	408
9793	7	Sololá	712	San Antonio Palopó	9	San Antonio Palopo	9	Septiembre	2023-09-27T00:00:00	2024-11-08T10:00:00	2	Temperatura media	21.8
9794	7	Sololá	712	San Antonio Palopó	9	San Antonio Palopo	9	Septiembre	2023-09-27T00:00:00	2024-11-08T10:00:00	4	Temperatura máxima	22
9795	7	Sololá	712	San Antonio Palopó	9	San Antonio Palopo	9	Septiembre	2023-09-27T00:00:00	2024-11-08T10:00:00	3	Temperatura mínima	21.4
9796	7	Sololá	712	San Antonio Palopó	9	San Antonio Palopo	9	Septiembre	2023-09-27T00:00:00	2024-11-08T10:00:00	5	Humedad	75
9797	7	Sololá	712	San Antonio Palopó	9	San Antonio Palopo	9	Septiembre	2023-09-27T00:00:00	2024-11-08T10:00:00	6	Velocidad del viento	3.2
9798	7	Sololá	712	San Antonio Palopó	9	San Antonio Palopo	9	Septiembre	2023-09-27T00:00:00	2024-11-08T10:00:00	7	Dirección del viento	3.22
9799	7	Sololá	712	San Antonio Palopó	9	San Antonio Palopo	9	Septiembre	2023-09-27T00:00:00	2024-11-08T10:00:00	1	Precipitación	0
9800	7	Sololá	712	San Antonio Palopó	9	San Antonio Palopo	9	Septiembre	2023-09-27T00:00:00	2024-11-08T10:00:00	8	Radiación solar	607
9801	7	Sololá	712	San Antonio Palopó	9	San Antonio Palopo	9	Septiembre	2023-09-27T00:00:00	2024-11-08T11:00:00	2	Temperatura media	23.3
9802	7	Sololá	712	San Antonio Palopó	9	San Antonio Palopo	9	Septiembre	2023-09-27T00:00:00	2024-11-08T11:00:00	4	Temperatura máxima	23.3
9803	7	Sololá	712	San Antonio Palopó	9	San Antonio Palopo	9	Septiembre	2023-09-27T00:00:00	2024-11-08T11:00:00	3	Temperatura mínima	21.8
9804	7	Sololá	712	San Antonio Palopó	9	San Antonio Palopo	9	Septiembre	2023-09-27T00:00:00	2024-11-08T11:00:00	5	Humedad	70
9805	7	Sololá	712	San Antonio Palopó	9	San Antonio Palopo	9	Septiembre	2023-09-27T00:00:00	2024-11-08T11:00:00	6	Velocidad del viento	3.2
9806	7	Sololá	712	San Antonio Palopó	9	San Antonio Palopo	9	Septiembre	2023-09-27T00:00:00	2024-11-08T11:00:00	7	Dirección del viento	3.22
9807	7	Sololá	712	San Antonio Palopó	9	San Antonio Palopo	9	Septiembre	2023-09-27T00:00:00	2024-11-08T11:00:00	1	Precipitación	0
9808	7	Sololá	712	San Antonio Palopó	9	San Antonio Palopo	9	Septiembre	2023-09-27T00:00:00	2024-11-08T11:00:00	8	Radiación solar	799
9809	7	Sololá	712	San Antonio Palopó	9	San Antonio Palopo	9	Septiembre	2023-09-27T00:00:00	2024-11-08T12:00:00	2	Temperatura media	24.1
9810	7	Sololá	712	San Antonio Palopó	9	San Antonio Palopo	9	Septiembre	2023-09-27T00:00:00	2024-11-08T12:00:00	4	Temperatura máxima	24.2
9811	7	Sololá	712	San Antonio Palopó	9	San Antonio Palopo	9	Septiembre	2023-09-27T00:00:00	2024-11-08T12:00:00	3	Temperatura mínima	23.2
9812	7	Sololá	712	San Antonio Palopó	9	San Antonio Palopo	9	Septiembre	2023-09-27T00:00:00	2024-11-08T12:00:00	5	Humedad	68
9813	7	Sololá	712	San Antonio Palopó	9	San Antonio Palopo	9	Septiembre	2023-09-27T00:00:00	2024-11-08T12:00:00	6	Velocidad del viento	4.8
9814	7	Sololá	712	San Antonio Palopó	9	San Antonio Palopo	9	Septiembre	2023-09-27T00:00:00	2024-11-08T12:00:00	7	Dirección del viento	4.83
9815	7	Sololá	712	San Antonio Palopó	9	San Antonio Palopo	9	Septiembre	2023-09-27T00:00:00	2024-11-08T12:00:00	1	Precipitación	0
9816	7	Sololá	712	San Antonio Palopó	9	San Antonio Palopo	9	Septiembre	2023-09-27T00:00:00	2024-11-08T12:00:00	8	Radiación solar	854
9817	7	Sololá	712	San Antonio Palopó	9	San Antonio Palopo	9	Septiembre	2023-09-27T00:00:00	2024-11-08T13:00:00	2	Temperatura media	24
9818	7	Sololá	712	San Antonio Palopó	9	San Antonio Palopo	9	Septiembre	2023-09-27T00:00:00	2024-11-08T13:00:00	4	Temperatura máxima	25.9
9819	7	Sololá	712	San Antonio Palopó	9	San Antonio Palopo	9	Septiembre	2023-09-27T00:00:00	2024-11-08T13:00:00	3	Temperatura mínima	24
9820	7	Sololá	712	San Antonio Palopó	9	San Antonio Palopo	9	Septiembre	2023-09-27T00:00:00	2024-11-08T13:00:00	5	Humedad	73
9821	7	Sololá	712	San Antonio Palopó	9	San Antonio Palopo	9	Septiembre	2023-09-27T00:00:00	2024-11-08T13:00:00	6	Velocidad del viento	6.4
9822	7	Sololá	712	San Antonio Palopó	9	San Antonio Palopo	9	Septiembre	2023-09-27T00:00:00	2024-11-08T13:00:00	7	Dirección del viento	6.44
9823	7	Sololá	712	San Antonio Palopó	9	San Antonio Palopo	9	Septiembre	2023-09-27T00:00:00	2024-11-08T13:00:00	1	Precipitación	0
9824	7	Sololá	712	San Antonio Palopó	9	San Antonio Palopo	9	Septiembre	2023-09-27T00:00:00	2024-11-08T13:00:00	8	Radiación solar	824
9825	7	Sololá	712	San Antonio Palopó	9	San Antonio Palopo	9	Septiembre	2023-09-27T00:00:00	2024-11-08T14:00:00	2	Temperatura media	22.8
9826	7	Sololá	712	San Antonio Palopó	9	San Antonio Palopo	9	Septiembre	2023-09-27T00:00:00	2024-11-08T14:00:00	4	Temperatura máxima	23.9
9827	7	Sololá	712	San Antonio Palopó	9	San Antonio Palopo	9	Septiembre	2023-09-27T00:00:00	2024-11-08T14:00:00	3	Temperatura mínima	22.6
9828	7	Sololá	712	San Antonio Palopó	9	San Antonio Palopo	9	Septiembre	2023-09-27T00:00:00	2024-11-08T14:00:00	5	Humedad	80
9829	7	Sololá	712	San Antonio Palopó	9	San Antonio Palopo	9	Septiembre	2023-09-27T00:00:00	2024-11-08T14:00:00	6	Velocidad del viento	6.4
9830	7	Sololá	712	San Antonio Palopó	9	San Antonio Palopo	9	Septiembre	2023-09-27T00:00:00	2024-11-08T14:00:00	7	Dirección del viento	6.44
9831	7	Sololá	712	San Antonio Palopó	9	San Antonio Palopo	9	Septiembre	2023-09-27T00:00:00	2024-11-08T14:00:00	1	Precipitación	0
9832	7	Sololá	712	San Antonio Palopó	9	San Antonio Palopo	9	Septiembre	2023-09-27T00:00:00	2024-11-08T14:00:00	8	Radiación solar	218
9833	7	Sololá	712	San Antonio Palopó	9	San Antonio Palopo	9	Septiembre	2023-09-27T00:00:00	2024-11-08T15:00:00	2	Temperatura media	20
9834	7	Sololá	712	San Antonio Palopó	9	San Antonio Palopo	9	Septiembre	2023-09-27T00:00:00	2024-11-08T15:00:00	4	Temperatura máxima	22.8
9835	7	Sololá	712	San Antonio Palopó	9	San Antonio Palopo	9	Septiembre	2023-09-27T00:00:00	2024-11-08T15:00:00	3	Temperatura mínima	20
9836	7	Sololá	712	San Antonio Palopó	9	San Antonio Palopo	9	Septiembre	2023-09-27T00:00:00	2024-11-08T15:00:00	5	Humedad	77
9837	7	Sololá	712	San Antonio Palopó	9	San Antonio Palopo	9	Septiembre	2023-09-27T00:00:00	2024-11-08T15:00:00	6	Velocidad del viento	8
9838	7	Sololá	712	San Antonio Palopó	9	San Antonio Palopo	9	Septiembre	2023-09-27T00:00:00	2024-11-08T15:00:00	7	Dirección del viento	8.05
9839	7	Sololá	712	San Antonio Palopó	9	San Antonio Palopo	9	Septiembre	2023-09-27T00:00:00	2024-11-08T15:00:00	1	Precipitación	2.2
9840	7	Sololá	712	San Antonio Palopó	9	San Antonio Palopo	9	Septiembre	2023-09-27T00:00:00	2024-11-08T15:00:00	8	Radiación solar	33
9841	7	Sololá	712	San Antonio Palopó	9	San Antonio Palopo	9	Septiembre	2023-09-27T00:00:00	2024-11-08T16:00:00	2	Temperatura media	20
9842	7	Sololá	712	San Antonio Palopó	9	San Antonio Palopo	9	Septiembre	2023-09-27T00:00:00	2024-11-08T16:00:00	4	Temperatura máxima	20
9843	7	Sololá	712	San Antonio Palopó	9	San Antonio Palopo	9	Septiembre	2023-09-27T00:00:00	2024-11-08T16:00:00	3	Temperatura mínima	19.6
9844	7	Sololá	712	San Antonio Palopó	9	San Antonio Palopo	9	Septiembre	2023-09-27T00:00:00	2024-11-08T16:00:00	5	Humedad	81
9845	7	Sololá	712	San Antonio Palopó	9	San Antonio Palopo	9	Septiembre	2023-09-27T00:00:00	2024-11-08T16:00:00	6	Velocidad del viento	4.8
9846	7	Sololá	712	San Antonio Palopó	9	San Antonio Palopo	9	Septiembre	2023-09-27T00:00:00	2024-11-08T16:00:00	7	Dirección del viento	4.83
9847	7	Sololá	712	San Antonio Palopó	9	San Antonio Palopo	9	Septiembre	2023-09-27T00:00:00	2024-11-08T16:00:00	1	Precipitación	0.2
9848	7	Sololá	712	San Antonio Palopó	9	San Antonio Palopo	9	Septiembre	2023-09-27T00:00:00	2024-11-08T16:00:00	8	Radiación solar	35
9849	7	Sololá	712	San Antonio Palopó	9	San Antonio Palopo	9	Septiembre	2023-09-27T00:00:00	2024-11-08T17:00:00	2	Temperatura media	19.8
9850	7	Sololá	712	San Antonio Palopó	9	San Antonio Palopo	9	Septiembre	2023-09-27T00:00:00	2024-11-08T17:00:00	4	Temperatura máxima	20.3
9851	7	Sololá	712	San Antonio Palopó	9	San Antonio Palopo	9	Septiembre	2023-09-27T00:00:00	2024-11-08T17:00:00	3	Temperatura mínima	19.8
9852	7	Sololá	712	San Antonio Palopó	9	San Antonio Palopo	9	Septiembre	2023-09-27T00:00:00	2024-11-08T17:00:00	5	Humedad	84
9853	7	Sololá	712	San Antonio Palopó	9	San Antonio Palopo	9	Septiembre	2023-09-27T00:00:00	2024-11-08T17:00:00	6	Velocidad del viento	3.2
9854	7	Sololá	712	San Antonio Palopó	9	San Antonio Palopo	9	Septiembre	2023-09-27T00:00:00	2024-11-08T17:00:00	7	Dirección del viento	3.22
9855	7	Sololá	712	San Antonio Palopó	9	San Antonio Palopo	9	Septiembre	2023-09-27T00:00:00	2024-11-08T17:00:00	1	Precipitación	0
9856	7	Sololá	712	San Antonio Palopó	9	San Antonio Palopo	9	Septiembre	2023-09-27T00:00:00	2024-11-08T17:00:00	8	Radiación solar	49
9857	7	Sololá	712	San Antonio Palopó	9	San Antonio Palopo	9	Septiembre	2023-09-27T00:00:00	2024-11-08T18:00:00	2	Temperatura media	19.8
9858	7	Sololá	712	San Antonio Palopó	9	San Antonio Palopo	9	Septiembre	2023-09-27T00:00:00	2024-11-08T18:00:00	4	Temperatura máxima	19.8
9859	7	Sololá	712	San Antonio Palopó	9	San Antonio Palopo	9	Septiembre	2023-09-27T00:00:00	2024-11-08T18:00:00	3	Temperatura mínima	19.6
9860	7	Sololá	712	San Antonio Palopó	9	San Antonio Palopo	9	Septiembre	2023-09-27T00:00:00	2024-11-08T18:00:00	5	Humedad	82
9861	7	Sololá	712	San Antonio Palopó	9	San Antonio Palopo	9	Septiembre	2023-09-27T00:00:00	2024-11-08T18:00:00	6	Velocidad del viento	3.2
9862	7	Sololá	712	San Antonio Palopó	9	San Antonio Palopo	9	Septiembre	2023-09-27T00:00:00	2024-11-08T18:00:00	7	Dirección del viento	3.22
9863	7	Sololá	712	San Antonio Palopó	9	San Antonio Palopo	9	Septiembre	2023-09-27T00:00:00	2024-11-08T18:00:00	1	Precipitación	0
9864	7	Sololá	712	San Antonio Palopó	9	San Antonio Palopo	9	Septiembre	2023-09-27T00:00:00	2024-11-08T18:00:00	8	Radiación solar	6
9865	7	Sololá	712	San Antonio Palopó	9	San Antonio Palopo	9	Septiembre	2023-09-27T00:00:00	2024-11-08T19:00:00	2	Temperatura media	20.2
9866	7	Sololá	712	San Antonio Palopó	9	San Antonio Palopo	9	Septiembre	2023-09-27T00:00:00	2024-11-08T19:00:00	4	Temperatura máxima	20.3
9867	7	Sololá	712	San Antonio Palopó	9	San Antonio Palopo	9	Septiembre	2023-09-27T00:00:00	2024-11-08T19:00:00	3	Temperatura mínima	19.4
9868	7	Sololá	712	San Antonio Palopó	9	San Antonio Palopo	9	Septiembre	2023-09-27T00:00:00	2024-11-08T19:00:00	5	Humedad	83
9869	7	Sololá	712	San Antonio Palopó	9	San Antonio Palopo	9	Septiembre	2023-09-27T00:00:00	2024-11-08T19:00:00	6	Velocidad del viento	3.2
9870	7	Sololá	712	San Antonio Palopó	9	San Antonio Palopo	9	Septiembre	2023-09-27T00:00:00	2024-11-08T19:00:00	7	Dirección del viento	3.22
9871	7	Sololá	712	San Antonio Palopó	9	San Antonio Palopo	9	Septiembre	2023-09-27T00:00:00	2024-11-08T19:00:00	1	Precipitación	0
9872	7	Sololá	712	San Antonio Palopó	9	San Antonio Palopo	9	Septiembre	2023-09-27T00:00:00	2024-11-08T19:00:00	8	Radiación solar	0
9873	7	Sololá	712	San Antonio Palopó	9	San Antonio Palopo	9	Septiembre	2023-09-27T00:00:00	2024-11-08T20:00:00	2	Temperatura media	19.4
9874	7	Sololá	712	San Antonio Palopó	9	San Antonio Palopo	9	Septiembre	2023-09-27T00:00:00	2024-11-08T20:00:00	4	Temperatura máxima	20.3
9875	7	Sololá	712	San Antonio Palopó	9	San Antonio Palopo	9	Septiembre	2023-09-27T00:00:00	2024-11-08T20:00:00	3	Temperatura mínima	19.2
9876	7	Sololá	712	San Antonio Palopó	9	San Antonio Palopo	9	Septiembre	2023-09-27T00:00:00	2024-11-08T20:00:00	5	Humedad	86
9877	7	Sololá	712	San Antonio Palopó	9	San Antonio Palopo	9	Septiembre	2023-09-27T00:00:00	2024-11-08T20:00:00	6	Velocidad del viento	3.2
9878	7	Sololá	712	San Antonio Palopó	9	San Antonio Palopo	9	Septiembre	2023-09-27T00:00:00	2024-11-08T20:00:00	7	Dirección del viento	3.22
9879	7	Sololá	712	San Antonio Palopó	9	San Antonio Palopo	9	Septiembre	2023-09-27T00:00:00	2024-11-08T20:00:00	1	Precipitación	1.6
9880	7	Sololá	712	San Antonio Palopó	9	San Antonio Palopo	9	Septiembre	2023-09-27T00:00:00	2024-11-08T20:00:00	8	Radiación solar	0
9881	7	Sololá	712	San Antonio Palopó	9	San Antonio Palopo	9	Septiembre	2023-09-27T00:00:00	2024-11-08T21:00:00	2	Temperatura media	18.9
9882	7	Sololá	712	San Antonio Palopó	9	San Antonio Palopo	9	Septiembre	2023-09-27T00:00:00	2024-11-08T21:00:00	4	Temperatura máxima	19.7
9883	7	Sololá	712	San Antonio Palopó	9	San Antonio Palopo	9	Septiembre	2023-09-27T00:00:00	2024-11-08T21:00:00	3	Temperatura mínima	18.6
9884	7	Sololá	712	San Antonio Palopó	9	San Antonio Palopo	9	Septiembre	2023-09-27T00:00:00	2024-11-08T21:00:00	5	Humedad	85
9885	7	Sololá	712	San Antonio Palopó	9	San Antonio Palopo	9	Septiembre	2023-09-27T00:00:00	2024-11-08T21:00:00	6	Velocidad del viento	3.2
9886	7	Sololá	712	San Antonio Palopó	9	San Antonio Palopo	9	Septiembre	2023-09-27T00:00:00	2024-11-08T21:00:00	7	Dirección del viento	3.22
9887	7	Sololá	712	San Antonio Palopó	9	San Antonio Palopo	9	Septiembre	2023-09-27T00:00:00	2024-11-08T21:00:00	1	Precipitación	1.4
9888	7	Sololá	712	San Antonio Palopó	9	San Antonio Palopo	9	Septiembre	2023-09-27T00:00:00	2024-11-08T21:00:00	8	Radiación solar	0
9889	7	Sololá	712	San Antonio Palopó	9	San Antonio Palopo	9	Septiembre	2023-09-27T00:00:00	2024-11-08T22:00:00	2	Temperatura media	19.4
9890	7	Sololá	712	San Antonio Palopó	9	San Antonio Palopo	9	Septiembre	2023-09-27T00:00:00	2024-11-08T22:00:00	4	Temperatura máxima	19.5
9891	7	Sololá	712	San Antonio Palopó	9	San Antonio Palopo	9	Septiembre	2023-09-27T00:00:00	2024-11-08T22:00:00	3	Temperatura mínima	18.9
9892	7	Sololá	712	San Antonio Palopó	9	San Antonio Palopo	9	Septiembre	2023-09-27T00:00:00	2024-11-08T22:00:00	5	Humedad	82
9893	7	Sololá	712	San Antonio Palopó	9	San Antonio Palopo	9	Septiembre	2023-09-27T00:00:00	2024-11-08T22:00:00	6	Velocidad del viento	3.2
9894	7	Sololá	712	San Antonio Palopó	9	San Antonio Palopo	9	Septiembre	2023-09-27T00:00:00	2024-11-08T22:00:00	7	Dirección del viento	3.22
9895	7	Sololá	712	San Antonio Palopó	9	San Antonio Palopo	9	Septiembre	2023-09-27T00:00:00	2024-11-08T22:00:00	1	Precipitación	0.8
9896	7	Sololá	712	San Antonio Palopó	9	San Antonio Palopo	9	Septiembre	2023-09-27T00:00:00	2024-11-08T22:00:00	8	Radiación solar	0
9897	7	Sololá	712	San Antonio Palopó	9	San Antonio Palopo	9	Septiembre	2023-09-27T00:00:00	2024-11-08T23:00:00	2	Temperatura media	19.7
9898	7	Sololá	712	San Antonio Palopó	9	San Antonio Palopo	9	Septiembre	2023-09-27T00:00:00	2024-11-08T23:00:00	4	Temperatura máxima	19.9
9899	7	Sololá	712	San Antonio Palopó	9	San Antonio Palopo	9	Septiembre	2023-09-27T00:00:00	2024-11-08T23:00:00	3	Temperatura mínima	19.4
9900	7	Sololá	712	San Antonio Palopó	9	San Antonio Palopo	9	Septiembre	2023-09-27T00:00:00	2024-11-08T23:00:00	5	Humedad	79
9901	7	Sololá	712	San Antonio Palopó	9	San Antonio Palopo	9	Septiembre	2023-09-27T00:00:00	2024-11-08T23:00:00	6	Velocidad del viento	8
9902	7	Sololá	712	San Antonio Palopó	9	San Antonio Palopo	9	Septiembre	2023-09-27T00:00:00	2024-11-08T23:00:00	7	Dirección del viento	8.05
9903	7	Sololá	712	San Antonio Palopó	9	San Antonio Palopo	9	Septiembre	2023-09-27T00:00:00	2024-11-08T23:00:00	1	Precipitación	0.6
9904	7	Sololá	712	San Antonio Palopó	9	San Antonio Palopo	9	Septiembre	2023-09-27T00:00:00	2024-11-08T23:00:00	8	Radiación solar	0
9905	7	Sololá	712	San Antonio Palopó	9	San Antonio Palopo	9	Septiembre	2023-09-28T00:00:00	2024-11-08T00:00:00	2	Temperatura media	18.6
9906	7	Sololá	712	San Antonio Palopó	9	San Antonio Palopo	9	Septiembre	2023-09-28T00:00:00	2024-11-08T00:00:00	4	Temperatura máxima	19.8
9907	7	Sololá	712	San Antonio Palopó	9	San Antonio Palopo	9	Septiembre	2023-09-28T00:00:00	2024-11-08T00:00:00	3	Temperatura mínima	18.3
9908	7	Sololá	712	San Antonio Palopó	9	San Antonio Palopo	9	Septiembre	2023-09-28T00:00:00	2024-11-08T00:00:00	5	Humedad	84
9909	7	Sololá	712	San Antonio Palopó	9	San Antonio Palopo	9	Septiembre	2023-09-28T00:00:00	2024-11-08T00:00:00	6	Velocidad del viento	4.8
9910	7	Sololá	712	San Antonio Palopó	9	San Antonio Palopo	9	Septiembre	2023-09-28T00:00:00	2024-11-08T00:00:00	7	Dirección del viento	4.83
9911	7	Sololá	712	San Antonio Palopó	9	San Antonio Palopo	9	Septiembre	2023-09-28T00:00:00	2024-11-08T00:00:00	1	Precipitación	0
9912	7	Sololá	712	San Antonio Palopó	9	San Antonio Palopo	9	Septiembre	2023-09-28T00:00:00	2024-11-08T00:00:00	8	Radiación solar	0
9913	7	Sololá	712	San Antonio Palopó	9	San Antonio Palopo	9	Septiembre	2023-09-28T00:00:00	2024-11-08T01:00:00	2	Temperatura media	19.4
9914	7	Sololá	712	San Antonio Palopó	9	San Antonio Palopo	9	Septiembre	2023-09-28T00:00:00	2024-11-08T01:00:00	4	Temperatura máxima	19.8
9915	7	Sololá	712	San Antonio Palopó	9	San Antonio Palopo	9	Septiembre	2023-09-28T00:00:00	2024-11-08T01:00:00	3	Temperatura mínima	18.7
9916	7	Sololá	712	San Antonio Palopó	9	San Antonio Palopo	9	Septiembre	2023-09-28T00:00:00	2024-11-08T01:00:00	5	Humedad	80
9917	7	Sololá	712	San Antonio Palopó	9	San Antonio Palopo	9	Septiembre	2023-09-28T00:00:00	2024-11-08T01:00:00	6	Velocidad del viento	6.4
9918	7	Sololá	712	San Antonio Palopó	9	San Antonio Palopo	9	Septiembre	2023-09-28T00:00:00	2024-11-08T01:00:00	7	Dirección del viento	6.44
9919	7	Sololá	712	San Antonio Palopó	9	San Antonio Palopo	9	Septiembre	2023-09-28T00:00:00	2024-11-08T01:00:00	1	Precipitación	0
9920	7	Sololá	712	San Antonio Palopó	9	San Antonio Palopo	9	Septiembre	2023-09-28T00:00:00	2024-11-08T01:00:00	8	Radiación solar	0
9921	7	Sololá	712	San Antonio Palopó	9	San Antonio Palopo	9	Septiembre	2023-09-28T00:00:00	2024-11-08T02:00:00	2	Temperatura media	19.6
9922	7	Sololá	712	San Antonio Palopó	9	San Antonio Palopo	9	Septiembre	2023-09-28T00:00:00	2024-11-08T02:00:00	4	Temperatura máxima	19.6
9923	7	Sololá	712	San Antonio Palopó	9	San Antonio Palopo	9	Septiembre	2023-09-28T00:00:00	2024-11-08T02:00:00	3	Temperatura mínima	18.9
9924	7	Sololá	712	San Antonio Palopó	9	San Antonio Palopo	9	Septiembre	2023-09-28T00:00:00	2024-11-08T02:00:00	5	Humedad	77
9925	7	Sololá	712	San Antonio Palopó	9	San Antonio Palopo	9	Septiembre	2023-09-28T00:00:00	2024-11-08T02:00:00	6	Velocidad del viento	6.4
9926	7	Sololá	712	San Antonio Palopó	9	San Antonio Palopo	9	Septiembre	2023-09-28T00:00:00	2024-11-08T02:00:00	7	Dirección del viento	6.44
9927	7	Sololá	712	San Antonio Palopó	9	San Antonio Palopo	9	Septiembre	2023-09-28T00:00:00	2024-11-08T02:00:00	1	Precipitación	0
9928	7	Sololá	712	San Antonio Palopó	9	San Antonio Palopo	9	Septiembre	2023-09-28T00:00:00	2024-11-08T02:00:00	8	Radiación solar	0
9929	7	Sololá	712	San Antonio Palopó	9	San Antonio Palopo	9	Septiembre	2023-09-28T00:00:00	2024-11-08T03:00:00	2	Temperatura media	19.6
9930	7	Sololá	712	San Antonio Palopó	9	San Antonio Palopo	9	Septiembre	2023-09-28T00:00:00	2024-11-08T03:00:00	4	Temperatura máxima	19.7
9931	7	Sololá	712	San Antonio Palopó	9	San Antonio Palopo	9	Septiembre	2023-09-28T00:00:00	2024-11-08T03:00:00	3	Temperatura mínima	19.2
9932	7	Sololá	712	San Antonio Palopó	9	San Antonio Palopo	9	Septiembre	2023-09-28T00:00:00	2024-11-08T03:00:00	5	Humedad	77
9933	7	Sololá	712	San Antonio Palopó	9	San Antonio Palopo	9	Septiembre	2023-09-28T00:00:00	2024-11-08T03:00:00	6	Velocidad del viento	9.7
9934	7	Sololá	712	San Antonio Palopó	9	San Antonio Palopo	9	Septiembre	2023-09-28T00:00:00	2024-11-08T03:00:00	7	Dirección del viento	9.66
9935	7	Sololá	712	San Antonio Palopó	9	San Antonio Palopo	9	Septiembre	2023-09-28T00:00:00	2024-11-08T03:00:00	1	Precipitación	0
9936	7	Sololá	712	San Antonio Palopó	9	San Antonio Palopo	9	Septiembre	2023-09-28T00:00:00	2024-11-08T03:00:00	8	Radiación solar	0
9937	7	Sololá	712	San Antonio Palopó	9	San Antonio Palopo	9	Septiembre	2023-09-28T00:00:00	2024-11-08T04:00:00	2	Temperatura media	19.4
9938	7	Sololá	712	San Antonio Palopó	9	San Antonio Palopo	9	Septiembre	2023-09-28T00:00:00	2024-11-08T04:00:00	4	Temperatura máxima	19.6
9939	7	Sololá	712	San Antonio Palopó	9	San Antonio Palopo	9	Septiembre	2023-09-28T00:00:00	2024-11-08T04:00:00	3	Temperatura mínima	19.4
9940	7	Sololá	712	San Antonio Palopó	9	San Antonio Palopo	9	Septiembre	2023-09-28T00:00:00	2024-11-08T04:00:00	5	Humedad	77
9941	7	Sololá	712	San Antonio Palopó	9	San Antonio Palopo	9	Septiembre	2023-09-28T00:00:00	2024-11-08T04:00:00	6	Velocidad del viento	11.3
9942	7	Sololá	712	San Antonio Palopó	9	San Antonio Palopo	9	Septiembre	2023-09-28T00:00:00	2024-11-08T04:00:00	7	Dirección del viento	11.27
9943	7	Sololá	712	San Antonio Palopó	9	San Antonio Palopo	9	Septiembre	2023-09-28T00:00:00	2024-11-08T04:00:00	1	Precipitación	0
9944	7	Sololá	712	San Antonio Palopó	9	San Antonio Palopo	9	Septiembre	2023-09-28T00:00:00	2024-11-08T04:00:00	8	Radiación solar	0
9945	7	Sololá	712	San Antonio Palopó	9	San Antonio Palopo	9	Septiembre	2023-09-28T00:00:00	2024-11-08T05:00:00	2	Temperatura media	19.1
9946	7	Sololá	712	San Antonio Palopó	9	San Antonio Palopo	9	Septiembre	2023-09-28T00:00:00	2024-11-08T05:00:00	4	Temperatura máxima	19.7
9947	7	Sololá	712	San Antonio Palopó	9	San Antonio Palopo	9	Septiembre	2023-09-28T00:00:00	2024-11-08T05:00:00	3	Temperatura mínima	19.1
9948	7	Sololá	712	San Antonio Palopó	9	San Antonio Palopo	9	Septiembre	2023-09-28T00:00:00	2024-11-08T05:00:00	5	Humedad	77
9949	7	Sololá	712	San Antonio Palopó	9	San Antonio Palopo	9	Septiembre	2023-09-28T00:00:00	2024-11-08T05:00:00	6	Velocidad del viento	11.3
9950	7	Sololá	712	San Antonio Palopó	9	San Antonio Palopo	9	Septiembre	2023-09-28T00:00:00	2024-11-08T05:00:00	7	Dirección del viento	11.27
9951	7	Sololá	712	San Antonio Palopó	9	San Antonio Palopo	9	Septiembre	2023-09-28T00:00:00	2024-11-08T05:00:00	1	Precipitación	0
9952	7	Sololá	712	San Antonio Palopó	9	San Antonio Palopo	9	Septiembre	2023-09-28T00:00:00	2024-11-08T05:00:00	8	Radiación solar	0
9953	7	Sololá	712	San Antonio Palopó	9	San Antonio Palopo	9	Septiembre	2023-09-28T00:00:00	2024-11-08T06:00:00	2	Temperatura media	19.2
9954	7	Sololá	712	San Antonio Palopó	9	San Antonio Palopo	9	Septiembre	2023-09-28T00:00:00	2024-11-08T06:00:00	4	Temperatura máxima	19.4
9955	7	Sololá	712	San Antonio Palopó	9	San Antonio Palopo	9	Septiembre	2023-09-28T00:00:00	2024-11-08T06:00:00	3	Temperatura mínima	18.8
9956	7	Sololá	712	San Antonio Palopó	9	San Antonio Palopo	9	Septiembre	2023-09-28T00:00:00	2024-11-08T06:00:00	5	Humedad	76
9957	7	Sololá	712	San Antonio Palopó	9	San Antonio Palopo	9	Septiembre	2023-09-28T00:00:00	2024-11-08T06:00:00	6	Velocidad del viento	8
9958	7	Sololá	712	San Antonio Palopó	9	San Antonio Palopo	9	Septiembre	2023-09-28T00:00:00	2024-11-08T06:00:00	7	Dirección del viento	8.05
9959	7	Sololá	712	San Antonio Palopó	9	San Antonio Palopo	9	Septiembre	2023-09-28T00:00:00	2024-11-08T06:00:00	1	Precipitación	0
9960	7	Sololá	712	San Antonio Palopó	9	San Antonio Palopo	9	Septiembre	2023-09-28T00:00:00	2024-11-08T06:00:00	8	Radiación solar	0
9961	7	Sololá	712	San Antonio Palopó	9	San Antonio Palopo	9	Septiembre	2023-09-28T00:00:00	2024-11-08T07:00:00	2	Temperatura media	19.3
9962	7	Sololá	712	San Antonio Palopó	9	San Antonio Palopo	9	Septiembre	2023-09-28T00:00:00	2024-11-08T07:00:00	4	Temperatura máxima	19.4
9963	7	Sololá	712	San Antonio Palopó	9	San Antonio Palopo	9	Septiembre	2023-09-28T00:00:00	2024-11-08T07:00:00	3	Temperatura mínima	19
9964	7	Sololá	712	San Antonio Palopó	9	San Antonio Palopo	9	Septiembre	2023-09-28T00:00:00	2024-11-08T07:00:00	5	Humedad	77
9965	7	Sololá	712	San Antonio Palopó	9	San Antonio Palopo	9	Septiembre	2023-09-28T00:00:00	2024-11-08T07:00:00	6	Velocidad del viento	4.8
9966	7	Sololá	712	San Antonio Palopó	9	San Antonio Palopo	9	Septiembre	2023-09-28T00:00:00	2024-11-08T07:00:00	7	Dirección del viento	4.83
9967	7	Sololá	712	San Antonio Palopó	9	San Antonio Palopo	9	Septiembre	2023-09-28T00:00:00	2024-11-08T07:00:00	1	Precipitación	0
9968	7	Sololá	712	San Antonio Palopó	9	San Antonio Palopo	9	Septiembre	2023-09-28T00:00:00	2024-11-08T07:00:00	8	Radiación solar	23
9969	7	Sololá	712	San Antonio Palopó	9	San Antonio Palopo	9	Septiembre	2023-09-28T00:00:00	2024-11-08T08:00:00	2	Temperatura media	19.7
9970	7	Sololá	712	San Antonio Palopó	9	San Antonio Palopo	9	Septiembre	2023-09-28T00:00:00	2024-11-08T08:00:00	4	Temperatura máxima	19.7
9971	7	Sololá	712	San Antonio Palopó	9	San Antonio Palopo	9	Septiembre	2023-09-28T00:00:00	2024-11-08T08:00:00	3	Temperatura mínima	18.7
9972	7	Sololá	712	San Antonio Palopó	9	San Antonio Palopo	9	Septiembre	2023-09-28T00:00:00	2024-11-08T08:00:00	5	Humedad	81
9973	7	Sololá	712	San Antonio Palopó	9	San Antonio Palopo	9	Septiembre	2023-09-28T00:00:00	2024-11-08T08:00:00	6	Velocidad del viento	3.2
9974	7	Sololá	712	San Antonio Palopó	9	San Antonio Palopo	9	Septiembre	2023-09-28T00:00:00	2024-11-08T08:00:00	7	Dirección del viento	3.22
9975	7	Sololá	712	San Antonio Palopó	9	San Antonio Palopo	9	Septiembre	2023-09-28T00:00:00	2024-11-08T08:00:00	1	Precipitación	0
9976	7	Sololá	712	San Antonio Palopó	9	San Antonio Palopo	9	Septiembre	2023-09-28T00:00:00	2024-11-08T08:00:00	8	Radiación solar	146
9977	7	Sololá	712	San Antonio Palopó	9	San Antonio Palopo	9	Septiembre	2023-09-28T00:00:00	2024-11-08T09:00:00	2	Temperatura media	21.4
9978	7	Sololá	712	San Antonio Palopó	9	San Antonio Palopo	9	Septiembre	2023-09-28T00:00:00	2024-11-08T09:00:00	4	Temperatura máxima	22.1
9979	7	Sololá	712	San Antonio Palopó	9	San Antonio Palopo	9	Septiembre	2023-09-28T00:00:00	2024-11-08T09:00:00	3	Temperatura mínima	19.8
9980	7	Sololá	712	San Antonio Palopó	9	San Antonio Palopo	9	Septiembre	2023-09-28T00:00:00	2024-11-08T09:00:00	5	Humedad	74
9981	7	Sololá	712	San Antonio Palopó	9	San Antonio Palopo	9	Septiembre	2023-09-28T00:00:00	2024-11-08T09:00:00	6	Velocidad del viento	1.6
9982	7	Sololá	712	San Antonio Palopó	9	San Antonio Palopo	9	Septiembre	2023-09-28T00:00:00	2024-11-08T09:00:00	7	Dirección del viento	1.61
9983	7	Sololá	712	San Antonio Palopó	9	San Antonio Palopo	9	Septiembre	2023-09-28T00:00:00	2024-11-08T09:00:00	1	Precipitación	0
9984	7	Sololá	712	San Antonio Palopó	9	San Antonio Palopo	9	Septiembre	2023-09-28T00:00:00	2024-11-08T09:00:00	8	Radiación solar	425
9985	7	Sololá	712	San Antonio Palopó	9	San Antonio Palopo	9	Septiembre	2023-09-28T00:00:00	2024-11-08T10:00:00	2	Temperatura media	22.9
9986	7	Sololá	712	San Antonio Palopó	9	San Antonio Palopo	9	Septiembre	2023-09-28T00:00:00	2024-11-08T10:00:00	4	Temperatura máxima	23.2
9987	7	Sololá	712	San Antonio Palopó	9	San Antonio Palopo	9	Septiembre	2023-09-28T00:00:00	2024-11-08T10:00:00	3	Temperatura mínima	21.4
9988	7	Sololá	712	San Antonio Palopó	9	San Antonio Palopo	9	Septiembre	2023-09-28T00:00:00	2024-11-08T10:00:00	5	Humedad	70
9989	7	Sololá	712	San Antonio Palopó	9	San Antonio Palopo	9	Septiembre	2023-09-28T00:00:00	2024-11-08T10:00:00	6	Velocidad del viento	3.2
9990	7	Sololá	712	San Antonio Palopó	9	San Antonio Palopo	9	Septiembre	2023-09-28T00:00:00	2024-11-08T10:00:00	7	Dirección del viento	3.22
9991	7	Sololá	712	San Antonio Palopó	9	San Antonio Palopo	9	Septiembre	2023-09-28T00:00:00	2024-11-08T10:00:00	1	Precipitación	0
9992	7	Sololá	712	San Antonio Palopó	9	San Antonio Palopo	9	Septiembre	2023-09-28T00:00:00	2024-11-08T10:00:00	8	Radiación solar	668
9993	7	Sololá	712	San Antonio Palopó	9	San Antonio Palopo	9	Septiembre	2023-09-28T00:00:00	2024-11-08T11:00:00	2	Temperatura media	24.5
9994	7	Sololá	712	San Antonio Palopó	9	San Antonio Palopo	9	Septiembre	2023-09-28T00:00:00	2024-11-08T11:00:00	4	Temperatura máxima	24.5
9995	7	Sololá	712	San Antonio Palopó	9	San Antonio Palopo	9	Septiembre	2023-09-28T00:00:00	2024-11-08T11:00:00	3	Temperatura mínima	22.6
9996	7	Sololá	712	San Antonio Palopó	9	San Antonio Palopo	9	Septiembre	2023-09-28T00:00:00	2024-11-08T11:00:00	5	Humedad	69
9997	7	Sololá	712	San Antonio Palopó	9	San Antonio Palopo	9	Septiembre	2023-09-28T00:00:00	2024-11-08T11:00:00	6	Velocidad del viento	3.2
9998	7	Sololá	712	San Antonio Palopó	9	San Antonio Palopo	9	Septiembre	2023-09-28T00:00:00	2024-11-08T11:00:00	7	Dirección del viento	3.22
9999	7	Sololá	712	San Antonio Palopó	9	San Antonio Palopo	9	Septiembre	2023-09-28T00:00:00	2024-11-08T11:00:00	1	Precipitación	0
10000	7	Sololá	712	San Antonio Palopó	9	San Antonio Palopo	9	Septiembre	2023-09-28T00:00:00	2024-11-08T11:00:00	8	Radiación solar	392
10001	7	Sololá	712	San Antonio Palopó	9	San Antonio Palopo	9	Septiembre	2023-09-28T00:00:00	2024-11-08T12:00:00	2	Temperatura media	25.4
10002	7	Sololá	712	San Antonio Palopó	9	San Antonio Palopo	9	Septiembre	2023-09-28T00:00:00	2024-11-08T12:00:00	4	Temperatura máxima	25.4
10003	7	Sololá	712	San Antonio Palopó	9	San Antonio Palopo	9	Septiembre	2023-09-28T00:00:00	2024-11-08T12:00:00	3	Temperatura mínima	24.4
10004	7	Sololá	712	San Antonio Palopó	9	San Antonio Palopo	9	Septiembre	2023-09-28T00:00:00	2024-11-08T12:00:00	5	Humedad	71
10005	7	Sololá	712	San Antonio Palopó	9	San Antonio Palopo	9	Septiembre	2023-09-28T00:00:00	2024-11-08T12:00:00	6	Velocidad del viento	4.8
10006	7	Sololá	712	San Antonio Palopó	9	San Antonio Palopo	9	Septiembre	2023-09-28T00:00:00	2024-11-08T12:00:00	7	Dirección del viento	4.83
10007	7	Sololá	712	San Antonio Palopó	9	San Antonio Palopo	9	Septiembre	2023-09-28T00:00:00	2024-11-08T12:00:00	1	Precipitación	0
10008	7	Sololá	712	San Antonio Palopó	9	San Antonio Palopo	9	Septiembre	2023-09-28T00:00:00	2024-11-08T12:00:00	8	Radiación solar	909
10009	7	Sololá	712	San Antonio Palopó	9	San Antonio Palopo	9	Septiembre	2023-09-28T00:00:00	2024-11-08T13:00:00	2	Temperatura media	25.1
10010	7	Sololá	712	San Antonio Palopó	9	San Antonio Palopo	9	Septiembre	2023-09-28T00:00:00	2024-11-08T13:00:00	4	Temperatura máxima	25.7
10011	7	Sololá	712	San Antonio Palopó	9	San Antonio Palopo	9	Septiembre	2023-09-28T00:00:00	2024-11-08T13:00:00	3	Temperatura mínima	24.8
10012	7	Sololá	712	San Antonio Palopó	9	San Antonio Palopo	9	Septiembre	2023-09-28T00:00:00	2024-11-08T13:00:00	5	Humedad	72
10013	7	Sololá	712	San Antonio Palopó	9	San Antonio Palopo	9	Septiembre	2023-09-28T00:00:00	2024-11-08T13:00:00	6	Velocidad del viento	6.4
10014	7	Sololá	712	San Antonio Palopó	9	San Antonio Palopo	9	Septiembre	2023-09-28T00:00:00	2024-11-08T13:00:00	7	Dirección del viento	6.44
10015	7	Sololá	712	San Antonio Palopó	9	San Antonio Palopo	9	Septiembre	2023-09-28T00:00:00	2024-11-08T13:00:00	1	Precipitación	0
10016	7	Sololá	712	San Antonio Palopó	9	San Antonio Palopo	9	Septiembre	2023-09-28T00:00:00	2024-11-08T13:00:00	8	Radiación solar	853
10017	7	Sololá	712	San Antonio Palopó	9	San Antonio Palopo	9	Septiembre	2023-09-28T00:00:00	2024-11-08T14:00:00	2	Temperatura media	23.6
10018	7	Sololá	712	San Antonio Palopó	9	San Antonio Palopo	9	Septiembre	2023-09-28T00:00:00	2024-11-08T14:00:00	4	Temperatura máxima	25.4
10019	7	Sololá	712	San Antonio Palopó	9	San Antonio Palopo	9	Septiembre	2023-09-28T00:00:00	2024-11-08T14:00:00	3	Temperatura mínima	23.4
10020	7	Sololá	712	San Antonio Palopó	9	San Antonio Palopo	9	Septiembre	2023-09-28T00:00:00	2024-11-08T14:00:00	5	Humedad	77
10021	7	Sololá	712	San Antonio Palopó	9	San Antonio Palopo	9	Septiembre	2023-09-28T00:00:00	2024-11-08T14:00:00	6	Velocidad del viento	9.7
10022	7	Sololá	712	San Antonio Palopó	9	San Antonio Palopo	9	Septiembre	2023-09-28T00:00:00	2024-11-08T14:00:00	7	Dirección del viento	9.66
10023	7	Sololá	712	San Antonio Palopó	9	San Antonio Palopo	9	Septiembre	2023-09-28T00:00:00	2024-11-08T14:00:00	1	Precipitación	0
10024	7	Sololá	712	San Antonio Palopó	9	San Antonio Palopo	9	Septiembre	2023-09-28T00:00:00	2024-11-08T14:00:00	8	Radiación solar	408
10025	7	Sololá	712	San Antonio Palopó	9	San Antonio Palopo	9	Septiembre	2023-09-28T00:00:00	2024-11-08T15:00:00	2	Temperatura media	20.3
10026	7	Sololá	712	San Antonio Palopó	9	San Antonio Palopo	9	Septiembre	2023-09-28T00:00:00	2024-11-08T15:00:00	4	Temperatura máxima	23.6
10027	7	Sololá	712	San Antonio Palopó	9	San Antonio Palopo	9	Septiembre	2023-09-28T00:00:00	2024-11-08T15:00:00	3	Temperatura mínima	20.3
10028	7	Sololá	712	San Antonio Palopó	9	San Antonio Palopo	9	Septiembre	2023-09-28T00:00:00	2024-11-08T15:00:00	5	Humedad	87
10029	7	Sololá	712	San Antonio Palopó	9	San Antonio Palopo	9	Septiembre	2023-09-28T00:00:00	2024-11-08T15:00:00	6	Velocidad del viento	9.7
10030	7	Sololá	712	San Antonio Palopó	9	San Antonio Palopo	9	Septiembre	2023-09-28T00:00:00	2024-11-08T15:00:00	7	Dirección del viento	9.66
10031	7	Sololá	712	San Antonio Palopó	9	San Antonio Palopo	9	Septiembre	2023-09-28T00:00:00	2024-11-08T15:00:00	1	Precipitación	4.6
10032	7	Sololá	712	San Antonio Palopó	9	San Antonio Palopo	9	Septiembre	2023-09-28T00:00:00	2024-11-08T15:00:00	8	Radiación solar	66
10033	7	Sololá	712	San Antonio Palopó	9	San Antonio Palopo	9	Septiembre	2023-09-28T00:00:00	2024-11-08T16:00:00	2	Temperatura media	20.5
10034	7	Sololá	712	San Antonio Palopó	9	San Antonio Palopo	9	Septiembre	2023-09-28T00:00:00	2024-11-08T16:00:00	4	Temperatura máxima	20.6
10035	7	Sololá	712	San Antonio Palopó	9	San Antonio Palopo	9	Septiembre	2023-09-28T00:00:00	2024-11-08T16:00:00	3	Temperatura mínima	20.2
10036	7	Sololá	712	San Antonio Palopó	9	San Antonio Palopo	9	Septiembre	2023-09-28T00:00:00	2024-11-08T16:00:00	5	Humedad	88
10037	7	Sololá	712	San Antonio Palopó	9	San Antonio Palopo	9	Septiembre	2023-09-28T00:00:00	2024-11-08T16:00:00	6	Velocidad del viento	4.8
10038	7	Sololá	712	San Antonio Palopó	9	San Antonio Palopo	9	Septiembre	2023-09-28T00:00:00	2024-11-08T16:00:00	7	Dirección del viento	4.83
10039	7	Sololá	712	San Antonio Palopó	9	San Antonio Palopo	9	Septiembre	2023-09-28T00:00:00	2024-11-08T16:00:00	1	Precipitación	0.2
10040	7	Sololá	712	San Antonio Palopó	9	San Antonio Palopo	9	Septiembre	2023-09-28T00:00:00	2024-11-08T16:00:00	8	Radiación solar	28
10041	7	Sololá	712	San Antonio Palopó	9	San Antonio Palopo	9	Septiembre	2023-09-28T00:00:00	2024-11-08T17:00:00	2	Temperatura media	19.9
10042	7	Sololá	712	San Antonio Palopó	9	San Antonio Palopo	9	Septiembre	2023-09-28T00:00:00	2024-11-08T17:00:00	4	Temperatura máxima	20.6
10043	7	Sololá	712	San Antonio Palopó	9	San Antonio Palopo	9	Septiembre	2023-09-28T00:00:00	2024-11-08T17:00:00	3	Temperatura mínima	19.9
10044	7	Sololá	712	San Antonio Palopó	9	San Antonio Palopo	9	Septiembre	2023-09-28T00:00:00	2024-11-08T17:00:00	5	Humedad	90
10045	7	Sololá	712	San Antonio Palopó	9	San Antonio Palopo	9	Septiembre	2023-09-28T00:00:00	2024-11-08T17:00:00	6	Velocidad del viento	4.8
10046	7	Sololá	712	San Antonio Palopó	9	San Antonio Palopo	9	Septiembre	2023-09-28T00:00:00	2024-11-08T17:00:00	7	Dirección del viento	4.83
10047	7	Sololá	712	San Antonio Palopó	9	San Antonio Palopo	9	Septiembre	2023-09-28T00:00:00	2024-11-08T17:00:00	1	Precipitación	2.4
10048	7	Sololá	712	San Antonio Palopó	9	San Antonio Palopo	9	Septiembre	2023-09-28T00:00:00	2024-11-08T17:00:00	8	Radiación solar	4
10049	7	Sololá	712	San Antonio Palopó	9	San Antonio Palopo	9	Septiembre	2023-09-28T00:00:00	2024-11-08T18:00:00	2	Temperatura media	19.7
10050	7	Sololá	712	San Antonio Palopó	9	San Antonio Palopo	9	Septiembre	2023-09-28T00:00:00	2024-11-08T18:00:00	4	Temperatura máxima	19.9
10051	7	Sololá	712	San Antonio Palopó	9	San Antonio Palopo	9	Septiembre	2023-09-28T00:00:00	2024-11-08T18:00:00	3	Temperatura mínima	19.7
10052	7	Sololá	712	San Antonio Palopó	9	San Antonio Palopo	9	Septiembre	2023-09-28T00:00:00	2024-11-08T18:00:00	5	Humedad	90
10053	7	Sololá	712	San Antonio Palopó	9	San Antonio Palopo	9	Septiembre	2023-09-28T00:00:00	2024-11-08T18:00:00	6	Velocidad del viento	1.6
10054	7	Sololá	712	San Antonio Palopó	9	San Antonio Palopo	9	Septiembre	2023-09-28T00:00:00	2024-11-08T18:00:00	7	Dirección del viento	1.61
10055	7	Sololá	712	San Antonio Palopó	9	San Antonio Palopo	9	Septiembre	2023-09-28T00:00:00	2024-11-08T18:00:00	1	Precipitación	0.2
10056	7	Sololá	712	San Antonio Palopó	9	San Antonio Palopo	9	Septiembre	2023-09-28T00:00:00	2024-11-08T18:00:00	8	Radiación solar	0
10057	7	Sololá	712	San Antonio Palopó	9	San Antonio Palopo	9	Septiembre	2023-09-28T00:00:00	2024-11-08T19:00:00	2	Temperatura media	19.8
10058	7	Sololá	712	San Antonio Palopó	9	San Antonio Palopo	9	Septiembre	2023-09-28T00:00:00	2024-11-08T19:00:00	4	Temperatura máxima	19.8
10059	7	Sololá	712	San Antonio Palopó	9	San Antonio Palopo	9	Septiembre	2023-09-28T00:00:00	2024-11-08T19:00:00	3	Temperatura mínima	19.6
10060	7	Sololá	712	San Antonio Palopó	9	San Antonio Palopo	9	Septiembre	2023-09-28T00:00:00	2024-11-08T19:00:00	5	Humedad	88
10061	7	Sololá	712	San Antonio Palopó	9	San Antonio Palopo	9	Septiembre	2023-09-28T00:00:00	2024-11-08T19:00:00	6	Velocidad del viento	1.6
10062	7	Sololá	712	San Antonio Palopó	9	San Antonio Palopo	9	Septiembre	2023-09-28T00:00:00	2024-11-08T19:00:00	7	Dirección del viento	1.61
10063	7	Sololá	712	San Antonio Palopó	9	San Antonio Palopo	9	Septiembre	2023-09-28T00:00:00	2024-11-08T19:00:00	1	Precipitación	0
10064	7	Sololá	712	San Antonio Palopó	9	San Antonio Palopo	9	Septiembre	2023-09-28T00:00:00	2024-11-08T19:00:00	8	Radiación solar	0
10065	7	Sololá	712	San Antonio Palopó	9	San Antonio Palopo	9	Septiembre	2023-09-28T00:00:00	2024-11-08T20:00:00	2	Temperatura media	19.2
10066	7	Sololá	712	San Antonio Palopó	9	San Antonio Palopo	9	Septiembre	2023-09-28T00:00:00	2024-11-08T20:00:00	4	Temperatura máxima	19.8
10067	7	Sololá	712	San Antonio Palopó	9	San Antonio Palopo	9	Septiembre	2023-09-28T00:00:00	2024-11-08T20:00:00	3	Temperatura mínima	19.2
10068	7	Sololá	712	San Antonio Palopó	9	San Antonio Palopo	9	Septiembre	2023-09-28T00:00:00	2024-11-08T20:00:00	5	Humedad	90
10069	7	Sololá	712	San Antonio Palopó	9	San Antonio Palopo	9	Septiembre	2023-09-28T00:00:00	2024-11-08T20:00:00	6	Velocidad del viento	3.2
10070	7	Sololá	712	San Antonio Palopó	9	San Antonio Palopo	9	Septiembre	2023-09-28T00:00:00	2024-11-08T20:00:00	7	Dirección del viento	3.22
10071	7	Sololá	712	San Antonio Palopó	9	San Antonio Palopo	9	Septiembre	2023-09-28T00:00:00	2024-11-08T20:00:00	1	Precipitación	0
10072	7	Sololá	712	San Antonio Palopó	9	San Antonio Palopo	9	Septiembre	2023-09-28T00:00:00	2024-11-08T20:00:00	8	Radiación solar	0
10073	7	Sololá	712	San Antonio Palopó	9	San Antonio Palopo	9	Septiembre	2023-09-28T00:00:00	2024-11-08T21:00:00	2	Temperatura media	19
10074	7	Sololá	712	San Antonio Palopó	9	San Antonio Palopo	9	Septiembre	2023-09-28T00:00:00	2024-11-08T21:00:00	4	Temperatura máxima	19.8
10075	7	Sololá	712	San Antonio Palopó	9	San Antonio Palopo	9	Septiembre	2023-09-28T00:00:00	2024-11-08T21:00:00	3	Temperatura mínima	18.9
10076	7	Sololá	712	San Antonio Palopó	9	San Antonio Palopo	9	Septiembre	2023-09-28T00:00:00	2024-11-08T21:00:00	5	Humedad	90
10077	7	Sololá	712	San Antonio Palopó	9	San Antonio Palopo	9	Septiembre	2023-09-28T00:00:00	2024-11-08T21:00:00	6	Velocidad del viento	3.2
10078	7	Sololá	712	San Antonio Palopó	9	San Antonio Palopo	9	Septiembre	2023-09-28T00:00:00	2024-11-08T21:00:00	7	Dirección del viento	3.22
10079	7	Sololá	712	San Antonio Palopó	9	San Antonio Palopo	9	Septiembre	2023-09-28T00:00:00	2024-11-08T21:00:00	1	Precipitación	0
10080	7	Sololá	712	San Antonio Palopó	9	San Antonio Palopo	9	Septiembre	2023-09-28T00:00:00	2024-11-08T21:00:00	8	Radiación solar	0
10081	7	Sololá	712	San Antonio Palopó	9	San Antonio Palopo	9	Septiembre	2023-09-28T00:00:00	2024-11-08T22:00:00	2	Temperatura media	19.3
10082	7	Sololá	712	San Antonio Palopó	9	San Antonio Palopo	9	Septiembre	2023-09-28T00:00:00	2024-11-08T22:00:00	4	Temperatura máxima	19.4
10083	7	Sololá	712	San Antonio Palopó	9	San Antonio Palopo	9	Septiembre	2023-09-28T00:00:00	2024-11-08T22:00:00	3	Temperatura mínima	18.9
10084	7	Sololá	712	San Antonio Palopó	9	San Antonio Palopo	9	Septiembre	2023-09-28T00:00:00	2024-11-08T22:00:00	5	Humedad	89
10085	7	Sololá	712	San Antonio Palopó	9	San Antonio Palopo	9	Septiembre	2023-09-28T00:00:00	2024-11-08T22:00:00	6	Velocidad del viento	3.2
10086	7	Sololá	712	San Antonio Palopó	9	San Antonio Palopo	9	Septiembre	2023-09-28T00:00:00	2024-11-08T22:00:00	7	Dirección del viento	3.22
10087	7	Sololá	712	San Antonio Palopó	9	San Antonio Palopo	9	Septiembre	2023-09-28T00:00:00	2024-11-08T22:00:00	1	Precipitación	0
10088	7	Sololá	712	San Antonio Palopó	9	San Antonio Palopo	9	Septiembre	2023-09-28T00:00:00	2024-11-08T22:00:00	8	Radiación solar	0
10089	7	Sololá	712	San Antonio Palopó	9	San Antonio Palopo	9	Septiembre	2023-09-28T00:00:00	2024-11-08T23:00:00	2	Temperatura media	19.5
10090	7	Sololá	712	San Antonio Palopó	9	San Antonio Palopo	9	Septiembre	2023-09-28T00:00:00	2024-11-08T23:00:00	4	Temperatura máxima	19.6
10091	7	Sololá	712	San Antonio Palopó	9	San Antonio Palopo	9	Septiembre	2023-09-28T00:00:00	2024-11-08T23:00:00	3	Temperatura mínima	18.9
10092	7	Sololá	712	San Antonio Palopó	9	San Antonio Palopo	9	Septiembre	2023-09-28T00:00:00	2024-11-08T23:00:00	5	Humedad	86
10093	7	Sololá	712	San Antonio Palopó	9	San Antonio Palopo	9	Septiembre	2023-09-28T00:00:00	2024-11-08T23:00:00	6	Velocidad del viento	3.2
10094	7	Sololá	712	San Antonio Palopó	9	San Antonio Palopo	9	Septiembre	2023-09-28T00:00:00	2024-11-08T23:00:00	7	Dirección del viento	3.22
10095	7	Sololá	712	San Antonio Palopó	9	San Antonio Palopo	9	Septiembre	2023-09-28T00:00:00	2024-11-08T23:00:00	1	Precipitación	0
10096	7	Sololá	712	San Antonio Palopó	9	San Antonio Palopo	9	Septiembre	2023-09-28T00:00:00	2024-11-08T23:00:00	8	Radiación solar	0
10097	7	Sololá	712	San Antonio Palopó	9	San Antonio Palopo	9	Septiembre	2023-09-29T00:00:00	2024-11-08T00:00:00	2	Temperatura media	19.4
10098	7	Sololá	712	San Antonio Palopó	9	San Antonio Palopo	9	Septiembre	2023-09-29T00:00:00	2024-11-08T00:00:00	4	Temperatura máxima	20
10099	7	Sololá	712	San Antonio Palopó	9	San Antonio Palopo	9	Septiembre	2023-09-29T00:00:00	2024-11-08T00:00:00	3	Temperatura mínima	19.4
10100	7	Sololá	712	San Antonio Palopó	9	San Antonio Palopo	9	Septiembre	2023-09-29T00:00:00	2024-11-08T00:00:00	5	Humedad	83
10101	7	Sololá	712	San Antonio Palopó	9	San Antonio Palopo	9	Septiembre	2023-09-29T00:00:00	2024-11-08T00:00:00	6	Velocidad del viento	3.2
10102	7	Sololá	712	San Antonio Palopó	9	San Antonio Palopo	9	Septiembre	2023-09-29T00:00:00	2024-11-08T00:00:00	7	Dirección del viento	3.22
10103	7	Sololá	712	San Antonio Palopó	9	San Antonio Palopo	9	Septiembre	2023-09-29T00:00:00	2024-11-08T00:00:00	1	Precipitación	0
10104	7	Sololá	712	San Antonio Palopó	9	San Antonio Palopo	9	Septiembre	2023-09-29T00:00:00	2024-11-08T00:00:00	8	Radiación solar	0
10105	7	Sololá	712	San Antonio Palopó	9	San Antonio Palopo	9	Septiembre	2023-09-29T00:00:00	2024-11-08T01:00:00	2	Temperatura media	20.3
10106	7	Sololá	712	San Antonio Palopó	9	San Antonio Palopo	9	Septiembre	2023-09-29T00:00:00	2024-11-08T01:00:00	4	Temperatura máxima	20.3
10107	7	Sololá	712	San Antonio Palopó	9	San Antonio Palopo	9	Septiembre	2023-09-29T00:00:00	2024-11-08T01:00:00	3	Temperatura mínima	19.3
10108	7	Sololá	712	San Antonio Palopó	9	San Antonio Palopo	9	Septiembre	2023-09-29T00:00:00	2024-11-08T01:00:00	5	Humedad	77
10109	7	Sololá	712	San Antonio Palopó	9	San Antonio Palopo	9	Septiembre	2023-09-29T00:00:00	2024-11-08T01:00:00	6	Velocidad del viento	6.4
10110	7	Sololá	712	San Antonio Palopó	9	San Antonio Palopo	9	Septiembre	2023-09-29T00:00:00	2024-11-08T01:00:00	7	Dirección del viento	6.44
10111	7	Sololá	712	San Antonio Palopó	9	San Antonio Palopo	9	Septiembre	2023-09-29T00:00:00	2024-11-08T01:00:00	1	Precipitación	0
10112	7	Sololá	712	San Antonio Palopó	9	San Antonio Palopo	9	Septiembre	2023-09-29T00:00:00	2024-11-08T01:00:00	8	Radiación solar	0
10113	7	Sololá	712	San Antonio Palopó	9	San Antonio Palopo	9	Septiembre	2023-09-29T00:00:00	2024-11-08T02:00:00	2	Temperatura media	20.2
10114	7	Sololá	712	San Antonio Palopó	9	San Antonio Palopo	9	Septiembre	2023-09-29T00:00:00	2024-11-08T02:00:00	4	Temperatura máxima	20.6
10115	7	Sololá	712	San Antonio Palopó	9	San Antonio Palopo	9	Septiembre	2023-09-29T00:00:00	2024-11-08T02:00:00	3	Temperatura mínima	20
10116	7	Sololá	712	San Antonio Palopó	9	San Antonio Palopo	9	Septiembre	2023-09-29T00:00:00	2024-11-08T02:00:00	5	Humedad	79
10117	7	Sololá	712	San Antonio Palopó	9	San Antonio Palopo	9	Septiembre	2023-09-29T00:00:00	2024-11-08T02:00:00	6	Velocidad del viento	6.4
10118	7	Sololá	712	San Antonio Palopó	9	San Antonio Palopo	9	Septiembre	2023-09-29T00:00:00	2024-11-08T02:00:00	7	Dirección del viento	6.44
10119	7	Sololá	712	San Antonio Palopó	9	San Antonio Palopo	9	Septiembre	2023-09-29T00:00:00	2024-11-08T02:00:00	1	Precipitación	0
10120	7	Sololá	712	San Antonio Palopó	9	San Antonio Palopo	9	Septiembre	2023-09-29T00:00:00	2024-11-08T02:00:00	8	Radiación solar	0
10121	7	Sololá	712	San Antonio Palopó	9	San Antonio Palopo	9	Septiembre	2023-09-29T00:00:00	2024-11-08T03:00:00	2	Temperatura media	20.2
10122	7	Sololá	712	San Antonio Palopó	9	San Antonio Palopo	9	Septiembre	2023-09-29T00:00:00	2024-11-08T03:00:00	4	Temperatura máxima	20.4
10123	7	Sololá	712	San Antonio Palopó	9	San Antonio Palopo	9	Septiembre	2023-09-29T00:00:00	2024-11-08T03:00:00	3	Temperatura mínima	20.1
10124	7	Sololá	712	San Antonio Palopó	9	San Antonio Palopo	9	Septiembre	2023-09-29T00:00:00	2024-11-08T03:00:00	5	Humedad	76
10125	7	Sololá	712	San Antonio Palopó	9	San Antonio Palopo	9	Septiembre	2023-09-29T00:00:00	2024-11-08T03:00:00	6	Velocidad del viento	9.7
10126	7	Sololá	712	San Antonio Palopó	9	San Antonio Palopo	9	Septiembre	2023-09-29T00:00:00	2024-11-08T03:00:00	7	Dirección del viento	9.66
10127	7	Sololá	712	San Antonio Palopó	9	San Antonio Palopo	9	Septiembre	2023-09-29T00:00:00	2024-11-08T03:00:00	1	Precipitación	0
10128	7	Sololá	712	San Antonio Palopó	9	San Antonio Palopo	9	Septiembre	2023-09-29T00:00:00	2024-11-08T03:00:00	8	Radiación solar	0
10129	7	Sololá	712	San Antonio Palopó	9	San Antonio Palopo	9	Septiembre	2023-09-29T00:00:00	2024-11-08T04:00:00	2	Temperatura media	20.1
10130	7	Sololá	712	San Antonio Palopó	9	San Antonio Palopo	9	Septiembre	2023-09-29T00:00:00	2024-11-08T04:00:00	4	Temperatura máxima	20.3
10131	7	Sololá	712	San Antonio Palopó	9	San Antonio Palopo	9	Septiembre	2023-09-29T00:00:00	2024-11-08T04:00:00	3	Temperatura mínima	20.1
10132	7	Sololá	712	San Antonio Palopó	9	San Antonio Palopo	9	Septiembre	2023-09-29T00:00:00	2024-11-08T04:00:00	5	Humedad	76
10133	7	Sololá	712	San Antonio Palopó	9	San Antonio Palopo	9	Septiembre	2023-09-29T00:00:00	2024-11-08T04:00:00	6	Velocidad del viento	12.9
10134	7	Sololá	712	San Antonio Palopó	9	San Antonio Palopo	9	Septiembre	2023-09-29T00:00:00	2024-11-08T04:00:00	7	Dirección del viento	12.87
10135	7	Sololá	712	San Antonio Palopó	9	San Antonio Palopo	9	Septiembre	2023-09-29T00:00:00	2024-11-08T04:00:00	1	Precipitación	0
10136	7	Sololá	712	San Antonio Palopó	9	San Antonio Palopo	9	Septiembre	2023-09-29T00:00:00	2024-11-08T04:00:00	8	Radiación solar	0
10137	7	Sololá	712	San Antonio Palopó	9	San Antonio Palopo	9	Septiembre	2023-09-29T00:00:00	2024-11-08T05:00:00	2	Temperatura media	20.3
10138	7	Sololá	712	San Antonio Palopó	9	San Antonio Palopo	9	Septiembre	2023-09-29T00:00:00	2024-11-08T05:00:00	4	Temperatura máxima	20.3
10139	7	Sololá	712	San Antonio Palopó	9	San Antonio Palopo	9	Septiembre	2023-09-29T00:00:00	2024-11-08T05:00:00	3	Temperatura mínima	20
10140	7	Sololá	712	San Antonio Palopó	9	San Antonio Palopo	9	Septiembre	2023-09-29T00:00:00	2024-11-08T05:00:00	5	Humedad	75
10141	7	Sololá	712	San Antonio Palopó	9	San Antonio Palopo	9	Septiembre	2023-09-29T00:00:00	2024-11-08T05:00:00	6	Velocidad del viento	11.3
10142	7	Sololá	712	San Antonio Palopó	9	San Antonio Palopo	9	Septiembre	2023-09-29T00:00:00	2024-11-08T05:00:00	7	Dirección del viento	11.27
10143	7	Sololá	712	San Antonio Palopó	9	San Antonio Palopo	9	Septiembre	2023-09-29T00:00:00	2024-11-08T05:00:00	1	Precipitación	0
10144	7	Sololá	712	San Antonio Palopó	9	San Antonio Palopo	9	Septiembre	2023-09-29T00:00:00	2024-11-08T05:00:00	8	Radiación solar	0
10145	7	Sololá	712	San Antonio Palopó	9	San Antonio Palopo	9	Septiembre	2023-09-29T00:00:00	2024-11-08T06:00:00	2	Temperatura media	19.9
10146	7	Sololá	712	San Antonio Palopó	9	San Antonio Palopo	9	Septiembre	2023-09-29T00:00:00	2024-11-08T06:00:00	4	Temperatura máxima	20.3
10147	7	Sololá	712	San Antonio Palopó	9	San Antonio Palopo	9	Septiembre	2023-09-29T00:00:00	2024-11-08T06:00:00	3	Temperatura mínima	19.9
10148	7	Sololá	712	San Antonio Palopó	9	San Antonio Palopo	9	Septiembre	2023-09-29T00:00:00	2024-11-08T06:00:00	5	Humedad	77
10149	7	Sololá	712	San Antonio Palopó	9	San Antonio Palopo	9	Septiembre	2023-09-29T00:00:00	2024-11-08T06:00:00	6	Velocidad del viento	9.7
10150	7	Sololá	712	San Antonio Palopó	9	San Antonio Palopo	9	Septiembre	2023-09-29T00:00:00	2024-11-08T06:00:00	7	Dirección del viento	9.66
10151	7	Sololá	712	San Antonio Palopó	9	San Antonio Palopo	9	Septiembre	2023-09-29T00:00:00	2024-11-08T06:00:00	1	Precipitación	0
10152	7	Sololá	712	San Antonio Palopó	9	San Antonio Palopo	9	Septiembre	2023-09-29T00:00:00	2024-11-08T06:00:00	8	Radiación solar	0
10153	7	Sololá	712	San Antonio Palopó	9	San Antonio Palopo	9	Septiembre	2023-09-29T00:00:00	2024-11-08T07:00:00	2	Temperatura media	20
10154	7	Sololá	712	San Antonio Palopó	9	San Antonio Palopo	9	Septiembre	2023-09-29T00:00:00	2024-11-08T07:00:00	4	Temperatura máxima	20
10155	7	Sololá	712	San Antonio Palopó	9	San Antonio Palopo	9	Septiembre	2023-09-29T00:00:00	2024-11-08T07:00:00	3	Temperatura mínima	19.7
10156	7	Sololá	712	San Antonio Palopó	9	San Antonio Palopo	9	Septiembre	2023-09-29T00:00:00	2024-11-08T07:00:00	5	Humedad	77
10157	7	Sololá	712	San Antonio Palopó	9	San Antonio Palopo	9	Septiembre	2023-09-29T00:00:00	2024-11-08T07:00:00	6	Velocidad del viento	8
10158	7	Sololá	712	San Antonio Palopó	9	San Antonio Palopo	9	Septiembre	2023-09-29T00:00:00	2024-11-08T07:00:00	7	Dirección del viento	8.05
10159	7	Sololá	712	San Antonio Palopó	9	San Antonio Palopo	9	Septiembre	2023-09-29T00:00:00	2024-11-08T07:00:00	1	Precipitación	0
10160	7	Sololá	712	San Antonio Palopó	9	San Antonio Palopo	9	Septiembre	2023-09-29T00:00:00	2024-11-08T07:00:00	8	Radiación solar	41
10161	7	Sololá	712	San Antonio Palopó	9	San Antonio Palopo	9	Septiembre	2023-09-29T00:00:00	2024-11-08T08:00:00	2	Temperatura media	20.9
10162	7	Sololá	712	San Antonio Palopó	9	San Antonio Palopo	9	Septiembre	2023-09-29T00:00:00	2024-11-08T08:00:00	4	Temperatura máxima	20.9
10163	7	Sololá	712	San Antonio Palopó	9	San Antonio Palopo	9	Septiembre	2023-09-29T00:00:00	2024-11-08T08:00:00	3	Temperatura mínima	19.9
10164	7	Sololá	712	San Antonio Palopó	9	San Antonio Palopo	9	Septiembre	2023-09-29T00:00:00	2024-11-08T08:00:00	5	Humedad	77
10165	7	Sololá	712	San Antonio Palopó	9	San Antonio Palopo	9	Septiembre	2023-09-29T00:00:00	2024-11-08T08:00:00	6	Velocidad del viento	3.2
10166	7	Sololá	712	San Antonio Palopó	9	San Antonio Palopo	9	Septiembre	2023-09-29T00:00:00	2024-11-08T08:00:00	7	Dirección del viento	3.22
10167	7	Sololá	712	San Antonio Palopó	9	San Antonio Palopo	9	Septiembre	2023-09-29T00:00:00	2024-11-08T08:00:00	1	Precipitación	0
10168	7	Sololá	712	San Antonio Palopó	9	San Antonio Palopo	9	Septiembre	2023-09-29T00:00:00	2024-11-08T08:00:00	8	Radiación solar	130
10169	7	Sololá	712	San Antonio Palopó	9	San Antonio Palopo	9	Septiembre	2023-09-29T00:00:00	2024-11-08T09:00:00	2	Temperatura media	21.5
10170	7	Sololá	712	San Antonio Palopó	9	San Antonio Palopo	9	Septiembre	2023-09-29T00:00:00	2024-11-08T09:00:00	4	Temperatura máxima	21.5
10171	7	Sololá	712	San Antonio Palopó	9	San Antonio Palopo	9	Septiembre	2023-09-29T00:00:00	2024-11-08T09:00:00	3	Temperatura mínima	20.8
10172	7	Sololá	712	San Antonio Palopó	9	San Antonio Palopo	9	Septiembre	2023-09-29T00:00:00	2024-11-08T09:00:00	5	Humedad	75
10173	7	Sololá	712	San Antonio Palopó	9	San Antonio Palopo	9	Septiembre	2023-09-29T00:00:00	2024-11-08T09:00:00	6	Velocidad del viento	1.6
10174	7	Sololá	712	San Antonio Palopó	9	San Antonio Palopo	9	Septiembre	2023-09-29T00:00:00	2024-11-08T09:00:00	7	Dirección del viento	1.61
10175	7	Sololá	712	San Antonio Palopó	9	San Antonio Palopo	9	Septiembre	2023-09-29T00:00:00	2024-11-08T09:00:00	1	Precipitación	0
10176	7	Sololá	712	San Antonio Palopó	9	San Antonio Palopo	9	Septiembre	2023-09-29T00:00:00	2024-11-08T09:00:00	8	Radiación solar	213
10177	7	Sololá	712	San Antonio Palopó	9	San Antonio Palopo	9	Septiembre	2023-09-29T00:00:00	2024-11-08T10:00:00	2	Temperatura media	22.2
10178	7	Sololá	712	San Antonio Palopó	9	San Antonio Palopo	9	Septiembre	2023-09-29T00:00:00	2024-11-08T10:00:00	4	Temperatura máxima	22.2
10179	7	Sololá	712	San Antonio Palopó	9	San Antonio Palopo	9	Septiembre	2023-09-29T00:00:00	2024-11-08T10:00:00	3	Temperatura mínima	21.5
10180	7	Sololá	712	San Antonio Palopó	9	San Antonio Palopo	9	Septiembre	2023-09-29T00:00:00	2024-11-08T10:00:00	5	Humedad	75
10181	7	Sololá	712	San Antonio Palopó	9	San Antonio Palopo	9	Septiembre	2023-09-29T00:00:00	2024-11-08T10:00:00	6	Velocidad del viento	1.6
10182	7	Sololá	712	San Antonio Palopó	9	San Antonio Palopo	9	Septiembre	2023-09-29T00:00:00	2024-11-08T10:00:00	7	Dirección del viento	1.61
10183	7	Sololá	712	San Antonio Palopó	9	San Antonio Palopo	9	Septiembre	2023-09-29T00:00:00	2024-11-08T10:00:00	1	Precipitación	0
10184	7	Sololá	712	San Antonio Palopó	9	San Antonio Palopo	9	Septiembre	2023-09-29T00:00:00	2024-11-08T10:00:00	8	Radiación solar	394
10185	7	Sololá	712	San Antonio Palopó	9	San Antonio Palopo	9	Septiembre	2023-09-29T00:00:00	2024-11-08T11:00:00	2	Temperatura media	23.3
10186	7	Sololá	712	San Antonio Palopó	9	San Antonio Palopo	9	Septiembre	2023-09-29T00:00:00	2024-11-08T11:00:00	4	Temperatura máxima	23.3
10187	7	Sololá	712	San Antonio Palopó	9	San Antonio Palopo	9	Septiembre	2023-09-29T00:00:00	2024-11-08T11:00:00	3	Temperatura mínima	22.2
10188	7	Sololá	712	San Antonio Palopó	9	San Antonio Palopo	9	Septiembre	2023-09-29T00:00:00	2024-11-08T11:00:00	5	Humedad	72
10189	7	Sololá	712	San Antonio Palopó	9	San Antonio Palopo	9	Septiembre	2023-09-29T00:00:00	2024-11-08T11:00:00	6	Velocidad del viento	3.2
10190	7	Sololá	712	San Antonio Palopó	9	San Antonio Palopo	9	Septiembre	2023-09-29T00:00:00	2024-11-08T11:00:00	7	Dirección del viento	3.22
10191	7	Sololá	712	San Antonio Palopó	9	San Antonio Palopo	9	Septiembre	2023-09-29T00:00:00	2024-11-08T11:00:00	1	Precipitación	0
10192	7	Sololá	712	San Antonio Palopó	9	San Antonio Palopo	9	Septiembre	2023-09-29T00:00:00	2024-11-08T11:00:00	8	Radiación solar	670
10193	7	Sololá	712	San Antonio Palopó	9	San Antonio Palopo	9	Septiembre	2023-09-29T00:00:00	2024-11-08T12:00:00	2	Temperatura media	24.5
10194	7	Sololá	712	San Antonio Palopó	9	San Antonio Palopo	9	Septiembre	2023-09-29T00:00:00	2024-11-08T12:00:00	4	Temperatura máxima	24.8
10195	7	Sololá	712	San Antonio Palopó	9	San Antonio Palopo	9	Septiembre	2023-09-29T00:00:00	2024-11-08T12:00:00	3	Temperatura mínima	23.3
10196	7	Sololá	712	San Antonio Palopó	9	San Antonio Palopo	9	Septiembre	2023-09-29T00:00:00	2024-11-08T12:00:00	5	Humedad	76
10197	7	Sololá	712	San Antonio Palopó	9	San Antonio Palopo	9	Septiembre	2023-09-29T00:00:00	2024-11-08T12:00:00	6	Velocidad del viento	3.2
10198	7	Sololá	712	San Antonio Palopó	9	San Antonio Palopo	9	Septiembre	2023-09-29T00:00:00	2024-11-08T12:00:00	7	Dirección del viento	3.22
10199	7	Sololá	712	San Antonio Palopó	9	San Antonio Palopo	9	Septiembre	2023-09-29T00:00:00	2024-11-08T12:00:00	1	Precipitación	0
10200	7	Sololá	712	San Antonio Palopó	9	San Antonio Palopo	9	Septiembre	2023-09-29T00:00:00	2024-11-08T12:00:00	8	Radiación solar	753
10201	7	Sololá	712	San Antonio Palopó	9	San Antonio Palopo	9	Septiembre	2023-09-29T00:00:00	2024-11-08T13:00:00	2	Temperatura media	22.4
10202	7	Sololá	712	San Antonio Palopó	9	San Antonio Palopo	9	Septiembre	2023-09-29T00:00:00	2024-11-08T13:00:00	4	Temperatura máxima	24.5
10203	7	Sololá	712	San Antonio Palopó	9	San Antonio Palopo	9	Septiembre	2023-09-29T00:00:00	2024-11-08T13:00:00	3	Temperatura mínima	22.4
10204	7	Sololá	712	San Antonio Palopó	9	San Antonio Palopo	9	Septiembre	2023-09-29T00:00:00	2024-11-08T13:00:00	5	Humedad	80
10205	7	Sololá	712	San Antonio Palopó	9	San Antonio Palopo	9	Septiembre	2023-09-29T00:00:00	2024-11-08T13:00:00	6	Velocidad del viento	9.7
10206	7	Sololá	712	San Antonio Palopó	9	San Antonio Palopo	9	Septiembre	2023-09-29T00:00:00	2024-11-08T13:00:00	7	Dirección del viento	9.66
10207	7	Sololá	712	San Antonio Palopó	9	San Antonio Palopo	9	Septiembre	2023-09-29T00:00:00	2024-11-08T13:00:00	1	Precipitación	0
10208	7	Sololá	712	San Antonio Palopó	9	San Antonio Palopo	9	Septiembre	2023-09-29T00:00:00	2024-11-08T13:00:00	8	Radiación solar	290
10209	7	Sololá	712	San Antonio Palopó	9	San Antonio Palopo	9	Septiembre	2023-09-29T00:00:00	2024-11-08T14:00:00	2	Temperatura media	24.2
10210	7	Sololá	712	San Antonio Palopó	9	San Antonio Palopo	9	Septiembre	2023-09-29T00:00:00	2024-11-08T14:00:00	4	Temperatura máxima	24.2
10211	7	Sololá	712	San Antonio Palopó	9	San Antonio Palopo	9	Septiembre	2023-09-29T00:00:00	2024-11-08T14:00:00	3	Temperatura mínima	21.9
10212	7	Sololá	712	San Antonio Palopó	9	San Antonio Palopo	9	Septiembre	2023-09-29T00:00:00	2024-11-08T14:00:00	5	Humedad	75
10213	7	Sololá	712	San Antonio Palopó	9	San Antonio Palopo	9	Septiembre	2023-09-29T00:00:00	2024-11-08T14:00:00	6	Velocidad del viento	6.4
10214	7	Sololá	712	San Antonio Palopó	9	San Antonio Palopo	9	Septiembre	2023-09-29T00:00:00	2024-11-08T14:00:00	7	Dirección del viento	6.44
10215	7	Sololá	712	San Antonio Palopó	9	San Antonio Palopo	9	Septiembre	2023-09-29T00:00:00	2024-11-08T14:00:00	1	Precipitación	0
10216	7	Sololá	712	San Antonio Palopó	9	San Antonio Palopo	9	Septiembre	2023-09-29T00:00:00	2024-11-08T14:00:00	8	Radiación solar	444
10217	7	Sololá	712	San Antonio Palopó	9	San Antonio Palopo	9	Septiembre	2023-09-29T00:00:00	2024-11-08T15:00:00	2	Temperatura media	21.3
10218	7	Sololá	712	San Antonio Palopó	9	San Antonio Palopo	9	Septiembre	2023-09-29T00:00:00	2024-11-08T15:00:00	4	Temperatura máxima	24.3
10219	7	Sololá	712	San Antonio Palopó	9	San Antonio Palopo	9	Septiembre	2023-09-29T00:00:00	2024-11-08T15:00:00	3	Temperatura mínima	21.2
10220	7	Sololá	712	San Antonio Palopó	9	San Antonio Palopo	9	Septiembre	2023-09-29T00:00:00	2024-11-08T15:00:00	5	Humedad	87
10221	7	Sololá	712	San Antonio Palopó	9	San Antonio Palopo	9	Septiembre	2023-09-29T00:00:00	2024-11-08T15:00:00	6	Velocidad del viento	3.2
10222	7	Sololá	712	San Antonio Palopó	9	San Antonio Palopo	9	Septiembre	2023-09-29T00:00:00	2024-11-08T15:00:00	7	Dirección del viento	3.22
10223	7	Sololá	712	San Antonio Palopó	9	San Antonio Palopo	9	Septiembre	2023-09-29T00:00:00	2024-11-08T15:00:00	1	Precipitación	7.4
10224	7	Sololá	712	San Antonio Palopó	9	San Antonio Palopo	9	Septiembre	2023-09-29T00:00:00	2024-11-08T15:00:00	8	Radiación solar	75
10225	7	Sololá	712	San Antonio Palopó	9	San Antonio Palopo	9	Septiembre	2023-09-29T00:00:00	2024-11-08T16:00:00	2	Temperatura media	20.1
10226	7	Sololá	712	San Antonio Palopó	9	San Antonio Palopo	9	Septiembre	2023-09-29T00:00:00	2024-11-08T16:00:00	4	Temperatura máxima	21.3
10227	7	Sololá	712	San Antonio Palopó	9	San Antonio Palopo	9	Septiembre	2023-09-29T00:00:00	2024-11-08T16:00:00	3	Temperatura mínima	20.1
10228	7	Sololá	712	San Antonio Palopó	9	San Antonio Palopo	9	Septiembre	2023-09-29T00:00:00	2024-11-08T16:00:00	5	Humedad	89
10229	7	Sololá	712	San Antonio Palopó	9	San Antonio Palopo	9	Septiembre	2023-09-29T00:00:00	2024-11-08T16:00:00	6	Velocidad del viento	3.2
10230	7	Sololá	712	San Antonio Palopó	9	San Antonio Palopo	9	Septiembre	2023-09-29T00:00:00	2024-11-08T16:00:00	7	Dirección del viento	3.22
10231	7	Sololá	712	San Antonio Palopó	9	San Antonio Palopo	9	Septiembre	2023-09-29T00:00:00	2024-11-08T16:00:00	1	Precipitación	4.4
10232	7	Sololá	712	San Antonio Palopó	9	San Antonio Palopo	9	Septiembre	2023-09-29T00:00:00	2024-11-08T16:00:00	8	Radiación solar	10
10233	7	Sololá	712	San Antonio Palopó	9	San Antonio Palopo	9	Septiembre	2023-09-29T00:00:00	2024-11-08T17:00:00	2	Temperatura media	19.8
10234	7	Sololá	712	San Antonio Palopó	9	San Antonio Palopo	9	Septiembre	2023-09-29T00:00:00	2024-11-08T17:00:00	4	Temperatura máxima	20.2
10235	7	Sololá	712	San Antonio Palopó	9	San Antonio Palopo	9	Septiembre	2023-09-29T00:00:00	2024-11-08T17:00:00	3	Temperatura mínima	19.8
10236	7	Sololá	712	San Antonio Palopó	9	San Antonio Palopo	9	Septiembre	2023-09-29T00:00:00	2024-11-08T17:00:00	5	Humedad	87
10237	7	Sololá	712	San Antonio Palopó	9	San Antonio Palopo	9	Septiembre	2023-09-29T00:00:00	2024-11-08T17:00:00	6	Velocidad del viento	3.2
10238	7	Sololá	712	San Antonio Palopó	9	San Antonio Palopo	9	Septiembre	2023-09-29T00:00:00	2024-11-08T17:00:00	7	Dirección del viento	3.22
10239	7	Sololá	712	San Antonio Palopó	9	San Antonio Palopo	9	Septiembre	2023-09-29T00:00:00	2024-11-08T17:00:00	1	Precipitación	0
10240	7	Sololá	712	San Antonio Palopó	9	San Antonio Palopo	9	Septiembre	2023-09-29T00:00:00	2024-11-08T17:00:00	8	Radiación solar	6
10241	7	Sololá	712	San Antonio Palopó	9	San Antonio Palopo	9	Septiembre	2023-09-29T00:00:00	2024-11-08T18:00:00	2	Temperatura media	19.8
10242	7	Sololá	712	San Antonio Palopó	9	San Antonio Palopo	9	Septiembre	2023-09-29T00:00:00	2024-11-08T18:00:00	4	Temperatura máxima	20.1
10243	7	Sololá	712	San Antonio Palopó	9	San Antonio Palopo	9	Septiembre	2023-09-29T00:00:00	2024-11-08T18:00:00	3	Temperatura mínima	19.7
10244	7	Sololá	712	San Antonio Palopó	9	San Antonio Palopo	9	Septiembre	2023-09-29T00:00:00	2024-11-08T18:00:00	5	Humedad	88
10245	7	Sololá	712	San Antonio Palopó	9	San Antonio Palopo	9	Septiembre	2023-09-29T00:00:00	2024-11-08T18:00:00	6	Velocidad del viento	1.6
10246	7	Sololá	712	San Antonio Palopó	9	San Antonio Palopo	9	Septiembre	2023-09-29T00:00:00	2024-11-08T18:00:00	7	Dirección del viento	1.61
10247	7	Sololá	712	San Antonio Palopó	9	San Antonio Palopo	9	Septiembre	2023-09-29T00:00:00	2024-11-08T18:00:00	1	Precipitación	0
10248	7	Sololá	712	San Antonio Palopó	9	San Antonio Palopo	9	Septiembre	2023-09-29T00:00:00	2024-11-08T18:00:00	8	Radiación solar	0
10249	7	Sololá	712	San Antonio Palopó	9	San Antonio Palopo	9	Septiembre	2023-09-29T00:00:00	2024-11-08T19:00:00	2	Temperatura media	19.1
10250	7	Sololá	712	San Antonio Palopó	9	San Antonio Palopo	9	Septiembre	2023-09-29T00:00:00	2024-11-08T19:00:00	4	Temperatura máxima	19.8
10251	7	Sololá	712	San Antonio Palopó	9	San Antonio Palopo	9	Septiembre	2023-09-29T00:00:00	2024-11-08T19:00:00	3	Temperatura mínima	19.1
10252	7	Sololá	712	San Antonio Palopó	9	San Antonio Palopo	9	Septiembre	2023-09-29T00:00:00	2024-11-08T19:00:00	5	Humedad	90
10253	7	Sololá	712	San Antonio Palopó	9	San Antonio Palopo	9	Septiembre	2023-09-29T00:00:00	2024-11-08T19:00:00	6	Velocidad del viento	3.2
10254	7	Sololá	712	San Antonio Palopó	9	San Antonio Palopo	9	Septiembre	2023-09-29T00:00:00	2024-11-08T19:00:00	7	Dirección del viento	3.22
10255	7	Sololá	712	San Antonio Palopó	9	San Antonio Palopo	9	Septiembre	2023-09-29T00:00:00	2024-11-08T19:00:00	1	Precipitación	0
10256	7	Sololá	712	San Antonio Palopó	9	San Antonio Palopo	9	Septiembre	2023-09-29T00:00:00	2024-11-08T19:00:00	8	Radiación solar	0
10257	7	Sololá	712	San Antonio Palopó	9	San Antonio Palopo	9	Septiembre	2023-09-29T00:00:00	2024-11-08T20:00:00	2	Temperatura media	19
10258	7	Sololá	712	San Antonio Palopó	9	San Antonio Palopo	9	Septiembre	2023-09-29T00:00:00	2024-11-08T20:00:00	4	Temperatura máxima	19.1
10259	7	Sololá	712	San Antonio Palopó	9	San Antonio Palopo	9	Septiembre	2023-09-29T00:00:00	2024-11-08T20:00:00	3	Temperatura mínima	18.9
10260	7	Sololá	712	San Antonio Palopó	9	San Antonio Palopo	9	Septiembre	2023-09-29T00:00:00	2024-11-08T20:00:00	5	Humedad	90
10261	7	Sololá	712	San Antonio Palopó	9	San Antonio Palopo	9	Septiembre	2023-09-29T00:00:00	2024-11-08T20:00:00	6	Velocidad del viento	3.2
10262	7	Sololá	712	San Antonio Palopó	9	San Antonio Palopo	9	Septiembre	2023-09-29T00:00:00	2024-11-08T20:00:00	7	Dirección del viento	3.22
10263	7	Sololá	712	San Antonio Palopó	9	San Antonio Palopo	9	Septiembre	2023-09-29T00:00:00	2024-11-08T20:00:00	1	Precipitación	0
10264	7	Sololá	712	San Antonio Palopó	9	San Antonio Palopo	9	Septiembre	2023-09-29T00:00:00	2024-11-08T20:00:00	8	Radiación solar	0
10265	7	Sololá	712	San Antonio Palopó	9	San Antonio Palopo	9	Septiembre	2023-09-29T00:00:00	2024-11-08T21:00:00	2	Temperatura media	19.1
10266	7	Sololá	712	San Antonio Palopó	9	San Antonio Palopo	9	Septiembre	2023-09-29T00:00:00	2024-11-08T21:00:00	4	Temperatura máxima	19.2
10267	7	Sololá	712	San Antonio Palopó	9	San Antonio Palopo	9	Septiembre	2023-09-29T00:00:00	2024-11-08T21:00:00	3	Temperatura mínima	18.9
10268	7	Sololá	712	San Antonio Palopó	9	San Antonio Palopo	9	Septiembre	2023-09-29T00:00:00	2024-11-08T21:00:00	5	Humedad	90
10269	7	Sololá	712	San Antonio Palopó	9	San Antonio Palopo	9	Septiembre	2023-09-29T00:00:00	2024-11-08T21:00:00	6	Velocidad del viento	3.2
10270	7	Sololá	712	San Antonio Palopó	9	San Antonio Palopo	9	Septiembre	2023-09-29T00:00:00	2024-11-08T21:00:00	7	Dirección del viento	3.22
10271	7	Sololá	712	San Antonio Palopó	9	San Antonio Palopo	9	Septiembre	2023-09-29T00:00:00	2024-11-08T21:00:00	1	Precipitación	0
10272	7	Sololá	712	San Antonio Palopó	9	San Antonio Palopo	9	Septiembre	2023-09-29T00:00:00	2024-11-08T21:00:00	8	Radiación solar	0
10273	7	Sololá	712	San Antonio Palopó	9	San Antonio Palopo	9	Septiembre	2023-09-29T00:00:00	2024-11-08T22:00:00	2	Temperatura media	19.2
10274	7	Sololá	712	San Antonio Palopó	9	San Antonio Palopo	9	Septiembre	2023-09-29T00:00:00	2024-11-08T22:00:00	4	Temperatura máxima	19.2
10275	7	Sololá	712	San Antonio Palopó	9	San Antonio Palopo	9	Septiembre	2023-09-29T00:00:00	2024-11-08T22:00:00	3	Temperatura mínima	19.1
10276	7	Sololá	712	San Antonio Palopó	9	San Antonio Palopo	9	Septiembre	2023-09-29T00:00:00	2024-11-08T22:00:00	5	Humedad	90
10277	7	Sololá	712	San Antonio Palopó	9	San Antonio Palopo	9	Septiembre	2023-09-29T00:00:00	2024-11-08T22:00:00	6	Velocidad del viento	3.2
10278	7	Sololá	712	San Antonio Palopó	9	San Antonio Palopo	9	Septiembre	2023-09-29T00:00:00	2024-11-08T22:00:00	7	Dirección del viento	3.22
10279	7	Sololá	712	San Antonio Palopó	9	San Antonio Palopo	9	Septiembre	2023-09-29T00:00:00	2024-11-08T22:00:00	1	Precipitación	0
10280	7	Sololá	712	San Antonio Palopó	9	San Antonio Palopo	9	Septiembre	2023-09-29T00:00:00	2024-11-08T22:00:00	8	Radiación solar	0
10281	7	Sololá	712	San Antonio Palopó	9	San Antonio Palopo	9	Septiembre	2023-09-29T00:00:00	2024-11-08T23:00:00	2	Temperatura media	19.3
10282	7	Sololá	712	San Antonio Palopó	9	San Antonio Palopo	9	Septiembre	2023-09-29T00:00:00	2024-11-08T23:00:00	4	Temperatura máxima	19.4
10283	7	Sololá	712	San Antonio Palopó	9	San Antonio Palopo	9	Septiembre	2023-09-29T00:00:00	2024-11-08T23:00:00	3	Temperatura mínima	19.1
10284	7	Sololá	712	San Antonio Palopó	9	San Antonio Palopo	9	Septiembre	2023-09-29T00:00:00	2024-11-08T23:00:00	5	Humedad	89
10285	7	Sololá	712	San Antonio Palopó	9	San Antonio Palopo	9	Septiembre	2023-09-29T00:00:00	2024-11-08T23:00:00	6	Velocidad del viento	3.2
10286	7	Sololá	712	San Antonio Palopó	9	San Antonio Palopo	9	Septiembre	2023-09-29T00:00:00	2024-11-08T23:00:00	7	Dirección del viento	3.22
10287	7	Sololá	712	San Antonio Palopó	9	San Antonio Palopo	9	Septiembre	2023-09-29T00:00:00	2024-11-08T23:00:00	1	Precipitación	0
10288	7	Sololá	712	San Antonio Palopó	9	San Antonio Palopo	9	Septiembre	2023-09-29T00:00:00	2024-11-08T23:00:00	8	Radiación solar	0
10289	7	Sololá	712	San Antonio Palopó	9	San Antonio Palopo	9	Septiembre	2023-09-30T00:00:00	2024-11-08T00:00:00	2	Temperatura media	19.8
10290	7	Sololá	712	San Antonio Palopó	9	San Antonio Palopo	9	Septiembre	2023-09-30T00:00:00	2024-11-08T00:00:00	4	Temperatura máxima	19.8
10291	7	Sololá	712	San Antonio Palopó	9	San Antonio Palopo	9	Septiembre	2023-09-30T00:00:00	2024-11-08T00:00:00	3	Temperatura mínima	19.2
10292	7	Sololá	712	San Antonio Palopó	9	San Antonio Palopo	9	Septiembre	2023-09-30T00:00:00	2024-11-08T00:00:00	5	Humedad	86
10293	7	Sololá	712	San Antonio Palopó	9	San Antonio Palopo	9	Septiembre	2023-09-30T00:00:00	2024-11-08T00:00:00	6	Velocidad del viento	3.2
10294	7	Sololá	712	San Antonio Palopó	9	San Antonio Palopo	9	Septiembre	2023-09-30T00:00:00	2024-11-08T00:00:00	7	Dirección del viento	3.22
10295	7	Sololá	712	San Antonio Palopó	9	San Antonio Palopo	9	Septiembre	2023-09-30T00:00:00	2024-11-08T00:00:00	1	Precipitación	0
10296	7	Sololá	712	San Antonio Palopó	9	San Antonio Palopo	9	Septiembre	2023-09-30T00:00:00	2024-11-08T00:00:00	8	Radiación solar	0
10297	7	Sololá	712	San Antonio Palopó	9	San Antonio Palopo	9	Septiembre	2023-09-30T00:00:00	2024-11-08T01:00:00	2	Temperatura media	20.5
10298	7	Sololá	712	San Antonio Palopó	9	San Antonio Palopo	9	Septiembre	2023-09-30T00:00:00	2024-11-08T01:00:00	4	Temperatura máxima	20.5
10299	7	Sololá	712	San Antonio Palopó	9	San Antonio Palopo	9	Septiembre	2023-09-30T00:00:00	2024-11-08T01:00:00	3	Temperatura mínima	19.4
10300	7	Sololá	712	San Antonio Palopó	9	San Antonio Palopo	9	Septiembre	2023-09-30T00:00:00	2024-11-08T01:00:00	5	Humedad	79
10301	7	Sololá	712	San Antonio Palopó	9	San Antonio Palopo	9	Septiembre	2023-09-30T00:00:00	2024-11-08T01:00:00	6	Velocidad del viento	3.2
10302	7	Sololá	712	San Antonio Palopó	9	San Antonio Palopo	9	Septiembre	2023-09-30T00:00:00	2024-11-08T01:00:00	7	Dirección del viento	3.22
10303	7	Sololá	712	San Antonio Palopó	9	San Antonio Palopo	9	Septiembre	2023-09-30T00:00:00	2024-11-08T01:00:00	1	Precipitación	0
10304	7	Sololá	712	San Antonio Palopó	9	San Antonio Palopo	9	Septiembre	2023-09-30T00:00:00	2024-11-08T01:00:00	8	Radiación solar	0
10305	7	Sololá	712	San Antonio Palopó	9	San Antonio Palopo	9	Septiembre	2023-09-30T00:00:00	2024-11-08T02:00:00	2	Temperatura media	20.5
10306	7	Sololá	712	San Antonio Palopó	9	San Antonio Palopo	9	Septiembre	2023-09-30T00:00:00	2024-11-08T02:00:00	4	Temperatura máxima	20.8
10307	7	Sololá	712	San Antonio Palopó	9	San Antonio Palopo	9	Septiembre	2023-09-30T00:00:00	2024-11-08T02:00:00	3	Temperatura mínima	20.3
10308	7	Sololá	712	San Antonio Palopó	9	San Antonio Palopo	9	Septiembre	2023-09-30T00:00:00	2024-11-08T02:00:00	5	Humedad	78
10309	7	Sololá	712	San Antonio Palopó	9	San Antonio Palopo	9	Septiembre	2023-09-30T00:00:00	2024-11-08T02:00:00	6	Velocidad del viento	6.4
10310	7	Sololá	712	San Antonio Palopó	9	San Antonio Palopo	9	Septiembre	2023-09-30T00:00:00	2024-11-08T02:00:00	7	Dirección del viento	6.44
10311	7	Sololá	712	San Antonio Palopó	9	San Antonio Palopo	9	Septiembre	2023-09-30T00:00:00	2024-11-08T02:00:00	1	Precipitación	0
10312	7	Sololá	712	San Antonio Palopó	9	San Antonio Palopo	9	Septiembre	2023-09-30T00:00:00	2024-11-08T02:00:00	8	Radiación solar	0
10313	7	Sololá	712	San Antonio Palopó	9	San Antonio Palopo	9	Septiembre	2023-09-30T00:00:00	2024-11-08T03:00:00	2	Temperatura media	20.1
10314	7	Sololá	712	San Antonio Palopó	9	San Antonio Palopo	9	Septiembre	2023-09-30T00:00:00	2024-11-08T03:00:00	4	Temperatura máxima	20.5
10315	7	Sololá	712	San Antonio Palopó	9	San Antonio Palopo	9	Septiembre	2023-09-30T00:00:00	2024-11-08T03:00:00	3	Temperatura mínima	20
10316	7	Sololá	712	San Antonio Palopó	9	San Antonio Palopo	9	Septiembre	2023-09-30T00:00:00	2024-11-08T03:00:00	5	Humedad	81
10317	7	Sololá	712	San Antonio Palopó	9	San Antonio Palopo	9	Septiembre	2023-09-30T00:00:00	2024-11-08T03:00:00	6	Velocidad del viento	4.8
10318	7	Sololá	712	San Antonio Palopó	9	San Antonio Palopo	9	Septiembre	2023-09-30T00:00:00	2024-11-08T03:00:00	7	Dirección del viento	4.83
10319	7	Sololá	712	San Antonio Palopó	9	San Antonio Palopo	9	Septiembre	2023-09-30T00:00:00	2024-11-08T03:00:00	1	Precipitación	0
10320	7	Sololá	712	San Antonio Palopó	9	San Antonio Palopo	9	Septiembre	2023-09-30T00:00:00	2024-11-08T03:00:00	8	Radiación solar	0
10321	7	Sololá	712	San Antonio Palopó	9	San Antonio Palopo	9	Septiembre	2023-09-30T00:00:00	2024-11-08T04:00:00	2	Temperatura media	20
10322	7	Sololá	712	San Antonio Palopó	9	San Antonio Palopo	9	Septiembre	2023-09-30T00:00:00	2024-11-08T04:00:00	4	Temperatura máxima	20.4
10323	7	Sololá	712	San Antonio Palopó	9	San Antonio Palopo	9	Septiembre	2023-09-30T00:00:00	2024-11-08T04:00:00	3	Temperatura mínima	19.5
10324	7	Sololá	712	San Antonio Palopó	9	San Antonio Palopo	9	Septiembre	2023-09-30T00:00:00	2024-11-08T04:00:00	5	Humedad	79
10325	7	Sololá	712	San Antonio Palopó	9	San Antonio Palopo	9	Septiembre	2023-09-30T00:00:00	2024-11-08T04:00:00	6	Velocidad del viento	4.8
10326	7	Sololá	712	San Antonio Palopó	9	San Antonio Palopo	9	Septiembre	2023-09-30T00:00:00	2024-11-08T04:00:00	7	Dirección del viento	4.83
10327	7	Sololá	712	San Antonio Palopó	9	San Antonio Palopo	9	Septiembre	2023-09-30T00:00:00	2024-11-08T04:00:00	1	Precipitación	0
10328	7	Sololá	712	San Antonio Palopó	9	San Antonio Palopo	9	Septiembre	2023-09-30T00:00:00	2024-11-08T04:00:00	8	Radiación solar	0
10329	7	Sololá	712	San Antonio Palopó	9	San Antonio Palopo	9	Septiembre	2023-09-30T00:00:00	2024-11-08T05:00:00	2	Temperatura media	20.2
10330	7	Sololá	712	San Antonio Palopó	9	San Antonio Palopo	9	Septiembre	2023-09-30T00:00:00	2024-11-08T05:00:00	4	Temperatura máxima	20.3
10331	7	Sololá	712	San Antonio Palopó	9	San Antonio Palopo	9	Septiembre	2023-09-30T00:00:00	2024-11-08T05:00:00	3	Temperatura mínima	20
10332	7	Sololá	712	San Antonio Palopó	9	San Antonio Palopo	9	Septiembre	2023-09-30T00:00:00	2024-11-08T05:00:00	5	Humedad	78
10333	7	Sololá	712	San Antonio Palopó	9	San Antonio Palopo	9	Septiembre	2023-09-30T00:00:00	2024-11-08T05:00:00	6	Velocidad del viento	8
10334	7	Sololá	712	San Antonio Palopó	9	San Antonio Palopo	9	Septiembre	2023-09-30T00:00:00	2024-11-08T05:00:00	7	Dirección del viento	8.05
10335	7	Sololá	712	San Antonio Palopó	9	San Antonio Palopo	9	Septiembre	2023-09-30T00:00:00	2024-11-08T05:00:00	1	Precipitación	0
10336	7	Sololá	712	San Antonio Palopó	9	San Antonio Palopo	9	Septiembre	2023-09-30T00:00:00	2024-11-08T05:00:00	8	Radiación solar	0
10337	7	Sololá	712	San Antonio Palopó	9	San Antonio Palopo	9	Septiembre	2023-09-30T00:00:00	2024-11-08T06:00:00	2	Temperatura media	19.8
10338	7	Sololá	712	San Antonio Palopó	9	San Antonio Palopo	9	Septiembre	2023-09-30T00:00:00	2024-11-08T06:00:00	4	Temperatura máxima	20.3
10339	7	Sololá	712	San Antonio Palopó	9	San Antonio Palopo	9	Septiembre	2023-09-30T00:00:00	2024-11-08T06:00:00	3	Temperatura mínima	19.8
10340	7	Sololá	712	San Antonio Palopó	9	San Antonio Palopo	9	Septiembre	2023-09-30T00:00:00	2024-11-08T06:00:00	5	Humedad	77
10341	7	Sololá	712	San Antonio Palopó	9	San Antonio Palopo	9	Septiembre	2023-09-30T00:00:00	2024-11-08T06:00:00	6	Velocidad del viento	11.3
10342	7	Sololá	712	San Antonio Palopó	9	San Antonio Palopo	9	Septiembre	2023-09-30T00:00:00	2024-11-08T06:00:00	7	Dirección del viento	11.27
10343	7	Sololá	712	San Antonio Palopó	9	San Antonio Palopo	9	Septiembre	2023-09-30T00:00:00	2024-11-08T06:00:00	1	Precipitación	0
10344	7	Sololá	712	San Antonio Palopó	9	San Antonio Palopo	9	Septiembre	2023-09-30T00:00:00	2024-11-08T06:00:00	8	Radiación solar	0
10345	7	Sololá	712	San Antonio Palopó	9	San Antonio Palopo	9	Septiembre	2023-09-30T00:00:00	2024-11-08T07:00:00	2	Temperatura media	20.3
10346	7	Sololá	712	San Antonio Palopó	9	San Antonio Palopo	9	Septiembre	2023-09-30T00:00:00	2024-11-08T07:00:00	4	Temperatura máxima	20.3
10347	7	Sololá	712	San Antonio Palopó	9	San Antonio Palopo	9	Septiembre	2023-09-30T00:00:00	2024-11-08T07:00:00	3	Temperatura mínima	19.7
10348	7	Sololá	712	San Antonio Palopó	9	San Antonio Palopo	9	Septiembre	2023-09-30T00:00:00	2024-11-08T07:00:00	5	Humedad	77
10349	7	Sololá	712	San Antonio Palopó	9	San Antonio Palopo	9	Septiembre	2023-09-30T00:00:00	2024-11-08T07:00:00	6	Velocidad del viento	9.7
10350	7	Sololá	712	San Antonio Palopó	9	San Antonio Palopo	9	Septiembre	2023-09-30T00:00:00	2024-11-08T07:00:00	7	Dirección del viento	9.66
10351	7	Sololá	712	San Antonio Palopó	9	San Antonio Palopo	9	Septiembre	2023-09-30T00:00:00	2024-11-08T07:00:00	1	Precipitación	0
10352	7	Sololá	712	San Antonio Palopó	9	San Antonio Palopo	9	Septiembre	2023-09-30T00:00:00	2024-11-08T07:00:00	8	Radiación solar	43
10353	7	Sololá	712	San Antonio Palopó	9	San Antonio Palopo	9	Septiembre	2023-09-30T00:00:00	2024-11-08T08:00:00	2	Temperatura media	21.8
10354	7	Sololá	712	San Antonio Palopó	9	San Antonio Palopo	9	Septiembre	2023-09-30T00:00:00	2024-11-08T08:00:00	4	Temperatura máxima	21.8
10355	7	Sololá	712	San Antonio Palopó	9	San Antonio Palopo	9	Septiembre	2023-09-30T00:00:00	2024-11-08T08:00:00	3	Temperatura mínima	20.3
10356	7	Sololá	712	San Antonio Palopó	9	San Antonio Palopo	9	Septiembre	2023-09-30T00:00:00	2024-11-08T08:00:00	5	Humedad	78
10357	7	Sololá	712	San Antonio Palopó	9	San Antonio Palopo	9	Septiembre	2023-09-30T00:00:00	2024-11-08T08:00:00	6	Velocidad del viento	3.2
10358	7	Sololá	712	San Antonio Palopó	9	San Antonio Palopo	9	Septiembre	2023-09-30T00:00:00	2024-11-08T08:00:00	7	Dirección del viento	3.22
10359	7	Sololá	712	San Antonio Palopó	9	San Antonio Palopo	9	Septiembre	2023-09-30T00:00:00	2024-11-08T08:00:00	1	Precipitación	0
10360	7	Sololá	712	San Antonio Palopó	9	San Antonio Palopo	9	Septiembre	2023-09-30T00:00:00	2024-11-08T08:00:00	8	Radiación solar	164
10361	7	Sololá	712	San Antonio Palopó	9	San Antonio Palopo	9	Septiembre	2023-09-30T00:00:00	2024-11-08T09:00:00	2	Temperatura media	22
10362	7	Sololá	712	San Antonio Palopó	9	San Antonio Palopo	9	Septiembre	2023-09-30T00:00:00	2024-11-08T09:00:00	4	Temperatura máxima	22.9
10363	7	Sololá	712	San Antonio Palopó	9	San Antonio Palopo	9	Septiembre	2023-09-30T00:00:00	2024-11-08T09:00:00	3	Temperatura mínima	21.8
10364	7	Sololá	712	San Antonio Palopó	9	San Antonio Palopo	9	Septiembre	2023-09-30T00:00:00	2024-11-08T09:00:00	5	Humedad	76
10365	7	Sololá	712	San Antonio Palopó	9	San Antonio Palopo	9	Septiembre	2023-09-30T00:00:00	2024-11-08T09:00:00	6	Velocidad del viento	3.2
10366	7	Sololá	712	San Antonio Palopó	9	San Antonio Palopo	9	Septiembre	2023-09-30T00:00:00	2024-11-08T09:00:00	7	Dirección del viento	3.22
10367	7	Sololá	712	San Antonio Palopó	9	San Antonio Palopo	9	Septiembre	2023-09-30T00:00:00	2024-11-08T09:00:00	1	Precipitación	0
10368	7	Sololá	712	San Antonio Palopó	9	San Antonio Palopo	9	Septiembre	2023-09-30T00:00:00	2024-11-08T09:00:00	8	Radiación solar	423
10369	7	Sololá	712	San Antonio Palopó	9	San Antonio Palopo	9	Septiembre	2023-09-30T00:00:00	2024-11-08T10:00:00	2	Temperatura media	22.7
10370	7	Sololá	712	San Antonio Palopó	9	San Antonio Palopo	9	Septiembre	2023-09-30T00:00:00	2024-11-08T10:00:00	4	Temperatura máxima	22.8
10371	7	Sololá	712	San Antonio Palopó	9	San Antonio Palopo	9	Septiembre	2023-09-30T00:00:00	2024-11-08T10:00:00	3	Temperatura mínima	21.9
10372	7	Sololá	712	San Antonio Palopó	9	San Antonio Palopo	9	Septiembre	2023-09-30T00:00:00	2024-11-08T10:00:00	5	Humedad	76
10373	7	Sololá	712	San Antonio Palopó	9	San Antonio Palopo	9	Septiembre	2023-09-30T00:00:00	2024-11-08T10:00:00	6	Velocidad del viento	3.2
10374	7	Sololá	712	San Antonio Palopó	9	San Antonio Palopo	9	Septiembre	2023-09-30T00:00:00	2024-11-08T10:00:00	7	Dirección del viento	3.22
10375	7	Sololá	712	San Antonio Palopó	9	San Antonio Palopo	9	Septiembre	2023-09-30T00:00:00	2024-11-08T10:00:00	1	Precipitación	0
10376	7	Sololá	712	San Antonio Palopó	9	San Antonio Palopo	9	Septiembre	2023-09-30T00:00:00	2024-11-08T10:00:00	8	Radiación solar	614
10377	7	Sololá	712	San Antonio Palopó	9	San Antonio Palopo	9	Septiembre	2023-09-30T00:00:00	2024-11-08T11:00:00	2	Temperatura media	23.7
10378	7	Sololá	712	San Antonio Palopó	9	San Antonio Palopo	9	Septiembre	2023-09-30T00:00:00	2024-11-08T11:00:00	4	Temperatura máxima	23.8
10379	7	Sololá	712	San Antonio Palopó	9	San Antonio Palopo	9	Septiembre	2023-09-30T00:00:00	2024-11-08T11:00:00	3	Temperatura mínima	22.6
10380	7	Sololá	712	San Antonio Palopó	9	San Antonio Palopo	9	Septiembre	2023-09-30T00:00:00	2024-11-08T11:00:00	5	Humedad	74
10381	7	Sololá	712	San Antonio Palopó	9	San Antonio Palopo	9	Septiembre	2023-09-30T00:00:00	2024-11-08T11:00:00	6	Velocidad del viento	1.6
10382	7	Sololá	712	San Antonio Palopó	9	San Antonio Palopo	9	Septiembre	2023-09-30T00:00:00	2024-11-08T11:00:00	7	Dirección del viento	1.61
10383	7	Sololá	712	San Antonio Palopó	9	San Antonio Palopo	9	Septiembre	2023-09-30T00:00:00	2024-11-08T11:00:00	1	Precipitación	0
10384	7	Sololá	712	San Antonio Palopó	9	San Antonio Palopo	9	Septiembre	2023-09-30T00:00:00	2024-11-08T11:00:00	8	Radiación solar	439
10385	7	Sololá	712	San Antonio Palopó	9	San Antonio Palopo	9	Septiembre	2023-09-30T00:00:00	2024-11-08T12:00:00	2	Temperatura media	24.3
10386	7	Sololá	712	San Antonio Palopó	9	San Antonio Palopo	9	Septiembre	2023-09-30T00:00:00	2024-11-08T12:00:00	4	Temperatura máxima	25.2
10387	7	Sololá	712	San Antonio Palopó	9	San Antonio Palopo	9	Septiembre	2023-09-30T00:00:00	2024-11-08T12:00:00	3	Temperatura mínima	23.7
10388	7	Sololá	712	San Antonio Palopó	9	San Antonio Palopo	9	Septiembre	2023-09-30T00:00:00	2024-11-08T12:00:00	5	Humedad	74
10389	7	Sololá	712	San Antonio Palopó	9	San Antonio Palopo	9	Septiembre	2023-09-30T00:00:00	2024-11-08T12:00:00	6	Velocidad del viento	6.4
10390	7	Sololá	712	San Antonio Palopó	9	San Antonio Palopo	9	Septiembre	2023-09-30T00:00:00	2024-11-08T12:00:00	7	Dirección del viento	6.44
10391	7	Sololá	712	San Antonio Palopó	9	San Antonio Palopo	9	Septiembre	2023-09-30T00:00:00	2024-11-08T12:00:00	1	Precipitación	0
10392	7	Sololá	712	San Antonio Palopó	9	San Antonio Palopo	9	Septiembre	2023-09-30T00:00:00	2024-11-08T12:00:00	8	Radiación solar	768
10393	7	Sololá	712	San Antonio Palopó	9	San Antonio Palopo	9	Septiembre	2023-09-30T00:00:00	2024-11-08T13:00:00	2	Temperatura media	24.8
10394	7	Sololá	712	San Antonio Palopó	9	San Antonio Palopo	9	Septiembre	2023-09-30T00:00:00	2024-11-08T13:00:00	4	Temperatura máxima	24.9
10395	7	Sololá	712	San Antonio Palopó	9	San Antonio Palopo	9	Septiembre	2023-09-30T00:00:00	2024-11-08T13:00:00	3	Temperatura mínima	23.8
10396	7	Sololá	712	San Antonio Palopó	9	San Antonio Palopo	9	Septiembre	2023-09-30T00:00:00	2024-11-08T13:00:00	5	Humedad	75
10397	7	Sololá	712	San Antonio Palopó	9	San Antonio Palopo	9	Septiembre	2023-09-30T00:00:00	2024-11-08T13:00:00	6	Velocidad del viento	4.8
10398	7	Sololá	712	San Antonio Palopó	9	San Antonio Palopo	9	Septiembre	2023-09-30T00:00:00	2024-11-08T13:00:00	7	Dirección del viento	4.83
10399	7	Sololá	712	San Antonio Palopó	9	San Antonio Palopo	9	Septiembre	2023-09-30T00:00:00	2024-11-08T13:00:00	1	Precipitación	0
10400	7	Sololá	712	San Antonio Palopó	9	San Antonio Palopo	9	Septiembre	2023-09-30T00:00:00	2024-11-08T13:00:00	8	Radiación solar	488
10401	7	Sololá	712	San Antonio Palopó	9	San Antonio Palopo	9	Septiembre	2023-09-30T00:00:00	2024-11-08T14:00:00	2	Temperatura media	23.4
10402	7	Sololá	712	San Antonio Palopó	9	San Antonio Palopo	9	Septiembre	2023-09-30T00:00:00	2024-11-08T14:00:00	4	Temperatura máxima	24.8
10403	7	Sololá	712	San Antonio Palopó	9	San Antonio Palopo	9	Septiembre	2023-09-30T00:00:00	2024-11-08T14:00:00	3	Temperatura mínima	23.3
10404	7	Sololá	712	San Antonio Palopó	9	San Antonio Palopo	9	Septiembre	2023-09-30T00:00:00	2024-11-08T14:00:00	5	Humedad	77
10405	7	Sololá	712	San Antonio Palopó	9	San Antonio Palopo	9	Septiembre	2023-09-30T00:00:00	2024-11-08T14:00:00	6	Velocidad del viento	12.9
10406	7	Sololá	712	San Antonio Palopó	9	San Antonio Palopo	9	Septiembre	2023-09-30T00:00:00	2024-11-08T14:00:00	7	Dirección del viento	12.87
10407	7	Sololá	712	San Antonio Palopó	9	San Antonio Palopo	9	Septiembre	2023-09-30T00:00:00	2024-11-08T14:00:00	1	Precipitación	0
10408	7	Sololá	712	San Antonio Palopó	9	San Antonio Palopo	9	Septiembre	2023-09-30T00:00:00	2024-11-08T14:00:00	8	Radiación solar	635
10409	7	Sololá	712	San Antonio Palopó	9	San Antonio Palopo	9	Septiembre	2023-09-30T00:00:00	2024-11-08T15:00:00	2	Temperatura media	22.6
10410	7	Sololá	712	San Antonio Palopó	9	San Antonio Palopo	9	Septiembre	2023-09-30T00:00:00	2024-11-08T15:00:00	4	Temperatura máxima	23.6
10411	7	Sololá	712	San Antonio Palopó	9	San Antonio Palopo	9	Septiembre	2023-09-30T00:00:00	2024-11-08T15:00:00	3	Temperatura mínima	22.6
10412	7	Sololá	712	San Antonio Palopó	9	San Antonio Palopo	9	Septiembre	2023-09-30T00:00:00	2024-11-08T15:00:00	5	Humedad	81
10413	7	Sololá	712	San Antonio Palopó	9	San Antonio Palopo	9	Septiembre	2023-09-30T00:00:00	2024-11-08T15:00:00	6	Velocidad del viento	8
10414	7	Sololá	712	San Antonio Palopó	9	San Antonio Palopo	9	Septiembre	2023-09-30T00:00:00	2024-11-08T15:00:00	7	Dirección del viento	8.05
10415	7	Sololá	712	San Antonio Palopó	9	San Antonio Palopo	9	Septiembre	2023-09-30T00:00:00	2024-11-08T15:00:00	1	Precipitación	0
10416	7	Sololá	712	San Antonio Palopó	9	San Antonio Palopo	9	Septiembre	2023-09-30T00:00:00	2024-11-08T15:00:00	8	Radiación solar	210
10417	7	Sololá	712	San Antonio Palopó	9	San Antonio Palopo	9	Septiembre	2023-09-30T00:00:00	2024-11-08T16:00:00	2	Temperatura media	21.2
10418	7	Sololá	712	San Antonio Palopó	9	San Antonio Palopo	9	Septiembre	2023-09-30T00:00:00	2024-11-08T16:00:00	4	Temperatura máxima	22.6
10419	7	Sololá	712	San Antonio Palopó	9	San Antonio Palopo	9	Septiembre	2023-09-30T00:00:00	2024-11-08T16:00:00	3	Temperatura mínima	21
10420	7	Sololá	712	San Antonio Palopó	9	San Antonio Palopo	9	Septiembre	2023-09-30T00:00:00	2024-11-08T16:00:00	5	Humedad	85
10421	7	Sololá	712	San Antonio Palopó	9	San Antonio Palopo	9	Septiembre	2023-09-30T00:00:00	2024-11-08T16:00:00	6	Velocidad del viento	6.4
10422	7	Sololá	712	San Antonio Palopó	9	San Antonio Palopo	9	Septiembre	2023-09-30T00:00:00	2024-11-08T16:00:00	7	Dirección del viento	6.44
10423	7	Sololá	712	San Antonio Palopó	9	San Antonio Palopo	9	Septiembre	2023-09-30T00:00:00	2024-11-08T16:00:00	1	Precipitación	0.6
10424	7	Sololá	712	San Antonio Palopó	9	San Antonio Palopo	9	Septiembre	2023-09-30T00:00:00	2024-11-08T16:00:00	8	Radiación solar	70
10425	7	Sololá	712	San Antonio Palopó	9	San Antonio Palopo	9	Septiembre	2023-09-30T00:00:00	2024-11-08T17:00:00	2	Temperatura media	21.6
10426	7	Sololá	712	San Antonio Palopó	9	San Antonio Palopo	9	Septiembre	2023-09-30T00:00:00	2024-11-08T17:00:00	4	Temperatura máxima	21.7
10427	7	Sololá	712	San Antonio Palopó	9	San Antonio Palopo	9	Septiembre	2023-09-30T00:00:00	2024-11-08T17:00:00	3	Temperatura mínima	21.2
10428	7	Sololá	712	San Antonio Palopó	9	San Antonio Palopo	9	Septiembre	2023-09-30T00:00:00	2024-11-08T17:00:00	5	Humedad	85
10429	7	Sololá	712	San Antonio Palopó	9	San Antonio Palopo	9	Septiembre	2023-09-30T00:00:00	2024-11-08T17:00:00	6	Velocidad del viento	1.6
10430	7	Sololá	712	San Antonio Palopó	9	San Antonio Palopo	9	Septiembre	2023-09-30T00:00:00	2024-11-08T17:00:00	7	Dirección del viento	1.61
10431	7	Sololá	712	San Antonio Palopó	9	San Antonio Palopo	9	Septiembre	2023-09-30T00:00:00	2024-11-08T17:00:00	1	Precipitación	0
10432	7	Sololá	712	San Antonio Palopó	9	San Antonio Palopo	9	Septiembre	2023-09-30T00:00:00	2024-11-08T17:00:00	8	Radiación solar	95
10433	7	Sololá	712	San Antonio Palopó	9	San Antonio Palopo	9	Septiembre	2023-09-30T00:00:00	2024-11-08T18:00:00	2	Temperatura media	21.2
10434	7	Sololá	712	San Antonio Palopó	9	San Antonio Palopo	9	Septiembre	2023-09-30T00:00:00	2024-11-08T18:00:00	4	Temperatura máxima	21.7
10435	7	Sololá	712	San Antonio Palopó	9	San Antonio Palopo	9	Septiembre	2023-09-30T00:00:00	2024-11-08T18:00:00	3	Temperatura mínima	21.2
10436	7	Sololá	712	San Antonio Palopó	9	San Antonio Palopo	9	Septiembre	2023-09-30T00:00:00	2024-11-08T18:00:00	5	Humedad	87
10437	7	Sololá	712	San Antonio Palopó	9	San Antonio Palopo	9	Septiembre	2023-09-30T00:00:00	2024-11-08T18:00:00	6	Velocidad del viento	3.2
10438	7	Sololá	712	San Antonio Palopó	9	San Antonio Palopo	9	Septiembre	2023-09-30T00:00:00	2024-11-08T18:00:00	7	Dirección del viento	3.22
10439	7	Sololá	712	San Antonio Palopó	9	San Antonio Palopo	9	Septiembre	2023-09-30T00:00:00	2024-11-08T18:00:00	1	Precipitación	0
10440	7	Sololá	712	San Antonio Palopó	9	San Antonio Palopo	9	Septiembre	2023-09-30T00:00:00	2024-11-08T18:00:00	8	Radiación solar	16
10441	7	Sololá	712	San Antonio Palopó	9	San Antonio Palopo	9	Septiembre	2023-09-30T00:00:00	2024-11-08T19:00:00	2	Temperatura media	21.1
10442	7	Sololá	712	San Antonio Palopó	9	San Antonio Palopo	9	Septiembre	2023-09-30T00:00:00	2024-11-08T19:00:00	4	Temperatura máxima	21.2
10443	7	Sololá	712	San Antonio Palopó	9	San Antonio Palopo	9	Septiembre	2023-09-30T00:00:00	2024-11-08T19:00:00	3	Temperatura mínima	21.1
10444	7	Sololá	712	San Antonio Palopó	9	San Antonio Palopo	9	Septiembre	2023-09-30T00:00:00	2024-11-08T19:00:00	5	Humedad	84
10445	7	Sololá	712	San Antonio Palopó	9	San Antonio Palopo	9	Septiembre	2023-09-30T00:00:00	2024-11-08T19:00:00	6	Velocidad del viento	3.2
10446	7	Sololá	712	San Antonio Palopó	9	San Antonio Palopo	9	Septiembre	2023-09-30T00:00:00	2024-11-08T19:00:00	7	Dirección del viento	3.22
10447	7	Sololá	712	San Antonio Palopó	9	San Antonio Palopo	9	Septiembre	2023-09-30T00:00:00	2024-11-08T19:00:00	1	Precipitación	0
10448	7	Sololá	712	San Antonio Palopó	9	San Antonio Palopo	9	Septiembre	2023-09-30T00:00:00	2024-11-08T19:00:00	8	Radiación solar	0
10449	7	Sololá	712	San Antonio Palopó	9	San Antonio Palopo	9	Septiembre	2023-09-30T00:00:00	2024-11-08T20:00:00	2	Temperatura media	19.8
10450	7	Sololá	712	San Antonio Palopó	9	San Antonio Palopo	9	Septiembre	2023-09-30T00:00:00	2024-11-08T20:00:00	4	Temperatura máxima	21.1
10451	7	Sololá	712	San Antonio Palopó	9	San Antonio Palopo	9	Septiembre	2023-09-30T00:00:00	2024-11-08T20:00:00	3	Temperatura mínima	19.4
10452	7	Sololá	712	San Antonio Palopó	9	San Antonio Palopo	9	Septiembre	2023-09-30T00:00:00	2024-11-08T20:00:00	5	Humedad	91
10453	7	Sololá	712	San Antonio Palopó	9	San Antonio Palopo	9	Septiembre	2023-09-30T00:00:00	2024-11-08T20:00:00	6	Velocidad del viento	6.4
10454	7	Sololá	712	San Antonio Palopó	9	San Antonio Palopo	9	Septiembre	2023-09-30T00:00:00	2024-11-08T20:00:00	7	Dirección del viento	6.44
10455	7	Sololá	712	San Antonio Palopó	9	San Antonio Palopo	9	Septiembre	2023-09-30T00:00:00	2024-11-08T20:00:00	1	Precipitación	0
10456	7	Sololá	712	San Antonio Palopó	9	San Antonio Palopo	9	Septiembre	2023-09-30T00:00:00	2024-11-08T20:00:00	8	Radiación solar	0
10457	7	Sololá	712	San Antonio Palopó	9	San Antonio Palopo	9	Septiembre	2023-09-30T00:00:00	2024-11-08T21:00:00	2	Temperatura media	20.3
10458	7	Sololá	712	San Antonio Palopó	9	San Antonio Palopo	9	Septiembre	2023-09-30T00:00:00	2024-11-08T21:00:00	4	Temperatura máxima	20.4
10459	7	Sololá	712	San Antonio Palopó	9	San Antonio Palopo	9	Septiembre	2023-09-30T00:00:00	2024-11-08T21:00:00	3	Temperatura mínima	19.7
10460	7	Sololá	712	San Antonio Palopó	9	San Antonio Palopo	9	Septiembre	2023-09-30T00:00:00	2024-11-08T21:00:00	5	Humedad	86
10461	7	Sololá	712	San Antonio Palopó	9	San Antonio Palopo	9	Septiembre	2023-09-30T00:00:00	2024-11-08T21:00:00	6	Velocidad del viento	3.2
10462	7	Sololá	712	San Antonio Palopó	9	San Antonio Palopo	9	Septiembre	2023-09-30T00:00:00	2024-11-08T21:00:00	7	Dirección del viento	3.22
10463	7	Sololá	712	San Antonio Palopó	9	San Antonio Palopo	9	Septiembre	2023-09-30T00:00:00	2024-11-08T21:00:00	1	Precipitación	0
10464	7	Sololá	712	San Antonio Palopó	9	San Antonio Palopo	9	Septiembre	2023-09-30T00:00:00	2024-11-08T21:00:00	8	Radiación solar	0
10465	7	Sololá	712	San Antonio Palopó	9	San Antonio Palopo	9	Septiembre	2023-09-30T00:00:00	2024-11-08T22:00:00	2	Temperatura media	20.5
10466	7	Sololá	712	San Antonio Palopó	9	San Antonio Palopo	9	Septiembre	2023-09-30T00:00:00	2024-11-08T22:00:00	4	Temperatura máxima	20.5
10467	7	Sololá	712	San Antonio Palopó	9	San Antonio Palopo	9	Septiembre	2023-09-30T00:00:00	2024-11-08T22:00:00	3	Temperatura mínima	19.9
10468	7	Sololá	712	San Antonio Palopó	9	San Antonio Palopo	9	Septiembre	2023-09-30T00:00:00	2024-11-08T22:00:00	5	Humedad	78
10469	7	Sololá	712	San Antonio Palopó	9	San Antonio Palopo	9	Septiembre	2023-09-30T00:00:00	2024-11-08T22:00:00	6	Velocidad del viento	3.2
10470	7	Sololá	712	San Antonio Palopó	9	San Antonio Palopo	9	Septiembre	2023-09-30T00:00:00	2024-11-08T22:00:00	7	Dirección del viento	3.22
10471	7	Sololá	712	San Antonio Palopó	9	San Antonio Palopo	9	Septiembre	2023-09-30T00:00:00	2024-11-08T22:00:00	1	Precipitación	0
10472	7	Sololá	712	San Antonio Palopó	9	San Antonio Palopo	9	Septiembre	2023-09-30T00:00:00	2024-11-08T22:00:00	8	Radiación solar	0
10473	7	Sololá	712	San Antonio Palopó	9	San Antonio Palopo	9	Septiembre	2023-09-30T00:00:00	2024-11-08T23:00:00	2	Temperatura media	20.6
10474	7	Sololá	712	San Antonio Palopó	9	San Antonio Palopo	9	Septiembre	2023-09-30T00:00:00	2024-11-08T23:00:00	4	Temperatura máxima	21
10475	7	Sololá	712	San Antonio Palopó	9	San Antonio Palopo	9	Septiembre	2023-09-30T00:00:00	2024-11-08T23:00:00	3	Temperatura mínima	20.4
10476	7	Sololá	712	San Antonio Palopó	9	San Antonio Palopo	9	Septiembre	2023-09-30T00:00:00	2024-11-08T23:00:00	5	Humedad	77
10477	7	Sololá	712	San Antonio Palopó	9	San Antonio Palopo	9	Septiembre	2023-09-30T00:00:00	2024-11-08T23:00:00	6	Velocidad del viento	9.7
10478	7	Sololá	712	San Antonio Palopó	9	San Antonio Palopo	9	Septiembre	2023-09-30T00:00:00	2024-11-08T23:00:00	7	Dirección del viento	9.66
10479	7	Sololá	712	San Antonio Palopó	9	San Antonio Palopo	9	Septiembre	2023-09-30T00:00:00	2024-11-08T23:00:00	1	Precipitación	0
10480	7	Sololá	712	San Antonio Palopó	9	San Antonio Palopo	9	Septiembre	2023-09-30T00:00:00	2024-11-08T23:00:00	8	Radiación solar	0
10481	7	Sololá	712	San Antonio Palopó	9	San Antonio Palopo	10	Octubre	2023-01-10T00:00:00	2024-11-08T00:00:00	2	Temperatura media	20.8
10482	7	Sololá	712	San Antonio Palopó	9	San Antonio Palopo	10	Octubre	2023-01-10T00:00:00	2024-11-08T00:00:00	4	Temperatura máxima	20.9
10483	7	Sololá	712	San Antonio Palopó	9	San Antonio Palopo	10	Octubre	2023-01-10T00:00:00	2024-11-08T00:00:00	3	Temperatura mínima	20.3
10484	7	Sololá	712	San Antonio Palopó	9	San Antonio Palopo	10	Octubre	2023-01-10T00:00:00	2024-11-08T00:00:00	5	Humedad	75
10485	7	Sololá	712	San Antonio Palopó	9	San Antonio Palopo	10	Octubre	2023-01-10T00:00:00	2024-11-08T00:00:00	6	Velocidad del viento	8
10486	7	Sololá	712	San Antonio Palopó	9	San Antonio Palopo	10	Octubre	2023-01-10T00:00:00	2024-11-08T00:00:00	7	Dirección del viento	8.05
10487	7	Sololá	712	San Antonio Palopó	9	San Antonio Palopo	10	Octubre	2023-01-10T00:00:00	2024-11-08T00:00:00	1	Precipitación	0
10488	7	Sololá	712	San Antonio Palopó	9	San Antonio Palopo	10	Octubre	2023-01-10T00:00:00	2024-11-08T00:00:00	8	Radiación solar	0
10489	7	Sololá	712	San Antonio Palopó	9	San Antonio Palopo	10	Octubre	2023-01-10T00:00:00	2024-11-08T01:00:00	2	Temperatura media	20.6
10490	7	Sololá	712	San Antonio Palopó	9	San Antonio Palopo	10	Octubre	2023-01-10T00:00:00	2024-11-08T01:00:00	4	Temperatura máxima	20.9
10491	7	Sololá	712	San Antonio Palopó	9	San Antonio Palopo	10	Octubre	2023-01-10T00:00:00	2024-11-08T01:00:00	3	Temperatura mínima	20.6
10492	7	Sololá	712	San Antonio Palopó	9	San Antonio Palopo	10	Octubre	2023-01-10T00:00:00	2024-11-08T01:00:00	5	Humedad	75
10493	7	Sololá	712	San Antonio Palopó	9	San Antonio Palopo	10	Octubre	2023-01-10T00:00:00	2024-11-08T01:00:00	6	Velocidad del viento	11.3
10494	7	Sololá	712	San Antonio Palopó	9	San Antonio Palopo	10	Octubre	2023-01-10T00:00:00	2024-11-08T01:00:00	7	Dirección del viento	11.27
10495	7	Sololá	712	San Antonio Palopó	9	San Antonio Palopo	10	Octubre	2023-01-10T00:00:00	2024-11-08T01:00:00	1	Precipitación	0
10496	7	Sololá	712	San Antonio Palopó	9	San Antonio Palopo	10	Octubre	2023-01-10T00:00:00	2024-11-08T01:00:00	8	Radiación solar	0
10497	7	Sololá	712	San Antonio Palopó	9	San Antonio Palopo	10	Octubre	2023-01-10T00:00:00	2024-11-08T02:00:00	2	Temperatura media	20.2
10498	7	Sololá	712	San Antonio Palopó	9	San Antonio Palopo	10	Octubre	2023-01-10T00:00:00	2024-11-08T02:00:00	4	Temperatura máxima	20.6
10499	7	Sololá	712	San Antonio Palopó	9	San Antonio Palopo	10	Octubre	2023-01-10T00:00:00	2024-11-08T02:00:00	3	Temperatura mínima	20.1
10500	7	Sololá	712	San Antonio Palopó	9	San Antonio Palopo	10	Octubre	2023-01-10T00:00:00	2024-11-08T02:00:00	5	Humedad	75
10501	7	Sololá	712	San Antonio Palopó	9	San Antonio Palopo	10	Octubre	2023-01-10T00:00:00	2024-11-08T02:00:00	6	Velocidad del viento	9.7
10502	7	Sololá	712	San Antonio Palopó	9	San Antonio Palopo	10	Octubre	2023-01-10T00:00:00	2024-11-08T02:00:00	7	Dirección del viento	9.66
10503	7	Sololá	712	San Antonio Palopó	9	San Antonio Palopo	10	Octubre	2023-01-10T00:00:00	2024-11-08T02:00:00	1	Precipitación	0
10504	7	Sololá	712	San Antonio Palopó	9	San Antonio Palopo	10	Octubre	2023-01-10T00:00:00	2024-11-08T02:00:00	8	Radiación solar	0
10505	7	Sololá	712	San Antonio Palopó	9	San Antonio Palopo	10	Octubre	2023-01-10T00:00:00	2024-11-08T03:00:00	2	Temperatura media	20
10506	7	Sololá	712	San Antonio Palopó	9	San Antonio Palopo	10	Octubre	2023-01-10T00:00:00	2024-11-08T03:00:00	4	Temperatura máxima	20.3
10507	7	Sololá	712	San Antonio Palopó	9	San Antonio Palopo	10	Octubre	2023-01-10T00:00:00	2024-11-08T03:00:00	3	Temperatura mínima	19.9
10508	7	Sololá	712	San Antonio Palopó	9	San Antonio Palopo	10	Octubre	2023-01-10T00:00:00	2024-11-08T03:00:00	5	Humedad	74
10509	7	Sololá	712	San Antonio Palopó	9	San Antonio Palopo	10	Octubre	2023-01-10T00:00:00	2024-11-08T03:00:00	6	Velocidad del viento	14.5
10510	7	Sololá	712	San Antonio Palopó	9	San Antonio Palopo	10	Octubre	2023-01-10T00:00:00	2024-11-08T03:00:00	7	Dirección del viento	14.48
10511	7	Sololá	712	San Antonio Palopó	9	San Antonio Palopo	10	Octubre	2023-01-10T00:00:00	2024-11-08T03:00:00	1	Precipitación	0
10512	7	Sololá	712	San Antonio Palopó	9	San Antonio Palopo	10	Octubre	2023-01-10T00:00:00	2024-11-08T03:00:00	8	Radiación solar	0
10513	7	Sololá	712	San Antonio Palopó	9	San Antonio Palopo	10	Octubre	2023-01-10T00:00:00	2024-11-08T04:00:00	2	Temperatura media	19.8
10514	7	Sololá	712	San Antonio Palopó	9	San Antonio Palopo	10	Octubre	2023-01-10T00:00:00	2024-11-08T04:00:00	4	Temperatura máxima	20
10515	7	Sololá	712	San Antonio Palopó	9	San Antonio Palopo	10	Octubre	2023-01-10T00:00:00	2024-11-08T04:00:00	3	Temperatura mínima	19.7
10516	7	Sololá	712	San Antonio Palopó	9	San Antonio Palopo	10	Octubre	2023-01-10T00:00:00	2024-11-08T04:00:00	5	Humedad	74
10517	7	Sololá	712	San Antonio Palopó	9	San Antonio Palopo	10	Octubre	2023-01-10T00:00:00	2024-11-08T04:00:00	6	Velocidad del viento	12.9
10518	7	Sololá	712	San Antonio Palopó	9	San Antonio Palopo	10	Octubre	2023-01-10T00:00:00	2024-11-08T04:00:00	7	Dirección del viento	12.87
10519	7	Sololá	712	San Antonio Palopó	9	San Antonio Palopo	10	Octubre	2023-01-10T00:00:00	2024-11-08T04:00:00	1	Precipitación	0
10520	7	Sololá	712	San Antonio Palopó	9	San Antonio Palopo	10	Octubre	2023-01-10T00:00:00	2024-11-08T04:00:00	8	Radiación solar	0
10521	7	Sololá	712	San Antonio Palopó	9	San Antonio Palopo	10	Octubre	2023-01-10T00:00:00	2024-11-08T05:00:00	2	Temperatura media	19.6
10522	7	Sololá	712	San Antonio Palopó	9	San Antonio Palopo	10	Octubre	2023-01-10T00:00:00	2024-11-08T05:00:00	4	Temperatura máxima	20
10523	7	Sololá	712	San Antonio Palopó	9	San Antonio Palopo	10	Octubre	2023-01-10T00:00:00	2024-11-08T05:00:00	3	Temperatura mínima	19.6
10524	7	Sololá	712	San Antonio Palopó	9	San Antonio Palopo	10	Octubre	2023-01-10T00:00:00	2024-11-08T05:00:00	5	Humedad	74
10525	7	Sololá	712	San Antonio Palopó	9	San Antonio Palopo	10	Octubre	2023-01-10T00:00:00	2024-11-08T05:00:00	6	Velocidad del viento	11.3
10526	7	Sololá	712	San Antonio Palopó	9	San Antonio Palopo	10	Octubre	2023-01-10T00:00:00	2024-11-08T05:00:00	7	Dirección del viento	11.27
10527	7	Sololá	712	San Antonio Palopó	9	San Antonio Palopo	10	Octubre	2023-01-10T00:00:00	2024-11-08T05:00:00	1	Precipitación	0
10528	7	Sololá	712	San Antonio Palopó	9	San Antonio Palopo	10	Octubre	2023-01-10T00:00:00	2024-11-08T05:00:00	8	Radiación solar	0
10529	7	Sololá	712	San Antonio Palopó	9	San Antonio Palopo	10	Octubre	2023-01-10T00:00:00	2024-11-08T06:00:00	2	Temperatura media	19.3
10530	7	Sololá	712	San Antonio Palopó	9	San Antonio Palopo	10	Octubre	2023-01-10T00:00:00	2024-11-08T06:00:00	4	Temperatura máxima	19.6
10531	7	Sololá	712	San Antonio Palopó	9	San Antonio Palopo	10	Octubre	2023-01-10T00:00:00	2024-11-08T06:00:00	3	Temperatura mínima	19.3
10532	7	Sololá	712	San Antonio Palopó	9	San Antonio Palopo	10	Octubre	2023-01-10T00:00:00	2024-11-08T06:00:00	5	Humedad	74
10533	7	Sololá	712	San Antonio Palopó	9	San Antonio Palopo	10	Octubre	2023-01-10T00:00:00	2024-11-08T06:00:00	6	Velocidad del viento	11.3
10534	7	Sololá	712	San Antonio Palopó	9	San Antonio Palopo	10	Octubre	2023-01-10T00:00:00	2024-11-08T06:00:00	7	Dirección del viento	11.27
10535	7	Sololá	712	San Antonio Palopó	9	San Antonio Palopo	10	Octubre	2023-01-10T00:00:00	2024-11-08T06:00:00	1	Precipitación	0
10536	7	Sololá	712	San Antonio Palopó	9	San Antonio Palopo	10	Octubre	2023-01-10T00:00:00	2024-11-08T06:00:00	8	Radiación solar	0
10537	7	Sololá	712	San Antonio Palopó	9	San Antonio Palopo	10	Octubre	2023-01-10T00:00:00	2024-11-08T07:00:00	2	Temperatura media	19.6
10538	7	Sololá	712	San Antonio Palopó	9	San Antonio Palopo	10	Octubre	2023-01-10T00:00:00	2024-11-08T07:00:00	4	Temperatura máxima	19.7
10539	7	Sololá	712	San Antonio Palopó	9	San Antonio Palopo	10	Octubre	2023-01-10T00:00:00	2024-11-08T07:00:00	3	Temperatura mínima	19.4
10540	7	Sololá	712	San Antonio Palopó	9	San Antonio Palopo	10	Octubre	2023-01-10T00:00:00	2024-11-08T07:00:00	5	Humedad	73
10541	7	Sololá	712	San Antonio Palopó	9	San Antonio Palopo	10	Octubre	2023-01-10T00:00:00	2024-11-08T07:00:00	6	Velocidad del viento	17.7
10542	7	Sololá	712	San Antonio Palopó	9	San Antonio Palopo	10	Octubre	2023-01-10T00:00:00	2024-11-08T07:00:00	7	Dirección del viento	17.7
10543	7	Sololá	712	San Antonio Palopó	9	San Antonio Palopo	10	Octubre	2023-01-10T00:00:00	2024-11-08T07:00:00	1	Precipitación	0
10544	7	Sololá	712	San Antonio Palopó	9	San Antonio Palopo	10	Octubre	2023-01-10T00:00:00	2024-11-08T07:00:00	8	Radiación solar	24
10545	7	Sololá	712	San Antonio Palopó	9	San Antonio Palopo	10	Octubre	2023-01-10T00:00:00	2024-11-08T08:00:00	2	Temperatura media	21.2
10546	7	Sololá	712	San Antonio Palopó	9	San Antonio Palopo	10	Octubre	2023-01-10T00:00:00	2024-11-08T08:00:00	4	Temperatura máxima	21.2
10547	7	Sololá	712	San Antonio Palopó	9	San Antonio Palopo	10	Octubre	2023-01-10T00:00:00	2024-11-08T08:00:00	3	Temperatura mínima	19.6
10548	7	Sololá	712	San Antonio Palopó	9	San Antonio Palopo	10	Octubre	2023-01-10T00:00:00	2024-11-08T08:00:00	5	Humedad	69
10549	7	Sololá	712	San Antonio Palopó	9	San Antonio Palopo	10	Octubre	2023-01-10T00:00:00	2024-11-08T08:00:00	6	Velocidad del viento	12.9
10550	7	Sololá	712	San Antonio Palopó	9	San Antonio Palopo	10	Octubre	2023-01-10T00:00:00	2024-11-08T08:00:00	7	Dirección del viento	12.87
10551	7	Sololá	712	San Antonio Palopó	9	San Antonio Palopo	10	Octubre	2023-01-10T00:00:00	2024-11-08T08:00:00	1	Precipitación	0
10552	7	Sololá	712	San Antonio Palopó	9	San Antonio Palopo	10	Octubre	2023-01-10T00:00:00	2024-11-08T08:00:00	8	Radiación solar	142
10553	7	Sololá	712	San Antonio Palopó	9	San Antonio Palopo	10	Octubre	2023-01-10T00:00:00	2024-11-08T09:00:00	2	Temperatura media	22.2
10554	7	Sololá	712	San Antonio Palopó	9	San Antonio Palopo	10	Octubre	2023-01-10T00:00:00	2024-11-08T09:00:00	4	Temperatura máxima	22.2
10555	7	Sololá	712	San Antonio Palopó	9	San Antonio Palopo	10	Octubre	2023-01-10T00:00:00	2024-11-08T09:00:00	3	Temperatura mínima	21.2
10556	7	Sololá	712	San Antonio Palopó	9	San Antonio Palopo	10	Octubre	2023-01-10T00:00:00	2024-11-08T09:00:00	5	Humedad	69
10557	7	Sololá	712	San Antonio Palopó	9	San Antonio Palopo	10	Octubre	2023-01-10T00:00:00	2024-11-08T09:00:00	6	Velocidad del viento	8
10558	7	Sololá	712	San Antonio Palopó	9	San Antonio Palopo	10	Octubre	2023-01-10T00:00:00	2024-11-08T09:00:00	7	Dirección del viento	8.05
10559	7	Sololá	712	San Antonio Palopó	9	San Antonio Palopo	10	Octubre	2023-01-10T00:00:00	2024-11-08T09:00:00	1	Precipitación	0
10560	7	Sololá	712	San Antonio Palopó	9	San Antonio Palopo	10	Octubre	2023-01-10T00:00:00	2024-11-08T09:00:00	8	Radiación solar	452
10561	7	Sololá	712	San Antonio Palopó	9	San Antonio Palopo	10	Octubre	2023-01-10T00:00:00	2024-11-08T10:00:00	2	Temperatura media	23.1
10562	7	Sololá	712	San Antonio Palopó	9	San Antonio Palopo	10	Octubre	2023-01-10T00:00:00	2024-11-08T10:00:00	4	Temperatura máxima	23.1
10563	7	Sololá	712	San Antonio Palopó	9	San Antonio Palopo	10	Octubre	2023-01-10T00:00:00	2024-11-08T10:00:00	3	Temperatura mínima	22.2
10564	7	Sololá	712	San Antonio Palopó	9	San Antonio Palopo	10	Octubre	2023-01-10T00:00:00	2024-11-08T10:00:00	5	Humedad	65
10565	7	Sololá	712	San Antonio Palopó	9	San Antonio Palopo	10	Octubre	2023-01-10T00:00:00	2024-11-08T10:00:00	6	Velocidad del viento	3.2
10566	7	Sololá	712	San Antonio Palopó	9	San Antonio Palopo	10	Octubre	2023-01-10T00:00:00	2024-11-08T10:00:00	7	Dirección del viento	3.22
10567	7	Sololá	712	San Antonio Palopó	9	San Antonio Palopo	10	Octubre	2023-01-10T00:00:00	2024-11-08T10:00:00	1	Precipitación	0
10568	7	Sololá	712	San Antonio Palopó	9	San Antonio Palopo	10	Octubre	2023-01-10T00:00:00	2024-11-08T10:00:00	8	Radiación solar	710
10569	7	Sololá	712	San Antonio Palopó	9	San Antonio Palopo	10	Octubre	2023-01-10T00:00:00	2024-11-08T11:00:00	2	Temperatura media	23.7
10570	7	Sololá	712	San Antonio Palopó	9	San Antonio Palopo	10	Octubre	2023-01-10T00:00:00	2024-11-08T11:00:00	4	Temperatura máxima	24
10571	7	Sololá	712	San Antonio Palopó	9	San Antonio Palopo	10	Octubre	2023-01-10T00:00:00	2024-11-08T11:00:00	3	Temperatura mínima	23.1
10572	7	Sololá	712	San Antonio Palopó	9	San Antonio Palopo	10	Octubre	2023-01-10T00:00:00	2024-11-08T11:00:00	5	Humedad	74
10573	7	Sololá	712	San Antonio Palopó	9	San Antonio Palopo	10	Octubre	2023-01-10T00:00:00	2024-11-08T11:00:00	6	Velocidad del viento	4.8
10574	7	Sololá	712	San Antonio Palopó	9	San Antonio Palopo	10	Octubre	2023-01-10T00:00:00	2024-11-08T11:00:00	7	Dirección del viento	4.83
10575	7	Sololá	712	San Antonio Palopó	9	San Antonio Palopo	10	Octubre	2023-01-10T00:00:00	2024-11-08T11:00:00	1	Precipitación	0
10576	7	Sololá	712	San Antonio Palopó	9	San Antonio Palopo	10	Octubre	2023-01-10T00:00:00	2024-11-08T11:00:00	8	Radiación solar	876
10577	7	Sololá	712	San Antonio Palopó	9	San Antonio Palopo	10	Octubre	2023-01-10T00:00:00	2024-11-08T12:00:00	2	Temperatura media	24.4
10578	7	Sololá	712	San Antonio Palopó	9	San Antonio Palopo	10	Octubre	2023-01-10T00:00:00	2024-11-08T12:00:00	4	Temperatura máxima	24.8
10579	7	Sololá	712	San Antonio Palopó	9	San Antonio Palopo	10	Octubre	2023-01-10T00:00:00	2024-11-08T12:00:00	3	Temperatura mínima	23.6
10580	7	Sololá	712	San Antonio Palopó	9	San Antonio Palopo	10	Octubre	2023-01-10T00:00:00	2024-11-08T12:00:00	5	Humedad	73
10581	7	Sololá	712	San Antonio Palopó	9	San Antonio Palopo	10	Octubre	2023-01-10T00:00:00	2024-11-08T12:00:00	6	Velocidad del viento	4.8
10582	7	Sololá	712	San Antonio Palopó	9	San Antonio Palopo	10	Octubre	2023-01-10T00:00:00	2024-11-08T12:00:00	7	Dirección del viento	4.83
10583	7	Sololá	712	San Antonio Palopó	9	San Antonio Palopo	10	Octubre	2023-01-10T00:00:00	2024-11-08T12:00:00	1	Precipitación	0
10584	7	Sololá	712	San Antonio Palopó	9	San Antonio Palopo	10	Octubre	2023-01-10T00:00:00	2024-11-08T12:00:00	8	Radiación solar	710
10585	7	Sololá	712	San Antonio Palopó	9	San Antonio Palopo	10	Octubre	2023-01-10T00:00:00	2024-11-08T13:00:00	2	Temperatura media	24.5
10586	7	Sololá	712	San Antonio Palopó	9	San Antonio Palopo	10	Octubre	2023-01-10T00:00:00	2024-11-08T13:00:00	4	Temperatura máxima	24.5
10587	7	Sololá	712	San Antonio Palopó	9	San Antonio Palopo	10	Octubre	2023-01-10T00:00:00	2024-11-08T13:00:00	3	Temperatura mínima	23.4
10588	7	Sololá	712	San Antonio Palopó	9	San Antonio Palopo	10	Octubre	2023-01-10T00:00:00	2024-11-08T13:00:00	5	Humedad	75
10589	7	Sololá	712	San Antonio Palopó	9	San Antonio Palopo	10	Octubre	2023-01-10T00:00:00	2024-11-08T13:00:00	6	Velocidad del viento	4.8
10590	7	Sololá	712	San Antonio Palopó	9	San Antonio Palopo	10	Octubre	2023-01-10T00:00:00	2024-11-08T13:00:00	7	Dirección del viento	4.83
10591	7	Sololá	712	San Antonio Palopó	9	San Antonio Palopo	10	Octubre	2023-01-10T00:00:00	2024-11-08T13:00:00	1	Precipitación	0
10592	7	Sololá	712	San Antonio Palopó	9	San Antonio Palopo	10	Octubre	2023-01-10T00:00:00	2024-11-08T13:00:00	8	Radiación solar	389
10593	7	Sololá	712	San Antonio Palopó	9	San Antonio Palopo	10	Octubre	2023-01-10T00:00:00	2024-11-08T14:00:00	2	Temperatura media	24.4
10594	7	Sololá	712	San Antonio Palopó	9	San Antonio Palopo	10	Octubre	2023-01-10T00:00:00	2024-11-08T14:00:00	4	Temperatura máxima	24.6
10595	7	Sololá	712	San Antonio Palopó	9	San Antonio Palopo	10	Octubre	2023-01-10T00:00:00	2024-11-08T14:00:00	3	Temperatura mínima	23.7
10596	7	Sololá	712	San Antonio Palopó	9	San Antonio Palopo	10	Octubre	2023-01-10T00:00:00	2024-11-08T14:00:00	5	Humedad	74
10597	7	Sololá	712	San Antonio Palopó	9	San Antonio Palopo	10	Octubre	2023-01-10T00:00:00	2024-11-08T14:00:00	6	Velocidad del viento	4.8
10598	7	Sololá	712	San Antonio Palopó	9	San Antonio Palopo	10	Octubre	2023-01-10T00:00:00	2024-11-08T14:00:00	7	Dirección del viento	4.83
10599	7	Sololá	712	San Antonio Palopó	9	San Antonio Palopo	10	Octubre	2023-01-10T00:00:00	2024-11-08T14:00:00	1	Precipitación	0
10600	7	Sololá	712	San Antonio Palopó	9	San Antonio Palopo	10	Octubre	2023-01-10T00:00:00	2024-11-08T14:00:00	8	Radiación solar	362
10601	7	Sololá	712	San Antonio Palopó	9	San Antonio Palopo	10	Octubre	2023-01-10T00:00:00	2024-11-08T15:00:00	2	Temperatura media	23.4
10602	7	Sololá	712	San Antonio Palopó	9	San Antonio Palopo	10	Octubre	2023-01-10T00:00:00	2024-11-08T15:00:00	4	Temperatura máxima	24.8
10603	7	Sololá	712	San Antonio Palopó	9	San Antonio Palopo	10	Octubre	2023-01-10T00:00:00	2024-11-08T15:00:00	3	Temperatura mínima	23.2
10604	7	Sololá	712	San Antonio Palopó	9	San Antonio Palopo	10	Octubre	2023-01-10T00:00:00	2024-11-08T15:00:00	5	Humedad	76
10605	7	Sololá	712	San Antonio Palopó	9	San Antonio Palopo	10	Octubre	2023-01-10T00:00:00	2024-11-08T15:00:00	6	Velocidad del viento	9.7
10606	7	Sololá	712	San Antonio Palopó	9	San Antonio Palopo	10	Octubre	2023-01-10T00:00:00	2024-11-08T15:00:00	7	Dirección del viento	9.66
10607	7	Sololá	712	San Antonio Palopó	9	San Antonio Palopo	10	Octubre	2023-01-10T00:00:00	2024-11-08T15:00:00	1	Precipitación	0
10608	7	Sololá	712	San Antonio Palopó	9	San Antonio Palopo	10	Octubre	2023-01-10T00:00:00	2024-11-08T15:00:00	8	Radiación solar	302
10609	7	Sololá	712	San Antonio Palopó	9	San Antonio Palopo	10	Octubre	2023-01-10T00:00:00	2024-11-08T16:00:00	2	Temperatura media	22.8
10610	7	Sololá	712	San Antonio Palopó	9	San Antonio Palopo	10	Octubre	2023-01-10T00:00:00	2024-11-08T16:00:00	4	Temperatura máxima	23.4
10611	7	Sololá	712	San Antonio Palopó	9	San Antonio Palopo	10	Octubre	2023-01-10T00:00:00	2024-11-08T16:00:00	3	Temperatura mínima	22.7
10612	7	Sololá	712	San Antonio Palopó	9	San Antonio Palopo	10	Octubre	2023-01-10T00:00:00	2024-11-08T16:00:00	5	Humedad	78
10613	7	Sololá	712	San Antonio Palopó	9	San Antonio Palopo	10	Octubre	2023-01-10T00:00:00	2024-11-08T16:00:00	6	Velocidad del viento	11.3
10614	7	Sololá	712	San Antonio Palopó	9	San Antonio Palopo	10	Octubre	2023-01-10T00:00:00	2024-11-08T16:00:00	7	Dirección del viento	11.27
10615	7	Sololá	712	San Antonio Palopó	9	San Antonio Palopo	10	Octubre	2023-01-10T00:00:00	2024-11-08T16:00:00	1	Precipitación	0
10616	7	Sololá	712	San Antonio Palopó	9	San Antonio Palopo	10	Octubre	2023-01-10T00:00:00	2024-11-08T16:00:00	8	Radiación solar	228
10617	7	Sololá	712	San Antonio Palopó	9	San Antonio Palopo	10	Octubre	2023-01-10T00:00:00	2024-11-08T17:00:00	2	Temperatura media	21.8
10618	7	Sololá	712	San Antonio Palopó	9	San Antonio Palopo	10	Octubre	2023-01-10T00:00:00	2024-11-08T17:00:00	4	Temperatura máxima	22.8
10619	7	Sololá	712	San Antonio Palopó	9	San Antonio Palopo	10	Octubre	2023-01-10T00:00:00	2024-11-08T17:00:00	3	Temperatura mínima	21.6
10620	7	Sololá	712	San Antonio Palopó	9	San Antonio Palopo	10	Octubre	2023-01-10T00:00:00	2024-11-08T17:00:00	5	Humedad	82
10621	7	Sololá	712	San Antonio Palopó	9	San Antonio Palopo	10	Octubre	2023-01-10T00:00:00	2024-11-08T17:00:00	6	Velocidad del viento	6.4
10622	7	Sololá	712	San Antonio Palopó	9	San Antonio Palopo	10	Octubre	2023-01-10T00:00:00	2024-11-08T17:00:00	7	Dirección del viento	6.44
10623	7	Sololá	712	San Antonio Palopó	9	San Antonio Palopo	10	Octubre	2023-01-10T00:00:00	2024-11-08T17:00:00	1	Precipitación	0
10624	7	Sololá	712	San Antonio Palopó	9	San Antonio Palopo	10	Octubre	2023-01-10T00:00:00	2024-11-08T17:00:00	8	Radiación solar	53
10625	7	Sololá	712	San Antonio Palopó	9	San Antonio Palopo	10	Octubre	2023-01-10T00:00:00	2024-11-08T18:00:00	2	Temperatura media	20.6
10626	7	Sololá	712	San Antonio Palopó	9	San Antonio Palopo	10	Octubre	2023-01-10T00:00:00	2024-11-08T18:00:00	4	Temperatura máxima	22
10627	7	Sololá	712	San Antonio Palopó	9	San Antonio Palopo	10	Octubre	2023-01-10T00:00:00	2024-11-08T18:00:00	3	Temperatura mínima	20.2
10628	7	Sololá	712	San Antonio Palopó	9	San Antonio Palopo	10	Octubre	2023-01-10T00:00:00	2024-11-08T18:00:00	5	Humedad	83
10629	7	Sololá	712	San Antonio Palopó	9	San Antonio Palopo	10	Octubre	2023-01-10T00:00:00	2024-11-08T18:00:00	6	Velocidad del viento	6.4
10630	7	Sololá	712	San Antonio Palopó	9	San Antonio Palopo	10	Octubre	2023-01-10T00:00:00	2024-11-08T18:00:00	7	Dirección del viento	6.44
10631	7	Sololá	712	San Antonio Palopó	9	San Antonio Palopo	10	Octubre	2023-01-10T00:00:00	2024-11-08T18:00:00	1	Precipitación	0
10632	7	Sololá	712	San Antonio Palopó	9	San Antonio Palopo	10	Octubre	2023-01-10T00:00:00	2024-11-08T18:00:00	8	Radiación solar	11
10633	7	Sololá	712	San Antonio Palopó	9	San Antonio Palopo	10	Octubre	2023-01-10T00:00:00	2024-11-08T19:00:00	2	Temperatura media	20
10634	7	Sololá	712	San Antonio Palopó	9	San Antonio Palopo	10	Octubre	2023-01-10T00:00:00	2024-11-08T19:00:00	4	Temperatura máxima	20.7
10635	7	Sololá	712	San Antonio Palopó	9	San Antonio Palopo	10	Octubre	2023-01-10T00:00:00	2024-11-08T19:00:00	3	Temperatura mínima	20
10636	7	Sololá	712	San Antonio Palopó	9	San Antonio Palopo	10	Octubre	2023-01-10T00:00:00	2024-11-08T19:00:00	5	Humedad	83
10637	7	Sololá	712	San Antonio Palopó	9	San Antonio Palopo	10	Octubre	2023-01-10T00:00:00	2024-11-08T19:00:00	6	Velocidad del viento	6.4
10638	7	Sololá	712	San Antonio Palopó	9	San Antonio Palopo	10	Octubre	2023-01-10T00:00:00	2024-11-08T19:00:00	7	Dirección del viento	6.44
10639	7	Sololá	712	San Antonio Palopó	9	San Antonio Palopo	10	Octubre	2023-01-10T00:00:00	2024-11-08T19:00:00	1	Precipitación	0
10640	7	Sololá	712	San Antonio Palopó	9	San Antonio Palopo	10	Octubre	2023-01-10T00:00:00	2024-11-08T19:00:00	8	Radiación solar	0
10641	7	Sololá	712	San Antonio Palopó	9	San Antonio Palopo	10	Octubre	2023-01-10T00:00:00	2024-11-08T20:00:00	2	Temperatura media	20.2
10642	7	Sololá	712	San Antonio Palopó	9	San Antonio Palopo	10	Octubre	2023-01-10T00:00:00	2024-11-08T20:00:00	4	Temperatura máxima	20.3
10643	7	Sololá	712	San Antonio Palopó	9	San Antonio Palopo	10	Octubre	2023-01-10T00:00:00	2024-11-08T20:00:00	3	Temperatura mínima	19.8
10644	7	Sololá	712	San Antonio Palopó	9	San Antonio Palopo	10	Octubre	2023-01-10T00:00:00	2024-11-08T20:00:00	5	Humedad	84
10645	7	Sololá	712	San Antonio Palopó	9	San Antonio Palopo	10	Octubre	2023-01-10T00:00:00	2024-11-08T20:00:00	6	Velocidad del viento	1.6
10646	7	Sololá	712	San Antonio Palopó	9	San Antonio Palopo	10	Octubre	2023-01-10T00:00:00	2024-11-08T20:00:00	7	Dirección del viento	1.61
10647	7	Sololá	712	San Antonio Palopó	9	San Antonio Palopo	10	Octubre	2023-01-10T00:00:00	2024-11-08T20:00:00	1	Precipitación	0
10648	7	Sololá	712	San Antonio Palopó	9	San Antonio Palopo	10	Octubre	2023-01-10T00:00:00	2024-11-08T20:00:00	8	Radiación solar	0
10649	7	Sololá	712	San Antonio Palopó	9	San Antonio Palopo	10	Octubre	2023-01-10T00:00:00	2024-11-08T21:00:00	2	Temperatura media	19.6
10650	7	Sololá	712	San Antonio Palopó	9	San Antonio Palopo	10	Octubre	2023-01-10T00:00:00	2024-11-08T21:00:00	4	Temperatura máxima	20.2
10651	7	Sololá	712	San Antonio Palopó	9	San Antonio Palopo	10	Octubre	2023-01-10T00:00:00	2024-11-08T21:00:00	3	Temperatura mínima	19.5
10652	7	Sololá	712	San Antonio Palopó	9	San Antonio Palopo	10	Octubre	2023-01-10T00:00:00	2024-11-08T21:00:00	5	Humedad	89
10653	7	Sololá	712	San Antonio Palopó	9	San Antonio Palopo	10	Octubre	2023-01-10T00:00:00	2024-11-08T21:00:00	6	Velocidad del viento	0
10654	7	Sololá	712	San Antonio Palopó	9	San Antonio Palopo	10	Octubre	2023-01-10T00:00:00	2024-11-08T21:00:00	7	Dirección del viento	0
10655	7	Sololá	712	San Antonio Palopó	9	San Antonio Palopo	10	Octubre	2023-01-10T00:00:00	2024-11-08T21:00:00	1	Precipitación	1
10656	7	Sololá	712	San Antonio Palopó	9	San Antonio Palopo	10	Octubre	2023-01-10T00:00:00	2024-11-08T21:00:00	8	Radiación solar	0
10657	7	Sololá	712	San Antonio Palopó	9	San Antonio Palopo	10	Octubre	2023-01-10T00:00:00	2024-11-08T22:00:00	2	Temperatura media	19.1
10658	7	Sololá	712	San Antonio Palopó	9	San Antonio Palopo	10	Octubre	2023-01-10T00:00:00	2024-11-08T22:00:00	4	Temperatura máxima	19.7
10659	7	Sololá	712	San Antonio Palopó	9	San Antonio Palopo	10	Octubre	2023-01-10T00:00:00	2024-11-08T22:00:00	3	Temperatura mínima	19.1
10660	7	Sololá	712	San Antonio Palopó	9	San Antonio Palopo	10	Octubre	2023-01-10T00:00:00	2024-11-08T22:00:00	5	Humedad	90
10661	7	Sololá	712	San Antonio Palopó	9	San Antonio Palopo	10	Octubre	2023-01-10T00:00:00	2024-11-08T22:00:00	6	Velocidad del viento	1.6
10662	7	Sololá	712	San Antonio Palopó	9	San Antonio Palopo	10	Octubre	2023-01-10T00:00:00	2024-11-08T22:00:00	7	Dirección del viento	1.61
10663	7	Sololá	712	San Antonio Palopó	9	San Antonio Palopo	10	Octubre	2023-01-10T00:00:00	2024-11-08T22:00:00	1	Precipitación	0.4
10664	7	Sololá	712	San Antonio Palopó	9	San Antonio Palopo	10	Octubre	2023-01-10T00:00:00	2024-11-08T22:00:00	8	Radiación solar	0
10665	7	Sololá	712	San Antonio Palopó	9	San Antonio Palopo	10	Octubre	2023-01-10T00:00:00	2024-11-08T23:00:00	2	Temperatura media	18.9
10666	7	Sololá	712	San Antonio Palopó	9	San Antonio Palopo	10	Octubre	2023-01-10T00:00:00	2024-11-08T23:00:00	4	Temperatura máxima	19.4
10667	7	Sololá	712	San Antonio Palopó	9	San Antonio Palopo	10	Octubre	2023-01-10T00:00:00	2024-11-08T23:00:00	3	Temperatura mínima	18.9
10668	7	Sololá	712	San Antonio Palopó	9	San Antonio Palopo	10	Octubre	2023-01-10T00:00:00	2024-11-08T23:00:00	5	Humedad	91
10669	7	Sololá	712	San Antonio Palopó	9	San Antonio Palopo	10	Octubre	2023-01-10T00:00:00	2024-11-08T23:00:00	6	Velocidad del viento	1.6
10670	7	Sololá	712	San Antonio Palopó	9	San Antonio Palopo	10	Octubre	2023-01-10T00:00:00	2024-11-08T23:00:00	7	Dirección del viento	1.61
10671	7	Sololá	712	San Antonio Palopó	9	San Antonio Palopo	10	Octubre	2023-01-10T00:00:00	2024-11-08T23:00:00	1	Precipitación	0
10672	7	Sololá	712	San Antonio Palopó	9	San Antonio Palopo	10	Octubre	2023-01-10T00:00:00	2024-11-08T23:00:00	8	Radiación solar	0
10673	7	Sololá	712	San Antonio Palopó	9	San Antonio Palopo	10	Octubre	2023-02-10T00:00:00	2024-11-08T00:00:00	2	Temperatura media	19.3
10674	7	Sololá	712	San Antonio Palopó	9	San Antonio Palopo	10	Octubre	2023-02-10T00:00:00	2024-11-08T00:00:00	4	Temperatura máxima	19.4
10675	7	Sololá	712	San Antonio Palopó	9	San Antonio Palopo	10	Octubre	2023-02-10T00:00:00	2024-11-08T00:00:00	3	Temperatura mínima	18.9
10676	7	Sololá	712	San Antonio Palopó	9	San Antonio Palopo	10	Octubre	2023-02-10T00:00:00	2024-11-08T00:00:00	5	Humedad	89
10677	7	Sololá	712	San Antonio Palopó	9	San Antonio Palopo	10	Octubre	2023-02-10T00:00:00	2024-11-08T00:00:00	6	Velocidad del viento	1.6
10678	7	Sololá	712	San Antonio Palopó	9	San Antonio Palopo	10	Octubre	2023-02-10T00:00:00	2024-11-08T00:00:00	7	Dirección del viento	1.61
10679	7	Sololá	712	San Antonio Palopó	9	San Antonio Palopo	10	Octubre	2023-02-10T00:00:00	2024-11-08T00:00:00	1	Precipitación	0
10680	7	Sololá	712	San Antonio Palopó	9	San Antonio Palopo	10	Octubre	2023-02-10T00:00:00	2024-11-08T00:00:00	8	Radiación solar	0
10681	7	Sololá	712	San Antonio Palopó	9	San Antonio Palopo	10	Octubre	2023-02-10T00:00:00	2024-11-08T01:00:00	2	Temperatura media	19.2
10682	7	Sololá	712	San Antonio Palopó	9	San Antonio Palopo	10	Octubre	2023-02-10T00:00:00	2024-11-08T01:00:00	4	Temperatura máxima	19.3
10683	7	Sololá	712	San Antonio Palopó	9	San Antonio Palopo	10	Octubre	2023-02-10T00:00:00	2024-11-08T01:00:00	3	Temperatura mínima	18.8
10684	7	Sololá	712	San Antonio Palopó	9	San Antonio Palopo	10	Octubre	2023-02-10T00:00:00	2024-11-08T01:00:00	5	Humedad	88
10685	7	Sololá	712	San Antonio Palopó	9	San Antonio Palopo	10	Octubre	2023-02-10T00:00:00	2024-11-08T01:00:00	6	Velocidad del viento	1.6
10686	7	Sololá	712	San Antonio Palopó	9	San Antonio Palopo	10	Octubre	2023-02-10T00:00:00	2024-11-08T01:00:00	7	Dirección del viento	1.61
10687	7	Sololá	712	San Antonio Palopó	9	San Antonio Palopo	10	Octubre	2023-02-10T00:00:00	2024-11-08T01:00:00	1	Precipitación	0
10688	7	Sololá	712	San Antonio Palopó	9	San Antonio Palopo	10	Octubre	2023-02-10T00:00:00	2024-11-08T01:00:00	8	Radiación solar	0
10689	7	Sololá	712	San Antonio Palopó	9	San Antonio Palopo	10	Octubre	2023-02-10T00:00:00	2024-11-08T02:00:00	2	Temperatura media	18.6
10690	7	Sololá	712	San Antonio Palopó	9	San Antonio Palopo	10	Octubre	2023-02-10T00:00:00	2024-11-08T02:00:00	4	Temperatura máxima	19.2
10691	7	Sololá	712	San Antonio Palopó	9	San Antonio Palopo	10	Octubre	2023-02-10T00:00:00	2024-11-08T02:00:00	3	Temperatura mínima	18.6
10692	7	Sololá	712	San Antonio Palopó	9	San Antonio Palopo	10	Octubre	2023-02-10T00:00:00	2024-11-08T02:00:00	5	Humedad	89
10693	7	Sololá	712	San Antonio Palopó	9	San Antonio Palopo	10	Octubre	2023-02-10T00:00:00	2024-11-08T02:00:00	6	Velocidad del viento	1.6
10694	7	Sololá	712	San Antonio Palopó	9	San Antonio Palopo	10	Octubre	2023-02-10T00:00:00	2024-11-08T02:00:00	7	Dirección del viento	1.61
10695	7	Sololá	712	San Antonio Palopó	9	San Antonio Palopo	10	Octubre	2023-02-10T00:00:00	2024-11-08T02:00:00	1	Precipitación	0
10696	7	Sololá	712	San Antonio Palopó	9	San Antonio Palopo	10	Octubre	2023-02-10T00:00:00	2024-11-08T02:00:00	8	Radiación solar	0
10697	7	Sololá	712	San Antonio Palopó	9	San Antonio Palopo	10	Octubre	2023-02-10T00:00:00	2024-11-08T03:00:00	2	Temperatura media	18.7
10698	7	Sololá	712	San Antonio Palopó	9	San Antonio Palopo	10	Octubre	2023-02-10T00:00:00	2024-11-08T03:00:00	4	Temperatura máxima	19
10699	7	Sololá	712	San Antonio Palopó	9	San Antonio Palopo	10	Octubre	2023-02-10T00:00:00	2024-11-08T03:00:00	3	Temperatura mínima	18.4
10700	7	Sololá	712	San Antonio Palopó	9	San Antonio Palopo	10	Octubre	2023-02-10T00:00:00	2024-11-08T03:00:00	5	Humedad	87
10701	7	Sololá	712	San Antonio Palopó	9	San Antonio Palopo	10	Octubre	2023-02-10T00:00:00	2024-11-08T03:00:00	6	Velocidad del viento	3.2
10702	7	Sololá	712	San Antonio Palopó	9	San Antonio Palopo	10	Octubre	2023-02-10T00:00:00	2024-11-08T03:00:00	7	Dirección del viento	3.22
10703	7	Sololá	712	San Antonio Palopó	9	San Antonio Palopo	10	Octubre	2023-02-10T00:00:00	2024-11-08T03:00:00	1	Precipitación	0
10704	7	Sololá	712	San Antonio Palopó	9	San Antonio Palopo	10	Octubre	2023-02-10T00:00:00	2024-11-08T03:00:00	8	Radiación solar	0
10705	7	Sololá	712	San Antonio Palopó	9	San Antonio Palopo	10	Octubre	2023-02-10T00:00:00	2024-11-08T04:00:00	2	Temperatura media	19.5
10706	7	Sololá	712	San Antonio Palopó	9	San Antonio Palopo	10	Octubre	2023-02-10T00:00:00	2024-11-08T04:00:00	4	Temperatura máxima	19.8
10707	7	Sololá	712	San Antonio Palopó	9	San Antonio Palopo	10	Octubre	2023-02-10T00:00:00	2024-11-08T04:00:00	3	Temperatura mínima	18.7
10708	7	Sololá	712	San Antonio Palopó	9	San Antonio Palopo	10	Octubre	2023-02-10T00:00:00	2024-11-08T04:00:00	5	Humedad	78
10709	7	Sololá	712	San Antonio Palopó	9	San Antonio Palopo	10	Octubre	2023-02-10T00:00:00	2024-11-08T04:00:00	6	Velocidad del viento	9.7
10710	7	Sololá	712	San Antonio Palopó	9	San Antonio Palopo	10	Octubre	2023-02-10T00:00:00	2024-11-08T04:00:00	7	Dirección del viento	9.66
10711	7	Sololá	712	San Antonio Palopó	9	San Antonio Palopo	10	Octubre	2023-02-10T00:00:00	2024-11-08T04:00:00	1	Precipitación	0
10712	7	Sololá	712	San Antonio Palopó	9	San Antonio Palopo	10	Octubre	2023-02-10T00:00:00	2024-11-08T04:00:00	8	Radiación solar	0
10713	7	Sololá	712	San Antonio Palopó	9	San Antonio Palopo	10	Octubre	2023-02-10T00:00:00	2024-11-08T05:00:00	2	Temperatura media	19.5
10714	7	Sololá	712	San Antonio Palopó	9	San Antonio Palopo	10	Octubre	2023-02-10T00:00:00	2024-11-08T05:00:00	4	Temperatura máxima	19.7
10715	7	Sololá	712	San Antonio Palopó	9	San Antonio Palopo	10	Octubre	2023-02-10T00:00:00	2024-11-08T05:00:00	3	Temperatura mínima	19.2
10716	7	Sololá	712	San Antonio Palopó	9	San Antonio Palopo	10	Octubre	2023-02-10T00:00:00	2024-11-08T05:00:00	5	Humedad	77
10717	7	Sololá	712	San Antonio Palopó	9	San Antonio Palopo	10	Octubre	2023-02-10T00:00:00	2024-11-08T05:00:00	6	Velocidad del viento	9.7
10718	7	Sololá	712	San Antonio Palopó	9	San Antonio Palopo	10	Octubre	2023-02-10T00:00:00	2024-11-08T05:00:00	7	Dirección del viento	9.66
10719	7	Sololá	712	San Antonio Palopó	9	San Antonio Palopo	10	Octubre	2023-02-10T00:00:00	2024-11-08T05:00:00	1	Precipitación	0
10720	7	Sololá	712	San Antonio Palopó	9	San Antonio Palopo	10	Octubre	2023-02-10T00:00:00	2024-11-08T05:00:00	8	Radiación solar	0
10721	7	Sololá	712	San Antonio Palopó	9	San Antonio Palopo	10	Octubre	2023-02-10T00:00:00	2024-11-08T06:00:00	2	Temperatura media	19.4
10722	7	Sololá	712	San Antonio Palopó	9	San Antonio Palopo	10	Octubre	2023-02-10T00:00:00	2024-11-08T06:00:00	4	Temperatura máxima	19.8
10723	7	Sololá	712	San Antonio Palopó	9	San Antonio Palopo	10	Octubre	2023-02-10T00:00:00	2024-11-08T06:00:00	3	Temperatura mínima	19.3
10724	7	Sololá	712	San Antonio Palopó	9	San Antonio Palopo	10	Octubre	2023-02-10T00:00:00	2024-11-08T06:00:00	5	Humedad	76
10725	7	Sololá	712	San Antonio Palopó	9	San Antonio Palopo	10	Octubre	2023-02-10T00:00:00	2024-11-08T06:00:00	6	Velocidad del viento	9.7
10726	7	Sololá	712	San Antonio Palopó	9	San Antonio Palopo	10	Octubre	2023-02-10T00:00:00	2024-11-08T06:00:00	7	Dirección del viento	9.66
10727	7	Sololá	712	San Antonio Palopó	9	San Antonio Palopo	10	Octubre	2023-02-10T00:00:00	2024-11-08T06:00:00	1	Precipitación	0
10728	7	Sololá	712	San Antonio Palopó	9	San Antonio Palopo	10	Octubre	2023-02-10T00:00:00	2024-11-08T06:00:00	8	Radiación solar	0
10729	7	Sololá	712	San Antonio Palopó	9	San Antonio Palopo	10	Octubre	2023-02-10T00:00:00	2024-11-08T07:00:00	2	Temperatura media	19.9
10730	7	Sololá	712	San Antonio Palopó	9	San Antonio Palopo	10	Octubre	2023-02-10T00:00:00	2024-11-08T07:00:00	4	Temperatura máxima	19.9
10731	7	Sololá	712	San Antonio Palopó	9	San Antonio Palopo	10	Octubre	2023-02-10T00:00:00	2024-11-08T07:00:00	3	Temperatura mínima	19.3
10732	7	Sololá	712	San Antonio Palopó	9	San Antonio Palopo	10	Octubre	2023-02-10T00:00:00	2024-11-08T07:00:00	5	Humedad	75
10733	7	Sololá	712	San Antonio Palopó	9	San Antonio Palopo	10	Octubre	2023-02-10T00:00:00	2024-11-08T07:00:00	6	Velocidad del viento	11.3
10734	7	Sololá	712	San Antonio Palopó	9	San Antonio Palopo	10	Octubre	2023-02-10T00:00:00	2024-11-08T07:00:00	7	Dirección del viento	11.27
10735	7	Sololá	712	San Antonio Palopó	9	San Antonio Palopo	10	Octubre	2023-02-10T00:00:00	2024-11-08T07:00:00	1	Precipitación	0
10736	7	Sololá	712	San Antonio Palopó	9	San Antonio Palopo	10	Octubre	2023-02-10T00:00:00	2024-11-08T07:00:00	8	Radiación solar	48
10737	7	Sololá	712	San Antonio Palopó	9	San Antonio Palopo	10	Octubre	2023-02-10T00:00:00	2024-11-08T08:00:00	2	Temperatura media	21.4
10738	7	Sololá	712	San Antonio Palopó	9	San Antonio Palopo	10	Octubre	2023-02-10T00:00:00	2024-11-08T08:00:00	4	Temperatura máxima	21.4
10739	7	Sololá	712	San Antonio Palopó	9	San Antonio Palopo	10	Octubre	2023-02-10T00:00:00	2024-11-08T08:00:00	3	Temperatura mínima	19.8
10740	7	Sololá	712	San Antonio Palopó	9	San Antonio Palopo	10	Octubre	2023-02-10T00:00:00	2024-11-08T08:00:00	5	Humedad	76
10741	7	Sololá	712	San Antonio Palopó	9	San Antonio Palopo	10	Octubre	2023-02-10T00:00:00	2024-11-08T08:00:00	6	Velocidad del viento	3.2
10742	7	Sololá	712	San Antonio Palopó	9	San Antonio Palopo	10	Octubre	2023-02-10T00:00:00	2024-11-08T08:00:00	7	Dirección del viento	3.22
10743	7	Sololá	712	San Antonio Palopó	9	San Antonio Palopo	10	Octubre	2023-02-10T00:00:00	2024-11-08T08:00:00	1	Precipitación	0
10744	7	Sololá	712	San Antonio Palopó	9	San Antonio Palopo	10	Octubre	2023-02-10T00:00:00	2024-11-08T08:00:00	8	Radiación solar	160
10745	7	Sololá	712	San Antonio Palopó	9	San Antonio Palopo	10	Octubre	2023-02-10T00:00:00	2024-11-08T09:00:00	2	Temperatura media	23.6
10746	7	Sololá	712	San Antonio Palopó	9	San Antonio Palopo	10	Octubre	2023-02-10T00:00:00	2024-11-08T09:00:00	4	Temperatura máxima	23.7
10747	7	Sololá	712	San Antonio Palopó	9	San Antonio Palopo	10	Octubre	2023-02-10T00:00:00	2024-11-08T09:00:00	3	Temperatura mínima	21.4
10748	7	Sololá	712	San Antonio Palopó	9	San Antonio Palopo	10	Octubre	2023-02-10T00:00:00	2024-11-08T09:00:00	5	Humedad	67
10749	7	Sololá	712	San Antonio Palopó	9	San Antonio Palopo	10	Octubre	2023-02-10T00:00:00	2024-11-08T09:00:00	6	Velocidad del viento	1.6
10750	7	Sololá	712	San Antonio Palopó	9	San Antonio Palopo	10	Octubre	2023-02-10T00:00:00	2024-11-08T09:00:00	7	Dirección del viento	1.61
10751	7	Sololá	712	San Antonio Palopó	9	San Antonio Palopo	10	Octubre	2023-02-10T00:00:00	2024-11-08T09:00:00	1	Precipitación	0
10752	7	Sololá	712	San Antonio Palopó	9	San Antonio Palopo	10	Octubre	2023-02-10T00:00:00	2024-11-08T09:00:00	8	Radiación solar	455
10753	7	Sololá	712	San Antonio Palopó	9	San Antonio Palopo	10	Octubre	2023-02-10T00:00:00	2024-11-08T10:00:00	2	Temperatura media	23.8
10754	7	Sololá	712	San Antonio Palopó	9	San Antonio Palopo	10	Octubre	2023-02-10T00:00:00	2024-11-08T10:00:00	4	Temperatura máxima	23.8
10755	7	Sololá	712	San Antonio Palopó	9	San Antonio Palopo	10	Octubre	2023-02-10T00:00:00	2024-11-08T10:00:00	3	Temperatura mínima	23.2
10756	7	Sololá	712	San Antonio Palopó	9	San Antonio Palopo	10	Octubre	2023-02-10T00:00:00	2024-11-08T10:00:00	5	Humedad	67
10757	7	Sololá	712	San Antonio Palopó	9	San Antonio Palopo	10	Octubre	2023-02-10T00:00:00	2024-11-08T10:00:00	6	Velocidad del viento	3.2
10758	7	Sololá	712	San Antonio Palopó	9	San Antonio Palopo	10	Octubre	2023-02-10T00:00:00	2024-11-08T10:00:00	7	Dirección del viento	3.22
10759	7	Sololá	712	San Antonio Palopó	9	San Antonio Palopo	10	Octubre	2023-02-10T00:00:00	2024-11-08T10:00:00	1	Precipitación	0
10760	7	Sololá	712	San Antonio Palopó	9	San Antonio Palopo	10	Octubre	2023-02-10T00:00:00	2024-11-08T10:00:00	8	Radiación solar	721
10761	7	Sololá	712	San Antonio Palopó	9	San Antonio Palopo	10	Octubre	2023-02-10T00:00:00	2024-11-08T11:00:00	2	Temperatura media	24.3
10762	7	Sololá	712	San Antonio Palopó	9	San Antonio Palopo	10	Octubre	2023-02-10T00:00:00	2024-11-08T11:00:00	4	Temperatura máxima	24.4
10763	7	Sololá	712	San Antonio Palopó	9	San Antonio Palopo	10	Octubre	2023-02-10T00:00:00	2024-11-08T11:00:00	3	Temperatura mínima	23.7
10764	7	Sololá	712	San Antonio Palopó	9	San Antonio Palopo	10	Octubre	2023-02-10T00:00:00	2024-11-08T11:00:00	5	Humedad	66
10765	7	Sololá	712	San Antonio Palopó	9	San Antonio Palopo	10	Octubre	2023-02-10T00:00:00	2024-11-08T11:00:00	6	Velocidad del viento	3.2
10766	7	Sololá	712	San Antonio Palopó	9	San Antonio Palopo	10	Octubre	2023-02-10T00:00:00	2024-11-08T11:00:00	7	Dirección del viento	3.22
10767	7	Sololá	712	San Antonio Palopó	9	San Antonio Palopo	10	Octubre	2023-02-10T00:00:00	2024-11-08T11:00:00	1	Precipitación	0
10768	7	Sololá	712	San Antonio Palopó	9	San Antonio Palopo	10	Octubre	2023-02-10T00:00:00	2024-11-08T11:00:00	8	Radiación solar	871
10769	7	Sololá	712	San Antonio Palopó	9	San Antonio Palopo	10	Octubre	2023-02-10T00:00:00	2024-11-08T12:00:00	2	Temperatura media	25.3
10770	7	Sololá	712	San Antonio Palopó	9	San Antonio Palopo	10	Octubre	2023-02-10T00:00:00	2024-11-08T12:00:00	4	Temperatura máxima	25.3
10771	7	Sololá	712	San Antonio Palopó	9	San Antonio Palopo	10	Octubre	2023-02-10T00:00:00	2024-11-08T12:00:00	3	Temperatura mínima	24.3
10772	7	Sololá	712	San Antonio Palopó	9	San Antonio Palopo	10	Octubre	2023-02-10T00:00:00	2024-11-08T12:00:00	5	Humedad	73
10773	7	Sololá	712	San Antonio Palopó	9	San Antonio Palopo	10	Octubre	2023-02-10T00:00:00	2024-11-08T12:00:00	6	Velocidad del viento	3.2
10774	7	Sololá	712	San Antonio Palopó	9	San Antonio Palopo	10	Octubre	2023-02-10T00:00:00	2024-11-08T12:00:00	7	Dirección del viento	3.22
10775	7	Sololá	712	San Antonio Palopó	9	San Antonio Palopo	10	Octubre	2023-02-10T00:00:00	2024-11-08T12:00:00	1	Precipitación	0
10776	7	Sololá	712	San Antonio Palopó	9	San Antonio Palopo	10	Octubre	2023-02-10T00:00:00	2024-11-08T12:00:00	8	Radiación solar	910
10777	7	Sololá	712	San Antonio Palopó	9	San Antonio Palopo	10	Octubre	2023-02-10T00:00:00	2024-11-08T13:00:00	2	Temperatura media	24.7
10778	7	Sololá	712	San Antonio Palopó	9	San Antonio Palopo	10	Octubre	2023-02-10T00:00:00	2024-11-08T13:00:00	4	Temperatura máxima	25.4
10779	7	Sololá	712	San Antonio Palopó	9	San Antonio Palopo	10	Octubre	2023-02-10T00:00:00	2024-11-08T13:00:00	3	Temperatura mínima	24.5
10780	7	Sololá	712	San Antonio Palopó	9	San Antonio Palopo	10	Octubre	2023-02-10T00:00:00	2024-11-08T13:00:00	5	Humedad	75
10781	7	Sololá	712	San Antonio Palopó	9	San Antonio Palopo	10	Octubre	2023-02-10T00:00:00	2024-11-08T13:00:00	6	Velocidad del viento	6.4
10782	7	Sololá	712	San Antonio Palopó	9	San Antonio Palopo	10	Octubre	2023-02-10T00:00:00	2024-11-08T13:00:00	7	Dirección del viento	6.44
10783	7	Sololá	712	San Antonio Palopó	9	San Antonio Palopo	10	Octubre	2023-02-10T00:00:00	2024-11-08T13:00:00	1	Precipitación	0
10784	7	Sololá	712	San Antonio Palopó	9	San Antonio Palopo	10	Octubre	2023-02-10T00:00:00	2024-11-08T13:00:00	8	Radiación solar	745
10785	7	Sololá	712	San Antonio Palopó	9	San Antonio Palopo	10	Octubre	2023-02-10T00:00:00	2024-11-08T14:00:00	2	Temperatura media	23.9
10786	7	Sololá	712	San Antonio Palopó	9	San Antonio Palopo	10	Octubre	2023-02-10T00:00:00	2024-11-08T14:00:00	4	Temperatura máxima	25.1
10787	7	Sololá	712	San Antonio Palopó	9	San Antonio Palopo	10	Octubre	2023-02-10T00:00:00	2024-11-08T14:00:00	3	Temperatura mínima	23.9
10788	7	Sololá	712	San Antonio Palopó	9	San Antonio Palopo	10	Octubre	2023-02-10T00:00:00	2024-11-08T14:00:00	5	Humedad	76
10789	7	Sololá	712	San Antonio Palopó	9	San Antonio Palopo	10	Octubre	2023-02-10T00:00:00	2024-11-08T14:00:00	6	Velocidad del viento	6.4
10790	7	Sololá	712	San Antonio Palopó	9	San Antonio Palopo	10	Octubre	2023-02-10T00:00:00	2024-11-08T14:00:00	7	Dirección del viento	6.44
10791	7	Sololá	712	San Antonio Palopó	9	San Antonio Palopo	10	Octubre	2023-02-10T00:00:00	2024-11-08T14:00:00	1	Precipitación	0
10792	7	Sololá	712	San Antonio Palopó	9	San Antonio Palopo	10	Octubre	2023-02-10T00:00:00	2024-11-08T14:00:00	8	Radiación solar	351
10793	7	Sololá	712	San Antonio Palopó	9	San Antonio Palopo	10	Octubre	2023-02-10T00:00:00	2024-11-08T15:00:00	2	Temperatura media	24.1
10794	7	Sololá	712	San Antonio Palopó	9	San Antonio Palopo	10	Octubre	2023-02-10T00:00:00	2024-11-08T15:00:00	4	Temperatura máxima	24.6
10795	7	Sololá	712	San Antonio Palopó	9	San Antonio Palopo	10	Octubre	2023-02-10T00:00:00	2024-11-08T15:00:00	3	Temperatura mínima	23.6
10796	7	Sololá	712	San Antonio Palopó	9	San Antonio Palopo	10	Octubre	2023-02-10T00:00:00	2024-11-08T15:00:00	5	Humedad	76
10797	7	Sololá	712	San Antonio Palopó	9	San Antonio Palopo	10	Octubre	2023-02-10T00:00:00	2024-11-08T15:00:00	6	Velocidad del viento	6.4
10798	7	Sololá	712	San Antonio Palopó	9	San Antonio Palopo	10	Octubre	2023-02-10T00:00:00	2024-11-08T15:00:00	7	Dirección del viento	6.44
10799	7	Sololá	712	San Antonio Palopó	9	San Antonio Palopo	10	Octubre	2023-02-10T00:00:00	2024-11-08T15:00:00	1	Precipitación	0
10800	7	Sololá	712	San Antonio Palopó	9	San Antonio Palopo	10	Octubre	2023-02-10T00:00:00	2024-11-08T15:00:00	8	Radiación solar	336
10801	7	Sololá	712	San Antonio Palopó	9	San Antonio Palopo	10	Octubre	2023-02-10T00:00:00	2024-11-08T16:00:00	2	Temperatura media	22.9
10802	7	Sololá	712	San Antonio Palopó	9	San Antonio Palopo	10	Octubre	2023-02-10T00:00:00	2024-11-08T16:00:00	4	Temperatura máxima	24.5
10803	7	Sololá	712	San Antonio Palopó	9	San Antonio Palopo	10	Octubre	2023-02-10T00:00:00	2024-11-08T16:00:00	3	Temperatura mínima	22.6
10804	7	Sololá	712	San Antonio Palopó	9	San Antonio Palopo	10	Octubre	2023-02-10T00:00:00	2024-11-08T16:00:00	5	Humedad	77
10805	7	Sololá	712	San Antonio Palopó	9	San Antonio Palopo	10	Octubre	2023-02-10T00:00:00	2024-11-08T16:00:00	6	Velocidad del viento	8
10806	7	Sololá	712	San Antonio Palopó	9	San Antonio Palopo	10	Octubre	2023-02-10T00:00:00	2024-11-08T16:00:00	7	Dirección del viento	8.05
10807	7	Sololá	712	San Antonio Palopó	9	San Antonio Palopo	10	Octubre	2023-02-10T00:00:00	2024-11-08T16:00:00	1	Precipitación	0
10808	7	Sololá	712	San Antonio Palopó	9	San Antonio Palopo	10	Octubre	2023-02-10T00:00:00	2024-11-08T16:00:00	8	Radiación solar	220
10809	7	Sololá	712	San Antonio Palopó	9	San Antonio Palopo	10	Octubre	2023-02-10T00:00:00	2024-11-08T17:00:00	2	Temperatura media	21.2
10810	7	Sololá	712	San Antonio Palopó	9	San Antonio Palopo	10	Octubre	2023-02-10T00:00:00	2024-11-08T17:00:00	4	Temperatura máxima	22.9
10811	7	Sololá	712	San Antonio Palopó	9	San Antonio Palopo	10	Octubre	2023-02-10T00:00:00	2024-11-08T17:00:00	3	Temperatura mínima	21.1
10812	7	Sololá	712	San Antonio Palopó	9	San Antonio Palopo	10	Octubre	2023-02-10T00:00:00	2024-11-08T17:00:00	5	Humedad	81
10813	7	Sololá	712	San Antonio Palopó	9	San Antonio Palopo	10	Octubre	2023-02-10T00:00:00	2024-11-08T17:00:00	6	Velocidad del viento	8
10814	7	Sololá	712	San Antonio Palopó	9	San Antonio Palopo	10	Octubre	2023-02-10T00:00:00	2024-11-08T17:00:00	7	Dirección del viento	8.05
10815	7	Sololá	712	San Antonio Palopó	9	San Antonio Palopo	10	Octubre	2023-02-10T00:00:00	2024-11-08T17:00:00	1	Precipitación	0
10816	7	Sololá	712	San Antonio Palopó	9	San Antonio Palopo	10	Octubre	2023-02-10T00:00:00	2024-11-08T17:00:00	8	Radiación solar	32
10817	7	Sololá	712	San Antonio Palopó	9	San Antonio Palopo	10	Octubre	2023-02-10T00:00:00	2024-11-08T18:00:00	2	Temperatura media	20.4
10818	7	Sololá	712	San Antonio Palopó	9	San Antonio Palopo	10	Octubre	2023-02-10T00:00:00	2024-11-08T18:00:00	4	Temperatura máxima	21.2
10819	7	Sololá	712	San Antonio Palopó	9	San Antonio Palopo	10	Octubre	2023-02-10T00:00:00	2024-11-08T18:00:00	3	Temperatura mínima	19.4
10820	7	Sololá	712	San Antonio Palopó	9	San Antonio Palopo	10	Octubre	2023-02-10T00:00:00	2024-11-08T18:00:00	5	Humedad	81
10821	7	Sololá	712	San Antonio Palopó	9	San Antonio Palopo	10	Octubre	2023-02-10T00:00:00	2024-11-08T18:00:00	6	Velocidad del viento	8
10822	7	Sololá	712	San Antonio Palopó	9	San Antonio Palopo	10	Octubre	2023-02-10T00:00:00	2024-11-08T18:00:00	7	Dirección del viento	8.05
10823	7	Sololá	712	San Antonio Palopó	9	San Antonio Palopo	10	Octubre	2023-02-10T00:00:00	2024-11-08T18:00:00	1	Precipitación	0
10824	7	Sololá	712	San Antonio Palopó	9	San Antonio Palopo	10	Octubre	2023-02-10T00:00:00	2024-11-08T18:00:00	8	Radiación solar	10
10825	7	Sololá	712	San Antonio Palopó	9	San Antonio Palopo	10	Octubre	2023-02-10T00:00:00	2024-11-08T19:00:00	2	Temperatura media	19.4
10826	7	Sololá	712	San Antonio Palopó	9	San Antonio Palopo	10	Octubre	2023-02-10T00:00:00	2024-11-08T19:00:00	4	Temperatura máxima	20.4
10827	7	Sololá	712	San Antonio Palopó	9	San Antonio Palopo	10	Octubre	2023-02-10T00:00:00	2024-11-08T19:00:00	3	Temperatura mínima	19.3
10828	7	Sololá	712	San Antonio Palopó	9	San Antonio Palopo	10	Octubre	2023-02-10T00:00:00	2024-11-08T19:00:00	5	Humedad	84
10829	7	Sololá	712	San Antonio Palopó	9	San Antonio Palopo	10	Octubre	2023-02-10T00:00:00	2024-11-08T19:00:00	6	Velocidad del viento	6.4
10830	7	Sololá	712	San Antonio Palopó	9	San Antonio Palopo	10	Octubre	2023-02-10T00:00:00	2024-11-08T19:00:00	7	Dirección del viento	6.44
10831	7	Sololá	712	San Antonio Palopó	9	San Antonio Palopo	10	Octubre	2023-02-10T00:00:00	2024-11-08T19:00:00	1	Precipitación	0
10832	7	Sololá	712	San Antonio Palopó	9	San Antonio Palopo	10	Octubre	2023-02-10T00:00:00	2024-11-08T19:00:00	8	Radiación solar	0
10833	7	Sololá	712	San Antonio Palopó	9	San Antonio Palopo	10	Octubre	2023-02-10T00:00:00	2024-11-08T20:00:00	2	Temperatura media	19.8
10834	7	Sololá	712	San Antonio Palopó	9	San Antonio Palopo	10	Octubre	2023-02-10T00:00:00	2024-11-08T20:00:00	4	Temperatura máxima	19.9
10835	7	Sololá	712	San Antonio Palopó	9	San Antonio Palopo	10	Octubre	2023-02-10T00:00:00	2024-11-08T20:00:00	3	Temperatura mínima	19.5
10836	7	Sololá	712	San Antonio Palopó	9	San Antonio Palopo	10	Octubre	2023-02-10T00:00:00	2024-11-08T20:00:00	5	Humedad	85
10837	7	Sololá	712	San Antonio Palopó	9	San Antonio Palopo	10	Octubre	2023-02-10T00:00:00	2024-11-08T20:00:00	6	Velocidad del viento	3.2
10838	7	Sololá	712	San Antonio Palopó	9	San Antonio Palopo	10	Octubre	2023-02-10T00:00:00	2024-11-08T20:00:00	7	Dirección del viento	3.22
10839	7	Sololá	712	San Antonio Palopó	9	San Antonio Palopo	10	Octubre	2023-02-10T00:00:00	2024-11-08T20:00:00	1	Precipitación	0
10840	7	Sololá	712	San Antonio Palopó	9	San Antonio Palopo	10	Octubre	2023-02-10T00:00:00	2024-11-08T20:00:00	8	Radiación solar	0
10841	7	Sololá	712	San Antonio Palopó	9	San Antonio Palopo	10	Octubre	2023-02-10T00:00:00	2024-11-08T21:00:00	2	Temperatura media	18.6
10842	7	Sololá	712	San Antonio Palopó	9	San Antonio Palopo	10	Octubre	2023-02-10T00:00:00	2024-11-08T21:00:00	4	Temperatura máxima	19.8
10843	7	Sololá	712	San Antonio Palopó	9	San Antonio Palopo	10	Octubre	2023-02-10T00:00:00	2024-11-08T21:00:00	3	Temperatura mínima	18.6
10844	7	Sololá	712	San Antonio Palopó	9	San Antonio Palopo	10	Octubre	2023-02-10T00:00:00	2024-11-08T21:00:00	5	Humedad	87
10845	7	Sololá	712	San Antonio Palopó	9	San Antonio Palopo	10	Octubre	2023-02-10T00:00:00	2024-11-08T21:00:00	6	Velocidad del viento	3.2
10846	7	Sololá	712	San Antonio Palopó	9	San Antonio Palopo	10	Octubre	2023-02-10T00:00:00	2024-11-08T21:00:00	7	Dirección del viento	3.22
10847	7	Sololá	712	San Antonio Palopó	9	San Antonio Palopo	10	Octubre	2023-02-10T00:00:00	2024-11-08T21:00:00	1	Precipitación	8.6
10848	7	Sololá	712	San Antonio Palopó	9	San Antonio Palopo	10	Octubre	2023-02-10T00:00:00	2024-11-08T21:00:00	8	Radiación solar	0
10849	7	Sololá	712	San Antonio Palopó	9	San Antonio Palopo	10	Octubre	2023-02-10T00:00:00	2024-11-08T22:00:00	2	Temperatura media	17.8
10850	7	Sololá	712	San Antonio Palopó	9	San Antonio Palopo	10	Octubre	2023-02-10T00:00:00	2024-11-08T22:00:00	4	Temperatura máxima	18.6
10851	7	Sololá	712	San Antonio Palopó	9	San Antonio Palopo	10	Octubre	2023-02-10T00:00:00	2024-11-08T22:00:00	3	Temperatura mínima	17.7
10852	7	Sololá	712	San Antonio Palopó	9	San Antonio Palopo	10	Octubre	2023-02-10T00:00:00	2024-11-08T22:00:00	5	Humedad	91
10853	7	Sololá	712	San Antonio Palopó	9	San Antonio Palopo	10	Octubre	2023-02-10T00:00:00	2024-11-08T22:00:00	6	Velocidad del viento	1.6
10854	7	Sololá	712	San Antonio Palopó	9	San Antonio Palopo	10	Octubre	2023-02-10T00:00:00	2024-11-08T22:00:00	7	Dirección del viento	1.61
10855	7	Sololá	712	San Antonio Palopó	9	San Antonio Palopo	10	Octubre	2023-02-10T00:00:00	2024-11-08T22:00:00	1	Precipitación	0.6
10856	7	Sololá	712	San Antonio Palopó	9	San Antonio Palopo	10	Octubre	2023-02-10T00:00:00	2024-11-08T22:00:00	8	Radiación solar	0
10857	7	Sololá	712	San Antonio Palopó	9	San Antonio Palopo	10	Octubre	2023-02-10T00:00:00	2024-11-08T23:00:00	2	Temperatura media	17.7
10858	7	Sololá	712	San Antonio Palopó	9	San Antonio Palopo	10	Octubre	2023-02-10T00:00:00	2024-11-08T23:00:00	4	Temperatura máxima	17.8
10859	7	Sololá	712	San Antonio Palopó	9	San Antonio Palopo	10	Octubre	2023-02-10T00:00:00	2024-11-08T23:00:00	3	Temperatura mínima	17.6
10860	7	Sololá	712	San Antonio Palopó	9	San Antonio Palopo	10	Octubre	2023-02-10T00:00:00	2024-11-08T23:00:00	5	Humedad	91
10861	7	Sololá	712	San Antonio Palopó	9	San Antonio Palopo	10	Octubre	2023-02-10T00:00:00	2024-11-08T23:00:00	6	Velocidad del viento	1.6
10862	7	Sololá	712	San Antonio Palopó	9	San Antonio Palopo	10	Octubre	2023-02-10T00:00:00	2024-11-08T23:00:00	7	Dirección del viento	1.61
10863	7	Sololá	712	San Antonio Palopó	9	San Antonio Palopo	10	Octubre	2023-02-10T00:00:00	2024-11-08T23:00:00	1	Precipitación	0.4
10864	7	Sololá	712	San Antonio Palopó	9	San Antonio Palopo	10	Octubre	2023-02-10T00:00:00	2024-11-08T23:00:00	8	Radiación solar	0
10865	7	Sololá	712	San Antonio Palopó	9	San Antonio Palopo	10	Octubre	2023-03-10T00:00:00	2024-11-08T00:00:00	2	Temperatura media	17.9
10866	7	Sololá	712	San Antonio Palopó	9	San Antonio Palopo	10	Octubre	2023-03-10T00:00:00	2024-11-08T00:00:00	4	Temperatura máxima	18.1
10867	7	Sololá	712	San Antonio Palopó	9	San Antonio Palopo	10	Octubre	2023-03-10T00:00:00	2024-11-08T00:00:00	3	Temperatura mínima	17.7
10868	7	Sololá	712	San Antonio Palopó	9	San Antonio Palopo	10	Octubre	2023-03-10T00:00:00	2024-11-08T00:00:00	5	Humedad	90
10869	7	Sololá	712	San Antonio Palopó	9	San Antonio Palopo	10	Octubre	2023-03-10T00:00:00	2024-11-08T00:00:00	6	Velocidad del viento	1.6
10870	7	Sololá	712	San Antonio Palopó	9	San Antonio Palopo	10	Octubre	2023-03-10T00:00:00	2024-11-08T00:00:00	7	Dirección del viento	1.61
10871	7	Sololá	712	San Antonio Palopó	9	San Antonio Palopo	10	Octubre	2023-03-10T00:00:00	2024-11-08T00:00:00	1	Precipitación	0
10872	7	Sololá	712	San Antonio Palopó	9	San Antonio Palopo	10	Octubre	2023-03-10T00:00:00	2024-11-08T00:00:00	8	Radiación solar	0
10873	7	Sololá	712	San Antonio Palopó	9	San Antonio Palopo	10	Octubre	2023-03-10T00:00:00	2024-11-08T01:00:00	2	Temperatura media	17.9
10874	7	Sololá	712	San Antonio Palopó	9	San Antonio Palopo	10	Octubre	2023-03-10T00:00:00	2024-11-08T01:00:00	4	Temperatura máxima	18.3
10875	7	Sololá	712	San Antonio Palopó	9	San Antonio Palopo	10	Octubre	2023-03-10T00:00:00	2024-11-08T01:00:00	3	Temperatura mínima	17.8
10876	7	Sololá	712	San Antonio Palopó	9	San Antonio Palopo	10	Octubre	2023-03-10T00:00:00	2024-11-08T01:00:00	5	Humedad	91
10877	7	Sololá	712	San Antonio Palopó	9	San Antonio Palopo	10	Octubre	2023-03-10T00:00:00	2024-11-08T01:00:00	6	Velocidad del viento	1.6
10878	7	Sololá	712	San Antonio Palopó	9	San Antonio Palopo	10	Octubre	2023-03-10T00:00:00	2024-11-08T01:00:00	7	Dirección del viento	1.61
10879	7	Sololá	712	San Antonio Palopó	9	San Antonio Palopo	10	Octubre	2023-03-10T00:00:00	2024-11-08T01:00:00	1	Precipitación	0
10880	7	Sololá	712	San Antonio Palopó	9	San Antonio Palopo	10	Octubre	2023-03-10T00:00:00	2024-11-08T01:00:00	8	Radiación solar	0
10881	7	Sololá	712	San Antonio Palopó	9	San Antonio Palopo	10	Octubre	2023-03-10T00:00:00	2024-11-08T02:00:00	2	Temperatura media	19.2
10882	7	Sololá	712	San Antonio Palopó	9	San Antonio Palopo	10	Octubre	2023-03-10T00:00:00	2024-11-08T02:00:00	4	Temperatura máxima	19.6
10883	7	Sololá	712	San Antonio Palopó	9	San Antonio Palopo	10	Octubre	2023-03-10T00:00:00	2024-11-08T02:00:00	3	Temperatura mínima	17.9
10884	7	Sololá	712	San Antonio Palopó	9	San Antonio Palopo	10	Octubre	2023-03-10T00:00:00	2024-11-08T02:00:00	5	Humedad	80
10885	7	Sololá	712	San Antonio Palopó	9	San Antonio Palopo	10	Octubre	2023-03-10T00:00:00	2024-11-08T02:00:00	6	Velocidad del viento	4.8
10886	7	Sololá	712	San Antonio Palopó	9	San Antonio Palopo	10	Octubre	2023-03-10T00:00:00	2024-11-08T02:00:00	7	Dirección del viento	4.83
10887	7	Sololá	712	San Antonio Palopó	9	San Antonio Palopo	10	Octubre	2023-03-10T00:00:00	2024-11-08T02:00:00	1	Precipitación	0
10888	7	Sololá	712	San Antonio Palopó	9	San Antonio Palopo	10	Octubre	2023-03-10T00:00:00	2024-11-08T02:00:00	8	Radiación solar	0
10889	7	Sololá	712	San Antonio Palopó	9	San Antonio Palopo	10	Octubre	2023-03-10T00:00:00	2024-11-08T03:00:00	2	Temperatura media	19.1
10890	7	Sololá	712	San Antonio Palopó	9	San Antonio Palopo	10	Octubre	2023-03-10T00:00:00	2024-11-08T03:00:00	4	Temperatura máxima	19.5
10891	7	Sololá	712	San Antonio Palopó	9	San Antonio Palopo	10	Octubre	2023-03-10T00:00:00	2024-11-08T03:00:00	3	Temperatura mínima	18.9
10892	7	Sololá	712	San Antonio Palopó	9	San Antonio Palopo	10	Octubre	2023-03-10T00:00:00	2024-11-08T03:00:00	5	Humedad	80
10893	7	Sololá	712	San Antonio Palopó	9	San Antonio Palopo	10	Octubre	2023-03-10T00:00:00	2024-11-08T03:00:00	6	Velocidad del viento	6.4
10894	7	Sololá	712	San Antonio Palopó	9	San Antonio Palopo	10	Octubre	2023-03-10T00:00:00	2024-11-08T03:00:00	7	Dirección del viento	6.44
10895	7	Sololá	712	San Antonio Palopó	9	San Antonio Palopo	10	Octubre	2023-03-10T00:00:00	2024-11-08T03:00:00	1	Precipitación	0
10896	7	Sololá	712	San Antonio Palopó	9	San Antonio Palopo	10	Octubre	2023-03-10T00:00:00	2024-11-08T03:00:00	8	Radiación solar	0
10897	7	Sololá	712	San Antonio Palopó	9	San Antonio Palopo	10	Octubre	2023-03-10T00:00:00	2024-11-08T04:00:00	2	Temperatura media	18.9
10898	7	Sololá	712	San Antonio Palopó	9	San Antonio Palopo	10	Octubre	2023-03-10T00:00:00	2024-11-08T04:00:00	4	Temperatura máxima	19.3
10899	7	Sololá	712	San Antonio Palopó	9	San Antonio Palopo	10	Octubre	2023-03-10T00:00:00	2024-11-08T04:00:00	3	Temperatura mínima	18.9
10900	7	Sololá	712	San Antonio Palopó	9	San Antonio Palopo	10	Octubre	2023-03-10T00:00:00	2024-11-08T04:00:00	5	Humedad	79
10901	7	Sololá	712	San Antonio Palopó	9	San Antonio Palopo	10	Octubre	2023-03-10T00:00:00	2024-11-08T04:00:00	6	Velocidad del viento	8
10902	7	Sololá	712	San Antonio Palopó	9	San Antonio Palopo	10	Octubre	2023-03-10T00:00:00	2024-11-08T04:00:00	7	Dirección del viento	8.05
10903	7	Sololá	712	San Antonio Palopó	9	San Antonio Palopo	10	Octubre	2023-03-10T00:00:00	2024-11-08T04:00:00	1	Precipitación	0
10904	7	Sololá	712	San Antonio Palopó	9	San Antonio Palopo	10	Octubre	2023-03-10T00:00:00	2024-11-08T04:00:00	8	Radiación solar	0
10905	7	Sololá	712	San Antonio Palopó	9	San Antonio Palopo	10	Octubre	2023-03-10T00:00:00	2024-11-08T05:00:00	2	Temperatura media	19.4
10906	7	Sololá	712	San Antonio Palopó	9	San Antonio Palopo	10	Octubre	2023-03-10T00:00:00	2024-11-08T05:00:00	4	Temperatura máxima	19.4
10907	7	Sololá	712	San Antonio Palopó	9	San Antonio Palopo	10	Octubre	2023-03-10T00:00:00	2024-11-08T05:00:00	3	Temperatura mínima	18.9
10908	7	Sololá	712	San Antonio Palopó	9	San Antonio Palopo	10	Octubre	2023-03-10T00:00:00	2024-11-08T05:00:00	5	Humedad	76
10909	7	Sololá	712	San Antonio Palopó	9	San Antonio Palopo	10	Octubre	2023-03-10T00:00:00	2024-11-08T05:00:00	6	Velocidad del viento	6.4
10910	7	Sololá	712	San Antonio Palopó	9	San Antonio Palopo	10	Octubre	2023-03-10T00:00:00	2024-11-08T05:00:00	7	Dirección del viento	6.44
10911	7	Sololá	712	San Antonio Palopó	9	San Antonio Palopo	10	Octubre	2023-03-10T00:00:00	2024-11-08T05:00:00	1	Precipitación	0
10912	7	Sololá	712	San Antonio Palopó	9	San Antonio Palopo	10	Octubre	2023-03-10T00:00:00	2024-11-08T05:00:00	8	Radiación solar	0
10913	7	Sololá	712	San Antonio Palopó	9	San Antonio Palopo	10	Octubre	2023-03-10T00:00:00	2024-11-08T06:00:00	2	Temperatura media	19.4
10914	7	Sololá	712	San Antonio Palopó	9	San Antonio Palopo	10	Octubre	2023-03-10T00:00:00	2024-11-08T06:00:00	4	Temperatura máxima	19.4
10915	7	Sololá	712	San Antonio Palopó	9	San Antonio Palopo	10	Octubre	2023-03-10T00:00:00	2024-11-08T06:00:00	3	Temperatura mínima	19.1
10916	7	Sololá	712	San Antonio Palopó	9	San Antonio Palopo	10	Octubre	2023-03-10T00:00:00	2024-11-08T06:00:00	5	Humedad	76
10917	7	Sololá	712	San Antonio Palopó	9	San Antonio Palopo	10	Octubre	2023-03-10T00:00:00	2024-11-08T06:00:00	6	Velocidad del viento	8
10918	7	Sololá	712	San Antonio Palopó	9	San Antonio Palopo	10	Octubre	2023-03-10T00:00:00	2024-11-08T06:00:00	7	Dirección del viento	8.05
10919	7	Sololá	712	San Antonio Palopó	9	San Antonio Palopo	10	Octubre	2023-03-10T00:00:00	2024-11-08T06:00:00	1	Precipitación	0
10920	7	Sololá	712	San Antonio Palopó	9	San Antonio Palopo	10	Octubre	2023-03-10T00:00:00	2024-11-08T06:00:00	8	Radiación solar	1
10921	7	Sololá	712	San Antonio Palopó	9	San Antonio Palopo	10	Octubre	2023-03-10T00:00:00	2024-11-08T07:00:00	2	Temperatura media	19.8
10922	7	Sololá	712	San Antonio Palopó	9	San Antonio Palopo	10	Octubre	2023-03-10T00:00:00	2024-11-08T07:00:00	4	Temperatura máxima	19.8
10923	7	Sololá	712	San Antonio Palopó	9	San Antonio Palopo	10	Octubre	2023-03-10T00:00:00	2024-11-08T07:00:00	3	Temperatura mínima	19.3
10924	7	Sololá	712	San Antonio Palopó	9	San Antonio Palopo	10	Octubre	2023-03-10T00:00:00	2024-11-08T07:00:00	5	Humedad	75
10925	7	Sololá	712	San Antonio Palopó	9	San Antonio Palopo	10	Octubre	2023-03-10T00:00:00	2024-11-08T07:00:00	6	Velocidad del viento	9.7
10926	7	Sololá	712	San Antonio Palopó	9	San Antonio Palopo	10	Octubre	2023-03-10T00:00:00	2024-11-08T07:00:00	7	Dirección del viento	9.66
10927	7	Sololá	712	San Antonio Palopó	9	San Antonio Palopo	10	Octubre	2023-03-10T00:00:00	2024-11-08T07:00:00	1	Precipitación	0
10928	7	Sololá	712	San Antonio Palopó	9	San Antonio Palopo	10	Octubre	2023-03-10T00:00:00	2024-11-08T07:00:00	8	Radiación solar	22
10929	7	Sololá	712	San Antonio Palopó	9	San Antonio Palopo	10	Octubre	2023-03-10T00:00:00	2024-11-08T08:00:00	2	Temperatura media	20.2
10930	7	Sololá	712	San Antonio Palopó	9	San Antonio Palopo	10	Octubre	2023-03-10T00:00:00	2024-11-08T08:00:00	4	Temperatura máxima	20.2
10931	7	Sololá	712	San Antonio Palopó	9	San Antonio Palopo	10	Octubre	2023-03-10T00:00:00	2024-11-08T08:00:00	3	Temperatura mínima	19.3
10932	7	Sololá	712	San Antonio Palopó	9	San Antonio Palopo	10	Octubre	2023-03-10T00:00:00	2024-11-08T08:00:00	5	Humedad	79
10933	7	Sololá	712	San Antonio Palopó	9	San Antonio Palopo	10	Octubre	2023-03-10T00:00:00	2024-11-08T08:00:00	6	Velocidad del viento	4.8
10934	7	Sololá	712	San Antonio Palopó	9	San Antonio Palopo	10	Octubre	2023-03-10T00:00:00	2024-11-08T08:00:00	7	Dirección del viento	4.83
10935	7	Sololá	712	San Antonio Palopó	9	San Antonio Palopo	10	Octubre	2023-03-10T00:00:00	2024-11-08T08:00:00	1	Precipitación	0
10936	7	Sololá	712	San Antonio Palopó	9	San Antonio Palopo	10	Octubre	2023-03-10T00:00:00	2024-11-08T08:00:00	8	Radiación solar	141
10937	7	Sololá	712	San Antonio Palopó	9	San Antonio Palopo	10	Octubre	2023-03-10T00:00:00	2024-11-08T09:00:00	2	Temperatura media	21.5
10938	7	Sololá	712	San Antonio Palopó	9	San Antonio Palopo	10	Octubre	2023-03-10T00:00:00	2024-11-08T09:00:00	4	Temperatura máxima	22.4
10939	7	Sololá	712	San Antonio Palopó	9	San Antonio Palopo	10	Octubre	2023-03-10T00:00:00	2024-11-08T09:00:00	3	Temperatura mínima	20.3
10940	7	Sololá	712	San Antonio Palopó	9	San Antonio Palopo	10	Octubre	2023-03-10T00:00:00	2024-11-08T09:00:00	5	Humedad	74
10941	7	Sololá	712	San Antonio Palopó	9	San Antonio Palopo	10	Octubre	2023-03-10T00:00:00	2024-11-08T09:00:00	6	Velocidad del viento	1.6
10942	7	Sololá	712	San Antonio Palopó	9	San Antonio Palopo	10	Octubre	2023-03-10T00:00:00	2024-11-08T09:00:00	7	Dirección del viento	1.61
10943	7	Sololá	712	San Antonio Palopó	9	San Antonio Palopo	10	Octubre	2023-03-10T00:00:00	2024-11-08T09:00:00	1	Precipitación	0
10944	7	Sololá	712	San Antonio Palopó	9	San Antonio Palopo	10	Octubre	2023-03-10T00:00:00	2024-11-08T09:00:00	8	Radiación solar	308
10945	7	Sololá	712	San Antonio Palopó	9	San Antonio Palopo	10	Octubre	2023-03-10T00:00:00	2024-11-08T10:00:00	2	Temperatura media	21.8
10946	7	Sololá	712	San Antonio Palopó	9	San Antonio Palopo	10	Octubre	2023-03-10T00:00:00	2024-11-08T10:00:00	4	Temperatura máxima	21.8
10947	7	Sololá	712	San Antonio Palopó	9	San Antonio Palopo	10	Octubre	2023-03-10T00:00:00	2024-11-08T10:00:00	3	Temperatura mínima	21.2
10948	7	Sololá	712	San Antonio Palopó	9	San Antonio Palopo	10	Octubre	2023-03-10T00:00:00	2024-11-08T10:00:00	5	Humedad	72
10949	7	Sololá	712	San Antonio Palopó	9	San Antonio Palopo	10	Octubre	2023-03-10T00:00:00	2024-11-08T10:00:00	6	Velocidad del viento	3.2
10950	7	Sololá	712	San Antonio Palopó	9	San Antonio Palopo	10	Octubre	2023-03-10T00:00:00	2024-11-08T10:00:00	7	Dirección del viento	3.22
10951	7	Sololá	712	San Antonio Palopó	9	San Antonio Palopo	10	Octubre	2023-03-10T00:00:00	2024-11-08T10:00:00	1	Precipitación	0
10952	7	Sololá	712	San Antonio Palopó	9	San Antonio Palopo	10	Octubre	2023-03-10T00:00:00	2024-11-08T10:00:00	8	Radiación solar	238
10953	7	Sololá	712	San Antonio Palopó	9	San Antonio Palopo	10	Octubre	2023-03-10T00:00:00	2024-11-08T11:00:00	2	Temperatura media	23.8
10954	7	Sololá	712	San Antonio Palopó	9	San Antonio Palopo	10	Octubre	2023-03-10T00:00:00	2024-11-08T11:00:00	4	Temperatura máxima	23.9
10955	7	Sololá	712	San Antonio Palopó	9	San Antonio Palopo	10	Octubre	2023-03-10T00:00:00	2024-11-08T11:00:00	3	Temperatura mínima	21.8
10956	7	Sololá	712	San Antonio Palopó	9	San Antonio Palopo	10	Octubre	2023-03-10T00:00:00	2024-11-08T11:00:00	5	Humedad	72
10957	7	Sololá	712	San Antonio Palopó	9	San Antonio Palopo	10	Octubre	2023-03-10T00:00:00	2024-11-08T11:00:00	6	Velocidad del viento	3.2
10958	7	Sololá	712	San Antonio Palopó	9	San Antonio Palopo	10	Octubre	2023-03-10T00:00:00	2024-11-08T11:00:00	7	Dirección del viento	3.22
10959	7	Sololá	712	San Antonio Palopó	9	San Antonio Palopo	10	Octubre	2023-03-10T00:00:00	2024-11-08T11:00:00	1	Precipitación	0
10960	7	Sololá	712	San Antonio Palopó	9	San Antonio Palopo	10	Octubre	2023-03-10T00:00:00	2024-11-08T11:00:00	8	Radiación solar	390
10961	7	Sololá	712	San Antonio Palopó	9	San Antonio Palopo	10	Octubre	2023-03-10T00:00:00	2024-11-08T12:00:00	2	Temperatura media	23.3
10962	7	Sololá	712	San Antonio Palopó	9	San Antonio Palopo	10	Octubre	2023-03-10T00:00:00	2024-11-08T12:00:00	4	Temperatura máxima	24.4
10963	7	Sololá	712	San Antonio Palopó	9	San Antonio Palopo	10	Octubre	2023-03-10T00:00:00	2024-11-08T12:00:00	3	Temperatura mínima	23.1
10964	7	Sololá	712	San Antonio Palopó	9	San Antonio Palopo	10	Octubre	2023-03-10T00:00:00	2024-11-08T12:00:00	5	Humedad	75
10965	7	Sololá	712	San Antonio Palopó	9	San Antonio Palopo	10	Octubre	2023-03-10T00:00:00	2024-11-08T12:00:00	6	Velocidad del viento	3.2
10966	7	Sololá	712	San Antonio Palopó	9	San Antonio Palopo	10	Octubre	2023-03-10T00:00:00	2024-11-08T12:00:00	7	Dirección del viento	3.22
10967	7	Sololá	712	San Antonio Palopó	9	San Antonio Palopo	10	Octubre	2023-03-10T00:00:00	2024-11-08T12:00:00	1	Precipitación	0
10968	7	Sololá	712	San Antonio Palopó	9	San Antonio Palopo	10	Octubre	2023-03-10T00:00:00	2024-11-08T12:00:00	8	Radiación solar	467
10969	7	Sololá	712	San Antonio Palopó	9	San Antonio Palopo	10	Octubre	2023-03-10T00:00:00	2024-11-08T13:00:00	2	Temperatura media	24
10970	7	Sololá	712	San Antonio Palopó	9	San Antonio Palopo	10	Octubre	2023-03-10T00:00:00	2024-11-08T13:00:00	4	Temperatura máxima	24.2
10971	7	Sololá	712	San Antonio Palopó	9	San Antonio Palopo	10	Octubre	2023-03-10T00:00:00	2024-11-08T13:00:00	3	Temperatura mínima	23.3
10972	7	Sololá	712	San Antonio Palopó	9	San Antonio Palopo	10	Octubre	2023-03-10T00:00:00	2024-11-08T13:00:00	5	Humedad	77
10973	7	Sololá	712	San Antonio Palopó	9	San Antonio Palopo	10	Octubre	2023-03-10T00:00:00	2024-11-08T13:00:00	6	Velocidad del viento	6.4
10974	7	Sololá	712	San Antonio Palopó	9	San Antonio Palopo	10	Octubre	2023-03-10T00:00:00	2024-11-08T13:00:00	7	Dirección del viento	6.44
10975	7	Sololá	712	San Antonio Palopó	9	San Antonio Palopo	10	Octubre	2023-03-10T00:00:00	2024-11-08T13:00:00	1	Precipitación	0
10976	7	Sololá	712	San Antonio Palopó	9	San Antonio Palopo	10	Octubre	2023-03-10T00:00:00	2024-11-08T13:00:00	8	Radiación solar	818
10977	7	Sololá	712	San Antonio Palopó	9	San Antonio Palopo	10	Octubre	2023-03-10T00:00:00	2024-11-08T14:00:00	2	Temperatura media	22.8
10978	7	Sololá	712	San Antonio Palopó	9	San Antonio Palopo	10	Octubre	2023-03-10T00:00:00	2024-11-08T14:00:00	4	Temperatura máxima	24.1
10979	7	Sololá	712	San Antonio Palopó	9	San Antonio Palopo	10	Octubre	2023-03-10T00:00:00	2024-11-08T14:00:00	3	Temperatura mínima	22.8
10980	7	Sololá	712	San Antonio Palopó	9	San Antonio Palopo	10	Octubre	2023-03-10T00:00:00	2024-11-08T14:00:00	5	Humedad	79
10981	7	Sololá	712	San Antonio Palopó	9	San Antonio Palopo	10	Octubre	2023-03-10T00:00:00	2024-11-08T14:00:00	6	Velocidad del viento	6.4
10982	7	Sololá	712	San Antonio Palopó	9	San Antonio Palopo	10	Octubre	2023-03-10T00:00:00	2024-11-08T14:00:00	7	Dirección del viento	6.44
10983	7	Sololá	712	San Antonio Palopó	9	San Antonio Palopo	10	Octubre	2023-03-10T00:00:00	2024-11-08T14:00:00	1	Precipitación	0
10984	7	Sololá	712	San Antonio Palopó	9	San Antonio Palopo	10	Octubre	2023-03-10T00:00:00	2024-11-08T14:00:00	8	Radiación solar	273
10985	7	Sololá	712	San Antonio Palopó	9	San Antonio Palopo	10	Octubre	2023-03-10T00:00:00	2024-11-08T15:00:00	2	Temperatura media	22.4
10986	7	Sololá	712	San Antonio Palopó	9	San Antonio Palopo	10	Octubre	2023-03-10T00:00:00	2024-11-08T15:00:00	4	Temperatura máxima	23.5
10987	7	Sololá	712	San Antonio Palopó	9	San Antonio Palopo	10	Octubre	2023-03-10T00:00:00	2024-11-08T15:00:00	3	Temperatura mínima	22.4
10988	7	Sololá	712	San Antonio Palopó	9	San Antonio Palopo	10	Octubre	2023-03-10T00:00:00	2024-11-08T15:00:00	5	Humedad	79
10989	7	Sololá	712	San Antonio Palopó	9	San Antonio Palopo	10	Octubre	2023-03-10T00:00:00	2024-11-08T15:00:00	6	Velocidad del viento	6.4
10990	7	Sololá	712	San Antonio Palopó	9	San Antonio Palopo	10	Octubre	2023-03-10T00:00:00	2024-11-08T15:00:00	7	Dirección del viento	6.44
10991	7	Sololá	712	San Antonio Palopó	9	San Antonio Palopo	10	Octubre	2023-03-10T00:00:00	2024-11-08T15:00:00	1	Precipitación	0
10992	7	Sololá	712	San Antonio Palopó	9	San Antonio Palopo	10	Octubre	2023-03-10T00:00:00	2024-11-08T15:00:00	8	Radiación solar	283
10993	7	Sololá	712	San Antonio Palopó	9	San Antonio Palopo	10	Octubre	2023-03-10T00:00:00	2024-11-08T16:00:00	2	Temperatura media	20.7
10994	7	Sololá	712	San Antonio Palopó	9	San Antonio Palopo	10	Octubre	2023-03-10T00:00:00	2024-11-08T16:00:00	4	Temperatura máxima	22.5
10995	7	Sololá	712	San Antonio Palopó	9	San Antonio Palopo	10	Octubre	2023-03-10T00:00:00	2024-11-08T16:00:00	3	Temperatura mínima	20.6
10996	7	Sololá	712	San Antonio Palopó	9	San Antonio Palopo	10	Octubre	2023-03-10T00:00:00	2024-11-08T16:00:00	5	Humedad	82
10997	7	Sololá	712	San Antonio Palopó	9	San Antonio Palopo	10	Octubre	2023-03-10T00:00:00	2024-11-08T16:00:00	6	Velocidad del viento	9.7
10998	7	Sololá	712	San Antonio Palopó	9	San Antonio Palopo	10	Octubre	2023-03-10T00:00:00	2024-11-08T16:00:00	7	Dirección del viento	9.66
10999	7	Sololá	712	San Antonio Palopó	9	San Antonio Palopo	10	Octubre	2023-03-10T00:00:00	2024-11-08T16:00:00	1	Precipitación	0
11000	7	Sololá	712	San Antonio Palopó	9	San Antonio Palopo	10	Octubre	2023-03-10T00:00:00	2024-11-08T16:00:00	8	Radiación solar	161
11001	7	Sololá	712	San Antonio Palopó	9	San Antonio Palopo	10	Octubre	2023-03-10T00:00:00	2024-11-08T17:00:00	2	Temperatura media	20.2
11002	7	Sololá	712	San Antonio Palopó	9	San Antonio Palopo	10	Octubre	2023-03-10T00:00:00	2024-11-08T17:00:00	4	Temperatura máxima	20.8
11003	7	Sololá	712	San Antonio Palopó	9	San Antonio Palopo	10	Octubre	2023-03-10T00:00:00	2024-11-08T17:00:00	3	Temperatura mínima	20.2
11004	7	Sololá	712	San Antonio Palopó	9	San Antonio Palopo	10	Octubre	2023-03-10T00:00:00	2024-11-08T17:00:00	5	Humedad	83
11005	7	Sololá	712	San Antonio Palopó	9	San Antonio Palopo	10	Octubre	2023-03-10T00:00:00	2024-11-08T17:00:00	6	Velocidad del viento	8
11006	7	Sololá	712	San Antonio Palopó	9	San Antonio Palopo	10	Octubre	2023-03-10T00:00:00	2024-11-08T17:00:00	7	Dirección del viento	8.05
11007	7	Sololá	712	San Antonio Palopó	9	San Antonio Palopo	10	Octubre	2023-03-10T00:00:00	2024-11-08T17:00:00	1	Precipitación	0
11008	7	Sololá	712	San Antonio Palopó	9	San Antonio Palopo	10	Octubre	2023-03-10T00:00:00	2024-11-08T17:00:00	8	Radiación solar	11
11009	7	Sololá	712	San Antonio Palopó	9	San Antonio Palopo	10	Octubre	2023-03-10T00:00:00	2024-11-08T18:00:00	2	Temperatura media	19.3
11010	7	Sololá	712	San Antonio Palopó	9	San Antonio Palopo	10	Octubre	2023-03-10T00:00:00	2024-11-08T18:00:00	4	Temperatura máxima	20.2
11011	7	Sololá	712	San Antonio Palopó	9	San Antonio Palopo	10	Octubre	2023-03-10T00:00:00	2024-11-08T18:00:00	3	Temperatura mínima	19.3
11012	7	Sololá	712	San Antonio Palopó	9	San Antonio Palopo	10	Octubre	2023-03-10T00:00:00	2024-11-08T18:00:00	5	Humedad	89
11013	7	Sololá	712	San Antonio Palopó	9	San Antonio Palopo	10	Octubre	2023-03-10T00:00:00	2024-11-08T18:00:00	6	Velocidad del viento	4.8
11014	7	Sololá	712	San Antonio Palopó	9	San Antonio Palopo	10	Octubre	2023-03-10T00:00:00	2024-11-08T18:00:00	7	Dirección del viento	4.83
11015	7	Sololá	712	San Antonio Palopó	9	San Antonio Palopo	10	Octubre	2023-03-10T00:00:00	2024-11-08T18:00:00	1	Precipitación	0.6
11016	7	Sololá	712	San Antonio Palopó	9	San Antonio Palopo	10	Octubre	2023-03-10T00:00:00	2024-11-08T18:00:00	8	Radiación solar	0
11017	7	Sololá	712	San Antonio Palopó	9	San Antonio Palopo	10	Octubre	2023-03-10T00:00:00	2024-11-08T19:00:00	2	Temperatura media	19.2
11018	7	Sololá	712	San Antonio Palopó	9	San Antonio Palopo	10	Octubre	2023-03-10T00:00:00	2024-11-08T19:00:00	4	Temperatura máxima	19.4
11019	7	Sololá	712	San Antonio Palopó	9	San Antonio Palopo	10	Octubre	2023-03-10T00:00:00	2024-11-08T19:00:00	3	Temperatura mínima	19
11020	7	Sololá	712	San Antonio Palopó	9	San Antonio Palopo	10	Octubre	2023-03-10T00:00:00	2024-11-08T19:00:00	5	Humedad	91
11021	7	Sololá	712	San Antonio Palopó	9	San Antonio Palopo	10	Octubre	2023-03-10T00:00:00	2024-11-08T19:00:00	6	Velocidad del viento	3.2
11022	7	Sololá	712	San Antonio Palopó	9	San Antonio Palopo	10	Octubre	2023-03-10T00:00:00	2024-11-08T19:00:00	7	Dirección del viento	3.22
11023	7	Sololá	712	San Antonio Palopó	9	San Antonio Palopo	10	Octubre	2023-03-10T00:00:00	2024-11-08T19:00:00	1	Precipitación	0
11024	7	Sololá	712	San Antonio Palopó	9	San Antonio Palopo	10	Octubre	2023-03-10T00:00:00	2024-11-08T19:00:00	8	Radiación solar	0
11025	7	Sololá	712	San Antonio Palopó	9	San Antonio Palopo	10	Octubre	2023-03-10T00:00:00	2024-11-08T20:00:00	2	Temperatura media	19.4
11026	7	Sololá	712	San Antonio Palopó	9	San Antonio Palopo	10	Octubre	2023-03-10T00:00:00	2024-11-08T20:00:00	4	Temperatura máxima	19.4
11027	7	Sololá	712	San Antonio Palopó	9	San Antonio Palopo	10	Octubre	2023-03-10T00:00:00	2024-11-08T20:00:00	3	Temperatura mínima	19.2
11028	7	Sololá	712	San Antonio Palopó	9	San Antonio Palopo	10	Octubre	2023-03-10T00:00:00	2024-11-08T20:00:00	5	Humedad	91
11029	7	Sololá	712	San Antonio Palopó	9	San Antonio Palopo	10	Octubre	2023-03-10T00:00:00	2024-11-08T20:00:00	6	Velocidad del viento	0
11030	7	Sololá	712	San Antonio Palopó	9	San Antonio Palopo	10	Octubre	2023-03-10T00:00:00	2024-11-08T20:00:00	7	Dirección del viento	0
11031	7	Sololá	712	San Antonio Palopó	9	San Antonio Palopo	10	Octubre	2023-03-10T00:00:00	2024-11-08T20:00:00	1	Precipitación	0
11032	7	Sololá	712	San Antonio Palopó	9	San Antonio Palopo	10	Octubre	2023-03-10T00:00:00	2024-11-08T20:00:00	8	Radiación solar	0
11033	7	Sololá	712	San Antonio Palopó	9	San Antonio Palopo	10	Octubre	2023-03-10T00:00:00	2024-11-08T21:00:00	2	Temperatura media	18.8
11034	7	Sololá	712	San Antonio Palopó	9	San Antonio Palopo	10	Octubre	2023-03-10T00:00:00	2024-11-08T21:00:00	4	Temperatura máxima	19.5
11035	7	Sololá	712	San Antonio Palopó	9	San Antonio Palopo	10	Octubre	2023-03-10T00:00:00	2024-11-08T21:00:00	3	Temperatura mínima	18.8
11036	7	Sololá	712	San Antonio Palopó	9	San Antonio Palopo	10	Octubre	2023-03-10T00:00:00	2024-11-08T21:00:00	5	Humedad	92
11037	7	Sololá	712	San Antonio Palopó	9	San Antonio Palopo	10	Octubre	2023-03-10T00:00:00	2024-11-08T21:00:00	6	Velocidad del viento	3.2
11038	7	Sololá	712	San Antonio Palopó	9	San Antonio Palopo	10	Octubre	2023-03-10T00:00:00	2024-11-08T21:00:00	7	Dirección del viento	3.22
11039	7	Sololá	712	San Antonio Palopó	9	San Antonio Palopo	10	Octubre	2023-03-10T00:00:00	2024-11-08T21:00:00	1	Precipitación	8.4
11040	7	Sololá	712	San Antonio Palopó	9	San Antonio Palopo	10	Octubre	2023-03-10T00:00:00	2024-11-08T21:00:00	8	Radiación solar	0
11041	7	Sololá	712	San Antonio Palopó	9	San Antonio Palopo	10	Octubre	2023-03-10T00:00:00	2024-11-08T22:00:00	2	Temperatura media	18.8
11042	7	Sololá	712	San Antonio Palopó	9	San Antonio Palopo	10	Octubre	2023-03-10T00:00:00	2024-11-08T22:00:00	4	Temperatura máxima	18.9
11043	7	Sololá	712	San Antonio Palopó	9	San Antonio Palopo	10	Octubre	2023-03-10T00:00:00	2024-11-08T22:00:00	3	Temperatura mínima	18.7
11044	7	Sololá	712	San Antonio Palopó	9	San Antonio Palopo	10	Octubre	2023-03-10T00:00:00	2024-11-08T22:00:00	5	Humedad	92
11045	7	Sololá	712	San Antonio Palopó	9	San Antonio Palopo	10	Octubre	2023-03-10T00:00:00	2024-11-08T22:00:00	6	Velocidad del viento	1.6
11046	7	Sololá	712	San Antonio Palopó	9	San Antonio Palopo	10	Octubre	2023-03-10T00:00:00	2024-11-08T22:00:00	7	Dirección del viento	1.61
11047	7	Sololá	712	San Antonio Palopó	9	San Antonio Palopo	10	Octubre	2023-03-10T00:00:00	2024-11-08T22:00:00	1	Precipitación	2
11048	7	Sololá	712	San Antonio Palopó	9	San Antonio Palopo	10	Octubre	2023-03-10T00:00:00	2024-11-08T22:00:00	8	Radiación solar	0
11049	7	Sololá	712	San Antonio Palopó	9	San Antonio Palopo	10	Octubre	2023-03-10T00:00:00	2024-11-08T23:00:00	2	Temperatura media	18.7
11050	7	Sololá	712	San Antonio Palopó	9	San Antonio Palopo	10	Octubre	2023-03-10T00:00:00	2024-11-08T23:00:00	4	Temperatura máxima	18.9
11051	7	Sololá	712	San Antonio Palopó	9	San Antonio Palopo	10	Octubre	2023-03-10T00:00:00	2024-11-08T23:00:00	3	Temperatura mínima	18.4
11052	7	Sololá	712	San Antonio Palopó	9	San Antonio Palopo	10	Octubre	2023-03-10T00:00:00	2024-11-08T23:00:00	5	Humedad	86
11053	7	Sololá	712	San Antonio Palopó	9	San Antonio Palopo	10	Octubre	2023-03-10T00:00:00	2024-11-08T23:00:00	6	Velocidad del viento	1.6
11054	7	Sololá	712	San Antonio Palopó	9	San Antonio Palopo	10	Octubre	2023-03-10T00:00:00	2024-11-08T23:00:00	7	Dirección del viento	1.61
11055	7	Sololá	712	San Antonio Palopó	9	San Antonio Palopo	10	Octubre	2023-03-10T00:00:00	2024-11-08T23:00:00	1	Precipitación	2
11056	7	Sololá	712	San Antonio Palopó	9	San Antonio Palopo	10	Octubre	2023-03-10T00:00:00	2024-11-08T23:00:00	8	Radiación solar	0
11057	7	Sololá	712	San Antonio Palopó	9	San Antonio Palopo	10	Octubre	2023-04-10T00:00:00	2024-11-08T00:00:00	2	Temperatura media	19.2
11058	7	Sololá	712	San Antonio Palopó	9	San Antonio Palopo	10	Octubre	2023-04-10T00:00:00	2024-11-08T00:00:00	4	Temperatura máxima	19.2
11059	7	Sololá	712	San Antonio Palopó	9	San Antonio Palopo	10	Octubre	2023-04-10T00:00:00	2024-11-08T00:00:00	3	Temperatura mínima	18.3
11060	7	Sololá	712	San Antonio Palopó	9	San Antonio Palopo	10	Octubre	2023-04-10T00:00:00	2024-11-08T00:00:00	5	Humedad	81
11061	7	Sololá	712	San Antonio Palopó	9	San Antonio Palopo	10	Octubre	2023-04-10T00:00:00	2024-11-08T00:00:00	6	Velocidad del viento	3.2
11062	7	Sololá	712	San Antonio Palopó	9	San Antonio Palopo	10	Octubre	2023-04-10T00:00:00	2024-11-08T00:00:00	7	Dirección del viento	3.22
11063	7	Sololá	712	San Antonio Palopó	9	San Antonio Palopo	10	Octubre	2023-04-10T00:00:00	2024-11-08T00:00:00	1	Precipitación	0
11064	7	Sololá	712	San Antonio Palopó	9	San Antonio Palopo	10	Octubre	2023-04-10T00:00:00	2024-11-08T00:00:00	8	Radiación solar	0
11065	7	Sololá	712	San Antonio Palopó	9	San Antonio Palopo	10	Octubre	2023-04-10T00:00:00	2024-11-08T01:00:00	2	Temperatura media	18.8
11066	7	Sololá	712	San Antonio Palopó	9	San Antonio Palopo	10	Octubre	2023-04-10T00:00:00	2024-11-08T01:00:00	4	Temperatura máxima	19.3
11067	7	Sololá	712	San Antonio Palopó	9	San Antonio Palopo	10	Octubre	2023-04-10T00:00:00	2024-11-08T01:00:00	3	Temperatura mínima	18.8
11068	7	Sololá	712	San Antonio Palopó	9	San Antonio Palopo	10	Octubre	2023-04-10T00:00:00	2024-11-08T01:00:00	5	Humedad	84
11069	7	Sololá	712	San Antonio Palopó	9	San Antonio Palopo	10	Octubre	2023-04-10T00:00:00	2024-11-08T01:00:00	6	Velocidad del viento	6.4
11070	7	Sololá	712	San Antonio Palopó	9	San Antonio Palopo	10	Octubre	2023-04-10T00:00:00	2024-11-08T01:00:00	7	Dirección del viento	6.44
11071	7	Sololá	712	San Antonio Palopó	9	San Antonio Palopo	10	Octubre	2023-04-10T00:00:00	2024-11-08T01:00:00	1	Precipitación	0
11072	7	Sololá	712	San Antonio Palopó	9	San Antonio Palopo	10	Octubre	2023-04-10T00:00:00	2024-11-08T01:00:00	8	Radiación solar	0
11073	7	Sololá	712	San Antonio Palopó	9	San Antonio Palopo	10	Octubre	2023-04-10T00:00:00	2024-11-08T02:00:00	2	Temperatura media	18.1
11074	7	Sololá	712	San Antonio Palopó	9	San Antonio Palopo	10	Octubre	2023-04-10T00:00:00	2024-11-08T02:00:00	4	Temperatura máxima	18.8
11075	7	Sololá	712	San Antonio Palopó	9	San Antonio Palopo	10	Octubre	2023-04-10T00:00:00	2024-11-08T02:00:00	3	Temperatura mínima	17.8
11076	7	Sololá	712	San Antonio Palopó	9	San Antonio Palopo	10	Octubre	2023-04-10T00:00:00	2024-11-08T02:00:00	5	Humedad	90
11077	7	Sololá	712	San Antonio Palopó	9	San Antonio Palopo	10	Octubre	2023-04-10T00:00:00	2024-11-08T02:00:00	6	Velocidad del viento	4.8
11078	7	Sololá	712	San Antonio Palopó	9	San Antonio Palopo	10	Octubre	2023-04-10T00:00:00	2024-11-08T02:00:00	7	Dirección del viento	4.83
11079	7	Sololá	712	San Antonio Palopó	9	San Antonio Palopo	10	Octubre	2023-04-10T00:00:00	2024-11-08T02:00:00	1	Precipitación	0
11080	7	Sololá	712	San Antonio Palopó	9	San Antonio Palopo	10	Octubre	2023-04-10T00:00:00	2024-11-08T02:00:00	8	Radiación solar	0
11081	7	Sololá	712	San Antonio Palopó	9	San Antonio Palopo	10	Octubre	2023-04-10T00:00:00	2024-11-08T03:00:00	2	Temperatura media	18.8
11082	7	Sololá	712	San Antonio Palopó	9	San Antonio Palopo	10	Octubre	2023-04-10T00:00:00	2024-11-08T03:00:00	4	Temperatura máxima	18.8
11083	7	Sololá	712	San Antonio Palopó	9	San Antonio Palopo	10	Octubre	2023-04-10T00:00:00	2024-11-08T03:00:00	3	Temperatura mínima	18
11084	7	Sololá	712	San Antonio Palopó	9	San Antonio Palopo	10	Octubre	2023-04-10T00:00:00	2024-11-08T03:00:00	5	Humedad	84
11085	7	Sololá	712	San Antonio Palopó	9	San Antonio Palopo	10	Octubre	2023-04-10T00:00:00	2024-11-08T03:00:00	6	Velocidad del viento	3.2
11086	7	Sololá	712	San Antonio Palopó	9	San Antonio Palopo	10	Octubre	2023-04-10T00:00:00	2024-11-08T03:00:00	7	Dirección del viento	3.22
11087	7	Sololá	712	San Antonio Palopó	9	San Antonio Palopo	10	Octubre	2023-04-10T00:00:00	2024-11-08T03:00:00	1	Precipitación	0
11088	7	Sololá	712	San Antonio Palopó	9	San Antonio Palopo	10	Octubre	2023-04-10T00:00:00	2024-11-08T03:00:00	8	Radiación solar	0
11089	7	Sololá	712	San Antonio Palopó	9	San Antonio Palopo	10	Octubre	2023-04-10T00:00:00	2024-11-08T04:00:00	2	Temperatura media	18.6
11090	7	Sololá	712	San Antonio Palopó	9	San Antonio Palopo	10	Octubre	2023-04-10T00:00:00	2024-11-08T04:00:00	4	Temperatura máxima	18.9
11091	7	Sololá	712	San Antonio Palopó	9	San Antonio Palopo	10	Octubre	2023-04-10T00:00:00	2024-11-08T04:00:00	3	Temperatura mínima	18.2
11092	7	Sololá	712	San Antonio Palopó	9	San Antonio Palopo	10	Octubre	2023-04-10T00:00:00	2024-11-08T04:00:00	5	Humedad	84
11093	7	Sololá	712	San Antonio Palopó	9	San Antonio Palopo	10	Octubre	2023-04-10T00:00:00	2024-11-08T04:00:00	6	Velocidad del viento	3.2
11094	7	Sololá	712	San Antonio Palopó	9	San Antonio Palopo	10	Octubre	2023-04-10T00:00:00	2024-11-08T04:00:00	7	Dirección del viento	3.22
11095	7	Sololá	712	San Antonio Palopó	9	San Antonio Palopo	10	Octubre	2023-04-10T00:00:00	2024-11-08T04:00:00	1	Precipitación	0
11096	7	Sololá	712	San Antonio Palopó	9	San Antonio Palopo	10	Octubre	2023-04-10T00:00:00	2024-11-08T04:00:00	8	Radiación solar	0
11097	7	Sololá	712	San Antonio Palopó	9	San Antonio Palopo	10	Octubre	2023-04-10T00:00:00	2024-11-08T05:00:00	2	Temperatura media	18.2
11098	7	Sololá	712	San Antonio Palopó	9	San Antonio Palopo	10	Octubre	2023-04-10T00:00:00	2024-11-08T05:00:00	4	Temperatura máxima	18.6
11099	7	Sololá	712	San Antonio Palopó	9	San Antonio Palopo	10	Octubre	2023-04-10T00:00:00	2024-11-08T05:00:00	3	Temperatura mínima	17.8
11100	7	Sololá	712	San Antonio Palopó	9	San Antonio Palopo	10	Octubre	2023-04-10T00:00:00	2024-11-08T05:00:00	5	Humedad	85
11101	7	Sololá	712	San Antonio Palopó	9	San Antonio Palopo	10	Octubre	2023-04-10T00:00:00	2024-11-08T05:00:00	6	Velocidad del viento	3.2
11102	7	Sololá	712	San Antonio Palopó	9	San Antonio Palopo	10	Octubre	2023-04-10T00:00:00	2024-11-08T05:00:00	7	Dirección del viento	3.22
11103	7	Sololá	712	San Antonio Palopó	9	San Antonio Palopo	10	Octubre	2023-04-10T00:00:00	2024-11-08T05:00:00	1	Precipitación	0
11104	7	Sololá	712	San Antonio Palopó	9	San Antonio Palopo	10	Octubre	2023-04-10T00:00:00	2024-11-08T05:00:00	8	Radiación solar	0
11105	7	Sololá	712	San Antonio Palopó	9	San Antonio Palopo	10	Octubre	2023-04-10T00:00:00	2024-11-08T06:00:00	2	Temperatura media	17.9
11106	7	Sololá	712	San Antonio Palopó	9	San Antonio Palopo	10	Octubre	2023-04-10T00:00:00	2024-11-08T06:00:00	4	Temperatura máxima	18.7
11107	7	Sololá	712	San Antonio Palopó	9	San Antonio Palopo	10	Octubre	2023-04-10T00:00:00	2024-11-08T06:00:00	3	Temperatura mínima	17.9
11108	7	Sololá	712	San Antonio Palopó	9	San Antonio Palopo	10	Octubre	2023-04-10T00:00:00	2024-11-08T06:00:00	5	Humedad	86
11109	7	Sololá	712	San Antonio Palopó	9	San Antonio Palopo	10	Octubre	2023-04-10T00:00:00	2024-11-08T06:00:00	6	Velocidad del viento	3.2
11110	7	Sololá	712	San Antonio Palopó	9	San Antonio Palopo	10	Octubre	2023-04-10T00:00:00	2024-11-08T06:00:00	7	Dirección del viento	3.22
11111	7	Sololá	712	San Antonio Palopó	9	San Antonio Palopo	10	Octubre	2023-04-10T00:00:00	2024-11-08T06:00:00	1	Precipitación	0
11112	7	Sololá	712	San Antonio Palopó	9	San Antonio Palopo	10	Octubre	2023-04-10T00:00:00	2024-11-08T06:00:00	8	Radiación solar	0
11113	7	Sololá	712	San Antonio Palopó	9	San Antonio Palopo	10	Octubre	2023-04-10T00:00:00	2024-11-08T07:00:00	2	Temperatura media	18.1
11114	7	Sololá	712	San Antonio Palopó	9	San Antonio Palopo	10	Octubre	2023-04-10T00:00:00	2024-11-08T07:00:00	4	Temperatura máxima	18.2
11115	7	Sololá	712	San Antonio Palopó	9	San Antonio Palopo	10	Octubre	2023-04-10T00:00:00	2024-11-08T07:00:00	3	Temperatura mínima	17.7
11116	7	Sololá	712	San Antonio Palopó	9	San Antonio Palopo	10	Octubre	2023-04-10T00:00:00	2024-11-08T07:00:00	5	Humedad	89
11117	7	Sololá	712	San Antonio Palopó	9	San Antonio Palopo	10	Octubre	2023-04-10T00:00:00	2024-11-08T07:00:00	6	Velocidad del viento	1.6
11118	7	Sololá	712	San Antonio Palopó	9	San Antonio Palopo	10	Octubre	2023-04-10T00:00:00	2024-11-08T07:00:00	7	Dirección del viento	1.61
11119	7	Sololá	712	San Antonio Palopó	9	San Antonio Palopo	10	Octubre	2023-04-10T00:00:00	2024-11-08T07:00:00	1	Precipitación	0
11120	7	Sololá	712	San Antonio Palopó	9	San Antonio Palopo	10	Octubre	2023-04-10T00:00:00	2024-11-08T07:00:00	8	Radiación solar	29
11121	7	Sololá	712	San Antonio Palopó	9	San Antonio Palopo	10	Octubre	2023-04-10T00:00:00	2024-11-08T08:00:00	2	Temperatura media	20.2
11122	7	Sololá	712	San Antonio Palopó	9	San Antonio Palopo	10	Octubre	2023-04-10T00:00:00	2024-11-08T08:00:00	4	Temperatura máxima	20.2
11123	7	Sololá	712	San Antonio Palopó	9	San Antonio Palopo	10	Octubre	2023-04-10T00:00:00	2024-11-08T08:00:00	3	Temperatura mínima	18
11124	7	Sololá	712	San Antonio Palopó	9	San Antonio Palopo	10	Octubre	2023-04-10T00:00:00	2024-11-08T08:00:00	5	Humedad	83
11125	7	Sololá	712	San Antonio Palopó	9	San Antonio Palopo	10	Octubre	2023-04-10T00:00:00	2024-11-08T08:00:00	6	Velocidad del viento	1.6
11126	7	Sololá	712	San Antonio Palopó	9	San Antonio Palopo	10	Octubre	2023-04-10T00:00:00	2024-11-08T08:00:00	7	Dirección del viento	1.61
11127	7	Sololá	712	San Antonio Palopó	9	San Antonio Palopo	10	Octubre	2023-04-10T00:00:00	2024-11-08T08:00:00	1	Precipitación	0
11128	7	Sololá	712	San Antonio Palopó	9	San Antonio Palopo	10	Octubre	2023-04-10T00:00:00	2024-11-08T08:00:00	8	Radiación solar	143
11129	7	Sololá	712	San Antonio Palopó	9	San Antonio Palopo	10	Octubre	2023-04-10T00:00:00	2024-11-08T09:00:00	2	Temperatura media	21.7
11130	7	Sololá	712	San Antonio Palopó	9	San Antonio Palopo	10	Octubre	2023-04-10T00:00:00	2024-11-08T09:00:00	4	Temperatura máxima	21.7
11131	7	Sololá	712	San Antonio Palopó	9	San Antonio Palopo	10	Octubre	2023-04-10T00:00:00	2024-11-08T09:00:00	3	Temperatura mínima	20.2
11132	7	Sololá	712	San Antonio Palopó	9	San Antonio Palopo	10	Octubre	2023-04-10T00:00:00	2024-11-08T09:00:00	5	Humedad	78
11133	7	Sololá	712	San Antonio Palopó	9	San Antonio Palopo	10	Octubre	2023-04-10T00:00:00	2024-11-08T09:00:00	6	Velocidad del viento	3.2
11134	7	Sololá	712	San Antonio Palopó	9	San Antonio Palopo	10	Octubre	2023-04-10T00:00:00	2024-11-08T09:00:00	7	Dirección del viento	3.22
11135	7	Sololá	712	San Antonio Palopó	9	San Antonio Palopo	10	Octubre	2023-04-10T00:00:00	2024-11-08T09:00:00	1	Precipitación	0
11136	7	Sololá	712	San Antonio Palopó	9	San Antonio Palopo	10	Octubre	2023-04-10T00:00:00	2024-11-08T09:00:00	8	Radiación solar	481
11137	7	Sololá	712	San Antonio Palopó	9	San Antonio Palopo	10	Octubre	2023-04-10T00:00:00	2024-11-08T10:00:00	2	Temperatura media	22.3
11138	7	Sololá	712	San Antonio Palopó	9	San Antonio Palopo	10	Octubre	2023-04-10T00:00:00	2024-11-08T10:00:00	4	Temperatura máxima	23.3
11139	7	Sololá	712	San Antonio Palopó	9	San Antonio Palopo	10	Octubre	2023-04-10T00:00:00	2024-11-08T10:00:00	3	Temperatura mínima	21.2
11140	7	Sololá	712	San Antonio Palopó	9	San Antonio Palopo	10	Octubre	2023-04-10T00:00:00	2024-11-08T10:00:00	5	Humedad	77
11141	7	Sololá	712	San Antonio Palopó	9	San Antonio Palopo	10	Octubre	2023-04-10T00:00:00	2024-11-08T10:00:00	6	Velocidad del viento	9.7
11142	7	Sololá	712	San Antonio Palopó	9	San Antonio Palopo	10	Octubre	2023-04-10T00:00:00	2024-11-08T10:00:00	7	Dirección del viento	9.66
11143	7	Sololá	712	San Antonio Palopó	9	San Antonio Palopo	10	Octubre	2023-04-10T00:00:00	2024-11-08T10:00:00	1	Precipitación	0
11144	7	Sololá	712	San Antonio Palopó	9	San Antonio Palopo	10	Octubre	2023-04-10T00:00:00	2024-11-08T10:00:00	8	Radiación solar	696
11145	7	Sololá	712	San Antonio Palopó	9	San Antonio Palopo	10	Octubre	2023-04-10T00:00:00	2024-11-08T11:00:00	2	Temperatura media	23.3
11146	7	Sololá	712	San Antonio Palopó	9	San Antonio Palopo	10	Octubre	2023-04-10T00:00:00	2024-11-08T11:00:00	4	Temperatura máxima	23.4
11147	7	Sololá	712	San Antonio Palopó	9	San Antonio Palopo	10	Octubre	2023-04-10T00:00:00	2024-11-08T11:00:00	3	Temperatura mínima	21.9
11148	7	Sololá	712	San Antonio Palopó	9	San Antonio Palopo	10	Octubre	2023-04-10T00:00:00	2024-11-08T11:00:00	5	Humedad	75
11149	7	Sololá	712	San Antonio Palopó	9	San Antonio Palopo	10	Octubre	2023-04-10T00:00:00	2024-11-08T11:00:00	6	Velocidad del viento	4.8
11150	7	Sololá	712	San Antonio Palopó	9	San Antonio Palopo	10	Octubre	2023-04-10T00:00:00	2024-11-08T11:00:00	7	Dirección del viento	4.83
11151	7	Sololá	712	San Antonio Palopó	9	San Antonio Palopo	10	Octubre	2023-04-10T00:00:00	2024-11-08T11:00:00	1	Precipitación	0
11152	7	Sololá	712	San Antonio Palopó	9	San Antonio Palopo	10	Octubre	2023-04-10T00:00:00	2024-11-08T11:00:00	8	Radiación solar	818
11153	7	Sololá	712	San Antonio Palopó	9	San Antonio Palopo	10	Octubre	2023-04-10T00:00:00	2024-11-08T12:00:00	2	Temperatura media	24.3
11154	7	Sololá	712	San Antonio Palopó	9	San Antonio Palopo	10	Octubre	2023-04-10T00:00:00	2024-11-08T12:00:00	4	Temperatura máxima	24.5
11155	7	Sololá	712	San Antonio Palopó	9	San Antonio Palopo	10	Octubre	2023-04-10T00:00:00	2024-11-08T12:00:00	3	Temperatura mínima	23.3
11156	7	Sololá	712	San Antonio Palopó	9	San Antonio Palopo	10	Octubre	2023-04-10T00:00:00	2024-11-08T12:00:00	5	Humedad	72
11157	7	Sololá	712	San Antonio Palopó	9	San Antonio Palopo	10	Octubre	2023-04-10T00:00:00	2024-11-08T12:00:00	6	Velocidad del viento	6.4
11158	7	Sololá	712	San Antonio Palopó	9	San Antonio Palopo	10	Octubre	2023-04-10T00:00:00	2024-11-08T12:00:00	7	Dirección del viento	6.44
11159	7	Sololá	712	San Antonio Palopó	9	San Antonio Palopo	10	Octubre	2023-04-10T00:00:00	2024-11-08T12:00:00	1	Precipitación	0
11160	7	Sololá	712	San Antonio Palopó	9	San Antonio Palopo	10	Octubre	2023-04-10T00:00:00	2024-11-08T12:00:00	8	Radiación solar	850
11161	7	Sololá	712	San Antonio Palopó	9	San Antonio Palopo	10	Octubre	2023-04-10T00:00:00	2024-11-08T13:00:00	2	Temperatura media	24
11162	7	Sololá	712	San Antonio Palopó	9	San Antonio Palopo	10	Octubre	2023-04-10T00:00:00	2024-11-08T13:00:00	4	Temperatura máxima	24.6
11163	7	Sololá	712	San Antonio Palopó	9	San Antonio Palopo	10	Octubre	2023-04-10T00:00:00	2024-11-08T13:00:00	3	Temperatura mínima	24
11164	7	Sololá	712	San Antonio Palopó	9	San Antonio Palopo	10	Octubre	2023-04-10T00:00:00	2024-11-08T13:00:00	5	Humedad	76
11165	7	Sololá	712	San Antonio Palopó	9	San Antonio Palopo	10	Octubre	2023-04-10T00:00:00	2024-11-08T13:00:00	6	Velocidad del viento	11.3
11166	7	Sololá	712	San Antonio Palopó	9	San Antonio Palopo	10	Octubre	2023-04-10T00:00:00	2024-11-08T13:00:00	7	Dirección del viento	11.27
11167	7	Sololá	712	San Antonio Palopó	9	San Antonio Palopo	10	Octubre	2023-04-10T00:00:00	2024-11-08T13:00:00	1	Precipitación	0
11168	7	Sololá	712	San Antonio Palopó	9	San Antonio Palopo	10	Octubre	2023-04-10T00:00:00	2024-11-08T13:00:00	8	Radiación solar	981
11169	7	Sololá	712	San Antonio Palopó	9	San Antonio Palopo	10	Octubre	2023-04-10T00:00:00	2024-11-08T14:00:00	2	Temperatura media	22.7
11170	7	Sololá	712	San Antonio Palopó	9	San Antonio Palopo	10	Octubre	2023-04-10T00:00:00	2024-11-08T14:00:00	4	Temperatura máxima	23.9
11171	7	Sololá	712	San Antonio Palopó	9	San Antonio Palopo	10	Octubre	2023-04-10T00:00:00	2024-11-08T14:00:00	3	Temperatura mínima	22.7
11172	7	Sololá	712	San Antonio Palopó	9	San Antonio Palopo	10	Octubre	2023-04-10T00:00:00	2024-11-08T14:00:00	5	Humedad	78
11173	7	Sololá	712	San Antonio Palopó	9	San Antonio Palopo	10	Octubre	2023-04-10T00:00:00	2024-11-08T14:00:00	6	Velocidad del viento	9.7
11174	7	Sololá	712	San Antonio Palopó	9	San Antonio Palopo	10	Octubre	2023-04-10T00:00:00	2024-11-08T14:00:00	7	Dirección del viento	9.66
11175	7	Sololá	712	San Antonio Palopó	9	San Antonio Palopo	10	Octubre	2023-04-10T00:00:00	2024-11-08T14:00:00	1	Precipitación	0
11176	7	Sololá	712	San Antonio Palopó	9	San Antonio Palopo	10	Octubre	2023-04-10T00:00:00	2024-11-08T14:00:00	8	Radiación solar	475
11177	7	Sololá	712	San Antonio Palopó	9	San Antonio Palopo	10	Octubre	2023-04-10T00:00:00	2024-11-08T15:00:00	2	Temperatura media	21.2
11178	7	Sololá	712	San Antonio Palopó	9	San Antonio Palopo	10	Octubre	2023-04-10T00:00:00	2024-11-08T15:00:00	4	Temperatura máxima	22.7
11179	7	Sololá	712	San Antonio Palopó	9	San Antonio Palopo	10	Octubre	2023-04-10T00:00:00	2024-11-08T15:00:00	3	Temperatura mínima	21.2
11180	7	Sololá	712	San Antonio Palopó	9	San Antonio Palopo	10	Octubre	2023-04-10T00:00:00	2024-11-08T15:00:00	5	Humedad	81
11181	7	Sololá	712	San Antonio Palopó	9	San Antonio Palopo	10	Octubre	2023-04-10T00:00:00	2024-11-08T15:00:00	6	Velocidad del viento	8
11182	7	Sololá	712	San Antonio Palopó	9	San Antonio Palopo	10	Octubre	2023-04-10T00:00:00	2024-11-08T15:00:00	7	Dirección del viento	8.05
11183	7	Sololá	712	San Antonio Palopó	9	San Antonio Palopo	10	Octubre	2023-04-10T00:00:00	2024-11-08T15:00:00	1	Precipitación	0
11184	7	Sololá	712	San Antonio Palopó	9	San Antonio Palopo	10	Octubre	2023-04-10T00:00:00	2024-11-08T15:00:00	8	Radiación solar	134
11185	7	Sololá	712	San Antonio Palopó	9	San Antonio Palopo	10	Octubre	2023-04-10T00:00:00	2024-11-08T16:00:00	2	Temperatura media	19.7
11186	7	Sololá	712	San Antonio Palopó	9	San Antonio Palopo	10	Octubre	2023-04-10T00:00:00	2024-11-08T16:00:00	4	Temperatura máxima	21.4
11187	7	Sololá	712	San Antonio Palopó	9	San Antonio Palopo	10	Octubre	2023-04-10T00:00:00	2024-11-08T16:00:00	3	Temperatura mínima	19.7
11188	7	Sololá	712	San Antonio Palopó	9	San Antonio Palopo	10	Octubre	2023-04-10T00:00:00	2024-11-08T16:00:00	5	Humedad	89
11189	7	Sololá	712	San Antonio Palopó	9	San Antonio Palopo	10	Octubre	2023-04-10T00:00:00	2024-11-08T16:00:00	6	Velocidad del viento	4.8
11190	7	Sololá	712	San Antonio Palopó	9	San Antonio Palopo	10	Octubre	2023-04-10T00:00:00	2024-11-08T16:00:00	7	Dirección del viento	4.83
11191	7	Sololá	712	San Antonio Palopó	9	San Antonio Palopo	10	Octubre	2023-04-10T00:00:00	2024-11-08T16:00:00	1	Precipitación	1.2
11192	7	Sololá	712	San Antonio Palopó	9	San Antonio Palopo	10	Octubre	2023-04-10T00:00:00	2024-11-08T16:00:00	8	Radiación solar	13
11193	7	Sololá	712	San Antonio Palopó	9	San Antonio Palopo	10	Octubre	2023-04-10T00:00:00	2024-11-08T17:00:00	2	Temperatura media	19.7
11194	7	Sololá	712	San Antonio Palopó	9	San Antonio Palopo	10	Octubre	2023-04-10T00:00:00	2024-11-08T17:00:00	4	Temperatura máxima	20.1
11195	7	Sololá	712	San Antonio Palopó	9	San Antonio Palopo	10	Octubre	2023-04-10T00:00:00	2024-11-08T17:00:00	3	Temperatura mínima	19.6
11196	7	Sololá	712	San Antonio Palopó	9	San Antonio Palopo	10	Octubre	2023-04-10T00:00:00	2024-11-08T17:00:00	5	Humedad	86
11197	7	Sololá	712	San Antonio Palopó	9	San Antonio Palopo	10	Octubre	2023-04-10T00:00:00	2024-11-08T17:00:00	6	Velocidad del viento	4.8
11198	7	Sololá	712	San Antonio Palopó	9	San Antonio Palopo	10	Octubre	2023-04-10T00:00:00	2024-11-08T17:00:00	7	Dirección del viento	4.83
11199	7	Sololá	712	San Antonio Palopó	9	San Antonio Palopo	10	Octubre	2023-04-10T00:00:00	2024-11-08T17:00:00	1	Precipitación	0
11200	7	Sololá	712	San Antonio Palopó	9	San Antonio Palopo	10	Octubre	2023-04-10T00:00:00	2024-11-08T17:00:00	8	Radiación solar	20
11201	7	Sololá	712	San Antonio Palopó	9	San Antonio Palopo	10	Octubre	2023-04-10T00:00:00	2024-11-08T18:00:00	2	Temperatura media	19.6
11202	7	Sololá	712	San Antonio Palopó	9	San Antonio Palopo	10	Octubre	2023-04-10T00:00:00	2024-11-08T18:00:00	4	Temperatura máxima	19.7
11203	7	Sololá	712	San Antonio Palopó	9	San Antonio Palopo	10	Octubre	2023-04-10T00:00:00	2024-11-08T18:00:00	3	Temperatura mínima	19.5
11204	7	Sololá	712	San Antonio Palopó	9	San Antonio Palopo	10	Octubre	2023-04-10T00:00:00	2024-11-08T18:00:00	5	Humedad	88
11205	7	Sololá	712	San Antonio Palopó	9	San Antonio Palopo	10	Octubre	2023-04-10T00:00:00	2024-11-08T18:00:00	6	Velocidad del viento	1.6
11206	7	Sololá	712	San Antonio Palopó	9	San Antonio Palopo	10	Octubre	2023-04-10T00:00:00	2024-11-08T18:00:00	7	Dirección del viento	1.61
11207	7	Sololá	712	San Antonio Palopó	9	San Antonio Palopo	10	Octubre	2023-04-10T00:00:00	2024-11-08T18:00:00	1	Precipitación	0
11208	7	Sololá	712	San Antonio Palopó	9	San Antonio Palopo	10	Octubre	2023-04-10T00:00:00	2024-11-08T18:00:00	8	Radiación solar	10
11209	7	Sololá	712	San Antonio Palopó	9	San Antonio Palopo	10	Octubre	2023-04-10T00:00:00	2024-11-08T19:00:00	2	Temperatura media	19.4
11210	7	Sololá	712	San Antonio Palopó	9	San Antonio Palopo	10	Octubre	2023-04-10T00:00:00	2024-11-08T19:00:00	4	Temperatura máxima	19.5
11211	7	Sololá	712	San Antonio Palopó	9	San Antonio Palopo	10	Octubre	2023-04-10T00:00:00	2024-11-08T19:00:00	3	Temperatura mínima	19.1
11212	7	Sololá	712	San Antonio Palopó	9	San Antonio Palopo	10	Octubre	2023-04-10T00:00:00	2024-11-08T19:00:00	5	Humedad	85
11213	7	Sololá	712	San Antonio Palopó	9	San Antonio Palopo	10	Octubre	2023-04-10T00:00:00	2024-11-08T19:00:00	6	Velocidad del viento	1.6
11214	7	Sololá	712	San Antonio Palopó	9	San Antonio Palopo	10	Octubre	2023-04-10T00:00:00	2024-11-08T19:00:00	7	Dirección del viento	1.61
11215	7	Sololá	712	San Antonio Palopó	9	San Antonio Palopo	10	Octubre	2023-04-10T00:00:00	2024-11-08T19:00:00	1	Precipitación	0
11216	7	Sololá	712	San Antonio Palopó	9	San Antonio Palopo	10	Octubre	2023-04-10T00:00:00	2024-11-08T19:00:00	8	Radiación solar	0
11217	7	Sololá	712	San Antonio Palopó	9	San Antonio Palopo	10	Octubre	2023-04-10T00:00:00	2024-11-08T20:00:00	2	Temperatura media	19.2
11218	7	Sololá	712	San Antonio Palopó	9	San Antonio Palopo	10	Octubre	2023-04-10T00:00:00	2024-11-08T20:00:00	4	Temperatura máxima	19.4
11219	7	Sololá	712	San Antonio Palopó	9	San Antonio Palopo	10	Octubre	2023-04-10T00:00:00	2024-11-08T20:00:00	3	Temperatura mínima	18.7
11220	7	Sololá	712	San Antonio Palopó	9	San Antonio Palopo	10	Octubre	2023-04-10T00:00:00	2024-11-08T20:00:00	5	Humedad	85
11221	7	Sololá	712	San Antonio Palopó	9	San Antonio Palopo	10	Octubre	2023-04-10T00:00:00	2024-11-08T20:00:00	6	Velocidad del viento	1.6
11222	7	Sololá	712	San Antonio Palopó	9	San Antonio Palopo	10	Octubre	2023-04-10T00:00:00	2024-11-08T20:00:00	7	Dirección del viento	1.61
11223	7	Sololá	712	San Antonio Palopó	9	San Antonio Palopo	10	Octubre	2023-04-10T00:00:00	2024-11-08T20:00:00	1	Precipitación	0
11224	7	Sololá	712	San Antonio Palopó	9	San Antonio Palopo	10	Octubre	2023-04-10T00:00:00	2024-11-08T20:00:00	8	Radiación solar	0
11225	7	Sololá	712	San Antonio Palopó	9	San Antonio Palopo	10	Octubre	2023-04-10T00:00:00	2024-11-08T21:00:00	2	Temperatura media	19.4
11226	7	Sololá	712	San Antonio Palopó	9	San Antonio Palopo	10	Octubre	2023-04-10T00:00:00	2024-11-08T21:00:00	4	Temperatura máxima	19.5
11227	7	Sololá	712	San Antonio Palopó	9	San Antonio Palopo	10	Octubre	2023-04-10T00:00:00	2024-11-08T21:00:00	3	Temperatura mínima	18.9
11228	7	Sololá	712	San Antonio Palopó	9	San Antonio Palopo	10	Octubre	2023-04-10T00:00:00	2024-11-08T21:00:00	5	Humedad	83
11229	7	Sololá	712	San Antonio Palopó	9	San Antonio Palopo	10	Octubre	2023-04-10T00:00:00	2024-11-08T21:00:00	6	Velocidad del viento	3.2
11230	7	Sololá	712	San Antonio Palopó	9	San Antonio Palopo	10	Octubre	2023-04-10T00:00:00	2024-11-08T21:00:00	7	Dirección del viento	3.22
11231	7	Sololá	712	San Antonio Palopó	9	San Antonio Palopo	10	Octubre	2023-04-10T00:00:00	2024-11-08T21:00:00	1	Precipitación	0
11232	7	Sololá	712	San Antonio Palopó	9	San Antonio Palopo	10	Octubre	2023-04-10T00:00:00	2024-11-08T21:00:00	8	Radiación solar	0
11233	7	Sololá	712	San Antonio Palopó	9	San Antonio Palopo	10	Octubre	2023-04-10T00:00:00	2024-11-08T22:00:00	2	Temperatura media	19.4
11234	7	Sololá	712	San Antonio Palopó	9	San Antonio Palopo	10	Octubre	2023-04-10T00:00:00	2024-11-08T22:00:00	4	Temperatura máxima	19.7
11235	7	Sololá	712	San Antonio Palopó	9	San Antonio Palopo	10	Octubre	2023-04-10T00:00:00	2024-11-08T22:00:00	3	Temperatura mínima	19.4
11236	7	Sololá	712	San Antonio Palopó	9	San Antonio Palopo	10	Octubre	2023-04-10T00:00:00	2024-11-08T22:00:00	5	Humedad	85
11237	7	Sololá	712	San Antonio Palopó	9	San Antonio Palopo	10	Octubre	2023-04-10T00:00:00	2024-11-08T22:00:00	6	Velocidad del viento	4.8
11238	7	Sololá	712	San Antonio Palopó	9	San Antonio Palopo	10	Octubre	2023-04-10T00:00:00	2024-11-08T22:00:00	7	Dirección del viento	4.83
11239	7	Sololá	712	San Antonio Palopó	9	San Antonio Palopo	10	Octubre	2023-04-10T00:00:00	2024-11-08T22:00:00	1	Precipitación	0
11240	7	Sololá	712	San Antonio Palopó	9	San Antonio Palopo	10	Octubre	2023-04-10T00:00:00	2024-11-08T22:00:00	8	Radiación solar	0
11241	7	Sololá	712	San Antonio Palopó	9	San Antonio Palopo	10	Octubre	2023-04-10T00:00:00	2024-11-08T23:00:00	2	Temperatura media	19
11242	7	Sololá	712	San Antonio Palopó	9	San Antonio Palopo	10	Octubre	2023-04-10T00:00:00	2024-11-08T23:00:00	4	Temperatura máxima	19.4
11243	7	Sololá	712	San Antonio Palopó	9	San Antonio Palopo	10	Octubre	2023-04-10T00:00:00	2024-11-08T23:00:00	3	Temperatura mínima	19
11244	7	Sololá	712	San Antonio Palopó	9	San Antonio Palopo	10	Octubre	2023-04-10T00:00:00	2024-11-08T23:00:00	5	Humedad	83
11245	7	Sololá	712	San Antonio Palopó	9	San Antonio Palopo	10	Octubre	2023-04-10T00:00:00	2024-11-08T23:00:00	6	Velocidad del viento	3.2
11246	7	Sololá	712	San Antonio Palopó	9	San Antonio Palopo	10	Octubre	2023-04-10T00:00:00	2024-11-08T23:00:00	7	Dirección del viento	3.22
11247	7	Sololá	712	San Antonio Palopó	9	San Antonio Palopo	10	Octubre	2023-04-10T00:00:00	2024-11-08T23:00:00	1	Precipitación	0
11248	7	Sololá	712	San Antonio Palopó	9	San Antonio Palopo	10	Octubre	2023-04-10T00:00:00	2024-11-08T23:00:00	8	Radiación solar	0
11249	7	Sololá	712	San Antonio Palopó	9	San Antonio Palopo	10	Octubre	2023-05-10T00:00:00	2024-11-08T00:00:00	2	Temperatura media	18.4
11250	7	Sololá	712	San Antonio Palopó	9	San Antonio Palopo	10	Octubre	2023-05-10T00:00:00	2024-11-08T00:00:00	4	Temperatura máxima	19.3
11251	7	Sololá	712	San Antonio Palopó	9	San Antonio Palopo	10	Octubre	2023-05-10T00:00:00	2024-11-08T00:00:00	3	Temperatura mínima	18.2
11252	7	Sololá	712	San Antonio Palopó	9	San Antonio Palopo	10	Octubre	2023-05-10T00:00:00	2024-11-08T00:00:00	5	Humedad	85
11253	7	Sololá	712	San Antonio Palopó	9	San Antonio Palopo	10	Octubre	2023-05-10T00:00:00	2024-11-08T00:00:00	6	Velocidad del viento	3.2
11254	7	Sololá	712	San Antonio Palopó	9	San Antonio Palopo	10	Octubre	2023-05-10T00:00:00	2024-11-08T00:00:00	7	Dirección del viento	3.22
11255	7	Sololá	712	San Antonio Palopó	9	San Antonio Palopo	10	Octubre	2023-05-10T00:00:00	2024-11-08T00:00:00	1	Precipitación	0
11256	7	Sololá	712	San Antonio Palopó	9	San Antonio Palopo	10	Octubre	2023-05-10T00:00:00	2024-11-08T00:00:00	8	Radiación solar	0
11257	7	Sololá	712	San Antonio Palopó	9	San Antonio Palopo	10	Octubre	2023-05-10T00:00:00	2024-11-08T01:00:00	2	Temperatura media	18.4
11258	7	Sololá	712	San Antonio Palopó	9	San Antonio Palopo	10	Octubre	2023-05-10T00:00:00	2024-11-08T01:00:00	4	Temperatura máxima	18.7
11259	7	Sololá	712	San Antonio Palopó	9	San Antonio Palopo	10	Octubre	2023-05-10T00:00:00	2024-11-08T01:00:00	3	Temperatura mínima	18.2
11260	7	Sololá	712	San Antonio Palopó	9	San Antonio Palopo	10	Octubre	2023-05-10T00:00:00	2024-11-08T01:00:00	5	Humedad	84
11261	7	Sololá	712	San Antonio Palopó	9	San Antonio Palopo	10	Octubre	2023-05-10T00:00:00	2024-11-08T01:00:00	6	Velocidad del viento	3.2
11262	7	Sololá	712	San Antonio Palopó	9	San Antonio Palopo	10	Octubre	2023-05-10T00:00:00	2024-11-08T01:00:00	7	Dirección del viento	3.22
11263	7	Sololá	712	San Antonio Palopó	9	San Antonio Palopo	10	Octubre	2023-05-10T00:00:00	2024-11-08T01:00:00	1	Precipitación	0
11264	7	Sololá	712	San Antonio Palopó	9	San Antonio Palopo	10	Octubre	2023-05-10T00:00:00	2024-11-08T01:00:00	8	Radiación solar	0
11265	7	Sololá	712	San Antonio Palopó	9	San Antonio Palopo	10	Octubre	2023-05-10T00:00:00	2024-11-08T02:00:00	2	Temperatura media	18.8
11266	7	Sololá	712	San Antonio Palopó	9	San Antonio Palopo	10	Octubre	2023-05-10T00:00:00	2024-11-08T02:00:00	4	Temperatura máxima	18.9
11267	7	Sololá	712	San Antonio Palopó	9	San Antonio Palopo	10	Octubre	2023-05-10T00:00:00	2024-11-08T02:00:00	3	Temperatura mínima	18.4
11268	7	Sololá	712	San Antonio Palopó	9	San Antonio Palopo	10	Octubre	2023-05-10T00:00:00	2024-11-08T02:00:00	5	Humedad	81
11269	7	Sololá	712	San Antonio Palopó	9	San Antonio Palopo	10	Octubre	2023-05-10T00:00:00	2024-11-08T02:00:00	6	Velocidad del viento	4.8
11270	7	Sololá	712	San Antonio Palopó	9	San Antonio Palopo	10	Octubre	2023-05-10T00:00:00	2024-11-08T02:00:00	7	Dirección del viento	4.83
11271	7	Sololá	712	San Antonio Palopó	9	San Antonio Palopo	10	Octubre	2023-05-10T00:00:00	2024-11-08T02:00:00	1	Precipitación	0
11272	7	Sololá	712	San Antonio Palopó	9	San Antonio Palopo	10	Octubre	2023-05-10T00:00:00	2024-11-08T02:00:00	8	Radiación solar	0
11273	7	Sololá	712	San Antonio Palopó	9	San Antonio Palopo	10	Octubre	2023-05-10T00:00:00	2024-11-08T03:00:00	2	Temperatura media	19.4
11274	7	Sololá	712	San Antonio Palopó	9	San Antonio Palopo	10	Octubre	2023-05-10T00:00:00	2024-11-08T03:00:00	4	Temperatura máxima	19.6
11275	7	Sololá	712	San Antonio Palopó	9	San Antonio Palopo	10	Octubre	2023-05-10T00:00:00	2024-11-08T03:00:00	3	Temperatura mínima	18.7
11276	7	Sololá	712	San Antonio Palopó	9	San Antonio Palopo	10	Octubre	2023-05-10T00:00:00	2024-11-08T03:00:00	5	Humedad	77
11277	7	Sololá	712	San Antonio Palopó	9	San Antonio Palopo	10	Octubre	2023-05-10T00:00:00	2024-11-08T03:00:00	6	Velocidad del viento	4.8
11278	7	Sololá	712	San Antonio Palopó	9	San Antonio Palopo	10	Octubre	2023-05-10T00:00:00	2024-11-08T03:00:00	7	Dirección del viento	4.83
11279	7	Sololá	712	San Antonio Palopó	9	San Antonio Palopo	10	Octubre	2023-05-10T00:00:00	2024-11-08T03:00:00	1	Precipitación	0
11280	7	Sololá	712	San Antonio Palopó	9	San Antonio Palopo	10	Octubre	2023-05-10T00:00:00	2024-11-08T03:00:00	8	Radiación solar	0
11281	7	Sololá	712	San Antonio Palopó	9	San Antonio Palopo	10	Octubre	2023-05-10T00:00:00	2024-11-08T04:00:00	2	Temperatura media	19.4
11282	7	Sololá	712	San Antonio Palopó	9	San Antonio Palopo	10	Octubre	2023-05-10T00:00:00	2024-11-08T04:00:00	4	Temperatura máxima	19.4
11283	7	Sololá	712	San Antonio Palopó	9	San Antonio Palopo	10	Octubre	2023-05-10T00:00:00	2024-11-08T04:00:00	3	Temperatura mínima	19.1
11284	7	Sololá	712	San Antonio Palopó	9	San Antonio Palopo	10	Octubre	2023-05-10T00:00:00	2024-11-08T04:00:00	5	Humedad	74
11285	7	Sololá	712	San Antonio Palopó	9	San Antonio Palopo	10	Octubre	2023-05-10T00:00:00	2024-11-08T04:00:00	6	Velocidad del viento	11.3
11286	7	Sololá	712	San Antonio Palopó	9	San Antonio Palopo	10	Octubre	2023-05-10T00:00:00	2024-11-08T04:00:00	7	Dirección del viento	11.27
11287	7	Sololá	712	San Antonio Palopó	9	San Antonio Palopo	10	Octubre	2023-05-10T00:00:00	2024-11-08T04:00:00	1	Precipitación	0.2
11288	7	Sololá	712	San Antonio Palopó	9	San Antonio Palopo	10	Octubre	2023-05-10T00:00:00	2024-11-08T04:00:00	8	Radiación solar	0
11289	7	Sololá	712	San Antonio Palopó	9	San Antonio Palopo	10	Octubre	2023-05-10T00:00:00	2024-11-08T05:00:00	2	Temperatura media	19.2
11290	7	Sololá	712	San Antonio Palopó	9	San Antonio Palopo	10	Octubre	2023-05-10T00:00:00	2024-11-08T05:00:00	4	Temperatura máxima	19.8
11291	7	Sololá	712	San Antonio Palopó	9	San Antonio Palopo	10	Octubre	2023-05-10T00:00:00	2024-11-08T05:00:00	3	Temperatura mínima	19.2
11292	7	Sololá	712	San Antonio Palopó	9	San Antonio Palopo	10	Octubre	2023-05-10T00:00:00	2024-11-08T05:00:00	5	Humedad	74
11293	7	Sololá	712	San Antonio Palopó	9	San Antonio Palopo	10	Octubre	2023-05-10T00:00:00	2024-11-08T05:00:00	6	Velocidad del viento	11.3
11294	7	Sololá	712	San Antonio Palopó	9	San Antonio Palopo	10	Octubre	2023-05-10T00:00:00	2024-11-08T05:00:00	7	Dirección del viento	11.27
11295	7	Sololá	712	San Antonio Palopó	9	San Antonio Palopo	10	Octubre	2023-05-10T00:00:00	2024-11-08T05:00:00	1	Precipitación	0
11296	7	Sololá	712	San Antonio Palopó	9	San Antonio Palopo	10	Octubre	2023-05-10T00:00:00	2024-11-08T05:00:00	8	Radiación solar	0
11297	7	Sololá	712	San Antonio Palopó	9	San Antonio Palopo	10	Octubre	2023-05-10T00:00:00	2024-11-08T06:00:00	2	Temperatura media	18.9
11298	7	Sololá	712	San Antonio Palopó	9	San Antonio Palopo	10	Octubre	2023-05-10T00:00:00	2024-11-08T06:00:00	4	Temperatura máxima	19.6
11299	7	Sololá	712	San Antonio Palopó	9	San Antonio Palopo	10	Octubre	2023-05-10T00:00:00	2024-11-08T06:00:00	3	Temperatura mínima	18.9
11300	7	Sololá	712	San Antonio Palopó	9	San Antonio Palopo	10	Octubre	2023-05-10T00:00:00	2024-11-08T06:00:00	5	Humedad	76
11301	7	Sololá	712	San Antonio Palopó	9	San Antonio Palopo	10	Octubre	2023-05-10T00:00:00	2024-11-08T06:00:00	6	Velocidad del viento	8
11302	7	Sololá	712	San Antonio Palopó	9	San Antonio Palopo	10	Octubre	2023-05-10T00:00:00	2024-11-08T06:00:00	7	Dirección del viento	8.05
11303	7	Sololá	712	San Antonio Palopó	9	San Antonio Palopo	10	Octubre	2023-05-10T00:00:00	2024-11-08T06:00:00	1	Precipitación	0
11304	7	Sololá	712	San Antonio Palopó	9	San Antonio Palopo	10	Octubre	2023-05-10T00:00:00	2024-11-08T06:00:00	8	Radiación solar	0
11305	7	Sololá	712	San Antonio Palopó	9	San Antonio Palopo	10	Octubre	2023-05-10T00:00:00	2024-11-08T07:00:00	2	Temperatura media	19.6
11306	7	Sololá	712	San Antonio Palopó	9	San Antonio Palopo	10	Octubre	2023-05-10T00:00:00	2024-11-08T07:00:00	4	Temperatura máxima	19.7
11307	7	Sololá	712	San Antonio Palopó	9	San Antonio Palopo	10	Octubre	2023-05-10T00:00:00	2024-11-08T07:00:00	3	Temperatura mínima	18.9
11308	7	Sololá	712	San Antonio Palopó	9	San Antonio Palopo	10	Octubre	2023-05-10T00:00:00	2024-11-08T07:00:00	5	Humedad	76
11309	7	Sololá	712	San Antonio Palopó	9	San Antonio Palopo	10	Octubre	2023-05-10T00:00:00	2024-11-08T07:00:00	6	Velocidad del viento	9.7
11310	7	Sololá	712	San Antonio Palopó	9	San Antonio Palopo	10	Octubre	2023-05-10T00:00:00	2024-11-08T07:00:00	7	Dirección del viento	9.66
11311	7	Sololá	712	San Antonio Palopó	9	San Antonio Palopo	10	Octubre	2023-05-10T00:00:00	2024-11-08T07:00:00	1	Precipitación	0
11312	7	Sololá	712	San Antonio Palopó	9	San Antonio Palopo	10	Octubre	2023-05-10T00:00:00	2024-11-08T07:00:00	8	Radiación solar	16
11313	7	Sololá	712	San Antonio Palopó	9	San Antonio Palopo	10	Octubre	2023-05-10T00:00:00	2024-11-08T08:00:00	2	Temperatura media	19.9
11314	7	Sololá	712	San Antonio Palopó	9	San Antonio Palopo	10	Octubre	2023-05-10T00:00:00	2024-11-08T08:00:00	4	Temperatura máxima	19.9
11315	7	Sololá	712	San Antonio Palopó	9	San Antonio Palopo	10	Octubre	2023-05-10T00:00:00	2024-11-08T08:00:00	3	Temperatura mínima	18.3
11316	7	Sololá	712	San Antonio Palopó	9	San Antonio Palopo	10	Octubre	2023-05-10T00:00:00	2024-11-08T08:00:00	5	Humedad	80
11317	7	Sololá	712	San Antonio Palopó	9	San Antonio Palopo	10	Octubre	2023-05-10T00:00:00	2024-11-08T08:00:00	6	Velocidad del viento	3.2
11318	7	Sololá	712	San Antonio Palopó	9	San Antonio Palopo	10	Octubre	2023-05-10T00:00:00	2024-11-08T08:00:00	7	Dirección del viento	3.22
11319	7	Sololá	712	San Antonio Palopó	9	San Antonio Palopo	10	Octubre	2023-05-10T00:00:00	2024-11-08T08:00:00	1	Precipitación	0
11320	7	Sololá	712	San Antonio Palopó	9	San Antonio Palopo	10	Octubre	2023-05-10T00:00:00	2024-11-08T08:00:00	8	Radiación solar	140
11321	7	Sololá	712	San Antonio Palopó	9	San Antonio Palopo	10	Octubre	2023-05-10T00:00:00	2024-11-08T09:00:00	2	Temperatura media	21.7
11322	7	Sololá	712	San Antonio Palopó	9	San Antonio Palopo	10	Octubre	2023-05-10T00:00:00	2024-11-08T09:00:00	4	Temperatura máxima	22.4
11323	7	Sololá	712	San Antonio Palopó	9	San Antonio Palopo	10	Octubre	2023-05-10T00:00:00	2024-11-08T09:00:00	3	Temperatura mínima	19.9
11324	7	Sololá	712	San Antonio Palopó	9	San Antonio Palopo	10	Octubre	2023-05-10T00:00:00	2024-11-08T09:00:00	5	Humedad	74
11325	7	Sololá	712	San Antonio Palopó	9	San Antonio Palopo	10	Octubre	2023-05-10T00:00:00	2024-11-08T09:00:00	6	Velocidad del viento	1.6
11326	7	Sololá	712	San Antonio Palopó	9	San Antonio Palopo	10	Octubre	2023-05-10T00:00:00	2024-11-08T09:00:00	7	Dirección del viento	1.61
11327	7	Sololá	712	San Antonio Palopó	9	San Antonio Palopo	10	Octubre	2023-05-10T00:00:00	2024-11-08T09:00:00	1	Precipitación	0
11328	7	Sololá	712	San Antonio Palopó	9	San Antonio Palopo	10	Octubre	2023-05-10T00:00:00	2024-11-08T09:00:00	8	Radiación solar	500
11329	7	Sololá	712	San Antonio Palopó	9	San Antonio Palopo	10	Octubre	2023-05-10T00:00:00	2024-11-08T10:00:00	2	Temperatura media	22.6
11330	7	Sololá	712	San Antonio Palopó	9	San Antonio Palopo	10	Octubre	2023-05-10T00:00:00	2024-11-08T10:00:00	4	Temperatura máxima	22.6
11331	7	Sololá	712	San Antonio Palopó	9	San Antonio Palopo	10	Octubre	2023-05-10T00:00:00	2024-11-08T10:00:00	3	Temperatura mínima	21.8
11332	7	Sololá	712	San Antonio Palopó	9	San Antonio Palopo	10	Octubre	2023-05-10T00:00:00	2024-11-08T10:00:00	5	Humedad	73
11333	7	Sololá	712	San Antonio Palopó	9	San Antonio Palopo	10	Octubre	2023-05-10T00:00:00	2024-11-08T10:00:00	6	Velocidad del viento	1.6
11334	7	Sololá	712	San Antonio Palopó	9	San Antonio Palopo	10	Octubre	2023-05-10T00:00:00	2024-11-08T10:00:00	7	Dirección del viento	1.61
11335	7	Sololá	712	San Antonio Palopó	9	San Antonio Palopo	10	Octubre	2023-05-10T00:00:00	2024-11-08T10:00:00	1	Precipitación	0
11336	7	Sololá	712	San Antonio Palopó	9	San Antonio Palopo	10	Octubre	2023-05-10T00:00:00	2024-11-08T10:00:00	8	Radiación solar	698
11337	7	Sololá	712	San Antonio Palopó	9	San Antonio Palopo	10	Octubre	2023-05-10T00:00:00	2024-11-08T11:00:00	2	Temperatura media	23.4
11338	7	Sololá	712	San Antonio Palopó	9	San Antonio Palopo	10	Octubre	2023-05-10T00:00:00	2024-11-08T11:00:00	4	Temperatura máxima	23.5
11339	7	Sololá	712	San Antonio Palopó	9	San Antonio Palopo	10	Octubre	2023-05-10T00:00:00	2024-11-08T11:00:00	3	Temperatura mínima	22.6
11340	7	Sololá	712	San Antonio Palopó	9	San Antonio Palopo	10	Octubre	2023-05-10T00:00:00	2024-11-08T11:00:00	5	Humedad	74
11341	7	Sololá	712	San Antonio Palopó	9	San Antonio Palopo	10	Octubre	2023-05-10T00:00:00	2024-11-08T11:00:00	6	Velocidad del viento	4.8
11342	7	Sololá	712	San Antonio Palopó	9	San Antonio Palopo	10	Octubre	2023-05-10T00:00:00	2024-11-08T11:00:00	7	Dirección del viento	4.83
11343	7	Sololá	712	San Antonio Palopó	9	San Antonio Palopo	10	Octubre	2023-05-10T00:00:00	2024-11-08T11:00:00	1	Precipitación	0
11344	7	Sololá	712	San Antonio Palopó	9	San Antonio Palopo	10	Octubre	2023-05-10T00:00:00	2024-11-08T11:00:00	8	Radiación solar	833
11345	7	Sololá	712	San Antonio Palopó	9	San Antonio Palopo	10	Octubre	2023-05-10T00:00:00	2024-11-08T12:00:00	2	Temperatura media	23.3
11346	7	Sololá	712	San Antonio Palopó	9	San Antonio Palopo	10	Octubre	2023-05-10T00:00:00	2024-11-08T12:00:00	4	Temperatura máxima	24.8
11347	7	Sololá	712	San Antonio Palopó	9	San Antonio Palopo	10	Octubre	2023-05-10T00:00:00	2024-11-08T12:00:00	3	Temperatura mínima	23.2
11348	7	Sololá	712	San Antonio Palopó	9	San Antonio Palopo	10	Octubre	2023-05-10T00:00:00	2024-11-08T12:00:00	5	Humedad	74
11349	7	Sololá	712	San Antonio Palopó	9	San Antonio Palopo	10	Octubre	2023-05-10T00:00:00	2024-11-08T12:00:00	6	Velocidad del viento	8
11350	7	Sololá	712	San Antonio Palopó	9	San Antonio Palopo	10	Octubre	2023-05-10T00:00:00	2024-11-08T12:00:00	7	Dirección del viento	8.05
11351	7	Sololá	712	San Antonio Palopó	9	San Antonio Palopo	10	Octubre	2023-05-10T00:00:00	2024-11-08T12:00:00	1	Precipitación	0
11352	7	Sololá	712	San Antonio Palopó	9	San Antonio Palopo	10	Octubre	2023-05-10T00:00:00	2024-11-08T12:00:00	8	Radiación solar	781
11353	7	Sololá	712	San Antonio Palopó	9	San Antonio Palopo	10	Octubre	2023-05-10T00:00:00	2024-11-08T13:00:00	2	Temperatura media	23.4
11354	7	Sololá	712	San Antonio Palopó	9	San Antonio Palopo	10	Octubre	2023-05-10T00:00:00	2024-11-08T13:00:00	4	Temperatura máxima	23.5
11355	7	Sololá	712	San Antonio Palopó	9	San Antonio Palopo	10	Octubre	2023-05-10T00:00:00	2024-11-08T13:00:00	3	Temperatura mínima	22.7
11356	7	Sololá	712	San Antonio Palopó	9	San Antonio Palopo	10	Octubre	2023-05-10T00:00:00	2024-11-08T13:00:00	5	Humedad	76
11357	7	Sololá	712	San Antonio Palopó	9	San Antonio Palopo	10	Octubre	2023-05-10T00:00:00	2024-11-08T13:00:00	6	Velocidad del viento	11.3
11358	7	Sololá	712	San Antonio Palopó	9	San Antonio Palopo	10	Octubre	2023-05-10T00:00:00	2024-11-08T13:00:00	7	Dirección del viento	11.27
11359	7	Sololá	712	San Antonio Palopó	9	San Antonio Palopo	10	Octubre	2023-05-10T00:00:00	2024-11-08T13:00:00	1	Precipitación	0
11360	7	Sololá	712	San Antonio Palopó	9	San Antonio Palopo	10	Octubre	2023-05-10T00:00:00	2024-11-08T13:00:00	8	Radiación solar	539
11361	7	Sololá	712	San Antonio Palopó	9	San Antonio Palopo	10	Octubre	2023-05-10T00:00:00	2024-11-08T14:00:00	2	Temperatura media	22.7
11362	7	Sololá	712	San Antonio Palopó	9	San Antonio Palopo	10	Octubre	2023-05-10T00:00:00	2024-11-08T14:00:00	4	Temperatura máxima	23.6
11363	7	Sololá	712	San Antonio Palopó	9	San Antonio Palopo	10	Octubre	2023-05-10T00:00:00	2024-11-08T14:00:00	3	Temperatura mínima	22.2
11364	7	Sololá	712	San Antonio Palopó	9	San Antonio Palopo	10	Octubre	2023-05-10T00:00:00	2024-11-08T14:00:00	5	Humedad	79
11365	7	Sololá	712	San Antonio Palopó	9	San Antonio Palopo	10	Octubre	2023-05-10T00:00:00	2024-11-08T14:00:00	6	Velocidad del viento	12.9
11366	7	Sololá	712	San Antonio Palopó	9	San Antonio Palopo	10	Octubre	2023-05-10T00:00:00	2024-11-08T14:00:00	7	Dirección del viento	12.87
11367	7	Sololá	712	San Antonio Palopó	9	San Antonio Palopo	10	Octubre	2023-05-10T00:00:00	2024-11-08T14:00:00	1	Precipitación	0
11368	7	Sololá	712	San Antonio Palopó	9	San Antonio Palopo	10	Octubre	2023-05-10T00:00:00	2024-11-08T14:00:00	8	Radiación solar	548
11369	7	Sololá	712	San Antonio Palopó	9	San Antonio Palopo	10	Octubre	2023-05-10T00:00:00	2024-11-08T15:00:00	2	Temperatura media	22.9
11370	7	Sololá	712	San Antonio Palopó	9	San Antonio Palopo	10	Octubre	2023-05-10T00:00:00	2024-11-08T15:00:00	4	Temperatura máxima	23.9
11371	7	Sololá	712	San Antonio Palopó	9	San Antonio Palopo	10	Octubre	2023-05-10T00:00:00	2024-11-08T15:00:00	3	Temperatura mínima	22.7
11372	7	Sololá	712	San Antonio Palopó	9	San Antonio Palopo	10	Octubre	2023-05-10T00:00:00	2024-11-08T15:00:00	5	Humedad	78
11373	7	Sololá	712	San Antonio Palopó	9	San Antonio Palopo	10	Octubre	2023-05-10T00:00:00	2024-11-08T15:00:00	6	Velocidad del viento	11.3
11374	7	Sololá	712	San Antonio Palopó	9	San Antonio Palopo	10	Octubre	2023-05-10T00:00:00	2024-11-08T15:00:00	7	Dirección del viento	11.27
11375	7	Sololá	712	San Antonio Palopó	9	San Antonio Palopo	10	Octubre	2023-05-10T00:00:00	2024-11-08T15:00:00	1	Precipitación	0
11376	7	Sololá	712	San Antonio Palopó	9	San Antonio Palopo	10	Octubre	2023-05-10T00:00:00	2024-11-08T15:00:00	8	Radiación solar	496
11377	7	Sololá	712	San Antonio Palopó	9	San Antonio Palopo	10	Octubre	2023-05-10T00:00:00	2024-11-08T16:00:00	2	Temperatura media	22.4
11378	7	Sololá	712	San Antonio Palopó	9	San Antonio Palopo	10	Octubre	2023-05-10T00:00:00	2024-11-08T16:00:00	4	Temperatura máxima	23.7
11379	7	Sololá	712	San Antonio Palopó	9	San Antonio Palopo	10	Octubre	2023-05-10T00:00:00	2024-11-08T16:00:00	3	Temperatura mínima	22.1
11380	7	Sololá	712	San Antonio Palopó	9	San Antonio Palopo	10	Octubre	2023-05-10T00:00:00	2024-11-08T16:00:00	5	Humedad	80
11381	7	Sololá	712	San Antonio Palopó	9	San Antonio Palopo	10	Octubre	2023-05-10T00:00:00	2024-11-08T16:00:00	6	Velocidad del viento	9.7
11382	7	Sololá	712	San Antonio Palopó	9	San Antonio Palopo	10	Octubre	2023-05-10T00:00:00	2024-11-08T16:00:00	7	Dirección del viento	9.66
11383	7	Sololá	712	San Antonio Palopó	9	San Antonio Palopo	10	Octubre	2023-05-10T00:00:00	2024-11-08T16:00:00	1	Precipitación	0
11384	7	Sololá	712	San Antonio Palopó	9	San Antonio Palopo	10	Octubre	2023-05-10T00:00:00	2024-11-08T16:00:00	8	Radiación solar	327
11385	7	Sololá	712	San Antonio Palopó	9	San Antonio Palopo	10	Octubre	2023-05-10T00:00:00	2024-11-08T17:00:00	2	Temperatura media	21.7
11386	7	Sololá	712	San Antonio Palopó	9	San Antonio Palopo	10	Octubre	2023-05-10T00:00:00	2024-11-08T17:00:00	4	Temperatura máxima	23.8
11387	7	Sololá	712	San Antonio Palopó	9	San Antonio Palopo	10	Octubre	2023-05-10T00:00:00	2024-11-08T17:00:00	3	Temperatura mínima	21.7
11388	7	Sololá	712	San Antonio Palopó	9	San Antonio Palopo	10	Octubre	2023-05-10T00:00:00	2024-11-08T17:00:00	5	Humedad	81
11389	7	Sololá	712	San Antonio Palopó	9	San Antonio Palopo	10	Octubre	2023-05-10T00:00:00	2024-11-08T17:00:00	6	Velocidad del viento	6.4
11390	7	Sololá	712	San Antonio Palopó	9	San Antonio Palopo	10	Octubre	2023-05-10T00:00:00	2024-11-08T17:00:00	7	Dirección del viento	6.44
11391	7	Sololá	712	San Antonio Palopó	9	San Antonio Palopo	10	Octubre	2023-05-10T00:00:00	2024-11-08T17:00:00	1	Precipitación	0
11392	7	Sololá	712	San Antonio Palopó	9	San Antonio Palopo	10	Octubre	2023-05-10T00:00:00	2024-11-08T17:00:00	8	Radiación solar	184
11393	7	Sololá	712	San Antonio Palopó	9	San Antonio Palopo	10	Octubre	2023-05-10T00:00:00	2024-11-08T18:00:00	2	Temperatura media	20
11394	7	Sololá	712	San Antonio Palopó	9	San Antonio Palopo	10	Octubre	2023-05-10T00:00:00	2024-11-08T18:00:00	4	Temperatura máxima	21.7
11395	7	Sololá	712	San Antonio Palopó	9	San Antonio Palopo	10	Octubre	2023-05-10T00:00:00	2024-11-08T18:00:00	3	Temperatura mínima	19.9
11396	7	Sololá	712	San Antonio Palopó	9	San Antonio Palopo	10	Octubre	2023-05-10T00:00:00	2024-11-08T18:00:00	5	Humedad	84
11397	7	Sololá	712	San Antonio Palopó	9	San Antonio Palopo	10	Octubre	2023-05-10T00:00:00	2024-11-08T18:00:00	6	Velocidad del viento	11.3
11398	7	Sololá	712	San Antonio Palopó	9	San Antonio Palopo	10	Octubre	2023-05-10T00:00:00	2024-11-08T18:00:00	7	Dirección del viento	11.27
11399	7	Sololá	712	San Antonio Palopó	9	San Antonio Palopo	10	Octubre	2023-05-10T00:00:00	2024-11-08T18:00:00	1	Precipitación	0
11400	7	Sololá	712	San Antonio Palopó	9	San Antonio Palopo	10	Octubre	2023-05-10T00:00:00	2024-11-08T18:00:00	8	Radiación solar	10
11401	7	Sololá	712	San Antonio Palopó	9	San Antonio Palopo	10	Octubre	2023-05-10T00:00:00	2024-11-08T19:00:00	2	Temperatura media	20.2
11402	7	Sololá	712	San Antonio Palopó	9	San Antonio Palopo	10	Octubre	2023-05-10T00:00:00	2024-11-08T19:00:00	4	Temperatura máxima	20.3
11403	7	Sololá	712	San Antonio Palopó	9	San Antonio Palopo	10	Octubre	2023-05-10T00:00:00	2024-11-08T19:00:00	3	Temperatura mínima	20
11404	7	Sololá	712	San Antonio Palopó	9	San Antonio Palopo	10	Octubre	2023-05-10T00:00:00	2024-11-08T19:00:00	5	Humedad	84
11405	7	Sololá	712	San Antonio Palopó	9	San Antonio Palopo	10	Octubre	2023-05-10T00:00:00	2024-11-08T19:00:00	6	Velocidad del viento	3.2
11406	7	Sololá	712	San Antonio Palopó	9	San Antonio Palopo	10	Octubre	2023-05-10T00:00:00	2024-11-08T19:00:00	7	Dirección del viento	3.22
11407	7	Sololá	712	San Antonio Palopó	9	San Antonio Palopo	10	Octubre	2023-05-10T00:00:00	2024-11-08T19:00:00	1	Precipitación	0
11408	7	Sololá	712	San Antonio Palopó	9	San Antonio Palopo	10	Octubre	2023-05-10T00:00:00	2024-11-08T19:00:00	8	Radiación solar	0
11409	7	Sololá	712	San Antonio Palopó	9	San Antonio Palopo	10	Octubre	2023-05-10T00:00:00	2024-11-08T20:00:00	2	Temperatura media	20.2
11410	7	Sololá	712	San Antonio Palopó	9	San Antonio Palopo	10	Octubre	2023-05-10T00:00:00	2024-11-08T20:00:00	4	Temperatura máxima	20.2
11411	7	Sololá	712	San Antonio Palopó	9	San Antonio Palopo	10	Octubre	2023-05-10T00:00:00	2024-11-08T20:00:00	3	Temperatura mínima	19.9
11412	7	Sololá	712	San Antonio Palopó	9	San Antonio Palopo	10	Octubre	2023-05-10T00:00:00	2024-11-08T20:00:00	5	Humedad	83
11413	7	Sololá	712	San Antonio Palopó	9	San Antonio Palopo	10	Octubre	2023-05-10T00:00:00	2024-11-08T20:00:00	6	Velocidad del viento	1.6
11414	7	Sololá	712	San Antonio Palopó	9	San Antonio Palopo	10	Octubre	2023-05-10T00:00:00	2024-11-08T20:00:00	7	Dirección del viento	1.61
11415	7	Sololá	712	San Antonio Palopó	9	San Antonio Palopo	10	Octubre	2023-05-10T00:00:00	2024-11-08T20:00:00	1	Precipitación	0
11416	7	Sololá	712	San Antonio Palopó	9	San Antonio Palopo	10	Octubre	2023-05-10T00:00:00	2024-11-08T20:00:00	8	Radiación solar	0
11417	7	Sololá	712	San Antonio Palopó	9	San Antonio Palopo	10	Octubre	2023-05-10T00:00:00	2024-11-08T21:00:00	2	Temperatura media	19.7
11418	7	Sololá	712	San Antonio Palopó	9	San Antonio Palopo	10	Octubre	2023-05-10T00:00:00	2024-11-08T21:00:00	4	Temperatura máxima	20.2
11419	7	Sololá	712	San Antonio Palopó	9	San Antonio Palopo	10	Octubre	2023-05-10T00:00:00	2024-11-08T21:00:00	3	Temperatura mínima	19.7
11420	7	Sololá	712	San Antonio Palopó	9	San Antonio Palopo	10	Octubre	2023-05-10T00:00:00	2024-11-08T21:00:00	5	Humedad	83
11421	7	Sololá	712	San Antonio Palopó	9	San Antonio Palopo	10	Octubre	2023-05-10T00:00:00	2024-11-08T21:00:00	6	Velocidad del viento	1.6
11422	7	Sololá	712	San Antonio Palopó	9	San Antonio Palopo	10	Octubre	2023-05-10T00:00:00	2024-11-08T21:00:00	7	Dirección del viento	1.61
11423	7	Sololá	712	San Antonio Palopó	9	San Antonio Palopo	10	Octubre	2023-05-10T00:00:00	2024-11-08T21:00:00	1	Precipitación	0
11424	7	Sololá	712	San Antonio Palopó	9	San Antonio Palopo	10	Octubre	2023-05-10T00:00:00	2024-11-08T21:00:00	8	Radiación solar	0
11425	7	Sololá	712	San Antonio Palopó	9	San Antonio Palopo	10	Octubre	2023-05-10T00:00:00	2024-11-08T22:00:00	2	Temperatura media	19.9
11426	7	Sololá	712	San Antonio Palopó	9	San Antonio Palopo	10	Octubre	2023-05-10T00:00:00	2024-11-08T22:00:00	4	Temperatura máxima	20
11427	7	Sololá	712	San Antonio Palopó	9	San Antonio Palopo	10	Octubre	2023-05-10T00:00:00	2024-11-08T22:00:00	3	Temperatura mínima	19.6
11428	7	Sololá	712	San Antonio Palopó	9	San Antonio Palopo	10	Octubre	2023-05-10T00:00:00	2024-11-08T22:00:00	5	Humedad	80
11429	7	Sololá	712	San Antonio Palopó	9	San Antonio Palopo	10	Octubre	2023-05-10T00:00:00	2024-11-08T22:00:00	6	Velocidad del viento	1.6
11430	7	Sololá	712	San Antonio Palopó	9	San Antonio Palopo	10	Octubre	2023-05-10T00:00:00	2024-11-08T22:00:00	7	Dirección del viento	1.61
11431	7	Sololá	712	San Antonio Palopó	9	San Antonio Palopo	10	Octubre	2023-05-10T00:00:00	2024-11-08T22:00:00	1	Precipitación	0
11432	7	Sololá	712	San Antonio Palopó	9	San Antonio Palopo	10	Octubre	2023-05-10T00:00:00	2024-11-08T22:00:00	8	Radiación solar	0
11433	7	Sololá	712	San Antonio Palopó	9	San Antonio Palopo	10	Octubre	2023-05-10T00:00:00	2024-11-08T23:00:00	2	Temperatura media	19.6
11434	7	Sololá	712	San Antonio Palopó	9	San Antonio Palopo	10	Octubre	2023-05-10T00:00:00	2024-11-08T23:00:00	4	Temperatura máxima	19.9
11435	7	Sololá	712	San Antonio Palopó	9	San Antonio Palopo	10	Octubre	2023-05-10T00:00:00	2024-11-08T23:00:00	3	Temperatura mínima	19.3
11436	7	Sololá	712	San Antonio Palopó	9	San Antonio Palopo	10	Octubre	2023-05-10T00:00:00	2024-11-08T23:00:00	5	Humedad	83
11437	7	Sololá	712	San Antonio Palopó	9	San Antonio Palopo	10	Octubre	2023-05-10T00:00:00	2024-11-08T23:00:00	6	Velocidad del viento	3.2
11438	7	Sololá	712	San Antonio Palopó	9	San Antonio Palopo	10	Octubre	2023-05-10T00:00:00	2024-11-08T23:00:00	7	Dirección del viento	3.22
11439	7	Sololá	712	San Antonio Palopó	9	San Antonio Palopo	10	Octubre	2023-05-10T00:00:00	2024-11-08T23:00:00	1	Precipitación	0
11440	7	Sololá	712	San Antonio Palopó	9	San Antonio Palopo	10	Octubre	2023-05-10T00:00:00	2024-11-08T23:00:00	8	Radiación solar	0
11441	7	Sololá	712	San Antonio Palopó	9	San Antonio Palopo	10	Octubre	2023-06-10T00:00:00	2024-11-08T00:00:00	2	Temperatura media	20.2
11442	7	Sololá	712	San Antonio Palopó	9	San Antonio Palopo	10	Octubre	2023-06-10T00:00:00	2024-11-08T00:00:00	4	Temperatura máxima	20.2
11443	7	Sololá	712	San Antonio Palopó	9	San Antonio Palopo	10	Octubre	2023-06-10T00:00:00	2024-11-08T00:00:00	3	Temperatura mínima	19.5
11444	7	Sololá	712	San Antonio Palopó	9	San Antonio Palopo	10	Octubre	2023-06-10T00:00:00	2024-11-08T00:00:00	5	Humedad	80
11445	7	Sololá	712	San Antonio Palopó	9	San Antonio Palopo	10	Octubre	2023-06-10T00:00:00	2024-11-08T00:00:00	6	Velocidad del viento	1.6
11446	7	Sololá	712	San Antonio Palopó	9	San Antonio Palopo	10	Octubre	2023-06-10T00:00:00	2024-11-08T00:00:00	7	Dirección del viento	1.61
11447	7	Sololá	712	San Antonio Palopó	9	San Antonio Palopo	10	Octubre	2023-06-10T00:00:00	2024-11-08T00:00:00	1	Precipitación	0
11448	7	Sololá	712	San Antonio Palopó	9	San Antonio Palopo	10	Octubre	2023-06-10T00:00:00	2024-11-08T00:00:00	8	Radiación solar	0
11449	7	Sololá	712	San Antonio Palopó	9	San Antonio Palopo	10	Octubre	2023-06-10T00:00:00	2024-11-08T01:00:00	2	Temperatura media	19.1
11450	7	Sololá	712	San Antonio Palopó	9	San Antonio Palopo	10	Octubre	2023-06-10T00:00:00	2024-11-08T01:00:00	4	Temperatura máxima	20.2
11451	7	Sololá	712	San Antonio Palopó	9	San Antonio Palopo	10	Octubre	2023-06-10T00:00:00	2024-11-08T01:00:00	3	Temperatura mínima	18.9
11452	7	Sololá	712	San Antonio Palopó	9	San Antonio Palopo	10	Octubre	2023-06-10T00:00:00	2024-11-08T01:00:00	5	Humedad	85
11453	7	Sololá	712	San Antonio Palopó	9	San Antonio Palopo	10	Octubre	2023-06-10T00:00:00	2024-11-08T01:00:00	6	Velocidad del viento	3.2
11454	7	Sololá	712	San Antonio Palopó	9	San Antonio Palopo	10	Octubre	2023-06-10T00:00:00	2024-11-08T01:00:00	7	Dirección del viento	3.22
11455	7	Sololá	712	San Antonio Palopó	9	San Antonio Palopo	10	Octubre	2023-06-10T00:00:00	2024-11-08T01:00:00	1	Precipitación	0
11456	7	Sololá	712	San Antonio Palopó	9	San Antonio Palopo	10	Octubre	2023-06-10T00:00:00	2024-11-08T01:00:00	8	Radiación solar	0
11457	7	Sololá	712	San Antonio Palopó	9	San Antonio Palopo	10	Octubre	2023-06-10T00:00:00	2024-11-08T02:00:00	2	Temperatura media	18
11458	7	Sololá	712	San Antonio Palopó	9	San Antonio Palopo	10	Octubre	2023-06-10T00:00:00	2024-11-08T02:00:00	4	Temperatura máxima	19.2
11459	7	Sololá	712	San Antonio Palopó	9	San Antonio Palopo	10	Octubre	2023-06-10T00:00:00	2024-11-08T02:00:00	3	Temperatura mínima	17.9
11460	7	Sololá	712	San Antonio Palopó	9	San Antonio Palopo	10	Octubre	2023-06-10T00:00:00	2024-11-08T02:00:00	5	Humedad	86
11461	7	Sololá	712	San Antonio Palopó	9	San Antonio Palopo	10	Octubre	2023-06-10T00:00:00	2024-11-08T02:00:00	6	Velocidad del viento	3.2
11462	7	Sololá	712	San Antonio Palopó	9	San Antonio Palopo	10	Octubre	2023-06-10T00:00:00	2024-11-08T02:00:00	7	Dirección del viento	3.22
11463	7	Sololá	712	San Antonio Palopó	9	San Antonio Palopo	10	Octubre	2023-06-10T00:00:00	2024-11-08T02:00:00	1	Precipitación	0
11464	7	Sololá	712	San Antonio Palopó	9	San Antonio Palopo	10	Octubre	2023-06-10T00:00:00	2024-11-08T02:00:00	8	Radiación solar	0
11465	7	Sololá	712	San Antonio Palopó	9	San Antonio Palopo	10	Octubre	2023-06-10T00:00:00	2024-11-08T03:00:00	2	Temperatura media	18.4
11466	7	Sololá	712	San Antonio Palopó	9	San Antonio Palopo	10	Octubre	2023-06-10T00:00:00	2024-11-08T03:00:00	4	Temperatura máxima	18.6
11467	7	Sololá	712	San Antonio Palopó	9	San Antonio Palopo	10	Octubre	2023-06-10T00:00:00	2024-11-08T03:00:00	3	Temperatura mínima	17.9
11468	7	Sololá	712	San Antonio Palopó	9	San Antonio Palopo	10	Octubre	2023-06-10T00:00:00	2024-11-08T03:00:00	5	Humedad	84
11469	7	Sololá	712	San Antonio Palopó	9	San Antonio Palopo	10	Octubre	2023-06-10T00:00:00	2024-11-08T03:00:00	6	Velocidad del viento	3.2
11470	7	Sololá	712	San Antonio Palopó	9	San Antonio Palopo	10	Octubre	2023-06-10T00:00:00	2024-11-08T03:00:00	7	Dirección del viento	3.22
11471	7	Sololá	712	San Antonio Palopó	9	San Antonio Palopo	10	Octubre	2023-06-10T00:00:00	2024-11-08T03:00:00	1	Precipitación	0
11472	7	Sololá	712	San Antonio Palopó	9	San Antonio Palopo	10	Octubre	2023-06-10T00:00:00	2024-11-08T03:00:00	8	Radiación solar	0
11473	7	Sololá	712	San Antonio Palopó	9	San Antonio Palopo	10	Octubre	2023-06-10T00:00:00	2024-11-08T04:00:00	2	Temperatura media	18
11474	7	Sololá	712	San Antonio Palopó	9	San Antonio Palopo	10	Octubre	2023-06-10T00:00:00	2024-11-08T04:00:00	4	Temperatura máxima	18.8
11475	7	Sololá	712	San Antonio Palopó	9	San Antonio Palopo	10	Octubre	2023-06-10T00:00:00	2024-11-08T04:00:00	3	Temperatura mínima	18
11476	7	Sololá	712	San Antonio Palopó	9	San Antonio Palopo	10	Octubre	2023-06-10T00:00:00	2024-11-08T04:00:00	5	Humedad	85
11477	7	Sololá	712	San Antonio Palopó	9	San Antonio Palopo	10	Octubre	2023-06-10T00:00:00	2024-11-08T04:00:00	6	Velocidad del viento	3.2
11478	7	Sololá	712	San Antonio Palopó	9	San Antonio Palopo	10	Octubre	2023-06-10T00:00:00	2024-11-08T04:00:00	7	Dirección del viento	3.22
11479	7	Sololá	712	San Antonio Palopó	9	San Antonio Palopo	10	Octubre	2023-06-10T00:00:00	2024-11-08T04:00:00	1	Precipitación	0
11480	7	Sololá	712	San Antonio Palopó	9	San Antonio Palopo	10	Octubre	2023-06-10T00:00:00	2024-11-08T04:00:00	8	Radiación solar	0
11481	7	Sololá	712	San Antonio Palopó	9	San Antonio Palopo	10	Octubre	2023-06-10T00:00:00	2024-11-08T05:00:00	2	Temperatura media	18.4
11482	7	Sololá	712	San Antonio Palopó	9	San Antonio Palopo	10	Octubre	2023-06-10T00:00:00	2024-11-08T05:00:00	4	Temperatura máxima	18.7
11483	7	Sololá	712	San Antonio Palopó	9	San Antonio Palopo	10	Octubre	2023-06-10T00:00:00	2024-11-08T05:00:00	3	Temperatura mínima	17.7
11484	7	Sololá	712	San Antonio Palopó	9	San Antonio Palopo	10	Octubre	2023-06-10T00:00:00	2024-11-08T05:00:00	5	Humedad	86
11485	7	Sololá	712	San Antonio Palopó	9	San Antonio Palopo	10	Octubre	2023-06-10T00:00:00	2024-11-08T05:00:00	6	Velocidad del viento	3.2
11486	7	Sololá	712	San Antonio Palopó	9	San Antonio Palopo	10	Octubre	2023-06-10T00:00:00	2024-11-08T05:00:00	7	Dirección del viento	3.22
11487	7	Sololá	712	San Antonio Palopó	9	San Antonio Palopo	10	Octubre	2023-06-10T00:00:00	2024-11-08T05:00:00	1	Precipitación	0
11488	7	Sololá	712	San Antonio Palopó	9	San Antonio Palopo	10	Octubre	2023-06-10T00:00:00	2024-11-08T05:00:00	8	Radiación solar	0
11489	7	Sololá	712	San Antonio Palopó	9	San Antonio Palopo	10	Octubre	2023-06-10T00:00:00	2024-11-08T06:00:00	2	Temperatura media	17.7
11490	7	Sololá	712	San Antonio Palopó	9	San Antonio Palopo	10	Octubre	2023-06-10T00:00:00	2024-11-08T06:00:00	4	Temperatura máxima	18.4
11491	7	Sololá	712	San Antonio Palopó	9	San Antonio Palopo	10	Octubre	2023-06-10T00:00:00	2024-11-08T06:00:00	3	Temperatura mínima	17.7
11492	7	Sololá	712	San Antonio Palopó	9	San Antonio Palopo	10	Octubre	2023-06-10T00:00:00	2024-11-08T06:00:00	5	Humedad	89
11493	7	Sololá	712	San Antonio Palopó	9	San Antonio Palopo	10	Octubre	2023-06-10T00:00:00	2024-11-08T06:00:00	6	Velocidad del viento	3.2
11494	7	Sololá	712	San Antonio Palopó	9	San Antonio Palopo	10	Octubre	2023-06-10T00:00:00	2024-11-08T06:00:00	7	Dirección del viento	3.22
11495	7	Sololá	712	San Antonio Palopó	9	San Antonio Palopo	10	Octubre	2023-06-10T00:00:00	2024-11-08T06:00:00	1	Precipitación	0
11496	7	Sololá	712	San Antonio Palopó	9	San Antonio Palopo	10	Octubre	2023-06-10T00:00:00	2024-11-08T06:00:00	8	Radiación solar	0
11497	7	Sololá	712	San Antonio Palopó	9	San Antonio Palopo	10	Octubre	2023-06-10T00:00:00	2024-11-08T07:00:00	2	Temperatura media	18.8
11498	7	Sololá	712	San Antonio Palopó	9	San Antonio Palopo	10	Octubre	2023-06-10T00:00:00	2024-11-08T07:00:00	4	Temperatura máxima	18.9
11499	7	Sololá	712	San Antonio Palopó	9	San Antonio Palopo	10	Octubre	2023-06-10T00:00:00	2024-11-08T07:00:00	3	Temperatura mínima	17.6
11500	7	Sololá	712	San Antonio Palopó	9	San Antonio Palopo	10	Octubre	2023-06-10T00:00:00	2024-11-08T07:00:00	5	Humedad	85
11501	7	Sololá	712	San Antonio Palopó	9	San Antonio Palopo	10	Octubre	2023-06-10T00:00:00	2024-11-08T07:00:00	6	Velocidad del viento	3.2
11502	7	Sololá	712	San Antonio Palopó	9	San Antonio Palopo	10	Octubre	2023-06-10T00:00:00	2024-11-08T07:00:00	7	Dirección del viento	3.22
11503	7	Sololá	712	San Antonio Palopó	9	San Antonio Palopo	10	Octubre	2023-06-10T00:00:00	2024-11-08T07:00:00	1	Precipitación	0
11504	7	Sololá	712	San Antonio Palopó	9	San Antonio Palopo	10	Octubre	2023-06-10T00:00:00	2024-11-08T07:00:00	8	Radiación solar	28
11505	7	Sololá	712	San Antonio Palopó	9	San Antonio Palopo	10	Octubre	2023-06-10T00:00:00	2024-11-08T08:00:00	2	Temperatura media	20.8
11506	7	Sololá	712	San Antonio Palopó	9	San Antonio Palopo	10	Octubre	2023-06-10T00:00:00	2024-11-08T08:00:00	4	Temperatura máxima	20.8
11507	7	Sololá	712	San Antonio Palopó	9	San Antonio Palopo	10	Octubre	2023-06-10T00:00:00	2024-11-08T08:00:00	3	Temperatura mínima	18.7
11508	7	Sololá	712	San Antonio Palopó	9	San Antonio Palopo	10	Octubre	2023-06-10T00:00:00	2024-11-08T08:00:00	5	Humedad	80
11509	7	Sololá	712	San Antonio Palopó	9	San Antonio Palopo	10	Octubre	2023-06-10T00:00:00	2024-11-08T08:00:00	6	Velocidad del viento	1.6
11510	7	Sololá	712	San Antonio Palopó	9	San Antonio Palopo	10	Octubre	2023-06-10T00:00:00	2024-11-08T08:00:00	7	Dirección del viento	1.61
11511	7	Sololá	712	San Antonio Palopó	9	San Antonio Palopo	10	Octubre	2023-06-10T00:00:00	2024-11-08T08:00:00	1	Precipitación	0
11512	7	Sololá	712	San Antonio Palopó	9	San Antonio Palopo	10	Octubre	2023-06-10T00:00:00	2024-11-08T08:00:00	8	Radiación solar	146
11513	7	Sololá	712	San Antonio Palopó	9	San Antonio Palopo	10	Octubre	2023-06-10T00:00:00	2024-11-08T09:00:00	2	Temperatura media	21.7
11514	7	Sololá	712	San Antonio Palopó	9	San Antonio Palopo	10	Octubre	2023-06-10T00:00:00	2024-11-08T09:00:00	4	Temperatura máxima	22
11515	7	Sololá	712	San Antonio Palopó	9	San Antonio Palopo	10	Octubre	2023-06-10T00:00:00	2024-11-08T09:00:00	3	Temperatura mínima	20.8
11516	7	Sololá	712	San Antonio Palopó	9	San Antonio Palopo	10	Octubre	2023-06-10T00:00:00	2024-11-08T09:00:00	5	Humedad	78
11517	7	Sololá	712	San Antonio Palopó	9	San Antonio Palopo	10	Octubre	2023-06-10T00:00:00	2024-11-08T09:00:00	6	Velocidad del viento	3.2
11518	7	Sololá	712	San Antonio Palopó	9	San Antonio Palopo	10	Octubre	2023-06-10T00:00:00	2024-11-08T09:00:00	7	Dirección del viento	3.22
11519	7	Sololá	712	San Antonio Palopó	9	San Antonio Palopo	10	Octubre	2023-06-10T00:00:00	2024-11-08T09:00:00	1	Precipitación	0
11520	7	Sololá	712	San Antonio Palopó	9	San Antonio Palopo	10	Octubre	2023-06-10T00:00:00	2024-11-08T09:00:00	8	Radiación solar	500
11521	7	Sololá	712	San Antonio Palopó	9	San Antonio Palopo	10	Octubre	2023-06-10T00:00:00	2024-11-08T10:00:00	2	Temperatura media	22.9
11522	7	Sololá	712	San Antonio Palopó	9	San Antonio Palopo	10	Octubre	2023-06-10T00:00:00	2024-11-08T10:00:00	4	Temperatura máxima	22.9
11523	7	Sololá	712	San Antonio Palopó	9	San Antonio Palopo	10	Octubre	2023-06-10T00:00:00	2024-11-08T10:00:00	3	Temperatura mínima	21.7
11524	7	Sololá	712	San Antonio Palopó	9	San Antonio Palopo	10	Octubre	2023-06-10T00:00:00	2024-11-08T10:00:00	5	Humedad	75
11525	7	Sololá	712	San Antonio Palopó	9	San Antonio Palopo	10	Octubre	2023-06-10T00:00:00	2024-11-08T10:00:00	6	Velocidad del viento	3.2
11526	7	Sololá	712	San Antonio Palopó	9	San Antonio Palopo	10	Octubre	2023-06-10T00:00:00	2024-11-08T10:00:00	7	Dirección del viento	3.22
11527	7	Sololá	712	San Antonio Palopó	9	San Antonio Palopo	10	Octubre	2023-06-10T00:00:00	2024-11-08T10:00:00	1	Precipitación	0
11528	7	Sololá	712	San Antonio Palopó	9	San Antonio Palopo	10	Octubre	2023-06-10T00:00:00	2024-11-08T10:00:00	8	Radiación solar	690
11529	7	Sololá	712	San Antonio Palopó	9	San Antonio Palopo	10	Octubre	2023-06-10T00:00:00	2024-11-08T11:00:00	2	Temperatura media	22.5
11530	7	Sololá	712	San Antonio Palopó	9	San Antonio Palopo	10	Octubre	2023-06-10T00:00:00	2024-11-08T11:00:00	4	Temperatura máxima	24.2
11531	7	Sololá	712	San Antonio Palopó	9	San Antonio Palopo	10	Octubre	2023-06-10T00:00:00	2024-11-08T11:00:00	3	Temperatura mínima	22.5
11532	7	Sololá	712	San Antonio Palopó	9	San Antonio Palopo	10	Octubre	2023-06-10T00:00:00	2024-11-08T11:00:00	5	Humedad	76
11533	7	Sololá	712	San Antonio Palopó	9	San Antonio Palopo	10	Octubre	2023-06-10T00:00:00	2024-11-08T11:00:00	6	Velocidad del viento	6.4
11534	7	Sololá	712	San Antonio Palopó	9	San Antonio Palopo	10	Octubre	2023-06-10T00:00:00	2024-11-08T11:00:00	7	Dirección del viento	6.44
11535	7	Sololá	712	San Antonio Palopó	9	San Antonio Palopo	10	Octubre	2023-06-10T00:00:00	2024-11-08T11:00:00	1	Precipitación	0
11536	7	Sololá	712	San Antonio Palopó	9	San Antonio Palopo	10	Octubre	2023-06-10T00:00:00	2024-11-08T11:00:00	8	Radiación solar	537
11537	7	Sololá	712	San Antonio Palopó	9	San Antonio Palopo	10	Octubre	2023-06-10T00:00:00	2024-11-08T12:00:00	2	Temperatura media	24.1
11538	7	Sololá	712	San Antonio Palopó	9	San Antonio Palopo	10	Octubre	2023-06-10T00:00:00	2024-11-08T12:00:00	4	Temperatura máxima	24.2
11539	7	Sololá	712	San Antonio Palopó	9	San Antonio Palopo	10	Octubre	2023-06-10T00:00:00	2024-11-08T12:00:00	3	Temperatura mínima	22.5
11540	7	Sololá	712	San Antonio Palopó	9	San Antonio Palopo	10	Octubre	2023-06-10T00:00:00	2024-11-08T12:00:00	5	Humedad	75
11541	7	Sololá	712	San Antonio Palopó	9	San Antonio Palopo	10	Octubre	2023-06-10T00:00:00	2024-11-08T12:00:00	6	Velocidad del viento	4.8
11542	7	Sololá	712	San Antonio Palopó	9	San Antonio Palopo	10	Octubre	2023-06-10T00:00:00	2024-11-08T12:00:00	7	Dirección del viento	4.83
11543	7	Sololá	712	San Antonio Palopó	9	San Antonio Palopo	10	Octubre	2023-06-10T00:00:00	2024-11-08T12:00:00	1	Precipitación	0
11544	7	Sololá	712	San Antonio Palopó	9	San Antonio Palopo	10	Octubre	2023-06-10T00:00:00	2024-11-08T12:00:00	8	Radiación solar	619
11545	7	Sololá	712	San Antonio Palopó	9	San Antonio Palopo	10	Octubre	2023-06-10T00:00:00	2024-11-08T13:00:00	2	Temperatura media	24.1
11546	7	Sololá	712	San Antonio Palopó	9	San Antonio Palopo	10	Octubre	2023-06-10T00:00:00	2024-11-08T13:00:00	4	Temperatura máxima	24.3
11547	7	Sololá	712	San Antonio Palopó	9	San Antonio Palopo	10	Octubre	2023-06-10T00:00:00	2024-11-08T13:00:00	3	Temperatura mínima	23.6
11548	7	Sololá	712	San Antonio Palopó	9	San Antonio Palopo	10	Octubre	2023-06-10T00:00:00	2024-11-08T13:00:00	5	Humedad	75
11549	7	Sololá	712	San Antonio Palopó	9	San Antonio Palopo	10	Octubre	2023-06-10T00:00:00	2024-11-08T13:00:00	6	Velocidad del viento	3.2
11550	7	Sololá	712	San Antonio Palopó	9	San Antonio Palopo	10	Octubre	2023-06-10T00:00:00	2024-11-08T13:00:00	7	Dirección del viento	3.22
11551	7	Sololá	712	San Antonio Palopó	9	San Antonio Palopo	10	Octubre	2023-06-10T00:00:00	2024-11-08T13:00:00	1	Precipitación	0
11552	7	Sololá	712	San Antonio Palopó	9	San Antonio Palopo	10	Octubre	2023-06-10T00:00:00	2024-11-08T13:00:00	8	Radiación solar	323
11553	7	Sololá	712	San Antonio Palopó	9	San Antonio Palopo	10	Octubre	2023-06-10T00:00:00	2024-11-08T14:00:00	2	Temperatura media	23.2
11554	7	Sololá	712	San Antonio Palopó	9	San Antonio Palopo	10	Octubre	2023-06-10T00:00:00	2024-11-08T14:00:00	4	Temperatura máxima	24.5
11555	7	Sololá	712	San Antonio Palopó	9	San Antonio Palopo	10	Octubre	2023-06-10T00:00:00	2024-11-08T14:00:00	3	Temperatura mínima	23.2
11556	7	Sololá	712	San Antonio Palopó	9	San Antonio Palopo	10	Octubre	2023-06-10T00:00:00	2024-11-08T14:00:00	5	Humedad	78
11557	7	Sololá	712	San Antonio Palopó	9	San Antonio Palopo	10	Octubre	2023-06-10T00:00:00	2024-11-08T14:00:00	6	Velocidad del viento	6.4
11558	7	Sololá	712	San Antonio Palopó	9	San Antonio Palopo	10	Octubre	2023-06-10T00:00:00	2024-11-08T14:00:00	7	Dirección del viento	6.44
11559	7	Sololá	712	San Antonio Palopó	9	San Antonio Palopo	10	Octubre	2023-06-10T00:00:00	2024-11-08T14:00:00	1	Precipitación	0
11560	7	Sololá	712	San Antonio Palopó	9	San Antonio Palopo	10	Octubre	2023-06-10T00:00:00	2024-11-08T14:00:00	8	Radiación solar	306
11561	7	Sololá	712	San Antonio Palopó	9	San Antonio Palopo	10	Octubre	2023-06-10T00:00:00	2024-11-08T15:00:00	2	Temperatura media	24.7
11562	7	Sololá	712	San Antonio Palopó	9	San Antonio Palopo	10	Octubre	2023-06-10T00:00:00	2024-11-08T15:00:00	4	Temperatura máxima	25.1
11563	7	Sololá	712	San Antonio Palopó	9	San Antonio Palopo	10	Octubre	2023-06-10T00:00:00	2024-11-08T15:00:00	3	Temperatura mínima	23.2
11564	7	Sololá	712	San Antonio Palopó	9	San Antonio Palopo	10	Octubre	2023-06-10T00:00:00	2024-11-08T15:00:00	5	Humedad	74
11565	7	Sololá	712	San Antonio Palopó	9	San Antonio Palopo	10	Octubre	2023-06-10T00:00:00	2024-11-08T15:00:00	6	Velocidad del viento	9.7
11566	7	Sololá	712	San Antonio Palopó	9	San Antonio Palopo	10	Octubre	2023-06-10T00:00:00	2024-11-08T15:00:00	7	Dirección del viento	9.66
11567	7	Sololá	712	San Antonio Palopó	9	San Antonio Palopo	10	Octubre	2023-06-10T00:00:00	2024-11-08T15:00:00	1	Precipitación	0
11568	7	Sololá	712	San Antonio Palopó	9	San Antonio Palopo	10	Octubre	2023-06-10T00:00:00	2024-11-08T15:00:00	8	Radiación solar	722
11569	7	Sololá	712	San Antonio Palopó	9	San Antonio Palopo	10	Octubre	2023-06-10T00:00:00	2024-11-08T16:00:00	2	Temperatura media	24.2
11570	7	Sololá	712	San Antonio Palopó	9	San Antonio Palopo	10	Octubre	2023-06-10T00:00:00	2024-11-08T16:00:00	4	Temperatura máxima	24.7
11571	7	Sololá	712	San Antonio Palopó	9	San Antonio Palopo	10	Octubre	2023-06-10T00:00:00	2024-11-08T16:00:00	3	Temperatura mínima	23.6
11572	7	Sololá	712	San Antonio Palopó	9	San Antonio Palopo	10	Octubre	2023-06-10T00:00:00	2024-11-08T16:00:00	5	Humedad	76
11573	7	Sololá	712	San Antonio Palopó	9	San Antonio Palopo	10	Octubre	2023-06-10T00:00:00	2024-11-08T16:00:00	6	Velocidad del viento	9.7
11574	7	Sololá	712	San Antonio Palopó	9	San Antonio Palopo	10	Octubre	2023-06-10T00:00:00	2024-11-08T16:00:00	7	Dirección del viento	9.66
11575	7	Sololá	712	San Antonio Palopó	9	San Antonio Palopo	10	Octubre	2023-06-10T00:00:00	2024-11-08T16:00:00	1	Precipitación	0
11576	7	Sololá	712	San Antonio Palopó	9	San Antonio Palopo	10	Octubre	2023-06-10T00:00:00	2024-11-08T16:00:00	8	Radiación solar	369
11577	7	Sololá	712	San Antonio Palopó	9	San Antonio Palopo	10	Octubre	2023-06-10T00:00:00	2024-11-08T17:00:00	2	Temperatura media	22.3
11578	7	Sololá	712	San Antonio Palopó	9	San Antonio Palopo	10	Octubre	2023-06-10T00:00:00	2024-11-08T17:00:00	4	Temperatura máxima	24.2
11579	7	Sololá	712	San Antonio Palopó	9	San Antonio Palopo	10	Octubre	2023-06-10T00:00:00	2024-11-08T17:00:00	3	Temperatura mínima	22.3
11580	7	Sololá	712	San Antonio Palopó	9	San Antonio Palopo	10	Octubre	2023-06-10T00:00:00	2024-11-08T17:00:00	5	Humedad	82
11581	7	Sololá	712	San Antonio Palopó	9	San Antonio Palopo	10	Octubre	2023-06-10T00:00:00	2024-11-08T17:00:00	6	Velocidad del viento	8
11582	7	Sololá	712	San Antonio Palopó	9	San Antonio Palopo	10	Octubre	2023-06-10T00:00:00	2024-11-08T17:00:00	7	Dirección del viento	8.05
11583	7	Sololá	712	San Antonio Palopó	9	San Antonio Palopo	10	Octubre	2023-06-10T00:00:00	2024-11-08T17:00:00	1	Precipitación	0
11584	7	Sololá	712	San Antonio Palopó	9	San Antonio Palopo	10	Octubre	2023-06-10T00:00:00	2024-11-08T17:00:00	8	Radiación solar	160
11585	7	Sololá	712	San Antonio Palopó	9	San Antonio Palopo	10	Octubre	2023-06-10T00:00:00	2024-11-08T18:00:00	2	Temperatura media	21.1
11586	7	Sololá	712	San Antonio Palopó	9	San Antonio Palopo	10	Octubre	2023-06-10T00:00:00	2024-11-08T18:00:00	4	Temperatura máxima	22.3
11587	7	Sololá	712	San Antonio Palopó	9	San Antonio Palopo	10	Octubre	2023-06-10T00:00:00	2024-11-08T18:00:00	3	Temperatura mínima	20.9
11588	7	Sololá	712	San Antonio Palopó	9	San Antonio Palopo	10	Octubre	2023-06-10T00:00:00	2024-11-08T18:00:00	5	Humedad	85
11589	7	Sololá	712	San Antonio Palopó	9	San Antonio Palopo	10	Octubre	2023-06-10T00:00:00	2024-11-08T18:00:00	6	Velocidad del viento	6.4
11590	7	Sololá	712	San Antonio Palopó	9	San Antonio Palopo	10	Octubre	2023-06-10T00:00:00	2024-11-08T18:00:00	7	Dirección del viento	6.44
11591	7	Sololá	712	San Antonio Palopó	9	San Antonio Palopo	10	Octubre	2023-06-10T00:00:00	2024-11-08T18:00:00	1	Precipitación	0
11592	7	Sololá	712	San Antonio Palopó	9	San Antonio Palopo	10	Octubre	2023-06-10T00:00:00	2024-11-08T18:00:00	8	Radiación solar	9
11593	7	Sololá	712	San Antonio Palopó	9	San Antonio Palopo	10	Octubre	2023-06-10T00:00:00	2024-11-08T19:00:00	2	Temperatura media	20.3
11594	7	Sololá	712	San Antonio Palopó	9	San Antonio Palopo	10	Octubre	2023-06-10T00:00:00	2024-11-08T19:00:00	4	Temperatura máxima	21.4
11595	7	Sololá	712	San Antonio Palopó	9	San Antonio Palopo	10	Octubre	2023-06-10T00:00:00	2024-11-08T19:00:00	3	Temperatura mínima	20.3
11596	7	Sololá	712	San Antonio Palopó	9	San Antonio Palopo	10	Octubre	2023-06-10T00:00:00	2024-11-08T19:00:00	5	Humedad	87
11597	7	Sololá	712	San Antonio Palopó	9	San Antonio Palopo	10	Octubre	2023-06-10T00:00:00	2024-11-08T19:00:00	6	Velocidad del viento	3.2
11598	7	Sololá	712	San Antonio Palopó	9	San Antonio Palopo	10	Octubre	2023-06-10T00:00:00	2024-11-08T19:00:00	7	Dirección del viento	3.22
11599	7	Sololá	712	San Antonio Palopó	9	San Antonio Palopo	10	Octubre	2023-06-10T00:00:00	2024-11-08T19:00:00	1	Precipitación	2.6
11600	7	Sololá	712	San Antonio Palopó	9	San Antonio Palopo	10	Octubre	2023-06-10T00:00:00	2024-11-08T19:00:00	8	Radiación solar	0
11601	7	Sololá	712	San Antonio Palopó	9	San Antonio Palopo	10	Octubre	2023-06-10T00:00:00	2024-11-08T20:00:00	2	Temperatura media	19.2
11602	7	Sololá	712	San Antonio Palopó	9	San Antonio Palopo	10	Octubre	2023-06-10T00:00:00	2024-11-08T20:00:00	4	Temperatura máxima	20.2
11603	7	Sololá	712	San Antonio Palopó	9	San Antonio Palopo	10	Octubre	2023-06-10T00:00:00	2024-11-08T20:00:00	3	Temperatura mínima	19.2
11604	7	Sololá	712	San Antonio Palopó	9	San Antonio Palopo	10	Octubre	2023-06-10T00:00:00	2024-11-08T20:00:00	5	Humedad	90
11605	7	Sololá	712	San Antonio Palopó	9	San Antonio Palopo	10	Octubre	2023-06-10T00:00:00	2024-11-08T20:00:00	6	Velocidad del viento	4.8
11606	7	Sololá	712	San Antonio Palopó	9	San Antonio Palopo	10	Octubre	2023-06-10T00:00:00	2024-11-08T20:00:00	7	Dirección del viento	4.83
11607	7	Sololá	712	San Antonio Palopó	9	San Antonio Palopo	10	Octubre	2023-06-10T00:00:00	2024-11-08T20:00:00	1	Precipitación	4.4
11608	7	Sololá	712	San Antonio Palopó	9	San Antonio Palopo	10	Octubre	2023-06-10T00:00:00	2024-11-08T20:00:00	8	Radiación solar	0
11609	7	Sololá	712	San Antonio Palopó	9	San Antonio Palopo	10	Octubre	2023-06-10T00:00:00	2024-11-08T21:00:00	2	Temperatura media	19.5
11610	7	Sololá	712	San Antonio Palopó	9	San Antonio Palopo	10	Octubre	2023-06-10T00:00:00	2024-11-08T21:00:00	4	Temperatura máxima	19.6
11611	7	Sololá	712	San Antonio Palopó	9	San Antonio Palopo	10	Octubre	2023-06-10T00:00:00	2024-11-08T21:00:00	3	Temperatura mínima	19.1
11612	7	Sololá	712	San Antonio Palopó	9	San Antonio Palopo	10	Octubre	2023-06-10T00:00:00	2024-11-08T21:00:00	5	Humedad	90
11613	7	Sololá	712	San Antonio Palopó	9	San Antonio Palopo	10	Octubre	2023-06-10T00:00:00	2024-11-08T21:00:00	6	Velocidad del viento	1.6
11614	7	Sololá	712	San Antonio Palopó	9	San Antonio Palopo	10	Octubre	2023-06-10T00:00:00	2024-11-08T21:00:00	7	Dirección del viento	1.61
11615	7	Sololá	712	San Antonio Palopó	9	San Antonio Palopo	10	Octubre	2023-06-10T00:00:00	2024-11-08T21:00:00	1	Precipitación	0.6
11616	7	Sololá	712	San Antonio Palopó	9	San Antonio Palopo	10	Octubre	2023-06-10T00:00:00	2024-11-08T21:00:00	8	Radiación solar	0
11617	7	Sololá	712	San Antonio Palopó	9	San Antonio Palopo	10	Octubre	2023-06-10T00:00:00	2024-11-08T22:00:00	2	Temperatura media	19.4
11618	7	Sololá	712	San Antonio Palopó	9	San Antonio Palopo	10	Octubre	2023-06-10T00:00:00	2024-11-08T22:00:00	4	Temperatura máxima	19.5
11619	7	Sololá	712	San Antonio Palopó	9	San Antonio Palopo	10	Octubre	2023-06-10T00:00:00	2024-11-08T22:00:00	3	Temperatura mínima	18.9
11620	7	Sololá	712	San Antonio Palopó	9	San Antonio Palopo	10	Octubre	2023-06-10T00:00:00	2024-11-08T22:00:00	5	Humedad	88
11621	7	Sololá	712	San Antonio Palopó	9	San Antonio Palopo	10	Octubre	2023-06-10T00:00:00	2024-11-08T22:00:00	6	Velocidad del viento	3.2
11622	7	Sololá	712	San Antonio Palopó	9	San Antonio Palopo	10	Octubre	2023-06-10T00:00:00	2024-11-08T22:00:00	7	Dirección del viento	3.22
11623	7	Sololá	712	San Antonio Palopó	9	San Antonio Palopo	10	Octubre	2023-06-10T00:00:00	2024-11-08T22:00:00	1	Precipitación	0
11624	7	Sololá	712	San Antonio Palopó	9	San Antonio Palopo	10	Octubre	2023-06-10T00:00:00	2024-11-08T22:00:00	8	Radiación solar	0
11625	7	Sololá	712	San Antonio Palopó	9	San Antonio Palopo	10	Octubre	2023-06-10T00:00:00	2024-11-08T23:00:00	2	Temperatura media	19
11626	7	Sololá	712	San Antonio Palopó	9	San Antonio Palopo	10	Octubre	2023-06-10T00:00:00	2024-11-08T23:00:00	4	Temperatura máxima	19.6
11627	7	Sololá	712	San Antonio Palopó	9	San Antonio Palopo	10	Octubre	2023-06-10T00:00:00	2024-11-08T23:00:00	3	Temperatura mínima	18.9
11628	7	Sololá	712	San Antonio Palopó	9	San Antonio Palopo	10	Octubre	2023-06-10T00:00:00	2024-11-08T23:00:00	5	Humedad	90
11629	7	Sololá	712	San Antonio Palopó	9	San Antonio Palopo	10	Octubre	2023-06-10T00:00:00	2024-11-08T23:00:00	6	Velocidad del viento	1.6
11630	7	Sololá	712	San Antonio Palopó	9	San Antonio Palopo	10	Octubre	2023-06-10T00:00:00	2024-11-08T23:00:00	7	Dirección del viento	1.61
11631	7	Sololá	712	San Antonio Palopó	9	San Antonio Palopo	10	Octubre	2023-06-10T00:00:00	2024-11-08T23:00:00	1	Precipitación	0
11632	7	Sololá	712	San Antonio Palopó	9	San Antonio Palopo	10	Octubre	2023-06-10T00:00:00	2024-11-08T23:00:00	8	Radiación solar	0
11633	7	Sololá	712	San Antonio Palopó	9	San Antonio Palopo	10	Octubre	2023-07-10T00:00:00	2024-11-08T00:00:00	2	Temperatura media	19.5
11634	7	Sololá	712	San Antonio Palopó	9	San Antonio Palopo	10	Octubre	2023-07-10T00:00:00	2024-11-08T00:00:00	4	Temperatura máxima	19.5
11635	7	Sololá	712	San Antonio Palopó	9	San Antonio Palopo	10	Octubre	2023-07-10T00:00:00	2024-11-08T00:00:00	3	Temperatura mínima	18.9
11636	7	Sololá	712	San Antonio Palopó	9	San Antonio Palopo	10	Octubre	2023-07-10T00:00:00	2024-11-08T00:00:00	5	Humedad	88
11637	7	Sololá	712	San Antonio Palopó	9	San Antonio Palopo	10	Octubre	2023-07-10T00:00:00	2024-11-08T00:00:00	6	Velocidad del viento	1.6
11638	7	Sololá	712	San Antonio Palopó	9	San Antonio Palopo	10	Octubre	2023-07-10T00:00:00	2024-11-08T00:00:00	7	Dirección del viento	1.61
11639	7	Sololá	712	San Antonio Palopó	9	San Antonio Palopo	10	Octubre	2023-07-10T00:00:00	2024-11-08T00:00:00	1	Precipitación	0
11640	7	Sololá	712	San Antonio Palopó	9	San Antonio Palopo	10	Octubre	2023-07-10T00:00:00	2024-11-08T00:00:00	8	Radiación solar	0
11641	7	Sololá	712	San Antonio Palopó	9	San Antonio Palopo	10	Octubre	2023-07-10T00:00:00	2024-11-08T01:00:00	2	Temperatura media	18.6
11642	7	Sololá	712	San Antonio Palopó	9	San Antonio Palopo	10	Octubre	2023-07-10T00:00:00	2024-11-08T01:00:00	4	Temperatura máxima	19.5
11643	7	Sololá	712	San Antonio Palopó	9	San Antonio Palopo	10	Octubre	2023-07-10T00:00:00	2024-11-08T01:00:00	3	Temperatura mínima	18.6
11644	7	Sololá	712	San Antonio Palopó	9	San Antonio Palopo	10	Octubre	2023-07-10T00:00:00	2024-11-08T01:00:00	5	Humedad	90
11645	7	Sololá	712	San Antonio Palopó	9	San Antonio Palopo	10	Octubre	2023-07-10T00:00:00	2024-11-08T01:00:00	6	Velocidad del viento	1.6
11646	7	Sololá	712	San Antonio Palopó	9	San Antonio Palopo	10	Octubre	2023-07-10T00:00:00	2024-11-08T01:00:00	7	Dirección del viento	1.61
11647	7	Sololá	712	San Antonio Palopó	9	San Antonio Palopo	10	Octubre	2023-07-10T00:00:00	2024-11-08T01:00:00	1	Precipitación	0
11648	7	Sololá	712	San Antonio Palopó	9	San Antonio Palopo	10	Octubre	2023-07-10T00:00:00	2024-11-08T01:00:00	8	Radiación solar	0
11649	7	Sololá	712	San Antonio Palopó	9	San Antonio Palopo	10	Octubre	2023-07-10T00:00:00	2024-11-08T02:00:00	2	Temperatura media	19.1
11650	7	Sololá	712	San Antonio Palopó	9	San Antonio Palopo	10	Octubre	2023-07-10T00:00:00	2024-11-08T02:00:00	4	Temperatura máxima	19.1
11651	7	Sololá	712	San Antonio Palopó	9	San Antonio Palopo	10	Octubre	2023-07-10T00:00:00	2024-11-08T02:00:00	3	Temperatura mínima	18.6
11652	7	Sololá	712	San Antonio Palopó	9	San Antonio Palopo	10	Octubre	2023-07-10T00:00:00	2024-11-08T02:00:00	5	Humedad	89
11653	7	Sololá	712	San Antonio Palopó	9	San Antonio Palopo	10	Octubre	2023-07-10T00:00:00	2024-11-08T02:00:00	6	Velocidad del viento	1.6
11654	7	Sololá	712	San Antonio Palopó	9	San Antonio Palopo	10	Octubre	2023-07-10T00:00:00	2024-11-08T02:00:00	7	Dirección del viento	1.61
11655	7	Sololá	712	San Antonio Palopó	9	San Antonio Palopo	10	Octubre	2023-07-10T00:00:00	2024-11-08T02:00:00	1	Precipitación	0
11656	7	Sololá	712	San Antonio Palopó	9	San Antonio Palopo	10	Octubre	2023-07-10T00:00:00	2024-11-08T02:00:00	8	Radiación solar	0
11657	7	Sololá	712	San Antonio Palopó	9	San Antonio Palopo	10	Octubre	2023-07-10T00:00:00	2024-11-08T03:00:00	2	Temperatura media	18.6
11658	7	Sololá	712	San Antonio Palopó	9	San Antonio Palopo	10	Octubre	2023-07-10T00:00:00	2024-11-08T03:00:00	4	Temperatura máxima	19.2
11659	7	Sololá	712	San Antonio Palopó	9	San Antonio Palopo	10	Octubre	2023-07-10T00:00:00	2024-11-08T03:00:00	3	Temperatura mínima	18.6
11660	7	Sololá	712	San Antonio Palopó	9	San Antonio Palopo	10	Octubre	2023-07-10T00:00:00	2024-11-08T03:00:00	5	Humedad	90
11661	7	Sololá	712	San Antonio Palopó	9	San Antonio Palopo	10	Octubre	2023-07-10T00:00:00	2024-11-08T03:00:00	6	Velocidad del viento	3.2
11662	7	Sololá	712	San Antonio Palopó	9	San Antonio Palopo	10	Octubre	2023-07-10T00:00:00	2024-11-08T03:00:00	7	Dirección del viento	3.22
11663	7	Sololá	712	San Antonio Palopó	9	San Antonio Palopo	10	Octubre	2023-07-10T00:00:00	2024-11-08T03:00:00	1	Precipitación	0
11664	7	Sololá	712	San Antonio Palopó	9	San Antonio Palopo	10	Octubre	2023-07-10T00:00:00	2024-11-08T03:00:00	8	Radiación solar	0
11665	7	Sololá	712	San Antonio Palopó	9	San Antonio Palopo	10	Octubre	2023-07-10T00:00:00	2024-11-08T04:00:00	2	Temperatura media	19
11666	7	Sololá	712	San Antonio Palopó	9	San Antonio Palopo	10	Octubre	2023-07-10T00:00:00	2024-11-08T04:00:00	4	Temperatura máxima	19.2
11667	7	Sololá	712	San Antonio Palopó	9	San Antonio Palopo	10	Octubre	2023-07-10T00:00:00	2024-11-08T04:00:00	3	Temperatura mínima	18.5
11668	7	Sololá	712	San Antonio Palopó	9	San Antonio Palopo	10	Octubre	2023-07-10T00:00:00	2024-11-08T04:00:00	5	Humedad	88
11669	7	Sololá	712	San Antonio Palopó	9	San Antonio Palopo	10	Octubre	2023-07-10T00:00:00	2024-11-08T04:00:00	6	Velocidad del viento	3.2
11670	7	Sololá	712	San Antonio Palopó	9	San Antonio Palopo	10	Octubre	2023-07-10T00:00:00	2024-11-08T04:00:00	7	Dirección del viento	3.22
11671	7	Sololá	712	San Antonio Palopó	9	San Antonio Palopo	10	Octubre	2023-07-10T00:00:00	2024-11-08T04:00:00	1	Precipitación	0
11672	7	Sololá	712	San Antonio Palopó	9	San Antonio Palopo	10	Octubre	2023-07-10T00:00:00	2024-11-08T04:00:00	8	Radiación solar	0
11673	7	Sololá	712	San Antonio Palopó	9	San Antonio Palopo	10	Octubre	2023-07-10T00:00:00	2024-11-08T05:00:00	2	Temperatura media	18.7
11674	7	Sololá	712	San Antonio Palopó	9	San Antonio Palopo	10	Octubre	2023-07-10T00:00:00	2024-11-08T05:00:00	4	Temperatura máxima	19.2
11675	7	Sololá	712	San Antonio Palopó	9	San Antonio Palopo	10	Octubre	2023-07-10T00:00:00	2024-11-08T05:00:00	3	Temperatura mínima	18.7
11676	7	Sololá	712	San Antonio Palopó	9	San Antonio Palopo	10	Octubre	2023-07-10T00:00:00	2024-11-08T05:00:00	5	Humedad	88
11677	7	Sololá	712	San Antonio Palopó	9	San Antonio Palopo	10	Octubre	2023-07-10T00:00:00	2024-11-08T05:00:00	6	Velocidad del viento	3.2
11678	7	Sololá	712	San Antonio Palopó	9	San Antonio Palopo	10	Octubre	2023-07-10T00:00:00	2024-11-08T05:00:00	7	Dirección del viento	3.22
11679	7	Sololá	712	San Antonio Palopó	9	San Antonio Palopo	10	Octubre	2023-07-10T00:00:00	2024-11-08T05:00:00	1	Precipitación	0
11680	7	Sololá	712	San Antonio Palopó	9	San Antonio Palopo	10	Octubre	2023-07-10T00:00:00	2024-11-08T05:00:00	8	Radiación solar	0
11681	7	Sololá	712	San Antonio Palopó	9	San Antonio Palopo	10	Octubre	2023-07-10T00:00:00	2024-11-08T06:00:00	2	Temperatura media	19.1
11682	7	Sololá	712	San Antonio Palopó	9	San Antonio Palopo	10	Octubre	2023-07-10T00:00:00	2024-11-08T06:00:00	4	Temperatura máxima	19.3
11683	7	Sololá	712	San Antonio Palopó	9	San Antonio Palopo	10	Octubre	2023-07-10T00:00:00	2024-11-08T06:00:00	3	Temperatura mínima	18.7
11684	7	Sololá	712	San Antonio Palopó	9	San Antonio Palopo	10	Octubre	2023-07-10T00:00:00	2024-11-08T06:00:00	5	Humedad	88
11685	7	Sololá	712	San Antonio Palopó	9	San Antonio Palopo	10	Octubre	2023-07-10T00:00:00	2024-11-08T06:00:00	6	Velocidad del viento	3.2
11686	7	Sololá	712	San Antonio Palopó	9	San Antonio Palopo	10	Octubre	2023-07-10T00:00:00	2024-11-08T06:00:00	7	Dirección del viento	3.22
11687	7	Sololá	712	San Antonio Palopó	9	San Antonio Palopo	10	Octubre	2023-07-10T00:00:00	2024-11-08T06:00:00	1	Precipitación	0
11688	7	Sololá	712	San Antonio Palopó	9	San Antonio Palopo	10	Octubre	2023-07-10T00:00:00	2024-11-08T06:00:00	8	Radiación solar	0
11689	7	Sololá	712	San Antonio Palopó	9	San Antonio Palopo	10	Octubre	2023-07-10T00:00:00	2024-11-08T07:00:00	2	Temperatura media	19.9
11690	7	Sololá	712	San Antonio Palopó	9	San Antonio Palopo	10	Octubre	2023-07-10T00:00:00	2024-11-08T07:00:00	4	Temperatura máxima	19.9
11691	7	Sololá	712	San Antonio Palopó	9	San Antonio Palopo	10	Octubre	2023-07-10T00:00:00	2024-11-08T07:00:00	3	Temperatura mínima	19
11692	7	Sololá	712	San Antonio Palopó	9	San Antonio Palopo	10	Octubre	2023-07-10T00:00:00	2024-11-08T07:00:00	5	Humedad	84
11693	7	Sololá	712	San Antonio Palopó	9	San Antonio Palopo	10	Octubre	2023-07-10T00:00:00	2024-11-08T07:00:00	6	Velocidad del viento	3.2
11694	7	Sololá	712	San Antonio Palopó	9	San Antonio Palopo	10	Octubre	2023-07-10T00:00:00	2024-11-08T07:00:00	7	Dirección del viento	3.22
11695	7	Sololá	712	San Antonio Palopó	9	San Antonio Palopo	10	Octubre	2023-07-10T00:00:00	2024-11-08T07:00:00	1	Precipitación	0
11696	7	Sololá	712	San Antonio Palopó	9	San Antonio Palopo	10	Octubre	2023-07-10T00:00:00	2024-11-08T07:00:00	8	Radiación solar	59
11697	7	Sololá	712	San Antonio Palopó	9	San Antonio Palopo	10	Octubre	2023-07-10T00:00:00	2024-11-08T08:00:00	2	Temperatura media	20.4
11698	7	Sololá	712	San Antonio Palopó	9	San Antonio Palopo	10	Octubre	2023-07-10T00:00:00	2024-11-08T08:00:00	4	Temperatura máxima	20.5
11699	7	Sololá	712	San Antonio Palopó	9	San Antonio Palopo	10	Octubre	2023-07-10T00:00:00	2024-11-08T08:00:00	3	Temperatura mínima	19.9
11700	7	Sololá	712	San Antonio Palopó	9	San Antonio Palopo	10	Octubre	2023-07-10T00:00:00	2024-11-08T08:00:00	5	Humedad	83
11701	7	Sololá	712	San Antonio Palopó	9	San Antonio Palopo	10	Octubre	2023-07-10T00:00:00	2024-11-08T08:00:00	6	Velocidad del viento	1.6
11702	7	Sololá	712	San Antonio Palopó	9	San Antonio Palopo	10	Octubre	2023-07-10T00:00:00	2024-11-08T08:00:00	7	Dirección del viento	1.61
11703	7	Sololá	712	San Antonio Palopó	9	San Antonio Palopo	10	Octubre	2023-07-10T00:00:00	2024-11-08T08:00:00	1	Precipitación	0
11704	7	Sololá	712	San Antonio Palopó	9	San Antonio Palopo	10	Octubre	2023-07-10T00:00:00	2024-11-08T08:00:00	8	Radiación solar	102
11705	7	Sololá	712	San Antonio Palopó	9	San Antonio Palopo	10	Octubre	2023-07-10T00:00:00	2024-11-08T09:00:00	2	Temperatura media	21.8
11706	7	Sololá	712	San Antonio Palopó	9	San Antonio Palopo	10	Octubre	2023-07-10T00:00:00	2024-11-08T09:00:00	4	Temperatura máxima	21.9
11707	7	Sololá	712	San Antonio Palopó	9	San Antonio Palopo	10	Octubre	2023-07-10T00:00:00	2024-11-08T09:00:00	3	Temperatura mínima	20.5
11708	7	Sololá	712	San Antonio Palopó	9	San Antonio Palopo	10	Octubre	2023-07-10T00:00:00	2024-11-08T09:00:00	5	Humedad	80
11709	7	Sololá	712	San Antonio Palopó	9	San Antonio Palopo	10	Octubre	2023-07-10T00:00:00	2024-11-08T09:00:00	6	Velocidad del viento	1.6
11710	7	Sololá	712	San Antonio Palopó	9	San Antonio Palopo	10	Octubre	2023-07-10T00:00:00	2024-11-08T09:00:00	7	Dirección del viento	1.61
11711	7	Sololá	712	San Antonio Palopó	9	San Antonio Palopo	10	Octubre	2023-07-10T00:00:00	2024-11-08T09:00:00	1	Precipitación	0
11712	7	Sololá	712	San Antonio Palopó	9	San Antonio Palopo	10	Octubre	2023-07-10T00:00:00	2024-11-08T09:00:00	8	Radiación solar	412
11713	7	Sololá	712	San Antonio Palopó	9	San Antonio Palopo	10	Octubre	2023-07-10T00:00:00	2024-11-08T10:00:00	2	Temperatura media	22.6
11714	7	Sololá	712	San Antonio Palopó	9	San Antonio Palopo	10	Octubre	2023-07-10T00:00:00	2024-11-08T10:00:00	4	Temperatura máxima	22.6
11715	7	Sololá	712	San Antonio Palopó	9	San Antonio Palopo	10	Octubre	2023-07-10T00:00:00	2024-11-08T10:00:00	3	Temperatura mínima	21.6
11716	7	Sololá	712	San Antonio Palopó	9	San Antonio Palopo	10	Octubre	2023-07-10T00:00:00	2024-11-08T10:00:00	5	Humedad	79
11717	7	Sololá	712	San Antonio Palopó	9	San Antonio Palopo	10	Octubre	2023-07-10T00:00:00	2024-11-08T10:00:00	6	Velocidad del viento	4.8
11718	7	Sololá	712	San Antonio Palopó	9	San Antonio Palopo	10	Octubre	2023-07-10T00:00:00	2024-11-08T10:00:00	7	Dirección del viento	4.83
11719	7	Sololá	712	San Antonio Palopó	9	San Antonio Palopo	10	Octubre	2023-07-10T00:00:00	2024-11-08T10:00:00	1	Precipitación	0
11720	7	Sololá	712	San Antonio Palopó	9	San Antonio Palopo	10	Octubre	2023-07-10T00:00:00	2024-11-08T10:00:00	8	Radiación solar	709
11721	7	Sololá	712	San Antonio Palopó	9	San Antonio Palopo	10	Octubre	2023-07-10T00:00:00	2024-11-08T11:00:00	2	Temperatura media	23.8
11722	7	Sololá	712	San Antonio Palopó	9	San Antonio Palopo	10	Octubre	2023-07-10T00:00:00	2024-11-08T11:00:00	4	Temperatura máxima	23.9
11723	7	Sololá	712	San Antonio Palopó	9	San Antonio Palopo	10	Octubre	2023-07-10T00:00:00	2024-11-08T11:00:00	3	Temperatura mínima	22.7
11724	7	Sololá	712	San Antonio Palopó	9	San Antonio Palopo	10	Octubre	2023-07-10T00:00:00	2024-11-08T11:00:00	5	Humedad	70
11725	7	Sololá	712	San Antonio Palopó	9	San Antonio Palopo	10	Octubre	2023-07-10T00:00:00	2024-11-08T11:00:00	6	Velocidad del viento	3.2
11726	7	Sololá	712	San Antonio Palopó	9	San Antonio Palopo	10	Octubre	2023-07-10T00:00:00	2024-11-08T11:00:00	7	Dirección del viento	3.22
11727	7	Sololá	712	San Antonio Palopó	9	San Antonio Palopo	10	Octubre	2023-07-10T00:00:00	2024-11-08T11:00:00	1	Precipitación	0
11728	7	Sololá	712	San Antonio Palopó	9	San Antonio Palopo	10	Octubre	2023-07-10T00:00:00	2024-11-08T11:00:00	8	Radiación solar	827
11729	7	Sololá	712	San Antonio Palopó	9	San Antonio Palopo	10	Octubre	2023-07-10T00:00:00	2024-11-08T12:00:00	2	Temperatura media	24.1
11730	7	Sololá	712	San Antonio Palopó	9	San Antonio Palopo	10	Octubre	2023-07-10T00:00:00	2024-11-08T12:00:00	4	Temperatura máxima	24.3
11731	7	Sololá	712	San Antonio Palopó	9	San Antonio Palopo	10	Octubre	2023-07-10T00:00:00	2024-11-08T12:00:00	3	Temperatura mínima	23.7
11732	7	Sololá	712	San Antonio Palopó	9	San Antonio Palopo	10	Octubre	2023-07-10T00:00:00	2024-11-08T12:00:00	5	Humedad	73
11733	7	Sololá	712	San Antonio Palopó	9	San Antonio Palopo	10	Octubre	2023-07-10T00:00:00	2024-11-08T12:00:00	6	Velocidad del viento	3.2
11734	7	Sololá	712	San Antonio Palopó	9	San Antonio Palopo	10	Octubre	2023-07-10T00:00:00	2024-11-08T12:00:00	7	Dirección del viento	3.22
11735	7	Sololá	712	San Antonio Palopó	9	San Antonio Palopo	10	Octubre	2023-07-10T00:00:00	2024-11-08T12:00:00	1	Precipitación	0
11736	7	Sololá	712	San Antonio Palopó	9	San Antonio Palopo	10	Octubre	2023-07-10T00:00:00	2024-11-08T12:00:00	8	Radiación solar	657
11737	7	Sololá	712	San Antonio Palopó	9	San Antonio Palopo	10	Octubre	2023-07-10T00:00:00	2024-11-08T13:00:00	2	Temperatura media	25.6
11738	7	Sololá	712	San Antonio Palopó	9	San Antonio Palopo	10	Octubre	2023-07-10T00:00:00	2024-11-08T13:00:00	4	Temperatura máxima	25.6
11739	7	Sololá	712	San Antonio Palopó	9	San Antonio Palopo	10	Octubre	2023-07-10T00:00:00	2024-11-08T13:00:00	3	Temperatura mínima	24.1
11740	7	Sololá	712	San Antonio Palopó	9	San Antonio Palopo	10	Octubre	2023-07-10T00:00:00	2024-11-08T13:00:00	5	Humedad	76
11741	7	Sololá	712	San Antonio Palopó	9	San Antonio Palopo	10	Octubre	2023-07-10T00:00:00	2024-11-08T13:00:00	6	Velocidad del viento	6.4
11742	7	Sololá	712	San Antonio Palopó	9	San Antonio Palopo	10	Octubre	2023-07-10T00:00:00	2024-11-08T13:00:00	7	Dirección del viento	6.44
11743	7	Sololá	712	San Antonio Palopó	9	San Antonio Palopo	10	Octubre	2023-07-10T00:00:00	2024-11-08T13:00:00	1	Precipitación	0
11744	7	Sololá	712	San Antonio Palopó	9	San Antonio Palopo	10	Octubre	2023-07-10T00:00:00	2024-11-08T13:00:00	8	Radiación solar	687
11745	7	Sololá	712	San Antonio Palopó	9	San Antonio Palopo	10	Octubre	2023-07-10T00:00:00	2024-11-08T14:00:00	2	Temperatura media	25.2
11746	7	Sololá	712	San Antonio Palopó	9	San Antonio Palopo	10	Octubre	2023-07-10T00:00:00	2024-11-08T14:00:00	4	Temperatura máxima	26.4
11747	7	Sololá	712	San Antonio Palopó	9	San Antonio Palopo	10	Octubre	2023-07-10T00:00:00	2024-11-08T14:00:00	3	Temperatura mínima	25.2
11748	7	Sololá	712	San Antonio Palopó	9	San Antonio Palopo	10	Octubre	2023-07-10T00:00:00	2024-11-08T14:00:00	5	Humedad	76
11749	7	Sololá	712	San Antonio Palopó	9	San Antonio Palopo	10	Octubre	2023-07-10T00:00:00	2024-11-08T14:00:00	6	Velocidad del viento	6.4
11750	7	Sololá	712	San Antonio Palopó	9	San Antonio Palopo	10	Octubre	2023-07-10T00:00:00	2024-11-08T14:00:00	7	Dirección del viento	6.44
11751	7	Sololá	712	San Antonio Palopó	9	San Antonio Palopo	10	Octubre	2023-07-10T00:00:00	2024-11-08T14:00:00	1	Precipitación	0
11752	7	Sololá	712	San Antonio Palopó	9	San Antonio Palopo	10	Octubre	2023-07-10T00:00:00	2024-11-08T14:00:00	8	Radiación solar	877
11753	7	Sololá	712	San Antonio Palopó	9	San Antonio Palopo	10	Octubre	2023-07-10T00:00:00	2024-11-08T15:00:00	2	Temperatura media	22.8
11754	7	Sololá	712	San Antonio Palopó	9	San Antonio Palopo	10	Octubre	2023-07-10T00:00:00	2024-11-08T15:00:00	4	Temperatura máxima	25.2
11755	7	Sololá	712	San Antonio Palopó	9	San Antonio Palopo	10	Octubre	2023-07-10T00:00:00	2024-11-08T15:00:00	3	Temperatura mínima	22.8
11756	7	Sololá	712	San Antonio Palopó	9	San Antonio Palopo	10	Octubre	2023-07-10T00:00:00	2024-11-08T15:00:00	5	Humedad	84
11757	7	Sololá	712	San Antonio Palopó	9	San Antonio Palopo	10	Octubre	2023-07-10T00:00:00	2024-11-08T15:00:00	6	Velocidad del viento	14.5
11758	7	Sololá	712	San Antonio Palopó	9	San Antonio Palopo	10	Octubre	2023-07-10T00:00:00	2024-11-08T15:00:00	7	Dirección del viento	14.48
11759	7	Sololá	712	San Antonio Palopó	9	San Antonio Palopo	10	Octubre	2023-07-10T00:00:00	2024-11-08T15:00:00	1	Precipitación	0
11760	7	Sololá	712	San Antonio Palopó	9	San Antonio Palopo	10	Octubre	2023-07-10T00:00:00	2024-11-08T15:00:00	8	Radiación solar	516
11761	7	Sololá	712	San Antonio Palopó	9	San Antonio Palopo	10	Octubre	2023-07-10T00:00:00	2024-11-08T16:00:00	2	Temperatura media	21.9
11762	7	Sololá	712	San Antonio Palopó	9	San Antonio Palopo	10	Octubre	2023-07-10T00:00:00	2024-11-08T16:00:00	4	Temperatura máxima	22.8
11763	7	Sololá	712	San Antonio Palopó	9	San Antonio Palopo	10	Octubre	2023-07-10T00:00:00	2024-11-08T16:00:00	3	Temperatura mínima	21.7
11764	7	Sololá	712	San Antonio Palopó	9	San Antonio Palopo	10	Octubre	2023-07-10T00:00:00	2024-11-08T16:00:00	5	Humedad	85
11765	7	Sololá	712	San Antonio Palopó	9	San Antonio Palopo	10	Octubre	2023-07-10T00:00:00	2024-11-08T16:00:00	6	Velocidad del viento	8
11766	7	Sololá	712	San Antonio Palopó	9	San Antonio Palopo	10	Octubre	2023-07-10T00:00:00	2024-11-08T16:00:00	7	Dirección del viento	8.05
11767	7	Sololá	712	San Antonio Palopó	9	San Antonio Palopo	10	Octubre	2023-07-10T00:00:00	2024-11-08T16:00:00	1	Precipitación	0
11768	7	Sololá	712	San Antonio Palopó	9	San Antonio Palopo	10	Octubre	2023-07-10T00:00:00	2024-11-08T16:00:00	8	Radiación solar	94
11769	7	Sololá	712	San Antonio Palopó	9	San Antonio Palopo	10	Octubre	2023-07-10T00:00:00	2024-11-08T17:00:00	2	Temperatura media	21.6
11770	7	Sololá	712	San Antonio Palopó	9	San Antonio Palopo	10	Octubre	2023-07-10T00:00:00	2024-11-08T17:00:00	4	Temperatura máxima	21.9
11771	7	Sololá	712	San Antonio Palopó	9	San Antonio Palopo	10	Octubre	2023-07-10T00:00:00	2024-11-08T17:00:00	3	Temperatura mínima	21.2
11772	7	Sololá	712	San Antonio Palopó	9	San Antonio Palopo	10	Octubre	2023-07-10T00:00:00	2024-11-08T17:00:00	5	Humedad	85
11773	7	Sololá	712	San Antonio Palopó	9	San Antonio Palopo	10	Octubre	2023-07-10T00:00:00	2024-11-08T17:00:00	6	Velocidad del viento	8
11774	7	Sololá	712	San Antonio Palopó	9	San Antonio Palopo	10	Octubre	2023-07-10T00:00:00	2024-11-08T17:00:00	7	Dirección del viento	8.05
11775	7	Sololá	712	San Antonio Palopó	9	San Antonio Palopo	10	Octubre	2023-07-10T00:00:00	2024-11-08T17:00:00	1	Precipitación	0
11776	7	Sololá	712	San Antonio Palopó	9	San Antonio Palopo	10	Octubre	2023-07-10T00:00:00	2024-11-08T17:00:00	8	Radiación solar	33
11777	7	Sololá	712	San Antonio Palopó	9	San Antonio Palopo	10	Octubre	2023-07-10T00:00:00	2024-11-08T18:00:00	2	Temperatura media	20.6
11778	7	Sololá	712	San Antonio Palopó	9	San Antonio Palopo	10	Octubre	2023-07-10T00:00:00	2024-11-08T18:00:00	4	Temperatura máxima	21.6
11779	7	Sololá	712	San Antonio Palopó	9	San Antonio Palopo	10	Octubre	2023-07-10T00:00:00	2024-11-08T18:00:00	3	Temperatura mínima	20.6
11780	7	Sololá	712	San Antonio Palopó	9	San Antonio Palopo	10	Octubre	2023-07-10T00:00:00	2024-11-08T18:00:00	5	Humedad	87
11781	7	Sololá	712	San Antonio Palopó	9	San Antonio Palopo	10	Octubre	2023-07-10T00:00:00	2024-11-08T18:00:00	6	Velocidad del viento	6.4
11782	7	Sololá	712	San Antonio Palopó	9	San Antonio Palopo	10	Octubre	2023-07-10T00:00:00	2024-11-08T18:00:00	7	Dirección del viento	6.44
11783	7	Sololá	712	San Antonio Palopó	9	San Antonio Palopo	10	Octubre	2023-07-10T00:00:00	2024-11-08T18:00:00	1	Precipitación	0
11784	7	Sololá	712	San Antonio Palopó	9	San Antonio Palopo	10	Octubre	2023-07-10T00:00:00	2024-11-08T18:00:00	8	Radiación solar	2
11785	7	Sololá	712	San Antonio Palopó	9	San Antonio Palopo	10	Octubre	2023-07-10T00:00:00	2024-11-08T19:00:00	2	Temperatura media	20
11786	7	Sololá	712	San Antonio Palopó	9	San Antonio Palopo	10	Octubre	2023-07-10T00:00:00	2024-11-08T19:00:00	4	Temperatura máxima	20.8
11787	7	Sololá	712	San Antonio Palopó	9	San Antonio Palopo	10	Octubre	2023-07-10T00:00:00	2024-11-08T19:00:00	3	Temperatura mínima	20
11788	7	Sololá	712	San Antonio Palopó	9	San Antonio Palopo	10	Octubre	2023-07-10T00:00:00	2024-11-08T19:00:00	5	Humedad	91
11789	7	Sololá	712	San Antonio Palopó	9	San Antonio Palopo	10	Octubre	2023-07-10T00:00:00	2024-11-08T19:00:00	6	Velocidad del viento	6.4
11790	7	Sololá	712	San Antonio Palopó	9	San Antonio Palopo	10	Octubre	2023-07-10T00:00:00	2024-11-08T19:00:00	7	Dirección del viento	6.44
11791	7	Sololá	712	San Antonio Palopó	9	San Antonio Palopo	10	Octubre	2023-07-10T00:00:00	2024-11-08T19:00:00	1	Precipitación	1.2
11792	7	Sololá	712	San Antonio Palopó	9	San Antonio Palopo	10	Octubre	2023-07-10T00:00:00	2024-11-08T19:00:00	8	Radiación solar	0
11793	7	Sololá	712	San Antonio Palopó	9	San Antonio Palopo	10	Octubre	2023-07-10T00:00:00	2024-11-08T20:00:00	2	Temperatura media	19.6
11794	7	Sololá	712	San Antonio Palopó	9	San Antonio Palopo	10	Octubre	2023-07-10T00:00:00	2024-11-08T20:00:00	4	Temperatura máxima	20
11795	7	Sololá	712	San Antonio Palopó	9	San Antonio Palopo	10	Octubre	2023-07-10T00:00:00	2024-11-08T20:00:00	3	Temperatura mínima	19.6
11796	7	Sololá	712	San Antonio Palopó	9	San Antonio Palopo	10	Octubre	2023-07-10T00:00:00	2024-11-08T20:00:00	5	Humedad	91
11797	7	Sololá	712	San Antonio Palopó	9	San Antonio Palopo	10	Octubre	2023-07-10T00:00:00	2024-11-08T20:00:00	6	Velocidad del viento	1.6
11798	7	Sololá	712	San Antonio Palopó	9	San Antonio Palopo	10	Octubre	2023-07-10T00:00:00	2024-11-08T20:00:00	7	Dirección del viento	1.61
11799	7	Sololá	712	San Antonio Palopó	9	San Antonio Palopo	10	Octubre	2023-07-10T00:00:00	2024-11-08T20:00:00	1	Precipitación	4.6
11800	7	Sololá	712	San Antonio Palopó	9	San Antonio Palopo	10	Octubre	2023-07-10T00:00:00	2024-11-08T20:00:00	8	Radiación solar	0
11801	7	Sololá	712	San Antonio Palopó	9	San Antonio Palopo	10	Octubre	2023-07-10T00:00:00	2024-11-08T21:00:00	2	Temperatura media	19.1
11802	7	Sololá	712	San Antonio Palopó	9	San Antonio Palopo	10	Octubre	2023-07-10T00:00:00	2024-11-08T21:00:00	4	Temperatura máxima	19.7
11803	7	Sololá	712	San Antonio Palopó	9	San Antonio Palopo	10	Octubre	2023-07-10T00:00:00	2024-11-08T21:00:00	3	Temperatura mínima	19.1
11804	7	Sololá	712	San Antonio Palopó	9	San Antonio Palopo	10	Octubre	2023-07-10T00:00:00	2024-11-08T21:00:00	5	Humedad	90
11805	7	Sololá	712	San Antonio Palopó	9	San Antonio Palopo	10	Octubre	2023-07-10T00:00:00	2024-11-08T21:00:00	6	Velocidad del viento	1.6
11806	7	Sololá	712	San Antonio Palopó	9	San Antonio Palopo	10	Octubre	2023-07-10T00:00:00	2024-11-08T21:00:00	7	Dirección del viento	1.61
11807	7	Sololá	712	San Antonio Palopó	9	San Antonio Palopo	10	Octubre	2023-07-10T00:00:00	2024-11-08T21:00:00	1	Precipitación	3.8
11808	7	Sololá	712	San Antonio Palopó	9	San Antonio Palopo	10	Octubre	2023-07-10T00:00:00	2024-11-08T21:00:00	8	Radiación solar	0
11809	7	Sololá	712	San Antonio Palopó	9	San Antonio Palopo	10	Octubre	2023-07-10T00:00:00	2024-11-08T22:00:00	2	Temperatura media	18.4
11810	7	Sololá	712	San Antonio Palopó	9	San Antonio Palopo	10	Octubre	2023-07-10T00:00:00	2024-11-08T22:00:00	4	Temperatura máxima	19.1
11811	7	Sololá	712	San Antonio Palopó	9	San Antonio Palopo	10	Octubre	2023-07-10T00:00:00	2024-11-08T22:00:00	3	Temperatura mínima	18.4
11812	7	Sololá	712	San Antonio Palopó	9	San Antonio Palopo	10	Octubre	2023-07-10T00:00:00	2024-11-08T22:00:00	5	Humedad	90
11813	7	Sololá	712	San Antonio Palopó	9	San Antonio Palopo	10	Octubre	2023-07-10T00:00:00	2024-11-08T22:00:00	6	Velocidad del viento	1.6
11814	7	Sololá	712	San Antonio Palopó	9	San Antonio Palopo	10	Octubre	2023-07-10T00:00:00	2024-11-08T22:00:00	7	Dirección del viento	1.61
11815	7	Sololá	712	San Antonio Palopó	9	San Antonio Palopo	10	Octubre	2023-07-10T00:00:00	2024-11-08T22:00:00	1	Precipitación	4.8
11816	7	Sololá	712	San Antonio Palopó	9	San Antonio Palopo	10	Octubre	2023-07-10T00:00:00	2024-11-08T22:00:00	8	Radiación solar	0
11817	7	Sololá	712	San Antonio Palopó	9	San Antonio Palopo	10	Octubre	2023-07-10T00:00:00	2024-11-08T23:00:00	2	Temperatura media	18.5
11818	7	Sololá	712	San Antonio Palopó	9	San Antonio Palopo	10	Octubre	2023-07-10T00:00:00	2024-11-08T23:00:00	4	Temperatura máxima	18.5
11819	7	Sololá	712	San Antonio Palopó	9	San Antonio Palopo	10	Octubre	2023-07-10T00:00:00	2024-11-08T23:00:00	3	Temperatura mínima	18.3
11820	7	Sololá	712	San Antonio Palopó	9	San Antonio Palopo	10	Octubre	2023-07-10T00:00:00	2024-11-08T23:00:00	5	Humedad	89
11821	7	Sololá	712	San Antonio Palopó	9	San Antonio Palopo	10	Octubre	2023-07-10T00:00:00	2024-11-08T23:00:00	6	Velocidad del viento	1.6
11822	7	Sololá	712	San Antonio Palopó	9	San Antonio Palopo	10	Octubre	2023-07-10T00:00:00	2024-11-08T23:00:00	7	Dirección del viento	1.61
11823	7	Sololá	712	San Antonio Palopó	9	San Antonio Palopo	10	Octubre	2023-07-10T00:00:00	2024-11-08T23:00:00	1	Precipitación	0.4
11824	7	Sololá	712	San Antonio Palopó	9	San Antonio Palopo	10	Octubre	2023-07-10T00:00:00	2024-11-08T23:00:00	8	Radiación solar	0
11825	7	Sololá	712	San Antonio Palopó	9	San Antonio Palopo	10	Octubre	2023-08-10T00:00:00	2024-11-08T00:00:00	2	Temperatura media	18.4
11826	7	Sololá	712	San Antonio Palopó	9	San Antonio Palopo	10	Octubre	2023-08-10T00:00:00	2024-11-08T00:00:00	4	Temperatura máxima	18.6
11827	7	Sololá	712	San Antonio Palopó	9	San Antonio Palopo	10	Octubre	2023-08-10T00:00:00	2024-11-08T00:00:00	3	Temperatura mínima	18.2
11828	7	Sololá	712	San Antonio Palopó	9	San Antonio Palopo	10	Octubre	2023-08-10T00:00:00	2024-11-08T00:00:00	5	Humedad	90
11829	7	Sololá	712	San Antonio Palopó	9	San Antonio Palopo	10	Octubre	2023-08-10T00:00:00	2024-11-08T00:00:00	6	Velocidad del viento	1.6
11830	7	Sololá	712	San Antonio Palopó	9	San Antonio Palopo	10	Octubre	2023-08-10T00:00:00	2024-11-08T00:00:00	7	Dirección del viento	1.61
11831	7	Sololá	712	San Antonio Palopó	9	San Antonio Palopo	10	Octubre	2023-08-10T00:00:00	2024-11-08T00:00:00	1	Precipitación	0.8
11832	7	Sololá	712	San Antonio Palopó	9	San Antonio Palopo	10	Octubre	2023-08-10T00:00:00	2024-11-08T00:00:00	8	Radiación solar	0
11833	7	Sololá	712	San Antonio Palopó	9	San Antonio Palopo	10	Octubre	2023-08-10T00:00:00	2024-11-08T01:00:00	2	Temperatura media	18.2
11834	7	Sololá	712	San Antonio Palopó	9	San Antonio Palopo	10	Octubre	2023-08-10T00:00:00	2024-11-08T01:00:00	4	Temperatura máxima	18.5
11835	7	Sololá	712	San Antonio Palopó	9	San Antonio Palopo	10	Octubre	2023-08-10T00:00:00	2024-11-08T01:00:00	3	Temperatura mínima	18.2
11836	7	Sololá	712	San Antonio Palopó	9	San Antonio Palopo	10	Octubre	2023-08-10T00:00:00	2024-11-08T01:00:00	5	Humedad	91
11837	7	Sololá	712	San Antonio Palopó	9	San Antonio Palopo	10	Octubre	2023-08-10T00:00:00	2024-11-08T01:00:00	6	Velocidad del viento	1.6
11838	7	Sololá	712	San Antonio Palopó	9	San Antonio Palopo	10	Octubre	2023-08-10T00:00:00	2024-11-08T01:00:00	7	Dirección del viento	1.61
11839	7	Sololá	712	San Antonio Palopó	9	San Antonio Palopo	10	Octubre	2023-08-10T00:00:00	2024-11-08T01:00:00	1	Precipitación	0.6
11840	7	Sololá	712	San Antonio Palopó	9	San Antonio Palopo	10	Octubre	2023-08-10T00:00:00	2024-11-08T01:00:00	8	Radiación solar	0
11841	7	Sololá	712	San Antonio Palopó	9	San Antonio Palopo	10	Octubre	2023-08-10T00:00:00	2024-11-08T02:00:00	2	Temperatura media	18.3
11842	7	Sololá	712	San Antonio Palopó	9	San Antonio Palopo	10	Octubre	2023-08-10T00:00:00	2024-11-08T02:00:00	4	Temperatura máxima	18.3
11843	7	Sololá	712	San Antonio Palopó	9	San Antonio Palopo	10	Octubre	2023-08-10T00:00:00	2024-11-08T02:00:00	3	Temperatura mínima	18
11844	7	Sololá	712	San Antonio Palopó	9	San Antonio Palopo	10	Octubre	2023-08-10T00:00:00	2024-11-08T02:00:00	5	Humedad	87
11845	7	Sololá	712	San Antonio Palopó	9	San Antonio Palopo	10	Octubre	2023-08-10T00:00:00	2024-11-08T02:00:00	6	Velocidad del viento	1.6
11846	7	Sololá	712	San Antonio Palopó	9	San Antonio Palopo	10	Octubre	2023-08-10T00:00:00	2024-11-08T02:00:00	7	Dirección del viento	1.61
11847	7	Sololá	712	San Antonio Palopó	9	San Antonio Palopo	10	Octubre	2023-08-10T00:00:00	2024-11-08T02:00:00	1	Precipitación	0
11848	7	Sololá	712	San Antonio Palopó	9	San Antonio Palopo	10	Octubre	2023-08-10T00:00:00	2024-11-08T02:00:00	8	Radiación solar	0
11849	7	Sololá	712	San Antonio Palopó	9	San Antonio Palopo	10	Octubre	2023-08-10T00:00:00	2024-11-08T03:00:00	2	Temperatura media	19.2
11850	7	Sololá	712	San Antonio Palopó	9	San Antonio Palopo	10	Octubre	2023-08-10T00:00:00	2024-11-08T03:00:00	4	Temperatura máxima	19.2
11851	7	Sololá	712	San Antonio Palopó	9	San Antonio Palopo	10	Octubre	2023-08-10T00:00:00	2024-11-08T03:00:00	3	Temperatura mínima	18.3
11852	7	Sololá	712	San Antonio Palopó	9	San Antonio Palopo	10	Octubre	2023-08-10T00:00:00	2024-11-08T03:00:00	5	Humedad	82
11853	7	Sololá	712	San Antonio Palopó	9	San Antonio Palopo	10	Octubre	2023-08-10T00:00:00	2024-11-08T03:00:00	6	Velocidad del viento	3.2
11854	7	Sololá	712	San Antonio Palopó	9	San Antonio Palopo	10	Octubre	2023-08-10T00:00:00	2024-11-08T03:00:00	7	Dirección del viento	3.22
11855	7	Sololá	712	San Antonio Palopó	9	San Antonio Palopo	10	Octubre	2023-08-10T00:00:00	2024-11-08T03:00:00	1	Precipitación	0
11856	7	Sololá	712	San Antonio Palopó	9	San Antonio Palopo	10	Octubre	2023-08-10T00:00:00	2024-11-08T03:00:00	8	Radiación solar	0
11857	7	Sololá	712	San Antonio Palopó	9	San Antonio Palopo	10	Octubre	2023-08-10T00:00:00	2024-11-08T04:00:00	2	Temperatura media	19.2
11858	7	Sololá	712	San Antonio Palopó	9	San Antonio Palopo	10	Octubre	2023-08-10T00:00:00	2024-11-08T04:00:00	4	Temperatura máxima	19.6
11859	7	Sololá	712	San Antonio Palopó	9	San Antonio Palopo	10	Octubre	2023-08-10T00:00:00	2024-11-08T04:00:00	3	Temperatura mínima	18.7
11860	7	Sololá	712	San Antonio Palopó	9	San Antonio Palopo	10	Octubre	2023-08-10T00:00:00	2024-11-08T04:00:00	5	Humedad	82
11861	7	Sololá	712	San Antonio Palopó	9	San Antonio Palopo	10	Octubre	2023-08-10T00:00:00	2024-11-08T04:00:00	6	Velocidad del viento	4.8
11862	7	Sololá	712	San Antonio Palopó	9	San Antonio Palopo	10	Octubre	2023-08-10T00:00:00	2024-11-08T04:00:00	7	Dirección del viento	4.83
11863	7	Sololá	712	San Antonio Palopó	9	San Antonio Palopo	10	Octubre	2023-08-10T00:00:00	2024-11-08T04:00:00	1	Precipitación	0
11864	7	Sololá	712	San Antonio Palopó	9	San Antonio Palopo	10	Octubre	2023-08-10T00:00:00	2024-11-08T04:00:00	8	Radiación solar	0
11865	7	Sololá	712	San Antonio Palopó	9	San Antonio Palopo	10	Octubre	2023-08-10T00:00:00	2024-11-08T05:00:00	2	Temperatura media	18.9
11866	7	Sololá	712	San Antonio Palopó	9	San Antonio Palopo	10	Octubre	2023-08-10T00:00:00	2024-11-08T05:00:00	4	Temperatura máxima	19.2
11867	7	Sololá	712	San Antonio Palopó	9	San Antonio Palopo	10	Octubre	2023-08-10T00:00:00	2024-11-08T05:00:00	3	Temperatura mínima	18.4
11868	7	Sololá	712	San Antonio Palopó	9	San Antonio Palopo	10	Octubre	2023-08-10T00:00:00	2024-11-08T05:00:00	5	Humedad	85
11869	7	Sololá	712	San Antonio Palopó	9	San Antonio Palopo	10	Octubre	2023-08-10T00:00:00	2024-11-08T05:00:00	6	Velocidad del viento	3.2
11870	7	Sololá	712	San Antonio Palopó	9	San Antonio Palopo	10	Octubre	2023-08-10T00:00:00	2024-11-08T05:00:00	7	Dirección del viento	3.22
11871	7	Sololá	712	San Antonio Palopó	9	San Antonio Palopo	10	Octubre	2023-08-10T00:00:00	2024-11-08T05:00:00	1	Precipitación	0
11872	7	Sololá	712	San Antonio Palopó	9	San Antonio Palopo	10	Octubre	2023-08-10T00:00:00	2024-11-08T05:00:00	8	Radiación solar	0
11873	7	Sololá	712	San Antonio Palopó	9	San Antonio Palopo	10	Octubre	2023-08-10T00:00:00	2024-11-08T06:00:00	2	Temperatura media	18.2
11874	7	Sololá	712	San Antonio Palopó	9	San Antonio Palopo	10	Octubre	2023-08-10T00:00:00	2024-11-08T06:00:00	4	Temperatura máxima	19.6
11875	7	Sololá	712	San Antonio Palopó	9	San Antonio Palopo	10	Octubre	2023-08-10T00:00:00	2024-11-08T06:00:00	3	Temperatura mínima	18.2
11876	7	Sololá	712	San Antonio Palopó	9	San Antonio Palopo	10	Octubre	2023-08-10T00:00:00	2024-11-08T06:00:00	5	Humedad	88
11877	7	Sololá	712	San Antonio Palopó	9	San Antonio Palopo	10	Octubre	2023-08-10T00:00:00	2024-11-08T06:00:00	6	Velocidad del viento	3.2
11878	7	Sololá	712	San Antonio Palopó	9	San Antonio Palopo	10	Octubre	2023-08-10T00:00:00	2024-11-08T06:00:00	7	Dirección del viento	3.22
11879	7	Sololá	712	San Antonio Palopó	9	San Antonio Palopo	10	Octubre	2023-08-10T00:00:00	2024-11-08T06:00:00	1	Precipitación	0
11880	7	Sololá	712	San Antonio Palopó	9	San Antonio Palopo	10	Octubre	2023-08-10T00:00:00	2024-11-08T06:00:00	8	Radiación solar	0
11881	7	Sololá	712	San Antonio Palopó	9	San Antonio Palopo	10	Octubre	2023-08-10T00:00:00	2024-11-08T07:00:00	2	Temperatura media	19.3
11882	7	Sololá	712	San Antonio Palopó	9	San Antonio Palopo	10	Octubre	2023-08-10T00:00:00	2024-11-08T07:00:00	4	Temperatura máxima	19.4
11883	7	Sololá	712	San Antonio Palopó	9	San Antonio Palopo	10	Octubre	2023-08-10T00:00:00	2024-11-08T07:00:00	3	Temperatura mínima	18.2
11884	7	Sololá	712	San Antonio Palopó	9	San Antonio Palopo	10	Octubre	2023-08-10T00:00:00	2024-11-08T07:00:00	5	Humedad	82
11885	7	Sololá	712	San Antonio Palopó	9	San Antonio Palopo	10	Octubre	2023-08-10T00:00:00	2024-11-08T07:00:00	6	Velocidad del viento	3.2
11886	7	Sololá	712	San Antonio Palopó	9	San Antonio Palopo	10	Octubre	2023-08-10T00:00:00	2024-11-08T07:00:00	7	Dirección del viento	3.22
11887	7	Sololá	712	San Antonio Palopó	9	San Antonio Palopo	10	Octubre	2023-08-10T00:00:00	2024-11-08T07:00:00	1	Precipitación	0
11888	7	Sololá	712	San Antonio Palopó	9	San Antonio Palopo	10	Octubre	2023-08-10T00:00:00	2024-11-08T07:00:00	8	Radiación solar	31
11889	7	Sololá	712	San Antonio Palopó	9	San Antonio Palopo	10	Octubre	2023-08-10T00:00:00	2024-11-08T08:00:00	2	Temperatura media	20.8
11890	7	Sololá	712	San Antonio Palopó	9	San Antonio Palopo	10	Octubre	2023-08-10T00:00:00	2024-11-08T08:00:00	4	Temperatura máxima	20.8
11891	7	Sololá	712	San Antonio Palopó	9	San Antonio Palopo	10	Octubre	2023-08-10T00:00:00	2024-11-08T08:00:00	3	Temperatura mínima	19.3
11892	7	Sololá	712	San Antonio Palopó	9	San Antonio Palopo	10	Octubre	2023-08-10T00:00:00	2024-11-08T08:00:00	5	Humedad	83
11893	7	Sololá	712	San Antonio Palopó	9	San Antonio Palopo	10	Octubre	2023-08-10T00:00:00	2024-11-08T08:00:00	6	Velocidad del viento	1.6
11894	7	Sololá	712	San Antonio Palopó	9	San Antonio Palopo	10	Octubre	2023-08-10T00:00:00	2024-11-08T08:00:00	7	Dirección del viento	1.61
11895	7	Sololá	712	San Antonio Palopó	9	San Antonio Palopo	10	Octubre	2023-08-10T00:00:00	2024-11-08T08:00:00	1	Precipitación	0
11896	7	Sololá	712	San Antonio Palopó	9	San Antonio Palopo	10	Octubre	2023-08-10T00:00:00	2024-11-08T08:00:00	8	Radiación solar	178
11897	7	Sololá	712	San Antonio Palopó	9	San Antonio Palopo	10	Octubre	2023-08-10T00:00:00	2024-11-08T09:00:00	2	Temperatura media	21.9
11898	7	Sololá	712	San Antonio Palopó	9	San Antonio Palopo	10	Octubre	2023-08-10T00:00:00	2024-11-08T09:00:00	4	Temperatura máxima	22.1
11899	7	Sololá	712	San Antonio Palopó	9	San Antonio Palopo	10	Octubre	2023-08-10T00:00:00	2024-11-08T09:00:00	3	Temperatura mínima	20.8
11900	7	Sololá	712	San Antonio Palopó	9	San Antonio Palopo	10	Octubre	2023-08-10T00:00:00	2024-11-08T09:00:00	5	Humedad	78
11901	7	Sololá	712	San Antonio Palopó	9	San Antonio Palopo	10	Octubre	2023-08-10T00:00:00	2024-11-08T09:00:00	6	Velocidad del viento	1.6
11902	7	Sololá	712	San Antonio Palopó	9	San Antonio Palopo	10	Octubre	2023-08-10T00:00:00	2024-11-08T09:00:00	7	Dirección del viento	1.61
11903	7	Sololá	712	San Antonio Palopó	9	San Antonio Palopo	10	Octubre	2023-08-10T00:00:00	2024-11-08T09:00:00	1	Precipitación	0
11904	7	Sololá	712	San Antonio Palopó	9	San Antonio Palopo	10	Octubre	2023-08-10T00:00:00	2024-11-08T09:00:00	8	Radiación solar	437
11905	7	Sololá	712	San Antonio Palopó	9	San Antonio Palopo	10	Octubre	2023-08-10T00:00:00	2024-11-08T10:00:00	2	Temperatura media	22.3
11906	7	Sololá	712	San Antonio Palopó	9	San Antonio Palopo	10	Octubre	2023-08-10T00:00:00	2024-11-08T10:00:00	4	Temperatura máxima	22.4
11907	7	Sololá	712	San Antonio Palopó	9	San Antonio Palopo	10	Octubre	2023-08-10T00:00:00	2024-11-08T10:00:00	3	Temperatura mínima	21.9
11908	7	Sololá	712	San Antonio Palopó	9	San Antonio Palopo	10	Octubre	2023-08-10T00:00:00	2024-11-08T10:00:00	5	Humedad	75
11909	7	Sololá	712	San Antonio Palopó	9	San Antonio Palopo	10	Octubre	2023-08-10T00:00:00	2024-11-08T10:00:00	6	Velocidad del viento	1.6
11910	7	Sololá	712	San Antonio Palopó	9	San Antonio Palopo	10	Octubre	2023-08-10T00:00:00	2024-11-08T10:00:00	7	Dirección del viento	1.61
11911	7	Sololá	712	San Antonio Palopó	9	San Antonio Palopo	10	Octubre	2023-08-10T00:00:00	2024-11-08T10:00:00	1	Precipitación	0
11912	7	Sololá	712	San Antonio Palopó	9	San Antonio Palopo	10	Octubre	2023-08-10T00:00:00	2024-11-08T10:00:00	8	Radiación solar	368
11913	7	Sololá	712	San Antonio Palopó	9	San Antonio Palopo	10	Octubre	2023-08-10T00:00:00	2024-11-08T11:00:00	2	Temperatura media	22.2
11914	7	Sololá	712	San Antonio Palopó	9	San Antonio Palopo	10	Octubre	2023-08-10T00:00:00	2024-11-08T11:00:00	4	Temperatura máxima	22.4
11915	7	Sololá	712	San Antonio Palopó	9	San Antonio Palopo	10	Octubre	2023-08-10T00:00:00	2024-11-08T11:00:00	3	Temperatura mínima	21.9
11916	7	Sololá	712	San Antonio Palopó	9	San Antonio Palopo	10	Octubre	2023-08-10T00:00:00	2024-11-08T11:00:00	5	Humedad	76
11917	7	Sololá	712	San Antonio Palopó	9	San Antonio Palopo	10	Octubre	2023-08-10T00:00:00	2024-11-08T11:00:00	6	Velocidad del viento	3.2
11918	7	Sololá	712	San Antonio Palopó	9	San Antonio Palopo	10	Octubre	2023-08-10T00:00:00	2024-11-08T11:00:00	7	Dirección del viento	3.22
11919	7	Sololá	712	San Antonio Palopó	9	San Antonio Palopo	10	Octubre	2023-08-10T00:00:00	2024-11-08T11:00:00	1	Precipitación	0
11920	7	Sololá	712	San Antonio Palopó	9	San Antonio Palopo	10	Octubre	2023-08-10T00:00:00	2024-11-08T11:00:00	8	Radiación solar	442
11921	7	Sololá	712	San Antonio Palopó	9	San Antonio Palopo	10	Octubre	2023-08-10T00:00:00	2024-11-08T12:00:00	2	Temperatura media	22.9
11922	7	Sololá	712	San Antonio Palopó	9	San Antonio Palopo	10	Octubre	2023-08-10T00:00:00	2024-11-08T12:00:00	4	Temperatura máxima	23.3
11923	7	Sololá	712	San Antonio Palopó	9	San Antonio Palopo	10	Octubre	2023-08-10T00:00:00	2024-11-08T12:00:00	3	Temperatura mínima	22.2
11924	7	Sololá	712	San Antonio Palopó	9	San Antonio Palopo	10	Octubre	2023-08-10T00:00:00	2024-11-08T12:00:00	5	Humedad	73
11925	7	Sololá	712	San Antonio Palopó	9	San Antonio Palopo	10	Octubre	2023-08-10T00:00:00	2024-11-08T12:00:00	6	Velocidad del viento	3.2
11926	7	Sololá	712	San Antonio Palopó	9	San Antonio Palopo	10	Octubre	2023-08-10T00:00:00	2024-11-08T12:00:00	7	Dirección del viento	3.22
11927	7	Sololá	712	San Antonio Palopó	9	San Antonio Palopo	10	Octubre	2023-08-10T00:00:00	2024-11-08T12:00:00	1	Precipitación	0
11928	7	Sololá	712	San Antonio Palopó	9	San Antonio Palopo	10	Octubre	2023-08-10T00:00:00	2024-11-08T12:00:00	8	Radiación solar	659
11929	7	Sololá	712	San Antonio Palopó	9	San Antonio Palopo	10	Octubre	2023-08-10T00:00:00	2024-11-08T13:00:00	2	Temperatura media	24.4
11930	7	Sololá	712	San Antonio Palopó	9	San Antonio Palopo	10	Octubre	2023-08-10T00:00:00	2024-11-08T13:00:00	4	Temperatura máxima	24.4
11931	7	Sololá	712	San Antonio Palopó	9	San Antonio Palopo	10	Octubre	2023-08-10T00:00:00	2024-11-08T13:00:00	3	Temperatura mínima	22.9
11932	7	Sololá	712	San Antonio Palopó	9	San Antonio Palopo	10	Octubre	2023-08-10T00:00:00	2024-11-08T13:00:00	5	Humedad	66
11933	7	Sololá	712	San Antonio Palopó	9	San Antonio Palopo	10	Octubre	2023-08-10T00:00:00	2024-11-08T13:00:00	6	Velocidad del viento	3.2
11934	7	Sololá	712	San Antonio Palopó	9	San Antonio Palopo	10	Octubre	2023-08-10T00:00:00	2024-11-08T13:00:00	7	Dirección del viento	3.22
11935	7	Sololá	712	San Antonio Palopó	9	San Antonio Palopo	10	Octubre	2023-08-10T00:00:00	2024-11-08T13:00:00	1	Precipitación	0
11936	7	Sololá	712	San Antonio Palopó	9	San Antonio Palopo	10	Octubre	2023-08-10T00:00:00	2024-11-08T13:00:00	8	Radiación solar	664
11937	7	Sololá	712	San Antonio Palopó	9	San Antonio Palopo	10	Octubre	2023-08-10T00:00:00	2024-11-08T14:00:00	2	Temperatura media	25.1
11938	7	Sololá	712	San Antonio Palopó	9	San Antonio Palopo	10	Octubre	2023-08-10T00:00:00	2024-11-08T14:00:00	4	Temperatura máxima	25.5
11939	7	Sololá	712	San Antonio Palopó	9	San Antonio Palopo	10	Octubre	2023-08-10T00:00:00	2024-11-08T14:00:00	3	Temperatura mínima	24.2
11940	7	Sololá	712	San Antonio Palopó	9	San Antonio Palopo	10	Octubre	2023-08-10T00:00:00	2024-11-08T14:00:00	5	Humedad	67
11941	7	Sololá	712	San Antonio Palopó	9	San Antonio Palopo	10	Octubre	2023-08-10T00:00:00	2024-11-08T14:00:00	6	Velocidad del viento	3.2
11942	7	Sololá	712	San Antonio Palopó	9	San Antonio Palopo	10	Octubre	2023-08-10T00:00:00	2024-11-08T14:00:00	7	Dirección del viento	3.22
11943	7	Sololá	712	San Antonio Palopó	9	San Antonio Palopo	10	Octubre	2023-08-10T00:00:00	2024-11-08T14:00:00	1	Precipitación	0
11944	7	Sololá	712	San Antonio Palopó	9	San Antonio Palopo	10	Octubre	2023-08-10T00:00:00	2024-11-08T14:00:00	8	Radiación solar	815
11945	7	Sololá	712	San Antonio Palopó	9	San Antonio Palopo	10	Octubre	2023-08-10T00:00:00	2024-11-08T15:00:00	2	Temperatura media	25.1
11946	7	Sololá	712	San Antonio Palopó	9	San Antonio Palopo	10	Octubre	2023-08-10T00:00:00	2024-11-08T15:00:00	4	Temperatura máxima	25.9
11947	7	Sololá	712	San Antonio Palopó	9	San Antonio Palopo	10	Octubre	2023-08-10T00:00:00	2024-11-08T15:00:00	3	Temperatura mínima	25.1
11948	7	Sololá	712	San Antonio Palopó	9	San Antonio Palopo	10	Octubre	2023-08-10T00:00:00	2024-11-08T15:00:00	5	Humedad	79
11949	7	Sololá	712	San Antonio Palopó	9	San Antonio Palopo	10	Octubre	2023-08-10T00:00:00	2024-11-08T15:00:00	6	Velocidad del viento	4.8
11950	7	Sololá	712	San Antonio Palopó	9	San Antonio Palopo	10	Octubre	2023-08-10T00:00:00	2024-11-08T15:00:00	7	Dirección del viento	4.83
11951	7	Sololá	712	San Antonio Palopó	9	San Antonio Palopo	10	Octubre	2023-08-10T00:00:00	2024-11-08T15:00:00	1	Precipitación	0
11952	7	Sololá	712	San Antonio Palopó	9	San Antonio Palopo	10	Octubre	2023-08-10T00:00:00	2024-11-08T15:00:00	8	Radiación solar	673
11953	7	Sololá	712	San Antonio Palopó	9	San Antonio Palopo	10	Octubre	2023-08-10T00:00:00	2024-11-08T16:00:00	2	Temperatura media	22.5
11954	7	Sololá	712	San Antonio Palopó	9	San Antonio Palopo	10	Octubre	2023-08-10T00:00:00	2024-11-08T16:00:00	4	Temperatura máxima	25
11955	7	Sololá	712	San Antonio Palopó	9	San Antonio Palopo	10	Octubre	2023-08-10T00:00:00	2024-11-08T16:00:00	3	Temperatura mínima	22.5
11956	7	Sololá	712	San Antonio Palopó	9	San Antonio Palopo	10	Octubre	2023-08-10T00:00:00	2024-11-08T16:00:00	5	Humedad	77
11957	7	Sololá	712	San Antonio Palopó	9	San Antonio Palopo	10	Octubre	2023-08-10T00:00:00	2024-11-08T16:00:00	6	Velocidad del viento	6.4
11958	7	Sololá	712	San Antonio Palopó	9	San Antonio Palopo	10	Octubre	2023-08-10T00:00:00	2024-11-08T16:00:00	7	Dirección del viento	6.44
11959	7	Sololá	712	San Antonio Palopó	9	San Antonio Palopo	10	Octubre	2023-08-10T00:00:00	2024-11-08T16:00:00	1	Precipitación	0.4
11960	7	Sololá	712	San Antonio Palopó	9	San Antonio Palopo	10	Octubre	2023-08-10T00:00:00	2024-11-08T16:00:00	8	Radiación solar	188
11961	7	Sololá	712	San Antonio Palopó	9	San Antonio Palopo	10	Octubre	2023-08-10T00:00:00	2024-11-08T17:00:00	2	Temperatura media	20.2
11962	7	Sololá	712	San Antonio Palopó	9	San Antonio Palopo	10	Octubre	2023-08-10T00:00:00	2024-11-08T17:00:00	4	Temperatura máxima	22.5
11963	7	Sololá	712	San Antonio Palopó	9	San Antonio Palopo	10	Octubre	2023-08-10T00:00:00	2024-11-08T17:00:00	3	Temperatura mínima	20.2
11964	7	Sololá	712	San Antonio Palopó	9	San Antonio Palopo	10	Octubre	2023-08-10T00:00:00	2024-11-08T17:00:00	5	Humedad	77
11965	7	Sololá	712	San Antonio Palopó	9	San Antonio Palopo	10	Octubre	2023-08-10T00:00:00	2024-11-08T17:00:00	6	Velocidad del viento	8
11966	7	Sololá	712	San Antonio Palopó	9	San Antonio Palopo	10	Octubre	2023-08-10T00:00:00	2024-11-08T17:00:00	7	Dirección del viento	8.05
11967	7	Sololá	712	San Antonio Palopó	9	San Antonio Palopo	10	Octubre	2023-08-10T00:00:00	2024-11-08T17:00:00	1	Precipitación	0.2
11968	7	Sololá	712	San Antonio Palopó	9	San Antonio Palopo	10	Octubre	2023-08-10T00:00:00	2024-11-08T17:00:00	8	Radiación solar	11
11969	7	Sololá	712	San Antonio Palopó	9	San Antonio Palopo	10	Octubre	2023-08-10T00:00:00	2024-11-08T18:00:00	2	Temperatura media	20.4
11970	7	Sololá	712	San Antonio Palopó	9	San Antonio Palopo	10	Octubre	2023-08-10T00:00:00	2024-11-08T18:00:00	4	Temperatura máxima	20.7
11971	7	Sololá	712	San Antonio Palopó	9	San Antonio Palopo	10	Octubre	2023-08-10T00:00:00	2024-11-08T18:00:00	3	Temperatura mínima	20.2
11972	7	Sololá	712	San Antonio Palopó	9	San Antonio Palopo	10	Octubre	2023-08-10T00:00:00	2024-11-08T18:00:00	5	Humedad	84
11973	7	Sololá	712	San Antonio Palopó	9	San Antonio Palopo	10	Octubre	2023-08-10T00:00:00	2024-11-08T18:00:00	6	Velocidad del viento	4.8
11974	7	Sololá	712	San Antonio Palopó	9	San Antonio Palopo	10	Octubre	2023-08-10T00:00:00	2024-11-08T18:00:00	7	Dirección del viento	4.83
11975	7	Sololá	712	San Antonio Palopó	9	San Antonio Palopo	10	Octubre	2023-08-10T00:00:00	2024-11-08T18:00:00	1	Precipitación	0
11976	7	Sololá	712	San Antonio Palopó	9	San Antonio Palopo	10	Octubre	2023-08-10T00:00:00	2024-11-08T18:00:00	8	Radiación solar	3
11977	7	Sololá	712	San Antonio Palopó	9	San Antonio Palopo	10	Octubre	2023-08-10T00:00:00	2024-11-08T19:00:00	2	Temperatura media	20.4
11978	7	Sololá	712	San Antonio Palopó	9	San Antonio Palopo	10	Octubre	2023-08-10T00:00:00	2024-11-08T19:00:00	4	Temperatura máxima	20.5
11979	7	Sololá	712	San Antonio Palopó	9	San Antonio Palopo	10	Octubre	2023-08-10T00:00:00	2024-11-08T19:00:00	3	Temperatura mínima	20.2
11980	7	Sololá	712	San Antonio Palopó	9	San Antonio Palopo	10	Octubre	2023-08-10T00:00:00	2024-11-08T19:00:00	5	Humedad	85
11981	7	Sololá	712	San Antonio Palopó	9	San Antonio Palopo	10	Octubre	2023-08-10T00:00:00	2024-11-08T19:00:00	6	Velocidad del viento	1.6
11982	7	Sololá	712	San Antonio Palopó	9	San Antonio Palopo	10	Octubre	2023-08-10T00:00:00	2024-11-08T19:00:00	7	Dirección del viento	1.61
11983	7	Sololá	712	San Antonio Palopó	9	San Antonio Palopo	10	Octubre	2023-08-10T00:00:00	2024-11-08T19:00:00	1	Precipitación	0
11984	7	Sololá	712	San Antonio Palopó	9	San Antonio Palopo	10	Octubre	2023-08-10T00:00:00	2024-11-08T19:00:00	8	Radiación solar	0
11985	7	Sololá	712	San Antonio Palopó	9	San Antonio Palopo	10	Octubre	2023-08-10T00:00:00	2024-11-08T20:00:00	2	Temperatura media	20
11986	7	Sololá	712	San Antonio Palopó	9	San Antonio Palopo	10	Octubre	2023-08-10T00:00:00	2024-11-08T20:00:00	4	Temperatura máxima	20.4
11987	7	Sololá	712	San Antonio Palopó	9	San Antonio Palopo	10	Octubre	2023-08-10T00:00:00	2024-11-08T20:00:00	3	Temperatura mínima	20
11988	7	Sololá	712	San Antonio Palopó	9	San Antonio Palopo	10	Octubre	2023-08-10T00:00:00	2024-11-08T20:00:00	5	Humedad	85
11989	7	Sololá	712	San Antonio Palopó	9	San Antonio Palopo	10	Octubre	2023-08-10T00:00:00	2024-11-08T20:00:00	6	Velocidad del viento	1.6
11990	7	Sololá	712	San Antonio Palopó	9	San Antonio Palopo	10	Octubre	2023-08-10T00:00:00	2024-11-08T20:00:00	7	Dirección del viento	1.61
11991	7	Sololá	712	San Antonio Palopó	9	San Antonio Palopo	10	Octubre	2023-08-10T00:00:00	2024-11-08T20:00:00	1	Precipitación	0
11992	7	Sololá	712	San Antonio Palopó	9	San Antonio Palopo	10	Octubre	2023-08-10T00:00:00	2024-11-08T20:00:00	8	Radiación solar	0
11993	7	Sololá	712	San Antonio Palopó	9	San Antonio Palopo	10	Octubre	2023-08-10T00:00:00	2024-11-08T21:00:00	2	Temperatura media	20.2
11994	7	Sololá	712	San Antonio Palopó	9	San Antonio Palopo	10	Octubre	2023-08-10T00:00:00	2024-11-08T21:00:00	4	Temperatura máxima	20.2
11995	7	Sololá	712	San Antonio Palopó	9	San Antonio Palopo	10	Octubre	2023-08-10T00:00:00	2024-11-08T21:00:00	3	Temperatura mínima	19.7
11996	7	Sololá	712	San Antonio Palopó	9	San Antonio Palopo	10	Octubre	2023-08-10T00:00:00	2024-11-08T21:00:00	5	Humedad	85
11997	7	Sololá	712	San Antonio Palopó	9	San Antonio Palopo	10	Octubre	2023-08-10T00:00:00	2024-11-08T21:00:00	6	Velocidad del viento	3.2
11998	7	Sololá	712	San Antonio Palopó	9	San Antonio Palopo	10	Octubre	2023-08-10T00:00:00	2024-11-08T21:00:00	7	Dirección del viento	3.22
11999	7	Sololá	712	San Antonio Palopó	9	San Antonio Palopo	10	Octubre	2023-08-10T00:00:00	2024-11-08T21:00:00	1	Precipitación	0.2
12000	7	Sololá	712	San Antonio Palopó	9	San Antonio Palopo	10	Octubre	2023-08-10T00:00:00	2024-11-08T21:00:00	8	Radiación solar	0
12001	7	Sololá	712	San Antonio Palopó	9	San Antonio Palopo	10	Octubre	2023-08-10T00:00:00	2024-11-08T22:00:00	2	Temperatura media	19.4
12002	7	Sololá	712	San Antonio Palopó	9	San Antonio Palopo	10	Octubre	2023-08-10T00:00:00	2024-11-08T22:00:00	4	Temperatura máxima	20.2
12003	7	Sololá	712	San Antonio Palopó	9	San Antonio Palopo	10	Octubre	2023-08-10T00:00:00	2024-11-08T22:00:00	3	Temperatura mínima	19.4
12004	7	Sololá	712	San Antonio Palopó	9	San Antonio Palopo	10	Octubre	2023-08-10T00:00:00	2024-11-08T22:00:00	5	Humedad	91
12005	7	Sololá	712	San Antonio Palopó	9	San Antonio Palopo	10	Octubre	2023-08-10T00:00:00	2024-11-08T22:00:00	6	Velocidad del viento	4.8
12006	7	Sololá	712	San Antonio Palopó	9	San Antonio Palopo	10	Octubre	2023-08-10T00:00:00	2024-11-08T22:00:00	7	Dirección del viento	4.83
12007	7	Sololá	712	San Antonio Palopó	9	San Antonio Palopo	10	Octubre	2023-08-10T00:00:00	2024-11-08T22:00:00	1	Precipitación	2.8
12008	7	Sololá	712	San Antonio Palopó	9	San Antonio Palopo	10	Octubre	2023-08-10T00:00:00	2024-11-08T22:00:00	8	Radiación solar	0
12009	7	Sololá	712	San Antonio Palopó	9	San Antonio Palopo	10	Octubre	2023-08-10T00:00:00	2024-11-08T23:00:00	2	Temperatura media	19.4
12010	7	Sololá	712	San Antonio Palopó	9	San Antonio Palopo	10	Octubre	2023-08-10T00:00:00	2024-11-08T23:00:00	4	Temperatura máxima	19.4
12011	7	Sololá	712	San Antonio Palopó	9	San Antonio Palopo	10	Octubre	2023-08-10T00:00:00	2024-11-08T23:00:00	3	Temperatura mínima	19.2
12012	7	Sololá	712	San Antonio Palopó	9	San Antonio Palopo	10	Octubre	2023-08-10T00:00:00	2024-11-08T23:00:00	5	Humedad	91
12013	7	Sololá	712	San Antonio Palopó	9	San Antonio Palopo	10	Octubre	2023-08-10T00:00:00	2024-11-08T23:00:00	6	Velocidad del viento	3.2
12014	7	Sololá	712	San Antonio Palopó	9	San Antonio Palopo	10	Octubre	2023-08-10T00:00:00	2024-11-08T23:00:00	7	Dirección del viento	3.22
12015	7	Sololá	712	San Antonio Palopó	9	San Antonio Palopo	10	Octubre	2023-08-10T00:00:00	2024-11-08T23:00:00	1	Precipitación	0
12016	7	Sololá	712	San Antonio Palopó	9	San Antonio Palopo	10	Octubre	2023-08-10T00:00:00	2024-11-08T23:00:00	8	Radiación solar	0
12017	7	Sololá	712	San Antonio Palopó	9	San Antonio Palopo	10	Octubre	2023-09-10T00:00:00	2024-11-08T00:00:00	2	Temperatura media	19.3
12018	7	Sololá	712	San Antonio Palopó	9	San Antonio Palopo	10	Octubre	2023-09-10T00:00:00	2024-11-08T00:00:00	4	Temperatura máxima	19.6
12019	7	Sololá	712	San Antonio Palopó	9	San Antonio Palopo	10	Octubre	2023-09-10T00:00:00	2024-11-08T00:00:00	3	Temperatura mínima	19.3
12020	7	Sololá	712	San Antonio Palopó	9	San Antonio Palopo	10	Octubre	2023-09-10T00:00:00	2024-11-08T00:00:00	5	Humedad	89
12021	7	Sololá	712	San Antonio Palopó	9	San Antonio Palopo	10	Octubre	2023-09-10T00:00:00	2024-11-08T00:00:00	6	Velocidad del viento	1.6
12022	7	Sololá	712	San Antonio Palopó	9	San Antonio Palopo	10	Octubre	2023-09-10T00:00:00	2024-11-08T00:00:00	7	Dirección del viento	1.61
12023	7	Sololá	712	San Antonio Palopó	9	San Antonio Palopo	10	Octubre	2023-09-10T00:00:00	2024-11-08T00:00:00	1	Precipitación	0
12024	7	Sololá	712	San Antonio Palopó	9	San Antonio Palopo	10	Octubre	2023-09-10T00:00:00	2024-11-08T00:00:00	8	Radiación solar	0
12025	7	Sololá	712	San Antonio Palopó	9	San Antonio Palopo	10	Octubre	2023-09-10T00:00:00	2024-11-08T01:00:00	2	Temperatura media	18.7
12026	7	Sololá	712	San Antonio Palopó	9	San Antonio Palopo	10	Octubre	2023-09-10T00:00:00	2024-11-08T01:00:00	4	Temperatura máxima	19.6
12027	7	Sololá	712	San Antonio Palopó	9	San Antonio Palopo	10	Octubre	2023-09-10T00:00:00	2024-11-08T01:00:00	3	Temperatura mínima	18.7
12028	7	Sololá	712	San Antonio Palopó	9	San Antonio Palopo	10	Octubre	2023-09-10T00:00:00	2024-11-08T01:00:00	5	Humedad	90
12029	7	Sololá	712	San Antonio Palopó	9	San Antonio Palopo	10	Octubre	2023-09-10T00:00:00	2024-11-08T01:00:00	6	Velocidad del viento	3.2
12030	7	Sololá	712	San Antonio Palopó	9	San Antonio Palopo	10	Octubre	2023-09-10T00:00:00	2024-11-08T01:00:00	7	Dirección del viento	3.22
12031	7	Sololá	712	San Antonio Palopó	9	San Antonio Palopo	10	Octubre	2023-09-10T00:00:00	2024-11-08T01:00:00	1	Precipitación	0.2
12032	7	Sololá	712	San Antonio Palopó	9	San Antonio Palopo	10	Octubre	2023-09-10T00:00:00	2024-11-08T01:00:00	8	Radiación solar	0
12033	7	Sololá	712	San Antonio Palopó	9	San Antonio Palopo	10	Octubre	2023-09-10T00:00:00	2024-11-08T02:00:00	2	Temperatura media	18.9
12034	7	Sololá	712	San Antonio Palopó	9	San Antonio Palopo	10	Octubre	2023-09-10T00:00:00	2024-11-08T02:00:00	4	Temperatura máxima	19.1
12035	7	Sololá	712	San Antonio Palopó	9	San Antonio Palopo	10	Octubre	2023-09-10T00:00:00	2024-11-08T02:00:00	3	Temperatura mínima	18.4
12036	7	Sololá	712	San Antonio Palopó	9	San Antonio Palopo	10	Octubre	2023-09-10T00:00:00	2024-11-08T02:00:00	5	Humedad	88
12037	7	Sololá	712	San Antonio Palopó	9	San Antonio Palopo	10	Octubre	2023-09-10T00:00:00	2024-11-08T02:00:00	6	Velocidad del viento	1.6
12038	7	Sololá	712	San Antonio Palopó	9	San Antonio Palopo	10	Octubre	2023-09-10T00:00:00	2024-11-08T02:00:00	7	Dirección del viento	1.61
12039	7	Sololá	712	San Antonio Palopó	9	San Antonio Palopo	10	Octubre	2023-09-10T00:00:00	2024-11-08T02:00:00	1	Precipitación	0.2
12040	7	Sololá	712	San Antonio Palopó	9	San Antonio Palopo	10	Octubre	2023-09-10T00:00:00	2024-11-08T02:00:00	8	Radiación solar	0
12041	7	Sololá	712	San Antonio Palopó	9	San Antonio Palopo	10	Octubre	2023-09-10T00:00:00	2024-11-08T03:00:00	2	Temperatura media	18.9
12042	7	Sololá	712	San Antonio Palopó	9	San Antonio Palopo	10	Octubre	2023-09-10T00:00:00	2024-11-08T03:00:00	4	Temperatura máxima	19.2
12043	7	Sololá	712	San Antonio Palopó	9	San Antonio Palopo	10	Octubre	2023-09-10T00:00:00	2024-11-08T03:00:00	3	Temperatura mínima	18.2
12044	7	Sololá	712	San Antonio Palopó	9	San Antonio Palopo	10	Octubre	2023-09-10T00:00:00	2024-11-08T03:00:00	5	Humedad	86
12045	7	Sololá	712	San Antonio Palopó	9	San Antonio Palopo	10	Octubre	2023-09-10T00:00:00	2024-11-08T03:00:00	6	Velocidad del viento	3.2
12046	7	Sololá	712	San Antonio Palopó	9	San Antonio Palopo	10	Octubre	2023-09-10T00:00:00	2024-11-08T03:00:00	7	Dirección del viento	3.22
12047	7	Sololá	712	San Antonio Palopó	9	San Antonio Palopo	10	Octubre	2023-09-10T00:00:00	2024-11-08T03:00:00	1	Precipitación	0
12048	7	Sololá	712	San Antonio Palopó	9	San Antonio Palopo	10	Octubre	2023-09-10T00:00:00	2024-11-08T03:00:00	8	Radiación solar	0
12049	7	Sololá	712	San Antonio Palopó	9	San Antonio Palopo	10	Octubre	2023-09-10T00:00:00	2024-11-08T04:00:00	2	Temperatura media	18.4
12050	7	Sololá	712	San Antonio Palopó	9	San Antonio Palopo	10	Octubre	2023-09-10T00:00:00	2024-11-08T04:00:00	4	Temperatura máxima	19.4
12051	7	Sololá	712	San Antonio Palopó	9	San Antonio Palopo	10	Octubre	2023-09-10T00:00:00	2024-11-08T04:00:00	3	Temperatura mínima	18.4
12052	7	Sololá	712	San Antonio Palopó	9	San Antonio Palopo	10	Octubre	2023-09-10T00:00:00	2024-11-08T04:00:00	5	Humedad	87
12053	7	Sololá	712	San Antonio Palopó	9	San Antonio Palopo	10	Octubre	2023-09-10T00:00:00	2024-11-08T04:00:00	6	Velocidad del viento	3.2
12054	7	Sololá	712	San Antonio Palopó	9	San Antonio Palopo	10	Octubre	2023-09-10T00:00:00	2024-11-08T04:00:00	7	Dirección del viento	3.22
12055	7	Sololá	712	San Antonio Palopó	9	San Antonio Palopo	10	Octubre	2023-09-10T00:00:00	2024-11-08T04:00:00	1	Precipitación	0
12056	7	Sololá	712	San Antonio Palopó	9	San Antonio Palopo	10	Octubre	2023-09-10T00:00:00	2024-11-08T04:00:00	8	Radiación solar	0
12057	7	Sololá	712	San Antonio Palopó	9	San Antonio Palopo	10	Octubre	2023-09-10T00:00:00	2024-11-08T05:00:00	2	Temperatura media	19.2
12058	7	Sololá	712	San Antonio Palopó	9	San Antonio Palopo	10	Octubre	2023-09-10T00:00:00	2024-11-08T05:00:00	4	Temperatura máxima	19.4
12059	7	Sololá	712	San Antonio Palopó	9	San Antonio Palopo	10	Octubre	2023-09-10T00:00:00	2024-11-08T05:00:00	3	Temperatura mínima	18.1
12060	7	Sololá	712	San Antonio Palopó	9	San Antonio Palopo	10	Octubre	2023-09-10T00:00:00	2024-11-08T05:00:00	5	Humedad	86
12061	7	Sololá	712	San Antonio Palopó	9	San Antonio Palopo	10	Octubre	2023-09-10T00:00:00	2024-11-08T05:00:00	6	Velocidad del viento	4.8
12062	7	Sololá	712	San Antonio Palopó	9	San Antonio Palopo	10	Octubre	2023-09-10T00:00:00	2024-11-08T05:00:00	7	Dirección del viento	4.83
12063	7	Sololá	712	San Antonio Palopó	9	San Antonio Palopo	10	Octubre	2023-09-10T00:00:00	2024-11-08T05:00:00	1	Precipitación	0
12064	7	Sololá	712	San Antonio Palopó	9	San Antonio Palopo	10	Octubre	2023-09-10T00:00:00	2024-11-08T05:00:00	8	Radiación solar	0
12065	7	Sololá	712	San Antonio Palopó	9	San Antonio Palopo	10	Octubre	2023-09-10T00:00:00	2024-11-08T06:00:00	2	Temperatura media	19.1
12066	7	Sololá	712	San Antonio Palopó	9	San Antonio Palopo	10	Octubre	2023-09-10T00:00:00	2024-11-08T06:00:00	4	Temperatura máxima	19.2
12067	7	Sololá	712	San Antonio Palopó	9	San Antonio Palopo	10	Octubre	2023-09-10T00:00:00	2024-11-08T06:00:00	3	Temperatura mínima	18.7
12068	7	Sololá	712	San Antonio Palopó	9	San Antonio Palopo	10	Octubre	2023-09-10T00:00:00	2024-11-08T06:00:00	5	Humedad	87
12069	7	Sololá	712	San Antonio Palopó	9	San Antonio Palopo	10	Octubre	2023-09-10T00:00:00	2024-11-08T06:00:00	6	Velocidad del viento	3.2
12070	7	Sololá	712	San Antonio Palopó	9	San Antonio Palopo	10	Octubre	2023-09-10T00:00:00	2024-11-08T06:00:00	7	Dirección del viento	3.22
12071	7	Sololá	712	San Antonio Palopó	9	San Antonio Palopo	10	Octubre	2023-09-10T00:00:00	2024-11-08T06:00:00	1	Precipitación	0
12072	7	Sololá	712	San Antonio Palopó	9	San Antonio Palopo	10	Octubre	2023-09-10T00:00:00	2024-11-08T06:00:00	8	Radiación solar	0
12073	7	Sololá	712	San Antonio Palopó	9	San Antonio Palopo	10	Octubre	2023-09-10T00:00:00	2024-11-08T07:00:00	2	Temperatura media	19.1
12074	7	Sololá	712	San Antonio Palopó	9	San Antonio Palopo	10	Octubre	2023-09-10T00:00:00	2024-11-08T07:00:00	4	Temperatura máxima	19.2
12075	7	Sololá	712	San Antonio Palopó	9	San Antonio Palopo	10	Octubre	2023-09-10T00:00:00	2024-11-08T07:00:00	3	Temperatura mínima	18.8
12076	7	Sololá	712	San Antonio Palopó	9	San Antonio Palopo	10	Octubre	2023-09-10T00:00:00	2024-11-08T07:00:00	5	Humedad	88
12077	7	Sololá	712	San Antonio Palopó	9	San Antonio Palopo	10	Octubre	2023-09-10T00:00:00	2024-11-08T07:00:00	6	Velocidad del viento	1.6
12078	7	Sololá	712	San Antonio Palopó	9	San Antonio Palopo	10	Octubre	2023-09-10T00:00:00	2024-11-08T07:00:00	7	Dirección del viento	1.61
12079	7	Sololá	712	San Antonio Palopó	9	San Antonio Palopo	10	Octubre	2023-09-10T00:00:00	2024-11-08T07:00:00	1	Precipitación	0
12080	7	Sololá	712	San Antonio Palopó	9	San Antonio Palopo	10	Octubre	2023-09-10T00:00:00	2024-11-08T07:00:00	8	Radiación solar	19
12081	7	Sololá	712	San Antonio Palopó	9	San Antonio Palopo	10	Octubre	2023-09-10T00:00:00	2024-11-08T08:00:00	2	Temperatura media	20.6
12082	7	Sololá	712	San Antonio Palopó	9	San Antonio Palopo	10	Octubre	2023-09-10T00:00:00	2024-11-08T08:00:00	4	Temperatura máxima	20.6
12083	7	Sololá	712	San Antonio Palopó	9	San Antonio Palopo	10	Octubre	2023-09-10T00:00:00	2024-11-08T08:00:00	3	Temperatura mínima	19.1
12084	7	Sololá	712	San Antonio Palopó	9	San Antonio Palopo	10	Octubre	2023-09-10T00:00:00	2024-11-08T08:00:00	5	Humedad	83
12085	7	Sololá	712	San Antonio Palopó	9	San Antonio Palopo	10	Octubre	2023-09-10T00:00:00	2024-11-08T08:00:00	6	Velocidad del viento	1.6
12086	7	Sololá	712	San Antonio Palopó	9	San Antonio Palopo	10	Octubre	2023-09-10T00:00:00	2024-11-08T08:00:00	7	Dirección del viento	1.61
12087	7	Sololá	712	San Antonio Palopó	9	San Antonio Palopo	10	Octubre	2023-09-10T00:00:00	2024-11-08T08:00:00	1	Precipitación	0
12088	7	Sololá	712	San Antonio Palopó	9	San Antonio Palopo	10	Octubre	2023-09-10T00:00:00	2024-11-08T08:00:00	8	Radiación solar	109
12089	7	Sololá	712	San Antonio Palopó	9	San Antonio Palopo	10	Octubre	2023-09-10T00:00:00	2024-11-08T09:00:00	2	Temperatura media	21
12090	7	Sololá	712	San Antonio Palopó	9	San Antonio Palopo	10	Octubre	2023-09-10T00:00:00	2024-11-08T09:00:00	4	Temperatura máxima	21.1
12091	7	Sololá	712	San Antonio Palopó	9	San Antonio Palopo	10	Octubre	2023-09-10T00:00:00	2024-11-08T09:00:00	3	Temperatura mínima	20.6
12092	7	Sololá	712	San Antonio Palopó	9	San Antonio Palopo	10	Octubre	2023-09-10T00:00:00	2024-11-08T09:00:00	5	Humedad	81
12093	7	Sololá	712	San Antonio Palopó	9	San Antonio Palopo	10	Octubre	2023-09-10T00:00:00	2024-11-08T09:00:00	6	Velocidad del viento	1.6
12094	7	Sololá	712	San Antonio Palopó	9	San Antonio Palopo	10	Octubre	2023-09-10T00:00:00	2024-11-08T09:00:00	7	Dirección del viento	1.61
12095	7	Sololá	712	San Antonio Palopó	9	San Antonio Palopo	10	Octubre	2023-09-10T00:00:00	2024-11-08T09:00:00	1	Precipitación	0
12096	7	Sololá	712	San Antonio Palopó	9	San Antonio Palopo	10	Octubre	2023-09-10T00:00:00	2024-11-08T09:00:00	8	Radiación solar	238
12097	7	Sololá	712	San Antonio Palopó	9	San Antonio Palopo	10	Octubre	2023-09-10T00:00:00	2024-11-08T10:00:00	2	Temperatura media	21.8
12098	7	Sololá	712	San Antonio Palopó	9	San Antonio Palopo	10	Octubre	2023-09-10T00:00:00	2024-11-08T10:00:00	4	Temperatura máxima	22
12099	7	Sololá	712	San Antonio Palopó	9	San Antonio Palopo	10	Octubre	2023-09-10T00:00:00	2024-11-08T10:00:00	3	Temperatura mínima	21
12100	7	Sololá	712	San Antonio Palopó	9	San Antonio Palopo	10	Octubre	2023-09-10T00:00:00	2024-11-08T10:00:00	5	Humedad	78
12101	7	Sololá	712	San Antonio Palopó	9	San Antonio Palopo	10	Octubre	2023-09-10T00:00:00	2024-11-08T10:00:00	6	Velocidad del viento	1.6
12102	7	Sololá	712	San Antonio Palopó	9	San Antonio Palopo	10	Octubre	2023-09-10T00:00:00	2024-11-08T10:00:00	7	Dirección del viento	1.61
12103	7	Sololá	712	San Antonio Palopó	9	San Antonio Palopo	10	Octubre	2023-09-10T00:00:00	2024-11-08T10:00:00	1	Precipitación	0
12104	7	Sololá	712	San Antonio Palopó	9	San Antonio Palopo	10	Octubre	2023-09-10T00:00:00	2024-11-08T10:00:00	8	Radiación solar	420
12105	7	Sololá	712	San Antonio Palopó	9	San Antonio Palopo	10	Octubre	2023-09-10T00:00:00	2024-11-08T11:00:00	2	Temperatura media	22.7
12106	7	Sololá	712	San Antonio Palopó	9	San Antonio Palopo	10	Octubre	2023-09-10T00:00:00	2024-11-08T11:00:00	4	Temperatura máxima	22.7
12107	7	Sololá	712	San Antonio Palopó	9	San Antonio Palopo	10	Octubre	2023-09-10T00:00:00	2024-11-08T11:00:00	3	Temperatura mínima	21.8
12108	7	Sololá	712	San Antonio Palopó	9	San Antonio Palopo	10	Octubre	2023-09-10T00:00:00	2024-11-08T11:00:00	5	Humedad	79
12109	7	Sololá	712	San Antonio Palopó	9	San Antonio Palopo	10	Octubre	2023-09-10T00:00:00	2024-11-08T11:00:00	6	Velocidad del viento	3.2
12110	7	Sololá	712	San Antonio Palopó	9	San Antonio Palopo	10	Octubre	2023-09-10T00:00:00	2024-11-08T11:00:00	7	Dirección del viento	3.22
12111	7	Sololá	712	San Antonio Palopó	9	San Antonio Palopo	10	Octubre	2023-09-10T00:00:00	2024-11-08T11:00:00	1	Precipitación	0
12112	7	Sololá	712	San Antonio Palopó	9	San Antonio Palopo	10	Octubre	2023-09-10T00:00:00	2024-11-08T11:00:00	8	Radiación solar	728
12113	7	Sololá	712	San Antonio Palopó	9	San Antonio Palopo	10	Octubre	2023-09-10T00:00:00	2024-11-08T12:00:00	2	Temperatura media	24.3
12114	7	Sololá	712	San Antonio Palopó	9	San Antonio Palopo	10	Octubre	2023-09-10T00:00:00	2024-11-08T12:00:00	4	Temperatura máxima	24.3
12115	7	Sololá	712	San Antonio Palopó	9	San Antonio Palopo	10	Octubre	2023-09-10T00:00:00	2024-11-08T12:00:00	3	Temperatura mínima	22.7
12116	7	Sololá	712	San Antonio Palopó	9	San Antonio Palopo	10	Octubre	2023-09-10T00:00:00	2024-11-08T12:00:00	5	Humedad	77
12117	7	Sololá	712	San Antonio Palopó	9	San Antonio Palopo	10	Octubre	2023-09-10T00:00:00	2024-11-08T12:00:00	6	Velocidad del viento	4.8
12118	7	Sololá	712	San Antonio Palopó	9	San Antonio Palopo	10	Octubre	2023-09-10T00:00:00	2024-11-08T12:00:00	7	Dirección del viento	4.83
12119	7	Sololá	712	San Antonio Palopó	9	San Antonio Palopo	10	Octubre	2023-09-10T00:00:00	2024-11-08T12:00:00	1	Precipitación	0
12120	7	Sololá	712	San Antonio Palopó	9	San Antonio Palopo	10	Octubre	2023-09-10T00:00:00	2024-11-08T12:00:00	8	Radiación solar	889
12121	7	Sololá	712	San Antonio Palopó	9	San Antonio Palopo	10	Octubre	2023-09-10T00:00:00	2024-11-08T13:00:00	2	Temperatura media	21.4
12122	7	Sololá	712	San Antonio Palopó	9	San Antonio Palopo	10	Octubre	2023-09-10T00:00:00	2024-11-08T13:00:00	4	Temperatura máxima	24.7
12123	7	Sololá	712	San Antonio Palopó	9	San Antonio Palopo	10	Octubre	2023-09-10T00:00:00	2024-11-08T13:00:00	3	Temperatura mínima	21.4
12124	7	Sololá	712	San Antonio Palopó	9	San Antonio Palopo	10	Octubre	2023-09-10T00:00:00	2024-11-08T13:00:00	5	Humedad	85
12125	7	Sololá	712	San Antonio Palopó	9	San Antonio Palopo	10	Octubre	2023-09-10T00:00:00	2024-11-08T13:00:00	6	Velocidad del viento	11.3
12126	7	Sololá	712	San Antonio Palopó	9	San Antonio Palopo	10	Octubre	2023-09-10T00:00:00	2024-11-08T13:00:00	7	Dirección del viento	11.27
12127	7	Sololá	712	San Antonio Palopó	9	San Antonio Palopo	10	Octubre	2023-09-10T00:00:00	2024-11-08T13:00:00	1	Precipitación	0.4
12128	7	Sololá	712	San Antonio Palopó	9	San Antonio Palopo	10	Octubre	2023-09-10T00:00:00	2024-11-08T13:00:00	8	Radiación solar	341
12129	7	Sololá	712	San Antonio Palopó	9	San Antonio Palopo	10	Octubre	2023-09-10T00:00:00	2024-11-08T14:00:00	2	Temperatura media	20.8
12130	7	Sololá	712	San Antonio Palopó	9	San Antonio Palopo	10	Octubre	2023-09-10T00:00:00	2024-11-08T14:00:00	4	Temperatura máxima	21.4
12131	7	Sololá	712	San Antonio Palopó	9	San Antonio Palopo	10	Octubre	2023-09-10T00:00:00	2024-11-08T14:00:00	3	Temperatura mínima	20.7
12132	7	Sololá	712	San Antonio Palopó	9	San Antonio Palopo	10	Octubre	2023-09-10T00:00:00	2024-11-08T14:00:00	5	Humedad	85
12133	7	Sololá	712	San Antonio Palopó	9	San Antonio Palopo	10	Octubre	2023-09-10T00:00:00	2024-11-08T14:00:00	6	Velocidad del viento	4.8
12134	7	Sololá	712	San Antonio Palopó	9	San Antonio Palopo	10	Octubre	2023-09-10T00:00:00	2024-11-08T14:00:00	7	Dirección del viento	4.83
12135	7	Sololá	712	San Antonio Palopó	9	San Antonio Palopo	10	Octubre	2023-09-10T00:00:00	2024-11-08T14:00:00	1	Precipitación	0.8
12136	7	Sololá	712	San Antonio Palopó	9	San Antonio Palopo	10	Octubre	2023-09-10T00:00:00	2024-11-08T14:00:00	8	Radiación solar	71
12137	7	Sololá	712	San Antonio Palopó	9	San Antonio Palopo	10	Octubre	2023-09-10T00:00:00	2024-11-08T15:00:00	2	Temperatura media	20.7
12138	7	Sololá	712	San Antonio Palopó	9	San Antonio Palopo	10	Octubre	2023-09-10T00:00:00	2024-11-08T15:00:00	4	Temperatura máxima	20.9
12139	7	Sololá	712	San Antonio Palopó	9	San Antonio Palopo	10	Octubre	2023-09-10T00:00:00	2024-11-08T15:00:00	3	Temperatura mínima	20.4
12140	7	Sololá	712	San Antonio Palopó	9	San Antonio Palopo	10	Octubre	2023-09-10T00:00:00	2024-11-08T15:00:00	5	Humedad	85
12141	7	Sololá	712	San Antonio Palopó	9	San Antonio Palopo	10	Octubre	2023-09-10T00:00:00	2024-11-08T15:00:00	6	Velocidad del viento	3.2
12142	7	Sololá	712	San Antonio Palopó	9	San Antonio Palopo	10	Octubre	2023-09-10T00:00:00	2024-11-08T15:00:00	7	Dirección del viento	3.22
12143	7	Sololá	712	San Antonio Palopó	9	San Antonio Palopo	10	Octubre	2023-09-10T00:00:00	2024-11-08T15:00:00	1	Precipitación	0.2
12144	7	Sololá	712	San Antonio Palopó	9	San Antonio Palopo	10	Octubre	2023-09-10T00:00:00	2024-11-08T15:00:00	8	Radiación solar	83
12145	7	Sololá	712	San Antonio Palopó	9	San Antonio Palopo	10	Octubre	2023-09-10T00:00:00	2024-11-08T16:00:00	2	Temperatura media	19.6
12146	7	Sololá	712	San Antonio Palopó	9	San Antonio Palopo	10	Octubre	2023-09-10T00:00:00	2024-11-08T16:00:00	4	Temperatura máxima	21
12147	7	Sololá	712	San Antonio Palopó	9	San Antonio Palopo	10	Octubre	2023-09-10T00:00:00	2024-11-08T16:00:00	3	Temperatura mínima	19.6
12148	7	Sololá	712	San Antonio Palopó	9	San Antonio Palopo	10	Octubre	2023-09-10T00:00:00	2024-11-08T16:00:00	5	Humedad	87
12149	7	Sololá	712	San Antonio Palopó	9	San Antonio Palopo	10	Octubre	2023-09-10T00:00:00	2024-11-08T16:00:00	6	Velocidad del viento	3.2
12150	7	Sololá	712	San Antonio Palopó	9	San Antonio Palopo	10	Octubre	2023-09-10T00:00:00	2024-11-08T16:00:00	7	Dirección del viento	3.22
12151	7	Sololá	712	San Antonio Palopó	9	San Antonio Palopo	10	Octubre	2023-09-10T00:00:00	2024-11-08T16:00:00	1	Precipitación	2.6
12152	7	Sololá	712	San Antonio Palopó	9	San Antonio Palopo	10	Octubre	2023-09-10T00:00:00	2024-11-08T16:00:00	8	Radiación solar	43
12153	7	Sololá	712	San Antonio Palopó	9	San Antonio Palopo	10	Octubre	2023-09-10T00:00:00	2024-11-08T17:00:00	2	Temperatura media	19.4
12154	7	Sololá	712	San Antonio Palopó	9	San Antonio Palopo	10	Octubre	2023-09-10T00:00:00	2024-11-08T17:00:00	4	Temperatura máxima	19.6
12155	7	Sololá	712	San Antonio Palopó	9	San Antonio Palopo	10	Octubre	2023-09-10T00:00:00	2024-11-08T17:00:00	3	Temperatura mínima	19.2
12156	7	Sololá	712	San Antonio Palopó	9	San Antonio Palopo	10	Octubre	2023-09-10T00:00:00	2024-11-08T17:00:00	5	Humedad	87
12157	7	Sololá	712	San Antonio Palopó	9	San Antonio Palopo	10	Octubre	2023-09-10T00:00:00	2024-11-08T17:00:00	6	Velocidad del viento	1.6
12158	7	Sololá	712	San Antonio Palopó	9	San Antonio Palopo	10	Octubre	2023-09-10T00:00:00	2024-11-08T17:00:00	7	Dirección del viento	1.61
12159	7	Sololá	712	San Antonio Palopó	9	San Antonio Palopo	10	Octubre	2023-09-10T00:00:00	2024-11-08T17:00:00	1	Precipitación	0.6
12160	7	Sololá	712	San Antonio Palopó	9	San Antonio Palopo	10	Octubre	2023-09-10T00:00:00	2024-11-08T17:00:00	8	Radiación solar	24
12161	7	Sololá	712	San Antonio Palopó	9	San Antonio Palopo	10	Octubre	2023-09-10T00:00:00	2024-11-08T18:00:00	2	Temperatura media	19.5
12162	7	Sololá	712	San Antonio Palopó	9	San Antonio Palopo	10	Octubre	2023-09-10T00:00:00	2024-11-08T18:00:00	4	Temperatura máxima	19.9
12163	7	Sololá	712	San Antonio Palopó	9	San Antonio Palopo	10	Octubre	2023-09-10T00:00:00	2024-11-08T18:00:00	3	Temperatura mínima	19.4
12164	7	Sololá	712	San Antonio Palopó	9	San Antonio Palopo	10	Octubre	2023-09-10T00:00:00	2024-11-08T18:00:00	5	Humedad	87
12165	7	Sololá	712	San Antonio Palopó	9	San Antonio Palopo	10	Octubre	2023-09-10T00:00:00	2024-11-08T18:00:00	6	Velocidad del viento	3.2
12166	7	Sololá	712	San Antonio Palopó	9	San Antonio Palopo	10	Octubre	2023-09-10T00:00:00	2024-11-08T18:00:00	7	Dirección del viento	3.22
12167	7	Sololá	712	San Antonio Palopó	9	San Antonio Palopo	10	Octubre	2023-09-10T00:00:00	2024-11-08T18:00:00	1	Precipitación	0
12168	7	Sololá	712	San Antonio Palopó	9	San Antonio Palopo	10	Octubre	2023-09-10T00:00:00	2024-11-08T18:00:00	8	Radiación solar	10
12169	7	Sololá	712	San Antonio Palopó	9	San Antonio Palopo	10	Octubre	2023-09-10T00:00:00	2024-11-08T19:00:00	2	Temperatura media	19.2
12170	7	Sololá	712	San Antonio Palopó	9	San Antonio Palopo	10	Octubre	2023-09-10T00:00:00	2024-11-08T19:00:00	4	Temperatura máxima	19.6
12171	7	Sololá	712	San Antonio Palopó	9	San Antonio Palopo	10	Octubre	2023-09-10T00:00:00	2024-11-08T19:00:00	3	Temperatura mínima	18.9
12172	7	Sololá	712	San Antonio Palopó	9	San Antonio Palopo	10	Octubre	2023-09-10T00:00:00	2024-11-08T19:00:00	5	Humedad	89
12173	7	Sololá	712	San Antonio Palopó	9	San Antonio Palopo	10	Octubre	2023-09-10T00:00:00	2024-11-08T19:00:00	6	Velocidad del viento	1.6
12174	7	Sololá	712	San Antonio Palopó	9	San Antonio Palopo	10	Octubre	2023-09-10T00:00:00	2024-11-08T19:00:00	7	Dirección del viento	1.61
12175	7	Sololá	712	San Antonio Palopó	9	San Antonio Palopo	10	Octubre	2023-09-10T00:00:00	2024-11-08T19:00:00	1	Precipitación	0
12176	7	Sololá	712	San Antonio Palopó	9	San Antonio Palopo	10	Octubre	2023-09-10T00:00:00	2024-11-08T19:00:00	8	Radiación solar	0
12177	7	Sololá	712	San Antonio Palopó	9	San Antonio Palopo	10	Octubre	2023-09-10T00:00:00	2024-11-08T20:00:00	2	Temperatura media	19.2
12178	7	Sololá	712	San Antonio Palopó	9	San Antonio Palopo	10	Octubre	2023-09-10T00:00:00	2024-11-08T20:00:00	4	Temperatura máxima	19.7
12179	7	Sololá	712	San Antonio Palopó	9	San Antonio Palopo	10	Octubre	2023-09-10T00:00:00	2024-11-08T20:00:00	3	Temperatura mínima	19.1
12180	7	Sololá	712	San Antonio Palopó	9	San Antonio Palopo	10	Octubre	2023-09-10T00:00:00	2024-11-08T20:00:00	5	Humedad	87
12181	7	Sololá	712	San Antonio Palopó	9	San Antonio Palopo	10	Octubre	2023-09-10T00:00:00	2024-11-08T20:00:00	6	Velocidad del viento	1.6
12182	7	Sololá	712	San Antonio Palopó	9	San Antonio Palopo	10	Octubre	2023-09-10T00:00:00	2024-11-08T20:00:00	7	Dirección del viento	1.61
12183	7	Sololá	712	San Antonio Palopó	9	San Antonio Palopo	10	Octubre	2023-09-10T00:00:00	2024-11-08T20:00:00	1	Precipitación	0
12184	7	Sololá	712	San Antonio Palopó	9	San Antonio Palopo	10	Octubre	2023-09-10T00:00:00	2024-11-08T20:00:00	8	Radiación solar	0
12185	7	Sololá	712	San Antonio Palopó	9	San Antonio Palopo	10	Octubre	2023-09-10T00:00:00	2024-11-08T21:00:00	2	Temperatura media	19.6
12186	7	Sololá	712	San Antonio Palopó	9	San Antonio Palopo	10	Octubre	2023-09-10T00:00:00	2024-11-08T21:00:00	4	Temperatura máxima	19.7
12187	7	Sololá	712	San Antonio Palopó	9	San Antonio Palopo	10	Octubre	2023-09-10T00:00:00	2024-11-08T21:00:00	3	Temperatura mínima	18.7
12188	7	Sololá	712	San Antonio Palopó	9	San Antonio Palopo	10	Octubre	2023-09-10T00:00:00	2024-11-08T21:00:00	5	Humedad	84
12189	7	Sololá	712	San Antonio Palopó	9	San Antonio Palopo	10	Octubre	2023-09-10T00:00:00	2024-11-08T21:00:00	6	Velocidad del viento	3.2
12190	7	Sololá	712	San Antonio Palopó	9	San Antonio Palopo	10	Octubre	2023-09-10T00:00:00	2024-11-08T21:00:00	7	Dirección del viento	3.22
12191	7	Sololá	712	San Antonio Palopó	9	San Antonio Palopo	10	Octubre	2023-09-10T00:00:00	2024-11-08T21:00:00	1	Precipitación	0
12192	7	Sololá	712	San Antonio Palopó	9	San Antonio Palopo	10	Octubre	2023-09-10T00:00:00	2024-11-08T21:00:00	8	Radiación solar	0
12193	7	Sololá	712	San Antonio Palopó	9	San Antonio Palopo	10	Octubre	2023-09-10T00:00:00	2024-11-08T22:00:00	2	Temperatura media	18.4
12194	7	Sololá	712	San Antonio Palopó	9	San Antonio Palopo	10	Octubre	2023-09-10T00:00:00	2024-11-08T22:00:00	4	Temperatura máxima	19.6
12195	7	Sololá	712	San Antonio Palopó	9	San Antonio Palopo	10	Octubre	2023-09-10T00:00:00	2024-11-08T22:00:00	3	Temperatura mínima	18.4
12196	7	Sololá	712	San Antonio Palopó	9	San Antonio Palopo	10	Octubre	2023-09-10T00:00:00	2024-11-08T22:00:00	5	Humedad	89
12197	7	Sololá	712	San Antonio Palopó	9	San Antonio Palopo	10	Octubre	2023-09-10T00:00:00	2024-11-08T22:00:00	6	Velocidad del viento	3.2
12198	7	Sololá	712	San Antonio Palopó	9	San Antonio Palopo	10	Octubre	2023-09-10T00:00:00	2024-11-08T22:00:00	7	Dirección del viento	3.22
12199	7	Sololá	712	San Antonio Palopó	9	San Antonio Palopo	10	Octubre	2023-09-10T00:00:00	2024-11-08T22:00:00	1	Precipitación	0
12200	7	Sololá	712	San Antonio Palopó	9	San Antonio Palopo	10	Octubre	2023-09-10T00:00:00	2024-11-08T22:00:00	8	Radiación solar	0
12201	7	Sololá	712	San Antonio Palopó	9	San Antonio Palopo	10	Octubre	2023-09-10T00:00:00	2024-11-08T23:00:00	2	Temperatura media	18.8
12202	7	Sololá	712	San Antonio Palopó	9	San Antonio Palopo	10	Octubre	2023-09-10T00:00:00	2024-11-08T23:00:00	4	Temperatura máxima	19.1
12203	7	Sololá	712	San Antonio Palopó	9	San Antonio Palopo	10	Octubre	2023-09-10T00:00:00	2024-11-08T23:00:00	3	Temperatura mínima	18.4
12204	7	Sololá	712	San Antonio Palopó	9	San Antonio Palopo	10	Octubre	2023-09-10T00:00:00	2024-11-08T23:00:00	5	Humedad	87
12205	7	Sololá	712	San Antonio Palopó	9	San Antonio Palopo	10	Octubre	2023-09-10T00:00:00	2024-11-08T23:00:00	6	Velocidad del viento	3.2
12206	7	Sololá	712	San Antonio Palopó	9	San Antonio Palopo	10	Octubre	2023-09-10T00:00:00	2024-11-08T23:00:00	7	Dirección del viento	3.22
12207	7	Sololá	712	San Antonio Palopó	9	San Antonio Palopo	10	Octubre	2023-09-10T00:00:00	2024-11-08T23:00:00	1	Precipitación	0
12208	7	Sololá	712	San Antonio Palopó	9	San Antonio Palopo	10	Octubre	2023-09-10T00:00:00	2024-11-08T23:00:00	8	Radiación solar	0
12209	7	Sololá	712	San Antonio Palopó	9	San Antonio Palopo	10	Octubre	2023-10-10T00:00:00	2024-11-08T00:00:00	2	Temperatura media	18.8
12210	7	Sololá	712	San Antonio Palopó	9	San Antonio Palopo	10	Octubre	2023-10-10T00:00:00	2024-11-08T00:00:00	4	Temperatura máxima	19.4
12211	7	Sololá	712	San Antonio Palopó	9	San Antonio Palopo	10	Octubre	2023-10-10T00:00:00	2024-11-08T00:00:00	3	Temperatura mínima	18.8
12212	7	Sololá	712	San Antonio Palopó	9	San Antonio Palopo	10	Octubre	2023-10-10T00:00:00	2024-11-08T00:00:00	5	Humedad	87
12213	7	Sololá	712	San Antonio Palopó	9	San Antonio Palopo	10	Octubre	2023-10-10T00:00:00	2024-11-08T00:00:00	6	Velocidad del viento	3.2
12214	7	Sololá	712	San Antonio Palopó	9	San Antonio Palopo	10	Octubre	2023-10-10T00:00:00	2024-11-08T00:00:00	7	Dirección del viento	3.22
12215	7	Sololá	712	San Antonio Palopó	9	San Antonio Palopo	10	Octubre	2023-10-10T00:00:00	2024-11-08T00:00:00	1	Precipitación	0
12216	7	Sololá	712	San Antonio Palopó	9	San Antonio Palopo	10	Octubre	2023-10-10T00:00:00	2024-11-08T00:00:00	8	Radiación solar	0
12217	7	Sololá	712	San Antonio Palopó	9	San Antonio Palopo	10	Octubre	2023-10-10T00:00:00	2024-11-08T01:00:00	2	Temperatura media	19.2
12218	7	Sololá	712	San Antonio Palopó	9	San Antonio Palopo	10	Octubre	2023-10-10T00:00:00	2024-11-08T01:00:00	4	Temperatura máxima	19.2
12219	7	Sololá	712	San Antonio Palopó	9	San Antonio Palopo	10	Octubre	2023-10-10T00:00:00	2024-11-08T01:00:00	3	Temperatura mínima	18.6
12220	7	Sololá	712	San Antonio Palopó	9	San Antonio Palopo	10	Octubre	2023-10-10T00:00:00	2024-11-08T01:00:00	5	Humedad	84
12221	7	Sololá	712	San Antonio Palopó	9	San Antonio Palopo	10	Octubre	2023-10-10T00:00:00	2024-11-08T01:00:00	6	Velocidad del viento	1.6
12222	7	Sololá	712	San Antonio Palopó	9	San Antonio Palopo	10	Octubre	2023-10-10T00:00:00	2024-11-08T01:00:00	7	Dirección del viento	1.61
12223	7	Sololá	712	San Antonio Palopó	9	San Antonio Palopo	10	Octubre	2023-10-10T00:00:00	2024-11-08T01:00:00	1	Precipitación	0
12224	7	Sololá	712	San Antonio Palopó	9	San Antonio Palopo	10	Octubre	2023-10-10T00:00:00	2024-11-08T01:00:00	8	Radiación solar	0
12225	7	Sololá	712	San Antonio Palopó	9	San Antonio Palopo	10	Octubre	2023-10-10T00:00:00	2024-11-08T02:00:00	2	Temperatura media	19
12226	7	Sololá	712	San Antonio Palopó	9	San Antonio Palopo	10	Octubre	2023-10-10T00:00:00	2024-11-08T02:00:00	4	Temperatura máxima	19.4
12227	7	Sololá	712	San Antonio Palopó	9	San Antonio Palopo	10	Octubre	2023-10-10T00:00:00	2024-11-08T02:00:00	3	Temperatura mínima	18.8
12228	7	Sololá	712	San Antonio Palopó	9	San Antonio Palopo	10	Octubre	2023-10-10T00:00:00	2024-11-08T02:00:00	5	Humedad	85
12229	7	Sololá	712	San Antonio Palopó	9	San Antonio Palopo	10	Octubre	2023-10-10T00:00:00	2024-11-08T02:00:00	6	Velocidad del viento	3.2
12230	7	Sololá	712	San Antonio Palopó	9	San Antonio Palopo	10	Octubre	2023-10-10T00:00:00	2024-11-08T02:00:00	7	Dirección del viento	3.22
12231	7	Sololá	712	San Antonio Palopó	9	San Antonio Palopo	10	Octubre	2023-10-10T00:00:00	2024-11-08T02:00:00	1	Precipitación	0
12232	7	Sololá	712	San Antonio Palopó	9	San Antonio Palopo	10	Octubre	2023-10-10T00:00:00	2024-11-08T02:00:00	8	Radiación solar	0
12233	7	Sololá	712	San Antonio Palopó	9	San Antonio Palopo	10	Octubre	2023-10-10T00:00:00	2024-11-08T03:00:00	2	Temperatura media	18.9
12234	7	Sololá	712	San Antonio Palopó	9	San Antonio Palopo	10	Octubre	2023-10-10T00:00:00	2024-11-08T03:00:00	4	Temperatura máxima	19.1
12235	7	Sololá	712	San Antonio Palopó	9	San Antonio Palopo	10	Octubre	2023-10-10T00:00:00	2024-11-08T03:00:00	3	Temperatura mínima	18.6
12236	7	Sololá	712	San Antonio Palopó	9	San Antonio Palopo	10	Octubre	2023-10-10T00:00:00	2024-11-08T03:00:00	5	Humedad	83
12237	7	Sololá	712	San Antonio Palopó	9	San Antonio Palopo	10	Octubre	2023-10-10T00:00:00	2024-11-08T03:00:00	6	Velocidad del viento	3.2
12238	7	Sololá	712	San Antonio Palopó	9	San Antonio Palopo	10	Octubre	2023-10-10T00:00:00	2024-11-08T03:00:00	7	Dirección del viento	3.22
12239	7	Sololá	712	San Antonio Palopó	9	San Antonio Palopo	10	Octubre	2023-10-10T00:00:00	2024-11-08T03:00:00	1	Precipitación	0
12240	7	Sololá	712	San Antonio Palopó	9	San Antonio Palopo	10	Octubre	2023-10-10T00:00:00	2024-11-08T03:00:00	8	Radiación solar	0
12241	7	Sololá	712	San Antonio Palopó	9	San Antonio Palopo	10	Octubre	2023-10-10T00:00:00	2024-11-08T04:00:00	2	Temperatura media	18.4
12242	7	Sololá	712	San Antonio Palopó	9	San Antonio Palopo	10	Octubre	2023-10-10T00:00:00	2024-11-08T04:00:00	4	Temperatura máxima	19.1
12243	7	Sololá	712	San Antonio Palopó	9	San Antonio Palopo	10	Octubre	2023-10-10T00:00:00	2024-11-08T04:00:00	3	Temperatura mínima	18.1
12244	7	Sololá	712	San Antonio Palopó	9	San Antonio Palopo	10	Octubre	2023-10-10T00:00:00	2024-11-08T04:00:00	5	Humedad	86
12245	7	Sololá	712	San Antonio Palopó	9	San Antonio Palopo	10	Octubre	2023-10-10T00:00:00	2024-11-08T04:00:00	6	Velocidad del viento	3.2
12246	7	Sololá	712	San Antonio Palopó	9	San Antonio Palopo	10	Octubre	2023-10-10T00:00:00	2024-11-08T04:00:00	7	Dirección del viento	3.22
12247	7	Sololá	712	San Antonio Palopó	9	San Antonio Palopo	10	Octubre	2023-10-10T00:00:00	2024-11-08T04:00:00	1	Precipitación	0
12248	7	Sololá	712	San Antonio Palopó	9	San Antonio Palopo	10	Octubre	2023-10-10T00:00:00	2024-11-08T04:00:00	8	Radiación solar	0
12249	7	Sololá	712	San Antonio Palopó	9	San Antonio Palopo	10	Octubre	2023-10-10T00:00:00	2024-11-08T05:00:00	2	Temperatura media	18.4
12250	7	Sololá	712	San Antonio Palopó	9	San Antonio Palopo	10	Octubre	2023-10-10T00:00:00	2024-11-08T05:00:00	4	Temperatura máxima	19.1
12251	7	Sololá	712	San Antonio Palopó	9	San Antonio Palopo	10	Octubre	2023-10-10T00:00:00	2024-11-08T05:00:00	3	Temperatura mínima	18.3
12252	7	Sololá	712	San Antonio Palopó	9	San Antonio Palopo	10	Octubre	2023-10-10T00:00:00	2024-11-08T05:00:00	5	Humedad	85
12253	7	Sololá	712	San Antonio Palopó	9	San Antonio Palopo	10	Octubre	2023-10-10T00:00:00	2024-11-08T05:00:00	6	Velocidad del viento	3.2
12254	7	Sololá	712	San Antonio Palopó	9	San Antonio Palopo	10	Octubre	2023-10-10T00:00:00	2024-11-08T05:00:00	7	Dirección del viento	3.22
12255	7	Sololá	712	San Antonio Palopó	9	San Antonio Palopo	10	Octubre	2023-10-10T00:00:00	2024-11-08T05:00:00	1	Precipitación	0
12256	7	Sololá	712	San Antonio Palopó	9	San Antonio Palopo	10	Octubre	2023-10-10T00:00:00	2024-11-08T05:00:00	8	Radiación solar	0
12257	7	Sololá	712	San Antonio Palopó	9	San Antonio Palopo	10	Octubre	2023-10-10T00:00:00	2024-11-08T06:00:00	2	Temperatura media	18.3
12258	7	Sololá	712	San Antonio Palopó	9	San Antonio Palopo	10	Octubre	2023-10-10T00:00:00	2024-11-08T06:00:00	4	Temperatura máxima	18.4
12259	7	Sololá	712	San Antonio Palopó	9	San Antonio Palopo	10	Octubre	2023-10-10T00:00:00	2024-11-08T06:00:00	3	Temperatura mínima	18.1
12260	7	Sololá	712	San Antonio Palopó	9	San Antonio Palopo	10	Octubre	2023-10-10T00:00:00	2024-11-08T06:00:00	5	Humedad	86
12261	7	Sololá	712	San Antonio Palopó	9	San Antonio Palopo	10	Octubre	2023-10-10T00:00:00	2024-11-08T06:00:00	6	Velocidad del viento	3.2
12262	7	Sololá	712	San Antonio Palopó	9	San Antonio Palopo	10	Octubre	2023-10-10T00:00:00	2024-11-08T06:00:00	7	Dirección del viento	3.22
12263	7	Sololá	712	San Antonio Palopó	9	San Antonio Palopo	10	Octubre	2023-10-10T00:00:00	2024-11-08T06:00:00	1	Precipitación	0
12264	7	Sololá	712	San Antonio Palopó	9	San Antonio Palopo	10	Octubre	2023-10-10T00:00:00	2024-11-08T06:00:00	8	Radiación solar	0
12265	7	Sololá	712	San Antonio Palopó	9	San Antonio Palopo	10	Octubre	2023-10-10T00:00:00	2024-11-08T07:00:00	2	Temperatura media	18.8
12266	7	Sololá	712	San Antonio Palopó	9	San Antonio Palopo	10	Octubre	2023-10-10T00:00:00	2024-11-08T07:00:00	4	Temperatura máxima	18.8
12267	7	Sololá	712	San Antonio Palopó	9	San Antonio Palopo	10	Octubre	2023-10-10T00:00:00	2024-11-08T07:00:00	3	Temperatura mínima	18.3
12268	7	Sololá	712	San Antonio Palopó	9	San Antonio Palopo	10	Octubre	2023-10-10T00:00:00	2024-11-08T07:00:00	5	Humedad	85
12269	7	Sololá	712	San Antonio Palopó	9	San Antonio Palopo	10	Octubre	2023-10-10T00:00:00	2024-11-08T07:00:00	6	Velocidad del viento	3.2
12270	7	Sololá	712	San Antonio Palopó	9	San Antonio Palopo	10	Octubre	2023-10-10T00:00:00	2024-11-08T07:00:00	7	Dirección del viento	3.22
12271	7	Sololá	712	San Antonio Palopó	9	San Antonio Palopo	10	Octubre	2023-10-10T00:00:00	2024-11-08T07:00:00	1	Precipitación	0
12272	7	Sololá	712	San Antonio Palopó	9	San Antonio Palopo	10	Octubre	2023-10-10T00:00:00	2024-11-08T07:00:00	8	Radiación solar	38
12273	7	Sololá	712	San Antonio Palopó	9	San Antonio Palopo	10	Octubre	2023-10-10T00:00:00	2024-11-08T08:00:00	2	Temperatura media	20.7
12274	7	Sololá	712	San Antonio Palopó	9	San Antonio Palopo	10	Octubre	2023-10-10T00:00:00	2024-11-08T08:00:00	4	Temperatura máxima	20.7
12275	7	Sololá	712	San Antonio Palopó	9	San Antonio Palopo	10	Octubre	2023-10-10T00:00:00	2024-11-08T08:00:00	3	Temperatura mínima	18.7
12276	7	Sololá	712	San Antonio Palopó	9	San Antonio Palopo	10	Octubre	2023-10-10T00:00:00	2024-11-08T08:00:00	5	Humedad	80
12277	7	Sololá	712	San Antonio Palopó	9	San Antonio Palopo	10	Octubre	2023-10-10T00:00:00	2024-11-08T08:00:00	6	Velocidad del viento	1.6
12278	7	Sololá	712	San Antonio Palopó	9	San Antonio Palopo	10	Octubre	2023-10-10T00:00:00	2024-11-08T08:00:00	7	Dirección del viento	1.61
12279	7	Sololá	712	San Antonio Palopó	9	San Antonio Palopo	10	Octubre	2023-10-10T00:00:00	2024-11-08T08:00:00	1	Precipitación	0
12280	7	Sololá	712	San Antonio Palopó	9	San Antonio Palopo	10	Octubre	2023-10-10T00:00:00	2024-11-08T08:00:00	8	Radiación solar	174
12281	7	Sololá	712	San Antonio Palopó	9	San Antonio Palopo	10	Octubre	2023-10-10T00:00:00	2024-11-08T09:00:00	2	Temperatura media	21.3
12282	7	Sololá	712	San Antonio Palopó	9	San Antonio Palopo	10	Octubre	2023-10-10T00:00:00	2024-11-08T09:00:00	4	Temperatura máxima	22.1
12283	7	Sololá	712	San Antonio Palopó	9	San Antonio Palopo	10	Octubre	2023-10-10T00:00:00	2024-11-08T09:00:00	3	Temperatura mínima	20.7
12284	7	Sololá	712	San Antonio Palopó	9	San Antonio Palopo	10	Octubre	2023-10-10T00:00:00	2024-11-08T09:00:00	5	Humedad	79
12285	7	Sololá	712	San Antonio Palopó	9	San Antonio Palopo	10	Octubre	2023-10-10T00:00:00	2024-11-08T09:00:00	6	Velocidad del viento	1.6
12286	7	Sololá	712	San Antonio Palopó	9	San Antonio Palopo	10	Octubre	2023-10-10T00:00:00	2024-11-08T09:00:00	7	Dirección del viento	1.61
12287	7	Sololá	712	San Antonio Palopó	9	San Antonio Palopo	10	Octubre	2023-10-10T00:00:00	2024-11-08T09:00:00	1	Precipitación	0
12288	7	Sololá	712	San Antonio Palopó	9	San Antonio Palopo	10	Octubre	2023-10-10T00:00:00	2024-11-08T09:00:00	8	Radiación solar	520
12289	7	Sololá	712	San Antonio Palopó	9	San Antonio Palopo	10	Octubre	2023-10-10T00:00:00	2024-11-08T10:00:00	2	Temperatura media	23.1
12290	7	Sololá	712	San Antonio Palopó	9	San Antonio Palopo	10	Octubre	2023-10-10T00:00:00	2024-11-08T10:00:00	4	Temperatura máxima	23.2
12291	7	Sololá	712	San Antonio Palopó	9	San Antonio Palopo	10	Octubre	2023-10-10T00:00:00	2024-11-08T10:00:00	3	Temperatura mínima	21.2
12292	7	Sololá	712	San Antonio Palopó	9	San Antonio Palopo	10	Octubre	2023-10-10T00:00:00	2024-11-08T10:00:00	5	Humedad	74
12293	7	Sololá	712	San Antonio Palopó	9	San Antonio Palopo	10	Octubre	2023-10-10T00:00:00	2024-11-08T10:00:00	6	Velocidad del viento	3.2
12294	7	Sololá	712	San Antonio Palopó	9	San Antonio Palopo	10	Octubre	2023-10-10T00:00:00	2024-11-08T10:00:00	7	Dirección del viento	3.22
12295	7	Sololá	712	San Antonio Palopó	9	San Antonio Palopo	10	Octubre	2023-10-10T00:00:00	2024-11-08T10:00:00	1	Precipitación	0
12296	7	Sololá	712	San Antonio Palopó	9	San Antonio Palopo	10	Octubre	2023-10-10T00:00:00	2024-11-08T10:00:00	8	Radiación solar	701
12297	7	Sololá	712	San Antonio Palopó	9	San Antonio Palopo	10	Octubre	2023-10-10T00:00:00	2024-11-08T11:00:00	2	Temperatura media	24.1
12298	7	Sololá	712	San Antonio Palopó	9	San Antonio Palopo	10	Octubre	2023-10-10T00:00:00	2024-11-08T11:00:00	4	Temperatura máxima	24.2
12299	7	Sololá	712	San Antonio Palopó	9	San Antonio Palopo	10	Octubre	2023-10-10T00:00:00	2024-11-08T11:00:00	3	Temperatura mínima	22.6
12300	7	Sololá	712	San Antonio Palopó	9	San Antonio Palopo	10	Octubre	2023-10-10T00:00:00	2024-11-08T11:00:00	5	Humedad	77
12301	7	Sololá	712	San Antonio Palopó	9	San Antonio Palopo	10	Octubre	2023-10-10T00:00:00	2024-11-08T11:00:00	6	Velocidad del viento	4.8
12302	7	Sololá	712	San Antonio Palopó	9	San Antonio Palopo	10	Octubre	2023-10-10T00:00:00	2024-11-08T11:00:00	7	Dirección del viento	4.83
12303	7	Sololá	712	San Antonio Palopó	9	San Antonio Palopo	10	Octubre	2023-10-10T00:00:00	2024-11-08T11:00:00	1	Precipitación	0
12304	7	Sololá	712	San Antonio Palopó	9	San Antonio Palopo	10	Octubre	2023-10-10T00:00:00	2024-11-08T11:00:00	8	Radiación solar	855
12305	7	Sololá	712	San Antonio Palopó	9	San Antonio Palopo	10	Octubre	2023-10-10T00:00:00	2024-11-08T12:00:00	2	Temperatura media	22.8
12306	7	Sololá	712	San Antonio Palopó	9	San Antonio Palopo	10	Octubre	2023-10-10T00:00:00	2024-11-08T12:00:00	4	Temperatura máxima	24.1
12307	7	Sololá	712	San Antonio Palopó	9	San Antonio Palopo	10	Octubre	2023-10-10T00:00:00	2024-11-08T12:00:00	3	Temperatura mínima	22.8
12308	7	Sololá	712	San Antonio Palopó	9	San Antonio Palopo	10	Octubre	2023-10-10T00:00:00	2024-11-08T12:00:00	5	Humedad	77
12309	7	Sololá	712	San Antonio Palopó	9	San Antonio Palopo	10	Octubre	2023-10-10T00:00:00	2024-11-08T12:00:00	6	Velocidad del viento	9.7
12310	7	Sololá	712	San Antonio Palopó	9	San Antonio Palopo	10	Octubre	2023-10-10T00:00:00	2024-11-08T12:00:00	7	Dirección del viento	9.66
12311	7	Sololá	712	San Antonio Palopó	9	San Antonio Palopo	10	Octubre	2023-10-10T00:00:00	2024-11-08T12:00:00	1	Precipitación	0
12312	7	Sololá	712	San Antonio Palopó	9	San Antonio Palopo	10	Octubre	2023-10-10T00:00:00	2024-11-08T12:00:00	8	Radiación solar	626
12313	7	Sololá	712	San Antonio Palopó	9	San Antonio Palopo	10	Octubre	2023-10-10T00:00:00	2024-11-08T13:00:00	2	Temperatura media	23.5
12314	7	Sololá	712	San Antonio Palopó	9	San Antonio Palopo	10	Octubre	2023-10-10T00:00:00	2024-11-08T13:00:00	4	Temperatura máxima	23.9
12315	7	Sololá	712	San Antonio Palopó	9	San Antonio Palopo	10	Octubre	2023-10-10T00:00:00	2024-11-08T13:00:00	3	Temperatura mínima	22.6
12316	7	Sololá	712	San Antonio Palopó	9	San Antonio Palopo	10	Octubre	2023-10-10T00:00:00	2024-11-08T13:00:00	5	Humedad	75
12317	7	Sololá	712	San Antonio Palopó	9	San Antonio Palopo	10	Octubre	2023-10-10T00:00:00	2024-11-08T13:00:00	6	Velocidad del viento	11.3
12318	7	Sololá	712	San Antonio Palopó	9	San Antonio Palopo	10	Octubre	2023-10-10T00:00:00	2024-11-08T13:00:00	7	Dirección del viento	11.27
12319	7	Sololá	712	San Antonio Palopó	9	San Antonio Palopo	10	Octubre	2023-10-10T00:00:00	2024-11-08T13:00:00	1	Precipitación	0
12320	7	Sololá	712	San Antonio Palopó	9	San Antonio Palopo	10	Octubre	2023-10-10T00:00:00	2024-11-08T13:00:00	8	Radiación solar	971
12321	7	Sololá	712	San Antonio Palopó	9	San Antonio Palopo	10	Octubre	2023-10-10T00:00:00	2024-11-08T14:00:00	2	Temperatura media	22.7
12322	7	Sololá	712	San Antonio Palopó	9	San Antonio Palopo	10	Octubre	2023-10-10T00:00:00	2024-11-08T14:00:00	4	Temperatura máxima	23.8
12323	7	Sololá	712	San Antonio Palopó	9	San Antonio Palopo	10	Octubre	2023-10-10T00:00:00	2024-11-08T14:00:00	3	Temperatura mínima	22.6
12324	7	Sololá	712	San Antonio Palopó	9	San Antonio Palopo	10	Octubre	2023-10-10T00:00:00	2024-11-08T14:00:00	5	Humedad	79
12325	7	Sololá	712	San Antonio Palopó	9	San Antonio Palopo	10	Octubre	2023-10-10T00:00:00	2024-11-08T14:00:00	6	Velocidad del viento	9.7
12326	7	Sololá	712	San Antonio Palopó	9	San Antonio Palopo	10	Octubre	2023-10-10T00:00:00	2024-11-08T14:00:00	7	Dirección del viento	9.66
12327	7	Sololá	712	San Antonio Palopó	9	San Antonio Palopo	10	Octubre	2023-10-10T00:00:00	2024-11-08T14:00:00	1	Precipitación	0
12328	7	Sololá	712	San Antonio Palopó	9	San Antonio Palopo	10	Octubre	2023-10-10T00:00:00	2024-11-08T14:00:00	8	Radiación solar	636
12329	7	Sololá	712	San Antonio Palopó	9	San Antonio Palopo	10	Octubre	2023-10-10T00:00:00	2024-11-08T15:00:00	2	Temperatura media	22.9
12330	7	Sololá	712	San Antonio Palopó	9	San Antonio Palopo	10	Octubre	2023-10-10T00:00:00	2024-11-08T15:00:00	4	Temperatura máxima	23.4
12331	7	Sololá	712	San Antonio Palopó	9	San Antonio Palopo	10	Octubre	2023-10-10T00:00:00	2024-11-08T15:00:00	3	Temperatura mínima	22.6
12332	7	Sololá	712	San Antonio Palopó	9	San Antonio Palopo	10	Octubre	2023-10-10T00:00:00	2024-11-08T15:00:00	5	Humedad	79
12333	7	Sololá	712	San Antonio Palopó	9	San Antonio Palopo	10	Octubre	2023-10-10T00:00:00	2024-11-08T15:00:00	6	Velocidad del viento	8
12334	7	Sololá	712	San Antonio Palopó	9	San Antonio Palopo	10	Octubre	2023-10-10T00:00:00	2024-11-08T15:00:00	7	Dirección del viento	8.05
12335	7	Sololá	712	San Antonio Palopó	9	San Antonio Palopo	10	Octubre	2023-10-10T00:00:00	2024-11-08T15:00:00	1	Precipitación	0
12336	7	Sololá	712	San Antonio Palopó	9	San Antonio Palopo	10	Octubre	2023-10-10T00:00:00	2024-11-08T15:00:00	8	Radiación solar	415
12337	7	Sololá	712	San Antonio Palopó	9	San Antonio Palopo	10	Octubre	2023-10-10T00:00:00	2024-11-08T16:00:00	2	Temperatura media	22.2
12338	7	Sololá	712	San Antonio Palopó	9	San Antonio Palopo	10	Octubre	2023-10-10T00:00:00	2024-11-08T16:00:00	4	Temperatura máxima	22.9
12339	7	Sololá	712	San Antonio Palopó	9	San Antonio Palopo	10	Octubre	2023-10-10T00:00:00	2024-11-08T16:00:00	3	Temperatura mínima	22.1
12340	7	Sololá	712	San Antonio Palopó	9	San Antonio Palopo	10	Octubre	2023-10-10T00:00:00	2024-11-08T16:00:00	5	Humedad	81
12341	7	Sololá	712	San Antonio Palopó	9	San Antonio Palopo	10	Octubre	2023-10-10T00:00:00	2024-11-08T16:00:00	6	Velocidad del viento	6.4
12342	7	Sololá	712	San Antonio Palopó	9	San Antonio Palopo	10	Octubre	2023-10-10T00:00:00	2024-11-08T16:00:00	7	Dirección del viento	6.44
12343	7	Sololá	712	San Antonio Palopó	9	San Antonio Palopo	10	Octubre	2023-10-10T00:00:00	2024-11-08T16:00:00	1	Precipitación	0
12344	7	Sololá	712	San Antonio Palopó	9	San Antonio Palopo	10	Octubre	2023-10-10T00:00:00	2024-11-08T16:00:00	8	Radiación solar	277
12345	7	Sololá	712	San Antonio Palopó	9	San Antonio Palopo	10	Octubre	2023-10-10T00:00:00	2024-11-08T17:00:00	2	Temperatura media	20.1
12346	7	Sololá	712	San Antonio Palopó	9	San Antonio Palopo	10	Octubre	2023-10-10T00:00:00	2024-11-08T17:00:00	4	Temperatura máxima	22.3
12347	7	Sololá	712	San Antonio Palopó	9	San Antonio Palopo	10	Octubre	2023-10-10T00:00:00	2024-11-08T17:00:00	3	Temperatura mínima	20.1
12348	7	Sololá	712	San Antonio Palopó	9	San Antonio Palopo	10	Octubre	2023-10-10T00:00:00	2024-11-08T17:00:00	5	Humedad	88
12349	7	Sololá	712	San Antonio Palopó	9	San Antonio Palopo	10	Octubre	2023-10-10T00:00:00	2024-11-08T17:00:00	6	Velocidad del viento	6.4
12350	7	Sololá	712	San Antonio Palopó	9	San Antonio Palopo	10	Octubre	2023-10-10T00:00:00	2024-11-08T17:00:00	7	Dirección del viento	6.44
12351	7	Sololá	712	San Antonio Palopó	9	San Antonio Palopo	10	Octubre	2023-10-10T00:00:00	2024-11-08T17:00:00	1	Precipitación	0
12352	7	Sololá	712	San Antonio Palopó	9	San Antonio Palopo	10	Octubre	2023-10-10T00:00:00	2024-11-08T17:00:00	8	Radiación solar	59
12353	7	Sololá	712	San Antonio Palopó	9	San Antonio Palopo	10	Octubre	2023-10-10T00:00:00	2024-11-08T18:00:00	2	Temperatura media	20.6
12354	7	Sololá	712	San Antonio Palopó	9	San Antonio Palopo	10	Octubre	2023-10-10T00:00:00	2024-11-08T18:00:00	4	Temperatura máxima	20.6
12355	7	Sololá	712	San Antonio Palopó	9	San Antonio Palopo	10	Octubre	2023-10-10T00:00:00	2024-11-08T18:00:00	3	Temperatura mínima	20
12356	7	Sololá	712	San Antonio Palopó	9	San Antonio Palopo	10	Octubre	2023-10-10T00:00:00	2024-11-08T18:00:00	5	Humedad	83
12357	7	Sololá	712	San Antonio Palopó	9	San Antonio Palopo	10	Octubre	2023-10-10T00:00:00	2024-11-08T18:00:00	6	Velocidad del viento	3.2
12358	7	Sololá	712	San Antonio Palopó	9	San Antonio Palopo	10	Octubre	2023-10-10T00:00:00	2024-11-08T18:00:00	7	Dirección del viento	3.22
12359	7	Sololá	712	San Antonio Palopó	9	San Antonio Palopo	10	Octubre	2023-10-10T00:00:00	2024-11-08T18:00:00	1	Precipitación	0
12360	7	Sololá	712	San Antonio Palopó	9	San Antonio Palopo	10	Octubre	2023-10-10T00:00:00	2024-11-08T18:00:00	8	Radiación solar	3
12361	7	Sololá	712	San Antonio Palopó	9	San Antonio Palopo	10	Octubre	2023-10-10T00:00:00	2024-11-08T19:00:00	2	Temperatura media	20.4
12362	7	Sololá	712	San Antonio Palopó	9	San Antonio Palopo	10	Octubre	2023-10-10T00:00:00	2024-11-08T19:00:00	4	Temperatura máxima	20.7
12363	7	Sololá	712	San Antonio Palopó	9	San Antonio Palopo	10	Octubre	2023-10-10T00:00:00	2024-11-08T19:00:00	3	Temperatura mínima	20.4
12364	7	Sololá	712	San Antonio Palopó	9	San Antonio Palopo	10	Octubre	2023-10-10T00:00:00	2024-11-08T19:00:00	5	Humedad	83
12365	7	Sololá	712	San Antonio Palopó	9	San Antonio Palopo	10	Octubre	2023-10-10T00:00:00	2024-11-08T19:00:00	6	Velocidad del viento	3.2
12366	7	Sololá	712	San Antonio Palopó	9	San Antonio Palopo	10	Octubre	2023-10-10T00:00:00	2024-11-08T19:00:00	7	Dirección del viento	3.22
12367	7	Sololá	712	San Antonio Palopó	9	San Antonio Palopo	10	Octubre	2023-10-10T00:00:00	2024-11-08T19:00:00	1	Precipitación	0
12368	7	Sololá	712	San Antonio Palopó	9	San Antonio Palopo	10	Octubre	2023-10-10T00:00:00	2024-11-08T19:00:00	8	Radiación solar	0
12369	7	Sololá	712	San Antonio Palopó	9	San Antonio Palopo	10	Octubre	2023-10-10T00:00:00	2024-11-08T20:00:00	2	Temperatura media	19.9
12370	7	Sololá	712	San Antonio Palopó	9	San Antonio Palopo	10	Octubre	2023-10-10T00:00:00	2024-11-08T20:00:00	4	Temperatura máxima	20.6
12371	7	Sololá	712	San Antonio Palopó	9	San Antonio Palopo	10	Octubre	2023-10-10T00:00:00	2024-11-08T20:00:00	3	Temperatura mínima	19.8
12372	7	Sololá	712	San Antonio Palopó	9	San Antonio Palopo	10	Octubre	2023-10-10T00:00:00	2024-11-08T20:00:00	5	Humedad	85
12373	7	Sololá	712	San Antonio Palopó	9	San Antonio Palopo	10	Octubre	2023-10-10T00:00:00	2024-11-08T20:00:00	6	Velocidad del viento	1.6
12374	7	Sololá	712	San Antonio Palopó	9	San Antonio Palopo	10	Octubre	2023-10-10T00:00:00	2024-11-08T20:00:00	7	Dirección del viento	1.61
12375	7	Sololá	712	San Antonio Palopó	9	San Antonio Palopo	10	Octubre	2023-10-10T00:00:00	2024-11-08T20:00:00	1	Precipitación	0
12376	7	Sololá	712	San Antonio Palopó	9	San Antonio Palopo	10	Octubre	2023-10-10T00:00:00	2024-11-08T20:00:00	8	Radiación solar	0
12377	7	Sololá	712	San Antonio Palopó	9	San Antonio Palopo	10	Octubre	2023-10-10T00:00:00	2024-11-08T21:00:00	2	Temperatura media	19.5
12378	7	Sololá	712	San Antonio Palopó	9	San Antonio Palopo	10	Octubre	2023-10-10T00:00:00	2024-11-08T21:00:00	4	Temperatura máxima	19.9
12379	7	Sololá	712	San Antonio Palopó	9	San Antonio Palopo	10	Octubre	2023-10-10T00:00:00	2024-11-08T21:00:00	3	Temperatura mínima	19.4
12380	7	Sololá	712	San Antonio Palopó	9	San Antonio Palopo	10	Octubre	2023-10-10T00:00:00	2024-11-08T21:00:00	5	Humedad	86
12381	7	Sololá	712	San Antonio Palopó	9	San Antonio Palopo	10	Octubre	2023-10-10T00:00:00	2024-11-08T21:00:00	6	Velocidad del viento	1.6
12382	7	Sololá	712	San Antonio Palopó	9	San Antonio Palopo	10	Octubre	2023-10-10T00:00:00	2024-11-08T21:00:00	7	Dirección del viento	1.61
12383	7	Sololá	712	San Antonio Palopó	9	San Antonio Palopo	10	Octubre	2023-10-10T00:00:00	2024-11-08T21:00:00	1	Precipitación	0
12384	7	Sololá	712	San Antonio Palopó	9	San Antonio Palopo	10	Octubre	2023-10-10T00:00:00	2024-11-08T21:00:00	8	Radiación solar	0
12385	7	Sololá	712	San Antonio Palopó	9	San Antonio Palopo	10	Octubre	2023-10-10T00:00:00	2024-11-08T22:00:00	2	Temperatura media	19.7
12386	7	Sololá	712	San Antonio Palopó	9	San Antonio Palopo	10	Octubre	2023-10-10T00:00:00	2024-11-08T22:00:00	4	Temperatura máxima	19.8
12387	7	Sololá	712	San Antonio Palopó	9	San Antonio Palopo	10	Octubre	2023-10-10T00:00:00	2024-11-08T22:00:00	3	Temperatura mínima	19.3
12388	7	Sololá	712	San Antonio Palopó	9	San Antonio Palopo	10	Octubre	2023-10-10T00:00:00	2024-11-08T22:00:00	5	Humedad	85
12389	7	Sololá	712	San Antonio Palopó	9	San Antonio Palopo	10	Octubre	2023-10-10T00:00:00	2024-11-08T22:00:00	6	Velocidad del viento	1.6
12390	7	Sololá	712	San Antonio Palopó	9	San Antonio Palopo	10	Octubre	2023-10-10T00:00:00	2024-11-08T22:00:00	7	Dirección del viento	1.61
12391	7	Sololá	712	San Antonio Palopó	9	San Antonio Palopo	10	Octubre	2023-10-10T00:00:00	2024-11-08T22:00:00	1	Precipitación	0
12392	7	Sololá	712	San Antonio Palopó	9	San Antonio Palopo	10	Octubre	2023-10-10T00:00:00	2024-11-08T22:00:00	8	Radiación solar	0
12393	7	Sololá	712	San Antonio Palopó	9	San Antonio Palopo	10	Octubre	2023-10-10T00:00:00	2024-11-08T23:00:00	2	Temperatura media	19.8
12394	7	Sololá	712	San Antonio Palopó	9	San Antonio Palopo	10	Octubre	2023-10-10T00:00:00	2024-11-08T23:00:00	4	Temperatura máxima	20.1
12395	7	Sololá	712	San Antonio Palopó	9	San Antonio Palopo	10	Octubre	2023-10-10T00:00:00	2024-11-08T23:00:00	3	Temperatura mínima	19.7
12396	7	Sololá	712	San Antonio Palopó	9	San Antonio Palopo	10	Octubre	2023-10-10T00:00:00	2024-11-08T23:00:00	5	Humedad	85
12397	7	Sololá	712	San Antonio Palopó	9	San Antonio Palopo	10	Octubre	2023-10-10T00:00:00	2024-11-08T23:00:00	6	Velocidad del viento	3.2
12398	7	Sololá	712	San Antonio Palopó	9	San Antonio Palopo	10	Octubre	2023-10-10T00:00:00	2024-11-08T23:00:00	7	Dirección del viento	3.22
12399	7	Sololá	712	San Antonio Palopó	9	San Antonio Palopo	10	Octubre	2023-10-10T00:00:00	2024-11-08T23:00:00	1	Precipitación	0
12400	7	Sololá	712	San Antonio Palopó	9	San Antonio Palopo	10	Octubre	2023-10-10T00:00:00	2024-11-08T23:00:00	8	Radiación solar	0
12401	7	Sololá	712	San Antonio Palopó	9	San Antonio Palopo	10	Octubre	2023-11-10T00:00:00	2024-11-08T00:00:00	2	Temperatura media	19.6
12402	7	Sololá	712	San Antonio Palopó	9	San Antonio Palopo	10	Octubre	2023-11-10T00:00:00	2024-11-08T00:00:00	4	Temperatura máxima	19.8
12403	7	Sololá	712	San Antonio Palopó	9	San Antonio Palopo	10	Octubre	2023-11-10T00:00:00	2024-11-08T00:00:00	3	Temperatura mínima	19.6
12404	7	Sololá	712	San Antonio Palopó	9	San Antonio Palopo	10	Octubre	2023-11-10T00:00:00	2024-11-08T00:00:00	5	Humedad	86
12405	7	Sololá	712	San Antonio Palopó	9	San Antonio Palopo	10	Octubre	2023-11-10T00:00:00	2024-11-08T00:00:00	6	Velocidad del viento	3.2
12406	7	Sololá	712	San Antonio Palopó	9	San Antonio Palopo	10	Octubre	2023-11-10T00:00:00	2024-11-08T00:00:00	7	Dirección del viento	3.22
12407	7	Sololá	712	San Antonio Palopó	9	San Antonio Palopo	10	Octubre	2023-11-10T00:00:00	2024-11-08T00:00:00	1	Precipitación	0
12408	7	Sololá	712	San Antonio Palopó	9	San Antonio Palopo	10	Octubre	2023-11-10T00:00:00	2024-11-08T00:00:00	8	Radiación solar	0
12409	7	Sololá	712	San Antonio Palopó	9	San Antonio Palopo	10	Octubre	2023-11-10T00:00:00	2024-11-08T01:00:00	2	Temperatura media	19.4
12410	7	Sololá	712	San Antonio Palopó	9	San Antonio Palopo	10	Octubre	2023-11-10T00:00:00	2024-11-08T01:00:00	4	Temperatura máxima	19.7
12411	7	Sololá	712	San Antonio Palopó	9	San Antonio Palopo	10	Octubre	2023-11-10T00:00:00	2024-11-08T01:00:00	3	Temperatura mínima	19.4
12412	7	Sololá	712	San Antonio Palopó	9	San Antonio Palopo	10	Octubre	2023-11-10T00:00:00	2024-11-08T01:00:00	5	Humedad	88
12413	7	Sololá	712	San Antonio Palopó	9	San Antonio Palopo	10	Octubre	2023-11-10T00:00:00	2024-11-08T01:00:00	6	Velocidad del viento	3.2
12414	7	Sololá	712	San Antonio Palopó	9	San Antonio Palopo	10	Octubre	2023-11-10T00:00:00	2024-11-08T01:00:00	7	Dirección del viento	3.22
12415	7	Sololá	712	San Antonio Palopó	9	San Antonio Palopo	10	Octubre	2023-11-10T00:00:00	2024-11-08T01:00:00	1	Precipitación	0
12416	7	Sololá	712	San Antonio Palopó	9	San Antonio Palopo	10	Octubre	2023-11-10T00:00:00	2024-11-08T01:00:00	8	Radiación solar	0
12417	7	Sololá	712	San Antonio Palopó	9	San Antonio Palopo	10	Octubre	2023-11-10T00:00:00	2024-11-08T02:00:00	2	Temperatura media	19.4
12418	7	Sololá	712	San Antonio Palopó	9	San Antonio Palopo	10	Octubre	2023-11-10T00:00:00	2024-11-08T02:00:00	4	Temperatura máxima	19.4
12419	7	Sololá	712	San Antonio Palopó	9	San Antonio Palopo	10	Octubre	2023-11-10T00:00:00	2024-11-08T02:00:00	3	Temperatura mínima	19.2
12420	7	Sololá	712	San Antonio Palopó	9	San Antonio Palopo	10	Octubre	2023-11-10T00:00:00	2024-11-08T02:00:00	5	Humedad	86
12421	7	Sololá	712	San Antonio Palopó	9	San Antonio Palopo	10	Octubre	2023-11-10T00:00:00	2024-11-08T02:00:00	6	Velocidad del viento	0
12422	7	Sololá	712	San Antonio Palopó	9	San Antonio Palopo	10	Octubre	2023-11-10T00:00:00	2024-11-08T02:00:00	7	Dirección del viento	0
12423	7	Sololá	712	San Antonio Palopó	9	San Antonio Palopo	10	Octubre	2023-11-10T00:00:00	2024-11-08T02:00:00	1	Precipitación	0
12424	7	Sololá	712	San Antonio Palopó	9	San Antonio Palopo	10	Octubre	2023-11-10T00:00:00	2024-11-08T02:00:00	8	Radiación solar	0
12425	7	Sololá	712	San Antonio Palopó	9	San Antonio Palopo	10	Octubre	2023-11-10T00:00:00	2024-11-08T03:00:00	2	Temperatura media	18.8
12426	7	Sololá	712	San Antonio Palopó	9	San Antonio Palopo	10	Octubre	2023-11-10T00:00:00	2024-11-08T03:00:00	4	Temperatura máxima	19.4
12427	7	Sololá	712	San Antonio Palopó	9	San Antonio Palopo	10	Octubre	2023-11-10T00:00:00	2024-11-08T03:00:00	3	Temperatura mínima	18.8
12428	7	Sololá	712	San Antonio Palopó	9	San Antonio Palopo	10	Octubre	2023-11-10T00:00:00	2024-11-08T03:00:00	5	Humedad	87
12429	7	Sololá	712	San Antonio Palopó	9	San Antonio Palopo	10	Octubre	2023-11-10T00:00:00	2024-11-08T03:00:00	6	Velocidad del viento	1.6
12430	7	Sololá	712	San Antonio Palopó	9	San Antonio Palopo	10	Octubre	2023-11-10T00:00:00	2024-11-08T03:00:00	7	Dirección del viento	1.61
12431	7	Sololá	712	San Antonio Palopó	9	San Antonio Palopo	10	Octubre	2023-11-10T00:00:00	2024-11-08T03:00:00	1	Precipitación	0
12432	7	Sololá	712	San Antonio Palopó	9	San Antonio Palopo	10	Octubre	2023-11-10T00:00:00	2024-11-08T03:00:00	8	Radiación solar	0
12433	7	Sololá	712	San Antonio Palopó	9	San Antonio Palopo	10	Octubre	2023-11-10T00:00:00	2024-11-08T04:00:00	2	Temperatura media	19.2
12434	7	Sololá	712	San Antonio Palopó	9	San Antonio Palopo	10	Octubre	2023-11-10T00:00:00	2024-11-08T04:00:00	4	Temperatura máxima	19.3
12435	7	Sololá	712	San Antonio Palopó	9	San Antonio Palopo	10	Octubre	2023-11-10T00:00:00	2024-11-08T04:00:00	3	Temperatura mínima	18.8
12436	7	Sololá	712	San Antonio Palopó	9	San Antonio Palopo	10	Octubre	2023-11-10T00:00:00	2024-11-08T04:00:00	5	Humedad	87
12437	7	Sololá	712	San Antonio Palopó	9	San Antonio Palopo	10	Octubre	2023-11-10T00:00:00	2024-11-08T04:00:00	6	Velocidad del viento	3.2
12438	7	Sololá	712	San Antonio Palopó	9	San Antonio Palopo	10	Octubre	2023-11-10T00:00:00	2024-11-08T04:00:00	7	Dirección del viento	3.22
12439	7	Sololá	712	San Antonio Palopó	9	San Antonio Palopo	10	Octubre	2023-11-10T00:00:00	2024-11-08T04:00:00	1	Precipitación	0
12440	7	Sololá	712	San Antonio Palopó	9	San Antonio Palopo	10	Octubre	2023-11-10T00:00:00	2024-11-08T04:00:00	8	Radiación solar	0
12441	7	Sololá	712	San Antonio Palopó	9	San Antonio Palopo	10	Octubre	2023-11-10T00:00:00	2024-11-08T05:00:00	2	Temperatura media	18.8
12442	7	Sololá	712	San Antonio Palopó	9	San Antonio Palopo	10	Octubre	2023-11-10T00:00:00	2024-11-08T05:00:00	4	Temperatura máxima	19.3
12443	7	Sololá	712	San Antonio Palopó	9	San Antonio Palopo	10	Octubre	2023-11-10T00:00:00	2024-11-08T05:00:00	3	Temperatura mínima	18.8
12444	7	Sololá	712	San Antonio Palopó	9	San Antonio Palopo	10	Octubre	2023-11-10T00:00:00	2024-11-08T05:00:00	5	Humedad	88
12445	7	Sololá	712	San Antonio Palopó	9	San Antonio Palopo	10	Octubre	2023-11-10T00:00:00	2024-11-08T05:00:00	6	Velocidad del viento	3.2
12446	7	Sololá	712	San Antonio Palopó	9	San Antonio Palopo	10	Octubre	2023-11-10T00:00:00	2024-11-08T05:00:00	7	Dirección del viento	3.22
12447	7	Sololá	712	San Antonio Palopó	9	San Antonio Palopo	10	Octubre	2023-11-10T00:00:00	2024-11-08T05:00:00	1	Precipitación	0
12448	7	Sololá	712	San Antonio Palopó	9	San Antonio Palopo	10	Octubre	2023-11-10T00:00:00	2024-11-08T05:00:00	8	Radiación solar	0
12449	7	Sololá	712	San Antonio Palopó	9	San Antonio Palopo	10	Octubre	2023-11-10T00:00:00	2024-11-08T06:00:00	2	Temperatura media	18.7
12450	7	Sololá	712	San Antonio Palopó	9	San Antonio Palopo	10	Octubre	2023-11-10T00:00:00	2024-11-08T06:00:00	4	Temperatura máxima	18.9
12451	7	Sololá	712	San Antonio Palopó	9	San Antonio Palopo	10	Octubre	2023-11-10T00:00:00	2024-11-08T06:00:00	3	Temperatura mínima	18.6
12452	7	Sololá	712	San Antonio Palopó	9	San Antonio Palopo	10	Octubre	2023-11-10T00:00:00	2024-11-08T06:00:00	5	Humedad	89
12453	7	Sololá	712	San Antonio Palopó	9	San Antonio Palopo	10	Octubre	2023-11-10T00:00:00	2024-11-08T06:00:00	6	Velocidad del viento	1.6
12454	7	Sololá	712	San Antonio Palopó	9	San Antonio Palopo	10	Octubre	2023-11-10T00:00:00	2024-11-08T06:00:00	7	Dirección del viento	1.61
12455	7	Sololá	712	San Antonio Palopó	9	San Antonio Palopo	10	Octubre	2023-11-10T00:00:00	2024-11-08T06:00:00	1	Precipitación	0
12456	7	Sololá	712	San Antonio Palopó	9	San Antonio Palopo	10	Octubre	2023-11-10T00:00:00	2024-11-08T06:00:00	8	Radiación solar	0
12457	7	Sololá	712	San Antonio Palopó	9	San Antonio Palopo	10	Octubre	2023-11-10T00:00:00	2024-11-08T07:00:00	2	Temperatura media	19.4
12458	7	Sololá	712	San Antonio Palopó	9	San Antonio Palopo	10	Octubre	2023-11-10T00:00:00	2024-11-08T07:00:00	4	Temperatura máxima	19.4
12459	7	Sololá	712	San Antonio Palopó	9	San Antonio Palopo	10	Octubre	2023-11-10T00:00:00	2024-11-08T07:00:00	3	Temperatura mínima	18.6
12460	7	Sololá	712	San Antonio Palopó	9	San Antonio Palopo	10	Octubre	2023-11-10T00:00:00	2024-11-08T07:00:00	5	Humedad	86
12461	7	Sololá	712	San Antonio Palopó	9	San Antonio Palopo	10	Octubre	2023-11-10T00:00:00	2024-11-08T07:00:00	6	Velocidad del viento	0
12462	7	Sololá	712	San Antonio Palopó	9	San Antonio Palopo	10	Octubre	2023-11-10T00:00:00	2024-11-08T07:00:00	7	Dirección del viento	0
12463	7	Sololá	712	San Antonio Palopó	9	San Antonio Palopo	10	Octubre	2023-11-10T00:00:00	2024-11-08T07:00:00	1	Precipitación	0
12464	7	Sololá	712	San Antonio Palopó	9	San Antonio Palopo	10	Octubre	2023-11-10T00:00:00	2024-11-08T07:00:00	8	Radiación solar	36
12465	7	Sololá	712	San Antonio Palopó	9	San Antonio Palopo	10	Octubre	2023-11-10T00:00:00	2024-11-08T08:00:00	2	Temperatura media	20.5
12466	7	Sololá	712	San Antonio Palopó	9	San Antonio Palopo	10	Octubre	2023-11-10T00:00:00	2024-11-08T08:00:00	4	Temperatura máxima	20.5
12467	7	Sololá	712	San Antonio Palopó	9	San Antonio Palopo	10	Octubre	2023-11-10T00:00:00	2024-11-08T08:00:00	3	Temperatura mínima	19.4
12468	7	Sololá	712	San Antonio Palopó	9	San Antonio Palopo	10	Octubre	2023-11-10T00:00:00	2024-11-08T08:00:00	5	Humedad	84
12469	7	Sololá	712	San Antonio Palopó	9	San Antonio Palopo	10	Octubre	2023-11-10T00:00:00	2024-11-08T08:00:00	6	Velocidad del viento	1.6
12470	7	Sololá	712	San Antonio Palopó	9	San Antonio Palopo	10	Octubre	2023-11-10T00:00:00	2024-11-08T08:00:00	7	Dirección del viento	1.61
12471	7	Sololá	712	San Antonio Palopó	9	San Antonio Palopo	10	Octubre	2023-11-10T00:00:00	2024-11-08T08:00:00	1	Precipitación	0
12472	7	Sololá	712	San Antonio Palopó	9	San Antonio Palopo	10	Octubre	2023-11-10T00:00:00	2024-11-08T08:00:00	8	Radiación solar	118
12473	7	Sololá	712	San Antonio Palopó	9	San Antonio Palopo	10	Octubre	2023-11-10T00:00:00	2024-11-08T09:00:00	2	Temperatura media	21.3
12474	7	Sololá	712	San Antonio Palopó	9	San Antonio Palopo	10	Octubre	2023-11-10T00:00:00	2024-11-08T09:00:00	4	Temperatura máxima	21.9
12475	7	Sololá	712	San Antonio Palopó	9	San Antonio Palopo	10	Octubre	2023-11-10T00:00:00	2024-11-08T09:00:00	3	Temperatura mínima	20.5
12476	7	Sololá	712	San Antonio Palopó	9	San Antonio Palopo	10	Octubre	2023-11-10T00:00:00	2024-11-08T09:00:00	5	Humedad	80
12477	7	Sololá	712	San Antonio Palopó	9	San Antonio Palopo	10	Octubre	2023-11-10T00:00:00	2024-11-08T09:00:00	6	Velocidad del viento	1.6
12478	7	Sololá	712	San Antonio Palopó	9	San Antonio Palopo	10	Octubre	2023-11-10T00:00:00	2024-11-08T09:00:00	7	Dirección del viento	1.61
12479	7	Sololá	712	San Antonio Palopó	9	San Antonio Palopo	10	Octubre	2023-11-10T00:00:00	2024-11-08T09:00:00	1	Precipitación	0
12480	7	Sololá	712	San Antonio Palopó	9	San Antonio Palopo	10	Octubre	2023-11-10T00:00:00	2024-11-08T09:00:00	8	Radiación solar	373
12481	7	Sololá	712	San Antonio Palopó	9	San Antonio Palopo	10	Octubre	2023-11-10T00:00:00	2024-11-08T10:00:00	2	Temperatura media	21.7
12482	7	Sololá	712	San Antonio Palopó	9	San Antonio Palopo	10	Octubre	2023-11-10T00:00:00	2024-11-08T10:00:00	4	Temperatura máxima	21.9
12483	7	Sololá	712	San Antonio Palopó	9	San Antonio Palopo	10	Octubre	2023-11-10T00:00:00	2024-11-08T10:00:00	3	Temperatura mínima	21.3
12484	7	Sololá	712	San Antonio Palopó	9	San Antonio Palopo	10	Octubre	2023-11-10T00:00:00	2024-11-08T10:00:00	5	Humedad	78
12485	7	Sololá	712	San Antonio Palopó	9	San Antonio Palopo	10	Octubre	2023-11-10T00:00:00	2024-11-08T10:00:00	6	Velocidad del viento	3.2
12486	7	Sololá	712	San Antonio Palopó	9	San Antonio Palopo	10	Octubre	2023-11-10T00:00:00	2024-11-08T10:00:00	7	Dirección del viento	3.22
12487	7	Sololá	712	San Antonio Palopó	9	San Antonio Palopo	10	Octubre	2023-11-10T00:00:00	2024-11-08T10:00:00	1	Precipitación	0
12488	7	Sololá	712	San Antonio Palopó	9	San Antonio Palopo	10	Octubre	2023-11-10T00:00:00	2024-11-08T10:00:00	8	Radiación solar	640
12489	7	Sololá	712	San Antonio Palopó	9	San Antonio Palopo	10	Octubre	2023-11-10T00:00:00	2024-11-08T11:00:00	2	Temperatura media	22.8
12490	7	Sololá	712	San Antonio Palopó	9	San Antonio Palopo	10	Octubre	2023-11-10T00:00:00	2024-11-08T11:00:00	4	Temperatura máxima	22.8
12491	7	Sololá	712	San Antonio Palopó	9	San Antonio Palopo	10	Octubre	2023-11-10T00:00:00	2024-11-08T11:00:00	3	Temperatura mínima	21.6
12492	7	Sololá	712	San Antonio Palopó	9	San Antonio Palopo	10	Octubre	2023-11-10T00:00:00	2024-11-08T11:00:00	5	Humedad	77
12493	7	Sololá	712	San Antonio Palopó	9	San Antonio Palopo	10	Octubre	2023-11-10T00:00:00	2024-11-08T11:00:00	6	Velocidad del viento	3.2
12494	7	Sololá	712	San Antonio Palopó	9	San Antonio Palopo	10	Octubre	2023-11-10T00:00:00	2024-11-08T11:00:00	7	Dirección del viento	3.22
12495	7	Sololá	712	San Antonio Palopó	9	San Antonio Palopo	10	Octubre	2023-11-10T00:00:00	2024-11-08T11:00:00	1	Precipitación	0
12496	7	Sololá	712	San Antonio Palopó	9	San Antonio Palopo	10	Octubre	2023-11-10T00:00:00	2024-11-08T11:00:00	8	Radiación solar	347
12497	7	Sololá	712	San Antonio Palopó	9	San Antonio Palopo	10	Octubre	2023-11-10T00:00:00	2024-11-08T12:00:00	2	Temperatura media	22.7
12498	7	Sololá	712	San Antonio Palopó	9	San Antonio Palopo	10	Octubre	2023-11-10T00:00:00	2024-11-08T12:00:00	4	Temperatura máxima	23.3
12499	7	Sololá	712	San Antonio Palopó	9	San Antonio Palopo	10	Octubre	2023-11-10T00:00:00	2024-11-08T12:00:00	3	Temperatura mínima	22.7
12500	7	Sololá	712	San Antonio Palopó	9	San Antonio Palopo	10	Octubre	2023-11-10T00:00:00	2024-11-08T12:00:00	5	Humedad	79
12501	7	Sololá	712	San Antonio Palopó	9	San Antonio Palopo	10	Octubre	2023-11-10T00:00:00	2024-11-08T12:00:00	6	Velocidad del viento	4.8
12502	7	Sololá	712	San Antonio Palopó	9	San Antonio Palopo	10	Octubre	2023-11-10T00:00:00	2024-11-08T12:00:00	7	Dirección del viento	4.83
12503	7	Sololá	712	San Antonio Palopó	9	San Antonio Palopo	10	Octubre	2023-11-10T00:00:00	2024-11-08T12:00:00	1	Precipitación	0
12504	7	Sololá	712	San Antonio Palopó	9	San Antonio Palopo	10	Octubre	2023-11-10T00:00:00	2024-11-08T12:00:00	8	Radiación solar	609
12505	7	Sololá	712	San Antonio Palopó	9	San Antonio Palopo	10	Octubre	2023-11-10T00:00:00	2024-11-08T13:00:00	2	Temperatura media	24.1
12506	7	Sololá	712	San Antonio Palopó	9	San Antonio Palopo	10	Octubre	2023-11-10T00:00:00	2024-11-08T13:00:00	4	Temperatura máxima	24.3
12507	7	Sololá	712	San Antonio Palopó	9	San Antonio Palopo	10	Octubre	2023-11-10T00:00:00	2024-11-08T13:00:00	3	Temperatura mínima	22.1
12508	7	Sololá	712	San Antonio Palopó	9	San Antonio Palopo	10	Octubre	2023-11-10T00:00:00	2024-11-08T13:00:00	5	Humedad	77
12509	7	Sololá	712	San Antonio Palopó	9	San Antonio Palopo	10	Octubre	2023-11-10T00:00:00	2024-11-08T13:00:00	6	Velocidad del viento	6.4
12510	7	Sololá	712	San Antonio Palopó	9	San Antonio Palopo	10	Octubre	2023-11-10T00:00:00	2024-11-08T13:00:00	7	Dirección del viento	6.44
12511	7	Sololá	712	San Antonio Palopó	9	San Antonio Palopo	10	Octubre	2023-11-10T00:00:00	2024-11-08T13:00:00	1	Precipitación	0
12512	7	Sololá	712	San Antonio Palopó	9	San Antonio Palopo	10	Octubre	2023-11-10T00:00:00	2024-11-08T13:00:00	8	Radiación solar	839
12513	7	Sololá	712	San Antonio Palopó	9	San Antonio Palopo	10	Octubre	2023-11-10T00:00:00	2024-11-08T14:00:00	2	Temperatura media	21.5
12514	7	Sololá	712	San Antonio Palopó	9	San Antonio Palopo	10	Octubre	2023-11-10T00:00:00	2024-11-08T14:00:00	4	Temperatura máxima	24.1
12515	7	Sololá	712	San Antonio Palopó	9	San Antonio Palopo	10	Octubre	2023-11-10T00:00:00	2024-11-08T14:00:00	3	Temperatura mínima	21.1
12516	7	Sololá	712	San Antonio Palopó	9	San Antonio Palopo	10	Octubre	2023-11-10T00:00:00	2024-11-08T14:00:00	5	Humedad	81
12517	7	Sololá	712	San Antonio Palopó	9	San Antonio Palopo	10	Octubre	2023-11-10T00:00:00	2024-11-08T14:00:00	6	Velocidad del viento	8
12518	7	Sololá	712	San Antonio Palopó	9	San Antonio Palopo	10	Octubre	2023-11-10T00:00:00	2024-11-08T14:00:00	7	Dirección del viento	8.05
12519	7	Sololá	712	San Antonio Palopó	9	San Antonio Palopo	10	Octubre	2023-11-10T00:00:00	2024-11-08T14:00:00	1	Precipitación	0
12520	7	Sololá	712	San Antonio Palopó	9	San Antonio Palopo	10	Octubre	2023-11-10T00:00:00	2024-11-08T14:00:00	8	Radiación solar	278
12521	7	Sololá	712	San Antonio Palopó	9	San Antonio Palopo	10	Octubre	2023-11-10T00:00:00	2024-11-08T15:00:00	2	Temperatura media	21.1
12522	7	Sololá	712	San Antonio Palopó	9	San Antonio Palopo	10	Octubre	2023-11-10T00:00:00	2024-11-08T15:00:00	4	Temperatura máxima	22.1
12523	7	Sololá	712	San Antonio Palopó	9	San Antonio Palopo	10	Octubre	2023-11-10T00:00:00	2024-11-08T15:00:00	3	Temperatura mínima	21.1
12524	7	Sololá	712	San Antonio Palopó	9	San Antonio Palopo	10	Octubre	2023-11-10T00:00:00	2024-11-08T15:00:00	5	Humedad	84
12525	7	Sololá	712	San Antonio Palopó	9	San Antonio Palopo	10	Octubre	2023-11-10T00:00:00	2024-11-08T15:00:00	6	Velocidad del viento	3.2
12526	7	Sololá	712	San Antonio Palopó	9	San Antonio Palopo	10	Octubre	2023-11-10T00:00:00	2024-11-08T15:00:00	7	Dirección del viento	3.22
12527	7	Sololá	712	San Antonio Palopó	9	San Antonio Palopo	10	Octubre	2023-11-10T00:00:00	2024-11-08T15:00:00	1	Precipitación	0
12528	7	Sololá	712	San Antonio Palopó	9	San Antonio Palopo	10	Octubre	2023-11-10T00:00:00	2024-11-08T15:00:00	8	Radiación solar	155
12529	7	Sololá	712	San Antonio Palopó	9	San Antonio Palopo	10	Octubre	2023-11-10T00:00:00	2024-11-08T16:00:00	2	Temperatura media	21.3
12530	7	Sololá	712	San Antonio Palopó	9	San Antonio Palopo	10	Octubre	2023-11-10T00:00:00	2024-11-08T16:00:00	4	Temperatura máxima	21.3
12531	7	Sololá	712	San Antonio Palopó	9	San Antonio Palopo	10	Octubre	2023-11-10T00:00:00	2024-11-08T16:00:00	3	Temperatura mínima	21.1
12532	7	Sololá	712	San Antonio Palopó	9	San Antonio Palopo	10	Octubre	2023-11-10T00:00:00	2024-11-08T16:00:00	5	Humedad	82
12533	7	Sololá	712	San Antonio Palopó	9	San Antonio Palopo	10	Octubre	2023-11-10T00:00:00	2024-11-08T16:00:00	6	Velocidad del viento	3.2
12534	7	Sololá	712	San Antonio Palopó	9	San Antonio Palopo	10	Octubre	2023-11-10T00:00:00	2024-11-08T16:00:00	7	Dirección del viento	3.22
12535	7	Sololá	712	San Antonio Palopó	9	San Antonio Palopo	10	Octubre	2023-11-10T00:00:00	2024-11-08T16:00:00	1	Precipitación	0
12536	7	Sololá	712	San Antonio Palopó	9	San Antonio Palopo	10	Octubre	2023-11-10T00:00:00	2024-11-08T16:00:00	8	Radiación solar	40
12537	7	Sololá	712	San Antonio Palopó	9	San Antonio Palopo	10	Octubre	2023-11-10T00:00:00	2024-11-08T17:00:00	2	Temperatura media	20.5
12538	7	Sololá	712	San Antonio Palopó	9	San Antonio Palopo	10	Octubre	2023-11-10T00:00:00	2024-11-08T17:00:00	4	Temperatura máxima	21.3
12539	7	Sololá	712	San Antonio Palopó	9	San Antonio Palopo	10	Octubre	2023-11-10T00:00:00	2024-11-08T17:00:00	3	Temperatura mínima	20.5
12540	7	Sololá	712	San Antonio Palopó	9	San Antonio Palopo	10	Octubre	2023-11-10T00:00:00	2024-11-08T17:00:00	5	Humedad	85
12541	7	Sololá	712	San Antonio Palopó	9	San Antonio Palopo	10	Octubre	2023-11-10T00:00:00	2024-11-08T17:00:00	6	Velocidad del viento	4.8
12542	7	Sololá	712	San Antonio Palopó	9	San Antonio Palopo	10	Octubre	2023-11-10T00:00:00	2024-11-08T17:00:00	7	Dirección del viento	4.83
12543	7	Sololá	712	San Antonio Palopó	9	San Antonio Palopo	10	Octubre	2023-11-10T00:00:00	2024-11-08T17:00:00	1	Precipitación	0
12544	7	Sololá	712	San Antonio Palopó	9	San Antonio Palopo	10	Octubre	2023-11-10T00:00:00	2024-11-08T17:00:00	8	Radiación solar	14
12545	7	Sololá	712	San Antonio Palopó	9	San Antonio Palopo	10	Octubre	2023-11-10T00:00:00	2024-11-08T18:00:00	2	Temperatura media	20.3
12546	7	Sololá	712	San Antonio Palopó	9	San Antonio Palopo	10	Octubre	2023-11-10T00:00:00	2024-11-08T18:00:00	4	Temperatura máxima	20.8
12547	7	Sololá	712	San Antonio Palopó	9	San Antonio Palopo	10	Octubre	2023-11-10T00:00:00	2024-11-08T18:00:00	3	Temperatura mínima	20.3
12548	7	Sololá	712	San Antonio Palopó	9	San Antonio Palopo	10	Octubre	2023-11-10T00:00:00	2024-11-08T18:00:00	5	Humedad	86
12549	7	Sololá	712	San Antonio Palopó	9	San Antonio Palopo	10	Octubre	2023-11-10T00:00:00	2024-11-08T18:00:00	6	Velocidad del viento	3.2
12550	7	Sololá	712	San Antonio Palopó	9	San Antonio Palopo	10	Octubre	2023-11-10T00:00:00	2024-11-08T18:00:00	7	Dirección del viento	3.22
12551	7	Sololá	712	San Antonio Palopó	9	San Antonio Palopo	10	Octubre	2023-11-10T00:00:00	2024-11-08T18:00:00	1	Precipitación	0
12552	7	Sololá	712	San Antonio Palopó	9	San Antonio Palopo	10	Octubre	2023-11-10T00:00:00	2024-11-08T18:00:00	8	Radiación solar	3
12553	7	Sololá	712	San Antonio Palopó	9	San Antonio Palopo	10	Octubre	2023-11-10T00:00:00	2024-11-08T19:00:00	2	Temperatura media	19.9
12554	7	Sololá	712	San Antonio Palopó	9	San Antonio Palopo	10	Octubre	2023-11-10T00:00:00	2024-11-08T19:00:00	4	Temperatura máxima	20.4
12555	7	Sololá	712	San Antonio Palopó	9	San Antonio Palopo	10	Octubre	2023-11-10T00:00:00	2024-11-08T19:00:00	3	Temperatura mínima	19.9
12556	7	Sololá	712	San Antonio Palopó	9	San Antonio Palopo	10	Octubre	2023-11-10T00:00:00	2024-11-08T19:00:00	5	Humedad	89
12557	7	Sololá	712	San Antonio Palopó	9	San Antonio Palopo	10	Octubre	2023-11-10T00:00:00	2024-11-08T19:00:00	6	Velocidad del viento	4.8
12558	7	Sololá	712	San Antonio Palopó	9	San Antonio Palopo	10	Octubre	2023-11-10T00:00:00	2024-11-08T19:00:00	7	Dirección del viento	4.83
12559	7	Sololá	712	San Antonio Palopó	9	San Antonio Palopo	10	Octubre	2023-11-10T00:00:00	2024-11-08T19:00:00	1	Precipitación	0
12560	7	Sololá	712	San Antonio Palopó	9	San Antonio Palopo	10	Octubre	2023-11-10T00:00:00	2024-11-08T19:00:00	8	Radiación solar	0
12561	7	Sololá	712	San Antonio Palopó	9	San Antonio Palopo	10	Octubre	2023-11-10T00:00:00	2024-11-08T20:00:00	2	Temperatura media	19.6
12562	7	Sololá	712	San Antonio Palopó	9	San Antonio Palopo	10	Octubre	2023-11-10T00:00:00	2024-11-08T20:00:00	4	Temperatura máxima	19.9
12563	7	Sololá	712	San Antonio Palopó	9	San Antonio Palopo	10	Octubre	2023-11-10T00:00:00	2024-11-08T20:00:00	3	Temperatura mínima	19.4
12564	7	Sololá	712	San Antonio Palopó	9	San Antonio Palopo	10	Octubre	2023-11-10T00:00:00	2024-11-08T20:00:00	5	Humedad	89
12565	7	Sololá	712	San Antonio Palopó	9	San Antonio Palopo	10	Octubre	2023-11-10T00:00:00	2024-11-08T20:00:00	6	Velocidad del viento	4.8
12566	7	Sololá	712	San Antonio Palopó	9	San Antonio Palopo	10	Octubre	2023-11-10T00:00:00	2024-11-08T20:00:00	7	Dirección del viento	4.83
12567	7	Sololá	712	San Antonio Palopó	9	San Antonio Palopo	10	Octubre	2023-11-10T00:00:00	2024-11-08T20:00:00	1	Precipitación	0.6
12568	7	Sololá	712	San Antonio Palopó	9	San Antonio Palopo	10	Octubre	2023-11-10T00:00:00	2024-11-08T20:00:00	8	Radiación solar	0
12569	7	Sololá	712	San Antonio Palopó	9	San Antonio Palopo	10	Octubre	2023-11-10T00:00:00	2024-11-08T21:00:00	2	Temperatura media	19.3
12570	7	Sololá	712	San Antonio Palopó	9	San Antonio Palopo	10	Octubre	2023-11-10T00:00:00	2024-11-08T21:00:00	4	Temperatura máxima	19.6
12571	7	Sololá	712	San Antonio Palopó	9	San Antonio Palopo	10	Octubre	2023-11-10T00:00:00	2024-11-08T21:00:00	3	Temperatura mínima	19.1
12572	7	Sololá	712	San Antonio Palopó	9	San Antonio Palopo	10	Octubre	2023-11-10T00:00:00	2024-11-08T21:00:00	5	Humedad	89
12573	7	Sololá	712	San Antonio Palopó	9	San Antonio Palopo	10	Octubre	2023-11-10T00:00:00	2024-11-08T21:00:00	6	Velocidad del viento	3.2
12574	7	Sololá	712	San Antonio Palopó	9	San Antonio Palopo	10	Octubre	2023-11-10T00:00:00	2024-11-08T21:00:00	7	Dirección del viento	3.22
12575	7	Sololá	712	San Antonio Palopó	9	San Antonio Palopo	10	Octubre	2023-11-10T00:00:00	2024-11-08T21:00:00	1	Precipitación	3.2
12576	7	Sololá	712	San Antonio Palopó	9	San Antonio Palopo	10	Octubre	2023-11-10T00:00:00	2024-11-08T21:00:00	8	Radiación solar	0
12577	7	Sololá	712	San Antonio Palopó	9	San Antonio Palopo	10	Octubre	2023-11-10T00:00:00	2024-11-08T22:00:00	2	Temperatura media	19.2
12578	7	Sololá	712	San Antonio Palopó	9	San Antonio Palopo	10	Octubre	2023-11-10T00:00:00	2024-11-08T22:00:00	4	Temperatura máxima	19.3
12579	7	Sololá	712	San Antonio Palopó	9	San Antonio Palopo	10	Octubre	2023-11-10T00:00:00	2024-11-08T22:00:00	3	Temperatura mínima	18.8
12580	7	Sololá	712	San Antonio Palopó	9	San Antonio Palopo	10	Octubre	2023-11-10T00:00:00	2024-11-08T22:00:00	5	Humedad	89
12581	7	Sololá	712	San Antonio Palopó	9	San Antonio Palopo	10	Octubre	2023-11-10T00:00:00	2024-11-08T22:00:00	6	Velocidad del viento	1.6
12582	7	Sololá	712	San Antonio Palopó	9	San Antonio Palopo	10	Octubre	2023-11-10T00:00:00	2024-11-08T22:00:00	7	Dirección del viento	1.61
12583	7	Sololá	712	San Antonio Palopó	9	San Antonio Palopo	10	Octubre	2023-11-10T00:00:00	2024-11-08T22:00:00	1	Precipitación	0
12584	7	Sololá	712	San Antonio Palopó	9	San Antonio Palopo	10	Octubre	2023-11-10T00:00:00	2024-11-08T22:00:00	8	Radiación solar	0
12585	7	Sololá	712	San Antonio Palopó	9	San Antonio Palopo	10	Octubre	2023-11-10T00:00:00	2024-11-08T23:00:00	2	Temperatura media	19.3
12586	7	Sololá	712	San Antonio Palopó	9	San Antonio Palopo	10	Octubre	2023-11-10T00:00:00	2024-11-08T23:00:00	4	Temperatura máxima	19.4
12587	7	Sololá	712	San Antonio Palopó	9	San Antonio Palopo	10	Octubre	2023-11-10T00:00:00	2024-11-08T23:00:00	3	Temperatura mínima	19
12588	7	Sololá	712	San Antonio Palopó	9	San Antonio Palopo	10	Octubre	2023-11-10T00:00:00	2024-11-08T23:00:00	5	Humedad	90
12589	7	Sololá	712	San Antonio Palopó	9	San Antonio Palopo	10	Octubre	2023-11-10T00:00:00	2024-11-08T23:00:00	6	Velocidad del viento	3.2
12590	7	Sololá	712	San Antonio Palopó	9	San Antonio Palopo	10	Octubre	2023-11-10T00:00:00	2024-11-08T23:00:00	7	Dirección del viento	3.22
12591	7	Sololá	712	San Antonio Palopó	9	San Antonio Palopo	10	Octubre	2023-11-10T00:00:00	2024-11-08T23:00:00	1	Precipitación	0
12592	7	Sololá	712	San Antonio Palopó	9	San Antonio Palopo	10	Octubre	2023-11-10T00:00:00	2024-11-08T23:00:00	8	Radiación solar	0
12593	7	Sololá	712	San Antonio Palopó	9	San Antonio Palopo	10	Octubre	2023-12-10T00:00:00	2024-11-08T00:00:00	2	Temperatura media	19.3
12594	7	Sololá	712	San Antonio Palopó	9	San Antonio Palopo	10	Octubre	2023-12-10T00:00:00	2024-11-08T00:00:00	4	Temperatura máxima	19.4
12595	7	Sololá	712	San Antonio Palopó	9	San Antonio Palopo	10	Octubre	2023-12-10T00:00:00	2024-11-08T00:00:00	3	Temperatura mínima	19.1
12596	7	Sololá	712	San Antonio Palopó	9	San Antonio Palopo	10	Octubre	2023-12-10T00:00:00	2024-11-08T00:00:00	5	Humedad	88
12597	7	Sololá	712	San Antonio Palopó	9	San Antonio Palopo	10	Octubre	2023-12-10T00:00:00	2024-11-08T00:00:00	6	Velocidad del viento	1.6
12598	7	Sololá	712	San Antonio Palopó	9	San Antonio Palopo	10	Octubre	2023-12-10T00:00:00	2024-11-08T00:00:00	7	Dirección del viento	1.61
12599	7	Sololá	712	San Antonio Palopó	9	San Antonio Palopo	10	Octubre	2023-12-10T00:00:00	2024-11-08T00:00:00	1	Precipitación	0.2
12600	7	Sololá	712	San Antonio Palopó	9	San Antonio Palopo	10	Octubre	2023-12-10T00:00:00	2024-11-08T00:00:00	8	Radiación solar	0
12601	7	Sololá	712	San Antonio Palopó	9	San Antonio Palopo	10	Octubre	2023-12-10T00:00:00	2024-11-08T01:00:00	2	Temperatura media	19
12602	7	Sololá	712	San Antonio Palopó	9	San Antonio Palopo	10	Octubre	2023-12-10T00:00:00	2024-11-08T01:00:00	4	Temperatura máxima	19.3
12603	7	Sololá	712	San Antonio Palopó	9	San Antonio Palopo	10	Octubre	2023-12-10T00:00:00	2024-11-08T01:00:00	3	Temperatura mínima	18.9
12604	7	Sololá	712	San Antonio Palopó	9	San Antonio Palopo	10	Octubre	2023-12-10T00:00:00	2024-11-08T01:00:00	5	Humedad	91
12605	7	Sololá	712	San Antonio Palopó	9	San Antonio Palopo	10	Octubre	2023-12-10T00:00:00	2024-11-08T01:00:00	6	Velocidad del viento	1.6
12606	7	Sololá	712	San Antonio Palopó	9	San Antonio Palopo	10	Octubre	2023-12-10T00:00:00	2024-11-08T01:00:00	7	Dirección del viento	1.61
12607	7	Sololá	712	San Antonio Palopó	9	San Antonio Palopo	10	Octubre	2023-12-10T00:00:00	2024-11-08T01:00:00	1	Precipitación	0
12608	7	Sololá	712	San Antonio Palopó	9	San Antonio Palopo	10	Octubre	2023-12-10T00:00:00	2024-11-08T01:00:00	8	Radiación solar	0
12609	7	Sololá	712	San Antonio Palopó	9	San Antonio Palopo	10	Octubre	2023-12-10T00:00:00	2024-11-08T02:00:00	2	Temperatura media	18.9
12610	7	Sololá	712	San Antonio Palopó	9	San Antonio Palopo	10	Octubre	2023-12-10T00:00:00	2024-11-08T02:00:00	4	Temperatura máxima	19
12611	7	Sololá	712	San Antonio Palopó	9	San Antonio Palopo	10	Octubre	2023-12-10T00:00:00	2024-11-08T02:00:00	3	Temperatura mínima	18.9
12612	7	Sololá	712	San Antonio Palopó	9	San Antonio Palopo	10	Octubre	2023-12-10T00:00:00	2024-11-08T02:00:00	5	Humedad	92
12613	7	Sololá	712	San Antonio Palopó	9	San Antonio Palopo	10	Octubre	2023-12-10T00:00:00	2024-11-08T02:00:00	6	Velocidad del viento	1.6
12614	7	Sololá	712	San Antonio Palopó	9	San Antonio Palopo	10	Octubre	2023-12-10T00:00:00	2024-11-08T02:00:00	7	Dirección del viento	1.61
12615	7	Sololá	712	San Antonio Palopó	9	San Antonio Palopo	10	Octubre	2023-12-10T00:00:00	2024-11-08T02:00:00	1	Precipitación	0
12616	7	Sololá	712	San Antonio Palopó	9	San Antonio Palopo	10	Octubre	2023-12-10T00:00:00	2024-11-08T02:00:00	8	Radiación solar	0
12617	7	Sololá	712	San Antonio Palopó	9	San Antonio Palopo	10	Octubre	2023-12-10T00:00:00	2024-11-08T03:00:00	2	Temperatura media	18.8
12618	7	Sololá	712	San Antonio Palopó	9	San Antonio Palopo	10	Octubre	2023-12-10T00:00:00	2024-11-08T03:00:00	4	Temperatura máxima	18.9
12619	7	Sololá	712	San Antonio Palopó	9	San Antonio Palopo	10	Octubre	2023-12-10T00:00:00	2024-11-08T03:00:00	3	Temperatura mínima	18.8
12620	7	Sololá	712	San Antonio Palopó	9	San Antonio Palopo	10	Octubre	2023-12-10T00:00:00	2024-11-08T03:00:00	5	Humedad	90
12621	7	Sololá	712	San Antonio Palopó	9	San Antonio Palopo	10	Octubre	2023-12-10T00:00:00	2024-11-08T03:00:00	6	Velocidad del viento	1.6
12622	7	Sololá	712	San Antonio Palopó	9	San Antonio Palopo	10	Octubre	2023-12-10T00:00:00	2024-11-08T03:00:00	7	Dirección del viento	1.61
12623	7	Sololá	712	San Antonio Palopó	9	San Antonio Palopo	10	Octubre	2023-12-10T00:00:00	2024-11-08T03:00:00	1	Precipitación	0.2
12624	7	Sololá	712	San Antonio Palopó	9	San Antonio Palopo	10	Octubre	2023-12-10T00:00:00	2024-11-08T03:00:00	8	Radiación solar	0
12625	7	Sololá	712	San Antonio Palopó	9	San Antonio Palopo	10	Octubre	2023-12-10T00:00:00	2024-11-08T04:00:00	2	Temperatura media	18.6
12626	7	Sololá	712	San Antonio Palopó	9	San Antonio Palopo	10	Octubre	2023-12-10T00:00:00	2024-11-08T04:00:00	4	Temperatura máxima	18.8
12627	7	Sololá	712	San Antonio Palopó	9	San Antonio Palopo	10	Octubre	2023-12-10T00:00:00	2024-11-08T04:00:00	3	Temperatura mínima	18.5
12628	7	Sololá	712	San Antonio Palopó	9	San Antonio Palopo	10	Octubre	2023-12-10T00:00:00	2024-11-08T04:00:00	5	Humedad	92
12629	7	Sololá	712	San Antonio Palopó	9	San Antonio Palopo	10	Octubre	2023-12-10T00:00:00	2024-11-08T04:00:00	6	Velocidad del viento	1.6
12630	7	Sololá	712	San Antonio Palopó	9	San Antonio Palopo	10	Octubre	2023-12-10T00:00:00	2024-11-08T04:00:00	7	Dirección del viento	1.61
12631	7	Sololá	712	San Antonio Palopó	9	San Antonio Palopo	10	Octubre	2023-12-10T00:00:00	2024-11-08T04:00:00	1	Precipitación	0
12632	7	Sololá	712	San Antonio Palopó	9	San Antonio Palopo	10	Octubre	2023-12-10T00:00:00	2024-11-08T04:00:00	8	Radiación solar	0
12633	7	Sololá	712	San Antonio Palopó	9	San Antonio Palopo	10	Octubre	2023-12-10T00:00:00	2024-11-08T05:00:00	2	Temperatura media	18.4
12634	7	Sololá	712	San Antonio Palopó	9	San Antonio Palopo	10	Octubre	2023-12-10T00:00:00	2024-11-08T05:00:00	4	Temperatura máxima	18.8
12635	7	Sololá	712	San Antonio Palopó	9	San Antonio Palopo	10	Octubre	2023-12-10T00:00:00	2024-11-08T05:00:00	3	Temperatura mínima	18.4
12636	7	Sololá	712	San Antonio Palopó	9	San Antonio Palopo	10	Octubre	2023-12-10T00:00:00	2024-11-08T05:00:00	5	Humedad	91
12637	7	Sololá	712	San Antonio Palopó	9	San Antonio Palopo	10	Octubre	2023-12-10T00:00:00	2024-11-08T05:00:00	6	Velocidad del viento	1.6
12638	7	Sololá	712	San Antonio Palopó	9	San Antonio Palopo	10	Octubre	2023-12-10T00:00:00	2024-11-08T05:00:00	7	Dirección del viento	1.61
12639	7	Sololá	712	San Antonio Palopó	9	San Antonio Palopo	10	Octubre	2023-12-10T00:00:00	2024-11-08T05:00:00	1	Precipitación	0
12640	7	Sololá	712	San Antonio Palopó	9	San Antonio Palopo	10	Octubre	2023-12-10T00:00:00	2024-11-08T05:00:00	8	Radiación solar	0
12641	7	Sololá	712	San Antonio Palopó	9	San Antonio Palopo	10	Octubre	2023-12-10T00:00:00	2024-11-08T06:00:00	2	Temperatura media	18.3
12642	7	Sololá	712	San Antonio Palopó	9	San Antonio Palopo	10	Octubre	2023-12-10T00:00:00	2024-11-08T06:00:00	4	Temperatura máxima	19
12643	7	Sololá	712	San Antonio Palopó	9	San Antonio Palopo	10	Octubre	2023-12-10T00:00:00	2024-11-08T06:00:00	3	Temperatura mínima	18.2
12644	7	Sololá	712	San Antonio Palopó	9	San Antonio Palopo	10	Octubre	2023-12-10T00:00:00	2024-11-08T06:00:00	5	Humedad	89
12645	7	Sololá	712	San Antonio Palopó	9	San Antonio Palopo	10	Octubre	2023-12-10T00:00:00	2024-11-08T06:00:00	6	Velocidad del viento	3.2
12646	7	Sololá	712	San Antonio Palopó	9	San Antonio Palopo	10	Octubre	2023-12-10T00:00:00	2024-11-08T06:00:00	7	Dirección del viento	3.22
12647	7	Sololá	712	San Antonio Palopó	9	San Antonio Palopo	10	Octubre	2023-12-10T00:00:00	2024-11-08T06:00:00	1	Precipitación	0
12648	7	Sololá	712	San Antonio Palopó	9	San Antonio Palopo	10	Octubre	2023-12-10T00:00:00	2024-11-08T06:00:00	8	Radiación solar	0
12649	7	Sololá	712	San Antonio Palopó	9	San Antonio Palopo	10	Octubre	2023-12-10T00:00:00	2024-11-08T07:00:00	2	Temperatura media	18.8
12650	7	Sololá	712	San Antonio Palopó	9	San Antonio Palopo	10	Octubre	2023-12-10T00:00:00	2024-11-08T07:00:00	4	Temperatura máxima	18.8
12651	7	Sololá	712	San Antonio Palopó	9	San Antonio Palopo	10	Octubre	2023-12-10T00:00:00	2024-11-08T07:00:00	3	Temperatura mínima	18.1
12652	7	Sololá	712	San Antonio Palopó	9	San Antonio Palopo	10	Octubre	2023-12-10T00:00:00	2024-11-08T07:00:00	5	Humedad	85
12653	7	Sololá	712	San Antonio Palopó	9	San Antonio Palopo	10	Octubre	2023-12-10T00:00:00	2024-11-08T07:00:00	6	Velocidad del viento	3.2
12654	7	Sololá	712	San Antonio Palopó	9	San Antonio Palopo	10	Octubre	2023-12-10T00:00:00	2024-11-08T07:00:00	7	Dirección del viento	3.22
12655	7	Sololá	712	San Antonio Palopó	9	San Antonio Palopo	10	Octubre	2023-12-10T00:00:00	2024-11-08T07:00:00	1	Precipitación	0
12656	7	Sololá	712	San Antonio Palopó	9	San Antonio Palopo	10	Octubre	2023-12-10T00:00:00	2024-11-08T07:00:00	8	Radiación solar	27
12657	7	Sololá	712	San Antonio Palopó	9	San Antonio Palopo	10	Octubre	2023-12-10T00:00:00	2024-11-08T08:00:00	2	Temperatura media	20.1
12658	7	Sololá	712	San Antonio Palopó	9	San Antonio Palopo	10	Octubre	2023-12-10T00:00:00	2024-11-08T08:00:00	4	Temperatura máxima	20.1
12659	7	Sololá	712	San Antonio Palopó	9	San Antonio Palopo	10	Octubre	2023-12-10T00:00:00	2024-11-08T08:00:00	3	Temperatura mínima	18.8
12660	7	Sololá	712	San Antonio Palopó	9	San Antonio Palopo	10	Octubre	2023-12-10T00:00:00	2024-11-08T08:00:00	5	Humedad	83
12661	7	Sololá	712	San Antonio Palopó	9	San Antonio Palopo	10	Octubre	2023-12-10T00:00:00	2024-11-08T08:00:00	6	Velocidad del viento	1.6
12662	7	Sololá	712	San Antonio Palopó	9	San Antonio Palopo	10	Octubre	2023-12-10T00:00:00	2024-11-08T08:00:00	7	Dirección del viento	1.61
12663	7	Sololá	712	San Antonio Palopó	9	San Antonio Palopo	10	Octubre	2023-12-10T00:00:00	2024-11-08T08:00:00	1	Precipitación	0
12664	7	Sololá	712	San Antonio Palopó	9	San Antonio Palopo	10	Octubre	2023-12-10T00:00:00	2024-11-08T08:00:00	8	Radiación solar	116
12665	7	Sololá	712	San Antonio Palopó	9	San Antonio Palopo	10	Octubre	2023-12-10T00:00:00	2024-11-08T09:00:00	2	Temperatura media	20.8
12666	7	Sololá	712	San Antonio Palopó	9	San Antonio Palopo	10	Octubre	2023-12-10T00:00:00	2024-11-08T09:00:00	4	Temperatura máxima	21
12667	7	Sololá	712	San Antonio Palopó	9	San Antonio Palopo	10	Octubre	2023-12-10T00:00:00	2024-11-08T09:00:00	3	Temperatura mínima	20.1
12668	7	Sololá	712	San Antonio Palopó	9	San Antonio Palopo	10	Octubre	2023-12-10T00:00:00	2024-11-08T09:00:00	5	Humedad	82
12669	7	Sololá	712	San Antonio Palopó	9	San Antonio Palopo	10	Octubre	2023-12-10T00:00:00	2024-11-08T09:00:00	6	Velocidad del viento	1.6
12670	7	Sololá	712	San Antonio Palopó	9	San Antonio Palopo	10	Octubre	2023-12-10T00:00:00	2024-11-08T09:00:00	7	Dirección del viento	1.61
12671	7	Sololá	712	San Antonio Palopó	9	San Antonio Palopo	10	Octubre	2023-12-10T00:00:00	2024-11-08T09:00:00	1	Precipitación	0
12672	7	Sololá	712	San Antonio Palopó	9	San Antonio Palopo	10	Octubre	2023-12-10T00:00:00	2024-11-08T09:00:00	8	Radiación solar	317
12673	7	Sololá	712	San Antonio Palopó	9	San Antonio Palopo	10	Octubre	2023-12-10T00:00:00	2024-11-08T10:00:00	2	Temperatura media	21.2
12674	7	Sololá	712	San Antonio Palopó	9	San Antonio Palopo	10	Octubre	2023-12-10T00:00:00	2024-11-08T10:00:00	4	Temperatura máxima	21.2
12675	7	Sololá	712	San Antonio Palopó	9	San Antonio Palopo	10	Octubre	2023-12-10T00:00:00	2024-11-08T10:00:00	3	Temperatura mínima	20.4
12676	7	Sololá	712	San Antonio Palopó	9	San Antonio Palopo	10	Octubre	2023-12-10T00:00:00	2024-11-08T10:00:00	5	Humedad	83
12677	7	Sololá	712	San Antonio Palopó	9	San Antonio Palopo	10	Octubre	2023-12-10T00:00:00	2024-11-08T10:00:00	6	Velocidad del viento	3.2
12678	7	Sololá	712	San Antonio Palopó	9	San Antonio Palopo	10	Octubre	2023-12-10T00:00:00	2024-11-08T10:00:00	7	Dirección del viento	3.22
12679	7	Sololá	712	San Antonio Palopó	9	San Antonio Palopo	10	Octubre	2023-12-10T00:00:00	2024-11-08T10:00:00	1	Precipitación	0
12680	7	Sololá	712	San Antonio Palopó	9	San Antonio Palopo	10	Octubre	2023-12-10T00:00:00	2024-11-08T10:00:00	8	Radiación solar	388
12681	7	Sololá	712	San Antonio Palopó	9	San Antonio Palopo	10	Octubre	2023-12-10T00:00:00	2024-11-08T11:00:00	2	Temperatura media	22.2
12682	7	Sololá	712	San Antonio Palopó	9	San Antonio Palopo	10	Octubre	2023-12-10T00:00:00	2024-11-08T11:00:00	4	Temperatura máxima	22.2
12683	7	Sololá	712	San Antonio Palopó	9	San Antonio Palopo	10	Octubre	2023-12-10T00:00:00	2024-11-08T11:00:00	3	Temperatura mínima	21.3
12684	7	Sololá	712	San Antonio Palopó	9	San Antonio Palopo	10	Octubre	2023-12-10T00:00:00	2024-11-08T11:00:00	5	Humedad	80
12685	7	Sololá	712	San Antonio Palopó	9	San Antonio Palopo	10	Octubre	2023-12-10T00:00:00	2024-11-08T11:00:00	6	Velocidad del viento	3.2
12686	7	Sololá	712	San Antonio Palopó	9	San Antonio Palopo	10	Octubre	2023-12-10T00:00:00	2024-11-08T11:00:00	7	Dirección del viento	3.22
12687	7	Sololá	712	San Antonio Palopó	9	San Antonio Palopo	10	Octubre	2023-12-10T00:00:00	2024-11-08T11:00:00	1	Precipitación	0
12688	7	Sololá	712	San Antonio Palopó	9	San Antonio Palopo	10	Octubre	2023-12-10T00:00:00	2024-11-08T11:00:00	8	Radiación solar	614
12689	7	Sololá	712	San Antonio Palopó	9	San Antonio Palopo	10	Octubre	2023-12-10T00:00:00	2024-11-08T12:00:00	2	Temperatura media	23.2
12690	7	Sololá	712	San Antonio Palopó	9	San Antonio Palopo	10	Octubre	2023-12-10T00:00:00	2024-11-08T12:00:00	4	Temperatura máxima	23.5
12691	7	Sololá	712	San Antonio Palopó	9	San Antonio Palopo	10	Octubre	2023-12-10T00:00:00	2024-11-08T12:00:00	3	Temperatura mínima	22.1
12692	7	Sololá	712	San Antonio Palopó	9	San Antonio Palopo	10	Octubre	2023-12-10T00:00:00	2024-11-08T12:00:00	5	Humedad	76
12693	7	Sololá	712	San Antonio Palopó	9	San Antonio Palopo	10	Octubre	2023-12-10T00:00:00	2024-11-08T12:00:00	6	Velocidad del viento	1.6
12694	7	Sololá	712	San Antonio Palopó	9	San Antonio Palopo	10	Octubre	2023-12-10T00:00:00	2024-11-08T12:00:00	7	Dirección del viento	1.61
12695	7	Sololá	712	San Antonio Palopó	9	San Antonio Palopo	10	Octubre	2023-12-10T00:00:00	2024-11-08T12:00:00	1	Precipitación	0
12696	7	Sololá	712	San Antonio Palopó	9	San Antonio Palopo	10	Octubre	2023-12-10T00:00:00	2024-11-08T12:00:00	8	Radiación solar	534
12697	7	Sololá	712	San Antonio Palopó	9	San Antonio Palopo	10	Octubre	2023-12-10T00:00:00	2024-11-08T13:00:00	2	Temperatura media	25.1
12698	7	Sololá	712	San Antonio Palopó	9	San Antonio Palopo	10	Octubre	2023-12-10T00:00:00	2024-11-08T13:00:00	4	Temperatura máxima	25.1
12699	7	Sololá	712	San Antonio Palopó	9	San Antonio Palopo	10	Octubre	2023-12-10T00:00:00	2024-11-08T13:00:00	3	Temperatura mínima	22.7
12700	7	Sololá	712	San Antonio Palopó	9	San Antonio Palopo	10	Octubre	2023-12-10T00:00:00	2024-11-08T13:00:00	5	Humedad	71
12701	7	Sololá	712	San Antonio Palopó	9	San Antonio Palopo	10	Octubre	2023-12-10T00:00:00	2024-11-08T13:00:00	6	Velocidad del viento	3.2
12702	7	Sololá	712	San Antonio Palopó	9	San Antonio Palopo	10	Octubre	2023-12-10T00:00:00	2024-11-08T13:00:00	7	Dirección del viento	3.22
12703	7	Sololá	712	San Antonio Palopó	9	San Antonio Palopo	10	Octubre	2023-12-10T00:00:00	2024-11-08T13:00:00	1	Precipitación	0
12704	7	Sololá	712	San Antonio Palopó	9	San Antonio Palopo	10	Octubre	2023-12-10T00:00:00	2024-11-08T13:00:00	8	Radiación solar	691
12705	7	Sololá	712	San Antonio Palopó	9	San Antonio Palopo	10	Octubre	2023-12-10T00:00:00	2024-11-08T14:00:00	2	Temperatura media	23.2
12706	7	Sololá	712	San Antonio Palopó	9	San Antonio Palopo	10	Octubre	2023-12-10T00:00:00	2024-11-08T14:00:00	4	Temperatura máxima	25.2
12707	7	Sololá	712	San Antonio Palopó	9	San Antonio Palopo	10	Octubre	2023-12-10T00:00:00	2024-11-08T14:00:00	3	Temperatura mínima	23.2
12708	7	Sololá	712	San Antonio Palopó	9	San Antonio Palopo	10	Octubre	2023-12-10T00:00:00	2024-11-08T14:00:00	5	Humedad	77
12709	7	Sololá	712	San Antonio Palopó	9	San Antonio Palopo	10	Octubre	2023-12-10T00:00:00	2024-11-08T14:00:00	6	Velocidad del viento	8
12710	7	Sololá	712	San Antonio Palopó	9	San Antonio Palopo	10	Octubre	2023-12-10T00:00:00	2024-11-08T14:00:00	7	Dirección del viento	8.05
12711	7	Sololá	712	San Antonio Palopó	9	San Antonio Palopo	10	Octubre	2023-12-10T00:00:00	2024-11-08T14:00:00	1	Precipitación	0
12712	7	Sololá	712	San Antonio Palopó	9	San Antonio Palopo	10	Octubre	2023-12-10T00:00:00	2024-11-08T14:00:00	8	Radiación solar	686
12713	7	Sololá	712	San Antonio Palopó	9	San Antonio Palopo	10	Octubre	2023-12-10T00:00:00	2024-11-08T15:00:00	2	Temperatura media	21.7
12714	7	Sololá	712	San Antonio Palopó	9	San Antonio Palopo	10	Octubre	2023-12-10T00:00:00	2024-11-08T15:00:00	4	Temperatura máxima	23.2
12715	7	Sololá	712	San Antonio Palopó	9	San Antonio Palopo	10	Octubre	2023-12-10T00:00:00	2024-11-08T15:00:00	3	Temperatura mínima	21.7
12716	7	Sololá	712	San Antonio Palopó	9	San Antonio Palopo	10	Octubre	2023-12-10T00:00:00	2024-11-08T15:00:00	5	Humedad	82
12717	7	Sololá	712	San Antonio Palopó	9	San Antonio Palopo	10	Octubre	2023-12-10T00:00:00	2024-11-08T15:00:00	6	Velocidad del viento	9.7
12718	7	Sololá	712	San Antonio Palopó	9	San Antonio Palopo	10	Octubre	2023-12-10T00:00:00	2024-11-08T15:00:00	7	Dirección del viento	9.66
12719	7	Sololá	712	San Antonio Palopó	9	San Antonio Palopo	10	Octubre	2023-12-10T00:00:00	2024-11-08T15:00:00	1	Precipitación	0
12720	7	Sololá	712	San Antonio Palopó	9	San Antonio Palopo	10	Octubre	2023-12-10T00:00:00	2024-11-08T15:00:00	8	Radiación solar	300
12721	7	Sololá	712	San Antonio Palopó	9	San Antonio Palopo	10	Octubre	2023-12-10T00:00:00	2024-11-08T16:00:00	2	Temperatura media	21.3
12722	7	Sololá	712	San Antonio Palopó	9	San Antonio Palopo	10	Octubre	2023-12-10T00:00:00	2024-11-08T16:00:00	4	Temperatura máxima	21.8
12723	7	Sololá	712	San Antonio Palopó	9	San Antonio Palopo	10	Octubre	2023-12-10T00:00:00	2024-11-08T16:00:00	3	Temperatura mínima	21.2
12724	7	Sololá	712	San Antonio Palopó	9	San Antonio Palopo	10	Octubre	2023-12-10T00:00:00	2024-11-08T16:00:00	5	Humedad	83
12725	7	Sololá	712	San Antonio Palopó	9	San Antonio Palopo	10	Octubre	2023-12-10T00:00:00	2024-11-08T16:00:00	6	Velocidad del viento	4.8
12726	7	Sololá	712	San Antonio Palopó	9	San Antonio Palopo	10	Octubre	2023-12-10T00:00:00	2024-11-08T16:00:00	7	Dirección del viento	4.83
12727	7	Sololá	712	San Antonio Palopó	9	San Antonio Palopo	10	Octubre	2023-12-10T00:00:00	2024-11-08T16:00:00	1	Precipitación	0
12728	7	Sololá	712	San Antonio Palopó	9	San Antonio Palopo	10	Octubre	2023-12-10T00:00:00	2024-11-08T16:00:00	8	Radiación solar	52
12729	7	Sololá	712	San Antonio Palopó	9	San Antonio Palopo	10	Octubre	2023-12-10T00:00:00	2024-11-08T17:00:00	2	Temperatura media	21.3
12730	7	Sololá	712	San Antonio Palopó	9	San Antonio Palopo	10	Octubre	2023-12-10T00:00:00	2024-11-08T17:00:00	4	Temperatura máxima	21.5
12731	7	Sololá	712	San Antonio Palopó	9	San Antonio Palopo	10	Octubre	2023-12-10T00:00:00	2024-11-08T17:00:00	3	Temperatura mínima	21.2
12732	7	Sololá	712	San Antonio Palopó	9	San Antonio Palopo	10	Octubre	2023-12-10T00:00:00	2024-11-08T17:00:00	5	Humedad	82
12733	7	Sololá	712	San Antonio Palopó	9	San Antonio Palopo	10	Octubre	2023-12-10T00:00:00	2024-11-08T17:00:00	6	Velocidad del viento	3.2
12734	7	Sololá	712	San Antonio Palopó	9	San Antonio Palopo	10	Octubre	2023-12-10T00:00:00	2024-11-08T17:00:00	7	Dirección del viento	3.22
12735	7	Sololá	712	San Antonio Palopó	9	San Antonio Palopo	10	Octubre	2023-12-10T00:00:00	2024-11-08T17:00:00	1	Precipitación	0
12736	7	Sololá	712	San Antonio Palopó	9	San Antonio Palopo	10	Octubre	2023-12-10T00:00:00	2024-11-08T17:00:00	8	Radiación solar	51
12737	7	Sololá	712	San Antonio Palopó	9	San Antonio Palopo	10	Octubre	2023-12-10T00:00:00	2024-11-08T18:00:00	2	Temperatura media	20.9
12738	7	Sololá	712	San Antonio Palopó	9	San Antonio Palopo	10	Octubre	2023-12-10T00:00:00	2024-11-08T18:00:00	4	Temperatura máxima	21.4
12739	7	Sololá	712	San Antonio Palopó	9	San Antonio Palopo	10	Octubre	2023-12-10T00:00:00	2024-11-08T18:00:00	3	Temperatura mínima	20.8
12740	7	Sololá	712	San Antonio Palopó	9	San Antonio Palopo	10	Octubre	2023-12-10T00:00:00	2024-11-08T18:00:00	5	Humedad	85
12741	7	Sololá	712	San Antonio Palopó	9	San Antonio Palopo	10	Octubre	2023-12-10T00:00:00	2024-11-08T18:00:00	6	Velocidad del viento	3.2
12742	7	Sololá	712	San Antonio Palopó	9	San Antonio Palopo	10	Octubre	2023-12-10T00:00:00	2024-11-08T18:00:00	7	Dirección del viento	3.22
12743	7	Sololá	712	San Antonio Palopó	9	San Antonio Palopo	10	Octubre	2023-12-10T00:00:00	2024-11-08T18:00:00	1	Precipitación	0
12744	7	Sololá	712	San Antonio Palopó	9	San Antonio Palopo	10	Octubre	2023-12-10T00:00:00	2024-11-08T18:00:00	8	Radiación solar	3
12745	7	Sololá	712	San Antonio Palopó	9	San Antonio Palopo	10	Octubre	2023-12-10T00:00:00	2024-11-08T19:00:00	2	Temperatura media	20.6
12746	7	Sololá	712	San Antonio Palopó	9	San Antonio Palopo	10	Octubre	2023-12-10T00:00:00	2024-11-08T19:00:00	4	Temperatura máxima	20.9
12747	7	Sololá	712	San Antonio Palopó	9	San Antonio Palopo	10	Octubre	2023-12-10T00:00:00	2024-11-08T19:00:00	3	Temperatura mínima	20.4
12748	7	Sololá	712	San Antonio Palopó	9	San Antonio Palopo	10	Octubre	2023-12-10T00:00:00	2024-11-08T19:00:00	5	Humedad	86
12749	7	Sololá	712	San Antonio Palopó	9	San Antonio Palopo	10	Octubre	2023-12-10T00:00:00	2024-11-08T19:00:00	6	Velocidad del viento	3.2
12750	7	Sololá	712	San Antonio Palopó	9	San Antonio Palopo	10	Octubre	2023-12-10T00:00:00	2024-11-08T19:00:00	7	Dirección del viento	3.22
12751	7	Sololá	712	San Antonio Palopó	9	San Antonio Palopo	10	Octubre	2023-12-10T00:00:00	2024-11-08T19:00:00	1	Precipitación	0
12752	7	Sololá	712	San Antonio Palopó	9	San Antonio Palopo	10	Octubre	2023-12-10T00:00:00	2024-11-08T19:00:00	8	Radiación solar	0
12753	7	Sololá	712	San Antonio Palopó	9	San Antonio Palopo	10	Octubre	2023-12-10T00:00:00	2024-11-08T20:00:00	2	Temperatura media	20.3
12754	7	Sololá	712	San Antonio Palopó	9	San Antonio Palopo	10	Octubre	2023-12-10T00:00:00	2024-11-08T20:00:00	4	Temperatura máxima	20.8
12755	7	Sololá	712	San Antonio Palopó	9	San Antonio Palopo	10	Octubre	2023-12-10T00:00:00	2024-11-08T20:00:00	3	Temperatura mínima	20.3
12756	7	Sololá	712	San Antonio Palopó	9	San Antonio Palopo	10	Octubre	2023-12-10T00:00:00	2024-11-08T20:00:00	5	Humedad	88
12757	7	Sololá	712	San Antonio Palopó	9	San Antonio Palopo	10	Octubre	2023-12-10T00:00:00	2024-11-08T20:00:00	6	Velocidad del viento	1.6
12758	7	Sololá	712	San Antonio Palopó	9	San Antonio Palopo	10	Octubre	2023-12-10T00:00:00	2024-11-08T20:00:00	7	Dirección del viento	1.61
12759	7	Sololá	712	San Antonio Palopó	9	San Antonio Palopo	10	Octubre	2023-12-10T00:00:00	2024-11-08T20:00:00	1	Precipitación	0
12760	7	Sololá	712	San Antonio Palopó	9	San Antonio Palopo	10	Octubre	2023-12-10T00:00:00	2024-11-08T20:00:00	8	Radiación solar	0
12761	7	Sololá	712	San Antonio Palopó	9	San Antonio Palopo	10	Octubre	2023-12-10T00:00:00	2024-11-08T21:00:00	2	Temperatura media	20.6
12762	7	Sololá	712	San Antonio Palopó	9	San Antonio Palopo	10	Octubre	2023-12-10T00:00:00	2024-11-08T21:00:00	4	Temperatura máxima	20.6
12763	7	Sololá	712	San Antonio Palopó	9	San Antonio Palopo	10	Octubre	2023-12-10T00:00:00	2024-11-08T21:00:00	3	Temperatura mínima	20.3
12764	7	Sololá	712	San Antonio Palopó	9	San Antonio Palopo	10	Octubre	2023-12-10T00:00:00	2024-11-08T21:00:00	5	Humedad	85
12765	7	Sololá	712	San Antonio Palopó	9	San Antonio Palopo	10	Octubre	2023-12-10T00:00:00	2024-11-08T21:00:00	6	Velocidad del viento	1.6
12766	7	Sololá	712	San Antonio Palopó	9	San Antonio Palopo	10	Octubre	2023-12-10T00:00:00	2024-11-08T21:00:00	7	Dirección del viento	1.61
12767	7	Sololá	712	San Antonio Palopó	9	San Antonio Palopo	10	Octubre	2023-12-10T00:00:00	2024-11-08T21:00:00	1	Precipitación	0
12768	7	Sololá	712	San Antonio Palopó	9	San Antonio Palopo	10	Octubre	2023-12-10T00:00:00	2024-11-08T21:00:00	8	Radiación solar	0
12769	7	Sololá	712	San Antonio Palopó	9	San Antonio Palopo	10	Octubre	2023-12-10T00:00:00	2024-11-08T22:00:00	2	Temperatura media	19.8
12770	7	Sololá	712	San Antonio Palopó	9	San Antonio Palopo	10	Octubre	2023-12-10T00:00:00	2024-11-08T22:00:00	4	Temperatura máxima	20.6
12771	7	Sololá	712	San Antonio Palopó	9	San Antonio Palopo	10	Octubre	2023-12-10T00:00:00	2024-11-08T22:00:00	3	Temperatura mínima	19.8
12772	7	Sololá	712	San Antonio Palopó	9	San Antonio Palopo	10	Octubre	2023-12-10T00:00:00	2024-11-08T22:00:00	5	Humedad	88
12773	7	Sololá	712	San Antonio Palopó	9	San Antonio Palopo	10	Octubre	2023-12-10T00:00:00	2024-11-08T22:00:00	6	Velocidad del viento	1.6
12774	7	Sololá	712	San Antonio Palopó	9	San Antonio Palopo	10	Octubre	2023-12-10T00:00:00	2024-11-08T22:00:00	7	Dirección del viento	1.61
12775	7	Sololá	712	San Antonio Palopó	9	San Antonio Palopo	10	Octubre	2023-12-10T00:00:00	2024-11-08T22:00:00	1	Precipitación	0
12776	7	Sololá	712	San Antonio Palopó	9	San Antonio Palopo	10	Octubre	2023-12-10T00:00:00	2024-11-08T22:00:00	8	Radiación solar	0
12777	7	Sololá	712	San Antonio Palopó	9	San Antonio Palopo	10	Octubre	2023-12-10T00:00:00	2024-11-08T23:00:00	2	Temperatura media	20.3
12778	7	Sololá	712	San Antonio Palopó	9	San Antonio Palopo	10	Octubre	2023-12-10T00:00:00	2024-11-08T23:00:00	4	Temperatura máxima	20.4
12779	7	Sololá	712	San Antonio Palopó	9	San Antonio Palopo	10	Octubre	2023-12-10T00:00:00	2024-11-08T23:00:00	3	Temperatura mínima	19.8
12780	7	Sololá	712	San Antonio Palopó	9	San Antonio Palopo	10	Octubre	2023-12-10T00:00:00	2024-11-08T23:00:00	5	Humedad	85
12781	7	Sololá	712	San Antonio Palopó	9	San Antonio Palopo	10	Octubre	2023-12-10T00:00:00	2024-11-08T23:00:00	6	Velocidad del viento	3.2
12782	7	Sololá	712	San Antonio Palopó	9	San Antonio Palopo	10	Octubre	2023-12-10T00:00:00	2024-11-08T23:00:00	7	Dirección del viento	3.22
12783	7	Sololá	712	San Antonio Palopó	9	San Antonio Palopo	10	Octubre	2023-12-10T00:00:00	2024-11-08T23:00:00	1	Precipitación	0
12784	7	Sololá	712	San Antonio Palopó	9	San Antonio Palopo	10	Octubre	2023-12-10T00:00:00	2024-11-08T23:00:00	8	Radiación solar	0
12785	7	Sololá	712	San Antonio Palopó	9	San Antonio Palopo	10	Octubre	2023-10-13T00:00:00	2024-11-08T00:00:00	2	Temperatura media	19.9
12786	7	Sololá	712	San Antonio Palopó	9	San Antonio Palopo	10	Octubre	2023-10-13T00:00:00	2024-11-08T00:00:00	4	Temperatura máxima	20.3
12787	7	Sololá	712	San Antonio Palopó	9	San Antonio Palopo	10	Octubre	2023-10-13T00:00:00	2024-11-08T00:00:00	3	Temperatura mínima	19.7
12788	7	Sololá	712	San Antonio Palopó	9	San Antonio Palopo	10	Octubre	2023-10-13T00:00:00	2024-11-08T00:00:00	5	Humedad	86
12789	7	Sololá	712	San Antonio Palopó	9	San Antonio Palopo	10	Octubre	2023-10-13T00:00:00	2024-11-08T00:00:00	6	Velocidad del viento	3.2
12790	7	Sololá	712	San Antonio Palopó	9	San Antonio Palopo	10	Octubre	2023-10-13T00:00:00	2024-11-08T00:00:00	7	Dirección del viento	3.22
12791	7	Sololá	712	San Antonio Palopó	9	San Antonio Palopo	10	Octubre	2023-10-13T00:00:00	2024-11-08T00:00:00	1	Precipitación	0
12792	7	Sololá	712	San Antonio Palopó	9	San Antonio Palopo	10	Octubre	2023-10-13T00:00:00	2024-11-08T00:00:00	8	Radiación solar	0
12793	7	Sololá	712	San Antonio Palopó	9	San Antonio Palopo	10	Octubre	2023-10-13T00:00:00	2024-11-08T01:00:00	2	Temperatura media	19.4
12794	7	Sololá	712	San Antonio Palopó	9	San Antonio Palopo	10	Octubre	2023-10-13T00:00:00	2024-11-08T01:00:00	4	Temperatura máxima	20.1
12795	7	Sololá	712	San Antonio Palopó	9	San Antonio Palopo	10	Octubre	2023-10-13T00:00:00	2024-11-08T01:00:00	3	Temperatura mínima	19.4
12796	7	Sololá	712	San Antonio Palopó	9	San Antonio Palopo	10	Octubre	2023-10-13T00:00:00	2024-11-08T01:00:00	5	Humedad	88
12797	7	Sololá	712	San Antonio Palopó	9	San Antonio Palopo	10	Octubre	2023-10-13T00:00:00	2024-11-08T01:00:00	6	Velocidad del viento	3.2
12798	7	Sololá	712	San Antonio Palopó	9	San Antonio Palopo	10	Octubre	2023-10-13T00:00:00	2024-11-08T01:00:00	7	Dirección del viento	3.22
12799	7	Sololá	712	San Antonio Palopó	9	San Antonio Palopo	10	Octubre	2023-10-13T00:00:00	2024-11-08T01:00:00	1	Precipitación	0
12800	7	Sololá	712	San Antonio Palopó	9	San Antonio Palopo	10	Octubre	2023-10-13T00:00:00	2024-11-08T01:00:00	8	Radiación solar	0
12801	7	Sololá	712	San Antonio Palopó	9	San Antonio Palopo	10	Octubre	2023-10-13T00:00:00	2024-11-08T02:00:00	2	Temperatura media	19.1
12802	7	Sololá	712	San Antonio Palopó	9	San Antonio Palopo	10	Octubre	2023-10-13T00:00:00	2024-11-08T02:00:00	4	Temperatura máxima	19.4
12803	7	Sololá	712	San Antonio Palopó	9	San Antonio Palopo	10	Octubre	2023-10-13T00:00:00	2024-11-08T02:00:00	3	Temperatura mínima	19
12804	7	Sololá	712	San Antonio Palopó	9	San Antonio Palopo	10	Octubre	2023-10-13T00:00:00	2024-11-08T02:00:00	5	Humedad	88
12805	7	Sololá	712	San Antonio Palopó	9	San Antonio Palopo	10	Octubre	2023-10-13T00:00:00	2024-11-08T02:00:00	6	Velocidad del viento	1.6
12806	7	Sololá	712	San Antonio Palopó	9	San Antonio Palopo	10	Octubre	2023-10-13T00:00:00	2024-11-08T02:00:00	7	Dirección del viento	1.61
12807	7	Sololá	712	San Antonio Palopó	9	San Antonio Palopo	10	Octubre	2023-10-13T00:00:00	2024-11-08T02:00:00	1	Precipitación	0
12808	7	Sololá	712	San Antonio Palopó	9	San Antonio Palopo	10	Octubre	2023-10-13T00:00:00	2024-11-08T02:00:00	8	Radiación solar	0
12809	7	Sololá	712	San Antonio Palopó	9	San Antonio Palopo	10	Octubre	2023-10-13T00:00:00	2024-11-08T03:00:00	2	Temperatura media	18.7
12810	7	Sololá	712	San Antonio Palopó	9	San Antonio Palopo	10	Octubre	2023-10-13T00:00:00	2024-11-08T03:00:00	4	Temperatura máxima	19.6
12811	7	Sololá	712	San Antonio Palopó	9	San Antonio Palopo	10	Octubre	2023-10-13T00:00:00	2024-11-08T03:00:00	3	Temperatura mínima	18.7
12812	7	Sololá	712	San Antonio Palopó	9	San Antonio Palopo	10	Octubre	2023-10-13T00:00:00	2024-11-08T03:00:00	5	Humedad	86
12813	7	Sololá	712	San Antonio Palopó	9	San Antonio Palopo	10	Octubre	2023-10-13T00:00:00	2024-11-08T03:00:00	6	Velocidad del viento	3.2
12814	7	Sololá	712	San Antonio Palopó	9	San Antonio Palopo	10	Octubre	2023-10-13T00:00:00	2024-11-08T03:00:00	7	Dirección del viento	3.22
12815	7	Sololá	712	San Antonio Palopó	9	San Antonio Palopo	10	Octubre	2023-10-13T00:00:00	2024-11-08T03:00:00	1	Precipitación	0
12816	7	Sololá	712	San Antonio Palopó	9	San Antonio Palopo	10	Octubre	2023-10-13T00:00:00	2024-11-08T03:00:00	8	Radiación solar	0
12817	7	Sololá	712	San Antonio Palopó	9	San Antonio Palopo	10	Octubre	2023-10-13T00:00:00	2024-11-08T04:00:00	2	Temperatura media	19.7
12818	7	Sololá	712	San Antonio Palopó	9	San Antonio Palopo	10	Octubre	2023-10-13T00:00:00	2024-11-08T04:00:00	4	Temperatura máxima	19.7
12819	7	Sololá	712	San Antonio Palopó	9	San Antonio Palopo	10	Octubre	2023-10-13T00:00:00	2024-11-08T04:00:00	3	Temperatura mínima	18.4
12820	7	Sololá	712	San Antonio Palopó	9	San Antonio Palopo	10	Octubre	2023-10-13T00:00:00	2024-11-08T04:00:00	5	Humedad	81
12821	7	Sololá	712	San Antonio Palopó	9	San Antonio Palopo	10	Octubre	2023-10-13T00:00:00	2024-11-08T04:00:00	6	Velocidad del viento	3.2
12822	7	Sololá	712	San Antonio Palopó	9	San Antonio Palopo	10	Octubre	2023-10-13T00:00:00	2024-11-08T04:00:00	7	Dirección del viento	3.22
12823	7	Sololá	712	San Antonio Palopó	9	San Antonio Palopo	10	Octubre	2023-10-13T00:00:00	2024-11-08T04:00:00	1	Precipitación	0
12824	7	Sololá	712	San Antonio Palopó	9	San Antonio Palopo	10	Octubre	2023-10-13T00:00:00	2024-11-08T04:00:00	8	Radiación solar	0
12825	7	Sololá	712	San Antonio Palopó	9	San Antonio Palopo	10	Octubre	2023-10-13T00:00:00	2024-11-08T05:00:00	2	Temperatura media	20.1
12826	7	Sololá	712	San Antonio Palopó	9	San Antonio Palopo	10	Octubre	2023-10-13T00:00:00	2024-11-08T05:00:00	4	Temperatura máxima	20.2
12827	7	Sololá	712	San Antonio Palopó	9	San Antonio Palopo	10	Octubre	2023-10-13T00:00:00	2024-11-08T05:00:00	3	Temperatura mínima	19.2
12828	7	Sololá	712	San Antonio Palopó	9	San Antonio Palopo	10	Octubre	2023-10-13T00:00:00	2024-11-08T05:00:00	5	Humedad	78
12829	7	Sololá	712	San Antonio Palopó	9	San Antonio Palopo	10	Octubre	2023-10-13T00:00:00	2024-11-08T05:00:00	6	Velocidad del viento	8
12830	7	Sololá	712	San Antonio Palopó	9	San Antonio Palopo	10	Octubre	2023-10-13T00:00:00	2024-11-08T05:00:00	7	Dirección del viento	8.05
12831	7	Sololá	712	San Antonio Palopó	9	San Antonio Palopo	10	Octubre	2023-10-13T00:00:00	2024-11-08T05:00:00	1	Precipitación	0
12832	7	Sololá	712	San Antonio Palopó	9	San Antonio Palopo	10	Octubre	2023-10-13T00:00:00	2024-11-08T05:00:00	8	Radiación solar	0
12833	7	Sololá	712	San Antonio Palopó	9	San Antonio Palopo	10	Octubre	2023-10-13T00:00:00	2024-11-08T06:00:00	2	Temperatura media	19.6
12834	7	Sololá	712	San Antonio Palopó	9	San Antonio Palopo	10	Octubre	2023-10-13T00:00:00	2024-11-08T06:00:00	4	Temperatura máxima	20.2
12835	7	Sololá	712	San Antonio Palopó	9	San Antonio Palopo	10	Octubre	2023-10-13T00:00:00	2024-11-08T06:00:00	3	Temperatura mínima	19.6
12836	7	Sololá	712	San Antonio Palopó	9	San Antonio Palopo	10	Octubre	2023-10-13T00:00:00	2024-11-08T06:00:00	5	Humedad	78
12837	7	Sololá	712	San Antonio Palopó	9	San Antonio Palopo	10	Octubre	2023-10-13T00:00:00	2024-11-08T06:00:00	6	Velocidad del viento	4.8
12838	7	Sololá	712	San Antonio Palopó	9	San Antonio Palopo	10	Octubre	2023-10-13T00:00:00	2024-11-08T06:00:00	7	Dirección del viento	4.83
12839	7	Sololá	712	San Antonio Palopó	9	San Antonio Palopo	10	Octubre	2023-10-13T00:00:00	2024-11-08T06:00:00	1	Precipitación	0
12840	7	Sololá	712	San Antonio Palopó	9	San Antonio Palopo	10	Octubre	2023-10-13T00:00:00	2024-11-08T06:00:00	8	Radiación solar	0
12841	7	Sololá	712	San Antonio Palopó	9	San Antonio Palopo	10	Octubre	2023-10-13T00:00:00	2024-11-08T07:00:00	2	Temperatura media	19.4
12842	7	Sololá	712	San Antonio Palopó	9	San Antonio Palopo	10	Octubre	2023-10-13T00:00:00	2024-11-08T07:00:00	4	Temperatura máxima	19.8
12843	7	Sololá	712	San Antonio Palopó	9	San Antonio Palopo	10	Octubre	2023-10-13T00:00:00	2024-11-08T07:00:00	3	Temperatura mínima	19.2
12844	7	Sololá	712	San Antonio Palopó	9	San Antonio Palopo	10	Octubre	2023-10-13T00:00:00	2024-11-08T07:00:00	5	Humedad	85
12845	7	Sololá	712	San Antonio Palopó	9	San Antonio Palopo	10	Octubre	2023-10-13T00:00:00	2024-11-08T07:00:00	6	Velocidad del viento	3.2
12846	7	Sololá	712	San Antonio Palopó	9	San Antonio Palopo	10	Octubre	2023-10-13T00:00:00	2024-11-08T07:00:00	7	Dirección del viento	3.22
12847	7	Sololá	712	San Antonio Palopó	9	San Antonio Palopo	10	Octubre	2023-10-13T00:00:00	2024-11-08T07:00:00	1	Precipitación	0
12848	7	Sololá	712	San Antonio Palopó	9	San Antonio Palopo	10	Octubre	2023-10-13T00:00:00	2024-11-08T07:00:00	8	Radiación solar	20
12849	7	Sololá	712	San Antonio Palopó	9	San Antonio Palopo	10	Octubre	2023-10-13T00:00:00	2024-11-08T08:00:00	2	Temperatura media	20.3
12850	7	Sololá	712	San Antonio Palopó	9	San Antonio Palopo	10	Octubre	2023-10-13T00:00:00	2024-11-08T08:00:00	4	Temperatura máxima	20.3
12851	7	Sololá	712	San Antonio Palopó	9	San Antonio Palopo	10	Octubre	2023-10-13T00:00:00	2024-11-08T08:00:00	3	Temperatura mínima	18.9
12852	7	Sololá	712	San Antonio Palopó	9	San Antonio Palopo	10	Octubre	2023-10-13T00:00:00	2024-11-08T08:00:00	5	Humedad	84
12853	7	Sololá	712	San Antonio Palopó	9	San Antonio Palopo	10	Octubre	2023-10-13T00:00:00	2024-11-08T08:00:00	6	Velocidad del viento	3.2
12854	7	Sololá	712	San Antonio Palopó	9	San Antonio Palopo	10	Octubre	2023-10-13T00:00:00	2024-11-08T08:00:00	7	Dirección del viento	3.22
12855	7	Sololá	712	San Antonio Palopó	9	San Antonio Palopo	10	Octubre	2023-10-13T00:00:00	2024-11-08T08:00:00	1	Precipitación	0
12856	7	Sololá	712	San Antonio Palopó	9	San Antonio Palopo	10	Octubre	2023-10-13T00:00:00	2024-11-08T08:00:00	8	Radiación solar	121
12857	7	Sololá	712	San Antonio Palopó	9	San Antonio Palopo	10	Octubre	2023-10-13T00:00:00	2024-11-08T09:00:00	2	Temperatura media	21.9
12858	7	Sololá	712	San Antonio Palopó	9	San Antonio Palopo	10	Octubre	2023-10-13T00:00:00	2024-11-08T09:00:00	4	Temperatura máxima	22
12859	7	Sololá	712	San Antonio Palopó	9	San Antonio Palopo	10	Octubre	2023-10-13T00:00:00	2024-11-08T09:00:00	3	Temperatura mínima	20.3
12860	7	Sololá	712	San Antonio Palopó	9	San Antonio Palopo	10	Octubre	2023-10-13T00:00:00	2024-11-08T09:00:00	5	Humedad	78
12861	7	Sololá	712	San Antonio Palopó	9	San Antonio Palopo	10	Octubre	2023-10-13T00:00:00	2024-11-08T09:00:00	6	Velocidad del viento	1.6
12862	7	Sololá	712	San Antonio Palopó	9	San Antonio Palopo	10	Octubre	2023-10-13T00:00:00	2024-11-08T09:00:00	7	Dirección del viento	1.61
12863	7	Sololá	712	San Antonio Palopó	9	San Antonio Palopo	10	Octubre	2023-10-13T00:00:00	2024-11-08T09:00:00	1	Precipitación	0
12864	7	Sololá	712	San Antonio Palopó	9	San Antonio Palopo	10	Octubre	2023-10-13T00:00:00	2024-11-08T09:00:00	8	Radiación solar	500
12865	7	Sololá	712	San Antonio Palopó	9	San Antonio Palopo	10	Octubre	2023-10-13T00:00:00	2024-11-08T10:00:00	2	Temperatura media	21.4
12866	7	Sololá	712	San Antonio Palopó	9	San Antonio Palopo	10	Octubre	2023-10-13T00:00:00	2024-11-08T10:00:00	4	Temperatura máxima	22
12867	7	Sololá	712	San Antonio Palopó	9	San Antonio Palopo	10	Octubre	2023-10-13T00:00:00	2024-11-08T10:00:00	3	Temperatura mínima	21.4
12868	7	Sololá	712	San Antonio Palopó	9	San Antonio Palopo	10	Octubre	2023-10-13T00:00:00	2024-11-08T10:00:00	5	Humedad	85
12869	7	Sololá	712	San Antonio Palopó	9	San Antonio Palopo	10	Octubre	2023-10-13T00:00:00	2024-11-08T10:00:00	6	Velocidad del viento	1.6
12870	7	Sololá	712	San Antonio Palopó	9	San Antonio Palopo	10	Octubre	2023-10-13T00:00:00	2024-11-08T10:00:00	7	Dirección del viento	1.61
12871	7	Sololá	712	San Antonio Palopó	9	San Antonio Palopo	10	Octubre	2023-10-13T00:00:00	2024-11-08T10:00:00	1	Precipitación	0
12872	7	Sololá	712	San Antonio Palopó	9	San Antonio Palopo	10	Octubre	2023-10-13T00:00:00	2024-11-08T10:00:00	8	Radiación solar	217
12873	7	Sololá	712	San Antonio Palopó	9	San Antonio Palopo	10	Octubre	2023-10-13T00:00:00	2024-11-08T11:00:00	2	Temperatura media	22.4
12874	7	Sololá	712	San Antonio Palopó	9	San Antonio Palopo	10	Octubre	2023-10-13T00:00:00	2024-11-08T11:00:00	4	Temperatura máxima	22.4
12875	7	Sololá	712	San Antonio Palopó	9	San Antonio Palopo	10	Octubre	2023-10-13T00:00:00	2024-11-08T11:00:00	3	Temperatura mínima	21.4
12876	7	Sololá	712	San Antonio Palopó	9	San Antonio Palopo	10	Octubre	2023-10-13T00:00:00	2024-11-08T11:00:00	5	Humedad	82
12877	7	Sololá	712	San Antonio Palopó	9	San Antonio Palopo	10	Octubre	2023-10-13T00:00:00	2024-11-08T11:00:00	6	Velocidad del viento	4.8
12878	7	Sololá	712	San Antonio Palopó	9	San Antonio Palopo	10	Octubre	2023-10-13T00:00:00	2024-11-08T11:00:00	7	Dirección del viento	4.83
12879	7	Sololá	712	San Antonio Palopó	9	San Antonio Palopo	10	Octubre	2023-10-13T00:00:00	2024-11-08T11:00:00	1	Precipitación	0
12880	7	Sololá	712	San Antonio Palopó	9	San Antonio Palopo	10	Octubre	2023-10-13T00:00:00	2024-11-08T11:00:00	8	Radiación solar	349
12881	7	Sololá	712	San Antonio Palopó	9	San Antonio Palopo	10	Octubre	2023-10-13T00:00:00	2024-11-08T12:00:00	2	Temperatura media	22.2
12882	7	Sololá	712	San Antonio Palopó	9	San Antonio Palopo	10	Octubre	2023-10-13T00:00:00	2024-11-08T12:00:00	4	Temperatura máxima	23.1
12883	7	Sololá	712	San Antonio Palopó	9	San Antonio Palopo	10	Octubre	2023-10-13T00:00:00	2024-11-08T12:00:00	3	Temperatura mínima	22.1
12884	7	Sololá	712	San Antonio Palopó	9	San Antonio Palopo	10	Octubre	2023-10-13T00:00:00	2024-11-08T12:00:00	5	Humedad	82
12885	7	Sololá	712	San Antonio Palopó	9	San Antonio Palopo	10	Octubre	2023-10-13T00:00:00	2024-11-08T12:00:00	6	Velocidad del viento	8
12886	7	Sololá	712	San Antonio Palopó	9	San Antonio Palopo	10	Octubre	2023-10-13T00:00:00	2024-11-08T12:00:00	7	Dirección del viento	8.05
12887	7	Sololá	712	San Antonio Palopó	9	San Antonio Palopo	10	Octubre	2023-10-13T00:00:00	2024-11-08T12:00:00	1	Precipitación	0
12888	7	Sololá	712	San Antonio Palopó	9	San Antonio Palopo	10	Octubre	2023-10-13T00:00:00	2024-11-08T12:00:00	8	Radiación solar	454
12889	7	Sololá	712	San Antonio Palopó	9	San Antonio Palopo	10	Octubre	2023-10-13T00:00:00	2024-11-08T13:00:00	2	Temperatura media	22.6
12890	7	Sololá	712	San Antonio Palopó	9	San Antonio Palopo	10	Octubre	2023-10-13T00:00:00	2024-11-08T13:00:00	4	Temperatura máxima	22.6
12891	7	Sololá	712	San Antonio Palopó	9	San Antonio Palopo	10	Octubre	2023-10-13T00:00:00	2024-11-08T13:00:00	3	Temperatura mínima	21.4
12892	7	Sololá	712	San Antonio Palopó	9	San Antonio Palopo	10	Octubre	2023-10-13T00:00:00	2024-11-08T13:00:00	5	Humedad	81
12893	7	Sololá	712	San Antonio Palopó	9	San Antonio Palopo	10	Octubre	2023-10-13T00:00:00	2024-11-08T13:00:00	6	Velocidad del viento	9.7
12894	7	Sololá	712	San Antonio Palopó	9	San Antonio Palopo	10	Octubre	2023-10-13T00:00:00	2024-11-08T13:00:00	7	Dirección del viento	9.66
12895	7	Sololá	712	San Antonio Palopó	9	San Antonio Palopo	10	Octubre	2023-10-13T00:00:00	2024-11-08T13:00:00	1	Precipitación	0
12896	7	Sololá	712	San Antonio Palopó	9	San Antonio Palopo	10	Octubre	2023-10-13T00:00:00	2024-11-08T13:00:00	8	Radiación solar	306
12897	7	Sololá	712	San Antonio Palopó	9	San Antonio Palopo	10	Octubre	2023-10-13T00:00:00	2024-11-08T14:00:00	2	Temperatura media	23
12898	7	Sololá	712	San Antonio Palopó	9	San Antonio Palopo	10	Octubre	2023-10-13T00:00:00	2024-11-08T14:00:00	4	Temperatura máxima	23.3
12899	7	Sololá	712	San Antonio Palopó	9	San Antonio Palopo	10	Octubre	2023-10-13T00:00:00	2024-11-08T14:00:00	3	Temperatura mínima	22.6
12900	7	Sololá	712	San Antonio Palopó	9	San Antonio Palopo	10	Octubre	2023-10-13T00:00:00	2024-11-08T14:00:00	5	Humedad	78
12901	7	Sololá	712	San Antonio Palopó	9	San Antonio Palopo	10	Octubre	2023-10-13T00:00:00	2024-11-08T14:00:00	6	Velocidad del viento	11.3
12902	7	Sololá	712	San Antonio Palopó	9	San Antonio Palopo	10	Octubre	2023-10-13T00:00:00	2024-11-08T14:00:00	7	Dirección del viento	11.27
12903	7	Sololá	712	San Antonio Palopó	9	San Antonio Palopo	10	Octubre	2023-10-13T00:00:00	2024-11-08T14:00:00	1	Precipitación	0
12904	7	Sololá	712	San Antonio Palopó	9	San Antonio Palopo	10	Octubre	2023-10-13T00:00:00	2024-11-08T14:00:00	8	Radiación solar	537
12905	7	Sololá	712	San Antonio Palopó	9	San Antonio Palopo	10	Octubre	2023-10-13T00:00:00	2024-11-08T15:00:00	2	Temperatura media	21.2
12906	7	Sololá	712	San Antonio Palopó	9	San Antonio Palopo	10	Octubre	2023-10-13T00:00:00	2024-11-08T15:00:00	4	Temperatura máxima	23
12907	7	Sololá	712	San Antonio Palopó	9	San Antonio Palopo	10	Octubre	2023-10-13T00:00:00	2024-11-08T15:00:00	3	Temperatura mínima	21.2
12908	7	Sololá	712	San Antonio Palopó	9	San Antonio Palopo	10	Octubre	2023-10-13T00:00:00	2024-11-08T15:00:00	5	Humedad	85
12909	7	Sololá	712	San Antonio Palopó	9	San Antonio Palopo	10	Octubre	2023-10-13T00:00:00	2024-11-08T15:00:00	6	Velocidad del viento	6.4
12910	7	Sololá	712	San Antonio Palopó	9	San Antonio Palopo	10	Octubre	2023-10-13T00:00:00	2024-11-08T15:00:00	7	Dirección del viento	6.44
12911	7	Sololá	712	San Antonio Palopó	9	San Antonio Palopo	10	Octubre	2023-10-13T00:00:00	2024-11-08T15:00:00	1	Precipitación	0
12912	7	Sololá	712	San Antonio Palopó	9	San Antonio Palopo	10	Octubre	2023-10-13T00:00:00	2024-11-08T15:00:00	8	Radiación solar	138
12913	7	Sololá	712	San Antonio Palopó	9	San Antonio Palopo	10	Octubre	2023-10-13T00:00:00	2024-11-08T16:00:00	2	Temperatura media	21.6
12914	7	Sololá	712	San Antonio Palopó	9	San Antonio Palopo	10	Octubre	2023-10-13T00:00:00	2024-11-08T16:00:00	4	Temperatura máxima	21.8
12915	7	Sololá	712	San Antonio Palopó	9	San Antonio Palopo	10	Octubre	2023-10-13T00:00:00	2024-11-08T16:00:00	3	Temperatura mínima	21.1
12916	7	Sololá	712	San Antonio Palopó	9	San Antonio Palopo	10	Octubre	2023-10-13T00:00:00	2024-11-08T16:00:00	5	Humedad	82
12917	7	Sololá	712	San Antonio Palopó	9	San Antonio Palopo	10	Octubre	2023-10-13T00:00:00	2024-11-08T16:00:00	6	Velocidad del viento	3.2
12918	7	Sololá	712	San Antonio Palopó	9	San Antonio Palopo	10	Octubre	2023-10-13T00:00:00	2024-11-08T16:00:00	7	Dirección del viento	3.22
12919	7	Sololá	712	San Antonio Palopó	9	San Antonio Palopo	10	Octubre	2023-10-13T00:00:00	2024-11-08T16:00:00	1	Precipitación	0
12920	7	Sololá	712	San Antonio Palopó	9	San Antonio Palopo	10	Octubre	2023-10-13T00:00:00	2024-11-08T16:00:00	8	Radiación solar	55
12921	7	Sololá	712	San Antonio Palopó	9	San Antonio Palopo	10	Octubre	2023-10-13T00:00:00	2024-11-08T17:00:00	2	Temperatura media	21.2
12922	7	Sololá	712	San Antonio Palopó	9	San Antonio Palopo	10	Octubre	2023-10-13T00:00:00	2024-11-08T17:00:00	4	Temperatura máxima	21.6
12923	7	Sololá	712	San Antonio Palopó	9	San Antonio Palopo	10	Octubre	2023-10-13T00:00:00	2024-11-08T17:00:00	3	Temperatura mínima	21.2
12924	7	Sololá	712	San Antonio Palopó	9	San Antonio Palopo	10	Octubre	2023-10-13T00:00:00	2024-11-08T17:00:00	5	Humedad	84
12925	7	Sololá	712	San Antonio Palopó	9	San Antonio Palopo	10	Octubre	2023-10-13T00:00:00	2024-11-08T17:00:00	6	Velocidad del viento	3.2
12926	7	Sololá	712	San Antonio Palopó	9	San Antonio Palopo	10	Octubre	2023-10-13T00:00:00	2024-11-08T17:00:00	7	Dirección del viento	3.22
12927	7	Sololá	712	San Antonio Palopó	9	San Antonio Palopo	10	Octubre	2023-10-13T00:00:00	2024-11-08T17:00:00	1	Precipitación	0
12928	7	Sololá	712	San Antonio Palopó	9	San Antonio Palopo	10	Octubre	2023-10-13T00:00:00	2024-11-08T17:00:00	8	Radiación solar	52
12929	7	Sololá	712	San Antonio Palopó	9	San Antonio Palopo	10	Octubre	2023-10-13T00:00:00	2024-11-08T18:00:00	2	Temperatura media	21.1
12930	7	Sololá	712	San Antonio Palopó	9	San Antonio Palopo	10	Octubre	2023-10-13T00:00:00	2024-11-08T18:00:00	4	Temperatura máxima	21.3
12931	7	Sololá	712	San Antonio Palopó	9	San Antonio Palopo	10	Octubre	2023-10-13T00:00:00	2024-11-08T18:00:00	3	Temperatura mínima	20.8
12932	7	Sololá	712	San Antonio Palopó	9	San Antonio Palopo	10	Octubre	2023-10-13T00:00:00	2024-11-08T18:00:00	5	Humedad	85
12933	7	Sololá	712	San Antonio Palopó	9	San Antonio Palopo	10	Octubre	2023-10-13T00:00:00	2024-11-08T18:00:00	6	Velocidad del viento	1.6
12934	7	Sololá	712	San Antonio Palopó	9	San Antonio Palopo	10	Octubre	2023-10-13T00:00:00	2024-11-08T18:00:00	7	Dirección del viento	1.61
12935	7	Sololá	712	San Antonio Palopó	9	San Antonio Palopo	10	Octubre	2023-10-13T00:00:00	2024-11-08T18:00:00	1	Precipitación	0
12936	7	Sololá	712	San Antonio Palopó	9	San Antonio Palopo	10	Octubre	2023-10-13T00:00:00	2024-11-08T18:00:00	8	Radiación solar	6
12937	7	Sololá	712	San Antonio Palopó	9	San Antonio Palopo	10	Octubre	2023-10-13T00:00:00	2024-11-08T19:00:00	2	Temperatura media	20.9
12938	7	Sololá	712	San Antonio Palopó	9	San Antonio Palopo	10	Octubre	2023-10-13T00:00:00	2024-11-08T19:00:00	4	Temperatura máxima	21.2
12939	7	Sololá	712	San Antonio Palopó	9	San Antonio Palopo	10	Octubre	2023-10-13T00:00:00	2024-11-08T19:00:00	3	Temperatura mínima	20.7
12940	7	Sololá	712	San Antonio Palopó	9	San Antonio Palopo	10	Octubre	2023-10-13T00:00:00	2024-11-08T19:00:00	5	Humedad	86
12941	7	Sololá	712	San Antonio Palopó	9	San Antonio Palopo	10	Octubre	2023-10-13T00:00:00	2024-11-08T19:00:00	6	Velocidad del viento	3.2
12942	7	Sololá	712	San Antonio Palopó	9	San Antonio Palopo	10	Octubre	2023-10-13T00:00:00	2024-11-08T19:00:00	7	Dirección del viento	3.22
12943	7	Sololá	712	San Antonio Palopó	9	San Antonio Palopo	10	Octubre	2023-10-13T00:00:00	2024-11-08T19:00:00	1	Precipitación	0
12944	7	Sololá	712	San Antonio Palopó	9	San Antonio Palopo	10	Octubre	2023-10-13T00:00:00	2024-11-08T19:00:00	8	Radiación solar	0
12945	7	Sololá	712	San Antonio Palopó	9	San Antonio Palopo	10	Octubre	2023-10-13T00:00:00	2024-11-08T20:00:00	2	Temperatura media	20.2
12946	7	Sololá	712	San Antonio Palopó	9	San Antonio Palopo	10	Octubre	2023-10-13T00:00:00	2024-11-08T20:00:00	4	Temperatura máxima	20.9
12947	7	Sololá	712	San Antonio Palopó	9	San Antonio Palopo	10	Octubre	2023-10-13T00:00:00	2024-11-08T20:00:00	3	Temperatura mínima	19.9
12948	7	Sololá	712	San Antonio Palopó	9	San Antonio Palopo	10	Octubre	2023-10-13T00:00:00	2024-11-08T20:00:00	5	Humedad	88
12949	7	Sololá	712	San Antonio Palopó	9	San Antonio Palopo	10	Octubre	2023-10-13T00:00:00	2024-11-08T20:00:00	6	Velocidad del viento	3.2
12950	7	Sololá	712	San Antonio Palopó	9	San Antonio Palopo	10	Octubre	2023-10-13T00:00:00	2024-11-08T20:00:00	7	Dirección del viento	3.22
12951	7	Sololá	712	San Antonio Palopó	9	San Antonio Palopo	10	Octubre	2023-10-13T00:00:00	2024-11-08T20:00:00	1	Precipitación	0
12952	7	Sololá	712	San Antonio Palopó	9	San Antonio Palopo	10	Octubre	2023-10-13T00:00:00	2024-11-08T20:00:00	8	Radiación solar	0
12953	7	Sololá	712	San Antonio Palopó	9	San Antonio Palopo	10	Octubre	2023-10-13T00:00:00	2024-11-08T21:00:00	2	Temperatura media	20.1
12954	7	Sololá	712	San Antonio Palopó	9	San Antonio Palopo	10	Octubre	2023-10-13T00:00:00	2024-11-08T21:00:00	4	Temperatura máxima	20.4
12955	7	Sololá	712	San Antonio Palopó	9	San Antonio Palopo	10	Octubre	2023-10-13T00:00:00	2024-11-08T21:00:00	3	Temperatura mínima	20.1
12956	7	Sololá	712	San Antonio Palopó	9	San Antonio Palopo	10	Octubre	2023-10-13T00:00:00	2024-11-08T21:00:00	5	Humedad	86
12957	7	Sololá	712	San Antonio Palopó	9	San Antonio Palopo	10	Octubre	2023-10-13T00:00:00	2024-11-08T21:00:00	6	Velocidad del viento	1.6
12958	7	Sololá	712	San Antonio Palopó	9	San Antonio Palopo	10	Octubre	2023-10-13T00:00:00	2024-11-08T21:00:00	7	Dirección del viento	1.61
12959	7	Sololá	712	San Antonio Palopó	9	San Antonio Palopo	10	Octubre	2023-10-13T00:00:00	2024-11-08T21:00:00	1	Precipitación	0
12960	7	Sololá	712	San Antonio Palopó	9	San Antonio Palopo	10	Octubre	2023-10-13T00:00:00	2024-11-08T21:00:00	8	Radiación solar	0
12961	7	Sololá	712	San Antonio Palopó	9	San Antonio Palopo	10	Octubre	2023-10-13T00:00:00	2024-11-08T22:00:00	2	Temperatura media	19.7
12962	7	Sololá	712	San Antonio Palopó	9	San Antonio Palopo	10	Octubre	2023-10-13T00:00:00	2024-11-08T22:00:00	4	Temperatura máxima	20.1
12963	7	Sololá	712	San Antonio Palopó	9	San Antonio Palopo	10	Octubre	2023-10-13T00:00:00	2024-11-08T22:00:00	3	Temperatura mínima	19.6
12964	7	Sololá	712	San Antonio Palopó	9	San Antonio Palopo	10	Octubre	2023-10-13T00:00:00	2024-11-08T22:00:00	5	Humedad	88
12965	7	Sololá	712	San Antonio Palopó	9	San Antonio Palopo	10	Octubre	2023-10-13T00:00:00	2024-11-08T22:00:00	6	Velocidad del viento	1.6
12966	7	Sololá	712	San Antonio Palopó	9	San Antonio Palopo	10	Octubre	2023-10-13T00:00:00	2024-11-08T22:00:00	7	Dirección del viento	1.61
12967	7	Sololá	712	San Antonio Palopó	9	San Antonio Palopo	10	Octubre	2023-10-13T00:00:00	2024-11-08T22:00:00	1	Precipitación	0
12968	7	Sololá	712	San Antonio Palopó	9	San Antonio Palopo	10	Octubre	2023-10-13T00:00:00	2024-11-08T22:00:00	8	Radiación solar	0
12969	7	Sololá	712	San Antonio Palopó	9	San Antonio Palopo	10	Octubre	2023-10-13T00:00:00	2024-11-08T23:00:00	2	Temperatura media	20.4
12970	7	Sololá	712	San Antonio Palopó	9	San Antonio Palopo	10	Octubre	2023-10-13T00:00:00	2024-11-08T23:00:00	4	Temperatura máxima	20.4
12971	7	Sololá	712	San Antonio Palopó	9	San Antonio Palopo	10	Octubre	2023-10-13T00:00:00	2024-11-08T23:00:00	3	Temperatura mínima	19.7
12972	7	Sololá	712	San Antonio Palopó	9	San Antonio Palopo	10	Octubre	2023-10-13T00:00:00	2024-11-08T23:00:00	5	Humedad	81
12973	7	Sololá	712	San Antonio Palopó	9	San Antonio Palopo	10	Octubre	2023-10-13T00:00:00	2024-11-08T23:00:00	6	Velocidad del viento	4.8
12974	7	Sololá	712	San Antonio Palopó	9	San Antonio Palopo	10	Octubre	2023-10-13T00:00:00	2024-11-08T23:00:00	7	Dirección del viento	4.83
12975	7	Sololá	712	San Antonio Palopó	9	San Antonio Palopo	10	Octubre	2023-10-13T00:00:00	2024-11-08T23:00:00	1	Precipitación	0
12976	7	Sololá	712	San Antonio Palopó	9	San Antonio Palopo	10	Octubre	2023-10-13T00:00:00	2024-11-08T23:00:00	8	Radiación solar	0
12977	7	Sololá	712	San Antonio Palopó	9	San Antonio Palopo	10	Octubre	2023-10-14T00:00:00	2024-11-08T00:00:00	2	Temperatura media	20.3
12978	7	Sololá	712	San Antonio Palopó	9	San Antonio Palopo	10	Octubre	2023-10-14T00:00:00	2024-11-08T00:00:00	4	Temperatura máxima	20.6
12979	7	Sololá	712	San Antonio Palopó	9	San Antonio Palopo	10	Octubre	2023-10-14T00:00:00	2024-11-08T00:00:00	3	Temperatura mínima	20.2
12980	7	Sololá	712	San Antonio Palopó	9	San Antonio Palopo	10	Octubre	2023-10-14T00:00:00	2024-11-08T00:00:00	5	Humedad	81
12981	7	Sololá	712	San Antonio Palopó	9	San Antonio Palopo	10	Octubre	2023-10-14T00:00:00	2024-11-08T00:00:00	6	Velocidad del viento	6.4
12982	7	Sololá	712	San Antonio Palopó	9	San Antonio Palopo	10	Octubre	2023-10-14T00:00:00	2024-11-08T00:00:00	7	Dirección del viento	6.44
12983	7	Sololá	712	San Antonio Palopó	9	San Antonio Palopo	10	Octubre	2023-10-14T00:00:00	2024-11-08T00:00:00	1	Precipitación	0
12984	7	Sololá	712	San Antonio Palopó	9	San Antonio Palopo	10	Octubre	2023-10-14T00:00:00	2024-11-08T00:00:00	8	Radiación solar	0
12985	7	Sololá	712	San Antonio Palopó	9	San Antonio Palopo	10	Octubre	2023-10-14T00:00:00	2024-11-08T01:00:00	2	Temperatura media	19.8
12986	7	Sololá	712	San Antonio Palopó	9	San Antonio Palopo	10	Octubre	2023-10-14T00:00:00	2024-11-08T01:00:00	4	Temperatura máxima	20.3
12987	7	Sololá	712	San Antonio Palopó	9	San Antonio Palopo	10	Octubre	2023-10-14T00:00:00	2024-11-08T01:00:00	3	Temperatura mínima	19.4
12988	7	Sololá	712	San Antonio Palopó	9	San Antonio Palopo	10	Octubre	2023-10-14T00:00:00	2024-11-08T01:00:00	5	Humedad	81
12989	7	Sololá	712	San Antonio Palopó	9	San Antonio Palopo	10	Octubre	2023-10-14T00:00:00	2024-11-08T01:00:00	6	Velocidad del viento	3.2
12990	7	Sololá	712	San Antonio Palopó	9	San Antonio Palopo	10	Octubre	2023-10-14T00:00:00	2024-11-08T01:00:00	7	Dirección del viento	3.22
12991	7	Sololá	712	San Antonio Palopó	9	San Antonio Palopo	10	Octubre	2023-10-14T00:00:00	2024-11-08T01:00:00	1	Precipitación	0
12992	7	Sololá	712	San Antonio Palopó	9	San Antonio Palopo	10	Octubre	2023-10-14T00:00:00	2024-11-08T01:00:00	8	Radiación solar	0
12993	7	Sololá	712	San Antonio Palopó	9	San Antonio Palopo	10	Octubre	2023-10-14T00:00:00	2024-11-08T02:00:00	2	Temperatura media	20.3
12994	7	Sololá	712	San Antonio Palopó	9	San Antonio Palopo	10	Octubre	2023-10-14T00:00:00	2024-11-08T02:00:00	4	Temperatura máxima	20.5
12995	7	Sololá	712	San Antonio Palopó	9	San Antonio Palopo	10	Octubre	2023-10-14T00:00:00	2024-11-08T02:00:00	3	Temperatura mínima	19.6
12996	7	Sololá	712	San Antonio Palopó	9	San Antonio Palopo	10	Octubre	2023-10-14T00:00:00	2024-11-08T02:00:00	5	Humedad	76
12997	7	Sololá	712	San Antonio Palopó	9	San Antonio Palopo	10	Octubre	2023-10-14T00:00:00	2024-11-08T02:00:00	6	Velocidad del viento	8
12998	7	Sololá	712	San Antonio Palopó	9	San Antonio Palopo	10	Octubre	2023-10-14T00:00:00	2024-11-08T02:00:00	7	Dirección del viento	8.05
12999	7	Sololá	712	San Antonio Palopó	9	San Antonio Palopo	10	Octubre	2023-10-14T00:00:00	2024-11-08T02:00:00	1	Precipitación	0
13000	7	Sololá	712	San Antonio Palopó	9	San Antonio Palopo	10	Octubre	2023-10-14T00:00:00	2024-11-08T02:00:00	8	Radiación solar	0
13001	7	Sololá	712	San Antonio Palopó	9	San Antonio Palopo	10	Octubre	2023-10-14T00:00:00	2024-11-08T03:00:00	2	Temperatura media	19.6
13002	7	Sololá	712	San Antonio Palopó	9	San Antonio Palopo	10	Octubre	2023-10-14T00:00:00	2024-11-08T03:00:00	4	Temperatura máxima	20.3
13003	7	Sololá	712	San Antonio Palopó	9	San Antonio Palopo	10	Octubre	2023-10-14T00:00:00	2024-11-08T03:00:00	3	Temperatura mínima	19.6
13004	7	Sololá	712	San Antonio Palopó	9	San Antonio Palopo	10	Octubre	2023-10-14T00:00:00	2024-11-08T03:00:00	5	Humedad	78
13005	7	Sololá	712	San Antonio Palopó	9	San Antonio Palopo	10	Octubre	2023-10-14T00:00:00	2024-11-08T03:00:00	6	Velocidad del viento	6.4
13006	7	Sololá	712	San Antonio Palopó	9	San Antonio Palopo	10	Octubre	2023-10-14T00:00:00	2024-11-08T03:00:00	7	Dirección del viento	6.44
13007	7	Sololá	712	San Antonio Palopó	9	San Antonio Palopo	10	Octubre	2023-10-14T00:00:00	2024-11-08T03:00:00	1	Precipitación	0
13008	7	Sololá	712	San Antonio Palopó	9	San Antonio Palopo	10	Octubre	2023-10-14T00:00:00	2024-11-08T03:00:00	8	Radiación solar	0
13009	7	Sololá	712	San Antonio Palopó	9	San Antonio Palopo	10	Octubre	2023-10-14T00:00:00	2024-11-08T04:00:00	2	Temperatura media	19.9
13010	7	Sololá	712	San Antonio Palopó	9	San Antonio Palopo	10	Octubre	2023-10-14T00:00:00	2024-11-08T04:00:00	4	Temperatura máxima	19.9
13011	7	Sololá	712	San Antonio Palopó	9	San Antonio Palopo	10	Octubre	2023-10-14T00:00:00	2024-11-08T04:00:00	3	Temperatura mínima	19.4
13012	7	Sololá	712	San Antonio Palopó	9	San Antonio Palopo	10	Octubre	2023-10-14T00:00:00	2024-11-08T04:00:00	5	Humedad	76
13013	7	Sololá	712	San Antonio Palopó	9	San Antonio Palopo	10	Octubre	2023-10-14T00:00:00	2024-11-08T04:00:00	6	Velocidad del viento	8
13014	7	Sololá	712	San Antonio Palopó	9	San Antonio Palopo	10	Octubre	2023-10-14T00:00:00	2024-11-08T04:00:00	7	Dirección del viento	8.05
13015	7	Sololá	712	San Antonio Palopó	9	San Antonio Palopo	10	Octubre	2023-10-14T00:00:00	2024-11-08T04:00:00	1	Precipitación	0
13016	7	Sololá	712	San Antonio Palopó	9	San Antonio Palopo	10	Octubre	2023-10-14T00:00:00	2024-11-08T04:00:00	8	Radiación solar	0
13017	7	Sololá	712	San Antonio Palopó	9	San Antonio Palopo	10	Octubre	2023-10-14T00:00:00	2024-11-08T05:00:00	2	Temperatura media	20.2
13018	7	Sololá	712	San Antonio Palopó	9	San Antonio Palopo	10	Octubre	2023-10-14T00:00:00	2024-11-08T05:00:00	4	Temperatura máxima	20.2
13019	7	Sololá	712	San Antonio Palopó	9	San Antonio Palopo	10	Octubre	2023-10-14T00:00:00	2024-11-08T05:00:00	3	Temperatura mínima	19.6
13020	7	Sololá	712	San Antonio Palopó	9	San Antonio Palopo	10	Octubre	2023-10-14T00:00:00	2024-11-08T05:00:00	5	Humedad	75
13021	7	Sololá	712	San Antonio Palopó	9	San Antonio Palopo	10	Octubre	2023-10-14T00:00:00	2024-11-08T05:00:00	6	Velocidad del viento	8
13022	7	Sololá	712	San Antonio Palopó	9	San Antonio Palopo	10	Octubre	2023-10-14T00:00:00	2024-11-08T05:00:00	7	Dirección del viento	8.05
13023	7	Sololá	712	San Antonio Palopó	9	San Antonio Palopo	10	Octubre	2023-10-14T00:00:00	2024-11-08T05:00:00	1	Precipitación	0
13024	7	Sololá	712	San Antonio Palopó	9	San Antonio Palopo	10	Octubre	2023-10-14T00:00:00	2024-11-08T05:00:00	8	Radiación solar	0
13025	7	Sololá	712	San Antonio Palopó	9	San Antonio Palopo	10	Octubre	2023-10-14T00:00:00	2024-11-08T06:00:00	2	Temperatura media	19.8
13026	7	Sololá	712	San Antonio Palopó	9	San Antonio Palopo	10	Octubre	2023-10-14T00:00:00	2024-11-08T06:00:00	4	Temperatura máxima	20.3
13027	7	Sololá	712	San Antonio Palopó	9	San Antonio Palopo	10	Octubre	2023-10-14T00:00:00	2024-11-08T06:00:00	3	Temperatura mínima	19.6
13028	7	Sololá	712	San Antonio Palopó	9	San Antonio Palopo	10	Octubre	2023-10-14T00:00:00	2024-11-08T06:00:00	5	Humedad	75
13029	7	Sololá	712	San Antonio Palopó	9	San Antonio Palopo	10	Octubre	2023-10-14T00:00:00	2024-11-08T06:00:00	6	Velocidad del viento	8
13030	7	Sololá	712	San Antonio Palopó	9	San Antonio Palopo	10	Octubre	2023-10-14T00:00:00	2024-11-08T06:00:00	7	Dirección del viento	8.05
13031	7	Sololá	712	San Antonio Palopó	9	San Antonio Palopo	10	Octubre	2023-10-14T00:00:00	2024-11-08T06:00:00	1	Precipitación	0
13032	7	Sololá	712	San Antonio Palopó	9	San Antonio Palopo	10	Octubre	2023-10-14T00:00:00	2024-11-08T06:00:00	8	Radiación solar	0
13033	7	Sololá	712	San Antonio Palopó	9	San Antonio Palopo	10	Octubre	2023-10-14T00:00:00	2024-11-08T07:00:00	2	Temperatura media	20.3
13034	7	Sololá	712	San Antonio Palopó	9	San Antonio Palopo	10	Octubre	2023-10-14T00:00:00	2024-11-08T07:00:00	4	Temperatura máxima	20.3
13035	7	Sololá	712	San Antonio Palopó	9	San Antonio Palopo	10	Octubre	2023-10-14T00:00:00	2024-11-08T07:00:00	3	Temperatura mínima	19.9
13036	7	Sololá	712	San Antonio Palopó	9	San Antonio Palopo	10	Octubre	2023-10-14T00:00:00	2024-11-08T07:00:00	5	Humedad	73
13037	7	Sololá	712	San Antonio Palopó	9	San Antonio Palopo	10	Octubre	2023-10-14T00:00:00	2024-11-08T07:00:00	6	Velocidad del viento	8
13038	7	Sololá	712	San Antonio Palopó	9	San Antonio Palopo	10	Octubre	2023-10-14T00:00:00	2024-11-08T07:00:00	7	Dirección del viento	8.05
13039	7	Sololá	712	San Antonio Palopó	9	San Antonio Palopo	10	Octubre	2023-10-14T00:00:00	2024-11-08T07:00:00	1	Precipitación	0
13040	7	Sololá	712	San Antonio Palopó	9	San Antonio Palopo	10	Octubre	2023-10-14T00:00:00	2024-11-08T07:00:00	8	Radiación solar	15
13041	7	Sololá	712	San Antonio Palopó	9	San Antonio Palopo	10	Octubre	2023-10-14T00:00:00	2024-11-08T08:00:00	2	Temperatura media	20.3
13042	7	Sololá	712	San Antonio Palopó	9	San Antonio Palopo	10	Octubre	2023-10-14T00:00:00	2024-11-08T08:00:00	4	Temperatura máxima	20.3
13043	7	Sololá	712	San Antonio Palopó	9	San Antonio Palopo	10	Octubre	2023-10-14T00:00:00	2024-11-08T08:00:00	3	Temperatura mínima	18.9
13044	7	Sololá	712	San Antonio Palopó	9	San Antonio Palopo	10	Octubre	2023-10-14T00:00:00	2024-11-08T08:00:00	5	Humedad	78
13045	7	Sololá	712	San Antonio Palopó	9	San Antonio Palopo	10	Octubre	2023-10-14T00:00:00	2024-11-08T08:00:00	6	Velocidad del viento	3.2
13046	7	Sololá	712	San Antonio Palopó	9	San Antonio Palopo	10	Octubre	2023-10-14T00:00:00	2024-11-08T08:00:00	7	Dirección del viento	3.22
13047	7	Sololá	712	San Antonio Palopó	9	San Antonio Palopo	10	Octubre	2023-10-14T00:00:00	2024-11-08T08:00:00	1	Precipitación	0
13048	7	Sololá	712	San Antonio Palopó	9	San Antonio Palopo	10	Octubre	2023-10-14T00:00:00	2024-11-08T08:00:00	8	Radiación solar	123
13049	7	Sololá	712	San Antonio Palopó	9	San Antonio Palopo	10	Octubre	2023-10-14T00:00:00	2024-11-08T09:00:00	2	Temperatura media	23.1
13050	7	Sololá	712	San Antonio Palopó	9	San Antonio Palopo	10	Octubre	2023-10-14T00:00:00	2024-11-08T09:00:00	4	Temperatura máxima	23.1
13051	7	Sololá	712	San Antonio Palopó	9	San Antonio Palopo	10	Octubre	2023-10-14T00:00:00	2024-11-08T09:00:00	3	Temperatura mínima	20.3
13052	7	Sololá	712	San Antonio Palopó	9	San Antonio Palopo	10	Octubre	2023-10-14T00:00:00	2024-11-08T09:00:00	5	Humedad	70
13053	7	Sololá	712	San Antonio Palopó	9	San Antonio Palopo	10	Octubre	2023-10-14T00:00:00	2024-11-08T09:00:00	6	Velocidad del viento	3.2
13054	7	Sololá	712	San Antonio Palopó	9	San Antonio Palopo	10	Octubre	2023-10-14T00:00:00	2024-11-08T09:00:00	7	Dirección del viento	3.22
13055	7	Sololá	712	San Antonio Palopó	9	San Antonio Palopo	10	Octubre	2023-10-14T00:00:00	2024-11-08T09:00:00	1	Precipitación	0
13056	7	Sololá	712	San Antonio Palopó	9	San Antonio Palopo	10	Octubre	2023-10-14T00:00:00	2024-11-08T09:00:00	8	Radiación solar	498
13057	7	Sololá	712	San Antonio Palopó	9	San Antonio Palopo	10	Octubre	2023-10-14T00:00:00	2024-11-08T10:00:00	2	Temperatura media	23.6
13058	7	Sololá	712	San Antonio Palopó	9	San Antonio Palopo	10	Octubre	2023-10-14T00:00:00	2024-11-08T10:00:00	4	Temperatura máxima	23.6
13059	7	Sololá	712	San Antonio Palopó	9	San Antonio Palopo	10	Octubre	2023-10-14T00:00:00	2024-11-08T10:00:00	3	Temperatura mínima	22.7
13060	7	Sololá	712	San Antonio Palopó	9	San Antonio Palopo	10	Octubre	2023-10-14T00:00:00	2024-11-08T10:00:00	5	Humedad	69
13061	7	Sololá	712	San Antonio Palopó	9	San Antonio Palopo	10	Octubre	2023-10-14T00:00:00	2024-11-08T10:00:00	6	Velocidad del viento	3.2
13062	7	Sololá	712	San Antonio Palopó	9	San Antonio Palopo	10	Octubre	2023-10-14T00:00:00	2024-11-08T10:00:00	7	Dirección del viento	3.22
13063	7	Sololá	712	San Antonio Palopó	9	San Antonio Palopo	10	Octubre	2023-10-14T00:00:00	2024-11-08T10:00:00	1	Precipitación	0
13064	7	Sololá	712	San Antonio Palopó	9	San Antonio Palopo	10	Octubre	2023-10-14T00:00:00	2024-11-08T10:00:00	8	Radiación solar	718
13065	7	Sololá	712	San Antonio Palopó	9	San Antonio Palopo	10	Octubre	2023-10-14T00:00:00	2024-11-08T11:00:00	2	Temperatura media	23.2
13066	7	Sololá	712	San Antonio Palopó	9	San Antonio Palopo	10	Octubre	2023-10-14T00:00:00	2024-11-08T11:00:00	4	Temperatura máxima	24.4
13067	7	Sololá	712	San Antonio Palopó	9	San Antonio Palopo	10	Octubre	2023-10-14T00:00:00	2024-11-08T11:00:00	3	Temperatura mínima	23.1
13068	7	Sololá	712	San Antonio Palopó	9	San Antonio Palopo	10	Octubre	2023-10-14T00:00:00	2024-11-08T11:00:00	5	Humedad	76
13069	7	Sololá	712	San Antonio Palopó	9	San Antonio Palopo	10	Octubre	2023-10-14T00:00:00	2024-11-08T11:00:00	6	Velocidad del viento	4.8
13070	7	Sololá	712	San Antonio Palopó	9	San Antonio Palopo	10	Octubre	2023-10-14T00:00:00	2024-11-08T11:00:00	7	Dirección del viento	4.83
13071	7	Sololá	712	San Antonio Palopó	9	San Antonio Palopo	10	Octubre	2023-10-14T00:00:00	2024-11-08T11:00:00	1	Precipitación	0
13072	7	Sololá	712	San Antonio Palopó	9	San Antonio Palopo	10	Octubre	2023-10-14T00:00:00	2024-11-08T11:00:00	8	Radiación solar	514
13073	7	Sololá	712	San Antonio Palopó	9	San Antonio Palopo	10	Octubre	2023-10-14T00:00:00	2024-11-08T12:00:00	2	Temperatura media	22.8
13074	7	Sololá	712	San Antonio Palopó	9	San Antonio Palopo	10	Octubre	2023-10-14T00:00:00	2024-11-08T12:00:00	4	Temperatura máxima	23.4
13075	7	Sololá	712	San Antonio Palopó	9	San Antonio Palopo	10	Octubre	2023-10-14T00:00:00	2024-11-08T12:00:00	3	Temperatura mínima	22.7
13076	7	Sololá	712	San Antonio Palopó	9	San Antonio Palopo	10	Octubre	2023-10-14T00:00:00	2024-11-08T12:00:00	5	Humedad	79
13077	7	Sololá	712	San Antonio Palopó	9	San Antonio Palopo	10	Octubre	2023-10-14T00:00:00	2024-11-08T12:00:00	6	Velocidad del viento	3.2
13078	7	Sololá	712	San Antonio Palopó	9	San Antonio Palopo	10	Octubre	2023-10-14T00:00:00	2024-11-08T12:00:00	7	Dirección del viento	3.22
13079	7	Sololá	712	San Antonio Palopó	9	San Antonio Palopo	10	Octubre	2023-10-14T00:00:00	2024-11-08T12:00:00	1	Precipitación	0
13080	7	Sololá	712	San Antonio Palopó	9	San Antonio Palopo	10	Octubre	2023-10-14T00:00:00	2024-11-08T12:00:00	8	Radiación solar	137
13081	7	Sololá	712	San Antonio Palopó	9	San Antonio Palopo	10	Octubre	2023-10-14T00:00:00	2024-11-08T13:00:00	2	Temperatura media	23.7
13082	7	Sololá	712	San Antonio Palopó	9	San Antonio Palopo	10	Octubre	2023-10-14T00:00:00	2024-11-08T13:00:00	4	Temperatura máxima	23.9
13083	7	Sololá	712	San Antonio Palopó	9	San Antonio Palopo	10	Octubre	2023-10-14T00:00:00	2024-11-08T13:00:00	3	Temperatura mínima	21.8
13084	7	Sololá	712	San Antonio Palopó	9	San Antonio Palopo	10	Octubre	2023-10-14T00:00:00	2024-11-08T13:00:00	5	Humedad	75
13085	7	Sololá	712	San Antonio Palopó	9	San Antonio Palopo	10	Octubre	2023-10-14T00:00:00	2024-11-08T13:00:00	6	Velocidad del viento	6.4
13086	7	Sololá	712	San Antonio Palopó	9	San Antonio Palopo	10	Octubre	2023-10-14T00:00:00	2024-11-08T13:00:00	7	Dirección del viento	6.44
13087	7	Sololá	712	San Antonio Palopó	9	San Antonio Palopo	10	Octubre	2023-10-14T00:00:00	2024-11-08T13:00:00	1	Precipitación	0
13088	7	Sololá	712	San Antonio Palopó	9	San Antonio Palopo	10	Octubre	2023-10-14T00:00:00	2024-11-08T13:00:00	8	Radiación solar	563
13089	7	Sololá	712	San Antonio Palopó	9	San Antonio Palopo	10	Octubre	2023-10-14T00:00:00	2024-11-08T14:00:00	2	Temperatura media	23.2
13090	7	Sololá	712	San Antonio Palopó	9	San Antonio Palopo	10	Octubre	2023-10-14T00:00:00	2024-11-08T14:00:00	4	Temperatura máxima	24.1
13091	7	Sololá	712	San Antonio Palopó	9	San Antonio Palopo	10	Octubre	2023-10-14T00:00:00	2024-11-08T14:00:00	3	Temperatura mínima	23.1
13092	7	Sololá	712	San Antonio Palopó	9	San Antonio Palopo	10	Octubre	2023-10-14T00:00:00	2024-11-08T14:00:00	5	Humedad	78
13093	7	Sololá	712	San Antonio Palopó	9	San Antonio Palopo	10	Octubre	2023-10-14T00:00:00	2024-11-08T14:00:00	6	Velocidad del viento	3.2
13094	7	Sololá	712	San Antonio Palopó	9	San Antonio Palopo	10	Octubre	2023-10-14T00:00:00	2024-11-08T14:00:00	7	Dirección del viento	3.22
13095	7	Sololá	712	San Antonio Palopó	9	San Antonio Palopo	10	Octubre	2023-10-14T00:00:00	2024-11-08T14:00:00	1	Precipitación	0
13096	7	Sololá	712	San Antonio Palopó	9	San Antonio Palopo	10	Octubre	2023-10-14T00:00:00	2024-11-08T14:00:00	8	Radiación solar	490
13097	7	Sololá	712	San Antonio Palopó	9	San Antonio Palopo	10	Octubre	2023-10-14T00:00:00	2024-11-08T15:00:00	2	Temperatura media	22.5
13098	7	Sololá	712	San Antonio Palopó	9	San Antonio Palopo	10	Octubre	2023-10-14T00:00:00	2024-11-08T15:00:00	4	Temperatura máxima	24.8
13099	7	Sololá	712	San Antonio Palopó	9	San Antonio Palopo	10	Octubre	2023-10-14T00:00:00	2024-11-08T15:00:00	3	Temperatura mínima	22.4
13100	7	Sololá	712	San Antonio Palopó	9	San Antonio Palopo	10	Octubre	2023-10-14T00:00:00	2024-11-08T15:00:00	5	Humedad	81
13101	7	Sololá	712	San Antonio Palopó	9	San Antonio Palopo	10	Octubre	2023-10-14T00:00:00	2024-11-08T15:00:00	6	Velocidad del viento	3.2
13102	7	Sololá	712	San Antonio Palopó	9	San Antonio Palopo	10	Octubre	2023-10-14T00:00:00	2024-11-08T15:00:00	7	Dirección del viento	3.22
13103	7	Sololá	712	San Antonio Palopó	9	San Antonio Palopo	10	Octubre	2023-10-14T00:00:00	2024-11-08T15:00:00	1	Precipitación	0
13104	7	Sololá	712	San Antonio Palopó	9	San Antonio Palopo	10	Octubre	2023-10-14T00:00:00	2024-11-08T15:00:00	8	Radiación solar	299
13105	7	Sololá	712	San Antonio Palopó	9	San Antonio Palopo	10	Octubre	2023-10-14T00:00:00	2024-11-08T16:00:00	2	Temperatura media	22.3
13106	7	Sololá	712	San Antonio Palopó	9	San Antonio Palopo	10	Octubre	2023-10-14T00:00:00	2024-11-08T16:00:00	4	Temperatura máxima	22.5
13107	7	Sololá	712	San Antonio Palopó	9	San Antonio Palopo	10	Octubre	2023-10-14T00:00:00	2024-11-08T16:00:00	3	Temperatura mínima	21.4
13108	7	Sololá	712	San Antonio Palopó	9	San Antonio Palopo	10	Octubre	2023-10-14T00:00:00	2024-11-08T16:00:00	5	Humedad	81
13109	7	Sololá	712	San Antonio Palopó	9	San Antonio Palopo	10	Octubre	2023-10-14T00:00:00	2024-11-08T16:00:00	6	Velocidad del viento	6.4
13110	7	Sololá	712	San Antonio Palopó	9	San Antonio Palopo	10	Octubre	2023-10-14T00:00:00	2024-11-08T16:00:00	7	Dirección del viento	6.44
13111	7	Sololá	712	San Antonio Palopó	9	San Antonio Palopo	10	Octubre	2023-10-14T00:00:00	2024-11-08T16:00:00	1	Precipitación	0
13112	7	Sololá	712	San Antonio Palopó	9	San Antonio Palopo	10	Octubre	2023-10-14T00:00:00	2024-11-08T16:00:00	8	Radiación solar	232
13113	7	Sololá	712	San Antonio Palopó	9	San Antonio Palopo	10	Octubre	2023-10-14T00:00:00	2024-11-08T17:00:00	2	Temperatura media	21.8
13114	7	Sololá	712	San Antonio Palopó	9	San Antonio Palopo	10	Octubre	2023-10-14T00:00:00	2024-11-08T17:00:00	4	Temperatura máxima	22.6
13115	7	Sololá	712	San Antonio Palopó	9	San Antonio Palopo	10	Octubre	2023-10-14T00:00:00	2024-11-08T17:00:00	3	Temperatura mínima	21.8
13116	7	Sololá	712	San Antonio Palopó	9	San Antonio Palopo	10	Octubre	2023-10-14T00:00:00	2024-11-08T17:00:00	5	Humedad	84
13117	7	Sololá	712	San Antonio Palopó	9	San Antonio Palopo	10	Octubre	2023-10-14T00:00:00	2024-11-08T17:00:00	6	Velocidad del viento	3.2
13118	7	Sololá	712	San Antonio Palopó	9	San Antonio Palopo	10	Octubre	2023-10-14T00:00:00	2024-11-08T17:00:00	7	Dirección del viento	3.22
13119	7	Sololá	712	San Antonio Palopó	9	San Antonio Palopo	10	Octubre	2023-10-14T00:00:00	2024-11-08T17:00:00	1	Precipitación	0
13120	7	Sololá	712	San Antonio Palopó	9	San Antonio Palopo	10	Octubre	2023-10-14T00:00:00	2024-11-08T17:00:00	8	Radiación solar	90
13121	7	Sololá	712	San Antonio Palopó	9	San Antonio Palopo	10	Octubre	2023-10-14T00:00:00	2024-11-08T18:00:00	2	Temperatura media	20.7
13122	7	Sololá	712	San Antonio Palopó	9	San Antonio Palopo	10	Octubre	2023-10-14T00:00:00	2024-11-08T18:00:00	4	Temperatura máxima	21.9
13123	7	Sololá	712	San Antonio Palopó	9	San Antonio Palopo	10	Octubre	2023-10-14T00:00:00	2024-11-08T18:00:00	3	Temperatura mínima	20.7
13124	7	Sololá	712	San Antonio Palopó	9	San Antonio Palopo	10	Octubre	2023-10-14T00:00:00	2024-11-08T18:00:00	5	Humedad	87
13125	7	Sololá	712	San Antonio Palopó	9	San Antonio Palopo	10	Octubre	2023-10-14T00:00:00	2024-11-08T18:00:00	6	Velocidad del viento	1.6
13126	7	Sololá	712	San Antonio Palopó	9	San Antonio Palopo	10	Octubre	2023-10-14T00:00:00	2024-11-08T18:00:00	7	Dirección del viento	1.61
13127	7	Sololá	712	San Antonio Palopó	9	San Antonio Palopo	10	Octubre	2023-10-14T00:00:00	2024-11-08T18:00:00	1	Precipitación	0
13128	7	Sololá	712	San Antonio Palopó	9	San Antonio Palopo	10	Octubre	2023-10-14T00:00:00	2024-11-08T18:00:00	8	Radiación solar	19
13129	7	Sololá	712	San Antonio Palopó	9	San Antonio Palopo	10	Octubre	2023-10-14T00:00:00	2024-11-08T19:00:00	2	Temperatura media	23.1
13130	7	Sololá	712	San Antonio Palopó	9	San Antonio Palopo	10	Octubre	2023-10-14T00:00:00	2024-11-08T19:00:00	4	Temperatura máxima	23.1
13131	7	Sololá	712	San Antonio Palopó	9	San Antonio Palopo	10	Octubre	2023-10-14T00:00:00	2024-11-08T19:00:00	3	Temperatura mínima	20.7
13132	7	Sololá	712	San Antonio Palopó	9	San Antonio Palopo	10	Octubre	2023-10-14T00:00:00	2024-11-08T19:00:00	5	Humedad	66
13133	7	Sololá	712	San Antonio Palopó	9	San Antonio Palopo	10	Octubre	2023-10-14T00:00:00	2024-11-08T19:00:00	6	Velocidad del viento	6.4
13134	7	Sololá	712	San Antonio Palopó	9	San Antonio Palopo	10	Octubre	2023-10-14T00:00:00	2024-11-08T19:00:00	7	Dirección del viento	6.44
13135	7	Sololá	712	San Antonio Palopó	9	San Antonio Palopo	10	Octubre	2023-10-14T00:00:00	2024-11-08T19:00:00	1	Precipitación	0
13136	7	Sololá	712	San Antonio Palopó	9	San Antonio Palopo	10	Octubre	2023-10-14T00:00:00	2024-11-08T19:00:00	8	Radiación solar	0
13137	7	Sololá	712	San Antonio Palopó	9	San Antonio Palopo	10	Octubre	2023-10-14T00:00:00	2024-11-08T20:00:00	2	Temperatura media	21.6
13138	7	Sololá	712	San Antonio Palopó	9	San Antonio Palopo	10	Octubre	2023-10-14T00:00:00	2024-11-08T20:00:00	4	Temperatura máxima	23.1
13139	7	Sololá	712	San Antonio Palopó	9	San Antonio Palopo	10	Octubre	2023-10-14T00:00:00	2024-11-08T20:00:00	3	Temperatura mínima	21.5
13140	7	Sololá	712	San Antonio Palopó	9	San Antonio Palopo	10	Octubre	2023-10-14T00:00:00	2024-11-08T20:00:00	5	Humedad	74
13141	7	Sololá	712	San Antonio Palopó	9	San Antonio Palopo	10	Octubre	2023-10-14T00:00:00	2024-11-08T20:00:00	6	Velocidad del viento	6.4
13142	7	Sololá	712	San Antonio Palopó	9	San Antonio Palopo	10	Octubre	2023-10-14T00:00:00	2024-11-08T20:00:00	7	Dirección del viento	6.44
13143	7	Sololá	712	San Antonio Palopó	9	San Antonio Palopo	10	Octubre	2023-10-14T00:00:00	2024-11-08T20:00:00	1	Precipitación	0
13144	7	Sololá	712	San Antonio Palopó	9	San Antonio Palopo	10	Octubre	2023-10-14T00:00:00	2024-11-08T20:00:00	8	Radiación solar	0
13145	7	Sololá	712	San Antonio Palopó	9	San Antonio Palopo	10	Octubre	2023-10-14T00:00:00	2024-11-08T21:00:00	2	Temperatura media	21.8
13146	7	Sololá	712	San Antonio Palopó	9	San Antonio Palopo	10	Octubre	2023-10-14T00:00:00	2024-11-08T21:00:00	4	Temperatura máxima	21.9
13147	7	Sololá	712	San Antonio Palopó	9	San Antonio Palopo	10	Octubre	2023-10-14T00:00:00	2024-11-08T21:00:00	3	Temperatura mínima	21.4
13148	7	Sololá	712	San Antonio Palopó	9	San Antonio Palopo	10	Octubre	2023-10-14T00:00:00	2024-11-08T21:00:00	5	Humedad	72
13149	7	Sololá	712	San Antonio Palopó	9	San Antonio Palopo	10	Octubre	2023-10-14T00:00:00	2024-11-08T21:00:00	6	Velocidad del viento	8
13150	7	Sololá	712	San Antonio Palopó	9	San Antonio Palopo	10	Octubre	2023-10-14T00:00:00	2024-11-08T21:00:00	7	Dirección del viento	8.05
13151	7	Sololá	712	San Antonio Palopó	9	San Antonio Palopo	10	Octubre	2023-10-14T00:00:00	2024-11-08T21:00:00	1	Precipitación	0
13152	7	Sololá	712	San Antonio Palopó	9	San Antonio Palopo	10	Octubre	2023-10-14T00:00:00	2024-11-08T21:00:00	8	Radiación solar	0
13153	7	Sololá	712	San Antonio Palopó	9	San Antonio Palopo	10	Octubre	2023-10-14T00:00:00	2024-11-08T22:00:00	2	Temperatura media	21.4
13154	7	Sololá	712	San Antonio Palopó	9	San Antonio Palopo	10	Octubre	2023-10-14T00:00:00	2024-11-08T22:00:00	4	Temperatura máxima	21.9
13155	7	Sololá	712	San Antonio Palopó	9	San Antonio Palopo	10	Octubre	2023-10-14T00:00:00	2024-11-08T22:00:00	3	Temperatura mínima	21.3
13156	7	Sololá	712	San Antonio Palopó	9	San Antonio Palopo	10	Octubre	2023-10-14T00:00:00	2024-11-08T22:00:00	5	Humedad	74
13157	7	Sololá	712	San Antonio Palopó	9	San Antonio Palopo	10	Octubre	2023-10-14T00:00:00	2024-11-08T22:00:00	6	Velocidad del viento	4.8
13158	7	Sololá	712	San Antonio Palopó	9	San Antonio Palopo	10	Octubre	2023-10-14T00:00:00	2024-11-08T22:00:00	7	Dirección del viento	4.83
13159	7	Sololá	712	San Antonio Palopó	9	San Antonio Palopo	10	Octubre	2023-10-14T00:00:00	2024-11-08T22:00:00	1	Precipitación	0
13160	7	Sololá	712	San Antonio Palopó	9	San Antonio Palopo	10	Octubre	2023-10-14T00:00:00	2024-11-08T22:00:00	8	Radiación solar	0
13161	7	Sololá	712	San Antonio Palopó	9	San Antonio Palopo	10	Octubre	2023-10-14T00:00:00	2024-11-08T23:00:00	2	Temperatura media	21.3
13162	7	Sololá	712	San Antonio Palopó	9	San Antonio Palopo	10	Octubre	2023-10-14T00:00:00	2024-11-08T23:00:00	4	Temperatura máxima	21.4
13163	7	Sololá	712	San Antonio Palopó	9	San Antonio Palopo	10	Octubre	2023-10-14T00:00:00	2024-11-08T23:00:00	3	Temperatura mínima	20.6
13164	7	Sololá	712	San Antonio Palopó	9	San Antonio Palopo	10	Octubre	2023-10-14T00:00:00	2024-11-08T23:00:00	5	Humedad	74
13165	7	Sololá	712	San Antonio Palopó	9	San Antonio Palopo	10	Octubre	2023-10-14T00:00:00	2024-11-08T23:00:00	6	Velocidad del viento	6.4
13166	7	Sololá	712	San Antonio Palopó	9	San Antonio Palopo	10	Octubre	2023-10-14T00:00:00	2024-11-08T23:00:00	7	Dirección del viento	6.44
13167	7	Sololá	712	San Antonio Palopó	9	San Antonio Palopo	10	Octubre	2023-10-14T00:00:00	2024-11-08T23:00:00	1	Precipitación	0
13168	7	Sololá	712	San Antonio Palopó	9	San Antonio Palopo	10	Octubre	2023-10-14T00:00:00	2024-11-08T23:00:00	8	Radiación solar	0
13169	7	Sololá	712	San Antonio Palopó	9	San Antonio Palopo	10	Octubre	2023-10-15T00:00:00	2024-11-08T00:00:00	2	Temperatura media	21.3
13170	7	Sololá	712	San Antonio Palopó	9	San Antonio Palopo	10	Octubre	2023-10-15T00:00:00	2024-11-08T00:00:00	4	Temperatura máxima	21.6
13171	7	Sololá	712	San Antonio Palopó	9	San Antonio Palopo	10	Octubre	2023-10-15T00:00:00	2024-11-08T00:00:00	3	Temperatura mínima	21.3
13172	7	Sololá	712	San Antonio Palopó	9	San Antonio Palopo	10	Octubre	2023-10-15T00:00:00	2024-11-08T00:00:00	5	Humedad	74
13173	7	Sololá	712	San Antonio Palopó	9	San Antonio Palopo	10	Octubre	2023-10-15T00:00:00	2024-11-08T00:00:00	6	Velocidad del viento	11.3
13174	7	Sololá	712	San Antonio Palopó	9	San Antonio Palopo	10	Octubre	2023-10-15T00:00:00	2024-11-08T00:00:00	7	Dirección del viento	11.27
13175	7	Sololá	712	San Antonio Palopó	9	San Antonio Palopo	10	Octubre	2023-10-15T00:00:00	2024-11-08T00:00:00	1	Precipitación	0
13176	7	Sololá	712	San Antonio Palopó	9	San Antonio Palopo	10	Octubre	2023-10-15T00:00:00	2024-11-08T00:00:00	8	Radiación solar	0
13177	7	Sololá	712	San Antonio Palopó	9	San Antonio Palopo	10	Octubre	2023-10-15T00:00:00	2024-11-08T01:00:00	2	Temperatura media	20.8
13178	7	Sololá	712	San Antonio Palopó	9	San Antonio Palopo	10	Octubre	2023-10-15T00:00:00	2024-11-08T01:00:00	4	Temperatura máxima	21.3
13179	7	Sololá	712	San Antonio Palopó	9	San Antonio Palopo	10	Octubre	2023-10-15T00:00:00	2024-11-08T01:00:00	3	Temperatura mínima	20.6
13180	7	Sololá	712	San Antonio Palopó	9	San Antonio Palopo	10	Octubre	2023-10-15T00:00:00	2024-11-08T01:00:00	5	Humedad	74
13181	7	Sololá	712	San Antonio Palopó	9	San Antonio Palopo	10	Octubre	2023-10-15T00:00:00	2024-11-08T01:00:00	6	Velocidad del viento	8
13182	7	Sololá	712	San Antonio Palopó	9	San Antonio Palopo	10	Octubre	2023-10-15T00:00:00	2024-11-08T01:00:00	7	Dirección del viento	8.05
13183	7	Sololá	712	San Antonio Palopó	9	San Antonio Palopo	10	Octubre	2023-10-15T00:00:00	2024-11-08T01:00:00	1	Precipitación	0
13184	7	Sololá	712	San Antonio Palopó	9	San Antonio Palopo	10	Octubre	2023-10-15T00:00:00	2024-11-08T01:00:00	8	Radiación solar	0
13185	7	Sololá	712	San Antonio Palopó	9	San Antonio Palopo	10	Octubre	2023-10-15T00:00:00	2024-11-08T02:00:00	2	Temperatura media	20.6
13186	7	Sololá	712	San Antonio Palopó	9	San Antonio Palopo	10	Octubre	2023-10-15T00:00:00	2024-11-08T02:00:00	4	Temperatura máxima	20.9
13187	7	Sololá	712	San Antonio Palopó	9	San Antonio Palopo	10	Octubre	2023-10-15T00:00:00	2024-11-08T02:00:00	3	Temperatura mínima	20.4
13188	7	Sololá	712	San Antonio Palopó	9	San Antonio Palopo	10	Octubre	2023-10-15T00:00:00	2024-11-08T02:00:00	5	Humedad	74
13189	7	Sololá	712	San Antonio Palopó	9	San Antonio Palopo	10	Octubre	2023-10-15T00:00:00	2024-11-08T02:00:00	6	Velocidad del viento	14.5
13190	7	Sololá	712	San Antonio Palopó	9	San Antonio Palopo	10	Octubre	2023-10-15T00:00:00	2024-11-08T02:00:00	7	Dirección del viento	14.48
13191	7	Sololá	712	San Antonio Palopó	9	San Antonio Palopo	10	Octubre	2023-10-15T00:00:00	2024-11-08T02:00:00	1	Precipitación	0
13192	7	Sololá	712	San Antonio Palopó	9	San Antonio Palopo	10	Octubre	2023-10-15T00:00:00	2024-11-08T02:00:00	8	Radiación solar	0
13193	7	Sololá	712	San Antonio Palopó	9	San Antonio Palopo	10	Octubre	2023-10-15T00:00:00	2024-11-08T03:00:00	2	Temperatura media	20.3
13194	7	Sololá	712	San Antonio Palopó	9	San Antonio Palopo	10	Octubre	2023-10-15T00:00:00	2024-11-08T03:00:00	4	Temperatura máxima	21
13195	7	Sololá	712	San Antonio Palopó	9	San Antonio Palopo	10	Octubre	2023-10-15T00:00:00	2024-11-08T03:00:00	3	Temperatura mínima	20.3
13196	7	Sololá	712	San Antonio Palopó	9	San Antonio Palopo	10	Octubre	2023-10-15T00:00:00	2024-11-08T03:00:00	5	Humedad	73
13197	7	Sololá	712	San Antonio Palopó	9	San Antonio Palopo	10	Octubre	2023-10-15T00:00:00	2024-11-08T03:00:00	6	Velocidad del viento	11.3
13198	7	Sololá	712	San Antonio Palopó	9	San Antonio Palopo	10	Octubre	2023-10-15T00:00:00	2024-11-08T03:00:00	7	Dirección del viento	11.27
13199	7	Sololá	712	San Antonio Palopó	9	San Antonio Palopo	10	Octubre	2023-10-15T00:00:00	2024-11-08T03:00:00	1	Precipitación	0
13200	7	Sololá	712	San Antonio Palopó	9	San Antonio Palopo	10	Octubre	2023-10-15T00:00:00	2024-11-08T03:00:00	8	Radiación solar	0
13201	7	Sololá	712	San Antonio Palopó	9	San Antonio Palopo	10	Octubre	2023-10-15T00:00:00	2024-11-08T04:00:00	2	Temperatura media	19.9
13202	7	Sololá	712	San Antonio Palopó	9	San Antonio Palopo	10	Octubre	2023-10-15T00:00:00	2024-11-08T04:00:00	4	Temperatura máxima	20.4
13203	7	Sololá	712	San Antonio Palopó	9	San Antonio Palopo	10	Octubre	2023-10-15T00:00:00	2024-11-08T04:00:00	3	Temperatura mínima	19.9
13204	7	Sololá	712	San Antonio Palopó	9	San Antonio Palopo	10	Octubre	2023-10-15T00:00:00	2024-11-08T04:00:00	5	Humedad	74
13205	7	Sololá	712	San Antonio Palopó	9	San Antonio Palopo	10	Octubre	2023-10-15T00:00:00	2024-11-08T04:00:00	6	Velocidad del viento	8
13206	7	Sololá	712	San Antonio Palopó	9	San Antonio Palopo	10	Octubre	2023-10-15T00:00:00	2024-11-08T04:00:00	7	Dirección del viento	8.05
13207	7	Sololá	712	San Antonio Palopó	9	San Antonio Palopo	10	Octubre	2023-10-15T00:00:00	2024-11-08T04:00:00	1	Precipitación	0
13208	7	Sololá	712	San Antonio Palopó	9	San Antonio Palopo	10	Octubre	2023-10-15T00:00:00	2024-11-08T04:00:00	8	Radiación solar	0
13209	7	Sololá	712	San Antonio Palopó	9	San Antonio Palopo	10	Octubre	2023-10-15T00:00:00	2024-11-08T05:00:00	2	Temperatura media	20.1
13210	7	Sololá	712	San Antonio Palopó	9	San Antonio Palopo	10	Octubre	2023-10-15T00:00:00	2024-11-08T05:00:00	4	Temperatura máxima	20.3
13211	7	Sololá	712	San Antonio Palopó	9	San Antonio Palopo	10	Octubre	2023-10-15T00:00:00	2024-11-08T05:00:00	3	Temperatura mínima	19.7
13212	7	Sololá	712	San Antonio Palopó	9	San Antonio Palopo	10	Octubre	2023-10-15T00:00:00	2024-11-08T05:00:00	5	Humedad	72
13213	7	Sololá	712	San Antonio Palopó	9	San Antonio Palopo	10	Octubre	2023-10-15T00:00:00	2024-11-08T05:00:00	6	Velocidad del viento	6.4
13214	7	Sololá	712	San Antonio Palopó	9	San Antonio Palopo	10	Octubre	2023-10-15T00:00:00	2024-11-08T05:00:00	7	Dirección del viento	6.44
13215	7	Sololá	712	San Antonio Palopó	9	San Antonio Palopo	10	Octubre	2023-10-15T00:00:00	2024-11-08T05:00:00	1	Precipitación	0
13216	7	Sololá	712	San Antonio Palopó	9	San Antonio Palopo	10	Octubre	2023-10-15T00:00:00	2024-11-08T05:00:00	8	Radiación solar	0
13217	7	Sololá	712	San Antonio Palopó	9	San Antonio Palopo	10	Octubre	2023-10-15T00:00:00	2024-11-08T06:00:00	2	Temperatura media	19.1
13218	7	Sololá	712	San Antonio Palopó	9	San Antonio Palopo	10	Octubre	2023-10-15T00:00:00	2024-11-08T06:00:00	4	Temperatura máxima	20.2
13219	7	Sololá	712	San Antonio Palopó	9	San Antonio Palopo	10	Octubre	2023-10-15T00:00:00	2024-11-08T06:00:00	3	Temperatura mínima	19.1
13220	7	Sololá	712	San Antonio Palopó	9	San Antonio Palopo	10	Octubre	2023-10-15T00:00:00	2024-11-08T06:00:00	5	Humedad	75
13221	7	Sololá	712	San Antonio Palopó	9	San Antonio Palopo	10	Octubre	2023-10-15T00:00:00	2024-11-08T06:00:00	6	Velocidad del viento	4.8
13222	7	Sololá	712	San Antonio Palopó	9	San Antonio Palopo	10	Octubre	2023-10-15T00:00:00	2024-11-08T06:00:00	7	Dirección del viento	4.83
13223	7	Sololá	712	San Antonio Palopó	9	San Antonio Palopo	10	Octubre	2023-10-15T00:00:00	2024-11-08T06:00:00	1	Precipitación	0
13224	7	Sololá	712	San Antonio Palopó	9	San Antonio Palopo	10	Octubre	2023-10-15T00:00:00	2024-11-08T06:00:00	8	Radiación solar	0
13225	7	Sololá	712	San Antonio Palopó	9	San Antonio Palopo	10	Octubre	2023-10-15T00:00:00	2024-11-08T07:00:00	2	Temperatura media	19.6
13226	7	Sololá	712	San Antonio Palopó	9	San Antonio Palopo	10	Octubre	2023-10-15T00:00:00	2024-11-08T07:00:00	4	Temperatura máxima	19.6
13227	7	Sololá	712	San Antonio Palopó	9	San Antonio Palopo	10	Octubre	2023-10-15T00:00:00	2024-11-08T07:00:00	3	Temperatura mínima	18.7
13228	7	Sololá	712	San Antonio Palopó	9	San Antonio Palopo	10	Octubre	2023-10-15T00:00:00	2024-11-08T07:00:00	5	Humedad	75
13229	7	Sololá	712	San Antonio Palopó	9	San Antonio Palopo	10	Octubre	2023-10-15T00:00:00	2024-11-08T07:00:00	6	Velocidad del viento	3.2
13230	7	Sololá	712	San Antonio Palopó	9	San Antonio Palopo	10	Octubre	2023-10-15T00:00:00	2024-11-08T07:00:00	7	Dirección del viento	3.22
13231	7	Sololá	712	San Antonio Palopó	9	San Antonio Palopo	10	Octubre	2023-10-15T00:00:00	2024-11-08T07:00:00	1	Precipitación	0
13232	7	Sololá	712	San Antonio Palopó	9	San Antonio Palopo	10	Octubre	2023-10-15T00:00:00	2024-11-08T07:00:00	8	Radiación solar	18
13233	7	Sololá	712	San Antonio Palopó	9	San Antonio Palopo	10	Octubre	2023-10-15T00:00:00	2024-11-08T08:00:00	2	Temperatura media	20.6
13234	7	Sololá	712	San Antonio Palopó	9	San Antonio Palopo	10	Octubre	2023-10-15T00:00:00	2024-11-08T08:00:00	4	Temperatura máxima	20.6
13235	7	Sololá	712	San Antonio Palopó	9	San Antonio Palopo	10	Octubre	2023-10-15T00:00:00	2024-11-08T08:00:00	3	Temperatura mínima	19
13236	7	Sololá	712	San Antonio Palopó	9	San Antonio Palopo	10	Octubre	2023-10-15T00:00:00	2024-11-08T08:00:00	5	Humedad	77
13237	7	Sololá	712	San Antonio Palopó	9	San Antonio Palopo	10	Octubre	2023-10-15T00:00:00	2024-11-08T08:00:00	6	Velocidad del viento	3.2
13238	7	Sololá	712	San Antonio Palopó	9	San Antonio Palopo	10	Octubre	2023-10-15T00:00:00	2024-11-08T08:00:00	7	Dirección del viento	3.22
13239	7	Sololá	712	San Antonio Palopó	9	San Antonio Palopo	10	Octubre	2023-10-15T00:00:00	2024-11-08T08:00:00	1	Precipitación	0
13240	7	Sololá	712	San Antonio Palopó	9	San Antonio Palopo	10	Octubre	2023-10-15T00:00:00	2024-11-08T08:00:00	8	Radiación solar	118
13241	7	Sololá	712	San Antonio Palopó	9	San Antonio Palopo	10	Octubre	2023-10-15T00:00:00	2024-11-08T09:00:00	2	Temperatura media	21.7
13242	7	Sololá	712	San Antonio Palopó	9	San Antonio Palopo	10	Octubre	2023-10-15T00:00:00	2024-11-08T09:00:00	4	Temperatura máxima	22.7
13243	7	Sololá	712	San Antonio Palopó	9	San Antonio Palopo	10	Octubre	2023-10-15T00:00:00	2024-11-08T09:00:00	3	Temperatura mínima	20.6
13244	7	Sololá	712	San Antonio Palopó	9	San Antonio Palopo	10	Octubre	2023-10-15T00:00:00	2024-11-08T09:00:00	5	Humedad	74
13245	7	Sololá	712	San Antonio Palopó	9	San Antonio Palopo	10	Octubre	2023-10-15T00:00:00	2024-11-08T09:00:00	6	Velocidad del viento	3.2
13246	7	Sololá	712	San Antonio Palopó	9	San Antonio Palopo	10	Octubre	2023-10-15T00:00:00	2024-11-08T09:00:00	7	Dirección del viento	3.22
13247	7	Sololá	712	San Antonio Palopó	9	San Antonio Palopo	10	Octubre	2023-10-15T00:00:00	2024-11-08T09:00:00	1	Precipitación	0
13248	7	Sololá	712	San Antonio Palopó	9	San Antonio Palopo	10	Octubre	2023-10-15T00:00:00	2024-11-08T09:00:00	8	Radiación solar	495
13249	7	Sololá	712	San Antonio Palopó	9	San Antonio Palopo	10	Octubre	2023-10-15T00:00:00	2024-11-08T10:00:00	2	Temperatura media	22.1
13250	7	Sololá	712	San Antonio Palopó	9	San Antonio Palopo	10	Octubre	2023-10-15T00:00:00	2024-11-08T10:00:00	4	Temperatura máxima	22.2
13251	7	Sololá	712	San Antonio Palopó	9	San Antonio Palopo	10	Octubre	2023-10-15T00:00:00	2024-11-08T10:00:00	3	Temperatura mínima	21.5
13252	7	Sololá	712	San Antonio Palopó	9	San Antonio Palopo	10	Octubre	2023-10-15T00:00:00	2024-11-08T10:00:00	5	Humedad	78
13253	7	Sololá	712	San Antonio Palopó	9	San Antonio Palopo	10	Octubre	2023-10-15T00:00:00	2024-11-08T10:00:00	6	Velocidad del viento	1.6
13254	7	Sololá	712	San Antonio Palopó	9	San Antonio Palopo	10	Octubre	2023-10-15T00:00:00	2024-11-08T10:00:00	7	Dirección del viento	1.61
13255	7	Sololá	712	San Antonio Palopó	9	San Antonio Palopo	10	Octubre	2023-10-15T00:00:00	2024-11-08T10:00:00	1	Precipitación	0
13256	7	Sololá	712	San Antonio Palopó	9	San Antonio Palopo	10	Octubre	2023-10-15T00:00:00	2024-11-08T10:00:00	8	Radiación solar	204
13257	7	Sololá	712	San Antonio Palopó	9	San Antonio Palopo	10	Octubre	2023-10-15T00:00:00	2024-11-08T11:00:00	2	Temperatura media	22.5
13258	7	Sololá	712	San Antonio Palopó	9	San Antonio Palopo	10	Octubre	2023-10-15T00:00:00	2024-11-08T11:00:00	4	Temperatura máxima	22.6
13259	7	Sololá	712	San Antonio Palopó	9	San Antonio Palopo	10	Octubre	2023-10-15T00:00:00	2024-11-08T11:00:00	3	Temperatura mínima	21.9
13260	7	Sololá	712	San Antonio Palopó	9	San Antonio Palopo	10	Octubre	2023-10-15T00:00:00	2024-11-08T11:00:00	5	Humedad	76
13261	7	Sololá	712	San Antonio Palopó	9	San Antonio Palopo	10	Octubre	2023-10-15T00:00:00	2024-11-08T11:00:00	6	Velocidad del viento	4.8
13262	7	Sololá	712	San Antonio Palopó	9	San Antonio Palopo	10	Octubre	2023-10-15T00:00:00	2024-11-08T11:00:00	7	Dirección del viento	4.83
13263	7	Sololá	712	San Antonio Palopó	9	San Antonio Palopo	10	Octubre	2023-10-15T00:00:00	2024-11-08T11:00:00	1	Precipitación	0
13264	7	Sololá	712	San Antonio Palopó	9	San Antonio Palopo	10	Octubre	2023-10-15T00:00:00	2024-11-08T11:00:00	8	Radiación solar	306
13265	7	Sololá	712	San Antonio Palopó	9	San Antonio Palopo	10	Octubre	2023-10-15T00:00:00	2024-11-08T12:00:00	2	Temperatura media	22.7
13266	7	Sololá	712	San Antonio Palopó	9	San Antonio Palopo	10	Octubre	2023-10-15T00:00:00	2024-11-08T12:00:00	4	Temperatura máxima	24.1
13267	7	Sololá	712	San Antonio Palopó	9	San Antonio Palopo	10	Octubre	2023-10-15T00:00:00	2024-11-08T12:00:00	3	Temperatura mínima	22.5
13268	7	Sololá	712	San Antonio Palopó	9	San Antonio Palopo	10	Octubre	2023-10-15T00:00:00	2024-11-08T12:00:00	5	Humedad	77
13269	7	Sololá	712	San Antonio Palopó	9	San Antonio Palopo	10	Octubre	2023-10-15T00:00:00	2024-11-08T12:00:00	6	Velocidad del viento	6.4
13270	7	Sololá	712	San Antonio Palopó	9	San Antonio Palopo	10	Octubre	2023-10-15T00:00:00	2024-11-08T12:00:00	7	Dirección del viento	6.44
13271	7	Sololá	712	San Antonio Palopó	9	San Antonio Palopo	10	Octubre	2023-10-15T00:00:00	2024-11-08T12:00:00	1	Precipitación	0
13272	7	Sololá	712	San Antonio Palopó	9	San Antonio Palopo	10	Octubre	2023-10-15T00:00:00	2024-11-08T12:00:00	8	Radiación solar	526
13273	7	Sololá	712	San Antonio Palopó	9	San Antonio Palopo	10	Octubre	2023-10-15T00:00:00	2024-11-08T13:00:00	2	Temperatura media	22.4
13274	7	Sololá	712	San Antonio Palopó	9	San Antonio Palopo	10	Octubre	2023-10-15T00:00:00	2024-11-08T13:00:00	4	Temperatura máxima	23.3
13275	7	Sololá	712	San Antonio Palopó	9	San Antonio Palopo	10	Octubre	2023-10-15T00:00:00	2024-11-08T13:00:00	3	Temperatura mínima	22.3
13276	7	Sololá	712	San Antonio Palopó	9	San Antonio Palopo	10	Octubre	2023-10-15T00:00:00	2024-11-08T13:00:00	5	Humedad	79
13277	7	Sololá	712	San Antonio Palopó	9	San Antonio Palopo	10	Octubre	2023-10-15T00:00:00	2024-11-08T13:00:00	6	Velocidad del viento	6.4
13278	7	Sololá	712	San Antonio Palopó	9	San Antonio Palopo	10	Octubre	2023-10-15T00:00:00	2024-11-08T13:00:00	7	Dirección del viento	6.44
13279	7	Sololá	712	San Antonio Palopó	9	San Antonio Palopo	10	Octubre	2023-10-15T00:00:00	2024-11-08T13:00:00	1	Precipitación	0
13280	7	Sololá	712	San Antonio Palopó	9	San Antonio Palopo	10	Octubre	2023-10-15T00:00:00	2024-11-08T13:00:00	8	Radiación solar	351
13281	7	Sololá	712	San Antonio Palopó	9	San Antonio Palopo	10	Octubre	2023-10-15T00:00:00	2024-11-08T14:00:00	2	Temperatura media	22.9
13282	7	Sololá	712	San Antonio Palopó	9	San Antonio Palopo	10	Octubre	2023-10-15T00:00:00	2024-11-08T14:00:00	4	Temperatura máxima	23.1
13283	7	Sololá	712	San Antonio Palopó	9	San Antonio Palopo	10	Octubre	2023-10-15T00:00:00	2024-11-08T14:00:00	3	Temperatura mínima	22.2
13284	7	Sololá	712	San Antonio Palopó	9	San Antonio Palopo	10	Octubre	2023-10-15T00:00:00	2024-11-08T14:00:00	5	Humedad	77
13285	7	Sololá	712	San Antonio Palopó	9	San Antonio Palopo	10	Octubre	2023-10-15T00:00:00	2024-11-08T14:00:00	6	Velocidad del viento	6.4
13286	7	Sololá	712	San Antonio Palopó	9	San Antonio Palopo	10	Octubre	2023-10-15T00:00:00	2024-11-08T14:00:00	7	Dirección del viento	6.44
13287	7	Sololá	712	San Antonio Palopó	9	San Antonio Palopo	10	Octubre	2023-10-15T00:00:00	2024-11-08T14:00:00	1	Precipitación	0
13288	7	Sololá	712	San Antonio Palopó	9	San Antonio Palopo	10	Octubre	2023-10-15T00:00:00	2024-11-08T14:00:00	8	Radiación solar	348
13289	7	Sololá	712	San Antonio Palopó	9	San Antonio Palopo	10	Octubre	2023-10-15T00:00:00	2024-11-08T15:00:00	2	Temperatura media	20.7
13290	7	Sololá	712	San Antonio Palopó	9	San Antonio Palopo	10	Octubre	2023-10-15T00:00:00	2024-11-08T15:00:00	4	Temperatura máxima	22.9
13291	7	Sololá	712	San Antonio Palopó	9	San Antonio Palopo	10	Octubre	2023-10-15T00:00:00	2024-11-08T15:00:00	3	Temperatura mínima	20.7
13292	7	Sololá	712	San Antonio Palopó	9	San Antonio Palopo	10	Octubre	2023-10-15T00:00:00	2024-11-08T15:00:00	5	Humedad	87
13293	7	Sololá	712	San Antonio Palopó	9	San Antonio Palopo	10	Octubre	2023-10-15T00:00:00	2024-11-08T15:00:00	6	Velocidad del viento	11.3
13294	7	Sololá	712	San Antonio Palopó	9	San Antonio Palopo	10	Octubre	2023-10-15T00:00:00	2024-11-08T15:00:00	7	Dirección del viento	11.27
13295	7	Sololá	712	San Antonio Palopó	9	San Antonio Palopo	10	Octubre	2023-10-15T00:00:00	2024-11-08T15:00:00	1	Precipitación	0.2
13296	7	Sololá	712	San Antonio Palopó	9	San Antonio Palopo	10	Octubre	2023-10-15T00:00:00	2024-11-08T15:00:00	8	Radiación solar	374
13297	7	Sololá	712	San Antonio Palopó	9	San Antonio Palopo	10	Octubre	2023-10-15T00:00:00	2024-11-08T16:00:00	2	Temperatura media	20.1
13298	7	Sololá	712	San Antonio Palopó	9	San Antonio Palopo	10	Octubre	2023-10-15T00:00:00	2024-11-08T16:00:00	4	Temperatura máxima	20.7
13299	7	Sololá	712	San Antonio Palopó	9	San Antonio Palopo	10	Octubre	2023-10-15T00:00:00	2024-11-08T16:00:00	3	Temperatura mínima	19.9
13300	7	Sololá	712	San Antonio Palopó	9	San Antonio Palopo	10	Octubre	2023-10-15T00:00:00	2024-11-08T16:00:00	5	Humedad	89
13301	7	Sololá	712	San Antonio Palopó	9	San Antonio Palopo	10	Octubre	2023-10-15T00:00:00	2024-11-08T16:00:00	6	Velocidad del viento	4.8
13302	7	Sololá	712	San Antonio Palopó	9	San Antonio Palopo	10	Octubre	2023-10-15T00:00:00	2024-11-08T16:00:00	7	Dirección del viento	4.83
13303	7	Sololá	712	San Antonio Palopó	9	San Antonio Palopo	10	Octubre	2023-10-15T00:00:00	2024-11-08T16:00:00	1	Precipitación	2.4
13304	7	Sololá	712	San Antonio Palopó	9	San Antonio Palopo	10	Octubre	2023-10-15T00:00:00	2024-11-08T16:00:00	8	Radiación solar	66
13305	7	Sololá	712	San Antonio Palopó	9	San Antonio Palopo	10	Octubre	2023-10-15T00:00:00	2024-11-08T17:00:00	2	Temperatura media	19.9
13306	7	Sololá	712	San Antonio Palopó	9	San Antonio Palopo	10	Octubre	2023-10-15T00:00:00	2024-11-08T17:00:00	4	Temperatura máxima	20.2
13307	7	Sololá	712	San Antonio Palopó	9	San Antonio Palopo	10	Octubre	2023-10-15T00:00:00	2024-11-08T17:00:00	3	Temperatura mínima	19.9
13308	7	Sololá	712	San Antonio Palopó	9	San Antonio Palopo	10	Octubre	2023-10-15T00:00:00	2024-11-08T17:00:00	5	Humedad	89
13309	7	Sololá	712	San Antonio Palopó	9	San Antonio Palopo	10	Octubre	2023-10-15T00:00:00	2024-11-08T17:00:00	6	Velocidad del viento	1.6
13310	7	Sololá	712	San Antonio Palopó	9	San Antonio Palopo	10	Octubre	2023-10-15T00:00:00	2024-11-08T17:00:00	7	Dirección del viento	1.61
13311	7	Sololá	712	San Antonio Palopó	9	San Antonio Palopo	10	Octubre	2023-10-15T00:00:00	2024-11-08T17:00:00	1	Precipitación	5.2
13312	7	Sololá	712	San Antonio Palopó	9	San Antonio Palopo	10	Octubre	2023-10-15T00:00:00	2024-11-08T17:00:00	8	Radiación solar	27
13313	7	Sololá	712	San Antonio Palopó	9	San Antonio Palopo	10	Octubre	2023-10-15T00:00:00	2024-11-08T18:00:00	2	Temperatura media	19.4
13314	7	Sololá	712	San Antonio Palopó	9	San Antonio Palopo	10	Octubre	2023-10-15T00:00:00	2024-11-08T18:00:00	4	Temperatura máxima	20.1
13315	7	Sololá	712	San Antonio Palopó	9	San Antonio Palopo	10	Octubre	2023-10-15T00:00:00	2024-11-08T18:00:00	3	Temperatura mínima	19.2
13316	7	Sololá	712	San Antonio Palopó	9	San Antonio Palopo	10	Octubre	2023-10-15T00:00:00	2024-11-08T18:00:00	5	Humedad	90
13317	7	Sololá	712	San Antonio Palopó	9	San Antonio Palopo	10	Octubre	2023-10-15T00:00:00	2024-11-08T18:00:00	6	Velocidad del viento	4.8
13318	7	Sololá	712	San Antonio Palopó	9	San Antonio Palopo	10	Octubre	2023-10-15T00:00:00	2024-11-08T18:00:00	7	Dirección del viento	4.83
13319	7	Sololá	712	San Antonio Palopó	9	San Antonio Palopo	10	Octubre	2023-10-15T00:00:00	2024-11-08T18:00:00	1	Precipitación	0
13320	7	Sololá	712	San Antonio Palopó	9	San Antonio Palopo	10	Octubre	2023-10-15T00:00:00	2024-11-08T18:00:00	8	Radiación solar	4
13321	7	Sololá	712	San Antonio Palopó	9	San Antonio Palopo	10	Octubre	2023-10-15T00:00:00	2024-11-08T19:00:00	2	Temperatura media	19.4
13322	7	Sololá	712	San Antonio Palopó	9	San Antonio Palopo	10	Octubre	2023-10-15T00:00:00	2024-11-08T19:00:00	4	Temperatura máxima	19.6
13323	7	Sololá	712	San Antonio Palopó	9	San Antonio Palopo	10	Octubre	2023-10-15T00:00:00	2024-11-08T19:00:00	3	Temperatura mínima	19.3
13324	7	Sololá	712	San Antonio Palopó	9	San Antonio Palopo	10	Octubre	2023-10-15T00:00:00	2024-11-08T19:00:00	5	Humedad	89
13325	7	Sololá	712	San Antonio Palopó	9	San Antonio Palopo	10	Octubre	2023-10-15T00:00:00	2024-11-08T19:00:00	6	Velocidad del viento	1.6
13326	7	Sololá	712	San Antonio Palopó	9	San Antonio Palopo	10	Octubre	2023-10-15T00:00:00	2024-11-08T19:00:00	7	Dirección del viento	1.61
13327	7	Sololá	712	San Antonio Palopó	9	San Antonio Palopo	10	Octubre	2023-10-15T00:00:00	2024-11-08T19:00:00	1	Precipitación	0
13328	7	Sololá	712	San Antonio Palopó	9	San Antonio Palopo	10	Octubre	2023-10-15T00:00:00	2024-11-08T19:00:00	8	Radiación solar	0
13329	7	Sololá	712	San Antonio Palopó	9	San Antonio Palopo	10	Octubre	2023-10-15T00:00:00	2024-11-08T20:00:00	2	Temperatura media	19.3
13330	7	Sololá	712	San Antonio Palopó	9	San Antonio Palopo	10	Octubre	2023-10-15T00:00:00	2024-11-08T20:00:00	4	Temperatura máxima	19.4
13331	7	Sololá	712	San Antonio Palopó	9	San Antonio Palopo	10	Octubre	2023-10-15T00:00:00	2024-11-08T20:00:00	3	Temperatura mínima	18.9
13332	7	Sololá	712	San Antonio Palopó	9	San Antonio Palopo	10	Octubre	2023-10-15T00:00:00	2024-11-08T20:00:00	5	Humedad	88
13333	7	Sololá	712	San Antonio Palopó	9	San Antonio Palopo	10	Octubre	2023-10-15T00:00:00	2024-11-08T20:00:00	6	Velocidad del viento	1.6
13334	7	Sololá	712	San Antonio Palopó	9	San Antonio Palopo	10	Octubre	2023-10-15T00:00:00	2024-11-08T20:00:00	7	Dirección del viento	1.61
13335	7	Sololá	712	San Antonio Palopó	9	San Antonio Palopo	10	Octubre	2023-10-15T00:00:00	2024-11-08T20:00:00	1	Precipitación	0
13336	7	Sololá	712	San Antonio Palopó	9	San Antonio Palopo	10	Octubre	2023-10-15T00:00:00	2024-11-08T20:00:00	8	Radiación solar	0
13337	7	Sololá	712	San Antonio Palopó	9	San Antonio Palopo	10	Octubre	2023-10-15T00:00:00	2024-11-08T21:00:00	2	Temperatura media	18.8
13338	7	Sololá	712	San Antonio Palopó	9	San Antonio Palopo	10	Octubre	2023-10-15T00:00:00	2024-11-08T21:00:00	4	Temperatura máxima	19.3
13339	7	Sololá	712	San Antonio Palopó	9	San Antonio Palopo	10	Octubre	2023-10-15T00:00:00	2024-11-08T21:00:00	3	Temperatura mínima	18.8
13340	7	Sololá	712	San Antonio Palopó	9	San Antonio Palopo	10	Octubre	2023-10-15T00:00:00	2024-11-08T21:00:00	5	Humedad	91
13341	7	Sololá	712	San Antonio Palopó	9	San Antonio Palopo	10	Octubre	2023-10-15T00:00:00	2024-11-08T21:00:00	6	Velocidad del viento	1.6
13342	7	Sololá	712	San Antonio Palopó	9	San Antonio Palopo	10	Octubre	2023-10-15T00:00:00	2024-11-08T21:00:00	7	Dirección del viento	1.61
13343	7	Sololá	712	San Antonio Palopó	9	San Antonio Palopo	10	Octubre	2023-10-15T00:00:00	2024-11-08T21:00:00	1	Precipitación	0
13344	7	Sololá	712	San Antonio Palopó	9	San Antonio Palopo	10	Octubre	2023-10-15T00:00:00	2024-11-08T21:00:00	8	Radiación solar	0
13345	7	Sololá	712	San Antonio Palopó	9	San Antonio Palopo	10	Octubre	2023-10-15T00:00:00	2024-11-08T22:00:00	2	Temperatura media	19.1
13346	7	Sololá	712	San Antonio Palopó	9	San Antonio Palopo	10	Octubre	2023-10-15T00:00:00	2024-11-08T22:00:00	4	Temperatura máxima	19.2
13347	7	Sololá	712	San Antonio Palopó	9	San Antonio Palopo	10	Octubre	2023-10-15T00:00:00	2024-11-08T22:00:00	3	Temperatura mínima	18.8
13348	7	Sololá	712	San Antonio Palopó	9	San Antonio Palopo	10	Octubre	2023-10-15T00:00:00	2024-11-08T22:00:00	5	Humedad	89
13349	7	Sololá	712	San Antonio Palopó	9	San Antonio Palopo	10	Octubre	2023-10-15T00:00:00	2024-11-08T22:00:00	6	Velocidad del viento	3.2
13350	7	Sololá	712	San Antonio Palopó	9	San Antonio Palopo	10	Octubre	2023-10-15T00:00:00	2024-11-08T22:00:00	7	Dirección del viento	3.22
13351	7	Sololá	712	San Antonio Palopó	9	San Antonio Palopo	10	Octubre	2023-10-15T00:00:00	2024-11-08T22:00:00	1	Precipitación	0
13352	7	Sololá	712	San Antonio Palopó	9	San Antonio Palopo	10	Octubre	2023-10-15T00:00:00	2024-11-08T22:00:00	8	Radiación solar	0
13353	7	Sololá	712	San Antonio Palopó	9	San Antonio Palopo	10	Octubre	2023-10-15T00:00:00	2024-11-08T23:00:00	2	Temperatura media	18.6
13354	7	Sololá	712	San Antonio Palopó	9	San Antonio Palopo	10	Octubre	2023-10-15T00:00:00	2024-11-08T23:00:00	4	Temperatura máxima	19.2
13355	7	Sololá	712	San Antonio Palopó	9	San Antonio Palopo	10	Octubre	2023-10-15T00:00:00	2024-11-08T23:00:00	3	Temperatura mínima	18.5
13356	7	Sololá	712	San Antonio Palopó	9	San Antonio Palopo	10	Octubre	2023-10-15T00:00:00	2024-11-08T23:00:00	5	Humedad	93
13357	7	Sololá	712	San Antonio Palopó	9	San Antonio Palopo	10	Octubre	2023-10-15T00:00:00	2024-11-08T23:00:00	6	Velocidad del viento	1.6
13358	7	Sololá	712	San Antonio Palopó	9	San Antonio Palopo	10	Octubre	2023-10-15T00:00:00	2024-11-08T23:00:00	7	Dirección del viento	1.61
13359	7	Sololá	712	San Antonio Palopó	9	San Antonio Palopo	10	Octubre	2023-10-15T00:00:00	2024-11-08T23:00:00	1	Precipitación	8
13360	7	Sololá	712	San Antonio Palopó	9	San Antonio Palopo	10	Octubre	2023-10-15T00:00:00	2024-11-08T23:00:00	8	Radiación solar	0
13361	7	Sololá	712	San Antonio Palopó	9	San Antonio Palopo	10	Octubre	2023-10-16T00:00:00	2024-11-08T00:00:00	2	Temperatura media	18.1
13362	7	Sololá	712	San Antonio Palopó	9	San Antonio Palopo	10	Octubre	2023-10-16T00:00:00	2024-11-08T00:00:00	4	Temperatura máxima	18.7
13363	7	Sololá	712	San Antonio Palopó	9	San Antonio Palopo	10	Octubre	2023-10-16T00:00:00	2024-11-08T00:00:00	3	Temperatura mínima	18.1
13364	7	Sololá	712	San Antonio Palopó	9	San Antonio Palopo	10	Octubre	2023-10-16T00:00:00	2024-11-08T00:00:00	5	Humedad	91
13365	7	Sololá	712	San Antonio Palopó	9	San Antonio Palopo	10	Octubre	2023-10-16T00:00:00	2024-11-08T00:00:00	6	Velocidad del viento	3.2
13366	7	Sololá	712	San Antonio Palopó	9	San Antonio Palopo	10	Octubre	2023-10-16T00:00:00	2024-11-08T00:00:00	7	Dirección del viento	3.22
13367	7	Sololá	712	San Antonio Palopó	9	San Antonio Palopo	10	Octubre	2023-10-16T00:00:00	2024-11-08T00:00:00	1	Precipitación	2.6
13368	7	Sololá	712	San Antonio Palopó	9	San Antonio Palopo	10	Octubre	2023-10-16T00:00:00	2024-11-08T00:00:00	8	Radiación solar	0
13369	7	Sololá	712	San Antonio Palopó	9	San Antonio Palopo	10	Octubre	2023-10-16T00:00:00	2024-11-08T01:00:00	2	Temperatura media	17.8
13370	7	Sololá	712	San Antonio Palopó	9	San Antonio Palopo	10	Octubre	2023-10-16T00:00:00	2024-11-08T01:00:00	4	Temperatura máxima	18.1
13371	7	Sololá	712	San Antonio Palopó	9	San Antonio Palopo	10	Octubre	2023-10-16T00:00:00	2024-11-08T01:00:00	3	Temperatura mínima	17.8
13372	7	Sololá	712	San Antonio Palopó	9	San Antonio Palopo	10	Octubre	2023-10-16T00:00:00	2024-11-08T01:00:00	5	Humedad	91
13373	7	Sololá	712	San Antonio Palopó	9	San Antonio Palopo	10	Octubre	2023-10-16T00:00:00	2024-11-08T01:00:00	6	Velocidad del viento	1.6
13374	7	Sololá	712	San Antonio Palopó	9	San Antonio Palopo	10	Octubre	2023-10-16T00:00:00	2024-11-08T01:00:00	7	Dirección del viento	1.61
13375	7	Sololá	712	San Antonio Palopó	9	San Antonio Palopo	10	Octubre	2023-10-16T00:00:00	2024-11-08T01:00:00	1	Precipitación	0
13376	7	Sololá	712	San Antonio Palopó	9	San Antonio Palopo	10	Octubre	2023-10-16T00:00:00	2024-11-08T01:00:00	8	Radiación solar	0
13377	7	Sololá	712	San Antonio Palopó	9	San Antonio Palopo	10	Octubre	2023-10-16T00:00:00	2024-11-08T02:00:00	2	Temperatura media	18.3
13378	7	Sololá	712	San Antonio Palopó	9	San Antonio Palopo	10	Octubre	2023-10-16T00:00:00	2024-11-08T02:00:00	4	Temperatura máxima	18.3
13379	7	Sololá	712	San Antonio Palopó	9	San Antonio Palopo	10	Octubre	2023-10-16T00:00:00	2024-11-08T02:00:00	3	Temperatura mínima	17.4
13380	7	Sololá	712	San Antonio Palopó	9	San Antonio Palopo	10	Octubre	2023-10-16T00:00:00	2024-11-08T02:00:00	5	Humedad	78
13381	7	Sololá	712	San Antonio Palopó	9	San Antonio Palopo	10	Octubre	2023-10-16T00:00:00	2024-11-08T02:00:00	6	Velocidad del viento	4.8
13382	7	Sololá	712	San Antonio Palopó	9	San Antonio Palopo	10	Octubre	2023-10-16T00:00:00	2024-11-08T02:00:00	7	Dirección del viento	4.83
13383	7	Sololá	712	San Antonio Palopó	9	San Antonio Palopo	10	Octubre	2023-10-16T00:00:00	2024-11-08T02:00:00	1	Precipitación	0
13384	7	Sololá	712	San Antonio Palopó	9	San Antonio Palopo	10	Octubre	2023-10-16T00:00:00	2024-11-08T02:00:00	8	Radiación solar	0
13385	7	Sololá	712	San Antonio Palopó	9	San Antonio Palopo	10	Octubre	2023-10-16T00:00:00	2024-11-08T03:00:00	2	Temperatura media	18.3
13386	7	Sololá	712	San Antonio Palopó	9	San Antonio Palopo	10	Octubre	2023-10-16T00:00:00	2024-11-08T03:00:00	4	Temperatura máxima	18.4
13387	7	Sololá	712	San Antonio Palopó	9	San Antonio Palopo	10	Octubre	2023-10-16T00:00:00	2024-11-08T03:00:00	3	Temperatura mínima	17.8
13388	7	Sololá	712	San Antonio Palopó	9	San Antonio Palopo	10	Octubre	2023-10-16T00:00:00	2024-11-08T03:00:00	5	Humedad	77
13389	7	Sololá	712	San Antonio Palopó	9	San Antonio Palopo	10	Octubre	2023-10-16T00:00:00	2024-11-08T03:00:00	6	Velocidad del viento	4.8
13390	7	Sololá	712	San Antonio Palopó	9	San Antonio Palopo	10	Octubre	2023-10-16T00:00:00	2024-11-08T03:00:00	7	Dirección del viento	4.83
13391	7	Sololá	712	San Antonio Palopó	9	San Antonio Palopo	10	Octubre	2023-10-16T00:00:00	2024-11-08T03:00:00	1	Precipitación	0
13392	7	Sololá	712	San Antonio Palopó	9	San Antonio Palopo	10	Octubre	2023-10-16T00:00:00	2024-11-08T03:00:00	8	Radiación solar	0
13393	7	Sololá	712	San Antonio Palopó	9	San Antonio Palopo	10	Octubre	2023-10-16T00:00:00	2024-11-08T04:00:00	2	Temperatura media	19.2
13394	7	Sololá	712	San Antonio Palopó	9	San Antonio Palopo	10	Octubre	2023-10-16T00:00:00	2024-11-08T04:00:00	4	Temperatura máxima	19.2
13395	7	Sololá	712	San Antonio Palopó	9	San Antonio Palopo	10	Octubre	2023-10-16T00:00:00	2024-11-08T04:00:00	3	Temperatura mínima	17.8
13396	7	Sololá	712	San Antonio Palopó	9	San Antonio Palopo	10	Octubre	2023-10-16T00:00:00	2024-11-08T04:00:00	5	Humedad	70
13397	7	Sololá	712	San Antonio Palopó	9	San Antonio Palopo	10	Octubre	2023-10-16T00:00:00	2024-11-08T04:00:00	6	Velocidad del viento	4.8
13398	7	Sololá	712	San Antonio Palopó	9	San Antonio Palopo	10	Octubre	2023-10-16T00:00:00	2024-11-08T04:00:00	7	Dirección del viento	4.83
13399	7	Sololá	712	San Antonio Palopó	9	San Antonio Palopo	10	Octubre	2023-10-16T00:00:00	2024-11-08T04:00:00	1	Precipitación	0
13400	7	Sololá	712	San Antonio Palopó	9	San Antonio Palopo	10	Octubre	2023-10-16T00:00:00	2024-11-08T04:00:00	8	Radiación solar	0
13401	7	Sololá	712	San Antonio Palopó	9	San Antonio Palopo	10	Octubre	2023-10-16T00:00:00	2024-11-08T05:00:00	2	Temperatura media	19.5
13402	7	Sololá	712	San Antonio Palopó	9	San Antonio Palopo	10	Octubre	2023-10-16T00:00:00	2024-11-08T05:00:00	4	Temperatura máxima	19.6
13403	7	Sololá	712	San Antonio Palopó	9	San Antonio Palopo	10	Octubre	2023-10-16T00:00:00	2024-11-08T05:00:00	3	Temperatura mínima	19.2
13404	7	Sololá	712	San Antonio Palopó	9	San Antonio Palopo	10	Octubre	2023-10-16T00:00:00	2024-11-08T05:00:00	5	Humedad	70
13405	7	Sololá	712	San Antonio Palopó	9	San Antonio Palopo	10	Octubre	2023-10-16T00:00:00	2024-11-08T05:00:00	6	Velocidad del viento	8
13406	7	Sololá	712	San Antonio Palopó	9	San Antonio Palopo	10	Octubre	2023-10-16T00:00:00	2024-11-08T05:00:00	7	Dirección del viento	8.05
13407	7	Sololá	712	San Antonio Palopó	9	San Antonio Palopo	10	Octubre	2023-10-16T00:00:00	2024-11-08T05:00:00	1	Precipitación	0
13408	7	Sololá	712	San Antonio Palopó	9	San Antonio Palopo	10	Octubre	2023-10-16T00:00:00	2024-11-08T05:00:00	8	Radiación solar	0
13409	7	Sololá	712	San Antonio Palopó	9	San Antonio Palopo	10	Octubre	2023-10-16T00:00:00	2024-11-08T06:00:00	2	Temperatura media	18.1
13410	7	Sololá	712	San Antonio Palopó	9	San Antonio Palopo	10	Octubre	2023-10-16T00:00:00	2024-11-08T06:00:00	4	Temperatura máxima	19.7
13411	7	Sololá	712	San Antonio Palopó	9	San Antonio Palopo	10	Octubre	2023-10-16T00:00:00	2024-11-08T06:00:00	3	Temperatura mínima	17.3
13412	7	Sololá	712	San Antonio Palopó	9	San Antonio Palopo	10	Octubre	2023-10-16T00:00:00	2024-11-08T06:00:00	5	Humedad	77
13413	7	Sololá	712	San Antonio Palopó	9	San Antonio Palopo	10	Octubre	2023-10-16T00:00:00	2024-11-08T06:00:00	6	Velocidad del viento	6.4
13414	7	Sololá	712	San Antonio Palopó	9	San Antonio Palopo	10	Octubre	2023-10-16T00:00:00	2024-11-08T06:00:00	7	Dirección del viento	6.44
13415	7	Sololá	712	San Antonio Palopó	9	San Antonio Palopo	10	Octubre	2023-10-16T00:00:00	2024-11-08T06:00:00	1	Precipitación	0
13416	7	Sololá	712	San Antonio Palopó	9	San Antonio Palopo	10	Octubre	2023-10-16T00:00:00	2024-11-08T06:00:00	8	Radiación solar	0
13417	7	Sololá	712	San Antonio Palopó	9	San Antonio Palopo	10	Octubre	2023-10-16T00:00:00	2024-11-08T07:00:00	2	Temperatura media	18.8
13418	7	Sololá	712	San Antonio Palopó	9	San Antonio Palopo	10	Octubre	2023-10-16T00:00:00	2024-11-08T07:00:00	4	Temperatura máxima	19.3
13419	7	Sololá	712	San Antonio Palopó	9	San Antonio Palopo	10	Octubre	2023-10-16T00:00:00	2024-11-08T07:00:00	3	Temperatura mínima	17.7
13420	7	Sololá	712	San Antonio Palopó	9	San Antonio Palopo	10	Octubre	2023-10-16T00:00:00	2024-11-08T07:00:00	5	Humedad	73
13421	7	Sololá	712	San Antonio Palopó	9	San Antonio Palopo	10	Octubre	2023-10-16T00:00:00	2024-11-08T07:00:00	6	Velocidad del viento	6.4
13422	7	Sololá	712	San Antonio Palopó	9	San Antonio Palopo	10	Octubre	2023-10-16T00:00:00	2024-11-08T07:00:00	7	Dirección del viento	6.44
13423	7	Sololá	712	San Antonio Palopó	9	San Antonio Palopo	10	Octubre	2023-10-16T00:00:00	2024-11-08T07:00:00	1	Precipitación	0
13424	7	Sololá	712	San Antonio Palopó	9	San Antonio Palopo	10	Octubre	2023-10-16T00:00:00	2024-11-08T07:00:00	8	Radiación solar	18
13425	7	Sololá	712	San Antonio Palopó	9	San Antonio Palopo	10	Octubre	2023-10-16T00:00:00	2024-11-08T08:00:00	2	Temperatura media	20.7
13426	7	Sololá	712	San Antonio Palopó	9	San Antonio Palopo	10	Octubre	2023-10-16T00:00:00	2024-11-08T08:00:00	4	Temperatura máxima	20.7
13427	7	Sololá	712	San Antonio Palopó	9	San Antonio Palopo	10	Octubre	2023-10-16T00:00:00	2024-11-08T08:00:00	3	Temperatura mínima	18.4
13428	7	Sololá	712	San Antonio Palopó	9	San Antonio Palopo	10	Octubre	2023-10-16T00:00:00	2024-11-08T08:00:00	5	Humedad	68
13429	7	Sololá	712	San Antonio Palopó	9	San Antonio Palopo	10	Octubre	2023-10-16T00:00:00	2024-11-08T08:00:00	6	Velocidad del viento	4.8
13430	7	Sololá	712	San Antonio Palopó	9	San Antonio Palopo	10	Octubre	2023-10-16T00:00:00	2024-11-08T08:00:00	7	Dirección del viento	4.83
13431	7	Sololá	712	San Antonio Palopó	9	San Antonio Palopo	10	Octubre	2023-10-16T00:00:00	2024-11-08T08:00:00	1	Precipitación	0
13432	7	Sololá	712	San Antonio Palopó	9	San Antonio Palopo	10	Octubre	2023-10-16T00:00:00	2024-11-08T08:00:00	8	Radiación solar	115
13433	7	Sololá	712	San Antonio Palopó	9	San Antonio Palopo	10	Octubre	2023-10-16T00:00:00	2024-11-08T09:00:00	2	Temperatura media	22.2
13434	7	Sololá	712	San Antonio Palopó	9	San Antonio Palopo	10	Octubre	2023-10-16T00:00:00	2024-11-08T09:00:00	4	Temperatura máxima	22.2
13435	7	Sololá	712	San Antonio Palopó	9	San Antonio Palopo	10	Octubre	2023-10-16T00:00:00	2024-11-08T09:00:00	3	Temperatura mínima	20.7
13436	7	Sololá	712	San Antonio Palopó	9	San Antonio Palopo	10	Octubre	2023-10-16T00:00:00	2024-11-08T09:00:00	5	Humedad	62
13437	7	Sololá	712	San Antonio Palopó	9	San Antonio Palopo	10	Octubre	2023-10-16T00:00:00	2024-11-08T09:00:00	6	Velocidad del viento	4.8
13438	7	Sololá	712	San Antonio Palopó	9	San Antonio Palopo	10	Octubre	2023-10-16T00:00:00	2024-11-08T09:00:00	7	Dirección del viento	4.83
13439	7	Sololá	712	San Antonio Palopó	9	San Antonio Palopo	10	Octubre	2023-10-16T00:00:00	2024-11-08T09:00:00	1	Precipitación	0
13440	7	Sololá	712	San Antonio Palopó	9	San Antonio Palopo	10	Octubre	2023-10-16T00:00:00	2024-11-08T09:00:00	8	Radiación solar	375
13441	7	Sololá	712	San Antonio Palopó	9	San Antonio Palopo	10	Octubre	2023-10-16T00:00:00	2024-11-08T10:00:00	2	Temperatura media	23.4
13442	7	Sololá	712	San Antonio Palopó	9	San Antonio Palopo	10	Octubre	2023-10-16T00:00:00	2024-11-08T10:00:00	4	Temperatura máxima	23.5
13443	7	Sololá	712	San Antonio Palopó	9	San Antonio Palopo	10	Octubre	2023-10-16T00:00:00	2024-11-08T10:00:00	3	Temperatura mínima	22.2
13444	7	Sololá	712	San Antonio Palopó	9	San Antonio Palopo	10	Octubre	2023-10-16T00:00:00	2024-11-08T10:00:00	5	Humedad	61
13445	7	Sololá	712	San Antonio Palopó	9	San Antonio Palopo	10	Octubre	2023-10-16T00:00:00	2024-11-08T10:00:00	6	Velocidad del viento	6.4
13446	7	Sololá	712	San Antonio Palopó	9	San Antonio Palopo	10	Octubre	2023-10-16T00:00:00	2024-11-08T10:00:00	7	Dirección del viento	6.44
13447	7	Sololá	712	San Antonio Palopó	9	San Antonio Palopo	10	Octubre	2023-10-16T00:00:00	2024-11-08T10:00:00	1	Precipitación	0
13448	7	Sololá	712	San Antonio Palopó	9	San Antonio Palopo	10	Octubre	2023-10-16T00:00:00	2024-11-08T10:00:00	8	Radiación solar	565
13449	7	Sololá	712	San Antonio Palopó	9	San Antonio Palopo	10	Octubre	2023-10-16T00:00:00	2024-11-08T11:00:00	2	Temperatura media	23.4
13450	7	Sololá	712	San Antonio Palopó	9	San Antonio Palopo	10	Octubre	2023-10-16T00:00:00	2024-11-08T11:00:00	4	Temperatura máxima	23.8
13451	7	Sololá	712	San Antonio Palopó	9	San Antonio Palopo	10	Octubre	2023-10-16T00:00:00	2024-11-08T11:00:00	3	Temperatura mínima	23.3
13452	7	Sololá	712	San Antonio Palopó	9	San Antonio Palopo	10	Octubre	2023-10-16T00:00:00	2024-11-08T11:00:00	5	Humedad	61
13453	7	Sololá	712	San Antonio Palopó	9	San Antonio Palopo	10	Octubre	2023-10-16T00:00:00	2024-11-08T11:00:00	6	Velocidad del viento	8
13454	7	Sololá	712	San Antonio Palopó	9	San Antonio Palopo	10	Octubre	2023-10-16T00:00:00	2024-11-08T11:00:00	7	Dirección del viento	8.05
13455	7	Sololá	712	San Antonio Palopó	9	San Antonio Palopo	10	Octubre	2023-10-16T00:00:00	2024-11-08T11:00:00	1	Precipitación	0
13456	7	Sololá	712	San Antonio Palopó	9	San Antonio Palopo	10	Octubre	2023-10-16T00:00:00	2024-11-08T11:00:00	8	Radiación solar	549
13457	7	Sololá	712	San Antonio Palopó	9	San Antonio Palopo	10	Octubre	2023-10-16T00:00:00	2024-11-08T12:00:00	2	Temperatura media	23.9
13458	7	Sololá	712	San Antonio Palopó	9	San Antonio Palopo	10	Octubre	2023-10-16T00:00:00	2024-11-08T12:00:00	4	Temperatura máxima	23.9
13459	7	Sololá	712	San Antonio Palopó	9	San Antonio Palopo	10	Octubre	2023-10-16T00:00:00	2024-11-08T12:00:00	3	Temperatura mínima	23.1
13460	7	Sololá	712	San Antonio Palopó	9	San Antonio Palopo	10	Octubre	2023-10-16T00:00:00	2024-11-08T12:00:00	5	Humedad	60
13461	7	Sololá	712	San Antonio Palopó	9	San Antonio Palopo	10	Octubre	2023-10-16T00:00:00	2024-11-08T12:00:00	6	Velocidad del viento	14.5
13462	7	Sololá	712	San Antonio Palopó	9	San Antonio Palopo	10	Octubre	2023-10-16T00:00:00	2024-11-08T12:00:00	7	Dirección del viento	14.48
13463	7	Sololá	712	San Antonio Palopó	9	San Antonio Palopo	10	Octubre	2023-10-16T00:00:00	2024-11-08T12:00:00	1	Precipitación	0
13464	7	Sololá	712	San Antonio Palopó	9	San Antonio Palopo	10	Octubre	2023-10-16T00:00:00	2024-11-08T12:00:00	8	Radiación solar	396
13465	7	Sololá	712	San Antonio Palopó	9	San Antonio Palopo	10	Octubre	2023-10-16T00:00:00	2024-11-08T13:00:00	2	Temperatura media	21.9
13466	7	Sololá	712	San Antonio Palopó	9	San Antonio Palopo	10	Octubre	2023-10-16T00:00:00	2024-11-08T13:00:00	4	Temperatura máxima	24.4
13467	7	Sololá	712	San Antonio Palopó	9	San Antonio Palopo	10	Octubre	2023-10-16T00:00:00	2024-11-08T13:00:00	3	Temperatura mínima	21.9
13468	7	Sololá	712	San Antonio Palopó	9	San Antonio Palopo	10	Octubre	2023-10-16T00:00:00	2024-11-08T13:00:00	5	Humedad	78
13469	7	Sololá	712	San Antonio Palopó	9	San Antonio Palopo	10	Octubre	2023-10-16T00:00:00	2024-11-08T13:00:00	6	Velocidad del viento	9.7
13470	7	Sololá	712	San Antonio Palopó	9	San Antonio Palopo	10	Octubre	2023-10-16T00:00:00	2024-11-08T13:00:00	7	Dirección del viento	9.66
13471	7	Sololá	712	San Antonio Palopó	9	San Antonio Palopo	10	Octubre	2023-10-16T00:00:00	2024-11-08T13:00:00	1	Precipitación	0
13472	7	Sololá	712	San Antonio Palopó	9	San Antonio Palopo	10	Octubre	2023-10-16T00:00:00	2024-11-08T13:00:00	8	Radiación solar	357
13473	7	Sololá	712	San Antonio Palopó	9	San Antonio Palopo	10	Octubre	2023-10-16T00:00:00	2024-11-08T14:00:00	2	Temperatura media	22.4
13474	7	Sololá	712	San Antonio Palopó	9	San Antonio Palopo	10	Octubre	2023-10-16T00:00:00	2024-11-08T14:00:00	4	Temperatura máxima	23
13475	7	Sololá	712	San Antonio Palopó	9	San Antonio Palopo	10	Octubre	2023-10-16T00:00:00	2024-11-08T14:00:00	3	Temperatura mínima	21.8
13476	7	Sololá	712	San Antonio Palopó	9	San Antonio Palopo	10	Octubre	2023-10-16T00:00:00	2024-11-08T14:00:00	5	Humedad	78
13477	7	Sololá	712	San Antonio Palopó	9	San Antonio Palopo	10	Octubre	2023-10-16T00:00:00	2024-11-08T14:00:00	6	Velocidad del viento	8
13478	7	Sololá	712	San Antonio Palopó	9	San Antonio Palopo	10	Octubre	2023-10-16T00:00:00	2024-11-08T14:00:00	7	Dirección del viento	8.05
13479	7	Sololá	712	San Antonio Palopó	9	San Antonio Palopo	10	Octubre	2023-10-16T00:00:00	2024-11-08T14:00:00	1	Precipitación	0
13480	7	Sololá	712	San Antonio Palopó	9	San Antonio Palopo	10	Octubre	2023-10-16T00:00:00	2024-11-08T14:00:00	8	Radiación solar	228
13481	7	Sololá	712	San Antonio Palopó	9	San Antonio Palopo	10	Octubre	2023-10-16T00:00:00	2024-11-08T15:00:00	2	Temperatura media	23
13482	7	Sololá	712	San Antonio Palopó	9	San Antonio Palopo	10	Octubre	2023-10-16T00:00:00	2024-11-08T15:00:00	4	Temperatura máxima	23
13483	7	Sololá	712	San Antonio Palopó	9	San Antonio Palopo	10	Octubre	2023-10-16T00:00:00	2024-11-08T15:00:00	3	Temperatura mínima	22.3
13484	7	Sololá	712	San Antonio Palopó	9	San Antonio Palopo	10	Octubre	2023-10-16T00:00:00	2024-11-08T15:00:00	5	Humedad	74
13485	7	Sololá	712	San Antonio Palopó	9	San Antonio Palopo	10	Octubre	2023-10-16T00:00:00	2024-11-08T15:00:00	6	Velocidad del viento	8
13486	7	Sololá	712	San Antonio Palopó	9	San Antonio Palopo	10	Octubre	2023-10-16T00:00:00	2024-11-08T15:00:00	7	Dirección del viento	8.05
13487	7	Sololá	712	San Antonio Palopó	9	San Antonio Palopo	10	Octubre	2023-10-16T00:00:00	2024-11-08T15:00:00	1	Precipitación	0
13488	7	Sololá	712	San Antonio Palopó	9	San Antonio Palopo	10	Octubre	2023-10-16T00:00:00	2024-11-08T15:00:00	8	Radiación solar	239
13489	7	Sololá	712	San Antonio Palopó	9	San Antonio Palopo	10	Octubre	2023-10-16T00:00:00	2024-11-08T16:00:00	2	Temperatura media	22.2
13490	7	Sololá	712	San Antonio Palopó	9	San Antonio Palopo	10	Octubre	2023-10-16T00:00:00	2024-11-08T16:00:00	4	Temperatura máxima	23.2
13491	7	Sololá	712	San Antonio Palopó	9	San Antonio Palopo	10	Octubre	2023-10-16T00:00:00	2024-11-08T16:00:00	3	Temperatura mínima	22.1
13492	7	Sololá	712	San Antonio Palopó	9	San Antonio Palopo	10	Octubre	2023-10-16T00:00:00	2024-11-08T16:00:00	5	Humedad	80
13493	7	Sololá	712	San Antonio Palopó	9	San Antonio Palopo	10	Octubre	2023-10-16T00:00:00	2024-11-08T16:00:00	6	Velocidad del viento	4.8
13494	7	Sololá	712	San Antonio Palopó	9	San Antonio Palopo	10	Octubre	2023-10-16T00:00:00	2024-11-08T16:00:00	7	Dirección del viento	4.83
13495	7	Sololá	712	San Antonio Palopó	9	San Antonio Palopo	10	Octubre	2023-10-16T00:00:00	2024-11-08T16:00:00	1	Precipitación	0
13496	7	Sololá	712	San Antonio Palopó	9	San Antonio Palopo	10	Octubre	2023-10-16T00:00:00	2024-11-08T16:00:00	8	Radiación solar	219
13497	7	Sololá	712	San Antonio Palopó	9	San Antonio Palopo	10	Octubre	2023-10-16T00:00:00	2024-11-08T17:00:00	2	Temperatura media	22.1
13498	7	Sololá	712	San Antonio Palopó	9	San Antonio Palopo	10	Octubre	2023-10-16T00:00:00	2024-11-08T17:00:00	4	Temperatura máxima	23.3
13499	7	Sololá	712	San Antonio Palopó	9	San Antonio Palopo	10	Octubre	2023-10-16T00:00:00	2024-11-08T17:00:00	3	Temperatura mínima	21.8
13500	7	Sololá	712	San Antonio Palopó	9	San Antonio Palopo	10	Octubre	2023-10-16T00:00:00	2024-11-08T17:00:00	5	Humedad	75
13501	7	Sololá	712	San Antonio Palopó	9	San Antonio Palopo	10	Octubre	2023-10-16T00:00:00	2024-11-08T17:00:00	6	Velocidad del viento	4.8
13502	7	Sololá	712	San Antonio Palopó	9	San Antonio Palopo	10	Octubre	2023-10-16T00:00:00	2024-11-08T17:00:00	7	Dirección del viento	4.83
13503	7	Sololá	712	San Antonio Palopó	9	San Antonio Palopo	10	Octubre	2023-10-16T00:00:00	2024-11-08T17:00:00	1	Precipitación	0
13504	7	Sololá	712	San Antonio Palopó	9	San Antonio Palopo	10	Octubre	2023-10-16T00:00:00	2024-11-08T17:00:00	8	Radiación solar	169
13505	7	Sololá	712	San Antonio Palopó	9	San Antonio Palopo	10	Octubre	2023-10-16T00:00:00	2024-11-08T18:00:00	2	Temperatura media	21.4
13506	7	Sololá	712	San Antonio Palopó	9	San Antonio Palopo	10	Octubre	2023-10-16T00:00:00	2024-11-08T18:00:00	4	Temperatura máxima	22.2
13507	7	Sololá	712	San Antonio Palopó	9	San Antonio Palopo	10	Octubre	2023-10-16T00:00:00	2024-11-08T18:00:00	3	Temperatura mínima	21.4
13508	7	Sololá	712	San Antonio Palopó	9	San Antonio Palopo	10	Octubre	2023-10-16T00:00:00	2024-11-08T18:00:00	5	Humedad	67
13509	7	Sololá	712	San Antonio Palopó	9	San Antonio Palopo	10	Octubre	2023-10-16T00:00:00	2024-11-08T18:00:00	6	Velocidad del viento	6.4
13510	7	Sololá	712	San Antonio Palopó	9	San Antonio Palopo	10	Octubre	2023-10-16T00:00:00	2024-11-08T18:00:00	7	Dirección del viento	6.44
13511	7	Sololá	712	San Antonio Palopó	9	San Antonio Palopo	10	Octubre	2023-10-16T00:00:00	2024-11-08T18:00:00	1	Precipitación	0
13512	7	Sololá	712	San Antonio Palopó	9	San Antonio Palopo	10	Octubre	2023-10-16T00:00:00	2024-11-08T18:00:00	8	Radiación solar	11
13513	7	Sololá	712	San Antonio Palopó	9	San Antonio Palopo	10	Octubre	2023-10-16T00:00:00	2024-11-08T19:00:00	2	Temperatura media	21.2
13514	7	Sololá	712	San Antonio Palopó	9	San Antonio Palopo	10	Octubre	2023-10-16T00:00:00	2024-11-08T19:00:00	4	Temperatura máxima	21.5
13515	7	Sololá	712	San Antonio Palopó	9	San Antonio Palopo	10	Octubre	2023-10-16T00:00:00	2024-11-08T19:00:00	3	Temperatura mínima	21.1
13516	7	Sololá	712	San Antonio Palopó	9	San Antonio Palopo	10	Octubre	2023-10-16T00:00:00	2024-11-08T19:00:00	5	Humedad	65
13517	7	Sololá	712	San Antonio Palopó	9	San Antonio Palopo	10	Octubre	2023-10-16T00:00:00	2024-11-08T19:00:00	6	Velocidad del viento	8
13518	7	Sololá	712	San Antonio Palopó	9	San Antonio Palopo	10	Octubre	2023-10-16T00:00:00	2024-11-08T19:00:00	7	Dirección del viento	8.05
13519	7	Sololá	712	San Antonio Palopó	9	San Antonio Palopo	10	Octubre	2023-10-16T00:00:00	2024-11-08T19:00:00	1	Precipitación	0
13520	7	Sololá	712	San Antonio Palopó	9	San Antonio Palopo	10	Octubre	2023-10-16T00:00:00	2024-11-08T19:00:00	8	Radiación solar	0
13521	7	Sololá	712	San Antonio Palopó	9	San Antonio Palopo	10	Octubre	2023-10-16T00:00:00	2024-11-08T20:00:00	2	Temperatura media	21
13522	7	Sololá	712	San Antonio Palopó	9	San Antonio Palopo	10	Octubre	2023-10-16T00:00:00	2024-11-08T20:00:00	4	Temperatura máxima	21.2
13523	7	Sololá	712	San Antonio Palopó	9	San Antonio Palopo	10	Octubre	2023-10-16T00:00:00	2024-11-08T20:00:00	3	Temperatura mínima	20.9
13524	7	Sololá	712	San Antonio Palopó	9	San Antonio Palopo	10	Octubre	2023-10-16T00:00:00	2024-11-08T20:00:00	5	Humedad	66
13525	7	Sololá	712	San Antonio Palopó	9	San Antonio Palopo	10	Octubre	2023-10-16T00:00:00	2024-11-08T20:00:00	6	Velocidad del viento	6.4
13526	7	Sololá	712	San Antonio Palopó	9	San Antonio Palopo	10	Octubre	2023-10-16T00:00:00	2024-11-08T20:00:00	7	Dirección del viento	6.44
13527	7	Sololá	712	San Antonio Palopó	9	San Antonio Palopo	10	Octubre	2023-10-16T00:00:00	2024-11-08T20:00:00	1	Precipitación	0
13528	7	Sololá	712	San Antonio Palopó	9	San Antonio Palopo	10	Octubre	2023-10-16T00:00:00	2024-11-08T20:00:00	8	Radiación solar	0
13529	7	Sololá	712	San Antonio Palopó	9	San Antonio Palopo	10	Octubre	2023-10-16T00:00:00	2024-11-08T21:00:00	2	Temperatura media	20.8
13530	7	Sololá	712	San Antonio Palopó	9	San Antonio Palopo	10	Octubre	2023-10-16T00:00:00	2024-11-08T21:00:00	4	Temperatura máxima	21.2
13531	7	Sololá	712	San Antonio Palopó	9	San Antonio Palopo	10	Octubre	2023-10-16T00:00:00	2024-11-08T21:00:00	3	Temperatura mínima	20.8
13532	7	Sololá	712	San Antonio Palopó	9	San Antonio Palopo	10	Octubre	2023-10-16T00:00:00	2024-11-08T21:00:00	5	Humedad	66
13533	7	Sololá	712	San Antonio Palopó	9	San Antonio Palopo	10	Octubre	2023-10-16T00:00:00	2024-11-08T21:00:00	6	Velocidad del viento	8
13534	7	Sololá	712	San Antonio Palopó	9	San Antonio Palopo	10	Octubre	2023-10-16T00:00:00	2024-11-08T21:00:00	7	Dirección del viento	8.05
13535	7	Sololá	712	San Antonio Palopó	9	San Antonio Palopo	10	Octubre	2023-10-16T00:00:00	2024-11-08T21:00:00	1	Precipitación	0
13536	7	Sololá	712	San Antonio Palopó	9	San Antonio Palopo	10	Octubre	2023-10-16T00:00:00	2024-11-08T21:00:00	8	Radiación solar	0
13537	7	Sololá	712	San Antonio Palopó	9	San Antonio Palopo	10	Octubre	2023-10-16T00:00:00	2024-11-08T22:00:00	2	Temperatura media	20.6
13538	7	Sololá	712	San Antonio Palopó	9	San Antonio Palopo	10	Octubre	2023-10-16T00:00:00	2024-11-08T22:00:00	4	Temperatura máxima	20.8
13539	7	Sololá	712	San Antonio Palopó	9	San Antonio Palopo	10	Octubre	2023-10-16T00:00:00	2024-11-08T22:00:00	3	Temperatura mínima	20.3
13540	7	Sololá	712	San Antonio Palopó	9	San Antonio Palopo	10	Octubre	2023-10-16T00:00:00	2024-11-08T22:00:00	5	Humedad	67
13541	7	Sololá	712	San Antonio Palopó	9	San Antonio Palopo	10	Octubre	2023-10-16T00:00:00	2024-11-08T22:00:00	6	Velocidad del viento	6.4
13542	7	Sololá	712	San Antonio Palopó	9	San Antonio Palopo	10	Octubre	2023-10-16T00:00:00	2024-11-08T22:00:00	7	Dirección del viento	6.44
13543	7	Sololá	712	San Antonio Palopó	9	San Antonio Palopo	10	Octubre	2023-10-16T00:00:00	2024-11-08T22:00:00	1	Precipitación	0
13544	7	Sololá	712	San Antonio Palopó	9	San Antonio Palopo	10	Octubre	2023-10-16T00:00:00	2024-11-08T22:00:00	8	Radiación solar	0
13545	7	Sololá	712	San Antonio Palopó	9	San Antonio Palopo	10	Octubre	2023-10-16T00:00:00	2024-11-08T23:00:00	2	Temperatura media	20.2
13546	7	Sololá	712	San Antonio Palopó	9	San Antonio Palopo	10	Octubre	2023-10-16T00:00:00	2024-11-08T23:00:00	4	Temperatura máxima	20.5
13547	7	Sololá	712	San Antonio Palopó	9	San Antonio Palopo	10	Octubre	2023-10-16T00:00:00	2024-11-08T23:00:00	3	Temperatura mínima	20.1
13548	7	Sololá	712	San Antonio Palopó	9	San Antonio Palopo	10	Octubre	2023-10-16T00:00:00	2024-11-08T23:00:00	5	Humedad	66
13549	7	Sololá	712	San Antonio Palopó	9	San Antonio Palopo	10	Octubre	2023-10-16T00:00:00	2024-11-08T23:00:00	6	Velocidad del viento	12.9
13550	7	Sololá	712	San Antonio Palopó	9	San Antonio Palopo	10	Octubre	2023-10-16T00:00:00	2024-11-08T23:00:00	7	Dirección del viento	12.87
13551	7	Sololá	712	San Antonio Palopó	9	San Antonio Palopo	10	Octubre	2023-10-16T00:00:00	2024-11-08T23:00:00	1	Precipitación	0
13552	7	Sololá	712	San Antonio Palopó	9	San Antonio Palopo	10	Octubre	2023-10-16T00:00:00	2024-11-08T23:00:00	8	Radiación solar	0
13553	7	Sololá	712	San Antonio Palopó	9	San Antonio Palopo	10	Octubre	2023-10-17T00:00:00	2024-11-08T00:00:00	2	Temperatura media	19.4
13554	7	Sololá	712	San Antonio Palopó	9	San Antonio Palopo	10	Octubre	2023-10-17T00:00:00	2024-11-08T00:00:00	4	Temperatura máxima	20.3
13555	7	Sololá	712	San Antonio Palopó	9	San Antonio Palopo	10	Octubre	2023-10-17T00:00:00	2024-11-08T00:00:00	3	Temperatura mínima	19.4
13556	7	Sololá	712	San Antonio Palopó	9	San Antonio Palopo	10	Octubre	2023-10-17T00:00:00	2024-11-08T00:00:00	5	Humedad	68
13557	7	Sololá	712	San Antonio Palopó	9	San Antonio Palopo	10	Octubre	2023-10-17T00:00:00	2024-11-08T00:00:00	6	Velocidad del viento	6.4
13558	7	Sololá	712	San Antonio Palopó	9	San Antonio Palopo	10	Octubre	2023-10-17T00:00:00	2024-11-08T00:00:00	7	Dirección del viento	6.44
13559	7	Sololá	712	San Antonio Palopó	9	San Antonio Palopo	10	Octubre	2023-10-17T00:00:00	2024-11-08T00:00:00	1	Precipitación	0
13560	7	Sololá	712	San Antonio Palopó	9	San Antonio Palopo	10	Octubre	2023-10-17T00:00:00	2024-11-08T00:00:00	8	Radiación solar	0
13561	7	Sololá	712	San Antonio Palopó	9	San Antonio Palopo	10	Octubre	2023-10-17T00:00:00	2024-11-08T01:00:00	2	Temperatura media	19.3
13562	7	Sololá	712	San Antonio Palopó	9	San Antonio Palopo	10	Octubre	2023-10-17T00:00:00	2024-11-08T01:00:00	4	Temperatura máxima	19.5
13563	7	Sololá	712	San Antonio Palopó	9	San Antonio Palopo	10	Octubre	2023-10-17T00:00:00	2024-11-08T01:00:00	3	Temperatura mínima	19.3
13564	7	Sololá	712	San Antonio Palopó	9	San Antonio Palopo	10	Octubre	2023-10-17T00:00:00	2024-11-08T01:00:00	5	Humedad	67
13565	7	Sololá	712	San Antonio Palopó	9	San Antonio Palopo	10	Octubre	2023-10-17T00:00:00	2024-11-08T01:00:00	6	Velocidad del viento	8
13566	7	Sololá	712	San Antonio Palopó	9	San Antonio Palopo	10	Octubre	2023-10-17T00:00:00	2024-11-08T01:00:00	7	Dirección del viento	8.05
13567	7	Sololá	712	San Antonio Palopó	9	San Antonio Palopo	10	Octubre	2023-10-17T00:00:00	2024-11-08T01:00:00	1	Precipitación	0
13568	7	Sololá	712	San Antonio Palopó	9	San Antonio Palopo	10	Octubre	2023-10-17T00:00:00	2024-11-08T01:00:00	8	Radiación solar	0
13569	7	Sololá	712	San Antonio Palopó	9	San Antonio Palopo	10	Octubre	2023-10-17T00:00:00	2024-11-08T02:00:00	2	Temperatura media	19.1
13570	7	Sololá	712	San Antonio Palopó	9	San Antonio Palopo	10	Octubre	2023-10-17T00:00:00	2024-11-08T02:00:00	4	Temperatura máxima	19.3
13571	7	Sololá	712	San Antonio Palopó	9	San Antonio Palopo	10	Octubre	2023-10-17T00:00:00	2024-11-08T02:00:00	3	Temperatura mínima	18.8
13572	7	Sololá	712	San Antonio Palopó	9	San Antonio Palopo	10	Octubre	2023-10-17T00:00:00	2024-11-08T02:00:00	5	Humedad	67
13573	7	Sololá	712	San Antonio Palopó	9	San Antonio Palopo	10	Octubre	2023-10-17T00:00:00	2024-11-08T02:00:00	6	Velocidad del viento	6.4
13574	7	Sololá	712	San Antonio Palopó	9	San Antonio Palopo	10	Octubre	2023-10-17T00:00:00	2024-11-08T02:00:00	7	Dirección del viento	6.44
13575	7	Sololá	712	San Antonio Palopó	9	San Antonio Palopo	10	Octubre	2023-10-17T00:00:00	2024-11-08T02:00:00	1	Precipitación	0
13576	7	Sololá	712	San Antonio Palopó	9	San Antonio Palopo	10	Octubre	2023-10-17T00:00:00	2024-11-08T02:00:00	8	Radiación solar	0
13577	7	Sololá	712	San Antonio Palopó	9	San Antonio Palopo	10	Octubre	2023-10-17T00:00:00	2024-11-08T03:00:00	2	Temperatura media	18.4
13578	7	Sololá	712	San Antonio Palopó	9	San Antonio Palopo	10	Octubre	2023-10-17T00:00:00	2024-11-08T03:00:00	4	Temperatura máxima	19.1
13579	7	Sololá	712	San Antonio Palopó	9	San Antonio Palopo	10	Octubre	2023-10-17T00:00:00	2024-11-08T03:00:00	3	Temperatura mínima	18.2
13580	7	Sololá	712	San Antonio Palopó	9	San Antonio Palopo	10	Octubre	2023-10-17T00:00:00	2024-11-08T03:00:00	5	Humedad	67
13581	7	Sololá	712	San Antonio Palopó	9	San Antonio Palopo	10	Octubre	2023-10-17T00:00:00	2024-11-08T03:00:00	6	Velocidad del viento	12.9
13582	7	Sololá	712	San Antonio Palopó	9	San Antonio Palopo	10	Octubre	2023-10-17T00:00:00	2024-11-08T03:00:00	7	Dirección del viento	12.87
13583	7	Sololá	712	San Antonio Palopó	9	San Antonio Palopo	10	Octubre	2023-10-17T00:00:00	2024-11-08T03:00:00	1	Precipitación	0
13584	7	Sololá	712	San Antonio Palopó	9	San Antonio Palopo	10	Octubre	2023-10-17T00:00:00	2024-11-08T03:00:00	8	Radiación solar	0
13585	7	Sololá	712	San Antonio Palopó	9	San Antonio Palopo	10	Octubre	2023-10-17T00:00:00	2024-11-08T04:00:00	2	Temperatura media	18.6
13586	7	Sololá	712	San Antonio Palopó	9	San Antonio Palopo	10	Octubre	2023-10-17T00:00:00	2024-11-08T04:00:00	4	Temperatura máxima	18.7
13587	7	Sololá	712	San Antonio Palopó	9	San Antonio Palopo	10	Octubre	2023-10-17T00:00:00	2024-11-08T04:00:00	3	Temperatura mínima	18.3
13588	7	Sololá	712	San Antonio Palopó	9	San Antonio Palopo	10	Octubre	2023-10-17T00:00:00	2024-11-08T04:00:00	5	Humedad	66
13589	7	Sololá	712	San Antonio Palopó	9	San Antonio Palopo	10	Octubre	2023-10-17T00:00:00	2024-11-08T04:00:00	6	Velocidad del viento	27.4
13590	7	Sololá	712	San Antonio Palopó	9	San Antonio Palopo	10	Octubre	2023-10-17T00:00:00	2024-11-08T04:00:00	7	Dirección del viento	27.36
13591	7	Sololá	712	San Antonio Palopó	9	San Antonio Palopo	10	Octubre	2023-10-17T00:00:00	2024-11-08T04:00:00	1	Precipitación	0
13592	7	Sololá	712	San Antonio Palopó	9	San Antonio Palopo	10	Octubre	2023-10-17T00:00:00	2024-11-08T04:00:00	8	Radiación solar	0
13593	7	Sololá	712	San Antonio Palopó	9	San Antonio Palopo	10	Octubre	2023-10-17T00:00:00	2024-11-08T05:00:00	2	Temperatura media	18.1
13594	7	Sololá	712	San Antonio Palopó	9	San Antonio Palopo	10	Octubre	2023-10-17T00:00:00	2024-11-08T05:00:00	4	Temperatura máxima	18.6
13595	7	Sololá	712	San Antonio Palopó	9	San Antonio Palopo	10	Octubre	2023-10-17T00:00:00	2024-11-08T05:00:00	3	Temperatura mínima	17.9
13596	7	Sololá	712	San Antonio Palopó	9	San Antonio Palopo	10	Octubre	2023-10-17T00:00:00	2024-11-08T05:00:00	5	Humedad	67
13597	7	Sololá	712	San Antonio Palopó	9	San Antonio Palopo	10	Octubre	2023-10-17T00:00:00	2024-11-08T05:00:00	6	Velocidad del viento	25.7
13598	7	Sololá	712	San Antonio Palopó	9	San Antonio Palopo	10	Octubre	2023-10-17T00:00:00	2024-11-08T05:00:00	7	Dirección del viento	25.75
13599	7	Sololá	712	San Antonio Palopó	9	San Antonio Palopo	10	Octubre	2023-10-17T00:00:00	2024-11-08T05:00:00	1	Precipitación	0
13600	7	Sololá	712	San Antonio Palopó	9	San Antonio Palopo	10	Octubre	2023-10-17T00:00:00	2024-11-08T05:00:00	8	Radiación solar	0
13601	7	Sololá	712	San Antonio Palopó	9	San Antonio Palopo	10	Octubre	2023-10-17T00:00:00	2024-11-08T06:00:00	2	Temperatura media	18.6
13602	7	Sololá	712	San Antonio Palopó	9	San Antonio Palopo	10	Octubre	2023-10-17T00:00:00	2024-11-08T06:00:00	4	Temperatura máxima	18.8
13603	7	Sololá	712	San Antonio Palopó	9	San Antonio Palopo	10	Octubre	2023-10-17T00:00:00	2024-11-08T06:00:00	3	Temperatura mínima	18.1
13604	7	Sololá	712	San Antonio Palopó	9	San Antonio Palopo	10	Octubre	2023-10-17T00:00:00	2024-11-08T06:00:00	5	Humedad	65
13605	7	Sololá	712	San Antonio Palopó	9	San Antonio Palopo	10	Octubre	2023-10-17T00:00:00	2024-11-08T06:00:00	6	Velocidad del viento	27.4
13606	7	Sololá	712	San Antonio Palopó	9	San Antonio Palopo	10	Octubre	2023-10-17T00:00:00	2024-11-08T06:00:00	7	Dirección del viento	27.36
13607	7	Sololá	712	San Antonio Palopó	9	San Antonio Palopo	10	Octubre	2023-10-17T00:00:00	2024-11-08T06:00:00	1	Precipitación	0
13608	7	Sololá	712	San Antonio Palopó	9	San Antonio Palopo	10	Octubre	2023-10-17T00:00:00	2024-11-08T06:00:00	8	Radiación solar	0
13609	7	Sololá	712	San Antonio Palopó	9	San Antonio Palopo	10	Octubre	2023-10-17T00:00:00	2024-11-08T07:00:00	2	Temperatura media	19.3
13610	7	Sololá	712	San Antonio Palopó	9	San Antonio Palopo	10	Octubre	2023-10-17T00:00:00	2024-11-08T07:00:00	4	Temperatura máxima	19.3
13611	7	Sololá	712	San Antonio Palopó	9	San Antonio Palopo	10	Octubre	2023-10-17T00:00:00	2024-11-08T07:00:00	3	Temperatura mínima	18.6
13612	7	Sololá	712	San Antonio Palopó	9	San Antonio Palopo	10	Octubre	2023-10-17T00:00:00	2024-11-08T07:00:00	5	Humedad	63
13613	7	Sololá	712	San Antonio Palopó	9	San Antonio Palopo	10	Octubre	2023-10-17T00:00:00	2024-11-08T07:00:00	6	Velocidad del viento	24.1
13614	7	Sololá	712	San Antonio Palopó	9	San Antonio Palopo	10	Octubre	2023-10-17T00:00:00	2024-11-08T07:00:00	7	Dirección del viento	24.14
13615	7	Sololá	712	San Antonio Palopó	9	San Antonio Palopo	10	Octubre	2023-10-17T00:00:00	2024-11-08T07:00:00	1	Precipitación	0
13616	7	Sololá	712	San Antonio Palopó	9	San Antonio Palopo	10	Octubre	2023-10-17T00:00:00	2024-11-08T07:00:00	8	Radiación solar	36
13617	7	Sololá	712	San Antonio Palopó	9	San Antonio Palopo	10	Octubre	2023-10-17T00:00:00	2024-11-08T08:00:00	2	Temperatura media	19.9
13618	7	Sololá	712	San Antonio Palopó	9	San Antonio Palopo	10	Octubre	2023-10-17T00:00:00	2024-11-08T08:00:00	4	Temperatura máxima	19.9
13619	7	Sololá	712	San Antonio Palopó	9	San Antonio Palopo	10	Octubre	2023-10-17T00:00:00	2024-11-08T08:00:00	3	Temperatura mínima	19.3
13620	7	Sololá	712	San Antonio Palopó	9	San Antonio Palopo	10	Octubre	2023-10-17T00:00:00	2024-11-08T08:00:00	5	Humedad	62
13621	7	Sololá	712	San Antonio Palopó	9	San Antonio Palopo	10	Octubre	2023-10-17T00:00:00	2024-11-08T08:00:00	6	Velocidad del viento	25.7
13622	7	Sololá	712	San Antonio Palopó	9	San Antonio Palopo	10	Octubre	2023-10-17T00:00:00	2024-11-08T08:00:00	7	Dirección del viento	25.75
13623	7	Sololá	712	San Antonio Palopó	9	San Antonio Palopo	10	Octubre	2023-10-17T00:00:00	2024-11-08T08:00:00	1	Precipitación	0
13624	7	Sololá	712	San Antonio Palopó	9	San Antonio Palopo	10	Octubre	2023-10-17T00:00:00	2024-11-08T08:00:00	8	Radiación solar	160
13625	7	Sololá	712	San Antonio Palopó	9	San Antonio Palopo	10	Octubre	2023-10-17T00:00:00	2024-11-08T09:00:00	2	Temperatura media	20.7
13626	7	Sololá	712	San Antonio Palopó	9	San Antonio Palopo	10	Octubre	2023-10-17T00:00:00	2024-11-08T09:00:00	4	Temperatura máxima	20.7
13627	7	Sololá	712	San Antonio Palopó	9	San Antonio Palopo	10	Octubre	2023-10-17T00:00:00	2024-11-08T09:00:00	3	Temperatura mínima	19.9
13628	7	Sololá	712	San Antonio Palopó	9	San Antonio Palopo	10	Octubre	2023-10-17T00:00:00	2024-11-08T09:00:00	5	Humedad	60
13629	7	Sololá	712	San Antonio Palopó	9	San Antonio Palopo	10	Octubre	2023-10-17T00:00:00	2024-11-08T09:00:00	6	Velocidad del viento	17.7
13630	7	Sololá	712	San Antonio Palopó	9	San Antonio Palopo	10	Octubre	2023-10-17T00:00:00	2024-11-08T09:00:00	7	Dirección del viento	17.7
13631	7	Sololá	712	San Antonio Palopó	9	San Antonio Palopo	10	Octubre	2023-10-17T00:00:00	2024-11-08T09:00:00	1	Precipitación	0
13632	7	Sololá	712	San Antonio Palopó	9	San Antonio Palopo	10	Octubre	2023-10-17T00:00:00	2024-11-08T09:00:00	8	Radiación solar	246
13633	7	Sololá	712	San Antonio Palopó	9	San Antonio Palopo	10	Octubre	2023-10-17T00:00:00	2024-11-08T10:00:00	2	Temperatura media	21.4
13634	7	Sololá	712	San Antonio Palopó	9	San Antonio Palopo	10	Octubre	2023-10-17T00:00:00	2024-11-08T10:00:00	4	Temperatura máxima	21.4
13635	7	Sololá	712	San Antonio Palopó	9	San Antonio Palopo	10	Octubre	2023-10-17T00:00:00	2024-11-08T10:00:00	3	Temperatura mínima	20.7
13636	7	Sololá	712	San Antonio Palopó	9	San Antonio Palopo	10	Octubre	2023-10-17T00:00:00	2024-11-08T10:00:00	5	Humedad	60
13637	7	Sololá	712	San Antonio Palopó	9	San Antonio Palopo	10	Octubre	2023-10-17T00:00:00	2024-11-08T10:00:00	6	Velocidad del viento	11.3
13638	7	Sololá	712	San Antonio Palopó	9	San Antonio Palopo	10	Octubre	2023-10-17T00:00:00	2024-11-08T10:00:00	7	Dirección del viento	11.27
13639	7	Sololá	712	San Antonio Palopó	9	San Antonio Palopo	10	Octubre	2023-10-17T00:00:00	2024-11-08T10:00:00	1	Precipitación	0
13640	7	Sololá	712	San Antonio Palopó	9	San Antonio Palopo	10	Octubre	2023-10-17T00:00:00	2024-11-08T10:00:00	8	Radiación solar	243
13641	7	Sololá	712	San Antonio Palopó	9	San Antonio Palopo	10	Octubre	2023-10-17T00:00:00	2024-11-08T11:00:00	2	Temperatura media	22.6
13642	7	Sololá	712	San Antonio Palopó	9	San Antonio Palopo	10	Octubre	2023-10-17T00:00:00	2024-11-08T11:00:00	4	Temperatura máxima	22.6
13643	7	Sololá	712	San Antonio Palopó	9	San Antonio Palopo	10	Octubre	2023-10-17T00:00:00	2024-11-08T11:00:00	3	Temperatura mínima	21.3
13644	7	Sololá	712	San Antonio Palopó	9	San Antonio Palopo	10	Octubre	2023-10-17T00:00:00	2024-11-08T11:00:00	5	Humedad	60
13645	7	Sololá	712	San Antonio Palopó	9	San Antonio Palopo	10	Octubre	2023-10-17T00:00:00	2024-11-08T11:00:00	6	Velocidad del viento	4.8
13646	7	Sololá	712	San Antonio Palopó	9	San Antonio Palopo	10	Octubre	2023-10-17T00:00:00	2024-11-08T11:00:00	7	Dirección del viento	4.83
13647	7	Sololá	712	San Antonio Palopó	9	San Antonio Palopo	10	Octubre	2023-10-17T00:00:00	2024-11-08T11:00:00	1	Precipitación	0
13648	7	Sololá	712	San Antonio Palopó	9	San Antonio Palopo	10	Octubre	2023-10-17T00:00:00	2024-11-08T11:00:00	8	Radiación solar	359
13649	7	Sololá	712	San Antonio Palopó	9	San Antonio Palopo	10	Octubre	2023-10-17T00:00:00	2024-11-08T12:00:00	2	Temperatura media	22.5
13650	7	Sololá	712	San Antonio Palopó	9	San Antonio Palopo	10	Octubre	2023-10-17T00:00:00	2024-11-08T12:00:00	4	Temperatura máxima	22.8
13651	7	Sololá	712	San Antonio Palopó	9	San Antonio Palopo	10	Octubre	2023-10-17T00:00:00	2024-11-08T12:00:00	3	Temperatura mínima	22.3
13652	7	Sololá	712	San Antonio Palopó	9	San Antonio Palopo	10	Octubre	2023-10-17T00:00:00	2024-11-08T12:00:00	5	Humedad	60
13653	7	Sololá	712	San Antonio Palopó	9	San Antonio Palopo	10	Octubre	2023-10-17T00:00:00	2024-11-08T12:00:00	6	Velocidad del viento	6.4
13654	7	Sololá	712	San Antonio Palopó	9	San Antonio Palopo	10	Octubre	2023-10-17T00:00:00	2024-11-08T12:00:00	7	Dirección del viento	6.44
13655	7	Sololá	712	San Antonio Palopó	9	San Antonio Palopo	10	Octubre	2023-10-17T00:00:00	2024-11-08T12:00:00	1	Precipitación	0
13656	7	Sololá	712	San Antonio Palopó	9	San Antonio Palopo	10	Octubre	2023-10-17T00:00:00	2024-11-08T12:00:00	8	Radiación solar	370
13657	7	Sololá	712	San Antonio Palopó	9	San Antonio Palopo	10	Octubre	2023-10-17T00:00:00	2024-11-08T13:00:00	2	Temperatura media	23.3
13658	7	Sololá	712	San Antonio Palopó	9	San Antonio Palopo	10	Octubre	2023-10-17T00:00:00	2024-11-08T13:00:00	4	Temperatura máxima	23.3
13659	7	Sololá	712	San Antonio Palopó	9	San Antonio Palopo	10	Octubre	2023-10-17T00:00:00	2024-11-08T13:00:00	3	Temperatura mínima	22.3
13660	7	Sololá	712	San Antonio Palopó	9	San Antonio Palopo	10	Octubre	2023-10-17T00:00:00	2024-11-08T13:00:00	5	Humedad	61
13661	7	Sololá	712	San Antonio Palopó	9	San Antonio Palopo	10	Octubre	2023-10-17T00:00:00	2024-11-08T13:00:00	6	Velocidad del viento	3.2
13662	7	Sololá	712	San Antonio Palopó	9	San Antonio Palopo	10	Octubre	2023-10-17T00:00:00	2024-11-08T13:00:00	7	Dirección del viento	3.22
13663	7	Sololá	712	San Antonio Palopó	9	San Antonio Palopo	10	Octubre	2023-10-17T00:00:00	2024-11-08T13:00:00	1	Precipitación	0
13664	7	Sololá	712	San Antonio Palopó	9	San Antonio Palopo	10	Octubre	2023-10-17T00:00:00	2024-11-08T13:00:00	8	Radiación solar	246
13665	7	Sololá	712	San Antonio Palopó	9	San Antonio Palopo	10	Octubre	2023-10-17T00:00:00	2024-11-08T14:00:00	2	Temperatura media	22.8
13666	7	Sololá	712	San Antonio Palopó	9	San Antonio Palopo	10	Octubre	2023-10-17T00:00:00	2024-11-08T14:00:00	4	Temperatura máxima	23.4
13667	7	Sololá	712	San Antonio Palopó	9	San Antonio Palopo	10	Octubre	2023-10-17T00:00:00	2024-11-08T14:00:00	3	Temperatura mínima	22.7
13668	7	Sololá	712	San Antonio Palopó	9	San Antonio Palopo	10	Octubre	2023-10-17T00:00:00	2024-11-08T14:00:00	5	Humedad	67
13669	7	Sololá	712	San Antonio Palopó	9	San Antonio Palopo	10	Octubre	2023-10-17T00:00:00	2024-11-08T14:00:00	6	Velocidad del viento	8
13670	7	Sololá	712	San Antonio Palopó	9	San Antonio Palopo	10	Octubre	2023-10-17T00:00:00	2024-11-08T14:00:00	7	Dirección del viento	8.05
13671	7	Sololá	712	San Antonio Palopó	9	San Antonio Palopo	10	Octubre	2023-10-17T00:00:00	2024-11-08T14:00:00	1	Precipitación	0
13672	7	Sololá	712	San Antonio Palopó	9	San Antonio Palopo	10	Octubre	2023-10-17T00:00:00	2024-11-08T14:00:00	8	Radiación solar	620
13673	7	Sololá	712	San Antonio Palopó	9	San Antonio Palopo	10	Octubre	2023-10-17T00:00:00	2024-11-08T15:00:00	2	Temperatura media	22.5
13674	7	Sololá	712	San Antonio Palopó	9	San Antonio Palopo	10	Octubre	2023-10-17T00:00:00	2024-11-08T15:00:00	4	Temperatura máxima	23.3
13675	7	Sololá	712	San Antonio Palopó	9	San Antonio Palopo	10	Octubre	2023-10-17T00:00:00	2024-11-08T15:00:00	3	Temperatura mínima	22.4
13676	7	Sololá	712	San Antonio Palopó	9	San Antonio Palopo	10	Octubre	2023-10-17T00:00:00	2024-11-08T15:00:00	5	Humedad	61
13677	7	Sololá	712	San Antonio Palopó	9	San Antonio Palopo	10	Octubre	2023-10-17T00:00:00	2024-11-08T15:00:00	6	Velocidad del viento	8
13678	7	Sololá	712	San Antonio Palopó	9	San Antonio Palopo	10	Octubre	2023-10-17T00:00:00	2024-11-08T15:00:00	7	Dirección del viento	8.05
13679	7	Sololá	712	San Antonio Palopó	9	San Antonio Palopo	10	Octubre	2023-10-17T00:00:00	2024-11-08T15:00:00	1	Precipitación	0
13680	7	Sololá	712	San Antonio Palopó	9	San Antonio Palopo	10	Octubre	2023-10-17T00:00:00	2024-11-08T15:00:00	8	Radiación solar	267
13681	7	Sololá	712	San Antonio Palopó	9	San Antonio Palopo	10	Octubre	2023-10-17T00:00:00	2024-11-08T16:00:00	2	Temperatura media	22.6
13682	7	Sololá	712	San Antonio Palopó	9	San Antonio Palopo	10	Octubre	2023-10-17T00:00:00	2024-11-08T16:00:00	4	Temperatura máxima	22.8
13683	7	Sololá	712	San Antonio Palopó	9	San Antonio Palopo	10	Octubre	2023-10-17T00:00:00	2024-11-08T16:00:00	3	Temperatura mínima	22.4
13684	7	Sololá	712	San Antonio Palopó	9	San Antonio Palopo	10	Octubre	2023-10-17T00:00:00	2024-11-08T16:00:00	5	Humedad	60
13685	7	Sololá	712	San Antonio Palopó	9	San Antonio Palopo	10	Octubre	2023-10-17T00:00:00	2024-11-08T16:00:00	6	Velocidad del viento	11.3
13686	7	Sololá	712	San Antonio Palopó	9	San Antonio Palopo	10	Octubre	2023-10-17T00:00:00	2024-11-08T16:00:00	7	Dirección del viento	11.27
13687	7	Sololá	712	San Antonio Palopó	9	San Antonio Palopo	10	Octubre	2023-10-17T00:00:00	2024-11-08T16:00:00	1	Precipitación	0
13688	7	Sololá	712	San Antonio Palopó	9	San Antonio Palopo	10	Octubre	2023-10-17T00:00:00	2024-11-08T16:00:00	8	Radiación solar	200
13689	7	Sololá	712	San Antonio Palopó	9	San Antonio Palopo	10	Octubre	2023-10-17T00:00:00	2024-11-08T17:00:00	2	Temperatura media	21.4
13690	7	Sololá	712	San Antonio Palopó	9	San Antonio Palopo	10	Octubre	2023-10-17T00:00:00	2024-11-08T17:00:00	4	Temperatura máxima	22.6
13691	7	Sololá	712	San Antonio Palopó	9	San Antonio Palopo	10	Octubre	2023-10-17T00:00:00	2024-11-08T17:00:00	3	Temperatura mínima	21.4
13692	7	Sololá	712	San Antonio Palopó	9	San Antonio Palopo	10	Octubre	2023-10-17T00:00:00	2024-11-08T17:00:00	5	Humedad	62
13693	7	Sololá	712	San Antonio Palopó	9	San Antonio Palopo	10	Octubre	2023-10-17T00:00:00	2024-11-08T17:00:00	6	Velocidad del viento	14.5
13694	7	Sololá	712	San Antonio Palopó	9	San Antonio Palopo	10	Octubre	2023-10-17T00:00:00	2024-11-08T17:00:00	7	Dirección del viento	14.48
13695	7	Sololá	712	San Antonio Palopó	9	San Antonio Palopo	10	Octubre	2023-10-17T00:00:00	2024-11-08T17:00:00	1	Precipitación	0
13696	7	Sololá	712	San Antonio Palopó	9	San Antonio Palopo	10	Octubre	2023-10-17T00:00:00	2024-11-08T17:00:00	8	Radiación solar	126
13697	7	Sololá	712	San Antonio Palopó	9	San Antonio Palopo	10	Octubre	2023-10-17T00:00:00	2024-11-08T18:00:00	2	Temperatura media	20.3
13698	7	Sololá	712	San Antonio Palopó	9	San Antonio Palopo	10	Octubre	2023-10-17T00:00:00	2024-11-08T18:00:00	4	Temperatura máxima	21.4
13699	7	Sololá	712	San Antonio Palopó	9	San Antonio Palopo	10	Octubre	2023-10-17T00:00:00	2024-11-08T18:00:00	3	Temperatura mínima	20.3
13700	7	Sololá	712	San Antonio Palopó	9	San Antonio Palopo	10	Octubre	2023-10-17T00:00:00	2024-11-08T18:00:00	5	Humedad	66
13701	7	Sololá	712	San Antonio Palopó	9	San Antonio Palopo	10	Octubre	2023-10-17T00:00:00	2024-11-08T18:00:00	6	Velocidad del viento	25.7
13702	7	Sololá	712	San Antonio Palopó	9	San Antonio Palopo	10	Octubre	2023-10-17T00:00:00	2024-11-08T18:00:00	7	Dirección del viento	25.75
13703	7	Sololá	712	San Antonio Palopó	9	San Antonio Palopo	10	Octubre	2023-10-17T00:00:00	2024-11-08T18:00:00	1	Precipitación	0
13704	7	Sololá	712	San Antonio Palopó	9	San Antonio Palopo	10	Octubre	2023-10-17T00:00:00	2024-11-08T18:00:00	8	Radiación solar	21
13705	7	Sololá	712	San Antonio Palopó	9	San Antonio Palopo	10	Octubre	2023-10-17T00:00:00	2024-11-08T19:00:00	2	Temperatura media	19.8
13706	7	Sololá	712	San Antonio Palopó	9	San Antonio Palopo	10	Octubre	2023-10-17T00:00:00	2024-11-08T19:00:00	4	Temperatura máxima	20.3
13707	7	Sololá	712	San Antonio Palopó	9	San Antonio Palopo	10	Octubre	2023-10-17T00:00:00	2024-11-08T19:00:00	3	Temperatura mínima	19.7
13708	7	Sololá	712	San Antonio Palopó	9	San Antonio Palopo	10	Octubre	2023-10-17T00:00:00	2024-11-08T19:00:00	5	Humedad	67
13709	7	Sololá	712	San Antonio Palopó	9	San Antonio Palopo	10	Octubre	2023-10-17T00:00:00	2024-11-08T19:00:00	6	Velocidad del viento	27.4
13710	7	Sololá	712	San Antonio Palopó	9	San Antonio Palopo	10	Octubre	2023-10-17T00:00:00	2024-11-08T19:00:00	7	Dirección del viento	27.36
13711	7	Sololá	712	San Antonio Palopó	9	San Antonio Palopo	10	Octubre	2023-10-17T00:00:00	2024-11-08T19:00:00	1	Precipitación	0
13712	7	Sololá	712	San Antonio Palopó	9	San Antonio Palopo	10	Octubre	2023-10-17T00:00:00	2024-11-08T19:00:00	8	Radiación solar	0
13713	7	Sololá	712	San Antonio Palopó	9	San Antonio Palopo	10	Octubre	2023-10-17T00:00:00	2024-11-08T20:00:00	2	Temperatura media	19.7
13714	7	Sololá	712	San Antonio Palopó	9	San Antonio Palopo	10	Octubre	2023-10-17T00:00:00	2024-11-08T20:00:00	4	Temperatura máxima	19.9
13715	7	Sololá	712	San Antonio Palopó	9	San Antonio Palopo	10	Octubre	2023-10-17T00:00:00	2024-11-08T20:00:00	3	Temperatura mínima	19.7
13716	7	Sololá	712	San Antonio Palopó	9	San Antonio Palopo	10	Octubre	2023-10-17T00:00:00	2024-11-08T20:00:00	5	Humedad	67
13717	7	Sololá	712	San Antonio Palopó	9	San Antonio Palopo	10	Octubre	2023-10-17T00:00:00	2024-11-08T20:00:00	6	Velocidad del viento	20.9
13718	7	Sololá	712	San Antonio Palopó	9	San Antonio Palopo	10	Octubre	2023-10-17T00:00:00	2024-11-08T20:00:00	7	Dirección del viento	20.92
13719	7	Sololá	712	San Antonio Palopó	9	San Antonio Palopo	10	Octubre	2023-10-17T00:00:00	2024-11-08T20:00:00	1	Precipitación	0
13720	7	Sololá	712	San Antonio Palopó	9	San Antonio Palopo	10	Octubre	2023-10-17T00:00:00	2024-11-08T20:00:00	8	Radiación solar	0
13721	7	Sololá	712	San Antonio Palopó	9	San Antonio Palopo	10	Octubre	2023-10-17T00:00:00	2024-11-08T21:00:00	2	Temperatura media	18.8
13722	7	Sololá	712	San Antonio Palopó	9	San Antonio Palopo	10	Octubre	2023-10-17T00:00:00	2024-11-08T21:00:00	4	Temperatura máxima	19.7
13723	7	Sololá	712	San Antonio Palopó	9	San Antonio Palopo	10	Octubre	2023-10-17T00:00:00	2024-11-08T21:00:00	3	Temperatura mínima	18.8
13724	7	Sololá	712	San Antonio Palopó	9	San Antonio Palopo	10	Octubre	2023-10-17T00:00:00	2024-11-08T21:00:00	5	Humedad	69
13725	7	Sololá	712	San Antonio Palopó	9	San Antonio Palopo	10	Octubre	2023-10-17T00:00:00	2024-11-08T21:00:00	6	Velocidad del viento	12.9
13726	7	Sololá	712	San Antonio Palopó	9	San Antonio Palopo	10	Octubre	2023-10-17T00:00:00	2024-11-08T21:00:00	7	Dirección del viento	12.87
13727	7	Sololá	712	San Antonio Palopó	9	San Antonio Palopo	10	Octubre	2023-10-17T00:00:00	2024-11-08T21:00:00	1	Precipitación	0
13728	7	Sololá	712	San Antonio Palopó	9	San Antonio Palopo	10	Octubre	2023-10-17T00:00:00	2024-11-08T21:00:00	8	Radiación solar	0
13729	7	Sololá	712	San Antonio Palopó	9	San Antonio Palopo	10	Octubre	2023-10-17T00:00:00	2024-11-08T22:00:00	2	Temperatura media	18.3
13730	7	Sololá	712	San Antonio Palopó	9	San Antonio Palopo	10	Octubre	2023-10-17T00:00:00	2024-11-08T22:00:00	4	Temperatura máxima	18.9
13731	7	Sololá	712	San Antonio Palopó	9	San Antonio Palopo	10	Octubre	2023-10-17T00:00:00	2024-11-08T22:00:00	3	Temperatura mínima	18.3
13732	7	Sololá	712	San Antonio Palopó	9	San Antonio Palopo	10	Octubre	2023-10-17T00:00:00	2024-11-08T22:00:00	5	Humedad	72
13733	7	Sololá	712	San Antonio Palopó	9	San Antonio Palopo	10	Octubre	2023-10-17T00:00:00	2024-11-08T22:00:00	6	Velocidad del viento	12.9
13734	7	Sololá	712	San Antonio Palopó	9	San Antonio Palopo	10	Octubre	2023-10-17T00:00:00	2024-11-08T22:00:00	7	Dirección del viento	12.87
13735	7	Sololá	712	San Antonio Palopó	9	San Antonio Palopo	10	Octubre	2023-10-17T00:00:00	2024-11-08T22:00:00	1	Precipitación	0
13736	7	Sololá	712	San Antonio Palopó	9	San Antonio Palopo	10	Octubre	2023-10-17T00:00:00	2024-11-08T22:00:00	8	Radiación solar	0
13737	7	Sololá	712	San Antonio Palopó	9	San Antonio Palopo	10	Octubre	2023-10-17T00:00:00	2024-11-08T23:00:00	2	Temperatura media	18.1
13738	7	Sololá	712	San Antonio Palopó	9	San Antonio Palopo	10	Octubre	2023-10-17T00:00:00	2024-11-08T23:00:00	4	Temperatura máxima	18.3
13739	7	Sololá	712	San Antonio Palopó	9	San Antonio Palopo	10	Octubre	2023-10-17T00:00:00	2024-11-08T23:00:00	3	Temperatura mínima	18.1
13740	7	Sololá	712	San Antonio Palopó	9	San Antonio Palopo	10	Octubre	2023-10-17T00:00:00	2024-11-08T23:00:00	5	Humedad	72
13741	7	Sololá	712	San Antonio Palopó	9	San Antonio Palopo	10	Octubre	2023-10-17T00:00:00	2024-11-08T23:00:00	6	Velocidad del viento	11.3
13742	7	Sololá	712	San Antonio Palopó	9	San Antonio Palopo	10	Octubre	2023-10-17T00:00:00	2024-11-08T23:00:00	7	Dirección del viento	11.27
13743	7	Sololá	712	San Antonio Palopó	9	San Antonio Palopo	10	Octubre	2023-10-17T00:00:00	2024-11-08T23:00:00	1	Precipitación	0
13744	7	Sololá	712	San Antonio Palopó	9	San Antonio Palopo	10	Octubre	2023-10-17T00:00:00	2024-11-08T23:00:00	8	Radiación solar	0
13745	7	Sololá	712	San Antonio Palopó	9	San Antonio Palopo	10	Octubre	2023-10-18T00:00:00	2024-11-08T00:00:00	2	Temperatura media	18.2
13746	7	Sololá	712	San Antonio Palopó	9	San Antonio Palopo	10	Octubre	2023-10-18T00:00:00	2024-11-08T00:00:00	4	Temperatura máxima	18.2
13747	7	Sololá	712	San Antonio Palopó	9	San Antonio Palopo	10	Octubre	2023-10-18T00:00:00	2024-11-08T00:00:00	3	Temperatura mínima	17.8
13748	7	Sololá	712	San Antonio Palopó	9	San Antonio Palopo	10	Octubre	2023-10-18T00:00:00	2024-11-08T00:00:00	5	Humedad	72
13749	7	Sololá	712	San Antonio Palopó	9	San Antonio Palopo	10	Octubre	2023-10-18T00:00:00	2024-11-08T00:00:00	6	Velocidad del viento	11.3
13750	7	Sololá	712	San Antonio Palopó	9	San Antonio Palopo	10	Octubre	2023-10-18T00:00:00	2024-11-08T00:00:00	7	Dirección del viento	11.27
13751	7	Sololá	712	San Antonio Palopó	9	San Antonio Palopo	10	Octubre	2023-10-18T00:00:00	2024-11-08T00:00:00	1	Precipitación	0
13752	7	Sololá	712	San Antonio Palopó	9	San Antonio Palopo	10	Octubre	2023-10-18T00:00:00	2024-11-08T00:00:00	8	Radiación solar	0
13753	7	Sololá	712	San Antonio Palopó	9	San Antonio Palopo	10	Octubre	2023-10-18T00:00:00	2024-11-08T01:00:00	2	Temperatura media	17.8
13754	7	Sololá	712	San Antonio Palopó	9	San Antonio Palopo	10	Octubre	2023-10-18T00:00:00	2024-11-08T01:00:00	4	Temperatura máxima	18.2
13755	7	Sololá	712	San Antonio Palopó	9	San Antonio Palopo	10	Octubre	2023-10-18T00:00:00	2024-11-08T01:00:00	3	Temperatura mínima	17.8
13756	7	Sololá	712	San Antonio Palopó	9	San Antonio Palopo	10	Octubre	2023-10-18T00:00:00	2024-11-08T01:00:00	5	Humedad	71
13757	7	Sololá	712	San Antonio Palopó	9	San Antonio Palopo	10	Octubre	2023-10-18T00:00:00	2024-11-08T01:00:00	6	Velocidad del viento	16.1
13758	7	Sololá	712	San Antonio Palopó	9	San Antonio Palopo	10	Octubre	2023-10-18T00:00:00	2024-11-08T01:00:00	7	Dirección del viento	16.09
13759	7	Sololá	712	San Antonio Palopó	9	San Antonio Palopo	10	Octubre	2023-10-18T00:00:00	2024-11-08T01:00:00	1	Precipitación	0
13760	7	Sololá	712	San Antonio Palopó	9	San Antonio Palopo	10	Octubre	2023-10-18T00:00:00	2024-11-08T01:00:00	8	Radiación solar	0
13761	7	Sololá	712	San Antonio Palopó	9	San Antonio Palopo	10	Octubre	2023-10-18T00:00:00	2024-11-08T02:00:00	2	Temperatura media	17.2
13762	7	Sololá	712	San Antonio Palopó	9	San Antonio Palopo	10	Octubre	2023-10-18T00:00:00	2024-11-08T02:00:00	4	Temperatura máxima	17.8
13763	7	Sololá	712	San Antonio Palopó	9	San Antonio Palopo	10	Octubre	2023-10-18T00:00:00	2024-11-08T02:00:00	3	Temperatura mínima	17.2
13764	7	Sololá	712	San Antonio Palopó	9	San Antonio Palopo	10	Octubre	2023-10-18T00:00:00	2024-11-08T02:00:00	5	Humedad	72
13765	7	Sololá	712	San Antonio Palopó	9	San Antonio Palopo	10	Octubre	2023-10-18T00:00:00	2024-11-08T02:00:00	6	Velocidad del viento	17.7
13766	7	Sololá	712	San Antonio Palopó	9	San Antonio Palopo	10	Octubre	2023-10-18T00:00:00	2024-11-08T02:00:00	7	Dirección del viento	17.7
13767	7	Sololá	712	San Antonio Palopó	9	San Antonio Palopo	10	Octubre	2023-10-18T00:00:00	2024-11-08T02:00:00	1	Precipitación	0
13768	7	Sololá	712	San Antonio Palopó	9	San Antonio Palopo	10	Octubre	2023-10-18T00:00:00	2024-11-08T02:00:00	8	Radiación solar	0
13769	7	Sololá	712	San Antonio Palopó	9	San Antonio Palopo	10	Octubre	2023-10-18T00:00:00	2024-11-08T03:00:00	2	Temperatura media	16.9
13770	7	Sololá	712	San Antonio Palopó	9	San Antonio Palopo	10	Octubre	2023-10-18T00:00:00	2024-11-08T03:00:00	4	Temperatura máxima	17.2
13771	7	Sololá	712	San Antonio Palopó	9	San Antonio Palopo	10	Octubre	2023-10-18T00:00:00	2024-11-08T03:00:00	3	Temperatura mínima	16.8
13772	7	Sololá	712	San Antonio Palopó	9	San Antonio Palopo	10	Octubre	2023-10-18T00:00:00	2024-11-08T03:00:00	5	Humedad	74
13773	7	Sololá	712	San Antonio Palopó	9	San Antonio Palopo	10	Octubre	2023-10-18T00:00:00	2024-11-08T03:00:00	6	Velocidad del viento	19.3
13774	7	Sololá	712	San Antonio Palopó	9	San Antonio Palopo	10	Octubre	2023-10-18T00:00:00	2024-11-08T03:00:00	7	Dirección del viento	19.31
13775	7	Sololá	712	San Antonio Palopó	9	San Antonio Palopo	10	Octubre	2023-10-18T00:00:00	2024-11-08T03:00:00	1	Precipitación	0
13776	7	Sololá	712	San Antonio Palopó	9	San Antonio Palopo	10	Octubre	2023-10-18T00:00:00	2024-11-08T03:00:00	8	Radiación solar	0
13777	7	Sololá	712	San Antonio Palopó	9	San Antonio Palopo	10	Octubre	2023-10-18T00:00:00	2024-11-08T04:00:00	2	Temperatura media	16.7
13778	7	Sololá	712	San Antonio Palopó	9	San Antonio Palopo	10	Octubre	2023-10-18T00:00:00	2024-11-08T04:00:00	4	Temperatura máxima	16.9
13779	7	Sololá	712	San Antonio Palopó	9	San Antonio Palopo	10	Octubre	2023-10-18T00:00:00	2024-11-08T04:00:00	3	Temperatura mínima	16.7
13780	7	Sololá	712	San Antonio Palopó	9	San Antonio Palopo	10	Octubre	2023-10-18T00:00:00	2024-11-08T04:00:00	5	Humedad	74
13781	7	Sololá	712	San Antonio Palopó	9	San Antonio Palopo	10	Octubre	2023-10-18T00:00:00	2024-11-08T04:00:00	6	Velocidad del viento	20.9
13782	7	Sololá	712	San Antonio Palopó	9	San Antonio Palopo	10	Octubre	2023-10-18T00:00:00	2024-11-08T04:00:00	7	Dirección del viento	20.92
13783	7	Sololá	712	San Antonio Palopó	9	San Antonio Palopo	10	Octubre	2023-10-18T00:00:00	2024-11-08T04:00:00	1	Precipitación	0
13784	7	Sololá	712	San Antonio Palopó	9	San Antonio Palopo	10	Octubre	2023-10-18T00:00:00	2024-11-08T04:00:00	8	Radiación solar	0
13785	7	Sololá	712	San Antonio Palopó	9	San Antonio Palopo	10	Octubre	2023-10-18T00:00:00	2024-11-08T05:00:00	2	Temperatura media	16.6
13786	7	Sololá	712	San Antonio Palopó	9	San Antonio Palopo	10	Octubre	2023-10-18T00:00:00	2024-11-08T05:00:00	4	Temperatura máxima	16.7
13787	7	Sololá	712	San Antonio Palopó	9	San Antonio Palopo	10	Octubre	2023-10-18T00:00:00	2024-11-08T05:00:00	3	Temperatura mínima	16.4
13788	7	Sololá	712	San Antonio Palopó	9	San Antonio Palopo	10	Octubre	2023-10-18T00:00:00	2024-11-08T05:00:00	5	Humedad	73
13789	7	Sololá	712	San Antonio Palopó	9	San Antonio Palopo	10	Octubre	2023-10-18T00:00:00	2024-11-08T05:00:00	6	Velocidad del viento	19.3
13790	7	Sololá	712	San Antonio Palopó	9	San Antonio Palopo	10	Octubre	2023-10-18T00:00:00	2024-11-08T05:00:00	7	Dirección del viento	19.31
13791	7	Sololá	712	San Antonio Palopó	9	San Antonio Palopo	10	Octubre	2023-10-18T00:00:00	2024-11-08T05:00:00	1	Precipitación	0
13792	7	Sololá	712	San Antonio Palopó	9	San Antonio Palopo	10	Octubre	2023-10-18T00:00:00	2024-11-08T05:00:00	8	Radiación solar	0
13793	7	Sololá	712	San Antonio Palopó	9	San Antonio Palopo	10	Octubre	2023-10-18T00:00:00	2024-11-08T06:00:00	2	Temperatura media	16.4
13794	7	Sololá	712	San Antonio Palopó	9	San Antonio Palopo	10	Octubre	2023-10-18T00:00:00	2024-11-08T06:00:00	4	Temperatura máxima	16.6
13795	7	Sololá	712	San Antonio Palopó	9	San Antonio Palopo	10	Octubre	2023-10-18T00:00:00	2024-11-08T06:00:00	3	Temperatura mínima	16.2
13796	7	Sololá	712	San Antonio Palopó	9	San Antonio Palopo	10	Octubre	2023-10-18T00:00:00	2024-11-08T06:00:00	5	Humedad	74
13797	7	Sololá	712	San Antonio Palopó	9	San Antonio Palopo	10	Octubre	2023-10-18T00:00:00	2024-11-08T06:00:00	6	Velocidad del viento	19.3
13798	7	Sololá	712	San Antonio Palopó	9	San Antonio Palopo	10	Octubre	2023-10-18T00:00:00	2024-11-08T06:00:00	7	Dirección del viento	19.31
13799	7	Sololá	712	San Antonio Palopó	9	San Antonio Palopo	10	Octubre	2023-10-18T00:00:00	2024-11-08T06:00:00	1	Precipitación	0
13800	7	Sololá	712	San Antonio Palopó	9	San Antonio Palopo	10	Octubre	2023-10-18T00:00:00	2024-11-08T06:00:00	8	Radiación solar	0
13801	7	Sololá	712	San Antonio Palopó	9	San Antonio Palopo	10	Octubre	2023-10-18T00:00:00	2024-11-08T07:00:00	2	Temperatura media	16.6
13802	7	Sololá	712	San Antonio Palopó	9	San Antonio Palopo	10	Octubre	2023-10-18T00:00:00	2024-11-08T07:00:00	4	Temperatura máxima	16.6
13803	7	Sololá	712	San Antonio Palopó	9	San Antonio Palopo	10	Octubre	2023-10-18T00:00:00	2024-11-08T07:00:00	3	Temperatura mínima	16.2
13804	7	Sololá	712	San Antonio Palopó	9	San Antonio Palopo	10	Octubre	2023-10-18T00:00:00	2024-11-08T07:00:00	5	Humedad	74
13805	7	Sololá	712	San Antonio Palopó	9	San Antonio Palopo	10	Octubre	2023-10-18T00:00:00	2024-11-08T07:00:00	6	Velocidad del viento	20.9
13806	7	Sololá	712	San Antonio Palopó	9	San Antonio Palopo	10	Octubre	2023-10-18T00:00:00	2024-11-08T07:00:00	7	Dirección del viento	20.92
13807	7	Sololá	712	San Antonio Palopó	9	San Antonio Palopo	10	Octubre	2023-10-18T00:00:00	2024-11-08T07:00:00	1	Precipitación	0
13808	7	Sololá	712	San Antonio Palopó	9	San Antonio Palopo	10	Octubre	2023-10-18T00:00:00	2024-11-08T07:00:00	8	Radiación solar	22
13809	7	Sololá	712	San Antonio Palopó	9	San Antonio Palopo	10	Octubre	2023-10-18T00:00:00	2024-11-08T08:00:00	2	Temperatura media	19.2
13810	7	Sololá	712	San Antonio Palopó	9	San Antonio Palopo	10	Octubre	2023-10-18T00:00:00	2024-11-08T08:00:00	4	Temperatura máxima	19.2
13811	7	Sololá	712	San Antonio Palopó	9	San Antonio Palopo	10	Octubre	2023-10-18T00:00:00	2024-11-08T08:00:00	3	Temperatura mínima	16.6
13812	7	Sololá	712	San Antonio Palopó	9	San Antonio Palopo	10	Octubre	2023-10-18T00:00:00	2024-11-08T08:00:00	5	Humedad	67
13813	7	Sololá	712	San Antonio Palopó	9	San Antonio Palopo	10	Octubre	2023-10-18T00:00:00	2024-11-08T08:00:00	6	Velocidad del viento	12.9
13814	7	Sololá	712	San Antonio Palopó	9	San Antonio Palopo	10	Octubre	2023-10-18T00:00:00	2024-11-08T08:00:00	7	Dirección del viento	12.87
13815	7	Sololá	712	San Antonio Palopó	9	San Antonio Palopo	10	Octubre	2023-10-18T00:00:00	2024-11-08T08:00:00	1	Precipitación	0
13816	7	Sololá	712	San Antonio Palopó	9	San Antonio Palopo	10	Octubre	2023-10-18T00:00:00	2024-11-08T08:00:00	8	Radiación solar	127
13817	7	Sololá	712	San Antonio Palopó	9	San Antonio Palopo	10	Octubre	2023-10-18T00:00:00	2024-11-08T09:00:00	2	Temperatura media	21.5
13818	7	Sololá	712	San Antonio Palopó	9	San Antonio Palopo	10	Octubre	2023-10-18T00:00:00	2024-11-08T09:00:00	4	Temperatura máxima	21.5
13819	7	Sololá	712	San Antonio Palopó	9	San Antonio Palopo	10	Octubre	2023-10-18T00:00:00	2024-11-08T09:00:00	3	Temperatura mínima	19.2
13820	7	Sololá	712	San Antonio Palopó	9	San Antonio Palopo	10	Octubre	2023-10-18T00:00:00	2024-11-08T09:00:00	5	Humedad	64
13821	7	Sololá	712	San Antonio Palopó	9	San Antonio Palopo	10	Octubre	2023-10-18T00:00:00	2024-11-08T09:00:00	6	Velocidad del viento	11.3
13822	7	Sololá	712	San Antonio Palopó	9	San Antonio Palopo	10	Octubre	2023-10-18T00:00:00	2024-11-08T09:00:00	7	Dirección del viento	11.27
13823	7	Sololá	712	San Antonio Palopó	9	San Antonio Palopo	10	Octubre	2023-10-18T00:00:00	2024-11-08T09:00:00	1	Precipitación	0
13824	7	Sololá	712	San Antonio Palopó	9	San Antonio Palopo	10	Octubre	2023-10-18T00:00:00	2024-11-08T09:00:00	8	Radiación solar	452
13825	7	Sololá	712	San Antonio Palopó	9	San Antonio Palopo	10	Octubre	2023-10-18T00:00:00	2024-11-08T10:00:00	2	Temperatura media	21.2
13826	7	Sololá	712	San Antonio Palopó	9	San Antonio Palopo	10	Octubre	2023-10-18T00:00:00	2024-11-08T10:00:00	4	Temperatura máxima	22.8
13827	7	Sololá	712	San Antonio Palopó	9	San Antonio Palopo	10	Octubre	2023-10-18T00:00:00	2024-11-08T10:00:00	3	Temperatura mínima	21.2
13828	7	Sololá	712	San Antonio Palopó	9	San Antonio Palopo	10	Octubre	2023-10-18T00:00:00	2024-11-08T10:00:00	5	Humedad	68
13829	7	Sololá	712	San Antonio Palopó	9	San Antonio Palopo	10	Octubre	2023-10-18T00:00:00	2024-11-08T10:00:00	6	Velocidad del viento	6.4
13830	7	Sololá	712	San Antonio Palopó	9	San Antonio Palopo	10	Octubre	2023-10-18T00:00:00	2024-11-08T10:00:00	7	Dirección del viento	6.44
13831	7	Sololá	712	San Antonio Palopó	9	San Antonio Palopo	10	Octubre	2023-10-18T00:00:00	2024-11-08T10:00:00	1	Precipitación	0
13832	7	Sololá	712	San Antonio Palopó	9	San Antonio Palopo	10	Octubre	2023-10-18T00:00:00	2024-11-08T10:00:00	8	Radiación solar	393
13833	7	Sololá	712	San Antonio Palopó	9	San Antonio Palopo	10	Octubre	2023-10-18T00:00:00	2024-11-08T11:00:00	2	Temperatura media	22.2
13834	7	Sololá	712	San Antonio Palopó	9	San Antonio Palopo	10	Octubre	2023-10-18T00:00:00	2024-11-08T11:00:00	4	Temperatura máxima	22.8
13835	7	Sololá	712	San Antonio Palopó	9	San Antonio Palopo	10	Octubre	2023-10-18T00:00:00	2024-11-08T11:00:00	3	Temperatura mínima	21.2
13836	7	Sololá	712	San Antonio Palopó	9	San Antonio Palopo	10	Octubre	2023-10-18T00:00:00	2024-11-08T11:00:00	5	Humedad	64
13837	7	Sololá	712	San Antonio Palopó	9	San Antonio Palopo	10	Octubre	2023-10-18T00:00:00	2024-11-08T11:00:00	6	Velocidad del viento	6.4
13838	7	Sololá	712	San Antonio Palopó	9	San Antonio Palopo	10	Octubre	2023-10-18T00:00:00	2024-11-08T11:00:00	7	Dirección del viento	6.44
13839	7	Sololá	712	San Antonio Palopó	9	San Antonio Palopo	10	Octubre	2023-10-18T00:00:00	2024-11-08T11:00:00	1	Precipitación	0
13840	7	Sololá	712	San Antonio Palopó	9	San Antonio Palopo	10	Octubre	2023-10-18T00:00:00	2024-11-08T11:00:00	8	Radiación solar	1030
13841	7	Sololá	712	San Antonio Palopó	9	San Antonio Palopo	10	Octubre	2023-10-18T00:00:00	2024-11-08T12:00:00	2	Temperatura media	24.4
13842	7	Sololá	712	San Antonio Palopó	9	San Antonio Palopo	10	Octubre	2023-10-18T00:00:00	2024-11-08T12:00:00	4	Temperatura máxima	24.4
13843	7	Sololá	712	San Antonio Palopó	9	San Antonio Palopo	10	Octubre	2023-10-18T00:00:00	2024-11-08T12:00:00	3	Temperatura mínima	21.8
13844	7	Sololá	712	San Antonio Palopó	9	San Antonio Palopo	10	Octubre	2023-10-18T00:00:00	2024-11-08T12:00:00	5	Humedad	56
13845	7	Sololá	712	San Antonio Palopó	9	San Antonio Palopo	10	Octubre	2023-10-18T00:00:00	2024-11-08T12:00:00	6	Velocidad del viento	9.7
13846	7	Sololá	712	San Antonio Palopó	9	San Antonio Palopo	10	Octubre	2023-10-18T00:00:00	2024-11-08T12:00:00	7	Dirección del viento	9.66
13847	7	Sololá	712	San Antonio Palopó	9	San Antonio Palopo	10	Octubre	2023-10-18T00:00:00	2024-11-08T12:00:00	1	Precipitación	0
13848	7	Sololá	712	San Antonio Palopó	9	San Antonio Palopo	10	Octubre	2023-10-18T00:00:00	2024-11-08T12:00:00	8	Radiación solar	421
13849	7	Sololá	712	San Antonio Palopó	9	San Antonio Palopo	10	Octubre	2023-10-18T00:00:00	2024-11-08T13:00:00	2	Temperatura media	24.7
13850	7	Sololá	712	San Antonio Palopó	9	San Antonio Palopo	10	Octubre	2023-10-18T00:00:00	2024-11-08T13:00:00	4	Temperatura máxima	26.1
13851	7	Sololá	712	San Antonio Palopó	9	San Antonio Palopo	10	Octubre	2023-10-18T00:00:00	2024-11-08T13:00:00	3	Temperatura mínima	24.4
13852	7	Sololá	712	San Antonio Palopó	9	San Antonio Palopo	10	Octubre	2023-10-18T00:00:00	2024-11-08T13:00:00	5	Humedad	63
13853	7	Sololá	712	San Antonio Palopó	9	San Antonio Palopo	10	Octubre	2023-10-18T00:00:00	2024-11-08T13:00:00	6	Velocidad del viento	9.7
13854	7	Sololá	712	San Antonio Palopó	9	San Antonio Palopo	10	Octubre	2023-10-18T00:00:00	2024-11-08T13:00:00	7	Dirección del viento	9.66
13855	7	Sololá	712	San Antonio Palopó	9	San Antonio Palopo	10	Octubre	2023-10-18T00:00:00	2024-11-08T13:00:00	1	Precipitación	0
13856	7	Sololá	712	San Antonio Palopó	9	San Antonio Palopo	10	Octubre	2023-10-18T00:00:00	2024-11-08T13:00:00	8	Radiación solar	1011
13857	7	Sololá	712	San Antonio Palopó	9	San Antonio Palopo	10	Octubre	2023-10-18T00:00:00	2024-11-08T14:00:00	2	Temperatura media	23.1
13858	7	Sololá	712	San Antonio Palopó	9	San Antonio Palopo	10	Octubre	2023-10-18T00:00:00	2024-11-08T14:00:00	4	Temperatura máxima	24.7
13859	7	Sololá	712	San Antonio Palopó	9	San Antonio Palopo	10	Octubre	2023-10-18T00:00:00	2024-11-08T14:00:00	3	Temperatura mínima	22.8
13860	7	Sololá	712	San Antonio Palopó	9	San Antonio Palopo	10	Octubre	2023-10-18T00:00:00	2024-11-08T14:00:00	5	Humedad	70
13861	7	Sololá	712	San Antonio Palopó	9	San Antonio Palopo	10	Octubre	2023-10-18T00:00:00	2024-11-08T14:00:00	6	Velocidad del viento	8
13862	7	Sololá	712	San Antonio Palopó	9	San Antonio Palopo	10	Octubre	2023-10-18T00:00:00	2024-11-08T14:00:00	7	Dirección del viento	8.05
13863	7	Sololá	712	San Antonio Palopó	9	San Antonio Palopo	10	Octubre	2023-10-18T00:00:00	2024-11-08T14:00:00	1	Precipitación	0
13864	7	Sololá	712	San Antonio Palopó	9	San Antonio Palopo	10	Octubre	2023-10-18T00:00:00	2024-11-08T14:00:00	8	Radiación solar	318
13865	7	Sololá	712	San Antonio Palopó	9	San Antonio Palopo	10	Octubre	2023-10-18T00:00:00	2024-11-08T15:00:00	2	Temperatura media	24.1
13866	7	Sololá	712	San Antonio Palopó	9	San Antonio Palopo	10	Octubre	2023-10-18T00:00:00	2024-11-08T15:00:00	4	Temperatura máxima	24.2
13867	7	Sololá	712	San Antonio Palopó	9	San Antonio Palopo	10	Octubre	2023-10-18T00:00:00	2024-11-08T15:00:00	3	Temperatura mínima	23
13868	7	Sololá	712	San Antonio Palopó	9	San Antonio Palopo	10	Octubre	2023-10-18T00:00:00	2024-11-08T15:00:00	5	Humedad	61
13869	7	Sololá	712	San Antonio Palopó	9	San Antonio Palopo	10	Octubre	2023-10-18T00:00:00	2024-11-08T15:00:00	6	Velocidad del viento	8
13870	7	Sololá	712	San Antonio Palopó	9	San Antonio Palopo	10	Octubre	2023-10-18T00:00:00	2024-11-08T15:00:00	7	Dirección del viento	8.05
13871	7	Sololá	712	San Antonio Palopó	9	San Antonio Palopo	10	Octubre	2023-10-18T00:00:00	2024-11-08T15:00:00	1	Precipitación	0
13872	7	Sololá	712	San Antonio Palopó	9	San Antonio Palopo	10	Octubre	2023-10-18T00:00:00	2024-11-08T15:00:00	8	Radiación solar	269
13873	7	Sololá	712	San Antonio Palopó	9	San Antonio Palopo	10	Octubre	2023-10-18T00:00:00	2024-11-08T16:00:00	2	Temperatura media	23.3
13874	7	Sololá	712	San Antonio Palopó	9	San Antonio Palopo	10	Octubre	2023-10-18T00:00:00	2024-11-08T16:00:00	4	Temperatura máxima	24.1
13875	7	Sololá	712	San Antonio Palopó	9	San Antonio Palopo	10	Octubre	2023-10-18T00:00:00	2024-11-08T16:00:00	3	Temperatura mínima	23.3
13876	7	Sololá	712	San Antonio Palopó	9	San Antonio Palopo	10	Octubre	2023-10-18T00:00:00	2024-11-08T16:00:00	5	Humedad	62
13877	7	Sololá	712	San Antonio Palopó	9	San Antonio Palopo	10	Octubre	2023-10-18T00:00:00	2024-11-08T16:00:00	6	Velocidad del viento	8
13878	7	Sololá	712	San Antonio Palopó	9	San Antonio Palopo	10	Octubre	2023-10-18T00:00:00	2024-11-08T16:00:00	7	Dirección del viento	8.05
13879	7	Sololá	712	San Antonio Palopó	9	San Antonio Palopo	10	Octubre	2023-10-18T00:00:00	2024-11-08T16:00:00	1	Precipitación	0
13880	7	Sololá	712	San Antonio Palopó	9	San Antonio Palopo	10	Octubre	2023-10-18T00:00:00	2024-11-08T16:00:00	8	Radiación solar	156
13881	7	Sololá	712	San Antonio Palopó	9	San Antonio Palopo	10	Octubre	2023-10-18T00:00:00	2024-11-08T17:00:00	2	Temperatura media	22
13882	7	Sololá	712	San Antonio Palopó	9	San Antonio Palopo	10	Octubre	2023-10-18T00:00:00	2024-11-08T17:00:00	4	Temperatura máxima	23.3
13883	7	Sololá	712	San Antonio Palopó	9	San Antonio Palopo	10	Octubre	2023-10-18T00:00:00	2024-11-08T17:00:00	3	Temperatura mínima	22
13884	7	Sololá	712	San Antonio Palopó	9	San Antonio Palopo	10	Octubre	2023-10-18T00:00:00	2024-11-08T17:00:00	5	Humedad	64
13885	7	Sololá	712	San Antonio Palopó	9	San Antonio Palopo	10	Octubre	2023-10-18T00:00:00	2024-11-08T17:00:00	6	Velocidad del viento	8
13886	7	Sololá	712	San Antonio Palopó	9	San Antonio Palopo	10	Octubre	2023-10-18T00:00:00	2024-11-08T17:00:00	7	Dirección del viento	8.05
13887	7	Sololá	712	San Antonio Palopó	9	San Antonio Palopo	10	Octubre	2023-10-18T00:00:00	2024-11-08T17:00:00	1	Precipitación	0
13888	7	Sololá	712	San Antonio Palopó	9	San Antonio Palopo	10	Octubre	2023-10-18T00:00:00	2024-11-08T17:00:00	8	Radiación solar	55
13889	7	Sololá	712	San Antonio Palopó	9	San Antonio Palopo	10	Octubre	2023-10-18T00:00:00	2024-11-08T18:00:00	2	Temperatura media	21.2
13890	7	Sololá	712	San Antonio Palopó	9	San Antonio Palopo	10	Octubre	2023-10-18T00:00:00	2024-11-08T18:00:00	4	Temperatura máxima	22
13891	7	Sololá	712	San Antonio Palopó	9	San Antonio Palopo	10	Octubre	2023-10-18T00:00:00	2024-11-08T18:00:00	3	Temperatura mínima	21.2
13892	7	Sololá	712	San Antonio Palopó	9	San Antonio Palopo	10	Octubre	2023-10-18T00:00:00	2024-11-08T18:00:00	5	Humedad	67
13893	7	Sololá	712	San Antonio Palopó	9	San Antonio Palopo	10	Octubre	2023-10-18T00:00:00	2024-11-08T18:00:00	6	Velocidad del viento	16.1
13894	7	Sololá	712	San Antonio Palopó	9	San Antonio Palopo	10	Octubre	2023-10-18T00:00:00	2024-11-08T18:00:00	7	Dirección del viento	16.09
13895	7	Sololá	712	San Antonio Palopó	9	San Antonio Palopo	10	Octubre	2023-10-18T00:00:00	2024-11-08T18:00:00	1	Precipitación	0
13896	7	Sololá	712	San Antonio Palopó	9	San Antonio Palopo	10	Octubre	2023-10-18T00:00:00	2024-11-08T18:00:00	8	Radiación solar	6
13897	7	Sololá	712	San Antonio Palopó	9	San Antonio Palopo	10	Octubre	2023-10-18T00:00:00	2024-11-08T19:00:00	2	Temperatura media	21.1
13898	7	Sololá	712	San Antonio Palopó	9	San Antonio Palopo	10	Octubre	2023-10-18T00:00:00	2024-11-08T19:00:00	4	Temperatura máxima	21.2
13899	7	Sololá	712	San Antonio Palopó	9	San Antonio Palopo	10	Octubre	2023-10-18T00:00:00	2024-11-08T19:00:00	3	Temperatura mínima	20.9
13900	7	Sololá	712	San Antonio Palopó	9	San Antonio Palopo	10	Octubre	2023-10-18T00:00:00	2024-11-08T19:00:00	5	Humedad	68
13901	7	Sololá	712	San Antonio Palopó	9	San Antonio Palopo	10	Octubre	2023-10-18T00:00:00	2024-11-08T19:00:00	6	Velocidad del viento	11.3
13902	7	Sololá	712	San Antonio Palopó	9	San Antonio Palopo	10	Octubre	2023-10-18T00:00:00	2024-11-08T19:00:00	7	Dirección del viento	11.27
13903	7	Sololá	712	San Antonio Palopó	9	San Antonio Palopo	10	Octubre	2023-10-18T00:00:00	2024-11-08T19:00:00	1	Precipitación	0
13904	7	Sololá	712	San Antonio Palopó	9	San Antonio Palopo	10	Octubre	2023-10-18T00:00:00	2024-11-08T19:00:00	8	Radiación solar	0
13905	7	Sololá	712	San Antonio Palopó	9	San Antonio Palopo	10	Octubre	2023-10-18T00:00:00	2024-11-08T20:00:00	2	Temperatura media	20.7
13906	7	Sololá	712	San Antonio Palopó	9	San Antonio Palopo	10	Octubre	2023-10-18T00:00:00	2024-11-08T20:00:00	4	Temperatura máxima	21.1
13907	7	Sololá	712	San Antonio Palopó	9	San Antonio Palopo	10	Octubre	2023-10-18T00:00:00	2024-11-08T20:00:00	3	Temperatura mínima	20.6
13908	7	Sololá	712	San Antonio Palopó	9	San Antonio Palopo	10	Octubre	2023-10-18T00:00:00	2024-11-08T20:00:00	5	Humedad	69
13909	7	Sololá	712	San Antonio Palopó	9	San Antonio Palopo	10	Octubre	2023-10-18T00:00:00	2024-11-08T20:00:00	6	Velocidad del viento	6.4
13910	7	Sololá	712	San Antonio Palopó	9	San Antonio Palopo	10	Octubre	2023-10-18T00:00:00	2024-11-08T20:00:00	7	Dirección del viento	6.44
13911	7	Sololá	712	San Antonio Palopó	9	San Antonio Palopo	10	Octubre	2023-10-18T00:00:00	2024-11-08T20:00:00	1	Precipitación	0
13912	7	Sololá	712	San Antonio Palopó	9	San Antonio Palopo	10	Octubre	2023-10-18T00:00:00	2024-11-08T20:00:00	8	Radiación solar	0
13913	7	Sololá	712	San Antonio Palopó	9	San Antonio Palopo	10	Octubre	2023-10-18T00:00:00	2024-11-08T21:00:00	2	Temperatura media	20.3
13914	7	Sololá	712	San Antonio Palopó	9	San Antonio Palopo	10	Octubre	2023-10-18T00:00:00	2024-11-08T21:00:00	4	Temperatura máxima	20.7
13915	7	Sololá	712	San Antonio Palopó	9	San Antonio Palopo	10	Octubre	2023-10-18T00:00:00	2024-11-08T21:00:00	3	Temperatura mínima	20.2
13916	7	Sololá	712	San Antonio Palopó	9	San Antonio Palopo	10	Octubre	2023-10-18T00:00:00	2024-11-08T21:00:00	5	Humedad	69
13917	7	Sololá	712	San Antonio Palopó	9	San Antonio Palopo	10	Octubre	2023-10-18T00:00:00	2024-11-08T21:00:00	6	Velocidad del viento	9.7
13918	7	Sololá	712	San Antonio Palopó	9	San Antonio Palopo	10	Octubre	2023-10-18T00:00:00	2024-11-08T21:00:00	7	Dirección del viento	9.66
13919	7	Sololá	712	San Antonio Palopó	9	San Antonio Palopo	10	Octubre	2023-10-18T00:00:00	2024-11-08T21:00:00	1	Precipitación	0
13920	7	Sololá	712	San Antonio Palopó	9	San Antonio Palopo	10	Octubre	2023-10-18T00:00:00	2024-11-08T21:00:00	8	Radiación solar	0
13921	7	Sololá	712	San Antonio Palopó	9	San Antonio Palopo	10	Octubre	2023-10-18T00:00:00	2024-11-08T22:00:00	2	Temperatura media	19.9
13922	7	Sololá	712	San Antonio Palopó	9	San Antonio Palopo	10	Octubre	2023-10-18T00:00:00	2024-11-08T22:00:00	4	Temperatura máxima	20.3
13923	7	Sololá	712	San Antonio Palopó	9	San Antonio Palopo	10	Octubre	2023-10-18T00:00:00	2024-11-08T22:00:00	3	Temperatura mínima	19.8
13924	7	Sololá	712	San Antonio Palopó	9	San Antonio Palopo	10	Octubre	2023-10-18T00:00:00	2024-11-08T22:00:00	5	Humedad	69
13925	7	Sololá	712	San Antonio Palopó	9	San Antonio Palopo	10	Octubre	2023-10-18T00:00:00	2024-11-08T22:00:00	6	Velocidad del viento	6.4
13926	7	Sololá	712	San Antonio Palopó	9	San Antonio Palopo	10	Octubre	2023-10-18T00:00:00	2024-11-08T22:00:00	7	Dirección del viento	6.44
13927	7	Sololá	712	San Antonio Palopó	9	San Antonio Palopo	10	Octubre	2023-10-18T00:00:00	2024-11-08T22:00:00	1	Precipitación	0
13928	7	Sololá	712	San Antonio Palopó	9	San Antonio Palopo	10	Octubre	2023-10-18T00:00:00	2024-11-08T22:00:00	8	Radiación solar	0
13929	7	Sololá	712	San Antonio Palopó	9	San Antonio Palopo	10	Octubre	2023-10-18T00:00:00	2024-11-08T23:00:00	2	Temperatura media	19.6
13930	7	Sololá	712	San Antonio Palopó	9	San Antonio Palopo	10	Octubre	2023-10-18T00:00:00	2024-11-08T23:00:00	4	Temperatura máxima	20.1
13931	7	Sololá	712	San Antonio Palopó	9	San Antonio Palopo	10	Octubre	2023-10-18T00:00:00	2024-11-08T23:00:00	3	Temperatura mínima	19.6
13932	7	Sololá	712	San Antonio Palopó	9	San Antonio Palopo	10	Octubre	2023-10-18T00:00:00	2024-11-08T23:00:00	5	Humedad	70
13933	7	Sololá	712	San Antonio Palopó	9	San Antonio Palopo	10	Octubre	2023-10-18T00:00:00	2024-11-08T23:00:00	6	Velocidad del viento	11.3
13934	7	Sololá	712	San Antonio Palopó	9	San Antonio Palopo	10	Octubre	2023-10-18T00:00:00	2024-11-08T23:00:00	7	Dirección del viento	11.27
13935	7	Sololá	712	San Antonio Palopó	9	San Antonio Palopo	10	Octubre	2023-10-18T00:00:00	2024-11-08T23:00:00	1	Precipitación	0
13936	7	Sololá	712	San Antonio Palopó	9	San Antonio Palopo	10	Octubre	2023-10-18T00:00:00	2024-11-08T23:00:00	8	Radiación solar	0
13937	7	Sololá	712	San Antonio Palopó	9	San Antonio Palopo	10	Octubre	2023-10-19T00:00:00	2024-11-08T00:00:00	2	Temperatura media	18.3
13938	7	Sololá	712	San Antonio Palopó	9	San Antonio Palopo	10	Octubre	2023-10-19T00:00:00	2024-11-08T00:00:00	4	Temperatura máxima	19.6
13939	7	Sololá	712	San Antonio Palopó	9	San Antonio Palopo	10	Octubre	2023-10-19T00:00:00	2024-11-08T00:00:00	3	Temperatura mínima	18.3
13940	7	Sololá	712	San Antonio Palopó	9	San Antonio Palopo	10	Octubre	2023-10-19T00:00:00	2024-11-08T00:00:00	5	Humedad	74
13941	7	Sololá	712	San Antonio Palopó	9	San Antonio Palopo	10	Octubre	2023-10-19T00:00:00	2024-11-08T00:00:00	6	Velocidad del viento	17.7
13942	7	Sololá	712	San Antonio Palopó	9	San Antonio Palopo	10	Octubre	2023-10-19T00:00:00	2024-11-08T00:00:00	7	Dirección del viento	17.7
13943	7	Sololá	712	San Antonio Palopó	9	San Antonio Palopo	10	Octubre	2023-10-19T00:00:00	2024-11-08T00:00:00	1	Precipitación	0
13944	7	Sololá	712	San Antonio Palopó	9	San Antonio Palopo	10	Octubre	2023-10-19T00:00:00	2024-11-08T00:00:00	8	Radiación solar	0
13945	7	Sololá	712	San Antonio Palopó	9	San Antonio Palopo	10	Octubre	2023-10-19T00:00:00	2024-11-08T01:00:00	2	Temperatura media	18.2
13946	7	Sololá	712	San Antonio Palopó	9	San Antonio Palopo	10	Octubre	2023-10-19T00:00:00	2024-11-08T01:00:00	4	Temperatura máxima	18.3
13947	7	Sololá	712	San Antonio Palopó	9	San Antonio Palopo	10	Octubre	2023-10-19T00:00:00	2024-11-08T01:00:00	3	Temperatura mínima	17.8
13948	7	Sololá	712	San Antonio Palopó	9	San Antonio Palopo	10	Octubre	2023-10-19T00:00:00	2024-11-08T01:00:00	5	Humedad	74
13949	7	Sololá	712	San Antonio Palopó	9	San Antonio Palopo	10	Octubre	2023-10-19T00:00:00	2024-11-08T01:00:00	6	Velocidad del viento	16.1
13950	7	Sololá	712	San Antonio Palopó	9	San Antonio Palopo	10	Octubre	2023-10-19T00:00:00	2024-11-08T01:00:00	7	Dirección del viento	16.09
13951	7	Sololá	712	San Antonio Palopó	9	San Antonio Palopo	10	Octubre	2023-10-19T00:00:00	2024-11-08T01:00:00	1	Precipitación	0
13952	7	Sololá	712	San Antonio Palopó	9	San Antonio Palopo	10	Octubre	2023-10-19T00:00:00	2024-11-08T01:00:00	8	Radiación solar	0
13953	7	Sololá	712	San Antonio Palopó	9	San Antonio Palopo	10	Octubre	2023-10-19T00:00:00	2024-11-08T02:00:00	2	Temperatura media	18.6
13954	7	Sololá	712	San Antonio Palopó	9	San Antonio Palopo	10	Octubre	2023-10-19T00:00:00	2024-11-08T02:00:00	4	Temperatura máxima	18.6
13955	7	Sololá	712	San Antonio Palopó	9	San Antonio Palopo	10	Octubre	2023-10-19T00:00:00	2024-11-08T02:00:00	3	Temperatura mínima	18.1
13956	7	Sololá	712	San Antonio Palopó	9	San Antonio Palopo	10	Octubre	2023-10-19T00:00:00	2024-11-08T02:00:00	5	Humedad	73
13957	7	Sololá	712	San Antonio Palopó	9	San Antonio Palopo	10	Octubre	2023-10-19T00:00:00	2024-11-08T02:00:00	6	Velocidad del viento	12.9
13958	7	Sololá	712	San Antonio Palopó	9	San Antonio Palopo	10	Octubre	2023-10-19T00:00:00	2024-11-08T02:00:00	7	Dirección del viento	12.87
13959	7	Sololá	712	San Antonio Palopó	9	San Antonio Palopo	10	Octubre	2023-10-19T00:00:00	2024-11-08T02:00:00	1	Precipitación	0
13960	7	Sololá	712	San Antonio Palopó	9	San Antonio Palopo	10	Octubre	2023-10-19T00:00:00	2024-11-08T02:00:00	8	Radiación solar	0
13961	7	Sololá	712	San Antonio Palopó	9	San Antonio Palopo	10	Octubre	2023-10-19T00:00:00	2024-11-08T03:00:00	2	Temperatura media	18.8
13962	7	Sololá	712	San Antonio Palopó	9	San Antonio Palopo	10	Octubre	2023-10-19T00:00:00	2024-11-08T03:00:00	4	Temperatura máxima	19.1
13963	7	Sololá	712	San Antonio Palopó	9	San Antonio Palopo	10	Octubre	2023-10-19T00:00:00	2024-11-08T03:00:00	3	Temperatura mínima	18.3
13964	7	Sololá	712	San Antonio Palopó	9	San Antonio Palopo	10	Octubre	2023-10-19T00:00:00	2024-11-08T03:00:00	5	Humedad	71
13965	7	Sololá	712	San Antonio Palopó	9	San Antonio Palopo	10	Octubre	2023-10-19T00:00:00	2024-11-08T03:00:00	6	Velocidad del viento	11.3
13966	7	Sololá	712	San Antonio Palopó	9	San Antonio Palopo	10	Octubre	2023-10-19T00:00:00	2024-11-08T03:00:00	7	Dirección del viento	11.27
13967	7	Sololá	712	San Antonio Palopó	9	San Antonio Palopo	10	Octubre	2023-10-19T00:00:00	2024-11-08T03:00:00	1	Precipitación	0
13968	7	Sololá	712	San Antonio Palopó	9	San Antonio Palopo	10	Octubre	2023-10-19T00:00:00	2024-11-08T03:00:00	8	Radiación solar	0
13969	7	Sololá	712	San Antonio Palopó	9	San Antonio Palopo	10	Octubre	2023-10-19T00:00:00	2024-11-08T04:00:00	2	Temperatura media	18.6
13970	7	Sololá	712	San Antonio Palopó	9	San Antonio Palopo	10	Octubre	2023-10-19T00:00:00	2024-11-08T04:00:00	4	Temperatura máxima	19.3
13971	7	Sololá	712	San Antonio Palopó	9	San Antonio Palopo	10	Octubre	2023-10-19T00:00:00	2024-11-08T04:00:00	3	Temperatura mínima	18.6
13972	7	Sololá	712	San Antonio Palopó	9	San Antonio Palopo	10	Octubre	2023-10-19T00:00:00	2024-11-08T04:00:00	5	Humedad	72
13973	7	Sololá	712	San Antonio Palopó	9	San Antonio Palopo	10	Octubre	2023-10-19T00:00:00	2024-11-08T04:00:00	6	Velocidad del viento	9.7
13974	7	Sololá	712	San Antonio Palopó	9	San Antonio Palopo	10	Octubre	2023-10-19T00:00:00	2024-11-08T04:00:00	7	Dirección del viento	9.66
13975	7	Sololá	712	San Antonio Palopó	9	San Antonio Palopo	10	Octubre	2023-10-19T00:00:00	2024-11-08T04:00:00	1	Precipitación	0
13976	7	Sololá	712	San Antonio Palopó	9	San Antonio Palopo	10	Octubre	2023-10-19T00:00:00	2024-11-08T04:00:00	8	Radiación solar	0
13977	7	Sololá	712	San Antonio Palopó	9	San Antonio Palopo	10	Octubre	2023-10-19T00:00:00	2024-11-08T05:00:00	2	Temperatura media	19
13978	7	Sololá	712	San Antonio Palopó	9	San Antonio Palopo	10	Octubre	2023-10-19T00:00:00	2024-11-08T05:00:00	4	Temperatura máxima	19
13979	7	Sololá	712	San Antonio Palopó	9	San Antonio Palopo	10	Octubre	2023-10-19T00:00:00	2024-11-08T05:00:00	3	Temperatura mínima	18.3
13980	7	Sololá	712	San Antonio Palopó	9	San Antonio Palopo	10	Octubre	2023-10-19T00:00:00	2024-11-08T05:00:00	5	Humedad	71
13981	7	Sololá	712	San Antonio Palopó	9	San Antonio Palopo	10	Octubre	2023-10-19T00:00:00	2024-11-08T05:00:00	6	Velocidad del viento	9.7
13982	7	Sololá	712	San Antonio Palopó	9	San Antonio Palopo	10	Octubre	2023-10-19T00:00:00	2024-11-08T05:00:00	7	Dirección del viento	9.66
13983	7	Sololá	712	San Antonio Palopó	9	San Antonio Palopo	10	Octubre	2023-10-19T00:00:00	2024-11-08T05:00:00	1	Precipitación	0
13984	7	Sololá	712	San Antonio Palopó	9	San Antonio Palopo	10	Octubre	2023-10-19T00:00:00	2024-11-08T05:00:00	8	Radiación solar	0
13985	7	Sololá	712	San Antonio Palopó	9	San Antonio Palopo	10	Octubre	2023-10-19T00:00:00	2024-11-08T06:00:00	2	Temperatura media	18.7
13986	7	Sololá	712	San Antonio Palopó	9	San Antonio Palopo	10	Octubre	2023-10-19T00:00:00	2024-11-08T06:00:00	4	Temperatura máxima	19.1
13987	7	Sololá	712	San Antonio Palopó	9	San Antonio Palopo	10	Octubre	2023-10-19T00:00:00	2024-11-08T06:00:00	3	Temperatura mínima	18.5
13988	7	Sololá	712	San Antonio Palopó	9	San Antonio Palopo	10	Octubre	2023-10-19T00:00:00	2024-11-08T06:00:00	5	Humedad	75
13989	7	Sololá	712	San Antonio Palopó	9	San Antonio Palopo	10	Octubre	2023-10-19T00:00:00	2024-11-08T06:00:00	6	Velocidad del viento	8
13990	7	Sololá	712	San Antonio Palopó	9	San Antonio Palopo	10	Octubre	2023-10-19T00:00:00	2024-11-08T06:00:00	7	Dirección del viento	8.05
13991	7	Sololá	712	San Antonio Palopó	9	San Antonio Palopo	10	Octubre	2023-10-19T00:00:00	2024-11-08T06:00:00	1	Precipitación	0
13992	7	Sololá	712	San Antonio Palopó	9	San Antonio Palopo	10	Octubre	2023-10-19T00:00:00	2024-11-08T06:00:00	8	Radiación solar	0
13993	7	Sololá	712	San Antonio Palopó	9	San Antonio Palopo	10	Octubre	2023-10-19T00:00:00	2024-11-08T07:00:00	2	Temperatura media	19
13994	7	Sololá	712	San Antonio Palopó	9	San Antonio Palopo	10	Octubre	2023-10-19T00:00:00	2024-11-08T07:00:00	4	Temperatura máxima	19.1
13995	7	Sololá	712	San Antonio Palopó	9	San Antonio Palopo	10	Octubre	2023-10-19T00:00:00	2024-11-08T07:00:00	3	Temperatura mínima	18.6
13996	7	Sololá	712	San Antonio Palopó	9	San Antonio Palopo	10	Octubre	2023-10-19T00:00:00	2024-11-08T07:00:00	5	Humedad	71
13997	7	Sololá	712	San Antonio Palopó	9	San Antonio Palopo	10	Octubre	2023-10-19T00:00:00	2024-11-08T07:00:00	6	Velocidad del viento	6.4
13998	7	Sololá	712	San Antonio Palopó	9	San Antonio Palopo	10	Octubre	2023-10-19T00:00:00	2024-11-08T07:00:00	7	Dirección del viento	6.44
13999	7	Sololá	712	San Antonio Palopó	9	San Antonio Palopo	10	Octubre	2023-10-19T00:00:00	2024-11-08T07:00:00	1	Precipitación	0
14000	7	Sololá	712	San Antonio Palopó	9	San Antonio Palopo	10	Octubre	2023-10-19T00:00:00	2024-11-08T07:00:00	8	Radiación solar	22
14001	7	Sololá	712	San Antonio Palopó	9	San Antonio Palopo	10	Octubre	2023-10-19T00:00:00	2024-11-08T08:00:00	2	Temperatura media	20.3
14002	7	Sololá	712	San Antonio Palopó	9	San Antonio Palopo	10	Octubre	2023-10-19T00:00:00	2024-11-08T08:00:00	4	Temperatura máxima	20.3
14003	7	Sololá	712	San Antonio Palopó	9	San Antonio Palopo	10	Octubre	2023-10-19T00:00:00	2024-11-08T08:00:00	3	Temperatura mínima	18.9
14004	7	Sololá	712	San Antonio Palopó	9	San Antonio Palopo	10	Octubre	2023-10-19T00:00:00	2024-11-08T08:00:00	5	Humedad	71
14005	7	Sololá	712	San Antonio Palopó	9	San Antonio Palopo	10	Octubre	2023-10-19T00:00:00	2024-11-08T08:00:00	6	Velocidad del viento	3.2
14006	7	Sololá	712	San Antonio Palopó	9	San Antonio Palopo	10	Octubre	2023-10-19T00:00:00	2024-11-08T08:00:00	7	Dirección del viento	3.22
14007	7	Sololá	712	San Antonio Palopó	9	San Antonio Palopo	10	Octubre	2023-10-19T00:00:00	2024-11-08T08:00:00	1	Precipitación	0
14008	7	Sololá	712	San Antonio Palopó	9	San Antonio Palopo	10	Octubre	2023-10-19T00:00:00	2024-11-08T08:00:00	8	Radiación solar	110
14009	7	Sololá	712	San Antonio Palopó	9	San Antonio Palopo	10	Octubre	2023-10-19T00:00:00	2024-11-08T09:00:00	2	Temperatura media	22.5
14010	7	Sololá	712	San Antonio Palopó	9	San Antonio Palopo	10	Octubre	2023-10-19T00:00:00	2024-11-08T09:00:00	4	Temperatura máxima	22.5
14011	7	Sololá	712	San Antonio Palopó	9	San Antonio Palopo	10	Octubre	2023-10-19T00:00:00	2024-11-08T09:00:00	3	Temperatura mínima	20.3
14012	7	Sololá	712	San Antonio Palopó	9	San Antonio Palopo	10	Octubre	2023-10-19T00:00:00	2024-11-08T09:00:00	5	Humedad	68
14013	7	Sololá	712	San Antonio Palopó	9	San Antonio Palopo	10	Octubre	2023-10-19T00:00:00	2024-11-08T09:00:00	6	Velocidad del viento	3.2
14014	7	Sololá	712	San Antonio Palopó	9	San Antonio Palopo	10	Octubre	2023-10-19T00:00:00	2024-11-08T09:00:00	7	Dirección del viento	3.22
14015	7	Sololá	712	San Antonio Palopó	9	San Antonio Palopo	10	Octubre	2023-10-19T00:00:00	2024-11-08T09:00:00	1	Precipitación	0
14016	7	Sololá	712	San Antonio Palopó	9	San Antonio Palopo	10	Octubre	2023-10-19T00:00:00	2024-11-08T09:00:00	8	Radiación solar	501
14017	7	Sololá	712	San Antonio Palopó	9	San Antonio Palopo	10	Octubre	2023-10-19T00:00:00	2024-11-08T10:00:00	2	Temperatura media	22.2
14018	7	Sololá	712	San Antonio Palopó	9	San Antonio Palopo	10	Octubre	2023-10-19T00:00:00	2024-11-08T10:00:00	4	Temperatura máxima	22.8
14019	7	Sololá	712	San Antonio Palopó	9	San Antonio Palopo	10	Octubre	2023-10-19T00:00:00	2024-11-08T10:00:00	3	Temperatura mínima	22.2
14020	7	Sololá	712	San Antonio Palopó	9	San Antonio Palopo	10	Octubre	2023-10-19T00:00:00	2024-11-08T10:00:00	5	Humedad	65
14021	7	Sololá	712	San Antonio Palopó	9	San Antonio Palopo	10	Octubre	2023-10-19T00:00:00	2024-11-08T10:00:00	6	Velocidad del viento	1.6
14022	7	Sololá	712	San Antonio Palopó	9	San Antonio Palopo	10	Octubre	2023-10-19T00:00:00	2024-11-08T10:00:00	7	Dirección del viento	1.61
14023	7	Sololá	712	San Antonio Palopó	9	San Antonio Palopo	10	Octubre	2023-10-19T00:00:00	2024-11-08T10:00:00	1	Precipitación	0
14024	7	Sololá	712	San Antonio Palopó	9	San Antonio Palopo	10	Octubre	2023-10-19T00:00:00	2024-11-08T10:00:00	8	Radiación solar	515
14025	7	Sololá	712	San Antonio Palopó	9	San Antonio Palopo	10	Octubre	2023-10-19T00:00:00	2024-11-08T11:00:00	2	Temperatura media	23.5
14026	7	Sololá	712	San Antonio Palopó	9	San Antonio Palopo	10	Octubre	2023-10-19T00:00:00	2024-11-08T11:00:00	4	Temperatura máxima	23.5
14027	7	Sololá	712	San Antonio Palopó	9	San Antonio Palopo	10	Octubre	2023-10-19T00:00:00	2024-11-08T11:00:00	3	Temperatura mínima	22.2
14028	7	Sololá	712	San Antonio Palopó	9	San Antonio Palopo	10	Octubre	2023-10-19T00:00:00	2024-11-08T11:00:00	5	Humedad	65
14029	7	Sololá	712	San Antonio Palopó	9	San Antonio Palopo	10	Octubre	2023-10-19T00:00:00	2024-11-08T11:00:00	6	Velocidad del viento	3.2
14030	7	Sololá	712	San Antonio Palopó	9	San Antonio Palopo	10	Octubre	2023-10-19T00:00:00	2024-11-08T11:00:00	7	Dirección del viento	3.22
14031	7	Sololá	712	San Antonio Palopó	9	San Antonio Palopo	10	Octubre	2023-10-19T00:00:00	2024-11-08T11:00:00	1	Precipitación	0
14032	7	Sololá	712	San Antonio Palopó	9	San Antonio Palopo	10	Octubre	2023-10-19T00:00:00	2024-11-08T11:00:00	8	Radiación solar	591
14033	7	Sololá	712	San Antonio Palopó	9	San Antonio Palopo	10	Octubre	2023-10-19T00:00:00	2024-11-08T12:00:00	2	Temperatura media	22.4
14034	7	Sololá	712	San Antonio Palopó	9	San Antonio Palopo	10	Octubre	2023-10-19T00:00:00	2024-11-08T12:00:00	4	Temperatura máxima	23.5
14035	7	Sololá	712	San Antonio Palopó	9	San Antonio Palopo	10	Octubre	2023-10-19T00:00:00	2024-11-08T12:00:00	3	Temperatura mínima	22.4
14036	7	Sololá	712	San Antonio Palopó	9	San Antonio Palopo	10	Octubre	2023-10-19T00:00:00	2024-11-08T12:00:00	5	Humedad	71
14037	7	Sololá	712	San Antonio Palopó	9	San Antonio Palopo	10	Octubre	2023-10-19T00:00:00	2024-11-08T12:00:00	6	Velocidad del viento	4.8
14038	7	Sololá	712	San Antonio Palopó	9	San Antonio Palopo	10	Octubre	2023-10-19T00:00:00	2024-11-08T12:00:00	7	Dirección del viento	4.83
14039	7	Sololá	712	San Antonio Palopó	9	San Antonio Palopo	10	Octubre	2023-10-19T00:00:00	2024-11-08T12:00:00	1	Precipitación	0
14040	7	Sololá	712	San Antonio Palopó	9	San Antonio Palopo	10	Octubre	2023-10-19T00:00:00	2024-11-08T12:00:00	8	Radiación solar	243
14041	7	Sololá	712	San Antonio Palopó	9	San Antonio Palopo	10	Octubre	2023-10-19T00:00:00	2024-11-08T13:00:00	2	Temperatura media	21.9
14042	7	Sololá	712	San Antonio Palopó	9	San Antonio Palopo	10	Octubre	2023-10-19T00:00:00	2024-11-08T13:00:00	4	Temperatura máxima	23.4
14043	7	Sololá	712	San Antonio Palopó	9	San Antonio Palopo	10	Octubre	2023-10-19T00:00:00	2024-11-08T13:00:00	3	Temperatura mínima	21.8
14044	7	Sololá	712	San Antonio Palopó	9	San Antonio Palopo	10	Octubre	2023-10-19T00:00:00	2024-11-08T13:00:00	5	Humedad	76
14045	7	Sololá	712	San Antonio Palopó	9	San Antonio Palopo	10	Octubre	2023-10-19T00:00:00	2024-11-08T13:00:00	6	Velocidad del viento	6.4
14046	7	Sololá	712	San Antonio Palopó	9	San Antonio Palopo	10	Octubre	2023-10-19T00:00:00	2024-11-08T13:00:00	7	Dirección del viento	6.44
14047	7	Sololá	712	San Antonio Palopó	9	San Antonio Palopo	10	Octubre	2023-10-19T00:00:00	2024-11-08T13:00:00	1	Precipitación	0
14048	7	Sololá	712	San Antonio Palopó	9	San Antonio Palopo	10	Octubre	2023-10-19T00:00:00	2024-11-08T13:00:00	8	Radiación solar	312
14049	7	Sololá	712	San Antonio Palopó	9	San Antonio Palopo	10	Octubre	2023-10-19T00:00:00	2024-11-08T14:00:00	2	Temperatura media	21.9
14050	7	Sololá	712	San Antonio Palopó	9	San Antonio Palopo	10	Octubre	2023-10-19T00:00:00	2024-11-08T14:00:00	4	Temperatura máxima	22.7
14051	7	Sololá	712	San Antonio Palopó	9	San Antonio Palopo	10	Octubre	2023-10-19T00:00:00	2024-11-08T14:00:00	3	Temperatura mínima	21.7
14052	7	Sololá	712	San Antonio Palopó	9	San Antonio Palopo	10	Octubre	2023-10-19T00:00:00	2024-11-08T14:00:00	5	Humedad	79
14053	7	Sololá	712	San Antonio Palopó	9	San Antonio Palopo	10	Octubre	2023-10-19T00:00:00	2024-11-08T14:00:00	6	Velocidad del viento	3.2
14054	7	Sololá	712	San Antonio Palopó	9	San Antonio Palopo	10	Octubre	2023-10-19T00:00:00	2024-11-08T14:00:00	7	Dirección del viento	3.22
14055	7	Sololá	712	San Antonio Palopó	9	San Antonio Palopo	10	Octubre	2023-10-19T00:00:00	2024-11-08T14:00:00	1	Precipitación	0
14056	7	Sololá	712	San Antonio Palopó	9	San Antonio Palopo	10	Octubre	2023-10-19T00:00:00	2024-11-08T14:00:00	8	Radiación solar	181
14057	7	Sololá	712	San Antonio Palopó	9	San Antonio Palopo	10	Octubre	2023-10-19T00:00:00	2024-11-08T15:00:00	2	Temperatura media	21.6
14058	7	Sololá	712	San Antonio Palopó	9	San Antonio Palopo	10	Octubre	2023-10-19T00:00:00	2024-11-08T15:00:00	4	Temperatura máxima	22.4
14059	7	Sololá	712	San Antonio Palopó	9	San Antonio Palopo	10	Octubre	2023-10-19T00:00:00	2024-11-08T15:00:00	3	Temperatura mínima	21.4
14060	7	Sololá	712	San Antonio Palopó	9	San Antonio Palopo	10	Octubre	2023-10-19T00:00:00	2024-11-08T15:00:00	5	Humedad	81
14061	7	Sololá	712	San Antonio Palopó	9	San Antonio Palopo	10	Octubre	2023-10-19T00:00:00	2024-11-08T15:00:00	6	Velocidad del viento	6.4
14062	7	Sololá	712	San Antonio Palopó	9	San Antonio Palopo	10	Octubre	2023-10-19T00:00:00	2024-11-08T15:00:00	7	Dirección del viento	6.44
14063	7	Sololá	712	San Antonio Palopó	9	San Antonio Palopo	10	Octubre	2023-10-19T00:00:00	2024-11-08T15:00:00	1	Precipitación	0
14064	7	Sololá	712	San Antonio Palopó	9	San Antonio Palopo	10	Octubre	2023-10-19T00:00:00	2024-11-08T15:00:00	8	Radiación solar	244
14065	7	Sololá	712	San Antonio Palopó	9	San Antonio Palopo	10	Octubre	2023-10-19T00:00:00	2024-11-08T16:00:00	2	Temperatura media	21.4
14066	7	Sololá	712	San Antonio Palopó	9	San Antonio Palopo	10	Octubre	2023-10-19T00:00:00	2024-11-08T16:00:00	4	Temperatura máxima	22.1
14067	7	Sololá	712	San Antonio Palopó	9	San Antonio Palopo	10	Octubre	2023-10-19T00:00:00	2024-11-08T16:00:00	3	Temperatura mínima	20.7
14068	7	Sololá	712	San Antonio Palopó	9	San Antonio Palopo	10	Octubre	2023-10-19T00:00:00	2024-11-08T16:00:00	5	Humedad	81
14069	7	Sololá	712	San Antonio Palopó	9	San Antonio Palopo	10	Octubre	2023-10-19T00:00:00	2024-11-08T16:00:00	6	Velocidad del viento	6.4
14070	7	Sololá	712	San Antonio Palopó	9	San Antonio Palopo	10	Octubre	2023-10-19T00:00:00	2024-11-08T16:00:00	7	Dirección del viento	6.44
14071	7	Sololá	712	San Antonio Palopó	9	San Antonio Palopo	10	Octubre	2023-10-19T00:00:00	2024-11-08T16:00:00	1	Precipitación	0
14072	7	Sololá	712	San Antonio Palopó	9	San Antonio Palopo	10	Octubre	2023-10-19T00:00:00	2024-11-08T16:00:00	8	Radiación solar	151
14073	7	Sololá	712	San Antonio Palopó	9	San Antonio Palopo	10	Octubre	2023-10-19T00:00:00	2024-11-08T17:00:00	2	Temperatura media	21.5
14074	7	Sololá	712	San Antonio Palopó	9	San Antonio Palopo	10	Octubre	2023-10-19T00:00:00	2024-11-08T17:00:00	4	Temperatura máxima	22.3
14075	7	Sololá	712	San Antonio Palopó	9	San Antonio Palopo	10	Octubre	2023-10-19T00:00:00	2024-11-08T17:00:00	3	Temperatura mínima	20.8
14076	7	Sololá	712	San Antonio Palopó	9	San Antonio Palopo	10	Octubre	2023-10-19T00:00:00	2024-11-08T17:00:00	5	Humedad	81
14077	7	Sololá	712	San Antonio Palopó	9	San Antonio Palopo	10	Octubre	2023-10-19T00:00:00	2024-11-08T17:00:00	6	Velocidad del viento	6.4
14078	7	Sololá	712	San Antonio Palopó	9	San Antonio Palopo	10	Octubre	2023-10-19T00:00:00	2024-11-08T17:00:00	7	Dirección del viento	6.44
14079	7	Sololá	712	San Antonio Palopó	9	San Antonio Palopo	10	Octubre	2023-10-19T00:00:00	2024-11-08T17:00:00	1	Precipitación	0
14080	7	Sololá	712	San Antonio Palopó	9	San Antonio Palopo	10	Octubre	2023-10-19T00:00:00	2024-11-08T17:00:00	8	Radiación solar	219
14081	7	Sololá	712	San Antonio Palopó	9	San Antonio Palopo	10	Octubre	2023-10-19T00:00:00	2024-11-08T18:00:00	2	Temperatura media	19.9
14082	7	Sololá	712	San Antonio Palopó	9	San Antonio Palopo	10	Octubre	2023-10-19T00:00:00	2024-11-08T18:00:00	4	Temperatura máxima	21.6
14083	7	Sololá	712	San Antonio Palopó	9	San Antonio Palopo	10	Octubre	2023-10-19T00:00:00	2024-11-08T18:00:00	3	Temperatura mínima	19.9
14084	7	Sololá	712	San Antonio Palopó	9	San Antonio Palopo	10	Octubre	2023-10-19T00:00:00	2024-11-08T18:00:00	5	Humedad	86
14085	7	Sololá	712	San Antonio Palopó	9	San Antonio Palopo	10	Octubre	2023-10-19T00:00:00	2024-11-08T18:00:00	6	Velocidad del viento	1.6
14086	7	Sololá	712	San Antonio Palopó	9	San Antonio Palopo	10	Octubre	2023-10-19T00:00:00	2024-11-08T18:00:00	7	Dirección del viento	1.61
14087	7	Sololá	712	San Antonio Palopó	9	San Antonio Palopo	10	Octubre	2023-10-19T00:00:00	2024-11-08T18:00:00	1	Precipitación	0
14088	7	Sololá	712	San Antonio Palopó	9	San Antonio Palopo	10	Octubre	2023-10-19T00:00:00	2024-11-08T18:00:00	8	Radiación solar	7
14089	7	Sololá	712	San Antonio Palopó	9	San Antonio Palopo	10	Octubre	2023-10-19T00:00:00	2024-11-08T19:00:00	2	Temperatura media	19.6
14090	7	Sololá	712	San Antonio Palopó	9	San Antonio Palopo	10	Octubre	2023-10-19T00:00:00	2024-11-08T19:00:00	4	Temperatura máxima	19.9
14091	7	Sololá	712	San Antonio Palopó	9	San Antonio Palopo	10	Octubre	2023-10-19T00:00:00	2024-11-08T19:00:00	3	Temperatura mínima	19.4
14092	7	Sololá	712	San Antonio Palopó	9	San Antonio Palopo	10	Octubre	2023-10-19T00:00:00	2024-11-08T19:00:00	5	Humedad	86
14093	7	Sololá	712	San Antonio Palopó	9	San Antonio Palopo	10	Octubre	2023-10-19T00:00:00	2024-11-08T19:00:00	6	Velocidad del viento	1.6
14094	7	Sololá	712	San Antonio Palopó	9	San Antonio Palopo	10	Octubre	2023-10-19T00:00:00	2024-11-08T19:00:00	7	Dirección del viento	1.61
14095	7	Sololá	712	San Antonio Palopó	9	San Antonio Palopo	10	Octubre	2023-10-19T00:00:00	2024-11-08T19:00:00	1	Precipitación	0
14096	7	Sololá	712	San Antonio Palopó	9	San Antonio Palopo	10	Octubre	2023-10-19T00:00:00	2024-11-08T19:00:00	8	Radiación solar	0
14097	7	Sololá	712	San Antonio Palopó	9	San Antonio Palopo	10	Octubre	2023-10-19T00:00:00	2024-11-08T20:00:00	2	Temperatura media	20.3
14098	7	Sololá	712	San Antonio Palopó	9	San Antonio Palopo	10	Octubre	2023-10-19T00:00:00	2024-11-08T20:00:00	4	Temperatura máxima	20.3
14099	7	Sololá	712	San Antonio Palopó	9	San Antonio Palopo	10	Octubre	2023-10-19T00:00:00	2024-11-08T20:00:00	3	Temperatura mínima	19.6
14100	7	Sololá	712	San Antonio Palopó	9	San Antonio Palopo	10	Octubre	2023-10-19T00:00:00	2024-11-08T20:00:00	5	Humedad	78
14101	7	Sololá	712	San Antonio Palopó	9	San Antonio Palopo	10	Octubre	2023-10-19T00:00:00	2024-11-08T20:00:00	6	Velocidad del viento	3.2
14102	7	Sololá	712	San Antonio Palopó	9	San Antonio Palopo	10	Octubre	2023-10-19T00:00:00	2024-11-08T20:00:00	7	Dirección del viento	3.22
14103	7	Sololá	712	San Antonio Palopó	9	San Antonio Palopo	10	Octubre	2023-10-19T00:00:00	2024-11-08T20:00:00	1	Precipitación	0
14104	7	Sololá	712	San Antonio Palopó	9	San Antonio Palopo	10	Octubre	2023-10-19T00:00:00	2024-11-08T20:00:00	8	Radiación solar	0
14105	7	Sololá	712	San Antonio Palopó	9	San Antonio Palopo	10	Octubre	2023-10-19T00:00:00	2024-11-08T21:00:00	2	Temperatura media	19.8
14106	7	Sololá	712	San Antonio Palopó	9	San Antonio Palopo	10	Octubre	2023-10-19T00:00:00	2024-11-08T21:00:00	4	Temperatura máxima	20.3
14107	7	Sololá	712	San Antonio Palopó	9	San Antonio Palopo	10	Octubre	2023-10-19T00:00:00	2024-11-08T21:00:00	3	Temperatura mínima	19.8
14108	7	Sololá	712	San Antonio Palopó	9	San Antonio Palopo	10	Octubre	2023-10-19T00:00:00	2024-11-08T21:00:00	5	Humedad	79
14109	7	Sololá	712	San Antonio Palopó	9	San Antonio Palopo	10	Octubre	2023-10-19T00:00:00	2024-11-08T21:00:00	6	Velocidad del viento	4.8
14110	7	Sololá	712	San Antonio Palopó	9	San Antonio Palopo	10	Octubre	2023-10-19T00:00:00	2024-11-08T21:00:00	7	Dirección del viento	4.83
14111	7	Sololá	712	San Antonio Palopó	9	San Antonio Palopo	10	Octubre	2023-10-19T00:00:00	2024-11-08T21:00:00	1	Precipitación	0
14112	7	Sololá	712	San Antonio Palopó	9	San Antonio Palopo	10	Octubre	2023-10-19T00:00:00	2024-11-08T21:00:00	8	Radiación solar	0
14113	7	Sololá	712	San Antonio Palopó	9	San Antonio Palopo	10	Octubre	2023-10-19T00:00:00	2024-11-08T22:00:00	2	Temperatura media	18.4
14114	7	Sololá	712	San Antonio Palopó	9	San Antonio Palopo	10	Octubre	2023-10-19T00:00:00	2024-11-08T22:00:00	4	Temperatura máxima	19.8
14115	7	Sololá	712	San Antonio Palopó	9	San Antonio Palopo	10	Octubre	2023-10-19T00:00:00	2024-11-08T22:00:00	3	Temperatura mínima	18.4
14116	7	Sololá	712	San Antonio Palopó	9	San Antonio Palopo	10	Octubre	2023-10-19T00:00:00	2024-11-08T22:00:00	5	Humedad	86
14117	7	Sololá	712	San Antonio Palopó	9	San Antonio Palopo	10	Octubre	2023-10-19T00:00:00	2024-11-08T22:00:00	6	Velocidad del viento	8
14118	7	Sololá	712	San Antonio Palopó	9	San Antonio Palopo	10	Octubre	2023-10-19T00:00:00	2024-11-08T22:00:00	7	Dirección del viento	8.05
14119	7	Sololá	712	San Antonio Palopó	9	San Antonio Palopo	10	Octubre	2023-10-19T00:00:00	2024-11-08T22:00:00	1	Precipitación	1
14120	7	Sololá	712	San Antonio Palopó	9	San Antonio Palopo	10	Octubre	2023-10-19T00:00:00	2024-11-08T22:00:00	8	Radiación solar	0
14121	7	Sololá	712	San Antonio Palopó	9	San Antonio Palopo	10	Octubre	2023-10-19T00:00:00	2024-11-08T23:00:00	2	Temperatura media	18.5
14122	7	Sololá	712	San Antonio Palopó	9	San Antonio Palopo	10	Octubre	2023-10-19T00:00:00	2024-11-08T23:00:00	4	Temperatura máxima	18.5
14123	7	Sololá	712	San Antonio Palopó	9	San Antonio Palopo	10	Octubre	2023-10-19T00:00:00	2024-11-08T23:00:00	3	Temperatura mínima	17.8
14124	7	Sololá	712	San Antonio Palopó	9	San Antonio Palopo	10	Octubre	2023-10-19T00:00:00	2024-11-08T23:00:00	5	Humedad	85
14125	7	Sololá	712	San Antonio Palopó	9	San Antonio Palopo	10	Octubre	2023-10-19T00:00:00	2024-11-08T23:00:00	6	Velocidad del viento	3.2
14126	7	Sololá	712	San Antonio Palopó	9	San Antonio Palopo	10	Octubre	2023-10-19T00:00:00	2024-11-08T23:00:00	7	Dirección del viento	3.22
14127	7	Sololá	712	San Antonio Palopó	9	San Antonio Palopo	10	Octubre	2023-10-19T00:00:00	2024-11-08T23:00:00	1	Precipitación	0
14128	7	Sololá	712	San Antonio Palopó	9	San Antonio Palopo	10	Octubre	2023-10-19T00:00:00	2024-11-08T23:00:00	8	Radiación solar	0
14129	7	Sololá	712	San Antonio Palopó	9	San Antonio Palopo	10	Octubre	2023-10-20T00:00:00	2024-11-08T00:00:00	2	Temperatura media	18.9
14130	7	Sololá	712	San Antonio Palopó	9	San Antonio Palopo	10	Octubre	2023-10-20T00:00:00	2024-11-08T00:00:00	4	Temperatura máxima	19.1
14131	7	Sololá	712	San Antonio Palopó	9	San Antonio Palopo	10	Octubre	2023-10-20T00:00:00	2024-11-08T00:00:00	3	Temperatura mínima	18.5
14132	7	Sololá	712	San Antonio Palopó	9	San Antonio Palopo	10	Octubre	2023-10-20T00:00:00	2024-11-08T00:00:00	5	Humedad	80
14133	7	Sololá	712	San Antonio Palopó	9	San Antonio Palopo	10	Octubre	2023-10-20T00:00:00	2024-11-08T00:00:00	6	Velocidad del viento	4.8
14134	7	Sololá	712	San Antonio Palopó	9	San Antonio Palopo	10	Octubre	2023-10-20T00:00:00	2024-11-08T00:00:00	7	Dirección del viento	4.83
14135	7	Sololá	712	San Antonio Palopó	9	San Antonio Palopo	10	Octubre	2023-10-20T00:00:00	2024-11-08T00:00:00	1	Precipitación	0
14136	7	Sololá	712	San Antonio Palopó	9	San Antonio Palopo	10	Octubre	2023-10-20T00:00:00	2024-11-08T00:00:00	8	Radiación solar	0
14137	7	Sololá	712	San Antonio Palopó	9	San Antonio Palopo	10	Octubre	2023-10-20T00:00:00	2024-11-08T01:00:00	2	Temperatura media	19.3
14138	7	Sololá	712	San Antonio Palopó	9	San Antonio Palopo	10	Octubre	2023-10-20T00:00:00	2024-11-08T01:00:00	4	Temperatura máxima	19.3
14139	7	Sololá	712	San Antonio Palopó	9	San Antonio Palopo	10	Octubre	2023-10-20T00:00:00	2024-11-08T01:00:00	3	Temperatura mínima	18.7
14140	7	Sololá	712	San Antonio Palopó	9	San Antonio Palopo	10	Octubre	2023-10-20T00:00:00	2024-11-08T01:00:00	5	Humedad	77
14141	7	Sololá	712	San Antonio Palopó	9	San Antonio Palopo	10	Octubre	2023-10-20T00:00:00	2024-11-08T01:00:00	6	Velocidad del viento	8
14142	7	Sololá	712	San Antonio Palopó	9	San Antonio Palopo	10	Octubre	2023-10-20T00:00:00	2024-11-08T01:00:00	7	Dirección del viento	8.05
14143	7	Sololá	712	San Antonio Palopó	9	San Antonio Palopo	10	Octubre	2023-10-20T00:00:00	2024-11-08T01:00:00	1	Precipitación	0
14144	7	Sololá	712	San Antonio Palopó	9	San Antonio Palopo	10	Octubre	2023-10-20T00:00:00	2024-11-08T01:00:00	8	Radiación solar	0
14145	7	Sololá	712	San Antonio Palopó	9	San Antonio Palopo	10	Octubre	2023-10-20T00:00:00	2024-11-08T02:00:00	2	Temperatura media	18.8
14146	7	Sololá	712	San Antonio Palopó	9	San Antonio Palopo	10	Octubre	2023-10-20T00:00:00	2024-11-08T02:00:00	4	Temperatura máxima	19.2
14147	7	Sololá	712	San Antonio Palopó	9	San Antonio Palopo	10	Octubre	2023-10-20T00:00:00	2024-11-08T02:00:00	3	Temperatura mínima	18.7
14148	7	Sololá	712	San Antonio Palopó	9	San Antonio Palopo	10	Octubre	2023-10-20T00:00:00	2024-11-08T02:00:00	5	Humedad	79
14149	7	Sololá	712	San Antonio Palopó	9	San Antonio Palopo	10	Octubre	2023-10-20T00:00:00	2024-11-08T02:00:00	6	Velocidad del viento	4.8
14150	7	Sololá	712	San Antonio Palopó	9	San Antonio Palopo	10	Octubre	2023-10-20T00:00:00	2024-11-08T02:00:00	7	Dirección del viento	4.83
14151	7	Sololá	712	San Antonio Palopó	9	San Antonio Palopo	10	Octubre	2023-10-20T00:00:00	2024-11-08T02:00:00	1	Precipitación	0
14152	7	Sololá	712	San Antonio Palopó	9	San Antonio Palopo	10	Octubre	2023-10-20T00:00:00	2024-11-08T02:00:00	8	Radiación solar	0
14153	7	Sololá	712	San Antonio Palopó	9	San Antonio Palopo	10	Octubre	2023-10-20T00:00:00	2024-11-08T03:00:00	2	Temperatura media	18.7
14154	7	Sololá	712	San Antonio Palopó	9	San Antonio Palopo	10	Octubre	2023-10-20T00:00:00	2024-11-08T03:00:00	4	Temperatura máxima	19
14155	7	Sololá	712	San Antonio Palopó	9	San Antonio Palopo	10	Octubre	2023-10-20T00:00:00	2024-11-08T03:00:00	3	Temperatura mínima	18.7
14156	7	Sololá	712	San Antonio Palopó	9	San Antonio Palopo	10	Octubre	2023-10-20T00:00:00	2024-11-08T03:00:00	5	Humedad	77
14157	7	Sololá	712	San Antonio Palopó	9	San Antonio Palopo	10	Octubre	2023-10-20T00:00:00	2024-11-08T03:00:00	6	Velocidad del viento	6.4
14158	7	Sololá	712	San Antonio Palopó	9	San Antonio Palopo	10	Octubre	2023-10-20T00:00:00	2024-11-08T03:00:00	7	Dirección del viento	6.44
14159	7	Sololá	712	San Antonio Palopó	9	San Antonio Palopo	10	Octubre	2023-10-20T00:00:00	2024-11-08T03:00:00	1	Precipitación	0
14160	7	Sololá	712	San Antonio Palopó	9	San Antonio Palopo	10	Octubre	2023-10-20T00:00:00	2024-11-08T03:00:00	8	Radiación solar	0
14161	7	Sololá	712	San Antonio Palopó	9	San Antonio Palopo	10	Octubre	2023-10-20T00:00:00	2024-11-08T04:00:00	2	Temperatura media	18.6
14162	7	Sololá	712	San Antonio Palopó	9	San Antonio Palopo	10	Octubre	2023-10-20T00:00:00	2024-11-08T04:00:00	4	Temperatura máxima	18.8
14163	7	Sololá	712	San Antonio Palopó	9	San Antonio Palopo	10	Octubre	2023-10-20T00:00:00	2024-11-08T04:00:00	3	Temperatura mínima	18.6
14164	7	Sololá	712	San Antonio Palopó	9	San Antonio Palopo	10	Octubre	2023-10-20T00:00:00	2024-11-08T04:00:00	5	Humedad	76
14165	7	Sololá	712	San Antonio Palopó	9	San Antonio Palopo	10	Octubre	2023-10-20T00:00:00	2024-11-08T04:00:00	6	Velocidad del viento	8
14166	7	Sololá	712	San Antonio Palopó	9	San Antonio Palopo	10	Octubre	2023-10-20T00:00:00	2024-11-08T04:00:00	7	Dirección del viento	8.05
14167	7	Sololá	712	San Antonio Palopó	9	San Antonio Palopo	10	Octubre	2023-10-20T00:00:00	2024-11-08T04:00:00	1	Precipitación	0
14168	7	Sololá	712	San Antonio Palopó	9	San Antonio Palopo	10	Octubre	2023-10-20T00:00:00	2024-11-08T04:00:00	8	Radiación solar	0
14169	7	Sololá	712	San Antonio Palopó	9	San Antonio Palopo	10	Octubre	2023-10-20T00:00:00	2024-11-08T05:00:00	2	Temperatura media	18.3
14170	7	Sololá	712	San Antonio Palopó	9	San Antonio Palopo	10	Octubre	2023-10-20T00:00:00	2024-11-08T05:00:00	4	Temperatura máxima	18.7
14171	7	Sololá	712	San Antonio Palopó	9	San Antonio Palopo	10	Octubre	2023-10-20T00:00:00	2024-11-08T05:00:00	3	Temperatura mínima	18.3
14172	7	Sololá	712	San Antonio Palopó	9	San Antonio Palopo	10	Octubre	2023-10-20T00:00:00	2024-11-08T05:00:00	5	Humedad	76
14173	7	Sololá	712	San Antonio Palopó	9	San Antonio Palopo	10	Octubre	2023-10-20T00:00:00	2024-11-08T05:00:00	6	Velocidad del viento	11.3
14174	7	Sololá	712	San Antonio Palopó	9	San Antonio Palopo	10	Octubre	2023-10-20T00:00:00	2024-11-08T05:00:00	7	Dirección del viento	11.27
14175	7	Sololá	712	San Antonio Palopó	9	San Antonio Palopo	10	Octubre	2023-10-20T00:00:00	2024-11-08T05:00:00	1	Precipitación	0
14176	7	Sololá	712	San Antonio Palopó	9	San Antonio Palopo	10	Octubre	2023-10-20T00:00:00	2024-11-08T05:00:00	8	Radiación solar	0
14177	7	Sololá	712	San Antonio Palopó	9	San Antonio Palopo	10	Octubre	2023-10-20T00:00:00	2024-11-08T06:00:00	2	Temperatura media	18.1
14178	7	Sololá	712	San Antonio Palopó	9	San Antonio Palopo	10	Octubre	2023-10-20T00:00:00	2024-11-08T06:00:00	4	Temperatura máxima	18.7
14179	7	Sololá	712	San Antonio Palopó	9	San Antonio Palopo	10	Octubre	2023-10-20T00:00:00	2024-11-08T06:00:00	3	Temperatura mínima	18
14180	7	Sololá	712	San Antonio Palopó	9	San Antonio Palopo	10	Octubre	2023-10-20T00:00:00	2024-11-08T06:00:00	5	Humedad	79
14181	7	Sololá	712	San Antonio Palopó	9	San Antonio Palopo	10	Octubre	2023-10-20T00:00:00	2024-11-08T06:00:00	6	Velocidad del viento	6.4
14182	7	Sololá	712	San Antonio Palopó	9	San Antonio Palopo	10	Octubre	2023-10-20T00:00:00	2024-11-08T06:00:00	7	Dirección del viento	6.44
14183	7	Sololá	712	San Antonio Palopó	9	San Antonio Palopo	10	Octubre	2023-10-20T00:00:00	2024-11-08T06:00:00	1	Precipitación	0
14184	7	Sololá	712	San Antonio Palopó	9	San Antonio Palopo	10	Octubre	2023-10-20T00:00:00	2024-11-08T06:00:00	8	Radiación solar	0
14185	7	Sololá	712	San Antonio Palopó	9	San Antonio Palopo	10	Octubre	2023-10-20T00:00:00	2024-11-08T07:00:00	2	Temperatura media	18.1
14186	7	Sololá	712	San Antonio Palopó	9	San Antonio Palopo	10	Octubre	2023-10-20T00:00:00	2024-11-08T07:00:00	4	Temperatura máxima	18.2
14187	7	Sololá	712	San Antonio Palopó	9	San Antonio Palopo	10	Octubre	2023-10-20T00:00:00	2024-11-08T07:00:00	3	Temperatura mínima	17.9
14188	7	Sololá	712	San Antonio Palopó	9	San Antonio Palopo	10	Octubre	2023-10-20T00:00:00	2024-11-08T07:00:00	5	Humedad	76
14189	7	Sololá	712	San Antonio Palopó	9	San Antonio Palopo	10	Octubre	2023-10-20T00:00:00	2024-11-08T07:00:00	6	Velocidad del viento	9.7
14190	7	Sololá	712	San Antonio Palopó	9	San Antonio Palopo	10	Octubre	2023-10-20T00:00:00	2024-11-08T07:00:00	7	Dirección del viento	9.66
14191	7	Sololá	712	San Antonio Palopó	9	San Antonio Palopo	10	Octubre	2023-10-20T00:00:00	2024-11-08T07:00:00	1	Precipitación	0
14192	7	Sololá	712	San Antonio Palopó	9	San Antonio Palopo	10	Octubre	2023-10-20T00:00:00	2024-11-08T07:00:00	8	Radiación solar	23
14193	7	Sololá	712	San Antonio Palopó	9	San Antonio Palopo	10	Octubre	2023-10-20T00:00:00	2024-11-08T08:00:00	2	Temperatura media	19.6
14194	7	Sololá	712	San Antonio Palopó	9	San Antonio Palopo	10	Octubre	2023-10-20T00:00:00	2024-11-08T08:00:00	4	Temperatura máxima	19.6
14195	7	Sololá	712	San Antonio Palopó	9	San Antonio Palopo	10	Octubre	2023-10-20T00:00:00	2024-11-08T08:00:00	3	Temperatura mínima	18.1
14196	7	Sololá	712	San Antonio Palopó	9	San Antonio Palopo	10	Octubre	2023-10-20T00:00:00	2024-11-08T08:00:00	5	Humedad	74
14197	7	Sololá	712	San Antonio Palopó	9	San Antonio Palopo	10	Octubre	2023-10-20T00:00:00	2024-11-08T08:00:00	6	Velocidad del viento	12.9
14198	7	Sololá	712	San Antonio Palopó	9	San Antonio Palopo	10	Octubre	2023-10-20T00:00:00	2024-11-08T08:00:00	7	Dirección del viento	12.87
14199	7	Sololá	712	San Antonio Palopó	9	San Antonio Palopo	10	Octubre	2023-10-20T00:00:00	2024-11-08T08:00:00	1	Precipitación	0.2
14200	7	Sololá	712	San Antonio Palopó	9	San Antonio Palopo	10	Octubre	2023-10-20T00:00:00	2024-11-08T08:00:00	8	Radiación solar	113
14201	7	Sololá	712	San Antonio Palopó	9	San Antonio Palopo	10	Octubre	2023-10-20T00:00:00	2024-11-08T09:00:00	2	Temperatura media	20.7
14202	7	Sololá	712	San Antonio Palopó	9	San Antonio Palopo	10	Octubre	2023-10-20T00:00:00	2024-11-08T09:00:00	4	Temperatura máxima	20.9
14203	7	Sololá	712	San Antonio Palopó	9	San Antonio Palopo	10	Octubre	2023-10-20T00:00:00	2024-11-08T09:00:00	3	Temperatura mínima	19.6
14204	7	Sololá	712	San Antonio Palopó	9	San Antonio Palopo	10	Octubre	2023-10-20T00:00:00	2024-11-08T09:00:00	5	Humedad	73
14205	7	Sololá	712	San Antonio Palopó	9	San Antonio Palopo	10	Octubre	2023-10-20T00:00:00	2024-11-08T09:00:00	6	Velocidad del viento	8
14206	7	Sololá	712	San Antonio Palopó	9	San Antonio Palopo	10	Octubre	2023-10-20T00:00:00	2024-11-08T09:00:00	7	Dirección del viento	8.05
14207	7	Sololá	712	San Antonio Palopó	9	San Antonio Palopo	10	Octubre	2023-10-20T00:00:00	2024-11-08T09:00:00	1	Precipitación	0
14208	7	Sololá	712	San Antonio Palopó	9	San Antonio Palopo	10	Octubre	2023-10-20T00:00:00	2024-11-08T09:00:00	8	Radiación solar	423
14209	7	Sololá	712	San Antonio Palopó	9	San Antonio Palopo	10	Octubre	2023-10-20T00:00:00	2024-11-08T10:00:00	2	Temperatura media	21.2
14210	7	Sololá	712	San Antonio Palopó	9	San Antonio Palopo	10	Octubre	2023-10-20T00:00:00	2024-11-08T10:00:00	4	Temperatura máxima	21.2
14211	7	Sololá	712	San Antonio Palopó	9	San Antonio Palopo	10	Octubre	2023-10-20T00:00:00	2024-11-08T10:00:00	3	Temperatura mínima	20.7
14212	7	Sololá	712	San Antonio Palopó	9	San Antonio Palopo	10	Octubre	2023-10-20T00:00:00	2024-11-08T10:00:00	5	Humedad	73
14213	7	Sololá	712	San Antonio Palopó	9	San Antonio Palopo	10	Octubre	2023-10-20T00:00:00	2024-11-08T10:00:00	6	Velocidad del viento	4.8
14214	7	Sololá	712	San Antonio Palopó	9	San Antonio Palopo	10	Octubre	2023-10-20T00:00:00	2024-11-08T10:00:00	7	Dirección del viento	4.83
14215	7	Sololá	712	San Antonio Palopó	9	San Antonio Palopo	10	Octubre	2023-10-20T00:00:00	2024-11-08T10:00:00	1	Precipitación	0
14216	7	Sololá	712	San Antonio Palopó	9	San Antonio Palopo	10	Octubre	2023-10-20T00:00:00	2024-11-08T10:00:00	8	Radiación solar	580
14217	7	Sololá	712	San Antonio Palopó	9	San Antonio Palopo	10	Octubre	2023-10-20T00:00:00	2024-11-08T11:00:00	2	Temperatura media	21.8
14218	7	Sololá	712	San Antonio Palopó	9	San Antonio Palopo	10	Octubre	2023-10-20T00:00:00	2024-11-08T11:00:00	4	Temperatura máxima	22.1
14219	7	Sololá	712	San Antonio Palopó	9	San Antonio Palopo	10	Octubre	2023-10-20T00:00:00	2024-11-08T11:00:00	3	Temperatura mínima	21.2
14220	7	Sololá	712	San Antonio Palopó	9	San Antonio Palopo	10	Octubre	2023-10-20T00:00:00	2024-11-08T11:00:00	5	Humedad	72
14221	7	Sololá	712	San Antonio Palopó	9	San Antonio Palopo	10	Octubre	2023-10-20T00:00:00	2024-11-08T11:00:00	6	Velocidad del viento	3.2
14222	7	Sololá	712	San Antonio Palopó	9	San Antonio Palopo	10	Octubre	2023-10-20T00:00:00	2024-11-08T11:00:00	7	Dirección del viento	3.22
14223	7	Sololá	712	San Antonio Palopó	9	San Antonio Palopo	10	Octubre	2023-10-20T00:00:00	2024-11-08T11:00:00	1	Precipitación	0
14224	7	Sololá	712	San Antonio Palopó	9	San Antonio Palopo	10	Octubre	2023-10-20T00:00:00	2024-11-08T11:00:00	8	Radiación solar	703
14225	7	Sololá	712	San Antonio Palopó	9	San Antonio Palopo	10	Octubre	2023-10-20T00:00:00	2024-11-08T12:00:00	2	Temperatura media	23.3
14226	7	Sololá	712	San Antonio Palopó	9	San Antonio Palopo	10	Octubre	2023-10-20T00:00:00	2024-11-08T12:00:00	4	Temperatura máxima	23.4
14227	7	Sololá	712	San Antonio Palopó	9	San Antonio Palopo	10	Octubre	2023-10-20T00:00:00	2024-11-08T12:00:00	3	Temperatura mínima	21.8
14228	7	Sololá	712	San Antonio Palopó	9	San Antonio Palopo	10	Octubre	2023-10-20T00:00:00	2024-11-08T12:00:00	5	Humedad	71
14229	7	Sololá	712	San Antonio Palopó	9	San Antonio Palopo	10	Octubre	2023-10-20T00:00:00	2024-11-08T12:00:00	6	Velocidad del viento	8
14230	7	Sololá	712	San Antonio Palopó	9	San Antonio Palopo	10	Octubre	2023-10-20T00:00:00	2024-11-08T12:00:00	7	Dirección del viento	8.05
14231	7	Sololá	712	San Antonio Palopó	9	San Antonio Palopo	10	Octubre	2023-10-20T00:00:00	2024-11-08T12:00:00	1	Precipitación	0
14232	7	Sololá	712	San Antonio Palopó	9	San Antonio Palopo	10	Octubre	2023-10-20T00:00:00	2024-11-08T12:00:00	8	Radiación solar	704
14233	7	Sololá	712	San Antonio Palopó	9	San Antonio Palopo	10	Octubre	2023-10-20T00:00:00	2024-11-08T13:00:00	2	Temperatura media	22.6
14234	7	Sololá	712	San Antonio Palopó	9	San Antonio Palopo	10	Octubre	2023-10-20T00:00:00	2024-11-08T13:00:00	4	Temperatura máxima	23.4
14235	7	Sololá	712	San Antonio Palopó	9	San Antonio Palopo	10	Octubre	2023-10-20T00:00:00	2024-11-08T13:00:00	3	Temperatura mínima	22.2
14236	7	Sololá	712	San Antonio Palopó	9	San Antonio Palopo	10	Octubre	2023-10-20T00:00:00	2024-11-08T13:00:00	5	Humedad	75
14237	7	Sololá	712	San Antonio Palopó	9	San Antonio Palopo	10	Octubre	2023-10-20T00:00:00	2024-11-08T13:00:00	6	Velocidad del viento	8
14238	7	Sololá	712	San Antonio Palopó	9	San Antonio Palopo	10	Octubre	2023-10-20T00:00:00	2024-11-08T13:00:00	7	Dirección del viento	8.05
14239	7	Sololá	712	San Antonio Palopó	9	San Antonio Palopo	10	Octubre	2023-10-20T00:00:00	2024-11-08T13:00:00	1	Precipitación	0
14240	7	Sololá	712	San Antonio Palopó	9	San Antonio Palopo	10	Octubre	2023-10-20T00:00:00	2024-11-08T13:00:00	8	Radiación solar	440
14241	7	Sololá	712	San Antonio Palopó	9	San Antonio Palopo	10	Octubre	2023-10-20T00:00:00	2024-11-08T14:00:00	2	Temperatura media	22.4
14242	7	Sololá	712	San Antonio Palopó	9	San Antonio Palopo	10	Octubre	2023-10-20T00:00:00	2024-11-08T14:00:00	4	Temperatura máxima	22.6
14243	7	Sololá	712	San Antonio Palopó	9	San Antonio Palopo	10	Octubre	2023-10-20T00:00:00	2024-11-08T14:00:00	3	Temperatura mínima	21.9
14244	7	Sololá	712	San Antonio Palopó	9	San Antonio Palopo	10	Octubre	2023-10-20T00:00:00	2024-11-08T14:00:00	5	Humedad	75
14245	7	Sololá	712	San Antonio Palopó	9	San Antonio Palopo	10	Octubre	2023-10-20T00:00:00	2024-11-08T14:00:00	6	Velocidad del viento	4.8
14246	7	Sololá	712	San Antonio Palopó	9	San Antonio Palopo	10	Octubre	2023-10-20T00:00:00	2024-11-08T14:00:00	7	Dirección del viento	4.83
14247	7	Sololá	712	San Antonio Palopó	9	San Antonio Palopo	10	Octubre	2023-10-20T00:00:00	2024-11-08T14:00:00	1	Precipitación	0
14248	7	Sololá	712	San Antonio Palopó	9	San Antonio Palopo	10	Octubre	2023-10-20T00:00:00	2024-11-08T14:00:00	8	Radiación solar	168
14249	7	Sololá	712	San Antonio Palopó	9	San Antonio Palopo	10	Octubre	2023-10-20T00:00:00	2024-11-08T15:00:00	2	Temperatura media	22.1
14250	7	Sololá	712	San Antonio Palopó	9	San Antonio Palopo	10	Octubre	2023-10-20T00:00:00	2024-11-08T15:00:00	4	Temperatura máxima	22.9
14251	7	Sololá	712	San Antonio Palopó	9	San Antonio Palopo	10	Octubre	2023-10-20T00:00:00	2024-11-08T15:00:00	3	Temperatura mínima	22.1
14252	7	Sololá	712	San Antonio Palopó	9	San Antonio Palopo	10	Octubre	2023-10-20T00:00:00	2024-11-08T15:00:00	5	Humedad	77
14253	7	Sololá	712	San Antonio Palopó	9	San Antonio Palopo	10	Octubre	2023-10-20T00:00:00	2024-11-08T15:00:00	6	Velocidad del viento	6.4
14254	7	Sololá	712	San Antonio Palopó	9	San Antonio Palopo	10	Octubre	2023-10-20T00:00:00	2024-11-08T15:00:00	7	Dirección del viento	6.44
14255	7	Sololá	712	San Antonio Palopó	9	San Antonio Palopo	10	Octubre	2023-10-20T00:00:00	2024-11-08T15:00:00	1	Precipitación	0
14256	7	Sololá	712	San Antonio Palopó	9	San Antonio Palopo	10	Octubre	2023-10-20T00:00:00	2024-11-08T15:00:00	8	Radiación solar	248
14257	7	Sololá	712	San Antonio Palopó	9	San Antonio Palopo	10	Octubre	2023-10-20T00:00:00	2024-11-08T16:00:00	2	Temperatura media	21.8
14258	7	Sololá	712	San Antonio Palopó	9	San Antonio Palopo	10	Octubre	2023-10-20T00:00:00	2024-11-08T16:00:00	4	Temperatura máxima	22.1
14259	7	Sololá	712	San Antonio Palopó	9	San Antonio Palopo	10	Octubre	2023-10-20T00:00:00	2024-11-08T16:00:00	3	Temperatura mínima	21.7
14260	7	Sololá	712	San Antonio Palopó	9	San Antonio Palopo	10	Octubre	2023-10-20T00:00:00	2024-11-08T16:00:00	5	Humedad	79
14261	7	Sololá	712	San Antonio Palopó	9	San Antonio Palopo	10	Octubre	2023-10-20T00:00:00	2024-11-08T16:00:00	6	Velocidad del viento	3.2
14262	7	Sololá	712	San Antonio Palopó	9	San Antonio Palopo	10	Octubre	2023-10-20T00:00:00	2024-11-08T16:00:00	7	Dirección del viento	3.22
14263	7	Sololá	712	San Antonio Palopó	9	San Antonio Palopo	10	Octubre	2023-10-20T00:00:00	2024-11-08T16:00:00	1	Precipitación	0
14264	7	Sololá	712	San Antonio Palopó	9	San Antonio Palopo	10	Octubre	2023-10-20T00:00:00	2024-11-08T16:00:00	8	Radiación solar	98
14265	7	Sololá	712	San Antonio Palopó	9	San Antonio Palopo	10	Octubre	2023-10-20T00:00:00	2024-11-08T17:00:00	2	Temperatura media	22.9
14266	7	Sololá	712	San Antonio Palopó	9	San Antonio Palopo	10	Octubre	2023-10-20T00:00:00	2024-11-08T17:00:00	4	Temperatura máxima	23.2
14267	7	Sololá	712	San Antonio Palopó	9	San Antonio Palopo	10	Octubre	2023-10-20T00:00:00	2024-11-08T17:00:00	3	Temperatura mínima	21.8
14268	7	Sololá	712	San Antonio Palopó	9	San Antonio Palopo	10	Octubre	2023-10-20T00:00:00	2024-11-08T17:00:00	5	Humedad	76
14269	7	Sololá	712	San Antonio Palopó	9	San Antonio Palopo	10	Octubre	2023-10-20T00:00:00	2024-11-08T17:00:00	6	Velocidad del viento	3.2
14270	7	Sololá	712	San Antonio Palopó	9	San Antonio Palopo	10	Octubre	2023-10-20T00:00:00	2024-11-08T17:00:00	7	Dirección del viento	3.22
14271	7	Sololá	712	San Antonio Palopó	9	San Antonio Palopo	10	Octubre	2023-10-20T00:00:00	2024-11-08T17:00:00	1	Precipitación	0
14272	7	Sololá	712	San Antonio Palopó	9	San Antonio Palopo	10	Octubre	2023-10-20T00:00:00	2024-11-08T17:00:00	8	Radiación solar	149
14273	7	Sololá	712	San Antonio Palopó	9	San Antonio Palopo	10	Octubre	2023-10-20T00:00:00	2024-11-08T18:00:00	2	Temperatura media	20.5
14274	7	Sololá	712	San Antonio Palopó	9	San Antonio Palopo	10	Octubre	2023-10-20T00:00:00	2024-11-08T18:00:00	4	Temperatura máxima	23.1
14275	7	Sololá	712	San Antonio Palopó	9	San Antonio Palopo	10	Octubre	2023-10-20T00:00:00	2024-11-08T18:00:00	3	Temperatura mínima	20.5
14276	7	Sololá	712	San Antonio Palopó	9	San Antonio Palopo	10	Octubre	2023-10-20T00:00:00	2024-11-08T18:00:00	5	Humedad	84
14277	7	Sololá	712	San Antonio Palopó	9	San Antonio Palopo	10	Octubre	2023-10-20T00:00:00	2024-11-08T18:00:00	6	Velocidad del viento	3.2
14278	7	Sololá	712	San Antonio Palopó	9	San Antonio Palopo	10	Octubre	2023-10-20T00:00:00	2024-11-08T18:00:00	7	Dirección del viento	3.22
14279	7	Sololá	712	San Antonio Palopó	9	San Antonio Palopo	10	Octubre	2023-10-20T00:00:00	2024-11-08T18:00:00	1	Precipitación	0
14280	7	Sololá	712	San Antonio Palopó	9	San Antonio Palopo	10	Octubre	2023-10-20T00:00:00	2024-11-08T18:00:00	8	Radiación solar	21
14281	7	Sololá	712	San Antonio Palopó	9	San Antonio Palopo	10	Octubre	2023-10-20T00:00:00	2024-11-08T19:00:00	2	Temperatura media	19.7
14282	7	Sololá	712	San Antonio Palopó	9	San Antonio Palopo	10	Octubre	2023-10-20T00:00:00	2024-11-08T19:00:00	4	Temperatura máxima	20.5
14283	7	Sololá	712	San Antonio Palopó	9	San Antonio Palopo	10	Octubre	2023-10-20T00:00:00	2024-11-08T19:00:00	3	Temperatura mínima	19.7
14284	7	Sololá	712	San Antonio Palopó	9	San Antonio Palopo	10	Octubre	2023-10-20T00:00:00	2024-11-08T19:00:00	5	Humedad	83
14285	7	Sololá	712	San Antonio Palopó	9	San Antonio Palopo	10	Octubre	2023-10-20T00:00:00	2024-11-08T19:00:00	6	Velocidad del viento	3.2
14286	7	Sololá	712	San Antonio Palopó	9	San Antonio Palopo	10	Octubre	2023-10-20T00:00:00	2024-11-08T19:00:00	7	Dirección del viento	3.22
14287	7	Sololá	712	San Antonio Palopó	9	San Antonio Palopo	10	Octubre	2023-10-20T00:00:00	2024-11-08T19:00:00	1	Precipitación	0
14288	7	Sololá	712	San Antonio Palopó	9	San Antonio Palopo	10	Octubre	2023-10-20T00:00:00	2024-11-08T19:00:00	8	Radiación solar	0
14289	7	Sololá	712	San Antonio Palopó	9	San Antonio Palopo	10	Octubre	2023-10-20T00:00:00	2024-11-08T20:00:00	2	Temperatura media	20.2
14290	7	Sololá	712	San Antonio Palopó	9	San Antonio Palopo	10	Octubre	2023-10-20T00:00:00	2024-11-08T20:00:00	4	Temperatura máxima	20.3
14291	7	Sololá	712	San Antonio Palopó	9	San Antonio Palopo	10	Octubre	2023-10-20T00:00:00	2024-11-08T20:00:00	3	Temperatura mínima	19.6
14292	7	Sololá	712	San Antonio Palopó	9	San Antonio Palopo	10	Octubre	2023-10-20T00:00:00	2024-11-08T20:00:00	5	Humedad	75
14293	7	Sololá	712	San Antonio Palopó	9	San Antonio Palopo	10	Octubre	2023-10-20T00:00:00	2024-11-08T20:00:00	6	Velocidad del viento	8
14294	7	Sololá	712	San Antonio Palopó	9	San Antonio Palopo	10	Octubre	2023-10-20T00:00:00	2024-11-08T20:00:00	7	Dirección del viento	8.05
14295	7	Sololá	712	San Antonio Palopó	9	San Antonio Palopo	10	Octubre	2023-10-20T00:00:00	2024-11-08T20:00:00	1	Precipitación	0
14296	7	Sololá	712	San Antonio Palopó	9	San Antonio Palopo	10	Octubre	2023-10-20T00:00:00	2024-11-08T20:00:00	8	Radiación solar	0
14297	7	Sololá	712	San Antonio Palopó	9	San Antonio Palopo	10	Octubre	2023-10-20T00:00:00	2024-11-08T21:00:00	2	Temperatura media	19.9
14298	7	Sololá	712	San Antonio Palopó	9	San Antonio Palopo	10	Octubre	2023-10-20T00:00:00	2024-11-08T21:00:00	4	Temperatura máxima	20.2
14299	7	Sololá	712	San Antonio Palopó	9	San Antonio Palopo	10	Octubre	2023-10-20T00:00:00	2024-11-08T21:00:00	3	Temperatura mínima	19.7
14300	7	Sololá	712	San Antonio Palopó	9	San Antonio Palopo	10	Octubre	2023-10-20T00:00:00	2024-11-08T21:00:00	5	Humedad	75
14301	7	Sololá	712	San Antonio Palopó	9	San Antonio Palopo	10	Octubre	2023-10-20T00:00:00	2024-11-08T21:00:00	6	Velocidad del viento	9.7
14302	7	Sololá	712	San Antonio Palopó	9	San Antonio Palopo	10	Octubre	2023-10-20T00:00:00	2024-11-08T21:00:00	7	Dirección del viento	9.66
14303	7	Sololá	712	San Antonio Palopó	9	San Antonio Palopo	10	Octubre	2023-10-20T00:00:00	2024-11-08T21:00:00	1	Precipitación	0
14304	7	Sololá	712	San Antonio Palopó	9	San Antonio Palopo	10	Octubre	2023-10-20T00:00:00	2024-11-08T21:00:00	8	Radiación solar	0
14305	7	Sololá	712	San Antonio Palopó	9	San Antonio Palopo	10	Octubre	2023-10-20T00:00:00	2024-11-08T22:00:00	2	Temperatura media	19.7
14306	7	Sololá	712	San Antonio Palopó	9	San Antonio Palopo	10	Octubre	2023-10-20T00:00:00	2024-11-08T22:00:00	4	Temperatura máxima	20.1
14307	7	Sololá	712	San Antonio Palopó	9	San Antonio Palopo	10	Octubre	2023-10-20T00:00:00	2024-11-08T22:00:00	3	Temperatura mínima	19.7
14308	7	Sololá	712	San Antonio Palopó	9	San Antonio Palopo	10	Octubre	2023-10-20T00:00:00	2024-11-08T22:00:00	5	Humedad	75
14309	7	Sololá	712	San Antonio Palopó	9	San Antonio Palopo	10	Octubre	2023-10-20T00:00:00	2024-11-08T22:00:00	6	Velocidad del viento	8
14310	7	Sololá	712	San Antonio Palopó	9	San Antonio Palopo	10	Octubre	2023-10-20T00:00:00	2024-11-08T22:00:00	7	Dirección del viento	8.05
14311	7	Sololá	712	San Antonio Palopó	9	San Antonio Palopo	10	Octubre	2023-10-20T00:00:00	2024-11-08T22:00:00	1	Precipitación	0
14312	7	Sololá	712	San Antonio Palopó	9	San Antonio Palopo	10	Octubre	2023-10-20T00:00:00	2024-11-08T22:00:00	8	Radiación solar	0
14313	7	Sololá	712	San Antonio Palopó	9	San Antonio Palopo	10	Octubre	2023-10-20T00:00:00	2024-11-08T23:00:00	2	Temperatura media	19.8
14314	7	Sololá	712	San Antonio Palopó	9	San Antonio Palopo	10	Octubre	2023-10-20T00:00:00	2024-11-08T23:00:00	4	Temperatura máxima	19.8
14315	7	Sololá	712	San Antonio Palopó	9	San Antonio Palopo	10	Octubre	2023-10-20T00:00:00	2024-11-08T23:00:00	3	Temperatura mínima	19.7
14316	7	Sololá	712	San Antonio Palopó	9	San Antonio Palopo	10	Octubre	2023-10-20T00:00:00	2024-11-08T23:00:00	5	Humedad	73
14317	7	Sololá	712	San Antonio Palopó	9	San Antonio Palopo	10	Octubre	2023-10-20T00:00:00	2024-11-08T23:00:00	6	Velocidad del viento	11.3
14318	7	Sololá	712	San Antonio Palopó	9	San Antonio Palopo	10	Octubre	2023-10-20T00:00:00	2024-11-08T23:00:00	7	Dirección del viento	11.27
14319	7	Sololá	712	San Antonio Palopó	9	San Antonio Palopo	10	Octubre	2023-10-20T00:00:00	2024-11-08T23:00:00	1	Precipitación	0
14320	7	Sololá	712	San Antonio Palopó	9	San Antonio Palopo	10	Octubre	2023-10-20T00:00:00	2024-11-08T23:00:00	8	Radiación solar	0
14321	7	Sololá	712	San Antonio Palopó	9	San Antonio Palopo	10	Octubre	2023-10-21T00:00:00	2024-11-08T00:00:00	2	Temperatura media	19.3
14322	7	Sololá	712	San Antonio Palopó	9	San Antonio Palopo	10	Octubre	2023-10-21T00:00:00	2024-11-08T00:00:00	4	Temperatura máxima	19.8
14323	7	Sololá	712	San Antonio Palopó	9	San Antonio Palopo	10	Octubre	2023-10-21T00:00:00	2024-11-08T00:00:00	3	Temperatura mínima	19.2
14324	7	Sololá	712	San Antonio Palopó	9	San Antonio Palopo	10	Octubre	2023-10-21T00:00:00	2024-11-08T00:00:00	5	Humedad	73
14325	7	Sololá	712	San Antonio Palopó	9	San Antonio Palopo	10	Octubre	2023-10-21T00:00:00	2024-11-08T00:00:00	6	Velocidad del viento	11.3
14326	7	Sololá	712	San Antonio Palopó	9	San Antonio Palopo	10	Octubre	2023-10-21T00:00:00	2024-11-08T00:00:00	7	Dirección del viento	11.27
14327	7	Sololá	712	San Antonio Palopó	9	San Antonio Palopo	10	Octubre	2023-10-21T00:00:00	2024-11-08T00:00:00	1	Precipitación	0
14328	7	Sololá	712	San Antonio Palopó	9	San Antonio Palopo	10	Octubre	2023-10-21T00:00:00	2024-11-08T00:00:00	8	Radiación solar	0
14329	7	Sololá	712	San Antonio Palopó	9	San Antonio Palopo	10	Octubre	2023-10-21T00:00:00	2024-11-08T01:00:00	2	Temperatura media	18.9
14330	7	Sololá	712	San Antonio Palopó	9	San Antonio Palopo	10	Octubre	2023-10-21T00:00:00	2024-11-08T01:00:00	4	Temperatura máxima	19.4
14331	7	Sololá	712	San Antonio Palopó	9	San Antonio Palopo	10	Octubre	2023-10-21T00:00:00	2024-11-08T01:00:00	3	Temperatura mínima	18.9
14332	7	Sololá	712	San Antonio Palopó	9	San Antonio Palopo	10	Octubre	2023-10-21T00:00:00	2024-11-08T01:00:00	5	Humedad	74
14333	7	Sololá	712	San Antonio Palopó	9	San Antonio Palopo	10	Octubre	2023-10-21T00:00:00	2024-11-08T01:00:00	6	Velocidad del viento	8
14334	7	Sololá	712	San Antonio Palopó	9	San Antonio Palopo	10	Octubre	2023-10-21T00:00:00	2024-11-08T01:00:00	7	Dirección del viento	8.05
14335	7	Sololá	712	San Antonio Palopó	9	San Antonio Palopo	10	Octubre	2023-10-21T00:00:00	2024-11-08T01:00:00	1	Precipitación	0
14336	7	Sololá	712	San Antonio Palopó	9	San Antonio Palopo	10	Octubre	2023-10-21T00:00:00	2024-11-08T01:00:00	8	Radiación solar	0
14337	7	Sololá	712	San Antonio Palopó	9	San Antonio Palopo	10	Octubre	2023-10-21T00:00:00	2024-11-08T02:00:00	2	Temperatura media	18.3
14338	7	Sololá	712	San Antonio Palopó	9	San Antonio Palopo	10	Octubre	2023-10-21T00:00:00	2024-11-08T02:00:00	4	Temperatura máxima	18.9
14339	7	Sololá	712	San Antonio Palopó	9	San Antonio Palopo	10	Octubre	2023-10-21T00:00:00	2024-11-08T02:00:00	3	Temperatura mínima	18.3
14340	7	Sololá	712	San Antonio Palopó	9	San Antonio Palopo	10	Octubre	2023-10-21T00:00:00	2024-11-08T02:00:00	5	Humedad	74
14341	7	Sololá	712	San Antonio Palopó	9	San Antonio Palopo	10	Octubre	2023-10-21T00:00:00	2024-11-08T02:00:00	6	Velocidad del viento	6.4
14342	7	Sololá	712	San Antonio Palopó	9	San Antonio Palopo	10	Octubre	2023-10-21T00:00:00	2024-11-08T02:00:00	7	Dirección del viento	6.44
14343	7	Sololá	712	San Antonio Palopó	9	San Antonio Palopo	10	Octubre	2023-10-21T00:00:00	2024-11-08T02:00:00	1	Precipitación	0
14344	7	Sololá	712	San Antonio Palopó	9	San Antonio Palopo	10	Octubre	2023-10-21T00:00:00	2024-11-08T02:00:00	8	Radiación solar	0
14345	7	Sololá	712	San Antonio Palopó	9	San Antonio Palopo	10	Octubre	2023-10-21T00:00:00	2024-11-08T03:00:00	2	Temperatura media	18.1
14346	7	Sololá	712	San Antonio Palopó	9	San Antonio Palopo	10	Octubre	2023-10-21T00:00:00	2024-11-08T03:00:00	4	Temperatura máxima	18.3
14347	7	Sololá	712	San Antonio Palopó	9	San Antonio Palopo	10	Octubre	2023-10-21T00:00:00	2024-11-08T03:00:00	3	Temperatura mínima	18
14348	7	Sololá	712	San Antonio Palopó	9	San Antonio Palopo	10	Octubre	2023-10-21T00:00:00	2024-11-08T03:00:00	5	Humedad	75
14349	7	Sololá	712	San Antonio Palopó	9	San Antonio Palopo	10	Octubre	2023-10-21T00:00:00	2024-11-08T03:00:00	6	Velocidad del viento	6.4
14350	7	Sololá	712	San Antonio Palopó	9	San Antonio Palopo	10	Octubre	2023-10-21T00:00:00	2024-11-08T03:00:00	7	Dirección del viento	6.44
14351	7	Sololá	712	San Antonio Palopó	9	San Antonio Palopo	10	Octubre	2023-10-21T00:00:00	2024-11-08T03:00:00	1	Precipitación	0
14352	7	Sololá	712	San Antonio Palopó	9	San Antonio Palopo	10	Octubre	2023-10-21T00:00:00	2024-11-08T03:00:00	8	Radiación solar	0
14353	7	Sololá	712	San Antonio Palopó	9	San Antonio Palopo	10	Octubre	2023-10-21T00:00:00	2024-11-08T04:00:00	2	Temperatura media	17.1
14354	7	Sololá	712	San Antonio Palopó	9	San Antonio Palopo	10	Octubre	2023-10-21T00:00:00	2024-11-08T04:00:00	4	Temperatura máxima	18.1
14355	7	Sololá	712	San Antonio Palopó	9	San Antonio Palopo	10	Octubre	2023-10-21T00:00:00	2024-11-08T04:00:00	3	Temperatura mínima	17.1
14356	7	Sololá	712	San Antonio Palopó	9	San Antonio Palopo	10	Octubre	2023-10-21T00:00:00	2024-11-08T04:00:00	5	Humedad	78
14357	7	Sololá	712	San Antonio Palopó	9	San Antonio Palopo	10	Octubre	2023-10-21T00:00:00	2024-11-08T04:00:00	6	Velocidad del viento	8
14358	7	Sololá	712	San Antonio Palopó	9	San Antonio Palopo	10	Octubre	2023-10-21T00:00:00	2024-11-08T04:00:00	7	Dirección del viento	8.05
14359	7	Sololá	712	San Antonio Palopó	9	San Antonio Palopo	10	Octubre	2023-10-21T00:00:00	2024-11-08T04:00:00	1	Precipitación	0
14360	7	Sololá	712	San Antonio Palopó	9	San Antonio Palopo	10	Octubre	2023-10-21T00:00:00	2024-11-08T04:00:00	8	Radiación solar	0
14361	7	Sololá	712	San Antonio Palopó	9	San Antonio Palopo	10	Octubre	2023-10-21T00:00:00	2024-11-08T05:00:00	2	Temperatura media	16.8
14362	7	Sololá	712	San Antonio Palopó	9	San Antonio Palopo	10	Octubre	2023-10-21T00:00:00	2024-11-08T05:00:00	4	Temperatura máxima	17.1
14363	7	Sololá	712	San Antonio Palopó	9	San Antonio Palopo	10	Octubre	2023-10-21T00:00:00	2024-11-08T05:00:00	3	Temperatura mínima	16.6
14364	7	Sololá	712	San Antonio Palopó	9	San Antonio Palopo	10	Octubre	2023-10-21T00:00:00	2024-11-08T05:00:00	5	Humedad	79
14365	7	Sololá	712	San Antonio Palopó	9	San Antonio Palopo	10	Octubre	2023-10-21T00:00:00	2024-11-08T05:00:00	6	Velocidad del viento	16.1
14366	7	Sololá	712	San Antonio Palopó	9	San Antonio Palopo	10	Octubre	2023-10-21T00:00:00	2024-11-08T05:00:00	7	Dirección del viento	16.09
14367	7	Sololá	712	San Antonio Palopó	9	San Antonio Palopo	10	Octubre	2023-10-21T00:00:00	2024-11-08T05:00:00	1	Precipitación	0
14368	7	Sololá	712	San Antonio Palopó	9	San Antonio Palopo	10	Octubre	2023-10-21T00:00:00	2024-11-08T05:00:00	8	Radiación solar	0
14369	7	Sololá	712	San Antonio Palopó	9	San Antonio Palopo	10	Octubre	2023-10-21T00:00:00	2024-11-08T06:00:00	2	Temperatura media	17.4
14370	7	Sololá	712	San Antonio Palopó	9	San Antonio Palopo	10	Octubre	2023-10-21T00:00:00	2024-11-08T06:00:00	4	Temperatura máxima	17.4
14371	7	Sololá	712	San Antonio Palopó	9	San Antonio Palopo	10	Octubre	2023-10-21T00:00:00	2024-11-08T06:00:00	3	Temperatura mínima	16.8
14372	7	Sololá	712	San Antonio Palopó	9	San Antonio Palopo	10	Octubre	2023-10-21T00:00:00	2024-11-08T06:00:00	5	Humedad	76
14373	7	Sololá	712	San Antonio Palopó	9	San Antonio Palopo	10	Octubre	2023-10-21T00:00:00	2024-11-08T06:00:00	6	Velocidad del viento	14.5
14374	7	Sololá	712	San Antonio Palopó	9	San Antonio Palopo	10	Octubre	2023-10-21T00:00:00	2024-11-08T06:00:00	7	Dirección del viento	14.48
14375	7	Sololá	712	San Antonio Palopó	9	San Antonio Palopo	10	Octubre	2023-10-21T00:00:00	2024-11-08T06:00:00	1	Precipitación	0
14376	7	Sololá	712	San Antonio Palopó	9	San Antonio Palopo	10	Octubre	2023-10-21T00:00:00	2024-11-08T06:00:00	8	Radiación solar	0
14377	7	Sololá	712	San Antonio Palopó	9	San Antonio Palopo	10	Octubre	2023-10-21T00:00:00	2024-11-08T07:00:00	2	Temperatura media	17.9
14378	7	Sololá	712	San Antonio Palopó	9	San Antonio Palopo	10	Octubre	2023-10-21T00:00:00	2024-11-08T07:00:00	4	Temperatura máxima	17.9
14379	7	Sololá	712	San Antonio Palopó	9	San Antonio Palopo	10	Octubre	2023-10-21T00:00:00	2024-11-08T07:00:00	3	Temperatura mínima	17.4
14380	7	Sololá	712	San Antonio Palopó	9	San Antonio Palopo	10	Octubre	2023-10-21T00:00:00	2024-11-08T07:00:00	5	Humedad	74
14381	7	Sololá	712	San Antonio Palopó	9	San Antonio Palopo	10	Octubre	2023-10-21T00:00:00	2024-11-08T07:00:00	6	Velocidad del viento	9.7
14382	7	Sololá	712	San Antonio Palopó	9	San Antonio Palopo	10	Octubre	2023-10-21T00:00:00	2024-11-08T07:00:00	7	Dirección del viento	9.66
14383	7	Sololá	712	San Antonio Palopó	9	San Antonio Palopo	10	Octubre	2023-10-21T00:00:00	2024-11-08T07:00:00	1	Precipitación	0
14384	7	Sololá	712	San Antonio Palopó	9	San Antonio Palopo	10	Octubre	2023-10-21T00:00:00	2024-11-08T07:00:00	8	Radiación solar	19
14385	7	Sololá	712	San Antonio Palopó	9	San Antonio Palopo	10	Octubre	2023-10-21T00:00:00	2024-11-08T08:00:00	2	Temperatura media	18.9
14386	7	Sololá	712	San Antonio Palopó	9	San Antonio Palopo	10	Octubre	2023-10-21T00:00:00	2024-11-08T08:00:00	4	Temperatura máxima	19
14387	7	Sololá	712	San Antonio Palopó	9	San Antonio Palopo	10	Octubre	2023-10-21T00:00:00	2024-11-08T08:00:00	3	Temperatura mínima	17.9
14388	7	Sololá	712	San Antonio Palopó	9	San Antonio Palopo	10	Octubre	2023-10-21T00:00:00	2024-11-08T08:00:00	5	Humedad	72
14389	7	Sololá	712	San Antonio Palopó	9	San Antonio Palopo	10	Octubre	2023-10-21T00:00:00	2024-11-08T08:00:00	6	Velocidad del viento	12.9
14390	7	Sololá	712	San Antonio Palopó	9	San Antonio Palopo	10	Octubre	2023-10-21T00:00:00	2024-11-08T08:00:00	7	Dirección del viento	12.87
14391	7	Sololá	712	San Antonio Palopó	9	San Antonio Palopo	10	Octubre	2023-10-21T00:00:00	2024-11-08T08:00:00	1	Precipitación	0
14392	7	Sololá	712	San Antonio Palopó	9	San Antonio Palopo	10	Octubre	2023-10-21T00:00:00	2024-11-08T08:00:00	8	Radiación solar	99
14393	7	Sololá	712	San Antonio Palopó	9	San Antonio Palopo	10	Octubre	2023-10-21T00:00:00	2024-11-08T09:00:00	2	Temperatura media	20.2
14394	7	Sololá	712	San Antonio Palopó	9	San Antonio Palopo	10	Octubre	2023-10-21T00:00:00	2024-11-08T09:00:00	4	Temperatura máxima	20.2
14395	7	Sololá	712	San Antonio Palopó	9	San Antonio Palopo	10	Octubre	2023-10-21T00:00:00	2024-11-08T09:00:00	3	Temperatura mínima	19
14396	7	Sololá	712	San Antonio Palopó	9	San Antonio Palopo	10	Octubre	2023-10-21T00:00:00	2024-11-08T09:00:00	5	Humedad	69
14397	7	Sololá	712	San Antonio Palopó	9	San Antonio Palopo	10	Octubre	2023-10-21T00:00:00	2024-11-08T09:00:00	6	Velocidad del viento	11.3
14398	7	Sololá	712	San Antonio Palopó	9	San Antonio Palopo	10	Octubre	2023-10-21T00:00:00	2024-11-08T09:00:00	7	Dirección del viento	11.27
14399	7	Sololá	712	San Antonio Palopó	9	San Antonio Palopo	10	Octubre	2023-10-21T00:00:00	2024-11-08T09:00:00	1	Precipitación	0
14400	7	Sololá	712	San Antonio Palopó	9	San Antonio Palopo	10	Octubre	2023-10-21T00:00:00	2024-11-08T09:00:00	8	Radiación solar	188
14401	7	Sololá	712	San Antonio Palopó	9	San Antonio Palopo	10	Octubre	2023-10-21T00:00:00	2024-11-08T10:00:00	2	Temperatura media	21.1
14402	7	Sololá	712	San Antonio Palopó	9	San Antonio Palopo	10	Octubre	2023-10-21T00:00:00	2024-11-08T10:00:00	4	Temperatura máxima	21.3
14403	7	Sololá	712	San Antonio Palopó	9	San Antonio Palopo	10	Octubre	2023-10-21T00:00:00	2024-11-08T10:00:00	3	Temperatura mínima	20.2
14404	7	Sololá	712	San Antonio Palopó	9	San Antonio Palopo	10	Octubre	2023-10-21T00:00:00	2024-11-08T10:00:00	5	Humedad	69
14405	7	Sololá	712	San Antonio Palopó	9	San Antonio Palopo	10	Octubre	2023-10-21T00:00:00	2024-11-08T10:00:00	6	Velocidad del viento	3.2
14406	7	Sololá	712	San Antonio Palopó	9	San Antonio Palopo	10	Octubre	2023-10-21T00:00:00	2024-11-08T10:00:00	7	Dirección del viento	3.22
14407	7	Sololá	712	San Antonio Palopó	9	San Antonio Palopo	10	Octubre	2023-10-21T00:00:00	2024-11-08T10:00:00	1	Precipitación	0
14408	7	Sololá	712	San Antonio Palopó	9	San Antonio Palopo	10	Octubre	2023-10-21T00:00:00	2024-11-08T10:00:00	8	Radiación solar	345
14409	7	Sololá	712	San Antonio Palopó	9	San Antonio Palopo	10	Octubre	2023-10-21T00:00:00	2024-11-08T11:00:00	2	Temperatura media	21.6
14410	7	Sololá	712	San Antonio Palopó	9	San Antonio Palopo	10	Octubre	2023-10-21T00:00:00	2024-11-08T11:00:00	4	Temperatura máxima	21.8
14411	7	Sololá	712	San Antonio Palopó	9	San Antonio Palopo	10	Octubre	2023-10-21T00:00:00	2024-11-08T11:00:00	3	Temperatura mínima	21.1
14412	7	Sololá	712	San Antonio Palopó	9	San Antonio Palopo	10	Octubre	2023-10-21T00:00:00	2024-11-08T11:00:00	5	Humedad	69
14413	7	Sololá	712	San Antonio Palopó	9	San Antonio Palopo	10	Octubre	2023-10-21T00:00:00	2024-11-08T11:00:00	6	Velocidad del viento	3.2
14414	7	Sololá	712	San Antonio Palopó	9	San Antonio Palopo	10	Octubre	2023-10-21T00:00:00	2024-11-08T11:00:00	7	Dirección del viento	3.22
14415	7	Sololá	712	San Antonio Palopó	9	San Antonio Palopo	10	Octubre	2023-10-21T00:00:00	2024-11-08T11:00:00	1	Precipitación	0
14416	7	Sololá	712	San Antonio Palopó	9	San Antonio Palopo	10	Octubre	2023-10-21T00:00:00	2024-11-08T11:00:00	8	Radiación solar	497
14417	7	Sololá	712	San Antonio Palopó	9	San Antonio Palopo	10	Octubre	2023-10-21T00:00:00	2024-11-08T12:00:00	2	Temperatura media	22.1
14418	7	Sololá	712	San Antonio Palopó	9	San Antonio Palopo	10	Octubre	2023-10-21T00:00:00	2024-11-08T12:00:00	4	Temperatura máxima	22.1
14419	7	Sololá	712	San Antonio Palopó	9	San Antonio Palopo	10	Octubre	2023-10-21T00:00:00	2024-11-08T12:00:00	3	Temperatura mínima	21.6
14420	7	Sololá	712	San Antonio Palopó	9	San Antonio Palopo	10	Octubre	2023-10-21T00:00:00	2024-11-08T12:00:00	5	Humedad	68
14421	7	Sololá	712	San Antonio Palopó	9	San Antonio Palopo	10	Octubre	2023-10-21T00:00:00	2024-11-08T12:00:00	6	Velocidad del viento	3.2
14422	7	Sololá	712	San Antonio Palopó	9	San Antonio Palopo	10	Octubre	2023-10-21T00:00:00	2024-11-08T12:00:00	7	Dirección del viento	3.22
14423	7	Sololá	712	San Antonio Palopó	9	San Antonio Palopo	10	Octubre	2023-10-21T00:00:00	2024-11-08T12:00:00	1	Precipitación	0
14424	7	Sololá	712	San Antonio Palopó	9	San Antonio Palopo	10	Octubre	2023-10-21T00:00:00	2024-11-08T12:00:00	8	Radiación solar	477
14425	7	Sololá	712	San Antonio Palopó	9	San Antonio Palopo	10	Octubre	2023-10-21T00:00:00	2024-11-08T13:00:00	2	Temperatura media	22.2
14426	7	Sololá	712	San Antonio Palopó	9	San Antonio Palopo	10	Octubre	2023-10-21T00:00:00	2024-11-08T13:00:00	4	Temperatura máxima	22.8
14427	7	Sololá	712	San Antonio Palopó	9	San Antonio Palopo	10	Octubre	2023-10-21T00:00:00	2024-11-08T13:00:00	3	Temperatura mínima	21.9
14428	7	Sololá	712	San Antonio Palopó	9	San Antonio Palopo	10	Octubre	2023-10-21T00:00:00	2024-11-08T13:00:00	5	Humedad	72
14429	7	Sololá	712	San Antonio Palopó	9	San Antonio Palopo	10	Octubre	2023-10-21T00:00:00	2024-11-08T13:00:00	6	Velocidad del viento	4.8
14430	7	Sololá	712	San Antonio Palopó	9	San Antonio Palopo	10	Octubre	2023-10-21T00:00:00	2024-11-08T13:00:00	7	Dirección del viento	4.83
14431	7	Sololá	712	San Antonio Palopó	9	San Antonio Palopo	10	Octubre	2023-10-21T00:00:00	2024-11-08T13:00:00	1	Precipitación	0
14432	7	Sololá	712	San Antonio Palopó	9	San Antonio Palopo	10	Octubre	2023-10-21T00:00:00	2024-11-08T13:00:00	8	Radiación solar	602
14433	7	Sololá	712	San Antonio Palopó	9	San Antonio Palopo	10	Octubre	2023-10-21T00:00:00	2024-11-08T14:00:00	2	Temperatura media	23
14434	7	Sololá	712	San Antonio Palopó	9	San Antonio Palopo	10	Octubre	2023-10-21T00:00:00	2024-11-08T14:00:00	4	Temperatura máxima	23.6
14435	7	Sololá	712	San Antonio Palopó	9	San Antonio Palopo	10	Octubre	2023-10-21T00:00:00	2024-11-08T14:00:00	3	Temperatura mínima	22.2
14436	7	Sololá	712	San Antonio Palopó	9	San Antonio Palopo	10	Octubre	2023-10-21T00:00:00	2024-11-08T14:00:00	5	Humedad	74
14437	7	Sololá	712	San Antonio Palopó	9	San Antonio Palopo	10	Octubre	2023-10-21T00:00:00	2024-11-08T14:00:00	6	Velocidad del viento	8
14438	7	Sololá	712	San Antonio Palopó	9	San Antonio Palopo	10	Octubre	2023-10-21T00:00:00	2024-11-08T14:00:00	7	Dirección del viento	8.05
14439	7	Sololá	712	San Antonio Palopó	9	San Antonio Palopo	10	Octubre	2023-10-21T00:00:00	2024-11-08T14:00:00	1	Precipitación	0
14440	7	Sololá	712	San Antonio Palopó	9	San Antonio Palopo	10	Octubre	2023-10-21T00:00:00	2024-11-08T14:00:00	8	Radiación solar	585
14441	7	Sololá	712	San Antonio Palopó	9	San Antonio Palopo	10	Octubre	2023-10-21T00:00:00	2024-11-08T15:00:00	2	Temperatura media	24.2
14442	7	Sololá	712	San Antonio Palopó	9	San Antonio Palopo	10	Octubre	2023-10-21T00:00:00	2024-11-08T15:00:00	4	Temperatura máxima	24.7
14443	7	Sololá	712	San Antonio Palopó	9	San Antonio Palopo	10	Octubre	2023-10-21T00:00:00	2024-11-08T15:00:00	3	Temperatura mínima	23.1
14444	7	Sololá	712	San Antonio Palopó	9	San Antonio Palopo	10	Octubre	2023-10-21T00:00:00	2024-11-08T15:00:00	5	Humedad	68
14445	7	Sololá	712	San Antonio Palopó	9	San Antonio Palopo	10	Octubre	2023-10-21T00:00:00	2024-11-08T15:00:00	6	Velocidad del viento	6.4
14446	7	Sololá	712	San Antonio Palopó	9	San Antonio Palopo	10	Octubre	2023-10-21T00:00:00	2024-11-08T15:00:00	7	Dirección del viento	6.44
14447	7	Sololá	712	San Antonio Palopó	9	San Antonio Palopo	10	Octubre	2023-10-21T00:00:00	2024-11-08T15:00:00	1	Precipitación	0
14448	7	Sololá	712	San Antonio Palopó	9	San Antonio Palopo	10	Octubre	2023-10-21T00:00:00	2024-11-08T15:00:00	8	Radiación solar	751
14449	7	Sololá	712	San Antonio Palopó	9	San Antonio Palopo	10	Octubre	2023-10-21T00:00:00	2024-11-08T16:00:00	2	Temperatura media	22.2
14450	7	Sololá	712	San Antonio Palopó	9	San Antonio Palopo	10	Octubre	2023-10-21T00:00:00	2024-11-08T16:00:00	4	Temperatura máxima	24.4
14451	7	Sololá	712	San Antonio Palopó	9	San Antonio Palopo	10	Octubre	2023-10-21T00:00:00	2024-11-08T16:00:00	3	Temperatura mínima	22.2
14452	7	Sololá	712	San Antonio Palopó	9	San Antonio Palopo	10	Octubre	2023-10-21T00:00:00	2024-11-08T16:00:00	5	Humedad	74
14453	7	Sololá	712	San Antonio Palopó	9	San Antonio Palopo	10	Octubre	2023-10-21T00:00:00	2024-11-08T16:00:00	6	Velocidad del viento	6.4
14454	7	Sololá	712	San Antonio Palopó	9	San Antonio Palopo	10	Octubre	2023-10-21T00:00:00	2024-11-08T16:00:00	7	Dirección del viento	6.44
14455	7	Sololá	712	San Antonio Palopó	9	San Antonio Palopo	10	Octubre	2023-10-21T00:00:00	2024-11-08T16:00:00	1	Precipitación	0
14456	7	Sololá	712	San Antonio Palopó	9	San Antonio Palopo	10	Octubre	2023-10-21T00:00:00	2024-11-08T16:00:00	8	Radiación solar	395
14457	7	Sololá	712	San Antonio Palopó	9	San Antonio Palopo	10	Octubre	2023-10-21T00:00:00	2024-11-08T17:00:00	2	Temperatura media	20.7
14458	7	Sololá	712	San Antonio Palopó	9	San Antonio Palopo	10	Octubre	2023-10-21T00:00:00	2024-11-08T17:00:00	4	Temperatura máxima	22.2
14459	7	Sololá	712	San Antonio Palopó	9	San Antonio Palopo	10	Octubre	2023-10-21T00:00:00	2024-11-08T17:00:00	3	Temperatura mínima	20.7
14460	7	Sololá	712	San Antonio Palopó	9	San Antonio Palopo	10	Octubre	2023-10-21T00:00:00	2024-11-08T17:00:00	5	Humedad	77
14461	7	Sololá	712	San Antonio Palopó	9	San Antonio Palopo	10	Octubre	2023-10-21T00:00:00	2024-11-08T17:00:00	6	Velocidad del viento	4.8
14462	7	Sololá	712	San Antonio Palopó	9	San Antonio Palopo	10	Octubre	2023-10-21T00:00:00	2024-11-08T17:00:00	7	Dirección del viento	4.83
14463	7	Sololá	712	San Antonio Palopó	9	San Antonio Palopo	10	Octubre	2023-10-21T00:00:00	2024-11-08T17:00:00	1	Precipitación	0
14464	7	Sololá	712	San Antonio Palopó	9	San Antonio Palopo	10	Octubre	2023-10-21T00:00:00	2024-11-08T17:00:00	8	Radiación solar	55
14465	7	Sololá	712	San Antonio Palopó	9	San Antonio Palopo	10	Octubre	2023-10-21T00:00:00	2024-11-08T18:00:00	2	Temperatura media	19.7
14466	7	Sololá	712	San Antonio Palopó	9	San Antonio Palopo	10	Octubre	2023-10-21T00:00:00	2024-11-08T18:00:00	4	Temperatura máxima	20.9
14467	7	Sololá	712	San Antonio Palopó	9	San Antonio Palopo	10	Octubre	2023-10-21T00:00:00	2024-11-08T18:00:00	3	Temperatura mínima	19.7
14468	7	Sololá	712	San Antonio Palopó	9	San Antonio Palopo	10	Octubre	2023-10-21T00:00:00	2024-11-08T18:00:00	5	Humedad	80
14469	7	Sololá	712	San Antonio Palopó	9	San Antonio Palopo	10	Octubre	2023-10-21T00:00:00	2024-11-08T18:00:00	6	Velocidad del viento	3.2
14470	7	Sololá	712	San Antonio Palopó	9	San Antonio Palopo	10	Octubre	2023-10-21T00:00:00	2024-11-08T18:00:00	7	Dirección del viento	3.22
14471	7	Sololá	712	San Antonio Palopó	9	San Antonio Palopo	10	Octubre	2023-10-21T00:00:00	2024-11-08T18:00:00	1	Precipitación	0.4
14472	7	Sololá	712	San Antonio Palopó	9	San Antonio Palopo	10	Octubre	2023-10-21T00:00:00	2024-11-08T18:00:00	8	Radiación solar	8
14473	7	Sololá	712	San Antonio Palopó	9	San Antonio Palopo	10	Octubre	2023-10-21T00:00:00	2024-11-08T19:00:00	2	Temperatura media	19.2
14474	7	Sololá	712	San Antonio Palopó	9	San Antonio Palopo	10	Octubre	2023-10-21T00:00:00	2024-11-08T19:00:00	4	Temperatura máxima	19.7
14475	7	Sololá	712	San Antonio Palopó	9	San Antonio Palopo	10	Octubre	2023-10-21T00:00:00	2024-11-08T19:00:00	3	Temperatura mínima	19.1
14476	7	Sololá	712	San Antonio Palopó	9	San Antonio Palopo	10	Octubre	2023-10-21T00:00:00	2024-11-08T19:00:00	5	Humedad	80
14477	7	Sololá	712	San Antonio Palopó	9	San Antonio Palopo	10	Octubre	2023-10-21T00:00:00	2024-11-08T19:00:00	6	Velocidad del viento	4.8
14478	7	Sololá	712	San Antonio Palopó	9	San Antonio Palopo	10	Octubre	2023-10-21T00:00:00	2024-11-08T19:00:00	7	Dirección del viento	4.83
14479	7	Sololá	712	San Antonio Palopó	9	San Antonio Palopo	10	Octubre	2023-10-21T00:00:00	2024-11-08T19:00:00	1	Precipitación	0
14480	7	Sololá	712	San Antonio Palopó	9	San Antonio Palopo	10	Octubre	2023-10-21T00:00:00	2024-11-08T19:00:00	8	Radiación solar	0
14481	7	Sololá	712	San Antonio Palopó	9	San Antonio Palopo	10	Octubre	2023-10-21T00:00:00	2024-11-08T20:00:00	2	Temperatura media	18.9
14482	7	Sololá	712	San Antonio Palopó	9	San Antonio Palopo	10	Octubre	2023-10-21T00:00:00	2024-11-08T20:00:00	4	Temperatura máxima	19.3
14483	7	Sololá	712	San Antonio Palopó	9	San Antonio Palopo	10	Octubre	2023-10-21T00:00:00	2024-11-08T20:00:00	3	Temperatura mínima	18.6
14484	7	Sololá	712	San Antonio Palopó	9	San Antonio Palopo	10	Octubre	2023-10-21T00:00:00	2024-11-08T20:00:00	5	Humedad	83
14485	7	Sololá	712	San Antonio Palopó	9	San Antonio Palopo	10	Octubre	2023-10-21T00:00:00	2024-11-08T20:00:00	6	Velocidad del viento	3.2
14486	7	Sololá	712	San Antonio Palopó	9	San Antonio Palopo	10	Octubre	2023-10-21T00:00:00	2024-11-08T20:00:00	7	Dirección del viento	3.22
14487	7	Sololá	712	San Antonio Palopó	9	San Antonio Palopo	10	Octubre	2023-10-21T00:00:00	2024-11-08T20:00:00	1	Precipitación	0
14488	7	Sololá	712	San Antonio Palopó	9	San Antonio Palopo	10	Octubre	2023-10-21T00:00:00	2024-11-08T20:00:00	8	Radiación solar	0
14489	7	Sololá	712	San Antonio Palopó	9	San Antonio Palopo	10	Octubre	2023-10-21T00:00:00	2024-11-08T21:00:00	2	Temperatura media	19.2
14490	7	Sololá	712	San Antonio Palopó	9	San Antonio Palopo	10	Octubre	2023-10-21T00:00:00	2024-11-08T21:00:00	4	Temperatura máxima	19.2
14491	7	Sololá	712	San Antonio Palopó	9	San Antonio Palopo	10	Octubre	2023-10-21T00:00:00	2024-11-08T21:00:00	3	Temperatura mínima	18.7
14492	7	Sololá	712	San Antonio Palopó	9	San Antonio Palopo	10	Octubre	2023-10-21T00:00:00	2024-11-08T21:00:00	5	Humedad	83
14493	7	Sololá	712	San Antonio Palopó	9	San Antonio Palopo	10	Octubre	2023-10-21T00:00:00	2024-11-08T21:00:00	6	Velocidad del viento	3.2
14494	7	Sololá	712	San Antonio Palopó	9	San Antonio Palopo	10	Octubre	2023-10-21T00:00:00	2024-11-08T21:00:00	7	Dirección del viento	3.22
14495	7	Sololá	712	San Antonio Palopó	9	San Antonio Palopo	10	Octubre	2023-10-21T00:00:00	2024-11-08T21:00:00	1	Precipitación	0
14496	7	Sololá	712	San Antonio Palopó	9	San Antonio Palopo	10	Octubre	2023-10-21T00:00:00	2024-11-08T21:00:00	8	Radiación solar	0
14497	7	Sololá	712	San Antonio Palopó	9	San Antonio Palopo	10	Octubre	2023-10-21T00:00:00	2024-11-08T22:00:00	2	Temperatura media	18.9
14498	7	Sololá	712	San Antonio Palopó	9	San Antonio Palopo	10	Octubre	2023-10-21T00:00:00	2024-11-08T22:00:00	4	Temperatura máxima	19.3
14499	7	Sololá	712	San Antonio Palopó	9	San Antonio Palopo	10	Octubre	2023-10-21T00:00:00	2024-11-08T22:00:00	3	Temperatura mínima	18.9
14500	7	Sololá	712	San Antonio Palopó	9	San Antonio Palopo	10	Octubre	2023-10-21T00:00:00	2024-11-08T22:00:00	5	Humedad	85
14501	7	Sololá	712	San Antonio Palopó	9	San Antonio Palopo	10	Octubre	2023-10-21T00:00:00	2024-11-08T22:00:00	6	Velocidad del viento	1.6
14502	7	Sololá	712	San Antonio Palopó	9	San Antonio Palopo	10	Octubre	2023-10-21T00:00:00	2024-11-08T22:00:00	7	Dirección del viento	1.61
14503	7	Sololá	712	San Antonio Palopó	9	San Antonio Palopo	10	Octubre	2023-10-21T00:00:00	2024-11-08T22:00:00	1	Precipitación	0
14504	7	Sololá	712	San Antonio Palopó	9	San Antonio Palopo	10	Octubre	2023-10-21T00:00:00	2024-11-08T22:00:00	8	Radiación solar	0
14505	7	Sololá	712	San Antonio Palopó	9	San Antonio Palopo	10	Octubre	2023-10-21T00:00:00	2024-11-08T23:00:00	2	Temperatura media	18.5
14506	7	Sololá	712	San Antonio Palopó	9	San Antonio Palopo	10	Octubre	2023-10-21T00:00:00	2024-11-08T23:00:00	4	Temperatura máxima	19
14507	7	Sololá	712	San Antonio Palopó	9	San Antonio Palopo	10	Octubre	2023-10-21T00:00:00	2024-11-08T23:00:00	3	Temperatura mínima	18.5
14508	7	Sololá	712	San Antonio Palopó	9	San Antonio Palopo	10	Octubre	2023-10-21T00:00:00	2024-11-08T23:00:00	5	Humedad	86
14509	7	Sololá	712	San Antonio Palopó	9	San Antonio Palopo	10	Octubre	2023-10-21T00:00:00	2024-11-08T23:00:00	6	Velocidad del viento	1.6
14510	7	Sololá	712	San Antonio Palopó	9	San Antonio Palopo	10	Octubre	2023-10-21T00:00:00	2024-11-08T23:00:00	7	Dirección del viento	1.61
14511	7	Sololá	712	San Antonio Palopó	9	San Antonio Palopo	10	Octubre	2023-10-21T00:00:00	2024-11-08T23:00:00	1	Precipitación	0
14512	7	Sololá	712	San Antonio Palopó	9	San Antonio Palopo	10	Octubre	2023-10-21T00:00:00	2024-11-08T23:00:00	8	Radiación solar	0
14513	7	Sololá	712	San Antonio Palopó	9	San Antonio Palopo	10	Octubre	2023-10-22T00:00:00	2024-11-08T00:00:00	2	Temperatura media	18.8
14514	7	Sololá	712	San Antonio Palopó	9	San Antonio Palopo	10	Octubre	2023-10-22T00:00:00	2024-11-08T00:00:00	4	Temperatura máxima	18.8
14515	7	Sololá	712	San Antonio Palopó	9	San Antonio Palopo	10	Octubre	2023-10-22T00:00:00	2024-11-08T00:00:00	3	Temperatura mínima	18.4
14516	7	Sololá	712	San Antonio Palopó	9	San Antonio Palopo	10	Octubre	2023-10-22T00:00:00	2024-11-08T00:00:00	5	Humedad	84
14517	7	Sololá	712	San Antonio Palopó	9	San Antonio Palopo	10	Octubre	2023-10-22T00:00:00	2024-11-08T00:00:00	6	Velocidad del viento	1.6
14518	7	Sololá	712	San Antonio Palopó	9	San Antonio Palopo	10	Octubre	2023-10-22T00:00:00	2024-11-08T00:00:00	7	Dirección del viento	1.61
14519	7	Sololá	712	San Antonio Palopó	9	San Antonio Palopo	10	Octubre	2023-10-22T00:00:00	2024-11-08T00:00:00	1	Precipitación	0
14520	7	Sololá	712	San Antonio Palopó	9	San Antonio Palopo	10	Octubre	2023-10-22T00:00:00	2024-11-08T00:00:00	8	Radiación solar	0
14521	7	Sololá	712	San Antonio Palopó	9	San Antonio Palopo	10	Octubre	2023-10-22T00:00:00	2024-11-08T01:00:00	2	Temperatura media	18.9
14522	7	Sololá	712	San Antonio Palopó	9	San Antonio Palopo	10	Octubre	2023-10-22T00:00:00	2024-11-08T01:00:00	4	Temperatura máxima	18.9
14523	7	Sololá	712	San Antonio Palopó	9	San Antonio Palopo	10	Octubre	2023-10-22T00:00:00	2024-11-08T01:00:00	3	Temperatura mínima	18.7
14524	7	Sololá	712	San Antonio Palopó	9	San Antonio Palopo	10	Octubre	2023-10-22T00:00:00	2024-11-08T01:00:00	5	Humedad	84
14525	7	Sololá	712	San Antonio Palopó	9	San Antonio Palopo	10	Octubre	2023-10-22T00:00:00	2024-11-08T01:00:00	6	Velocidad del viento	1.6
14526	7	Sololá	712	San Antonio Palopó	9	San Antonio Palopo	10	Octubre	2023-10-22T00:00:00	2024-11-08T01:00:00	7	Dirección del viento	1.61
14527	7	Sololá	712	San Antonio Palopó	9	San Antonio Palopo	10	Octubre	2023-10-22T00:00:00	2024-11-08T01:00:00	1	Precipitación	0
14528	7	Sololá	712	San Antonio Palopó	9	San Antonio Palopo	10	Octubre	2023-10-22T00:00:00	2024-11-08T01:00:00	8	Radiación solar	0
14529	7	Sololá	712	San Antonio Palopó	9	San Antonio Palopo	10	Octubre	2023-10-22T00:00:00	2024-11-08T02:00:00	2	Temperatura media	19.2
14530	7	Sololá	712	San Antonio Palopó	9	San Antonio Palopo	10	Octubre	2023-10-22T00:00:00	2024-11-08T02:00:00	4	Temperatura máxima	19.2
14531	7	Sololá	712	San Antonio Palopó	9	San Antonio Palopo	10	Octubre	2023-10-22T00:00:00	2024-11-08T02:00:00	3	Temperatura mínima	18.7
14532	7	Sololá	712	San Antonio Palopó	9	San Antonio Palopo	10	Octubre	2023-10-22T00:00:00	2024-11-08T02:00:00	5	Humedad	78
14533	7	Sololá	712	San Antonio Palopó	9	San Antonio Palopo	10	Octubre	2023-10-22T00:00:00	2024-11-08T02:00:00	6	Velocidad del viento	1.6
14534	7	Sololá	712	San Antonio Palopó	9	San Antonio Palopo	10	Octubre	2023-10-22T00:00:00	2024-11-08T02:00:00	7	Dirección del viento	1.61
14535	7	Sololá	712	San Antonio Palopó	9	San Antonio Palopo	10	Octubre	2023-10-22T00:00:00	2024-11-08T02:00:00	1	Precipitación	0
14536	7	Sololá	712	San Antonio Palopó	9	San Antonio Palopo	10	Octubre	2023-10-22T00:00:00	2024-11-08T02:00:00	8	Radiación solar	0
14537	7	Sololá	712	San Antonio Palopó	9	San Antonio Palopo	10	Octubre	2023-10-22T00:00:00	2024-11-08T03:00:00	2	Temperatura media	18.3
14538	7	Sololá	712	San Antonio Palopó	9	San Antonio Palopo	10	Octubre	2023-10-22T00:00:00	2024-11-08T03:00:00	4	Temperatura máxima	19.2
14539	7	Sololá	712	San Antonio Palopó	9	San Antonio Palopo	10	Octubre	2023-10-22T00:00:00	2024-11-08T03:00:00	3	Temperatura mínima	18.3
14540	7	Sololá	712	San Antonio Palopó	9	San Antonio Palopo	10	Octubre	2023-10-22T00:00:00	2024-11-08T03:00:00	5	Humedad	82
14541	7	Sololá	712	San Antonio Palopó	9	San Antonio Palopo	10	Octubre	2023-10-22T00:00:00	2024-11-08T03:00:00	6	Velocidad del viento	1.6
14542	7	Sololá	712	San Antonio Palopó	9	San Antonio Palopo	10	Octubre	2023-10-22T00:00:00	2024-11-08T03:00:00	7	Dirección del viento	1.61
14543	7	Sololá	712	San Antonio Palopó	9	San Antonio Palopo	10	Octubre	2023-10-22T00:00:00	2024-11-08T03:00:00	1	Precipitación	0
14544	7	Sololá	712	San Antonio Palopó	9	San Antonio Palopo	10	Octubre	2023-10-22T00:00:00	2024-11-08T03:00:00	8	Radiación solar	0
14545	7	Sololá	712	San Antonio Palopó	9	San Antonio Palopo	10	Octubre	2023-10-22T00:00:00	2024-11-08T04:00:00	2	Temperatura media	18.8
14546	7	Sololá	712	San Antonio Palopó	9	San Antonio Palopo	10	Octubre	2023-10-22T00:00:00	2024-11-08T04:00:00	4	Temperatura máxima	18.8
14547	7	Sololá	712	San Antonio Palopó	9	San Antonio Palopo	10	Octubre	2023-10-22T00:00:00	2024-11-08T04:00:00	3	Temperatura mínima	18.2
14548	7	Sololá	712	San Antonio Palopó	9	San Antonio Palopo	10	Octubre	2023-10-22T00:00:00	2024-11-08T04:00:00	5	Humedad	78
14549	7	Sololá	712	San Antonio Palopó	9	San Antonio Palopo	10	Octubre	2023-10-22T00:00:00	2024-11-08T04:00:00	6	Velocidad del viento	3.2
14550	7	Sololá	712	San Antonio Palopó	9	San Antonio Palopo	10	Octubre	2023-10-22T00:00:00	2024-11-08T04:00:00	7	Dirección del viento	3.22
14551	7	Sololá	712	San Antonio Palopó	9	San Antonio Palopo	10	Octubre	2023-10-22T00:00:00	2024-11-08T04:00:00	1	Precipitación	0
14552	7	Sololá	712	San Antonio Palopó	9	San Antonio Palopo	10	Octubre	2023-10-22T00:00:00	2024-11-08T04:00:00	8	Radiación solar	0
14553	7	Sololá	712	San Antonio Palopó	9	San Antonio Palopo	10	Octubre	2023-10-22T00:00:00	2024-11-08T05:00:00	2	Temperatura media	18.6
14554	7	Sololá	712	San Antonio Palopó	9	San Antonio Palopo	10	Octubre	2023-10-22T00:00:00	2024-11-08T05:00:00	4	Temperatura máxima	18.9
14555	7	Sololá	712	San Antonio Palopó	9	San Antonio Palopo	10	Octubre	2023-10-22T00:00:00	2024-11-08T05:00:00	3	Temperatura mínima	18.6
14556	7	Sololá	712	San Antonio Palopó	9	San Antonio Palopo	10	Octubre	2023-10-22T00:00:00	2024-11-08T05:00:00	5	Humedad	79
14557	7	Sololá	712	San Antonio Palopó	9	San Antonio Palopo	10	Octubre	2023-10-22T00:00:00	2024-11-08T05:00:00	6	Velocidad del viento	4.8
14558	7	Sololá	712	San Antonio Palopó	9	San Antonio Palopo	10	Octubre	2023-10-22T00:00:00	2024-11-08T05:00:00	7	Dirección del viento	4.83
14559	7	Sololá	712	San Antonio Palopó	9	San Antonio Palopo	10	Octubre	2023-10-22T00:00:00	2024-11-08T05:00:00	1	Precipitación	0
14560	7	Sololá	712	San Antonio Palopó	9	San Antonio Palopo	10	Octubre	2023-10-22T00:00:00	2024-11-08T05:00:00	8	Radiación solar	0
14561	7	Sololá	712	San Antonio Palopó	9	San Antonio Palopo	10	Octubre	2023-10-22T00:00:00	2024-11-08T06:00:00	2	Temperatura media	17.8
14562	7	Sololá	712	San Antonio Palopó	9	San Antonio Palopo	10	Octubre	2023-10-22T00:00:00	2024-11-08T06:00:00	4	Temperatura máxima	18.6
14563	7	Sololá	712	San Antonio Palopó	9	San Antonio Palopo	10	Octubre	2023-10-22T00:00:00	2024-11-08T06:00:00	3	Temperatura mínima	17.8
14564	7	Sololá	712	San Antonio Palopó	9	San Antonio Palopo	10	Octubre	2023-10-22T00:00:00	2024-11-08T06:00:00	5	Humedad	78
14565	7	Sololá	712	San Antonio Palopó	9	San Antonio Palopo	10	Octubre	2023-10-22T00:00:00	2024-11-08T06:00:00	6	Velocidad del viento	8
14566	7	Sololá	712	San Antonio Palopó	9	San Antonio Palopo	10	Octubre	2023-10-22T00:00:00	2024-11-08T06:00:00	7	Dirección del viento	8.05
14567	7	Sololá	712	San Antonio Palopó	9	San Antonio Palopo	10	Octubre	2023-10-22T00:00:00	2024-11-08T06:00:00	1	Precipitación	0
14568	7	Sololá	712	San Antonio Palopó	9	San Antonio Palopo	10	Octubre	2023-10-22T00:00:00	2024-11-08T06:00:00	8	Radiación solar	0
14569	7	Sololá	712	San Antonio Palopó	9	San Antonio Palopo	10	Octubre	2023-10-22T00:00:00	2024-11-08T07:00:00	2	Temperatura media	17.6
14570	7	Sololá	712	San Antonio Palopó	9	San Antonio Palopo	10	Octubre	2023-10-22T00:00:00	2024-11-08T07:00:00	4	Temperatura máxima	17.8
14571	7	Sololá	712	San Antonio Palopó	9	San Antonio Palopo	10	Octubre	2023-10-22T00:00:00	2024-11-08T07:00:00	3	Temperatura mínima	17.5
14572	7	Sololá	712	San Antonio Palopó	9	San Antonio Palopo	10	Octubre	2023-10-22T00:00:00	2024-11-08T07:00:00	5	Humedad	79
14573	7	Sololá	712	San Antonio Palopó	9	San Antonio Palopo	10	Octubre	2023-10-22T00:00:00	2024-11-08T07:00:00	6	Velocidad del viento	16.1
14574	7	Sololá	712	San Antonio Palopó	9	San Antonio Palopo	10	Octubre	2023-10-22T00:00:00	2024-11-08T07:00:00	7	Dirección del viento	16.09
14575	7	Sololá	712	San Antonio Palopó	9	San Antonio Palopo	10	Octubre	2023-10-22T00:00:00	2024-11-08T07:00:00	1	Precipitación	0.2
14576	7	Sololá	712	San Antonio Palopó	9	San Antonio Palopo	10	Octubre	2023-10-22T00:00:00	2024-11-08T07:00:00	8	Radiación solar	19
14577	7	Sololá	712	San Antonio Palopó	9	San Antonio Palopo	10	Octubre	2023-10-22T00:00:00	2024-11-08T08:00:00	2	Temperatura media	18.8
14578	7	Sololá	712	San Antonio Palopó	9	San Antonio Palopo	10	Octubre	2023-10-22T00:00:00	2024-11-08T08:00:00	4	Temperatura máxima	18.8
14579	7	Sololá	712	San Antonio Palopó	9	San Antonio Palopo	10	Octubre	2023-10-22T00:00:00	2024-11-08T08:00:00	3	Temperatura mínima	17.6
14580	7	Sololá	712	San Antonio Palopó	9	San Antonio Palopo	10	Octubre	2023-10-22T00:00:00	2024-11-08T08:00:00	5	Humedad	77
14581	7	Sololá	712	San Antonio Palopó	9	San Antonio Palopo	10	Octubre	2023-10-22T00:00:00	2024-11-08T08:00:00	6	Velocidad del viento	16.1
14582	7	Sololá	712	San Antonio Palopó	9	San Antonio Palopo	10	Octubre	2023-10-22T00:00:00	2024-11-08T08:00:00	7	Dirección del viento	16.09
14583	7	Sololá	712	San Antonio Palopó	9	San Antonio Palopo	10	Octubre	2023-10-22T00:00:00	2024-11-08T08:00:00	1	Precipitación	0
14584	7	Sololá	712	San Antonio Palopó	9	San Antonio Palopo	10	Octubre	2023-10-22T00:00:00	2024-11-08T08:00:00	8	Radiación solar	92
14585	7	Sololá	712	San Antonio Palopó	9	San Antonio Palopo	10	Octubre	2023-10-22T00:00:00	2024-11-08T09:00:00	2	Temperatura media	21.3
14586	7	Sololá	712	San Antonio Palopó	9	San Antonio Palopo	10	Octubre	2023-10-22T00:00:00	2024-11-08T09:00:00	4	Temperatura máxima	21.4
14587	7	Sololá	712	San Antonio Palopó	9	San Antonio Palopo	10	Octubre	2023-10-22T00:00:00	2024-11-08T09:00:00	3	Temperatura mínima	18.9
14588	7	Sololá	712	San Antonio Palopó	9	San Antonio Palopo	10	Octubre	2023-10-22T00:00:00	2024-11-08T09:00:00	5	Humedad	72
14589	7	Sololá	712	San Antonio Palopó	9	San Antonio Palopo	10	Octubre	2023-10-22T00:00:00	2024-11-08T09:00:00	6	Velocidad del viento	8
14590	7	Sololá	712	San Antonio Palopó	9	San Antonio Palopo	10	Octubre	2023-10-22T00:00:00	2024-11-08T09:00:00	7	Dirección del viento	8.05
14591	7	Sololá	712	San Antonio Palopó	9	San Antonio Palopo	10	Octubre	2023-10-22T00:00:00	2024-11-08T09:00:00	1	Precipitación	0
14592	7	Sololá	712	San Antonio Palopó	9	San Antonio Palopo	10	Octubre	2023-10-22T00:00:00	2024-11-08T09:00:00	8	Radiación solar	482
14593	7	Sololá	712	San Antonio Palopó	9	San Antonio Palopo	10	Octubre	2023-10-22T00:00:00	2024-11-08T10:00:00	2	Temperatura media	21.8
14594	7	Sololá	712	San Antonio Palopó	9	San Antonio Palopo	10	Octubre	2023-10-22T00:00:00	2024-11-08T10:00:00	4	Temperatura máxima	21.8
14595	7	Sololá	712	San Antonio Palopó	9	San Antonio Palopo	10	Octubre	2023-10-22T00:00:00	2024-11-08T10:00:00	3	Temperatura mínima	21.2
14596	7	Sololá	712	San Antonio Palopó	9	San Antonio Palopo	10	Octubre	2023-10-22T00:00:00	2024-11-08T10:00:00	5	Humedad	71
14597	7	Sololá	712	San Antonio Palopó	9	San Antonio Palopo	10	Octubre	2023-10-22T00:00:00	2024-11-08T10:00:00	6	Velocidad del viento	3.2
14598	7	Sololá	712	San Antonio Palopó	9	San Antonio Palopo	10	Octubre	2023-10-22T00:00:00	2024-11-08T10:00:00	7	Dirección del viento	3.22
14599	7	Sololá	712	San Antonio Palopó	9	San Antonio Palopo	10	Octubre	2023-10-22T00:00:00	2024-11-08T10:00:00	1	Precipitación	0
14600	7	Sololá	712	San Antonio Palopó	9	San Antonio Palopo	10	Octubre	2023-10-22T00:00:00	2024-11-08T10:00:00	8	Radiación solar	671
14601	7	Sololá	712	San Antonio Palopó	9	San Antonio Palopo	10	Octubre	2023-10-22T00:00:00	2024-11-08T11:00:00	2	Temperatura media	23.5
14602	7	Sololá	712	San Antonio Palopó	9	San Antonio Palopo	10	Octubre	2023-10-22T00:00:00	2024-11-08T11:00:00	4	Temperatura máxima	23.5
14603	7	Sololá	712	San Antonio Palopó	9	San Antonio Palopo	10	Octubre	2023-10-22T00:00:00	2024-11-08T11:00:00	3	Temperatura mínima	21.8
14604	7	Sololá	712	San Antonio Palopó	9	San Antonio Palopo	10	Octubre	2023-10-22T00:00:00	2024-11-08T11:00:00	5	Humedad	70
14605	7	Sololá	712	San Antonio Palopó	9	San Antonio Palopo	10	Octubre	2023-10-22T00:00:00	2024-11-08T11:00:00	6	Velocidad del viento	4.8
14606	7	Sololá	712	San Antonio Palopó	9	San Antonio Palopo	10	Octubre	2023-10-22T00:00:00	2024-11-08T11:00:00	7	Dirección del viento	4.83
14607	7	Sololá	712	San Antonio Palopó	9	San Antonio Palopo	10	Octubre	2023-10-22T00:00:00	2024-11-08T11:00:00	1	Precipitación	0
14608	7	Sololá	712	San Antonio Palopó	9	San Antonio Palopo	10	Octubre	2023-10-22T00:00:00	2024-11-08T11:00:00	8	Radiación solar	726
14609	7	Sololá	712	San Antonio Palopó	9	San Antonio Palopo	10	Octubre	2023-10-22T00:00:00	2024-11-08T12:00:00	2	Temperatura media	25
14610	7	Sololá	712	San Antonio Palopó	9	San Antonio Palopo	10	Octubre	2023-10-22T00:00:00	2024-11-08T12:00:00	4	Temperatura máxima	25
14611	7	Sololá	712	San Antonio Palopó	9	San Antonio Palopo	10	Octubre	2023-10-22T00:00:00	2024-11-08T12:00:00	3	Temperatura mínima	23.4
14612	7	Sololá	712	San Antonio Palopó	9	San Antonio Palopo	10	Octubre	2023-10-22T00:00:00	2024-11-08T12:00:00	5	Humedad	66
14613	7	Sololá	712	San Antonio Palopó	9	San Antonio Palopo	10	Octubre	2023-10-22T00:00:00	2024-11-08T12:00:00	6	Velocidad del viento	4.8
14614	7	Sololá	712	San Antonio Palopó	9	San Antonio Palopo	10	Octubre	2023-10-22T00:00:00	2024-11-08T12:00:00	7	Dirección del viento	4.83
14615	7	Sololá	712	San Antonio Palopó	9	San Antonio Palopo	10	Octubre	2023-10-22T00:00:00	2024-11-08T12:00:00	1	Precipitación	0
14616	7	Sololá	712	San Antonio Palopó	9	San Antonio Palopo	10	Octubre	2023-10-22T00:00:00	2024-11-08T12:00:00	8	Radiación solar	782
14617	7	Sololá	712	San Antonio Palopó	9	San Antonio Palopo	10	Octubre	2023-10-22T00:00:00	2024-11-08T13:00:00	2	Temperatura media	25.1
14618	7	Sololá	712	San Antonio Palopó	9	San Antonio Palopo	10	Octubre	2023-10-22T00:00:00	2024-11-08T13:00:00	4	Temperatura máxima	25.4
14619	7	Sololá	712	San Antonio Palopó	9	San Antonio Palopo	10	Octubre	2023-10-22T00:00:00	2024-11-08T13:00:00	3	Temperatura mínima	24.6
14620	7	Sololá	712	San Antonio Palopó	9	San Antonio Palopo	10	Octubre	2023-10-22T00:00:00	2024-11-08T13:00:00	5	Humedad	70
14621	7	Sololá	712	San Antonio Palopó	9	San Antonio Palopo	10	Octubre	2023-10-22T00:00:00	2024-11-08T13:00:00	6	Velocidad del viento	6.4
14622	7	Sololá	712	San Antonio Palopó	9	San Antonio Palopo	10	Octubre	2023-10-22T00:00:00	2024-11-08T13:00:00	7	Dirección del viento	6.44
14623	7	Sololá	712	San Antonio Palopó	9	San Antonio Palopo	10	Octubre	2023-10-22T00:00:00	2024-11-08T13:00:00	1	Precipitación	0
14624	7	Sololá	712	San Antonio Palopó	9	San Antonio Palopo	10	Octubre	2023-10-22T00:00:00	2024-11-08T13:00:00	8	Radiación solar	879
14625	7	Sololá	712	San Antonio Palopó	9	San Antonio Palopo	10	Octubre	2023-10-22T00:00:00	2024-11-08T14:00:00	2	Temperatura media	21.7
14626	7	Sololá	712	San Antonio Palopó	9	San Antonio Palopo	10	Octubre	2023-10-22T00:00:00	2024-11-08T14:00:00	4	Temperatura máxima	25.1
14627	7	Sololá	712	San Antonio Palopó	9	San Antonio Palopo	10	Octubre	2023-10-22T00:00:00	2024-11-08T14:00:00	3	Temperatura mínima	21.7
14628	7	Sololá	712	San Antonio Palopó	9	San Antonio Palopo	10	Octubre	2023-10-22T00:00:00	2024-11-08T14:00:00	5	Humedad	77
14629	7	Sololá	712	San Antonio Palopó	9	San Antonio Palopo	10	Octubre	2023-10-22T00:00:00	2024-11-08T14:00:00	6	Velocidad del viento	8
14630	7	Sololá	712	San Antonio Palopó	9	San Antonio Palopo	10	Octubre	2023-10-22T00:00:00	2024-11-08T14:00:00	7	Dirección del viento	8.05
14631	7	Sololá	712	San Antonio Palopó	9	San Antonio Palopo	10	Octubre	2023-10-22T00:00:00	2024-11-08T14:00:00	1	Precipitación	0
14632	7	Sololá	712	San Antonio Palopó	9	San Antonio Palopo	10	Octubre	2023-10-22T00:00:00	2024-11-08T14:00:00	8	Radiación solar	257
14633	7	Sololá	712	San Antonio Palopó	9	San Antonio Palopo	10	Octubre	2023-10-22T00:00:00	2024-11-08T15:00:00	2	Temperatura media	20.6
14634	7	Sololá	712	San Antonio Palopó	9	San Antonio Palopo	10	Octubre	2023-10-22T00:00:00	2024-11-08T15:00:00	4	Temperatura máxima	21.7
14635	7	Sololá	712	San Antonio Palopó	9	San Antonio Palopo	10	Octubre	2023-10-22T00:00:00	2024-11-08T15:00:00	3	Temperatura mínima	20.6
14636	7	Sololá	712	San Antonio Palopó	9	San Antonio Palopo	10	Octubre	2023-10-22T00:00:00	2024-11-08T15:00:00	5	Humedad	82
14637	7	Sololá	712	San Antonio Palopó	9	San Antonio Palopo	10	Octubre	2023-10-22T00:00:00	2024-11-08T15:00:00	6	Velocidad del viento	4.8
14638	7	Sololá	712	San Antonio Palopó	9	San Antonio Palopo	10	Octubre	2023-10-22T00:00:00	2024-11-08T15:00:00	7	Dirección del viento	4.83
14639	7	Sololá	712	San Antonio Palopó	9	San Antonio Palopo	10	Octubre	2023-10-22T00:00:00	2024-11-08T15:00:00	1	Precipitación	0
14640	7	Sololá	712	San Antonio Palopó	9	San Antonio Palopo	10	Octubre	2023-10-22T00:00:00	2024-11-08T15:00:00	8	Radiación solar	118
14641	7	Sololá	712	San Antonio Palopó	9	San Antonio Palopo	10	Octubre	2023-10-22T00:00:00	2024-11-08T16:00:00	2	Temperatura media	20.3
14642	7	Sololá	712	San Antonio Palopó	9	San Antonio Palopo	10	Octubre	2023-10-22T00:00:00	2024-11-08T16:00:00	4	Temperatura máxima	21.2
14643	7	Sololá	712	San Antonio Palopó	9	San Antonio Palopo	10	Octubre	2023-10-22T00:00:00	2024-11-08T16:00:00	3	Temperatura mínima	20.2
14644	7	Sololá	712	San Antonio Palopó	9	San Antonio Palopo	10	Octubre	2023-10-22T00:00:00	2024-11-08T16:00:00	5	Humedad	80
14645	7	Sololá	712	San Antonio Palopó	9	San Antonio Palopo	10	Octubre	2023-10-22T00:00:00	2024-11-08T16:00:00	6	Velocidad del viento	9.7
14646	7	Sololá	712	San Antonio Palopó	9	San Antonio Palopo	10	Octubre	2023-10-22T00:00:00	2024-11-08T16:00:00	7	Dirección del viento	9.66
14647	7	Sololá	712	San Antonio Palopó	9	San Antonio Palopo	10	Octubre	2023-10-22T00:00:00	2024-11-08T16:00:00	1	Precipitación	0
14648	7	Sololá	712	San Antonio Palopó	9	San Antonio Palopo	10	Octubre	2023-10-22T00:00:00	2024-11-08T16:00:00	8	Radiación solar	266
14649	7	Sololá	712	San Antonio Palopó	9	San Antonio Palopo	10	Octubre	2023-10-22T00:00:00	2024-11-08T17:00:00	2	Temperatura media	20.4
14650	7	Sololá	712	San Antonio Palopó	9	San Antonio Palopo	10	Octubre	2023-10-22T00:00:00	2024-11-08T17:00:00	4	Temperatura máxima	20.4
14651	7	Sololá	712	San Antonio Palopó	9	San Antonio Palopo	10	Octubre	2023-10-22T00:00:00	2024-11-08T17:00:00	3	Temperatura mínima	20.2
14652	7	Sololá	712	San Antonio Palopó	9	San Antonio Palopo	10	Octubre	2023-10-22T00:00:00	2024-11-08T17:00:00	5	Humedad	80
14653	7	Sololá	712	San Antonio Palopó	9	San Antonio Palopo	10	Octubre	2023-10-22T00:00:00	2024-11-08T17:00:00	6	Velocidad del viento	1.6
14654	7	Sololá	712	San Antonio Palopó	9	San Antonio Palopo	10	Octubre	2023-10-22T00:00:00	2024-11-08T17:00:00	7	Dirección del viento	1.61
14655	7	Sololá	712	San Antonio Palopó	9	San Antonio Palopo	10	Octubre	2023-10-22T00:00:00	2024-11-08T17:00:00	1	Precipitación	0
14656	7	Sololá	712	San Antonio Palopó	9	San Antonio Palopo	10	Octubre	2023-10-22T00:00:00	2024-11-08T17:00:00	8	Radiación solar	32
14657	7	Sololá	712	San Antonio Palopó	9	San Antonio Palopo	10	Octubre	2023-10-22T00:00:00	2024-11-08T18:00:00	2	Temperatura media	19.8
14658	7	Sololá	712	San Antonio Palopó	9	San Antonio Palopo	10	Octubre	2023-10-22T00:00:00	2024-11-08T18:00:00	4	Temperatura máxima	20.5
14659	7	Sololá	712	San Antonio Palopó	9	San Antonio Palopo	10	Octubre	2023-10-22T00:00:00	2024-11-08T18:00:00	3	Temperatura mínima	19.7
14660	7	Sololá	712	San Antonio Palopó	9	San Antonio Palopo	10	Octubre	2023-10-22T00:00:00	2024-11-08T18:00:00	5	Humedad	82
14661	7	Sololá	712	San Antonio Palopó	9	San Antonio Palopo	10	Octubre	2023-10-22T00:00:00	2024-11-08T18:00:00	6	Velocidad del viento	1.6
14662	7	Sololá	712	San Antonio Palopó	9	San Antonio Palopo	10	Octubre	2023-10-22T00:00:00	2024-11-08T18:00:00	7	Dirección del viento	1.61
14663	7	Sololá	712	San Antonio Palopó	9	San Antonio Palopo	10	Octubre	2023-10-22T00:00:00	2024-11-08T18:00:00	1	Precipitación	0.2
14664	7	Sololá	712	San Antonio Palopó	9	San Antonio Palopo	10	Octubre	2023-10-22T00:00:00	2024-11-08T18:00:00	8	Radiación solar	0
14665	7	Sololá	712	San Antonio Palopó	9	San Antonio Palopo	10	Octubre	2023-10-22T00:00:00	2024-11-08T19:00:00	2	Temperatura media	19
14666	7	Sololá	712	San Antonio Palopó	9	San Antonio Palopo	10	Octubre	2023-10-22T00:00:00	2024-11-08T19:00:00	4	Temperatura máxima	19.9
14667	7	Sololá	712	San Antonio Palopó	9	San Antonio Palopo	10	Octubre	2023-10-22T00:00:00	2024-11-08T19:00:00	3	Temperatura mínima	19
14668	7	Sololá	712	San Antonio Palopó	9	San Antonio Palopo	10	Octubre	2023-10-22T00:00:00	2024-11-08T19:00:00	5	Humedad	88
14669	7	Sololá	712	San Antonio Palopó	9	San Antonio Palopo	10	Octubre	2023-10-22T00:00:00	2024-11-08T19:00:00	6	Velocidad del viento	1.6
14670	7	Sololá	712	San Antonio Palopó	9	San Antonio Palopo	10	Octubre	2023-10-22T00:00:00	2024-11-08T19:00:00	7	Dirección del viento	1.61
14671	7	Sololá	712	San Antonio Palopó	9	San Antonio Palopo	10	Octubre	2023-10-22T00:00:00	2024-11-08T19:00:00	1	Precipitación	0.4
14672	7	Sololá	712	San Antonio Palopó	9	San Antonio Palopo	10	Octubre	2023-10-22T00:00:00	2024-11-08T19:00:00	8	Radiación solar	0
14673	7	Sololá	712	San Antonio Palopó	9	San Antonio Palopo	10	Octubre	2023-10-22T00:00:00	2024-11-08T20:00:00	2	Temperatura media	18.8
14674	7	Sololá	712	San Antonio Palopó	9	San Antonio Palopo	10	Octubre	2023-10-22T00:00:00	2024-11-08T20:00:00	4	Temperatura máxima	19.1
14675	7	Sololá	712	San Antonio Palopó	9	San Antonio Palopo	10	Octubre	2023-10-22T00:00:00	2024-11-08T20:00:00	3	Temperatura mínima	18.7
14676	7	Sololá	712	San Antonio Palopó	9	San Antonio Palopo	10	Octubre	2023-10-22T00:00:00	2024-11-08T20:00:00	5	Humedad	87
14677	7	Sololá	712	San Antonio Palopó	9	San Antonio Palopo	10	Octubre	2023-10-22T00:00:00	2024-11-08T20:00:00	6	Velocidad del viento	1.6
14678	7	Sololá	712	San Antonio Palopó	9	San Antonio Palopo	10	Octubre	2023-10-22T00:00:00	2024-11-08T20:00:00	7	Dirección del viento	1.61
14679	7	Sololá	712	San Antonio Palopó	9	San Antonio Palopo	10	Octubre	2023-10-22T00:00:00	2024-11-08T20:00:00	1	Precipitación	0.6
14680	7	Sololá	712	San Antonio Palopó	9	San Antonio Palopo	10	Octubre	2023-10-22T00:00:00	2024-11-08T20:00:00	8	Radiación solar	0
14681	7	Sololá	712	San Antonio Palopó	9	San Antonio Palopo	10	Octubre	2023-10-22T00:00:00	2024-11-08T21:00:00	2	Temperatura media	18.3
14682	7	Sololá	712	San Antonio Palopó	9	San Antonio Palopo	10	Octubre	2023-10-22T00:00:00	2024-11-08T21:00:00	4	Temperatura máxima	18.9
14683	7	Sololá	712	San Antonio Palopó	9	San Antonio Palopo	10	Octubre	2023-10-22T00:00:00	2024-11-08T21:00:00	3	Temperatura mínima	18.3
14684	7	Sololá	712	San Antonio Palopó	9	San Antonio Palopo	10	Octubre	2023-10-22T00:00:00	2024-11-08T21:00:00	5	Humedad	89
14685	7	Sololá	712	San Antonio Palopó	9	San Antonio Palopo	10	Octubre	2023-10-22T00:00:00	2024-11-08T21:00:00	6	Velocidad del viento	1.6
14686	7	Sololá	712	San Antonio Palopó	9	San Antonio Palopo	10	Octubre	2023-10-22T00:00:00	2024-11-08T21:00:00	7	Dirección del viento	1.61
14687	7	Sololá	712	San Antonio Palopó	9	San Antonio Palopo	10	Octubre	2023-10-22T00:00:00	2024-11-08T21:00:00	1	Precipitación	0
14688	7	Sololá	712	San Antonio Palopó	9	San Antonio Palopo	10	Octubre	2023-10-22T00:00:00	2024-11-08T21:00:00	8	Radiación solar	0
14689	7	Sololá	712	San Antonio Palopó	9	San Antonio Palopo	10	Octubre	2023-10-22T00:00:00	2024-11-08T22:00:00	2	Temperatura media	18.3
14690	7	Sololá	712	San Antonio Palopó	9	San Antonio Palopo	10	Octubre	2023-10-22T00:00:00	2024-11-08T22:00:00	4	Temperatura máxima	18.6
14691	7	Sololá	712	San Antonio Palopó	9	San Antonio Palopo	10	Octubre	2023-10-22T00:00:00	2024-11-08T22:00:00	3	Temperatura mínima	18.3
14692	7	Sololá	712	San Antonio Palopó	9	San Antonio Palopo	10	Octubre	2023-10-22T00:00:00	2024-11-08T22:00:00	5	Humedad	88
14693	7	Sololá	712	San Antonio Palopó	9	San Antonio Palopo	10	Octubre	2023-10-22T00:00:00	2024-11-08T22:00:00	6	Velocidad del viento	1.6
14694	7	Sololá	712	San Antonio Palopó	9	San Antonio Palopo	10	Octubre	2023-10-22T00:00:00	2024-11-08T22:00:00	7	Dirección del viento	1.61
14695	7	Sololá	712	San Antonio Palopó	9	San Antonio Palopo	10	Octubre	2023-10-22T00:00:00	2024-11-08T22:00:00	1	Precipitación	0
14696	7	Sololá	712	San Antonio Palopó	9	San Antonio Palopo	10	Octubre	2023-10-22T00:00:00	2024-11-08T22:00:00	8	Radiación solar	0
14697	7	Sololá	712	San Antonio Palopó	9	San Antonio Palopo	10	Octubre	2023-10-22T00:00:00	2024-11-08T23:00:00	2	Temperatura media	18.2
14698	7	Sololá	712	San Antonio Palopó	9	San Antonio Palopo	10	Octubre	2023-10-22T00:00:00	2024-11-08T23:00:00	4	Temperatura máxima	18.6
14699	7	Sololá	712	San Antonio Palopó	9	San Antonio Palopo	10	Octubre	2023-10-22T00:00:00	2024-11-08T23:00:00	3	Temperatura mínima	18
14700	7	Sololá	712	San Antonio Palopó	9	San Antonio Palopo	10	Octubre	2023-10-22T00:00:00	2024-11-08T23:00:00	5	Humedad	88
14701	7	Sololá	712	San Antonio Palopó	9	San Antonio Palopo	10	Octubre	2023-10-22T00:00:00	2024-11-08T23:00:00	6	Velocidad del viento	3.2
14702	7	Sololá	712	San Antonio Palopó	9	San Antonio Palopo	10	Octubre	2023-10-22T00:00:00	2024-11-08T23:00:00	7	Dirección del viento	3.22
14703	7	Sololá	712	San Antonio Palopó	9	San Antonio Palopo	10	Octubre	2023-10-22T00:00:00	2024-11-08T23:00:00	1	Precipitación	0
14704	7	Sololá	712	San Antonio Palopó	9	San Antonio Palopo	10	Octubre	2023-10-22T00:00:00	2024-11-08T23:00:00	8	Radiación solar	0
14705	7	Sololá	712	San Antonio Palopó	9	San Antonio Palopo	10	Octubre	2023-10-23T00:00:00	2024-11-08T00:00:00	2	Temperatura media	18.2
14706	7	Sololá	712	San Antonio Palopó	9	San Antonio Palopo	10	Octubre	2023-10-23T00:00:00	2024-11-08T00:00:00	4	Temperatura máxima	18.6
14707	7	Sololá	712	San Antonio Palopó	9	San Antonio Palopo	10	Octubre	2023-10-23T00:00:00	2024-11-08T00:00:00	3	Temperatura mínima	17.7
14708	7	Sololá	712	San Antonio Palopó	9	San Antonio Palopo	10	Octubre	2023-10-23T00:00:00	2024-11-08T00:00:00	5	Humedad	87
14709	7	Sololá	712	San Antonio Palopó	9	San Antonio Palopo	10	Octubre	2023-10-23T00:00:00	2024-11-08T00:00:00	6	Velocidad del viento	3.2
14710	7	Sololá	712	San Antonio Palopó	9	San Antonio Palopo	10	Octubre	2023-10-23T00:00:00	2024-11-08T00:00:00	7	Dirección del viento	3.22
14711	7	Sololá	712	San Antonio Palopó	9	San Antonio Palopo	10	Octubre	2023-10-23T00:00:00	2024-11-08T00:00:00	1	Precipitación	0
14712	7	Sololá	712	San Antonio Palopó	9	San Antonio Palopo	10	Octubre	2023-10-23T00:00:00	2024-11-08T00:00:00	8	Radiación solar	0
14713	7	Sololá	712	San Antonio Palopó	9	San Antonio Palopo	10	Octubre	2023-10-23T00:00:00	2024-11-08T01:00:00	2	Temperatura media	18.8
14714	7	Sololá	712	San Antonio Palopó	9	San Antonio Palopo	10	Octubre	2023-10-23T00:00:00	2024-11-08T01:00:00	4	Temperatura máxima	19
14715	7	Sololá	712	San Antonio Palopó	9	San Antonio Palopo	10	Octubre	2023-10-23T00:00:00	2024-11-08T01:00:00	3	Temperatura mínima	18.2
14716	7	Sololá	712	San Antonio Palopó	9	San Antonio Palopo	10	Octubre	2023-10-23T00:00:00	2024-11-08T01:00:00	5	Humedad	79
14717	7	Sololá	712	San Antonio Palopó	9	San Antonio Palopo	10	Octubre	2023-10-23T00:00:00	2024-11-08T01:00:00	6	Velocidad del viento	4.8
14718	7	Sololá	712	San Antonio Palopó	9	San Antonio Palopo	10	Octubre	2023-10-23T00:00:00	2024-11-08T01:00:00	7	Dirección del viento	4.83
14719	7	Sololá	712	San Antonio Palopó	9	San Antonio Palopo	10	Octubre	2023-10-23T00:00:00	2024-11-08T01:00:00	1	Precipitación	0
14720	7	Sololá	712	San Antonio Palopó	9	San Antonio Palopo	10	Octubre	2023-10-23T00:00:00	2024-11-08T01:00:00	8	Radiación solar	0
14721	7	Sololá	712	San Antonio Palopó	9	San Antonio Palopo	10	Octubre	2023-10-23T00:00:00	2024-11-08T02:00:00	2	Temperatura media	19.1
14722	7	Sololá	712	San Antonio Palopó	9	San Antonio Palopo	10	Octubre	2023-10-23T00:00:00	2024-11-08T02:00:00	4	Temperatura máxima	19.3
14723	7	Sololá	712	San Antonio Palopó	9	San Antonio Palopo	10	Octubre	2023-10-23T00:00:00	2024-11-08T02:00:00	3	Temperatura mínima	18.8
14724	7	Sololá	712	San Antonio Palopó	9	San Antonio Palopo	10	Octubre	2023-10-23T00:00:00	2024-11-08T02:00:00	5	Humedad	77
14725	7	Sololá	712	San Antonio Palopó	9	San Antonio Palopo	10	Octubre	2023-10-23T00:00:00	2024-11-08T02:00:00	6	Velocidad del viento	9.7
14726	7	Sololá	712	San Antonio Palopó	9	San Antonio Palopo	10	Octubre	2023-10-23T00:00:00	2024-11-08T02:00:00	7	Dirección del viento	9.66
14727	7	Sololá	712	San Antonio Palopó	9	San Antonio Palopo	10	Octubre	2023-10-23T00:00:00	2024-11-08T02:00:00	1	Precipitación	0
14728	7	Sololá	712	San Antonio Palopó	9	San Antonio Palopo	10	Octubre	2023-10-23T00:00:00	2024-11-08T02:00:00	8	Radiación solar	0
14729	7	Sololá	712	San Antonio Palopó	9	San Antonio Palopo	10	Octubre	2023-10-23T00:00:00	2024-11-08T03:00:00	2	Temperatura media	18.9
14730	7	Sololá	712	San Antonio Palopó	9	San Antonio Palopo	10	Octubre	2023-10-23T00:00:00	2024-11-08T03:00:00	4	Temperatura máxima	19.2
14731	7	Sololá	712	San Antonio Palopó	9	San Antonio Palopo	10	Octubre	2023-10-23T00:00:00	2024-11-08T03:00:00	3	Temperatura mínima	18.9
14732	7	Sololá	712	San Antonio Palopó	9	San Antonio Palopo	10	Octubre	2023-10-23T00:00:00	2024-11-08T03:00:00	5	Humedad	77
14733	7	Sololá	712	San Antonio Palopó	9	San Antonio Palopo	10	Octubre	2023-10-23T00:00:00	2024-11-08T03:00:00	6	Velocidad del viento	9.7
14734	7	Sololá	712	San Antonio Palopó	9	San Antonio Palopo	10	Octubre	2023-10-23T00:00:00	2024-11-08T03:00:00	7	Dirección del viento	9.66
14735	7	Sololá	712	San Antonio Palopó	9	San Antonio Palopo	10	Octubre	2023-10-23T00:00:00	2024-11-08T03:00:00	1	Precipitación	0
14736	7	Sololá	712	San Antonio Palopó	9	San Antonio Palopo	10	Octubre	2023-10-23T00:00:00	2024-11-08T03:00:00	8	Radiación solar	0
14737	7	Sololá	712	San Antonio Palopó	9	San Antonio Palopo	10	Octubre	2023-10-23T00:00:00	2024-11-08T04:00:00	2	Temperatura media	18.3
14738	7	Sololá	712	San Antonio Palopó	9	San Antonio Palopo	10	Octubre	2023-10-23T00:00:00	2024-11-08T04:00:00	4	Temperatura máxima	18.9
14739	7	Sololá	712	San Antonio Palopó	9	San Antonio Palopo	10	Octubre	2023-10-23T00:00:00	2024-11-08T04:00:00	3	Temperatura mínima	18.2
14740	7	Sololá	712	San Antonio Palopó	9	San Antonio Palopo	10	Octubre	2023-10-23T00:00:00	2024-11-08T04:00:00	5	Humedad	82
14741	7	Sololá	712	San Antonio Palopó	9	San Antonio Palopo	10	Octubre	2023-10-23T00:00:00	2024-11-08T04:00:00	6	Velocidad del viento	6.4
14742	7	Sololá	712	San Antonio Palopó	9	San Antonio Palopo	10	Octubre	2023-10-23T00:00:00	2024-11-08T04:00:00	7	Dirección del viento	6.44
14743	7	Sololá	712	San Antonio Palopó	9	San Antonio Palopo	10	Octubre	2023-10-23T00:00:00	2024-11-08T04:00:00	1	Precipitación	0
14744	7	Sololá	712	San Antonio Palopó	9	San Antonio Palopo	10	Octubre	2023-10-23T00:00:00	2024-11-08T04:00:00	8	Radiación solar	0
14745	7	Sololá	712	San Antonio Palopó	9	San Antonio Palopo	10	Octubre	2023-10-23T00:00:00	2024-11-08T05:00:00	2	Temperatura media	18.3
14746	7	Sololá	712	San Antonio Palopó	9	San Antonio Palopo	10	Octubre	2023-10-23T00:00:00	2024-11-08T05:00:00	4	Temperatura máxima	18.7
14747	7	Sololá	712	San Antonio Palopó	9	San Antonio Palopo	10	Octubre	2023-10-23T00:00:00	2024-11-08T05:00:00	3	Temperatura mínima	18.2
14748	7	Sololá	712	San Antonio Palopó	9	San Antonio Palopo	10	Octubre	2023-10-23T00:00:00	2024-11-08T05:00:00	5	Humedad	77
14749	7	Sololá	712	San Antonio Palopó	9	San Antonio Palopo	10	Octubre	2023-10-23T00:00:00	2024-11-08T05:00:00	6	Velocidad del viento	8
14750	7	Sololá	712	San Antonio Palopó	9	San Antonio Palopo	10	Octubre	2023-10-23T00:00:00	2024-11-08T05:00:00	7	Dirección del viento	8.05
14751	7	Sololá	712	San Antonio Palopó	9	San Antonio Palopo	10	Octubre	2023-10-23T00:00:00	2024-11-08T05:00:00	1	Precipitación	0
14752	7	Sololá	712	San Antonio Palopó	9	San Antonio Palopo	10	Octubre	2023-10-23T00:00:00	2024-11-08T05:00:00	8	Radiación solar	0
14753	7	Sololá	712	San Antonio Palopó	9	San Antonio Palopo	10	Octubre	2023-10-23T00:00:00	2024-11-08T06:00:00	2	Temperatura media	18
14754	7	Sololá	712	San Antonio Palopó	9	San Antonio Palopo	10	Octubre	2023-10-23T00:00:00	2024-11-08T06:00:00	4	Temperatura máxima	18.3
14755	7	Sololá	712	San Antonio Palopó	9	San Antonio Palopo	10	Octubre	2023-10-23T00:00:00	2024-11-08T06:00:00	3	Temperatura mínima	17.7
14756	7	Sololá	712	San Antonio Palopó	9	San Antonio Palopo	10	Octubre	2023-10-23T00:00:00	2024-11-08T06:00:00	5	Humedad	78
14757	7	Sololá	712	San Antonio Palopó	9	San Antonio Palopo	10	Octubre	2023-10-23T00:00:00	2024-11-08T06:00:00	6	Velocidad del viento	14.5
14758	7	Sololá	712	San Antonio Palopó	9	San Antonio Palopo	10	Octubre	2023-10-23T00:00:00	2024-11-08T06:00:00	7	Dirección del viento	14.48
14759	7	Sololá	712	San Antonio Palopó	9	San Antonio Palopo	10	Octubre	2023-10-23T00:00:00	2024-11-08T06:00:00	1	Precipitación	0
14760	7	Sololá	712	San Antonio Palopó	9	San Antonio Palopo	10	Octubre	2023-10-23T00:00:00	2024-11-08T06:00:00	8	Radiación solar	0
14761	7	Sololá	712	San Antonio Palopó	9	San Antonio Palopo	10	Octubre	2023-10-23T00:00:00	2024-11-08T07:00:00	2	Temperatura media	18.2
14762	7	Sololá	712	San Antonio Palopó	9	San Antonio Palopo	10	Octubre	2023-10-23T00:00:00	2024-11-08T07:00:00	4	Temperatura máxima	18.3
14763	7	Sololá	712	San Antonio Palopó	9	San Antonio Palopo	10	Octubre	2023-10-23T00:00:00	2024-11-08T07:00:00	3	Temperatura mínima	17.9
14764	7	Sololá	712	San Antonio Palopó	9	San Antonio Palopo	10	Octubre	2023-10-23T00:00:00	2024-11-08T07:00:00	5	Humedad	76
14765	7	Sololá	712	San Antonio Palopó	9	San Antonio Palopo	10	Octubre	2023-10-23T00:00:00	2024-11-08T07:00:00	6	Velocidad del viento	12.9
14766	7	Sololá	712	San Antonio Palopó	9	San Antonio Palopo	10	Octubre	2023-10-23T00:00:00	2024-11-08T07:00:00	7	Dirección del viento	12.87
14767	7	Sololá	712	San Antonio Palopó	9	San Antonio Palopo	10	Octubre	2023-10-23T00:00:00	2024-11-08T07:00:00	1	Precipitación	0
14768	7	Sololá	712	San Antonio Palopó	9	San Antonio Palopo	10	Octubre	2023-10-23T00:00:00	2024-11-08T07:00:00	8	Radiación solar	17
14769	7	Sololá	712	San Antonio Palopó	9	San Antonio Palopo	10	Octubre	2023-10-23T00:00:00	2024-11-08T08:00:00	2	Temperatura media	19.7
14770	7	Sololá	712	San Antonio Palopó	9	San Antonio Palopo	10	Octubre	2023-10-23T00:00:00	2024-11-08T08:00:00	4	Temperatura máxima	19.7
14771	7	Sololá	712	San Antonio Palopó	9	San Antonio Palopo	10	Octubre	2023-10-23T00:00:00	2024-11-08T08:00:00	3	Temperatura mínima	18.2
14772	7	Sololá	712	San Antonio Palopó	9	San Antonio Palopo	10	Octubre	2023-10-23T00:00:00	2024-11-08T08:00:00	5	Humedad	75
14773	7	Sololá	712	San Antonio Palopó	9	San Antonio Palopo	10	Octubre	2023-10-23T00:00:00	2024-11-08T08:00:00	6	Velocidad del viento	8
14774	7	Sololá	712	San Antonio Palopó	9	San Antonio Palopo	10	Octubre	2023-10-23T00:00:00	2024-11-08T08:00:00	7	Dirección del viento	8.05
14775	7	Sololá	712	San Antonio Palopó	9	San Antonio Palopo	10	Octubre	2023-10-23T00:00:00	2024-11-08T08:00:00	1	Precipitación	0
14776	7	Sololá	712	San Antonio Palopó	9	San Antonio Palopo	10	Octubre	2023-10-23T00:00:00	2024-11-08T08:00:00	8	Radiación solar	96
14777	7	Sololá	712	San Antonio Palopó	9	San Antonio Palopo	10	Octubre	2023-10-23T00:00:00	2024-11-08T09:00:00	2	Temperatura media	20.7
14778	7	Sololá	712	San Antonio Palopó	9	San Antonio Palopo	10	Octubre	2023-10-23T00:00:00	2024-11-08T09:00:00	4	Temperatura máxima	21.6
14779	7	Sololá	712	San Antonio Palopó	9	San Antonio Palopo	10	Octubre	2023-10-23T00:00:00	2024-11-08T09:00:00	3	Temperatura mínima	19.7
14780	7	Sololá	712	San Antonio Palopó	9	San Antonio Palopo	10	Octubre	2023-10-23T00:00:00	2024-11-08T09:00:00	5	Humedad	73
14781	7	Sololá	712	San Antonio Palopó	9	San Antonio Palopo	10	Octubre	2023-10-23T00:00:00	2024-11-08T09:00:00	6	Velocidad del viento	3.2
14782	7	Sololá	712	San Antonio Palopó	9	San Antonio Palopo	10	Octubre	2023-10-23T00:00:00	2024-11-08T09:00:00	7	Dirección del viento	3.22
14783	7	Sololá	712	San Antonio Palopó	9	San Antonio Palopo	10	Octubre	2023-10-23T00:00:00	2024-11-08T09:00:00	1	Precipitación	0
14784	7	Sololá	712	San Antonio Palopó	9	San Antonio Palopo	10	Octubre	2023-10-23T00:00:00	2024-11-08T09:00:00	8	Radiación solar	479
14785	7	Sololá	712	San Antonio Palopó	9	San Antonio Palopo	10	Octubre	2023-10-23T00:00:00	2024-11-08T10:00:00	2	Temperatura media	21.3
14786	7	Sololá	712	San Antonio Palopó	9	San Antonio Palopo	10	Octubre	2023-10-23T00:00:00	2024-11-08T10:00:00	4	Temperatura máxima	21.6
14787	7	Sololá	712	San Antonio Palopó	9	San Antonio Palopo	10	Octubre	2023-10-23T00:00:00	2024-11-08T10:00:00	3	Temperatura mínima	20.6
14788	7	Sololá	712	San Antonio Palopó	9	San Antonio Palopo	10	Octubre	2023-10-23T00:00:00	2024-11-08T10:00:00	5	Humedad	72
14789	7	Sololá	712	San Antonio Palopó	9	San Antonio Palopo	10	Octubre	2023-10-23T00:00:00	2024-11-08T10:00:00	6	Velocidad del viento	3.2
14790	7	Sololá	712	San Antonio Palopó	9	San Antonio Palopo	10	Octubre	2023-10-23T00:00:00	2024-11-08T10:00:00	7	Dirección del viento	3.22
14791	7	Sololá	712	San Antonio Palopó	9	San Antonio Palopo	10	Octubre	2023-10-23T00:00:00	2024-11-08T10:00:00	1	Precipitación	0
14792	7	Sololá	712	San Antonio Palopó	9	San Antonio Palopo	10	Octubre	2023-10-23T00:00:00	2024-11-08T10:00:00	8	Radiación solar	653
14793	7	Sololá	712	San Antonio Palopó	9	San Antonio Palopo	10	Octubre	2023-10-23T00:00:00	2024-11-08T11:00:00	2	Temperatura media	22.6
14794	7	Sololá	712	San Antonio Palopó	9	San Antonio Palopo	10	Octubre	2023-10-23T00:00:00	2024-11-08T11:00:00	4	Temperatura máxima	22.8
14795	7	Sololá	712	San Antonio Palopó	9	San Antonio Palopo	10	Octubre	2023-10-23T00:00:00	2024-11-08T11:00:00	3	Temperatura mínima	21.3
14796	7	Sololá	712	San Antonio Palopó	9	San Antonio Palopo	10	Octubre	2023-10-23T00:00:00	2024-11-08T11:00:00	5	Humedad	70
14797	7	Sololá	712	San Antonio Palopó	9	San Antonio Palopo	10	Octubre	2023-10-23T00:00:00	2024-11-08T11:00:00	6	Velocidad del viento	3.2
14798	7	Sololá	712	San Antonio Palopó	9	San Antonio Palopo	10	Octubre	2023-10-23T00:00:00	2024-11-08T11:00:00	7	Dirección del viento	3.22
14799	7	Sololá	712	San Antonio Palopó	9	San Antonio Palopo	10	Octubre	2023-10-23T00:00:00	2024-11-08T11:00:00	1	Precipitación	0
14800	7	Sololá	712	San Antonio Palopó	9	San Antonio Palopo	10	Octubre	2023-10-23T00:00:00	2024-11-08T11:00:00	8	Radiación solar	868
14801	7	Sololá	712	San Antonio Palopó	9	San Antonio Palopo	10	Octubre	2023-10-23T00:00:00	2024-11-08T12:00:00	2	Temperatura media	23.8
14802	7	Sololá	712	San Antonio Palopó	9	San Antonio Palopo	10	Octubre	2023-10-23T00:00:00	2024-11-08T12:00:00	4	Temperatura máxima	23.8
14803	7	Sololá	712	San Antonio Palopó	9	San Antonio Palopo	10	Octubre	2023-10-23T00:00:00	2024-11-08T12:00:00	3	Temperatura mínima	22.5
14804	7	Sololá	712	San Antonio Palopó	9	San Antonio Palopo	10	Octubre	2023-10-23T00:00:00	2024-11-08T12:00:00	5	Humedad	76
14805	7	Sololá	712	San Antonio Palopó	9	San Antonio Palopo	10	Octubre	2023-10-23T00:00:00	2024-11-08T12:00:00	6	Velocidad del viento	3.2
14806	7	Sololá	712	San Antonio Palopó	9	San Antonio Palopo	10	Octubre	2023-10-23T00:00:00	2024-11-08T12:00:00	7	Dirección del viento	3.22
14807	7	Sololá	712	San Antonio Palopó	9	San Antonio Palopo	10	Octubre	2023-10-23T00:00:00	2024-11-08T12:00:00	1	Precipitación	0
14808	7	Sololá	712	San Antonio Palopó	9	San Antonio Palopo	10	Octubre	2023-10-23T00:00:00	2024-11-08T12:00:00	8	Radiación solar	826
14809	7	Sololá	712	San Antonio Palopó	9	San Antonio Palopo	10	Octubre	2023-10-23T00:00:00	2024-11-08T13:00:00	2	Temperatura media	24.6
14810	7	Sololá	712	San Antonio Palopó	9	San Antonio Palopo	10	Octubre	2023-10-23T00:00:00	2024-11-08T13:00:00	4	Temperatura máxima	24.6
14811	7	Sololá	712	San Antonio Palopó	9	San Antonio Palopo	10	Octubre	2023-10-23T00:00:00	2024-11-08T13:00:00	3	Temperatura mínima	23.2
14812	7	Sololá	712	San Antonio Palopó	9	San Antonio Palopo	10	Octubre	2023-10-23T00:00:00	2024-11-08T13:00:00	5	Humedad	69
14813	7	Sololá	712	San Antonio Palopó	9	San Antonio Palopo	10	Octubre	2023-10-23T00:00:00	2024-11-08T13:00:00	6	Velocidad del viento	6.4
14814	7	Sololá	712	San Antonio Palopó	9	San Antonio Palopo	10	Octubre	2023-10-23T00:00:00	2024-11-08T13:00:00	7	Dirección del viento	6.44
14815	7	Sololá	712	San Antonio Palopó	9	San Antonio Palopo	10	Octubre	2023-10-23T00:00:00	2024-11-08T13:00:00	1	Precipitación	0
14816	7	Sololá	712	San Antonio Palopó	9	San Antonio Palopo	10	Octubre	2023-10-23T00:00:00	2024-11-08T13:00:00	8	Radiación solar	884
14817	7	Sololá	712	San Antonio Palopó	9	San Antonio Palopo	10	Octubre	2023-10-23T00:00:00	2024-11-08T14:00:00	2	Temperatura media	24.1
14818	7	Sololá	712	San Antonio Palopó	9	San Antonio Palopo	10	Octubre	2023-10-23T00:00:00	2024-11-08T14:00:00	4	Temperatura máxima	24.8
14819	7	Sololá	712	San Antonio Palopó	9	San Antonio Palopo	10	Octubre	2023-10-23T00:00:00	2024-11-08T14:00:00	3	Temperatura mínima	24.1
14820	7	Sololá	712	San Antonio Palopó	9	San Antonio Palopo	10	Octubre	2023-10-23T00:00:00	2024-11-08T14:00:00	5	Humedad	71
14821	7	Sololá	712	San Antonio Palopó	9	San Antonio Palopo	10	Octubre	2023-10-23T00:00:00	2024-11-08T14:00:00	6	Velocidad del viento	8
14822	7	Sololá	712	San Antonio Palopó	9	San Antonio Palopo	10	Octubre	2023-10-23T00:00:00	2024-11-08T14:00:00	7	Dirección del viento	8.05
14823	7	Sololá	712	San Antonio Palopó	9	San Antonio Palopo	10	Octubre	2023-10-23T00:00:00	2024-11-08T14:00:00	1	Precipitación	0
14824	7	Sololá	712	San Antonio Palopó	9	San Antonio Palopo	10	Octubre	2023-10-23T00:00:00	2024-11-08T14:00:00	8	Radiación solar	811
14825	7	Sololá	712	San Antonio Palopó	9	San Antonio Palopo	10	Octubre	2023-10-23T00:00:00	2024-11-08T15:00:00	2	Temperatura media	23.6
14826	7	Sololá	712	San Antonio Palopó	9	San Antonio Palopo	10	Octubre	2023-10-23T00:00:00	2024-11-08T15:00:00	4	Temperatura máxima	24.1
14827	7	Sololá	712	San Antonio Palopó	9	San Antonio Palopo	10	Octubre	2023-10-23T00:00:00	2024-11-08T15:00:00	3	Temperatura mínima	22.8
14828	7	Sololá	712	San Antonio Palopó	9	San Antonio Palopo	10	Octubre	2023-10-23T00:00:00	2024-11-08T15:00:00	5	Humedad	75
14829	7	Sololá	712	San Antonio Palopó	9	San Antonio Palopo	10	Octubre	2023-10-23T00:00:00	2024-11-08T15:00:00	6	Velocidad del viento	9.7
14830	7	Sololá	712	San Antonio Palopó	9	San Antonio Palopo	10	Octubre	2023-10-23T00:00:00	2024-11-08T15:00:00	7	Dirección del viento	9.66
14831	7	Sololá	712	San Antonio Palopó	9	San Antonio Palopo	10	Octubre	2023-10-23T00:00:00	2024-11-08T15:00:00	1	Precipitación	0
14832	7	Sololá	712	San Antonio Palopó	9	San Antonio Palopo	10	Octubre	2023-10-23T00:00:00	2024-11-08T15:00:00	8	Radiación solar	568
14833	7	Sololá	712	San Antonio Palopó	9	San Antonio Palopo	10	Octubre	2023-10-23T00:00:00	2024-11-08T16:00:00	2	Temperatura media	22.8
14834	7	Sololá	712	San Antonio Palopó	9	San Antonio Palopo	10	Octubre	2023-10-23T00:00:00	2024-11-08T16:00:00	4	Temperatura máxima	23.9
14835	7	Sololá	712	San Antonio Palopó	9	San Antonio Palopo	10	Octubre	2023-10-23T00:00:00	2024-11-08T16:00:00	3	Temperatura mínima	22.7
14836	7	Sololá	712	San Antonio Palopó	9	San Antonio Palopo	10	Octubre	2023-10-23T00:00:00	2024-11-08T16:00:00	5	Humedad	74
14837	7	Sololá	712	San Antonio Palopó	9	San Antonio Palopo	10	Octubre	2023-10-23T00:00:00	2024-11-08T16:00:00	6	Velocidad del viento	6.4
14838	7	Sololá	712	San Antonio Palopó	9	San Antonio Palopo	10	Octubre	2023-10-23T00:00:00	2024-11-08T16:00:00	7	Dirección del viento	6.44
14839	7	Sololá	712	San Antonio Palopó	9	San Antonio Palopo	10	Octubre	2023-10-23T00:00:00	2024-11-08T16:00:00	1	Precipitación	0
14840	7	Sololá	712	San Antonio Palopó	9	San Antonio Palopo	10	Octubre	2023-10-23T00:00:00	2024-11-08T16:00:00	8	Radiación solar	412
14841	7	Sololá	712	San Antonio Palopó	9	San Antonio Palopo	10	Octubre	2023-10-23T00:00:00	2024-11-08T17:00:00	2	Temperatura media	22.9
14842	7	Sololá	712	San Antonio Palopó	9	San Antonio Palopo	10	Octubre	2023-10-23T00:00:00	2024-11-08T17:00:00	4	Temperatura máxima	24.3
14843	7	Sololá	712	San Antonio Palopó	9	San Antonio Palopo	10	Octubre	2023-10-23T00:00:00	2024-11-08T17:00:00	3	Temperatura mínima	22.3
14844	7	Sololá	712	San Antonio Palopó	9	San Antonio Palopo	10	Octubre	2023-10-23T00:00:00	2024-11-08T17:00:00	5	Humedad	77
14845	7	Sololá	712	San Antonio Palopó	9	San Antonio Palopo	10	Octubre	2023-10-23T00:00:00	2024-11-08T17:00:00	6	Velocidad del viento	3.2
14846	7	Sololá	712	San Antonio Palopó	9	San Antonio Palopo	10	Octubre	2023-10-23T00:00:00	2024-11-08T17:00:00	7	Dirección del viento	3.22
14847	7	Sololá	712	San Antonio Palopó	9	San Antonio Palopo	10	Octubre	2023-10-23T00:00:00	2024-11-08T17:00:00	1	Precipitación	0
14848	7	Sololá	712	San Antonio Palopó	9	San Antonio Palopo	10	Octubre	2023-10-23T00:00:00	2024-11-08T17:00:00	8	Radiación solar	188
14849	7	Sololá	712	San Antonio Palopó	9	San Antonio Palopo	10	Octubre	2023-10-23T00:00:00	2024-11-08T18:00:00	2	Temperatura media	21.4
14850	7	Sololá	712	San Antonio Palopó	9	San Antonio Palopo	10	Octubre	2023-10-23T00:00:00	2024-11-08T18:00:00	4	Temperatura máxima	22.9
14851	7	Sololá	712	San Antonio Palopó	9	San Antonio Palopo	10	Octubre	2023-10-23T00:00:00	2024-11-08T18:00:00	3	Temperatura mínima	21.3
14852	7	Sololá	712	San Antonio Palopó	9	San Antonio Palopo	10	Octubre	2023-10-23T00:00:00	2024-11-08T18:00:00	5	Humedad	79
14853	7	Sololá	712	San Antonio Palopó	9	San Antonio Palopo	10	Octubre	2023-10-23T00:00:00	2024-11-08T18:00:00	6	Velocidad del viento	3.2
14854	7	Sololá	712	San Antonio Palopó	9	San Antonio Palopo	10	Octubre	2023-10-23T00:00:00	2024-11-08T18:00:00	7	Dirección del viento	3.22
14855	7	Sololá	712	San Antonio Palopó	9	San Antonio Palopo	10	Octubre	2023-10-23T00:00:00	2024-11-08T18:00:00	1	Precipitación	0
14856	7	Sololá	712	San Antonio Palopó	9	San Antonio Palopo	10	Octubre	2023-10-23T00:00:00	2024-11-08T18:00:00	8	Radiación solar	11
14857	7	Sololá	712	San Antonio Palopó	9	San Antonio Palopo	10	Octubre	2023-10-23T00:00:00	2024-11-08T19:00:00	2	Temperatura media	20.6
14858	7	Sololá	712	San Antonio Palopó	9	San Antonio Palopo	10	Octubre	2023-10-23T00:00:00	2024-11-08T19:00:00	4	Temperatura máxima	21.4
14859	7	Sololá	712	San Antonio Palopó	9	San Antonio Palopo	10	Octubre	2023-10-23T00:00:00	2024-11-08T19:00:00	3	Temperatura mínima	20.6
14860	7	Sololá	712	San Antonio Palopó	9	San Antonio Palopo	10	Octubre	2023-10-23T00:00:00	2024-11-08T19:00:00	5	Humedad	82
14861	7	Sololá	712	San Antonio Palopó	9	San Antonio Palopo	10	Octubre	2023-10-23T00:00:00	2024-11-08T19:00:00	6	Velocidad del viento	4.8
14862	7	Sololá	712	San Antonio Palopó	9	San Antonio Palopo	10	Octubre	2023-10-23T00:00:00	2024-11-08T19:00:00	7	Dirección del viento	4.83
14863	7	Sololá	712	San Antonio Palopó	9	San Antonio Palopo	10	Octubre	2023-10-23T00:00:00	2024-11-08T19:00:00	1	Precipitación	0
14864	7	Sololá	712	San Antonio Palopó	9	San Antonio Palopo	10	Octubre	2023-10-23T00:00:00	2024-11-08T19:00:00	8	Radiación solar	0
14865	7	Sololá	712	San Antonio Palopó	9	San Antonio Palopo	10	Octubre	2023-10-23T00:00:00	2024-11-08T20:00:00	2	Temperatura media	20.9
14866	7	Sololá	712	San Antonio Palopó	9	San Antonio Palopo	10	Octubre	2023-10-23T00:00:00	2024-11-08T20:00:00	4	Temperatura máxima	20.9
14867	7	Sololá	712	San Antonio Palopó	9	San Antonio Palopo	10	Octubre	2023-10-23T00:00:00	2024-11-08T20:00:00	3	Temperatura mínima	20.6
14868	7	Sololá	712	San Antonio Palopó	9	San Antonio Palopo	10	Octubre	2023-10-23T00:00:00	2024-11-08T20:00:00	5	Humedad	82
14869	7	Sololá	712	San Antonio Palopó	9	San Antonio Palopo	10	Octubre	2023-10-23T00:00:00	2024-11-08T20:00:00	6	Velocidad del viento	1.6
14870	7	Sololá	712	San Antonio Palopó	9	San Antonio Palopo	10	Octubre	2023-10-23T00:00:00	2024-11-08T20:00:00	7	Dirección del viento	1.61
14871	7	Sololá	712	San Antonio Palopó	9	San Antonio Palopo	10	Octubre	2023-10-23T00:00:00	2024-11-08T20:00:00	1	Precipitación	0
14872	7	Sololá	712	San Antonio Palopó	9	San Antonio Palopo	10	Octubre	2023-10-23T00:00:00	2024-11-08T20:00:00	8	Radiación solar	0
14873	7	Sololá	712	San Antonio Palopó	9	San Antonio Palopo	10	Octubre	2023-10-23T00:00:00	2024-11-08T21:00:00	2	Temperatura media	20.4
14874	7	Sololá	712	San Antonio Palopó	9	San Antonio Palopo	10	Octubre	2023-10-23T00:00:00	2024-11-08T21:00:00	4	Temperatura máxima	20.9
14875	7	Sololá	712	San Antonio Palopó	9	San Antonio Palopo	10	Octubre	2023-10-23T00:00:00	2024-11-08T21:00:00	3	Temperatura mínima	20.4
14876	7	Sololá	712	San Antonio Palopó	9	San Antonio Palopo	10	Octubre	2023-10-23T00:00:00	2024-11-08T21:00:00	5	Humedad	86
14877	7	Sololá	712	San Antonio Palopó	9	San Antonio Palopo	10	Octubre	2023-10-23T00:00:00	2024-11-08T21:00:00	6	Velocidad del viento	1.6
14878	7	Sololá	712	San Antonio Palopó	9	San Antonio Palopo	10	Octubre	2023-10-23T00:00:00	2024-11-08T21:00:00	7	Dirección del viento	1.61
14879	7	Sololá	712	San Antonio Palopó	9	San Antonio Palopo	10	Octubre	2023-10-23T00:00:00	2024-11-08T21:00:00	1	Precipitación	0
14880	7	Sololá	712	San Antonio Palopó	9	San Antonio Palopo	10	Octubre	2023-10-23T00:00:00	2024-11-08T21:00:00	8	Radiación solar	0
14881	7	Sololá	712	San Antonio Palopó	9	San Antonio Palopo	10	Octubre	2023-10-23T00:00:00	2024-11-08T22:00:00	2	Temperatura media	19.9
14882	7	Sololá	712	San Antonio Palopó	9	San Antonio Palopo	10	Octubre	2023-10-23T00:00:00	2024-11-08T22:00:00	4	Temperatura máxima	20.4
14883	7	Sololá	712	San Antonio Palopó	9	San Antonio Palopo	10	Octubre	2023-10-23T00:00:00	2024-11-08T22:00:00	3	Temperatura mínima	19.9
14884	7	Sololá	712	San Antonio Palopó	9	San Antonio Palopo	10	Octubre	2023-10-23T00:00:00	2024-11-08T22:00:00	5	Humedad	84
14885	7	Sololá	712	San Antonio Palopó	9	San Antonio Palopo	10	Octubre	2023-10-23T00:00:00	2024-11-08T22:00:00	6	Velocidad del viento	4.8
14886	7	Sololá	712	San Antonio Palopó	9	San Antonio Palopo	10	Octubre	2023-10-23T00:00:00	2024-11-08T22:00:00	7	Dirección del viento	4.83
14887	7	Sololá	712	San Antonio Palopó	9	San Antonio Palopo	10	Octubre	2023-10-23T00:00:00	2024-11-08T22:00:00	1	Precipitación	0
14888	7	Sololá	712	San Antonio Palopó	9	San Antonio Palopo	10	Octubre	2023-10-23T00:00:00	2024-11-08T22:00:00	8	Radiación solar	0
14889	7	Sololá	712	San Antonio Palopó	9	San Antonio Palopo	10	Octubre	2023-10-23T00:00:00	2024-11-08T23:00:00	2	Temperatura media	19.8
14890	7	Sololá	712	San Antonio Palopó	9	San Antonio Palopo	10	Octubre	2023-10-23T00:00:00	2024-11-08T23:00:00	4	Temperatura máxima	20
14891	7	Sololá	712	San Antonio Palopó	9	San Antonio Palopo	10	Octubre	2023-10-23T00:00:00	2024-11-08T23:00:00	3	Temperatura mínima	19.8
14892	7	Sololá	712	San Antonio Palopó	9	San Antonio Palopo	10	Octubre	2023-10-23T00:00:00	2024-11-08T23:00:00	5	Humedad	84
14893	7	Sololá	712	San Antonio Palopó	9	San Antonio Palopo	10	Octubre	2023-10-23T00:00:00	2024-11-08T23:00:00	6	Velocidad del viento	4.8
14894	7	Sololá	712	San Antonio Palopó	9	San Antonio Palopo	10	Octubre	2023-10-23T00:00:00	2024-11-08T23:00:00	7	Dirección del viento	4.83
14895	7	Sololá	712	San Antonio Palopó	9	San Antonio Palopo	10	Octubre	2023-10-23T00:00:00	2024-11-08T23:00:00	1	Precipitación	0
14896	7	Sololá	712	San Antonio Palopó	9	San Antonio Palopo	10	Octubre	2023-10-23T00:00:00	2024-11-08T23:00:00	8	Radiación solar	0
14897	7	Sololá	712	San Antonio Palopó	9	San Antonio Palopo	10	Octubre	2023-10-24T00:00:00	2024-11-08T00:00:00	2	Temperatura media	19.4
14898	7	Sololá	712	San Antonio Palopó	9	San Antonio Palopo	10	Octubre	2023-10-24T00:00:00	2024-11-08T00:00:00	4	Temperatura máxima	19.9
14899	7	Sololá	712	San Antonio Palopó	9	San Antonio Palopo	10	Octubre	2023-10-24T00:00:00	2024-11-08T00:00:00	3	Temperatura mínima	19.4
14900	7	Sololá	712	San Antonio Palopó	9	San Antonio Palopo	10	Octubre	2023-10-24T00:00:00	2024-11-08T00:00:00	5	Humedad	85
14901	7	Sololá	712	San Antonio Palopó	9	San Antonio Palopo	10	Octubre	2023-10-24T00:00:00	2024-11-08T00:00:00	6	Velocidad del viento	3.2
14902	7	Sololá	712	San Antonio Palopó	9	San Antonio Palopo	10	Octubre	2023-10-24T00:00:00	2024-11-08T00:00:00	7	Dirección del viento	3.22
14903	7	Sololá	712	San Antonio Palopó	9	San Antonio Palopo	10	Octubre	2023-10-24T00:00:00	2024-11-08T00:00:00	1	Precipitación	0
14904	7	Sololá	712	San Antonio Palopó	9	San Antonio Palopo	10	Octubre	2023-10-24T00:00:00	2024-11-08T00:00:00	8	Radiación solar	0
14905	7	Sololá	712	San Antonio Palopó	9	San Antonio Palopo	10	Octubre	2023-10-24T00:00:00	2024-11-08T01:00:00	2	Temperatura media	19.3
14906	7	Sololá	712	San Antonio Palopó	9	San Antonio Palopo	10	Octubre	2023-10-24T00:00:00	2024-11-08T01:00:00	4	Temperatura máxima	19.6
14907	7	Sololá	712	San Antonio Palopó	9	San Antonio Palopo	10	Octubre	2023-10-24T00:00:00	2024-11-08T01:00:00	3	Temperatura mínima	19.1
14908	7	Sololá	712	San Antonio Palopó	9	San Antonio Palopo	10	Octubre	2023-10-24T00:00:00	2024-11-08T01:00:00	5	Humedad	86
14909	7	Sololá	712	San Antonio Palopó	9	San Antonio Palopo	10	Octubre	2023-10-24T00:00:00	2024-11-08T01:00:00	6	Velocidad del viento	1.6
14910	7	Sololá	712	San Antonio Palopó	9	San Antonio Palopo	10	Octubre	2023-10-24T00:00:00	2024-11-08T01:00:00	7	Dirección del viento	1.61
14911	7	Sololá	712	San Antonio Palopó	9	San Antonio Palopo	10	Octubre	2023-10-24T00:00:00	2024-11-08T01:00:00	1	Precipitación	0
14912	7	Sololá	712	San Antonio Palopó	9	San Antonio Palopo	10	Octubre	2023-10-24T00:00:00	2024-11-08T01:00:00	8	Radiación solar	0
14913	7	Sololá	712	San Antonio Palopó	9	San Antonio Palopo	10	Octubre	2023-10-24T00:00:00	2024-11-08T02:00:00	2	Temperatura media	19.3
14914	7	Sololá	712	San Antonio Palopó	9	San Antonio Palopo	10	Octubre	2023-10-24T00:00:00	2024-11-08T02:00:00	4	Temperatura máxima	19.5
14915	7	Sololá	712	San Antonio Palopó	9	San Antonio Palopo	10	Octubre	2023-10-24T00:00:00	2024-11-08T02:00:00	3	Temperatura mínima	19.2
14916	7	Sololá	712	San Antonio Palopó	9	San Antonio Palopo	10	Octubre	2023-10-24T00:00:00	2024-11-08T02:00:00	5	Humedad	85
14917	7	Sololá	712	San Antonio Palopó	9	San Antonio Palopo	10	Octubre	2023-10-24T00:00:00	2024-11-08T02:00:00	6	Velocidad del viento	1.6
14918	7	Sololá	712	San Antonio Palopó	9	San Antonio Palopo	10	Octubre	2023-10-24T00:00:00	2024-11-08T02:00:00	7	Dirección del viento	1.61
14919	7	Sololá	712	San Antonio Palopó	9	San Antonio Palopo	10	Octubre	2023-10-24T00:00:00	2024-11-08T02:00:00	1	Precipitación	0
14920	7	Sololá	712	San Antonio Palopó	9	San Antonio Palopo	10	Octubre	2023-10-24T00:00:00	2024-11-08T02:00:00	8	Radiación solar	0
14921	7	Sololá	712	San Antonio Palopó	9	San Antonio Palopo	10	Octubre	2023-10-24T00:00:00	2024-11-08T03:00:00	2	Temperatura media	18.6
14922	7	Sololá	712	San Antonio Palopó	9	San Antonio Palopo	10	Octubre	2023-10-24T00:00:00	2024-11-08T03:00:00	4	Temperatura máxima	19.4
14923	7	Sololá	712	San Antonio Palopó	9	San Antonio Palopo	10	Octubre	2023-10-24T00:00:00	2024-11-08T03:00:00	3	Temperatura mínima	18.6
14924	7	Sololá	712	San Antonio Palopó	9	San Antonio Palopo	10	Octubre	2023-10-24T00:00:00	2024-11-08T03:00:00	5	Humedad	85
14925	7	Sololá	712	San Antonio Palopó	9	San Antonio Palopo	10	Octubre	2023-10-24T00:00:00	2024-11-08T03:00:00	6	Velocidad del viento	1.6
14926	7	Sololá	712	San Antonio Palopó	9	San Antonio Palopo	10	Octubre	2023-10-24T00:00:00	2024-11-08T03:00:00	7	Dirección del viento	1.61
14927	7	Sololá	712	San Antonio Palopó	9	San Antonio Palopo	10	Octubre	2023-10-24T00:00:00	2024-11-08T03:00:00	1	Precipitación	0
14928	7	Sololá	712	San Antonio Palopó	9	San Antonio Palopo	10	Octubre	2023-10-24T00:00:00	2024-11-08T03:00:00	8	Radiación solar	0
14929	7	Sololá	712	San Antonio Palopó	9	San Antonio Palopo	10	Octubre	2023-10-24T00:00:00	2024-11-08T04:00:00	2	Temperatura media	19.6
14930	7	Sololá	712	San Antonio Palopó	9	San Antonio Palopo	10	Octubre	2023-10-24T00:00:00	2024-11-08T04:00:00	4	Temperatura máxima	19.6
14931	7	Sololá	712	San Antonio Palopó	9	San Antonio Palopo	10	Octubre	2023-10-24T00:00:00	2024-11-08T04:00:00	3	Temperatura mínima	18.6
14932	7	Sololá	712	San Antonio Palopó	9	San Antonio Palopo	10	Octubre	2023-10-24T00:00:00	2024-11-08T04:00:00	5	Humedad	78
14933	7	Sololá	712	San Antonio Palopó	9	San Antonio Palopo	10	Octubre	2023-10-24T00:00:00	2024-11-08T04:00:00	6	Velocidad del viento	4.8
14934	7	Sololá	712	San Antonio Palopó	9	San Antonio Palopo	10	Octubre	2023-10-24T00:00:00	2024-11-08T04:00:00	7	Dirección del viento	4.83
14935	7	Sololá	712	San Antonio Palopó	9	San Antonio Palopo	10	Octubre	2023-10-24T00:00:00	2024-11-08T04:00:00	1	Precipitación	0
14936	7	Sololá	712	San Antonio Palopó	9	San Antonio Palopo	10	Octubre	2023-10-24T00:00:00	2024-11-08T04:00:00	8	Radiación solar	0
14937	7	Sololá	712	San Antonio Palopó	9	San Antonio Palopo	10	Octubre	2023-10-24T00:00:00	2024-11-08T05:00:00	2	Temperatura media	19.5
14938	7	Sololá	712	San Antonio Palopó	9	San Antonio Palopo	10	Octubre	2023-10-24T00:00:00	2024-11-08T05:00:00	4	Temperatura máxima	19.6
14939	7	Sololá	712	San Antonio Palopó	9	San Antonio Palopo	10	Octubre	2023-10-24T00:00:00	2024-11-08T05:00:00	3	Temperatura mínima	19.4
14940	7	Sololá	712	San Antonio Palopó	9	San Antonio Palopo	10	Octubre	2023-10-24T00:00:00	2024-11-08T05:00:00	5	Humedad	77
14941	7	Sololá	712	San Antonio Palopó	9	San Antonio Palopo	10	Octubre	2023-10-24T00:00:00	2024-11-08T05:00:00	6	Velocidad del viento	8
14942	7	Sololá	712	San Antonio Palopó	9	San Antonio Palopo	10	Octubre	2023-10-24T00:00:00	2024-11-08T05:00:00	7	Dirección del viento	8.05
14943	7	Sololá	712	San Antonio Palopó	9	San Antonio Palopo	10	Octubre	2023-10-24T00:00:00	2024-11-08T05:00:00	1	Precipitación	0
14944	7	Sololá	712	San Antonio Palopó	9	San Antonio Palopo	10	Octubre	2023-10-24T00:00:00	2024-11-08T05:00:00	8	Radiación solar	0
14945	7	Sololá	712	San Antonio Palopó	9	San Antonio Palopo	10	Octubre	2023-10-24T00:00:00	2024-11-08T06:00:00	2	Temperatura media	18.7
14946	7	Sololá	712	San Antonio Palopó	9	San Antonio Palopo	10	Octubre	2023-10-24T00:00:00	2024-11-08T06:00:00	4	Temperatura máxima	19.6
14947	7	Sololá	712	San Antonio Palopó	9	San Antonio Palopo	10	Octubre	2023-10-24T00:00:00	2024-11-08T06:00:00	3	Temperatura mínima	18.7
14948	7	Sololá	712	San Antonio Palopó	9	San Antonio Palopo	10	Octubre	2023-10-24T00:00:00	2024-11-08T06:00:00	5	Humedad	86
14949	7	Sololá	712	San Antonio Palopó	9	San Antonio Palopo	10	Octubre	2023-10-24T00:00:00	2024-11-08T06:00:00	6	Velocidad del viento	3.2
14950	7	Sololá	712	San Antonio Palopó	9	San Antonio Palopo	10	Octubre	2023-10-24T00:00:00	2024-11-08T06:00:00	7	Dirección del viento	3.22
14951	7	Sololá	712	San Antonio Palopó	9	San Antonio Palopo	10	Octubre	2023-10-24T00:00:00	2024-11-08T06:00:00	1	Precipitación	0
14952	7	Sololá	712	San Antonio Palopó	9	San Antonio Palopo	10	Octubre	2023-10-24T00:00:00	2024-11-08T06:00:00	8	Radiación solar	0
14953	7	Sololá	712	San Antonio Palopó	9	San Antonio Palopo	10	Octubre	2023-10-24T00:00:00	2024-11-08T07:00:00	2	Temperatura media	18.9
14954	7	Sololá	712	San Antonio Palopó	9	San Antonio Palopo	10	Octubre	2023-10-24T00:00:00	2024-11-08T07:00:00	4	Temperatura máxima	19.1
14955	7	Sololá	712	San Antonio Palopó	9	San Antonio Palopo	10	Octubre	2023-10-24T00:00:00	2024-11-08T07:00:00	3	Temperatura mínima	18.7
14956	7	Sololá	712	San Antonio Palopó	9	San Antonio Palopo	10	Octubre	2023-10-24T00:00:00	2024-11-08T07:00:00	5	Humedad	83
14957	7	Sololá	712	San Antonio Palopó	9	San Antonio Palopo	10	Octubre	2023-10-24T00:00:00	2024-11-08T07:00:00	6	Velocidad del viento	1.6
14958	7	Sololá	712	San Antonio Palopó	9	San Antonio Palopo	10	Octubre	2023-10-24T00:00:00	2024-11-08T07:00:00	7	Dirección del viento	1.61
14959	7	Sololá	712	San Antonio Palopó	9	San Antonio Palopo	10	Octubre	2023-10-24T00:00:00	2024-11-08T07:00:00	1	Precipitación	0
14960	7	Sololá	712	San Antonio Palopó	9	San Antonio Palopo	10	Octubre	2023-10-24T00:00:00	2024-11-08T07:00:00	8	Radiación solar	42
14961	7	Sololá	712	San Antonio Palopó	9	San Antonio Palopo	10	Octubre	2023-10-24T00:00:00	2024-11-08T08:00:00	2	Temperatura media	19.8
14962	7	Sololá	712	San Antonio Palopó	9	San Antonio Palopo	10	Octubre	2023-10-24T00:00:00	2024-11-08T08:00:00	4	Temperatura máxima	19.8
14963	7	Sololá	712	San Antonio Palopó	9	San Antonio Palopo	10	Octubre	2023-10-24T00:00:00	2024-11-08T08:00:00	3	Temperatura mínima	18.9
14964	7	Sololá	712	San Antonio Palopó	9	San Antonio Palopo	10	Octubre	2023-10-24T00:00:00	2024-11-08T08:00:00	5	Humedad	84
14965	7	Sololá	712	San Antonio Palopó	9	San Antonio Palopo	10	Octubre	2023-10-24T00:00:00	2024-11-08T08:00:00	6	Velocidad del viento	1.6
14966	7	Sololá	712	San Antonio Palopó	9	San Antonio Palopo	10	Octubre	2023-10-24T00:00:00	2024-11-08T08:00:00	7	Dirección del viento	1.61
14967	7	Sololá	712	San Antonio Palopó	9	San Antonio Palopo	10	Octubre	2023-10-24T00:00:00	2024-11-08T08:00:00	1	Precipitación	0
14968	7	Sololá	712	San Antonio Palopó	9	San Antonio Palopo	10	Octubre	2023-10-24T00:00:00	2024-11-08T08:00:00	8	Radiación solar	107
14969	7	Sololá	712	San Antonio Palopó	9	San Antonio Palopo	10	Octubre	2023-10-24T00:00:00	2024-11-08T09:00:00	2	Temperatura media	22.3
14970	7	Sololá	712	San Antonio Palopó	9	San Antonio Palopo	10	Octubre	2023-10-24T00:00:00	2024-11-08T09:00:00	4	Temperatura máxima	22.3
14971	7	Sololá	712	San Antonio Palopó	9	San Antonio Palopo	10	Octubre	2023-10-24T00:00:00	2024-11-08T09:00:00	3	Temperatura mínima	19.9
14972	7	Sololá	712	San Antonio Palopó	9	San Antonio Palopo	10	Octubre	2023-10-24T00:00:00	2024-11-08T09:00:00	5	Humedad	75
14973	7	Sololá	712	San Antonio Palopó	9	San Antonio Palopo	10	Octubre	2023-10-24T00:00:00	2024-11-08T09:00:00	6	Velocidad del viento	3.2
14974	7	Sololá	712	San Antonio Palopó	9	San Antonio Palopo	10	Octubre	2023-10-24T00:00:00	2024-11-08T09:00:00	7	Dirección del viento	3.22
14975	7	Sololá	712	San Antonio Palopó	9	San Antonio Palopo	10	Octubre	2023-10-24T00:00:00	2024-11-08T09:00:00	1	Precipitación	0
14976	7	Sololá	712	San Antonio Palopó	9	San Antonio Palopo	10	Octubre	2023-10-24T00:00:00	2024-11-08T09:00:00	8	Radiación solar	480
14977	7	Sololá	712	San Antonio Palopó	9	San Antonio Palopo	10	Octubre	2023-10-24T00:00:00	2024-11-08T10:00:00	2	Temperatura media	22.2
14978	7	Sololá	712	San Antonio Palopó	9	San Antonio Palopo	10	Octubre	2023-10-24T00:00:00	2024-11-08T10:00:00	4	Temperatura máxima	22.4
14979	7	Sololá	712	San Antonio Palopó	9	San Antonio Palopo	10	Octubre	2023-10-24T00:00:00	2024-11-08T10:00:00	3	Temperatura mínima	21.5
14980	7	Sololá	712	San Antonio Palopó	9	San Antonio Palopo	10	Octubre	2023-10-24T00:00:00	2024-11-08T10:00:00	5	Humedad	74
14981	7	Sololá	712	San Antonio Palopó	9	San Antonio Palopo	10	Octubre	2023-10-24T00:00:00	2024-11-08T10:00:00	6	Velocidad del viento	1.6
14982	7	Sololá	712	San Antonio Palopó	9	San Antonio Palopo	10	Octubre	2023-10-24T00:00:00	2024-11-08T10:00:00	7	Dirección del viento	1.61
14983	7	Sololá	712	San Antonio Palopó	9	San Antonio Palopo	10	Octubre	2023-10-24T00:00:00	2024-11-08T10:00:00	1	Precipitación	0
14984	7	Sololá	712	San Antonio Palopó	9	San Antonio Palopo	10	Octubre	2023-10-24T00:00:00	2024-11-08T10:00:00	8	Radiación solar	619
14985	7	Sololá	712	San Antonio Palopó	9	San Antonio Palopo	10	Octubre	2023-10-24T00:00:00	2024-11-08T11:00:00	2	Temperatura media	23.1
14986	7	Sololá	712	San Antonio Palopó	9	San Antonio Palopo	10	Octubre	2023-10-24T00:00:00	2024-11-08T11:00:00	4	Temperatura máxima	23.2
14987	7	Sololá	712	San Antonio Palopó	9	San Antonio Palopo	10	Octubre	2023-10-24T00:00:00	2024-11-08T11:00:00	3	Temperatura mínima	22.2
14988	7	Sololá	712	San Antonio Palopó	9	San Antonio Palopo	10	Octubre	2023-10-24T00:00:00	2024-11-08T11:00:00	5	Humedad	77
14989	7	Sololá	712	San Antonio Palopó	9	San Antonio Palopo	10	Octubre	2023-10-24T00:00:00	2024-11-08T11:00:00	6	Velocidad del viento	4.8
14990	7	Sololá	712	San Antonio Palopó	9	San Antonio Palopo	10	Octubre	2023-10-24T00:00:00	2024-11-08T11:00:00	7	Dirección del viento	4.83
14991	7	Sololá	712	San Antonio Palopó	9	San Antonio Palopo	10	Octubre	2023-10-24T00:00:00	2024-11-08T11:00:00	1	Precipitación	0
14992	7	Sololá	712	San Antonio Palopó	9	San Antonio Palopo	10	Octubre	2023-10-24T00:00:00	2024-11-08T11:00:00	8	Radiación solar	802
14993	7	Sololá	712	San Antonio Palopó	9	San Antonio Palopo	10	Octubre	2023-10-24T00:00:00	2024-11-08T12:00:00	2	Temperatura media	22.9
14994	7	Sololá	712	San Antonio Palopó	9	San Antonio Palopo	10	Octubre	2023-10-24T00:00:00	2024-11-08T12:00:00	4	Temperatura máxima	23.9
14995	7	Sololá	712	San Antonio Palopó	9	San Antonio Palopo	10	Octubre	2023-10-24T00:00:00	2024-11-08T12:00:00	3	Temperatura mínima	22.7
14996	7	Sololá	712	San Antonio Palopó	9	San Antonio Palopo	10	Octubre	2023-10-24T00:00:00	2024-11-08T12:00:00	5	Humedad	78
14997	7	Sololá	712	San Antonio Palopó	9	San Antonio Palopo	10	Octubre	2023-10-24T00:00:00	2024-11-08T12:00:00	6	Velocidad del viento	9.7
14998	7	Sololá	712	San Antonio Palopó	9	San Antonio Palopo	10	Octubre	2023-10-24T00:00:00	2024-11-08T12:00:00	7	Dirección del viento	9.66
14999	7	Sololá	712	San Antonio Palopó	9	San Antonio Palopo	10	Octubre	2023-10-24T00:00:00	2024-11-08T12:00:00	1	Precipitación	0
15000	7	Sololá	712	San Antonio Palopó	9	San Antonio Palopo	10	Octubre	2023-10-24T00:00:00	2024-11-08T12:00:00	8	Radiación solar	764
15001	7	Sololá	712	San Antonio Palopó	9	San Antonio Palopo	10	Octubre	2023-10-24T00:00:00	2024-11-08T13:00:00	2	Temperatura media	20.6
15002	7	Sololá	712	San Antonio Palopó	9	San Antonio Palopo	10	Octubre	2023-10-24T00:00:00	2024-11-08T13:00:00	4	Temperatura máxima	22.8
15003	7	Sololá	712	San Antonio Palopó	9	San Antonio Palopo	10	Octubre	2023-10-24T00:00:00	2024-11-08T13:00:00	3	Temperatura mínima	20.6
15004	7	Sololá	712	San Antonio Palopó	9	San Antonio Palopo	10	Octubre	2023-10-24T00:00:00	2024-11-08T13:00:00	5	Humedad	85
15005	7	Sololá	712	San Antonio Palopó	9	San Antonio Palopo	10	Octubre	2023-10-24T00:00:00	2024-11-08T13:00:00	6	Velocidad del viento	11.3
15006	7	Sololá	712	San Antonio Palopó	9	San Antonio Palopo	10	Octubre	2023-10-24T00:00:00	2024-11-08T13:00:00	7	Dirección del viento	11.27
15007	7	Sololá	712	San Antonio Palopó	9	San Antonio Palopo	10	Octubre	2023-10-24T00:00:00	2024-11-08T13:00:00	1	Precipitación	0
15008	7	Sololá	712	San Antonio Palopó	9	San Antonio Palopo	10	Octubre	2023-10-24T00:00:00	2024-11-08T13:00:00	8	Radiación solar	198
15009	7	Sololá	712	San Antonio Palopó	9	San Antonio Palopo	10	Octubre	2023-10-24T00:00:00	2024-11-08T14:00:00	2	Temperatura media	20.1
15010	7	Sololá	712	San Antonio Palopó	9	San Antonio Palopo	10	Octubre	2023-10-24T00:00:00	2024-11-08T14:00:00	4	Temperatura máxima	20.6
15011	7	Sololá	712	San Antonio Palopó	9	San Antonio Palopo	10	Octubre	2023-10-24T00:00:00	2024-11-08T14:00:00	3	Temperatura mínima	20.1
15012	7	Sololá	712	San Antonio Palopó	9	San Antonio Palopo	10	Octubre	2023-10-24T00:00:00	2024-11-08T14:00:00	5	Humedad	86
15013	7	Sololá	712	San Antonio Palopó	9	San Antonio Palopo	10	Octubre	2023-10-24T00:00:00	2024-11-08T14:00:00	6	Velocidad del viento	8
15014	7	Sololá	712	San Antonio Palopó	9	San Antonio Palopo	10	Octubre	2023-10-24T00:00:00	2024-11-08T14:00:00	7	Dirección del viento	8.05
15015	7	Sololá	712	San Antonio Palopó	9	San Antonio Palopo	10	Octubre	2023-10-24T00:00:00	2024-11-08T14:00:00	1	Precipitación	0.2
15016	7	Sololá	712	San Antonio Palopó	9	San Antonio Palopo	10	Octubre	2023-10-24T00:00:00	2024-11-08T14:00:00	8	Radiación solar	82
15017	7	Sololá	712	San Antonio Palopó	9	San Antonio Palopo	10	Octubre	2023-10-24T00:00:00	2024-11-08T15:00:00	2	Temperatura media	20.2
15018	7	Sololá	712	San Antonio Palopó	9	San Antonio Palopo	10	Octubre	2023-10-24T00:00:00	2024-11-08T15:00:00	4	Temperatura máxima	20.5
15019	7	Sololá	712	San Antonio Palopó	9	San Antonio Palopo	10	Octubre	2023-10-24T00:00:00	2024-11-08T15:00:00	3	Temperatura mínima	20.1
15020	7	Sololá	712	San Antonio Palopó	9	San Antonio Palopo	10	Octubre	2023-10-24T00:00:00	2024-11-08T15:00:00	5	Humedad	86
15021	7	Sololá	712	San Antonio Palopó	9	San Antonio Palopo	10	Octubre	2023-10-24T00:00:00	2024-11-08T15:00:00	6	Velocidad del viento	1.6
15022	7	Sololá	712	San Antonio Palopó	9	San Antonio Palopo	10	Octubre	2023-10-24T00:00:00	2024-11-08T15:00:00	7	Dirección del viento	1.61
15023	7	Sololá	712	San Antonio Palopó	9	San Antonio Palopo	10	Octubre	2023-10-24T00:00:00	2024-11-08T15:00:00	1	Precipitación	0.2
15024	7	Sololá	712	San Antonio Palopó	9	San Antonio Palopo	10	Octubre	2023-10-24T00:00:00	2024-11-08T15:00:00	8	Radiación solar	89
15025	7	Sololá	712	San Antonio Palopó	9	San Antonio Palopo	10	Octubre	2023-10-24T00:00:00	2024-11-08T16:00:00	2	Temperatura media	20.9
15026	7	Sololá	712	San Antonio Palopó	9	San Antonio Palopo	10	Octubre	2023-10-24T00:00:00	2024-11-08T16:00:00	4	Temperatura máxima	21
15027	7	Sololá	712	San Antonio Palopó	9	San Antonio Palopo	10	Octubre	2023-10-24T00:00:00	2024-11-08T16:00:00	3	Temperatura mínima	20.2
15028	7	Sololá	712	San Antonio Palopó	9	San Antonio Palopo	10	Octubre	2023-10-24T00:00:00	2024-11-08T16:00:00	5	Humedad	82
15029	7	Sololá	712	San Antonio Palopó	9	San Antonio Palopo	10	Octubre	2023-10-24T00:00:00	2024-11-08T16:00:00	6	Velocidad del viento	1.6
15030	7	Sololá	712	San Antonio Palopó	9	San Antonio Palopo	10	Octubre	2023-10-24T00:00:00	2024-11-08T16:00:00	7	Dirección del viento	1.61
15031	7	Sololá	712	San Antonio Palopó	9	San Antonio Palopo	10	Octubre	2023-10-24T00:00:00	2024-11-08T16:00:00	1	Precipitación	0.2
15032	7	Sololá	712	San Antonio Palopó	9	San Antonio Palopo	10	Octubre	2023-10-24T00:00:00	2024-11-08T16:00:00	8	Radiación solar	125
15033	7	Sololá	712	San Antonio Palopó	9	San Antonio Palopo	10	Octubre	2023-10-24T00:00:00	2024-11-08T17:00:00	2	Temperatura media	20.3
15034	7	Sololá	712	San Antonio Palopó	9	San Antonio Palopo	10	Octubre	2023-10-24T00:00:00	2024-11-08T17:00:00	4	Temperatura máxima	21.1
15035	7	Sololá	712	San Antonio Palopó	9	San Antonio Palopo	10	Octubre	2023-10-24T00:00:00	2024-11-08T17:00:00	3	Temperatura mínima	20.3
15036	7	Sololá	712	San Antonio Palopó	9	San Antonio Palopo	10	Octubre	2023-10-24T00:00:00	2024-11-08T17:00:00	5	Humedad	86
15037	7	Sololá	712	San Antonio Palopó	9	San Antonio Palopo	10	Octubre	2023-10-24T00:00:00	2024-11-08T17:00:00	6	Velocidad del viento	1.6
15038	7	Sololá	712	San Antonio Palopó	9	San Antonio Palopo	10	Octubre	2023-10-24T00:00:00	2024-11-08T17:00:00	7	Dirección del viento	1.61
15039	7	Sololá	712	San Antonio Palopó	9	San Antonio Palopo	10	Octubre	2023-10-24T00:00:00	2024-11-08T17:00:00	1	Precipitación	0
15040	7	Sololá	712	San Antonio Palopó	9	San Antonio Palopo	10	Octubre	2023-10-24T00:00:00	2024-11-08T17:00:00	8	Radiación solar	65
15041	7	Sololá	712	San Antonio Palopó	9	San Antonio Palopo	10	Octubre	2023-10-24T00:00:00	2024-11-08T18:00:00	2	Temperatura media	20.2
15042	7	Sololá	712	San Antonio Palopó	9	San Antonio Palopo	10	Octubre	2023-10-24T00:00:00	2024-11-08T18:00:00	4	Temperatura máxima	20.3
15043	7	Sololá	712	San Antonio Palopó	9	San Antonio Palopo	10	Octubre	2023-10-24T00:00:00	2024-11-08T18:00:00	3	Temperatura mínima	20.2
15044	7	Sololá	712	San Antonio Palopó	9	San Antonio Palopo	10	Octubre	2023-10-24T00:00:00	2024-11-08T18:00:00	5	Humedad	83
15045	7	Sololá	712	San Antonio Palopó	9	San Antonio Palopo	10	Octubre	2023-10-24T00:00:00	2024-11-08T18:00:00	6	Velocidad del viento	1.6
15046	7	Sololá	712	San Antonio Palopó	9	San Antonio Palopo	10	Octubre	2023-10-24T00:00:00	2024-11-08T18:00:00	7	Dirección del viento	1.61
15047	7	Sololá	712	San Antonio Palopó	9	San Antonio Palopo	10	Octubre	2023-10-24T00:00:00	2024-11-08T18:00:00	1	Precipitación	0
15048	7	Sololá	712	San Antonio Palopó	9	San Antonio Palopo	10	Octubre	2023-10-24T00:00:00	2024-11-08T18:00:00	8	Radiación solar	12
15049	7	Sololá	712	San Antonio Palopó	9	San Antonio Palopo	10	Octubre	2023-10-24T00:00:00	2024-11-08T19:00:00	2	Temperatura media	19.6
15050	7	Sololá	712	San Antonio Palopó	9	San Antonio Palopo	10	Octubre	2023-10-24T00:00:00	2024-11-08T19:00:00	4	Temperatura máxima	20.2
15051	7	Sololá	712	San Antonio Palopó	9	San Antonio Palopo	10	Octubre	2023-10-24T00:00:00	2024-11-08T19:00:00	3	Temperatura mínima	19.3
15052	7	Sololá	712	San Antonio Palopó	9	San Antonio Palopo	10	Octubre	2023-10-24T00:00:00	2024-11-08T19:00:00	5	Humedad	85
15053	7	Sololá	712	San Antonio Palopó	9	San Antonio Palopo	10	Octubre	2023-10-24T00:00:00	2024-11-08T19:00:00	6	Velocidad del viento	3.2
15054	7	Sololá	712	San Antonio Palopó	9	San Antonio Palopo	10	Octubre	2023-10-24T00:00:00	2024-11-08T19:00:00	7	Dirección del viento	3.22
15055	7	Sololá	712	San Antonio Palopó	9	San Antonio Palopo	10	Octubre	2023-10-24T00:00:00	2024-11-08T19:00:00	1	Precipitación	0
15056	7	Sololá	712	San Antonio Palopó	9	San Antonio Palopo	10	Octubre	2023-10-24T00:00:00	2024-11-08T19:00:00	8	Radiación solar	0
15057	7	Sololá	712	San Antonio Palopó	9	San Antonio Palopo	10	Octubre	2023-10-24T00:00:00	2024-11-08T20:00:00	2	Temperatura media	20.1
15058	7	Sololá	712	San Antonio Palopó	9	San Antonio Palopo	10	Octubre	2023-10-24T00:00:00	2024-11-08T20:00:00	4	Temperatura máxima	20.3
15059	7	Sololá	712	San Antonio Palopó	9	San Antonio Palopo	10	Octubre	2023-10-24T00:00:00	2024-11-08T20:00:00	3	Temperatura mínima	19.5
15060	7	Sololá	712	San Antonio Palopó	9	San Antonio Palopo	10	Octubre	2023-10-24T00:00:00	2024-11-08T20:00:00	5	Humedad	85
15061	7	Sololá	712	San Antonio Palopó	9	San Antonio Palopo	10	Octubre	2023-10-24T00:00:00	2024-11-08T20:00:00	6	Velocidad del viento	3.2
15062	7	Sololá	712	San Antonio Palopó	9	San Antonio Palopo	10	Octubre	2023-10-24T00:00:00	2024-11-08T20:00:00	7	Dirección del viento	3.22
15063	7	Sololá	712	San Antonio Palopó	9	San Antonio Palopo	10	Octubre	2023-10-24T00:00:00	2024-11-08T20:00:00	1	Precipitación	0
15064	7	Sololá	712	San Antonio Palopó	9	San Antonio Palopo	10	Octubre	2023-10-24T00:00:00	2024-11-08T20:00:00	8	Radiación solar	0
15065	7	Sololá	712	San Antonio Palopó	9	San Antonio Palopo	10	Octubre	2023-10-24T00:00:00	2024-11-08T21:00:00	2	Temperatura media	19.6
15066	7	Sololá	712	San Antonio Palopó	9	San Antonio Palopo	10	Octubre	2023-10-24T00:00:00	2024-11-08T21:00:00	4	Temperatura máxima	20.1
15067	7	Sololá	712	San Antonio Palopó	9	San Antonio Palopo	10	Octubre	2023-10-24T00:00:00	2024-11-08T21:00:00	3	Temperatura mínima	18.6
15068	7	Sololá	712	San Antonio Palopó	9	San Antonio Palopo	10	Octubre	2023-10-24T00:00:00	2024-11-08T21:00:00	5	Humedad	82
15069	7	Sololá	712	San Antonio Palopó	9	San Antonio Palopo	10	Octubre	2023-10-24T00:00:00	2024-11-08T21:00:00	6	Velocidad del viento	3.2
15070	7	Sololá	712	San Antonio Palopó	9	San Antonio Palopo	10	Octubre	2023-10-24T00:00:00	2024-11-08T21:00:00	7	Dirección del viento	3.22
15071	7	Sololá	712	San Antonio Palopó	9	San Antonio Palopo	10	Octubre	2023-10-24T00:00:00	2024-11-08T21:00:00	1	Precipitación	0
15072	7	Sololá	712	San Antonio Palopó	9	San Antonio Palopo	10	Octubre	2023-10-24T00:00:00	2024-11-08T21:00:00	8	Radiación solar	0
15073	7	Sololá	712	San Antonio Palopó	9	San Antonio Palopo	10	Octubre	2023-10-24T00:00:00	2024-11-08T22:00:00	2	Temperatura media	20.2
15074	7	Sololá	712	San Antonio Palopó	9	San Antonio Palopo	10	Octubre	2023-10-24T00:00:00	2024-11-08T22:00:00	4	Temperatura máxima	20.4
15075	7	Sololá	712	San Antonio Palopó	9	San Antonio Palopo	10	Octubre	2023-10-24T00:00:00	2024-11-08T22:00:00	3	Temperatura mínima	19.7
15076	7	Sololá	712	San Antonio Palopó	9	San Antonio Palopo	10	Octubre	2023-10-24T00:00:00	2024-11-08T22:00:00	5	Humedad	80
15077	7	Sololá	712	San Antonio Palopó	9	San Antonio Palopo	10	Octubre	2023-10-24T00:00:00	2024-11-08T22:00:00	6	Velocidad del viento	4.8
15078	7	Sololá	712	San Antonio Palopó	9	San Antonio Palopo	10	Octubre	2023-10-24T00:00:00	2024-11-08T22:00:00	7	Dirección del viento	4.83
15079	7	Sololá	712	San Antonio Palopó	9	San Antonio Palopo	10	Octubre	2023-10-24T00:00:00	2024-11-08T22:00:00	1	Precipitación	0
15080	7	Sololá	712	San Antonio Palopó	9	San Antonio Palopo	10	Octubre	2023-10-24T00:00:00	2024-11-08T22:00:00	8	Radiación solar	0
15081	7	Sololá	712	San Antonio Palopó	9	San Antonio Palopo	10	Octubre	2023-10-24T00:00:00	2024-11-08T23:00:00	2	Temperatura media	19.7
15082	7	Sololá	712	San Antonio Palopó	9	San Antonio Palopo	10	Octubre	2023-10-24T00:00:00	2024-11-08T23:00:00	4	Temperatura máxima	20.2
15083	7	Sololá	712	San Antonio Palopó	9	San Antonio Palopo	10	Octubre	2023-10-24T00:00:00	2024-11-08T23:00:00	3	Temperatura mínima	18.9
15084	7	Sololá	712	San Antonio Palopó	9	San Antonio Palopo	10	Octubre	2023-10-24T00:00:00	2024-11-08T23:00:00	5	Humedad	81
15085	7	Sololá	712	San Antonio Palopó	9	San Antonio Palopo	10	Octubre	2023-10-24T00:00:00	2024-11-08T23:00:00	6	Velocidad del viento	4.8
15086	7	Sololá	712	San Antonio Palopó	9	San Antonio Palopo	10	Octubre	2023-10-24T00:00:00	2024-11-08T23:00:00	7	Dirección del viento	4.83
15087	7	Sololá	712	San Antonio Palopó	9	San Antonio Palopo	10	Octubre	2023-10-24T00:00:00	2024-11-08T23:00:00	1	Precipitación	0
15088	7	Sololá	712	San Antonio Palopó	9	San Antonio Palopo	10	Octubre	2023-10-24T00:00:00	2024-11-08T23:00:00	8	Radiación solar	0
15089	7	Sololá	712	San Antonio Palopó	9	San Antonio Palopo	10	Octubre	2023-10-25T00:00:00	2024-11-08T00:00:00	2	Temperatura media	19
15090	7	Sololá	712	San Antonio Palopó	9	San Antonio Palopo	10	Octubre	2023-10-25T00:00:00	2024-11-08T00:00:00	4	Temperatura máxima	19.7
15091	7	Sololá	712	San Antonio Palopó	9	San Antonio Palopo	10	Octubre	2023-10-25T00:00:00	2024-11-08T00:00:00	3	Temperatura mínima	18.6
15092	7	Sololá	712	San Antonio Palopó	9	San Antonio Palopo	10	Octubre	2023-10-25T00:00:00	2024-11-08T00:00:00	5	Humedad	86
15093	7	Sololá	712	San Antonio Palopó	9	San Antonio Palopo	10	Octubre	2023-10-25T00:00:00	2024-11-08T00:00:00	6	Velocidad del viento	3.2
15094	7	Sololá	712	San Antonio Palopó	9	San Antonio Palopo	10	Octubre	2023-10-25T00:00:00	2024-11-08T00:00:00	7	Dirección del viento	3.22
15095	7	Sololá	712	San Antonio Palopó	9	San Antonio Palopo	10	Octubre	2023-10-25T00:00:00	2024-11-08T00:00:00	1	Precipitación	0
15096	7	Sololá	712	San Antonio Palopó	9	San Antonio Palopo	10	Octubre	2023-10-25T00:00:00	2024-11-08T00:00:00	8	Radiación solar	0
15097	7	Sololá	712	San Antonio Palopó	9	San Antonio Palopo	10	Octubre	2023-10-25T00:00:00	2024-11-08T01:00:00	2	Temperatura media	19.2
15098	7	Sololá	712	San Antonio Palopó	9	San Antonio Palopo	10	Octubre	2023-10-25T00:00:00	2024-11-08T01:00:00	4	Temperatura máxima	19.4
15099	7	Sololá	712	San Antonio Palopó	9	San Antonio Palopo	10	Octubre	2023-10-25T00:00:00	2024-11-08T01:00:00	3	Temperatura mínima	18.7
15100	7	Sololá	712	San Antonio Palopó	9	San Antonio Palopo	10	Octubre	2023-10-25T00:00:00	2024-11-08T01:00:00	5	Humedad	84
15101	7	Sololá	712	San Antonio Palopó	9	San Antonio Palopo	10	Octubre	2023-10-25T00:00:00	2024-11-08T01:00:00	6	Velocidad del viento	3.2
15102	7	Sololá	712	San Antonio Palopó	9	San Antonio Palopo	10	Octubre	2023-10-25T00:00:00	2024-11-08T01:00:00	7	Dirección del viento	3.22
15103	7	Sololá	712	San Antonio Palopó	9	San Antonio Palopo	10	Octubre	2023-10-25T00:00:00	2024-11-08T01:00:00	1	Precipitación	0
15104	7	Sololá	712	San Antonio Palopó	9	San Antonio Palopo	10	Octubre	2023-10-25T00:00:00	2024-11-08T01:00:00	8	Radiación solar	0
15105	7	Sololá	712	San Antonio Palopó	9	San Antonio Palopo	10	Octubre	2023-10-25T00:00:00	2024-11-08T02:00:00	2	Temperatura media	18.4
15106	7	Sololá	712	San Antonio Palopó	9	San Antonio Palopo	10	Octubre	2023-10-25T00:00:00	2024-11-08T02:00:00	4	Temperatura máxima	19.2
15107	7	Sololá	712	San Antonio Palopó	9	San Antonio Palopo	10	Octubre	2023-10-25T00:00:00	2024-11-08T02:00:00	3	Temperatura mínima	18.3
15108	7	Sololá	712	San Antonio Palopó	9	San Antonio Palopo	10	Octubre	2023-10-25T00:00:00	2024-11-08T02:00:00	5	Humedad	88
15109	7	Sololá	712	San Antonio Palopó	9	San Antonio Palopo	10	Octubre	2023-10-25T00:00:00	2024-11-08T02:00:00	6	Velocidad del viento	1.6
15110	7	Sololá	712	San Antonio Palopó	9	San Antonio Palopo	10	Octubre	2023-10-25T00:00:00	2024-11-08T02:00:00	7	Dirección del viento	1.61
15111	7	Sololá	712	San Antonio Palopó	9	San Antonio Palopo	10	Octubre	2023-10-25T00:00:00	2024-11-08T02:00:00	1	Precipitación	0
15112	7	Sololá	712	San Antonio Palopó	9	San Antonio Palopo	10	Octubre	2023-10-25T00:00:00	2024-11-08T02:00:00	8	Radiación solar	0
15113	7	Sololá	712	San Antonio Palopó	9	San Antonio Palopo	10	Octubre	2023-10-25T00:00:00	2024-11-08T03:00:00	2	Temperatura media	19.2
15114	7	Sololá	712	San Antonio Palopó	9	San Antonio Palopo	10	Octubre	2023-10-25T00:00:00	2024-11-08T03:00:00	4	Temperatura máxima	19.4
15115	7	Sololá	712	San Antonio Palopó	9	San Antonio Palopo	10	Octubre	2023-10-25T00:00:00	2024-11-08T03:00:00	3	Temperatura mínima	18.3
15116	7	Sololá	712	San Antonio Palopó	9	San Antonio Palopo	10	Octubre	2023-10-25T00:00:00	2024-11-08T03:00:00	5	Humedad	83
15117	7	Sololá	712	San Antonio Palopó	9	San Antonio Palopo	10	Octubre	2023-10-25T00:00:00	2024-11-08T03:00:00	6	Velocidad del viento	3.2
15118	7	Sololá	712	San Antonio Palopó	9	San Antonio Palopo	10	Octubre	2023-10-25T00:00:00	2024-11-08T03:00:00	7	Dirección del viento	3.22
15119	7	Sololá	712	San Antonio Palopó	9	San Antonio Palopo	10	Octubre	2023-10-25T00:00:00	2024-11-08T03:00:00	1	Precipitación	0
15120	7	Sololá	712	San Antonio Palopó	9	San Antonio Palopo	10	Octubre	2023-10-25T00:00:00	2024-11-08T03:00:00	8	Radiación solar	0
15121	7	Sololá	712	San Antonio Palopó	9	San Antonio Palopo	10	Octubre	2023-10-25T00:00:00	2024-11-08T04:00:00	2	Temperatura media	19.2
15122	7	Sololá	712	San Antonio Palopó	9	San Antonio Palopo	10	Octubre	2023-10-25T00:00:00	2024-11-08T04:00:00	4	Temperatura máxima	19.3
15123	7	Sololá	712	San Antonio Palopó	9	San Antonio Palopo	10	Octubre	2023-10-25T00:00:00	2024-11-08T04:00:00	3	Temperatura mínima	18.4
15124	7	Sololá	712	San Antonio Palopó	9	San Antonio Palopo	10	Octubre	2023-10-25T00:00:00	2024-11-08T04:00:00	5	Humedad	78
15125	7	Sololá	712	San Antonio Palopó	9	San Antonio Palopo	10	Octubre	2023-10-25T00:00:00	2024-11-08T04:00:00	6	Velocidad del viento	3.2
15126	7	Sololá	712	San Antonio Palopó	9	San Antonio Palopo	10	Octubre	2023-10-25T00:00:00	2024-11-08T04:00:00	7	Dirección del viento	3.22
15127	7	Sololá	712	San Antonio Palopó	9	San Antonio Palopo	10	Octubre	2023-10-25T00:00:00	2024-11-08T04:00:00	1	Precipitación	0
15128	7	Sololá	712	San Antonio Palopó	9	San Antonio Palopo	10	Octubre	2023-10-25T00:00:00	2024-11-08T04:00:00	8	Radiación solar	0
15129	7	Sololá	712	San Antonio Palopó	9	San Antonio Palopo	10	Octubre	2023-10-25T00:00:00	2024-11-08T05:00:00	2	Temperatura media	19.4
15130	7	Sololá	712	San Antonio Palopó	9	San Antonio Palopo	10	Octubre	2023-10-25T00:00:00	2024-11-08T05:00:00	4	Temperatura máxima	19.6
15131	7	Sololá	712	San Antonio Palopó	9	San Antonio Palopo	10	Octubre	2023-10-25T00:00:00	2024-11-08T05:00:00	3	Temperatura mínima	19.2
15132	7	Sololá	712	San Antonio Palopó	9	San Antonio Palopo	10	Octubre	2023-10-25T00:00:00	2024-11-08T05:00:00	5	Humedad	75
15133	7	Sololá	712	San Antonio Palopó	9	San Antonio Palopo	10	Octubre	2023-10-25T00:00:00	2024-11-08T05:00:00	6	Velocidad del viento	6.4
15134	7	Sololá	712	San Antonio Palopó	9	San Antonio Palopo	10	Octubre	2023-10-25T00:00:00	2024-11-08T05:00:00	7	Dirección del viento	6.44
15135	7	Sololá	712	San Antonio Palopó	9	San Antonio Palopo	10	Octubre	2023-10-25T00:00:00	2024-11-08T05:00:00	1	Precipitación	0
15136	7	Sololá	712	San Antonio Palopó	9	San Antonio Palopo	10	Octubre	2023-10-25T00:00:00	2024-11-08T05:00:00	8	Radiación solar	0
15137	7	Sololá	712	San Antonio Palopó	9	San Antonio Palopo	10	Octubre	2023-10-25T00:00:00	2024-11-08T06:00:00	2	Temperatura media	18.8
15138	7	Sololá	712	San Antonio Palopó	9	San Antonio Palopo	10	Octubre	2023-10-25T00:00:00	2024-11-08T06:00:00	4	Temperatura máxima	19.7
15139	7	Sololá	712	San Antonio Palopó	9	San Antonio Palopo	10	Octubre	2023-10-25T00:00:00	2024-11-08T06:00:00	3	Temperatura mínima	18.8
15140	7	Sololá	712	San Antonio Palopó	9	San Antonio Palopo	10	Octubre	2023-10-25T00:00:00	2024-11-08T06:00:00	5	Humedad	79
15141	7	Sololá	712	San Antonio Palopó	9	San Antonio Palopo	10	Octubre	2023-10-25T00:00:00	2024-11-08T06:00:00	6	Velocidad del viento	4.8
15142	7	Sololá	712	San Antonio Palopó	9	San Antonio Palopo	10	Octubre	2023-10-25T00:00:00	2024-11-08T06:00:00	7	Dirección del viento	4.83
15143	7	Sololá	712	San Antonio Palopó	9	San Antonio Palopo	10	Octubre	2023-10-25T00:00:00	2024-11-08T06:00:00	1	Precipitación	0
15144	7	Sololá	712	San Antonio Palopó	9	San Antonio Palopo	10	Octubre	2023-10-25T00:00:00	2024-11-08T06:00:00	8	Radiación solar	0
15145	7	Sololá	712	San Antonio Palopó	9	San Antonio Palopo	10	Octubre	2023-10-25T00:00:00	2024-11-08T07:00:00	2	Temperatura media	19.1
15146	7	Sololá	712	San Antonio Palopó	9	San Antonio Palopo	10	Octubre	2023-10-25T00:00:00	2024-11-08T07:00:00	4	Temperatura máxima	19.4
15147	7	Sololá	712	San Antonio Palopó	9	San Antonio Palopo	10	Octubre	2023-10-25T00:00:00	2024-11-08T07:00:00	3	Temperatura mínima	18.8
15148	7	Sololá	712	San Antonio Palopó	9	San Antonio Palopo	10	Octubre	2023-10-25T00:00:00	2024-11-08T07:00:00	5	Humedad	80
15149	7	Sololá	712	San Antonio Palopó	9	San Antonio Palopo	10	Octubre	2023-10-25T00:00:00	2024-11-08T07:00:00	6	Velocidad del viento	3.2
15150	7	Sololá	712	San Antonio Palopó	9	San Antonio Palopo	10	Octubre	2023-10-25T00:00:00	2024-11-08T07:00:00	7	Dirección del viento	3.22
15151	7	Sololá	712	San Antonio Palopó	9	San Antonio Palopo	10	Octubre	2023-10-25T00:00:00	2024-11-08T07:00:00	1	Precipitación	0
15152	7	Sololá	712	San Antonio Palopó	9	San Antonio Palopo	10	Octubre	2023-10-25T00:00:00	2024-11-08T07:00:00	8	Radiación solar	39
15153	7	Sololá	712	San Antonio Palopó	9	San Antonio Palopo	10	Octubre	2023-10-25T00:00:00	2024-11-08T08:00:00	2	Temperatura media	20.7
15154	7	Sololá	712	San Antonio Palopó	9	San Antonio Palopo	10	Octubre	2023-10-25T00:00:00	2024-11-08T08:00:00	4	Temperatura máxima	20.7
15155	7	Sololá	712	San Antonio Palopó	9	San Antonio Palopo	10	Octubre	2023-10-25T00:00:00	2024-11-08T08:00:00	3	Temperatura mínima	19.2
15156	7	Sololá	712	San Antonio Palopó	9	San Antonio Palopo	10	Octubre	2023-10-25T00:00:00	2024-11-08T08:00:00	5	Humedad	80
15157	7	Sololá	712	San Antonio Palopó	9	San Antonio Palopo	10	Octubre	2023-10-25T00:00:00	2024-11-08T08:00:00	6	Velocidad del viento	1.6
15158	7	Sololá	712	San Antonio Palopó	9	San Antonio Palopo	10	Octubre	2023-10-25T00:00:00	2024-11-08T08:00:00	7	Dirección del viento	1.61
15159	7	Sololá	712	San Antonio Palopó	9	San Antonio Palopo	10	Octubre	2023-10-25T00:00:00	2024-11-08T08:00:00	1	Precipitación	0
15160	7	Sololá	712	San Antonio Palopó	9	San Antonio Palopo	10	Octubre	2023-10-25T00:00:00	2024-11-08T08:00:00	8	Radiación solar	130
15161	7	Sololá	712	San Antonio Palopó	9	San Antonio Palopo	10	Octubre	2023-10-25T00:00:00	2024-11-08T09:00:00	2	Temperatura media	22.2
15162	7	Sololá	712	San Antonio Palopó	9	San Antonio Palopo	10	Octubre	2023-10-25T00:00:00	2024-11-08T09:00:00	4	Temperatura máxima	22.2
15163	7	Sololá	712	San Antonio Palopó	9	San Antonio Palopo	10	Octubre	2023-10-25T00:00:00	2024-11-08T09:00:00	3	Temperatura mínima	20.7
15164	7	Sololá	712	San Antonio Palopó	9	San Antonio Palopo	10	Octubre	2023-10-25T00:00:00	2024-11-08T09:00:00	5	Humedad	75
15165	7	Sololá	712	San Antonio Palopó	9	San Antonio Palopo	10	Octubre	2023-10-25T00:00:00	2024-11-08T09:00:00	6	Velocidad del viento	1.6
15166	7	Sololá	712	San Antonio Palopó	9	San Antonio Palopo	10	Octubre	2023-10-25T00:00:00	2024-11-08T09:00:00	7	Dirección del viento	1.61
15167	7	Sololá	712	San Antonio Palopó	9	San Antonio Palopo	10	Octubre	2023-10-25T00:00:00	2024-11-08T09:00:00	1	Precipitación	0
15168	7	Sololá	712	San Antonio Palopó	9	San Antonio Palopo	10	Octubre	2023-10-25T00:00:00	2024-11-08T09:00:00	8	Radiación solar	310
15169	7	Sololá	712	San Antonio Palopó	9	San Antonio Palopo	10	Octubre	2023-10-25T00:00:00	2024-11-08T10:00:00	2	Temperatura media	23.1
15170	7	Sololá	712	San Antonio Palopó	9	San Antonio Palopo	10	Octubre	2023-10-25T00:00:00	2024-11-08T10:00:00	4	Temperatura máxima	23.2
15171	7	Sololá	712	San Antonio Palopó	9	San Antonio Palopo	10	Octubre	2023-10-25T00:00:00	2024-11-08T10:00:00	3	Temperatura mínima	21.9
15172	7	Sololá	712	San Antonio Palopó	9	San Antonio Palopo	10	Octubre	2023-10-25T00:00:00	2024-11-08T10:00:00	5	Humedad	68
15173	7	Sololá	712	San Antonio Palopó	9	San Antonio Palopo	10	Octubre	2023-10-25T00:00:00	2024-11-08T10:00:00	6	Velocidad del viento	1.6
15174	7	Sololá	712	San Antonio Palopó	9	San Antonio Palopo	10	Octubre	2023-10-25T00:00:00	2024-11-08T10:00:00	7	Dirección del viento	1.61
15175	7	Sololá	712	San Antonio Palopó	9	San Antonio Palopo	10	Octubre	2023-10-25T00:00:00	2024-11-08T10:00:00	1	Precipitación	0
15176	7	Sololá	712	San Antonio Palopó	9	San Antonio Palopo	10	Octubre	2023-10-25T00:00:00	2024-11-08T10:00:00	8	Radiación solar	446
15177	7	Sololá	712	San Antonio Palopó	9	San Antonio Palopo	10	Octubre	2023-10-25T00:00:00	2024-11-08T11:00:00	2	Temperatura media	23.6
15178	7	Sololá	712	San Antonio Palopó	9	San Antonio Palopo	10	Octubre	2023-10-25T00:00:00	2024-11-08T11:00:00	4	Temperatura máxima	23.6
15179	7	Sololá	712	San Antonio Palopó	9	San Antonio Palopo	10	Octubre	2023-10-25T00:00:00	2024-11-08T11:00:00	3	Temperatura mínima	22.7
15180	7	Sololá	712	San Antonio Palopó	9	San Antonio Palopo	10	Octubre	2023-10-25T00:00:00	2024-11-08T11:00:00	5	Humedad	66
15181	7	Sololá	712	San Antonio Palopó	9	San Antonio Palopo	10	Octubre	2023-10-25T00:00:00	2024-11-08T11:00:00	6	Velocidad del viento	4.8
15182	7	Sololá	712	San Antonio Palopó	9	San Antonio Palopo	10	Octubre	2023-10-25T00:00:00	2024-11-08T11:00:00	7	Dirección del viento	4.83
15183	7	Sololá	712	San Antonio Palopó	9	San Antonio Palopo	10	Octubre	2023-10-25T00:00:00	2024-11-08T11:00:00	1	Precipitación	0
15184	7	Sololá	712	San Antonio Palopó	9	San Antonio Palopo	10	Octubre	2023-10-25T00:00:00	2024-11-08T11:00:00	8	Radiación solar	535
15185	7	Sololá	712	San Antonio Palopó	9	San Antonio Palopo	10	Octubre	2023-10-25T00:00:00	2024-11-08T12:00:00	2	Temperatura media	24.6
15186	7	Sololá	712	San Antonio Palopó	9	San Antonio Palopo	10	Octubre	2023-10-25T00:00:00	2024-11-08T12:00:00	4	Temperatura máxima	24.8
15187	7	Sololá	712	San Antonio Palopó	9	San Antonio Palopo	10	Octubre	2023-10-25T00:00:00	2024-11-08T12:00:00	3	Temperatura mínima	23.5
15188	7	Sololá	712	San Antonio Palopó	9	San Antonio Palopo	10	Octubre	2023-10-25T00:00:00	2024-11-08T12:00:00	5	Humedad	63
15189	7	Sololá	712	San Antonio Palopó	9	San Antonio Palopo	10	Octubre	2023-10-25T00:00:00	2024-11-08T12:00:00	6	Velocidad del viento	4.8
15190	7	Sololá	712	San Antonio Palopó	9	San Antonio Palopo	10	Octubre	2023-10-25T00:00:00	2024-11-08T12:00:00	7	Dirección del viento	4.83
15191	7	Sololá	712	San Antonio Palopó	9	San Antonio Palopo	10	Octubre	2023-10-25T00:00:00	2024-11-08T12:00:00	1	Precipitación	0
15192	7	Sololá	712	San Antonio Palopó	9	San Antonio Palopo	10	Octubre	2023-10-25T00:00:00	2024-11-08T12:00:00	8	Radiación solar	695
15193	7	Sololá	712	San Antonio Palopó	9	San Antonio Palopo	10	Octubre	2023-10-25T00:00:00	2024-11-08T13:00:00	2	Temperatura media	25.2
15194	7	Sololá	712	San Antonio Palopó	9	San Antonio Palopo	10	Octubre	2023-10-25T00:00:00	2024-11-08T13:00:00	4	Temperatura máxima	25.5
15195	7	Sololá	712	San Antonio Palopó	9	San Antonio Palopo	10	Octubre	2023-10-25T00:00:00	2024-11-08T13:00:00	3	Temperatura mínima	24.2
15196	7	Sololá	712	San Antonio Palopó	9	San Antonio Palopo	10	Octubre	2023-10-25T00:00:00	2024-11-08T13:00:00	5	Humedad	62
15197	7	Sololá	712	San Antonio Palopó	9	San Antonio Palopo	10	Octubre	2023-10-25T00:00:00	2024-11-08T13:00:00	6	Velocidad del viento	9.7
15198	7	Sololá	712	San Antonio Palopó	9	San Antonio Palopo	10	Octubre	2023-10-25T00:00:00	2024-11-08T13:00:00	7	Dirección del viento	9.66
15199	7	Sololá	712	San Antonio Palopó	9	San Antonio Palopo	10	Octubre	2023-10-25T00:00:00	2024-11-08T13:00:00	1	Precipitación	0
15200	7	Sololá	712	San Antonio Palopó	9	San Antonio Palopo	10	Octubre	2023-10-25T00:00:00	2024-11-08T13:00:00	8	Radiación solar	625
15201	7	Sololá	712	San Antonio Palopó	9	San Antonio Palopo	10	Octubre	2023-10-25T00:00:00	2024-11-08T14:00:00	2	Temperatura media	25.1
15202	7	Sololá	712	San Antonio Palopó	9	San Antonio Palopo	10	Octubre	2023-10-25T00:00:00	2024-11-08T14:00:00	4	Temperatura máxima	25.4
15203	7	Sololá	712	San Antonio Palopó	9	San Antonio Palopo	10	Octubre	2023-10-25T00:00:00	2024-11-08T14:00:00	3	Temperatura mínima	24.3
15204	7	Sololá	712	San Antonio Palopó	9	San Antonio Palopo	10	Octubre	2023-10-25T00:00:00	2024-11-08T14:00:00	5	Humedad	60
15205	7	Sololá	712	San Antonio Palopó	9	San Antonio Palopo	10	Octubre	2023-10-25T00:00:00	2024-11-08T14:00:00	6	Velocidad del viento	8
15206	7	Sololá	712	San Antonio Palopó	9	San Antonio Palopo	10	Octubre	2023-10-25T00:00:00	2024-11-08T14:00:00	7	Dirección del viento	8.05
15207	7	Sololá	712	San Antonio Palopó	9	San Antonio Palopo	10	Octubre	2023-10-25T00:00:00	2024-11-08T14:00:00	1	Precipitación	0
15208	7	Sololá	712	San Antonio Palopó	9	San Antonio Palopo	10	Octubre	2023-10-25T00:00:00	2024-11-08T14:00:00	8	Radiación solar	249
15209	7	Sololá	712	San Antonio Palopó	9	San Antonio Palopo	10	Octubre	2023-10-25T00:00:00	2024-11-08T15:00:00	2	Temperatura media	21.8
15210	7	Sololá	712	San Antonio Palopó	9	San Antonio Palopo	10	Octubre	2023-10-25T00:00:00	2024-11-08T15:00:00	4	Temperatura máxima	25.7
15211	7	Sololá	712	San Antonio Palopó	9	San Antonio Palopo	10	Octubre	2023-10-25T00:00:00	2024-11-08T15:00:00	3	Temperatura mínima	21.7
15212	7	Sololá	712	San Antonio Palopó	9	San Antonio Palopo	10	Octubre	2023-10-25T00:00:00	2024-11-08T15:00:00	5	Humedad	83
15213	7	Sololá	712	San Antonio Palopó	9	San Antonio Palopo	10	Octubre	2023-10-25T00:00:00	2024-11-08T15:00:00	6	Velocidad del viento	9.7
15214	7	Sololá	712	San Antonio Palopó	9	San Antonio Palopo	10	Octubre	2023-10-25T00:00:00	2024-11-08T15:00:00	7	Dirección del viento	9.66
15215	7	Sololá	712	San Antonio Palopó	9	San Antonio Palopo	10	Octubre	2023-10-25T00:00:00	2024-11-08T15:00:00	1	Precipitación	1.2
15216	7	Sololá	712	San Antonio Palopó	9	San Antonio Palopo	10	Octubre	2023-10-25T00:00:00	2024-11-08T15:00:00	8	Radiación solar	215
15217	7	Sololá	712	San Antonio Palopó	9	San Antonio Palopo	10	Octubre	2023-10-25T00:00:00	2024-11-08T16:00:00	2	Temperatura media	22.2
15218	7	Sololá	712	San Antonio Palopó	9	San Antonio Palopo	10	Octubre	2023-10-25T00:00:00	2024-11-08T16:00:00	4	Temperatura máxima	22.7
15219	7	Sololá	712	San Antonio Palopó	9	San Antonio Palopo	10	Octubre	2023-10-25T00:00:00	2024-11-08T16:00:00	3	Temperatura mínima	21.4
15220	7	Sololá	712	San Antonio Palopó	9	San Antonio Palopo	10	Octubre	2023-10-25T00:00:00	2024-11-08T16:00:00	5	Humedad	79
15221	7	Sololá	712	San Antonio Palopó	9	San Antonio Palopo	10	Octubre	2023-10-25T00:00:00	2024-11-08T16:00:00	6	Velocidad del viento	4.8
15222	7	Sololá	712	San Antonio Palopó	9	San Antonio Palopo	10	Octubre	2023-10-25T00:00:00	2024-11-08T16:00:00	7	Dirección del viento	4.83
15223	7	Sololá	712	San Antonio Palopó	9	San Antonio Palopo	10	Octubre	2023-10-25T00:00:00	2024-11-08T16:00:00	1	Precipitación	0
15224	7	Sololá	712	San Antonio Palopó	9	San Antonio Palopo	10	Octubre	2023-10-25T00:00:00	2024-11-08T16:00:00	8	Radiación solar	179
15225	7	Sololá	712	San Antonio Palopó	9	San Antonio Palopo	10	Octubre	2023-10-25T00:00:00	2024-11-08T17:00:00	2	Temperatura media	21.7
15226	7	Sololá	712	San Antonio Palopó	9	San Antonio Palopo	10	Octubre	2023-10-25T00:00:00	2024-11-08T17:00:00	4	Temperatura máxima	22.2
15227	7	Sololá	712	San Antonio Palopó	9	San Antonio Palopo	10	Octubre	2023-10-25T00:00:00	2024-11-08T17:00:00	3	Temperatura mínima	21.6
15228	7	Sololá	712	San Antonio Palopó	9	San Antonio Palopo	10	Octubre	2023-10-25T00:00:00	2024-11-08T17:00:00	5	Humedad	82
15229	7	Sololá	712	San Antonio Palopó	9	San Antonio Palopo	10	Octubre	2023-10-25T00:00:00	2024-11-08T17:00:00	6	Velocidad del viento	4.8
15230	7	Sololá	712	San Antonio Palopó	9	San Antonio Palopo	10	Octubre	2023-10-25T00:00:00	2024-11-08T17:00:00	7	Dirección del viento	4.83
15231	7	Sololá	712	San Antonio Palopó	9	San Antonio Palopo	10	Octubre	2023-10-25T00:00:00	2024-11-08T17:00:00	1	Precipitación	0
15232	7	Sololá	712	San Antonio Palopó	9	San Antonio Palopo	10	Octubre	2023-10-25T00:00:00	2024-11-08T17:00:00	8	Radiación solar	84
15233	7	Sololá	712	San Antonio Palopó	9	San Antonio Palopo	10	Octubre	2023-10-25T00:00:00	2024-11-08T18:00:00	2	Temperatura media	20.7
15234	7	Sololá	712	San Antonio Palopó	9	San Antonio Palopo	10	Octubre	2023-10-25T00:00:00	2024-11-08T18:00:00	4	Temperatura máxima	21.8
15235	7	Sololá	712	San Antonio Palopó	9	San Antonio Palopo	10	Octubre	2023-10-25T00:00:00	2024-11-08T18:00:00	3	Temperatura mínima	20.6
15236	7	Sololá	712	San Antonio Palopó	9	San Antonio Palopo	10	Octubre	2023-10-25T00:00:00	2024-11-08T18:00:00	5	Humedad	84
15237	7	Sololá	712	San Antonio Palopó	9	San Antonio Palopo	10	Octubre	2023-10-25T00:00:00	2024-11-08T18:00:00	6	Velocidad del viento	3.2
15238	7	Sololá	712	San Antonio Palopó	9	San Antonio Palopo	10	Octubre	2023-10-25T00:00:00	2024-11-08T18:00:00	7	Dirección del viento	3.22
15239	7	Sololá	712	San Antonio Palopó	9	San Antonio Palopo	10	Octubre	2023-10-25T00:00:00	2024-11-08T18:00:00	1	Precipitación	0
15240	7	Sololá	712	San Antonio Palopó	9	San Antonio Palopo	10	Octubre	2023-10-25T00:00:00	2024-11-08T18:00:00	8	Radiación solar	13
15241	7	Sololá	712	San Antonio Palopó	9	San Antonio Palopo	10	Octubre	2023-10-25T00:00:00	2024-11-08T19:00:00	2	Temperatura media	21.3
15242	7	Sololá	712	San Antonio Palopó	9	San Antonio Palopo	10	Octubre	2023-10-25T00:00:00	2024-11-08T19:00:00	4	Temperatura máxima	21.4
15243	7	Sololá	712	San Antonio Palopó	9	San Antonio Palopo	10	Octubre	2023-10-25T00:00:00	2024-11-08T19:00:00	3	Temperatura mínima	20.6
15244	7	Sololá	712	San Antonio Palopó	9	San Antonio Palopo	10	Octubre	2023-10-25T00:00:00	2024-11-08T19:00:00	5	Humedad	73
15245	7	Sololá	712	San Antonio Palopó	9	San Antonio Palopo	10	Octubre	2023-10-25T00:00:00	2024-11-08T19:00:00	6	Velocidad del viento	4.8
15246	7	Sololá	712	San Antonio Palopó	9	San Antonio Palopo	10	Octubre	2023-10-25T00:00:00	2024-11-08T19:00:00	7	Dirección del viento	4.83
15247	7	Sololá	712	San Antonio Palopó	9	San Antonio Palopo	10	Octubre	2023-10-25T00:00:00	2024-11-08T19:00:00	1	Precipitación	0
15248	7	Sololá	712	San Antonio Palopó	9	San Antonio Palopo	10	Octubre	2023-10-25T00:00:00	2024-11-08T19:00:00	8	Radiación solar	0
15249	7	Sololá	712	San Antonio Palopó	9	San Antonio Palopo	10	Octubre	2023-10-25T00:00:00	2024-11-08T20:00:00	2	Temperatura media	21.4
15250	7	Sololá	712	San Antonio Palopó	9	San Antonio Palopo	10	Octubre	2023-10-25T00:00:00	2024-11-08T20:00:00	4	Temperatura máxima	21.4
15251	7	Sololá	712	San Antonio Palopó	9	San Antonio Palopo	10	Octubre	2023-10-25T00:00:00	2024-11-08T20:00:00	3	Temperatura mínima	20.9
15252	7	Sololá	712	San Antonio Palopó	9	San Antonio Palopo	10	Octubre	2023-10-25T00:00:00	2024-11-08T20:00:00	5	Humedad	73
15253	7	Sololá	712	San Antonio Palopó	9	San Antonio Palopo	10	Octubre	2023-10-25T00:00:00	2024-11-08T20:00:00	6	Velocidad del viento	3.2
15254	7	Sololá	712	San Antonio Palopó	9	San Antonio Palopo	10	Octubre	2023-10-25T00:00:00	2024-11-08T20:00:00	7	Dirección del viento	3.22
15255	7	Sololá	712	San Antonio Palopó	9	San Antonio Palopo	10	Octubre	2023-10-25T00:00:00	2024-11-08T20:00:00	1	Precipitación	0
15256	7	Sololá	712	San Antonio Palopó	9	San Antonio Palopo	10	Octubre	2023-10-25T00:00:00	2024-11-08T20:00:00	8	Radiación solar	0
15257	7	Sololá	712	San Antonio Palopó	9	San Antonio Palopo	10	Octubre	2023-10-25T00:00:00	2024-11-08T21:00:00	2	Temperatura media	21.2
15258	7	Sololá	712	San Antonio Palopó	9	San Antonio Palopo	10	Octubre	2023-10-25T00:00:00	2024-11-08T21:00:00	4	Temperatura máxima	21.6
15259	7	Sololá	712	San Antonio Palopó	9	San Antonio Palopo	10	Octubre	2023-10-25T00:00:00	2024-11-08T21:00:00	3	Temperatura mínima	21.1
15260	7	Sololá	712	San Antonio Palopó	9	San Antonio Palopo	10	Octubre	2023-10-25T00:00:00	2024-11-08T21:00:00	5	Humedad	73
15261	7	Sololá	712	San Antonio Palopó	9	San Antonio Palopo	10	Octubre	2023-10-25T00:00:00	2024-11-08T21:00:00	6	Velocidad del viento	9.7
15262	7	Sololá	712	San Antonio Palopó	9	San Antonio Palopo	10	Octubre	2023-10-25T00:00:00	2024-11-08T21:00:00	7	Dirección del viento	9.66
15263	7	Sololá	712	San Antonio Palopó	9	San Antonio Palopo	10	Octubre	2023-10-25T00:00:00	2024-11-08T21:00:00	1	Precipitación	0
15264	7	Sololá	712	San Antonio Palopó	9	San Antonio Palopo	10	Octubre	2023-10-25T00:00:00	2024-11-08T21:00:00	8	Radiación solar	0
15265	7	Sololá	712	San Antonio Palopó	9	San Antonio Palopo	10	Octubre	2023-10-25T00:00:00	2024-11-08T22:00:00	2	Temperatura media	20.8
15266	7	Sololá	712	San Antonio Palopó	9	San Antonio Palopo	10	Octubre	2023-10-25T00:00:00	2024-11-08T22:00:00	4	Temperatura máxima	21.1
15267	7	Sololá	712	San Antonio Palopó	9	San Antonio Palopo	10	Octubre	2023-10-25T00:00:00	2024-11-08T22:00:00	3	Temperatura mínima	20.8
15268	7	Sololá	712	San Antonio Palopó	9	San Antonio Palopo	10	Octubre	2023-10-25T00:00:00	2024-11-08T22:00:00	5	Humedad	73
15269	7	Sololá	712	San Antonio Palopó	9	San Antonio Palopo	10	Octubre	2023-10-25T00:00:00	2024-11-08T22:00:00	6	Velocidad del viento	8
15270	7	Sololá	712	San Antonio Palopó	9	San Antonio Palopo	10	Octubre	2023-10-25T00:00:00	2024-11-08T22:00:00	7	Dirección del viento	8.05
15271	7	Sololá	712	San Antonio Palopó	9	San Antonio Palopo	10	Octubre	2023-10-25T00:00:00	2024-11-08T22:00:00	1	Precipitación	0
15272	7	Sololá	712	San Antonio Palopó	9	San Antonio Palopo	10	Octubre	2023-10-25T00:00:00	2024-11-08T22:00:00	8	Radiación solar	0
15273	7	Sololá	712	San Antonio Palopó	9	San Antonio Palopo	10	Octubre	2023-10-25T00:00:00	2024-11-08T23:00:00	2	Temperatura media	20.5
15274	7	Sololá	712	San Antonio Palopó	9	San Antonio Palopo	10	Octubre	2023-10-25T00:00:00	2024-11-08T23:00:00	4	Temperatura máxima	20.9
15275	7	Sololá	712	San Antonio Palopó	9	San Antonio Palopo	10	Octubre	2023-10-25T00:00:00	2024-11-08T23:00:00	3	Temperatura mínima	20.4
15276	7	Sololá	712	San Antonio Palopó	9	San Antonio Palopo	10	Octubre	2023-10-25T00:00:00	2024-11-08T23:00:00	5	Humedad	71
15277	7	Sololá	712	San Antonio Palopó	9	San Antonio Palopo	10	Octubre	2023-10-25T00:00:00	2024-11-08T23:00:00	6	Velocidad del viento	9.7
15278	7	Sololá	712	San Antonio Palopó	9	San Antonio Palopo	10	Octubre	2023-10-25T00:00:00	2024-11-08T23:00:00	7	Dirección del viento	9.66
15279	7	Sololá	712	San Antonio Palopó	9	San Antonio Palopo	10	Octubre	2023-10-25T00:00:00	2024-11-08T23:00:00	1	Precipitación	0
15280	7	Sololá	712	San Antonio Palopó	9	San Antonio Palopo	10	Octubre	2023-10-25T00:00:00	2024-11-08T23:00:00	8	Radiación solar	0
15281	7	Sololá	712	San Antonio Palopó	9	San Antonio Palopo	10	Octubre	2023-10-26T00:00:00	2024-11-08T00:00:00	2	Temperatura media	19.2
15282	7	Sololá	712	San Antonio Palopó	9	San Antonio Palopo	10	Octubre	2023-10-26T00:00:00	2024-11-08T00:00:00	4	Temperatura máxima	21
15283	7	Sololá	712	San Antonio Palopó	9	San Antonio Palopo	10	Octubre	2023-10-26T00:00:00	2024-11-08T00:00:00	3	Temperatura mínima	19.2
15284	7	Sololá	712	San Antonio Palopó	9	San Antonio Palopo	10	Octubre	2023-10-26T00:00:00	2024-11-08T00:00:00	5	Humedad	78
15285	7	Sololá	712	San Antonio Palopó	9	San Antonio Palopo	10	Octubre	2023-10-26T00:00:00	2024-11-08T00:00:00	6	Velocidad del viento	4.8
15286	7	Sololá	712	San Antonio Palopó	9	San Antonio Palopo	10	Octubre	2023-10-26T00:00:00	2024-11-08T00:00:00	7	Dirección del viento	4.83
15287	7	Sololá	712	San Antonio Palopó	9	San Antonio Palopo	10	Octubre	2023-10-26T00:00:00	2024-11-08T00:00:00	1	Precipitación	0
15288	7	Sololá	712	San Antonio Palopó	9	San Antonio Palopo	10	Octubre	2023-10-26T00:00:00	2024-11-08T00:00:00	8	Radiación solar	0
15289	7	Sololá	712	San Antonio Palopó	9	San Antonio Palopo	10	Octubre	2023-10-26T00:00:00	2024-11-08T01:00:00	2	Temperatura media	19.6
15290	7	Sololá	712	San Antonio Palopó	9	San Antonio Palopo	10	Octubre	2023-10-26T00:00:00	2024-11-08T01:00:00	4	Temperatura máxima	19.7
15291	7	Sololá	712	San Antonio Palopó	9	San Antonio Palopo	10	Octubre	2023-10-26T00:00:00	2024-11-08T01:00:00	3	Temperatura mínima	19.1
15292	7	Sololá	712	San Antonio Palopó	9	San Antonio Palopo	10	Octubre	2023-10-26T00:00:00	2024-11-08T01:00:00	5	Humedad	75
15293	7	Sololá	712	San Antonio Palopó	9	San Antonio Palopo	10	Octubre	2023-10-26T00:00:00	2024-11-08T01:00:00	6	Velocidad del viento	4.8
15294	7	Sololá	712	San Antonio Palopó	9	San Antonio Palopo	10	Octubre	2023-10-26T00:00:00	2024-11-08T01:00:00	7	Dirección del viento	4.83
15295	7	Sololá	712	San Antonio Palopó	9	San Antonio Palopo	10	Octubre	2023-10-26T00:00:00	2024-11-08T01:00:00	1	Precipitación	0
15296	7	Sololá	712	San Antonio Palopó	9	San Antonio Palopo	10	Octubre	2023-10-26T00:00:00	2024-11-08T01:00:00	8	Radiación solar	0
15297	7	Sololá	712	San Antonio Palopó	9	San Antonio Palopo	10	Octubre	2023-10-26T00:00:00	2024-11-08T02:00:00	2	Temperatura media	19.8
15298	7	Sololá	712	San Antonio Palopó	9	San Antonio Palopo	10	Octubre	2023-10-26T00:00:00	2024-11-08T02:00:00	4	Temperatura máxima	19.9
15299	7	Sololá	712	San Antonio Palopó	9	San Antonio Palopo	10	Octubre	2023-10-26T00:00:00	2024-11-08T02:00:00	3	Temperatura mínima	19.4
15300	7	Sololá	712	San Antonio Palopó	9	San Antonio Palopo	10	Octubre	2023-10-26T00:00:00	2024-11-08T02:00:00	5	Humedad	74
15301	7	Sololá	712	San Antonio Palopó	9	San Antonio Palopo	10	Octubre	2023-10-26T00:00:00	2024-11-08T02:00:00	6	Velocidad del viento	4.8
15302	7	Sololá	712	San Antonio Palopó	9	San Antonio Palopo	10	Octubre	2023-10-26T00:00:00	2024-11-08T02:00:00	7	Dirección del viento	4.83
15303	7	Sololá	712	San Antonio Palopó	9	San Antonio Palopo	10	Octubre	2023-10-26T00:00:00	2024-11-08T02:00:00	1	Precipitación	0
15304	7	Sololá	712	San Antonio Palopó	9	San Antonio Palopo	10	Octubre	2023-10-26T00:00:00	2024-11-08T02:00:00	8	Radiación solar	0
15305	7	Sololá	712	San Antonio Palopó	9	San Antonio Palopo	10	Octubre	2023-10-26T00:00:00	2024-11-08T03:00:00	2	Temperatura media	19.7
15306	7	Sololá	712	San Antonio Palopó	9	San Antonio Palopo	10	Octubre	2023-10-26T00:00:00	2024-11-08T03:00:00	4	Temperatura máxima	20.1
15307	7	Sololá	712	San Antonio Palopó	9	San Antonio Palopo	10	Octubre	2023-10-26T00:00:00	2024-11-08T03:00:00	3	Temperatura mínima	19.7
15308	7	Sololá	712	San Antonio Palopó	9	San Antonio Palopo	10	Octubre	2023-10-26T00:00:00	2024-11-08T03:00:00	5	Humedad	73
15309	7	Sololá	712	San Antonio Palopó	9	San Antonio Palopo	10	Octubre	2023-10-26T00:00:00	2024-11-08T03:00:00	6	Velocidad del viento	3.2
15310	7	Sololá	712	San Antonio Palopó	9	San Antonio Palopo	10	Octubre	2023-10-26T00:00:00	2024-11-08T03:00:00	7	Dirección del viento	3.22
15311	7	Sololá	712	San Antonio Palopó	9	San Antonio Palopo	10	Octubre	2023-10-26T00:00:00	2024-11-08T03:00:00	1	Precipitación	0
15312	7	Sololá	712	San Antonio Palopó	9	San Antonio Palopo	10	Octubre	2023-10-26T00:00:00	2024-11-08T03:00:00	8	Radiación solar	0
15313	7	Sololá	712	San Antonio Palopó	9	San Antonio Palopo	10	Octubre	2023-10-26T00:00:00	2024-11-08T04:00:00	2	Temperatura media	19.7
15314	7	Sololá	712	San Antonio Palopó	9	San Antonio Palopo	10	Octubre	2023-10-26T00:00:00	2024-11-08T04:00:00	4	Temperatura máxima	19.8
15315	7	Sololá	712	San Antonio Palopó	9	San Antonio Palopo	10	Octubre	2023-10-26T00:00:00	2024-11-08T04:00:00	3	Temperatura mínima	19.4
15316	7	Sololá	712	San Antonio Palopó	9	San Antonio Palopo	10	Octubre	2023-10-26T00:00:00	2024-11-08T04:00:00	5	Humedad	73
15317	7	Sololá	712	San Antonio Palopó	9	San Antonio Palopo	10	Octubre	2023-10-26T00:00:00	2024-11-08T04:00:00	6	Velocidad del viento	6.4
15318	7	Sololá	712	San Antonio Palopó	9	San Antonio Palopo	10	Octubre	2023-10-26T00:00:00	2024-11-08T04:00:00	7	Dirección del viento	6.44
15319	7	Sololá	712	San Antonio Palopó	9	San Antonio Palopo	10	Octubre	2023-10-26T00:00:00	2024-11-08T04:00:00	1	Precipitación	0
15320	7	Sololá	712	San Antonio Palopó	9	San Antonio Palopo	10	Octubre	2023-10-26T00:00:00	2024-11-08T04:00:00	8	Radiación solar	0
15321	7	Sololá	712	San Antonio Palopó	9	San Antonio Palopo	10	Octubre	2023-10-26T00:00:00	2024-11-08T05:00:00	2	Temperatura media	19.5
15322	7	Sololá	712	San Antonio Palopó	9	San Antonio Palopo	10	Octubre	2023-10-26T00:00:00	2024-11-08T05:00:00	4	Temperatura máxima	19.9
15323	7	Sololá	712	San Antonio Palopó	9	San Antonio Palopo	10	Octubre	2023-10-26T00:00:00	2024-11-08T05:00:00	3	Temperatura mínima	19.3
15324	7	Sololá	712	San Antonio Palopó	9	San Antonio Palopo	10	Octubre	2023-10-26T00:00:00	2024-11-08T05:00:00	5	Humedad	73
15325	7	Sololá	712	San Antonio Palopó	9	San Antonio Palopo	10	Octubre	2023-10-26T00:00:00	2024-11-08T05:00:00	6	Velocidad del viento	8
15326	7	Sololá	712	San Antonio Palopó	9	San Antonio Palopo	10	Octubre	2023-10-26T00:00:00	2024-11-08T05:00:00	7	Dirección del viento	8.05
15327	7	Sololá	712	San Antonio Palopó	9	San Antonio Palopo	10	Octubre	2023-10-26T00:00:00	2024-11-08T05:00:00	1	Precipitación	0
15328	7	Sololá	712	San Antonio Palopó	9	San Antonio Palopo	10	Octubre	2023-10-26T00:00:00	2024-11-08T05:00:00	8	Radiación solar	0
15329	7	Sololá	712	San Antonio Palopó	9	San Antonio Palopo	10	Octubre	2023-10-26T00:00:00	2024-11-08T06:00:00	2	Temperatura media	18.9
15330	7	Sololá	712	San Antonio Palopó	9	San Antonio Palopo	10	Octubre	2023-10-26T00:00:00	2024-11-08T06:00:00	4	Temperatura máxima	19.7
15331	7	Sololá	712	San Antonio Palopó	9	San Antonio Palopo	10	Octubre	2023-10-26T00:00:00	2024-11-08T06:00:00	3	Temperatura mínima	18.9
15332	7	Sololá	712	San Antonio Palopó	9	San Antonio Palopo	10	Octubre	2023-10-26T00:00:00	2024-11-08T06:00:00	5	Humedad	75
15333	7	Sololá	712	San Antonio Palopó	9	San Antonio Palopo	10	Octubre	2023-10-26T00:00:00	2024-11-08T06:00:00	6	Velocidad del viento	4.8
15334	7	Sololá	712	San Antonio Palopó	9	San Antonio Palopo	10	Octubre	2023-10-26T00:00:00	2024-11-08T06:00:00	7	Dirección del viento	4.83
15335	7	Sololá	712	San Antonio Palopó	9	San Antonio Palopo	10	Octubre	2023-10-26T00:00:00	2024-11-08T06:00:00	1	Precipitación	0
15336	7	Sololá	712	San Antonio Palopó	9	San Antonio Palopo	10	Octubre	2023-10-26T00:00:00	2024-11-08T06:00:00	8	Radiación solar	0
15337	7	Sololá	712	San Antonio Palopó	9	San Antonio Palopo	10	Octubre	2023-10-26T00:00:00	2024-11-08T07:00:00	2	Temperatura media	19.8
15338	7	Sololá	712	San Antonio Palopó	9	San Antonio Palopo	10	Octubre	2023-10-26T00:00:00	2024-11-08T07:00:00	4	Temperatura máxima	19.8
15339	7	Sololá	712	San Antonio Palopó	9	San Antonio Palopo	10	Octubre	2023-10-26T00:00:00	2024-11-08T07:00:00	3	Temperatura mínima	18.8
15340	7	Sololá	712	San Antonio Palopó	9	San Antonio Palopo	10	Octubre	2023-10-26T00:00:00	2024-11-08T07:00:00	5	Humedad	72
15341	7	Sololá	712	San Antonio Palopó	9	San Antonio Palopo	10	Octubre	2023-10-26T00:00:00	2024-11-08T07:00:00	6	Velocidad del viento	6.4
15342	7	Sololá	712	San Antonio Palopó	9	San Antonio Palopo	10	Octubre	2023-10-26T00:00:00	2024-11-08T07:00:00	7	Dirección del viento	6.44
15343	7	Sololá	712	San Antonio Palopó	9	San Antonio Palopo	10	Octubre	2023-10-26T00:00:00	2024-11-08T07:00:00	1	Precipitación	0
15344	7	Sololá	712	San Antonio Palopó	9	San Antonio Palopo	10	Octubre	2023-10-26T00:00:00	2024-11-08T07:00:00	8	Radiación solar	30
15345	7	Sololá	712	San Antonio Palopó	9	San Antonio Palopo	10	Octubre	2023-10-26T00:00:00	2024-11-08T08:00:00	2	Temperatura media	20.4
15346	7	Sololá	712	San Antonio Palopó	9	San Antonio Palopo	10	Octubre	2023-10-26T00:00:00	2024-11-08T08:00:00	4	Temperatura máxima	20.4
15347	7	Sololá	712	San Antonio Palopó	9	San Antonio Palopo	10	Octubre	2023-10-26T00:00:00	2024-11-08T08:00:00	3	Temperatura mínima	19.7
15348	7	Sololá	712	San Antonio Palopó	9	San Antonio Palopo	10	Octubre	2023-10-26T00:00:00	2024-11-08T08:00:00	5	Humedad	74
15349	7	Sololá	712	San Antonio Palopó	9	San Antonio Palopo	10	Octubre	2023-10-26T00:00:00	2024-11-08T08:00:00	6	Velocidad del viento	3.2
15350	7	Sololá	712	San Antonio Palopó	9	San Antonio Palopo	10	Octubre	2023-10-26T00:00:00	2024-11-08T08:00:00	7	Dirección del viento	3.22
15351	7	Sololá	712	San Antonio Palopó	9	San Antonio Palopo	10	Octubre	2023-10-26T00:00:00	2024-11-08T08:00:00	1	Precipitación	0
15352	7	Sololá	712	San Antonio Palopó	9	San Antonio Palopo	10	Octubre	2023-10-26T00:00:00	2024-11-08T08:00:00	8	Radiación solar	119
15353	7	Sololá	712	San Antonio Palopó	9	San Antonio Palopo	10	Octubre	2023-10-26T00:00:00	2024-11-08T09:00:00	2	Temperatura media	23.6
15354	7	Sololá	712	San Antonio Palopó	9	San Antonio Palopo	10	Octubre	2023-10-26T00:00:00	2024-11-08T09:00:00	4	Temperatura máxima	23.6
15355	7	Sololá	712	San Antonio Palopó	9	San Antonio Palopo	10	Octubre	2023-10-26T00:00:00	2024-11-08T09:00:00	3	Temperatura mínima	20.4
15356	7	Sololá	712	San Antonio Palopó	9	San Antonio Palopo	10	Octubre	2023-10-26T00:00:00	2024-11-08T09:00:00	5	Humedad	63
15357	7	Sololá	712	San Antonio Palopó	9	San Antonio Palopo	10	Octubre	2023-10-26T00:00:00	2024-11-08T09:00:00	6	Velocidad del viento	3.2
15358	7	Sololá	712	San Antonio Palopó	9	San Antonio Palopo	10	Octubre	2023-10-26T00:00:00	2024-11-08T09:00:00	7	Dirección del viento	3.22
15359	7	Sololá	712	San Antonio Palopó	9	San Antonio Palopo	10	Octubre	2023-10-26T00:00:00	2024-11-08T09:00:00	1	Precipitación	0
15360	7	Sololá	712	San Antonio Palopó	9	San Antonio Palopo	10	Octubre	2023-10-26T00:00:00	2024-11-08T09:00:00	8	Radiación solar	460
15361	7	Sololá	712	San Antonio Palopó	9	San Antonio Palopo	10	Octubre	2023-10-26T00:00:00	2024-11-08T10:00:00	2	Temperatura media	23.3
15362	7	Sololá	712	San Antonio Palopó	9	San Antonio Palopo	10	Octubre	2023-10-26T00:00:00	2024-11-08T10:00:00	4	Temperatura máxima	24.2
15363	7	Sololá	712	San Antonio Palopó	9	San Antonio Palopo	10	Octubre	2023-10-26T00:00:00	2024-11-08T10:00:00	3	Temperatura mínima	22.8
15364	7	Sololá	712	San Antonio Palopó	9	San Antonio Palopo	10	Octubre	2023-10-26T00:00:00	2024-11-08T10:00:00	5	Humedad	67
15365	7	Sololá	712	San Antonio Palopó	9	San Antonio Palopo	10	Octubre	2023-10-26T00:00:00	2024-11-08T10:00:00	6	Velocidad del viento	8
15366	7	Sololá	712	San Antonio Palopó	9	San Antonio Palopo	10	Octubre	2023-10-26T00:00:00	2024-11-08T10:00:00	7	Dirección del viento	8.05
15367	7	Sololá	712	San Antonio Palopó	9	San Antonio Palopo	10	Octubre	2023-10-26T00:00:00	2024-11-08T10:00:00	1	Precipitación	0
15368	7	Sololá	712	San Antonio Palopó	9	San Antonio Palopo	10	Octubre	2023-10-26T00:00:00	2024-11-08T10:00:00	8	Radiación solar	718
15369	7	Sololá	712	San Antonio Palopó	9	San Antonio Palopo	10	Octubre	2023-10-26T00:00:00	2024-11-08T11:00:00	2	Temperatura media	23.5
15370	7	Sololá	712	San Antonio Palopó	9	San Antonio Palopo	10	Octubre	2023-10-26T00:00:00	2024-11-08T11:00:00	4	Temperatura máxima	24.6
15371	7	Sololá	712	San Antonio Palopó	9	San Antonio Palopo	10	Octubre	2023-10-26T00:00:00	2024-11-08T11:00:00	3	Temperatura mínima	23.2
15372	7	Sololá	712	San Antonio Palopó	9	San Antonio Palopo	10	Octubre	2023-10-26T00:00:00	2024-11-08T11:00:00	5	Humedad	70
15373	7	Sololá	712	San Antonio Palopó	9	San Antonio Palopo	10	Octubre	2023-10-26T00:00:00	2024-11-08T11:00:00	6	Velocidad del viento	11.3
15374	7	Sololá	712	San Antonio Palopó	9	San Antonio Palopo	10	Octubre	2023-10-26T00:00:00	2024-11-08T11:00:00	7	Dirección del viento	11.27
15375	7	Sololá	712	San Antonio Palopó	9	San Antonio Palopo	10	Octubre	2023-10-26T00:00:00	2024-11-08T11:00:00	1	Precipitación	0
15376	7	Sololá	712	San Antonio Palopó	9	San Antonio Palopo	10	Octubre	2023-10-26T00:00:00	2024-11-08T11:00:00	8	Radiación solar	937
15377	7	Sololá	712	San Antonio Palopó	9	San Antonio Palopo	10	Octubre	2023-10-26T00:00:00	2024-11-08T12:00:00	2	Temperatura media	24.4
15378	7	Sololá	712	San Antonio Palopó	9	San Antonio Palopo	10	Octubre	2023-10-26T00:00:00	2024-11-08T12:00:00	4	Temperatura máxima	24.8
15379	7	Sololá	712	San Antonio Palopó	9	San Antonio Palopo	10	Octubre	2023-10-26T00:00:00	2024-11-08T12:00:00	3	Temperatura mínima	23.5
15380	7	Sololá	712	San Antonio Palopó	9	San Antonio Palopo	10	Octubre	2023-10-26T00:00:00	2024-11-08T12:00:00	5	Humedad	71
15381	7	Sololá	712	San Antonio Palopó	9	San Antonio Palopo	10	Octubre	2023-10-26T00:00:00	2024-11-08T12:00:00	6	Velocidad del viento	9.7
15382	7	Sololá	712	San Antonio Palopó	9	San Antonio Palopo	10	Octubre	2023-10-26T00:00:00	2024-11-08T12:00:00	7	Dirección del viento	9.66
15383	7	Sololá	712	San Antonio Palopó	9	San Antonio Palopo	10	Octubre	2023-10-26T00:00:00	2024-11-08T12:00:00	1	Precipitación	0
15384	7	Sololá	712	San Antonio Palopó	9	San Antonio Palopo	10	Octubre	2023-10-26T00:00:00	2024-11-08T12:00:00	8	Radiación solar	686
15385	7	Sololá	712	San Antonio Palopó	9	San Antonio Palopo	10	Octubre	2023-10-26T00:00:00	2024-11-08T13:00:00	2	Temperatura media	23.3
15386	7	Sololá	712	San Antonio Palopó	9	San Antonio Palopo	10	Octubre	2023-10-26T00:00:00	2024-11-08T13:00:00	4	Temperatura máxima	24.9
15387	7	Sololá	712	San Antonio Palopó	9	San Antonio Palopo	10	Octubre	2023-10-26T00:00:00	2024-11-08T13:00:00	3	Temperatura mínima	23.2
15388	7	Sololá	712	San Antonio Palopó	9	San Antonio Palopo	10	Octubre	2023-10-26T00:00:00	2024-11-08T13:00:00	5	Humedad	67
15389	7	Sololá	712	San Antonio Palopó	9	San Antonio Palopo	10	Octubre	2023-10-26T00:00:00	2024-11-08T13:00:00	6	Velocidad del viento	8
15390	7	Sololá	712	San Antonio Palopó	9	San Antonio Palopo	10	Octubre	2023-10-26T00:00:00	2024-11-08T13:00:00	7	Dirección del viento	8.05
15391	7	Sololá	712	San Antonio Palopó	9	San Antonio Palopo	10	Octubre	2023-10-26T00:00:00	2024-11-08T13:00:00	1	Precipitación	0
15392	7	Sololá	712	San Antonio Palopó	9	San Antonio Palopo	10	Octubre	2023-10-26T00:00:00	2024-11-08T13:00:00	8	Radiación solar	344
15393	7	Sololá	712	San Antonio Palopó	9	San Antonio Palopo	10	Octubre	2023-10-26T00:00:00	2024-11-08T14:00:00	2	Temperatura media	23.6
15394	7	Sololá	712	San Antonio Palopó	9	San Antonio Palopo	10	Octubre	2023-10-26T00:00:00	2024-11-08T14:00:00	4	Temperatura máxima	24.7
15395	7	Sololá	712	San Antonio Palopó	9	San Antonio Palopo	10	Octubre	2023-10-26T00:00:00	2024-11-08T14:00:00	3	Temperatura mínima	23.3
15396	7	Sololá	712	San Antonio Palopó	9	San Antonio Palopo	10	Octubre	2023-10-26T00:00:00	2024-11-08T14:00:00	5	Humedad	77
15397	7	Sololá	712	San Antonio Palopó	9	San Antonio Palopo	10	Octubre	2023-10-26T00:00:00	2024-11-08T14:00:00	6	Velocidad del viento	6.4
15398	7	Sololá	712	San Antonio Palopó	9	San Antonio Palopo	10	Octubre	2023-10-26T00:00:00	2024-11-08T14:00:00	7	Dirección del viento	6.44
15399	7	Sololá	712	San Antonio Palopó	9	San Antonio Palopo	10	Octubre	2023-10-26T00:00:00	2024-11-08T14:00:00	1	Precipitación	0
15400	7	Sololá	712	San Antonio Palopó	9	San Antonio Palopo	10	Octubre	2023-10-26T00:00:00	2024-11-08T14:00:00	8	Radiación solar	372
15401	7	Sololá	712	San Antonio Palopó	9	San Antonio Palopo	10	Octubre	2023-10-26T00:00:00	2024-11-08T15:00:00	2	Temperatura media	24
15402	7	Sololá	712	San Antonio Palopó	9	San Antonio Palopo	10	Octubre	2023-10-26T00:00:00	2024-11-08T15:00:00	4	Temperatura máxima	25.2
15403	7	Sololá	712	San Antonio Palopó	9	San Antonio Palopo	10	Octubre	2023-10-26T00:00:00	2024-11-08T15:00:00	3	Temperatura mínima	23.4
15404	7	Sololá	712	San Antonio Palopó	9	San Antonio Palopo	10	Octubre	2023-10-26T00:00:00	2024-11-08T15:00:00	5	Humedad	75
15405	7	Sololá	712	San Antonio Palopó	9	San Antonio Palopo	10	Octubre	2023-10-26T00:00:00	2024-11-08T15:00:00	6	Velocidad del viento	4.8
15406	7	Sololá	712	San Antonio Palopó	9	San Antonio Palopo	10	Octubre	2023-10-26T00:00:00	2024-11-08T15:00:00	7	Dirección del viento	4.83
15407	7	Sololá	712	San Antonio Palopó	9	San Antonio Palopo	10	Octubre	2023-10-26T00:00:00	2024-11-08T15:00:00	1	Precipitación	0
15408	7	Sololá	712	San Antonio Palopó	9	San Antonio Palopo	10	Octubre	2023-10-26T00:00:00	2024-11-08T15:00:00	8	Radiación solar	458
15409	7	Sololá	712	San Antonio Palopó	9	San Antonio Palopo	10	Octubre	2023-10-26T00:00:00	2024-11-08T16:00:00	2	Temperatura media	24
15410	7	Sololá	712	San Antonio Palopó	9	San Antonio Palopo	10	Octubre	2023-10-26T00:00:00	2024-11-08T16:00:00	4	Temperatura máxima	24.7
15411	7	Sololá	712	San Antonio Palopó	9	San Antonio Palopo	10	Octubre	2023-10-26T00:00:00	2024-11-08T16:00:00	3	Temperatura mínima	23.7
15412	7	Sololá	712	San Antonio Palopó	9	San Antonio Palopo	10	Octubre	2023-10-26T00:00:00	2024-11-08T16:00:00	5	Humedad	75
15413	7	Sololá	712	San Antonio Palopó	9	San Antonio Palopo	10	Octubre	2023-10-26T00:00:00	2024-11-08T16:00:00	6	Velocidad del viento	6.4
15414	7	Sololá	712	San Antonio Palopó	9	San Antonio Palopo	10	Octubre	2023-10-26T00:00:00	2024-11-08T16:00:00	7	Dirección del viento	6.44
15415	7	Sololá	712	San Antonio Palopó	9	San Antonio Palopo	10	Octubre	2023-10-26T00:00:00	2024-11-08T16:00:00	1	Precipitación	0
15416	7	Sololá	712	San Antonio Palopó	9	San Antonio Palopo	10	Octubre	2023-10-26T00:00:00	2024-11-08T16:00:00	8	Radiación solar	384
15417	7	Sololá	712	San Antonio Palopó	9	San Antonio Palopo	10	Octubre	2023-10-26T00:00:00	2024-11-08T17:00:00	2	Temperatura media	21.7
15418	7	Sololá	712	San Antonio Palopó	9	San Antonio Palopo	10	Octubre	2023-10-26T00:00:00	2024-11-08T17:00:00	4	Temperatura máxima	24.4
15419	7	Sololá	712	San Antonio Palopó	9	San Antonio Palopo	10	Octubre	2023-10-26T00:00:00	2024-11-08T17:00:00	3	Temperatura mínima	21.7
15420	7	Sololá	712	San Antonio Palopó	9	San Antonio Palopo	10	Octubre	2023-10-26T00:00:00	2024-11-08T17:00:00	5	Humedad	81
15421	7	Sololá	712	San Antonio Palopó	9	San Antonio Palopo	10	Octubre	2023-10-26T00:00:00	2024-11-08T17:00:00	6	Velocidad del viento	4.8
15422	7	Sololá	712	San Antonio Palopó	9	San Antonio Palopo	10	Octubre	2023-10-26T00:00:00	2024-11-08T17:00:00	7	Dirección del viento	4.83
15423	7	Sololá	712	San Antonio Palopó	9	San Antonio Palopo	10	Octubre	2023-10-26T00:00:00	2024-11-08T17:00:00	1	Precipitación	0
15424	7	Sololá	712	San Antonio Palopó	9	San Antonio Palopo	10	Octubre	2023-10-26T00:00:00	2024-11-08T17:00:00	8	Radiación solar	130
15425	7	Sololá	712	San Antonio Palopó	9	San Antonio Palopo	10	Octubre	2023-10-26T00:00:00	2024-11-08T18:00:00	2	Temperatura media	20.9
15426	7	Sololá	712	San Antonio Palopó	9	San Antonio Palopo	10	Octubre	2023-10-26T00:00:00	2024-11-08T18:00:00	4	Temperatura máxima	21.7
15427	7	Sololá	712	San Antonio Palopó	9	San Antonio Palopo	10	Octubre	2023-10-26T00:00:00	2024-11-08T18:00:00	3	Temperatura mínima	20.9
15428	7	Sololá	712	San Antonio Palopó	9	San Antonio Palopo	10	Octubre	2023-10-26T00:00:00	2024-11-08T18:00:00	5	Humedad	82
15429	7	Sololá	712	San Antonio Palopó	9	San Antonio Palopo	10	Octubre	2023-10-26T00:00:00	2024-11-08T18:00:00	6	Velocidad del viento	1.6
15430	7	Sololá	712	San Antonio Palopó	9	San Antonio Palopo	10	Octubre	2023-10-26T00:00:00	2024-11-08T18:00:00	7	Dirección del viento	1.61
15431	7	Sololá	712	San Antonio Palopó	9	San Antonio Palopo	10	Octubre	2023-10-26T00:00:00	2024-11-08T18:00:00	1	Precipitación	0
15432	7	Sololá	712	San Antonio Palopó	9	San Antonio Palopo	10	Octubre	2023-10-26T00:00:00	2024-11-08T18:00:00	8	Radiación solar	6
15433	7	Sololá	712	San Antonio Palopó	9	San Antonio Palopo	10	Octubre	2023-10-26T00:00:00	2024-11-08T19:00:00	2	Temperatura media	19.8
15434	7	Sololá	712	San Antonio Palopó	9	San Antonio Palopo	10	Octubre	2023-10-26T00:00:00	2024-11-08T19:00:00	4	Temperatura máxima	20.9
15435	7	Sololá	712	San Antonio Palopó	9	San Antonio Palopo	10	Octubre	2023-10-26T00:00:00	2024-11-08T19:00:00	3	Temperatura mínima	19.8
15436	7	Sololá	712	San Antonio Palopó	9	San Antonio Palopo	10	Octubre	2023-10-26T00:00:00	2024-11-08T19:00:00	5	Humedad	81
15437	7	Sololá	712	San Antonio Palopó	9	San Antonio Palopo	10	Octubre	2023-10-26T00:00:00	2024-11-08T19:00:00	6	Velocidad del viento	3.2
15438	7	Sololá	712	San Antonio Palopó	9	San Antonio Palopo	10	Octubre	2023-10-26T00:00:00	2024-11-08T19:00:00	7	Dirección del viento	3.22
15439	7	Sololá	712	San Antonio Palopó	9	San Antonio Palopo	10	Octubre	2023-10-26T00:00:00	2024-11-08T19:00:00	1	Precipitación	0
15440	7	Sololá	712	San Antonio Palopó	9	San Antonio Palopo	10	Octubre	2023-10-26T00:00:00	2024-11-08T19:00:00	8	Radiación solar	0
15441	7	Sololá	712	San Antonio Palopó	9	San Antonio Palopo	10	Octubre	2023-10-26T00:00:00	2024-11-08T20:00:00	2	Temperatura media	20.6
15442	7	Sololá	712	San Antonio Palopó	9	San Antonio Palopo	10	Octubre	2023-10-26T00:00:00	2024-11-08T20:00:00	4	Temperatura máxima	20.6
15443	7	Sololá	712	San Antonio Palopó	9	San Antonio Palopo	10	Octubre	2023-10-26T00:00:00	2024-11-08T20:00:00	3	Temperatura mínima	19.7
15444	7	Sololá	712	San Antonio Palopó	9	San Antonio Palopo	10	Octubre	2023-10-26T00:00:00	2024-11-08T20:00:00	5	Humedad	74
15445	7	Sololá	712	San Antonio Palopó	9	San Antonio Palopo	10	Octubre	2023-10-26T00:00:00	2024-11-08T20:00:00	6	Velocidad del viento	3.2
15446	7	Sololá	712	San Antonio Palopó	9	San Antonio Palopo	10	Octubre	2023-10-26T00:00:00	2024-11-08T20:00:00	7	Dirección del viento	3.22
15447	7	Sololá	712	San Antonio Palopó	9	San Antonio Palopo	10	Octubre	2023-10-26T00:00:00	2024-11-08T20:00:00	1	Precipitación	0
15448	7	Sololá	712	San Antonio Palopó	9	San Antonio Palopo	10	Octubre	2023-10-26T00:00:00	2024-11-08T20:00:00	8	Radiación solar	0
15449	7	Sololá	712	San Antonio Palopó	9	San Antonio Palopo	10	Octubre	2023-10-26T00:00:00	2024-11-08T21:00:00	2	Temperatura media	20.7
15450	7	Sololá	712	San Antonio Palopó	9	San Antonio Palopo	10	Octubre	2023-10-26T00:00:00	2024-11-08T21:00:00	4	Temperatura máxima	20.7
15451	7	Sololá	712	San Antonio Palopó	9	San Antonio Palopo	10	Octubre	2023-10-26T00:00:00	2024-11-08T21:00:00	3	Temperatura mínima	20.4
15452	7	Sololá	712	San Antonio Palopó	9	San Antonio Palopo	10	Octubre	2023-10-26T00:00:00	2024-11-08T21:00:00	5	Humedad	73
15453	7	Sololá	712	San Antonio Palopó	9	San Antonio Palopo	10	Octubre	2023-10-26T00:00:00	2024-11-08T21:00:00	6	Velocidad del viento	6.4
15454	7	Sololá	712	San Antonio Palopó	9	San Antonio Palopo	10	Octubre	2023-10-26T00:00:00	2024-11-08T21:00:00	7	Dirección del viento	6.44
15455	7	Sololá	712	San Antonio Palopó	9	San Antonio Palopo	10	Octubre	2023-10-26T00:00:00	2024-11-08T21:00:00	1	Precipitación	0
15456	7	Sololá	712	San Antonio Palopó	9	San Antonio Palopo	10	Octubre	2023-10-26T00:00:00	2024-11-08T21:00:00	8	Radiación solar	0
15457	7	Sololá	712	San Antonio Palopó	9	San Antonio Palopo	10	Octubre	2023-10-26T00:00:00	2024-11-08T22:00:00	2	Temperatura media	20.6
15458	7	Sololá	712	San Antonio Palopó	9	San Antonio Palopo	10	Octubre	2023-10-26T00:00:00	2024-11-08T22:00:00	4	Temperatura máxima	20.9
15459	7	Sololá	712	San Antonio Palopó	9	San Antonio Palopo	10	Octubre	2023-10-26T00:00:00	2024-11-08T22:00:00	3	Temperatura mínima	20.4
15460	7	Sololá	712	San Antonio Palopó	9	San Antonio Palopo	10	Octubre	2023-10-26T00:00:00	2024-11-08T22:00:00	5	Humedad	74
15461	7	Sololá	712	San Antonio Palopó	9	San Antonio Palopo	10	Octubre	2023-10-26T00:00:00	2024-11-08T22:00:00	6	Velocidad del viento	9.7
15462	7	Sololá	712	San Antonio Palopó	9	San Antonio Palopo	10	Octubre	2023-10-26T00:00:00	2024-11-08T22:00:00	7	Dirección del viento	9.66
15463	7	Sololá	712	San Antonio Palopó	9	San Antonio Palopo	10	Octubre	2023-10-26T00:00:00	2024-11-08T22:00:00	1	Precipitación	0
15464	7	Sololá	712	San Antonio Palopó	9	San Antonio Palopo	10	Octubre	2023-10-26T00:00:00	2024-11-08T22:00:00	8	Radiación solar	0
15465	7	Sololá	712	San Antonio Palopó	9	San Antonio Palopo	10	Octubre	2023-10-26T00:00:00	2024-11-08T23:00:00	2	Temperatura media	20.4
15466	7	Sololá	712	San Antonio Palopó	9	San Antonio Palopo	10	Octubre	2023-10-26T00:00:00	2024-11-08T23:00:00	4	Temperatura máxima	20.9
15467	7	Sololá	712	San Antonio Palopó	9	San Antonio Palopo	10	Octubre	2023-10-26T00:00:00	2024-11-08T23:00:00	3	Temperatura mínima	20.3
15468	7	Sololá	712	San Antonio Palopó	9	San Antonio Palopo	10	Octubre	2023-10-26T00:00:00	2024-11-08T23:00:00	5	Humedad	73
15469	7	Sololá	712	San Antonio Palopó	9	San Antonio Palopo	10	Octubre	2023-10-26T00:00:00	2024-11-08T23:00:00	6	Velocidad del viento	6.4
15470	7	Sololá	712	San Antonio Palopó	9	San Antonio Palopo	10	Octubre	2023-10-26T00:00:00	2024-11-08T23:00:00	7	Dirección del viento	6.44
15471	7	Sololá	712	San Antonio Palopó	9	San Antonio Palopo	10	Octubre	2023-10-26T00:00:00	2024-11-08T23:00:00	1	Precipitación	0
15472	7	Sololá	712	San Antonio Palopó	9	San Antonio Palopo	10	Octubre	2023-10-26T00:00:00	2024-11-08T23:00:00	8	Radiación solar	0
15473	7	Sololá	712	San Antonio Palopó	9	San Antonio Palopo	10	Octubre	2023-10-27T00:00:00	2024-11-08T00:00:00	2	Temperatura media	20.6
15474	7	Sololá	712	San Antonio Palopó	9	San Antonio Palopo	10	Octubre	2023-10-27T00:00:00	2024-11-08T00:00:00	4	Temperatura máxima	20.8
15475	7	Sololá	712	San Antonio Palopó	9	San Antonio Palopo	10	Octubre	2023-10-27T00:00:00	2024-11-08T00:00:00	3	Temperatura mínima	20.2
15476	7	Sololá	712	San Antonio Palopó	9	San Antonio Palopo	10	Octubre	2023-10-27T00:00:00	2024-11-08T00:00:00	5	Humedad	73
15477	7	Sololá	712	San Antonio Palopó	9	San Antonio Palopo	10	Octubre	2023-10-27T00:00:00	2024-11-08T00:00:00	6	Velocidad del viento	4.8
15478	7	Sololá	712	San Antonio Palopó	9	San Antonio Palopo	10	Octubre	2023-10-27T00:00:00	2024-11-08T00:00:00	7	Dirección del viento	4.83
15479	7	Sololá	712	San Antonio Palopó	9	San Antonio Palopo	10	Octubre	2023-10-27T00:00:00	2024-11-08T00:00:00	1	Precipitación	0
15480	7	Sololá	712	San Antonio Palopó	9	San Antonio Palopo	10	Octubre	2023-10-27T00:00:00	2024-11-08T00:00:00	8	Radiación solar	0
15481	7	Sololá	712	San Antonio Palopó	9	San Antonio Palopo	10	Octubre	2023-10-27T00:00:00	2024-11-08T01:00:00	2	Temperatura media	20.8
15482	7	Sololá	712	San Antonio Palopó	9	San Antonio Palopo	10	Octubre	2023-10-27T00:00:00	2024-11-08T01:00:00	4	Temperatura máxima	20.9
15483	7	Sololá	712	San Antonio Palopó	9	San Antonio Palopo	10	Octubre	2023-10-27T00:00:00	2024-11-08T01:00:00	3	Temperatura mínima	20.4
15484	7	Sololá	712	San Antonio Palopó	9	San Antonio Palopo	10	Octubre	2023-10-27T00:00:00	2024-11-08T01:00:00	5	Humedad	72
15485	7	Sololá	712	San Antonio Palopó	9	San Antonio Palopo	10	Octubre	2023-10-27T00:00:00	2024-11-08T01:00:00	6	Velocidad del viento	11.3
15486	7	Sololá	712	San Antonio Palopó	9	San Antonio Palopo	10	Octubre	2023-10-27T00:00:00	2024-11-08T01:00:00	7	Dirección del viento	11.27
15487	7	Sololá	712	San Antonio Palopó	9	San Antonio Palopo	10	Octubre	2023-10-27T00:00:00	2024-11-08T01:00:00	1	Precipitación	0
15488	7	Sololá	712	San Antonio Palopó	9	San Antonio Palopo	10	Octubre	2023-10-27T00:00:00	2024-11-08T01:00:00	8	Radiación solar	0
15489	7	Sololá	712	San Antonio Palopó	9	San Antonio Palopo	10	Octubre	2023-10-27T00:00:00	2024-11-08T02:00:00	2	Temperatura media	20.2
15490	7	Sololá	712	San Antonio Palopó	9	San Antonio Palopo	10	Octubre	2023-10-27T00:00:00	2024-11-08T02:00:00	4	Temperatura máxima	20.8
15491	7	Sololá	712	San Antonio Palopó	9	San Antonio Palopo	10	Octubre	2023-10-27T00:00:00	2024-11-08T02:00:00	3	Temperatura mínima	20.2
15492	7	Sololá	712	San Antonio Palopó	9	San Antonio Palopo	10	Octubre	2023-10-27T00:00:00	2024-11-08T02:00:00	5	Humedad	73
15493	7	Sololá	712	San Antonio Palopó	9	San Antonio Palopo	10	Octubre	2023-10-27T00:00:00	2024-11-08T02:00:00	6	Velocidad del viento	11.3
15494	7	Sololá	712	San Antonio Palopó	9	San Antonio Palopo	10	Octubre	2023-10-27T00:00:00	2024-11-08T02:00:00	7	Dirección del viento	11.27
15495	7	Sololá	712	San Antonio Palopó	9	San Antonio Palopo	10	Octubre	2023-10-27T00:00:00	2024-11-08T02:00:00	1	Precipitación	0
15496	7	Sololá	712	San Antonio Palopó	9	San Antonio Palopo	10	Octubre	2023-10-27T00:00:00	2024-11-08T02:00:00	8	Radiación solar	0
15497	7	Sololá	712	San Antonio Palopó	9	San Antonio Palopo	10	Octubre	2023-10-27T00:00:00	2024-11-08T03:00:00	2	Temperatura media	19.7
15498	7	Sololá	712	San Antonio Palopó	9	San Antonio Palopo	10	Octubre	2023-10-27T00:00:00	2024-11-08T03:00:00	4	Temperatura máxima	20.2
15499	7	Sololá	712	San Antonio Palopó	9	San Antonio Palopo	10	Octubre	2023-10-27T00:00:00	2024-11-08T03:00:00	3	Temperatura mínima	19.7
15500	7	Sololá	712	San Antonio Palopó	9	San Antonio Palopo	10	Octubre	2023-10-27T00:00:00	2024-11-08T03:00:00	5	Humedad	75
15501	7	Sololá	712	San Antonio Palopó	9	San Antonio Palopo	10	Octubre	2023-10-27T00:00:00	2024-11-08T03:00:00	6	Velocidad del viento	9.7
15502	7	Sololá	712	San Antonio Palopó	9	San Antonio Palopo	10	Octubre	2023-10-27T00:00:00	2024-11-08T03:00:00	7	Dirección del viento	9.66
15503	7	Sololá	712	San Antonio Palopó	9	San Antonio Palopo	10	Octubre	2023-10-27T00:00:00	2024-11-08T03:00:00	1	Precipitación	0
15504	7	Sololá	712	San Antonio Palopó	9	San Antonio Palopo	10	Octubre	2023-10-27T00:00:00	2024-11-08T03:00:00	8	Radiación solar	0
15505	7	Sololá	712	San Antonio Palopó	9	San Antonio Palopo	10	Octubre	2023-10-27T00:00:00	2024-11-08T04:00:00	2	Temperatura media	20
15506	7	Sololá	712	San Antonio Palopó	9	San Antonio Palopo	10	Octubre	2023-10-27T00:00:00	2024-11-08T04:00:00	4	Temperatura máxima	20
15507	7	Sololá	712	San Antonio Palopó	9	San Antonio Palopo	10	Octubre	2023-10-27T00:00:00	2024-11-08T04:00:00	3	Temperatura mínima	19.6
15508	7	Sololá	712	San Antonio Palopó	9	San Antonio Palopo	10	Octubre	2023-10-27T00:00:00	2024-11-08T04:00:00	5	Humedad	72
15509	7	Sololá	712	San Antonio Palopó	9	San Antonio Palopo	10	Octubre	2023-10-27T00:00:00	2024-11-08T04:00:00	6	Velocidad del viento	8
15510	7	Sololá	712	San Antonio Palopó	9	San Antonio Palopo	10	Octubre	2023-10-27T00:00:00	2024-11-08T04:00:00	7	Dirección del viento	8.05
15511	7	Sololá	712	San Antonio Palopó	9	San Antonio Palopo	10	Octubre	2023-10-27T00:00:00	2024-11-08T04:00:00	1	Precipitación	0
15512	7	Sololá	712	San Antonio Palopó	9	San Antonio Palopo	10	Octubre	2023-10-27T00:00:00	2024-11-08T04:00:00	8	Radiación solar	0
15513	7	Sololá	712	San Antonio Palopó	9	San Antonio Palopo	10	Octubre	2023-10-27T00:00:00	2024-11-08T05:00:00	2	Temperatura media	19.9
15514	7	Sololá	712	San Antonio Palopó	9	San Antonio Palopo	10	Octubre	2023-10-27T00:00:00	2024-11-08T05:00:00	4	Temperatura máxima	20.4
15515	7	Sololá	712	San Antonio Palopó	9	San Antonio Palopo	10	Octubre	2023-10-27T00:00:00	2024-11-08T05:00:00	3	Temperatura mínima	19.9
15516	7	Sololá	712	San Antonio Palopó	9	San Antonio Palopo	10	Octubre	2023-10-27T00:00:00	2024-11-08T05:00:00	5	Humedad	72
15517	7	Sololá	712	San Antonio Palopó	9	San Antonio Palopo	10	Octubre	2023-10-27T00:00:00	2024-11-08T05:00:00	6	Velocidad del viento	6.4
15518	7	Sololá	712	San Antonio Palopó	9	San Antonio Palopo	10	Octubre	2023-10-27T00:00:00	2024-11-08T05:00:00	7	Dirección del viento	6.44
15519	7	Sololá	712	San Antonio Palopó	9	San Antonio Palopo	10	Octubre	2023-10-27T00:00:00	2024-11-08T05:00:00	1	Precipitación	0
15520	7	Sololá	712	San Antonio Palopó	9	San Antonio Palopo	10	Octubre	2023-10-27T00:00:00	2024-11-08T05:00:00	8	Radiación solar	0
15521	7	Sololá	712	San Antonio Palopó	9	San Antonio Palopo	10	Octubre	2023-10-27T00:00:00	2024-11-08T06:00:00	2	Temperatura media	19.7
15522	7	Sololá	712	San Antonio Palopó	9	San Antonio Palopo	10	Octubre	2023-10-27T00:00:00	2024-11-08T06:00:00	4	Temperatura máxima	19.9
15523	7	Sololá	712	San Antonio Palopó	9	San Antonio Palopo	10	Octubre	2023-10-27T00:00:00	2024-11-08T06:00:00	3	Temperatura mínima	19.5
15524	7	Sololá	712	San Antonio Palopó	9	San Antonio Palopo	10	Octubre	2023-10-27T00:00:00	2024-11-08T06:00:00	5	Humedad	73
15525	7	Sololá	712	San Antonio Palopó	9	San Antonio Palopo	10	Octubre	2023-10-27T00:00:00	2024-11-08T06:00:00	6	Velocidad del viento	8
15526	7	Sololá	712	San Antonio Palopó	9	San Antonio Palopo	10	Octubre	2023-10-27T00:00:00	2024-11-08T06:00:00	7	Dirección del viento	8.05
15527	7	Sololá	712	San Antonio Palopó	9	San Antonio Palopo	10	Octubre	2023-10-27T00:00:00	2024-11-08T06:00:00	1	Precipitación	0
15528	7	Sololá	712	San Antonio Palopó	9	San Antonio Palopo	10	Octubre	2023-10-27T00:00:00	2024-11-08T06:00:00	8	Radiación solar	0
15529	7	Sololá	712	San Antonio Palopó	9	San Antonio Palopo	10	Octubre	2023-10-27T00:00:00	2024-11-08T07:00:00	2	Temperatura media	20.5
15530	7	Sololá	712	San Antonio Palopó	9	San Antonio Palopo	10	Octubre	2023-10-27T00:00:00	2024-11-08T07:00:00	4	Temperatura máxima	20.5
15531	7	Sololá	712	San Antonio Palopó	9	San Antonio Palopo	10	Octubre	2023-10-27T00:00:00	2024-11-08T07:00:00	3	Temperatura mínima	19.7
15532	7	Sololá	712	San Antonio Palopó	9	San Antonio Palopo	10	Octubre	2023-10-27T00:00:00	2024-11-08T07:00:00	5	Humedad	72
15533	7	Sololá	712	San Antonio Palopó	9	San Antonio Palopo	10	Octubre	2023-10-27T00:00:00	2024-11-08T07:00:00	6	Velocidad del viento	8
15534	7	Sololá	712	San Antonio Palopó	9	San Antonio Palopo	10	Octubre	2023-10-27T00:00:00	2024-11-08T07:00:00	7	Dirección del viento	8.05
15535	7	Sololá	712	San Antonio Palopó	9	San Antonio Palopo	10	Octubre	2023-10-27T00:00:00	2024-11-08T07:00:00	1	Precipitación	0
15536	7	Sololá	712	San Antonio Palopó	9	San Antonio Palopo	10	Octubre	2023-10-27T00:00:00	2024-11-08T07:00:00	8	Radiación solar	36
15537	7	Sololá	712	San Antonio Palopó	9	San Antonio Palopo	10	Octubre	2023-10-27T00:00:00	2024-11-08T08:00:00	2	Temperatura media	21.2
15538	7	Sololá	712	San Antonio Palopó	9	San Antonio Palopo	10	Octubre	2023-10-27T00:00:00	2024-11-08T08:00:00	4	Temperatura máxima	21.2
15539	7	Sololá	712	San Antonio Palopó	9	San Antonio Palopo	10	Octubre	2023-10-27T00:00:00	2024-11-08T08:00:00	3	Temperatura mínima	20.1
15540	7	Sololá	712	San Antonio Palopó	9	San Antonio Palopo	10	Octubre	2023-10-27T00:00:00	2024-11-08T08:00:00	5	Humedad	74
15541	7	Sololá	712	San Antonio Palopó	9	San Antonio Palopo	10	Octubre	2023-10-27T00:00:00	2024-11-08T08:00:00	6	Velocidad del viento	3.2
15542	7	Sololá	712	San Antonio Palopó	9	San Antonio Palopo	10	Octubre	2023-10-27T00:00:00	2024-11-08T08:00:00	7	Dirección del viento	3.22
15543	7	Sololá	712	San Antonio Palopó	9	San Antonio Palopo	10	Octubre	2023-10-27T00:00:00	2024-11-08T08:00:00	1	Precipitación	0
15544	7	Sololá	712	San Antonio Palopó	9	San Antonio Palopo	10	Octubre	2023-10-27T00:00:00	2024-11-08T08:00:00	8	Radiación solar	97
15545	7	Sololá	712	San Antonio Palopó	9	San Antonio Palopo	10	Octubre	2023-10-27T00:00:00	2024-11-08T09:00:00	2	Temperatura media	22.7
15546	7	Sololá	712	San Antonio Palopó	9	San Antonio Palopo	10	Octubre	2023-10-27T00:00:00	2024-11-08T09:00:00	4	Temperatura máxima	23.3
15547	7	Sololá	712	San Antonio Palopó	9	San Antonio Palopo	10	Octubre	2023-10-27T00:00:00	2024-11-08T09:00:00	3	Temperatura mínima	21.2
15548	7	Sololá	712	San Antonio Palopó	9	San Antonio Palopo	10	Octubre	2023-10-27T00:00:00	2024-11-08T09:00:00	5	Humedad	68
15549	7	Sololá	712	San Antonio Palopó	9	San Antonio Palopo	10	Octubre	2023-10-27T00:00:00	2024-11-08T09:00:00	6	Velocidad del viento	3.2
15550	7	Sololá	712	San Antonio Palopó	9	San Antonio Palopo	10	Octubre	2023-10-27T00:00:00	2024-11-08T09:00:00	7	Dirección del viento	3.22
15551	7	Sololá	712	San Antonio Palopó	9	San Antonio Palopo	10	Octubre	2023-10-27T00:00:00	2024-11-08T09:00:00	1	Precipitación	0
15552	7	Sololá	712	San Antonio Palopó	9	San Antonio Palopo	10	Octubre	2023-10-27T00:00:00	2024-11-08T09:00:00	8	Radiación solar	531
15553	7	Sololá	712	San Antonio Palopó	9	San Antonio Palopo	10	Octubre	2023-10-27T00:00:00	2024-11-08T10:00:00	2	Temperatura media	23.2
15554	7	Sololá	712	San Antonio Palopó	9	San Antonio Palopo	10	Octubre	2023-10-27T00:00:00	2024-11-08T10:00:00	4	Temperatura máxima	23.5
15555	7	Sololá	712	San Antonio Palopó	9	San Antonio Palopo	10	Octubre	2023-10-27T00:00:00	2024-11-08T10:00:00	3	Temperatura mínima	22.5
15556	7	Sololá	712	San Antonio Palopó	9	San Antonio Palopo	10	Octubre	2023-10-27T00:00:00	2024-11-08T10:00:00	5	Humedad	67
15557	7	Sololá	712	San Antonio Palopó	9	San Antonio Palopo	10	Octubre	2023-10-27T00:00:00	2024-11-08T10:00:00	6	Velocidad del viento	3.2
15558	7	Sololá	712	San Antonio Palopó	9	San Antonio Palopo	10	Octubre	2023-10-27T00:00:00	2024-11-08T10:00:00	7	Dirección del viento	3.22
15559	7	Sololá	712	San Antonio Palopó	9	San Antonio Palopo	10	Octubre	2023-10-27T00:00:00	2024-11-08T10:00:00	1	Precipitación	0
15560	7	Sololá	712	San Antonio Palopó	9	San Antonio Palopo	10	Octubre	2023-10-27T00:00:00	2024-11-08T10:00:00	8	Radiación solar	483
15561	7	Sololá	712	San Antonio Palopó	9	San Antonio Palopo	10	Octubre	2023-10-27T00:00:00	2024-11-08T11:00:00	2	Temperatura media	22.7
15562	7	Sololá	712	San Antonio Palopó	9	San Antonio Palopo	10	Octubre	2023-10-27T00:00:00	2024-11-08T11:00:00	4	Temperatura máxima	24.1
15563	7	Sololá	712	San Antonio Palopó	9	San Antonio Palopo	10	Octubre	2023-10-27T00:00:00	2024-11-08T11:00:00	3	Temperatura mínima	22.7
15564	7	Sololá	712	San Antonio Palopó	9	San Antonio Palopo	10	Octubre	2023-10-27T00:00:00	2024-11-08T11:00:00	5	Humedad	72
15565	7	Sololá	712	San Antonio Palopó	9	San Antonio Palopo	10	Octubre	2023-10-27T00:00:00	2024-11-08T11:00:00	6	Velocidad del viento	6.4
15566	7	Sololá	712	San Antonio Palopó	9	San Antonio Palopo	10	Octubre	2023-10-27T00:00:00	2024-11-08T11:00:00	7	Dirección del viento	6.44
15567	7	Sololá	712	San Antonio Palopó	9	San Antonio Palopo	10	Octubre	2023-10-27T00:00:00	2024-11-08T11:00:00	1	Precipitación	0
15568	7	Sololá	712	San Antonio Palopó	9	San Antonio Palopo	10	Octubre	2023-10-27T00:00:00	2024-11-08T11:00:00	8	Radiación solar	374
15569	7	Sololá	712	San Antonio Palopó	9	San Antonio Palopo	10	Octubre	2023-10-27T00:00:00	2024-11-08T12:00:00	2	Temperatura media	24.7
15570	7	Sololá	712	San Antonio Palopó	9	San Antonio Palopo	10	Octubre	2023-10-27T00:00:00	2024-11-08T12:00:00	4	Temperatura máxima	24.8
15571	7	Sololá	712	San Antonio Palopó	9	San Antonio Palopo	10	Octubre	2023-10-27T00:00:00	2024-11-08T12:00:00	3	Temperatura mínima	22.2
15572	7	Sololá	712	San Antonio Palopó	9	San Antonio Palopo	10	Octubre	2023-10-27T00:00:00	2024-11-08T12:00:00	5	Humedad	59
15573	7	Sololá	712	San Antonio Palopó	9	San Antonio Palopo	10	Octubre	2023-10-27T00:00:00	2024-11-08T12:00:00	6	Velocidad del viento	9.7
15574	7	Sololá	712	San Antonio Palopó	9	San Antonio Palopo	10	Octubre	2023-10-27T00:00:00	2024-11-08T12:00:00	7	Dirección del viento	9.66
15575	7	Sololá	712	San Antonio Palopó	9	San Antonio Palopo	10	Octubre	2023-10-27T00:00:00	2024-11-08T12:00:00	1	Precipitación	0
15576	7	Sololá	712	San Antonio Palopó	9	San Antonio Palopo	10	Octubre	2023-10-27T00:00:00	2024-11-08T12:00:00	8	Radiación solar	428
15577	7	Sololá	712	San Antonio Palopó	9	San Antonio Palopo	10	Octubre	2023-10-27T00:00:00	2024-11-08T13:00:00	2	Temperatura media	23.8
15578	7	Sololá	712	San Antonio Palopó	9	San Antonio Palopo	10	Octubre	2023-10-27T00:00:00	2024-11-08T13:00:00	4	Temperatura máxima	24.7
15579	7	Sololá	712	San Antonio Palopó	9	San Antonio Palopo	10	Octubre	2023-10-27T00:00:00	2024-11-08T13:00:00	3	Temperatura mínima	23.2
15580	7	Sololá	712	San Antonio Palopó	9	San Antonio Palopo	10	Octubre	2023-10-27T00:00:00	2024-11-08T13:00:00	5	Humedad	69
15581	7	Sololá	712	San Antonio Palopó	9	San Antonio Palopo	10	Octubre	2023-10-27T00:00:00	2024-11-08T13:00:00	6	Velocidad del viento	6.4
15582	7	Sololá	712	San Antonio Palopó	9	San Antonio Palopo	10	Octubre	2023-10-27T00:00:00	2024-11-08T13:00:00	7	Dirección del viento	6.44
15583	7	Sololá	712	San Antonio Palopó	9	San Antonio Palopo	10	Octubre	2023-10-27T00:00:00	2024-11-08T13:00:00	1	Precipitación	0
15584	7	Sololá	712	San Antonio Palopó	9	San Antonio Palopo	10	Octubre	2023-10-27T00:00:00	2024-11-08T13:00:00	8	Radiación solar	362
15585	7	Sololá	712	San Antonio Palopó	9	San Antonio Palopo	10	Octubre	2023-10-27T00:00:00	2024-11-08T14:00:00	2	Temperatura media	21.6
15586	7	Sololá	712	San Antonio Palopó	9	San Antonio Palopo	10	Octubre	2023-10-27T00:00:00	2024-11-08T14:00:00	4	Temperatura máxima	25.6
15587	7	Sololá	712	San Antonio Palopó	9	San Antonio Palopo	10	Octubre	2023-10-27T00:00:00	2024-11-08T14:00:00	3	Temperatura mínima	21.6
15588	7	Sololá	712	San Antonio Palopó	9	San Antonio Palopo	10	Octubre	2023-10-27T00:00:00	2024-11-08T14:00:00	5	Humedad	71
15589	7	Sololá	712	San Antonio Palopó	9	San Antonio Palopo	10	Octubre	2023-10-27T00:00:00	2024-11-08T14:00:00	6	Velocidad del viento	6.4
15590	7	Sololá	712	San Antonio Palopó	9	San Antonio Palopo	10	Octubre	2023-10-27T00:00:00	2024-11-08T14:00:00	7	Dirección del viento	6.44
15591	7	Sololá	712	San Antonio Palopó	9	San Antonio Palopo	10	Octubre	2023-10-27T00:00:00	2024-11-08T14:00:00	1	Precipitación	0
15592	7	Sololá	712	San Antonio Palopó	9	San Antonio Palopo	10	Octubre	2023-10-27T00:00:00	2024-11-08T14:00:00	8	Radiación solar	354
15593	7	Sololá	712	San Antonio Palopó	9	San Antonio Palopo	10	Octubre	2023-10-27T00:00:00	2024-11-08T15:00:00	2	Temperatura media	21.6
15594	7	Sololá	712	San Antonio Palopó	9	San Antonio Palopo	10	Octubre	2023-10-27T00:00:00	2024-11-08T15:00:00	4	Temperatura máxima	21.7
15595	7	Sololá	712	San Antonio Palopó	9	San Antonio Palopo	10	Octubre	2023-10-27T00:00:00	2024-11-08T15:00:00	3	Temperatura mínima	21.1
15596	7	Sololá	712	San Antonio Palopó	9	San Antonio Palopo	10	Octubre	2023-10-27T00:00:00	2024-11-08T15:00:00	5	Humedad	74
15597	7	Sololá	712	San Antonio Palopó	9	San Antonio Palopo	10	Octubre	2023-10-27T00:00:00	2024-11-08T15:00:00	6	Velocidad del viento	6.4
15598	7	Sololá	712	San Antonio Palopó	9	San Antonio Palopo	10	Octubre	2023-10-27T00:00:00	2024-11-08T15:00:00	7	Dirección del viento	6.44
15599	7	Sololá	712	San Antonio Palopó	9	San Antonio Palopo	10	Octubre	2023-10-27T00:00:00	2024-11-08T15:00:00	1	Precipitación	0.2
15600	7	Sololá	712	San Antonio Palopó	9	San Antonio Palopo	10	Octubre	2023-10-27T00:00:00	2024-11-08T15:00:00	8	Radiación solar	219
15601	7	Sololá	712	San Antonio Palopó	9	San Antonio Palopo	10	Octubre	2023-10-27T00:00:00	2024-11-08T16:00:00	2	Temperatura media	22.3
15602	7	Sololá	712	San Antonio Palopó	9	San Antonio Palopo	10	Octubre	2023-10-27T00:00:00	2024-11-08T16:00:00	4	Temperatura máxima	22.9
15603	7	Sololá	712	San Antonio Palopó	9	San Antonio Palopo	10	Octubre	2023-10-27T00:00:00	2024-11-08T16:00:00	3	Temperatura mínima	21.6
15604	7	Sololá	712	San Antonio Palopó	9	San Antonio Palopo	10	Octubre	2023-10-27T00:00:00	2024-11-08T16:00:00	5	Humedad	65
15605	7	Sololá	712	San Antonio Palopó	9	San Antonio Palopo	10	Octubre	2023-10-27T00:00:00	2024-11-08T16:00:00	6	Velocidad del viento	6.4
15606	7	Sololá	712	San Antonio Palopó	9	San Antonio Palopo	10	Octubre	2023-10-27T00:00:00	2024-11-08T16:00:00	7	Dirección del viento	6.44
15607	7	Sololá	712	San Antonio Palopó	9	San Antonio Palopo	10	Octubre	2023-10-27T00:00:00	2024-11-08T16:00:00	1	Precipitación	0
15608	7	Sololá	712	San Antonio Palopó	9	San Antonio Palopo	10	Octubre	2023-10-27T00:00:00	2024-11-08T16:00:00	8	Radiación solar	235
15609	7	Sololá	712	San Antonio Palopó	9	San Antonio Palopo	10	Octubre	2023-10-27T00:00:00	2024-11-08T17:00:00	2	Temperatura media	22.9
15610	7	Sololá	712	San Antonio Palopó	9	San Antonio Palopo	10	Octubre	2023-10-27T00:00:00	2024-11-08T17:00:00	4	Temperatura máxima	22.9
15611	7	Sololá	712	San Antonio Palopó	9	San Antonio Palopo	10	Octubre	2023-10-27T00:00:00	2024-11-08T17:00:00	3	Temperatura mínima	22.3
15612	7	Sololá	712	San Antonio Palopó	9	San Antonio Palopo	10	Octubre	2023-10-27T00:00:00	2024-11-08T17:00:00	5	Humedad	66
15613	7	Sololá	712	San Antonio Palopó	9	San Antonio Palopo	10	Octubre	2023-10-27T00:00:00	2024-11-08T17:00:00	6	Velocidad del viento	8
15614	7	Sololá	712	San Antonio Palopó	9	San Antonio Palopo	10	Octubre	2023-10-27T00:00:00	2024-11-08T17:00:00	7	Dirección del viento	8.05
15615	7	Sololá	712	San Antonio Palopó	9	San Antonio Palopo	10	Octubre	2023-10-27T00:00:00	2024-11-08T17:00:00	1	Precipitación	0
15616	7	Sololá	712	San Antonio Palopó	9	San Antonio Palopo	10	Octubre	2023-10-27T00:00:00	2024-11-08T17:00:00	8	Radiación solar	84
15617	7	Sololá	712	San Antonio Palopó	9	San Antonio Palopo	10	Octubre	2023-10-27T00:00:00	2024-11-08T18:00:00	2	Temperatura media	21.5
15618	7	Sololá	712	San Antonio Palopó	9	San Antonio Palopo	10	Octubre	2023-10-27T00:00:00	2024-11-08T18:00:00	4	Temperatura máxima	22.9
15619	7	Sololá	712	San Antonio Palopó	9	San Antonio Palopo	10	Octubre	2023-10-27T00:00:00	2024-11-08T18:00:00	3	Temperatura mínima	21.5
15620	7	Sololá	712	San Antonio Palopó	9	San Antonio Palopo	10	Octubre	2023-10-27T00:00:00	2024-11-08T18:00:00	5	Humedad	70
15621	7	Sololá	712	San Antonio Palopó	9	San Antonio Palopo	10	Octubre	2023-10-27T00:00:00	2024-11-08T18:00:00	6	Velocidad del viento	3.2
15622	7	Sololá	712	San Antonio Palopó	9	San Antonio Palopo	10	Octubre	2023-10-27T00:00:00	2024-11-08T18:00:00	7	Dirección del viento	3.22
15623	7	Sololá	712	San Antonio Palopó	9	San Antonio Palopo	10	Octubre	2023-10-27T00:00:00	2024-11-08T18:00:00	1	Precipitación	0
15624	7	Sololá	712	San Antonio Palopó	9	San Antonio Palopo	10	Octubre	2023-10-27T00:00:00	2024-11-08T18:00:00	8	Radiación solar	5
15625	7	Sololá	712	San Antonio Palopó	9	San Antonio Palopo	10	Octubre	2023-10-27T00:00:00	2024-11-08T19:00:00	2	Temperatura media	20.9
15626	7	Sololá	712	San Antonio Palopó	9	San Antonio Palopo	10	Octubre	2023-10-27T00:00:00	2024-11-08T19:00:00	4	Temperatura máxima	21.6
15627	7	Sololá	712	San Antonio Palopó	9	San Antonio Palopo	10	Octubre	2023-10-27T00:00:00	2024-11-08T19:00:00	3	Temperatura mínima	20.8
15628	7	Sololá	712	San Antonio Palopó	9	San Antonio Palopo	10	Octubre	2023-10-27T00:00:00	2024-11-08T19:00:00	5	Humedad	72
15629	7	Sololá	712	San Antonio Palopó	9	San Antonio Palopo	10	Octubre	2023-10-27T00:00:00	2024-11-08T19:00:00	6	Velocidad del viento	6.4
15630	7	Sololá	712	San Antonio Palopó	9	San Antonio Palopo	10	Octubre	2023-10-27T00:00:00	2024-11-08T19:00:00	7	Dirección del viento	6.44
15631	7	Sololá	712	San Antonio Palopó	9	San Antonio Palopo	10	Octubre	2023-10-27T00:00:00	2024-11-08T19:00:00	1	Precipitación	0
15632	7	Sololá	712	San Antonio Palopó	9	San Antonio Palopo	10	Octubre	2023-10-27T00:00:00	2024-11-08T19:00:00	8	Radiación solar	0
15633	7	Sololá	712	San Antonio Palopó	9	San Antonio Palopo	10	Octubre	2023-10-27T00:00:00	2024-11-08T20:00:00	2	Temperatura media	19.8
15634	7	Sololá	712	San Antonio Palopó	9	San Antonio Palopo	10	Octubre	2023-10-27T00:00:00	2024-11-08T20:00:00	4	Temperatura máxima	20.9
15635	7	Sololá	712	San Antonio Palopó	9	San Antonio Palopo	10	Octubre	2023-10-27T00:00:00	2024-11-08T20:00:00	3	Temperatura mínima	19.7
15636	7	Sololá	712	San Antonio Palopó	9	San Antonio Palopo	10	Octubre	2023-10-27T00:00:00	2024-11-08T20:00:00	5	Humedad	78
15637	7	Sololá	712	San Antonio Palopó	9	San Antonio Palopo	10	Octubre	2023-10-27T00:00:00	2024-11-08T20:00:00	6	Velocidad del viento	9.7
15638	7	Sololá	712	San Antonio Palopó	9	San Antonio Palopo	10	Octubre	2023-10-27T00:00:00	2024-11-08T20:00:00	7	Dirección del viento	9.66
15639	7	Sololá	712	San Antonio Palopó	9	San Antonio Palopo	10	Octubre	2023-10-27T00:00:00	2024-11-08T20:00:00	1	Precipitación	0
15640	7	Sololá	712	San Antonio Palopó	9	San Antonio Palopo	10	Octubre	2023-10-27T00:00:00	2024-11-08T20:00:00	8	Radiación solar	0
15641	7	Sololá	712	San Antonio Palopó	9	San Antonio Palopo	10	Octubre	2023-10-27T00:00:00	2024-11-08T21:00:00	2	Temperatura media	19.8
15642	7	Sololá	712	San Antonio Palopó	9	San Antonio Palopo	10	Octubre	2023-10-27T00:00:00	2024-11-08T21:00:00	4	Temperatura máxima	19.9
15643	7	Sololá	712	San Antonio Palopó	9	San Antonio Palopo	10	Octubre	2023-10-27T00:00:00	2024-11-08T21:00:00	3	Temperatura mínima	19.4
15644	7	Sololá	712	San Antonio Palopó	9	San Antonio Palopo	10	Octubre	2023-10-27T00:00:00	2024-11-08T21:00:00	5	Humedad	77
15645	7	Sololá	712	San Antonio Palopó	9	San Antonio Palopo	10	Octubre	2023-10-27T00:00:00	2024-11-08T21:00:00	6	Velocidad del viento	6.4
15646	7	Sololá	712	San Antonio Palopó	9	San Antonio Palopo	10	Octubre	2023-10-27T00:00:00	2024-11-08T21:00:00	7	Dirección del viento	6.44
15647	7	Sololá	712	San Antonio Palopó	9	San Antonio Palopo	10	Octubre	2023-10-27T00:00:00	2024-11-08T21:00:00	1	Precipitación	0
15648	7	Sololá	712	San Antonio Palopó	9	San Antonio Palopo	10	Octubre	2023-10-27T00:00:00	2024-11-08T21:00:00	8	Radiación solar	0
15649	7	Sololá	712	San Antonio Palopó	9	San Antonio Palopo	10	Octubre	2023-10-27T00:00:00	2024-11-08T22:00:00	2	Temperatura media	20
15650	7	Sololá	712	San Antonio Palopó	9	San Antonio Palopo	10	Octubre	2023-10-27T00:00:00	2024-11-08T22:00:00	4	Temperatura máxima	20.2
15651	7	Sololá	712	San Antonio Palopó	9	San Antonio Palopo	10	Octubre	2023-10-27T00:00:00	2024-11-08T22:00:00	3	Temperatura mínima	19.5
15652	7	Sololá	712	San Antonio Palopó	9	San Antonio Palopo	10	Octubre	2023-10-27T00:00:00	2024-11-08T22:00:00	5	Humedad	74
15653	7	Sololá	712	San Antonio Palopó	9	San Antonio Palopo	10	Octubre	2023-10-27T00:00:00	2024-11-08T22:00:00	6	Velocidad del viento	6.4
15654	7	Sololá	712	San Antonio Palopó	9	San Antonio Palopo	10	Octubre	2023-10-27T00:00:00	2024-11-08T22:00:00	7	Dirección del viento	6.44
15655	7	Sololá	712	San Antonio Palopó	9	San Antonio Palopo	10	Octubre	2023-10-27T00:00:00	2024-11-08T22:00:00	1	Precipitación	0
15656	7	Sololá	712	San Antonio Palopó	9	San Antonio Palopo	10	Octubre	2023-10-27T00:00:00	2024-11-08T22:00:00	8	Radiación solar	0
15657	7	Sololá	712	San Antonio Palopó	9	San Antonio Palopo	10	Octubre	2023-10-27T00:00:00	2024-11-08T23:00:00	2	Temperatura media	19.8
15658	7	Sololá	712	San Antonio Palopó	9	San Antonio Palopo	10	Octubre	2023-10-27T00:00:00	2024-11-08T23:00:00	4	Temperatura máxima	20.2
15659	7	Sololá	712	San Antonio Palopó	9	San Antonio Palopo	10	Octubre	2023-10-27T00:00:00	2024-11-08T23:00:00	3	Temperatura mínima	19.8
15660	7	Sololá	712	San Antonio Palopó	9	San Antonio Palopo	10	Octubre	2023-10-27T00:00:00	2024-11-08T23:00:00	5	Humedad	74
15661	7	Sololá	712	San Antonio Palopó	9	San Antonio Palopo	10	Octubre	2023-10-27T00:00:00	2024-11-08T23:00:00	6	Velocidad del viento	4.8
15662	7	Sololá	712	San Antonio Palopó	9	San Antonio Palopo	10	Octubre	2023-10-27T00:00:00	2024-11-08T23:00:00	7	Dirección del viento	4.83
15663	7	Sololá	712	San Antonio Palopó	9	San Antonio Palopo	10	Octubre	2023-10-27T00:00:00	2024-11-08T23:00:00	1	Precipitación	0
15664	7	Sololá	712	San Antonio Palopó	9	San Antonio Palopo	10	Octubre	2023-10-27T00:00:00	2024-11-08T23:00:00	8	Radiación solar	0
15665	7	Sololá	712	San Antonio Palopó	9	San Antonio Palopo	10	Octubre	2023-10-28T00:00:00	2024-11-08T00:00:00	2	Temperatura media	19.3
15666	7	Sololá	712	San Antonio Palopó	9	San Antonio Palopo	10	Octubre	2023-10-28T00:00:00	2024-11-08T00:00:00	4	Temperatura máxima	20.4
15667	7	Sololá	712	San Antonio Palopó	9	San Antonio Palopo	10	Octubre	2023-10-28T00:00:00	2024-11-08T00:00:00	3	Temperatura mínima	19.3
15668	7	Sololá	712	San Antonio Palopó	9	San Antonio Palopo	10	Octubre	2023-10-28T00:00:00	2024-11-08T00:00:00	5	Humedad	75
15669	7	Sololá	712	San Antonio Palopó	9	San Antonio Palopo	10	Octubre	2023-10-28T00:00:00	2024-11-08T00:00:00	6	Velocidad del viento	3.2
15670	7	Sololá	712	San Antonio Palopó	9	San Antonio Palopo	10	Octubre	2023-10-28T00:00:00	2024-11-08T00:00:00	7	Dirección del viento	3.22
15671	7	Sololá	712	San Antonio Palopó	9	San Antonio Palopo	10	Octubre	2023-10-28T00:00:00	2024-11-08T00:00:00	1	Precipitación	0
15672	7	Sololá	712	San Antonio Palopó	9	San Antonio Palopo	10	Octubre	2023-10-28T00:00:00	2024-11-08T00:00:00	8	Radiación solar	0
15673	7	Sololá	712	San Antonio Palopó	9	San Antonio Palopo	10	Octubre	2023-10-28T00:00:00	2024-11-08T01:00:00	2	Temperatura media	19.7
15674	7	Sololá	712	San Antonio Palopó	9	San Antonio Palopo	10	Octubre	2023-10-28T00:00:00	2024-11-08T01:00:00	4	Temperatura máxima	20.1
15675	7	Sololá	712	San Antonio Palopó	9	San Antonio Palopo	10	Octubre	2023-10-28T00:00:00	2024-11-08T01:00:00	3	Temperatura mínima	19.3
15676	7	Sololá	712	San Antonio Palopó	9	San Antonio Palopo	10	Octubre	2023-10-28T00:00:00	2024-11-08T01:00:00	5	Humedad	74
15677	7	Sololá	712	San Antonio Palopó	9	San Antonio Palopo	10	Octubre	2023-10-28T00:00:00	2024-11-08T01:00:00	6	Velocidad del viento	4.8
15678	7	Sololá	712	San Antonio Palopó	9	San Antonio Palopo	10	Octubre	2023-10-28T00:00:00	2024-11-08T01:00:00	7	Dirección del viento	4.83
15679	7	Sololá	712	San Antonio Palopó	9	San Antonio Palopo	10	Octubre	2023-10-28T00:00:00	2024-11-08T01:00:00	1	Precipitación	0
15680	7	Sololá	712	San Antonio Palopó	9	San Antonio Palopo	10	Octubre	2023-10-28T00:00:00	2024-11-08T01:00:00	8	Radiación solar	0
15681	7	Sololá	712	San Antonio Palopó	9	San Antonio Palopo	10	Octubre	2023-10-28T00:00:00	2024-11-08T02:00:00	2	Temperatura media	19.4
15682	7	Sololá	712	San Antonio Palopó	9	San Antonio Palopo	10	Octubre	2023-10-28T00:00:00	2024-11-08T02:00:00	4	Temperatura máxima	20.1
15683	7	Sololá	712	San Antonio Palopó	9	San Antonio Palopo	10	Octubre	2023-10-28T00:00:00	2024-11-08T02:00:00	3	Temperatura mínima	18.9
15684	7	Sololá	712	San Antonio Palopó	9	San Antonio Palopo	10	Octubre	2023-10-28T00:00:00	2024-11-08T02:00:00	5	Humedad	73
15685	7	Sololá	712	San Antonio Palopó	9	San Antonio Palopo	10	Octubre	2023-10-28T00:00:00	2024-11-08T02:00:00	6	Velocidad del viento	6.4
15686	7	Sololá	712	San Antonio Palopó	9	San Antonio Palopo	10	Octubre	2023-10-28T00:00:00	2024-11-08T02:00:00	7	Dirección del viento	6.44
15687	7	Sololá	712	San Antonio Palopó	9	San Antonio Palopo	10	Octubre	2023-10-28T00:00:00	2024-11-08T02:00:00	1	Precipitación	0
15688	7	Sololá	712	San Antonio Palopó	9	San Antonio Palopo	10	Octubre	2023-10-28T00:00:00	2024-11-08T02:00:00	8	Radiación solar	0
15689	7	Sololá	712	San Antonio Palopó	9	San Antonio Palopo	10	Octubre	2023-10-28T00:00:00	2024-11-08T03:00:00	2	Temperatura media	19.6
15690	7	Sololá	712	San Antonio Palopó	9	San Antonio Palopo	10	Octubre	2023-10-28T00:00:00	2024-11-08T03:00:00	4	Temperatura máxima	19.9
15691	7	Sololá	712	San Antonio Palopó	9	San Antonio Palopo	10	Octubre	2023-10-28T00:00:00	2024-11-08T03:00:00	3	Temperatura mínima	19.3
15692	7	Sololá	712	San Antonio Palopó	9	San Antonio Palopo	10	Octubre	2023-10-28T00:00:00	2024-11-08T03:00:00	5	Humedad	72
15693	7	Sololá	712	San Antonio Palopó	9	San Antonio Palopo	10	Octubre	2023-10-28T00:00:00	2024-11-08T03:00:00	6	Velocidad del viento	8
15694	7	Sololá	712	San Antonio Palopó	9	San Antonio Palopo	10	Octubre	2023-10-28T00:00:00	2024-11-08T03:00:00	7	Dirección del viento	8.05
15695	7	Sololá	712	San Antonio Palopó	9	San Antonio Palopo	10	Octubre	2023-10-28T00:00:00	2024-11-08T03:00:00	1	Precipitación	0
15696	7	Sololá	712	San Antonio Palopó	9	San Antonio Palopo	10	Octubre	2023-10-28T00:00:00	2024-11-08T03:00:00	8	Radiación solar	0
15697	7	Sololá	712	San Antonio Palopó	9	San Antonio Palopo	10	Octubre	2023-10-28T00:00:00	2024-11-08T04:00:00	2	Temperatura media	19.6
15698	7	Sololá	712	San Antonio Palopó	9	San Antonio Palopo	10	Octubre	2023-10-28T00:00:00	2024-11-08T04:00:00	4	Temperatura máxima	19.6
15699	7	Sololá	712	San Antonio Palopó	9	San Antonio Palopo	10	Octubre	2023-10-28T00:00:00	2024-11-08T04:00:00	3	Temperatura mínima	19.3
15700	7	Sololá	712	San Antonio Palopó	9	San Antonio Palopo	10	Octubre	2023-10-28T00:00:00	2024-11-08T04:00:00	5	Humedad	73
15701	7	Sololá	712	San Antonio Palopó	9	San Antonio Palopo	10	Octubre	2023-10-28T00:00:00	2024-11-08T04:00:00	6	Velocidad del viento	9.7
15702	7	Sololá	712	San Antonio Palopó	9	San Antonio Palopo	10	Octubre	2023-10-28T00:00:00	2024-11-08T04:00:00	7	Dirección del viento	9.66
15703	7	Sololá	712	San Antonio Palopó	9	San Antonio Palopo	10	Octubre	2023-10-28T00:00:00	2024-11-08T04:00:00	1	Precipitación	0
15704	7	Sololá	712	San Antonio Palopó	9	San Antonio Palopo	10	Octubre	2023-10-28T00:00:00	2024-11-08T04:00:00	8	Radiación solar	0
15705	7	Sololá	712	San Antonio Palopó	9	San Antonio Palopo	10	Octubre	2023-10-28T00:00:00	2024-11-08T05:00:00	2	Temperatura media	19.1
15706	7	Sololá	712	San Antonio Palopó	9	San Antonio Palopo	10	Octubre	2023-10-28T00:00:00	2024-11-08T05:00:00	4	Temperatura máxima	19.6
15707	7	Sololá	712	San Antonio Palopó	9	San Antonio Palopo	10	Octubre	2023-10-28T00:00:00	2024-11-08T05:00:00	3	Temperatura mínima	18.7
15708	7	Sololá	712	San Antonio Palopó	9	San Antonio Palopo	10	Octubre	2023-10-28T00:00:00	2024-11-08T05:00:00	5	Humedad	71
15709	7	Sololá	712	San Antonio Palopó	9	San Antonio Palopo	10	Octubre	2023-10-28T00:00:00	2024-11-08T05:00:00	6	Velocidad del viento	8
15710	7	Sololá	712	San Antonio Palopó	9	San Antonio Palopo	10	Octubre	2023-10-28T00:00:00	2024-11-08T05:00:00	7	Dirección del viento	8.05
15711	7	Sololá	712	San Antonio Palopó	9	San Antonio Palopo	10	Octubre	2023-10-28T00:00:00	2024-11-08T05:00:00	1	Precipitación	0
15712	7	Sololá	712	San Antonio Palopó	9	San Antonio Palopo	10	Octubre	2023-10-28T00:00:00	2024-11-08T05:00:00	8	Radiación solar	0
15713	7	Sololá	712	San Antonio Palopó	9	San Antonio Palopo	10	Octubre	2023-10-28T00:00:00	2024-11-08T06:00:00	2	Temperatura media	19.5
15714	7	Sololá	712	San Antonio Palopó	9	San Antonio Palopo	10	Octubre	2023-10-28T00:00:00	2024-11-08T06:00:00	4	Temperatura máxima	20.1
15715	7	Sololá	712	San Antonio Palopó	9	San Antonio Palopo	10	Octubre	2023-10-28T00:00:00	2024-11-08T06:00:00	3	Temperatura mínima	18.8
15716	7	Sololá	712	San Antonio Palopó	9	San Antonio Palopo	10	Octubre	2023-10-28T00:00:00	2024-11-08T06:00:00	5	Humedad	65
15717	7	Sololá	712	San Antonio Palopó	9	San Antonio Palopo	10	Octubre	2023-10-28T00:00:00	2024-11-08T06:00:00	6	Velocidad del viento	6.4
15718	7	Sololá	712	San Antonio Palopó	9	San Antonio Palopo	10	Octubre	2023-10-28T00:00:00	2024-11-08T06:00:00	7	Dirección del viento	6.44
15719	7	Sololá	712	San Antonio Palopó	9	San Antonio Palopo	10	Octubre	2023-10-28T00:00:00	2024-11-08T06:00:00	1	Precipitación	0
15720	7	Sololá	712	San Antonio Palopó	9	San Antonio Palopo	10	Octubre	2023-10-28T00:00:00	2024-11-08T06:00:00	8	Radiación solar	0
15721	7	Sololá	712	San Antonio Palopó	9	San Antonio Palopo	10	Octubre	2023-10-28T00:00:00	2024-11-08T07:00:00	2	Temperatura media	18.2
15722	7	Sololá	712	San Antonio Palopó	9	San Antonio Palopo	10	Octubre	2023-10-28T00:00:00	2024-11-08T07:00:00	4	Temperatura máxima	19.5
15723	7	Sololá	712	San Antonio Palopó	9	San Antonio Palopo	10	Octubre	2023-10-28T00:00:00	2024-11-08T07:00:00	3	Temperatura mínima	18.1
15724	7	Sololá	712	San Antonio Palopó	9	San Antonio Palopo	10	Octubre	2023-10-28T00:00:00	2024-11-08T07:00:00	5	Humedad	72
15725	7	Sololá	712	San Antonio Palopó	9	San Antonio Palopo	10	Octubre	2023-10-28T00:00:00	2024-11-08T07:00:00	6	Velocidad del viento	4.8
15726	7	Sololá	712	San Antonio Palopó	9	San Antonio Palopo	10	Octubre	2023-10-28T00:00:00	2024-11-08T07:00:00	7	Dirección del viento	4.83
15727	7	Sololá	712	San Antonio Palopó	9	San Antonio Palopo	10	Octubre	2023-10-28T00:00:00	2024-11-08T07:00:00	1	Precipitación	0
15728	7	Sololá	712	San Antonio Palopó	9	San Antonio Palopo	10	Octubre	2023-10-28T00:00:00	2024-11-08T07:00:00	8	Radiación solar	14
15729	7	Sololá	712	San Antonio Palopó	9	San Antonio Palopo	10	Octubre	2023-10-28T00:00:00	2024-11-08T08:00:00	2	Temperatura media	20.2
15730	7	Sololá	712	San Antonio Palopó	9	San Antonio Palopo	10	Octubre	2023-10-28T00:00:00	2024-11-08T08:00:00	4	Temperatura máxima	20.3
15731	7	Sololá	712	San Antonio Palopó	9	San Antonio Palopo	10	Octubre	2023-10-28T00:00:00	2024-11-08T08:00:00	3	Temperatura mínima	18.2
15732	7	Sololá	712	San Antonio Palopó	9	San Antonio Palopo	10	Octubre	2023-10-28T00:00:00	2024-11-08T08:00:00	5	Humedad	69
15733	7	Sololá	712	San Antonio Palopó	9	San Antonio Palopo	10	Octubre	2023-10-28T00:00:00	2024-11-08T08:00:00	6	Velocidad del viento	4.8
15734	7	Sololá	712	San Antonio Palopó	9	San Antonio Palopo	10	Octubre	2023-10-28T00:00:00	2024-11-08T08:00:00	7	Dirección del viento	4.83
15735	7	Sololá	712	San Antonio Palopó	9	San Antonio Palopo	10	Octubre	2023-10-28T00:00:00	2024-11-08T08:00:00	1	Precipitación	0
15736	7	Sololá	712	San Antonio Palopó	9	San Antonio Palopo	10	Octubre	2023-10-28T00:00:00	2024-11-08T08:00:00	8	Radiación solar	44
15737	7	Sololá	712	San Antonio Palopó	9	San Antonio Palopo	10	Octubre	2023-10-28T00:00:00	2024-11-08T09:00:00	2	Temperatura media	21.7
15738	7	Sololá	712	San Antonio Palopó	9	San Antonio Palopo	10	Octubre	2023-10-28T00:00:00	2024-11-08T09:00:00	4	Temperatura máxima	21.9
15739	7	Sololá	712	San Antonio Palopó	9	San Antonio Palopo	10	Octubre	2023-10-28T00:00:00	2024-11-08T09:00:00	3	Temperatura mínima	19.9
15740	7	Sololá	712	San Antonio Palopó	9	San Antonio Palopo	10	Octubre	2023-10-28T00:00:00	2024-11-08T09:00:00	5	Humedad	66
15741	7	Sololá	712	San Antonio Palopó	9	San Antonio Palopo	10	Octubre	2023-10-28T00:00:00	2024-11-08T09:00:00	6	Velocidad del viento	8
15742	7	Sololá	712	San Antonio Palopó	9	San Antonio Palopo	10	Octubre	2023-10-28T00:00:00	2024-11-08T09:00:00	7	Dirección del viento	8.05
15743	7	Sololá	712	San Antonio Palopó	9	San Antonio Palopo	10	Octubre	2023-10-28T00:00:00	2024-11-08T09:00:00	1	Precipitación	0
15744	7	Sololá	712	San Antonio Palopó	9	San Antonio Palopo	10	Octubre	2023-10-28T00:00:00	2024-11-08T09:00:00	8	Radiación solar	517
15745	7	Sololá	712	San Antonio Palopó	9	San Antonio Palopo	10	Octubre	2023-10-28T00:00:00	2024-11-08T10:00:00	2	Temperatura media	22.5
15746	7	Sololá	712	San Antonio Palopó	9	San Antonio Palopo	10	Octubre	2023-10-28T00:00:00	2024-11-08T10:00:00	4	Temperatura máxima	22.8
15747	7	Sololá	712	San Antonio Palopó	9	San Antonio Palopo	10	Octubre	2023-10-28T00:00:00	2024-11-08T10:00:00	3	Temperatura mínima	21.7
15748	7	Sololá	712	San Antonio Palopó	9	San Antonio Palopo	10	Octubre	2023-10-28T00:00:00	2024-11-08T10:00:00	5	Humedad	65
15749	7	Sololá	712	San Antonio Palopó	9	San Antonio Palopo	10	Octubre	2023-10-28T00:00:00	2024-11-08T10:00:00	6	Velocidad del viento	9.7
15750	7	Sololá	712	San Antonio Palopó	9	San Antonio Palopo	10	Octubre	2023-10-28T00:00:00	2024-11-08T10:00:00	7	Dirección del viento	9.66
15751	7	Sololá	712	San Antonio Palopó	9	San Antonio Palopo	10	Octubre	2023-10-28T00:00:00	2024-11-08T10:00:00	1	Precipitación	0
15752	7	Sololá	712	San Antonio Palopó	9	San Antonio Palopo	10	Octubre	2023-10-28T00:00:00	2024-11-08T10:00:00	8	Radiación solar	602
15753	7	Sololá	712	San Antonio Palopó	9	San Antonio Palopo	10	Octubre	2023-10-28T00:00:00	2024-11-08T11:00:00	2	Temperatura media	22.9
15754	7	Sololá	712	San Antonio Palopó	9	San Antonio Palopo	10	Octubre	2023-10-28T00:00:00	2024-11-08T11:00:00	4	Temperatura máxima	22.9
15755	7	Sololá	712	San Antonio Palopó	9	San Antonio Palopo	10	Octubre	2023-10-28T00:00:00	2024-11-08T11:00:00	3	Temperatura mínima	22.2
15756	7	Sololá	712	San Antonio Palopó	9	San Antonio Palopo	10	Octubre	2023-10-28T00:00:00	2024-11-08T11:00:00	5	Humedad	66
15757	7	Sololá	712	San Antonio Palopó	9	San Antonio Palopo	10	Octubre	2023-10-28T00:00:00	2024-11-08T11:00:00	6	Velocidad del viento	6.4
15758	7	Sololá	712	San Antonio Palopó	9	San Antonio Palopo	10	Octubre	2023-10-28T00:00:00	2024-11-08T11:00:00	7	Dirección del viento	6.44
15759	7	Sololá	712	San Antonio Palopó	9	San Antonio Palopo	10	Octubre	2023-10-28T00:00:00	2024-11-08T11:00:00	1	Precipitación	0
15760	7	Sololá	712	San Antonio Palopó	9	San Antonio Palopo	10	Octubre	2023-10-28T00:00:00	2024-11-08T11:00:00	8	Radiación solar	291
15761	7	Sololá	712	San Antonio Palopó	9	San Antonio Palopo	10	Octubre	2023-10-28T00:00:00	2024-11-08T12:00:00	2	Temperatura media	23.3
15762	7	Sololá	712	San Antonio Palopó	9	San Antonio Palopo	10	Octubre	2023-10-28T00:00:00	2024-11-08T12:00:00	4	Temperatura máxima	23.6
15763	7	Sololá	712	San Antonio Palopó	9	San Antonio Palopo	10	Octubre	2023-10-28T00:00:00	2024-11-08T12:00:00	3	Temperatura mínima	22.9
15764	7	Sololá	712	San Antonio Palopó	9	San Antonio Palopo	10	Octubre	2023-10-28T00:00:00	2024-11-08T12:00:00	5	Humedad	64
15765	7	Sololá	712	San Antonio Palopó	9	San Antonio Palopo	10	Octubre	2023-10-28T00:00:00	2024-11-08T12:00:00	6	Velocidad del viento	6.4
15766	7	Sololá	712	San Antonio Palopó	9	San Antonio Palopo	10	Octubre	2023-10-28T00:00:00	2024-11-08T12:00:00	7	Dirección del viento	6.44
15767	7	Sololá	712	San Antonio Palopó	9	San Antonio Palopo	10	Octubre	2023-10-28T00:00:00	2024-11-08T12:00:00	1	Precipitación	0
15768	7	Sololá	712	San Antonio Palopó	9	San Antonio Palopo	10	Octubre	2023-10-28T00:00:00	2024-11-08T12:00:00	8	Radiación solar	302
15769	7	Sololá	712	San Antonio Palopó	9	San Antonio Palopo	10	Octubre	2023-10-28T00:00:00	2024-11-08T13:00:00	2	Temperatura media	24.3
15770	7	Sololá	712	San Antonio Palopó	9	San Antonio Palopo	10	Octubre	2023-10-28T00:00:00	2024-11-08T13:00:00	4	Temperatura máxima	24.6
15771	7	Sololá	712	San Antonio Palopó	9	San Antonio Palopo	10	Octubre	2023-10-28T00:00:00	2024-11-08T13:00:00	3	Temperatura mínima	23.3
15772	7	Sololá	712	San Antonio Palopó	9	San Antonio Palopo	10	Octubre	2023-10-28T00:00:00	2024-11-08T13:00:00	5	Humedad	59
15773	7	Sololá	712	San Antonio Palopó	9	San Antonio Palopo	10	Octubre	2023-10-28T00:00:00	2024-11-08T13:00:00	6	Velocidad del viento	8
15774	7	Sololá	712	San Antonio Palopó	9	San Antonio Palopo	10	Octubre	2023-10-28T00:00:00	2024-11-08T13:00:00	7	Dirección del viento	8.05
15775	7	Sololá	712	San Antonio Palopó	9	San Antonio Palopo	10	Octubre	2023-10-28T00:00:00	2024-11-08T13:00:00	1	Precipitación	0
15776	7	Sololá	712	San Antonio Palopó	9	San Antonio Palopo	10	Octubre	2023-10-28T00:00:00	2024-11-08T13:00:00	8	Radiación solar	464
15777	7	Sololá	712	San Antonio Palopó	9	San Antonio Palopo	10	Octubre	2023-10-28T00:00:00	2024-11-08T14:00:00	2	Temperatura media	24
15778	7	Sololá	712	San Antonio Palopó	9	San Antonio Palopo	10	Octubre	2023-10-28T00:00:00	2024-11-08T14:00:00	4	Temperatura máxima	25.2
15779	7	Sololá	712	San Antonio Palopó	9	San Antonio Palopo	10	Octubre	2023-10-28T00:00:00	2024-11-08T14:00:00	3	Temperatura mínima	24
15780	7	Sololá	712	San Antonio Palopó	9	San Antonio Palopo	10	Octubre	2023-10-28T00:00:00	2024-11-08T14:00:00	5	Humedad	63
15781	7	Sololá	712	San Antonio Palopó	9	San Antonio Palopo	10	Octubre	2023-10-28T00:00:00	2024-11-08T14:00:00	6	Velocidad del viento	6.4
15782	7	Sololá	712	San Antonio Palopó	9	San Antonio Palopo	10	Octubre	2023-10-28T00:00:00	2024-11-08T14:00:00	7	Dirección del viento	6.44
15783	7	Sololá	712	San Antonio Palopó	9	San Antonio Palopo	10	Octubre	2023-10-28T00:00:00	2024-11-08T14:00:00	1	Precipitación	0
15784	7	Sololá	712	San Antonio Palopó	9	San Antonio Palopo	10	Octubre	2023-10-28T00:00:00	2024-11-08T14:00:00	8	Radiación solar	455
15785	7	Sololá	712	San Antonio Palopó	9	San Antonio Palopo	10	Octubre	2023-10-28T00:00:00	2024-11-08T15:00:00	2	Temperatura media	25.2
15786	7	Sololá	712	San Antonio Palopó	9	San Antonio Palopo	10	Octubre	2023-10-28T00:00:00	2024-11-08T15:00:00	4	Temperatura máxima	25.2
15787	7	Sololá	712	San Antonio Palopó	9	San Antonio Palopo	10	Octubre	2023-10-28T00:00:00	2024-11-08T15:00:00	3	Temperatura mínima	24
15788	7	Sololá	712	San Antonio Palopó	9	San Antonio Palopo	10	Octubre	2023-10-28T00:00:00	2024-11-08T15:00:00	5	Humedad	60
15789	7	Sololá	712	San Antonio Palopó	9	San Antonio Palopo	10	Octubre	2023-10-28T00:00:00	2024-11-08T15:00:00	6	Velocidad del viento	9.7
15790	7	Sololá	712	San Antonio Palopó	9	San Antonio Palopo	10	Octubre	2023-10-28T00:00:00	2024-11-08T15:00:00	7	Dirección del viento	9.66
15791	7	Sololá	712	San Antonio Palopó	9	San Antonio Palopo	10	Octubre	2023-10-28T00:00:00	2024-11-08T15:00:00	1	Precipitación	0
15792	7	Sololá	712	San Antonio Palopó	9	San Antonio Palopo	10	Octubre	2023-10-28T00:00:00	2024-11-08T15:00:00	8	Radiación solar	462
15793	7	Sololá	712	San Antonio Palopó	9	San Antonio Palopo	10	Octubre	2023-10-28T00:00:00	2024-11-08T16:00:00	2	Temperatura media	23.6
15794	7	Sololá	712	San Antonio Palopó	9	San Antonio Palopo	10	Octubre	2023-10-28T00:00:00	2024-11-08T16:00:00	4	Temperatura máxima	25.4
15795	7	Sololá	712	San Antonio Palopó	9	San Antonio Palopo	10	Octubre	2023-10-28T00:00:00	2024-11-08T16:00:00	3	Temperatura mínima	23.6
15796	7	Sololá	712	San Antonio Palopó	9	San Antonio Palopo	10	Octubre	2023-10-28T00:00:00	2024-11-08T16:00:00	5	Humedad	65
15797	7	Sololá	712	San Antonio Palopó	9	San Antonio Palopo	10	Octubre	2023-10-28T00:00:00	2024-11-08T16:00:00	6	Velocidad del viento	8
15798	7	Sololá	712	San Antonio Palopó	9	San Antonio Palopo	10	Octubre	2023-10-28T00:00:00	2024-11-08T16:00:00	7	Dirección del viento	8.05
15799	7	Sololá	712	San Antonio Palopó	9	San Antonio Palopo	10	Octubre	2023-10-28T00:00:00	2024-11-08T16:00:00	1	Precipitación	0
15800	7	Sololá	712	San Antonio Palopó	9	San Antonio Palopo	10	Octubre	2023-10-28T00:00:00	2024-11-08T16:00:00	8	Radiación solar	129
15801	7	Sololá	712	San Antonio Palopó	9	San Antonio Palopo	10	Octubre	2023-10-28T00:00:00	2024-11-08T17:00:00	2	Temperatura media	22.8
15802	7	Sololá	712	San Antonio Palopó	9	San Antonio Palopo	10	Octubre	2023-10-28T00:00:00	2024-11-08T17:00:00	4	Temperatura máxima	23.6
15803	7	Sololá	712	San Antonio Palopó	9	San Antonio Palopo	10	Octubre	2023-10-28T00:00:00	2024-11-08T17:00:00	3	Temperatura mínima	22.8
15804	7	Sololá	712	San Antonio Palopó	9	San Antonio Palopo	10	Octubre	2023-10-28T00:00:00	2024-11-08T17:00:00	5	Humedad	66
15805	7	Sololá	712	San Antonio Palopó	9	San Antonio Palopo	10	Octubre	2023-10-28T00:00:00	2024-11-08T17:00:00	6	Velocidad del viento	6.4
15806	7	Sololá	712	San Antonio Palopó	9	San Antonio Palopo	10	Octubre	2023-10-28T00:00:00	2024-11-08T17:00:00	7	Dirección del viento	6.44
15807	7	Sololá	712	San Antonio Palopó	9	San Antonio Palopo	10	Octubre	2023-10-28T00:00:00	2024-11-08T17:00:00	1	Precipitación	0
15808	7	Sololá	712	San Antonio Palopó	9	San Antonio Palopo	10	Octubre	2023-10-28T00:00:00	2024-11-08T17:00:00	8	Radiación solar	36
15809	7	Sololá	712	San Antonio Palopó	9	San Antonio Palopo	10	Octubre	2023-10-28T00:00:00	2024-11-08T18:00:00	2	Temperatura media	21.4
15810	7	Sololá	712	San Antonio Palopó	9	San Antonio Palopo	10	Octubre	2023-10-28T00:00:00	2024-11-08T18:00:00	4	Temperatura máxima	22.8
15811	7	Sololá	712	San Antonio Palopó	9	San Antonio Palopo	10	Octubre	2023-10-28T00:00:00	2024-11-08T18:00:00	3	Temperatura mínima	21.4
15812	7	Sololá	712	San Antonio Palopó	9	San Antonio Palopo	10	Octubre	2023-10-28T00:00:00	2024-11-08T18:00:00	5	Humedad	69
15813	7	Sololá	712	San Antonio Palopó	9	San Antonio Palopo	10	Octubre	2023-10-28T00:00:00	2024-11-08T18:00:00	6	Velocidad del viento	4.8
15814	7	Sololá	712	San Antonio Palopó	9	San Antonio Palopo	10	Octubre	2023-10-28T00:00:00	2024-11-08T18:00:00	7	Dirección del viento	4.83
15815	7	Sololá	712	San Antonio Palopó	9	San Antonio Palopo	10	Octubre	2023-10-28T00:00:00	2024-11-08T18:00:00	1	Precipitación	0
15816	7	Sololá	712	San Antonio Palopó	9	San Antonio Palopo	10	Octubre	2023-10-28T00:00:00	2024-11-08T18:00:00	8	Radiación solar	11
15817	7	Sololá	712	San Antonio Palopó	9	San Antonio Palopo	10	Octubre	2023-10-28T00:00:00	2024-11-08T19:00:00	2	Temperatura media	20.9
15818	7	Sololá	712	San Antonio Palopó	9	San Antonio Palopo	10	Octubre	2023-10-28T00:00:00	2024-11-08T19:00:00	4	Temperatura máxima	21.4
15819	7	Sololá	712	San Antonio Palopó	9	San Antonio Palopo	10	Octubre	2023-10-28T00:00:00	2024-11-08T19:00:00	3	Temperatura mínima	20.8
15820	7	Sololá	712	San Antonio Palopó	9	San Antonio Palopo	10	Octubre	2023-10-28T00:00:00	2024-11-08T19:00:00	5	Humedad	71
15821	7	Sololá	712	San Antonio Palopó	9	San Antonio Palopo	10	Octubre	2023-10-28T00:00:00	2024-11-08T19:00:00	6	Velocidad del viento	6.4
15822	7	Sololá	712	San Antonio Palopó	9	San Antonio Palopo	10	Octubre	2023-10-28T00:00:00	2024-11-08T19:00:00	7	Dirección del viento	6.44
15823	7	Sololá	712	San Antonio Palopó	9	San Antonio Palopo	10	Octubre	2023-10-28T00:00:00	2024-11-08T19:00:00	1	Precipitación	0
15824	7	Sololá	712	San Antonio Palopó	9	San Antonio Palopo	10	Octubre	2023-10-28T00:00:00	2024-11-08T19:00:00	8	Radiación solar	0
15825	7	Sololá	712	San Antonio Palopó	9	San Antonio Palopo	10	Octubre	2023-10-28T00:00:00	2024-11-08T20:00:00	2	Temperatura media	21
15826	7	Sololá	712	San Antonio Palopó	9	San Antonio Palopo	10	Octubre	2023-10-28T00:00:00	2024-11-08T20:00:00	4	Temperatura máxima	21
15827	7	Sololá	712	San Antonio Palopó	9	San Antonio Palopo	10	Octubre	2023-10-28T00:00:00	2024-11-08T20:00:00	3	Temperatura mínima	20.7
15828	7	Sololá	712	San Antonio Palopó	9	San Antonio Palopo	10	Octubre	2023-10-28T00:00:00	2024-11-08T20:00:00	5	Humedad	71
15829	7	Sololá	712	San Antonio Palopó	9	San Antonio Palopo	10	Octubre	2023-10-28T00:00:00	2024-11-08T20:00:00	6	Velocidad del viento	6.4
15830	7	Sololá	712	San Antonio Palopó	9	San Antonio Palopo	10	Octubre	2023-10-28T00:00:00	2024-11-08T20:00:00	7	Dirección del viento	6.44
15831	7	Sololá	712	San Antonio Palopó	9	San Antonio Palopo	10	Octubre	2023-10-28T00:00:00	2024-11-08T20:00:00	1	Precipitación	0
15832	7	Sololá	712	San Antonio Palopó	9	San Antonio Palopo	10	Octubre	2023-10-28T00:00:00	2024-11-08T20:00:00	8	Radiación solar	0
15833	7	Sololá	712	San Antonio Palopó	9	San Antonio Palopo	10	Octubre	2023-10-28T00:00:00	2024-11-08T21:00:00	2	Temperatura media	21.1
15834	7	Sololá	712	San Antonio Palopó	9	San Antonio Palopo	10	Octubre	2023-10-28T00:00:00	2024-11-08T21:00:00	4	Temperatura máxima	21.2
15835	7	Sololá	712	San Antonio Palopó	9	San Antonio Palopo	10	Octubre	2023-10-28T00:00:00	2024-11-08T21:00:00	3	Temperatura mínima	20.8
15836	7	Sololá	712	San Antonio Palopó	9	San Antonio Palopo	10	Octubre	2023-10-28T00:00:00	2024-11-08T21:00:00	5	Humedad	71
15837	7	Sololá	712	San Antonio Palopó	9	San Antonio Palopo	10	Octubre	2023-10-28T00:00:00	2024-11-08T21:00:00	6	Velocidad del viento	3.2
15838	7	Sololá	712	San Antonio Palopó	9	San Antonio Palopo	10	Octubre	2023-10-28T00:00:00	2024-11-08T21:00:00	7	Dirección del viento	3.22
15839	7	Sololá	712	San Antonio Palopó	9	San Antonio Palopo	10	Octubre	2023-10-28T00:00:00	2024-11-08T21:00:00	1	Precipitación	0
15840	7	Sololá	712	San Antonio Palopó	9	San Antonio Palopo	10	Octubre	2023-10-28T00:00:00	2024-11-08T21:00:00	8	Radiación solar	0
15841	7	Sololá	712	San Antonio Palopó	9	San Antonio Palopo	10	Octubre	2023-10-28T00:00:00	2024-11-08T22:00:00	2	Temperatura media	20.8
15842	7	Sololá	712	San Antonio Palopó	9	San Antonio Palopo	10	Octubre	2023-10-28T00:00:00	2024-11-08T22:00:00	4	Temperatura máxima	21.1
15843	7	Sololá	712	San Antonio Palopó	9	San Antonio Palopo	10	Octubre	2023-10-28T00:00:00	2024-11-08T22:00:00	3	Temperatura mínima	20.7
15844	7	Sololá	712	San Antonio Palopó	9	San Antonio Palopo	10	Octubre	2023-10-28T00:00:00	2024-11-08T22:00:00	5	Humedad	72
15845	7	Sololá	712	San Antonio Palopó	9	San Antonio Palopo	10	Octubre	2023-10-28T00:00:00	2024-11-08T22:00:00	6	Velocidad del viento	3.2
15846	7	Sololá	712	San Antonio Palopó	9	San Antonio Palopo	10	Octubre	2023-10-28T00:00:00	2024-11-08T22:00:00	7	Dirección del viento	3.22
15847	7	Sololá	712	San Antonio Palopó	9	San Antonio Palopo	10	Octubre	2023-10-28T00:00:00	2024-11-08T22:00:00	1	Precipitación	0
15848	7	Sololá	712	San Antonio Palopó	9	San Antonio Palopo	10	Octubre	2023-10-28T00:00:00	2024-11-08T22:00:00	8	Radiación solar	0
15849	7	Sololá	712	San Antonio Palopó	9	San Antonio Palopo	10	Octubre	2023-10-28T00:00:00	2024-11-08T23:00:00	2	Temperatura media	20.8
15850	7	Sololá	712	San Antonio Palopó	9	San Antonio Palopo	10	Octubre	2023-10-28T00:00:00	2024-11-08T23:00:00	4	Temperatura máxima	20.9
15851	7	Sololá	712	San Antonio Palopó	9	San Antonio Palopo	10	Octubre	2023-10-28T00:00:00	2024-11-08T23:00:00	3	Temperatura mínima	20.7
15852	7	Sololá	712	San Antonio Palopó	9	San Antonio Palopo	10	Octubre	2023-10-28T00:00:00	2024-11-08T23:00:00	5	Humedad	71
15853	7	Sololá	712	San Antonio Palopó	9	San Antonio Palopo	10	Octubre	2023-10-28T00:00:00	2024-11-08T23:00:00	6	Velocidad del viento	4.8
15854	7	Sololá	712	San Antonio Palopó	9	San Antonio Palopo	10	Octubre	2023-10-28T00:00:00	2024-11-08T23:00:00	7	Dirección del viento	4.83
15855	7	Sololá	712	San Antonio Palopó	9	San Antonio Palopo	10	Octubre	2023-10-28T00:00:00	2024-11-08T23:00:00	1	Precipitación	0
15856	7	Sololá	712	San Antonio Palopó	9	San Antonio Palopo	10	Octubre	2023-10-28T00:00:00	2024-11-08T23:00:00	8	Radiación solar	0
15857	7	Sololá	712	San Antonio Palopó	9	San Antonio Palopo	10	Octubre	2023-10-29T00:00:00	2024-11-08T00:00:00	2	Temperatura media	20.2
15858	7	Sololá	712	San Antonio Palopó	9	San Antonio Palopo	10	Octubre	2023-10-29T00:00:00	2024-11-08T00:00:00	4	Temperatura máxima	20.9
15859	7	Sololá	712	San Antonio Palopó	9	San Antonio Palopo	10	Octubre	2023-10-29T00:00:00	2024-11-08T00:00:00	3	Temperatura mínima	20.2
15860	7	Sololá	712	San Antonio Palopó	9	San Antonio Palopo	10	Octubre	2023-10-29T00:00:00	2024-11-08T00:00:00	5	Humedad	72
15861	7	Sololá	712	San Antonio Palopó	9	San Antonio Palopo	10	Octubre	2023-10-29T00:00:00	2024-11-08T00:00:00	6	Velocidad del viento	3.2
15862	7	Sololá	712	San Antonio Palopó	9	San Antonio Palopo	10	Octubre	2023-10-29T00:00:00	2024-11-08T00:00:00	7	Dirección del viento	3.22
15863	7	Sololá	712	San Antonio Palopó	9	San Antonio Palopo	10	Octubre	2023-10-29T00:00:00	2024-11-08T00:00:00	1	Precipitación	0
15864	7	Sololá	712	San Antonio Palopó	9	San Antonio Palopo	10	Octubre	2023-10-29T00:00:00	2024-11-08T00:00:00	8	Radiación solar	0
15865	7	Sololá	712	San Antonio Palopó	9	San Antonio Palopo	10	Octubre	2023-10-29T00:00:00	2024-11-08T01:00:00	2	Temperatura media	19.8
15866	7	Sololá	712	San Antonio Palopó	9	San Antonio Palopo	10	Octubre	2023-10-29T00:00:00	2024-11-08T01:00:00	4	Temperatura máxima	20.2
15867	7	Sololá	712	San Antonio Palopó	9	San Antonio Palopo	10	Octubre	2023-10-29T00:00:00	2024-11-08T01:00:00	3	Temperatura mínima	19.7
15868	7	Sololá	712	San Antonio Palopó	9	San Antonio Palopo	10	Octubre	2023-10-29T00:00:00	2024-11-08T01:00:00	5	Humedad	72
15869	7	Sololá	712	San Antonio Palopó	9	San Antonio Palopo	10	Octubre	2023-10-29T00:00:00	2024-11-08T01:00:00	6	Velocidad del viento	6.4
15870	7	Sololá	712	San Antonio Palopó	9	San Antonio Palopo	10	Octubre	2023-10-29T00:00:00	2024-11-08T01:00:00	7	Dirección del viento	6.44
15871	7	Sololá	712	San Antonio Palopó	9	San Antonio Palopo	10	Octubre	2023-10-29T00:00:00	2024-11-08T01:00:00	1	Precipitación	0
15872	7	Sololá	712	San Antonio Palopó	9	San Antonio Palopo	10	Octubre	2023-10-29T00:00:00	2024-11-08T01:00:00	8	Radiación solar	0
15873	7	Sololá	712	San Antonio Palopó	9	San Antonio Palopo	10	Octubre	2023-10-29T00:00:00	2024-11-08T02:00:00	2	Temperatura media	19.6
15874	7	Sololá	712	San Antonio Palopó	9	San Antonio Palopo	10	Octubre	2023-10-29T00:00:00	2024-11-08T02:00:00	4	Temperatura máxima	19.9
15875	7	Sololá	712	San Antonio Palopó	9	San Antonio Palopo	10	Octubre	2023-10-29T00:00:00	2024-11-08T02:00:00	3	Temperatura mínima	19.3
15876	7	Sololá	712	San Antonio Palopó	9	San Antonio Palopo	10	Octubre	2023-10-29T00:00:00	2024-11-08T02:00:00	5	Humedad	71
15877	7	Sololá	712	San Antonio Palopó	9	San Antonio Palopo	10	Octubre	2023-10-29T00:00:00	2024-11-08T02:00:00	6	Velocidad del viento	8
15878	7	Sololá	712	San Antonio Palopó	9	San Antonio Palopo	10	Octubre	2023-10-29T00:00:00	2024-11-08T02:00:00	7	Dirección del viento	8.05
15879	7	Sololá	712	San Antonio Palopó	9	San Antonio Palopo	10	Octubre	2023-10-29T00:00:00	2024-11-08T02:00:00	1	Precipitación	0
15880	7	Sololá	712	San Antonio Palopó	9	San Antonio Palopo	10	Octubre	2023-10-29T00:00:00	2024-11-08T02:00:00	8	Radiación solar	0
15881	7	Sololá	712	San Antonio Palopó	9	San Antonio Palopo	10	Octubre	2023-10-29T00:00:00	2024-11-08T03:00:00	2	Temperatura media	19
15882	7	Sololá	712	San Antonio Palopó	9	San Antonio Palopo	10	Octubre	2023-10-29T00:00:00	2024-11-08T03:00:00	4	Temperatura máxima	19.6
15883	7	Sololá	712	San Antonio Palopó	9	San Antonio Palopo	10	Octubre	2023-10-29T00:00:00	2024-11-08T03:00:00	3	Temperatura mínima	19
15884	7	Sololá	712	San Antonio Palopó	9	San Antonio Palopo	10	Octubre	2023-10-29T00:00:00	2024-11-08T03:00:00	5	Humedad	73
15885	7	Sololá	712	San Antonio Palopó	9	San Antonio Palopo	10	Octubre	2023-10-29T00:00:00	2024-11-08T03:00:00	6	Velocidad del viento	6.4
15886	7	Sololá	712	San Antonio Palopó	9	San Antonio Palopo	10	Octubre	2023-10-29T00:00:00	2024-11-08T03:00:00	7	Dirección del viento	6.44
15887	7	Sololá	712	San Antonio Palopó	9	San Antonio Palopo	10	Octubre	2023-10-29T00:00:00	2024-11-08T03:00:00	1	Precipitación	0
15888	7	Sololá	712	San Antonio Palopó	9	San Antonio Palopo	10	Octubre	2023-10-29T00:00:00	2024-11-08T03:00:00	8	Radiación solar	0
15889	7	Sololá	712	San Antonio Palopó	9	San Antonio Palopo	10	Octubre	2023-10-29T00:00:00	2024-11-08T04:00:00	2	Temperatura media	18.9
15890	7	Sololá	712	San Antonio Palopó	9	San Antonio Palopo	10	Octubre	2023-10-29T00:00:00	2024-11-08T04:00:00	4	Temperatura máxima	19.2
15891	7	Sololá	712	San Antonio Palopó	9	San Antonio Palopo	10	Octubre	2023-10-29T00:00:00	2024-11-08T04:00:00	3	Temperatura mínima	18.9
15892	7	Sololá	712	San Antonio Palopó	9	San Antonio Palopo	10	Octubre	2023-10-29T00:00:00	2024-11-08T04:00:00	5	Humedad	74
15893	7	Sololá	712	San Antonio Palopó	9	San Antonio Palopo	10	Octubre	2023-10-29T00:00:00	2024-11-08T04:00:00	6	Velocidad del viento	4.8
15894	7	Sololá	712	San Antonio Palopó	9	San Antonio Palopo	10	Octubre	2023-10-29T00:00:00	2024-11-08T04:00:00	7	Dirección del viento	4.83
15895	7	Sololá	712	San Antonio Palopó	9	San Antonio Palopo	10	Octubre	2023-10-29T00:00:00	2024-11-08T04:00:00	1	Precipitación	0
15896	7	Sololá	712	San Antonio Palopó	9	San Antonio Palopo	10	Octubre	2023-10-29T00:00:00	2024-11-08T04:00:00	8	Radiación solar	0
15897	7	Sololá	712	San Antonio Palopó	9	San Antonio Palopo	10	Octubre	2023-10-29T00:00:00	2024-11-08T05:00:00	2	Temperatura media	19
15898	7	Sololá	712	San Antonio Palopó	9	San Antonio Palopo	10	Octubre	2023-10-29T00:00:00	2024-11-08T05:00:00	4	Temperatura máxima	19
15899	7	Sololá	712	San Antonio Palopó	9	San Antonio Palopo	10	Octubre	2023-10-29T00:00:00	2024-11-08T05:00:00	3	Temperatura mínima	18.1
15900	7	Sololá	712	San Antonio Palopó	9	San Antonio Palopo	10	Octubre	2023-10-29T00:00:00	2024-11-08T05:00:00	5	Humedad	75
15901	7	Sololá	712	San Antonio Palopó	9	San Antonio Palopo	10	Octubre	2023-10-29T00:00:00	2024-11-08T05:00:00	6	Velocidad del viento	6.4
15902	7	Sololá	712	San Antonio Palopó	9	San Antonio Palopo	10	Octubre	2023-10-29T00:00:00	2024-11-08T05:00:00	7	Dirección del viento	6.44
15903	7	Sololá	712	San Antonio Palopó	9	San Antonio Palopo	10	Octubre	2023-10-29T00:00:00	2024-11-08T05:00:00	1	Precipitación	0
15904	7	Sololá	712	San Antonio Palopó	9	San Antonio Palopo	10	Octubre	2023-10-29T00:00:00	2024-11-08T05:00:00	8	Radiación solar	0
15905	7	Sololá	712	San Antonio Palopó	9	San Antonio Palopo	10	Octubre	2023-10-29T00:00:00	2024-11-08T06:00:00	2	Temperatura media	19.3
15906	7	Sololá	712	San Antonio Palopó	9	San Antonio Palopo	10	Octubre	2023-10-29T00:00:00	2024-11-08T06:00:00	4	Temperatura máxima	19.4
15907	7	Sololá	712	San Antonio Palopó	9	San Antonio Palopo	10	Octubre	2023-10-29T00:00:00	2024-11-08T06:00:00	3	Temperatura mínima	19
15908	7	Sololá	712	San Antonio Palopó	9	San Antonio Palopo	10	Octubre	2023-10-29T00:00:00	2024-11-08T06:00:00	5	Humedad	73
15909	7	Sololá	712	San Antonio Palopó	9	San Antonio Palopo	10	Octubre	2023-10-29T00:00:00	2024-11-08T06:00:00	6	Velocidad del viento	4.8
15910	7	Sololá	712	San Antonio Palopó	9	San Antonio Palopo	10	Octubre	2023-10-29T00:00:00	2024-11-08T06:00:00	7	Dirección del viento	4.83
15911	7	Sololá	712	San Antonio Palopó	9	San Antonio Palopo	10	Octubre	2023-10-29T00:00:00	2024-11-08T06:00:00	1	Precipitación	0
15912	7	Sololá	712	San Antonio Palopó	9	San Antonio Palopo	10	Octubre	2023-10-29T00:00:00	2024-11-08T06:00:00	8	Radiación solar	0
15913	7	Sololá	712	San Antonio Palopó	9	San Antonio Palopo	10	Octubre	2023-10-29T00:00:00	2024-11-08T07:00:00	2	Temperatura media	19.9
15914	7	Sololá	712	San Antonio Palopó	9	San Antonio Palopo	10	Octubre	2023-10-29T00:00:00	2024-11-08T07:00:00	4	Temperatura máxima	19.9
15915	7	Sololá	712	San Antonio Palopó	9	San Antonio Palopo	10	Octubre	2023-10-29T00:00:00	2024-11-08T07:00:00	3	Temperatura mínima	19.2
15916	7	Sololá	712	San Antonio Palopó	9	San Antonio Palopo	10	Octubre	2023-10-29T00:00:00	2024-11-08T07:00:00	5	Humedad	72
15917	7	Sololá	712	San Antonio Palopó	9	San Antonio Palopo	10	Octubre	2023-10-29T00:00:00	2024-11-08T07:00:00	6	Velocidad del viento	8
15918	7	Sololá	712	San Antonio Palopó	9	San Antonio Palopo	10	Octubre	2023-10-29T00:00:00	2024-11-08T07:00:00	7	Dirección del viento	8.05
15919	7	Sololá	712	San Antonio Palopó	9	San Antonio Palopo	10	Octubre	2023-10-29T00:00:00	2024-11-08T07:00:00	1	Precipitación	0
15920	7	Sololá	712	San Antonio Palopó	9	San Antonio Palopo	10	Octubre	2023-10-29T00:00:00	2024-11-08T07:00:00	8	Radiación solar	35
15921	7	Sololá	712	San Antonio Palopó	9	San Antonio Palopo	10	Octubre	2023-10-29T00:00:00	2024-11-08T08:00:00	2	Temperatura media	20.6
15922	7	Sololá	712	San Antonio Palopó	9	San Antonio Palopo	10	Octubre	2023-10-29T00:00:00	2024-11-08T08:00:00	4	Temperatura máxima	20.6
15923	7	Sololá	712	San Antonio Palopó	9	San Antonio Palopo	10	Octubre	2023-10-29T00:00:00	2024-11-08T08:00:00	3	Temperatura mínima	19.9
15924	7	Sololá	712	San Antonio Palopó	9	San Antonio Palopo	10	Octubre	2023-10-29T00:00:00	2024-11-08T08:00:00	5	Humedad	71
15925	7	Sololá	712	San Antonio Palopó	9	San Antonio Palopo	10	Octubre	2023-10-29T00:00:00	2024-11-08T08:00:00	6	Velocidad del viento	3.2
15926	7	Sololá	712	San Antonio Palopó	9	San Antonio Palopo	10	Octubre	2023-10-29T00:00:00	2024-11-08T08:00:00	7	Dirección del viento	3.22
15927	7	Sololá	712	San Antonio Palopó	9	San Antonio Palopo	10	Octubre	2023-10-29T00:00:00	2024-11-08T08:00:00	1	Precipitación	0
15928	7	Sololá	712	San Antonio Palopó	9	San Antonio Palopo	10	Octubre	2023-10-29T00:00:00	2024-11-08T08:00:00	8	Radiación solar	94
15929	7	Sololá	712	San Antonio Palopó	9	San Antonio Palopo	10	Octubre	2023-10-29T00:00:00	2024-11-08T09:00:00	2	Temperatura media	22.9
15930	7	Sololá	712	San Antonio Palopó	9	San Antonio Palopo	10	Octubre	2023-10-29T00:00:00	2024-11-08T09:00:00	4	Temperatura máxima	22.9
15931	7	Sololá	712	San Antonio Palopó	9	San Antonio Palopo	10	Octubre	2023-10-29T00:00:00	2024-11-08T09:00:00	3	Temperatura mínima	20.6
15932	7	Sololá	712	San Antonio Palopó	9	San Antonio Palopo	10	Octubre	2023-10-29T00:00:00	2024-11-08T09:00:00	5	Humedad	67
15933	7	Sololá	712	San Antonio Palopó	9	San Antonio Palopo	10	Octubre	2023-10-29T00:00:00	2024-11-08T09:00:00	6	Velocidad del viento	3.2
15934	7	Sololá	712	San Antonio Palopó	9	San Antonio Palopo	10	Octubre	2023-10-29T00:00:00	2024-11-08T09:00:00	7	Dirección del viento	3.22
15935	7	Sololá	712	San Antonio Palopó	9	San Antonio Palopo	10	Octubre	2023-10-29T00:00:00	2024-11-08T09:00:00	1	Precipitación	0
15936	7	Sololá	712	San Antonio Palopó	9	San Antonio Palopo	10	Octubre	2023-10-29T00:00:00	2024-11-08T09:00:00	8	Radiación solar	430
15937	7	Sololá	712	San Antonio Palopó	9	San Antonio Palopo	10	Octubre	2023-10-29T00:00:00	2024-11-08T10:00:00	2	Temperatura media	23.6
15938	7	Sololá	712	San Antonio Palopó	9	San Antonio Palopo	10	Octubre	2023-10-29T00:00:00	2024-11-08T10:00:00	4	Temperatura máxima	23.7
15939	7	Sololá	712	San Antonio Palopó	9	San Antonio Palopo	10	Octubre	2023-10-29T00:00:00	2024-11-08T10:00:00	3	Temperatura mínima	22.9
15940	7	Sololá	712	San Antonio Palopó	9	San Antonio Palopo	10	Octubre	2023-10-29T00:00:00	2024-11-08T10:00:00	5	Humedad	65
15941	7	Sololá	712	San Antonio Palopó	9	San Antonio Palopo	10	Octubre	2023-10-29T00:00:00	2024-11-08T10:00:00	6	Velocidad del viento	4.8
15942	7	Sololá	712	San Antonio Palopó	9	San Antonio Palopo	10	Octubre	2023-10-29T00:00:00	2024-11-08T10:00:00	7	Dirección del viento	4.83
15943	7	Sololá	712	San Antonio Palopó	9	San Antonio Palopo	10	Octubre	2023-10-29T00:00:00	2024-11-08T10:00:00	1	Precipitación	0
15944	7	Sololá	712	San Antonio Palopó	9	San Antonio Palopo	10	Octubre	2023-10-29T00:00:00	2024-11-08T10:00:00	8	Radiación solar	653
15945	7	Sololá	712	San Antonio Palopó	9	San Antonio Palopo	10	Octubre	2023-10-29T00:00:00	2024-11-08T11:00:00	2	Temperatura media	24.2
15946	7	Sololá	712	San Antonio Palopó	9	San Antonio Palopo	10	Octubre	2023-10-29T00:00:00	2024-11-08T11:00:00	4	Temperatura máxima	24.5
15947	7	Sololá	712	San Antonio Palopó	9	San Antonio Palopo	10	Octubre	2023-10-29T00:00:00	2024-11-08T11:00:00	3	Temperatura mínima	23.6
15948	7	Sololá	712	San Antonio Palopó	9	San Antonio Palopo	10	Octubre	2023-10-29T00:00:00	2024-11-08T11:00:00	5	Humedad	63
15949	7	Sololá	712	San Antonio Palopó	9	San Antonio Palopo	10	Octubre	2023-10-29T00:00:00	2024-11-08T11:00:00	6	Velocidad del viento	6.4
15950	7	Sololá	712	San Antonio Palopó	9	San Antonio Palopo	10	Octubre	2023-10-29T00:00:00	2024-11-08T11:00:00	7	Dirección del viento	6.44
15951	7	Sololá	712	San Antonio Palopó	9	San Antonio Palopo	10	Octubre	2023-10-29T00:00:00	2024-11-08T11:00:00	1	Precipitación	0
15952	7	Sololá	712	San Antonio Palopó	9	San Antonio Palopo	10	Octubre	2023-10-29T00:00:00	2024-11-08T11:00:00	8	Radiación solar	781
15953	7	Sololá	712	San Antonio Palopó	9	San Antonio Palopo	10	Octubre	2023-10-29T00:00:00	2024-11-08T12:00:00	2	Temperatura media	23.9
15954	7	Sololá	712	San Antonio Palopó	9	San Antonio Palopo	10	Octubre	2023-10-29T00:00:00	2024-11-08T12:00:00	4	Temperatura máxima	25.1
15955	7	Sololá	712	San Antonio Palopó	9	San Antonio Palopo	10	Octubre	2023-10-29T00:00:00	2024-11-08T12:00:00	3	Temperatura mínima	23.7
15956	7	Sololá	712	San Antonio Palopó	9	San Antonio Palopo	10	Octubre	2023-10-29T00:00:00	2024-11-08T12:00:00	5	Humedad	64
15957	7	Sololá	712	San Antonio Palopó	9	San Antonio Palopo	10	Octubre	2023-10-29T00:00:00	2024-11-08T12:00:00	6	Velocidad del viento	8
15958	7	Sololá	712	San Antonio Palopó	9	San Antonio Palopo	10	Octubre	2023-10-29T00:00:00	2024-11-08T12:00:00	7	Dirección del viento	8.05
15959	7	Sololá	712	San Antonio Palopó	9	San Antonio Palopo	10	Octubre	2023-10-29T00:00:00	2024-11-08T12:00:00	1	Precipitación	0
15960	7	Sololá	712	San Antonio Palopó	9	San Antonio Palopo	10	Octubre	2023-10-29T00:00:00	2024-11-08T12:00:00	8	Radiación solar	715
15961	7	Sololá	712	San Antonio Palopó	9	San Antonio Palopo	10	Octubre	2023-10-29T00:00:00	2024-11-08T13:00:00	2	Temperatura media	23.9
15962	7	Sololá	712	San Antonio Palopó	9	San Antonio Palopo	10	Octubre	2023-10-29T00:00:00	2024-11-08T13:00:00	4	Temperatura máxima	24.9
15963	7	Sololá	712	San Antonio Palopó	9	San Antonio Palopo	10	Octubre	2023-10-29T00:00:00	2024-11-08T13:00:00	3	Temperatura mínima	23.9
15964	7	Sololá	712	San Antonio Palopó	9	San Antonio Palopo	10	Octubre	2023-10-29T00:00:00	2024-11-08T13:00:00	5	Humedad	73
15965	7	Sololá	712	San Antonio Palopó	9	San Antonio Palopo	10	Octubre	2023-10-29T00:00:00	2024-11-08T13:00:00	6	Velocidad del viento	9.7
15966	7	Sololá	712	San Antonio Palopó	9	San Antonio Palopo	10	Octubre	2023-10-29T00:00:00	2024-11-08T13:00:00	7	Dirección del viento	9.66
15967	7	Sololá	712	San Antonio Palopó	9	San Antonio Palopo	10	Octubre	2023-10-29T00:00:00	2024-11-08T13:00:00	1	Precipitación	0
15968	7	Sololá	712	San Antonio Palopó	9	San Antonio Palopo	10	Octubre	2023-10-29T00:00:00	2024-11-08T13:00:00	8	Radiación solar	466
15969	7	Sololá	712	San Antonio Palopó	9	San Antonio Palopo	10	Octubre	2023-10-29T00:00:00	2024-11-08T14:00:00	2	Temperatura media	21.9
15970	7	Sololá	712	San Antonio Palopó	9	San Antonio Palopo	10	Octubre	2023-10-29T00:00:00	2024-11-08T14:00:00	4	Temperatura máxima	24.2
15971	7	Sololá	712	San Antonio Palopó	9	San Antonio Palopo	10	Octubre	2023-10-29T00:00:00	2024-11-08T14:00:00	3	Temperatura mínima	21.9
15972	7	Sololá	712	San Antonio Palopó	9	San Antonio Palopo	10	Octubre	2023-10-29T00:00:00	2024-11-08T14:00:00	5	Humedad	77
15973	7	Sololá	712	San Antonio Palopó	9	San Antonio Palopo	10	Octubre	2023-10-29T00:00:00	2024-11-08T14:00:00	6	Velocidad del viento	8
15974	7	Sololá	712	San Antonio Palopó	9	San Antonio Palopo	10	Octubre	2023-10-29T00:00:00	2024-11-08T14:00:00	7	Dirección del viento	8.05
15975	7	Sololá	712	San Antonio Palopó	9	San Antonio Palopo	10	Octubre	2023-10-29T00:00:00	2024-11-08T14:00:00	1	Precipitación	0
15976	7	Sololá	712	San Antonio Palopó	9	San Antonio Palopo	10	Octubre	2023-10-29T00:00:00	2024-11-08T14:00:00	8	Radiación solar	287
15977	7	Sololá	712	San Antonio Palopó	9	San Antonio Palopo	10	Octubre	2023-10-29T00:00:00	2024-11-08T15:00:00	2	Temperatura media	22.2
15978	7	Sololá	712	San Antonio Palopó	9	San Antonio Palopo	10	Octubre	2023-10-29T00:00:00	2024-11-08T15:00:00	4	Temperatura máxima	22.5
15979	7	Sololá	712	San Antonio Palopó	9	San Antonio Palopo	10	Octubre	2023-10-29T00:00:00	2024-11-08T15:00:00	3	Temperatura mínima	21.9
15980	7	Sololá	712	San Antonio Palopó	9	San Antonio Palopo	10	Octubre	2023-10-29T00:00:00	2024-11-08T15:00:00	5	Humedad	78
15981	7	Sololá	712	San Antonio Palopó	9	San Antonio Palopo	10	Octubre	2023-10-29T00:00:00	2024-11-08T15:00:00	6	Velocidad del viento	4.8
15982	7	Sololá	712	San Antonio Palopó	9	San Antonio Palopo	10	Octubre	2023-10-29T00:00:00	2024-11-08T15:00:00	7	Dirección del viento	4.83
15983	7	Sololá	712	San Antonio Palopó	9	San Antonio Palopo	10	Octubre	2023-10-29T00:00:00	2024-11-08T15:00:00	1	Precipitación	0
15984	7	Sololá	712	San Antonio Palopó	9	San Antonio Palopo	10	Octubre	2023-10-29T00:00:00	2024-11-08T15:00:00	8	Radiación solar	248
15985	7	Sololá	712	San Antonio Palopó	9	San Antonio Palopo	10	Octubre	2023-10-29T00:00:00	2024-11-08T16:00:00	2	Temperatura media	22.3
15986	7	Sololá	712	San Antonio Palopó	9	San Antonio Palopo	10	Octubre	2023-10-29T00:00:00	2024-11-08T16:00:00	4	Temperatura máxima	22.8
15987	7	Sololá	712	San Antonio Palopó	9	San Antonio Palopo	10	Octubre	2023-10-29T00:00:00	2024-11-08T16:00:00	3	Temperatura mínima	22.2
15988	7	Sololá	712	San Antonio Palopó	9	San Antonio Palopo	10	Octubre	2023-10-29T00:00:00	2024-11-08T16:00:00	5	Humedad	72
15989	7	Sololá	712	San Antonio Palopó	9	San Antonio Palopo	10	Octubre	2023-10-29T00:00:00	2024-11-08T16:00:00	6	Velocidad del viento	3.2
15990	7	Sololá	712	San Antonio Palopó	9	San Antonio Palopo	10	Octubre	2023-10-29T00:00:00	2024-11-08T16:00:00	7	Dirección del viento	3.22
15991	7	Sololá	712	San Antonio Palopó	9	San Antonio Palopo	10	Octubre	2023-10-29T00:00:00	2024-11-08T16:00:00	1	Precipitación	0
15992	7	Sololá	712	San Antonio Palopó	9	San Antonio Palopo	10	Octubre	2023-10-29T00:00:00	2024-11-08T16:00:00	8	Radiación solar	134
15993	7	Sololá	712	San Antonio Palopó	9	San Antonio Palopo	10	Octubre	2023-10-29T00:00:00	2024-11-08T17:00:00	2	Temperatura media	21.8
15994	7	Sololá	712	San Antonio Palopó	9	San Antonio Palopo	10	Octubre	2023-10-29T00:00:00	2024-11-08T17:00:00	4	Temperatura máxima	22.6
15995	7	Sololá	712	San Antonio Palopó	9	San Antonio Palopo	10	Octubre	2023-10-29T00:00:00	2024-11-08T17:00:00	3	Temperatura mínima	21.8
15996	7	Sololá	712	San Antonio Palopó	9	San Antonio Palopo	10	Octubre	2023-10-29T00:00:00	2024-11-08T17:00:00	5	Humedad	67
15997	7	Sololá	712	San Antonio Palopó	9	San Antonio Palopo	10	Octubre	2023-10-29T00:00:00	2024-11-08T17:00:00	6	Velocidad del viento	4.8
15998	7	Sololá	712	San Antonio Palopó	9	San Antonio Palopo	10	Octubre	2023-10-29T00:00:00	2024-11-08T17:00:00	7	Dirección del viento	4.83
15999	7	Sololá	712	San Antonio Palopó	9	San Antonio Palopo	10	Octubre	2023-10-29T00:00:00	2024-11-08T17:00:00	1	Precipitación	0
16000	7	Sololá	712	San Antonio Palopó	9	San Antonio Palopo	10	Octubre	2023-10-29T00:00:00	2024-11-08T17:00:00	8	Radiación solar	40
16001	7	Sololá	712	San Antonio Palopó	9	San Antonio Palopo	10	Octubre	2023-10-29T00:00:00	2024-11-08T18:00:00	2	Temperatura media	21.1
16002	7	Sololá	712	San Antonio Palopó	9	San Antonio Palopo	10	Octubre	2023-10-29T00:00:00	2024-11-08T18:00:00	4	Temperatura máxima	21.8
16003	7	Sololá	712	San Antonio Palopó	9	San Antonio Palopo	10	Octubre	2023-10-29T00:00:00	2024-11-08T18:00:00	3	Temperatura mínima	21.1
16004	7	Sololá	712	San Antonio Palopó	9	San Antonio Palopo	10	Octubre	2023-10-29T00:00:00	2024-11-08T18:00:00	5	Humedad	69
16005	7	Sololá	712	San Antonio Palopó	9	San Antonio Palopo	10	Octubre	2023-10-29T00:00:00	2024-11-08T18:00:00	6	Velocidad del viento	3.2
16006	7	Sololá	712	San Antonio Palopó	9	San Antonio Palopo	10	Octubre	2023-10-29T00:00:00	2024-11-08T18:00:00	7	Dirección del viento	3.22
16007	7	Sololá	712	San Antonio Palopó	9	San Antonio Palopo	10	Octubre	2023-10-29T00:00:00	2024-11-08T18:00:00	1	Precipitación	0
16008	7	Sololá	712	San Antonio Palopó	9	San Antonio Palopo	10	Octubre	2023-10-29T00:00:00	2024-11-08T18:00:00	8	Radiación solar	3
16009	7	Sololá	712	San Antonio Palopó	9	San Antonio Palopo	10	Octubre	2023-10-29T00:00:00	2024-11-08T19:00:00	2	Temperatura media	21.1
16010	7	Sololá	712	San Antonio Palopó	9	San Antonio Palopo	10	Octubre	2023-10-29T00:00:00	2024-11-08T19:00:00	4	Temperatura máxima	21.2
16011	7	Sololá	712	San Antonio Palopó	9	San Antonio Palopo	10	Octubre	2023-10-29T00:00:00	2024-11-08T19:00:00	3	Temperatura mínima	20.4
16012	7	Sololá	712	San Antonio Palopó	9	San Antonio Palopo	10	Octubre	2023-10-29T00:00:00	2024-11-08T19:00:00	5	Humedad	70
16013	7	Sololá	712	San Antonio Palopó	9	San Antonio Palopo	10	Octubre	2023-10-29T00:00:00	2024-11-08T19:00:00	6	Velocidad del viento	3.2
16014	7	Sololá	712	San Antonio Palopó	9	San Antonio Palopo	10	Octubre	2023-10-29T00:00:00	2024-11-08T19:00:00	7	Dirección del viento	3.22
16015	7	Sololá	712	San Antonio Palopó	9	San Antonio Palopo	10	Octubre	2023-10-29T00:00:00	2024-11-08T19:00:00	1	Precipitación	0
16016	7	Sololá	712	San Antonio Palopó	9	San Antonio Palopo	10	Octubre	2023-10-29T00:00:00	2024-11-08T19:00:00	8	Radiación solar	0
16017	7	Sololá	712	San Antonio Palopó	9	San Antonio Palopo	10	Octubre	2023-10-29T00:00:00	2024-11-08T20:00:00	2	Temperatura media	20.6
16018	7	Sololá	712	San Antonio Palopó	9	San Antonio Palopo	10	Octubre	2023-10-29T00:00:00	2024-11-08T20:00:00	4	Temperatura máxima	21.1
16019	7	Sololá	712	San Antonio Palopó	9	San Antonio Palopo	10	Octubre	2023-10-29T00:00:00	2024-11-08T20:00:00	3	Temperatura mínima	20.4
16020	7	Sololá	712	San Antonio Palopó	9	San Antonio Palopo	10	Octubre	2023-10-29T00:00:00	2024-11-08T20:00:00	5	Humedad	69
16021	7	Sololá	712	San Antonio Palopó	9	San Antonio Palopo	10	Octubre	2023-10-29T00:00:00	2024-11-08T20:00:00	6	Velocidad del viento	4.8
16022	7	Sololá	712	San Antonio Palopó	9	San Antonio Palopo	10	Octubre	2023-10-29T00:00:00	2024-11-08T20:00:00	7	Dirección del viento	4.83
16023	7	Sololá	712	San Antonio Palopó	9	San Antonio Palopo	10	Octubre	2023-10-29T00:00:00	2024-11-08T20:00:00	1	Precipitación	0
16024	7	Sololá	712	San Antonio Palopó	9	San Antonio Palopo	10	Octubre	2023-10-29T00:00:00	2024-11-08T20:00:00	8	Radiación solar	0
16025	7	Sololá	712	San Antonio Palopó	9	San Antonio Palopo	10	Octubre	2023-10-29T00:00:00	2024-11-08T21:00:00	2	Temperatura media	20.3
16026	7	Sololá	712	San Antonio Palopó	9	San Antonio Palopo	10	Octubre	2023-10-29T00:00:00	2024-11-08T21:00:00	4	Temperatura máxima	20.6
16027	7	Sololá	712	San Antonio Palopó	9	San Antonio Palopo	10	Octubre	2023-10-29T00:00:00	2024-11-08T21:00:00	3	Temperatura mínima	19.9
16028	7	Sololá	712	San Antonio Palopó	9	San Antonio Palopo	10	Octubre	2023-10-29T00:00:00	2024-11-08T21:00:00	5	Humedad	72
16029	7	Sololá	712	San Antonio Palopó	9	San Antonio Palopo	10	Octubre	2023-10-29T00:00:00	2024-11-08T21:00:00	6	Velocidad del viento	3.2
16030	7	Sololá	712	San Antonio Palopó	9	San Antonio Palopo	10	Octubre	2023-10-29T00:00:00	2024-11-08T21:00:00	7	Dirección del viento	3.22
16031	7	Sololá	712	San Antonio Palopó	9	San Antonio Palopo	10	Octubre	2023-10-29T00:00:00	2024-11-08T21:00:00	1	Precipitación	0
16032	7	Sololá	712	San Antonio Palopó	9	San Antonio Palopo	10	Octubre	2023-10-29T00:00:00	2024-11-08T21:00:00	8	Radiación solar	0
16033	7	Sololá	712	San Antonio Palopó	9	San Antonio Palopo	10	Octubre	2023-10-29T00:00:00	2024-11-08T22:00:00	2	Temperatura media	20.1
16034	7	Sololá	712	San Antonio Palopó	9	San Antonio Palopo	10	Octubre	2023-10-29T00:00:00	2024-11-08T22:00:00	4	Temperatura máxima	20.4
16035	7	Sololá	712	San Antonio Palopó	9	San Antonio Palopo	10	Octubre	2023-10-29T00:00:00	2024-11-08T22:00:00	3	Temperatura mínima	20.1
16036	7	Sololá	712	San Antonio Palopó	9	San Antonio Palopo	10	Octubre	2023-10-29T00:00:00	2024-11-08T22:00:00	5	Humedad	72
16037	7	Sololá	712	San Antonio Palopó	9	San Antonio Palopo	10	Octubre	2023-10-29T00:00:00	2024-11-08T22:00:00	6	Velocidad del viento	8
16038	7	Sololá	712	San Antonio Palopó	9	San Antonio Palopo	10	Octubre	2023-10-29T00:00:00	2024-11-08T22:00:00	7	Dirección del viento	8.05
16039	7	Sololá	712	San Antonio Palopó	9	San Antonio Palopo	10	Octubre	2023-10-29T00:00:00	2024-11-08T22:00:00	1	Precipitación	0
16040	7	Sololá	712	San Antonio Palopó	9	San Antonio Palopo	10	Octubre	2023-10-29T00:00:00	2024-11-08T22:00:00	8	Radiación solar	0
16041	7	Sololá	712	San Antonio Palopó	9	San Antonio Palopo	10	Octubre	2023-10-29T00:00:00	2024-11-08T23:00:00	2	Temperatura media	20.2
16042	7	Sololá	712	San Antonio Palopó	9	San Antonio Palopo	10	Octubre	2023-10-29T00:00:00	2024-11-08T23:00:00	4	Temperatura máxima	20.2
16043	7	Sololá	712	San Antonio Palopó	9	San Antonio Palopo	10	Octubre	2023-10-29T00:00:00	2024-11-08T23:00:00	3	Temperatura mínima	20
16044	7	Sololá	712	San Antonio Palopó	9	San Antonio Palopo	10	Octubre	2023-10-29T00:00:00	2024-11-08T23:00:00	5	Humedad	72
16045	7	Sololá	712	San Antonio Palopó	9	San Antonio Palopo	10	Octubre	2023-10-29T00:00:00	2024-11-08T23:00:00	6	Velocidad del viento	8
16046	7	Sololá	712	San Antonio Palopó	9	San Antonio Palopo	10	Octubre	2023-10-29T00:00:00	2024-11-08T23:00:00	7	Dirección del viento	8.05
16047	7	Sololá	712	San Antonio Palopó	9	San Antonio Palopo	10	Octubre	2023-10-29T00:00:00	2024-11-08T23:00:00	1	Precipitación	0
16048	7	Sololá	712	San Antonio Palopó	9	San Antonio Palopo	10	Octubre	2023-10-29T00:00:00	2024-11-08T23:00:00	8	Radiación solar	0
16049	7	Sololá	712	San Antonio Palopó	9	San Antonio Palopo	10	Octubre	2023-10-30T00:00:00	2024-11-08T00:00:00	2	Temperatura media	20.2
16050	7	Sololá	712	San Antonio Palopó	9	San Antonio Palopo	10	Octubre	2023-10-30T00:00:00	2024-11-08T00:00:00	4	Temperatura máxima	20.2
16051	7	Sololá	712	San Antonio Palopó	9	San Antonio Palopo	10	Octubre	2023-10-30T00:00:00	2024-11-08T00:00:00	3	Temperatura mínima	19.9
16052	7	Sololá	712	San Antonio Palopó	9	San Antonio Palopo	10	Octubre	2023-10-30T00:00:00	2024-11-08T00:00:00	5	Humedad	72
16053	7	Sololá	712	San Antonio Palopó	9	San Antonio Palopo	10	Octubre	2023-10-30T00:00:00	2024-11-08T00:00:00	6	Velocidad del viento	6.4
16054	7	Sololá	712	San Antonio Palopó	9	San Antonio Palopo	10	Octubre	2023-10-30T00:00:00	2024-11-08T00:00:00	7	Dirección del viento	6.44
16055	7	Sololá	712	San Antonio Palopó	9	San Antonio Palopo	10	Octubre	2023-10-30T00:00:00	2024-11-08T00:00:00	1	Precipitación	0
16056	7	Sololá	712	San Antonio Palopó	9	San Antonio Palopo	10	Octubre	2023-10-30T00:00:00	2024-11-08T00:00:00	8	Radiación solar	0
16057	7	Sololá	712	San Antonio Palopó	9	San Antonio Palopo	10	Octubre	2023-10-30T00:00:00	2024-11-08T01:00:00	2	Temperatura media	19.3
16058	7	Sololá	712	San Antonio Palopó	9	San Antonio Palopo	10	Octubre	2023-10-30T00:00:00	2024-11-08T01:00:00	4	Temperatura máxima	20.2
16059	7	Sololá	712	San Antonio Palopó	9	San Antonio Palopo	10	Octubre	2023-10-30T00:00:00	2024-11-08T01:00:00	3	Temperatura mínima	19.2
16060	7	Sololá	712	San Antonio Palopó	9	San Antonio Palopo	10	Octubre	2023-10-30T00:00:00	2024-11-08T01:00:00	5	Humedad	76
16061	7	Sololá	712	San Antonio Palopó	9	San Antonio Palopo	10	Octubre	2023-10-30T00:00:00	2024-11-08T01:00:00	6	Velocidad del viento	4.8
16062	7	Sololá	712	San Antonio Palopó	9	San Antonio Palopo	10	Octubre	2023-10-30T00:00:00	2024-11-08T01:00:00	7	Dirección del viento	4.83
16063	7	Sololá	712	San Antonio Palopó	9	San Antonio Palopo	10	Octubre	2023-10-30T00:00:00	2024-11-08T01:00:00	1	Precipitación	0
16064	7	Sololá	712	San Antonio Palopó	9	San Antonio Palopo	10	Octubre	2023-10-30T00:00:00	2024-11-08T01:00:00	8	Radiación solar	0
16065	7	Sololá	712	San Antonio Palopó	9	San Antonio Palopo	10	Octubre	2023-10-30T00:00:00	2024-11-08T02:00:00	2	Temperatura media	19.7
16066	7	Sololá	712	San Antonio Palopó	9	San Antonio Palopo	10	Octubre	2023-10-30T00:00:00	2024-11-08T02:00:00	4	Temperatura máxima	19.7
16067	7	Sololá	712	San Antonio Palopó	9	San Antonio Palopo	10	Octubre	2023-10-30T00:00:00	2024-11-08T02:00:00	3	Temperatura mínima	19.3
16068	7	Sololá	712	San Antonio Palopó	9	San Antonio Palopo	10	Octubre	2023-10-30T00:00:00	2024-11-08T02:00:00	5	Humedad	73
16069	7	Sololá	712	San Antonio Palopó	9	San Antonio Palopo	10	Octubre	2023-10-30T00:00:00	2024-11-08T02:00:00	6	Velocidad del viento	6.4
16070	7	Sololá	712	San Antonio Palopó	9	San Antonio Palopo	10	Octubre	2023-10-30T00:00:00	2024-11-08T02:00:00	7	Dirección del viento	6.44
16071	7	Sololá	712	San Antonio Palopó	9	San Antonio Palopo	10	Octubre	2023-10-30T00:00:00	2024-11-08T02:00:00	1	Precipitación	0
16072	7	Sololá	712	San Antonio Palopó	9	San Antonio Palopo	10	Octubre	2023-10-30T00:00:00	2024-11-08T02:00:00	8	Radiación solar	0
16073	7	Sololá	712	San Antonio Palopó	9	San Antonio Palopo	10	Octubre	2023-10-30T00:00:00	2024-11-08T03:00:00	2	Temperatura media	19.5
16074	7	Sololá	712	San Antonio Palopó	9	San Antonio Palopo	10	Octubre	2023-10-30T00:00:00	2024-11-08T03:00:00	4	Temperatura máxima	19.7
16075	7	Sololá	712	San Antonio Palopó	9	San Antonio Palopo	10	Octubre	2023-10-30T00:00:00	2024-11-08T03:00:00	3	Temperatura mínima	19.4
16076	7	Sololá	712	San Antonio Palopó	9	San Antonio Palopo	10	Octubre	2023-10-30T00:00:00	2024-11-08T03:00:00	5	Humedad	74
16077	7	Sololá	712	San Antonio Palopó	9	San Antonio Palopo	10	Octubre	2023-10-30T00:00:00	2024-11-08T03:00:00	6	Velocidad del viento	8
16078	7	Sololá	712	San Antonio Palopó	9	San Antonio Palopo	10	Octubre	2023-10-30T00:00:00	2024-11-08T03:00:00	7	Dirección del viento	8.05
16079	7	Sololá	712	San Antonio Palopó	9	San Antonio Palopo	10	Octubre	2023-10-30T00:00:00	2024-11-08T03:00:00	1	Precipitación	0
16080	7	Sololá	712	San Antonio Palopó	9	San Antonio Palopo	10	Octubre	2023-10-30T00:00:00	2024-11-08T03:00:00	8	Radiación solar	0
16081	7	Sololá	712	San Antonio Palopó	9	San Antonio Palopo	10	Octubre	2023-10-30T00:00:00	2024-11-08T04:00:00	2	Temperatura media	19.5
16082	7	Sololá	712	San Antonio Palopó	9	San Antonio Palopo	10	Octubre	2023-10-30T00:00:00	2024-11-08T04:00:00	4	Temperatura máxima	19.6
16083	7	Sololá	712	San Antonio Palopó	9	San Antonio Palopo	10	Octubre	2023-10-30T00:00:00	2024-11-08T04:00:00	3	Temperatura mínima	19.3
16084	7	Sololá	712	San Antonio Palopó	9	San Antonio Palopo	10	Octubre	2023-10-30T00:00:00	2024-11-08T04:00:00	5	Humedad	74
16085	7	Sololá	712	San Antonio Palopó	9	San Antonio Palopo	10	Octubre	2023-10-30T00:00:00	2024-11-08T04:00:00	6	Velocidad del viento	6.4
16086	7	Sololá	712	San Antonio Palopó	9	San Antonio Palopo	10	Octubre	2023-10-30T00:00:00	2024-11-08T04:00:00	7	Dirección del viento	6.44
16087	7	Sololá	712	San Antonio Palopó	9	San Antonio Palopo	10	Octubre	2023-10-30T00:00:00	2024-11-08T04:00:00	1	Precipitación	0
16088	7	Sololá	712	San Antonio Palopó	9	San Antonio Palopo	10	Octubre	2023-10-30T00:00:00	2024-11-08T04:00:00	8	Radiación solar	0
16089	7	Sololá	712	San Antonio Palopó	9	San Antonio Palopo	10	Octubre	2023-10-30T00:00:00	2024-11-08T05:00:00	2	Temperatura media	19.6
16090	7	Sololá	712	San Antonio Palopó	9	San Antonio Palopo	10	Octubre	2023-10-30T00:00:00	2024-11-08T05:00:00	4	Temperatura máxima	19.6
16091	7	Sololá	712	San Antonio Palopó	9	San Antonio Palopo	10	Octubre	2023-10-30T00:00:00	2024-11-08T05:00:00	3	Temperatura mínima	18.9
16092	7	Sololá	712	San Antonio Palopó	9	San Antonio Palopo	10	Octubre	2023-10-30T00:00:00	2024-11-08T05:00:00	5	Humedad	74
16093	7	Sololá	712	San Antonio Palopó	9	San Antonio Palopo	10	Octubre	2023-10-30T00:00:00	2024-11-08T05:00:00	6	Velocidad del viento	4.8
16094	7	Sololá	712	San Antonio Palopó	9	San Antonio Palopo	10	Octubre	2023-10-30T00:00:00	2024-11-08T05:00:00	7	Dirección del viento	4.83
16095	7	Sololá	712	San Antonio Palopó	9	San Antonio Palopo	10	Octubre	2023-10-30T00:00:00	2024-11-08T05:00:00	1	Precipitación	0
16096	7	Sololá	712	San Antonio Palopó	9	San Antonio Palopo	10	Octubre	2023-10-30T00:00:00	2024-11-08T05:00:00	8	Radiación solar	0
16097	7	Sololá	712	San Antonio Palopó	9	San Antonio Palopo	10	Octubre	2023-10-30T00:00:00	2024-11-08T06:00:00	2	Temperatura media	19.4
16098	7	Sololá	712	San Antonio Palopó	9	San Antonio Palopo	10	Octubre	2023-10-30T00:00:00	2024-11-08T06:00:00	4	Temperatura máxima	19.8
16099	7	Sololá	712	San Antonio Palopó	9	San Antonio Palopo	10	Octubre	2023-10-30T00:00:00	2024-11-08T06:00:00	3	Temperatura mínima	19.4
16100	7	Sololá	712	San Antonio Palopó	9	San Antonio Palopo	10	Octubre	2023-10-30T00:00:00	2024-11-08T06:00:00	5	Humedad	74
16101	7	Sololá	712	San Antonio Palopó	9	San Antonio Palopo	10	Octubre	2023-10-30T00:00:00	2024-11-08T06:00:00	6	Velocidad del viento	8
16102	7	Sololá	712	San Antonio Palopó	9	San Antonio Palopo	10	Octubre	2023-10-30T00:00:00	2024-11-08T06:00:00	7	Dirección del viento	8.05
16103	7	Sololá	712	San Antonio Palopó	9	San Antonio Palopo	10	Octubre	2023-10-30T00:00:00	2024-11-08T06:00:00	1	Precipitación	0
16104	7	Sololá	712	San Antonio Palopó	9	San Antonio Palopo	10	Octubre	2023-10-30T00:00:00	2024-11-08T06:00:00	8	Radiación solar	0
16105	7	Sololá	712	San Antonio Palopó	9	San Antonio Palopo	10	Octubre	2023-10-30T00:00:00	2024-11-08T07:00:00	2	Temperatura media	19.6
16106	7	Sololá	712	San Antonio Palopó	9	San Antonio Palopo	10	Octubre	2023-10-30T00:00:00	2024-11-08T07:00:00	4	Temperatura máxima	19.7
16107	7	Sololá	712	San Antonio Palopó	9	San Antonio Palopo	10	Octubre	2023-10-30T00:00:00	2024-11-08T07:00:00	3	Temperatura mínima	19.3
16108	7	Sololá	712	San Antonio Palopó	9	San Antonio Palopo	10	Octubre	2023-10-30T00:00:00	2024-11-08T07:00:00	5	Humedad	74
16109	7	Sololá	712	San Antonio Palopó	9	San Antonio Palopo	10	Octubre	2023-10-30T00:00:00	2024-11-08T07:00:00	6	Velocidad del viento	11.3
16110	7	Sololá	712	San Antonio Palopó	9	San Antonio Palopo	10	Octubre	2023-10-30T00:00:00	2024-11-08T07:00:00	7	Dirección del viento	11.27
16111	7	Sololá	712	San Antonio Palopó	9	San Antonio Palopo	10	Octubre	2023-10-30T00:00:00	2024-11-08T07:00:00	1	Precipitación	0
16112	7	Sololá	712	San Antonio Palopó	9	San Antonio Palopo	10	Octubre	2023-10-30T00:00:00	2024-11-08T07:00:00	8	Radiación solar	36
16113	7	Sololá	712	San Antonio Palopó	9	San Antonio Palopo	10	Octubre	2023-10-30T00:00:00	2024-11-08T08:00:00	2	Temperatura media	20.2
16114	7	Sololá	712	San Antonio Palopó	9	San Antonio Palopo	10	Octubre	2023-10-30T00:00:00	2024-11-08T08:00:00	4	Temperatura máxima	20.2
16115	7	Sololá	712	San Antonio Palopó	9	San Antonio Palopo	10	Octubre	2023-10-30T00:00:00	2024-11-08T08:00:00	3	Temperatura mínima	19.6
16116	7	Sololá	712	San Antonio Palopó	9	San Antonio Palopo	10	Octubre	2023-10-30T00:00:00	2024-11-08T08:00:00	5	Humedad	71
16117	7	Sololá	712	San Antonio Palopó	9	San Antonio Palopo	10	Octubre	2023-10-30T00:00:00	2024-11-08T08:00:00	6	Velocidad del viento	4.8
16118	7	Sololá	712	San Antonio Palopó	9	San Antonio Palopo	10	Octubre	2023-10-30T00:00:00	2024-11-08T08:00:00	7	Dirección del viento	4.83
16119	7	Sololá	712	San Antonio Palopó	9	San Antonio Palopo	10	Octubre	2023-10-30T00:00:00	2024-11-08T08:00:00	1	Precipitación	0
16120	7	Sololá	712	San Antonio Palopó	9	San Antonio Palopo	10	Octubre	2023-10-30T00:00:00	2024-11-08T08:00:00	8	Radiación solar	71
16121	7	Sololá	712	San Antonio Palopó	9	San Antonio Palopo	10	Octubre	2023-10-30T00:00:00	2024-11-08T09:00:00	2	Temperatura media	21.7
16122	7	Sololá	712	San Antonio Palopó	9	San Antonio Palopo	10	Octubre	2023-10-30T00:00:00	2024-11-08T09:00:00	4	Temperatura máxima	21.8
16123	7	Sololá	712	San Antonio Palopó	9	San Antonio Palopo	10	Octubre	2023-10-30T00:00:00	2024-11-08T09:00:00	3	Temperatura mínima	20.2
16124	7	Sololá	712	San Antonio Palopó	9	San Antonio Palopo	10	Octubre	2023-10-30T00:00:00	2024-11-08T09:00:00	5	Humedad	66
16125	7	Sololá	712	San Antonio Palopó	9	San Antonio Palopo	10	Octubre	2023-10-30T00:00:00	2024-11-08T09:00:00	6	Velocidad del viento	4.8
16126	7	Sololá	712	San Antonio Palopó	9	San Antonio Palopo	10	Octubre	2023-10-30T00:00:00	2024-11-08T09:00:00	7	Dirección del viento	4.83
16127	7	Sololá	712	San Antonio Palopó	9	San Antonio Palopo	10	Octubre	2023-10-30T00:00:00	2024-11-08T09:00:00	1	Precipitación	0
16128	7	Sololá	712	San Antonio Palopó	9	San Antonio Palopo	10	Octubre	2023-10-30T00:00:00	2024-11-08T09:00:00	8	Radiación solar	208
16129	7	Sololá	712	San Antonio Palopó	9	San Antonio Palopo	10	Octubre	2023-10-30T00:00:00	2024-11-08T10:00:00	2	Temperatura media	22.4
16130	7	Sololá	712	San Antonio Palopó	9	San Antonio Palopo	10	Octubre	2023-10-30T00:00:00	2024-11-08T10:00:00	4	Temperatura máxima	22.8
16131	7	Sololá	712	San Antonio Palopó	9	San Antonio Palopo	10	Octubre	2023-10-30T00:00:00	2024-11-08T10:00:00	3	Temperatura mínima	21.8
16132	7	Sololá	712	San Antonio Palopó	9	San Antonio Palopo	10	Octubre	2023-10-30T00:00:00	2024-11-08T10:00:00	5	Humedad	63
16133	7	Sololá	712	San Antonio Palopó	9	San Antonio Palopo	10	Octubre	2023-10-30T00:00:00	2024-11-08T10:00:00	6	Velocidad del viento	4.8
16134	7	Sololá	712	San Antonio Palopó	9	San Antonio Palopo	10	Octubre	2023-10-30T00:00:00	2024-11-08T10:00:00	7	Dirección del viento	4.83
16135	7	Sololá	712	San Antonio Palopó	9	San Antonio Palopo	10	Octubre	2023-10-30T00:00:00	2024-11-08T10:00:00	1	Precipitación	0
16136	7	Sololá	712	San Antonio Palopó	9	San Antonio Palopo	10	Octubre	2023-10-30T00:00:00	2024-11-08T10:00:00	8	Radiación solar	312
16137	7	Sololá	712	San Antonio Palopó	9	San Antonio Palopo	10	Octubre	2023-10-30T00:00:00	2024-11-08T11:00:00	2	Temperatura media	23.2
16138	7	Sololá	712	San Antonio Palopó	9	San Antonio Palopo	10	Octubre	2023-10-30T00:00:00	2024-11-08T11:00:00	4	Temperatura máxima	23.2
16139	7	Sololá	712	San Antonio Palopó	9	San Antonio Palopo	10	Octubre	2023-10-30T00:00:00	2024-11-08T11:00:00	3	Temperatura mínima	22.4
16140	7	Sololá	712	San Antonio Palopó	9	San Antonio Palopo	10	Octubre	2023-10-30T00:00:00	2024-11-08T11:00:00	5	Humedad	63
16141	7	Sololá	712	San Antonio Palopó	9	San Antonio Palopo	10	Octubre	2023-10-30T00:00:00	2024-11-08T11:00:00	6	Velocidad del viento	4.8
16142	7	Sololá	712	San Antonio Palopó	9	San Antonio Palopo	10	Octubre	2023-10-30T00:00:00	2024-11-08T11:00:00	7	Dirección del viento	4.83
16143	7	Sololá	712	San Antonio Palopó	9	San Antonio Palopo	10	Octubre	2023-10-30T00:00:00	2024-11-08T11:00:00	1	Precipitación	0
16144	7	Sololá	712	San Antonio Palopó	9	San Antonio Palopo	10	Octubre	2023-10-30T00:00:00	2024-11-08T11:00:00	8	Radiación solar	260
16145	7	Sololá	712	San Antonio Palopó	9	San Antonio Palopo	10	Octubre	2023-10-30T00:00:00	2024-11-08T12:00:00	2	Temperatura media	24.1
16146	7	Sololá	712	San Antonio Palopó	9	San Antonio Palopo	10	Octubre	2023-10-30T00:00:00	2024-11-08T12:00:00	4	Temperatura máxima	24.6
16147	7	Sololá	712	San Antonio Palopó	9	San Antonio Palopo	10	Octubre	2023-10-30T00:00:00	2024-11-08T12:00:00	3	Temperatura mínima	23.2
16148	7	Sololá	712	San Antonio Palopó	9	San Antonio Palopo	10	Octubre	2023-10-30T00:00:00	2024-11-08T12:00:00	5	Humedad	62
16149	7	Sololá	712	San Antonio Palopó	9	San Antonio Palopo	10	Octubre	2023-10-30T00:00:00	2024-11-08T12:00:00	6	Velocidad del viento	6.4
16150	7	Sololá	712	San Antonio Palopó	9	San Antonio Palopo	10	Octubre	2023-10-30T00:00:00	2024-11-08T12:00:00	7	Dirección del viento	6.44
16151	7	Sololá	712	San Antonio Palopó	9	San Antonio Palopo	10	Octubre	2023-10-30T00:00:00	2024-11-08T12:00:00	1	Precipitación	0
16152	7	Sololá	712	San Antonio Palopó	9	San Antonio Palopo	10	Octubre	2023-10-30T00:00:00	2024-11-08T12:00:00	8	Radiación solar	578
16153	7	Sololá	712	San Antonio Palopó	9	San Antonio Palopo	10	Octubre	2023-10-30T00:00:00	2024-11-08T13:00:00	2	Temperatura media	25.3
16154	7	Sololá	712	San Antonio Palopó	9	San Antonio Palopo	10	Octubre	2023-10-30T00:00:00	2024-11-08T13:00:00	4	Temperatura máxima	26.3
16155	7	Sololá	712	San Antonio Palopó	9	San Antonio Palopo	10	Octubre	2023-10-30T00:00:00	2024-11-08T13:00:00	3	Temperatura mínima	24.1
16156	7	Sololá	712	San Antonio Palopó	9	San Antonio Palopo	10	Octubre	2023-10-30T00:00:00	2024-11-08T13:00:00	5	Humedad	54
16157	7	Sololá	712	San Antonio Palopó	9	San Antonio Palopo	10	Octubre	2023-10-30T00:00:00	2024-11-08T13:00:00	6	Velocidad del viento	6.4
16158	7	Sololá	712	San Antonio Palopó	9	San Antonio Palopo	10	Octubre	2023-10-30T00:00:00	2024-11-08T13:00:00	7	Dirección del viento	6.44
16159	7	Sololá	712	San Antonio Palopó	9	San Antonio Palopo	10	Octubre	2023-10-30T00:00:00	2024-11-08T13:00:00	1	Precipitación	0
16160	7	Sololá	712	San Antonio Palopó	9	San Antonio Palopo	10	Octubre	2023-10-30T00:00:00	2024-11-08T13:00:00	8	Radiación solar	834
16161	7	Sololá	712	San Antonio Palopó	9	San Antonio Palopo	10	Octubre	2023-10-30T00:00:00	2024-11-08T14:00:00	2	Temperatura media	23.1
16162	7	Sololá	712	San Antonio Palopó	9	San Antonio Palopo	10	Octubre	2023-10-30T00:00:00	2024-11-08T14:00:00	4	Temperatura máxima	25.4
16163	7	Sololá	712	San Antonio Palopó	9	San Antonio Palopo	10	Octubre	2023-10-30T00:00:00	2024-11-08T14:00:00	3	Temperatura mínima	23.1
16164	7	Sololá	712	San Antonio Palopó	9	San Antonio Palopo	10	Octubre	2023-10-30T00:00:00	2024-11-08T14:00:00	5	Humedad	71
16165	7	Sololá	712	San Antonio Palopó	9	San Antonio Palopo	10	Octubre	2023-10-30T00:00:00	2024-11-08T14:00:00	6	Velocidad del viento	9.7
16166	7	Sololá	712	San Antonio Palopó	9	San Antonio Palopo	10	Octubre	2023-10-30T00:00:00	2024-11-08T14:00:00	7	Dirección del viento	9.66
16167	7	Sololá	712	San Antonio Palopó	9	San Antonio Palopo	10	Octubre	2023-10-30T00:00:00	2024-11-08T14:00:00	1	Precipitación	0
16168	7	Sololá	712	San Antonio Palopó	9	San Antonio Palopo	10	Octubre	2023-10-30T00:00:00	2024-11-08T14:00:00	8	Radiación solar	390
16169	7	Sololá	712	San Antonio Palopó	9	San Antonio Palopo	10	Octubre	2023-10-30T00:00:00	2024-11-08T15:00:00	2	Temperatura media	22.8
16170	7	Sololá	712	San Antonio Palopó	9	San Antonio Palopo	10	Octubre	2023-10-30T00:00:00	2024-11-08T15:00:00	4	Temperatura máxima	23.1
16171	7	Sololá	712	San Antonio Palopó	9	San Antonio Palopo	10	Octubre	2023-10-30T00:00:00	2024-11-08T15:00:00	3	Temperatura mínima	22.1
16172	7	Sololá	712	San Antonio Palopó	9	San Antonio Palopo	10	Octubre	2023-10-30T00:00:00	2024-11-08T15:00:00	5	Humedad	71
16173	7	Sololá	712	San Antonio Palopó	9	San Antonio Palopo	10	Octubre	2023-10-30T00:00:00	2024-11-08T15:00:00	6	Velocidad del viento	8
16174	7	Sololá	712	San Antonio Palopó	9	San Antonio Palopo	10	Octubre	2023-10-30T00:00:00	2024-11-08T15:00:00	7	Dirección del viento	8.05
16175	7	Sololá	712	San Antonio Palopó	9	San Antonio Palopo	10	Octubre	2023-10-30T00:00:00	2024-11-08T15:00:00	1	Precipitación	0
16176	7	Sololá	712	San Antonio Palopó	9	San Antonio Palopo	10	Octubre	2023-10-30T00:00:00	2024-11-08T15:00:00	8	Radiación solar	183
16177	7	Sololá	712	San Antonio Palopó	9	San Antonio Palopo	10	Octubre	2023-10-30T00:00:00	2024-11-08T16:00:00	2	Temperatura media	23.9
16178	7	Sololá	712	San Antonio Palopó	9	San Antonio Palopo	10	Octubre	2023-10-30T00:00:00	2024-11-08T16:00:00	4	Temperatura máxima	23.9
16179	7	Sololá	712	San Antonio Palopó	9	San Antonio Palopo	10	Octubre	2023-10-30T00:00:00	2024-11-08T16:00:00	3	Temperatura mínima	22.8
16180	7	Sololá	712	San Antonio Palopó	9	San Antonio Palopo	10	Octubre	2023-10-30T00:00:00	2024-11-08T16:00:00	5	Humedad	57
16181	7	Sololá	712	San Antonio Palopó	9	San Antonio Palopo	10	Octubre	2023-10-30T00:00:00	2024-11-08T16:00:00	6	Velocidad del viento	3.2
16182	7	Sololá	712	San Antonio Palopó	9	San Antonio Palopo	10	Octubre	2023-10-30T00:00:00	2024-11-08T16:00:00	7	Dirección del viento	3.22
16183	7	Sololá	712	San Antonio Palopó	9	San Antonio Palopo	10	Octubre	2023-10-30T00:00:00	2024-11-08T16:00:00	1	Precipitación	0
16184	7	Sololá	712	San Antonio Palopó	9	San Antonio Palopo	10	Octubre	2023-10-30T00:00:00	2024-11-08T16:00:00	8	Radiación solar	225
16185	7	Sololá	712	San Antonio Palopó	9	San Antonio Palopo	10	Octubre	2023-10-30T00:00:00	2024-11-08T17:00:00	2	Temperatura media	24.1
16186	7	Sololá	712	San Antonio Palopó	9	San Antonio Palopo	10	Octubre	2023-10-30T00:00:00	2024-11-08T17:00:00	4	Temperatura máxima	24.4
16187	7	Sololá	712	San Antonio Palopó	9	San Antonio Palopo	10	Octubre	2023-10-30T00:00:00	2024-11-08T17:00:00	3	Temperatura mínima	24
16188	7	Sololá	712	San Antonio Palopó	9	San Antonio Palopo	10	Octubre	2023-10-30T00:00:00	2024-11-08T17:00:00	5	Humedad	58
16189	7	Sololá	712	San Antonio Palopó	9	San Antonio Palopo	10	Octubre	2023-10-30T00:00:00	2024-11-08T17:00:00	6	Velocidad del viento	9.7
16190	7	Sololá	712	San Antonio Palopó	9	San Antonio Palopo	10	Octubre	2023-10-30T00:00:00	2024-11-08T17:00:00	7	Dirección del viento	9.66
16191	7	Sololá	712	San Antonio Palopó	9	San Antonio Palopo	10	Octubre	2023-10-30T00:00:00	2024-11-08T17:00:00	1	Precipitación	0
16192	7	Sololá	712	San Antonio Palopó	9	San Antonio Palopo	10	Octubre	2023-10-30T00:00:00	2024-11-08T17:00:00	8	Radiación solar	165
16193	7	Sololá	712	San Antonio Palopó	9	San Antonio Palopo	10	Octubre	2023-10-30T00:00:00	2024-11-08T18:00:00	2	Temperatura media	21.6
16194	7	Sololá	712	San Antonio Palopó	9	San Antonio Palopo	10	Octubre	2023-10-30T00:00:00	2024-11-08T18:00:00	4	Temperatura máxima	24.1
16195	7	Sololá	712	San Antonio Palopó	9	San Antonio Palopo	10	Octubre	2023-10-30T00:00:00	2024-11-08T18:00:00	3	Temperatura mínima	21.6
16196	7	Sololá	712	San Antonio Palopó	9	San Antonio Palopo	10	Octubre	2023-10-30T00:00:00	2024-11-08T18:00:00	5	Humedad	65
16197	7	Sololá	712	San Antonio Palopó	9	San Antonio Palopo	10	Octubre	2023-10-30T00:00:00	2024-11-08T18:00:00	6	Velocidad del viento	4.8
16198	7	Sololá	712	San Antonio Palopó	9	San Antonio Palopo	10	Octubre	2023-10-30T00:00:00	2024-11-08T18:00:00	7	Dirección del viento	4.83
16199	7	Sololá	712	San Antonio Palopó	9	San Antonio Palopo	10	Octubre	2023-10-30T00:00:00	2024-11-08T18:00:00	1	Precipitación	0
16200	7	Sololá	712	San Antonio Palopó	9	San Antonio Palopo	10	Octubre	2023-10-30T00:00:00	2024-11-08T18:00:00	8	Radiación solar	10
16201	7	Sololá	712	San Antonio Palopó	9	San Antonio Palopo	10	Octubre	2023-10-30T00:00:00	2024-11-08T19:00:00	2	Temperatura media	20.6
16202	7	Sololá	712	San Antonio Palopó	9	San Antonio Palopo	10	Octubre	2023-10-30T00:00:00	2024-11-08T19:00:00	4	Temperatura máxima	21.6
16203	7	Sololá	712	San Antonio Palopó	9	San Antonio Palopo	10	Octubre	2023-10-30T00:00:00	2024-11-08T19:00:00	3	Temperatura mínima	20.6
16204	7	Sololá	712	San Antonio Palopó	9	San Antonio Palopo	10	Octubre	2023-10-30T00:00:00	2024-11-08T19:00:00	5	Humedad	67
16205	7	Sololá	712	San Antonio Palopó	9	San Antonio Palopo	10	Octubre	2023-10-30T00:00:00	2024-11-08T19:00:00	6	Velocidad del viento	3.2
16206	7	Sololá	712	San Antonio Palopó	9	San Antonio Palopo	10	Octubre	2023-10-30T00:00:00	2024-11-08T19:00:00	7	Dirección del viento	3.22
16207	7	Sololá	712	San Antonio Palopó	9	San Antonio Palopo	10	Octubre	2023-10-30T00:00:00	2024-11-08T19:00:00	1	Precipitación	0
16208	7	Sololá	712	San Antonio Palopó	9	San Antonio Palopo	10	Octubre	2023-10-30T00:00:00	2024-11-08T19:00:00	8	Radiación solar	0
16209	7	Sololá	712	San Antonio Palopó	9	San Antonio Palopo	10	Octubre	2023-10-30T00:00:00	2024-11-08T20:00:00	2	Temperatura media	20.6
16210	7	Sololá	712	San Antonio Palopó	9	San Antonio Palopo	10	Octubre	2023-10-30T00:00:00	2024-11-08T20:00:00	4	Temperatura máxima	20.7
16211	7	Sololá	712	San Antonio Palopó	9	San Antonio Palopo	10	Octubre	2023-10-30T00:00:00	2024-11-08T20:00:00	3	Temperatura mínima	20.4
16212	7	Sololá	712	San Antonio Palopó	9	San Antonio Palopo	10	Octubre	2023-10-30T00:00:00	2024-11-08T20:00:00	5	Humedad	64
16213	7	Sololá	712	San Antonio Palopó	9	San Antonio Palopo	10	Octubre	2023-10-30T00:00:00	2024-11-08T20:00:00	6	Velocidad del viento	6.4
16214	7	Sololá	712	San Antonio Palopó	9	San Antonio Palopo	10	Octubre	2023-10-30T00:00:00	2024-11-08T20:00:00	7	Dirección del viento	6.44
16215	7	Sololá	712	San Antonio Palopó	9	San Antonio Palopo	10	Octubre	2023-10-30T00:00:00	2024-11-08T20:00:00	1	Precipitación	0
16216	7	Sololá	712	San Antonio Palopó	9	San Antonio Palopo	10	Octubre	2023-10-30T00:00:00	2024-11-08T20:00:00	8	Radiación solar	0
16217	7	Sololá	712	San Antonio Palopó	9	San Antonio Palopo	10	Octubre	2023-10-30T00:00:00	2024-11-08T21:00:00	2	Temperatura media	20.3
16218	7	Sololá	712	San Antonio Palopó	9	San Antonio Palopo	10	Octubre	2023-10-30T00:00:00	2024-11-08T21:00:00	4	Temperatura máxima	20.6
16219	7	Sololá	712	San Antonio Palopó	9	San Antonio Palopo	10	Octubre	2023-10-30T00:00:00	2024-11-08T21:00:00	3	Temperatura mínima	20.2
16220	7	Sololá	712	San Antonio Palopó	9	San Antonio Palopo	10	Octubre	2023-10-30T00:00:00	2024-11-08T21:00:00	5	Humedad	66
16221	7	Sololá	712	San Antonio Palopó	9	San Antonio Palopo	10	Octubre	2023-10-30T00:00:00	2024-11-08T21:00:00	6	Velocidad del viento	4.8
16222	7	Sololá	712	San Antonio Palopó	9	San Antonio Palopo	10	Octubre	2023-10-30T00:00:00	2024-11-08T21:00:00	7	Dirección del viento	4.83
16223	7	Sololá	712	San Antonio Palopó	9	San Antonio Palopo	10	Octubre	2023-10-30T00:00:00	2024-11-08T21:00:00	1	Precipitación	0
16224	7	Sololá	712	San Antonio Palopó	9	San Antonio Palopo	10	Octubre	2023-10-30T00:00:00	2024-11-08T21:00:00	8	Radiación solar	0
16225	7	Sololá	712	San Antonio Palopó	9	San Antonio Palopo	10	Octubre	2023-10-30T00:00:00	2024-11-08T22:00:00	2	Temperatura media	20.6
16226	7	Sololá	712	San Antonio Palopó	9	San Antonio Palopo	10	Octubre	2023-10-30T00:00:00	2024-11-08T22:00:00	4	Temperatura máxima	20.6
16227	7	Sololá	712	San Antonio Palopó	9	San Antonio Palopo	10	Octubre	2023-10-30T00:00:00	2024-11-08T22:00:00	3	Temperatura mínima	20.2
16228	7	Sololá	712	San Antonio Palopó	9	San Antonio Palopo	10	Octubre	2023-10-30T00:00:00	2024-11-08T22:00:00	5	Humedad	62
16229	7	Sololá	712	San Antonio Palopó	9	San Antonio Palopo	10	Octubre	2023-10-30T00:00:00	2024-11-08T22:00:00	6	Velocidad del viento	4.8
16230	7	Sololá	712	San Antonio Palopó	9	San Antonio Palopo	10	Octubre	2023-10-30T00:00:00	2024-11-08T22:00:00	7	Dirección del viento	4.83
16231	7	Sololá	712	San Antonio Palopó	9	San Antonio Palopo	10	Octubre	2023-10-30T00:00:00	2024-11-08T22:00:00	1	Precipitación	0
16232	7	Sololá	712	San Antonio Palopó	9	San Antonio Palopo	10	Octubre	2023-10-30T00:00:00	2024-11-08T22:00:00	8	Radiación solar	0
16233	7	Sololá	712	San Antonio Palopó	9	San Antonio Palopo	10	Octubre	2023-10-30T00:00:00	2024-11-08T23:00:00	2	Temperatura media	20.3
16234	7	Sololá	712	San Antonio Palopó	9	San Antonio Palopo	10	Octubre	2023-10-30T00:00:00	2024-11-08T23:00:00	4	Temperatura máxima	20.7
16235	7	Sololá	712	San Antonio Palopó	9	San Antonio Palopo	10	Octubre	2023-10-30T00:00:00	2024-11-08T23:00:00	3	Temperatura mínima	20.3
16236	7	Sololá	712	San Antonio Palopó	9	San Antonio Palopo	10	Octubre	2023-10-30T00:00:00	2024-11-08T23:00:00	5	Humedad	62
16237	7	Sololá	712	San Antonio Palopó	9	San Antonio Palopo	10	Octubre	2023-10-30T00:00:00	2024-11-08T23:00:00	6	Velocidad del viento	8
16238	7	Sololá	712	San Antonio Palopó	9	San Antonio Palopo	10	Octubre	2023-10-30T00:00:00	2024-11-08T23:00:00	7	Dirección del viento	8.05
16239	7	Sololá	712	San Antonio Palopó	9	San Antonio Palopo	10	Octubre	2023-10-30T00:00:00	2024-11-08T23:00:00	1	Precipitación	0
16240	7	Sololá	712	San Antonio Palopó	9	San Antonio Palopo	10	Octubre	2023-10-30T00:00:00	2024-11-08T23:00:00	8	Radiación solar	0
16241	7	Sololá	712	San Antonio Palopó	9	San Antonio Palopo	10	Octubre	2023-10-31T00:00:00	2024-11-08T00:00:00	2	Temperatura media	19.6
16242	7	Sololá	712	San Antonio Palopó	9	San Antonio Palopo	10	Octubre	2023-10-31T00:00:00	2024-11-08T00:00:00	4	Temperatura máxima	20.4
16243	7	Sololá	712	San Antonio Palopó	9	San Antonio Palopo	10	Octubre	2023-10-31T00:00:00	2024-11-08T00:00:00	3	Temperatura mínima	19.6
16244	7	Sololá	712	San Antonio Palopó	9	San Antonio Palopo	10	Octubre	2023-10-31T00:00:00	2024-11-08T00:00:00	5	Humedad	65
16245	7	Sololá	712	San Antonio Palopó	9	San Antonio Palopo	10	Octubre	2023-10-31T00:00:00	2024-11-08T00:00:00	6	Velocidad del viento	4.8
16246	7	Sololá	712	San Antonio Palopó	9	San Antonio Palopo	10	Octubre	2023-10-31T00:00:00	2024-11-08T00:00:00	7	Dirección del viento	4.83
16247	7	Sololá	712	San Antonio Palopó	9	San Antonio Palopo	10	Octubre	2023-10-31T00:00:00	2024-11-08T00:00:00	1	Precipitación	0
16248	7	Sololá	712	San Antonio Palopó	9	San Antonio Palopo	10	Octubre	2023-10-31T00:00:00	2024-11-08T00:00:00	8	Radiación solar	0
16249	7	Sololá	712	San Antonio Palopó	9	San Antonio Palopo	10	Octubre	2023-10-31T00:00:00	2024-11-08T01:00:00	2	Temperatura media	20.3
16250	7	Sololá	712	San Antonio Palopó	9	San Antonio Palopo	10	Octubre	2023-10-31T00:00:00	2024-11-08T01:00:00	4	Temperatura máxima	20.3
16251	7	Sololá	712	San Antonio Palopó	9	San Antonio Palopo	10	Octubre	2023-10-31T00:00:00	2024-11-08T01:00:00	3	Temperatura mínima	19.4
16252	7	Sololá	712	San Antonio Palopó	9	San Antonio Palopo	10	Octubre	2023-10-31T00:00:00	2024-11-08T01:00:00	5	Humedad	61
16253	7	Sololá	712	San Antonio Palopó	9	San Antonio Palopo	10	Octubre	2023-10-31T00:00:00	2024-11-08T01:00:00	6	Velocidad del viento	14.5
16254	7	Sololá	712	San Antonio Palopó	9	San Antonio Palopo	10	Octubre	2023-10-31T00:00:00	2024-11-08T01:00:00	7	Dirección del viento	14.48
16255	7	Sololá	712	San Antonio Palopó	9	San Antonio Palopo	10	Octubre	2023-10-31T00:00:00	2024-11-08T01:00:00	1	Precipitación	0
16256	7	Sololá	712	San Antonio Palopó	9	San Antonio Palopo	10	Octubre	2023-10-31T00:00:00	2024-11-08T01:00:00	8	Radiación solar	0
16257	7	Sololá	712	San Antonio Palopó	9	San Antonio Palopo	10	Octubre	2023-10-31T00:00:00	2024-11-08T02:00:00	2	Temperatura media	20
16258	7	Sololá	712	San Antonio Palopó	9	San Antonio Palopo	10	Octubre	2023-10-31T00:00:00	2024-11-08T02:00:00	4	Temperatura máxima	20.3
16259	7	Sololá	712	San Antonio Palopó	9	San Antonio Palopo	10	Octubre	2023-10-31T00:00:00	2024-11-08T02:00:00	3	Temperatura mínima	19.9
16260	7	Sololá	712	San Antonio Palopó	9	San Antonio Palopo	10	Octubre	2023-10-31T00:00:00	2024-11-08T02:00:00	5	Humedad	62
16261	7	Sololá	712	San Antonio Palopó	9	San Antonio Palopo	10	Octubre	2023-10-31T00:00:00	2024-11-08T02:00:00	6	Velocidad del viento	14.5
16262	7	Sololá	712	San Antonio Palopó	9	San Antonio Palopo	10	Octubre	2023-10-31T00:00:00	2024-11-08T02:00:00	7	Dirección del viento	14.48
16263	7	Sololá	712	San Antonio Palopó	9	San Antonio Palopo	10	Octubre	2023-10-31T00:00:00	2024-11-08T02:00:00	1	Precipitación	0
16264	7	Sololá	712	San Antonio Palopó	9	San Antonio Palopo	10	Octubre	2023-10-31T00:00:00	2024-11-08T02:00:00	8	Radiación solar	0
16265	7	Sololá	712	San Antonio Palopó	9	San Antonio Palopo	10	Octubre	2023-10-31T00:00:00	2024-11-08T03:00:00	2	Temperatura media	19.8
16266	7	Sololá	712	San Antonio Palopó	9	San Antonio Palopo	10	Octubre	2023-10-31T00:00:00	2024-11-08T03:00:00	4	Temperatura máxima	20.1
16267	7	Sololá	712	San Antonio Palopó	9	San Antonio Palopo	10	Octubre	2023-10-31T00:00:00	2024-11-08T03:00:00	3	Temperatura mínima	19.8
16268	7	Sololá	712	San Antonio Palopó	9	San Antonio Palopo	10	Octubre	2023-10-31T00:00:00	2024-11-08T03:00:00	5	Humedad	62
16269	7	Sololá	712	San Antonio Palopó	9	San Antonio Palopo	10	Octubre	2023-10-31T00:00:00	2024-11-08T03:00:00	6	Velocidad del viento	12.9
16270	7	Sololá	712	San Antonio Palopó	9	San Antonio Palopo	10	Octubre	2023-10-31T00:00:00	2024-11-08T03:00:00	7	Dirección del viento	12.87
16271	7	Sololá	712	San Antonio Palopó	9	San Antonio Palopo	10	Octubre	2023-10-31T00:00:00	2024-11-08T03:00:00	1	Precipitación	0
16272	7	Sololá	712	San Antonio Palopó	9	San Antonio Palopo	10	Octubre	2023-10-31T00:00:00	2024-11-08T03:00:00	8	Radiación solar	0
16273	7	Sololá	712	San Antonio Palopó	9	San Antonio Palopo	10	Octubre	2023-10-31T00:00:00	2024-11-08T04:00:00	2	Temperatura media	19.7
16274	7	Sololá	712	San Antonio Palopó	9	San Antonio Palopo	10	Octubre	2023-10-31T00:00:00	2024-11-08T04:00:00	4	Temperatura máxima	19.9
16275	7	Sololá	712	San Antonio Palopó	9	San Antonio Palopo	10	Octubre	2023-10-31T00:00:00	2024-11-08T04:00:00	3	Temperatura mínima	19.6
16276	7	Sololá	712	San Antonio Palopó	9	San Antonio Palopo	10	Octubre	2023-10-31T00:00:00	2024-11-08T04:00:00	5	Humedad	62
16277	7	Sololá	712	San Antonio Palopó	9	San Antonio Palopo	10	Octubre	2023-10-31T00:00:00	2024-11-08T04:00:00	6	Velocidad del viento	8
16278	7	Sololá	712	San Antonio Palopó	9	San Antonio Palopo	10	Octubre	2023-10-31T00:00:00	2024-11-08T04:00:00	7	Dirección del viento	8.05
16279	7	Sololá	712	San Antonio Palopó	9	San Antonio Palopo	10	Octubre	2023-10-31T00:00:00	2024-11-08T04:00:00	1	Precipitación	0
16280	7	Sololá	712	San Antonio Palopó	9	San Antonio Palopo	10	Octubre	2023-10-31T00:00:00	2024-11-08T04:00:00	8	Radiación solar	0
16281	7	Sololá	712	San Antonio Palopó	9	San Antonio Palopo	10	Octubre	2023-10-31T00:00:00	2024-11-08T05:00:00	2	Temperatura media	19.9
16282	7	Sololá	712	San Antonio Palopó	9	San Antonio Palopo	10	Octubre	2023-10-31T00:00:00	2024-11-08T05:00:00	4	Temperatura máxima	20
16283	7	Sololá	712	San Antonio Palopó	9	San Antonio Palopo	10	Octubre	2023-10-31T00:00:00	2024-11-08T05:00:00	3	Temperatura mínima	19.6
16284	7	Sololá	712	San Antonio Palopó	9	San Antonio Palopo	10	Octubre	2023-10-31T00:00:00	2024-11-08T05:00:00	5	Humedad	59
16285	7	Sololá	712	San Antonio Palopó	9	San Antonio Palopo	10	Octubre	2023-10-31T00:00:00	2024-11-08T05:00:00	6	Velocidad del viento	14.5
16286	7	Sololá	712	San Antonio Palopó	9	San Antonio Palopo	10	Octubre	2023-10-31T00:00:00	2024-11-08T05:00:00	7	Dirección del viento	14.48
16287	7	Sololá	712	San Antonio Palopó	9	San Antonio Palopo	10	Octubre	2023-10-31T00:00:00	2024-11-08T05:00:00	1	Precipitación	0
16288	7	Sololá	712	San Antonio Palopó	9	San Antonio Palopo	10	Octubre	2023-10-31T00:00:00	2024-11-08T05:00:00	8	Radiación solar	0
16289	7	Sololá	712	San Antonio Palopó	9	San Antonio Palopo	10	Octubre	2023-10-31T00:00:00	2024-11-08T06:00:00	2	Temperatura media	19.4
16290	7	Sololá	712	San Antonio Palopó	9	San Antonio Palopo	10	Octubre	2023-10-31T00:00:00	2024-11-08T06:00:00	4	Temperatura máxima	20.2
16291	7	Sololá	712	San Antonio Palopó	9	San Antonio Palopo	10	Octubre	2023-10-31T00:00:00	2024-11-08T06:00:00	3	Temperatura mínima	19.3
16292	7	Sololá	712	San Antonio Palopó	9	San Antonio Palopo	10	Octubre	2023-10-31T00:00:00	2024-11-08T06:00:00	5	Humedad	62
16293	7	Sololá	712	San Antonio Palopó	9	San Antonio Palopo	10	Octubre	2023-10-31T00:00:00	2024-11-08T06:00:00	6	Velocidad del viento	9.7
16294	7	Sololá	712	San Antonio Palopó	9	San Antonio Palopo	10	Octubre	2023-10-31T00:00:00	2024-11-08T06:00:00	7	Dirección del viento	9.66
16295	7	Sololá	712	San Antonio Palopó	9	San Antonio Palopo	10	Octubre	2023-10-31T00:00:00	2024-11-08T06:00:00	1	Precipitación	0
16296	7	Sololá	712	San Antonio Palopó	9	San Antonio Palopo	10	Octubre	2023-10-31T00:00:00	2024-11-08T06:00:00	8	Radiación solar	0
16297	7	Sololá	712	San Antonio Palopó	9	San Antonio Palopo	10	Octubre	2023-10-31T00:00:00	2024-11-08T07:00:00	2	Temperatura media	19.7
16298	7	Sololá	712	San Antonio Palopó	9	San Antonio Palopo	10	Octubre	2023-10-31T00:00:00	2024-11-08T07:00:00	4	Temperatura máxima	19.7
16299	7	Sololá	712	San Antonio Palopó	9	San Antonio Palopo	10	Octubre	2023-10-31T00:00:00	2024-11-08T07:00:00	3	Temperatura mínima	19.2
16300	7	Sololá	712	San Antonio Palopó	9	San Antonio Palopo	10	Octubre	2023-10-31T00:00:00	2024-11-08T07:00:00	5	Humedad	63
16301	7	Sololá	712	San Antonio Palopó	9	San Antonio Palopo	10	Octubre	2023-10-31T00:00:00	2024-11-08T07:00:00	6	Velocidad del viento	11.3
16302	7	Sololá	712	San Antonio Palopó	9	San Antonio Palopo	10	Octubre	2023-10-31T00:00:00	2024-11-08T07:00:00	7	Dirección del viento	11.27
16303	7	Sololá	712	San Antonio Palopó	9	San Antonio Palopo	10	Octubre	2023-10-31T00:00:00	2024-11-08T07:00:00	1	Precipitación	0
16304	7	Sololá	712	San Antonio Palopó	9	San Antonio Palopo	10	Octubre	2023-10-31T00:00:00	2024-11-08T07:00:00	8	Radiación solar	10
16305	7	Sololá	712	San Antonio Palopó	9	San Antonio Palopo	10	Octubre	2023-10-31T00:00:00	2024-11-08T08:00:00	2	Temperatura media	20.3
16306	7	Sololá	712	San Antonio Palopó	9	San Antonio Palopo	10	Octubre	2023-10-31T00:00:00	2024-11-08T08:00:00	4	Temperatura máxima	20.3
16307	7	Sololá	712	San Antonio Palopó	9	San Antonio Palopo	10	Octubre	2023-10-31T00:00:00	2024-11-08T08:00:00	3	Temperatura mínima	19.6
16308	7	Sololá	712	San Antonio Palopó	9	San Antonio Palopo	10	Octubre	2023-10-31T00:00:00	2024-11-08T08:00:00	5	Humedad	61
16309	7	Sololá	712	San Antonio Palopó	9	San Antonio Palopo	10	Octubre	2023-10-31T00:00:00	2024-11-08T08:00:00	6	Velocidad del viento	9.7
16310	7	Sololá	712	San Antonio Palopó	9	San Antonio Palopo	10	Octubre	2023-10-31T00:00:00	2024-11-08T08:00:00	7	Dirección del viento	9.66
16311	7	Sololá	712	San Antonio Palopó	9	San Antonio Palopo	10	Octubre	2023-10-31T00:00:00	2024-11-08T08:00:00	1	Precipitación	0
16312	7	Sololá	712	San Antonio Palopó	9	San Antonio Palopo	10	Octubre	2023-10-31T00:00:00	2024-11-08T08:00:00	8	Radiación solar	82
16313	7	Sololá	712	San Antonio Palopó	9	San Antonio Palopo	10	Octubre	2023-10-31T00:00:00	2024-11-08T09:00:00	2	Temperatura media	21.3
16314	7	Sololá	712	San Antonio Palopó	9	San Antonio Palopo	10	Octubre	2023-10-31T00:00:00	2024-11-08T09:00:00	4	Temperatura máxima	21.3
16315	7	Sololá	712	San Antonio Palopó	9	San Antonio Palopo	10	Octubre	2023-10-31T00:00:00	2024-11-08T09:00:00	3	Temperatura mínima	20.3
16316	7	Sololá	712	San Antonio Palopó	9	San Antonio Palopo	10	Octubre	2023-10-31T00:00:00	2024-11-08T09:00:00	5	Humedad	58
16317	7	Sololá	712	San Antonio Palopó	9	San Antonio Palopo	10	Octubre	2023-10-31T00:00:00	2024-11-08T09:00:00	6	Velocidad del viento	8
16318	7	Sololá	712	San Antonio Palopó	9	San Antonio Palopo	10	Octubre	2023-10-31T00:00:00	2024-11-08T09:00:00	7	Dirección del viento	8.05
16319	7	Sololá	712	San Antonio Palopó	9	San Antonio Palopo	10	Octubre	2023-10-31T00:00:00	2024-11-08T09:00:00	1	Precipitación	0
16320	7	Sololá	712	San Antonio Palopó	9	San Antonio Palopo	10	Octubre	2023-10-31T00:00:00	2024-11-08T09:00:00	8	Radiación solar	185
16321	7	Sololá	712	San Antonio Palopó	9	San Antonio Palopo	10	Octubre	2023-10-31T00:00:00	2024-11-08T10:00:00	2	Temperatura media	21.5
16322	7	Sololá	712	San Antonio Palopó	9	San Antonio Palopo	10	Octubre	2023-10-31T00:00:00	2024-11-08T10:00:00	4	Temperatura máxima	21.8
16323	7	Sololá	712	San Antonio Palopó	9	San Antonio Palopo	10	Octubre	2023-10-31T00:00:00	2024-11-08T10:00:00	3	Temperatura mínima	21.3
16324	7	Sololá	712	San Antonio Palopó	9	San Antonio Palopo	10	Octubre	2023-10-31T00:00:00	2024-11-08T10:00:00	5	Humedad	59
16325	7	Sololá	712	San Antonio Palopó	9	San Antonio Palopo	10	Octubre	2023-10-31T00:00:00	2024-11-08T10:00:00	6	Velocidad del viento	8
16326	7	Sololá	712	San Antonio Palopó	9	San Antonio Palopo	10	Octubre	2023-10-31T00:00:00	2024-11-08T10:00:00	7	Dirección del viento	8.05
16327	7	Sololá	712	San Antonio Palopó	9	San Antonio Palopo	10	Octubre	2023-10-31T00:00:00	2024-11-08T10:00:00	1	Precipitación	0
16328	7	Sololá	712	San Antonio Palopó	9	San Antonio Palopo	10	Octubre	2023-10-31T00:00:00	2024-11-08T10:00:00	8	Radiación solar	184
16329	7	Sololá	712	San Antonio Palopó	9	San Antonio Palopo	10	Octubre	2023-10-31T00:00:00	2024-11-08T11:00:00	2	Temperatura media	21.6
16330	7	Sololá	712	San Antonio Palopó	9	San Antonio Palopo	10	Octubre	2023-10-31T00:00:00	2024-11-08T11:00:00	4	Temperatura máxima	21.6
16331	7	Sololá	712	San Antonio Palopó	9	San Antonio Palopo	10	Octubre	2023-10-31T00:00:00	2024-11-08T11:00:00	3	Temperatura mínima	21.2
16332	7	Sololá	712	San Antonio Palopó	9	San Antonio Palopo	10	Octubre	2023-10-31T00:00:00	2024-11-08T11:00:00	5	Humedad	60
16333	7	Sololá	712	San Antonio Palopó	9	San Antonio Palopo	10	Octubre	2023-10-31T00:00:00	2024-11-08T11:00:00	6	Velocidad del viento	17.7
16334	7	Sololá	712	San Antonio Palopó	9	San Antonio Palopo	10	Octubre	2023-10-31T00:00:00	2024-11-08T11:00:00	7	Dirección del viento	17.7
16335	7	Sololá	712	San Antonio Palopó	9	San Antonio Palopo	10	Octubre	2023-10-31T00:00:00	2024-11-08T11:00:00	1	Precipitación	0
16336	7	Sololá	712	San Antonio Palopó	9	San Antonio Palopo	10	Octubre	2023-10-31T00:00:00	2024-11-08T11:00:00	8	Radiación solar	285
16337	7	Sololá	712	San Antonio Palopó	9	San Antonio Palopo	10	Octubre	2023-10-31T00:00:00	2024-11-08T12:00:00	2	Temperatura media	21.2
16338	7	Sololá	712	San Antonio Palopó	9	San Antonio Palopo	10	Octubre	2023-10-31T00:00:00	2024-11-08T12:00:00	4	Temperatura máxima	21.8
16339	7	Sololá	712	San Antonio Palopó	9	San Antonio Palopo	10	Octubre	2023-10-31T00:00:00	2024-11-08T12:00:00	3	Temperatura mínima	21.2
16340	7	Sololá	712	San Antonio Palopó	9	San Antonio Palopo	10	Octubre	2023-10-31T00:00:00	2024-11-08T12:00:00	5	Humedad	65
16341	7	Sololá	712	San Antonio Palopó	9	San Antonio Palopo	10	Octubre	2023-10-31T00:00:00	2024-11-08T12:00:00	6	Velocidad del viento	8
16342	7	Sololá	712	San Antonio Palopó	9	San Antonio Palopo	10	Octubre	2023-10-31T00:00:00	2024-11-08T12:00:00	7	Dirección del viento	8.05
16343	7	Sololá	712	San Antonio Palopó	9	San Antonio Palopo	10	Octubre	2023-10-31T00:00:00	2024-11-08T12:00:00	1	Precipitación	0
16344	7	Sololá	712	San Antonio Palopó	9	San Antonio Palopo	10	Octubre	2023-10-31T00:00:00	2024-11-08T12:00:00	8	Radiación solar	227
16345	7	Sololá	712	San Antonio Palopó	9	San Antonio Palopo	10	Octubre	2023-10-31T00:00:00	2024-11-08T13:00:00	2	Temperatura media	20.6
16346	7	Sololá	712	San Antonio Palopó	9	San Antonio Palopo	10	Octubre	2023-10-31T00:00:00	2024-11-08T13:00:00	4	Temperatura máxima	21.3
16347	7	Sololá	712	San Antonio Palopó	9	San Antonio Palopo	10	Octubre	2023-10-31T00:00:00	2024-11-08T13:00:00	3	Temperatura mínima	20.6
16348	7	Sololá	712	San Antonio Palopó	9	San Antonio Palopo	10	Octubre	2023-10-31T00:00:00	2024-11-08T13:00:00	5	Humedad	66
16349	7	Sololá	712	San Antonio Palopó	9	San Antonio Palopo	10	Octubre	2023-10-31T00:00:00	2024-11-08T13:00:00	6	Velocidad del viento	6.4
16350	7	Sololá	712	San Antonio Palopó	9	San Antonio Palopo	10	Octubre	2023-10-31T00:00:00	2024-11-08T13:00:00	7	Dirección del viento	6.44
16351	7	Sololá	712	San Antonio Palopó	9	San Antonio Palopo	10	Octubre	2023-10-31T00:00:00	2024-11-08T13:00:00	1	Precipitación	0
16352	7	Sololá	712	San Antonio Palopó	9	San Antonio Palopo	10	Octubre	2023-10-31T00:00:00	2024-11-08T13:00:00	8	Radiación solar	191
16353	7	Sololá	712	San Antonio Palopó	9	San Antonio Palopo	10	Octubre	2023-10-31T00:00:00	2024-11-08T14:00:00	2	Temperatura media	20.2
16354	7	Sololá	712	San Antonio Palopó	9	San Antonio Palopo	10	Octubre	2023-10-31T00:00:00	2024-11-08T14:00:00	4	Temperatura máxima	20.7
16355	7	Sololá	712	San Antonio Palopó	9	San Antonio Palopo	10	Octubre	2023-10-31T00:00:00	2024-11-08T14:00:00	3	Temperatura mínima	20.2
16356	7	Sololá	712	San Antonio Palopó	9	San Antonio Palopo	10	Octubre	2023-10-31T00:00:00	2024-11-08T14:00:00	5	Humedad	69
16357	7	Sololá	712	San Antonio Palopó	9	San Antonio Palopo	10	Octubre	2023-10-31T00:00:00	2024-11-08T14:00:00	6	Velocidad del viento	6.4
16358	7	Sololá	712	San Antonio Palopó	9	San Antonio Palopo	10	Octubre	2023-10-31T00:00:00	2024-11-08T14:00:00	7	Dirección del viento	6.44
16359	7	Sololá	712	San Antonio Palopó	9	San Antonio Palopo	10	Octubre	2023-10-31T00:00:00	2024-11-08T14:00:00	1	Precipitación	0
16360	7	Sololá	712	San Antonio Palopó	9	San Antonio Palopo	10	Octubre	2023-10-31T00:00:00	2024-11-08T14:00:00	8	Radiación solar	137
16361	7	Sololá	712	San Antonio Palopó	9	San Antonio Palopo	10	Octubre	2023-10-31T00:00:00	2024-11-08T15:00:00	2	Temperatura media	18.5
16362	7	Sololá	712	San Antonio Palopó	9	San Antonio Palopo	10	Octubre	2023-10-31T00:00:00	2024-11-08T15:00:00	4	Temperatura máxima	20.2
16363	7	Sololá	712	San Antonio Palopó	9	San Antonio Palopo	10	Octubre	2023-10-31T00:00:00	2024-11-08T15:00:00	3	Temperatura mínima	18.5
16364	7	Sololá	712	San Antonio Palopó	9	San Antonio Palopo	10	Octubre	2023-10-31T00:00:00	2024-11-08T15:00:00	5	Humedad	79
16365	7	Sololá	712	San Antonio Palopó	9	San Antonio Palopo	10	Octubre	2023-10-31T00:00:00	2024-11-08T15:00:00	6	Velocidad del viento	4.8
16366	7	Sololá	712	San Antonio Palopó	9	San Antonio Palopo	10	Octubre	2023-10-31T00:00:00	2024-11-08T15:00:00	7	Dirección del viento	4.83
16367	7	Sololá	712	San Antonio Palopó	9	San Antonio Palopo	10	Octubre	2023-10-31T00:00:00	2024-11-08T15:00:00	1	Precipitación	0.2
16368	7	Sololá	712	San Antonio Palopó	9	San Antonio Palopo	10	Octubre	2023-10-31T00:00:00	2024-11-08T15:00:00	8	Radiación solar	87
16369	7	Sololá	712	San Antonio Palopó	9	San Antonio Palopo	10	Octubre	2023-10-31T00:00:00	2024-11-08T16:00:00	2	Temperatura media	18.3
16370	7	Sololá	712	San Antonio Palopó	9	San Antonio Palopo	10	Octubre	2023-10-31T00:00:00	2024-11-08T16:00:00	4	Temperatura máxima	18.5
16371	7	Sololá	712	San Antonio Palopó	9	San Antonio Palopo	10	Octubre	2023-10-31T00:00:00	2024-11-08T16:00:00	3	Temperatura mínima	17.9
16372	7	Sololá	712	San Antonio Palopó	9	San Antonio Palopo	10	Octubre	2023-10-31T00:00:00	2024-11-08T16:00:00	5	Humedad	75
16373	7	Sololá	712	San Antonio Palopó	9	San Antonio Palopo	10	Octubre	2023-10-31T00:00:00	2024-11-08T16:00:00	6	Velocidad del viento	3.2
16374	7	Sololá	712	San Antonio Palopó	9	San Antonio Palopo	10	Octubre	2023-10-31T00:00:00	2024-11-08T16:00:00	7	Dirección del viento	3.22
16375	7	Sololá	712	San Antonio Palopó	9	San Antonio Palopo	10	Octubre	2023-10-31T00:00:00	2024-11-08T16:00:00	1	Precipitación	0.8
16376	7	Sololá	712	San Antonio Palopó	9	San Antonio Palopo	10	Octubre	2023-10-31T00:00:00	2024-11-08T16:00:00	8	Radiación solar	54
16377	7	Sololá	712	San Antonio Palopó	9	San Antonio Palopo	10	Octubre	2023-10-31T00:00:00	2024-11-08T17:00:00	2	Temperatura media	17.8
16378	7	Sololá	712	San Antonio Palopó	9	San Antonio Palopo	10	Octubre	2023-10-31T00:00:00	2024-11-08T17:00:00	4	Temperatura máxima	18.7
16379	7	Sololá	712	San Antonio Palopó	9	San Antonio Palopo	10	Octubre	2023-10-31T00:00:00	2024-11-08T17:00:00	3	Temperatura mínima	17.8
16380	7	Sololá	712	San Antonio Palopó	9	San Antonio Palopo	10	Octubre	2023-10-31T00:00:00	2024-11-08T17:00:00	5	Humedad	79
16381	7	Sololá	712	San Antonio Palopó	9	San Antonio Palopo	10	Octubre	2023-10-31T00:00:00	2024-11-08T17:00:00	6	Velocidad del viento	4.8
16382	7	Sololá	712	San Antonio Palopó	9	San Antonio Palopo	10	Octubre	2023-10-31T00:00:00	2024-11-08T17:00:00	7	Dirección del viento	4.83
16383	7	Sololá	712	San Antonio Palopó	9	San Antonio Palopo	10	Octubre	2023-10-31T00:00:00	2024-11-08T17:00:00	1	Precipitación	0.4
16384	7	Sololá	712	San Antonio Palopó	9	San Antonio Palopo	10	Octubre	2023-10-31T00:00:00	2024-11-08T17:00:00	8	Radiación solar	26
16385	7	Sololá	712	San Antonio Palopó	9	San Antonio Palopo	10	Octubre	2023-10-31T00:00:00	2024-11-08T18:00:00	2	Temperatura media	17.7
16386	7	Sololá	712	San Antonio Palopó	9	San Antonio Palopo	10	Octubre	2023-10-31T00:00:00	2024-11-08T18:00:00	4	Temperatura máxima	17.8
16387	7	Sololá	712	San Antonio Palopó	9	San Antonio Palopo	10	Octubre	2023-10-31T00:00:00	2024-11-08T18:00:00	3	Temperatura mínima	17.3
16388	7	Sololá	712	San Antonio Palopó	9	San Antonio Palopo	10	Octubre	2023-10-31T00:00:00	2024-11-08T18:00:00	5	Humedad	76
16389	7	Sololá	712	San Antonio Palopó	9	San Antonio Palopo	10	Octubre	2023-10-31T00:00:00	2024-11-08T18:00:00	6	Velocidad del viento	3.2
16390	7	Sololá	712	San Antonio Palopó	9	San Antonio Palopo	10	Octubre	2023-10-31T00:00:00	2024-11-08T18:00:00	7	Dirección del viento	3.22
16391	7	Sololá	712	San Antonio Palopó	9	San Antonio Palopo	10	Octubre	2023-10-31T00:00:00	2024-11-08T18:00:00	1	Precipitación	0.4
16392	7	Sololá	712	San Antonio Palopó	9	San Antonio Palopo	10	Octubre	2023-10-31T00:00:00	2024-11-08T18:00:00	8	Radiación solar	2
16393	7	Sololá	712	San Antonio Palopó	9	San Antonio Palopo	10	Octubre	2023-10-31T00:00:00	2024-11-08T19:00:00	2	Temperatura media	18.2
16394	7	Sololá	712	San Antonio Palopó	9	San Antonio Palopo	10	Octubre	2023-10-31T00:00:00	2024-11-08T19:00:00	4	Temperatura máxima	18.5
16395	7	Sololá	712	San Antonio Palopó	9	San Antonio Palopo	10	Octubre	2023-10-31T00:00:00	2024-11-08T19:00:00	3	Temperatura mínima	17.5
16396	7	Sololá	712	San Antonio Palopó	9	San Antonio Palopo	10	Octubre	2023-10-31T00:00:00	2024-11-08T19:00:00	5	Humedad	72
16397	7	Sololá	712	San Antonio Palopó	9	San Antonio Palopo	10	Octubre	2023-10-31T00:00:00	2024-11-08T19:00:00	6	Velocidad del viento	6.4
16398	7	Sololá	712	San Antonio Palopó	9	San Antonio Palopo	10	Octubre	2023-10-31T00:00:00	2024-11-08T19:00:00	7	Dirección del viento	6.44
16399	7	Sololá	712	San Antonio Palopó	9	San Antonio Palopo	10	Octubre	2023-10-31T00:00:00	2024-11-08T19:00:00	1	Precipitación	0.2
16400	7	Sololá	712	San Antonio Palopó	9	San Antonio Palopo	10	Octubre	2023-10-31T00:00:00	2024-11-08T19:00:00	8	Radiación solar	0
16401	7	Sololá	712	San Antonio Palopó	9	San Antonio Palopo	10	Octubre	2023-10-31T00:00:00	2024-11-08T20:00:00	2	Temperatura media	18.2
16402	7	Sololá	712	San Antonio Palopó	9	San Antonio Palopo	10	Octubre	2023-10-31T00:00:00	2024-11-08T20:00:00	4	Temperatura máxima	18.7
16403	7	Sololá	712	San Antonio Palopó	9	San Antonio Palopo	10	Octubre	2023-10-31T00:00:00	2024-11-08T20:00:00	3	Temperatura mínima	18.2
16404	7	Sololá	712	San Antonio Palopó	9	San Antonio Palopo	10	Octubre	2023-10-31T00:00:00	2024-11-08T20:00:00	5	Humedad	72
16405	7	Sololá	712	San Antonio Palopó	9	San Antonio Palopo	10	Octubre	2023-10-31T00:00:00	2024-11-08T20:00:00	6	Velocidad del viento	8
16406	7	Sololá	712	San Antonio Palopó	9	San Antonio Palopo	10	Octubre	2023-10-31T00:00:00	2024-11-08T20:00:00	7	Dirección del viento	8.05
16407	7	Sololá	712	San Antonio Palopó	9	San Antonio Palopo	10	Octubre	2023-10-31T00:00:00	2024-11-08T20:00:00	1	Precipitación	0
16408	7	Sololá	712	San Antonio Palopó	9	San Antonio Palopo	10	Octubre	2023-10-31T00:00:00	2024-11-08T20:00:00	8	Radiación solar	0
16409	7	Sololá	712	San Antonio Palopó	9	San Antonio Palopo	10	Octubre	2023-10-31T00:00:00	2024-11-08T21:00:00	2	Temperatura media	18.2
16410	7	Sololá	712	San Antonio Palopó	9	San Antonio Palopo	10	Octubre	2023-10-31T00:00:00	2024-11-08T21:00:00	4	Temperatura máxima	18.3
16411	7	Sololá	712	San Antonio Palopó	9	San Antonio Palopo	10	Octubre	2023-10-31T00:00:00	2024-11-08T21:00:00	3	Temperatura mínima	18
16412	7	Sololá	712	San Antonio Palopó	9	San Antonio Palopo	10	Octubre	2023-10-31T00:00:00	2024-11-08T21:00:00	5	Humedad	69
16413	7	Sololá	712	San Antonio Palopó	9	San Antonio Palopo	10	Octubre	2023-10-31T00:00:00	2024-11-08T21:00:00	6	Velocidad del viento	9.7
16414	7	Sololá	712	San Antonio Palopó	9	San Antonio Palopo	10	Octubre	2023-10-31T00:00:00	2024-11-08T21:00:00	7	Dirección del viento	9.66
16415	7	Sololá	712	San Antonio Palopó	9	San Antonio Palopo	10	Octubre	2023-10-31T00:00:00	2024-11-08T21:00:00	1	Precipitación	0.4
16416	7	Sololá	712	San Antonio Palopó	9	San Antonio Palopo	10	Octubre	2023-10-31T00:00:00	2024-11-08T21:00:00	8	Radiación solar	0
16417	7	Sololá	712	San Antonio Palopó	9	San Antonio Palopo	10	Octubre	2023-10-31T00:00:00	2024-11-08T22:00:00	2	Temperatura media	18.2
16418	7	Sololá	712	San Antonio Palopó	9	San Antonio Palopo	10	Octubre	2023-10-31T00:00:00	2024-11-08T22:00:00	4	Temperatura máxima	18.3
16419	7	Sololá	712	San Antonio Palopó	9	San Antonio Palopo	10	Octubre	2023-10-31T00:00:00	2024-11-08T22:00:00	3	Temperatura mínima	17.9
16420	7	Sololá	712	San Antonio Palopó	9	San Antonio Palopo	10	Octubre	2023-10-31T00:00:00	2024-11-08T22:00:00	5	Humedad	67
16421	7	Sololá	712	San Antonio Palopó	9	San Antonio Palopo	10	Octubre	2023-10-31T00:00:00	2024-11-08T22:00:00	6	Velocidad del viento	11.3
16422	7	Sololá	712	San Antonio Palopó	9	San Antonio Palopo	10	Octubre	2023-10-31T00:00:00	2024-11-08T22:00:00	7	Dirección del viento	11.27
16423	7	Sololá	712	San Antonio Palopó	9	San Antonio Palopo	10	Octubre	2023-10-31T00:00:00	2024-11-08T22:00:00	1	Precipitación	0
16424	7	Sololá	712	San Antonio Palopó	9	San Antonio Palopo	10	Octubre	2023-10-31T00:00:00	2024-11-08T22:00:00	8	Radiación solar	0
16425	7	Sololá	712	San Antonio Palopó	9	San Antonio Palopo	10	Octubre	2023-10-31T00:00:00	2024-11-08T23:00:00	2	Temperatura media	17.7
16426	7	Sololá	712	San Antonio Palopó	9	San Antonio Palopo	10	Octubre	2023-10-31T00:00:00	2024-11-08T23:00:00	4	Temperatura máxima	18.2
16427	7	Sololá	712	San Antonio Palopó	9	San Antonio Palopo	10	Octubre	2023-10-31T00:00:00	2024-11-08T23:00:00	3	Temperatura mínima	17.6
16428	7	Sololá	712	San Antonio Palopó	9	San Antonio Palopo	10	Octubre	2023-10-31T00:00:00	2024-11-08T23:00:00	5	Humedad	70
16429	7	Sololá	712	San Antonio Palopó	9	San Antonio Palopo	10	Octubre	2023-10-31T00:00:00	2024-11-08T23:00:00	6	Velocidad del viento	9.7
16430	7	Sololá	712	San Antonio Palopó	9	San Antonio Palopo	10	Octubre	2023-10-31T00:00:00	2024-11-08T23:00:00	7	Dirección del viento	9.66
16431	7	Sololá	712	San Antonio Palopó	9	San Antonio Palopo	10	Octubre	2023-10-31T00:00:00	2024-11-08T23:00:00	1	Precipitación	0
16432	7	Sololá	712	San Antonio Palopó	9	San Antonio Palopo	10	Octubre	2023-10-31T00:00:00	2024-11-08T23:00:00	8	Radiación solar	0
16433	7	Sololá	712	San Antonio Palopó	9	San Antonio Palopo	11	Noviembre	2023-01-11T00:00:00	2024-11-08T00:00:00	2	Temperatura media	17.9
16434	7	Sololá	712	San Antonio Palopó	9	San Antonio Palopo	11	Noviembre	2023-01-11T00:00:00	2024-11-08T00:00:00	4	Temperatura máxima	18.1
16435	7	Sololá	712	San Antonio Palopó	9	San Antonio Palopo	11	Noviembre	2023-01-11T00:00:00	2024-11-08T00:00:00	3	Temperatura mínima	17.6
16436	7	Sololá	712	San Antonio Palopó	9	San Antonio Palopo	11	Noviembre	2023-01-11T00:00:00	2024-11-08T00:00:00	5	Humedad	68
16437	7	Sololá	712	San Antonio Palopó	9	San Antonio Palopo	11	Noviembre	2023-01-11T00:00:00	2024-11-08T00:00:00	6	Velocidad del viento	8
16438	7	Sololá	712	San Antonio Palopó	9	San Antonio Palopo	11	Noviembre	2023-01-11T00:00:00	2024-11-08T00:00:00	7	Dirección del viento	8.05
16439	7	Sololá	712	San Antonio Palopó	9	San Antonio Palopo	11	Noviembre	2023-01-11T00:00:00	2024-11-08T00:00:00	1	Precipitación	0
16440	7	Sololá	712	San Antonio Palopó	9	San Antonio Palopo	11	Noviembre	2023-01-11T00:00:00	2024-11-08T00:00:00	8	Radiación solar	0
16441	7	Sololá	712	San Antonio Palopó	9	San Antonio Palopo	11	Noviembre	2023-01-11T00:00:00	2024-11-08T01:00:00	2	Temperatura media	18.3
16442	7	Sololá	712	San Antonio Palopó	9	San Antonio Palopo	11	Noviembre	2023-01-11T00:00:00	2024-11-08T01:00:00	4	Temperatura máxima	18.3
16443	7	Sololá	712	San Antonio Palopó	9	San Antonio Palopo	11	Noviembre	2023-01-11T00:00:00	2024-11-08T01:00:00	3	Temperatura mínima	17.8
16444	7	Sololá	712	San Antonio Palopó	9	San Antonio Palopo	11	Noviembre	2023-01-11T00:00:00	2024-11-08T01:00:00	5	Humedad	63
16445	7	Sololá	712	San Antonio Palopó	9	San Antonio Palopo	11	Noviembre	2023-01-11T00:00:00	2024-11-08T01:00:00	6	Velocidad del viento	12.9
16446	7	Sololá	712	San Antonio Palopó	9	San Antonio Palopo	11	Noviembre	2023-01-11T00:00:00	2024-11-08T01:00:00	7	Dirección del viento	12.87
16447	7	Sololá	712	San Antonio Palopó	9	San Antonio Palopo	11	Noviembre	2023-01-11T00:00:00	2024-11-08T01:00:00	1	Precipitación	0
16448	7	Sololá	712	San Antonio Palopó	9	San Antonio Palopo	11	Noviembre	2023-01-11T00:00:00	2024-11-08T01:00:00	8	Radiación solar	0
16449	7	Sololá	712	San Antonio Palopó	9	San Antonio Palopo	11	Noviembre	2023-01-11T00:00:00	2024-11-08T02:00:00	2	Temperatura media	18.1
16450	7	Sololá	712	San Antonio Palopó	9	San Antonio Palopo	11	Noviembre	2023-01-11T00:00:00	2024-11-08T02:00:00	4	Temperatura máxima	18.3
16451	7	Sololá	712	San Antonio Palopó	9	San Antonio Palopo	11	Noviembre	2023-01-11T00:00:00	2024-11-08T02:00:00	3	Temperatura mínima	18
16452	7	Sololá	712	San Antonio Palopó	9	San Antonio Palopo	11	Noviembre	2023-01-11T00:00:00	2024-11-08T02:00:00	5	Humedad	64
16453	7	Sololá	712	San Antonio Palopó	9	San Antonio Palopo	11	Noviembre	2023-01-11T00:00:00	2024-11-08T02:00:00	6	Velocidad del viento	12.9
16454	7	Sololá	712	San Antonio Palopó	9	San Antonio Palopo	11	Noviembre	2023-01-11T00:00:00	2024-11-08T02:00:00	7	Dirección del viento	12.87
16455	7	Sololá	712	San Antonio Palopó	9	San Antonio Palopo	11	Noviembre	2023-01-11T00:00:00	2024-11-08T02:00:00	1	Precipitación	0
16456	7	Sololá	712	San Antonio Palopó	9	San Antonio Palopo	11	Noviembre	2023-01-11T00:00:00	2024-11-08T02:00:00	8	Radiación solar	0
16457	7	Sololá	712	San Antonio Palopó	9	San Antonio Palopo	11	Noviembre	2023-01-11T00:00:00	2024-11-08T03:00:00	2	Temperatura media	18.2
16458	7	Sololá	712	San Antonio Palopó	9	San Antonio Palopo	11	Noviembre	2023-01-11T00:00:00	2024-11-08T03:00:00	4	Temperatura máxima	18.2
16459	7	Sololá	712	San Antonio Palopó	9	San Antonio Palopo	11	Noviembre	2023-01-11T00:00:00	2024-11-08T03:00:00	3	Temperatura mínima	17.9
16460	7	Sololá	712	San Antonio Palopó	9	San Antonio Palopo	11	Noviembre	2023-01-11T00:00:00	2024-11-08T03:00:00	5	Humedad	66
16461	7	Sololá	712	San Antonio Palopó	9	San Antonio Palopo	11	Noviembre	2023-01-11T00:00:00	2024-11-08T03:00:00	6	Velocidad del viento	12.9
16462	7	Sololá	712	San Antonio Palopó	9	San Antonio Palopo	11	Noviembre	2023-01-11T00:00:00	2024-11-08T03:00:00	7	Dirección del viento	12.87
16463	7	Sololá	712	San Antonio Palopó	9	San Antonio Palopo	11	Noviembre	2023-01-11T00:00:00	2024-11-08T03:00:00	1	Precipitación	0
16464	7	Sololá	712	San Antonio Palopó	9	San Antonio Palopo	11	Noviembre	2023-01-11T00:00:00	2024-11-08T03:00:00	8	Radiación solar	0
16465	7	Sololá	712	San Antonio Palopó	9	San Antonio Palopo	11	Noviembre	2023-01-11T00:00:00	2024-11-08T04:00:00	2	Temperatura media	18.3
16466	7	Sololá	712	San Antonio Palopó	9	San Antonio Palopo	11	Noviembre	2023-01-11T00:00:00	2024-11-08T04:00:00	4	Temperatura máxima	18.5
16467	7	Sololá	712	San Antonio Palopó	9	San Antonio Palopo	11	Noviembre	2023-01-11T00:00:00	2024-11-08T04:00:00	3	Temperatura mínima	18.1
16468	7	Sololá	712	San Antonio Palopó	9	San Antonio Palopo	11	Noviembre	2023-01-11T00:00:00	2024-11-08T04:00:00	5	Humedad	66
16469	7	Sololá	712	San Antonio Palopó	9	San Antonio Palopo	11	Noviembre	2023-01-11T00:00:00	2024-11-08T04:00:00	6	Velocidad del viento	25.7
16470	7	Sololá	712	San Antonio Palopó	9	San Antonio Palopo	11	Noviembre	2023-01-11T00:00:00	2024-11-08T04:00:00	7	Dirección del viento	25.75
16471	7	Sololá	712	San Antonio Palopó	9	San Antonio Palopo	11	Noviembre	2023-01-11T00:00:00	2024-11-08T04:00:00	1	Precipitación	0
16472	7	Sololá	712	San Antonio Palopó	9	San Antonio Palopo	11	Noviembre	2023-01-11T00:00:00	2024-11-08T04:00:00	8	Radiación solar	0
16473	7	Sololá	712	San Antonio Palopó	9	San Antonio Palopo	11	Noviembre	2023-01-11T00:00:00	2024-11-08T05:00:00	2	Temperatura media	18.2
16474	7	Sololá	712	San Antonio Palopó	9	San Antonio Palopo	11	Noviembre	2023-01-11T00:00:00	2024-11-08T05:00:00	4	Temperatura máxima	18.7
16475	7	Sololá	712	San Antonio Palopó	9	San Antonio Palopo	11	Noviembre	2023-01-11T00:00:00	2024-11-08T05:00:00	3	Temperatura mínima	18.2
16476	7	Sololá	712	San Antonio Palopó	9	San Antonio Palopo	11	Noviembre	2023-01-11T00:00:00	2024-11-08T05:00:00	5	Humedad	67
16477	7	Sololá	712	San Antonio Palopó	9	San Antonio Palopo	11	Noviembre	2023-01-11T00:00:00	2024-11-08T05:00:00	6	Velocidad del viento	19.3
16478	7	Sololá	712	San Antonio Palopó	9	San Antonio Palopo	11	Noviembre	2023-01-11T00:00:00	2024-11-08T05:00:00	7	Dirección del viento	19.31
16479	7	Sololá	712	San Antonio Palopó	9	San Antonio Palopo	11	Noviembre	2023-01-11T00:00:00	2024-11-08T05:00:00	1	Precipitación	0
16480	7	Sololá	712	San Antonio Palopó	9	San Antonio Palopo	11	Noviembre	2023-01-11T00:00:00	2024-11-08T05:00:00	8	Radiación solar	0
16481	7	Sololá	712	San Antonio Palopó	9	San Antonio Palopo	11	Noviembre	2023-01-11T00:00:00	2024-11-08T06:00:00	2	Temperatura media	18.5
16482	7	Sololá	712	San Antonio Palopó	9	San Antonio Palopo	11	Noviembre	2023-01-11T00:00:00	2024-11-08T06:00:00	4	Temperatura máxima	18.6
16483	7	Sololá	712	San Antonio Palopó	9	San Antonio Palopo	11	Noviembre	2023-01-11T00:00:00	2024-11-08T06:00:00	3	Temperatura mínima	18.1
16484	7	Sololá	712	San Antonio Palopó	9	San Antonio Palopo	11	Noviembre	2023-01-11T00:00:00	2024-11-08T06:00:00	5	Humedad	66
16485	7	Sololá	712	San Antonio Palopó	9	San Antonio Palopo	11	Noviembre	2023-01-11T00:00:00	2024-11-08T06:00:00	6	Velocidad del viento	16.1
16486	7	Sololá	712	San Antonio Palopó	9	San Antonio Palopo	11	Noviembre	2023-01-11T00:00:00	2024-11-08T06:00:00	7	Dirección del viento	16.09
16487	7	Sololá	712	San Antonio Palopó	9	San Antonio Palopo	11	Noviembre	2023-01-11T00:00:00	2024-11-08T06:00:00	1	Precipitación	0
16488	7	Sololá	712	San Antonio Palopó	9	San Antonio Palopo	11	Noviembre	2023-01-11T00:00:00	2024-11-08T06:00:00	8	Radiación solar	0
16489	7	Sololá	712	San Antonio Palopó	9	San Antonio Palopo	11	Noviembre	2023-01-11T00:00:00	2024-11-08T07:00:00	2	Temperatura media	19.2
16490	7	Sololá	712	San Antonio Palopó	9	San Antonio Palopo	11	Noviembre	2023-01-11T00:00:00	2024-11-08T07:00:00	4	Temperatura máxima	19.2
16491	7	Sololá	712	San Antonio Palopó	9	San Antonio Palopo	11	Noviembre	2023-01-11T00:00:00	2024-11-08T07:00:00	3	Temperatura mínima	18.5
16492	7	Sololá	712	San Antonio Palopó	9	San Antonio Palopo	11	Noviembre	2023-01-11T00:00:00	2024-11-08T07:00:00	5	Humedad	67
16493	7	Sololá	712	San Antonio Palopó	9	San Antonio Palopo	11	Noviembre	2023-01-11T00:00:00	2024-11-08T07:00:00	6	Velocidad del viento	9.7
16494	7	Sololá	712	San Antonio Palopó	9	San Antonio Palopo	11	Noviembre	2023-01-11T00:00:00	2024-11-08T07:00:00	7	Dirección del viento	9.66
16495	7	Sololá	712	San Antonio Palopó	9	San Antonio Palopo	11	Noviembre	2023-01-11T00:00:00	2024-11-08T07:00:00	1	Precipitación	0
16496	7	Sololá	712	San Antonio Palopó	9	San Antonio Palopo	11	Noviembre	2023-01-11T00:00:00	2024-11-08T07:00:00	8	Radiación solar	19
16497	7	Sololá	712	San Antonio Palopó	9	San Antonio Palopo	11	Noviembre	2023-01-11T00:00:00	2024-11-08T08:00:00	2	Temperatura media	19.7
16498	7	Sololá	712	San Antonio Palopó	9	San Antonio Palopo	11	Noviembre	2023-01-11T00:00:00	2024-11-08T08:00:00	4	Temperatura máxima	19.7
16499	7	Sololá	712	San Antonio Palopó	9	San Antonio Palopo	11	Noviembre	2023-01-11T00:00:00	2024-11-08T08:00:00	3	Temperatura mínima	19.2
16500	7	Sololá	712	San Antonio Palopó	9	San Antonio Palopo	11	Noviembre	2023-01-11T00:00:00	2024-11-08T08:00:00	5	Humedad	66
16501	7	Sololá	712	San Antonio Palopó	9	San Antonio Palopo	11	Noviembre	2023-01-11T00:00:00	2024-11-08T08:00:00	6	Velocidad del viento	14.5
16502	7	Sololá	712	San Antonio Palopó	9	San Antonio Palopo	11	Noviembre	2023-01-11T00:00:00	2024-11-08T08:00:00	7	Dirección del viento	14.48
16503	7	Sololá	712	San Antonio Palopó	9	San Antonio Palopo	11	Noviembre	2023-01-11T00:00:00	2024-11-08T08:00:00	1	Precipitación	0
16504	7	Sololá	712	San Antonio Palopó	9	San Antonio Palopo	11	Noviembre	2023-01-11T00:00:00	2024-11-08T08:00:00	8	Radiación solar	70
16505	7	Sololá	712	San Antonio Palopó	9	San Antonio Palopo	11	Noviembre	2023-01-11T00:00:00	2024-11-08T09:00:00	2	Temperatura media	19.7
16506	7	Sololá	712	San Antonio Palopó	9	San Antonio Palopo	11	Noviembre	2023-01-11T00:00:00	2024-11-08T09:00:00	4	Temperatura máxima	19.8
16507	7	Sololá	712	San Antonio Palopó	9	San Antonio Palopo	11	Noviembre	2023-01-11T00:00:00	2024-11-08T09:00:00	3	Temperatura mínima	19.4
16508	7	Sololá	712	San Antonio Palopó	9	San Antonio Palopo	11	Noviembre	2023-01-11T00:00:00	2024-11-08T09:00:00	5	Humedad	67
16509	7	Sololá	712	San Antonio Palopó	9	San Antonio Palopo	11	Noviembre	2023-01-11T00:00:00	2024-11-08T09:00:00	6	Velocidad del viento	11.3
16510	7	Sololá	712	San Antonio Palopó	9	San Antonio Palopo	11	Noviembre	2023-01-11T00:00:00	2024-11-08T09:00:00	7	Dirección del viento	11.27
16511	7	Sololá	712	San Antonio Palopó	9	San Antonio Palopo	11	Noviembre	2023-01-11T00:00:00	2024-11-08T09:00:00	1	Precipitación	0
16512	7	Sololá	712	San Antonio Palopó	9	San Antonio Palopo	11	Noviembre	2023-01-11T00:00:00	2024-11-08T09:00:00	8	Radiación solar	135
16513	7	Sololá	712	San Antonio Palopó	9	San Antonio Palopo	11	Noviembre	2023-01-11T00:00:00	2024-11-08T10:00:00	2	Temperatura media	20.4
16514	7	Sololá	712	San Antonio Palopó	9	San Antonio Palopo	11	Noviembre	2023-01-11T00:00:00	2024-11-08T10:00:00	4	Temperatura máxima	20.4
16515	7	Sololá	712	San Antonio Palopó	9	San Antonio Palopo	11	Noviembre	2023-01-11T00:00:00	2024-11-08T10:00:00	3	Temperatura mínima	19.7
16516	7	Sololá	712	San Antonio Palopó	9	San Antonio Palopo	11	Noviembre	2023-01-11T00:00:00	2024-11-08T10:00:00	5	Humedad	65
16517	7	Sololá	712	San Antonio Palopó	9	San Antonio Palopo	11	Noviembre	2023-01-11T00:00:00	2024-11-08T10:00:00	6	Velocidad del viento	12.9
16518	7	Sololá	712	San Antonio Palopó	9	San Antonio Palopo	11	Noviembre	2023-01-11T00:00:00	2024-11-08T10:00:00	7	Dirección del viento	12.87
16519	7	Sololá	712	San Antonio Palopó	9	San Antonio Palopo	11	Noviembre	2023-01-11T00:00:00	2024-11-08T10:00:00	1	Precipitación	0
16520	7	Sololá	712	San Antonio Palopó	9	San Antonio Palopo	11	Noviembre	2023-01-11T00:00:00	2024-11-08T10:00:00	8	Radiación solar	263
16521	7	Sololá	712	San Antonio Palopó	9	San Antonio Palopo	11	Noviembre	2023-01-11T00:00:00	2024-11-08T11:00:00	2	Temperatura media	20.6
16522	7	Sololá	712	San Antonio Palopó	9	San Antonio Palopo	11	Noviembre	2023-01-11T00:00:00	2024-11-08T11:00:00	4	Temperatura máxima	20.9
16523	7	Sololá	712	San Antonio Palopó	9	San Antonio Palopo	11	Noviembre	2023-01-11T00:00:00	2024-11-08T11:00:00	3	Temperatura mínima	20.4
16524	7	Sololá	712	San Antonio Palopó	9	San Antonio Palopo	11	Noviembre	2023-01-11T00:00:00	2024-11-08T11:00:00	5	Humedad	67
16525	7	Sololá	712	San Antonio Palopó	9	San Antonio Palopo	11	Noviembre	2023-01-11T00:00:00	2024-11-08T11:00:00	6	Velocidad del viento	11.3
16526	7	Sololá	712	San Antonio Palopó	9	San Antonio Palopo	11	Noviembre	2023-01-11T00:00:00	2024-11-08T11:00:00	7	Dirección del viento	11.27
16527	7	Sololá	712	San Antonio Palopó	9	San Antonio Palopo	11	Noviembre	2023-01-11T00:00:00	2024-11-08T11:00:00	1	Precipitación	0
16528	7	Sololá	712	San Antonio Palopó	9	San Antonio Palopo	11	Noviembre	2023-01-11T00:00:00	2024-11-08T11:00:00	8	Radiación solar	290
16529	7	Sololá	712	San Antonio Palopó	9	San Antonio Palopo	11	Noviembre	2023-01-11T00:00:00	2024-11-08T12:00:00	2	Temperatura media	20.4
16530	7	Sololá	712	San Antonio Palopó	9	San Antonio Palopo	11	Noviembre	2023-01-11T00:00:00	2024-11-08T12:00:00	4	Temperatura máxima	21.5
16531	7	Sololá	712	San Antonio Palopó	9	San Antonio Palopo	11	Noviembre	2023-01-11T00:00:00	2024-11-08T12:00:00	3	Temperatura mínima	20.4
16532	7	Sololá	712	San Antonio Palopó	9	San Antonio Palopo	11	Noviembre	2023-01-11T00:00:00	2024-11-08T12:00:00	5	Humedad	67
16533	7	Sololá	712	San Antonio Palopó	9	San Antonio Palopo	11	Noviembre	2023-01-11T00:00:00	2024-11-08T12:00:00	6	Velocidad del viento	16.1
16534	7	Sololá	712	San Antonio Palopó	9	San Antonio Palopo	11	Noviembre	2023-01-11T00:00:00	2024-11-08T12:00:00	7	Dirección del viento	16.09
16535	7	Sololá	712	San Antonio Palopó	9	San Antonio Palopo	11	Noviembre	2023-01-11T00:00:00	2024-11-08T12:00:00	1	Precipitación	0
16536	7	Sololá	712	San Antonio Palopó	9	San Antonio Palopo	11	Noviembre	2023-01-11T00:00:00	2024-11-08T12:00:00	8	Radiación solar	262
16537	7	Sololá	712	San Antonio Palopó	9	San Antonio Palopo	11	Noviembre	2023-01-11T00:00:00	2024-11-08T13:00:00	2	Temperatura media	20.5
16538	7	Sololá	712	San Antonio Palopó	9	San Antonio Palopo	11	Noviembre	2023-01-11T00:00:00	2024-11-08T13:00:00	4	Temperatura máxima	20.7
16539	7	Sololá	712	San Antonio Palopó	9	San Antonio Palopo	11	Noviembre	2023-01-11T00:00:00	2024-11-08T13:00:00	3	Temperatura mínima	20.3
16540	7	Sololá	712	San Antonio Palopó	9	San Antonio Palopo	11	Noviembre	2023-01-11T00:00:00	2024-11-08T13:00:00	5	Humedad	68
16541	7	Sololá	712	San Antonio Palopó	9	San Antonio Palopo	11	Noviembre	2023-01-11T00:00:00	2024-11-08T13:00:00	6	Velocidad del viento	11.3
16542	7	Sololá	712	San Antonio Palopó	9	San Antonio Palopo	11	Noviembre	2023-01-11T00:00:00	2024-11-08T13:00:00	7	Dirección del viento	11.27
16543	7	Sololá	712	San Antonio Palopó	9	San Antonio Palopo	11	Noviembre	2023-01-11T00:00:00	2024-11-08T13:00:00	1	Precipitación	0
16544	7	Sololá	712	San Antonio Palopó	9	San Antonio Palopo	11	Noviembre	2023-01-11T00:00:00	2024-11-08T13:00:00	8	Radiación solar	288
16545	7	Sololá	712	San Antonio Palopó	9	San Antonio Palopo	11	Noviembre	2023-01-11T00:00:00	2024-11-08T14:00:00	2	Temperatura media	20.4
16546	7	Sololá	712	San Antonio Palopó	9	San Antonio Palopo	11	Noviembre	2023-01-11T00:00:00	2024-11-08T14:00:00	4	Temperatura máxima	20.6
16547	7	Sololá	712	San Antonio Palopó	9	San Antonio Palopo	11	Noviembre	2023-01-11T00:00:00	2024-11-08T14:00:00	3	Temperatura mínima	20.3
16548	7	Sololá	712	San Antonio Palopó	9	San Antonio Palopo	11	Noviembre	2023-01-11T00:00:00	2024-11-08T14:00:00	5	Humedad	67
16549	7	Sololá	712	San Antonio Palopó	9	San Antonio Palopo	11	Noviembre	2023-01-11T00:00:00	2024-11-08T14:00:00	6	Velocidad del viento	14.5
16550	7	Sololá	712	San Antonio Palopó	9	San Antonio Palopo	11	Noviembre	2023-01-11T00:00:00	2024-11-08T14:00:00	7	Dirección del viento	14.48
16551	7	Sololá	712	San Antonio Palopó	9	San Antonio Palopo	11	Noviembre	2023-01-11T00:00:00	2024-11-08T14:00:00	1	Precipitación	0
16552	7	Sololá	712	San Antonio Palopó	9	San Antonio Palopo	11	Noviembre	2023-01-11T00:00:00	2024-11-08T14:00:00	8	Radiación solar	264
16553	7	Sololá	712	San Antonio Palopó	9	San Antonio Palopo	11	Noviembre	2023-01-11T00:00:00	2024-11-08T15:00:00	2	Temperatura media	20.4
16554	7	Sololá	712	San Antonio Palopó	9	San Antonio Palopo	11	Noviembre	2023-01-11T00:00:00	2024-11-08T15:00:00	4	Temperatura máxima	20.5
16555	7	Sololá	712	San Antonio Palopó	9	San Antonio Palopo	11	Noviembre	2023-01-11T00:00:00	2024-11-08T15:00:00	3	Temperatura mínima	20.2
16556	7	Sololá	712	San Antonio Palopó	9	San Antonio Palopo	11	Noviembre	2023-01-11T00:00:00	2024-11-08T15:00:00	5	Humedad	65
16557	7	Sololá	712	San Antonio Palopó	9	San Antonio Palopo	11	Noviembre	2023-01-11T00:00:00	2024-11-08T15:00:00	6	Velocidad del viento	14.5
16558	7	Sololá	712	San Antonio Palopó	9	San Antonio Palopo	11	Noviembre	2023-01-11T00:00:00	2024-11-08T15:00:00	7	Dirección del viento	14.48
16559	7	Sololá	712	San Antonio Palopó	9	San Antonio Palopo	11	Noviembre	2023-01-11T00:00:00	2024-11-08T15:00:00	1	Precipitación	0
16560	7	Sololá	712	San Antonio Palopó	9	San Antonio Palopo	11	Noviembre	2023-01-11T00:00:00	2024-11-08T15:00:00	8	Radiación solar	207
16561	7	Sololá	712	San Antonio Palopó	9	San Antonio Palopo	11	Noviembre	2023-01-11T00:00:00	2024-11-08T16:00:00	2	Temperatura media	19.9
16562	7	Sololá	712	San Antonio Palopó	9	San Antonio Palopo	11	Noviembre	2023-01-11T00:00:00	2024-11-08T16:00:00	4	Temperatura máxima	20.6
16563	7	Sololá	712	San Antonio Palopó	9	San Antonio Palopo	11	Noviembre	2023-01-11T00:00:00	2024-11-08T16:00:00	3	Temperatura mínima	19.9
16564	7	Sololá	712	San Antonio Palopó	9	San Antonio Palopo	11	Noviembre	2023-01-11T00:00:00	2024-11-08T16:00:00	5	Humedad	65
16565	7	Sololá	712	San Antonio Palopó	9	San Antonio Palopo	11	Noviembre	2023-01-11T00:00:00	2024-11-08T16:00:00	6	Velocidad del viento	14.5
16566	7	Sololá	712	San Antonio Palopó	9	San Antonio Palopo	11	Noviembre	2023-01-11T00:00:00	2024-11-08T16:00:00	7	Dirección del viento	14.48
16567	7	Sololá	712	San Antonio Palopó	9	San Antonio Palopo	11	Noviembre	2023-01-11T00:00:00	2024-11-08T16:00:00	1	Precipitación	0
16568	7	Sololá	712	San Antonio Palopó	9	San Antonio Palopo	11	Noviembre	2023-01-11T00:00:00	2024-11-08T16:00:00	8	Radiación solar	148
16569	7	Sololá	712	San Antonio Palopó	9	San Antonio Palopo	11	Noviembre	2023-01-11T00:00:00	2024-11-08T17:00:00	2	Temperatura media	19.9
16570	7	Sololá	712	San Antonio Palopó	9	San Antonio Palopo	11	Noviembre	2023-01-11T00:00:00	2024-11-08T17:00:00	4	Temperatura máxima	20.1
16571	7	Sololá	712	San Antonio Palopó	9	San Antonio Palopo	11	Noviembre	2023-01-11T00:00:00	2024-11-08T17:00:00	3	Temperatura mínima	19.9
16572	7	Sololá	712	San Antonio Palopó	9	San Antonio Palopo	11	Noviembre	2023-01-11T00:00:00	2024-11-08T17:00:00	5	Humedad	67
16573	7	Sololá	712	San Antonio Palopó	9	San Antonio Palopo	11	Noviembre	2023-01-11T00:00:00	2024-11-08T17:00:00	6	Velocidad del viento	9.7
16574	7	Sololá	712	San Antonio Palopó	9	San Antonio Palopo	11	Noviembre	2023-01-11T00:00:00	2024-11-08T17:00:00	7	Dirección del viento	9.66
16575	7	Sololá	712	San Antonio Palopó	9	San Antonio Palopo	11	Noviembre	2023-01-11T00:00:00	2024-11-08T17:00:00	1	Precipitación	0
16576	7	Sololá	712	San Antonio Palopó	9	San Antonio Palopo	11	Noviembre	2023-01-11T00:00:00	2024-11-08T17:00:00	8	Radiación solar	57
16577	7	Sololá	712	San Antonio Palopó	9	San Antonio Palopo	11	Noviembre	2023-01-11T00:00:00	2024-11-08T18:00:00	2	Temperatura media	19.8
16578	7	Sololá	712	San Antonio Palopó	9	San Antonio Palopo	11	Noviembre	2023-01-11T00:00:00	2024-11-08T18:00:00	4	Temperatura máxima	20.1
16579	7	Sololá	712	San Antonio Palopó	9	San Antonio Palopo	11	Noviembre	2023-01-11T00:00:00	2024-11-08T18:00:00	3	Temperatura mínima	19.7
16580	7	Sololá	712	San Antonio Palopó	9	San Antonio Palopo	11	Noviembre	2023-01-11T00:00:00	2024-11-08T18:00:00	5	Humedad	67
16581	7	Sololá	712	San Antonio Palopó	9	San Antonio Palopo	11	Noviembre	2023-01-11T00:00:00	2024-11-08T18:00:00	6	Velocidad del viento	6.4
16582	7	Sololá	712	San Antonio Palopó	9	San Antonio Palopo	11	Noviembre	2023-01-11T00:00:00	2024-11-08T18:00:00	7	Dirección del viento	6.44
16583	7	Sololá	712	San Antonio Palopó	9	San Antonio Palopo	11	Noviembre	2023-01-11T00:00:00	2024-11-08T18:00:00	1	Precipitación	0
16584	7	Sololá	712	San Antonio Palopó	9	San Antonio Palopo	11	Noviembre	2023-01-11T00:00:00	2024-11-08T18:00:00	8	Radiación solar	10
16585	7	Sololá	712	San Antonio Palopó	9	San Antonio Palopo	11	Noviembre	2023-01-11T00:00:00	2024-11-08T19:00:00	2	Temperatura media	19.6
16586	7	Sololá	712	San Antonio Palopó	9	San Antonio Palopo	11	Noviembre	2023-01-11T00:00:00	2024-11-08T19:00:00	4	Temperatura máxima	19.8
16587	7	Sololá	712	San Antonio Palopó	9	San Antonio Palopo	11	Noviembre	2023-01-11T00:00:00	2024-11-08T19:00:00	3	Temperatura mínima	19.4
16588	7	Sololá	712	San Antonio Palopó	9	San Antonio Palopo	11	Noviembre	2023-01-11T00:00:00	2024-11-08T19:00:00	5	Humedad	67
16589	7	Sololá	712	San Antonio Palopó	9	San Antonio Palopo	11	Noviembre	2023-01-11T00:00:00	2024-11-08T19:00:00	6	Velocidad del viento	6.4
16590	7	Sololá	712	San Antonio Palopó	9	San Antonio Palopo	11	Noviembre	2023-01-11T00:00:00	2024-11-08T19:00:00	7	Dirección del viento	6.44
16591	7	Sololá	712	San Antonio Palopó	9	San Antonio Palopo	11	Noviembre	2023-01-11T00:00:00	2024-11-08T19:00:00	1	Precipitación	0
16592	7	Sololá	712	San Antonio Palopó	9	San Antonio Palopo	11	Noviembre	2023-01-11T00:00:00	2024-11-08T19:00:00	8	Radiación solar	0
16593	7	Sololá	712	San Antonio Palopó	9	San Antonio Palopo	11	Noviembre	2023-01-11T00:00:00	2024-11-08T20:00:00	2	Temperatura media	19.7
16594	7	Sololá	712	San Antonio Palopó	9	San Antonio Palopo	11	Noviembre	2023-01-11T00:00:00	2024-11-08T20:00:00	4	Temperatura máxima	19.8
16595	7	Sololá	712	San Antonio Palopó	9	San Antonio Palopo	11	Noviembre	2023-01-11T00:00:00	2024-11-08T20:00:00	3	Temperatura mínima	19.6
16596	7	Sololá	712	San Antonio Palopó	9	San Antonio Palopo	11	Noviembre	2023-01-11T00:00:00	2024-11-08T20:00:00	5	Humedad	69
16597	7	Sololá	712	San Antonio Palopó	9	San Antonio Palopo	11	Noviembre	2023-01-11T00:00:00	2024-11-08T20:00:00	6	Velocidad del viento	9.7
16598	7	Sololá	712	San Antonio Palopó	9	San Antonio Palopo	11	Noviembre	2023-01-11T00:00:00	2024-11-08T20:00:00	7	Dirección del viento	9.66
16599	7	Sololá	712	San Antonio Palopó	9	San Antonio Palopo	11	Noviembre	2023-01-11T00:00:00	2024-11-08T20:00:00	1	Precipitación	0
16600	7	Sololá	712	San Antonio Palopó	9	San Antonio Palopo	11	Noviembre	2023-01-11T00:00:00	2024-11-08T20:00:00	8	Radiación solar	0
16601	7	Sololá	712	San Antonio Palopó	9	San Antonio Palopo	11	Noviembre	2023-01-11T00:00:00	2024-11-08T21:00:00	2	Temperatura media	19.6
16602	7	Sololá	712	San Antonio Palopó	9	San Antonio Palopo	11	Noviembre	2023-01-11T00:00:00	2024-11-08T21:00:00	4	Temperatura máxima	19.7
16603	7	Sololá	712	San Antonio Palopó	9	San Antonio Palopo	11	Noviembre	2023-01-11T00:00:00	2024-11-08T21:00:00	3	Temperatura mínima	19.6
16604	7	Sololá	712	San Antonio Palopó	9	San Antonio Palopo	11	Noviembre	2023-01-11T00:00:00	2024-11-08T21:00:00	5	Humedad	68
16605	7	Sololá	712	San Antonio Palopó	9	San Antonio Palopo	11	Noviembre	2023-01-11T00:00:00	2024-11-08T21:00:00	6	Velocidad del viento	8
16606	7	Sololá	712	San Antonio Palopó	9	San Antonio Palopo	11	Noviembre	2023-01-11T00:00:00	2024-11-08T21:00:00	7	Dirección del viento	8.05
16607	7	Sololá	712	San Antonio Palopó	9	San Antonio Palopo	11	Noviembre	2023-01-11T00:00:00	2024-11-08T21:00:00	1	Precipitación	0
16608	7	Sololá	712	San Antonio Palopó	9	San Antonio Palopo	11	Noviembre	2023-01-11T00:00:00	2024-11-08T21:00:00	8	Radiación solar	0
16609	7	Sololá	712	San Antonio Palopó	9	San Antonio Palopo	11	Noviembre	2023-01-11T00:00:00	2024-11-08T22:00:00	2	Temperatura media	19.7
16610	7	Sololá	712	San Antonio Palopó	9	San Antonio Palopo	11	Noviembre	2023-01-11T00:00:00	2024-11-08T22:00:00	4	Temperatura máxima	19.8
16611	7	Sololá	712	San Antonio Palopó	9	San Antonio Palopo	11	Noviembre	2023-01-11T00:00:00	2024-11-08T22:00:00	3	Temperatura mínima	19.4
16612	7	Sololá	712	San Antonio Palopó	9	San Antonio Palopo	11	Noviembre	2023-01-11T00:00:00	2024-11-08T22:00:00	5	Humedad	67
16613	7	Sololá	712	San Antonio Palopó	9	San Antonio Palopo	11	Noviembre	2023-01-11T00:00:00	2024-11-08T22:00:00	6	Velocidad del viento	11.3
16614	7	Sololá	712	San Antonio Palopó	9	San Antonio Palopo	11	Noviembre	2023-01-11T00:00:00	2024-11-08T22:00:00	7	Dirección del viento	11.27
16615	7	Sololá	712	San Antonio Palopó	9	San Antonio Palopo	11	Noviembre	2023-01-11T00:00:00	2024-11-08T22:00:00	1	Precipitación	0
16616	7	Sololá	712	San Antonio Palopó	9	San Antonio Palopo	11	Noviembre	2023-01-11T00:00:00	2024-11-08T22:00:00	8	Radiación solar	0
16617	7	Sololá	712	San Antonio Palopó	9	San Antonio Palopo	11	Noviembre	2023-01-11T00:00:00	2024-11-08T23:00:00	2	Temperatura media	19.5
16618	7	Sololá	712	San Antonio Palopó	9	San Antonio Palopo	11	Noviembre	2023-01-11T00:00:00	2024-11-08T23:00:00	4	Temperatura máxima	19.8
16619	7	Sololá	712	San Antonio Palopó	9	San Antonio Palopo	11	Noviembre	2023-01-11T00:00:00	2024-11-08T23:00:00	3	Temperatura mínima	18.7
16620	7	Sololá	712	San Antonio Palopó	9	San Antonio Palopo	11	Noviembre	2023-01-11T00:00:00	2024-11-08T23:00:00	5	Humedad	61
16621	7	Sololá	712	San Antonio Palopó	9	San Antonio Palopo	11	Noviembre	2023-01-11T00:00:00	2024-11-08T23:00:00	6	Velocidad del viento	3.2
16622	7	Sololá	712	San Antonio Palopó	9	San Antonio Palopo	11	Noviembre	2023-01-11T00:00:00	2024-11-08T23:00:00	7	Dirección del viento	3.22
16623	7	Sololá	712	San Antonio Palopó	9	San Antonio Palopo	11	Noviembre	2023-01-11T00:00:00	2024-11-08T23:00:00	1	Precipitación	0
16624	7	Sololá	712	San Antonio Palopó	9	San Antonio Palopo	11	Noviembre	2023-01-11T00:00:00	2024-11-08T23:00:00	8	Radiación solar	0
16625	7	Sololá	712	San Antonio Palopó	9	San Antonio Palopo	11	Noviembre	2023-02-11T00:00:00	2024-11-08T00:00:00	2	Temperatura media	19.3
16626	7	Sololá	712	San Antonio Palopó	9	San Antonio Palopo	11	Noviembre	2023-02-11T00:00:00	2024-11-08T00:00:00	4	Temperatura máxima	19.5
16627	7	Sololá	712	San Antonio Palopó	9	San Antonio Palopo	11	Noviembre	2023-02-11T00:00:00	2024-11-08T00:00:00	3	Temperatura mínima	19.1
16628	7	Sololá	712	San Antonio Palopó	9	San Antonio Palopo	11	Noviembre	2023-02-11T00:00:00	2024-11-08T00:00:00	5	Humedad	65
16629	7	Sololá	712	San Antonio Palopó	9	San Antonio Palopo	11	Noviembre	2023-02-11T00:00:00	2024-11-08T00:00:00	6	Velocidad del viento	4.8
16630	7	Sololá	712	San Antonio Palopó	9	San Antonio Palopo	11	Noviembre	2023-02-11T00:00:00	2024-11-08T00:00:00	7	Dirección del viento	4.83
16631	7	Sololá	712	San Antonio Palopó	9	San Antonio Palopo	11	Noviembre	2023-02-11T00:00:00	2024-11-08T00:00:00	1	Precipitación	0
16632	7	Sololá	712	San Antonio Palopó	9	San Antonio Palopo	11	Noviembre	2023-02-11T00:00:00	2024-11-08T00:00:00	8	Radiación solar	0
16633	7	Sololá	712	San Antonio Palopó	9	San Antonio Palopo	11	Noviembre	2023-02-11T00:00:00	2024-11-08T01:00:00	2	Temperatura media	18.9
16634	7	Sololá	712	San Antonio Palopó	9	San Antonio Palopo	11	Noviembre	2023-02-11T00:00:00	2024-11-08T01:00:00	4	Temperatura máxima	19.5
16635	7	Sololá	712	San Antonio Palopó	9	San Antonio Palopo	11	Noviembre	2023-02-11T00:00:00	2024-11-08T01:00:00	3	Temperatura mínima	18.9
16636	7	Sololá	712	San Antonio Palopó	9	San Antonio Palopo	11	Noviembre	2023-02-11T00:00:00	2024-11-08T01:00:00	5	Humedad	67
16637	7	Sololá	712	San Antonio Palopó	9	San Antonio Palopo	11	Noviembre	2023-02-11T00:00:00	2024-11-08T01:00:00	6	Velocidad del viento	9.7
16638	7	Sololá	712	San Antonio Palopó	9	San Antonio Palopo	11	Noviembre	2023-02-11T00:00:00	2024-11-08T01:00:00	7	Dirección del viento	9.66
16639	7	Sololá	712	San Antonio Palopó	9	San Antonio Palopo	11	Noviembre	2023-02-11T00:00:00	2024-11-08T01:00:00	1	Precipitación	0
16640	7	Sololá	712	San Antonio Palopó	9	San Antonio Palopo	11	Noviembre	2023-02-11T00:00:00	2024-11-08T01:00:00	8	Radiación solar	0
16641	7	Sololá	712	San Antonio Palopó	9	San Antonio Palopo	11	Noviembre	2023-02-11T00:00:00	2024-11-08T02:00:00	2	Temperatura media	18.3
16642	7	Sololá	712	San Antonio Palopó	9	San Antonio Palopo	11	Noviembre	2023-02-11T00:00:00	2024-11-08T02:00:00	4	Temperatura máxima	19
16643	7	Sololá	712	San Antonio Palopó	9	San Antonio Palopo	11	Noviembre	2023-02-11T00:00:00	2024-11-08T02:00:00	3	Temperatura mínima	18.2
16644	7	Sololá	712	San Antonio Palopó	9	San Antonio Palopo	11	Noviembre	2023-02-11T00:00:00	2024-11-08T02:00:00	5	Humedad	71
16645	7	Sololá	712	San Antonio Palopó	9	San Antonio Palopo	11	Noviembre	2023-02-11T00:00:00	2024-11-08T02:00:00	6	Velocidad del viento	4.8
16646	7	Sololá	712	San Antonio Palopó	9	San Antonio Palopo	11	Noviembre	2023-02-11T00:00:00	2024-11-08T02:00:00	7	Dirección del viento	4.83
16647	7	Sololá	712	San Antonio Palopó	9	San Antonio Palopo	11	Noviembre	2023-02-11T00:00:00	2024-11-08T02:00:00	1	Precipitación	0
16648	7	Sololá	712	San Antonio Palopó	9	San Antonio Palopo	11	Noviembre	2023-02-11T00:00:00	2024-11-08T02:00:00	8	Radiación solar	0
16649	7	Sololá	712	San Antonio Palopó	9	San Antonio Palopo	11	Noviembre	2023-02-11T00:00:00	2024-11-08T03:00:00	2	Temperatura media	19.3
16650	7	Sololá	712	San Antonio Palopó	9	San Antonio Palopo	11	Noviembre	2023-02-11T00:00:00	2024-11-08T03:00:00	4	Temperatura máxima	19.3
16651	7	Sololá	712	San Antonio Palopó	9	San Antonio Palopo	11	Noviembre	2023-02-11T00:00:00	2024-11-08T03:00:00	3	Temperatura mínima	18.2
16652	7	Sololá	712	San Antonio Palopó	9	San Antonio Palopo	11	Noviembre	2023-02-11T00:00:00	2024-11-08T03:00:00	5	Humedad	70
16653	7	Sololá	712	San Antonio Palopó	9	San Antonio Palopo	11	Noviembre	2023-02-11T00:00:00	2024-11-08T03:00:00	6	Velocidad del viento	6.4
16654	7	Sololá	712	San Antonio Palopó	9	San Antonio Palopo	11	Noviembre	2023-02-11T00:00:00	2024-11-08T03:00:00	7	Dirección del viento	6.44
16655	7	Sololá	712	San Antonio Palopó	9	San Antonio Palopo	11	Noviembre	2023-02-11T00:00:00	2024-11-08T03:00:00	1	Precipitación	0
16656	7	Sololá	712	San Antonio Palopó	9	San Antonio Palopo	11	Noviembre	2023-02-11T00:00:00	2024-11-08T03:00:00	8	Radiación solar	0
16657	7	Sololá	712	San Antonio Palopó	9	San Antonio Palopo	11	Noviembre	2023-02-11T00:00:00	2024-11-08T04:00:00	2	Temperatura media	19.4
16658	7	Sololá	712	San Antonio Palopó	9	San Antonio Palopo	11	Noviembre	2023-02-11T00:00:00	2024-11-08T04:00:00	4	Temperatura máxima	19.8
16659	7	Sololá	712	San Antonio Palopó	9	San Antonio Palopo	11	Noviembre	2023-02-11T00:00:00	2024-11-08T04:00:00	3	Temperatura mínima	18.7
16660	7	Sololá	712	San Antonio Palopó	9	San Antonio Palopo	11	Noviembre	2023-02-11T00:00:00	2024-11-08T04:00:00	5	Humedad	71
16661	7	Sololá	712	San Antonio Palopó	9	San Antonio Palopo	11	Noviembre	2023-02-11T00:00:00	2024-11-08T04:00:00	6	Velocidad del viento	4.8
16662	7	Sololá	712	San Antonio Palopó	9	San Antonio Palopo	11	Noviembre	2023-02-11T00:00:00	2024-11-08T04:00:00	7	Dirección del viento	4.83
16663	7	Sololá	712	San Antonio Palopó	9	San Antonio Palopo	11	Noviembre	2023-02-11T00:00:00	2024-11-08T04:00:00	1	Precipitación	0
16664	7	Sololá	712	San Antonio Palopó	9	San Antonio Palopo	11	Noviembre	2023-02-11T00:00:00	2024-11-08T04:00:00	8	Radiación solar	0
16665	7	Sololá	712	San Antonio Palopó	9	San Antonio Palopo	11	Noviembre	2023-02-11T00:00:00	2024-11-08T05:00:00	2	Temperatura media	19.4
16666	7	Sololá	712	San Antonio Palopó	9	San Antonio Palopo	11	Noviembre	2023-02-11T00:00:00	2024-11-08T05:00:00	4	Temperatura máxima	20
16667	7	Sololá	712	San Antonio Palopó	9	San Antonio Palopo	11	Noviembre	2023-02-11T00:00:00	2024-11-08T05:00:00	3	Temperatura mínima	19.1
16668	7	Sololá	712	San Antonio Palopó	9	San Antonio Palopo	11	Noviembre	2023-02-11T00:00:00	2024-11-08T05:00:00	5	Humedad	69
16669	7	Sololá	712	San Antonio Palopó	9	San Antonio Palopo	11	Noviembre	2023-02-11T00:00:00	2024-11-08T05:00:00	6	Velocidad del viento	6.4
16670	7	Sololá	712	San Antonio Palopó	9	San Antonio Palopo	11	Noviembre	2023-02-11T00:00:00	2024-11-08T05:00:00	7	Dirección del viento	6.44
16671	7	Sololá	712	San Antonio Palopó	9	San Antonio Palopo	11	Noviembre	2023-02-11T00:00:00	2024-11-08T05:00:00	1	Precipitación	0
16672	7	Sololá	712	San Antonio Palopó	9	San Antonio Palopo	11	Noviembre	2023-02-11T00:00:00	2024-11-08T05:00:00	8	Radiación solar	0
16673	7	Sololá	712	San Antonio Palopó	9	San Antonio Palopo	11	Noviembre	2023-02-11T00:00:00	2024-11-08T06:00:00	2	Temperatura media	20.3
16674	7	Sololá	712	San Antonio Palopó	9	San Antonio Palopo	11	Noviembre	2023-02-11T00:00:00	2024-11-08T06:00:00	4	Temperatura máxima	20.3
16675	7	Sololá	712	San Antonio Palopó	9	San Antonio Palopo	11	Noviembre	2023-02-11T00:00:00	2024-11-08T06:00:00	3	Temperatura mínima	19.4
16676	7	Sololá	712	San Antonio Palopó	9	San Antonio Palopo	11	Noviembre	2023-02-11T00:00:00	2024-11-08T06:00:00	5	Humedad	68
16677	7	Sololá	712	San Antonio Palopó	9	San Antonio Palopo	11	Noviembre	2023-02-11T00:00:00	2024-11-08T06:00:00	6	Velocidad del viento	6.4
16678	7	Sololá	712	San Antonio Palopó	9	San Antonio Palopo	11	Noviembre	2023-02-11T00:00:00	2024-11-08T06:00:00	7	Dirección del viento	6.44
16679	7	Sololá	712	San Antonio Palopó	9	San Antonio Palopo	11	Noviembre	2023-02-11T00:00:00	2024-11-08T06:00:00	1	Precipitación	0
16680	7	Sololá	712	San Antonio Palopó	9	San Antonio Palopo	11	Noviembre	2023-02-11T00:00:00	2024-11-08T06:00:00	8	Radiación solar	0
16681	7	Sololá	712	San Antonio Palopó	9	San Antonio Palopo	11	Noviembre	2023-02-11T00:00:00	2024-11-08T07:00:00	2	Temperatura media	21.1
16682	7	Sololá	712	San Antonio Palopó	9	San Antonio Palopo	11	Noviembre	2023-02-11T00:00:00	2024-11-08T07:00:00	4	Temperatura máxima	21.1
16683	7	Sololá	712	San Antonio Palopó	9	San Antonio Palopo	11	Noviembre	2023-02-11T00:00:00	2024-11-08T07:00:00	3	Temperatura mínima	19
16684	7	Sololá	712	San Antonio Palopó	9	San Antonio Palopo	11	Noviembre	2023-02-11T00:00:00	2024-11-08T07:00:00	5	Humedad	66
16685	7	Sololá	712	San Antonio Palopó	9	San Antonio Palopo	11	Noviembre	2023-02-11T00:00:00	2024-11-08T07:00:00	6	Velocidad del viento	6.4
16686	7	Sololá	712	San Antonio Palopó	9	San Antonio Palopo	11	Noviembre	2023-02-11T00:00:00	2024-11-08T07:00:00	7	Dirección del viento	6.44
16687	7	Sololá	712	San Antonio Palopó	9	San Antonio Palopo	11	Noviembre	2023-02-11T00:00:00	2024-11-08T07:00:00	1	Precipitación	0
16688	7	Sololá	712	San Antonio Palopó	9	San Antonio Palopo	11	Noviembre	2023-02-11T00:00:00	2024-11-08T07:00:00	8	Radiación solar	37
16689	7	Sololá	712	San Antonio Palopó	9	San Antonio Palopo	11	Noviembre	2023-02-11T00:00:00	2024-11-08T08:00:00	2	Temperatura media	21.6
16690	7	Sololá	712	San Antonio Palopó	9	San Antonio Palopo	11	Noviembre	2023-02-11T00:00:00	2024-11-08T08:00:00	4	Temperatura máxima	21.6
16691	7	Sololá	712	San Antonio Palopó	9	San Antonio Palopo	11	Noviembre	2023-02-11T00:00:00	2024-11-08T08:00:00	3	Temperatura mínima	21.1
16692	7	Sololá	712	San Antonio Palopó	9	San Antonio Palopo	11	Noviembre	2023-02-11T00:00:00	2024-11-08T08:00:00	5	Humedad	65
16693	7	Sololá	712	San Antonio Palopó	9	San Antonio Palopo	11	Noviembre	2023-02-11T00:00:00	2024-11-08T08:00:00	6	Velocidad del viento	9.7
16694	7	Sololá	712	San Antonio Palopó	9	San Antonio Palopo	11	Noviembre	2023-02-11T00:00:00	2024-11-08T08:00:00	7	Dirección del viento	9.66
16695	7	Sololá	712	San Antonio Palopó	9	San Antonio Palopo	11	Noviembre	2023-02-11T00:00:00	2024-11-08T08:00:00	1	Precipitación	0
16696	7	Sololá	712	San Antonio Palopó	9	San Antonio Palopo	11	Noviembre	2023-02-11T00:00:00	2024-11-08T08:00:00	8	Radiación solar	89
16697	7	Sololá	712	San Antonio Palopó	9	San Antonio Palopo	11	Noviembre	2023-02-11T00:00:00	2024-11-08T09:00:00	2	Temperatura media	22.7
16698	7	Sololá	712	San Antonio Palopó	9	San Antonio Palopo	11	Noviembre	2023-02-11T00:00:00	2024-11-08T09:00:00	4	Temperatura máxima	22.8
16699	7	Sololá	712	San Antonio Palopó	9	San Antonio Palopo	11	Noviembre	2023-02-11T00:00:00	2024-11-08T09:00:00	3	Temperatura mínima	21.6
16700	7	Sololá	712	San Antonio Palopó	9	San Antonio Palopo	11	Noviembre	2023-02-11T00:00:00	2024-11-08T09:00:00	5	Humedad	64
16701	7	Sololá	712	San Antonio Palopó	9	San Antonio Palopo	11	Noviembre	2023-02-11T00:00:00	2024-11-08T09:00:00	6	Velocidad del viento	8
16702	7	Sololá	712	San Antonio Palopó	9	San Antonio Palopo	11	Noviembre	2023-02-11T00:00:00	2024-11-08T09:00:00	7	Dirección del viento	8.05
16703	7	Sololá	712	San Antonio Palopó	9	San Antonio Palopo	11	Noviembre	2023-02-11T00:00:00	2024-11-08T09:00:00	1	Precipitación	0
16704	7	Sololá	712	San Antonio Palopó	9	San Antonio Palopo	11	Noviembre	2023-02-11T00:00:00	2024-11-08T09:00:00	8	Radiación solar	549
16705	7	Sololá	712	San Antonio Palopó	9	San Antonio Palopo	11	Noviembre	2023-02-11T00:00:00	2024-11-08T10:00:00	2	Temperatura media	23.2
16706	7	Sololá	712	San Antonio Palopó	9	San Antonio Palopo	11	Noviembre	2023-02-11T00:00:00	2024-11-08T10:00:00	4	Temperatura máxima	23.7
16707	7	Sololá	712	San Antonio Palopó	9	San Antonio Palopo	11	Noviembre	2023-02-11T00:00:00	2024-11-08T10:00:00	3	Temperatura mínima	22.4
16708	7	Sololá	712	San Antonio Palopó	9	San Antonio Palopo	11	Noviembre	2023-02-11T00:00:00	2024-11-08T10:00:00	5	Humedad	63
16709	7	Sololá	712	San Antonio Palopó	9	San Antonio Palopo	11	Noviembre	2023-02-11T00:00:00	2024-11-08T10:00:00	6	Velocidad del viento	8
16710	7	Sololá	712	San Antonio Palopó	9	San Antonio Palopo	11	Noviembre	2023-02-11T00:00:00	2024-11-08T10:00:00	7	Dirección del viento	8.05
16711	7	Sololá	712	San Antonio Palopó	9	San Antonio Palopo	11	Noviembre	2023-02-11T00:00:00	2024-11-08T10:00:00	1	Precipitación	0
16712	7	Sololá	712	San Antonio Palopó	9	San Antonio Palopo	11	Noviembre	2023-02-11T00:00:00	2024-11-08T10:00:00	8	Radiación solar	700
16713	7	Sololá	712	San Antonio Palopó	9	San Antonio Palopo	11	Noviembre	2023-02-11T00:00:00	2024-11-08T11:00:00	2	Temperatura media	23
16714	7	Sololá	712	San Antonio Palopó	9	San Antonio Palopo	11	Noviembre	2023-02-11T00:00:00	2024-11-08T11:00:00	4	Temperatura máxima	23.9
16715	7	Sololá	712	San Antonio Palopó	9	San Antonio Palopo	11	Noviembre	2023-02-11T00:00:00	2024-11-08T11:00:00	3	Temperatura mínima	23
16716	7	Sololá	712	San Antonio Palopó	9	San Antonio Palopo	11	Noviembre	2023-02-11T00:00:00	2024-11-08T11:00:00	5	Humedad	61
16717	7	Sololá	712	San Antonio Palopó	9	San Antonio Palopo	11	Noviembre	2023-02-11T00:00:00	2024-11-08T11:00:00	6	Velocidad del viento	11.3
16718	7	Sololá	712	San Antonio Palopó	9	San Antonio Palopo	11	Noviembre	2023-02-11T00:00:00	2024-11-08T11:00:00	7	Dirección del viento	11.27
16719	7	Sololá	712	San Antonio Palopó	9	San Antonio Palopo	11	Noviembre	2023-02-11T00:00:00	2024-11-08T11:00:00	1	Precipitación	0
16720	7	Sololá	712	San Antonio Palopó	9	San Antonio Palopo	11	Noviembre	2023-02-11T00:00:00	2024-11-08T11:00:00	8	Radiación solar	420
16721	7	Sololá	712	San Antonio Palopó	9	San Antonio Palopo	11	Noviembre	2023-02-11T00:00:00	2024-11-08T12:00:00	2	Temperatura media	23.7
16722	7	Sololá	712	San Antonio Palopó	9	San Antonio Palopo	11	Noviembre	2023-02-11T00:00:00	2024-11-08T12:00:00	4	Temperatura máxima	23.7
16723	7	Sololá	712	San Antonio Palopó	9	San Antonio Palopo	11	Noviembre	2023-02-11T00:00:00	2024-11-08T12:00:00	3	Temperatura mínima	22.7
16724	7	Sololá	712	San Antonio Palopó	9	San Antonio Palopo	11	Noviembre	2023-02-11T00:00:00	2024-11-08T12:00:00	5	Humedad	61
16725	7	Sololá	712	San Antonio Palopó	9	San Antonio Palopo	11	Noviembre	2023-02-11T00:00:00	2024-11-08T12:00:00	6	Velocidad del viento	11.3
16726	7	Sololá	712	San Antonio Palopó	9	San Antonio Palopo	11	Noviembre	2023-02-11T00:00:00	2024-11-08T12:00:00	7	Dirección del viento	11.27
16727	7	Sololá	712	San Antonio Palopó	9	San Antonio Palopo	11	Noviembre	2023-02-11T00:00:00	2024-11-08T12:00:00	1	Precipitación	0
16728	7	Sololá	712	San Antonio Palopó	9	San Antonio Palopo	11	Noviembre	2023-02-11T00:00:00	2024-11-08T12:00:00	8	Radiación solar	322
16729	7	Sololá	712	San Antonio Palopó	9	San Antonio Palopo	11	Noviembre	2023-02-11T00:00:00	2024-11-08T13:00:00	2	Temperatura media	23.5
16730	7	Sololá	712	San Antonio Palopó	9	San Antonio Palopo	11	Noviembre	2023-02-11T00:00:00	2024-11-08T13:00:00	4	Temperatura máxima	23.8
16731	7	Sololá	712	San Antonio Palopó	9	San Antonio Palopo	11	Noviembre	2023-02-11T00:00:00	2024-11-08T13:00:00	3	Temperatura mínima	22.8
16732	7	Sololá	712	San Antonio Palopó	9	San Antonio Palopo	11	Noviembre	2023-02-11T00:00:00	2024-11-08T13:00:00	5	Humedad	61
16733	7	Sololá	712	San Antonio Palopó	9	San Antonio Palopo	11	Noviembre	2023-02-11T00:00:00	2024-11-08T13:00:00	6	Velocidad del viento	9.7
16734	7	Sololá	712	San Antonio Palopó	9	San Antonio Palopo	11	Noviembre	2023-02-11T00:00:00	2024-11-08T13:00:00	7	Dirección del viento	9.66
16735	7	Sololá	712	San Antonio Palopó	9	San Antonio Palopo	11	Noviembre	2023-02-11T00:00:00	2024-11-08T13:00:00	1	Precipitación	0
16736	7	Sololá	712	San Antonio Palopó	9	San Antonio Palopo	11	Noviembre	2023-02-11T00:00:00	2024-11-08T13:00:00	8	Radiación solar	317
16737	7	Sololá	712	San Antonio Palopó	9	San Antonio Palopo	11	Noviembre	2023-02-11T00:00:00	2024-11-08T14:00:00	2	Temperatura media	23.3
16738	7	Sololá	712	San Antonio Palopó	9	San Antonio Palopo	11	Noviembre	2023-02-11T00:00:00	2024-11-08T14:00:00	4	Temperatura máxima	23.5
16739	7	Sololá	712	San Antonio Palopó	9	San Antonio Palopo	11	Noviembre	2023-02-11T00:00:00	2024-11-08T14:00:00	3	Temperatura mínima	23
16740	7	Sololá	712	San Antonio Palopó	9	San Antonio Palopo	11	Noviembre	2023-02-11T00:00:00	2024-11-08T14:00:00	5	Humedad	61
16741	7	Sololá	712	San Antonio Palopó	9	San Antonio Palopo	11	Noviembre	2023-02-11T00:00:00	2024-11-08T14:00:00	6	Velocidad del viento	9.7
16742	7	Sololá	712	San Antonio Palopó	9	San Antonio Palopo	11	Noviembre	2023-02-11T00:00:00	2024-11-08T14:00:00	7	Dirección del viento	9.66
16743	7	Sololá	712	San Antonio Palopó	9	San Antonio Palopo	11	Noviembre	2023-02-11T00:00:00	2024-11-08T14:00:00	1	Precipitación	0
16744	7	Sololá	712	San Antonio Palopó	9	San Antonio Palopo	11	Noviembre	2023-02-11T00:00:00	2024-11-08T14:00:00	8	Radiación solar	328
16745	7	Sololá	712	San Antonio Palopó	9	San Antonio Palopo	11	Noviembre	2023-02-11T00:00:00	2024-11-08T15:00:00	2	Temperatura media	22.6
16746	7	Sololá	712	San Antonio Palopó	9	San Antonio Palopo	11	Noviembre	2023-02-11T00:00:00	2024-11-08T15:00:00	4	Temperatura máxima	23.5
16747	7	Sololá	712	San Antonio Palopó	9	San Antonio Palopo	11	Noviembre	2023-02-11T00:00:00	2024-11-08T15:00:00	3	Temperatura mínima	22.1
16748	7	Sololá	712	San Antonio Palopó	9	San Antonio Palopo	11	Noviembre	2023-02-11T00:00:00	2024-11-08T15:00:00	5	Humedad	62
16749	7	Sololá	712	San Antonio Palopó	9	San Antonio Palopo	11	Noviembre	2023-02-11T00:00:00	2024-11-08T15:00:00	6	Velocidad del viento	11.3
16750	7	Sololá	712	San Antonio Palopó	9	San Antonio Palopo	11	Noviembre	2023-02-11T00:00:00	2024-11-08T15:00:00	7	Dirección del viento	11.27
16751	7	Sololá	712	San Antonio Palopó	9	San Antonio Palopo	11	Noviembre	2023-02-11T00:00:00	2024-11-08T15:00:00	1	Precipitación	0
16752	7	Sololá	712	San Antonio Palopó	9	San Antonio Palopo	11	Noviembre	2023-02-11T00:00:00	2024-11-08T15:00:00	8	Radiación solar	248
16753	7	Sololá	712	San Antonio Palopó	9	San Antonio Palopo	11	Noviembre	2023-02-11T00:00:00	2024-11-08T16:00:00	2	Temperatura media	21.8
16754	7	Sololá	712	San Antonio Palopó	9	San Antonio Palopo	11	Noviembre	2023-02-11T00:00:00	2024-11-08T16:00:00	4	Temperatura máxima	22.8
16755	7	Sololá	712	San Antonio Palopó	9	San Antonio Palopo	11	Noviembre	2023-02-11T00:00:00	2024-11-08T16:00:00	3	Temperatura mínima	21.8
16756	7	Sololá	712	San Antonio Palopó	9	San Antonio Palopo	11	Noviembre	2023-02-11T00:00:00	2024-11-08T16:00:00	5	Humedad	64
16757	7	Sololá	712	San Antonio Palopó	9	San Antonio Palopo	11	Noviembre	2023-02-11T00:00:00	2024-11-08T16:00:00	6	Velocidad del viento	11.3
16758	7	Sololá	712	San Antonio Palopó	9	San Antonio Palopo	11	Noviembre	2023-02-11T00:00:00	2024-11-08T16:00:00	7	Dirección del viento	11.27
16759	7	Sololá	712	San Antonio Palopó	9	San Antonio Palopo	11	Noviembre	2023-02-11T00:00:00	2024-11-08T16:00:00	1	Precipitación	0
16760	7	Sololá	712	San Antonio Palopó	9	San Antonio Palopo	11	Noviembre	2023-02-11T00:00:00	2024-11-08T16:00:00	8	Radiación solar	158
16761	7	Sololá	712	San Antonio Palopó	9	San Antonio Palopo	11	Noviembre	2023-02-11T00:00:00	2024-11-08T17:00:00	2	Temperatura media	21.3
16762	7	Sololá	712	San Antonio Palopó	9	San Antonio Palopo	11	Noviembre	2023-02-11T00:00:00	2024-11-08T17:00:00	4	Temperatura máxima	21.9
16763	7	Sololá	712	San Antonio Palopó	9	San Antonio Palopo	11	Noviembre	2023-02-11T00:00:00	2024-11-08T17:00:00	3	Temperatura mínima	21.3
16764	7	Sololá	712	San Antonio Palopó	9	San Antonio Palopo	11	Noviembre	2023-02-11T00:00:00	2024-11-08T17:00:00	5	Humedad	65
16765	7	Sololá	712	San Antonio Palopó	9	San Antonio Palopo	11	Noviembre	2023-02-11T00:00:00	2024-11-08T17:00:00	6	Velocidad del viento	11.3
16766	7	Sololá	712	San Antonio Palopó	9	San Antonio Palopo	11	Noviembre	2023-02-11T00:00:00	2024-11-08T17:00:00	7	Dirección del viento	11.27
16767	7	Sololá	712	San Antonio Palopó	9	San Antonio Palopo	11	Noviembre	2023-02-11T00:00:00	2024-11-08T17:00:00	1	Precipitación	0
16768	7	Sololá	712	San Antonio Palopó	9	San Antonio Palopo	11	Noviembre	2023-02-11T00:00:00	2024-11-08T17:00:00	8	Radiación solar	76
16769	7	Sololá	712	San Antonio Palopó	9	San Antonio Palopo	11	Noviembre	2023-02-11T00:00:00	2024-11-08T18:00:00	2	Temperatura media	20.8
16770	7	Sololá	712	San Antonio Palopó	9	San Antonio Palopo	11	Noviembre	2023-02-11T00:00:00	2024-11-08T18:00:00	4	Temperatura máxima	21.3
16771	7	Sololá	712	San Antonio Palopó	9	San Antonio Palopo	11	Noviembre	2023-02-11T00:00:00	2024-11-08T18:00:00	3	Temperatura mínima	20.8
16772	7	Sololá	712	San Antonio Palopó	9	San Antonio Palopo	11	Noviembre	2023-02-11T00:00:00	2024-11-08T18:00:00	5	Humedad	67
16773	7	Sololá	712	San Antonio Palopó	9	San Antonio Palopo	11	Noviembre	2023-02-11T00:00:00	2024-11-08T18:00:00	6	Velocidad del viento	9.7
16774	7	Sololá	712	San Antonio Palopó	9	San Antonio Palopo	11	Noviembre	2023-02-11T00:00:00	2024-11-08T18:00:00	7	Dirección del viento	9.66
16775	7	Sololá	712	San Antonio Palopó	9	San Antonio Palopo	11	Noviembre	2023-02-11T00:00:00	2024-11-08T18:00:00	1	Precipitación	0
16776	7	Sololá	712	San Antonio Palopó	9	San Antonio Palopo	11	Noviembre	2023-02-11T00:00:00	2024-11-08T18:00:00	8	Radiación solar	8
16777	7	Sololá	712	San Antonio Palopó	9	San Antonio Palopo	11	Noviembre	2023-02-11T00:00:00	2024-11-08T19:00:00	2	Temperatura media	20.9
16778	7	Sololá	712	San Antonio Palopó	9	San Antonio Palopo	11	Noviembre	2023-02-11T00:00:00	2024-11-08T19:00:00	4	Temperatura máxima	20.9
16779	7	Sololá	712	San Antonio Palopó	9	San Antonio Palopo	11	Noviembre	2023-02-11T00:00:00	2024-11-08T19:00:00	3	Temperatura mínima	20.6
16780	7	Sololá	712	San Antonio Palopó	9	San Antonio Palopo	11	Noviembre	2023-02-11T00:00:00	2024-11-08T19:00:00	5	Humedad	68
16781	7	Sololá	712	San Antonio Palopó	9	San Antonio Palopo	11	Noviembre	2023-02-11T00:00:00	2024-11-08T19:00:00	6	Velocidad del viento	8
16782	7	Sololá	712	San Antonio Palopó	9	San Antonio Palopo	11	Noviembre	2023-02-11T00:00:00	2024-11-08T19:00:00	7	Dirección del viento	8.05
16783	7	Sololá	712	San Antonio Palopó	9	San Antonio Palopo	11	Noviembre	2023-02-11T00:00:00	2024-11-08T19:00:00	1	Precipitación	0
16784	7	Sololá	712	San Antonio Palopó	9	San Antonio Palopo	11	Noviembre	2023-02-11T00:00:00	2024-11-08T19:00:00	8	Radiación solar	0
16785	7	Sololá	712	San Antonio Palopó	9	San Antonio Palopo	11	Noviembre	2023-02-11T00:00:00	2024-11-08T20:00:00	2	Temperatura media	20.6
16786	7	Sololá	712	San Antonio Palopó	9	San Antonio Palopo	11	Noviembre	2023-02-11T00:00:00	2024-11-08T20:00:00	4	Temperatura máxima	20.9
16787	7	Sololá	712	San Antonio Palopó	9	San Antonio Palopo	11	Noviembre	2023-02-11T00:00:00	2024-11-08T20:00:00	3	Temperatura mínima	20.6
16788	7	Sololá	712	San Antonio Palopó	9	San Antonio Palopo	11	Noviembre	2023-02-11T00:00:00	2024-11-08T20:00:00	5	Humedad	67
16789	7	Sololá	712	San Antonio Palopó	9	San Antonio Palopo	11	Noviembre	2023-02-11T00:00:00	2024-11-08T20:00:00	6	Velocidad del viento	9.7
16790	7	Sololá	712	San Antonio Palopó	9	San Antonio Palopo	11	Noviembre	2023-02-11T00:00:00	2024-11-08T20:00:00	7	Dirección del viento	9.66
16791	7	Sololá	712	San Antonio Palopó	9	San Antonio Palopo	11	Noviembre	2023-02-11T00:00:00	2024-11-08T20:00:00	1	Precipitación	0
16792	7	Sololá	712	San Antonio Palopó	9	San Antonio Palopo	11	Noviembre	2023-02-11T00:00:00	2024-11-08T20:00:00	8	Radiación solar	0
16793	7	Sololá	712	San Antonio Palopó	9	San Antonio Palopo	11	Noviembre	2023-02-11T00:00:00	2024-11-08T21:00:00	2	Temperatura media	20.7
16794	7	Sololá	712	San Antonio Palopó	9	San Antonio Palopo	11	Noviembre	2023-02-11T00:00:00	2024-11-08T21:00:00	4	Temperatura máxima	20.7
16795	7	Sololá	712	San Antonio Palopó	9	San Antonio Palopo	11	Noviembre	2023-02-11T00:00:00	2024-11-08T21:00:00	3	Temperatura mínima	20.4
16796	7	Sololá	712	San Antonio Palopó	9	San Antonio Palopo	11	Noviembre	2023-02-11T00:00:00	2024-11-08T21:00:00	5	Humedad	67
16797	7	Sololá	712	San Antonio Palopó	9	San Antonio Palopo	11	Noviembre	2023-02-11T00:00:00	2024-11-08T21:00:00	6	Velocidad del viento	9.7
16798	7	Sololá	712	San Antonio Palopó	9	San Antonio Palopo	11	Noviembre	2023-02-11T00:00:00	2024-11-08T21:00:00	7	Dirección del viento	9.66
16799	7	Sololá	712	San Antonio Palopó	9	San Antonio Palopo	11	Noviembre	2023-02-11T00:00:00	2024-11-08T21:00:00	1	Precipitación	0
16800	7	Sololá	712	San Antonio Palopó	9	San Antonio Palopo	11	Noviembre	2023-02-11T00:00:00	2024-11-08T21:00:00	8	Radiación solar	0
16801	7	Sololá	712	San Antonio Palopó	9	San Antonio Palopo	11	Noviembre	2023-02-11T00:00:00	2024-11-08T22:00:00	2	Temperatura media	20.4
16802	7	Sololá	712	San Antonio Palopó	9	San Antonio Palopo	11	Noviembre	2023-02-11T00:00:00	2024-11-08T22:00:00	4	Temperatura máxima	20.8
16803	7	Sololá	712	San Antonio Palopó	9	San Antonio Palopo	11	Noviembre	2023-02-11T00:00:00	2024-11-08T22:00:00	3	Temperatura mínima	20.4
16804	7	Sololá	712	San Antonio Palopó	9	San Antonio Palopo	11	Noviembre	2023-02-11T00:00:00	2024-11-08T22:00:00	5	Humedad	67
16805	7	Sololá	712	San Antonio Palopó	9	San Antonio Palopo	11	Noviembre	2023-02-11T00:00:00	2024-11-08T22:00:00	6	Velocidad del viento	8
16806	7	Sololá	712	San Antonio Palopó	9	San Antonio Palopo	11	Noviembre	2023-02-11T00:00:00	2024-11-08T22:00:00	7	Dirección del viento	8.05
16807	7	Sololá	712	San Antonio Palopó	9	San Antonio Palopo	11	Noviembre	2023-02-11T00:00:00	2024-11-08T22:00:00	1	Precipitación	0
16808	7	Sololá	712	San Antonio Palopó	9	San Antonio Palopo	11	Noviembre	2023-02-11T00:00:00	2024-11-08T22:00:00	8	Radiación solar	0
16809	7	Sololá	712	San Antonio Palopó	9	San Antonio Palopo	11	Noviembre	2023-02-11T00:00:00	2024-11-08T23:00:00	2	Temperatura media	20.3
16810	7	Sololá	712	San Antonio Palopó	9	San Antonio Palopo	11	Noviembre	2023-02-11T00:00:00	2024-11-08T23:00:00	4	Temperatura máxima	20.7
16811	7	Sololá	712	San Antonio Palopó	9	San Antonio Palopo	11	Noviembre	2023-02-11T00:00:00	2024-11-08T23:00:00	3	Temperatura mínima	20.2
16812	7	Sololá	712	San Antonio Palopó	9	San Antonio Palopo	11	Noviembre	2023-02-11T00:00:00	2024-11-08T23:00:00	5	Humedad	66
16813	7	Sololá	712	San Antonio Palopó	9	San Antonio Palopo	11	Noviembre	2023-02-11T00:00:00	2024-11-08T23:00:00	6	Velocidad del viento	9.7
16814	7	Sololá	712	San Antonio Palopó	9	San Antonio Palopo	11	Noviembre	2023-02-11T00:00:00	2024-11-08T23:00:00	7	Dirección del viento	9.66
16815	7	Sololá	712	San Antonio Palopó	9	San Antonio Palopo	11	Noviembre	2023-02-11T00:00:00	2024-11-08T23:00:00	1	Precipitación	0
16816	7	Sololá	712	San Antonio Palopó	9	San Antonio Palopo	11	Noviembre	2023-02-11T00:00:00	2024-11-08T23:00:00	8	Radiación solar	0
16817	7	Sololá	712	San Antonio Palopó	9	San Antonio Palopo	11	Noviembre	2023-03-11T00:00:00	2024-11-08T00:00:00	2	Temperatura media	19.9
16818	7	Sololá	712	San Antonio Palopó	9	San Antonio Palopo	11	Noviembre	2023-03-11T00:00:00	2024-11-08T00:00:00	4	Temperatura máxima	20.3
16819	7	Sololá	712	San Antonio Palopó	9	San Antonio Palopo	11	Noviembre	2023-03-11T00:00:00	2024-11-08T00:00:00	3	Temperatura mínima	19.8
16820	7	Sololá	712	San Antonio Palopó	9	San Antonio Palopo	11	Noviembre	2023-03-11T00:00:00	2024-11-08T00:00:00	5	Humedad	66
16821	7	Sololá	712	San Antonio Palopó	9	San Antonio Palopo	11	Noviembre	2023-03-11T00:00:00	2024-11-08T00:00:00	6	Velocidad del viento	11.3
16822	7	Sololá	712	San Antonio Palopó	9	San Antonio Palopo	11	Noviembre	2023-03-11T00:00:00	2024-11-08T00:00:00	7	Dirección del viento	11.27
16823	7	Sololá	712	San Antonio Palopó	9	San Antonio Palopo	11	Noviembre	2023-03-11T00:00:00	2024-11-08T00:00:00	1	Precipitación	0
16824	7	Sololá	712	San Antonio Palopó	9	San Antonio Palopo	11	Noviembre	2023-03-11T00:00:00	2024-11-08T00:00:00	8	Radiación solar	0
16825	7	Sololá	712	San Antonio Palopó	9	San Antonio Palopo	11	Noviembre	2023-03-11T00:00:00	2024-11-08T01:00:00	2	Temperatura media	20.1
16826	7	Sololá	712	San Antonio Palopó	9	San Antonio Palopo	11	Noviembre	2023-03-11T00:00:00	2024-11-08T01:00:00	4	Temperatura máxima	20.1
16827	7	Sololá	712	San Antonio Palopó	9	San Antonio Palopo	11	Noviembre	2023-03-11T00:00:00	2024-11-08T01:00:00	3	Temperatura mínima	19.9
16828	7	Sololá	712	San Antonio Palopó	9	San Antonio Palopo	11	Noviembre	2023-03-11T00:00:00	2024-11-08T01:00:00	5	Humedad	65
16829	7	Sololá	712	San Antonio Palopó	9	San Antonio Palopo	11	Noviembre	2023-03-11T00:00:00	2024-11-08T01:00:00	6	Velocidad del viento	6.4
16830	7	Sololá	712	San Antonio Palopó	9	San Antonio Palopo	11	Noviembre	2023-03-11T00:00:00	2024-11-08T01:00:00	7	Dirección del viento	6.44
16831	7	Sololá	712	San Antonio Palopó	9	San Antonio Palopo	11	Noviembre	2023-03-11T00:00:00	2024-11-08T01:00:00	1	Precipitación	0
16832	7	Sololá	712	San Antonio Palopó	9	San Antonio Palopo	11	Noviembre	2023-03-11T00:00:00	2024-11-08T01:00:00	8	Radiación solar	0
16833	7	Sololá	712	San Antonio Palopó	9	San Antonio Palopo	11	Noviembre	2023-03-11T00:00:00	2024-11-08T02:00:00	2	Temperatura media	19.7
16834	7	Sololá	712	San Antonio Palopó	9	San Antonio Palopo	11	Noviembre	2023-03-11T00:00:00	2024-11-08T02:00:00	4	Temperatura máxima	20.2
16835	7	Sololá	712	San Antonio Palopó	9	San Antonio Palopo	11	Noviembre	2023-03-11T00:00:00	2024-11-08T02:00:00	3	Temperatura mínima	19.6
16836	7	Sololá	712	San Antonio Palopó	9	San Antonio Palopo	11	Noviembre	2023-03-11T00:00:00	2024-11-08T02:00:00	5	Humedad	64
16837	7	Sololá	712	San Antonio Palopó	9	San Antonio Palopo	11	Noviembre	2023-03-11T00:00:00	2024-11-08T02:00:00	6	Velocidad del viento	8
16838	7	Sololá	712	San Antonio Palopó	9	San Antonio Palopo	11	Noviembre	2023-03-11T00:00:00	2024-11-08T02:00:00	7	Dirección del viento	8.05
16839	7	Sololá	712	San Antonio Palopó	9	San Antonio Palopo	11	Noviembre	2023-03-11T00:00:00	2024-11-08T02:00:00	1	Precipitación	0
16840	7	Sololá	712	San Antonio Palopó	9	San Antonio Palopo	11	Noviembre	2023-03-11T00:00:00	2024-11-08T02:00:00	8	Radiación solar	0
16841	7	Sololá	712	San Antonio Palopó	9	San Antonio Palopo	11	Noviembre	2023-03-11T00:00:00	2024-11-08T03:00:00	2	Temperatura media	19.2
16842	7	Sololá	712	San Antonio Palopó	9	San Antonio Palopo	11	Noviembre	2023-03-11T00:00:00	2024-11-08T03:00:00	4	Temperatura máxima	19.7
16843	7	Sololá	712	San Antonio Palopó	9	San Antonio Palopo	11	Noviembre	2023-03-11T00:00:00	2024-11-08T03:00:00	3	Temperatura mínima	19.2
16844	7	Sololá	712	San Antonio Palopó	9	San Antonio Palopo	11	Noviembre	2023-03-11T00:00:00	2024-11-08T03:00:00	5	Humedad	66
16845	7	Sololá	712	San Antonio Palopó	9	San Antonio Palopo	11	Noviembre	2023-03-11T00:00:00	2024-11-08T03:00:00	6	Velocidad del viento	11.3
16846	7	Sololá	712	San Antonio Palopó	9	San Antonio Palopo	11	Noviembre	2023-03-11T00:00:00	2024-11-08T03:00:00	7	Dirección del viento	11.27
16847	7	Sololá	712	San Antonio Palopó	9	San Antonio Palopo	11	Noviembre	2023-03-11T00:00:00	2024-11-08T03:00:00	1	Precipitación	0
16848	7	Sololá	712	San Antonio Palopó	9	San Antonio Palopo	11	Noviembre	2023-03-11T00:00:00	2024-11-08T03:00:00	8	Radiación solar	0
16849	7	Sololá	712	San Antonio Palopó	9	San Antonio Palopo	11	Noviembre	2023-03-11T00:00:00	2024-11-08T04:00:00	2	Temperatura media	19.1
16850	7	Sololá	712	San Antonio Palopó	9	San Antonio Palopo	11	Noviembre	2023-03-11T00:00:00	2024-11-08T04:00:00	4	Temperatura máxima	19.4
16851	7	Sololá	712	San Antonio Palopó	9	San Antonio Palopo	11	Noviembre	2023-03-11T00:00:00	2024-11-08T04:00:00	3	Temperatura mínima	19.1
16852	7	Sololá	712	San Antonio Palopó	9	San Antonio Palopo	11	Noviembre	2023-03-11T00:00:00	2024-11-08T04:00:00	5	Humedad	67
16853	7	Sololá	712	San Antonio Palopó	9	San Antonio Palopo	11	Noviembre	2023-03-11T00:00:00	2024-11-08T04:00:00	6	Velocidad del viento	14.5
16854	7	Sololá	712	San Antonio Palopó	9	San Antonio Palopo	11	Noviembre	2023-03-11T00:00:00	2024-11-08T04:00:00	7	Dirección del viento	14.48
16855	7	Sololá	712	San Antonio Palopó	9	San Antonio Palopo	11	Noviembre	2023-03-11T00:00:00	2024-11-08T04:00:00	1	Precipitación	0
16856	7	Sololá	712	San Antonio Palopó	9	San Antonio Palopo	11	Noviembre	2023-03-11T00:00:00	2024-11-08T04:00:00	8	Radiación solar	0
16857	7	Sololá	712	San Antonio Palopó	9	San Antonio Palopo	11	Noviembre	2023-03-11T00:00:00	2024-11-08T05:00:00	2	Temperatura media	19.1
16858	7	Sololá	712	San Antonio Palopó	9	San Antonio Palopo	11	Noviembre	2023-03-11T00:00:00	2024-11-08T05:00:00	4	Temperatura máxima	19.4
16859	7	Sololá	712	San Antonio Palopó	9	San Antonio Palopo	11	Noviembre	2023-03-11T00:00:00	2024-11-08T05:00:00	3	Temperatura mínima	19.1
16860	7	Sololá	712	San Antonio Palopó	9	San Antonio Palopo	11	Noviembre	2023-03-11T00:00:00	2024-11-08T05:00:00	5	Humedad	65
16861	7	Sololá	712	San Antonio Palopó	9	San Antonio Palopo	11	Noviembre	2023-03-11T00:00:00	2024-11-08T05:00:00	6	Velocidad del viento	11.3
16862	7	Sololá	712	San Antonio Palopó	9	San Antonio Palopo	11	Noviembre	2023-03-11T00:00:00	2024-11-08T05:00:00	7	Dirección del viento	11.27
16863	7	Sololá	712	San Antonio Palopó	9	San Antonio Palopo	11	Noviembre	2023-03-11T00:00:00	2024-11-08T05:00:00	1	Precipitación	0
16864	7	Sololá	712	San Antonio Palopó	9	San Antonio Palopo	11	Noviembre	2023-03-11T00:00:00	2024-11-08T05:00:00	8	Radiación solar	0
16865	7	Sololá	712	San Antonio Palopó	9	San Antonio Palopo	11	Noviembre	2023-03-11T00:00:00	2024-11-08T06:00:00	2	Temperatura media	19.4
16866	7	Sololá	712	San Antonio Palopó	9	San Antonio Palopo	11	Noviembre	2023-03-11T00:00:00	2024-11-08T06:00:00	4	Temperatura máxima	19.4
16867	7	Sololá	712	San Antonio Palopó	9	San Antonio Palopo	11	Noviembre	2023-03-11T00:00:00	2024-11-08T06:00:00	3	Temperatura mínima	18.9
16868	7	Sololá	712	San Antonio Palopó	9	San Antonio Palopo	11	Noviembre	2023-03-11T00:00:00	2024-11-08T06:00:00	5	Humedad	60
16869	7	Sololá	712	San Antonio Palopó	9	San Antonio Palopo	11	Noviembre	2023-03-11T00:00:00	2024-11-08T06:00:00	6	Velocidad del viento	20.9
16870	7	Sololá	712	San Antonio Palopó	9	San Antonio Palopo	11	Noviembre	2023-03-11T00:00:00	2024-11-08T06:00:00	7	Dirección del viento	20.92
16871	7	Sololá	712	San Antonio Palopó	9	San Antonio Palopo	11	Noviembre	2023-03-11T00:00:00	2024-11-08T06:00:00	1	Precipitación	0
16872	7	Sololá	712	San Antonio Palopó	9	San Antonio Palopo	11	Noviembre	2023-03-11T00:00:00	2024-11-08T06:00:00	8	Radiación solar	0
16873	7	Sololá	712	San Antonio Palopó	9	San Antonio Palopo	11	Noviembre	2023-03-11T00:00:00	2024-11-08T07:00:00	2	Temperatura media	19.9
16874	7	Sololá	712	San Antonio Palopó	9	San Antonio Palopo	11	Noviembre	2023-03-11T00:00:00	2024-11-08T07:00:00	4	Temperatura máxima	19.9
16875	7	Sololá	712	San Antonio Palopó	9	San Antonio Palopo	11	Noviembre	2023-03-11T00:00:00	2024-11-08T07:00:00	3	Temperatura mínima	19.4
16876	7	Sololá	712	San Antonio Palopó	9	San Antonio Palopo	11	Noviembre	2023-03-11T00:00:00	2024-11-08T07:00:00	5	Humedad	61
16877	7	Sololá	712	San Antonio Palopó	9	San Antonio Palopo	11	Noviembre	2023-03-11T00:00:00	2024-11-08T07:00:00	6	Velocidad del viento	9.7
16878	7	Sololá	712	San Antonio Palopó	9	San Antonio Palopo	11	Noviembre	2023-03-11T00:00:00	2024-11-08T07:00:00	7	Dirección del viento	9.66
16879	7	Sololá	712	San Antonio Palopó	9	San Antonio Palopo	11	Noviembre	2023-03-11T00:00:00	2024-11-08T07:00:00	1	Precipitación	0
16880	7	Sololá	712	San Antonio Palopó	9	San Antonio Palopo	11	Noviembre	2023-03-11T00:00:00	2024-11-08T07:00:00	8	Radiación solar	16
16881	7	Sololá	712	San Antonio Palopó	9	San Antonio Palopo	11	Noviembre	2023-03-11T00:00:00	2024-11-08T08:00:00	2	Temperatura media	20.8
16882	7	Sololá	712	San Antonio Palopó	9	San Antonio Palopo	11	Noviembre	2023-03-11T00:00:00	2024-11-08T08:00:00	4	Temperatura máxima	20.9
16883	7	Sololá	712	San Antonio Palopó	9	San Antonio Palopo	11	Noviembre	2023-03-11T00:00:00	2024-11-08T08:00:00	3	Temperatura mínima	19.9
16884	7	Sololá	712	San Antonio Palopó	9	San Antonio Palopo	11	Noviembre	2023-03-11T00:00:00	2024-11-08T08:00:00	5	Humedad	59
16885	7	Sololá	712	San Antonio Palopó	9	San Antonio Palopo	11	Noviembre	2023-03-11T00:00:00	2024-11-08T08:00:00	6	Velocidad del viento	6.4
16886	7	Sololá	712	San Antonio Palopó	9	San Antonio Palopo	11	Noviembre	2023-03-11T00:00:00	2024-11-08T08:00:00	7	Dirección del viento	6.44
16887	7	Sololá	712	San Antonio Palopó	9	San Antonio Palopo	11	Noviembre	2023-03-11T00:00:00	2024-11-08T08:00:00	1	Precipitación	0
16888	7	Sololá	712	San Antonio Palopó	9	San Antonio Palopo	11	Noviembre	2023-03-11T00:00:00	2024-11-08T08:00:00	8	Radiación solar	90
16889	7	Sololá	712	San Antonio Palopó	9	San Antonio Palopo	11	Noviembre	2023-03-11T00:00:00	2024-11-08T09:00:00	2	Temperatura media	21.9
16890	7	Sololá	712	San Antonio Palopó	9	San Antonio Palopo	11	Noviembre	2023-03-11T00:00:00	2024-11-08T09:00:00	4	Temperatura máxima	22.4
16891	7	Sololá	712	San Antonio Palopó	9	San Antonio Palopo	11	Noviembre	2023-03-11T00:00:00	2024-11-08T09:00:00	3	Temperatura mínima	20.8
16892	7	Sololá	712	San Antonio Palopó	9	San Antonio Palopo	11	Noviembre	2023-03-11T00:00:00	2024-11-08T09:00:00	5	Humedad	58
16893	7	Sololá	712	San Antonio Palopó	9	San Antonio Palopo	11	Noviembre	2023-03-11T00:00:00	2024-11-08T09:00:00	6	Velocidad del viento	9.7
16894	7	Sololá	712	San Antonio Palopó	9	San Antonio Palopo	11	Noviembre	2023-03-11T00:00:00	2024-11-08T09:00:00	7	Dirección del viento	9.66
16895	7	Sololá	712	San Antonio Palopó	9	San Antonio Palopo	11	Noviembre	2023-03-11T00:00:00	2024-11-08T09:00:00	1	Precipitación	0
16896	7	Sololá	712	San Antonio Palopó	9	San Antonio Palopo	11	Noviembre	2023-03-11T00:00:00	2024-11-08T09:00:00	8	Radiación solar	283
16897	7	Sololá	712	San Antonio Palopó	9	San Antonio Palopo	11	Noviembre	2023-03-11T00:00:00	2024-11-08T10:00:00	2	Temperatura media	22.1
16898	7	Sololá	712	San Antonio Palopó	9	San Antonio Palopo	11	Noviembre	2023-03-11T00:00:00	2024-11-08T10:00:00	4	Temperatura máxima	22.2
16899	7	Sololá	712	San Antonio Palopó	9	San Antonio Palopo	11	Noviembre	2023-03-11T00:00:00	2024-11-08T10:00:00	3	Temperatura mínima	21.8
16900	7	Sololá	712	San Antonio Palopó	9	San Antonio Palopo	11	Noviembre	2023-03-11T00:00:00	2024-11-08T10:00:00	5	Humedad	60
16901	7	Sololá	712	San Antonio Palopó	9	San Antonio Palopo	11	Noviembre	2023-03-11T00:00:00	2024-11-08T10:00:00	6	Velocidad del viento	11.3
16902	7	Sololá	712	San Antonio Palopó	9	San Antonio Palopo	11	Noviembre	2023-03-11T00:00:00	2024-11-08T10:00:00	7	Dirección del viento	11.27
16903	7	Sololá	712	San Antonio Palopó	9	San Antonio Palopo	11	Noviembre	2023-03-11T00:00:00	2024-11-08T10:00:00	1	Precipitación	0
16904	7	Sololá	712	San Antonio Palopó	9	San Antonio Palopo	11	Noviembre	2023-03-11T00:00:00	2024-11-08T10:00:00	8	Radiación solar	278
16905	7	Sololá	712	San Antonio Palopó	9	San Antonio Palopo	11	Noviembre	2023-03-11T00:00:00	2024-11-08T11:00:00	2	Temperatura media	22.6
16906	7	Sololá	712	San Antonio Palopó	9	San Antonio Palopo	11	Noviembre	2023-03-11T00:00:00	2024-11-08T11:00:00	4	Temperatura máxima	22.6
16907	7	Sololá	712	San Antonio Palopó	9	San Antonio Palopo	11	Noviembre	2023-03-11T00:00:00	2024-11-08T11:00:00	3	Temperatura mínima	18.6
16908	7	Sololá	712	San Antonio Palopó	9	San Antonio Palopo	11	Noviembre	2023-03-11T00:00:00	2024-11-08T11:00:00	5	Humedad	59
16909	7	Sololá	712	San Antonio Palopó	9	San Antonio Palopo	11	Noviembre	2023-03-11T00:00:00	2024-11-08T11:00:00	6	Velocidad del viento	8
16910	7	Sololá	712	San Antonio Palopó	9	San Antonio Palopo	11	Noviembre	2023-03-11T00:00:00	2024-11-08T11:00:00	7	Dirección del viento	8.05
16911	7	Sololá	712	San Antonio Palopó	9	San Antonio Palopo	11	Noviembre	2023-03-11T00:00:00	2024-11-08T11:00:00	1	Precipitación	0
16912	7	Sololá	712	San Antonio Palopó	9	San Antonio Palopo	11	Noviembre	2023-03-11T00:00:00	2024-11-08T11:00:00	8	Radiación solar	270
16913	7	Sololá	712	San Antonio Palopó	9	San Antonio Palopo	11	Noviembre	2023-03-11T00:00:00	2024-11-08T12:00:00	2	Temperatura media	23.1
16914	7	Sololá	712	San Antonio Palopó	9	San Antonio Palopo	11	Noviembre	2023-03-11T00:00:00	2024-11-08T12:00:00	4	Temperatura máxima	23.7
16915	7	Sololá	712	San Antonio Palopó	9	San Antonio Palopo	11	Noviembre	2023-03-11T00:00:00	2024-11-08T12:00:00	3	Temperatura mínima	22.5
16916	7	Sololá	712	San Antonio Palopó	9	San Antonio Palopo	11	Noviembre	2023-03-11T00:00:00	2024-11-08T12:00:00	5	Humedad	59
16917	7	Sololá	712	San Antonio Palopó	9	San Antonio Palopo	11	Noviembre	2023-03-11T00:00:00	2024-11-08T12:00:00	6	Velocidad del viento	8
16918	7	Sololá	712	San Antonio Palopó	9	San Antonio Palopo	11	Noviembre	2023-03-11T00:00:00	2024-11-08T12:00:00	7	Dirección del viento	8.05
16919	7	Sololá	712	San Antonio Palopó	9	San Antonio Palopo	11	Noviembre	2023-03-11T00:00:00	2024-11-08T12:00:00	1	Precipitación	0
16920	7	Sololá	712	San Antonio Palopó	9	San Antonio Palopo	11	Noviembre	2023-03-11T00:00:00	2024-11-08T12:00:00	8	Radiación solar	365
16921	7	Sololá	712	San Antonio Palopó	9	San Antonio Palopo	11	Noviembre	2023-03-11T00:00:00	2024-11-08T13:00:00	2	Temperatura media	23.3
16922	7	Sololá	712	San Antonio Palopó	9	San Antonio Palopo	11	Noviembre	2023-03-11T00:00:00	2024-11-08T13:00:00	4	Temperatura máxima	23.5
16923	7	Sololá	712	San Antonio Palopó	9	San Antonio Palopo	11	Noviembre	2023-03-11T00:00:00	2024-11-08T13:00:00	3	Temperatura mínima	23.1
16924	7	Sololá	712	San Antonio Palopó	9	San Antonio Palopo	11	Noviembre	2023-03-11T00:00:00	2024-11-08T13:00:00	5	Humedad	57
16925	7	Sololá	712	San Antonio Palopó	9	San Antonio Palopo	11	Noviembre	2023-03-11T00:00:00	2024-11-08T13:00:00	6	Velocidad del viento	9.7
16926	7	Sololá	712	San Antonio Palopó	9	San Antonio Palopo	11	Noviembre	2023-03-11T00:00:00	2024-11-08T13:00:00	7	Dirección del viento	9.66
16927	7	Sololá	712	San Antonio Palopó	9	San Antonio Palopo	11	Noviembre	2023-03-11T00:00:00	2024-11-08T13:00:00	1	Precipitación	0
16928	7	Sololá	712	San Antonio Palopó	9	San Antonio Palopo	11	Noviembre	2023-03-11T00:00:00	2024-11-08T13:00:00	8	Radiación solar	281
16929	7	Sololá	712	San Antonio Palopó	9	San Antonio Palopo	11	Noviembre	2023-03-11T00:00:00	2024-11-08T14:00:00	2	Temperatura media	22.4
16930	7	Sololá	712	San Antonio Palopó	9	San Antonio Palopo	11	Noviembre	2023-03-11T00:00:00	2024-11-08T14:00:00	4	Temperatura máxima	23.3
16931	7	Sololá	712	San Antonio Palopó	9	San Antonio Palopo	11	Noviembre	2023-03-11T00:00:00	2024-11-08T14:00:00	3	Temperatura mínima	22.4
16932	7	Sololá	712	San Antonio Palopó	9	San Antonio Palopo	11	Noviembre	2023-03-11T00:00:00	2024-11-08T14:00:00	5	Humedad	60
16933	7	Sololá	712	San Antonio Palopó	9	San Antonio Palopo	11	Noviembre	2023-03-11T00:00:00	2024-11-08T14:00:00	6	Velocidad del viento	11.3
16934	7	Sololá	712	San Antonio Palopó	9	San Antonio Palopo	11	Noviembre	2023-03-11T00:00:00	2024-11-08T14:00:00	7	Dirección del viento	11.27
16935	7	Sololá	712	San Antonio Palopó	9	San Antonio Palopo	11	Noviembre	2023-03-11T00:00:00	2024-11-08T14:00:00	1	Precipitación	0
16936	7	Sololá	712	San Antonio Palopó	9	San Antonio Palopo	11	Noviembre	2023-03-11T00:00:00	2024-11-08T14:00:00	8	Radiación solar	164
16937	7	Sololá	712	San Antonio Palopó	9	San Antonio Palopo	11	Noviembre	2023-03-11T00:00:00	2024-11-08T15:00:00	2	Temperatura media	21.9
16938	7	Sololá	712	San Antonio Palopó	9	San Antonio Palopo	11	Noviembre	2023-03-11T00:00:00	2024-11-08T15:00:00	4	Temperatura máxima	22.4
16939	7	Sololá	712	San Antonio Palopó	9	San Antonio Palopo	11	Noviembre	2023-03-11T00:00:00	2024-11-08T15:00:00	3	Temperatura mínima	21.7
16940	7	Sololá	712	San Antonio Palopó	9	San Antonio Palopo	11	Noviembre	2023-03-11T00:00:00	2024-11-08T15:00:00	5	Humedad	61
16941	7	Sololá	712	San Antonio Palopó	9	San Antonio Palopo	11	Noviembre	2023-03-11T00:00:00	2024-11-08T15:00:00	6	Velocidad del viento	11.3
16942	7	Sololá	712	San Antonio Palopó	9	San Antonio Palopo	11	Noviembre	2023-03-11T00:00:00	2024-11-08T15:00:00	7	Dirección del viento	11.27
16943	7	Sololá	712	San Antonio Palopó	9	San Antonio Palopo	11	Noviembre	2023-03-11T00:00:00	2024-11-08T15:00:00	1	Precipitación	0
16944	7	Sololá	712	San Antonio Palopó	9	San Antonio Palopo	11	Noviembre	2023-03-11T00:00:00	2024-11-08T15:00:00	8	Radiación solar	112
16945	7	Sololá	712	San Antonio Palopó	9	San Antonio Palopo	11	Noviembre	2023-03-11T00:00:00	2024-11-08T16:00:00	2	Temperatura media	22.1
16946	7	Sololá	712	San Antonio Palopó	9	San Antonio Palopo	11	Noviembre	2023-03-11T00:00:00	2024-11-08T16:00:00	4	Temperatura máxima	22.1
16947	7	Sololá	712	San Antonio Palopó	9	San Antonio Palopo	11	Noviembre	2023-03-11T00:00:00	2024-11-08T16:00:00	3	Temperatura mínima	21.8
16948	7	Sololá	712	San Antonio Palopó	9	San Antonio Palopo	11	Noviembre	2023-03-11T00:00:00	2024-11-08T16:00:00	5	Humedad	62
16949	7	Sololá	712	San Antonio Palopó	9	San Antonio Palopo	11	Noviembre	2023-03-11T00:00:00	2024-11-08T16:00:00	6	Velocidad del viento	11.3
16950	7	Sololá	712	San Antonio Palopó	9	San Antonio Palopo	11	Noviembre	2023-03-11T00:00:00	2024-11-08T16:00:00	7	Dirección del viento	11.27
16951	7	Sololá	712	San Antonio Palopó	9	San Antonio Palopo	11	Noviembre	2023-03-11T00:00:00	2024-11-08T16:00:00	1	Precipitación	0
16952	7	Sololá	712	San Antonio Palopó	9	San Antonio Palopo	11	Noviembre	2023-03-11T00:00:00	2024-11-08T16:00:00	8	Radiación solar	119
16953	7	Sololá	712	San Antonio Palopó	9	San Antonio Palopo	11	Noviembre	2023-03-11T00:00:00	2024-11-08T17:00:00	2	Temperatura media	21.7
16954	7	Sololá	712	San Antonio Palopó	9	San Antonio Palopo	11	Noviembre	2023-03-11T00:00:00	2024-11-08T17:00:00	4	Temperatura máxima	22.6
16955	7	Sololá	712	San Antonio Palopó	9	San Antonio Palopo	11	Noviembre	2023-03-11T00:00:00	2024-11-08T17:00:00	3	Temperatura mínima	21.7
16956	7	Sololá	712	San Antonio Palopó	9	San Antonio Palopo	11	Noviembre	2023-03-11T00:00:00	2024-11-08T17:00:00	5	Humedad	62
16957	7	Sololá	712	San Antonio Palopó	9	San Antonio Palopo	11	Noviembre	2023-03-11T00:00:00	2024-11-08T17:00:00	6	Velocidad del viento	8
16958	7	Sololá	712	San Antonio Palopó	9	San Antonio Palopo	11	Noviembre	2023-03-11T00:00:00	2024-11-08T17:00:00	7	Dirección del viento	8.05
16959	7	Sololá	712	San Antonio Palopó	9	San Antonio Palopo	11	Noviembre	2023-03-11T00:00:00	2024-11-08T17:00:00	1	Precipitación	0
16960	7	Sololá	712	San Antonio Palopó	9	San Antonio Palopo	11	Noviembre	2023-03-11T00:00:00	2024-11-08T17:00:00	8	Radiación solar	130
16961	7	Sololá	712	San Antonio Palopó	9	San Antonio Palopo	11	Noviembre	2023-03-11T00:00:00	2024-11-08T18:00:00	2	Temperatura media	20.7
16962	7	Sololá	712	San Antonio Palopó	9	San Antonio Palopo	11	Noviembre	2023-03-11T00:00:00	2024-11-08T18:00:00	4	Temperatura máxima	21.7
16963	7	Sololá	712	San Antonio Palopó	9	San Antonio Palopo	11	Noviembre	2023-03-11T00:00:00	2024-11-08T18:00:00	3	Temperatura mínima	20.6
16964	7	Sololá	712	San Antonio Palopó	9	San Antonio Palopo	11	Noviembre	2023-03-11T00:00:00	2024-11-08T18:00:00	5	Humedad	62
16965	7	Sololá	712	San Antonio Palopó	9	San Antonio Palopo	11	Noviembre	2023-03-11T00:00:00	2024-11-08T18:00:00	6	Velocidad del viento	9.7
16966	7	Sololá	712	San Antonio Palopó	9	San Antonio Palopo	11	Noviembre	2023-03-11T00:00:00	2024-11-08T18:00:00	7	Dirección del viento	9.66
16967	7	Sololá	712	San Antonio Palopó	9	San Antonio Palopo	11	Noviembre	2023-03-11T00:00:00	2024-11-08T18:00:00	1	Precipitación	0
16968	7	Sololá	712	San Antonio Palopó	9	San Antonio Palopo	11	Noviembre	2023-03-11T00:00:00	2024-11-08T18:00:00	8	Radiación solar	17
16969	7	Sololá	712	San Antonio Palopó	9	San Antonio Palopo	11	Noviembre	2023-03-11T00:00:00	2024-11-08T19:00:00	2	Temperatura media	20.4
16970	7	Sololá	712	San Antonio Palopó	9	San Antonio Palopo	11	Noviembre	2023-03-11T00:00:00	2024-11-08T19:00:00	4	Temperatura máxima	20.7
16971	7	Sololá	712	San Antonio Palopó	9	San Antonio Palopo	11	Noviembre	2023-03-11T00:00:00	2024-11-08T19:00:00	3	Temperatura mínima	20.4
16972	7	Sololá	712	San Antonio Palopó	9	San Antonio Palopo	11	Noviembre	2023-03-11T00:00:00	2024-11-08T19:00:00	5	Humedad	61
16973	7	Sololá	712	San Antonio Palopó	9	San Antonio Palopo	11	Noviembre	2023-03-11T00:00:00	2024-11-08T19:00:00	6	Velocidad del viento	17.7
16974	7	Sololá	712	San Antonio Palopó	9	San Antonio Palopo	11	Noviembre	2023-03-11T00:00:00	2024-11-08T19:00:00	7	Dirección del viento	17.7
16975	7	Sololá	712	San Antonio Palopó	9	San Antonio Palopo	11	Noviembre	2023-03-11T00:00:00	2024-11-08T19:00:00	1	Precipitación	0
16976	7	Sololá	712	San Antonio Palopó	9	San Antonio Palopo	11	Noviembre	2023-03-11T00:00:00	2024-11-08T19:00:00	8	Radiación solar	0
16977	7	Sololá	712	San Antonio Palopó	9	San Antonio Palopo	11	Noviembre	2023-03-11T00:00:00	2024-11-08T20:00:00	2	Temperatura media	20.4
16978	7	Sololá	712	San Antonio Palopó	9	San Antonio Palopo	11	Noviembre	2023-03-11T00:00:00	2024-11-08T20:00:00	4	Temperatura máxima	20.5
16979	7	Sololá	712	San Antonio Palopó	9	San Antonio Palopo	11	Noviembre	2023-03-11T00:00:00	2024-11-08T20:00:00	3	Temperatura mínima	20.3
16980	7	Sololá	712	San Antonio Palopó	9	San Antonio Palopo	11	Noviembre	2023-03-11T00:00:00	2024-11-08T20:00:00	5	Humedad	62
16981	7	Sololá	712	San Antonio Palopó	9	San Antonio Palopo	11	Noviembre	2023-03-11T00:00:00	2024-11-08T20:00:00	6	Velocidad del viento	16.1
16982	7	Sololá	712	San Antonio Palopó	9	San Antonio Palopo	11	Noviembre	2023-03-11T00:00:00	2024-11-08T20:00:00	7	Dirección del viento	16.09
16983	7	Sololá	712	San Antonio Palopó	9	San Antonio Palopo	11	Noviembre	2023-03-11T00:00:00	2024-11-08T20:00:00	1	Precipitación	0
16984	7	Sololá	712	San Antonio Palopó	9	San Antonio Palopo	11	Noviembre	2023-03-11T00:00:00	2024-11-08T20:00:00	8	Radiación solar	0
16985	7	Sololá	712	San Antonio Palopó	9	San Antonio Palopo	11	Noviembre	2023-03-11T00:00:00	2024-11-08T21:00:00	2	Temperatura media	20.6
16986	7	Sololá	712	San Antonio Palopó	9	San Antonio Palopo	11	Noviembre	2023-03-11T00:00:00	2024-11-08T21:00:00	4	Temperatura máxima	20.7
16987	7	Sololá	712	San Antonio Palopó	9	San Antonio Palopo	11	Noviembre	2023-03-11T00:00:00	2024-11-08T21:00:00	3	Temperatura mínima	20.4
16988	7	Sololá	712	San Antonio Palopó	9	San Antonio Palopo	11	Noviembre	2023-03-11T00:00:00	2024-11-08T21:00:00	5	Humedad	63
16989	7	Sololá	712	San Antonio Palopó	9	San Antonio Palopo	11	Noviembre	2023-03-11T00:00:00	2024-11-08T21:00:00	6	Velocidad del viento	14.5
16990	7	Sololá	712	San Antonio Palopó	9	San Antonio Palopo	11	Noviembre	2023-03-11T00:00:00	2024-11-08T21:00:00	7	Dirección del viento	14.48
16991	7	Sololá	712	San Antonio Palopó	9	San Antonio Palopo	11	Noviembre	2023-03-11T00:00:00	2024-11-08T21:00:00	1	Precipitación	0
16992	7	Sololá	712	San Antonio Palopó	9	San Antonio Palopo	11	Noviembre	2023-03-11T00:00:00	2024-11-08T21:00:00	8	Radiación solar	0
16993	7	Sololá	712	San Antonio Palopó	9	San Antonio Palopo	11	Noviembre	2023-03-11T00:00:00	2024-11-08T22:00:00	2	Temperatura media	20
16994	7	Sololá	712	San Antonio Palopó	9	San Antonio Palopo	11	Noviembre	2023-03-11T00:00:00	2024-11-08T22:00:00	4	Temperatura máxima	20.6
16995	7	Sololá	712	San Antonio Palopó	9	San Antonio Palopo	11	Noviembre	2023-03-11T00:00:00	2024-11-08T22:00:00	3	Temperatura mínima	19.9
16996	7	Sololá	712	San Antonio Palopó	9	San Antonio Palopo	11	Noviembre	2023-03-11T00:00:00	2024-11-08T22:00:00	5	Humedad	64
16997	7	Sololá	712	San Antonio Palopó	9	San Antonio Palopo	11	Noviembre	2023-03-11T00:00:00	2024-11-08T22:00:00	6	Velocidad del viento	11.3
16998	7	Sololá	712	San Antonio Palopó	9	San Antonio Palopo	11	Noviembre	2023-03-11T00:00:00	2024-11-08T22:00:00	7	Dirección del viento	11.27
16999	7	Sololá	712	San Antonio Palopó	9	San Antonio Palopo	11	Noviembre	2023-03-11T00:00:00	2024-11-08T22:00:00	1	Precipitación	0
17000	7	Sololá	712	San Antonio Palopó	9	San Antonio Palopo	11	Noviembre	2023-03-11T00:00:00	2024-11-08T22:00:00	8	Radiación solar	0
17001	7	Sololá	712	San Antonio Palopó	9	San Antonio Palopo	11	Noviembre	2023-03-11T00:00:00	2024-11-08T23:00:00	2	Temperatura media	20.7
17002	7	Sololá	712	San Antonio Palopó	9	San Antonio Palopo	11	Noviembre	2023-03-11T00:00:00	2024-11-08T23:00:00	4	Temperatura máxima	20.7
17003	7	Sololá	712	San Antonio Palopó	9	San Antonio Palopo	11	Noviembre	2023-03-11T00:00:00	2024-11-08T23:00:00	3	Temperatura mínima	19.9
17004	7	Sololá	712	San Antonio Palopó	9	San Antonio Palopo	11	Noviembre	2023-03-11T00:00:00	2024-11-08T23:00:00	5	Humedad	64
17005	7	Sololá	712	San Antonio Palopó	9	San Antonio Palopo	11	Noviembre	2023-03-11T00:00:00	2024-11-08T23:00:00	6	Velocidad del viento	8
17006	7	Sololá	712	San Antonio Palopó	9	San Antonio Palopo	11	Noviembre	2023-03-11T00:00:00	2024-11-08T23:00:00	7	Dirección del viento	8.05
17007	7	Sololá	712	San Antonio Palopó	9	San Antonio Palopo	11	Noviembre	2023-03-11T00:00:00	2024-11-08T23:00:00	1	Precipitación	0
17008	7	Sololá	712	San Antonio Palopó	9	San Antonio Palopo	11	Noviembre	2023-03-11T00:00:00	2024-11-08T23:00:00	8	Radiación solar	0
17009	7	Sololá	712	San Antonio Palopó	9	San Antonio Palopo	11	Noviembre	2023-04-11T00:00:00	2024-11-08T00:00:00	2	Temperatura media	21.2
17010	7	Sololá	712	San Antonio Palopó	9	San Antonio Palopo	11	Noviembre	2023-04-11T00:00:00	2024-11-08T00:00:00	4	Temperatura máxima	21.7
17011	7	Sololá	712	San Antonio Palopó	9	San Antonio Palopo	11	Noviembre	2023-04-11T00:00:00	2024-11-08T00:00:00	3	Temperatura mínima	20.6
17012	7	Sololá	712	San Antonio Palopó	9	San Antonio Palopo	11	Noviembre	2023-04-11T00:00:00	2024-11-08T00:00:00	5	Humedad	63
17013	7	Sololá	712	San Antonio Palopó	9	San Antonio Palopo	11	Noviembre	2023-04-11T00:00:00	2024-11-08T00:00:00	6	Velocidad del viento	9.7
17014	7	Sololá	712	San Antonio Palopó	9	San Antonio Palopo	11	Noviembre	2023-04-11T00:00:00	2024-11-08T00:00:00	7	Dirección del viento	9.66
17015	7	Sololá	712	San Antonio Palopó	9	San Antonio Palopo	11	Noviembre	2023-04-11T00:00:00	2024-11-08T00:00:00	1	Precipitación	0
17016	7	Sololá	712	San Antonio Palopó	9	San Antonio Palopo	11	Noviembre	2023-04-11T00:00:00	2024-11-08T00:00:00	8	Radiación solar	0
17017	7	Sololá	712	San Antonio Palopó	9	San Antonio Palopo	11	Noviembre	2023-04-11T00:00:00	2024-11-08T01:00:00	2	Temperatura media	20.2
17018	7	Sololá	712	San Antonio Palopó	9	San Antonio Palopo	11	Noviembre	2023-04-11T00:00:00	2024-11-08T01:00:00	4	Temperatura máxima	21.2
17019	7	Sololá	712	San Antonio Palopó	9	San Antonio Palopo	11	Noviembre	2023-04-11T00:00:00	2024-11-08T01:00:00	3	Temperatura mínima	20.2
17020	7	Sololá	712	San Antonio Palopó	9	San Antonio Palopo	11	Noviembre	2023-04-11T00:00:00	2024-11-08T01:00:00	5	Humedad	67
17021	7	Sololá	712	San Antonio Palopó	9	San Antonio Palopo	11	Noviembre	2023-04-11T00:00:00	2024-11-08T01:00:00	6	Velocidad del viento	8
17022	7	Sololá	712	San Antonio Palopó	9	San Antonio Palopo	11	Noviembre	2023-04-11T00:00:00	2024-11-08T01:00:00	7	Dirección del viento	8.05
17023	7	Sololá	712	San Antonio Palopó	9	San Antonio Palopo	11	Noviembre	2023-04-11T00:00:00	2024-11-08T01:00:00	1	Precipitación	0
17024	7	Sololá	712	San Antonio Palopó	9	San Antonio Palopo	11	Noviembre	2023-04-11T00:00:00	2024-11-08T01:00:00	8	Radiación solar	0
17025	7	Sololá	712	San Antonio Palopó	9	San Antonio Palopo	11	Noviembre	2023-04-11T00:00:00	2024-11-08T02:00:00	2	Temperatura media	20.6
17026	7	Sololá	712	San Antonio Palopó	9	San Antonio Palopo	11	Noviembre	2023-04-11T00:00:00	2024-11-08T02:00:00	4	Temperatura máxima	20.8
17027	7	Sololá	712	San Antonio Palopó	9	San Antonio Palopo	11	Noviembre	2023-04-11T00:00:00	2024-11-08T02:00:00	3	Temperatura mínima	20.2
17028	7	Sololá	712	San Antonio Palopó	9	San Antonio Palopo	11	Noviembre	2023-04-11T00:00:00	2024-11-08T02:00:00	5	Humedad	67
17029	7	Sololá	712	San Antonio Palopó	9	San Antonio Palopo	11	Noviembre	2023-04-11T00:00:00	2024-11-08T02:00:00	6	Velocidad del viento	8
17030	7	Sololá	712	San Antonio Palopó	9	San Antonio Palopo	11	Noviembre	2023-04-11T00:00:00	2024-11-08T02:00:00	7	Dirección del viento	8.05
17031	7	Sololá	712	San Antonio Palopó	9	San Antonio Palopo	11	Noviembre	2023-04-11T00:00:00	2024-11-08T02:00:00	1	Precipitación	0
17032	7	Sololá	712	San Antonio Palopó	9	San Antonio Palopo	11	Noviembre	2023-04-11T00:00:00	2024-11-08T02:00:00	8	Radiación solar	0
17033	7	Sololá	712	San Antonio Palopó	9	San Antonio Palopo	11	Noviembre	2023-04-11T00:00:00	2024-11-08T03:00:00	2	Temperatura media	21
17034	7	Sololá	712	San Antonio Palopó	9	San Antonio Palopo	11	Noviembre	2023-04-11T00:00:00	2024-11-08T03:00:00	4	Temperatura máxima	21
17035	7	Sololá	712	San Antonio Palopó	9	San Antonio Palopo	11	Noviembre	2023-04-11T00:00:00	2024-11-08T03:00:00	3	Temperatura mínima	20.6
17036	7	Sololá	712	San Antonio Palopó	9	San Antonio Palopo	11	Noviembre	2023-04-11T00:00:00	2024-11-08T03:00:00	5	Humedad	65
17037	7	Sololá	712	San Antonio Palopó	9	San Antonio Palopo	11	Noviembre	2023-04-11T00:00:00	2024-11-08T03:00:00	6	Velocidad del viento	12.9
17038	7	Sololá	712	San Antonio Palopó	9	San Antonio Palopo	11	Noviembre	2023-04-11T00:00:00	2024-11-08T03:00:00	7	Dirección del viento	12.87
17039	7	Sololá	712	San Antonio Palopó	9	San Antonio Palopo	11	Noviembre	2023-04-11T00:00:00	2024-11-08T03:00:00	1	Precipitación	0
17040	7	Sololá	712	San Antonio Palopó	9	San Antonio Palopo	11	Noviembre	2023-04-11T00:00:00	2024-11-08T03:00:00	8	Radiación solar	0
17041	7	Sololá	712	San Antonio Palopó	9	San Antonio Palopo	11	Noviembre	2023-04-11T00:00:00	2024-11-08T04:00:00	2	Temperatura media	20.8
17042	7	Sololá	712	San Antonio Palopó	9	San Antonio Palopo	11	Noviembre	2023-04-11T00:00:00	2024-11-08T04:00:00	4	Temperatura máxima	21.1
17043	7	Sololá	712	San Antonio Palopó	9	San Antonio Palopo	11	Noviembre	2023-04-11T00:00:00	2024-11-08T04:00:00	3	Temperatura mínima	20.5
17044	7	Sololá	712	San Antonio Palopó	9	San Antonio Palopo	11	Noviembre	2023-04-11T00:00:00	2024-11-08T04:00:00	5	Humedad	66
17045	7	Sololá	712	San Antonio Palopó	9	San Antonio Palopo	11	Noviembre	2023-04-11T00:00:00	2024-11-08T04:00:00	6	Velocidad del viento	8
17046	7	Sololá	712	San Antonio Palopó	9	San Antonio Palopo	11	Noviembre	2023-04-11T00:00:00	2024-11-08T04:00:00	7	Dirección del viento	8.05
17047	7	Sololá	712	San Antonio Palopó	9	San Antonio Palopo	11	Noviembre	2023-04-11T00:00:00	2024-11-08T04:00:00	1	Precipitación	0
17048	7	Sololá	712	San Antonio Palopó	9	San Antonio Palopo	11	Noviembre	2023-04-11T00:00:00	2024-11-08T04:00:00	8	Radiación solar	0
17049	7	Sololá	712	San Antonio Palopó	9	San Antonio Palopo	11	Noviembre	2023-04-11T00:00:00	2024-11-08T05:00:00	2	Temperatura media	20.4
17050	7	Sololá	712	San Antonio Palopó	9	San Antonio Palopo	11	Noviembre	2023-04-11T00:00:00	2024-11-08T05:00:00	4	Temperatura máxima	20.8
17051	7	Sololá	712	San Antonio Palopó	9	San Antonio Palopo	11	Noviembre	2023-04-11T00:00:00	2024-11-08T05:00:00	3	Temperatura mínima	20.4
17052	7	Sololá	712	San Antonio Palopó	9	San Antonio Palopo	11	Noviembre	2023-04-11T00:00:00	2024-11-08T05:00:00	5	Humedad	67
17053	7	Sololá	712	San Antonio Palopó	9	San Antonio Palopo	11	Noviembre	2023-04-11T00:00:00	2024-11-08T05:00:00	6	Velocidad del viento	6.4
17054	7	Sololá	712	San Antonio Palopó	9	San Antonio Palopo	11	Noviembre	2023-04-11T00:00:00	2024-11-08T05:00:00	7	Dirección del viento	6.44
17055	7	Sololá	712	San Antonio Palopó	9	San Antonio Palopo	11	Noviembre	2023-04-11T00:00:00	2024-11-08T05:00:00	1	Precipitación	0
17056	7	Sololá	712	San Antonio Palopó	9	San Antonio Palopo	11	Noviembre	2023-04-11T00:00:00	2024-11-08T05:00:00	8	Radiación solar	0
17057	7	Sololá	712	San Antonio Palopó	9	San Antonio Palopo	11	Noviembre	2023-04-11T00:00:00	2024-11-08T06:00:00	2	Temperatura media	20.7
17058	7	Sololá	712	San Antonio Palopó	9	San Antonio Palopo	11	Noviembre	2023-04-11T00:00:00	2024-11-08T06:00:00	4	Temperatura máxima	20.8
17059	7	Sololá	712	San Antonio Palopó	9	San Antonio Palopo	11	Noviembre	2023-04-11T00:00:00	2024-11-08T06:00:00	3	Temperatura mínima	20.4
17060	7	Sololá	712	San Antonio Palopó	9	San Antonio Palopo	11	Noviembre	2023-04-11T00:00:00	2024-11-08T06:00:00	5	Humedad	68
17061	7	Sololá	712	San Antonio Palopó	9	San Antonio Palopo	11	Noviembre	2023-04-11T00:00:00	2024-11-08T06:00:00	6	Velocidad del viento	6.4
17062	7	Sololá	712	San Antonio Palopó	9	San Antonio Palopo	11	Noviembre	2023-04-11T00:00:00	2024-11-08T06:00:00	7	Dirección del viento	6.44
17063	7	Sololá	712	San Antonio Palopó	9	San Antonio Palopo	11	Noviembre	2023-04-11T00:00:00	2024-11-08T06:00:00	1	Precipitación	0
17064	7	Sololá	712	San Antonio Palopó	9	San Antonio Palopo	11	Noviembre	2023-04-11T00:00:00	2024-11-08T06:00:00	8	Radiación solar	0
17065	7	Sololá	712	San Antonio Palopó	9	San Antonio Palopo	11	Noviembre	2023-04-11T00:00:00	2024-11-08T07:00:00	2	Temperatura media	21
17066	7	Sololá	712	San Antonio Palopó	9	San Antonio Palopo	11	Noviembre	2023-04-11T00:00:00	2024-11-08T07:00:00	4	Temperatura máxima	21.1
17067	7	Sololá	712	San Antonio Palopó	9	San Antonio Palopo	11	Noviembre	2023-04-11T00:00:00	2024-11-08T07:00:00	3	Temperatura mínima	20.7
17068	7	Sololá	712	San Antonio Palopó	9	San Antonio Palopo	11	Noviembre	2023-04-11T00:00:00	2024-11-08T07:00:00	5	Humedad	68
17069	7	Sololá	712	San Antonio Palopó	9	San Antonio Palopo	11	Noviembre	2023-04-11T00:00:00	2024-11-08T07:00:00	6	Velocidad del viento	9.7
17070	7	Sololá	712	San Antonio Palopó	9	San Antonio Palopo	11	Noviembre	2023-04-11T00:00:00	2024-11-08T07:00:00	7	Dirección del viento	9.66
17071	7	Sololá	712	San Antonio Palopó	9	San Antonio Palopo	11	Noviembre	2023-04-11T00:00:00	2024-11-08T07:00:00	1	Precipitación	0
17072	7	Sololá	712	San Antonio Palopó	9	San Antonio Palopo	11	Noviembre	2023-04-11T00:00:00	2024-11-08T07:00:00	8	Radiación solar	36
17073	7	Sololá	712	San Antonio Palopó	9	San Antonio Palopo	11	Noviembre	2023-04-11T00:00:00	2024-11-08T08:00:00	2	Temperatura media	22.1
17074	7	Sololá	712	San Antonio Palopó	9	San Antonio Palopo	11	Noviembre	2023-04-11T00:00:00	2024-11-08T08:00:00	4	Temperatura máxima	22.1
17075	7	Sololá	712	San Antonio Palopó	9	San Antonio Palopo	11	Noviembre	2023-04-11T00:00:00	2024-11-08T08:00:00	3	Temperatura mínima	20.9
17076	7	Sololá	712	San Antonio Palopó	9	San Antonio Palopo	11	Noviembre	2023-04-11T00:00:00	2024-11-08T08:00:00	5	Humedad	66
17077	7	Sololá	712	San Antonio Palopó	9	San Antonio Palopo	11	Noviembre	2023-04-11T00:00:00	2024-11-08T08:00:00	6	Velocidad del viento	6.4
17078	7	Sololá	712	San Antonio Palopó	9	San Antonio Palopo	11	Noviembre	2023-04-11T00:00:00	2024-11-08T08:00:00	7	Dirección del viento	6.44
17079	7	Sololá	712	San Antonio Palopó	9	San Antonio Palopo	11	Noviembre	2023-04-11T00:00:00	2024-11-08T08:00:00	1	Precipitación	0
17080	7	Sololá	712	San Antonio Palopó	9	San Antonio Palopo	11	Noviembre	2023-04-11T00:00:00	2024-11-08T08:00:00	8	Radiación solar	122
17081	7	Sololá	712	San Antonio Palopó	9	San Antonio Palopo	11	Noviembre	2023-04-11T00:00:00	2024-11-08T09:00:00	2	Temperatura media	22.7
17082	7	Sololá	712	San Antonio Palopó	9	San Antonio Palopo	11	Noviembre	2023-04-11T00:00:00	2024-11-08T09:00:00	4	Temperatura máxima	22.7
17083	7	Sololá	712	San Antonio Palopó	9	San Antonio Palopo	11	Noviembre	2023-04-11T00:00:00	2024-11-08T09:00:00	3	Temperatura mínima	22.1
17084	7	Sololá	712	San Antonio Palopó	9	San Antonio Palopo	11	Noviembre	2023-04-11T00:00:00	2024-11-08T09:00:00	5	Humedad	64
17085	7	Sololá	712	San Antonio Palopó	9	San Antonio Palopo	11	Noviembre	2023-04-11T00:00:00	2024-11-08T09:00:00	6	Velocidad del viento	12.9
17086	7	Sololá	712	San Antonio Palopó	9	San Antonio Palopo	11	Noviembre	2023-04-11T00:00:00	2024-11-08T09:00:00	7	Dirección del viento	12.87
17087	7	Sololá	712	San Antonio Palopó	9	San Antonio Palopo	11	Noviembre	2023-04-11T00:00:00	2024-11-08T09:00:00	1	Precipitación	0
17088	7	Sololá	712	San Antonio Palopó	9	San Antonio Palopo	11	Noviembre	2023-04-11T00:00:00	2024-11-08T09:00:00	8	Radiación solar	191
17089	7	Sololá	712	San Antonio Palopó	9	San Antonio Palopo	11	Noviembre	2023-04-11T00:00:00	2024-11-08T10:00:00	2	Temperatura media	22.9
17090	7	Sololá	712	San Antonio Palopó	9	San Antonio Palopo	11	Noviembre	2023-04-11T00:00:00	2024-11-08T10:00:00	4	Temperatura máxima	22.9
17091	7	Sololá	712	San Antonio Palopó	9	San Antonio Palopo	11	Noviembre	2023-04-11T00:00:00	2024-11-08T10:00:00	3	Temperatura mínima	22.6
17092	7	Sololá	712	San Antonio Palopó	9	San Antonio Palopo	11	Noviembre	2023-04-11T00:00:00	2024-11-08T10:00:00	5	Humedad	66
17093	7	Sololá	712	San Antonio Palopó	9	San Antonio Palopo	11	Noviembre	2023-04-11T00:00:00	2024-11-08T10:00:00	6	Velocidad del viento	8
17094	7	Sololá	712	San Antonio Palopó	9	San Antonio Palopo	11	Noviembre	2023-04-11T00:00:00	2024-11-08T10:00:00	7	Dirección del viento	8.05
17095	7	Sololá	712	San Antonio Palopó	9	San Antonio Palopo	11	Noviembre	2023-04-11T00:00:00	2024-11-08T10:00:00	1	Precipitación	0
17096	7	Sololá	712	San Antonio Palopó	9	San Antonio Palopo	11	Noviembre	2023-04-11T00:00:00	2024-11-08T10:00:00	8	Radiación solar	242
17097	7	Sololá	712	San Antonio Palopó	9	San Antonio Palopo	11	Noviembre	2023-04-11T00:00:00	2024-11-08T11:00:00	2	Temperatura media	24.3
17098	7	Sololá	712	San Antonio Palopó	9	San Antonio Palopo	11	Noviembre	2023-04-11T00:00:00	2024-11-08T11:00:00	4	Temperatura máxima	24.3
17099	7	Sololá	712	San Antonio Palopó	9	San Antonio Palopo	11	Noviembre	2023-04-11T00:00:00	2024-11-08T11:00:00	3	Temperatura mínima	22.5
17100	7	Sololá	712	San Antonio Palopó	9	San Antonio Palopo	11	Noviembre	2023-04-11T00:00:00	2024-11-08T11:00:00	5	Humedad	63
17101	7	Sololá	712	San Antonio Palopó	9	San Antonio Palopo	11	Noviembre	2023-04-11T00:00:00	2024-11-08T11:00:00	6	Velocidad del viento	11.3
17102	7	Sololá	712	San Antonio Palopó	9	San Antonio Palopo	11	Noviembre	2023-04-11T00:00:00	2024-11-08T11:00:00	7	Dirección del viento	11.27
17103	7	Sololá	712	San Antonio Palopó	9	San Antonio Palopo	11	Noviembre	2023-04-11T00:00:00	2024-11-08T11:00:00	1	Precipitación	0
17104	7	Sololá	712	San Antonio Palopó	9	San Antonio Palopo	11	Noviembre	2023-04-11T00:00:00	2024-11-08T11:00:00	8	Radiación solar	413
17105	7	Sololá	712	San Antonio Palopó	9	San Antonio Palopo	11	Noviembre	2023-04-11T00:00:00	2024-11-08T12:00:00	2	Temperatura media	24.7
17106	7	Sololá	712	San Antonio Palopó	9	San Antonio Palopo	11	Noviembre	2023-04-11T00:00:00	2024-11-08T12:00:00	4	Temperatura máxima	24.7
17107	7	Sololá	712	San Antonio Palopó	9	San Antonio Palopo	11	Noviembre	2023-04-11T00:00:00	2024-11-08T12:00:00	3	Temperatura mínima	23.5
17108	7	Sololá	712	San Antonio Palopó	9	San Antonio Palopo	11	Noviembre	2023-04-11T00:00:00	2024-11-08T12:00:00	5	Humedad	62
17109	7	Sololá	712	San Antonio Palopó	9	San Antonio Palopo	11	Noviembre	2023-04-11T00:00:00	2024-11-08T12:00:00	6	Velocidad del viento	8
17110	7	Sololá	712	San Antonio Palopó	9	San Antonio Palopo	11	Noviembre	2023-04-11T00:00:00	2024-11-08T12:00:00	7	Dirección del viento	8.05
17111	7	Sololá	712	San Antonio Palopó	9	San Antonio Palopo	11	Noviembre	2023-04-11T00:00:00	2024-11-08T12:00:00	1	Precipitación	0
17112	7	Sololá	712	San Antonio Palopó	9	San Antonio Palopo	11	Noviembre	2023-04-11T00:00:00	2024-11-08T12:00:00	8	Radiación solar	551
17113	7	Sololá	712	San Antonio Palopó	9	San Antonio Palopo	11	Noviembre	2023-04-11T00:00:00	2024-11-08T13:00:00	2	Temperatura media	22.9
17114	7	Sololá	712	San Antonio Palopó	9	San Antonio Palopo	11	Noviembre	2023-04-11T00:00:00	2024-11-08T13:00:00	4	Temperatura máxima	24.8
17115	7	Sololá	712	San Antonio Palopó	9	San Antonio Palopo	11	Noviembre	2023-04-11T00:00:00	2024-11-08T13:00:00	3	Temperatura mínima	22.9
17116	7	Sololá	712	San Antonio Palopó	9	San Antonio Palopo	11	Noviembre	2023-04-11T00:00:00	2024-11-08T13:00:00	5	Humedad	69
17117	7	Sololá	712	San Antonio Palopó	9	San Antonio Palopo	11	Noviembre	2023-04-11T00:00:00	2024-11-08T13:00:00	6	Velocidad del viento	11.3
17118	7	Sololá	712	San Antonio Palopó	9	San Antonio Palopo	11	Noviembre	2023-04-11T00:00:00	2024-11-08T13:00:00	7	Dirección del viento	11.27
17119	7	Sololá	712	San Antonio Palopó	9	San Antonio Palopo	11	Noviembre	2023-04-11T00:00:00	2024-11-08T13:00:00	1	Precipitación	0
17120	7	Sololá	712	San Antonio Palopó	9	San Antonio Palopo	11	Noviembre	2023-04-11T00:00:00	2024-11-08T13:00:00	8	Radiación solar	325
17121	7	Sololá	712	San Antonio Palopó	9	San Antonio Palopo	11	Noviembre	2023-04-11T00:00:00	2024-11-08T14:00:00	2	Temperatura media	22.2
17122	7	Sololá	712	San Antonio Palopó	9	San Antonio Palopo	11	Noviembre	2023-04-11T00:00:00	2024-11-08T14:00:00	4	Temperatura máxima	22.9
17123	7	Sololá	712	San Antonio Palopó	9	San Antonio Palopo	11	Noviembre	2023-04-11T00:00:00	2024-11-08T14:00:00	3	Temperatura mínima	21.7
17124	7	Sololá	712	San Antonio Palopó	9	San Antonio Palopo	11	Noviembre	2023-04-11T00:00:00	2024-11-08T14:00:00	5	Humedad	71
17125	7	Sololá	712	San Antonio Palopó	9	San Antonio Palopo	11	Noviembre	2023-04-11T00:00:00	2024-11-08T14:00:00	6	Velocidad del viento	4.8
17126	7	Sololá	712	San Antonio Palopó	9	San Antonio Palopo	11	Noviembre	2023-04-11T00:00:00	2024-11-08T14:00:00	7	Dirección del viento	4.83
17127	7	Sololá	712	San Antonio Palopó	9	San Antonio Palopo	11	Noviembre	2023-04-11T00:00:00	2024-11-08T14:00:00	1	Precipitación	0
17128	7	Sololá	712	San Antonio Palopó	9	San Antonio Palopo	11	Noviembre	2023-04-11T00:00:00	2024-11-08T14:00:00	8	Radiación solar	138
17129	7	Sololá	712	San Antonio Palopó	9	San Antonio Palopo	11	Noviembre	2023-04-11T00:00:00	2024-11-08T15:00:00	2	Temperatura media	21.8
17130	7	Sololá	712	San Antonio Palopó	9	San Antonio Palopo	11	Noviembre	2023-04-11T00:00:00	2024-11-08T15:00:00	4	Temperatura máxima	22.2
17131	7	Sololá	712	San Antonio Palopó	9	San Antonio Palopo	11	Noviembre	2023-04-11T00:00:00	2024-11-08T15:00:00	3	Temperatura mínima	21.2
17132	7	Sololá	712	San Antonio Palopó	9	San Antonio Palopo	11	Noviembre	2023-04-11T00:00:00	2024-11-08T15:00:00	5	Humedad	72
17133	7	Sololá	712	San Antonio Palopó	9	San Antonio Palopo	11	Noviembre	2023-04-11T00:00:00	2024-11-08T15:00:00	6	Velocidad del viento	4.8
17134	7	Sololá	712	San Antonio Palopó	9	San Antonio Palopo	11	Noviembre	2023-04-11T00:00:00	2024-11-08T15:00:00	7	Dirección del viento	4.83
17135	7	Sololá	712	San Antonio Palopó	9	San Antonio Palopo	11	Noviembre	2023-04-11T00:00:00	2024-11-08T15:00:00	1	Precipitación	0
17136	7	Sololá	712	San Antonio Palopó	9	San Antonio Palopo	11	Noviembre	2023-04-11T00:00:00	2024-11-08T15:00:00	8	Radiación solar	184
17137	7	Sololá	712	San Antonio Palopó	9	San Antonio Palopo	11	Noviembre	2023-04-11T00:00:00	2024-11-08T16:00:00	2	Temperatura media	21.8
17138	7	Sololá	712	San Antonio Palopó	9	San Antonio Palopo	11	Noviembre	2023-04-11T00:00:00	2024-11-08T16:00:00	4	Temperatura máxima	22.1
17139	7	Sololá	712	San Antonio Palopó	9	San Antonio Palopo	11	Noviembre	2023-04-11T00:00:00	2024-11-08T16:00:00	3	Temperatura mínima	21.8
17140	7	Sololá	712	San Antonio Palopó	9	San Antonio Palopo	11	Noviembre	2023-04-11T00:00:00	2024-11-08T16:00:00	5	Humedad	69
17141	7	Sololá	712	San Antonio Palopó	9	San Antonio Palopo	11	Noviembre	2023-04-11T00:00:00	2024-11-08T16:00:00	6	Velocidad del viento	4.8
17142	7	Sololá	712	San Antonio Palopó	9	San Antonio Palopo	11	Noviembre	2023-04-11T00:00:00	2024-11-08T16:00:00	7	Dirección del viento	4.83
17143	7	Sololá	712	San Antonio Palopó	9	San Antonio Palopo	11	Noviembre	2023-04-11T00:00:00	2024-11-08T16:00:00	1	Precipitación	0.2
17144	7	Sololá	712	San Antonio Palopó	9	San Antonio Palopo	11	Noviembre	2023-04-11T00:00:00	2024-11-08T16:00:00	8	Radiación solar	105
17145	7	Sololá	712	San Antonio Palopó	9	San Antonio Palopo	11	Noviembre	2023-04-11T00:00:00	2024-11-08T17:00:00	2	Temperatura media	21.4
17146	7	Sololá	712	San Antonio Palopó	9	San Antonio Palopo	11	Noviembre	2023-04-11T00:00:00	2024-11-08T17:00:00	4	Temperatura máxima	22
17147	7	Sololá	712	San Antonio Palopó	9	San Antonio Palopo	11	Noviembre	2023-04-11T00:00:00	2024-11-08T17:00:00	3	Temperatura mínima	21.3
17148	7	Sololá	712	San Antonio Palopó	9	San Antonio Palopo	11	Noviembre	2023-04-11T00:00:00	2024-11-08T17:00:00	5	Humedad	69
17149	7	Sololá	712	San Antonio Palopó	9	San Antonio Palopo	11	Noviembre	2023-04-11T00:00:00	2024-11-08T17:00:00	6	Velocidad del viento	6.4
17150	7	Sololá	712	San Antonio Palopó	9	San Antonio Palopo	11	Noviembre	2023-04-11T00:00:00	2024-11-08T17:00:00	7	Dirección del viento	6.44
17151	7	Sololá	712	San Antonio Palopó	9	San Antonio Palopo	11	Noviembre	2023-04-11T00:00:00	2024-11-08T17:00:00	1	Precipitación	0
17152	7	Sololá	712	San Antonio Palopó	9	San Antonio Palopo	11	Noviembre	2023-04-11T00:00:00	2024-11-08T17:00:00	8	Radiación solar	44
17153	7	Sololá	712	San Antonio Palopó	9	San Antonio Palopo	11	Noviembre	2023-04-11T00:00:00	2024-11-08T18:00:00	2	Temperatura media	20.8
17154	7	Sololá	712	San Antonio Palopó	9	San Antonio Palopo	11	Noviembre	2023-04-11T00:00:00	2024-11-08T18:00:00	4	Temperatura máxima	21.5
17155	7	Sololá	712	San Antonio Palopó	9	San Antonio Palopo	11	Noviembre	2023-04-11T00:00:00	2024-11-08T18:00:00	3	Temperatura mínima	20.8
17156	7	Sololá	712	San Antonio Palopó	9	San Antonio Palopo	11	Noviembre	2023-04-11T00:00:00	2024-11-08T18:00:00	5	Humedad	71
17157	7	Sololá	712	San Antonio Palopó	9	San Antonio Palopo	11	Noviembre	2023-04-11T00:00:00	2024-11-08T18:00:00	6	Velocidad del viento	3.2
17158	7	Sololá	712	San Antonio Palopó	9	San Antonio Palopo	11	Noviembre	2023-04-11T00:00:00	2024-11-08T18:00:00	7	Dirección del viento	3.22
17159	7	Sololá	712	San Antonio Palopó	9	San Antonio Palopo	11	Noviembre	2023-04-11T00:00:00	2024-11-08T18:00:00	1	Precipitación	0
17160	7	Sololá	712	San Antonio Palopó	9	San Antonio Palopo	11	Noviembre	2023-04-11T00:00:00	2024-11-08T18:00:00	8	Radiación solar	9
17161	7	Sololá	712	San Antonio Palopó	9	San Antonio Palopo	11	Noviembre	2023-04-11T00:00:00	2024-11-08T19:00:00	2	Temperatura media	20.7
17162	7	Sololá	712	San Antonio Palopó	9	San Antonio Palopo	11	Noviembre	2023-04-11T00:00:00	2024-11-08T19:00:00	4	Temperatura máxima	20.8
17163	7	Sololá	712	San Antonio Palopó	9	San Antonio Palopo	11	Noviembre	2023-04-11T00:00:00	2024-11-08T19:00:00	3	Temperatura mínima	20.6
17164	7	Sololá	712	San Antonio Palopó	9	San Antonio Palopo	11	Noviembre	2023-04-11T00:00:00	2024-11-08T19:00:00	5	Humedad	72
17165	7	Sololá	712	San Antonio Palopó	9	San Antonio Palopo	11	Noviembre	2023-04-11T00:00:00	2024-11-08T19:00:00	6	Velocidad del viento	1.6
17166	7	Sololá	712	San Antonio Palopó	9	San Antonio Palopo	11	Noviembre	2023-04-11T00:00:00	2024-11-08T19:00:00	7	Dirección del viento	1.61
17167	7	Sololá	712	San Antonio Palopó	9	San Antonio Palopo	11	Noviembre	2023-04-11T00:00:00	2024-11-08T19:00:00	1	Precipitación	0
17168	7	Sololá	712	San Antonio Palopó	9	San Antonio Palopo	11	Noviembre	2023-04-11T00:00:00	2024-11-08T19:00:00	8	Radiación solar	0
17169	7	Sololá	712	San Antonio Palopó	9	San Antonio Palopo	11	Noviembre	2023-04-11T00:00:00	2024-11-08T20:00:00	2	Temperatura media	20.6
17170	7	Sololá	712	San Antonio Palopó	9	San Antonio Palopo	11	Noviembre	2023-04-11T00:00:00	2024-11-08T20:00:00	4	Temperatura máxima	21
17171	7	Sololá	712	San Antonio Palopó	9	San Antonio Palopo	11	Noviembre	2023-04-11T00:00:00	2024-11-08T20:00:00	3	Temperatura mínima	20.6
17172	7	Sololá	712	San Antonio Palopó	9	San Antonio Palopo	11	Noviembre	2023-04-11T00:00:00	2024-11-08T20:00:00	5	Humedad	73
17173	7	Sololá	712	San Antonio Palopó	9	San Antonio Palopo	11	Noviembre	2023-04-11T00:00:00	2024-11-08T20:00:00	6	Velocidad del viento	4.8
17174	7	Sololá	712	San Antonio Palopó	9	San Antonio Palopo	11	Noviembre	2023-04-11T00:00:00	2024-11-08T20:00:00	7	Dirección del viento	4.83
17175	7	Sololá	712	San Antonio Palopó	9	San Antonio Palopo	11	Noviembre	2023-04-11T00:00:00	2024-11-08T20:00:00	1	Precipitación	0
17176	7	Sololá	712	San Antonio Palopó	9	San Antonio Palopo	11	Noviembre	2023-04-11T00:00:00	2024-11-08T20:00:00	8	Radiación solar	0
17177	7	Sololá	712	San Antonio Palopó	9	San Antonio Palopo	11	Noviembre	2023-04-11T00:00:00	2024-11-08T21:00:00	2	Temperatura media	21.5
17178	7	Sololá	712	San Antonio Palopó	9	San Antonio Palopo	11	Noviembre	2023-04-11T00:00:00	2024-11-08T21:00:00	4	Temperatura máxima	21.6
17179	7	Sololá	712	San Antonio Palopó	9	San Antonio Palopo	11	Noviembre	2023-04-11T00:00:00	2024-11-08T21:00:00	3	Temperatura mínima	20.3
17180	7	Sololá	712	San Antonio Palopó	9	San Antonio Palopo	11	Noviembre	2023-04-11T00:00:00	2024-11-08T21:00:00	5	Humedad	70
17181	7	Sololá	712	San Antonio Palopó	9	San Antonio Palopo	11	Noviembre	2023-04-11T00:00:00	2024-11-08T21:00:00	6	Velocidad del viento	6.4
17182	7	Sololá	712	San Antonio Palopó	9	San Antonio Palopo	11	Noviembre	2023-04-11T00:00:00	2024-11-08T21:00:00	7	Dirección del viento	6.44
17183	7	Sololá	712	San Antonio Palopó	9	San Antonio Palopo	11	Noviembre	2023-04-11T00:00:00	2024-11-08T21:00:00	1	Precipitación	0
17184	7	Sololá	712	San Antonio Palopó	9	San Antonio Palopo	11	Noviembre	2023-04-11T00:00:00	2024-11-08T21:00:00	8	Radiación solar	0
17185	7	Sololá	712	San Antonio Palopó	9	San Antonio Palopo	11	Noviembre	2023-04-11T00:00:00	2024-11-08T22:00:00	2	Temperatura media	20.8
17186	7	Sololá	712	San Antonio Palopó	9	San Antonio Palopo	11	Noviembre	2023-04-11T00:00:00	2024-11-08T22:00:00	4	Temperatura máxima	21.5
17187	7	Sololá	712	San Antonio Palopó	9	San Antonio Palopo	11	Noviembre	2023-04-11T00:00:00	2024-11-08T22:00:00	3	Temperatura mínima	20
17188	7	Sololá	712	San Antonio Palopó	9	San Antonio Palopo	11	Noviembre	2023-04-11T00:00:00	2024-11-08T22:00:00	5	Humedad	70
17189	7	Sololá	712	San Antonio Palopó	9	San Antonio Palopo	11	Noviembre	2023-04-11T00:00:00	2024-11-08T22:00:00	6	Velocidad del viento	4.8
17190	7	Sololá	712	San Antonio Palopó	9	San Antonio Palopo	11	Noviembre	2023-04-11T00:00:00	2024-11-08T22:00:00	7	Dirección del viento	4.83
17191	7	Sololá	712	San Antonio Palopó	9	San Antonio Palopo	11	Noviembre	2023-04-11T00:00:00	2024-11-08T22:00:00	1	Precipitación	0
17192	7	Sololá	712	San Antonio Palopó	9	San Antonio Palopo	11	Noviembre	2023-04-11T00:00:00	2024-11-08T22:00:00	8	Radiación solar	0
17193	7	Sololá	712	San Antonio Palopó	9	San Antonio Palopo	11	Noviembre	2023-04-11T00:00:00	2024-11-08T23:00:00	2	Temperatura media	20.5
17194	7	Sololá	712	San Antonio Palopó	9	San Antonio Palopo	11	Noviembre	2023-04-11T00:00:00	2024-11-08T23:00:00	4	Temperatura máxima	20.9
17195	7	Sololá	712	San Antonio Palopó	9	San Antonio Palopo	11	Noviembre	2023-04-11T00:00:00	2024-11-08T23:00:00	3	Temperatura mínima	20.2
17196	7	Sololá	712	San Antonio Palopó	9	San Antonio Palopo	11	Noviembre	2023-04-11T00:00:00	2024-11-08T23:00:00	5	Humedad	72
17197	7	Sololá	712	San Antonio Palopó	9	San Antonio Palopo	11	Noviembre	2023-04-11T00:00:00	2024-11-08T23:00:00	6	Velocidad del viento	4.8
17198	7	Sololá	712	San Antonio Palopó	9	San Antonio Palopo	11	Noviembre	2023-04-11T00:00:00	2024-11-08T23:00:00	7	Dirección del viento	4.83
17199	7	Sololá	712	San Antonio Palopó	9	San Antonio Palopo	11	Noviembre	2023-04-11T00:00:00	2024-11-08T23:00:00	1	Precipitación	0
17200	7	Sololá	712	San Antonio Palopó	9	San Antonio Palopo	11	Noviembre	2023-04-11T00:00:00	2024-11-08T23:00:00	8	Radiación solar	0
17201	7	Sololá	712	San Antonio Palopó	9	San Antonio Palopo	11	Noviembre	2023-05-11T00:00:00	2024-11-08T00:00:00	2	Temperatura media	21
17202	7	Sololá	712	San Antonio Palopó	9	San Antonio Palopo	11	Noviembre	2023-05-11T00:00:00	2024-11-08T00:00:00	4	Temperatura máxima	21
17203	7	Sololá	712	San Antonio Palopó	9	San Antonio Palopo	11	Noviembre	2023-05-11T00:00:00	2024-11-08T00:00:00	3	Temperatura mínima	20.3
17204	7	Sololá	712	San Antonio Palopó	9	San Antonio Palopo	11	Noviembre	2023-05-11T00:00:00	2024-11-08T00:00:00	5	Humedad	69
17205	7	Sololá	712	San Antonio Palopó	9	San Antonio Palopo	11	Noviembre	2023-05-11T00:00:00	2024-11-08T00:00:00	6	Velocidad del viento	4.8
17206	7	Sololá	712	San Antonio Palopó	9	San Antonio Palopo	11	Noviembre	2023-05-11T00:00:00	2024-11-08T00:00:00	7	Dirección del viento	4.83
17207	7	Sololá	712	San Antonio Palopó	9	San Antonio Palopo	11	Noviembre	2023-05-11T00:00:00	2024-11-08T00:00:00	1	Precipitación	0
17208	7	Sololá	712	San Antonio Palopó	9	San Antonio Palopo	11	Noviembre	2023-05-11T00:00:00	2024-11-08T00:00:00	8	Radiación solar	0
17209	7	Sololá	712	San Antonio Palopó	9	San Antonio Palopo	11	Noviembre	2023-05-11T00:00:00	2024-11-08T01:00:00	2	Temperatura media	19.8
17210	7	Sololá	712	San Antonio Palopó	9	San Antonio Palopo	11	Noviembre	2023-05-11T00:00:00	2024-11-08T01:00:00	4	Temperatura máxima	21.4
17211	7	Sololá	712	San Antonio Palopó	9	San Antonio Palopo	11	Noviembre	2023-05-11T00:00:00	2024-11-08T01:00:00	3	Temperatura mínima	19.8
17212	7	Sololá	712	San Antonio Palopó	9	San Antonio Palopo	11	Noviembre	2023-05-11T00:00:00	2024-11-08T01:00:00	5	Humedad	74
17213	7	Sololá	712	San Antonio Palopó	9	San Antonio Palopo	11	Noviembre	2023-05-11T00:00:00	2024-11-08T01:00:00	6	Velocidad del viento	4.8
17214	7	Sololá	712	San Antonio Palopó	9	San Antonio Palopo	11	Noviembre	2023-05-11T00:00:00	2024-11-08T01:00:00	7	Dirección del viento	4.83
17215	7	Sololá	712	San Antonio Palopó	9	San Antonio Palopo	11	Noviembre	2023-05-11T00:00:00	2024-11-08T01:00:00	1	Precipitación	0
17216	7	Sololá	712	San Antonio Palopó	9	San Antonio Palopo	11	Noviembre	2023-05-11T00:00:00	2024-11-08T01:00:00	8	Radiación solar	0
17217	7	Sololá	712	San Antonio Palopó	9	San Antonio Palopo	11	Noviembre	2023-05-11T00:00:00	2024-11-08T02:00:00	2	Temperatura media	20.7
17218	7	Sololá	712	San Antonio Palopó	9	San Antonio Palopo	11	Noviembre	2023-05-11T00:00:00	2024-11-08T02:00:00	4	Temperatura máxima	20.7
17219	7	Sololá	712	San Antonio Palopó	9	San Antonio Palopo	11	Noviembre	2023-05-11T00:00:00	2024-11-08T02:00:00	3	Temperatura mínima	19.7
17220	7	Sololá	712	San Antonio Palopó	9	San Antonio Palopo	11	Noviembre	2023-05-11T00:00:00	2024-11-08T02:00:00	5	Humedad	70
17221	7	Sololá	712	San Antonio Palopó	9	San Antonio Palopo	11	Noviembre	2023-05-11T00:00:00	2024-11-08T02:00:00	6	Velocidad del viento	3.2
17222	7	Sololá	712	San Antonio Palopó	9	San Antonio Palopo	11	Noviembre	2023-05-11T00:00:00	2024-11-08T02:00:00	7	Dirección del viento	3.22
17223	7	Sololá	712	San Antonio Palopó	9	San Antonio Palopo	11	Noviembre	2023-05-11T00:00:00	2024-11-08T02:00:00	1	Precipitación	0
17224	7	Sololá	712	San Antonio Palopó	9	San Antonio Palopo	11	Noviembre	2023-05-11T00:00:00	2024-11-08T02:00:00	8	Radiación solar	0
17225	7	Sololá	712	San Antonio Palopó	9	San Antonio Palopo	11	Noviembre	2023-05-11T00:00:00	2024-11-08T03:00:00	2	Temperatura media	19.6
17226	7	Sololá	712	San Antonio Palopó	9	San Antonio Palopo	11	Noviembre	2023-05-11T00:00:00	2024-11-08T03:00:00	4	Temperatura máxima	20.7
17227	7	Sololá	712	San Antonio Palopó	9	San Antonio Palopo	11	Noviembre	2023-05-11T00:00:00	2024-11-08T03:00:00	3	Temperatura mínima	19.6
17228	7	Sololá	712	San Antonio Palopó	9	San Antonio Palopo	11	Noviembre	2023-05-11T00:00:00	2024-11-08T03:00:00	5	Humedad	75
17229	7	Sololá	712	San Antonio Palopó	9	San Antonio Palopo	11	Noviembre	2023-05-11T00:00:00	2024-11-08T03:00:00	6	Velocidad del viento	3.2
17230	7	Sololá	712	San Antonio Palopó	9	San Antonio Palopo	11	Noviembre	2023-05-11T00:00:00	2024-11-08T03:00:00	7	Dirección del viento	3.22
17231	7	Sololá	712	San Antonio Palopó	9	San Antonio Palopo	11	Noviembre	2023-05-11T00:00:00	2024-11-08T03:00:00	1	Precipitación	0
17232	7	Sololá	712	San Antonio Palopó	9	San Antonio Palopo	11	Noviembre	2023-05-11T00:00:00	2024-11-08T03:00:00	8	Radiación solar	0
17233	7	Sololá	712	San Antonio Palopó	9	San Antonio Palopo	11	Noviembre	2023-05-11T00:00:00	2024-11-08T04:00:00	2	Temperatura media	19.8
17234	7	Sololá	712	San Antonio Palopó	9	San Antonio Palopo	11	Noviembre	2023-05-11T00:00:00	2024-11-08T04:00:00	4	Temperatura máxima	20.1
17235	7	Sololá	712	San Antonio Palopó	9	San Antonio Palopo	11	Noviembre	2023-05-11T00:00:00	2024-11-08T04:00:00	3	Temperatura mínima	19.6
17236	7	Sololá	712	San Antonio Palopó	9	San Antonio Palopo	11	Noviembre	2023-05-11T00:00:00	2024-11-08T04:00:00	5	Humedad	74
17237	7	Sololá	712	San Antonio Palopó	9	San Antonio Palopo	11	Noviembre	2023-05-11T00:00:00	2024-11-08T04:00:00	6	Velocidad del viento	3.2
17238	7	Sololá	712	San Antonio Palopó	9	San Antonio Palopo	11	Noviembre	2023-05-11T00:00:00	2024-11-08T04:00:00	7	Dirección del viento	3.22
17239	7	Sololá	712	San Antonio Palopó	9	San Antonio Palopo	11	Noviembre	2023-05-11T00:00:00	2024-11-08T04:00:00	1	Precipitación	0
17240	7	Sololá	712	San Antonio Palopó	9	San Antonio Palopo	11	Noviembre	2023-05-11T00:00:00	2024-11-08T04:00:00	8	Radiación solar	0
17241	7	Sololá	712	San Antonio Palopó	9	San Antonio Palopo	11	Noviembre	2023-05-11T00:00:00	2024-11-08T05:00:00	2	Temperatura media	20.2
17242	7	Sololá	712	San Antonio Palopó	9	San Antonio Palopo	11	Noviembre	2023-05-11T00:00:00	2024-11-08T05:00:00	4	Temperatura máxima	20.2
17243	7	Sololá	712	San Antonio Palopó	9	San Antonio Palopo	11	Noviembre	2023-05-11T00:00:00	2024-11-08T05:00:00	3	Temperatura mínima	19.4
17244	7	Sololá	712	San Antonio Palopó	9	San Antonio Palopo	11	Noviembre	2023-05-11T00:00:00	2024-11-08T05:00:00	5	Humedad	73
17245	7	Sololá	712	San Antonio Palopó	9	San Antonio Palopo	11	Noviembre	2023-05-11T00:00:00	2024-11-08T05:00:00	6	Velocidad del viento	3.2
17246	7	Sololá	712	San Antonio Palopó	9	San Antonio Palopo	11	Noviembre	2023-05-11T00:00:00	2024-11-08T05:00:00	7	Dirección del viento	3.22
17247	7	Sololá	712	San Antonio Palopó	9	San Antonio Palopo	11	Noviembre	2023-05-11T00:00:00	2024-11-08T05:00:00	1	Precipitación	0
17248	7	Sololá	712	San Antonio Palopó	9	San Antonio Palopo	11	Noviembre	2023-05-11T00:00:00	2024-11-08T05:00:00	8	Radiación solar	0
17249	7	Sololá	712	San Antonio Palopó	9	San Antonio Palopo	11	Noviembre	2023-05-11T00:00:00	2024-11-08T06:00:00	2	Temperatura media	20.4
17250	7	Sololá	712	San Antonio Palopó	9	San Antonio Palopo	11	Noviembre	2023-05-11T00:00:00	2024-11-08T06:00:00	4	Temperatura máxima	20.4
17251	7	Sololá	712	San Antonio Palopó	9	San Antonio Palopo	11	Noviembre	2023-05-11T00:00:00	2024-11-08T06:00:00	3	Temperatura mínima	20.1
17252	7	Sololá	712	San Antonio Palopó	9	San Antonio Palopo	11	Noviembre	2023-05-11T00:00:00	2024-11-08T06:00:00	5	Humedad	73
17253	7	Sololá	712	San Antonio Palopó	9	San Antonio Palopo	11	Noviembre	2023-05-11T00:00:00	2024-11-08T06:00:00	6	Velocidad del viento	4.8
17254	7	Sololá	712	San Antonio Palopó	9	San Antonio Palopo	11	Noviembre	2023-05-11T00:00:00	2024-11-08T06:00:00	7	Dirección del viento	4.83
17255	7	Sololá	712	San Antonio Palopó	9	San Antonio Palopo	11	Noviembre	2023-05-11T00:00:00	2024-11-08T06:00:00	1	Precipitación	0
17256	7	Sololá	712	San Antonio Palopó	9	San Antonio Palopo	11	Noviembre	2023-05-11T00:00:00	2024-11-08T06:00:00	8	Radiación solar	0
17257	7	Sololá	712	San Antonio Palopó	9	San Antonio Palopo	11	Noviembre	2023-05-11T00:00:00	2024-11-08T07:00:00	2	Temperatura media	20.9
17258	7	Sololá	712	San Antonio Palopó	9	San Antonio Palopo	11	Noviembre	2023-05-11T00:00:00	2024-11-08T07:00:00	4	Temperatura máxima	20.9
17259	7	Sololá	712	San Antonio Palopó	9	San Antonio Palopo	11	Noviembre	2023-05-11T00:00:00	2024-11-08T07:00:00	3	Temperatura mínima	19.6
17260	7	Sololá	712	San Antonio Palopó	9	San Antonio Palopo	11	Noviembre	2023-05-11T00:00:00	2024-11-08T07:00:00	5	Humedad	71
17261	7	Sololá	712	San Antonio Palopó	9	San Antonio Palopo	11	Noviembre	2023-05-11T00:00:00	2024-11-08T07:00:00	6	Velocidad del viento	4.8
17262	7	Sololá	712	San Antonio Palopó	9	San Antonio Palopo	11	Noviembre	2023-05-11T00:00:00	2024-11-08T07:00:00	7	Dirección del viento	4.83
17263	7	Sololá	712	San Antonio Palopó	9	San Antonio Palopo	11	Noviembre	2023-05-11T00:00:00	2024-11-08T07:00:00	1	Precipitación	0
17264	7	Sololá	712	San Antonio Palopó	9	San Antonio Palopo	11	Noviembre	2023-05-11T00:00:00	2024-11-08T07:00:00	8	Radiación solar	16
17265	7	Sololá	712	San Antonio Palopó	9	San Antonio Palopo	11	Noviembre	2023-05-11T00:00:00	2024-11-08T08:00:00	2	Temperatura media	21.5
17266	7	Sololá	712	San Antonio Palopó	9	San Antonio Palopo	11	Noviembre	2023-05-11T00:00:00	2024-11-08T08:00:00	4	Temperatura máxima	21.7
17267	7	Sololá	712	San Antonio Palopó	9	San Antonio Palopo	11	Noviembre	2023-05-11T00:00:00	2024-11-08T08:00:00	3	Temperatura mínima	20.9
17268	7	Sololá	712	San Antonio Palopó	9	San Antonio Palopo	11	Noviembre	2023-05-11T00:00:00	2024-11-08T08:00:00	5	Humedad	70
17269	7	Sololá	712	San Antonio Palopó	9	San Antonio Palopo	11	Noviembre	2023-05-11T00:00:00	2024-11-08T08:00:00	6	Velocidad del viento	6.4
17270	7	Sololá	712	San Antonio Palopó	9	San Antonio Palopo	11	Noviembre	2023-05-11T00:00:00	2024-11-08T08:00:00	7	Dirección del viento	6.44
17271	7	Sololá	712	San Antonio Palopó	9	San Antonio Palopo	11	Noviembre	2023-05-11T00:00:00	2024-11-08T08:00:00	1	Precipitación	0
17272	7	Sololá	712	San Antonio Palopó	9	San Antonio Palopo	11	Noviembre	2023-05-11T00:00:00	2024-11-08T08:00:00	8	Radiación solar	96
17273	7	Sololá	712	San Antonio Palopó	9	San Antonio Palopo	11	Noviembre	2023-05-11T00:00:00	2024-11-08T09:00:00	2	Temperatura media	22.2
17274	7	Sololá	712	San Antonio Palopó	9	San Antonio Palopo	11	Noviembre	2023-05-11T00:00:00	2024-11-08T09:00:00	4	Temperatura máxima	22.2
17275	7	Sololá	712	San Antonio Palopó	9	San Antonio Palopo	11	Noviembre	2023-05-11T00:00:00	2024-11-08T09:00:00	3	Temperatura mínima	21.5
17276	7	Sololá	712	San Antonio Palopó	9	San Antonio Palopo	11	Noviembre	2023-05-11T00:00:00	2024-11-08T09:00:00	5	Humedad	70
17277	7	Sololá	712	San Antonio Palopó	9	San Antonio Palopo	11	Noviembre	2023-05-11T00:00:00	2024-11-08T09:00:00	6	Velocidad del viento	3.2
17278	7	Sololá	712	San Antonio Palopó	9	San Antonio Palopo	11	Noviembre	2023-05-11T00:00:00	2024-11-08T09:00:00	7	Dirección del viento	3.22
17279	7	Sololá	712	San Antonio Palopó	9	San Antonio Palopo	11	Noviembre	2023-05-11T00:00:00	2024-11-08T09:00:00	1	Precipitación	0
17280	7	Sololá	712	San Antonio Palopó	9	San Antonio Palopo	11	Noviembre	2023-05-11T00:00:00	2024-11-08T09:00:00	8	Radiación solar	235
17281	7	Sololá	712	San Antonio Palopó	9	San Antonio Palopo	11	Noviembre	2023-05-11T00:00:00	2024-11-08T10:00:00	2	Temperatura media	23
17282	7	Sololá	712	San Antonio Palopó	9	San Antonio Palopo	11	Noviembre	2023-05-11T00:00:00	2024-11-08T10:00:00	4	Temperatura máxima	23.1
17283	7	Sololá	712	San Antonio Palopó	9	San Antonio Palopo	11	Noviembre	2023-05-11T00:00:00	2024-11-08T10:00:00	3	Temperatura mínima	22.2
17284	7	Sololá	712	San Antonio Palopó	9	San Antonio Palopo	11	Noviembre	2023-05-11T00:00:00	2024-11-08T10:00:00	5	Humedad	67
17285	7	Sololá	712	San Antonio Palopó	9	San Antonio Palopo	11	Noviembre	2023-05-11T00:00:00	2024-11-08T10:00:00	6	Velocidad del viento	8
17286	7	Sololá	712	San Antonio Palopó	9	San Antonio Palopo	11	Noviembre	2023-05-11T00:00:00	2024-11-08T10:00:00	7	Dirección del viento	8.05
17287	7	Sololá	712	San Antonio Palopó	9	San Antonio Palopo	11	Noviembre	2023-05-11T00:00:00	2024-11-08T10:00:00	1	Precipitación	0
17288	7	Sololá	712	San Antonio Palopó	9	San Antonio Palopo	11	Noviembre	2023-05-11T00:00:00	2024-11-08T10:00:00	8	Radiación solar	240
17289	7	Sololá	712	San Antonio Palopó	9	San Antonio Palopo	11	Noviembre	2023-05-11T00:00:00	2024-11-08T11:00:00	2	Temperatura media	22.8
17290	7	Sololá	712	San Antonio Palopó	9	San Antonio Palopo	11	Noviembre	2023-05-11T00:00:00	2024-11-08T11:00:00	4	Temperatura máxima	23.4
17291	7	Sololá	712	San Antonio Palopó	9	San Antonio Palopo	11	Noviembre	2023-05-11T00:00:00	2024-11-08T11:00:00	3	Temperatura mínima	22.7
17292	7	Sololá	712	San Antonio Palopó	9	San Antonio Palopo	11	Noviembre	2023-05-11T00:00:00	2024-11-08T11:00:00	5	Humedad	67
17293	7	Sololá	712	San Antonio Palopó	9	San Antonio Palopo	11	Noviembre	2023-05-11T00:00:00	2024-11-08T11:00:00	6	Velocidad del viento	12.9
17294	7	Sololá	712	San Antonio Palopó	9	San Antonio Palopo	11	Noviembre	2023-05-11T00:00:00	2024-11-08T11:00:00	7	Dirección del viento	12.87
17295	7	Sololá	712	San Antonio Palopó	9	San Antonio Palopo	11	Noviembre	2023-05-11T00:00:00	2024-11-08T11:00:00	1	Precipitación	0
17296	7	Sololá	712	San Antonio Palopó	9	San Antonio Palopo	11	Noviembre	2023-05-11T00:00:00	2024-11-08T11:00:00	8	Radiación solar	290
17297	7	Sololá	712	San Antonio Palopó	9	San Antonio Palopo	11	Noviembre	2023-05-11T00:00:00	2024-11-08T12:00:00	2	Temperatura media	23.3
17298	7	Sololá	712	San Antonio Palopó	9	San Antonio Palopo	11	Noviembre	2023-05-11T00:00:00	2024-11-08T12:00:00	4	Temperatura máxima	23.4
17299	7	Sololá	712	San Antonio Palopó	9	San Antonio Palopo	11	Noviembre	2023-05-11T00:00:00	2024-11-08T12:00:00	3	Temperatura mínima	22.8
17300	7	Sololá	712	San Antonio Palopó	9	San Antonio Palopo	11	Noviembre	2023-05-11T00:00:00	2024-11-08T12:00:00	5	Humedad	66
17301	7	Sololá	712	San Antonio Palopó	9	San Antonio Palopo	11	Noviembre	2023-05-11T00:00:00	2024-11-08T12:00:00	6	Velocidad del viento	8
17302	7	Sololá	712	San Antonio Palopó	9	San Antonio Palopo	11	Noviembre	2023-05-11T00:00:00	2024-11-08T12:00:00	7	Dirección del viento	8.05
17303	7	Sololá	712	San Antonio Palopó	9	San Antonio Palopo	11	Noviembre	2023-05-11T00:00:00	2024-11-08T12:00:00	1	Precipitación	0
17304	7	Sololá	712	San Antonio Palopó	9	San Antonio Palopo	11	Noviembre	2023-05-11T00:00:00	2024-11-08T12:00:00	8	Radiación solar	223
17305	7	Sololá	712	San Antonio Palopó	9	San Antonio Palopo	11	Noviembre	2023-05-11T00:00:00	2024-11-08T13:00:00	2	Temperatura media	23.1
17306	7	Sololá	712	San Antonio Palopó	9	San Antonio Palopo	11	Noviembre	2023-05-11T00:00:00	2024-11-08T13:00:00	4	Temperatura máxima	23.4
17307	7	Sololá	712	San Antonio Palopó	9	San Antonio Palopo	11	Noviembre	2023-05-11T00:00:00	2024-11-08T13:00:00	3	Temperatura mínima	23
17308	7	Sololá	712	San Antonio Palopó	9	San Antonio Palopo	11	Noviembre	2023-05-11T00:00:00	2024-11-08T13:00:00	5	Humedad	69
17309	7	Sololá	712	San Antonio Palopó	9	San Antonio Palopo	11	Noviembre	2023-05-11T00:00:00	2024-11-08T13:00:00	6	Velocidad del viento	8
17310	7	Sololá	712	San Antonio Palopó	9	San Antonio Palopo	11	Noviembre	2023-05-11T00:00:00	2024-11-08T13:00:00	7	Dirección del viento	8.05
17311	7	Sololá	712	San Antonio Palopó	9	San Antonio Palopo	11	Noviembre	2023-05-11T00:00:00	2024-11-08T13:00:00	1	Precipitación	0
17312	7	Sololá	712	San Antonio Palopó	9	San Antonio Palopo	11	Noviembre	2023-05-11T00:00:00	2024-11-08T13:00:00	8	Radiación solar	156
17313	7	Sololá	712	San Antonio Palopó	9	San Antonio Palopo	11	Noviembre	2023-05-11T00:00:00	2024-11-08T14:00:00	2	Temperatura media	22.6
17314	7	Sololá	712	San Antonio Palopó	9	San Antonio Palopo	11	Noviembre	2023-05-11T00:00:00	2024-11-08T14:00:00	4	Temperatura máxima	23.5
17315	7	Sololá	712	San Antonio Palopó	9	San Antonio Palopo	11	Noviembre	2023-05-11T00:00:00	2024-11-08T14:00:00	3	Temperatura mínima	22.6
17316	7	Sololá	712	San Antonio Palopó	9	San Antonio Palopo	11	Noviembre	2023-05-11T00:00:00	2024-11-08T14:00:00	5	Humedad	76
17317	7	Sololá	712	San Antonio Palopó	9	San Antonio Palopo	11	Noviembre	2023-05-11T00:00:00	2024-11-08T14:00:00	6	Velocidad del viento	8
17318	7	Sololá	712	San Antonio Palopó	9	San Antonio Palopo	11	Noviembre	2023-05-11T00:00:00	2024-11-08T14:00:00	7	Dirección del viento	8.05
17319	7	Sololá	712	San Antonio Palopó	9	San Antonio Palopo	11	Noviembre	2023-05-11T00:00:00	2024-11-08T14:00:00	1	Precipitación	0
17320	7	Sololá	712	San Antonio Palopó	9	San Antonio Palopo	11	Noviembre	2023-05-11T00:00:00	2024-11-08T14:00:00	8	Radiación solar	171
17321	7	Sololá	712	San Antonio Palopó	9	San Antonio Palopo	11	Noviembre	2023-05-11T00:00:00	2024-11-08T15:00:00	2	Temperatura media	24.2
17322	7	Sololá	712	San Antonio Palopó	9	San Antonio Palopo	11	Noviembre	2023-05-11T00:00:00	2024-11-08T15:00:00	4	Temperatura máxima	24.3
17323	7	Sololá	712	San Antonio Palopó	9	San Antonio Palopo	11	Noviembre	2023-05-11T00:00:00	2024-11-08T15:00:00	3	Temperatura mínima	22.6
17324	7	Sololá	712	San Antonio Palopó	9	San Antonio Palopo	11	Noviembre	2023-05-11T00:00:00	2024-11-08T15:00:00	5	Humedad	65
17325	7	Sololá	712	San Antonio Palopó	9	San Antonio Palopo	11	Noviembre	2023-05-11T00:00:00	2024-11-08T15:00:00	6	Velocidad del viento	3.2
17326	7	Sololá	712	San Antonio Palopó	9	San Antonio Palopo	11	Noviembre	2023-05-11T00:00:00	2024-11-08T15:00:00	7	Dirección del viento	3.22
17327	7	Sololá	712	San Antonio Palopó	9	San Antonio Palopo	11	Noviembre	2023-05-11T00:00:00	2024-11-08T15:00:00	1	Precipitación	0
17328	7	Sololá	712	San Antonio Palopó	9	San Antonio Palopo	11	Noviembre	2023-05-11T00:00:00	2024-11-08T15:00:00	8	Radiación solar	193
17329	7	Sololá	712	San Antonio Palopó	9	San Antonio Palopo	11	Noviembre	2023-05-11T00:00:00	2024-11-08T16:00:00	2	Temperatura media	23.3
17330	7	Sololá	712	San Antonio Palopó	9	San Antonio Palopo	11	Noviembre	2023-05-11T00:00:00	2024-11-08T16:00:00	4	Temperatura máxima	25.3
17331	7	Sololá	712	San Antonio Palopó	9	San Antonio Palopo	11	Noviembre	2023-05-11T00:00:00	2024-11-08T16:00:00	3	Temperatura mínima	23.3
17332	7	Sololá	712	San Antonio Palopó	9	San Antonio Palopo	11	Noviembre	2023-05-11T00:00:00	2024-11-08T16:00:00	5	Humedad	71
17333	7	Sololá	712	San Antonio Palopó	9	San Antonio Palopo	11	Noviembre	2023-05-11T00:00:00	2024-11-08T16:00:00	6	Velocidad del viento	6.4
17334	7	Sololá	712	San Antonio Palopó	9	San Antonio Palopo	11	Noviembre	2023-05-11T00:00:00	2024-11-08T16:00:00	7	Dirección del viento	6.44
17335	7	Sololá	712	San Antonio Palopó	9	San Antonio Palopo	11	Noviembre	2023-05-11T00:00:00	2024-11-08T16:00:00	1	Precipitación	0
17336	7	Sololá	712	San Antonio Palopó	9	San Antonio Palopo	11	Noviembre	2023-05-11T00:00:00	2024-11-08T16:00:00	8	Radiación solar	230
17337	7	Sololá	712	San Antonio Palopó	9	San Antonio Palopo	11	Noviembre	2023-05-11T00:00:00	2024-11-08T17:00:00	2	Temperatura media	21.3
17338	7	Sololá	712	San Antonio Palopó	9	San Antonio Palopo	11	Noviembre	2023-05-11T00:00:00	2024-11-08T17:00:00	4	Temperatura máxima	23.3
17339	7	Sololá	712	San Antonio Palopó	9	San Antonio Palopo	11	Noviembre	2023-05-11T00:00:00	2024-11-08T17:00:00	3	Temperatura mínima	21.1
17340	7	Sololá	712	San Antonio Palopó	9	San Antonio Palopo	11	Noviembre	2023-05-11T00:00:00	2024-11-08T17:00:00	5	Humedad	80
17341	7	Sololá	712	San Antonio Palopó	9	San Antonio Palopo	11	Noviembre	2023-05-11T00:00:00	2024-11-08T17:00:00	6	Velocidad del viento	11.3
17342	7	Sololá	712	San Antonio Palopó	9	San Antonio Palopo	11	Noviembre	2023-05-11T00:00:00	2024-11-08T17:00:00	7	Dirección del viento	11.27
17343	7	Sololá	712	San Antonio Palopó	9	San Antonio Palopo	11	Noviembre	2023-05-11T00:00:00	2024-11-08T17:00:00	1	Precipitación	0
17344	7	Sololá	712	San Antonio Palopó	9	San Antonio Palopo	11	Noviembre	2023-05-11T00:00:00	2024-11-08T17:00:00	8	Radiación solar	69
17345	7	Sololá	712	San Antonio Palopó	9	San Antonio Palopo	11	Noviembre	2023-05-11T00:00:00	2024-11-08T18:00:00	2	Temperatura media	21
17346	7	Sololá	712	San Antonio Palopó	9	San Antonio Palopo	11	Noviembre	2023-05-11T00:00:00	2024-11-08T18:00:00	4	Temperatura máxima	21.3
17347	7	Sololá	712	San Antonio Palopó	9	San Antonio Palopo	11	Noviembre	2023-05-11T00:00:00	2024-11-08T18:00:00	3	Temperatura mínima	21
17348	7	Sololá	712	San Antonio Palopó	9	San Antonio Palopo	11	Noviembre	2023-05-11T00:00:00	2024-11-08T18:00:00	5	Humedad	81
17349	7	Sololá	712	San Antonio Palopó	9	San Antonio Palopo	11	Noviembre	2023-05-11T00:00:00	2024-11-08T18:00:00	6	Velocidad del viento	1.6
17350	7	Sololá	712	San Antonio Palopó	9	San Antonio Palopo	11	Noviembre	2023-05-11T00:00:00	2024-11-08T18:00:00	7	Dirección del viento	1.61
17351	7	Sololá	712	San Antonio Palopó	9	San Antonio Palopo	11	Noviembre	2023-05-11T00:00:00	2024-11-08T18:00:00	1	Precipitación	0
17352	7	Sololá	712	San Antonio Palopó	9	San Antonio Palopo	11	Noviembre	2023-05-11T00:00:00	2024-11-08T18:00:00	8	Radiación solar	9
17353	7	Sololá	712	San Antonio Palopó	9	San Antonio Palopo	11	Noviembre	2023-05-11T00:00:00	2024-11-08T19:00:00	2	Temperatura media	20.4
17354	7	Sololá	712	San Antonio Palopó	9	San Antonio Palopo	11	Noviembre	2023-05-11T00:00:00	2024-11-08T19:00:00	4	Temperatura máxima	20.9
17355	7	Sololá	712	San Antonio Palopó	9	San Antonio Palopo	11	Noviembre	2023-05-11T00:00:00	2024-11-08T19:00:00	3	Temperatura mínima	20.4
17356	7	Sololá	712	San Antonio Palopó	9	San Antonio Palopo	11	Noviembre	2023-05-11T00:00:00	2024-11-08T19:00:00	5	Humedad	77
17357	7	Sololá	712	San Antonio Palopó	9	San Antonio Palopo	11	Noviembre	2023-05-11T00:00:00	2024-11-08T19:00:00	6	Velocidad del viento	4.8
17358	7	Sololá	712	San Antonio Palopó	9	San Antonio Palopo	11	Noviembre	2023-05-11T00:00:00	2024-11-08T19:00:00	7	Dirección del viento	4.83
17359	7	Sololá	712	San Antonio Palopó	9	San Antonio Palopo	11	Noviembre	2023-05-11T00:00:00	2024-11-08T19:00:00	1	Precipitación	0
17360	7	Sololá	712	San Antonio Palopó	9	San Antonio Palopo	11	Noviembre	2023-05-11T00:00:00	2024-11-08T19:00:00	8	Radiación solar	0
17361	7	Sololá	712	San Antonio Palopó	9	San Antonio Palopo	11	Noviembre	2023-05-11T00:00:00	2024-11-08T20:00:00	2	Temperatura media	20.2
17362	7	Sololá	712	San Antonio Palopó	9	San Antonio Palopo	11	Noviembre	2023-05-11T00:00:00	2024-11-08T20:00:00	4	Temperatura máxima	20.5
17363	7	Sololá	712	San Antonio Palopó	9	San Antonio Palopo	11	Noviembre	2023-05-11T00:00:00	2024-11-08T20:00:00	3	Temperatura mínima	20.2
17364	7	Sololá	712	San Antonio Palopó	9	San Antonio Palopo	11	Noviembre	2023-05-11T00:00:00	2024-11-08T20:00:00	5	Humedad	78
17365	7	Sololá	712	San Antonio Palopó	9	San Antonio Palopo	11	Noviembre	2023-05-11T00:00:00	2024-11-08T20:00:00	6	Velocidad del viento	6.4
17366	7	Sololá	712	San Antonio Palopó	9	San Antonio Palopo	11	Noviembre	2023-05-11T00:00:00	2024-11-08T20:00:00	7	Dirección del viento	6.44
17367	7	Sololá	712	San Antonio Palopó	9	San Antonio Palopo	11	Noviembre	2023-05-11T00:00:00	2024-11-08T20:00:00	1	Precipitación	0
17368	7	Sololá	712	San Antonio Palopó	9	San Antonio Palopo	11	Noviembre	2023-05-11T00:00:00	2024-11-08T20:00:00	8	Radiación solar	0
17369	7	Sololá	712	San Antonio Palopó	9	San Antonio Palopo	11	Noviembre	2023-05-11T00:00:00	2024-11-08T21:00:00	2	Temperatura media	20
17370	7	Sololá	712	San Antonio Palopó	9	San Antonio Palopo	11	Noviembre	2023-05-11T00:00:00	2024-11-08T21:00:00	4	Temperatura máxima	20.4
17371	7	Sololá	712	San Antonio Palopó	9	San Antonio Palopo	11	Noviembre	2023-05-11T00:00:00	2024-11-08T21:00:00	3	Temperatura mínima	19.9
17372	7	Sololá	712	San Antonio Palopó	9	San Antonio Palopo	11	Noviembre	2023-05-11T00:00:00	2024-11-08T21:00:00	5	Humedad	77
17373	7	Sololá	712	San Antonio Palopó	9	San Antonio Palopo	11	Noviembre	2023-05-11T00:00:00	2024-11-08T21:00:00	6	Velocidad del viento	3.2
17374	7	Sololá	712	San Antonio Palopó	9	San Antonio Palopo	11	Noviembre	2023-05-11T00:00:00	2024-11-08T21:00:00	7	Dirección del viento	3.22
17375	7	Sololá	712	San Antonio Palopó	9	San Antonio Palopo	11	Noviembre	2023-05-11T00:00:00	2024-11-08T21:00:00	1	Precipitación	0
17376	7	Sololá	712	San Antonio Palopó	9	San Antonio Palopo	11	Noviembre	2023-05-11T00:00:00	2024-11-08T21:00:00	8	Radiación solar	0
17377	7	Sololá	712	San Antonio Palopó	9	San Antonio Palopo	11	Noviembre	2023-05-11T00:00:00	2024-11-08T22:00:00	2	Temperatura media	20.5
17378	7	Sololá	712	San Antonio Palopó	9	San Antonio Palopo	11	Noviembre	2023-05-11T00:00:00	2024-11-08T22:00:00	4	Temperatura máxima	20.7
17379	7	Sololá	712	San Antonio Palopó	9	San Antonio Palopo	11	Noviembre	2023-05-11T00:00:00	2024-11-08T22:00:00	3	Temperatura mínima	20
17380	7	Sololá	712	San Antonio Palopó	9	San Antonio Palopo	11	Noviembre	2023-05-11T00:00:00	2024-11-08T22:00:00	5	Humedad	73
17381	7	Sololá	712	San Antonio Palopó	9	San Antonio Palopo	11	Noviembre	2023-05-11T00:00:00	2024-11-08T22:00:00	6	Velocidad del viento	3.2
17382	7	Sololá	712	San Antonio Palopó	9	San Antonio Palopo	11	Noviembre	2023-05-11T00:00:00	2024-11-08T22:00:00	7	Dirección del viento	3.22
17383	7	Sololá	712	San Antonio Palopó	9	San Antonio Palopo	11	Noviembre	2023-05-11T00:00:00	2024-11-08T22:00:00	1	Precipitación	0
17384	7	Sololá	712	San Antonio Palopó	9	San Antonio Palopo	11	Noviembre	2023-05-11T00:00:00	2024-11-08T22:00:00	8	Radiación solar	0
17385	7	Sololá	712	San Antonio Palopó	9	San Antonio Palopo	11	Noviembre	2023-05-11T00:00:00	2024-11-08T23:00:00	2	Temperatura media	20.2
17386	7	Sololá	712	San Antonio Palopó	9	San Antonio Palopo	11	Noviembre	2023-05-11T00:00:00	2024-11-08T23:00:00	4	Temperatura máxima	20.6
17387	7	Sololá	712	San Antonio Palopó	9	San Antonio Palopo	11	Noviembre	2023-05-11T00:00:00	2024-11-08T23:00:00	3	Temperatura mínima	19.7
17388	7	Sololá	712	San Antonio Palopó	9	San Antonio Palopo	11	Noviembre	2023-05-11T00:00:00	2024-11-08T23:00:00	5	Humedad	75
17389	7	Sololá	712	San Antonio Palopó	9	San Antonio Palopo	11	Noviembre	2023-05-11T00:00:00	2024-11-08T23:00:00	6	Velocidad del viento	4.8
17390	7	Sololá	712	San Antonio Palopó	9	San Antonio Palopo	11	Noviembre	2023-05-11T00:00:00	2024-11-08T23:00:00	7	Dirección del viento	4.83
17391	7	Sololá	712	San Antonio Palopó	9	San Antonio Palopo	11	Noviembre	2023-05-11T00:00:00	2024-11-08T23:00:00	1	Precipitación	0
17392	7	Sololá	712	San Antonio Palopó	9	San Antonio Palopo	11	Noviembre	2023-05-11T00:00:00	2024-11-08T23:00:00	8	Radiación solar	0
17393	7	Sololá	712	San Antonio Palopó	9	San Antonio Palopo	11	Noviembre	2023-06-11T00:00:00	2024-11-08T00:00:00	2	Temperatura media	20.2
17394	7	Sololá	712	San Antonio Palopó	9	San Antonio Palopo	11	Noviembre	2023-06-11T00:00:00	2024-11-08T00:00:00	4	Temperatura máxima	20.3
17395	7	Sololá	712	San Antonio Palopó	9	San Antonio Palopo	11	Noviembre	2023-06-11T00:00:00	2024-11-08T00:00:00	3	Temperatura mínima	20
17396	7	Sololá	712	San Antonio Palopó	9	San Antonio Palopo	11	Noviembre	2023-06-11T00:00:00	2024-11-08T00:00:00	5	Humedad	76
17397	7	Sololá	712	San Antonio Palopó	9	San Antonio Palopo	11	Noviembre	2023-06-11T00:00:00	2024-11-08T00:00:00	6	Velocidad del viento	4.8
17398	7	Sololá	712	San Antonio Palopó	9	San Antonio Palopo	11	Noviembre	2023-06-11T00:00:00	2024-11-08T00:00:00	7	Dirección del viento	4.83
17399	7	Sololá	712	San Antonio Palopó	9	San Antonio Palopo	11	Noviembre	2023-06-11T00:00:00	2024-11-08T00:00:00	1	Precipitación	0
17400	7	Sololá	712	San Antonio Palopó	9	San Antonio Palopo	11	Noviembre	2023-06-11T00:00:00	2024-11-08T00:00:00	8	Radiación solar	0
17401	7	Sololá	712	San Antonio Palopó	9	San Antonio Palopo	11	Noviembre	2023-06-11T00:00:00	2024-11-08T01:00:00	2	Temperatura media	20.4
17402	7	Sololá	712	San Antonio Palopó	9	San Antonio Palopo	11	Noviembre	2023-06-11T00:00:00	2024-11-08T01:00:00	4	Temperatura máxima	20.8
17403	7	Sololá	712	San Antonio Palopó	9	San Antonio Palopo	11	Noviembre	2023-06-11T00:00:00	2024-11-08T01:00:00	3	Temperatura mínima	20.1
17404	7	Sololá	712	San Antonio Palopó	9	San Antonio Palopo	11	Noviembre	2023-06-11T00:00:00	2024-11-08T01:00:00	5	Humedad	74
17405	7	Sololá	712	San Antonio Palopó	9	San Antonio Palopo	11	Noviembre	2023-06-11T00:00:00	2024-11-08T01:00:00	6	Velocidad del viento	6.4
17406	7	Sololá	712	San Antonio Palopó	9	San Antonio Palopo	11	Noviembre	2023-06-11T00:00:00	2024-11-08T01:00:00	7	Dirección del viento	6.44
17407	7	Sololá	712	San Antonio Palopó	9	San Antonio Palopo	11	Noviembre	2023-06-11T00:00:00	2024-11-08T01:00:00	1	Precipitación	0
17408	7	Sololá	712	San Antonio Palopó	9	San Antonio Palopo	11	Noviembre	2023-06-11T00:00:00	2024-11-08T01:00:00	8	Radiación solar	0
17409	7	Sololá	712	San Antonio Palopó	9	San Antonio Palopo	11	Noviembre	2023-06-11T00:00:00	2024-11-08T02:00:00	2	Temperatura media	20.6
17410	7	Sololá	712	San Antonio Palopó	9	San Antonio Palopo	11	Noviembre	2023-06-11T00:00:00	2024-11-08T02:00:00	4	Temperatura máxima	20.6
17411	7	Sololá	712	San Antonio Palopó	9	San Antonio Palopo	11	Noviembre	2023-06-11T00:00:00	2024-11-08T02:00:00	3	Temperatura mínima	20.1
17412	7	Sololá	712	San Antonio Palopó	9	San Antonio Palopo	11	Noviembre	2023-06-11T00:00:00	2024-11-08T02:00:00	5	Humedad	75
17413	7	Sololá	712	San Antonio Palopó	9	San Antonio Palopo	11	Noviembre	2023-06-11T00:00:00	2024-11-08T02:00:00	6	Velocidad del viento	3.2
17414	7	Sololá	712	San Antonio Palopó	9	San Antonio Palopo	11	Noviembre	2023-06-11T00:00:00	2024-11-08T02:00:00	7	Dirección del viento	3.22
17415	7	Sololá	712	San Antonio Palopó	9	San Antonio Palopo	11	Noviembre	2023-06-11T00:00:00	2024-11-08T02:00:00	1	Precipitación	0
17416	7	Sololá	712	San Antonio Palopó	9	San Antonio Palopo	11	Noviembre	2023-06-11T00:00:00	2024-11-08T02:00:00	8	Radiación solar	0
17417	7	Sololá	712	San Antonio Palopó	9	San Antonio Palopo	11	Noviembre	2023-06-11T00:00:00	2024-11-08T03:00:00	2	Temperatura media	19.9
17418	7	Sololá	712	San Antonio Palopó	9	San Antonio Palopo	11	Noviembre	2023-06-11T00:00:00	2024-11-08T03:00:00	4	Temperatura máxima	20.6
17419	7	Sololá	712	San Antonio Palopó	9	San Antonio Palopo	11	Noviembre	2023-06-11T00:00:00	2024-11-08T03:00:00	3	Temperatura mínima	19.8
17420	7	Sololá	712	San Antonio Palopó	9	San Antonio Palopo	11	Noviembre	2023-06-11T00:00:00	2024-11-08T03:00:00	5	Humedad	76
17421	7	Sololá	712	San Antonio Palopó	9	San Antonio Palopo	11	Noviembre	2023-06-11T00:00:00	2024-11-08T03:00:00	6	Velocidad del viento	3.2
17422	7	Sololá	712	San Antonio Palopó	9	San Antonio Palopo	11	Noviembre	2023-06-11T00:00:00	2024-11-08T03:00:00	7	Dirección del viento	3.22
17423	7	Sololá	712	San Antonio Palopó	9	San Antonio Palopo	11	Noviembre	2023-06-11T00:00:00	2024-11-08T03:00:00	1	Precipitación	0
17424	7	Sololá	712	San Antonio Palopó	9	San Antonio Palopo	11	Noviembre	2023-06-11T00:00:00	2024-11-08T03:00:00	8	Radiación solar	0
17425	7	Sololá	712	San Antonio Palopó	9	San Antonio Palopo	11	Noviembre	2023-06-11T00:00:00	2024-11-08T04:00:00	2	Temperatura media	19.9
17426	7	Sololá	712	San Antonio Palopó	9	San Antonio Palopo	11	Noviembre	2023-06-11T00:00:00	2024-11-08T04:00:00	4	Temperatura máxima	19.9
17427	7	Sololá	712	San Antonio Palopó	9	San Antonio Palopo	11	Noviembre	2023-06-11T00:00:00	2024-11-08T04:00:00	3	Temperatura mínima	19.4
17428	7	Sololá	712	San Antonio Palopó	9	San Antonio Palopo	11	Noviembre	2023-06-11T00:00:00	2024-11-08T04:00:00	5	Humedad	75
17429	7	Sololá	712	San Antonio Palopó	9	San Antonio Palopo	11	Noviembre	2023-06-11T00:00:00	2024-11-08T04:00:00	6	Velocidad del viento	3.2
17430	7	Sololá	712	San Antonio Palopó	9	San Antonio Palopo	11	Noviembre	2023-06-11T00:00:00	2024-11-08T04:00:00	7	Dirección del viento	3.22
17431	7	Sololá	712	San Antonio Palopó	9	San Antonio Palopo	11	Noviembre	2023-06-11T00:00:00	2024-11-08T04:00:00	1	Precipitación	0
17432	7	Sololá	712	San Antonio Palopó	9	San Antonio Palopo	11	Noviembre	2023-06-11T00:00:00	2024-11-08T04:00:00	8	Radiación solar	0
17433	7	Sololá	712	San Antonio Palopó	9	San Antonio Palopo	11	Noviembre	2023-06-11T00:00:00	2024-11-08T05:00:00	2	Temperatura media	20.3
17434	7	Sololá	712	San Antonio Palopó	9	San Antonio Palopo	11	Noviembre	2023-06-11T00:00:00	2024-11-08T05:00:00	4	Temperatura máxima	20.6
17435	7	Sololá	712	San Antonio Palopó	9	San Antonio Palopo	11	Noviembre	2023-06-11T00:00:00	2024-11-08T05:00:00	3	Temperatura mínima	19.9
17436	7	Sololá	712	San Antonio Palopó	9	San Antonio Palopo	11	Noviembre	2023-06-11T00:00:00	2024-11-08T05:00:00	5	Humedad	74
17437	7	Sololá	712	San Antonio Palopó	9	San Antonio Palopo	11	Noviembre	2023-06-11T00:00:00	2024-11-08T05:00:00	6	Velocidad del viento	4.8
17438	7	Sololá	712	San Antonio Palopó	9	San Antonio Palopo	11	Noviembre	2023-06-11T00:00:00	2024-11-08T05:00:00	7	Dirección del viento	4.83
17439	7	Sololá	712	San Antonio Palopó	9	San Antonio Palopo	11	Noviembre	2023-06-11T00:00:00	2024-11-08T05:00:00	1	Precipitación	0
17440	7	Sololá	712	San Antonio Palopó	9	San Antonio Palopo	11	Noviembre	2023-06-11T00:00:00	2024-11-08T05:00:00	8	Radiación solar	0
17441	7	Sololá	712	San Antonio Palopó	9	San Antonio Palopo	11	Noviembre	2023-06-11T00:00:00	2024-11-08T06:00:00	2	Temperatura media	20.5
17442	7	Sololá	712	San Antonio Palopó	9	San Antonio Palopo	11	Noviembre	2023-06-11T00:00:00	2024-11-08T06:00:00	4	Temperatura máxima	20.7
17443	7	Sololá	712	San Antonio Palopó	9	San Antonio Palopo	11	Noviembre	2023-06-11T00:00:00	2024-11-08T06:00:00	3	Temperatura mínima	20.3
17444	7	Sololá	712	San Antonio Palopó	9	San Antonio Palopo	11	Noviembre	2023-06-11T00:00:00	2024-11-08T06:00:00	5	Humedad	73
17445	7	Sololá	712	San Antonio Palopó	9	San Antonio Palopo	11	Noviembre	2023-06-11T00:00:00	2024-11-08T06:00:00	6	Velocidad del viento	4.8
17446	7	Sololá	712	San Antonio Palopó	9	San Antonio Palopo	11	Noviembre	2023-06-11T00:00:00	2024-11-08T06:00:00	7	Dirección del viento	4.83
17447	7	Sololá	712	San Antonio Palopó	9	San Antonio Palopo	11	Noviembre	2023-06-11T00:00:00	2024-11-08T06:00:00	1	Precipitación	0
17448	7	Sololá	712	San Antonio Palopó	9	San Antonio Palopo	11	Noviembre	2023-06-11T00:00:00	2024-11-08T06:00:00	8	Radiación solar	0
17449	7	Sololá	712	San Antonio Palopó	9	San Antonio Palopo	11	Noviembre	2023-06-11T00:00:00	2024-11-08T07:00:00	2	Temperatura media	20.6
17450	7	Sololá	712	San Antonio Palopó	9	San Antonio Palopo	11	Noviembre	2023-06-11T00:00:00	2024-11-08T07:00:00	4	Temperatura máxima	20.6
17451	7	Sololá	712	San Antonio Palopó	9	San Antonio Palopo	11	Noviembre	2023-06-11T00:00:00	2024-11-08T07:00:00	3	Temperatura mínima	20.4
17452	7	Sololá	712	San Antonio Palopó	9	San Antonio Palopo	11	Noviembre	2023-06-11T00:00:00	2024-11-08T07:00:00	5	Humedad	73
17453	7	Sololá	712	San Antonio Palopó	9	San Antonio Palopo	11	Noviembre	2023-06-11T00:00:00	2024-11-08T07:00:00	6	Velocidad del viento	4.8
17454	7	Sololá	712	San Antonio Palopó	9	San Antonio Palopo	11	Noviembre	2023-06-11T00:00:00	2024-11-08T07:00:00	7	Dirección del viento	4.83
17455	7	Sololá	712	San Antonio Palopó	9	San Antonio Palopo	11	Noviembre	2023-06-11T00:00:00	2024-11-08T07:00:00	1	Precipitación	0
17456	7	Sololá	712	San Antonio Palopó	9	San Antonio Palopo	11	Noviembre	2023-06-11T00:00:00	2024-11-08T07:00:00	8	Radiación solar	35
17457	7	Sololá	712	San Antonio Palopó	9	San Antonio Palopo	11	Noviembre	2023-06-11T00:00:00	2024-11-08T08:00:00	2	Temperatura media	21.4
17458	7	Sololá	712	San Antonio Palopó	9	San Antonio Palopo	11	Noviembre	2023-06-11T00:00:00	2024-11-08T08:00:00	4	Temperatura máxima	21.4
17459	7	Sololá	712	San Antonio Palopó	9	San Antonio Palopo	11	Noviembre	2023-06-11T00:00:00	2024-11-08T08:00:00	3	Temperatura mínima	20.6
17460	7	Sololá	712	San Antonio Palopó	9	San Antonio Palopo	11	Noviembre	2023-06-11T00:00:00	2024-11-08T08:00:00	5	Humedad	73
17461	7	Sololá	712	San Antonio Palopó	9	San Antonio Palopo	11	Noviembre	2023-06-11T00:00:00	2024-11-08T08:00:00	6	Velocidad del viento	6.4
17462	7	Sololá	712	San Antonio Palopó	9	San Antonio Palopo	11	Noviembre	2023-06-11T00:00:00	2024-11-08T08:00:00	7	Dirección del viento	6.44
17463	7	Sololá	712	San Antonio Palopó	9	San Antonio Palopo	11	Noviembre	2023-06-11T00:00:00	2024-11-08T08:00:00	1	Precipitación	0
17464	7	Sololá	712	San Antonio Palopó	9	San Antonio Palopo	11	Noviembre	2023-06-11T00:00:00	2024-11-08T08:00:00	8	Radiación solar	90
17465	7	Sololá	712	San Antonio Palopó	9	San Antonio Palopo	11	Noviembre	2023-06-11T00:00:00	2024-11-08T09:00:00	2	Temperatura media	22.3
17466	7	Sololá	712	San Antonio Palopó	9	San Antonio Palopo	11	Noviembre	2023-06-11T00:00:00	2024-11-08T09:00:00	4	Temperatura máxima	22.3
17467	7	Sololá	712	San Antonio Palopó	9	San Antonio Palopo	11	Noviembre	2023-06-11T00:00:00	2024-11-08T09:00:00	3	Temperatura mínima	21.4
17468	7	Sololá	712	San Antonio Palopó	9	San Antonio Palopo	11	Noviembre	2023-06-11T00:00:00	2024-11-08T09:00:00	5	Humedad	68
17469	7	Sololá	712	San Antonio Palopó	9	San Antonio Palopo	11	Noviembre	2023-06-11T00:00:00	2024-11-08T09:00:00	6	Velocidad del viento	6.4
17470	7	Sololá	712	San Antonio Palopó	9	San Antonio Palopo	11	Noviembre	2023-06-11T00:00:00	2024-11-08T09:00:00	7	Dirección del viento	6.44
17471	7	Sololá	712	San Antonio Palopó	9	San Antonio Palopo	11	Noviembre	2023-06-11T00:00:00	2024-11-08T09:00:00	1	Precipitación	0
17472	7	Sololá	712	San Antonio Palopó	9	San Antonio Palopo	11	Noviembre	2023-06-11T00:00:00	2024-11-08T09:00:00	8	Radiación solar	140
17473	7	Sololá	712	San Antonio Palopó	9	San Antonio Palopo	11	Noviembre	2023-06-11T00:00:00	2024-11-08T10:00:00	2	Temperatura media	22.8
17474	7	Sololá	712	San Antonio Palopó	9	San Antonio Palopo	11	Noviembre	2023-06-11T00:00:00	2024-11-08T10:00:00	4	Temperatura máxima	22.9
17475	7	Sololá	712	San Antonio Palopó	9	San Antonio Palopo	11	Noviembre	2023-06-11T00:00:00	2024-11-08T10:00:00	3	Temperatura mínima	22.3
17476	7	Sololá	712	San Antonio Palopó	9	San Antonio Palopo	11	Noviembre	2023-06-11T00:00:00	2024-11-08T10:00:00	5	Humedad	68
17477	7	Sololá	712	San Antonio Palopó	9	San Antonio Palopo	11	Noviembre	2023-06-11T00:00:00	2024-11-08T10:00:00	6	Velocidad del viento	3.2
17478	7	Sololá	712	San Antonio Palopó	9	San Antonio Palopo	11	Noviembre	2023-06-11T00:00:00	2024-11-08T10:00:00	7	Dirección del viento	3.22
17479	7	Sololá	712	San Antonio Palopó	9	San Antonio Palopo	11	Noviembre	2023-06-11T00:00:00	2024-11-08T10:00:00	1	Precipitación	0
17480	7	Sololá	712	San Antonio Palopó	9	San Antonio Palopo	11	Noviembre	2023-06-11T00:00:00	2024-11-08T10:00:00	8	Radiación solar	221
17481	7	Sololá	712	San Antonio Palopó	9	San Antonio Palopo	11	Noviembre	2023-06-11T00:00:00	2024-11-08T11:00:00	2	Temperatura media	23.5
17482	7	Sololá	712	San Antonio Palopó	9	San Antonio Palopo	11	Noviembre	2023-06-11T00:00:00	2024-11-08T11:00:00	4	Temperatura máxima	23.6
17483	7	Sololá	712	San Antonio Palopó	9	San Antonio Palopo	11	Noviembre	2023-06-11T00:00:00	2024-11-08T11:00:00	3	Temperatura mínima	22.7
17484	7	Sololá	712	San Antonio Palopó	9	San Antonio Palopo	11	Noviembre	2023-06-11T00:00:00	2024-11-08T11:00:00	5	Humedad	66
17485	7	Sololá	712	San Antonio Palopó	9	San Antonio Palopo	11	Noviembre	2023-06-11T00:00:00	2024-11-08T11:00:00	6	Velocidad del viento	4.8
17486	7	Sololá	712	San Antonio Palopó	9	San Antonio Palopo	11	Noviembre	2023-06-11T00:00:00	2024-11-08T11:00:00	7	Dirección del viento	4.83
17487	7	Sololá	712	San Antonio Palopó	9	San Antonio Palopo	11	Noviembre	2023-06-11T00:00:00	2024-11-08T11:00:00	1	Precipitación	0
17488	7	Sololá	712	San Antonio Palopó	9	San Antonio Palopo	11	Noviembre	2023-06-11T00:00:00	2024-11-08T11:00:00	8	Radiación solar	332
17489	7	Sololá	712	San Antonio Palopó	9	San Antonio Palopo	11	Noviembre	2023-06-11T00:00:00	2024-11-08T12:00:00	2	Temperatura media	24.1
17490	7	Sololá	712	San Antonio Palopó	9	San Antonio Palopo	11	Noviembre	2023-06-11T00:00:00	2024-11-08T12:00:00	4	Temperatura máxima	24.8
17491	7	Sololá	712	San Antonio Palopó	9	San Antonio Palopo	11	Noviembre	2023-06-11T00:00:00	2024-11-08T12:00:00	3	Temperatura mínima	23.4
17492	7	Sololá	712	San Antonio Palopó	9	San Antonio Palopo	11	Noviembre	2023-06-11T00:00:00	2024-11-08T12:00:00	5	Humedad	66
17493	7	Sololá	712	San Antonio Palopó	9	San Antonio Palopo	11	Noviembre	2023-06-11T00:00:00	2024-11-08T12:00:00	6	Velocidad del viento	4.8
17494	7	Sololá	712	San Antonio Palopó	9	San Antonio Palopo	11	Noviembre	2023-06-11T00:00:00	2024-11-08T12:00:00	7	Dirección del viento	4.83
17495	7	Sololá	712	San Antonio Palopó	9	San Antonio Palopo	11	Noviembre	2023-06-11T00:00:00	2024-11-08T12:00:00	1	Precipitación	0
17496	7	Sololá	712	San Antonio Palopó	9	San Antonio Palopo	11	Noviembre	2023-06-11T00:00:00	2024-11-08T12:00:00	8	Radiación solar	500
17497	7	Sololá	712	San Antonio Palopó	9	San Antonio Palopo	11	Noviembre	2023-06-11T00:00:00	2024-11-08T13:00:00	2	Temperatura media	24.1
17498	7	Sololá	712	San Antonio Palopó	9	San Antonio Palopo	11	Noviembre	2023-06-11T00:00:00	2024-11-08T13:00:00	4	Temperatura máxima	24.5
17499	7	Sololá	712	San Antonio Palopó	9	San Antonio Palopo	11	Noviembre	2023-06-11T00:00:00	2024-11-08T13:00:00	3	Temperatura mínima	23.8
17500	7	Sololá	712	San Antonio Palopó	9	San Antonio Palopo	11	Noviembre	2023-06-11T00:00:00	2024-11-08T13:00:00	5	Humedad	64
17501	7	Sololá	712	San Antonio Palopó	9	San Antonio Palopo	11	Noviembre	2023-06-11T00:00:00	2024-11-08T13:00:00	6	Velocidad del viento	8
17502	7	Sololá	712	San Antonio Palopó	9	San Antonio Palopo	11	Noviembre	2023-06-11T00:00:00	2024-11-08T13:00:00	7	Dirección del viento	8.05
17503	7	Sololá	712	San Antonio Palopó	9	San Antonio Palopo	11	Noviembre	2023-06-11T00:00:00	2024-11-08T13:00:00	1	Precipitación	0
17504	7	Sololá	712	San Antonio Palopó	9	San Antonio Palopo	11	Noviembre	2023-06-11T00:00:00	2024-11-08T13:00:00	8	Radiación solar	303
17505	7	Sololá	712	San Antonio Palopó	9	San Antonio Palopo	11	Noviembre	2023-06-11T00:00:00	2024-11-08T14:00:00	2	Temperatura media	24.7
17506	7	Sololá	712	San Antonio Palopó	9	San Antonio Palopo	11	Noviembre	2023-06-11T00:00:00	2024-11-08T14:00:00	4	Temperatura máxima	25.7
17507	7	Sololá	712	San Antonio Palopó	9	San Antonio Palopo	11	Noviembre	2023-06-11T00:00:00	2024-11-08T14:00:00	3	Temperatura mínima	24.1
17508	7	Sololá	712	San Antonio Palopó	9	San Antonio Palopo	11	Noviembre	2023-06-11T00:00:00	2024-11-08T14:00:00	5	Humedad	63
17509	7	Sololá	712	San Antonio Palopó	9	San Antonio Palopo	11	Noviembre	2023-06-11T00:00:00	2024-11-08T14:00:00	6	Velocidad del viento	9.7
17510	7	Sololá	712	San Antonio Palopó	9	San Antonio Palopo	11	Noviembre	2023-06-11T00:00:00	2024-11-08T14:00:00	7	Dirección del viento	9.66
17511	7	Sololá	712	San Antonio Palopó	9	San Antonio Palopo	11	Noviembre	2023-06-11T00:00:00	2024-11-08T14:00:00	1	Precipitación	0
17512	7	Sololá	712	San Antonio Palopó	9	San Antonio Palopo	11	Noviembre	2023-06-11T00:00:00	2024-11-08T14:00:00	8	Radiación solar	409
17513	7	Sololá	712	San Antonio Palopó	9	San Antonio Palopo	11	Noviembre	2023-06-11T00:00:00	2024-11-08T15:00:00	2	Temperatura media	22.9
17514	7	Sololá	712	San Antonio Palopó	9	San Antonio Palopo	11	Noviembre	2023-06-11T00:00:00	2024-11-08T15:00:00	4	Temperatura máxima	24.9
17515	7	Sololá	712	San Antonio Palopó	9	San Antonio Palopo	11	Noviembre	2023-06-11T00:00:00	2024-11-08T15:00:00	3	Temperatura mínima	22.9
17516	7	Sololá	712	San Antonio Palopó	9	San Antonio Palopo	11	Noviembre	2023-06-11T00:00:00	2024-11-08T15:00:00	5	Humedad	69
17517	7	Sololá	712	San Antonio Palopó	9	San Antonio Palopo	11	Noviembre	2023-06-11T00:00:00	2024-11-08T15:00:00	6	Velocidad del viento	8
17518	7	Sololá	712	San Antonio Palopó	9	San Antonio Palopo	11	Noviembre	2023-06-11T00:00:00	2024-11-08T15:00:00	7	Dirección del viento	8.05
17519	7	Sololá	712	San Antonio Palopó	9	San Antonio Palopo	11	Noviembre	2023-06-11T00:00:00	2024-11-08T15:00:00	1	Precipitación	0
17520	7	Sololá	712	San Antonio Palopó	9	San Antonio Palopo	11	Noviembre	2023-06-11T00:00:00	2024-11-08T15:00:00	8	Radiación solar	227
17521	7	Sololá	712	San Antonio Palopó	9	San Antonio Palopo	11	Noviembre	2023-06-11T00:00:00	2024-11-08T16:00:00	2	Temperatura media	24.6
17522	7	Sololá	712	San Antonio Palopó	9	San Antonio Palopo	11	Noviembre	2023-06-11T00:00:00	2024-11-08T16:00:00	4	Temperatura máxima	24.6
17523	7	Sololá	712	San Antonio Palopó	9	San Antonio Palopo	11	Noviembre	2023-06-11T00:00:00	2024-11-08T16:00:00	3	Temperatura mínima	22.9
17524	7	Sololá	712	San Antonio Palopó	9	San Antonio Palopo	11	Noviembre	2023-06-11T00:00:00	2024-11-08T16:00:00	5	Humedad	63
17525	7	Sololá	712	San Antonio Palopó	9	San Antonio Palopo	11	Noviembre	2023-06-11T00:00:00	2024-11-08T16:00:00	6	Velocidad del viento	6.4
17526	7	Sololá	712	San Antonio Palopó	9	San Antonio Palopo	11	Noviembre	2023-06-11T00:00:00	2024-11-08T16:00:00	7	Dirección del viento	6.44
17527	7	Sololá	712	San Antonio Palopó	9	San Antonio Palopo	11	Noviembre	2023-06-11T00:00:00	2024-11-08T16:00:00	1	Precipitación	0
17528	7	Sololá	712	San Antonio Palopó	9	San Antonio Palopo	11	Noviembre	2023-06-11T00:00:00	2024-11-08T16:00:00	8	Radiación solar	139
17529	7	Sololá	712	San Antonio Palopó	9	San Antonio Palopo	11	Noviembre	2023-06-11T00:00:00	2024-11-08T17:00:00	2	Temperatura media	22.7
17530	7	Sololá	712	San Antonio Palopó	9	San Antonio Palopo	11	Noviembre	2023-06-11T00:00:00	2024-11-08T17:00:00	4	Temperatura máxima	25.1
17531	7	Sololá	712	San Antonio Palopó	9	San Antonio Palopo	11	Noviembre	2023-06-11T00:00:00	2024-11-08T17:00:00	3	Temperatura mínima	22.7
17532	7	Sololá	712	San Antonio Palopó	9	San Antonio Palopo	11	Noviembre	2023-06-11T00:00:00	2024-11-08T17:00:00	5	Humedad	69
17533	7	Sololá	712	San Antonio Palopó	9	San Antonio Palopo	11	Noviembre	2023-06-11T00:00:00	2024-11-08T17:00:00	6	Velocidad del viento	8
17534	7	Sololá	712	San Antonio Palopó	9	San Antonio Palopo	11	Noviembre	2023-06-11T00:00:00	2024-11-08T17:00:00	7	Dirección del viento	8.05
17535	7	Sololá	712	San Antonio Palopó	9	San Antonio Palopo	11	Noviembre	2023-06-11T00:00:00	2024-11-08T17:00:00	1	Precipitación	0
17536	7	Sololá	712	San Antonio Palopó	9	San Antonio Palopo	11	Noviembre	2023-06-11T00:00:00	2024-11-08T17:00:00	8	Radiación solar	49
17537	7	Sololá	712	San Antonio Palopó	9	San Antonio Palopo	11	Noviembre	2023-06-11T00:00:00	2024-11-08T18:00:00	2	Temperatura media	20.9
17538	7	Sololá	712	San Antonio Palopó	9	San Antonio Palopo	11	Noviembre	2023-06-11T00:00:00	2024-11-08T18:00:00	4	Temperatura máxima	22.7
17539	7	Sololá	712	San Antonio Palopó	9	San Antonio Palopo	11	Noviembre	2023-06-11T00:00:00	2024-11-08T18:00:00	3	Temperatura mínima	20.8
17540	7	Sololá	712	San Antonio Palopó	9	San Antonio Palopo	11	Noviembre	2023-06-11T00:00:00	2024-11-08T18:00:00	5	Humedad	74
17541	7	Sololá	712	San Antonio Palopó	9	San Antonio Palopo	11	Noviembre	2023-06-11T00:00:00	2024-11-08T18:00:00	6	Velocidad del viento	4.8
17542	7	Sololá	712	San Antonio Palopó	9	San Antonio Palopo	11	Noviembre	2023-06-11T00:00:00	2024-11-08T18:00:00	7	Dirección del viento	4.83
17543	7	Sololá	712	San Antonio Palopó	9	San Antonio Palopo	11	Noviembre	2023-06-11T00:00:00	2024-11-08T18:00:00	1	Precipitación	0
17544	7	Sololá	712	San Antonio Palopó	9	San Antonio Palopo	11	Noviembre	2023-06-11T00:00:00	2024-11-08T18:00:00	8	Radiación solar	2
17545	7	Sololá	712	San Antonio Palopó	9	San Antonio Palopo	11	Noviembre	2023-06-11T00:00:00	2024-11-08T19:00:00	2	Temperatura media	21.3
17546	7	Sololá	712	San Antonio Palopó	9	San Antonio Palopo	11	Noviembre	2023-06-11T00:00:00	2024-11-08T19:00:00	4	Temperatura máxima	21.6
17547	7	Sololá	712	San Antonio Palopó	9	San Antonio Palopo	11	Noviembre	2023-06-11T00:00:00	2024-11-08T19:00:00	3	Temperatura mínima	21
17548	7	Sololá	712	San Antonio Palopó	9	San Antonio Palopo	11	Noviembre	2023-06-11T00:00:00	2024-11-08T19:00:00	5	Humedad	72
17549	7	Sololá	712	San Antonio Palopó	9	San Antonio Palopo	11	Noviembre	2023-06-11T00:00:00	2024-11-08T19:00:00	6	Velocidad del viento	4.8
17550	7	Sololá	712	San Antonio Palopó	9	San Antonio Palopo	11	Noviembre	2023-06-11T00:00:00	2024-11-08T19:00:00	7	Dirección del viento	4.83
17551	7	Sololá	712	San Antonio Palopó	9	San Antonio Palopo	11	Noviembre	2023-06-11T00:00:00	2024-11-08T19:00:00	1	Precipitación	0
17552	7	Sololá	712	San Antonio Palopó	9	San Antonio Palopo	11	Noviembre	2023-06-11T00:00:00	2024-11-08T19:00:00	8	Radiación solar	0
17553	7	Sololá	712	San Antonio Palopó	9	San Antonio Palopo	11	Noviembre	2023-06-11T00:00:00	2024-11-08T20:00:00	2	Temperatura media	21.4
17554	7	Sololá	712	San Antonio Palopó	9	San Antonio Palopo	11	Noviembre	2023-06-11T00:00:00	2024-11-08T20:00:00	4	Temperatura máxima	21.8
17555	7	Sololá	712	San Antonio Palopó	9	San Antonio Palopo	11	Noviembre	2023-06-11T00:00:00	2024-11-08T20:00:00	3	Temperatura mínima	21.3
17556	7	Sololá	712	San Antonio Palopó	9	San Antonio Palopo	11	Noviembre	2023-06-11T00:00:00	2024-11-08T20:00:00	5	Humedad	71
17557	7	Sololá	712	San Antonio Palopó	9	San Antonio Palopo	11	Noviembre	2023-06-11T00:00:00	2024-11-08T20:00:00	6	Velocidad del viento	4.8
17558	7	Sololá	712	San Antonio Palopó	9	San Antonio Palopo	11	Noviembre	2023-06-11T00:00:00	2024-11-08T20:00:00	7	Dirección del viento	4.83
17559	7	Sololá	712	San Antonio Palopó	9	San Antonio Palopo	11	Noviembre	2023-06-11T00:00:00	2024-11-08T20:00:00	1	Precipitación	0
17560	7	Sololá	712	San Antonio Palopó	9	San Antonio Palopo	11	Noviembre	2023-06-11T00:00:00	2024-11-08T20:00:00	8	Radiación solar	0
17561	7	Sololá	712	San Antonio Palopó	9	San Antonio Palopo	11	Noviembre	2023-06-11T00:00:00	2024-11-08T21:00:00	2	Temperatura media	21.1
17562	7	Sololá	712	San Antonio Palopó	9	San Antonio Palopo	11	Noviembre	2023-06-11T00:00:00	2024-11-08T21:00:00	4	Temperatura máxima	21.8
17563	7	Sololá	712	San Antonio Palopó	9	San Antonio Palopo	11	Noviembre	2023-06-11T00:00:00	2024-11-08T21:00:00	3	Temperatura mínima	21.1
17564	7	Sololá	712	San Antonio Palopó	9	San Antonio Palopo	11	Noviembre	2023-06-11T00:00:00	2024-11-08T21:00:00	5	Humedad	74
17565	7	Sololá	712	San Antonio Palopó	9	San Antonio Palopo	11	Noviembre	2023-06-11T00:00:00	2024-11-08T21:00:00	6	Velocidad del viento	6.4
17566	7	Sololá	712	San Antonio Palopó	9	San Antonio Palopo	11	Noviembre	2023-06-11T00:00:00	2024-11-08T21:00:00	7	Dirección del viento	6.44
17567	7	Sololá	712	San Antonio Palopó	9	San Antonio Palopo	11	Noviembre	2023-06-11T00:00:00	2024-11-08T21:00:00	1	Precipitación	0
17568	7	Sololá	712	San Antonio Palopó	9	San Antonio Palopo	11	Noviembre	2023-06-11T00:00:00	2024-11-08T21:00:00	8	Radiación solar	0
17569	7	Sololá	712	San Antonio Palopó	9	San Antonio Palopo	11	Noviembre	2023-06-11T00:00:00	2024-11-08T22:00:00	2	Temperatura media	20.6
17570	7	Sololá	712	San Antonio Palopó	9	San Antonio Palopo	11	Noviembre	2023-06-11T00:00:00	2024-11-08T22:00:00	4	Temperatura máxima	21.3
17571	7	Sololá	712	San Antonio Palopó	9	San Antonio Palopo	11	Noviembre	2023-06-11T00:00:00	2024-11-08T22:00:00	3	Temperatura mínima	20.4
17572	7	Sololá	712	San Antonio Palopó	9	San Antonio Palopo	11	Noviembre	2023-06-11T00:00:00	2024-11-08T22:00:00	5	Humedad	75
17573	7	Sololá	712	San Antonio Palopó	9	San Antonio Palopo	11	Noviembre	2023-06-11T00:00:00	2024-11-08T22:00:00	6	Velocidad del viento	6.4
17574	7	Sololá	712	San Antonio Palopó	9	San Antonio Palopo	11	Noviembre	2023-06-11T00:00:00	2024-11-08T22:00:00	7	Dirección del viento	6.44
17575	7	Sololá	712	San Antonio Palopó	9	San Antonio Palopo	11	Noviembre	2023-06-11T00:00:00	2024-11-08T22:00:00	1	Precipitación	0
17576	7	Sololá	712	San Antonio Palopó	9	San Antonio Palopo	11	Noviembre	2023-06-11T00:00:00	2024-11-08T22:00:00	8	Radiación solar	0
17577	7	Sololá	712	San Antonio Palopó	9	San Antonio Palopo	11	Noviembre	2023-06-11T00:00:00	2024-11-08T23:00:00	2	Temperatura media	21.2
17578	7	Sololá	712	San Antonio Palopó	9	San Antonio Palopo	11	Noviembre	2023-06-11T00:00:00	2024-11-08T23:00:00	4	Temperatura máxima	21.2
17579	7	Sololá	712	San Antonio Palopó	9	San Antonio Palopo	11	Noviembre	2023-06-11T00:00:00	2024-11-08T23:00:00	3	Temperatura mínima	20.4
17580	7	Sololá	712	San Antonio Palopó	9	San Antonio Palopo	11	Noviembre	2023-06-11T00:00:00	2024-11-08T23:00:00	5	Humedad	70
17581	7	Sololá	712	San Antonio Palopó	9	San Antonio Palopo	11	Noviembre	2023-06-11T00:00:00	2024-11-08T23:00:00	6	Velocidad del viento	4.8
17582	7	Sololá	712	San Antonio Palopó	9	San Antonio Palopo	11	Noviembre	2023-06-11T00:00:00	2024-11-08T23:00:00	7	Dirección del viento	4.83
17583	7	Sololá	712	San Antonio Palopó	9	San Antonio Palopo	11	Noviembre	2023-06-11T00:00:00	2024-11-08T23:00:00	1	Precipitación	0
17584	7	Sololá	712	San Antonio Palopó	9	San Antonio Palopo	11	Noviembre	2023-06-11T00:00:00	2024-11-08T23:00:00	8	Radiación solar	0
17585	7	Sololá	712	San Antonio Palopó	9	San Antonio Palopo	11	Noviembre	2023-07-11T00:00:00	2024-11-08T00:00:00	2	Temperatura media	21.1
17586	7	Sololá	712	San Antonio Palopó	9	San Antonio Palopo	11	Noviembre	2023-07-11T00:00:00	2024-11-08T00:00:00	4	Temperatura máxima	21.5
17587	7	Sololá	712	San Antonio Palopó	9	San Antonio Palopo	11	Noviembre	2023-07-11T00:00:00	2024-11-08T00:00:00	3	Temperatura mínima	21.1
17588	7	Sololá	712	San Antonio Palopó	9	San Antonio Palopo	11	Noviembre	2023-07-11T00:00:00	2024-11-08T00:00:00	5	Humedad	72
17589	7	Sololá	712	San Antonio Palopó	9	San Antonio Palopo	11	Noviembre	2023-07-11T00:00:00	2024-11-08T00:00:00	6	Velocidad del viento	4.8
17590	7	Sololá	712	San Antonio Palopó	9	San Antonio Palopo	11	Noviembre	2023-07-11T00:00:00	2024-11-08T00:00:00	7	Dirección del viento	4.83
17591	7	Sololá	712	San Antonio Palopó	9	San Antonio Palopo	11	Noviembre	2023-07-11T00:00:00	2024-11-08T00:00:00	1	Precipitación	0
17592	7	Sololá	712	San Antonio Palopó	9	San Antonio Palopo	11	Noviembre	2023-07-11T00:00:00	2024-11-08T00:00:00	8	Radiación solar	0
17593	7	Sololá	712	San Antonio Palopó	9	San Antonio Palopo	11	Noviembre	2023-07-11T00:00:00	2024-11-08T01:00:00	2	Temperatura media	20.7
17594	7	Sololá	712	San Antonio Palopó	9	San Antonio Palopo	11	Noviembre	2023-07-11T00:00:00	2024-11-08T01:00:00	4	Temperatura máxima	21.3
17595	7	Sololá	712	San Antonio Palopó	9	San Antonio Palopo	11	Noviembre	2023-07-11T00:00:00	2024-11-08T01:00:00	3	Temperatura mínima	20.7
17596	7	Sololá	712	San Antonio Palopó	9	San Antonio Palopo	11	Noviembre	2023-07-11T00:00:00	2024-11-08T01:00:00	5	Humedad	73
17597	7	Sololá	712	San Antonio Palopó	9	San Antonio Palopo	11	Noviembre	2023-07-11T00:00:00	2024-11-08T01:00:00	6	Velocidad del viento	4.8
17598	7	Sololá	712	San Antonio Palopó	9	San Antonio Palopo	11	Noviembre	2023-07-11T00:00:00	2024-11-08T01:00:00	7	Dirección del viento	4.83
17599	7	Sololá	712	San Antonio Palopó	9	San Antonio Palopo	11	Noviembre	2023-07-11T00:00:00	2024-11-08T01:00:00	1	Precipitación	0
17600	7	Sololá	712	San Antonio Palopó	9	San Antonio Palopo	11	Noviembre	2023-07-11T00:00:00	2024-11-08T01:00:00	8	Radiación solar	0
17601	7	Sololá	712	San Antonio Palopó	9	San Antonio Palopo	11	Noviembre	2023-07-11T00:00:00	2024-11-08T02:00:00	2	Temperatura media	20.3
17602	7	Sololá	712	San Antonio Palopó	9	San Antonio Palopo	11	Noviembre	2023-07-11T00:00:00	2024-11-08T02:00:00	4	Temperatura máxima	20.8
17603	7	Sololá	712	San Antonio Palopó	9	San Antonio Palopo	11	Noviembre	2023-07-11T00:00:00	2024-11-08T02:00:00	3	Temperatura mínima	20.3
17604	7	Sololá	712	San Antonio Palopó	9	San Antonio Palopo	11	Noviembre	2023-07-11T00:00:00	2024-11-08T02:00:00	5	Humedad	73
17605	7	Sololá	712	San Antonio Palopó	9	San Antonio Palopo	11	Noviembre	2023-07-11T00:00:00	2024-11-08T02:00:00	6	Velocidad del viento	4.8
17606	7	Sololá	712	San Antonio Palopó	9	San Antonio Palopo	11	Noviembre	2023-07-11T00:00:00	2024-11-08T02:00:00	7	Dirección del viento	4.83
17607	7	Sololá	712	San Antonio Palopó	9	San Antonio Palopo	11	Noviembre	2023-07-11T00:00:00	2024-11-08T02:00:00	1	Precipitación	0
17608	7	Sololá	712	San Antonio Palopó	9	San Antonio Palopo	11	Noviembre	2023-07-11T00:00:00	2024-11-08T02:00:00	8	Radiación solar	0
17609	7	Sololá	712	San Antonio Palopó	9	San Antonio Palopo	11	Noviembre	2023-07-11T00:00:00	2024-11-08T03:00:00	2	Temperatura media	20.2
17610	7	Sololá	712	San Antonio Palopó	9	San Antonio Palopo	11	Noviembre	2023-07-11T00:00:00	2024-11-08T03:00:00	4	Temperatura máxima	20.5
17611	7	Sololá	712	San Antonio Palopó	9	San Antonio Palopo	11	Noviembre	2023-07-11T00:00:00	2024-11-08T03:00:00	3	Temperatura mínima	19.9
17612	7	Sololá	712	San Antonio Palopó	9	San Antonio Palopo	11	Noviembre	2023-07-11T00:00:00	2024-11-08T03:00:00	5	Humedad	73
17613	7	Sololá	712	San Antonio Palopó	9	San Antonio Palopo	11	Noviembre	2023-07-11T00:00:00	2024-11-08T03:00:00	6	Velocidad del viento	6.4
17614	7	Sololá	712	San Antonio Palopó	9	San Antonio Palopo	11	Noviembre	2023-07-11T00:00:00	2024-11-08T03:00:00	7	Dirección del viento	6.44
17615	7	Sololá	712	San Antonio Palopó	9	San Antonio Palopo	11	Noviembre	2023-07-11T00:00:00	2024-11-08T03:00:00	1	Precipitación	0
17616	7	Sololá	712	San Antonio Palopó	9	San Antonio Palopo	11	Noviembre	2023-07-11T00:00:00	2024-11-08T03:00:00	8	Radiación solar	0
17617	7	Sololá	712	San Antonio Palopó	9	San Antonio Palopo	11	Noviembre	2023-07-11T00:00:00	2024-11-08T04:00:00	2	Temperatura media	20.3
17618	7	Sololá	712	San Antonio Palopó	9	San Antonio Palopo	11	Noviembre	2023-07-11T00:00:00	2024-11-08T04:00:00	4	Temperatura máxima	20.3
17619	7	Sololá	712	San Antonio Palopó	9	San Antonio Palopo	11	Noviembre	2023-07-11T00:00:00	2024-11-08T04:00:00	3	Temperatura mínima	19.9
17620	7	Sololá	712	San Antonio Palopó	9	San Antonio Palopo	11	Noviembre	2023-07-11T00:00:00	2024-11-08T04:00:00	5	Humedad	72
17621	7	Sololá	712	San Antonio Palopó	9	San Antonio Palopo	11	Noviembre	2023-07-11T00:00:00	2024-11-08T04:00:00	6	Velocidad del viento	6.4
17622	7	Sololá	712	San Antonio Palopó	9	San Antonio Palopo	11	Noviembre	2023-07-11T00:00:00	2024-11-08T04:00:00	7	Dirección del viento	6.44
17623	7	Sololá	712	San Antonio Palopó	9	San Antonio Palopo	11	Noviembre	2023-07-11T00:00:00	2024-11-08T04:00:00	1	Precipitación	0
17624	7	Sololá	712	San Antonio Palopó	9	San Antonio Palopo	11	Noviembre	2023-07-11T00:00:00	2024-11-08T04:00:00	8	Radiación solar	0
17625	7	Sololá	712	San Antonio Palopó	9	San Antonio Palopo	11	Noviembre	2023-07-11T00:00:00	2024-11-08T05:00:00	2	Temperatura media	19.2
17626	7	Sololá	712	San Antonio Palopó	9	San Antonio Palopo	11	Noviembre	2023-07-11T00:00:00	2024-11-08T05:00:00	4	Temperatura máxima	20.3
17627	7	Sololá	712	San Antonio Palopó	9	San Antonio Palopo	11	Noviembre	2023-07-11T00:00:00	2024-11-08T05:00:00	3	Temperatura mínima	19.1
17628	7	Sololá	712	San Antonio Palopó	9	San Antonio Palopo	11	Noviembre	2023-07-11T00:00:00	2024-11-08T05:00:00	5	Humedad	76
17629	7	Sololá	712	San Antonio Palopó	9	San Antonio Palopo	11	Noviembre	2023-07-11T00:00:00	2024-11-08T05:00:00	6	Velocidad del viento	4.8
17630	7	Sololá	712	San Antonio Palopó	9	San Antonio Palopo	11	Noviembre	2023-07-11T00:00:00	2024-11-08T05:00:00	7	Dirección del viento	4.83
17631	7	Sololá	712	San Antonio Palopó	9	San Antonio Palopo	11	Noviembre	2023-07-11T00:00:00	2024-11-08T05:00:00	1	Precipitación	0
17632	7	Sololá	712	San Antonio Palopó	9	San Antonio Palopo	11	Noviembre	2023-07-11T00:00:00	2024-11-08T05:00:00	8	Radiación solar	0
17633	7	Sololá	712	San Antonio Palopó	9	San Antonio Palopo	11	Noviembre	2023-07-11T00:00:00	2024-11-08T06:00:00	2	Temperatura media	20.6
17634	7	Sololá	712	San Antonio Palopó	9	San Antonio Palopo	11	Noviembre	2023-07-11T00:00:00	2024-11-08T06:00:00	4	Temperatura máxima	20.6
17635	7	Sololá	712	San Antonio Palopó	9	San Antonio Palopo	11	Noviembre	2023-07-11T00:00:00	2024-11-08T06:00:00	3	Temperatura mínima	19.2
17636	7	Sololá	712	San Antonio Palopó	9	San Antonio Palopo	11	Noviembre	2023-07-11T00:00:00	2024-11-08T06:00:00	5	Humedad	73
17637	7	Sololá	712	San Antonio Palopó	9	San Antonio Palopo	11	Noviembre	2023-07-11T00:00:00	2024-11-08T06:00:00	6	Velocidad del viento	3.2
17638	7	Sololá	712	San Antonio Palopó	9	San Antonio Palopo	11	Noviembre	2023-07-11T00:00:00	2024-11-08T06:00:00	7	Dirección del viento	3.22
17639	7	Sololá	712	San Antonio Palopó	9	San Antonio Palopo	11	Noviembre	2023-07-11T00:00:00	2024-11-08T06:00:00	1	Precipitación	0
17640	7	Sololá	712	San Antonio Palopó	9	San Antonio Palopo	11	Noviembre	2023-07-11T00:00:00	2024-11-08T06:00:00	8	Radiación solar	13
17641	7	Sololá	712	San Antonio Palopó	9	San Antonio Palopo	11	Noviembre	2023-07-11T00:00:00	2024-11-08T07:00:00	2	Temperatura media	21.4
17642	7	Sololá	712	San Antonio Palopó	9	San Antonio Palopo	11	Noviembre	2023-07-11T00:00:00	2024-11-08T07:00:00	4	Temperatura máxima	21.4
17643	7	Sololá	712	San Antonio Palopó	9	San Antonio Palopo	11	Noviembre	2023-07-11T00:00:00	2024-11-08T07:00:00	3	Temperatura mínima	20.6
17644	7	Sololá	712	San Antonio Palopó	9	San Antonio Palopo	11	Noviembre	2023-07-11T00:00:00	2024-11-08T07:00:00	5	Humedad	70
17645	7	Sololá	712	San Antonio Palopó	9	San Antonio Palopo	11	Noviembre	2023-07-11T00:00:00	2024-11-08T07:00:00	6	Velocidad del viento	4.8
17646	7	Sololá	712	San Antonio Palopó	9	San Antonio Palopo	11	Noviembre	2023-07-11T00:00:00	2024-11-08T07:00:00	7	Dirección del viento	4.83
17647	7	Sololá	712	San Antonio Palopó	9	San Antonio Palopo	11	Noviembre	2023-07-11T00:00:00	2024-11-08T07:00:00	1	Precipitación	0
17648	7	Sololá	712	San Antonio Palopó	9	San Antonio Palopo	11	Noviembre	2023-07-11T00:00:00	2024-11-08T07:00:00	8	Radiación solar	37
17649	7	Sololá	712	San Antonio Palopó	9	San Antonio Palopo	11	Noviembre	2023-07-11T00:00:00	2024-11-08T08:00:00	2	Temperatura media	21.7
17650	7	Sololá	712	San Antonio Palopó	9	San Antonio Palopo	11	Noviembre	2023-07-11T00:00:00	2024-11-08T08:00:00	4	Temperatura máxima	21.7
17651	7	Sololá	712	San Antonio Palopó	9	San Antonio Palopo	11	Noviembre	2023-07-11T00:00:00	2024-11-08T08:00:00	3	Temperatura mínima	21
17652	7	Sololá	712	San Antonio Palopó	9	San Antonio Palopo	11	Noviembre	2023-07-11T00:00:00	2024-11-08T08:00:00	5	Humedad	70
17653	7	Sololá	712	San Antonio Palopó	9	San Antonio Palopo	11	Noviembre	2023-07-11T00:00:00	2024-11-08T08:00:00	6	Velocidad del viento	6.4
17654	7	Sololá	712	San Antonio Palopó	9	San Antonio Palopo	11	Noviembre	2023-07-11T00:00:00	2024-11-08T08:00:00	7	Dirección del viento	6.44
17655	7	Sololá	712	San Antonio Palopó	9	San Antonio Palopo	11	Noviembre	2023-07-11T00:00:00	2024-11-08T08:00:00	1	Precipitación	0
17656	7	Sololá	712	San Antonio Palopó	9	San Antonio Palopo	11	Noviembre	2023-07-11T00:00:00	2024-11-08T08:00:00	8	Radiación solar	187
17657	7	Sololá	712	San Antonio Palopó	9	San Antonio Palopo	11	Noviembre	2023-07-11T00:00:00	2024-11-08T09:00:00	2	Temperatura media	22.9
17658	7	Sololá	712	San Antonio Palopó	9	San Antonio Palopo	11	Noviembre	2023-07-11T00:00:00	2024-11-08T09:00:00	4	Temperatura máxima	22.9
17659	7	Sololá	712	San Antonio Palopó	9	San Antonio Palopo	11	Noviembre	2023-07-11T00:00:00	2024-11-08T09:00:00	3	Temperatura mínima	21.6
17660	7	Sololá	712	San Antonio Palopó	9	San Antonio Palopo	11	Noviembre	2023-07-11T00:00:00	2024-11-08T09:00:00	5	Humedad	68
17661	7	Sololá	712	San Antonio Palopó	9	San Antonio Palopo	11	Noviembre	2023-07-11T00:00:00	2024-11-08T09:00:00	6	Velocidad del viento	6.4
17662	7	Sololá	712	San Antonio Palopó	9	San Antonio Palopo	11	Noviembre	2023-07-11T00:00:00	2024-11-08T09:00:00	7	Dirección del viento	6.44
17663	7	Sololá	712	San Antonio Palopó	9	San Antonio Palopo	11	Noviembre	2023-07-11T00:00:00	2024-11-08T09:00:00	1	Precipitación	0
17664	7	Sololá	712	San Antonio Palopó	9	San Antonio Palopo	11	Noviembre	2023-07-11T00:00:00	2024-11-08T09:00:00	8	Radiación solar	183
17665	7	Sololá	712	San Antonio Palopó	9	San Antonio Palopo	11	Noviembre	2023-07-11T00:00:00	2024-11-08T10:00:00	2	Temperatura media	23.3
17666	7	Sololá	712	San Antonio Palopó	9	San Antonio Palopo	11	Noviembre	2023-07-11T00:00:00	2024-11-08T10:00:00	4	Temperatura máxima	23.4
17667	7	Sololá	712	San Antonio Palopó	9	San Antonio Palopo	11	Noviembre	2023-07-11T00:00:00	2024-11-08T10:00:00	3	Temperatura mínima	22.8
17668	7	Sololá	712	San Antonio Palopó	9	San Antonio Palopo	11	Noviembre	2023-07-11T00:00:00	2024-11-08T10:00:00	5	Humedad	68
17669	7	Sololá	712	San Antonio Palopó	9	San Antonio Palopo	11	Noviembre	2023-07-11T00:00:00	2024-11-08T10:00:00	6	Velocidad del viento	6.4
17670	7	Sololá	712	San Antonio Palopó	9	San Antonio Palopo	11	Noviembre	2023-07-11T00:00:00	2024-11-08T10:00:00	7	Dirección del viento	6.44
17671	7	Sololá	712	San Antonio Palopó	9	San Antonio Palopo	11	Noviembre	2023-07-11T00:00:00	2024-11-08T10:00:00	1	Precipitación	0
17672	7	Sololá	712	San Antonio Palopó	9	San Antonio Palopo	11	Noviembre	2023-07-11T00:00:00	2024-11-08T10:00:00	8	Radiación solar	240
17673	7	Sololá	712	San Antonio Palopó	9	San Antonio Palopo	11	Noviembre	2023-07-11T00:00:00	2024-11-08T11:00:00	2	Temperatura media	24
17674	7	Sololá	712	San Antonio Palopó	9	San Antonio Palopo	11	Noviembre	2023-07-11T00:00:00	2024-11-08T11:00:00	4	Temperatura máxima	24.1
17675	7	Sololá	712	San Antonio Palopó	9	San Antonio Palopo	11	Noviembre	2023-07-11T00:00:00	2024-11-08T11:00:00	3	Temperatura mínima	23.2
17676	7	Sololá	712	San Antonio Palopó	9	San Antonio Palopo	11	Noviembre	2023-07-11T00:00:00	2024-11-08T11:00:00	5	Humedad	65
17677	7	Sololá	712	San Antonio Palopó	9	San Antonio Palopo	11	Noviembre	2023-07-11T00:00:00	2024-11-08T11:00:00	6	Velocidad del viento	3.2
17678	7	Sololá	712	San Antonio Palopó	9	San Antonio Palopo	11	Noviembre	2023-07-11T00:00:00	2024-11-08T11:00:00	7	Dirección del viento	3.22
17679	7	Sololá	712	San Antonio Palopó	9	San Antonio Palopo	11	Noviembre	2023-07-11T00:00:00	2024-11-08T11:00:00	1	Precipitación	0
17680	7	Sololá	712	San Antonio Palopó	9	San Antonio Palopo	11	Noviembre	2023-07-11T00:00:00	2024-11-08T11:00:00	8	Radiación solar	274
17681	7	Sololá	712	San Antonio Palopó	9	San Antonio Palopo	11	Noviembre	2023-07-11T00:00:00	2024-11-08T12:00:00	2	Temperatura media	24.4
17682	7	Sololá	712	San Antonio Palopó	9	San Antonio Palopo	11	Noviembre	2023-07-11T00:00:00	2024-11-08T12:00:00	4	Temperatura máxima	24.4
17683	7	Sololá	712	San Antonio Palopó	9	San Antonio Palopo	11	Noviembre	2023-07-11T00:00:00	2024-11-08T12:00:00	3	Temperatura mínima	23.8
17684	7	Sololá	712	San Antonio Palopó	9	San Antonio Palopo	11	Noviembre	2023-07-11T00:00:00	2024-11-08T12:00:00	5	Humedad	69
17685	7	Sololá	712	San Antonio Palopó	9	San Antonio Palopo	11	Noviembre	2023-07-11T00:00:00	2024-11-08T12:00:00	6	Velocidad del viento	4.8
17686	7	Sololá	712	San Antonio Palopó	9	San Antonio Palopo	11	Noviembre	2023-07-11T00:00:00	2024-11-08T12:00:00	7	Dirección del viento	4.83
17687	7	Sololá	712	San Antonio Palopó	9	San Antonio Palopo	11	Noviembre	2023-07-11T00:00:00	2024-11-08T12:00:00	1	Precipitación	0
17688	7	Sololá	712	San Antonio Palopó	9	San Antonio Palopo	11	Noviembre	2023-07-11T00:00:00	2024-11-08T12:00:00	8	Radiación solar	264
17689	7	Sololá	712	San Antonio Palopó	9	San Antonio Palopo	11	Noviembre	2023-07-11T00:00:00	2024-11-08T13:00:00	2	Temperatura media	24.7
17690	7	Sololá	712	San Antonio Palopó	9	San Antonio Palopo	11	Noviembre	2023-07-11T00:00:00	2024-11-08T13:00:00	4	Temperatura máxima	25
17691	7	Sololá	712	San Antonio Palopó	9	San Antonio Palopo	11	Noviembre	2023-07-11T00:00:00	2024-11-08T13:00:00	3	Temperatura mínima	24.2
17692	7	Sololá	712	San Antonio Palopó	9	San Antonio Palopo	11	Noviembre	2023-07-11T00:00:00	2024-11-08T13:00:00	5	Humedad	64
17693	7	Sololá	712	San Antonio Palopó	9	San Antonio Palopo	11	Noviembre	2023-07-11T00:00:00	2024-11-08T13:00:00	6	Velocidad del viento	4.8
17694	7	Sololá	712	San Antonio Palopó	9	San Antonio Palopo	11	Noviembre	2023-07-11T00:00:00	2024-11-08T13:00:00	7	Dirección del viento	4.83
17695	7	Sololá	712	San Antonio Palopó	9	San Antonio Palopo	11	Noviembre	2023-07-11T00:00:00	2024-11-08T13:00:00	1	Precipitación	0
17696	7	Sololá	712	San Antonio Palopó	9	San Antonio Palopo	11	Noviembre	2023-07-11T00:00:00	2024-11-08T13:00:00	8	Radiación solar	207
17697	7	Sololá	712	San Antonio Palopó	9	San Antonio Palopo	11	Noviembre	2023-07-11T00:00:00	2024-11-08T14:00:00	2	Temperatura media	24.9
17698	7	Sololá	712	San Antonio Palopó	9	San Antonio Palopo	11	Noviembre	2023-07-11T00:00:00	2024-11-08T14:00:00	4	Temperatura máxima	25
17699	7	Sololá	712	San Antonio Palopó	9	San Antonio Palopo	11	Noviembre	2023-07-11T00:00:00	2024-11-08T14:00:00	3	Temperatura mínima	24.3
17700	7	Sololá	712	San Antonio Palopó	9	San Antonio Palopo	11	Noviembre	2023-07-11T00:00:00	2024-11-08T14:00:00	5	Humedad	64
17701	7	Sololá	712	San Antonio Palopó	9	San Antonio Palopo	11	Noviembre	2023-07-11T00:00:00	2024-11-08T14:00:00	6	Velocidad del viento	4.8
17702	7	Sololá	712	San Antonio Palopó	9	San Antonio Palopo	11	Noviembre	2023-07-11T00:00:00	2024-11-08T14:00:00	7	Dirección del viento	4.83
17703	7	Sololá	712	San Antonio Palopó	9	San Antonio Palopo	11	Noviembre	2023-07-11T00:00:00	2024-11-08T14:00:00	1	Precipitación	0
17704	7	Sololá	712	San Antonio Palopó	9	San Antonio Palopo	11	Noviembre	2023-07-11T00:00:00	2024-11-08T14:00:00	8	Radiación solar	149
17705	7	Sololá	712	San Antonio Palopó	9	San Antonio Palopo	11	Noviembre	2023-07-11T00:00:00	2024-11-08T15:00:00	2	Temperatura media	24.4
17706	7	Sololá	712	San Antonio Palopó	9	San Antonio Palopo	11	Noviembre	2023-07-11T00:00:00	2024-11-08T15:00:00	4	Temperatura máxima	24.9
17707	7	Sololá	712	San Antonio Palopó	9	San Antonio Palopo	11	Noviembre	2023-07-11T00:00:00	2024-11-08T15:00:00	3	Temperatura mínima	24.3
17708	7	Sololá	712	San Antonio Palopó	9	San Antonio Palopo	11	Noviembre	2023-07-11T00:00:00	2024-11-08T15:00:00	5	Humedad	64
17709	7	Sololá	712	San Antonio Palopó	9	San Antonio Palopo	11	Noviembre	2023-07-11T00:00:00	2024-11-08T15:00:00	6	Velocidad del viento	6.4
17710	7	Sololá	712	San Antonio Palopó	9	San Antonio Palopo	11	Noviembre	2023-07-11T00:00:00	2024-11-08T15:00:00	7	Dirección del viento	6.44
17711	7	Sololá	712	San Antonio Palopó	9	San Antonio Palopo	11	Noviembre	2023-07-11T00:00:00	2024-11-08T15:00:00	1	Precipitación	0
17712	7	Sololá	712	San Antonio Palopó	9	San Antonio Palopo	11	Noviembre	2023-07-11T00:00:00	2024-11-08T15:00:00	8	Radiación solar	224
17713	7	Sololá	712	San Antonio Palopó	9	San Antonio Palopo	11	Noviembre	2023-07-11T00:00:00	2024-11-08T16:00:00	2	Temperatura media	25.3
17714	7	Sololá	712	San Antonio Palopó	9	San Antonio Palopo	11	Noviembre	2023-07-11T00:00:00	2024-11-08T16:00:00	4	Temperatura máxima	25.3
17715	7	Sololá	712	San Antonio Palopó	9	San Antonio Palopo	11	Noviembre	2023-07-11T00:00:00	2024-11-08T16:00:00	3	Temperatura mínima	24.2
17716	7	Sololá	712	San Antonio Palopó	9	San Antonio Palopo	11	Noviembre	2023-07-11T00:00:00	2024-11-08T16:00:00	5	Humedad	59
17717	7	Sololá	712	San Antonio Palopó	9	San Antonio Palopo	11	Noviembre	2023-07-11T00:00:00	2024-11-08T16:00:00	6	Velocidad del viento	8
17718	7	Sololá	712	San Antonio Palopó	9	San Antonio Palopo	11	Noviembre	2023-07-11T00:00:00	2024-11-08T16:00:00	7	Dirección del viento	8.05
17719	7	Sololá	712	San Antonio Palopó	9	San Antonio Palopo	11	Noviembre	2023-07-11T00:00:00	2024-11-08T16:00:00	1	Precipitación	0
17720	7	Sololá	712	San Antonio Palopó	9	San Antonio Palopo	11	Noviembre	2023-07-11T00:00:00	2024-11-08T16:00:00	8	Radiación solar	91
17721	7	Sololá	712	San Antonio Palopó	9	San Antonio Palopo	11	Noviembre	2023-07-11T00:00:00	2024-11-08T17:00:00	2	Temperatura media	24.4
17722	7	Sololá	712	San Antonio Palopó	9	San Antonio Palopo	11	Noviembre	2023-07-11T00:00:00	2024-11-08T17:00:00	4	Temperatura máxima	25.6
17723	7	Sololá	712	San Antonio Palopó	9	San Antonio Palopo	11	Noviembre	2023-07-11T00:00:00	2024-11-08T17:00:00	3	Temperatura mínima	24.4
17724	7	Sololá	712	San Antonio Palopó	9	San Antonio Palopo	11	Noviembre	2023-07-11T00:00:00	2024-11-08T17:00:00	5	Humedad	59
17725	7	Sololá	712	San Antonio Palopó	9	San Antonio Palopo	11	Noviembre	2023-07-11T00:00:00	2024-11-08T17:00:00	6	Velocidad del viento	8
17726	7	Sololá	712	San Antonio Palopó	9	San Antonio Palopo	11	Noviembre	2023-07-11T00:00:00	2024-11-08T17:00:00	7	Dirección del viento	8.05
17727	7	Sololá	712	San Antonio Palopó	9	San Antonio Palopo	11	Noviembre	2023-07-11T00:00:00	2024-11-08T17:00:00	1	Precipitación	0
17728	7	Sololá	712	San Antonio Palopó	9	San Antonio Palopo	11	Noviembre	2023-07-11T00:00:00	2024-11-08T17:00:00	8	Radiación solar	15
17729	7	Sololá	712	San Antonio Palopó	9	San Antonio Palopo	11	Noviembre	2023-07-11T00:00:00	2024-11-08T18:00:00	2	Temperatura media	22.8
17730	7	Sololá	712	San Antonio Palopó	9	San Antonio Palopo	11	Noviembre	2023-07-11T00:00:00	2024-11-08T18:00:00	4	Temperatura máxima	24.4
17731	7	Sololá	712	San Antonio Palopó	9	San Antonio Palopo	11	Noviembre	2023-07-11T00:00:00	2024-11-08T18:00:00	3	Temperatura mínima	22.8
17732	7	Sololá	712	San Antonio Palopó	9	San Antonio Palopo	11	Noviembre	2023-07-11T00:00:00	2024-11-08T18:00:00	5	Humedad	67
17733	7	Sololá	712	San Antonio Palopó	9	San Antonio Palopo	11	Noviembre	2023-07-11T00:00:00	2024-11-08T18:00:00	6	Velocidad del viento	4.8
17734	7	Sololá	712	San Antonio Palopó	9	San Antonio Palopo	11	Noviembre	2023-07-11T00:00:00	2024-11-08T18:00:00	7	Dirección del viento	4.83
17735	7	Sololá	712	San Antonio Palopó	9	San Antonio Palopo	11	Noviembre	2023-07-11T00:00:00	2024-11-08T18:00:00	1	Precipitación	0
17736	7	Sololá	712	San Antonio Palopó	9	San Antonio Palopo	11	Noviembre	2023-07-11T00:00:00	2024-11-08T18:00:00	8	Radiación solar	0
17737	7	Sololá	712	San Antonio Palopó	9	San Antonio Palopo	11	Noviembre	2023-07-11T00:00:00	2024-11-08T19:00:00	2	Temperatura media	21.8
17738	7	Sololá	712	San Antonio Palopó	9	San Antonio Palopo	11	Noviembre	2023-07-11T00:00:00	2024-11-08T19:00:00	4	Temperatura máxima	22.2
17739	7	Sololá	712	San Antonio Palopó	9	San Antonio Palopo	11	Noviembre	2023-07-11T00:00:00	2024-11-08T19:00:00	3	Temperatura mínima	20.8
17740	7	Sololá	712	San Antonio Palopó	9	San Antonio Palopo	11	Noviembre	2023-07-11T00:00:00	2024-11-08T19:00:00	5	Humedad	80
17741	7	Sololá	712	San Antonio Palopó	9	San Antonio Palopo	11	Noviembre	2023-07-11T00:00:00	2024-11-08T19:00:00	6	Velocidad del viento	3.2
17742	7	Sololá	712	San Antonio Palopó	9	San Antonio Palopo	11	Noviembre	2023-07-11T00:00:00	2024-11-08T19:00:00	7	Dirección del viento	3.22
17743	7	Sololá	712	San Antonio Palopó	9	San Antonio Palopo	11	Noviembre	2023-07-11T00:00:00	2024-11-08T19:00:00	1	Precipitación	0
17744	7	Sololá	712	San Antonio Palopó	9	San Antonio Palopo	11	Noviembre	2023-07-11T00:00:00	2024-11-08T19:00:00	8	Radiación solar	0
17745	7	Sololá	712	San Antonio Palopó	9	San Antonio Palopo	11	Noviembre	2023-07-11T00:00:00	2024-11-08T20:00:00	2	Temperatura media	22.4
17746	7	Sololá	712	San Antonio Palopó	9	San Antonio Palopo	11	Noviembre	2023-07-11T00:00:00	2024-11-08T20:00:00	4	Temperatura máxima	22.4
17747	7	Sololá	712	San Antonio Palopó	9	San Antonio Palopo	11	Noviembre	2023-07-11T00:00:00	2024-11-08T20:00:00	3	Temperatura mínima	21.6
17748	7	Sololá	712	San Antonio Palopó	9	San Antonio Palopo	11	Noviembre	2023-07-11T00:00:00	2024-11-08T20:00:00	5	Humedad	81
17749	7	Sololá	712	San Antonio Palopó	9	San Antonio Palopo	11	Noviembre	2023-07-11T00:00:00	2024-11-08T20:00:00	6	Velocidad del viento	4.8
17750	7	Sololá	712	San Antonio Palopó	9	San Antonio Palopo	11	Noviembre	2023-07-11T00:00:00	2024-11-08T20:00:00	7	Dirección del viento	4.83
17751	7	Sololá	712	San Antonio Palopó	9	San Antonio Palopo	11	Noviembre	2023-07-11T00:00:00	2024-11-08T20:00:00	1	Precipitación	0
17752	7	Sololá	712	San Antonio Palopó	9	San Antonio Palopo	11	Noviembre	2023-07-11T00:00:00	2024-11-08T20:00:00	8	Radiación solar	0
17753	7	Sololá	712	San Antonio Palopó	9	San Antonio Palopo	11	Noviembre	2023-07-11T00:00:00	2024-11-08T21:00:00	2	Temperatura media	22.9
17754	7	Sololá	712	San Antonio Palopó	9	San Antonio Palopo	11	Noviembre	2023-07-11T00:00:00	2024-11-08T21:00:00	4	Temperatura máxima	23.3
17755	7	Sololá	712	San Antonio Palopó	9	San Antonio Palopo	11	Noviembre	2023-07-11T00:00:00	2024-11-08T21:00:00	3	Temperatura mínima	21.9
17756	7	Sololá	712	San Antonio Palopó	9	San Antonio Palopo	11	Noviembre	2023-07-11T00:00:00	2024-11-08T21:00:00	5	Humedad	77
17757	7	Sololá	712	San Antonio Palopó	9	San Antonio Palopo	11	Noviembre	2023-07-11T00:00:00	2024-11-08T21:00:00	6	Velocidad del viento	4.8
17758	7	Sololá	712	San Antonio Palopó	9	San Antonio Palopo	11	Noviembre	2023-07-11T00:00:00	2024-11-08T21:00:00	7	Dirección del viento	4.83
17759	7	Sololá	712	San Antonio Palopó	9	San Antonio Palopo	11	Noviembre	2023-07-11T00:00:00	2024-11-08T21:00:00	1	Precipitación	0
17760	7	Sololá	712	San Antonio Palopó	9	San Antonio Palopo	11	Noviembre	2023-07-11T00:00:00	2024-11-08T21:00:00	8	Radiación solar	0
17761	7	Sololá	712	San Antonio Palopó	9	San Antonio Palopo	11	Noviembre	2023-07-11T00:00:00	2024-11-08T22:00:00	2	Temperatura media	20.9
17762	7	Sololá	712	San Antonio Palopó	9	San Antonio Palopo	11	Noviembre	2023-07-11T00:00:00	2024-11-08T22:00:00	4	Temperatura máxima	22.9
17763	7	Sololá	712	San Antonio Palopó	9	San Antonio Palopo	11	Noviembre	2023-07-11T00:00:00	2024-11-08T22:00:00	3	Temperatura mínima	20.8
17764	7	Sololá	712	San Antonio Palopó	9	San Antonio Palopo	11	Noviembre	2023-07-11T00:00:00	2024-11-08T22:00:00	5	Humedad	84
17765	7	Sololá	712	San Antonio Palopó	9	San Antonio Palopo	11	Noviembre	2023-07-11T00:00:00	2024-11-08T22:00:00	6	Velocidad del viento	6.4
17766	7	Sololá	712	San Antonio Palopó	9	San Antonio Palopo	11	Noviembre	2023-07-11T00:00:00	2024-11-08T22:00:00	7	Dirección del viento	6.44
17767	7	Sololá	712	San Antonio Palopó	9	San Antonio Palopo	11	Noviembre	2023-07-11T00:00:00	2024-11-08T22:00:00	1	Precipitación	0
17768	7	Sololá	712	San Antonio Palopó	9	San Antonio Palopo	11	Noviembre	2023-07-11T00:00:00	2024-11-08T22:00:00	8	Radiación solar	0
17769	7	Sololá	712	San Antonio Palopó	9	San Antonio Palopo	11	Noviembre	2023-07-11T00:00:00	2024-11-08T23:00:00	2	Temperatura media	20.7
17770	7	Sololá	712	San Antonio Palopó	9	San Antonio Palopo	11	Noviembre	2023-07-11T00:00:00	2024-11-08T23:00:00	4	Temperatura máxima	21.2
17771	7	Sololá	712	San Antonio Palopó	9	San Antonio Palopo	11	Noviembre	2023-07-11T00:00:00	2024-11-08T23:00:00	3	Temperatura mínima	20.7
17772	7	Sololá	712	San Antonio Palopó	9	San Antonio Palopo	11	Noviembre	2023-07-11T00:00:00	2024-11-08T23:00:00	5	Humedad	73
17773	7	Sololá	712	San Antonio Palopó	9	San Antonio Palopo	11	Noviembre	2023-07-11T00:00:00	2024-11-08T23:00:00	6	Velocidad del viento	3.2
17774	7	Sololá	712	San Antonio Palopó	9	San Antonio Palopo	11	Noviembre	2023-07-11T00:00:00	2024-11-08T23:00:00	7	Dirección del viento	3.22
17775	7	Sololá	712	San Antonio Palopó	9	San Antonio Palopo	11	Noviembre	2023-07-11T00:00:00	2024-11-08T23:00:00	1	Precipitación	0
17776	7	Sololá	712	San Antonio Palopó	9	San Antonio Palopo	11	Noviembre	2023-07-11T00:00:00	2024-11-08T23:00:00	8	Radiación solar	0
17777	7	Sololá	712	San Antonio Palopó	9	San Antonio Palopo	11	Noviembre	2023-08-11T00:00:00	2024-11-08T00:00:00	2	Temperatura media	20.6
17778	7	Sololá	712	San Antonio Palopó	9	San Antonio Palopo	11	Noviembre	2023-08-11T00:00:00	2024-11-08T00:00:00	4	Temperatura máxima	20.7
17779	7	Sololá	712	San Antonio Palopó	9	San Antonio Palopo	11	Noviembre	2023-08-11T00:00:00	2024-11-08T00:00:00	3	Temperatura mínima	20.2
17780	7	Sololá	712	San Antonio Palopó	9	San Antonio Palopo	11	Noviembre	2023-08-11T00:00:00	2024-11-08T00:00:00	5	Humedad	72
17781	7	Sololá	712	San Antonio Palopó	9	San Antonio Palopo	11	Noviembre	2023-08-11T00:00:00	2024-11-08T00:00:00	6	Velocidad del viento	3.2
17782	7	Sololá	712	San Antonio Palopó	9	San Antonio Palopo	11	Noviembre	2023-08-11T00:00:00	2024-11-08T00:00:00	7	Dirección del viento	3.22
17783	7	Sololá	712	San Antonio Palopó	9	San Antonio Palopo	11	Noviembre	2023-08-11T00:00:00	2024-11-08T00:00:00	1	Precipitación	0
17784	7	Sololá	712	San Antonio Palopó	9	San Antonio Palopo	11	Noviembre	2023-08-11T00:00:00	2024-11-08T00:00:00	8	Radiación solar	0
17785	7	Sololá	712	San Antonio Palopó	9	San Antonio Palopo	11	Noviembre	2023-08-11T00:00:00	2024-11-08T01:00:00	2	Temperatura media	21.1
17786	7	Sololá	712	San Antonio Palopó	9	San Antonio Palopo	11	Noviembre	2023-08-11T00:00:00	2024-11-08T01:00:00	4	Temperatura máxima	21.2
17787	7	Sololá	712	San Antonio Palopó	9	San Antonio Palopo	11	Noviembre	2023-08-11T00:00:00	2024-11-08T01:00:00	3	Temperatura mínima	20.5
17788	7	Sololá	712	San Antonio Palopó	9	San Antonio Palopo	11	Noviembre	2023-08-11T00:00:00	2024-11-08T01:00:00	5	Humedad	71
17789	7	Sololá	712	San Antonio Palopó	9	San Antonio Palopo	11	Noviembre	2023-08-11T00:00:00	2024-11-08T01:00:00	6	Velocidad del viento	4.8
17790	7	Sololá	712	San Antonio Palopó	9	San Antonio Palopo	11	Noviembre	2023-08-11T00:00:00	2024-11-08T01:00:00	7	Dirección del viento	4.83
17791	7	Sololá	712	San Antonio Palopó	9	San Antonio Palopo	11	Noviembre	2023-08-11T00:00:00	2024-11-08T01:00:00	1	Precipitación	0
17792	7	Sololá	712	San Antonio Palopó	9	San Antonio Palopo	11	Noviembre	2023-08-11T00:00:00	2024-11-08T01:00:00	8	Radiación solar	0
17793	7	Sololá	712	San Antonio Palopó	9	San Antonio Palopo	11	Noviembre	2023-08-11T00:00:00	2024-11-08T02:00:00	2	Temperatura media	20.4
17794	7	Sololá	712	San Antonio Palopó	9	San Antonio Palopo	11	Noviembre	2023-08-11T00:00:00	2024-11-08T02:00:00	4	Temperatura máxima	21.2
17795	7	Sololá	712	San Antonio Palopó	9	San Antonio Palopo	11	Noviembre	2023-08-11T00:00:00	2024-11-08T02:00:00	3	Temperatura mínima	20.4
17796	7	Sololá	712	San Antonio Palopó	9	San Antonio Palopo	11	Noviembre	2023-08-11T00:00:00	2024-11-08T02:00:00	5	Humedad	72
17797	7	Sololá	712	San Antonio Palopó	9	San Antonio Palopo	11	Noviembre	2023-08-11T00:00:00	2024-11-08T02:00:00	6	Velocidad del viento	3.2
17798	7	Sololá	712	San Antonio Palopó	9	San Antonio Palopo	11	Noviembre	2023-08-11T00:00:00	2024-11-08T02:00:00	7	Dirección del viento	3.22
17799	7	Sololá	712	San Antonio Palopó	9	San Antonio Palopo	11	Noviembre	2023-08-11T00:00:00	2024-11-08T02:00:00	1	Precipitación	0
17800	7	Sololá	712	San Antonio Palopó	9	San Antonio Palopo	11	Noviembre	2023-08-11T00:00:00	2024-11-08T02:00:00	8	Radiación solar	0
17801	7	Sololá	712	San Antonio Palopó	9	San Antonio Palopo	11	Noviembre	2023-08-11T00:00:00	2024-11-08T03:00:00	2	Temperatura media	20.7
17802	7	Sololá	712	San Antonio Palopó	9	San Antonio Palopo	11	Noviembre	2023-08-11T00:00:00	2024-11-08T03:00:00	4	Temperatura máxima	20.9
17803	7	Sololá	712	San Antonio Palopó	9	San Antonio Palopo	11	Noviembre	2023-08-11T00:00:00	2024-11-08T03:00:00	3	Temperatura mínima	20.1
17804	7	Sololá	712	San Antonio Palopó	9	San Antonio Palopo	11	Noviembre	2023-08-11T00:00:00	2024-11-08T03:00:00	5	Humedad	71
17805	7	Sololá	712	San Antonio Palopó	9	San Antonio Palopo	11	Noviembre	2023-08-11T00:00:00	2024-11-08T03:00:00	6	Velocidad del viento	3.2
17806	7	Sololá	712	San Antonio Palopó	9	San Antonio Palopo	11	Noviembre	2023-08-11T00:00:00	2024-11-08T03:00:00	7	Dirección del viento	3.22
17807	7	Sololá	712	San Antonio Palopó	9	San Antonio Palopo	11	Noviembre	2023-08-11T00:00:00	2024-11-08T03:00:00	1	Precipitación	0
17808	7	Sololá	712	San Antonio Palopó	9	San Antonio Palopo	11	Noviembre	2023-08-11T00:00:00	2024-11-08T03:00:00	8	Radiación solar	0
17809	7	Sololá	712	San Antonio Palopó	9	San Antonio Palopo	11	Noviembre	2023-08-11T00:00:00	2024-11-08T04:00:00	2	Temperatura media	21.1
17810	7	Sololá	712	San Antonio Palopó	9	San Antonio Palopo	11	Noviembre	2023-08-11T00:00:00	2024-11-08T04:00:00	4	Temperatura máxima	21.4
17811	7	Sololá	712	San Antonio Palopó	9	San Antonio Palopo	11	Noviembre	2023-08-11T00:00:00	2024-11-08T04:00:00	3	Temperatura mínima	20.8
17812	7	Sololá	712	San Antonio Palopó	9	San Antonio Palopo	11	Noviembre	2023-08-11T00:00:00	2024-11-08T04:00:00	5	Humedad	68
17813	7	Sololá	712	San Antonio Palopó	9	San Antonio Palopo	11	Noviembre	2023-08-11T00:00:00	2024-11-08T04:00:00	6	Velocidad del viento	3.2
17814	7	Sololá	712	San Antonio Palopó	9	San Antonio Palopo	11	Noviembre	2023-08-11T00:00:00	2024-11-08T04:00:00	7	Dirección del viento	3.22
17815	7	Sololá	712	San Antonio Palopó	9	San Antonio Palopo	11	Noviembre	2023-08-11T00:00:00	2024-11-08T04:00:00	1	Precipitación	0
17816	7	Sololá	712	San Antonio Palopó	9	San Antonio Palopo	11	Noviembre	2023-08-11T00:00:00	2024-11-08T04:00:00	8	Radiación solar	0
17817	7	Sololá	712	San Antonio Palopó	9	San Antonio Palopo	11	Noviembre	2023-08-11T00:00:00	2024-11-08T05:00:00	2	Temperatura media	20.5
17818	7	Sololá	712	San Antonio Palopó	9	San Antonio Palopo	11	Noviembre	2023-08-11T00:00:00	2024-11-08T05:00:00	4	Temperatura máxima	21.3
17819	7	Sololá	712	San Antonio Palopó	9	San Antonio Palopo	11	Noviembre	2023-08-11T00:00:00	2024-11-08T05:00:00	3	Temperatura mínima	20.4
17820	7	Sololá	712	San Antonio Palopó	9	San Antonio Palopo	11	Noviembre	2023-08-11T00:00:00	2024-11-08T05:00:00	5	Humedad	68
17821	7	Sololá	712	San Antonio Palopó	9	San Antonio Palopo	11	Noviembre	2023-08-11T00:00:00	2024-11-08T05:00:00	6	Velocidad del viento	6.4
17822	7	Sololá	712	San Antonio Palopó	9	San Antonio Palopo	11	Noviembre	2023-08-11T00:00:00	2024-11-08T05:00:00	7	Dirección del viento	6.44
17823	7	Sololá	712	San Antonio Palopó	9	San Antonio Palopo	11	Noviembre	2023-08-11T00:00:00	2024-11-08T05:00:00	1	Precipitación	0
17824	7	Sololá	712	San Antonio Palopó	9	San Antonio Palopo	11	Noviembre	2023-08-11T00:00:00	2024-11-08T05:00:00	8	Radiación solar	0
17825	7	Sololá	712	San Antonio Palopó	9	San Antonio Palopo	11	Noviembre	2023-08-11T00:00:00	2024-11-08T06:00:00	2	Temperatura media	20.6
17826	7	Sololá	712	San Antonio Palopó	9	San Antonio Palopo	11	Noviembre	2023-08-11T00:00:00	2024-11-08T06:00:00	4	Temperatura máxima	20.7
17827	7	Sololá	712	San Antonio Palopó	9	San Antonio Palopo	11	Noviembre	2023-08-11T00:00:00	2024-11-08T06:00:00	3	Temperatura mínima	20.4
17828	7	Sololá	712	San Antonio Palopó	9	San Antonio Palopo	11	Noviembre	2023-08-11T00:00:00	2024-11-08T06:00:00	5	Humedad	68
17829	7	Sololá	712	San Antonio Palopó	9	San Antonio Palopo	11	Noviembre	2023-08-11T00:00:00	2024-11-08T06:00:00	6	Velocidad del viento	9.7
17830	7	Sololá	712	San Antonio Palopó	9	San Antonio Palopo	11	Noviembre	2023-08-11T00:00:00	2024-11-08T06:00:00	7	Dirección del viento	9.66
17831	7	Sololá	712	San Antonio Palopó	9	San Antonio Palopo	11	Noviembre	2023-08-11T00:00:00	2024-11-08T06:00:00	1	Precipitación	0
17832	7	Sololá	712	San Antonio Palopó	9	San Antonio Palopo	11	Noviembre	2023-08-11T00:00:00	2024-11-08T06:00:00	8	Radiación solar	0
17833	7	Sololá	712	San Antonio Palopó	9	San Antonio Palopo	11	Noviembre	2023-08-11T00:00:00	2024-11-08T07:00:00	2	Temperatura media	20.4
17834	7	Sololá	712	San Antonio Palopó	9	San Antonio Palopo	11	Noviembre	2023-08-11T00:00:00	2024-11-08T07:00:00	4	Temperatura máxima	20.6
17835	7	Sololá	712	San Antonio Palopó	9	San Antonio Palopo	11	Noviembre	2023-08-11T00:00:00	2024-11-08T07:00:00	3	Temperatura mínima	20.4
17836	7	Sololá	712	San Antonio Palopó	9	San Antonio Palopo	11	Noviembre	2023-08-11T00:00:00	2024-11-08T07:00:00	5	Humedad	70
17837	7	Sololá	712	San Antonio Palopó	9	San Antonio Palopo	11	Noviembre	2023-08-11T00:00:00	2024-11-08T07:00:00	6	Velocidad del viento	11.3
17838	7	Sololá	712	San Antonio Palopó	9	San Antonio Palopo	11	Noviembre	2023-08-11T00:00:00	2024-11-08T07:00:00	7	Dirección del viento	11.27
17839	7	Sololá	712	San Antonio Palopó	9	San Antonio Palopo	11	Noviembre	2023-08-11T00:00:00	2024-11-08T07:00:00	1	Precipitación	0
17840	7	Sololá	712	San Antonio Palopó	9	San Antonio Palopo	11	Noviembre	2023-08-11T00:00:00	2024-11-08T07:00:00	8	Radiación solar	27
17841	7	Sololá	712	San Antonio Palopó	9	San Antonio Palopo	11	Noviembre	2023-08-11T00:00:00	2024-11-08T08:00:00	2	Temperatura media	21.6
17842	7	Sololá	712	San Antonio Palopó	9	San Antonio Palopo	11	Noviembre	2023-08-11T00:00:00	2024-11-08T08:00:00	4	Temperatura máxima	21.6
17843	7	Sololá	712	San Antonio Palopó	9	San Antonio Palopo	11	Noviembre	2023-08-11T00:00:00	2024-11-08T08:00:00	3	Temperatura mínima	20.4
17844	7	Sololá	712	San Antonio Palopó	9	San Antonio Palopo	11	Noviembre	2023-08-11T00:00:00	2024-11-08T08:00:00	5	Humedad	68
17845	7	Sololá	712	San Antonio Palopó	9	San Antonio Palopo	11	Noviembre	2023-08-11T00:00:00	2024-11-08T08:00:00	6	Velocidad del viento	11.3
17846	7	Sololá	712	San Antonio Palopó	9	San Antonio Palopo	11	Noviembre	2023-08-11T00:00:00	2024-11-08T08:00:00	7	Dirección del viento	11.27
17847	7	Sololá	712	San Antonio Palopó	9	San Antonio Palopo	11	Noviembre	2023-08-11T00:00:00	2024-11-08T08:00:00	1	Precipitación	0
17848	7	Sololá	712	San Antonio Palopó	9	San Antonio Palopo	11	Noviembre	2023-08-11T00:00:00	2024-11-08T08:00:00	8	Radiación solar	102
17849	7	Sololá	712	San Antonio Palopó	9	San Antonio Palopo	11	Noviembre	2023-08-11T00:00:00	2024-11-08T09:00:00	2	Temperatura media	22.4
17850	7	Sololá	712	San Antonio Palopó	9	San Antonio Palopo	11	Noviembre	2023-08-11T00:00:00	2024-11-08T09:00:00	4	Temperatura máxima	22.9
17851	7	Sololá	712	San Antonio Palopó	9	San Antonio Palopo	11	Noviembre	2023-08-11T00:00:00	2024-11-08T09:00:00	3	Temperatura mínima	21.6
17852	7	Sololá	712	San Antonio Palopó	9	San Antonio Palopo	11	Noviembre	2023-08-11T00:00:00	2024-11-08T09:00:00	5	Humedad	67
17853	7	Sololá	712	San Antonio Palopó	9	San Antonio Palopo	11	Noviembre	2023-08-11T00:00:00	2024-11-08T09:00:00	6	Velocidad del viento	6.4
17854	7	Sololá	712	San Antonio Palopó	9	San Antonio Palopo	11	Noviembre	2023-08-11T00:00:00	2024-11-08T09:00:00	7	Dirección del viento	6.44
17855	7	Sololá	712	San Antonio Palopó	9	San Antonio Palopo	11	Noviembre	2023-08-11T00:00:00	2024-11-08T09:00:00	1	Precipitación	0
17856	7	Sololá	712	San Antonio Palopó	9	San Antonio Palopo	11	Noviembre	2023-08-11T00:00:00	2024-11-08T09:00:00	8	Radiación solar	366
17857	7	Sololá	712	San Antonio Palopó	9	San Antonio Palopo	11	Noviembre	2023-08-11T00:00:00	2024-11-08T10:00:00	2	Temperatura media	23.8
17858	7	Sololá	712	San Antonio Palopó	9	San Antonio Palopo	11	Noviembre	2023-08-11T00:00:00	2024-11-08T10:00:00	4	Temperatura máxima	23.9
17859	7	Sololá	712	San Antonio Palopó	9	San Antonio Palopo	11	Noviembre	2023-08-11T00:00:00	2024-11-08T10:00:00	3	Temperatura mínima	22.4
17860	7	Sololá	712	San Antonio Palopó	9	San Antonio Palopo	11	Noviembre	2023-08-11T00:00:00	2024-11-08T10:00:00	5	Humedad	66
17861	7	Sololá	712	San Antonio Palopó	9	San Antonio Palopo	11	Noviembre	2023-08-11T00:00:00	2024-11-08T10:00:00	6	Velocidad del viento	4.8
17862	7	Sololá	712	San Antonio Palopó	9	San Antonio Palopo	11	Noviembre	2023-08-11T00:00:00	2024-11-08T10:00:00	7	Dirección del viento	4.83
17863	7	Sololá	712	San Antonio Palopó	9	San Antonio Palopo	11	Noviembre	2023-08-11T00:00:00	2024-11-08T10:00:00	1	Precipitación	0
17864	7	Sololá	712	San Antonio Palopó	9	San Antonio Palopo	11	Noviembre	2023-08-11T00:00:00	2024-11-08T10:00:00	8	Radiación solar	681
17865	7	Sololá	712	San Antonio Palopó	9	San Antonio Palopo	11	Noviembre	2023-08-11T00:00:00	2024-11-08T11:00:00	2	Temperatura media	24.8
17866	7	Sololá	712	San Antonio Palopó	9	San Antonio Palopo	11	Noviembre	2023-08-11T00:00:00	2024-11-08T11:00:00	4	Temperatura máxima	25.1
17867	7	Sololá	712	San Antonio Palopó	9	San Antonio Palopo	11	Noviembre	2023-08-11T00:00:00	2024-11-08T11:00:00	3	Temperatura mínima	23.7
17868	7	Sololá	712	San Antonio Palopó	9	San Antonio Palopo	11	Noviembre	2023-08-11T00:00:00	2024-11-08T11:00:00	5	Humedad	60
17869	7	Sololá	712	San Antonio Palopó	9	San Antonio Palopo	11	Noviembre	2023-08-11T00:00:00	2024-11-08T11:00:00	6	Velocidad del viento	8
17870	7	Sololá	712	San Antonio Palopó	9	San Antonio Palopo	11	Noviembre	2023-08-11T00:00:00	2024-11-08T11:00:00	7	Dirección del viento	8.05
17871	7	Sololá	712	San Antonio Palopó	9	San Antonio Palopo	11	Noviembre	2023-08-11T00:00:00	2024-11-08T11:00:00	1	Precipitación	0
17872	7	Sololá	712	San Antonio Palopó	9	San Antonio Palopo	11	Noviembre	2023-08-11T00:00:00	2024-11-08T11:00:00	8	Radiación solar	481
17873	7	Sololá	712	San Antonio Palopó	9	San Antonio Palopo	11	Noviembre	2023-08-11T00:00:00	2024-11-08T12:00:00	2	Temperatura media	25.8
17874	7	Sololá	712	San Antonio Palopó	9	San Antonio Palopo	11	Noviembre	2023-08-11T00:00:00	2024-11-08T12:00:00	4	Temperatura máxima	26
17875	7	Sololá	712	San Antonio Palopó	9	San Antonio Palopo	11	Noviembre	2023-08-11T00:00:00	2024-11-08T12:00:00	3	Temperatura mínima	24.7
17876	7	Sololá	712	San Antonio Palopó	9	San Antonio Palopo	11	Noviembre	2023-08-11T00:00:00	2024-11-08T12:00:00	5	Humedad	57
17877	7	Sololá	712	San Antonio Palopó	9	San Antonio Palopo	11	Noviembre	2023-08-11T00:00:00	2024-11-08T12:00:00	6	Velocidad del viento	11.3
17878	7	Sololá	712	San Antonio Palopó	9	San Antonio Palopo	11	Noviembre	2023-08-11T00:00:00	2024-11-08T12:00:00	7	Dirección del viento	11.27
17879	7	Sololá	712	San Antonio Palopó	9	San Antonio Palopo	11	Noviembre	2023-08-11T00:00:00	2024-11-08T12:00:00	1	Precipitación	0
17880	7	Sololá	712	San Antonio Palopó	9	San Antonio Palopo	11	Noviembre	2023-08-11T00:00:00	2024-11-08T12:00:00	8	Radiación solar	441
17881	7	Sololá	712	San Antonio Palopó	9	San Antonio Palopo	11	Noviembre	2023-08-11T00:00:00	2024-11-08T13:00:00	2	Temperatura media	25.4
17882	7	Sololá	712	San Antonio Palopó	9	San Antonio Palopo	11	Noviembre	2023-08-11T00:00:00	2024-11-08T13:00:00	4	Temperatura máxima	26.1
17883	7	Sololá	712	San Antonio Palopó	9	San Antonio Palopo	11	Noviembre	2023-08-11T00:00:00	2024-11-08T13:00:00	3	Temperatura mínima	25.1
17884	7	Sololá	712	San Antonio Palopó	9	San Antonio Palopo	11	Noviembre	2023-08-11T00:00:00	2024-11-08T13:00:00	5	Humedad	59
17885	7	Sololá	712	San Antonio Palopó	9	San Antonio Palopo	11	Noviembre	2023-08-11T00:00:00	2024-11-08T13:00:00	6	Velocidad del viento	9.7
17886	7	Sololá	712	San Antonio Palopó	9	San Antonio Palopo	11	Noviembre	2023-08-11T00:00:00	2024-11-08T13:00:00	7	Dirección del viento	9.66
17887	7	Sololá	712	San Antonio Palopó	9	San Antonio Palopo	11	Noviembre	2023-08-11T00:00:00	2024-11-08T13:00:00	1	Precipitación	0
17888	7	Sololá	712	San Antonio Palopó	9	San Antonio Palopo	11	Noviembre	2023-08-11T00:00:00	2024-11-08T13:00:00	8	Radiación solar	372
17889	7	Sololá	712	San Antonio Palopó	9	San Antonio Palopo	11	Noviembre	2023-08-11T00:00:00	2024-11-08T14:00:00	2	Temperatura media	26.2
17890	7	Sololá	712	San Antonio Palopó	9	San Antonio Palopo	11	Noviembre	2023-08-11T00:00:00	2024-11-08T14:00:00	4	Temperatura máxima	26.3
17891	7	Sololá	712	San Antonio Palopó	9	San Antonio Palopo	11	Noviembre	2023-08-11T00:00:00	2024-11-08T14:00:00	3	Temperatura mínima	25.3
17892	7	Sololá	712	San Antonio Palopó	9	San Antonio Palopo	11	Noviembre	2023-08-11T00:00:00	2024-11-08T14:00:00	5	Humedad	58
17893	7	Sololá	712	San Antonio Palopó	9	San Antonio Palopo	11	Noviembre	2023-08-11T00:00:00	2024-11-08T14:00:00	6	Velocidad del viento	9.7
17894	7	Sololá	712	San Antonio Palopó	9	San Antonio Palopo	11	Noviembre	2023-08-11T00:00:00	2024-11-08T14:00:00	7	Dirección del viento	9.66
17895	7	Sololá	712	San Antonio Palopó	9	San Antonio Palopo	11	Noviembre	2023-08-11T00:00:00	2024-11-08T14:00:00	1	Precipitación	0
17896	7	Sololá	712	San Antonio Palopó	9	San Antonio Palopo	11	Noviembre	2023-08-11T00:00:00	2024-11-08T14:00:00	8	Radiación solar	362
17897	7	Sololá	712	San Antonio Palopó	9	San Antonio Palopo	11	Noviembre	2023-08-11T00:00:00	2024-11-08T15:00:00	2	Temperatura media	24.4
17898	7	Sololá	712	San Antonio Palopó	9	San Antonio Palopo	11	Noviembre	2023-08-11T00:00:00	2024-11-08T15:00:00	4	Temperatura máxima	26.2
17899	7	Sololá	712	San Antonio Palopó	9	San Antonio Palopo	11	Noviembre	2023-08-11T00:00:00	2024-11-08T15:00:00	3	Temperatura mínima	24.4
17900	7	Sololá	712	San Antonio Palopó	9	San Antonio Palopo	11	Noviembre	2023-08-11T00:00:00	2024-11-08T15:00:00	5	Humedad	65
17901	7	Sololá	712	San Antonio Palopó	9	San Antonio Palopo	11	Noviembre	2023-08-11T00:00:00	2024-11-08T15:00:00	6	Velocidad del viento	8
17902	7	Sololá	712	San Antonio Palopó	9	San Antonio Palopo	11	Noviembre	2023-08-11T00:00:00	2024-11-08T15:00:00	7	Dirección del viento	8.05
17903	7	Sololá	712	San Antonio Palopó	9	San Antonio Palopo	11	Noviembre	2023-08-11T00:00:00	2024-11-08T15:00:00	1	Precipitación	0
17904	7	Sololá	712	San Antonio Palopó	9	San Antonio Palopo	11	Noviembre	2023-08-11T00:00:00	2024-11-08T15:00:00	8	Radiación solar	148
17905	7	Sololá	712	San Antonio Palopó	9	San Antonio Palopo	11	Noviembre	2023-08-11T00:00:00	2024-11-08T16:00:00	2	Temperatura media	25.4
17906	7	Sololá	712	San Antonio Palopó	9	San Antonio Palopo	11	Noviembre	2023-08-11T00:00:00	2024-11-08T16:00:00	4	Temperatura máxima	25.6
17907	7	Sololá	712	San Antonio Palopó	9	San Antonio Palopo	11	Noviembre	2023-08-11T00:00:00	2024-11-08T16:00:00	3	Temperatura mínima	24.4
17908	7	Sololá	712	San Antonio Palopó	9	San Antonio Palopo	11	Noviembre	2023-08-11T00:00:00	2024-11-08T16:00:00	5	Humedad	67
17909	7	Sololá	712	San Antonio Palopó	9	San Antonio Palopo	11	Noviembre	2023-08-11T00:00:00	2024-11-08T16:00:00	6	Velocidad del viento	4.8
17910	7	Sololá	712	San Antonio Palopó	9	San Antonio Palopo	11	Noviembre	2023-08-11T00:00:00	2024-11-08T16:00:00	7	Dirección del viento	4.83
17911	7	Sololá	712	San Antonio Palopó	9	San Antonio Palopo	11	Noviembre	2023-08-11T00:00:00	2024-11-08T16:00:00	1	Precipitación	0
17912	7	Sololá	712	San Antonio Palopó	9	San Antonio Palopo	11	Noviembre	2023-08-11T00:00:00	2024-11-08T16:00:00	8	Radiación solar	165
17913	7	Sololá	712	San Antonio Palopó	9	San Antonio Palopo	11	Noviembre	2023-08-11T00:00:00	2024-11-08T17:00:00	2	Temperatura media	23.8
17914	7	Sololá	712	San Antonio Palopó	9	San Antonio Palopo	11	Noviembre	2023-08-11T00:00:00	2024-11-08T17:00:00	4	Temperatura máxima	25.8
17915	7	Sololá	712	San Antonio Palopó	9	San Antonio Palopo	11	Noviembre	2023-08-11T00:00:00	2024-11-08T17:00:00	3	Temperatura mínima	23.8
17916	7	Sololá	712	San Antonio Palopó	9	San Antonio Palopo	11	Noviembre	2023-08-11T00:00:00	2024-11-08T17:00:00	5	Humedad	67
17917	7	Sololá	712	San Antonio Palopó	9	San Antonio Palopo	11	Noviembre	2023-08-11T00:00:00	2024-11-08T17:00:00	6	Velocidad del viento	6.4
17918	7	Sololá	712	San Antonio Palopó	9	San Antonio Palopo	11	Noviembre	2023-08-11T00:00:00	2024-11-08T17:00:00	7	Dirección del viento	6.44
17919	7	Sololá	712	San Antonio Palopó	9	San Antonio Palopo	11	Noviembre	2023-08-11T00:00:00	2024-11-08T17:00:00	1	Precipitación	0
17920	7	Sololá	712	San Antonio Palopó	9	San Antonio Palopo	11	Noviembre	2023-08-11T00:00:00	2024-11-08T17:00:00	8	Radiación solar	87
17921	7	Sololá	712	San Antonio Palopó	9	San Antonio Palopo	11	Noviembre	2023-08-11T00:00:00	2024-11-08T18:00:00	2	Temperatura media	22.5
17922	7	Sololá	712	San Antonio Palopó	9	San Antonio Palopo	11	Noviembre	2023-08-11T00:00:00	2024-11-08T18:00:00	4	Temperatura máxima	24
17923	7	Sololá	712	San Antonio Palopó	9	San Antonio Palopo	11	Noviembre	2023-08-11T00:00:00	2024-11-08T18:00:00	3	Temperatura mínima	22.5
17924	7	Sololá	712	San Antonio Palopó	9	San Antonio Palopo	11	Noviembre	2023-08-11T00:00:00	2024-11-08T18:00:00	5	Humedad	70
17925	7	Sololá	712	San Antonio Palopó	9	San Antonio Palopo	11	Noviembre	2023-08-11T00:00:00	2024-11-08T18:00:00	6	Velocidad del viento	8
17926	7	Sololá	712	San Antonio Palopó	9	San Antonio Palopo	11	Noviembre	2023-08-11T00:00:00	2024-11-08T18:00:00	7	Dirección del viento	8.05
17927	7	Sololá	712	San Antonio Palopó	9	San Antonio Palopo	11	Noviembre	2023-08-11T00:00:00	2024-11-08T18:00:00	1	Precipitación	0
17928	7	Sololá	712	San Antonio Palopó	9	San Antonio Palopo	11	Noviembre	2023-08-11T00:00:00	2024-11-08T18:00:00	8	Radiación solar	9
17929	7	Sololá	712	San Antonio Palopó	9	San Antonio Palopo	11	Noviembre	2023-08-11T00:00:00	2024-11-08T19:00:00	2	Temperatura media	22
17930	7	Sololá	712	San Antonio Palopó	9	San Antonio Palopo	11	Noviembre	2023-08-11T00:00:00	2024-11-08T19:00:00	4	Temperatura máxima	22.5
17931	7	Sololá	712	San Antonio Palopó	9	San Antonio Palopo	11	Noviembre	2023-08-11T00:00:00	2024-11-08T19:00:00	3	Temperatura mínima	22
17932	7	Sololá	712	San Antonio Palopó	9	San Antonio Palopo	11	Noviembre	2023-08-11T00:00:00	2024-11-08T19:00:00	5	Humedad	71
17933	7	Sololá	712	San Antonio Palopó	9	San Antonio Palopo	11	Noviembre	2023-08-11T00:00:00	2024-11-08T19:00:00	6	Velocidad del viento	9.7
17934	7	Sololá	712	San Antonio Palopó	9	San Antonio Palopo	11	Noviembre	2023-08-11T00:00:00	2024-11-08T19:00:00	7	Dirección del viento	9.66
17935	7	Sololá	712	San Antonio Palopó	9	San Antonio Palopo	11	Noviembre	2023-08-11T00:00:00	2024-11-08T19:00:00	1	Precipitación	0
17936	7	Sololá	712	San Antonio Palopó	9	San Antonio Palopo	11	Noviembre	2023-08-11T00:00:00	2024-11-08T19:00:00	8	Radiación solar	0
17937	7	Sololá	712	San Antonio Palopó	9	San Antonio Palopo	11	Noviembre	2023-08-11T00:00:00	2024-11-08T20:00:00	2	Temperatura media	21.8
17938	7	Sololá	712	San Antonio Palopó	9	San Antonio Palopo	11	Noviembre	2023-08-11T00:00:00	2024-11-08T20:00:00	4	Temperatura máxima	22.1
17939	7	Sololá	712	San Antonio Palopó	9	San Antonio Palopo	11	Noviembre	2023-08-11T00:00:00	2024-11-08T20:00:00	3	Temperatura mínima	21.8
17940	7	Sololá	712	San Antonio Palopó	9	San Antonio Palopo	11	Noviembre	2023-08-11T00:00:00	2024-11-08T20:00:00	5	Humedad	70
17941	7	Sololá	712	San Antonio Palopó	9	San Antonio Palopo	11	Noviembre	2023-08-11T00:00:00	2024-11-08T20:00:00	6	Velocidad del viento	9.7
17942	7	Sololá	712	San Antonio Palopó	9	San Antonio Palopo	11	Noviembre	2023-08-11T00:00:00	2024-11-08T20:00:00	7	Dirección del viento	9.66
17943	7	Sololá	712	San Antonio Palopó	9	San Antonio Palopo	11	Noviembre	2023-08-11T00:00:00	2024-11-08T20:00:00	1	Precipitación	0
17944	7	Sololá	712	San Antonio Palopó	9	San Antonio Palopo	11	Noviembre	2023-08-11T00:00:00	2024-11-08T20:00:00	8	Radiación solar	0
17945	7	Sololá	712	San Antonio Palopó	9	San Antonio Palopo	11	Noviembre	2023-08-11T00:00:00	2024-11-08T21:00:00	2	Temperatura media	21.5
17946	7	Sololá	712	San Antonio Palopó	9	San Antonio Palopo	11	Noviembre	2023-08-11T00:00:00	2024-11-08T21:00:00	4	Temperatura máxima	21.8
17947	7	Sololá	712	San Antonio Palopó	9	San Antonio Palopo	11	Noviembre	2023-08-11T00:00:00	2024-11-08T21:00:00	3	Temperatura mínima	21.4
17948	7	Sololá	712	San Antonio Palopó	9	San Antonio Palopo	11	Noviembre	2023-08-11T00:00:00	2024-11-08T21:00:00	5	Humedad	70
17949	7	Sololá	712	San Antonio Palopó	9	San Antonio Palopo	11	Noviembre	2023-08-11T00:00:00	2024-11-08T21:00:00	6	Velocidad del viento	6.4
17950	7	Sololá	712	San Antonio Palopó	9	San Antonio Palopo	11	Noviembre	2023-08-11T00:00:00	2024-11-08T21:00:00	7	Dirección del viento	6.44
17951	7	Sololá	712	San Antonio Palopó	9	San Antonio Palopo	11	Noviembre	2023-08-11T00:00:00	2024-11-08T21:00:00	1	Precipitación	0
17952	7	Sololá	712	San Antonio Palopó	9	San Antonio Palopo	11	Noviembre	2023-08-11T00:00:00	2024-11-08T21:00:00	8	Radiación solar	0
17953	7	Sololá	712	San Antonio Palopó	9	San Antonio Palopo	11	Noviembre	2023-08-11T00:00:00	2024-11-08T22:00:00	2	Temperatura media	21.2
17954	7	Sololá	712	San Antonio Palopó	9	San Antonio Palopo	11	Noviembre	2023-08-11T00:00:00	2024-11-08T22:00:00	4	Temperatura máxima	21.6
17955	7	Sololá	712	San Antonio Palopó	9	San Antonio Palopo	11	Noviembre	2023-08-11T00:00:00	2024-11-08T22:00:00	3	Temperatura mínima	21.2
17956	7	Sololá	712	San Antonio Palopó	9	San Antonio Palopo	11	Noviembre	2023-08-11T00:00:00	2024-11-08T22:00:00	5	Humedad	73
17957	7	Sololá	712	San Antonio Palopó	9	San Antonio Palopo	11	Noviembre	2023-08-11T00:00:00	2024-11-08T22:00:00	6	Velocidad del viento	9.7
17958	7	Sololá	712	San Antonio Palopó	9	San Antonio Palopo	11	Noviembre	2023-08-11T00:00:00	2024-11-08T22:00:00	7	Dirección del viento	9.66
17959	7	Sololá	712	San Antonio Palopó	9	San Antonio Palopo	11	Noviembre	2023-08-11T00:00:00	2024-11-08T22:00:00	1	Precipitación	0
17960	7	Sololá	712	San Antonio Palopó	9	San Antonio Palopo	11	Noviembre	2023-08-11T00:00:00	2024-11-08T22:00:00	8	Radiación solar	0
17961	7	Sololá	712	San Antonio Palopó	9	San Antonio Palopo	11	Noviembre	2023-08-11T00:00:00	2024-11-08T23:00:00	2	Temperatura media	20.9
17962	7	Sololá	712	San Antonio Palopó	9	San Antonio Palopo	11	Noviembre	2023-08-11T00:00:00	2024-11-08T23:00:00	4	Temperatura máxima	21.2
17963	7	Sololá	712	San Antonio Palopó	9	San Antonio Palopo	11	Noviembre	2023-08-11T00:00:00	2024-11-08T23:00:00	3	Temperatura mínima	20.8
17964	7	Sololá	712	San Antonio Palopó	9	San Antonio Palopo	11	Noviembre	2023-08-11T00:00:00	2024-11-08T23:00:00	5	Humedad	73
17965	7	Sololá	712	San Antonio Palopó	9	San Antonio Palopo	11	Noviembre	2023-08-11T00:00:00	2024-11-08T23:00:00	6	Velocidad del viento	8
17966	7	Sololá	712	San Antonio Palopó	9	San Antonio Palopo	11	Noviembre	2023-08-11T00:00:00	2024-11-08T23:00:00	7	Dirección del viento	8.05
17967	7	Sololá	712	San Antonio Palopó	9	San Antonio Palopo	11	Noviembre	2023-08-11T00:00:00	2024-11-08T23:00:00	1	Precipitación	0
17968	7	Sololá	712	San Antonio Palopó	9	San Antonio Palopo	11	Noviembre	2023-08-11T00:00:00	2024-11-08T23:00:00	8	Radiación solar	0
17969	7	Sololá	712	San Antonio Palopó	9	San Antonio Palopo	11	Noviembre	2023-09-11T00:00:00	2024-11-08T00:00:00	2	Temperatura media	20.8
17970	7	Sololá	712	San Antonio Palopó	9	San Antonio Palopo	11	Noviembre	2023-09-11T00:00:00	2024-11-08T00:00:00	4	Temperatura máxima	20.9
17971	7	Sololá	712	San Antonio Palopó	9	San Antonio Palopo	11	Noviembre	2023-09-11T00:00:00	2024-11-08T00:00:00	3	Temperatura mínima	20.7
17972	7	Sololá	712	San Antonio Palopó	9	San Antonio Palopo	11	Noviembre	2023-09-11T00:00:00	2024-11-08T00:00:00	5	Humedad	72
17973	7	Sololá	712	San Antonio Palopó	9	San Antonio Palopo	11	Noviembre	2023-09-11T00:00:00	2024-11-08T00:00:00	6	Velocidad del viento	6.4
17974	7	Sololá	712	San Antonio Palopó	9	San Antonio Palopo	11	Noviembre	2023-09-11T00:00:00	2024-11-08T00:00:00	7	Dirección del viento	6.44
17975	7	Sololá	712	San Antonio Palopó	9	San Antonio Palopo	11	Noviembre	2023-09-11T00:00:00	2024-11-08T00:00:00	1	Precipitación	0
17976	7	Sololá	712	San Antonio Palopó	9	San Antonio Palopo	11	Noviembre	2023-09-11T00:00:00	2024-11-08T00:00:00	8	Radiación solar	0
17977	7	Sololá	712	San Antonio Palopó	9	San Antonio Palopo	11	Noviembre	2023-09-11T00:00:00	2024-11-08T01:00:00	2	Temperatura media	20.6
17978	7	Sololá	712	San Antonio Palopó	9	San Antonio Palopo	11	Noviembre	2023-09-11T00:00:00	2024-11-08T01:00:00	4	Temperatura máxima	20.9
17979	7	Sololá	712	San Antonio Palopó	9	San Antonio Palopo	11	Noviembre	2023-09-11T00:00:00	2024-11-08T01:00:00	3	Temperatura mínima	20.6
17980	7	Sololá	712	San Antonio Palopó	9	San Antonio Palopo	11	Noviembre	2023-09-11T00:00:00	2024-11-08T01:00:00	5	Humedad	72
17981	7	Sololá	712	San Antonio Palopó	9	San Antonio Palopo	11	Noviembre	2023-09-11T00:00:00	2024-11-08T01:00:00	6	Velocidad del viento	11.3
17982	7	Sololá	712	San Antonio Palopó	9	San Antonio Palopo	11	Noviembre	2023-09-11T00:00:00	2024-11-08T01:00:00	7	Dirección del viento	11.27
17983	7	Sololá	712	San Antonio Palopó	9	San Antonio Palopo	11	Noviembre	2023-09-11T00:00:00	2024-11-08T01:00:00	1	Precipitación	0
17984	7	Sololá	712	San Antonio Palopó	9	San Antonio Palopo	11	Noviembre	2023-09-11T00:00:00	2024-11-08T01:00:00	8	Radiación solar	0
17985	7	Sololá	712	San Antonio Palopó	9	San Antonio Palopo	11	Noviembre	2023-09-11T00:00:00	2024-11-08T02:00:00	2	Temperatura media	20.6
17986	7	Sololá	712	San Antonio Palopó	9	San Antonio Palopo	11	Noviembre	2023-09-11T00:00:00	2024-11-08T02:00:00	4	Temperatura máxima	20.7
17987	7	Sololá	712	San Antonio Palopó	9	San Antonio Palopo	11	Noviembre	2023-09-11T00:00:00	2024-11-08T02:00:00	3	Temperatura mínima	20.2
17988	7	Sololá	712	San Antonio Palopó	9	San Antonio Palopo	11	Noviembre	2023-09-11T00:00:00	2024-11-08T02:00:00	5	Humedad	72
17989	7	Sololá	712	San Antonio Palopó	9	San Antonio Palopo	11	Noviembre	2023-09-11T00:00:00	2024-11-08T02:00:00	6	Velocidad del viento	11.3
17990	7	Sololá	712	San Antonio Palopó	9	San Antonio Palopo	11	Noviembre	2023-09-11T00:00:00	2024-11-08T02:00:00	7	Dirección del viento	11.27
17991	7	Sololá	712	San Antonio Palopó	9	San Antonio Palopo	11	Noviembre	2023-09-11T00:00:00	2024-11-08T02:00:00	1	Precipitación	0
17992	7	Sololá	712	San Antonio Palopó	9	San Antonio Palopo	11	Noviembre	2023-09-11T00:00:00	2024-11-08T02:00:00	8	Radiación solar	0
17993	7	Sololá	712	San Antonio Palopó	9	San Antonio Palopo	11	Noviembre	2023-09-11T00:00:00	2024-11-08T03:00:00	2	Temperatura media	19.6
17994	7	Sololá	712	San Antonio Palopó	9	San Antonio Palopo	11	Noviembre	2023-09-11T00:00:00	2024-11-08T03:00:00	4	Temperatura máxima	20.6
17995	7	Sololá	712	San Antonio Palopó	9	San Antonio Palopo	11	Noviembre	2023-09-11T00:00:00	2024-11-08T03:00:00	3	Temperatura mínima	19.6
17996	7	Sololá	712	San Antonio Palopó	9	San Antonio Palopo	11	Noviembre	2023-09-11T00:00:00	2024-11-08T03:00:00	5	Humedad	76
17997	7	Sololá	712	San Antonio Palopó	9	San Antonio Palopo	11	Noviembre	2023-09-11T00:00:00	2024-11-08T03:00:00	6	Velocidad del viento	3.2
17998	7	Sololá	712	San Antonio Palopó	9	San Antonio Palopo	11	Noviembre	2023-09-11T00:00:00	2024-11-08T03:00:00	7	Dirección del viento	3.22
17999	7	Sololá	712	San Antonio Palopó	9	San Antonio Palopo	11	Noviembre	2023-09-11T00:00:00	2024-11-08T03:00:00	1	Precipitación	0
18000	7	Sololá	712	San Antonio Palopó	9	San Antonio Palopo	11	Noviembre	2023-09-11T00:00:00	2024-11-08T03:00:00	8	Radiación solar	0
18001	7	Sololá	712	San Antonio Palopó	9	San Antonio Palopo	11	Noviembre	2023-09-11T00:00:00	2024-11-08T04:00:00	2	Temperatura media	19.4
18002	7	Sololá	712	San Antonio Palopó	9	San Antonio Palopo	11	Noviembre	2023-09-11T00:00:00	2024-11-08T04:00:00	4	Temperatura máxima	19.6
18003	7	Sololá	712	San Antonio Palopó	9	San Antonio Palopo	11	Noviembre	2023-09-11T00:00:00	2024-11-08T04:00:00	3	Temperatura mínima	18.3
18004	7	Sololá	712	San Antonio Palopó	9	San Antonio Palopo	11	Noviembre	2023-09-11T00:00:00	2024-11-08T04:00:00	5	Humedad	77
18005	7	Sololá	712	San Antonio Palopó	9	San Antonio Palopo	11	Noviembre	2023-09-11T00:00:00	2024-11-08T04:00:00	6	Velocidad del viento	3.2
18006	7	Sololá	712	San Antonio Palopó	9	San Antonio Palopo	11	Noviembre	2023-09-11T00:00:00	2024-11-08T04:00:00	7	Dirección del viento	3.22
18007	7	Sololá	712	San Antonio Palopó	9	San Antonio Palopo	11	Noviembre	2023-09-11T00:00:00	2024-11-08T04:00:00	1	Precipitación	0
18008	7	Sololá	712	San Antonio Palopó	9	San Antonio Palopo	11	Noviembre	2023-09-11T00:00:00	2024-11-08T04:00:00	8	Radiación solar	0
18009	7	Sololá	712	San Antonio Palopó	9	San Antonio Palopo	11	Noviembre	2023-09-11T00:00:00	2024-11-08T05:00:00	2	Temperatura media	19.4
18010	7	Sololá	712	San Antonio Palopó	9	San Antonio Palopo	11	Noviembre	2023-09-11T00:00:00	2024-11-08T05:00:00	4	Temperatura máxima	19.7
18011	7	Sololá	712	San Antonio Palopó	9	San Antonio Palopo	11	Noviembre	2023-09-11T00:00:00	2024-11-08T05:00:00	3	Temperatura mínima	19.4
18012	7	Sololá	712	San Antonio Palopó	9	San Antonio Palopo	11	Noviembre	2023-09-11T00:00:00	2024-11-08T05:00:00	5	Humedad	76
18013	7	Sololá	712	San Antonio Palopó	9	San Antonio Palopo	11	Noviembre	2023-09-11T00:00:00	2024-11-08T05:00:00	6	Velocidad del viento	6.4
18014	7	Sololá	712	San Antonio Palopó	9	San Antonio Palopo	11	Noviembre	2023-09-11T00:00:00	2024-11-08T05:00:00	7	Dirección del viento	6.44
18015	7	Sololá	712	San Antonio Palopó	9	San Antonio Palopo	11	Noviembre	2023-09-11T00:00:00	2024-11-08T05:00:00	1	Precipitación	0
18016	7	Sololá	712	San Antonio Palopó	9	San Antonio Palopo	11	Noviembre	2023-09-11T00:00:00	2024-11-08T05:00:00	8	Radiación solar	0
18017	7	Sololá	712	San Antonio Palopó	9	San Antonio Palopo	11	Noviembre	2023-09-11T00:00:00	2024-11-08T06:00:00	2	Temperatura media	19.1
18018	7	Sololá	712	San Antonio Palopó	9	San Antonio Palopo	11	Noviembre	2023-09-11T00:00:00	2024-11-08T06:00:00	4	Temperatura máxima	19.4
18019	7	Sololá	712	San Antonio Palopó	9	San Antonio Palopo	11	Noviembre	2023-09-11T00:00:00	2024-11-08T06:00:00	3	Temperatura mínima	18.9
18020	7	Sololá	712	San Antonio Palopó	9	San Antonio Palopo	11	Noviembre	2023-09-11T00:00:00	2024-11-08T06:00:00	5	Humedad	77
18021	7	Sololá	712	San Antonio Palopó	9	San Antonio Palopo	11	Noviembre	2023-09-11T00:00:00	2024-11-08T06:00:00	6	Velocidad del viento	8
18022	7	Sololá	712	San Antonio Palopó	9	San Antonio Palopo	11	Noviembre	2023-09-11T00:00:00	2024-11-08T06:00:00	7	Dirección del viento	8.05
18023	7	Sololá	712	San Antonio Palopó	9	San Antonio Palopo	11	Noviembre	2023-09-11T00:00:00	2024-11-08T06:00:00	1	Precipitación	0
18024	7	Sololá	712	San Antonio Palopó	9	San Antonio Palopo	11	Noviembre	2023-09-11T00:00:00	2024-11-08T06:00:00	8	Radiación solar	0
18025	7	Sololá	712	San Antonio Palopó	9	San Antonio Palopo	11	Noviembre	2023-09-11T00:00:00	2024-11-08T07:00:00	2	Temperatura media	18.2
18026	7	Sololá	712	San Antonio Palopó	9	San Antonio Palopo	11	Noviembre	2023-09-11T00:00:00	2024-11-08T07:00:00	4	Temperatura máxima	19.2
18027	7	Sololá	712	San Antonio Palopó	9	San Antonio Palopo	11	Noviembre	2023-09-11T00:00:00	2024-11-08T07:00:00	3	Temperatura mínima	18.2
18028	7	Sololá	712	San Antonio Palopó	9	San Antonio Palopo	11	Noviembre	2023-09-11T00:00:00	2024-11-08T07:00:00	5	Humedad	79
18029	7	Sololá	712	San Antonio Palopó	9	San Antonio Palopo	11	Noviembre	2023-09-11T00:00:00	2024-11-08T07:00:00	6	Velocidad del viento	3.2
18030	7	Sololá	712	San Antonio Palopó	9	San Antonio Palopo	11	Noviembre	2023-09-11T00:00:00	2024-11-08T07:00:00	7	Dirección del viento	3.22
18031	7	Sololá	712	San Antonio Palopó	9	San Antonio Palopo	11	Noviembre	2023-09-11T00:00:00	2024-11-08T07:00:00	1	Precipitación	0
18032	7	Sololá	712	San Antonio Palopó	9	San Antonio Palopo	11	Noviembre	2023-09-11T00:00:00	2024-11-08T07:00:00	8	Radiación solar	9
18033	7	Sololá	712	San Antonio Palopó	9	San Antonio Palopo	11	Noviembre	2023-09-11T00:00:00	2024-11-08T08:00:00	2	Temperatura media	18.8
18034	7	Sololá	712	San Antonio Palopó	9	San Antonio Palopo	11	Noviembre	2023-09-11T00:00:00	2024-11-08T08:00:00	4	Temperatura máxima	18.8
18035	7	Sololá	712	San Antonio Palopó	9	San Antonio Palopo	11	Noviembre	2023-09-11T00:00:00	2024-11-08T08:00:00	3	Temperatura mínima	17.9
18036	7	Sololá	712	San Antonio Palopó	9	San Antonio Palopo	11	Noviembre	2023-09-11T00:00:00	2024-11-08T08:00:00	5	Humedad	82
18037	7	Sololá	712	San Antonio Palopó	9	San Antonio Palopo	11	Noviembre	2023-09-11T00:00:00	2024-11-08T08:00:00	6	Velocidad del viento	1.6
18038	7	Sololá	712	San Antonio Palopó	9	San Antonio Palopo	11	Noviembre	2023-09-11T00:00:00	2024-11-08T08:00:00	7	Dirección del viento	1.61
18039	7	Sololá	712	San Antonio Palopó	9	San Antonio Palopo	11	Noviembre	2023-09-11T00:00:00	2024-11-08T08:00:00	1	Precipitación	0
18040	7	Sololá	712	San Antonio Palopó	9	San Antonio Palopo	11	Noviembre	2023-09-11T00:00:00	2024-11-08T08:00:00	8	Radiación solar	30
18041	7	Sololá	712	San Antonio Palopó	9	San Antonio Palopo	11	Noviembre	2023-09-11T00:00:00	2024-11-08T09:00:00	2	Temperatura media	21.4
18042	7	Sololá	712	San Antonio Palopó	9	San Antonio Palopo	11	Noviembre	2023-09-11T00:00:00	2024-11-08T09:00:00	4	Temperatura máxima	21.7
18043	7	Sololá	712	San Antonio Palopó	9	San Antonio Palopo	11	Noviembre	2023-09-11T00:00:00	2024-11-08T09:00:00	3	Temperatura mínima	18.8
18044	7	Sololá	712	San Antonio Palopó	9	San Antonio Palopo	11	Noviembre	2023-09-11T00:00:00	2024-11-08T09:00:00	5	Humedad	74
18045	7	Sololá	712	San Antonio Palopó	9	San Antonio Palopo	11	Noviembre	2023-09-11T00:00:00	2024-11-08T09:00:00	6	Velocidad del viento	1.6
18046	7	Sololá	712	San Antonio Palopó	9	San Antonio Palopo	11	Noviembre	2023-09-11T00:00:00	2024-11-08T09:00:00	7	Dirección del viento	1.61
18047	7	Sololá	712	San Antonio Palopó	9	San Antonio Palopo	11	Noviembre	2023-09-11T00:00:00	2024-11-08T09:00:00	1	Precipitación	0
18048	7	Sololá	712	San Antonio Palopó	9	San Antonio Palopo	11	Noviembre	2023-09-11T00:00:00	2024-11-08T09:00:00	8	Radiación solar	376
18049	7	Sololá	712	San Antonio Palopó	9	San Antonio Palopo	11	Noviembre	2023-09-11T00:00:00	2024-11-08T10:00:00	2	Temperatura media	21.2
18050	7	Sololá	712	San Antonio Palopó	9	San Antonio Palopo	11	Noviembre	2023-09-11T00:00:00	2024-11-08T10:00:00	4	Temperatura máxima	21.4
18051	7	Sololá	712	San Antonio Palopó	9	San Antonio Palopo	11	Noviembre	2023-09-11T00:00:00	2024-11-08T10:00:00	3	Temperatura mínima	20.6
18052	7	Sololá	712	San Antonio Palopó	9	San Antonio Palopo	11	Noviembre	2023-09-11T00:00:00	2024-11-08T10:00:00	5	Humedad	76
18053	7	Sololá	712	San Antonio Palopó	9	San Antonio Palopo	11	Noviembre	2023-09-11T00:00:00	2024-11-08T10:00:00	6	Velocidad del viento	1.6
18054	7	Sololá	712	San Antonio Palopó	9	San Antonio Palopo	11	Noviembre	2023-09-11T00:00:00	2024-11-08T10:00:00	7	Dirección del viento	1.61
18055	7	Sololá	712	San Antonio Palopó	9	San Antonio Palopo	11	Noviembre	2023-09-11T00:00:00	2024-11-08T10:00:00	1	Precipitación	0
18056	7	Sololá	712	San Antonio Palopó	9	San Antonio Palopo	11	Noviembre	2023-09-11T00:00:00	2024-11-08T10:00:00	8	Radiación solar	454
18057	7	Sololá	712	San Antonio Palopó	9	San Antonio Palopo	11	Noviembre	2023-09-11T00:00:00	2024-11-08T11:00:00	2	Temperatura media	22.3
18058	7	Sololá	712	San Antonio Palopó	9	San Antonio Palopo	11	Noviembre	2023-09-11T00:00:00	2024-11-08T11:00:00	4	Temperatura máxima	22.3
18059	7	Sololá	712	San Antonio Palopó	9	San Antonio Palopo	11	Noviembre	2023-09-11T00:00:00	2024-11-08T11:00:00	3	Temperatura mínima	21.2
18060	7	Sololá	712	San Antonio Palopó	9	San Antonio Palopo	11	Noviembre	2023-09-11T00:00:00	2024-11-08T11:00:00	5	Humedad	75
18061	7	Sololá	712	San Antonio Palopó	9	San Antonio Palopo	11	Noviembre	2023-09-11T00:00:00	2024-11-08T11:00:00	6	Velocidad del viento	3.2
18062	7	Sololá	712	San Antonio Palopó	9	San Antonio Palopo	11	Noviembre	2023-09-11T00:00:00	2024-11-08T11:00:00	7	Dirección del viento	3.22
18063	7	Sololá	712	San Antonio Palopó	9	San Antonio Palopo	11	Noviembre	2023-09-11T00:00:00	2024-11-08T11:00:00	1	Precipitación	0
18064	7	Sololá	712	San Antonio Palopó	9	San Antonio Palopo	11	Noviembre	2023-09-11T00:00:00	2024-11-08T11:00:00	8	Radiación solar	660
18065	7	Sololá	712	San Antonio Palopó	9	San Antonio Palopo	11	Noviembre	2023-09-11T00:00:00	2024-11-08T12:00:00	2	Temperatura media	22.9
18066	7	Sololá	712	San Antonio Palopó	9	San Antonio Palopo	11	Noviembre	2023-09-11T00:00:00	2024-11-08T12:00:00	4	Temperatura máxima	22.9
18067	7	Sololá	712	San Antonio Palopó	9	San Antonio Palopo	11	Noviembre	2023-09-11T00:00:00	2024-11-08T12:00:00	3	Temperatura mínima	21.7
18068	7	Sololá	712	San Antonio Palopó	9	San Antonio Palopo	11	Noviembre	2023-09-11T00:00:00	2024-11-08T12:00:00	5	Humedad	73
18069	7	Sololá	712	San Antonio Palopó	9	San Antonio Palopo	11	Noviembre	2023-09-11T00:00:00	2024-11-08T12:00:00	6	Velocidad del viento	3.2
18070	7	Sololá	712	San Antonio Palopó	9	San Antonio Palopo	11	Noviembre	2023-09-11T00:00:00	2024-11-08T12:00:00	7	Dirección del viento	3.22
18071	7	Sololá	712	San Antonio Palopó	9	San Antonio Palopo	11	Noviembre	2023-09-11T00:00:00	2024-11-08T12:00:00	1	Precipitación	0
18072	7	Sololá	712	San Antonio Palopó	9	San Antonio Palopo	11	Noviembre	2023-09-11T00:00:00	2024-11-08T12:00:00	8	Radiación solar	422
18073	7	Sololá	712	San Antonio Palopó	9	San Antonio Palopo	11	Noviembre	2023-09-11T00:00:00	2024-11-08T13:00:00	2	Temperatura media	23.9
18074	7	Sololá	712	San Antonio Palopó	9	San Antonio Palopo	11	Noviembre	2023-09-11T00:00:00	2024-11-08T13:00:00	4	Temperatura máxima	23.9
18075	7	Sololá	712	San Antonio Palopó	9	San Antonio Palopo	11	Noviembre	2023-09-11T00:00:00	2024-11-08T13:00:00	3	Temperatura mínima	22.8
18076	7	Sololá	712	San Antonio Palopó	9	San Antonio Palopo	11	Noviembre	2023-09-11T00:00:00	2024-11-08T13:00:00	5	Humedad	73
18077	7	Sololá	712	San Antonio Palopó	9	San Antonio Palopo	11	Noviembre	2023-09-11T00:00:00	2024-11-08T13:00:00	6	Velocidad del viento	3.2
18078	7	Sololá	712	San Antonio Palopó	9	San Antonio Palopo	11	Noviembre	2023-09-11T00:00:00	2024-11-08T13:00:00	7	Dirección del viento	3.22
18079	7	Sololá	712	San Antonio Palopó	9	San Antonio Palopo	11	Noviembre	2023-09-11T00:00:00	2024-11-08T13:00:00	1	Precipitación	0
18080	7	Sololá	712	San Antonio Palopó	9	San Antonio Palopo	11	Noviembre	2023-09-11T00:00:00	2024-11-08T13:00:00	8	Radiación solar	818
18081	7	Sololá	712	San Antonio Palopó	9	San Antonio Palopo	11	Noviembre	2023-09-11T00:00:00	2024-11-08T14:00:00	2	Temperatura media	24.8
18082	7	Sololá	712	San Antonio Palopó	9	San Antonio Palopo	11	Noviembre	2023-09-11T00:00:00	2024-11-08T14:00:00	4	Temperatura máxima	24.8
18083	7	Sololá	712	San Antonio Palopó	9	San Antonio Palopo	11	Noviembre	2023-09-11T00:00:00	2024-11-08T14:00:00	3	Temperatura mínima	23.9
18084	7	Sololá	712	San Antonio Palopó	9	San Antonio Palopo	11	Noviembre	2023-09-11T00:00:00	2024-11-08T14:00:00	5	Humedad	70
18085	7	Sololá	712	San Antonio Palopó	9	San Antonio Palopo	11	Noviembre	2023-09-11T00:00:00	2024-11-08T14:00:00	6	Velocidad del viento	6.4
18086	7	Sololá	712	San Antonio Palopó	9	San Antonio Palopo	11	Noviembre	2023-09-11T00:00:00	2024-11-08T14:00:00	7	Dirección del viento	6.44
18087	7	Sololá	712	San Antonio Palopó	9	San Antonio Palopo	11	Noviembre	2023-09-11T00:00:00	2024-11-08T14:00:00	1	Precipitación	0
18088	7	Sololá	712	San Antonio Palopó	9	San Antonio Palopo	11	Noviembre	2023-09-11T00:00:00	2024-11-08T14:00:00	8	Radiación solar	776
18089	7	Sololá	712	San Antonio Palopó	9	San Antonio Palopo	11	Noviembre	2023-09-11T00:00:00	2024-11-08T15:00:00	2	Temperatura media	24.8
18090	7	Sololá	712	San Antonio Palopó	9	San Antonio Palopo	11	Noviembre	2023-09-11T00:00:00	2024-11-08T15:00:00	4	Temperatura máxima	25.7
18091	7	Sololá	712	San Antonio Palopó	9	San Antonio Palopo	11	Noviembre	2023-09-11T00:00:00	2024-11-08T15:00:00	3	Temperatura mínima	24.8
18092	7	Sololá	712	San Antonio Palopó	9	San Antonio Palopo	11	Noviembre	2023-09-11T00:00:00	2024-11-08T15:00:00	5	Humedad	71
18093	7	Sololá	712	San Antonio Palopó	9	San Antonio Palopo	11	Noviembre	2023-09-11T00:00:00	2024-11-08T15:00:00	6	Velocidad del viento	8
18094	7	Sololá	712	San Antonio Palopó	9	San Antonio Palopo	11	Noviembre	2023-09-11T00:00:00	2024-11-08T15:00:00	7	Dirección del viento	8.05
18095	7	Sololá	712	San Antonio Palopó	9	San Antonio Palopo	11	Noviembre	2023-09-11T00:00:00	2024-11-08T15:00:00	1	Precipitación	0
18096	7	Sololá	712	San Antonio Palopó	9	San Antonio Palopo	11	Noviembre	2023-09-11T00:00:00	2024-11-08T15:00:00	8	Radiación solar	642
18097	7	Sololá	712	San Antonio Palopó	9	San Antonio Palopo	11	Noviembre	2023-09-11T00:00:00	2024-11-08T16:00:00	2	Temperatura media	24.7
18098	7	Sololá	712	San Antonio Palopó	9	San Antonio Palopo	11	Noviembre	2023-09-11T00:00:00	2024-11-08T16:00:00	4	Temperatura máxima	25.6
18099	7	Sololá	712	San Antonio Palopó	9	San Antonio Palopo	11	Noviembre	2023-09-11T00:00:00	2024-11-08T16:00:00	3	Temperatura mínima	24.7
18100	7	Sololá	712	San Antonio Palopó	9	San Antonio Palopo	11	Noviembre	2023-09-11T00:00:00	2024-11-08T16:00:00	5	Humedad	73
18101	7	Sololá	712	San Antonio Palopó	9	San Antonio Palopo	11	Noviembre	2023-09-11T00:00:00	2024-11-08T16:00:00	6	Velocidad del viento	6.4
18102	7	Sololá	712	San Antonio Palopó	9	San Antonio Palopo	11	Noviembre	2023-09-11T00:00:00	2024-11-08T16:00:00	7	Dirección del viento	6.44
18103	7	Sololá	712	San Antonio Palopó	9	San Antonio Palopo	11	Noviembre	2023-09-11T00:00:00	2024-11-08T16:00:00	1	Precipitación	0
18104	7	Sololá	712	San Antonio Palopó	9	San Antonio Palopo	11	Noviembre	2023-09-11T00:00:00	2024-11-08T16:00:00	8	Radiación solar	425
18105	7	Sololá	712	San Antonio Palopó	9	San Antonio Palopo	11	Noviembre	2023-09-11T00:00:00	2024-11-08T17:00:00	2	Temperatura media	22.4
18106	7	Sololá	712	San Antonio Palopó	9	San Antonio Palopo	11	Noviembre	2023-09-11T00:00:00	2024-11-08T17:00:00	4	Temperatura máxima	24.7
18107	7	Sololá	712	San Antonio Palopó	9	San Antonio Palopo	11	Noviembre	2023-09-11T00:00:00	2024-11-08T17:00:00	3	Temperatura mínima	22.4
18108	7	Sololá	712	San Antonio Palopó	9	San Antonio Palopo	11	Noviembre	2023-09-11T00:00:00	2024-11-08T17:00:00	5	Humedad	77
18109	7	Sololá	712	San Antonio Palopó	9	San Antonio Palopo	11	Noviembre	2023-09-11T00:00:00	2024-11-08T17:00:00	6	Velocidad del viento	4.8
18110	7	Sololá	712	San Antonio Palopó	9	San Antonio Palopo	11	Noviembre	2023-09-11T00:00:00	2024-11-08T17:00:00	7	Dirección del viento	4.83
18111	7	Sololá	712	San Antonio Palopó	9	San Antonio Palopo	11	Noviembre	2023-09-11T00:00:00	2024-11-08T17:00:00	1	Precipitación	0
18112	7	Sololá	712	San Antonio Palopó	9	San Antonio Palopo	11	Noviembre	2023-09-11T00:00:00	2024-11-08T17:00:00	8	Radiación solar	106
18113	7	Sololá	712	San Antonio Palopó	9	San Antonio Palopo	11	Noviembre	2023-09-11T00:00:00	2024-11-08T18:00:00	2	Temperatura media	21.8
18114	7	Sololá	712	San Antonio Palopó	9	San Antonio Palopo	11	Noviembre	2023-09-11T00:00:00	2024-11-08T18:00:00	4	Temperatura máxima	22.4
18115	7	Sololá	712	San Antonio Palopó	9	San Antonio Palopo	11	Noviembre	2023-09-11T00:00:00	2024-11-08T18:00:00	3	Temperatura mínima	21.7
18116	7	Sololá	712	San Antonio Palopó	9	San Antonio Palopo	11	Noviembre	2023-09-11T00:00:00	2024-11-08T18:00:00	5	Humedad	80
18117	7	Sololá	712	San Antonio Palopó	9	San Antonio Palopo	11	Noviembre	2023-09-11T00:00:00	2024-11-08T18:00:00	6	Velocidad del viento	1.6
18118	7	Sololá	712	San Antonio Palopó	9	San Antonio Palopo	11	Noviembre	2023-09-11T00:00:00	2024-11-08T18:00:00	7	Dirección del viento	1.61
18119	7	Sololá	712	San Antonio Palopó	9	San Antonio Palopo	11	Noviembre	2023-09-11T00:00:00	2024-11-08T18:00:00	1	Precipitación	0
18120	7	Sololá	712	San Antonio Palopó	9	San Antonio Palopo	11	Noviembre	2023-09-11T00:00:00	2024-11-08T18:00:00	8	Radiación solar	8
18121	7	Sololá	712	San Antonio Palopó	9	San Antonio Palopo	11	Noviembre	2023-09-11T00:00:00	2024-11-08T19:00:00	2	Temperatura media	20.7
18122	7	Sololá	712	San Antonio Palopó	9	San Antonio Palopo	11	Noviembre	2023-09-11T00:00:00	2024-11-08T19:00:00	4	Temperatura máxima	21.8
18123	7	Sololá	712	San Antonio Palopó	9	San Antonio Palopo	11	Noviembre	2023-09-11T00:00:00	2024-11-08T19:00:00	3	Temperatura mínima	20.7
18124	7	Sololá	712	San Antonio Palopó	9	San Antonio Palopo	11	Noviembre	2023-09-11T00:00:00	2024-11-08T19:00:00	5	Humedad	76
18125	7	Sololá	712	San Antonio Palopó	9	San Antonio Palopo	11	Noviembre	2023-09-11T00:00:00	2024-11-08T19:00:00	6	Velocidad del viento	3.2
18126	7	Sololá	712	San Antonio Palopó	9	San Antonio Palopo	11	Noviembre	2023-09-11T00:00:00	2024-11-08T19:00:00	7	Dirección del viento	3.22
18127	7	Sololá	712	San Antonio Palopó	9	San Antonio Palopo	11	Noviembre	2023-09-11T00:00:00	2024-11-08T19:00:00	1	Precipitación	0
18128	7	Sololá	712	San Antonio Palopó	9	San Antonio Palopo	11	Noviembre	2023-09-11T00:00:00	2024-11-08T19:00:00	8	Radiación solar	0
18129	7	Sololá	712	San Antonio Palopó	9	San Antonio Palopo	11	Noviembre	2023-09-11T00:00:00	2024-11-08T20:00:00	2	Temperatura media	20.2
18130	7	Sololá	712	San Antonio Palopó	9	San Antonio Palopo	11	Noviembre	2023-09-11T00:00:00	2024-11-08T20:00:00	4	Temperatura máxima	20.7
18131	7	Sololá	712	San Antonio Palopó	9	San Antonio Palopo	11	Noviembre	2023-09-11T00:00:00	2024-11-08T20:00:00	3	Temperatura mínima	20.2
18132	7	Sololá	712	San Antonio Palopó	9	San Antonio Palopo	11	Noviembre	2023-09-11T00:00:00	2024-11-08T20:00:00	5	Humedad	74
18133	7	Sololá	712	San Antonio Palopó	9	San Antonio Palopo	11	Noviembre	2023-09-11T00:00:00	2024-11-08T20:00:00	6	Velocidad del viento	3.2
18134	7	Sololá	712	San Antonio Palopó	9	San Antonio Palopo	11	Noviembre	2023-09-11T00:00:00	2024-11-08T20:00:00	7	Dirección del viento	3.22
18135	7	Sololá	712	San Antonio Palopó	9	San Antonio Palopo	11	Noviembre	2023-09-11T00:00:00	2024-11-08T20:00:00	1	Precipitación	0
18136	7	Sololá	712	San Antonio Palopó	9	San Antonio Palopo	11	Noviembre	2023-09-11T00:00:00	2024-11-08T20:00:00	8	Radiación solar	0
18137	7	Sololá	712	San Antonio Palopó	9	San Antonio Palopo	11	Noviembre	2023-09-11T00:00:00	2024-11-08T21:00:00	2	Temperatura media	19.8
18138	7	Sololá	712	San Antonio Palopó	9	San Antonio Palopo	11	Noviembre	2023-09-11T00:00:00	2024-11-08T21:00:00	4	Temperatura máxima	20.2
18139	7	Sololá	712	San Antonio Palopó	9	San Antonio Palopo	11	Noviembre	2023-09-11T00:00:00	2024-11-08T21:00:00	3	Temperatura mínima	19.8
18140	7	Sololá	712	San Antonio Palopó	9	San Antonio Palopo	11	Noviembre	2023-09-11T00:00:00	2024-11-08T21:00:00	5	Humedad	73
18141	7	Sololá	712	San Antonio Palopó	9	San Antonio Palopo	11	Noviembre	2023-09-11T00:00:00	2024-11-08T21:00:00	6	Velocidad del viento	6.4
18142	7	Sololá	712	San Antonio Palopó	9	San Antonio Palopo	11	Noviembre	2023-09-11T00:00:00	2024-11-08T21:00:00	7	Dirección del viento	6.44
18143	7	Sololá	712	San Antonio Palopó	9	San Antonio Palopo	11	Noviembre	2023-09-11T00:00:00	2024-11-08T21:00:00	1	Precipitación	0
18144	7	Sololá	712	San Antonio Palopó	9	San Antonio Palopo	11	Noviembre	2023-09-11T00:00:00	2024-11-08T21:00:00	8	Radiación solar	0
18145	7	Sololá	712	San Antonio Palopó	9	San Antonio Palopo	11	Noviembre	2023-09-11T00:00:00	2024-11-08T22:00:00	2	Temperatura media	18.9
18146	7	Sololá	712	San Antonio Palopó	9	San Antonio Palopo	11	Noviembre	2023-09-11T00:00:00	2024-11-08T22:00:00	4	Temperatura máxima	19.8
18147	7	Sololá	712	San Antonio Palopó	9	San Antonio Palopo	11	Noviembre	2023-09-11T00:00:00	2024-11-08T22:00:00	3	Temperatura mínima	18.9
18148	7	Sololá	712	San Antonio Palopó	9	San Antonio Palopo	11	Noviembre	2023-09-11T00:00:00	2024-11-08T22:00:00	5	Humedad	74
18149	7	Sololá	712	San Antonio Palopó	9	San Antonio Palopo	11	Noviembre	2023-09-11T00:00:00	2024-11-08T22:00:00	6	Velocidad del viento	9.7
18150	7	Sololá	712	San Antonio Palopó	9	San Antonio Palopo	11	Noviembre	2023-09-11T00:00:00	2024-11-08T22:00:00	7	Dirección del viento	9.66
18151	7	Sololá	712	San Antonio Palopó	9	San Antonio Palopo	11	Noviembre	2023-09-11T00:00:00	2024-11-08T22:00:00	1	Precipitación	0
18152	7	Sololá	712	San Antonio Palopó	9	San Antonio Palopo	11	Noviembre	2023-09-11T00:00:00	2024-11-08T22:00:00	8	Radiación solar	0
18153	7	Sololá	712	San Antonio Palopó	9	San Antonio Palopo	11	Noviembre	2023-09-11T00:00:00	2024-11-08T23:00:00	2	Temperatura media	18.4
18154	7	Sololá	712	San Antonio Palopó	9	San Antonio Palopo	11	Noviembre	2023-09-11T00:00:00	2024-11-08T23:00:00	4	Temperatura máxima	18.9
18155	7	Sololá	712	San Antonio Palopó	9	San Antonio Palopo	11	Noviembre	2023-09-11T00:00:00	2024-11-08T23:00:00	3	Temperatura mínima	18.4
18156	7	Sololá	712	San Antonio Palopó	9	San Antonio Palopo	11	Noviembre	2023-09-11T00:00:00	2024-11-08T23:00:00	5	Humedad	74
18157	7	Sololá	712	San Antonio Palopó	9	San Antonio Palopo	11	Noviembre	2023-09-11T00:00:00	2024-11-08T23:00:00	6	Velocidad del viento	12.9
18158	7	Sololá	712	San Antonio Palopó	9	San Antonio Palopo	11	Noviembre	2023-09-11T00:00:00	2024-11-08T23:00:00	7	Dirección del viento	12.87
18159	7	Sololá	712	San Antonio Palopó	9	San Antonio Palopo	11	Noviembre	2023-09-11T00:00:00	2024-11-08T23:00:00	1	Precipitación	0
18160	7	Sololá	712	San Antonio Palopó	9	San Antonio Palopo	11	Noviembre	2023-09-11T00:00:00	2024-11-08T23:00:00	8	Radiación solar	0
18161	7	Sololá	712	San Antonio Palopó	9	San Antonio Palopo	11	Noviembre	2023-10-11T00:00:00	2024-11-08T00:00:00	2	Temperatura media	18
18162	7	Sololá	712	San Antonio Palopó	9	San Antonio Palopo	11	Noviembre	2023-10-11T00:00:00	2024-11-08T00:00:00	4	Temperatura máxima	18.4
18163	7	Sololá	712	San Antonio Palopó	9	San Antonio Palopo	11	Noviembre	2023-10-11T00:00:00	2024-11-08T00:00:00	3	Temperatura mínima	18
18164	7	Sololá	712	San Antonio Palopó	9	San Antonio Palopo	11	Noviembre	2023-10-11T00:00:00	2024-11-08T00:00:00	5	Humedad	74
18165	7	Sololá	712	San Antonio Palopó	9	San Antonio Palopo	11	Noviembre	2023-10-11T00:00:00	2024-11-08T00:00:00	6	Velocidad del viento	12.9
18166	7	Sololá	712	San Antonio Palopó	9	San Antonio Palopo	11	Noviembre	2023-10-11T00:00:00	2024-11-08T00:00:00	7	Dirección del viento	12.87
18167	7	Sololá	712	San Antonio Palopó	9	San Antonio Palopo	11	Noviembre	2023-10-11T00:00:00	2024-11-08T00:00:00	1	Precipitación	0
18168	7	Sololá	712	San Antonio Palopó	9	San Antonio Palopo	11	Noviembre	2023-10-11T00:00:00	2024-11-08T00:00:00	8	Radiación solar	0
18169	7	Sololá	712	San Antonio Palopó	9	San Antonio Palopo	11	Noviembre	2023-10-11T00:00:00	2024-11-08T01:00:00	2	Temperatura media	17.6
18170	7	Sololá	712	San Antonio Palopó	9	San Antonio Palopo	11	Noviembre	2023-10-11T00:00:00	2024-11-08T01:00:00	4	Temperatura máxima	18
18171	7	Sololá	712	San Antonio Palopó	9	San Antonio Palopo	11	Noviembre	2023-10-11T00:00:00	2024-11-08T01:00:00	3	Temperatura mínima	17.4
18172	7	Sololá	712	San Antonio Palopó	9	San Antonio Palopo	11	Noviembre	2023-10-11T00:00:00	2024-11-08T01:00:00	5	Humedad	74
18173	7	Sololá	712	San Antonio Palopó	9	San Antonio Palopo	11	Noviembre	2023-10-11T00:00:00	2024-11-08T01:00:00	6	Velocidad del viento	12.9
18174	7	Sololá	712	San Antonio Palopó	9	San Antonio Palopo	11	Noviembre	2023-10-11T00:00:00	2024-11-08T01:00:00	7	Dirección del viento	12.87
18175	7	Sololá	712	San Antonio Palopó	9	San Antonio Palopo	11	Noviembre	2023-10-11T00:00:00	2024-11-08T01:00:00	1	Precipitación	0
18176	7	Sololá	712	San Antonio Palopó	9	San Antonio Palopo	11	Noviembre	2023-10-11T00:00:00	2024-11-08T01:00:00	8	Radiación solar	0
18177	7	Sololá	712	San Antonio Palopó	9	San Antonio Palopo	11	Noviembre	2023-10-11T00:00:00	2024-11-08T02:00:00	2	Temperatura media	17.4
18178	7	Sololá	712	San Antonio Palopó	9	San Antonio Palopo	11	Noviembre	2023-10-11T00:00:00	2024-11-08T02:00:00	4	Temperatura máxima	17.6
18179	7	Sololá	712	San Antonio Palopó	9	San Antonio Palopo	11	Noviembre	2023-10-11T00:00:00	2024-11-08T02:00:00	3	Temperatura mínima	17.4
18180	7	Sololá	712	San Antonio Palopó	9	San Antonio Palopo	11	Noviembre	2023-10-11T00:00:00	2024-11-08T02:00:00	5	Humedad	74
18181	7	Sololá	712	San Antonio Palopó	9	San Antonio Palopo	11	Noviembre	2023-10-11T00:00:00	2024-11-08T02:00:00	6	Velocidad del viento	12.9
18182	7	Sololá	712	San Antonio Palopó	9	San Antonio Palopo	11	Noviembre	2023-10-11T00:00:00	2024-11-08T02:00:00	7	Dirección del viento	12.87
18183	7	Sololá	712	San Antonio Palopó	9	San Antonio Palopo	11	Noviembre	2023-10-11T00:00:00	2024-11-08T02:00:00	1	Precipitación	0
18184	7	Sololá	712	San Antonio Palopó	9	San Antonio Palopo	11	Noviembre	2023-10-11T00:00:00	2024-11-08T02:00:00	8	Radiación solar	0
18185	7	Sololá	712	San Antonio Palopó	9	San Antonio Palopo	11	Noviembre	2023-10-11T00:00:00	2024-11-08T03:00:00	2	Temperatura media	16.7
18186	7	Sololá	712	San Antonio Palopó	9	San Antonio Palopo	11	Noviembre	2023-10-11T00:00:00	2024-11-08T03:00:00	4	Temperatura máxima	17.4
18187	7	Sololá	712	San Antonio Palopó	9	San Antonio Palopo	11	Noviembre	2023-10-11T00:00:00	2024-11-08T03:00:00	3	Temperatura mínima	16.7
18188	7	Sololá	712	San Antonio Palopó	9	San Antonio Palopo	11	Noviembre	2023-10-11T00:00:00	2024-11-08T03:00:00	5	Humedad	75
18189	7	Sololá	712	San Antonio Palopó	9	San Antonio Palopo	11	Noviembre	2023-10-11T00:00:00	2024-11-08T03:00:00	6	Velocidad del viento	14.5
18190	7	Sololá	712	San Antonio Palopó	9	San Antonio Palopo	11	Noviembre	2023-10-11T00:00:00	2024-11-08T03:00:00	7	Dirección del viento	14.48
18191	7	Sololá	712	San Antonio Palopó	9	San Antonio Palopo	11	Noviembre	2023-10-11T00:00:00	2024-11-08T03:00:00	1	Precipitación	0
18192	7	Sololá	712	San Antonio Palopó	9	San Antonio Palopo	11	Noviembre	2023-10-11T00:00:00	2024-11-08T03:00:00	8	Radiación solar	0
18193	7	Sololá	712	San Antonio Palopó	9	San Antonio Palopo	11	Noviembre	2023-10-11T00:00:00	2024-11-08T04:00:00	2	Temperatura media	17.3
18194	7	Sololá	712	San Antonio Palopó	9	San Antonio Palopo	11	Noviembre	2023-10-11T00:00:00	2024-11-08T04:00:00	4	Temperatura máxima	17.3
18195	7	Sololá	712	San Antonio Palopó	9	San Antonio Palopo	11	Noviembre	2023-10-11T00:00:00	2024-11-08T04:00:00	3	Temperatura mínima	16.6
18196	7	Sololá	712	San Antonio Palopó	9	San Antonio Palopo	11	Noviembre	2023-10-11T00:00:00	2024-11-08T04:00:00	5	Humedad	69
18197	7	Sololá	712	San Antonio Palopó	9	San Antonio Palopo	11	Noviembre	2023-10-11T00:00:00	2024-11-08T04:00:00	6	Velocidad del viento	9.7
18198	7	Sololá	712	San Antonio Palopó	9	San Antonio Palopo	11	Noviembre	2023-10-11T00:00:00	2024-11-08T04:00:00	7	Dirección del viento	9.66
18199	7	Sololá	712	San Antonio Palopó	9	San Antonio Palopo	11	Noviembre	2023-10-11T00:00:00	2024-11-08T04:00:00	1	Precipitación	0
18200	7	Sololá	712	San Antonio Palopó	9	San Antonio Palopo	11	Noviembre	2023-10-11T00:00:00	2024-11-08T04:00:00	8	Radiación solar	0
18201	7	Sololá	712	San Antonio Palopó	9	San Antonio Palopo	11	Noviembre	2023-10-11T00:00:00	2024-11-08T05:00:00	2	Temperatura media	16.7
18202	7	Sololá	712	San Antonio Palopó	9	San Antonio Palopo	11	Noviembre	2023-10-11T00:00:00	2024-11-08T05:00:00	4	Temperatura máxima	17.3
18203	7	Sololá	712	San Antonio Palopó	9	San Antonio Palopo	11	Noviembre	2023-10-11T00:00:00	2024-11-08T05:00:00	3	Temperatura mínima	16.6
18204	7	Sololá	712	San Antonio Palopó	9	San Antonio Palopo	11	Noviembre	2023-10-11T00:00:00	2024-11-08T05:00:00	5	Humedad	70
18205	7	Sololá	712	San Antonio Palopó	9	San Antonio Palopo	11	Noviembre	2023-10-11T00:00:00	2024-11-08T05:00:00	6	Velocidad del viento	9.7
18206	7	Sololá	712	San Antonio Palopó	9	San Antonio Palopo	11	Noviembre	2023-10-11T00:00:00	2024-11-08T05:00:00	7	Dirección del viento	9.66
18207	7	Sololá	712	San Antonio Palopó	9	San Antonio Palopo	11	Noviembre	2023-10-11T00:00:00	2024-11-08T05:00:00	1	Precipitación	0
18208	7	Sololá	712	San Antonio Palopó	9	San Antonio Palopo	11	Noviembre	2023-10-11T00:00:00	2024-11-08T05:00:00	8	Radiación solar	0
18209	7	Sololá	712	San Antonio Palopó	9	San Antonio Palopo	11	Noviembre	2023-10-11T00:00:00	2024-11-08T06:00:00	2	Temperatura media	15.9
18210	7	Sololá	712	San Antonio Palopó	9	San Antonio Palopo	11	Noviembre	2023-10-11T00:00:00	2024-11-08T06:00:00	4	Temperatura máxima	16.6
18211	7	Sololá	712	San Antonio Palopó	9	San Antonio Palopo	11	Noviembre	2023-10-11T00:00:00	2024-11-08T06:00:00	3	Temperatura mínima	15.9
18212	7	Sololá	712	San Antonio Palopó	9	San Antonio Palopo	11	Noviembre	2023-10-11T00:00:00	2024-11-08T06:00:00	5	Humedad	73
18213	7	Sololá	712	San Antonio Palopó	9	San Antonio Palopo	11	Noviembre	2023-10-11T00:00:00	2024-11-08T06:00:00	6	Velocidad del viento	12.9
18214	7	Sololá	712	San Antonio Palopó	9	San Antonio Palopo	11	Noviembre	2023-10-11T00:00:00	2024-11-08T06:00:00	7	Dirección del viento	12.87
18215	7	Sololá	712	San Antonio Palopó	9	San Antonio Palopo	11	Noviembre	2023-10-11T00:00:00	2024-11-08T06:00:00	1	Precipitación	0
18216	7	Sololá	712	San Antonio Palopó	9	San Antonio Palopo	11	Noviembre	2023-10-11T00:00:00	2024-11-08T06:00:00	8	Radiación solar	0
18217	7	Sololá	712	San Antonio Palopó	9	San Antonio Palopo	11	Noviembre	2023-10-11T00:00:00	2024-11-08T07:00:00	2	Temperatura media	16.1
18218	7	Sololá	712	San Antonio Palopó	9	San Antonio Palopo	11	Noviembre	2023-10-11T00:00:00	2024-11-08T07:00:00	4	Temperatura máxima	16.3
18219	7	Sololá	712	San Antonio Palopó	9	San Antonio Palopo	11	Noviembre	2023-10-11T00:00:00	2024-11-08T07:00:00	3	Temperatura mínima	15.6
18220	7	Sololá	712	San Antonio Palopó	9	San Antonio Palopo	11	Noviembre	2023-10-11T00:00:00	2024-11-08T07:00:00	5	Humedad	71
18221	7	Sololá	712	San Antonio Palopó	9	San Antonio Palopo	11	Noviembre	2023-10-11T00:00:00	2024-11-08T07:00:00	6	Velocidad del viento	14.5
18222	7	Sololá	712	San Antonio Palopó	9	San Antonio Palopo	11	Noviembre	2023-10-11T00:00:00	2024-11-08T07:00:00	7	Dirección del viento	14.48
18223	7	Sololá	712	San Antonio Palopó	9	San Antonio Palopo	11	Noviembre	2023-10-11T00:00:00	2024-11-08T07:00:00	1	Precipitación	0
18224	7	Sololá	712	San Antonio Palopó	9	San Antonio Palopo	11	Noviembre	2023-10-11T00:00:00	2024-11-08T07:00:00	8	Radiación solar	10
18225	7	Sololá	712	San Antonio Palopó	9	San Antonio Palopo	11	Noviembre	2023-10-11T00:00:00	2024-11-08T08:00:00	2	Temperatura media	17.4
18226	7	Sololá	712	San Antonio Palopó	9	San Antonio Palopo	11	Noviembre	2023-10-11T00:00:00	2024-11-08T08:00:00	4	Temperatura máxima	17.8
18227	7	Sololá	712	San Antonio Palopó	9	San Antonio Palopo	11	Noviembre	2023-10-11T00:00:00	2024-11-08T08:00:00	3	Temperatura mínima	16.1
18228	7	Sololá	712	San Antonio Palopó	9	San Antonio Palopo	11	Noviembre	2023-10-11T00:00:00	2024-11-08T08:00:00	5	Humedad	71
18229	7	Sololá	712	San Antonio Palopó	9	San Antonio Palopo	11	Noviembre	2023-10-11T00:00:00	2024-11-08T08:00:00	6	Velocidad del viento	9.7
18230	7	Sololá	712	San Antonio Palopó	9	San Antonio Palopo	11	Noviembre	2023-10-11T00:00:00	2024-11-08T08:00:00	7	Dirección del viento	9.66
18231	7	Sololá	712	San Antonio Palopó	9	San Antonio Palopo	11	Noviembre	2023-10-11T00:00:00	2024-11-08T08:00:00	1	Precipitación	0
18232	7	Sololá	712	San Antonio Palopó	9	San Antonio Palopo	11	Noviembre	2023-10-11T00:00:00	2024-11-08T08:00:00	8	Radiación solar	20
18233	7	Sololá	712	San Antonio Palopó	9	San Antonio Palopo	11	Noviembre	2023-10-11T00:00:00	2024-11-08T09:00:00	2	Temperatura media	20.2
18234	7	Sololá	712	San Antonio Palopó	9	San Antonio Palopo	11	Noviembre	2023-10-11T00:00:00	2024-11-08T09:00:00	4	Temperatura máxima	20.2
18235	7	Sololá	712	San Antonio Palopó	9	San Antonio Palopo	11	Noviembre	2023-10-11T00:00:00	2024-11-08T09:00:00	3	Temperatura mínima	17.2
18236	7	Sololá	712	San Antonio Palopó	9	San Antonio Palopo	11	Noviembre	2023-10-11T00:00:00	2024-11-08T09:00:00	5	Humedad	63
18237	7	Sololá	712	San Antonio Palopó	9	San Antonio Palopo	11	Noviembre	2023-10-11T00:00:00	2024-11-08T09:00:00	6	Velocidad del viento	3.2
18238	7	Sololá	712	San Antonio Palopó	9	San Antonio Palopo	11	Noviembre	2023-10-11T00:00:00	2024-11-08T09:00:00	7	Dirección del viento	3.22
18239	7	Sololá	712	San Antonio Palopó	9	San Antonio Palopo	11	Noviembre	2023-10-11T00:00:00	2024-11-08T09:00:00	1	Precipitación	0
18240	7	Sololá	712	San Antonio Palopó	9	San Antonio Palopo	11	Noviembre	2023-10-11T00:00:00	2024-11-08T09:00:00	8	Radiación solar	433
18241	7	Sololá	712	San Antonio Palopó	9	San Antonio Palopo	11	Noviembre	2023-10-11T00:00:00	2024-11-08T10:00:00	2	Temperatura media	20.3
18242	7	Sololá	712	San Antonio Palopó	9	San Antonio Palopo	11	Noviembre	2023-10-11T00:00:00	2024-11-08T10:00:00	4	Temperatura máxima	20.5
18243	7	Sololá	712	San Antonio Palopó	9	San Antonio Palopo	11	Noviembre	2023-10-11T00:00:00	2024-11-08T10:00:00	3	Temperatura mínima	19.9
18244	7	Sololá	712	San Antonio Palopó	9	San Antonio Palopo	11	Noviembre	2023-10-11T00:00:00	2024-11-08T10:00:00	5	Humedad	65
18245	7	Sololá	712	San Antonio Palopó	9	San Antonio Palopo	11	Noviembre	2023-10-11T00:00:00	2024-11-08T10:00:00	6	Velocidad del viento	3.2
18246	7	Sololá	712	San Antonio Palopó	9	San Antonio Palopo	11	Noviembre	2023-10-11T00:00:00	2024-11-08T10:00:00	7	Dirección del viento	3.22
18247	7	Sololá	712	San Antonio Palopó	9	San Antonio Palopo	11	Noviembre	2023-10-11T00:00:00	2024-11-08T10:00:00	1	Precipitación	0
18248	7	Sololá	712	San Antonio Palopó	9	San Antonio Palopo	11	Noviembre	2023-10-11T00:00:00	2024-11-08T10:00:00	8	Radiación solar	652
18249	7	Sololá	712	San Antonio Palopó	9	San Antonio Palopo	11	Noviembre	2023-10-11T00:00:00	2024-11-08T11:00:00	2	Temperatura media	21.7
18250	7	Sololá	712	San Antonio Palopó	9	San Antonio Palopo	11	Noviembre	2023-10-11T00:00:00	2024-11-08T11:00:00	4	Temperatura máxima	21.7
18251	7	Sololá	712	San Antonio Palopó	9	San Antonio Palopo	11	Noviembre	2023-10-11T00:00:00	2024-11-08T11:00:00	3	Temperatura mínima	20.3
18252	7	Sololá	712	San Antonio Palopó	9	San Antonio Palopo	11	Noviembre	2023-10-11T00:00:00	2024-11-08T11:00:00	5	Humedad	56
18253	7	Sololá	712	San Antonio Palopó	9	San Antonio Palopo	11	Noviembre	2023-10-11T00:00:00	2024-11-08T11:00:00	6	Velocidad del viento	1.6
18254	7	Sololá	712	San Antonio Palopó	9	San Antonio Palopo	11	Noviembre	2023-10-11T00:00:00	2024-11-08T11:00:00	7	Dirección del viento	1.61
18255	7	Sololá	712	San Antonio Palopó	9	San Antonio Palopo	11	Noviembre	2023-10-11T00:00:00	2024-11-08T11:00:00	1	Precipitación	0
18256	7	Sololá	712	San Antonio Palopó	9	San Antonio Palopo	11	Noviembre	2023-10-11T00:00:00	2024-11-08T11:00:00	8	Radiación solar	752
18257	7	Sololá	712	San Antonio Palopó	9	San Antonio Palopo	11	Noviembre	2023-10-11T00:00:00	2024-11-08T12:00:00	2	Temperatura media	23.1
18258	7	Sololá	712	San Antonio Palopó	9	San Antonio Palopo	11	Noviembre	2023-10-11T00:00:00	2024-11-08T12:00:00	4	Temperatura máxima	23.1
18259	7	Sololá	712	San Antonio Palopó	9	San Antonio Palopo	11	Noviembre	2023-10-11T00:00:00	2024-11-08T12:00:00	3	Temperatura mínima	21.7
18260	7	Sololá	712	San Antonio Palopó	9	San Antonio Palopo	11	Noviembre	2023-10-11T00:00:00	2024-11-08T12:00:00	5	Humedad	56
18261	7	Sololá	712	San Antonio Palopó	9	San Antonio Palopo	11	Noviembre	2023-10-11T00:00:00	2024-11-08T12:00:00	6	Velocidad del viento	3.2
18262	7	Sololá	712	San Antonio Palopó	9	San Antonio Palopo	11	Noviembre	2023-10-11T00:00:00	2024-11-08T12:00:00	7	Dirección del viento	3.22
18263	7	Sololá	712	San Antonio Palopó	9	San Antonio Palopo	11	Noviembre	2023-10-11T00:00:00	2024-11-08T12:00:00	1	Precipitación	0
18264	7	Sololá	712	San Antonio Palopó	9	San Antonio Palopo	11	Noviembre	2023-10-11T00:00:00	2024-11-08T12:00:00	8	Radiación solar	723
18265	7	Sololá	712	San Antonio Palopó	9	San Antonio Palopo	11	Noviembre	2023-10-11T00:00:00	2024-11-08T13:00:00	2	Temperatura media	25.1
18266	7	Sololá	712	San Antonio Palopó	9	San Antonio Palopo	11	Noviembre	2023-10-11T00:00:00	2024-11-08T13:00:00	4	Temperatura máxima	25.1
18267	7	Sololá	712	San Antonio Palopó	9	San Antonio Palopo	11	Noviembre	2023-10-11T00:00:00	2024-11-08T13:00:00	3	Temperatura mínima	23
18268	7	Sololá	712	San Antonio Palopó	9	San Antonio Palopo	11	Noviembre	2023-10-11T00:00:00	2024-11-08T13:00:00	5	Humedad	69
18269	7	Sololá	712	San Antonio Palopó	9	San Antonio Palopo	11	Noviembre	2023-10-11T00:00:00	2024-11-08T13:00:00	6	Velocidad del viento	4.8
18270	7	Sololá	712	San Antonio Palopó	9	San Antonio Palopo	11	Noviembre	2023-10-11T00:00:00	2024-11-08T13:00:00	7	Dirección del viento	4.83
18271	7	Sololá	712	San Antonio Palopó	9	San Antonio Palopo	11	Noviembre	2023-10-11T00:00:00	2024-11-08T13:00:00	1	Precipitación	0
18272	7	Sololá	712	San Antonio Palopó	9	San Antonio Palopo	11	Noviembre	2023-10-11T00:00:00	2024-11-08T13:00:00	8	Radiación solar	788
18273	7	Sololá	712	San Antonio Palopó	9	San Antonio Palopo	11	Noviembre	2023-10-11T00:00:00	2024-11-08T14:00:00	2	Temperatura media	24.6
18274	7	Sololá	712	San Antonio Palopó	9	San Antonio Palopo	11	Noviembre	2023-10-11T00:00:00	2024-11-08T14:00:00	4	Temperatura máxima	25.4
18275	7	Sololá	712	San Antonio Palopó	9	San Antonio Palopo	11	Noviembre	2023-10-11T00:00:00	2024-11-08T14:00:00	3	Temperatura mínima	23.9
18276	7	Sololá	712	San Antonio Palopó	9	San Antonio Palopo	11	Noviembre	2023-10-11T00:00:00	2024-11-08T14:00:00	5	Humedad	68
18277	7	Sololá	712	San Antonio Palopó	9	San Antonio Palopo	11	Noviembre	2023-10-11T00:00:00	2024-11-08T14:00:00	6	Velocidad del viento	4.8
18278	7	Sololá	712	San Antonio Palopó	9	San Antonio Palopo	11	Noviembre	2023-10-11T00:00:00	2024-11-08T14:00:00	7	Dirección del viento	4.83
18279	7	Sololá	712	San Antonio Palopó	9	San Antonio Palopo	11	Noviembre	2023-10-11T00:00:00	2024-11-08T14:00:00	1	Precipitación	0
18280	7	Sololá	712	San Antonio Palopó	9	San Antonio Palopo	11	Noviembre	2023-10-11T00:00:00	2024-11-08T14:00:00	8	Radiación solar	688
18281	7	Sololá	712	San Antonio Palopó	9	San Antonio Palopo	11	Noviembre	2023-10-11T00:00:00	2024-11-08T15:00:00	2	Temperatura media	24.7
18282	7	Sololá	712	San Antonio Palopó	9	San Antonio Palopo	11	Noviembre	2023-10-11T00:00:00	2024-11-08T15:00:00	4	Temperatura máxima	25.6
18283	7	Sololá	712	San Antonio Palopó	9	San Antonio Palopo	11	Noviembre	2023-10-11T00:00:00	2024-11-08T15:00:00	3	Temperatura mínima	24.6
18284	7	Sololá	712	San Antonio Palopó	9	San Antonio Palopo	11	Noviembre	2023-10-11T00:00:00	2024-11-08T15:00:00	5	Humedad	72
18285	7	Sololá	712	San Antonio Palopó	9	San Antonio Palopo	11	Noviembre	2023-10-11T00:00:00	2024-11-08T15:00:00	6	Velocidad del viento	6.4
18286	7	Sololá	712	San Antonio Palopó	9	San Antonio Palopo	11	Noviembre	2023-10-11T00:00:00	2024-11-08T15:00:00	7	Dirección del viento	6.44
18287	7	Sololá	712	San Antonio Palopó	9	San Antonio Palopo	11	Noviembre	2023-10-11T00:00:00	2024-11-08T15:00:00	1	Precipitación	0
18288	7	Sololá	712	San Antonio Palopó	9	San Antonio Palopo	11	Noviembre	2023-10-11T00:00:00	2024-11-08T15:00:00	8	Radiación solar	560
18289	7	Sololá	712	San Antonio Palopó	9	San Antonio Palopo	11	Noviembre	2023-10-11T00:00:00	2024-11-08T16:00:00	2	Temperatura media	25.1
18290	7	Sololá	712	San Antonio Palopó	9	San Antonio Palopo	11	Noviembre	2023-10-11T00:00:00	2024-11-08T16:00:00	4	Temperatura máxima	25.7
18291	7	Sololá	712	San Antonio Palopó	9	San Antonio Palopo	11	Noviembre	2023-10-11T00:00:00	2024-11-08T16:00:00	3	Temperatura mínima	24.7
18292	7	Sololá	712	San Antonio Palopó	9	San Antonio Palopo	11	Noviembre	2023-10-11T00:00:00	2024-11-08T16:00:00	5	Humedad	72
18293	7	Sololá	712	San Antonio Palopó	9	San Antonio Palopo	11	Noviembre	2023-10-11T00:00:00	2024-11-08T16:00:00	6	Velocidad del viento	6.4
18294	7	Sololá	712	San Antonio Palopó	9	San Antonio Palopo	11	Noviembre	2023-10-11T00:00:00	2024-11-08T16:00:00	7	Dirección del viento	6.44
18295	7	Sololá	712	San Antonio Palopó	9	San Antonio Palopo	11	Noviembre	2023-10-11T00:00:00	2024-11-08T16:00:00	1	Precipitación	0
18296	7	Sololá	712	San Antonio Palopó	9	San Antonio Palopo	11	Noviembre	2023-10-11T00:00:00	2024-11-08T16:00:00	8	Radiación solar	392
18297	7	Sololá	712	San Antonio Palopó	9	San Antonio Palopo	11	Noviembre	2023-10-11T00:00:00	2024-11-08T17:00:00	2	Temperatura media	24.3
18298	7	Sololá	712	San Antonio Palopó	9	San Antonio Palopo	11	Noviembre	2023-10-11T00:00:00	2024-11-08T17:00:00	4	Temperatura máxima	25.1
18299	7	Sololá	712	San Antonio Palopó	9	San Antonio Palopo	11	Noviembre	2023-10-11T00:00:00	2024-11-08T17:00:00	3	Temperatura mínima	24.2
18300	7	Sololá	712	San Antonio Palopó	9	San Antonio Palopo	11	Noviembre	2023-10-11T00:00:00	2024-11-08T17:00:00	5	Humedad	72
18301	7	Sololá	712	San Antonio Palopó	9	San Antonio Palopo	11	Noviembre	2023-10-11T00:00:00	2024-11-08T17:00:00	6	Velocidad del viento	6.4
18302	7	Sololá	712	San Antonio Palopó	9	San Antonio Palopo	11	Noviembre	2023-10-11T00:00:00	2024-11-08T17:00:00	7	Dirección del viento	6.44
18303	7	Sololá	712	San Antonio Palopó	9	San Antonio Palopo	11	Noviembre	2023-10-11T00:00:00	2024-11-08T17:00:00	1	Precipitación	0
18304	7	Sololá	712	San Antonio Palopó	9	San Antonio Palopo	11	Noviembre	2023-10-11T00:00:00	2024-11-08T17:00:00	8	Radiación solar	161
18305	7	Sololá	712	San Antonio Palopó	9	San Antonio Palopo	11	Noviembre	2023-10-11T00:00:00	2024-11-08T18:00:00	2	Temperatura media	21.7
18306	7	Sololá	712	San Antonio Palopó	9	San Antonio Palopo	11	Noviembre	2023-10-11T00:00:00	2024-11-08T18:00:00	4	Temperatura máxima	24.3
18307	7	Sololá	712	San Antonio Palopó	9	San Antonio Palopo	11	Noviembre	2023-10-11T00:00:00	2024-11-08T18:00:00	3	Temperatura mínima	21.7
18308	7	Sololá	712	San Antonio Palopó	9	San Antonio Palopo	11	Noviembre	2023-10-11T00:00:00	2024-11-08T18:00:00	5	Humedad	70
18309	7	Sololá	712	San Antonio Palopó	9	San Antonio Palopo	11	Noviembre	2023-10-11T00:00:00	2024-11-08T18:00:00	6	Velocidad del viento	3.2
18310	7	Sololá	712	San Antonio Palopó	9	San Antonio Palopo	11	Noviembre	2023-10-11T00:00:00	2024-11-08T18:00:00	7	Dirección del viento	3.22
18311	7	Sololá	712	San Antonio Palopó	9	San Antonio Palopo	11	Noviembre	2023-10-11T00:00:00	2024-11-08T18:00:00	1	Precipitación	0
18312	7	Sololá	712	San Antonio Palopó	9	San Antonio Palopo	11	Noviembre	2023-10-11T00:00:00	2024-11-08T18:00:00	8	Radiación solar	10
18313	7	Sololá	712	San Antonio Palopó	9	San Antonio Palopo	11	Noviembre	2023-10-11T00:00:00	2024-11-08T19:00:00	2	Temperatura media	21.9
18314	7	Sololá	712	San Antonio Palopó	9	San Antonio Palopo	11	Noviembre	2023-10-11T00:00:00	2024-11-08T19:00:00	4	Temperatura máxima	21.9
18315	7	Sololá	712	San Antonio Palopó	9	San Antonio Palopo	11	Noviembre	2023-10-11T00:00:00	2024-11-08T19:00:00	3	Temperatura mínima	21.2
18316	7	Sololá	712	San Antonio Palopó	9	San Antonio Palopo	11	Noviembre	2023-10-11T00:00:00	2024-11-08T19:00:00	5	Humedad	68
18317	7	Sololá	712	San Antonio Palopó	9	San Antonio Palopo	11	Noviembre	2023-10-11T00:00:00	2024-11-08T19:00:00	6	Velocidad del viento	3.2
18318	7	Sololá	712	San Antonio Palopó	9	San Antonio Palopo	11	Noviembre	2023-10-11T00:00:00	2024-11-08T19:00:00	7	Dirección del viento	3.22
18319	7	Sololá	712	San Antonio Palopó	9	San Antonio Palopo	11	Noviembre	2023-10-11T00:00:00	2024-11-08T19:00:00	1	Precipitación	0
18320	7	Sololá	712	San Antonio Palopó	9	San Antonio Palopo	11	Noviembre	2023-10-11T00:00:00	2024-11-08T19:00:00	8	Radiación solar	0
18321	7	Sololá	712	San Antonio Palopó	9	San Antonio Palopo	11	Noviembre	2023-10-11T00:00:00	2024-11-08T20:00:00	2	Temperatura media	20.8
18322	7	Sololá	712	San Antonio Palopó	9	San Antonio Palopo	11	Noviembre	2023-10-11T00:00:00	2024-11-08T20:00:00	4	Temperatura máxima	22
18323	7	Sololá	712	San Antonio Palopó	9	San Antonio Palopo	11	Noviembre	2023-10-11T00:00:00	2024-11-08T20:00:00	3	Temperatura mínima	20.8
18324	7	Sololá	712	San Antonio Palopó	9	San Antonio Palopo	11	Noviembre	2023-10-11T00:00:00	2024-11-08T20:00:00	5	Humedad	72
18325	7	Sololá	712	San Antonio Palopó	9	San Antonio Palopo	11	Noviembre	2023-10-11T00:00:00	2024-11-08T20:00:00	6	Velocidad del viento	6.4
18326	7	Sololá	712	San Antonio Palopó	9	San Antonio Palopo	11	Noviembre	2023-10-11T00:00:00	2024-11-08T20:00:00	7	Dirección del viento	6.44
18327	7	Sololá	712	San Antonio Palopó	9	San Antonio Palopo	11	Noviembre	2023-10-11T00:00:00	2024-11-08T20:00:00	1	Precipitación	0
18328	7	Sololá	712	San Antonio Palopó	9	San Antonio Palopo	11	Noviembre	2023-10-11T00:00:00	2024-11-08T20:00:00	8	Radiación solar	0
18329	7	Sololá	712	San Antonio Palopó	9	San Antonio Palopo	11	Noviembre	2023-10-11T00:00:00	2024-11-08T21:00:00	2	Temperatura media	20.9
18330	7	Sololá	712	San Antonio Palopó	9	San Antonio Palopo	11	Noviembre	2023-10-11T00:00:00	2024-11-08T21:00:00	4	Temperatura máxima	21
18331	7	Sololá	712	San Antonio Palopó	9	San Antonio Palopo	11	Noviembre	2023-10-11T00:00:00	2024-11-08T21:00:00	3	Temperatura mínima	20.7
18332	7	Sololá	712	San Antonio Palopó	9	San Antonio Palopo	11	Noviembre	2023-10-11T00:00:00	2024-11-08T21:00:00	5	Humedad	71
18333	7	Sololá	712	San Antonio Palopó	9	San Antonio Palopo	11	Noviembre	2023-10-11T00:00:00	2024-11-08T21:00:00	6	Velocidad del viento	8
18334	7	Sololá	712	San Antonio Palopó	9	San Antonio Palopo	11	Noviembre	2023-10-11T00:00:00	2024-11-08T21:00:00	7	Dirección del viento	8.05
18335	7	Sololá	712	San Antonio Palopó	9	San Antonio Palopo	11	Noviembre	2023-10-11T00:00:00	2024-11-08T21:00:00	1	Precipitación	0
18336	7	Sololá	712	San Antonio Palopó	9	San Antonio Palopo	11	Noviembre	2023-10-11T00:00:00	2024-11-08T21:00:00	8	Radiación solar	0
18337	7	Sololá	712	San Antonio Palopó	9	San Antonio Palopo	11	Noviembre	2023-10-11T00:00:00	2024-11-08T22:00:00	2	Temperatura media	20.9
18338	7	Sololá	712	San Antonio Palopó	9	San Antonio Palopo	11	Noviembre	2023-10-11T00:00:00	2024-11-08T22:00:00	4	Temperatura máxima	21.2
18339	7	Sololá	712	San Antonio Palopó	9	San Antonio Palopo	11	Noviembre	2023-10-11T00:00:00	2024-11-08T22:00:00	3	Temperatura mínima	20.8
18340	7	Sololá	712	San Antonio Palopó	9	San Antonio Palopo	11	Noviembre	2023-10-11T00:00:00	2024-11-08T22:00:00	5	Humedad	71
18341	7	Sololá	712	San Antonio Palopó	9	San Antonio Palopo	11	Noviembre	2023-10-11T00:00:00	2024-11-08T22:00:00	6	Velocidad del viento	8
18342	7	Sololá	712	San Antonio Palopó	9	San Antonio Palopo	11	Noviembre	2023-10-11T00:00:00	2024-11-08T22:00:00	7	Dirección del viento	8.05
18343	7	Sololá	712	San Antonio Palopó	9	San Antonio Palopo	11	Noviembre	2023-10-11T00:00:00	2024-11-08T22:00:00	1	Precipitación	0
18344	7	Sololá	712	San Antonio Palopó	9	San Antonio Palopo	11	Noviembre	2023-10-11T00:00:00	2024-11-08T22:00:00	8	Radiación solar	0
18345	7	Sololá	712	San Antonio Palopó	9	San Antonio Palopo	11	Noviembre	2023-10-11T00:00:00	2024-11-08T23:00:00	2	Temperatura media	21.3
18346	7	Sololá	712	San Antonio Palopó	9	San Antonio Palopo	11	Noviembre	2023-10-11T00:00:00	2024-11-08T23:00:00	4	Temperatura máxima	21.3
18347	7	Sololá	712	San Antonio Palopó	9	San Antonio Palopo	11	Noviembre	2023-10-11T00:00:00	2024-11-08T23:00:00	3	Temperatura mínima	20.9
18348	7	Sololá	712	San Antonio Palopó	9	San Antonio Palopo	11	Noviembre	2023-10-11T00:00:00	2024-11-08T23:00:00	5	Humedad	71
18349	7	Sololá	712	San Antonio Palopó	9	San Antonio Palopo	11	Noviembre	2023-10-11T00:00:00	2024-11-08T23:00:00	6	Velocidad del viento	6.4
18350	7	Sololá	712	San Antonio Palopó	9	San Antonio Palopo	11	Noviembre	2023-10-11T00:00:00	2024-11-08T23:00:00	7	Dirección del viento	6.44
18351	7	Sololá	712	San Antonio Palopó	9	San Antonio Palopo	11	Noviembre	2023-10-11T00:00:00	2024-11-08T23:00:00	1	Precipitación	0
18352	7	Sololá	712	San Antonio Palopó	9	San Antonio Palopo	11	Noviembre	2023-10-11T00:00:00	2024-11-08T23:00:00	8	Radiación solar	0
18353	7	Sololá	712	San Antonio Palopó	9	San Antonio Palopo	11	Noviembre	2023-11-11T00:00:00	2024-11-08T00:00:00	2	Temperatura media	21.6
18354	7	Sololá	712	San Antonio Palopó	9	San Antonio Palopo	11	Noviembre	2023-11-11T00:00:00	2024-11-08T00:00:00	4	Temperatura máxima	21.7
18355	7	Sololá	712	San Antonio Palopó	9	San Antonio Palopo	11	Noviembre	2023-11-11T00:00:00	2024-11-08T00:00:00	3	Temperatura mínima	21.2
18356	7	Sololá	712	San Antonio Palopó	9	San Antonio Palopo	11	Noviembre	2023-11-11T00:00:00	2024-11-08T00:00:00	5	Humedad	70
18357	7	Sololá	712	San Antonio Palopó	9	San Antonio Palopo	11	Noviembre	2023-11-11T00:00:00	2024-11-08T00:00:00	6	Velocidad del viento	8
18358	7	Sololá	712	San Antonio Palopó	9	San Antonio Palopo	11	Noviembre	2023-11-11T00:00:00	2024-11-08T00:00:00	7	Dirección del viento	8.05
18359	7	Sololá	712	San Antonio Palopó	9	San Antonio Palopo	11	Noviembre	2023-11-11T00:00:00	2024-11-08T00:00:00	1	Precipitación	0
18360	7	Sololá	712	San Antonio Palopó	9	San Antonio Palopo	11	Noviembre	2023-11-11T00:00:00	2024-11-08T00:00:00	8	Radiación solar	0
18361	7	Sololá	712	San Antonio Palopó	9	San Antonio Palopo	11	Noviembre	2023-11-11T00:00:00	2024-11-08T01:00:00	2	Temperatura media	21.5
18362	7	Sololá	712	San Antonio Palopó	9	San Antonio Palopo	11	Noviembre	2023-11-11T00:00:00	2024-11-08T01:00:00	4	Temperatura máxima	21.6
18363	7	Sololá	712	San Antonio Palopó	9	San Antonio Palopo	11	Noviembre	2023-11-11T00:00:00	2024-11-08T01:00:00	3	Temperatura mínima	21.1
18364	7	Sololá	712	San Antonio Palopó	9	San Antonio Palopo	11	Noviembre	2023-11-11T00:00:00	2024-11-08T01:00:00	5	Humedad	70
18365	7	Sololá	712	San Antonio Palopó	9	San Antonio Palopo	11	Noviembre	2023-11-11T00:00:00	2024-11-08T01:00:00	6	Velocidad del viento	9.7
18366	7	Sololá	712	San Antonio Palopó	9	San Antonio Palopo	11	Noviembre	2023-11-11T00:00:00	2024-11-08T01:00:00	7	Dirección del viento	9.66
18367	7	Sololá	712	San Antonio Palopó	9	San Antonio Palopo	11	Noviembre	2023-11-11T00:00:00	2024-11-08T01:00:00	1	Precipitación	0
18368	7	Sololá	712	San Antonio Palopó	9	San Antonio Palopo	11	Noviembre	2023-11-11T00:00:00	2024-11-08T01:00:00	8	Radiación solar	0
18369	7	Sololá	712	San Antonio Palopó	9	San Antonio Palopo	11	Noviembre	2023-11-11T00:00:00	2024-11-08T02:00:00	2	Temperatura media	20.2
18370	7	Sololá	712	San Antonio Palopó	9	San Antonio Palopo	11	Noviembre	2023-11-11T00:00:00	2024-11-08T02:00:00	4	Temperatura máxima	21.8
18371	7	Sololá	712	San Antonio Palopó	9	San Antonio Palopo	11	Noviembre	2023-11-11T00:00:00	2024-11-08T02:00:00	3	Temperatura mínima	20.2
18372	7	Sololá	712	San Antonio Palopó	9	San Antonio Palopo	11	Noviembre	2023-11-11T00:00:00	2024-11-08T02:00:00	5	Humedad	73
18373	7	Sololá	712	San Antonio Palopó	9	San Antonio Palopo	11	Noviembre	2023-11-11T00:00:00	2024-11-08T02:00:00	6	Velocidad del viento	3.2
18374	7	Sololá	712	San Antonio Palopó	9	San Antonio Palopo	11	Noviembre	2023-11-11T00:00:00	2024-11-08T02:00:00	7	Dirección del viento	3.22
18375	7	Sololá	712	San Antonio Palopó	9	San Antonio Palopo	11	Noviembre	2023-11-11T00:00:00	2024-11-08T02:00:00	1	Precipitación	0
18376	7	Sololá	712	San Antonio Palopó	9	San Antonio Palopo	11	Noviembre	2023-11-11T00:00:00	2024-11-08T02:00:00	8	Radiación solar	0
18377	7	Sololá	712	San Antonio Palopó	9	San Antonio Palopo	11	Noviembre	2023-11-11T00:00:00	2024-11-08T03:00:00	2	Temperatura media	20.3
18378	7	Sololá	712	San Antonio Palopó	9	San Antonio Palopo	11	Noviembre	2023-11-11T00:00:00	2024-11-08T03:00:00	4	Temperatura máxima	20.3
18379	7	Sololá	712	San Antonio Palopó	9	San Antonio Palopo	11	Noviembre	2023-11-11T00:00:00	2024-11-08T03:00:00	3	Temperatura mínima	19.8
18380	7	Sololá	712	San Antonio Palopó	9	San Antonio Palopo	11	Noviembre	2023-11-11T00:00:00	2024-11-08T03:00:00	5	Humedad	72
18381	7	Sololá	712	San Antonio Palopó	9	San Antonio Palopo	11	Noviembre	2023-11-11T00:00:00	2024-11-08T03:00:00	6	Velocidad del viento	3.2
18382	7	Sololá	712	San Antonio Palopó	9	San Antonio Palopo	11	Noviembre	2023-11-11T00:00:00	2024-11-08T03:00:00	7	Dirección del viento	3.22
18383	7	Sololá	712	San Antonio Palopó	9	San Antonio Palopo	11	Noviembre	2023-11-11T00:00:00	2024-11-08T03:00:00	1	Precipitación	0
18384	7	Sololá	712	San Antonio Palopó	9	San Antonio Palopo	11	Noviembre	2023-11-11T00:00:00	2024-11-08T03:00:00	8	Radiación solar	0
18385	7	Sololá	712	San Antonio Palopó	9	San Antonio Palopo	11	Noviembre	2023-11-11T00:00:00	2024-11-08T04:00:00	2	Temperatura media	20.3
18386	7	Sololá	712	San Antonio Palopó	9	San Antonio Palopo	11	Noviembre	2023-11-11T00:00:00	2024-11-08T04:00:00	4	Temperatura máxima	20.6
18387	7	Sololá	712	San Antonio Palopó	9	San Antonio Palopo	11	Noviembre	2023-11-11T00:00:00	2024-11-08T04:00:00	3	Temperatura mínima	20.2
18388	7	Sololá	712	San Antonio Palopó	9	San Antonio Palopo	11	Noviembre	2023-11-11T00:00:00	2024-11-08T04:00:00	5	Humedad	73
18389	7	Sololá	712	San Antonio Palopó	9	San Antonio Palopo	11	Noviembre	2023-11-11T00:00:00	2024-11-08T04:00:00	6	Velocidad del viento	4.8
18390	7	Sololá	712	San Antonio Palopó	9	San Antonio Palopo	11	Noviembre	2023-11-11T00:00:00	2024-11-08T04:00:00	7	Dirección del viento	4.83
18391	7	Sololá	712	San Antonio Palopó	9	San Antonio Palopo	11	Noviembre	2023-11-11T00:00:00	2024-11-08T04:00:00	1	Precipitación	0
18392	7	Sololá	712	San Antonio Palopó	9	San Antonio Palopo	11	Noviembre	2023-11-11T00:00:00	2024-11-08T04:00:00	8	Radiación solar	0
18393	7	Sololá	712	San Antonio Palopó	9	San Antonio Palopo	11	Noviembre	2023-11-11T00:00:00	2024-11-08T05:00:00	2	Temperatura media	20.2
18394	7	Sololá	712	San Antonio Palopó	9	San Antonio Palopo	11	Noviembre	2023-11-11T00:00:00	2024-11-08T05:00:00	4	Temperatura máxima	20.3
18395	7	Sololá	712	San Antonio Palopó	9	San Antonio Palopo	11	Noviembre	2023-11-11T00:00:00	2024-11-08T05:00:00	3	Temperatura mínima	19.6
18396	7	Sololá	712	San Antonio Palopó	9	San Antonio Palopo	11	Noviembre	2023-11-11T00:00:00	2024-11-08T05:00:00	5	Humedad	73
18397	7	Sololá	712	San Antonio Palopó	9	San Antonio Palopo	11	Noviembre	2023-11-11T00:00:00	2024-11-08T05:00:00	6	Velocidad del viento	12.9
18398	7	Sololá	712	San Antonio Palopó	9	San Antonio Palopo	11	Noviembre	2023-11-11T00:00:00	2024-11-08T05:00:00	7	Dirección del viento	12.87
18399	7	Sololá	712	San Antonio Palopó	9	San Antonio Palopo	11	Noviembre	2023-11-11T00:00:00	2024-11-08T05:00:00	1	Precipitación	0
18400	7	Sololá	712	San Antonio Palopó	9	San Antonio Palopo	11	Noviembre	2023-11-11T00:00:00	2024-11-08T05:00:00	8	Radiación solar	0
18401	7	Sololá	712	San Antonio Palopó	9	San Antonio Palopo	11	Noviembre	2023-11-11T00:00:00	2024-11-08T06:00:00	2	Temperatura media	20.7
18402	7	Sololá	712	San Antonio Palopó	9	San Antonio Palopo	11	Noviembre	2023-11-11T00:00:00	2024-11-08T06:00:00	4	Temperatura máxima	20.8
18403	7	Sololá	712	San Antonio Palopó	9	San Antonio Palopo	11	Noviembre	2023-11-11T00:00:00	2024-11-08T06:00:00	3	Temperatura mínima	20.2
18404	7	Sololá	712	San Antonio Palopó	9	San Antonio Palopo	11	Noviembre	2023-11-11T00:00:00	2024-11-08T06:00:00	5	Humedad	71
18405	7	Sololá	712	San Antonio Palopó	9	San Antonio Palopo	11	Noviembre	2023-11-11T00:00:00	2024-11-08T06:00:00	6	Velocidad del viento	8
18406	7	Sololá	712	San Antonio Palopó	9	San Antonio Palopo	11	Noviembre	2023-11-11T00:00:00	2024-11-08T06:00:00	7	Dirección del viento	8.05
18407	7	Sololá	712	San Antonio Palopó	9	San Antonio Palopo	11	Noviembre	2023-11-11T00:00:00	2024-11-08T06:00:00	1	Precipitación	0
18408	7	Sololá	712	San Antonio Palopó	9	San Antonio Palopo	11	Noviembre	2023-11-11T00:00:00	2024-11-08T06:00:00	8	Radiación solar	0
18409	7	Sololá	712	San Antonio Palopó	9	San Antonio Palopo	11	Noviembre	2023-11-11T00:00:00	2024-11-08T07:00:00	2	Temperatura media	20.9
18410	7	Sololá	712	San Antonio Palopó	9	San Antonio Palopo	11	Noviembre	2023-11-11T00:00:00	2024-11-08T07:00:00	4	Temperatura máxima	20.9
18411	7	Sololá	712	San Antonio Palopó	9	San Antonio Palopo	11	Noviembre	2023-11-11T00:00:00	2024-11-08T07:00:00	3	Temperatura mínima	20.4
18412	7	Sololá	712	San Antonio Palopó	9	San Antonio Palopo	11	Noviembre	2023-11-11T00:00:00	2024-11-08T07:00:00	5	Humedad	71
18413	7	Sololá	712	San Antonio Palopó	9	San Antonio Palopo	11	Noviembre	2023-11-11T00:00:00	2024-11-08T07:00:00	6	Velocidad del viento	8
18414	7	Sololá	712	San Antonio Palopó	9	San Antonio Palopo	11	Noviembre	2023-11-11T00:00:00	2024-11-08T07:00:00	7	Dirección del viento	8.05
18415	7	Sololá	712	San Antonio Palopó	9	San Antonio Palopo	11	Noviembre	2023-11-11T00:00:00	2024-11-08T07:00:00	1	Precipitación	0
18416	7	Sololá	712	San Antonio Palopó	9	San Antonio Palopo	11	Noviembre	2023-11-11T00:00:00	2024-11-08T07:00:00	8	Radiación solar	10
18417	7	Sololá	712	San Antonio Palopó	9	San Antonio Palopo	11	Noviembre	2023-11-11T00:00:00	2024-11-08T08:00:00	2	Temperatura media	19.9
18418	7	Sololá	712	San Antonio Palopó	9	San Antonio Palopo	11	Noviembre	2023-11-11T00:00:00	2024-11-08T08:00:00	4	Temperatura máxima	21
18419	7	Sololá	712	San Antonio Palopó	9	San Antonio Palopo	11	Noviembre	2023-11-11T00:00:00	2024-11-08T08:00:00	3	Temperatura mínima	19.8
18420	7	Sololá	712	San Antonio Palopó	9	San Antonio Palopo	11	Noviembre	2023-11-11T00:00:00	2024-11-08T08:00:00	5	Humedad	75
18421	7	Sololá	712	San Antonio Palopó	9	San Antonio Palopo	11	Noviembre	2023-11-11T00:00:00	2024-11-08T08:00:00	6	Velocidad del viento	4.8
18422	7	Sololá	712	San Antonio Palopó	9	San Antonio Palopo	11	Noviembre	2023-11-11T00:00:00	2024-11-08T08:00:00	7	Dirección del viento	4.83
18423	7	Sololá	712	San Antonio Palopó	9	San Antonio Palopo	11	Noviembre	2023-11-11T00:00:00	2024-11-08T08:00:00	1	Precipitación	0
18424	7	Sololá	712	San Antonio Palopó	9	San Antonio Palopo	11	Noviembre	2023-11-11T00:00:00	2024-11-08T08:00:00	8	Radiación solar	24
18425	7	Sololá	712	San Antonio Palopó	9	San Antonio Palopo	11	Noviembre	2023-11-11T00:00:00	2024-11-08T09:00:00	2	Temperatura media	23.6
18426	7	Sololá	712	San Antonio Palopó	9	San Antonio Palopo	11	Noviembre	2023-11-11T00:00:00	2024-11-08T09:00:00	4	Temperatura máxima	23.6
18427	7	Sololá	712	San Antonio Palopó	9	San Antonio Palopo	11	Noviembre	2023-11-11T00:00:00	2024-11-08T09:00:00	3	Temperatura mínima	19.7
18428	7	Sololá	712	San Antonio Palopó	9	San Antonio Palopo	11	Noviembre	2023-11-11T00:00:00	2024-11-08T09:00:00	5	Humedad	64
18429	7	Sololá	712	San Antonio Palopó	9	San Antonio Palopo	11	Noviembre	2023-11-11T00:00:00	2024-11-08T09:00:00	6	Velocidad del viento	3.2
18430	7	Sololá	712	San Antonio Palopó	9	San Antonio Palopo	11	Noviembre	2023-11-11T00:00:00	2024-11-08T09:00:00	7	Dirección del viento	3.22
18431	7	Sololá	712	San Antonio Palopó	9	San Antonio Palopo	11	Noviembre	2023-11-11T00:00:00	2024-11-08T09:00:00	1	Precipitación	0
18432	7	Sololá	712	San Antonio Palopó	9	San Antonio Palopo	11	Noviembre	2023-11-11T00:00:00	2024-11-08T09:00:00	8	Radiación solar	398
18433	7	Sololá	712	San Antonio Palopó	9	San Antonio Palopo	11	Noviembre	2023-11-11T00:00:00	2024-11-08T10:00:00	2	Temperatura media	24.4
18434	7	Sololá	712	San Antonio Palopó	9	San Antonio Palopo	11	Noviembre	2023-11-11T00:00:00	2024-11-08T10:00:00	4	Temperatura máxima	24.4
18435	7	Sololá	712	San Antonio Palopó	9	San Antonio Palopo	11	Noviembre	2023-11-11T00:00:00	2024-11-08T10:00:00	3	Temperatura mínima	23.2
18436	7	Sololá	712	San Antonio Palopó	9	San Antonio Palopo	11	Noviembre	2023-11-11T00:00:00	2024-11-08T10:00:00	5	Humedad	62
18437	7	Sololá	712	San Antonio Palopó	9	San Antonio Palopo	11	Noviembre	2023-11-11T00:00:00	2024-11-08T10:00:00	6	Velocidad del viento	3.2
18438	7	Sololá	712	San Antonio Palopó	9	San Antonio Palopo	11	Noviembre	2023-11-11T00:00:00	2024-11-08T10:00:00	7	Dirección del viento	3.22
18439	7	Sololá	712	San Antonio Palopó	9	San Antonio Palopo	11	Noviembre	2023-11-11T00:00:00	2024-11-08T10:00:00	1	Precipitación	0
18440	7	Sololá	712	San Antonio Palopó	9	San Antonio Palopo	11	Noviembre	2023-11-11T00:00:00	2024-11-08T10:00:00	8	Radiación solar	520
18441	7	Sololá	712	San Antonio Palopó	9	San Antonio Palopo	11	Noviembre	2023-11-11T00:00:00	2024-11-08T11:00:00	2	Temperatura media	24.8
18442	7	Sololá	712	San Antonio Palopó	9	San Antonio Palopo	11	Noviembre	2023-11-11T00:00:00	2024-11-08T11:00:00	4	Temperatura máxima	25.3
18443	7	Sololá	712	San Antonio Palopó	9	San Antonio Palopo	11	Noviembre	2023-11-11T00:00:00	2024-11-08T11:00:00	3	Temperatura mínima	23.9
18444	7	Sololá	712	San Antonio Palopó	9	San Antonio Palopo	11	Noviembre	2023-11-11T00:00:00	2024-11-08T11:00:00	5	Humedad	63
18445	7	Sololá	712	San Antonio Palopó	9	San Antonio Palopo	11	Noviembre	2023-11-11T00:00:00	2024-11-08T11:00:00	6	Velocidad del viento	4.8
18446	7	Sololá	712	San Antonio Palopó	9	San Antonio Palopo	11	Noviembre	2023-11-11T00:00:00	2024-11-08T11:00:00	7	Dirección del viento	4.83
18447	7	Sololá	712	San Antonio Palopó	9	San Antonio Palopo	11	Noviembre	2023-11-11T00:00:00	2024-11-08T11:00:00	1	Precipitación	0
18448	7	Sololá	712	San Antonio Palopó	9	San Antonio Palopo	11	Noviembre	2023-11-11T00:00:00	2024-11-08T11:00:00	8	Radiación solar	794
18449	7	Sololá	712	San Antonio Palopó	9	San Antonio Palopo	11	Noviembre	2023-11-11T00:00:00	2024-11-08T12:00:00	2	Temperatura media	25.6
18450	7	Sololá	712	San Antonio Palopó	9	San Antonio Palopo	11	Noviembre	2023-11-11T00:00:00	2024-11-08T12:00:00	4	Temperatura máxima	26.7
18451	7	Sololá	712	San Antonio Palopó	9	San Antonio Palopo	11	Noviembre	2023-11-11T00:00:00	2024-11-08T12:00:00	3	Temperatura mínima	24.6
18452	7	Sololá	712	San Antonio Palopó	9	San Antonio Palopo	11	Noviembre	2023-11-11T00:00:00	2024-11-08T12:00:00	5	Humedad	57
18453	7	Sololá	712	San Antonio Palopó	9	San Antonio Palopo	11	Noviembre	2023-11-11T00:00:00	2024-11-08T12:00:00	6	Velocidad del viento	8
18454	7	Sololá	712	San Antonio Palopó	9	San Antonio Palopo	11	Noviembre	2023-11-11T00:00:00	2024-11-08T12:00:00	7	Dirección del viento	8.05
18455	7	Sololá	712	San Antonio Palopó	9	San Antonio Palopo	11	Noviembre	2023-11-11T00:00:00	2024-11-08T12:00:00	1	Precipitación	0
18456	7	Sololá	712	San Antonio Palopó	9	San Antonio Palopo	11	Noviembre	2023-11-11T00:00:00	2024-11-08T12:00:00	8	Radiación solar	672
18457	7	Sololá	712	San Antonio Palopó	9	San Antonio Palopo	11	Noviembre	2023-11-11T00:00:00	2024-11-08T13:00:00	2	Temperatura media	25.9
18458	7	Sololá	712	San Antonio Palopó	9	San Antonio Palopo	11	Noviembre	2023-11-11T00:00:00	2024-11-08T13:00:00	4	Temperatura máxima	26.7
18459	7	Sololá	712	San Antonio Palopó	9	San Antonio Palopo	11	Noviembre	2023-11-11T00:00:00	2024-11-08T13:00:00	3	Temperatura mínima	25.6
18460	7	Sololá	712	San Antonio Palopó	9	San Antonio Palopo	11	Noviembre	2023-11-11T00:00:00	2024-11-08T13:00:00	5	Humedad	53
18461	7	Sololá	712	San Antonio Palopó	9	San Antonio Palopo	11	Noviembre	2023-11-11T00:00:00	2024-11-08T13:00:00	6	Velocidad del viento	12.9
18462	7	Sololá	712	San Antonio Palopó	9	San Antonio Palopo	11	Noviembre	2023-11-11T00:00:00	2024-11-08T13:00:00	7	Dirección del viento	12.87
18463	7	Sololá	712	San Antonio Palopó	9	San Antonio Palopo	11	Noviembre	2023-11-11T00:00:00	2024-11-08T13:00:00	1	Precipitación	0
18464	7	Sololá	712	San Antonio Palopó	9	San Antonio Palopo	11	Noviembre	2023-11-11T00:00:00	2024-11-08T13:00:00	8	Radiación solar	837
18465	7	Sololá	712	San Antonio Palopó	9	San Antonio Palopo	11	Noviembre	2023-11-11T00:00:00	2024-11-08T14:00:00	2	Temperatura media	27.1
18466	7	Sololá	712	San Antonio Palopó	9	San Antonio Palopo	11	Noviembre	2023-11-11T00:00:00	2024-11-08T14:00:00	4	Temperatura máxima	27.4
18467	7	Sololá	712	San Antonio Palopó	9	San Antonio Palopo	11	Noviembre	2023-11-11T00:00:00	2024-11-08T14:00:00	3	Temperatura mínima	25.9
18468	7	Sololá	712	San Antonio Palopó	9	San Antonio Palopo	11	Noviembre	2023-11-11T00:00:00	2024-11-08T14:00:00	5	Humedad	50
18469	7	Sololá	712	San Antonio Palopó	9	San Antonio Palopo	11	Noviembre	2023-11-11T00:00:00	2024-11-08T14:00:00	6	Velocidad del viento	12.9
18470	7	Sololá	712	San Antonio Palopó	9	San Antonio Palopo	11	Noviembre	2023-11-11T00:00:00	2024-11-08T14:00:00	7	Dirección del viento	12.87
18471	7	Sololá	712	San Antonio Palopó	9	San Antonio Palopo	11	Noviembre	2023-11-11T00:00:00	2024-11-08T14:00:00	1	Precipitación	0
18472	7	Sololá	712	San Antonio Palopó	9	San Antonio Palopo	11	Noviembre	2023-11-11T00:00:00	2024-11-08T14:00:00	8	Radiación solar	750
18473	7	Sololá	712	San Antonio Palopó	9	San Antonio Palopo	11	Noviembre	2023-11-11T00:00:00	2024-11-08T15:00:00	2	Temperatura media	27
18474	7	Sololá	712	San Antonio Palopó	9	San Antonio Palopo	11	Noviembre	2023-11-11T00:00:00	2024-11-08T15:00:00	4	Temperatura máxima	27.3
18475	7	Sololá	712	San Antonio Palopó	9	San Antonio Palopo	11	Noviembre	2023-11-11T00:00:00	2024-11-08T15:00:00	3	Temperatura mínima	26.3
18476	7	Sololá	712	San Antonio Palopó	9	San Antonio Palopo	11	Noviembre	2023-11-11T00:00:00	2024-11-08T15:00:00	5	Humedad	55
18477	7	Sololá	712	San Antonio Palopó	9	San Antonio Palopo	11	Noviembre	2023-11-11T00:00:00	2024-11-08T15:00:00	6	Velocidad del viento	9.7
18478	7	Sololá	712	San Antonio Palopó	9	San Antonio Palopo	11	Noviembre	2023-11-11T00:00:00	2024-11-08T15:00:00	7	Dirección del viento	9.66
18479	7	Sololá	712	San Antonio Palopó	9	San Antonio Palopo	11	Noviembre	2023-11-11T00:00:00	2024-11-08T15:00:00	1	Precipitación	0
18480	7	Sololá	712	San Antonio Palopó	9	San Antonio Palopo	11	Noviembre	2023-11-11T00:00:00	2024-11-08T15:00:00	8	Radiación solar	365
18481	7	Sololá	712	San Antonio Palopó	9	San Antonio Palopo	11	Noviembre	2023-11-11T00:00:00	2024-11-08T16:00:00	2	Temperatura media	27.1
18482	7	Sololá	712	San Antonio Palopó	9	San Antonio Palopo	11	Noviembre	2023-11-11T00:00:00	2024-11-08T16:00:00	4	Temperatura máxima	27.4
18483	7	Sololá	712	San Antonio Palopó	9	San Antonio Palopo	11	Noviembre	2023-11-11T00:00:00	2024-11-08T16:00:00	3	Temperatura mínima	26.3
18484	7	Sololá	712	San Antonio Palopó	9	San Antonio Palopo	11	Noviembre	2023-11-11T00:00:00	2024-11-08T16:00:00	5	Humedad	55
18485	7	Sololá	712	San Antonio Palopó	9	San Antonio Palopo	11	Noviembre	2023-11-11T00:00:00	2024-11-08T16:00:00	6	Velocidad del viento	6.4
18486	7	Sololá	712	San Antonio Palopó	9	San Antonio Palopo	11	Noviembre	2023-11-11T00:00:00	2024-11-08T16:00:00	7	Dirección del viento	6.44
18487	7	Sololá	712	San Antonio Palopó	9	San Antonio Palopo	11	Noviembre	2023-11-11T00:00:00	2024-11-08T16:00:00	1	Precipitación	0
18488	7	Sololá	712	San Antonio Palopó	9	San Antonio Palopo	11	Noviembre	2023-11-11T00:00:00	2024-11-08T16:00:00	8	Radiación solar	301
18489	7	Sololá	712	San Antonio Palopó	9	San Antonio Palopo	11	Noviembre	2023-11-11T00:00:00	2024-11-08T17:00:00	2	Temperatura media	25.1
18490	7	Sololá	712	San Antonio Palopó	9	San Antonio Palopo	11	Noviembre	2023-11-11T00:00:00	2024-11-08T17:00:00	4	Temperatura máxima	27.1
18491	7	Sololá	712	San Antonio Palopó	9	San Antonio Palopo	11	Noviembre	2023-11-11T00:00:00	2024-11-08T17:00:00	3	Temperatura mínima	24.3
18492	7	Sololá	712	San Antonio Palopó	9	San Antonio Palopo	11	Noviembre	2023-11-11T00:00:00	2024-11-08T17:00:00	5	Humedad	58
18493	7	Sololá	712	San Antonio Palopó	9	San Antonio Palopo	11	Noviembre	2023-11-11T00:00:00	2024-11-08T17:00:00	6	Velocidad del viento	4.8
18494	7	Sololá	712	San Antonio Palopó	9	San Antonio Palopo	11	Noviembre	2023-11-11T00:00:00	2024-11-08T17:00:00	7	Dirección del viento	4.83
18495	7	Sololá	712	San Antonio Palopó	9	San Antonio Palopo	11	Noviembre	2023-11-11T00:00:00	2024-11-08T17:00:00	1	Precipitación	0
18496	7	Sololá	712	San Antonio Palopó	9	San Antonio Palopo	11	Noviembre	2023-11-11T00:00:00	2024-11-08T17:00:00	8	Radiación solar	49
18497	7	Sololá	712	San Antonio Palopó	9	San Antonio Palopo	11	Noviembre	2023-11-11T00:00:00	2024-11-08T18:00:00	2	Temperatura media	23.2
18498	7	Sololá	712	San Antonio Palopó	9	San Antonio Palopo	11	Noviembre	2023-11-11T00:00:00	2024-11-08T18:00:00	4	Temperatura máxima	25.2
18499	7	Sololá	712	San Antonio Palopó	9	San Antonio Palopo	11	Noviembre	2023-11-11T00:00:00	2024-11-08T18:00:00	3	Temperatura mínima	23.1
18500	7	Sololá	712	San Antonio Palopó	9	San Antonio Palopo	11	Noviembre	2023-11-11T00:00:00	2024-11-08T18:00:00	5	Humedad	65
18501	7	Sololá	712	San Antonio Palopó	9	San Antonio Palopo	11	Noviembre	2023-11-11T00:00:00	2024-11-08T18:00:00	6	Velocidad del viento	4.8
18502	7	Sololá	712	San Antonio Palopó	9	San Antonio Palopo	11	Noviembre	2023-11-11T00:00:00	2024-11-08T18:00:00	7	Dirección del viento	4.83
18503	7	Sololá	712	San Antonio Palopó	9	San Antonio Palopo	11	Noviembre	2023-11-11T00:00:00	2024-11-08T18:00:00	1	Precipitación	0
18504	7	Sololá	712	San Antonio Palopó	9	San Antonio Palopo	11	Noviembre	2023-11-11T00:00:00	2024-11-08T18:00:00	8	Radiación solar	8
18505	7	Sololá	712	San Antonio Palopó	9	San Antonio Palopo	11	Noviembre	2023-11-11T00:00:00	2024-11-08T19:00:00	2	Temperatura media	22.2
18506	7	Sololá	712	San Antonio Palopó	9	San Antonio Palopo	11	Noviembre	2023-11-11T00:00:00	2024-11-08T19:00:00	4	Temperatura máxima	23.2
18507	7	Sololá	712	San Antonio Palopó	9	San Antonio Palopo	11	Noviembre	2023-11-11T00:00:00	2024-11-08T19:00:00	3	Temperatura mínima	22.2
18508	7	Sololá	712	San Antonio Palopó	9	San Antonio Palopo	11	Noviembre	2023-11-11T00:00:00	2024-11-08T19:00:00	5	Humedad	68
18509	7	Sololá	712	San Antonio Palopó	9	San Antonio Palopo	11	Noviembre	2023-11-11T00:00:00	2024-11-08T19:00:00	6	Velocidad del viento	4.8
18510	7	Sololá	712	San Antonio Palopó	9	San Antonio Palopo	11	Noviembre	2023-11-11T00:00:00	2024-11-08T19:00:00	7	Dirección del viento	4.83
18511	7	Sololá	712	San Antonio Palopó	9	San Antonio Palopo	11	Noviembre	2023-11-11T00:00:00	2024-11-08T19:00:00	1	Precipitación	0
18512	7	Sololá	712	San Antonio Palopó	9	San Antonio Palopo	11	Noviembre	2023-11-11T00:00:00	2024-11-08T19:00:00	8	Radiación solar	0
18513	7	Sololá	712	San Antonio Palopó	9	San Antonio Palopo	11	Noviembre	2023-11-11T00:00:00	2024-11-08T20:00:00	2	Temperatura media	21.7
18514	7	Sololá	712	San Antonio Palopó	9	San Antonio Palopo	11	Noviembre	2023-11-11T00:00:00	2024-11-08T20:00:00	4	Temperatura máxima	22.4
18515	7	Sololá	712	San Antonio Palopó	9	San Antonio Palopo	11	Noviembre	2023-11-11T00:00:00	2024-11-08T20:00:00	3	Temperatura mínima	21.7
18516	7	Sololá	712	San Antonio Palopó	9	San Antonio Palopo	11	Noviembre	2023-11-11T00:00:00	2024-11-08T20:00:00	5	Humedad	68
18517	7	Sololá	712	San Antonio Palopó	9	San Antonio Palopo	11	Noviembre	2023-11-11T00:00:00	2024-11-08T20:00:00	6	Velocidad del viento	6.4
18518	7	Sololá	712	San Antonio Palopó	9	San Antonio Palopo	11	Noviembre	2023-11-11T00:00:00	2024-11-08T20:00:00	7	Dirección del viento	6.44
18519	7	Sololá	712	San Antonio Palopó	9	San Antonio Palopo	11	Noviembre	2023-11-11T00:00:00	2024-11-08T20:00:00	1	Precipitación	0
18520	7	Sololá	712	San Antonio Palopó	9	San Antonio Palopo	11	Noviembre	2023-11-11T00:00:00	2024-11-08T20:00:00	8	Radiación solar	0
18521	7	Sololá	712	San Antonio Palopó	9	San Antonio Palopo	11	Noviembre	2023-11-11T00:00:00	2024-11-08T21:00:00	2	Temperatura media	21.1
18522	7	Sololá	712	San Antonio Palopó	9	San Antonio Palopo	11	Noviembre	2023-11-11T00:00:00	2024-11-08T21:00:00	4	Temperatura máxima	21.8
18523	7	Sololá	712	San Antonio Palopó	9	San Antonio Palopo	11	Noviembre	2023-11-11T00:00:00	2024-11-08T21:00:00	3	Temperatura mínima	21.1
18524	7	Sololá	712	San Antonio Palopó	9	San Antonio Palopo	11	Noviembre	2023-11-11T00:00:00	2024-11-08T21:00:00	5	Humedad	69
18525	7	Sololá	712	San Antonio Palopó	9	San Antonio Palopo	11	Noviembre	2023-11-11T00:00:00	2024-11-08T21:00:00	6	Velocidad del viento	6.4
18526	7	Sololá	712	San Antonio Palopó	9	San Antonio Palopo	11	Noviembre	2023-11-11T00:00:00	2024-11-08T21:00:00	7	Dirección del viento	6.44
18527	7	Sololá	712	San Antonio Palopó	9	San Antonio Palopo	11	Noviembre	2023-11-11T00:00:00	2024-11-08T21:00:00	1	Precipitación	0
18528	7	Sololá	712	San Antonio Palopó	9	San Antonio Palopo	11	Noviembre	2023-11-11T00:00:00	2024-11-08T21:00:00	8	Radiación solar	0
18529	7	Sololá	712	San Antonio Palopó	9	San Antonio Palopo	11	Noviembre	2023-11-11T00:00:00	2024-11-08T22:00:00	2	Temperatura media	21.3
18530	7	Sololá	712	San Antonio Palopó	9	San Antonio Palopo	11	Noviembre	2023-11-11T00:00:00	2024-11-08T22:00:00	4	Temperatura máxima	21.7
18531	7	Sololá	712	San Antonio Palopó	9	San Antonio Palopo	11	Noviembre	2023-11-11T00:00:00	2024-11-08T22:00:00	3	Temperatura mínima	20.9
18532	7	Sololá	712	San Antonio Palopó	9	San Antonio Palopo	11	Noviembre	2023-11-11T00:00:00	2024-11-08T22:00:00	5	Humedad	69
18533	7	Sololá	712	San Antonio Palopó	9	San Antonio Palopo	11	Noviembre	2023-11-11T00:00:00	2024-11-08T22:00:00	6	Velocidad del viento	3.2
18534	7	Sololá	712	San Antonio Palopó	9	San Antonio Palopo	11	Noviembre	2023-11-11T00:00:00	2024-11-08T22:00:00	7	Dirección del viento	3.22
18535	7	Sololá	712	San Antonio Palopó	9	San Antonio Palopo	11	Noviembre	2023-11-11T00:00:00	2024-11-08T22:00:00	1	Precipitación	0
18536	7	Sololá	712	San Antonio Palopó	9	San Antonio Palopo	11	Noviembre	2023-11-11T00:00:00	2024-11-08T22:00:00	8	Radiación solar	0
18537	7	Sololá	712	San Antonio Palopó	9	San Antonio Palopo	11	Noviembre	2023-11-11T00:00:00	2024-11-08T23:00:00	2	Temperatura media	21.2
18538	7	Sololá	712	San Antonio Palopó	9	San Antonio Palopo	11	Noviembre	2023-11-11T00:00:00	2024-11-08T23:00:00	4	Temperatura máxima	21.3
18539	7	Sololá	712	San Antonio Palopó	9	San Antonio Palopo	11	Noviembre	2023-11-11T00:00:00	2024-11-08T23:00:00	3	Temperatura mínima	21.1
18540	7	Sololá	712	San Antonio Palopó	9	San Antonio Palopo	11	Noviembre	2023-11-11T00:00:00	2024-11-08T23:00:00	5	Humedad	70
18541	7	Sololá	712	San Antonio Palopó	9	San Antonio Palopo	11	Noviembre	2023-11-11T00:00:00	2024-11-08T23:00:00	6	Velocidad del viento	4.8
18542	7	Sololá	712	San Antonio Palopó	9	San Antonio Palopo	11	Noviembre	2023-11-11T00:00:00	2024-11-08T23:00:00	7	Dirección del viento	4.83
18543	7	Sololá	712	San Antonio Palopó	9	San Antonio Palopo	11	Noviembre	2023-11-11T00:00:00	2024-11-08T23:00:00	1	Precipitación	0
18544	7	Sololá	712	San Antonio Palopó	9	San Antonio Palopo	11	Noviembre	2023-11-11T00:00:00	2024-11-08T23:00:00	8	Radiación solar	0
18545	7	Sololá	712	San Antonio Palopó	9	San Antonio Palopo	11	Noviembre	2023-12-11T00:00:00	2024-11-08T00:00:00	2	Temperatura media	20.9
18546	7	Sololá	712	San Antonio Palopó	9	San Antonio Palopo	11	Noviembre	2023-12-11T00:00:00	2024-11-08T00:00:00	4	Temperatura máxima	21.3
18547	7	Sololá	712	San Antonio Palopó	9	San Antonio Palopo	11	Noviembre	2023-12-11T00:00:00	2024-11-08T00:00:00	3	Temperatura mínima	20.9
18548	7	Sololá	712	San Antonio Palopó	9	San Antonio Palopo	11	Noviembre	2023-12-11T00:00:00	2024-11-08T00:00:00	5	Humedad	71
18549	7	Sololá	712	San Antonio Palopó	9	San Antonio Palopo	11	Noviembre	2023-12-11T00:00:00	2024-11-08T00:00:00	6	Velocidad del viento	4.8
18550	7	Sololá	712	San Antonio Palopó	9	San Antonio Palopo	11	Noviembre	2023-12-11T00:00:00	2024-11-08T00:00:00	7	Dirección del viento	4.83
18551	7	Sololá	712	San Antonio Palopó	9	San Antonio Palopo	11	Noviembre	2023-12-11T00:00:00	2024-11-08T00:00:00	1	Precipitación	0
18552	7	Sololá	712	San Antonio Palopó	9	San Antonio Palopo	11	Noviembre	2023-12-11T00:00:00	2024-11-08T00:00:00	8	Radiación solar	0
18553	7	Sololá	712	San Antonio Palopó	9	San Antonio Palopo	11	Noviembre	2023-12-11T00:00:00	2024-11-08T01:00:00	2	Temperatura media	20.8
18554	7	Sololá	712	San Antonio Palopó	9	San Antonio Palopo	11	Noviembre	2023-12-11T00:00:00	2024-11-08T01:00:00	4	Temperatura máxima	21.1
18555	7	Sololá	712	San Antonio Palopó	9	San Antonio Palopo	11	Noviembre	2023-12-11T00:00:00	2024-11-08T01:00:00	3	Temperatura mínima	20.8
18556	7	Sololá	712	San Antonio Palopó	9	San Antonio Palopo	11	Noviembre	2023-12-11T00:00:00	2024-11-08T01:00:00	5	Humedad	72
18557	7	Sololá	712	San Antonio Palopó	9	San Antonio Palopo	11	Noviembre	2023-12-11T00:00:00	2024-11-08T01:00:00	6	Velocidad del viento	8
18558	7	Sololá	712	San Antonio Palopó	9	San Antonio Palopo	11	Noviembre	2023-12-11T00:00:00	2024-11-08T01:00:00	7	Dirección del viento	8.05
18559	7	Sololá	712	San Antonio Palopó	9	San Antonio Palopo	11	Noviembre	2023-12-11T00:00:00	2024-11-08T01:00:00	1	Precipitación	0
18560	7	Sololá	712	San Antonio Palopó	9	San Antonio Palopo	11	Noviembre	2023-12-11T00:00:00	2024-11-08T01:00:00	8	Radiación solar	0
18561	7	Sololá	712	San Antonio Palopó	9	San Antonio Palopo	11	Noviembre	2023-12-11T00:00:00	2024-11-08T02:00:00	2	Temperatura media	20.9
18562	7	Sololá	712	San Antonio Palopó	9	San Antonio Palopo	11	Noviembre	2023-12-11T00:00:00	2024-11-08T02:00:00	4	Temperatura máxima	20.9
18563	7	Sololá	712	San Antonio Palopó	9	San Antonio Palopo	11	Noviembre	2023-12-11T00:00:00	2024-11-08T02:00:00	3	Temperatura mínima	20.8
18564	7	Sololá	712	San Antonio Palopó	9	San Antonio Palopo	11	Noviembre	2023-12-11T00:00:00	2024-11-08T02:00:00	5	Humedad	72
18565	7	Sololá	712	San Antonio Palopó	9	San Antonio Palopo	11	Noviembre	2023-12-11T00:00:00	2024-11-08T02:00:00	6	Velocidad del viento	6.4
18566	7	Sololá	712	San Antonio Palopó	9	San Antonio Palopo	11	Noviembre	2023-12-11T00:00:00	2024-11-08T02:00:00	7	Dirección del viento	6.44
18567	7	Sololá	712	San Antonio Palopó	9	San Antonio Palopo	11	Noviembre	2023-12-11T00:00:00	2024-11-08T02:00:00	1	Precipitación	0
18568	7	Sololá	712	San Antonio Palopó	9	San Antonio Palopo	11	Noviembre	2023-12-11T00:00:00	2024-11-08T02:00:00	8	Radiación solar	0
18569	7	Sololá	712	San Antonio Palopó	9	San Antonio Palopo	11	Noviembre	2023-12-11T00:00:00	2024-11-08T03:00:00	2	Temperatura media	20.8
18570	7	Sololá	712	San Antonio Palopó	9	San Antonio Palopo	11	Noviembre	2023-12-11T00:00:00	2024-11-08T03:00:00	4	Temperatura máxima	20.9
18571	7	Sololá	712	San Antonio Palopó	9	San Antonio Palopo	11	Noviembre	2023-12-11T00:00:00	2024-11-08T03:00:00	3	Temperatura mínima	20.6
18572	7	Sololá	712	San Antonio Palopó	9	San Antonio Palopo	11	Noviembre	2023-12-11T00:00:00	2024-11-08T03:00:00	5	Humedad	72
18573	7	Sololá	712	San Antonio Palopó	9	San Antonio Palopo	11	Noviembre	2023-12-11T00:00:00	2024-11-08T03:00:00	6	Velocidad del viento	9.7
18574	7	Sololá	712	San Antonio Palopó	9	San Antonio Palopo	11	Noviembre	2023-12-11T00:00:00	2024-11-08T03:00:00	7	Dirección del viento	9.66
18575	7	Sololá	712	San Antonio Palopó	9	San Antonio Palopo	11	Noviembre	2023-12-11T00:00:00	2024-11-08T03:00:00	1	Precipitación	0
18576	7	Sololá	712	San Antonio Palopó	9	San Antonio Palopo	11	Noviembre	2023-12-11T00:00:00	2024-11-08T03:00:00	8	Radiación solar	0
18577	7	Sololá	712	San Antonio Palopó	9	San Antonio Palopo	11	Noviembre	2023-12-11T00:00:00	2024-11-08T04:00:00	2	Temperatura media	20.5
18578	7	Sololá	712	San Antonio Palopó	9	San Antonio Palopo	11	Noviembre	2023-12-11T00:00:00	2024-11-08T04:00:00	4	Temperatura máxima	20.9
18579	7	Sololá	712	San Antonio Palopó	9	San Antonio Palopo	11	Noviembre	2023-12-11T00:00:00	2024-11-08T04:00:00	3	Temperatura mínima	20.5
18580	7	Sololá	712	San Antonio Palopó	9	San Antonio Palopo	11	Noviembre	2023-12-11T00:00:00	2024-11-08T04:00:00	5	Humedad	73
18581	7	Sololá	712	San Antonio Palopó	9	San Antonio Palopo	11	Noviembre	2023-12-11T00:00:00	2024-11-08T04:00:00	6	Velocidad del viento	14.5
18582	7	Sololá	712	San Antonio Palopó	9	San Antonio Palopo	11	Noviembre	2023-12-11T00:00:00	2024-11-08T04:00:00	7	Dirección del viento	14.48
18583	7	Sololá	712	San Antonio Palopó	9	San Antonio Palopo	11	Noviembre	2023-12-11T00:00:00	2024-11-08T04:00:00	1	Precipitación	0
18584	7	Sololá	712	San Antonio Palopó	9	San Antonio Palopo	11	Noviembre	2023-12-11T00:00:00	2024-11-08T04:00:00	8	Radiación solar	0
18585	7	Sololá	712	San Antonio Palopó	9	San Antonio Palopo	11	Noviembre	2023-12-11T00:00:00	2024-11-08T05:00:00	2	Temperatura media	20.3
18586	7	Sololá	712	San Antonio Palopó	9	San Antonio Palopo	11	Noviembre	2023-12-11T00:00:00	2024-11-08T05:00:00	4	Temperatura máxima	20.5
18587	7	Sololá	712	San Antonio Palopó	9	San Antonio Palopo	11	Noviembre	2023-12-11T00:00:00	2024-11-08T05:00:00	3	Temperatura mínima	20.3
18588	7	Sololá	712	San Antonio Palopó	9	San Antonio Palopo	11	Noviembre	2023-12-11T00:00:00	2024-11-08T05:00:00	5	Humedad	73
18589	7	Sololá	712	San Antonio Palopó	9	San Antonio Palopo	11	Noviembre	2023-12-11T00:00:00	2024-11-08T05:00:00	6	Velocidad del viento	14.5
18590	7	Sololá	712	San Antonio Palopó	9	San Antonio Palopo	11	Noviembre	2023-12-11T00:00:00	2024-11-08T05:00:00	7	Dirección del viento	14.48
18591	7	Sololá	712	San Antonio Palopó	9	San Antonio Palopo	11	Noviembre	2023-12-11T00:00:00	2024-11-08T05:00:00	1	Precipitación	0
18592	7	Sololá	712	San Antonio Palopó	9	San Antonio Palopo	11	Noviembre	2023-12-11T00:00:00	2024-11-08T05:00:00	8	Radiación solar	0
18593	7	Sololá	712	San Antonio Palopó	9	San Antonio Palopo	11	Noviembre	2023-12-11T00:00:00	2024-11-08T06:00:00	2	Temperatura media	20.5
18594	7	Sololá	712	San Antonio Palopó	9	San Antonio Palopo	11	Noviembre	2023-12-11T00:00:00	2024-11-08T06:00:00	4	Temperatura máxima	20.6
18595	7	Sololá	712	San Antonio Palopó	9	San Antonio Palopo	11	Noviembre	2023-12-11T00:00:00	2024-11-08T06:00:00	3	Temperatura mínima	20.3
18596	7	Sololá	712	San Antonio Palopó	9	San Antonio Palopo	11	Noviembre	2023-12-11T00:00:00	2024-11-08T06:00:00	5	Humedad	72
18597	7	Sololá	712	San Antonio Palopó	9	San Antonio Palopo	11	Noviembre	2023-12-11T00:00:00	2024-11-08T06:00:00	6	Velocidad del viento	9.7
18598	7	Sololá	712	San Antonio Palopó	9	San Antonio Palopo	11	Noviembre	2023-12-11T00:00:00	2024-11-08T06:00:00	7	Dirección del viento	9.66
18599	7	Sololá	712	San Antonio Palopó	9	San Antonio Palopo	11	Noviembre	2023-12-11T00:00:00	2024-11-08T06:00:00	1	Precipitación	0
18600	7	Sololá	712	San Antonio Palopó	9	San Antonio Palopo	11	Noviembre	2023-12-11T00:00:00	2024-11-08T06:00:00	8	Radiación solar	0
18601	7	Sololá	712	San Antonio Palopó	9	San Antonio Palopo	11	Noviembre	2023-12-11T00:00:00	2024-11-08T07:00:00	2	Temperatura media	20.7
18602	7	Sololá	712	San Antonio Palopó	9	San Antonio Palopo	11	Noviembre	2023-12-11T00:00:00	2024-11-08T07:00:00	4	Temperatura máxima	20.7
18603	7	Sololá	712	San Antonio Palopó	9	San Antonio Palopo	11	Noviembre	2023-12-11T00:00:00	2024-11-08T07:00:00	3	Temperatura mínima	20.2
18604	7	Sololá	712	San Antonio Palopó	9	San Antonio Palopo	11	Noviembre	2023-12-11T00:00:00	2024-11-08T07:00:00	5	Humedad	71
18605	7	Sololá	712	San Antonio Palopó	9	San Antonio Palopo	11	Noviembre	2023-12-11T00:00:00	2024-11-08T07:00:00	6	Velocidad del viento	8
18606	7	Sololá	712	San Antonio Palopó	9	San Antonio Palopo	11	Noviembre	2023-12-11T00:00:00	2024-11-08T07:00:00	7	Dirección del viento	8.05
18607	7	Sololá	712	San Antonio Palopó	9	San Antonio Palopo	11	Noviembre	2023-12-11T00:00:00	2024-11-08T07:00:00	1	Precipitación	0
18608	7	Sololá	712	San Antonio Palopó	9	San Antonio Palopo	11	Noviembre	2023-12-11T00:00:00	2024-11-08T07:00:00	8	Radiación solar	15
18609	7	Sololá	712	San Antonio Palopó	9	San Antonio Palopo	11	Noviembre	2023-12-11T00:00:00	2024-11-08T08:00:00	2	Temperatura media	20.9
18610	7	Sololá	712	San Antonio Palopó	9	San Antonio Palopo	11	Noviembre	2023-12-11T00:00:00	2024-11-08T08:00:00	4	Temperatura máxima	21.1
18611	7	Sololá	712	San Antonio Palopó	9	San Antonio Palopo	11	Noviembre	2023-12-11T00:00:00	2024-11-08T08:00:00	3	Temperatura mínima	20.7
18612	7	Sololá	712	San Antonio Palopó	9	San Antonio Palopo	11	Noviembre	2023-12-11T00:00:00	2024-11-08T08:00:00	5	Humedad	72
18613	7	Sololá	712	San Antonio Palopó	9	San Antonio Palopo	11	Noviembre	2023-12-11T00:00:00	2024-11-08T08:00:00	6	Velocidad del viento	8
18614	7	Sololá	712	San Antonio Palopó	9	San Antonio Palopo	11	Noviembre	2023-12-11T00:00:00	2024-11-08T08:00:00	7	Dirección del viento	8.05
18615	7	Sololá	712	San Antonio Palopó	9	San Antonio Palopo	11	Noviembre	2023-12-11T00:00:00	2024-11-08T08:00:00	1	Precipitación	0
18616	7	Sololá	712	San Antonio Palopó	9	San Antonio Palopo	11	Noviembre	2023-12-11T00:00:00	2024-11-08T08:00:00	8	Radiación solar	28
18617	7	Sololá	712	San Antonio Palopó	9	San Antonio Palopo	11	Noviembre	2023-12-11T00:00:00	2024-11-08T09:00:00	2	Temperatura media	23.6
18618	7	Sololá	712	San Antonio Palopó	9	San Antonio Palopo	11	Noviembre	2023-12-11T00:00:00	2024-11-08T09:00:00	4	Temperatura máxima	23.6
18619	7	Sololá	712	San Antonio Palopó	9	San Antonio Palopo	11	Noviembre	2023-12-11T00:00:00	2024-11-08T09:00:00	3	Temperatura mínima	20.2
18620	7	Sololá	712	San Antonio Palopó	9	San Antonio Palopo	11	Noviembre	2023-12-11T00:00:00	2024-11-08T09:00:00	5	Humedad	63
18621	7	Sololá	712	San Antonio Palopó	9	San Antonio Palopo	11	Noviembre	2023-12-11T00:00:00	2024-11-08T09:00:00	6	Velocidad del viento	4.8
18622	7	Sololá	712	San Antonio Palopó	9	San Antonio Palopo	11	Noviembre	2023-12-11T00:00:00	2024-11-08T09:00:00	7	Dirección del viento	4.83
18623	7	Sololá	712	San Antonio Palopó	9	San Antonio Palopo	11	Noviembre	2023-12-11T00:00:00	2024-11-08T09:00:00	1	Precipitación	0
18624	7	Sololá	712	San Antonio Palopó	9	San Antonio Palopo	11	Noviembre	2023-12-11T00:00:00	2024-11-08T09:00:00	8	Radiación solar	281
18625	7	Sololá	712	San Antonio Palopó	9	San Antonio Palopo	11	Noviembre	2023-12-11T00:00:00	2024-11-08T10:00:00	2	Temperatura media	24.7
18626	7	Sololá	712	San Antonio Palopó	9	San Antonio Palopo	11	Noviembre	2023-12-11T00:00:00	2024-11-08T10:00:00	4	Temperatura máxima	24.7
18627	7	Sololá	712	San Antonio Palopó	9	San Antonio Palopo	11	Noviembre	2023-12-11T00:00:00	2024-11-08T10:00:00	3	Temperatura mínima	23.3
18628	7	Sololá	712	San Antonio Palopó	9	San Antonio Palopo	11	Noviembre	2023-12-11T00:00:00	2024-11-08T10:00:00	5	Humedad	58
18629	7	Sololá	712	San Antonio Palopó	9	San Antonio Palopo	11	Noviembre	2023-12-11T00:00:00	2024-11-08T10:00:00	6	Velocidad del viento	8
18630	7	Sololá	712	San Antonio Palopó	9	San Antonio Palopo	11	Noviembre	2023-12-11T00:00:00	2024-11-08T10:00:00	7	Dirección del viento	8.05
18631	7	Sololá	712	San Antonio Palopó	9	San Antonio Palopo	11	Noviembre	2023-12-11T00:00:00	2024-11-08T10:00:00	1	Precipitación	0
18632	7	Sololá	712	San Antonio Palopó	9	San Antonio Palopo	11	Noviembre	2023-12-11T00:00:00	2024-11-08T10:00:00	8	Radiación solar	654
18633	7	Sololá	712	San Antonio Palopó	9	San Antonio Palopo	11	Noviembre	2023-12-11T00:00:00	2024-11-08T11:00:00	2	Temperatura media	24.3
18634	7	Sololá	712	San Antonio Palopó	9	San Antonio Palopo	11	Noviembre	2023-12-11T00:00:00	2024-11-08T11:00:00	4	Temperatura máxima	25.2
18635	7	Sololá	712	San Antonio Palopó	9	San Antonio Palopo	11	Noviembre	2023-12-11T00:00:00	2024-11-08T11:00:00	3	Temperatura mínima	23.8
18636	7	Sololá	712	San Antonio Palopó	9	San Antonio Palopo	11	Noviembre	2023-12-11T00:00:00	2024-11-08T11:00:00	5	Humedad	57
18637	7	Sololá	712	San Antonio Palopó	9	San Antonio Palopo	11	Noviembre	2023-12-11T00:00:00	2024-11-08T11:00:00	6	Velocidad del viento	11.3
18638	7	Sololá	712	San Antonio Palopó	9	San Antonio Palopo	11	Noviembre	2023-12-11T00:00:00	2024-11-08T11:00:00	7	Dirección del viento	11.27
18639	7	Sololá	712	San Antonio Palopó	9	San Antonio Palopo	11	Noviembre	2023-12-11T00:00:00	2024-11-08T11:00:00	1	Precipitación	0
18640	7	Sololá	712	San Antonio Palopó	9	San Antonio Palopo	11	Noviembre	2023-12-11T00:00:00	2024-11-08T11:00:00	8	Radiación solar	636
18641	7	Sololá	712	San Antonio Palopó	9	San Antonio Palopo	11	Noviembre	2023-12-11T00:00:00	2024-11-08T12:00:00	2	Temperatura media	25.9
18642	7	Sololá	712	San Antonio Palopó	9	San Antonio Palopo	11	Noviembre	2023-12-11T00:00:00	2024-11-08T12:00:00	4	Temperatura máxima	25.9
18643	7	Sololá	712	San Antonio Palopó	9	San Antonio Palopo	11	Noviembre	2023-12-11T00:00:00	2024-11-08T12:00:00	3	Temperatura mínima	24.3
18644	7	Sololá	712	San Antonio Palopó	9	San Antonio Palopo	11	Noviembre	2023-12-11T00:00:00	2024-11-08T12:00:00	5	Humedad	52
18645	7	Sololá	712	San Antonio Palopó	9	San Antonio Palopo	11	Noviembre	2023-12-11T00:00:00	2024-11-08T12:00:00	6	Velocidad del viento	12.9
18646	7	Sololá	712	San Antonio Palopó	9	San Antonio Palopo	11	Noviembre	2023-12-11T00:00:00	2024-11-08T12:00:00	7	Dirección del viento	12.87
18647	7	Sololá	712	San Antonio Palopó	9	San Antonio Palopo	11	Noviembre	2023-12-11T00:00:00	2024-11-08T12:00:00	1	Precipitación	0
18648	7	Sololá	712	San Antonio Palopó	9	San Antonio Palopo	11	Noviembre	2023-12-11T00:00:00	2024-11-08T12:00:00	8	Radiación solar	691
18649	7	Sololá	712	San Antonio Palopó	9	San Antonio Palopo	11	Noviembre	2023-12-11T00:00:00	2024-11-08T13:00:00	2	Temperatura media	26.6
18650	7	Sololá	712	San Antonio Palopó	9	San Antonio Palopo	11	Noviembre	2023-12-11T00:00:00	2024-11-08T13:00:00	4	Temperatura máxima	26.6
18651	7	Sololá	712	San Antonio Palopó	9	San Antonio Palopo	11	Noviembre	2023-12-11T00:00:00	2024-11-08T13:00:00	3	Temperatura mínima	25.2
18652	7	Sololá	712	San Antonio Palopó	9	San Antonio Palopo	11	Noviembre	2023-12-11T00:00:00	2024-11-08T13:00:00	5	Humedad	50
18653	7	Sololá	712	San Antonio Palopó	9	San Antonio Palopo	11	Noviembre	2023-12-11T00:00:00	2024-11-08T13:00:00	6	Velocidad del viento	12.9
18654	7	Sololá	712	San Antonio Palopó	9	San Antonio Palopo	11	Noviembre	2023-12-11T00:00:00	2024-11-08T13:00:00	7	Dirección del viento	12.87
18655	7	Sololá	712	San Antonio Palopó	9	San Antonio Palopo	11	Noviembre	2023-12-11T00:00:00	2024-11-08T13:00:00	1	Precipitación	0
18656	7	Sololá	712	San Antonio Palopó	9	San Antonio Palopo	11	Noviembre	2023-12-11T00:00:00	2024-11-08T13:00:00	8	Radiación solar	816
18657	7	Sololá	712	San Antonio Palopó	9	San Antonio Palopo	11	Noviembre	2023-12-11T00:00:00	2024-11-08T14:00:00	2	Temperatura media	27.1
18658	7	Sololá	712	San Antonio Palopó	9	San Antonio Palopo	11	Noviembre	2023-12-11T00:00:00	2024-11-08T14:00:00	4	Temperatura máxima	27.1
18659	7	Sololá	712	San Antonio Palopó	9	San Antonio Palopo	11	Noviembre	2023-12-11T00:00:00	2024-11-08T14:00:00	3	Temperatura mínima	25.3
18660	7	Sololá	712	San Antonio Palopó	9	San Antonio Palopo	11	Noviembre	2023-12-11T00:00:00	2024-11-08T14:00:00	5	Humedad	50
18661	7	Sololá	712	San Antonio Palopó	9	San Antonio Palopo	11	Noviembre	2023-12-11T00:00:00	2024-11-08T14:00:00	6	Velocidad del viento	9.7
18662	7	Sololá	712	San Antonio Palopó	9	San Antonio Palopo	11	Noviembre	2023-12-11T00:00:00	2024-11-08T14:00:00	7	Dirección del viento	9.66
18663	7	Sololá	712	San Antonio Palopó	9	San Antonio Palopo	11	Noviembre	2023-12-11T00:00:00	2024-11-08T14:00:00	1	Precipitación	0
18664	7	Sololá	712	San Antonio Palopó	9	San Antonio Palopo	11	Noviembre	2023-12-11T00:00:00	2024-11-08T14:00:00	8	Radiación solar	748
18665	7	Sololá	712	San Antonio Palopó	9	San Antonio Palopo	11	Noviembre	2023-12-11T00:00:00	2024-11-08T15:00:00	2	Temperatura media	26.1
18666	7	Sololá	712	San Antonio Palopó	9	San Antonio Palopo	11	Noviembre	2023-12-11T00:00:00	2024-11-08T15:00:00	4	Temperatura máxima	27.3
18667	7	Sololá	712	San Antonio Palopó	9	San Antonio Palopo	11	Noviembre	2023-12-11T00:00:00	2024-11-08T15:00:00	3	Temperatura mínima	25.9
18668	7	Sololá	712	San Antonio Palopó	9	San Antonio Palopo	11	Noviembre	2023-12-11T00:00:00	2024-11-08T15:00:00	5	Humedad	53
18669	7	Sololá	712	San Antonio Palopó	9	San Antonio Palopo	11	Noviembre	2023-12-11T00:00:00	2024-11-08T15:00:00	6	Velocidad del viento	11.3
18670	7	Sololá	712	San Antonio Palopó	9	San Antonio Palopo	11	Noviembre	2023-12-11T00:00:00	2024-11-08T15:00:00	7	Dirección del viento	11.27
18671	7	Sololá	712	San Antonio Palopó	9	San Antonio Palopo	11	Noviembre	2023-12-11T00:00:00	2024-11-08T15:00:00	1	Precipitación	0
18672	7	Sololá	712	San Antonio Palopó	9	San Antonio Palopo	11	Noviembre	2023-12-11T00:00:00	2024-11-08T15:00:00	8	Radiación solar	455
18673	7	Sololá	712	San Antonio Palopó	9	San Antonio Palopo	11	Noviembre	2023-12-11T00:00:00	2024-11-08T16:00:00	2	Temperatura media	26.7
18674	7	Sololá	712	San Antonio Palopó	9	San Antonio Palopo	11	Noviembre	2023-12-11T00:00:00	2024-11-08T16:00:00	4	Temperatura máxima	27.1
18675	7	Sololá	712	San Antonio Palopó	9	San Antonio Palopo	11	Noviembre	2023-12-11T00:00:00	2024-11-08T16:00:00	3	Temperatura mínima	26.1
18676	7	Sololá	712	San Antonio Palopó	9	San Antonio Palopo	11	Noviembre	2023-12-11T00:00:00	2024-11-08T16:00:00	5	Humedad	52
18677	7	Sololá	712	San Antonio Palopó	9	San Antonio Palopo	11	Noviembre	2023-12-11T00:00:00	2024-11-08T16:00:00	6	Velocidad del viento	8
18678	7	Sololá	712	San Antonio Palopó	9	San Antonio Palopo	11	Noviembre	2023-12-11T00:00:00	2024-11-08T16:00:00	7	Dirección del viento	8.05
18679	7	Sololá	712	San Antonio Palopó	9	San Antonio Palopo	11	Noviembre	2023-12-11T00:00:00	2024-11-08T16:00:00	1	Precipitación	0
18680	7	Sololá	712	San Antonio Palopó	9	San Antonio Palopo	11	Noviembre	2023-12-11T00:00:00	2024-11-08T16:00:00	8	Radiación solar	387
18681	7	Sololá	712	San Antonio Palopó	9	San Antonio Palopo	11	Noviembre	2023-12-11T00:00:00	2024-11-08T17:00:00	2	Temperatura media	25.4
18682	7	Sololá	712	San Antonio Palopó	9	San Antonio Palopo	11	Noviembre	2023-12-11T00:00:00	2024-11-08T17:00:00	4	Temperatura máxima	26.8
18683	7	Sololá	712	San Antonio Palopó	9	San Antonio Palopo	11	Noviembre	2023-12-11T00:00:00	2024-11-08T17:00:00	3	Temperatura mínima	24.4
18684	7	Sololá	712	San Antonio Palopó	9	San Antonio Palopo	11	Noviembre	2023-12-11T00:00:00	2024-11-08T17:00:00	5	Humedad	54
18685	7	Sololá	712	San Antonio Palopó	9	San Antonio Palopo	11	Noviembre	2023-12-11T00:00:00	2024-11-08T17:00:00	6	Velocidad del viento	9.7
18686	7	Sololá	712	San Antonio Palopó	9	San Antonio Palopo	11	Noviembre	2023-12-11T00:00:00	2024-11-08T17:00:00	7	Dirección del viento	9.66
18687	7	Sololá	712	San Antonio Palopó	9	San Antonio Palopo	11	Noviembre	2023-12-11T00:00:00	2024-11-08T17:00:00	1	Precipitación	0
18688	7	Sololá	712	San Antonio Palopó	9	San Antonio Palopo	11	Noviembre	2023-12-11T00:00:00	2024-11-08T17:00:00	8	Radiación solar	108
18689	7	Sololá	712	San Antonio Palopó	9	San Antonio Palopo	11	Noviembre	2023-12-11T00:00:00	2024-11-08T18:00:00	2	Temperatura media	22.4
18690	7	Sololá	712	San Antonio Palopó	9	San Antonio Palopo	11	Noviembre	2023-12-11T00:00:00	2024-11-08T18:00:00	4	Temperatura máxima	25.4
18691	7	Sololá	712	San Antonio Palopó	9	San Antonio Palopo	11	Noviembre	2023-12-11T00:00:00	2024-11-08T18:00:00	3	Temperatura mínima	22.4
18692	7	Sololá	712	San Antonio Palopó	9	San Antonio Palopo	11	Noviembre	2023-12-11T00:00:00	2024-11-08T18:00:00	5	Humedad	64
18693	7	Sololá	712	San Antonio Palopó	9	San Antonio Palopo	11	Noviembre	2023-12-11T00:00:00	2024-11-08T18:00:00	6	Velocidad del viento	9.7
18694	7	Sololá	712	San Antonio Palopó	9	San Antonio Palopo	11	Noviembre	2023-12-11T00:00:00	2024-11-08T18:00:00	7	Dirección del viento	9.66
18695	7	Sololá	712	San Antonio Palopó	9	San Antonio Palopo	11	Noviembre	2023-12-11T00:00:00	2024-11-08T18:00:00	1	Precipitación	0
18696	7	Sololá	712	San Antonio Palopó	9	San Antonio Palopo	11	Noviembre	2023-12-11T00:00:00	2024-11-08T18:00:00	8	Radiación solar	8
18697	7	Sololá	712	San Antonio Palopó	9	San Antonio Palopo	11	Noviembre	2023-12-11T00:00:00	2024-11-08T19:00:00	2	Temperatura media	21.8
18698	7	Sololá	712	San Antonio Palopó	9	San Antonio Palopo	11	Noviembre	2023-12-11T00:00:00	2024-11-08T19:00:00	4	Temperatura máxima	22.4
18699	7	Sololá	712	San Antonio Palopó	9	San Antonio Palopo	11	Noviembre	2023-12-11T00:00:00	2024-11-08T19:00:00	3	Temperatura mínima	21.7
18700	7	Sololá	712	San Antonio Palopó	9	San Antonio Palopo	11	Noviembre	2023-12-11T00:00:00	2024-11-08T19:00:00	5	Humedad	67
18701	7	Sololá	712	San Antonio Palopó	9	San Antonio Palopo	11	Noviembre	2023-12-11T00:00:00	2024-11-08T19:00:00	6	Velocidad del viento	6.4
18702	7	Sololá	712	San Antonio Palopó	9	San Antonio Palopo	11	Noviembre	2023-12-11T00:00:00	2024-11-08T19:00:00	7	Dirección del viento	6.44
18703	7	Sololá	712	San Antonio Palopó	9	San Antonio Palopo	11	Noviembre	2023-12-11T00:00:00	2024-11-08T19:00:00	1	Precipitación	0
18704	7	Sololá	712	San Antonio Palopó	9	San Antonio Palopo	11	Noviembre	2023-12-11T00:00:00	2024-11-08T19:00:00	8	Radiación solar	0
18705	7	Sololá	712	San Antonio Palopó	9	San Antonio Palopo	11	Noviembre	2023-12-11T00:00:00	2024-11-08T20:00:00	2	Temperatura media	21.7
18706	7	Sololá	712	San Antonio Palopó	9	San Antonio Palopo	11	Noviembre	2023-12-11T00:00:00	2024-11-08T20:00:00	4	Temperatura máxima	21.9
18707	7	Sololá	712	San Antonio Palopó	9	San Antonio Palopo	11	Noviembre	2023-12-11T00:00:00	2024-11-08T20:00:00	3	Temperatura mínima	21.4
18708	7	Sololá	712	San Antonio Palopó	9	San Antonio Palopo	11	Noviembre	2023-12-11T00:00:00	2024-11-08T20:00:00	5	Humedad	66
18709	7	Sololá	712	San Antonio Palopó	9	San Antonio Palopo	11	Noviembre	2023-12-11T00:00:00	2024-11-08T20:00:00	6	Velocidad del viento	6.4
18710	7	Sololá	712	San Antonio Palopó	9	San Antonio Palopo	11	Noviembre	2023-12-11T00:00:00	2024-11-08T20:00:00	7	Dirección del viento	6.44
18711	7	Sololá	712	San Antonio Palopó	9	San Antonio Palopo	11	Noviembre	2023-12-11T00:00:00	2024-11-08T20:00:00	1	Precipitación	0
18712	7	Sololá	712	San Antonio Palopó	9	San Antonio Palopo	11	Noviembre	2023-12-11T00:00:00	2024-11-08T20:00:00	8	Radiación solar	0
18713	7	Sololá	712	San Antonio Palopó	9	San Antonio Palopo	11	Noviembre	2023-12-11T00:00:00	2024-11-08T21:00:00	2	Temperatura media	21.2
18714	7	Sololá	712	San Antonio Palopó	9	San Antonio Palopo	11	Noviembre	2023-12-11T00:00:00	2024-11-08T21:00:00	4	Temperatura máxima	21.7
18715	7	Sololá	712	San Antonio Palopó	9	San Antonio Palopo	11	Noviembre	2023-12-11T00:00:00	2024-11-08T21:00:00	3	Temperatura mínima	21.2
18716	7	Sololá	712	San Antonio Palopó	9	San Antonio Palopo	11	Noviembre	2023-12-11T00:00:00	2024-11-08T21:00:00	5	Humedad	66
18717	7	Sololá	712	San Antonio Palopó	9	San Antonio Palopo	11	Noviembre	2023-12-11T00:00:00	2024-11-08T21:00:00	6	Velocidad del viento	6.4
18718	7	Sololá	712	San Antonio Palopó	9	San Antonio Palopo	11	Noviembre	2023-12-11T00:00:00	2024-11-08T21:00:00	7	Dirección del viento	6.44
18719	7	Sololá	712	San Antonio Palopó	9	San Antonio Palopo	11	Noviembre	2023-12-11T00:00:00	2024-11-08T21:00:00	1	Precipitación	0
18720	7	Sololá	712	San Antonio Palopó	9	San Antonio Palopo	11	Noviembre	2023-12-11T00:00:00	2024-11-08T21:00:00	8	Radiación solar	0
18721	7	Sololá	712	San Antonio Palopó	9	San Antonio Palopo	11	Noviembre	2023-12-11T00:00:00	2024-11-08T22:00:00	2	Temperatura media	21
18722	7	Sololá	712	San Antonio Palopó	9	San Antonio Palopo	11	Noviembre	2023-12-11T00:00:00	2024-11-08T22:00:00	4	Temperatura máxima	21.3
18723	7	Sololá	712	San Antonio Palopó	9	San Antonio Palopo	11	Noviembre	2023-12-11T00:00:00	2024-11-08T22:00:00	3	Temperatura mínima	21
18724	7	Sololá	712	San Antonio Palopó	9	San Antonio Palopo	11	Noviembre	2023-12-11T00:00:00	2024-11-08T22:00:00	5	Humedad	68
18725	7	Sololá	712	San Antonio Palopó	9	San Antonio Palopo	11	Noviembre	2023-12-11T00:00:00	2024-11-08T22:00:00	6	Velocidad del viento	6.4
18726	7	Sololá	712	San Antonio Palopó	9	San Antonio Palopo	11	Noviembre	2023-12-11T00:00:00	2024-11-08T22:00:00	7	Dirección del viento	6.44
18727	7	Sololá	712	San Antonio Palopó	9	San Antonio Palopo	11	Noviembre	2023-12-11T00:00:00	2024-11-08T22:00:00	1	Precipitación	0
18728	7	Sololá	712	San Antonio Palopó	9	San Antonio Palopo	11	Noviembre	2023-12-11T00:00:00	2024-11-08T22:00:00	8	Radiación solar	0
18729	7	Sololá	712	San Antonio Palopó	9	San Antonio Palopo	11	Noviembre	2023-12-11T00:00:00	2024-11-08T23:00:00	2	Temperatura media	20.3
18730	7	Sololá	712	San Antonio Palopó	9	San Antonio Palopo	11	Noviembre	2023-12-11T00:00:00	2024-11-08T23:00:00	4	Temperatura máxima	21.2
18731	7	Sololá	712	San Antonio Palopó	9	San Antonio Palopo	11	Noviembre	2023-12-11T00:00:00	2024-11-08T23:00:00	3	Temperatura mínima	20.3
18732	7	Sololá	712	San Antonio Palopó	9	San Antonio Palopo	11	Noviembre	2023-12-11T00:00:00	2024-11-08T23:00:00	5	Humedad	70
18733	7	Sololá	712	San Antonio Palopó	9	San Antonio Palopo	11	Noviembre	2023-12-11T00:00:00	2024-11-08T23:00:00	6	Velocidad del viento	4.8
18734	7	Sololá	712	San Antonio Palopó	9	San Antonio Palopo	11	Noviembre	2023-12-11T00:00:00	2024-11-08T23:00:00	7	Dirección del viento	4.83
18735	7	Sololá	712	San Antonio Palopó	9	San Antonio Palopo	11	Noviembre	2023-12-11T00:00:00	2024-11-08T23:00:00	1	Precipitación	0
18736	7	Sololá	712	San Antonio Palopó	9	San Antonio Palopo	11	Noviembre	2023-12-11T00:00:00	2024-11-08T23:00:00	8	Radiación solar	0
18737	7	Sololá	712	San Antonio Palopó	9	San Antonio Palopo	11	Noviembre	2023-11-13T00:00:00	2024-11-08T00:00:00	2	Temperatura media	20
18738	7	Sololá	712	San Antonio Palopó	9	San Antonio Palopo	11	Noviembre	2023-11-13T00:00:00	2024-11-08T00:00:00	4	Temperatura máxima	21.1
18739	7	Sololá	712	San Antonio Palopó	9	San Antonio Palopo	11	Noviembre	2023-11-13T00:00:00	2024-11-08T00:00:00	3	Temperatura mínima	19.9
18740	7	Sololá	712	San Antonio Palopó	9	San Antonio Palopo	11	Noviembre	2023-11-13T00:00:00	2024-11-08T00:00:00	5	Humedad	70
18741	7	Sololá	712	San Antonio Palopó	9	San Antonio Palopo	11	Noviembre	2023-11-13T00:00:00	2024-11-08T00:00:00	6	Velocidad del viento	4.8
18742	7	Sololá	712	San Antonio Palopó	9	San Antonio Palopo	11	Noviembre	2023-11-13T00:00:00	2024-11-08T00:00:00	7	Dirección del viento	4.83
18743	7	Sololá	712	San Antonio Palopó	9	San Antonio Palopo	11	Noviembre	2023-11-13T00:00:00	2024-11-08T00:00:00	1	Precipitación	0
18744	7	Sololá	712	San Antonio Palopó	9	San Antonio Palopo	11	Noviembre	2023-11-13T00:00:00	2024-11-08T00:00:00	8	Radiación solar	0
18745	7	Sololá	712	San Antonio Palopó	9	San Antonio Palopo	11	Noviembre	2023-11-13T00:00:00	2024-11-08T01:00:00	2	Temperatura media	20.6
18746	7	Sololá	712	San Antonio Palopó	9	San Antonio Palopo	11	Noviembre	2023-11-13T00:00:00	2024-11-08T01:00:00	4	Temperatura máxima	20.6
18747	7	Sololá	712	San Antonio Palopó	9	San Antonio Palopo	11	Noviembre	2023-11-13T00:00:00	2024-11-08T01:00:00	3	Temperatura mínima	20
18748	7	Sololá	712	San Antonio Palopó	9	San Antonio Palopo	11	Noviembre	2023-11-13T00:00:00	2024-11-08T01:00:00	5	Humedad	67
18749	7	Sololá	712	San Antonio Palopó	9	San Antonio Palopo	11	Noviembre	2023-11-13T00:00:00	2024-11-08T01:00:00	6	Velocidad del viento	6.4
18750	7	Sololá	712	San Antonio Palopó	9	San Antonio Palopo	11	Noviembre	2023-11-13T00:00:00	2024-11-08T01:00:00	7	Dirección del viento	6.44
18751	7	Sololá	712	San Antonio Palopó	9	San Antonio Palopo	11	Noviembre	2023-11-13T00:00:00	2024-11-08T01:00:00	1	Precipitación	0
18752	7	Sololá	712	San Antonio Palopó	9	San Antonio Palopo	11	Noviembre	2023-11-13T00:00:00	2024-11-08T01:00:00	8	Radiación solar	0
18753	7	Sololá	712	San Antonio Palopó	9	San Antonio Palopo	11	Noviembre	2023-11-13T00:00:00	2024-11-08T02:00:00	2	Temperatura media	19.7
18754	7	Sololá	712	San Antonio Palopó	9	San Antonio Palopo	11	Noviembre	2023-11-13T00:00:00	2024-11-08T02:00:00	4	Temperatura máxima	20.6
18755	7	Sololá	712	San Antonio Palopó	9	San Antonio Palopo	11	Noviembre	2023-11-13T00:00:00	2024-11-08T02:00:00	3	Temperatura mínima	19.1
18756	7	Sololá	712	San Antonio Palopó	9	San Antonio Palopo	11	Noviembre	2023-11-13T00:00:00	2024-11-08T02:00:00	5	Humedad	69
18757	7	Sololá	712	San Antonio Palopó	9	San Antonio Palopo	11	Noviembre	2023-11-13T00:00:00	2024-11-08T02:00:00	6	Velocidad del viento	4.8
18758	7	Sololá	712	San Antonio Palopó	9	San Antonio Palopo	11	Noviembre	2023-11-13T00:00:00	2024-11-08T02:00:00	7	Dirección del viento	4.83
18759	7	Sololá	712	San Antonio Palopó	9	San Antonio Palopo	11	Noviembre	2023-11-13T00:00:00	2024-11-08T02:00:00	1	Precipitación	0
18760	7	Sololá	712	San Antonio Palopó	9	San Antonio Palopo	11	Noviembre	2023-11-13T00:00:00	2024-11-08T02:00:00	8	Radiación solar	0
18761	7	Sololá	712	San Antonio Palopó	9	San Antonio Palopo	11	Noviembre	2023-11-13T00:00:00	2024-11-08T03:00:00	2	Temperatura media	19.2
18762	7	Sololá	712	San Antonio Palopó	9	San Antonio Palopo	11	Noviembre	2023-11-13T00:00:00	2024-11-08T03:00:00	4	Temperatura máxima	19.8
18763	7	Sololá	712	San Antonio Palopó	9	San Antonio Palopo	11	Noviembre	2023-11-13T00:00:00	2024-11-08T03:00:00	3	Temperatura mínima	19.2
18764	7	Sololá	712	San Antonio Palopó	9	San Antonio Palopo	11	Noviembre	2023-11-13T00:00:00	2024-11-08T03:00:00	5	Humedad	67
18765	7	Sololá	712	San Antonio Palopó	9	San Antonio Palopo	11	Noviembre	2023-11-13T00:00:00	2024-11-08T03:00:00	6	Velocidad del viento	6.4
18766	7	Sololá	712	San Antonio Palopó	9	San Antonio Palopo	11	Noviembre	2023-11-13T00:00:00	2024-11-08T03:00:00	7	Dirección del viento	6.44
18767	7	Sololá	712	San Antonio Palopó	9	San Antonio Palopo	11	Noviembre	2023-11-13T00:00:00	2024-11-08T03:00:00	1	Precipitación	0
18768	7	Sololá	712	San Antonio Palopó	9	San Antonio Palopo	11	Noviembre	2023-11-13T00:00:00	2024-11-08T03:00:00	8	Radiación solar	0
18769	7	Sololá	712	San Antonio Palopó	9	San Antonio Palopo	11	Noviembre	2023-11-13T00:00:00	2024-11-08T04:00:00	2	Temperatura media	19.8
18770	7	Sololá	712	San Antonio Palopó	9	San Antonio Palopo	11	Noviembre	2023-11-13T00:00:00	2024-11-08T04:00:00	4	Temperatura máxima	20.2
18771	7	Sololá	712	San Antonio Palopó	9	San Antonio Palopo	11	Noviembre	2023-11-13T00:00:00	2024-11-08T04:00:00	3	Temperatura mínima	19.2
18772	7	Sololá	712	San Antonio Palopó	9	San Antonio Palopo	11	Noviembre	2023-11-13T00:00:00	2024-11-08T04:00:00	5	Humedad	66
18773	7	Sololá	712	San Antonio Palopó	9	San Antonio Palopo	11	Noviembre	2023-11-13T00:00:00	2024-11-08T04:00:00	6	Velocidad del viento	6.4
18774	7	Sololá	712	San Antonio Palopó	9	San Antonio Palopo	11	Noviembre	2023-11-13T00:00:00	2024-11-08T04:00:00	7	Dirección del viento	6.44
18775	7	Sololá	712	San Antonio Palopó	9	San Antonio Palopo	11	Noviembre	2023-11-13T00:00:00	2024-11-08T04:00:00	1	Precipitación	0
18776	7	Sololá	712	San Antonio Palopó	9	San Antonio Palopo	11	Noviembre	2023-11-13T00:00:00	2024-11-08T04:00:00	8	Radiación solar	0
18777	7	Sololá	712	San Antonio Palopó	9	San Antonio Palopo	11	Noviembre	2023-11-13T00:00:00	2024-11-08T05:00:00	2	Temperatura media	18.9
18778	7	Sololá	712	San Antonio Palopó	9	San Antonio Palopo	11	Noviembre	2023-11-13T00:00:00	2024-11-08T05:00:00	4	Temperatura máxima	19.8
18779	7	Sololá	712	San Antonio Palopó	9	San Antonio Palopo	11	Noviembre	2023-11-13T00:00:00	2024-11-08T05:00:00	3	Temperatura mínima	18.9
18780	7	Sololá	712	San Antonio Palopó	9	San Antonio Palopo	11	Noviembre	2023-11-13T00:00:00	2024-11-08T05:00:00	5	Humedad	70
18781	7	Sololá	712	San Antonio Palopó	9	San Antonio Palopo	11	Noviembre	2023-11-13T00:00:00	2024-11-08T05:00:00	6	Velocidad del viento	4.8
18782	7	Sololá	712	San Antonio Palopó	9	San Antonio Palopo	11	Noviembre	2023-11-13T00:00:00	2024-11-08T05:00:00	7	Dirección del viento	4.83
18783	7	Sololá	712	San Antonio Palopó	9	San Antonio Palopo	11	Noviembre	2023-11-13T00:00:00	2024-11-08T05:00:00	1	Precipitación	0
18784	7	Sololá	712	San Antonio Palopó	9	San Antonio Palopo	11	Noviembre	2023-11-13T00:00:00	2024-11-08T05:00:00	8	Radiación solar	0
18785	7	Sololá	712	San Antonio Palopó	9	San Antonio Palopo	11	Noviembre	2023-11-13T00:00:00	2024-11-08T06:00:00	2	Temperatura media	18.2
18786	7	Sololá	712	San Antonio Palopó	9	San Antonio Palopo	11	Noviembre	2023-11-13T00:00:00	2024-11-08T06:00:00	4	Temperatura máxima	19.6
18787	7	Sololá	712	San Antonio Palopó	9	San Antonio Palopo	11	Noviembre	2023-11-13T00:00:00	2024-11-08T06:00:00	3	Temperatura mínima	18.2
18788	7	Sololá	712	San Antonio Palopó	9	San Antonio Palopo	11	Noviembre	2023-11-13T00:00:00	2024-11-08T06:00:00	5	Humedad	74
18789	7	Sololá	712	San Antonio Palopó	9	San Antonio Palopo	11	Noviembre	2023-11-13T00:00:00	2024-11-08T06:00:00	6	Velocidad del viento	4.8
18790	7	Sololá	712	San Antonio Palopó	9	San Antonio Palopo	11	Noviembre	2023-11-13T00:00:00	2024-11-08T06:00:00	7	Dirección del viento	4.83
18791	7	Sololá	712	San Antonio Palopó	9	San Antonio Palopo	11	Noviembre	2023-11-13T00:00:00	2024-11-08T06:00:00	1	Precipitación	0
18792	7	Sololá	712	San Antonio Palopó	9	San Antonio Palopo	11	Noviembre	2023-11-13T00:00:00	2024-11-08T06:00:00	8	Radiación solar	0
18793	7	Sololá	712	San Antonio Palopó	9	San Antonio Palopo	11	Noviembre	2023-11-13T00:00:00	2024-11-08T07:00:00	2	Temperatura media	19.4
18794	7	Sololá	712	San Antonio Palopó	9	San Antonio Palopo	11	Noviembre	2023-11-13T00:00:00	2024-11-08T07:00:00	4	Temperatura máxima	19.4
18795	7	Sololá	712	San Antonio Palopó	9	San Antonio Palopo	11	Noviembre	2023-11-13T00:00:00	2024-11-08T07:00:00	3	Temperatura mínima	18
18796	7	Sololá	712	San Antonio Palopó	9	San Antonio Palopo	11	Noviembre	2023-11-13T00:00:00	2024-11-08T07:00:00	5	Humedad	72
18797	7	Sololá	712	San Antonio Palopó	9	San Antonio Palopo	11	Noviembre	2023-11-13T00:00:00	2024-11-08T07:00:00	6	Velocidad del viento	3.2
18798	7	Sololá	712	San Antonio Palopó	9	San Antonio Palopo	11	Noviembre	2023-11-13T00:00:00	2024-11-08T07:00:00	7	Dirección del viento	3.22
18799	7	Sololá	712	San Antonio Palopó	9	San Antonio Palopo	11	Noviembre	2023-11-13T00:00:00	2024-11-08T07:00:00	1	Precipitación	0
18800	7	Sololá	712	San Antonio Palopó	9	San Antonio Palopo	11	Noviembre	2023-11-13T00:00:00	2024-11-08T07:00:00	8	Radiación solar	15
18801	7	Sololá	712	San Antonio Palopó	9	San Antonio Palopo	11	Noviembre	2023-11-13T00:00:00	2024-11-08T08:00:00	2	Temperatura media	20.3
18802	7	Sololá	712	San Antonio Palopó	9	San Antonio Palopo	11	Noviembre	2023-11-13T00:00:00	2024-11-08T08:00:00	4	Temperatura máxima	20.4
18803	7	Sololá	712	San Antonio Palopó	9	San Antonio Palopo	11	Noviembre	2023-11-13T00:00:00	2024-11-08T08:00:00	3	Temperatura mínima	19.4
18804	7	Sololá	712	San Antonio Palopó	9	San Antonio Palopo	11	Noviembre	2023-11-13T00:00:00	2024-11-08T08:00:00	5	Humedad	71
18805	7	Sololá	712	San Antonio Palopó	9	San Antonio Palopo	11	Noviembre	2023-11-13T00:00:00	2024-11-08T08:00:00	6	Velocidad del viento	4.8
18806	7	Sololá	712	San Antonio Palopó	9	San Antonio Palopo	11	Noviembre	2023-11-13T00:00:00	2024-11-08T08:00:00	7	Dirección del viento	4.83
18807	7	Sololá	712	San Antonio Palopó	9	San Antonio Palopo	11	Noviembre	2023-11-13T00:00:00	2024-11-08T08:00:00	1	Precipitación	0
18808	7	Sololá	712	San Antonio Palopó	9	San Antonio Palopo	11	Noviembre	2023-11-13T00:00:00	2024-11-08T08:00:00	8	Radiación solar	42
18809	7	Sololá	712	San Antonio Palopó	9	San Antonio Palopo	11	Noviembre	2023-11-13T00:00:00	2024-11-08T09:00:00	2	Temperatura media	23.4
18810	7	Sololá	712	San Antonio Palopó	9	San Antonio Palopo	11	Noviembre	2023-11-13T00:00:00	2024-11-08T09:00:00	4	Temperatura máxima	23.4
18811	7	Sololá	712	San Antonio Palopó	9	San Antonio Palopo	11	Noviembre	2023-11-13T00:00:00	2024-11-08T09:00:00	3	Temperatura mínima	20.3
18812	7	Sololá	712	San Antonio Palopó	9	San Antonio Palopo	11	Noviembre	2023-11-13T00:00:00	2024-11-08T09:00:00	5	Humedad	64
18813	7	Sololá	712	San Antonio Palopó	9	San Antonio Palopo	11	Noviembre	2023-11-13T00:00:00	2024-11-08T09:00:00	6	Velocidad del viento	3.2
18814	7	Sololá	712	San Antonio Palopó	9	San Antonio Palopo	11	Noviembre	2023-11-13T00:00:00	2024-11-08T09:00:00	7	Dirección del viento	3.22
18815	7	Sololá	712	San Antonio Palopó	9	San Antonio Palopo	11	Noviembre	2023-11-13T00:00:00	2024-11-08T09:00:00	1	Precipitación	0
18816	7	Sololá	712	San Antonio Palopó	9	San Antonio Palopo	11	Noviembre	2023-11-13T00:00:00	2024-11-08T09:00:00	8	Radiación solar	417
18817	7	Sololá	712	San Antonio Palopó	9	San Antonio Palopo	11	Noviembre	2023-11-13T00:00:00	2024-11-08T10:00:00	2	Temperatura media	24.4
18818	7	Sololá	712	San Antonio Palopó	9	San Antonio Palopo	11	Noviembre	2023-11-13T00:00:00	2024-11-08T10:00:00	4	Temperatura máxima	24.5
18819	7	Sololá	712	San Antonio Palopó	9	San Antonio Palopo	11	Noviembre	2023-11-13T00:00:00	2024-11-08T10:00:00	3	Temperatura mínima	23.4
18820	7	Sololá	712	San Antonio Palopó	9	San Antonio Palopo	11	Noviembre	2023-11-13T00:00:00	2024-11-08T10:00:00	5	Humedad	60
18821	7	Sololá	712	San Antonio Palopó	9	San Antonio Palopo	11	Noviembre	2023-11-13T00:00:00	2024-11-08T10:00:00	6	Velocidad del viento	1.6
18822	7	Sololá	712	San Antonio Palopó	9	San Antonio Palopo	11	Noviembre	2023-11-13T00:00:00	2024-11-08T10:00:00	7	Dirección del viento	1.61
18823	7	Sololá	712	San Antonio Palopó	9	San Antonio Palopo	11	Noviembre	2023-11-13T00:00:00	2024-11-08T10:00:00	1	Precipitación	0
18824	7	Sololá	712	San Antonio Palopó	9	San Antonio Palopo	11	Noviembre	2023-11-13T00:00:00	2024-11-08T10:00:00	8	Radiación solar	498
18825	7	Sololá	712	San Antonio Palopó	9	San Antonio Palopo	11	Noviembre	2023-11-13T00:00:00	2024-11-08T11:00:00	2	Temperatura media	24.6
18826	7	Sololá	712	San Antonio Palopó	9	San Antonio Palopo	11	Noviembre	2023-11-13T00:00:00	2024-11-08T11:00:00	4	Temperatura máxima	24.9
18827	7	Sololá	712	San Antonio Palopó	9	San Antonio Palopo	11	Noviembre	2023-11-13T00:00:00	2024-11-08T11:00:00	3	Temperatura mínima	23.9
18828	7	Sololá	712	San Antonio Palopó	9	San Antonio Palopo	11	Noviembre	2023-11-13T00:00:00	2024-11-08T11:00:00	5	Humedad	61
18829	7	Sololá	712	San Antonio Palopó	9	San Antonio Palopo	11	Noviembre	2023-11-13T00:00:00	2024-11-08T11:00:00	6	Velocidad del viento	1.6
18830	7	Sololá	712	San Antonio Palopó	9	San Antonio Palopo	11	Noviembre	2023-11-13T00:00:00	2024-11-08T11:00:00	7	Dirección del viento	1.61
18831	7	Sololá	712	San Antonio Palopó	9	San Antonio Palopo	11	Noviembre	2023-11-13T00:00:00	2024-11-08T11:00:00	1	Precipitación	0
18832	7	Sololá	712	San Antonio Palopó	9	San Antonio Palopo	11	Noviembre	2023-11-13T00:00:00	2024-11-08T11:00:00	8	Radiación solar	611
18833	7	Sololá	712	San Antonio Palopó	9	San Antonio Palopo	11	Noviembre	2023-11-13T00:00:00	2024-11-08T12:00:00	2	Temperatura media	25.1
18834	7	Sololá	712	San Antonio Palopó	9	San Antonio Palopo	11	Noviembre	2023-11-13T00:00:00	2024-11-08T12:00:00	4	Temperatura máxima	25.4
18835	7	Sololá	712	San Antonio Palopó	9	San Antonio Palopo	11	Noviembre	2023-11-13T00:00:00	2024-11-08T12:00:00	3	Temperatura mínima	23.9
18836	7	Sololá	712	San Antonio Palopó	9	San Antonio Palopo	11	Noviembre	2023-11-13T00:00:00	2024-11-08T12:00:00	5	Humedad	61
18837	7	Sololá	712	San Antonio Palopó	9	San Antonio Palopo	11	Noviembre	2023-11-13T00:00:00	2024-11-08T12:00:00	6	Velocidad del viento	3.2
18838	7	Sololá	712	San Antonio Palopó	9	San Antonio Palopo	11	Noviembre	2023-11-13T00:00:00	2024-11-08T12:00:00	7	Dirección del viento	3.22
18839	7	Sololá	712	San Antonio Palopó	9	San Antonio Palopo	11	Noviembre	2023-11-13T00:00:00	2024-11-08T12:00:00	1	Precipitación	0
18840	7	Sololá	712	San Antonio Palopó	9	San Antonio Palopo	11	Noviembre	2023-11-13T00:00:00	2024-11-08T12:00:00	8	Radiación solar	315
18841	7	Sololá	712	San Antonio Palopó	9	San Antonio Palopo	11	Noviembre	2023-11-13T00:00:00	2024-11-08T13:00:00	2	Temperatura media	25.8
18842	7	Sololá	712	San Antonio Palopó	9	San Antonio Palopo	11	Noviembre	2023-11-13T00:00:00	2024-11-08T13:00:00	4	Temperatura máxima	25.8
18843	7	Sololá	712	San Antonio Palopó	9	San Antonio Palopo	11	Noviembre	2023-11-13T00:00:00	2024-11-08T13:00:00	3	Temperatura mínima	24.5
18844	7	Sololá	712	San Antonio Palopó	9	San Antonio Palopo	11	Noviembre	2023-11-13T00:00:00	2024-11-08T13:00:00	5	Humedad	57
18845	7	Sololá	712	San Antonio Palopó	9	San Antonio Palopo	11	Noviembre	2023-11-13T00:00:00	2024-11-08T13:00:00	6	Velocidad del viento	6.4
18846	7	Sololá	712	San Antonio Palopó	9	San Antonio Palopo	11	Noviembre	2023-11-13T00:00:00	2024-11-08T13:00:00	7	Dirección del viento	6.44
18847	7	Sololá	712	San Antonio Palopó	9	San Antonio Palopo	11	Noviembre	2023-11-13T00:00:00	2024-11-08T13:00:00	1	Precipitación	0
18848	7	Sololá	712	San Antonio Palopó	9	San Antonio Palopo	11	Noviembre	2023-11-13T00:00:00	2024-11-08T13:00:00	8	Radiación solar	297
18849	7	Sololá	712	San Antonio Palopó	9	San Antonio Palopo	11	Noviembre	2023-11-13T00:00:00	2024-11-08T14:00:00	2	Temperatura media	25.1
18850	7	Sololá	712	San Antonio Palopó	9	San Antonio Palopo	11	Noviembre	2023-11-13T00:00:00	2024-11-08T14:00:00	4	Temperatura máxima	26.3
18851	7	Sololá	712	San Antonio Palopó	9	San Antonio Palopo	11	Noviembre	2023-11-13T00:00:00	2024-11-08T14:00:00	3	Temperatura mínima	25.1
18852	7	Sololá	712	San Antonio Palopó	9	San Antonio Palopo	11	Noviembre	2023-11-13T00:00:00	2024-11-08T14:00:00	5	Humedad	66
18853	7	Sololá	712	San Antonio Palopó	9	San Antonio Palopo	11	Noviembre	2023-11-13T00:00:00	2024-11-08T14:00:00	6	Velocidad del viento	6.4
18854	7	Sololá	712	San Antonio Palopó	9	San Antonio Palopo	11	Noviembre	2023-11-13T00:00:00	2024-11-08T14:00:00	7	Dirección del viento	6.44
18855	7	Sololá	712	San Antonio Palopó	9	San Antonio Palopo	11	Noviembre	2023-11-13T00:00:00	2024-11-08T14:00:00	1	Precipitación	0
18856	7	Sololá	712	San Antonio Palopó	9	San Antonio Palopo	11	Noviembre	2023-11-13T00:00:00	2024-11-08T14:00:00	8	Radiación solar	300
18857	7	Sololá	712	San Antonio Palopó	9	San Antonio Palopo	11	Noviembre	2023-11-13T00:00:00	2024-11-08T15:00:00	2	Temperatura media	25.6
18858	7	Sololá	712	San Antonio Palopó	9	San Antonio Palopo	11	Noviembre	2023-11-13T00:00:00	2024-11-08T15:00:00	4	Temperatura máxima	25.7
18859	7	Sololá	712	San Antonio Palopó	9	San Antonio Palopo	11	Noviembre	2023-11-13T00:00:00	2024-11-08T15:00:00	3	Temperatura mínima	24.3
18860	7	Sololá	712	San Antonio Palopó	9	San Antonio Palopo	11	Noviembre	2023-11-13T00:00:00	2024-11-08T15:00:00	5	Humedad	60
18861	7	Sololá	712	San Antonio Palopó	9	San Antonio Palopo	11	Noviembre	2023-11-13T00:00:00	2024-11-08T15:00:00	6	Velocidad del viento	6.4
18862	7	Sololá	712	San Antonio Palopó	9	San Antonio Palopo	11	Noviembre	2023-11-13T00:00:00	2024-11-08T15:00:00	7	Dirección del viento	6.44
18863	7	Sololá	712	San Antonio Palopó	9	San Antonio Palopo	11	Noviembre	2023-11-13T00:00:00	2024-11-08T15:00:00	1	Precipitación	0
18864	7	Sololá	712	San Antonio Palopó	9	San Antonio Palopo	11	Noviembre	2023-11-13T00:00:00	2024-11-08T15:00:00	8	Radiación solar	212
18865	7	Sololá	712	San Antonio Palopó	9	San Antonio Palopo	11	Noviembre	2023-11-13T00:00:00	2024-11-08T16:00:00	2	Temperatura media	24.4
18866	7	Sololá	712	San Antonio Palopó	9	San Antonio Palopo	11	Noviembre	2023-11-13T00:00:00	2024-11-08T16:00:00	4	Temperatura máxima	26.9
18867	7	Sololá	712	San Antonio Palopó	9	San Antonio Palopo	11	Noviembre	2023-11-13T00:00:00	2024-11-08T16:00:00	3	Temperatura mínima	24.4
18868	7	Sololá	712	San Antonio Palopó	9	San Antonio Palopo	11	Noviembre	2023-11-13T00:00:00	2024-11-08T16:00:00	5	Humedad	71
18869	7	Sololá	712	San Antonio Palopó	9	San Antonio Palopo	11	Noviembre	2023-11-13T00:00:00	2024-11-08T16:00:00	6	Velocidad del viento	6.4
18870	7	Sololá	712	San Antonio Palopó	9	San Antonio Palopo	11	Noviembre	2023-11-13T00:00:00	2024-11-08T16:00:00	7	Dirección del viento	6.44
18871	7	Sololá	712	San Antonio Palopó	9	San Antonio Palopo	11	Noviembre	2023-11-13T00:00:00	2024-11-08T16:00:00	1	Precipitación	0
18872	7	Sololá	712	San Antonio Palopó	9	San Antonio Palopo	11	Noviembre	2023-11-13T00:00:00	2024-11-08T16:00:00	8	Radiación solar	277
18873	7	Sololá	712	San Antonio Palopó	9	San Antonio Palopo	11	Noviembre	2023-11-13T00:00:00	2024-11-08T17:00:00	2	Temperatura media	22.1
18874	7	Sololá	712	San Antonio Palopó	9	San Antonio Palopo	11	Noviembre	2023-11-13T00:00:00	2024-11-08T17:00:00	4	Temperatura máxima	24.4
18875	7	Sololá	712	San Antonio Palopó	9	San Antonio Palopo	11	Noviembre	2023-11-13T00:00:00	2024-11-08T17:00:00	3	Temperatura mínima	22.1
18876	7	Sololá	712	San Antonio Palopó	9	San Antonio Palopo	11	Noviembre	2023-11-13T00:00:00	2024-11-08T17:00:00	5	Humedad	78
18877	7	Sololá	712	San Antonio Palopó	9	San Antonio Palopo	11	Noviembre	2023-11-13T00:00:00	2024-11-08T17:00:00	6	Velocidad del viento	6.4
18878	7	Sololá	712	San Antonio Palopó	9	San Antonio Palopo	11	Noviembre	2023-11-13T00:00:00	2024-11-08T17:00:00	7	Dirección del viento	6.44
18879	7	Sololá	712	San Antonio Palopó	9	San Antonio Palopo	11	Noviembre	2023-11-13T00:00:00	2024-11-08T17:00:00	1	Precipitación	0
18880	7	Sololá	712	San Antonio Palopó	9	San Antonio Palopo	11	Noviembre	2023-11-13T00:00:00	2024-11-08T17:00:00	8	Radiación solar	60
18881	7	Sololá	712	San Antonio Palopó	9	San Antonio Palopo	11	Noviembre	2023-11-13T00:00:00	2024-11-08T18:00:00	2	Temperatura media	22.3
18882	7	Sololá	712	San Antonio Palopó	9	San Antonio Palopo	11	Noviembre	2023-11-13T00:00:00	2024-11-08T18:00:00	4	Temperatura máxima	22.6
18883	7	Sololá	712	San Antonio Palopó	9	San Antonio Palopo	11	Noviembre	2023-11-13T00:00:00	2024-11-08T18:00:00	3	Temperatura mínima	22.1
18884	7	Sololá	712	San Antonio Palopó	9	San Antonio Palopo	11	Noviembre	2023-11-13T00:00:00	2024-11-08T18:00:00	5	Humedad	79
18885	7	Sololá	712	San Antonio Palopó	9	San Antonio Palopo	11	Noviembre	2023-11-13T00:00:00	2024-11-08T18:00:00	6	Velocidad del viento	4.8
18886	7	Sololá	712	San Antonio Palopó	9	San Antonio Palopo	11	Noviembre	2023-11-13T00:00:00	2024-11-08T18:00:00	7	Dirección del viento	4.83
18887	7	Sololá	712	San Antonio Palopó	9	San Antonio Palopo	11	Noviembre	2023-11-13T00:00:00	2024-11-08T18:00:00	1	Precipitación	0
18888	7	Sololá	712	San Antonio Palopó	9	San Antonio Palopo	11	Noviembre	2023-11-13T00:00:00	2024-11-08T18:00:00	8	Radiación solar	15
18889	7	Sololá	712	San Antonio Palopó	9	San Antonio Palopo	11	Noviembre	2023-11-13T00:00:00	2024-11-08T19:00:00	2	Temperatura media	22.2
18890	7	Sololá	712	San Antonio Palopó	9	San Antonio Palopo	11	Noviembre	2023-11-13T00:00:00	2024-11-08T19:00:00	4	Temperatura máxima	22.5
18891	7	Sololá	712	San Antonio Palopó	9	San Antonio Palopo	11	Noviembre	2023-11-13T00:00:00	2024-11-08T19:00:00	3	Temperatura mínima	22.2
18892	7	Sololá	712	San Antonio Palopó	9	San Antonio Palopo	11	Noviembre	2023-11-13T00:00:00	2024-11-08T19:00:00	5	Humedad	70
18893	7	Sololá	712	San Antonio Palopó	9	San Antonio Palopo	11	Noviembre	2023-11-13T00:00:00	2024-11-08T19:00:00	6	Velocidad del viento	4.8
18894	7	Sololá	712	San Antonio Palopó	9	San Antonio Palopo	11	Noviembre	2023-11-13T00:00:00	2024-11-08T19:00:00	7	Dirección del viento	4.83
18895	7	Sololá	712	San Antonio Palopó	9	San Antonio Palopo	11	Noviembre	2023-11-13T00:00:00	2024-11-08T19:00:00	1	Precipitación	0
18896	7	Sololá	712	San Antonio Palopó	9	San Antonio Palopo	11	Noviembre	2023-11-13T00:00:00	2024-11-08T19:00:00	8	Radiación solar	0
18897	7	Sololá	712	San Antonio Palopó	9	San Antonio Palopo	11	Noviembre	2023-11-13T00:00:00	2024-11-08T20:00:00	2	Temperatura media	22.4
18898	7	Sololá	712	San Antonio Palopó	9	San Antonio Palopo	11	Noviembre	2023-11-13T00:00:00	2024-11-08T20:00:00	4	Temperatura máxima	22.5
18899	7	Sololá	712	San Antonio Palopó	9	San Antonio Palopo	11	Noviembre	2023-11-13T00:00:00	2024-11-08T20:00:00	3	Temperatura mínima	22.2
18900	7	Sololá	712	San Antonio Palopó	9	San Antonio Palopo	11	Noviembre	2023-11-13T00:00:00	2024-11-08T20:00:00	5	Humedad	68
18901	7	Sololá	712	San Antonio Palopó	9	San Antonio Palopo	11	Noviembre	2023-11-13T00:00:00	2024-11-08T20:00:00	6	Velocidad del viento	4.8
18902	7	Sololá	712	San Antonio Palopó	9	San Antonio Palopo	11	Noviembre	2023-11-13T00:00:00	2024-11-08T20:00:00	7	Dirección del viento	4.83
18903	7	Sololá	712	San Antonio Palopó	9	San Antonio Palopo	11	Noviembre	2023-11-13T00:00:00	2024-11-08T20:00:00	1	Precipitación	0
18904	7	Sololá	712	San Antonio Palopó	9	San Antonio Palopo	11	Noviembre	2023-11-13T00:00:00	2024-11-08T20:00:00	8	Radiación solar	0
18905	7	Sololá	712	San Antonio Palopó	9	San Antonio Palopo	11	Noviembre	2023-11-13T00:00:00	2024-11-08T21:00:00	2	Temperatura media	21.8
18906	7	Sololá	712	San Antonio Palopó	9	San Antonio Palopo	11	Noviembre	2023-11-13T00:00:00	2024-11-08T21:00:00	4	Temperatura máxima	22.5
18907	7	Sololá	712	San Antonio Palopó	9	San Antonio Palopo	11	Noviembre	2023-11-13T00:00:00	2024-11-08T21:00:00	3	Temperatura mínima	21.8
18908	7	Sololá	712	San Antonio Palopó	9	San Antonio Palopo	11	Noviembre	2023-11-13T00:00:00	2024-11-08T21:00:00	5	Humedad	72
18909	7	Sololá	712	San Antonio Palopó	9	San Antonio Palopo	11	Noviembre	2023-11-13T00:00:00	2024-11-08T21:00:00	6	Velocidad del viento	3.2
18910	7	Sololá	712	San Antonio Palopó	9	San Antonio Palopo	11	Noviembre	2023-11-13T00:00:00	2024-11-08T21:00:00	7	Dirección del viento	3.22
18911	7	Sololá	712	San Antonio Palopó	9	San Antonio Palopo	11	Noviembre	2023-11-13T00:00:00	2024-11-08T21:00:00	1	Precipitación	0
18912	7	Sololá	712	San Antonio Palopó	9	San Antonio Palopo	11	Noviembre	2023-11-13T00:00:00	2024-11-08T21:00:00	8	Radiación solar	0
18913	7	Sololá	712	San Antonio Palopó	9	San Antonio Palopo	11	Noviembre	2023-11-13T00:00:00	2024-11-08T22:00:00	2	Temperatura media	21.4
18914	7	Sololá	712	San Antonio Palopó	9	San Antonio Palopo	11	Noviembre	2023-11-13T00:00:00	2024-11-08T22:00:00	4	Temperatura máxima	21.8
18915	7	Sololá	712	San Antonio Palopó	9	San Antonio Palopo	11	Noviembre	2023-11-13T00:00:00	2024-11-08T22:00:00	3	Temperatura mínima	21.4
18916	7	Sololá	712	San Antonio Palopó	9	San Antonio Palopo	11	Noviembre	2023-11-13T00:00:00	2024-11-08T22:00:00	5	Humedad	72
18917	7	Sololá	712	San Antonio Palopó	9	San Antonio Palopo	11	Noviembre	2023-11-13T00:00:00	2024-11-08T22:00:00	6	Velocidad del viento	8
18918	7	Sololá	712	San Antonio Palopó	9	San Antonio Palopo	11	Noviembre	2023-11-13T00:00:00	2024-11-08T22:00:00	7	Dirección del viento	8.05
18919	7	Sololá	712	San Antonio Palopó	9	San Antonio Palopo	11	Noviembre	2023-11-13T00:00:00	2024-11-08T22:00:00	1	Precipitación	0
18920	7	Sololá	712	San Antonio Palopó	9	San Antonio Palopo	11	Noviembre	2023-11-13T00:00:00	2024-11-08T22:00:00	8	Radiación solar	0
18921	7	Sololá	712	San Antonio Palopó	9	San Antonio Palopo	11	Noviembre	2023-11-13T00:00:00	2024-11-08T23:00:00	2	Temperatura media	21.3
18922	7	Sololá	712	San Antonio Palopó	9	San Antonio Palopo	11	Noviembre	2023-11-13T00:00:00	2024-11-08T23:00:00	4	Temperatura máxima	21.4
18923	7	Sololá	712	San Antonio Palopó	9	San Antonio Palopo	11	Noviembre	2023-11-13T00:00:00	2024-11-08T23:00:00	3	Temperatura mínima	21.3
18924	7	Sololá	712	San Antonio Palopó	9	San Antonio Palopo	11	Noviembre	2023-11-13T00:00:00	2024-11-08T23:00:00	5	Humedad	72
18925	7	Sololá	712	San Antonio Palopó	9	San Antonio Palopo	11	Noviembre	2023-11-13T00:00:00	2024-11-08T23:00:00	6	Velocidad del viento	6.4
18926	7	Sololá	712	San Antonio Palopó	9	San Antonio Palopo	11	Noviembre	2023-11-13T00:00:00	2024-11-08T23:00:00	7	Dirección del viento	6.44
18927	7	Sololá	712	San Antonio Palopó	9	San Antonio Palopo	11	Noviembre	2023-11-13T00:00:00	2024-11-08T23:00:00	1	Precipitación	0
18928	7	Sololá	712	San Antonio Palopó	9	San Antonio Palopo	11	Noviembre	2023-11-13T00:00:00	2024-11-08T23:00:00	8	Radiación solar	0
18929	7	Sololá	712	San Antonio Palopó	9	San Antonio Palopo	11	Noviembre	2023-11-14T00:00:00	2024-11-08T00:00:00	2	Temperatura media	21.1
18930	7	Sololá	712	San Antonio Palopó	9	San Antonio Palopo	11	Noviembre	2023-11-14T00:00:00	2024-11-08T00:00:00	4	Temperatura máxima	21.4
18931	7	Sololá	712	San Antonio Palopó	9	San Antonio Palopo	11	Noviembre	2023-11-14T00:00:00	2024-11-08T00:00:00	3	Temperatura mínima	21.1
18932	7	Sololá	712	San Antonio Palopó	9	San Antonio Palopo	11	Noviembre	2023-11-14T00:00:00	2024-11-08T00:00:00	5	Humedad	73
18933	7	Sololá	712	San Antonio Palopó	9	San Antonio Palopo	11	Noviembre	2023-11-14T00:00:00	2024-11-08T00:00:00	6	Velocidad del viento	9.7
18934	7	Sololá	712	San Antonio Palopó	9	San Antonio Palopo	11	Noviembre	2023-11-14T00:00:00	2024-11-08T00:00:00	7	Dirección del viento	9.66
18935	7	Sololá	712	San Antonio Palopó	9	San Antonio Palopo	11	Noviembre	2023-11-14T00:00:00	2024-11-08T00:00:00	1	Precipitación	0
18936	7	Sololá	712	San Antonio Palopó	9	San Antonio Palopo	11	Noviembre	2023-11-14T00:00:00	2024-11-08T00:00:00	8	Radiación solar	0
18937	7	Sololá	712	San Antonio Palopó	9	San Antonio Palopo	11	Noviembre	2023-11-14T00:00:00	2024-11-08T01:00:00	2	Temperatura media	20.9
18938	7	Sololá	712	San Antonio Palopó	9	San Antonio Palopo	11	Noviembre	2023-11-14T00:00:00	2024-11-08T01:00:00	4	Temperatura máxima	21.2
18939	7	Sololá	712	San Antonio Palopó	9	San Antonio Palopo	11	Noviembre	2023-11-14T00:00:00	2024-11-08T01:00:00	3	Temperatura mínima	20.9
18940	7	Sololá	712	San Antonio Palopó	9	San Antonio Palopo	11	Noviembre	2023-11-14T00:00:00	2024-11-08T01:00:00	5	Humedad	72
18941	7	Sololá	712	San Antonio Palopó	9	San Antonio Palopo	11	Noviembre	2023-11-14T00:00:00	2024-11-08T01:00:00	6	Velocidad del viento	9.7
18942	7	Sololá	712	San Antonio Palopó	9	San Antonio Palopo	11	Noviembre	2023-11-14T00:00:00	2024-11-08T01:00:00	7	Dirección del viento	9.66
18943	7	Sololá	712	San Antonio Palopó	9	San Antonio Palopo	11	Noviembre	2023-11-14T00:00:00	2024-11-08T01:00:00	1	Precipitación	0
18944	7	Sololá	712	San Antonio Palopó	9	San Antonio Palopo	11	Noviembre	2023-11-14T00:00:00	2024-11-08T01:00:00	8	Radiación solar	0
18945	7	Sololá	712	San Antonio Palopó	9	San Antonio Palopo	11	Noviembre	2023-11-14T00:00:00	2024-11-08T02:00:00	2	Temperatura media	20.4
18946	7	Sololá	712	San Antonio Palopó	9	San Antonio Palopo	11	Noviembre	2023-11-14T00:00:00	2024-11-08T02:00:00	4	Temperatura máxima	20.9
18947	7	Sololá	712	San Antonio Palopó	9	San Antonio Palopo	11	Noviembre	2023-11-14T00:00:00	2024-11-08T02:00:00	3	Temperatura mínima	20.4
18948	7	Sololá	712	San Antonio Palopó	9	San Antonio Palopo	11	Noviembre	2023-11-14T00:00:00	2024-11-08T02:00:00	5	Humedad	73
18949	7	Sololá	712	San Antonio Palopó	9	San Antonio Palopo	11	Noviembre	2023-11-14T00:00:00	2024-11-08T02:00:00	6	Velocidad del viento	8
18950	7	Sololá	712	San Antonio Palopó	9	San Antonio Palopo	11	Noviembre	2023-11-14T00:00:00	2024-11-08T02:00:00	7	Dirección del viento	8.05
18951	7	Sololá	712	San Antonio Palopó	9	San Antonio Palopo	11	Noviembre	2023-11-14T00:00:00	2024-11-08T02:00:00	1	Precipitación	0
18952	7	Sololá	712	San Antonio Palopó	9	San Antonio Palopo	11	Noviembre	2023-11-14T00:00:00	2024-11-08T02:00:00	8	Radiación solar	0
18953	7	Sololá	712	San Antonio Palopó	9	San Antonio Palopo	11	Noviembre	2023-11-14T00:00:00	2024-11-08T03:00:00	2	Temperatura media	20.5
18954	7	Sololá	712	San Antonio Palopó	9	San Antonio Palopo	11	Noviembre	2023-11-14T00:00:00	2024-11-08T03:00:00	4	Temperatura máxima	20.6
18955	7	Sololá	712	San Antonio Palopó	9	San Antonio Palopo	11	Noviembre	2023-11-14T00:00:00	2024-11-08T03:00:00	3	Temperatura mínima	20.3
18956	7	Sololá	712	San Antonio Palopó	9	San Antonio Palopo	11	Noviembre	2023-11-14T00:00:00	2024-11-08T03:00:00	5	Humedad	72
18957	7	Sololá	712	San Antonio Palopó	9	San Antonio Palopo	11	Noviembre	2023-11-14T00:00:00	2024-11-08T03:00:00	6	Velocidad del viento	6.4
18958	7	Sololá	712	San Antonio Palopó	9	San Antonio Palopo	11	Noviembre	2023-11-14T00:00:00	2024-11-08T03:00:00	7	Dirección del viento	6.44
18959	7	Sololá	712	San Antonio Palopó	9	San Antonio Palopo	11	Noviembre	2023-11-14T00:00:00	2024-11-08T03:00:00	1	Precipitación	0
18960	7	Sololá	712	San Antonio Palopó	9	San Antonio Palopo	11	Noviembre	2023-11-14T00:00:00	2024-11-08T03:00:00	8	Radiación solar	0
18961	7	Sololá	712	San Antonio Palopó	9	San Antonio Palopo	11	Noviembre	2023-11-14T00:00:00	2024-11-08T04:00:00	2	Temperatura media	20.3
18962	7	Sololá	712	San Antonio Palopó	9	San Antonio Palopo	11	Noviembre	2023-11-14T00:00:00	2024-11-08T04:00:00	4	Temperatura máxima	20.8
18963	7	Sololá	712	San Antonio Palopó	9	San Antonio Palopo	11	Noviembre	2023-11-14T00:00:00	2024-11-08T04:00:00	3	Temperatura mínima	20.3
18964	7	Sololá	712	San Antonio Palopó	9	San Antonio Palopo	11	Noviembre	2023-11-14T00:00:00	2024-11-08T04:00:00	5	Humedad	72
18965	7	Sololá	712	San Antonio Palopó	9	San Antonio Palopo	11	Noviembre	2023-11-14T00:00:00	2024-11-08T04:00:00	6	Velocidad del viento	3.2
18966	7	Sololá	712	San Antonio Palopó	9	San Antonio Palopo	11	Noviembre	2023-11-14T00:00:00	2024-11-08T04:00:00	7	Dirección del viento	3.22
18967	7	Sololá	712	San Antonio Palopó	9	San Antonio Palopo	11	Noviembre	2023-11-14T00:00:00	2024-11-08T04:00:00	1	Precipitación	0
18968	7	Sololá	712	San Antonio Palopó	9	San Antonio Palopo	11	Noviembre	2023-11-14T00:00:00	2024-11-08T04:00:00	8	Radiación solar	0
18969	7	Sololá	712	San Antonio Palopó	9	San Antonio Palopo	11	Noviembre	2023-11-14T00:00:00	2024-11-08T05:00:00	2	Temperatura media	20.7
18970	7	Sololá	712	San Antonio Palopó	9	San Antonio Palopo	11	Noviembre	2023-11-14T00:00:00	2024-11-08T05:00:00	4	Temperatura máxima	20.8
18971	7	Sololá	712	San Antonio Palopó	9	San Antonio Palopo	11	Noviembre	2023-11-14T00:00:00	2024-11-08T05:00:00	3	Temperatura mínima	20.3
18972	7	Sololá	712	San Antonio Palopó	9	San Antonio Palopo	11	Noviembre	2023-11-14T00:00:00	2024-11-08T05:00:00	5	Humedad	70
18973	7	Sololá	712	San Antonio Palopó	9	San Antonio Palopo	11	Noviembre	2023-11-14T00:00:00	2024-11-08T05:00:00	6	Velocidad del viento	6.4
18974	7	Sololá	712	San Antonio Palopó	9	San Antonio Palopo	11	Noviembre	2023-11-14T00:00:00	2024-11-08T05:00:00	7	Dirección del viento	6.44
18975	7	Sololá	712	San Antonio Palopó	9	San Antonio Palopo	11	Noviembre	2023-11-14T00:00:00	2024-11-08T05:00:00	1	Precipitación	0
18976	7	Sololá	712	San Antonio Palopó	9	San Antonio Palopo	11	Noviembre	2023-11-14T00:00:00	2024-11-08T05:00:00	8	Radiación solar	0
18977	7	Sololá	712	San Antonio Palopó	9	San Antonio Palopo	11	Noviembre	2023-11-14T00:00:00	2024-11-08T06:00:00	2	Temperatura media	20.3
18978	7	Sololá	712	San Antonio Palopó	9	San Antonio Palopo	11	Noviembre	2023-11-14T00:00:00	2024-11-08T06:00:00	4	Temperatura máxima	20.7
18979	7	Sololá	712	San Antonio Palopó	9	San Antonio Palopo	11	Noviembre	2023-11-14T00:00:00	2024-11-08T06:00:00	3	Temperatura mínima	20.3
18980	7	Sololá	712	San Antonio Palopó	9	San Antonio Palopo	11	Noviembre	2023-11-14T00:00:00	2024-11-08T06:00:00	5	Humedad	71
18981	7	Sololá	712	San Antonio Palopó	9	San Antonio Palopo	11	Noviembre	2023-11-14T00:00:00	2024-11-08T06:00:00	6	Velocidad del viento	9.7
18982	7	Sololá	712	San Antonio Palopó	9	San Antonio Palopo	11	Noviembre	2023-11-14T00:00:00	2024-11-08T06:00:00	7	Dirección del viento	9.66
18983	7	Sololá	712	San Antonio Palopó	9	San Antonio Palopo	11	Noviembre	2023-11-14T00:00:00	2024-11-08T06:00:00	1	Precipitación	0
18984	7	Sololá	712	San Antonio Palopó	9	San Antonio Palopo	11	Noviembre	2023-11-14T00:00:00	2024-11-08T06:00:00	8	Radiación solar	0
18985	7	Sololá	712	San Antonio Palopó	9	San Antonio Palopo	11	Noviembre	2023-11-14T00:00:00	2024-11-08T07:00:00	2	Temperatura media	20.9
18986	7	Sololá	712	San Antonio Palopó	9	San Antonio Palopo	11	Noviembre	2023-11-14T00:00:00	2024-11-08T07:00:00	4	Temperatura máxima	20.9
18987	7	Sololá	712	San Antonio Palopó	9	San Antonio Palopo	11	Noviembre	2023-11-14T00:00:00	2024-11-08T07:00:00	3	Temperatura mínima	20.3
18988	7	Sololá	712	San Antonio Palopó	9	San Antonio Palopo	11	Noviembre	2023-11-14T00:00:00	2024-11-08T07:00:00	5	Humedad	70
18989	7	Sololá	712	San Antonio Palopó	9	San Antonio Palopo	11	Noviembre	2023-11-14T00:00:00	2024-11-08T07:00:00	6	Velocidad del viento	4.8
18990	7	Sololá	712	San Antonio Palopó	9	San Antonio Palopo	11	Noviembre	2023-11-14T00:00:00	2024-11-08T07:00:00	7	Dirección del viento	4.83
18991	7	Sololá	712	San Antonio Palopó	9	San Antonio Palopo	11	Noviembre	2023-11-14T00:00:00	2024-11-08T07:00:00	1	Precipitación	0
18992	7	Sololá	712	San Antonio Palopó	9	San Antonio Palopo	11	Noviembre	2023-11-14T00:00:00	2024-11-08T07:00:00	8	Radiación solar	18
18993	7	Sololá	712	San Antonio Palopó	9	San Antonio Palopo	11	Noviembre	2023-11-14T00:00:00	2024-11-08T08:00:00	2	Temperatura media	20.9
18994	7	Sololá	712	San Antonio Palopó	9	San Antonio Palopo	11	Noviembre	2023-11-14T00:00:00	2024-11-08T08:00:00	4	Temperatura máxima	21.3
18995	7	Sololá	712	San Antonio Palopó	9	San Antonio Palopo	11	Noviembre	2023-11-14T00:00:00	2024-11-08T08:00:00	3	Temperatura mínima	20.8
18996	7	Sololá	712	San Antonio Palopó	9	San Antonio Palopo	11	Noviembre	2023-11-14T00:00:00	2024-11-08T08:00:00	5	Humedad	74
18997	7	Sololá	712	San Antonio Palopó	9	San Antonio Palopo	11	Noviembre	2023-11-14T00:00:00	2024-11-08T08:00:00	6	Velocidad del viento	1.6
18998	7	Sololá	712	San Antonio Palopó	9	San Antonio Palopo	11	Noviembre	2023-11-14T00:00:00	2024-11-08T08:00:00	7	Dirección del viento	1.61
18999	7	Sololá	712	San Antonio Palopó	9	San Antonio Palopo	11	Noviembre	2023-11-14T00:00:00	2024-11-08T08:00:00	1	Precipitación	0
19000	7	Sololá	712	San Antonio Palopó	9	San Antonio Palopo	11	Noviembre	2023-11-14T00:00:00	2024-11-08T08:00:00	8	Radiación solar	68
19001	7	Sololá	712	San Antonio Palopó	9	San Antonio Palopo	11	Noviembre	2023-11-14T00:00:00	2024-11-08T09:00:00	2	Temperatura media	22.8
19002	7	Sololá	712	San Antonio Palopó	9	San Antonio Palopo	11	Noviembre	2023-11-14T00:00:00	2024-11-08T09:00:00	4	Temperatura máxima	23.3
19003	7	Sololá	712	San Antonio Palopó	9	San Antonio Palopo	11	Noviembre	2023-11-14T00:00:00	2024-11-08T09:00:00	3	Temperatura mínima	20.8
19004	7	Sololá	712	San Antonio Palopó	9	San Antonio Palopo	11	Noviembre	2023-11-14T00:00:00	2024-11-08T09:00:00	5	Humedad	67
19005	7	Sololá	712	San Antonio Palopó	9	San Antonio Palopo	11	Noviembre	2023-11-14T00:00:00	2024-11-08T09:00:00	6	Velocidad del viento	1.6
19006	7	Sololá	712	San Antonio Palopó	9	San Antonio Palopo	11	Noviembre	2023-11-14T00:00:00	2024-11-08T09:00:00	7	Dirección del viento	1.61
19007	7	Sololá	712	San Antonio Palopó	9	San Antonio Palopo	11	Noviembre	2023-11-14T00:00:00	2024-11-08T09:00:00	1	Precipitación	0
19008	7	Sololá	712	San Antonio Palopó	9	San Antonio Palopo	11	Noviembre	2023-11-14T00:00:00	2024-11-08T09:00:00	8	Radiación solar	241
19009	7	Sololá	712	San Antonio Palopó	9	San Antonio Palopo	11	Noviembre	2023-11-14T00:00:00	2024-11-08T10:00:00	2	Temperatura media	23.8
19010	7	Sololá	712	San Antonio Palopó	9	San Antonio Palopo	11	Noviembre	2023-11-14T00:00:00	2024-11-08T10:00:00	4	Temperatura máxima	24.2
19011	7	Sololá	712	San Antonio Palopó	9	San Antonio Palopo	11	Noviembre	2023-11-14T00:00:00	2024-11-08T10:00:00	3	Temperatura mínima	22.8
19012	7	Sololá	712	San Antonio Palopó	9	San Antonio Palopo	11	Noviembre	2023-11-14T00:00:00	2024-11-08T10:00:00	5	Humedad	66
19013	7	Sololá	712	San Antonio Palopó	9	San Antonio Palopo	11	Noviembre	2023-11-14T00:00:00	2024-11-08T10:00:00	6	Velocidad del viento	3.2
19014	7	Sololá	712	San Antonio Palopó	9	San Antonio Palopo	11	Noviembre	2023-11-14T00:00:00	2024-11-08T10:00:00	7	Dirección del viento	3.22
19015	7	Sololá	712	San Antonio Palopó	9	San Antonio Palopo	11	Noviembre	2023-11-14T00:00:00	2024-11-08T10:00:00	1	Precipitación	0
19016	7	Sololá	712	San Antonio Palopó	9	San Antonio Palopo	11	Noviembre	2023-11-14T00:00:00	2024-11-08T10:00:00	8	Radiación solar	472
19017	7	Sololá	712	San Antonio Palopó	9	San Antonio Palopo	11	Noviembre	2023-11-14T00:00:00	2024-11-08T11:00:00	2	Temperatura media	24.2
19018	7	Sololá	712	San Antonio Palopó	9	San Antonio Palopo	11	Noviembre	2023-11-14T00:00:00	2024-11-08T11:00:00	4	Temperatura máxima	25
19019	7	Sololá	712	San Antonio Palopó	9	San Antonio Palopo	11	Noviembre	2023-11-14T00:00:00	2024-11-08T11:00:00	3	Temperatura mínima	23.8
19020	7	Sololá	712	San Antonio Palopó	9	San Antonio Palopo	11	Noviembre	2023-11-14T00:00:00	2024-11-08T11:00:00	5	Humedad	73
19021	7	Sololá	712	San Antonio Palopó	9	San Antonio Palopo	11	Noviembre	2023-11-14T00:00:00	2024-11-08T11:00:00	6	Velocidad del viento	6.4
19022	7	Sololá	712	San Antonio Palopó	9	San Antonio Palopo	11	Noviembre	2023-11-14T00:00:00	2024-11-08T11:00:00	7	Dirección del viento	6.44
19023	7	Sololá	712	San Antonio Palopó	9	San Antonio Palopo	11	Noviembre	2023-11-14T00:00:00	2024-11-08T11:00:00	1	Precipitación	0
19024	7	Sololá	712	San Antonio Palopó	9	San Antonio Palopo	11	Noviembre	2023-11-14T00:00:00	2024-11-08T11:00:00	8	Radiación solar	481
19025	7	Sololá	712	San Antonio Palopó	9	San Antonio Palopo	11	Noviembre	2023-11-14T00:00:00	2024-11-08T12:00:00	2	Temperatura media	24.6
19026	7	Sololá	712	San Antonio Palopó	9	San Antonio Palopo	11	Noviembre	2023-11-14T00:00:00	2024-11-08T12:00:00	4	Temperatura máxima	25.4
19027	7	Sololá	712	San Antonio Palopó	9	San Antonio Palopo	11	Noviembre	2023-11-14T00:00:00	2024-11-08T12:00:00	3	Temperatura mínima	24.1
19028	7	Sololá	712	San Antonio Palopó	9	San Antonio Palopo	11	Noviembre	2023-11-14T00:00:00	2024-11-08T12:00:00	5	Humedad	71
19029	7	Sololá	712	San Antonio Palopó	9	San Antonio Palopo	11	Noviembre	2023-11-14T00:00:00	2024-11-08T12:00:00	6	Velocidad del viento	4.8
19030	7	Sololá	712	San Antonio Palopó	9	San Antonio Palopo	11	Noviembre	2023-11-14T00:00:00	2024-11-08T12:00:00	7	Dirección del viento	4.83
19031	7	Sololá	712	San Antonio Palopó	9	San Antonio Palopo	11	Noviembre	2023-11-14T00:00:00	2024-11-08T12:00:00	1	Precipitación	0
19032	7	Sololá	712	San Antonio Palopó	9	San Antonio Palopo	11	Noviembre	2023-11-14T00:00:00	2024-11-08T12:00:00	8	Radiación solar	381
19033	7	Sololá	712	San Antonio Palopó	9	San Antonio Palopo	11	Noviembre	2023-11-14T00:00:00	2024-11-08T13:00:00	2	Temperatura media	24.3
19034	7	Sololá	712	San Antonio Palopó	9	San Antonio Palopo	11	Noviembre	2023-11-14T00:00:00	2024-11-08T13:00:00	4	Temperatura máxima	24.6
19035	7	Sololá	712	San Antonio Palopó	9	San Antonio Palopo	11	Noviembre	2023-11-14T00:00:00	2024-11-08T13:00:00	3	Temperatura mínima	23.3
19036	7	Sololá	712	San Antonio Palopó	9	San Antonio Palopo	11	Noviembre	2023-11-14T00:00:00	2024-11-08T13:00:00	5	Humedad	72
19037	7	Sololá	712	San Antonio Palopó	9	San Antonio Palopo	11	Noviembre	2023-11-14T00:00:00	2024-11-08T13:00:00	6	Velocidad del viento	8
19038	7	Sololá	712	San Antonio Palopó	9	San Antonio Palopo	11	Noviembre	2023-11-14T00:00:00	2024-11-08T13:00:00	7	Dirección del viento	8.05
19039	7	Sololá	712	San Antonio Palopó	9	San Antonio Palopo	11	Noviembre	2023-11-14T00:00:00	2024-11-08T13:00:00	1	Precipitación	0
19040	7	Sololá	712	San Antonio Palopó	9	San Antonio Palopo	11	Noviembre	2023-11-14T00:00:00	2024-11-08T13:00:00	8	Radiación solar	285
19041	7	Sololá	712	San Antonio Palopó	9	San Antonio Palopo	11	Noviembre	2023-11-14T00:00:00	2024-11-08T14:00:00	2	Temperatura media	23.3
19042	7	Sololá	712	San Antonio Palopó	9	San Antonio Palopo	11	Noviembre	2023-11-14T00:00:00	2024-11-08T14:00:00	4	Temperatura máxima	24.4
19043	7	Sololá	712	San Antonio Palopó	9	San Antonio Palopo	11	Noviembre	2023-11-14T00:00:00	2024-11-08T14:00:00	3	Temperatura mínima	22.4
19044	7	Sololá	712	San Antonio Palopó	9	San Antonio Palopo	11	Noviembre	2023-11-14T00:00:00	2024-11-08T14:00:00	5	Humedad	77
19045	7	Sololá	712	San Antonio Palopó	9	San Antonio Palopo	11	Noviembre	2023-11-14T00:00:00	2024-11-08T14:00:00	6	Velocidad del viento	9.7
19046	7	Sololá	712	San Antonio Palopó	9	San Antonio Palopo	11	Noviembre	2023-11-14T00:00:00	2024-11-08T14:00:00	7	Dirección del viento	9.66
19047	7	Sololá	712	San Antonio Palopó	9	San Antonio Palopo	11	Noviembre	2023-11-14T00:00:00	2024-11-08T14:00:00	1	Precipitación	0
19048	7	Sololá	712	San Antonio Palopó	9	San Antonio Palopo	11	Noviembre	2023-11-14T00:00:00	2024-11-08T14:00:00	8	Radiación solar	313
19049	7	Sololá	712	San Antonio Palopó	9	San Antonio Palopo	11	Noviembre	2023-11-14T00:00:00	2024-11-08T15:00:00	2	Temperatura media	23.2
19050	7	Sololá	712	San Antonio Palopó	9	San Antonio Palopo	11	Noviembre	2023-11-14T00:00:00	2024-11-08T15:00:00	4	Temperatura máxima	24.3
19051	7	Sololá	712	San Antonio Palopó	9	San Antonio Palopo	11	Noviembre	2023-11-14T00:00:00	2024-11-08T15:00:00	3	Temperatura mínima	23.2
19052	7	Sololá	712	San Antonio Palopó	9	San Antonio Palopo	11	Noviembre	2023-11-14T00:00:00	2024-11-08T15:00:00	5	Humedad	76
19053	7	Sololá	712	San Antonio Palopó	9	San Antonio Palopo	11	Noviembre	2023-11-14T00:00:00	2024-11-08T15:00:00	6	Velocidad del viento	6.4
19054	7	Sololá	712	San Antonio Palopó	9	San Antonio Palopo	11	Noviembre	2023-11-14T00:00:00	2024-11-08T15:00:00	7	Dirección del viento	6.44
19055	7	Sololá	712	San Antonio Palopó	9	San Antonio Palopo	11	Noviembre	2023-11-14T00:00:00	2024-11-08T15:00:00	1	Precipitación	0
19056	7	Sololá	712	San Antonio Palopó	9	San Antonio Palopo	11	Noviembre	2023-11-14T00:00:00	2024-11-08T15:00:00	8	Radiación solar	279
19057	7	Sololá	712	San Antonio Palopó	9	San Antonio Palopo	11	Noviembre	2023-11-14T00:00:00	2024-11-08T16:00:00	2	Temperatura media	22.1
19058	7	Sololá	712	San Antonio Palopó	9	San Antonio Palopo	11	Noviembre	2023-11-14T00:00:00	2024-11-08T16:00:00	4	Temperatura máxima	23.2
19059	7	Sololá	712	San Antonio Palopó	9	San Antonio Palopo	11	Noviembre	2023-11-14T00:00:00	2024-11-08T16:00:00	3	Temperatura mínima	22.1
19060	7	Sololá	712	San Antonio Palopó	9	San Antonio Palopo	11	Noviembre	2023-11-14T00:00:00	2024-11-08T16:00:00	5	Humedad	82
19061	7	Sololá	712	San Antonio Palopó	9	San Antonio Palopo	11	Noviembre	2023-11-14T00:00:00	2024-11-08T16:00:00	6	Velocidad del viento	6.4
19062	7	Sololá	712	San Antonio Palopó	9	San Antonio Palopo	11	Noviembre	2023-11-14T00:00:00	2024-11-08T16:00:00	7	Dirección del viento	6.44
19063	7	Sololá	712	San Antonio Palopó	9	San Antonio Palopo	11	Noviembre	2023-11-14T00:00:00	2024-11-08T16:00:00	1	Precipitación	0
19064	7	Sololá	712	San Antonio Palopó	9	San Antonio Palopo	11	Noviembre	2023-11-14T00:00:00	2024-11-08T16:00:00	8	Radiación solar	83
19065	7	Sololá	712	San Antonio Palopó	9	San Antonio Palopo	11	Noviembre	2023-11-14T00:00:00	2024-11-08T17:00:00	2	Temperatura media	23.1
19066	7	Sololá	712	San Antonio Palopó	9	San Antonio Palopo	11	Noviembre	2023-11-14T00:00:00	2024-11-08T17:00:00	4	Temperatura máxima	23.2
19067	7	Sololá	712	San Antonio Palopó	9	San Antonio Palopo	11	Noviembre	2023-11-14T00:00:00	2024-11-08T17:00:00	3	Temperatura mínima	21.9
19068	7	Sololá	712	San Antonio Palopó	9	San Antonio Palopo	11	Noviembre	2023-11-14T00:00:00	2024-11-08T17:00:00	5	Humedad	65
19069	7	Sololá	712	San Antonio Palopó	9	San Antonio Palopo	11	Noviembre	2023-11-14T00:00:00	2024-11-08T17:00:00	6	Velocidad del viento	6.4
19070	7	Sololá	712	San Antonio Palopó	9	San Antonio Palopo	11	Noviembre	2023-11-14T00:00:00	2024-11-08T17:00:00	7	Dirección del viento	6.44
19071	7	Sololá	712	San Antonio Palopó	9	San Antonio Palopo	11	Noviembre	2023-11-14T00:00:00	2024-11-08T17:00:00	1	Precipitación	0
19072	7	Sololá	712	San Antonio Palopó	9	San Antonio Palopo	11	Noviembre	2023-11-14T00:00:00	2024-11-08T17:00:00	8	Radiación solar	50
19073	7	Sololá	712	San Antonio Palopó	9	San Antonio Palopo	11	Noviembre	2023-11-14T00:00:00	2024-11-08T18:00:00	2	Temperatura media	22.5
19074	7	Sololá	712	San Antonio Palopó	9	San Antonio Palopo	11	Noviembre	2023-11-14T00:00:00	2024-11-08T18:00:00	4	Temperatura máxima	23.1
19075	7	Sololá	712	San Antonio Palopó	9	San Antonio Palopo	11	Noviembre	2023-11-14T00:00:00	2024-11-08T18:00:00	3	Temperatura mínima	22.4
19076	7	Sololá	712	San Antonio Palopó	9	San Antonio Palopo	11	Noviembre	2023-11-14T00:00:00	2024-11-08T18:00:00	5	Humedad	66
19077	7	Sololá	712	San Antonio Palopó	9	San Antonio Palopo	11	Noviembre	2023-11-14T00:00:00	2024-11-08T18:00:00	6	Velocidad del viento	6.4
19078	7	Sololá	712	San Antonio Palopó	9	San Antonio Palopo	11	Noviembre	2023-11-14T00:00:00	2024-11-08T18:00:00	7	Dirección del viento	6.44
19079	7	Sololá	712	San Antonio Palopó	9	San Antonio Palopo	11	Noviembre	2023-11-14T00:00:00	2024-11-08T18:00:00	1	Precipitación	0
19080	7	Sololá	712	San Antonio Palopó	9	San Antonio Palopo	11	Noviembre	2023-11-14T00:00:00	2024-11-08T18:00:00	8	Radiación solar	7
19081	7	Sololá	712	San Antonio Palopó	9	San Antonio Palopo	11	Noviembre	2023-11-14T00:00:00	2024-11-08T19:00:00	2	Temperatura media	22.4
19082	7	Sololá	712	San Antonio Palopó	9	San Antonio Palopo	11	Noviembre	2023-11-14T00:00:00	2024-11-08T19:00:00	4	Temperatura máxima	22.5
19083	7	Sololá	712	San Antonio Palopó	9	San Antonio Palopo	11	Noviembre	2023-11-14T00:00:00	2024-11-08T19:00:00	3	Temperatura mínima	22.3
19084	7	Sololá	712	San Antonio Palopó	9	San Antonio Palopo	11	Noviembre	2023-11-14T00:00:00	2024-11-08T19:00:00	5	Humedad	67
19085	7	Sololá	712	San Antonio Palopó	9	San Antonio Palopo	11	Noviembre	2023-11-14T00:00:00	2024-11-08T19:00:00	6	Velocidad del viento	6.4
19086	7	Sololá	712	San Antonio Palopó	9	San Antonio Palopo	11	Noviembre	2023-11-14T00:00:00	2024-11-08T19:00:00	7	Dirección del viento	6.44
19087	7	Sololá	712	San Antonio Palopó	9	San Antonio Palopo	11	Noviembre	2023-11-14T00:00:00	2024-11-08T19:00:00	1	Precipitación	0
19088	7	Sololá	712	San Antonio Palopó	9	San Antonio Palopo	11	Noviembre	2023-11-14T00:00:00	2024-11-08T19:00:00	8	Radiación solar	0
19089	7	Sololá	712	San Antonio Palopó	9	San Antonio Palopo	11	Noviembre	2023-11-14T00:00:00	2024-11-08T20:00:00	2	Temperatura media	21.8
19090	7	Sololá	712	San Antonio Palopó	9	San Antonio Palopo	11	Noviembre	2023-11-14T00:00:00	2024-11-08T20:00:00	4	Temperatura máxima	22.4
19091	7	Sololá	712	San Antonio Palopó	9	San Antonio Palopo	11	Noviembre	2023-11-14T00:00:00	2024-11-08T20:00:00	3	Temperatura mínima	21.6
19092	7	Sololá	712	San Antonio Palopó	9	San Antonio Palopo	11	Noviembre	2023-11-14T00:00:00	2024-11-08T20:00:00	5	Humedad	68
19093	7	Sololá	712	San Antonio Palopó	9	San Antonio Palopo	11	Noviembre	2023-11-14T00:00:00	2024-11-08T20:00:00	6	Velocidad del viento	3.2
19094	7	Sololá	712	San Antonio Palopó	9	San Antonio Palopo	11	Noviembre	2023-11-14T00:00:00	2024-11-08T20:00:00	7	Dirección del viento	3.22
19095	7	Sololá	712	San Antonio Palopó	9	San Antonio Palopo	11	Noviembre	2023-11-14T00:00:00	2024-11-08T20:00:00	1	Precipitación	0
19096	7	Sololá	712	San Antonio Palopó	9	San Antonio Palopo	11	Noviembre	2023-11-14T00:00:00	2024-11-08T20:00:00	8	Radiación solar	0
19097	7	Sololá	712	San Antonio Palopó	9	San Antonio Palopo	11	Noviembre	2023-11-14T00:00:00	2024-11-08T21:00:00	2	Temperatura media	21.3
19098	7	Sololá	712	San Antonio Palopó	9	San Antonio Palopo	11	Noviembre	2023-11-14T00:00:00	2024-11-08T21:00:00	4	Temperatura máxima	21.8
19099	7	Sololá	712	San Antonio Palopó	9	San Antonio Palopo	11	Noviembre	2023-11-14T00:00:00	2024-11-08T21:00:00	3	Temperatura mínima	21.2
19100	7	Sololá	712	San Antonio Palopó	9	San Antonio Palopo	11	Noviembre	2023-11-14T00:00:00	2024-11-08T21:00:00	5	Humedad	69
19101	7	Sololá	712	San Antonio Palopó	9	San Antonio Palopo	11	Noviembre	2023-11-14T00:00:00	2024-11-08T21:00:00	6	Velocidad del viento	3.2
19102	7	Sololá	712	San Antonio Palopó	9	San Antonio Palopo	11	Noviembre	2023-11-14T00:00:00	2024-11-08T21:00:00	7	Dirección del viento	3.22
19103	7	Sololá	712	San Antonio Palopó	9	San Antonio Palopo	11	Noviembre	2023-11-14T00:00:00	2024-11-08T21:00:00	1	Precipitación	0
19104	7	Sololá	712	San Antonio Palopó	9	San Antonio Palopo	11	Noviembre	2023-11-14T00:00:00	2024-11-08T21:00:00	8	Radiación solar	0
19105	7	Sololá	712	San Antonio Palopó	9	San Antonio Palopo	11	Noviembre	2023-11-14T00:00:00	2024-11-08T22:00:00	2	Temperatura media	21.4
19106	7	Sololá	712	San Antonio Palopó	9	San Antonio Palopo	11	Noviembre	2023-11-14T00:00:00	2024-11-08T22:00:00	4	Temperatura máxima	21.8
19107	7	Sololá	712	San Antonio Palopó	9	San Antonio Palopo	11	Noviembre	2023-11-14T00:00:00	2024-11-08T22:00:00	3	Temperatura mínima	21.3
19108	7	Sololá	712	San Antonio Palopó	9	San Antonio Palopo	11	Noviembre	2023-11-14T00:00:00	2024-11-08T22:00:00	5	Humedad	68
19109	7	Sololá	712	San Antonio Palopó	9	San Antonio Palopo	11	Noviembre	2023-11-14T00:00:00	2024-11-08T22:00:00	6	Velocidad del viento	3.2
19110	7	Sololá	712	San Antonio Palopó	9	San Antonio Palopo	11	Noviembre	2023-11-14T00:00:00	2024-11-08T22:00:00	7	Dirección del viento	3.22
19111	7	Sololá	712	San Antonio Palopó	9	San Antonio Palopo	11	Noviembre	2023-11-14T00:00:00	2024-11-08T22:00:00	1	Precipitación	0
19112	7	Sololá	712	San Antonio Palopó	9	San Antonio Palopo	11	Noviembre	2023-11-14T00:00:00	2024-11-08T22:00:00	8	Radiación solar	0
19113	7	Sololá	712	San Antonio Palopó	9	San Antonio Palopo	11	Noviembre	2023-11-14T00:00:00	2024-11-08T23:00:00	2	Temperatura media	21.8
19114	7	Sololá	712	San Antonio Palopó	9	San Antonio Palopo	11	Noviembre	2023-11-14T00:00:00	2024-11-08T23:00:00	4	Temperatura máxima	21.8
19115	7	Sololá	712	San Antonio Palopó	9	San Antonio Palopo	11	Noviembre	2023-11-14T00:00:00	2024-11-08T23:00:00	3	Temperatura mínima	21.2
19116	7	Sololá	712	San Antonio Palopó	9	San Antonio Palopo	11	Noviembre	2023-11-14T00:00:00	2024-11-08T23:00:00	5	Humedad	65
19117	7	Sololá	712	San Antonio Palopó	9	San Antonio Palopo	11	Noviembre	2023-11-14T00:00:00	2024-11-08T23:00:00	6	Velocidad del viento	4.8
19118	7	Sololá	712	San Antonio Palopó	9	San Antonio Palopo	11	Noviembre	2023-11-14T00:00:00	2024-11-08T23:00:00	7	Dirección del viento	4.83
19119	7	Sololá	712	San Antonio Palopó	9	San Antonio Palopo	11	Noviembre	2023-11-14T00:00:00	2024-11-08T23:00:00	1	Precipitación	0
19120	7	Sololá	712	San Antonio Palopó	9	San Antonio Palopo	11	Noviembre	2023-11-14T00:00:00	2024-11-08T23:00:00	8	Radiación solar	0
19121	7	Sololá	712	San Antonio Palopó	9	San Antonio Palopo	11	Noviembre	2023-11-15T00:00:00	2024-11-08T00:00:00	2	Temperatura media	21.9
19122	7	Sololá	712	San Antonio Palopó	9	San Antonio Palopo	11	Noviembre	2023-11-15T00:00:00	2024-11-08T00:00:00	4	Temperatura máxima	22
19123	7	Sololá	712	San Antonio Palopó	9	San Antonio Palopo	11	Noviembre	2023-11-15T00:00:00	2024-11-08T00:00:00	3	Temperatura mínima	21.7
19124	7	Sololá	712	San Antonio Palopó	9	San Antonio Palopo	11	Noviembre	2023-11-15T00:00:00	2024-11-08T00:00:00	5	Humedad	65
19125	7	Sololá	712	San Antonio Palopó	9	San Antonio Palopo	11	Noviembre	2023-11-15T00:00:00	2024-11-08T00:00:00	6	Velocidad del viento	6.4
19126	7	Sololá	712	San Antonio Palopó	9	San Antonio Palopo	11	Noviembre	2023-11-15T00:00:00	2024-11-08T00:00:00	7	Dirección del viento	6.44
19127	7	Sololá	712	San Antonio Palopó	9	San Antonio Palopo	11	Noviembre	2023-11-15T00:00:00	2024-11-08T00:00:00	1	Precipitación	0
19128	7	Sololá	712	San Antonio Palopó	9	San Antonio Palopo	11	Noviembre	2023-11-15T00:00:00	2024-11-08T00:00:00	8	Radiación solar	0
19129	7	Sololá	712	San Antonio Palopó	9	San Antonio Palopo	11	Noviembre	2023-11-15T00:00:00	2024-11-08T01:00:00	2	Temperatura media	21.6
19130	7	Sololá	712	San Antonio Palopó	9	San Antonio Palopo	11	Noviembre	2023-11-15T00:00:00	2024-11-08T01:00:00	4	Temperatura máxima	21.9
19131	7	Sololá	712	San Antonio Palopó	9	San Antonio Palopo	11	Noviembre	2023-11-15T00:00:00	2024-11-08T01:00:00	3	Temperatura mínima	21.6
19132	7	Sololá	712	San Antonio Palopó	9	San Antonio Palopo	11	Noviembre	2023-11-15T00:00:00	2024-11-08T01:00:00	5	Humedad	66
19133	7	Sololá	712	San Antonio Palopó	9	San Antonio Palopo	11	Noviembre	2023-11-15T00:00:00	2024-11-08T01:00:00	6	Velocidad del viento	6.4
19134	7	Sololá	712	San Antonio Palopó	9	San Antonio Palopo	11	Noviembre	2023-11-15T00:00:00	2024-11-08T01:00:00	7	Dirección del viento	6.44
19135	7	Sololá	712	San Antonio Palopó	9	San Antonio Palopo	11	Noviembre	2023-11-15T00:00:00	2024-11-08T01:00:00	1	Precipitación	0
19136	7	Sololá	712	San Antonio Palopó	9	San Antonio Palopo	11	Noviembre	2023-11-15T00:00:00	2024-11-08T01:00:00	8	Radiación solar	0
19137	7	Sololá	712	San Antonio Palopó	9	San Antonio Palopo	11	Noviembre	2023-11-15T00:00:00	2024-11-08T02:00:00	2	Temperatura media	21.3
19138	7	Sololá	712	San Antonio Palopó	9	San Antonio Palopo	11	Noviembre	2023-11-15T00:00:00	2024-11-08T02:00:00	4	Temperatura máxima	21.6
19139	7	Sololá	712	San Antonio Palopó	9	San Antonio Palopo	11	Noviembre	2023-11-15T00:00:00	2024-11-08T02:00:00	3	Temperatura mínima	21.1
19140	7	Sololá	712	San Antonio Palopó	9	San Antonio Palopo	11	Noviembre	2023-11-15T00:00:00	2024-11-08T02:00:00	5	Humedad	67
19141	7	Sololá	712	San Antonio Palopó	9	San Antonio Palopo	11	Noviembre	2023-11-15T00:00:00	2024-11-08T02:00:00	6	Velocidad del viento	4.8
19142	7	Sololá	712	San Antonio Palopó	9	San Antonio Palopo	11	Noviembre	2023-11-15T00:00:00	2024-11-08T02:00:00	7	Dirección del viento	4.83
19143	7	Sololá	712	San Antonio Palopó	9	San Antonio Palopo	11	Noviembre	2023-11-15T00:00:00	2024-11-08T02:00:00	1	Precipitación	0
19144	7	Sololá	712	San Antonio Palopó	9	San Antonio Palopo	11	Noviembre	2023-11-15T00:00:00	2024-11-08T02:00:00	8	Radiación solar	0
19145	7	Sololá	712	San Antonio Palopó	9	San Antonio Palopo	11	Noviembre	2023-11-15T00:00:00	2024-11-08T03:00:00	2	Temperatura media	21.7
19146	7	Sololá	712	San Antonio Palopó	9	San Antonio Palopo	11	Noviembre	2023-11-15T00:00:00	2024-11-08T03:00:00	4	Temperatura máxima	21.7
19147	7	Sololá	712	San Antonio Palopó	9	San Antonio Palopo	11	Noviembre	2023-11-15T00:00:00	2024-11-08T03:00:00	3	Temperatura mínima	21.3
19148	7	Sololá	712	San Antonio Palopó	9	San Antonio Palopo	11	Noviembre	2023-11-15T00:00:00	2024-11-08T03:00:00	5	Humedad	65
19149	7	Sololá	712	San Antonio Palopó	9	San Antonio Palopo	11	Noviembre	2023-11-15T00:00:00	2024-11-08T03:00:00	6	Velocidad del viento	4.8
19150	7	Sololá	712	San Antonio Palopó	9	San Antonio Palopo	11	Noviembre	2023-11-15T00:00:00	2024-11-08T03:00:00	7	Dirección del viento	4.83
19151	7	Sololá	712	San Antonio Palopó	9	San Antonio Palopo	11	Noviembre	2023-11-15T00:00:00	2024-11-08T03:00:00	1	Precipitación	0
19152	7	Sololá	712	San Antonio Palopó	9	San Antonio Palopo	11	Noviembre	2023-11-15T00:00:00	2024-11-08T03:00:00	8	Radiación solar	0
19153	7	Sololá	712	San Antonio Palopó	9	San Antonio Palopo	11	Noviembre	2023-11-15T00:00:00	2024-11-08T04:00:00	2	Temperatura media	21
19154	7	Sololá	712	San Antonio Palopó	9	San Antonio Palopo	11	Noviembre	2023-11-15T00:00:00	2024-11-08T04:00:00	4	Temperatura máxima	21.8
19155	7	Sololá	712	San Antonio Palopó	9	San Antonio Palopo	11	Noviembre	2023-11-15T00:00:00	2024-11-08T04:00:00	3	Temperatura mínima	21
19156	7	Sololá	712	San Antonio Palopó	9	San Antonio Palopo	11	Noviembre	2023-11-15T00:00:00	2024-11-08T04:00:00	5	Humedad	69
19157	7	Sololá	712	San Antonio Palopó	9	San Antonio Palopo	11	Noviembre	2023-11-15T00:00:00	2024-11-08T04:00:00	6	Velocidad del viento	4.8
19158	7	Sololá	712	San Antonio Palopó	9	San Antonio Palopo	11	Noviembre	2023-11-15T00:00:00	2024-11-08T04:00:00	7	Dirección del viento	4.83
19159	7	Sololá	712	San Antonio Palopó	9	San Antonio Palopo	11	Noviembre	2023-11-15T00:00:00	2024-11-08T04:00:00	1	Precipitación	0
19160	7	Sololá	712	San Antonio Palopó	9	San Antonio Palopo	11	Noviembre	2023-11-15T00:00:00	2024-11-08T04:00:00	8	Radiación solar	0
19161	7	Sololá	712	San Antonio Palopó	9	San Antonio Palopo	11	Noviembre	2023-11-15T00:00:00	2024-11-08T05:00:00	2	Temperatura media	21.1
19162	7	Sololá	712	San Antonio Palopó	9	San Antonio Palopo	11	Noviembre	2023-11-15T00:00:00	2024-11-08T05:00:00	4	Temperatura máxima	21.2
19163	7	Sololá	712	San Antonio Palopó	9	San Antonio Palopo	11	Noviembre	2023-11-15T00:00:00	2024-11-08T05:00:00	3	Temperatura mínima	20.6
19164	7	Sololá	712	San Antonio Palopó	9	San Antonio Palopo	11	Noviembre	2023-11-15T00:00:00	2024-11-08T05:00:00	5	Humedad	68
19165	7	Sololá	712	San Antonio Palopó	9	San Antonio Palopo	11	Noviembre	2023-11-15T00:00:00	2024-11-08T05:00:00	6	Velocidad del viento	3.2
19166	7	Sololá	712	San Antonio Palopó	9	San Antonio Palopo	11	Noviembre	2023-11-15T00:00:00	2024-11-08T05:00:00	7	Dirección del viento	3.22
19167	7	Sololá	712	San Antonio Palopó	9	San Antonio Palopo	11	Noviembre	2023-11-15T00:00:00	2024-11-08T05:00:00	1	Precipitación	0
19168	7	Sololá	712	San Antonio Palopó	9	San Antonio Palopo	11	Noviembre	2023-11-15T00:00:00	2024-11-08T05:00:00	8	Radiación solar	0
19169	7	Sololá	712	San Antonio Palopó	9	San Antonio Palopo	11	Noviembre	2023-11-15T00:00:00	2024-11-08T06:00:00	2	Temperatura media	21.4
19170	7	Sololá	712	San Antonio Palopó	9	San Antonio Palopo	11	Noviembre	2023-11-15T00:00:00	2024-11-08T06:00:00	4	Temperatura máxima	21.5
19171	7	Sololá	712	San Antonio Palopó	9	San Antonio Palopo	11	Noviembre	2023-11-15T00:00:00	2024-11-08T06:00:00	3	Temperatura mínima	21.1
19172	7	Sololá	712	San Antonio Palopó	9	San Antonio Palopo	11	Noviembre	2023-11-15T00:00:00	2024-11-08T06:00:00	5	Humedad	66
19173	7	Sololá	712	San Antonio Palopó	9	San Antonio Palopo	11	Noviembre	2023-11-15T00:00:00	2024-11-08T06:00:00	6	Velocidad del viento	6.4
19174	7	Sololá	712	San Antonio Palopó	9	San Antonio Palopo	11	Noviembre	2023-11-15T00:00:00	2024-11-08T06:00:00	7	Dirección del viento	6.44
19175	7	Sololá	712	San Antonio Palopó	9	San Antonio Palopo	11	Noviembre	2023-11-15T00:00:00	2024-11-08T06:00:00	1	Precipitación	0
19176	7	Sololá	712	San Antonio Palopó	9	San Antonio Palopo	11	Noviembre	2023-11-15T00:00:00	2024-11-08T06:00:00	8	Radiación solar	0
19177	7	Sololá	712	San Antonio Palopó	9	San Antonio Palopo	11	Noviembre	2023-11-15T00:00:00	2024-11-08T07:00:00	2	Temperatura media	21.5
19178	7	Sololá	712	San Antonio Palopó	9	San Antonio Palopo	11	Noviembre	2023-11-15T00:00:00	2024-11-08T07:00:00	4	Temperatura máxima	21.6
19179	7	Sololá	712	San Antonio Palopó	9	San Antonio Palopo	11	Noviembre	2023-11-15T00:00:00	2024-11-08T07:00:00	3	Temperatura mínima	21.2
19180	7	Sololá	712	San Antonio Palopó	9	San Antonio Palopo	11	Noviembre	2023-11-15T00:00:00	2024-11-08T07:00:00	5	Humedad	66
19181	7	Sololá	712	San Antonio Palopó	9	San Antonio Palopo	11	Noviembre	2023-11-15T00:00:00	2024-11-08T07:00:00	6	Velocidad del viento	4.8
19182	7	Sololá	712	San Antonio Palopó	9	San Antonio Palopo	11	Noviembre	2023-11-15T00:00:00	2024-11-08T07:00:00	7	Dirección del viento	4.83
19183	7	Sololá	712	San Antonio Palopó	9	San Antonio Palopo	11	Noviembre	2023-11-15T00:00:00	2024-11-08T07:00:00	1	Precipitación	0
19184	7	Sololá	712	San Antonio Palopó	9	San Antonio Palopo	11	Noviembre	2023-11-15T00:00:00	2024-11-08T07:00:00	8	Radiación solar	23
19185	7	Sololá	712	San Antonio Palopó	9	San Antonio Palopo	11	Noviembre	2023-11-15T00:00:00	2024-11-08T08:00:00	2	Temperatura media	22.1
19186	7	Sololá	712	San Antonio Palopó	9	San Antonio Palopo	11	Noviembre	2023-11-15T00:00:00	2024-11-08T08:00:00	4	Temperatura máxima	22.1
19187	7	Sololá	712	San Antonio Palopó	9	San Antonio Palopo	11	Noviembre	2023-11-15T00:00:00	2024-11-08T08:00:00	3	Temperatura mínima	21.5
19188	7	Sololá	712	San Antonio Palopó	9	San Antonio Palopo	11	Noviembre	2023-11-15T00:00:00	2024-11-08T08:00:00	5	Humedad	65
19189	7	Sololá	712	San Antonio Palopó	9	San Antonio Palopo	11	Noviembre	2023-11-15T00:00:00	2024-11-08T08:00:00	6	Velocidad del viento	3.2
19190	7	Sololá	712	San Antonio Palopó	9	San Antonio Palopo	11	Noviembre	2023-11-15T00:00:00	2024-11-08T08:00:00	7	Dirección del viento	3.22
19191	7	Sololá	712	San Antonio Palopó	9	San Antonio Palopo	11	Noviembre	2023-11-15T00:00:00	2024-11-08T08:00:00	1	Precipitación	0
19192	7	Sololá	712	San Antonio Palopó	9	San Antonio Palopo	11	Noviembre	2023-11-15T00:00:00	2024-11-08T08:00:00	8	Radiación solar	75
19193	7	Sololá	712	San Antonio Palopó	9	San Antonio Palopo	11	Noviembre	2023-11-15T00:00:00	2024-11-08T09:00:00	2	Temperatura media	24.1
19194	7	Sololá	712	San Antonio Palopó	9	San Antonio Palopo	11	Noviembre	2023-11-15T00:00:00	2024-11-08T09:00:00	4	Temperatura máxima	24.2
19195	7	Sololá	712	San Antonio Palopó	9	San Antonio Palopo	11	Noviembre	2023-11-15T00:00:00	2024-11-08T09:00:00	3	Temperatura mínima	22.1
19196	7	Sololá	712	San Antonio Palopó	9	San Antonio Palopo	11	Noviembre	2023-11-15T00:00:00	2024-11-08T09:00:00	5	Humedad	61
19197	7	Sololá	712	San Antonio Palopó	9	San Antonio Palopo	11	Noviembre	2023-11-15T00:00:00	2024-11-08T09:00:00	6	Velocidad del viento	3.2
19198	7	Sololá	712	San Antonio Palopó	9	San Antonio Palopo	11	Noviembre	2023-11-15T00:00:00	2024-11-08T09:00:00	7	Dirección del viento	3.22
19199	7	Sololá	712	San Antonio Palopó	9	San Antonio Palopo	11	Noviembre	2023-11-15T00:00:00	2024-11-08T09:00:00	1	Precipitación	0
19200	7	Sololá	712	San Antonio Palopó	9	San Antonio Palopo	11	Noviembre	2023-11-15T00:00:00	2024-11-08T09:00:00	8	Radiación solar	411
19201	7	Sololá	712	San Antonio Palopó	9	San Antonio Palopo	11	Noviembre	2023-11-15T00:00:00	2024-11-08T10:00:00	2	Temperatura media	24.2
19202	7	Sololá	712	San Antonio Palopó	9	San Antonio Palopo	11	Noviembre	2023-11-15T00:00:00	2024-11-08T10:00:00	4	Temperatura máxima	24.2
19203	7	Sololá	712	San Antonio Palopó	9	San Antonio Palopo	11	Noviembre	2023-11-15T00:00:00	2024-11-08T10:00:00	3	Temperatura mínima	23.5
19204	7	Sololá	712	San Antonio Palopó	9	San Antonio Palopo	11	Noviembre	2023-11-15T00:00:00	2024-11-08T10:00:00	5	Humedad	58
19205	7	Sololá	712	San Antonio Palopó	9	San Antonio Palopo	11	Noviembre	2023-11-15T00:00:00	2024-11-08T10:00:00	6	Velocidad del viento	11.3
19206	7	Sololá	712	San Antonio Palopó	9	San Antonio Palopo	11	Noviembre	2023-11-15T00:00:00	2024-11-08T10:00:00	7	Dirección del viento	11.27
19207	7	Sololá	712	San Antonio Palopó	9	San Antonio Palopo	11	Noviembre	2023-11-15T00:00:00	2024-11-08T10:00:00	1	Precipitación	0
19208	7	Sololá	712	San Antonio Palopó	9	San Antonio Palopo	11	Noviembre	2023-11-15T00:00:00	2024-11-08T10:00:00	8	Radiación solar	563
19209	7	Sololá	712	San Antonio Palopó	9	San Antonio Palopo	11	Noviembre	2023-11-15T00:00:00	2024-11-08T11:00:00	2	Temperatura media	24.3
19210	7	Sololá	712	San Antonio Palopó	9	San Antonio Palopo	11	Noviembre	2023-11-15T00:00:00	2024-11-08T11:00:00	4	Temperatura máxima	24.5
19211	7	Sololá	712	San Antonio Palopó	9	San Antonio Palopo	11	Noviembre	2023-11-15T00:00:00	2024-11-08T11:00:00	3	Temperatura mínima	24.1
19212	7	Sololá	712	San Antonio Palopó	9	San Antonio Palopo	11	Noviembre	2023-11-15T00:00:00	2024-11-08T11:00:00	5	Humedad	59
19213	7	Sololá	712	San Antonio Palopó	9	San Antonio Palopo	11	Noviembre	2023-11-15T00:00:00	2024-11-08T11:00:00	6	Velocidad del viento	12.9
19214	7	Sololá	712	San Antonio Palopó	9	San Antonio Palopo	11	Noviembre	2023-11-15T00:00:00	2024-11-08T11:00:00	7	Dirección del viento	12.87
19215	7	Sololá	712	San Antonio Palopó	9	San Antonio Palopo	11	Noviembre	2023-11-15T00:00:00	2024-11-08T11:00:00	1	Precipitación	0
19216	7	Sololá	712	San Antonio Palopó	9	San Antonio Palopo	11	Noviembre	2023-11-15T00:00:00	2024-11-08T11:00:00	8	Radiación solar	715
19217	7	Sololá	712	San Antonio Palopó	9	San Antonio Palopo	11	Noviembre	2023-11-15T00:00:00	2024-11-08T12:00:00	2	Temperatura media	25.3
19218	7	Sololá	712	San Antonio Palopó	9	San Antonio Palopo	11	Noviembre	2023-11-15T00:00:00	2024-11-08T12:00:00	4	Temperatura máxima	25.7
19219	7	Sololá	712	San Antonio Palopó	9	San Antonio Palopo	11	Noviembre	2023-11-15T00:00:00	2024-11-08T12:00:00	3	Temperatura mínima	24.3
19220	7	Sololá	712	San Antonio Palopó	9	San Antonio Palopo	11	Noviembre	2023-11-15T00:00:00	2024-11-08T12:00:00	5	Humedad	56
19221	7	Sololá	712	San Antonio Palopó	9	San Antonio Palopo	11	Noviembre	2023-11-15T00:00:00	2024-11-08T12:00:00	6	Velocidad del viento	16.1
19222	7	Sololá	712	San Antonio Palopó	9	San Antonio Palopo	11	Noviembre	2023-11-15T00:00:00	2024-11-08T12:00:00	7	Dirección del viento	16.09
19223	7	Sololá	712	San Antonio Palopó	9	San Antonio Palopo	11	Noviembre	2023-11-15T00:00:00	2024-11-08T12:00:00	1	Precipitación	0
19224	7	Sololá	712	San Antonio Palopó	9	San Antonio Palopo	11	Noviembre	2023-11-15T00:00:00	2024-11-08T12:00:00	8	Radiación solar	736
19225	7	Sololá	712	San Antonio Palopó	9	San Antonio Palopo	11	Noviembre	2023-11-15T00:00:00	2024-11-08T13:00:00	2	Temperatura media	25.6
19226	7	Sololá	712	San Antonio Palopó	9	San Antonio Palopo	11	Noviembre	2023-11-15T00:00:00	2024-11-08T13:00:00	4	Temperatura máxima	26.5
19227	7	Sololá	712	San Antonio Palopó	9	San Antonio Palopo	11	Noviembre	2023-11-15T00:00:00	2024-11-08T13:00:00	3	Temperatura mínima	25.3
19228	7	Sololá	712	San Antonio Palopó	9	San Antonio Palopo	11	Noviembre	2023-11-15T00:00:00	2024-11-08T13:00:00	5	Humedad	56
19229	7	Sololá	712	San Antonio Palopó	9	San Antonio Palopo	11	Noviembre	2023-11-15T00:00:00	2024-11-08T13:00:00	6	Velocidad del viento	14.5
19230	7	Sololá	712	San Antonio Palopó	9	San Antonio Palopo	11	Noviembre	2023-11-15T00:00:00	2024-11-08T13:00:00	7	Dirección del viento	14.48
19231	7	Sololá	712	San Antonio Palopó	9	San Antonio Palopo	11	Noviembre	2023-11-15T00:00:00	2024-11-08T13:00:00	1	Precipitación	0
19232	7	Sololá	712	San Antonio Palopó	9	San Antonio Palopo	11	Noviembre	2023-11-15T00:00:00	2024-11-08T13:00:00	8	Radiación solar	805
19233	7	Sololá	712	San Antonio Palopó	9	San Antonio Palopo	11	Noviembre	2023-11-15T00:00:00	2024-11-08T14:00:00	2	Temperatura media	26.2
19234	7	Sololá	712	San Antonio Palopó	9	San Antonio Palopo	11	Noviembre	2023-11-15T00:00:00	2024-11-08T14:00:00	4	Temperatura máxima	26.2
19235	7	Sololá	712	San Antonio Palopó	9	San Antonio Palopo	11	Noviembre	2023-11-15T00:00:00	2024-11-08T14:00:00	3	Temperatura mínima	25.3
19236	7	Sololá	712	San Antonio Palopó	9	San Antonio Palopo	11	Noviembre	2023-11-15T00:00:00	2024-11-08T14:00:00	5	Humedad	54
19237	7	Sololá	712	San Antonio Palopó	9	San Antonio Palopo	11	Noviembre	2023-11-15T00:00:00	2024-11-08T14:00:00	6	Velocidad del viento	8
19238	7	Sololá	712	San Antonio Palopó	9	San Antonio Palopo	11	Noviembre	2023-11-15T00:00:00	2024-11-08T14:00:00	7	Dirección del viento	8.05
19239	7	Sololá	712	San Antonio Palopó	9	San Antonio Palopo	11	Noviembre	2023-11-15T00:00:00	2024-11-08T14:00:00	1	Precipitación	0
19240	7	Sololá	712	San Antonio Palopó	9	San Antonio Palopo	11	Noviembre	2023-11-15T00:00:00	2024-11-08T14:00:00	8	Radiación solar	193
19241	7	Sololá	712	San Antonio Palopó	9	San Antonio Palopo	11	Noviembre	2023-11-15T00:00:00	2024-11-08T15:00:00	2	Temperatura media	25.8
19242	7	Sololá	712	San Antonio Palopó	9	San Antonio Palopo	11	Noviembre	2023-11-15T00:00:00	2024-11-08T15:00:00	4	Temperatura máxima	26.7
19243	7	Sololá	712	San Antonio Palopó	9	San Antonio Palopo	11	Noviembre	2023-11-15T00:00:00	2024-11-08T15:00:00	3	Temperatura mínima	25.4
19244	7	Sololá	712	San Antonio Palopó	9	San Antonio Palopo	11	Noviembre	2023-11-15T00:00:00	2024-11-08T15:00:00	5	Humedad	54
19245	7	Sololá	712	San Antonio Palopó	9	San Antonio Palopo	11	Noviembre	2023-11-15T00:00:00	2024-11-08T15:00:00	6	Velocidad del viento	8
19246	7	Sololá	712	San Antonio Palopó	9	San Antonio Palopo	11	Noviembre	2023-11-15T00:00:00	2024-11-08T15:00:00	7	Dirección del viento	8.05
19247	7	Sololá	712	San Antonio Palopó	9	San Antonio Palopo	11	Noviembre	2023-11-15T00:00:00	2024-11-08T15:00:00	1	Precipitación	0
19248	7	Sololá	712	San Antonio Palopó	9	San Antonio Palopo	11	Noviembre	2023-11-15T00:00:00	2024-11-08T15:00:00	8	Radiación solar	206
19249	7	Sololá	712	San Antonio Palopó	9	San Antonio Palopo	11	Noviembre	2023-11-15T00:00:00	2024-11-08T16:00:00	2	Temperatura media	26.3
19250	7	Sololá	712	San Antonio Palopó	9	San Antonio Palopo	11	Noviembre	2023-11-15T00:00:00	2024-11-08T16:00:00	4	Temperatura máxima	26.5
19251	7	Sololá	712	San Antonio Palopó	9	San Antonio Palopo	11	Noviembre	2023-11-15T00:00:00	2024-11-08T16:00:00	3	Temperatura mínima	24.8
19252	7	Sololá	712	San Antonio Palopó	9	San Antonio Palopo	11	Noviembre	2023-11-15T00:00:00	2024-11-08T16:00:00	5	Humedad	54
19253	7	Sololá	712	San Antonio Palopó	9	San Antonio Palopo	11	Noviembre	2023-11-15T00:00:00	2024-11-08T16:00:00	6	Velocidad del viento	4.8
19254	7	Sololá	712	San Antonio Palopó	9	San Antonio Palopo	11	Noviembre	2023-11-15T00:00:00	2024-11-08T16:00:00	7	Dirección del viento	4.83
19255	7	Sololá	712	San Antonio Palopó	9	San Antonio Palopo	11	Noviembre	2023-11-15T00:00:00	2024-11-08T16:00:00	1	Precipitación	0
19256	7	Sololá	712	San Antonio Palopó	9	San Antonio Palopo	11	Noviembre	2023-11-15T00:00:00	2024-11-08T16:00:00	8	Radiación solar	189
19257	7	Sololá	712	San Antonio Palopó	9	San Antonio Palopo	11	Noviembre	2023-11-15T00:00:00	2024-11-08T17:00:00	2	Temperatura media	24.7
19258	7	Sololá	712	San Antonio Palopó	9	San Antonio Palopo	11	Noviembre	2023-11-15T00:00:00	2024-11-08T17:00:00	4	Temperatura máxima	27.1
19259	7	Sololá	712	San Antonio Palopó	9	San Antonio Palopo	11	Noviembre	2023-11-15T00:00:00	2024-11-08T17:00:00	3	Temperatura mínima	24.7
19260	7	Sololá	712	San Antonio Palopó	9	San Antonio Palopo	11	Noviembre	2023-11-15T00:00:00	2024-11-08T17:00:00	5	Humedad	55
19261	7	Sololá	712	San Antonio Palopó	9	San Antonio Palopo	11	Noviembre	2023-11-15T00:00:00	2024-11-08T17:00:00	6	Velocidad del viento	8
19262	7	Sololá	712	San Antonio Palopó	9	San Antonio Palopo	11	Noviembre	2023-11-15T00:00:00	2024-11-08T17:00:00	7	Dirección del viento	8.05
19263	7	Sololá	712	San Antonio Palopó	9	San Antonio Palopo	11	Noviembre	2023-11-15T00:00:00	2024-11-08T17:00:00	1	Precipitación	0
19264	7	Sololá	712	San Antonio Palopó	9	San Antonio Palopo	11	Noviembre	2023-11-15T00:00:00	2024-11-08T17:00:00	8	Radiación solar	146
19265	7	Sololá	712	San Antonio Palopó	9	San Antonio Palopo	11	Noviembre	2023-11-15T00:00:00	2024-11-08T18:00:00	2	Temperatura media	23.2
19266	7	Sololá	712	San Antonio Palopó	9	San Antonio Palopo	11	Noviembre	2023-11-15T00:00:00	2024-11-08T18:00:00	4	Temperatura máxima	24.7
19267	7	Sololá	712	San Antonio Palopó	9	San Antonio Palopo	11	Noviembre	2023-11-15T00:00:00	2024-11-08T18:00:00	3	Temperatura mínima	23.2
19268	7	Sololá	712	San Antonio Palopó	9	San Antonio Palopo	11	Noviembre	2023-11-15T00:00:00	2024-11-08T18:00:00	5	Humedad	60
19269	7	Sololá	712	San Antonio Palopó	9	San Antonio Palopo	11	Noviembre	2023-11-15T00:00:00	2024-11-08T18:00:00	6	Velocidad del viento	4.8
19270	7	Sololá	712	San Antonio Palopó	9	San Antonio Palopo	11	Noviembre	2023-11-15T00:00:00	2024-11-08T18:00:00	7	Dirección del viento	4.83
19271	7	Sololá	712	San Antonio Palopó	9	San Antonio Palopo	11	Noviembre	2023-11-15T00:00:00	2024-11-08T18:00:00	1	Precipitación	0
19272	7	Sololá	712	San Antonio Palopó	9	San Antonio Palopo	11	Noviembre	2023-11-15T00:00:00	2024-11-08T18:00:00	8	Radiación solar	6
19273	7	Sololá	712	San Antonio Palopó	9	San Antonio Palopo	11	Noviembre	2023-11-15T00:00:00	2024-11-08T19:00:00	2	Temperatura media	22.3
19274	7	Sololá	712	San Antonio Palopó	9	San Antonio Palopo	11	Noviembre	2023-11-15T00:00:00	2024-11-08T19:00:00	4	Temperatura máxima	23.2
19275	7	Sololá	712	San Antonio Palopó	9	San Antonio Palopo	11	Noviembre	2023-11-15T00:00:00	2024-11-08T19:00:00	3	Temperatura mínima	22.3
19276	7	Sololá	712	San Antonio Palopó	9	San Antonio Palopo	11	Noviembre	2023-11-15T00:00:00	2024-11-08T19:00:00	5	Humedad	62
19277	7	Sololá	712	San Antonio Palopó	9	San Antonio Palopo	11	Noviembre	2023-11-15T00:00:00	2024-11-08T19:00:00	6	Velocidad del viento	6.4
19278	7	Sololá	712	San Antonio Palopó	9	San Antonio Palopo	11	Noviembre	2023-11-15T00:00:00	2024-11-08T19:00:00	7	Dirección del viento	6.44
19279	7	Sololá	712	San Antonio Palopó	9	San Antonio Palopo	11	Noviembre	2023-11-15T00:00:00	2024-11-08T19:00:00	1	Precipitación	0
19280	7	Sololá	712	San Antonio Palopó	9	San Antonio Palopo	11	Noviembre	2023-11-15T00:00:00	2024-11-08T19:00:00	8	Radiación solar	0
19281	7	Sololá	712	San Antonio Palopó	9	San Antonio Palopo	11	Noviembre	2023-11-15T00:00:00	2024-11-08T20:00:00	2	Temperatura media	21.4
19282	7	Sololá	712	San Antonio Palopó	9	San Antonio Palopo	11	Noviembre	2023-11-15T00:00:00	2024-11-08T20:00:00	4	Temperatura máxima	22.3
19283	7	Sololá	712	San Antonio Palopó	9	San Antonio Palopo	11	Noviembre	2023-11-15T00:00:00	2024-11-08T20:00:00	3	Temperatura mínima	21.3
19284	7	Sololá	712	San Antonio Palopó	9	San Antonio Palopo	11	Noviembre	2023-11-15T00:00:00	2024-11-08T20:00:00	5	Humedad	66
19285	7	Sololá	712	San Antonio Palopó	9	San Antonio Palopo	11	Noviembre	2023-11-15T00:00:00	2024-11-08T20:00:00	6	Velocidad del viento	4.8
19286	7	Sololá	712	San Antonio Palopó	9	San Antonio Palopo	11	Noviembre	2023-11-15T00:00:00	2024-11-08T20:00:00	7	Dirección del viento	4.83
19287	7	Sololá	712	San Antonio Palopó	9	San Antonio Palopo	11	Noviembre	2023-11-15T00:00:00	2024-11-08T20:00:00	1	Precipitación	0
19288	7	Sololá	712	San Antonio Palopó	9	San Antonio Palopo	11	Noviembre	2023-11-15T00:00:00	2024-11-08T20:00:00	8	Radiación solar	0
19289	7	Sololá	712	San Antonio Palopó	9	San Antonio Palopo	11	Noviembre	2023-11-15T00:00:00	2024-11-08T21:00:00	2	Temperatura media	21.3
19290	7	Sololá	712	San Antonio Palopó	9	San Antonio Palopo	11	Noviembre	2023-11-15T00:00:00	2024-11-08T21:00:00	4	Temperatura máxima	21.3
19291	7	Sololá	712	San Antonio Palopó	9	San Antonio Palopo	11	Noviembre	2023-11-15T00:00:00	2024-11-08T21:00:00	3	Temperatura mínima	20.7
19292	7	Sololá	712	San Antonio Palopó	9	San Antonio Palopo	11	Noviembre	2023-11-15T00:00:00	2024-11-08T21:00:00	5	Humedad	66
19293	7	Sololá	712	San Antonio Palopó	9	San Antonio Palopo	11	Noviembre	2023-11-15T00:00:00	2024-11-08T21:00:00	6	Velocidad del viento	3.2
19294	7	Sololá	712	San Antonio Palopó	9	San Antonio Palopo	11	Noviembre	2023-11-15T00:00:00	2024-11-08T21:00:00	7	Dirección del viento	3.22
19295	7	Sololá	712	San Antonio Palopó	9	San Antonio Palopo	11	Noviembre	2023-11-15T00:00:00	2024-11-08T21:00:00	1	Precipitación	0
19296	7	Sololá	712	San Antonio Palopó	9	San Antonio Palopo	11	Noviembre	2023-11-15T00:00:00	2024-11-08T21:00:00	8	Radiación solar	0
19297	7	Sololá	712	San Antonio Palopó	9	San Antonio Palopo	11	Noviembre	2023-11-15T00:00:00	2024-11-08T22:00:00	2	Temperatura media	21.4
19298	7	Sololá	712	San Antonio Palopó	9	San Antonio Palopo	11	Noviembre	2023-11-15T00:00:00	2024-11-08T22:00:00	4	Temperatura máxima	21.5
19299	7	Sololá	712	San Antonio Palopó	9	San Antonio Palopo	11	Noviembre	2023-11-15T00:00:00	2024-11-08T22:00:00	3	Temperatura mínima	21.3
19300	7	Sololá	712	San Antonio Palopó	9	San Antonio Palopo	11	Noviembre	2023-11-15T00:00:00	2024-11-08T22:00:00	5	Humedad	62
19301	7	Sololá	712	San Antonio Palopó	9	San Antonio Palopo	11	Noviembre	2023-11-15T00:00:00	2024-11-08T22:00:00	6	Velocidad del viento	4.8
19302	7	Sololá	712	San Antonio Palopó	9	San Antonio Palopo	11	Noviembre	2023-11-15T00:00:00	2024-11-08T22:00:00	7	Dirección del viento	4.83
19303	7	Sololá	712	San Antonio Palopó	9	San Antonio Palopo	11	Noviembre	2023-11-15T00:00:00	2024-11-08T22:00:00	1	Precipitación	0
19304	7	Sololá	712	San Antonio Palopó	9	San Antonio Palopo	11	Noviembre	2023-11-15T00:00:00	2024-11-08T22:00:00	8	Radiación solar	0
19305	7	Sololá	712	San Antonio Palopó	9	San Antonio Palopo	11	Noviembre	2023-11-15T00:00:00	2024-11-08T23:00:00	2	Temperatura media	20.8
19306	7	Sololá	712	San Antonio Palopó	9	San Antonio Palopo	11	Noviembre	2023-11-15T00:00:00	2024-11-08T23:00:00	4	Temperatura máxima	21.4
19307	7	Sololá	712	San Antonio Palopó	9	San Antonio Palopo	11	Noviembre	2023-11-15T00:00:00	2024-11-08T23:00:00	3	Temperatura mínima	20.8
19308	7	Sololá	712	San Antonio Palopó	9	San Antonio Palopo	11	Noviembre	2023-11-15T00:00:00	2024-11-08T23:00:00	5	Humedad	63
19309	7	Sololá	712	San Antonio Palopó	9	San Antonio Palopo	11	Noviembre	2023-11-15T00:00:00	2024-11-08T23:00:00	6	Velocidad del viento	6.4
19310	7	Sololá	712	San Antonio Palopó	9	San Antonio Palopo	11	Noviembre	2023-11-15T00:00:00	2024-11-08T23:00:00	7	Dirección del viento	6.44
19311	7	Sololá	712	San Antonio Palopó	9	San Antonio Palopo	11	Noviembre	2023-11-15T00:00:00	2024-11-08T23:00:00	1	Precipitación	0
19312	7	Sololá	712	San Antonio Palopó	9	San Antonio Palopo	11	Noviembre	2023-11-15T00:00:00	2024-11-08T23:00:00	8	Radiación solar	0
19313	7	Sololá	712	San Antonio Palopó	9	San Antonio Palopo	11	Noviembre	2023-11-16T00:00:00	2024-11-08T00:00:00	2	Temperatura media	20
19314	7	Sololá	712	San Antonio Palopó	9	San Antonio Palopo	11	Noviembre	2023-11-16T00:00:00	2024-11-08T00:00:00	4	Temperatura máxima	20.9
19315	7	Sololá	712	San Antonio Palopó	9	San Antonio Palopo	11	Noviembre	2023-11-16T00:00:00	2024-11-08T00:00:00	3	Temperatura mínima	20
19316	7	Sololá	712	San Antonio Palopó	9	San Antonio Palopo	11	Noviembre	2023-11-16T00:00:00	2024-11-08T00:00:00	5	Humedad	63
19317	7	Sololá	712	San Antonio Palopó	9	San Antonio Palopo	11	Noviembre	2023-11-16T00:00:00	2024-11-08T00:00:00	6	Velocidad del viento	3.2
19318	7	Sololá	712	San Antonio Palopó	9	San Antonio Palopo	11	Noviembre	2023-11-16T00:00:00	2024-11-08T00:00:00	7	Dirección del viento	3.22
19319	7	Sololá	712	San Antonio Palopó	9	San Antonio Palopo	11	Noviembre	2023-11-16T00:00:00	2024-11-08T00:00:00	1	Precipitación	0
19320	7	Sololá	712	San Antonio Palopó	9	San Antonio Palopo	11	Noviembre	2023-11-16T00:00:00	2024-11-08T00:00:00	8	Radiación solar	0
19321	7	Sololá	712	San Antonio Palopó	9	San Antonio Palopo	11	Noviembre	2023-11-16T00:00:00	2024-11-08T01:00:00	2	Temperatura media	20.7
19322	7	Sololá	712	San Antonio Palopó	9	San Antonio Palopo	11	Noviembre	2023-11-16T00:00:00	2024-11-08T01:00:00	4	Temperatura máxima	21.3
19323	7	Sololá	712	San Antonio Palopó	9	San Antonio Palopo	11	Noviembre	2023-11-16T00:00:00	2024-11-08T01:00:00	3	Temperatura mínima	20
19324	7	Sololá	712	San Antonio Palopó	9	San Antonio Palopo	11	Noviembre	2023-11-16T00:00:00	2024-11-08T01:00:00	5	Humedad	62
19325	7	Sololá	712	San Antonio Palopó	9	San Antonio Palopo	11	Noviembre	2023-11-16T00:00:00	2024-11-08T01:00:00	6	Velocidad del viento	4.8
19326	7	Sololá	712	San Antonio Palopó	9	San Antonio Palopo	11	Noviembre	2023-11-16T00:00:00	2024-11-08T01:00:00	7	Dirección del viento	4.83
19327	7	Sololá	712	San Antonio Palopó	9	San Antonio Palopo	11	Noviembre	2023-11-16T00:00:00	2024-11-08T01:00:00	1	Precipitación	0
19328	7	Sololá	712	San Antonio Palopó	9	San Antonio Palopo	11	Noviembre	2023-11-16T00:00:00	2024-11-08T01:00:00	8	Radiación solar	0
19329	7	Sololá	712	San Antonio Palopó	9	San Antonio Palopo	11	Noviembre	2023-11-16T00:00:00	2024-11-08T02:00:00	2	Temperatura media	20.3
19330	7	Sololá	712	San Antonio Palopó	9	San Antonio Palopo	11	Noviembre	2023-11-16T00:00:00	2024-11-08T02:00:00	4	Temperatura máxima	21.3
19331	7	Sololá	712	San Antonio Palopó	9	San Antonio Palopo	11	Noviembre	2023-11-16T00:00:00	2024-11-08T02:00:00	3	Temperatura mínima	20.3
19332	7	Sololá	712	San Antonio Palopó	9	San Antonio Palopo	11	Noviembre	2023-11-16T00:00:00	2024-11-08T02:00:00	5	Humedad	70
19333	7	Sololá	712	San Antonio Palopó	9	San Antonio Palopo	11	Noviembre	2023-11-16T00:00:00	2024-11-08T02:00:00	6	Velocidad del viento	6.4
19334	7	Sololá	712	San Antonio Palopó	9	San Antonio Palopo	11	Noviembre	2023-11-16T00:00:00	2024-11-08T02:00:00	7	Dirección del viento	6.44
19335	7	Sololá	712	San Antonio Palopó	9	San Antonio Palopo	11	Noviembre	2023-11-16T00:00:00	2024-11-08T02:00:00	1	Precipitación	0
19336	7	Sololá	712	San Antonio Palopó	9	San Antonio Palopo	11	Noviembre	2023-11-16T00:00:00	2024-11-08T02:00:00	8	Radiación solar	0
19337	7	Sololá	712	San Antonio Palopó	9	San Antonio Palopo	11	Noviembre	2023-11-16T00:00:00	2024-11-08T03:00:00	2	Temperatura media	19.8
19338	7	Sololá	712	San Antonio Palopó	9	San Antonio Palopo	11	Noviembre	2023-11-16T00:00:00	2024-11-08T03:00:00	4	Temperatura máxima	20.3
19339	7	Sololá	712	San Antonio Palopó	9	San Antonio Palopo	11	Noviembre	2023-11-16T00:00:00	2024-11-08T03:00:00	3	Temperatura mínima	19
19340	7	Sololá	712	San Antonio Palopó	9	San Antonio Palopo	11	Noviembre	2023-11-16T00:00:00	2024-11-08T03:00:00	5	Humedad	66
19341	7	Sololá	712	San Antonio Palopó	9	San Antonio Palopo	11	Noviembre	2023-11-16T00:00:00	2024-11-08T03:00:00	6	Velocidad del viento	4.8
19342	7	Sololá	712	San Antonio Palopó	9	San Antonio Palopo	11	Noviembre	2023-11-16T00:00:00	2024-11-08T03:00:00	7	Dirección del viento	4.83
19343	7	Sololá	712	San Antonio Palopó	9	San Antonio Palopo	11	Noviembre	2023-11-16T00:00:00	2024-11-08T03:00:00	1	Precipitación	0
19344	7	Sololá	712	San Antonio Palopó	9	San Antonio Palopo	11	Noviembre	2023-11-16T00:00:00	2024-11-08T03:00:00	8	Radiación solar	0
19345	7	Sololá	712	San Antonio Palopó	9	San Antonio Palopo	11	Noviembre	2023-11-16T00:00:00	2024-11-08T04:00:00	2	Temperatura media	19.6
19346	7	Sololá	712	San Antonio Palopó	9	San Antonio Palopo	11	Noviembre	2023-11-16T00:00:00	2024-11-08T04:00:00	4	Temperatura máxima	21
19347	7	Sololá	712	San Antonio Palopó	9	San Antonio Palopo	11	Noviembre	2023-11-16T00:00:00	2024-11-08T04:00:00	3	Temperatura mínima	19.6
19348	7	Sololá	712	San Antonio Palopó	9	San Antonio Palopo	11	Noviembre	2023-11-16T00:00:00	2024-11-08T04:00:00	5	Humedad	71
19349	7	Sololá	712	San Antonio Palopó	9	San Antonio Palopo	11	Noviembre	2023-11-16T00:00:00	2024-11-08T04:00:00	6	Velocidad del viento	4.8
19350	7	Sololá	712	San Antonio Palopó	9	San Antonio Palopo	11	Noviembre	2023-11-16T00:00:00	2024-11-08T04:00:00	7	Dirección del viento	4.83
19351	7	Sololá	712	San Antonio Palopó	9	San Antonio Palopo	11	Noviembre	2023-11-16T00:00:00	2024-11-08T04:00:00	1	Precipitación	0
19352	7	Sololá	712	San Antonio Palopó	9	San Antonio Palopo	11	Noviembre	2023-11-16T00:00:00	2024-11-08T04:00:00	8	Radiación solar	0
19353	7	Sololá	712	San Antonio Palopó	9	San Antonio Palopo	11	Noviembre	2023-11-16T00:00:00	2024-11-08T05:00:00	2	Temperatura media	21.2
19354	7	Sololá	712	San Antonio Palopó	9	San Antonio Palopo	11	Noviembre	2023-11-16T00:00:00	2024-11-08T05:00:00	4	Temperatura máxima	21.3
19355	7	Sololá	712	San Antonio Palopó	9	San Antonio Palopo	11	Noviembre	2023-11-16T00:00:00	2024-11-08T05:00:00	3	Temperatura mínima	19.2
19356	7	Sololá	712	San Antonio Palopó	9	San Antonio Palopo	11	Noviembre	2023-11-16T00:00:00	2024-11-08T05:00:00	5	Humedad	61
19357	7	Sololá	712	San Antonio Palopó	9	San Antonio Palopo	11	Noviembre	2023-11-16T00:00:00	2024-11-08T05:00:00	6	Velocidad del viento	4.8
19358	7	Sololá	712	San Antonio Palopó	9	San Antonio Palopo	11	Noviembre	2023-11-16T00:00:00	2024-11-08T05:00:00	7	Dirección del viento	4.83
19359	7	Sololá	712	San Antonio Palopó	9	San Antonio Palopo	11	Noviembre	2023-11-16T00:00:00	2024-11-08T05:00:00	1	Precipitación	0
19360	7	Sololá	712	San Antonio Palopó	9	San Antonio Palopo	11	Noviembre	2023-11-16T00:00:00	2024-11-08T05:00:00	8	Radiación solar	0
19361	7	Sololá	712	San Antonio Palopó	9	San Antonio Palopo	11	Noviembre	2023-11-16T00:00:00	2024-11-08T06:00:00	2	Temperatura media	19.4
19362	7	Sololá	712	San Antonio Palopó	9	San Antonio Palopo	11	Noviembre	2023-11-16T00:00:00	2024-11-08T06:00:00	4	Temperatura máxima	21.3
19363	7	Sololá	712	San Antonio Palopó	9	San Antonio Palopo	11	Noviembre	2023-11-16T00:00:00	2024-11-08T06:00:00	3	Temperatura mínima	19.1
19364	7	Sololá	712	San Antonio Palopó	9	San Antonio Palopo	11	Noviembre	2023-11-16T00:00:00	2024-11-08T06:00:00	5	Humedad	68
19365	7	Sololá	712	San Antonio Palopó	9	San Antonio Palopo	11	Noviembre	2023-11-16T00:00:00	2024-11-08T06:00:00	6	Velocidad del viento	4.8
19366	7	Sololá	712	San Antonio Palopó	9	San Antonio Palopo	11	Noviembre	2023-11-16T00:00:00	2024-11-08T06:00:00	7	Dirección del viento	4.83
19367	7	Sololá	712	San Antonio Palopó	9	San Antonio Palopo	11	Noviembre	2023-11-16T00:00:00	2024-11-08T06:00:00	1	Precipitación	0
19368	7	Sololá	712	San Antonio Palopó	9	San Antonio Palopo	11	Noviembre	2023-11-16T00:00:00	2024-11-08T06:00:00	8	Radiación solar	0
19369	7	Sololá	712	San Antonio Palopó	9	San Antonio Palopo	11	Noviembre	2023-11-16T00:00:00	2024-11-08T07:00:00	2	Temperatura media	19.9
19370	7	Sololá	712	San Antonio Palopó	9	San Antonio Palopo	11	Noviembre	2023-11-16T00:00:00	2024-11-08T07:00:00	4	Temperatura máxima	20.1
19371	7	Sololá	712	San Antonio Palopó	9	San Antonio Palopo	11	Noviembre	2023-11-16T00:00:00	2024-11-08T07:00:00	3	Temperatura mínima	19.3
19372	7	Sololá	712	San Antonio Palopó	9	San Antonio Palopo	11	Noviembre	2023-11-16T00:00:00	2024-11-08T07:00:00	5	Humedad	64
19373	7	Sololá	712	San Antonio Palopó	9	San Antonio Palopo	11	Noviembre	2023-11-16T00:00:00	2024-11-08T07:00:00	6	Velocidad del viento	4.8
19374	7	Sololá	712	San Antonio Palopó	9	San Antonio Palopo	11	Noviembre	2023-11-16T00:00:00	2024-11-08T07:00:00	7	Dirección del viento	4.83
19375	7	Sololá	712	San Antonio Palopó	9	San Antonio Palopo	11	Noviembre	2023-11-16T00:00:00	2024-11-08T07:00:00	1	Precipitación	0
19376	7	Sololá	712	San Antonio Palopó	9	San Antonio Palopo	11	Noviembre	2023-11-16T00:00:00	2024-11-08T07:00:00	8	Radiación solar	9
19377	7	Sololá	712	San Antonio Palopó	9	San Antonio Palopo	11	Noviembre	2023-11-16T00:00:00	2024-11-08T08:00:00	2	Temperatura media	19.3
19378	7	Sololá	712	San Antonio Palopó	9	San Antonio Palopo	11	Noviembre	2023-11-16T00:00:00	2024-11-08T08:00:00	4	Temperatura máxima	19.9
19379	7	Sololá	712	San Antonio Palopó	9	San Antonio Palopo	11	Noviembre	2023-11-16T00:00:00	2024-11-08T08:00:00	3	Temperatura mínima	18.9
19380	7	Sololá	712	San Antonio Palopó	9	San Antonio Palopo	11	Noviembre	2023-11-16T00:00:00	2024-11-08T08:00:00	5	Humedad	68
19381	7	Sololá	712	San Antonio Palopó	9	San Antonio Palopo	11	Noviembre	2023-11-16T00:00:00	2024-11-08T08:00:00	6	Velocidad del viento	4.8
19382	7	Sololá	712	San Antonio Palopó	9	San Antonio Palopo	11	Noviembre	2023-11-16T00:00:00	2024-11-08T08:00:00	7	Dirección del viento	4.83
19383	7	Sololá	712	San Antonio Palopó	9	San Antonio Palopo	11	Noviembre	2023-11-16T00:00:00	2024-11-08T08:00:00	1	Precipitación	0
19384	7	Sololá	712	San Antonio Palopó	9	San Antonio Palopo	11	Noviembre	2023-11-16T00:00:00	2024-11-08T08:00:00	8	Radiación solar	19
19385	7	Sololá	712	San Antonio Palopó	9	San Antonio Palopo	11	Noviembre	2023-11-16T00:00:00	2024-11-08T09:00:00	2	Temperatura media	22.9
19386	7	Sololá	712	San Antonio Palopó	9	San Antonio Palopo	11	Noviembre	2023-11-16T00:00:00	2024-11-08T09:00:00	4	Temperatura máxima	22.9
19387	7	Sololá	712	San Antonio Palopó	9	San Antonio Palopo	11	Noviembre	2023-11-16T00:00:00	2024-11-08T09:00:00	3	Temperatura mínima	19.3
19388	7	Sololá	712	San Antonio Palopó	9	San Antonio Palopo	11	Noviembre	2023-11-16T00:00:00	2024-11-08T09:00:00	5	Humedad	59
19389	7	Sololá	712	San Antonio Palopó	9	San Antonio Palopo	11	Noviembre	2023-11-16T00:00:00	2024-11-08T09:00:00	6	Velocidad del viento	6.4
19390	7	Sololá	712	San Antonio Palopó	9	San Antonio Palopo	11	Noviembre	2023-11-16T00:00:00	2024-11-08T09:00:00	7	Dirección del viento	6.44
19391	7	Sololá	712	San Antonio Palopó	9	San Antonio Palopo	11	Noviembre	2023-11-16T00:00:00	2024-11-08T09:00:00	1	Precipitación	0
19392	7	Sololá	712	San Antonio Palopó	9	San Antonio Palopo	11	Noviembre	2023-11-16T00:00:00	2024-11-08T09:00:00	8	Radiación solar	392
19393	7	Sololá	712	San Antonio Palopó	9	San Antonio Palopo	11	Noviembre	2023-11-16T00:00:00	2024-11-08T10:00:00	2	Temperatura media	24.2
19394	7	Sololá	712	San Antonio Palopó	9	San Antonio Palopo	11	Noviembre	2023-11-16T00:00:00	2024-11-08T10:00:00	4	Temperatura máxima	24.2
19395	7	Sololá	712	San Antonio Palopó	9	San Antonio Palopo	11	Noviembre	2023-11-16T00:00:00	2024-11-08T10:00:00	3	Temperatura mínima	22.9
19396	7	Sololá	712	San Antonio Palopó	9	San Antonio Palopo	11	Noviembre	2023-11-16T00:00:00	2024-11-08T10:00:00	5	Humedad	58
19397	7	Sololá	712	San Antonio Palopó	9	San Antonio Palopo	11	Noviembre	2023-11-16T00:00:00	2024-11-08T10:00:00	6	Velocidad del viento	6.4
19398	7	Sololá	712	San Antonio Palopó	9	San Antonio Palopo	11	Noviembre	2023-11-16T00:00:00	2024-11-08T10:00:00	7	Dirección del viento	6.44
19399	7	Sololá	712	San Antonio Palopó	9	San Antonio Palopo	11	Noviembre	2023-11-16T00:00:00	2024-11-08T10:00:00	1	Precipitación	0
19400	7	Sololá	712	San Antonio Palopó	9	San Antonio Palopo	11	Noviembre	2023-11-16T00:00:00	2024-11-08T10:00:00	8	Radiación solar	631
19401	7	Sololá	712	San Antonio Palopó	9	San Antonio Palopo	11	Noviembre	2023-11-16T00:00:00	2024-11-08T11:00:00	2	Temperatura media	25.6
19402	7	Sololá	712	San Antonio Palopó	9	San Antonio Palopo	11	Noviembre	2023-11-16T00:00:00	2024-11-08T11:00:00	4	Temperatura máxima	25.6
19403	7	Sololá	712	San Antonio Palopó	9	San Antonio Palopo	11	Noviembre	2023-11-16T00:00:00	2024-11-08T11:00:00	3	Temperatura mínima	24.2
19404	7	Sololá	712	San Antonio Palopó	9	San Antonio Palopo	11	Noviembre	2023-11-16T00:00:00	2024-11-08T11:00:00	5	Humedad	53
19405	7	Sololá	712	San Antonio Palopó	9	San Antonio Palopo	11	Noviembre	2023-11-16T00:00:00	2024-11-08T11:00:00	6	Velocidad del viento	9.7
19406	7	Sololá	712	San Antonio Palopó	9	San Antonio Palopo	11	Noviembre	2023-11-16T00:00:00	2024-11-08T11:00:00	7	Dirección del viento	9.66
19407	7	Sololá	712	San Antonio Palopó	9	San Antonio Palopo	11	Noviembre	2023-11-16T00:00:00	2024-11-08T11:00:00	1	Precipitación	0
19408	7	Sololá	712	San Antonio Palopó	9	San Antonio Palopo	11	Noviembre	2023-11-16T00:00:00	2024-11-08T11:00:00	8	Radiación solar	745
19409	7	Sololá	712	San Antonio Palopó	9	San Antonio Palopo	11	Noviembre	2023-11-16T00:00:00	2024-11-08T12:00:00	2	Temperatura media	25.2
19410	7	Sololá	712	San Antonio Palopó	9	San Antonio Palopo	11	Noviembre	2023-11-16T00:00:00	2024-11-08T12:00:00	4	Temperatura máxima	25.6
19411	7	Sololá	712	San Antonio Palopó	9	San Antonio Palopo	11	Noviembre	2023-11-16T00:00:00	2024-11-08T12:00:00	3	Temperatura mínima	24.5
19412	7	Sololá	712	San Antonio Palopó	9	San Antonio Palopo	11	Noviembre	2023-11-16T00:00:00	2024-11-08T12:00:00	5	Humedad	63
19413	7	Sololá	712	San Antonio Palopó	9	San Antonio Palopo	11	Noviembre	2023-11-16T00:00:00	2024-11-08T12:00:00	6	Velocidad del viento	8
19414	7	Sololá	712	San Antonio Palopó	9	San Antonio Palopo	11	Noviembre	2023-11-16T00:00:00	2024-11-08T12:00:00	7	Dirección del viento	8.05
19415	7	Sololá	712	San Antonio Palopó	9	San Antonio Palopo	11	Noviembre	2023-11-16T00:00:00	2024-11-08T12:00:00	1	Precipitación	0
19416	7	Sololá	712	San Antonio Palopó	9	San Antonio Palopo	11	Noviembre	2023-11-16T00:00:00	2024-11-08T12:00:00	8	Radiación solar	710
19417	7	Sololá	712	San Antonio Palopó	9	San Antonio Palopo	11	Noviembre	2023-11-16T00:00:00	2024-11-08T13:00:00	2	Temperatura media	24.8
19418	7	Sololá	712	San Antonio Palopó	9	San Antonio Palopo	11	Noviembre	2023-11-16T00:00:00	2024-11-08T13:00:00	4	Temperatura máxima	25.4
19419	7	Sololá	712	San Antonio Palopó	9	San Antonio Palopo	11	Noviembre	2023-11-16T00:00:00	2024-11-08T13:00:00	3	Temperatura mínima	24.4
19420	7	Sololá	712	San Antonio Palopó	9	San Antonio Palopo	11	Noviembre	2023-11-16T00:00:00	2024-11-08T13:00:00	5	Humedad	70
19421	7	Sololá	712	San Antonio Palopó	9	San Antonio Palopo	11	Noviembre	2023-11-16T00:00:00	2024-11-08T13:00:00	6	Velocidad del viento	9.7
19422	7	Sololá	712	San Antonio Palopó	9	San Antonio Palopo	11	Noviembre	2023-11-16T00:00:00	2024-11-08T13:00:00	7	Dirección del viento	9.66
19423	7	Sololá	712	San Antonio Palopó	9	San Antonio Palopo	11	Noviembre	2023-11-16T00:00:00	2024-11-08T13:00:00	1	Precipitación	0
19424	7	Sololá	712	San Antonio Palopó	9	San Antonio Palopo	11	Noviembre	2023-11-16T00:00:00	2024-11-08T13:00:00	8	Radiación solar	804
19425	7	Sololá	712	San Antonio Palopó	9	San Antonio Palopo	11	Noviembre	2023-11-16T00:00:00	2024-11-08T14:00:00	2	Temperatura media	24.7
19426	7	Sololá	712	San Antonio Palopó	9	San Antonio Palopo	11	Noviembre	2023-11-16T00:00:00	2024-11-08T14:00:00	4	Temperatura máxima	25
19427	7	Sololá	712	San Antonio Palopó	9	San Antonio Palopo	11	Noviembre	2023-11-16T00:00:00	2024-11-08T14:00:00	3	Temperatura mínima	24.6
19428	7	Sololá	712	San Antonio Palopó	9	San Antonio Palopo	11	Noviembre	2023-11-16T00:00:00	2024-11-08T14:00:00	5	Humedad	71
19429	7	Sololá	712	San Antonio Palopó	9	San Antonio Palopo	11	Noviembre	2023-11-16T00:00:00	2024-11-08T14:00:00	6	Velocidad del viento	11.3
19430	7	Sololá	712	San Antonio Palopó	9	San Antonio Palopo	11	Noviembre	2023-11-16T00:00:00	2024-11-08T14:00:00	7	Dirección del viento	11.27
19431	7	Sololá	712	San Antonio Palopó	9	San Antonio Palopo	11	Noviembre	2023-11-16T00:00:00	2024-11-08T14:00:00	1	Precipitación	0
19432	7	Sololá	712	San Antonio Palopó	9	San Antonio Palopo	11	Noviembre	2023-11-16T00:00:00	2024-11-08T14:00:00	8	Radiación solar	746
19433	7	Sololá	712	San Antonio Palopó	9	San Antonio Palopo	11	Noviembre	2023-11-16T00:00:00	2024-11-08T15:00:00	2	Temperatura media	24.3
19434	7	Sololá	712	San Antonio Palopó	9	San Antonio Palopo	11	Noviembre	2023-11-16T00:00:00	2024-11-08T15:00:00	4	Temperatura máxima	25.1
19435	7	Sololá	712	San Antonio Palopó	9	San Antonio Palopo	11	Noviembre	2023-11-16T00:00:00	2024-11-08T15:00:00	3	Temperatura mínima	24.3
19436	7	Sololá	712	San Antonio Palopó	9	San Antonio Palopo	11	Noviembre	2023-11-16T00:00:00	2024-11-08T15:00:00	5	Humedad	73
19437	7	Sololá	712	San Antonio Palopó	9	San Antonio Palopo	11	Noviembre	2023-11-16T00:00:00	2024-11-08T15:00:00	6	Velocidad del viento	12.9
19438	7	Sololá	712	San Antonio Palopó	9	San Antonio Palopo	11	Noviembre	2023-11-16T00:00:00	2024-11-08T15:00:00	7	Dirección del viento	12.87
19439	7	Sololá	712	San Antonio Palopó	9	San Antonio Palopo	11	Noviembre	2023-11-16T00:00:00	2024-11-08T15:00:00	1	Precipitación	0
19440	7	Sololá	712	San Antonio Palopó	9	San Antonio Palopo	11	Noviembre	2023-11-16T00:00:00	2024-11-08T15:00:00	8	Radiación solar	611
19441	7	Sololá	712	San Antonio Palopó	9	San Antonio Palopo	11	Noviembre	2023-11-16T00:00:00	2024-11-08T16:00:00	2	Temperatura media	22.6
19442	7	Sololá	712	San Antonio Palopó	9	San Antonio Palopo	11	Noviembre	2023-11-16T00:00:00	2024-11-08T16:00:00	4	Temperatura máxima	24.3
19443	7	Sololá	712	San Antonio Palopó	9	San Antonio Palopo	11	Noviembre	2023-11-16T00:00:00	2024-11-08T16:00:00	3	Temperatura mínima	22.6
19444	7	Sololá	712	San Antonio Palopó	9	San Antonio Palopo	11	Noviembre	2023-11-16T00:00:00	2024-11-08T16:00:00	5	Humedad	77
19445	7	Sololá	712	San Antonio Palopó	9	San Antonio Palopo	11	Noviembre	2023-11-16T00:00:00	2024-11-08T16:00:00	6	Velocidad del viento	8
19446	7	Sololá	712	San Antonio Palopó	9	San Antonio Palopo	11	Noviembre	2023-11-16T00:00:00	2024-11-08T16:00:00	7	Dirección del viento	8.05
19447	7	Sololá	712	San Antonio Palopó	9	San Antonio Palopo	11	Noviembre	2023-11-16T00:00:00	2024-11-08T16:00:00	1	Precipitación	0
19448	7	Sololá	712	San Antonio Palopó	9	San Antonio Palopo	11	Noviembre	2023-11-16T00:00:00	2024-11-08T16:00:00	8	Radiación solar	155
19449	7	Sololá	712	San Antonio Palopó	9	San Antonio Palopo	11	Noviembre	2023-11-16T00:00:00	2024-11-08T17:00:00	2	Temperatura media	21.4
19450	7	Sololá	712	San Antonio Palopó	9	San Antonio Palopo	11	Noviembre	2023-11-16T00:00:00	2024-11-08T17:00:00	4	Temperatura máxima	22.7
19451	7	Sololá	712	San Antonio Palopó	9	San Antonio Palopo	11	Noviembre	2023-11-16T00:00:00	2024-11-08T17:00:00	3	Temperatura mínima	21.4
19452	7	Sololá	712	San Antonio Palopó	9	San Antonio Palopo	11	Noviembre	2023-11-16T00:00:00	2024-11-08T17:00:00	5	Humedad	80
19453	7	Sololá	712	San Antonio Palopó	9	San Antonio Palopo	11	Noviembre	2023-11-16T00:00:00	2024-11-08T17:00:00	6	Velocidad del viento	6.4
19454	7	Sololá	712	San Antonio Palopó	9	San Antonio Palopo	11	Noviembre	2023-11-16T00:00:00	2024-11-08T17:00:00	7	Dirección del viento	6.44
19455	7	Sololá	712	San Antonio Palopó	9	San Antonio Palopo	11	Noviembre	2023-11-16T00:00:00	2024-11-08T17:00:00	1	Precipitación	0
19456	7	Sololá	712	San Antonio Palopó	9	San Antonio Palopo	11	Noviembre	2023-11-16T00:00:00	2024-11-08T17:00:00	8	Radiación solar	43
19457	7	Sololá	712	San Antonio Palopó	9	San Antonio Palopo	11	Noviembre	2023-11-16T00:00:00	2024-11-08T18:00:00	2	Temperatura media	21.7
19458	7	Sololá	712	San Antonio Palopó	9	San Antonio Palopo	11	Noviembre	2023-11-16T00:00:00	2024-11-08T18:00:00	4	Temperatura máxima	21.7
19459	7	Sololá	712	San Antonio Palopó	9	San Antonio Palopo	11	Noviembre	2023-11-16T00:00:00	2024-11-08T18:00:00	3	Temperatura mínima	21.2
19460	7	Sololá	712	San Antonio Palopó	9	San Antonio Palopo	11	Noviembre	2023-11-16T00:00:00	2024-11-08T18:00:00	5	Humedad	73
19461	7	Sololá	712	San Antonio Palopó	9	San Antonio Palopo	11	Noviembre	2023-11-16T00:00:00	2024-11-08T18:00:00	6	Velocidad del viento	3.2
19462	7	Sololá	712	San Antonio Palopó	9	San Antonio Palopo	11	Noviembre	2023-11-16T00:00:00	2024-11-08T18:00:00	7	Dirección del viento	3.22
19463	7	Sololá	712	San Antonio Palopó	9	San Antonio Palopo	11	Noviembre	2023-11-16T00:00:00	2024-11-08T18:00:00	1	Precipitación	0
19464	7	Sololá	712	San Antonio Palopó	9	San Antonio Palopo	11	Noviembre	2023-11-16T00:00:00	2024-11-08T18:00:00	8	Radiación solar	2
19465	7	Sololá	712	San Antonio Palopó	9	San Antonio Palopo	11	Noviembre	2023-11-16T00:00:00	2024-11-08T19:00:00	2	Temperatura media	21.1
19466	7	Sololá	712	San Antonio Palopó	9	San Antonio Palopo	11	Noviembre	2023-11-16T00:00:00	2024-11-08T19:00:00	4	Temperatura máxima	21.8
19467	7	Sololá	712	San Antonio Palopó	9	San Antonio Palopo	11	Noviembre	2023-11-16T00:00:00	2024-11-08T19:00:00	3	Temperatura mínima	21.1
19468	7	Sololá	712	San Antonio Palopó	9	San Antonio Palopo	11	Noviembre	2023-11-16T00:00:00	2024-11-08T19:00:00	5	Humedad	71
19469	7	Sololá	712	San Antonio Palopó	9	San Antonio Palopo	11	Noviembre	2023-11-16T00:00:00	2024-11-08T19:00:00	6	Velocidad del viento	11.3
19470	7	Sololá	712	San Antonio Palopó	9	San Antonio Palopo	11	Noviembre	2023-11-16T00:00:00	2024-11-08T19:00:00	7	Dirección del viento	11.27
19471	7	Sololá	712	San Antonio Palopó	9	San Antonio Palopo	11	Noviembre	2023-11-16T00:00:00	2024-11-08T19:00:00	1	Precipitación	0
19472	7	Sololá	712	San Antonio Palopó	9	San Antonio Palopo	11	Noviembre	2023-11-16T00:00:00	2024-11-08T19:00:00	8	Radiación solar	0
19473	7	Sololá	712	San Antonio Palopó	9	San Antonio Palopo	11	Noviembre	2023-11-16T00:00:00	2024-11-08T20:00:00	2	Temperatura media	20.6
19474	7	Sololá	712	San Antonio Palopó	9	San Antonio Palopo	11	Noviembre	2023-11-16T00:00:00	2024-11-08T20:00:00	4	Temperatura máxima	21.1
19475	7	Sololá	712	San Antonio Palopó	9	San Antonio Palopo	11	Noviembre	2023-11-16T00:00:00	2024-11-08T20:00:00	3	Temperatura mínima	20.5
19476	7	Sololá	712	San Antonio Palopó	9	San Antonio Palopo	11	Noviembre	2023-11-16T00:00:00	2024-11-08T20:00:00	5	Humedad	71
19477	7	Sololá	712	San Antonio Palopó	9	San Antonio Palopo	11	Noviembre	2023-11-16T00:00:00	2024-11-08T20:00:00	6	Velocidad del viento	12.9
19478	7	Sololá	712	San Antonio Palopó	9	San Antonio Palopo	11	Noviembre	2023-11-16T00:00:00	2024-11-08T20:00:00	7	Dirección del viento	12.87
19479	7	Sololá	712	San Antonio Palopó	9	San Antonio Palopo	11	Noviembre	2023-11-16T00:00:00	2024-11-08T20:00:00	1	Precipitación	0
19480	7	Sololá	712	San Antonio Palopó	9	San Antonio Palopo	11	Noviembre	2023-11-16T00:00:00	2024-11-08T20:00:00	8	Radiación solar	0
19481	7	Sololá	712	San Antonio Palopó	9	San Antonio Palopo	11	Noviembre	2023-11-16T00:00:00	2024-11-08T21:00:00	2	Temperatura media	20.3
19482	7	Sololá	712	San Antonio Palopó	9	San Antonio Palopo	11	Noviembre	2023-11-16T00:00:00	2024-11-08T21:00:00	4	Temperatura máxima	20.5
19483	7	Sololá	712	San Antonio Palopó	9	San Antonio Palopo	11	Noviembre	2023-11-16T00:00:00	2024-11-08T21:00:00	3	Temperatura mínima	20.1
19484	7	Sololá	712	San Antonio Palopó	9	San Antonio Palopo	11	Noviembre	2023-11-16T00:00:00	2024-11-08T21:00:00	5	Humedad	71
19485	7	Sololá	712	San Antonio Palopó	9	San Antonio Palopo	11	Noviembre	2023-11-16T00:00:00	2024-11-08T21:00:00	6	Velocidad del viento	11.3
19486	7	Sololá	712	San Antonio Palopó	9	San Antonio Palopo	11	Noviembre	2023-11-16T00:00:00	2024-11-08T21:00:00	7	Dirección del viento	11.27
19487	7	Sololá	712	San Antonio Palopó	9	San Antonio Palopo	11	Noviembre	2023-11-16T00:00:00	2024-11-08T21:00:00	1	Precipitación	0
19488	7	Sololá	712	San Antonio Palopó	9	San Antonio Palopo	11	Noviembre	2023-11-16T00:00:00	2024-11-08T21:00:00	8	Radiación solar	0
19489	7	Sololá	712	San Antonio Palopó	9	San Antonio Palopo	11	Noviembre	2023-11-16T00:00:00	2024-11-08T22:00:00	2	Temperatura media	19.7
19490	7	Sololá	712	San Antonio Palopó	9	San Antonio Palopo	11	Noviembre	2023-11-16T00:00:00	2024-11-08T22:00:00	4	Temperatura máxima	20.3
19491	7	Sololá	712	San Antonio Palopó	9	San Antonio Palopo	11	Noviembre	2023-11-16T00:00:00	2024-11-08T22:00:00	3	Temperatura mínima	19.6
19492	7	Sololá	712	San Antonio Palopó	9	San Antonio Palopo	11	Noviembre	2023-11-16T00:00:00	2024-11-08T22:00:00	5	Humedad	73
19493	7	Sololá	712	San Antonio Palopó	9	San Antonio Palopo	11	Noviembre	2023-11-16T00:00:00	2024-11-08T22:00:00	6	Velocidad del viento	12.9
19494	7	Sololá	712	San Antonio Palopó	9	San Antonio Palopo	11	Noviembre	2023-11-16T00:00:00	2024-11-08T22:00:00	7	Dirección del viento	12.87
19495	7	Sololá	712	San Antonio Palopó	9	San Antonio Palopo	11	Noviembre	2023-11-16T00:00:00	2024-11-08T22:00:00	1	Precipitación	0
19496	7	Sololá	712	San Antonio Palopó	9	San Antonio Palopo	11	Noviembre	2023-11-16T00:00:00	2024-11-08T22:00:00	8	Radiación solar	0
19497	7	Sololá	712	San Antonio Palopó	9	San Antonio Palopo	11	Noviembre	2023-11-16T00:00:00	2024-11-08T23:00:00	2	Temperatura media	19.7
19498	7	Sololá	712	San Antonio Palopó	9	San Antonio Palopo	11	Noviembre	2023-11-16T00:00:00	2024-11-08T23:00:00	4	Temperatura máxima	19.7
19499	7	Sololá	712	San Antonio Palopó	9	San Antonio Palopo	11	Noviembre	2023-11-16T00:00:00	2024-11-08T23:00:00	3	Temperatura mínima	19.5
19500	7	Sololá	712	San Antonio Palopó	9	San Antonio Palopo	11	Noviembre	2023-11-16T00:00:00	2024-11-08T23:00:00	5	Humedad	72
19501	7	Sololá	712	San Antonio Palopó	9	San Antonio Palopo	11	Noviembre	2023-11-16T00:00:00	2024-11-08T23:00:00	6	Velocidad del viento	14.5
19502	7	Sololá	712	San Antonio Palopó	9	San Antonio Palopo	11	Noviembre	2023-11-16T00:00:00	2024-11-08T23:00:00	7	Dirección del viento	14.48
19503	7	Sololá	712	San Antonio Palopó	9	San Antonio Palopo	11	Noviembre	2023-11-16T00:00:00	2024-11-08T23:00:00	1	Precipitación	0
19504	7	Sololá	712	San Antonio Palopó	9	San Antonio Palopo	11	Noviembre	2023-11-16T00:00:00	2024-11-08T23:00:00	8	Radiación solar	0
19505	7	Sololá	712	San Antonio Palopó	9	San Antonio Palopo	11	Noviembre	2023-11-17T00:00:00	2024-11-08T00:00:00	2	Temperatura media	19.8
19506	7	Sololá	712	San Antonio Palopó	9	San Antonio Palopo	11	Noviembre	2023-11-17T00:00:00	2024-11-08T00:00:00	4	Temperatura máxima	19.8
19507	7	Sololá	712	San Antonio Palopó	9	San Antonio Palopo	11	Noviembre	2023-11-17T00:00:00	2024-11-08T00:00:00	3	Temperatura mínima	19.7
19508	7	Sololá	712	San Antonio Palopó	9	San Antonio Palopo	11	Noviembre	2023-11-17T00:00:00	2024-11-08T00:00:00	5	Humedad	72
19509	7	Sololá	712	San Antonio Palopó	9	San Antonio Palopo	11	Noviembre	2023-11-17T00:00:00	2024-11-08T00:00:00	6	Velocidad del viento	11.3
19510	7	Sololá	712	San Antonio Palopó	9	San Antonio Palopo	11	Noviembre	2023-11-17T00:00:00	2024-11-08T00:00:00	7	Dirección del viento	11.27
19511	7	Sololá	712	San Antonio Palopó	9	San Antonio Palopo	11	Noviembre	2023-11-17T00:00:00	2024-11-08T00:00:00	1	Precipitación	0
19512	7	Sololá	712	San Antonio Palopó	9	San Antonio Palopo	11	Noviembre	2023-11-17T00:00:00	2024-11-08T00:00:00	8	Radiación solar	0
19513	7	Sololá	712	San Antonio Palopó	9	San Antonio Palopo	11	Noviembre	2023-11-17T00:00:00	2024-11-08T01:00:00	2	Temperatura media	19.2
19514	7	Sololá	712	San Antonio Palopó	9	San Antonio Palopo	11	Noviembre	2023-11-17T00:00:00	2024-11-08T01:00:00	4	Temperatura máxima	19.8
19515	7	Sololá	712	San Antonio Palopó	9	San Antonio Palopo	11	Noviembre	2023-11-17T00:00:00	2024-11-08T01:00:00	3	Temperatura mínima	19.2
19516	7	Sololá	712	San Antonio Palopó	9	San Antonio Palopo	11	Noviembre	2023-11-17T00:00:00	2024-11-08T01:00:00	5	Humedad	75
19517	7	Sololá	712	San Antonio Palopó	9	San Antonio Palopo	11	Noviembre	2023-11-17T00:00:00	2024-11-08T01:00:00	6	Velocidad del viento	6.4
19518	7	Sololá	712	San Antonio Palopó	9	San Antonio Palopo	11	Noviembre	2023-11-17T00:00:00	2024-11-08T01:00:00	7	Dirección del viento	6.44
19519	7	Sololá	712	San Antonio Palopó	9	San Antonio Palopo	11	Noviembre	2023-11-17T00:00:00	2024-11-08T01:00:00	1	Precipitación	0
19520	7	Sololá	712	San Antonio Palopó	9	San Antonio Palopo	11	Noviembre	2023-11-17T00:00:00	2024-11-08T01:00:00	8	Radiación solar	0
19521	7	Sololá	712	San Antonio Palopó	9	San Antonio Palopo	11	Noviembre	2023-11-17T00:00:00	2024-11-08T02:00:00	2	Temperatura media	18.7
19522	7	Sololá	712	San Antonio Palopó	9	San Antonio Palopo	11	Noviembre	2023-11-17T00:00:00	2024-11-08T02:00:00	4	Temperatura máxima	19.2
19523	7	Sololá	712	San Antonio Palopó	9	San Antonio Palopo	11	Noviembre	2023-11-17T00:00:00	2024-11-08T02:00:00	3	Temperatura mínima	18.7
19524	7	Sololá	712	San Antonio Palopó	9	San Antonio Palopo	11	Noviembre	2023-11-17T00:00:00	2024-11-08T02:00:00	5	Humedad	81
19525	7	Sololá	712	San Antonio Palopó	9	San Antonio Palopo	11	Noviembre	2023-11-17T00:00:00	2024-11-08T02:00:00	6	Velocidad del viento	1.6
19526	7	Sololá	712	San Antonio Palopó	9	San Antonio Palopo	11	Noviembre	2023-11-17T00:00:00	2024-11-08T02:00:00	7	Dirección del viento	1.61
19527	7	Sololá	712	San Antonio Palopó	9	San Antonio Palopo	11	Noviembre	2023-11-17T00:00:00	2024-11-08T02:00:00	1	Precipitación	0
19528	7	Sololá	712	San Antonio Palopó	9	San Antonio Palopo	11	Noviembre	2023-11-17T00:00:00	2024-11-08T02:00:00	8	Radiación solar	0
19529	7	Sololá	712	San Antonio Palopó	9	San Antonio Palopo	11	Noviembre	2023-11-17T00:00:00	2024-11-08T03:00:00	2	Temperatura media	18.9
19530	7	Sololá	712	San Antonio Palopó	9	San Antonio Palopo	11	Noviembre	2023-11-17T00:00:00	2024-11-08T03:00:00	4	Temperatura máxima	18.9
19531	7	Sololá	712	San Antonio Palopó	9	San Antonio Palopo	11	Noviembre	2023-11-17T00:00:00	2024-11-08T03:00:00	3	Temperatura mínima	18.2
19532	7	Sololá	712	San Antonio Palopó	9	San Antonio Palopo	11	Noviembre	2023-11-17T00:00:00	2024-11-08T03:00:00	5	Humedad	76
19533	7	Sololá	712	San Antonio Palopó	9	San Antonio Palopo	11	Noviembre	2023-11-17T00:00:00	2024-11-08T03:00:00	6	Velocidad del viento	3.2
19534	7	Sololá	712	San Antonio Palopó	9	San Antonio Palopo	11	Noviembre	2023-11-17T00:00:00	2024-11-08T03:00:00	7	Dirección del viento	3.22
19535	7	Sololá	712	San Antonio Palopó	9	San Antonio Palopo	11	Noviembre	2023-11-17T00:00:00	2024-11-08T03:00:00	1	Precipitación	0
19536	7	Sololá	712	San Antonio Palopó	9	San Antonio Palopo	11	Noviembre	2023-11-17T00:00:00	2024-11-08T03:00:00	8	Radiación solar	0
19537	7	Sololá	712	San Antonio Palopó	9	San Antonio Palopo	11	Noviembre	2023-11-17T00:00:00	2024-11-08T04:00:00	2	Temperatura media	18.3
19538	7	Sololá	712	San Antonio Palopó	9	San Antonio Palopo	11	Noviembre	2023-11-17T00:00:00	2024-11-08T04:00:00	4	Temperatura máxima	18.9
19539	7	Sololá	712	San Antonio Palopó	9	San Antonio Palopo	11	Noviembre	2023-11-17T00:00:00	2024-11-08T04:00:00	3	Temperatura mínima	18.3
19540	7	Sololá	712	San Antonio Palopó	9	San Antonio Palopo	11	Noviembre	2023-11-17T00:00:00	2024-11-08T04:00:00	5	Humedad	78
19541	7	Sololá	712	San Antonio Palopó	9	San Antonio Palopo	11	Noviembre	2023-11-17T00:00:00	2024-11-08T04:00:00	6	Velocidad del viento	1.6
19542	7	Sololá	712	San Antonio Palopó	9	San Antonio Palopo	11	Noviembre	2023-11-17T00:00:00	2024-11-08T04:00:00	7	Dirección del viento	1.61
19543	7	Sololá	712	San Antonio Palopó	9	San Antonio Palopo	11	Noviembre	2023-11-17T00:00:00	2024-11-08T04:00:00	1	Precipitación	0
19544	7	Sololá	712	San Antonio Palopó	9	San Antonio Palopo	11	Noviembre	2023-11-17T00:00:00	2024-11-08T04:00:00	8	Radiación solar	0
19545	7	Sololá	712	San Antonio Palopó	9	San Antonio Palopo	11	Noviembre	2023-11-17T00:00:00	2024-11-08T05:00:00	2	Temperatura media	17.8
19546	7	Sololá	712	San Antonio Palopó	9	San Antonio Palopo	11	Noviembre	2023-11-17T00:00:00	2024-11-08T05:00:00	4	Temperatura máxima	18.3
19547	7	Sololá	712	San Antonio Palopó	9	San Antonio Palopo	11	Noviembre	2023-11-17T00:00:00	2024-11-08T05:00:00	3	Temperatura mínima	17.7
19548	7	Sololá	712	San Antonio Palopó	9	San Antonio Palopo	11	Noviembre	2023-11-17T00:00:00	2024-11-08T05:00:00	5	Humedad	79
19549	7	Sololá	712	San Antonio Palopó	9	San Antonio Palopo	11	Noviembre	2023-11-17T00:00:00	2024-11-08T05:00:00	6	Velocidad del viento	4.8
19550	7	Sololá	712	San Antonio Palopó	9	San Antonio Palopo	11	Noviembre	2023-11-17T00:00:00	2024-11-08T05:00:00	7	Dirección del viento	4.83
19551	7	Sololá	712	San Antonio Palopó	9	San Antonio Palopo	11	Noviembre	2023-11-17T00:00:00	2024-11-08T05:00:00	1	Precipitación	0
19552	7	Sololá	712	San Antonio Palopó	9	San Antonio Palopo	11	Noviembre	2023-11-17T00:00:00	2024-11-08T05:00:00	8	Radiación solar	0
19553	7	Sololá	712	San Antonio Palopó	9	San Antonio Palopo	11	Noviembre	2023-11-17T00:00:00	2024-11-08T06:00:00	2	Temperatura media	17.6
19554	7	Sololá	712	San Antonio Palopó	9	San Antonio Palopo	11	Noviembre	2023-11-17T00:00:00	2024-11-08T06:00:00	4	Temperatura máxima	17.8
19555	7	Sololá	712	San Antonio Palopó	9	San Antonio Palopo	11	Noviembre	2023-11-17T00:00:00	2024-11-08T06:00:00	3	Temperatura mínima	17.4
19556	7	Sololá	712	San Antonio Palopó	9	San Antonio Palopo	11	Noviembre	2023-11-17T00:00:00	2024-11-08T06:00:00	5	Humedad	77
19557	7	Sololá	712	San Antonio Palopó	9	San Antonio Palopo	11	Noviembre	2023-11-17T00:00:00	2024-11-08T06:00:00	6	Velocidad del viento	4.8
19558	7	Sololá	712	San Antonio Palopó	9	San Antonio Palopo	11	Noviembre	2023-11-17T00:00:00	2024-11-08T06:00:00	7	Dirección del viento	4.83
19559	7	Sololá	712	San Antonio Palopó	9	San Antonio Palopo	11	Noviembre	2023-11-17T00:00:00	2024-11-08T06:00:00	1	Precipitación	0
19560	7	Sololá	712	San Antonio Palopó	9	San Antonio Palopo	11	Noviembre	2023-11-17T00:00:00	2024-11-08T06:00:00	8	Radiación solar	0
19561	7	Sololá	712	San Antonio Palopó	9	San Antonio Palopo	11	Noviembre	2023-11-17T00:00:00	2024-11-08T07:00:00	2	Temperatura media	17.7
19562	7	Sololá	712	San Antonio Palopó	9	San Antonio Palopo	11	Noviembre	2023-11-17T00:00:00	2024-11-08T07:00:00	4	Temperatura máxima	17.7
19563	7	Sololá	712	San Antonio Palopó	9	San Antonio Palopo	11	Noviembre	2023-11-17T00:00:00	2024-11-08T07:00:00	3	Temperatura mínima	17.4
19564	7	Sololá	712	San Antonio Palopó	9	San Antonio Palopo	11	Noviembre	2023-11-17T00:00:00	2024-11-08T07:00:00	5	Humedad	77
19565	7	Sololá	712	San Antonio Palopó	9	San Antonio Palopo	11	Noviembre	2023-11-17T00:00:00	2024-11-08T07:00:00	6	Velocidad del viento	3.2
19566	7	Sololá	712	San Antonio Palopó	9	San Antonio Palopo	11	Noviembre	2023-11-17T00:00:00	2024-11-08T07:00:00	7	Dirección del viento	3.22
19567	7	Sololá	712	San Antonio Palopó	9	San Antonio Palopo	11	Noviembre	2023-11-17T00:00:00	2024-11-08T07:00:00	1	Precipitación	0
19568	7	Sololá	712	San Antonio Palopó	9	San Antonio Palopo	11	Noviembre	2023-11-17T00:00:00	2024-11-08T07:00:00	8	Radiación solar	12
19569	7	Sololá	712	San Antonio Palopó	9	San Antonio Palopo	11	Noviembre	2023-11-17T00:00:00	2024-11-08T08:00:00	2	Temperatura media	17.3
19570	7	Sololá	712	San Antonio Palopó	9	San Antonio Palopo	11	Noviembre	2023-11-17T00:00:00	2024-11-08T08:00:00	4	Temperatura máxima	17.7
19571	7	Sololá	712	San Antonio Palopó	9	San Antonio Palopo	11	Noviembre	2023-11-17T00:00:00	2024-11-08T08:00:00	3	Temperatura mínima	17.3
19572	7	Sololá	712	San Antonio Palopó	9	San Antonio Palopo	11	Noviembre	2023-11-17T00:00:00	2024-11-08T08:00:00	5	Humedad	80
19573	7	Sololá	712	San Antonio Palopó	9	San Antonio Palopo	11	Noviembre	2023-11-17T00:00:00	2024-11-08T08:00:00	6	Velocidad del viento	3.2
19574	7	Sololá	712	San Antonio Palopó	9	San Antonio Palopo	11	Noviembre	2023-11-17T00:00:00	2024-11-08T08:00:00	7	Dirección del viento	3.22
19575	7	Sololá	712	San Antonio Palopó	9	San Antonio Palopo	11	Noviembre	2023-11-17T00:00:00	2024-11-08T08:00:00	1	Precipitación	0
19576	7	Sololá	712	San Antonio Palopó	9	San Antonio Palopo	11	Noviembre	2023-11-17T00:00:00	2024-11-08T08:00:00	8	Radiación solar	31
19577	7	Sololá	712	San Antonio Palopó	9	San Antonio Palopo	11	Noviembre	2023-11-17T00:00:00	2024-11-08T09:00:00	2	Temperatura media	21.2
19578	7	Sololá	712	San Antonio Palopó	9	San Antonio Palopo	11	Noviembre	2023-11-17T00:00:00	2024-11-08T09:00:00	4	Temperatura máxima	21.2
19579	7	Sololá	712	San Antonio Palopó	9	San Antonio Palopo	11	Noviembre	2023-11-17T00:00:00	2024-11-08T09:00:00	3	Temperatura mínima	17.2
19580	7	Sololá	712	San Antonio Palopó	9	San Antonio Palopo	11	Noviembre	2023-11-17T00:00:00	2024-11-08T09:00:00	5	Humedad	72
19581	7	Sololá	712	San Antonio Palopó	9	San Antonio Palopo	11	Noviembre	2023-11-17T00:00:00	2024-11-08T09:00:00	6	Velocidad del viento	1.6
19582	7	Sololá	712	San Antonio Palopó	9	San Antonio Palopo	11	Noviembre	2023-11-17T00:00:00	2024-11-08T09:00:00	7	Dirección del viento	1.61
19583	7	Sololá	712	San Antonio Palopó	9	San Antonio Palopo	11	Noviembre	2023-11-17T00:00:00	2024-11-08T09:00:00	1	Precipitación	0
19584	7	Sololá	712	San Antonio Palopó	9	San Antonio Palopo	11	Noviembre	2023-11-17T00:00:00	2024-11-08T09:00:00	8	Radiación solar	373
19585	7	Sololá	712	San Antonio Palopó	9	San Antonio Palopo	11	Noviembre	2023-11-17T00:00:00	2024-11-08T10:00:00	2	Temperatura media	22.1
19586	7	Sololá	712	San Antonio Palopó	9	San Antonio Palopo	11	Noviembre	2023-11-17T00:00:00	2024-11-08T10:00:00	4	Temperatura máxima	22.1
19587	7	Sololá	712	San Antonio Palopó	9	San Antonio Palopo	11	Noviembre	2023-11-17T00:00:00	2024-11-08T10:00:00	3	Temperatura mínima	20.9
19588	7	Sololá	712	San Antonio Palopó	9	San Antonio Palopo	11	Noviembre	2023-11-17T00:00:00	2024-11-08T10:00:00	5	Humedad	70
19589	7	Sololá	712	San Antonio Palopó	9	San Antonio Palopo	11	Noviembre	2023-11-17T00:00:00	2024-11-08T10:00:00	6	Velocidad del viento	3.2
19590	7	Sololá	712	San Antonio Palopó	9	San Antonio Palopo	11	Noviembre	2023-11-17T00:00:00	2024-11-08T10:00:00	7	Dirección del viento	3.22
19591	7	Sololá	712	San Antonio Palopó	9	San Antonio Palopo	11	Noviembre	2023-11-17T00:00:00	2024-11-08T10:00:00	1	Precipitación	0
19592	7	Sololá	712	San Antonio Palopó	9	San Antonio Palopo	11	Noviembre	2023-11-17T00:00:00	2024-11-08T10:00:00	8	Radiación solar	617
19593	7	Sololá	712	San Antonio Palopó	9	San Antonio Palopo	11	Noviembre	2023-11-17T00:00:00	2024-11-08T11:00:00	2	Temperatura media	21.9
19594	7	Sololá	712	San Antonio Palopó	9	San Antonio Palopo	11	Noviembre	2023-11-17T00:00:00	2024-11-08T11:00:00	4	Temperatura máxima	22.2
19595	7	Sololá	712	San Antonio Palopó	9	San Antonio Palopo	11	Noviembre	2023-11-17T00:00:00	2024-11-08T11:00:00	3	Temperatura mínima	21.5
19596	7	Sololá	712	San Antonio Palopó	9	San Antonio Palopo	11	Noviembre	2023-11-17T00:00:00	2024-11-08T11:00:00	5	Humedad	72
19597	7	Sololá	712	San Antonio Palopó	9	San Antonio Palopo	11	Noviembre	2023-11-17T00:00:00	2024-11-08T11:00:00	6	Velocidad del viento	3.2
19598	7	Sololá	712	San Antonio Palopó	9	San Antonio Palopo	11	Noviembre	2023-11-17T00:00:00	2024-11-08T11:00:00	7	Dirección del viento	3.22
19599	7	Sololá	712	San Antonio Palopó	9	San Antonio Palopo	11	Noviembre	2023-11-17T00:00:00	2024-11-08T11:00:00	1	Precipitación	0
19600	7	Sololá	712	San Antonio Palopó	9	San Antonio Palopo	11	Noviembre	2023-11-17T00:00:00	2024-11-08T11:00:00	8	Radiación solar	733
19601	7	Sololá	712	San Antonio Palopó	9	San Antonio Palopo	11	Noviembre	2023-11-17T00:00:00	2024-11-08T12:00:00	2	Temperatura media	22.9
19602	7	Sololá	712	San Antonio Palopó	9	San Antonio Palopo	11	Noviembre	2023-11-17T00:00:00	2024-11-08T12:00:00	4	Temperatura máxima	23.1
19603	7	Sololá	712	San Antonio Palopó	9	San Antonio Palopo	11	Noviembre	2023-11-17T00:00:00	2024-11-08T12:00:00	3	Temperatura mínima	21.9
19604	7	Sololá	712	San Antonio Palopó	9	San Antonio Palopo	11	Noviembre	2023-11-17T00:00:00	2024-11-08T12:00:00	5	Humedad	71
19605	7	Sololá	712	San Antonio Palopó	9	San Antonio Palopo	11	Noviembre	2023-11-17T00:00:00	2024-11-08T12:00:00	6	Velocidad del viento	3.2
19606	7	Sololá	712	San Antonio Palopó	9	San Antonio Palopo	11	Noviembre	2023-11-17T00:00:00	2024-11-08T12:00:00	7	Dirección del viento	3.22
19607	7	Sololá	712	San Antonio Palopó	9	San Antonio Palopo	11	Noviembre	2023-11-17T00:00:00	2024-11-08T12:00:00	1	Precipitación	0
19608	7	Sololá	712	San Antonio Palopó	9	San Antonio Palopo	11	Noviembre	2023-11-17T00:00:00	2024-11-08T12:00:00	8	Radiación solar	695
19609	7	Sololá	712	San Antonio Palopó	9	San Antonio Palopo	11	Noviembre	2023-11-17T00:00:00	2024-11-08T13:00:00	2	Temperatura media	23.3
19610	7	Sololá	712	San Antonio Palopó	9	San Antonio Palopo	11	Noviembre	2023-11-17T00:00:00	2024-11-08T13:00:00	4	Temperatura máxima	23.3
19611	7	Sololá	712	San Antonio Palopó	9	San Antonio Palopo	11	Noviembre	2023-11-17T00:00:00	2024-11-08T13:00:00	3	Temperatura mínima	22.3
19612	7	Sololá	712	San Antonio Palopó	9	San Antonio Palopo	11	Noviembre	2023-11-17T00:00:00	2024-11-08T13:00:00	5	Humedad	70
19613	7	Sololá	712	San Antonio Palopó	9	San Antonio Palopo	11	Noviembre	2023-11-17T00:00:00	2024-11-08T13:00:00	6	Velocidad del viento	4.8
19614	7	Sololá	712	San Antonio Palopó	9	San Antonio Palopo	11	Noviembre	2023-11-17T00:00:00	2024-11-08T13:00:00	7	Dirección del viento	4.83
19615	7	Sololá	712	San Antonio Palopó	9	San Antonio Palopo	11	Noviembre	2023-11-17T00:00:00	2024-11-08T13:00:00	1	Precipitación	0
19616	7	Sololá	712	San Antonio Palopó	9	San Antonio Palopo	11	Noviembre	2023-11-17T00:00:00	2024-11-08T13:00:00	8	Radiación solar	491
19617	7	Sololá	712	San Antonio Palopó	9	San Antonio Palopo	11	Noviembre	2023-11-17T00:00:00	2024-11-08T14:00:00	2	Temperatura media	23.3
19618	7	Sololá	712	San Antonio Palopó	9	San Antonio Palopo	11	Noviembre	2023-11-17T00:00:00	2024-11-08T14:00:00	4	Temperatura máxima	23.4
19619	7	Sololá	712	San Antonio Palopó	9	San Antonio Palopo	11	Noviembre	2023-11-17T00:00:00	2024-11-08T14:00:00	3	Temperatura mínima	22.7
19620	7	Sololá	712	San Antonio Palopó	9	San Antonio Palopo	11	Noviembre	2023-11-17T00:00:00	2024-11-08T14:00:00	5	Humedad	72
19621	7	Sololá	712	San Antonio Palopó	9	San Antonio Palopo	11	Noviembre	2023-11-17T00:00:00	2024-11-08T14:00:00	6	Velocidad del viento	9.7
19622	7	Sololá	712	San Antonio Palopó	9	San Antonio Palopo	11	Noviembre	2023-11-17T00:00:00	2024-11-08T14:00:00	7	Dirección del viento	9.66
19623	7	Sololá	712	San Antonio Palopó	9	San Antonio Palopo	11	Noviembre	2023-11-17T00:00:00	2024-11-08T14:00:00	1	Precipitación	0
19624	7	Sololá	712	San Antonio Palopó	9	San Antonio Palopo	11	Noviembre	2023-11-17T00:00:00	2024-11-08T14:00:00	8	Radiación solar	464
19625	7	Sololá	712	San Antonio Palopó	9	San Antonio Palopo	11	Noviembre	2023-11-17T00:00:00	2024-11-08T15:00:00	2	Temperatura media	21.9
19626	7	Sololá	712	San Antonio Palopó	9	San Antonio Palopo	11	Noviembre	2023-11-17T00:00:00	2024-11-08T15:00:00	4	Temperatura máxima	23.5
19627	7	Sololá	712	San Antonio Palopó	9	San Antonio Palopo	11	Noviembre	2023-11-17T00:00:00	2024-11-08T15:00:00	3	Temperatura mínima	21.9
19628	7	Sololá	712	San Antonio Palopó	9	San Antonio Palopo	11	Noviembre	2023-11-17T00:00:00	2024-11-08T15:00:00	5	Humedad	77
19629	7	Sololá	712	San Antonio Palopó	9	San Antonio Palopo	11	Noviembre	2023-11-17T00:00:00	2024-11-08T15:00:00	6	Velocidad del viento	9.7
19630	7	Sololá	712	San Antonio Palopó	9	San Antonio Palopo	11	Noviembre	2023-11-17T00:00:00	2024-11-08T15:00:00	7	Dirección del viento	9.66
19631	7	Sololá	712	San Antonio Palopó	9	San Antonio Palopo	11	Noviembre	2023-11-17T00:00:00	2024-11-08T15:00:00	1	Precipitación	0
19632	7	Sololá	712	San Antonio Palopó	9	San Antonio Palopo	11	Noviembre	2023-11-17T00:00:00	2024-11-08T15:00:00	8	Radiación solar	326
19633	7	Sololá	712	San Antonio Palopó	9	San Antonio Palopo	11	Noviembre	2023-11-17T00:00:00	2024-11-08T16:00:00	2	Temperatura media	21.3
19634	7	Sololá	712	San Antonio Palopó	9	San Antonio Palopo	11	Noviembre	2023-11-17T00:00:00	2024-11-08T16:00:00	4	Temperatura máxima	22.6
19635	7	Sololá	712	San Antonio Palopó	9	San Antonio Palopo	11	Noviembre	2023-11-17T00:00:00	2024-11-08T16:00:00	3	Temperatura mínima	21.3
19636	7	Sololá	712	San Antonio Palopó	9	San Antonio Palopo	11	Noviembre	2023-11-17T00:00:00	2024-11-08T16:00:00	5	Humedad	75
19637	7	Sololá	712	San Antonio Palopó	9	San Antonio Palopo	11	Noviembre	2023-11-17T00:00:00	2024-11-08T16:00:00	6	Velocidad del viento	8
19638	7	Sololá	712	San Antonio Palopó	9	San Antonio Palopo	11	Noviembre	2023-11-17T00:00:00	2024-11-08T16:00:00	7	Dirección del viento	8.05
19639	7	Sololá	712	San Antonio Palopó	9	San Antonio Palopo	11	Noviembre	2023-11-17T00:00:00	2024-11-08T16:00:00	1	Precipitación	0
19640	7	Sololá	712	San Antonio Palopó	9	San Antonio Palopo	11	Noviembre	2023-11-17T00:00:00	2024-11-08T16:00:00	8	Radiación solar	167
19641	7	Sololá	712	San Antonio Palopó	9	San Antonio Palopo	11	Noviembre	2023-11-17T00:00:00	2024-11-08T17:00:00	2	Temperatura media	21.9
19642	7	Sololá	712	San Antonio Palopó	9	San Antonio Palopo	11	Noviembre	2023-11-17T00:00:00	2024-11-08T17:00:00	4	Temperatura máxima	23.2
19643	7	Sololá	712	San Antonio Palopó	9	San Antonio Palopo	11	Noviembre	2023-11-17T00:00:00	2024-11-08T17:00:00	3	Temperatura mínima	21.3
19644	7	Sololá	712	San Antonio Palopó	9	San Antonio Palopo	11	Noviembre	2023-11-17T00:00:00	2024-11-08T17:00:00	5	Humedad	75
19645	7	Sololá	712	San Antonio Palopó	9	San Antonio Palopo	11	Noviembre	2023-11-17T00:00:00	2024-11-08T17:00:00	6	Velocidad del viento	4.8
19646	7	Sololá	712	San Antonio Palopó	9	San Antonio Palopo	11	Noviembre	2023-11-17T00:00:00	2024-11-08T17:00:00	7	Dirección del viento	4.83
19647	7	Sololá	712	San Antonio Palopó	9	San Antonio Palopo	11	Noviembre	2023-11-17T00:00:00	2024-11-08T17:00:00	1	Precipitación	0
19648	7	Sololá	712	San Antonio Palopó	9	San Antonio Palopo	11	Noviembre	2023-11-17T00:00:00	2024-11-08T17:00:00	8	Radiación solar	123
19649	7	Sololá	712	San Antonio Palopó	9	San Antonio Palopo	11	Noviembre	2023-11-17T00:00:00	2024-11-08T18:00:00	2	Temperatura media	20.6
19650	7	Sololá	712	San Antonio Palopó	9	San Antonio Palopo	11	Noviembre	2023-11-17T00:00:00	2024-11-08T18:00:00	4	Temperatura máxima	21.9
19651	7	Sololá	712	San Antonio Palopó	9	San Antonio Palopo	11	Noviembre	2023-11-17T00:00:00	2024-11-08T18:00:00	3	Temperatura mínima	20.6
19652	7	Sololá	712	San Antonio Palopó	9	San Antonio Palopo	11	Noviembre	2023-11-17T00:00:00	2024-11-08T18:00:00	5	Humedad	79
19653	7	Sololá	712	San Antonio Palopó	9	San Antonio Palopo	11	Noviembre	2023-11-17T00:00:00	2024-11-08T18:00:00	6	Velocidad del viento	4.8
19654	7	Sololá	712	San Antonio Palopó	9	San Antonio Palopo	11	Noviembre	2023-11-17T00:00:00	2024-11-08T18:00:00	7	Dirección del viento	4.83
19655	7	Sololá	712	San Antonio Palopó	9	San Antonio Palopo	11	Noviembre	2023-11-17T00:00:00	2024-11-08T18:00:00	1	Precipitación	0
19656	7	Sololá	712	San Antonio Palopó	9	San Antonio Palopo	11	Noviembre	2023-11-17T00:00:00	2024-11-08T18:00:00	8	Radiación solar	3
19657	7	Sololá	712	San Antonio Palopó	9	San Antonio Palopo	11	Noviembre	2023-11-17T00:00:00	2024-11-08T19:00:00	2	Temperatura media	20.1
19658	7	Sololá	712	San Antonio Palopó	9	San Antonio Palopo	11	Noviembre	2023-11-17T00:00:00	2024-11-08T19:00:00	4	Temperatura máxima	20.6
19659	7	Sololá	712	San Antonio Palopó	9	San Antonio Palopo	11	Noviembre	2023-11-17T00:00:00	2024-11-08T19:00:00	3	Temperatura mínima	19.9
19660	7	Sololá	712	San Antonio Palopó	9	San Antonio Palopo	11	Noviembre	2023-11-17T00:00:00	2024-11-08T19:00:00	5	Humedad	82
19661	7	Sololá	712	San Antonio Palopó	9	San Antonio Palopo	11	Noviembre	2023-11-17T00:00:00	2024-11-08T19:00:00	6	Velocidad del viento	3.2
19662	7	Sololá	712	San Antonio Palopó	9	San Antonio Palopo	11	Noviembre	2023-11-17T00:00:00	2024-11-08T19:00:00	7	Dirección del viento	3.22
19663	7	Sololá	712	San Antonio Palopó	9	San Antonio Palopo	11	Noviembre	2023-11-17T00:00:00	2024-11-08T19:00:00	1	Precipitación	0
19664	7	Sololá	712	San Antonio Palopó	9	San Antonio Palopo	11	Noviembre	2023-11-17T00:00:00	2024-11-08T19:00:00	8	Radiación solar	0
19665	7	Sololá	712	San Antonio Palopó	9	San Antonio Palopo	11	Noviembre	2023-11-17T00:00:00	2024-11-08T20:00:00	2	Temperatura media	18.9
19666	7	Sololá	712	San Antonio Palopó	9	San Antonio Palopo	11	Noviembre	2023-11-17T00:00:00	2024-11-08T20:00:00	4	Temperatura máxima	20.2
19667	7	Sololá	712	San Antonio Palopó	9	San Antonio Palopo	11	Noviembre	2023-11-17T00:00:00	2024-11-08T20:00:00	3	Temperatura mínima	18.9
19668	7	Sololá	712	San Antonio Palopó	9	San Antonio Palopo	11	Noviembre	2023-11-17T00:00:00	2024-11-08T20:00:00	5	Humedad	84
19669	7	Sololá	712	San Antonio Palopó	9	San Antonio Palopo	11	Noviembre	2023-11-17T00:00:00	2024-11-08T20:00:00	6	Velocidad del viento	6.4
19670	7	Sololá	712	San Antonio Palopó	9	San Antonio Palopo	11	Noviembre	2023-11-17T00:00:00	2024-11-08T20:00:00	7	Dirección del viento	6.44
19671	7	Sololá	712	San Antonio Palopó	9	San Antonio Palopo	11	Noviembre	2023-11-17T00:00:00	2024-11-08T20:00:00	1	Precipitación	0
19672	7	Sololá	712	San Antonio Palopó	9	San Antonio Palopo	11	Noviembre	2023-11-17T00:00:00	2024-11-08T20:00:00	8	Radiación solar	0
19673	7	Sololá	712	San Antonio Palopó	9	San Antonio Palopo	11	Noviembre	2023-11-17T00:00:00	2024-11-08T21:00:00	2	Temperatura media	18.9
19674	7	Sololá	712	San Antonio Palopó	9	San Antonio Palopo	11	Noviembre	2023-11-17T00:00:00	2024-11-08T21:00:00	4	Temperatura máxima	19.2
19675	7	Sololá	712	San Antonio Palopó	9	San Antonio Palopo	11	Noviembre	2023-11-17T00:00:00	2024-11-08T21:00:00	3	Temperatura mínima	18.9
19676	7	Sololá	712	San Antonio Palopó	9	San Antonio Palopo	11	Noviembre	2023-11-17T00:00:00	2024-11-08T21:00:00	5	Humedad	85
19677	7	Sololá	712	San Antonio Palopó	9	San Antonio Palopo	11	Noviembre	2023-11-17T00:00:00	2024-11-08T21:00:00	6	Velocidad del viento	4.8
19678	7	Sololá	712	San Antonio Palopó	9	San Antonio Palopo	11	Noviembre	2023-11-17T00:00:00	2024-11-08T21:00:00	7	Dirección del viento	4.83
19679	7	Sololá	712	San Antonio Palopó	9	San Antonio Palopo	11	Noviembre	2023-11-17T00:00:00	2024-11-08T21:00:00	1	Precipitación	0.2
19680	7	Sololá	712	San Antonio Palopó	9	San Antonio Palopo	11	Noviembre	2023-11-17T00:00:00	2024-11-08T21:00:00	8	Radiación solar	0
19681	7	Sololá	712	San Antonio Palopó	9	San Antonio Palopo	11	Noviembre	2023-11-17T00:00:00	2024-11-08T22:00:00	2	Temperatura media	18.1
19682	7	Sololá	712	San Antonio Palopó	9	San Antonio Palopo	11	Noviembre	2023-11-17T00:00:00	2024-11-08T22:00:00	4	Temperatura máxima	18.9
19683	7	Sololá	712	San Antonio Palopó	9	San Antonio Palopo	11	Noviembre	2023-11-17T00:00:00	2024-11-08T22:00:00	3	Temperatura mínima	18.1
19684	7	Sololá	712	San Antonio Palopó	9	San Antonio Palopo	11	Noviembre	2023-11-17T00:00:00	2024-11-08T22:00:00	5	Humedad	90
19685	7	Sololá	712	San Antonio Palopó	9	San Antonio Palopo	11	Noviembre	2023-11-17T00:00:00	2024-11-08T22:00:00	6	Velocidad del viento	1.6
19686	7	Sololá	712	San Antonio Palopó	9	San Antonio Palopo	11	Noviembre	2023-11-17T00:00:00	2024-11-08T22:00:00	7	Dirección del viento	1.61
19687	7	Sololá	712	San Antonio Palopó	9	San Antonio Palopo	11	Noviembre	2023-11-17T00:00:00	2024-11-08T22:00:00	1	Precipitación	1.6
19688	7	Sololá	712	San Antonio Palopó	9	San Antonio Palopo	11	Noviembre	2023-11-17T00:00:00	2024-11-08T22:00:00	8	Radiación solar	0
19689	7	Sololá	712	San Antonio Palopó	9	San Antonio Palopo	11	Noviembre	2023-11-17T00:00:00	2024-11-08T23:00:00	2	Temperatura media	17.7
19690	7	Sololá	712	San Antonio Palopó	9	San Antonio Palopo	11	Noviembre	2023-11-17T00:00:00	2024-11-08T23:00:00	4	Temperatura máxima	18.1
19691	7	Sololá	712	San Antonio Palopó	9	San Antonio Palopo	11	Noviembre	2023-11-17T00:00:00	2024-11-08T23:00:00	3	Temperatura mínima	17.7
19692	7	Sololá	712	San Antonio Palopó	9	San Antonio Palopo	11	Noviembre	2023-11-17T00:00:00	2024-11-08T23:00:00	5	Humedad	93
19693	7	Sololá	712	San Antonio Palopó	9	San Antonio Palopo	11	Noviembre	2023-11-17T00:00:00	2024-11-08T23:00:00	6	Velocidad del viento	1.6
19694	7	Sololá	712	San Antonio Palopó	9	San Antonio Palopo	11	Noviembre	2023-11-17T00:00:00	2024-11-08T23:00:00	7	Dirección del viento	1.61
19695	7	Sololá	712	San Antonio Palopó	9	San Antonio Palopo	11	Noviembre	2023-11-17T00:00:00	2024-11-08T23:00:00	1	Precipitación	3.4
19696	7	Sololá	712	San Antonio Palopó	9	San Antonio Palopo	11	Noviembre	2023-11-17T00:00:00	2024-11-08T23:00:00	8	Radiación solar	0
19697	7	Sololá	712	San Antonio Palopó	9	San Antonio Palopo	11	Noviembre	2023-11-18T00:00:00	2024-11-08T00:00:00	2	Temperatura media	17.7
19698	7	Sololá	712	San Antonio Palopó	9	San Antonio Palopo	11	Noviembre	2023-11-18T00:00:00	2024-11-08T00:00:00	4	Temperatura máxima	17.9
19699	7	Sololá	712	San Antonio Palopó	9	San Antonio Palopo	11	Noviembre	2023-11-18T00:00:00	2024-11-08T00:00:00	3	Temperatura mínima	17.6
19700	7	Sololá	712	San Antonio Palopó	9	San Antonio Palopo	11	Noviembre	2023-11-18T00:00:00	2024-11-08T00:00:00	5	Humedad	93
19701	7	Sololá	712	San Antonio Palopó	9	San Antonio Palopo	11	Noviembre	2023-11-18T00:00:00	2024-11-08T00:00:00	6	Velocidad del viento	3.2
19702	7	Sololá	712	San Antonio Palopó	9	San Antonio Palopo	11	Noviembre	2023-11-18T00:00:00	2024-11-08T00:00:00	7	Dirección del viento	3.22
19703	7	Sololá	712	San Antonio Palopó	9	San Antonio Palopo	11	Noviembre	2023-11-18T00:00:00	2024-11-08T00:00:00	1	Precipitación	2.8
19704	7	Sololá	712	San Antonio Palopó	9	San Antonio Palopo	11	Noviembre	2023-11-18T00:00:00	2024-11-08T00:00:00	8	Radiación solar	0
19705	7	Sololá	712	San Antonio Palopó	9	San Antonio Palopo	11	Noviembre	2023-11-18T00:00:00	2024-11-08T01:00:00	2	Temperatura media	17.4
19706	7	Sololá	712	San Antonio Palopó	9	San Antonio Palopo	11	Noviembre	2023-11-18T00:00:00	2024-11-08T01:00:00	4	Temperatura máxima	17.7
19707	7	Sololá	712	San Antonio Palopó	9	San Antonio Palopo	11	Noviembre	2023-11-18T00:00:00	2024-11-08T01:00:00	3	Temperatura mínima	17.4
19708	7	Sololá	712	San Antonio Palopó	9	San Antonio Palopo	11	Noviembre	2023-11-18T00:00:00	2024-11-08T01:00:00	5	Humedad	93
19709	7	Sololá	712	San Antonio Palopó	9	San Antonio Palopo	11	Noviembre	2023-11-18T00:00:00	2024-11-08T01:00:00	6	Velocidad del viento	1.6
19710	7	Sololá	712	San Antonio Palopó	9	San Antonio Palopo	11	Noviembre	2023-11-18T00:00:00	2024-11-08T01:00:00	7	Dirección del viento	1.61
19711	7	Sololá	712	San Antonio Palopó	9	San Antonio Palopo	11	Noviembre	2023-11-18T00:00:00	2024-11-08T01:00:00	1	Precipitación	1.6
19712	7	Sololá	712	San Antonio Palopó	9	San Antonio Palopo	11	Noviembre	2023-11-18T00:00:00	2024-11-08T01:00:00	8	Radiación solar	0
19713	7	Sololá	712	San Antonio Palopó	9	San Antonio Palopo	11	Noviembre	2023-11-18T00:00:00	2024-11-08T02:00:00	2	Temperatura media	17.4
19714	7	Sololá	712	San Antonio Palopó	9	San Antonio Palopo	11	Noviembre	2023-11-18T00:00:00	2024-11-08T02:00:00	4	Temperatura máxima	17.5
19715	7	Sololá	712	San Antonio Palopó	9	San Antonio Palopo	11	Noviembre	2023-11-18T00:00:00	2024-11-08T02:00:00	3	Temperatura mínima	17.3
19716	7	Sololá	712	San Antonio Palopó	9	San Antonio Palopo	11	Noviembre	2023-11-18T00:00:00	2024-11-08T02:00:00	5	Humedad	92
19717	7	Sololá	712	San Antonio Palopó	9	San Antonio Palopo	11	Noviembre	2023-11-18T00:00:00	2024-11-08T02:00:00	6	Velocidad del viento	4.8
19718	7	Sololá	712	San Antonio Palopó	9	San Antonio Palopo	11	Noviembre	2023-11-18T00:00:00	2024-11-08T02:00:00	7	Dirección del viento	4.83
19719	7	Sololá	712	San Antonio Palopó	9	San Antonio Palopo	11	Noviembre	2023-11-18T00:00:00	2024-11-08T02:00:00	1	Precipitación	0.2
19720	7	Sololá	712	San Antonio Palopó	9	San Antonio Palopo	11	Noviembre	2023-11-18T00:00:00	2024-11-08T02:00:00	8	Radiación solar	0
19721	7	Sololá	712	San Antonio Palopó	9	San Antonio Palopo	11	Noviembre	2023-11-18T00:00:00	2024-11-08T03:00:00	2	Temperatura media	17.2
19722	7	Sololá	712	San Antonio Palopó	9	San Antonio Palopo	11	Noviembre	2023-11-18T00:00:00	2024-11-08T03:00:00	4	Temperatura máxima	17.4
19723	7	Sololá	712	San Antonio Palopó	9	San Antonio Palopo	11	Noviembre	2023-11-18T00:00:00	2024-11-08T03:00:00	3	Temperatura mínima	17.2
19724	7	Sololá	712	San Antonio Palopó	9	San Antonio Palopo	11	Noviembre	2023-11-18T00:00:00	2024-11-08T03:00:00	5	Humedad	93
19725	7	Sololá	712	San Antonio Palopó	9	San Antonio Palopo	11	Noviembre	2023-11-18T00:00:00	2024-11-08T03:00:00	6	Velocidad del viento	1.6
19726	7	Sololá	712	San Antonio Palopó	9	San Antonio Palopo	11	Noviembre	2023-11-18T00:00:00	2024-11-08T03:00:00	7	Dirección del viento	1.61
19727	7	Sololá	712	San Antonio Palopó	9	San Antonio Palopo	11	Noviembre	2023-11-18T00:00:00	2024-11-08T03:00:00	1	Precipitación	0.6
19728	7	Sololá	712	San Antonio Palopó	9	San Antonio Palopo	11	Noviembre	2023-11-18T00:00:00	2024-11-08T03:00:00	8	Radiación solar	0
19729	7	Sololá	712	San Antonio Palopó	9	San Antonio Palopo	11	Noviembre	2023-11-18T00:00:00	2024-11-08T04:00:00	2	Temperatura media	17.5
19730	7	Sololá	712	San Antonio Palopó	9	San Antonio Palopo	11	Noviembre	2023-11-18T00:00:00	2024-11-08T04:00:00	4	Temperatura máxima	17.5
19731	7	Sololá	712	San Antonio Palopó	9	San Antonio Palopo	11	Noviembre	2023-11-18T00:00:00	2024-11-08T04:00:00	3	Temperatura mínima	17.2
19732	7	Sololá	712	San Antonio Palopó	9	San Antonio Palopo	11	Noviembre	2023-11-18T00:00:00	2024-11-08T04:00:00	5	Humedad	93
19733	7	Sololá	712	San Antonio Palopó	9	San Antonio Palopo	11	Noviembre	2023-11-18T00:00:00	2024-11-08T04:00:00	6	Velocidad del viento	0
19734	7	Sololá	712	San Antonio Palopó	9	San Antonio Palopo	11	Noviembre	2023-11-18T00:00:00	2024-11-08T04:00:00	7	Dirección del viento	0
19735	7	Sololá	712	San Antonio Palopó	9	San Antonio Palopo	11	Noviembre	2023-11-18T00:00:00	2024-11-08T04:00:00	1	Precipitación	0
19736	7	Sololá	712	San Antonio Palopó	9	San Antonio Palopo	11	Noviembre	2023-11-18T00:00:00	2024-11-08T04:00:00	8	Radiación solar	0
19737	7	Sololá	712	San Antonio Palopó	9	San Antonio Palopo	11	Noviembre	2023-11-18T00:00:00	2024-11-08T05:00:00	2	Temperatura media	17.6
19738	7	Sololá	712	San Antonio Palopó	9	San Antonio Palopo	11	Noviembre	2023-11-18T00:00:00	2024-11-08T05:00:00	4	Temperatura máxima	17.6
19739	7	Sololá	712	San Antonio Palopó	9	San Antonio Palopo	11	Noviembre	2023-11-18T00:00:00	2024-11-08T05:00:00	3	Temperatura mínima	17.4
19740	7	Sololá	712	San Antonio Palopó	9	San Antonio Palopo	11	Noviembre	2023-11-18T00:00:00	2024-11-08T05:00:00	5	Humedad	92
19741	7	Sololá	712	San Antonio Palopó	9	San Antonio Palopo	11	Noviembre	2023-11-18T00:00:00	2024-11-08T05:00:00	6	Velocidad del viento	1.6
19742	7	Sololá	712	San Antonio Palopó	9	San Antonio Palopo	11	Noviembre	2023-11-18T00:00:00	2024-11-08T05:00:00	7	Dirección del viento	1.61
19743	7	Sololá	712	San Antonio Palopó	9	San Antonio Palopo	11	Noviembre	2023-11-18T00:00:00	2024-11-08T05:00:00	1	Precipitación	0
19744	7	Sololá	712	San Antonio Palopó	9	San Antonio Palopo	11	Noviembre	2023-11-18T00:00:00	2024-11-08T05:00:00	8	Radiación solar	0
19745	7	Sololá	712	San Antonio Palopó	9	San Antonio Palopo	11	Noviembre	2023-11-18T00:00:00	2024-11-08T06:00:00	2	Temperatura media	17.2
19746	7	Sololá	712	San Antonio Palopó	9	San Antonio Palopo	11	Noviembre	2023-11-18T00:00:00	2024-11-08T06:00:00	4	Temperatura máxima	17.7
19747	7	Sololá	712	San Antonio Palopó	9	San Antonio Palopo	11	Noviembre	2023-11-18T00:00:00	2024-11-08T06:00:00	3	Temperatura mínima	17.2
19748	7	Sololá	712	San Antonio Palopó	9	San Antonio Palopo	11	Noviembre	2023-11-18T00:00:00	2024-11-08T06:00:00	5	Humedad	91
19749	7	Sololá	712	San Antonio Palopó	9	San Antonio Palopo	11	Noviembre	2023-11-18T00:00:00	2024-11-08T06:00:00	6	Velocidad del viento	3.2
19750	7	Sololá	712	San Antonio Palopó	9	San Antonio Palopo	11	Noviembre	2023-11-18T00:00:00	2024-11-08T06:00:00	7	Dirección del viento	3.22
19751	7	Sololá	712	San Antonio Palopó	9	San Antonio Palopo	11	Noviembre	2023-11-18T00:00:00	2024-11-08T06:00:00	1	Precipitación	0
19752	7	Sololá	712	San Antonio Palopó	9	San Antonio Palopo	11	Noviembre	2023-11-18T00:00:00	2024-11-08T06:00:00	8	Radiación solar	0
19753	7	Sololá	712	San Antonio Palopó	9	San Antonio Palopo	11	Noviembre	2023-11-18T00:00:00	2024-11-08T07:00:00	2	Temperatura media	17
19754	7	Sololá	712	San Antonio Palopó	9	San Antonio Palopo	11	Noviembre	2023-11-18T00:00:00	2024-11-08T07:00:00	4	Temperatura máxima	17.2
19755	7	Sololá	712	San Antonio Palopó	9	San Antonio Palopo	11	Noviembre	2023-11-18T00:00:00	2024-11-08T07:00:00	3	Temperatura mínima	16.7
19756	7	Sololá	712	San Antonio Palopó	9	San Antonio Palopo	11	Noviembre	2023-11-18T00:00:00	2024-11-08T07:00:00	5	Humedad	91
19757	7	Sololá	712	San Antonio Palopó	9	San Antonio Palopo	11	Noviembre	2023-11-18T00:00:00	2024-11-08T07:00:00	6	Velocidad del viento	1.6
19758	7	Sololá	712	San Antonio Palopó	9	San Antonio Palopo	11	Noviembre	2023-11-18T00:00:00	2024-11-08T07:00:00	7	Dirección del viento	1.61
19759	7	Sololá	712	San Antonio Palopó	9	San Antonio Palopo	11	Noviembre	2023-11-18T00:00:00	2024-11-08T07:00:00	1	Precipitación	0
19760	7	Sololá	712	San Antonio Palopó	9	San Antonio Palopo	11	Noviembre	2023-11-18T00:00:00	2024-11-08T07:00:00	8	Radiación solar	16
19761	7	Sololá	712	San Antonio Palopó	9	San Antonio Palopo	11	Noviembre	2023-11-18T00:00:00	2024-11-08T08:00:00	2	Temperatura media	18.1
19762	7	Sololá	712	San Antonio Palopó	9	San Antonio Palopo	11	Noviembre	2023-11-18T00:00:00	2024-11-08T08:00:00	4	Temperatura máxima	18.1
19763	7	Sololá	712	San Antonio Palopó	9	San Antonio Palopo	11	Noviembre	2023-11-18T00:00:00	2024-11-08T08:00:00	3	Temperatura mínima	17
19764	7	Sololá	712	San Antonio Palopó	9	San Antonio Palopo	11	Noviembre	2023-11-18T00:00:00	2024-11-08T08:00:00	5	Humedad	89
19765	7	Sololá	712	San Antonio Palopó	9	San Antonio Palopo	11	Noviembre	2023-11-18T00:00:00	2024-11-08T08:00:00	6	Velocidad del viento	1.6
19766	7	Sololá	712	San Antonio Palopó	9	San Antonio Palopo	11	Noviembre	2023-11-18T00:00:00	2024-11-08T08:00:00	7	Dirección del viento	1.61
19767	7	Sololá	712	San Antonio Palopó	9	San Antonio Palopo	11	Noviembre	2023-11-18T00:00:00	2024-11-08T08:00:00	1	Precipitación	0
19768	7	Sololá	712	San Antonio Palopó	9	San Antonio Palopo	11	Noviembre	2023-11-18T00:00:00	2024-11-08T08:00:00	8	Radiación solar	81
19769	7	Sololá	712	San Antonio Palopó	9	San Antonio Palopo	11	Noviembre	2023-11-18T00:00:00	2024-11-08T09:00:00	2	Temperatura media	20.4
19770	7	Sololá	712	San Antonio Palopó	9	San Antonio Palopo	11	Noviembre	2023-11-18T00:00:00	2024-11-08T09:00:00	4	Temperatura máxima	20.4
19771	7	Sololá	712	San Antonio Palopó	9	San Antonio Palopo	11	Noviembre	2023-11-18T00:00:00	2024-11-08T09:00:00	3	Temperatura mínima	18
19772	7	Sololá	712	San Antonio Palopó	9	San Antonio Palopo	11	Noviembre	2023-11-18T00:00:00	2024-11-08T09:00:00	5	Humedad	77
19773	7	Sololá	712	San Antonio Palopó	9	San Antonio Palopo	11	Noviembre	2023-11-18T00:00:00	2024-11-08T09:00:00	6	Velocidad del viento	1.6
19774	7	Sololá	712	San Antonio Palopó	9	San Antonio Palopo	11	Noviembre	2023-11-18T00:00:00	2024-11-08T09:00:00	7	Dirección del viento	1.61
19775	7	Sololá	712	San Antonio Palopó	9	San Antonio Palopo	11	Noviembre	2023-11-18T00:00:00	2024-11-08T09:00:00	1	Precipitación	0
19776	7	Sololá	712	San Antonio Palopó	9	San Antonio Palopo	11	Noviembre	2023-11-18T00:00:00	2024-11-08T09:00:00	8	Radiación solar	359
19777	7	Sololá	712	San Antonio Palopó	9	San Antonio Palopo	11	Noviembre	2023-11-18T00:00:00	2024-11-08T10:00:00	2	Temperatura media	20.3
19778	7	Sololá	712	San Antonio Palopó	9	San Antonio Palopo	11	Noviembre	2023-11-18T00:00:00	2024-11-08T10:00:00	4	Temperatura máxima	20.4
19779	7	Sololá	712	San Antonio Palopó	9	San Antonio Palopo	11	Noviembre	2023-11-18T00:00:00	2024-11-08T10:00:00	3	Temperatura mínima	19.9
19780	7	Sololá	712	San Antonio Palopó	9	San Antonio Palopo	11	Noviembre	2023-11-18T00:00:00	2024-11-08T10:00:00	5	Humedad	82
19781	7	Sololá	712	San Antonio Palopó	9	San Antonio Palopo	11	Noviembre	2023-11-18T00:00:00	2024-11-08T10:00:00	6	Velocidad del viento	3.2
19782	7	Sololá	712	San Antonio Palopó	9	San Antonio Palopo	11	Noviembre	2023-11-18T00:00:00	2024-11-08T10:00:00	7	Dirección del viento	3.22
19783	7	Sololá	712	San Antonio Palopó	9	San Antonio Palopo	11	Noviembre	2023-11-18T00:00:00	2024-11-08T10:00:00	1	Precipitación	0
19784	7	Sololá	712	San Antonio Palopó	9	San Antonio Palopo	11	Noviembre	2023-11-18T00:00:00	2024-11-08T10:00:00	8	Radiación solar	621
19785	7	Sololá	712	San Antonio Palopó	9	San Antonio Palopo	11	Noviembre	2023-11-18T00:00:00	2024-11-08T11:00:00	2	Temperatura media	21.1
19786	7	Sololá	712	San Antonio Palopó	9	San Antonio Palopo	11	Noviembre	2023-11-18T00:00:00	2024-11-08T11:00:00	4	Temperatura máxima	21.2
19787	7	Sololá	712	San Antonio Palopó	9	San Antonio Palopo	11	Noviembre	2023-11-18T00:00:00	2024-11-08T11:00:00	3	Temperatura mínima	20.2
19788	7	Sololá	712	San Antonio Palopó	9	San Antonio Palopo	11	Noviembre	2023-11-18T00:00:00	2024-11-08T11:00:00	5	Humedad	74
19789	7	Sololá	712	San Antonio Palopó	9	San Antonio Palopo	11	Noviembre	2023-11-18T00:00:00	2024-11-08T11:00:00	6	Velocidad del viento	3.2
19790	7	Sololá	712	San Antonio Palopó	9	San Antonio Palopo	11	Noviembre	2023-11-18T00:00:00	2024-11-08T11:00:00	7	Dirección del viento	3.22
19791	7	Sololá	712	San Antonio Palopó	9	San Antonio Palopo	11	Noviembre	2023-11-18T00:00:00	2024-11-08T11:00:00	1	Precipitación	0
19792	7	Sololá	712	San Antonio Palopó	9	San Antonio Palopo	11	Noviembre	2023-11-18T00:00:00	2024-11-08T11:00:00	8	Radiación solar	760
19793	7	Sololá	712	San Antonio Palopó	9	San Antonio Palopo	11	Noviembre	2023-11-18T00:00:00	2024-11-08T12:00:00	2	Temperatura media	21.9
19794	7	Sololá	712	San Antonio Palopó	9	San Antonio Palopo	11	Noviembre	2023-11-18T00:00:00	2024-11-08T12:00:00	4	Temperatura máxima	22.1
19795	7	Sololá	712	San Antonio Palopó	9	San Antonio Palopo	11	Noviembre	2023-11-18T00:00:00	2024-11-08T12:00:00	3	Temperatura mínima	21.1
19796	7	Sololá	712	San Antonio Palopó	9	San Antonio Palopo	11	Noviembre	2023-11-18T00:00:00	2024-11-08T12:00:00	5	Humedad	74
19797	7	Sololá	712	San Antonio Palopó	9	San Antonio Palopo	11	Noviembre	2023-11-18T00:00:00	2024-11-08T12:00:00	6	Velocidad del viento	3.2
19798	7	Sololá	712	San Antonio Palopó	9	San Antonio Palopo	11	Noviembre	2023-11-18T00:00:00	2024-11-08T12:00:00	7	Dirección del viento	3.22
19799	7	Sololá	712	San Antonio Palopó	9	San Antonio Palopo	11	Noviembre	2023-11-18T00:00:00	2024-11-08T12:00:00	1	Precipitación	0
19800	7	Sololá	712	San Antonio Palopó	9	San Antonio Palopo	11	Noviembre	2023-11-18T00:00:00	2024-11-08T12:00:00	8	Radiación solar	715
19801	7	Sololá	712	San Antonio Palopó	9	San Antonio Palopo	11	Noviembre	2023-11-18T00:00:00	2024-11-08T13:00:00	2	Temperatura media	23.2
19802	7	Sololá	712	San Antonio Palopó	9	San Antonio Palopo	11	Noviembre	2023-11-18T00:00:00	2024-11-08T13:00:00	4	Temperatura máxima	23.4
19803	7	Sololá	712	San Antonio Palopó	9	San Antonio Palopo	11	Noviembre	2023-11-18T00:00:00	2024-11-08T13:00:00	3	Temperatura mínima	21.8
19804	7	Sololá	712	San Antonio Palopó	9	San Antonio Palopo	11	Noviembre	2023-11-18T00:00:00	2024-11-08T13:00:00	5	Humedad	73
19805	7	Sololá	712	San Antonio Palopó	9	San Antonio Palopo	11	Noviembre	2023-11-18T00:00:00	2024-11-08T13:00:00	6	Velocidad del viento	4.8
19806	7	Sololá	712	San Antonio Palopó	9	San Antonio Palopo	11	Noviembre	2023-11-18T00:00:00	2024-11-08T13:00:00	7	Dirección del viento	4.83
19807	7	Sololá	712	San Antonio Palopó	9	San Antonio Palopo	11	Noviembre	2023-11-18T00:00:00	2024-11-08T13:00:00	1	Precipitación	0
19808	7	Sololá	712	San Antonio Palopó	9	San Antonio Palopo	11	Noviembre	2023-11-18T00:00:00	2024-11-08T13:00:00	8	Radiación solar	809
19809	7	Sololá	712	San Antonio Palopó	9	San Antonio Palopo	11	Noviembre	2023-11-18T00:00:00	2024-11-08T14:00:00	2	Temperatura media	23.9
19810	7	Sololá	712	San Antonio Palopó	9	San Antonio Palopo	11	Noviembre	2023-11-18T00:00:00	2024-11-08T14:00:00	4	Temperatura máxima	24
19811	7	Sololá	712	San Antonio Palopó	9	San Antonio Palopo	11	Noviembre	2023-11-18T00:00:00	2024-11-08T14:00:00	3	Temperatura mínima	22.6
19812	7	Sololá	712	San Antonio Palopó	9	San Antonio Palopo	11	Noviembre	2023-11-18T00:00:00	2024-11-08T14:00:00	5	Humedad	74
19813	7	Sololá	712	San Antonio Palopó	9	San Antonio Palopo	11	Noviembre	2023-11-18T00:00:00	2024-11-08T14:00:00	6	Velocidad del viento	6.4
19814	7	Sololá	712	San Antonio Palopó	9	San Antonio Palopo	11	Noviembre	2023-11-18T00:00:00	2024-11-08T14:00:00	7	Dirección del viento	6.44
19815	7	Sololá	712	San Antonio Palopó	9	San Antonio Palopo	11	Noviembre	2023-11-18T00:00:00	2024-11-08T14:00:00	1	Precipitación	0
19816	7	Sololá	712	San Antonio Palopó	9	San Antonio Palopo	11	Noviembre	2023-11-18T00:00:00	2024-11-08T14:00:00	8	Radiación solar	711
19817	7	Sololá	712	San Antonio Palopó	9	San Antonio Palopo	11	Noviembre	2023-11-18T00:00:00	2024-11-08T15:00:00	2	Temperatura media	23.6
19818	7	Sololá	712	San Antonio Palopó	9	San Antonio Palopo	11	Noviembre	2023-11-18T00:00:00	2024-11-08T15:00:00	4	Temperatura máxima	24.1
19819	7	Sololá	712	San Antonio Palopó	9	San Antonio Palopo	11	Noviembre	2023-11-18T00:00:00	2024-11-08T15:00:00	3	Temperatura mínima	23.4
19820	7	Sololá	712	San Antonio Palopó	9	San Antonio Palopo	11	Noviembre	2023-11-18T00:00:00	2024-11-08T15:00:00	5	Humedad	73
19821	7	Sololá	712	San Antonio Palopó	9	San Antonio Palopo	11	Noviembre	2023-11-18T00:00:00	2024-11-08T15:00:00	6	Velocidad del viento	6.4
19822	7	Sololá	712	San Antonio Palopó	9	San Antonio Palopo	11	Noviembre	2023-11-18T00:00:00	2024-11-08T15:00:00	7	Dirección del viento	6.44
19823	7	Sololá	712	San Antonio Palopó	9	San Antonio Palopo	11	Noviembre	2023-11-18T00:00:00	2024-11-08T15:00:00	1	Precipitación	0
19824	7	Sololá	712	San Antonio Palopó	9	San Antonio Palopo	11	Noviembre	2023-11-18T00:00:00	2024-11-08T15:00:00	8	Radiación solar	575
19825	7	Sololá	712	San Antonio Palopó	9	San Antonio Palopo	11	Noviembre	2023-11-18T00:00:00	2024-11-08T16:00:00	2	Temperatura media	22.3
19826	7	Sololá	712	San Antonio Palopó	9	San Antonio Palopo	11	Noviembre	2023-11-18T00:00:00	2024-11-08T16:00:00	4	Temperatura máxima	23.8
19827	7	Sololá	712	San Antonio Palopó	9	San Antonio Palopo	11	Noviembre	2023-11-18T00:00:00	2024-11-08T16:00:00	3	Temperatura mínima	22.3
19828	7	Sololá	712	San Antonio Palopó	9	San Antonio Palopo	11	Noviembre	2023-11-18T00:00:00	2024-11-08T16:00:00	5	Humedad	77
19829	7	Sololá	712	San Antonio Palopó	9	San Antonio Palopo	11	Noviembre	2023-11-18T00:00:00	2024-11-08T16:00:00	6	Velocidad del viento	6.4
19830	7	Sololá	712	San Antonio Palopó	9	San Antonio Palopo	11	Noviembre	2023-11-18T00:00:00	2024-11-08T16:00:00	7	Dirección del viento	6.44
19831	7	Sololá	712	San Antonio Palopó	9	San Antonio Palopo	11	Noviembre	2023-11-18T00:00:00	2024-11-08T16:00:00	1	Precipitación	0
19832	7	Sololá	712	San Antonio Palopó	9	San Antonio Palopo	11	Noviembre	2023-11-18T00:00:00	2024-11-08T16:00:00	8	Radiación solar	343
19833	7	Sololá	712	San Antonio Palopó	9	San Antonio Palopo	11	Noviembre	2023-11-18T00:00:00	2024-11-08T17:00:00	2	Temperatura media	21.5
19834	7	Sololá	712	San Antonio Palopó	9	San Antonio Palopo	11	Noviembre	2023-11-18T00:00:00	2024-11-08T17:00:00	4	Temperatura máxima	22.3
19835	7	Sololá	712	San Antonio Palopó	9	San Antonio Palopo	11	Noviembre	2023-11-18T00:00:00	2024-11-08T17:00:00	3	Temperatura mínima	21.2
19836	7	Sololá	712	San Antonio Palopó	9	San Antonio Palopo	11	Noviembre	2023-11-18T00:00:00	2024-11-08T17:00:00	5	Humedad	78
19837	7	Sololá	712	San Antonio Palopó	9	San Antonio Palopo	11	Noviembre	2023-11-18T00:00:00	2024-11-08T17:00:00	6	Velocidad del viento	6.4
19838	7	Sololá	712	San Antonio Palopó	9	San Antonio Palopo	11	Noviembre	2023-11-18T00:00:00	2024-11-08T17:00:00	7	Dirección del viento	6.44
19839	7	Sololá	712	San Antonio Palopó	9	San Antonio Palopo	11	Noviembre	2023-11-18T00:00:00	2024-11-08T17:00:00	1	Precipitación	0
19840	7	Sololá	712	San Antonio Palopó	9	San Antonio Palopo	11	Noviembre	2023-11-18T00:00:00	2024-11-08T17:00:00	8	Radiación solar	142
19841	7	Sololá	712	San Antonio Palopó	9	San Antonio Palopo	11	Noviembre	2023-11-18T00:00:00	2024-11-08T18:00:00	2	Temperatura media	20.6
19842	7	Sololá	712	San Antonio Palopó	9	San Antonio Palopo	11	Noviembre	2023-11-18T00:00:00	2024-11-08T18:00:00	4	Temperatura máxima	21.5
19843	7	Sololá	712	San Antonio Palopó	9	San Antonio Palopo	11	Noviembre	2023-11-18T00:00:00	2024-11-08T18:00:00	3	Temperatura mínima	20.6
19844	7	Sololá	712	San Antonio Palopó	9	San Antonio Palopo	11	Noviembre	2023-11-18T00:00:00	2024-11-08T18:00:00	5	Humedad	81
19845	7	Sololá	712	San Antonio Palopó	9	San Antonio Palopo	11	Noviembre	2023-11-18T00:00:00	2024-11-08T18:00:00	6	Velocidad del viento	4.8
19846	7	Sololá	712	San Antonio Palopó	9	San Antonio Palopo	11	Noviembre	2023-11-18T00:00:00	2024-11-08T18:00:00	7	Dirección del viento	4.83
19847	7	Sololá	712	San Antonio Palopó	9	San Antonio Palopo	11	Noviembre	2023-11-18T00:00:00	2024-11-08T18:00:00	1	Precipitación	0
19848	7	Sololá	712	San Antonio Palopó	9	San Antonio Palopo	11	Noviembre	2023-11-18T00:00:00	2024-11-08T18:00:00	8	Radiación solar	15
19849	7	Sololá	712	San Antonio Palopó	9	San Antonio Palopo	11	Noviembre	2023-11-18T00:00:00	2024-11-08T19:00:00	2	Temperatura media	19.8
19850	7	Sololá	712	San Antonio Palopó	9	San Antonio Palopo	11	Noviembre	2023-11-18T00:00:00	2024-11-08T19:00:00	4	Temperatura máxima	20.6
19851	7	Sololá	712	San Antonio Palopó	9	San Antonio Palopo	11	Noviembre	2023-11-18T00:00:00	2024-11-08T19:00:00	3	Temperatura mínima	19.7
19852	7	Sololá	712	San Antonio Palopó	9	San Antonio Palopo	11	Noviembre	2023-11-18T00:00:00	2024-11-08T19:00:00	5	Humedad	79
19853	7	Sololá	712	San Antonio Palopó	9	San Antonio Palopo	11	Noviembre	2023-11-18T00:00:00	2024-11-08T19:00:00	6	Velocidad del viento	1.6
19854	7	Sololá	712	San Antonio Palopó	9	San Antonio Palopo	11	Noviembre	2023-11-18T00:00:00	2024-11-08T19:00:00	7	Dirección del viento	1.61
19855	7	Sololá	712	San Antonio Palopó	9	San Antonio Palopo	11	Noviembre	2023-11-18T00:00:00	2024-11-08T19:00:00	1	Precipitación	0
19856	7	Sololá	712	San Antonio Palopó	9	San Antonio Palopo	11	Noviembre	2023-11-18T00:00:00	2024-11-08T19:00:00	8	Radiación solar	0
19857	7	Sololá	712	San Antonio Palopó	9	San Antonio Palopo	11	Noviembre	2023-11-18T00:00:00	2024-11-08T20:00:00	2	Temperatura media	19.8
19858	7	Sololá	712	San Antonio Palopó	9	San Antonio Palopo	11	Noviembre	2023-11-18T00:00:00	2024-11-08T20:00:00	4	Temperatura máxima	20.1
19859	7	Sololá	712	San Antonio Palopó	9	San Antonio Palopo	11	Noviembre	2023-11-18T00:00:00	2024-11-08T20:00:00	3	Temperatura mínima	19.7
19860	7	Sololá	712	San Antonio Palopó	9	San Antonio Palopo	11	Noviembre	2023-11-18T00:00:00	2024-11-08T20:00:00	5	Humedad	73
19861	7	Sololá	712	San Antonio Palopó	9	San Antonio Palopo	11	Noviembre	2023-11-18T00:00:00	2024-11-08T20:00:00	6	Velocidad del viento	11.3
19862	7	Sololá	712	San Antonio Palopó	9	San Antonio Palopo	11	Noviembre	2023-11-18T00:00:00	2024-11-08T20:00:00	7	Dirección del viento	11.27
19863	7	Sololá	712	San Antonio Palopó	9	San Antonio Palopo	11	Noviembre	2023-11-18T00:00:00	2024-11-08T20:00:00	1	Precipitación	0
19864	7	Sololá	712	San Antonio Palopó	9	San Antonio Palopo	11	Noviembre	2023-11-18T00:00:00	2024-11-08T20:00:00	8	Radiación solar	0
19865	7	Sololá	712	San Antonio Palopó	9	San Antonio Palopo	11	Noviembre	2023-11-18T00:00:00	2024-11-08T21:00:00	2	Temperatura media	18.7
19866	7	Sololá	712	San Antonio Palopó	9	San Antonio Palopo	11	Noviembre	2023-11-18T00:00:00	2024-11-08T21:00:00	4	Temperatura máxima	19.8
19867	7	Sololá	712	San Antonio Palopó	9	San Antonio Palopo	11	Noviembre	2023-11-18T00:00:00	2024-11-08T21:00:00	3	Temperatura mínima	18.7
19868	7	Sololá	712	San Antonio Palopó	9	San Antonio Palopo	11	Noviembre	2023-11-18T00:00:00	2024-11-08T21:00:00	5	Humedad	73
19869	7	Sololá	712	San Antonio Palopó	9	San Antonio Palopo	11	Noviembre	2023-11-18T00:00:00	2024-11-08T21:00:00	6	Velocidad del viento	17.7
19870	7	Sololá	712	San Antonio Palopó	9	San Antonio Palopo	11	Noviembre	2023-11-18T00:00:00	2024-11-08T21:00:00	7	Dirección del viento	17.7
19871	7	Sololá	712	San Antonio Palopó	9	San Antonio Palopo	11	Noviembre	2023-11-18T00:00:00	2024-11-08T21:00:00	1	Precipitación	0
19872	7	Sololá	712	San Antonio Palopó	9	San Antonio Palopo	11	Noviembre	2023-11-18T00:00:00	2024-11-08T21:00:00	8	Radiación solar	0
19873	7	Sololá	712	San Antonio Palopó	9	San Antonio Palopo	11	Noviembre	2023-11-18T00:00:00	2024-11-08T22:00:00	2	Temperatura media	18.2
19874	7	Sololá	712	San Antonio Palopó	9	San Antonio Palopo	11	Noviembre	2023-11-18T00:00:00	2024-11-08T22:00:00	4	Temperatura máxima	18.7
19875	7	Sololá	712	San Antonio Palopó	9	San Antonio Palopo	11	Noviembre	2023-11-18T00:00:00	2024-11-08T22:00:00	3	Temperatura mínima	18.2
19876	7	Sololá	712	San Antonio Palopó	9	San Antonio Palopo	11	Noviembre	2023-11-18T00:00:00	2024-11-08T22:00:00	5	Humedad	71
19877	7	Sololá	712	San Antonio Palopó	9	San Antonio Palopo	11	Noviembre	2023-11-18T00:00:00	2024-11-08T22:00:00	6	Velocidad del viento	17.7
19878	7	Sololá	712	San Antonio Palopó	9	San Antonio Palopo	11	Noviembre	2023-11-18T00:00:00	2024-11-08T22:00:00	7	Dirección del viento	17.7
19879	7	Sololá	712	San Antonio Palopó	9	San Antonio Palopo	11	Noviembre	2023-11-18T00:00:00	2024-11-08T22:00:00	1	Precipitación	0
19880	7	Sololá	712	San Antonio Palopó	9	San Antonio Palopo	11	Noviembre	2023-11-18T00:00:00	2024-11-08T22:00:00	8	Radiación solar	0
19881	7	Sololá	712	San Antonio Palopó	9	San Antonio Palopo	11	Noviembre	2023-11-18T00:00:00	2024-11-08T23:00:00	2	Temperatura media	17.5
19882	7	Sololá	712	San Antonio Palopó	9	San Antonio Palopo	11	Noviembre	2023-11-18T00:00:00	2024-11-08T23:00:00	4	Temperatura máxima	18.2
19883	7	Sololá	712	San Antonio Palopó	9	San Antonio Palopo	11	Noviembre	2023-11-18T00:00:00	2024-11-08T23:00:00	3	Temperatura mínima	17.5
19884	7	Sololá	712	San Antonio Palopó	9	San Antonio Palopo	11	Noviembre	2023-11-18T00:00:00	2024-11-08T23:00:00	5	Humedad	71
19885	7	Sololá	712	San Antonio Palopó	9	San Antonio Palopo	11	Noviembre	2023-11-18T00:00:00	2024-11-08T23:00:00	6	Velocidad del viento	17.7
19886	7	Sololá	712	San Antonio Palopó	9	San Antonio Palopo	11	Noviembre	2023-11-18T00:00:00	2024-11-08T23:00:00	7	Dirección del viento	17.7
19887	7	Sololá	712	San Antonio Palopó	9	San Antonio Palopo	11	Noviembre	2023-11-18T00:00:00	2024-11-08T23:00:00	1	Precipitación	0
19888	7	Sololá	712	San Antonio Palopó	9	San Antonio Palopo	11	Noviembre	2023-11-18T00:00:00	2024-11-08T23:00:00	8	Radiación solar	0
19889	7	Sololá	712	San Antonio Palopó	9	San Antonio Palopo	11	Noviembre	2023-11-19T00:00:00	2024-11-08T00:00:00	2	Temperatura media	17
19890	7	Sololá	712	San Antonio Palopó	9	San Antonio Palopo	11	Noviembre	2023-11-19T00:00:00	2024-11-08T00:00:00	4	Temperatura máxima	17.6
19891	7	Sololá	712	San Antonio Palopó	9	San Antonio Palopo	11	Noviembre	2023-11-19T00:00:00	2024-11-08T00:00:00	3	Temperatura mínima	17
19892	7	Sololá	712	San Antonio Palopó	9	San Antonio Palopo	11	Noviembre	2023-11-19T00:00:00	2024-11-08T00:00:00	5	Humedad	72
19893	7	Sololá	712	San Antonio Palopó	9	San Antonio Palopo	11	Noviembre	2023-11-19T00:00:00	2024-11-08T00:00:00	6	Velocidad del viento	17.7
19894	7	Sololá	712	San Antonio Palopó	9	San Antonio Palopo	11	Noviembre	2023-11-19T00:00:00	2024-11-08T00:00:00	7	Dirección del viento	17.7
19895	7	Sololá	712	San Antonio Palopó	9	San Antonio Palopo	11	Noviembre	2023-11-19T00:00:00	2024-11-08T00:00:00	1	Precipitación	0
19896	7	Sololá	712	San Antonio Palopó	9	San Antonio Palopo	11	Noviembre	2023-11-19T00:00:00	2024-11-08T00:00:00	8	Radiación solar	0
19897	7	Sololá	712	San Antonio Palopó	9	San Antonio Palopo	11	Noviembre	2023-11-19T00:00:00	2024-11-08T01:00:00	2	Temperatura media	16.6
19898	7	Sololá	712	San Antonio Palopó	9	San Antonio Palopo	11	Noviembre	2023-11-19T00:00:00	2024-11-08T01:00:00	4	Temperatura máxima	17
19899	7	Sololá	712	San Antonio Palopó	9	San Antonio Palopo	11	Noviembre	2023-11-19T00:00:00	2024-11-08T01:00:00	3	Temperatura mínima	16.6
19900	7	Sololá	712	San Antonio Palopó	9	San Antonio Palopo	11	Noviembre	2023-11-19T00:00:00	2024-11-08T01:00:00	5	Humedad	71
19901	7	Sololá	712	San Antonio Palopó	9	San Antonio Palopo	11	Noviembre	2023-11-19T00:00:00	2024-11-08T01:00:00	6	Velocidad del viento	17.7
19902	7	Sololá	712	San Antonio Palopó	9	San Antonio Palopo	11	Noviembre	2023-11-19T00:00:00	2024-11-08T01:00:00	7	Dirección del viento	17.7
19903	7	Sololá	712	San Antonio Palopó	9	San Antonio Palopo	11	Noviembre	2023-11-19T00:00:00	2024-11-08T01:00:00	1	Precipitación	0
19904	7	Sololá	712	San Antonio Palopó	9	San Antonio Palopo	11	Noviembre	2023-11-19T00:00:00	2024-11-08T01:00:00	8	Radiación solar	0
19905	7	Sololá	712	San Antonio Palopó	9	San Antonio Palopo	11	Noviembre	2023-11-19T00:00:00	2024-11-08T02:00:00	2	Temperatura media	16.6
19906	7	Sololá	712	San Antonio Palopó	9	San Antonio Palopo	11	Noviembre	2023-11-19T00:00:00	2024-11-08T02:00:00	4	Temperatura máxima	16.7
19907	7	Sololá	712	San Antonio Palopó	9	San Antonio Palopo	11	Noviembre	2023-11-19T00:00:00	2024-11-08T02:00:00	3	Temperatura mínima	16.4
19908	7	Sololá	712	San Antonio Palopó	9	San Antonio Palopo	11	Noviembre	2023-11-19T00:00:00	2024-11-08T02:00:00	5	Humedad	71
19909	7	Sololá	712	San Antonio Palopó	9	San Antonio Palopo	11	Noviembre	2023-11-19T00:00:00	2024-11-08T02:00:00	6	Velocidad del viento	17.7
19910	7	Sololá	712	San Antonio Palopó	9	San Antonio Palopo	11	Noviembre	2023-11-19T00:00:00	2024-11-08T02:00:00	7	Dirección del viento	17.7
19911	7	Sololá	712	San Antonio Palopó	9	San Antonio Palopo	11	Noviembre	2023-11-19T00:00:00	2024-11-08T02:00:00	1	Precipitación	0
19912	7	Sololá	712	San Antonio Palopó	9	San Antonio Palopo	11	Noviembre	2023-11-19T00:00:00	2024-11-08T02:00:00	8	Radiación solar	0
19913	7	Sololá	712	San Antonio Palopó	9	San Antonio Palopo	11	Noviembre	2023-11-19T00:00:00	2024-11-08T03:00:00	2	Temperatura media	16.8
19914	7	Sololá	712	San Antonio Palopó	9	San Antonio Palopo	11	Noviembre	2023-11-19T00:00:00	2024-11-08T03:00:00	4	Temperatura máxima	17
19915	7	Sololá	712	San Antonio Palopó	9	San Antonio Palopo	11	Noviembre	2023-11-19T00:00:00	2024-11-08T03:00:00	3	Temperatura mínima	16.4
19916	7	Sololá	712	San Antonio Palopó	9	San Antonio Palopo	11	Noviembre	2023-11-19T00:00:00	2024-11-08T03:00:00	5	Humedad	69
19917	7	Sololá	712	San Antonio Palopó	9	San Antonio Palopo	11	Noviembre	2023-11-19T00:00:00	2024-11-08T03:00:00	6	Velocidad del viento	12.9
19918	7	Sololá	712	San Antonio Palopó	9	San Antonio Palopo	11	Noviembre	2023-11-19T00:00:00	2024-11-08T03:00:00	7	Dirección del viento	12.87
19919	7	Sololá	712	San Antonio Palopó	9	San Antonio Palopo	11	Noviembre	2023-11-19T00:00:00	2024-11-08T03:00:00	1	Precipitación	0
19920	7	Sololá	712	San Antonio Palopó	9	San Antonio Palopo	11	Noviembre	2023-11-19T00:00:00	2024-11-08T03:00:00	8	Radiación solar	0
19921	7	Sololá	712	San Antonio Palopó	9	San Antonio Palopo	11	Noviembre	2023-11-19T00:00:00	2024-11-08T04:00:00	2	Temperatura media	16.7
19922	7	Sololá	712	San Antonio Palopó	9	San Antonio Palopo	11	Noviembre	2023-11-19T00:00:00	2024-11-08T04:00:00	4	Temperatura máxima	17.1
19923	7	Sololá	712	San Antonio Palopó	9	San Antonio Palopo	11	Noviembre	2023-11-19T00:00:00	2024-11-08T04:00:00	3	Temperatura mínima	16.7
19924	7	Sololá	712	San Antonio Palopó	9	San Antonio Palopo	11	Noviembre	2023-11-19T00:00:00	2024-11-08T04:00:00	5	Humedad	68
19925	7	Sololá	712	San Antonio Palopó	9	San Antonio Palopo	11	Noviembre	2023-11-19T00:00:00	2024-11-08T04:00:00	6	Velocidad del viento	11.3
19926	7	Sololá	712	San Antonio Palopó	9	San Antonio Palopo	11	Noviembre	2023-11-19T00:00:00	2024-11-08T04:00:00	7	Dirección del viento	11.27
19927	7	Sololá	712	San Antonio Palopó	9	San Antonio Palopo	11	Noviembre	2023-11-19T00:00:00	2024-11-08T04:00:00	1	Precipitación	0
19928	7	Sololá	712	San Antonio Palopó	9	San Antonio Palopo	11	Noviembre	2023-11-19T00:00:00	2024-11-08T04:00:00	8	Radiación solar	0
19929	7	Sololá	712	San Antonio Palopó	9	San Antonio Palopo	11	Noviembre	2023-11-19T00:00:00	2024-11-08T05:00:00	2	Temperatura media	16.6
19930	7	Sololá	712	San Antonio Palopó	9	San Antonio Palopo	11	Noviembre	2023-11-19T00:00:00	2024-11-08T05:00:00	4	Temperatura máxima	16.8
19931	7	Sololá	712	San Antonio Palopó	9	San Antonio Palopo	11	Noviembre	2023-11-19T00:00:00	2024-11-08T05:00:00	3	Temperatura mínima	16.6
19932	7	Sololá	712	San Antonio Palopó	9	San Antonio Palopo	11	Noviembre	2023-11-19T00:00:00	2024-11-08T05:00:00	5	Humedad	68
19933	7	Sololá	712	San Antonio Palopó	9	San Antonio Palopo	11	Noviembre	2023-11-19T00:00:00	2024-11-08T05:00:00	6	Velocidad del viento	9.7
19934	7	Sololá	712	San Antonio Palopó	9	San Antonio Palopo	11	Noviembre	2023-11-19T00:00:00	2024-11-08T05:00:00	7	Dirección del viento	9.66
19935	7	Sololá	712	San Antonio Palopó	9	San Antonio Palopo	11	Noviembre	2023-11-19T00:00:00	2024-11-08T05:00:00	1	Precipitación	0
19936	7	Sololá	712	San Antonio Palopó	9	San Antonio Palopo	11	Noviembre	2023-11-19T00:00:00	2024-11-08T05:00:00	8	Radiación solar	0
19937	7	Sololá	712	San Antonio Palopó	9	San Antonio Palopo	11	Noviembre	2023-11-19T00:00:00	2024-11-08T06:00:00	2	Temperatura media	16.9
19938	7	Sololá	712	San Antonio Palopó	9	San Antonio Palopo	11	Noviembre	2023-11-19T00:00:00	2024-11-08T06:00:00	4	Temperatura máxima	16.9
19939	7	Sololá	712	San Antonio Palopó	9	San Antonio Palopo	11	Noviembre	2023-11-19T00:00:00	2024-11-08T06:00:00	3	Temperatura mínima	16.2
19940	7	Sololá	712	San Antonio Palopó	9	San Antonio Palopo	11	Noviembre	2023-11-19T00:00:00	2024-11-08T06:00:00	5	Humedad	68
19941	7	Sololá	712	San Antonio Palopó	9	San Antonio Palopo	11	Noviembre	2023-11-19T00:00:00	2024-11-08T06:00:00	6	Velocidad del viento	8
19942	7	Sololá	712	San Antonio Palopó	9	San Antonio Palopo	11	Noviembre	2023-11-19T00:00:00	2024-11-08T06:00:00	7	Dirección del viento	8.05
19943	7	Sololá	712	San Antonio Palopó	9	San Antonio Palopo	11	Noviembre	2023-11-19T00:00:00	2024-11-08T06:00:00	1	Precipitación	0
19944	7	Sololá	712	San Antonio Palopó	9	San Antonio Palopo	11	Noviembre	2023-11-19T00:00:00	2024-11-08T06:00:00	8	Radiación solar	0
19945	7	Sololá	712	San Antonio Palopó	9	San Antonio Palopo	11	Noviembre	2023-11-19T00:00:00	2024-11-08T07:00:00	2	Temperatura media	16.6
19946	7	Sololá	712	San Antonio Palopó	9	San Antonio Palopo	11	Noviembre	2023-11-19T00:00:00	2024-11-08T07:00:00	4	Temperatura máxima	16.9
19947	7	Sololá	712	San Antonio Palopó	9	San Antonio Palopo	11	Noviembre	2023-11-19T00:00:00	2024-11-08T07:00:00	3	Temperatura mínima	16.6
19948	7	Sololá	712	San Antonio Palopó	9	San Antonio Palopo	11	Noviembre	2023-11-19T00:00:00	2024-11-08T07:00:00	5	Humedad	71
19949	7	Sololá	712	San Antonio Palopó	9	San Antonio Palopo	11	Noviembre	2023-11-19T00:00:00	2024-11-08T07:00:00	6	Velocidad del viento	8
19950	7	Sololá	712	San Antonio Palopó	9	San Antonio Palopo	11	Noviembre	2023-11-19T00:00:00	2024-11-08T07:00:00	7	Dirección del viento	8.05
19951	7	Sololá	712	San Antonio Palopó	9	San Antonio Palopo	11	Noviembre	2023-11-19T00:00:00	2024-11-08T07:00:00	1	Precipitación	0
19952	7	Sololá	712	San Antonio Palopó	9	San Antonio Palopo	11	Noviembre	2023-11-19T00:00:00	2024-11-08T07:00:00	8	Radiación solar	10
19953	7	Sololá	712	San Antonio Palopó	9	San Antonio Palopo	11	Noviembre	2023-11-19T00:00:00	2024-11-08T08:00:00	2	Temperatura media	15.8
19954	7	Sololá	712	San Antonio Palopó	9	San Antonio Palopo	11	Noviembre	2023-11-19T00:00:00	2024-11-08T08:00:00	4	Temperatura máxima	16.6
19955	7	Sololá	712	San Antonio Palopó	9	San Antonio Palopo	11	Noviembre	2023-11-19T00:00:00	2024-11-08T08:00:00	3	Temperatura mínima	15.8
19956	7	Sololá	712	San Antonio Palopó	9	San Antonio Palopo	11	Noviembre	2023-11-19T00:00:00	2024-11-08T08:00:00	5	Humedad	78
19957	7	Sololá	712	San Antonio Palopó	9	San Antonio Palopo	11	Noviembre	2023-11-19T00:00:00	2024-11-08T08:00:00	6	Velocidad del viento	3.2
19958	7	Sololá	712	San Antonio Palopó	9	San Antonio Palopo	11	Noviembre	2023-11-19T00:00:00	2024-11-08T08:00:00	7	Dirección del viento	3.22
19959	7	Sololá	712	San Antonio Palopó	9	San Antonio Palopo	11	Noviembre	2023-11-19T00:00:00	2024-11-08T08:00:00	1	Precipitación	0
19960	7	Sololá	712	San Antonio Palopó	9	San Antonio Palopo	11	Noviembre	2023-11-19T00:00:00	2024-11-08T08:00:00	8	Radiación solar	26
19961	7	Sololá	712	San Antonio Palopó	9	San Antonio Palopo	11	Noviembre	2023-11-19T00:00:00	2024-11-08T09:00:00	2	Temperatura media	19.2
19962	7	Sololá	712	San Antonio Palopó	9	San Antonio Palopo	11	Noviembre	2023-11-19T00:00:00	2024-11-08T09:00:00	4	Temperatura máxima	19.2
19963	7	Sololá	712	San Antonio Palopó	9	San Antonio Palopo	11	Noviembre	2023-11-19T00:00:00	2024-11-08T09:00:00	3	Temperatura mínima	15.6
19964	7	Sololá	712	San Antonio Palopó	9	San Antonio Palopo	11	Noviembre	2023-11-19T00:00:00	2024-11-08T09:00:00	5	Humedad	71
19965	7	Sololá	712	San Antonio Palopó	9	San Antonio Palopo	11	Noviembre	2023-11-19T00:00:00	2024-11-08T09:00:00	6	Velocidad del viento	3.2
19966	7	Sololá	712	San Antonio Palopó	9	San Antonio Palopo	11	Noviembre	2023-11-19T00:00:00	2024-11-08T09:00:00	7	Dirección del viento	3.22
19967	7	Sololá	712	San Antonio Palopó	9	San Antonio Palopo	11	Noviembre	2023-11-19T00:00:00	2024-11-08T09:00:00	1	Precipitación	0
19968	7	Sololá	712	San Antonio Palopó	9	San Antonio Palopo	11	Noviembre	2023-11-19T00:00:00	2024-11-08T09:00:00	8	Radiación solar	372
19969	7	Sololá	712	San Antonio Palopó	9	San Antonio Palopo	11	Noviembre	2023-11-19T00:00:00	2024-11-08T10:00:00	2	Temperatura media	19.6
19970	7	Sololá	712	San Antonio Palopó	9	San Antonio Palopo	11	Noviembre	2023-11-19T00:00:00	2024-11-08T10:00:00	4	Temperatura máxima	19.9
19971	7	Sololá	712	San Antonio Palopó	9	San Antonio Palopo	11	Noviembre	2023-11-19T00:00:00	2024-11-08T10:00:00	3	Temperatura mínima	19.2
19972	7	Sololá	712	San Antonio Palopó	9	San Antonio Palopo	11	Noviembre	2023-11-19T00:00:00	2024-11-08T10:00:00	5	Humedad	70
19973	7	Sololá	712	San Antonio Palopó	9	San Antonio Palopo	11	Noviembre	2023-11-19T00:00:00	2024-11-08T10:00:00	6	Velocidad del viento	3.2
19974	7	Sololá	712	San Antonio Palopó	9	San Antonio Palopo	11	Noviembre	2023-11-19T00:00:00	2024-11-08T10:00:00	7	Dirección del viento	3.22
19975	7	Sololá	712	San Antonio Palopó	9	San Antonio Palopo	11	Noviembre	2023-11-19T00:00:00	2024-11-08T10:00:00	1	Precipitación	0
19976	7	Sololá	712	San Antonio Palopó	9	San Antonio Palopo	11	Noviembre	2023-11-19T00:00:00	2024-11-08T10:00:00	8	Radiación solar	621
19977	7	Sololá	712	San Antonio Palopó	9	San Antonio Palopo	11	Noviembre	2023-11-19T00:00:00	2024-11-08T11:00:00	2	Temperatura media	21.6
19978	7	Sololá	712	San Antonio Palopó	9	San Antonio Palopo	11	Noviembre	2023-11-19T00:00:00	2024-11-08T11:00:00	4	Temperatura máxima	21.8
19979	7	Sololá	712	San Antonio Palopó	9	San Antonio Palopo	11	Noviembre	2023-11-19T00:00:00	2024-11-08T11:00:00	3	Temperatura mínima	19.6
19980	7	Sololá	712	San Antonio Palopó	9	San Antonio Palopo	11	Noviembre	2023-11-19T00:00:00	2024-11-08T11:00:00	5	Humedad	67
19981	7	Sololá	712	San Antonio Palopó	9	San Antonio Palopo	11	Noviembre	2023-11-19T00:00:00	2024-11-08T11:00:00	6	Velocidad del viento	1.6
19982	7	Sololá	712	San Antonio Palopó	9	San Antonio Palopo	11	Noviembre	2023-11-19T00:00:00	2024-11-08T11:00:00	7	Dirección del viento	1.61
19983	7	Sololá	712	San Antonio Palopó	9	San Antonio Palopo	11	Noviembre	2023-11-19T00:00:00	2024-11-08T11:00:00	1	Precipitación	0
19984	7	Sololá	712	San Antonio Palopó	9	San Antonio Palopo	11	Noviembre	2023-11-19T00:00:00	2024-11-08T11:00:00	8	Radiación solar	741
19985	7	Sololá	712	San Antonio Palopó	9	San Antonio Palopo	11	Noviembre	2023-11-19T00:00:00	2024-11-08T12:00:00	2	Temperatura media	22.7
19986	7	Sololá	712	San Antonio Palopó	9	San Antonio Palopo	11	Noviembre	2023-11-19T00:00:00	2024-11-08T12:00:00	4	Temperatura máxima	22.7
19987	7	Sololá	712	San Antonio Palopó	9	San Antonio Palopo	11	Noviembre	2023-11-19T00:00:00	2024-11-08T12:00:00	3	Temperatura mínima	21.6
19988	7	Sololá	712	San Antonio Palopó	9	San Antonio Palopo	11	Noviembre	2023-11-19T00:00:00	2024-11-08T12:00:00	5	Humedad	68
19989	7	Sololá	712	San Antonio Palopó	9	San Antonio Palopo	11	Noviembre	2023-11-19T00:00:00	2024-11-08T12:00:00	6	Velocidad del viento	4.8
19990	7	Sololá	712	San Antonio Palopó	9	San Antonio Palopo	11	Noviembre	2023-11-19T00:00:00	2024-11-08T12:00:00	7	Dirección del viento	4.83
19991	7	Sololá	712	San Antonio Palopó	9	San Antonio Palopo	11	Noviembre	2023-11-19T00:00:00	2024-11-08T12:00:00	1	Precipitación	0
19992	7	Sololá	712	San Antonio Palopó	9	San Antonio Palopo	11	Noviembre	2023-11-19T00:00:00	2024-11-08T12:00:00	8	Radiación solar	731
19993	7	Sololá	712	San Antonio Palopó	9	San Antonio Palopo	11	Noviembre	2023-11-19T00:00:00	2024-11-08T13:00:00	2	Temperatura media	21.7
19994	7	Sololá	712	San Antonio Palopó	9	San Antonio Palopo	11	Noviembre	2023-11-19T00:00:00	2024-11-08T13:00:00	4	Temperatura máxima	22.8
19995	7	Sololá	712	San Antonio Palopó	9	San Antonio Palopo	11	Noviembre	2023-11-19T00:00:00	2024-11-08T13:00:00	3	Temperatura mínima	21.7
19996	7	Sololá	712	San Antonio Palopó	9	San Antonio Palopo	11	Noviembre	2023-11-19T00:00:00	2024-11-08T13:00:00	5	Humedad	74
19997	7	Sololá	712	San Antonio Palopó	9	San Antonio Palopo	11	Noviembre	2023-11-19T00:00:00	2024-11-08T13:00:00	6	Velocidad del viento	11.3
19998	7	Sololá	712	San Antonio Palopó	9	San Antonio Palopo	11	Noviembre	2023-11-19T00:00:00	2024-11-08T13:00:00	7	Dirección del viento	11.27
19999	7	Sololá	712	San Antonio Palopó	9	San Antonio Palopo	11	Noviembre	2023-11-19T00:00:00	2024-11-08T13:00:00	1	Precipitación	0
20000	7	Sololá	712	San Antonio Palopó	9	San Antonio Palopo	11	Noviembre	2023-11-19T00:00:00	2024-11-08T13:00:00	8	Radiación solar	676
20001	7	Sololá	712	San Antonio Palopó	9	San Antonio Palopo	11	Noviembre	2023-11-19T00:00:00	2024-11-08T14:00:00	2	Temperatura media	21.1
20002	7	Sololá	712	San Antonio Palopó	9	San Antonio Palopo	11	Noviembre	2023-11-19T00:00:00	2024-11-08T14:00:00	4	Temperatura máxima	21.7
20003	7	Sololá	712	San Antonio Palopó	9	San Antonio Palopo	11	Noviembre	2023-11-19T00:00:00	2024-11-08T14:00:00	3	Temperatura mínima	21.1
20004	7	Sololá	712	San Antonio Palopó	9	San Antonio Palopo	11	Noviembre	2023-11-19T00:00:00	2024-11-08T14:00:00	5	Humedad	74
20005	7	Sololá	712	San Antonio Palopó	9	San Antonio Palopo	11	Noviembre	2023-11-19T00:00:00	2024-11-08T14:00:00	6	Velocidad del viento	9.7
20006	7	Sololá	712	San Antonio Palopó	9	San Antonio Palopo	11	Noviembre	2023-11-19T00:00:00	2024-11-08T14:00:00	7	Dirección del viento	9.66
20007	7	Sololá	712	San Antonio Palopó	9	San Antonio Palopo	11	Noviembre	2023-11-19T00:00:00	2024-11-08T14:00:00	1	Precipitación	0
20008	7	Sololá	712	San Antonio Palopó	9	San Antonio Palopo	11	Noviembre	2023-11-19T00:00:00	2024-11-08T14:00:00	8	Radiación solar	346
20009	7	Sololá	712	San Antonio Palopó	9	San Antonio Palopo	11	Noviembre	2023-11-19T00:00:00	2024-11-08T15:00:00	2	Temperatura media	20.4
20010	7	Sololá	712	San Antonio Palopó	9	San Antonio Palopo	11	Noviembre	2023-11-19T00:00:00	2024-11-08T15:00:00	4	Temperatura máxima	21.1
20011	7	Sololá	712	San Antonio Palopó	9	San Antonio Palopo	11	Noviembre	2023-11-19T00:00:00	2024-11-08T15:00:00	3	Temperatura mínima	20.4
20012	7	Sololá	712	San Antonio Palopó	9	San Antonio Palopo	11	Noviembre	2023-11-19T00:00:00	2024-11-08T15:00:00	5	Humedad	79
20013	7	Sololá	712	San Antonio Palopó	9	San Antonio Palopo	11	Noviembre	2023-11-19T00:00:00	2024-11-08T15:00:00	6	Velocidad del viento	9.7
20014	7	Sololá	712	San Antonio Palopó	9	San Antonio Palopo	11	Noviembre	2023-11-19T00:00:00	2024-11-08T15:00:00	7	Dirección del viento	9.66
20015	7	Sololá	712	San Antonio Palopó	9	San Antonio Palopo	11	Noviembre	2023-11-19T00:00:00	2024-11-08T15:00:00	1	Precipitación	0
20016	7	Sololá	712	San Antonio Palopó	9	San Antonio Palopo	11	Noviembre	2023-11-19T00:00:00	2024-11-08T15:00:00	8	Radiación solar	212
20017	7	Sololá	712	San Antonio Palopó	9	San Antonio Palopo	11	Noviembre	2023-11-19T00:00:00	2024-11-08T16:00:00	2	Temperatura media	20
20018	7	Sololá	712	San Antonio Palopó	9	San Antonio Palopo	11	Noviembre	2023-11-19T00:00:00	2024-11-08T16:00:00	4	Temperatura máxima	20.5
20019	7	Sololá	712	San Antonio Palopó	9	San Antonio Palopo	11	Noviembre	2023-11-19T00:00:00	2024-11-08T16:00:00	3	Temperatura mínima	19.9
20020	7	Sololá	712	San Antonio Palopó	9	San Antonio Palopo	11	Noviembre	2023-11-19T00:00:00	2024-11-08T16:00:00	5	Humedad	80
20021	7	Sololá	712	San Antonio Palopó	9	San Antonio Palopo	11	Noviembre	2023-11-19T00:00:00	2024-11-08T16:00:00	6	Velocidad del viento	9.7
20022	7	Sololá	712	San Antonio Palopó	9	San Antonio Palopo	11	Noviembre	2023-11-19T00:00:00	2024-11-08T16:00:00	7	Dirección del viento	9.66
20023	7	Sololá	712	San Antonio Palopó	9	San Antonio Palopo	11	Noviembre	2023-11-19T00:00:00	2024-11-08T16:00:00	1	Precipitación	0
20024	7	Sololá	712	San Antonio Palopó	9	San Antonio Palopo	11	Noviembre	2023-11-19T00:00:00	2024-11-08T16:00:00	8	Radiación solar	122
20025	7	Sololá	712	San Antonio Palopó	9	San Antonio Palopo	11	Noviembre	2023-11-19T00:00:00	2024-11-08T17:00:00	2	Temperatura media	19.4
20026	7	Sololá	712	San Antonio Palopó	9	San Antonio Palopo	11	Noviembre	2023-11-19T00:00:00	2024-11-08T17:00:00	4	Temperatura máxima	20.2
20027	7	Sololá	712	San Antonio Palopó	9	San Antonio Palopo	11	Noviembre	2023-11-19T00:00:00	2024-11-08T17:00:00	3	Temperatura mínima	19.4
20028	7	Sololá	712	San Antonio Palopó	9	San Antonio Palopo	11	Noviembre	2023-11-19T00:00:00	2024-11-08T17:00:00	5	Humedad	82
20029	7	Sololá	712	San Antonio Palopó	9	San Antonio Palopo	11	Noviembre	2023-11-19T00:00:00	2024-11-08T17:00:00	6	Velocidad del viento	9.7
20030	7	Sololá	712	San Antonio Palopó	9	San Antonio Palopo	11	Noviembre	2023-11-19T00:00:00	2024-11-08T17:00:00	7	Dirección del viento	9.66
20031	7	Sololá	712	San Antonio Palopó	9	San Antonio Palopo	11	Noviembre	2023-11-19T00:00:00	2024-11-08T17:00:00	1	Precipitación	0
20032	7	Sololá	712	San Antonio Palopó	9	San Antonio Palopo	11	Noviembre	2023-11-19T00:00:00	2024-11-08T17:00:00	8	Radiación solar	106
20033	7	Sololá	712	San Antonio Palopó	9	San Antonio Palopo	11	Noviembre	2023-11-19T00:00:00	2024-11-08T18:00:00	2	Temperatura media	19
20034	7	Sololá	712	San Antonio Palopó	9	San Antonio Palopo	11	Noviembre	2023-11-19T00:00:00	2024-11-08T18:00:00	4	Temperatura máxima	19.5
20035	7	Sololá	712	San Antonio Palopó	9	San Antonio Palopo	11	Noviembre	2023-11-19T00:00:00	2024-11-08T18:00:00	3	Temperatura mínima	19
20036	7	Sololá	712	San Antonio Palopó	9	San Antonio Palopo	11	Noviembre	2023-11-19T00:00:00	2024-11-08T18:00:00	5	Humedad	84
20037	7	Sololá	712	San Antonio Palopó	9	San Antonio Palopo	11	Noviembre	2023-11-19T00:00:00	2024-11-08T18:00:00	6	Velocidad del viento	8
20038	7	Sololá	712	San Antonio Palopó	9	San Antonio Palopo	11	Noviembre	2023-11-19T00:00:00	2024-11-08T18:00:00	7	Dirección del viento	8.05
20039	7	Sololá	712	San Antonio Palopó	9	San Antonio Palopo	11	Noviembre	2023-11-19T00:00:00	2024-11-08T18:00:00	1	Precipitación	0
20040	7	Sololá	712	San Antonio Palopó	9	San Antonio Palopo	11	Noviembre	2023-11-19T00:00:00	2024-11-08T18:00:00	8	Radiación solar	10
20041	7	Sololá	712	San Antonio Palopó	9	San Antonio Palopo	11	Noviembre	2023-11-19T00:00:00	2024-11-08T19:00:00	2	Temperatura media	18.3
20042	7	Sololá	712	San Antonio Palopó	9	San Antonio Palopo	11	Noviembre	2023-11-19T00:00:00	2024-11-08T19:00:00	4	Temperatura máxima	19
20043	7	Sololá	712	San Antonio Palopó	9	San Antonio Palopo	11	Noviembre	2023-11-19T00:00:00	2024-11-08T19:00:00	3	Temperatura mínima	18.3
20044	7	Sololá	712	San Antonio Palopó	9	San Antonio Palopo	11	Noviembre	2023-11-19T00:00:00	2024-11-08T19:00:00	5	Humedad	86
20045	7	Sololá	712	San Antonio Palopó	9	San Antonio Palopo	11	Noviembre	2023-11-19T00:00:00	2024-11-08T19:00:00	6	Velocidad del viento	6.4
20046	7	Sololá	712	San Antonio Palopó	9	San Antonio Palopo	11	Noviembre	2023-11-19T00:00:00	2024-11-08T19:00:00	7	Dirección del viento	6.44
20047	7	Sololá	712	San Antonio Palopó	9	San Antonio Palopo	11	Noviembre	2023-11-19T00:00:00	2024-11-08T19:00:00	1	Precipitación	0
20048	7	Sololá	712	San Antonio Palopó	9	San Antonio Palopo	11	Noviembre	2023-11-19T00:00:00	2024-11-08T19:00:00	8	Radiación solar	0
20049	7	Sololá	712	San Antonio Palopó	9	San Antonio Palopo	11	Noviembre	2023-11-19T00:00:00	2024-11-08T20:00:00	2	Temperatura media	18.4
20050	7	Sololá	712	San Antonio Palopó	9	San Antonio Palopo	11	Noviembre	2023-11-19T00:00:00	2024-11-08T20:00:00	4	Temperatura máxima	18.5
20051	7	Sololá	712	San Antonio Palopó	9	San Antonio Palopo	11	Noviembre	2023-11-19T00:00:00	2024-11-08T20:00:00	3	Temperatura mínima	18.2
20052	7	Sololá	712	San Antonio Palopó	9	San Antonio Palopo	11	Noviembre	2023-11-19T00:00:00	2024-11-08T20:00:00	5	Humedad	84
20053	7	Sololá	712	San Antonio Palopó	9	San Antonio Palopo	11	Noviembre	2023-11-19T00:00:00	2024-11-08T20:00:00	6	Velocidad del viento	3.2
20054	7	Sololá	712	San Antonio Palopó	9	San Antonio Palopo	11	Noviembre	2023-11-19T00:00:00	2024-11-08T20:00:00	7	Dirección del viento	3.22
20055	7	Sololá	712	San Antonio Palopó	9	San Antonio Palopo	11	Noviembre	2023-11-19T00:00:00	2024-11-08T20:00:00	1	Precipitación	0
20056	7	Sololá	712	San Antonio Palopó	9	San Antonio Palopo	11	Noviembre	2023-11-19T00:00:00	2024-11-08T20:00:00	8	Radiación solar	0
20057	7	Sololá	712	San Antonio Palopó	9	San Antonio Palopo	11	Noviembre	2023-11-19T00:00:00	2024-11-08T21:00:00	2	Temperatura media	17.9
20058	7	Sololá	712	San Antonio Palopó	9	San Antonio Palopo	11	Noviembre	2023-11-19T00:00:00	2024-11-08T21:00:00	4	Temperatura máxima	18.4
20059	7	Sololá	712	San Antonio Palopó	9	San Antonio Palopo	11	Noviembre	2023-11-19T00:00:00	2024-11-08T21:00:00	3	Temperatura mínima	17.9
20060	7	Sololá	712	San Antonio Palopó	9	San Antonio Palopo	11	Noviembre	2023-11-19T00:00:00	2024-11-08T21:00:00	5	Humedad	82
20061	7	Sololá	712	San Antonio Palopó	9	San Antonio Palopo	11	Noviembre	2023-11-19T00:00:00	2024-11-08T21:00:00	6	Velocidad del viento	1.6
20062	7	Sololá	712	San Antonio Palopó	9	San Antonio Palopo	11	Noviembre	2023-11-19T00:00:00	2024-11-08T21:00:00	7	Dirección del viento	1.61
20063	7	Sololá	712	San Antonio Palopó	9	San Antonio Palopo	11	Noviembre	2023-11-19T00:00:00	2024-11-08T21:00:00	1	Precipitación	0
20064	7	Sololá	712	San Antonio Palopó	9	San Antonio Palopo	11	Noviembre	2023-11-19T00:00:00	2024-11-08T21:00:00	8	Radiación solar	0
20065	7	Sololá	712	San Antonio Palopó	9	San Antonio Palopo	11	Noviembre	2023-11-19T00:00:00	2024-11-08T22:00:00	2	Temperatura media	17.9
20066	7	Sololá	712	San Antonio Palopó	9	San Antonio Palopo	11	Noviembre	2023-11-19T00:00:00	2024-11-08T22:00:00	4	Temperatura máxima	18.1
20067	7	Sololá	712	San Antonio Palopó	9	San Antonio Palopo	11	Noviembre	2023-11-19T00:00:00	2024-11-08T22:00:00	3	Temperatura mínima	17.9
20068	7	Sololá	712	San Antonio Palopó	9	San Antonio Palopo	11	Noviembre	2023-11-19T00:00:00	2024-11-08T22:00:00	5	Humedad	83
20069	7	Sololá	712	San Antonio Palopó	9	San Antonio Palopo	11	Noviembre	2023-11-19T00:00:00	2024-11-08T22:00:00	6	Velocidad del viento	1.6
20070	7	Sololá	712	San Antonio Palopó	9	San Antonio Palopo	11	Noviembre	2023-11-19T00:00:00	2024-11-08T22:00:00	7	Dirección del viento	1.61
20071	7	Sololá	712	San Antonio Palopó	9	San Antonio Palopo	11	Noviembre	2023-11-19T00:00:00	2024-11-08T22:00:00	1	Precipitación	0
20072	7	Sololá	712	San Antonio Palopó	9	San Antonio Palopo	11	Noviembre	2023-11-19T00:00:00	2024-11-08T22:00:00	8	Radiación solar	0
20073	7	Sololá	712	San Antonio Palopó	9	San Antonio Palopo	11	Noviembre	2023-11-19T00:00:00	2024-11-08T23:00:00	2	Temperatura media	17.9
20074	7	Sololá	712	San Antonio Palopó	9	San Antonio Palopo	11	Noviembre	2023-11-19T00:00:00	2024-11-08T23:00:00	4	Temperatura máxima	18.1
20075	7	Sololá	712	San Antonio Palopó	9	San Antonio Palopo	11	Noviembre	2023-11-19T00:00:00	2024-11-08T23:00:00	3	Temperatura mínima	17.9
20076	7	Sololá	712	San Antonio Palopó	9	San Antonio Palopo	11	Noviembre	2023-11-19T00:00:00	2024-11-08T23:00:00	5	Humedad	84
20077	7	Sololá	712	San Antonio Palopó	9	San Antonio Palopo	11	Noviembre	2023-11-19T00:00:00	2024-11-08T23:00:00	6	Velocidad del viento	1.6
20078	7	Sololá	712	San Antonio Palopó	9	San Antonio Palopo	11	Noviembre	2023-11-19T00:00:00	2024-11-08T23:00:00	7	Dirección del viento	1.61
20079	7	Sololá	712	San Antonio Palopó	9	San Antonio Palopo	11	Noviembre	2023-11-19T00:00:00	2024-11-08T23:00:00	1	Precipitación	0
20080	7	Sololá	712	San Antonio Palopó	9	San Antonio Palopo	11	Noviembre	2023-11-19T00:00:00	2024-11-08T23:00:00	8	Radiación solar	0
20081	7	Sololá	712	San Antonio Palopó	9	San Antonio Palopo	11	Noviembre	2023-11-20T00:00:00	2024-11-08T00:00:00	2	Temperatura media	18
20082	7	Sololá	712	San Antonio Palopó	9	San Antonio Palopo	11	Noviembre	2023-11-20T00:00:00	2024-11-08T00:00:00	4	Temperatura máxima	18.2
20083	7	Sololá	712	San Antonio Palopó	9	San Antonio Palopo	11	Noviembre	2023-11-20T00:00:00	2024-11-08T00:00:00	3	Temperatura mínima	17.9
20084	7	Sololá	712	San Antonio Palopó	9	San Antonio Palopo	11	Noviembre	2023-11-20T00:00:00	2024-11-08T00:00:00	5	Humedad	82
20085	7	Sololá	712	San Antonio Palopó	9	San Antonio Palopo	11	Noviembre	2023-11-20T00:00:00	2024-11-08T00:00:00	6	Velocidad del viento	3.2
20086	7	Sololá	712	San Antonio Palopó	9	San Antonio Palopo	11	Noviembre	2023-11-20T00:00:00	2024-11-08T00:00:00	7	Dirección del viento	3.22
20087	7	Sololá	712	San Antonio Palopó	9	San Antonio Palopo	11	Noviembre	2023-11-20T00:00:00	2024-11-08T00:00:00	1	Precipitación	0
20088	7	Sololá	712	San Antonio Palopó	9	San Antonio Palopo	11	Noviembre	2023-11-20T00:00:00	2024-11-08T00:00:00	8	Radiación solar	0
20089	7	Sololá	712	San Antonio Palopó	9	San Antonio Palopo	11	Noviembre	2023-11-20T00:00:00	2024-11-08T01:00:00	2	Temperatura media	17.4
20090	7	Sololá	712	San Antonio Palopó	9	San Antonio Palopo	11	Noviembre	2023-11-20T00:00:00	2024-11-08T01:00:00	4	Temperatura máxima	18
20091	7	Sololá	712	San Antonio Palopó	9	San Antonio Palopo	11	Noviembre	2023-11-20T00:00:00	2024-11-08T01:00:00	3	Temperatura mínima	17.3
20092	7	Sololá	712	San Antonio Palopó	9	San Antonio Palopo	11	Noviembre	2023-11-20T00:00:00	2024-11-08T01:00:00	5	Humedad	72
20093	7	Sololá	712	San Antonio Palopó	9	San Antonio Palopo	11	Noviembre	2023-11-20T00:00:00	2024-11-08T01:00:00	6	Velocidad del viento	1.6
20094	7	Sololá	712	San Antonio Palopó	9	San Antonio Palopo	11	Noviembre	2023-11-20T00:00:00	2024-11-08T01:00:00	7	Dirección del viento	1.61
20095	7	Sololá	712	San Antonio Palopó	9	San Antonio Palopo	11	Noviembre	2023-11-20T00:00:00	2024-11-08T01:00:00	1	Precipitación	0
20096	7	Sololá	712	San Antonio Palopó	9	San Antonio Palopo	11	Noviembre	2023-11-20T00:00:00	2024-11-08T01:00:00	8	Radiación solar	0
20097	7	Sololá	712	San Antonio Palopó	9	San Antonio Palopo	11	Noviembre	2023-11-20T00:00:00	2024-11-08T02:00:00	2	Temperatura media	17.2
20098	7	Sololá	712	San Antonio Palopó	9	San Antonio Palopo	11	Noviembre	2023-11-20T00:00:00	2024-11-08T02:00:00	4	Temperatura máxima	17.7
20099	7	Sololá	712	San Antonio Palopó	9	San Antonio Palopo	11	Noviembre	2023-11-20T00:00:00	2024-11-08T02:00:00	3	Temperatura mínima	17.2
20100	7	Sololá	712	San Antonio Palopó	9	San Antonio Palopo	11	Noviembre	2023-11-20T00:00:00	2024-11-08T02:00:00	5	Humedad	73
20101	7	Sololá	712	San Antonio Palopó	9	San Antonio Palopo	11	Noviembre	2023-11-20T00:00:00	2024-11-08T02:00:00	6	Velocidad del viento	3.2
20102	7	Sololá	712	San Antonio Palopó	9	San Antonio Palopo	11	Noviembre	2023-11-20T00:00:00	2024-11-08T02:00:00	7	Dirección del viento	3.22
20103	7	Sololá	712	San Antonio Palopó	9	San Antonio Palopo	11	Noviembre	2023-11-20T00:00:00	2024-11-08T02:00:00	1	Precipitación	0
20104	7	Sololá	712	San Antonio Palopó	9	San Antonio Palopo	11	Noviembre	2023-11-20T00:00:00	2024-11-08T02:00:00	8	Radiación solar	0
20105	7	Sololá	712	San Antonio Palopó	9	San Antonio Palopo	11	Noviembre	2023-11-20T00:00:00	2024-11-08T03:00:00	2	Temperatura media	16.4
20106	7	Sololá	712	San Antonio Palopó	9	San Antonio Palopo	11	Noviembre	2023-11-20T00:00:00	2024-11-08T03:00:00	4	Temperatura máxima	17.2
20107	7	Sololá	712	San Antonio Palopó	9	San Antonio Palopo	11	Noviembre	2023-11-20T00:00:00	2024-11-08T03:00:00	3	Temperatura mínima	16.2
20108	7	Sololá	712	San Antonio Palopó	9	San Antonio Palopo	11	Noviembre	2023-11-20T00:00:00	2024-11-08T03:00:00	5	Humedad	73
20109	7	Sololá	712	San Antonio Palopó	9	San Antonio Palopo	11	Noviembre	2023-11-20T00:00:00	2024-11-08T03:00:00	6	Velocidad del viento	3.2
20110	7	Sololá	712	San Antonio Palopó	9	San Antonio Palopo	11	Noviembre	2023-11-20T00:00:00	2024-11-08T03:00:00	7	Dirección del viento	3.22
20111	7	Sololá	712	San Antonio Palopó	9	San Antonio Palopo	11	Noviembre	2023-11-20T00:00:00	2024-11-08T03:00:00	1	Precipitación	0
20112	7	Sololá	712	San Antonio Palopó	9	San Antonio Palopo	11	Noviembre	2023-11-20T00:00:00	2024-11-08T03:00:00	8	Radiación solar	0
20113	7	Sololá	712	San Antonio Palopó	9	San Antonio Palopo	11	Noviembre	2023-11-20T00:00:00	2024-11-08T04:00:00	2	Temperatura media	15.8
20114	7	Sololá	712	San Antonio Palopó	9	San Antonio Palopo	11	Noviembre	2023-11-20T00:00:00	2024-11-08T04:00:00	4	Temperatura máxima	16.5
20115	7	Sololá	712	San Antonio Palopó	9	San Antonio Palopo	11	Noviembre	2023-11-20T00:00:00	2024-11-08T04:00:00	3	Temperatura mínima	15.8
20116	7	Sololá	712	San Antonio Palopó	9	San Antonio Palopo	11	Noviembre	2023-11-20T00:00:00	2024-11-08T04:00:00	5	Humedad	77
20117	7	Sololá	712	San Antonio Palopó	9	San Antonio Palopo	11	Noviembre	2023-11-20T00:00:00	2024-11-08T04:00:00	6	Velocidad del viento	4.8
20118	7	Sololá	712	San Antonio Palopó	9	San Antonio Palopo	11	Noviembre	2023-11-20T00:00:00	2024-11-08T04:00:00	7	Dirección del viento	4.83
20119	7	Sololá	712	San Antonio Palopó	9	San Antonio Palopo	11	Noviembre	2023-11-20T00:00:00	2024-11-08T04:00:00	1	Precipitación	0
20120	7	Sololá	712	San Antonio Palopó	9	San Antonio Palopo	11	Noviembre	2023-11-20T00:00:00	2024-11-08T04:00:00	8	Radiación solar	0
20121	7	Sololá	712	San Antonio Palopó	9	San Antonio Palopo	11	Noviembre	2023-11-20T00:00:00	2024-11-08T05:00:00	2	Temperatura media	15.6
20122	7	Sololá	712	San Antonio Palopó	9	San Antonio Palopo	11	Noviembre	2023-11-20T00:00:00	2024-11-08T05:00:00	4	Temperatura máxima	16.1
20123	7	Sololá	712	San Antonio Palopó	9	San Antonio Palopo	11	Noviembre	2023-11-20T00:00:00	2024-11-08T05:00:00	3	Temperatura mínima	15.6
20124	7	Sololá	712	San Antonio Palopó	9	San Antonio Palopo	11	Noviembre	2023-11-20T00:00:00	2024-11-08T05:00:00	5	Humedad	79
20125	7	Sololá	712	San Antonio Palopó	9	San Antonio Palopo	11	Noviembre	2023-11-20T00:00:00	2024-11-08T05:00:00	6	Velocidad del viento	4.8
20126	7	Sololá	712	San Antonio Palopó	9	San Antonio Palopo	11	Noviembre	2023-11-20T00:00:00	2024-11-08T05:00:00	7	Dirección del viento	4.83
20127	7	Sololá	712	San Antonio Palopó	9	San Antonio Palopo	11	Noviembre	2023-11-20T00:00:00	2024-11-08T05:00:00	1	Precipitación	0
20128	7	Sololá	712	San Antonio Palopó	9	San Antonio Palopo	11	Noviembre	2023-11-20T00:00:00	2024-11-08T05:00:00	8	Radiación solar	0
20129	7	Sololá	712	San Antonio Palopó	9	San Antonio Palopo	11	Noviembre	2023-11-20T00:00:00	2024-11-08T06:00:00	2	Temperatura media	14.8
20130	7	Sololá	712	San Antonio Palopó	9	San Antonio Palopo	11	Noviembre	2023-11-20T00:00:00	2024-11-08T06:00:00	4	Temperatura máxima	15.6
20131	7	Sololá	712	San Antonio Palopó	9	San Antonio Palopo	11	Noviembre	2023-11-20T00:00:00	2024-11-08T06:00:00	3	Temperatura mínima	14.8
20132	7	Sololá	712	San Antonio Palopó	9	San Antonio Palopo	11	Noviembre	2023-11-20T00:00:00	2024-11-08T06:00:00	5	Humedad	81
20133	7	Sololá	712	San Antonio Palopó	9	San Antonio Palopo	11	Noviembre	2023-11-20T00:00:00	2024-11-08T06:00:00	6	Velocidad del viento	3.2
20134	7	Sololá	712	San Antonio Palopó	9	San Antonio Palopo	11	Noviembre	2023-11-20T00:00:00	2024-11-08T06:00:00	7	Dirección del viento	3.22
20135	7	Sololá	712	San Antonio Palopó	9	San Antonio Palopo	11	Noviembre	2023-11-20T00:00:00	2024-11-08T06:00:00	1	Precipitación	0
20136	7	Sololá	712	San Antonio Palopó	9	San Antonio Palopo	11	Noviembre	2023-11-20T00:00:00	2024-11-08T06:00:00	8	Radiación solar	0
20137	7	Sololá	712	San Antonio Palopó	9	San Antonio Palopo	11	Noviembre	2023-11-20T00:00:00	2024-11-08T07:00:00	2	Temperatura media	14.9
20138	7	Sololá	712	San Antonio Palopó	9	San Antonio Palopo	11	Noviembre	2023-11-20T00:00:00	2024-11-08T07:00:00	4	Temperatura máxima	14.9
20139	7	Sololá	712	San Antonio Palopó	9	San Antonio Palopo	11	Noviembre	2023-11-20T00:00:00	2024-11-08T07:00:00	3	Temperatura mínima	14.7
20140	7	Sololá	712	San Antonio Palopó	9	San Antonio Palopo	11	Noviembre	2023-11-20T00:00:00	2024-11-08T07:00:00	5	Humedad	82
20141	7	Sololá	712	San Antonio Palopó	9	San Antonio Palopo	11	Noviembre	2023-11-20T00:00:00	2024-11-08T07:00:00	6	Velocidad del viento	4.8
20142	7	Sololá	712	San Antonio Palopó	9	San Antonio Palopo	11	Noviembre	2023-11-20T00:00:00	2024-11-08T07:00:00	7	Dirección del viento	4.83
20143	7	Sololá	712	San Antonio Palopó	9	San Antonio Palopo	11	Noviembre	2023-11-20T00:00:00	2024-11-08T07:00:00	1	Precipitación	0
20144	7	Sololá	712	San Antonio Palopó	9	San Antonio Palopo	11	Noviembre	2023-11-20T00:00:00	2024-11-08T07:00:00	8	Radiación solar	11
20145	7	Sololá	712	San Antonio Palopó	9	San Antonio Palopo	11	Noviembre	2023-11-20T00:00:00	2024-11-08T08:00:00	2	Temperatura media	15.1
20146	7	Sololá	712	San Antonio Palopó	9	San Antonio Palopo	11	Noviembre	2023-11-20T00:00:00	2024-11-08T08:00:00	4	Temperatura máxima	15.1
20147	7	Sololá	712	San Antonio Palopó	9	San Antonio Palopo	11	Noviembre	2023-11-20T00:00:00	2024-11-08T08:00:00	3	Temperatura mínima	14.9
20148	7	Sololá	712	San Antonio Palopó	9	San Antonio Palopo	11	Noviembre	2023-11-20T00:00:00	2024-11-08T08:00:00	5	Humedad	85
20149	7	Sololá	712	San Antonio Palopó	9	San Antonio Palopo	11	Noviembre	2023-11-20T00:00:00	2024-11-08T08:00:00	6	Velocidad del viento	3.2
20150	7	Sololá	712	San Antonio Palopó	9	San Antonio Palopo	11	Noviembre	2023-11-20T00:00:00	2024-11-08T08:00:00	7	Dirección del viento	3.22
20151	7	Sololá	712	San Antonio Palopó	9	San Antonio Palopo	11	Noviembre	2023-11-20T00:00:00	2024-11-08T08:00:00	1	Precipitación	0
20152	7	Sololá	712	San Antonio Palopó	9	San Antonio Palopo	11	Noviembre	2023-11-20T00:00:00	2024-11-08T08:00:00	8	Radiación solar	28
20153	7	Sololá	712	San Antonio Palopó	9	San Antonio Palopo	11	Noviembre	2023-11-20T00:00:00	2024-11-08T09:00:00	2	Temperatura media	18.7
20154	7	Sololá	712	San Antonio Palopó	9	San Antonio Palopo	11	Noviembre	2023-11-20T00:00:00	2024-11-08T09:00:00	4	Temperatura máxima	18.7
20155	7	Sololá	712	San Antonio Palopó	9	San Antonio Palopo	11	Noviembre	2023-11-20T00:00:00	2024-11-08T09:00:00	3	Temperatura mínima	15.1
20156	7	Sololá	712	San Antonio Palopó	9	San Antonio Palopo	11	Noviembre	2023-11-20T00:00:00	2024-11-08T09:00:00	5	Humedad	75
20157	7	Sololá	712	San Antonio Palopó	9	San Antonio Palopo	11	Noviembre	2023-11-20T00:00:00	2024-11-08T09:00:00	6	Velocidad del viento	3.2
20158	7	Sololá	712	San Antonio Palopó	9	San Antonio Palopo	11	Noviembre	2023-11-20T00:00:00	2024-11-08T09:00:00	7	Dirección del viento	3.22
20159	7	Sololá	712	San Antonio Palopó	9	San Antonio Palopo	11	Noviembre	2023-11-20T00:00:00	2024-11-08T09:00:00	1	Precipitación	0
20160	7	Sololá	712	San Antonio Palopó	9	San Antonio Palopo	11	Noviembre	2023-11-20T00:00:00	2024-11-08T09:00:00	8	Radiación solar	357
20161	7	Sololá	712	San Antonio Palopó	9	San Antonio Palopo	11	Noviembre	2023-11-20T00:00:00	2024-11-08T10:00:00	2	Temperatura media	19.6
20162	7	Sololá	712	San Antonio Palopó	9	San Antonio Palopo	11	Noviembre	2023-11-20T00:00:00	2024-11-08T10:00:00	4	Temperatura máxima	19.7
20163	7	Sololá	712	San Antonio Palopó	9	San Antonio Palopo	11	Noviembre	2023-11-20T00:00:00	2024-11-08T10:00:00	3	Temperatura mínima	18.7
20164	7	Sololá	712	San Antonio Palopó	9	San Antonio Palopo	11	Noviembre	2023-11-20T00:00:00	2024-11-08T10:00:00	5	Humedad	74
20165	7	Sololá	712	San Antonio Palopó	9	San Antonio Palopo	11	Noviembre	2023-11-20T00:00:00	2024-11-08T10:00:00	6	Velocidad del viento	3.2
20166	7	Sololá	712	San Antonio Palopó	9	San Antonio Palopo	11	Noviembre	2023-11-20T00:00:00	2024-11-08T10:00:00	7	Dirección del viento	3.22
20167	7	Sololá	712	San Antonio Palopó	9	San Antonio Palopo	11	Noviembre	2023-11-20T00:00:00	2024-11-08T10:00:00	1	Precipitación	0
20168	7	Sololá	712	San Antonio Palopó	9	San Antonio Palopo	11	Noviembre	2023-11-20T00:00:00	2024-11-08T10:00:00	8	Radiación solar	613
20169	7	Sololá	712	San Antonio Palopó	9	San Antonio Palopo	11	Noviembre	2023-11-20T00:00:00	2024-11-08T11:00:00	2	Temperatura media	21.4
20170	7	Sololá	712	San Antonio Palopó	9	San Antonio Palopo	11	Noviembre	2023-11-20T00:00:00	2024-11-08T11:00:00	4	Temperatura máxima	21.4
20171	7	Sololá	712	San Antonio Palopó	9	San Antonio Palopo	11	Noviembre	2023-11-20T00:00:00	2024-11-08T11:00:00	3	Temperatura mínima	19.7
20172	7	Sololá	712	San Antonio Palopó	9	San Antonio Palopo	11	Noviembre	2023-11-20T00:00:00	2024-11-08T11:00:00	5	Humedad	67
20173	7	Sololá	712	San Antonio Palopó	9	San Antonio Palopo	11	Noviembre	2023-11-20T00:00:00	2024-11-08T11:00:00	6	Velocidad del viento	1.6
20174	7	Sololá	712	San Antonio Palopó	9	San Antonio Palopo	11	Noviembre	2023-11-20T00:00:00	2024-11-08T11:00:00	7	Dirección del viento	1.61
20175	7	Sololá	712	San Antonio Palopó	9	San Antonio Palopo	11	Noviembre	2023-11-20T00:00:00	2024-11-08T11:00:00	1	Precipitación	0
20176	7	Sololá	712	San Antonio Palopó	9	San Antonio Palopo	11	Noviembre	2023-11-20T00:00:00	2024-11-08T11:00:00	8	Radiación solar	739
20177	7	Sololá	712	San Antonio Palopó	9	San Antonio Palopo	11	Noviembre	2023-11-20T00:00:00	2024-11-08T12:00:00	2	Temperatura media	22.1
20178	7	Sololá	712	San Antonio Palopó	9	San Antonio Palopo	11	Noviembre	2023-11-20T00:00:00	2024-11-08T12:00:00	4	Temperatura máxima	22.1
20179	7	Sololá	712	San Antonio Palopó	9	San Antonio Palopo	11	Noviembre	2023-11-20T00:00:00	2024-11-08T12:00:00	3	Temperatura mínima	21.2
20180	7	Sololá	712	San Antonio Palopó	9	San Antonio Palopo	11	Noviembre	2023-11-20T00:00:00	2024-11-08T12:00:00	5	Humedad	72
20181	7	Sololá	712	San Antonio Palopó	9	San Antonio Palopo	11	Noviembre	2023-11-20T00:00:00	2024-11-08T12:00:00	6	Velocidad del viento	4.8
20182	7	Sololá	712	San Antonio Palopó	9	San Antonio Palopo	11	Noviembre	2023-11-20T00:00:00	2024-11-08T12:00:00	7	Dirección del viento	4.83
20183	7	Sololá	712	San Antonio Palopó	9	San Antonio Palopo	11	Noviembre	2023-11-20T00:00:00	2024-11-08T12:00:00	1	Precipitación	0
20184	7	Sololá	712	San Antonio Palopó	9	San Antonio Palopo	11	Noviembre	2023-11-20T00:00:00	2024-11-08T12:00:00	8	Radiación solar	702
20185	7	Sololá	712	San Antonio Palopó	9	San Antonio Palopo	11	Noviembre	2023-11-20T00:00:00	2024-11-08T13:00:00	2	Temperatura media	22.8
20186	7	Sololá	712	San Antonio Palopó	9	San Antonio Palopo	11	Noviembre	2023-11-20T00:00:00	2024-11-08T13:00:00	4	Temperatura máxima	22.9
20187	7	Sololá	712	San Antonio Palopó	9	San Antonio Palopo	11	Noviembre	2023-11-20T00:00:00	2024-11-08T13:00:00	3	Temperatura mínima	21.9
20188	7	Sololá	712	San Antonio Palopó	9	San Antonio Palopo	11	Noviembre	2023-11-20T00:00:00	2024-11-08T13:00:00	5	Humedad	68
20189	7	Sololá	712	San Antonio Palopó	9	San Antonio Palopo	11	Noviembre	2023-11-20T00:00:00	2024-11-08T13:00:00	6	Velocidad del viento	8
20190	7	Sololá	712	San Antonio Palopó	9	San Antonio Palopo	11	Noviembre	2023-11-20T00:00:00	2024-11-08T13:00:00	7	Dirección del viento	8.05
20191	7	Sololá	712	San Antonio Palopó	9	San Antonio Palopo	11	Noviembre	2023-11-20T00:00:00	2024-11-08T13:00:00	1	Precipitación	0
20192	7	Sololá	712	San Antonio Palopó	9	San Antonio Palopo	11	Noviembre	2023-11-20T00:00:00	2024-11-08T13:00:00	8	Radiación solar	787
20193	7	Sololá	712	San Antonio Palopó	9	San Antonio Palopo	11	Noviembre	2023-11-20T00:00:00	2024-11-08T14:00:00	2	Temperatura media	23.2
20194	7	Sololá	712	San Antonio Palopó	9	San Antonio Palopo	11	Noviembre	2023-11-20T00:00:00	2024-11-08T14:00:00	4	Temperatura máxima	23.2
20195	7	Sololá	712	San Antonio Palopó	9	San Antonio Palopo	11	Noviembre	2023-11-20T00:00:00	2024-11-08T14:00:00	3	Temperatura mínima	22.7
20196	7	Sololá	712	San Antonio Palopó	9	San Antonio Palopo	11	Noviembre	2023-11-20T00:00:00	2024-11-08T14:00:00	5	Humedad	68
20197	7	Sololá	712	San Antonio Palopó	9	San Antonio Palopo	11	Noviembre	2023-11-20T00:00:00	2024-11-08T14:00:00	6	Velocidad del viento	8
20198	7	Sololá	712	San Antonio Palopó	9	San Antonio Palopo	11	Noviembre	2023-11-20T00:00:00	2024-11-08T14:00:00	7	Dirección del viento	8.05
20199	7	Sololá	712	San Antonio Palopó	9	San Antonio Palopo	11	Noviembre	2023-11-20T00:00:00	2024-11-08T14:00:00	1	Precipitación	0
20200	7	Sololá	712	San Antonio Palopó	9	San Antonio Palopo	11	Noviembre	2023-11-20T00:00:00	2024-11-08T14:00:00	8	Radiación solar	703
20201	7	Sololá	712	San Antonio Palopó	9	San Antonio Palopo	11	Noviembre	2023-11-20T00:00:00	2024-11-08T15:00:00	2	Temperatura media	22.6
20202	7	Sololá	712	San Antonio Palopó	9	San Antonio Palopo	11	Noviembre	2023-11-20T00:00:00	2024-11-08T15:00:00	4	Temperatura máxima	23.2
20203	7	Sololá	712	San Antonio Palopó	9	San Antonio Palopo	11	Noviembre	2023-11-20T00:00:00	2024-11-08T15:00:00	3	Temperatura mínima	22.5
20204	7	Sololá	712	San Antonio Palopó	9	San Antonio Palopo	11	Noviembre	2023-11-20T00:00:00	2024-11-08T15:00:00	5	Humedad	74
20205	7	Sololá	712	San Antonio Palopó	9	San Antonio Palopo	11	Noviembre	2023-11-20T00:00:00	2024-11-08T15:00:00	6	Velocidad del viento	8
20206	7	Sololá	712	San Antonio Palopó	9	San Antonio Palopo	11	Noviembre	2023-11-20T00:00:00	2024-11-08T15:00:00	7	Dirección del viento	8.05
20207	7	Sololá	712	San Antonio Palopó	9	San Antonio Palopo	11	Noviembre	2023-11-20T00:00:00	2024-11-08T15:00:00	1	Precipitación	0
20208	7	Sololá	712	San Antonio Palopó	9	San Antonio Palopo	11	Noviembre	2023-11-20T00:00:00	2024-11-08T15:00:00	8	Radiación solar	557
20209	7	Sololá	712	San Antonio Palopó	9	San Antonio Palopo	11	Noviembre	2023-11-20T00:00:00	2024-11-08T16:00:00	2	Temperatura media	22.1
20210	7	Sololá	712	San Antonio Palopó	9	San Antonio Palopo	11	Noviembre	2023-11-20T00:00:00	2024-11-08T16:00:00	4	Temperatura máxima	22.7
20211	7	Sololá	712	San Antonio Palopó	9	San Antonio Palopo	11	Noviembre	2023-11-20T00:00:00	2024-11-08T16:00:00	3	Temperatura mínima	21.8
20212	7	Sololá	712	San Antonio Palopó	9	San Antonio Palopo	11	Noviembre	2023-11-20T00:00:00	2024-11-08T16:00:00	5	Humedad	74
20213	7	Sololá	712	San Antonio Palopó	9	San Antonio Palopo	11	Noviembre	2023-11-20T00:00:00	2024-11-08T16:00:00	6	Velocidad del viento	8
20214	7	Sololá	712	San Antonio Palopó	9	San Antonio Palopo	11	Noviembre	2023-11-20T00:00:00	2024-11-08T16:00:00	7	Dirección del viento	8.05
20215	7	Sololá	712	San Antonio Palopó	9	San Antonio Palopo	11	Noviembre	2023-11-20T00:00:00	2024-11-08T16:00:00	1	Precipitación	0
20216	7	Sololá	712	San Antonio Palopó	9	San Antonio Palopo	11	Noviembre	2023-11-20T00:00:00	2024-11-08T16:00:00	8	Radiación solar	376
20217	7	Sololá	712	San Antonio Palopó	9	San Antonio Palopo	11	Noviembre	2023-11-20T00:00:00	2024-11-08T17:00:00	2	Temperatura media	20.2
20218	7	Sololá	712	San Antonio Palopó	9	San Antonio Palopo	11	Noviembre	2023-11-20T00:00:00	2024-11-08T17:00:00	4	Temperatura máxima	22.4
20219	7	Sololá	712	San Antonio Palopó	9	San Antonio Palopo	11	Noviembre	2023-11-20T00:00:00	2024-11-08T17:00:00	3	Temperatura mínima	20.2
20220	7	Sololá	712	San Antonio Palopó	9	San Antonio Palopo	11	Noviembre	2023-11-20T00:00:00	2024-11-08T17:00:00	5	Humedad	81
20221	7	Sololá	712	San Antonio Palopó	9	San Antonio Palopo	11	Noviembre	2023-11-20T00:00:00	2024-11-08T17:00:00	6	Velocidad del viento	4.8
20222	7	Sololá	712	San Antonio Palopó	9	San Antonio Palopo	11	Noviembre	2023-11-20T00:00:00	2024-11-08T17:00:00	7	Dirección del viento	4.83
20223	7	Sololá	712	San Antonio Palopó	9	San Antonio Palopo	11	Noviembre	2023-11-20T00:00:00	2024-11-08T17:00:00	1	Precipitación	0
20224	7	Sololá	712	San Antonio Palopó	9	San Antonio Palopo	11	Noviembre	2023-11-20T00:00:00	2024-11-08T17:00:00	8	Radiación solar	148
20225	7	Sololá	712	San Antonio Palopó	9	San Antonio Palopo	11	Noviembre	2023-11-20T00:00:00	2024-11-08T18:00:00	2	Temperatura media	19.8
20226	7	Sololá	712	San Antonio Palopó	9	San Antonio Palopo	11	Noviembre	2023-11-20T00:00:00	2024-11-08T18:00:00	4	Temperatura máxima	20.2
20227	7	Sololá	712	San Antonio Palopó	9	San Antonio Palopo	11	Noviembre	2023-11-20T00:00:00	2024-11-08T18:00:00	3	Temperatura mínima	19.8
20228	7	Sololá	712	San Antonio Palopó	9	San Antonio Palopo	11	Noviembre	2023-11-20T00:00:00	2024-11-08T18:00:00	5	Humedad	81
20229	7	Sololá	712	San Antonio Palopó	9	San Antonio Palopo	11	Noviembre	2023-11-20T00:00:00	2024-11-08T18:00:00	6	Velocidad del viento	4.8
20230	7	Sololá	712	San Antonio Palopó	9	San Antonio Palopo	11	Noviembre	2023-11-20T00:00:00	2024-11-08T18:00:00	7	Dirección del viento	4.83
20231	7	Sololá	712	San Antonio Palopó	9	San Antonio Palopo	11	Noviembre	2023-11-20T00:00:00	2024-11-08T18:00:00	1	Precipitación	0
20232	7	Sololá	712	San Antonio Palopó	9	San Antonio Palopo	11	Noviembre	2023-11-20T00:00:00	2024-11-08T18:00:00	8	Radiación solar	6
20233	7	Sololá	712	San Antonio Palopó	9	San Antonio Palopo	11	Noviembre	2023-11-20T00:00:00	2024-11-08T19:00:00	2	Temperatura media	19.3
20234	7	Sololá	712	San Antonio Palopó	9	San Antonio Palopo	11	Noviembre	2023-11-20T00:00:00	2024-11-08T19:00:00	4	Temperatura máxima	19.8
20235	7	Sololá	712	San Antonio Palopó	9	San Antonio Palopo	11	Noviembre	2023-11-20T00:00:00	2024-11-08T19:00:00	3	Temperatura mínima	19.3
20236	7	Sololá	712	San Antonio Palopó	9	San Antonio Palopo	11	Noviembre	2023-11-20T00:00:00	2024-11-08T19:00:00	5	Humedad	81
20237	7	Sololá	712	San Antonio Palopó	9	San Antonio Palopo	11	Noviembre	2023-11-20T00:00:00	2024-11-08T19:00:00	6	Velocidad del viento	1.6
20238	7	Sololá	712	San Antonio Palopó	9	San Antonio Palopo	11	Noviembre	2023-11-20T00:00:00	2024-11-08T19:00:00	7	Dirección del viento	1.61
20239	7	Sololá	712	San Antonio Palopó	9	San Antonio Palopo	11	Noviembre	2023-11-20T00:00:00	2024-11-08T19:00:00	1	Precipitación	0
20240	7	Sololá	712	San Antonio Palopó	9	San Antonio Palopo	11	Noviembre	2023-11-20T00:00:00	2024-11-08T19:00:00	8	Radiación solar	0
20241	7	Sololá	712	San Antonio Palopó	9	San Antonio Palopo	11	Noviembre	2023-11-20T00:00:00	2024-11-08T20:00:00	2	Temperatura media	18.4
20242	7	Sololá	712	San Antonio Palopó	9	San Antonio Palopo	11	Noviembre	2023-11-20T00:00:00	2024-11-08T20:00:00	4	Temperatura máxima	19.4
20243	7	Sololá	712	San Antonio Palopó	9	San Antonio Palopo	11	Noviembre	2023-11-20T00:00:00	2024-11-08T20:00:00	3	Temperatura mínima	18.4
20244	7	Sololá	712	San Antonio Palopó	9	San Antonio Palopo	11	Noviembre	2023-11-20T00:00:00	2024-11-08T20:00:00	5	Humedad	81
20245	7	Sololá	712	San Antonio Palopó	9	San Antonio Palopo	11	Noviembre	2023-11-20T00:00:00	2024-11-08T20:00:00	6	Velocidad del viento	1.6
20246	7	Sololá	712	San Antonio Palopó	9	San Antonio Palopo	11	Noviembre	2023-11-20T00:00:00	2024-11-08T20:00:00	7	Dirección del viento	1.61
20247	7	Sololá	712	San Antonio Palopó	9	San Antonio Palopo	11	Noviembre	2023-11-20T00:00:00	2024-11-08T20:00:00	1	Precipitación	0
20248	7	Sololá	712	San Antonio Palopó	9	San Antonio Palopo	11	Noviembre	2023-11-20T00:00:00	2024-11-08T20:00:00	8	Radiación solar	0
20249	7	Sololá	712	San Antonio Palopó	9	San Antonio Palopo	11	Noviembre	2023-11-20T00:00:00	2024-11-08T21:00:00	2	Temperatura media	18.4
20250	7	Sololá	712	San Antonio Palopó	9	San Antonio Palopo	11	Noviembre	2023-11-20T00:00:00	2024-11-08T21:00:00	4	Temperatura máxima	18.4
20251	7	Sololá	712	San Antonio Palopó	9	San Antonio Palopo	11	Noviembre	2023-11-20T00:00:00	2024-11-08T21:00:00	3	Temperatura mínima	18.1
20252	7	Sololá	712	San Antonio Palopó	9	San Antonio Palopo	11	Noviembre	2023-11-20T00:00:00	2024-11-08T21:00:00	5	Humedad	82
20253	7	Sololá	712	San Antonio Palopó	9	San Antonio Palopo	11	Noviembre	2023-11-20T00:00:00	2024-11-08T21:00:00	6	Velocidad del viento	1.6
20254	7	Sololá	712	San Antonio Palopó	9	San Antonio Palopo	11	Noviembre	2023-11-20T00:00:00	2024-11-08T21:00:00	7	Dirección del viento	1.61
20255	7	Sololá	712	San Antonio Palopó	9	San Antonio Palopo	11	Noviembre	2023-11-20T00:00:00	2024-11-08T21:00:00	1	Precipitación	0
20256	7	Sololá	712	San Antonio Palopó	9	San Antonio Palopo	11	Noviembre	2023-11-20T00:00:00	2024-11-08T21:00:00	8	Radiación solar	0
20257	7	Sololá	712	San Antonio Palopó	9	San Antonio Palopo	11	Noviembre	2023-11-20T00:00:00	2024-11-08T22:00:00	2	Temperatura media	18.9
20258	7	Sololá	712	San Antonio Palopó	9	San Antonio Palopo	11	Noviembre	2023-11-20T00:00:00	2024-11-08T22:00:00	4	Temperatura máxima	18.9
20259	7	Sololá	712	San Antonio Palopó	9	San Antonio Palopo	11	Noviembre	2023-11-20T00:00:00	2024-11-08T22:00:00	3	Temperatura mínima	18.4
20260	7	Sololá	712	San Antonio Palopó	9	San Antonio Palopo	11	Noviembre	2023-11-20T00:00:00	2024-11-08T22:00:00	5	Humedad	83
20261	7	Sololá	712	San Antonio Palopó	9	San Antonio Palopo	11	Noviembre	2023-11-20T00:00:00	2024-11-08T22:00:00	6	Velocidad del viento	1.6
20262	7	Sololá	712	San Antonio Palopó	9	San Antonio Palopo	11	Noviembre	2023-11-20T00:00:00	2024-11-08T22:00:00	7	Dirección del viento	1.61
20263	7	Sololá	712	San Antonio Palopó	9	San Antonio Palopo	11	Noviembre	2023-11-20T00:00:00	2024-11-08T22:00:00	1	Precipitación	0
20264	7	Sololá	712	San Antonio Palopó	9	San Antonio Palopo	11	Noviembre	2023-11-20T00:00:00	2024-11-08T22:00:00	8	Radiación solar	0
20265	7	Sololá	712	San Antonio Palopó	9	San Antonio Palopo	11	Noviembre	2023-11-20T00:00:00	2024-11-08T23:00:00	2	Temperatura media	18.7
20266	7	Sololá	712	San Antonio Palopó	9	San Antonio Palopo	11	Noviembre	2023-11-20T00:00:00	2024-11-08T23:00:00	4	Temperatura máxima	19
20267	7	Sololá	712	San Antonio Palopó	9	San Antonio Palopo	11	Noviembre	2023-11-20T00:00:00	2024-11-08T23:00:00	3	Temperatura mínima	18.7
20268	7	Sololá	712	San Antonio Palopó	9	San Antonio Palopo	11	Noviembre	2023-11-20T00:00:00	2024-11-08T23:00:00	5	Humedad	82
20269	7	Sololá	712	San Antonio Palopó	9	San Antonio Palopo	11	Noviembre	2023-11-20T00:00:00	2024-11-08T23:00:00	6	Velocidad del viento	4.8
20270	7	Sololá	712	San Antonio Palopó	9	San Antonio Palopo	11	Noviembre	2023-11-20T00:00:00	2024-11-08T23:00:00	7	Dirección del viento	4.83
20271	7	Sololá	712	San Antonio Palopó	9	San Antonio Palopo	11	Noviembre	2023-11-20T00:00:00	2024-11-08T23:00:00	1	Precipitación	0
20272	7	Sololá	712	San Antonio Palopó	9	San Antonio Palopo	11	Noviembre	2023-11-20T00:00:00	2024-11-08T23:00:00	8	Radiación solar	0
20273	7	Sololá	712	San Antonio Palopó	9	San Antonio Palopo	11	Noviembre	2023-11-21T00:00:00	2024-11-08T00:00:00	2	Temperatura media	18.4
20274	7	Sololá	712	San Antonio Palopó	9	San Antonio Palopo	11	Noviembre	2023-11-21T00:00:00	2024-11-08T00:00:00	4	Temperatura máxima	18.8
20275	7	Sololá	712	San Antonio Palopó	9	San Antonio Palopo	11	Noviembre	2023-11-21T00:00:00	2024-11-08T00:00:00	3	Temperatura mínima	18.4
20276	7	Sololá	712	San Antonio Palopó	9	San Antonio Palopo	11	Noviembre	2023-11-21T00:00:00	2024-11-08T00:00:00	5	Humedad	84
20277	7	Sololá	712	San Antonio Palopó	9	San Antonio Palopo	11	Noviembre	2023-11-21T00:00:00	2024-11-08T00:00:00	6	Velocidad del viento	1.6
20278	7	Sololá	712	San Antonio Palopó	9	San Antonio Palopo	11	Noviembre	2023-11-21T00:00:00	2024-11-08T00:00:00	7	Dirección del viento	1.61
20279	7	Sololá	712	San Antonio Palopó	9	San Antonio Palopo	11	Noviembre	2023-11-21T00:00:00	2024-11-08T00:00:00	1	Precipitación	0
20280	7	Sololá	712	San Antonio Palopó	9	San Antonio Palopo	11	Noviembre	2023-11-21T00:00:00	2024-11-08T00:00:00	8	Radiación solar	0
20281	7	Sololá	712	San Antonio Palopó	9	San Antonio Palopo	11	Noviembre	2023-11-21T00:00:00	2024-11-08T01:00:00	2	Temperatura media	17.8
20282	7	Sololá	712	San Antonio Palopó	9	San Antonio Palopo	11	Noviembre	2023-11-21T00:00:00	2024-11-08T01:00:00	4	Temperatura máxima	18.4
20283	7	Sololá	712	San Antonio Palopó	9	San Antonio Palopo	11	Noviembre	2023-11-21T00:00:00	2024-11-08T01:00:00	3	Temperatura mínima	17.8
20284	7	Sololá	712	San Antonio Palopó	9	San Antonio Palopo	11	Noviembre	2023-11-21T00:00:00	2024-11-08T01:00:00	5	Humedad	85
20285	7	Sololá	712	San Antonio Palopó	9	San Antonio Palopo	11	Noviembre	2023-11-21T00:00:00	2024-11-08T01:00:00	6	Velocidad del viento	1.6
20286	7	Sololá	712	San Antonio Palopó	9	San Antonio Palopo	11	Noviembre	2023-11-21T00:00:00	2024-11-08T01:00:00	7	Dirección del viento	1.61
20287	7	Sololá	712	San Antonio Palopó	9	San Antonio Palopo	11	Noviembre	2023-11-21T00:00:00	2024-11-08T01:00:00	1	Precipitación	0
20288	7	Sololá	712	San Antonio Palopó	9	San Antonio Palopo	11	Noviembre	2023-11-21T00:00:00	2024-11-08T01:00:00	8	Radiación solar	0
20289	7	Sololá	712	San Antonio Palopó	9	San Antonio Palopo	11	Noviembre	2023-11-21T00:00:00	2024-11-08T02:00:00	2	Temperatura media	17.4
20290	7	Sololá	712	San Antonio Palopó	9	San Antonio Palopo	11	Noviembre	2023-11-21T00:00:00	2024-11-08T02:00:00	4	Temperatura máxima	17.8
20291	7	Sololá	712	San Antonio Palopó	9	San Antonio Palopo	11	Noviembre	2023-11-21T00:00:00	2024-11-08T02:00:00	3	Temperatura mínima	17.4
20292	7	Sololá	712	San Antonio Palopó	9	San Antonio Palopo	11	Noviembre	2023-11-21T00:00:00	2024-11-08T02:00:00	5	Humedad	83
20293	7	Sololá	712	San Antonio Palopó	9	San Antonio Palopo	11	Noviembre	2023-11-21T00:00:00	2024-11-08T02:00:00	6	Velocidad del viento	1.6
20294	7	Sololá	712	San Antonio Palopó	9	San Antonio Palopo	11	Noviembre	2023-11-21T00:00:00	2024-11-08T02:00:00	7	Dirección del viento	1.61
20295	7	Sololá	712	San Antonio Palopó	9	San Antonio Palopo	11	Noviembre	2023-11-21T00:00:00	2024-11-08T02:00:00	1	Precipitación	0
20296	7	Sololá	712	San Antonio Palopó	9	San Antonio Palopo	11	Noviembre	2023-11-21T00:00:00	2024-11-08T02:00:00	8	Radiación solar	0
20297	7	Sololá	712	San Antonio Palopó	9	San Antonio Palopo	11	Noviembre	2023-11-21T00:00:00	2024-11-08T03:00:00	2	Temperatura media	17.2
20298	7	Sololá	712	San Antonio Palopó	9	San Antonio Palopo	11	Noviembre	2023-11-21T00:00:00	2024-11-08T03:00:00	4	Temperatura máxima	17.5
20299	7	Sololá	712	San Antonio Palopó	9	San Antonio Palopo	11	Noviembre	2023-11-21T00:00:00	2024-11-08T03:00:00	3	Temperatura mínima	17
20300	7	Sololá	712	San Antonio Palopó	9	San Antonio Palopo	11	Noviembre	2023-11-21T00:00:00	2024-11-08T03:00:00	5	Humedad	82
20301	7	Sololá	712	San Antonio Palopó	9	San Antonio Palopo	11	Noviembre	2023-11-21T00:00:00	2024-11-08T03:00:00	6	Velocidad del viento	3.2
20302	7	Sololá	712	San Antonio Palopó	9	San Antonio Palopo	11	Noviembre	2023-11-21T00:00:00	2024-11-08T03:00:00	7	Dirección del viento	3.22
20303	7	Sololá	712	San Antonio Palopó	9	San Antonio Palopo	11	Noviembre	2023-11-21T00:00:00	2024-11-08T03:00:00	1	Precipitación	0
20304	7	Sololá	712	San Antonio Palopó	9	San Antonio Palopo	11	Noviembre	2023-11-21T00:00:00	2024-11-08T03:00:00	8	Radiación solar	0
20305	7	Sololá	712	San Antonio Palopó	9	San Antonio Palopo	11	Noviembre	2023-11-21T00:00:00	2024-11-08T04:00:00	2	Temperatura media	16.5
20306	7	Sololá	712	San Antonio Palopó	9	San Antonio Palopo	11	Noviembre	2023-11-21T00:00:00	2024-11-08T04:00:00	4	Temperatura máxima	17.2
20307	7	Sololá	712	San Antonio Palopó	9	San Antonio Palopo	11	Noviembre	2023-11-21T00:00:00	2024-11-08T04:00:00	3	Temperatura mínima	16.5
20308	7	Sololá	712	San Antonio Palopó	9	San Antonio Palopo	11	Noviembre	2023-11-21T00:00:00	2024-11-08T04:00:00	5	Humedad	79
20309	7	Sololá	712	San Antonio Palopó	9	San Antonio Palopo	11	Noviembre	2023-11-21T00:00:00	2024-11-08T04:00:00	6	Velocidad del viento	3.2
20310	7	Sololá	712	San Antonio Palopó	9	San Antonio Palopo	11	Noviembre	2023-11-21T00:00:00	2024-11-08T04:00:00	7	Dirección del viento	3.22
20311	7	Sololá	712	San Antonio Palopó	9	San Antonio Palopo	11	Noviembre	2023-11-21T00:00:00	2024-11-08T04:00:00	1	Precipitación	0
20312	7	Sololá	712	San Antonio Palopó	9	San Antonio Palopo	11	Noviembre	2023-11-21T00:00:00	2024-11-08T04:00:00	8	Radiación solar	0
20313	7	Sololá	712	San Antonio Palopó	9	San Antonio Palopo	11	Noviembre	2023-11-21T00:00:00	2024-11-08T05:00:00	2	Temperatura media	15.6
20314	7	Sololá	712	San Antonio Palopó	9	San Antonio Palopo	11	Noviembre	2023-11-21T00:00:00	2024-11-08T05:00:00	4	Temperatura máxima	16.6
20315	7	Sololá	712	San Antonio Palopó	9	San Antonio Palopo	11	Noviembre	2023-11-21T00:00:00	2024-11-08T05:00:00	3	Temperatura mínima	15.6
20316	7	Sololá	712	San Antonio Palopó	9	San Antonio Palopo	11	Noviembre	2023-11-21T00:00:00	2024-11-08T05:00:00	5	Humedad	81
20317	7	Sololá	712	San Antonio Palopó	9	San Antonio Palopo	11	Noviembre	2023-11-21T00:00:00	2024-11-08T05:00:00	6	Velocidad del viento	3.2
20318	7	Sololá	712	San Antonio Palopó	9	San Antonio Palopo	11	Noviembre	2023-11-21T00:00:00	2024-11-08T05:00:00	7	Dirección del viento	3.22
20319	7	Sololá	712	San Antonio Palopó	9	San Antonio Palopo	11	Noviembre	2023-11-21T00:00:00	2024-11-08T05:00:00	1	Precipitación	0
20320	7	Sololá	712	San Antonio Palopó	9	San Antonio Palopo	11	Noviembre	2023-11-21T00:00:00	2024-11-08T05:00:00	8	Radiación solar	0
20321	7	Sololá	712	San Antonio Palopó	9	San Antonio Palopo	11	Noviembre	2023-11-21T00:00:00	2024-11-08T06:00:00	2	Temperatura media	15.4
20322	7	Sololá	712	San Antonio Palopó	9	San Antonio Palopo	11	Noviembre	2023-11-21T00:00:00	2024-11-08T06:00:00	4	Temperatura máxima	15.6
20323	7	Sololá	712	San Antonio Palopó	9	San Antonio Palopo	11	Noviembre	2023-11-21T00:00:00	2024-11-08T06:00:00	3	Temperatura mínima	15.3
20324	7	Sololá	712	San Antonio Palopó	9	San Antonio Palopo	11	Noviembre	2023-11-21T00:00:00	2024-11-08T06:00:00	5	Humedad	83
20325	7	Sololá	712	San Antonio Palopó	9	San Antonio Palopo	11	Noviembre	2023-11-21T00:00:00	2024-11-08T06:00:00	6	Velocidad del viento	3.2
20326	7	Sololá	712	San Antonio Palopó	9	San Antonio Palopo	11	Noviembre	2023-11-21T00:00:00	2024-11-08T06:00:00	7	Dirección del viento	3.22
20327	7	Sololá	712	San Antonio Palopó	9	San Antonio Palopo	11	Noviembre	2023-11-21T00:00:00	2024-11-08T06:00:00	1	Precipitación	0
20328	7	Sololá	712	San Antonio Palopó	9	San Antonio Palopo	11	Noviembre	2023-11-21T00:00:00	2024-11-08T06:00:00	8	Radiación solar	0
20329	7	Sololá	712	San Antonio Palopó	9	San Antonio Palopo	11	Noviembre	2023-11-21T00:00:00	2024-11-08T07:00:00	2	Temperatura media	16.2
20330	7	Sololá	712	San Antonio Palopó	9	San Antonio Palopo	11	Noviembre	2023-11-21T00:00:00	2024-11-08T07:00:00	4	Temperatura máxima	16.3
20331	7	Sololá	712	San Antonio Palopó	9	San Antonio Palopo	11	Noviembre	2023-11-21T00:00:00	2024-11-08T07:00:00	3	Temperatura mínima	15.1
20332	7	Sololá	712	San Antonio Palopó	9	San Antonio Palopo	11	Noviembre	2023-11-21T00:00:00	2024-11-08T07:00:00	5	Humedad	78
20333	7	Sololá	712	San Antonio Palopó	9	San Antonio Palopo	11	Noviembre	2023-11-21T00:00:00	2024-11-08T07:00:00	6	Velocidad del viento	3.2
20334	7	Sololá	712	San Antonio Palopó	9	San Antonio Palopo	11	Noviembre	2023-11-21T00:00:00	2024-11-08T07:00:00	7	Dirección del viento	3.22
20335	7	Sololá	712	San Antonio Palopó	9	San Antonio Palopo	11	Noviembre	2023-11-21T00:00:00	2024-11-08T07:00:00	1	Precipitación	0
20336	7	Sololá	712	San Antonio Palopó	9	San Antonio Palopo	11	Noviembre	2023-11-21T00:00:00	2024-11-08T07:00:00	8	Radiación solar	11
20337	7	Sololá	712	San Antonio Palopó	9	San Antonio Palopo	11	Noviembre	2023-11-21T00:00:00	2024-11-08T08:00:00	2	Temperatura media	15.6
20338	7	Sololá	712	San Antonio Palopó	9	San Antonio Palopo	11	Noviembre	2023-11-21T00:00:00	2024-11-08T08:00:00	4	Temperatura máxima	16.2
20339	7	Sololá	712	San Antonio Palopó	9	San Antonio Palopo	11	Noviembre	2023-11-21T00:00:00	2024-11-08T08:00:00	3	Temperatura mínima	15.4
20340	7	Sololá	712	San Antonio Palopó	9	San Antonio Palopo	11	Noviembre	2023-11-21T00:00:00	2024-11-08T08:00:00	5	Humedad	83
20341	7	Sololá	712	San Antonio Palopó	9	San Antonio Palopo	11	Noviembre	2023-11-21T00:00:00	2024-11-08T08:00:00	6	Velocidad del viento	4.8
20342	7	Sololá	712	San Antonio Palopó	9	San Antonio Palopo	11	Noviembre	2023-11-21T00:00:00	2024-11-08T08:00:00	7	Dirección del viento	4.83
20343	7	Sololá	712	San Antonio Palopó	9	San Antonio Palopo	11	Noviembre	2023-11-21T00:00:00	2024-11-08T08:00:00	1	Precipitación	0
20344	7	Sololá	712	San Antonio Palopó	9	San Antonio Palopo	11	Noviembre	2023-11-21T00:00:00	2024-11-08T08:00:00	8	Radiación solar	27
20345	7	Sololá	712	San Antonio Palopó	9	San Antonio Palopo	11	Noviembre	2023-11-21T00:00:00	2024-11-08T09:00:00	2	Temperatura media	19
20346	7	Sololá	712	San Antonio Palopó	9	San Antonio Palopo	11	Noviembre	2023-11-21T00:00:00	2024-11-08T09:00:00	4	Temperatura máxima	19
20347	7	Sololá	712	San Antonio Palopó	9	San Antonio Palopo	11	Noviembre	2023-11-21T00:00:00	2024-11-08T09:00:00	3	Temperatura mínima	15.4
20348	7	Sololá	712	San Antonio Palopó	9	San Antonio Palopo	11	Noviembre	2023-11-21T00:00:00	2024-11-08T09:00:00	5	Humedad	75
20349	7	Sololá	712	San Antonio Palopó	9	San Antonio Palopo	11	Noviembre	2023-11-21T00:00:00	2024-11-08T09:00:00	6	Velocidad del viento	3.2
20350	7	Sololá	712	San Antonio Palopó	9	San Antonio Palopo	11	Noviembre	2023-11-21T00:00:00	2024-11-08T09:00:00	7	Dirección del viento	3.22
20351	7	Sololá	712	San Antonio Palopó	9	San Antonio Palopo	11	Noviembre	2023-11-21T00:00:00	2024-11-08T09:00:00	1	Precipitación	0
20352	7	Sololá	712	San Antonio Palopó	9	San Antonio Palopo	11	Noviembre	2023-11-21T00:00:00	2024-11-08T09:00:00	8	Radiación solar	339
20353	7	Sololá	712	San Antonio Palopó	9	San Antonio Palopo	11	Noviembre	2023-11-21T00:00:00	2024-11-08T10:00:00	2	Temperatura media	19.5
20354	7	Sololá	712	San Antonio Palopó	9	San Antonio Palopo	11	Noviembre	2023-11-21T00:00:00	2024-11-08T10:00:00	4	Temperatura máxima	20.6
20355	7	Sololá	712	San Antonio Palopó	9	San Antonio Palopo	11	Noviembre	2023-11-21T00:00:00	2024-11-08T10:00:00	3	Temperatura mínima	19
20356	7	Sololá	712	San Antonio Palopó	9	San Antonio Palopo	11	Noviembre	2023-11-21T00:00:00	2024-11-08T10:00:00	5	Humedad	75
20357	7	Sololá	712	San Antonio Palopó	9	San Antonio Palopo	11	Noviembre	2023-11-21T00:00:00	2024-11-08T10:00:00	6	Velocidad del viento	3.2
20358	7	Sololá	712	San Antonio Palopó	9	San Antonio Palopo	11	Noviembre	2023-11-21T00:00:00	2024-11-08T10:00:00	7	Dirección del viento	3.22
20359	7	Sololá	712	San Antonio Palopó	9	San Antonio Palopo	11	Noviembre	2023-11-21T00:00:00	2024-11-08T10:00:00	1	Precipitación	0
20360	7	Sololá	712	San Antonio Palopó	9	San Antonio Palopo	11	Noviembre	2023-11-21T00:00:00	2024-11-08T10:00:00	8	Radiación solar	597
20361	7	Sololá	712	San Antonio Palopó	9	San Antonio Palopo	11	Noviembre	2023-11-21T00:00:00	2024-11-08T11:00:00	2	Temperatura media	21.4
20362	7	Sololá	712	San Antonio Palopó	9	San Antonio Palopo	11	Noviembre	2023-11-21T00:00:00	2024-11-08T11:00:00	4	Temperatura máxima	21.6
20363	7	Sololá	712	San Antonio Palopó	9	San Antonio Palopo	11	Noviembre	2023-11-21T00:00:00	2024-11-08T11:00:00	3	Temperatura mínima	19.5
20364	7	Sololá	712	San Antonio Palopó	9	San Antonio Palopo	11	Noviembre	2023-11-21T00:00:00	2024-11-08T11:00:00	5	Humedad	74
20365	7	Sololá	712	San Antonio Palopó	9	San Antonio Palopo	11	Noviembre	2023-11-21T00:00:00	2024-11-08T11:00:00	6	Velocidad del viento	3.2
20366	7	Sololá	712	San Antonio Palopó	9	San Antonio Palopo	11	Noviembre	2023-11-21T00:00:00	2024-11-08T11:00:00	7	Dirección del viento	3.22
20367	7	Sololá	712	San Antonio Palopó	9	San Antonio Palopo	11	Noviembre	2023-11-21T00:00:00	2024-11-08T11:00:00	1	Precipitación	0
20368	7	Sololá	712	San Antonio Palopó	9	San Antonio Palopo	11	Noviembre	2023-11-21T00:00:00	2024-11-08T11:00:00	8	Radiación solar	712
20369	7	Sololá	712	San Antonio Palopó	9	San Antonio Palopo	11	Noviembre	2023-11-21T00:00:00	2024-11-08T12:00:00	2	Temperatura media	21.9
20370	7	Sololá	712	San Antonio Palopó	9	San Antonio Palopo	11	Noviembre	2023-11-21T00:00:00	2024-11-08T12:00:00	4	Temperatura máxima	22.1
20371	7	Sololá	712	San Antonio Palopó	9	San Antonio Palopo	11	Noviembre	2023-11-21T00:00:00	2024-11-08T12:00:00	3	Temperatura mínima	21.2
20372	7	Sololá	712	San Antonio Palopó	9	San Antonio Palopo	11	Noviembre	2023-11-21T00:00:00	2024-11-08T12:00:00	5	Humedad	74
20373	7	Sololá	712	San Antonio Palopó	9	San Antonio Palopo	11	Noviembre	2023-11-21T00:00:00	2024-11-08T12:00:00	6	Velocidad del viento	4.8
20374	7	Sololá	712	San Antonio Palopó	9	San Antonio Palopo	11	Noviembre	2023-11-21T00:00:00	2024-11-08T12:00:00	7	Dirección del viento	4.83
20375	7	Sololá	712	San Antonio Palopó	9	San Antonio Palopo	11	Noviembre	2023-11-21T00:00:00	2024-11-08T12:00:00	1	Precipitación	0
20376	7	Sololá	712	San Antonio Palopó	9	San Antonio Palopo	11	Noviembre	2023-11-21T00:00:00	2024-11-08T12:00:00	8	Radiación solar	701
20377	7	Sololá	712	San Antonio Palopó	9	San Antonio Palopo	11	Noviembre	2023-11-21T00:00:00	2024-11-08T13:00:00	2	Temperatura media	22.3
20378	7	Sololá	712	San Antonio Palopó	9	San Antonio Palopo	11	Noviembre	2023-11-21T00:00:00	2024-11-08T13:00:00	4	Temperatura máxima	22.7
20379	7	Sololá	712	San Antonio Palopó	9	San Antonio Palopo	11	Noviembre	2023-11-21T00:00:00	2024-11-08T13:00:00	3	Temperatura mínima	21.6
20380	7	Sololá	712	San Antonio Palopó	9	San Antonio Palopo	11	Noviembre	2023-11-21T00:00:00	2024-11-08T13:00:00	5	Humedad	76
20381	7	Sololá	712	San Antonio Palopó	9	San Antonio Palopo	11	Noviembre	2023-11-21T00:00:00	2024-11-08T13:00:00	6	Velocidad del viento	6.4
20382	7	Sololá	712	San Antonio Palopó	9	San Antonio Palopo	11	Noviembre	2023-11-21T00:00:00	2024-11-08T13:00:00	7	Dirección del viento	6.44
20383	7	Sololá	712	San Antonio Palopó	9	San Antonio Palopo	11	Noviembre	2023-11-21T00:00:00	2024-11-08T13:00:00	1	Precipitación	0
20384	7	Sololá	712	San Antonio Palopó	9	San Antonio Palopo	11	Noviembre	2023-11-21T00:00:00	2024-11-08T13:00:00	8	Radiación solar	764
20385	7	Sololá	712	San Antonio Palopó	9	San Antonio Palopo	11	Noviembre	2023-11-21T00:00:00	2024-11-08T14:00:00	2	Temperatura media	22.8
20386	7	Sololá	712	San Antonio Palopó	9	San Antonio Palopo	11	Noviembre	2023-11-21T00:00:00	2024-11-08T14:00:00	4	Temperatura máxima	22.8
20387	7	Sololá	712	San Antonio Palopó	9	San Antonio Palopo	11	Noviembre	2023-11-21T00:00:00	2024-11-08T14:00:00	3	Temperatura mínima	22.1
20388	7	Sololá	712	San Antonio Palopó	9	San Antonio Palopo	11	Noviembre	2023-11-21T00:00:00	2024-11-08T14:00:00	5	Humedad	75
20389	7	Sololá	712	San Antonio Palopó	9	San Antonio Palopo	11	Noviembre	2023-11-21T00:00:00	2024-11-08T14:00:00	6	Velocidad del viento	8
20390	7	Sololá	712	San Antonio Palopó	9	San Antonio Palopo	11	Noviembre	2023-11-21T00:00:00	2024-11-08T14:00:00	7	Dirección del viento	8.05
20391	7	Sololá	712	San Antonio Palopó	9	San Antonio Palopo	11	Noviembre	2023-11-21T00:00:00	2024-11-08T14:00:00	1	Precipitación	0
20392	7	Sololá	712	San Antonio Palopó	9	San Antonio Palopo	11	Noviembre	2023-11-21T00:00:00	2024-11-08T14:00:00	8	Radiación solar	686
20393	7	Sololá	712	San Antonio Palopó	9	San Antonio Palopo	11	Noviembre	2023-11-21T00:00:00	2024-11-08T15:00:00	2	Temperatura media	22.9
20394	7	Sololá	712	San Antonio Palopó	9	San Antonio Palopo	11	Noviembre	2023-11-21T00:00:00	2024-11-08T15:00:00	4	Temperatura máxima	23
20395	7	Sololá	712	San Antonio Palopó	9	San Antonio Palopo	11	Noviembre	2023-11-21T00:00:00	2024-11-08T15:00:00	3	Temperatura mínima	22.6
20396	7	Sololá	712	San Antonio Palopó	9	San Antonio Palopo	11	Noviembre	2023-11-21T00:00:00	2024-11-08T15:00:00	5	Humedad	73
20397	7	Sololá	712	San Antonio Palopó	9	San Antonio Palopo	11	Noviembre	2023-11-21T00:00:00	2024-11-08T15:00:00	6	Velocidad del viento	6.4
20398	7	Sololá	712	San Antonio Palopó	9	San Antonio Palopo	11	Noviembre	2023-11-21T00:00:00	2024-11-08T15:00:00	7	Dirección del viento	6.44
20399	7	Sololá	712	San Antonio Palopó	9	San Antonio Palopo	11	Noviembre	2023-11-21T00:00:00	2024-11-08T15:00:00	1	Precipitación	0
20400	7	Sololá	712	San Antonio Palopó	9	San Antonio Palopo	11	Noviembre	2023-11-21T00:00:00	2024-11-08T15:00:00	8	Radiación solar	541
20401	7	Sololá	712	San Antonio Palopó	9	San Antonio Palopo	11	Noviembre	2023-11-21T00:00:00	2024-11-08T16:00:00	2	Temperatura media	22.3
20402	7	Sololá	712	San Antonio Palopó	9	San Antonio Palopo	11	Noviembre	2023-11-21T00:00:00	2024-11-08T16:00:00	4	Temperatura máxima	22.9
20403	7	Sololá	712	San Antonio Palopó	9	San Antonio Palopo	11	Noviembre	2023-11-21T00:00:00	2024-11-08T16:00:00	3	Temperatura mínima	22.2
20404	7	Sololá	712	San Antonio Palopó	9	San Antonio Palopo	11	Noviembre	2023-11-21T00:00:00	2024-11-08T16:00:00	5	Humedad	74
20405	7	Sololá	712	San Antonio Palopó	9	San Antonio Palopo	11	Noviembre	2023-11-21T00:00:00	2024-11-08T16:00:00	6	Velocidad del viento	6.4
20406	7	Sololá	712	San Antonio Palopó	9	San Antonio Palopo	11	Noviembre	2023-11-21T00:00:00	2024-11-08T16:00:00	7	Dirección del viento	6.44
20407	7	Sololá	712	San Antonio Palopó	9	San Antonio Palopo	11	Noviembre	2023-11-21T00:00:00	2024-11-08T16:00:00	1	Precipitación	0
20408	7	Sololá	712	San Antonio Palopó	9	San Antonio Palopo	11	Noviembre	2023-11-21T00:00:00	2024-11-08T16:00:00	8	Radiación solar	343
20409	7	Sololá	712	San Antonio Palopó	9	San Antonio Palopo	11	Noviembre	2023-11-21T00:00:00	2024-11-08T17:00:00	2	Temperatura media	21.1
20410	7	Sololá	712	San Antonio Palopó	9	San Antonio Palopo	11	Noviembre	2023-11-21T00:00:00	2024-11-08T17:00:00	4	Temperatura máxima	22.3
20411	7	Sololá	712	San Antonio Palopó	9	San Antonio Palopo	11	Noviembre	2023-11-21T00:00:00	2024-11-08T17:00:00	3	Temperatura mínima	21.1
20412	7	Sololá	712	San Antonio Palopó	9	San Antonio Palopo	11	Noviembre	2023-11-21T00:00:00	2024-11-08T17:00:00	5	Humedad	79
20413	7	Sololá	712	San Antonio Palopó	9	San Antonio Palopo	11	Noviembre	2023-11-21T00:00:00	2024-11-08T17:00:00	6	Velocidad del viento	6.4
20414	7	Sololá	712	San Antonio Palopó	9	San Antonio Palopo	11	Noviembre	2023-11-21T00:00:00	2024-11-08T17:00:00	7	Dirección del viento	6.44
20415	7	Sololá	712	San Antonio Palopó	9	San Antonio Palopo	11	Noviembre	2023-11-21T00:00:00	2024-11-08T17:00:00	1	Precipitación	0
20416	7	Sololá	712	San Antonio Palopó	9	San Antonio Palopo	11	Noviembre	2023-11-21T00:00:00	2024-11-08T17:00:00	8	Radiación solar	123
20417	7	Sololá	712	San Antonio Palopó	9	San Antonio Palopo	11	Noviembre	2023-11-21T00:00:00	2024-11-08T18:00:00	2	Temperatura media	19.6
20418	7	Sololá	712	San Antonio Palopó	9	San Antonio Palopo	11	Noviembre	2023-11-21T00:00:00	2024-11-08T18:00:00	4	Temperatura máxima	21
20419	7	Sololá	712	San Antonio Palopó	9	San Antonio Palopo	11	Noviembre	2023-11-21T00:00:00	2024-11-08T18:00:00	3	Temperatura mínima	19.6
20420	7	Sololá	712	San Antonio Palopó	9	San Antonio Palopo	11	Noviembre	2023-11-21T00:00:00	2024-11-08T18:00:00	5	Humedad	82
20421	7	Sololá	712	San Antonio Palopó	9	San Antonio Palopo	11	Noviembre	2023-11-21T00:00:00	2024-11-08T18:00:00	6	Velocidad del viento	4.8
20422	7	Sololá	712	San Antonio Palopó	9	San Antonio Palopo	11	Noviembre	2023-11-21T00:00:00	2024-11-08T18:00:00	7	Dirección del viento	4.83
20423	7	Sololá	712	San Antonio Palopó	9	San Antonio Palopo	11	Noviembre	2023-11-21T00:00:00	2024-11-08T18:00:00	1	Precipitación	0
20424	7	Sololá	712	San Antonio Palopó	9	San Antonio Palopo	11	Noviembre	2023-11-21T00:00:00	2024-11-08T18:00:00	8	Radiación solar	10
20425	7	Sololá	712	San Antonio Palopó	9	San Antonio Palopo	11	Noviembre	2023-11-21T00:00:00	2024-11-08T19:00:00	2	Temperatura media	19.9
20426	7	Sololá	712	San Antonio Palopó	9	San Antonio Palopo	11	Noviembre	2023-11-21T00:00:00	2024-11-08T19:00:00	4	Temperatura máxima	20.1
20427	7	Sololá	712	San Antonio Palopó	9	San Antonio Palopo	11	Noviembre	2023-11-21T00:00:00	2024-11-08T19:00:00	3	Temperatura mínima	19.1
20428	7	Sololá	712	San Antonio Palopó	9	San Antonio Palopo	11	Noviembre	2023-11-21T00:00:00	2024-11-08T19:00:00	5	Humedad	58
20429	7	Sololá	712	San Antonio Palopó	9	San Antonio Palopo	11	Noviembre	2023-11-21T00:00:00	2024-11-08T19:00:00	6	Velocidad del viento	3.2
20430	7	Sololá	712	San Antonio Palopó	9	San Antonio Palopo	11	Noviembre	2023-11-21T00:00:00	2024-11-08T19:00:00	7	Dirección del viento	3.22
20431	7	Sololá	712	San Antonio Palopó	9	San Antonio Palopo	11	Noviembre	2023-11-21T00:00:00	2024-11-08T19:00:00	1	Precipitación	0
20432	7	Sololá	712	San Antonio Palopó	9	San Antonio Palopo	11	Noviembre	2023-11-21T00:00:00	2024-11-08T19:00:00	8	Radiación solar	0
20433	7	Sololá	712	San Antonio Palopó	9	San Antonio Palopo	11	Noviembre	2023-11-21T00:00:00	2024-11-08T20:00:00	2	Temperatura media	19.2
20434	7	Sololá	712	San Antonio Palopó	9	San Antonio Palopo	11	Noviembre	2023-11-21T00:00:00	2024-11-08T20:00:00	4	Temperatura máxima	20
20435	7	Sololá	712	San Antonio Palopó	9	San Antonio Palopo	11	Noviembre	2023-11-21T00:00:00	2024-11-08T20:00:00	3	Temperatura mínima	19.2
20436	7	Sololá	712	San Antonio Palopó	9	San Antonio Palopo	11	Noviembre	2023-11-21T00:00:00	2024-11-08T20:00:00	5	Humedad	59
20437	7	Sololá	712	San Antonio Palopó	9	San Antonio Palopo	11	Noviembre	2023-11-21T00:00:00	2024-11-08T20:00:00	6	Velocidad del viento	6.4
20438	7	Sololá	712	San Antonio Palopó	9	San Antonio Palopo	11	Noviembre	2023-11-21T00:00:00	2024-11-08T20:00:00	7	Dirección del viento	6.44
20439	7	Sololá	712	San Antonio Palopó	9	San Antonio Palopo	11	Noviembre	2023-11-21T00:00:00	2024-11-08T20:00:00	1	Precipitación	0
20440	7	Sololá	712	San Antonio Palopó	9	San Antonio Palopo	11	Noviembre	2023-11-21T00:00:00	2024-11-08T20:00:00	8	Radiación solar	0
20441	7	Sololá	712	San Antonio Palopó	9	San Antonio Palopo	11	Noviembre	2023-11-21T00:00:00	2024-11-08T21:00:00	2	Temperatura media	19
20442	7	Sololá	712	San Antonio Palopó	9	San Antonio Palopo	11	Noviembre	2023-11-21T00:00:00	2024-11-08T21:00:00	4	Temperatura máxima	19.5
20443	7	Sololá	712	San Antonio Palopó	9	San Antonio Palopo	11	Noviembre	2023-11-21T00:00:00	2024-11-08T21:00:00	3	Temperatura mínima	18.9
20444	7	Sololá	712	San Antonio Palopó	9	San Antonio Palopo	11	Noviembre	2023-11-21T00:00:00	2024-11-08T21:00:00	5	Humedad	61
20445	7	Sololá	712	San Antonio Palopó	9	San Antonio Palopo	11	Noviembre	2023-11-21T00:00:00	2024-11-08T21:00:00	6	Velocidad del viento	6.4
20446	7	Sololá	712	San Antonio Palopó	9	San Antonio Palopo	11	Noviembre	2023-11-21T00:00:00	2024-11-08T21:00:00	7	Dirección del viento	6.44
20447	7	Sololá	712	San Antonio Palopó	9	San Antonio Palopo	11	Noviembre	2023-11-21T00:00:00	2024-11-08T21:00:00	1	Precipitación	0
20448	7	Sololá	712	San Antonio Palopó	9	San Antonio Palopo	11	Noviembre	2023-11-21T00:00:00	2024-11-08T21:00:00	8	Radiación solar	0
20449	7	Sololá	712	San Antonio Palopó	9	San Antonio Palopo	11	Noviembre	2023-11-21T00:00:00	2024-11-08T22:00:00	2	Temperatura media	18.4
20450	7	Sololá	712	San Antonio Palopó	9	San Antonio Palopo	11	Noviembre	2023-11-21T00:00:00	2024-11-08T22:00:00	4	Temperatura máxima	19.2
20451	7	Sololá	712	San Antonio Palopó	9	San Antonio Palopo	11	Noviembre	2023-11-21T00:00:00	2024-11-08T22:00:00	3	Temperatura mínima	18.4
20452	7	Sololá	712	San Antonio Palopó	9	San Antonio Palopo	11	Noviembre	2023-11-21T00:00:00	2024-11-08T22:00:00	5	Humedad	66
20453	7	Sololá	712	San Antonio Palopó	9	San Antonio Palopo	11	Noviembre	2023-11-21T00:00:00	2024-11-08T22:00:00	6	Velocidad del viento	6.4
20454	7	Sololá	712	San Antonio Palopó	9	San Antonio Palopo	11	Noviembre	2023-11-21T00:00:00	2024-11-08T22:00:00	7	Dirección del viento	6.44
20455	7	Sololá	712	San Antonio Palopó	9	San Antonio Palopo	11	Noviembre	2023-11-21T00:00:00	2024-11-08T22:00:00	1	Precipitación	0
20456	7	Sololá	712	San Antonio Palopó	9	San Antonio Palopo	11	Noviembre	2023-11-21T00:00:00	2024-11-08T22:00:00	8	Radiación solar	0
20457	7	Sololá	712	San Antonio Palopó	9	San Antonio Palopo	11	Noviembre	2023-11-21T00:00:00	2024-11-08T23:00:00	2	Temperatura media	18.1
20458	7	Sololá	712	San Antonio Palopó	9	San Antonio Palopo	11	Noviembre	2023-11-21T00:00:00	2024-11-08T23:00:00	4	Temperatura máxima	18.4
20459	7	Sololá	712	San Antonio Palopó	9	San Antonio Palopo	11	Noviembre	2023-11-21T00:00:00	2024-11-08T23:00:00	3	Temperatura mínima	18
20460	7	Sololá	712	San Antonio Palopó	9	San Antonio Palopo	11	Noviembre	2023-11-21T00:00:00	2024-11-08T23:00:00	5	Humedad	68
20461	7	Sololá	712	San Antonio Palopó	9	San Antonio Palopo	11	Noviembre	2023-11-21T00:00:00	2024-11-08T23:00:00	6	Velocidad del viento	6.4
20462	7	Sololá	712	San Antonio Palopó	9	San Antonio Palopo	11	Noviembre	2023-11-21T00:00:00	2024-11-08T23:00:00	7	Dirección del viento	6.44
20463	7	Sololá	712	San Antonio Palopó	9	San Antonio Palopo	11	Noviembre	2023-11-21T00:00:00	2024-11-08T23:00:00	1	Precipitación	0
20464	7	Sololá	712	San Antonio Palopó	9	San Antonio Palopo	11	Noviembre	2023-11-21T00:00:00	2024-11-08T23:00:00	8	Radiación solar	0
20465	7	Sololá	712	San Antonio Palopó	9	San Antonio Palopo	11	Noviembre	2023-11-22T00:00:00	2024-11-08T00:00:00	2	Temperatura media	18.2
20466	7	Sololá	712	San Antonio Palopó	9	San Antonio Palopo	11	Noviembre	2023-11-22T00:00:00	2024-11-08T00:00:00	4	Temperatura máxima	18.2
20467	7	Sololá	712	San Antonio Palopó	9	San Antonio Palopo	11	Noviembre	2023-11-22T00:00:00	2024-11-08T00:00:00	3	Temperatura mínima	17.9
20468	7	Sololá	712	San Antonio Palopó	9	San Antonio Palopo	11	Noviembre	2023-11-22T00:00:00	2024-11-08T00:00:00	5	Humedad	65
20469	7	Sololá	712	San Antonio Palopó	9	San Antonio Palopo	11	Noviembre	2023-11-22T00:00:00	2024-11-08T00:00:00	6	Velocidad del viento	6.4
20470	7	Sololá	712	San Antonio Palopó	9	San Antonio Palopo	11	Noviembre	2023-11-22T00:00:00	2024-11-08T00:00:00	7	Dirección del viento	6.44
20471	7	Sololá	712	San Antonio Palopó	9	San Antonio Palopo	11	Noviembre	2023-11-22T00:00:00	2024-11-08T00:00:00	1	Precipitación	0
20472	7	Sololá	712	San Antonio Palopó	9	San Antonio Palopo	11	Noviembre	2023-11-22T00:00:00	2024-11-08T00:00:00	8	Radiación solar	0
20473	7	Sololá	712	San Antonio Palopó	9	San Antonio Palopo	11	Noviembre	2023-11-22T00:00:00	2024-11-08T01:00:00	2	Temperatura media	17.6
20474	7	Sololá	712	San Antonio Palopó	9	San Antonio Palopo	11	Noviembre	2023-11-22T00:00:00	2024-11-08T01:00:00	4	Temperatura máxima	18.3
20475	7	Sololá	712	San Antonio Palopó	9	San Antonio Palopo	11	Noviembre	2023-11-22T00:00:00	2024-11-08T01:00:00	3	Temperatura mínima	17.5
20476	7	Sololá	712	San Antonio Palopó	9	San Antonio Palopo	11	Noviembre	2023-11-22T00:00:00	2024-11-08T01:00:00	5	Humedad	66
20477	7	Sololá	712	San Antonio Palopó	9	San Antonio Palopo	11	Noviembre	2023-11-22T00:00:00	2024-11-08T01:00:00	6	Velocidad del viento	4.8
20478	7	Sololá	712	San Antonio Palopó	9	San Antonio Palopo	11	Noviembre	2023-11-22T00:00:00	2024-11-08T01:00:00	7	Dirección del viento	4.83
20479	7	Sololá	712	San Antonio Palopó	9	San Antonio Palopo	11	Noviembre	2023-11-22T00:00:00	2024-11-08T01:00:00	1	Precipitación	0
20480	7	Sololá	712	San Antonio Palopó	9	San Antonio Palopo	11	Noviembre	2023-11-22T00:00:00	2024-11-08T01:00:00	8	Radiación solar	0
20481	7	Sololá	712	San Antonio Palopó	9	San Antonio Palopo	11	Noviembre	2023-11-22T00:00:00	2024-11-08T02:00:00	2	Temperatura media	18.3
20482	7	Sololá	712	San Antonio Palopó	9	San Antonio Palopo	11	Noviembre	2023-11-22T00:00:00	2024-11-08T02:00:00	4	Temperatura máxima	18.3
20483	7	Sololá	712	San Antonio Palopó	9	San Antonio Palopo	11	Noviembre	2023-11-22T00:00:00	2024-11-08T02:00:00	3	Temperatura mínima	17.6
20484	7	Sololá	712	San Antonio Palopó	9	San Antonio Palopo	11	Noviembre	2023-11-22T00:00:00	2024-11-08T02:00:00	5	Humedad	61
20485	7	Sololá	712	San Antonio Palopó	9	San Antonio Palopo	11	Noviembre	2023-11-22T00:00:00	2024-11-08T02:00:00	6	Velocidad del viento	4.8
20486	7	Sololá	712	San Antonio Palopó	9	San Antonio Palopo	11	Noviembre	2023-11-22T00:00:00	2024-11-08T02:00:00	7	Dirección del viento	4.83
20487	7	Sololá	712	San Antonio Palopó	9	San Antonio Palopo	11	Noviembre	2023-11-22T00:00:00	2024-11-08T02:00:00	1	Precipitación	0
20488	7	Sololá	712	San Antonio Palopó	9	San Antonio Palopo	11	Noviembre	2023-11-22T00:00:00	2024-11-08T02:00:00	8	Radiación solar	0
20489	7	Sololá	712	San Antonio Palopó	9	San Antonio Palopo	11	Noviembre	2023-11-22T00:00:00	2024-11-08T03:00:00	2	Temperatura media	18.3
20490	7	Sololá	712	San Antonio Palopó	9	San Antonio Palopo	11	Noviembre	2023-11-22T00:00:00	2024-11-08T03:00:00	4	Temperatura máxima	18.5
20491	7	Sololá	712	San Antonio Palopó	9	San Antonio Palopo	11	Noviembre	2023-11-22T00:00:00	2024-11-08T03:00:00	3	Temperatura mínima	18
20492	7	Sololá	712	San Antonio Palopó	9	San Antonio Palopo	11	Noviembre	2023-11-22T00:00:00	2024-11-08T03:00:00	5	Humedad	62
20493	7	Sololá	712	San Antonio Palopó	9	San Antonio Palopo	11	Noviembre	2023-11-22T00:00:00	2024-11-08T03:00:00	6	Velocidad del viento	4.8
20494	7	Sololá	712	San Antonio Palopó	9	San Antonio Palopo	11	Noviembre	2023-11-22T00:00:00	2024-11-08T03:00:00	7	Dirección del viento	4.83
20495	7	Sololá	712	San Antonio Palopó	9	San Antonio Palopo	11	Noviembre	2023-11-22T00:00:00	2024-11-08T03:00:00	1	Precipitación	0
20496	7	Sololá	712	San Antonio Palopó	9	San Antonio Palopo	11	Noviembre	2023-11-22T00:00:00	2024-11-08T03:00:00	8	Radiación solar	0
20497	7	Sololá	712	San Antonio Palopó	9	San Antonio Palopo	11	Noviembre	2023-11-22T00:00:00	2024-11-08T04:00:00	2	Temperatura media	18.2
20498	7	Sololá	712	San Antonio Palopó	9	San Antonio Palopo	11	Noviembre	2023-11-22T00:00:00	2024-11-08T04:00:00	4	Temperatura máxima	18.3
20499	7	Sololá	712	San Antonio Palopó	9	San Antonio Palopo	11	Noviembre	2023-11-22T00:00:00	2024-11-08T04:00:00	3	Temperatura mínima	17.7
20500	7	Sololá	712	San Antonio Palopó	9	San Antonio Palopo	11	Noviembre	2023-11-22T00:00:00	2024-11-08T04:00:00	5	Humedad	64
20501	7	Sololá	712	San Antonio Palopó	9	San Antonio Palopo	11	Noviembre	2023-11-22T00:00:00	2024-11-08T04:00:00	6	Velocidad del viento	3.2
20502	7	Sololá	712	San Antonio Palopó	9	San Antonio Palopo	11	Noviembre	2023-11-22T00:00:00	2024-11-08T04:00:00	7	Dirección del viento	3.22
20503	7	Sololá	712	San Antonio Palopó	9	San Antonio Palopo	11	Noviembre	2023-11-22T00:00:00	2024-11-08T04:00:00	1	Precipitación	0
20504	7	Sololá	712	San Antonio Palopó	9	San Antonio Palopo	11	Noviembre	2023-11-22T00:00:00	2024-11-08T04:00:00	8	Radiación solar	0
20505	7	Sololá	712	San Antonio Palopó	9	San Antonio Palopo	11	Noviembre	2023-11-22T00:00:00	2024-11-08T05:00:00	2	Temperatura media	19.7
20506	7	Sololá	712	San Antonio Palopó	9	San Antonio Palopo	11	Noviembre	2023-11-22T00:00:00	2024-11-08T05:00:00	4	Temperatura máxima	20.1
20507	7	Sololá	712	San Antonio Palopó	9	San Antonio Palopo	11	Noviembre	2023-11-22T00:00:00	2024-11-08T05:00:00	3	Temperatura mínima	18.2
20508	7	Sololá	712	San Antonio Palopó	9	San Antonio Palopo	11	Noviembre	2023-11-22T00:00:00	2024-11-08T05:00:00	5	Humedad	58
20509	7	Sololá	712	San Antonio Palopó	9	San Antonio Palopo	11	Noviembre	2023-11-22T00:00:00	2024-11-08T05:00:00	6	Velocidad del viento	6.4
20510	7	Sololá	712	San Antonio Palopó	9	San Antonio Palopo	11	Noviembre	2023-11-22T00:00:00	2024-11-08T05:00:00	7	Dirección del viento	6.44
20511	7	Sololá	712	San Antonio Palopó	9	San Antonio Palopo	11	Noviembre	2023-11-22T00:00:00	2024-11-08T05:00:00	1	Precipitación	0
20512	7	Sololá	712	San Antonio Palopó	9	San Antonio Palopo	11	Noviembre	2023-11-22T00:00:00	2024-11-08T05:00:00	8	Radiación solar	0
20513	7	Sololá	712	San Antonio Palopó	9	San Antonio Palopo	11	Noviembre	2023-11-22T00:00:00	2024-11-08T06:00:00	2	Temperatura media	19.2
20514	7	Sololá	712	San Antonio Palopó	9	San Antonio Palopo	11	Noviembre	2023-11-22T00:00:00	2024-11-08T06:00:00	4	Temperatura máxima	19.8
20515	7	Sololá	712	San Antonio Palopó	9	San Antonio Palopo	11	Noviembre	2023-11-22T00:00:00	2024-11-08T06:00:00	3	Temperatura mínima	19.2
20516	7	Sololá	712	San Antonio Palopó	9	San Antonio Palopo	11	Noviembre	2023-11-22T00:00:00	2024-11-08T06:00:00	5	Humedad	63
20517	7	Sololá	712	San Antonio Palopó	9	San Antonio Palopo	11	Noviembre	2023-11-22T00:00:00	2024-11-08T06:00:00	6	Velocidad del viento	8
20518	7	Sololá	712	San Antonio Palopó	9	San Antonio Palopo	11	Noviembre	2023-11-22T00:00:00	2024-11-08T06:00:00	7	Dirección del viento	8.05
20519	7	Sololá	712	San Antonio Palopó	9	San Antonio Palopo	11	Noviembre	2023-11-22T00:00:00	2024-11-08T06:00:00	1	Precipitación	0
20520	7	Sololá	712	San Antonio Palopó	9	San Antonio Palopo	11	Noviembre	2023-11-22T00:00:00	2024-11-08T06:00:00	8	Radiación solar	0
20521	7	Sololá	712	San Antonio Palopó	9	San Antonio Palopo	11	Noviembre	2023-11-22T00:00:00	2024-11-08T07:00:00	2	Temperatura media	19.3
20522	7	Sololá	712	San Antonio Palopó	9	San Antonio Palopo	11	Noviembre	2023-11-22T00:00:00	2024-11-08T07:00:00	4	Temperatura máxima	19.4
20523	7	Sololá	712	San Antonio Palopó	9	San Antonio Palopo	11	Noviembre	2023-11-22T00:00:00	2024-11-08T07:00:00	3	Temperatura mínima	18.8
20524	7	Sololá	712	San Antonio Palopó	9	San Antonio Palopo	11	Noviembre	2023-11-22T00:00:00	2024-11-08T07:00:00	5	Humedad	63
20525	7	Sololá	712	San Antonio Palopó	9	San Antonio Palopo	11	Noviembre	2023-11-22T00:00:00	2024-11-08T07:00:00	6	Velocidad del viento	4.8
20526	7	Sololá	712	San Antonio Palopó	9	San Antonio Palopo	11	Noviembre	2023-11-22T00:00:00	2024-11-08T07:00:00	7	Dirección del viento	4.83
20527	7	Sololá	712	San Antonio Palopó	9	San Antonio Palopo	11	Noviembre	2023-11-22T00:00:00	2024-11-08T07:00:00	1	Precipitación	0
20528	7	Sololá	712	San Antonio Palopó	9	San Antonio Palopo	11	Noviembre	2023-11-22T00:00:00	2024-11-08T07:00:00	8	Radiación solar	8
20529	7	Sololá	712	San Antonio Palopó	9	San Antonio Palopo	11	Noviembre	2023-11-22T00:00:00	2024-11-08T08:00:00	2	Temperatura media	19.3
20530	7	Sololá	712	San Antonio Palopó	9	San Antonio Palopo	11	Noviembre	2023-11-22T00:00:00	2024-11-08T08:00:00	4	Temperatura máxima	20.2
20531	7	Sololá	712	San Antonio Palopó	9	San Antonio Palopo	11	Noviembre	2023-11-22T00:00:00	2024-11-08T08:00:00	3	Temperatura mínima	19.3
20532	7	Sololá	712	San Antonio Palopó	9	San Antonio Palopo	11	Noviembre	2023-11-22T00:00:00	2024-11-08T08:00:00	5	Humedad	68
20533	7	Sololá	712	San Antonio Palopó	9	San Antonio Palopo	11	Noviembre	2023-11-22T00:00:00	2024-11-08T08:00:00	6	Velocidad del viento	4.8
20534	7	Sololá	712	San Antonio Palopó	9	San Antonio Palopo	11	Noviembre	2023-11-22T00:00:00	2024-11-08T08:00:00	7	Dirección del viento	4.83
20535	7	Sololá	712	San Antonio Palopó	9	San Antonio Palopo	11	Noviembre	2023-11-22T00:00:00	2024-11-08T08:00:00	1	Precipitación	0
20536	7	Sololá	712	San Antonio Palopó	9	San Antonio Palopo	11	Noviembre	2023-11-22T00:00:00	2024-11-08T08:00:00	8	Radiación solar	23
20537	7	Sololá	712	San Antonio Palopó	9	San Antonio Palopo	11	Noviembre	2023-11-22T00:00:00	2024-11-08T09:00:00	2	Temperatura media	22.1
20538	7	Sololá	712	San Antonio Palopó	9	San Antonio Palopo	11	Noviembre	2023-11-22T00:00:00	2024-11-08T09:00:00	4	Temperatura máxima	22.2
20539	7	Sololá	712	San Antonio Palopó	9	San Antonio Palopo	11	Noviembre	2023-11-22T00:00:00	2024-11-08T09:00:00	3	Temperatura mínima	19.1
20540	7	Sololá	712	San Antonio Palopó	9	San Antonio Palopo	11	Noviembre	2023-11-22T00:00:00	2024-11-08T09:00:00	5	Humedad	62
20541	7	Sololá	712	San Antonio Palopó	9	San Antonio Palopo	11	Noviembre	2023-11-22T00:00:00	2024-11-08T09:00:00	6	Velocidad del viento	3.2
20542	7	Sololá	712	San Antonio Palopó	9	San Antonio Palopo	11	Noviembre	2023-11-22T00:00:00	2024-11-08T09:00:00	7	Dirección del viento	3.22
20543	7	Sololá	712	San Antonio Palopó	9	San Antonio Palopo	11	Noviembre	2023-11-22T00:00:00	2024-11-08T09:00:00	1	Precipitación	0
20544	7	Sololá	712	San Antonio Palopó	9	San Antonio Palopo	11	Noviembre	2023-11-22T00:00:00	2024-11-08T09:00:00	8	Radiación solar	329
20545	7	Sololá	712	San Antonio Palopó	9	San Antonio Palopo	11	Noviembre	2023-11-22T00:00:00	2024-11-08T10:00:00	2	Temperatura media	23.9
20546	7	Sololá	712	San Antonio Palopó	9	San Antonio Palopo	11	Noviembre	2023-11-22T00:00:00	2024-11-08T10:00:00	4	Temperatura máxima	23.9
20547	7	Sololá	712	San Antonio Palopó	9	San Antonio Palopo	11	Noviembre	2023-11-22T00:00:00	2024-11-08T10:00:00	3	Temperatura mínima	22.1
20548	7	Sololá	712	San Antonio Palopó	9	San Antonio Palopo	11	Noviembre	2023-11-22T00:00:00	2024-11-08T10:00:00	5	Humedad	58
20549	7	Sololá	712	San Antonio Palopó	9	San Antonio Palopo	11	Noviembre	2023-11-22T00:00:00	2024-11-08T10:00:00	6	Velocidad del viento	6.4
20550	7	Sololá	712	San Antonio Palopó	9	San Antonio Palopo	11	Noviembre	2023-11-22T00:00:00	2024-11-08T10:00:00	7	Dirección del viento	6.44
20551	7	Sololá	712	San Antonio Palopó	9	San Antonio Palopo	11	Noviembre	2023-11-22T00:00:00	2024-11-08T10:00:00	1	Precipitación	0
20552	7	Sololá	712	San Antonio Palopó	9	San Antonio Palopo	11	Noviembre	2023-11-22T00:00:00	2024-11-08T10:00:00	8	Radiación solar	599
20553	7	Sololá	712	San Antonio Palopó	9	San Antonio Palopo	11	Noviembre	2023-11-22T00:00:00	2024-11-08T11:00:00	2	Temperatura media	24.1
20554	7	Sololá	712	San Antonio Palopó	9	San Antonio Palopo	11	Noviembre	2023-11-22T00:00:00	2024-11-08T11:00:00	4	Temperatura máxima	24.1
20555	7	Sololá	712	San Antonio Palopó	9	San Antonio Palopo	11	Noviembre	2023-11-22T00:00:00	2024-11-08T11:00:00	3	Temperatura mínima	23.6
20556	7	Sololá	712	San Antonio Palopó	9	San Antonio Palopo	11	Noviembre	2023-11-22T00:00:00	2024-11-08T11:00:00	5	Humedad	58
20557	7	Sololá	712	San Antonio Palopó	9	San Antonio Palopo	11	Noviembre	2023-11-22T00:00:00	2024-11-08T11:00:00	6	Velocidad del viento	11.3
20558	7	Sololá	712	San Antonio Palopó	9	San Antonio Palopo	11	Noviembre	2023-11-22T00:00:00	2024-11-08T11:00:00	7	Dirección del viento	11.27
20559	7	Sololá	712	San Antonio Palopó	9	San Antonio Palopo	11	Noviembre	2023-11-22T00:00:00	2024-11-08T11:00:00	1	Precipitación	0
20560	7	Sololá	712	San Antonio Palopó	9	San Antonio Palopo	11	Noviembre	2023-11-22T00:00:00	2024-11-08T11:00:00	8	Radiación solar	735
20561	7	Sololá	712	San Antonio Palopó	9	San Antonio Palopo	11	Noviembre	2023-11-22T00:00:00	2024-11-08T12:00:00	2	Temperatura media	23.9
20562	7	Sololá	712	San Antonio Palopó	9	San Antonio Palopo	11	Noviembre	2023-11-22T00:00:00	2024-11-08T12:00:00	4	Temperatura máxima	24.8
20563	7	Sololá	712	San Antonio Palopó	9	San Antonio Palopo	11	Noviembre	2023-11-22T00:00:00	2024-11-08T12:00:00	3	Temperatura mínima	23.9
20564	7	Sololá	712	San Antonio Palopó	9	San Antonio Palopo	11	Noviembre	2023-11-22T00:00:00	2024-11-08T12:00:00	5	Humedad	57
20565	7	Sololá	712	San Antonio Palopó	9	San Antonio Palopo	11	Noviembre	2023-11-22T00:00:00	2024-11-08T12:00:00	6	Velocidad del viento	11.3
20566	7	Sololá	712	San Antonio Palopó	9	San Antonio Palopo	11	Noviembre	2023-11-22T00:00:00	2024-11-08T12:00:00	7	Dirección del viento	11.27
20567	7	Sololá	712	San Antonio Palopó	9	San Antonio Palopo	11	Noviembre	2023-11-22T00:00:00	2024-11-08T12:00:00	1	Precipitación	0
20568	7	Sololá	712	San Antonio Palopó	9	San Antonio Palopo	11	Noviembre	2023-11-22T00:00:00	2024-11-08T12:00:00	8	Radiación solar	709
20569	7	Sololá	712	San Antonio Palopó	9	San Antonio Palopo	11	Noviembre	2023-11-22T00:00:00	2024-11-08T13:00:00	2	Temperatura media	25.1
20570	7	Sololá	712	San Antonio Palopó	9	San Antonio Palopo	11	Noviembre	2023-11-22T00:00:00	2024-11-08T13:00:00	4	Temperatura máxima	25.2
20571	7	Sololá	712	San Antonio Palopó	9	San Antonio Palopo	11	Noviembre	2023-11-22T00:00:00	2024-11-08T13:00:00	3	Temperatura mínima	23.9
20572	7	Sololá	712	San Antonio Palopó	9	San Antonio Palopo	11	Noviembre	2023-11-22T00:00:00	2024-11-08T13:00:00	5	Humedad	54
20573	7	Sololá	712	San Antonio Palopó	9	San Antonio Palopo	11	Noviembre	2023-11-22T00:00:00	2024-11-08T13:00:00	6	Velocidad del viento	11.3
20574	7	Sololá	712	San Antonio Palopó	9	San Antonio Palopo	11	Noviembre	2023-11-22T00:00:00	2024-11-08T13:00:00	7	Dirección del viento	11.27
20575	7	Sololá	712	San Antonio Palopó	9	San Antonio Palopo	11	Noviembre	2023-11-22T00:00:00	2024-11-08T13:00:00	1	Precipitación	0
20576	7	Sololá	712	San Antonio Palopó	9	San Antonio Palopo	11	Noviembre	2023-11-22T00:00:00	2024-11-08T13:00:00	8	Radiación solar	678
20577	7	Sololá	712	San Antonio Palopó	9	San Antonio Palopo	11	Noviembre	2023-11-22T00:00:00	2024-11-08T14:00:00	2	Temperatura media	22.4
20578	7	Sololá	712	San Antonio Palopó	9	San Antonio Palopo	11	Noviembre	2023-11-22T00:00:00	2024-11-08T14:00:00	4	Temperatura máxima	25.1
20579	7	Sololá	712	San Antonio Palopó	9	San Antonio Palopo	11	Noviembre	2023-11-22T00:00:00	2024-11-08T14:00:00	3	Temperatura mínima	22.4
20580	7	Sololá	712	San Antonio Palopó	9	San Antonio Palopo	11	Noviembre	2023-11-22T00:00:00	2024-11-08T14:00:00	5	Humedad	74
20581	7	Sololá	712	San Antonio Palopó	9	San Antonio Palopo	11	Noviembre	2023-11-22T00:00:00	2024-11-08T14:00:00	6	Velocidad del viento	11.3
20582	7	Sololá	712	San Antonio Palopó	9	San Antonio Palopo	11	Noviembre	2023-11-22T00:00:00	2024-11-08T14:00:00	7	Dirección del viento	11.27
20583	7	Sololá	712	San Antonio Palopó	9	San Antonio Palopo	11	Noviembre	2023-11-22T00:00:00	2024-11-08T14:00:00	1	Precipitación	0
20584	7	Sololá	712	San Antonio Palopó	9	San Antonio Palopo	11	Noviembre	2023-11-22T00:00:00	2024-11-08T14:00:00	8	Radiación solar	472
20585	7	Sololá	712	San Antonio Palopó	9	San Antonio Palopo	11	Noviembre	2023-11-22T00:00:00	2024-11-08T15:00:00	2	Temperatura media	23.5
20586	7	Sololá	712	San Antonio Palopó	9	San Antonio Palopo	11	Noviembre	2023-11-22T00:00:00	2024-11-08T15:00:00	4	Temperatura máxima	23.9
20587	7	Sololá	712	San Antonio Palopó	9	San Antonio Palopo	11	Noviembre	2023-11-22T00:00:00	2024-11-08T15:00:00	3	Temperatura mínima	22.3
20588	7	Sololá	712	San Antonio Palopó	9	San Antonio Palopo	11	Noviembre	2023-11-22T00:00:00	2024-11-08T15:00:00	5	Humedad	66
20589	7	Sololá	712	San Antonio Palopó	9	San Antonio Palopo	11	Noviembre	2023-11-22T00:00:00	2024-11-08T15:00:00	6	Velocidad del viento	9.7
20590	7	Sololá	712	San Antonio Palopó	9	San Antonio Palopo	11	Noviembre	2023-11-22T00:00:00	2024-11-08T15:00:00	7	Dirección del viento	9.66
20591	7	Sololá	712	San Antonio Palopó	9	San Antonio Palopo	11	Noviembre	2023-11-22T00:00:00	2024-11-08T15:00:00	1	Precipitación	0
20592	7	Sololá	712	San Antonio Palopó	9	San Antonio Palopo	11	Noviembre	2023-11-22T00:00:00	2024-11-08T15:00:00	8	Radiación solar	410
20593	7	Sololá	712	San Antonio Palopó	9	San Antonio Palopo	11	Noviembre	2023-11-22T00:00:00	2024-11-08T16:00:00	2	Temperatura media	23.9
20594	7	Sololá	712	San Antonio Palopó	9	San Antonio Palopo	11	Noviembre	2023-11-22T00:00:00	2024-11-08T16:00:00	4	Temperatura máxima	24.3
20595	7	Sololá	712	San Antonio Palopó	9	San Antonio Palopo	11	Noviembre	2023-11-22T00:00:00	2024-11-08T16:00:00	3	Temperatura mínima	23.5
20596	7	Sololá	712	San Antonio Palopó	9	San Antonio Palopo	11	Noviembre	2023-11-22T00:00:00	2024-11-08T16:00:00	5	Humedad	57
20597	7	Sololá	712	San Antonio Palopó	9	San Antonio Palopo	11	Noviembre	2023-11-22T00:00:00	2024-11-08T16:00:00	6	Velocidad del viento	9.7
20598	7	Sololá	712	San Antonio Palopó	9	San Antonio Palopo	11	Noviembre	2023-11-22T00:00:00	2024-11-08T16:00:00	7	Dirección del viento	9.66
20599	7	Sololá	712	San Antonio Palopó	9	San Antonio Palopo	11	Noviembre	2023-11-22T00:00:00	2024-11-08T16:00:00	1	Precipitación	0
20600	7	Sololá	712	San Antonio Palopó	9	San Antonio Palopo	11	Noviembre	2023-11-22T00:00:00	2024-11-08T16:00:00	8	Radiación solar	329
20601	7	Sololá	712	San Antonio Palopó	9	San Antonio Palopo	11	Noviembre	2023-11-22T00:00:00	2024-11-08T17:00:00	2	Temperatura media	23.1
20602	7	Sololá	712	San Antonio Palopó	9	San Antonio Palopo	11	Noviembre	2023-11-22T00:00:00	2024-11-08T17:00:00	4	Temperatura máxima	23.9
20603	7	Sololá	712	San Antonio Palopó	9	San Antonio Palopo	11	Noviembre	2023-11-22T00:00:00	2024-11-08T17:00:00	3	Temperatura mínima	22.4
20604	7	Sololá	712	San Antonio Palopó	9	San Antonio Palopo	11	Noviembre	2023-11-22T00:00:00	2024-11-08T17:00:00	5	Humedad	60
20605	7	Sololá	712	San Antonio Palopó	9	San Antonio Palopo	11	Noviembre	2023-11-22T00:00:00	2024-11-08T17:00:00	6	Velocidad del viento	9.7
20606	7	Sololá	712	San Antonio Palopó	9	San Antonio Palopo	11	Noviembre	2023-11-22T00:00:00	2024-11-08T17:00:00	7	Dirección del viento	9.66
20607	7	Sololá	712	San Antonio Palopó	9	San Antonio Palopo	11	Noviembre	2023-11-22T00:00:00	2024-11-08T17:00:00	1	Precipitación	0
20608	7	Sololá	712	San Antonio Palopó	9	San Antonio Palopo	11	Noviembre	2023-11-22T00:00:00	2024-11-08T17:00:00	8	Radiación solar	65
20609	7	Sololá	712	San Antonio Palopó	9	San Antonio Palopo	11	Noviembre	2023-11-22T00:00:00	2024-11-08T18:00:00	2	Temperatura media	20.7
20610	7	Sololá	712	San Antonio Palopó	9	San Antonio Palopo	11	Noviembre	2023-11-22T00:00:00	2024-11-08T18:00:00	4	Temperatura máxima	23.1
20611	7	Sololá	712	San Antonio Palopó	9	San Antonio Palopo	11	Noviembre	2023-11-22T00:00:00	2024-11-08T18:00:00	3	Temperatura mínima	20.7
20612	7	Sololá	712	San Antonio Palopó	9	San Antonio Palopo	11	Noviembre	2023-11-22T00:00:00	2024-11-08T18:00:00	5	Humedad	68
20613	7	Sololá	712	San Antonio Palopó	9	San Antonio Palopo	11	Noviembre	2023-11-22T00:00:00	2024-11-08T18:00:00	6	Velocidad del viento	8
20614	7	Sololá	712	San Antonio Palopó	9	San Antonio Palopo	11	Noviembre	2023-11-22T00:00:00	2024-11-08T18:00:00	7	Dirección del viento	8.05
20615	7	Sololá	712	San Antonio Palopó	9	San Antonio Palopo	11	Noviembre	2023-11-22T00:00:00	2024-11-08T18:00:00	1	Precipitación	0
20616	7	Sololá	712	San Antonio Palopó	9	San Antonio Palopo	11	Noviembre	2023-11-22T00:00:00	2024-11-08T18:00:00	8	Radiación solar	8
20617	7	Sololá	712	San Antonio Palopó	9	San Antonio Palopo	11	Noviembre	2023-11-22T00:00:00	2024-11-08T19:00:00	2	Temperatura media	19.8
20618	7	Sololá	712	San Antonio Palopó	9	San Antonio Palopo	11	Noviembre	2023-11-22T00:00:00	2024-11-08T19:00:00	4	Temperatura máxima	20.7
20619	7	Sololá	712	San Antonio Palopó	9	San Antonio Palopo	11	Noviembre	2023-11-22T00:00:00	2024-11-08T19:00:00	3	Temperatura mínima	19.7
20620	7	Sololá	712	San Antonio Palopó	9	San Antonio Palopo	11	Noviembre	2023-11-22T00:00:00	2024-11-08T19:00:00	5	Humedad	69
20621	7	Sololá	712	San Antonio Palopó	9	San Antonio Palopo	11	Noviembre	2023-11-22T00:00:00	2024-11-08T19:00:00	6	Velocidad del viento	4.8
20622	7	Sololá	712	San Antonio Palopó	9	San Antonio Palopo	11	Noviembre	2023-11-22T00:00:00	2024-11-08T19:00:00	7	Dirección del viento	4.83
20623	7	Sololá	712	San Antonio Palopó	9	San Antonio Palopo	11	Noviembre	2023-11-22T00:00:00	2024-11-08T19:00:00	1	Precipitación	0
20624	7	Sololá	712	San Antonio Palopó	9	San Antonio Palopo	11	Noviembre	2023-11-22T00:00:00	2024-11-08T19:00:00	8	Radiación solar	0
20625	7	Sololá	712	San Antonio Palopó	9	San Antonio Palopo	11	Noviembre	2023-11-22T00:00:00	2024-11-08T20:00:00	2	Temperatura media	19.4
20626	7	Sololá	712	San Antonio Palopó	9	San Antonio Palopo	11	Noviembre	2023-11-22T00:00:00	2024-11-08T20:00:00	4	Temperatura máxima	20
20627	7	Sololá	712	San Antonio Palopó	9	San Antonio Palopo	11	Noviembre	2023-11-22T00:00:00	2024-11-08T20:00:00	3	Temperatura mínima	19.3
20628	7	Sololá	712	San Antonio Palopó	9	San Antonio Palopo	11	Noviembre	2023-11-22T00:00:00	2024-11-08T20:00:00	5	Humedad	71
20629	7	Sololá	712	San Antonio Palopó	9	San Antonio Palopo	11	Noviembre	2023-11-22T00:00:00	2024-11-08T20:00:00	6	Velocidad del viento	6.4
20630	7	Sololá	712	San Antonio Palopó	9	San Antonio Palopo	11	Noviembre	2023-11-22T00:00:00	2024-11-08T20:00:00	7	Dirección del viento	6.44
20631	7	Sololá	712	San Antonio Palopó	9	San Antonio Palopo	11	Noviembre	2023-11-22T00:00:00	2024-11-08T20:00:00	1	Precipitación	0
20632	7	Sololá	712	San Antonio Palopó	9	San Antonio Palopo	11	Noviembre	2023-11-22T00:00:00	2024-11-08T20:00:00	8	Radiación solar	0
20633	7	Sololá	712	San Antonio Palopó	9	San Antonio Palopo	11	Noviembre	2023-11-22T00:00:00	2024-11-08T21:00:00	2	Temperatura media	19.2
20634	7	Sololá	712	San Antonio Palopó	9	San Antonio Palopo	11	Noviembre	2023-11-22T00:00:00	2024-11-08T21:00:00	4	Temperatura máxima	19.7
20635	7	Sololá	712	San Antonio Palopó	9	San Antonio Palopo	11	Noviembre	2023-11-22T00:00:00	2024-11-08T21:00:00	3	Temperatura mínima	19.2
20636	7	Sololá	712	San Antonio Palopó	9	San Antonio Palopo	11	Noviembre	2023-11-22T00:00:00	2024-11-08T21:00:00	5	Humedad	72
20637	7	Sololá	712	San Antonio Palopó	9	San Antonio Palopo	11	Noviembre	2023-11-22T00:00:00	2024-11-08T21:00:00	6	Velocidad del viento	4.8
20638	7	Sololá	712	San Antonio Palopó	9	San Antonio Palopo	11	Noviembre	2023-11-22T00:00:00	2024-11-08T21:00:00	7	Dirección del viento	4.83
20639	7	Sololá	712	San Antonio Palopó	9	San Antonio Palopo	11	Noviembre	2023-11-22T00:00:00	2024-11-08T21:00:00	1	Precipitación	0
20640	7	Sololá	712	San Antonio Palopó	9	San Antonio Palopo	11	Noviembre	2023-11-22T00:00:00	2024-11-08T21:00:00	8	Radiación solar	0
20641	7	Sololá	712	San Antonio Palopó	9	San Antonio Palopo	11	Noviembre	2023-11-22T00:00:00	2024-11-08T22:00:00	2	Temperatura media	19.2
20642	7	Sololá	712	San Antonio Palopó	9	San Antonio Palopo	11	Noviembre	2023-11-22T00:00:00	2024-11-08T22:00:00	4	Temperatura máxima	19.3
20643	7	Sololá	712	San Antonio Palopó	9	San Antonio Palopo	11	Noviembre	2023-11-22T00:00:00	2024-11-08T22:00:00	3	Temperatura mínima	19.1
20644	7	Sololá	712	San Antonio Palopó	9	San Antonio Palopo	11	Noviembre	2023-11-22T00:00:00	2024-11-08T22:00:00	5	Humedad	71
20645	7	Sololá	712	San Antonio Palopó	9	San Antonio Palopo	11	Noviembre	2023-11-22T00:00:00	2024-11-08T22:00:00	6	Velocidad del viento	6.4
20646	7	Sololá	712	San Antonio Palopó	9	San Antonio Palopo	11	Noviembre	2023-11-22T00:00:00	2024-11-08T22:00:00	7	Dirección del viento	6.44
20647	7	Sololá	712	San Antonio Palopó	9	San Antonio Palopo	11	Noviembre	2023-11-22T00:00:00	2024-11-08T22:00:00	1	Precipitación	0
20648	7	Sololá	712	San Antonio Palopó	9	San Antonio Palopo	11	Noviembre	2023-11-22T00:00:00	2024-11-08T22:00:00	8	Radiación solar	0
20649	7	Sololá	712	San Antonio Palopó	9	San Antonio Palopo	11	Noviembre	2023-11-22T00:00:00	2024-11-08T23:00:00	2	Temperatura media	19.2
20650	7	Sololá	712	San Antonio Palopó	9	San Antonio Palopo	11	Noviembre	2023-11-22T00:00:00	2024-11-08T23:00:00	4	Temperatura máxima	19.3
20651	7	Sololá	712	San Antonio Palopó	9	San Antonio Palopo	11	Noviembre	2023-11-22T00:00:00	2024-11-08T23:00:00	3	Temperatura mínima	18.9
20652	7	Sololá	712	San Antonio Palopó	9	San Antonio Palopo	11	Noviembre	2023-11-22T00:00:00	2024-11-08T23:00:00	5	Humedad	71
20653	7	Sololá	712	San Antonio Palopó	9	San Antonio Palopo	11	Noviembre	2023-11-22T00:00:00	2024-11-08T23:00:00	6	Velocidad del viento	9.7
20654	7	Sololá	712	San Antonio Palopó	9	San Antonio Palopo	11	Noviembre	2023-11-22T00:00:00	2024-11-08T23:00:00	7	Dirección del viento	9.66
20655	7	Sololá	712	San Antonio Palopó	9	San Antonio Palopo	11	Noviembre	2023-11-22T00:00:00	2024-11-08T23:00:00	1	Precipitación	0
20656	7	Sololá	712	San Antonio Palopó	9	San Antonio Palopo	11	Noviembre	2023-11-22T00:00:00	2024-11-08T23:00:00	8	Radiación solar	0
20657	7	Sololá	712	San Antonio Palopó	9	San Antonio Palopo	11	Noviembre	2023-11-23T00:00:00	2024-11-08T00:00:00	2	Temperatura media	19.3
20658	7	Sololá	712	San Antonio Palopó	9	San Antonio Palopo	11	Noviembre	2023-11-23T00:00:00	2024-11-08T00:00:00	4	Temperatura máxima	19.3
20659	7	Sololá	712	San Antonio Palopó	9	San Antonio Palopo	11	Noviembre	2023-11-23T00:00:00	2024-11-08T00:00:00	3	Temperatura mínima	19.1
20660	7	Sololá	712	San Antonio Palopó	9	San Antonio Palopo	11	Noviembre	2023-11-23T00:00:00	2024-11-08T00:00:00	5	Humedad	70
20661	7	Sololá	712	San Antonio Palopó	9	San Antonio Palopo	11	Noviembre	2023-11-23T00:00:00	2024-11-08T00:00:00	6	Velocidad del viento	8
20662	7	Sololá	712	San Antonio Palopó	9	San Antonio Palopo	11	Noviembre	2023-11-23T00:00:00	2024-11-08T00:00:00	7	Dirección del viento	8.05
20663	7	Sololá	712	San Antonio Palopó	9	San Antonio Palopo	11	Noviembre	2023-11-23T00:00:00	2024-11-08T00:00:00	1	Precipitación	0
20664	7	Sololá	712	San Antonio Palopó	9	San Antonio Palopo	11	Noviembre	2023-11-23T00:00:00	2024-11-08T00:00:00	8	Radiación solar	0
20665	7	Sololá	712	San Antonio Palopó	9	San Antonio Palopo	11	Noviembre	2023-11-23T00:00:00	2024-11-08T01:00:00	2	Temperatura media	19.2
20666	7	Sololá	712	San Antonio Palopó	9	San Antonio Palopo	11	Noviembre	2023-11-23T00:00:00	2024-11-08T01:00:00	4	Temperatura máxima	19.4
20667	7	Sololá	712	San Antonio Palopó	9	San Antonio Palopo	11	Noviembre	2023-11-23T00:00:00	2024-11-08T01:00:00	3	Temperatura mínima	19.2
20668	7	Sololá	712	San Antonio Palopó	9	San Antonio Palopo	11	Noviembre	2023-11-23T00:00:00	2024-11-08T01:00:00	5	Humedad	68
20669	7	Sololá	712	San Antonio Palopó	9	San Antonio Palopo	11	Noviembre	2023-11-23T00:00:00	2024-11-08T01:00:00	6	Velocidad del viento	3.2
20670	7	Sololá	712	San Antonio Palopó	9	San Antonio Palopo	11	Noviembre	2023-11-23T00:00:00	2024-11-08T01:00:00	7	Dirección del viento	3.22
20671	7	Sololá	712	San Antonio Palopó	9	San Antonio Palopo	11	Noviembre	2023-11-23T00:00:00	2024-11-08T01:00:00	1	Precipitación	0
20672	7	Sololá	712	San Antonio Palopó	9	San Antonio Palopo	11	Noviembre	2023-11-23T00:00:00	2024-11-08T01:00:00	8	Radiación solar	0
20673	7	Sololá	712	San Antonio Palopó	9	San Antonio Palopo	11	Noviembre	2023-11-23T00:00:00	2024-11-08T02:00:00	2	Temperatura media	18.8
20674	7	Sololá	712	San Antonio Palopó	9	San Antonio Palopo	11	Noviembre	2023-11-23T00:00:00	2024-11-08T02:00:00	4	Temperatura máxima	19.2
20675	7	Sololá	712	San Antonio Palopó	9	San Antonio Palopo	11	Noviembre	2023-11-23T00:00:00	2024-11-08T02:00:00	3	Temperatura mínima	18.7
20676	7	Sololá	712	San Antonio Palopó	9	San Antonio Palopo	11	Noviembre	2023-11-23T00:00:00	2024-11-08T02:00:00	5	Humedad	68
20677	7	Sololá	712	San Antonio Palopó	9	San Antonio Palopo	11	Noviembre	2023-11-23T00:00:00	2024-11-08T02:00:00	6	Velocidad del viento	8
20678	7	Sololá	712	San Antonio Palopó	9	San Antonio Palopo	11	Noviembre	2023-11-23T00:00:00	2024-11-08T02:00:00	7	Dirección del viento	8.05
20679	7	Sololá	712	San Antonio Palopó	9	San Antonio Palopo	11	Noviembre	2023-11-23T00:00:00	2024-11-08T02:00:00	1	Precipitación	0
20680	7	Sololá	712	San Antonio Palopó	9	San Antonio Palopo	11	Noviembre	2023-11-23T00:00:00	2024-11-08T02:00:00	8	Radiación solar	0
20681	7	Sololá	712	San Antonio Palopó	9	San Antonio Palopo	11	Noviembre	2023-11-23T00:00:00	2024-11-08T03:00:00	2	Temperatura media	17.8
20682	7	Sololá	712	San Antonio Palopó	9	San Antonio Palopo	11	Noviembre	2023-11-23T00:00:00	2024-11-08T03:00:00	4	Temperatura máxima	18.9
20683	7	Sololá	712	San Antonio Palopó	9	San Antonio Palopo	11	Noviembre	2023-11-23T00:00:00	2024-11-08T03:00:00	3	Temperatura mínima	17.8
20684	7	Sololá	712	San Antonio Palopó	9	San Antonio Palopo	11	Noviembre	2023-11-23T00:00:00	2024-11-08T03:00:00	5	Humedad	71
20685	7	Sololá	712	San Antonio Palopó	9	San Antonio Palopo	11	Noviembre	2023-11-23T00:00:00	2024-11-08T03:00:00	6	Velocidad del viento	12.9
20686	7	Sololá	712	San Antonio Palopó	9	San Antonio Palopo	11	Noviembre	2023-11-23T00:00:00	2024-11-08T03:00:00	7	Dirección del viento	12.87
20687	7	Sololá	712	San Antonio Palopó	9	San Antonio Palopo	11	Noviembre	2023-11-23T00:00:00	2024-11-08T03:00:00	1	Precipitación	0
20688	7	Sololá	712	San Antonio Palopó	9	San Antonio Palopo	11	Noviembre	2023-11-23T00:00:00	2024-11-08T03:00:00	8	Radiación solar	0
20689	7	Sololá	712	San Antonio Palopó	9	San Antonio Palopo	11	Noviembre	2023-11-23T00:00:00	2024-11-08T04:00:00	2	Temperatura media	18.3
20690	7	Sololá	712	San Antonio Palopó	9	San Antonio Palopo	11	Noviembre	2023-11-23T00:00:00	2024-11-08T04:00:00	4	Temperatura máxima	18.3
20691	7	Sololá	712	San Antonio Palopó	9	San Antonio Palopo	11	Noviembre	2023-11-23T00:00:00	2024-11-08T04:00:00	3	Temperatura mínima	17.8
20692	7	Sololá	712	San Antonio Palopó	9	San Antonio Palopo	11	Noviembre	2023-11-23T00:00:00	2024-11-08T04:00:00	5	Humedad	71
20693	7	Sololá	712	San Antonio Palopó	9	San Antonio Palopo	11	Noviembre	2023-11-23T00:00:00	2024-11-08T04:00:00	6	Velocidad del viento	12.9
20694	7	Sololá	712	San Antonio Palopó	9	San Antonio Palopo	11	Noviembre	2023-11-23T00:00:00	2024-11-08T04:00:00	7	Dirección del viento	12.87
20695	7	Sololá	712	San Antonio Palopó	9	San Antonio Palopo	11	Noviembre	2023-11-23T00:00:00	2024-11-08T04:00:00	1	Precipitación	0
20696	7	Sololá	712	San Antonio Palopó	9	San Antonio Palopo	11	Noviembre	2023-11-23T00:00:00	2024-11-08T04:00:00	8	Radiación solar	0
20697	7	Sololá	712	San Antonio Palopó	9	San Antonio Palopo	11	Noviembre	2023-11-23T00:00:00	2024-11-08T05:00:00	2	Temperatura media	18.7
20698	7	Sololá	712	San Antonio Palopó	9	San Antonio Palopo	11	Noviembre	2023-11-23T00:00:00	2024-11-08T05:00:00	4	Temperatura máxima	18.7
20699	7	Sololá	712	San Antonio Palopó	9	San Antonio Palopo	11	Noviembre	2023-11-23T00:00:00	2024-11-08T05:00:00	3	Temperatura mínima	18.3
20700	7	Sololá	712	San Antonio Palopó	9	San Antonio Palopo	11	Noviembre	2023-11-23T00:00:00	2024-11-08T05:00:00	5	Humedad	70
20701	7	Sololá	712	San Antonio Palopó	9	San Antonio Palopo	11	Noviembre	2023-11-23T00:00:00	2024-11-08T05:00:00	6	Velocidad del viento	11.3
20702	7	Sololá	712	San Antonio Palopó	9	San Antonio Palopo	11	Noviembre	2023-11-23T00:00:00	2024-11-08T05:00:00	7	Dirección del viento	11.27
20703	7	Sololá	712	San Antonio Palopó	9	San Antonio Palopo	11	Noviembre	2023-11-23T00:00:00	2024-11-08T05:00:00	1	Precipitación	0
20704	7	Sololá	712	San Antonio Palopó	9	San Antonio Palopo	11	Noviembre	2023-11-23T00:00:00	2024-11-08T05:00:00	8	Radiación solar	0
20705	7	Sololá	712	San Antonio Palopó	9	San Antonio Palopo	11	Noviembre	2023-11-23T00:00:00	2024-11-08T06:00:00	2	Temperatura media	18.8
20706	7	Sololá	712	San Antonio Palopó	9	San Antonio Palopo	11	Noviembre	2023-11-23T00:00:00	2024-11-08T06:00:00	4	Temperatura máxima	19
20707	7	Sololá	712	San Antonio Palopó	9	San Antonio Palopo	11	Noviembre	2023-11-23T00:00:00	2024-11-08T06:00:00	3	Temperatura mínima	18.6
20708	7	Sololá	712	San Antonio Palopó	9	San Antonio Palopo	11	Noviembre	2023-11-23T00:00:00	2024-11-08T06:00:00	5	Humedad	70
20709	7	Sololá	712	San Antonio Palopó	9	San Antonio Palopo	11	Noviembre	2023-11-23T00:00:00	2024-11-08T06:00:00	6	Velocidad del viento	11.3
20710	7	Sololá	712	San Antonio Palopó	9	San Antonio Palopo	11	Noviembre	2023-11-23T00:00:00	2024-11-08T06:00:00	7	Dirección del viento	11.27
20711	7	Sololá	712	San Antonio Palopó	9	San Antonio Palopo	11	Noviembre	2023-11-23T00:00:00	2024-11-08T06:00:00	1	Precipitación	0
20712	7	Sololá	712	San Antonio Palopó	9	San Antonio Palopo	11	Noviembre	2023-11-23T00:00:00	2024-11-08T06:00:00	8	Radiación solar	0
20713	7	Sololá	712	San Antonio Palopó	9	San Antonio Palopo	11	Noviembre	2023-11-23T00:00:00	2024-11-08T07:00:00	2	Temperatura media	18.9
20714	7	Sololá	712	San Antonio Palopó	9	San Antonio Palopo	11	Noviembre	2023-11-23T00:00:00	2024-11-08T07:00:00	4	Temperatura máxima	18.9
20715	7	Sololá	712	San Antonio Palopó	9	San Antonio Palopo	11	Noviembre	2023-11-23T00:00:00	2024-11-08T07:00:00	3	Temperatura mínima	18.5
20716	7	Sololá	712	San Antonio Palopó	9	San Antonio Palopo	11	Noviembre	2023-11-23T00:00:00	2024-11-08T07:00:00	5	Humedad	71
20717	7	Sololá	712	San Antonio Palopó	9	San Antonio Palopo	11	Noviembre	2023-11-23T00:00:00	2024-11-08T07:00:00	6	Velocidad del viento	12.9
20718	7	Sololá	712	San Antonio Palopó	9	San Antonio Palopo	11	Noviembre	2023-11-23T00:00:00	2024-11-08T07:00:00	7	Dirección del viento	12.87
20719	7	Sololá	712	San Antonio Palopó	9	San Antonio Palopo	11	Noviembre	2023-11-23T00:00:00	2024-11-08T07:00:00	1	Precipitación	0
20720	7	Sololá	712	San Antonio Palopó	9	San Antonio Palopo	11	Noviembre	2023-11-23T00:00:00	2024-11-08T07:00:00	8	Radiación solar	8
20721	7	Sololá	712	San Antonio Palopó	9	San Antonio Palopo	11	Noviembre	2023-11-23T00:00:00	2024-11-08T08:00:00	2	Temperatura media	19.6
20722	7	Sololá	712	San Antonio Palopó	9	San Antonio Palopo	11	Noviembre	2023-11-23T00:00:00	2024-11-08T08:00:00	4	Temperatura máxima	19.7
20723	7	Sololá	712	San Antonio Palopó	9	San Antonio Palopo	11	Noviembre	2023-11-23T00:00:00	2024-11-08T08:00:00	3	Temperatura mínima	18.8
20724	7	Sololá	712	San Antonio Palopó	9	San Antonio Palopo	11	Noviembre	2023-11-23T00:00:00	2024-11-08T08:00:00	5	Humedad	70
20725	7	Sololá	712	San Antonio Palopó	9	San Antonio Palopo	11	Noviembre	2023-11-23T00:00:00	2024-11-08T08:00:00	6	Velocidad del viento	9.7
20726	7	Sololá	712	San Antonio Palopó	9	San Antonio Palopo	11	Noviembre	2023-11-23T00:00:00	2024-11-08T08:00:00	7	Dirección del viento	9.66
20727	7	Sololá	712	San Antonio Palopó	9	San Antonio Palopo	11	Noviembre	2023-11-23T00:00:00	2024-11-08T08:00:00	1	Precipitación	0
20728	7	Sololá	712	San Antonio Palopó	9	San Antonio Palopo	11	Noviembre	2023-11-23T00:00:00	2024-11-08T08:00:00	8	Radiación solar	20
20729	7	Sololá	712	San Antonio Palopó	9	San Antonio Palopo	11	Noviembre	2023-11-23T00:00:00	2024-11-08T09:00:00	2	Temperatura media	22.1
20730	7	Sololá	712	San Antonio Palopó	9	San Antonio Palopo	11	Noviembre	2023-11-23T00:00:00	2024-11-08T09:00:00	4	Temperatura máxima	22.1
20731	7	Sololá	712	San Antonio Palopó	9	San Antonio Palopo	11	Noviembre	2023-11-23T00:00:00	2024-11-08T09:00:00	3	Temperatura mínima	19.6
20732	7	Sololá	712	San Antonio Palopó	9	San Antonio Palopo	11	Noviembre	2023-11-23T00:00:00	2024-11-08T09:00:00	5	Humedad	65
20733	7	Sololá	712	San Antonio Palopó	9	San Antonio Palopo	11	Noviembre	2023-11-23T00:00:00	2024-11-08T09:00:00	6	Velocidad del viento	8
20734	7	Sololá	712	San Antonio Palopó	9	San Antonio Palopo	11	Noviembre	2023-11-23T00:00:00	2024-11-08T09:00:00	7	Dirección del viento	8.05
20735	7	Sololá	712	San Antonio Palopó	9	San Antonio Palopo	11	Noviembre	2023-11-23T00:00:00	2024-11-08T09:00:00	1	Precipitación	0
20736	7	Sololá	712	San Antonio Palopó	9	San Antonio Palopo	11	Noviembre	2023-11-23T00:00:00	2024-11-08T09:00:00	8	Radiación solar	329
20737	7	Sololá	712	San Antonio Palopó	9	San Antonio Palopo	11	Noviembre	2023-11-23T00:00:00	2024-11-08T10:00:00	2	Temperatura media	22.9
20738	7	Sololá	712	San Antonio Palopó	9	San Antonio Palopo	11	Noviembre	2023-11-23T00:00:00	2024-11-08T10:00:00	4	Temperatura máxima	23.3
20739	7	Sololá	712	San Antonio Palopó	9	San Antonio Palopo	11	Noviembre	2023-11-23T00:00:00	2024-11-08T10:00:00	3	Temperatura mínima	22.1
20740	7	Sololá	712	San Antonio Palopó	9	San Antonio Palopo	11	Noviembre	2023-11-23T00:00:00	2024-11-08T10:00:00	5	Humedad	61
20741	7	Sololá	712	San Antonio Palopó	9	San Antonio Palopo	11	Noviembre	2023-11-23T00:00:00	2024-11-08T10:00:00	6	Velocidad del viento	6.4
20742	7	Sololá	712	San Antonio Palopó	9	San Antonio Palopo	11	Noviembre	2023-11-23T00:00:00	2024-11-08T10:00:00	7	Dirección del viento	6.44
20743	7	Sololá	712	San Antonio Palopó	9	San Antonio Palopo	11	Noviembre	2023-11-23T00:00:00	2024-11-08T10:00:00	1	Precipitación	0
20744	7	Sololá	712	San Antonio Palopó	9	San Antonio Palopo	11	Noviembre	2023-11-23T00:00:00	2024-11-08T10:00:00	8	Radiación solar	600
20745	7	Sololá	712	San Antonio Palopó	9	San Antonio Palopo	11	Noviembre	2023-11-23T00:00:00	2024-11-08T11:00:00	2	Temperatura media	23.7
20746	7	Sololá	712	San Antonio Palopó	9	San Antonio Palopo	11	Noviembre	2023-11-23T00:00:00	2024-11-08T11:00:00	4	Temperatura máxima	24.1
20747	7	Sololá	712	San Antonio Palopó	9	San Antonio Palopo	11	Noviembre	2023-11-23T00:00:00	2024-11-08T11:00:00	3	Temperatura mínima	22.3
20748	7	Sololá	712	San Antonio Palopó	9	San Antonio Palopo	11	Noviembre	2023-11-23T00:00:00	2024-11-08T11:00:00	5	Humedad	58
20749	7	Sololá	712	San Antonio Palopó	9	San Antonio Palopo	11	Noviembre	2023-11-23T00:00:00	2024-11-08T11:00:00	6	Velocidad del viento	6.4
20750	7	Sololá	712	San Antonio Palopó	9	San Antonio Palopo	11	Noviembre	2023-11-23T00:00:00	2024-11-08T11:00:00	7	Dirección del viento	6.44
20751	7	Sololá	712	San Antonio Palopó	9	San Antonio Palopo	11	Noviembre	2023-11-23T00:00:00	2024-11-08T11:00:00	1	Precipitación	0
20752	7	Sololá	712	San Antonio Palopó	9	San Antonio Palopo	11	Noviembre	2023-11-23T00:00:00	2024-11-08T11:00:00	8	Radiación solar	722
20753	7	Sololá	712	San Antonio Palopó	9	San Antonio Palopo	11	Noviembre	2023-11-23T00:00:00	2024-11-08T12:00:00	2	Temperatura media	23.4
20754	7	Sololá	712	San Antonio Palopó	9	San Antonio Palopo	11	Noviembre	2023-11-23T00:00:00	2024-11-08T12:00:00	4	Temperatura máxima	24.3
20755	7	Sololá	712	San Antonio Palopó	9	San Antonio Palopo	11	Noviembre	2023-11-23T00:00:00	2024-11-08T12:00:00	3	Temperatura mínima	23.4
20756	7	Sololá	712	San Antonio Palopó	9	San Antonio Palopo	11	Noviembre	2023-11-23T00:00:00	2024-11-08T12:00:00	5	Humedad	72
20757	7	Sololá	712	San Antonio Palopó	9	San Antonio Palopo	11	Noviembre	2023-11-23T00:00:00	2024-11-08T12:00:00	6	Velocidad del viento	9.7
20758	7	Sololá	712	San Antonio Palopó	9	San Antonio Palopo	11	Noviembre	2023-11-23T00:00:00	2024-11-08T12:00:00	7	Dirección del viento	9.66
20759	7	Sololá	712	San Antonio Palopó	9	San Antonio Palopo	11	Noviembre	2023-11-23T00:00:00	2024-11-08T12:00:00	1	Precipitación	0
20760	7	Sololá	712	San Antonio Palopó	9	San Antonio Palopo	11	Noviembre	2023-11-23T00:00:00	2024-11-08T12:00:00	8	Radiación solar	692
20761	7	Sololá	712	San Antonio Palopó	9	San Antonio Palopo	11	Noviembre	2023-11-23T00:00:00	2024-11-08T13:00:00	2	Temperatura media	22.9
20762	7	Sololá	712	San Antonio Palopó	9	San Antonio Palopo	11	Noviembre	2023-11-23T00:00:00	2024-11-08T13:00:00	4	Temperatura máxima	23.4
20763	7	Sololá	712	San Antonio Palopó	9	San Antonio Palopo	11	Noviembre	2023-11-23T00:00:00	2024-11-08T13:00:00	3	Temperatura mínima	22.9
20764	7	Sololá	712	San Antonio Palopó	9	San Antonio Palopo	11	Noviembre	2023-11-23T00:00:00	2024-11-08T13:00:00	5	Humedad	73
20765	7	Sololá	712	San Antonio Palopó	9	San Antonio Palopo	11	Noviembre	2023-11-23T00:00:00	2024-11-08T13:00:00	6	Velocidad del viento	9.7
20766	7	Sololá	712	San Antonio Palopó	9	San Antonio Palopo	11	Noviembre	2023-11-23T00:00:00	2024-11-08T13:00:00	7	Dirección del viento	9.66
20767	7	Sololá	712	San Antonio Palopó	9	San Antonio Palopo	11	Noviembre	2023-11-23T00:00:00	2024-11-08T13:00:00	1	Precipitación	0
20768	7	Sololá	712	San Antonio Palopó	9	San Antonio Palopo	11	Noviembre	2023-11-23T00:00:00	2024-11-08T13:00:00	8	Radiación solar	632
20769	7	Sololá	712	San Antonio Palopó	9	San Antonio Palopo	11	Noviembre	2023-11-23T00:00:00	2024-11-08T14:00:00	2	Temperatura media	22.1
20770	7	Sololá	712	San Antonio Palopó	9	San Antonio Palopo	11	Noviembre	2023-11-23T00:00:00	2024-11-08T14:00:00	4	Temperatura máxima	22.9
20771	7	Sololá	712	San Antonio Palopó	9	San Antonio Palopo	11	Noviembre	2023-11-23T00:00:00	2024-11-08T14:00:00	3	Temperatura mínima	21.9
20772	7	Sololá	712	San Antonio Palopó	9	San Antonio Palopo	11	Noviembre	2023-11-23T00:00:00	2024-11-08T14:00:00	5	Humedad	75
20773	7	Sololá	712	San Antonio Palopó	9	San Antonio Palopo	11	Noviembre	2023-11-23T00:00:00	2024-11-08T14:00:00	6	Velocidad del viento	11.3
20774	7	Sololá	712	San Antonio Palopó	9	San Antonio Palopo	11	Noviembre	2023-11-23T00:00:00	2024-11-08T14:00:00	7	Dirección del viento	11.27
20775	7	Sololá	712	San Antonio Palopó	9	San Antonio Palopo	11	Noviembre	2023-11-23T00:00:00	2024-11-08T14:00:00	1	Precipitación	0
20776	7	Sololá	712	San Antonio Palopó	9	San Antonio Palopo	11	Noviembre	2023-11-23T00:00:00	2024-11-08T14:00:00	8	Radiación solar	163
20777	7	Sololá	712	San Antonio Palopó	9	San Antonio Palopo	11	Noviembre	2023-11-23T00:00:00	2024-11-08T15:00:00	2	Temperatura media	22.6
20778	7	Sololá	712	San Antonio Palopó	9	San Antonio Palopo	11	Noviembre	2023-11-23T00:00:00	2024-11-08T15:00:00	4	Temperatura máxima	23.1
20779	7	Sololá	712	San Antonio Palopó	9	San Antonio Palopo	11	Noviembre	2023-11-23T00:00:00	2024-11-08T15:00:00	3	Temperatura mínima	22.1
20780	7	Sololá	712	San Antonio Palopó	9	San Antonio Palopo	11	Noviembre	2023-11-23T00:00:00	2024-11-08T15:00:00	5	Humedad	74
20781	7	Sololá	712	San Antonio Palopó	9	San Antonio Palopo	11	Noviembre	2023-11-23T00:00:00	2024-11-08T15:00:00	6	Velocidad del viento	8
20782	7	Sololá	712	San Antonio Palopó	9	San Antonio Palopo	11	Noviembre	2023-11-23T00:00:00	2024-11-08T15:00:00	7	Dirección del viento	8.05
20783	7	Sololá	712	San Antonio Palopó	9	San Antonio Palopo	11	Noviembre	2023-11-23T00:00:00	2024-11-08T15:00:00	1	Precipitación	0
20784	7	Sololá	712	San Antonio Palopó	9	San Antonio Palopo	11	Noviembre	2023-11-23T00:00:00	2024-11-08T15:00:00	8	Radiación solar	323
20785	7	Sololá	712	San Antonio Palopó	9	San Antonio Palopo	11	Noviembre	2023-11-23T00:00:00	2024-11-08T16:00:00	2	Temperatura media	22.6
20786	7	Sololá	712	San Antonio Palopó	9	San Antonio Palopo	11	Noviembre	2023-11-23T00:00:00	2024-11-08T16:00:00	4	Temperatura máxima	22.8
20787	7	Sololá	712	San Antonio Palopó	9	San Antonio Palopo	11	Noviembre	2023-11-23T00:00:00	2024-11-08T16:00:00	3	Temperatura mínima	21.7
20788	7	Sololá	712	San Antonio Palopó	9	San Antonio Palopo	11	Noviembre	2023-11-23T00:00:00	2024-11-08T16:00:00	5	Humedad	75
20789	7	Sololá	712	San Antonio Palopó	9	San Antonio Palopo	11	Noviembre	2023-11-23T00:00:00	2024-11-08T16:00:00	6	Velocidad del viento	9.7
20790	7	Sololá	712	San Antonio Palopó	9	San Antonio Palopo	11	Noviembre	2023-11-23T00:00:00	2024-11-08T16:00:00	7	Dirección del viento	9.66
20791	7	Sololá	712	San Antonio Palopó	9	San Antonio Palopo	11	Noviembre	2023-11-23T00:00:00	2024-11-08T16:00:00	1	Precipitación	0
20792	7	Sololá	712	San Antonio Palopó	9	San Antonio Palopo	11	Noviembre	2023-11-23T00:00:00	2024-11-08T16:00:00	8	Radiación solar	203
20793	7	Sololá	712	San Antonio Palopó	9	San Antonio Palopo	11	Noviembre	2023-11-23T00:00:00	2024-11-08T17:00:00	2	Temperatura media	21.9
20794	7	Sololá	712	San Antonio Palopó	9	San Antonio Palopo	11	Noviembre	2023-11-23T00:00:00	2024-11-08T17:00:00	4	Temperatura máxima	22.7
20795	7	Sololá	712	San Antonio Palopó	9	San Antonio Palopo	11	Noviembre	2023-11-23T00:00:00	2024-11-08T17:00:00	3	Temperatura mínima	21.8
20796	7	Sololá	712	San Antonio Palopó	9	San Antonio Palopo	11	Noviembre	2023-11-23T00:00:00	2024-11-08T17:00:00	5	Humedad	75
20797	7	Sololá	712	San Antonio Palopó	9	San Antonio Palopo	11	Noviembre	2023-11-23T00:00:00	2024-11-08T17:00:00	6	Velocidad del viento	8
20798	7	Sololá	712	San Antonio Palopó	9	San Antonio Palopo	11	Noviembre	2023-11-23T00:00:00	2024-11-08T17:00:00	7	Dirección del viento	8.05
20799	7	Sololá	712	San Antonio Palopó	9	San Antonio Palopo	11	Noviembre	2023-11-23T00:00:00	2024-11-08T17:00:00	1	Precipitación	0
20800	7	Sololá	712	San Antonio Palopó	9	San Antonio Palopo	11	Noviembre	2023-11-23T00:00:00	2024-11-08T17:00:00	8	Radiación solar	150
20801	7	Sololá	712	San Antonio Palopó	9	San Antonio Palopo	11	Noviembre	2023-11-23T00:00:00	2024-11-08T18:00:00	2	Temperatura media	19.9
20802	7	Sololá	712	San Antonio Palopó	9	San Antonio Palopo	11	Noviembre	2023-11-23T00:00:00	2024-11-08T18:00:00	4	Temperatura máxima	22.1
20803	7	Sololá	712	San Antonio Palopó	9	San Antonio Palopo	11	Noviembre	2023-11-23T00:00:00	2024-11-08T18:00:00	3	Temperatura mínima	19.9
20804	7	Sololá	712	San Antonio Palopó	9	San Antonio Palopo	11	Noviembre	2023-11-23T00:00:00	2024-11-08T18:00:00	5	Humedad	82
20805	7	Sololá	712	San Antonio Palopó	9	San Antonio Palopo	11	Noviembre	2023-11-23T00:00:00	2024-11-08T18:00:00	6	Velocidad del viento	4.8
20806	7	Sololá	712	San Antonio Palopó	9	San Antonio Palopo	11	Noviembre	2023-11-23T00:00:00	2024-11-08T18:00:00	7	Dirección del viento	4.83
20807	7	Sololá	712	San Antonio Palopó	9	San Antonio Palopo	11	Noviembre	2023-11-23T00:00:00	2024-11-08T18:00:00	1	Precipitación	0
20808	7	Sololá	712	San Antonio Palopó	9	San Antonio Palopo	11	Noviembre	2023-11-23T00:00:00	2024-11-08T18:00:00	8	Radiación solar	13
20809	7	Sololá	712	San Antonio Palopó	9	San Antonio Palopo	11	Noviembre	2023-11-23T00:00:00	2024-11-08T19:00:00	2	Temperatura media	19.6
20810	7	Sololá	712	San Antonio Palopó	9	San Antonio Palopo	11	Noviembre	2023-11-23T00:00:00	2024-11-08T19:00:00	4	Temperatura máxima	19.9
20811	7	Sololá	712	San Antonio Palopó	9	San Antonio Palopo	11	Noviembre	2023-11-23T00:00:00	2024-11-08T19:00:00	3	Temperatura mínima	19.4
20812	7	Sololá	712	San Antonio Palopó	9	San Antonio Palopo	11	Noviembre	2023-11-23T00:00:00	2024-11-08T19:00:00	5	Humedad	80
20813	7	Sololá	712	San Antonio Palopó	9	San Antonio Palopo	11	Noviembre	2023-11-23T00:00:00	2024-11-08T19:00:00	6	Velocidad del viento	4.8
20814	7	Sololá	712	San Antonio Palopó	9	San Antonio Palopo	11	Noviembre	2023-11-23T00:00:00	2024-11-08T19:00:00	7	Dirección del viento	4.83
20815	7	Sololá	712	San Antonio Palopó	9	San Antonio Palopo	11	Noviembre	2023-11-23T00:00:00	2024-11-08T19:00:00	1	Precipitación	0
20816	7	Sololá	712	San Antonio Palopó	9	San Antonio Palopo	11	Noviembre	2023-11-23T00:00:00	2024-11-08T19:00:00	8	Radiación solar	0
20817	7	Sololá	712	San Antonio Palopó	9	San Antonio Palopo	11	Noviembre	2023-11-23T00:00:00	2024-11-08T20:00:00	2	Temperatura media	19.7
20818	7	Sololá	712	San Antonio Palopó	9	San Antonio Palopo	11	Noviembre	2023-11-23T00:00:00	2024-11-08T20:00:00	4	Temperatura máxima	20
20819	7	Sololá	712	San Antonio Palopó	9	San Antonio Palopo	11	Noviembre	2023-11-23T00:00:00	2024-11-08T20:00:00	3	Temperatura mínima	19.4
20820	7	Sololá	712	San Antonio Palopó	9	San Antonio Palopo	11	Noviembre	2023-11-23T00:00:00	2024-11-08T20:00:00	5	Humedad	71
20821	7	Sololá	712	San Antonio Palopó	9	San Antonio Palopo	11	Noviembre	2023-11-23T00:00:00	2024-11-08T20:00:00	6	Velocidad del viento	9.7
20822	7	Sololá	712	San Antonio Palopó	9	San Antonio Palopo	11	Noviembre	2023-11-23T00:00:00	2024-11-08T20:00:00	7	Dirección del viento	9.66
20823	7	Sololá	712	San Antonio Palopó	9	San Antonio Palopo	11	Noviembre	2023-11-23T00:00:00	2024-11-08T20:00:00	1	Precipitación	0
20824	7	Sololá	712	San Antonio Palopó	9	San Antonio Palopo	11	Noviembre	2023-11-23T00:00:00	2024-11-08T20:00:00	8	Radiación solar	0
20825	7	Sololá	712	San Antonio Palopó	9	San Antonio Palopo	11	Noviembre	2023-11-23T00:00:00	2024-11-08T21:00:00	2	Temperatura media	19.3
20826	7	Sololá	712	San Antonio Palopó	9	San Antonio Palopo	11	Noviembre	2023-11-23T00:00:00	2024-11-08T21:00:00	4	Temperatura máxima	19.8
20827	7	Sololá	712	San Antonio Palopó	9	San Antonio Palopo	11	Noviembre	2023-11-23T00:00:00	2024-11-08T21:00:00	3	Temperatura mínima	19.3
20828	7	Sololá	712	San Antonio Palopó	9	San Antonio Palopo	11	Noviembre	2023-11-23T00:00:00	2024-11-08T21:00:00	5	Humedad	71
20829	7	Sololá	712	San Antonio Palopó	9	San Antonio Palopo	11	Noviembre	2023-11-23T00:00:00	2024-11-08T21:00:00	6	Velocidad del viento	12.9
20830	7	Sololá	712	San Antonio Palopó	9	San Antonio Palopo	11	Noviembre	2023-11-23T00:00:00	2024-11-08T21:00:00	7	Dirección del viento	12.87
20831	7	Sololá	712	San Antonio Palopó	9	San Antonio Palopo	11	Noviembre	2023-11-23T00:00:00	2024-11-08T21:00:00	1	Precipitación	0
20832	7	Sololá	712	San Antonio Palopó	9	San Antonio Palopo	11	Noviembre	2023-11-23T00:00:00	2024-11-08T21:00:00	8	Radiación solar	0
20833	7	Sololá	712	San Antonio Palopó	9	San Antonio Palopo	11	Noviembre	2023-11-23T00:00:00	2024-11-08T22:00:00	2	Temperatura media	18.8
20834	7	Sololá	712	San Antonio Palopó	9	San Antonio Palopo	11	Noviembre	2023-11-23T00:00:00	2024-11-08T22:00:00	4	Temperatura máxima	19.3
20835	7	Sololá	712	San Antonio Palopó	9	San Antonio Palopo	11	Noviembre	2023-11-23T00:00:00	2024-11-08T22:00:00	3	Temperatura mínima	18.8
20836	7	Sololá	712	San Antonio Palopó	9	San Antonio Palopo	11	Noviembre	2023-11-23T00:00:00	2024-11-08T22:00:00	5	Humedad	72
20837	7	Sololá	712	San Antonio Palopó	9	San Antonio Palopo	11	Noviembre	2023-11-23T00:00:00	2024-11-08T22:00:00	6	Velocidad del viento	14.5
20838	7	Sololá	712	San Antonio Palopó	9	San Antonio Palopo	11	Noviembre	2023-11-23T00:00:00	2024-11-08T22:00:00	7	Dirección del viento	14.48
20839	7	Sololá	712	San Antonio Palopó	9	San Antonio Palopo	11	Noviembre	2023-11-23T00:00:00	2024-11-08T22:00:00	1	Precipitación	0
20840	7	Sololá	712	San Antonio Palopó	9	San Antonio Palopo	11	Noviembre	2023-11-23T00:00:00	2024-11-08T22:00:00	8	Radiación solar	0
20841	7	Sololá	712	San Antonio Palopó	9	San Antonio Palopo	11	Noviembre	2023-11-23T00:00:00	2024-11-08T23:00:00	2	Temperatura media	18.6
20842	7	Sololá	712	San Antonio Palopó	9	San Antonio Palopo	11	Noviembre	2023-11-23T00:00:00	2024-11-08T23:00:00	4	Temperatura máxima	18.8
20843	7	Sololá	712	San Antonio Palopó	9	San Antonio Palopo	11	Noviembre	2023-11-23T00:00:00	2024-11-08T23:00:00	3	Temperatura mínima	18.6
20844	7	Sololá	712	San Antonio Palopó	9	San Antonio Palopo	11	Noviembre	2023-11-23T00:00:00	2024-11-08T23:00:00	5	Humedad	71
20845	7	Sololá	712	San Antonio Palopó	9	San Antonio Palopo	11	Noviembre	2023-11-23T00:00:00	2024-11-08T23:00:00	6	Velocidad del viento	11.3
20846	7	Sololá	712	San Antonio Palopó	9	San Antonio Palopo	11	Noviembre	2023-11-23T00:00:00	2024-11-08T23:00:00	7	Dirección del viento	11.27
20847	7	Sololá	712	San Antonio Palopó	9	San Antonio Palopo	11	Noviembre	2023-11-23T00:00:00	2024-11-08T23:00:00	1	Precipitación	0
20848	7	Sololá	712	San Antonio Palopó	9	San Antonio Palopo	11	Noviembre	2023-11-23T00:00:00	2024-11-08T23:00:00	8	Radiación solar	0
20849	7	Sololá	712	San Antonio Palopó	9	San Antonio Palopo	11	Noviembre	2023-11-24T00:00:00	2024-11-08T00:00:00	2	Temperatura media	18.7
20850	7	Sololá	712	San Antonio Palopó	9	San Antonio Palopo	11	Noviembre	2023-11-24T00:00:00	2024-11-08T00:00:00	4	Temperatura máxima	18.9
20851	7	Sololá	712	San Antonio Palopó	9	San Antonio Palopo	11	Noviembre	2023-11-24T00:00:00	2024-11-08T00:00:00	3	Temperatura mínima	18.5
20852	7	Sololá	712	San Antonio Palopó	9	San Antonio Palopo	11	Noviembre	2023-11-24T00:00:00	2024-11-08T00:00:00	5	Humedad	70
20853	7	Sololá	712	San Antonio Palopó	9	San Antonio Palopo	11	Noviembre	2023-11-24T00:00:00	2024-11-08T00:00:00	6	Velocidad del viento	6.4
20854	7	Sololá	712	San Antonio Palopó	9	San Antonio Palopo	11	Noviembre	2023-11-24T00:00:00	2024-11-08T00:00:00	7	Dirección del viento	6.44
20855	7	Sololá	712	San Antonio Palopó	9	San Antonio Palopo	11	Noviembre	2023-11-24T00:00:00	2024-11-08T00:00:00	1	Precipitación	0
20856	7	Sololá	712	San Antonio Palopó	9	San Antonio Palopo	11	Noviembre	2023-11-24T00:00:00	2024-11-08T00:00:00	8	Radiación solar	0
20857	7	Sololá	712	San Antonio Palopó	9	San Antonio Palopo	11	Noviembre	2023-11-24T00:00:00	2024-11-08T01:00:00	2	Temperatura media	17.8
20858	7	Sololá	712	San Antonio Palopó	9	San Antonio Palopo	11	Noviembre	2023-11-24T00:00:00	2024-11-08T01:00:00	4	Temperatura máxima	18.7
20859	7	Sololá	712	San Antonio Palopó	9	San Antonio Palopo	11	Noviembre	2023-11-24T00:00:00	2024-11-08T01:00:00	3	Temperatura mínima	17.8
20860	7	Sololá	712	San Antonio Palopó	9	San Antonio Palopo	11	Noviembre	2023-11-24T00:00:00	2024-11-08T01:00:00	5	Humedad	72
20861	7	Sololá	712	San Antonio Palopó	9	San Antonio Palopo	11	Noviembre	2023-11-24T00:00:00	2024-11-08T01:00:00	6	Velocidad del viento	4.8
20862	7	Sololá	712	San Antonio Palopó	9	San Antonio Palopo	11	Noviembre	2023-11-24T00:00:00	2024-11-08T01:00:00	7	Dirección del viento	4.83
20863	7	Sololá	712	San Antonio Palopó	9	San Antonio Palopo	11	Noviembre	2023-11-24T00:00:00	2024-11-08T01:00:00	1	Precipitación	0
20864	7	Sololá	712	San Antonio Palopó	9	San Antonio Palopo	11	Noviembre	2023-11-24T00:00:00	2024-11-08T01:00:00	8	Radiación solar	0
20865	7	Sololá	712	San Antonio Palopó	9	San Antonio Palopo	11	Noviembre	2023-11-24T00:00:00	2024-11-08T02:00:00	2	Temperatura media	17.9
20866	7	Sololá	712	San Antonio Palopó	9	San Antonio Palopo	11	Noviembre	2023-11-24T00:00:00	2024-11-08T02:00:00	4	Temperatura máxima	18
20867	7	Sololá	712	San Antonio Palopó	9	San Antonio Palopo	11	Noviembre	2023-11-24T00:00:00	2024-11-08T02:00:00	3	Temperatura mínima	17.3
20868	7	Sololá	712	San Antonio Palopó	9	San Antonio Palopo	11	Noviembre	2023-11-24T00:00:00	2024-11-08T02:00:00	5	Humedad	73
20869	7	Sololá	712	San Antonio Palopó	9	San Antonio Palopo	11	Noviembre	2023-11-24T00:00:00	2024-11-08T02:00:00	6	Velocidad del viento	3.2
20870	7	Sololá	712	San Antonio Palopó	9	San Antonio Palopo	11	Noviembre	2023-11-24T00:00:00	2024-11-08T02:00:00	7	Dirección del viento	3.22
20871	7	Sololá	712	San Antonio Palopó	9	San Antonio Palopo	11	Noviembre	2023-11-24T00:00:00	2024-11-08T02:00:00	1	Precipitación	0
20872	7	Sololá	712	San Antonio Palopó	9	San Antonio Palopo	11	Noviembre	2023-11-24T00:00:00	2024-11-08T02:00:00	8	Radiación solar	0
20873	7	Sololá	712	San Antonio Palopó	9	San Antonio Palopo	11	Noviembre	2023-11-24T00:00:00	2024-11-08T03:00:00	2	Temperatura media	16.9
20874	7	Sololá	712	San Antonio Palopó	9	San Antonio Palopo	11	Noviembre	2023-11-24T00:00:00	2024-11-08T03:00:00	4	Temperatura máxima	17.9
20875	7	Sololá	712	San Antonio Palopó	9	San Antonio Palopo	11	Noviembre	2023-11-24T00:00:00	2024-11-08T03:00:00	3	Temperatura mínima	16.8
20876	7	Sololá	712	San Antonio Palopó	9	San Antonio Palopo	11	Noviembre	2023-11-24T00:00:00	2024-11-08T03:00:00	5	Humedad	76
20877	7	Sololá	712	San Antonio Palopó	9	San Antonio Palopo	11	Noviembre	2023-11-24T00:00:00	2024-11-08T03:00:00	6	Velocidad del viento	4.8
20878	7	Sololá	712	San Antonio Palopó	9	San Antonio Palopo	11	Noviembre	2023-11-24T00:00:00	2024-11-08T03:00:00	7	Dirección del viento	4.83
20879	7	Sololá	712	San Antonio Palopó	9	San Antonio Palopo	11	Noviembre	2023-11-24T00:00:00	2024-11-08T03:00:00	1	Precipitación	0
20880	7	Sololá	712	San Antonio Palopó	9	San Antonio Palopo	11	Noviembre	2023-11-24T00:00:00	2024-11-08T03:00:00	8	Radiación solar	0
20881	7	Sololá	712	San Antonio Palopó	9	San Antonio Palopo	11	Noviembre	2023-11-24T00:00:00	2024-11-08T04:00:00	2	Temperatura media	17.4
20882	7	Sololá	712	San Antonio Palopó	9	San Antonio Palopo	11	Noviembre	2023-11-24T00:00:00	2024-11-08T04:00:00	4	Temperatura máxima	17.6
20883	7	Sololá	712	San Antonio Palopó	9	San Antonio Palopo	11	Noviembre	2023-11-24T00:00:00	2024-11-08T04:00:00	3	Temperatura mínima	16.9
20884	7	Sololá	712	San Antonio Palopó	9	San Antonio Palopo	11	Noviembre	2023-11-24T00:00:00	2024-11-08T04:00:00	5	Humedad	74
20885	7	Sololá	712	San Antonio Palopó	9	San Antonio Palopo	11	Noviembre	2023-11-24T00:00:00	2024-11-08T04:00:00	6	Velocidad del viento	3.2
20886	7	Sololá	712	San Antonio Palopó	9	San Antonio Palopo	11	Noviembre	2023-11-24T00:00:00	2024-11-08T04:00:00	7	Dirección del viento	3.22
20887	7	Sololá	712	San Antonio Palopó	9	San Antonio Palopo	11	Noviembre	2023-11-24T00:00:00	2024-11-08T04:00:00	1	Precipitación	0
20888	7	Sololá	712	San Antonio Palopó	9	San Antonio Palopo	11	Noviembre	2023-11-24T00:00:00	2024-11-08T04:00:00	8	Radiación solar	0
20889	7	Sololá	712	San Antonio Palopó	9	San Antonio Palopo	11	Noviembre	2023-11-24T00:00:00	2024-11-08T05:00:00	2	Temperatura media	16.7
20890	7	Sololá	712	San Antonio Palopó	9	San Antonio Palopo	11	Noviembre	2023-11-24T00:00:00	2024-11-08T05:00:00	4	Temperatura máxima	17.6
20891	7	Sololá	712	San Antonio Palopó	9	San Antonio Palopo	11	Noviembre	2023-11-24T00:00:00	2024-11-08T05:00:00	3	Temperatura mínima	16.7
20892	7	Sololá	712	San Antonio Palopó	9	San Antonio Palopo	11	Noviembre	2023-11-24T00:00:00	2024-11-08T05:00:00	5	Humedad	76
20893	7	Sololá	712	San Antonio Palopó	9	San Antonio Palopo	11	Noviembre	2023-11-24T00:00:00	2024-11-08T05:00:00	6	Velocidad del viento	3.2
20894	7	Sololá	712	San Antonio Palopó	9	San Antonio Palopo	11	Noviembre	2023-11-24T00:00:00	2024-11-08T05:00:00	7	Dirección del viento	3.22
20895	7	Sololá	712	San Antonio Palopó	9	San Antonio Palopo	11	Noviembre	2023-11-24T00:00:00	2024-11-08T05:00:00	1	Precipitación	0
20896	7	Sololá	712	San Antonio Palopó	9	San Antonio Palopo	11	Noviembre	2023-11-24T00:00:00	2024-11-08T05:00:00	8	Radiación solar	0
20897	7	Sololá	712	San Antonio Palopó	9	San Antonio Palopo	11	Noviembre	2023-11-24T00:00:00	2024-11-08T06:00:00	2	Temperatura media	17.1
20898	7	Sololá	712	San Antonio Palopó	9	San Antonio Palopo	11	Noviembre	2023-11-24T00:00:00	2024-11-08T06:00:00	4	Temperatura máxima	17.1
20899	7	Sololá	712	San Antonio Palopó	9	San Antonio Palopo	11	Noviembre	2023-11-24T00:00:00	2024-11-08T06:00:00	3	Temperatura mínima	16.6
20900	7	Sololá	712	San Antonio Palopó	9	San Antonio Palopo	11	Noviembre	2023-11-24T00:00:00	2024-11-08T06:00:00	5	Humedad	76
20901	7	Sololá	712	San Antonio Palopó	9	San Antonio Palopo	11	Noviembre	2023-11-24T00:00:00	2024-11-08T06:00:00	6	Velocidad del viento	3.2
20902	7	Sololá	712	San Antonio Palopó	9	San Antonio Palopo	11	Noviembre	2023-11-24T00:00:00	2024-11-08T06:00:00	7	Dirección del viento	3.22
20903	7	Sololá	712	San Antonio Palopó	9	San Antonio Palopo	11	Noviembre	2023-11-24T00:00:00	2024-11-08T06:00:00	1	Precipitación	0
20904	7	Sololá	712	San Antonio Palopó	9	San Antonio Palopo	11	Noviembre	2023-11-24T00:00:00	2024-11-08T06:00:00	8	Radiación solar	0
20905	7	Sololá	712	San Antonio Palopó	9	San Antonio Palopo	11	Noviembre	2023-11-24T00:00:00	2024-11-08T07:00:00	2	Temperatura media	17.4
20906	7	Sololá	712	San Antonio Palopó	9	San Antonio Palopo	11	Noviembre	2023-11-24T00:00:00	2024-11-08T07:00:00	4	Temperatura máxima	17.4
20907	7	Sololá	712	San Antonio Palopó	9	San Antonio Palopo	11	Noviembre	2023-11-24T00:00:00	2024-11-08T07:00:00	3	Temperatura mínima	16.8
20908	7	Sololá	712	San Antonio Palopó	9	San Antonio Palopo	11	Noviembre	2023-11-24T00:00:00	2024-11-08T07:00:00	5	Humedad	73
20909	7	Sololá	712	San Antonio Palopó	9	San Antonio Palopo	11	Noviembre	2023-11-24T00:00:00	2024-11-08T07:00:00	6	Velocidad del viento	3.2
20910	7	Sololá	712	San Antonio Palopó	9	San Antonio Palopo	11	Noviembre	2023-11-24T00:00:00	2024-11-08T07:00:00	7	Dirección del viento	3.22
20911	7	Sololá	712	San Antonio Palopó	9	San Antonio Palopo	11	Noviembre	2023-11-24T00:00:00	2024-11-08T07:00:00	1	Precipitación	0
20912	7	Sololá	712	San Antonio Palopó	9	San Antonio Palopo	11	Noviembre	2023-11-24T00:00:00	2024-11-08T07:00:00	8	Radiación solar	9
20913	7	Sololá	712	San Antonio Palopó	9	San Antonio Palopo	11	Noviembre	2023-11-24T00:00:00	2024-11-08T08:00:00	2	Temperatura media	17.9
20914	7	Sololá	712	San Antonio Palopó	9	San Antonio Palopo	11	Noviembre	2023-11-24T00:00:00	2024-11-08T08:00:00	4	Temperatura máxima	18
20915	7	Sololá	712	San Antonio Palopó	9	San Antonio Palopo	11	Noviembre	2023-11-24T00:00:00	2024-11-08T08:00:00	3	Temperatura mínima	17.4
20916	7	Sololá	712	San Antonio Palopó	9	San Antonio Palopo	11	Noviembre	2023-11-24T00:00:00	2024-11-08T08:00:00	5	Humedad	77
20917	7	Sololá	712	San Antonio Palopó	9	San Antonio Palopo	11	Noviembre	2023-11-24T00:00:00	2024-11-08T08:00:00	6	Velocidad del viento	3.2
20918	7	Sololá	712	San Antonio Palopó	9	San Antonio Palopo	11	Noviembre	2023-11-24T00:00:00	2024-11-08T08:00:00	7	Dirección del viento	3.22
20919	7	Sololá	712	San Antonio Palopó	9	San Antonio Palopo	11	Noviembre	2023-11-24T00:00:00	2024-11-08T08:00:00	1	Precipitación	0
20920	7	Sololá	712	San Antonio Palopó	9	San Antonio Palopo	11	Noviembre	2023-11-24T00:00:00	2024-11-08T08:00:00	8	Radiación solar	20
20921	7	Sololá	712	San Antonio Palopó	9	San Antonio Palopo	11	Noviembre	2023-11-24T00:00:00	2024-11-08T09:00:00	2	Temperatura media	20.4
20922	7	Sololá	712	San Antonio Palopó	9	San Antonio Palopo	11	Noviembre	2023-11-24T00:00:00	2024-11-08T09:00:00	4	Temperatura máxima	20.4
20923	7	Sololá	712	San Antonio Palopó	9	San Antonio Palopo	11	Noviembre	2023-11-24T00:00:00	2024-11-08T09:00:00	3	Temperatura mínima	17.8
20924	7	Sololá	712	San Antonio Palopó	9	San Antonio Palopo	11	Noviembre	2023-11-24T00:00:00	2024-11-08T09:00:00	5	Humedad	72
20925	7	Sololá	712	San Antonio Palopó	9	San Antonio Palopo	11	Noviembre	2023-11-24T00:00:00	2024-11-08T09:00:00	6	Velocidad del viento	1.6
20926	7	Sololá	712	San Antonio Palopó	9	San Antonio Palopo	11	Noviembre	2023-11-24T00:00:00	2024-11-08T09:00:00	7	Dirección del viento	1.61
20927	7	Sololá	712	San Antonio Palopó	9	San Antonio Palopo	11	Noviembre	2023-11-24T00:00:00	2024-11-08T09:00:00	1	Precipitación	0
20928	7	Sololá	712	San Antonio Palopó	9	San Antonio Palopo	11	Noviembre	2023-11-24T00:00:00	2024-11-08T09:00:00	8	Radiación solar	315
20929	7	Sololá	712	San Antonio Palopó	9	San Antonio Palopo	11	Noviembre	2023-11-24T00:00:00	2024-11-08T10:00:00	2	Temperatura media	20.4
20930	7	Sololá	712	San Antonio Palopó	9	San Antonio Palopo	11	Noviembre	2023-11-24T00:00:00	2024-11-08T10:00:00	4	Temperatura máxima	20.9
20931	7	Sololá	712	San Antonio Palopó	9	San Antonio Palopo	11	Noviembre	2023-11-24T00:00:00	2024-11-08T10:00:00	3	Temperatura mínima	20
20932	7	Sololá	712	San Antonio Palopó	9	San Antonio Palopo	11	Noviembre	2023-11-24T00:00:00	2024-11-08T10:00:00	5	Humedad	76
20933	7	Sololá	712	San Antonio Palopó	9	San Antonio Palopo	11	Noviembre	2023-11-24T00:00:00	2024-11-08T10:00:00	6	Velocidad del viento	3.2
20934	7	Sololá	712	San Antonio Palopó	9	San Antonio Palopo	11	Noviembre	2023-11-24T00:00:00	2024-11-08T10:00:00	7	Dirección del viento	3.22
20935	7	Sololá	712	San Antonio Palopó	9	San Antonio Palopo	11	Noviembre	2023-11-24T00:00:00	2024-11-08T10:00:00	1	Precipitación	0
20936	7	Sololá	712	San Antonio Palopó	9	San Antonio Palopo	11	Noviembre	2023-11-24T00:00:00	2024-11-08T10:00:00	8	Radiación solar	586
20937	7	Sololá	712	San Antonio Palopó	9	San Antonio Palopo	11	Noviembre	2023-11-24T00:00:00	2024-11-08T11:00:00	2	Temperatura media	22.3
20938	7	Sololá	712	San Antonio Palopó	9	San Antonio Palopo	11	Noviembre	2023-11-24T00:00:00	2024-11-08T11:00:00	4	Temperatura máxima	22.6
20939	7	Sololá	712	San Antonio Palopó	9	San Antonio Palopo	11	Noviembre	2023-11-24T00:00:00	2024-11-08T11:00:00	3	Temperatura mínima	20.4
20940	7	Sololá	712	San Antonio Palopó	9	San Antonio Palopo	11	Noviembre	2023-11-24T00:00:00	2024-11-08T11:00:00	5	Humedad	67
20941	7	Sololá	712	San Antonio Palopó	9	San Antonio Palopo	11	Noviembre	2023-11-24T00:00:00	2024-11-08T11:00:00	6	Velocidad del viento	3.2
20942	7	Sololá	712	San Antonio Palopó	9	San Antonio Palopo	11	Noviembre	2023-11-24T00:00:00	2024-11-08T11:00:00	7	Dirección del viento	3.22
20943	7	Sololá	712	San Antonio Palopó	9	San Antonio Palopo	11	Noviembre	2023-11-24T00:00:00	2024-11-08T11:00:00	1	Precipitación	0
20944	7	Sololá	712	San Antonio Palopó	9	San Antonio Palopo	11	Noviembre	2023-11-24T00:00:00	2024-11-08T11:00:00	8	Radiación solar	706
20945	7	Sololá	712	San Antonio Palopó	9	San Antonio Palopo	11	Noviembre	2023-11-24T00:00:00	2024-11-08T12:00:00	2	Temperatura media	23.6
20946	7	Sololá	712	San Antonio Palopó	9	San Antonio Palopo	11	Noviembre	2023-11-24T00:00:00	2024-11-08T12:00:00	4	Temperatura máxima	23.6
20947	7	Sololá	712	San Antonio Palopó	9	San Antonio Palopo	11	Noviembre	2023-11-24T00:00:00	2024-11-08T12:00:00	3	Temperatura mínima	22.3
20948	7	Sololá	712	San Antonio Palopó	9	San Antonio Palopo	11	Noviembre	2023-11-24T00:00:00	2024-11-08T12:00:00	5	Humedad	63
20949	7	Sololá	712	San Antonio Palopó	9	San Antonio Palopo	11	Noviembre	2023-11-24T00:00:00	2024-11-08T12:00:00	6	Velocidad del viento	3.2
20950	7	Sololá	712	San Antonio Palopó	9	San Antonio Palopo	11	Noviembre	2023-11-24T00:00:00	2024-11-08T12:00:00	7	Dirección del viento	3.22
20951	7	Sololá	712	San Antonio Palopó	9	San Antonio Palopo	11	Noviembre	2023-11-24T00:00:00	2024-11-08T12:00:00	1	Precipitación	0
20952	7	Sololá	712	San Antonio Palopó	9	San Antonio Palopo	11	Noviembre	2023-11-24T00:00:00	2024-11-08T12:00:00	8	Radiación solar	668
20953	7	Sololá	712	San Antonio Palopó	9	San Antonio Palopo	11	Noviembre	2023-11-24T00:00:00	2024-11-08T13:00:00	2	Temperatura media	24.3
20954	7	Sololá	712	San Antonio Palopó	9	San Antonio Palopo	11	Noviembre	2023-11-24T00:00:00	2024-11-08T13:00:00	4	Temperatura máxima	24.4
20955	7	Sololá	712	San Antonio Palopó	9	San Antonio Palopo	11	Noviembre	2023-11-24T00:00:00	2024-11-08T13:00:00	3	Temperatura mínima	23.6
20956	7	Sololá	712	San Antonio Palopó	9	San Antonio Palopo	11	Noviembre	2023-11-24T00:00:00	2024-11-08T13:00:00	5	Humedad	70
20957	7	Sololá	712	San Antonio Palopó	9	San Antonio Palopo	11	Noviembre	2023-11-24T00:00:00	2024-11-08T13:00:00	6	Velocidad del viento	8
20958	7	Sololá	712	San Antonio Palopó	9	San Antonio Palopo	11	Noviembre	2023-11-24T00:00:00	2024-11-08T13:00:00	7	Dirección del viento	8.05
20959	7	Sololá	712	San Antonio Palopó	9	San Antonio Palopo	11	Noviembre	2023-11-24T00:00:00	2024-11-08T13:00:00	1	Precipitación	0
20960	7	Sololá	712	San Antonio Palopó	9	San Antonio Palopo	11	Noviembre	2023-11-24T00:00:00	2024-11-08T13:00:00	8	Radiación solar	767
20961	7	Sololá	712	San Antonio Palopó	9	San Antonio Palopo	11	Noviembre	2023-11-24T00:00:00	2024-11-08T14:00:00	2	Temperatura media	23.4
20962	7	Sololá	712	San Antonio Palopó	9	San Antonio Palopo	11	Noviembre	2023-11-24T00:00:00	2024-11-08T14:00:00	4	Temperatura máxima	24.4
20963	7	Sololá	712	San Antonio Palopó	9	San Antonio Palopo	11	Noviembre	2023-11-24T00:00:00	2024-11-08T14:00:00	3	Temperatura mínima	23.2
20964	7	Sololá	712	San Antonio Palopó	9	San Antonio Palopo	11	Noviembre	2023-11-24T00:00:00	2024-11-08T14:00:00	5	Humedad	74
20965	7	Sololá	712	San Antonio Palopó	9	San Antonio Palopo	11	Noviembre	2023-11-24T00:00:00	2024-11-08T14:00:00	6	Velocidad del viento	8
20966	7	Sololá	712	San Antonio Palopó	9	San Antonio Palopo	11	Noviembre	2023-11-24T00:00:00	2024-11-08T14:00:00	7	Dirección del viento	8.05
20967	7	Sololá	712	San Antonio Palopó	9	San Antonio Palopo	11	Noviembre	2023-11-24T00:00:00	2024-11-08T14:00:00	1	Precipitación	0
20968	7	Sololá	712	San Antonio Palopó	9	San Antonio Palopo	11	Noviembre	2023-11-24T00:00:00	2024-11-08T14:00:00	8	Radiación solar	413
20969	7	Sololá	712	San Antonio Palopó	9	San Antonio Palopo	11	Noviembre	2023-11-24T00:00:00	2024-11-08T15:00:00	2	Temperatura media	23.6
20970	7	Sololá	712	San Antonio Palopó	9	San Antonio Palopo	11	Noviembre	2023-11-24T00:00:00	2024-11-08T15:00:00	4	Temperatura máxima	24.1
20971	7	Sololá	712	San Antonio Palopó	9	San Antonio Palopo	11	Noviembre	2023-11-24T00:00:00	2024-11-08T15:00:00	3	Temperatura mínima	22.7
20972	7	Sololá	712	San Antonio Palopó	9	San Antonio Palopo	11	Noviembre	2023-11-24T00:00:00	2024-11-08T15:00:00	5	Humedad	72
20973	7	Sololá	712	San Antonio Palopó	9	San Antonio Palopo	11	Noviembre	2023-11-24T00:00:00	2024-11-08T15:00:00	6	Velocidad del viento	8
20974	7	Sololá	712	San Antonio Palopó	9	San Antonio Palopo	11	Noviembre	2023-11-24T00:00:00	2024-11-08T15:00:00	7	Dirección del viento	8.05
20975	7	Sololá	712	San Antonio Palopó	9	San Antonio Palopo	11	Noviembre	2023-11-24T00:00:00	2024-11-08T15:00:00	1	Precipitación	0
20976	7	Sololá	712	San Antonio Palopó	9	San Antonio Palopo	11	Noviembre	2023-11-24T00:00:00	2024-11-08T15:00:00	8	Radiación solar	473
20977	7	Sololá	712	San Antonio Palopó	9	San Antonio Palopo	11	Noviembre	2023-11-24T00:00:00	2024-11-08T16:00:00	2	Temperatura media	22.4
20978	7	Sololá	712	San Antonio Palopó	9	San Antonio Palopo	11	Noviembre	2023-11-24T00:00:00	2024-11-08T16:00:00	4	Temperatura máxima	23.6
20979	7	Sololá	712	San Antonio Palopó	9	San Antonio Palopo	11	Noviembre	2023-11-24T00:00:00	2024-11-08T16:00:00	3	Temperatura mínima	22.1
20980	7	Sololá	712	San Antonio Palopó	9	San Antonio Palopo	11	Noviembre	2023-11-24T00:00:00	2024-11-08T16:00:00	5	Humedad	77
20981	7	Sololá	712	San Antonio Palopó	9	San Antonio Palopo	11	Noviembre	2023-11-24T00:00:00	2024-11-08T16:00:00	6	Velocidad del viento	9.7
20982	7	Sololá	712	San Antonio Palopó	9	San Antonio Palopo	11	Noviembre	2023-11-24T00:00:00	2024-11-08T16:00:00	7	Dirección del viento	9.66
20983	7	Sololá	712	San Antonio Palopó	9	San Antonio Palopo	11	Noviembre	2023-11-24T00:00:00	2024-11-08T16:00:00	1	Precipitación	0
20984	7	Sololá	712	San Antonio Palopó	9	San Antonio Palopo	11	Noviembre	2023-11-24T00:00:00	2024-11-08T16:00:00	8	Radiación solar	209
20985	7	Sololá	712	San Antonio Palopó	9	San Antonio Palopo	11	Noviembre	2023-11-24T00:00:00	2024-11-08T17:00:00	2	Temperatura media	20.9
20986	7	Sololá	712	San Antonio Palopó	9	San Antonio Palopo	11	Noviembre	2023-11-24T00:00:00	2024-11-08T17:00:00	4	Temperatura máxima	22.4
20987	7	Sololá	712	San Antonio Palopó	9	San Antonio Palopo	11	Noviembre	2023-11-24T00:00:00	2024-11-08T17:00:00	3	Temperatura mínima	20.8
20988	7	Sololá	712	San Antonio Palopó	9	San Antonio Palopo	11	Noviembre	2023-11-24T00:00:00	2024-11-08T17:00:00	5	Humedad	82
20989	7	Sololá	712	San Antonio Palopó	9	San Antonio Palopo	11	Noviembre	2023-11-24T00:00:00	2024-11-08T17:00:00	6	Velocidad del viento	6.4
20990	7	Sololá	712	San Antonio Palopó	9	San Antonio Palopo	11	Noviembre	2023-11-24T00:00:00	2024-11-08T17:00:00	7	Dirección del viento	6.44
20991	7	Sololá	712	San Antonio Palopó	9	San Antonio Palopo	11	Noviembre	2023-11-24T00:00:00	2024-11-08T17:00:00	1	Precipitación	0
20992	7	Sololá	712	San Antonio Palopó	9	San Antonio Palopo	11	Noviembre	2023-11-24T00:00:00	2024-11-08T17:00:00	8	Radiación solar	62
20993	7	Sololá	712	San Antonio Palopó	9	San Antonio Palopo	11	Noviembre	2023-11-24T00:00:00	2024-11-08T18:00:00	2	Temperatura media	20.7
20994	7	Sololá	712	San Antonio Palopó	9	San Antonio Palopo	11	Noviembre	2023-11-24T00:00:00	2024-11-08T18:00:00	4	Temperatura máxima	20.9
20995	7	Sololá	712	San Antonio Palopó	9	San Antonio Palopo	11	Noviembre	2023-11-24T00:00:00	2024-11-08T18:00:00	3	Temperatura mínima	20.6
20996	7	Sololá	712	San Antonio Palopó	9	San Antonio Palopo	11	Noviembre	2023-11-24T00:00:00	2024-11-08T18:00:00	5	Humedad	80
20997	7	Sololá	712	San Antonio Palopó	9	San Antonio Palopo	11	Noviembre	2023-11-24T00:00:00	2024-11-08T18:00:00	6	Velocidad del viento	3.2
20998	7	Sololá	712	San Antonio Palopó	9	San Antonio Palopo	11	Noviembre	2023-11-24T00:00:00	2024-11-08T18:00:00	7	Dirección del viento	3.22
20999	7	Sololá	712	San Antonio Palopó	9	San Antonio Palopo	11	Noviembre	2023-11-24T00:00:00	2024-11-08T18:00:00	1	Precipitación	0
21000	7	Sololá	712	San Antonio Palopó	9	San Antonio Palopo	11	Noviembre	2023-11-24T00:00:00	2024-11-08T18:00:00	8	Radiación solar	4
21001	7	Sololá	712	San Antonio Palopó	9	San Antonio Palopo	11	Noviembre	2023-11-24T00:00:00	2024-11-08T19:00:00	2	Temperatura media	20.3
21002	7	Sololá	712	San Antonio Palopó	9	San Antonio Palopo	11	Noviembre	2023-11-24T00:00:00	2024-11-08T19:00:00	4	Temperatura máxima	20.8
21003	7	Sololá	712	San Antonio Palopó	9	San Antonio Palopo	11	Noviembre	2023-11-24T00:00:00	2024-11-08T19:00:00	3	Temperatura mínima	20.2
21004	7	Sololá	712	San Antonio Palopó	9	San Antonio Palopo	11	Noviembre	2023-11-24T00:00:00	2024-11-08T19:00:00	5	Humedad	80
21005	7	Sololá	712	San Antonio Palopó	9	San Antonio Palopo	11	Noviembre	2023-11-24T00:00:00	2024-11-08T19:00:00	6	Velocidad del viento	1.6
21006	7	Sololá	712	San Antonio Palopó	9	San Antonio Palopo	11	Noviembre	2023-11-24T00:00:00	2024-11-08T19:00:00	7	Dirección del viento	1.61
21007	7	Sololá	712	San Antonio Palopó	9	San Antonio Palopo	11	Noviembre	2023-11-24T00:00:00	2024-11-08T19:00:00	1	Precipitación	0
21008	7	Sololá	712	San Antonio Palopó	9	San Antonio Palopo	11	Noviembre	2023-11-24T00:00:00	2024-11-08T19:00:00	8	Radiación solar	0
21009	7	Sololá	712	San Antonio Palopó	9	San Antonio Palopo	11	Noviembre	2023-11-24T00:00:00	2024-11-08T20:00:00	2	Temperatura media	20
21010	7	Sololá	712	San Antonio Palopó	9	San Antonio Palopo	11	Noviembre	2023-11-24T00:00:00	2024-11-08T20:00:00	4	Temperatura máxima	20.4
21011	7	Sololá	712	San Antonio Palopó	9	San Antonio Palopo	11	Noviembre	2023-11-24T00:00:00	2024-11-08T20:00:00	3	Temperatura mínima	19.8
21012	7	Sololá	712	San Antonio Palopó	9	San Antonio Palopo	11	Noviembre	2023-11-24T00:00:00	2024-11-08T20:00:00	5	Humedad	82
21013	7	Sololá	712	San Antonio Palopó	9	San Antonio Palopo	11	Noviembre	2023-11-24T00:00:00	2024-11-08T20:00:00	6	Velocidad del viento	1.6
21014	7	Sololá	712	San Antonio Palopó	9	San Antonio Palopo	11	Noviembre	2023-11-24T00:00:00	2024-11-08T20:00:00	7	Dirección del viento	1.61
21015	7	Sololá	712	San Antonio Palopó	9	San Antonio Palopo	11	Noviembre	2023-11-24T00:00:00	2024-11-08T20:00:00	1	Precipitación	0
21016	7	Sololá	712	San Antonio Palopó	9	San Antonio Palopo	11	Noviembre	2023-11-24T00:00:00	2024-11-08T20:00:00	8	Radiación solar	0
21017	7	Sololá	712	San Antonio Palopó	9	San Antonio Palopo	11	Noviembre	2023-11-24T00:00:00	2024-11-08T21:00:00	2	Temperatura media	20.8
21018	7	Sololá	712	San Antonio Palopó	9	San Antonio Palopo	11	Noviembre	2023-11-24T00:00:00	2024-11-08T21:00:00	4	Temperatura máxima	20.8
21019	7	Sololá	712	San Antonio Palopó	9	San Antonio Palopo	11	Noviembre	2023-11-24T00:00:00	2024-11-08T21:00:00	3	Temperatura mínima	19.6
21020	7	Sololá	712	San Antonio Palopó	9	San Antonio Palopo	11	Noviembre	2023-11-24T00:00:00	2024-11-08T21:00:00	5	Humedad	77
21021	7	Sololá	712	San Antonio Palopó	9	San Antonio Palopo	11	Noviembre	2023-11-24T00:00:00	2024-11-08T21:00:00	6	Velocidad del viento	3.2
21022	7	Sololá	712	San Antonio Palopó	9	San Antonio Palopo	11	Noviembre	2023-11-24T00:00:00	2024-11-08T21:00:00	7	Dirección del viento	3.22
21023	7	Sololá	712	San Antonio Palopó	9	San Antonio Palopo	11	Noviembre	2023-11-24T00:00:00	2024-11-08T21:00:00	1	Precipitación	0
21024	7	Sololá	712	San Antonio Palopó	9	San Antonio Palopo	11	Noviembre	2023-11-24T00:00:00	2024-11-08T21:00:00	8	Radiación solar	0
21025	7	Sololá	712	San Antonio Palopó	9	San Antonio Palopo	11	Noviembre	2023-11-24T00:00:00	2024-11-08T22:00:00	2	Temperatura media	20.3
21026	7	Sololá	712	San Antonio Palopó	9	San Antonio Palopo	11	Noviembre	2023-11-24T00:00:00	2024-11-08T22:00:00	4	Temperatura máxima	20.8
21027	7	Sololá	712	San Antonio Palopó	9	San Antonio Palopo	11	Noviembre	2023-11-24T00:00:00	2024-11-08T22:00:00	3	Temperatura mínima	20.2
21028	7	Sololá	712	San Antonio Palopó	9	San Antonio Palopo	11	Noviembre	2023-11-24T00:00:00	2024-11-08T22:00:00	5	Humedad	80
21029	7	Sololá	712	San Antonio Palopó	9	San Antonio Palopo	11	Noviembre	2023-11-24T00:00:00	2024-11-08T22:00:00	6	Velocidad del viento	3.2
21030	7	Sololá	712	San Antonio Palopó	9	San Antonio Palopo	11	Noviembre	2023-11-24T00:00:00	2024-11-08T22:00:00	7	Dirección del viento	3.22
21031	7	Sololá	712	San Antonio Palopó	9	San Antonio Palopo	11	Noviembre	2023-11-24T00:00:00	2024-11-08T22:00:00	1	Precipitación	0
21032	7	Sololá	712	San Antonio Palopó	9	San Antonio Palopo	11	Noviembre	2023-11-24T00:00:00	2024-11-08T22:00:00	8	Radiación solar	0
21033	7	Sololá	712	San Antonio Palopó	9	San Antonio Palopo	11	Noviembre	2023-11-24T00:00:00	2024-11-08T23:00:00	2	Temperatura media	20.2
21034	7	Sololá	712	San Antonio Palopó	9	San Antonio Palopo	11	Noviembre	2023-11-24T00:00:00	2024-11-08T23:00:00	4	Temperatura máxima	20.5
21035	7	Sololá	712	San Antonio Palopó	9	San Antonio Palopo	11	Noviembre	2023-11-24T00:00:00	2024-11-08T23:00:00	3	Temperatura mínima	20.2
21036	7	Sololá	712	San Antonio Palopó	9	San Antonio Palopo	11	Noviembre	2023-11-24T00:00:00	2024-11-08T23:00:00	5	Humedad	84
21037	7	Sololá	712	San Antonio Palopó	9	San Antonio Palopo	11	Noviembre	2023-11-24T00:00:00	2024-11-08T23:00:00	6	Velocidad del viento	3.2
21038	7	Sololá	712	San Antonio Palopó	9	San Antonio Palopo	11	Noviembre	2023-11-24T00:00:00	2024-11-08T23:00:00	7	Dirección del viento	3.22
21039	7	Sololá	712	San Antonio Palopó	9	San Antonio Palopo	11	Noviembre	2023-11-24T00:00:00	2024-11-08T23:00:00	1	Precipitación	0
21040	7	Sololá	712	San Antonio Palopó	9	San Antonio Palopo	11	Noviembre	2023-11-24T00:00:00	2024-11-08T23:00:00	8	Radiación solar	0
21041	7	Sololá	712	San Antonio Palopó	9	San Antonio Palopo	11	Noviembre	2023-11-25T00:00:00	2024-11-08T00:00:00	2	Temperatura media	20.2
21042	7	Sololá	712	San Antonio Palopó	9	San Antonio Palopo	11	Noviembre	2023-11-25T00:00:00	2024-11-08T00:00:00	4	Temperatura máxima	20.2
21043	7	Sololá	712	San Antonio Palopó	9	San Antonio Palopo	11	Noviembre	2023-11-25T00:00:00	2024-11-08T00:00:00	3	Temperatura mínima	19.9
21044	7	Sololá	712	San Antonio Palopó	9	San Antonio Palopo	11	Noviembre	2023-11-25T00:00:00	2024-11-08T00:00:00	5	Humedad	77
21045	7	Sololá	712	San Antonio Palopó	9	San Antonio Palopo	11	Noviembre	2023-11-25T00:00:00	2024-11-08T00:00:00	6	Velocidad del viento	4.8
21046	7	Sololá	712	San Antonio Palopó	9	San Antonio Palopo	11	Noviembre	2023-11-25T00:00:00	2024-11-08T00:00:00	7	Dirección del viento	4.83
21047	7	Sololá	712	San Antonio Palopó	9	San Antonio Palopo	11	Noviembre	2023-11-25T00:00:00	2024-11-08T00:00:00	1	Precipitación	0
21048	7	Sololá	712	San Antonio Palopó	9	San Antonio Palopo	11	Noviembre	2023-11-25T00:00:00	2024-11-08T00:00:00	8	Radiación solar	0
21049	7	Sololá	712	San Antonio Palopó	9	San Antonio Palopo	11	Noviembre	2023-11-25T00:00:00	2024-11-08T01:00:00	2	Temperatura media	20.1
21050	7	Sololá	712	San Antonio Palopó	9	San Antonio Palopo	11	Noviembre	2023-11-25T00:00:00	2024-11-08T01:00:00	4	Temperatura máxima	20.2
21051	7	Sololá	712	San Antonio Palopó	9	San Antonio Palopo	11	Noviembre	2023-11-25T00:00:00	2024-11-08T01:00:00	3	Temperatura mínima	19.7
21052	7	Sololá	712	San Antonio Palopó	9	San Antonio Palopo	11	Noviembre	2023-11-25T00:00:00	2024-11-08T01:00:00	5	Humedad	76
21053	7	Sololá	712	San Antonio Palopó	9	San Antonio Palopo	11	Noviembre	2023-11-25T00:00:00	2024-11-08T01:00:00	6	Velocidad del viento	4.8
21054	7	Sololá	712	San Antonio Palopó	9	San Antonio Palopo	11	Noviembre	2023-11-25T00:00:00	2024-11-08T01:00:00	7	Dirección del viento	4.83
21055	7	Sololá	712	San Antonio Palopó	9	San Antonio Palopo	11	Noviembre	2023-11-25T00:00:00	2024-11-08T01:00:00	1	Precipitación	0
21056	7	Sololá	712	San Antonio Palopó	9	San Antonio Palopo	11	Noviembre	2023-11-25T00:00:00	2024-11-08T01:00:00	8	Radiación solar	0
21057	7	Sololá	712	San Antonio Palopó	9	San Antonio Palopo	11	Noviembre	2023-11-25T00:00:00	2024-11-08T02:00:00	2	Temperatura media	19.2
21058	7	Sololá	712	San Antonio Palopó	9	San Antonio Palopo	11	Noviembre	2023-11-25T00:00:00	2024-11-08T02:00:00	4	Temperatura máxima	20.1
21059	7	Sololá	712	San Antonio Palopó	9	San Antonio Palopo	11	Noviembre	2023-11-25T00:00:00	2024-11-08T02:00:00	3	Temperatura mínima	19.2
21060	7	Sololá	712	San Antonio Palopó	9	San Antonio Palopo	11	Noviembre	2023-11-25T00:00:00	2024-11-08T02:00:00	5	Humedad	78
21061	7	Sololá	712	San Antonio Palopó	9	San Antonio Palopo	11	Noviembre	2023-11-25T00:00:00	2024-11-08T02:00:00	6	Velocidad del viento	9.7
21062	7	Sololá	712	San Antonio Palopó	9	San Antonio Palopo	11	Noviembre	2023-11-25T00:00:00	2024-11-08T02:00:00	7	Dirección del viento	9.66
21063	7	Sololá	712	San Antonio Palopó	9	San Antonio Palopo	11	Noviembre	2023-11-25T00:00:00	2024-11-08T02:00:00	1	Precipitación	0
21064	7	Sololá	712	San Antonio Palopó	9	San Antonio Palopo	11	Noviembre	2023-11-25T00:00:00	2024-11-08T02:00:00	8	Radiación solar	0
21065	7	Sololá	712	San Antonio Palopó	9	San Antonio Palopo	11	Noviembre	2023-11-25T00:00:00	2024-11-08T03:00:00	2	Temperatura media	20
21066	7	Sololá	712	San Antonio Palopó	9	San Antonio Palopo	11	Noviembre	2023-11-25T00:00:00	2024-11-08T03:00:00	4	Temperatura máxima	20.1
21067	7	Sololá	712	San Antonio Palopó	9	San Antonio Palopo	11	Noviembre	2023-11-25T00:00:00	2024-11-08T03:00:00	3	Temperatura mínima	18.9
21068	7	Sololá	712	San Antonio Palopó	9	San Antonio Palopo	11	Noviembre	2023-11-25T00:00:00	2024-11-08T03:00:00	5	Humedad	74
21069	7	Sololá	712	San Antonio Palopó	9	San Antonio Palopo	11	Noviembre	2023-11-25T00:00:00	2024-11-08T03:00:00	6	Velocidad del viento	6.4
21070	7	Sololá	712	San Antonio Palopó	9	San Antonio Palopo	11	Noviembre	2023-11-25T00:00:00	2024-11-08T03:00:00	7	Dirección del viento	6.44
21071	7	Sololá	712	San Antonio Palopó	9	San Antonio Palopo	11	Noviembre	2023-11-25T00:00:00	2024-11-08T03:00:00	1	Precipitación	0
21072	7	Sololá	712	San Antonio Palopó	9	San Antonio Palopo	11	Noviembre	2023-11-25T00:00:00	2024-11-08T03:00:00	8	Radiación solar	0
21073	7	Sololá	712	San Antonio Palopó	9	San Antonio Palopo	11	Noviembre	2023-11-25T00:00:00	2024-11-08T04:00:00	2	Temperatura media	19.9
21074	7	Sololá	712	San Antonio Palopó	9	San Antonio Palopo	11	Noviembre	2023-11-25T00:00:00	2024-11-08T04:00:00	4	Temperatura máxima	20.1
21075	7	Sololá	712	San Antonio Palopó	9	San Antonio Palopo	11	Noviembre	2023-11-25T00:00:00	2024-11-08T04:00:00	3	Temperatura mínima	19.9
21076	7	Sololá	712	San Antonio Palopó	9	San Antonio Palopo	11	Noviembre	2023-11-25T00:00:00	2024-11-08T04:00:00	5	Humedad	74
21077	7	Sololá	712	San Antonio Palopó	9	San Antonio Palopo	11	Noviembre	2023-11-25T00:00:00	2024-11-08T04:00:00	6	Velocidad del viento	8
21078	7	Sololá	712	San Antonio Palopó	9	San Antonio Palopo	11	Noviembre	2023-11-25T00:00:00	2024-11-08T04:00:00	7	Dirección del viento	8.05
21079	7	Sololá	712	San Antonio Palopó	9	San Antonio Palopo	11	Noviembre	2023-11-25T00:00:00	2024-11-08T04:00:00	1	Precipitación	0
21080	7	Sololá	712	San Antonio Palopó	9	San Antonio Palopo	11	Noviembre	2023-11-25T00:00:00	2024-11-08T04:00:00	8	Radiación solar	0
21081	7	Sololá	712	San Antonio Palopó	9	San Antonio Palopo	11	Noviembre	2023-11-25T00:00:00	2024-11-08T05:00:00	2	Temperatura media	19.8
21082	7	Sololá	712	San Antonio Palopó	9	San Antonio Palopo	11	Noviembre	2023-11-25T00:00:00	2024-11-08T05:00:00	4	Temperatura máxima	20.3
21083	7	Sololá	712	San Antonio Palopó	9	San Antonio Palopo	11	Noviembre	2023-11-25T00:00:00	2024-11-08T05:00:00	3	Temperatura mínima	19.8
21084	7	Sololá	712	San Antonio Palopó	9	San Antonio Palopo	11	Noviembre	2023-11-25T00:00:00	2024-11-08T05:00:00	5	Humedad	74
21085	7	Sololá	712	San Antonio Palopó	9	San Antonio Palopo	11	Noviembre	2023-11-25T00:00:00	2024-11-08T05:00:00	6	Velocidad del viento	6.4
21086	7	Sololá	712	San Antonio Palopó	9	San Antonio Palopo	11	Noviembre	2023-11-25T00:00:00	2024-11-08T05:00:00	7	Dirección del viento	6.44
21087	7	Sololá	712	San Antonio Palopó	9	San Antonio Palopo	11	Noviembre	2023-11-25T00:00:00	2024-11-08T05:00:00	1	Precipitación	0
21088	7	Sololá	712	San Antonio Palopó	9	San Antonio Palopo	11	Noviembre	2023-11-25T00:00:00	2024-11-08T05:00:00	8	Radiación solar	0
21089	7	Sololá	712	San Antonio Palopó	9	San Antonio Palopo	11	Noviembre	2023-11-25T00:00:00	2024-11-08T06:00:00	2	Temperatura media	19.5
21090	7	Sololá	712	San Antonio Palopó	9	San Antonio Palopo	11	Noviembre	2023-11-25T00:00:00	2024-11-08T06:00:00	4	Temperatura máxima	19.8
21091	7	Sololá	712	San Antonio Palopó	9	San Antonio Palopo	11	Noviembre	2023-11-25T00:00:00	2024-11-08T06:00:00	3	Temperatura mínima	19.3
21092	7	Sololá	712	San Antonio Palopó	9	San Antonio Palopo	11	Noviembre	2023-11-25T00:00:00	2024-11-08T06:00:00	5	Humedad	74
21093	7	Sololá	712	San Antonio Palopó	9	San Antonio Palopo	11	Noviembre	2023-11-25T00:00:00	2024-11-08T06:00:00	6	Velocidad del viento	12.9
21094	7	Sololá	712	San Antonio Palopó	9	San Antonio Palopo	11	Noviembre	2023-11-25T00:00:00	2024-11-08T06:00:00	7	Dirección del viento	12.87
21095	7	Sololá	712	San Antonio Palopó	9	San Antonio Palopo	11	Noviembre	2023-11-25T00:00:00	2024-11-08T06:00:00	1	Precipitación	0
21096	7	Sololá	712	San Antonio Palopó	9	San Antonio Palopo	11	Noviembre	2023-11-25T00:00:00	2024-11-08T06:00:00	8	Radiación solar	0
21097	7	Sololá	712	San Antonio Palopó	9	San Antonio Palopo	11	Noviembre	2023-11-25T00:00:00	2024-11-08T07:00:00	2	Temperatura media	19.6
21098	7	Sololá	712	San Antonio Palopó	9	San Antonio Palopo	11	Noviembre	2023-11-25T00:00:00	2024-11-08T07:00:00	4	Temperatura máxima	19.6
21099	7	Sololá	712	San Antonio Palopó	9	San Antonio Palopo	11	Noviembre	2023-11-25T00:00:00	2024-11-08T07:00:00	3	Temperatura mínima	19.2
21100	7	Sololá	712	San Antonio Palopó	9	San Antonio Palopo	11	Noviembre	2023-11-25T00:00:00	2024-11-08T07:00:00	5	Humedad	75
21101	7	Sololá	712	San Antonio Palopó	9	San Antonio Palopo	11	Noviembre	2023-11-25T00:00:00	2024-11-08T07:00:00	6	Velocidad del viento	17.7
21102	7	Sololá	712	San Antonio Palopó	9	San Antonio Palopo	11	Noviembre	2023-11-25T00:00:00	2024-11-08T07:00:00	7	Dirección del viento	17.7
21103	7	Sololá	712	San Antonio Palopó	9	San Antonio Palopo	11	Noviembre	2023-11-25T00:00:00	2024-11-08T07:00:00	1	Precipitación	0
21104	7	Sololá	712	San Antonio Palopó	9	San Antonio Palopo	11	Noviembre	2023-11-25T00:00:00	2024-11-08T07:00:00	8	Radiación solar	19
21105	7	Sololá	712	San Antonio Palopó	9	San Antonio Palopo	11	Noviembre	2023-11-25T00:00:00	2024-11-08T08:00:00	2	Temperatura media	20.7
21106	7	Sololá	712	San Antonio Palopó	9	San Antonio Palopo	11	Noviembre	2023-11-25T00:00:00	2024-11-08T08:00:00	4	Temperatura máxima	20.8
21107	7	Sololá	712	San Antonio Palopó	9	San Antonio Palopo	11	Noviembre	2023-11-25T00:00:00	2024-11-08T08:00:00	3	Temperatura mínima	19.6
21108	7	Sololá	712	San Antonio Palopó	9	San Antonio Palopo	11	Noviembre	2023-11-25T00:00:00	2024-11-08T08:00:00	5	Humedad	73
21109	7	Sololá	712	San Antonio Palopó	9	San Antonio Palopo	11	Noviembre	2023-11-25T00:00:00	2024-11-08T08:00:00	6	Velocidad del viento	14.5
21110	7	Sololá	712	San Antonio Palopó	9	San Antonio Palopo	11	Noviembre	2023-11-25T00:00:00	2024-11-08T08:00:00	7	Dirección del viento	14.48
21111	7	Sololá	712	San Antonio Palopó	9	San Antonio Palopo	11	Noviembre	2023-11-25T00:00:00	2024-11-08T08:00:00	1	Precipitación	0
21112	7	Sololá	712	San Antonio Palopó	9	San Antonio Palopo	11	Noviembre	2023-11-25T00:00:00	2024-11-08T08:00:00	8	Radiación solar	106
21113	7	Sololá	712	San Antonio Palopó	9	San Antonio Palopo	11	Noviembre	2023-11-25T00:00:00	2024-11-08T09:00:00	2	Temperatura media	22.6
21114	7	Sololá	712	San Antonio Palopó	9	San Antonio Palopo	11	Noviembre	2023-11-25T00:00:00	2024-11-08T09:00:00	4	Temperatura máxima	22.6
21115	7	Sololá	712	San Antonio Palopó	9	San Antonio Palopo	11	Noviembre	2023-11-25T00:00:00	2024-11-08T09:00:00	3	Temperatura mínima	20.7
21116	7	Sololá	712	San Antonio Palopó	9	San Antonio Palopo	11	Noviembre	2023-11-25T00:00:00	2024-11-08T09:00:00	5	Humedad	66
21117	7	Sololá	712	San Antonio Palopó	9	San Antonio Palopo	11	Noviembre	2023-11-25T00:00:00	2024-11-08T09:00:00	6	Velocidad del viento	8
21118	7	Sololá	712	San Antonio Palopó	9	San Antonio Palopo	11	Noviembre	2023-11-25T00:00:00	2024-11-08T09:00:00	7	Dirección del viento	8.05
21119	7	Sololá	712	San Antonio Palopó	9	San Antonio Palopo	11	Noviembre	2023-11-25T00:00:00	2024-11-08T09:00:00	1	Precipitación	0
21120	7	Sololá	712	San Antonio Palopó	9	San Antonio Palopo	11	Noviembre	2023-11-25T00:00:00	2024-11-08T09:00:00	8	Radiación solar	326
21121	7	Sololá	712	San Antonio Palopó	9	San Antonio Palopo	11	Noviembre	2023-11-25T00:00:00	2024-11-08T10:00:00	2	Temperatura media	22.1
21122	7	Sololá	712	San Antonio Palopó	9	San Antonio Palopo	11	Noviembre	2023-11-25T00:00:00	2024-11-08T10:00:00	4	Temperatura máxima	23.5
21123	7	Sololá	712	San Antonio Palopó	9	San Antonio Palopo	11	Noviembre	2023-11-25T00:00:00	2024-11-08T10:00:00	3	Temperatura mínima	21.7
21124	7	Sololá	712	San Antonio Palopó	9	San Antonio Palopo	11	Noviembre	2023-11-25T00:00:00	2024-11-08T10:00:00	5	Humedad	74
21125	7	Sololá	712	San Antonio Palopó	9	San Antonio Palopo	11	Noviembre	2023-11-25T00:00:00	2024-11-08T10:00:00	6	Velocidad del viento	8
21126	7	Sololá	712	San Antonio Palopó	9	San Antonio Palopo	11	Noviembre	2023-11-25T00:00:00	2024-11-08T10:00:00	7	Dirección del viento	8.05
21127	7	Sololá	712	San Antonio Palopó	9	San Antonio Palopo	11	Noviembre	2023-11-25T00:00:00	2024-11-08T10:00:00	1	Precipitación	0
21128	7	Sololá	712	San Antonio Palopó	9	San Antonio Palopo	11	Noviembre	2023-11-25T00:00:00	2024-11-08T10:00:00	8	Radiación solar	593
21129	7	Sololá	712	San Antonio Palopó	9	San Antonio Palopo	11	Noviembre	2023-11-25T00:00:00	2024-11-08T11:00:00	2	Temperatura media	22.4
21130	7	Sololá	712	San Antonio Palopó	9	San Antonio Palopo	11	Noviembre	2023-11-25T00:00:00	2024-11-08T11:00:00	4	Temperatura máxima	22.8
21131	7	Sololá	712	San Antonio Palopó	9	San Antonio Palopo	11	Noviembre	2023-11-25T00:00:00	2024-11-08T11:00:00	3	Temperatura mínima	22.1
21132	7	Sololá	712	San Antonio Palopó	9	San Antonio Palopo	11	Noviembre	2023-11-25T00:00:00	2024-11-08T11:00:00	5	Humedad	74
21133	7	Sololá	712	San Antonio Palopó	9	San Antonio Palopo	11	Noviembre	2023-11-25T00:00:00	2024-11-08T11:00:00	6	Velocidad del viento	3.2
21134	7	Sololá	712	San Antonio Palopó	9	San Antonio Palopo	11	Noviembre	2023-11-25T00:00:00	2024-11-08T11:00:00	7	Dirección del viento	3.22
21135	7	Sololá	712	San Antonio Palopó	9	San Antonio Palopo	11	Noviembre	2023-11-25T00:00:00	2024-11-08T11:00:00	1	Precipitación	0
21136	7	Sololá	712	San Antonio Palopó	9	San Antonio Palopo	11	Noviembre	2023-11-25T00:00:00	2024-11-08T11:00:00	8	Radiación solar	532
21137	7	Sololá	712	San Antonio Palopó	9	San Antonio Palopo	11	Noviembre	2023-11-25T00:00:00	2024-11-08T12:00:00	2	Temperatura media	22.7
21138	7	Sololá	712	San Antonio Palopó	9	San Antonio Palopo	11	Noviembre	2023-11-25T00:00:00	2024-11-08T12:00:00	4	Temperatura máxima	23.2
21139	7	Sololá	712	San Antonio Palopó	9	San Antonio Palopo	11	Noviembre	2023-11-25T00:00:00	2024-11-08T12:00:00	3	Temperatura mínima	22.4
21140	7	Sololá	712	San Antonio Palopó	9	San Antonio Palopo	11	Noviembre	2023-11-25T00:00:00	2024-11-08T12:00:00	5	Humedad	77
21141	7	Sololá	712	San Antonio Palopó	9	San Antonio Palopo	11	Noviembre	2023-11-25T00:00:00	2024-11-08T12:00:00	6	Velocidad del viento	6.4
21142	7	Sololá	712	San Antonio Palopó	9	San Antonio Palopo	11	Noviembre	2023-11-25T00:00:00	2024-11-08T12:00:00	7	Dirección del viento	6.44
21143	7	Sololá	712	San Antonio Palopó	9	San Antonio Palopo	11	Noviembre	2023-11-25T00:00:00	2024-11-08T12:00:00	1	Precipitación	0
21144	7	Sololá	712	San Antonio Palopó	9	San Antonio Palopo	11	Noviembre	2023-11-25T00:00:00	2024-11-08T12:00:00	8	Radiación solar	171
21145	7	Sololá	712	San Antonio Palopó	9	San Antonio Palopo	11	Noviembre	2023-11-25T00:00:00	2024-11-08T13:00:00	2	Temperatura media	23.4
21146	7	Sololá	712	San Antonio Palopó	9	San Antonio Palopo	11	Noviembre	2023-11-25T00:00:00	2024-11-08T13:00:00	4	Temperatura máxima	24.6
21147	7	Sololá	712	San Antonio Palopó	9	San Antonio Palopo	11	Noviembre	2023-11-25T00:00:00	2024-11-08T13:00:00	3	Temperatura mínima	22.7
21148	7	Sololá	712	San Antonio Palopó	9	San Antonio Palopo	11	Noviembre	2023-11-25T00:00:00	2024-11-08T13:00:00	5	Humedad	75
21149	7	Sololá	712	San Antonio Palopó	9	San Antonio Palopo	11	Noviembre	2023-11-25T00:00:00	2024-11-08T13:00:00	6	Velocidad del viento	9.7
21150	7	Sololá	712	San Antonio Palopó	9	San Antonio Palopo	11	Noviembre	2023-11-25T00:00:00	2024-11-08T13:00:00	7	Dirección del viento	9.66
21151	7	Sololá	712	San Antonio Palopó	9	San Antonio Palopo	11	Noviembre	2023-11-25T00:00:00	2024-11-08T13:00:00	1	Precipitación	0
21152	7	Sololá	712	San Antonio Palopó	9	San Antonio Palopo	11	Noviembre	2023-11-25T00:00:00	2024-11-08T13:00:00	8	Radiación solar	727
21153	7	Sololá	712	San Antonio Palopó	9	San Antonio Palopo	11	Noviembre	2023-11-25T00:00:00	2024-11-08T14:00:00	2	Temperatura media	23.9
21154	7	Sololá	712	San Antonio Palopó	9	San Antonio Palopo	11	Noviembre	2023-11-25T00:00:00	2024-11-08T14:00:00	4	Temperatura máxima	24.1
21155	7	Sololá	712	San Antonio Palopó	9	San Antonio Palopo	11	Noviembre	2023-11-25T00:00:00	2024-11-08T14:00:00	3	Temperatura mínima	23
21156	7	Sololá	712	San Antonio Palopó	9	San Antonio Palopo	11	Noviembre	2023-11-25T00:00:00	2024-11-08T14:00:00	5	Humedad	76
21157	7	Sololá	712	San Antonio Palopó	9	San Antonio Palopo	11	Noviembre	2023-11-25T00:00:00	2024-11-08T14:00:00	6	Velocidad del viento	8
21158	7	Sololá	712	San Antonio Palopó	9	San Antonio Palopo	11	Noviembre	2023-11-25T00:00:00	2024-11-08T14:00:00	7	Dirección del viento	8.05
21159	7	Sololá	712	San Antonio Palopó	9	San Antonio Palopo	11	Noviembre	2023-11-25T00:00:00	2024-11-08T14:00:00	1	Precipitación	0
21160	7	Sololá	712	San Antonio Palopó	9	San Antonio Palopo	11	Noviembre	2023-11-25T00:00:00	2024-11-08T14:00:00	8	Radiación solar	343
21161	7	Sololá	712	San Antonio Palopó	9	San Antonio Palopo	11	Noviembre	2023-11-25T00:00:00	2024-11-08T15:00:00	2	Temperatura media	23.2
21162	7	Sololá	712	San Antonio Palopó	9	San Antonio Palopo	11	Noviembre	2023-11-25T00:00:00	2024-11-08T15:00:00	4	Temperatura máxima	24.8
21163	7	Sololá	712	San Antonio Palopó	9	San Antonio Palopo	11	Noviembre	2023-11-25T00:00:00	2024-11-08T15:00:00	3	Temperatura mínima	23.2
21164	7	Sololá	712	San Antonio Palopó	9	San Antonio Palopo	11	Noviembre	2023-11-25T00:00:00	2024-11-08T15:00:00	5	Humedad	76
21165	7	Sololá	712	San Antonio Palopó	9	San Antonio Palopo	11	Noviembre	2023-11-25T00:00:00	2024-11-08T15:00:00	6	Velocidad del viento	9.7
21166	7	Sololá	712	San Antonio Palopó	9	San Antonio Palopo	11	Noviembre	2023-11-25T00:00:00	2024-11-08T15:00:00	7	Dirección del viento	9.66
21167	7	Sololá	712	San Antonio Palopó	9	San Antonio Palopo	11	Noviembre	2023-11-25T00:00:00	2024-11-08T15:00:00	1	Precipitación	0
21168	7	Sololá	712	San Antonio Palopó	9	San Antonio Palopo	11	Noviembre	2023-11-25T00:00:00	2024-11-08T15:00:00	8	Radiación solar	560
21169	7	Sololá	712	San Antonio Palopó	9	San Antonio Palopo	11	Noviembre	2023-11-25T00:00:00	2024-11-08T16:00:00	2	Temperatura media	23.2
21170	7	Sololá	712	San Antonio Palopó	9	San Antonio Palopo	11	Noviembre	2023-11-25T00:00:00	2024-11-08T16:00:00	4	Temperatura máxima	23.3
21171	7	Sololá	712	San Antonio Palopó	9	San Antonio Palopo	11	Noviembre	2023-11-25T00:00:00	2024-11-08T16:00:00	3	Temperatura mínima	22.6
21172	7	Sololá	712	San Antonio Palopó	9	San Antonio Palopo	11	Noviembre	2023-11-25T00:00:00	2024-11-08T16:00:00	5	Humedad	76
21173	7	Sololá	712	San Antonio Palopó	9	San Antonio Palopo	11	Noviembre	2023-11-25T00:00:00	2024-11-08T16:00:00	6	Velocidad del viento	9.7
21174	7	Sololá	712	San Antonio Palopó	9	San Antonio Palopo	11	Noviembre	2023-11-25T00:00:00	2024-11-08T16:00:00	7	Dirección del viento	9.66
21175	7	Sololá	712	San Antonio Palopó	9	San Antonio Palopo	11	Noviembre	2023-11-25T00:00:00	2024-11-08T16:00:00	1	Precipitación	0
21176	7	Sololá	712	San Antonio Palopó	9	San Antonio Palopo	11	Noviembre	2023-11-25T00:00:00	2024-11-08T16:00:00	8	Radiación solar	298
21177	7	Sololá	712	San Antonio Palopó	9	San Antonio Palopo	11	Noviembre	2023-11-25T00:00:00	2024-11-08T17:00:00	2	Temperatura media	21.8
21178	7	Sololá	712	San Antonio Palopó	9	San Antonio Palopo	11	Noviembre	2023-11-25T00:00:00	2024-11-08T17:00:00	4	Temperatura máxima	23.4
21179	7	Sololá	712	San Antonio Palopó	9	San Antonio Palopo	11	Noviembre	2023-11-25T00:00:00	2024-11-08T17:00:00	3	Temperatura mínima	21.7
21180	7	Sololá	712	San Antonio Palopó	9	San Antonio Palopo	11	Noviembre	2023-11-25T00:00:00	2024-11-08T17:00:00	5	Humedad	78
21181	7	Sololá	712	San Antonio Palopó	9	San Antonio Palopo	11	Noviembre	2023-11-25T00:00:00	2024-11-08T17:00:00	6	Velocidad del viento	6.4
21182	7	Sololá	712	San Antonio Palopó	9	San Antonio Palopo	11	Noviembre	2023-11-25T00:00:00	2024-11-08T17:00:00	7	Dirección del viento	6.44
21183	7	Sololá	712	San Antonio Palopó	9	San Antonio Palopo	11	Noviembre	2023-11-25T00:00:00	2024-11-08T17:00:00	1	Precipitación	0
21184	7	Sololá	712	San Antonio Palopó	9	San Antonio Palopo	11	Noviembre	2023-11-25T00:00:00	2024-11-08T17:00:00	8	Radiación solar	103
21185	7	Sololá	712	San Antonio Palopó	9	San Antonio Palopo	11	Noviembre	2023-11-25T00:00:00	2024-11-08T18:00:00	2	Temperatura media	21.3
21186	7	Sololá	712	San Antonio Palopó	9	San Antonio Palopo	11	Noviembre	2023-11-25T00:00:00	2024-11-08T18:00:00	4	Temperatura máxima	21.9
21187	7	Sololá	712	San Antonio Palopó	9	San Antonio Palopo	11	Noviembre	2023-11-25T00:00:00	2024-11-08T18:00:00	3	Temperatura mínima	21.3
21188	7	Sololá	712	San Antonio Palopó	9	San Antonio Palopo	11	Noviembre	2023-11-25T00:00:00	2024-11-08T18:00:00	5	Humedad	79
21189	7	Sololá	712	San Antonio Palopó	9	San Antonio Palopo	11	Noviembre	2023-11-25T00:00:00	2024-11-08T18:00:00	6	Velocidad del viento	3.2
21190	7	Sololá	712	San Antonio Palopó	9	San Antonio Palopo	11	Noviembre	2023-11-25T00:00:00	2024-11-08T18:00:00	7	Dirección del viento	3.22
21191	7	Sololá	712	San Antonio Palopó	9	San Antonio Palopo	11	Noviembre	2023-11-25T00:00:00	2024-11-08T18:00:00	1	Precipitación	0
21192	7	Sololá	712	San Antonio Palopó	9	San Antonio Palopo	11	Noviembre	2023-11-25T00:00:00	2024-11-08T18:00:00	8	Radiación solar	8
21193	7	Sololá	712	San Antonio Palopó	9	San Antonio Palopo	11	Noviembre	2023-11-25T00:00:00	2024-11-08T19:00:00	2	Temperatura media	19.8
21194	7	Sololá	712	San Antonio Palopó	9	San Antonio Palopo	11	Noviembre	2023-11-25T00:00:00	2024-11-08T19:00:00	4	Temperatura máxima	21.3
21195	7	Sololá	712	San Antonio Palopó	9	San Antonio Palopo	11	Noviembre	2023-11-25T00:00:00	2024-11-08T19:00:00	3	Temperatura mínima	19.8
21196	7	Sololá	712	San Antonio Palopó	9	San Antonio Palopo	11	Noviembre	2023-11-25T00:00:00	2024-11-08T19:00:00	5	Humedad	78
21197	7	Sololá	712	San Antonio Palopó	9	San Antonio Palopo	11	Noviembre	2023-11-25T00:00:00	2024-11-08T19:00:00	6	Velocidad del viento	1.6
21198	7	Sololá	712	San Antonio Palopó	9	San Antonio Palopo	11	Noviembre	2023-11-25T00:00:00	2024-11-08T19:00:00	7	Dirección del viento	1.61
21199	7	Sololá	712	San Antonio Palopó	9	San Antonio Palopo	11	Noviembre	2023-11-25T00:00:00	2024-11-08T19:00:00	1	Precipitación	0
21200	7	Sololá	712	San Antonio Palopó	9	San Antonio Palopo	11	Noviembre	2023-11-25T00:00:00	2024-11-08T19:00:00	8	Radiación solar	0
21201	7	Sololá	712	San Antonio Palopó	9	San Antonio Palopo	11	Noviembre	2023-11-25T00:00:00	2024-11-08T20:00:00	2	Temperatura media	19.9
21202	7	Sololá	712	San Antonio Palopó	9	San Antonio Palopo	11	Noviembre	2023-11-25T00:00:00	2024-11-08T20:00:00	4	Temperatura máxima	20.2
21203	7	Sololá	712	San Antonio Palopó	9	San Antonio Palopo	11	Noviembre	2023-11-25T00:00:00	2024-11-08T20:00:00	3	Temperatura mínima	19.8
21204	7	Sololá	712	San Antonio Palopó	9	San Antonio Palopo	11	Noviembre	2023-11-25T00:00:00	2024-11-08T20:00:00	5	Humedad	74
21205	7	Sololá	712	San Antonio Palopó	9	San Antonio Palopo	11	Noviembre	2023-11-25T00:00:00	2024-11-08T20:00:00	6	Velocidad del viento	4.8
21206	7	Sololá	712	San Antonio Palopó	9	San Antonio Palopo	11	Noviembre	2023-11-25T00:00:00	2024-11-08T20:00:00	7	Dirección del viento	4.83
21207	7	Sololá	712	San Antonio Palopó	9	San Antonio Palopo	11	Noviembre	2023-11-25T00:00:00	2024-11-08T20:00:00	1	Precipitación	0
21208	7	Sololá	712	San Antonio Palopó	9	San Antonio Palopo	11	Noviembre	2023-11-25T00:00:00	2024-11-08T20:00:00	8	Radiación solar	0
21209	7	Sololá	712	San Antonio Palopó	9	San Antonio Palopo	11	Noviembre	2023-11-25T00:00:00	2024-11-08T21:00:00	2	Temperatura media	19.6
21210	7	Sololá	712	San Antonio Palopó	9	San Antonio Palopo	11	Noviembre	2023-11-25T00:00:00	2024-11-08T21:00:00	4	Temperatura máxima	20.2
21211	7	Sololá	712	San Antonio Palopó	9	San Antonio Palopo	11	Noviembre	2023-11-25T00:00:00	2024-11-08T21:00:00	3	Temperatura mínima	19.6
21212	7	Sololá	712	San Antonio Palopó	9	San Antonio Palopo	11	Noviembre	2023-11-25T00:00:00	2024-11-08T21:00:00	5	Humedad	75
21213	7	Sololá	712	San Antonio Palopó	9	San Antonio Palopo	11	Noviembre	2023-11-25T00:00:00	2024-11-08T21:00:00	6	Velocidad del viento	3.2
21214	7	Sololá	712	San Antonio Palopó	9	San Antonio Palopo	11	Noviembre	2023-11-25T00:00:00	2024-11-08T21:00:00	7	Dirección del viento	3.22
21215	7	Sololá	712	San Antonio Palopó	9	San Antonio Palopo	11	Noviembre	2023-11-25T00:00:00	2024-11-08T21:00:00	1	Precipitación	0
21216	7	Sololá	712	San Antonio Palopó	9	San Antonio Palopo	11	Noviembre	2023-11-25T00:00:00	2024-11-08T21:00:00	8	Radiación solar	0
21217	7	Sololá	712	San Antonio Palopó	9	San Antonio Palopo	11	Noviembre	2023-11-25T00:00:00	2024-11-08T22:00:00	2	Temperatura media	19.1
21218	7	Sololá	712	San Antonio Palopó	9	San Antonio Palopo	11	Noviembre	2023-11-25T00:00:00	2024-11-08T22:00:00	4	Temperatura máxima	19.6
21219	7	Sololá	712	San Antonio Palopó	9	San Antonio Palopo	11	Noviembre	2023-11-25T00:00:00	2024-11-08T22:00:00	3	Temperatura mínima	18.6
21220	7	Sololá	712	San Antonio Palopó	9	San Antonio Palopo	11	Noviembre	2023-11-25T00:00:00	2024-11-08T22:00:00	5	Humedad	76
21221	7	Sololá	712	San Antonio Palopó	9	San Antonio Palopo	11	Noviembre	2023-11-25T00:00:00	2024-11-08T22:00:00	6	Velocidad del viento	4.8
21222	7	Sololá	712	San Antonio Palopó	9	San Antonio Palopo	11	Noviembre	2023-11-25T00:00:00	2024-11-08T22:00:00	7	Dirección del viento	4.83
21223	7	Sololá	712	San Antonio Palopó	9	San Antonio Palopo	11	Noviembre	2023-11-25T00:00:00	2024-11-08T22:00:00	1	Precipitación	0
21224	7	Sololá	712	San Antonio Palopó	9	San Antonio Palopo	11	Noviembre	2023-11-25T00:00:00	2024-11-08T22:00:00	8	Radiación solar	0
21225	7	Sololá	712	San Antonio Palopó	9	San Antonio Palopo	11	Noviembre	2023-11-25T00:00:00	2024-11-08T23:00:00	2	Temperatura media	18.8
21226	7	Sololá	712	San Antonio Palopó	9	San Antonio Palopo	11	Noviembre	2023-11-25T00:00:00	2024-11-08T23:00:00	4	Temperatura máxima	19.4
21227	7	Sololá	712	San Antonio Palopó	9	San Antonio Palopo	11	Noviembre	2023-11-25T00:00:00	2024-11-08T23:00:00	3	Temperatura mínima	18.4
21228	7	Sololá	712	San Antonio Palopó	9	San Antonio Palopo	11	Noviembre	2023-11-25T00:00:00	2024-11-08T23:00:00	5	Humedad	76
21229	7	Sololá	712	San Antonio Palopó	9	San Antonio Palopo	11	Noviembre	2023-11-25T00:00:00	2024-11-08T23:00:00	6	Velocidad del viento	4.8
21230	7	Sololá	712	San Antonio Palopó	9	San Antonio Palopo	11	Noviembre	2023-11-25T00:00:00	2024-11-08T23:00:00	7	Dirección del viento	4.83
21231	7	Sololá	712	San Antonio Palopó	9	San Antonio Palopo	11	Noviembre	2023-11-25T00:00:00	2024-11-08T23:00:00	1	Precipitación	0
21232	7	Sololá	712	San Antonio Palopó	9	San Antonio Palopo	11	Noviembre	2023-11-25T00:00:00	2024-11-08T23:00:00	8	Radiación solar	0
21233	7	Sololá	712	San Antonio Palopó	9	San Antonio Palopo	11	Noviembre	2023-11-26T00:00:00	2024-11-08T00:00:00	2	Temperatura media	19.3
21234	7	Sololá	712	San Antonio Palopó	9	San Antonio Palopo	11	Noviembre	2023-11-26T00:00:00	2024-11-08T00:00:00	4	Temperatura máxima	19.3
21235	7	Sololá	712	San Antonio Palopó	9	San Antonio Palopo	11	Noviembre	2023-11-26T00:00:00	2024-11-08T00:00:00	3	Temperatura mínima	18.8
21236	7	Sololá	712	San Antonio Palopó	9	San Antonio Palopo	11	Noviembre	2023-11-26T00:00:00	2024-11-08T00:00:00	5	Humedad	74
21237	7	Sololá	712	San Antonio Palopó	9	San Antonio Palopo	11	Noviembre	2023-11-26T00:00:00	2024-11-08T00:00:00	6	Velocidad del viento	6.4
21238	7	Sololá	712	San Antonio Palopó	9	San Antonio Palopo	11	Noviembre	2023-11-26T00:00:00	2024-11-08T00:00:00	7	Dirección del viento	6.44
21239	7	Sololá	712	San Antonio Palopó	9	San Antonio Palopo	11	Noviembre	2023-11-26T00:00:00	2024-11-08T00:00:00	1	Precipitación	0
21240	7	Sololá	712	San Antonio Palopó	9	San Antonio Palopo	11	Noviembre	2023-11-26T00:00:00	2024-11-08T00:00:00	8	Radiación solar	0
21241	7	Sololá	712	San Antonio Palopó	9	San Antonio Palopo	11	Noviembre	2023-11-26T00:00:00	2024-11-08T01:00:00	2	Temperatura media	19.1
21242	7	Sololá	712	San Antonio Palopó	9	San Antonio Palopo	11	Noviembre	2023-11-26T00:00:00	2024-11-08T01:00:00	4	Temperatura máxima	19.3
21243	7	Sololá	712	San Antonio Palopó	9	San Antonio Palopo	11	Noviembre	2023-11-26T00:00:00	2024-11-08T01:00:00	3	Temperatura mínima	18.5
21244	7	Sololá	712	San Antonio Palopó	9	San Antonio Palopo	11	Noviembre	2023-11-26T00:00:00	2024-11-08T01:00:00	5	Humedad	74
21245	7	Sololá	712	San Antonio Palopó	9	San Antonio Palopo	11	Noviembre	2023-11-26T00:00:00	2024-11-08T01:00:00	6	Velocidad del viento	8
21246	7	Sololá	712	San Antonio Palopó	9	San Antonio Palopo	11	Noviembre	2023-11-26T00:00:00	2024-11-08T01:00:00	7	Dirección del viento	8.05
21247	7	Sololá	712	San Antonio Palopó	9	San Antonio Palopo	11	Noviembre	2023-11-26T00:00:00	2024-11-08T01:00:00	1	Precipitación	0
21248	7	Sololá	712	San Antonio Palopó	9	San Antonio Palopo	11	Noviembre	2023-11-26T00:00:00	2024-11-08T01:00:00	8	Radiación solar	0
21249	7	Sololá	712	San Antonio Palopó	9	San Antonio Palopo	11	Noviembre	2023-11-26T00:00:00	2024-11-08T02:00:00	2	Temperatura media	18.8
21250	7	Sololá	712	San Antonio Palopó	9	San Antonio Palopo	11	Noviembre	2023-11-26T00:00:00	2024-11-08T02:00:00	4	Temperatura máxima	19.2
21251	7	Sololá	712	San Antonio Palopó	9	San Antonio Palopo	11	Noviembre	2023-11-26T00:00:00	2024-11-08T02:00:00	3	Temperatura mínima	18.7
21252	7	Sololá	712	San Antonio Palopó	9	San Antonio Palopo	11	Noviembre	2023-11-26T00:00:00	2024-11-08T02:00:00	5	Humedad	73
21253	7	Sololá	712	San Antonio Palopó	9	San Antonio Palopo	11	Noviembre	2023-11-26T00:00:00	2024-11-08T02:00:00	6	Velocidad del viento	9.7
21254	7	Sololá	712	San Antonio Palopó	9	San Antonio Palopo	11	Noviembre	2023-11-26T00:00:00	2024-11-08T02:00:00	7	Dirección del viento	9.66
21255	7	Sololá	712	San Antonio Palopó	9	San Antonio Palopo	11	Noviembre	2023-11-26T00:00:00	2024-11-08T02:00:00	1	Precipitación	0
21256	7	Sololá	712	San Antonio Palopó	9	San Antonio Palopo	11	Noviembre	2023-11-26T00:00:00	2024-11-08T02:00:00	8	Radiación solar	0
21257	7	Sololá	712	San Antonio Palopó	9	San Antonio Palopo	11	Noviembre	2023-11-26T00:00:00	2024-11-08T03:00:00	2	Temperatura media	19.3
21258	7	Sololá	712	San Antonio Palopó	9	San Antonio Palopo	11	Noviembre	2023-11-26T00:00:00	2024-11-08T03:00:00	4	Temperatura máxima	19.4
21259	7	Sololá	712	San Antonio Palopó	9	San Antonio Palopo	11	Noviembre	2023-11-26T00:00:00	2024-11-08T03:00:00	3	Temperatura mínima	18.8
21260	7	Sololá	712	San Antonio Palopó	9	San Antonio Palopo	11	Noviembre	2023-11-26T00:00:00	2024-11-08T03:00:00	5	Humedad	72
21261	7	Sololá	712	San Antonio Palopó	9	San Antonio Palopo	11	Noviembre	2023-11-26T00:00:00	2024-11-08T03:00:00	6	Velocidad del viento	11.3
21262	7	Sololá	712	San Antonio Palopó	9	San Antonio Palopo	11	Noviembre	2023-11-26T00:00:00	2024-11-08T03:00:00	7	Dirección del viento	11.27
21263	7	Sololá	712	San Antonio Palopó	9	San Antonio Palopo	11	Noviembre	2023-11-26T00:00:00	2024-11-08T03:00:00	1	Precipitación	0
21264	7	Sololá	712	San Antonio Palopó	9	San Antonio Palopo	11	Noviembre	2023-11-26T00:00:00	2024-11-08T03:00:00	8	Radiación solar	0
21265	7	Sololá	712	San Antonio Palopó	9	San Antonio Palopo	11	Noviembre	2023-11-26T00:00:00	2024-11-08T04:00:00	2	Temperatura media	18.8
21266	7	Sololá	712	San Antonio Palopó	9	San Antonio Palopo	11	Noviembre	2023-11-26T00:00:00	2024-11-08T04:00:00	4	Temperatura máxima	19.4
21267	7	Sololá	712	San Antonio Palopó	9	San Antonio Palopo	11	Noviembre	2023-11-26T00:00:00	2024-11-08T04:00:00	3	Temperatura mínima	18.8
21268	7	Sololá	712	San Antonio Palopó	9	San Antonio Palopo	11	Noviembre	2023-11-26T00:00:00	2024-11-08T04:00:00	5	Humedad	72
21269	7	Sololá	712	San Antonio Palopó	9	San Antonio Palopo	11	Noviembre	2023-11-26T00:00:00	2024-11-08T04:00:00	6	Velocidad del viento	14.5
21270	7	Sololá	712	San Antonio Palopó	9	San Antonio Palopo	11	Noviembre	2023-11-26T00:00:00	2024-11-08T04:00:00	7	Dirección del viento	14.48
21271	7	Sololá	712	San Antonio Palopó	9	San Antonio Palopo	11	Noviembre	2023-11-26T00:00:00	2024-11-08T04:00:00	1	Precipitación	0
21272	7	Sololá	712	San Antonio Palopó	9	San Antonio Palopo	11	Noviembre	2023-11-26T00:00:00	2024-11-08T04:00:00	8	Radiación solar	0
21273	7	Sololá	712	San Antonio Palopó	9	San Antonio Palopo	11	Noviembre	2023-11-26T00:00:00	2024-11-08T05:00:00	2	Temperatura media	18.9
21274	7	Sololá	712	San Antonio Palopó	9	San Antonio Palopo	11	Noviembre	2023-11-26T00:00:00	2024-11-08T05:00:00	4	Temperatura máxima	19
21275	7	Sololá	712	San Antonio Palopó	9	San Antonio Palopo	11	Noviembre	2023-11-26T00:00:00	2024-11-08T05:00:00	3	Temperatura mínima	18.6
21276	7	Sololá	712	San Antonio Palopó	9	San Antonio Palopo	11	Noviembre	2023-11-26T00:00:00	2024-11-08T05:00:00	5	Humedad	71
21277	7	Sololá	712	San Antonio Palopó	9	San Antonio Palopo	11	Noviembre	2023-11-26T00:00:00	2024-11-08T05:00:00	6	Velocidad del viento	12.9
21278	7	Sololá	712	San Antonio Palopó	9	San Antonio Palopo	11	Noviembre	2023-11-26T00:00:00	2024-11-08T05:00:00	7	Dirección del viento	12.87
21279	7	Sololá	712	San Antonio Palopó	9	San Antonio Palopo	11	Noviembre	2023-11-26T00:00:00	2024-11-08T05:00:00	1	Precipitación	0
21280	7	Sololá	712	San Antonio Palopó	9	San Antonio Palopo	11	Noviembre	2023-11-26T00:00:00	2024-11-08T05:00:00	8	Radiación solar	0
21281	7	Sololá	712	San Antonio Palopó	9	San Antonio Palopo	11	Noviembre	2023-11-26T00:00:00	2024-11-08T06:00:00	2	Temperatura media	18.4
21282	7	Sololá	712	San Antonio Palopó	9	San Antonio Palopo	11	Noviembre	2023-11-26T00:00:00	2024-11-08T06:00:00	4	Temperatura máxima	19.2
21283	7	Sololá	712	San Antonio Palopó	9	San Antonio Palopo	11	Noviembre	2023-11-26T00:00:00	2024-11-08T06:00:00	3	Temperatura mínima	18.4
21284	7	Sololá	712	San Antonio Palopó	9	San Antonio Palopo	11	Noviembre	2023-11-26T00:00:00	2024-11-08T06:00:00	5	Humedad	72
21285	7	Sololá	712	San Antonio Palopó	9	San Antonio Palopo	11	Noviembre	2023-11-26T00:00:00	2024-11-08T06:00:00	6	Velocidad del viento	9.7
21286	7	Sololá	712	San Antonio Palopó	9	San Antonio Palopo	11	Noviembre	2023-11-26T00:00:00	2024-11-08T06:00:00	7	Dirección del viento	9.66
21287	7	Sololá	712	San Antonio Palopó	9	San Antonio Palopo	11	Noviembre	2023-11-26T00:00:00	2024-11-08T06:00:00	1	Precipitación	0
21288	7	Sololá	712	San Antonio Palopó	9	San Antonio Palopo	11	Noviembre	2023-11-26T00:00:00	2024-11-08T06:00:00	8	Radiación solar	0
21289	7	Sololá	712	San Antonio Palopó	9	San Antonio Palopo	11	Noviembre	2023-11-26T00:00:00	2024-11-08T07:00:00	2	Temperatura media	18.6
21290	7	Sololá	712	San Antonio Palopó	9	San Antonio Palopo	11	Noviembre	2023-11-26T00:00:00	2024-11-08T07:00:00	4	Temperatura máxima	18.9
21291	7	Sololá	712	San Antonio Palopó	9	San Antonio Palopo	11	Noviembre	2023-11-26T00:00:00	2024-11-08T07:00:00	3	Temperatura mínima	18.4
21292	7	Sololá	712	San Antonio Palopó	9	San Antonio Palopo	11	Noviembre	2023-11-26T00:00:00	2024-11-08T07:00:00	5	Humedad	71
21293	7	Sololá	712	San Antonio Palopó	9	San Antonio Palopo	11	Noviembre	2023-11-26T00:00:00	2024-11-08T07:00:00	6	Velocidad del viento	14.5
21294	7	Sololá	712	San Antonio Palopó	9	San Antonio Palopo	11	Noviembre	2023-11-26T00:00:00	2024-11-08T07:00:00	7	Dirección del viento	14.48
21295	7	Sololá	712	San Antonio Palopó	9	San Antonio Palopo	11	Noviembre	2023-11-26T00:00:00	2024-11-08T07:00:00	1	Precipitación	0
21296	7	Sololá	712	San Antonio Palopó	9	San Antonio Palopo	11	Noviembre	2023-11-26T00:00:00	2024-11-08T07:00:00	8	Radiación solar	8
21297	7	Sololá	712	San Antonio Palopó	9	San Antonio Palopo	11	Noviembre	2023-11-26T00:00:00	2024-11-08T08:00:00	2	Temperatura media	18.7
21298	7	Sololá	712	San Antonio Palopó	9	San Antonio Palopo	11	Noviembre	2023-11-26T00:00:00	2024-11-08T08:00:00	4	Temperatura máxima	18.7
21299	7	Sololá	712	San Antonio Palopó	9	San Antonio Palopo	11	Noviembre	2023-11-26T00:00:00	2024-11-08T08:00:00	3	Temperatura mínima	18.4
21300	7	Sololá	712	San Antonio Palopó	9	San Antonio Palopo	11	Noviembre	2023-11-26T00:00:00	2024-11-08T08:00:00	5	Humedad	72
21301	7	Sololá	712	San Antonio Palopó	9	San Antonio Palopo	11	Noviembre	2023-11-26T00:00:00	2024-11-08T08:00:00	6	Velocidad del viento	6.4
21302	7	Sololá	712	San Antonio Palopó	9	San Antonio Palopo	11	Noviembre	2023-11-26T00:00:00	2024-11-08T08:00:00	7	Dirección del viento	6.44
21303	7	Sololá	712	San Antonio Palopó	9	San Antonio Palopo	11	Noviembre	2023-11-26T00:00:00	2024-11-08T08:00:00	1	Precipitación	0
21304	7	Sololá	712	San Antonio Palopó	9	San Antonio Palopo	11	Noviembre	2023-11-26T00:00:00	2024-11-08T08:00:00	8	Radiación solar	23
21305	7	Sololá	712	San Antonio Palopó	9	San Antonio Palopo	11	Noviembre	2023-11-26T00:00:00	2024-11-08T09:00:00	2	Temperatura media	21.2
21306	7	Sololá	712	San Antonio Palopó	9	San Antonio Palopo	11	Noviembre	2023-11-26T00:00:00	2024-11-08T09:00:00	4	Temperatura máxima	21.2
21307	7	Sololá	712	San Antonio Palopó	9	San Antonio Palopo	11	Noviembre	2023-11-26T00:00:00	2024-11-08T09:00:00	3	Temperatura mínima	17.9
21308	7	Sololá	712	San Antonio Palopó	9	San Antonio Palopo	11	Noviembre	2023-11-26T00:00:00	2024-11-08T09:00:00	5	Humedad	66
21309	7	Sololá	712	San Antonio Palopó	9	San Antonio Palopo	11	Noviembre	2023-11-26T00:00:00	2024-11-08T09:00:00	6	Velocidad del viento	3.2
21310	7	Sololá	712	San Antonio Palopó	9	San Antonio Palopo	11	Noviembre	2023-11-26T00:00:00	2024-11-08T09:00:00	7	Dirección del viento	3.22
21311	7	Sololá	712	San Antonio Palopó	9	San Antonio Palopo	11	Noviembre	2023-11-26T00:00:00	2024-11-08T09:00:00	1	Precipitación	0
21312	7	Sololá	712	San Antonio Palopó	9	San Antonio Palopo	11	Noviembre	2023-11-26T00:00:00	2024-11-08T09:00:00	8	Radiación solar	310
21313	7	Sololá	712	San Antonio Palopó	9	San Antonio Palopo	11	Noviembre	2023-11-26T00:00:00	2024-11-08T10:00:00	2	Temperatura media	22.1
21314	7	Sololá	712	San Antonio Palopó	9	San Antonio Palopo	11	Noviembre	2023-11-26T00:00:00	2024-11-08T10:00:00	4	Temperatura máxima	22.7
21315	7	Sololá	712	San Antonio Palopó	9	San Antonio Palopo	11	Noviembre	2023-11-26T00:00:00	2024-11-08T10:00:00	3	Temperatura mínima	21.2
21316	7	Sololá	712	San Antonio Palopó	9	San Antonio Palopo	11	Noviembre	2023-11-26T00:00:00	2024-11-08T10:00:00	5	Humedad	65
21317	7	Sololá	712	San Antonio Palopó	9	San Antonio Palopo	11	Noviembre	2023-11-26T00:00:00	2024-11-08T10:00:00	6	Velocidad del viento	3.2
21318	7	Sololá	712	San Antonio Palopó	9	San Antonio Palopo	11	Noviembre	2023-11-26T00:00:00	2024-11-08T10:00:00	7	Dirección del viento	3.22
21319	7	Sololá	712	San Antonio Palopó	9	San Antonio Palopo	11	Noviembre	2023-11-26T00:00:00	2024-11-08T10:00:00	1	Precipitación	0
21320	7	Sololá	712	San Antonio Palopó	9	San Antonio Palopo	11	Noviembre	2023-11-26T00:00:00	2024-11-08T10:00:00	8	Radiación solar	605
21321	7	Sololá	712	San Antonio Palopó	9	San Antonio Palopo	11	Noviembre	2023-11-26T00:00:00	2024-11-08T11:00:00	2	Temperatura media	24.8
21322	7	Sololá	712	San Antonio Palopó	9	San Antonio Palopo	11	Noviembre	2023-11-26T00:00:00	2024-11-08T11:00:00	4	Temperatura máxima	24.8
21323	7	Sololá	712	San Antonio Palopó	9	San Antonio Palopo	11	Noviembre	2023-11-26T00:00:00	2024-11-08T11:00:00	3	Temperatura mínima	21.9
21324	7	Sololá	712	San Antonio Palopó	9	San Antonio Palopo	11	Noviembre	2023-11-26T00:00:00	2024-11-08T11:00:00	5	Humedad	54
21325	7	Sololá	712	San Antonio Palopó	9	San Antonio Palopo	11	Noviembre	2023-11-26T00:00:00	2024-11-08T11:00:00	6	Velocidad del viento	6.4
21326	7	Sololá	712	San Antonio Palopó	9	San Antonio Palopo	11	Noviembre	2023-11-26T00:00:00	2024-11-08T11:00:00	7	Dirección del viento	6.44
21327	7	Sololá	712	San Antonio Palopó	9	San Antonio Palopo	11	Noviembre	2023-11-26T00:00:00	2024-11-08T11:00:00	1	Precipitación	0
21328	7	Sololá	712	San Antonio Palopó	9	San Antonio Palopo	11	Noviembre	2023-11-26T00:00:00	2024-11-08T11:00:00	8	Radiación solar	741
21329	7	Sololá	712	San Antonio Palopó	9	San Antonio Palopo	11	Noviembre	2023-11-26T00:00:00	2024-11-08T12:00:00	2	Temperatura media	25.8
21330	7	Sololá	712	San Antonio Palopó	9	San Antonio Palopo	11	Noviembre	2023-11-26T00:00:00	2024-11-08T12:00:00	4	Temperatura máxima	25.9
21331	7	Sololá	712	San Antonio Palopó	9	San Antonio Palopo	11	Noviembre	2023-11-26T00:00:00	2024-11-08T12:00:00	3	Temperatura mínima	24.8
21332	7	Sololá	712	San Antonio Palopó	9	San Antonio Palopo	11	Noviembre	2023-11-26T00:00:00	2024-11-08T12:00:00	5	Humedad	51
21333	7	Sololá	712	San Antonio Palopó	9	San Antonio Palopo	11	Noviembre	2023-11-26T00:00:00	2024-11-08T12:00:00	6	Velocidad del viento	11.3
21334	7	Sololá	712	San Antonio Palopó	9	San Antonio Palopo	11	Noviembre	2023-11-26T00:00:00	2024-11-08T12:00:00	7	Dirección del viento	11.27
21335	7	Sololá	712	San Antonio Palopó	9	San Antonio Palopo	11	Noviembre	2023-11-26T00:00:00	2024-11-08T12:00:00	1	Precipitación	0
21336	7	Sololá	712	San Antonio Palopó	9	San Antonio Palopo	11	Noviembre	2023-11-26T00:00:00	2024-11-08T12:00:00	8	Radiación solar	696
21337	7	Sololá	712	San Antonio Palopó	9	San Antonio Palopo	11	Noviembre	2023-11-26T00:00:00	2024-11-08T13:00:00	2	Temperatura media	24.5
21338	7	Sololá	712	San Antonio Palopó	9	San Antonio Palopo	11	Noviembre	2023-11-26T00:00:00	2024-11-08T13:00:00	4	Temperatura máxima	26.1
21339	7	Sololá	712	San Antonio Palopó	9	San Antonio Palopo	11	Noviembre	2023-11-26T00:00:00	2024-11-08T13:00:00	3	Temperatura mínima	24.1
21340	7	Sololá	712	San Antonio Palopó	9	San Antonio Palopo	11	Noviembre	2023-11-26T00:00:00	2024-11-08T13:00:00	5	Humedad	63
21341	7	Sololá	712	San Antonio Palopó	9	San Antonio Palopo	11	Noviembre	2023-11-26T00:00:00	2024-11-08T13:00:00	6	Velocidad del viento	12.9
21342	7	Sololá	712	San Antonio Palopó	9	San Antonio Palopo	11	Noviembre	2023-11-26T00:00:00	2024-11-08T13:00:00	7	Dirección del viento	12.87
21343	7	Sololá	712	San Antonio Palopó	9	San Antonio Palopo	11	Noviembre	2023-11-26T00:00:00	2024-11-08T13:00:00	1	Precipitación	0
21344	7	Sololá	712	San Antonio Palopó	9	San Antonio Palopo	11	Noviembre	2023-11-26T00:00:00	2024-11-08T13:00:00	8	Radiación solar	779
21345	7	Sololá	712	San Antonio Palopó	9	San Antonio Palopo	11	Noviembre	2023-11-26T00:00:00	2024-11-08T14:00:00	2	Temperatura media	24.3
21346	7	Sololá	712	San Antonio Palopó	9	San Antonio Palopo	11	Noviembre	2023-11-26T00:00:00	2024-11-08T14:00:00	4	Temperatura máxima	24.9
21347	7	Sololá	712	San Antonio Palopó	9	San Antonio Palopo	11	Noviembre	2023-11-26T00:00:00	2024-11-08T14:00:00	3	Temperatura mínima	23.9
21348	7	Sololá	712	San Antonio Palopó	9	San Antonio Palopo	11	Noviembre	2023-11-26T00:00:00	2024-11-08T14:00:00	5	Humedad	65
21349	7	Sololá	712	San Antonio Palopó	9	San Antonio Palopo	11	Noviembre	2023-11-26T00:00:00	2024-11-08T14:00:00	6	Velocidad del viento	16.1
21350	7	Sololá	712	San Antonio Palopó	9	San Antonio Palopo	11	Noviembre	2023-11-26T00:00:00	2024-11-08T14:00:00	7	Dirección del viento	16.09
21351	7	Sololá	712	San Antonio Palopó	9	San Antonio Palopo	11	Noviembre	2023-11-26T00:00:00	2024-11-08T14:00:00	1	Precipitación	0
21352	7	Sololá	712	San Antonio Palopó	9	San Antonio Palopo	11	Noviembre	2023-11-26T00:00:00	2024-11-08T14:00:00	8	Radiación solar	644
21353	7	Sololá	712	San Antonio Palopó	9	San Antonio Palopo	11	Noviembre	2023-11-26T00:00:00	2024-11-08T15:00:00	2	Temperatura media	24.3
21354	7	Sololá	712	San Antonio Palopó	9	San Antonio Palopo	11	Noviembre	2023-11-26T00:00:00	2024-11-08T15:00:00	4	Temperatura máxima	25.1
21355	7	Sololá	712	San Antonio Palopó	9	San Antonio Palopo	11	Noviembre	2023-11-26T00:00:00	2024-11-08T15:00:00	3	Temperatura mínima	23.9
21356	7	Sololá	712	San Antonio Palopó	9	San Antonio Palopo	11	Noviembre	2023-11-26T00:00:00	2024-11-08T15:00:00	5	Humedad	63
21357	7	Sololá	712	San Antonio Palopó	9	San Antonio Palopo	11	Noviembre	2023-11-26T00:00:00	2024-11-08T15:00:00	6	Velocidad del viento	16.1
21358	7	Sololá	712	San Antonio Palopó	9	San Antonio Palopo	11	Noviembre	2023-11-26T00:00:00	2024-11-08T15:00:00	7	Dirección del viento	16.09
21359	7	Sololá	712	San Antonio Palopó	9	San Antonio Palopo	11	Noviembre	2023-11-26T00:00:00	2024-11-08T15:00:00	1	Precipitación	0
21360	7	Sololá	712	San Antonio Palopó	9	San Antonio Palopo	11	Noviembre	2023-11-26T00:00:00	2024-11-08T15:00:00	8	Radiación solar	544
21361	7	Sololá	712	San Antonio Palopó	9	San Antonio Palopo	11	Noviembre	2023-11-26T00:00:00	2024-11-08T16:00:00	2	Temperatura media	23
21362	7	Sololá	712	San Antonio Palopó	9	San Antonio Palopo	11	Noviembre	2023-11-26T00:00:00	2024-11-08T16:00:00	4	Temperatura máxima	25.8
21363	7	Sololá	712	San Antonio Palopó	9	San Antonio Palopo	11	Noviembre	2023-11-26T00:00:00	2024-11-08T16:00:00	3	Temperatura mínima	23
21364	7	Sololá	712	San Antonio Palopó	9	San Antonio Palopo	11	Noviembre	2023-11-26T00:00:00	2024-11-08T16:00:00	5	Humedad	74
21365	7	Sololá	712	San Antonio Palopó	9	San Antonio Palopo	11	Noviembre	2023-11-26T00:00:00	2024-11-08T16:00:00	6	Velocidad del viento	12.9
21366	7	Sololá	712	San Antonio Palopó	9	San Antonio Palopo	11	Noviembre	2023-11-26T00:00:00	2024-11-08T16:00:00	7	Dirección del viento	12.87
21367	7	Sololá	712	San Antonio Palopó	9	San Antonio Palopo	11	Noviembre	2023-11-26T00:00:00	2024-11-08T16:00:00	1	Precipitación	0
21368	7	Sololá	712	San Antonio Palopó	9	San Antonio Palopo	11	Noviembre	2023-11-26T00:00:00	2024-11-08T16:00:00	8	Radiación solar	342
21369	7	Sololá	712	San Antonio Palopó	9	San Antonio Palopo	11	Noviembre	2023-11-26T00:00:00	2024-11-08T17:00:00	2	Temperatura media	22.8
21370	7	Sololá	712	San Antonio Palopó	9	San Antonio Palopo	11	Noviembre	2023-11-26T00:00:00	2024-11-08T17:00:00	4	Temperatura máxima	24.1
21371	7	Sololá	712	San Antonio Palopó	9	San Antonio Palopo	11	Noviembre	2023-11-26T00:00:00	2024-11-08T17:00:00	3	Temperatura mínima	22.8
21372	7	Sololá	712	San Antonio Palopó	9	San Antonio Palopo	11	Noviembre	2023-11-26T00:00:00	2024-11-08T17:00:00	5	Humedad	73
21373	7	Sololá	712	San Antonio Palopó	9	San Antonio Palopo	11	Noviembre	2023-11-26T00:00:00	2024-11-08T17:00:00	6	Velocidad del viento	6.4
21374	7	Sololá	712	San Antonio Palopó	9	San Antonio Palopo	11	Noviembre	2023-11-26T00:00:00	2024-11-08T17:00:00	7	Dirección del viento	6.44
21375	7	Sololá	712	San Antonio Palopó	9	San Antonio Palopo	11	Noviembre	2023-11-26T00:00:00	2024-11-08T17:00:00	1	Precipitación	0
21376	7	Sololá	712	San Antonio Palopó	9	San Antonio Palopo	11	Noviembre	2023-11-26T00:00:00	2024-11-08T17:00:00	8	Radiación solar	125
21377	7	Sololá	712	San Antonio Palopó	9	San Antonio Palopo	11	Noviembre	2023-11-26T00:00:00	2024-11-08T18:00:00	2	Temperatura media	21.6
21378	7	Sololá	712	San Antonio Palopó	9	San Antonio Palopo	11	Noviembre	2023-11-26T00:00:00	2024-11-08T18:00:00	4	Temperatura máxima	22.8
21379	7	Sololá	712	San Antonio Palopó	9	San Antonio Palopo	11	Noviembre	2023-11-26T00:00:00	2024-11-08T18:00:00	3	Temperatura mínima	21.6
21380	7	Sololá	712	San Antonio Palopó	9	San Antonio Palopo	11	Noviembre	2023-11-26T00:00:00	2024-11-08T18:00:00	5	Humedad	68
21381	7	Sololá	712	San Antonio Palopó	9	San Antonio Palopo	11	Noviembre	2023-11-26T00:00:00	2024-11-08T18:00:00	6	Velocidad del viento	1.6
21382	7	Sololá	712	San Antonio Palopó	9	San Antonio Palopo	11	Noviembre	2023-11-26T00:00:00	2024-11-08T18:00:00	7	Dirección del viento	1.61
21383	7	Sololá	712	San Antonio Palopó	9	San Antonio Palopo	11	Noviembre	2023-11-26T00:00:00	2024-11-08T18:00:00	1	Precipitación	0
21384	7	Sololá	712	San Antonio Palopó	9	San Antonio Palopo	11	Noviembre	2023-11-26T00:00:00	2024-11-08T18:00:00	8	Radiación solar	11
21385	7	Sololá	712	San Antonio Palopó	9	San Antonio Palopo	11	Noviembre	2023-11-26T00:00:00	2024-11-08T19:00:00	2	Temperatura media	21.5
21386	7	Sololá	712	San Antonio Palopó	9	San Antonio Palopo	11	Noviembre	2023-11-26T00:00:00	2024-11-08T19:00:00	4	Temperatura máxima	21.9
21387	7	Sololá	712	San Antonio Palopó	9	San Antonio Palopo	11	Noviembre	2023-11-26T00:00:00	2024-11-08T19:00:00	3	Temperatura mínima	21.5
21388	7	Sololá	712	San Antonio Palopó	9	San Antonio Palopo	11	Noviembre	2023-11-26T00:00:00	2024-11-08T19:00:00	5	Humedad	62
21389	7	Sololá	712	San Antonio Palopó	9	San Antonio Palopo	11	Noviembre	2023-11-26T00:00:00	2024-11-08T19:00:00	6	Velocidad del viento	3.2
21390	7	Sololá	712	San Antonio Palopó	9	San Antonio Palopo	11	Noviembre	2023-11-26T00:00:00	2024-11-08T19:00:00	7	Dirección del viento	3.22
21391	7	Sololá	712	San Antonio Palopó	9	San Antonio Palopo	11	Noviembre	2023-11-26T00:00:00	2024-11-08T19:00:00	1	Precipitación	0
21392	7	Sololá	712	San Antonio Palopó	9	San Antonio Palopo	11	Noviembre	2023-11-26T00:00:00	2024-11-08T19:00:00	8	Radiación solar	0
21393	7	Sololá	712	San Antonio Palopó	9	San Antonio Palopo	11	Noviembre	2023-11-26T00:00:00	2024-11-08T20:00:00	2	Temperatura media	20.9
21394	7	Sololá	712	San Antonio Palopó	9	San Antonio Palopo	11	Noviembre	2023-11-26T00:00:00	2024-11-08T20:00:00	4	Temperatura máxima	21.5
21395	7	Sololá	712	San Antonio Palopó	9	San Antonio Palopo	11	Noviembre	2023-11-26T00:00:00	2024-11-08T20:00:00	3	Temperatura mínima	20.8
21396	7	Sololá	712	San Antonio Palopó	9	San Antonio Palopo	11	Noviembre	2023-11-26T00:00:00	2024-11-08T20:00:00	5	Humedad	67
21397	7	Sololá	712	San Antonio Palopó	9	San Antonio Palopo	11	Noviembre	2023-11-26T00:00:00	2024-11-08T20:00:00	6	Velocidad del viento	8
21398	7	Sololá	712	San Antonio Palopó	9	San Antonio Palopo	11	Noviembre	2023-11-26T00:00:00	2024-11-08T20:00:00	7	Dirección del viento	8.05
21399	7	Sololá	712	San Antonio Palopó	9	San Antonio Palopo	11	Noviembre	2023-11-26T00:00:00	2024-11-08T20:00:00	1	Precipitación	0
21400	7	Sololá	712	San Antonio Palopó	9	San Antonio Palopo	11	Noviembre	2023-11-26T00:00:00	2024-11-08T20:00:00	8	Radiación solar	0
21401	7	Sololá	712	San Antonio Palopó	9	San Antonio Palopo	11	Noviembre	2023-11-26T00:00:00	2024-11-08T21:00:00	2	Temperatura media	20.8
21402	7	Sololá	712	San Antonio Palopó	9	San Antonio Palopo	11	Noviembre	2023-11-26T00:00:00	2024-11-08T21:00:00	4	Temperatura máxima	20.9
21403	7	Sololá	712	San Antonio Palopó	9	San Antonio Palopo	11	Noviembre	2023-11-26T00:00:00	2024-11-08T21:00:00	3	Temperatura mínima	20.4
21404	7	Sololá	712	San Antonio Palopó	9	San Antonio Palopo	11	Noviembre	2023-11-26T00:00:00	2024-11-08T21:00:00	5	Humedad	70
21405	7	Sololá	712	San Antonio Palopó	9	San Antonio Palopo	11	Noviembre	2023-11-26T00:00:00	2024-11-08T21:00:00	6	Velocidad del viento	6.4
21406	7	Sololá	712	San Antonio Palopó	9	San Antonio Palopo	11	Noviembre	2023-11-26T00:00:00	2024-11-08T21:00:00	7	Dirección del viento	6.44
21407	7	Sololá	712	San Antonio Palopó	9	San Antonio Palopo	11	Noviembre	2023-11-26T00:00:00	2024-11-08T21:00:00	1	Precipitación	0
21408	7	Sololá	712	San Antonio Palopó	9	San Antonio Palopo	11	Noviembre	2023-11-26T00:00:00	2024-11-08T21:00:00	8	Radiación solar	0
21409	7	Sololá	712	San Antonio Palopó	9	San Antonio Palopo	11	Noviembre	2023-11-26T00:00:00	2024-11-08T22:00:00	2	Temperatura media	20.3
21410	7	Sololá	712	San Antonio Palopó	9	San Antonio Palopo	11	Noviembre	2023-11-26T00:00:00	2024-11-08T22:00:00	4	Temperatura máxima	20.8
21411	7	Sololá	712	San Antonio Palopó	9	San Antonio Palopo	11	Noviembre	2023-11-26T00:00:00	2024-11-08T22:00:00	3	Temperatura mínima	20.3
21412	7	Sololá	712	San Antonio Palopó	9	San Antonio Palopo	11	Noviembre	2023-11-26T00:00:00	2024-11-08T22:00:00	5	Humedad	71
21413	7	Sololá	712	San Antonio Palopó	9	San Antonio Palopo	11	Noviembre	2023-11-26T00:00:00	2024-11-08T22:00:00	6	Velocidad del viento	6.4
21414	7	Sololá	712	San Antonio Palopó	9	San Antonio Palopo	11	Noviembre	2023-11-26T00:00:00	2024-11-08T22:00:00	7	Dirección del viento	6.44
21415	7	Sololá	712	San Antonio Palopó	9	San Antonio Palopo	11	Noviembre	2023-11-26T00:00:00	2024-11-08T22:00:00	1	Precipitación	0
21416	7	Sololá	712	San Antonio Palopó	9	San Antonio Palopo	11	Noviembre	2023-11-26T00:00:00	2024-11-08T22:00:00	8	Radiación solar	0
21417	7	Sololá	712	San Antonio Palopó	9	San Antonio Palopo	11	Noviembre	2023-11-26T00:00:00	2024-11-08T23:00:00	2	Temperatura media	19.9
21418	7	Sololá	712	San Antonio Palopó	9	San Antonio Palopo	11	Noviembre	2023-11-26T00:00:00	2024-11-08T23:00:00	4	Temperatura máxima	20.3
21419	7	Sololá	712	San Antonio Palopó	9	San Antonio Palopo	11	Noviembre	2023-11-26T00:00:00	2024-11-08T23:00:00	3	Temperatura mínima	19.8
21420	7	Sololá	712	San Antonio Palopó	9	San Antonio Palopo	11	Noviembre	2023-11-26T00:00:00	2024-11-08T23:00:00	5	Humedad	70
21421	7	Sololá	712	San Antonio Palopó	9	San Antonio Palopo	11	Noviembre	2023-11-26T00:00:00	2024-11-08T23:00:00	6	Velocidad del viento	6.4
21422	7	Sololá	712	San Antonio Palopó	9	San Antonio Palopo	11	Noviembre	2023-11-26T00:00:00	2024-11-08T23:00:00	7	Dirección del viento	6.44
21423	7	Sololá	712	San Antonio Palopó	9	San Antonio Palopo	11	Noviembre	2023-11-26T00:00:00	2024-11-08T23:00:00	1	Precipitación	0
21424	7	Sololá	712	San Antonio Palopó	9	San Antonio Palopo	11	Noviembre	2023-11-26T00:00:00	2024-11-08T23:00:00	8	Radiación solar	0
21425	7	Sololá	712	San Antonio Palopó	9	San Antonio Palopo	11	Noviembre	2023-11-27T00:00:00	2024-11-08T00:00:00	2	Temperatura media	19.7
21426	7	Sololá	712	San Antonio Palopó	9	San Antonio Palopo	11	Noviembre	2023-11-27T00:00:00	2024-11-08T00:00:00	4	Temperatura máxima	20.2
21427	7	Sololá	712	San Antonio Palopó	9	San Antonio Palopo	11	Noviembre	2023-11-27T00:00:00	2024-11-08T00:00:00	3	Temperatura mínima	19.6
21428	7	Sololá	712	San Antonio Palopó	9	San Antonio Palopo	11	Noviembre	2023-11-27T00:00:00	2024-11-08T00:00:00	5	Humedad	68
21429	7	Sololá	712	San Antonio Palopó	9	San Antonio Palopo	11	Noviembre	2023-11-27T00:00:00	2024-11-08T00:00:00	6	Velocidad del viento	11.3
21430	7	Sololá	712	San Antonio Palopó	9	San Antonio Palopo	11	Noviembre	2023-11-27T00:00:00	2024-11-08T00:00:00	7	Dirección del viento	11.27
21431	7	Sololá	712	San Antonio Palopó	9	San Antonio Palopo	11	Noviembre	2023-11-27T00:00:00	2024-11-08T00:00:00	1	Precipitación	0
21432	7	Sololá	712	San Antonio Palopó	9	San Antonio Palopo	11	Noviembre	2023-11-27T00:00:00	2024-11-08T00:00:00	8	Radiación solar	0
21433	7	Sololá	712	San Antonio Palopó	9	San Antonio Palopo	11	Noviembre	2023-11-27T00:00:00	2024-11-08T01:00:00	2	Temperatura media	19.6
21434	7	Sololá	712	San Antonio Palopó	9	San Antonio Palopo	11	Noviembre	2023-11-27T00:00:00	2024-11-08T01:00:00	4	Temperatura máxima	19.9
21435	7	Sololá	712	San Antonio Palopó	9	San Antonio Palopo	11	Noviembre	2023-11-27T00:00:00	2024-11-08T01:00:00	3	Temperatura mínima	19.5
21436	7	Sololá	712	San Antonio Palopó	9	San Antonio Palopo	11	Noviembre	2023-11-27T00:00:00	2024-11-08T01:00:00	5	Humedad	65
21437	7	Sololá	712	San Antonio Palopó	9	San Antonio Palopo	11	Noviembre	2023-11-27T00:00:00	2024-11-08T01:00:00	6	Velocidad del viento	9.7
21438	7	Sololá	712	San Antonio Palopó	9	San Antonio Palopo	11	Noviembre	2023-11-27T00:00:00	2024-11-08T01:00:00	7	Dirección del viento	9.66
21439	7	Sololá	712	San Antonio Palopó	9	San Antonio Palopo	11	Noviembre	2023-11-27T00:00:00	2024-11-08T01:00:00	1	Precipitación	0
21440	7	Sololá	712	San Antonio Palopó	9	San Antonio Palopo	11	Noviembre	2023-11-27T00:00:00	2024-11-08T01:00:00	8	Radiación solar	0
21441	7	Sololá	712	San Antonio Palopó	9	San Antonio Palopo	11	Noviembre	2023-11-27T00:00:00	2024-11-08T02:00:00	2	Temperatura media	19.2
21442	7	Sololá	712	San Antonio Palopó	9	San Antonio Palopo	11	Noviembre	2023-11-27T00:00:00	2024-11-08T02:00:00	4	Temperatura máxima	19.8
21443	7	Sololá	712	San Antonio Palopó	9	San Antonio Palopo	11	Noviembre	2023-11-27T00:00:00	2024-11-08T02:00:00	3	Temperatura mínima	19.2
21444	7	Sololá	712	San Antonio Palopó	9	San Antonio Palopo	11	Noviembre	2023-11-27T00:00:00	2024-11-08T02:00:00	5	Humedad	66
21445	7	Sololá	712	San Antonio Palopó	9	San Antonio Palopo	11	Noviembre	2023-11-27T00:00:00	2024-11-08T02:00:00	6	Velocidad del viento	11.3
21446	7	Sololá	712	San Antonio Palopó	9	San Antonio Palopo	11	Noviembre	2023-11-27T00:00:00	2024-11-08T02:00:00	7	Dirección del viento	11.27
21447	7	Sololá	712	San Antonio Palopó	9	San Antonio Palopo	11	Noviembre	2023-11-27T00:00:00	2024-11-08T02:00:00	1	Precipitación	0
21448	7	Sololá	712	San Antonio Palopó	9	San Antonio Palopo	11	Noviembre	2023-11-27T00:00:00	2024-11-08T02:00:00	8	Radiación solar	0
21449	7	Sololá	712	San Antonio Palopó	9	San Antonio Palopo	11	Noviembre	2023-11-27T00:00:00	2024-11-08T03:00:00	2	Temperatura media	19.6
21450	7	Sololá	712	San Antonio Palopó	9	San Antonio Palopo	11	Noviembre	2023-11-27T00:00:00	2024-11-08T03:00:00	4	Temperatura máxima	19.6
21451	7	Sololá	712	San Antonio Palopó	9	San Antonio Palopo	11	Noviembre	2023-11-27T00:00:00	2024-11-08T03:00:00	3	Temperatura mínima	19.1
21452	7	Sololá	712	San Antonio Palopó	9	San Antonio Palopo	11	Noviembre	2023-11-27T00:00:00	2024-11-08T03:00:00	5	Humedad	64
21453	7	Sololá	712	San Antonio Palopó	9	San Antonio Palopo	11	Noviembre	2023-11-27T00:00:00	2024-11-08T03:00:00	6	Velocidad del viento	6.4
21454	7	Sololá	712	San Antonio Palopó	9	San Antonio Palopo	11	Noviembre	2023-11-27T00:00:00	2024-11-08T03:00:00	7	Dirección del viento	6.44
21455	7	Sololá	712	San Antonio Palopó	9	San Antonio Palopo	11	Noviembre	2023-11-27T00:00:00	2024-11-08T03:00:00	1	Precipitación	0
21456	7	Sololá	712	San Antonio Palopó	9	San Antonio Palopo	11	Noviembre	2023-11-27T00:00:00	2024-11-08T03:00:00	8	Radiación solar	0
21457	7	Sololá	712	San Antonio Palopó	9	San Antonio Palopo	11	Noviembre	2023-11-27T00:00:00	2024-11-08T04:00:00	2	Temperatura media	19.6
21458	7	Sololá	712	San Antonio Palopó	9	San Antonio Palopo	11	Noviembre	2023-11-27T00:00:00	2024-11-08T04:00:00	4	Temperatura máxima	19.8
21459	7	Sololá	712	San Antonio Palopó	9	San Antonio Palopo	11	Noviembre	2023-11-27T00:00:00	2024-11-08T04:00:00	3	Temperatura mínima	19.4
21460	7	Sololá	712	San Antonio Palopó	9	San Antonio Palopo	11	Noviembre	2023-11-27T00:00:00	2024-11-08T04:00:00	5	Humedad	63
21461	7	Sololá	712	San Antonio Palopó	9	San Antonio Palopo	11	Noviembre	2023-11-27T00:00:00	2024-11-08T04:00:00	6	Velocidad del viento	6.4
21462	7	Sololá	712	San Antonio Palopó	9	San Antonio Palopo	11	Noviembre	2023-11-27T00:00:00	2024-11-08T04:00:00	7	Dirección del viento	6.44
21463	7	Sololá	712	San Antonio Palopó	9	San Antonio Palopo	11	Noviembre	2023-11-27T00:00:00	2024-11-08T04:00:00	1	Precipitación	0
21464	7	Sololá	712	San Antonio Palopó	9	San Antonio Palopo	11	Noviembre	2023-11-27T00:00:00	2024-11-08T04:00:00	8	Radiación solar	0
21465	7	Sololá	712	San Antonio Palopó	9	San Antonio Palopo	11	Noviembre	2023-11-27T00:00:00	2024-11-08T05:00:00	2	Temperatura media	19.9
21466	7	Sololá	712	San Antonio Palopó	9	San Antonio Palopo	11	Noviembre	2023-11-27T00:00:00	2024-11-08T05:00:00	4	Temperatura máxima	20.2
21467	7	Sololá	712	San Antonio Palopó	9	San Antonio Palopo	11	Noviembre	2023-11-27T00:00:00	2024-11-08T05:00:00	3	Temperatura mínima	18.9
21468	7	Sololá	712	San Antonio Palopó	9	San Antonio Palopo	11	Noviembre	2023-11-27T00:00:00	2024-11-08T05:00:00	5	Humedad	60
21469	7	Sololá	712	San Antonio Palopó	9	San Antonio Palopo	11	Noviembre	2023-11-27T00:00:00	2024-11-08T05:00:00	6	Velocidad del viento	8
21470	7	Sololá	712	San Antonio Palopó	9	San Antonio Palopo	11	Noviembre	2023-11-27T00:00:00	2024-11-08T05:00:00	7	Dirección del viento	8.05
21471	7	Sololá	712	San Antonio Palopó	9	San Antonio Palopo	11	Noviembre	2023-11-27T00:00:00	2024-11-08T05:00:00	1	Precipitación	0
21472	7	Sololá	712	San Antonio Palopó	9	San Antonio Palopo	11	Noviembre	2023-11-27T00:00:00	2024-11-08T05:00:00	8	Radiación solar	0
21473	7	Sololá	712	San Antonio Palopó	9	San Antonio Palopo	11	Noviembre	2023-11-27T00:00:00	2024-11-08T06:00:00	2	Temperatura media	18.8
21474	7	Sololá	712	San Antonio Palopó	9	San Antonio Palopo	11	Noviembre	2023-11-27T00:00:00	2024-11-08T06:00:00	4	Temperatura máxima	20
21475	7	Sololá	712	San Antonio Palopó	9	San Antonio Palopo	11	Noviembre	2023-11-27T00:00:00	2024-11-08T06:00:00	3	Temperatura mínima	18.6
21476	7	Sololá	712	San Antonio Palopó	9	San Antonio Palopo	11	Noviembre	2023-11-27T00:00:00	2024-11-08T06:00:00	5	Humedad	62
21477	7	Sololá	712	San Antonio Palopó	9	San Antonio Palopo	11	Noviembre	2023-11-27T00:00:00	2024-11-08T06:00:00	6	Velocidad del viento	8
21478	7	Sololá	712	San Antonio Palopó	9	San Antonio Palopo	11	Noviembre	2023-11-27T00:00:00	2024-11-08T06:00:00	7	Dirección del viento	8.05
21479	7	Sololá	712	San Antonio Palopó	9	San Antonio Palopo	11	Noviembre	2023-11-27T00:00:00	2024-11-08T06:00:00	1	Precipitación	0
21480	7	Sololá	712	San Antonio Palopó	9	San Antonio Palopo	11	Noviembre	2023-11-27T00:00:00	2024-11-08T06:00:00	8	Radiación solar	0
21481	7	Sololá	712	San Antonio Palopó	9	San Antonio Palopo	11	Noviembre	2023-11-27T00:00:00	2024-11-08T07:00:00	2	Temperatura media	19.5
21482	7	Sololá	712	San Antonio Palopó	9	San Antonio Palopo	11	Noviembre	2023-11-27T00:00:00	2024-11-08T07:00:00	4	Temperatura máxima	19.6
21483	7	Sololá	712	San Antonio Palopó	9	San Antonio Palopo	11	Noviembre	2023-11-27T00:00:00	2024-11-08T07:00:00	3	Temperatura mínima	18.8
21484	7	Sololá	712	San Antonio Palopó	9	San Antonio Palopo	11	Noviembre	2023-11-27T00:00:00	2024-11-08T07:00:00	5	Humedad	63
21485	7	Sololá	712	San Antonio Palopó	9	San Antonio Palopo	11	Noviembre	2023-11-27T00:00:00	2024-11-08T07:00:00	6	Velocidad del viento	9.7
21486	7	Sololá	712	San Antonio Palopó	9	San Antonio Palopo	11	Noviembre	2023-11-27T00:00:00	2024-11-08T07:00:00	7	Dirección del viento	9.66
21487	7	Sololá	712	San Antonio Palopó	9	San Antonio Palopo	11	Noviembre	2023-11-27T00:00:00	2024-11-08T07:00:00	1	Precipitación	0
21488	7	Sololá	712	San Antonio Palopó	9	San Antonio Palopo	11	Noviembre	2023-11-27T00:00:00	2024-11-08T07:00:00	8	Radiación solar	8
21489	7	Sololá	712	San Antonio Palopó	9	San Antonio Palopo	11	Noviembre	2023-11-27T00:00:00	2024-11-08T08:00:00	2	Temperatura media	19.6
21490	7	Sololá	712	San Antonio Palopó	9	San Antonio Palopo	11	Noviembre	2023-11-27T00:00:00	2024-11-08T08:00:00	4	Temperatura máxima	19.6
21491	7	Sololá	712	San Antonio Palopó	9	San Antonio Palopo	11	Noviembre	2023-11-27T00:00:00	2024-11-08T08:00:00	3	Temperatura mínima	18.3
21492	7	Sololá	712	San Antonio Palopó	9	San Antonio Palopo	11	Noviembre	2023-11-27T00:00:00	2024-11-08T08:00:00	5	Humedad	64
21493	7	Sololá	712	San Antonio Palopó	9	San Antonio Palopo	11	Noviembre	2023-11-27T00:00:00	2024-11-08T08:00:00	6	Velocidad del viento	8
21494	7	Sololá	712	San Antonio Palopó	9	San Antonio Palopo	11	Noviembre	2023-11-27T00:00:00	2024-11-08T08:00:00	7	Dirección del viento	8.05
21495	7	Sololá	712	San Antonio Palopó	9	San Antonio Palopo	11	Noviembre	2023-11-27T00:00:00	2024-11-08T08:00:00	1	Precipitación	0
21496	7	Sololá	712	San Antonio Palopó	9	San Antonio Palopo	11	Noviembre	2023-11-27T00:00:00	2024-11-08T08:00:00	8	Radiación solar	18
21497	7	Sololá	712	San Antonio Palopó	9	San Antonio Palopo	11	Noviembre	2023-11-27T00:00:00	2024-11-08T09:00:00	2	Temperatura media	21.4
21498	7	Sololá	712	San Antonio Palopó	9	San Antonio Palopo	11	Noviembre	2023-11-27T00:00:00	2024-11-08T09:00:00	4	Temperatura máxima	21.4
21499	7	Sololá	712	San Antonio Palopó	9	San Antonio Palopo	11	Noviembre	2023-11-27T00:00:00	2024-11-08T09:00:00	3	Temperatura mínima	19.2
21500	7	Sololá	712	San Antonio Palopó	9	San Antonio Palopo	11	Noviembre	2023-11-27T00:00:00	2024-11-08T09:00:00	5	Humedad	62
21501	7	Sololá	712	San Antonio Palopó	9	San Antonio Palopo	11	Noviembre	2023-11-27T00:00:00	2024-11-08T09:00:00	6	Velocidad del viento	4.8
21502	7	Sololá	712	San Antonio Palopó	9	San Antonio Palopo	11	Noviembre	2023-11-27T00:00:00	2024-11-08T09:00:00	7	Dirección del viento	4.83
21503	7	Sololá	712	San Antonio Palopó	9	San Antonio Palopo	11	Noviembre	2023-11-27T00:00:00	2024-11-08T09:00:00	1	Precipitación	0
21504	7	Sololá	712	San Antonio Palopó	9	San Antonio Palopo	11	Noviembre	2023-11-27T00:00:00	2024-11-08T09:00:00	8	Radiación solar	282
21505	7	Sololá	712	San Antonio Palopó	9	San Antonio Palopo	11	Noviembre	2023-11-27T00:00:00	2024-11-08T10:00:00	2	Temperatura media	23.2
21506	7	Sololá	712	San Antonio Palopó	9	San Antonio Palopo	11	Noviembre	2023-11-27T00:00:00	2024-11-08T10:00:00	4	Temperatura máxima	23.2
21507	7	Sololá	712	San Antonio Palopó	9	San Antonio Palopo	11	Noviembre	2023-11-27T00:00:00	2024-11-08T10:00:00	3	Temperatura mínima	21.4
21508	7	Sololá	712	San Antonio Palopó	9	San Antonio Palopo	11	Noviembre	2023-11-27T00:00:00	2024-11-08T10:00:00	5	Humedad	59
21509	7	Sololá	712	San Antonio Palopó	9	San Antonio Palopo	11	Noviembre	2023-11-27T00:00:00	2024-11-08T10:00:00	6	Velocidad del viento	9.7
21510	7	Sololá	712	San Antonio Palopó	9	San Antonio Palopo	11	Noviembre	2023-11-27T00:00:00	2024-11-08T10:00:00	7	Dirección del viento	9.66
21511	7	Sololá	712	San Antonio Palopó	9	San Antonio Palopo	11	Noviembre	2023-11-27T00:00:00	2024-11-08T10:00:00	1	Precipitación	0
21512	7	Sololá	712	San Antonio Palopó	9	San Antonio Palopo	11	Noviembre	2023-11-27T00:00:00	2024-11-08T10:00:00	8	Radiación solar	601
21513	7	Sololá	712	San Antonio Palopó	9	San Antonio Palopo	11	Noviembre	2023-11-27T00:00:00	2024-11-08T11:00:00	2	Temperatura media	24.1
21514	7	Sololá	712	San Antonio Palopó	9	San Antonio Palopo	11	Noviembre	2023-11-27T00:00:00	2024-11-08T11:00:00	4	Temperatura máxima	24.2
21515	7	Sololá	712	San Antonio Palopó	9	San Antonio Palopo	11	Noviembre	2023-11-27T00:00:00	2024-11-08T11:00:00	3	Temperatura mínima	23.1
21516	7	Sololá	712	San Antonio Palopó	9	San Antonio Palopo	11	Noviembre	2023-11-27T00:00:00	2024-11-08T11:00:00	5	Humedad	58
21517	7	Sololá	712	San Antonio Palopó	9	San Antonio Palopo	11	Noviembre	2023-11-27T00:00:00	2024-11-08T11:00:00	6	Velocidad del viento	8
21518	7	Sololá	712	San Antonio Palopó	9	San Antonio Palopo	11	Noviembre	2023-11-27T00:00:00	2024-11-08T11:00:00	7	Dirección del viento	8.05
21519	7	Sololá	712	San Antonio Palopó	9	San Antonio Palopo	11	Noviembre	2023-11-27T00:00:00	2024-11-08T11:00:00	1	Precipitación	0
21520	7	Sololá	712	San Antonio Palopó	9	San Antonio Palopo	11	Noviembre	2023-11-27T00:00:00	2024-11-08T11:00:00	8	Radiación solar	733
21521	7	Sololá	712	San Antonio Palopó	9	San Antonio Palopo	11	Noviembre	2023-11-27T00:00:00	2024-11-08T12:00:00	2	Temperatura media	24.3
21522	7	Sololá	712	San Antonio Palopó	9	San Antonio Palopo	11	Noviembre	2023-11-27T00:00:00	2024-11-08T12:00:00	4	Temperatura máxima	24.8
21523	7	Sololá	712	San Antonio Palopó	9	San Antonio Palopo	11	Noviembre	2023-11-27T00:00:00	2024-11-08T12:00:00	3	Temperatura mínima	23.4
21524	7	Sololá	712	San Antonio Palopó	9	San Antonio Palopo	11	Noviembre	2023-11-27T00:00:00	2024-11-08T12:00:00	5	Humedad	57
21525	7	Sololá	712	San Antonio Palopó	9	San Antonio Palopo	11	Noviembre	2023-11-27T00:00:00	2024-11-08T12:00:00	6	Velocidad del viento	12.9
21526	7	Sololá	712	San Antonio Palopó	9	San Antonio Palopo	11	Noviembre	2023-11-27T00:00:00	2024-11-08T12:00:00	7	Dirección del viento	12.87
21527	7	Sololá	712	San Antonio Palopó	9	San Antonio Palopo	11	Noviembre	2023-11-27T00:00:00	2024-11-08T12:00:00	1	Precipitación	0
21528	7	Sololá	712	San Antonio Palopó	9	San Antonio Palopo	11	Noviembre	2023-11-27T00:00:00	2024-11-08T12:00:00	8	Radiación solar	730
21529	7	Sololá	712	San Antonio Palopó	9	San Antonio Palopo	11	Noviembre	2023-11-27T00:00:00	2024-11-08T13:00:00	2	Temperatura media	22.9
21530	7	Sololá	712	San Antonio Palopó	9	San Antonio Palopo	11	Noviembre	2023-11-27T00:00:00	2024-11-08T13:00:00	4	Temperatura máxima	24.6
21531	7	Sololá	712	San Antonio Palopó	9	San Antonio Palopo	11	Noviembre	2023-11-27T00:00:00	2024-11-08T13:00:00	3	Temperatura mínima	22.8
21532	7	Sololá	712	San Antonio Palopó	9	San Antonio Palopo	11	Noviembre	2023-11-27T00:00:00	2024-11-08T13:00:00	5	Humedad	62
21533	7	Sololá	712	San Antonio Palopó	9	San Antonio Palopo	11	Noviembre	2023-11-27T00:00:00	2024-11-08T13:00:00	6	Velocidad del viento	14.5
21534	7	Sololá	712	San Antonio Palopó	9	San Antonio Palopo	11	Noviembre	2023-11-27T00:00:00	2024-11-08T13:00:00	7	Dirección del viento	14.48
21535	7	Sololá	712	San Antonio Palopó	9	San Antonio Palopo	11	Noviembre	2023-11-27T00:00:00	2024-11-08T13:00:00	1	Precipitación	0
21536	7	Sololá	712	San Antonio Palopó	9	San Antonio Palopo	11	Noviembre	2023-11-27T00:00:00	2024-11-08T13:00:00	8	Radiación solar	481
21537	7	Sololá	712	San Antonio Palopó	9	San Antonio Palopo	11	Noviembre	2023-11-27T00:00:00	2024-11-08T14:00:00	2	Temperatura media	22.8
21538	7	Sololá	712	San Antonio Palopó	9	San Antonio Palopo	11	Noviembre	2023-11-27T00:00:00	2024-11-08T14:00:00	4	Temperatura máxima	23.4
21539	7	Sololá	712	San Antonio Palopó	9	San Antonio Palopo	11	Noviembre	2023-11-27T00:00:00	2024-11-08T14:00:00	3	Temperatura mínima	22.8
21540	7	Sololá	712	San Antonio Palopó	9	San Antonio Palopo	11	Noviembre	2023-11-27T00:00:00	2024-11-08T14:00:00	5	Humedad	65
21541	7	Sololá	712	San Antonio Palopó	9	San Antonio Palopo	11	Noviembre	2023-11-27T00:00:00	2024-11-08T14:00:00	6	Velocidad del viento	9.7
21542	7	Sololá	712	San Antonio Palopó	9	San Antonio Palopo	11	Noviembre	2023-11-27T00:00:00	2024-11-08T14:00:00	7	Dirección del viento	9.66
21543	7	Sololá	712	San Antonio Palopó	9	San Antonio Palopo	11	Noviembre	2023-11-27T00:00:00	2024-11-08T14:00:00	1	Precipitación	0
21544	7	Sololá	712	San Antonio Palopó	9	San Antonio Palopo	11	Noviembre	2023-11-27T00:00:00	2024-11-08T14:00:00	8	Radiación solar	222
21545	7	Sololá	712	San Antonio Palopó	9	San Antonio Palopo	11	Noviembre	2023-11-27T00:00:00	2024-11-08T15:00:00	2	Temperatura media	23.3
21546	7	Sololá	712	San Antonio Palopó	9	San Antonio Palopo	11	Noviembre	2023-11-27T00:00:00	2024-11-08T15:00:00	4	Temperatura máxima	23.3
21547	7	Sololá	712	San Antonio Palopó	9	San Antonio Palopo	11	Noviembre	2023-11-27T00:00:00	2024-11-08T15:00:00	3	Temperatura mínima	22.7
21548	7	Sololá	712	San Antonio Palopó	9	San Antonio Palopo	11	Noviembre	2023-11-27T00:00:00	2024-11-08T15:00:00	5	Humedad	59
21549	7	Sololá	712	San Antonio Palopó	9	San Antonio Palopo	11	Noviembre	2023-11-27T00:00:00	2024-11-08T15:00:00	6	Velocidad del viento	11.3
21550	7	Sololá	712	San Antonio Palopó	9	San Antonio Palopo	11	Noviembre	2023-11-27T00:00:00	2024-11-08T15:00:00	7	Dirección del viento	11.27
21551	7	Sololá	712	San Antonio Palopó	9	San Antonio Palopo	11	Noviembre	2023-11-27T00:00:00	2024-11-08T15:00:00	1	Precipitación	0
21552	7	Sololá	712	San Antonio Palopó	9	San Antonio Palopo	11	Noviembre	2023-11-27T00:00:00	2024-11-08T15:00:00	8	Radiación solar	162
21553	7	Sololá	712	San Antonio Palopó	9	San Antonio Palopo	11	Noviembre	2023-11-27T00:00:00	2024-11-08T16:00:00	2	Temperatura media	25.1
21554	7	Sololá	712	San Antonio Palopó	9	San Antonio Palopo	11	Noviembre	2023-11-27T00:00:00	2024-11-08T16:00:00	4	Temperatura máxima	25.2
21555	7	Sololá	712	San Antonio Palopó	9	San Antonio Palopo	11	Noviembre	2023-11-27T00:00:00	2024-11-08T16:00:00	3	Temperatura mínima	23.3
21556	7	Sololá	712	San Antonio Palopó	9	San Antonio Palopo	11	Noviembre	2023-11-27T00:00:00	2024-11-08T16:00:00	5	Humedad	51
21557	7	Sololá	712	San Antonio Palopó	9	San Antonio Palopo	11	Noviembre	2023-11-27T00:00:00	2024-11-08T16:00:00	6	Velocidad del viento	8
21558	7	Sololá	712	San Antonio Palopó	9	San Antonio Palopo	11	Noviembre	2023-11-27T00:00:00	2024-11-08T16:00:00	7	Dirección del viento	8.05
21559	7	Sololá	712	San Antonio Palopó	9	San Antonio Palopo	11	Noviembre	2023-11-27T00:00:00	2024-11-08T16:00:00	1	Precipitación	0
21560	7	Sololá	712	San Antonio Palopó	9	San Antonio Palopo	11	Noviembre	2023-11-27T00:00:00	2024-11-08T16:00:00	8	Radiación solar	357
21561	7	Sololá	712	San Antonio Palopó	9	San Antonio Palopo	11	Noviembre	2023-11-27T00:00:00	2024-11-08T17:00:00	2	Temperatura media	23.3
21562	7	Sololá	712	San Antonio Palopó	9	San Antonio Palopo	11	Noviembre	2023-11-27T00:00:00	2024-11-08T17:00:00	4	Temperatura máxima	25.3
21563	7	Sololá	712	San Antonio Palopó	9	San Antonio Palopo	11	Noviembre	2023-11-27T00:00:00	2024-11-08T17:00:00	3	Temperatura mínima	23.3
21564	7	Sololá	712	San Antonio Palopó	9	San Antonio Palopo	11	Noviembre	2023-11-27T00:00:00	2024-11-08T17:00:00	5	Humedad	55
21565	7	Sololá	712	San Antonio Palopó	9	San Antonio Palopo	11	Noviembre	2023-11-27T00:00:00	2024-11-08T17:00:00	6	Velocidad del viento	9.7
21566	7	Sololá	712	San Antonio Palopó	9	San Antonio Palopo	11	Noviembre	2023-11-27T00:00:00	2024-11-08T17:00:00	7	Dirección del viento	9.66
21567	7	Sololá	712	San Antonio Palopó	9	San Antonio Palopo	11	Noviembre	2023-11-27T00:00:00	2024-11-08T17:00:00	1	Precipitación	0
21568	7	Sololá	712	San Antonio Palopó	9	San Antonio Palopo	11	Noviembre	2023-11-27T00:00:00	2024-11-08T17:00:00	8	Radiación solar	115
21569	7	Sololá	712	San Antonio Palopó	9	San Antonio Palopo	11	Noviembre	2023-11-27T00:00:00	2024-11-08T18:00:00	2	Temperatura media	21.5
21570	7	Sololá	712	San Antonio Palopó	9	San Antonio Palopo	11	Noviembre	2023-11-27T00:00:00	2024-11-08T18:00:00	4	Temperatura máxima	23.4
21571	7	Sololá	712	San Antonio Palopó	9	San Antonio Palopo	11	Noviembre	2023-11-27T00:00:00	2024-11-08T18:00:00	3	Temperatura mínima	21.5
21572	7	Sololá	712	San Antonio Palopó	9	San Antonio Palopo	11	Noviembre	2023-11-27T00:00:00	2024-11-08T18:00:00	5	Humedad	62
21573	7	Sololá	712	San Antonio Palopó	9	San Antonio Palopo	11	Noviembre	2023-11-27T00:00:00	2024-11-08T18:00:00	6	Velocidad del viento	4.8
21574	7	Sololá	712	San Antonio Palopó	9	San Antonio Palopo	11	Noviembre	2023-11-27T00:00:00	2024-11-08T18:00:00	7	Dirección del viento	4.83
21575	7	Sololá	712	San Antonio Palopó	9	San Antonio Palopo	11	Noviembre	2023-11-27T00:00:00	2024-11-08T18:00:00	1	Precipitación	0
21576	7	Sololá	712	San Antonio Palopó	9	San Antonio Palopo	11	Noviembre	2023-11-27T00:00:00	2024-11-08T18:00:00	8	Radiación solar	8
21577	7	Sololá	712	San Antonio Palopó	9	San Antonio Palopo	11	Noviembre	2023-11-27T00:00:00	2024-11-08T19:00:00	2	Temperatura media	20.3
21578	7	Sololá	712	San Antonio Palopó	9	San Antonio Palopo	11	Noviembre	2023-11-27T00:00:00	2024-11-08T19:00:00	4	Temperatura máxima	21.5
21579	7	Sololá	712	San Antonio Palopó	9	San Antonio Palopo	11	Noviembre	2023-11-27T00:00:00	2024-11-08T19:00:00	3	Temperatura mínima	20.3
21580	7	Sololá	712	San Antonio Palopó	9	San Antonio Palopo	11	Noviembre	2023-11-27T00:00:00	2024-11-08T19:00:00	5	Humedad	65
21581	7	Sololá	712	San Antonio Palopó	9	San Antonio Palopo	11	Noviembre	2023-11-27T00:00:00	2024-11-08T19:00:00	6	Velocidad del viento	4.8
21582	7	Sololá	712	San Antonio Palopó	9	San Antonio Palopo	11	Noviembre	2023-11-27T00:00:00	2024-11-08T19:00:00	7	Dirección del viento	4.83
21583	7	Sololá	712	San Antonio Palopó	9	San Antonio Palopo	11	Noviembre	2023-11-27T00:00:00	2024-11-08T19:00:00	1	Precipitación	0
21584	7	Sololá	712	San Antonio Palopó	9	San Antonio Palopo	11	Noviembre	2023-11-27T00:00:00	2024-11-08T19:00:00	8	Radiación solar	0
21585	7	Sololá	712	San Antonio Palopó	9	San Antonio Palopo	11	Noviembre	2023-11-27T00:00:00	2024-11-08T20:00:00	2	Temperatura media	19.9
21586	7	Sololá	712	San Antonio Palopó	9	San Antonio Palopo	11	Noviembre	2023-11-27T00:00:00	2024-11-08T20:00:00	4	Temperatura máxima	20.4
21587	7	Sololá	712	San Antonio Palopó	9	San Antonio Palopo	11	Noviembre	2023-11-27T00:00:00	2024-11-08T20:00:00	3	Temperatura mínima	19.9
21588	7	Sololá	712	San Antonio Palopó	9	San Antonio Palopo	11	Noviembre	2023-11-27T00:00:00	2024-11-08T20:00:00	5	Humedad	67
21589	7	Sololá	712	San Antonio Palopó	9	San Antonio Palopo	11	Noviembre	2023-11-27T00:00:00	2024-11-08T20:00:00	6	Velocidad del viento	4.8
21590	7	Sololá	712	San Antonio Palopó	9	San Antonio Palopo	11	Noviembre	2023-11-27T00:00:00	2024-11-08T20:00:00	7	Dirección del viento	4.83
21591	7	Sololá	712	San Antonio Palopó	9	San Antonio Palopo	11	Noviembre	2023-11-27T00:00:00	2024-11-08T20:00:00	1	Precipitación	0
21592	7	Sololá	712	San Antonio Palopó	9	San Antonio Palopo	11	Noviembre	2023-11-27T00:00:00	2024-11-08T20:00:00	8	Radiación solar	0
21593	7	Sololá	712	San Antonio Palopó	9	San Antonio Palopo	11	Noviembre	2023-11-27T00:00:00	2024-11-08T21:00:00	2	Temperatura media	19.3
21594	7	Sololá	712	San Antonio Palopó	9	San Antonio Palopo	11	Noviembre	2023-11-27T00:00:00	2024-11-08T21:00:00	4	Temperatura máxima	20
21595	7	Sololá	712	San Antonio Palopó	9	San Antonio Palopo	11	Noviembre	2023-11-27T00:00:00	2024-11-08T21:00:00	3	Temperatura mínima	19.3
21596	7	Sololá	712	San Antonio Palopó	9	San Antonio Palopo	11	Noviembre	2023-11-27T00:00:00	2024-11-08T21:00:00	5	Humedad	69
21597	7	Sololá	712	San Antonio Palopó	9	San Antonio Palopo	11	Noviembre	2023-11-27T00:00:00	2024-11-08T21:00:00	6	Velocidad del viento	4.8
21598	7	Sololá	712	San Antonio Palopó	9	San Antonio Palopo	11	Noviembre	2023-11-27T00:00:00	2024-11-08T21:00:00	7	Dirección del viento	4.83
21599	7	Sololá	712	San Antonio Palopó	9	San Antonio Palopo	11	Noviembre	2023-11-27T00:00:00	2024-11-08T21:00:00	1	Precipitación	0
21600	7	Sololá	712	San Antonio Palopó	9	San Antonio Palopo	11	Noviembre	2023-11-27T00:00:00	2024-11-08T21:00:00	8	Radiación solar	0
21601	7	Sololá	712	San Antonio Palopó	9	San Antonio Palopo	11	Noviembre	2023-11-27T00:00:00	2024-11-08T22:00:00	2	Temperatura media	19.1
21602	7	Sololá	712	San Antonio Palopó	9	San Antonio Palopo	11	Noviembre	2023-11-27T00:00:00	2024-11-08T22:00:00	4	Temperatura máxima	19.5
21603	7	Sololá	712	San Antonio Palopó	9	San Antonio Palopo	11	Noviembre	2023-11-27T00:00:00	2024-11-08T22:00:00	3	Temperatura mínima	19.1
21604	7	Sololá	712	San Antonio Palopó	9	San Antonio Palopo	11	Noviembre	2023-11-27T00:00:00	2024-11-08T22:00:00	5	Humedad	68
21605	7	Sololá	712	San Antonio Palopó	9	San Antonio Palopo	11	Noviembre	2023-11-27T00:00:00	2024-11-08T22:00:00	6	Velocidad del viento	4.8
21606	7	Sololá	712	San Antonio Palopó	9	San Antonio Palopo	11	Noviembre	2023-11-27T00:00:00	2024-11-08T22:00:00	7	Dirección del viento	4.83
21607	7	Sololá	712	San Antonio Palopó	9	San Antonio Palopo	11	Noviembre	2023-11-27T00:00:00	2024-11-08T22:00:00	1	Precipitación	0
21608	7	Sololá	712	San Antonio Palopó	9	San Antonio Palopo	11	Noviembre	2023-11-27T00:00:00	2024-11-08T22:00:00	8	Radiación solar	0
21609	7	Sololá	712	San Antonio Palopó	9	San Antonio Palopo	11	Noviembre	2023-11-27T00:00:00	2024-11-08T23:00:00	2	Temperatura media	19.1
21610	7	Sololá	712	San Antonio Palopó	9	San Antonio Palopo	11	Noviembre	2023-11-27T00:00:00	2024-11-08T23:00:00	4	Temperatura máxima	19.2
21611	7	Sololá	712	San Antonio Palopó	9	San Antonio Palopo	11	Noviembre	2023-11-27T00:00:00	2024-11-08T23:00:00	3	Temperatura mínima	18.2
21612	7	Sololá	712	San Antonio Palopó	9	San Antonio Palopo	11	Noviembre	2023-11-27T00:00:00	2024-11-08T23:00:00	5	Humedad	68
21613	7	Sololá	712	San Antonio Palopó	9	San Antonio Palopo	11	Noviembre	2023-11-27T00:00:00	2024-11-08T23:00:00	6	Velocidad del viento	4.8
21614	7	Sololá	712	San Antonio Palopó	9	San Antonio Palopo	11	Noviembre	2023-11-27T00:00:00	2024-11-08T23:00:00	7	Dirección del viento	4.83
21615	7	Sololá	712	San Antonio Palopó	9	San Antonio Palopo	11	Noviembre	2023-11-27T00:00:00	2024-11-08T23:00:00	1	Precipitación	0
21616	7	Sololá	712	San Antonio Palopó	9	San Antonio Palopo	11	Noviembre	2023-11-27T00:00:00	2024-11-08T23:00:00	8	Radiación solar	0
21617	7	Sololá	712	San Antonio Palopó	9	San Antonio Palopo	11	Noviembre	2023-11-28T00:00:00	2024-11-08T00:00:00	2	Temperatura media	18.3
21618	7	Sololá	712	San Antonio Palopó	9	San Antonio Palopo	11	Noviembre	2023-11-28T00:00:00	2024-11-08T00:00:00	4	Temperatura máxima	19.1
21619	7	Sololá	712	San Antonio Palopó	9	San Antonio Palopo	11	Noviembre	2023-11-28T00:00:00	2024-11-08T00:00:00	3	Temperatura mínima	18.3
21620	7	Sololá	712	San Antonio Palopó	9	San Antonio Palopo	11	Noviembre	2023-11-28T00:00:00	2024-11-08T00:00:00	5	Humedad	69
21621	7	Sololá	712	San Antonio Palopó	9	San Antonio Palopo	11	Noviembre	2023-11-28T00:00:00	2024-11-08T00:00:00	6	Velocidad del viento	4.8
21622	7	Sololá	712	San Antonio Palopó	9	San Antonio Palopo	11	Noviembre	2023-11-28T00:00:00	2024-11-08T00:00:00	7	Dirección del viento	4.83
21623	7	Sololá	712	San Antonio Palopó	9	San Antonio Palopo	11	Noviembre	2023-11-28T00:00:00	2024-11-08T00:00:00	1	Precipitación	0
21624	7	Sololá	712	San Antonio Palopó	9	San Antonio Palopo	11	Noviembre	2023-11-28T00:00:00	2024-11-08T00:00:00	8	Radiación solar	0
21625	7	Sololá	712	San Antonio Palopó	9	San Antonio Palopo	11	Noviembre	2023-11-28T00:00:00	2024-11-08T01:00:00	2	Temperatura media	17.7
21626	7	Sololá	712	San Antonio Palopó	9	San Antonio Palopo	11	Noviembre	2023-11-28T00:00:00	2024-11-08T01:00:00	4	Temperatura máxima	18.4
21627	7	Sololá	712	San Antonio Palopó	9	San Antonio Palopo	11	Noviembre	2023-11-28T00:00:00	2024-11-08T01:00:00	3	Temperatura mínima	17.7
21628	7	Sololá	712	San Antonio Palopó	9	San Antonio Palopo	11	Noviembre	2023-11-28T00:00:00	2024-11-08T01:00:00	5	Humedad	72
21629	7	Sololá	712	San Antonio Palopó	9	San Antonio Palopo	11	Noviembre	2023-11-28T00:00:00	2024-11-08T01:00:00	6	Velocidad del viento	3.2
21630	7	Sololá	712	San Antonio Palopó	9	San Antonio Palopo	11	Noviembre	2023-11-28T00:00:00	2024-11-08T01:00:00	7	Dirección del viento	3.22
21631	7	Sololá	712	San Antonio Palopó	9	San Antonio Palopo	11	Noviembre	2023-11-28T00:00:00	2024-11-08T01:00:00	1	Precipitación	0
21632	7	Sololá	712	San Antonio Palopó	9	San Antonio Palopo	11	Noviembre	2023-11-28T00:00:00	2024-11-08T01:00:00	8	Radiación solar	0
21633	7	Sololá	712	San Antonio Palopó	9	San Antonio Palopo	11	Noviembre	2023-11-28T00:00:00	2024-11-08T02:00:00	2	Temperatura media	17.7
21634	7	Sololá	712	San Antonio Palopó	9	San Antonio Palopo	11	Noviembre	2023-11-28T00:00:00	2024-11-08T02:00:00	4	Temperatura máxima	17.7
21635	7	Sololá	712	San Antonio Palopó	9	San Antonio Palopo	11	Noviembre	2023-11-28T00:00:00	2024-11-08T02:00:00	3	Temperatura mínima	17.3
21636	7	Sololá	712	San Antonio Palopó	9	San Antonio Palopo	11	Noviembre	2023-11-28T00:00:00	2024-11-08T02:00:00	5	Humedad	72
21637	7	Sololá	712	San Antonio Palopó	9	San Antonio Palopo	11	Noviembre	2023-11-28T00:00:00	2024-11-08T02:00:00	6	Velocidad del viento	4.8
21638	7	Sololá	712	San Antonio Palopó	9	San Antonio Palopo	11	Noviembre	2023-11-28T00:00:00	2024-11-08T02:00:00	7	Dirección del viento	4.83
21639	7	Sololá	712	San Antonio Palopó	9	San Antonio Palopo	11	Noviembre	2023-11-28T00:00:00	2024-11-08T02:00:00	1	Precipitación	0
21640	7	Sololá	712	San Antonio Palopó	9	San Antonio Palopo	11	Noviembre	2023-11-28T00:00:00	2024-11-08T02:00:00	8	Radiación solar	0
21641	7	Sololá	712	San Antonio Palopó	9	San Antonio Palopo	11	Noviembre	2023-11-28T00:00:00	2024-11-08T03:00:00	2	Temperatura media	17.5
21642	7	Sololá	712	San Antonio Palopó	9	San Antonio Palopo	11	Noviembre	2023-11-28T00:00:00	2024-11-08T03:00:00	4	Temperatura máxima	17.9
21643	7	Sololá	712	San Antonio Palopó	9	San Antonio Palopo	11	Noviembre	2023-11-28T00:00:00	2024-11-08T03:00:00	3	Temperatura mínima	17.4
21644	7	Sololá	712	San Antonio Palopó	9	San Antonio Palopo	11	Noviembre	2023-11-28T00:00:00	2024-11-08T03:00:00	5	Humedad	73
21645	7	Sololá	712	San Antonio Palopó	9	San Antonio Palopo	11	Noviembre	2023-11-28T00:00:00	2024-11-08T03:00:00	6	Velocidad del viento	3.2
21646	7	Sololá	712	San Antonio Palopó	9	San Antonio Palopo	11	Noviembre	2023-11-28T00:00:00	2024-11-08T03:00:00	7	Dirección del viento	3.22
21647	7	Sololá	712	San Antonio Palopó	9	San Antonio Palopo	11	Noviembre	2023-11-28T00:00:00	2024-11-08T03:00:00	1	Precipitación	0
21648	7	Sololá	712	San Antonio Palopó	9	San Antonio Palopo	11	Noviembre	2023-11-28T00:00:00	2024-11-08T03:00:00	8	Radiación solar	0
21649	7	Sololá	712	San Antonio Palopó	9	San Antonio Palopo	11	Noviembre	2023-11-28T00:00:00	2024-11-08T04:00:00	2	Temperatura media	18.3
21650	7	Sololá	712	San Antonio Palopó	9	San Antonio Palopo	11	Noviembre	2023-11-28T00:00:00	2024-11-08T04:00:00	4	Temperatura máxima	18.7
21651	7	Sololá	712	San Antonio Palopó	9	San Antonio Palopo	11	Noviembre	2023-11-28T00:00:00	2024-11-08T04:00:00	3	Temperatura mínima	17.5
21652	7	Sololá	712	San Antonio Palopó	9	San Antonio Palopo	11	Noviembre	2023-11-28T00:00:00	2024-11-08T04:00:00	5	Humedad	71
21653	7	Sololá	712	San Antonio Palopó	9	San Antonio Palopo	11	Noviembre	2023-11-28T00:00:00	2024-11-08T04:00:00	6	Velocidad del viento	3.2
21654	7	Sololá	712	San Antonio Palopó	9	San Antonio Palopo	11	Noviembre	2023-11-28T00:00:00	2024-11-08T04:00:00	7	Dirección del viento	3.22
21655	7	Sololá	712	San Antonio Palopó	9	San Antonio Palopo	11	Noviembre	2023-11-28T00:00:00	2024-11-08T04:00:00	1	Precipitación	0
21656	7	Sololá	712	San Antonio Palopó	9	San Antonio Palopo	11	Noviembre	2023-11-28T00:00:00	2024-11-08T04:00:00	8	Radiación solar	0
21657	7	Sololá	712	San Antonio Palopó	9	San Antonio Palopo	11	Noviembre	2023-11-28T00:00:00	2024-11-08T05:00:00	2	Temperatura media	17.7
21658	7	Sololá	712	San Antonio Palopó	9	San Antonio Palopo	11	Noviembre	2023-11-28T00:00:00	2024-11-08T05:00:00	4	Temperatura máxima	18.3
21659	7	Sololá	712	San Antonio Palopó	9	San Antonio Palopo	11	Noviembre	2023-11-28T00:00:00	2024-11-08T05:00:00	3	Temperatura mínima	17.6
21660	7	Sololá	712	San Antonio Palopó	9	San Antonio Palopo	11	Noviembre	2023-11-28T00:00:00	2024-11-08T05:00:00	5	Humedad	75
21661	7	Sololá	712	San Antonio Palopó	9	San Antonio Palopo	11	Noviembre	2023-11-28T00:00:00	2024-11-08T05:00:00	6	Velocidad del viento	3.2
21662	7	Sololá	712	San Antonio Palopó	9	San Antonio Palopo	11	Noviembre	2023-11-28T00:00:00	2024-11-08T05:00:00	7	Dirección del viento	3.22
21663	7	Sololá	712	San Antonio Palopó	9	San Antonio Palopo	11	Noviembre	2023-11-28T00:00:00	2024-11-08T05:00:00	1	Precipitación	0
21664	7	Sololá	712	San Antonio Palopó	9	San Antonio Palopo	11	Noviembre	2023-11-28T00:00:00	2024-11-08T05:00:00	8	Radiación solar	0
21665	7	Sololá	712	San Antonio Palopó	9	San Antonio Palopo	11	Noviembre	2023-11-28T00:00:00	2024-11-08T06:00:00	2	Temperatura media	18.4
21666	7	Sololá	712	San Antonio Palopó	9	San Antonio Palopo	11	Noviembre	2023-11-28T00:00:00	2024-11-08T06:00:00	4	Temperatura máxima	18.4
21667	7	Sololá	712	San Antonio Palopó	9	San Antonio Palopo	11	Noviembre	2023-11-28T00:00:00	2024-11-08T06:00:00	3	Temperatura mínima	17.6
21668	7	Sololá	712	San Antonio Palopó	9	San Antonio Palopo	11	Noviembre	2023-11-28T00:00:00	2024-11-08T06:00:00	5	Humedad	73
21669	7	Sololá	712	San Antonio Palopó	9	San Antonio Palopo	11	Noviembre	2023-11-28T00:00:00	2024-11-08T06:00:00	6	Velocidad del viento	3.2
21670	7	Sololá	712	San Antonio Palopó	9	San Antonio Palopo	11	Noviembre	2023-11-28T00:00:00	2024-11-08T06:00:00	7	Dirección del viento	3.22
21671	7	Sololá	712	San Antonio Palopó	9	San Antonio Palopo	11	Noviembre	2023-11-28T00:00:00	2024-11-08T06:00:00	1	Precipitación	0
21672	7	Sololá	712	San Antonio Palopó	9	San Antonio Palopo	11	Noviembre	2023-11-28T00:00:00	2024-11-08T06:00:00	8	Radiación solar	0
21673	7	Sololá	712	San Antonio Palopó	9	San Antonio Palopo	11	Noviembre	2023-11-28T00:00:00	2024-11-08T07:00:00	2	Temperatura media	19.1
21674	7	Sololá	712	San Antonio Palopó	9	San Antonio Palopo	11	Noviembre	2023-11-28T00:00:00	2024-11-08T07:00:00	4	Temperatura máxima	19.1
21675	7	Sololá	712	San Antonio Palopó	9	San Antonio Palopo	11	Noviembre	2023-11-28T00:00:00	2024-11-08T07:00:00	3	Temperatura mínima	17.7
21676	7	Sololá	712	San Antonio Palopó	9	San Antonio Palopo	11	Noviembre	2023-11-28T00:00:00	2024-11-08T07:00:00	5	Humedad	73
21677	7	Sololá	712	San Antonio Palopó	9	San Antonio Palopo	11	Noviembre	2023-11-28T00:00:00	2024-11-08T07:00:00	6	Velocidad del viento	4.8
21678	7	Sololá	712	San Antonio Palopó	9	San Antonio Palopo	11	Noviembre	2023-11-28T00:00:00	2024-11-08T07:00:00	7	Dirección del viento	4.83
21679	7	Sololá	712	San Antonio Palopó	9	San Antonio Palopo	11	Noviembre	2023-11-28T00:00:00	2024-11-08T07:00:00	1	Precipitación	0
21680	7	Sololá	712	San Antonio Palopó	9	San Antonio Palopo	11	Noviembre	2023-11-28T00:00:00	2024-11-08T07:00:00	8	Radiación solar	18
21681	7	Sololá	712	San Antonio Palopó	9	San Antonio Palopo	11	Noviembre	2023-11-28T00:00:00	2024-11-08T08:00:00	2	Temperatura media	19.2
21682	7	Sololá	712	San Antonio Palopó	9	San Antonio Palopo	11	Noviembre	2023-11-28T00:00:00	2024-11-08T08:00:00	4	Temperatura máxima	19.4
21683	7	Sololá	712	San Antonio Palopó	9	San Antonio Palopo	11	Noviembre	2023-11-28T00:00:00	2024-11-08T08:00:00	3	Temperatura mínima	18.8
21684	7	Sololá	712	San Antonio Palopó	9	San Antonio Palopo	11	Noviembre	2023-11-28T00:00:00	2024-11-08T08:00:00	5	Humedad	73
21685	7	Sololá	712	San Antonio Palopó	9	San Antonio Palopo	11	Noviembre	2023-11-28T00:00:00	2024-11-08T08:00:00	6	Velocidad del viento	3.2
21686	7	Sololá	712	San Antonio Palopó	9	San Antonio Palopo	11	Noviembre	2023-11-28T00:00:00	2024-11-08T08:00:00	7	Dirección del viento	3.22
21687	7	Sololá	712	San Antonio Palopó	9	San Antonio Palopo	11	Noviembre	2023-11-28T00:00:00	2024-11-08T08:00:00	1	Precipitación	0
21688	7	Sololá	712	San Antonio Palopó	9	San Antonio Palopo	11	Noviembre	2023-11-28T00:00:00	2024-11-08T08:00:00	8	Radiación solar	36
21689	7	Sololá	712	San Antonio Palopó	9	San Antonio Palopo	11	Noviembre	2023-11-28T00:00:00	2024-11-08T09:00:00	2	Temperatura media	22.3
21690	7	Sololá	712	San Antonio Palopó	9	San Antonio Palopo	11	Noviembre	2023-11-28T00:00:00	2024-11-08T09:00:00	4	Temperatura máxima	22.4
21691	7	Sololá	712	San Antonio Palopó	9	San Antonio Palopo	11	Noviembre	2023-11-28T00:00:00	2024-11-08T09:00:00	3	Temperatura mínima	19.2
21692	7	Sololá	712	San Antonio Palopó	9	San Antonio Palopo	11	Noviembre	2023-11-28T00:00:00	2024-11-08T09:00:00	5	Humedad	64
21693	7	Sololá	712	San Antonio Palopó	9	San Antonio Palopo	11	Noviembre	2023-11-28T00:00:00	2024-11-08T09:00:00	6	Velocidad del viento	6.4
21694	7	Sololá	712	San Antonio Palopó	9	San Antonio Palopo	11	Noviembre	2023-11-28T00:00:00	2024-11-08T09:00:00	7	Dirección del viento	6.44
21695	7	Sololá	712	San Antonio Palopó	9	San Antonio Palopo	11	Noviembre	2023-11-28T00:00:00	2024-11-08T09:00:00	1	Precipitación	0
21696	7	Sololá	712	San Antonio Palopó	9	San Antonio Palopo	11	Noviembre	2023-11-28T00:00:00	2024-11-08T09:00:00	8	Radiación solar	239
21697	7	Sololá	712	San Antonio Palopó	9	San Antonio Palopo	11	Noviembre	2023-11-28T00:00:00	2024-11-08T10:00:00	2	Temperatura media	24.5
21698	7	Sololá	712	San Antonio Palopó	9	San Antonio Palopo	11	Noviembre	2023-11-28T00:00:00	2024-11-08T10:00:00	4	Temperatura máxima	24.5
21699	7	Sololá	712	San Antonio Palopó	9	San Antonio Palopo	11	Noviembre	2023-11-28T00:00:00	2024-11-08T10:00:00	3	Temperatura mínima	22.3
21700	7	Sololá	712	San Antonio Palopó	9	San Antonio Palopo	11	Noviembre	2023-11-28T00:00:00	2024-11-08T10:00:00	5	Humedad	61
21701	7	Sololá	712	San Antonio Palopó	9	San Antonio Palopo	11	Noviembre	2023-11-28T00:00:00	2024-11-08T10:00:00	6	Velocidad del viento	6.4
21702	7	Sololá	712	San Antonio Palopó	9	San Antonio Palopo	11	Noviembre	2023-11-28T00:00:00	2024-11-08T10:00:00	7	Dirección del viento	6.44
21703	7	Sololá	712	San Antonio Palopó	9	San Antonio Palopo	11	Noviembre	2023-11-28T00:00:00	2024-11-08T10:00:00	1	Precipitación	0
21704	7	Sololá	712	San Antonio Palopó	9	San Antonio Palopo	11	Noviembre	2023-11-28T00:00:00	2024-11-08T10:00:00	8	Radiación solar	615
21705	7	Sololá	712	San Antonio Palopó	9	San Antonio Palopo	11	Noviembre	2023-11-28T00:00:00	2024-11-08T11:00:00	2	Temperatura media	23.6
21706	7	Sololá	712	San Antonio Palopó	9	San Antonio Palopo	11	Noviembre	2023-11-28T00:00:00	2024-11-08T11:00:00	4	Temperatura máxima	24.9
21707	7	Sololá	712	San Antonio Palopó	9	San Antonio Palopo	11	Noviembre	2023-11-28T00:00:00	2024-11-08T11:00:00	3	Temperatura mínima	23.5
21708	7	Sololá	712	San Antonio Palopó	9	San Antonio Palopo	11	Noviembre	2023-11-28T00:00:00	2024-11-08T11:00:00	5	Humedad	64
21709	7	Sololá	712	San Antonio Palopó	9	San Antonio Palopo	11	Noviembre	2023-11-28T00:00:00	2024-11-08T11:00:00	6	Velocidad del viento	9.7
21710	7	Sololá	712	San Antonio Palopó	9	San Antonio Palopo	11	Noviembre	2023-11-28T00:00:00	2024-11-08T11:00:00	7	Dirección del viento	9.66
21711	7	Sololá	712	San Antonio Palopó	9	San Antonio Palopo	11	Noviembre	2023-11-28T00:00:00	2024-11-08T11:00:00	1	Precipitación	0
21712	7	Sololá	712	San Antonio Palopó	9	San Antonio Palopo	11	Noviembre	2023-11-28T00:00:00	2024-11-08T11:00:00	8	Radiación solar	718
21713	7	Sololá	712	San Antonio Palopó	9	San Antonio Palopo	11	Noviembre	2023-11-28T00:00:00	2024-11-08T12:00:00	2	Temperatura media	23.8
21714	7	Sololá	712	San Antonio Palopó	9	San Antonio Palopo	11	Noviembre	2023-11-28T00:00:00	2024-11-08T12:00:00	4	Temperatura máxima	24.3
21715	7	Sololá	712	San Antonio Palopó	9	San Antonio Palopo	11	Noviembre	2023-11-28T00:00:00	2024-11-08T12:00:00	3	Temperatura mínima	23.6
21716	7	Sololá	712	San Antonio Palopó	9	San Antonio Palopo	11	Noviembre	2023-11-28T00:00:00	2024-11-08T12:00:00	5	Humedad	60
21717	7	Sololá	712	San Antonio Palopó	9	San Antonio Palopo	11	Noviembre	2023-11-28T00:00:00	2024-11-08T12:00:00	6	Velocidad del viento	6.4
21718	7	Sololá	712	San Antonio Palopó	9	San Antonio Palopo	11	Noviembre	2023-11-28T00:00:00	2024-11-08T12:00:00	7	Dirección del viento	6.44
21719	7	Sololá	712	San Antonio Palopó	9	San Antonio Palopo	11	Noviembre	2023-11-28T00:00:00	2024-11-08T12:00:00	1	Precipitación	0
21720	7	Sololá	712	San Antonio Palopó	9	San Antonio Palopo	11	Noviembre	2023-11-28T00:00:00	2024-11-08T12:00:00	8	Radiación solar	254
21721	7	Sololá	712	San Antonio Palopó	9	San Antonio Palopo	11	Noviembre	2023-11-28T00:00:00	2024-11-08T13:00:00	2	Temperatura media	23.8
21722	7	Sololá	712	San Antonio Palopó	9	San Antonio Palopo	11	Noviembre	2023-11-28T00:00:00	2024-11-08T13:00:00	4	Temperatura máxima	24.2
21723	7	Sololá	712	San Antonio Palopó	9	San Antonio Palopo	11	Noviembre	2023-11-28T00:00:00	2024-11-08T13:00:00	3	Temperatura mínima	23.8
21724	7	Sololá	712	San Antonio Palopó	9	San Antonio Palopo	11	Noviembre	2023-11-28T00:00:00	2024-11-08T13:00:00	5	Humedad	63
21725	7	Sololá	712	San Antonio Palopó	9	San Antonio Palopo	11	Noviembre	2023-11-28T00:00:00	2024-11-08T13:00:00	6	Velocidad del viento	8
21726	7	Sololá	712	San Antonio Palopó	9	San Antonio Palopo	11	Noviembre	2023-11-28T00:00:00	2024-11-08T13:00:00	7	Dirección del viento	8.05
21727	7	Sololá	712	San Antonio Palopó	9	San Antonio Palopo	11	Noviembre	2023-11-28T00:00:00	2024-11-08T13:00:00	1	Precipitación	0
21728	7	Sololá	712	San Antonio Palopó	9	San Antonio Palopo	11	Noviembre	2023-11-28T00:00:00	2024-11-08T13:00:00	8	Radiación solar	285
21729	7	Sololá	712	San Antonio Palopó	9	San Antonio Palopo	11	Noviembre	2023-11-28T00:00:00	2024-11-08T14:00:00	2	Temperatura media	24.3
21730	7	Sololá	712	San Antonio Palopó	9	San Antonio Palopo	11	Noviembre	2023-11-28T00:00:00	2024-11-08T14:00:00	4	Temperatura máxima	24.6
21731	7	Sololá	712	San Antonio Palopó	9	San Antonio Palopo	11	Noviembre	2023-11-28T00:00:00	2024-11-08T14:00:00	3	Temperatura mínima	23.8
21732	7	Sololá	712	San Antonio Palopó	9	San Antonio Palopo	11	Noviembre	2023-11-28T00:00:00	2024-11-08T14:00:00	5	Humedad	63
21733	7	Sololá	712	San Antonio Palopó	9	San Antonio Palopo	11	Noviembre	2023-11-28T00:00:00	2024-11-08T14:00:00	6	Velocidad del viento	6.4
21734	7	Sololá	712	San Antonio Palopó	9	San Antonio Palopo	11	Noviembre	2023-11-28T00:00:00	2024-11-08T14:00:00	7	Dirección del viento	6.44
21735	7	Sololá	712	San Antonio Palopó	9	San Antonio Palopo	11	Noviembre	2023-11-28T00:00:00	2024-11-08T14:00:00	1	Precipitación	0
21736	7	Sololá	712	San Antonio Palopó	9	San Antonio Palopo	11	Noviembre	2023-11-28T00:00:00	2024-11-08T14:00:00	8	Radiación solar	229
21737	7	Sololá	712	San Antonio Palopó	9	San Antonio Palopo	11	Noviembre	2023-11-28T00:00:00	2024-11-08T15:00:00	2	Temperatura media	23.6
21738	7	Sololá	712	San Antonio Palopó	9	San Antonio Palopo	11	Noviembre	2023-11-28T00:00:00	2024-11-08T15:00:00	4	Temperatura máxima	24.3
21739	7	Sololá	712	San Antonio Palopó	9	San Antonio Palopo	11	Noviembre	2023-11-28T00:00:00	2024-11-08T15:00:00	3	Temperatura mínima	23.2
21740	7	Sololá	712	San Antonio Palopó	9	San Antonio Palopo	11	Noviembre	2023-11-28T00:00:00	2024-11-08T15:00:00	5	Humedad	62
21741	7	Sololá	712	San Antonio Palopó	9	San Antonio Palopo	11	Noviembre	2023-11-28T00:00:00	2024-11-08T15:00:00	6	Velocidad del viento	6.4
21742	7	Sololá	712	San Antonio Palopó	9	San Antonio Palopo	11	Noviembre	2023-11-28T00:00:00	2024-11-08T15:00:00	7	Dirección del viento	6.44
21743	7	Sololá	712	San Antonio Palopó	9	San Antonio Palopo	11	Noviembre	2023-11-28T00:00:00	2024-11-08T15:00:00	1	Precipitación	0
21744	7	Sololá	712	San Antonio Palopó	9	San Antonio Palopo	11	Noviembre	2023-11-28T00:00:00	2024-11-08T15:00:00	8	Radiación solar	150
21745	7	Sololá	712	San Antonio Palopó	9	San Antonio Palopo	11	Noviembre	2023-11-28T00:00:00	2024-11-08T16:00:00	2	Temperatura media	23.3
21746	7	Sololá	712	San Antonio Palopó	9	San Antonio Palopo	11	Noviembre	2023-11-28T00:00:00	2024-11-08T16:00:00	4	Temperatura máxima	24.3
21747	7	Sololá	712	San Antonio Palopó	9	San Antonio Palopo	11	Noviembre	2023-11-28T00:00:00	2024-11-08T16:00:00	3	Temperatura mínima	23.3
21748	7	Sololá	712	San Antonio Palopó	9	San Antonio Palopo	11	Noviembre	2023-11-28T00:00:00	2024-11-08T16:00:00	5	Humedad	64
21749	7	Sololá	712	San Antonio Palopó	9	San Antonio Palopo	11	Noviembre	2023-11-28T00:00:00	2024-11-08T16:00:00	6	Velocidad del viento	6.4
21750	7	Sololá	712	San Antonio Palopó	9	San Antonio Palopo	11	Noviembre	2023-11-28T00:00:00	2024-11-08T16:00:00	7	Dirección del viento	6.44
21751	7	Sololá	712	San Antonio Palopó	9	San Antonio Palopo	11	Noviembre	2023-11-28T00:00:00	2024-11-08T16:00:00	1	Precipitación	0
21752	7	Sololá	712	San Antonio Palopó	9	San Antonio Palopo	11	Noviembre	2023-11-28T00:00:00	2024-11-08T16:00:00	8	Radiación solar	130
21753	7	Sololá	712	San Antonio Palopó	9	San Antonio Palopo	11	Noviembre	2023-11-28T00:00:00	2024-11-08T17:00:00	2	Temperatura media	24.4
21754	7	Sololá	712	San Antonio Palopó	9	San Antonio Palopo	11	Noviembre	2023-11-28T00:00:00	2024-11-08T17:00:00	4	Temperatura máxima	24.6
21755	7	Sololá	712	San Antonio Palopó	9	San Antonio Palopo	11	Noviembre	2023-11-28T00:00:00	2024-11-08T17:00:00	3	Temperatura mínima	23.3
21756	7	Sololá	712	San Antonio Palopó	9	San Antonio Palopo	11	Noviembre	2023-11-28T00:00:00	2024-11-08T17:00:00	5	Humedad	60
21757	7	Sololá	712	San Antonio Palopó	9	San Antonio Palopo	11	Noviembre	2023-11-28T00:00:00	2024-11-08T17:00:00	6	Velocidad del viento	6.4
21758	7	Sololá	712	San Antonio Palopó	9	San Antonio Palopo	11	Noviembre	2023-11-28T00:00:00	2024-11-08T17:00:00	7	Dirección del viento	6.44
21759	7	Sololá	712	San Antonio Palopó	9	San Antonio Palopo	11	Noviembre	2023-11-28T00:00:00	2024-11-08T17:00:00	1	Precipitación	0
21760	7	Sololá	712	San Antonio Palopó	9	San Antonio Palopo	11	Noviembre	2023-11-28T00:00:00	2024-11-08T17:00:00	8	Radiación solar	79
21761	7	Sololá	712	San Antonio Palopó	9	San Antonio Palopo	11	Noviembre	2023-11-28T00:00:00	2024-11-08T18:00:00	2	Temperatura media	21.9
21762	7	Sololá	712	San Antonio Palopó	9	San Antonio Palopo	11	Noviembre	2023-11-28T00:00:00	2024-11-08T18:00:00	4	Temperatura máxima	24.4
21763	7	Sololá	712	San Antonio Palopó	9	San Antonio Palopo	11	Noviembre	2023-11-28T00:00:00	2024-11-08T18:00:00	3	Temperatura mínima	21.9
21764	7	Sololá	712	San Antonio Palopó	9	San Antonio Palopo	11	Noviembre	2023-11-28T00:00:00	2024-11-08T18:00:00	5	Humedad	65
21765	7	Sololá	712	San Antonio Palopó	9	San Antonio Palopo	11	Noviembre	2023-11-28T00:00:00	2024-11-08T18:00:00	6	Velocidad del viento	6.4
21766	7	Sololá	712	San Antonio Palopó	9	San Antonio Palopo	11	Noviembre	2023-11-28T00:00:00	2024-11-08T18:00:00	7	Dirección del viento	6.44
21767	7	Sololá	712	San Antonio Palopó	9	San Antonio Palopo	11	Noviembre	2023-11-28T00:00:00	2024-11-08T18:00:00	1	Precipitación	0
21768	7	Sololá	712	San Antonio Palopó	9	San Antonio Palopo	11	Noviembre	2023-11-28T00:00:00	2024-11-08T18:00:00	8	Radiación solar	11
21769	7	Sololá	712	San Antonio Palopó	9	San Antonio Palopo	11	Noviembre	2023-11-28T00:00:00	2024-11-08T19:00:00	2	Temperatura media	21.2
21770	7	Sololá	712	San Antonio Palopó	9	San Antonio Palopo	11	Noviembre	2023-11-28T00:00:00	2024-11-08T19:00:00	4	Temperatura máxima	21.9
21771	7	Sololá	712	San Antonio Palopó	9	San Antonio Palopo	11	Noviembre	2023-11-28T00:00:00	2024-11-08T19:00:00	3	Temperatura mínima	21.1
21772	7	Sololá	712	San Antonio Palopó	9	San Antonio Palopo	11	Noviembre	2023-11-28T00:00:00	2024-11-08T19:00:00	5	Humedad	68
21773	7	Sololá	712	San Antonio Palopó	9	San Antonio Palopo	11	Noviembre	2023-11-28T00:00:00	2024-11-08T19:00:00	6	Velocidad del viento	4.8
21774	7	Sololá	712	San Antonio Palopó	9	San Antonio Palopo	11	Noviembre	2023-11-28T00:00:00	2024-11-08T19:00:00	7	Dirección del viento	4.83
21775	7	Sololá	712	San Antonio Palopó	9	San Antonio Palopo	11	Noviembre	2023-11-28T00:00:00	2024-11-08T19:00:00	1	Precipitación	0
21776	7	Sololá	712	San Antonio Palopó	9	San Antonio Palopo	11	Noviembre	2023-11-28T00:00:00	2024-11-08T19:00:00	8	Radiación solar	0
21777	7	Sololá	712	San Antonio Palopó	9	San Antonio Palopo	11	Noviembre	2023-11-28T00:00:00	2024-11-08T20:00:00	2	Temperatura media	20.7
21778	7	Sololá	712	San Antonio Palopó	9	San Antonio Palopo	11	Noviembre	2023-11-28T00:00:00	2024-11-08T20:00:00	4	Temperatura máxima	21.2
21779	7	Sololá	712	San Antonio Palopó	9	San Antonio Palopo	11	Noviembre	2023-11-28T00:00:00	2024-11-08T20:00:00	3	Temperatura mínima	20.2
21780	7	Sololá	712	San Antonio Palopó	9	San Antonio Palopo	11	Noviembre	2023-11-28T00:00:00	2024-11-08T20:00:00	5	Humedad	69
21781	7	Sololá	712	San Antonio Palopó	9	San Antonio Palopo	11	Noviembre	2023-11-28T00:00:00	2024-11-08T20:00:00	6	Velocidad del viento	4.8
21782	7	Sololá	712	San Antonio Palopó	9	San Antonio Palopo	11	Noviembre	2023-11-28T00:00:00	2024-11-08T20:00:00	7	Dirección del viento	4.83
21783	7	Sololá	712	San Antonio Palopó	9	San Antonio Palopo	11	Noviembre	2023-11-28T00:00:00	2024-11-08T20:00:00	1	Precipitación	0
21784	7	Sololá	712	San Antonio Palopó	9	San Antonio Palopo	11	Noviembre	2023-11-28T00:00:00	2024-11-08T20:00:00	8	Radiación solar	0
21785	7	Sololá	712	San Antonio Palopó	9	San Antonio Palopo	11	Noviembre	2023-11-28T00:00:00	2024-11-08T21:00:00	2	Temperatura media	20.7
21786	7	Sololá	712	San Antonio Palopó	9	San Antonio Palopo	11	Noviembre	2023-11-28T00:00:00	2024-11-08T21:00:00	4	Temperatura máxima	20.9
21787	7	Sololá	712	San Antonio Palopó	9	San Antonio Palopo	11	Noviembre	2023-11-28T00:00:00	2024-11-08T21:00:00	3	Temperatura mínima	20.2
21788	7	Sololá	712	San Antonio Palopó	9	San Antonio Palopo	11	Noviembre	2023-11-28T00:00:00	2024-11-08T21:00:00	5	Humedad	69
21789	7	Sololá	712	San Antonio Palopó	9	San Antonio Palopo	11	Noviembre	2023-11-28T00:00:00	2024-11-08T21:00:00	6	Velocidad del viento	3.2
21790	7	Sololá	712	San Antonio Palopó	9	San Antonio Palopo	11	Noviembre	2023-11-28T00:00:00	2024-11-08T21:00:00	7	Dirección del viento	3.22
21791	7	Sololá	712	San Antonio Palopó	9	San Antonio Palopo	11	Noviembre	2023-11-28T00:00:00	2024-11-08T21:00:00	1	Precipitación	0
21792	7	Sololá	712	San Antonio Palopó	9	San Antonio Palopo	11	Noviembre	2023-11-28T00:00:00	2024-11-08T21:00:00	8	Radiación solar	0
21793	7	Sololá	712	San Antonio Palopó	9	San Antonio Palopo	11	Noviembre	2023-11-28T00:00:00	2024-11-08T22:00:00	2	Temperatura media	20.1
21794	7	Sololá	712	San Antonio Palopó	9	San Antonio Palopo	11	Noviembre	2023-11-28T00:00:00	2024-11-08T22:00:00	4	Temperatura máxima	20.7
21795	7	Sololá	712	San Antonio Palopó	9	San Antonio Palopo	11	Noviembre	2023-11-28T00:00:00	2024-11-08T22:00:00	3	Temperatura mínima	19.8
21796	7	Sololá	712	San Antonio Palopó	9	San Antonio Palopo	11	Noviembre	2023-11-28T00:00:00	2024-11-08T22:00:00	5	Humedad	69
21797	7	Sololá	712	San Antonio Palopó	9	San Antonio Palopo	11	Noviembre	2023-11-28T00:00:00	2024-11-08T22:00:00	6	Velocidad del viento	4.8
21798	7	Sololá	712	San Antonio Palopó	9	San Antonio Palopo	11	Noviembre	2023-11-28T00:00:00	2024-11-08T22:00:00	7	Dirección del viento	4.83
21799	7	Sololá	712	San Antonio Palopó	9	San Antonio Palopo	11	Noviembre	2023-11-28T00:00:00	2024-11-08T22:00:00	1	Precipitación	0
21800	7	Sololá	712	San Antonio Palopó	9	San Antonio Palopo	11	Noviembre	2023-11-28T00:00:00	2024-11-08T22:00:00	8	Radiación solar	0
21801	7	Sololá	712	San Antonio Palopó	9	San Antonio Palopo	11	Noviembre	2023-11-28T00:00:00	2024-11-08T23:00:00	2	Temperatura media	19.7
21802	7	Sololá	712	San Antonio Palopó	9	San Antonio Palopo	11	Noviembre	2023-11-28T00:00:00	2024-11-08T23:00:00	4	Temperatura máxima	20.4
21803	7	Sololá	712	San Antonio Palopó	9	San Antonio Palopo	11	Noviembre	2023-11-28T00:00:00	2024-11-08T23:00:00	3	Temperatura mínima	19.7
21804	7	Sololá	712	San Antonio Palopó	9	San Antonio Palopo	11	Noviembre	2023-11-28T00:00:00	2024-11-08T23:00:00	5	Humedad	69
21805	7	Sololá	712	San Antonio Palopó	9	San Antonio Palopo	11	Noviembre	2023-11-28T00:00:00	2024-11-08T23:00:00	6	Velocidad del viento	8
21806	7	Sololá	712	San Antonio Palopó	9	San Antonio Palopo	11	Noviembre	2023-11-28T00:00:00	2024-11-08T23:00:00	7	Dirección del viento	8.05
21807	7	Sololá	712	San Antonio Palopó	9	San Antonio Palopo	11	Noviembre	2023-11-28T00:00:00	2024-11-08T23:00:00	1	Precipitación	0
21808	7	Sololá	712	San Antonio Palopó	9	San Antonio Palopo	11	Noviembre	2023-11-28T00:00:00	2024-11-08T23:00:00	8	Radiación solar	0
21809	7	Sololá	712	San Antonio Palopó	9	San Antonio Palopo	11	Noviembre	2023-11-29T00:00:00	2024-11-08T00:00:00	2	Temperatura media	19.2
21810	7	Sololá	712	San Antonio Palopó	9	San Antonio Palopo	11	Noviembre	2023-11-29T00:00:00	2024-11-08T00:00:00	4	Temperatura máxima	19.7
21811	7	Sololá	712	San Antonio Palopó	9	San Antonio Palopo	11	Noviembre	2023-11-29T00:00:00	2024-11-08T00:00:00	3	Temperatura mínima	19.2
21812	7	Sololá	712	San Antonio Palopó	9	San Antonio Palopo	11	Noviembre	2023-11-29T00:00:00	2024-11-08T00:00:00	5	Humedad	70
21813	7	Sololá	712	San Antonio Palopó	9	San Antonio Palopo	11	Noviembre	2023-11-29T00:00:00	2024-11-08T00:00:00	6	Velocidad del viento	8
21814	7	Sololá	712	San Antonio Palopó	9	San Antonio Palopo	11	Noviembre	2023-11-29T00:00:00	2024-11-08T00:00:00	7	Dirección del viento	8.05
21815	7	Sololá	712	San Antonio Palopó	9	San Antonio Palopo	11	Noviembre	2023-11-29T00:00:00	2024-11-08T00:00:00	1	Precipitación	0
21816	7	Sololá	712	San Antonio Palopó	9	San Antonio Palopo	11	Noviembre	2023-11-29T00:00:00	2024-11-08T00:00:00	8	Radiación solar	0
21817	7	Sololá	712	San Antonio Palopó	9	San Antonio Palopo	11	Noviembre	2023-11-29T00:00:00	2024-11-08T01:00:00	2	Temperatura media	18.8
21818	7	Sololá	712	San Antonio Palopó	9	San Antonio Palopo	11	Noviembre	2023-11-29T00:00:00	2024-11-08T01:00:00	4	Temperatura máxima	19.3
21819	7	Sololá	712	San Antonio Palopó	9	San Antonio Palopo	11	Noviembre	2023-11-29T00:00:00	2024-11-08T01:00:00	3	Temperatura mínima	18.8
21820	7	Sololá	712	San Antonio Palopó	9	San Antonio Palopo	11	Noviembre	2023-11-29T00:00:00	2024-11-08T01:00:00	5	Humedad	71
21821	7	Sololá	712	San Antonio Palopó	9	San Antonio Palopo	11	Noviembre	2023-11-29T00:00:00	2024-11-08T01:00:00	6	Velocidad del viento	8
21822	7	Sololá	712	San Antonio Palopó	9	San Antonio Palopo	11	Noviembre	2023-11-29T00:00:00	2024-11-08T01:00:00	7	Dirección del viento	8.05
21823	7	Sololá	712	San Antonio Palopó	9	San Antonio Palopo	11	Noviembre	2023-11-29T00:00:00	2024-11-08T01:00:00	1	Precipitación	0
21824	7	Sololá	712	San Antonio Palopó	9	San Antonio Palopo	11	Noviembre	2023-11-29T00:00:00	2024-11-08T01:00:00	8	Radiación solar	0
21825	7	Sololá	712	San Antonio Palopó	9	San Antonio Palopo	11	Noviembre	2023-11-29T00:00:00	2024-11-08T02:00:00	2	Temperatura media	18.7
21826	7	Sololá	712	San Antonio Palopó	9	San Antonio Palopo	11	Noviembre	2023-11-29T00:00:00	2024-11-08T02:00:00	4	Temperatura máxima	18.9
21827	7	Sololá	712	San Antonio Palopó	9	San Antonio Palopo	11	Noviembre	2023-11-29T00:00:00	2024-11-08T02:00:00	3	Temperatura mínima	18.6
21828	7	Sololá	712	San Antonio Palopó	9	San Antonio Palopo	11	Noviembre	2023-11-29T00:00:00	2024-11-08T02:00:00	5	Humedad	71
21829	7	Sololá	712	San Antonio Palopó	9	San Antonio Palopo	11	Noviembre	2023-11-29T00:00:00	2024-11-08T02:00:00	6	Velocidad del viento	11.3
21830	7	Sololá	712	San Antonio Palopó	9	San Antonio Palopo	11	Noviembre	2023-11-29T00:00:00	2024-11-08T02:00:00	7	Dirección del viento	11.27
21831	7	Sololá	712	San Antonio Palopó	9	San Antonio Palopo	11	Noviembre	2023-11-29T00:00:00	2024-11-08T02:00:00	1	Precipitación	0
21832	7	Sololá	712	San Antonio Palopó	9	San Antonio Palopo	11	Noviembre	2023-11-29T00:00:00	2024-11-08T02:00:00	8	Radiación solar	0
21833	7	Sololá	712	San Antonio Palopó	9	San Antonio Palopo	11	Noviembre	2023-11-29T00:00:00	2024-11-08T03:00:00	2	Temperatura media	18
21834	7	Sololá	712	San Antonio Palopó	9	San Antonio Palopo	11	Noviembre	2023-11-29T00:00:00	2024-11-08T03:00:00	4	Temperatura máxima	18.7
21835	7	Sololá	712	San Antonio Palopó	9	San Antonio Palopo	11	Noviembre	2023-11-29T00:00:00	2024-11-08T03:00:00	3	Temperatura mínima	18
21836	7	Sololá	712	San Antonio Palopó	9	San Antonio Palopo	11	Noviembre	2023-11-29T00:00:00	2024-11-08T03:00:00	5	Humedad	72
21837	7	Sololá	712	San Antonio Palopó	9	San Antonio Palopo	11	Noviembre	2023-11-29T00:00:00	2024-11-08T03:00:00	6	Velocidad del viento	8
21838	7	Sololá	712	San Antonio Palopó	9	San Antonio Palopo	11	Noviembre	2023-11-29T00:00:00	2024-11-08T03:00:00	7	Dirección del viento	8.05
21839	7	Sololá	712	San Antonio Palopó	9	San Antonio Palopo	11	Noviembre	2023-11-29T00:00:00	2024-11-08T03:00:00	1	Precipitación	0
21840	7	Sololá	712	San Antonio Palopó	9	San Antonio Palopo	11	Noviembre	2023-11-29T00:00:00	2024-11-08T03:00:00	8	Radiación solar	0
21841	7	Sololá	712	San Antonio Palopó	9	San Antonio Palopo	11	Noviembre	2023-11-29T00:00:00	2024-11-08T04:00:00	2	Temperatura media	18.2
21842	7	Sololá	712	San Antonio Palopó	9	San Antonio Palopo	11	Noviembre	2023-11-29T00:00:00	2024-11-08T04:00:00	4	Temperatura máxima	18.4
21843	7	Sololá	712	San Antonio Palopó	9	San Antonio Palopo	11	Noviembre	2023-11-29T00:00:00	2024-11-08T04:00:00	3	Temperatura mínima	18
21844	7	Sololá	712	San Antonio Palopó	9	San Antonio Palopo	11	Noviembre	2023-11-29T00:00:00	2024-11-08T04:00:00	5	Humedad	69
21845	7	Sololá	712	San Antonio Palopó	9	San Antonio Palopo	11	Noviembre	2023-11-29T00:00:00	2024-11-08T04:00:00	6	Velocidad del viento	6.4
21846	7	Sololá	712	San Antonio Palopó	9	San Antonio Palopo	11	Noviembre	2023-11-29T00:00:00	2024-11-08T04:00:00	7	Dirección del viento	6.44
21847	7	Sololá	712	San Antonio Palopó	9	San Antonio Palopo	11	Noviembre	2023-11-29T00:00:00	2024-11-08T04:00:00	1	Precipitación	0
21848	7	Sololá	712	San Antonio Palopó	9	San Antonio Palopo	11	Noviembre	2023-11-29T00:00:00	2024-11-08T04:00:00	8	Radiación solar	0
21849	7	Sololá	712	San Antonio Palopó	9	San Antonio Palopo	11	Noviembre	2023-11-29T00:00:00	2024-11-08T05:00:00	2	Temperatura media	18
21850	7	Sololá	712	San Antonio Palopó	9	San Antonio Palopo	11	Noviembre	2023-11-29T00:00:00	2024-11-08T05:00:00	4	Temperatura máxima	18.4
21851	7	Sololá	712	San Antonio Palopó	9	San Antonio Palopo	11	Noviembre	2023-11-29T00:00:00	2024-11-08T05:00:00	3	Temperatura mínima	18
21852	7	Sololá	712	San Antonio Palopó	9	San Antonio Palopo	11	Noviembre	2023-11-29T00:00:00	2024-11-08T05:00:00	5	Humedad	68
21853	7	Sololá	712	San Antonio Palopó	9	San Antonio Palopo	11	Noviembre	2023-11-29T00:00:00	2024-11-08T05:00:00	6	Velocidad del viento	8
21854	7	Sololá	712	San Antonio Palopó	9	San Antonio Palopo	11	Noviembre	2023-11-29T00:00:00	2024-11-08T05:00:00	7	Dirección del viento	8.05
21855	7	Sololá	712	San Antonio Palopó	9	San Antonio Palopo	11	Noviembre	2023-11-29T00:00:00	2024-11-08T05:00:00	1	Precipitación	0
21856	7	Sololá	712	San Antonio Palopó	9	San Antonio Palopo	11	Noviembre	2023-11-29T00:00:00	2024-11-08T05:00:00	8	Radiación solar	0
21857	7	Sololá	712	San Antonio Palopó	9	San Antonio Palopo	11	Noviembre	2023-11-29T00:00:00	2024-11-08T06:00:00	2	Temperatura media	17.8
21858	7	Sololá	712	San Antonio Palopó	9	San Antonio Palopo	11	Noviembre	2023-11-29T00:00:00	2024-11-08T06:00:00	4	Temperatura máxima	18.2
21859	7	Sololá	712	San Antonio Palopó	9	San Antonio Palopo	11	Noviembre	2023-11-29T00:00:00	2024-11-08T06:00:00	3	Temperatura mínima	17.6
21860	7	Sololá	712	San Antonio Palopó	9	San Antonio Palopo	11	Noviembre	2023-11-29T00:00:00	2024-11-08T06:00:00	5	Humedad	67
21861	7	Sololá	712	San Antonio Palopó	9	San Antonio Palopo	11	Noviembre	2023-11-29T00:00:00	2024-11-08T06:00:00	6	Velocidad del viento	4.8
21862	7	Sololá	712	San Antonio Palopó	9	San Antonio Palopo	11	Noviembre	2023-11-29T00:00:00	2024-11-08T06:00:00	7	Dirección del viento	4.83
21863	7	Sololá	712	San Antonio Palopó	9	San Antonio Palopo	11	Noviembre	2023-11-29T00:00:00	2024-11-08T06:00:00	1	Precipitación	0
21864	7	Sololá	712	San Antonio Palopó	9	San Antonio Palopo	11	Noviembre	2023-11-29T00:00:00	2024-11-08T06:00:00	8	Radiación solar	0
21865	7	Sololá	712	San Antonio Palopó	9	San Antonio Palopo	11	Noviembre	2023-11-29T00:00:00	2024-11-08T07:00:00	2	Temperatura media	18.1
21866	7	Sololá	712	San Antonio Palopó	9	San Antonio Palopo	11	Noviembre	2023-11-29T00:00:00	2024-11-08T07:00:00	4	Temperatura máxima	18.3
21867	7	Sololá	712	San Antonio Palopó	9	San Antonio Palopo	11	Noviembre	2023-11-29T00:00:00	2024-11-08T07:00:00	3	Temperatura mínima	17.5
21868	7	Sololá	712	San Antonio Palopó	9	San Antonio Palopo	11	Noviembre	2023-11-29T00:00:00	2024-11-08T07:00:00	5	Humedad	63
21869	7	Sololá	712	San Antonio Palopó	9	San Antonio Palopo	11	Noviembre	2023-11-29T00:00:00	2024-11-08T07:00:00	6	Velocidad del viento	4.8
21870	7	Sololá	712	San Antonio Palopó	9	San Antonio Palopo	11	Noviembre	2023-11-29T00:00:00	2024-11-08T07:00:00	7	Dirección del viento	4.83
21871	7	Sololá	712	San Antonio Palopó	9	San Antonio Palopo	11	Noviembre	2023-11-29T00:00:00	2024-11-08T07:00:00	1	Precipitación	0
21872	7	Sololá	712	San Antonio Palopó	9	San Antonio Palopo	11	Noviembre	2023-11-29T00:00:00	2024-11-08T07:00:00	8	Radiación solar	10
21873	7	Sololá	712	San Antonio Palopó	9	San Antonio Palopo	11	Noviembre	2023-11-29T00:00:00	2024-11-08T08:00:00	2	Temperatura media	17.4
21874	7	Sololá	712	San Antonio Palopó	9	San Antonio Palopo	11	Noviembre	2023-11-29T00:00:00	2024-11-08T08:00:00	4	Temperatura máxima	18.6
21875	7	Sololá	712	San Antonio Palopó	9	San Antonio Palopo	11	Noviembre	2023-11-29T00:00:00	2024-11-08T08:00:00	3	Temperatura mínima	17.4
21876	7	Sololá	712	San Antonio Palopó	9	San Antonio Palopo	11	Noviembre	2023-11-29T00:00:00	2024-11-08T08:00:00	5	Humedad	65
21877	7	Sololá	712	San Antonio Palopó	9	San Antonio Palopo	11	Noviembre	2023-11-29T00:00:00	2024-11-08T08:00:00	6	Velocidad del viento	4.8
21878	7	Sololá	712	San Antonio Palopó	9	San Antonio Palopo	11	Noviembre	2023-11-29T00:00:00	2024-11-08T08:00:00	7	Dirección del viento	4.83
21879	7	Sololá	712	San Antonio Palopó	9	San Antonio Palopo	11	Noviembre	2023-11-29T00:00:00	2024-11-08T08:00:00	1	Precipitación	0
21880	7	Sololá	712	San Antonio Palopó	9	San Antonio Palopo	11	Noviembre	2023-11-29T00:00:00	2024-11-08T08:00:00	8	Radiación solar	32
21881	7	Sololá	712	San Antonio Palopó	9	San Antonio Palopo	11	Noviembre	2023-11-29T00:00:00	2024-11-08T09:00:00	2	Temperatura media	20.2
21882	7	Sololá	712	San Antonio Palopó	9	San Antonio Palopo	11	Noviembre	2023-11-29T00:00:00	2024-11-08T09:00:00	4	Temperatura máxima	20.2
21883	7	Sololá	712	San Antonio Palopó	9	San Antonio Palopo	11	Noviembre	2023-11-29T00:00:00	2024-11-08T09:00:00	3	Temperatura mínima	17.4
21884	7	Sololá	712	San Antonio Palopó	9	San Antonio Palopo	11	Noviembre	2023-11-29T00:00:00	2024-11-08T09:00:00	5	Humedad	61
21885	7	Sololá	712	San Antonio Palopó	9	San Antonio Palopo	11	Noviembre	2023-11-29T00:00:00	2024-11-08T09:00:00	6	Velocidad del viento	3.2
21886	7	Sololá	712	San Antonio Palopó	9	San Antonio Palopo	11	Noviembre	2023-11-29T00:00:00	2024-11-08T09:00:00	7	Dirección del viento	3.22
21887	7	Sololá	712	San Antonio Palopó	9	San Antonio Palopo	11	Noviembre	2023-11-29T00:00:00	2024-11-08T09:00:00	1	Precipitación	0
21888	7	Sololá	712	San Antonio Palopó	9	San Antonio Palopo	11	Noviembre	2023-11-29T00:00:00	2024-11-08T09:00:00	8	Radiación solar	270
21889	7	Sololá	712	San Antonio Palopó	9	San Antonio Palopo	11	Noviembre	2023-11-29T00:00:00	2024-11-08T10:00:00	2	Temperatura media	22.4
21890	7	Sololá	712	San Antonio Palopó	9	San Antonio Palopo	11	Noviembre	2023-11-29T00:00:00	2024-11-08T10:00:00	4	Temperatura máxima	22.7
21891	7	Sololá	712	San Antonio Palopó	9	San Antonio Palopo	11	Noviembre	2023-11-29T00:00:00	2024-11-08T10:00:00	3	Temperatura mínima	20.2
21892	7	Sololá	712	San Antonio Palopó	9	San Antonio Palopo	11	Noviembre	2023-11-29T00:00:00	2024-11-08T10:00:00	5	Humedad	52
21893	7	Sololá	712	San Antonio Palopó	9	San Antonio Palopo	11	Noviembre	2023-11-29T00:00:00	2024-11-08T10:00:00	6	Velocidad del viento	3.2
21894	7	Sololá	712	San Antonio Palopó	9	San Antonio Palopo	11	Noviembre	2023-11-29T00:00:00	2024-11-08T10:00:00	7	Dirección del viento	3.22
21895	7	Sololá	712	San Antonio Palopó	9	San Antonio Palopo	11	Noviembre	2023-11-29T00:00:00	2024-11-08T10:00:00	1	Precipitación	0
21896	7	Sololá	712	San Antonio Palopó	9	San Antonio Palopo	11	Noviembre	2023-11-29T00:00:00	2024-11-08T10:00:00	8	Radiación solar	576
21897	7	Sololá	712	San Antonio Palopó	9	San Antonio Palopo	11	Noviembre	2023-11-29T00:00:00	2024-11-08T11:00:00	2	Temperatura media	23.8
21898	7	Sololá	712	San Antonio Palopó	9	San Antonio Palopo	11	Noviembre	2023-11-29T00:00:00	2024-11-08T11:00:00	4	Temperatura máxima	23.8
21899	7	Sololá	712	San Antonio Palopó	9	San Antonio Palopo	11	Noviembre	2023-11-29T00:00:00	2024-11-08T11:00:00	3	Temperatura mínima	22.4
21900	7	Sololá	712	San Antonio Palopó	9	San Antonio Palopo	11	Noviembre	2023-11-29T00:00:00	2024-11-08T11:00:00	5	Humedad	47
21901	7	Sololá	712	San Antonio Palopó	9	San Antonio Palopo	11	Noviembre	2023-11-29T00:00:00	2024-11-08T11:00:00	6	Velocidad del viento	6.4
21902	7	Sololá	712	San Antonio Palopó	9	San Antonio Palopo	11	Noviembre	2023-11-29T00:00:00	2024-11-08T11:00:00	7	Dirección del viento	6.44
21903	7	Sololá	712	San Antonio Palopó	9	San Antonio Palopo	11	Noviembre	2023-11-29T00:00:00	2024-11-08T11:00:00	1	Precipitación	0
21904	7	Sololá	712	San Antonio Palopó	9	San Antonio Palopo	11	Noviembre	2023-11-29T00:00:00	2024-11-08T11:00:00	8	Radiación solar	693
21905	7	Sololá	712	San Antonio Palopó	9	San Antonio Palopo	11	Noviembre	2023-11-29T00:00:00	2024-11-08T12:00:00	2	Temperatura media	25.2
21906	7	Sololá	712	San Antonio Palopó	9	San Antonio Palopo	11	Noviembre	2023-11-29T00:00:00	2024-11-08T12:00:00	4	Temperatura máxima	25.4
21907	7	Sololá	712	San Antonio Palopó	9	San Antonio Palopo	11	Noviembre	2023-11-29T00:00:00	2024-11-08T12:00:00	3	Temperatura mínima	23.8
21908	7	Sololá	712	San Antonio Palopó	9	San Antonio Palopo	11	Noviembre	2023-11-29T00:00:00	2024-11-08T12:00:00	5	Humedad	50
21909	7	Sololá	712	San Antonio Palopó	9	San Antonio Palopo	11	Noviembre	2023-11-29T00:00:00	2024-11-08T12:00:00	6	Velocidad del viento	8
21910	7	Sololá	712	San Antonio Palopó	9	San Antonio Palopo	11	Noviembre	2023-11-29T00:00:00	2024-11-08T12:00:00	7	Dirección del viento	8.05
21911	7	Sololá	712	San Antonio Palopó	9	San Antonio Palopo	11	Noviembre	2023-11-29T00:00:00	2024-11-08T12:00:00	1	Precipitación	0
21912	7	Sololá	712	San Antonio Palopó	9	San Antonio Palopo	11	Noviembre	2023-11-29T00:00:00	2024-11-08T12:00:00	8	Radiación solar	686
21913	7	Sololá	712	San Antonio Palopó	9	San Antonio Palopo	11	Noviembre	2023-11-29T00:00:00	2024-11-08T13:00:00	2	Temperatura media	23.6
21914	7	Sololá	712	San Antonio Palopó	9	San Antonio Palopo	11	Noviembre	2023-11-29T00:00:00	2024-11-08T13:00:00	4	Temperatura máxima	25.3
21915	7	Sololá	712	San Antonio Palopó	9	San Antonio Palopo	11	Noviembre	2023-11-29T00:00:00	2024-11-08T13:00:00	3	Temperatura mínima	23.5
21916	7	Sololá	712	San Antonio Palopó	9	San Antonio Palopo	11	Noviembre	2023-11-29T00:00:00	2024-11-08T13:00:00	5	Humedad	55
21917	7	Sololá	712	San Antonio Palopó	9	San Antonio Palopo	11	Noviembre	2023-11-29T00:00:00	2024-11-08T13:00:00	6	Velocidad del viento	16.1
21918	7	Sololá	712	San Antonio Palopó	9	San Antonio Palopo	11	Noviembre	2023-11-29T00:00:00	2024-11-08T13:00:00	7	Dirección del viento	16.09
21919	7	Sololá	712	San Antonio Palopó	9	San Antonio Palopo	11	Noviembre	2023-11-29T00:00:00	2024-11-08T13:00:00	1	Precipitación	0
21920	7	Sololá	712	San Antonio Palopó	9	San Antonio Palopo	11	Noviembre	2023-11-29T00:00:00	2024-11-08T13:00:00	8	Radiación solar	779
21921	7	Sololá	712	San Antonio Palopó	9	San Antonio Palopo	11	Noviembre	2023-11-29T00:00:00	2024-11-08T14:00:00	2	Temperatura media	24.5
21922	7	Sololá	712	San Antonio Palopó	9	San Antonio Palopo	11	Noviembre	2023-11-29T00:00:00	2024-11-08T14:00:00	4	Temperatura máxima	25.8
21923	7	Sololá	712	San Antonio Palopó	9	San Antonio Palopo	11	Noviembre	2023-11-29T00:00:00	2024-11-08T14:00:00	3	Temperatura mínima	23.6
21924	7	Sololá	712	San Antonio Palopó	9	San Antonio Palopo	11	Noviembre	2023-11-29T00:00:00	2024-11-08T14:00:00	5	Humedad	52
21925	7	Sololá	712	San Antonio Palopó	9	San Antonio Palopo	11	Noviembre	2023-11-29T00:00:00	2024-11-08T14:00:00	6	Velocidad del viento	11.3
21926	7	Sololá	712	San Antonio Palopó	9	San Antonio Palopo	11	Noviembre	2023-11-29T00:00:00	2024-11-08T14:00:00	7	Dirección del viento	11.27
21927	7	Sololá	712	San Antonio Palopó	9	San Antonio Palopo	11	Noviembre	2023-11-29T00:00:00	2024-11-08T14:00:00	1	Precipitación	0
21928	7	Sololá	712	San Antonio Palopó	9	San Antonio Palopo	11	Noviembre	2023-11-29T00:00:00	2024-11-08T14:00:00	8	Radiación solar	594
21929	7	Sololá	712	San Antonio Palopó	9	San Antonio Palopo	11	Noviembre	2023-11-29T00:00:00	2024-11-08T15:00:00	2	Temperatura media	24.8
21930	7	Sololá	712	San Antonio Palopó	9	San Antonio Palopo	11	Noviembre	2023-11-29T00:00:00	2024-11-08T15:00:00	4	Temperatura máxima	25.6
21931	7	Sololá	712	San Antonio Palopó	9	San Antonio Palopo	11	Noviembre	2023-11-29T00:00:00	2024-11-08T15:00:00	3	Temperatura mínima	24.5
21932	7	Sololá	712	San Antonio Palopó	9	San Antonio Palopo	11	Noviembre	2023-11-29T00:00:00	2024-11-08T15:00:00	5	Humedad	51
21933	7	Sololá	712	San Antonio Palopó	9	San Antonio Palopo	11	Noviembre	2023-11-29T00:00:00	2024-11-08T15:00:00	6	Velocidad del viento	9.7
21934	7	Sololá	712	San Antonio Palopó	9	San Antonio Palopo	11	Noviembre	2023-11-29T00:00:00	2024-11-08T15:00:00	7	Dirección del viento	9.66
21935	7	Sololá	712	San Antonio Palopó	9	San Antonio Palopo	11	Noviembre	2023-11-29T00:00:00	2024-11-08T15:00:00	1	Precipitación	0
21936	7	Sololá	712	San Antonio Palopó	9	San Antonio Palopo	11	Noviembre	2023-11-29T00:00:00	2024-11-08T15:00:00	8	Radiación solar	535
21937	7	Sololá	712	San Antonio Palopó	9	San Antonio Palopo	11	Noviembre	2023-11-29T00:00:00	2024-11-08T16:00:00	2	Temperatura media	24.3
21938	7	Sololá	712	San Antonio Palopó	9	San Antonio Palopo	11	Noviembre	2023-11-29T00:00:00	2024-11-08T16:00:00	4	Temperatura máxima	25.1
21939	7	Sololá	712	San Antonio Palopó	9	San Antonio Palopo	11	Noviembre	2023-11-29T00:00:00	2024-11-08T16:00:00	3	Temperatura mínima	24.2
21940	7	Sololá	712	San Antonio Palopó	9	San Antonio Palopo	11	Noviembre	2023-11-29T00:00:00	2024-11-08T16:00:00	5	Humedad	52
21941	7	Sololá	712	San Antonio Palopó	9	San Antonio Palopo	11	Noviembre	2023-11-29T00:00:00	2024-11-08T16:00:00	6	Velocidad del viento	12.9
21942	7	Sololá	712	San Antonio Palopó	9	San Antonio Palopo	11	Noviembre	2023-11-29T00:00:00	2024-11-08T16:00:00	7	Dirección del viento	12.87
21943	7	Sololá	712	San Antonio Palopó	9	San Antonio Palopo	11	Noviembre	2023-11-29T00:00:00	2024-11-08T16:00:00	1	Precipitación	0
21944	7	Sololá	712	San Antonio Palopó	9	San Antonio Palopo	11	Noviembre	2023-11-29T00:00:00	2024-11-08T16:00:00	8	Radiación solar	342
21945	7	Sololá	712	San Antonio Palopó	9	San Antonio Palopo	11	Noviembre	2023-11-29T00:00:00	2024-11-08T17:00:00	2	Temperatura media	24.2
21946	7	Sololá	712	San Antonio Palopó	9	San Antonio Palopo	11	Noviembre	2023-11-29T00:00:00	2024-11-08T17:00:00	4	Temperatura máxima	24.3
21947	7	Sololá	712	San Antonio Palopó	9	San Antonio Palopo	11	Noviembre	2023-11-29T00:00:00	2024-11-08T17:00:00	3	Temperatura mínima	23.4
21948	7	Sololá	712	San Antonio Palopó	9	San Antonio Palopo	11	Noviembre	2023-11-29T00:00:00	2024-11-08T17:00:00	5	Humedad	53
21949	7	Sololá	712	San Antonio Palopó	9	San Antonio Palopo	11	Noviembre	2023-11-29T00:00:00	2024-11-08T17:00:00	6	Velocidad del viento	11.3
21950	7	Sololá	712	San Antonio Palopó	9	San Antonio Palopo	11	Noviembre	2023-11-29T00:00:00	2024-11-08T17:00:00	7	Dirección del viento	11.27
21951	7	Sololá	712	San Antonio Palopó	9	San Antonio Palopo	11	Noviembre	2023-11-29T00:00:00	2024-11-08T17:00:00	1	Precipitación	0
21952	7	Sololá	712	San Antonio Palopó	9	San Antonio Palopo	11	Noviembre	2023-11-29T00:00:00	2024-11-08T17:00:00	8	Radiación solar	125
21953	7	Sololá	712	San Antonio Palopó	9	San Antonio Palopo	11	Noviembre	2023-11-29T00:00:00	2024-11-08T18:00:00	2	Temperatura media	21.4
21954	7	Sololá	712	San Antonio Palopó	9	San Antonio Palopo	11	Noviembre	2023-11-29T00:00:00	2024-11-08T18:00:00	4	Temperatura máxima	24.2
21955	7	Sololá	712	San Antonio Palopó	9	San Antonio Palopo	11	Noviembre	2023-11-29T00:00:00	2024-11-08T18:00:00	3	Temperatura mínima	21.4
21956	7	Sololá	712	San Antonio Palopó	9	San Antonio Palopo	11	Noviembre	2023-11-29T00:00:00	2024-11-08T18:00:00	5	Humedad	62
21957	7	Sololá	712	San Antonio Palopó	9	San Antonio Palopo	11	Noviembre	2023-11-29T00:00:00	2024-11-08T18:00:00	6	Velocidad del viento	6.4
21958	7	Sololá	712	San Antonio Palopó	9	San Antonio Palopo	11	Noviembre	2023-11-29T00:00:00	2024-11-08T18:00:00	7	Dirección del viento	6.44
21959	7	Sololá	712	San Antonio Palopó	9	San Antonio Palopo	11	Noviembre	2023-11-29T00:00:00	2024-11-08T18:00:00	1	Precipitación	0
21960	7	Sololá	712	San Antonio Palopó	9	San Antonio Palopo	11	Noviembre	2023-11-29T00:00:00	2024-11-08T18:00:00	8	Radiación solar	10
21961	7	Sololá	712	San Antonio Palopó	9	San Antonio Palopo	11	Noviembre	2023-11-29T00:00:00	2024-11-08T19:00:00	2	Temperatura media	20.2
21962	7	Sololá	712	San Antonio Palopó	9	San Antonio Palopo	11	Noviembre	2023-11-29T00:00:00	2024-11-08T19:00:00	4	Temperatura máxima	21.6
21963	7	Sololá	712	San Antonio Palopó	9	San Antonio Palopo	11	Noviembre	2023-11-29T00:00:00	2024-11-08T19:00:00	3	Temperatura mínima	20.1
21964	7	Sololá	712	San Antonio Palopó	9	San Antonio Palopo	11	Noviembre	2023-11-29T00:00:00	2024-11-08T19:00:00	5	Humedad	66
21965	7	Sololá	712	San Antonio Palopó	9	San Antonio Palopo	11	Noviembre	2023-11-29T00:00:00	2024-11-08T19:00:00	6	Velocidad del viento	4.8
21966	7	Sololá	712	San Antonio Palopó	9	San Antonio Palopo	11	Noviembre	2023-11-29T00:00:00	2024-11-08T19:00:00	7	Dirección del viento	4.83
21967	7	Sololá	712	San Antonio Palopó	9	San Antonio Palopo	11	Noviembre	2023-11-29T00:00:00	2024-11-08T19:00:00	1	Precipitación	0
21968	7	Sololá	712	San Antonio Palopó	9	San Antonio Palopo	11	Noviembre	2023-11-29T00:00:00	2024-11-08T19:00:00	8	Radiación solar	0
21969	7	Sololá	712	San Antonio Palopó	9	San Antonio Palopo	11	Noviembre	2023-11-29T00:00:00	2024-11-08T20:00:00	2	Temperatura media	19.7
21970	7	Sololá	712	San Antonio Palopó	9	San Antonio Palopo	11	Noviembre	2023-11-29T00:00:00	2024-11-08T20:00:00	4	Temperatura máxima	20.2
21971	7	Sololá	712	San Antonio Palopó	9	San Antonio Palopo	11	Noviembre	2023-11-29T00:00:00	2024-11-08T20:00:00	3	Temperatura mínima	19.6
21972	7	Sololá	712	San Antonio Palopó	9	San Antonio Palopo	11	Noviembre	2023-11-29T00:00:00	2024-11-08T20:00:00	5	Humedad	67
21973	7	Sololá	712	San Antonio Palopó	9	San Antonio Palopo	11	Noviembre	2023-11-29T00:00:00	2024-11-08T20:00:00	6	Velocidad del viento	3.2
21974	7	Sololá	712	San Antonio Palopó	9	San Antonio Palopo	11	Noviembre	2023-11-29T00:00:00	2024-11-08T20:00:00	7	Dirección del viento	3.22
21975	7	Sololá	712	San Antonio Palopó	9	San Antonio Palopo	11	Noviembre	2023-11-29T00:00:00	2024-11-08T20:00:00	1	Precipitación	0
21976	7	Sololá	712	San Antonio Palopó	9	San Antonio Palopo	11	Noviembre	2023-11-29T00:00:00	2024-11-08T20:00:00	8	Radiación solar	0
21977	7	Sololá	712	San Antonio Palopó	9	San Antonio Palopo	11	Noviembre	2023-11-29T00:00:00	2024-11-08T21:00:00	2	Temperatura media	19.4
21978	7	Sololá	712	San Antonio Palopó	9	San Antonio Palopo	11	Noviembre	2023-11-29T00:00:00	2024-11-08T21:00:00	4	Temperatura máxima	20
21979	7	Sololá	712	San Antonio Palopó	9	San Antonio Palopo	11	Noviembre	2023-11-29T00:00:00	2024-11-08T21:00:00	3	Temperatura mínima	19.4
21980	7	Sololá	712	San Antonio Palopó	9	San Antonio Palopo	11	Noviembre	2023-11-29T00:00:00	2024-11-08T21:00:00	5	Humedad	68
21981	7	Sololá	712	San Antonio Palopó	9	San Antonio Palopo	11	Noviembre	2023-11-29T00:00:00	2024-11-08T21:00:00	6	Velocidad del viento	9.7
21982	7	Sololá	712	San Antonio Palopó	9	San Antonio Palopo	11	Noviembre	2023-11-29T00:00:00	2024-11-08T21:00:00	7	Dirección del viento	9.66
21983	7	Sololá	712	San Antonio Palopó	9	San Antonio Palopo	11	Noviembre	2023-11-29T00:00:00	2024-11-08T21:00:00	1	Precipitación	0
21984	7	Sololá	712	San Antonio Palopó	9	San Antonio Palopo	11	Noviembre	2023-11-29T00:00:00	2024-11-08T21:00:00	8	Radiación solar	0
21985	7	Sololá	712	San Antonio Palopó	9	San Antonio Palopo	11	Noviembre	2023-11-29T00:00:00	2024-11-08T22:00:00	2	Temperatura media	18.9
21986	7	Sololá	712	San Antonio Palopó	9	San Antonio Palopo	11	Noviembre	2023-11-29T00:00:00	2024-11-08T22:00:00	4	Temperatura máxima	19.4
21987	7	Sololá	712	San Antonio Palopó	9	San Antonio Palopo	11	Noviembre	2023-11-29T00:00:00	2024-11-08T22:00:00	3	Temperatura mínima	18.7
21988	7	Sololá	712	San Antonio Palopó	9	San Antonio Palopo	11	Noviembre	2023-11-29T00:00:00	2024-11-08T22:00:00	5	Humedad	72
21989	7	Sololá	712	San Antonio Palopó	9	San Antonio Palopo	11	Noviembre	2023-11-29T00:00:00	2024-11-08T22:00:00	6	Velocidad del viento	9.7
21990	7	Sololá	712	San Antonio Palopó	9	San Antonio Palopo	11	Noviembre	2023-11-29T00:00:00	2024-11-08T22:00:00	7	Dirección del viento	9.66
21991	7	Sololá	712	San Antonio Palopó	9	San Antonio Palopo	11	Noviembre	2023-11-29T00:00:00	2024-11-08T22:00:00	1	Precipitación	0
21992	7	Sololá	712	San Antonio Palopó	9	San Antonio Palopo	11	Noviembre	2023-11-29T00:00:00	2024-11-08T22:00:00	8	Radiación solar	0
21993	7	Sololá	712	San Antonio Palopó	9	San Antonio Palopo	11	Noviembre	2023-11-29T00:00:00	2024-11-08T23:00:00	2	Temperatura media	19.3
21994	7	Sololá	712	San Antonio Palopó	9	San Antonio Palopo	11	Noviembre	2023-11-29T00:00:00	2024-11-08T23:00:00	4	Temperatura máxima	19.4
21995	7	Sololá	712	San Antonio Palopó	9	San Antonio Palopo	11	Noviembre	2023-11-29T00:00:00	2024-11-08T23:00:00	3	Temperatura mínima	18.9
21996	7	Sololá	712	San Antonio Palopó	9	San Antonio Palopo	11	Noviembre	2023-11-29T00:00:00	2024-11-08T23:00:00	5	Humedad	69
21997	7	Sololá	712	San Antonio Palopó	9	San Antonio Palopo	11	Noviembre	2023-11-29T00:00:00	2024-11-08T23:00:00	6	Velocidad del viento	12.9
21998	7	Sololá	712	San Antonio Palopó	9	San Antonio Palopo	11	Noviembre	2023-11-29T00:00:00	2024-11-08T23:00:00	7	Dirección del viento	12.87
21999	7	Sololá	712	San Antonio Palopó	9	San Antonio Palopo	11	Noviembre	2023-11-29T00:00:00	2024-11-08T23:00:00	1	Precipitación	0
22000	7	Sololá	712	San Antonio Palopó	9	San Antonio Palopo	11	Noviembre	2023-11-29T00:00:00	2024-11-08T23:00:00	8	Radiación solar	0
22001	7	Sololá	712	San Antonio Palopó	9	San Antonio Palopo	11	Noviembre	2023-11-30T00:00:00	2024-11-08T00:00:00	2	Temperatura media	19.2
22002	7	Sololá	712	San Antonio Palopó	9	San Antonio Palopo	11	Noviembre	2023-11-30T00:00:00	2024-11-08T00:00:00	4	Temperatura máxima	19.4
22003	7	Sololá	712	San Antonio Palopó	9	San Antonio Palopo	11	Noviembre	2023-11-30T00:00:00	2024-11-08T00:00:00	3	Temperatura mínima	18.9
22004	7	Sololá	712	San Antonio Palopó	9	San Antonio Palopo	11	Noviembre	2023-11-30T00:00:00	2024-11-08T00:00:00	5	Humedad	69
22005	7	Sololá	712	San Antonio Palopó	9	San Antonio Palopo	11	Noviembre	2023-11-30T00:00:00	2024-11-08T00:00:00	6	Velocidad del viento	12.9
22006	7	Sololá	712	San Antonio Palopó	9	San Antonio Palopo	11	Noviembre	2023-11-30T00:00:00	2024-11-08T00:00:00	7	Dirección del viento	12.87
22007	7	Sololá	712	San Antonio Palopó	9	San Antonio Palopo	11	Noviembre	2023-11-30T00:00:00	2024-11-08T00:00:00	1	Precipitación	0
22008	7	Sololá	712	San Antonio Palopó	9	San Antonio Palopo	11	Noviembre	2023-11-30T00:00:00	2024-11-08T00:00:00	8	Radiación solar	0
22009	7	Sololá	712	San Antonio Palopó	9	San Antonio Palopo	11	Noviembre	2023-11-30T00:00:00	2024-11-08T01:00:00	2	Temperatura media	18.6
22010	7	Sololá	712	San Antonio Palopó	9	San Antonio Palopo	11	Noviembre	2023-11-30T00:00:00	2024-11-08T01:00:00	4	Temperatura máxima	19.5
22011	7	Sololá	712	San Antonio Palopó	9	San Antonio Palopo	11	Noviembre	2023-11-30T00:00:00	2024-11-08T01:00:00	3	Temperatura mínima	18.4
22012	7	Sololá	712	San Antonio Palopó	9	San Antonio Palopo	11	Noviembre	2023-11-30T00:00:00	2024-11-08T01:00:00	5	Humedad	71
22013	7	Sololá	712	San Antonio Palopó	9	San Antonio Palopo	11	Noviembre	2023-11-30T00:00:00	2024-11-08T01:00:00	6	Velocidad del viento	12.9
22014	7	Sololá	712	San Antonio Palopó	9	San Antonio Palopo	11	Noviembre	2023-11-30T00:00:00	2024-11-08T01:00:00	7	Dirección del viento	12.87
22015	7	Sololá	712	San Antonio Palopó	9	San Antonio Palopo	11	Noviembre	2023-11-30T00:00:00	2024-11-08T01:00:00	1	Precipitación	0
22016	7	Sololá	712	San Antonio Palopó	9	San Antonio Palopo	11	Noviembre	2023-11-30T00:00:00	2024-11-08T01:00:00	8	Radiación solar	0
22017	7	Sololá	712	San Antonio Palopó	9	San Antonio Palopo	11	Noviembre	2023-11-30T00:00:00	2024-11-08T02:00:00	2	Temperatura media	18.7
22018	7	Sololá	712	San Antonio Palopó	9	San Antonio Palopo	11	Noviembre	2023-11-30T00:00:00	2024-11-08T02:00:00	4	Temperatura máxima	18.7
22019	7	Sololá	712	San Antonio Palopó	9	San Antonio Palopo	11	Noviembre	2023-11-30T00:00:00	2024-11-08T02:00:00	3	Temperatura mínima	18.3
22020	7	Sololá	712	San Antonio Palopó	9	San Antonio Palopo	11	Noviembre	2023-11-30T00:00:00	2024-11-08T02:00:00	5	Humedad	70
22021	7	Sololá	712	San Antonio Palopó	9	San Antonio Palopo	11	Noviembre	2023-11-30T00:00:00	2024-11-08T02:00:00	6	Velocidad del viento	11.3
22022	7	Sololá	712	San Antonio Palopó	9	San Antonio Palopo	11	Noviembre	2023-11-30T00:00:00	2024-11-08T02:00:00	7	Dirección del viento	11.27
22023	7	Sololá	712	San Antonio Palopó	9	San Antonio Palopo	11	Noviembre	2023-11-30T00:00:00	2024-11-08T02:00:00	1	Precipitación	0
22024	7	Sololá	712	San Antonio Palopó	9	San Antonio Palopo	11	Noviembre	2023-11-30T00:00:00	2024-11-08T02:00:00	8	Radiación solar	0
22025	7	Sololá	712	San Antonio Palopó	9	San Antonio Palopo	11	Noviembre	2023-11-30T00:00:00	2024-11-08T03:00:00	2	Temperatura media	18.4
22026	7	Sololá	712	San Antonio Palopó	9	San Antonio Palopo	11	Noviembre	2023-11-30T00:00:00	2024-11-08T03:00:00	4	Temperatura máxima	18.9
22027	7	Sololá	712	San Antonio Palopó	9	San Antonio Palopo	11	Noviembre	2023-11-30T00:00:00	2024-11-08T03:00:00	3	Temperatura mínima	18.2
22028	7	Sololá	712	San Antonio Palopó	9	San Antonio Palopo	11	Noviembre	2023-11-30T00:00:00	2024-11-08T03:00:00	5	Humedad	71
22029	7	Sololá	712	San Antonio Palopó	9	San Antonio Palopo	11	Noviembre	2023-11-30T00:00:00	2024-11-08T03:00:00	6	Velocidad del viento	14.5
22030	7	Sololá	712	San Antonio Palopó	9	San Antonio Palopo	11	Noviembre	2023-11-30T00:00:00	2024-11-08T03:00:00	7	Dirección del viento	14.48
22031	7	Sololá	712	San Antonio Palopó	9	San Antonio Palopo	11	Noviembre	2023-11-30T00:00:00	2024-11-08T03:00:00	1	Precipitación	0
22032	7	Sololá	712	San Antonio Palopó	9	San Antonio Palopo	11	Noviembre	2023-11-30T00:00:00	2024-11-08T03:00:00	8	Radiación solar	0
22033	7	Sololá	712	San Antonio Palopó	9	San Antonio Palopo	11	Noviembre	2023-11-30T00:00:00	2024-11-08T04:00:00	2	Temperatura media	18.2
22034	7	Sololá	712	San Antonio Palopó	9	San Antonio Palopo	11	Noviembre	2023-11-30T00:00:00	2024-11-08T04:00:00	4	Temperatura máxima	18.8
22035	7	Sololá	712	San Antonio Palopó	9	San Antonio Palopo	11	Noviembre	2023-11-30T00:00:00	2024-11-08T04:00:00	3	Temperatura mínima	17.9
22036	7	Sololá	712	San Antonio Palopó	9	San Antonio Palopo	11	Noviembre	2023-11-30T00:00:00	2024-11-08T04:00:00	5	Humedad	71
22037	7	Sololá	712	San Antonio Palopó	9	San Antonio Palopo	11	Noviembre	2023-11-30T00:00:00	2024-11-08T04:00:00	6	Velocidad del viento	16.1
22038	7	Sololá	712	San Antonio Palopó	9	San Antonio Palopo	11	Noviembre	2023-11-30T00:00:00	2024-11-08T04:00:00	7	Dirección del viento	16.09
22039	7	Sololá	712	San Antonio Palopó	9	San Antonio Palopo	11	Noviembre	2023-11-30T00:00:00	2024-11-08T04:00:00	1	Precipitación	0
22040	7	Sololá	712	San Antonio Palopó	9	San Antonio Palopo	11	Noviembre	2023-11-30T00:00:00	2024-11-08T04:00:00	8	Radiación solar	0
22041	7	Sololá	712	San Antonio Palopó	9	San Antonio Palopo	11	Noviembre	2023-11-30T00:00:00	2024-11-08T05:00:00	2	Temperatura media	18.1
22042	7	Sololá	712	San Antonio Palopó	9	San Antonio Palopo	11	Noviembre	2023-11-30T00:00:00	2024-11-08T05:00:00	4	Temperatura máxima	18.7
22043	7	Sololá	712	San Antonio Palopó	9	San Antonio Palopo	11	Noviembre	2023-11-30T00:00:00	2024-11-08T05:00:00	3	Temperatura mínima	18.1
22044	7	Sololá	712	San Antonio Palopó	9	San Antonio Palopo	11	Noviembre	2023-11-30T00:00:00	2024-11-08T05:00:00	5	Humedad	71
22045	7	Sololá	712	San Antonio Palopó	9	San Antonio Palopo	11	Noviembre	2023-11-30T00:00:00	2024-11-08T05:00:00	6	Velocidad del viento	14.5
22046	7	Sololá	712	San Antonio Palopó	9	San Antonio Palopo	11	Noviembre	2023-11-30T00:00:00	2024-11-08T05:00:00	7	Dirección del viento	14.48
22047	7	Sololá	712	San Antonio Palopó	9	San Antonio Palopo	11	Noviembre	2023-11-30T00:00:00	2024-11-08T05:00:00	1	Precipitación	0
22048	7	Sololá	712	San Antonio Palopó	9	San Antonio Palopo	11	Noviembre	2023-11-30T00:00:00	2024-11-08T05:00:00	8	Radiación solar	0
22049	7	Sololá	712	San Antonio Palopó	9	San Antonio Palopo	11	Noviembre	2023-11-30T00:00:00	2024-11-08T06:00:00	2	Temperatura media	17.6
22050	7	Sololá	712	San Antonio Palopó	9	San Antonio Palopo	11	Noviembre	2023-11-30T00:00:00	2024-11-08T06:00:00	4	Temperatura máxima	18.1
22051	7	Sololá	712	San Antonio Palopó	9	San Antonio Palopo	11	Noviembre	2023-11-30T00:00:00	2024-11-08T06:00:00	3	Temperatura mínima	17.2
22052	7	Sololá	712	San Antonio Palopó	9	San Antonio Palopo	11	Noviembre	2023-11-30T00:00:00	2024-11-08T06:00:00	5	Humedad	73
22053	7	Sololá	712	San Antonio Palopó	9	San Antonio Palopo	11	Noviembre	2023-11-30T00:00:00	2024-11-08T06:00:00	6	Velocidad del viento	17.7
22054	7	Sololá	712	San Antonio Palopó	9	San Antonio Palopo	11	Noviembre	2023-11-30T00:00:00	2024-11-08T06:00:00	7	Dirección del viento	17.7
22055	7	Sololá	712	San Antonio Palopó	9	San Antonio Palopo	11	Noviembre	2023-11-30T00:00:00	2024-11-08T06:00:00	1	Precipitación	0
22056	7	Sololá	712	San Antonio Palopó	9	San Antonio Palopo	11	Noviembre	2023-11-30T00:00:00	2024-11-08T06:00:00	8	Radiación solar	0
22057	7	Sololá	712	San Antonio Palopó	9	San Antonio Palopo	11	Noviembre	2023-11-30T00:00:00	2024-11-08T07:00:00	2	Temperatura media	18.7
22058	7	Sololá	712	San Antonio Palopó	9	San Antonio Palopo	11	Noviembre	2023-11-30T00:00:00	2024-11-08T07:00:00	4	Temperatura máxima	18.7
22059	7	Sololá	712	San Antonio Palopó	9	San Antonio Palopo	11	Noviembre	2023-11-30T00:00:00	2024-11-08T07:00:00	3	Temperatura mínima	17.6
22060	7	Sololá	712	San Antonio Palopó	9	San Antonio Palopo	11	Noviembre	2023-11-30T00:00:00	2024-11-08T07:00:00	5	Humedad	71
22061	7	Sololá	712	San Antonio Palopó	9	San Antonio Palopo	11	Noviembre	2023-11-30T00:00:00	2024-11-08T07:00:00	6	Velocidad del viento	16.1
22062	7	Sololá	712	San Antonio Palopó	9	San Antonio Palopo	11	Noviembre	2023-11-30T00:00:00	2024-11-08T07:00:00	7	Dirección del viento	16.09
22063	7	Sololá	712	San Antonio Palopó	9	San Antonio Palopo	11	Noviembre	2023-11-30T00:00:00	2024-11-08T07:00:00	1	Precipitación	0
22064	7	Sololá	712	San Antonio Palopó	9	San Antonio Palopo	11	Noviembre	2023-11-30T00:00:00	2024-11-08T07:00:00	8	Radiación solar	7
22065	7	Sololá	712	San Antonio Palopó	9	San Antonio Palopo	11	Noviembre	2023-11-30T00:00:00	2024-11-08T08:00:00	2	Temperatura media	19.5
22066	7	Sololá	712	San Antonio Palopó	9	San Antonio Palopo	11	Noviembre	2023-11-30T00:00:00	2024-11-08T08:00:00	4	Temperatura máxima	19.5
22067	7	Sololá	712	San Antonio Palopó	9	San Antonio Palopo	11	Noviembre	2023-11-30T00:00:00	2024-11-08T08:00:00	3	Temperatura mínima	18.6
22068	7	Sololá	712	San Antonio Palopó	9	San Antonio Palopo	11	Noviembre	2023-11-30T00:00:00	2024-11-08T08:00:00	5	Humedad	69
22069	7	Sololá	712	San Antonio Palopó	9	San Antonio Palopo	11	Noviembre	2023-11-30T00:00:00	2024-11-08T08:00:00	6	Velocidad del viento	12.9
22070	7	Sololá	712	San Antonio Palopó	9	San Antonio Palopo	11	Noviembre	2023-11-30T00:00:00	2024-11-08T08:00:00	7	Dirección del viento	12.87
22071	7	Sololá	712	San Antonio Palopó	9	San Antonio Palopo	11	Noviembre	2023-11-30T00:00:00	2024-11-08T08:00:00	1	Precipitación	0
22072	7	Sololá	712	San Antonio Palopó	9	San Antonio Palopo	11	Noviembre	2023-11-30T00:00:00	2024-11-08T08:00:00	8	Radiación solar	19
22073	7	Sololá	712	San Antonio Palopó	9	San Antonio Palopo	11	Noviembre	2023-11-30T00:00:00	2024-11-08T09:00:00	2	Temperatura media	20.9
22074	7	Sololá	712	San Antonio Palopó	9	San Antonio Palopo	11	Noviembre	2023-11-30T00:00:00	2024-11-08T09:00:00	4	Temperatura máxima	20.9
22075	7	Sololá	712	San Antonio Palopó	9	San Antonio Palopo	11	Noviembre	2023-11-30T00:00:00	2024-11-08T09:00:00	3	Temperatura mínima	19.4
22076	7	Sololá	712	San Antonio Palopó	9	San Antonio Palopo	11	Noviembre	2023-11-30T00:00:00	2024-11-08T09:00:00	5	Humedad	66
22077	7	Sololá	712	San Antonio Palopó	9	San Antonio Palopo	11	Noviembre	2023-11-30T00:00:00	2024-11-08T09:00:00	6	Velocidad del viento	17.7
22078	7	Sololá	712	San Antonio Palopó	9	San Antonio Palopo	11	Noviembre	2023-11-30T00:00:00	2024-11-08T09:00:00	7	Dirección del viento	17.7
22079	7	Sololá	712	San Antonio Palopó	9	San Antonio Palopo	11	Noviembre	2023-11-30T00:00:00	2024-11-08T09:00:00	1	Precipitación	0
22080	7	Sololá	712	San Antonio Palopó	9	San Antonio Palopo	11	Noviembre	2023-11-30T00:00:00	2024-11-08T09:00:00	8	Radiación solar	256
22081	7	Sololá	712	San Antonio Palopó	9	San Antonio Palopo	11	Noviembre	2023-11-30T00:00:00	2024-11-08T10:00:00	2	Temperatura media	22.8
22082	7	Sololá	712	San Antonio Palopó	9	San Antonio Palopo	11	Noviembre	2023-11-30T00:00:00	2024-11-08T10:00:00	4	Temperatura máxima	22.8
22083	7	Sololá	712	San Antonio Palopó	9	San Antonio Palopo	11	Noviembre	2023-11-30T00:00:00	2024-11-08T10:00:00	3	Temperatura mínima	20.9
22084	7	Sololá	712	San Antonio Palopó	9	San Antonio Palopo	11	Noviembre	2023-11-30T00:00:00	2024-11-08T10:00:00	5	Humedad	61
22085	7	Sololá	712	San Antonio Palopó	9	San Antonio Palopo	11	Noviembre	2023-11-30T00:00:00	2024-11-08T10:00:00	6	Velocidad del viento	8
22086	7	Sololá	712	San Antonio Palopó	9	San Antonio Palopo	11	Noviembre	2023-11-30T00:00:00	2024-11-08T10:00:00	7	Dirección del viento	8.05
22087	7	Sololá	712	San Antonio Palopó	9	San Antonio Palopo	11	Noviembre	2023-11-30T00:00:00	2024-11-08T10:00:00	1	Precipitación	0
22088	7	Sololá	712	San Antonio Palopó	9	San Antonio Palopo	11	Noviembre	2023-11-30T00:00:00	2024-11-08T10:00:00	8	Radiación solar	558
22089	7	Sololá	712	San Antonio Palopó	9	San Antonio Palopo	11	Noviembre	2023-11-30T00:00:00	2024-11-08T11:00:00	2	Temperatura media	24.2
22090	7	Sololá	712	San Antonio Palopó	9	San Antonio Palopo	11	Noviembre	2023-11-30T00:00:00	2024-11-08T11:00:00	4	Temperatura máxima	24.6
22091	7	Sololá	712	San Antonio Palopó	9	San Antonio Palopo	11	Noviembre	2023-11-30T00:00:00	2024-11-08T11:00:00	3	Temperatura mínima	22.9
22092	7	Sololá	712	San Antonio Palopó	9	San Antonio Palopo	11	Noviembre	2023-11-30T00:00:00	2024-11-08T11:00:00	5	Humedad	56
22093	7	Sololá	712	San Antonio Palopó	9	San Antonio Palopo	11	Noviembre	2023-11-30T00:00:00	2024-11-08T11:00:00	6	Velocidad del viento	9.7
22094	7	Sololá	712	San Antonio Palopó	9	San Antonio Palopo	11	Noviembre	2023-11-30T00:00:00	2024-11-08T11:00:00	7	Dirección del viento	9.66
22095	7	Sololá	712	San Antonio Palopó	9	San Antonio Palopo	11	Noviembre	2023-11-30T00:00:00	2024-11-08T11:00:00	1	Precipitación	0
22096	7	Sololá	712	San Antonio Palopó	9	San Antonio Palopo	11	Noviembre	2023-11-30T00:00:00	2024-11-08T11:00:00	8	Radiación solar	680
22097	7	Sololá	712	San Antonio Palopó	9	San Antonio Palopo	11	Noviembre	2023-11-30T00:00:00	2024-11-08T12:00:00	2	Temperatura media	24.7
22098	7	Sololá	712	San Antonio Palopó	9	San Antonio Palopo	11	Noviembre	2023-11-30T00:00:00	2024-11-08T12:00:00	4	Temperatura máxima	24.9
22099	7	Sololá	712	San Antonio Palopó	9	San Antonio Palopo	11	Noviembre	2023-11-30T00:00:00	2024-11-08T12:00:00	3	Temperatura mínima	23.9
22100	7	Sololá	712	San Antonio Palopó	9	San Antonio Palopo	11	Noviembre	2023-11-30T00:00:00	2024-11-08T12:00:00	5	Humedad	56
22101	7	Sololá	712	San Antonio Palopó	9	San Antonio Palopo	11	Noviembre	2023-11-30T00:00:00	2024-11-08T12:00:00	6	Velocidad del viento	11.3
22102	7	Sololá	712	San Antonio Palopó	9	San Antonio Palopo	11	Noviembre	2023-11-30T00:00:00	2024-11-08T12:00:00	7	Dirección del viento	11.27
22103	7	Sololá	712	San Antonio Palopó	9	San Antonio Palopo	11	Noviembre	2023-11-30T00:00:00	2024-11-08T12:00:00	1	Precipitación	0
22104	7	Sololá	712	San Antonio Palopó	9	San Antonio Palopo	11	Noviembre	2023-11-30T00:00:00	2024-11-08T12:00:00	8	Radiación solar	665
22105	7	Sololá	712	San Antonio Palopó	9	San Antonio Palopo	11	Noviembre	2023-11-30T00:00:00	2024-11-08T13:00:00	2	Temperatura media	25.1
22106	7	Sololá	712	San Antonio Palopó	9	San Antonio Palopo	11	Noviembre	2023-11-30T00:00:00	2024-11-08T13:00:00	4	Temperatura máxima	25.6
22107	7	Sololá	712	San Antonio Palopó	9	San Antonio Palopo	11	Noviembre	2023-11-30T00:00:00	2024-11-08T13:00:00	3	Temperatura mínima	24.6
22108	7	Sololá	712	San Antonio Palopó	9	San Antonio Palopo	11	Noviembre	2023-11-30T00:00:00	2024-11-08T13:00:00	5	Humedad	60
22109	7	Sololá	712	San Antonio Palopó	9	San Antonio Palopo	11	Noviembre	2023-11-30T00:00:00	2024-11-08T13:00:00	6	Velocidad del viento	9.7
22110	7	Sololá	712	San Antonio Palopó	9	San Antonio Palopo	11	Noviembre	2023-11-30T00:00:00	2024-11-08T13:00:00	7	Dirección del viento	9.66
22111	7	Sololá	712	San Antonio Palopó	9	San Antonio Palopo	11	Noviembre	2023-11-30T00:00:00	2024-11-08T13:00:00	1	Precipitación	0
22112	7	Sololá	712	San Antonio Palopó	9	San Antonio Palopo	11	Noviembre	2023-11-30T00:00:00	2024-11-08T13:00:00	8	Radiación solar	751
22113	7	Sololá	712	San Antonio Palopó	9	San Antonio Palopo	11	Noviembre	2023-11-30T00:00:00	2024-11-08T14:00:00	2	Temperatura media	23.6
22114	7	Sololá	712	San Antonio Palopó	9	San Antonio Palopo	11	Noviembre	2023-11-30T00:00:00	2024-11-08T14:00:00	4	Temperatura máxima	25.1
22115	7	Sololá	712	San Antonio Palopó	9	San Antonio Palopo	11	Noviembre	2023-11-30T00:00:00	2024-11-08T14:00:00	3	Temperatura mínima	23.1
22116	7	Sololá	712	San Antonio Palopó	9	San Antonio Palopo	11	Noviembre	2023-11-30T00:00:00	2024-11-08T14:00:00	5	Humedad	69
22117	7	Sololá	712	San Antonio Palopó	9	San Antonio Palopo	11	Noviembre	2023-11-30T00:00:00	2024-11-08T14:00:00	6	Velocidad del viento	14.5
22118	7	Sololá	712	San Antonio Palopó	9	San Antonio Palopo	11	Noviembre	2023-11-30T00:00:00	2024-11-08T14:00:00	7	Dirección del viento	14.48
22119	7	Sololá	712	San Antonio Palopó	9	San Antonio Palopo	11	Noviembre	2023-11-30T00:00:00	2024-11-08T14:00:00	1	Precipitación	0
22120	7	Sololá	712	San Antonio Palopó	9	San Antonio Palopo	11	Noviembre	2023-11-30T00:00:00	2024-11-08T14:00:00	8	Radiación solar	684
22121	7	Sololá	712	San Antonio Palopó	9	San Antonio Palopo	11	Noviembre	2023-11-30T00:00:00	2024-11-08T15:00:00	2	Temperatura media	23.9
22122	7	Sololá	712	San Antonio Palopó	9	San Antonio Palopo	11	Noviembre	2023-11-30T00:00:00	2024-11-08T15:00:00	4	Temperatura máxima	24.3
22123	7	Sololá	712	San Antonio Palopó	9	San Antonio Palopo	11	Noviembre	2023-11-30T00:00:00	2024-11-08T15:00:00	3	Temperatura mínima	23.3
22124	7	Sololá	712	San Antonio Palopó	9	San Antonio Palopo	11	Noviembre	2023-11-30T00:00:00	2024-11-08T15:00:00	5	Humedad	70
22125	7	Sololá	712	San Antonio Palopó	9	San Antonio Palopo	11	Noviembre	2023-11-30T00:00:00	2024-11-08T15:00:00	6	Velocidad del viento	14.5
22126	7	Sololá	712	San Antonio Palopó	9	San Antonio Palopo	11	Noviembre	2023-11-30T00:00:00	2024-11-08T15:00:00	7	Dirección del viento	14.48
22127	7	Sololá	712	San Antonio Palopó	9	San Antonio Palopo	11	Noviembre	2023-11-30T00:00:00	2024-11-08T15:00:00	1	Precipitación	0
22128	7	Sololá	712	San Antonio Palopó	9	San Antonio Palopo	11	Noviembre	2023-11-30T00:00:00	2024-11-08T15:00:00	8	Radiación solar	538
22129	7	Sololá	712	San Antonio Palopó	9	San Antonio Palopo	11	Noviembre	2023-11-30T00:00:00	2024-11-08T16:00:00	2	Temperatura media	22.7
22130	7	Sololá	712	San Antonio Palopó	9	San Antonio Palopo	11	Noviembre	2023-11-30T00:00:00	2024-11-08T16:00:00	4	Temperatura máxima	24.5
22131	7	Sololá	712	San Antonio Palopó	9	San Antonio Palopo	11	Noviembre	2023-11-30T00:00:00	2024-11-08T16:00:00	3	Temperatura mínima	22.6
22132	7	Sololá	712	San Antonio Palopó	9	San Antonio Palopo	11	Noviembre	2023-11-30T00:00:00	2024-11-08T16:00:00	5	Humedad	76
22133	7	Sololá	712	San Antonio Palopó	9	San Antonio Palopo	11	Noviembre	2023-11-30T00:00:00	2024-11-08T16:00:00	6	Velocidad del viento	11.3
22134	7	Sololá	712	San Antonio Palopó	9	San Antonio Palopo	11	Noviembre	2023-11-30T00:00:00	2024-11-08T16:00:00	7	Dirección del viento	11.27
22135	7	Sololá	712	San Antonio Palopó	9	San Antonio Palopo	11	Noviembre	2023-11-30T00:00:00	2024-11-08T16:00:00	1	Precipitación	0
22136	7	Sololá	712	San Antonio Palopó	9	San Antonio Palopo	11	Noviembre	2023-11-30T00:00:00	2024-11-08T16:00:00	8	Radiación solar	338
22137	7	Sololá	712	San Antonio Palopó	9	San Antonio Palopo	11	Noviembre	2023-11-30T00:00:00	2024-11-08T17:00:00	2	Temperatura media	21.9
22138	7	Sololá	712	San Antonio Palopó	9	San Antonio Palopo	11	Noviembre	2023-11-30T00:00:00	2024-11-08T17:00:00	4	Temperatura máxima	22.7
22139	7	Sololá	712	San Antonio Palopó	9	San Antonio Palopo	11	Noviembre	2023-11-30T00:00:00	2024-11-08T17:00:00	3	Temperatura mínima	21.6
22140	7	Sololá	712	San Antonio Palopó	9	San Antonio Palopo	11	Noviembre	2023-11-30T00:00:00	2024-11-08T17:00:00	5	Humedad	76
22141	7	Sololá	712	San Antonio Palopó	9	San Antonio Palopo	11	Noviembre	2023-11-30T00:00:00	2024-11-08T17:00:00	6	Velocidad del viento	8
22142	7	Sololá	712	San Antonio Palopó	9	San Antonio Palopo	11	Noviembre	2023-11-30T00:00:00	2024-11-08T17:00:00	7	Dirección del viento	8.05
22143	7	Sololá	712	San Antonio Palopó	9	San Antonio Palopo	11	Noviembre	2023-11-30T00:00:00	2024-11-08T17:00:00	1	Precipitación	0
22144	7	Sololá	712	San Antonio Palopó	9	San Antonio Palopo	11	Noviembre	2023-11-30T00:00:00	2024-11-08T17:00:00	8	Radiación solar	153
22145	7	Sololá	712	San Antonio Palopó	9	San Antonio Palopo	11	Noviembre	2023-11-30T00:00:00	2024-11-08T18:00:00	2	Temperatura media	20.7
22146	7	Sololá	712	San Antonio Palopó	9	San Antonio Palopo	11	Noviembre	2023-11-30T00:00:00	2024-11-08T18:00:00	4	Temperatura máxima	22.1
22147	7	Sololá	712	San Antonio Palopó	9	San Antonio Palopo	11	Noviembre	2023-11-30T00:00:00	2024-11-08T18:00:00	3	Temperatura mínima	20.7
22148	7	Sololá	712	San Antonio Palopó	9	San Antonio Palopo	11	Noviembre	2023-11-30T00:00:00	2024-11-08T18:00:00	5	Humedad	80
22149	7	Sololá	712	San Antonio Palopó	9	San Antonio Palopo	11	Noviembre	2023-11-30T00:00:00	2024-11-08T18:00:00	6	Velocidad del viento	3.2
22150	7	Sololá	712	San Antonio Palopó	9	San Antonio Palopo	11	Noviembre	2023-11-30T00:00:00	2024-11-08T18:00:00	7	Dirección del viento	3.22
22151	7	Sololá	712	San Antonio Palopó	9	San Antonio Palopo	11	Noviembre	2023-11-30T00:00:00	2024-11-08T18:00:00	1	Precipitación	0
22152	7	Sololá	712	San Antonio Palopó	9	San Antonio Palopo	11	Noviembre	2023-11-30T00:00:00	2024-11-08T18:00:00	8	Radiación solar	20
22153	7	Sololá	712	San Antonio Palopó	9	San Antonio Palopo	11	Noviembre	2023-11-30T00:00:00	2024-11-08T19:00:00	2	Temperatura media	20
22154	7	Sololá	712	San Antonio Palopó	9	San Antonio Palopo	11	Noviembre	2023-11-30T00:00:00	2024-11-08T19:00:00	4	Temperatura máxima	20.7
22155	7	Sololá	712	San Antonio Palopó	9	San Antonio Palopo	11	Noviembre	2023-11-30T00:00:00	2024-11-08T19:00:00	3	Temperatura mínima	20
22156	7	Sololá	712	San Antonio Palopó	9	San Antonio Palopo	11	Noviembre	2023-11-30T00:00:00	2024-11-08T19:00:00	5	Humedad	77
22157	7	Sololá	712	San Antonio Palopó	9	San Antonio Palopo	11	Noviembre	2023-11-30T00:00:00	2024-11-08T19:00:00	6	Velocidad del viento	1.6
22158	7	Sololá	712	San Antonio Palopó	9	San Antonio Palopo	11	Noviembre	2023-11-30T00:00:00	2024-11-08T19:00:00	7	Dirección del viento	1.61
22159	7	Sololá	712	San Antonio Palopó	9	San Antonio Palopo	11	Noviembre	2023-11-30T00:00:00	2024-11-08T19:00:00	1	Precipitación	0
22160	7	Sololá	712	San Antonio Palopó	9	San Antonio Palopo	11	Noviembre	2023-11-30T00:00:00	2024-11-08T19:00:00	8	Radiación solar	0
22161	7	Sololá	712	San Antonio Palopó	9	San Antonio Palopo	11	Noviembre	2023-11-30T00:00:00	2024-11-08T20:00:00	2	Temperatura media	19.7
22162	7	Sololá	712	San Antonio Palopó	9	San Antonio Palopo	11	Noviembre	2023-11-30T00:00:00	2024-11-08T20:00:00	4	Temperatura máxima	20
22163	7	Sololá	712	San Antonio Palopó	9	San Antonio Palopo	11	Noviembre	2023-11-30T00:00:00	2024-11-08T20:00:00	3	Temperatura mínima	19.4
22164	7	Sololá	712	San Antonio Palopó	9	San Antonio Palopo	11	Noviembre	2023-11-30T00:00:00	2024-11-08T20:00:00	5	Humedad	74
22165	7	Sololá	712	San Antonio Palopó	9	San Antonio Palopo	11	Noviembre	2023-11-30T00:00:00	2024-11-08T20:00:00	6	Velocidad del viento	3.2
22166	7	Sololá	712	San Antonio Palopó	9	San Antonio Palopo	11	Noviembre	2023-11-30T00:00:00	2024-11-08T20:00:00	7	Dirección del viento	3.22
22167	7	Sololá	712	San Antonio Palopó	9	San Antonio Palopo	11	Noviembre	2023-11-30T00:00:00	2024-11-08T20:00:00	1	Precipitación	0
22168	7	Sololá	712	San Antonio Palopó	9	San Antonio Palopo	11	Noviembre	2023-11-30T00:00:00	2024-11-08T20:00:00	8	Radiación solar	0
22169	7	Sololá	712	San Antonio Palopó	9	San Antonio Palopo	11	Noviembre	2023-11-30T00:00:00	2024-11-08T21:00:00	2	Temperatura media	19.6
22170	7	Sololá	712	San Antonio Palopó	9	San Antonio Palopo	11	Noviembre	2023-11-30T00:00:00	2024-11-08T21:00:00	4	Temperatura máxima	19.9
22171	7	Sololá	712	San Antonio Palopó	9	San Antonio Palopo	11	Noviembre	2023-11-30T00:00:00	2024-11-08T21:00:00	3	Temperatura mínima	19.6
22172	7	Sololá	712	San Antonio Palopó	9	San Antonio Palopo	11	Noviembre	2023-11-30T00:00:00	2024-11-08T21:00:00	5	Humedad	73
22173	7	Sololá	712	San Antonio Palopó	9	San Antonio Palopo	11	Noviembre	2023-11-30T00:00:00	2024-11-08T21:00:00	6	Velocidad del viento	6.4
22174	7	Sololá	712	San Antonio Palopó	9	San Antonio Palopo	11	Noviembre	2023-11-30T00:00:00	2024-11-08T21:00:00	7	Dirección del viento	6.44
22175	7	Sololá	712	San Antonio Palopó	9	San Antonio Palopo	11	Noviembre	2023-11-30T00:00:00	2024-11-08T21:00:00	1	Precipitación	0
22176	7	Sololá	712	San Antonio Palopó	9	San Antonio Palopo	11	Noviembre	2023-11-30T00:00:00	2024-11-08T21:00:00	8	Radiación solar	0
22177	7	Sololá	712	San Antonio Palopó	9	San Antonio Palopo	11	Noviembre	2023-11-30T00:00:00	2024-11-08T22:00:00	2	Temperatura media	18.9
22178	7	Sololá	712	San Antonio Palopó	9	San Antonio Palopo	11	Noviembre	2023-11-30T00:00:00	2024-11-08T22:00:00	4	Temperatura máxima	19.6
22179	7	Sololá	712	San Antonio Palopó	9	San Antonio Palopo	11	Noviembre	2023-11-30T00:00:00	2024-11-08T22:00:00	3	Temperatura mínima	18.9
22180	7	Sololá	712	San Antonio Palopó	9	San Antonio Palopo	11	Noviembre	2023-11-30T00:00:00	2024-11-08T22:00:00	5	Humedad	73
22181	7	Sololá	712	San Antonio Palopó	9	San Antonio Palopo	11	Noviembre	2023-11-30T00:00:00	2024-11-08T22:00:00	6	Velocidad del viento	9.7
22182	7	Sololá	712	San Antonio Palopó	9	San Antonio Palopo	11	Noviembre	2023-11-30T00:00:00	2024-11-08T22:00:00	7	Dirección del viento	9.66
22183	7	Sololá	712	San Antonio Palopó	9	San Antonio Palopo	11	Noviembre	2023-11-30T00:00:00	2024-11-08T22:00:00	1	Precipitación	0
22184	7	Sololá	712	San Antonio Palopó	9	San Antonio Palopo	11	Noviembre	2023-11-30T00:00:00	2024-11-08T22:00:00	8	Radiación solar	0
22185	7	Sololá	712	San Antonio Palopó	9	San Antonio Palopo	11	Noviembre	2023-11-30T00:00:00	2024-11-08T23:00:00	2	Temperatura media	18.8
22186	7	Sololá	712	San Antonio Palopó	9	San Antonio Palopo	11	Noviembre	2023-11-30T00:00:00	2024-11-08T23:00:00	4	Temperatura máxima	19.2
22187	7	Sololá	712	San Antonio Palopó	9	San Antonio Palopo	11	Noviembre	2023-11-30T00:00:00	2024-11-08T23:00:00	3	Temperatura mínima	18.8
22188	7	Sololá	712	San Antonio Palopó	9	San Antonio Palopo	11	Noviembre	2023-11-30T00:00:00	2024-11-08T23:00:00	5	Humedad	71
22189	7	Sololá	712	San Antonio Palopó	9	San Antonio Palopo	11	Noviembre	2023-11-30T00:00:00	2024-11-08T23:00:00	6	Velocidad del viento	9.7
22190	7	Sololá	712	San Antonio Palopó	9	San Antonio Palopo	11	Noviembre	2023-11-30T00:00:00	2024-11-08T23:00:00	7	Dirección del viento	9.66
22191	7	Sololá	712	San Antonio Palopó	9	San Antonio Palopo	11	Noviembre	2023-11-30T00:00:00	2024-11-08T23:00:00	1	Precipitación	0
22192	7	Sololá	712	San Antonio Palopó	9	San Antonio Palopo	11	Noviembre	2023-11-30T00:00:00	2024-11-08T23:00:00	8	Radiación solar	0
22193	7	Sololá	712	San Antonio Palopó	9	San Antonio Palopo	12	Diciembre	2023-01-12T00:00:00	2024-11-08T00:00:00	2	Temperatura media	18.2
22194	7	Sololá	712	San Antonio Palopó	9	San Antonio Palopo	12	Diciembre	2023-01-12T00:00:00	2024-11-08T00:00:00	4	Temperatura máxima	18.8
22195	7	Sololá	712	San Antonio Palopó	9	San Antonio Palopo	12	Diciembre	2023-01-12T00:00:00	2024-11-08T00:00:00	3	Temperatura mínima	18.2
22196	7	Sololá	712	San Antonio Palopó	9	San Antonio Palopo	12	Diciembre	2023-01-12T00:00:00	2024-11-08T00:00:00	5	Humedad	74
22197	7	Sololá	712	San Antonio Palopó	9	San Antonio Palopo	12	Diciembre	2023-01-12T00:00:00	2024-11-08T00:00:00	6	Velocidad del viento	3.2
22198	7	Sololá	712	San Antonio Palopó	9	San Antonio Palopo	12	Diciembre	2023-01-12T00:00:00	2024-11-08T00:00:00	7	Dirección del viento	3.22
22199	7	Sololá	712	San Antonio Palopó	9	San Antonio Palopo	12	Diciembre	2023-01-12T00:00:00	2024-11-08T00:00:00	1	Precipitación	0
22200	7	Sololá	712	San Antonio Palopó	9	San Antonio Palopo	12	Diciembre	2023-01-12T00:00:00	2024-11-08T00:00:00	8	Radiación solar	0
22201	7	Sololá	712	San Antonio Palopó	9	San Antonio Palopo	12	Diciembre	2023-01-12T00:00:00	2024-11-08T01:00:00	2	Temperatura media	18.1
22202	7	Sololá	712	San Antonio Palopó	9	San Antonio Palopo	12	Diciembre	2023-01-12T00:00:00	2024-11-08T01:00:00	4	Temperatura máxima	18.3
22203	7	Sololá	712	San Antonio Palopó	9	San Antonio Palopo	12	Diciembre	2023-01-12T00:00:00	2024-11-08T01:00:00	3	Temperatura mínima	17.9
22204	7	Sololá	712	San Antonio Palopó	9	San Antonio Palopo	12	Diciembre	2023-01-12T00:00:00	2024-11-08T01:00:00	5	Humedad	75
22205	7	Sololá	712	San Antonio Palopó	9	San Antonio Palopo	12	Diciembre	2023-01-12T00:00:00	2024-11-08T01:00:00	6	Velocidad del viento	3.2
22206	7	Sololá	712	San Antonio Palopó	9	San Antonio Palopo	12	Diciembre	2023-01-12T00:00:00	2024-11-08T01:00:00	7	Dirección del viento	3.22
22207	7	Sololá	712	San Antonio Palopó	9	San Antonio Palopo	12	Diciembre	2023-01-12T00:00:00	2024-11-08T01:00:00	1	Precipitación	0
22208	7	Sololá	712	San Antonio Palopó	9	San Antonio Palopo	12	Diciembre	2023-01-12T00:00:00	2024-11-08T01:00:00	8	Radiación solar	0
22209	7	Sololá	712	San Antonio Palopó	9	San Antonio Palopo	12	Diciembre	2023-01-12T00:00:00	2024-11-08T02:00:00	2	Temperatura media	16.8
22210	7	Sololá	712	San Antonio Palopó	9	San Antonio Palopo	12	Diciembre	2023-01-12T00:00:00	2024-11-08T02:00:00	4	Temperatura máxima	18.1
22211	7	Sololá	712	San Antonio Palopó	9	San Antonio Palopo	12	Diciembre	2023-01-12T00:00:00	2024-11-08T02:00:00	3	Temperatura mínima	16.8
22212	7	Sololá	712	San Antonio Palopó	9	San Antonio Palopo	12	Diciembre	2023-01-12T00:00:00	2024-11-08T02:00:00	5	Humedad	76
22213	7	Sololá	712	San Antonio Palopó	9	San Antonio Palopo	12	Diciembre	2023-01-12T00:00:00	2024-11-08T02:00:00	6	Velocidad del viento	3.2
22214	7	Sololá	712	San Antonio Palopó	9	San Antonio Palopo	12	Diciembre	2023-01-12T00:00:00	2024-11-08T02:00:00	7	Dirección del viento	3.22
22215	7	Sololá	712	San Antonio Palopó	9	San Antonio Palopo	12	Diciembre	2023-01-12T00:00:00	2024-11-08T02:00:00	1	Precipitación	0
22216	7	Sololá	712	San Antonio Palopó	9	San Antonio Palopo	12	Diciembre	2023-01-12T00:00:00	2024-11-08T02:00:00	8	Radiación solar	0
22217	7	Sololá	712	San Antonio Palopó	9	San Antonio Palopo	12	Diciembre	2023-01-12T00:00:00	2024-11-08T03:00:00	2	Temperatura media	16.3
22218	7	Sololá	712	San Antonio Palopó	9	San Antonio Palopo	12	Diciembre	2023-01-12T00:00:00	2024-11-08T03:00:00	4	Temperatura máxima	16.8
22219	7	Sololá	712	San Antonio Palopó	9	San Antonio Palopo	12	Diciembre	2023-01-12T00:00:00	2024-11-08T03:00:00	3	Temperatura mínima	16.3
22220	7	Sololá	712	San Antonio Palopó	9	San Antonio Palopo	12	Diciembre	2023-01-12T00:00:00	2024-11-08T03:00:00	5	Humedad	74
22221	7	Sololá	712	San Antonio Palopó	9	San Antonio Palopo	12	Diciembre	2023-01-12T00:00:00	2024-11-08T03:00:00	6	Velocidad del viento	3.2
22222	7	Sololá	712	San Antonio Palopó	9	San Antonio Palopo	12	Diciembre	2023-01-12T00:00:00	2024-11-08T03:00:00	7	Dirección del viento	3.22
22223	7	Sololá	712	San Antonio Palopó	9	San Antonio Palopo	12	Diciembre	2023-01-12T00:00:00	2024-11-08T03:00:00	1	Precipitación	0
22224	7	Sololá	712	San Antonio Palopó	9	San Antonio Palopo	12	Diciembre	2023-01-12T00:00:00	2024-11-08T03:00:00	8	Radiación solar	0
22225	7	Sololá	712	San Antonio Palopó	9	San Antonio Palopo	12	Diciembre	2023-01-12T00:00:00	2024-11-08T04:00:00	2	Temperatura media	16.3
22226	7	Sololá	712	San Antonio Palopó	9	San Antonio Palopo	12	Diciembre	2023-01-12T00:00:00	2024-11-08T04:00:00	4	Temperatura máxima	16.6
22227	7	Sololá	712	San Antonio Palopó	9	San Antonio Palopo	12	Diciembre	2023-01-12T00:00:00	2024-11-08T04:00:00	3	Temperatura mínima	16.2
22228	7	Sololá	712	San Antonio Palopó	9	San Antonio Palopo	12	Diciembre	2023-01-12T00:00:00	2024-11-08T04:00:00	5	Humedad	74
22229	7	Sololá	712	San Antonio Palopó	9	San Antonio Palopo	12	Diciembre	2023-01-12T00:00:00	2024-11-08T04:00:00	6	Velocidad del viento	4.8
22230	7	Sololá	712	San Antonio Palopó	9	San Antonio Palopo	12	Diciembre	2023-01-12T00:00:00	2024-11-08T04:00:00	7	Dirección del viento	4.83
22231	7	Sololá	712	San Antonio Palopó	9	San Antonio Palopo	12	Diciembre	2023-01-12T00:00:00	2024-11-08T04:00:00	1	Precipitación	0
22232	7	Sololá	712	San Antonio Palopó	9	San Antonio Palopo	12	Diciembre	2023-01-12T00:00:00	2024-11-08T04:00:00	8	Radiación solar	0
22233	7	Sololá	712	San Antonio Palopó	9	San Antonio Palopo	12	Diciembre	2023-01-12T00:00:00	2024-11-08T05:00:00	2	Temperatura media	16.1
22234	7	Sololá	712	San Antonio Palopó	9	San Antonio Palopo	12	Diciembre	2023-01-12T00:00:00	2024-11-08T05:00:00	4	Temperatura máxima	16.3
22235	7	Sololá	712	San Antonio Palopó	9	San Antonio Palopo	12	Diciembre	2023-01-12T00:00:00	2024-11-08T05:00:00	3	Temperatura mínima	16
22236	7	Sololá	712	San Antonio Palopó	9	San Antonio Palopo	12	Diciembre	2023-01-12T00:00:00	2024-11-08T05:00:00	5	Humedad	72
22237	7	Sololá	712	San Antonio Palopó	9	San Antonio Palopo	12	Diciembre	2023-01-12T00:00:00	2024-11-08T05:00:00	6	Velocidad del viento	4.8
22238	7	Sololá	712	San Antonio Palopó	9	San Antonio Palopo	12	Diciembre	2023-01-12T00:00:00	2024-11-08T05:00:00	7	Dirección del viento	4.83
22239	7	Sololá	712	San Antonio Palopó	9	San Antonio Palopo	12	Diciembre	2023-01-12T00:00:00	2024-11-08T05:00:00	1	Precipitación	0
22240	7	Sololá	712	San Antonio Palopó	9	San Antonio Palopo	12	Diciembre	2023-01-12T00:00:00	2024-11-08T05:00:00	8	Radiación solar	0
22241	7	Sololá	712	San Antonio Palopó	9	San Antonio Palopo	12	Diciembre	2023-01-12T00:00:00	2024-11-08T06:00:00	2	Temperatura media	15.7
22242	7	Sololá	712	San Antonio Palopó	9	San Antonio Palopo	12	Diciembre	2023-01-12T00:00:00	2024-11-08T06:00:00	4	Temperatura máxima	16.1
22243	7	Sololá	712	San Antonio Palopó	9	San Antonio Palopo	12	Diciembre	2023-01-12T00:00:00	2024-11-08T06:00:00	3	Temperatura mínima	15.7
22244	7	Sololá	712	San Antonio Palopó	9	San Antonio Palopo	12	Diciembre	2023-01-12T00:00:00	2024-11-08T06:00:00	5	Humedad	73
22245	7	Sololá	712	San Antonio Palopó	9	San Antonio Palopo	12	Diciembre	2023-01-12T00:00:00	2024-11-08T06:00:00	6	Velocidad del viento	4.8
22246	7	Sololá	712	San Antonio Palopó	9	San Antonio Palopo	12	Diciembre	2023-01-12T00:00:00	2024-11-08T06:00:00	7	Dirección del viento	4.83
22247	7	Sololá	712	San Antonio Palopó	9	San Antonio Palopo	12	Diciembre	2023-01-12T00:00:00	2024-11-08T06:00:00	1	Precipitación	0
22248	7	Sololá	712	San Antonio Palopó	9	San Antonio Palopo	12	Diciembre	2023-01-12T00:00:00	2024-11-08T06:00:00	8	Radiación solar	0
22249	7	Sololá	712	San Antonio Palopó	9	San Antonio Palopo	12	Diciembre	2023-01-12T00:00:00	2024-11-08T07:00:00	2	Temperatura media	15.9
22250	7	Sololá	712	San Antonio Palopó	9	San Antonio Palopo	12	Diciembre	2023-01-12T00:00:00	2024-11-08T07:00:00	4	Temperatura máxima	15.9
22251	7	Sololá	712	San Antonio Palopó	9	San Antonio Palopo	12	Diciembre	2023-01-12T00:00:00	2024-11-08T07:00:00	3	Temperatura mínima	15.7
22252	7	Sololá	712	San Antonio Palopó	9	San Antonio Palopo	12	Diciembre	2023-01-12T00:00:00	2024-11-08T07:00:00	5	Humedad	73
22253	7	Sololá	712	San Antonio Palopó	9	San Antonio Palopo	12	Diciembre	2023-01-12T00:00:00	2024-11-08T07:00:00	6	Velocidad del viento	4.8
22254	7	Sololá	712	San Antonio Palopó	9	San Antonio Palopo	12	Diciembre	2023-01-12T00:00:00	2024-11-08T07:00:00	7	Dirección del viento	4.83
22255	7	Sololá	712	San Antonio Palopó	9	San Antonio Palopo	12	Diciembre	2023-01-12T00:00:00	2024-11-08T07:00:00	1	Precipitación	0
22256	7	Sololá	712	San Antonio Palopó	9	San Antonio Palopo	12	Diciembre	2023-01-12T00:00:00	2024-11-08T07:00:00	8	Radiación solar	7
22257	7	Sololá	712	San Antonio Palopó	9	San Antonio Palopo	12	Diciembre	2023-01-12T00:00:00	2024-11-08T08:00:00	2	Temperatura media	16.1
22258	7	Sololá	712	San Antonio Palopó	9	San Antonio Palopo	12	Diciembre	2023-01-12T00:00:00	2024-11-08T08:00:00	4	Temperatura máxima	16.3
22259	7	Sololá	712	San Antonio Palopó	9	San Antonio Palopo	12	Diciembre	2023-01-12T00:00:00	2024-11-08T08:00:00	3	Temperatura mínima	15.8
22260	7	Sololá	712	San Antonio Palopó	9	San Antonio Palopo	12	Diciembre	2023-01-12T00:00:00	2024-11-08T08:00:00	5	Humedad	75
22261	7	Sololá	712	San Antonio Palopó	9	San Antonio Palopo	12	Diciembre	2023-01-12T00:00:00	2024-11-08T08:00:00	6	Velocidad del viento	3.2
22262	7	Sololá	712	San Antonio Palopó	9	San Antonio Palopo	12	Diciembre	2023-01-12T00:00:00	2024-11-08T08:00:00	7	Dirección del viento	3.22
22263	7	Sololá	712	San Antonio Palopó	9	San Antonio Palopo	12	Diciembre	2023-01-12T00:00:00	2024-11-08T08:00:00	1	Precipitación	0
22264	7	Sololá	712	San Antonio Palopó	9	San Antonio Palopo	12	Diciembre	2023-01-12T00:00:00	2024-11-08T08:00:00	8	Radiación solar	19
22265	7	Sololá	712	San Antonio Palopó	9	San Antonio Palopo	12	Diciembre	2023-01-12T00:00:00	2024-11-08T09:00:00	2	Temperatura media	19.2
22266	7	Sololá	712	San Antonio Palopó	9	San Antonio Palopo	12	Diciembre	2023-01-12T00:00:00	2024-11-08T09:00:00	4	Temperatura máxima	19.2
22267	7	Sololá	712	San Antonio Palopó	9	San Antonio Palopo	12	Diciembre	2023-01-12T00:00:00	2024-11-08T09:00:00	3	Temperatura mínima	16.1
22268	7	Sololá	712	San Antonio Palopó	9	San Antonio Palopo	12	Diciembre	2023-01-12T00:00:00	2024-11-08T09:00:00	5	Humedad	69
22269	7	Sololá	712	San Antonio Palopó	9	San Antonio Palopo	12	Diciembre	2023-01-12T00:00:00	2024-11-08T09:00:00	6	Velocidad del viento	3.2
22270	7	Sololá	712	San Antonio Palopó	9	San Antonio Palopo	12	Diciembre	2023-01-12T00:00:00	2024-11-08T09:00:00	7	Dirección del viento	3.22
22271	7	Sololá	712	San Antonio Palopó	9	San Antonio Palopo	12	Diciembre	2023-01-12T00:00:00	2024-11-08T09:00:00	1	Precipitación	0
22272	7	Sololá	712	San Antonio Palopó	9	San Antonio Palopo	12	Diciembre	2023-01-12T00:00:00	2024-11-08T09:00:00	8	Radiación solar	247
22273	7	Sololá	712	San Antonio Palopó	9	San Antonio Palopo	12	Diciembre	2023-01-12T00:00:00	2024-11-08T10:00:00	2	Temperatura media	20.8
22274	7	Sololá	712	San Antonio Palopó	9	San Antonio Palopo	12	Diciembre	2023-01-12T00:00:00	2024-11-08T10:00:00	4	Temperatura máxima	21.5
22275	7	Sololá	712	San Antonio Palopó	9	San Antonio Palopo	12	Diciembre	2023-01-12T00:00:00	2024-11-08T10:00:00	3	Temperatura mínima	19.2
22276	7	Sololá	712	San Antonio Palopó	9	San Antonio Palopo	12	Diciembre	2023-01-12T00:00:00	2024-11-08T10:00:00	5	Humedad	66
22277	7	Sololá	712	San Antonio Palopó	9	San Antonio Palopo	12	Diciembre	2023-01-12T00:00:00	2024-11-08T10:00:00	6	Velocidad del viento	3.2
22278	7	Sololá	712	San Antonio Palopó	9	San Antonio Palopo	12	Diciembre	2023-01-12T00:00:00	2024-11-08T10:00:00	7	Dirección del viento	3.22
22279	7	Sololá	712	San Antonio Palopó	9	San Antonio Palopo	12	Diciembre	2023-01-12T00:00:00	2024-11-08T10:00:00	1	Precipitación	0
22280	7	Sololá	712	San Antonio Palopó	9	San Antonio Palopo	12	Diciembre	2023-01-12T00:00:00	2024-11-08T10:00:00	8	Radiación solar	574
22281	7	Sololá	712	San Antonio Palopó	9	San Antonio Palopo	12	Diciembre	2023-01-12T00:00:00	2024-11-08T11:00:00	2	Temperatura media	21.2
22282	7	Sololá	712	San Antonio Palopó	9	San Antonio Palopo	12	Diciembre	2023-01-12T00:00:00	2024-11-08T11:00:00	4	Temperatura máxima	21.4
22283	7	Sololá	712	San Antonio Palopó	9	San Antonio Palopo	12	Diciembre	2023-01-12T00:00:00	2024-11-08T11:00:00	3	Temperatura mínima	20.7
22284	7	Sololá	712	San Antonio Palopó	9	San Antonio Palopo	12	Diciembre	2023-01-12T00:00:00	2024-11-08T11:00:00	5	Humedad	71
22285	7	Sololá	712	San Antonio Palopó	9	San Antonio Palopo	12	Diciembre	2023-01-12T00:00:00	2024-11-08T11:00:00	6	Velocidad del viento	3.2
22286	7	Sololá	712	San Antonio Palopó	9	San Antonio Palopo	12	Diciembre	2023-01-12T00:00:00	2024-11-08T11:00:00	7	Dirección del viento	3.22
22287	7	Sololá	712	San Antonio Palopó	9	San Antonio Palopo	12	Diciembre	2023-01-12T00:00:00	2024-11-08T11:00:00	1	Precipitación	0
22288	7	Sololá	712	San Antonio Palopó	9	San Antonio Palopo	12	Diciembre	2023-01-12T00:00:00	2024-11-08T11:00:00	8	Radiación solar	694
22289	7	Sololá	712	San Antonio Palopó	9	San Antonio Palopo	12	Diciembre	2023-01-12T00:00:00	2024-11-08T12:00:00	2	Temperatura media	22.2
22290	7	Sololá	712	San Antonio Palopó	9	San Antonio Palopo	12	Diciembre	2023-01-12T00:00:00	2024-11-08T12:00:00	4	Temperatura máxima	22.3
22291	7	Sololá	712	San Antonio Palopó	9	San Antonio Palopo	12	Diciembre	2023-01-12T00:00:00	2024-11-08T12:00:00	3	Temperatura mínima	21.1
22292	7	Sololá	712	San Antonio Palopó	9	San Antonio Palopo	12	Diciembre	2023-01-12T00:00:00	2024-11-08T12:00:00	5	Humedad	71
22293	7	Sololá	712	San Antonio Palopó	9	San Antonio Palopo	12	Diciembre	2023-01-12T00:00:00	2024-11-08T12:00:00	6	Velocidad del viento	3.2
22294	7	Sololá	712	San Antonio Palopó	9	San Antonio Palopo	12	Diciembre	2023-01-12T00:00:00	2024-11-08T12:00:00	7	Dirección del viento	3.22
22295	7	Sololá	712	San Antonio Palopó	9	San Antonio Palopo	12	Diciembre	2023-01-12T00:00:00	2024-11-08T12:00:00	1	Precipitación	0
22296	7	Sololá	712	San Antonio Palopó	9	San Antonio Palopo	12	Diciembre	2023-01-12T00:00:00	2024-11-08T12:00:00	8	Radiación solar	658
22297	7	Sololá	712	San Antonio Palopó	9	San Antonio Palopo	12	Diciembre	2023-01-12T00:00:00	2024-11-08T13:00:00	2	Temperatura media	24
22298	7	Sololá	712	San Antonio Palopó	9	San Antonio Palopo	12	Diciembre	2023-01-12T00:00:00	2024-11-08T13:00:00	4	Temperatura máxima	24
22299	7	Sololá	712	San Antonio Palopó	9	San Antonio Palopo	12	Diciembre	2023-01-12T00:00:00	2024-11-08T13:00:00	3	Temperatura mínima	22.3
22300	7	Sololá	712	San Antonio Palopó	9	San Antonio Palopo	12	Diciembre	2023-01-12T00:00:00	2024-11-08T13:00:00	5	Humedad	72
22301	7	Sololá	712	San Antonio Palopó	9	San Antonio Palopo	12	Diciembre	2023-01-12T00:00:00	2024-11-08T13:00:00	6	Velocidad del viento	6.4
22302	7	Sololá	712	San Antonio Palopó	9	San Antonio Palopo	12	Diciembre	2023-01-12T00:00:00	2024-11-08T13:00:00	7	Dirección del viento	6.44
22303	7	Sololá	712	San Antonio Palopó	9	San Antonio Palopo	12	Diciembre	2023-01-12T00:00:00	2024-11-08T13:00:00	1	Precipitación	0
22304	7	Sololá	712	San Antonio Palopó	9	San Antonio Palopo	12	Diciembre	2023-01-12T00:00:00	2024-11-08T13:00:00	8	Radiación solar	755
22305	7	Sololá	712	San Antonio Palopó	9	San Antonio Palopo	12	Diciembre	2023-01-12T00:00:00	2024-11-08T14:00:00	2	Temperatura media	23.4
22306	7	Sololá	712	San Antonio Palopó	9	San Antonio Palopo	12	Diciembre	2023-01-12T00:00:00	2024-11-08T14:00:00	4	Temperatura máxima	24.6
22307	7	Sololá	712	San Antonio Palopó	9	San Antonio Palopo	12	Diciembre	2023-01-12T00:00:00	2024-11-08T14:00:00	3	Temperatura mínima	23.3
22308	7	Sololá	712	San Antonio Palopó	9	San Antonio Palopo	12	Diciembre	2023-01-12T00:00:00	2024-11-08T14:00:00	5	Humedad	72
22309	7	Sololá	712	San Antonio Palopó	9	San Antonio Palopo	12	Diciembre	2023-01-12T00:00:00	2024-11-08T14:00:00	6	Velocidad del viento	9.7
22310	7	Sololá	712	San Antonio Palopó	9	San Antonio Palopo	12	Diciembre	2023-01-12T00:00:00	2024-11-08T14:00:00	7	Dirección del viento	9.66
22311	7	Sololá	712	San Antonio Palopó	9	San Antonio Palopo	12	Diciembre	2023-01-12T00:00:00	2024-11-08T14:00:00	1	Precipitación	0
22312	7	Sololá	712	San Antonio Palopó	9	San Antonio Palopo	12	Diciembre	2023-01-12T00:00:00	2024-11-08T14:00:00	8	Radiación solar	736
22313	7	Sololá	712	San Antonio Palopó	9	San Antonio Palopo	12	Diciembre	2023-01-12T00:00:00	2024-11-08T15:00:00	2	Temperatura media	22.5
22314	7	Sololá	712	San Antonio Palopó	9	San Antonio Palopo	12	Diciembre	2023-01-12T00:00:00	2024-11-08T15:00:00	4	Temperatura máxima	23.6
22315	7	Sololá	712	San Antonio Palopó	9	San Antonio Palopo	12	Diciembre	2023-01-12T00:00:00	2024-11-08T15:00:00	3	Temperatura mínima	22.3
22316	7	Sololá	712	San Antonio Palopó	9	San Antonio Palopo	12	Diciembre	2023-01-12T00:00:00	2024-11-08T15:00:00	5	Humedad	76
22317	7	Sololá	712	San Antonio Palopó	9	San Antonio Palopo	12	Diciembre	2023-01-12T00:00:00	2024-11-08T15:00:00	6	Velocidad del viento	11.3
22318	7	Sololá	712	San Antonio Palopó	9	San Antonio Palopo	12	Diciembre	2023-01-12T00:00:00	2024-11-08T15:00:00	7	Dirección del viento	11.27
22319	7	Sololá	712	San Antonio Palopó	9	San Antonio Palopo	12	Diciembre	2023-01-12T00:00:00	2024-11-08T15:00:00	1	Precipitación	0
22320	7	Sololá	712	San Antonio Palopó	9	San Antonio Palopo	12	Diciembre	2023-01-12T00:00:00	2024-11-08T15:00:00	8	Radiación solar	542
22321	7	Sololá	712	San Antonio Palopó	9	San Antonio Palopo	12	Diciembre	2023-01-12T00:00:00	2024-11-08T16:00:00	2	Temperatura media	21.6
22322	7	Sololá	712	San Antonio Palopó	9	San Antonio Palopo	12	Diciembre	2023-01-12T00:00:00	2024-11-08T16:00:00	4	Temperatura máxima	22.6
22323	7	Sololá	712	San Antonio Palopó	9	San Antonio Palopo	12	Diciembre	2023-01-12T00:00:00	2024-11-08T16:00:00	3	Temperatura mínima	21.5
22324	7	Sololá	712	San Antonio Palopó	9	San Antonio Palopo	12	Diciembre	2023-01-12T00:00:00	2024-11-08T16:00:00	5	Humedad	79
22325	7	Sololá	712	San Antonio Palopó	9	San Antonio Palopo	12	Diciembre	2023-01-12T00:00:00	2024-11-08T16:00:00	6	Velocidad del viento	8
22326	7	Sololá	712	San Antonio Palopó	9	San Antonio Palopo	12	Diciembre	2023-01-12T00:00:00	2024-11-08T16:00:00	7	Dirección del viento	8.05
22327	7	Sololá	712	San Antonio Palopó	9	San Antonio Palopo	12	Diciembre	2023-01-12T00:00:00	2024-11-08T16:00:00	1	Precipitación	0
22328	7	Sololá	712	San Antonio Palopó	9	San Antonio Palopo	12	Diciembre	2023-01-12T00:00:00	2024-11-08T16:00:00	8	Radiación solar	164
22329	7	Sololá	712	San Antonio Palopó	9	San Antonio Palopo	12	Diciembre	2023-01-12T00:00:00	2024-11-08T17:00:00	2	Temperatura media	21.3
22330	7	Sololá	712	San Antonio Palopó	9	San Antonio Palopo	12	Diciembre	2023-01-12T00:00:00	2024-11-08T17:00:00	4	Temperatura máxima	21.9
22331	7	Sololá	712	San Antonio Palopó	9	San Antonio Palopo	12	Diciembre	2023-01-12T00:00:00	2024-11-08T17:00:00	3	Temperatura mínima	21.2
22332	7	Sololá	712	San Antonio Palopó	9	San Antonio Palopo	12	Diciembre	2023-01-12T00:00:00	2024-11-08T17:00:00	5	Humedad	79
22333	7	Sololá	712	San Antonio Palopó	9	San Antonio Palopo	12	Diciembre	2023-01-12T00:00:00	2024-11-08T17:00:00	6	Velocidad del viento	4.8
22334	7	Sololá	712	San Antonio Palopó	9	San Antonio Palopo	12	Diciembre	2023-01-12T00:00:00	2024-11-08T17:00:00	7	Dirección del viento	4.83
22335	7	Sololá	712	San Antonio Palopó	9	San Antonio Palopo	12	Diciembre	2023-01-12T00:00:00	2024-11-08T17:00:00	1	Precipitación	0
22336	7	Sololá	712	San Antonio Palopó	9	San Antonio Palopo	12	Diciembre	2023-01-12T00:00:00	2024-11-08T17:00:00	8	Radiación solar	92
22337	7	Sololá	712	San Antonio Palopó	9	San Antonio Palopo	12	Diciembre	2023-01-12T00:00:00	2024-11-08T18:00:00	2	Temperatura media	20.3
22338	7	Sololá	712	San Antonio Palopó	9	San Antonio Palopo	12	Diciembre	2023-01-12T00:00:00	2024-11-08T18:00:00	4	Temperatura máxima	21.3
22339	7	Sololá	712	San Antonio Palopó	9	San Antonio Palopo	12	Diciembre	2023-01-12T00:00:00	2024-11-08T18:00:00	3	Temperatura mínima	20.2
22340	7	Sololá	712	San Antonio Palopó	9	San Antonio Palopo	12	Diciembre	2023-01-12T00:00:00	2024-11-08T18:00:00	5	Humedad	82
22341	7	Sololá	712	San Antonio Palopó	9	San Antonio Palopo	12	Diciembre	2023-01-12T00:00:00	2024-11-08T18:00:00	6	Velocidad del viento	6.4
22342	7	Sololá	712	San Antonio Palopó	9	San Antonio Palopo	12	Diciembre	2023-01-12T00:00:00	2024-11-08T18:00:00	7	Dirección del viento	6.44
22343	7	Sololá	712	San Antonio Palopó	9	San Antonio Palopo	12	Diciembre	2023-01-12T00:00:00	2024-11-08T18:00:00	1	Precipitación	0
22344	7	Sololá	712	San Antonio Palopó	9	San Antonio Palopo	12	Diciembre	2023-01-12T00:00:00	2024-11-08T18:00:00	8	Radiación solar	15
22345	7	Sololá	712	San Antonio Palopó	9	San Antonio Palopo	12	Diciembre	2023-01-12T00:00:00	2024-11-08T19:00:00	2	Temperatura media	19.8
22346	7	Sololá	712	San Antonio Palopó	9	San Antonio Palopo	12	Diciembre	2023-01-12T00:00:00	2024-11-08T19:00:00	4	Temperatura máxima	20.3
22347	7	Sololá	712	San Antonio Palopó	9	San Antonio Palopo	12	Diciembre	2023-01-12T00:00:00	2024-11-08T19:00:00	3	Temperatura mínima	19.8
22348	7	Sololá	712	San Antonio Palopó	9	San Antonio Palopo	12	Diciembre	2023-01-12T00:00:00	2024-11-08T19:00:00	5	Humedad	83
22349	7	Sololá	712	San Antonio Palopó	9	San Antonio Palopo	12	Diciembre	2023-01-12T00:00:00	2024-11-08T19:00:00	6	Velocidad del viento	3.2
22350	7	Sololá	712	San Antonio Palopó	9	San Antonio Palopo	12	Diciembre	2023-01-12T00:00:00	2024-11-08T19:00:00	7	Dirección del viento	3.22
22351	7	Sololá	712	San Antonio Palopó	9	San Antonio Palopo	12	Diciembre	2023-01-12T00:00:00	2024-11-08T19:00:00	1	Precipitación	0
22352	7	Sololá	712	San Antonio Palopó	9	San Antonio Palopo	12	Diciembre	2023-01-12T00:00:00	2024-11-08T19:00:00	8	Radiación solar	0
22353	7	Sololá	712	San Antonio Palopó	9	San Antonio Palopo	12	Diciembre	2023-01-12T00:00:00	2024-11-08T20:00:00	2	Temperatura media	19.3
22354	7	Sololá	712	San Antonio Palopó	9	San Antonio Palopo	12	Diciembre	2023-01-12T00:00:00	2024-11-08T20:00:00	4	Temperatura máxima	19.9
22355	7	Sololá	712	San Antonio Palopó	9	San Antonio Palopo	12	Diciembre	2023-01-12T00:00:00	2024-11-08T20:00:00	3	Temperatura mínima	19.1
22356	7	Sololá	712	San Antonio Palopó	9	San Antonio Palopo	12	Diciembre	2023-01-12T00:00:00	2024-11-08T20:00:00	5	Humedad	82
22357	7	Sololá	712	San Antonio Palopó	9	San Antonio Palopo	12	Diciembre	2023-01-12T00:00:00	2024-11-08T20:00:00	6	Velocidad del viento	1.6
22358	7	Sololá	712	San Antonio Palopó	9	San Antonio Palopo	12	Diciembre	2023-01-12T00:00:00	2024-11-08T20:00:00	7	Dirección del viento	1.61
22359	7	Sololá	712	San Antonio Palopó	9	San Antonio Palopo	12	Diciembre	2023-01-12T00:00:00	2024-11-08T20:00:00	1	Precipitación	0
22360	7	Sololá	712	San Antonio Palopó	9	San Antonio Palopo	12	Diciembre	2023-01-12T00:00:00	2024-11-08T20:00:00	8	Radiación solar	0
22361	7	Sololá	712	San Antonio Palopó	9	San Antonio Palopo	12	Diciembre	2023-01-12T00:00:00	2024-11-08T21:00:00	2	Temperatura media	19.7
22362	7	Sololá	712	San Antonio Palopó	9	San Antonio Palopo	12	Diciembre	2023-01-12T00:00:00	2024-11-08T21:00:00	4	Temperatura máxima	19.7
22363	7	Sololá	712	San Antonio Palopó	9	San Antonio Palopo	12	Diciembre	2023-01-12T00:00:00	2024-11-08T21:00:00	3	Temperatura mínima	19.3
22364	7	Sololá	712	San Antonio Palopó	9	San Antonio Palopo	12	Diciembre	2023-01-12T00:00:00	2024-11-08T21:00:00	5	Humedad	79
22365	7	Sololá	712	San Antonio Palopó	9	San Antonio Palopo	12	Diciembre	2023-01-12T00:00:00	2024-11-08T21:00:00	6	Velocidad del viento	3.2
22366	7	Sololá	712	San Antonio Palopó	9	San Antonio Palopo	12	Diciembre	2023-01-12T00:00:00	2024-11-08T21:00:00	7	Dirección del viento	3.22
22367	7	Sololá	712	San Antonio Palopó	9	San Antonio Palopo	12	Diciembre	2023-01-12T00:00:00	2024-11-08T21:00:00	1	Precipitación	0
22368	7	Sololá	712	San Antonio Palopó	9	San Antonio Palopo	12	Diciembre	2023-01-12T00:00:00	2024-11-08T21:00:00	8	Radiación solar	0
22369	7	Sololá	712	San Antonio Palopó	9	San Antonio Palopo	12	Diciembre	2023-01-12T00:00:00	2024-11-08T22:00:00	2	Temperatura media	19.3
22370	7	Sololá	712	San Antonio Palopó	9	San Antonio Palopo	12	Diciembre	2023-01-12T00:00:00	2024-11-08T22:00:00	4	Temperatura máxima	19.7
22371	7	Sololá	712	San Antonio Palopó	9	San Antonio Palopo	12	Diciembre	2023-01-12T00:00:00	2024-11-08T22:00:00	3	Temperatura mínima	19.3
22372	7	Sololá	712	San Antonio Palopó	9	San Antonio Palopo	12	Diciembre	2023-01-12T00:00:00	2024-11-08T22:00:00	5	Humedad	80
22373	7	Sololá	712	San Antonio Palopó	9	San Antonio Palopo	12	Diciembre	2023-01-12T00:00:00	2024-11-08T22:00:00	6	Velocidad del viento	3.2
22374	7	Sololá	712	San Antonio Palopó	9	San Antonio Palopo	12	Diciembre	2023-01-12T00:00:00	2024-11-08T22:00:00	7	Dirección del viento	3.22
22375	7	Sololá	712	San Antonio Palopó	9	San Antonio Palopo	12	Diciembre	2023-01-12T00:00:00	2024-11-08T22:00:00	1	Precipitación	0
22376	7	Sololá	712	San Antonio Palopó	9	San Antonio Palopo	12	Diciembre	2023-01-12T00:00:00	2024-11-08T22:00:00	8	Radiación solar	0
22377	7	Sololá	712	San Antonio Palopó	9	San Antonio Palopo	12	Diciembre	2023-01-12T00:00:00	2024-11-08T23:00:00	2	Temperatura media	18.7
22378	7	Sololá	712	San Antonio Palopó	9	San Antonio Palopo	12	Diciembre	2023-01-12T00:00:00	2024-11-08T23:00:00	4	Temperatura máxima	19.3
22379	7	Sololá	712	San Antonio Palopó	9	San Antonio Palopo	12	Diciembre	2023-01-12T00:00:00	2024-11-08T23:00:00	3	Temperatura mínima	18.6
22380	7	Sololá	712	San Antonio Palopó	9	San Antonio Palopo	12	Diciembre	2023-01-12T00:00:00	2024-11-08T23:00:00	5	Humedad	81
22381	7	Sololá	712	San Antonio Palopó	9	San Antonio Palopo	12	Diciembre	2023-01-12T00:00:00	2024-11-08T23:00:00	6	Velocidad del viento	3.2
22382	7	Sololá	712	San Antonio Palopó	9	San Antonio Palopo	12	Diciembre	2023-01-12T00:00:00	2024-11-08T23:00:00	7	Dirección del viento	3.22
22383	7	Sololá	712	San Antonio Palopó	9	San Antonio Palopo	12	Diciembre	2023-01-12T00:00:00	2024-11-08T23:00:00	1	Precipitación	0
22384	7	Sololá	712	San Antonio Palopó	9	San Antonio Palopo	12	Diciembre	2023-01-12T00:00:00	2024-11-08T23:00:00	8	Radiación solar	0
22385	7	Sololá	712	San Antonio Palopó	9	San Antonio Palopo	12	Diciembre	2023-02-12T00:00:00	2024-11-08T00:00:00	2	Temperatura media	18.6
22386	7	Sololá	712	San Antonio Palopó	9	San Antonio Palopo	12	Diciembre	2023-02-12T00:00:00	2024-11-08T00:00:00	4	Temperatura máxima	18.9
22387	7	Sololá	712	San Antonio Palopó	9	San Antonio Palopo	12	Diciembre	2023-02-12T00:00:00	2024-11-08T00:00:00	3	Temperatura mínima	18.3
22388	7	Sololá	712	San Antonio Palopó	9	San Antonio Palopo	12	Diciembre	2023-02-12T00:00:00	2024-11-08T00:00:00	5	Humedad	79
22389	7	Sololá	712	San Antonio Palopó	9	San Antonio Palopo	12	Diciembre	2023-02-12T00:00:00	2024-11-08T00:00:00	6	Velocidad del viento	3.2
22390	7	Sololá	712	San Antonio Palopó	9	San Antonio Palopo	12	Diciembre	2023-02-12T00:00:00	2024-11-08T00:00:00	7	Dirección del viento	3.22
22391	7	Sololá	712	San Antonio Palopó	9	San Antonio Palopo	12	Diciembre	2023-02-12T00:00:00	2024-11-08T00:00:00	1	Precipitación	0
22392	7	Sololá	712	San Antonio Palopó	9	San Antonio Palopo	12	Diciembre	2023-02-12T00:00:00	2024-11-08T00:00:00	8	Radiación solar	0
22393	7	Sololá	712	San Antonio Palopó	9	San Antonio Palopo	12	Diciembre	2023-02-12T00:00:00	2024-11-08T01:00:00	2	Temperatura media	18.3
22394	7	Sololá	712	San Antonio Palopó	9	San Antonio Palopo	12	Diciembre	2023-02-12T00:00:00	2024-11-08T01:00:00	4	Temperatura máxima	18.6
22395	7	Sololá	712	San Antonio Palopó	9	San Antonio Palopo	12	Diciembre	2023-02-12T00:00:00	2024-11-08T01:00:00	3	Temperatura mínima	18.3
22396	7	Sololá	712	San Antonio Palopó	9	San Antonio Palopo	12	Diciembre	2023-02-12T00:00:00	2024-11-08T01:00:00	5	Humedad	77
22397	7	Sololá	712	San Antonio Palopó	9	San Antonio Palopo	12	Diciembre	2023-02-12T00:00:00	2024-11-08T01:00:00	6	Velocidad del viento	3.2
22398	7	Sololá	712	San Antonio Palopó	9	San Antonio Palopo	12	Diciembre	2023-02-12T00:00:00	2024-11-08T01:00:00	7	Dirección del viento	3.22
22399	7	Sololá	712	San Antonio Palopó	9	San Antonio Palopo	12	Diciembre	2023-02-12T00:00:00	2024-11-08T01:00:00	1	Precipitación	0
22400	7	Sololá	712	San Antonio Palopó	9	San Antonio Palopo	12	Diciembre	2023-02-12T00:00:00	2024-11-08T01:00:00	8	Radiación solar	0
22401	7	Sololá	712	San Antonio Palopó	9	San Antonio Palopo	12	Diciembre	2023-02-12T00:00:00	2024-11-08T02:00:00	2	Temperatura media	18.1
22402	7	Sololá	712	San Antonio Palopó	9	San Antonio Palopo	12	Diciembre	2023-02-12T00:00:00	2024-11-08T02:00:00	4	Temperatura máxima	18.3
22403	7	Sololá	712	San Antonio Palopó	9	San Antonio Palopo	12	Diciembre	2023-02-12T00:00:00	2024-11-08T02:00:00	3	Temperatura mínima	17.9
22404	7	Sololá	712	San Antonio Palopó	9	San Antonio Palopo	12	Diciembre	2023-02-12T00:00:00	2024-11-08T02:00:00	5	Humedad	76
22405	7	Sololá	712	San Antonio Palopó	9	San Antonio Palopo	12	Diciembre	2023-02-12T00:00:00	2024-11-08T02:00:00	6	Velocidad del viento	3.2
22406	7	Sololá	712	San Antonio Palopó	9	San Antonio Palopo	12	Diciembre	2023-02-12T00:00:00	2024-11-08T02:00:00	7	Dirección del viento	3.22
22407	7	Sololá	712	San Antonio Palopó	9	San Antonio Palopo	12	Diciembre	2023-02-12T00:00:00	2024-11-08T02:00:00	1	Precipitación	0
22408	7	Sololá	712	San Antonio Palopó	9	San Antonio Palopo	12	Diciembre	2023-02-12T00:00:00	2024-11-08T02:00:00	8	Radiación solar	0
22409	7	Sololá	712	San Antonio Palopó	9	San Antonio Palopo	12	Diciembre	2023-02-12T00:00:00	2024-11-08T03:00:00	2	Temperatura media	17.4
22410	7	Sololá	712	San Antonio Palopó	9	San Antonio Palopo	12	Diciembre	2023-02-12T00:00:00	2024-11-08T03:00:00	4	Temperatura máxima	18.2
22411	7	Sololá	712	San Antonio Palopó	9	San Antonio Palopo	12	Diciembre	2023-02-12T00:00:00	2024-11-08T03:00:00	3	Temperatura mínima	17.2
22412	7	Sololá	712	San Antonio Palopó	9	San Antonio Palopo	12	Diciembre	2023-02-12T00:00:00	2024-11-08T03:00:00	5	Humedad	77
22413	7	Sololá	712	San Antonio Palopó	9	San Antonio Palopo	12	Diciembre	2023-02-12T00:00:00	2024-11-08T03:00:00	6	Velocidad del viento	3.2
22414	7	Sololá	712	San Antonio Palopó	9	San Antonio Palopo	12	Diciembre	2023-02-12T00:00:00	2024-11-08T03:00:00	7	Dirección del viento	3.22
22415	7	Sololá	712	San Antonio Palopó	9	San Antonio Palopo	12	Diciembre	2023-02-12T00:00:00	2024-11-08T03:00:00	1	Precipitación	0
22416	7	Sololá	712	San Antonio Palopó	9	San Antonio Palopo	12	Diciembre	2023-02-12T00:00:00	2024-11-08T03:00:00	8	Radiación solar	0
22417	7	Sololá	712	San Antonio Palopó	9	San Antonio Palopo	12	Diciembre	2023-02-12T00:00:00	2024-11-08T04:00:00	2	Temperatura media	17.3
22418	7	Sololá	712	San Antonio Palopó	9	San Antonio Palopo	12	Diciembre	2023-02-12T00:00:00	2024-11-08T04:00:00	4	Temperatura máxima	17.6
22419	7	Sololá	712	San Antonio Palopó	9	San Antonio Palopo	12	Diciembre	2023-02-12T00:00:00	2024-11-08T04:00:00	3	Temperatura mínima	17.1
22420	7	Sololá	712	San Antonio Palopó	9	San Antonio Palopo	12	Diciembre	2023-02-12T00:00:00	2024-11-08T04:00:00	5	Humedad	69
22421	7	Sololá	712	San Antonio Palopó	9	San Antonio Palopo	12	Diciembre	2023-02-12T00:00:00	2024-11-08T04:00:00	6	Velocidad del viento	3.2
22422	7	Sololá	712	San Antonio Palopó	9	San Antonio Palopo	12	Diciembre	2023-02-12T00:00:00	2024-11-08T04:00:00	7	Dirección del viento	3.22
22423	7	Sololá	712	San Antonio Palopó	9	San Antonio Palopo	12	Diciembre	2023-02-12T00:00:00	2024-11-08T04:00:00	1	Precipitación	0
22424	7	Sololá	712	San Antonio Palopó	9	San Antonio Palopo	12	Diciembre	2023-02-12T00:00:00	2024-11-08T04:00:00	8	Radiación solar	0
22425	7	Sololá	712	San Antonio Palopó	9	San Antonio Palopo	12	Diciembre	2023-02-12T00:00:00	2024-11-08T05:00:00	2	Temperatura media	17.4
22426	7	Sololá	712	San Antonio Palopó	9	San Antonio Palopo	12	Diciembre	2023-02-12T00:00:00	2024-11-08T05:00:00	4	Temperatura máxima	17.6
22427	7	Sololá	712	San Antonio Palopó	9	San Antonio Palopo	12	Diciembre	2023-02-12T00:00:00	2024-11-08T05:00:00	3	Temperatura mínima	17.3
22428	7	Sololá	712	San Antonio Palopó	9	San Antonio Palopo	12	Diciembre	2023-02-12T00:00:00	2024-11-08T05:00:00	5	Humedad	68
22429	7	Sololá	712	San Antonio Palopó	9	San Antonio Palopo	12	Diciembre	2023-02-12T00:00:00	2024-11-08T05:00:00	6	Velocidad del viento	4.8
22430	7	Sololá	712	San Antonio Palopó	9	San Antonio Palopo	12	Diciembre	2023-02-12T00:00:00	2024-11-08T05:00:00	7	Dirección del viento	4.83
22431	7	Sololá	712	San Antonio Palopó	9	San Antonio Palopo	12	Diciembre	2023-02-12T00:00:00	2024-11-08T05:00:00	1	Precipitación	0
22432	7	Sololá	712	San Antonio Palopó	9	San Antonio Palopo	12	Diciembre	2023-02-12T00:00:00	2024-11-08T05:00:00	8	Radiación solar	0
22433	7	Sololá	712	San Antonio Palopó	9	San Antonio Palopo	12	Diciembre	2023-02-12T00:00:00	2024-11-08T06:00:00	2	Temperatura media	17.1
22434	7	Sololá	712	San Antonio Palopó	9	San Antonio Palopo	12	Diciembre	2023-02-12T00:00:00	2024-11-08T06:00:00	4	Temperatura máxima	17.7
22435	7	Sololá	712	San Antonio Palopó	9	San Antonio Palopo	12	Diciembre	2023-02-12T00:00:00	2024-11-08T06:00:00	3	Temperatura mínima	17.1
22436	7	Sololá	712	San Antonio Palopó	9	San Antonio Palopo	12	Diciembre	2023-02-12T00:00:00	2024-11-08T06:00:00	5	Humedad	70
22437	7	Sololá	712	San Antonio Palopó	9	San Antonio Palopo	12	Diciembre	2023-02-12T00:00:00	2024-11-08T06:00:00	6	Velocidad del viento	6.4
22438	7	Sololá	712	San Antonio Palopó	9	San Antonio Palopo	12	Diciembre	2023-02-12T00:00:00	2024-11-08T06:00:00	7	Dirección del viento	6.44
22439	7	Sololá	712	San Antonio Palopó	9	San Antonio Palopo	12	Diciembre	2023-02-12T00:00:00	2024-11-08T06:00:00	1	Precipitación	0
22440	7	Sololá	712	San Antonio Palopó	9	San Antonio Palopo	12	Diciembre	2023-02-12T00:00:00	2024-11-08T06:00:00	8	Radiación solar	0
22441	7	Sololá	712	San Antonio Palopó	9	San Antonio Palopo	12	Diciembre	2023-02-12T00:00:00	2024-11-08T07:00:00	2	Temperatura media	17.2
22442	7	Sololá	712	San Antonio Palopó	9	San Antonio Palopo	12	Diciembre	2023-02-12T00:00:00	2024-11-08T07:00:00	4	Temperatura máxima	17.3
22443	7	Sololá	712	San Antonio Palopó	9	San Antonio Palopo	12	Diciembre	2023-02-12T00:00:00	2024-11-08T07:00:00	3	Temperatura mínima	16.8
22444	7	Sololá	712	San Antonio Palopó	9	San Antonio Palopo	12	Diciembre	2023-02-12T00:00:00	2024-11-08T07:00:00	5	Humedad	68
22445	7	Sololá	712	San Antonio Palopó	9	San Antonio Palopo	12	Diciembre	2023-02-12T00:00:00	2024-11-08T07:00:00	6	Velocidad del viento	3.2
22446	7	Sololá	712	San Antonio Palopó	9	San Antonio Palopo	12	Diciembre	2023-02-12T00:00:00	2024-11-08T07:00:00	7	Dirección del viento	3.22
22447	7	Sololá	712	San Antonio Palopó	9	San Antonio Palopo	12	Diciembre	2023-02-12T00:00:00	2024-11-08T07:00:00	1	Precipitación	0
22448	7	Sololá	712	San Antonio Palopó	9	San Antonio Palopo	12	Diciembre	2023-02-12T00:00:00	2024-11-08T07:00:00	8	Radiación solar	8
22449	7	Sololá	712	San Antonio Palopó	9	San Antonio Palopo	12	Diciembre	2023-02-12T00:00:00	2024-11-08T08:00:00	2	Temperatura media	16.7
22450	7	Sololá	712	San Antonio Palopó	9	San Antonio Palopo	12	Diciembre	2023-02-12T00:00:00	2024-11-08T08:00:00	4	Temperatura máxima	17.2
22451	7	Sololá	712	San Antonio Palopó	9	San Antonio Palopo	12	Diciembre	2023-02-12T00:00:00	2024-11-08T08:00:00	3	Temperatura mínima	15.7
22452	7	Sololá	712	San Antonio Palopó	9	San Antonio Palopo	12	Diciembre	2023-02-12T00:00:00	2024-11-08T08:00:00	5	Humedad	75
22453	7	Sololá	712	San Antonio Palopó	9	San Antonio Palopo	12	Diciembre	2023-02-12T00:00:00	2024-11-08T08:00:00	6	Velocidad del viento	3.2
22454	7	Sololá	712	San Antonio Palopó	9	San Antonio Palopo	12	Diciembre	2023-02-12T00:00:00	2024-11-08T08:00:00	7	Dirección del viento	3.22
22455	7	Sololá	712	San Antonio Palopó	9	San Antonio Palopo	12	Diciembre	2023-02-12T00:00:00	2024-11-08T08:00:00	1	Precipitación	0
22456	7	Sololá	712	San Antonio Palopó	9	San Antonio Palopo	12	Diciembre	2023-02-12T00:00:00	2024-11-08T08:00:00	8	Radiación solar	19
22457	7	Sololá	712	San Antonio Palopó	9	San Antonio Palopo	12	Diciembre	2023-02-12T00:00:00	2024-11-08T09:00:00	2	Temperatura media	18.7
22458	7	Sololá	712	San Antonio Palopó	9	San Antonio Palopo	12	Diciembre	2023-02-12T00:00:00	2024-11-08T09:00:00	4	Temperatura máxima	18.7
22459	7	Sololá	712	San Antonio Palopó	9	San Antonio Palopo	12	Diciembre	2023-02-12T00:00:00	2024-11-08T09:00:00	3	Temperatura mínima	15.9
22460	7	Sololá	712	San Antonio Palopó	9	San Antonio Palopo	12	Diciembre	2023-02-12T00:00:00	2024-11-08T09:00:00	5	Humedad	70
22461	7	Sololá	712	San Antonio Palopó	9	San Antonio Palopo	12	Diciembre	2023-02-12T00:00:00	2024-11-08T09:00:00	6	Velocidad del viento	3.2
22462	7	Sololá	712	San Antonio Palopó	9	San Antonio Palopo	12	Diciembre	2023-02-12T00:00:00	2024-11-08T09:00:00	7	Dirección del viento	3.22
22463	7	Sololá	712	San Antonio Palopó	9	San Antonio Palopo	12	Diciembre	2023-02-12T00:00:00	2024-11-08T09:00:00	1	Precipitación	0
22464	7	Sololá	712	San Antonio Palopó	9	San Antonio Palopo	12	Diciembre	2023-02-12T00:00:00	2024-11-08T09:00:00	8	Radiación solar	250
22465	7	Sololá	712	San Antonio Palopó	9	San Antonio Palopo	12	Diciembre	2023-02-12T00:00:00	2024-11-08T10:00:00	2	Temperatura media	20.2
22466	7	Sololá	712	San Antonio Palopó	9	San Antonio Palopo	12	Diciembre	2023-02-12T00:00:00	2024-11-08T10:00:00	4	Temperatura máxima	20.3
22467	7	Sololá	712	San Antonio Palopó	9	San Antonio Palopo	12	Diciembre	2023-02-12T00:00:00	2024-11-08T10:00:00	3	Temperatura mínima	18.7
22468	7	Sololá	712	San Antonio Palopó	9	San Antonio Palopo	12	Diciembre	2023-02-12T00:00:00	2024-11-08T10:00:00	5	Humedad	67
22469	7	Sololá	712	San Antonio Palopó	9	San Antonio Palopo	12	Diciembre	2023-02-12T00:00:00	2024-11-08T10:00:00	6	Velocidad del viento	3.2
22470	7	Sololá	712	San Antonio Palopó	9	San Antonio Palopo	12	Diciembre	2023-02-12T00:00:00	2024-11-08T10:00:00	7	Dirección del viento	3.22
22471	7	Sololá	712	San Antonio Palopó	9	San Antonio Palopo	12	Diciembre	2023-02-12T00:00:00	2024-11-08T10:00:00	1	Precipitación	0
22472	7	Sololá	712	San Antonio Palopó	9	San Antonio Palopo	12	Diciembre	2023-02-12T00:00:00	2024-11-08T10:00:00	8	Radiación solar	582
22473	7	Sololá	712	San Antonio Palopó	9	San Antonio Palopo	12	Diciembre	2023-02-12T00:00:00	2024-11-08T11:00:00	2	Temperatura media	21.1
22474	7	Sololá	712	San Antonio Palopó	9	San Antonio Palopo	12	Diciembre	2023-02-12T00:00:00	2024-11-08T11:00:00	4	Temperatura máxima	21.2
22475	7	Sololá	712	San Antonio Palopó	9	San Antonio Palopo	12	Diciembre	2023-02-12T00:00:00	2024-11-08T11:00:00	3	Temperatura mínima	20.1
22476	7	Sololá	712	San Antonio Palopó	9	San Antonio Palopo	12	Diciembre	2023-02-12T00:00:00	2024-11-08T11:00:00	5	Humedad	67
22477	7	Sololá	712	San Antonio Palopó	9	San Antonio Palopo	12	Diciembre	2023-02-12T00:00:00	2024-11-08T11:00:00	6	Velocidad del viento	3.2
22478	7	Sololá	712	San Antonio Palopó	9	San Antonio Palopo	12	Diciembre	2023-02-12T00:00:00	2024-11-08T11:00:00	7	Dirección del viento	3.22
22479	7	Sololá	712	San Antonio Palopó	9	San Antonio Palopo	12	Diciembre	2023-02-12T00:00:00	2024-11-08T11:00:00	1	Precipitación	0
22480	7	Sololá	712	San Antonio Palopó	9	San Antonio Palopo	12	Diciembre	2023-02-12T00:00:00	2024-11-08T11:00:00	8	Radiación solar	703
22481	7	Sololá	712	San Antonio Palopó	9	San Antonio Palopo	12	Diciembre	2023-02-12T00:00:00	2024-11-08T12:00:00	2	Temperatura media	22.7
22482	7	Sololá	712	San Antonio Palopó	9	San Antonio Palopo	12	Diciembre	2023-02-12T00:00:00	2024-11-08T12:00:00	4	Temperatura máxima	22.7
22483	7	Sololá	712	San Antonio Palopó	9	San Antonio Palopo	12	Diciembre	2023-02-12T00:00:00	2024-11-08T12:00:00	3	Temperatura mínima	21.1
22484	7	Sololá	712	San Antonio Palopó	9	San Antonio Palopo	12	Diciembre	2023-02-12T00:00:00	2024-11-08T12:00:00	5	Humedad	64
22485	7	Sololá	712	San Antonio Palopó	9	San Antonio Palopo	12	Diciembre	2023-02-12T00:00:00	2024-11-08T12:00:00	6	Velocidad del viento	3.2
22486	7	Sololá	712	San Antonio Palopó	9	San Antonio Palopo	12	Diciembre	2023-02-12T00:00:00	2024-11-08T12:00:00	7	Dirección del viento	3.22
22487	7	Sololá	712	San Antonio Palopó	9	San Antonio Palopo	12	Diciembre	2023-02-12T00:00:00	2024-11-08T12:00:00	1	Precipitación	0
22488	7	Sololá	712	San Antonio Palopó	9	San Antonio Palopo	12	Diciembre	2023-02-12T00:00:00	2024-11-08T12:00:00	8	Radiación solar	665
22489	7	Sololá	712	San Antonio Palopó	9	San Antonio Palopo	12	Diciembre	2023-02-12T00:00:00	2024-11-08T13:00:00	2	Temperatura media	23.3
22490	7	Sololá	712	San Antonio Palopó	9	San Antonio Palopo	12	Diciembre	2023-02-12T00:00:00	2024-11-08T13:00:00	4	Temperatura máxima	23.3
22491	7	Sololá	712	San Antonio Palopó	9	San Antonio Palopo	12	Diciembre	2023-02-12T00:00:00	2024-11-08T13:00:00	3	Temperatura mínima	22.6
22492	7	Sololá	712	San Antonio Palopó	9	San Antonio Palopo	12	Diciembre	2023-02-12T00:00:00	2024-11-08T13:00:00	5	Humedad	65
22493	7	Sololá	712	San Antonio Palopó	9	San Antonio Palopo	12	Diciembre	2023-02-12T00:00:00	2024-11-08T13:00:00	6	Velocidad del viento	4.8
22494	7	Sololá	712	San Antonio Palopó	9	San Antonio Palopo	12	Diciembre	2023-02-12T00:00:00	2024-11-08T13:00:00	7	Dirección del viento	4.83
22495	7	Sololá	712	San Antonio Palopó	9	San Antonio Palopo	12	Diciembre	2023-02-12T00:00:00	2024-11-08T13:00:00	1	Precipitación	0
22496	7	Sololá	712	San Antonio Palopó	9	San Antonio Palopo	12	Diciembre	2023-02-12T00:00:00	2024-11-08T13:00:00	8	Radiación solar	751
22497	7	Sololá	712	San Antonio Palopó	9	San Antonio Palopo	12	Diciembre	2023-02-12T00:00:00	2024-11-08T14:00:00	2	Temperatura media	24.8
22498	7	Sololá	712	San Antonio Palopó	9	San Antonio Palopo	12	Diciembre	2023-02-12T00:00:00	2024-11-08T14:00:00	4	Temperatura máxima	25
22499	7	Sololá	712	San Antonio Palopó	9	San Antonio Palopo	12	Diciembre	2023-02-12T00:00:00	2024-11-08T14:00:00	3	Temperatura mínima	23.3
22500	7	Sololá	712	San Antonio Palopó	9	San Antonio Palopo	12	Diciembre	2023-02-12T00:00:00	2024-11-08T14:00:00	5	Humedad	67
22501	7	Sololá	712	San Antonio Palopó	9	San Antonio Palopo	12	Diciembre	2023-02-12T00:00:00	2024-11-08T14:00:00	6	Velocidad del viento	6.4
22502	7	Sololá	712	San Antonio Palopó	9	San Antonio Palopo	12	Diciembre	2023-02-12T00:00:00	2024-11-08T14:00:00	7	Dirección del viento	6.44
22503	7	Sololá	712	San Antonio Palopó	9	San Antonio Palopo	12	Diciembre	2023-02-12T00:00:00	2024-11-08T14:00:00	1	Precipitación	0
22504	7	Sololá	712	San Antonio Palopó	9	San Antonio Palopo	12	Diciembre	2023-02-12T00:00:00	2024-11-08T14:00:00	8	Radiación solar	671
22505	7	Sololá	712	San Antonio Palopó	9	San Antonio Palopo	12	Diciembre	2023-02-12T00:00:00	2024-11-08T15:00:00	2	Temperatura media	23.9
22506	7	Sololá	712	San Antonio Palopó	9	San Antonio Palopo	12	Diciembre	2023-02-12T00:00:00	2024-11-08T15:00:00	4	Temperatura máxima	24.8
22507	7	Sololá	712	San Antonio Palopó	9	San Antonio Palopo	12	Diciembre	2023-02-12T00:00:00	2024-11-08T15:00:00	3	Temperatura mínima	23.8
22508	7	Sololá	712	San Antonio Palopó	9	San Antonio Palopo	12	Diciembre	2023-02-12T00:00:00	2024-11-08T15:00:00	5	Humedad	71
22509	7	Sololá	712	San Antonio Palopó	9	San Antonio Palopo	12	Diciembre	2023-02-12T00:00:00	2024-11-08T15:00:00	6	Velocidad del viento	8
22510	7	Sololá	712	San Antonio Palopó	9	San Antonio Palopo	12	Diciembre	2023-02-12T00:00:00	2024-11-08T15:00:00	7	Dirección del viento	8.05
22511	7	Sololá	712	San Antonio Palopó	9	San Antonio Palopo	12	Diciembre	2023-02-12T00:00:00	2024-11-08T15:00:00	1	Precipitación	0
22512	7	Sololá	712	San Antonio Palopó	9	San Antonio Palopo	12	Diciembre	2023-02-12T00:00:00	2024-11-08T15:00:00	8	Radiación solar	541
22513	7	Sololá	712	San Antonio Palopó	9	San Antonio Palopo	12	Diciembre	2023-02-12T00:00:00	2024-11-08T16:00:00	2	Temperatura media	24.1
22514	7	Sololá	712	San Antonio Palopó	9	San Antonio Palopo	12	Diciembre	2023-02-12T00:00:00	2024-11-08T16:00:00	4	Temperatura máxima	24.4
22515	7	Sololá	712	San Antonio Palopó	9	San Antonio Palopo	12	Diciembre	2023-02-12T00:00:00	2024-11-08T16:00:00	3	Temperatura mínima	23.9
22516	7	Sololá	712	San Antonio Palopó	9	San Antonio Palopo	12	Diciembre	2023-02-12T00:00:00	2024-11-08T16:00:00	5	Humedad	71
22517	7	Sololá	712	San Antonio Palopó	9	San Antonio Palopo	12	Diciembre	2023-02-12T00:00:00	2024-11-08T16:00:00	6	Velocidad del viento	6.4
22518	7	Sololá	712	San Antonio Palopó	9	San Antonio Palopo	12	Diciembre	2023-02-12T00:00:00	2024-11-08T16:00:00	7	Dirección del viento	6.44
22519	7	Sololá	712	San Antonio Palopó	9	San Antonio Palopo	12	Diciembre	2023-02-12T00:00:00	2024-11-08T16:00:00	1	Precipitación	0
22520	7	Sololá	712	San Antonio Palopó	9	San Antonio Palopo	12	Diciembre	2023-02-12T00:00:00	2024-11-08T16:00:00	8	Radiación solar	339
22521	7	Sololá	712	San Antonio Palopó	9	San Antonio Palopo	12	Diciembre	2023-02-12T00:00:00	2024-11-08T17:00:00	2	Temperatura media	22.6
22522	7	Sololá	712	San Antonio Palopó	9	San Antonio Palopo	12	Diciembre	2023-02-12T00:00:00	2024-11-08T17:00:00	4	Temperatura máxima	24.1
22523	7	Sololá	712	San Antonio Palopó	9	San Antonio Palopo	12	Diciembre	2023-02-12T00:00:00	2024-11-08T17:00:00	3	Temperatura mínima	22.6
22524	7	Sololá	712	San Antonio Palopó	9	San Antonio Palopo	12	Diciembre	2023-02-12T00:00:00	2024-11-08T17:00:00	5	Humedad	78
22525	7	Sololá	712	San Antonio Palopó	9	San Antonio Palopo	12	Diciembre	2023-02-12T00:00:00	2024-11-08T17:00:00	6	Velocidad del viento	4.8
22526	7	Sololá	712	San Antonio Palopó	9	San Antonio Palopo	12	Diciembre	2023-02-12T00:00:00	2024-11-08T17:00:00	7	Dirección del viento	4.83
22527	7	Sololá	712	San Antonio Palopó	9	San Antonio Palopo	12	Diciembre	2023-02-12T00:00:00	2024-11-08T17:00:00	1	Precipitación	0
22528	7	Sololá	712	San Antonio Palopó	9	San Antonio Palopo	12	Diciembre	2023-02-12T00:00:00	2024-11-08T17:00:00	8	Radiación solar	132
22529	7	Sololá	712	San Antonio Palopó	9	San Antonio Palopo	12	Diciembre	2023-02-12T00:00:00	2024-11-08T18:00:00	2	Temperatura media	21.1
22530	7	Sololá	712	San Antonio Palopó	9	San Antonio Palopo	12	Diciembre	2023-02-12T00:00:00	2024-11-08T18:00:00	4	Temperatura máxima	22.6
22531	7	Sololá	712	San Antonio Palopó	9	San Antonio Palopo	12	Diciembre	2023-02-12T00:00:00	2024-11-08T18:00:00	3	Temperatura mínima	21.1
22532	7	Sololá	712	San Antonio Palopó	9	San Antonio Palopo	12	Diciembre	2023-02-12T00:00:00	2024-11-08T18:00:00	5	Humedad	80
22533	7	Sololá	712	San Antonio Palopó	9	San Antonio Palopo	12	Diciembre	2023-02-12T00:00:00	2024-11-08T18:00:00	6	Velocidad del viento	1.6
22534	7	Sololá	712	San Antonio Palopó	9	San Antonio Palopo	12	Diciembre	2023-02-12T00:00:00	2024-11-08T18:00:00	7	Dirección del viento	1.61
22535	7	Sololá	712	San Antonio Palopó	9	San Antonio Palopo	12	Diciembre	2023-02-12T00:00:00	2024-11-08T18:00:00	1	Precipitación	0
22536	7	Sololá	712	San Antonio Palopó	9	San Antonio Palopo	12	Diciembre	2023-02-12T00:00:00	2024-11-08T18:00:00	8	Radiación solar	13
22537	7	Sololá	712	San Antonio Palopó	9	San Antonio Palopo	12	Diciembre	2023-02-12T00:00:00	2024-11-08T19:00:00	2	Temperatura media	20.8
22538	7	Sololá	712	San Antonio Palopó	9	San Antonio Palopo	12	Diciembre	2023-02-12T00:00:00	2024-11-08T19:00:00	4	Temperatura máxima	21.2
22539	7	Sololá	712	San Antonio Palopó	9	San Antonio Palopo	12	Diciembre	2023-02-12T00:00:00	2024-11-08T19:00:00	3	Temperatura mínima	20.8
22540	7	Sololá	712	San Antonio Palopó	9	San Antonio Palopo	12	Diciembre	2023-02-12T00:00:00	2024-11-08T19:00:00	5	Humedad	79
22541	7	Sololá	712	San Antonio Palopó	9	San Antonio Palopo	12	Diciembre	2023-02-12T00:00:00	2024-11-08T19:00:00	6	Velocidad del viento	1.6
22542	7	Sololá	712	San Antonio Palopó	9	San Antonio Palopo	12	Diciembre	2023-02-12T00:00:00	2024-11-08T19:00:00	7	Dirección del viento	1.61
22543	7	Sololá	712	San Antonio Palopó	9	San Antonio Palopo	12	Diciembre	2023-02-12T00:00:00	2024-11-08T19:00:00	1	Precipitación	0
22544	7	Sololá	712	San Antonio Palopó	9	San Antonio Palopo	12	Diciembre	2023-02-12T00:00:00	2024-11-08T19:00:00	8	Radiación solar	0
22545	7	Sololá	712	San Antonio Palopó	9	San Antonio Palopo	12	Diciembre	2023-02-12T00:00:00	2024-11-08T20:00:00	2	Temperatura media	20.5
22546	7	Sololá	712	San Antonio Palopó	9	San Antonio Palopo	12	Diciembre	2023-02-12T00:00:00	2024-11-08T20:00:00	4	Temperatura máxima	20.8
22547	7	Sololá	712	San Antonio Palopó	9	San Antonio Palopo	12	Diciembre	2023-02-12T00:00:00	2024-11-08T20:00:00	3	Temperatura mínima	20.4
22548	7	Sololá	712	San Antonio Palopó	9	San Antonio Palopo	12	Diciembre	2023-02-12T00:00:00	2024-11-08T20:00:00	5	Humedad	71
22549	7	Sololá	712	San Antonio Palopó	9	San Antonio Palopo	12	Diciembre	2023-02-12T00:00:00	2024-11-08T20:00:00	6	Velocidad del viento	4.8
22550	7	Sololá	712	San Antonio Palopó	9	San Antonio Palopo	12	Diciembre	2023-02-12T00:00:00	2024-11-08T20:00:00	7	Dirección del viento	4.83
22551	7	Sololá	712	San Antonio Palopó	9	San Antonio Palopo	12	Diciembre	2023-02-12T00:00:00	2024-11-08T20:00:00	1	Precipitación	0
22552	7	Sololá	712	San Antonio Palopó	9	San Antonio Palopo	12	Diciembre	2023-02-12T00:00:00	2024-11-08T20:00:00	8	Radiación solar	0
22553	7	Sololá	712	San Antonio Palopó	9	San Antonio Palopo	12	Diciembre	2023-02-12T00:00:00	2024-11-08T21:00:00	2	Temperatura media	20.4
22554	7	Sololá	712	San Antonio Palopó	9	San Antonio Palopo	12	Diciembre	2023-02-12T00:00:00	2024-11-08T21:00:00	4	Temperatura máxima	20.6
22555	7	Sololá	712	San Antonio Palopó	9	San Antonio Palopo	12	Diciembre	2023-02-12T00:00:00	2024-11-08T21:00:00	3	Temperatura mínima	20.4
22556	7	Sololá	712	San Antonio Palopó	9	San Antonio Palopo	12	Diciembre	2023-02-12T00:00:00	2024-11-08T21:00:00	5	Humedad	70
22557	7	Sololá	712	San Antonio Palopó	9	San Antonio Palopo	12	Diciembre	2023-02-12T00:00:00	2024-11-08T21:00:00	6	Velocidad del viento	12.9
22558	7	Sololá	712	San Antonio Palopó	9	San Antonio Palopo	12	Diciembre	2023-02-12T00:00:00	2024-11-08T21:00:00	7	Dirección del viento	12.87
22559	7	Sololá	712	San Antonio Palopó	9	San Antonio Palopo	12	Diciembre	2023-02-12T00:00:00	2024-11-08T21:00:00	1	Precipitación	0
22560	7	Sololá	712	San Antonio Palopó	9	San Antonio Palopo	12	Diciembre	2023-02-12T00:00:00	2024-11-08T21:00:00	8	Radiación solar	0
22561	7	Sololá	712	San Antonio Palopó	9	San Antonio Palopo	12	Diciembre	2023-02-12T00:00:00	2024-11-08T22:00:00	2	Temperatura media	18.8
22562	7	Sololá	712	San Antonio Palopó	9	San Antonio Palopo	12	Diciembre	2023-02-12T00:00:00	2024-11-08T22:00:00	4	Temperatura máxima	20.4
22563	7	Sololá	712	San Antonio Palopó	9	San Antonio Palopo	12	Diciembre	2023-02-12T00:00:00	2024-11-08T22:00:00	3	Temperatura mínima	18.8
22564	7	Sololá	712	San Antonio Palopó	9	San Antonio Palopo	12	Diciembre	2023-02-12T00:00:00	2024-11-08T22:00:00	5	Humedad	78
22565	7	Sololá	712	San Antonio Palopó	9	San Antonio Palopo	12	Diciembre	2023-02-12T00:00:00	2024-11-08T22:00:00	6	Velocidad del viento	6.4
22566	7	Sololá	712	San Antonio Palopó	9	San Antonio Palopo	12	Diciembre	2023-02-12T00:00:00	2024-11-08T22:00:00	7	Dirección del viento	6.44
22567	7	Sololá	712	San Antonio Palopó	9	San Antonio Palopo	12	Diciembre	2023-02-12T00:00:00	2024-11-08T22:00:00	1	Precipitación	0
22568	7	Sololá	712	San Antonio Palopó	9	San Antonio Palopo	12	Diciembre	2023-02-12T00:00:00	2024-11-08T22:00:00	8	Radiación solar	0
22569	7	Sololá	712	San Antonio Palopó	9	San Antonio Palopo	12	Diciembre	2023-02-12T00:00:00	2024-11-08T23:00:00	2	Temperatura media	19.8
22570	7	Sololá	712	San Antonio Palopó	9	San Antonio Palopo	12	Diciembre	2023-02-12T00:00:00	2024-11-08T23:00:00	4	Temperatura máxima	19.8
22571	7	Sololá	712	San Antonio Palopó	9	San Antonio Palopo	12	Diciembre	2023-02-12T00:00:00	2024-11-08T23:00:00	3	Temperatura mínima	18.6
22572	7	Sololá	712	San Antonio Palopó	9	San Antonio Palopo	12	Diciembre	2023-02-12T00:00:00	2024-11-08T23:00:00	5	Humedad	72
22573	7	Sololá	712	San Antonio Palopó	9	San Antonio Palopo	12	Diciembre	2023-02-12T00:00:00	2024-11-08T23:00:00	6	Velocidad del viento	9.7
22574	7	Sololá	712	San Antonio Palopó	9	San Antonio Palopo	12	Diciembre	2023-02-12T00:00:00	2024-11-08T23:00:00	7	Dirección del viento	9.66
22575	7	Sololá	712	San Antonio Palopó	9	San Antonio Palopo	12	Diciembre	2023-02-12T00:00:00	2024-11-08T23:00:00	1	Precipitación	0
22576	7	Sololá	712	San Antonio Palopó	9	San Antonio Palopo	12	Diciembre	2023-02-12T00:00:00	2024-11-08T23:00:00	8	Radiación solar	0
22577	7	Sololá	712	San Antonio Palopó	9	San Antonio Palopo	12	Diciembre	2023-03-12T00:00:00	2024-11-08T00:00:00	2	Temperatura media	18.8
22578	7	Sololá	712	San Antonio Palopó	9	San Antonio Palopo	12	Diciembre	2023-03-12T00:00:00	2024-11-08T00:00:00	4	Temperatura máxima	19.8
22579	7	Sololá	712	San Antonio Palopó	9	San Antonio Palopo	12	Diciembre	2023-03-12T00:00:00	2024-11-08T00:00:00	3	Temperatura mínima	18.7
22580	7	Sololá	712	San Antonio Palopó	9	San Antonio Palopo	12	Diciembre	2023-03-12T00:00:00	2024-11-08T00:00:00	5	Humedad	73
22581	7	Sololá	712	San Antonio Palopó	9	San Antonio Palopo	12	Diciembre	2023-03-12T00:00:00	2024-11-08T00:00:00	6	Velocidad del viento	9.7
22582	7	Sololá	712	San Antonio Palopó	9	San Antonio Palopo	12	Diciembre	2023-03-12T00:00:00	2024-11-08T00:00:00	7	Dirección del viento	9.66
22583	7	Sololá	712	San Antonio Palopó	9	San Antonio Palopo	12	Diciembre	2023-03-12T00:00:00	2024-11-08T00:00:00	1	Precipitación	0
22584	7	Sololá	712	San Antonio Palopó	9	San Antonio Palopo	12	Diciembre	2023-03-12T00:00:00	2024-11-08T00:00:00	8	Radiación solar	0
22585	7	Sololá	712	San Antonio Palopó	9	San Antonio Palopo	12	Diciembre	2023-03-12T00:00:00	2024-11-08T01:00:00	2	Temperatura media	18.1
22586	7	Sololá	712	San Antonio Palopó	9	San Antonio Palopo	12	Diciembre	2023-03-12T00:00:00	2024-11-08T01:00:00	4	Temperatura máxima	18.9
22587	7	Sololá	712	San Antonio Palopó	9	San Antonio Palopo	12	Diciembre	2023-03-12T00:00:00	2024-11-08T01:00:00	3	Temperatura mínima	18
22588	7	Sololá	712	San Antonio Palopó	9	San Antonio Palopo	12	Diciembre	2023-03-12T00:00:00	2024-11-08T01:00:00	5	Humedad	76
22589	7	Sololá	712	San Antonio Palopó	9	San Antonio Palopo	12	Diciembre	2023-03-12T00:00:00	2024-11-08T01:00:00	6	Velocidad del viento	17.7
22590	7	Sololá	712	San Antonio Palopó	9	San Antonio Palopo	12	Diciembre	2023-03-12T00:00:00	2024-11-08T01:00:00	7	Dirección del viento	17.7
22591	7	Sololá	712	San Antonio Palopó	9	San Antonio Palopo	12	Diciembre	2023-03-12T00:00:00	2024-11-08T01:00:00	1	Precipitación	0
22592	7	Sololá	712	San Antonio Palopó	9	San Antonio Palopo	12	Diciembre	2023-03-12T00:00:00	2024-11-08T01:00:00	8	Radiación solar	0
22593	7	Sololá	712	San Antonio Palopó	9	San Antonio Palopo	12	Diciembre	2023-03-12T00:00:00	2024-11-08T02:00:00	2	Temperatura media	17.9
22594	7	Sololá	712	San Antonio Palopó	9	San Antonio Palopo	12	Diciembre	2023-03-12T00:00:00	2024-11-08T02:00:00	4	Temperatura máxima	18.3
22595	7	Sololá	712	San Antonio Palopó	9	San Antonio Palopo	12	Diciembre	2023-03-12T00:00:00	2024-11-08T02:00:00	3	Temperatura mínima	17.9
22596	7	Sololá	712	San Antonio Palopó	9	San Antonio Palopo	12	Diciembre	2023-03-12T00:00:00	2024-11-08T02:00:00	5	Humedad	75
22597	7	Sololá	712	San Antonio Palopó	9	San Antonio Palopo	12	Diciembre	2023-03-12T00:00:00	2024-11-08T02:00:00	6	Velocidad del viento	17.7
22598	7	Sololá	712	San Antonio Palopó	9	San Antonio Palopo	12	Diciembre	2023-03-12T00:00:00	2024-11-08T02:00:00	7	Dirección del viento	17.7
22599	7	Sololá	712	San Antonio Palopó	9	San Antonio Palopo	12	Diciembre	2023-03-12T00:00:00	2024-11-08T02:00:00	1	Precipitación	0
22600	7	Sololá	712	San Antonio Palopó	9	San Antonio Palopo	12	Diciembre	2023-03-12T00:00:00	2024-11-08T02:00:00	8	Radiación solar	0
22601	7	Sololá	712	San Antonio Palopó	9	San Antonio Palopo	12	Diciembre	2023-03-12T00:00:00	2024-11-08T03:00:00	2	Temperatura media	17.8
22602	7	Sololá	712	San Antonio Palopó	9	San Antonio Palopo	12	Diciembre	2023-03-12T00:00:00	2024-11-08T03:00:00	4	Temperatura máxima	17.9
22603	7	Sololá	712	San Antonio Palopó	9	San Antonio Palopo	12	Diciembre	2023-03-12T00:00:00	2024-11-08T03:00:00	3	Temperatura mínima	17.6
22604	7	Sololá	712	San Antonio Palopó	9	San Antonio Palopo	12	Diciembre	2023-03-12T00:00:00	2024-11-08T03:00:00	5	Humedad	73
22605	7	Sololá	712	San Antonio Palopó	9	San Antonio Palopo	12	Diciembre	2023-03-12T00:00:00	2024-11-08T03:00:00	6	Velocidad del viento	17.7
22606	7	Sololá	712	San Antonio Palopó	9	San Antonio Palopo	12	Diciembre	2023-03-12T00:00:00	2024-11-08T03:00:00	7	Dirección del viento	17.7
22607	7	Sololá	712	San Antonio Palopó	9	San Antonio Palopo	12	Diciembre	2023-03-12T00:00:00	2024-11-08T03:00:00	1	Precipitación	0
22608	7	Sololá	712	San Antonio Palopó	9	San Antonio Palopo	12	Diciembre	2023-03-12T00:00:00	2024-11-08T03:00:00	8	Radiación solar	0
22609	7	Sololá	712	San Antonio Palopó	9	San Antonio Palopo	12	Diciembre	2023-03-12T00:00:00	2024-11-08T04:00:00	2	Temperatura media	17.6
22610	7	Sololá	712	San Antonio Palopó	9	San Antonio Palopo	12	Diciembre	2023-03-12T00:00:00	2024-11-08T04:00:00	4	Temperatura máxima	17.8
22611	7	Sololá	712	San Antonio Palopó	9	San Antonio Palopo	12	Diciembre	2023-03-12T00:00:00	2024-11-08T04:00:00	3	Temperatura mínima	17.5
22612	7	Sololá	712	San Antonio Palopó	9	San Antonio Palopo	12	Diciembre	2023-03-12T00:00:00	2024-11-08T04:00:00	5	Humedad	70
22613	7	Sololá	712	San Antonio Palopó	9	San Antonio Palopo	12	Diciembre	2023-03-12T00:00:00	2024-11-08T04:00:00	6	Velocidad del viento	9.7
22614	7	Sololá	712	San Antonio Palopó	9	San Antonio Palopo	12	Diciembre	2023-03-12T00:00:00	2024-11-08T04:00:00	7	Dirección del viento	9.66
22615	7	Sololá	712	San Antonio Palopó	9	San Antonio Palopo	12	Diciembre	2023-03-12T00:00:00	2024-11-08T04:00:00	1	Precipitación	0
22616	7	Sololá	712	San Antonio Palopó	9	San Antonio Palopo	12	Diciembre	2023-03-12T00:00:00	2024-11-08T04:00:00	8	Radiación solar	0
22617	7	Sololá	712	San Antonio Palopó	9	San Antonio Palopo	12	Diciembre	2023-03-12T00:00:00	2024-11-08T05:00:00	2	Temperatura media	17.7
22618	7	Sololá	712	San Antonio Palopó	9	San Antonio Palopo	12	Diciembre	2023-03-12T00:00:00	2024-11-08T05:00:00	4	Temperatura máxima	18.1
22619	7	Sololá	712	San Antonio Palopó	9	San Antonio Palopo	12	Diciembre	2023-03-12T00:00:00	2024-11-08T05:00:00	3	Temperatura mínima	17.6
22620	7	Sololá	712	San Antonio Palopó	9	San Antonio Palopo	12	Diciembre	2023-03-12T00:00:00	2024-11-08T05:00:00	5	Humedad	70
22621	7	Sololá	712	San Antonio Palopó	9	San Antonio Palopo	12	Diciembre	2023-03-12T00:00:00	2024-11-08T05:00:00	6	Velocidad del viento	6.4
22622	7	Sololá	712	San Antonio Palopó	9	San Antonio Palopo	12	Diciembre	2023-03-12T00:00:00	2024-11-08T05:00:00	7	Dirección del viento	6.44
22623	7	Sololá	712	San Antonio Palopó	9	San Antonio Palopo	12	Diciembre	2023-03-12T00:00:00	2024-11-08T05:00:00	1	Precipitación	0
22624	7	Sololá	712	San Antonio Palopó	9	San Antonio Palopo	12	Diciembre	2023-03-12T00:00:00	2024-11-08T05:00:00	8	Radiación solar	0
22625	7	Sololá	712	San Antonio Palopó	9	San Antonio Palopo	12	Diciembre	2023-03-12T00:00:00	2024-11-08T06:00:00	2	Temperatura media	17.4
22626	7	Sololá	712	San Antonio Palopó	9	San Antonio Palopo	12	Diciembre	2023-03-12T00:00:00	2024-11-08T06:00:00	4	Temperatura máxima	17.8
22627	7	Sololá	712	San Antonio Palopó	9	San Antonio Palopo	12	Diciembre	2023-03-12T00:00:00	2024-11-08T06:00:00	3	Temperatura mínima	17.4
22628	7	Sololá	712	San Antonio Palopó	9	San Antonio Palopo	12	Diciembre	2023-03-12T00:00:00	2024-11-08T06:00:00	5	Humedad	68
22629	7	Sololá	712	San Antonio Palopó	9	San Antonio Palopo	12	Diciembre	2023-03-12T00:00:00	2024-11-08T06:00:00	6	Velocidad del viento	6.4
22630	7	Sololá	712	San Antonio Palopó	9	San Antonio Palopo	12	Diciembre	2023-03-12T00:00:00	2024-11-08T06:00:00	7	Dirección del viento	6.44
22631	7	Sololá	712	San Antonio Palopó	9	San Antonio Palopo	12	Diciembre	2023-03-12T00:00:00	2024-11-08T06:00:00	1	Precipitación	0
22632	7	Sololá	712	San Antonio Palopó	9	San Antonio Palopo	12	Diciembre	2023-03-12T00:00:00	2024-11-08T06:00:00	8	Radiación solar	0
22633	7	Sololá	712	San Antonio Palopó	9	San Antonio Palopo	12	Diciembre	2023-03-12T00:00:00	2024-11-08T07:00:00	2	Temperatura media	17.6
22634	7	Sololá	712	San Antonio Palopó	9	San Antonio Palopo	12	Diciembre	2023-03-12T00:00:00	2024-11-08T07:00:00	4	Temperatura máxima	17.7
22635	7	Sololá	712	San Antonio Palopó	9	San Antonio Palopo	12	Diciembre	2023-03-12T00:00:00	2024-11-08T07:00:00	3	Temperatura mínima	17.2
22636	7	Sololá	712	San Antonio Palopó	9	San Antonio Palopo	12	Diciembre	2023-03-12T00:00:00	2024-11-08T07:00:00	5	Humedad	67
22637	7	Sololá	712	San Antonio Palopó	9	San Antonio Palopo	12	Diciembre	2023-03-12T00:00:00	2024-11-08T07:00:00	6	Velocidad del viento	6.4
22638	7	Sololá	712	San Antonio Palopó	9	San Antonio Palopo	12	Diciembre	2023-03-12T00:00:00	2024-11-08T07:00:00	7	Dirección del viento	6.44
22639	7	Sololá	712	San Antonio Palopó	9	San Antonio Palopo	12	Diciembre	2023-03-12T00:00:00	2024-11-08T07:00:00	1	Precipitación	0
22640	7	Sololá	712	San Antonio Palopó	9	San Antonio Palopo	12	Diciembre	2023-03-12T00:00:00	2024-11-08T07:00:00	8	Radiación solar	7
22641	7	Sololá	712	San Antonio Palopó	9	San Antonio Palopo	12	Diciembre	2023-03-12T00:00:00	2024-11-08T08:00:00	2	Temperatura media	16.8
22642	7	Sololá	712	San Antonio Palopó	9	San Antonio Palopo	12	Diciembre	2023-03-12T00:00:00	2024-11-08T08:00:00	4	Temperatura máxima	17.6
22643	7	Sololá	712	San Antonio Palopó	9	San Antonio Palopo	12	Diciembre	2023-03-12T00:00:00	2024-11-08T08:00:00	3	Temperatura mínima	16.7
22644	7	Sololá	712	San Antonio Palopó	9	San Antonio Palopo	12	Diciembre	2023-03-12T00:00:00	2024-11-08T08:00:00	5	Humedad	72
22645	7	Sololá	712	San Antonio Palopó	9	San Antonio Palopo	12	Diciembre	2023-03-12T00:00:00	2024-11-08T08:00:00	6	Velocidad del viento	3.2
22646	7	Sololá	712	San Antonio Palopó	9	San Antonio Palopo	12	Diciembre	2023-03-12T00:00:00	2024-11-08T08:00:00	7	Dirección del viento	3.22
22647	7	Sololá	712	San Antonio Palopó	9	San Antonio Palopo	12	Diciembre	2023-03-12T00:00:00	2024-11-08T08:00:00	1	Precipitación	0
22648	7	Sololá	712	San Antonio Palopó	9	San Antonio Palopo	12	Diciembre	2023-03-12T00:00:00	2024-11-08T08:00:00	8	Radiación solar	19
22649	7	Sololá	712	San Antonio Palopó	9	San Antonio Palopo	12	Diciembre	2023-03-12T00:00:00	2024-11-08T09:00:00	2	Temperatura media	18.9
22650	7	Sololá	712	San Antonio Palopó	9	San Antonio Palopo	12	Diciembre	2023-03-12T00:00:00	2024-11-08T09:00:00	4	Temperatura máxima	18.9
22651	7	Sololá	712	San Antonio Palopó	9	San Antonio Palopo	12	Diciembre	2023-03-12T00:00:00	2024-11-08T09:00:00	3	Temperatura mínima	16.7
22652	7	Sololá	712	San Antonio Palopó	9	San Antonio Palopo	12	Diciembre	2023-03-12T00:00:00	2024-11-08T09:00:00	5	Humedad	70
22653	7	Sololá	712	San Antonio Palopó	9	San Antonio Palopo	12	Diciembre	2023-03-12T00:00:00	2024-11-08T09:00:00	6	Velocidad del viento	3.2
22654	7	Sololá	712	San Antonio Palopó	9	San Antonio Palopo	12	Diciembre	2023-03-12T00:00:00	2024-11-08T09:00:00	7	Dirección del viento	3.22
22655	7	Sololá	712	San Antonio Palopó	9	San Antonio Palopo	12	Diciembre	2023-03-12T00:00:00	2024-11-08T09:00:00	1	Precipitación	0
22656	7	Sololá	712	San Antonio Palopó	9	San Antonio Palopo	12	Diciembre	2023-03-12T00:00:00	2024-11-08T09:00:00	8	Radiación solar	241
22657	7	Sololá	712	San Antonio Palopó	9	San Antonio Palopo	12	Diciembre	2023-03-12T00:00:00	2024-11-08T10:00:00	2	Temperatura media	20.6
22658	7	Sololá	712	San Antonio Palopó	9	San Antonio Palopo	12	Diciembre	2023-03-12T00:00:00	2024-11-08T10:00:00	4	Temperatura máxima	20.6
22659	7	Sololá	712	San Antonio Palopó	9	San Antonio Palopo	12	Diciembre	2023-03-12T00:00:00	2024-11-08T10:00:00	3	Temperatura mínima	19
22660	7	Sololá	712	San Antonio Palopó	9	San Antonio Palopo	12	Diciembre	2023-03-12T00:00:00	2024-11-08T10:00:00	5	Humedad	68
22661	7	Sololá	712	San Antonio Palopó	9	San Antonio Palopo	12	Diciembre	2023-03-12T00:00:00	2024-11-08T10:00:00	6	Velocidad del viento	1.6
22662	7	Sololá	712	San Antonio Palopó	9	San Antonio Palopo	12	Diciembre	2023-03-12T00:00:00	2024-11-08T10:00:00	7	Dirección del viento	1.61
22663	7	Sololá	712	San Antonio Palopó	9	San Antonio Palopo	12	Diciembre	2023-03-12T00:00:00	2024-11-08T10:00:00	1	Precipitación	0
22664	7	Sololá	712	San Antonio Palopó	9	San Antonio Palopo	12	Diciembre	2023-03-12T00:00:00	2024-11-08T10:00:00	8	Radiación solar	577
22665	7	Sololá	712	San Antonio Palopó	9	San Antonio Palopo	12	Diciembre	2023-03-12T00:00:00	2024-11-08T11:00:00	2	Temperatura media	21.2
22666	7	Sololá	712	San Antonio Palopó	9	San Antonio Palopo	12	Diciembre	2023-03-12T00:00:00	2024-11-08T11:00:00	4	Temperatura máxima	21.4
22667	7	Sololá	712	San Antonio Palopó	9	San Antonio Palopo	12	Diciembre	2023-03-12T00:00:00	2024-11-08T11:00:00	3	Temperatura mínima	20.6
22668	7	Sololá	712	San Antonio Palopó	9	San Antonio Palopo	12	Diciembre	2023-03-12T00:00:00	2024-11-08T11:00:00	5	Humedad	70
22669	7	Sololá	712	San Antonio Palopó	9	San Antonio Palopo	12	Diciembre	2023-03-12T00:00:00	2024-11-08T11:00:00	6	Velocidad del viento	3.2
22670	7	Sololá	712	San Antonio Palopó	9	San Antonio Palopo	12	Diciembre	2023-03-12T00:00:00	2024-11-08T11:00:00	7	Dirección del viento	3.22
22671	7	Sololá	712	San Antonio Palopó	9	San Antonio Palopo	12	Diciembre	2023-03-12T00:00:00	2024-11-08T11:00:00	1	Precipitación	0
22672	7	Sololá	712	San Antonio Palopó	9	San Antonio Palopo	12	Diciembre	2023-03-12T00:00:00	2024-11-08T11:00:00	8	Radiación solar	708
22673	7	Sololá	712	San Antonio Palopó	9	San Antonio Palopo	12	Diciembre	2023-03-12T00:00:00	2024-11-08T12:00:00	2	Temperatura media	26.6
22674	7	Sololá	712	San Antonio Palopó	9	San Antonio Palopo	12	Diciembre	2023-03-12T00:00:00	2024-11-08T12:00:00	4	Temperatura máxima	26.6
22675	7	Sololá	712	San Antonio Palopó	9	San Antonio Palopo	12	Diciembre	2023-03-12T00:00:00	2024-11-08T12:00:00	3	Temperatura mínima	21.2
22676	7	Sololá	712	San Antonio Palopó	9	San Antonio Palopo	12	Diciembre	2023-03-12T00:00:00	2024-11-08T12:00:00	5	Humedad	48
22677	7	Sololá	712	San Antonio Palopó	9	San Antonio Palopo	12	Diciembre	2023-03-12T00:00:00	2024-11-08T12:00:00	6	Velocidad del viento	11.3
22678	7	Sololá	712	San Antonio Palopó	9	San Antonio Palopo	12	Diciembre	2023-03-12T00:00:00	2024-11-08T12:00:00	7	Dirección del viento	11.27
22679	7	Sololá	712	San Antonio Palopó	9	San Antonio Palopo	12	Diciembre	2023-03-12T00:00:00	2024-11-08T12:00:00	1	Precipitación	0
22680	7	Sololá	712	San Antonio Palopó	9	San Antonio Palopo	12	Diciembre	2023-03-12T00:00:00	2024-11-08T12:00:00	8	Radiación solar	681
22681	7	Sololá	712	San Antonio Palopó	9	San Antonio Palopo	12	Diciembre	2023-03-12T00:00:00	2024-11-08T13:00:00	2	Temperatura media	26.4
22682	7	Sololá	712	San Antonio Palopó	9	San Antonio Palopo	12	Diciembre	2023-03-12T00:00:00	2024-11-08T13:00:00	4	Temperatura máxima	26.9
22683	7	Sololá	712	San Antonio Palopó	9	San Antonio Palopo	12	Diciembre	2023-03-12T00:00:00	2024-11-08T13:00:00	3	Temperatura mínima	26
22684	7	Sololá	712	San Antonio Palopó	9	San Antonio Palopo	12	Diciembre	2023-03-12T00:00:00	2024-11-08T13:00:00	5	Humedad	43
22685	7	Sololá	712	San Antonio Palopó	9	San Antonio Palopo	12	Diciembre	2023-03-12T00:00:00	2024-11-08T13:00:00	6	Velocidad del viento	12.9
22686	7	Sololá	712	San Antonio Palopó	9	San Antonio Palopo	12	Diciembre	2023-03-12T00:00:00	2024-11-08T13:00:00	7	Dirección del viento	12.87
22687	7	Sololá	712	San Antonio Palopó	9	San Antonio Palopo	12	Diciembre	2023-03-12T00:00:00	2024-11-08T13:00:00	1	Precipitación	0
22688	7	Sololá	712	San Antonio Palopó	9	San Antonio Palopo	12	Diciembre	2023-03-12T00:00:00	2024-11-08T13:00:00	8	Radiación solar	780
22689	7	Sololá	712	San Antonio Palopó	9	San Antonio Palopo	12	Diciembre	2023-03-12T00:00:00	2024-11-08T14:00:00	2	Temperatura media	26.4
22690	7	Sololá	712	San Antonio Palopó	9	San Antonio Palopo	12	Diciembre	2023-03-12T00:00:00	2024-11-08T14:00:00	4	Temperatura máxima	26.8
22691	7	Sololá	712	San Antonio Palopó	9	San Antonio Palopo	12	Diciembre	2023-03-12T00:00:00	2024-11-08T14:00:00	3	Temperatura mínima	26.4
22692	7	Sololá	712	San Antonio Palopó	9	San Antonio Palopo	12	Diciembre	2023-03-12T00:00:00	2024-11-08T14:00:00	5	Humedad	43
22693	7	Sololá	712	San Antonio Palopó	9	San Antonio Palopo	12	Diciembre	2023-03-12T00:00:00	2024-11-08T14:00:00	6	Velocidad del viento	12.9
22694	7	Sololá	712	San Antonio Palopó	9	San Antonio Palopo	12	Diciembre	2023-03-12T00:00:00	2024-11-08T14:00:00	7	Dirección del viento	12.87
22695	7	Sololá	712	San Antonio Palopó	9	San Antonio Palopo	12	Diciembre	2023-03-12T00:00:00	2024-11-08T14:00:00	1	Precipitación	0
22696	7	Sololá	712	San Antonio Palopó	9	San Antonio Palopo	12	Diciembre	2023-03-12T00:00:00	2024-11-08T14:00:00	8	Radiación solar	690
22697	7	Sololá	712	San Antonio Palopó	9	San Antonio Palopo	12	Diciembre	2023-03-12T00:00:00	2024-11-08T15:00:00	2	Temperatura media	26.3
22698	7	Sololá	712	San Antonio Palopó	9	San Antonio Palopo	12	Diciembre	2023-03-12T00:00:00	2024-11-08T15:00:00	4	Temperatura máxima	26.9
22699	7	Sololá	712	San Antonio Palopó	9	San Antonio Palopo	12	Diciembre	2023-03-12T00:00:00	2024-11-08T15:00:00	3	Temperatura mínima	26.3
22700	7	Sololá	712	San Antonio Palopó	9	San Antonio Palopo	12	Diciembre	2023-03-12T00:00:00	2024-11-08T15:00:00	5	Humedad	46
22701	7	Sololá	712	San Antonio Palopó	9	San Antonio Palopo	12	Diciembre	2023-03-12T00:00:00	2024-11-08T15:00:00	6	Velocidad del viento	12.9
22702	7	Sololá	712	San Antonio Palopó	9	San Antonio Palopo	12	Diciembre	2023-03-12T00:00:00	2024-11-08T15:00:00	7	Dirección del viento	12.87
22703	7	Sololá	712	San Antonio Palopó	9	San Antonio Palopo	12	Diciembre	2023-03-12T00:00:00	2024-11-08T15:00:00	1	Precipitación	0
22704	7	Sololá	712	San Antonio Palopó	9	San Antonio Palopo	12	Diciembre	2023-03-12T00:00:00	2024-11-08T15:00:00	8	Radiación solar	561
22705	7	Sololá	712	San Antonio Palopó	9	San Antonio Palopo	12	Diciembre	2023-03-12T00:00:00	2024-11-08T16:00:00	2	Temperatura media	26.2
22706	7	Sololá	712	San Antonio Palopó	9	San Antonio Palopo	12	Diciembre	2023-03-12T00:00:00	2024-11-08T16:00:00	4	Temperatura máxima	26.8
22707	7	Sololá	712	San Antonio Palopó	9	San Antonio Palopo	12	Diciembre	2023-03-12T00:00:00	2024-11-08T16:00:00	3	Temperatura mínima	25.8
22708	7	Sololá	712	San Antonio Palopó	9	San Antonio Palopo	12	Diciembre	2023-03-12T00:00:00	2024-11-08T16:00:00	5	Humedad	46
22709	7	Sololá	712	San Antonio Palopó	9	San Antonio Palopo	12	Diciembre	2023-03-12T00:00:00	2024-11-08T16:00:00	6	Velocidad del viento	11.3
22710	7	Sololá	712	San Antonio Palopó	9	San Antonio Palopo	12	Diciembre	2023-03-12T00:00:00	2024-11-08T16:00:00	7	Dirección del viento	11.27
22711	7	Sololá	712	San Antonio Palopó	9	San Antonio Palopo	12	Diciembre	2023-03-12T00:00:00	2024-11-08T16:00:00	1	Precipitación	0
22712	7	Sololá	712	San Antonio Palopó	9	San Antonio Palopo	12	Diciembre	2023-03-12T00:00:00	2024-11-08T16:00:00	8	Radiación solar	369
22713	7	Sololá	712	San Antonio Palopó	9	San Antonio Palopo	12	Diciembre	2023-03-12T00:00:00	2024-11-08T17:00:00	2	Temperatura media	24.7
22714	7	Sololá	712	San Antonio Palopó	9	San Antonio Palopo	12	Diciembre	2023-03-12T00:00:00	2024-11-08T17:00:00	4	Temperatura máxima	26.4
22715	7	Sololá	712	San Antonio Palopó	9	San Antonio Palopo	12	Diciembre	2023-03-12T00:00:00	2024-11-08T17:00:00	3	Temperatura mínima	24.7
22716	7	Sololá	712	San Antonio Palopó	9	San Antonio Palopo	12	Diciembre	2023-03-12T00:00:00	2024-11-08T17:00:00	5	Humedad	53
22717	7	Sololá	712	San Antonio Palopó	9	San Antonio Palopo	12	Diciembre	2023-03-12T00:00:00	2024-11-08T17:00:00	6	Velocidad del viento	8
22718	7	Sololá	712	San Antonio Palopó	9	San Antonio Palopo	12	Diciembre	2023-03-12T00:00:00	2024-11-08T17:00:00	7	Dirección del viento	8.05
22719	7	Sololá	712	San Antonio Palopó	9	San Antonio Palopo	12	Diciembre	2023-03-12T00:00:00	2024-11-08T17:00:00	1	Precipitación	0
22720	7	Sololá	712	San Antonio Palopó	9	San Antonio Palopo	12	Diciembre	2023-03-12T00:00:00	2024-11-08T17:00:00	8	Radiación solar	144
22721	7	Sololá	712	San Antonio Palopó	9	San Antonio Palopo	12	Diciembre	2023-03-12T00:00:00	2024-11-08T18:00:00	2	Temperatura media	22.6
22722	7	Sololá	712	San Antonio Palopó	9	San Antonio Palopo	12	Diciembre	2023-03-12T00:00:00	2024-11-08T18:00:00	4	Temperatura máxima	24.7
22723	7	Sololá	712	San Antonio Palopó	9	San Antonio Palopo	12	Diciembre	2023-03-12T00:00:00	2024-11-08T18:00:00	3	Temperatura mínima	22.6
22724	7	Sololá	712	San Antonio Palopó	9	San Antonio Palopo	12	Diciembre	2023-03-12T00:00:00	2024-11-08T18:00:00	5	Humedad	63
22725	7	Sololá	712	San Antonio Palopó	9	San Antonio Palopo	12	Diciembre	2023-03-12T00:00:00	2024-11-08T18:00:00	6	Velocidad del viento	4.8
22726	7	Sololá	712	San Antonio Palopó	9	San Antonio Palopo	12	Diciembre	2023-03-12T00:00:00	2024-11-08T18:00:00	7	Dirección del viento	4.83
22727	7	Sololá	712	San Antonio Palopó	9	San Antonio Palopo	12	Diciembre	2023-03-12T00:00:00	2024-11-08T18:00:00	1	Precipitación	0
22728	7	Sololá	712	San Antonio Palopó	9	San Antonio Palopo	12	Diciembre	2023-03-12T00:00:00	2024-11-08T18:00:00	8	Radiación solar	9
22729	7	Sololá	712	San Antonio Palopó	9	San Antonio Palopo	12	Diciembre	2023-03-12T00:00:00	2024-11-08T19:00:00	2	Temperatura media	21.3
22730	7	Sololá	712	San Antonio Palopó	9	San Antonio Palopo	12	Diciembre	2023-03-12T00:00:00	2024-11-08T19:00:00	4	Temperatura máxima	22.6
22731	7	Sololá	712	San Antonio Palopó	9	San Antonio Palopo	12	Diciembre	2023-03-12T00:00:00	2024-11-08T19:00:00	3	Temperatura mínima	21.3
22732	7	Sololá	712	San Antonio Palopó	9	San Antonio Palopo	12	Diciembre	2023-03-12T00:00:00	2024-11-08T19:00:00	5	Humedad	67
22733	7	Sololá	712	San Antonio Palopó	9	San Antonio Palopo	12	Diciembre	2023-03-12T00:00:00	2024-11-08T19:00:00	6	Velocidad del viento	4.8
22734	7	Sololá	712	San Antonio Palopó	9	San Antonio Palopo	12	Diciembre	2023-03-12T00:00:00	2024-11-08T19:00:00	7	Dirección del viento	4.83
22735	7	Sololá	712	San Antonio Palopó	9	San Antonio Palopo	12	Diciembre	2023-03-12T00:00:00	2024-11-08T19:00:00	1	Precipitación	0
22736	7	Sololá	712	San Antonio Palopó	9	San Antonio Palopo	12	Diciembre	2023-03-12T00:00:00	2024-11-08T19:00:00	8	Radiación solar	0
22737	7	Sololá	712	San Antonio Palopó	9	San Antonio Palopo	12	Diciembre	2023-03-12T00:00:00	2024-11-08T20:00:00	2	Temperatura media	21.4
22738	7	Sololá	712	San Antonio Palopó	9	San Antonio Palopo	12	Diciembre	2023-03-12T00:00:00	2024-11-08T20:00:00	4	Temperatura máxima	21.4
22739	7	Sololá	712	San Antonio Palopó	9	San Antonio Palopo	12	Diciembre	2023-03-12T00:00:00	2024-11-08T20:00:00	3	Temperatura mínima	20.9
22740	7	Sololá	712	San Antonio Palopó	9	San Antonio Palopo	12	Diciembre	2023-03-12T00:00:00	2024-11-08T20:00:00	5	Humedad	63
22741	7	Sololá	712	San Antonio Palopó	9	San Antonio Palopo	12	Diciembre	2023-03-12T00:00:00	2024-11-08T20:00:00	6	Velocidad del viento	6.4
22742	7	Sololá	712	San Antonio Palopó	9	San Antonio Palopo	12	Diciembre	2023-03-12T00:00:00	2024-11-08T20:00:00	7	Dirección del viento	6.44
22743	7	Sololá	712	San Antonio Palopó	9	San Antonio Palopo	12	Diciembre	2023-03-12T00:00:00	2024-11-08T20:00:00	1	Precipitación	0
22744	7	Sololá	712	San Antonio Palopó	9	San Antonio Palopo	12	Diciembre	2023-03-12T00:00:00	2024-11-08T20:00:00	8	Radiación solar	0
22745	7	Sololá	712	San Antonio Palopó	9	San Antonio Palopo	12	Diciembre	2023-03-12T00:00:00	2024-11-08T21:00:00	2	Temperatura media	20.9
22746	7	Sololá	712	San Antonio Palopó	9	San Antonio Palopo	12	Diciembre	2023-03-12T00:00:00	2024-11-08T21:00:00	4	Temperatura máxima	21.4
22747	7	Sololá	712	San Antonio Palopó	9	San Antonio Palopo	12	Diciembre	2023-03-12T00:00:00	2024-11-08T21:00:00	3	Temperatura mínima	20.8
22748	7	Sololá	712	San Antonio Palopó	9	San Antonio Palopo	12	Diciembre	2023-03-12T00:00:00	2024-11-08T21:00:00	5	Humedad	61
22749	7	Sololá	712	San Antonio Palopó	9	San Antonio Palopo	12	Diciembre	2023-03-12T00:00:00	2024-11-08T21:00:00	6	Velocidad del viento	8
22750	7	Sololá	712	San Antonio Palopó	9	San Antonio Palopo	12	Diciembre	2023-03-12T00:00:00	2024-11-08T21:00:00	7	Dirección del viento	8.05
22751	7	Sololá	712	San Antonio Palopó	9	San Antonio Palopo	12	Diciembre	2023-03-12T00:00:00	2024-11-08T21:00:00	1	Precipitación	0
22752	7	Sololá	712	San Antonio Palopó	9	San Antonio Palopo	12	Diciembre	2023-03-12T00:00:00	2024-11-08T21:00:00	8	Radiación solar	0
22753	7	Sololá	712	San Antonio Palopó	9	San Antonio Palopo	12	Diciembre	2023-03-12T00:00:00	2024-11-08T22:00:00	2	Temperatura media	20.1
22754	7	Sololá	712	San Antonio Palopó	9	San Antonio Palopo	12	Diciembre	2023-03-12T00:00:00	2024-11-08T22:00:00	4	Temperatura máxima	21.1
22755	7	Sololá	712	San Antonio Palopó	9	San Antonio Palopo	12	Diciembre	2023-03-12T00:00:00	2024-11-08T22:00:00	3	Temperatura mínima	19.9
22756	7	Sololá	712	San Antonio Palopó	9	San Antonio Palopo	12	Diciembre	2023-03-12T00:00:00	2024-11-08T22:00:00	5	Humedad	65
22757	7	Sololá	712	San Antonio Palopó	9	San Antonio Palopo	12	Diciembre	2023-03-12T00:00:00	2024-11-08T22:00:00	6	Velocidad del viento	6.4
22758	7	Sololá	712	San Antonio Palopó	9	San Antonio Palopo	12	Diciembre	2023-03-12T00:00:00	2024-11-08T22:00:00	7	Dirección del viento	6.44
22759	7	Sololá	712	San Antonio Palopó	9	San Antonio Palopo	12	Diciembre	2023-03-12T00:00:00	2024-11-08T22:00:00	1	Precipitación	0
22760	7	Sololá	712	San Antonio Palopó	9	San Antonio Palopo	12	Diciembre	2023-03-12T00:00:00	2024-11-08T22:00:00	8	Radiación solar	0
22761	7	Sololá	712	San Antonio Palopó	9	San Antonio Palopo	12	Diciembre	2023-03-12T00:00:00	2024-11-08T23:00:00	2	Temperatura media	19.8
22762	7	Sololá	712	San Antonio Palopó	9	San Antonio Palopo	12	Diciembre	2023-03-12T00:00:00	2024-11-08T23:00:00	4	Temperatura máxima	20.4
22763	7	Sololá	712	San Antonio Palopó	9	San Antonio Palopo	12	Diciembre	2023-03-12T00:00:00	2024-11-08T23:00:00	3	Temperatura mínima	19.8
22764	7	Sololá	712	San Antonio Palopó	9	San Antonio Palopo	12	Diciembre	2023-03-12T00:00:00	2024-11-08T23:00:00	5	Humedad	68
22765	7	Sololá	712	San Antonio Palopó	9	San Antonio Palopo	12	Diciembre	2023-03-12T00:00:00	2024-11-08T23:00:00	6	Velocidad del viento	6.4
22766	7	Sololá	712	San Antonio Palopó	9	San Antonio Palopo	12	Diciembre	2023-03-12T00:00:00	2024-11-08T23:00:00	7	Dirección del viento	6.44
22767	7	Sololá	712	San Antonio Palopó	9	San Antonio Palopo	12	Diciembre	2023-03-12T00:00:00	2024-11-08T23:00:00	1	Precipitación	0
22768	7	Sololá	712	San Antonio Palopó	9	San Antonio Palopo	12	Diciembre	2023-03-12T00:00:00	2024-11-08T23:00:00	8	Radiación solar	0
22769	7	Sololá	712	San Antonio Palopó	9	San Antonio Palopo	12	Diciembre	2023-04-12T00:00:00	2024-11-08T00:00:00	2	Temperatura media	19.4
22770	7	Sololá	712	San Antonio Palopó	9	San Antonio Palopo	12	Diciembre	2023-04-12T00:00:00	2024-11-08T00:00:00	4	Temperatura máxima	19.8
22771	7	Sololá	712	San Antonio Palopó	9	San Antonio Palopo	12	Diciembre	2023-04-12T00:00:00	2024-11-08T00:00:00	3	Temperatura mínima	19.4
22772	7	Sololá	712	San Antonio Palopó	9	San Antonio Palopo	12	Diciembre	2023-04-12T00:00:00	2024-11-08T00:00:00	5	Humedad	68
22773	7	Sololá	712	San Antonio Palopó	9	San Antonio Palopo	12	Diciembre	2023-04-12T00:00:00	2024-11-08T00:00:00	6	Velocidad del viento	8
22774	7	Sololá	712	San Antonio Palopó	9	San Antonio Palopo	12	Diciembre	2023-04-12T00:00:00	2024-11-08T00:00:00	7	Dirección del viento	8.05
22775	7	Sololá	712	San Antonio Palopó	9	San Antonio Palopo	12	Diciembre	2023-04-12T00:00:00	2024-11-08T00:00:00	1	Precipitación	0
22776	7	Sololá	712	San Antonio Palopó	9	San Antonio Palopo	12	Diciembre	2023-04-12T00:00:00	2024-11-08T00:00:00	8	Radiación solar	0
22777	7	Sololá	712	San Antonio Palopó	9	San Antonio Palopo	12	Diciembre	2023-04-12T00:00:00	2024-11-08T01:00:00	2	Temperatura media	19.8
22778	7	Sololá	712	San Antonio Palopó	9	San Antonio Palopo	12	Diciembre	2023-04-12T00:00:00	2024-11-08T01:00:00	4	Temperatura máxima	19.8
22779	7	Sololá	712	San Antonio Palopó	9	San Antonio Palopo	12	Diciembre	2023-04-12T00:00:00	2024-11-08T01:00:00	3	Temperatura mínima	19.3
22780	7	Sololá	712	San Antonio Palopó	9	San Antonio Palopo	12	Diciembre	2023-04-12T00:00:00	2024-11-08T01:00:00	5	Humedad	66
22781	7	Sololá	712	San Antonio Palopó	9	San Antonio Palopo	12	Diciembre	2023-04-12T00:00:00	2024-11-08T01:00:00	6	Velocidad del viento	6.4
22782	7	Sololá	712	San Antonio Palopó	9	San Antonio Palopo	12	Diciembre	2023-04-12T00:00:00	2024-11-08T01:00:00	7	Dirección del viento	6.44
22783	7	Sololá	712	San Antonio Palopó	9	San Antonio Palopo	12	Diciembre	2023-04-12T00:00:00	2024-11-08T01:00:00	1	Precipitación	0
22784	7	Sololá	712	San Antonio Palopó	9	San Antonio Palopo	12	Diciembre	2023-04-12T00:00:00	2024-11-08T01:00:00	8	Radiación solar	0
22785	7	Sololá	712	San Antonio Palopó	9	San Antonio Palopo	12	Diciembre	2023-04-12T00:00:00	2024-11-08T02:00:00	2	Temperatura media	19.4
22786	7	Sololá	712	San Antonio Palopó	9	San Antonio Palopo	12	Diciembre	2023-04-12T00:00:00	2024-11-08T02:00:00	4	Temperatura máxima	19.8
22787	7	Sololá	712	San Antonio Palopó	9	San Antonio Palopo	12	Diciembre	2023-04-12T00:00:00	2024-11-08T02:00:00	3	Temperatura mínima	19.4
22788	7	Sololá	712	San Antonio Palopó	9	San Antonio Palopo	12	Diciembre	2023-04-12T00:00:00	2024-11-08T02:00:00	5	Humedad	68
22789	7	Sololá	712	San Antonio Palopó	9	San Antonio Palopo	12	Diciembre	2023-04-12T00:00:00	2024-11-08T02:00:00	6	Velocidad del viento	9.7
22790	7	Sololá	712	San Antonio Palopó	9	San Antonio Palopo	12	Diciembre	2023-04-12T00:00:00	2024-11-08T02:00:00	7	Dirección del viento	9.66
22791	7	Sololá	712	San Antonio Palopó	9	San Antonio Palopo	12	Diciembre	2023-04-12T00:00:00	2024-11-08T02:00:00	1	Precipitación	0
22792	7	Sololá	712	San Antonio Palopó	9	San Antonio Palopo	12	Diciembre	2023-04-12T00:00:00	2024-11-08T02:00:00	8	Radiación solar	0
22793	7	Sololá	712	San Antonio Palopó	9	San Antonio Palopo	12	Diciembre	2023-04-12T00:00:00	2024-11-08T03:00:00	2	Temperatura media	19.3
22794	7	Sololá	712	San Antonio Palopó	9	San Antonio Palopo	12	Diciembre	2023-04-12T00:00:00	2024-11-08T03:00:00	4	Temperatura máxima	19.4
22795	7	Sololá	712	San Antonio Palopó	9	San Antonio Palopo	12	Diciembre	2023-04-12T00:00:00	2024-11-08T03:00:00	3	Temperatura mínima	19.2
22796	7	Sololá	712	San Antonio Palopó	9	San Antonio Palopo	12	Diciembre	2023-04-12T00:00:00	2024-11-08T03:00:00	5	Humedad	69
22797	7	Sololá	712	San Antonio Palopó	9	San Antonio Palopo	12	Diciembre	2023-04-12T00:00:00	2024-11-08T03:00:00	6	Velocidad del viento	14.5
22798	7	Sololá	712	San Antonio Palopó	9	San Antonio Palopo	12	Diciembre	2023-04-12T00:00:00	2024-11-08T03:00:00	7	Dirección del viento	14.48
22799	7	Sololá	712	San Antonio Palopó	9	San Antonio Palopo	12	Diciembre	2023-04-12T00:00:00	2024-11-08T03:00:00	1	Precipitación	0
22800	7	Sololá	712	San Antonio Palopó	9	San Antonio Palopo	12	Diciembre	2023-04-12T00:00:00	2024-11-08T03:00:00	8	Radiación solar	0
22801	7	Sololá	712	San Antonio Palopó	9	San Antonio Palopo	12	Diciembre	2023-04-12T00:00:00	2024-11-08T04:00:00	2	Temperatura media	18.6
22802	7	Sololá	712	San Antonio Palopó	9	San Antonio Palopo	12	Diciembre	2023-04-12T00:00:00	2024-11-08T04:00:00	4	Temperatura máxima	19.3
22803	7	Sololá	712	San Antonio Palopó	9	San Antonio Palopo	12	Diciembre	2023-04-12T00:00:00	2024-11-08T04:00:00	3	Temperatura mínima	18.6
22804	7	Sololá	712	San Antonio Palopó	9	San Antonio Palopo	12	Diciembre	2023-04-12T00:00:00	2024-11-08T04:00:00	5	Humedad	71
22805	7	Sololá	712	San Antonio Palopó	9	San Antonio Palopo	12	Diciembre	2023-04-12T00:00:00	2024-11-08T04:00:00	6	Velocidad del viento	12.9
22806	7	Sololá	712	San Antonio Palopó	9	San Antonio Palopo	12	Diciembre	2023-04-12T00:00:00	2024-11-08T04:00:00	7	Dirección del viento	12.87
22807	7	Sololá	712	San Antonio Palopó	9	San Antonio Palopo	12	Diciembre	2023-04-12T00:00:00	2024-11-08T04:00:00	1	Precipitación	0
22808	7	Sololá	712	San Antonio Palopó	9	San Antonio Palopo	12	Diciembre	2023-04-12T00:00:00	2024-11-08T04:00:00	8	Radiación solar	0
22809	7	Sololá	712	San Antonio Palopó	9	San Antonio Palopo	12	Diciembre	2023-04-12T00:00:00	2024-11-08T05:00:00	2	Temperatura media	19.2
22810	7	Sololá	712	San Antonio Palopó	9	San Antonio Palopo	12	Diciembre	2023-04-12T00:00:00	2024-11-08T05:00:00	4	Temperatura máxima	19.3
22811	7	Sololá	712	San Antonio Palopó	9	San Antonio Palopo	12	Diciembre	2023-04-12T00:00:00	2024-11-08T05:00:00	3	Temperatura mínima	18.6
22812	7	Sololá	712	San Antonio Palopó	9	San Antonio Palopo	12	Diciembre	2023-04-12T00:00:00	2024-11-08T05:00:00	5	Humedad	69
22813	7	Sololá	712	San Antonio Palopó	9	San Antonio Palopo	12	Diciembre	2023-04-12T00:00:00	2024-11-08T05:00:00	6	Velocidad del viento	9.7
22814	7	Sololá	712	San Antonio Palopó	9	San Antonio Palopo	12	Diciembre	2023-04-12T00:00:00	2024-11-08T05:00:00	7	Dirección del viento	9.66
22815	7	Sololá	712	San Antonio Palopó	9	San Antonio Palopo	12	Diciembre	2023-04-12T00:00:00	2024-11-08T05:00:00	1	Precipitación	0
22816	7	Sololá	712	San Antonio Palopó	9	San Antonio Palopo	12	Diciembre	2023-04-12T00:00:00	2024-11-08T05:00:00	8	Radiación solar	0
22817	7	Sololá	712	San Antonio Palopó	9	San Antonio Palopo	12	Diciembre	2023-04-12T00:00:00	2024-11-08T06:00:00	2	Temperatura media	18.8
22818	7	Sololá	712	San Antonio Palopó	9	San Antonio Palopo	12	Diciembre	2023-04-12T00:00:00	2024-11-08T06:00:00	4	Temperatura máxima	19.3
22819	7	Sololá	712	San Antonio Palopó	9	San Antonio Palopo	12	Diciembre	2023-04-12T00:00:00	2024-11-08T06:00:00	3	Temperatura mínima	18.3
22820	7	Sololá	712	San Antonio Palopó	9	San Antonio Palopo	12	Diciembre	2023-04-12T00:00:00	2024-11-08T06:00:00	5	Humedad	70
22821	7	Sololá	712	San Antonio Palopó	9	San Antonio Palopo	12	Diciembre	2023-04-12T00:00:00	2024-11-08T06:00:00	6	Velocidad del viento	3.2
22822	7	Sololá	712	San Antonio Palopó	9	San Antonio Palopo	12	Diciembre	2023-04-12T00:00:00	2024-11-08T06:00:00	7	Dirección del viento	3.22
22823	7	Sololá	712	San Antonio Palopó	9	San Antonio Palopo	12	Diciembre	2023-04-12T00:00:00	2024-11-08T06:00:00	1	Precipitación	0
22824	7	Sololá	712	San Antonio Palopó	9	San Antonio Palopo	12	Diciembre	2023-04-12T00:00:00	2024-11-08T06:00:00	8	Radiación solar	0
22825	7	Sololá	712	San Antonio Palopó	9	San Antonio Palopo	12	Diciembre	2023-04-12T00:00:00	2024-11-08T07:00:00	2	Temperatura media	17.9
22826	7	Sololá	712	San Antonio Palopó	9	San Antonio Palopo	12	Diciembre	2023-04-12T00:00:00	2024-11-08T07:00:00	4	Temperatura máxima	18.9
22827	7	Sololá	712	San Antonio Palopó	9	San Antonio Palopo	12	Diciembre	2023-04-12T00:00:00	2024-11-08T07:00:00	3	Temperatura mínima	17.9
22828	7	Sololá	712	San Antonio Palopó	9	San Antonio Palopo	12	Diciembre	2023-04-12T00:00:00	2024-11-08T07:00:00	5	Humedad	73
22829	7	Sololá	712	San Antonio Palopó	9	San Antonio Palopo	12	Diciembre	2023-04-12T00:00:00	2024-11-08T07:00:00	6	Velocidad del viento	3.2
22830	7	Sololá	712	San Antonio Palopó	9	San Antonio Palopo	12	Diciembre	2023-04-12T00:00:00	2024-11-08T07:00:00	7	Dirección del viento	3.22
22831	7	Sololá	712	San Antonio Palopó	9	San Antonio Palopo	12	Diciembre	2023-04-12T00:00:00	2024-11-08T07:00:00	1	Precipitación	0
22832	7	Sololá	712	San Antonio Palopó	9	San Antonio Palopo	12	Diciembre	2023-04-12T00:00:00	2024-11-08T07:00:00	8	Radiación solar	11
22833	7	Sololá	712	San Antonio Palopó	9	San Antonio Palopo	12	Diciembre	2023-04-12T00:00:00	2024-11-08T08:00:00	2	Temperatura media	18.5
22834	7	Sololá	712	San Antonio Palopó	9	San Antonio Palopo	12	Diciembre	2023-04-12T00:00:00	2024-11-08T08:00:00	4	Temperatura máxima	18.5
22835	7	Sololá	712	San Antonio Palopó	9	San Antonio Palopo	12	Diciembre	2023-04-12T00:00:00	2024-11-08T08:00:00	3	Temperatura mínima	17.8
22836	7	Sololá	712	San Antonio Palopó	9	San Antonio Palopo	12	Diciembre	2023-04-12T00:00:00	2024-11-08T08:00:00	5	Humedad	72
22837	7	Sololá	712	San Antonio Palopó	9	San Antonio Palopo	12	Diciembre	2023-04-12T00:00:00	2024-11-08T08:00:00	6	Velocidad del viento	3.2
22838	7	Sololá	712	San Antonio Palopó	9	San Antonio Palopo	12	Diciembre	2023-04-12T00:00:00	2024-11-08T08:00:00	7	Dirección del viento	3.22
22839	7	Sololá	712	San Antonio Palopó	9	San Antonio Palopo	12	Diciembre	2023-04-12T00:00:00	2024-11-08T08:00:00	1	Precipitación	0
22840	7	Sololá	712	San Antonio Palopó	9	San Antonio Palopo	12	Diciembre	2023-04-12T00:00:00	2024-11-08T08:00:00	8	Radiación solar	29
22841	7	Sololá	712	San Antonio Palopó	9	San Antonio Palopo	12	Diciembre	2023-04-12T00:00:00	2024-11-08T09:00:00	2	Temperatura media	21.5
22842	7	Sololá	712	San Antonio Palopó	9	San Antonio Palopo	12	Diciembre	2023-04-12T00:00:00	2024-11-08T09:00:00	4	Temperatura máxima	21.5
22843	7	Sololá	712	San Antonio Palopó	9	San Antonio Palopo	12	Diciembre	2023-04-12T00:00:00	2024-11-08T09:00:00	3	Temperatura mínima	18.5
22844	7	Sololá	712	San Antonio Palopó	9	San Antonio Palopo	12	Diciembre	2023-04-12T00:00:00	2024-11-08T09:00:00	5	Humedad	66
22845	7	Sololá	712	San Antonio Palopó	9	San Antonio Palopo	12	Diciembre	2023-04-12T00:00:00	2024-11-08T09:00:00	6	Velocidad del viento	3.2
22846	7	Sololá	712	San Antonio Palopó	9	San Antonio Palopo	12	Diciembre	2023-04-12T00:00:00	2024-11-08T09:00:00	7	Dirección del viento	3.22
22847	7	Sololá	712	San Antonio Palopó	9	San Antonio Palopo	12	Diciembre	2023-04-12T00:00:00	2024-11-08T09:00:00	1	Precipitación	0
22848	7	Sololá	712	San Antonio Palopó	9	San Antonio Palopo	12	Diciembre	2023-04-12T00:00:00	2024-11-08T09:00:00	8	Radiación solar	223
22849	7	Sololá	712	San Antonio Palopó	9	San Antonio Palopo	12	Diciembre	2023-04-12T00:00:00	2024-11-08T10:00:00	2	Temperatura media	23.8
22850	7	Sololá	712	San Antonio Palopó	9	San Antonio Palopo	12	Diciembre	2023-04-12T00:00:00	2024-11-08T10:00:00	4	Temperatura máxima	23.9
22851	7	Sololá	712	San Antonio Palopó	9	San Antonio Palopo	12	Diciembre	2023-04-12T00:00:00	2024-11-08T10:00:00	3	Temperatura mínima	21.5
22852	7	Sololá	712	San Antonio Palopó	9	San Antonio Palopo	12	Diciembre	2023-04-12T00:00:00	2024-11-08T10:00:00	5	Humedad	62
22853	7	Sololá	712	San Antonio Palopó	9	San Antonio Palopo	12	Diciembre	2023-04-12T00:00:00	2024-11-08T10:00:00	6	Velocidad del viento	3.2
22854	7	Sololá	712	San Antonio Palopó	9	San Antonio Palopo	12	Diciembre	2023-04-12T00:00:00	2024-11-08T10:00:00	7	Dirección del viento	3.22
22855	7	Sololá	712	San Antonio Palopó	9	San Antonio Palopo	12	Diciembre	2023-04-12T00:00:00	2024-11-08T10:00:00	1	Precipitación	0
22856	7	Sololá	712	San Antonio Palopó	9	San Antonio Palopo	12	Diciembre	2023-04-12T00:00:00	2024-11-08T10:00:00	8	Radiación solar	595
22857	7	Sololá	712	San Antonio Palopó	9	San Antonio Palopo	12	Diciembre	2023-04-12T00:00:00	2024-11-08T11:00:00	2	Temperatura media	24.9
22858	7	Sololá	712	San Antonio Palopó	9	San Antonio Palopo	12	Diciembre	2023-04-12T00:00:00	2024-11-08T11:00:00	4	Temperatura máxima	24.9
22859	7	Sololá	712	San Antonio Palopó	9	San Antonio Palopo	12	Diciembre	2023-04-12T00:00:00	2024-11-08T11:00:00	3	Temperatura mínima	23.7
22860	7	Sololá	712	San Antonio Palopó	9	San Antonio Palopo	12	Diciembre	2023-04-12T00:00:00	2024-11-08T11:00:00	5	Humedad	58
22861	7	Sololá	712	San Antonio Palopó	9	San Antonio Palopo	12	Diciembre	2023-04-12T00:00:00	2024-11-08T11:00:00	6	Velocidad del viento	4.8
22862	7	Sololá	712	San Antonio Palopó	9	San Antonio Palopo	12	Diciembre	2023-04-12T00:00:00	2024-11-08T11:00:00	7	Dirección del viento	4.83
22863	7	Sololá	712	San Antonio Palopó	9	San Antonio Palopo	12	Diciembre	2023-04-12T00:00:00	2024-11-08T11:00:00	1	Precipitación	0
22864	7	Sololá	712	San Antonio Palopó	9	San Antonio Palopo	12	Diciembre	2023-04-12T00:00:00	2024-11-08T11:00:00	8	Radiación solar	611
22865	7	Sololá	712	San Antonio Palopó	9	San Antonio Palopo	12	Diciembre	2023-04-12T00:00:00	2024-11-08T12:00:00	2	Temperatura media	25.2
22866	7	Sololá	712	San Antonio Palopó	9	San Antonio Palopo	12	Diciembre	2023-04-12T00:00:00	2024-11-08T12:00:00	4	Temperatura máxima	25.3
22867	7	Sololá	712	San Antonio Palopó	9	San Antonio Palopo	12	Diciembre	2023-04-12T00:00:00	2024-11-08T12:00:00	3	Temperatura mínima	24.7
22868	7	Sololá	712	San Antonio Palopó	9	San Antonio Palopo	12	Diciembre	2023-04-12T00:00:00	2024-11-08T12:00:00	5	Humedad	57
22869	7	Sololá	712	San Antonio Palopó	9	San Antonio Palopo	12	Diciembre	2023-04-12T00:00:00	2024-11-08T12:00:00	6	Velocidad del viento	6.4
22870	7	Sololá	712	San Antonio Palopó	9	San Antonio Palopo	12	Diciembre	2023-04-12T00:00:00	2024-11-08T12:00:00	7	Dirección del viento	6.44
22871	7	Sololá	712	San Antonio Palopó	9	San Antonio Palopo	12	Diciembre	2023-04-12T00:00:00	2024-11-08T12:00:00	1	Precipitación	0
22872	7	Sololá	712	San Antonio Palopó	9	San Antonio Palopo	12	Diciembre	2023-04-12T00:00:00	2024-11-08T12:00:00	8	Radiación solar	209
22873	7	Sololá	712	San Antonio Palopó	9	San Antonio Palopo	12	Diciembre	2023-04-12T00:00:00	2024-11-08T13:00:00	2	Temperatura media	25.2
22874	7	Sololá	712	San Antonio Palopó	9	San Antonio Palopo	12	Diciembre	2023-04-12T00:00:00	2024-11-08T13:00:00	4	Temperatura máxima	25.6
22875	7	Sololá	712	San Antonio Palopó	9	San Antonio Palopo	12	Diciembre	2023-04-12T00:00:00	2024-11-08T13:00:00	3	Temperatura mínima	24.9
22876	7	Sololá	712	San Antonio Palopó	9	San Antonio Palopo	12	Diciembre	2023-04-12T00:00:00	2024-11-08T13:00:00	5	Humedad	56
22877	7	Sololá	712	San Antonio Palopó	9	San Antonio Palopo	12	Diciembre	2023-04-12T00:00:00	2024-11-08T13:00:00	6	Velocidad del viento	9.7
22878	7	Sololá	712	San Antonio Palopó	9	San Antonio Palopo	12	Diciembre	2023-04-12T00:00:00	2024-11-08T13:00:00	7	Dirección del viento	9.66
22879	7	Sololá	712	San Antonio Palopó	9	San Antonio Palopo	12	Diciembre	2023-04-12T00:00:00	2024-11-08T13:00:00	1	Precipitación	0
22880	7	Sololá	712	San Antonio Palopó	9	San Antonio Palopo	12	Diciembre	2023-04-12T00:00:00	2024-11-08T13:00:00	8	Radiación solar	368
22881	7	Sololá	712	San Antonio Palopó	9	San Antonio Palopo	12	Diciembre	2023-04-12T00:00:00	2024-11-08T14:00:00	2	Temperatura media	26.1
22882	7	Sololá	712	San Antonio Palopó	9	San Antonio Palopo	12	Diciembre	2023-04-12T00:00:00	2024-11-08T14:00:00	4	Temperatura máxima	26.7
22883	7	Sololá	712	San Antonio Palopó	9	San Antonio Palopo	12	Diciembre	2023-04-12T00:00:00	2024-11-08T14:00:00	3	Temperatura mínima	25.2
22884	7	Sololá	712	San Antonio Palopó	9	San Antonio Palopo	12	Diciembre	2023-04-12T00:00:00	2024-11-08T14:00:00	5	Humedad	53
22885	7	Sololá	712	San Antonio Palopó	9	San Antonio Palopo	12	Diciembre	2023-04-12T00:00:00	2024-11-08T14:00:00	6	Velocidad del viento	8
22886	7	Sololá	712	San Antonio Palopó	9	San Antonio Palopo	12	Diciembre	2023-04-12T00:00:00	2024-11-08T14:00:00	7	Dirección del viento	8.05
22887	7	Sololá	712	San Antonio Palopó	9	San Antonio Palopo	12	Diciembre	2023-04-12T00:00:00	2024-11-08T14:00:00	1	Precipitación	0
22888	7	Sololá	712	San Antonio Palopó	9	San Antonio Palopo	12	Diciembre	2023-04-12T00:00:00	2024-11-08T14:00:00	8	Radiación solar	499
22889	7	Sololá	712	San Antonio Palopó	9	San Antonio Palopo	12	Diciembre	2023-04-12T00:00:00	2024-11-08T15:00:00	2	Temperatura media	26.1
22890	7	Sololá	712	San Antonio Palopó	9	San Antonio Palopo	12	Diciembre	2023-04-12T00:00:00	2024-11-08T15:00:00	4	Temperatura máxima	27.1
22891	7	Sololá	712	San Antonio Palopó	9	San Antonio Palopo	12	Diciembre	2023-04-12T00:00:00	2024-11-08T15:00:00	3	Temperatura mínima	26
22892	7	Sololá	712	San Antonio Palopó	9	San Antonio Palopo	12	Diciembre	2023-04-12T00:00:00	2024-11-08T15:00:00	5	Humedad	51
22893	7	Sololá	712	San Antonio Palopó	9	San Antonio Palopo	12	Diciembre	2023-04-12T00:00:00	2024-11-08T15:00:00	6	Velocidad del viento	11.3
22894	7	Sololá	712	San Antonio Palopó	9	San Antonio Palopo	12	Diciembre	2023-04-12T00:00:00	2024-11-08T15:00:00	7	Dirección del viento	11.27
22895	7	Sololá	712	San Antonio Palopó	9	San Antonio Palopo	12	Diciembre	2023-04-12T00:00:00	2024-11-08T15:00:00	1	Precipitación	0
22896	7	Sololá	712	San Antonio Palopó	9	San Antonio Palopo	12	Diciembre	2023-04-12T00:00:00	2024-11-08T15:00:00	8	Radiación solar	507
22897	7	Sololá	712	San Antonio Palopó	9	San Antonio Palopo	12	Diciembre	2023-04-12T00:00:00	2024-11-08T16:00:00	2	Temperatura media	25.9
22898	7	Sololá	712	San Antonio Palopó	9	San Antonio Palopo	12	Diciembre	2023-04-12T00:00:00	2024-11-08T16:00:00	4	Temperatura máxima	26.1
22899	7	Sololá	712	San Antonio Palopó	9	San Antonio Palopo	12	Diciembre	2023-04-12T00:00:00	2024-11-08T16:00:00	3	Temperatura mínima	24.9
22900	7	Sololá	712	San Antonio Palopó	9	San Antonio Palopo	12	Diciembre	2023-04-12T00:00:00	2024-11-08T16:00:00	5	Humedad	52
22901	7	Sololá	712	San Antonio Palopó	9	San Antonio Palopo	12	Diciembre	2023-04-12T00:00:00	2024-11-08T16:00:00	6	Velocidad del viento	8
22902	7	Sololá	712	San Antonio Palopó	9	San Antonio Palopo	12	Diciembre	2023-04-12T00:00:00	2024-11-08T16:00:00	7	Dirección del viento	8.05
22903	7	Sololá	712	San Antonio Palopó	9	San Antonio Palopo	12	Diciembre	2023-04-12T00:00:00	2024-11-08T16:00:00	1	Precipitación	0
22904	7	Sololá	712	San Antonio Palopó	9	San Antonio Palopo	12	Diciembre	2023-04-12T00:00:00	2024-11-08T16:00:00	8	Radiación solar	205
22905	7	Sololá	712	San Antonio Palopó	9	San Antonio Palopo	12	Diciembre	2023-04-12T00:00:00	2024-11-08T17:00:00	2	Temperatura media	25.1
22906	7	Sololá	712	San Antonio Palopó	9	San Antonio Palopo	12	Diciembre	2023-04-12T00:00:00	2024-11-08T17:00:00	4	Temperatura máxima	26
22907	7	Sololá	712	San Antonio Palopó	9	San Antonio Palopo	12	Diciembre	2023-04-12T00:00:00	2024-11-08T17:00:00	3	Temperatura mínima	24.9
22908	7	Sololá	712	San Antonio Palopó	9	San Antonio Palopo	12	Diciembre	2023-04-12T00:00:00	2024-11-08T17:00:00	5	Humedad	55
22909	7	Sololá	712	San Antonio Palopó	9	San Antonio Palopo	12	Diciembre	2023-04-12T00:00:00	2024-11-08T17:00:00	6	Velocidad del viento	8
22910	7	Sololá	712	San Antonio Palopó	9	San Antonio Palopo	12	Diciembre	2023-04-12T00:00:00	2024-11-08T17:00:00	7	Dirección del viento	8.05
22911	7	Sololá	712	San Antonio Palopó	9	San Antonio Palopo	12	Diciembre	2023-04-12T00:00:00	2024-11-08T17:00:00	1	Precipitación	0
22912	7	Sololá	712	San Antonio Palopó	9	San Antonio Palopo	12	Diciembre	2023-04-12T00:00:00	2024-11-08T17:00:00	8	Radiación solar	111
22913	7	Sololá	712	San Antonio Palopó	9	San Antonio Palopo	12	Diciembre	2023-04-12T00:00:00	2024-11-08T18:00:00	2	Temperatura media	22.6
22914	7	Sololá	712	San Antonio Palopó	9	San Antonio Palopo	12	Diciembre	2023-04-12T00:00:00	2024-11-08T18:00:00	4	Temperatura máxima	25
22915	7	Sololá	712	San Antonio Palopó	9	San Antonio Palopo	12	Diciembre	2023-04-12T00:00:00	2024-11-08T18:00:00	3	Temperatura mínima	22.6
22916	7	Sololá	712	San Antonio Palopó	9	San Antonio Palopo	12	Diciembre	2023-04-12T00:00:00	2024-11-08T18:00:00	5	Humedad	64
22917	7	Sololá	712	San Antonio Palopó	9	San Antonio Palopo	12	Diciembre	2023-04-12T00:00:00	2024-11-08T18:00:00	6	Velocidad del viento	4.8
22918	7	Sololá	712	San Antonio Palopó	9	San Antonio Palopo	12	Diciembre	2023-04-12T00:00:00	2024-11-08T18:00:00	7	Dirección del viento	4.83
22919	7	Sololá	712	San Antonio Palopó	9	San Antonio Palopo	12	Diciembre	2023-04-12T00:00:00	2024-11-08T18:00:00	1	Precipitación	0
22920	7	Sololá	712	San Antonio Palopó	9	San Antonio Palopo	12	Diciembre	2023-04-12T00:00:00	2024-11-08T18:00:00	8	Radiación solar	10
22921	7	Sololá	712	San Antonio Palopó	9	San Antonio Palopo	12	Diciembre	2023-04-12T00:00:00	2024-11-08T19:00:00	2	Temperatura media	22.3
22922	7	Sololá	712	San Antonio Palopó	9	San Antonio Palopo	12	Diciembre	2023-04-12T00:00:00	2024-11-08T19:00:00	4	Temperatura máxima	22.6
22923	7	Sololá	712	San Antonio Palopó	9	San Antonio Palopo	12	Diciembre	2023-04-12T00:00:00	2024-11-08T19:00:00	3	Temperatura mínima	22.3
22924	7	Sololá	712	San Antonio Palopó	9	San Antonio Palopo	12	Diciembre	2023-04-12T00:00:00	2024-11-08T19:00:00	5	Humedad	66
22925	7	Sololá	712	San Antonio Palopó	9	San Antonio Palopo	12	Diciembre	2023-04-12T00:00:00	2024-11-08T19:00:00	6	Velocidad del viento	3.2
22926	7	Sololá	712	San Antonio Palopó	9	San Antonio Palopo	12	Diciembre	2023-04-12T00:00:00	2024-11-08T19:00:00	7	Dirección del viento	3.22
22927	7	Sololá	712	San Antonio Palopó	9	San Antonio Palopo	12	Diciembre	2023-04-12T00:00:00	2024-11-08T19:00:00	1	Precipitación	0
22928	7	Sololá	712	San Antonio Palopó	9	San Antonio Palopo	12	Diciembre	2023-04-12T00:00:00	2024-11-08T19:00:00	8	Radiación solar	0
22929	7	Sololá	712	San Antonio Palopó	9	San Antonio Palopo	12	Diciembre	2023-04-12T00:00:00	2024-11-08T20:00:00	2	Temperatura media	21.6
22930	7	Sololá	712	San Antonio Palopó	9	San Antonio Palopo	12	Diciembre	2023-04-12T00:00:00	2024-11-08T20:00:00	4	Temperatura máxima	22.3
22931	7	Sololá	712	San Antonio Palopó	9	San Antonio Palopo	12	Diciembre	2023-04-12T00:00:00	2024-11-08T20:00:00	3	Temperatura mínima	21.5
22932	7	Sololá	712	San Antonio Palopó	9	San Antonio Palopo	12	Diciembre	2023-04-12T00:00:00	2024-11-08T20:00:00	5	Humedad	67
22933	7	Sololá	712	San Antonio Palopó	9	San Antonio Palopo	12	Diciembre	2023-04-12T00:00:00	2024-11-08T20:00:00	6	Velocidad del viento	3.2
22934	7	Sololá	712	San Antonio Palopó	9	San Antonio Palopo	12	Diciembre	2023-04-12T00:00:00	2024-11-08T20:00:00	7	Dirección del viento	3.22
22935	7	Sololá	712	San Antonio Palopó	9	San Antonio Palopo	12	Diciembre	2023-04-12T00:00:00	2024-11-08T20:00:00	1	Precipitación	0
22936	7	Sololá	712	San Antonio Palopó	9	San Antonio Palopo	12	Diciembre	2023-04-12T00:00:00	2024-11-08T20:00:00	8	Radiación solar	0
22937	7	Sololá	712	San Antonio Palopó	9	San Antonio Palopo	12	Diciembre	2023-04-12T00:00:00	2024-11-08T21:00:00	2	Temperatura media	21.6
22938	7	Sololá	712	San Antonio Palopó	9	San Antonio Palopo	12	Diciembre	2023-04-12T00:00:00	2024-11-08T21:00:00	4	Temperatura máxima	21.7
22939	7	Sololá	712	San Antonio Palopó	9	San Antonio Palopo	12	Diciembre	2023-04-12T00:00:00	2024-11-08T21:00:00	3	Temperatura mínima	21.5
22940	7	Sololá	712	San Antonio Palopó	9	San Antonio Palopo	12	Diciembre	2023-04-12T00:00:00	2024-11-08T21:00:00	5	Humedad	68
22941	7	Sololá	712	San Antonio Palopó	9	San Antonio Palopo	12	Diciembre	2023-04-12T00:00:00	2024-11-08T21:00:00	6	Velocidad del viento	3.2
22942	7	Sololá	712	San Antonio Palopó	9	San Antonio Palopo	12	Diciembre	2023-04-12T00:00:00	2024-11-08T21:00:00	7	Dirección del viento	3.22
22943	7	Sololá	712	San Antonio Palopó	9	San Antonio Palopo	12	Diciembre	2023-04-12T00:00:00	2024-11-08T21:00:00	1	Precipitación	0
22944	7	Sololá	712	San Antonio Palopó	9	San Antonio Palopo	12	Diciembre	2023-04-12T00:00:00	2024-11-08T21:00:00	8	Radiación solar	0
22945	7	Sololá	712	San Antonio Palopó	9	San Antonio Palopo	12	Diciembre	2023-04-12T00:00:00	2024-11-08T22:00:00	2	Temperatura media	21.3
22946	7	Sololá	712	San Antonio Palopó	9	San Antonio Palopo	12	Diciembre	2023-04-12T00:00:00	2024-11-08T22:00:00	4	Temperatura máxima	21.9
22947	7	Sololá	712	San Antonio Palopó	9	San Antonio Palopo	12	Diciembre	2023-04-12T00:00:00	2024-11-08T22:00:00	3	Temperatura mínima	21.3
22948	7	Sololá	712	San Antonio Palopó	9	San Antonio Palopo	12	Diciembre	2023-04-12T00:00:00	2024-11-08T22:00:00	5	Humedad	69
22949	7	Sololá	712	San Antonio Palopó	9	San Antonio Palopo	12	Diciembre	2023-04-12T00:00:00	2024-11-08T22:00:00	6	Velocidad del viento	3.2
22950	7	Sololá	712	San Antonio Palopó	9	San Antonio Palopo	12	Diciembre	2023-04-12T00:00:00	2024-11-08T22:00:00	7	Dirección del viento	3.22
22951	7	Sololá	712	San Antonio Palopó	9	San Antonio Palopo	12	Diciembre	2023-04-12T00:00:00	2024-11-08T22:00:00	1	Precipitación	0
22952	7	Sololá	712	San Antonio Palopó	9	San Antonio Palopo	12	Diciembre	2023-04-12T00:00:00	2024-11-08T22:00:00	8	Radiación solar	0
22953	7	Sololá	712	San Antonio Palopó	9	San Antonio Palopo	12	Diciembre	2023-04-12T00:00:00	2024-11-08T23:00:00	2	Temperatura media	20.8
22954	7	Sololá	712	San Antonio Palopó	9	San Antonio Palopo	12	Diciembre	2023-04-12T00:00:00	2024-11-08T23:00:00	4	Temperatura máxima	21.3
22955	7	Sololá	712	San Antonio Palopó	9	San Antonio Palopo	12	Diciembre	2023-04-12T00:00:00	2024-11-08T23:00:00	3	Temperatura mínima	20.8
22956	7	Sololá	712	San Antonio Palopó	9	San Antonio Palopo	12	Diciembre	2023-04-12T00:00:00	2024-11-08T23:00:00	5	Humedad	71
22957	7	Sololá	712	San Antonio Palopó	9	San Antonio Palopo	12	Diciembre	2023-04-12T00:00:00	2024-11-08T23:00:00	6	Velocidad del viento	11.3
22958	7	Sololá	712	San Antonio Palopó	9	San Antonio Palopo	12	Diciembre	2023-04-12T00:00:00	2024-11-08T23:00:00	7	Dirección del viento	11.27
22959	7	Sololá	712	San Antonio Palopó	9	San Antonio Palopo	12	Diciembre	2023-04-12T00:00:00	2024-11-08T23:00:00	1	Precipitación	0
22960	7	Sololá	712	San Antonio Palopó	9	San Antonio Palopo	12	Diciembre	2023-04-12T00:00:00	2024-11-08T23:00:00	8	Radiación solar	0
22961	7	Sololá	712	San Antonio Palopó	9	San Antonio Palopo	12	Diciembre	2023-05-12T00:00:00	2024-11-08T00:00:00	2	Temperatura media	21.2
22962	7	Sololá	712	San Antonio Palopó	9	San Antonio Palopo	12	Diciembre	2023-05-12T00:00:00	2024-11-08T00:00:00	4	Temperatura máxima	21.2
22963	7	Sololá	712	San Antonio Palopó	9	San Antonio Palopo	12	Diciembre	2023-05-12T00:00:00	2024-11-08T00:00:00	3	Temperatura mínima	20.8
22964	7	Sololá	712	San Antonio Palopó	9	San Antonio Palopo	12	Diciembre	2023-05-12T00:00:00	2024-11-08T00:00:00	5	Humedad	70
22965	7	Sololá	712	San Antonio Palopó	9	San Antonio Palopo	12	Diciembre	2023-05-12T00:00:00	2024-11-08T00:00:00	6	Velocidad del viento	11.3
22966	7	Sololá	712	San Antonio Palopó	9	San Antonio Palopo	12	Diciembre	2023-05-12T00:00:00	2024-11-08T00:00:00	7	Dirección del viento	11.27
22967	7	Sololá	712	San Antonio Palopó	9	San Antonio Palopo	12	Diciembre	2023-05-12T00:00:00	2024-11-08T00:00:00	1	Precipitación	0
22968	7	Sololá	712	San Antonio Palopó	9	San Antonio Palopo	12	Diciembre	2023-05-12T00:00:00	2024-11-08T00:00:00	8	Radiación solar	0
22969	7	Sololá	712	San Antonio Palopó	9	San Antonio Palopo	12	Diciembre	2023-05-12T00:00:00	2024-11-08T01:00:00	2	Temperatura media	20.4
22970	7	Sololá	712	San Antonio Palopó	9	San Antonio Palopo	12	Diciembre	2023-05-12T00:00:00	2024-11-08T01:00:00	4	Temperatura máxima	21.2
22971	7	Sololá	712	San Antonio Palopó	9	San Antonio Palopo	12	Diciembre	2023-05-12T00:00:00	2024-11-08T01:00:00	3	Temperatura mínima	20.4
22972	7	Sololá	712	San Antonio Palopó	9	San Antonio Palopo	12	Diciembre	2023-05-12T00:00:00	2024-11-08T01:00:00	5	Humedad	73
22973	7	Sololá	712	San Antonio Palopó	9	San Antonio Palopo	12	Diciembre	2023-05-12T00:00:00	2024-11-08T01:00:00	6	Velocidad del viento	6.4
22974	7	Sololá	712	San Antonio Palopó	9	San Antonio Palopo	12	Diciembre	2023-05-12T00:00:00	2024-11-08T01:00:00	7	Dirección del viento	6.44
22975	7	Sololá	712	San Antonio Palopó	9	San Antonio Palopo	12	Diciembre	2023-05-12T00:00:00	2024-11-08T01:00:00	1	Precipitación	0
22976	7	Sololá	712	San Antonio Palopó	9	San Antonio Palopo	12	Diciembre	2023-05-12T00:00:00	2024-11-08T01:00:00	8	Radiación solar	0
22977	7	Sololá	712	San Antonio Palopó	9	San Antonio Palopo	12	Diciembre	2023-05-12T00:00:00	2024-11-08T02:00:00	2	Temperatura media	20.3
22978	7	Sololá	712	San Antonio Palopó	9	San Antonio Palopo	12	Diciembre	2023-05-12T00:00:00	2024-11-08T02:00:00	4	Temperatura máxima	20.8
22979	7	Sololá	712	San Antonio Palopó	9	San Antonio Palopo	12	Diciembre	2023-05-12T00:00:00	2024-11-08T02:00:00	3	Temperatura mínima	20.2
22980	7	Sololá	712	San Antonio Palopó	9	San Antonio Palopo	12	Diciembre	2023-05-12T00:00:00	2024-11-08T02:00:00	5	Humedad	72
22981	7	Sololá	712	San Antonio Palopó	9	San Antonio Palopo	12	Diciembre	2023-05-12T00:00:00	2024-11-08T02:00:00	6	Velocidad del viento	8
22982	7	Sololá	712	San Antonio Palopó	9	San Antonio Palopo	12	Diciembre	2023-05-12T00:00:00	2024-11-08T02:00:00	7	Dirección del viento	8.05
22983	7	Sololá	712	San Antonio Palopó	9	San Antonio Palopo	12	Diciembre	2023-05-12T00:00:00	2024-11-08T02:00:00	1	Precipitación	0
22984	7	Sololá	712	San Antonio Palopó	9	San Antonio Palopo	12	Diciembre	2023-05-12T00:00:00	2024-11-08T02:00:00	8	Radiación solar	0
22985	7	Sololá	712	San Antonio Palopó	9	San Antonio Palopo	12	Diciembre	2023-05-12T00:00:00	2024-11-08T03:00:00	2	Temperatura media	19.6
22986	7	Sololá	712	San Antonio Palopó	9	San Antonio Palopo	12	Diciembre	2023-05-12T00:00:00	2024-11-08T03:00:00	4	Temperatura máxima	20.3
22987	7	Sololá	712	San Antonio Palopó	9	San Antonio Palopo	12	Diciembre	2023-05-12T00:00:00	2024-11-08T03:00:00	3	Temperatura mínima	19.3
22988	7	Sololá	712	San Antonio Palopó	9	San Antonio Palopo	12	Diciembre	2023-05-12T00:00:00	2024-11-08T03:00:00	5	Humedad	73
22989	7	Sololá	712	San Antonio Palopó	9	San Antonio Palopo	12	Diciembre	2023-05-12T00:00:00	2024-11-08T03:00:00	6	Velocidad del viento	6.4
22990	7	Sololá	712	San Antonio Palopó	9	San Antonio Palopo	12	Diciembre	2023-05-12T00:00:00	2024-11-08T03:00:00	7	Dirección del viento	6.44
22991	7	Sololá	712	San Antonio Palopó	9	San Antonio Palopo	12	Diciembre	2023-05-12T00:00:00	2024-11-08T03:00:00	1	Precipitación	0
22992	7	Sololá	712	San Antonio Palopó	9	San Antonio Palopo	12	Diciembre	2023-05-12T00:00:00	2024-11-08T03:00:00	8	Radiación solar	0
22993	7	Sololá	712	San Antonio Palopó	9	San Antonio Palopo	12	Diciembre	2023-05-12T00:00:00	2024-11-08T04:00:00	2	Temperatura media	19.8
22994	7	Sololá	712	San Antonio Palopó	9	San Antonio Palopo	12	Diciembre	2023-05-12T00:00:00	2024-11-08T04:00:00	4	Temperatura máxima	20.1
22995	7	Sololá	712	San Antonio Palopó	9	San Antonio Palopo	12	Diciembre	2023-05-12T00:00:00	2024-11-08T04:00:00	3	Temperatura mínima	19.6
22996	7	Sololá	712	San Antonio Palopó	9	San Antonio Palopo	12	Diciembre	2023-05-12T00:00:00	2024-11-08T04:00:00	5	Humedad	72
22997	7	Sololá	712	San Antonio Palopó	9	San Antonio Palopo	12	Diciembre	2023-05-12T00:00:00	2024-11-08T04:00:00	6	Velocidad del viento	8
22998	7	Sololá	712	San Antonio Palopó	9	San Antonio Palopo	12	Diciembre	2023-05-12T00:00:00	2024-11-08T04:00:00	7	Dirección del viento	8.05
22999	7	Sololá	712	San Antonio Palopó	9	San Antonio Palopo	12	Diciembre	2023-05-12T00:00:00	2024-11-08T04:00:00	1	Precipitación	0
23000	7	Sololá	712	San Antonio Palopó	9	San Antonio Palopo	12	Diciembre	2023-05-12T00:00:00	2024-11-08T04:00:00	8	Radiación solar	0
23001	7	Sololá	712	San Antonio Palopó	9	San Antonio Palopo	12	Diciembre	2023-05-12T00:00:00	2024-11-08T05:00:00	2	Temperatura media	20.2
23002	7	Sololá	712	San Antonio Palopó	9	San Antonio Palopo	12	Diciembre	2023-05-12T00:00:00	2024-11-08T05:00:00	4	Temperatura máxima	20.2
23003	7	Sololá	712	San Antonio Palopó	9	San Antonio Palopo	12	Diciembre	2023-05-12T00:00:00	2024-11-08T05:00:00	3	Temperatura mínima	19.6
23004	7	Sololá	712	San Antonio Palopó	9	San Antonio Palopo	12	Diciembre	2023-05-12T00:00:00	2024-11-08T05:00:00	5	Humedad	72
23005	7	Sololá	712	San Antonio Palopó	9	San Antonio Palopo	12	Diciembre	2023-05-12T00:00:00	2024-11-08T05:00:00	6	Velocidad del viento	6.4
23006	7	Sololá	712	San Antonio Palopó	9	San Antonio Palopo	12	Diciembre	2023-05-12T00:00:00	2024-11-08T05:00:00	7	Dirección del viento	6.44
23007	7	Sololá	712	San Antonio Palopó	9	San Antonio Palopo	12	Diciembre	2023-05-12T00:00:00	2024-11-08T05:00:00	1	Precipitación	0
23008	7	Sololá	712	San Antonio Palopó	9	San Antonio Palopo	12	Diciembre	2023-05-12T00:00:00	2024-11-08T05:00:00	8	Radiación solar	0
23009	7	Sololá	712	San Antonio Palopó	9	San Antonio Palopo	12	Diciembre	2023-05-12T00:00:00	2024-11-08T06:00:00	2	Temperatura media	19.6
23010	7	Sololá	712	San Antonio Palopó	9	San Antonio Palopo	12	Diciembre	2023-05-12T00:00:00	2024-11-08T06:00:00	4	Temperatura máxima	20.3
23011	7	Sololá	712	San Antonio Palopó	9	San Antonio Palopo	12	Diciembre	2023-05-12T00:00:00	2024-11-08T06:00:00	3	Temperatura mínima	19.6
23012	7	Sololá	712	San Antonio Palopó	9	San Antonio Palopo	12	Diciembre	2023-05-12T00:00:00	2024-11-08T06:00:00	5	Humedad	73
23013	7	Sololá	712	San Antonio Palopó	9	San Antonio Palopo	12	Diciembre	2023-05-12T00:00:00	2024-11-08T06:00:00	6	Velocidad del viento	8
23014	7	Sololá	712	San Antonio Palopó	9	San Antonio Palopo	12	Diciembre	2023-05-12T00:00:00	2024-11-08T06:00:00	7	Dirección del viento	8.05
23015	7	Sololá	712	San Antonio Palopó	9	San Antonio Palopo	12	Diciembre	2023-05-12T00:00:00	2024-11-08T06:00:00	1	Precipitación	0
23016	7	Sololá	712	San Antonio Palopó	9	San Antonio Palopo	12	Diciembre	2023-05-12T00:00:00	2024-11-08T06:00:00	8	Radiación solar	0
23017	7	Sololá	712	San Antonio Palopó	9	San Antonio Palopo	12	Diciembre	2023-05-12T00:00:00	2024-11-08T07:00:00	2	Temperatura media	20.5
23018	7	Sololá	712	San Antonio Palopó	9	San Antonio Palopo	12	Diciembre	2023-05-12T00:00:00	2024-11-08T07:00:00	4	Temperatura máxima	20.5
23019	7	Sololá	712	San Antonio Palopó	9	San Antonio Palopo	12	Diciembre	2023-05-12T00:00:00	2024-11-08T07:00:00	3	Temperatura mínima	19.6
23020	7	Sololá	712	San Antonio Palopó	9	San Antonio Palopo	12	Diciembre	2023-05-12T00:00:00	2024-11-08T07:00:00	5	Humedad	71
23021	7	Sololá	712	San Antonio Palopó	9	San Antonio Palopo	12	Diciembre	2023-05-12T00:00:00	2024-11-08T07:00:00	6	Velocidad del viento	4.8
23022	7	Sololá	712	San Antonio Palopó	9	San Antonio Palopo	12	Diciembre	2023-05-12T00:00:00	2024-11-08T07:00:00	7	Dirección del viento	4.83
23023	7	Sololá	712	San Antonio Palopó	9	San Antonio Palopo	12	Diciembre	2023-05-12T00:00:00	2024-11-08T07:00:00	1	Precipitación	0
23024	7	Sololá	712	San Antonio Palopó	9	San Antonio Palopo	12	Diciembre	2023-05-12T00:00:00	2024-11-08T07:00:00	8	Radiación solar	8
23025	7	Sololá	712	San Antonio Palopó	9	San Antonio Palopo	12	Diciembre	2023-05-12T00:00:00	2024-11-08T08:00:00	2	Temperatura media	20.8
23026	7	Sololá	712	San Antonio Palopó	9	San Antonio Palopo	12	Diciembre	2023-05-12T00:00:00	2024-11-08T08:00:00	4	Temperatura máxima	20.8
23027	7	Sololá	712	San Antonio Palopó	9	San Antonio Palopo	12	Diciembre	2023-05-12T00:00:00	2024-11-08T08:00:00	3	Temperatura mínima	20
23028	7	Sololá	712	San Antonio Palopó	9	San Antonio Palopo	12	Diciembre	2023-05-12T00:00:00	2024-11-08T08:00:00	5	Humedad	71
23029	7	Sololá	712	San Antonio Palopó	9	San Antonio Palopo	12	Diciembre	2023-05-12T00:00:00	2024-11-08T08:00:00	6	Velocidad del viento	4.8
23030	7	Sololá	712	San Antonio Palopó	9	San Antonio Palopo	12	Diciembre	2023-05-12T00:00:00	2024-11-08T08:00:00	7	Dirección del viento	4.83
23031	7	Sololá	712	San Antonio Palopó	9	San Antonio Palopo	12	Diciembre	2023-05-12T00:00:00	2024-11-08T08:00:00	1	Precipitación	0
23032	7	Sololá	712	San Antonio Palopó	9	San Antonio Palopo	12	Diciembre	2023-05-12T00:00:00	2024-11-08T08:00:00	8	Radiación solar	25
23033	7	Sololá	712	San Antonio Palopó	9	San Antonio Palopo	12	Diciembre	2023-05-12T00:00:00	2024-11-08T09:00:00	2	Temperatura media	23.3
23034	7	Sololá	712	San Antonio Palopó	9	San Antonio Palopo	12	Diciembre	2023-05-12T00:00:00	2024-11-08T09:00:00	4	Temperatura máxima	23.3
23035	7	Sololá	712	San Antonio Palopó	9	San Antonio Palopo	12	Diciembre	2023-05-12T00:00:00	2024-11-08T09:00:00	3	Temperatura mínima	20.8
23036	7	Sololá	712	San Antonio Palopó	9	San Antonio Palopo	12	Diciembre	2023-05-12T00:00:00	2024-11-08T09:00:00	5	Humedad	66
23037	7	Sololá	712	San Antonio Palopó	9	San Antonio Palopo	12	Diciembre	2023-05-12T00:00:00	2024-11-08T09:00:00	6	Velocidad del viento	4.8
23038	7	Sololá	712	San Antonio Palopó	9	San Antonio Palopo	12	Diciembre	2023-05-12T00:00:00	2024-11-08T09:00:00	7	Dirección del viento	4.83
23039	7	Sololá	712	San Antonio Palopó	9	San Antonio Palopo	12	Diciembre	2023-05-12T00:00:00	2024-11-08T09:00:00	1	Precipitación	0
23040	7	Sololá	712	San Antonio Palopó	9	San Antonio Palopo	12	Diciembre	2023-05-12T00:00:00	2024-11-08T09:00:00	8	Radiación solar	208
23041	7	Sololá	712	San Antonio Palopó	9	San Antonio Palopo	12	Diciembre	2023-05-12T00:00:00	2024-11-08T10:00:00	2	Temperatura media	23.9
23042	7	Sololá	712	San Antonio Palopó	9	San Antonio Palopo	12	Diciembre	2023-05-12T00:00:00	2024-11-08T10:00:00	4	Temperatura máxima	23.9
23043	7	Sololá	712	San Antonio Palopó	9	San Antonio Palopo	12	Diciembre	2023-05-12T00:00:00	2024-11-08T10:00:00	3	Temperatura mínima	22.6
23044	7	Sololá	712	San Antonio Palopó	9	San Antonio Palopo	12	Diciembre	2023-05-12T00:00:00	2024-11-08T10:00:00	5	Humedad	62
23045	7	Sololá	712	San Antonio Palopó	9	San Antonio Palopo	12	Diciembre	2023-05-12T00:00:00	2024-11-08T10:00:00	6	Velocidad del viento	6.4
23046	7	Sololá	712	San Antonio Palopó	9	San Antonio Palopo	12	Diciembre	2023-05-12T00:00:00	2024-11-08T10:00:00	7	Dirección del viento	6.44
23047	7	Sololá	712	San Antonio Palopó	9	San Antonio Palopo	12	Diciembre	2023-05-12T00:00:00	2024-11-08T10:00:00	1	Precipitación	0
23048	7	Sololá	712	San Antonio Palopó	9	San Antonio Palopo	12	Diciembre	2023-05-12T00:00:00	2024-11-08T10:00:00	8	Radiación solar	652
23049	7	Sololá	712	San Antonio Palopó	9	San Antonio Palopo	12	Diciembre	2023-05-12T00:00:00	2024-11-08T11:00:00	2	Temperatura media	24.3
23050	7	Sololá	712	San Antonio Palopó	9	San Antonio Palopo	12	Diciembre	2023-05-12T00:00:00	2024-11-08T11:00:00	4	Temperatura máxima	24.4
23051	7	Sololá	712	San Antonio Palopó	9	San Antonio Palopo	12	Diciembre	2023-05-12T00:00:00	2024-11-08T11:00:00	3	Temperatura mínima	23.7
23052	7	Sololá	712	San Antonio Palopó	9	San Antonio Palopo	12	Diciembre	2023-05-12T00:00:00	2024-11-08T11:00:00	5	Humedad	62
23053	7	Sololá	712	San Antonio Palopó	9	San Antonio Palopo	12	Diciembre	2023-05-12T00:00:00	2024-11-08T11:00:00	6	Velocidad del viento	9.7
23054	7	Sololá	712	San Antonio Palopó	9	San Antonio Palopo	12	Diciembre	2023-05-12T00:00:00	2024-11-08T11:00:00	7	Dirección del viento	9.66
23055	7	Sololá	712	San Antonio Palopó	9	San Antonio Palopo	12	Diciembre	2023-05-12T00:00:00	2024-11-08T11:00:00	1	Precipitación	0
23056	7	Sololá	712	San Antonio Palopó	9	San Antonio Palopo	12	Diciembre	2023-05-12T00:00:00	2024-11-08T11:00:00	8	Radiación solar	780
23057	7	Sololá	712	San Antonio Palopó	9	San Antonio Palopo	12	Diciembre	2023-05-12T00:00:00	2024-11-08T12:00:00	2	Temperatura media	25.7
23058	7	Sololá	712	San Antonio Palopó	9	San Antonio Palopo	12	Diciembre	2023-05-12T00:00:00	2024-11-08T12:00:00	4	Temperatura máxima	25.8
23059	7	Sololá	712	San Antonio Palopó	9	San Antonio Palopo	12	Diciembre	2023-05-12T00:00:00	2024-11-08T12:00:00	3	Temperatura mínima	24.3
23060	7	Sololá	712	San Antonio Palopó	9	San Antonio Palopo	12	Diciembre	2023-05-12T00:00:00	2024-11-08T12:00:00	5	Humedad	54
23061	7	Sololá	712	San Antonio Palopó	9	San Antonio Palopo	12	Diciembre	2023-05-12T00:00:00	2024-11-08T12:00:00	6	Velocidad del viento	8
23062	7	Sololá	712	San Antonio Palopó	9	San Antonio Palopo	12	Diciembre	2023-05-12T00:00:00	2024-11-08T12:00:00	7	Dirección del viento	8.05
23063	7	Sololá	712	San Antonio Palopó	9	San Antonio Palopo	12	Diciembre	2023-05-12T00:00:00	2024-11-08T12:00:00	1	Precipitación	0
23064	7	Sololá	712	San Antonio Palopó	9	San Antonio Palopo	12	Diciembre	2023-05-12T00:00:00	2024-11-08T12:00:00	8	Radiación solar	727
23065	7	Sololá	712	San Antonio Palopó	9	San Antonio Palopo	12	Diciembre	2023-05-12T00:00:00	2024-11-08T13:00:00	2	Temperatura media	26
23066	7	Sololá	712	San Antonio Palopó	9	San Antonio Palopo	12	Diciembre	2023-05-12T00:00:00	2024-11-08T13:00:00	4	Temperatura máxima	26.2
23067	7	Sololá	712	San Antonio Palopó	9	San Antonio Palopo	12	Diciembre	2023-05-12T00:00:00	2024-11-08T13:00:00	3	Temperatura mínima	25.1
23068	7	Sololá	712	San Antonio Palopó	9	San Antonio Palopo	12	Diciembre	2023-05-12T00:00:00	2024-11-08T13:00:00	5	Humedad	47
23069	7	Sololá	712	San Antonio Palopó	9	San Antonio Palopo	12	Diciembre	2023-05-12T00:00:00	2024-11-08T13:00:00	6	Velocidad del viento	12.9
23070	7	Sololá	712	San Antonio Palopó	9	San Antonio Palopo	12	Diciembre	2023-05-12T00:00:00	2024-11-08T13:00:00	7	Dirección del viento	12.87
23071	7	Sololá	712	San Antonio Palopó	9	San Antonio Palopo	12	Diciembre	2023-05-12T00:00:00	2024-11-08T13:00:00	1	Precipitación	0
23072	7	Sololá	712	San Antonio Palopó	9	San Antonio Palopo	12	Diciembre	2023-05-12T00:00:00	2024-11-08T13:00:00	8	Radiación solar	799
23073	7	Sololá	712	San Antonio Palopó	9	San Antonio Palopo	12	Diciembre	2023-05-12T00:00:00	2024-11-08T14:00:00	2	Temperatura media	25.6
23074	7	Sololá	712	San Antonio Palopó	9	San Antonio Palopo	12	Diciembre	2023-05-12T00:00:00	2024-11-08T14:00:00	4	Temperatura máxima	27.1
23075	7	Sololá	712	San Antonio Palopó	9	San Antonio Palopo	12	Diciembre	2023-05-12T00:00:00	2024-11-08T14:00:00	3	Temperatura mínima	24.9
23076	7	Sololá	712	San Antonio Palopó	9	San Antonio Palopo	12	Diciembre	2023-05-12T00:00:00	2024-11-08T14:00:00	5	Humedad	49
23077	7	Sololá	712	San Antonio Palopó	9	San Antonio Palopo	12	Diciembre	2023-05-12T00:00:00	2024-11-08T14:00:00	6	Velocidad del viento	12.9
23078	7	Sololá	712	San Antonio Palopó	9	San Antonio Palopo	12	Diciembre	2023-05-12T00:00:00	2024-11-08T14:00:00	7	Dirección del viento	12.87
23079	7	Sololá	712	San Antonio Palopó	9	San Antonio Palopo	12	Diciembre	2023-05-12T00:00:00	2024-11-08T14:00:00	1	Precipitación	0
23080	7	Sololá	712	San Antonio Palopó	9	San Antonio Palopo	12	Diciembre	2023-05-12T00:00:00	2024-11-08T14:00:00	8	Radiación solar	702
23081	7	Sololá	712	San Antonio Palopó	9	San Antonio Palopo	12	Diciembre	2023-05-12T00:00:00	2024-11-08T15:00:00	2	Temperatura media	26
23082	7	Sololá	712	San Antonio Palopó	9	San Antonio Palopo	12	Diciembre	2023-05-12T00:00:00	2024-11-08T15:00:00	4	Temperatura máxima	26.2
23083	7	Sololá	712	San Antonio Palopó	9	San Antonio Palopo	12	Diciembre	2023-05-12T00:00:00	2024-11-08T15:00:00	3	Temperatura mínima	25
23084	7	Sololá	712	San Antonio Palopó	9	San Antonio Palopo	12	Diciembre	2023-05-12T00:00:00	2024-11-08T15:00:00	5	Humedad	47
23085	7	Sololá	712	San Antonio Palopó	9	San Antonio Palopo	12	Diciembre	2023-05-12T00:00:00	2024-11-08T15:00:00	6	Velocidad del viento	12.9
23086	7	Sololá	712	San Antonio Palopó	9	San Antonio Palopo	12	Diciembre	2023-05-12T00:00:00	2024-11-08T15:00:00	7	Dirección del viento	12.87
23087	7	Sololá	712	San Antonio Palopó	9	San Antonio Palopo	12	Diciembre	2023-05-12T00:00:00	2024-11-08T15:00:00	1	Precipitación	0
23088	7	Sololá	712	San Antonio Palopó	9	San Antonio Palopo	12	Diciembre	2023-05-12T00:00:00	2024-11-08T15:00:00	8	Radiación solar	546
23089	7	Sololá	712	San Antonio Palopó	9	San Antonio Palopo	12	Diciembre	2023-05-12T00:00:00	2024-11-08T16:00:00	2	Temperatura media	25.8
23090	7	Sololá	712	San Antonio Palopó	9	San Antonio Palopo	12	Diciembre	2023-05-12T00:00:00	2024-11-08T16:00:00	4	Temperatura máxima	26.1
23091	7	Sololá	712	San Antonio Palopó	9	San Antonio Palopo	12	Diciembre	2023-05-12T00:00:00	2024-11-08T16:00:00	3	Temperatura mínima	25.1
23092	7	Sololá	712	San Antonio Palopó	9	San Antonio Palopo	12	Diciembre	2023-05-12T00:00:00	2024-11-08T16:00:00	5	Humedad	50
23093	7	Sololá	712	San Antonio Palopó	9	San Antonio Palopo	12	Diciembre	2023-05-12T00:00:00	2024-11-08T16:00:00	6	Velocidad del viento	12.9
23094	7	Sololá	712	San Antonio Palopó	9	San Antonio Palopo	12	Diciembre	2023-05-12T00:00:00	2024-11-08T16:00:00	7	Dirección del viento	12.87
23095	7	Sololá	712	San Antonio Palopó	9	San Antonio Palopo	12	Diciembre	2023-05-12T00:00:00	2024-11-08T16:00:00	1	Precipitación	0
23096	7	Sololá	712	San Antonio Palopó	9	San Antonio Palopo	12	Diciembre	2023-05-12T00:00:00	2024-11-08T16:00:00	8	Radiación solar	375
23097	7	Sololá	712	San Antonio Palopó	9	San Antonio Palopo	12	Diciembre	2023-05-12T00:00:00	2024-11-08T17:00:00	2	Temperatura media	24
23098	7	Sololá	712	San Antonio Palopó	9	San Antonio Palopo	12	Diciembre	2023-05-12T00:00:00	2024-11-08T17:00:00	4	Temperatura máxima	25.8
23099	7	Sololá	712	San Antonio Palopó	9	San Antonio Palopo	12	Diciembre	2023-05-12T00:00:00	2024-11-08T17:00:00	3	Temperatura mínima	24
23100	7	Sololá	712	San Antonio Palopó	9	San Antonio Palopo	12	Diciembre	2023-05-12T00:00:00	2024-11-08T17:00:00	5	Humedad	53
23101	7	Sololá	712	San Antonio Palopó	9	San Antonio Palopo	12	Diciembre	2023-05-12T00:00:00	2024-11-08T17:00:00	6	Velocidad del viento	9.7
23102	7	Sololá	712	San Antonio Palopó	9	San Antonio Palopo	12	Diciembre	2023-05-12T00:00:00	2024-11-08T17:00:00	7	Dirección del viento	9.66
23103	7	Sololá	712	San Antonio Palopó	9	San Antonio Palopo	12	Diciembre	2023-05-12T00:00:00	2024-11-08T17:00:00	1	Precipitación	0
23104	7	Sololá	712	San Antonio Palopó	9	San Antonio Palopo	12	Diciembre	2023-05-12T00:00:00	2024-11-08T17:00:00	8	Radiación solar	140
23105	7	Sololá	712	San Antonio Palopó	9	San Antonio Palopo	12	Diciembre	2023-05-12T00:00:00	2024-11-08T18:00:00	2	Temperatura media	22.4
23106	7	Sololá	712	San Antonio Palopó	9	San Antonio Palopo	12	Diciembre	2023-05-12T00:00:00	2024-11-08T18:00:00	4	Temperatura máxima	24.4
23107	7	Sololá	712	San Antonio Palopó	9	San Antonio Palopo	12	Diciembre	2023-05-12T00:00:00	2024-11-08T18:00:00	3	Temperatura mínima	22.4
23108	7	Sololá	712	San Antonio Palopó	9	San Antonio Palopo	12	Diciembre	2023-05-12T00:00:00	2024-11-08T18:00:00	5	Humedad	56
23109	7	Sololá	712	San Antonio Palopó	9	San Antonio Palopo	12	Diciembre	2023-05-12T00:00:00	2024-11-08T18:00:00	6	Velocidad del viento	6.4
23110	7	Sololá	712	San Antonio Palopó	9	San Antonio Palopo	12	Diciembre	2023-05-12T00:00:00	2024-11-08T18:00:00	7	Dirección del viento	6.44
23111	7	Sololá	712	San Antonio Palopó	9	San Antonio Palopo	12	Diciembre	2023-05-12T00:00:00	2024-11-08T18:00:00	1	Precipitación	0
23112	7	Sololá	712	San Antonio Palopó	9	San Antonio Palopo	12	Diciembre	2023-05-12T00:00:00	2024-11-08T18:00:00	8	Radiación solar	11
23113	7	Sololá	712	San Antonio Palopó	9	San Antonio Palopo	12	Diciembre	2023-05-12T00:00:00	2024-11-08T19:00:00	2	Temperatura media	20.6
23114	7	Sololá	712	San Antonio Palopó	9	San Antonio Palopo	12	Diciembre	2023-05-12T00:00:00	2024-11-08T19:00:00	4	Temperatura máxima	22.4
23115	7	Sololá	712	San Antonio Palopó	9	San Antonio Palopo	12	Diciembre	2023-05-12T00:00:00	2024-11-08T19:00:00	3	Temperatura mínima	20.6
23116	7	Sololá	712	San Antonio Palopó	9	San Antonio Palopo	12	Diciembre	2023-05-12T00:00:00	2024-11-08T19:00:00	5	Humedad	66
23117	7	Sololá	712	San Antonio Palopó	9	San Antonio Palopo	12	Diciembre	2023-05-12T00:00:00	2024-11-08T19:00:00	6	Velocidad del viento	4.8
23118	7	Sololá	712	San Antonio Palopó	9	San Antonio Palopo	12	Diciembre	2023-05-12T00:00:00	2024-11-08T19:00:00	7	Dirección del viento	4.83
23119	7	Sololá	712	San Antonio Palopó	9	San Antonio Palopo	12	Diciembre	2023-05-12T00:00:00	2024-11-08T19:00:00	1	Precipitación	0
23120	7	Sololá	712	San Antonio Palopó	9	San Antonio Palopo	12	Diciembre	2023-05-12T00:00:00	2024-11-08T19:00:00	8	Radiación solar	0
23121	7	Sololá	712	San Antonio Palopó	9	San Antonio Palopo	12	Diciembre	2023-05-12T00:00:00	2024-11-08T20:00:00	2	Temperatura media	20.2
23122	7	Sololá	712	San Antonio Palopó	9	San Antonio Palopo	12	Diciembre	2023-05-12T00:00:00	2024-11-08T20:00:00	4	Temperatura máxima	20.6
23123	7	Sololá	712	San Antonio Palopó	9	San Antonio Palopo	12	Diciembre	2023-05-12T00:00:00	2024-11-08T20:00:00	3	Temperatura mínima	20.2
23124	7	Sololá	712	San Antonio Palopó	9	San Antonio Palopo	12	Diciembre	2023-05-12T00:00:00	2024-11-08T20:00:00	5	Humedad	68
23125	7	Sololá	712	San Antonio Palopó	9	San Antonio Palopo	12	Diciembre	2023-05-12T00:00:00	2024-11-08T20:00:00	6	Velocidad del viento	8
23126	7	Sololá	712	San Antonio Palopó	9	San Antonio Palopo	12	Diciembre	2023-05-12T00:00:00	2024-11-08T20:00:00	7	Dirección del viento	8.05
23127	7	Sololá	712	San Antonio Palopó	9	San Antonio Palopo	12	Diciembre	2023-05-12T00:00:00	2024-11-08T20:00:00	1	Precipitación	0
23128	7	Sololá	712	San Antonio Palopó	9	San Antonio Palopo	12	Diciembre	2023-05-12T00:00:00	2024-11-08T20:00:00	8	Radiación solar	0
23129	7	Sololá	712	San Antonio Palopó	9	San Antonio Palopo	12	Diciembre	2023-05-12T00:00:00	2024-11-08T21:00:00	2	Temperatura media	19.3
23130	7	Sololá	712	San Antonio Palopó	9	San Antonio Palopo	12	Diciembre	2023-05-12T00:00:00	2024-11-08T21:00:00	4	Temperatura máxima	20.2
23131	7	Sololá	712	San Antonio Palopó	9	San Antonio Palopo	12	Diciembre	2023-05-12T00:00:00	2024-11-08T21:00:00	3	Temperatura mínima	19.3
23132	7	Sololá	712	San Antonio Palopó	9	San Antonio Palopo	12	Diciembre	2023-05-12T00:00:00	2024-11-08T21:00:00	5	Humedad	70
23133	7	Sololá	712	San Antonio Palopó	9	San Antonio Palopo	12	Diciembre	2023-05-12T00:00:00	2024-11-08T21:00:00	6	Velocidad del viento	4.8
23134	7	Sololá	712	San Antonio Palopó	9	San Antonio Palopo	12	Diciembre	2023-05-12T00:00:00	2024-11-08T21:00:00	7	Dirección del viento	4.83
23135	7	Sololá	712	San Antonio Palopó	9	San Antonio Palopo	12	Diciembre	2023-05-12T00:00:00	2024-11-08T21:00:00	1	Precipitación	0
23136	7	Sololá	712	San Antonio Palopó	9	San Antonio Palopo	12	Diciembre	2023-05-12T00:00:00	2024-11-08T21:00:00	8	Radiación solar	0
23137	7	Sololá	712	San Antonio Palopó	9	San Antonio Palopo	12	Diciembre	2023-05-12T00:00:00	2024-11-08T22:00:00	2	Temperatura media	19.7
23138	7	Sololá	712	San Antonio Palopó	9	San Antonio Palopo	12	Diciembre	2023-05-12T00:00:00	2024-11-08T22:00:00	4	Temperatura máxima	19.9
23139	7	Sololá	712	San Antonio Palopó	9	San Antonio Palopo	12	Diciembre	2023-05-12T00:00:00	2024-11-08T22:00:00	3	Temperatura mínima	19.3
23140	7	Sololá	712	San Antonio Palopó	9	San Antonio Palopo	12	Diciembre	2023-05-12T00:00:00	2024-11-08T22:00:00	5	Humedad	68
23141	7	Sololá	712	San Antonio Palopó	9	San Antonio Palopo	12	Diciembre	2023-05-12T00:00:00	2024-11-08T22:00:00	6	Velocidad del viento	6.4
23142	7	Sololá	712	San Antonio Palopó	9	San Antonio Palopo	12	Diciembre	2023-05-12T00:00:00	2024-11-08T22:00:00	7	Dirección del viento	6.44
23143	7	Sololá	712	San Antonio Palopó	9	San Antonio Palopo	12	Diciembre	2023-05-12T00:00:00	2024-11-08T22:00:00	1	Precipitación	0
23144	7	Sololá	712	San Antonio Palopó	9	San Antonio Palopo	12	Diciembre	2023-05-12T00:00:00	2024-11-08T22:00:00	8	Radiación solar	0
23145	7	Sololá	712	San Antonio Palopó	9	San Antonio Palopo	12	Diciembre	2023-05-12T00:00:00	2024-11-08T23:00:00	2	Temperatura media	19.6
23146	7	Sololá	712	San Antonio Palopó	9	San Antonio Palopo	12	Diciembre	2023-05-12T00:00:00	2024-11-08T23:00:00	4	Temperatura máxima	19.7
23147	7	Sololá	712	San Antonio Palopó	9	San Antonio Palopo	12	Diciembre	2023-05-12T00:00:00	2024-11-08T23:00:00	3	Temperatura mínima	19.3
23148	7	Sololá	712	San Antonio Palopó	9	San Antonio Palopo	12	Diciembre	2023-05-12T00:00:00	2024-11-08T23:00:00	5	Humedad	67
23149	7	Sololá	712	San Antonio Palopó	9	San Antonio Palopo	12	Diciembre	2023-05-12T00:00:00	2024-11-08T23:00:00	6	Velocidad del viento	11.3
23150	7	Sololá	712	San Antonio Palopó	9	San Antonio Palopo	12	Diciembre	2023-05-12T00:00:00	2024-11-08T23:00:00	7	Dirección del viento	11.27
23151	7	Sololá	712	San Antonio Palopó	9	San Antonio Palopo	12	Diciembre	2023-05-12T00:00:00	2024-11-08T23:00:00	1	Precipitación	0
23152	7	Sololá	712	San Antonio Palopó	9	San Antonio Palopo	12	Diciembre	2023-05-12T00:00:00	2024-11-08T23:00:00	8	Radiación solar	0
23153	7	Sololá	712	San Antonio Palopó	9	San Antonio Palopo	12	Diciembre	2023-06-12T00:00:00	2024-11-08T00:00:00	2	Temperatura media	19.5
23154	7	Sololá	712	San Antonio Palopó	9	San Antonio Palopo	12	Diciembre	2023-06-12T00:00:00	2024-11-08T00:00:00	4	Temperatura máxima	19.6
23155	7	Sololá	712	San Antonio Palopó	9	San Antonio Palopo	12	Diciembre	2023-06-12T00:00:00	2024-11-08T00:00:00	3	Temperatura mínima	19.3
23156	7	Sololá	712	San Antonio Palopó	9	San Antonio Palopo	12	Diciembre	2023-06-12T00:00:00	2024-11-08T00:00:00	5	Humedad	66
23157	7	Sololá	712	San Antonio Palopó	9	San Antonio Palopo	12	Diciembre	2023-06-12T00:00:00	2024-11-08T00:00:00	6	Velocidad del viento	6.4
23158	7	Sololá	712	San Antonio Palopó	9	San Antonio Palopo	12	Diciembre	2023-06-12T00:00:00	2024-11-08T00:00:00	7	Dirección del viento	6.44
23159	7	Sololá	712	San Antonio Palopó	9	San Antonio Palopo	12	Diciembre	2023-06-12T00:00:00	2024-11-08T00:00:00	1	Precipitación	0
23160	7	Sololá	712	San Antonio Palopó	9	San Antonio Palopo	12	Diciembre	2023-06-12T00:00:00	2024-11-08T00:00:00	8	Radiación solar	0
23161	7	Sololá	712	San Antonio Palopó	9	San Antonio Palopo	12	Diciembre	2023-06-12T00:00:00	2024-11-08T01:00:00	2	Temperatura media	19.6
23162	7	Sololá	712	San Antonio Palopó	9	San Antonio Palopo	12	Diciembre	2023-06-12T00:00:00	2024-11-08T01:00:00	4	Temperatura máxima	19.8
23163	7	Sololá	712	San Antonio Palopó	9	San Antonio Palopo	12	Diciembre	2023-06-12T00:00:00	2024-11-08T01:00:00	3	Temperatura mínima	19.5
23164	7	Sololá	712	San Antonio Palopó	9	San Antonio Palopo	12	Diciembre	2023-06-12T00:00:00	2024-11-08T01:00:00	5	Humedad	67
23165	7	Sololá	712	San Antonio Palopó	9	San Antonio Palopo	12	Diciembre	2023-06-12T00:00:00	2024-11-08T01:00:00	6	Velocidad del viento	8
23166	7	Sololá	712	San Antonio Palopó	9	San Antonio Palopo	12	Diciembre	2023-06-12T00:00:00	2024-11-08T01:00:00	7	Dirección del viento	8.05
23167	7	Sololá	712	San Antonio Palopó	9	San Antonio Palopo	12	Diciembre	2023-06-12T00:00:00	2024-11-08T01:00:00	1	Precipitación	0
23168	7	Sololá	712	San Antonio Palopó	9	San Antonio Palopo	12	Diciembre	2023-06-12T00:00:00	2024-11-08T01:00:00	8	Radiación solar	0
23169	7	Sololá	712	San Antonio Palopó	9	San Antonio Palopo	12	Diciembre	2023-06-12T00:00:00	2024-11-08T02:00:00	2	Temperatura media	19.7
23170	7	Sololá	712	San Antonio Palopó	9	San Antonio Palopo	12	Diciembre	2023-06-12T00:00:00	2024-11-08T02:00:00	4	Temperatura máxima	19.8
23171	7	Sololá	712	San Antonio Palopó	9	San Antonio Palopo	12	Diciembre	2023-06-12T00:00:00	2024-11-08T02:00:00	3	Temperatura mínima	19.6
23172	7	Sololá	712	San Antonio Palopó	9	San Antonio Palopo	12	Diciembre	2023-06-12T00:00:00	2024-11-08T02:00:00	5	Humedad	69
23173	7	Sololá	712	San Antonio Palopó	9	San Antonio Palopo	12	Diciembre	2023-06-12T00:00:00	2024-11-08T02:00:00	6	Velocidad del viento	16.1
23174	7	Sololá	712	San Antonio Palopó	9	San Antonio Palopo	12	Diciembre	2023-06-12T00:00:00	2024-11-08T02:00:00	7	Dirección del viento	16.09
23175	7	Sololá	712	San Antonio Palopó	9	San Antonio Palopo	12	Diciembre	2023-06-12T00:00:00	2024-11-08T02:00:00	1	Precipitación	0
23176	7	Sololá	712	San Antonio Palopó	9	San Antonio Palopo	12	Diciembre	2023-06-12T00:00:00	2024-11-08T02:00:00	8	Radiación solar	0
23177	7	Sololá	712	San Antonio Palopó	9	San Antonio Palopo	12	Diciembre	2023-06-12T00:00:00	2024-11-08T03:00:00	2	Temperatura media	19.5
23178	7	Sololá	712	San Antonio Palopó	9	San Antonio Palopo	12	Diciembre	2023-06-12T00:00:00	2024-11-08T03:00:00	4	Temperatura máxima	19.7
23179	7	Sololá	712	San Antonio Palopó	9	San Antonio Palopo	12	Diciembre	2023-06-12T00:00:00	2024-11-08T03:00:00	3	Temperatura mínima	19.4
23180	7	Sololá	712	San Antonio Palopó	9	San Antonio Palopo	12	Diciembre	2023-06-12T00:00:00	2024-11-08T03:00:00	5	Humedad	70
23181	7	Sololá	712	San Antonio Palopó	9	San Antonio Palopo	12	Diciembre	2023-06-12T00:00:00	2024-11-08T03:00:00	6	Velocidad del viento	19.3
23182	7	Sololá	712	San Antonio Palopó	9	San Antonio Palopo	12	Diciembre	2023-06-12T00:00:00	2024-11-08T03:00:00	7	Dirección del viento	19.31
23183	7	Sololá	712	San Antonio Palopó	9	San Antonio Palopo	12	Diciembre	2023-06-12T00:00:00	2024-11-08T03:00:00	1	Precipitación	0
23184	7	Sololá	712	San Antonio Palopó	9	San Antonio Palopo	12	Diciembre	2023-06-12T00:00:00	2024-11-08T03:00:00	8	Radiación solar	0
23185	7	Sololá	712	San Antonio Palopó	9	San Antonio Palopo	12	Diciembre	2023-06-12T00:00:00	2024-11-08T04:00:00	2	Temperatura media	19.1
23186	7	Sololá	712	San Antonio Palopó	9	San Antonio Palopo	12	Diciembre	2023-06-12T00:00:00	2024-11-08T04:00:00	4	Temperatura máxima	19.7
23187	7	Sololá	712	San Antonio Palopó	9	San Antonio Palopo	12	Diciembre	2023-06-12T00:00:00	2024-11-08T04:00:00	3	Temperatura mínima	19.1
23188	7	Sololá	712	San Antonio Palopó	9	San Antonio Palopo	12	Diciembre	2023-06-12T00:00:00	2024-11-08T04:00:00	5	Humedad	70
23189	7	Sololá	712	San Antonio Palopó	9	San Antonio Palopo	12	Diciembre	2023-06-12T00:00:00	2024-11-08T04:00:00	6	Velocidad del viento	9.7
23190	7	Sololá	712	San Antonio Palopó	9	San Antonio Palopo	12	Diciembre	2023-06-12T00:00:00	2024-11-08T04:00:00	7	Dirección del viento	9.66
23191	7	Sololá	712	San Antonio Palopó	9	San Antonio Palopo	12	Diciembre	2023-06-12T00:00:00	2024-11-08T04:00:00	1	Precipitación	0
23192	7	Sololá	712	San Antonio Palopó	9	San Antonio Palopo	12	Diciembre	2023-06-12T00:00:00	2024-11-08T04:00:00	8	Radiación solar	0
23193	7	Sololá	712	San Antonio Palopó	9	San Antonio Palopo	12	Diciembre	2023-06-12T00:00:00	2024-11-08T05:00:00	2	Temperatura media	19.6
23194	7	Sololá	712	San Antonio Palopó	9	San Antonio Palopo	12	Diciembre	2023-06-12T00:00:00	2024-11-08T05:00:00	4	Temperatura máxima	19.7
23195	7	Sololá	712	San Antonio Palopó	9	San Antonio Palopo	12	Diciembre	2023-06-12T00:00:00	2024-11-08T05:00:00	3	Temperatura mínima	18.8
23196	7	Sololá	712	San Antonio Palopó	9	San Antonio Palopo	12	Diciembre	2023-06-12T00:00:00	2024-11-08T05:00:00	5	Humedad	70
23197	7	Sololá	712	San Antonio Palopó	9	San Antonio Palopo	12	Diciembre	2023-06-12T00:00:00	2024-11-08T05:00:00	6	Velocidad del viento	9.7
23198	7	Sololá	712	San Antonio Palopó	9	San Antonio Palopo	12	Diciembre	2023-06-12T00:00:00	2024-11-08T05:00:00	7	Dirección del viento	9.66
23199	7	Sololá	712	San Antonio Palopó	9	San Antonio Palopo	12	Diciembre	2023-06-12T00:00:00	2024-11-08T05:00:00	1	Precipitación	0
23200	7	Sololá	712	San Antonio Palopó	9	San Antonio Palopo	12	Diciembre	2023-06-12T00:00:00	2024-11-08T05:00:00	8	Radiación solar	0
23201	7	Sololá	712	San Antonio Palopó	9	San Antonio Palopo	12	Diciembre	2023-06-12T00:00:00	2024-11-08T06:00:00	2	Temperatura media	19.4
23202	7	Sololá	712	San Antonio Palopó	9	San Antonio Palopo	12	Diciembre	2023-06-12T00:00:00	2024-11-08T06:00:00	4	Temperatura máxima	19.8
23203	7	Sololá	712	San Antonio Palopó	9	San Antonio Palopo	12	Diciembre	2023-06-12T00:00:00	2024-11-08T06:00:00	3	Temperatura mínima	19.1
23204	7	Sololá	712	San Antonio Palopó	9	San Antonio Palopo	12	Diciembre	2023-06-12T00:00:00	2024-11-08T06:00:00	5	Humedad	71
23205	7	Sololá	712	San Antonio Palopó	9	San Antonio Palopo	12	Diciembre	2023-06-12T00:00:00	2024-11-08T06:00:00	6	Velocidad del viento	6.4
23206	7	Sololá	712	San Antonio Palopó	9	San Antonio Palopo	12	Diciembre	2023-06-12T00:00:00	2024-11-08T06:00:00	7	Dirección del viento	6.44
23207	7	Sololá	712	San Antonio Palopó	9	San Antonio Palopo	12	Diciembre	2023-06-12T00:00:00	2024-11-08T06:00:00	1	Precipitación	0
23208	7	Sololá	712	San Antonio Palopó	9	San Antonio Palopo	12	Diciembre	2023-06-12T00:00:00	2024-11-08T06:00:00	8	Radiación solar	0
23209	7	Sololá	712	San Antonio Palopó	9	San Antonio Palopo	12	Diciembre	2023-06-12T00:00:00	2024-11-08T07:00:00	2	Temperatura media	19.8
23210	7	Sololá	712	San Antonio Palopó	9	San Antonio Palopo	12	Diciembre	2023-06-12T00:00:00	2024-11-08T07:00:00	4	Temperatura máxima	19.9
23211	7	Sololá	712	San Antonio Palopó	9	San Antonio Palopo	12	Diciembre	2023-06-12T00:00:00	2024-11-08T07:00:00	3	Temperatura mínima	19.1
23212	7	Sololá	712	San Antonio Palopó	9	San Antonio Palopo	12	Diciembre	2023-06-12T00:00:00	2024-11-08T07:00:00	5	Humedad	70
23213	7	Sololá	712	San Antonio Palopó	9	San Antonio Palopo	12	Diciembre	2023-06-12T00:00:00	2024-11-08T07:00:00	6	Velocidad del viento	4.8
23214	7	Sololá	712	San Antonio Palopó	9	San Antonio Palopo	12	Diciembre	2023-06-12T00:00:00	2024-11-08T07:00:00	7	Dirección del viento	4.83
23215	7	Sololá	712	San Antonio Palopó	9	San Antonio Palopo	12	Diciembre	2023-06-12T00:00:00	2024-11-08T07:00:00	1	Precipitación	0
23216	7	Sololá	712	San Antonio Palopó	9	San Antonio Palopo	12	Diciembre	2023-06-12T00:00:00	2024-11-08T07:00:00	8	Radiación solar	9
23217	7	Sololá	712	San Antonio Palopó	9	San Antonio Palopo	12	Diciembre	2023-06-12T00:00:00	2024-11-08T08:00:00	2	Temperatura media	20.3
23218	7	Sololá	712	San Antonio Palopó	9	San Antonio Palopo	12	Diciembre	2023-06-12T00:00:00	2024-11-08T08:00:00	4	Temperatura máxima	20.3
23219	7	Sololá	712	San Antonio Palopó	9	San Antonio Palopo	12	Diciembre	2023-06-12T00:00:00	2024-11-08T08:00:00	3	Temperatura mínima	19.8
23220	7	Sololá	712	San Antonio Palopó	9	San Antonio Palopo	12	Diciembre	2023-06-12T00:00:00	2024-11-08T08:00:00	5	Humedad	68
23221	7	Sololá	712	San Antonio Palopó	9	San Antonio Palopo	12	Diciembre	2023-06-12T00:00:00	2024-11-08T08:00:00	6	Velocidad del viento	8
23222	7	Sololá	712	San Antonio Palopó	9	San Antonio Palopo	12	Diciembre	2023-06-12T00:00:00	2024-11-08T08:00:00	7	Dirección del viento	8.05
23223	7	Sololá	712	San Antonio Palopó	9	San Antonio Palopo	12	Diciembre	2023-06-12T00:00:00	2024-11-08T08:00:00	1	Precipitación	0
23224	7	Sololá	712	San Antonio Palopó	9	San Antonio Palopo	12	Diciembre	2023-06-12T00:00:00	2024-11-08T08:00:00	8	Radiación solar	47
23225	7	Sololá	712	San Antonio Palopó	9	San Antonio Palopo	12	Diciembre	2023-06-12T00:00:00	2024-11-08T09:00:00	2	Temperatura media	20.7
23226	7	Sololá	712	San Antonio Palopó	9	San Antonio Palopo	12	Diciembre	2023-06-12T00:00:00	2024-11-08T09:00:00	4	Temperatura máxima	20.7
23227	7	Sololá	712	San Antonio Palopó	9	San Antonio Palopo	12	Diciembre	2023-06-12T00:00:00	2024-11-08T09:00:00	3	Temperatura mínima	20.3
23228	7	Sololá	712	San Antonio Palopó	9	San Antonio Palopo	12	Diciembre	2023-06-12T00:00:00	2024-11-08T09:00:00	5	Humedad	67
23229	7	Sololá	712	San Antonio Palopó	9	San Antonio Palopo	12	Diciembre	2023-06-12T00:00:00	2024-11-08T09:00:00	6	Velocidad del viento	6.4
23230	7	Sololá	712	San Antonio Palopó	9	San Antonio Palopo	12	Diciembre	2023-06-12T00:00:00	2024-11-08T09:00:00	7	Dirección del viento	6.44
23231	7	Sololá	712	San Antonio Palopó	9	San Antonio Palopo	12	Diciembre	2023-06-12T00:00:00	2024-11-08T09:00:00	1	Precipitación	0
23232	7	Sololá	712	San Antonio Palopó	9	San Antonio Palopo	12	Diciembre	2023-06-12T00:00:00	2024-11-08T09:00:00	8	Radiación solar	91
23233	7	Sololá	712	San Antonio Palopó	9	San Antonio Palopo	12	Diciembre	2023-06-12T00:00:00	2024-11-08T10:00:00	2	Temperatura media	21.2
23234	7	Sololá	712	San Antonio Palopó	9	San Antonio Palopo	12	Diciembre	2023-06-12T00:00:00	2024-11-08T10:00:00	4	Temperatura máxima	21.3
23235	7	Sololá	712	San Antonio Palopó	9	San Antonio Palopo	12	Diciembre	2023-06-12T00:00:00	2024-11-08T10:00:00	3	Temperatura mínima	20.6
23236	7	Sololá	712	San Antonio Palopó	9	San Antonio Palopo	12	Diciembre	2023-06-12T00:00:00	2024-11-08T10:00:00	5	Humedad	65
23237	7	Sololá	712	San Antonio Palopó	9	San Antonio Palopo	12	Diciembre	2023-06-12T00:00:00	2024-11-08T10:00:00	6	Velocidad del viento	12.9
23238	7	Sololá	712	San Antonio Palopó	9	San Antonio Palopo	12	Diciembre	2023-06-12T00:00:00	2024-11-08T10:00:00	7	Dirección del viento	12.87
23239	7	Sololá	712	San Antonio Palopó	9	San Antonio Palopo	12	Diciembre	2023-06-12T00:00:00	2024-11-08T10:00:00	1	Precipitación	0
23240	7	Sololá	712	San Antonio Palopó	9	San Antonio Palopo	12	Diciembre	2023-06-12T00:00:00	2024-11-08T10:00:00	8	Radiación solar	196
23241	7	Sololá	712	San Antonio Palopó	9	San Antonio Palopo	12	Diciembre	2023-06-12T00:00:00	2024-11-08T11:00:00	2	Temperatura media	21.6
23242	7	Sololá	712	San Antonio Palopó	9	San Antonio Palopo	12	Diciembre	2023-06-12T00:00:00	2024-11-08T11:00:00	4	Temperatura máxima	21.9
23243	7	Sololá	712	San Antonio Palopó	9	San Antonio Palopo	12	Diciembre	2023-06-12T00:00:00	2024-11-08T11:00:00	3	Temperatura mínima	21.2
23244	7	Sololá	712	San Antonio Palopó	9	San Antonio Palopo	12	Diciembre	2023-06-12T00:00:00	2024-11-08T11:00:00	5	Humedad	63
23245	7	Sololá	712	San Antonio Palopó	9	San Antonio Palopo	12	Diciembre	2023-06-12T00:00:00	2024-11-08T11:00:00	6	Velocidad del viento	14.5
23246	7	Sololá	712	San Antonio Palopó	9	San Antonio Palopo	12	Diciembre	2023-06-12T00:00:00	2024-11-08T11:00:00	7	Dirección del viento	14.48
23247	7	Sololá	712	San Antonio Palopó	9	San Antonio Palopo	12	Diciembre	2023-06-12T00:00:00	2024-11-08T11:00:00	1	Precipitación	0
23248	7	Sololá	712	San Antonio Palopó	9	San Antonio Palopo	12	Diciembre	2023-06-12T00:00:00	2024-11-08T11:00:00	8	Radiación solar	694
23249	7	Sololá	712	San Antonio Palopó	9	San Antonio Palopo	12	Diciembre	2023-06-12T00:00:00	2024-11-08T12:00:00	2	Temperatura media	21.9
23250	7	Sololá	712	San Antonio Palopó	9	San Antonio Palopo	12	Diciembre	2023-06-12T00:00:00	2024-11-08T12:00:00	4	Temperatura máxima	22.3
23251	7	Sololá	712	San Antonio Palopó	9	San Antonio Palopo	12	Diciembre	2023-06-12T00:00:00	2024-11-08T12:00:00	3	Temperatura mínima	21.6
23252	7	Sololá	712	San Antonio Palopó	9	San Antonio Palopo	12	Diciembre	2023-06-12T00:00:00	2024-11-08T12:00:00	5	Humedad	60
23253	7	Sololá	712	San Antonio Palopó	9	San Antonio Palopo	12	Diciembre	2023-06-12T00:00:00	2024-11-08T12:00:00	6	Velocidad del viento	22.5
23254	7	Sololá	712	San Antonio Palopó	9	San Antonio Palopo	12	Diciembre	2023-06-12T00:00:00	2024-11-08T12:00:00	7	Dirección del viento	22.53
23255	7	Sololá	712	San Antonio Palopó	9	San Antonio Palopo	12	Diciembre	2023-06-12T00:00:00	2024-11-08T12:00:00	1	Precipitación	0
23256	7	Sololá	712	San Antonio Palopó	9	San Antonio Palopo	12	Diciembre	2023-06-12T00:00:00	2024-11-08T12:00:00	8	Radiación solar	697
23257	7	Sololá	712	San Antonio Palopó	9	San Antonio Palopo	12	Diciembre	2023-06-12T00:00:00	2024-11-08T13:00:00	2	Temperatura media	21.8
23258	7	Sololá	712	San Antonio Palopó	9	San Antonio Palopo	12	Diciembre	2023-06-12T00:00:00	2024-11-08T13:00:00	4	Temperatura máxima	22.2
23259	7	Sololá	712	San Antonio Palopó	9	San Antonio Palopo	12	Diciembre	2023-06-12T00:00:00	2024-11-08T13:00:00	3	Temperatura mínima	21.8
23260	7	Sololá	712	San Antonio Palopó	9	San Antonio Palopo	12	Diciembre	2023-06-12T00:00:00	2024-11-08T13:00:00	5	Humedad	55
23261	7	Sololá	712	San Antonio Palopó	9	San Antonio Palopo	12	Diciembre	2023-06-12T00:00:00	2024-11-08T13:00:00	6	Velocidad del viento	24.1
23262	7	Sololá	712	San Antonio Palopó	9	San Antonio Palopo	12	Diciembre	2023-06-12T00:00:00	2024-11-08T13:00:00	7	Dirección del viento	24.14
23263	7	Sololá	712	San Antonio Palopó	9	San Antonio Palopo	12	Diciembre	2023-06-12T00:00:00	2024-11-08T13:00:00	1	Precipitación	0
23264	7	Sololá	712	San Antonio Palopó	9	San Antonio Palopo	12	Diciembre	2023-06-12T00:00:00	2024-11-08T13:00:00	8	Radiación solar	342
23265	7	Sololá	712	San Antonio Palopó	9	San Antonio Palopo	12	Diciembre	2023-06-12T00:00:00	2024-11-08T14:00:00	2	Temperatura media	21.8
23266	7	Sololá	712	San Antonio Palopó	9	San Antonio Palopo	12	Diciembre	2023-06-12T00:00:00	2024-11-08T14:00:00	4	Temperatura máxima	22.3
23267	7	Sololá	712	San Antonio Palopó	9	San Antonio Palopo	12	Diciembre	2023-06-12T00:00:00	2024-11-08T14:00:00	3	Temperatura mínima	21.7
23268	7	Sololá	712	San Antonio Palopó	9	San Antonio Palopo	12	Diciembre	2023-06-12T00:00:00	2024-11-08T14:00:00	5	Humedad	56
23269	7	Sololá	712	San Antonio Palopó	9	San Antonio Palopo	12	Diciembre	2023-06-12T00:00:00	2024-11-08T14:00:00	6	Velocidad del viento	20.9
23270	7	Sololá	712	San Antonio Palopó	9	San Antonio Palopo	12	Diciembre	2023-06-12T00:00:00	2024-11-08T14:00:00	7	Dirección del viento	20.92
23271	7	Sololá	712	San Antonio Palopó	9	San Antonio Palopo	12	Diciembre	2023-06-12T00:00:00	2024-11-08T14:00:00	1	Precipitación	0
23272	7	Sololá	712	San Antonio Palopó	9	San Antonio Palopo	12	Diciembre	2023-06-12T00:00:00	2024-11-08T14:00:00	8	Radiación solar	327
23273	7	Sololá	712	San Antonio Palopó	9	San Antonio Palopo	12	Diciembre	2023-06-12T00:00:00	2024-11-08T15:00:00	2	Temperatura media	22.2
23274	7	Sololá	712	San Antonio Palopó	9	San Antonio Palopo	12	Diciembre	2023-06-12T00:00:00	2024-11-08T15:00:00	4	Temperatura máxima	22.4
23275	7	Sololá	712	San Antonio Palopó	9	San Antonio Palopo	12	Diciembre	2023-06-12T00:00:00	2024-11-08T15:00:00	3	Temperatura mínima	21.7
23276	7	Sololá	712	San Antonio Palopó	9	San Antonio Palopo	12	Diciembre	2023-06-12T00:00:00	2024-11-08T15:00:00	5	Humedad	54
23277	7	Sololá	712	San Antonio Palopó	9	San Antonio Palopo	12	Diciembre	2023-06-12T00:00:00	2024-11-08T15:00:00	6	Velocidad del viento	20.9
23278	7	Sololá	712	San Antonio Palopó	9	San Antonio Palopo	12	Diciembre	2023-06-12T00:00:00	2024-11-08T15:00:00	7	Dirección del viento	20.92
23279	7	Sololá	712	San Antonio Palopó	9	San Antonio Palopo	12	Diciembre	2023-06-12T00:00:00	2024-11-08T15:00:00	1	Precipitación	0
23280	7	Sololá	712	San Antonio Palopó	9	San Antonio Palopo	12	Diciembre	2023-06-12T00:00:00	2024-11-08T15:00:00	8	Radiación solar	458
23281	7	Sololá	712	San Antonio Palopó	9	San Antonio Palopo	12	Diciembre	2023-06-12T00:00:00	2024-11-08T16:00:00	2	Temperatura media	21.8
23282	7	Sololá	712	San Antonio Palopó	9	San Antonio Palopo	12	Diciembre	2023-06-12T00:00:00	2024-11-08T16:00:00	4	Temperatura máxima	22.4
23283	7	Sololá	712	San Antonio Palopó	9	San Antonio Palopo	12	Diciembre	2023-06-12T00:00:00	2024-11-08T16:00:00	3	Temperatura mínima	21.8
23284	7	Sololá	712	San Antonio Palopó	9	San Antonio Palopo	12	Diciembre	2023-06-12T00:00:00	2024-11-08T16:00:00	5	Humedad	54
23285	7	Sololá	712	San Antonio Palopó	9	San Antonio Palopo	12	Diciembre	2023-06-12T00:00:00	2024-11-08T16:00:00	6	Velocidad del viento	19.3
23286	7	Sololá	712	San Antonio Palopó	9	San Antonio Palopo	12	Diciembre	2023-06-12T00:00:00	2024-11-08T16:00:00	7	Dirección del viento	19.31
23287	7	Sololá	712	San Antonio Palopó	9	San Antonio Palopo	12	Diciembre	2023-06-12T00:00:00	2024-11-08T16:00:00	1	Precipitación	0
23288	7	Sololá	712	San Antonio Palopó	9	San Antonio Palopo	12	Diciembre	2023-06-12T00:00:00	2024-11-08T16:00:00	8	Radiación solar	321
23289	7	Sololá	712	San Antonio Palopó	9	San Antonio Palopo	12	Diciembre	2023-06-12T00:00:00	2024-11-08T17:00:00	2	Temperatura media	20.8
23290	7	Sololá	712	San Antonio Palopó	9	San Antonio Palopo	12	Diciembre	2023-06-12T00:00:00	2024-11-08T17:00:00	4	Temperatura máxima	22.1
23291	7	Sololá	712	San Antonio Palopó	9	San Antonio Palopo	12	Diciembre	2023-06-12T00:00:00	2024-11-08T17:00:00	3	Temperatura mínima	20.8
23292	7	Sololá	712	San Antonio Palopó	9	San Antonio Palopo	12	Diciembre	2023-06-12T00:00:00	2024-11-08T17:00:00	5	Humedad	59
23293	7	Sololá	712	San Antonio Palopó	9	San Antonio Palopo	12	Diciembre	2023-06-12T00:00:00	2024-11-08T17:00:00	6	Velocidad del viento	11.3
23294	7	Sololá	712	San Antonio Palopó	9	San Antonio Palopo	12	Diciembre	2023-06-12T00:00:00	2024-11-08T17:00:00	7	Dirección del viento	11.27
23295	7	Sololá	712	San Antonio Palopó	9	San Antonio Palopo	12	Diciembre	2023-06-12T00:00:00	2024-11-08T17:00:00	1	Precipitación	0
23296	7	Sololá	712	San Antonio Palopó	9	San Antonio Palopo	12	Diciembre	2023-06-12T00:00:00	2024-11-08T17:00:00	8	Radiación solar	65
23297	7	Sololá	712	San Antonio Palopó	9	San Antonio Palopo	12	Diciembre	2023-06-12T00:00:00	2024-11-08T18:00:00	2	Temperatura media	20
23298	7	Sololá	712	San Antonio Palopó	9	San Antonio Palopo	12	Diciembre	2023-06-12T00:00:00	2024-11-08T18:00:00	4	Temperatura máxima	20.8
23299	7	Sololá	712	San Antonio Palopó	9	San Antonio Palopo	12	Diciembre	2023-06-12T00:00:00	2024-11-08T18:00:00	3	Temperatura mínima	20
23300	7	Sololá	712	San Antonio Palopó	9	San Antonio Palopo	12	Diciembre	2023-06-12T00:00:00	2024-11-08T18:00:00	5	Humedad	60
23301	7	Sololá	712	San Antonio Palopó	9	San Antonio Palopo	12	Diciembre	2023-06-12T00:00:00	2024-11-08T18:00:00	6	Velocidad del viento	9.7
23302	7	Sololá	712	San Antonio Palopó	9	San Antonio Palopo	12	Diciembre	2023-06-12T00:00:00	2024-11-08T18:00:00	7	Dirección del viento	9.66
23303	7	Sololá	712	San Antonio Palopó	9	San Antonio Palopo	12	Diciembre	2023-06-12T00:00:00	2024-11-08T18:00:00	1	Precipitación	0
23304	7	Sololá	712	San Antonio Palopó	9	San Antonio Palopo	12	Diciembre	2023-06-12T00:00:00	2024-11-08T18:00:00	8	Radiación solar	17
23305	7	Sololá	712	San Antonio Palopó	9	San Antonio Palopo	12	Diciembre	2023-06-12T00:00:00	2024-11-08T19:00:00	2	Temperatura media	19.2
23306	7	Sololá	712	San Antonio Palopó	9	San Antonio Palopo	12	Diciembre	2023-06-12T00:00:00	2024-11-08T19:00:00	4	Temperatura máxima	20
23307	7	Sololá	712	San Antonio Palopó	9	San Antonio Palopo	12	Diciembre	2023-06-12T00:00:00	2024-11-08T19:00:00	3	Temperatura mínima	19.2
23308	7	Sololá	712	San Antonio Palopó	9	San Antonio Palopo	12	Diciembre	2023-06-12T00:00:00	2024-11-08T19:00:00	5	Humedad	63
23309	7	Sololá	712	San Antonio Palopó	9	San Antonio Palopo	12	Diciembre	2023-06-12T00:00:00	2024-11-08T19:00:00	6	Velocidad del viento	9.7
23310	7	Sololá	712	San Antonio Palopó	9	San Antonio Palopo	12	Diciembre	2023-06-12T00:00:00	2024-11-08T19:00:00	7	Dirección del viento	9.66
23311	7	Sololá	712	San Antonio Palopó	9	San Antonio Palopo	12	Diciembre	2023-06-12T00:00:00	2024-11-08T19:00:00	1	Precipitación	0
23312	7	Sololá	712	San Antonio Palopó	9	San Antonio Palopo	12	Diciembre	2023-06-12T00:00:00	2024-11-08T19:00:00	8	Radiación solar	0
23313	7	Sololá	712	San Antonio Palopó	9	San Antonio Palopo	12	Diciembre	2023-06-12T00:00:00	2024-11-08T20:00:00	2	Temperatura media	19.1
23314	7	Sololá	712	San Antonio Palopó	9	San Antonio Palopo	12	Diciembre	2023-06-12T00:00:00	2024-11-08T20:00:00	4	Temperatura máxima	19.4
23315	7	Sololá	712	San Antonio Palopó	9	San Antonio Palopo	12	Diciembre	2023-06-12T00:00:00	2024-11-08T20:00:00	3	Temperatura mínima	19.1
23316	7	Sololá	712	San Antonio Palopó	9	San Antonio Palopo	12	Diciembre	2023-06-12T00:00:00	2024-11-08T20:00:00	5	Humedad	65
23317	7	Sololá	712	San Antonio Palopó	9	San Antonio Palopo	12	Diciembre	2023-06-12T00:00:00	2024-11-08T20:00:00	6	Velocidad del viento	3.2
23318	7	Sololá	712	San Antonio Palopó	9	San Antonio Palopo	12	Diciembre	2023-06-12T00:00:00	2024-11-08T20:00:00	7	Dirección del viento	3.22
23319	7	Sololá	712	San Antonio Palopó	9	San Antonio Palopo	12	Diciembre	2023-06-12T00:00:00	2024-11-08T20:00:00	1	Precipitación	0
23320	7	Sololá	712	San Antonio Palopó	9	San Antonio Palopo	12	Diciembre	2023-06-12T00:00:00	2024-11-08T20:00:00	8	Radiación solar	0
23321	7	Sololá	712	San Antonio Palopó	9	San Antonio Palopo	12	Diciembre	2023-06-12T00:00:00	2024-11-08T21:00:00	2	Temperatura media	19.4
23322	7	Sololá	712	San Antonio Palopó	9	San Antonio Palopo	12	Diciembre	2023-06-12T00:00:00	2024-11-08T21:00:00	4	Temperatura máxima	19.6
23323	7	Sololá	712	San Antonio Palopó	9	San Antonio Palopo	12	Diciembre	2023-06-12T00:00:00	2024-11-08T21:00:00	3	Temperatura mínima	18.5
23324	7	Sololá	712	San Antonio Palopó	9	San Antonio Palopo	12	Diciembre	2023-06-12T00:00:00	2024-11-08T21:00:00	5	Humedad	64
23325	7	Sololá	712	San Antonio Palopó	9	San Antonio Palopo	12	Diciembre	2023-06-12T00:00:00	2024-11-08T21:00:00	6	Velocidad del viento	6.4
23326	7	Sololá	712	San Antonio Palopó	9	San Antonio Palopo	12	Diciembre	2023-06-12T00:00:00	2024-11-08T21:00:00	7	Dirección del viento	6.44
23327	7	Sololá	712	San Antonio Palopó	9	San Antonio Palopo	12	Diciembre	2023-06-12T00:00:00	2024-11-08T21:00:00	1	Precipitación	0
23328	7	Sololá	712	San Antonio Palopó	9	San Antonio Palopo	12	Diciembre	2023-06-12T00:00:00	2024-11-08T21:00:00	8	Radiación solar	0
23329	7	Sololá	712	San Antonio Palopó	9	San Antonio Palopo	12	Diciembre	2023-06-12T00:00:00	2024-11-08T22:00:00	2	Temperatura media	19.6
23330	7	Sololá	712	San Antonio Palopó	9	San Antonio Palopo	12	Diciembre	2023-06-12T00:00:00	2024-11-08T22:00:00	4	Temperatura máxima	19.7
23331	7	Sololá	712	San Antonio Palopó	9	San Antonio Palopo	12	Diciembre	2023-06-12T00:00:00	2024-11-08T22:00:00	3	Temperatura mínima	19.3
23332	7	Sololá	712	San Antonio Palopó	9	San Antonio Palopo	12	Diciembre	2023-06-12T00:00:00	2024-11-08T22:00:00	5	Humedad	63
23333	7	Sololá	712	San Antonio Palopó	9	San Antonio Palopo	12	Diciembre	2023-06-12T00:00:00	2024-11-08T22:00:00	6	Velocidad del viento	14.5
23334	7	Sololá	712	San Antonio Palopó	9	San Antonio Palopo	12	Diciembre	2023-06-12T00:00:00	2024-11-08T22:00:00	7	Dirección del viento	14.48
23335	7	Sololá	712	San Antonio Palopó	9	San Antonio Palopo	12	Diciembre	2023-06-12T00:00:00	2024-11-08T22:00:00	1	Precipitación	0
23336	7	Sololá	712	San Antonio Palopó	9	San Antonio Palopo	12	Diciembre	2023-06-12T00:00:00	2024-11-08T22:00:00	8	Radiación solar	0
23337	7	Sololá	712	San Antonio Palopó	9	San Antonio Palopo	12	Diciembre	2023-06-12T00:00:00	2024-11-08T23:00:00	2	Temperatura media	19.2
23338	7	Sololá	712	San Antonio Palopó	9	San Antonio Palopo	12	Diciembre	2023-06-12T00:00:00	2024-11-08T23:00:00	4	Temperatura máxima	19.6
23339	7	Sololá	712	San Antonio Palopó	9	San Antonio Palopo	12	Diciembre	2023-06-12T00:00:00	2024-11-08T23:00:00	3	Temperatura mínima	18.8
23340	7	Sololá	712	San Antonio Palopó	9	San Antonio Palopo	12	Diciembre	2023-06-12T00:00:00	2024-11-08T23:00:00	5	Humedad	64
23341	7	Sololá	712	San Antonio Palopó	9	San Antonio Palopo	12	Diciembre	2023-06-12T00:00:00	2024-11-08T23:00:00	6	Velocidad del viento	11.3
23342	7	Sololá	712	San Antonio Palopó	9	San Antonio Palopo	12	Diciembre	2023-06-12T00:00:00	2024-11-08T23:00:00	7	Dirección del viento	11.27
23343	7	Sololá	712	San Antonio Palopó	9	San Antonio Palopo	12	Diciembre	2023-06-12T00:00:00	2024-11-08T23:00:00	1	Precipitación	0
23344	7	Sololá	712	San Antonio Palopó	9	San Antonio Palopo	12	Diciembre	2023-06-12T00:00:00	2024-11-08T23:00:00	8	Radiación solar	0
23345	7	Sololá	712	San Antonio Palopó	9	San Antonio Palopo	12	Diciembre	2023-07-12T00:00:00	2024-11-08T00:00:00	2	Temperatura media	18.8
23346	7	Sololá	712	San Antonio Palopó	9	San Antonio Palopo	12	Diciembre	2023-07-12T00:00:00	2024-11-08T00:00:00	4	Temperatura máxima	19.2
23347	7	Sololá	712	San Antonio Palopó	9	San Antonio Palopo	12	Diciembre	2023-07-12T00:00:00	2024-11-08T00:00:00	3	Temperatura mínima	18.8
23348	7	Sololá	712	San Antonio Palopó	9	San Antonio Palopo	12	Diciembre	2023-07-12T00:00:00	2024-11-08T00:00:00	5	Humedad	66
23349	7	Sololá	712	San Antonio Palopó	9	San Antonio Palopo	12	Diciembre	2023-07-12T00:00:00	2024-11-08T00:00:00	6	Velocidad del viento	8
23350	7	Sololá	712	San Antonio Palopó	9	San Antonio Palopo	12	Diciembre	2023-07-12T00:00:00	2024-11-08T00:00:00	7	Dirección del viento	8.05
23351	7	Sololá	712	San Antonio Palopó	9	San Antonio Palopo	12	Diciembre	2023-07-12T00:00:00	2024-11-08T00:00:00	1	Precipitación	0
23352	7	Sololá	712	San Antonio Palopó	9	San Antonio Palopo	12	Diciembre	2023-07-12T00:00:00	2024-11-08T00:00:00	8	Radiación solar	0
23353	7	Sololá	712	San Antonio Palopó	9	San Antonio Palopo	12	Diciembre	2023-07-12T00:00:00	2024-11-08T01:00:00	2	Temperatura media	19.9
23354	7	Sololá	712	San Antonio Palopó	9	San Antonio Palopo	12	Diciembre	2023-07-12T00:00:00	2024-11-08T01:00:00	4	Temperatura máxima	19.9
23355	7	Sololá	712	San Antonio Palopó	9	San Antonio Palopo	12	Diciembre	2023-07-12T00:00:00	2024-11-08T01:00:00	3	Temperatura mínima	18.6
23356	7	Sololá	712	San Antonio Palopó	9	San Antonio Palopo	12	Diciembre	2023-07-12T00:00:00	2024-11-08T01:00:00	5	Humedad	64
23357	7	Sololá	712	San Antonio Palopó	9	San Antonio Palopo	12	Diciembre	2023-07-12T00:00:00	2024-11-08T01:00:00	6	Velocidad del viento	12.9
23358	7	Sololá	712	San Antonio Palopó	9	San Antonio Palopo	12	Diciembre	2023-07-12T00:00:00	2024-11-08T01:00:00	7	Dirección del viento	12.87
23359	7	Sololá	712	San Antonio Palopó	9	San Antonio Palopo	12	Diciembre	2023-07-12T00:00:00	2024-11-08T01:00:00	1	Precipitación	0
23360	7	Sololá	712	San Antonio Palopó	9	San Antonio Palopo	12	Diciembre	2023-07-12T00:00:00	2024-11-08T01:00:00	8	Radiación solar	0
23361	7	Sololá	712	San Antonio Palopó	9	San Antonio Palopo	12	Diciembre	2023-07-12T00:00:00	2024-11-08T02:00:00	2	Temperatura media	18.8
23362	7	Sololá	712	San Antonio Palopó	9	San Antonio Palopo	12	Diciembre	2023-07-12T00:00:00	2024-11-08T02:00:00	4	Temperatura máxima	19.9
23363	7	Sololá	712	San Antonio Palopó	9	San Antonio Palopo	12	Diciembre	2023-07-12T00:00:00	2024-11-08T02:00:00	3	Temperatura mínima	18.8
23364	7	Sololá	712	San Antonio Palopó	9	San Antonio Palopo	12	Diciembre	2023-07-12T00:00:00	2024-11-08T02:00:00	5	Humedad	68
23365	7	Sololá	712	San Antonio Palopó	9	San Antonio Palopo	12	Diciembre	2023-07-12T00:00:00	2024-11-08T02:00:00	6	Velocidad del viento	6.4
23366	7	Sololá	712	San Antonio Palopó	9	San Antonio Palopo	12	Diciembre	2023-07-12T00:00:00	2024-11-08T02:00:00	7	Dirección del viento	6.44
23367	7	Sololá	712	San Antonio Palopó	9	San Antonio Palopo	12	Diciembre	2023-07-12T00:00:00	2024-11-08T02:00:00	1	Precipitación	0
23368	7	Sololá	712	San Antonio Palopó	9	San Antonio Palopo	12	Diciembre	2023-07-12T00:00:00	2024-11-08T02:00:00	8	Radiación solar	0
23369	7	Sololá	712	San Antonio Palopó	9	San Antonio Palopo	12	Diciembre	2023-07-12T00:00:00	2024-11-08T03:00:00	2	Temperatura media	18.5
23370	7	Sololá	712	San Antonio Palopó	9	San Antonio Palopo	12	Diciembre	2023-07-12T00:00:00	2024-11-08T03:00:00	4	Temperatura máxima	18.8
23371	7	Sololá	712	San Antonio Palopó	9	San Antonio Palopo	12	Diciembre	2023-07-12T00:00:00	2024-11-08T03:00:00	3	Temperatura mínima	18.5
23372	7	Sololá	712	San Antonio Palopó	9	San Antonio Palopo	12	Diciembre	2023-07-12T00:00:00	2024-11-08T03:00:00	5	Humedad	70
23373	7	Sololá	712	San Antonio Palopó	9	San Antonio Palopo	12	Diciembre	2023-07-12T00:00:00	2024-11-08T03:00:00	6	Velocidad del viento	4.8
23374	7	Sololá	712	San Antonio Palopó	9	San Antonio Palopo	12	Diciembre	2023-07-12T00:00:00	2024-11-08T03:00:00	7	Dirección del viento	4.83
23375	7	Sololá	712	San Antonio Palopó	9	San Antonio Palopo	12	Diciembre	2023-07-12T00:00:00	2024-11-08T03:00:00	1	Precipitación	0
23376	7	Sololá	712	San Antonio Palopó	9	San Antonio Palopo	12	Diciembre	2023-07-12T00:00:00	2024-11-08T03:00:00	8	Radiación solar	0
23377	7	Sololá	712	San Antonio Palopó	9	San Antonio Palopo	12	Diciembre	2023-07-12T00:00:00	2024-11-08T04:00:00	2	Temperatura media	19
23378	7	Sololá	712	San Antonio Palopó	9	San Antonio Palopo	12	Diciembre	2023-07-12T00:00:00	2024-11-08T04:00:00	4	Temperatura máxima	19.1
23379	7	Sololá	712	San Antonio Palopó	9	San Antonio Palopo	12	Diciembre	2023-07-12T00:00:00	2024-11-08T04:00:00	3	Temperatura mínima	17.7
23380	7	Sololá	712	San Antonio Palopó	9	San Antonio Palopo	12	Diciembre	2023-07-12T00:00:00	2024-11-08T04:00:00	5	Humedad	68
23381	7	Sololá	712	San Antonio Palopó	9	San Antonio Palopo	12	Diciembre	2023-07-12T00:00:00	2024-11-08T04:00:00	6	Velocidad del viento	4.8
23382	7	Sololá	712	San Antonio Palopó	9	San Antonio Palopo	12	Diciembre	2023-07-12T00:00:00	2024-11-08T04:00:00	7	Dirección del viento	4.83
23383	7	Sololá	712	San Antonio Palopó	9	San Antonio Palopo	12	Diciembre	2023-07-12T00:00:00	2024-11-08T04:00:00	1	Precipitación	0
23384	7	Sololá	712	San Antonio Palopó	9	San Antonio Palopo	12	Diciembre	2023-07-12T00:00:00	2024-11-08T04:00:00	8	Radiación solar	0
23385	7	Sololá	712	San Antonio Palopó	9	San Antonio Palopo	12	Diciembre	2023-07-12T00:00:00	2024-11-08T05:00:00	2	Temperatura media	18.9
23386	7	Sololá	712	San Antonio Palopó	9	San Antonio Palopo	12	Diciembre	2023-07-12T00:00:00	2024-11-08T05:00:00	4	Temperatura máxima	19.4
23387	7	Sololá	712	San Antonio Palopó	9	San Antonio Palopo	12	Diciembre	2023-07-12T00:00:00	2024-11-08T05:00:00	3	Temperatura mínima	18.9
23388	7	Sololá	712	San Antonio Palopó	9	San Antonio Palopo	12	Diciembre	2023-07-12T00:00:00	2024-11-08T05:00:00	5	Humedad	68
23389	7	Sololá	712	San Antonio Palopó	9	San Antonio Palopo	12	Diciembre	2023-07-12T00:00:00	2024-11-08T05:00:00	6	Velocidad del viento	8
23390	7	Sololá	712	San Antonio Palopó	9	San Antonio Palopo	12	Diciembre	2023-07-12T00:00:00	2024-11-08T05:00:00	7	Dirección del viento	8.05
23391	7	Sololá	712	San Antonio Palopó	9	San Antonio Palopo	12	Diciembre	2023-07-12T00:00:00	2024-11-08T05:00:00	1	Precipitación	0
23392	7	Sololá	712	San Antonio Palopó	9	San Antonio Palopo	12	Diciembre	2023-07-12T00:00:00	2024-11-08T05:00:00	8	Radiación solar	0
23393	7	Sololá	712	San Antonio Palopó	9	San Antonio Palopo	12	Diciembre	2023-07-12T00:00:00	2024-11-08T06:00:00	2	Temperatura media	18.9
23394	7	Sololá	712	San Antonio Palopó	9	San Antonio Palopo	12	Diciembre	2023-07-12T00:00:00	2024-11-08T06:00:00	4	Temperatura máxima	19.1
23395	7	Sololá	712	San Antonio Palopó	9	San Antonio Palopo	12	Diciembre	2023-07-12T00:00:00	2024-11-08T06:00:00	3	Temperatura mínima	18.6
23396	7	Sololá	712	San Antonio Palopó	9	San Antonio Palopo	12	Diciembre	2023-07-12T00:00:00	2024-11-08T06:00:00	5	Humedad	68
23397	7	Sololá	712	San Antonio Palopó	9	San Antonio Palopo	12	Diciembre	2023-07-12T00:00:00	2024-11-08T06:00:00	6	Velocidad del viento	6.4
23398	7	Sololá	712	San Antonio Palopó	9	San Antonio Palopo	12	Diciembre	2023-07-12T00:00:00	2024-11-08T06:00:00	7	Dirección del viento	6.44
23399	7	Sololá	712	San Antonio Palopó	9	San Antonio Palopo	12	Diciembre	2023-07-12T00:00:00	2024-11-08T06:00:00	1	Precipitación	0
23400	7	Sololá	712	San Antonio Palopó	9	San Antonio Palopo	12	Diciembre	2023-07-12T00:00:00	2024-11-08T06:00:00	8	Radiación solar	0
23401	7	Sololá	712	San Antonio Palopó	9	San Antonio Palopo	12	Diciembre	2023-07-12T00:00:00	2024-11-08T07:00:00	2	Temperatura media	18.4
23402	7	Sololá	712	San Antonio Palopó	9	San Antonio Palopo	12	Diciembre	2023-07-12T00:00:00	2024-11-08T07:00:00	4	Temperatura máxima	18.9
23403	7	Sololá	712	San Antonio Palopó	9	San Antonio Palopo	12	Diciembre	2023-07-12T00:00:00	2024-11-08T07:00:00	3	Temperatura mínima	18.1
23404	7	Sololá	712	San Antonio Palopó	9	San Antonio Palopo	12	Diciembre	2023-07-12T00:00:00	2024-11-08T07:00:00	5	Humedad	67
23405	7	Sololá	712	San Antonio Palopó	9	San Antonio Palopo	12	Diciembre	2023-07-12T00:00:00	2024-11-08T07:00:00	6	Velocidad del viento	6.4
23406	7	Sololá	712	San Antonio Palopó	9	San Antonio Palopo	12	Diciembre	2023-07-12T00:00:00	2024-11-08T07:00:00	7	Dirección del viento	6.44
23407	7	Sololá	712	San Antonio Palopó	9	San Antonio Palopo	12	Diciembre	2023-07-12T00:00:00	2024-11-08T07:00:00	1	Precipitación	0
23408	7	Sololá	712	San Antonio Palopó	9	San Antonio Palopo	12	Diciembre	2023-07-12T00:00:00	2024-11-08T07:00:00	8	Radiación solar	8
23409	7	Sololá	712	San Antonio Palopó	9	San Antonio Palopo	12	Diciembre	2023-07-12T00:00:00	2024-11-08T08:00:00	2	Temperatura media	19.4
23410	7	Sololá	712	San Antonio Palopó	9	San Antonio Palopo	12	Diciembre	2023-07-12T00:00:00	2024-11-08T08:00:00	4	Temperatura máxima	19.4
23411	7	Sololá	712	San Antonio Palopó	9	San Antonio Palopo	12	Diciembre	2023-07-12T00:00:00	2024-11-08T08:00:00	3	Temperatura mínima	18
23412	7	Sololá	712	San Antonio Palopó	9	San Antonio Palopo	12	Diciembre	2023-07-12T00:00:00	2024-11-08T08:00:00	5	Humedad	64
23413	7	Sololá	712	San Antonio Palopó	9	San Antonio Palopo	12	Diciembre	2023-07-12T00:00:00	2024-11-08T08:00:00	6	Velocidad del viento	8
23414	7	Sololá	712	San Antonio Palopó	9	San Antonio Palopo	12	Diciembre	2023-07-12T00:00:00	2024-11-08T08:00:00	7	Dirección del viento	8.05
23415	7	Sololá	712	San Antonio Palopó	9	San Antonio Palopo	12	Diciembre	2023-07-12T00:00:00	2024-11-08T08:00:00	1	Precipitación	0
23416	7	Sololá	712	San Antonio Palopó	9	San Antonio Palopo	12	Diciembre	2023-07-12T00:00:00	2024-11-08T08:00:00	8	Radiación solar	22
23417	7	Sololá	712	San Antonio Palopó	9	San Antonio Palopo	12	Diciembre	2023-07-12T00:00:00	2024-11-08T09:00:00	2	Temperatura media	21.6
23418	7	Sololá	712	San Antonio Palopó	9	San Antonio Palopo	12	Diciembre	2023-07-12T00:00:00	2024-11-08T09:00:00	4	Temperatura máxima	21.6
23419	7	Sololá	712	San Antonio Palopó	9	San Antonio Palopo	12	Diciembre	2023-07-12T00:00:00	2024-11-08T09:00:00	3	Temperatura mínima	19.3
23420	7	Sololá	712	San Antonio Palopó	9	San Antonio Palopo	12	Diciembre	2023-07-12T00:00:00	2024-11-08T09:00:00	5	Humedad	62
23421	7	Sololá	712	San Antonio Palopó	9	San Antonio Palopo	12	Diciembre	2023-07-12T00:00:00	2024-11-08T09:00:00	6	Velocidad del viento	4.8
23422	7	Sololá	712	San Antonio Palopó	9	San Antonio Palopo	12	Diciembre	2023-07-12T00:00:00	2024-11-08T09:00:00	7	Dirección del viento	4.83
23423	7	Sololá	712	San Antonio Palopó	9	San Antonio Palopo	12	Diciembre	2023-07-12T00:00:00	2024-11-08T09:00:00	1	Precipitación	0
23424	7	Sololá	712	San Antonio Palopó	9	San Antonio Palopo	12	Diciembre	2023-07-12T00:00:00	2024-11-08T09:00:00	8	Radiación solar	204
23425	7	Sololá	712	San Antonio Palopó	9	San Antonio Palopo	12	Diciembre	2023-07-12T00:00:00	2024-11-08T10:00:00	2	Temperatura media	22.1
23426	7	Sololá	712	San Antonio Palopó	9	San Antonio Palopo	12	Diciembre	2023-07-12T00:00:00	2024-11-08T10:00:00	4	Temperatura máxima	22.2
23427	7	Sololá	712	San Antonio Palopó	9	San Antonio Palopo	12	Diciembre	2023-07-12T00:00:00	2024-11-08T10:00:00	3	Temperatura mínima	21
23428	7	Sololá	712	San Antonio Palopó	9	San Antonio Palopo	12	Diciembre	2023-07-12T00:00:00	2024-11-08T10:00:00	5	Humedad	62
23429	7	Sololá	712	San Antonio Palopó	9	San Antonio Palopo	12	Diciembre	2023-07-12T00:00:00	2024-11-08T10:00:00	6	Velocidad del viento	9.7
23430	7	Sololá	712	San Antonio Palopó	9	San Antonio Palopo	12	Diciembre	2023-07-12T00:00:00	2024-11-08T10:00:00	7	Dirección del viento	9.66
23431	7	Sololá	712	San Antonio Palopó	9	San Antonio Palopo	12	Diciembre	2023-07-12T00:00:00	2024-11-08T10:00:00	1	Precipitación	0
23432	7	Sololá	712	San Antonio Palopó	9	San Antonio Palopo	12	Diciembre	2023-07-12T00:00:00	2024-11-08T10:00:00	8	Radiación solar	595
23433	7	Sololá	712	San Antonio Palopó	9	San Antonio Palopo	12	Diciembre	2023-07-12T00:00:00	2024-11-08T11:00:00	2	Temperatura media	22.6
23434	7	Sololá	712	San Antonio Palopó	9	San Antonio Palopo	12	Diciembre	2023-07-12T00:00:00	2024-11-08T11:00:00	4	Temperatura máxima	22.6
23435	7	Sololá	712	San Antonio Palopó	9	San Antonio Palopo	12	Diciembre	2023-07-12T00:00:00	2024-11-08T11:00:00	3	Temperatura mínima	21.6
23436	7	Sololá	712	San Antonio Palopó	9	San Antonio Palopo	12	Diciembre	2023-07-12T00:00:00	2024-11-08T11:00:00	5	Humedad	64
23437	7	Sololá	712	San Antonio Palopó	9	San Antonio Palopo	12	Diciembre	2023-07-12T00:00:00	2024-11-08T11:00:00	6	Velocidad del viento	12.9
23438	7	Sololá	712	San Antonio Palopó	9	San Antonio Palopo	12	Diciembre	2023-07-12T00:00:00	2024-11-08T11:00:00	7	Dirección del viento	12.87
23439	7	Sololá	712	San Antonio Palopó	9	San Antonio Palopo	12	Diciembre	2023-07-12T00:00:00	2024-11-08T11:00:00	1	Precipitación	0
23440	7	Sololá	712	San Antonio Palopó	9	San Antonio Palopo	12	Diciembre	2023-07-12T00:00:00	2024-11-08T11:00:00	8	Radiación solar	737
23441	7	Sololá	712	San Antonio Palopó	9	San Antonio Palopo	12	Diciembre	2023-07-12T00:00:00	2024-11-08T12:00:00	2	Temperatura media	23.8
23442	7	Sololá	712	San Antonio Palopó	9	San Antonio Palopo	12	Diciembre	2023-07-12T00:00:00	2024-11-08T12:00:00	4	Temperatura máxima	23.9
23443	7	Sololá	712	San Antonio Palopó	9	San Antonio Palopo	12	Diciembre	2023-07-12T00:00:00	2024-11-08T12:00:00	3	Temperatura mínima	22.3
23444	7	Sololá	712	San Antonio Palopó	9	San Antonio Palopo	12	Diciembre	2023-07-12T00:00:00	2024-11-08T12:00:00	5	Humedad	55
23445	7	Sololá	712	San Antonio Palopó	9	San Antonio Palopo	12	Diciembre	2023-07-12T00:00:00	2024-11-08T12:00:00	6	Velocidad del viento	12.9
23446	7	Sololá	712	San Antonio Palopó	9	San Antonio Palopo	12	Diciembre	2023-07-12T00:00:00	2024-11-08T12:00:00	7	Dirección del viento	12.87
23447	7	Sololá	712	San Antonio Palopó	9	San Antonio Palopo	12	Diciembre	2023-07-12T00:00:00	2024-11-08T12:00:00	1	Precipitación	0
23448	7	Sololá	712	San Antonio Palopó	9	San Antonio Palopo	12	Diciembre	2023-07-12T00:00:00	2024-11-08T12:00:00	8	Radiación solar	672
23449	7	Sololá	712	San Antonio Palopó	9	San Antonio Palopo	12	Diciembre	2023-07-12T00:00:00	2024-11-08T13:00:00	2	Temperatura media	25.6
23450	7	Sololá	712	San Antonio Palopó	9	San Antonio Palopo	12	Diciembre	2023-07-12T00:00:00	2024-11-08T13:00:00	4	Temperatura máxima	25.8
23451	7	Sololá	712	San Antonio Palopó	9	San Antonio Palopo	12	Diciembre	2023-07-12T00:00:00	2024-11-08T13:00:00	3	Temperatura mínima	23.8
23452	7	Sololá	712	San Antonio Palopó	9	San Antonio Palopo	12	Diciembre	2023-07-12T00:00:00	2024-11-08T13:00:00	5	Humedad	49
23453	7	Sololá	712	San Antonio Palopó	9	San Antonio Palopo	12	Diciembre	2023-07-12T00:00:00	2024-11-08T13:00:00	6	Velocidad del viento	11.3
23454	7	Sololá	712	San Antonio Palopó	9	San Antonio Palopo	12	Diciembre	2023-07-12T00:00:00	2024-11-08T13:00:00	7	Dirección del viento	11.27
23455	7	Sololá	712	San Antonio Palopó	9	San Antonio Palopo	12	Diciembre	2023-07-12T00:00:00	2024-11-08T13:00:00	1	Precipitación	0
23456	7	Sololá	712	San Antonio Palopó	9	San Antonio Palopo	12	Diciembre	2023-07-12T00:00:00	2024-11-08T13:00:00	8	Radiación solar	780
23457	7	Sololá	712	San Antonio Palopó	9	San Antonio Palopo	12	Diciembre	2023-07-12T00:00:00	2024-11-08T14:00:00	2	Temperatura media	25.1
23458	7	Sololá	712	San Antonio Palopó	9	San Antonio Palopo	12	Diciembre	2023-07-12T00:00:00	2024-11-08T14:00:00	4	Temperatura máxima	25.6
23459	7	Sololá	712	San Antonio Palopó	9	San Antonio Palopo	12	Diciembre	2023-07-12T00:00:00	2024-11-08T14:00:00	3	Temperatura mínima	24.7
23460	7	Sololá	712	San Antonio Palopó	9	San Antonio Palopo	12	Diciembre	2023-07-12T00:00:00	2024-11-08T14:00:00	5	Humedad	52
23461	7	Sololá	712	San Antonio Palopó	9	San Antonio Palopo	12	Diciembre	2023-07-12T00:00:00	2024-11-08T14:00:00	6	Velocidad del viento	12.9
23462	7	Sololá	712	San Antonio Palopó	9	San Antonio Palopo	12	Diciembre	2023-07-12T00:00:00	2024-11-08T14:00:00	7	Dirección del viento	12.87
23463	7	Sololá	712	San Antonio Palopó	9	San Antonio Palopo	12	Diciembre	2023-07-12T00:00:00	2024-11-08T14:00:00	1	Precipitación	0
23464	7	Sololá	712	San Antonio Palopó	9	San Antonio Palopo	12	Diciembre	2023-07-12T00:00:00	2024-11-08T14:00:00	8	Radiación solar	725
23465	7	Sololá	712	San Antonio Palopó	9	San Antonio Palopo	12	Diciembre	2023-07-12T00:00:00	2024-11-08T15:00:00	2	Temperatura media	24.8
23466	7	Sololá	712	San Antonio Palopó	9	San Antonio Palopo	12	Diciembre	2023-07-12T00:00:00	2024-11-08T15:00:00	4	Temperatura máxima	25.3
23467	7	Sololá	712	San Antonio Palopó	9	San Antonio Palopo	12	Diciembre	2023-07-12T00:00:00	2024-11-08T15:00:00	3	Temperatura mínima	24.1
23468	7	Sololá	712	San Antonio Palopó	9	San Antonio Palopo	12	Diciembre	2023-07-12T00:00:00	2024-11-08T15:00:00	5	Humedad	55
23469	7	Sololá	712	San Antonio Palopó	9	San Antonio Palopo	12	Diciembre	2023-07-12T00:00:00	2024-11-08T15:00:00	6	Velocidad del viento	12.9
23470	7	Sololá	712	San Antonio Palopó	9	San Antonio Palopo	12	Diciembre	2023-07-12T00:00:00	2024-11-08T15:00:00	7	Dirección del viento	12.87
23471	7	Sololá	712	San Antonio Palopó	9	San Antonio Palopo	12	Diciembre	2023-07-12T00:00:00	2024-11-08T15:00:00	1	Precipitación	0
23472	7	Sololá	712	San Antonio Palopó	9	San Antonio Palopo	12	Diciembre	2023-07-12T00:00:00	2024-11-08T15:00:00	8	Radiación solar	587
23473	7	Sololá	712	San Antonio Palopó	9	San Antonio Palopo	12	Diciembre	2023-07-12T00:00:00	2024-11-08T16:00:00	2	Temperatura media	24.1
23474	7	Sololá	712	San Antonio Palopó	9	San Antonio Palopo	12	Diciembre	2023-07-12T00:00:00	2024-11-08T16:00:00	4	Temperatura máxima	25.2
23475	7	Sololá	712	San Antonio Palopó	9	San Antonio Palopo	12	Diciembre	2023-07-12T00:00:00	2024-11-08T16:00:00	3	Temperatura mínima	23.6
23476	7	Sololá	712	San Antonio Palopó	9	San Antonio Palopo	12	Diciembre	2023-07-12T00:00:00	2024-11-08T16:00:00	5	Humedad	54
23477	7	Sololá	712	San Antonio Palopó	9	San Antonio Palopo	12	Diciembre	2023-07-12T00:00:00	2024-11-08T16:00:00	6	Velocidad del viento	9.7
23478	7	Sololá	712	San Antonio Palopó	9	San Antonio Palopo	12	Diciembre	2023-07-12T00:00:00	2024-11-08T16:00:00	7	Dirección del viento	9.66
23479	7	Sololá	712	San Antonio Palopó	9	San Antonio Palopo	12	Diciembre	2023-07-12T00:00:00	2024-11-08T16:00:00	1	Precipitación	0
23480	7	Sololá	712	San Antonio Palopó	9	San Antonio Palopo	12	Diciembre	2023-07-12T00:00:00	2024-11-08T16:00:00	8	Radiación solar	314
23481	7	Sololá	712	San Antonio Palopó	9	San Antonio Palopo	12	Diciembre	2023-07-12T00:00:00	2024-11-08T17:00:00	2	Temperatura media	23.5
23482	7	Sololá	712	San Antonio Palopó	9	San Antonio Palopo	12	Diciembre	2023-07-12T00:00:00	2024-11-08T17:00:00	4	Temperatura máxima	24.6
23483	7	Sololá	712	San Antonio Palopó	9	San Antonio Palopo	12	Diciembre	2023-07-12T00:00:00	2024-11-08T17:00:00	3	Temperatura mínima	23.5
23484	7	Sololá	712	San Antonio Palopó	9	San Antonio Palopo	12	Diciembre	2023-07-12T00:00:00	2024-11-08T17:00:00	5	Humedad	57
23485	7	Sololá	712	San Antonio Palopó	9	San Antonio Palopo	12	Diciembre	2023-07-12T00:00:00	2024-11-08T17:00:00	6	Velocidad del viento	8
23486	7	Sololá	712	San Antonio Palopó	9	San Antonio Palopo	12	Diciembre	2023-07-12T00:00:00	2024-11-08T17:00:00	7	Dirección del viento	8.05
23487	7	Sololá	712	San Antonio Palopó	9	San Antonio Palopo	12	Diciembre	2023-07-12T00:00:00	2024-11-08T17:00:00	1	Precipitación	0
23488	7	Sololá	712	San Antonio Palopó	9	San Antonio Palopo	12	Diciembre	2023-07-12T00:00:00	2024-11-08T17:00:00	8	Radiación solar	138
23489	7	Sololá	712	San Antonio Palopó	9	San Antonio Palopo	12	Diciembre	2023-07-12T00:00:00	2024-11-08T18:00:00	2	Temperatura media	21.3
23490	7	Sololá	712	San Antonio Palopó	9	San Antonio Palopo	12	Diciembre	2023-07-12T00:00:00	2024-11-08T18:00:00	4	Temperatura máxima	23.4
23491	7	Sololá	712	San Antonio Palopó	9	San Antonio Palopo	12	Diciembre	2023-07-12T00:00:00	2024-11-08T18:00:00	3	Temperatura mínima	21.3
23492	7	Sololá	712	San Antonio Palopó	9	San Antonio Palopo	12	Diciembre	2023-07-12T00:00:00	2024-11-08T18:00:00	5	Humedad	62
23493	7	Sololá	712	San Antonio Palopó	9	San Antonio Palopo	12	Diciembre	2023-07-12T00:00:00	2024-11-08T18:00:00	6	Velocidad del viento	3.2
23494	7	Sololá	712	San Antonio Palopó	9	San Antonio Palopo	12	Diciembre	2023-07-12T00:00:00	2024-11-08T18:00:00	7	Dirección del viento	3.22
23495	7	Sololá	712	San Antonio Palopó	9	San Antonio Palopo	12	Diciembre	2023-07-12T00:00:00	2024-11-08T18:00:00	1	Precipitación	0
23496	7	Sololá	712	San Antonio Palopó	9	San Antonio Palopo	12	Diciembre	2023-07-12T00:00:00	2024-11-08T18:00:00	8	Radiación solar	8
23497	7	Sololá	712	San Antonio Palopó	9	San Antonio Palopo	12	Diciembre	2023-07-12T00:00:00	2024-11-08T19:00:00	2	Temperatura media	20.4
23498	7	Sololá	712	San Antonio Palopó	9	San Antonio Palopo	12	Diciembre	2023-07-12T00:00:00	2024-11-08T19:00:00	4	Temperatura máxima	21.3
23499	7	Sololá	712	San Antonio Palopó	9	San Antonio Palopo	12	Diciembre	2023-07-12T00:00:00	2024-11-08T19:00:00	3	Temperatura mínima	20.4
23500	7	Sololá	712	San Antonio Palopó	9	San Antonio Palopo	12	Diciembre	2023-07-12T00:00:00	2024-11-08T19:00:00	5	Humedad	66
23501	7	Sololá	712	San Antonio Palopó	9	San Antonio Palopo	12	Diciembre	2023-07-12T00:00:00	2024-11-08T19:00:00	6	Velocidad del viento	3.2
23502	7	Sololá	712	San Antonio Palopó	9	San Antonio Palopo	12	Diciembre	2023-07-12T00:00:00	2024-11-08T19:00:00	7	Dirección del viento	3.22
23503	7	Sololá	712	San Antonio Palopó	9	San Antonio Palopo	12	Diciembre	2023-07-12T00:00:00	2024-11-08T19:00:00	1	Precipitación	0
23504	7	Sololá	712	San Antonio Palopó	9	San Antonio Palopo	12	Diciembre	2023-07-12T00:00:00	2024-11-08T19:00:00	8	Radiación solar	0
23505	7	Sololá	712	San Antonio Palopó	9	San Antonio Palopo	12	Diciembre	2023-07-12T00:00:00	2024-11-08T20:00:00	2	Temperatura media	19.7
23506	7	Sololá	712	San Antonio Palopó	9	San Antonio Palopo	12	Diciembre	2023-07-12T00:00:00	2024-11-08T20:00:00	4	Temperatura máxima	20.4
23507	7	Sololá	712	San Antonio Palopó	9	San Antonio Palopo	12	Diciembre	2023-07-12T00:00:00	2024-11-08T20:00:00	3	Temperatura mínima	19.7
23508	7	Sololá	712	San Antonio Palopó	9	San Antonio Palopo	12	Diciembre	2023-07-12T00:00:00	2024-11-08T20:00:00	5	Humedad	68
23509	7	Sololá	712	San Antonio Palopó	9	San Antonio Palopo	12	Diciembre	2023-07-12T00:00:00	2024-11-08T20:00:00	6	Velocidad del viento	3.2
23510	7	Sololá	712	San Antonio Palopó	9	San Antonio Palopo	12	Diciembre	2023-07-12T00:00:00	2024-11-08T20:00:00	7	Dirección del viento	3.22
23511	7	Sololá	712	San Antonio Palopó	9	San Antonio Palopo	12	Diciembre	2023-07-12T00:00:00	2024-11-08T20:00:00	1	Precipitación	0
23512	7	Sololá	712	San Antonio Palopó	9	San Antonio Palopo	12	Diciembre	2023-07-12T00:00:00	2024-11-08T20:00:00	8	Radiación solar	0
23513	7	Sololá	712	San Antonio Palopó	9	San Antonio Palopo	12	Diciembre	2023-07-12T00:00:00	2024-11-08T21:00:00	2	Temperatura media	19.4
23514	7	Sololá	712	San Antonio Palopó	9	San Antonio Palopo	12	Diciembre	2023-07-12T00:00:00	2024-11-08T21:00:00	4	Temperatura máxima	19.7
23515	7	Sololá	712	San Antonio Palopó	9	San Antonio Palopo	12	Diciembre	2023-07-12T00:00:00	2024-11-08T21:00:00	3	Temperatura mínima	19.2
23516	7	Sololá	712	San Antonio Palopó	9	San Antonio Palopo	12	Diciembre	2023-07-12T00:00:00	2024-11-08T21:00:00	5	Humedad	68
23517	7	Sololá	712	San Antonio Palopó	9	San Antonio Palopo	12	Diciembre	2023-07-12T00:00:00	2024-11-08T21:00:00	6	Velocidad del viento	6.4
23518	7	Sololá	712	San Antonio Palopó	9	San Antonio Palopo	12	Diciembre	2023-07-12T00:00:00	2024-11-08T21:00:00	7	Dirección del viento	6.44
23519	7	Sololá	712	San Antonio Palopó	9	San Antonio Palopo	12	Diciembre	2023-07-12T00:00:00	2024-11-08T21:00:00	1	Precipitación	0
23520	7	Sololá	712	San Antonio Palopó	9	San Antonio Palopo	12	Diciembre	2023-07-12T00:00:00	2024-11-08T21:00:00	8	Radiación solar	0
23521	7	Sololá	712	San Antonio Palopó	9	San Antonio Palopo	12	Diciembre	2023-07-12T00:00:00	2024-11-08T22:00:00	2	Temperatura media	19
23522	7	Sololá	712	San Antonio Palopó	9	San Antonio Palopo	12	Diciembre	2023-07-12T00:00:00	2024-11-08T22:00:00	4	Temperatura máxima	19.4
23523	7	Sololá	712	San Antonio Palopó	9	San Antonio Palopo	12	Diciembre	2023-07-12T00:00:00	2024-11-08T22:00:00	3	Temperatura mínima	19
23524	7	Sololá	712	San Antonio Palopó	9	San Antonio Palopo	12	Diciembre	2023-07-12T00:00:00	2024-11-08T22:00:00	5	Humedad	70
23525	7	Sololá	712	San Antonio Palopó	9	San Antonio Palopo	12	Diciembre	2023-07-12T00:00:00	2024-11-08T22:00:00	6	Velocidad del viento	8
23526	7	Sololá	712	San Antonio Palopó	9	San Antonio Palopo	12	Diciembre	2023-07-12T00:00:00	2024-11-08T22:00:00	7	Dirección del viento	8.05
23527	7	Sololá	712	San Antonio Palopó	9	San Antonio Palopo	12	Diciembre	2023-07-12T00:00:00	2024-11-08T22:00:00	1	Precipitación	0
23528	7	Sololá	712	San Antonio Palopó	9	San Antonio Palopo	12	Diciembre	2023-07-12T00:00:00	2024-11-08T22:00:00	8	Radiación solar	0
23529	7	Sololá	712	San Antonio Palopó	9	San Antonio Palopo	12	Diciembre	2023-07-12T00:00:00	2024-11-08T23:00:00	2	Temperatura media	19.5
23530	7	Sololá	712	San Antonio Palopó	9	San Antonio Palopo	12	Diciembre	2023-07-12T00:00:00	2024-11-08T23:00:00	4	Temperatura máxima	19.7
23531	7	Sololá	712	San Antonio Palopó	9	San Antonio Palopo	12	Diciembre	2023-07-12T00:00:00	2024-11-08T23:00:00	3	Temperatura mínima	18.9
23532	7	Sololá	712	San Antonio Palopó	9	San Antonio Palopo	12	Diciembre	2023-07-12T00:00:00	2024-11-08T23:00:00	5	Humedad	68
23533	7	Sololá	712	San Antonio Palopó	9	San Antonio Palopo	12	Diciembre	2023-07-12T00:00:00	2024-11-08T23:00:00	6	Velocidad del viento	8
23534	7	Sololá	712	San Antonio Palopó	9	San Antonio Palopo	12	Diciembre	2023-07-12T00:00:00	2024-11-08T23:00:00	7	Dirección del viento	8.05
23535	7	Sololá	712	San Antonio Palopó	9	San Antonio Palopo	12	Diciembre	2023-07-12T00:00:00	2024-11-08T23:00:00	1	Precipitación	0
23536	7	Sololá	712	San Antonio Palopó	9	San Antonio Palopo	12	Diciembre	2023-07-12T00:00:00	2024-11-08T23:00:00	8	Radiación solar	0
23537	7	Sololá	712	San Antonio Palopó	9	San Antonio Palopo	12	Diciembre	2023-08-12T00:00:00	2024-11-08T00:00:00	2	Temperatura media	19.1
23538	7	Sololá	712	San Antonio Palopó	9	San Antonio Palopo	12	Diciembre	2023-08-12T00:00:00	2024-11-08T00:00:00	4	Temperatura máxima	19.6
23539	7	Sololá	712	San Antonio Palopó	9	San Antonio Palopo	12	Diciembre	2023-08-12T00:00:00	2024-11-08T00:00:00	3	Temperatura mínima	19.1
23540	7	Sololá	712	San Antonio Palopó	9	San Antonio Palopo	12	Diciembre	2023-08-12T00:00:00	2024-11-08T00:00:00	5	Humedad	69
23541	7	Sololá	712	San Antonio Palopó	9	San Antonio Palopo	12	Diciembre	2023-08-12T00:00:00	2024-11-08T00:00:00	6	Velocidad del viento	6.4
23542	7	Sololá	712	San Antonio Palopó	9	San Antonio Palopo	12	Diciembre	2023-08-12T00:00:00	2024-11-08T00:00:00	7	Dirección del viento	6.44
23543	7	Sololá	712	San Antonio Palopó	9	San Antonio Palopo	12	Diciembre	2023-08-12T00:00:00	2024-11-08T00:00:00	1	Precipitación	0
23544	7	Sololá	712	San Antonio Palopó	9	San Antonio Palopo	12	Diciembre	2023-08-12T00:00:00	2024-11-08T00:00:00	8	Radiación solar	0
23545	7	Sololá	712	San Antonio Palopó	9	San Antonio Palopo	12	Diciembre	2023-08-12T00:00:00	2024-11-08T01:00:00	2	Temperatura media	18.9
23546	7	Sololá	712	San Antonio Palopó	9	San Antonio Palopo	12	Diciembre	2023-08-12T00:00:00	2024-11-08T01:00:00	4	Temperatura máxima	19.2
23547	7	Sololá	712	San Antonio Palopó	9	San Antonio Palopo	12	Diciembre	2023-08-12T00:00:00	2024-11-08T01:00:00	3	Temperatura mínima	18.7
23548	7	Sololá	712	San Antonio Palopó	9	San Antonio Palopo	12	Diciembre	2023-08-12T00:00:00	2024-11-08T01:00:00	5	Humedad	69
23549	7	Sololá	712	San Antonio Palopó	9	San Antonio Palopo	12	Diciembre	2023-08-12T00:00:00	2024-11-08T01:00:00	6	Velocidad del viento	9.7
23550	7	Sololá	712	San Antonio Palopó	9	San Antonio Palopo	12	Diciembre	2023-08-12T00:00:00	2024-11-08T01:00:00	7	Dirección del viento	9.66
23551	7	Sololá	712	San Antonio Palopó	9	San Antonio Palopo	12	Diciembre	2023-08-12T00:00:00	2024-11-08T01:00:00	1	Precipitación	0
23552	7	Sololá	712	San Antonio Palopó	9	San Antonio Palopo	12	Diciembre	2023-08-12T00:00:00	2024-11-08T01:00:00	8	Radiación solar	0
23553	7	Sololá	712	San Antonio Palopó	9	San Antonio Palopo	12	Diciembre	2023-08-12T00:00:00	2024-11-08T02:00:00	2	Temperatura media	18.8
23554	7	Sololá	712	San Antonio Palopó	9	San Antonio Palopo	12	Diciembre	2023-08-12T00:00:00	2024-11-08T02:00:00	4	Temperatura máxima	19
23555	7	Sololá	712	San Antonio Palopó	9	San Antonio Palopo	12	Diciembre	2023-08-12T00:00:00	2024-11-08T02:00:00	3	Temperatura mínima	18.7
23556	7	Sololá	712	San Antonio Palopó	9	San Antonio Palopo	12	Diciembre	2023-08-12T00:00:00	2024-11-08T02:00:00	5	Humedad	70
23557	7	Sololá	712	San Antonio Palopó	9	San Antonio Palopo	12	Diciembre	2023-08-12T00:00:00	2024-11-08T02:00:00	6	Velocidad del viento	12.9
23558	7	Sololá	712	San Antonio Palopó	9	San Antonio Palopo	12	Diciembre	2023-08-12T00:00:00	2024-11-08T02:00:00	7	Dirección del viento	12.87
23559	7	Sololá	712	San Antonio Palopó	9	San Antonio Palopo	12	Diciembre	2023-08-12T00:00:00	2024-11-08T02:00:00	1	Precipitación	0
23560	7	Sololá	712	San Antonio Palopó	9	San Antonio Palopo	12	Diciembre	2023-08-12T00:00:00	2024-11-08T02:00:00	8	Radiación solar	0
23561	7	Sololá	712	San Antonio Palopó	9	San Antonio Palopo	12	Diciembre	2023-08-12T00:00:00	2024-11-08T03:00:00	2	Temperatura media	18.4
23562	7	Sololá	712	San Antonio Palopó	9	San Antonio Palopo	12	Diciembre	2023-08-12T00:00:00	2024-11-08T03:00:00	4	Temperatura máxima	18.9
23563	7	Sololá	712	San Antonio Palopó	9	San Antonio Palopo	12	Diciembre	2023-08-12T00:00:00	2024-11-08T03:00:00	3	Temperatura mínima	18.4
23564	7	Sololá	712	San Antonio Palopó	9	San Antonio Palopo	12	Diciembre	2023-08-12T00:00:00	2024-11-08T03:00:00	5	Humedad	71
23565	7	Sololá	712	San Antonio Palopó	9	San Antonio Palopo	12	Diciembre	2023-08-12T00:00:00	2024-11-08T03:00:00	6	Velocidad del viento	9.7
23566	7	Sololá	712	San Antonio Palopó	9	San Antonio Palopo	12	Diciembre	2023-08-12T00:00:00	2024-11-08T03:00:00	7	Dirección del viento	9.66
23567	7	Sololá	712	San Antonio Palopó	9	San Antonio Palopo	12	Diciembre	2023-08-12T00:00:00	2024-11-08T03:00:00	1	Precipitación	0
23568	7	Sololá	712	San Antonio Palopó	9	San Antonio Palopo	12	Diciembre	2023-08-12T00:00:00	2024-11-08T03:00:00	8	Radiación solar	0
23569	7	Sololá	712	San Antonio Palopó	9	San Antonio Palopo	12	Diciembre	2023-08-12T00:00:00	2024-11-08T04:00:00	2	Temperatura media	18.3
23570	7	Sololá	712	San Antonio Palopó	9	San Antonio Palopo	12	Diciembre	2023-08-12T00:00:00	2024-11-08T04:00:00	4	Temperatura máxima	18.7
23571	7	Sololá	712	San Antonio Palopó	9	San Antonio Palopo	12	Diciembre	2023-08-12T00:00:00	2024-11-08T04:00:00	3	Temperatura mínima	18.3
23572	7	Sololá	712	San Antonio Palopó	9	San Antonio Palopo	12	Diciembre	2023-08-12T00:00:00	2024-11-08T04:00:00	5	Humedad	71
23573	7	Sololá	712	San Antonio Palopó	9	San Antonio Palopo	12	Diciembre	2023-08-12T00:00:00	2024-11-08T04:00:00	6	Velocidad del viento	9.7
23574	7	Sololá	712	San Antonio Palopó	9	San Antonio Palopo	12	Diciembre	2023-08-12T00:00:00	2024-11-08T04:00:00	7	Dirección del viento	9.66
23575	7	Sololá	712	San Antonio Palopó	9	San Antonio Palopo	12	Diciembre	2023-08-12T00:00:00	2024-11-08T04:00:00	1	Precipitación	0
23576	7	Sololá	712	San Antonio Palopó	9	San Antonio Palopo	12	Diciembre	2023-08-12T00:00:00	2024-11-08T04:00:00	8	Radiación solar	0
23577	7	Sololá	712	San Antonio Palopó	9	San Antonio Palopo	12	Diciembre	2023-08-12T00:00:00	2024-11-08T05:00:00	2	Temperatura media	18.5
23578	7	Sololá	712	San Antonio Palopó	9	San Antonio Palopo	12	Diciembre	2023-08-12T00:00:00	2024-11-08T05:00:00	4	Temperatura máxima	18.8
23579	7	Sololá	712	San Antonio Palopó	9	San Antonio Palopo	12	Diciembre	2023-08-12T00:00:00	2024-11-08T05:00:00	3	Temperatura mínima	18.3
23580	7	Sololá	712	San Antonio Palopó	9	San Antonio Palopo	12	Diciembre	2023-08-12T00:00:00	2024-11-08T05:00:00	5	Humedad	70
23581	7	Sololá	712	San Antonio Palopó	9	San Antonio Palopo	12	Diciembre	2023-08-12T00:00:00	2024-11-08T05:00:00	6	Velocidad del viento	6.4
23582	7	Sololá	712	San Antonio Palopó	9	San Antonio Palopo	12	Diciembre	2023-08-12T00:00:00	2024-11-08T05:00:00	7	Dirección del viento	6.44
23583	7	Sololá	712	San Antonio Palopó	9	San Antonio Palopo	12	Diciembre	2023-08-12T00:00:00	2024-11-08T05:00:00	1	Precipitación	0
23584	7	Sololá	712	San Antonio Palopó	9	San Antonio Palopo	12	Diciembre	2023-08-12T00:00:00	2024-11-08T05:00:00	8	Radiación solar	0
23585	7	Sololá	712	San Antonio Palopó	9	San Antonio Palopo	12	Diciembre	2023-08-12T00:00:00	2024-11-08T06:00:00	2	Temperatura media	17.9
23586	7	Sololá	712	San Antonio Palopó	9	San Antonio Palopo	12	Diciembre	2023-08-12T00:00:00	2024-11-08T06:00:00	4	Temperatura máxima	18.5
23587	7	Sololá	712	San Antonio Palopó	9	San Antonio Palopo	12	Diciembre	2023-08-12T00:00:00	2024-11-08T06:00:00	3	Temperatura mínima	17.9
23588	7	Sololá	712	San Antonio Palopó	9	San Antonio Palopo	12	Diciembre	2023-08-12T00:00:00	2024-11-08T06:00:00	5	Humedad	71
23589	7	Sololá	712	San Antonio Palopó	9	San Antonio Palopo	12	Diciembre	2023-08-12T00:00:00	2024-11-08T06:00:00	6	Velocidad del viento	6.4
23590	7	Sololá	712	San Antonio Palopó	9	San Antonio Palopo	12	Diciembre	2023-08-12T00:00:00	2024-11-08T06:00:00	7	Dirección del viento	6.44
23591	7	Sololá	712	San Antonio Palopó	9	San Antonio Palopo	12	Diciembre	2023-08-12T00:00:00	2024-11-08T06:00:00	1	Precipitación	0
23592	7	Sololá	712	San Antonio Palopó	9	San Antonio Palopo	12	Diciembre	2023-08-12T00:00:00	2024-11-08T06:00:00	8	Radiación solar	0
23593	7	Sololá	712	San Antonio Palopó	9	San Antonio Palopo	12	Diciembre	2023-08-12T00:00:00	2024-11-08T07:00:00	2	Temperatura media	18.3
23594	7	Sololá	712	San Antonio Palopó	9	San Antonio Palopo	12	Diciembre	2023-08-12T00:00:00	2024-11-08T07:00:00	4	Temperatura máxima	18.5
23595	7	Sololá	712	San Antonio Palopó	9	San Antonio Palopo	12	Diciembre	2023-08-12T00:00:00	2024-11-08T07:00:00	3	Temperatura mínima	17.8
23596	7	Sololá	712	San Antonio Palopó	9	San Antonio Palopo	12	Diciembre	2023-08-12T00:00:00	2024-11-08T07:00:00	5	Humedad	70
23597	7	Sololá	712	San Antonio Palopó	9	San Antonio Palopo	12	Diciembre	2023-08-12T00:00:00	2024-11-08T07:00:00	6	Velocidad del viento	6.4
23598	7	Sololá	712	San Antonio Palopó	9	San Antonio Palopo	12	Diciembre	2023-08-12T00:00:00	2024-11-08T07:00:00	7	Dirección del viento	6.44
23599	7	Sololá	712	San Antonio Palopó	9	San Antonio Palopo	12	Diciembre	2023-08-12T00:00:00	2024-11-08T07:00:00	1	Precipitación	0
23600	7	Sololá	712	San Antonio Palopó	9	San Antonio Palopo	12	Diciembre	2023-08-12T00:00:00	2024-11-08T07:00:00	8	Radiación solar	6
23601	7	Sololá	712	San Antonio Palopó	9	San Antonio Palopo	12	Diciembre	2023-08-12T00:00:00	2024-11-08T08:00:00	2	Temperatura media	19.3
23602	7	Sololá	712	San Antonio Palopó	9	San Antonio Palopo	12	Diciembre	2023-08-12T00:00:00	2024-11-08T08:00:00	4	Temperatura máxima	19.3
23603	7	Sololá	712	San Antonio Palopó	9	San Antonio Palopo	12	Diciembre	2023-08-12T00:00:00	2024-11-08T08:00:00	3	Temperatura mínima	18.3
23604	7	Sololá	712	San Antonio Palopó	9	San Antonio Palopo	12	Diciembre	2023-08-12T00:00:00	2024-11-08T08:00:00	5	Humedad	68
23605	7	Sololá	712	San Antonio Palopó	9	San Antonio Palopo	12	Diciembre	2023-08-12T00:00:00	2024-11-08T08:00:00	6	Velocidad del viento	4.8
23606	7	Sololá	712	San Antonio Palopó	9	San Antonio Palopo	12	Diciembre	2023-08-12T00:00:00	2024-11-08T08:00:00	7	Dirección del viento	4.83
23607	7	Sololá	712	San Antonio Palopó	9	San Antonio Palopo	12	Diciembre	2023-08-12T00:00:00	2024-11-08T08:00:00	1	Precipitación	0
23608	7	Sololá	712	San Antonio Palopó	9	San Antonio Palopo	12	Diciembre	2023-08-12T00:00:00	2024-11-08T08:00:00	8	Radiación solar	18
23609	7	Sololá	712	San Antonio Palopó	9	San Antonio Palopo	12	Diciembre	2023-08-12T00:00:00	2024-11-08T09:00:00	2	Temperatura media	21.7
23610	7	Sololá	712	San Antonio Palopó	9	San Antonio Palopo	12	Diciembre	2023-08-12T00:00:00	2024-11-08T09:00:00	4	Temperatura máxima	21.8
23611	7	Sololá	712	San Antonio Palopó	9	San Antonio Palopo	12	Diciembre	2023-08-12T00:00:00	2024-11-08T09:00:00	3	Temperatura mínima	19.3
23612	7	Sololá	712	San Antonio Palopó	9	San Antonio Palopo	12	Diciembre	2023-08-12T00:00:00	2024-11-08T09:00:00	5	Humedad	64
23613	7	Sololá	712	San Antonio Palopó	9	San Antonio Palopo	12	Diciembre	2023-08-12T00:00:00	2024-11-08T09:00:00	6	Velocidad del viento	4.8
23614	7	Sololá	712	San Antonio Palopó	9	San Antonio Palopo	12	Diciembre	2023-08-12T00:00:00	2024-11-08T09:00:00	7	Dirección del viento	4.83
23615	7	Sololá	712	San Antonio Palopó	9	San Antonio Palopo	12	Diciembre	2023-08-12T00:00:00	2024-11-08T09:00:00	1	Precipitación	0
23616	7	Sololá	712	San Antonio Palopó	9	San Antonio Palopo	12	Diciembre	2023-08-12T00:00:00	2024-11-08T09:00:00	8	Radiación solar	187
23617	7	Sololá	712	San Antonio Palopó	9	San Antonio Palopo	12	Diciembre	2023-08-12T00:00:00	2024-11-08T10:00:00	2	Temperatura media	23.2
23618	7	Sololá	712	San Antonio Palopó	9	San Antonio Palopo	12	Diciembre	2023-08-12T00:00:00	2024-11-08T10:00:00	4	Temperatura máxima	23.3
23619	7	Sololá	712	San Antonio Palopó	9	San Antonio Palopo	12	Diciembre	2023-08-12T00:00:00	2024-11-08T10:00:00	3	Temperatura mínima	21.2
23620	7	Sololá	712	San Antonio Palopó	9	San Antonio Palopo	12	Diciembre	2023-08-12T00:00:00	2024-11-08T10:00:00	5	Humedad	57
23621	7	Sololá	712	San Antonio Palopó	9	San Antonio Palopo	12	Diciembre	2023-08-12T00:00:00	2024-11-08T10:00:00	6	Velocidad del viento	8
23622	7	Sololá	712	San Antonio Palopó	9	San Antonio Palopo	12	Diciembre	2023-08-12T00:00:00	2024-11-08T10:00:00	7	Dirección del viento	8.05
23623	7	Sololá	712	San Antonio Palopó	9	San Antonio Palopo	12	Diciembre	2023-08-12T00:00:00	2024-11-08T10:00:00	1	Precipitación	0
23624	7	Sololá	712	San Antonio Palopó	9	San Antonio Palopo	12	Diciembre	2023-08-12T00:00:00	2024-11-08T10:00:00	8	Radiación solar	578
23625	7	Sololá	712	San Antonio Palopó	9	San Antonio Palopo	12	Diciembre	2023-08-12T00:00:00	2024-11-08T11:00:00	2	Temperatura media	24.3
23626	7	Sololá	712	San Antonio Palopó	9	San Antonio Palopo	12	Diciembre	2023-08-12T00:00:00	2024-11-08T11:00:00	4	Temperatura máxima	24.6
23627	7	Sololá	712	San Antonio Palopó	9	San Antonio Palopo	12	Diciembre	2023-08-12T00:00:00	2024-11-08T11:00:00	3	Temperatura mínima	23.1
23628	7	Sololá	712	San Antonio Palopó	9	San Antonio Palopo	12	Diciembre	2023-08-12T00:00:00	2024-11-08T11:00:00	5	Humedad	54
23629	7	Sololá	712	San Antonio Palopó	9	San Antonio Palopo	12	Diciembre	2023-08-12T00:00:00	2024-11-08T11:00:00	6	Velocidad del viento	8
23630	7	Sololá	712	San Antonio Palopó	9	San Antonio Palopo	12	Diciembre	2023-08-12T00:00:00	2024-11-08T11:00:00	7	Dirección del viento	8.05
23631	7	Sololá	712	San Antonio Palopó	9	San Antonio Palopo	12	Diciembre	2023-08-12T00:00:00	2024-11-08T11:00:00	1	Precipitación	0
23632	7	Sololá	712	San Antonio Palopó	9	San Antonio Palopo	12	Diciembre	2023-08-12T00:00:00	2024-11-08T11:00:00	8	Radiación solar	729
23633	7	Sololá	712	San Antonio Palopó	9	San Antonio Palopo	12	Diciembre	2023-08-12T00:00:00	2024-11-08T12:00:00	2	Temperatura media	23.4
23634	7	Sololá	712	San Antonio Palopó	9	San Antonio Palopo	12	Diciembre	2023-08-12T00:00:00	2024-11-08T12:00:00	4	Temperatura máxima	24.3
23635	7	Sololá	712	San Antonio Palopó	9	San Antonio Palopo	12	Diciembre	2023-08-12T00:00:00	2024-11-08T12:00:00	3	Temperatura mínima	23.3
23636	7	Sololá	712	San Antonio Palopó	9	San Antonio Palopo	12	Diciembre	2023-08-12T00:00:00	2024-11-08T12:00:00	5	Humedad	57
23637	7	Sololá	712	San Antonio Palopó	9	San Antonio Palopo	12	Diciembre	2023-08-12T00:00:00	2024-11-08T12:00:00	6	Velocidad del viento	9.7
23638	7	Sololá	712	San Antonio Palopó	9	San Antonio Palopo	12	Diciembre	2023-08-12T00:00:00	2024-11-08T12:00:00	7	Dirección del viento	9.66
23639	7	Sololá	712	San Antonio Palopó	9	San Antonio Palopo	12	Diciembre	2023-08-12T00:00:00	2024-11-08T12:00:00	1	Precipitación	0
23640	7	Sololá	712	San Antonio Palopó	9	San Antonio Palopo	12	Diciembre	2023-08-12T00:00:00	2024-11-08T12:00:00	8	Radiación solar	270
23641	7	Sololá	712	San Antonio Palopó	9	San Antonio Palopo	12	Diciembre	2023-08-12T00:00:00	2024-11-08T13:00:00	2	Temperatura media	24.4
23642	7	Sololá	712	San Antonio Palopó	9	San Antonio Palopo	12	Diciembre	2023-08-12T00:00:00	2024-11-08T13:00:00	4	Temperatura máxima	25.7
23643	7	Sololá	712	San Antonio Palopó	9	San Antonio Palopo	12	Diciembre	2023-08-12T00:00:00	2024-11-08T13:00:00	3	Temperatura mínima	23.3
23644	7	Sololá	712	San Antonio Palopó	9	San Antonio Palopo	12	Diciembre	2023-08-12T00:00:00	2024-11-08T13:00:00	5	Humedad	53
23645	7	Sololá	712	San Antonio Palopó	9	San Antonio Palopo	12	Diciembre	2023-08-12T00:00:00	2024-11-08T13:00:00	6	Velocidad del viento	11.3
23646	7	Sololá	712	San Antonio Palopó	9	San Antonio Palopo	12	Diciembre	2023-08-12T00:00:00	2024-11-08T13:00:00	7	Dirección del viento	11.27
23647	7	Sololá	712	San Antonio Palopó	9	San Antonio Palopo	12	Diciembre	2023-08-12T00:00:00	2024-11-08T13:00:00	1	Precipitación	0
23648	7	Sololá	712	San Antonio Palopó	9	San Antonio Palopo	12	Diciembre	2023-08-12T00:00:00	2024-11-08T13:00:00	8	Radiación solar	718
23649	7	Sololá	712	San Antonio Palopó	9	San Antonio Palopo	12	Diciembre	2023-08-12T00:00:00	2024-11-08T14:00:00	2	Temperatura media	26
23650	7	Sololá	712	San Antonio Palopó	9	San Antonio Palopo	12	Diciembre	2023-08-12T00:00:00	2024-11-08T14:00:00	4	Temperatura máxima	26.1
23651	7	Sololá	712	San Antonio Palopó	9	San Antonio Palopo	12	Diciembre	2023-08-12T00:00:00	2024-11-08T14:00:00	3	Temperatura mínima	24.3
23652	7	Sololá	712	San Antonio Palopó	9	San Antonio Palopo	12	Diciembre	2023-08-12T00:00:00	2024-11-08T14:00:00	5	Humedad	46
23653	7	Sololá	712	San Antonio Palopó	9	San Antonio Palopo	12	Diciembre	2023-08-12T00:00:00	2024-11-08T14:00:00	6	Velocidad del viento	11.3
23654	7	Sololá	712	San Antonio Palopó	9	San Antonio Palopo	12	Diciembre	2023-08-12T00:00:00	2024-11-08T14:00:00	7	Dirección del viento	11.27
23655	7	Sololá	712	San Antonio Palopó	9	San Antonio Palopo	12	Diciembre	2023-08-12T00:00:00	2024-11-08T14:00:00	1	Precipitación	0
23656	7	Sololá	712	San Antonio Palopó	9	San Antonio Palopo	12	Diciembre	2023-08-12T00:00:00	2024-11-08T14:00:00	8	Radiación solar	675
23657	7	Sololá	712	San Antonio Palopó	9	San Antonio Palopo	12	Diciembre	2023-08-12T00:00:00	2024-11-08T15:00:00	2	Temperatura media	25.7
23658	7	Sololá	712	San Antonio Palopó	9	San Antonio Palopo	12	Diciembre	2023-08-12T00:00:00	2024-11-08T15:00:00	4	Temperatura máxima	26.3
23659	7	Sololá	712	San Antonio Palopó	9	San Antonio Palopo	12	Diciembre	2023-08-12T00:00:00	2024-11-08T15:00:00	3	Temperatura mínima	25.3
23660	7	Sololá	712	San Antonio Palopó	9	San Antonio Palopo	12	Diciembre	2023-08-12T00:00:00	2024-11-08T15:00:00	5	Humedad	48
23661	7	Sololá	712	San Antonio Palopó	9	San Antonio Palopo	12	Diciembre	2023-08-12T00:00:00	2024-11-08T15:00:00	6	Velocidad del viento	9.7
23662	7	Sololá	712	San Antonio Palopó	9	San Antonio Palopo	12	Diciembre	2023-08-12T00:00:00	2024-11-08T15:00:00	7	Dirección del viento	9.66
23663	7	Sololá	712	San Antonio Palopó	9	San Antonio Palopo	12	Diciembre	2023-08-12T00:00:00	2024-11-08T15:00:00	1	Precipitación	0
23664	7	Sololá	712	San Antonio Palopó	9	San Antonio Palopo	12	Diciembre	2023-08-12T00:00:00	2024-11-08T15:00:00	8	Radiación solar	555
23665	7	Sololá	712	San Antonio Palopó	9	San Antonio Palopo	12	Diciembre	2023-08-12T00:00:00	2024-11-08T16:00:00	2	Temperatura media	25.6
23666	7	Sololá	712	San Antonio Palopó	9	San Antonio Palopo	12	Diciembre	2023-08-12T00:00:00	2024-11-08T16:00:00	4	Temperatura máxima	26.1
23667	7	Sololá	712	San Antonio Palopó	9	San Antonio Palopo	12	Diciembre	2023-08-12T00:00:00	2024-11-08T16:00:00	3	Temperatura mínima	25.6
23668	7	Sololá	712	San Antonio Palopó	9	San Antonio Palopo	12	Diciembre	2023-08-12T00:00:00	2024-11-08T16:00:00	5	Humedad	50
23669	7	Sololá	712	San Antonio Palopó	9	San Antonio Palopo	12	Diciembre	2023-08-12T00:00:00	2024-11-08T16:00:00	6	Velocidad del viento	9.7
23670	7	Sololá	712	San Antonio Palopó	9	San Antonio Palopo	12	Diciembre	2023-08-12T00:00:00	2024-11-08T16:00:00	7	Dirección del viento	9.66
23671	7	Sololá	712	San Antonio Palopó	9	San Antonio Palopo	12	Diciembre	2023-08-12T00:00:00	2024-11-08T16:00:00	1	Precipitación	0
23672	7	Sololá	712	San Antonio Palopó	9	San Antonio Palopo	12	Diciembre	2023-08-12T00:00:00	2024-11-08T16:00:00	8	Radiación solar	362
23673	7	Sololá	712	San Antonio Palopó	9	San Antonio Palopo	12	Diciembre	2023-08-12T00:00:00	2024-11-08T17:00:00	2	Temperatura media	24.9
23674	7	Sololá	712	San Antonio Palopó	9	San Antonio Palopo	12	Diciembre	2023-08-12T00:00:00	2024-11-08T17:00:00	4	Temperatura máxima	25.6
23675	7	Sololá	712	San Antonio Palopó	9	San Antonio Palopo	12	Diciembre	2023-08-12T00:00:00	2024-11-08T17:00:00	3	Temperatura mínima	24.8
23676	7	Sololá	712	San Antonio Palopó	9	San Antonio Palopo	12	Diciembre	2023-08-12T00:00:00	2024-11-08T17:00:00	5	Humedad	51
23677	7	Sololá	712	San Antonio Palopó	9	San Antonio Palopo	12	Diciembre	2023-08-12T00:00:00	2024-11-08T17:00:00	6	Velocidad del viento	9.7
23678	7	Sololá	712	San Antonio Palopó	9	San Antonio Palopo	12	Diciembre	2023-08-12T00:00:00	2024-11-08T17:00:00	7	Dirección del viento	9.66
23679	7	Sololá	712	San Antonio Palopó	9	San Antonio Palopo	12	Diciembre	2023-08-12T00:00:00	2024-11-08T17:00:00	1	Precipitación	0
23680	7	Sololá	712	San Antonio Palopó	9	San Antonio Palopo	12	Diciembre	2023-08-12T00:00:00	2024-11-08T17:00:00	8	Radiación solar	136
23681	7	Sololá	712	San Antonio Palopó	9	San Antonio Palopo	12	Diciembre	2023-08-12T00:00:00	2024-11-08T18:00:00	2	Temperatura media	22.2
23682	7	Sololá	712	San Antonio Palopó	9	San Antonio Palopo	12	Diciembre	2023-08-12T00:00:00	2024-11-08T18:00:00	4	Temperatura máxima	24.9
23683	7	Sololá	712	San Antonio Palopó	9	San Antonio Palopo	12	Diciembre	2023-08-12T00:00:00	2024-11-08T18:00:00	3	Temperatura mínima	22.2
23684	7	Sololá	712	San Antonio Palopó	9	San Antonio Palopo	12	Diciembre	2023-08-12T00:00:00	2024-11-08T18:00:00	5	Humedad	61
23685	7	Sololá	712	San Antonio Palopó	9	San Antonio Palopo	12	Diciembre	2023-08-12T00:00:00	2024-11-08T18:00:00	6	Velocidad del viento	4.8
23686	7	Sololá	712	San Antonio Palopó	9	San Antonio Palopo	12	Diciembre	2023-08-12T00:00:00	2024-11-08T18:00:00	7	Dirección del viento	4.83
23687	7	Sololá	712	San Antonio Palopó	9	San Antonio Palopo	12	Diciembre	2023-08-12T00:00:00	2024-11-08T18:00:00	1	Precipitación	0
23688	7	Sololá	712	San Antonio Palopó	9	San Antonio Palopo	12	Diciembre	2023-08-12T00:00:00	2024-11-08T18:00:00	8	Radiación solar	9
23689	7	Sololá	712	San Antonio Palopó	9	San Antonio Palopo	12	Diciembre	2023-08-12T00:00:00	2024-11-08T19:00:00	2	Temperatura media	20.6
23690	7	Sololá	712	San Antonio Palopó	9	San Antonio Palopo	12	Diciembre	2023-08-12T00:00:00	2024-11-08T19:00:00	4	Temperatura máxima	22.2
23691	7	Sololá	712	San Antonio Palopó	9	San Antonio Palopo	12	Diciembre	2023-08-12T00:00:00	2024-11-08T19:00:00	3	Temperatura mínima	20.6
23692	7	Sololá	712	San Antonio Palopó	9	San Antonio Palopo	12	Diciembre	2023-08-12T00:00:00	2024-11-08T19:00:00	5	Humedad	68
23693	7	Sololá	712	San Antonio Palopó	9	San Antonio Palopo	12	Diciembre	2023-08-12T00:00:00	2024-11-08T19:00:00	6	Velocidad del viento	4.8
23694	7	Sololá	712	San Antonio Palopó	9	San Antonio Palopo	12	Diciembre	2023-08-12T00:00:00	2024-11-08T19:00:00	7	Dirección del viento	4.83
23695	7	Sololá	712	San Antonio Palopó	9	San Antonio Palopo	12	Diciembre	2023-08-12T00:00:00	2024-11-08T19:00:00	1	Precipitación	0
23696	7	Sololá	712	San Antonio Palopó	9	San Antonio Palopo	12	Diciembre	2023-08-12T00:00:00	2024-11-08T19:00:00	8	Radiación solar	0
23697	7	Sololá	712	San Antonio Palopó	9	San Antonio Palopo	12	Diciembre	2023-08-12T00:00:00	2024-11-08T20:00:00	2	Temperatura media	20
23698	7	Sololá	712	San Antonio Palopó	9	San Antonio Palopo	12	Diciembre	2023-08-12T00:00:00	2024-11-08T20:00:00	4	Temperatura máxima	20.6
23699	7	Sololá	712	San Antonio Palopó	9	San Antonio Palopo	12	Diciembre	2023-08-12T00:00:00	2024-11-08T20:00:00	3	Temperatura mínima	20
23700	7	Sololá	712	San Antonio Palopó	9	San Antonio Palopo	12	Diciembre	2023-08-12T00:00:00	2024-11-08T20:00:00	5	Humedad	70
23701	7	Sololá	712	San Antonio Palopó	9	San Antonio Palopo	12	Diciembre	2023-08-12T00:00:00	2024-11-08T20:00:00	6	Velocidad del viento	8
23702	7	Sololá	712	San Antonio Palopó	9	San Antonio Palopo	12	Diciembre	2023-08-12T00:00:00	2024-11-08T20:00:00	7	Dirección del viento	8.05
23703	7	Sololá	712	San Antonio Palopó	9	San Antonio Palopo	12	Diciembre	2023-08-12T00:00:00	2024-11-08T20:00:00	1	Precipitación	0
23704	7	Sololá	712	San Antonio Palopó	9	San Antonio Palopo	12	Diciembre	2023-08-12T00:00:00	2024-11-08T20:00:00	8	Radiación solar	0
23705	7	Sololá	712	San Antonio Palopó	9	San Antonio Palopo	12	Diciembre	2023-08-12T00:00:00	2024-11-08T21:00:00	2	Temperatura media	20.1
23706	7	Sololá	712	San Antonio Palopó	9	San Antonio Palopo	12	Diciembre	2023-08-12T00:00:00	2024-11-08T21:00:00	4	Temperatura máxima	20.3
23707	7	Sololá	712	San Antonio Palopó	9	San Antonio Palopo	12	Diciembre	2023-08-12T00:00:00	2024-11-08T21:00:00	3	Temperatura mínima	19.8
23708	7	Sololá	712	San Antonio Palopó	9	San Antonio Palopo	12	Diciembre	2023-08-12T00:00:00	2024-11-08T21:00:00	5	Humedad	69
23709	7	Sololá	712	San Antonio Palopó	9	San Antonio Palopo	12	Diciembre	2023-08-12T00:00:00	2024-11-08T21:00:00	6	Velocidad del viento	8
23710	7	Sololá	712	San Antonio Palopó	9	San Antonio Palopo	12	Diciembre	2023-08-12T00:00:00	2024-11-08T21:00:00	7	Dirección del viento	8.05
23711	7	Sololá	712	San Antonio Palopó	9	San Antonio Palopo	12	Diciembre	2023-08-12T00:00:00	2024-11-08T21:00:00	1	Precipitación	0
23712	7	Sololá	712	San Antonio Palopó	9	San Antonio Palopo	12	Diciembre	2023-08-12T00:00:00	2024-11-08T21:00:00	8	Radiación solar	0
23713	7	Sololá	712	San Antonio Palopó	9	San Antonio Palopo	12	Diciembre	2023-08-12T00:00:00	2024-11-08T22:00:00	2	Temperatura media	20.2
23714	7	Sololá	712	San Antonio Palopó	9	San Antonio Palopo	12	Diciembre	2023-08-12T00:00:00	2024-11-08T22:00:00	4	Temperatura máxima	20.6
23715	7	Sololá	712	San Antonio Palopó	9	San Antonio Palopo	12	Diciembre	2023-08-12T00:00:00	2024-11-08T22:00:00	3	Temperatura mínima	19.9
23716	7	Sololá	712	San Antonio Palopó	9	San Antonio Palopo	12	Diciembre	2023-08-12T00:00:00	2024-11-08T22:00:00	5	Humedad	68
23717	7	Sololá	712	San Antonio Palopó	9	San Antonio Palopo	12	Diciembre	2023-08-12T00:00:00	2024-11-08T22:00:00	6	Velocidad del viento	8
23718	7	Sololá	712	San Antonio Palopó	9	San Antonio Palopo	12	Diciembre	2023-08-12T00:00:00	2024-11-08T22:00:00	7	Dirección del viento	8.05
23719	7	Sololá	712	San Antonio Palopó	9	San Antonio Palopo	12	Diciembre	2023-08-12T00:00:00	2024-11-08T22:00:00	1	Precipitación	0
23720	7	Sololá	712	San Antonio Palopó	9	San Antonio Palopo	12	Diciembre	2023-08-12T00:00:00	2024-11-08T22:00:00	8	Radiación solar	0
23721	7	Sololá	712	San Antonio Palopó	9	San Antonio Palopo	12	Diciembre	2023-08-12T00:00:00	2024-11-08T23:00:00	2	Temperatura media	19.6
23722	7	Sololá	712	San Antonio Palopó	9	San Antonio Palopo	12	Diciembre	2023-08-12T00:00:00	2024-11-08T23:00:00	4	Temperatura máxima	20.2
23723	7	Sololá	712	San Antonio Palopó	9	San Antonio Palopo	12	Diciembre	2023-08-12T00:00:00	2024-11-08T23:00:00	3	Temperatura mínima	19.5
23724	7	Sololá	712	San Antonio Palopó	9	San Antonio Palopo	12	Diciembre	2023-08-12T00:00:00	2024-11-08T23:00:00	5	Humedad	70
23725	7	Sololá	712	San Antonio Palopó	9	San Antonio Palopo	12	Diciembre	2023-08-12T00:00:00	2024-11-08T23:00:00	6	Velocidad del viento	14.5
23726	7	Sololá	712	San Antonio Palopó	9	San Antonio Palopo	12	Diciembre	2023-08-12T00:00:00	2024-11-08T23:00:00	7	Dirección del viento	14.48
23727	7	Sololá	712	San Antonio Palopó	9	San Antonio Palopo	12	Diciembre	2023-08-12T00:00:00	2024-11-08T23:00:00	1	Precipitación	0
23728	7	Sololá	712	San Antonio Palopó	9	San Antonio Palopo	12	Diciembre	2023-08-12T00:00:00	2024-11-08T23:00:00	8	Radiación solar	0
23729	7	Sololá	712	San Antonio Palopó	9	San Antonio Palopo	12	Diciembre	2023-09-12T00:00:00	2024-11-08T00:00:00	2	Temperatura media	19.7
23730	7	Sololá	712	San Antonio Palopó	9	San Antonio Palopo	12	Diciembre	2023-09-12T00:00:00	2024-11-08T00:00:00	4	Temperatura máxima	19.7
23731	7	Sololá	712	San Antonio Palopó	9	San Antonio Palopo	12	Diciembre	2023-09-12T00:00:00	2024-11-08T00:00:00	3	Temperatura mínima	19.6
23732	7	Sololá	712	San Antonio Palopó	9	San Antonio Palopo	12	Diciembre	2023-09-12T00:00:00	2024-11-08T00:00:00	5	Humedad	68
23733	7	Sololá	712	San Antonio Palopó	9	San Antonio Palopo	12	Diciembre	2023-09-12T00:00:00	2024-11-08T00:00:00	6	Velocidad del viento	16.1
23734	7	Sololá	712	San Antonio Palopó	9	San Antonio Palopo	12	Diciembre	2023-09-12T00:00:00	2024-11-08T00:00:00	7	Dirección del viento	16.09
23735	7	Sololá	712	San Antonio Palopó	9	San Antonio Palopo	12	Diciembre	2023-09-12T00:00:00	2024-11-08T00:00:00	1	Precipitación	0
23736	7	Sololá	712	San Antonio Palopó	9	San Antonio Palopo	12	Diciembre	2023-09-12T00:00:00	2024-11-08T00:00:00	8	Radiación solar	0
23737	7	Sololá	712	San Antonio Palopó	9	San Antonio Palopo	12	Diciembre	2023-09-12T00:00:00	2024-11-08T01:00:00	2	Temperatura media	19.3
23738	7	Sololá	712	San Antonio Palopó	9	San Antonio Palopo	12	Diciembre	2023-09-12T00:00:00	2024-11-08T01:00:00	4	Temperatura máxima	19.7
23739	7	Sololá	712	San Antonio Palopó	9	San Antonio Palopo	12	Diciembre	2023-09-12T00:00:00	2024-11-08T01:00:00	3	Temperatura mínima	19.1
23740	7	Sololá	712	San Antonio Palopó	9	San Antonio Palopo	12	Diciembre	2023-09-12T00:00:00	2024-11-08T01:00:00	5	Humedad	70
23741	7	Sololá	712	San Antonio Palopó	9	San Antonio Palopo	12	Diciembre	2023-09-12T00:00:00	2024-11-08T01:00:00	6	Velocidad del viento	12.9
23742	7	Sololá	712	San Antonio Palopó	9	San Antonio Palopo	12	Diciembre	2023-09-12T00:00:00	2024-11-08T01:00:00	7	Dirección del viento	12.87
23743	7	Sololá	712	San Antonio Palopó	9	San Antonio Palopo	12	Diciembre	2023-09-12T00:00:00	2024-11-08T01:00:00	1	Precipitación	0
23744	7	Sololá	712	San Antonio Palopó	9	San Antonio Palopo	12	Diciembre	2023-09-12T00:00:00	2024-11-08T01:00:00	8	Radiación solar	0
23745	7	Sololá	712	San Antonio Palopó	9	San Antonio Palopo	12	Diciembre	2023-09-12T00:00:00	2024-11-08T02:00:00	2	Temperatura media	18.4
23746	7	Sololá	712	San Antonio Palopó	9	San Antonio Palopo	12	Diciembre	2023-09-12T00:00:00	2024-11-08T02:00:00	4	Temperatura máxima	19.3
23747	7	Sololá	712	San Antonio Palopó	9	San Antonio Palopo	12	Diciembre	2023-09-12T00:00:00	2024-11-08T02:00:00	3	Temperatura mínima	18.3
23748	7	Sololá	712	San Antonio Palopó	9	San Antonio Palopo	12	Diciembre	2023-09-12T00:00:00	2024-11-08T02:00:00	5	Humedad	71
23749	7	Sololá	712	San Antonio Palopó	9	San Antonio Palopo	12	Diciembre	2023-09-12T00:00:00	2024-11-08T02:00:00	6	Velocidad del viento	17.7
23750	7	Sololá	712	San Antonio Palopó	9	San Antonio Palopo	12	Diciembre	2023-09-12T00:00:00	2024-11-08T02:00:00	7	Dirección del viento	17.7
23751	7	Sololá	712	San Antonio Palopó	9	San Antonio Palopo	12	Diciembre	2023-09-12T00:00:00	2024-11-08T02:00:00	1	Precipitación	0
23752	7	Sololá	712	San Antonio Palopó	9	San Antonio Palopo	12	Diciembre	2023-09-12T00:00:00	2024-11-08T02:00:00	8	Radiación solar	0
23753	7	Sololá	712	San Antonio Palopó	9	San Antonio Palopo	12	Diciembre	2023-09-12T00:00:00	2024-11-08T03:00:00	2	Temperatura media	17.7
23754	7	Sololá	712	San Antonio Palopó	9	San Antonio Palopo	12	Diciembre	2023-09-12T00:00:00	2024-11-08T03:00:00	4	Temperatura máxima	18.7
23755	7	Sololá	712	San Antonio Palopó	9	San Antonio Palopo	12	Diciembre	2023-09-12T00:00:00	2024-11-08T03:00:00	3	Temperatura mínima	17.7
23756	7	Sololá	712	San Antonio Palopó	9	San Antonio Palopo	12	Diciembre	2023-09-12T00:00:00	2024-11-08T03:00:00	5	Humedad	72
23757	7	Sololá	712	San Antonio Palopó	9	San Antonio Palopo	12	Diciembre	2023-09-12T00:00:00	2024-11-08T03:00:00	6	Velocidad del viento	14.5
23758	7	Sololá	712	San Antonio Palopó	9	San Antonio Palopo	12	Diciembre	2023-09-12T00:00:00	2024-11-08T03:00:00	7	Dirección del viento	14.48
23759	7	Sololá	712	San Antonio Palopó	9	San Antonio Palopo	12	Diciembre	2023-09-12T00:00:00	2024-11-08T03:00:00	1	Precipitación	0
23760	7	Sololá	712	San Antonio Palopó	9	San Antonio Palopo	12	Diciembre	2023-09-12T00:00:00	2024-11-08T03:00:00	8	Radiación solar	0
23761	7	Sololá	712	San Antonio Palopó	9	San Antonio Palopo	12	Diciembre	2023-09-12T00:00:00	2024-11-08T04:00:00	2	Temperatura media	17.9
23762	7	Sololá	712	San Antonio Palopó	9	San Antonio Palopo	12	Diciembre	2023-09-12T00:00:00	2024-11-08T04:00:00	4	Temperatura máxima	17.9
23763	7	Sololá	712	San Antonio Palopó	9	San Antonio Palopo	12	Diciembre	2023-09-12T00:00:00	2024-11-08T04:00:00	3	Temperatura mínima	17.4
23764	7	Sololá	712	San Antonio Palopó	9	San Antonio Palopo	12	Diciembre	2023-09-12T00:00:00	2024-11-08T04:00:00	5	Humedad	69
23765	7	Sololá	712	San Antonio Palopó	9	San Antonio Palopo	12	Diciembre	2023-09-12T00:00:00	2024-11-08T04:00:00	6	Velocidad del viento	12.9
23766	7	Sololá	712	San Antonio Palopó	9	San Antonio Palopo	12	Diciembre	2023-09-12T00:00:00	2024-11-08T04:00:00	7	Dirección del viento	12.87
23767	7	Sololá	712	San Antonio Palopó	9	San Antonio Palopo	12	Diciembre	2023-09-12T00:00:00	2024-11-08T04:00:00	1	Precipitación	0
23768	7	Sololá	712	San Antonio Palopó	9	San Antonio Palopo	12	Diciembre	2023-09-12T00:00:00	2024-11-08T04:00:00	8	Radiación solar	0
23769	7	Sololá	712	San Antonio Palopó	9	San Antonio Palopo	12	Diciembre	2023-09-12T00:00:00	2024-11-08T05:00:00	2	Temperatura media	17.9
23770	7	Sololá	712	San Antonio Palopó	9	San Antonio Palopo	12	Diciembre	2023-09-12T00:00:00	2024-11-08T05:00:00	4	Temperatura máxima	18.3
23771	7	Sololá	712	San Antonio Palopó	9	San Antonio Palopo	12	Diciembre	2023-09-12T00:00:00	2024-11-08T05:00:00	3	Temperatura mínima	17.7
23772	7	Sololá	712	San Antonio Palopó	9	San Antonio Palopo	12	Diciembre	2023-09-12T00:00:00	2024-11-08T05:00:00	5	Humedad	69
23773	7	Sololá	712	San Antonio Palopó	9	San Antonio Palopo	12	Diciembre	2023-09-12T00:00:00	2024-11-08T05:00:00	6	Velocidad del viento	9.7
23774	7	Sololá	712	San Antonio Palopó	9	San Antonio Palopo	12	Diciembre	2023-09-12T00:00:00	2024-11-08T05:00:00	7	Dirección del viento	9.66
23775	7	Sololá	712	San Antonio Palopó	9	San Antonio Palopo	12	Diciembre	2023-09-12T00:00:00	2024-11-08T05:00:00	1	Precipitación	0
23776	7	Sololá	712	San Antonio Palopó	9	San Antonio Palopo	12	Diciembre	2023-09-12T00:00:00	2024-11-08T05:00:00	8	Radiación solar	0
23777	7	Sololá	712	San Antonio Palopó	9	San Antonio Palopo	12	Diciembre	2023-09-12T00:00:00	2024-11-08T06:00:00	2	Temperatura media	17.4
23778	7	Sololá	712	San Antonio Palopó	9	San Antonio Palopo	12	Diciembre	2023-09-12T00:00:00	2024-11-08T06:00:00	4	Temperatura máxima	17.9
23779	7	Sololá	712	San Antonio Palopó	9	San Antonio Palopo	12	Diciembre	2023-09-12T00:00:00	2024-11-08T06:00:00	3	Temperatura mínima	17.4
23780	7	Sololá	712	San Antonio Palopó	9	San Antonio Palopo	12	Diciembre	2023-09-12T00:00:00	2024-11-08T06:00:00	5	Humedad	72
23781	7	Sololá	712	San Antonio Palopó	9	San Antonio Palopo	12	Diciembre	2023-09-12T00:00:00	2024-11-08T06:00:00	6	Velocidad del viento	9.7
23782	7	Sololá	712	San Antonio Palopó	9	San Antonio Palopo	12	Diciembre	2023-09-12T00:00:00	2024-11-08T06:00:00	7	Dirección del viento	9.66
23783	7	Sololá	712	San Antonio Palopó	9	San Antonio Palopo	12	Diciembre	2023-09-12T00:00:00	2024-11-08T06:00:00	1	Precipitación	0
23784	7	Sololá	712	San Antonio Palopó	9	San Antonio Palopo	12	Diciembre	2023-09-12T00:00:00	2024-11-08T06:00:00	8	Radiación solar	0
23785	7	Sololá	712	San Antonio Palopó	9	San Antonio Palopo	12	Diciembre	2023-09-12T00:00:00	2024-11-08T07:00:00	2	Temperatura media	17.6
23786	7	Sololá	712	San Antonio Palopó	9	San Antonio Palopo	12	Diciembre	2023-09-12T00:00:00	2024-11-08T07:00:00	4	Temperatura máxima	17.7
23787	7	Sololá	712	San Antonio Palopó	9	San Antonio Palopo	12	Diciembre	2023-09-12T00:00:00	2024-11-08T07:00:00	3	Temperatura mínima	17.3
23788	7	Sololá	712	San Antonio Palopó	9	San Antonio Palopo	12	Diciembre	2023-09-12T00:00:00	2024-11-08T07:00:00	5	Humedad	71
23789	7	Sololá	712	San Antonio Palopó	9	San Antonio Palopo	12	Diciembre	2023-09-12T00:00:00	2024-11-08T07:00:00	6	Velocidad del viento	12.9
23790	7	Sololá	712	San Antonio Palopó	9	San Antonio Palopo	12	Diciembre	2023-09-12T00:00:00	2024-11-08T07:00:00	7	Dirección del viento	12.87
23791	7	Sololá	712	San Antonio Palopó	9	San Antonio Palopo	12	Diciembre	2023-09-12T00:00:00	2024-11-08T07:00:00	1	Precipitación	0
23792	7	Sololá	712	San Antonio Palopó	9	San Antonio Palopo	12	Diciembre	2023-09-12T00:00:00	2024-11-08T07:00:00	8	Radiación solar	6
23793	7	Sololá	712	San Antonio Palopó	9	San Antonio Palopo	12	Diciembre	2023-09-12T00:00:00	2024-11-08T08:00:00	2	Temperatura media	18.2
23794	7	Sololá	712	San Antonio Palopó	9	San Antonio Palopo	12	Diciembre	2023-09-12T00:00:00	2024-11-08T08:00:00	4	Temperatura máxima	18.3
23795	7	Sololá	712	San Antonio Palopó	9	San Antonio Palopo	12	Diciembre	2023-09-12T00:00:00	2024-11-08T08:00:00	3	Temperatura mínima	17.6
23796	7	Sololá	712	San Antonio Palopó	9	San Antonio Palopo	12	Diciembre	2023-09-12T00:00:00	2024-11-08T08:00:00	5	Humedad	71
23797	7	Sololá	712	San Antonio Palopó	9	San Antonio Palopo	12	Diciembre	2023-09-12T00:00:00	2024-11-08T08:00:00	6	Velocidad del viento	4.8
23798	7	Sololá	712	San Antonio Palopó	9	San Antonio Palopo	12	Diciembre	2023-09-12T00:00:00	2024-11-08T08:00:00	7	Dirección del viento	4.83
23799	7	Sololá	712	San Antonio Palopó	9	San Antonio Palopo	12	Diciembre	2023-09-12T00:00:00	2024-11-08T08:00:00	1	Precipitación	0
23800	7	Sololá	712	San Antonio Palopó	9	San Antonio Palopo	12	Diciembre	2023-09-12T00:00:00	2024-11-08T08:00:00	8	Radiación solar	23
23801	7	Sololá	712	San Antonio Palopó	9	San Antonio Palopo	12	Diciembre	2023-09-12T00:00:00	2024-11-08T09:00:00	2	Temperatura media	19.7
23802	7	Sololá	712	San Antonio Palopó	9	San Antonio Palopo	12	Diciembre	2023-09-12T00:00:00	2024-11-08T09:00:00	4	Temperatura máxima	19.7
23803	7	Sololá	712	San Antonio Palopó	9	San Antonio Palopo	12	Diciembre	2023-09-12T00:00:00	2024-11-08T09:00:00	3	Temperatura mínima	17.7
23804	7	Sololá	712	San Antonio Palopó	9	San Antonio Palopo	12	Diciembre	2023-09-12T00:00:00	2024-11-08T09:00:00	5	Humedad	68
23805	7	Sololá	712	San Antonio Palopó	9	San Antonio Palopo	12	Diciembre	2023-09-12T00:00:00	2024-11-08T09:00:00	6	Velocidad del viento	1.6
23806	7	Sololá	712	San Antonio Palopó	9	San Antonio Palopo	12	Diciembre	2023-09-12T00:00:00	2024-11-08T09:00:00	7	Dirección del viento	1.61
23807	7	Sololá	712	San Antonio Palopó	9	San Antonio Palopo	12	Diciembre	2023-09-12T00:00:00	2024-11-08T09:00:00	1	Precipitación	0
23808	7	Sololá	712	San Antonio Palopó	9	San Antonio Palopo	12	Diciembre	2023-09-12T00:00:00	2024-11-08T09:00:00	8	Radiación solar	173
23809	7	Sololá	712	San Antonio Palopó	9	San Antonio Palopo	12	Diciembre	2023-09-12T00:00:00	2024-11-08T10:00:00	2	Temperatura media	21.3
23810	7	Sololá	712	San Antonio Palopó	9	San Antonio Palopo	12	Diciembre	2023-09-12T00:00:00	2024-11-08T10:00:00	4	Temperatura máxima	21.3
23811	7	Sololá	712	San Antonio Palopó	9	San Antonio Palopo	12	Diciembre	2023-09-12T00:00:00	2024-11-08T10:00:00	3	Temperatura mínima	19.7
23812	7	Sololá	712	San Antonio Palopó	9	San Antonio Palopo	12	Diciembre	2023-09-12T00:00:00	2024-11-08T10:00:00	5	Humedad	65
23813	7	Sololá	712	San Antonio Palopó	9	San Antonio Palopo	12	Diciembre	2023-09-12T00:00:00	2024-11-08T10:00:00	6	Velocidad del viento	1.6
23814	7	Sololá	712	San Antonio Palopó	9	San Antonio Palopo	12	Diciembre	2023-09-12T00:00:00	2024-11-08T10:00:00	7	Dirección del viento	1.61
23815	7	Sololá	712	San Antonio Palopó	9	San Antonio Palopo	12	Diciembre	2023-09-12T00:00:00	2024-11-08T10:00:00	1	Precipitación	0
23816	7	Sololá	712	San Antonio Palopó	9	San Antonio Palopo	12	Diciembre	2023-09-12T00:00:00	2024-11-08T10:00:00	8	Radiación solar	533
23817	7	Sololá	712	San Antonio Palopó	9	San Antonio Palopo	12	Diciembre	2023-09-12T00:00:00	2024-11-08T11:00:00	2	Temperatura media	25
23818	7	Sololá	712	San Antonio Palopó	9	San Antonio Palopo	12	Diciembre	2023-09-12T00:00:00	2024-11-08T11:00:00	4	Temperatura máxima	25
23819	7	Sololá	712	San Antonio Palopó	9	San Antonio Palopo	12	Diciembre	2023-09-12T00:00:00	2024-11-08T11:00:00	3	Temperatura mínima	21.1
23820	7	Sololá	712	San Antonio Palopó	9	San Antonio Palopo	12	Diciembre	2023-09-12T00:00:00	2024-11-08T11:00:00	5	Humedad	42
23821	7	Sololá	712	San Antonio Palopó	9	San Antonio Palopo	12	Diciembre	2023-09-12T00:00:00	2024-11-08T11:00:00	6	Velocidad del viento	6.4
23822	7	Sololá	712	San Antonio Palopó	9	San Antonio Palopo	12	Diciembre	2023-09-12T00:00:00	2024-11-08T11:00:00	7	Dirección del viento	6.44
23823	7	Sololá	712	San Antonio Palopó	9	San Antonio Palopo	12	Diciembre	2023-09-12T00:00:00	2024-11-08T11:00:00	1	Precipitación	0
23824	7	Sololá	712	San Antonio Palopó	9	San Antonio Palopo	12	Diciembre	2023-09-12T00:00:00	2024-11-08T11:00:00	8	Radiación solar	700
23825	7	Sololá	712	San Antonio Palopó	9	San Antonio Palopo	12	Diciembre	2023-09-12T00:00:00	2024-11-08T12:00:00	2	Temperatura media	26.3
23826	7	Sololá	712	San Antonio Palopó	9	San Antonio Palopo	12	Diciembre	2023-09-12T00:00:00	2024-11-08T12:00:00	4	Temperatura máxima	26.4
23827	7	Sololá	712	San Antonio Palopó	9	San Antonio Palopo	12	Diciembre	2023-09-12T00:00:00	2024-11-08T12:00:00	3	Temperatura mínima	25
23828	7	Sololá	712	San Antonio Palopó	9	San Antonio Palopo	12	Diciembre	2023-09-12T00:00:00	2024-11-08T12:00:00	5	Humedad	38
23829	7	Sololá	712	San Antonio Palopó	9	San Antonio Palopo	12	Diciembre	2023-09-12T00:00:00	2024-11-08T12:00:00	6	Velocidad del viento	11.3
23830	7	Sololá	712	San Antonio Palopó	9	San Antonio Palopo	12	Diciembre	2023-09-12T00:00:00	2024-11-08T12:00:00	7	Dirección del viento	11.27
23831	7	Sololá	712	San Antonio Palopó	9	San Antonio Palopo	12	Diciembre	2023-09-12T00:00:00	2024-11-08T12:00:00	1	Precipitación	0
23832	7	Sololá	712	San Antonio Palopó	9	San Antonio Palopo	12	Diciembre	2023-09-12T00:00:00	2024-11-08T12:00:00	8	Radiación solar	662
23833	7	Sololá	712	San Antonio Palopó	9	San Antonio Palopo	12	Diciembre	2023-09-12T00:00:00	2024-11-08T13:00:00	2	Temperatura media	26.4
23834	7	Sololá	712	San Antonio Palopó	9	San Antonio Palopo	12	Diciembre	2023-09-12T00:00:00	2024-11-08T13:00:00	4	Temperatura máxima	26.8
23835	7	Sololá	712	San Antonio Palopó	9	San Antonio Palopo	12	Diciembre	2023-09-12T00:00:00	2024-11-08T13:00:00	3	Temperatura mínima	25.4
23836	7	Sololá	712	San Antonio Palopó	9	San Antonio Palopo	12	Diciembre	2023-09-12T00:00:00	2024-11-08T13:00:00	5	Humedad	53
23837	7	Sololá	712	San Antonio Palopó	9	San Antonio Palopo	12	Diciembre	2023-09-12T00:00:00	2024-11-08T13:00:00	6	Velocidad del viento	11.3
23838	7	Sololá	712	San Antonio Palopó	9	San Antonio Palopo	12	Diciembre	2023-09-12T00:00:00	2024-11-08T13:00:00	7	Dirección del viento	11.27
23839	7	Sololá	712	San Antonio Palopó	9	San Antonio Palopo	12	Diciembre	2023-09-12T00:00:00	2024-11-08T13:00:00	1	Precipitación	0
23840	7	Sololá	712	San Antonio Palopó	9	San Antonio Palopo	12	Diciembre	2023-09-12T00:00:00	2024-11-08T13:00:00	8	Radiación solar	750
23841	7	Sololá	712	San Antonio Palopó	9	San Antonio Palopo	12	Diciembre	2023-09-12T00:00:00	2024-11-08T14:00:00	2	Temperatura media	24.9
23842	7	Sololá	712	San Antonio Palopó	9	San Antonio Palopo	12	Diciembre	2023-09-12T00:00:00	2024-11-08T14:00:00	4	Temperatura máxima	26.3
23843	7	Sololá	712	San Antonio Palopó	9	San Antonio Palopo	12	Diciembre	2023-09-12T00:00:00	2024-11-08T14:00:00	3	Temperatura mínima	24.7
23844	7	Sololá	712	San Antonio Palopó	9	San Antonio Palopo	12	Diciembre	2023-09-12T00:00:00	2024-11-08T14:00:00	5	Humedad	60
23845	7	Sololá	712	San Antonio Palopó	9	San Antonio Palopo	12	Diciembre	2023-09-12T00:00:00	2024-11-08T14:00:00	6	Velocidad del viento	11.3
23846	7	Sololá	712	San Antonio Palopó	9	San Antonio Palopo	12	Diciembre	2023-09-12T00:00:00	2024-11-08T14:00:00	7	Dirección del viento	11.27
23847	7	Sololá	712	San Antonio Palopó	9	San Antonio Palopo	12	Diciembre	2023-09-12T00:00:00	2024-11-08T14:00:00	1	Precipitación	0
23848	7	Sololá	712	San Antonio Palopó	9	San Antonio Palopo	12	Diciembre	2023-09-12T00:00:00	2024-11-08T14:00:00	8	Radiación solar	661
23849	7	Sololá	712	San Antonio Palopó	9	San Antonio Palopo	12	Diciembre	2023-09-12T00:00:00	2024-11-08T15:00:00	2	Temperatura media	24.3
23850	7	Sololá	712	San Antonio Palopó	9	San Antonio Palopo	12	Diciembre	2023-09-12T00:00:00	2024-11-08T15:00:00	4	Temperatura máxima	24.9
23851	7	Sololá	712	San Antonio Palopó	9	San Antonio Palopo	12	Diciembre	2023-09-12T00:00:00	2024-11-08T15:00:00	3	Temperatura mínima	24.2
23852	7	Sololá	712	San Antonio Palopó	9	San Antonio Palopo	12	Diciembre	2023-09-12T00:00:00	2024-11-08T15:00:00	5	Humedad	67
23853	7	Sololá	712	San Antonio Palopó	9	San Antonio Palopo	12	Diciembre	2023-09-12T00:00:00	2024-11-08T15:00:00	6	Velocidad del viento	14.5
23854	7	Sololá	712	San Antonio Palopó	9	San Antonio Palopo	12	Diciembre	2023-09-12T00:00:00	2024-11-08T15:00:00	7	Dirección del viento	14.48
23855	7	Sololá	712	San Antonio Palopó	9	San Antonio Palopo	12	Diciembre	2023-09-12T00:00:00	2024-11-08T15:00:00	1	Precipitación	0
23856	7	Sololá	712	San Antonio Palopó	9	San Antonio Palopo	12	Diciembre	2023-09-12T00:00:00	2024-11-08T15:00:00	8	Radiación solar	511
23857	7	Sololá	712	San Antonio Palopó	9	San Antonio Palopo	12	Diciembre	2023-09-12T00:00:00	2024-11-08T16:00:00	2	Temperatura media	25.7
23858	7	Sololá	712	San Antonio Palopó	9	San Antonio Palopo	12	Diciembre	2023-09-12T00:00:00	2024-11-08T16:00:00	4	Temperatura máxima	25.8
23859	7	Sololá	712	San Antonio Palopó	9	San Antonio Palopo	12	Diciembre	2023-09-12T00:00:00	2024-11-08T16:00:00	3	Temperatura mínima	22.9
23860	7	Sololá	712	San Antonio Palopó	9	San Antonio Palopo	12	Diciembre	2023-09-12T00:00:00	2024-11-08T16:00:00	5	Humedad	53
23861	7	Sololá	712	San Antonio Palopó	9	San Antonio Palopo	12	Diciembre	2023-09-12T00:00:00	2024-11-08T16:00:00	6	Velocidad del viento	9.7
23862	7	Sololá	712	San Antonio Palopó	9	San Antonio Palopo	12	Diciembre	2023-09-12T00:00:00	2024-11-08T16:00:00	7	Dirección del viento	9.66
23863	7	Sololá	712	San Antonio Palopó	9	San Antonio Palopo	12	Diciembre	2023-09-12T00:00:00	2024-11-08T16:00:00	1	Precipitación	0
23864	7	Sololá	712	San Antonio Palopó	9	San Antonio Palopo	12	Diciembre	2023-09-12T00:00:00	2024-11-08T16:00:00	8	Radiación solar	346
23865	7	Sololá	712	San Antonio Palopó	9	San Antonio Palopo	12	Diciembre	2023-09-12T00:00:00	2024-11-08T17:00:00	2	Temperatura media	22.5
23866	7	Sololá	712	San Antonio Palopó	9	San Antonio Palopo	12	Diciembre	2023-09-12T00:00:00	2024-11-08T17:00:00	4	Temperatura máxima	25.7
23867	7	Sololá	712	San Antonio Palopó	9	San Antonio Palopo	12	Diciembre	2023-09-12T00:00:00	2024-11-08T17:00:00	3	Temperatura mínima	22.4
23868	7	Sololá	712	San Antonio Palopó	9	San Antonio Palopo	12	Diciembre	2023-09-12T00:00:00	2024-11-08T17:00:00	5	Humedad	73
23869	7	Sololá	712	San Antonio Palopó	9	San Antonio Palopo	12	Diciembre	2023-09-12T00:00:00	2024-11-08T17:00:00	6	Velocidad del viento	8
23870	7	Sololá	712	San Antonio Palopó	9	San Antonio Palopo	12	Diciembre	2023-09-12T00:00:00	2024-11-08T17:00:00	7	Dirección del viento	8.05
23871	7	Sololá	712	San Antonio Palopó	9	San Antonio Palopo	12	Diciembre	2023-09-12T00:00:00	2024-11-08T17:00:00	1	Precipitación	0
23872	7	Sololá	712	San Antonio Palopó	9	San Antonio Palopo	12	Diciembre	2023-09-12T00:00:00	2024-11-08T17:00:00	8	Radiación solar	126
23873	7	Sololá	712	San Antonio Palopó	9	San Antonio Palopo	12	Diciembre	2023-09-12T00:00:00	2024-11-08T18:00:00	2	Temperatura media	21.3
23874	7	Sololá	712	San Antonio Palopó	9	San Antonio Palopo	12	Diciembre	2023-09-12T00:00:00	2024-11-08T18:00:00	4	Temperatura máxima	22.5
23875	7	Sololá	712	San Antonio Palopó	9	San Antonio Palopo	12	Diciembre	2023-09-12T00:00:00	2024-11-08T18:00:00	3	Temperatura mínima	21.3
23876	7	Sololá	712	San Antonio Palopó	9	San Antonio Palopo	12	Diciembre	2023-09-12T00:00:00	2024-11-08T18:00:00	5	Humedad	70
23877	7	Sololá	712	San Antonio Palopó	9	San Antonio Palopo	12	Diciembre	2023-09-12T00:00:00	2024-11-08T18:00:00	6	Velocidad del viento	4.8
23878	7	Sololá	712	San Antonio Palopó	9	San Antonio Palopo	12	Diciembre	2023-09-12T00:00:00	2024-11-08T18:00:00	7	Dirección del viento	4.83
23879	7	Sololá	712	San Antonio Palopó	9	San Antonio Palopo	12	Diciembre	2023-09-12T00:00:00	2024-11-08T18:00:00	1	Precipitación	0
23880	7	Sololá	712	San Antonio Palopó	9	San Antonio Palopo	12	Diciembre	2023-09-12T00:00:00	2024-11-08T18:00:00	8	Radiación solar	13
23881	7	Sololá	712	San Antonio Palopó	9	San Antonio Palopo	12	Diciembre	2023-09-12T00:00:00	2024-11-08T19:00:00	2	Temperatura media	20
23882	7	Sololá	712	San Antonio Palopó	9	San Antonio Palopo	12	Diciembre	2023-09-12T00:00:00	2024-11-08T19:00:00	4	Temperatura máxima	21.3
23883	7	Sololá	712	San Antonio Palopó	9	San Antonio Palopo	12	Diciembre	2023-09-12T00:00:00	2024-11-08T19:00:00	3	Temperatura mínima	19.9
23884	7	Sololá	712	San Antonio Palopó	9	San Antonio Palopo	12	Diciembre	2023-09-12T00:00:00	2024-11-08T19:00:00	5	Humedad	69
23885	7	Sololá	712	San Antonio Palopó	9	San Antonio Palopo	12	Diciembre	2023-09-12T00:00:00	2024-11-08T19:00:00	6	Velocidad del viento	3.2
23886	7	Sololá	712	San Antonio Palopó	9	San Antonio Palopo	12	Diciembre	2023-09-12T00:00:00	2024-11-08T19:00:00	7	Dirección del viento	3.22
23887	7	Sololá	712	San Antonio Palopó	9	San Antonio Palopo	12	Diciembre	2023-09-12T00:00:00	2024-11-08T19:00:00	1	Precipitación	0
23888	7	Sololá	712	San Antonio Palopó	9	San Antonio Palopo	12	Diciembre	2023-09-12T00:00:00	2024-11-08T19:00:00	8	Radiación solar	0
23889	7	Sololá	712	San Antonio Palopó	9	San Antonio Palopo	12	Diciembre	2023-09-12T00:00:00	2024-11-08T20:00:00	2	Temperatura media	20.3
23890	7	Sololá	712	San Antonio Palopó	9	San Antonio Palopo	12	Diciembre	2023-09-12T00:00:00	2024-11-08T20:00:00	4	Temperatura máxima	20.9
23891	7	Sololá	712	San Antonio Palopó	9	San Antonio Palopo	12	Diciembre	2023-09-12T00:00:00	2024-11-08T20:00:00	3	Temperatura mínima	19.9
23892	7	Sololá	712	San Antonio Palopó	9	San Antonio Palopo	12	Diciembre	2023-09-12T00:00:00	2024-11-08T20:00:00	5	Humedad	66
23893	7	Sololá	712	San Antonio Palopó	9	San Antonio Palopo	12	Diciembre	2023-09-12T00:00:00	2024-11-08T20:00:00	6	Velocidad del viento	8
23894	7	Sololá	712	San Antonio Palopó	9	San Antonio Palopo	12	Diciembre	2023-09-12T00:00:00	2024-11-08T20:00:00	7	Dirección del viento	8.05
23895	7	Sololá	712	San Antonio Palopó	9	San Antonio Palopo	12	Diciembre	2023-09-12T00:00:00	2024-11-08T20:00:00	1	Precipitación	0
23896	7	Sololá	712	San Antonio Palopó	9	San Antonio Palopo	12	Diciembre	2023-09-12T00:00:00	2024-11-08T20:00:00	8	Radiación solar	0
23897	7	Sololá	712	San Antonio Palopó	9	San Antonio Palopo	12	Diciembre	2023-09-12T00:00:00	2024-11-08T21:00:00	2	Temperatura media	20
23898	7	Sololá	712	San Antonio Palopó	9	San Antonio Palopo	12	Diciembre	2023-09-12T00:00:00	2024-11-08T21:00:00	4	Temperatura máxima	20.3
23899	7	Sololá	712	San Antonio Palopó	9	San Antonio Palopo	12	Diciembre	2023-09-12T00:00:00	2024-11-08T21:00:00	3	Temperatura mínima	19.9
23900	7	Sololá	712	San Antonio Palopó	9	San Antonio Palopo	12	Diciembre	2023-09-12T00:00:00	2024-11-08T21:00:00	5	Humedad	69
23901	7	Sololá	712	San Antonio Palopó	9	San Antonio Palopo	12	Diciembre	2023-09-12T00:00:00	2024-11-08T21:00:00	6	Velocidad del viento	8
23902	7	Sololá	712	San Antonio Palopó	9	San Antonio Palopo	12	Diciembre	2023-09-12T00:00:00	2024-11-08T21:00:00	7	Dirección del viento	8.05
23903	7	Sololá	712	San Antonio Palopó	9	San Antonio Palopo	12	Diciembre	2023-09-12T00:00:00	2024-11-08T21:00:00	1	Precipitación	0
23904	7	Sololá	712	San Antonio Palopó	9	San Antonio Palopo	12	Diciembre	2023-09-12T00:00:00	2024-11-08T21:00:00	8	Radiación solar	0
23905	7	Sololá	712	San Antonio Palopó	9	San Antonio Palopo	12	Diciembre	2023-09-12T00:00:00	2024-11-08T22:00:00	2	Temperatura media	19.4
23906	7	Sololá	712	San Antonio Palopó	9	San Antonio Palopo	12	Diciembre	2023-09-12T00:00:00	2024-11-08T22:00:00	4	Temperatura máxima	20
23907	7	Sololá	712	San Antonio Palopó	9	San Antonio Palopo	12	Diciembre	2023-09-12T00:00:00	2024-11-08T22:00:00	3	Temperatura mínima	19.4
23908	7	Sololá	712	San Antonio Palopó	9	San Antonio Palopo	12	Diciembre	2023-09-12T00:00:00	2024-11-08T22:00:00	5	Humedad	70
23909	7	Sololá	712	San Antonio Palopó	9	San Antonio Palopo	12	Diciembre	2023-09-12T00:00:00	2024-11-08T22:00:00	6	Velocidad del viento	16.1
23910	7	Sololá	712	San Antonio Palopó	9	San Antonio Palopo	12	Diciembre	2023-09-12T00:00:00	2024-11-08T22:00:00	7	Dirección del viento	16.09
23911	7	Sololá	712	San Antonio Palopó	9	San Antonio Palopo	12	Diciembre	2023-09-12T00:00:00	2024-11-08T22:00:00	1	Precipitación	0
23912	7	Sololá	712	San Antonio Palopó	9	San Antonio Palopo	12	Diciembre	2023-09-12T00:00:00	2024-11-08T22:00:00	8	Radiación solar	0
23913	7	Sololá	712	San Antonio Palopó	9	San Antonio Palopo	12	Diciembre	2023-09-12T00:00:00	2024-11-08T23:00:00	2	Temperatura media	18.8
23914	7	Sololá	712	San Antonio Palopó	9	San Antonio Palopo	12	Diciembre	2023-09-12T00:00:00	2024-11-08T23:00:00	4	Temperatura máxima	19.4
23915	7	Sololá	712	San Antonio Palopó	9	San Antonio Palopo	12	Diciembre	2023-09-12T00:00:00	2024-11-08T23:00:00	3	Temperatura mínima	18.8
23916	7	Sololá	712	San Antonio Palopó	9	San Antonio Palopo	12	Diciembre	2023-09-12T00:00:00	2024-11-08T23:00:00	5	Humedad	72
23917	7	Sololá	712	San Antonio Palopó	9	San Antonio Palopo	12	Diciembre	2023-09-12T00:00:00	2024-11-08T23:00:00	6	Velocidad del viento	16.1
23918	7	Sololá	712	San Antonio Palopó	9	San Antonio Palopo	12	Diciembre	2023-09-12T00:00:00	2024-11-08T23:00:00	7	Dirección del viento	16.09
23919	7	Sololá	712	San Antonio Palopó	9	San Antonio Palopo	12	Diciembre	2023-09-12T00:00:00	2024-11-08T23:00:00	1	Precipitación	0
23920	7	Sololá	712	San Antonio Palopó	9	San Antonio Palopo	12	Diciembre	2023-09-12T00:00:00	2024-11-08T23:00:00	8	Radiación solar	0
23921	7	Sololá	712	San Antonio Palopó	9	San Antonio Palopo	12	Diciembre	2023-10-12T00:00:00	2024-11-08T00:00:00	2	Temperatura media	18.7
23922	7	Sololá	712	San Antonio Palopó	9	San Antonio Palopo	12	Diciembre	2023-10-12T00:00:00	2024-11-08T00:00:00	4	Temperatura máxima	19.1
23923	7	Sololá	712	San Antonio Palopó	9	San Antonio Palopo	12	Diciembre	2023-10-12T00:00:00	2024-11-08T00:00:00	3	Temperatura mínima	18.7
23924	7	Sololá	712	San Antonio Palopó	9	San Antonio Palopo	12	Diciembre	2023-10-12T00:00:00	2024-11-08T00:00:00	5	Humedad	72
23925	7	Sololá	712	San Antonio Palopó	9	San Antonio Palopo	12	Diciembre	2023-10-12T00:00:00	2024-11-08T00:00:00	6	Velocidad del viento	17.7
23926	7	Sololá	712	San Antonio Palopó	9	San Antonio Palopo	12	Diciembre	2023-10-12T00:00:00	2024-11-08T00:00:00	7	Dirección del viento	17.7
23927	7	Sololá	712	San Antonio Palopó	9	San Antonio Palopo	12	Diciembre	2023-10-12T00:00:00	2024-11-08T00:00:00	1	Precipitación	0
23928	7	Sololá	712	San Antonio Palopó	9	San Antonio Palopo	12	Diciembre	2023-10-12T00:00:00	2024-11-08T00:00:00	8	Radiación solar	0
23929	7	Sololá	712	San Antonio Palopó	9	San Antonio Palopo	12	Diciembre	2023-10-12T00:00:00	2024-11-08T01:00:00	2	Temperatura media	17.9
23930	7	Sololá	712	San Antonio Palopó	9	San Antonio Palopo	12	Diciembre	2023-10-12T00:00:00	2024-11-08T01:00:00	4	Temperatura máxima	18.7
23931	7	Sololá	712	San Antonio Palopó	9	San Antonio Palopo	12	Diciembre	2023-10-12T00:00:00	2024-11-08T01:00:00	3	Temperatura mínima	17.9
23932	7	Sololá	712	San Antonio Palopó	9	San Antonio Palopo	12	Diciembre	2023-10-12T00:00:00	2024-11-08T01:00:00	5	Humedad	73
23933	7	Sololá	712	San Antonio Palopó	9	San Antonio Palopo	12	Diciembre	2023-10-12T00:00:00	2024-11-08T01:00:00	6	Velocidad del viento	16.1
23934	7	Sololá	712	San Antonio Palopó	9	San Antonio Palopo	12	Diciembre	2023-10-12T00:00:00	2024-11-08T01:00:00	7	Dirección del viento	16.09
23935	7	Sololá	712	San Antonio Palopó	9	San Antonio Palopo	12	Diciembre	2023-10-12T00:00:00	2024-11-08T01:00:00	1	Precipitación	0
23936	7	Sololá	712	San Antonio Palopó	9	San Antonio Palopo	12	Diciembre	2023-10-12T00:00:00	2024-11-08T01:00:00	8	Radiación solar	0
23937	7	Sololá	712	San Antonio Palopó	9	San Antonio Palopo	12	Diciembre	2023-10-12T00:00:00	2024-11-08T02:00:00	2	Temperatura media	17.6
23938	7	Sololá	712	San Antonio Palopó	9	San Antonio Palopo	12	Diciembre	2023-10-12T00:00:00	2024-11-08T02:00:00	4	Temperatura máxima	18.1
23939	7	Sololá	712	San Antonio Palopó	9	San Antonio Palopo	12	Diciembre	2023-10-12T00:00:00	2024-11-08T02:00:00	3	Temperatura mínima	17.6
23940	7	Sololá	712	San Antonio Palopó	9	San Antonio Palopo	12	Diciembre	2023-10-12T00:00:00	2024-11-08T02:00:00	5	Humedad	74
23941	7	Sololá	712	San Antonio Palopó	9	San Antonio Palopo	12	Diciembre	2023-10-12T00:00:00	2024-11-08T02:00:00	6	Velocidad del viento	11.3
23942	7	Sololá	712	San Antonio Palopó	9	San Antonio Palopo	12	Diciembre	2023-10-12T00:00:00	2024-11-08T02:00:00	7	Dirección del viento	11.27
23943	7	Sololá	712	San Antonio Palopó	9	San Antonio Palopo	12	Diciembre	2023-10-12T00:00:00	2024-11-08T02:00:00	1	Precipitación	0
23944	7	Sololá	712	San Antonio Palopó	9	San Antonio Palopo	12	Diciembre	2023-10-12T00:00:00	2024-11-08T02:00:00	8	Radiación solar	0
23945	7	Sololá	712	San Antonio Palopó	9	San Antonio Palopo	12	Diciembre	2023-10-12T00:00:00	2024-11-08T03:00:00	2	Temperatura media	17.5
23946	7	Sololá	712	San Antonio Palopó	9	San Antonio Palopo	12	Diciembre	2023-10-12T00:00:00	2024-11-08T03:00:00	4	Temperatura máxima	17.6
23947	7	Sololá	712	San Antonio Palopó	9	San Antonio Palopo	12	Diciembre	2023-10-12T00:00:00	2024-11-08T03:00:00	3	Temperatura mínima	17.4
23948	7	Sololá	712	San Antonio Palopó	9	San Antonio Palopo	12	Diciembre	2023-10-12T00:00:00	2024-11-08T03:00:00	5	Humedad	73
23949	7	Sololá	712	San Antonio Palopó	9	San Antonio Palopo	12	Diciembre	2023-10-12T00:00:00	2024-11-08T03:00:00	6	Velocidad del viento	14.5
23950	7	Sololá	712	San Antonio Palopó	9	San Antonio Palopo	12	Diciembre	2023-10-12T00:00:00	2024-11-08T03:00:00	7	Dirección del viento	14.48
23951	7	Sololá	712	San Antonio Palopó	9	San Antonio Palopo	12	Diciembre	2023-10-12T00:00:00	2024-11-08T03:00:00	1	Precipitación	0
23952	7	Sololá	712	San Antonio Palopó	9	San Antonio Palopo	12	Diciembre	2023-10-12T00:00:00	2024-11-08T03:00:00	8	Radiación solar	0
23953	7	Sololá	712	San Antonio Palopó	9	San Antonio Palopo	12	Diciembre	2023-10-12T00:00:00	2024-11-08T04:00:00	2	Temperatura media	17.3
23954	7	Sololá	712	San Antonio Palopó	9	San Antonio Palopo	12	Diciembre	2023-10-12T00:00:00	2024-11-08T04:00:00	4	Temperatura máxima	17.6
23955	7	Sololá	712	San Antonio Palopó	9	San Antonio Palopo	12	Diciembre	2023-10-12T00:00:00	2024-11-08T04:00:00	3	Temperatura mínima	17.3
23956	7	Sololá	712	San Antonio Palopó	9	San Antonio Palopo	12	Diciembre	2023-10-12T00:00:00	2024-11-08T04:00:00	5	Humedad	73
23957	7	Sololá	712	San Antonio Palopó	9	San Antonio Palopo	12	Diciembre	2023-10-12T00:00:00	2024-11-08T04:00:00	6	Velocidad del viento	14.5
23958	7	Sololá	712	San Antonio Palopó	9	San Antonio Palopo	12	Diciembre	2023-10-12T00:00:00	2024-11-08T04:00:00	7	Dirección del viento	14.48
23959	7	Sololá	712	San Antonio Palopó	9	San Antonio Palopo	12	Diciembre	2023-10-12T00:00:00	2024-11-08T04:00:00	1	Precipitación	0
23960	7	Sololá	712	San Antonio Palopó	9	San Antonio Palopo	12	Diciembre	2023-10-12T00:00:00	2024-11-08T04:00:00	8	Radiación solar	0
23961	7	Sololá	712	San Antonio Palopó	9	San Antonio Palopo	12	Diciembre	2023-10-12T00:00:00	2024-11-08T05:00:00	2	Temperatura media	17.3
23962	7	Sololá	712	San Antonio Palopó	9	San Antonio Palopo	12	Diciembre	2023-10-12T00:00:00	2024-11-08T05:00:00	4	Temperatura máxima	17.3
23963	7	Sololá	712	San Antonio Palopó	9	San Antonio Palopo	12	Diciembre	2023-10-12T00:00:00	2024-11-08T05:00:00	3	Temperatura mínima	17.1
23964	7	Sololá	712	San Antonio Palopó	9	San Antonio Palopo	12	Diciembre	2023-10-12T00:00:00	2024-11-08T05:00:00	5	Humedad	73
23965	7	Sololá	712	San Antonio Palopó	9	San Antonio Palopo	12	Diciembre	2023-10-12T00:00:00	2024-11-08T05:00:00	6	Velocidad del viento	14.5
23966	7	Sololá	712	San Antonio Palopó	9	San Antonio Palopo	12	Diciembre	2023-10-12T00:00:00	2024-11-08T05:00:00	7	Dirección del viento	14.48
23967	7	Sololá	712	San Antonio Palopó	9	San Antonio Palopo	12	Diciembre	2023-10-12T00:00:00	2024-11-08T05:00:00	1	Precipitación	0
23968	7	Sololá	712	San Antonio Palopó	9	San Antonio Palopo	12	Diciembre	2023-10-12T00:00:00	2024-11-08T05:00:00	8	Radiación solar	0
23969	7	Sololá	712	San Antonio Palopó	9	San Antonio Palopo	12	Diciembre	2023-10-12T00:00:00	2024-11-08T06:00:00	2	Temperatura media	17.2
23970	7	Sololá	712	San Antonio Palopó	9	San Antonio Palopo	12	Diciembre	2023-10-12T00:00:00	2024-11-08T06:00:00	4	Temperatura máxima	17.3
23971	7	Sololá	712	San Antonio Palopó	9	San Antonio Palopo	12	Diciembre	2023-10-12T00:00:00	2024-11-08T06:00:00	3	Temperatura mínima	17.2
23972	7	Sololá	712	San Antonio Palopó	9	San Antonio Palopo	12	Diciembre	2023-10-12T00:00:00	2024-11-08T06:00:00	5	Humedad	70
23973	7	Sololá	712	San Antonio Palopó	9	San Antonio Palopo	12	Diciembre	2023-10-12T00:00:00	2024-11-08T06:00:00	6	Velocidad del viento	11.3
23974	7	Sololá	712	San Antonio Palopó	9	San Antonio Palopo	12	Diciembre	2023-10-12T00:00:00	2024-11-08T06:00:00	7	Dirección del viento	11.27
23975	7	Sololá	712	San Antonio Palopó	9	San Antonio Palopo	12	Diciembre	2023-10-12T00:00:00	2024-11-08T06:00:00	1	Precipitación	0
23976	7	Sololá	712	San Antonio Palopó	9	San Antonio Palopo	12	Diciembre	2023-10-12T00:00:00	2024-11-08T06:00:00	8	Radiación solar	0
23977	7	Sololá	712	San Antonio Palopó	9	San Antonio Palopo	12	Diciembre	2023-10-12T00:00:00	2024-11-08T07:00:00	2	Temperatura media	17.3
23978	7	Sololá	712	San Antonio Palopó	9	San Antonio Palopo	12	Diciembre	2023-10-12T00:00:00	2024-11-08T07:00:00	4	Temperatura máxima	17.3
23979	7	Sololá	712	San Antonio Palopó	9	San Antonio Palopo	12	Diciembre	2023-10-12T00:00:00	2024-11-08T07:00:00	3	Temperatura mínima	16.7
23980	7	Sololá	712	San Antonio Palopó	9	San Antonio Palopo	12	Diciembre	2023-10-12T00:00:00	2024-11-08T07:00:00	5	Humedad	69
23981	7	Sololá	712	San Antonio Palopó	9	San Antonio Palopo	12	Diciembre	2023-10-12T00:00:00	2024-11-08T07:00:00	6	Velocidad del viento	12.9
23982	7	Sololá	712	San Antonio Palopó	9	San Antonio Palopo	12	Diciembre	2023-10-12T00:00:00	2024-11-08T07:00:00	7	Dirección del viento	12.87
23983	7	Sololá	712	San Antonio Palopó	9	San Antonio Palopo	12	Diciembre	2023-10-12T00:00:00	2024-11-08T07:00:00	1	Precipitación	0
23984	7	Sololá	712	San Antonio Palopó	9	San Antonio Palopo	12	Diciembre	2023-10-12T00:00:00	2024-11-08T07:00:00	8	Radiación solar	7
23985	7	Sololá	712	San Antonio Palopó	9	San Antonio Palopo	12	Diciembre	2023-10-12T00:00:00	2024-11-08T08:00:00	2	Temperatura media	17.9
23986	7	Sololá	712	San Antonio Palopó	9	San Antonio Palopo	12	Diciembre	2023-10-12T00:00:00	2024-11-08T08:00:00	4	Temperatura máxima	18
23987	7	Sololá	712	San Antonio Palopó	9	San Antonio Palopo	12	Diciembre	2023-10-12T00:00:00	2024-11-08T08:00:00	3	Temperatura mínima	17.3
23988	7	Sololá	712	San Antonio Palopó	9	San Antonio Palopo	12	Diciembre	2023-10-12T00:00:00	2024-11-08T08:00:00	5	Humedad	67
23989	7	Sololá	712	San Antonio Palopó	9	San Antonio Palopo	12	Diciembre	2023-10-12T00:00:00	2024-11-08T08:00:00	6	Velocidad del viento	4.8
23990	7	Sololá	712	San Antonio Palopó	9	San Antonio Palopo	12	Diciembre	2023-10-12T00:00:00	2024-11-08T08:00:00	7	Dirección del viento	4.83
23991	7	Sololá	712	San Antonio Palopó	9	San Antonio Palopo	12	Diciembre	2023-10-12T00:00:00	2024-11-08T08:00:00	1	Precipitación	0
23992	7	Sololá	712	San Antonio Palopó	9	San Antonio Palopo	12	Diciembre	2023-10-12T00:00:00	2024-11-08T08:00:00	8	Radiación solar	20
23993	7	Sololá	712	San Antonio Palopó	9	San Antonio Palopo	12	Diciembre	2023-10-12T00:00:00	2024-11-08T09:00:00	2	Temperatura media	18.8
23994	7	Sololá	712	San Antonio Palopó	9	San Antonio Palopo	12	Diciembre	2023-10-12T00:00:00	2024-11-08T09:00:00	4	Temperatura máxima	18.8
23995	7	Sololá	712	San Antonio Palopó	9	San Antonio Palopo	12	Diciembre	2023-10-12T00:00:00	2024-11-08T09:00:00	3	Temperatura mínima	16.9
23996	7	Sololá	712	San Antonio Palopó	9	San Antonio Palopo	12	Diciembre	2023-10-12T00:00:00	2024-11-08T09:00:00	5	Humedad	69
23997	7	Sololá	712	San Antonio Palopó	9	San Antonio Palopo	12	Diciembre	2023-10-12T00:00:00	2024-11-08T09:00:00	6	Velocidad del viento	1.6
23998	7	Sololá	712	San Antonio Palopó	9	San Antonio Palopo	12	Diciembre	2023-10-12T00:00:00	2024-11-08T09:00:00	7	Dirección del viento	1.61
23999	7	Sololá	712	San Antonio Palopó	9	San Antonio Palopo	12	Diciembre	2023-10-12T00:00:00	2024-11-08T09:00:00	1	Precipitación	0
24000	7	Sololá	712	San Antonio Palopó	9	San Antonio Palopo	12	Diciembre	2023-10-12T00:00:00	2024-11-08T09:00:00	8	Radiación solar	171
24001	7	Sololá	712	San Antonio Palopó	9	San Antonio Palopo	12	Diciembre	2023-10-12T00:00:00	2024-11-08T10:00:00	2	Temperatura media	19.9
24002	7	Sololá	712	San Antonio Palopó	9	San Antonio Palopo	12	Diciembre	2023-10-12T00:00:00	2024-11-08T10:00:00	4	Temperatura máxima	20.7
24003	7	Sololá	712	San Antonio Palopó	9	San Antonio Palopo	12	Diciembre	2023-10-12T00:00:00	2024-11-08T10:00:00	3	Temperatura mínima	18.8
24004	7	Sololá	712	San Antonio Palopó	9	San Antonio Palopo	12	Diciembre	2023-10-12T00:00:00	2024-11-08T10:00:00	5	Humedad	69
24005	7	Sololá	712	San Antonio Palopó	9	San Antonio Palopo	12	Diciembre	2023-10-12T00:00:00	2024-11-08T10:00:00	6	Velocidad del viento	1.6
24006	7	Sololá	712	San Antonio Palopó	9	San Antonio Palopo	12	Diciembre	2023-10-12T00:00:00	2024-11-08T10:00:00	7	Dirección del viento	1.61
24007	7	Sololá	712	San Antonio Palopó	9	San Antonio Palopo	12	Diciembre	2023-10-12T00:00:00	2024-11-08T10:00:00	1	Precipitación	0
24008	7	Sololá	712	San Antonio Palopó	9	San Antonio Palopo	12	Diciembre	2023-10-12T00:00:00	2024-11-08T10:00:00	8	Radiación solar	564
24009	7	Sololá	712	San Antonio Palopó	9	San Antonio Palopo	12	Diciembre	2023-10-12T00:00:00	2024-11-08T11:00:00	2	Temperatura media	21.1
24010	7	Sololá	712	San Antonio Palopó	9	San Antonio Palopo	12	Diciembre	2023-10-12T00:00:00	2024-11-08T11:00:00	4	Temperatura máxima	21.2
24011	7	Sololá	712	San Antonio Palopó	9	San Antonio Palopo	12	Diciembre	2023-10-12T00:00:00	2024-11-08T11:00:00	3	Temperatura mínima	19.9
24012	7	Sololá	712	San Antonio Palopó	9	San Antonio Palopo	12	Diciembre	2023-10-12T00:00:00	2024-11-08T11:00:00	5	Humedad	66
24013	7	Sololá	712	San Antonio Palopó	9	San Antonio Palopo	12	Diciembre	2023-10-12T00:00:00	2024-11-08T11:00:00	6	Velocidad del viento	3.2
24014	7	Sololá	712	San Antonio Palopó	9	San Antonio Palopo	12	Diciembre	2023-10-12T00:00:00	2024-11-08T11:00:00	7	Dirección del viento	3.22
24015	7	Sololá	712	San Antonio Palopó	9	San Antonio Palopo	12	Diciembre	2023-10-12T00:00:00	2024-11-08T11:00:00	1	Precipitación	0
24016	7	Sololá	712	San Antonio Palopó	9	San Antonio Palopo	12	Diciembre	2023-10-12T00:00:00	2024-11-08T11:00:00	8	Radiación solar	684
24017	7	Sololá	712	San Antonio Palopó	9	San Antonio Palopo	12	Diciembre	2023-10-12T00:00:00	2024-11-08T12:00:00	2	Temperatura media	23.2
24018	7	Sololá	712	San Antonio Palopó	9	San Antonio Palopo	12	Diciembre	2023-10-12T00:00:00	2024-11-08T12:00:00	4	Temperatura máxima	23.3
24019	7	Sololá	712	San Antonio Palopó	9	San Antonio Palopo	12	Diciembre	2023-10-12T00:00:00	2024-11-08T12:00:00	3	Temperatura mínima	21.1
24020	7	Sololá	712	San Antonio Palopó	9	San Antonio Palopo	12	Diciembre	2023-10-12T00:00:00	2024-11-08T12:00:00	5	Humedad	63
24021	7	Sololá	712	San Antonio Palopó	9	San Antonio Palopo	12	Diciembre	2023-10-12T00:00:00	2024-11-08T12:00:00	6	Velocidad del viento	3.2
24022	7	Sololá	712	San Antonio Palopó	9	San Antonio Palopo	12	Diciembre	2023-10-12T00:00:00	2024-11-08T12:00:00	7	Dirección del viento	3.22
24023	7	Sololá	712	San Antonio Palopó	9	San Antonio Palopo	12	Diciembre	2023-10-12T00:00:00	2024-11-08T12:00:00	1	Precipitación	0
24024	7	Sololá	712	San Antonio Palopó	9	San Antonio Palopo	12	Diciembre	2023-10-12T00:00:00	2024-11-08T12:00:00	8	Radiación solar	628
24025	7	Sololá	712	San Antonio Palopó	9	San Antonio Palopo	12	Diciembre	2023-10-12T00:00:00	2024-11-08T13:00:00	2	Temperatura media	25.2
24026	7	Sololá	712	San Antonio Palopó	9	San Antonio Palopo	12	Diciembre	2023-10-12T00:00:00	2024-11-08T13:00:00	4	Temperatura máxima	25.3
24027	7	Sololá	712	San Antonio Palopó	9	San Antonio Palopo	12	Diciembre	2023-10-12T00:00:00	2024-11-08T13:00:00	3	Temperatura mínima	23.2
24028	7	Sololá	712	San Antonio Palopó	9	San Antonio Palopo	12	Diciembre	2023-10-12T00:00:00	2024-11-08T13:00:00	5	Humedad	64
24029	7	Sololá	712	San Antonio Palopó	9	San Antonio Palopo	12	Diciembre	2023-10-12T00:00:00	2024-11-08T13:00:00	6	Velocidad del viento	4.8
24030	7	Sololá	712	San Antonio Palopó	9	San Antonio Palopo	12	Diciembre	2023-10-12T00:00:00	2024-11-08T13:00:00	7	Dirección del viento	4.83
24031	7	Sololá	712	San Antonio Palopó	9	San Antonio Palopo	12	Diciembre	2023-10-12T00:00:00	2024-11-08T13:00:00	1	Precipitación	0
24032	7	Sololá	712	San Antonio Palopó	9	San Antonio Palopo	12	Diciembre	2023-10-12T00:00:00	2024-11-08T13:00:00	8	Radiación solar	785
24033	7	Sololá	712	San Antonio Palopó	9	San Antonio Palopo	12	Diciembre	2023-10-12T00:00:00	2024-11-08T14:00:00	2	Temperatura media	25
24034	7	Sololá	712	San Antonio Palopó	9	San Antonio Palopo	12	Diciembre	2023-10-12T00:00:00	2024-11-08T14:00:00	4	Temperatura máxima	25.3
24035	7	Sololá	712	San Antonio Palopó	9	San Antonio Palopo	12	Diciembre	2023-10-12T00:00:00	2024-11-08T14:00:00	3	Temperatura mínima	24.7
24036	7	Sololá	712	San Antonio Palopó	9	San Antonio Palopo	12	Diciembre	2023-10-12T00:00:00	2024-11-08T14:00:00	5	Humedad	61
24037	7	Sololá	712	San Antonio Palopó	9	San Antonio Palopo	12	Diciembre	2023-10-12T00:00:00	2024-11-08T14:00:00	6	Velocidad del viento	9.7
24038	7	Sololá	712	San Antonio Palopó	9	San Antonio Palopo	12	Diciembre	2023-10-12T00:00:00	2024-11-08T14:00:00	7	Dirección del viento	9.66
24039	7	Sololá	712	San Antonio Palopó	9	San Antonio Palopo	12	Diciembre	2023-10-12T00:00:00	2024-11-08T14:00:00	1	Precipitación	0
24040	7	Sololá	712	San Antonio Palopó	9	San Antonio Palopo	12	Diciembre	2023-10-12T00:00:00	2024-11-08T14:00:00	8	Radiación solar	735
24041	7	Sololá	712	San Antonio Palopó	9	San Antonio Palopo	12	Diciembre	2023-10-12T00:00:00	2024-11-08T15:00:00	2	Temperatura media	24.2
24042	7	Sololá	712	San Antonio Palopó	9	San Antonio Palopo	12	Diciembre	2023-10-12T00:00:00	2024-11-08T15:00:00	4	Temperatura máxima	25.3
24043	7	Sololá	712	San Antonio Palopó	9	San Antonio Palopo	12	Diciembre	2023-10-12T00:00:00	2024-11-08T15:00:00	3	Temperatura mínima	24.2
24044	7	Sololá	712	San Antonio Palopó	9	San Antonio Palopo	12	Diciembre	2023-10-12T00:00:00	2024-11-08T15:00:00	5	Humedad	66
24045	7	Sololá	712	San Antonio Palopó	9	San Antonio Palopo	12	Diciembre	2023-10-12T00:00:00	2024-11-08T15:00:00	6	Velocidad del viento	8
24046	7	Sololá	712	San Antonio Palopó	9	San Antonio Palopo	12	Diciembre	2023-10-12T00:00:00	2024-11-08T15:00:00	7	Dirección del viento	8.05
24047	7	Sololá	712	San Antonio Palopó	9	San Antonio Palopo	12	Diciembre	2023-10-12T00:00:00	2024-11-08T15:00:00	1	Precipitación	0
24048	7	Sololá	712	San Antonio Palopó	9	San Antonio Palopo	12	Diciembre	2023-10-12T00:00:00	2024-11-08T15:00:00	8	Radiación solar	458
24049	7	Sololá	712	San Antonio Palopó	9	San Antonio Palopo	12	Diciembre	2023-10-12T00:00:00	2024-11-08T16:00:00	2	Temperatura media	23.9
24050	7	Sololá	712	San Antonio Palopó	9	San Antonio Palopo	12	Diciembre	2023-10-12T00:00:00	2024-11-08T16:00:00	4	Temperatura máxima	24.8
24051	7	Sololá	712	San Antonio Palopó	9	San Antonio Palopo	12	Diciembre	2023-10-12T00:00:00	2024-11-08T16:00:00	3	Temperatura mínima	23.9
24052	7	Sololá	712	San Antonio Palopó	9	San Antonio Palopo	12	Diciembre	2023-10-12T00:00:00	2024-11-08T16:00:00	5	Humedad	70
24053	7	Sololá	712	San Antonio Palopó	9	San Antonio Palopo	12	Diciembre	2023-10-12T00:00:00	2024-11-08T16:00:00	6	Velocidad del viento	6.4
24054	7	Sololá	712	San Antonio Palopó	9	San Antonio Palopo	12	Diciembre	2023-10-12T00:00:00	2024-11-08T16:00:00	7	Dirección del viento	6.44
24055	7	Sololá	712	San Antonio Palopó	9	San Antonio Palopo	12	Diciembre	2023-10-12T00:00:00	2024-11-08T16:00:00	1	Precipitación	0
24056	7	Sololá	712	San Antonio Palopó	9	San Antonio Palopo	12	Diciembre	2023-10-12T00:00:00	2024-11-08T16:00:00	8	Radiación solar	317
24057	7	Sololá	712	San Antonio Palopó	9	San Antonio Palopo	12	Diciembre	2023-10-12T00:00:00	2024-11-08T17:00:00	2	Temperatura media	23.4
24058	7	Sololá	712	San Antonio Palopó	9	San Antonio Palopo	12	Diciembre	2023-10-12T00:00:00	2024-11-08T17:00:00	4	Temperatura máxima	24.2
24059	7	Sololá	712	San Antonio Palopó	9	San Antonio Palopo	12	Diciembre	2023-10-12T00:00:00	2024-11-08T17:00:00	3	Temperatura mínima	23.4
24060	7	Sololá	712	San Antonio Palopó	9	San Antonio Palopo	12	Diciembre	2023-10-12T00:00:00	2024-11-08T17:00:00	5	Humedad	69
24061	7	Sololá	712	San Antonio Palopó	9	San Antonio Palopo	12	Diciembre	2023-10-12T00:00:00	2024-11-08T17:00:00	6	Velocidad del viento	6.4
24062	7	Sololá	712	San Antonio Palopó	9	San Antonio Palopo	12	Diciembre	2023-10-12T00:00:00	2024-11-08T17:00:00	7	Dirección del viento	6.44
24063	7	Sololá	712	San Antonio Palopó	9	San Antonio Palopo	12	Diciembre	2023-10-12T00:00:00	2024-11-08T17:00:00	1	Precipitación	0
24064	7	Sololá	712	San Antonio Palopó	9	San Antonio Palopo	12	Diciembre	2023-10-12T00:00:00	2024-11-08T17:00:00	8	Radiación solar	130
24065	7	Sololá	712	San Antonio Palopó	9	San Antonio Palopo	12	Diciembre	2023-10-12T00:00:00	2024-11-08T18:00:00	2	Temperatura media	21.6
24066	7	Sololá	712	San Antonio Palopó	9	San Antonio Palopo	12	Diciembre	2023-10-12T00:00:00	2024-11-08T18:00:00	4	Temperatura máxima	23.4
24067	7	Sololá	712	San Antonio Palopó	9	San Antonio Palopo	12	Diciembre	2023-10-12T00:00:00	2024-11-08T18:00:00	3	Temperatura mínima	21.6
24068	7	Sololá	712	San Antonio Palopó	9	San Antonio Palopo	12	Diciembre	2023-10-12T00:00:00	2024-11-08T18:00:00	5	Humedad	71
24069	7	Sololá	712	San Antonio Palopó	9	San Antonio Palopo	12	Diciembre	2023-10-12T00:00:00	2024-11-08T18:00:00	6	Velocidad del viento	3.2
24070	7	Sololá	712	San Antonio Palopó	9	San Antonio Palopo	12	Diciembre	2023-10-12T00:00:00	2024-11-08T18:00:00	7	Dirección del viento	3.22
24071	7	Sololá	712	San Antonio Palopó	9	San Antonio Palopo	12	Diciembre	2023-10-12T00:00:00	2024-11-08T18:00:00	1	Precipitación	0
24072	7	Sololá	712	San Antonio Palopó	9	San Antonio Palopo	12	Diciembre	2023-10-12T00:00:00	2024-11-08T18:00:00	8	Radiación solar	8
24073	7	Sololá	712	San Antonio Palopó	9	San Antonio Palopo	12	Diciembre	2023-10-12T00:00:00	2024-11-08T19:00:00	2	Temperatura media	21.3
24074	7	Sololá	712	San Antonio Palopó	9	San Antonio Palopo	12	Diciembre	2023-10-12T00:00:00	2024-11-08T19:00:00	4	Temperatura máxima	21.8
24075	7	Sololá	712	San Antonio Palopó	9	San Antonio Palopo	12	Diciembre	2023-10-12T00:00:00	2024-11-08T19:00:00	3	Temperatura mínima	21.2
24076	7	Sololá	712	San Antonio Palopó	9	San Antonio Palopo	12	Diciembre	2023-10-12T00:00:00	2024-11-08T19:00:00	5	Humedad	66
24077	7	Sololá	712	San Antonio Palopó	9	San Antonio Palopo	12	Diciembre	2023-10-12T00:00:00	2024-11-08T19:00:00	6	Velocidad del viento	4.8
24078	7	Sololá	712	San Antonio Palopó	9	San Antonio Palopo	12	Diciembre	2023-10-12T00:00:00	2024-11-08T19:00:00	7	Dirección del viento	4.83
24079	7	Sololá	712	San Antonio Palopó	9	San Antonio Palopo	12	Diciembre	2023-10-12T00:00:00	2024-11-08T19:00:00	1	Precipitación	0
24080	7	Sololá	712	San Antonio Palopó	9	San Antonio Palopo	12	Diciembre	2023-10-12T00:00:00	2024-11-08T19:00:00	8	Radiación solar	0
24081	7	Sololá	712	San Antonio Palopó	9	San Antonio Palopo	12	Diciembre	2023-10-12T00:00:00	2024-11-08T20:00:00	2	Temperatura media	21.3
24082	7	Sololá	712	San Antonio Palopó	9	San Antonio Palopo	12	Diciembre	2023-10-12T00:00:00	2024-11-08T20:00:00	4	Temperatura máxima	21.4
24083	7	Sololá	712	San Antonio Palopó	9	San Antonio Palopo	12	Diciembre	2023-10-12T00:00:00	2024-11-08T20:00:00	3	Temperatura mínima	20.9
24084	7	Sololá	712	San Antonio Palopó	9	San Antonio Palopo	12	Diciembre	2023-10-12T00:00:00	2024-11-08T20:00:00	5	Humedad	66
24085	7	Sololá	712	San Antonio Palopó	9	San Antonio Palopo	12	Diciembre	2023-10-12T00:00:00	2024-11-08T20:00:00	6	Velocidad del viento	8
24086	7	Sololá	712	San Antonio Palopó	9	San Antonio Palopo	12	Diciembre	2023-10-12T00:00:00	2024-11-08T20:00:00	7	Dirección del viento	8.05
24087	7	Sololá	712	San Antonio Palopó	9	San Antonio Palopo	12	Diciembre	2023-10-12T00:00:00	2024-11-08T20:00:00	1	Precipitación	0
24088	7	Sololá	712	San Antonio Palopó	9	San Antonio Palopo	12	Diciembre	2023-10-12T00:00:00	2024-11-08T20:00:00	8	Radiación solar	0
24089	7	Sololá	712	San Antonio Palopó	9	San Antonio Palopo	12	Diciembre	2023-10-12T00:00:00	2024-11-08T21:00:00	2	Temperatura media	20.3
24090	7	Sololá	712	San Antonio Palopó	9	San Antonio Palopo	12	Diciembre	2023-10-12T00:00:00	2024-11-08T21:00:00	4	Temperatura máxima	21.3
24091	7	Sololá	712	San Antonio Palopó	9	San Antonio Palopo	12	Diciembre	2023-10-12T00:00:00	2024-11-08T21:00:00	3	Temperatura mínima	20.3
24092	7	Sololá	712	San Antonio Palopó	9	San Antonio Palopo	12	Diciembre	2023-10-12T00:00:00	2024-11-08T21:00:00	5	Humedad	68
24093	7	Sololá	712	San Antonio Palopó	9	San Antonio Palopo	12	Diciembre	2023-10-12T00:00:00	2024-11-08T21:00:00	6	Velocidad del viento	6.4
24094	7	Sololá	712	San Antonio Palopó	9	San Antonio Palopo	12	Diciembre	2023-10-12T00:00:00	2024-11-08T21:00:00	7	Dirección del viento	6.44
24095	7	Sololá	712	San Antonio Palopó	9	San Antonio Palopo	12	Diciembre	2023-10-12T00:00:00	2024-11-08T21:00:00	1	Precipitación	0
24096	7	Sololá	712	San Antonio Palopó	9	San Antonio Palopo	12	Diciembre	2023-10-12T00:00:00	2024-11-08T21:00:00	8	Radiación solar	0
24097	7	Sololá	712	San Antonio Palopó	9	San Antonio Palopo	12	Diciembre	2023-10-12T00:00:00	2024-11-08T22:00:00	2	Temperatura media	20.3
24098	7	Sololá	712	San Antonio Palopó	9	San Antonio Palopo	12	Diciembre	2023-10-12T00:00:00	2024-11-08T22:00:00	4	Temperatura máxima	20.7
24099	7	Sololá	712	San Antonio Palopó	9	San Antonio Palopo	12	Diciembre	2023-10-12T00:00:00	2024-11-08T22:00:00	3	Temperatura mínima	20.2
24100	7	Sololá	712	San Antonio Palopó	9	San Antonio Palopo	12	Diciembre	2023-10-12T00:00:00	2024-11-08T22:00:00	5	Humedad	68
24101	7	Sololá	712	San Antonio Palopó	9	San Antonio Palopo	12	Diciembre	2023-10-12T00:00:00	2024-11-08T22:00:00	6	Velocidad del viento	6.4
24102	7	Sololá	712	San Antonio Palopó	9	San Antonio Palopo	12	Diciembre	2023-10-12T00:00:00	2024-11-08T22:00:00	7	Dirección del viento	6.44
24103	7	Sololá	712	San Antonio Palopó	9	San Antonio Palopo	12	Diciembre	2023-10-12T00:00:00	2024-11-08T22:00:00	1	Precipitación	0
24104	7	Sololá	712	San Antonio Palopó	9	San Antonio Palopo	12	Diciembre	2023-10-12T00:00:00	2024-11-08T22:00:00	8	Radiación solar	0
24105	7	Sololá	712	San Antonio Palopó	9	San Antonio Palopo	12	Diciembre	2023-10-12T00:00:00	2024-11-08T23:00:00	2	Temperatura media	20.2
24106	7	Sololá	712	San Antonio Palopó	9	San Antonio Palopo	12	Diciembre	2023-10-12T00:00:00	2024-11-08T23:00:00	4	Temperatura máxima	20.3
24107	7	Sololá	712	San Antonio Palopó	9	San Antonio Palopo	12	Diciembre	2023-10-12T00:00:00	2024-11-08T23:00:00	3	Temperatura mínima	19.9
24108	7	Sololá	712	San Antonio Palopó	9	San Antonio Palopo	12	Diciembre	2023-10-12T00:00:00	2024-11-08T23:00:00	5	Humedad	65
24109	7	Sololá	712	San Antonio Palopó	9	San Antonio Palopo	12	Diciembre	2023-10-12T00:00:00	2024-11-08T23:00:00	6	Velocidad del viento	8
24110	7	Sololá	712	San Antonio Palopó	9	San Antonio Palopo	12	Diciembre	2023-10-12T00:00:00	2024-11-08T23:00:00	7	Dirección del viento	8.05
24111	7	Sololá	712	San Antonio Palopó	9	San Antonio Palopo	12	Diciembre	2023-10-12T00:00:00	2024-11-08T23:00:00	1	Precipitación	0
24112	7	Sololá	712	San Antonio Palopó	9	San Antonio Palopo	12	Diciembre	2023-10-12T00:00:00	2024-11-08T23:00:00	8	Radiación solar	0
24113	7	Sololá	712	San Antonio Palopó	9	San Antonio Palopo	12	Diciembre	2023-11-12T00:00:00	2024-11-08T00:00:00	2	Temperatura media	20.5
24114	7	Sololá	712	San Antonio Palopó	9	San Antonio Palopo	12	Diciembre	2023-11-12T00:00:00	2024-11-08T00:00:00	4	Temperatura máxima	20.9
24115	7	Sololá	712	San Antonio Palopó	9	San Antonio Palopo	12	Diciembre	2023-11-12T00:00:00	2024-11-08T00:00:00	3	Temperatura mínima	20.2
24116	7	Sololá	712	San Antonio Palopó	9	San Antonio Palopo	12	Diciembre	2023-11-12T00:00:00	2024-11-08T00:00:00	5	Humedad	66
24117	7	Sololá	712	San Antonio Palopó	9	San Antonio Palopo	12	Diciembre	2023-11-12T00:00:00	2024-11-08T00:00:00	6	Velocidad del viento	9.7
24118	7	Sololá	712	San Antonio Palopó	9	San Antonio Palopo	12	Diciembre	2023-11-12T00:00:00	2024-11-08T00:00:00	7	Dirección del viento	9.66
24119	7	Sololá	712	San Antonio Palopó	9	San Antonio Palopo	12	Diciembre	2023-11-12T00:00:00	2024-11-08T00:00:00	1	Precipitación	0
24120	7	Sololá	712	San Antonio Palopó	9	San Antonio Palopo	12	Diciembre	2023-11-12T00:00:00	2024-11-08T00:00:00	8	Radiación solar	0
24121	7	Sololá	712	San Antonio Palopó	9	San Antonio Palopo	12	Diciembre	2023-11-12T00:00:00	2024-11-08T01:00:00	2	Temperatura media	19.9
24122	7	Sololá	712	San Antonio Palopó	9	San Antonio Palopo	12	Diciembre	2023-11-12T00:00:00	2024-11-08T01:00:00	4	Temperatura máxima	20.6
24123	7	Sololá	712	San Antonio Palopó	9	San Antonio Palopo	12	Diciembre	2023-11-12T00:00:00	2024-11-08T01:00:00	3	Temperatura mínima	19.8
24124	7	Sololá	712	San Antonio Palopó	9	San Antonio Palopo	12	Diciembre	2023-11-12T00:00:00	2024-11-08T01:00:00	5	Humedad	66
24125	7	Sololá	712	San Antonio Palopó	9	San Antonio Palopo	12	Diciembre	2023-11-12T00:00:00	2024-11-08T01:00:00	6	Velocidad del viento	9.7
24126	7	Sololá	712	San Antonio Palopó	9	San Antonio Palopo	12	Diciembre	2023-11-12T00:00:00	2024-11-08T01:00:00	7	Dirección del viento	9.66
24127	7	Sololá	712	San Antonio Palopó	9	San Antonio Palopo	12	Diciembre	2023-11-12T00:00:00	2024-11-08T01:00:00	1	Precipitación	0
24128	7	Sololá	712	San Antonio Palopó	9	San Antonio Palopo	12	Diciembre	2023-11-12T00:00:00	2024-11-08T01:00:00	8	Radiación solar	0
24129	7	Sololá	712	San Antonio Palopó	9	San Antonio Palopo	12	Diciembre	2023-11-12T00:00:00	2024-11-08T02:00:00	2	Temperatura media	20.6
24130	7	Sololá	712	San Antonio Palopó	9	San Antonio Palopo	12	Diciembre	2023-11-12T00:00:00	2024-11-08T02:00:00	4	Temperatura máxima	20.7
24131	7	Sololá	712	San Antonio Palopó	9	San Antonio Palopo	12	Diciembre	2023-11-12T00:00:00	2024-11-08T02:00:00	3	Temperatura mínima	19.9
24132	7	Sololá	712	San Antonio Palopó	9	San Antonio Palopo	12	Diciembre	2023-11-12T00:00:00	2024-11-08T02:00:00	5	Humedad	65
24133	7	Sololá	712	San Antonio Palopó	9	San Antonio Palopo	12	Diciembre	2023-11-12T00:00:00	2024-11-08T02:00:00	6	Velocidad del viento	9.7
24134	7	Sololá	712	San Antonio Palopó	9	San Antonio Palopo	12	Diciembre	2023-11-12T00:00:00	2024-11-08T02:00:00	7	Dirección del viento	9.66
24135	7	Sololá	712	San Antonio Palopó	9	San Antonio Palopo	12	Diciembre	2023-11-12T00:00:00	2024-11-08T02:00:00	1	Precipitación	0
24136	7	Sololá	712	San Antonio Palopó	9	San Antonio Palopo	12	Diciembre	2023-11-12T00:00:00	2024-11-08T02:00:00	8	Radiación solar	0
24137	7	Sololá	712	San Antonio Palopó	9	San Antonio Palopo	12	Diciembre	2023-11-12T00:00:00	2024-11-08T03:00:00	2	Temperatura media	20.2
24138	7	Sololá	712	San Antonio Palopó	9	San Antonio Palopo	12	Diciembre	2023-11-12T00:00:00	2024-11-08T03:00:00	4	Temperatura máxima	20.7
24139	7	Sololá	712	San Antonio Palopó	9	San Antonio Palopo	12	Diciembre	2023-11-12T00:00:00	2024-11-08T03:00:00	3	Temperatura mínima	19.8
24140	7	Sololá	712	San Antonio Palopó	9	San Antonio Palopo	12	Diciembre	2023-11-12T00:00:00	2024-11-08T03:00:00	5	Humedad	66
24141	7	Sololá	712	San Antonio Palopó	9	San Antonio Palopo	12	Diciembre	2023-11-12T00:00:00	2024-11-08T03:00:00	6	Velocidad del viento	9.7
24142	7	Sololá	712	San Antonio Palopó	9	San Antonio Palopo	12	Diciembre	2023-11-12T00:00:00	2024-11-08T03:00:00	7	Dirección del viento	9.66
24143	7	Sololá	712	San Antonio Palopó	9	San Antonio Palopo	12	Diciembre	2023-11-12T00:00:00	2024-11-08T03:00:00	1	Precipitación	0
24144	7	Sololá	712	San Antonio Palopó	9	San Antonio Palopo	12	Diciembre	2023-11-12T00:00:00	2024-11-08T03:00:00	8	Radiación solar	0
24145	7	Sololá	712	San Antonio Palopó	9	San Antonio Palopo	12	Diciembre	2023-11-12T00:00:00	2024-11-08T04:00:00	2	Temperatura media	20.3
24146	7	Sololá	712	San Antonio Palopó	9	San Antonio Palopo	12	Diciembre	2023-11-12T00:00:00	2024-11-08T04:00:00	4	Temperatura máxima	20.7
24147	7	Sololá	712	San Antonio Palopó	9	San Antonio Palopo	12	Diciembre	2023-11-12T00:00:00	2024-11-08T04:00:00	3	Temperatura mínima	20.1
24148	7	Sololá	712	San Antonio Palopó	9	San Antonio Palopo	12	Diciembre	2023-11-12T00:00:00	2024-11-08T04:00:00	5	Humedad	67
24149	7	Sololá	712	San Antonio Palopó	9	San Antonio Palopo	12	Diciembre	2023-11-12T00:00:00	2024-11-08T04:00:00	6	Velocidad del viento	8
24150	7	Sololá	712	San Antonio Palopó	9	San Antonio Palopo	12	Diciembre	2023-11-12T00:00:00	2024-11-08T04:00:00	7	Dirección del viento	8.05
24151	7	Sololá	712	San Antonio Palopó	9	San Antonio Palopo	12	Diciembre	2023-11-12T00:00:00	2024-11-08T04:00:00	1	Precipitación	0
24152	7	Sololá	712	San Antonio Palopó	9	San Antonio Palopo	12	Diciembre	2023-11-12T00:00:00	2024-11-08T04:00:00	8	Radiación solar	0
24153	7	Sololá	712	San Antonio Palopó	9	San Antonio Palopo	12	Diciembre	2023-11-12T00:00:00	2024-11-08T05:00:00	2	Temperatura media	19.9
24154	7	Sololá	712	San Antonio Palopó	9	San Antonio Palopo	12	Diciembre	2023-11-12T00:00:00	2024-11-08T05:00:00	4	Temperatura máxima	20.5
24155	7	Sololá	712	San Antonio Palopó	9	San Antonio Palopo	12	Diciembre	2023-11-12T00:00:00	2024-11-08T05:00:00	3	Temperatura mínima	19.9
24156	7	Sololá	712	San Antonio Palopó	9	San Antonio Palopo	12	Diciembre	2023-11-12T00:00:00	2024-11-08T05:00:00	5	Humedad	66
24157	7	Sololá	712	San Antonio Palopó	9	San Antonio Palopo	12	Diciembre	2023-11-12T00:00:00	2024-11-08T05:00:00	6	Velocidad del viento	8
24158	7	Sololá	712	San Antonio Palopó	9	San Antonio Palopo	12	Diciembre	2023-11-12T00:00:00	2024-11-08T05:00:00	7	Dirección del viento	8.05
24159	7	Sololá	712	San Antonio Palopó	9	San Antonio Palopo	12	Diciembre	2023-11-12T00:00:00	2024-11-08T05:00:00	1	Precipitación	0
24160	7	Sololá	712	San Antonio Palopó	9	San Antonio Palopo	12	Diciembre	2023-11-12T00:00:00	2024-11-08T05:00:00	8	Radiación solar	0
24161	7	Sololá	712	San Antonio Palopó	9	San Antonio Palopo	12	Diciembre	2023-11-12T00:00:00	2024-11-08T06:00:00	2	Temperatura media	20.1
24162	7	Sololá	712	San Antonio Palopó	9	San Antonio Palopo	12	Diciembre	2023-11-12T00:00:00	2024-11-08T06:00:00	4	Temperatura máxima	20.4
24163	7	Sololá	712	San Antonio Palopó	9	San Antonio Palopo	12	Diciembre	2023-11-12T00:00:00	2024-11-08T06:00:00	3	Temperatura mínima	19.9
24164	7	Sololá	712	San Antonio Palopó	9	San Antonio Palopo	12	Diciembre	2023-11-12T00:00:00	2024-11-08T06:00:00	5	Humedad	65
24165	7	Sololá	712	San Antonio Palopó	9	San Antonio Palopo	12	Diciembre	2023-11-12T00:00:00	2024-11-08T06:00:00	6	Velocidad del viento	11.3
24166	7	Sololá	712	San Antonio Palopó	9	San Antonio Palopo	12	Diciembre	2023-11-12T00:00:00	2024-11-08T06:00:00	7	Dirección del viento	11.27
24167	7	Sololá	712	San Antonio Palopó	9	San Antonio Palopo	12	Diciembre	2023-11-12T00:00:00	2024-11-08T06:00:00	1	Precipitación	0
24168	7	Sololá	712	San Antonio Palopó	9	San Antonio Palopo	12	Diciembre	2023-11-12T00:00:00	2024-11-08T06:00:00	8	Radiación solar	0
24169	7	Sololá	712	San Antonio Palopó	9	San Antonio Palopo	12	Diciembre	2023-11-12T00:00:00	2024-11-08T07:00:00	2	Temperatura media	19.6
24170	7	Sololá	712	San Antonio Palopó	9	San Antonio Palopo	12	Diciembre	2023-11-12T00:00:00	2024-11-08T07:00:00	4	Temperatura máxima	20.1
24171	7	Sololá	712	San Antonio Palopó	9	San Antonio Palopo	12	Diciembre	2023-11-12T00:00:00	2024-11-08T07:00:00	3	Temperatura mínima	19.4
24172	7	Sololá	712	San Antonio Palopó	9	San Antonio Palopo	12	Diciembre	2023-11-12T00:00:00	2024-11-08T07:00:00	5	Humedad	66
24173	7	Sololá	712	San Antonio Palopó	9	San Antonio Palopo	12	Diciembre	2023-11-12T00:00:00	2024-11-08T07:00:00	6	Velocidad del viento	14.5
24174	7	Sololá	712	San Antonio Palopó	9	San Antonio Palopo	12	Diciembre	2023-11-12T00:00:00	2024-11-08T07:00:00	7	Dirección del viento	14.48
24175	7	Sololá	712	San Antonio Palopó	9	San Antonio Palopo	12	Diciembre	2023-11-12T00:00:00	2024-11-08T07:00:00	1	Precipitación	0
24176	7	Sololá	712	San Antonio Palopó	9	San Antonio Palopo	12	Diciembre	2023-11-12T00:00:00	2024-11-08T07:00:00	8	Radiación solar	7
24177	7	Sololá	712	San Antonio Palopó	9	San Antonio Palopo	12	Diciembre	2023-11-12T00:00:00	2024-11-08T08:00:00	2	Temperatura media	19.8
24178	7	Sololá	712	San Antonio Palopó	9	San Antonio Palopo	12	Diciembre	2023-11-12T00:00:00	2024-11-08T08:00:00	4	Temperatura máxima	19.8
24179	7	Sololá	712	San Antonio Palopó	9	San Antonio Palopo	12	Diciembre	2023-11-12T00:00:00	2024-11-08T08:00:00	3	Temperatura mínima	19.6
24180	7	Sololá	712	San Antonio Palopó	9	San Antonio Palopo	12	Diciembre	2023-11-12T00:00:00	2024-11-08T08:00:00	5	Humedad	64
24181	7	Sololá	712	San Antonio Palopó	9	San Antonio Palopo	12	Diciembre	2023-11-12T00:00:00	2024-11-08T08:00:00	6	Velocidad del viento	19.3
24182	7	Sololá	712	San Antonio Palopó	9	San Antonio Palopo	12	Diciembre	2023-11-12T00:00:00	2024-11-08T08:00:00	7	Dirección del viento	19.31
24183	7	Sololá	712	San Antonio Palopó	9	San Antonio Palopo	12	Diciembre	2023-11-12T00:00:00	2024-11-08T08:00:00	1	Precipitación	0
24184	7	Sololá	712	San Antonio Palopó	9	San Antonio Palopo	12	Diciembre	2023-11-12T00:00:00	2024-11-08T08:00:00	8	Radiación solar	19
24185	7	Sololá	712	San Antonio Palopó	9	San Antonio Palopo	12	Diciembre	2023-11-12T00:00:00	2024-11-08T09:00:00	2	Temperatura media	20.5
24186	7	Sololá	712	San Antonio Palopó	9	San Antonio Palopo	12	Diciembre	2023-11-12T00:00:00	2024-11-08T09:00:00	4	Temperatura máxima	20.6
24187	7	Sololá	712	San Antonio Palopó	9	San Antonio Palopo	12	Diciembre	2023-11-12T00:00:00	2024-11-08T09:00:00	3	Temperatura mínima	19.7
24188	7	Sololá	712	San Antonio Palopó	9	San Antonio Palopo	12	Diciembre	2023-11-12T00:00:00	2024-11-08T09:00:00	5	Humedad	61
24189	7	Sololá	712	San Antonio Palopó	9	San Antonio Palopo	12	Diciembre	2023-11-12T00:00:00	2024-11-08T09:00:00	6	Velocidad del viento	20.9
24190	7	Sololá	712	San Antonio Palopó	9	San Antonio Palopo	12	Diciembre	2023-11-12T00:00:00	2024-11-08T09:00:00	7	Dirección del viento	20.92
24191	7	Sololá	712	San Antonio Palopó	9	San Antonio Palopo	12	Diciembre	2023-11-12T00:00:00	2024-11-08T09:00:00	1	Precipitación	0
24192	7	Sololá	712	San Antonio Palopó	9	San Antonio Palopo	12	Diciembre	2023-11-12T00:00:00	2024-11-08T09:00:00	8	Radiación solar	160
24193	7	Sololá	712	San Antonio Palopó	9	San Antonio Palopo	12	Diciembre	2023-11-12T00:00:00	2024-11-08T10:00:00	2	Temperatura media	21.3
24194	7	Sololá	712	San Antonio Palopó	9	San Antonio Palopo	12	Diciembre	2023-11-12T00:00:00	2024-11-08T10:00:00	4	Temperatura máxima	21.3
24195	7	Sololá	712	San Antonio Palopó	9	San Antonio Palopo	12	Diciembre	2023-11-12T00:00:00	2024-11-08T10:00:00	3	Temperatura mínima	20.5
24196	7	Sololá	712	San Antonio Palopó	9	San Antonio Palopo	12	Diciembre	2023-11-12T00:00:00	2024-11-08T10:00:00	5	Humedad	60
24197	7	Sololá	712	San Antonio Palopó	9	San Antonio Palopo	12	Diciembre	2023-11-12T00:00:00	2024-11-08T10:00:00	6	Velocidad del viento	14.5
24198	7	Sololá	712	San Antonio Palopó	9	San Antonio Palopo	12	Diciembre	2023-11-12T00:00:00	2024-11-08T10:00:00	7	Dirección del viento	14.48
24199	7	Sololá	712	San Antonio Palopó	9	San Antonio Palopo	12	Diciembre	2023-11-12T00:00:00	2024-11-08T10:00:00	1	Precipitación	0
24200	7	Sololá	712	San Antonio Palopó	9	San Antonio Palopo	12	Diciembre	2023-11-12T00:00:00	2024-11-08T10:00:00	8	Radiación solar	573
24201	7	Sololá	712	San Antonio Palopó	9	San Antonio Palopo	12	Diciembre	2023-11-12T00:00:00	2024-11-08T11:00:00	2	Temperatura media	21.5
24202	7	Sololá	712	San Antonio Palopó	9	San Antonio Palopo	12	Diciembre	2023-11-12T00:00:00	2024-11-08T11:00:00	4	Temperatura máxima	22.1
24203	7	Sololá	712	San Antonio Palopó	9	San Antonio Palopo	12	Diciembre	2023-11-12T00:00:00	2024-11-08T11:00:00	3	Temperatura mínima	21.3
24204	7	Sololá	712	San Antonio Palopó	9	San Antonio Palopo	12	Diciembre	2023-11-12T00:00:00	2024-11-08T11:00:00	5	Humedad	59
24205	7	Sololá	712	San Antonio Palopó	9	San Antonio Palopo	12	Diciembre	2023-11-12T00:00:00	2024-11-08T11:00:00	6	Velocidad del viento	11.3
24206	7	Sololá	712	San Antonio Palopó	9	San Antonio Palopo	12	Diciembre	2023-11-12T00:00:00	2024-11-08T11:00:00	7	Dirección del viento	11.27
24207	7	Sololá	712	San Antonio Palopó	9	San Antonio Palopo	12	Diciembre	2023-11-12T00:00:00	2024-11-08T11:00:00	1	Precipitación	0
24208	7	Sololá	712	San Antonio Palopó	9	San Antonio Palopo	12	Diciembre	2023-11-12T00:00:00	2024-11-08T11:00:00	8	Radiación solar	705
24209	7	Sololá	712	San Antonio Palopó	9	San Antonio Palopo	12	Diciembre	2023-11-12T00:00:00	2024-11-08T12:00:00	2	Temperatura media	21.9
24210	7	Sololá	712	San Antonio Palopó	9	San Antonio Palopo	12	Diciembre	2023-11-12T00:00:00	2024-11-08T12:00:00	4	Temperatura máxima	22.7
24211	7	Sololá	712	San Antonio Palopó	9	San Antonio Palopo	12	Diciembre	2023-11-12T00:00:00	2024-11-08T12:00:00	3	Temperatura mínima	21.4
24212	7	Sololá	712	San Antonio Palopó	9	San Antonio Palopo	12	Diciembre	2023-11-12T00:00:00	2024-11-08T12:00:00	5	Humedad	59
24213	7	Sololá	712	San Antonio Palopó	9	San Antonio Palopo	12	Diciembre	2023-11-12T00:00:00	2024-11-08T12:00:00	6	Velocidad del viento	14.5
24214	7	Sololá	712	San Antonio Palopó	9	San Antonio Palopo	12	Diciembre	2023-11-12T00:00:00	2024-11-08T12:00:00	7	Dirección del viento	14.48
24215	7	Sololá	712	San Antonio Palopó	9	San Antonio Palopo	12	Diciembre	2023-11-12T00:00:00	2024-11-08T12:00:00	1	Precipitación	0
24216	7	Sololá	712	San Antonio Palopó	9	San Antonio Palopo	12	Diciembre	2023-11-12T00:00:00	2024-11-08T12:00:00	8	Radiación solar	687
24217	7	Sololá	712	San Antonio Palopó	9	San Antonio Palopo	12	Diciembre	2023-11-12T00:00:00	2024-11-08T13:00:00	2	Temperatura media	22.3
24218	7	Sololá	712	San Antonio Palopó	9	San Antonio Palopo	12	Diciembre	2023-11-12T00:00:00	2024-11-08T13:00:00	4	Temperatura máxima	23.1
24219	7	Sololá	712	San Antonio Palopó	9	San Antonio Palopo	12	Diciembre	2023-11-12T00:00:00	2024-11-08T13:00:00	3	Temperatura mínima	21.8
24220	7	Sololá	712	San Antonio Palopó	9	San Antonio Palopo	12	Diciembre	2023-11-12T00:00:00	2024-11-08T13:00:00	5	Humedad	57
24221	7	Sololá	712	San Antonio Palopó	9	San Antonio Palopo	12	Diciembre	2023-11-12T00:00:00	2024-11-08T13:00:00	6	Velocidad del viento	14.5
24222	7	Sololá	712	San Antonio Palopó	9	San Antonio Palopo	12	Diciembre	2023-11-12T00:00:00	2024-11-08T13:00:00	7	Dirección del viento	14.48
24223	7	Sololá	712	San Antonio Palopó	9	San Antonio Palopo	12	Diciembre	2023-11-12T00:00:00	2024-11-08T13:00:00	1	Precipitación	0
24224	7	Sololá	712	San Antonio Palopó	9	San Antonio Palopo	12	Diciembre	2023-11-12T00:00:00	2024-11-08T13:00:00	8	Radiación solar	809
24225	7	Sololá	712	San Antonio Palopó	9	San Antonio Palopo	12	Diciembre	2023-11-12T00:00:00	2024-11-08T14:00:00	2	Temperatura media	21.2
24226	7	Sololá	712	San Antonio Palopó	9	San Antonio Palopo	12	Diciembre	2023-11-12T00:00:00	2024-11-08T14:00:00	4	Temperatura máxima	22.3
24227	7	Sololá	712	San Antonio Palopó	9	San Antonio Palopo	12	Diciembre	2023-11-12T00:00:00	2024-11-08T14:00:00	3	Temperatura mínima	21.2
24228	7	Sololá	712	San Antonio Palopó	9	San Antonio Palopo	12	Diciembre	2023-11-12T00:00:00	2024-11-08T14:00:00	5	Humedad	60
24229	7	Sololá	712	San Antonio Palopó	9	San Antonio Palopo	12	Diciembre	2023-11-12T00:00:00	2024-11-08T14:00:00	6	Velocidad del viento	12.9
24230	7	Sololá	712	San Antonio Palopó	9	San Antonio Palopo	12	Diciembre	2023-11-12T00:00:00	2024-11-08T14:00:00	7	Dirección del viento	12.87
24231	7	Sololá	712	San Antonio Palopó	9	San Antonio Palopo	12	Diciembre	2023-11-12T00:00:00	2024-11-08T14:00:00	1	Precipitación	0
24232	7	Sololá	712	San Antonio Palopó	9	San Antonio Palopo	12	Diciembre	2023-11-12T00:00:00	2024-11-08T14:00:00	8	Radiación solar	273
24233	7	Sololá	712	San Antonio Palopó	9	San Antonio Palopo	12	Diciembre	2023-11-12T00:00:00	2024-11-08T15:00:00	2	Temperatura media	21.9
24234	7	Sololá	712	San Antonio Palopó	9	San Antonio Palopo	12	Diciembre	2023-11-12T00:00:00	2024-11-08T15:00:00	4	Temperatura máxima	21.9
24235	7	Sololá	712	San Antonio Palopó	9	San Antonio Palopo	12	Diciembre	2023-11-12T00:00:00	2024-11-08T15:00:00	3	Temperatura mínima	21.1
24236	7	Sololá	712	San Antonio Palopó	9	San Antonio Palopo	12	Diciembre	2023-11-12T00:00:00	2024-11-08T15:00:00	5	Humedad	57
24237	7	Sololá	712	San Antonio Palopó	9	San Antonio Palopo	12	Diciembre	2023-11-12T00:00:00	2024-11-08T15:00:00	6	Velocidad del viento	14.5
24238	7	Sololá	712	San Antonio Palopó	9	San Antonio Palopo	12	Diciembre	2023-11-12T00:00:00	2024-11-08T15:00:00	7	Dirección del viento	14.48
24239	7	Sololá	712	San Antonio Palopó	9	San Antonio Palopo	12	Diciembre	2023-11-12T00:00:00	2024-11-08T15:00:00	1	Precipitación	0
24240	7	Sololá	712	San Antonio Palopó	9	San Antonio Palopo	12	Diciembre	2023-11-12T00:00:00	2024-11-08T15:00:00	8	Radiación solar	188
24241	7	Sololá	712	San Antonio Palopó	9	San Antonio Palopo	12	Diciembre	2023-11-12T00:00:00	2024-11-08T16:00:00	2	Temperatura media	21.3
24242	7	Sololá	712	San Antonio Palopó	9	San Antonio Palopo	12	Diciembre	2023-11-12T00:00:00	2024-11-08T16:00:00	4	Temperatura máxima	21.9
24243	7	Sololá	712	San Antonio Palopó	9	San Antonio Palopo	12	Diciembre	2023-11-12T00:00:00	2024-11-08T16:00:00	3	Temperatura mínima	20.9
24244	7	Sololá	712	San Antonio Palopó	9	San Antonio Palopo	12	Diciembre	2023-11-12T00:00:00	2024-11-08T16:00:00	5	Humedad	58
24245	7	Sololá	712	San Antonio Palopó	9	San Antonio Palopo	12	Diciembre	2023-11-12T00:00:00	2024-11-08T16:00:00	6	Velocidad del viento	17.7
24246	7	Sololá	712	San Antonio Palopó	9	San Antonio Palopo	12	Diciembre	2023-11-12T00:00:00	2024-11-08T16:00:00	7	Dirección del viento	17.7
24247	7	Sololá	712	San Antonio Palopó	9	San Antonio Palopo	12	Diciembre	2023-11-12T00:00:00	2024-11-08T16:00:00	1	Precipitación	0
24248	7	Sololá	712	San Antonio Palopó	9	San Antonio Palopo	12	Diciembre	2023-11-12T00:00:00	2024-11-08T16:00:00	8	Radiación solar	187
24249	7	Sololá	712	San Antonio Palopó	9	San Antonio Palopo	12	Diciembre	2023-11-12T00:00:00	2024-11-08T17:00:00	2	Temperatura media	21.2
24250	7	Sololá	712	San Antonio Palopó	9	San Antonio Palopo	12	Diciembre	2023-11-12T00:00:00	2024-11-08T17:00:00	4	Temperatura máxima	22.5
24251	7	Sololá	712	San Antonio Palopó	9	San Antonio Palopo	12	Diciembre	2023-11-12T00:00:00	2024-11-08T17:00:00	3	Temperatura mínima	21.2
24252	7	Sololá	712	San Antonio Palopó	9	San Antonio Palopo	12	Diciembre	2023-11-12T00:00:00	2024-11-08T17:00:00	5	Humedad	59
24253	7	Sololá	712	San Antonio Palopó	9	San Antonio Palopo	12	Diciembre	2023-11-12T00:00:00	2024-11-08T17:00:00	6	Velocidad del viento	16.1
24254	7	Sololá	712	San Antonio Palopó	9	San Antonio Palopo	12	Diciembre	2023-11-12T00:00:00	2024-11-08T17:00:00	7	Dirección del viento	16.09
24255	7	Sololá	712	San Antonio Palopó	9	San Antonio Palopo	12	Diciembre	2023-11-12T00:00:00	2024-11-08T17:00:00	1	Precipitación	0
24256	7	Sololá	712	San Antonio Palopó	9	San Antonio Palopo	12	Diciembre	2023-11-12T00:00:00	2024-11-08T17:00:00	8	Radiación solar	146
24257	7	Sololá	712	San Antonio Palopó	9	San Antonio Palopo	12	Diciembre	2023-11-12T00:00:00	2024-11-08T18:00:00	2	Temperatura media	19.6
24258	7	Sololá	712	San Antonio Palopó	9	San Antonio Palopo	12	Diciembre	2023-11-12T00:00:00	2024-11-08T18:00:00	4	Temperatura máxima	21.2
24259	7	Sololá	712	San Antonio Palopó	9	San Antonio Palopo	12	Diciembre	2023-11-12T00:00:00	2024-11-08T18:00:00	3	Temperatura mínima	19.6
24260	7	Sololá	712	San Antonio Palopó	9	San Antonio Palopo	12	Diciembre	2023-11-12T00:00:00	2024-11-08T18:00:00	5	Humedad	62
24261	7	Sololá	712	San Antonio Palopó	9	San Antonio Palopo	12	Diciembre	2023-11-12T00:00:00	2024-11-08T18:00:00	6	Velocidad del viento	14.5
24262	7	Sololá	712	San Antonio Palopó	9	San Antonio Palopo	12	Diciembre	2023-11-12T00:00:00	2024-11-08T18:00:00	7	Dirección del viento	14.48
24263	7	Sololá	712	San Antonio Palopó	9	San Antonio Palopo	12	Diciembre	2023-11-12T00:00:00	2024-11-08T18:00:00	1	Precipitación	0
24264	7	Sololá	712	San Antonio Palopó	9	San Antonio Palopo	12	Diciembre	2023-11-12T00:00:00	2024-11-08T18:00:00	8	Radiación solar	10
24265	7	Sololá	712	San Antonio Palopó	9	San Antonio Palopo	12	Diciembre	2023-11-12T00:00:00	2024-11-08T19:00:00	2	Temperatura media	19.7
24266	7	Sololá	712	San Antonio Palopó	9	San Antonio Palopo	12	Diciembre	2023-11-12T00:00:00	2024-11-08T19:00:00	4	Temperatura máxima	19.7
24267	7	Sololá	712	San Antonio Palopó	9	San Antonio Palopo	12	Diciembre	2023-11-12T00:00:00	2024-11-08T19:00:00	3	Temperatura mínima	19.5
24268	7	Sololá	712	San Antonio Palopó	9	San Antonio Palopo	12	Diciembre	2023-11-12T00:00:00	2024-11-08T19:00:00	5	Humedad	62
24269	7	Sololá	712	San Antonio Palopó	9	San Antonio Palopo	12	Diciembre	2023-11-12T00:00:00	2024-11-08T19:00:00	6	Velocidad del viento	8
24270	7	Sololá	712	San Antonio Palopó	9	San Antonio Palopo	12	Diciembre	2023-11-12T00:00:00	2024-11-08T19:00:00	7	Dirección del viento	8.05
24271	7	Sololá	712	San Antonio Palopó	9	San Antonio Palopo	12	Diciembre	2023-11-12T00:00:00	2024-11-08T19:00:00	1	Precipitación	0
24272	7	Sololá	712	San Antonio Palopó	9	San Antonio Palopo	12	Diciembre	2023-11-12T00:00:00	2024-11-08T19:00:00	8	Radiación solar	0
24273	7	Sololá	712	San Antonio Palopó	9	San Antonio Palopo	12	Diciembre	2023-11-12T00:00:00	2024-11-08T20:00:00	2	Temperatura media	19.4
24274	7	Sololá	712	San Antonio Palopó	9	San Antonio Palopo	12	Diciembre	2023-11-12T00:00:00	2024-11-08T20:00:00	4	Temperatura máxima	19.7
24275	7	Sololá	712	San Antonio Palopó	9	San Antonio Palopo	12	Diciembre	2023-11-12T00:00:00	2024-11-08T20:00:00	3	Temperatura mínima	19.3
24276	7	Sololá	712	San Antonio Palopó	9	San Antonio Palopo	12	Diciembre	2023-11-12T00:00:00	2024-11-08T20:00:00	5	Humedad	62
24277	7	Sololá	712	San Antonio Palopó	9	San Antonio Palopo	12	Diciembre	2023-11-12T00:00:00	2024-11-08T20:00:00	6	Velocidad del viento	9.7
24278	7	Sololá	712	San Antonio Palopó	9	San Antonio Palopo	12	Diciembre	2023-11-12T00:00:00	2024-11-08T20:00:00	7	Dirección del viento	9.66
24279	7	Sololá	712	San Antonio Palopó	9	San Antonio Palopo	12	Diciembre	2023-11-12T00:00:00	2024-11-08T20:00:00	1	Precipitación	0
24280	7	Sololá	712	San Antonio Palopó	9	San Antonio Palopo	12	Diciembre	2023-11-12T00:00:00	2024-11-08T20:00:00	8	Radiación solar	0
24281	7	Sololá	712	San Antonio Palopó	9	San Antonio Palopo	12	Diciembre	2023-11-12T00:00:00	2024-11-08T21:00:00	2	Temperatura media	19.2
24282	7	Sololá	712	San Antonio Palopó	9	San Antonio Palopo	12	Diciembre	2023-11-12T00:00:00	2024-11-08T21:00:00	4	Temperatura máxima	19.4
24283	7	Sololá	712	San Antonio Palopó	9	San Antonio Palopo	12	Diciembre	2023-11-12T00:00:00	2024-11-08T21:00:00	3	Temperatura mínima	19.1
24284	7	Sololá	712	San Antonio Palopó	9	San Antonio Palopo	12	Diciembre	2023-11-12T00:00:00	2024-11-08T21:00:00	5	Humedad	64
24285	7	Sololá	712	San Antonio Palopó	9	San Antonio Palopo	12	Diciembre	2023-11-12T00:00:00	2024-11-08T21:00:00	6	Velocidad del viento	11.3
24286	7	Sololá	712	San Antonio Palopó	9	San Antonio Palopo	12	Diciembre	2023-11-12T00:00:00	2024-11-08T21:00:00	7	Dirección del viento	11.27
24287	7	Sololá	712	San Antonio Palopó	9	San Antonio Palopo	12	Diciembre	2023-11-12T00:00:00	2024-11-08T21:00:00	1	Precipitación	0
24288	7	Sololá	712	San Antonio Palopó	9	San Antonio Palopo	12	Diciembre	2023-11-12T00:00:00	2024-11-08T21:00:00	8	Radiación solar	0
24289	7	Sololá	712	San Antonio Palopó	9	San Antonio Palopo	12	Diciembre	2023-11-12T00:00:00	2024-11-08T22:00:00	2	Temperatura media	19.3
24290	7	Sololá	712	San Antonio Palopó	9	San Antonio Palopo	12	Diciembre	2023-11-12T00:00:00	2024-11-08T22:00:00	4	Temperatura máxima	19.3
24291	7	Sololá	712	San Antonio Palopó	9	San Antonio Palopo	12	Diciembre	2023-11-12T00:00:00	2024-11-08T22:00:00	3	Temperatura mínima	19.1
24292	7	Sololá	712	San Antonio Palopó	9	San Antonio Palopo	12	Diciembre	2023-11-12T00:00:00	2024-11-08T22:00:00	5	Humedad	64
24293	7	Sololá	712	San Antonio Palopó	9	San Antonio Palopo	12	Diciembre	2023-11-12T00:00:00	2024-11-08T22:00:00	6	Velocidad del viento	11.3
24294	7	Sololá	712	San Antonio Palopó	9	San Antonio Palopo	12	Diciembre	2023-11-12T00:00:00	2024-11-08T22:00:00	7	Dirección del viento	11.27
24295	7	Sololá	712	San Antonio Palopó	9	San Antonio Palopo	12	Diciembre	2023-11-12T00:00:00	2024-11-08T22:00:00	1	Precipitación	0
24296	7	Sololá	712	San Antonio Palopó	9	San Antonio Palopo	12	Diciembre	2023-11-12T00:00:00	2024-11-08T22:00:00	8	Radiación solar	0
24297	7	Sololá	712	San Antonio Palopó	9	San Antonio Palopo	12	Diciembre	2023-11-12T00:00:00	2024-11-08T23:00:00	2	Temperatura media	19.3
24298	7	Sololá	712	San Antonio Palopó	9	San Antonio Palopo	12	Diciembre	2023-11-12T00:00:00	2024-11-08T23:00:00	4	Temperatura máxima	19.4
24299	7	Sololá	712	San Antonio Palopó	9	San Antonio Palopo	12	Diciembre	2023-11-12T00:00:00	2024-11-08T23:00:00	3	Temperatura mínima	19.1
24300	7	Sololá	712	San Antonio Palopó	9	San Antonio Palopo	12	Diciembre	2023-11-12T00:00:00	2024-11-08T23:00:00	5	Humedad	63
24301	7	Sololá	712	San Antonio Palopó	9	San Antonio Palopo	12	Diciembre	2023-11-12T00:00:00	2024-11-08T23:00:00	6	Velocidad del viento	9.7
24302	7	Sololá	712	San Antonio Palopó	9	San Antonio Palopo	12	Diciembre	2023-11-12T00:00:00	2024-11-08T23:00:00	7	Dirección del viento	9.66
24303	7	Sololá	712	San Antonio Palopó	9	San Antonio Palopo	12	Diciembre	2023-11-12T00:00:00	2024-11-08T23:00:00	1	Precipitación	0
24304	7	Sololá	712	San Antonio Palopó	9	San Antonio Palopo	12	Diciembre	2023-11-12T00:00:00	2024-11-08T23:00:00	8	Radiación solar	0
24305	7	Sololá	712	San Antonio Palopó	9	San Antonio Palopo	12	Diciembre	2023-12-12T00:00:00	2024-11-08T00:00:00	2	Temperatura media	19.1
24306	7	Sololá	712	San Antonio Palopó	9	San Antonio Palopo	12	Diciembre	2023-12-12T00:00:00	2024-11-08T00:00:00	4	Temperatura máxima	19.4
24307	7	Sololá	712	San Antonio Palopó	9	San Antonio Palopo	12	Diciembre	2023-12-12T00:00:00	2024-11-08T00:00:00	3	Temperatura mínima	19.1
24308	7	Sololá	712	San Antonio Palopó	9	San Antonio Palopo	12	Diciembre	2023-12-12T00:00:00	2024-11-08T00:00:00	5	Humedad	64
24309	7	Sololá	712	San Antonio Palopó	9	San Antonio Palopo	12	Diciembre	2023-12-12T00:00:00	2024-11-08T00:00:00	6	Velocidad del viento	8
24310	7	Sololá	712	San Antonio Palopó	9	San Antonio Palopo	12	Diciembre	2023-12-12T00:00:00	2024-11-08T00:00:00	7	Dirección del viento	8.05
24311	7	Sololá	712	San Antonio Palopó	9	San Antonio Palopo	12	Diciembre	2023-12-12T00:00:00	2024-11-08T00:00:00	1	Precipitación	0
24312	7	Sololá	712	San Antonio Palopó	9	San Antonio Palopo	12	Diciembre	2023-12-12T00:00:00	2024-11-08T00:00:00	8	Radiación solar	0
24313	7	Sololá	712	San Antonio Palopó	9	San Antonio Palopo	12	Diciembre	2023-12-12T00:00:00	2024-11-08T01:00:00	2	Temperatura media	19
24314	7	Sololá	712	San Antonio Palopó	9	San Antonio Palopo	12	Diciembre	2023-12-12T00:00:00	2024-11-08T01:00:00	4	Temperatura máxima	19.1
24315	7	Sololá	712	San Antonio Palopó	9	San Antonio Palopo	12	Diciembre	2023-12-12T00:00:00	2024-11-08T01:00:00	3	Temperatura mínima	18.6
24316	7	Sololá	712	San Antonio Palopó	9	San Antonio Palopo	12	Diciembre	2023-12-12T00:00:00	2024-11-08T01:00:00	5	Humedad	64
24317	7	Sololá	712	San Antonio Palopó	9	San Antonio Palopo	12	Diciembre	2023-12-12T00:00:00	2024-11-08T01:00:00	6	Velocidad del viento	6.4
24318	7	Sololá	712	San Antonio Palopó	9	San Antonio Palopo	12	Diciembre	2023-12-12T00:00:00	2024-11-08T01:00:00	7	Dirección del viento	6.44
24319	7	Sololá	712	San Antonio Palopó	9	San Antonio Palopo	12	Diciembre	2023-12-12T00:00:00	2024-11-08T01:00:00	1	Precipitación	0
24320	7	Sololá	712	San Antonio Palopó	9	San Antonio Palopo	12	Diciembre	2023-12-12T00:00:00	2024-11-08T01:00:00	8	Radiación solar	0
24321	7	Sololá	712	San Antonio Palopó	9	San Antonio Palopo	12	Diciembre	2023-12-12T00:00:00	2024-11-08T02:00:00	2	Temperatura media	18.4
24322	7	Sololá	712	San Antonio Palopó	9	San Antonio Palopo	12	Diciembre	2023-12-12T00:00:00	2024-11-08T02:00:00	4	Temperatura máxima	19
24323	7	Sololá	712	San Antonio Palopó	9	San Antonio Palopo	12	Diciembre	2023-12-12T00:00:00	2024-11-08T02:00:00	3	Temperatura mínima	18.4
24324	7	Sololá	712	San Antonio Palopó	9	San Antonio Palopo	12	Diciembre	2023-12-12T00:00:00	2024-11-08T02:00:00	5	Humedad	64
24325	7	Sololá	712	San Antonio Palopó	9	San Antonio Palopo	12	Diciembre	2023-12-12T00:00:00	2024-11-08T02:00:00	6	Velocidad del viento	8
24326	7	Sololá	712	San Antonio Palopó	9	San Antonio Palopo	12	Diciembre	2023-12-12T00:00:00	2024-11-08T02:00:00	7	Dirección del viento	8.05
24327	7	Sololá	712	San Antonio Palopó	9	San Antonio Palopo	12	Diciembre	2023-12-12T00:00:00	2024-11-08T02:00:00	1	Precipitación	0
24328	7	Sololá	712	San Antonio Palopó	9	San Antonio Palopo	12	Diciembre	2023-12-12T00:00:00	2024-11-08T02:00:00	8	Radiación solar	0
24329	7	Sololá	712	San Antonio Palopó	9	San Antonio Palopo	12	Diciembre	2023-12-12T00:00:00	2024-11-08T03:00:00	2	Temperatura media	18.9
24330	7	Sololá	712	San Antonio Palopó	9	San Antonio Palopo	12	Diciembre	2023-12-12T00:00:00	2024-11-08T03:00:00	4	Temperatura máxima	18.9
24331	7	Sololá	712	San Antonio Palopó	9	San Antonio Palopo	12	Diciembre	2023-12-12T00:00:00	2024-11-08T03:00:00	3	Temperatura mínima	18.3
24332	7	Sololá	712	San Antonio Palopó	9	San Antonio Palopo	12	Diciembre	2023-12-12T00:00:00	2024-11-08T03:00:00	5	Humedad	63
24333	7	Sololá	712	San Antonio Palopó	9	San Antonio Palopo	12	Diciembre	2023-12-12T00:00:00	2024-11-08T03:00:00	6	Velocidad del viento	8
24334	7	Sololá	712	San Antonio Palopó	9	San Antonio Palopo	12	Diciembre	2023-12-12T00:00:00	2024-11-08T03:00:00	7	Dirección del viento	8.05
24335	7	Sololá	712	San Antonio Palopó	9	San Antonio Palopo	12	Diciembre	2023-12-12T00:00:00	2024-11-08T03:00:00	1	Precipitación	0
24336	7	Sololá	712	San Antonio Palopó	9	San Antonio Palopo	12	Diciembre	2023-12-12T00:00:00	2024-11-08T03:00:00	8	Radiación solar	0
24337	7	Sololá	712	San Antonio Palopó	9	San Antonio Palopo	12	Diciembre	2023-12-12T00:00:00	2024-11-08T04:00:00	2	Temperatura media	19.1
24338	7	Sololá	712	San Antonio Palopó	9	San Antonio Palopo	12	Diciembre	2023-12-12T00:00:00	2024-11-08T04:00:00	4	Temperatura máxima	19.3
24339	7	Sololá	712	San Antonio Palopó	9	San Antonio Palopo	12	Diciembre	2023-12-12T00:00:00	2024-11-08T04:00:00	3	Temperatura mínima	18.8
24340	7	Sololá	712	San Antonio Palopó	9	San Antonio Palopo	12	Diciembre	2023-12-12T00:00:00	2024-11-08T04:00:00	5	Humedad	62
24341	7	Sololá	712	San Antonio Palopó	9	San Antonio Palopo	12	Diciembre	2023-12-12T00:00:00	2024-11-08T04:00:00	6	Velocidad del viento	8
24342	7	Sololá	712	San Antonio Palopó	9	San Antonio Palopo	12	Diciembre	2023-12-12T00:00:00	2024-11-08T04:00:00	7	Dirección del viento	8.05
24343	7	Sololá	712	San Antonio Palopó	9	San Antonio Palopo	12	Diciembre	2023-12-12T00:00:00	2024-11-08T04:00:00	1	Precipitación	0
24344	7	Sololá	712	San Antonio Palopó	9	San Antonio Palopo	12	Diciembre	2023-12-12T00:00:00	2024-11-08T04:00:00	8	Radiación solar	0
24345	7	Sololá	712	San Antonio Palopó	9	San Antonio Palopo	12	Diciembre	2023-12-12T00:00:00	2024-11-08T05:00:00	2	Temperatura media	18.8
24346	7	Sololá	712	San Antonio Palopó	9	San Antonio Palopo	12	Diciembre	2023-12-12T00:00:00	2024-11-08T05:00:00	4	Temperatura máxima	19.3
24347	7	Sololá	712	San Antonio Palopó	9	San Antonio Palopo	12	Diciembre	2023-12-12T00:00:00	2024-11-08T05:00:00	3	Temperatura mínima	18.8
24348	7	Sololá	712	San Antonio Palopó	9	San Antonio Palopo	12	Diciembre	2023-12-12T00:00:00	2024-11-08T05:00:00	5	Humedad	62
24349	7	Sololá	712	San Antonio Palopó	9	San Antonio Palopo	12	Diciembre	2023-12-12T00:00:00	2024-11-08T05:00:00	6	Velocidad del viento	9.7
24350	7	Sololá	712	San Antonio Palopó	9	San Antonio Palopo	12	Diciembre	2023-12-12T00:00:00	2024-11-08T05:00:00	7	Dirección del viento	9.66
24351	7	Sololá	712	San Antonio Palopó	9	San Antonio Palopo	12	Diciembre	2023-12-12T00:00:00	2024-11-08T05:00:00	1	Precipitación	0
24352	7	Sololá	712	San Antonio Palopó	9	San Antonio Palopo	12	Diciembre	2023-12-12T00:00:00	2024-11-08T05:00:00	8	Radiación solar	0
24353	7	Sololá	712	San Antonio Palopó	9	San Antonio Palopo	12	Diciembre	2023-12-12T00:00:00	2024-11-08T06:00:00	2	Temperatura media	18.6
24354	7	Sololá	712	San Antonio Palopó	9	San Antonio Palopo	12	Diciembre	2023-12-12T00:00:00	2024-11-08T06:00:00	4	Temperatura máxima	18.9
24355	7	Sololá	712	San Antonio Palopó	9	San Antonio Palopo	12	Diciembre	2023-12-12T00:00:00	2024-11-08T06:00:00	3	Temperatura mínima	18.2
24356	7	Sololá	712	San Antonio Palopó	9	San Antonio Palopo	12	Diciembre	2023-12-12T00:00:00	2024-11-08T06:00:00	5	Humedad	63
24357	7	Sololá	712	San Antonio Palopó	9	San Antonio Palopo	12	Diciembre	2023-12-12T00:00:00	2024-11-08T06:00:00	6	Velocidad del viento	8
24358	7	Sololá	712	San Antonio Palopó	9	San Antonio Palopo	12	Diciembre	2023-12-12T00:00:00	2024-11-08T06:00:00	7	Dirección del viento	8.05
24359	7	Sololá	712	San Antonio Palopó	9	San Antonio Palopo	12	Diciembre	2023-12-12T00:00:00	2024-11-08T06:00:00	1	Precipitación	0
24360	7	Sololá	712	San Antonio Palopó	9	San Antonio Palopo	12	Diciembre	2023-12-12T00:00:00	2024-11-08T06:00:00	8	Radiación solar	0
24361	7	Sololá	712	San Antonio Palopó	9	San Antonio Palopo	12	Diciembre	2023-12-12T00:00:00	2024-11-08T07:00:00	2	Temperatura media	18.3
24362	7	Sololá	712	San Antonio Palopó	9	San Antonio Palopo	12	Diciembre	2023-12-12T00:00:00	2024-11-08T07:00:00	4	Temperatura máxima	18.8
24363	7	Sololá	712	San Antonio Palopó	9	San Antonio Palopo	12	Diciembre	2023-12-12T00:00:00	2024-11-08T07:00:00	3	Temperatura mínima	18.2
24364	7	Sololá	712	San Antonio Palopó	9	San Antonio Palopo	12	Diciembre	2023-12-12T00:00:00	2024-11-08T07:00:00	5	Humedad	64
24365	7	Sololá	712	San Antonio Palopó	9	San Antonio Palopo	12	Diciembre	2023-12-12T00:00:00	2024-11-08T07:00:00	6	Velocidad del viento	9.7
24366	7	Sololá	712	San Antonio Palopó	9	San Antonio Palopo	12	Diciembre	2023-12-12T00:00:00	2024-11-08T07:00:00	7	Dirección del viento	9.66
24367	7	Sololá	712	San Antonio Palopó	9	San Antonio Palopo	12	Diciembre	2023-12-12T00:00:00	2024-11-08T07:00:00	1	Precipitación	0
24368	7	Sololá	712	San Antonio Palopó	9	San Antonio Palopo	12	Diciembre	2023-12-12T00:00:00	2024-11-08T07:00:00	8	Radiación solar	5
24369	7	Sololá	712	San Antonio Palopó	9	San Antonio Palopo	12	Diciembre	2023-12-12T00:00:00	2024-11-08T08:00:00	2	Temperatura media	19.4
24370	7	Sololá	712	San Antonio Palopó	9	San Antonio Palopo	12	Diciembre	2023-12-12T00:00:00	2024-11-08T08:00:00	4	Temperatura máxima	19.4
24371	7	Sololá	712	San Antonio Palopó	9	San Antonio Palopo	12	Diciembre	2023-12-12T00:00:00	2024-11-08T08:00:00	3	Temperatura mínima	18.2
24372	7	Sololá	712	San Antonio Palopó	9	San Antonio Palopo	12	Diciembre	2023-12-12T00:00:00	2024-11-08T08:00:00	5	Humedad	62
24373	7	Sololá	712	San Antonio Palopó	9	San Antonio Palopo	12	Diciembre	2023-12-12T00:00:00	2024-11-08T08:00:00	6	Velocidad del viento	8
24374	7	Sololá	712	San Antonio Palopó	9	San Antonio Palopo	12	Diciembre	2023-12-12T00:00:00	2024-11-08T08:00:00	7	Dirección del viento	8.05
24375	7	Sololá	712	San Antonio Palopó	9	San Antonio Palopo	12	Diciembre	2023-12-12T00:00:00	2024-11-08T08:00:00	1	Precipitación	0
24376	7	Sololá	712	San Antonio Palopó	9	San Antonio Palopo	12	Diciembre	2023-12-12T00:00:00	2024-11-08T08:00:00	8	Radiación solar	17
24377	7	Sololá	712	San Antonio Palopó	9	San Antonio Palopo	12	Diciembre	2023-12-12T00:00:00	2024-11-08T09:00:00	2	Temperatura media	20.7
24378	7	Sololá	712	San Antonio Palopó	9	San Antonio Palopo	12	Diciembre	2023-12-12T00:00:00	2024-11-08T09:00:00	4	Temperatura máxima	20.7
24379	7	Sololá	712	San Antonio Palopó	9	San Antonio Palopo	12	Diciembre	2023-12-12T00:00:00	2024-11-08T09:00:00	3	Temperatura mínima	19.4
24380	7	Sololá	712	San Antonio Palopó	9	San Antonio Palopo	12	Diciembre	2023-12-12T00:00:00	2024-11-08T09:00:00	5	Humedad	62
24381	7	Sololá	712	San Antonio Palopó	9	San Antonio Palopo	12	Diciembre	2023-12-12T00:00:00	2024-11-08T09:00:00	6	Velocidad del viento	11.3
24382	7	Sololá	712	San Antonio Palopó	9	San Antonio Palopo	12	Diciembre	2023-12-12T00:00:00	2024-11-08T09:00:00	7	Dirección del viento	11.27
24383	7	Sololá	712	San Antonio Palopó	9	San Antonio Palopo	12	Diciembre	2023-12-12T00:00:00	2024-11-08T09:00:00	1	Precipitación	0
24384	7	Sololá	712	San Antonio Palopó	9	San Antonio Palopo	12	Diciembre	2023-12-12T00:00:00	2024-11-08T09:00:00	8	Radiación solar	156
24385	7	Sololá	712	San Antonio Palopó	9	San Antonio Palopo	12	Diciembre	2023-12-12T00:00:00	2024-11-08T10:00:00	2	Temperatura media	22.8
24386	7	Sololá	712	San Antonio Palopó	9	San Antonio Palopo	12	Diciembre	2023-12-12T00:00:00	2024-11-08T10:00:00	4	Temperatura máxima	22.8
24387	7	Sololá	712	San Antonio Palopó	9	San Antonio Palopo	12	Diciembre	2023-12-12T00:00:00	2024-11-08T10:00:00	3	Temperatura mínima	20.7
24388	7	Sololá	712	San Antonio Palopó	9	San Antonio Palopo	12	Diciembre	2023-12-12T00:00:00	2024-11-08T10:00:00	5	Humedad	57
24389	7	Sololá	712	San Antonio Palopó	9	San Antonio Palopo	12	Diciembre	2023-12-12T00:00:00	2024-11-08T10:00:00	6	Velocidad del viento	8
24390	7	Sololá	712	San Antonio Palopó	9	San Antonio Palopo	12	Diciembre	2023-12-12T00:00:00	2024-11-08T10:00:00	7	Dirección del viento	8.05
24391	7	Sololá	712	San Antonio Palopó	9	San Antonio Palopo	12	Diciembre	2023-12-12T00:00:00	2024-11-08T10:00:00	1	Precipitación	0
24392	7	Sololá	712	San Antonio Palopó	9	San Antonio Palopo	12	Diciembre	2023-12-12T00:00:00	2024-11-08T10:00:00	8	Radiación solar	561
24393	7	Sololá	712	San Antonio Palopó	9	San Antonio Palopo	12	Diciembre	2023-12-12T00:00:00	2024-11-08T11:00:00	2	Temperatura media	22.4
24394	7	Sololá	712	San Antonio Palopó	9	San Antonio Palopo	12	Diciembre	2023-12-12T00:00:00	2024-11-08T11:00:00	4	Temperatura máxima	23.2
24395	7	Sololá	712	San Antonio Palopó	9	San Antonio Palopo	12	Diciembre	2023-12-12T00:00:00	2024-11-08T11:00:00	3	Temperatura mínima	22.1
24396	7	Sololá	712	San Antonio Palopó	9	San Antonio Palopo	12	Diciembre	2023-12-12T00:00:00	2024-11-08T11:00:00	5	Humedad	59
24397	7	Sololá	712	San Antonio Palopó	9	San Antonio Palopo	12	Diciembre	2023-12-12T00:00:00	2024-11-08T11:00:00	6	Velocidad del viento	8
24398	7	Sololá	712	San Antonio Palopó	9	San Antonio Palopo	12	Diciembre	2023-12-12T00:00:00	2024-11-08T11:00:00	7	Dirección del viento	8.05
24399	7	Sololá	712	San Antonio Palopó	9	San Antonio Palopo	12	Diciembre	2023-12-12T00:00:00	2024-11-08T11:00:00	1	Precipitación	0
24400	7	Sololá	712	San Antonio Palopó	9	San Antonio Palopo	12	Diciembre	2023-12-12T00:00:00	2024-11-08T11:00:00	8	Radiación solar	681
24401	7	Sololá	712	San Antonio Palopó	9	San Antonio Palopo	12	Diciembre	2023-12-12T00:00:00	2024-11-08T12:00:00	2	Temperatura media	24.6
24402	7	Sololá	712	San Antonio Palopó	9	San Antonio Palopo	12	Diciembre	2023-12-12T00:00:00	2024-11-08T12:00:00	4	Temperatura máxima	24.6
24403	7	Sololá	712	San Antonio Palopó	9	San Antonio Palopo	12	Diciembre	2023-12-12T00:00:00	2024-11-08T12:00:00	3	Temperatura mínima	22.3
24404	7	Sololá	712	San Antonio Palopó	9	San Antonio Palopo	12	Diciembre	2023-12-12T00:00:00	2024-11-08T12:00:00	5	Humedad	52
24405	7	Sololá	712	San Antonio Palopó	9	San Antonio Palopo	12	Diciembre	2023-12-12T00:00:00	2024-11-08T12:00:00	6	Velocidad del viento	9.7
24406	7	Sololá	712	San Antonio Palopó	9	San Antonio Palopo	12	Diciembre	2023-12-12T00:00:00	2024-11-08T12:00:00	7	Dirección del viento	9.66
24407	7	Sololá	712	San Antonio Palopó	9	San Antonio Palopo	12	Diciembre	2023-12-12T00:00:00	2024-11-08T12:00:00	1	Precipitación	0
24408	7	Sololá	712	San Antonio Palopó	9	San Antonio Palopo	12	Diciembre	2023-12-12T00:00:00	2024-11-08T12:00:00	8	Radiación solar	650
24409	7	Sololá	712	San Antonio Palopó	9	San Antonio Palopo	12	Diciembre	2023-12-12T00:00:00	2024-11-08T13:00:00	2	Temperatura media	24.9
24410	7	Sololá	712	San Antonio Palopó	9	San Antonio Palopo	12	Diciembre	2023-12-12T00:00:00	2024-11-08T13:00:00	4	Temperatura máxima	25.2
24411	7	Sololá	712	San Antonio Palopó	9	San Antonio Palopo	12	Diciembre	2023-12-12T00:00:00	2024-11-08T13:00:00	3	Temperatura mínima	23.9
24412	7	Sololá	712	San Antonio Palopó	9	San Antonio Palopo	12	Diciembre	2023-12-12T00:00:00	2024-11-08T13:00:00	5	Humedad	52
24413	7	Sololá	712	San Antonio Palopó	9	San Antonio Palopo	12	Diciembre	2023-12-12T00:00:00	2024-11-08T13:00:00	6	Velocidad del viento	9.7
24414	7	Sololá	712	San Antonio Palopó	9	San Antonio Palopo	12	Diciembre	2023-12-12T00:00:00	2024-11-08T13:00:00	7	Dirección del viento	9.66
24415	7	Sololá	712	San Antonio Palopó	9	San Antonio Palopo	12	Diciembre	2023-12-12T00:00:00	2024-11-08T13:00:00	1	Precipitación	0
24416	7	Sololá	712	San Antonio Palopó	9	San Antonio Palopo	12	Diciembre	2023-12-12T00:00:00	2024-11-08T13:00:00	8	Radiación solar	764
24417	7	Sololá	712	San Antonio Palopó	9	San Antonio Palopo	12	Diciembre	2023-12-12T00:00:00	2024-11-08T14:00:00	2	Temperatura media	24.3
24418	7	Sololá	712	San Antonio Palopó	9	San Antonio Palopo	12	Diciembre	2023-12-12T00:00:00	2024-11-08T14:00:00	4	Temperatura máxima	24.9
24419	7	Sololá	712	San Antonio Palopó	9	San Antonio Palopo	12	Diciembre	2023-12-12T00:00:00	2024-11-08T14:00:00	3	Temperatura mínima	23.8
24420	7	Sololá	712	San Antonio Palopó	9	San Antonio Palopo	12	Diciembre	2023-12-12T00:00:00	2024-11-08T14:00:00	5	Humedad	54
24421	7	Sololá	712	San Antonio Palopó	9	San Antonio Palopo	12	Diciembre	2023-12-12T00:00:00	2024-11-08T14:00:00	6	Velocidad del viento	11.3
24422	7	Sololá	712	San Antonio Palopó	9	San Antonio Palopo	12	Diciembre	2023-12-12T00:00:00	2024-11-08T14:00:00	7	Dirección del viento	11.27
24423	7	Sololá	712	San Antonio Palopó	9	San Antonio Palopo	12	Diciembre	2023-12-12T00:00:00	2024-11-08T14:00:00	1	Precipitación	0
24424	7	Sololá	712	San Antonio Palopó	9	San Antonio Palopo	12	Diciembre	2023-12-12T00:00:00	2024-11-08T14:00:00	8	Radiación solar	451
24425	7	Sololá	712	San Antonio Palopó	9	San Antonio Palopo	12	Diciembre	2023-12-12T00:00:00	2024-11-08T15:00:00	2	Temperatura media	23
24426	7	Sololá	712	San Antonio Palopó	9	San Antonio Palopo	12	Diciembre	2023-12-12T00:00:00	2024-11-08T15:00:00	4	Temperatura máxima	24.3
24427	7	Sololá	712	San Antonio Palopó	9	San Antonio Palopo	12	Diciembre	2023-12-12T00:00:00	2024-11-08T15:00:00	3	Temperatura mínima	22.9
24428	7	Sololá	712	San Antonio Palopó	9	San Antonio Palopo	12	Diciembre	2023-12-12T00:00:00	2024-11-08T15:00:00	5	Humedad	58
24429	7	Sololá	712	San Antonio Palopó	9	San Antonio Palopo	12	Diciembre	2023-12-12T00:00:00	2024-11-08T15:00:00	6	Velocidad del viento	12.9
24430	7	Sololá	712	San Antonio Palopó	9	San Antonio Palopo	12	Diciembre	2023-12-12T00:00:00	2024-11-08T15:00:00	7	Dirección del viento	12.87
24431	7	Sololá	712	San Antonio Palopó	9	San Antonio Palopo	12	Diciembre	2023-12-12T00:00:00	2024-11-08T15:00:00	1	Precipitación	0
24432	7	Sololá	712	San Antonio Palopó	9	San Antonio Palopo	12	Diciembre	2023-12-12T00:00:00	2024-11-08T15:00:00	8	Radiación solar	148
24433	7	Sololá	712	San Antonio Palopó	9	San Antonio Palopo	12	Diciembre	2023-12-12T00:00:00	2024-11-08T16:00:00	2	Temperatura media	22.1
24434	7	Sololá	712	San Antonio Palopó	9	San Antonio Palopo	12	Diciembre	2023-12-12T00:00:00	2024-11-08T16:00:00	4	Temperatura máxima	23
24435	7	Sololá	712	San Antonio Palopó	9	San Antonio Palopo	12	Diciembre	2023-12-12T00:00:00	2024-11-08T16:00:00	3	Temperatura mínima	22.1
24436	7	Sololá	712	San Antonio Palopó	9	San Antonio Palopo	12	Diciembre	2023-12-12T00:00:00	2024-11-08T16:00:00	5	Humedad	61
24437	7	Sololá	712	San Antonio Palopó	9	San Antonio Palopo	12	Diciembre	2023-12-12T00:00:00	2024-11-08T16:00:00	6	Velocidad del viento	17.7
24438	7	Sololá	712	San Antonio Palopó	9	San Antonio Palopo	12	Diciembre	2023-12-12T00:00:00	2024-11-08T16:00:00	7	Dirección del viento	17.7
24439	7	Sololá	712	San Antonio Palopó	9	San Antonio Palopo	12	Diciembre	2023-12-12T00:00:00	2024-11-08T16:00:00	1	Precipitación	0
24440	7	Sololá	712	San Antonio Palopó	9	San Antonio Palopo	12	Diciembre	2023-12-12T00:00:00	2024-11-08T16:00:00	8	Radiación solar	96
24441	7	Sololá	712	San Antonio Palopó	9	San Antonio Palopo	12	Diciembre	2023-12-12T00:00:00	2024-11-08T17:00:00	2	Temperatura media	21.1
24442	7	Sololá	712	San Antonio Palopó	9	San Antonio Palopo	12	Diciembre	2023-12-12T00:00:00	2024-11-08T17:00:00	4	Temperatura máxima	22.1
24443	7	Sololá	712	San Antonio Palopó	9	San Antonio Palopo	12	Diciembre	2023-12-12T00:00:00	2024-11-08T17:00:00	3	Temperatura mínima	21.1
24444	7	Sololá	712	San Antonio Palopó	9	San Antonio Palopo	12	Diciembre	2023-12-12T00:00:00	2024-11-08T17:00:00	5	Humedad	65
24445	7	Sololá	712	San Antonio Palopó	9	San Antonio Palopo	12	Diciembre	2023-12-12T00:00:00	2024-11-08T17:00:00	6	Velocidad del viento	19.3
24446	7	Sololá	712	San Antonio Palopó	9	San Antonio Palopo	12	Diciembre	2023-12-12T00:00:00	2024-11-08T17:00:00	7	Dirección del viento	19.31
24447	7	Sololá	712	San Antonio Palopó	9	San Antonio Palopo	12	Diciembre	2023-12-12T00:00:00	2024-11-08T17:00:00	1	Precipitación	0
24448	7	Sololá	712	San Antonio Palopó	9	San Antonio Palopo	12	Diciembre	2023-12-12T00:00:00	2024-11-08T17:00:00	8	Radiación solar	57
24449	7	Sololá	712	San Antonio Palopó	9	San Antonio Palopo	12	Diciembre	2023-12-12T00:00:00	2024-11-08T18:00:00	2	Temperatura media	20.4
24450	7	Sololá	712	San Antonio Palopó	9	San Antonio Palopo	12	Diciembre	2023-12-12T00:00:00	2024-11-08T18:00:00	4	Temperatura máxima	21.1
24451	7	Sololá	712	San Antonio Palopó	9	San Antonio Palopo	12	Diciembre	2023-12-12T00:00:00	2024-11-08T18:00:00	3	Temperatura mínima	20.4
24452	7	Sololá	712	San Antonio Palopó	9	San Antonio Palopo	12	Diciembre	2023-12-12T00:00:00	2024-11-08T18:00:00	5	Humedad	65
24453	7	Sololá	712	San Antonio Palopó	9	San Antonio Palopo	12	Diciembre	2023-12-12T00:00:00	2024-11-08T18:00:00	6	Velocidad del viento	14.5
24454	7	Sololá	712	San Antonio Palopó	9	San Antonio Palopo	12	Diciembre	2023-12-12T00:00:00	2024-11-08T18:00:00	7	Dirección del viento	14.48
24455	7	Sololá	712	San Antonio Palopó	9	San Antonio Palopo	12	Diciembre	2023-12-12T00:00:00	2024-11-08T18:00:00	1	Precipitación	0
24456	7	Sololá	712	San Antonio Palopó	9	San Antonio Palopo	12	Diciembre	2023-12-12T00:00:00	2024-11-08T18:00:00	8	Radiación solar	12
24457	7	Sololá	712	San Antonio Palopó	9	San Antonio Palopo	12	Diciembre	2023-12-12T00:00:00	2024-11-08T19:00:00	2	Temperatura media	19.8
24458	7	Sololá	712	San Antonio Palopó	9	San Antonio Palopo	12	Diciembre	2023-12-12T00:00:00	2024-11-08T19:00:00	4	Temperatura máxima	20.4
24459	7	Sololá	712	San Antonio Palopó	9	San Antonio Palopo	12	Diciembre	2023-12-12T00:00:00	2024-11-08T19:00:00	3	Temperatura mínima	19.8
24460	7	Sololá	712	San Antonio Palopó	9	San Antonio Palopo	12	Diciembre	2023-12-12T00:00:00	2024-11-08T19:00:00	5	Humedad	67
24461	7	Sololá	712	San Antonio Palopó	9	San Antonio Palopo	12	Diciembre	2023-12-12T00:00:00	2024-11-08T19:00:00	6	Velocidad del viento	9.7
24462	7	Sololá	712	San Antonio Palopó	9	San Antonio Palopo	12	Diciembre	2023-12-12T00:00:00	2024-11-08T19:00:00	7	Dirección del viento	9.66
24463	7	Sololá	712	San Antonio Palopó	9	San Antonio Palopo	12	Diciembre	2023-12-12T00:00:00	2024-11-08T19:00:00	1	Precipitación	0
24464	7	Sololá	712	San Antonio Palopó	9	San Antonio Palopo	12	Diciembre	2023-12-12T00:00:00	2024-11-08T19:00:00	8	Radiación solar	0
24465	7	Sololá	712	San Antonio Palopó	9	San Antonio Palopo	12	Diciembre	2023-12-12T00:00:00	2024-11-08T20:00:00	2	Temperatura media	19.7
24466	7	Sololá	712	San Antonio Palopó	9	San Antonio Palopo	12	Diciembre	2023-12-12T00:00:00	2024-11-08T20:00:00	4	Temperatura máxima	19.9
24467	7	Sololá	712	San Antonio Palopó	9	San Antonio Palopo	12	Diciembre	2023-12-12T00:00:00	2024-11-08T20:00:00	3	Temperatura mínima	19.7
24468	7	Sololá	712	San Antonio Palopó	9	San Antonio Palopo	12	Diciembre	2023-12-12T00:00:00	2024-11-08T20:00:00	5	Humedad	67
24469	7	Sololá	712	San Antonio Palopó	9	San Antonio Palopo	12	Diciembre	2023-12-12T00:00:00	2024-11-08T20:00:00	6	Velocidad del viento	6.4
24470	7	Sololá	712	San Antonio Palopó	9	San Antonio Palopo	12	Diciembre	2023-12-12T00:00:00	2024-11-08T20:00:00	7	Dirección del viento	6.44
24471	7	Sololá	712	San Antonio Palopó	9	San Antonio Palopo	12	Diciembre	2023-12-12T00:00:00	2024-11-08T20:00:00	1	Precipitación	0
24472	7	Sololá	712	San Antonio Palopó	9	San Antonio Palopo	12	Diciembre	2023-12-12T00:00:00	2024-11-08T20:00:00	8	Radiación solar	0
24473	7	Sololá	712	San Antonio Palopó	9	San Antonio Palopo	12	Diciembre	2023-12-12T00:00:00	2024-11-08T21:00:00	2	Temperatura media	19.5
24474	7	Sololá	712	San Antonio Palopó	9	San Antonio Palopo	12	Diciembre	2023-12-12T00:00:00	2024-11-08T21:00:00	4	Temperatura máxima	19.8
24475	7	Sololá	712	San Antonio Palopó	9	San Antonio Palopo	12	Diciembre	2023-12-12T00:00:00	2024-11-08T21:00:00	3	Temperatura mínima	19.5
24476	7	Sololá	712	San Antonio Palopó	9	San Antonio Palopo	12	Diciembre	2023-12-12T00:00:00	2024-11-08T21:00:00	5	Humedad	67
24477	7	Sololá	712	San Antonio Palopó	9	San Antonio Palopo	12	Diciembre	2023-12-12T00:00:00	2024-11-08T21:00:00	6	Velocidad del viento	11.3
24478	7	Sololá	712	San Antonio Palopó	9	San Antonio Palopo	12	Diciembre	2023-12-12T00:00:00	2024-11-08T21:00:00	7	Dirección del viento	11.27
24479	7	Sololá	712	San Antonio Palopó	9	San Antonio Palopo	12	Diciembre	2023-12-12T00:00:00	2024-11-08T21:00:00	1	Precipitación	0
24480	7	Sololá	712	San Antonio Palopó	9	San Antonio Palopo	12	Diciembre	2023-12-12T00:00:00	2024-11-08T21:00:00	8	Radiación solar	0
24481	7	Sololá	712	San Antonio Palopó	9	San Antonio Palopo	12	Diciembre	2023-12-12T00:00:00	2024-11-08T22:00:00	2	Temperatura media	19.3
24482	7	Sololá	712	San Antonio Palopó	9	San Antonio Palopo	12	Diciembre	2023-12-12T00:00:00	2024-11-08T22:00:00	4	Temperatura máxima	19.6
24483	7	Sololá	712	San Antonio Palopó	9	San Antonio Palopo	12	Diciembre	2023-12-12T00:00:00	2024-11-08T22:00:00	3	Temperatura mínima	19.3
24484	7	Sololá	712	San Antonio Palopó	9	San Antonio Palopo	12	Diciembre	2023-12-12T00:00:00	2024-11-08T22:00:00	5	Humedad	67
24485	7	Sololá	712	San Antonio Palopó	9	San Antonio Palopo	12	Diciembre	2023-12-12T00:00:00	2024-11-08T22:00:00	6	Velocidad del viento	8
24486	7	Sololá	712	San Antonio Palopó	9	San Antonio Palopo	12	Diciembre	2023-12-12T00:00:00	2024-11-08T22:00:00	7	Dirección del viento	8.05
24487	7	Sololá	712	San Antonio Palopó	9	San Antonio Palopo	12	Diciembre	2023-12-12T00:00:00	2024-11-08T22:00:00	1	Precipitación	0
24488	7	Sololá	712	San Antonio Palopó	9	San Antonio Palopo	12	Diciembre	2023-12-12T00:00:00	2024-11-08T22:00:00	8	Radiación solar	0
24489	7	Sololá	712	San Antonio Palopó	9	San Antonio Palopo	12	Diciembre	2023-12-12T00:00:00	2024-11-08T23:00:00	2	Temperatura media	19.9
24490	7	Sololá	712	San Antonio Palopó	9	San Antonio Palopo	12	Diciembre	2023-12-12T00:00:00	2024-11-08T23:00:00	4	Temperatura máxima	19.9
24491	7	Sololá	712	San Antonio Palopó	9	San Antonio Palopo	12	Diciembre	2023-12-12T00:00:00	2024-11-08T23:00:00	3	Temperatura mínima	19.3
24492	7	Sololá	712	San Antonio Palopó	9	San Antonio Palopo	12	Diciembre	2023-12-12T00:00:00	2024-11-08T23:00:00	5	Humedad	67
24493	7	Sololá	712	San Antonio Palopó	9	San Antonio Palopo	12	Diciembre	2023-12-12T00:00:00	2024-11-08T23:00:00	6	Velocidad del viento	9.7
24494	7	Sololá	712	San Antonio Palopó	9	San Antonio Palopo	12	Diciembre	2023-12-12T00:00:00	2024-11-08T23:00:00	7	Dirección del viento	9.66
24495	7	Sololá	712	San Antonio Palopó	9	San Antonio Palopo	12	Diciembre	2023-12-12T00:00:00	2024-11-08T23:00:00	1	Precipitación	0
24496	7	Sololá	712	San Antonio Palopó	9	San Antonio Palopo	12	Diciembre	2023-12-12T00:00:00	2024-11-08T23:00:00	8	Radiación solar	0
24497	7	Sololá	712	San Antonio Palopó	9	San Antonio Palopo	12	Diciembre	2023-12-13T00:00:00	2024-11-08T00:00:00	2	Temperatura media	20.1
24498	7	Sololá	712	San Antonio Palopó	9	San Antonio Palopo	12	Diciembre	2023-12-13T00:00:00	2024-11-08T00:00:00	4	Temperatura máxima	20.3
24499	7	Sololá	712	San Antonio Palopó	9	San Antonio Palopo	12	Diciembre	2023-12-13T00:00:00	2024-11-08T00:00:00	3	Temperatura mínima	19.8
24500	7	Sololá	712	San Antonio Palopó	9	San Antonio Palopo	12	Diciembre	2023-12-13T00:00:00	2024-11-08T00:00:00	5	Humedad	64
24501	7	Sololá	712	San Antonio Palopó	9	San Antonio Palopo	12	Diciembre	2023-12-13T00:00:00	2024-11-08T00:00:00	6	Velocidad del viento	9.7
24502	7	Sololá	712	San Antonio Palopó	9	San Antonio Palopo	12	Diciembre	2023-12-13T00:00:00	2024-11-08T00:00:00	7	Dirección del viento	9.66
24503	7	Sololá	712	San Antonio Palopó	9	San Antonio Palopo	12	Diciembre	2023-12-13T00:00:00	2024-11-08T00:00:00	1	Precipitación	0
24504	7	Sololá	712	San Antonio Palopó	9	San Antonio Palopo	12	Diciembre	2023-12-13T00:00:00	2024-11-08T00:00:00	8	Radiación solar	0
24505	7	Sololá	712	San Antonio Palopó	9	San Antonio Palopo	12	Diciembre	2023-12-13T00:00:00	2024-11-08T01:00:00	2	Temperatura media	19.7
24506	7	Sololá	712	San Antonio Palopó	9	San Antonio Palopo	12	Diciembre	2023-12-13T00:00:00	2024-11-08T01:00:00	4	Temperatura máxima	20.4
24507	7	Sololá	712	San Antonio Palopó	9	San Antonio Palopo	12	Diciembre	2023-12-13T00:00:00	2024-11-08T01:00:00	3	Temperatura mínima	19.7
24508	7	Sololá	712	San Antonio Palopó	9	San Antonio Palopo	12	Diciembre	2023-12-13T00:00:00	2024-11-08T01:00:00	5	Humedad	66
24509	7	Sololá	712	San Antonio Palopó	9	San Antonio Palopo	12	Diciembre	2023-12-13T00:00:00	2024-11-08T01:00:00	6	Velocidad del viento	9.7
24510	7	Sololá	712	San Antonio Palopó	9	San Antonio Palopo	12	Diciembre	2023-12-13T00:00:00	2024-11-08T01:00:00	7	Dirección del viento	9.66
24511	7	Sololá	712	San Antonio Palopó	9	San Antonio Palopo	12	Diciembre	2023-12-13T00:00:00	2024-11-08T01:00:00	1	Precipitación	0
24512	7	Sololá	712	San Antonio Palopó	9	San Antonio Palopo	12	Diciembre	2023-12-13T00:00:00	2024-11-08T01:00:00	8	Radiación solar	0
24513	7	Sololá	712	San Antonio Palopó	9	San Antonio Palopo	12	Diciembre	2023-12-13T00:00:00	2024-11-08T02:00:00	2	Temperatura media	19.4
24514	7	Sololá	712	San Antonio Palopó	9	San Antonio Palopo	12	Diciembre	2023-12-13T00:00:00	2024-11-08T02:00:00	4	Temperatura máxima	19.9
24515	7	Sololá	712	San Antonio Palopó	9	San Antonio Palopo	12	Diciembre	2023-12-13T00:00:00	2024-11-08T02:00:00	3	Temperatura mínima	19.4
24516	7	Sololá	712	San Antonio Palopó	9	San Antonio Palopo	12	Diciembre	2023-12-13T00:00:00	2024-11-08T02:00:00	5	Humedad	67
24517	7	Sololá	712	San Antonio Palopó	9	San Antonio Palopo	12	Diciembre	2023-12-13T00:00:00	2024-11-08T02:00:00	6	Velocidad del viento	9.7
24518	7	Sololá	712	San Antonio Palopó	9	San Antonio Palopo	12	Diciembre	2023-12-13T00:00:00	2024-11-08T02:00:00	7	Dirección del viento	9.66
24519	7	Sololá	712	San Antonio Palopó	9	San Antonio Palopo	12	Diciembre	2023-12-13T00:00:00	2024-11-08T02:00:00	1	Precipitación	0
24520	7	Sololá	712	San Antonio Palopó	9	San Antonio Palopo	12	Diciembre	2023-12-13T00:00:00	2024-11-08T02:00:00	8	Radiación solar	0
24521	7	Sololá	712	San Antonio Palopó	9	San Antonio Palopo	12	Diciembre	2023-12-13T00:00:00	2024-11-08T03:00:00	2	Temperatura media	19
24522	7	Sololá	712	San Antonio Palopó	9	San Antonio Palopo	12	Diciembre	2023-12-13T00:00:00	2024-11-08T03:00:00	4	Temperatura máxima	19.4
24523	7	Sololá	712	San Antonio Palopó	9	San Antonio Palopo	12	Diciembre	2023-12-13T00:00:00	2024-11-08T03:00:00	3	Temperatura mínima	18.7
24524	7	Sololá	712	San Antonio Palopó	9	San Antonio Palopo	12	Diciembre	2023-12-13T00:00:00	2024-11-08T03:00:00	5	Humedad	69
24525	7	Sololá	712	San Antonio Palopó	9	San Antonio Palopo	12	Diciembre	2023-12-13T00:00:00	2024-11-08T03:00:00	6	Velocidad del viento	4.8
24526	7	Sololá	712	San Antonio Palopó	9	San Antonio Palopo	12	Diciembre	2023-12-13T00:00:00	2024-11-08T03:00:00	7	Dirección del viento	4.83
24527	7	Sololá	712	San Antonio Palopó	9	San Antonio Palopo	12	Diciembre	2023-12-13T00:00:00	2024-11-08T03:00:00	1	Precipitación	0
24528	7	Sololá	712	San Antonio Palopó	9	San Antonio Palopo	12	Diciembre	2023-12-13T00:00:00	2024-11-08T03:00:00	8	Radiación solar	0
24529	7	Sololá	712	San Antonio Palopó	9	San Antonio Palopo	12	Diciembre	2023-12-13T00:00:00	2024-11-08T04:00:00	2	Temperatura media	18.2
24530	7	Sololá	712	San Antonio Palopó	9	San Antonio Palopo	12	Diciembre	2023-12-13T00:00:00	2024-11-08T04:00:00	4	Temperatura máxima	19
24531	7	Sololá	712	San Antonio Palopó	9	San Antonio Palopo	12	Diciembre	2023-12-13T00:00:00	2024-11-08T04:00:00	3	Temperatura mínima	18.2
24532	7	Sololá	712	San Antonio Palopó	9	San Antonio Palopo	12	Diciembre	2023-12-13T00:00:00	2024-11-08T04:00:00	5	Humedad	70
24533	7	Sololá	712	San Antonio Palopó	9	San Antonio Palopo	12	Diciembre	2023-12-13T00:00:00	2024-11-08T04:00:00	6	Velocidad del viento	4.8
24534	7	Sololá	712	San Antonio Palopó	9	San Antonio Palopo	12	Diciembre	2023-12-13T00:00:00	2024-11-08T04:00:00	7	Dirección del viento	4.83
24535	7	Sololá	712	San Antonio Palopó	9	San Antonio Palopo	12	Diciembre	2023-12-13T00:00:00	2024-11-08T04:00:00	1	Precipitación	0
24536	7	Sololá	712	San Antonio Palopó	9	San Antonio Palopo	12	Diciembre	2023-12-13T00:00:00	2024-11-08T04:00:00	8	Radiación solar	0
24537	7	Sololá	712	San Antonio Palopó	9	San Antonio Palopo	12	Diciembre	2023-12-13T00:00:00	2024-11-08T05:00:00	2	Temperatura media	18.3
24538	7	Sololá	712	San Antonio Palopó	9	San Antonio Palopo	12	Diciembre	2023-12-13T00:00:00	2024-11-08T05:00:00	4	Temperatura máxima	18.7
24539	7	Sololá	712	San Antonio Palopó	9	San Antonio Palopo	12	Diciembre	2023-12-13T00:00:00	2024-11-08T05:00:00	3	Temperatura mínima	18.2
24540	7	Sololá	712	San Antonio Palopó	9	San Antonio Palopo	12	Diciembre	2023-12-13T00:00:00	2024-11-08T05:00:00	5	Humedad	71
24541	7	Sololá	712	San Antonio Palopó	9	San Antonio Palopo	12	Diciembre	2023-12-13T00:00:00	2024-11-08T05:00:00	6	Velocidad del viento	3.2
24542	7	Sololá	712	San Antonio Palopó	9	San Antonio Palopo	12	Diciembre	2023-12-13T00:00:00	2024-11-08T05:00:00	7	Dirección del viento	3.22
24543	7	Sololá	712	San Antonio Palopó	9	San Antonio Palopo	12	Diciembre	2023-12-13T00:00:00	2024-11-08T05:00:00	1	Precipitación	0
24544	7	Sololá	712	San Antonio Palopó	9	San Antonio Palopo	12	Diciembre	2023-12-13T00:00:00	2024-11-08T05:00:00	8	Radiación solar	0
24545	7	Sololá	712	San Antonio Palopó	9	San Antonio Palopo	12	Diciembre	2023-12-13T00:00:00	2024-11-08T06:00:00	2	Temperatura media	19.2
24546	7	Sololá	712	San Antonio Palopó	9	San Antonio Palopo	12	Diciembre	2023-12-13T00:00:00	2024-11-08T06:00:00	4	Temperatura máxima	19.4
24547	7	Sololá	712	San Antonio Palopó	9	San Antonio Palopo	12	Diciembre	2023-12-13T00:00:00	2024-11-08T06:00:00	3	Temperatura mínima	18.3
24548	7	Sololá	712	San Antonio Palopó	9	San Antonio Palopo	12	Diciembre	2023-12-13T00:00:00	2024-11-08T06:00:00	5	Humedad	66
24549	7	Sololá	712	San Antonio Palopó	9	San Antonio Palopo	12	Diciembre	2023-12-13T00:00:00	2024-11-08T06:00:00	6	Velocidad del viento	8
24550	7	Sololá	712	San Antonio Palopó	9	San Antonio Palopo	12	Diciembre	2023-12-13T00:00:00	2024-11-08T06:00:00	7	Dirección del viento	8.05
24551	7	Sololá	712	San Antonio Palopó	9	San Antonio Palopo	12	Diciembre	2023-12-13T00:00:00	2024-11-08T06:00:00	1	Precipitación	0
24552	7	Sololá	712	San Antonio Palopó	9	San Antonio Palopo	12	Diciembre	2023-12-13T00:00:00	2024-11-08T06:00:00	8	Radiación solar	0
24553	7	Sololá	712	San Antonio Palopó	9	San Antonio Palopo	12	Diciembre	2023-12-13T00:00:00	2024-11-08T07:00:00	2	Temperatura media	18.9
24554	7	Sololá	712	San Antonio Palopó	9	San Antonio Palopo	12	Diciembre	2023-12-13T00:00:00	2024-11-08T07:00:00	4	Temperatura máxima	19.2
24555	7	Sololá	712	San Antonio Palopó	9	San Antonio Palopo	12	Diciembre	2023-12-13T00:00:00	2024-11-08T07:00:00	3	Temperatura mínima	18.6
24556	7	Sololá	712	San Antonio Palopó	9	San Antonio Palopo	12	Diciembre	2023-12-13T00:00:00	2024-11-08T07:00:00	5	Humedad	66
24557	7	Sololá	712	San Antonio Palopó	9	San Antonio Palopo	12	Diciembre	2023-12-13T00:00:00	2024-11-08T07:00:00	6	Velocidad del viento	6.4
24558	7	Sololá	712	San Antonio Palopó	9	San Antonio Palopo	12	Diciembre	2023-12-13T00:00:00	2024-11-08T07:00:00	7	Dirección del viento	6.44
24559	7	Sololá	712	San Antonio Palopó	9	San Antonio Palopo	12	Diciembre	2023-12-13T00:00:00	2024-11-08T07:00:00	1	Precipitación	0
24560	7	Sololá	712	San Antonio Palopó	9	San Antonio Palopo	12	Diciembre	2023-12-13T00:00:00	2024-11-08T07:00:00	8	Radiación solar	5
24561	7	Sololá	712	San Antonio Palopó	9	San Antonio Palopo	12	Diciembre	2023-12-13T00:00:00	2024-11-08T08:00:00	2	Temperatura media	19.7
24562	7	Sololá	712	San Antonio Palopó	9	San Antonio Palopo	12	Diciembre	2023-12-13T00:00:00	2024-11-08T08:00:00	4	Temperatura máxima	19.7
24563	7	Sololá	712	San Antonio Palopó	9	San Antonio Palopo	12	Diciembre	2023-12-13T00:00:00	2024-11-08T08:00:00	3	Temperatura mínima	18.8
24564	7	Sololá	712	San Antonio Palopó	9	San Antonio Palopo	12	Diciembre	2023-12-13T00:00:00	2024-11-08T08:00:00	5	Humedad	64
24565	7	Sololá	712	San Antonio Palopó	9	San Antonio Palopo	12	Diciembre	2023-12-13T00:00:00	2024-11-08T08:00:00	6	Velocidad del viento	8
24566	7	Sololá	712	San Antonio Palopó	9	San Antonio Palopo	12	Diciembre	2023-12-13T00:00:00	2024-11-08T08:00:00	7	Dirección del viento	8.05
24567	7	Sololá	712	San Antonio Palopó	9	San Antonio Palopo	12	Diciembre	2023-12-13T00:00:00	2024-11-08T08:00:00	1	Precipitación	0
24568	7	Sololá	712	San Antonio Palopó	9	San Antonio Palopo	12	Diciembre	2023-12-13T00:00:00	2024-11-08T08:00:00	8	Radiación solar	17
24569	7	Sololá	712	San Antonio Palopó	9	San Antonio Palopo	12	Diciembre	2023-12-13T00:00:00	2024-11-08T09:00:00	2	Temperatura media	20.8
24570	7	Sololá	712	San Antonio Palopó	9	San Antonio Palopo	12	Diciembre	2023-12-13T00:00:00	2024-11-08T09:00:00	4	Temperatura máxima	20.8
24571	7	Sololá	712	San Antonio Palopó	9	San Antonio Palopo	12	Diciembre	2023-12-13T00:00:00	2024-11-08T09:00:00	3	Temperatura mínima	19.7
24572	7	Sololá	712	San Antonio Palopó	9	San Antonio Palopo	12	Diciembre	2023-12-13T00:00:00	2024-11-08T09:00:00	5	Humedad	63
24573	7	Sololá	712	San Antonio Palopó	9	San Antonio Palopo	12	Diciembre	2023-12-13T00:00:00	2024-11-08T09:00:00	6	Velocidad del viento	9.7
24574	7	Sololá	712	San Antonio Palopó	9	San Antonio Palopo	12	Diciembre	2023-12-13T00:00:00	2024-11-08T09:00:00	7	Dirección del viento	9.66
24575	7	Sololá	712	San Antonio Palopó	9	San Antonio Palopo	12	Diciembre	2023-12-13T00:00:00	2024-11-08T09:00:00	1	Precipitación	0
24576	7	Sololá	712	San Antonio Palopó	9	San Antonio Palopo	12	Diciembre	2023-12-13T00:00:00	2024-11-08T09:00:00	8	Radiación solar	119
24577	7	Sololá	712	San Antonio Palopó	9	San Antonio Palopo	12	Diciembre	2023-12-13T00:00:00	2024-11-08T10:00:00	2	Temperatura media	21.6
24578	7	Sololá	712	San Antonio Palopó	9	San Antonio Palopo	12	Diciembre	2023-12-13T00:00:00	2024-11-08T10:00:00	4	Temperatura máxima	21.6
24579	7	Sololá	712	San Antonio Palopó	9	San Antonio Palopo	12	Diciembre	2023-12-13T00:00:00	2024-11-08T10:00:00	3	Temperatura mínima	20.7
24580	7	Sololá	712	San Antonio Palopó	9	San Antonio Palopo	12	Diciembre	2023-12-13T00:00:00	2024-11-08T10:00:00	5	Humedad	62
24581	7	Sololá	712	San Antonio Palopó	9	San Antonio Palopo	12	Diciembre	2023-12-13T00:00:00	2024-11-08T10:00:00	6	Velocidad del viento	11.3
24582	7	Sololá	712	San Antonio Palopó	9	San Antonio Palopo	12	Diciembre	2023-12-13T00:00:00	2024-11-08T10:00:00	7	Dirección del viento	11.27
24583	7	Sololá	712	San Antonio Palopó	9	San Antonio Palopo	12	Diciembre	2023-12-13T00:00:00	2024-11-08T10:00:00	1	Precipitación	0
24584	7	Sololá	712	San Antonio Palopó	9	San Antonio Palopo	12	Diciembre	2023-12-13T00:00:00	2024-11-08T10:00:00	8	Radiación solar	502
24585	7	Sololá	712	San Antonio Palopó	9	San Antonio Palopo	12	Diciembre	2023-12-13T00:00:00	2024-11-08T11:00:00	2	Temperatura media	22.7
24586	7	Sololá	712	San Antonio Palopó	9	San Antonio Palopo	12	Diciembre	2023-12-13T00:00:00	2024-11-08T11:00:00	4	Temperatura máxima	22.7
24587	7	Sololá	712	San Antonio Palopó	9	San Antonio Palopo	12	Diciembre	2023-12-13T00:00:00	2024-11-08T11:00:00	3	Temperatura mínima	21.4
24588	7	Sololá	712	San Antonio Palopó	9	San Antonio Palopo	12	Diciembre	2023-12-13T00:00:00	2024-11-08T11:00:00	5	Humedad	59
24589	7	Sololá	712	San Antonio Palopó	9	San Antonio Palopo	12	Diciembre	2023-12-13T00:00:00	2024-11-08T11:00:00	6	Velocidad del viento	11.3
24590	7	Sololá	712	San Antonio Palopó	9	San Antonio Palopo	12	Diciembre	2023-12-13T00:00:00	2024-11-08T11:00:00	7	Dirección del viento	11.27
24591	7	Sololá	712	San Antonio Palopó	9	San Antonio Palopo	12	Diciembre	2023-12-13T00:00:00	2024-11-08T11:00:00	1	Precipitación	0
24592	7	Sololá	712	San Antonio Palopó	9	San Antonio Palopo	12	Diciembre	2023-12-13T00:00:00	2024-11-08T11:00:00	8	Radiación solar	749
24593	7	Sololá	712	San Antonio Palopó	9	San Antonio Palopo	12	Diciembre	2023-12-13T00:00:00	2024-11-08T12:00:00	2	Temperatura media	22.9
24594	7	Sololá	712	San Antonio Palopó	9	San Antonio Palopo	12	Diciembre	2023-12-13T00:00:00	2024-11-08T12:00:00	4	Temperatura máxima	23.5
24595	7	Sololá	712	San Antonio Palopó	9	San Antonio Palopo	12	Diciembre	2023-12-13T00:00:00	2024-11-08T12:00:00	3	Temperatura mínima	22.5
24596	7	Sololá	712	San Antonio Palopó	9	San Antonio Palopo	12	Diciembre	2023-12-13T00:00:00	2024-11-08T12:00:00	5	Humedad	58
24597	7	Sololá	712	San Antonio Palopó	9	San Antonio Palopo	12	Diciembre	2023-12-13T00:00:00	2024-11-08T12:00:00	6	Velocidad del viento	9.7
24598	7	Sololá	712	San Antonio Palopó	9	San Antonio Palopo	12	Diciembre	2023-12-13T00:00:00	2024-11-08T12:00:00	7	Dirección del viento	9.66
24599	7	Sololá	712	San Antonio Palopó	9	San Antonio Palopo	12	Diciembre	2023-12-13T00:00:00	2024-11-08T12:00:00	1	Precipitación	0
24600	7	Sololá	712	San Antonio Palopó	9	San Antonio Palopo	12	Diciembre	2023-12-13T00:00:00	2024-11-08T12:00:00	8	Radiación solar	736
24601	7	Sololá	712	San Antonio Palopó	9	San Antonio Palopo	12	Diciembre	2023-12-13T00:00:00	2024-11-08T13:00:00	2	Temperatura media	22.6
24602	7	Sololá	712	San Antonio Palopó	9	San Antonio Palopo	12	Diciembre	2023-12-13T00:00:00	2024-11-08T13:00:00	4	Temperatura máxima	23.7
24603	7	Sololá	712	San Antonio Palopó	9	San Antonio Palopo	12	Diciembre	2023-12-13T00:00:00	2024-11-08T13:00:00	3	Temperatura mínima	22.5
24604	7	Sololá	712	San Antonio Palopó	9	San Antonio Palopo	12	Diciembre	2023-12-13T00:00:00	2024-11-08T13:00:00	5	Humedad	59
24605	7	Sololá	712	San Antonio Palopó	9	San Antonio Palopo	12	Diciembre	2023-12-13T00:00:00	2024-11-08T13:00:00	6	Velocidad del viento	14.5
24606	7	Sololá	712	San Antonio Palopó	9	San Antonio Palopo	12	Diciembre	2023-12-13T00:00:00	2024-11-08T13:00:00	7	Dirección del viento	14.48
24607	7	Sololá	712	San Antonio Palopó	9	San Antonio Palopo	12	Diciembre	2023-12-13T00:00:00	2024-11-08T13:00:00	1	Precipitación	0
24608	7	Sololá	712	San Antonio Palopó	9	San Antonio Palopo	12	Diciembre	2023-12-13T00:00:00	2024-11-08T13:00:00	8	Radiación solar	757
24609	7	Sololá	712	San Antonio Palopó	9	San Antonio Palopo	12	Diciembre	2023-12-13T00:00:00	2024-11-08T14:00:00	2	Temperatura media	23.8
24610	7	Sololá	712	San Antonio Palopó	9	San Antonio Palopo	12	Diciembre	2023-12-13T00:00:00	2024-11-08T14:00:00	4	Temperatura máxima	24.1
24611	7	Sololá	712	San Antonio Palopó	9	San Antonio Palopo	12	Diciembre	2023-12-13T00:00:00	2024-11-08T14:00:00	3	Temperatura mínima	22.2
24612	7	Sololá	712	San Antonio Palopó	9	San Antonio Palopo	12	Diciembre	2023-12-13T00:00:00	2024-11-08T14:00:00	5	Humedad	55
24613	7	Sololá	712	San Antonio Palopó	9	San Antonio Palopo	12	Diciembre	2023-12-13T00:00:00	2024-11-08T14:00:00	6	Velocidad del viento	14.5
24614	7	Sololá	712	San Antonio Palopó	9	San Antonio Palopo	12	Diciembre	2023-12-13T00:00:00	2024-11-08T14:00:00	7	Dirección del viento	14.48
24615	7	Sololá	712	San Antonio Palopó	9	San Antonio Palopo	12	Diciembre	2023-12-13T00:00:00	2024-11-08T14:00:00	1	Precipitación	0
24616	7	Sololá	712	San Antonio Palopó	9	San Antonio Palopo	12	Diciembre	2023-12-13T00:00:00	2024-11-08T14:00:00	8	Radiación solar	676
24617	7	Sololá	712	San Antonio Palopó	9	San Antonio Palopo	12	Diciembre	2023-12-13T00:00:00	2024-11-08T15:00:00	2	Temperatura media	23.3
24618	7	Sololá	712	San Antonio Palopó	9	San Antonio Palopo	12	Diciembre	2023-12-13T00:00:00	2024-11-08T15:00:00	4	Temperatura máxima	24.3
24619	7	Sololá	712	San Antonio Palopó	9	San Antonio Palopo	12	Diciembre	2023-12-13T00:00:00	2024-11-08T15:00:00	3	Temperatura mínima	22.3
24620	7	Sololá	712	San Antonio Palopó	9	San Antonio Palopo	12	Diciembre	2023-12-13T00:00:00	2024-11-08T15:00:00	5	Humedad	55
24621	7	Sololá	712	San Antonio Palopó	9	San Antonio Palopo	12	Diciembre	2023-12-13T00:00:00	2024-11-08T15:00:00	6	Velocidad del viento	16.1
24622	7	Sololá	712	San Antonio Palopó	9	San Antonio Palopo	12	Diciembre	2023-12-13T00:00:00	2024-11-08T15:00:00	7	Dirección del viento	16.09
24623	7	Sololá	712	San Antonio Palopó	9	San Antonio Palopo	12	Diciembre	2023-12-13T00:00:00	2024-11-08T15:00:00	1	Precipitación	0
24624	7	Sololá	712	San Antonio Palopó	9	San Antonio Palopo	12	Diciembre	2023-12-13T00:00:00	2024-11-08T15:00:00	8	Radiación solar	362
24625	7	Sololá	712	San Antonio Palopó	9	San Antonio Palopo	12	Diciembre	2023-12-13T00:00:00	2024-11-08T16:00:00	2	Temperatura media	22.7
24626	7	Sololá	712	San Antonio Palopó	9	San Antonio Palopo	12	Diciembre	2023-12-13T00:00:00	2024-11-08T16:00:00	4	Temperatura máxima	23.9
24627	7	Sololá	712	San Antonio Palopó	9	San Antonio Palopo	12	Diciembre	2023-12-13T00:00:00	2024-11-08T16:00:00	3	Temperatura mínima	22.6
24628	7	Sololá	712	San Antonio Palopó	9	San Antonio Palopo	12	Diciembre	2023-12-13T00:00:00	2024-11-08T16:00:00	5	Humedad	57
24629	7	Sololá	712	San Antonio Palopó	9	San Antonio Palopo	12	Diciembre	2023-12-13T00:00:00	2024-11-08T16:00:00	6	Velocidad del viento	12.9
24630	7	Sololá	712	San Antonio Palopó	9	San Antonio Palopo	12	Diciembre	2023-12-13T00:00:00	2024-11-08T16:00:00	7	Dirección del viento	12.87
24631	7	Sololá	712	San Antonio Palopó	9	San Antonio Palopo	12	Diciembre	2023-12-13T00:00:00	2024-11-08T16:00:00	1	Precipitación	0
24632	7	Sololá	712	San Antonio Palopó	9	San Antonio Palopo	12	Diciembre	2023-12-13T00:00:00	2024-11-08T16:00:00	8	Radiación solar	332
24633	7	Sololá	712	San Antonio Palopó	9	San Antonio Palopo	12	Diciembre	2023-12-13T00:00:00	2024-11-08T17:00:00	2	Temperatura media	22.6
24634	7	Sololá	712	San Antonio Palopó	9	San Antonio Palopo	12	Diciembre	2023-12-13T00:00:00	2024-11-08T17:00:00	4	Temperatura máxima	23.4
24635	7	Sololá	712	San Antonio Palopó	9	San Antonio Palopo	12	Diciembre	2023-12-13T00:00:00	2024-11-08T17:00:00	3	Temperatura mínima	22.4
24636	7	Sololá	712	San Antonio Palopó	9	San Antonio Palopo	12	Diciembre	2023-12-13T00:00:00	2024-11-08T17:00:00	5	Humedad	59
24637	7	Sololá	712	San Antonio Palopó	9	San Antonio Palopo	12	Diciembre	2023-12-13T00:00:00	2024-11-08T17:00:00	6	Velocidad del viento	9.7
24638	7	Sololá	712	San Antonio Palopó	9	San Antonio Palopo	12	Diciembre	2023-12-13T00:00:00	2024-11-08T17:00:00	7	Dirección del viento	9.66
24639	7	Sololá	712	San Antonio Palopó	9	San Antonio Palopo	12	Diciembre	2023-12-13T00:00:00	2024-11-08T17:00:00	1	Precipitación	0
24640	7	Sololá	712	San Antonio Palopó	9	San Antonio Palopo	12	Diciembre	2023-12-13T00:00:00	2024-11-08T17:00:00	8	Radiación solar	141
24641	7	Sololá	712	San Antonio Palopó	9	San Antonio Palopo	12	Diciembre	2023-12-13T00:00:00	2024-11-08T18:00:00	2	Temperatura media	20.7
24642	7	Sololá	712	San Antonio Palopó	9	San Antonio Palopo	12	Diciembre	2023-12-13T00:00:00	2024-11-08T18:00:00	4	Temperatura máxima	22.5
24643	7	Sololá	712	San Antonio Palopó	9	San Antonio Palopo	12	Diciembre	2023-12-13T00:00:00	2024-11-08T18:00:00	3	Temperatura mínima	20.7
24644	7	Sololá	712	San Antonio Palopó	9	San Antonio Palopo	12	Diciembre	2023-12-13T00:00:00	2024-11-08T18:00:00	5	Humedad	62
24645	7	Sololá	712	San Antonio Palopó	9	San Antonio Palopo	12	Diciembre	2023-12-13T00:00:00	2024-11-08T18:00:00	6	Velocidad del viento	8
24646	7	Sololá	712	San Antonio Palopó	9	San Antonio Palopo	12	Diciembre	2023-12-13T00:00:00	2024-11-08T18:00:00	7	Dirección del viento	8.05
24647	7	Sololá	712	San Antonio Palopó	9	San Antonio Palopo	12	Diciembre	2023-12-13T00:00:00	2024-11-08T18:00:00	1	Precipitación	0
24648	7	Sololá	712	San Antonio Palopó	9	San Antonio Palopo	12	Diciembre	2023-12-13T00:00:00	2024-11-08T18:00:00	8	Radiación solar	12
24649	7	Sololá	712	San Antonio Palopó	9	San Antonio Palopo	12	Diciembre	2023-12-13T00:00:00	2024-11-08T19:00:00	2	Temperatura media	20.3
24650	7	Sololá	712	San Antonio Palopó	9	San Antonio Palopo	12	Diciembre	2023-12-13T00:00:00	2024-11-08T19:00:00	4	Temperatura máxima	20.7
24651	7	Sololá	712	San Antonio Palopó	9	San Antonio Palopo	12	Diciembre	2023-12-13T00:00:00	2024-11-08T19:00:00	3	Temperatura mínima	20.3
24652	7	Sololá	712	San Antonio Palopó	9	San Antonio Palopo	12	Diciembre	2023-12-13T00:00:00	2024-11-08T19:00:00	5	Humedad	63
24653	7	Sololá	712	San Antonio Palopó	9	San Antonio Palopo	12	Diciembre	2023-12-13T00:00:00	2024-11-08T19:00:00	6	Velocidad del viento	6.4
24654	7	Sololá	712	San Antonio Palopó	9	San Antonio Palopo	12	Diciembre	2023-12-13T00:00:00	2024-11-08T19:00:00	7	Dirección del viento	6.44
24655	7	Sololá	712	San Antonio Palopó	9	San Antonio Palopo	12	Diciembre	2023-12-13T00:00:00	2024-11-08T19:00:00	1	Precipitación	0
24656	7	Sololá	712	San Antonio Palopó	9	San Antonio Palopo	12	Diciembre	2023-12-13T00:00:00	2024-11-08T19:00:00	8	Radiación solar	0
24657	7	Sololá	712	San Antonio Palopó	9	San Antonio Palopo	12	Diciembre	2023-12-13T00:00:00	2024-11-08T20:00:00	2	Temperatura media	20.6
24658	7	Sololá	712	San Antonio Palopó	9	San Antonio Palopo	12	Diciembre	2023-12-13T00:00:00	2024-11-08T20:00:00	4	Temperatura máxima	20.7
24659	7	Sololá	712	San Antonio Palopó	9	San Antonio Palopo	12	Diciembre	2023-12-13T00:00:00	2024-11-08T20:00:00	3	Temperatura mínima	20.3
24660	7	Sololá	712	San Antonio Palopó	9	San Antonio Palopo	12	Diciembre	2023-12-13T00:00:00	2024-11-08T20:00:00	5	Humedad	63
24661	7	Sololá	712	San Antonio Palopó	9	San Antonio Palopo	12	Diciembre	2023-12-13T00:00:00	2024-11-08T20:00:00	6	Velocidad del viento	6.4
24662	7	Sololá	712	San Antonio Palopó	9	San Antonio Palopo	12	Diciembre	2023-12-13T00:00:00	2024-11-08T20:00:00	7	Dirección del viento	6.44
24663	7	Sololá	712	San Antonio Palopó	9	San Antonio Palopo	12	Diciembre	2023-12-13T00:00:00	2024-11-08T20:00:00	1	Precipitación	0
24664	7	Sololá	712	San Antonio Palopó	9	San Antonio Palopo	12	Diciembre	2023-12-13T00:00:00	2024-11-08T20:00:00	8	Radiación solar	0
24665	7	Sololá	712	San Antonio Palopó	9	San Antonio Palopo	12	Diciembre	2023-12-13T00:00:00	2024-11-08T21:00:00	2	Temperatura media	20.6
24666	7	Sololá	712	San Antonio Palopó	9	San Antonio Palopo	12	Diciembre	2023-12-13T00:00:00	2024-11-08T21:00:00	4	Temperatura máxima	20.7
24667	7	Sololá	712	San Antonio Palopó	9	San Antonio Palopo	12	Diciembre	2023-12-13T00:00:00	2024-11-08T21:00:00	3	Temperatura mínima	20.3
24668	7	Sololá	712	San Antonio Palopó	9	San Antonio Palopo	12	Diciembre	2023-12-13T00:00:00	2024-11-08T21:00:00	5	Humedad	66
24669	7	Sololá	712	San Antonio Palopó	9	San Antonio Palopo	12	Diciembre	2023-12-13T00:00:00	2024-11-08T21:00:00	6	Velocidad del viento	8
24670	7	Sololá	712	San Antonio Palopó	9	San Antonio Palopo	12	Diciembre	2023-12-13T00:00:00	2024-11-08T21:00:00	7	Dirección del viento	8.05
24671	7	Sololá	712	San Antonio Palopó	9	San Antonio Palopo	12	Diciembre	2023-12-13T00:00:00	2024-11-08T21:00:00	1	Precipitación	0
24672	7	Sololá	712	San Antonio Palopó	9	San Antonio Palopo	12	Diciembre	2023-12-13T00:00:00	2024-11-08T21:00:00	8	Radiación solar	0
24673	7	Sololá	712	San Antonio Palopó	9	San Antonio Palopo	12	Diciembre	2023-12-13T00:00:00	2024-11-08T22:00:00	2	Temperatura media	20.7
24674	7	Sololá	712	San Antonio Palopó	9	San Antonio Palopo	12	Diciembre	2023-12-13T00:00:00	2024-11-08T22:00:00	4	Temperatura máxima	20.7
24675	7	Sololá	712	San Antonio Palopó	9	San Antonio Palopo	12	Diciembre	2023-12-13T00:00:00	2024-11-08T22:00:00	3	Temperatura mínima	20.4
24676	7	Sololá	712	San Antonio Palopó	9	San Antonio Palopo	12	Diciembre	2023-12-13T00:00:00	2024-11-08T22:00:00	5	Humedad	64
24677	7	Sololá	712	San Antonio Palopó	9	San Antonio Palopo	12	Diciembre	2023-12-13T00:00:00	2024-11-08T22:00:00	6	Velocidad del viento	8
24678	7	Sololá	712	San Antonio Palopó	9	San Antonio Palopo	12	Diciembre	2023-12-13T00:00:00	2024-11-08T22:00:00	7	Dirección del viento	8.05
24679	7	Sololá	712	San Antonio Palopó	9	San Antonio Palopo	12	Diciembre	2023-12-13T00:00:00	2024-11-08T22:00:00	1	Precipitación	0
24680	7	Sololá	712	San Antonio Palopó	9	San Antonio Palopo	12	Diciembre	2023-12-13T00:00:00	2024-11-08T22:00:00	8	Radiación solar	0
24681	7	Sololá	712	San Antonio Palopó	9	San Antonio Palopo	12	Diciembre	2023-12-13T00:00:00	2024-11-08T23:00:00	2	Temperatura media	20
24682	7	Sololá	712	San Antonio Palopó	9	San Antonio Palopo	12	Diciembre	2023-12-13T00:00:00	2024-11-08T23:00:00	4	Temperatura máxima	20.7
24683	7	Sololá	712	San Antonio Palopó	9	San Antonio Palopo	12	Diciembre	2023-12-13T00:00:00	2024-11-08T23:00:00	3	Temperatura mínima	20
24684	7	Sololá	712	San Antonio Palopó	9	San Antonio Palopo	12	Diciembre	2023-12-13T00:00:00	2024-11-08T23:00:00	5	Humedad	66
24685	7	Sololá	712	San Antonio Palopó	9	San Antonio Palopo	12	Diciembre	2023-12-13T00:00:00	2024-11-08T23:00:00	6	Velocidad del viento	4.8
24686	7	Sololá	712	San Antonio Palopó	9	San Antonio Palopo	12	Diciembre	2023-12-13T00:00:00	2024-11-08T23:00:00	7	Dirección del viento	4.83
24687	7	Sololá	712	San Antonio Palopó	9	San Antonio Palopo	12	Diciembre	2023-12-13T00:00:00	2024-11-08T23:00:00	1	Precipitación	0
24688	7	Sololá	712	San Antonio Palopó	9	San Antonio Palopo	12	Diciembre	2023-12-13T00:00:00	2024-11-08T23:00:00	8	Radiación solar	0
24689	7	Sololá	712	San Antonio Palopó	9	San Antonio Palopo	12	Diciembre	2023-12-14T00:00:00	2024-11-08T00:00:00	2	Temperatura media	19.6
24690	7	Sololá	712	San Antonio Palopó	9	San Antonio Palopo	12	Diciembre	2023-12-14T00:00:00	2024-11-08T00:00:00	4	Temperatura máxima	20.1
24691	7	Sololá	712	San Antonio Palopó	9	San Antonio Palopo	12	Diciembre	2023-12-14T00:00:00	2024-11-08T00:00:00	3	Temperatura mínima	18.9
24692	7	Sololá	712	San Antonio Palopó	9	San Antonio Palopo	12	Diciembre	2023-12-14T00:00:00	2024-11-08T00:00:00	5	Humedad	67
24693	7	Sololá	712	San Antonio Palopó	9	San Antonio Palopo	12	Diciembre	2023-12-14T00:00:00	2024-11-08T00:00:00	6	Velocidad del viento	4.8
24694	7	Sololá	712	San Antonio Palopó	9	San Antonio Palopo	12	Diciembre	2023-12-14T00:00:00	2024-11-08T00:00:00	7	Dirección del viento	4.83
24695	7	Sololá	712	San Antonio Palopó	9	San Antonio Palopo	12	Diciembre	2023-12-14T00:00:00	2024-11-08T00:00:00	1	Precipitación	0
24696	7	Sololá	712	San Antonio Palopó	9	San Antonio Palopo	12	Diciembre	2023-12-14T00:00:00	2024-11-08T00:00:00	8	Radiación solar	0
24697	7	Sololá	712	San Antonio Palopó	9	San Antonio Palopo	12	Diciembre	2023-12-14T00:00:00	2024-11-08T01:00:00	2	Temperatura media	20.2
24698	7	Sololá	712	San Antonio Palopó	9	San Antonio Palopo	12	Diciembre	2023-12-14T00:00:00	2024-11-08T01:00:00	4	Temperatura máxima	20.2
24699	7	Sololá	712	San Antonio Palopó	9	San Antonio Palopo	12	Diciembre	2023-12-14T00:00:00	2024-11-08T01:00:00	3	Temperatura mínima	19.1
24700	7	Sololá	712	San Antonio Palopó	9	San Antonio Palopo	12	Diciembre	2023-12-14T00:00:00	2024-11-08T01:00:00	5	Humedad	66
24701	7	Sololá	712	San Antonio Palopó	9	San Antonio Palopo	12	Diciembre	2023-12-14T00:00:00	2024-11-08T01:00:00	6	Velocidad del viento	11.3
24702	7	Sololá	712	San Antonio Palopó	9	San Antonio Palopo	12	Diciembre	2023-12-14T00:00:00	2024-11-08T01:00:00	7	Dirección del viento	11.27
24703	7	Sololá	712	San Antonio Palopó	9	San Antonio Palopo	12	Diciembre	2023-12-14T00:00:00	2024-11-08T01:00:00	1	Precipitación	0
24704	7	Sololá	712	San Antonio Palopó	9	San Antonio Palopo	12	Diciembre	2023-12-14T00:00:00	2024-11-08T01:00:00	8	Radiación solar	0
24705	7	Sololá	712	San Antonio Palopó	9	San Antonio Palopo	12	Diciembre	2023-12-14T00:00:00	2024-11-08T02:00:00	2	Temperatura media	20.1
24706	7	Sololá	712	San Antonio Palopó	9	San Antonio Palopo	12	Diciembre	2023-12-14T00:00:00	2024-11-08T02:00:00	4	Temperatura máxima	20.2
24707	7	Sololá	712	San Antonio Palopó	9	San Antonio Palopo	12	Diciembre	2023-12-14T00:00:00	2024-11-08T02:00:00	3	Temperatura mínima	19.8
24708	7	Sololá	712	San Antonio Palopó	9	San Antonio Palopo	12	Diciembre	2023-12-14T00:00:00	2024-11-08T02:00:00	5	Humedad	66
24709	7	Sololá	712	San Antonio Palopó	9	San Antonio Palopo	12	Diciembre	2023-12-14T00:00:00	2024-11-08T02:00:00	6	Velocidad del viento	14.5
24710	7	Sololá	712	San Antonio Palopó	9	San Antonio Palopo	12	Diciembre	2023-12-14T00:00:00	2024-11-08T02:00:00	7	Dirección del viento	14.48
24711	7	Sololá	712	San Antonio Palopó	9	San Antonio Palopo	12	Diciembre	2023-12-14T00:00:00	2024-11-08T02:00:00	1	Precipitación	0
24712	7	Sololá	712	San Antonio Palopó	9	San Antonio Palopo	12	Diciembre	2023-12-14T00:00:00	2024-11-08T02:00:00	8	Radiación solar	0
24713	7	Sololá	712	San Antonio Palopó	9	San Antonio Palopo	12	Diciembre	2023-12-14T00:00:00	2024-11-08T03:00:00	2	Temperatura media	20.1
24714	7	Sololá	712	San Antonio Palopó	9	San Antonio Palopo	12	Diciembre	2023-12-14T00:00:00	2024-11-08T03:00:00	4	Temperatura máxima	20.2
24715	7	Sololá	712	San Antonio Palopó	9	San Antonio Palopo	12	Diciembre	2023-12-14T00:00:00	2024-11-08T03:00:00	3	Temperatura mínima	20
24716	7	Sololá	712	San Antonio Palopó	9	San Antonio Palopo	12	Diciembre	2023-12-14T00:00:00	2024-11-08T03:00:00	5	Humedad	66
24717	7	Sololá	712	San Antonio Palopó	9	San Antonio Palopo	12	Diciembre	2023-12-14T00:00:00	2024-11-08T03:00:00	6	Velocidad del viento	11.3
24718	7	Sololá	712	San Antonio Palopó	9	San Antonio Palopo	12	Diciembre	2023-12-14T00:00:00	2024-11-08T03:00:00	7	Dirección del viento	11.27
24719	7	Sololá	712	San Antonio Palopó	9	San Antonio Palopo	12	Diciembre	2023-12-14T00:00:00	2024-11-08T03:00:00	1	Precipitación	0
24720	7	Sololá	712	San Antonio Palopó	9	San Antonio Palopo	12	Diciembre	2023-12-14T00:00:00	2024-11-08T03:00:00	8	Radiación solar	0
24721	7	Sololá	712	San Antonio Palopó	9	San Antonio Palopo	12	Diciembre	2023-12-14T00:00:00	2024-11-08T04:00:00	2	Temperatura media	20.1
24722	7	Sololá	712	San Antonio Palopó	9	San Antonio Palopo	12	Diciembre	2023-12-14T00:00:00	2024-11-08T04:00:00	4	Temperatura máxima	20.2
24723	7	Sololá	712	San Antonio Palopó	9	San Antonio Palopo	12	Diciembre	2023-12-14T00:00:00	2024-11-08T04:00:00	3	Temperatura mínima	19.9
24724	7	Sololá	712	San Antonio Palopó	9	San Antonio Palopo	12	Diciembre	2023-12-14T00:00:00	2024-11-08T04:00:00	5	Humedad	65
24725	7	Sololá	712	San Antonio Palopó	9	San Antonio Palopo	12	Diciembre	2023-12-14T00:00:00	2024-11-08T04:00:00	6	Velocidad del viento	11.3
24726	7	Sololá	712	San Antonio Palopó	9	San Antonio Palopo	12	Diciembre	2023-12-14T00:00:00	2024-11-08T04:00:00	7	Dirección del viento	11.27
24727	7	Sololá	712	San Antonio Palopó	9	San Antonio Palopo	12	Diciembre	2023-12-14T00:00:00	2024-11-08T04:00:00	1	Precipitación	0
24728	7	Sololá	712	San Antonio Palopó	9	San Antonio Palopo	12	Diciembre	2023-12-14T00:00:00	2024-11-08T04:00:00	8	Radiación solar	0
24729	7	Sololá	712	San Antonio Palopó	9	San Antonio Palopo	12	Diciembre	2023-12-14T00:00:00	2024-11-08T05:00:00	2	Temperatura media	20
24730	7	Sololá	712	San Antonio Palopó	9	San Antonio Palopo	12	Diciembre	2023-12-14T00:00:00	2024-11-08T05:00:00	4	Temperatura máxima	20.2
24731	7	Sololá	712	San Antonio Palopó	9	San Antonio Palopo	12	Diciembre	2023-12-14T00:00:00	2024-11-08T05:00:00	3	Temperatura mínima	19.9
24732	7	Sololá	712	San Antonio Palopó	9	San Antonio Palopo	12	Diciembre	2023-12-14T00:00:00	2024-11-08T05:00:00	5	Humedad	65
24733	7	Sololá	712	San Antonio Palopó	9	San Antonio Palopo	12	Diciembre	2023-12-14T00:00:00	2024-11-08T05:00:00	6	Velocidad del viento	9.7
24734	7	Sololá	712	San Antonio Palopó	9	San Antonio Palopo	12	Diciembre	2023-12-14T00:00:00	2024-11-08T05:00:00	7	Dirección del viento	9.66
24735	7	Sololá	712	San Antonio Palopó	9	San Antonio Palopo	12	Diciembre	2023-12-14T00:00:00	2024-11-08T05:00:00	1	Precipitación	0
24736	7	Sololá	712	San Antonio Palopó	9	San Antonio Palopo	12	Diciembre	2023-12-14T00:00:00	2024-11-08T05:00:00	8	Radiación solar	0
24737	7	Sololá	712	San Antonio Palopó	9	San Antonio Palopo	12	Diciembre	2023-12-14T00:00:00	2024-11-08T06:00:00	2	Temperatura media	19.9
24738	7	Sololá	712	San Antonio Palopó	9	San Antonio Palopo	12	Diciembre	2023-12-14T00:00:00	2024-11-08T06:00:00	4	Temperatura máxima	20.2
24739	7	Sololá	712	San Antonio Palopó	9	San Antonio Palopo	12	Diciembre	2023-12-14T00:00:00	2024-11-08T06:00:00	3	Temperatura mínima	19.4
24740	7	Sololá	712	San Antonio Palopó	9	San Antonio Palopo	12	Diciembre	2023-12-14T00:00:00	2024-11-08T06:00:00	5	Humedad	64
24741	7	Sololá	712	San Antonio Palopó	9	San Antonio Palopo	12	Diciembre	2023-12-14T00:00:00	2024-11-08T06:00:00	6	Velocidad del viento	9.7
24742	7	Sololá	712	San Antonio Palopó	9	San Antonio Palopo	12	Diciembre	2023-12-14T00:00:00	2024-11-08T06:00:00	7	Dirección del viento	9.66
24743	7	Sololá	712	San Antonio Palopó	9	San Antonio Palopo	12	Diciembre	2023-12-14T00:00:00	2024-11-08T06:00:00	1	Precipitación	0
24744	7	Sololá	712	San Antonio Palopó	9	San Antonio Palopo	12	Diciembre	2023-12-14T00:00:00	2024-11-08T06:00:00	8	Radiación solar	0
24745	7	Sololá	712	San Antonio Palopó	9	San Antonio Palopo	12	Diciembre	2023-12-14T00:00:00	2024-11-08T07:00:00	2	Temperatura media	20.1
24746	7	Sololá	712	San Antonio Palopó	9	San Antonio Palopo	12	Diciembre	2023-12-14T00:00:00	2024-11-08T07:00:00	4	Temperatura máxima	20.1
24747	7	Sololá	712	San Antonio Palopó	9	San Antonio Palopo	12	Diciembre	2023-12-14T00:00:00	2024-11-08T07:00:00	3	Temperatura mínima	19.4
24748	7	Sololá	712	San Antonio Palopó	9	San Antonio Palopo	12	Diciembre	2023-12-14T00:00:00	2024-11-08T07:00:00	5	Humedad	64
24749	7	Sololá	712	San Antonio Palopó	9	San Antonio Palopo	12	Diciembre	2023-12-14T00:00:00	2024-11-08T07:00:00	6	Velocidad del viento	9.7
24750	7	Sololá	712	San Antonio Palopó	9	San Antonio Palopo	12	Diciembre	2023-12-14T00:00:00	2024-11-08T07:00:00	7	Dirección del viento	9.66
24751	7	Sololá	712	San Antonio Palopó	9	San Antonio Palopo	12	Diciembre	2023-12-14T00:00:00	2024-11-08T07:00:00	1	Precipitación	0
24752	7	Sololá	712	San Antonio Palopó	9	San Antonio Palopo	12	Diciembre	2023-12-14T00:00:00	2024-11-08T07:00:00	8	Radiación solar	5
24753	7	Sololá	712	San Antonio Palopó	9	San Antonio Palopo	12	Diciembre	2023-12-14T00:00:00	2024-11-08T08:00:00	2	Temperatura media	20.9
24754	7	Sololá	712	San Antonio Palopó	9	San Antonio Palopo	12	Diciembre	2023-12-14T00:00:00	2024-11-08T08:00:00	4	Temperatura máxima	20.9
24755	7	Sololá	712	San Antonio Palopó	9	San Antonio Palopo	12	Diciembre	2023-12-14T00:00:00	2024-11-08T08:00:00	3	Temperatura mínima	20
24756	7	Sololá	712	San Antonio Palopó	9	San Antonio Palopo	12	Diciembre	2023-12-14T00:00:00	2024-11-08T08:00:00	5	Humedad	63
24757	7	Sololá	712	San Antonio Palopó	9	San Antonio Palopo	12	Diciembre	2023-12-14T00:00:00	2024-11-08T08:00:00	6	Velocidad del viento	11.3
24758	7	Sololá	712	San Antonio Palopó	9	San Antonio Palopo	12	Diciembre	2023-12-14T00:00:00	2024-11-08T08:00:00	7	Dirección del viento	11.27
24759	7	Sololá	712	San Antonio Palopó	9	San Antonio Palopo	12	Diciembre	2023-12-14T00:00:00	2024-11-08T08:00:00	1	Precipitación	0
24760	7	Sololá	712	San Antonio Palopó	9	San Antonio Palopo	12	Diciembre	2023-12-14T00:00:00	2024-11-08T08:00:00	8	Radiación solar	17
24761	7	Sololá	712	San Antonio Palopó	9	San Antonio Palopo	12	Diciembre	2023-12-14T00:00:00	2024-11-08T09:00:00	2	Temperatura media	22.6
24762	7	Sololá	712	San Antonio Palopó	9	San Antonio Palopo	12	Diciembre	2023-12-14T00:00:00	2024-11-08T09:00:00	4	Temperatura máxima	22.6
24763	7	Sololá	712	San Antonio Palopó	9	San Antonio Palopo	12	Diciembre	2023-12-14T00:00:00	2024-11-08T09:00:00	3	Temperatura mínima	20.8
24764	7	Sololá	712	San Antonio Palopó	9	San Antonio Palopo	12	Diciembre	2023-12-14T00:00:00	2024-11-08T09:00:00	5	Humedad	58
24765	7	Sololá	712	San Antonio Palopó	9	San Antonio Palopo	12	Diciembre	2023-12-14T00:00:00	2024-11-08T09:00:00	6	Velocidad del viento	9.7
24766	7	Sololá	712	San Antonio Palopó	9	San Antonio Palopo	12	Diciembre	2023-12-14T00:00:00	2024-11-08T09:00:00	7	Dirección del viento	9.66
24767	7	Sololá	712	San Antonio Palopó	9	San Antonio Palopo	12	Diciembre	2023-12-14T00:00:00	2024-11-08T09:00:00	1	Precipitación	0
24768	7	Sololá	712	San Antonio Palopó	9	San Antonio Palopo	12	Diciembre	2023-12-14T00:00:00	2024-11-08T09:00:00	8	Radiación solar	142
24769	7	Sololá	712	San Antonio Palopó	9	San Antonio Palopo	12	Diciembre	2023-12-14T00:00:00	2024-11-08T10:00:00	2	Temperatura media	24.3
24770	7	Sololá	712	San Antonio Palopó	9	San Antonio Palopo	12	Diciembre	2023-12-14T00:00:00	2024-11-08T10:00:00	4	Temperatura máxima	24.3
24771	7	Sololá	712	San Antonio Palopó	9	San Antonio Palopo	12	Diciembre	2023-12-14T00:00:00	2024-11-08T10:00:00	3	Temperatura mínima	22.5
24772	7	Sololá	712	San Antonio Palopó	9	San Antonio Palopo	12	Diciembre	2023-12-14T00:00:00	2024-11-08T10:00:00	5	Humedad	54
24773	7	Sololá	712	San Antonio Palopó	9	San Antonio Palopo	12	Diciembre	2023-12-14T00:00:00	2024-11-08T10:00:00	6	Velocidad del viento	11.3
24774	7	Sololá	712	San Antonio Palopó	9	San Antonio Palopo	12	Diciembre	2023-12-14T00:00:00	2024-11-08T10:00:00	7	Dirección del viento	11.27
24775	7	Sololá	712	San Antonio Palopó	9	San Antonio Palopo	12	Diciembre	2023-12-14T00:00:00	2024-11-08T10:00:00	1	Precipitación	0
24776	7	Sololá	712	San Antonio Palopó	9	San Antonio Palopo	12	Diciembre	2023-12-14T00:00:00	2024-11-08T10:00:00	8	Radiación solar	558
24777	7	Sololá	712	San Antonio Palopó	9	San Antonio Palopo	12	Diciembre	2023-12-14T00:00:00	2024-11-08T11:00:00	2	Temperatura media	24.4
24778	7	Sololá	712	San Antonio Palopó	9	San Antonio Palopo	12	Diciembre	2023-12-14T00:00:00	2024-11-08T11:00:00	4	Temperatura máxima	24.8
24779	7	Sololá	712	San Antonio Palopó	9	San Antonio Palopo	12	Diciembre	2023-12-14T00:00:00	2024-11-08T11:00:00	3	Temperatura mínima	23.4
24780	7	Sololá	712	San Antonio Palopó	9	San Antonio Palopo	12	Diciembre	2023-12-14T00:00:00	2024-11-08T11:00:00	5	Humedad	54
24781	7	Sololá	712	San Antonio Palopó	9	San Antonio Palopo	12	Diciembre	2023-12-14T00:00:00	2024-11-08T11:00:00	6	Velocidad del viento	9.7
24782	7	Sololá	712	San Antonio Palopó	9	San Antonio Palopo	12	Diciembre	2023-12-14T00:00:00	2024-11-08T11:00:00	7	Dirección del viento	9.66
24783	7	Sololá	712	San Antonio Palopó	9	San Antonio Palopo	12	Diciembre	2023-12-14T00:00:00	2024-11-08T11:00:00	1	Precipitación	0
24784	7	Sololá	712	San Antonio Palopó	9	San Antonio Palopo	12	Diciembre	2023-12-14T00:00:00	2024-11-08T11:00:00	8	Radiación solar	670
24785	7	Sololá	712	San Antonio Palopó	9	San Antonio Palopo	12	Diciembre	2023-12-14T00:00:00	2024-11-08T12:00:00	2	Temperatura media	25
24786	7	Sololá	712	San Antonio Palopó	9	San Antonio Palopo	12	Diciembre	2023-12-14T00:00:00	2024-11-08T12:00:00	4	Temperatura máxima	25
24787	7	Sololá	712	San Antonio Palopó	9	San Antonio Palopo	12	Diciembre	2023-12-14T00:00:00	2024-11-08T12:00:00	3	Temperatura mínima	23.9
24788	7	Sololá	712	San Antonio Palopó	9	San Antonio Palopo	12	Diciembre	2023-12-14T00:00:00	2024-11-08T12:00:00	5	Humedad	53
24789	7	Sololá	712	San Antonio Palopó	9	San Antonio Palopo	12	Diciembre	2023-12-14T00:00:00	2024-11-08T12:00:00	6	Velocidad del viento	11.3
24790	7	Sololá	712	San Antonio Palopó	9	San Antonio Palopo	12	Diciembre	2023-12-14T00:00:00	2024-11-08T12:00:00	7	Dirección del viento	11.27
24791	7	Sololá	712	San Antonio Palopó	9	San Antonio Palopo	12	Diciembre	2023-12-14T00:00:00	2024-11-08T12:00:00	1	Precipitación	0
24792	7	Sololá	712	San Antonio Palopó	9	San Antonio Palopo	12	Diciembre	2023-12-14T00:00:00	2024-11-08T12:00:00	8	Radiación solar	652
24793	7	Sololá	712	San Antonio Palopó	9	San Antonio Palopo	12	Diciembre	2023-12-14T00:00:00	2024-11-08T13:00:00	2	Temperatura media	25.8
24794	7	Sololá	712	San Antonio Palopó	9	San Antonio Palopo	12	Diciembre	2023-12-14T00:00:00	2024-11-08T13:00:00	4	Temperatura máxima	26.2
24795	7	Sololá	712	San Antonio Palopó	9	San Antonio Palopo	12	Diciembre	2023-12-14T00:00:00	2024-11-08T13:00:00	3	Temperatura mínima	24.7
24796	7	Sololá	712	San Antonio Palopó	9	San Antonio Palopo	12	Diciembre	2023-12-14T00:00:00	2024-11-08T13:00:00	5	Humedad	50
24797	7	Sololá	712	San Antonio Palopó	9	San Antonio Palopo	12	Diciembre	2023-12-14T00:00:00	2024-11-08T13:00:00	6	Velocidad del viento	9.7
24798	7	Sololá	712	San Antonio Palopó	9	San Antonio Palopo	12	Diciembre	2023-12-14T00:00:00	2024-11-08T13:00:00	7	Dirección del viento	9.66
24799	7	Sololá	712	San Antonio Palopó	9	San Antonio Palopo	12	Diciembre	2023-12-14T00:00:00	2024-11-08T13:00:00	1	Precipitación	0
24800	7	Sololá	712	San Antonio Palopó	9	San Antonio Palopo	12	Diciembre	2023-12-14T00:00:00	2024-11-08T13:00:00	8	Radiación solar	789
24801	7	Sololá	712	San Antonio Palopó	9	San Antonio Palopo	12	Diciembre	2023-12-14T00:00:00	2024-11-08T14:00:00	2	Temperatura media	25.8
24802	7	Sololá	712	San Antonio Palopó	9	San Antonio Palopo	12	Diciembre	2023-12-14T00:00:00	2024-11-08T14:00:00	4	Temperatura máxima	26.3
24803	7	Sololá	712	San Antonio Palopó	9	San Antonio Palopo	12	Diciembre	2023-12-14T00:00:00	2024-11-08T14:00:00	3	Temperatura mínima	25
24804	7	Sololá	712	San Antonio Palopó	9	San Antonio Palopo	12	Diciembre	2023-12-14T00:00:00	2024-11-08T14:00:00	5	Humedad	51
24805	7	Sololá	712	San Antonio Palopó	9	San Antonio Palopo	12	Diciembre	2023-12-14T00:00:00	2024-11-08T14:00:00	6	Velocidad del viento	9.7
24806	7	Sololá	712	San Antonio Palopó	9	San Antonio Palopo	12	Diciembre	2023-12-14T00:00:00	2024-11-08T14:00:00	7	Dirección del viento	9.66
24807	7	Sololá	712	San Antonio Palopó	9	San Antonio Palopo	12	Diciembre	2023-12-14T00:00:00	2024-11-08T14:00:00	1	Precipitación	0
24808	7	Sololá	712	San Antonio Palopó	9	San Antonio Palopo	12	Diciembre	2023-12-14T00:00:00	2024-11-08T14:00:00	8	Radiación solar	757
24809	7	Sololá	712	San Antonio Palopó	9	San Antonio Palopo	12	Diciembre	2023-12-14T00:00:00	2024-11-08T15:00:00	2	Temperatura media	25.6
24810	7	Sololá	712	San Antonio Palopó	9	San Antonio Palopo	12	Diciembre	2023-12-14T00:00:00	2024-11-08T15:00:00	4	Temperatura máxima	26.1
24811	7	Sololá	712	San Antonio Palopó	9	San Antonio Palopo	12	Diciembre	2023-12-14T00:00:00	2024-11-08T15:00:00	3	Temperatura mínima	25
24812	7	Sololá	712	San Antonio Palopó	9	San Antonio Palopo	12	Diciembre	2023-12-14T00:00:00	2024-11-08T15:00:00	5	Humedad	50
24813	7	Sololá	712	San Antonio Palopó	9	San Antonio Palopo	12	Diciembre	2023-12-14T00:00:00	2024-11-08T15:00:00	6	Velocidad del viento	11.3
24814	7	Sololá	712	San Antonio Palopó	9	San Antonio Palopo	12	Diciembre	2023-12-14T00:00:00	2024-11-08T15:00:00	7	Dirección del viento	11.27
24815	7	Sololá	712	San Antonio Palopó	9	San Antonio Palopo	12	Diciembre	2023-12-14T00:00:00	2024-11-08T15:00:00	1	Precipitación	0
24816	7	Sololá	712	San Antonio Palopó	9	San Antonio Palopo	12	Diciembre	2023-12-14T00:00:00	2024-11-08T15:00:00	8	Radiación solar	488
24817	7	Sololá	712	San Antonio Palopó	9	San Antonio Palopo	12	Diciembre	2023-12-14T00:00:00	2024-11-08T16:00:00	2	Temperatura media	24.9
24818	7	Sololá	712	San Antonio Palopó	9	San Antonio Palopo	12	Diciembre	2023-12-14T00:00:00	2024-11-08T16:00:00	4	Temperatura máxima	25.6
24819	7	Sololá	712	San Antonio Palopó	9	San Antonio Palopo	12	Diciembre	2023-12-14T00:00:00	2024-11-08T16:00:00	3	Temperatura mínima	24.7
24820	7	Sololá	712	San Antonio Palopó	9	San Antonio Palopo	12	Diciembre	2023-12-14T00:00:00	2024-11-08T16:00:00	5	Humedad	53
24821	7	Sololá	712	San Antonio Palopó	9	San Antonio Palopo	12	Diciembre	2023-12-14T00:00:00	2024-11-08T16:00:00	6	Velocidad del viento	9.7
24822	7	Sololá	712	San Antonio Palopó	9	San Antonio Palopo	12	Diciembre	2023-12-14T00:00:00	2024-11-08T16:00:00	7	Dirección del viento	9.66
24823	7	Sololá	712	San Antonio Palopó	9	San Antonio Palopo	12	Diciembre	2023-12-14T00:00:00	2024-11-08T16:00:00	1	Precipitación	0
24824	7	Sololá	712	San Antonio Palopó	9	San Antonio Palopo	12	Diciembre	2023-12-14T00:00:00	2024-11-08T16:00:00	8	Radiación solar	233
24825	7	Sololá	712	San Antonio Palopó	9	San Antonio Palopo	12	Diciembre	2023-12-14T00:00:00	2024-11-08T17:00:00	2	Temperatura media	23.4
24826	7	Sololá	712	San Antonio Palopó	9	San Antonio Palopo	12	Diciembre	2023-12-14T00:00:00	2024-11-08T17:00:00	4	Temperatura máxima	25.2
24827	7	Sololá	712	San Antonio Palopó	9	San Antonio Palopo	12	Diciembre	2023-12-14T00:00:00	2024-11-08T17:00:00	3	Temperatura mínima	23.4
24828	7	Sololá	712	San Antonio Palopó	9	San Antonio Palopo	12	Diciembre	2023-12-14T00:00:00	2024-11-08T17:00:00	5	Humedad	57
24829	7	Sololá	712	San Antonio Palopó	9	San Antonio Palopo	12	Diciembre	2023-12-14T00:00:00	2024-11-08T17:00:00	6	Velocidad del viento	14.5
24830	7	Sololá	712	San Antonio Palopó	9	San Antonio Palopo	12	Diciembre	2023-12-14T00:00:00	2024-11-08T17:00:00	7	Dirección del viento	14.48
24831	7	Sololá	712	San Antonio Palopó	9	San Antonio Palopo	12	Diciembre	2023-12-14T00:00:00	2024-11-08T17:00:00	1	Precipitación	0
24832	7	Sololá	712	San Antonio Palopó	9	San Antonio Palopo	12	Diciembre	2023-12-14T00:00:00	2024-11-08T17:00:00	8	Radiación solar	163
24833	7	Sololá	712	San Antonio Palopó	9	San Antonio Palopo	12	Diciembre	2023-12-14T00:00:00	2024-11-08T18:00:00	2	Temperatura media	21.8
24834	7	Sololá	712	San Antonio Palopó	9	San Antonio Palopo	12	Diciembre	2023-12-14T00:00:00	2024-11-08T18:00:00	4	Temperatura máxima	23.4
24835	7	Sololá	712	San Antonio Palopó	9	San Antonio Palopo	12	Diciembre	2023-12-14T00:00:00	2024-11-08T18:00:00	3	Temperatura mínima	21.8
24836	7	Sololá	712	San Antonio Palopó	9	San Antonio Palopo	12	Diciembre	2023-12-14T00:00:00	2024-11-08T18:00:00	5	Humedad	61
24837	7	Sololá	712	San Antonio Palopó	9	San Antonio Palopo	12	Diciembre	2023-12-14T00:00:00	2024-11-08T18:00:00	6	Velocidad del viento	19.3
24838	7	Sololá	712	San Antonio Palopó	9	San Antonio Palopo	12	Diciembre	2023-12-14T00:00:00	2024-11-08T18:00:00	7	Dirección del viento	19.31
24839	7	Sololá	712	San Antonio Palopó	9	San Antonio Palopo	12	Diciembre	2023-12-14T00:00:00	2024-11-08T18:00:00	1	Precipitación	0
24840	7	Sololá	712	San Antonio Palopó	9	San Antonio Palopo	12	Diciembre	2023-12-14T00:00:00	2024-11-08T18:00:00	8	Radiación solar	11
24841	7	Sololá	712	San Antonio Palopó	9	San Antonio Palopo	12	Diciembre	2023-12-14T00:00:00	2024-11-08T19:00:00	2	Temperatura media	20.9
24842	7	Sololá	712	San Antonio Palopó	9	San Antonio Palopo	12	Diciembre	2023-12-14T00:00:00	2024-11-08T19:00:00	4	Temperatura máxima	21.8
24843	7	Sololá	712	San Antonio Palopó	9	San Antonio Palopo	12	Diciembre	2023-12-14T00:00:00	2024-11-08T19:00:00	3	Temperatura mínima	20.8
24844	7	Sololá	712	San Antonio Palopó	9	San Antonio Palopo	12	Diciembre	2023-12-14T00:00:00	2024-11-08T19:00:00	5	Humedad	64
24845	7	Sololá	712	San Antonio Palopó	9	San Antonio Palopo	12	Diciembre	2023-12-14T00:00:00	2024-11-08T19:00:00	6	Velocidad del viento	17.7
24846	7	Sololá	712	San Antonio Palopó	9	San Antonio Palopo	12	Diciembre	2023-12-14T00:00:00	2024-11-08T19:00:00	7	Dirección del viento	17.7
24847	7	Sololá	712	San Antonio Palopó	9	San Antonio Palopo	12	Diciembre	2023-12-14T00:00:00	2024-11-08T19:00:00	1	Precipitación	0
24848	7	Sololá	712	San Antonio Palopó	9	San Antonio Palopo	12	Diciembre	2023-12-14T00:00:00	2024-11-08T19:00:00	8	Radiación solar	0
24849	7	Sololá	712	San Antonio Palopó	9	San Antonio Palopo	12	Diciembre	2023-12-14T00:00:00	2024-11-08T20:00:00	2	Temperatura media	19.9
24850	7	Sololá	712	San Antonio Palopó	9	San Antonio Palopo	12	Diciembre	2023-12-14T00:00:00	2024-11-08T20:00:00	4	Temperatura máxima	20.9
24851	7	Sololá	712	San Antonio Palopó	9	San Antonio Palopo	12	Diciembre	2023-12-14T00:00:00	2024-11-08T20:00:00	3	Temperatura mínima	19.9
24852	7	Sololá	712	San Antonio Palopó	9	San Antonio Palopo	12	Diciembre	2023-12-14T00:00:00	2024-11-08T20:00:00	5	Humedad	66
24853	7	Sololá	712	San Antonio Palopó	9	San Antonio Palopo	12	Diciembre	2023-12-14T00:00:00	2024-11-08T20:00:00	6	Velocidad del viento	9.7
24854	7	Sololá	712	San Antonio Palopó	9	San Antonio Palopo	12	Diciembre	2023-12-14T00:00:00	2024-11-08T20:00:00	7	Dirección del viento	9.66
24855	7	Sololá	712	San Antonio Palopó	9	San Antonio Palopo	12	Diciembre	2023-12-14T00:00:00	2024-11-08T20:00:00	1	Precipitación	0
24856	7	Sololá	712	San Antonio Palopó	9	San Antonio Palopo	12	Diciembre	2023-12-14T00:00:00	2024-11-08T20:00:00	8	Radiación solar	0
24857	7	Sololá	712	San Antonio Palopó	9	San Antonio Palopo	12	Diciembre	2023-12-14T00:00:00	2024-11-08T21:00:00	2	Temperatura media	19.4
24858	7	Sololá	712	San Antonio Palopó	9	San Antonio Palopo	12	Diciembre	2023-12-14T00:00:00	2024-11-08T21:00:00	4	Temperatura máxima	20.2
24859	7	Sololá	712	San Antonio Palopó	9	San Antonio Palopo	12	Diciembre	2023-12-14T00:00:00	2024-11-08T21:00:00	3	Temperatura mínima	19.4
24860	7	Sololá	712	San Antonio Palopó	9	San Antonio Palopo	12	Diciembre	2023-12-14T00:00:00	2024-11-08T21:00:00	5	Humedad	68
24861	7	Sololá	712	San Antonio Palopó	9	San Antonio Palopo	12	Diciembre	2023-12-14T00:00:00	2024-11-08T21:00:00	6	Velocidad del viento	8
24862	7	Sololá	712	San Antonio Palopó	9	San Antonio Palopo	12	Diciembre	2023-12-14T00:00:00	2024-11-08T21:00:00	7	Dirección del viento	8.05
24863	7	Sololá	712	San Antonio Palopó	9	San Antonio Palopo	12	Diciembre	2023-12-14T00:00:00	2024-11-08T21:00:00	1	Precipitación	0
24864	7	Sololá	712	San Antonio Palopó	9	San Antonio Palopo	12	Diciembre	2023-12-14T00:00:00	2024-11-08T21:00:00	8	Radiación solar	0
24865	7	Sololá	712	San Antonio Palopó	9	San Antonio Palopo	12	Diciembre	2023-12-14T00:00:00	2024-11-08T22:00:00	2	Temperatura media	19
24866	7	Sololá	712	San Antonio Palopó	9	San Antonio Palopo	12	Diciembre	2023-12-14T00:00:00	2024-11-08T22:00:00	4	Temperatura máxima	19.4
24867	7	Sololá	712	San Antonio Palopó	9	San Antonio Palopo	12	Diciembre	2023-12-14T00:00:00	2024-11-08T22:00:00	3	Temperatura mínima	19
24868	7	Sololá	712	San Antonio Palopó	9	San Antonio Palopo	12	Diciembre	2023-12-14T00:00:00	2024-11-08T22:00:00	5	Humedad	69
24869	7	Sololá	712	San Antonio Palopó	9	San Antonio Palopo	12	Diciembre	2023-12-14T00:00:00	2024-11-08T22:00:00	6	Velocidad del viento	9.7
24870	7	Sololá	712	San Antonio Palopó	9	San Antonio Palopo	12	Diciembre	2023-12-14T00:00:00	2024-11-08T22:00:00	7	Dirección del viento	9.66
24871	7	Sololá	712	San Antonio Palopó	9	San Antonio Palopo	12	Diciembre	2023-12-14T00:00:00	2024-11-08T22:00:00	1	Precipitación	0
24872	7	Sololá	712	San Antonio Palopó	9	San Antonio Palopo	12	Diciembre	2023-12-14T00:00:00	2024-11-08T22:00:00	8	Radiación solar	0
24873	7	Sololá	712	San Antonio Palopó	9	San Antonio Palopo	12	Diciembre	2023-12-14T00:00:00	2024-11-08T23:00:00	2	Temperatura media	18.7
24874	7	Sololá	712	San Antonio Palopó	9	San Antonio Palopo	12	Diciembre	2023-12-14T00:00:00	2024-11-08T23:00:00	4	Temperatura máxima	19
24875	7	Sololá	712	San Antonio Palopó	9	San Antonio Palopo	12	Diciembre	2023-12-14T00:00:00	2024-11-08T23:00:00	3	Temperatura mínima	18.7
24876	7	Sololá	712	San Antonio Palopó	9	San Antonio Palopo	12	Diciembre	2023-12-14T00:00:00	2024-11-08T23:00:00	5	Humedad	66
24877	7	Sololá	712	San Antonio Palopó	9	San Antonio Palopo	12	Diciembre	2023-12-14T00:00:00	2024-11-08T23:00:00	6	Velocidad del viento	12.9
24878	7	Sololá	712	San Antonio Palopó	9	San Antonio Palopo	12	Diciembre	2023-12-14T00:00:00	2024-11-08T23:00:00	7	Dirección del viento	12.87
24879	7	Sololá	712	San Antonio Palopó	9	San Antonio Palopo	12	Diciembre	2023-12-14T00:00:00	2024-11-08T23:00:00	1	Precipitación	0
24880	7	Sololá	712	San Antonio Palopó	9	San Antonio Palopo	12	Diciembre	2023-12-14T00:00:00	2024-11-08T23:00:00	8	Radiación solar	0
24881	7	Sololá	712	San Antonio Palopó	9	San Antonio Palopo	12	Diciembre	2023-12-15T00:00:00	2024-11-08T00:00:00	2	Temperatura media	18.6
24882	7	Sololá	712	San Antonio Palopó	9	San Antonio Palopo	12	Diciembre	2023-12-15T00:00:00	2024-11-08T00:00:00	4	Temperatura máxima	18.8
24883	7	Sololá	712	San Antonio Palopó	9	San Antonio Palopo	12	Diciembre	2023-12-15T00:00:00	2024-11-08T00:00:00	3	Temperatura mínima	18.5
24884	7	Sololá	712	San Antonio Palopó	9	San Antonio Palopo	12	Diciembre	2023-12-15T00:00:00	2024-11-08T00:00:00	5	Humedad	64
24885	7	Sololá	712	San Antonio Palopó	9	San Antonio Palopo	12	Diciembre	2023-12-15T00:00:00	2024-11-08T00:00:00	6	Velocidad del viento	12.9
24886	7	Sololá	712	San Antonio Palopó	9	San Antonio Palopo	12	Diciembre	2023-12-15T00:00:00	2024-11-08T00:00:00	7	Dirección del viento	12.87
24887	7	Sololá	712	San Antonio Palopó	9	San Antonio Palopo	12	Diciembre	2023-12-15T00:00:00	2024-11-08T00:00:00	1	Precipitación	0
24888	7	Sololá	712	San Antonio Palopó	9	San Antonio Palopo	12	Diciembre	2023-12-15T00:00:00	2024-11-08T00:00:00	8	Radiación solar	0
24889	7	Sololá	712	San Antonio Palopó	9	San Antonio Palopo	12	Diciembre	2023-12-15T00:00:00	2024-11-08T01:00:00	2	Temperatura media	18.8
24890	7	Sololá	712	San Antonio Palopó	9	San Antonio Palopo	12	Diciembre	2023-12-15T00:00:00	2024-11-08T01:00:00	4	Temperatura máxima	18.8
24891	7	Sololá	712	San Antonio Palopó	9	San Antonio Palopo	12	Diciembre	2023-12-15T00:00:00	2024-11-08T01:00:00	3	Temperatura mínima	18.4
24892	7	Sololá	712	San Antonio Palopó	9	San Antonio Palopo	12	Diciembre	2023-12-15T00:00:00	2024-11-08T01:00:00	5	Humedad	64
24893	7	Sololá	712	San Antonio Palopó	9	San Antonio Palopo	12	Diciembre	2023-12-15T00:00:00	2024-11-08T01:00:00	6	Velocidad del viento	12.9
24894	7	Sololá	712	San Antonio Palopó	9	San Antonio Palopo	12	Diciembre	2023-12-15T00:00:00	2024-11-08T01:00:00	7	Dirección del viento	12.87
24895	7	Sololá	712	San Antonio Palopó	9	San Antonio Palopo	12	Diciembre	2023-12-15T00:00:00	2024-11-08T01:00:00	1	Precipitación	0
24896	7	Sololá	712	San Antonio Palopó	9	San Antonio Palopo	12	Diciembre	2023-12-15T00:00:00	2024-11-08T01:00:00	8	Radiación solar	0
24897	7	Sololá	712	San Antonio Palopó	9	San Antonio Palopo	12	Diciembre	2023-12-15T00:00:00	2024-11-08T02:00:00	2	Temperatura media	18.6
24898	7	Sololá	712	San Antonio Palopó	9	San Antonio Palopo	12	Diciembre	2023-12-15T00:00:00	2024-11-08T02:00:00	4	Temperatura máxima	18.9
24899	7	Sololá	712	San Antonio Palopó	9	San Antonio Palopo	12	Diciembre	2023-12-15T00:00:00	2024-11-08T02:00:00	3	Temperatura mínima	18.3
24900	7	Sololá	712	San Antonio Palopó	9	San Antonio Palopo	12	Diciembre	2023-12-15T00:00:00	2024-11-08T02:00:00	5	Humedad	66
24901	7	Sololá	712	San Antonio Palopó	9	San Antonio Palopo	12	Diciembre	2023-12-15T00:00:00	2024-11-08T02:00:00	6	Velocidad del viento	9.7
24902	7	Sololá	712	San Antonio Palopó	9	San Antonio Palopo	12	Diciembre	2023-12-15T00:00:00	2024-11-08T02:00:00	7	Dirección del viento	9.66
24903	7	Sololá	712	San Antonio Palopó	9	San Antonio Palopo	12	Diciembre	2023-12-15T00:00:00	2024-11-08T02:00:00	1	Precipitación	0
24904	7	Sololá	712	San Antonio Palopó	9	San Antonio Palopo	12	Diciembre	2023-12-15T00:00:00	2024-11-08T02:00:00	8	Radiación solar	0
24905	7	Sololá	712	San Antonio Palopó	9	San Antonio Palopo	12	Diciembre	2023-12-15T00:00:00	2024-11-08T03:00:00	2	Temperatura media	18.4
24906	7	Sololá	712	San Antonio Palopó	9	San Antonio Palopo	12	Diciembre	2023-12-15T00:00:00	2024-11-08T03:00:00	4	Temperatura máxima	18.6
24907	7	Sololá	712	San Antonio Palopó	9	San Antonio Palopo	12	Diciembre	2023-12-15T00:00:00	2024-11-08T03:00:00	3	Temperatura mínima	18.1
24908	7	Sololá	712	San Antonio Palopó	9	San Antonio Palopo	12	Diciembre	2023-12-15T00:00:00	2024-11-08T03:00:00	5	Humedad	67
24909	7	Sololá	712	San Antonio Palopó	9	San Antonio Palopo	12	Diciembre	2023-12-15T00:00:00	2024-11-08T03:00:00	6	Velocidad del viento	11.3
24910	7	Sololá	712	San Antonio Palopó	9	San Antonio Palopo	12	Diciembre	2023-12-15T00:00:00	2024-11-08T03:00:00	7	Dirección del viento	11.27
24911	7	Sololá	712	San Antonio Palopó	9	San Antonio Palopo	12	Diciembre	2023-12-15T00:00:00	2024-11-08T03:00:00	1	Precipitación	0
24912	7	Sololá	712	San Antonio Palopó	9	San Antonio Palopo	12	Diciembre	2023-12-15T00:00:00	2024-11-08T03:00:00	8	Radiación solar	0
24913	7	Sololá	712	San Antonio Palopó	9	San Antonio Palopo	12	Diciembre	2023-12-15T00:00:00	2024-11-08T04:00:00	2	Temperatura media	18.1
24914	7	Sololá	712	San Antonio Palopó	9	San Antonio Palopo	12	Diciembre	2023-12-15T00:00:00	2024-11-08T04:00:00	4	Temperatura máxima	18.6
24915	7	Sololá	712	San Antonio Palopó	9	San Antonio Palopo	12	Diciembre	2023-12-15T00:00:00	2024-11-08T04:00:00	3	Temperatura mínima	18
24916	7	Sololá	712	San Antonio Palopó	9	San Antonio Palopo	12	Diciembre	2023-12-15T00:00:00	2024-11-08T04:00:00	5	Humedad	68
24917	7	Sololá	712	San Antonio Palopó	9	San Antonio Palopo	12	Diciembre	2023-12-15T00:00:00	2024-11-08T04:00:00	6	Velocidad del viento	11.3
24918	7	Sololá	712	San Antonio Palopó	9	San Antonio Palopo	12	Diciembre	2023-12-15T00:00:00	2024-11-08T04:00:00	7	Dirección del viento	11.27
24919	7	Sololá	712	San Antonio Palopó	9	San Antonio Palopo	12	Diciembre	2023-12-15T00:00:00	2024-11-08T04:00:00	1	Precipitación	0
24920	7	Sololá	712	San Antonio Palopó	9	San Antonio Palopo	12	Diciembre	2023-12-15T00:00:00	2024-11-08T04:00:00	8	Radiación solar	0
24921	7	Sololá	712	San Antonio Palopó	9	San Antonio Palopo	12	Diciembre	2023-12-15T00:00:00	2024-11-08T05:00:00	2	Temperatura media	18.4
24922	7	Sololá	712	San Antonio Palopó	9	San Antonio Palopo	12	Diciembre	2023-12-15T00:00:00	2024-11-08T05:00:00	4	Temperatura máxima	18.8
24923	7	Sololá	712	San Antonio Palopó	9	San Antonio Palopo	12	Diciembre	2023-12-15T00:00:00	2024-11-08T05:00:00	3	Temperatura mínima	18
24924	7	Sololá	712	San Antonio Palopó	9	San Antonio Palopo	12	Diciembre	2023-12-15T00:00:00	2024-11-08T05:00:00	5	Humedad	66
24925	7	Sololá	712	San Antonio Palopó	9	San Antonio Palopo	12	Diciembre	2023-12-15T00:00:00	2024-11-08T05:00:00	6	Velocidad del viento	11.3
24926	7	Sololá	712	San Antonio Palopó	9	San Antonio Palopo	12	Diciembre	2023-12-15T00:00:00	2024-11-08T05:00:00	7	Dirección del viento	11.27
24927	7	Sololá	712	San Antonio Palopó	9	San Antonio Palopo	12	Diciembre	2023-12-15T00:00:00	2024-11-08T05:00:00	1	Precipitación	0
24928	7	Sololá	712	San Antonio Palopó	9	San Antonio Palopo	12	Diciembre	2023-12-15T00:00:00	2024-11-08T05:00:00	8	Radiación solar	0
24929	7	Sololá	712	San Antonio Palopó	9	San Antonio Palopo	12	Diciembre	2023-12-15T00:00:00	2024-11-08T06:00:00	2	Temperatura media	18.2
24930	7	Sololá	712	San Antonio Palopó	9	San Antonio Palopo	12	Diciembre	2023-12-15T00:00:00	2024-11-08T06:00:00	4	Temperatura máxima	18.5
24931	7	Sololá	712	San Antonio Palopó	9	San Antonio Palopo	12	Diciembre	2023-12-15T00:00:00	2024-11-08T06:00:00	3	Temperatura mínima	18.2
24932	7	Sololá	712	San Antonio Palopó	9	San Antonio Palopo	12	Diciembre	2023-12-15T00:00:00	2024-11-08T06:00:00	5	Humedad	66
24933	7	Sololá	712	San Antonio Palopó	9	San Antonio Palopo	12	Diciembre	2023-12-15T00:00:00	2024-11-08T06:00:00	6	Velocidad del viento	4.8
24934	7	Sololá	712	San Antonio Palopó	9	San Antonio Palopo	12	Diciembre	2023-12-15T00:00:00	2024-11-08T06:00:00	7	Dirección del viento	4.83
24935	7	Sololá	712	San Antonio Palopó	9	San Antonio Palopo	12	Diciembre	2023-12-15T00:00:00	2024-11-08T06:00:00	1	Precipitación	0
24936	7	Sololá	712	San Antonio Palopó	9	San Antonio Palopo	12	Diciembre	2023-12-15T00:00:00	2024-11-08T06:00:00	8	Radiación solar	0
24937	7	Sololá	712	San Antonio Palopó	9	San Antonio Palopo	12	Diciembre	2023-12-15T00:00:00	2024-11-08T07:00:00	2	Temperatura media	18.6
24938	7	Sololá	712	San Antonio Palopó	9	San Antonio Palopo	12	Diciembre	2023-12-15T00:00:00	2024-11-08T07:00:00	4	Temperatura máxima	18.7
24939	7	Sololá	712	San Antonio Palopó	9	San Antonio Palopo	12	Diciembre	2023-12-15T00:00:00	2024-11-08T07:00:00	3	Temperatura mínima	18.2
24940	7	Sololá	712	San Antonio Palopó	9	San Antonio Palopo	12	Diciembre	2023-12-15T00:00:00	2024-11-08T07:00:00	5	Humedad	66
24941	7	Sololá	712	San Antonio Palopó	9	San Antonio Palopo	12	Diciembre	2023-12-15T00:00:00	2024-11-08T07:00:00	6	Velocidad del viento	3.2
24942	7	Sololá	712	San Antonio Palopó	9	San Antonio Palopo	12	Diciembre	2023-12-15T00:00:00	2024-11-08T07:00:00	7	Dirección del viento	3.22
24943	7	Sololá	712	San Antonio Palopó	9	San Antonio Palopo	12	Diciembre	2023-12-15T00:00:00	2024-11-08T07:00:00	1	Precipitación	0
24944	7	Sololá	712	San Antonio Palopó	9	San Antonio Palopo	12	Diciembre	2023-12-15T00:00:00	2024-11-08T07:00:00	8	Radiación solar	15
24945	7	Sololá	712	San Antonio Palopó	9	San Antonio Palopo	12	Diciembre	2023-12-15T00:00:00	2024-11-08T08:00:00	2	Temperatura media	19.2
24946	7	Sololá	712	San Antonio Palopó	9	San Antonio Palopo	12	Diciembre	2023-12-15T00:00:00	2024-11-08T08:00:00	4	Temperatura máxima	19.3
24947	7	Sololá	712	San Antonio Palopó	9	San Antonio Palopo	12	Diciembre	2023-12-15T00:00:00	2024-11-08T08:00:00	3	Temperatura mínima	18.6
24948	7	Sololá	712	San Antonio Palopó	9	San Antonio Palopo	12	Diciembre	2023-12-15T00:00:00	2024-11-08T08:00:00	5	Humedad	71
24949	7	Sololá	712	San Antonio Palopó	9	San Antonio Palopo	12	Diciembre	2023-12-15T00:00:00	2024-11-08T08:00:00	6	Velocidad del viento	1.6
24950	7	Sololá	712	San Antonio Palopó	9	San Antonio Palopo	12	Diciembre	2023-12-15T00:00:00	2024-11-08T08:00:00	7	Dirección del viento	1.61
24951	7	Sololá	712	San Antonio Palopó	9	San Antonio Palopo	12	Diciembre	2023-12-15T00:00:00	2024-11-08T08:00:00	1	Precipitación	0
24952	7	Sololá	712	San Antonio Palopó	9	San Antonio Palopo	12	Diciembre	2023-12-15T00:00:00	2024-11-08T08:00:00	8	Radiación solar	58
24953	7	Sololá	712	San Antonio Palopó	9	San Antonio Palopo	12	Diciembre	2023-12-15T00:00:00	2024-11-08T09:00:00	2	Temperatura media	20.3
24954	7	Sololá	712	San Antonio Palopó	9	San Antonio Palopo	12	Diciembre	2023-12-15T00:00:00	2024-11-08T09:00:00	4	Temperatura máxima	20.3
24955	7	Sololá	712	San Antonio Palopó	9	San Antonio Palopo	12	Diciembre	2023-12-15T00:00:00	2024-11-08T09:00:00	3	Temperatura mínima	18.6
24956	7	Sololá	712	San Antonio Palopó	9	San Antonio Palopo	12	Diciembre	2023-12-15T00:00:00	2024-11-08T09:00:00	5	Humedad	71
24957	7	Sololá	712	San Antonio Palopó	9	San Antonio Palopo	12	Diciembre	2023-12-15T00:00:00	2024-11-08T09:00:00	6	Velocidad del viento	1.6
24958	7	Sololá	712	San Antonio Palopó	9	San Antonio Palopo	12	Diciembre	2023-12-15T00:00:00	2024-11-08T09:00:00	7	Dirección del viento	1.61
24959	7	Sololá	712	San Antonio Palopó	9	San Antonio Palopo	12	Diciembre	2023-12-15T00:00:00	2024-11-08T09:00:00	1	Precipitación	0
24960	7	Sololá	712	San Antonio Palopó	9	San Antonio Palopo	12	Diciembre	2023-12-15T00:00:00	2024-11-08T09:00:00	8	Radiación solar	142
24961	7	Sololá	712	San Antonio Palopó	9	San Antonio Palopo	12	Diciembre	2023-12-15T00:00:00	2024-11-08T10:00:00	2	Temperatura media	20.6
24962	7	Sololá	712	San Antonio Palopó	9	San Antonio Palopo	12	Diciembre	2023-12-15T00:00:00	2024-11-08T10:00:00	4	Temperatura máxima	21.5
24963	7	Sololá	712	San Antonio Palopó	9	San Antonio Palopo	12	Diciembre	2023-12-15T00:00:00	2024-11-08T10:00:00	3	Temperatura mínima	20.3
24964	7	Sololá	712	San Antonio Palopó	9	San Antonio Palopo	12	Diciembre	2023-12-15T00:00:00	2024-11-08T10:00:00	5	Humedad	69
24965	7	Sololá	712	San Antonio Palopó	9	San Antonio Palopo	12	Diciembre	2023-12-15T00:00:00	2024-11-08T10:00:00	6	Velocidad del viento	0
24966	7	Sololá	712	San Antonio Palopó	9	San Antonio Palopo	12	Diciembre	2023-12-15T00:00:00	2024-11-08T10:00:00	7	Dirección del viento	0
24967	7	Sololá	712	San Antonio Palopó	9	San Antonio Palopo	12	Diciembre	2023-12-15T00:00:00	2024-11-08T10:00:00	1	Precipitación	0
24968	7	Sololá	712	San Antonio Palopó	9	San Antonio Palopo	12	Diciembre	2023-12-15T00:00:00	2024-11-08T10:00:00	8	Radiación solar	334
24969	7	Sololá	712	San Antonio Palopó	9	San Antonio Palopo	12	Diciembre	2023-12-15T00:00:00	2024-11-08T11:00:00	2	Temperatura media	22.4
24970	7	Sololá	712	San Antonio Palopó	9	San Antonio Palopo	12	Diciembre	2023-12-15T00:00:00	2024-11-08T11:00:00	4	Temperatura máxima	22.6
24971	7	Sololá	712	San Antonio Palopó	9	San Antonio Palopo	12	Diciembre	2023-12-15T00:00:00	2024-11-08T11:00:00	3	Temperatura mínima	20.6
24972	7	Sololá	712	San Antonio Palopó	9	San Antonio Palopo	12	Diciembre	2023-12-15T00:00:00	2024-11-08T11:00:00	5	Humedad	63
24973	7	Sololá	712	San Antonio Palopó	9	San Antonio Palopo	12	Diciembre	2023-12-15T00:00:00	2024-11-08T11:00:00	6	Velocidad del viento	1.6
24974	7	Sololá	712	San Antonio Palopó	9	San Antonio Palopo	12	Diciembre	2023-12-15T00:00:00	2024-11-08T11:00:00	7	Dirección del viento	1.61
24975	7	Sololá	712	San Antonio Palopó	9	San Antonio Palopo	12	Diciembre	2023-12-15T00:00:00	2024-11-08T11:00:00	1	Precipitación	0
24976	7	Sololá	712	San Antonio Palopó	9	San Antonio Palopo	12	Diciembre	2023-12-15T00:00:00	2024-11-08T11:00:00	8	Radiación solar	582
24977	7	Sololá	712	San Antonio Palopó	9	San Antonio Palopo	12	Diciembre	2023-12-15T00:00:00	2024-11-08T12:00:00	2	Temperatura media	24.1
24978	7	Sololá	712	San Antonio Palopó	9	San Antonio Palopo	12	Diciembre	2023-12-15T00:00:00	2024-11-08T12:00:00	4	Temperatura máxima	24.1
24979	7	Sololá	712	San Antonio Palopó	9	San Antonio Palopo	12	Diciembre	2023-12-15T00:00:00	2024-11-08T12:00:00	3	Temperatura mínima	22.4
24980	7	Sololá	712	San Antonio Palopó	9	San Antonio Palopo	12	Diciembre	2023-12-15T00:00:00	2024-11-08T12:00:00	5	Humedad	63
24981	7	Sololá	712	San Antonio Palopó	9	San Antonio Palopo	12	Diciembre	2023-12-15T00:00:00	2024-11-08T12:00:00	6	Velocidad del viento	1.6
24982	7	Sololá	712	San Antonio Palopó	9	San Antonio Palopo	12	Diciembre	2023-12-15T00:00:00	2024-11-08T12:00:00	7	Dirección del viento	1.61
24983	7	Sololá	712	San Antonio Palopó	9	San Antonio Palopo	12	Diciembre	2023-12-15T00:00:00	2024-11-08T12:00:00	1	Precipitación	0
24984	7	Sololá	712	San Antonio Palopó	9	San Antonio Palopo	12	Diciembre	2023-12-15T00:00:00	2024-11-08T12:00:00	8	Radiación solar	513
24985	7	Sololá	712	San Antonio Palopó	9	San Antonio Palopo	12	Diciembre	2023-12-15T00:00:00	2024-11-08T13:00:00	2	Temperatura media	23.8
24986	7	Sololá	712	San Antonio Palopó	9	San Antonio Palopo	12	Diciembre	2023-12-15T00:00:00	2024-11-08T13:00:00	4	Temperatura máxima	24.3
24987	7	Sololá	712	San Antonio Palopó	9	San Antonio Palopo	12	Diciembre	2023-12-15T00:00:00	2024-11-08T13:00:00	3	Temperatura mínima	23
24988	7	Sololá	712	San Antonio Palopó	9	San Antonio Palopo	12	Diciembre	2023-12-15T00:00:00	2024-11-08T13:00:00	5	Humedad	62
24989	7	Sololá	712	San Antonio Palopó	9	San Antonio Palopo	12	Diciembre	2023-12-15T00:00:00	2024-11-08T13:00:00	6	Velocidad del viento	3.2
24990	7	Sololá	712	San Antonio Palopó	9	San Antonio Palopo	12	Diciembre	2023-12-15T00:00:00	2024-11-08T13:00:00	7	Dirección del viento	3.22
24991	7	Sololá	712	San Antonio Palopó	9	San Antonio Palopo	12	Diciembre	2023-12-15T00:00:00	2024-11-08T13:00:00	1	Precipitación	0
24992	7	Sololá	712	San Antonio Palopó	9	San Antonio Palopo	12	Diciembre	2023-12-15T00:00:00	2024-11-08T13:00:00	8	Radiación solar	432
24993	7	Sololá	712	San Antonio Palopó	9	San Antonio Palopo	12	Diciembre	2023-12-15T00:00:00	2024-11-08T14:00:00	2	Temperatura media	23.2
24994	7	Sololá	712	San Antonio Palopó	9	San Antonio Palopo	12	Diciembre	2023-12-15T00:00:00	2024-11-08T14:00:00	4	Temperatura máxima	24.9
24995	7	Sololá	712	San Antonio Palopó	9	San Antonio Palopo	12	Diciembre	2023-12-15T00:00:00	2024-11-08T14:00:00	3	Temperatura mínima	23.1
24996	7	Sololá	712	San Antonio Palopó	9	San Antonio Palopo	12	Diciembre	2023-12-15T00:00:00	2024-11-08T14:00:00	5	Humedad	72
24997	7	Sololá	712	San Antonio Palopó	9	San Antonio Palopo	12	Diciembre	2023-12-15T00:00:00	2024-11-08T14:00:00	6	Velocidad del viento	8
24998	7	Sololá	712	San Antonio Palopó	9	San Antonio Palopo	12	Diciembre	2023-12-15T00:00:00	2024-11-08T14:00:00	7	Dirección del viento	8.05
24999	7	Sololá	712	San Antonio Palopó	9	San Antonio Palopo	12	Diciembre	2023-12-15T00:00:00	2024-11-08T14:00:00	1	Precipitación	0
25000	7	Sololá	712	San Antonio Palopó	9	San Antonio Palopo	12	Diciembre	2023-12-15T00:00:00	2024-11-08T14:00:00	8	Radiación solar	507
25001	7	Sololá	712	San Antonio Palopó	9	San Antonio Palopo	12	Diciembre	2023-12-15T00:00:00	2024-11-08T15:00:00	2	Temperatura media	24.1
25002	7	Sololá	712	San Antonio Palopó	9	San Antonio Palopo	12	Diciembre	2023-12-15T00:00:00	2024-11-08T15:00:00	4	Temperatura máxima	24.7
25003	7	Sololá	712	San Antonio Palopó	9	San Antonio Palopo	12	Diciembre	2023-12-15T00:00:00	2024-11-08T15:00:00	3	Temperatura mínima	22.6
25004	7	Sololá	712	San Antonio Palopó	9	San Antonio Palopo	12	Diciembre	2023-12-15T00:00:00	2024-11-08T15:00:00	5	Humedad	69
25005	7	Sololá	712	San Antonio Palopó	9	San Antonio Palopo	12	Diciembre	2023-12-15T00:00:00	2024-11-08T15:00:00	6	Velocidad del viento	8
25006	7	Sololá	712	San Antonio Palopó	9	San Antonio Palopo	12	Diciembre	2023-12-15T00:00:00	2024-11-08T15:00:00	7	Dirección del viento	8.05
25007	7	Sololá	712	San Antonio Palopó	9	San Antonio Palopo	12	Diciembre	2023-12-15T00:00:00	2024-11-08T15:00:00	1	Precipitación	0
25008	7	Sololá	712	San Antonio Palopó	9	San Antonio Palopo	12	Diciembre	2023-12-15T00:00:00	2024-11-08T15:00:00	8	Radiación solar	502
25009	7	Sololá	712	San Antonio Palopó	9	San Antonio Palopo	12	Diciembre	2023-12-15T00:00:00	2024-11-08T16:00:00	2	Temperatura media	21.8
25010	7	Sololá	712	San Antonio Palopó	9	San Antonio Palopo	12	Diciembre	2023-12-15T00:00:00	2024-11-08T16:00:00	4	Temperatura máxima	24.1
25011	7	Sololá	712	San Antonio Palopó	9	San Antonio Palopo	12	Diciembre	2023-12-15T00:00:00	2024-11-08T16:00:00	3	Temperatura mínima	21.8
25012	7	Sololá	712	San Antonio Palopó	9	San Antonio Palopo	12	Diciembre	2023-12-15T00:00:00	2024-11-08T16:00:00	5	Humedad	76
25013	7	Sololá	712	San Antonio Palopó	9	San Antonio Palopo	12	Diciembre	2023-12-15T00:00:00	2024-11-08T16:00:00	6	Velocidad del viento	12.9
25014	7	Sololá	712	San Antonio Palopó	9	San Antonio Palopo	12	Diciembre	2023-12-15T00:00:00	2024-11-08T16:00:00	7	Dirección del viento	12.87
25015	7	Sololá	712	San Antonio Palopó	9	San Antonio Palopo	12	Diciembre	2023-12-15T00:00:00	2024-11-08T16:00:00	1	Precipitación	0
25016	7	Sololá	712	San Antonio Palopó	9	San Antonio Palopo	12	Diciembre	2023-12-15T00:00:00	2024-11-08T16:00:00	8	Radiación solar	332
25017	7	Sololá	712	San Antonio Palopó	9	San Antonio Palopo	12	Diciembre	2023-12-15T00:00:00	2024-11-08T17:00:00	2	Temperatura media	21.2
25018	7	Sololá	712	San Antonio Palopó	9	San Antonio Palopo	12	Diciembre	2023-12-15T00:00:00	2024-11-08T17:00:00	4	Temperatura máxima	21.8
25019	7	Sololá	712	San Antonio Palopó	9	San Antonio Palopo	12	Diciembre	2023-12-15T00:00:00	2024-11-08T17:00:00	3	Temperatura mínima	20.9
25020	7	Sololá	712	San Antonio Palopó	9	San Antonio Palopo	12	Diciembre	2023-12-15T00:00:00	2024-11-08T17:00:00	5	Humedad	76
25021	7	Sololá	712	San Antonio Palopó	9	San Antonio Palopo	12	Diciembre	2023-12-15T00:00:00	2024-11-08T17:00:00	6	Velocidad del viento	8
25022	7	Sololá	712	San Antonio Palopó	9	San Antonio Palopo	12	Diciembre	2023-12-15T00:00:00	2024-11-08T17:00:00	7	Dirección del viento	8.05
25023	7	Sololá	712	San Antonio Palopó	9	San Antonio Palopo	12	Diciembre	2023-12-15T00:00:00	2024-11-08T17:00:00	1	Precipitación	0
25024	7	Sololá	712	San Antonio Palopó	9	San Antonio Palopo	12	Diciembre	2023-12-15T00:00:00	2024-11-08T17:00:00	8	Radiación solar	49
25025	7	Sololá	712	San Antonio Palopó	9	San Antonio Palopo	12	Diciembre	2023-12-15T00:00:00	2024-11-08T18:00:00	2	Temperatura media	20.7
25026	7	Sololá	712	San Antonio Palopó	9	San Antonio Palopo	12	Diciembre	2023-12-15T00:00:00	2024-11-08T18:00:00	4	Temperatura máxima	21.2
25027	7	Sololá	712	San Antonio Palopó	9	San Antonio Palopo	12	Diciembre	2023-12-15T00:00:00	2024-11-08T18:00:00	3	Temperatura mínima	20.6
25028	7	Sololá	712	San Antonio Palopó	9	San Antonio Palopo	12	Diciembre	2023-12-15T00:00:00	2024-11-08T18:00:00	5	Humedad	77
25029	7	Sololá	712	San Antonio Palopó	9	San Antonio Palopo	12	Diciembre	2023-12-15T00:00:00	2024-11-08T18:00:00	6	Velocidad del viento	3.2
25030	7	Sololá	712	San Antonio Palopó	9	San Antonio Palopo	12	Diciembre	2023-12-15T00:00:00	2024-11-08T18:00:00	7	Dirección del viento	3.22
25031	7	Sololá	712	San Antonio Palopó	9	San Antonio Palopo	12	Diciembre	2023-12-15T00:00:00	2024-11-08T18:00:00	1	Precipitación	0
25032	7	Sololá	712	San Antonio Palopó	9	San Antonio Palopo	12	Diciembre	2023-12-15T00:00:00	2024-11-08T18:00:00	8	Radiación solar	3
25033	7	Sololá	712	San Antonio Palopó	9	San Antonio Palopo	12	Diciembre	2023-12-15T00:00:00	2024-11-08T19:00:00	2	Temperatura media	20.5
25034	7	Sololá	712	San Antonio Palopó	9	San Antonio Palopo	12	Diciembre	2023-12-15T00:00:00	2024-11-08T19:00:00	4	Temperatura máxima	20.8
25035	7	Sololá	712	San Antonio Palopó	9	San Antonio Palopo	12	Diciembre	2023-12-15T00:00:00	2024-11-08T19:00:00	3	Temperatura mínima	20.4
25036	7	Sololá	712	San Antonio Palopó	9	San Antonio Palopo	12	Diciembre	2023-12-15T00:00:00	2024-11-08T19:00:00	5	Humedad	78
25037	7	Sololá	712	San Antonio Palopó	9	San Antonio Palopo	12	Diciembre	2023-12-15T00:00:00	2024-11-08T19:00:00	6	Velocidad del viento	3.2
25038	7	Sololá	712	San Antonio Palopó	9	San Antonio Palopo	12	Diciembre	2023-12-15T00:00:00	2024-11-08T19:00:00	7	Dirección del viento	3.22
25039	7	Sololá	712	San Antonio Palopó	9	San Antonio Palopo	12	Diciembre	2023-12-15T00:00:00	2024-11-08T19:00:00	1	Precipitación	0
25040	7	Sololá	712	San Antonio Palopó	9	San Antonio Palopo	12	Diciembre	2023-12-15T00:00:00	2024-11-08T19:00:00	8	Radiación solar	0
25041	7	Sololá	712	San Antonio Palopó	9	San Antonio Palopo	12	Diciembre	2023-12-15T00:00:00	2024-11-08T20:00:00	2	Temperatura media	19.2
25042	7	Sololá	712	San Antonio Palopó	9	San Antonio Palopo	12	Diciembre	2023-12-15T00:00:00	2024-11-08T20:00:00	4	Temperatura máxima	20.5
25043	7	Sololá	712	San Antonio Palopó	9	San Antonio Palopo	12	Diciembre	2023-12-15T00:00:00	2024-11-08T20:00:00	3	Temperatura mínima	19.2
25044	7	Sololá	712	San Antonio Palopó	9	San Antonio Palopo	12	Diciembre	2023-12-15T00:00:00	2024-11-08T20:00:00	5	Humedad	83
25045	7	Sololá	712	San Antonio Palopó	9	San Antonio Palopo	12	Diciembre	2023-12-15T00:00:00	2024-11-08T20:00:00	6	Velocidad del viento	4.8
25046	7	Sololá	712	San Antonio Palopó	9	San Antonio Palopo	12	Diciembre	2023-12-15T00:00:00	2024-11-08T20:00:00	7	Dirección del viento	4.83
25047	7	Sololá	712	San Antonio Palopó	9	San Antonio Palopo	12	Diciembre	2023-12-15T00:00:00	2024-11-08T20:00:00	1	Precipitación	0
25048	7	Sololá	712	San Antonio Palopó	9	San Antonio Palopo	12	Diciembre	2023-12-15T00:00:00	2024-11-08T20:00:00	8	Radiación solar	0
25049	7	Sololá	712	San Antonio Palopó	9	San Antonio Palopo	12	Diciembre	2023-12-15T00:00:00	2024-11-08T21:00:00	2	Temperatura media	18.4
25050	7	Sololá	712	San Antonio Palopó	9	San Antonio Palopo	12	Diciembre	2023-12-15T00:00:00	2024-11-08T21:00:00	4	Temperatura máxima	19.2
25051	7	Sololá	712	San Antonio Palopó	9	San Antonio Palopo	12	Diciembre	2023-12-15T00:00:00	2024-11-08T21:00:00	3	Temperatura mínima	18.4
25052	7	Sololá	712	San Antonio Palopó	9	San Antonio Palopo	12	Diciembre	2023-12-15T00:00:00	2024-11-08T21:00:00	5	Humedad	88
25053	7	Sololá	712	San Antonio Palopó	9	San Antonio Palopo	12	Diciembre	2023-12-15T00:00:00	2024-11-08T21:00:00	6	Velocidad del viento	3.2
25054	7	Sololá	712	San Antonio Palopó	9	San Antonio Palopo	12	Diciembre	2023-12-15T00:00:00	2024-11-08T21:00:00	7	Dirección del viento	3.22
25055	7	Sololá	712	San Antonio Palopó	9	San Antonio Palopo	12	Diciembre	2023-12-15T00:00:00	2024-11-08T21:00:00	1	Precipitación	0.8
25056	7	Sololá	712	San Antonio Palopó	9	San Antonio Palopo	12	Diciembre	2023-12-15T00:00:00	2024-11-08T21:00:00	8	Radiación solar	0
25057	7	Sololá	712	San Antonio Palopó	9	San Antonio Palopo	12	Diciembre	2023-12-15T00:00:00	2024-11-08T22:00:00	2	Temperatura media	18.3
25058	7	Sololá	712	San Antonio Palopó	9	San Antonio Palopo	12	Diciembre	2023-12-15T00:00:00	2024-11-08T22:00:00	4	Temperatura máxima	18.6
25059	7	Sololá	712	San Antonio Palopó	9	San Antonio Palopo	12	Diciembre	2023-12-15T00:00:00	2024-11-08T22:00:00	3	Temperatura mínima	18.3
25060	7	Sololá	712	San Antonio Palopó	9	San Antonio Palopo	12	Diciembre	2023-12-15T00:00:00	2024-11-08T22:00:00	5	Humedad	88
25061	7	Sololá	712	San Antonio Palopó	9	San Antonio Palopo	12	Diciembre	2023-12-15T00:00:00	2024-11-08T22:00:00	6	Velocidad del viento	1.6
25062	7	Sololá	712	San Antonio Palopó	9	San Antonio Palopo	12	Diciembre	2023-12-15T00:00:00	2024-11-08T22:00:00	7	Dirección del viento	1.61
25063	7	Sololá	712	San Antonio Palopó	9	San Antonio Palopo	12	Diciembre	2023-12-15T00:00:00	2024-11-08T22:00:00	1	Precipitación	0.2
25064	7	Sololá	712	San Antonio Palopó	9	San Antonio Palopo	12	Diciembre	2023-12-15T00:00:00	2024-11-08T22:00:00	8	Radiación solar	0
25065	7	Sololá	712	San Antonio Palopó	9	San Antonio Palopo	12	Diciembre	2023-12-15T00:00:00	2024-11-08T23:00:00	2	Temperatura media	17.9
25066	7	Sololá	712	San Antonio Palopó	9	San Antonio Palopo	12	Diciembre	2023-12-15T00:00:00	2024-11-08T23:00:00	4	Temperatura máxima	18.4
25067	7	Sololá	712	San Antonio Palopó	9	San Antonio Palopo	12	Diciembre	2023-12-15T00:00:00	2024-11-08T23:00:00	3	Temperatura mínima	17.9
25068	7	Sololá	712	San Antonio Palopó	9	San Antonio Palopo	12	Diciembre	2023-12-15T00:00:00	2024-11-08T23:00:00	5	Humedad	87
25069	7	Sololá	712	San Antonio Palopó	9	San Antonio Palopo	12	Diciembre	2023-12-15T00:00:00	2024-11-08T23:00:00	6	Velocidad del viento	1.6
25070	7	Sololá	712	San Antonio Palopó	9	San Antonio Palopo	12	Diciembre	2023-12-15T00:00:00	2024-11-08T23:00:00	7	Dirección del viento	1.61
25071	7	Sololá	712	San Antonio Palopó	9	San Antonio Palopo	12	Diciembre	2023-12-15T00:00:00	2024-11-08T23:00:00	1	Precipitación	0
25072	7	Sololá	712	San Antonio Palopó	9	San Antonio Palopo	12	Diciembre	2023-12-15T00:00:00	2024-11-08T23:00:00	8	Radiación solar	0
25073	7	Sololá	712	San Antonio Palopó	9	San Antonio Palopo	12	Diciembre	2023-12-16T00:00:00	2024-11-08T00:00:00	2	Temperatura media	18.1
25074	7	Sololá	712	San Antonio Palopó	9	San Antonio Palopo	12	Diciembre	2023-12-16T00:00:00	2024-11-08T00:00:00	4	Temperatura máxima	18.2
25075	7	Sololá	712	San Antonio Palopó	9	San Antonio Palopo	12	Diciembre	2023-12-16T00:00:00	2024-11-08T00:00:00	3	Temperatura mínima	17.6
25076	7	Sololá	712	San Antonio Palopó	9	San Antonio Palopo	12	Diciembre	2023-12-16T00:00:00	2024-11-08T00:00:00	5	Humedad	86
25077	7	Sololá	712	San Antonio Palopó	9	San Antonio Palopo	12	Diciembre	2023-12-16T00:00:00	2024-11-08T00:00:00	6	Velocidad del viento	1.6
25078	7	Sololá	712	San Antonio Palopó	9	San Antonio Palopo	12	Diciembre	2023-12-16T00:00:00	2024-11-08T00:00:00	7	Dirección del viento	1.61
25079	7	Sololá	712	San Antonio Palopó	9	San Antonio Palopo	12	Diciembre	2023-12-16T00:00:00	2024-11-08T00:00:00	1	Precipitación	0
25080	7	Sololá	712	San Antonio Palopó	9	San Antonio Palopo	12	Diciembre	2023-12-16T00:00:00	2024-11-08T00:00:00	8	Radiación solar	0
25081	7	Sololá	712	San Antonio Palopó	9	San Antonio Palopo	12	Diciembre	2023-12-16T00:00:00	2024-11-08T01:00:00	2	Temperatura media	18.8
25082	7	Sololá	712	San Antonio Palopó	9	San Antonio Palopo	12	Diciembre	2023-12-16T00:00:00	2024-11-08T01:00:00	4	Temperatura máxima	18.8
25083	7	Sololá	712	San Antonio Palopó	9	San Antonio Palopo	12	Diciembre	2023-12-16T00:00:00	2024-11-08T01:00:00	3	Temperatura mínima	17.9
25084	7	Sololá	712	San Antonio Palopó	9	San Antonio Palopo	12	Diciembre	2023-12-16T00:00:00	2024-11-08T01:00:00	5	Humedad	79
25085	7	Sololá	712	San Antonio Palopó	9	San Antonio Palopo	12	Diciembre	2023-12-16T00:00:00	2024-11-08T01:00:00	6	Velocidad del viento	1.6
25086	7	Sololá	712	San Antonio Palopó	9	San Antonio Palopo	12	Diciembre	2023-12-16T00:00:00	2024-11-08T01:00:00	7	Dirección del viento	1.61
25087	7	Sololá	712	San Antonio Palopó	9	San Antonio Palopo	12	Diciembre	2023-12-16T00:00:00	2024-11-08T01:00:00	1	Precipitación	0
25088	7	Sololá	712	San Antonio Palopó	9	San Antonio Palopo	12	Diciembre	2023-12-16T00:00:00	2024-11-08T01:00:00	8	Radiación solar	0
25089	7	Sololá	712	San Antonio Palopó	9	San Antonio Palopo	12	Diciembre	2023-12-16T00:00:00	2024-11-08T02:00:00	2	Temperatura media	18.3
25090	7	Sololá	712	San Antonio Palopó	9	San Antonio Palopo	12	Diciembre	2023-12-16T00:00:00	2024-11-08T02:00:00	4	Temperatura máxima	18.9
25091	7	Sololá	712	San Antonio Palopó	9	San Antonio Palopo	12	Diciembre	2023-12-16T00:00:00	2024-11-08T02:00:00	3	Temperatura mínima	18.2
25092	7	Sololá	712	San Antonio Palopó	9	San Antonio Palopo	12	Diciembre	2023-12-16T00:00:00	2024-11-08T02:00:00	5	Humedad	81
25093	7	Sololá	712	San Antonio Palopó	9	San Antonio Palopo	12	Diciembre	2023-12-16T00:00:00	2024-11-08T02:00:00	6	Velocidad del viento	3.2
25094	7	Sololá	712	San Antonio Palopó	9	San Antonio Palopo	12	Diciembre	2023-12-16T00:00:00	2024-11-08T02:00:00	7	Dirección del viento	3.22
25095	7	Sololá	712	San Antonio Palopó	9	San Antonio Palopo	12	Diciembre	2023-12-16T00:00:00	2024-11-08T02:00:00	1	Precipitación	0
25096	7	Sololá	712	San Antonio Palopó	9	San Antonio Palopo	12	Diciembre	2023-12-16T00:00:00	2024-11-08T02:00:00	8	Radiación solar	0
25097	7	Sololá	712	San Antonio Palopó	9	San Antonio Palopo	12	Diciembre	2023-12-16T00:00:00	2024-11-08T03:00:00	2	Temperatura media	17.6
25098	7	Sololá	712	San Antonio Palopó	9	San Antonio Palopo	12	Diciembre	2023-12-16T00:00:00	2024-11-08T03:00:00	4	Temperatura máxima	18.3
25099	7	Sololá	712	San Antonio Palopó	9	San Antonio Palopo	12	Diciembre	2023-12-16T00:00:00	2024-11-08T03:00:00	3	Temperatura mínima	17.6
25100	7	Sololá	712	San Antonio Palopó	9	San Antonio Palopo	12	Diciembre	2023-12-16T00:00:00	2024-11-08T03:00:00	5	Humedad	80
25101	7	Sololá	712	San Antonio Palopó	9	San Antonio Palopo	12	Diciembre	2023-12-16T00:00:00	2024-11-08T03:00:00	6	Velocidad del viento	3.2
25102	7	Sololá	712	San Antonio Palopó	9	San Antonio Palopo	12	Diciembre	2023-12-16T00:00:00	2024-11-08T03:00:00	7	Dirección del viento	3.22
25103	7	Sololá	712	San Antonio Palopó	9	San Antonio Palopo	12	Diciembre	2023-12-16T00:00:00	2024-11-08T03:00:00	1	Precipitación	0
25104	7	Sololá	712	San Antonio Palopó	9	San Antonio Palopo	12	Diciembre	2023-12-16T00:00:00	2024-11-08T03:00:00	8	Radiación solar	0
25105	7	Sololá	712	San Antonio Palopó	9	San Antonio Palopo	12	Diciembre	2023-12-16T00:00:00	2024-11-08T04:00:00	2	Temperatura media	17.7
25106	7	Sololá	712	San Antonio Palopó	9	San Antonio Palopo	12	Diciembre	2023-12-16T00:00:00	2024-11-08T04:00:00	4	Temperatura máxima	17.7
25107	7	Sololá	712	San Antonio Palopó	9	San Antonio Palopo	12	Diciembre	2023-12-16T00:00:00	2024-11-08T04:00:00	3	Temperatura mínima	17.2
25108	7	Sololá	712	San Antonio Palopó	9	San Antonio Palopo	12	Diciembre	2023-12-16T00:00:00	2024-11-08T04:00:00	5	Humedad	79
25109	7	Sololá	712	San Antonio Palopó	9	San Antonio Palopo	12	Diciembre	2023-12-16T00:00:00	2024-11-08T04:00:00	6	Velocidad del viento	3.2
25110	7	Sololá	712	San Antonio Palopó	9	San Antonio Palopo	12	Diciembre	2023-12-16T00:00:00	2024-11-08T04:00:00	7	Dirección del viento	3.22
25111	7	Sololá	712	San Antonio Palopó	9	San Antonio Palopo	12	Diciembre	2023-12-16T00:00:00	2024-11-08T04:00:00	1	Precipitación	0
25112	7	Sololá	712	San Antonio Palopó	9	San Antonio Palopo	12	Diciembre	2023-12-16T00:00:00	2024-11-08T04:00:00	8	Radiación solar	0
25113	7	Sololá	712	San Antonio Palopó	9	San Antonio Palopo	12	Diciembre	2023-12-16T00:00:00	2024-11-08T05:00:00	2	Temperatura media	17.7
25114	7	Sololá	712	San Antonio Palopó	9	San Antonio Palopo	12	Diciembre	2023-12-16T00:00:00	2024-11-08T05:00:00	4	Temperatura máxima	17.8
25115	7	Sololá	712	San Antonio Palopó	9	San Antonio Palopo	12	Diciembre	2023-12-16T00:00:00	2024-11-08T05:00:00	3	Temperatura mínima	17.4
25116	7	Sololá	712	San Antonio Palopó	9	San Antonio Palopo	12	Diciembre	2023-12-16T00:00:00	2024-11-08T05:00:00	5	Humedad	77
25117	7	Sololá	712	San Antonio Palopó	9	San Antonio Palopo	12	Diciembre	2023-12-16T00:00:00	2024-11-08T05:00:00	6	Velocidad del viento	3.2
25118	7	Sololá	712	San Antonio Palopó	9	San Antonio Palopo	12	Diciembre	2023-12-16T00:00:00	2024-11-08T05:00:00	7	Dirección del viento	3.22
25119	7	Sololá	712	San Antonio Palopó	9	San Antonio Palopo	12	Diciembre	2023-12-16T00:00:00	2024-11-08T05:00:00	1	Precipitación	0
25120	7	Sololá	712	San Antonio Palopó	9	San Antonio Palopo	12	Diciembre	2023-12-16T00:00:00	2024-11-08T05:00:00	8	Radiación solar	0
25121	7	Sololá	712	San Antonio Palopó	9	San Antonio Palopo	12	Diciembre	2023-12-16T00:00:00	2024-11-08T06:00:00	2	Temperatura media	16.9
25122	7	Sololá	712	San Antonio Palopó	9	San Antonio Palopo	12	Diciembre	2023-12-16T00:00:00	2024-11-08T06:00:00	4	Temperatura máxima	17.8
25123	7	Sololá	712	San Antonio Palopó	9	San Antonio Palopo	12	Diciembre	2023-12-16T00:00:00	2024-11-08T06:00:00	3	Temperatura mínima	16.8
25124	7	Sololá	712	San Antonio Palopó	9	San Antonio Palopo	12	Diciembre	2023-12-16T00:00:00	2024-11-08T06:00:00	5	Humedad	78
25125	7	Sololá	712	San Antonio Palopó	9	San Antonio Palopo	12	Diciembre	2023-12-16T00:00:00	2024-11-08T06:00:00	6	Velocidad del viento	3.2
25126	7	Sololá	712	San Antonio Palopó	9	San Antonio Palopo	12	Diciembre	2023-12-16T00:00:00	2024-11-08T06:00:00	7	Dirección del viento	3.22
25127	7	Sololá	712	San Antonio Palopó	9	San Antonio Palopo	12	Diciembre	2023-12-16T00:00:00	2024-11-08T06:00:00	1	Precipitación	0
25128	7	Sololá	712	San Antonio Palopó	9	San Antonio Palopo	12	Diciembre	2023-12-16T00:00:00	2024-11-08T06:00:00	8	Radiación solar	0
25129	7	Sololá	712	San Antonio Palopó	9	San Antonio Palopo	12	Diciembre	2023-12-16T00:00:00	2024-11-08T07:00:00	2	Temperatura media	16.8
25130	7	Sololá	712	San Antonio Palopó	9	San Antonio Palopo	12	Diciembre	2023-12-16T00:00:00	2024-11-08T07:00:00	4	Temperatura máxima	17.4
25131	7	Sololá	712	San Antonio Palopó	9	San Antonio Palopo	12	Diciembre	2023-12-16T00:00:00	2024-11-08T07:00:00	3	Temperatura mínima	16.8
25132	7	Sololá	712	San Antonio Palopó	9	San Antonio Palopo	12	Diciembre	2023-12-16T00:00:00	2024-11-08T07:00:00	5	Humedad	77
25133	7	Sololá	712	San Antonio Palopó	9	San Antonio Palopo	12	Diciembre	2023-12-16T00:00:00	2024-11-08T07:00:00	6	Velocidad del viento	3.2
25134	7	Sololá	712	San Antonio Palopó	9	San Antonio Palopo	12	Diciembre	2023-12-16T00:00:00	2024-11-08T07:00:00	7	Dirección del viento	3.22
25135	7	Sololá	712	San Antonio Palopó	9	San Antonio Palopo	12	Diciembre	2023-12-16T00:00:00	2024-11-08T07:00:00	1	Precipitación	0
25136	7	Sololá	712	San Antonio Palopó	9	San Antonio Palopo	12	Diciembre	2023-12-16T00:00:00	2024-11-08T07:00:00	8	Radiación solar	7
25137	7	Sololá	712	San Antonio Palopó	9	San Antonio Palopo	12	Diciembre	2023-12-16T00:00:00	2024-11-08T08:00:00	2	Temperatura media	16.9
25138	7	Sololá	712	San Antonio Palopó	9	San Antonio Palopo	12	Diciembre	2023-12-16T00:00:00	2024-11-08T08:00:00	4	Temperatura máxima	17.1
25139	7	Sololá	712	San Antonio Palopó	9	San Antonio Palopo	12	Diciembre	2023-12-16T00:00:00	2024-11-08T08:00:00	3	Temperatura mínima	16.4
25140	7	Sololá	712	San Antonio Palopó	9	San Antonio Palopo	12	Diciembre	2023-12-16T00:00:00	2024-11-08T08:00:00	5	Humedad	80
25141	7	Sololá	712	San Antonio Palopó	9	San Antonio Palopo	12	Diciembre	2023-12-16T00:00:00	2024-11-08T08:00:00	6	Velocidad del viento	1.6
25142	7	Sololá	712	San Antonio Palopó	9	San Antonio Palopo	12	Diciembre	2023-12-16T00:00:00	2024-11-08T08:00:00	7	Dirección del viento	1.61
25143	7	Sololá	712	San Antonio Palopó	9	San Antonio Palopo	12	Diciembre	2023-12-16T00:00:00	2024-11-08T08:00:00	1	Precipitación	0
25144	7	Sololá	712	San Antonio Palopó	9	San Antonio Palopo	12	Diciembre	2023-12-16T00:00:00	2024-11-08T08:00:00	8	Radiación solar	29
25145	7	Sololá	712	San Antonio Palopó	9	San Antonio Palopo	12	Diciembre	2023-12-16T00:00:00	2024-11-08T09:00:00	2	Temperatura media	18.1
25146	7	Sololá	712	San Antonio Palopó	9	San Antonio Palopo	12	Diciembre	2023-12-16T00:00:00	2024-11-08T09:00:00	4	Temperatura máxima	18.1
25147	7	Sololá	712	San Antonio Palopó	9	San Antonio Palopo	12	Diciembre	2023-12-16T00:00:00	2024-11-08T09:00:00	3	Temperatura mínima	16.6
25148	7	Sololá	712	San Antonio Palopó	9	San Antonio Palopo	12	Diciembre	2023-12-16T00:00:00	2024-11-08T09:00:00	5	Humedad	80
25149	7	Sololá	712	San Antonio Palopó	9	San Antonio Palopo	12	Diciembre	2023-12-16T00:00:00	2024-11-08T09:00:00	6	Velocidad del viento	3.2
25150	7	Sololá	712	San Antonio Palopó	9	San Antonio Palopo	12	Diciembre	2023-12-16T00:00:00	2024-11-08T09:00:00	7	Dirección del viento	3.22
25151	7	Sololá	712	San Antonio Palopó	9	San Antonio Palopo	12	Diciembre	2023-12-16T00:00:00	2024-11-08T09:00:00	1	Precipitación	0
25152	7	Sololá	712	San Antonio Palopó	9	San Antonio Palopo	12	Diciembre	2023-12-16T00:00:00	2024-11-08T09:00:00	8	Radiación solar	136
25153	7	Sololá	712	San Antonio Palopó	9	San Antonio Palopo	12	Diciembre	2023-12-16T00:00:00	2024-11-08T10:00:00	2	Temperatura media	20.6
25154	7	Sololá	712	San Antonio Palopó	9	San Antonio Palopo	12	Diciembre	2023-12-16T00:00:00	2024-11-08T10:00:00	4	Temperatura máxima	20.6
25155	7	Sololá	712	San Antonio Palopó	9	San Antonio Palopo	12	Diciembre	2023-12-16T00:00:00	2024-11-08T10:00:00	3	Temperatura mínima	18.1
25156	7	Sololá	712	San Antonio Palopó	9	San Antonio Palopo	12	Diciembre	2023-12-16T00:00:00	2024-11-08T10:00:00	5	Humedad	72
25157	7	Sololá	712	San Antonio Palopó	9	San Antonio Palopo	12	Diciembre	2023-12-16T00:00:00	2024-11-08T10:00:00	6	Velocidad del viento	3.2
25158	7	Sololá	712	San Antonio Palopó	9	San Antonio Palopo	12	Diciembre	2023-12-16T00:00:00	2024-11-08T10:00:00	7	Dirección del viento	3.22
25159	7	Sololá	712	San Antonio Palopó	9	San Antonio Palopo	12	Diciembre	2023-12-16T00:00:00	2024-11-08T10:00:00	1	Precipitación	0
25160	7	Sololá	712	San Antonio Palopó	9	San Antonio Palopo	12	Diciembre	2023-12-16T00:00:00	2024-11-08T10:00:00	8	Radiación solar	526
25161	7	Sololá	712	San Antonio Palopó	9	San Antonio Palopo	12	Diciembre	2023-12-16T00:00:00	2024-11-08T11:00:00	2	Temperatura media	21.4
25162	7	Sololá	712	San Antonio Palopó	9	San Antonio Palopo	12	Diciembre	2023-12-16T00:00:00	2024-11-08T11:00:00	4	Temperatura máxima	21.8
25163	7	Sololá	712	San Antonio Palopó	9	San Antonio Palopo	12	Diciembre	2023-12-16T00:00:00	2024-11-08T11:00:00	3	Temperatura mínima	20.4
25164	7	Sololá	712	San Antonio Palopó	9	San Antonio Palopo	12	Diciembre	2023-12-16T00:00:00	2024-11-08T11:00:00	5	Humedad	74
25165	7	Sololá	712	San Antonio Palopó	9	San Antonio Palopo	12	Diciembre	2023-12-16T00:00:00	2024-11-08T11:00:00	6	Velocidad del viento	3.2
25166	7	Sololá	712	San Antonio Palopó	9	San Antonio Palopo	12	Diciembre	2023-12-16T00:00:00	2024-11-08T11:00:00	7	Dirección del viento	3.22
25167	7	Sololá	712	San Antonio Palopó	9	San Antonio Palopo	12	Diciembre	2023-12-16T00:00:00	2024-11-08T11:00:00	1	Precipitación	0
25168	7	Sololá	712	San Antonio Palopó	9	San Antonio Palopo	12	Diciembre	2023-12-16T00:00:00	2024-11-08T11:00:00	8	Radiación solar	683
25169	7	Sololá	712	San Antonio Palopó	9	San Antonio Palopo	12	Diciembre	2023-12-16T00:00:00	2024-11-08T12:00:00	2	Temperatura media	22.2
25170	7	Sololá	712	San Antonio Palopó	9	San Antonio Palopo	12	Diciembre	2023-12-16T00:00:00	2024-11-08T12:00:00	4	Temperatura máxima	22.2
25171	7	Sololá	712	San Antonio Palopó	9	San Antonio Palopo	12	Diciembre	2023-12-16T00:00:00	2024-11-08T12:00:00	3	Temperatura mínima	20.7
25172	7	Sololá	712	San Antonio Palopó	9	San Antonio Palopo	12	Diciembre	2023-12-16T00:00:00	2024-11-08T12:00:00	5	Humedad	70
25173	7	Sololá	712	San Antonio Palopó	9	San Antonio Palopo	12	Diciembre	2023-12-16T00:00:00	2024-11-08T12:00:00	6	Velocidad del viento	4.8
25174	7	Sololá	712	San Antonio Palopó	9	San Antonio Palopo	12	Diciembre	2023-12-16T00:00:00	2024-11-08T12:00:00	7	Dirección del viento	4.83
25175	7	Sololá	712	San Antonio Palopó	9	San Antonio Palopo	12	Diciembre	2023-12-16T00:00:00	2024-11-08T12:00:00	1	Precipitación	0
25176	7	Sololá	712	San Antonio Palopó	9	San Antonio Palopo	12	Diciembre	2023-12-16T00:00:00	2024-11-08T12:00:00	8	Radiación solar	514
25177	7	Sololá	712	San Antonio Palopó	9	San Antonio Palopo	12	Diciembre	2023-12-16T00:00:00	2024-11-08T13:00:00	2	Temperatura media	23.2
25178	7	Sololá	712	San Antonio Palopó	9	San Antonio Palopo	12	Diciembre	2023-12-16T00:00:00	2024-11-08T13:00:00	4	Temperatura máxima	23.2
25179	7	Sololá	712	San Antonio Palopó	9	San Antonio Palopo	12	Diciembre	2023-12-16T00:00:00	2024-11-08T13:00:00	3	Temperatura mínima	22.2
25180	7	Sololá	712	San Antonio Palopó	9	San Antonio Palopo	12	Diciembre	2023-12-16T00:00:00	2024-11-08T13:00:00	5	Humedad	72
25181	7	Sololá	712	San Antonio Palopó	9	San Antonio Palopo	12	Diciembre	2023-12-16T00:00:00	2024-11-08T13:00:00	6	Velocidad del viento	3.2
25182	7	Sololá	712	San Antonio Palopó	9	San Antonio Palopo	12	Diciembre	2023-12-16T00:00:00	2024-11-08T13:00:00	7	Dirección del viento	3.22
25183	7	Sololá	712	San Antonio Palopó	9	San Antonio Palopo	12	Diciembre	2023-12-16T00:00:00	2024-11-08T13:00:00	1	Precipitación	0
25184	7	Sololá	712	San Antonio Palopó	9	San Antonio Palopo	12	Diciembre	2023-12-16T00:00:00	2024-11-08T13:00:00	8	Radiación solar	734
25185	7	Sololá	712	San Antonio Palopó	9	San Antonio Palopo	12	Diciembre	2023-12-16T00:00:00	2024-11-08T14:00:00	2	Temperatura media	24.7
25186	7	Sololá	712	San Antonio Palopó	9	San Antonio Palopo	12	Diciembre	2023-12-16T00:00:00	2024-11-08T14:00:00	4	Temperatura máxima	24.8
25187	7	Sololá	712	San Antonio Palopó	9	San Antonio Palopo	12	Diciembre	2023-12-16T00:00:00	2024-11-08T14:00:00	3	Temperatura mínima	23.2
25188	7	Sololá	712	San Antonio Palopó	9	San Antonio Palopo	12	Diciembre	2023-12-16T00:00:00	2024-11-08T14:00:00	5	Humedad	69
25189	7	Sololá	712	San Antonio Palopó	9	San Antonio Palopo	12	Diciembre	2023-12-16T00:00:00	2024-11-08T14:00:00	6	Velocidad del viento	6.4
25190	7	Sololá	712	San Antonio Palopó	9	San Antonio Palopo	12	Diciembre	2023-12-16T00:00:00	2024-11-08T14:00:00	7	Dirección del viento	6.44
25191	7	Sololá	712	San Antonio Palopó	9	San Antonio Palopo	12	Diciembre	2023-12-16T00:00:00	2024-11-08T14:00:00	1	Precipitación	0
25192	7	Sololá	712	San Antonio Palopó	9	San Antonio Palopo	12	Diciembre	2023-12-16T00:00:00	2024-11-08T14:00:00	8	Radiación solar	759
25193	7	Sololá	712	San Antonio Palopó	9	San Antonio Palopo	12	Diciembre	2023-12-16T00:00:00	2024-11-08T15:00:00	2	Temperatura media	23.1
25194	7	Sololá	712	San Antonio Palopó	9	San Antonio Palopo	12	Diciembre	2023-12-16T00:00:00	2024-11-08T15:00:00	4	Temperatura máxima	24.7
25195	7	Sololá	712	San Antonio Palopó	9	San Antonio Palopo	12	Diciembre	2023-12-16T00:00:00	2024-11-08T15:00:00	3	Temperatura mínima	23.1
25196	7	Sololá	712	San Antonio Palopó	9	San Antonio Palopo	12	Diciembre	2023-12-16T00:00:00	2024-11-08T15:00:00	5	Humedad	73
25197	7	Sololá	712	San Antonio Palopó	9	San Antonio Palopo	12	Diciembre	2023-12-16T00:00:00	2024-11-08T15:00:00	6	Velocidad del viento	9.7
25198	7	Sololá	712	San Antonio Palopó	9	San Antonio Palopo	12	Diciembre	2023-12-16T00:00:00	2024-11-08T15:00:00	7	Dirección del viento	9.66
25199	7	Sololá	712	San Antonio Palopó	9	San Antonio Palopo	12	Diciembre	2023-12-16T00:00:00	2024-11-08T15:00:00	1	Precipitación	0
25200	7	Sololá	712	San Antonio Palopó	9	San Antonio Palopo	12	Diciembre	2023-12-16T00:00:00	2024-11-08T15:00:00	8	Radiación solar	631
25201	7	Sololá	712	San Antonio Palopó	9	San Antonio Palopo	12	Diciembre	2023-12-16T00:00:00	2024-11-08T16:00:00	2	Temperatura media	21.9
25202	7	Sololá	712	San Antonio Palopó	9	San Antonio Palopo	12	Diciembre	2023-12-16T00:00:00	2024-11-08T16:00:00	4	Temperatura máxima	23.3
25203	7	Sololá	712	San Antonio Palopó	9	San Antonio Palopo	12	Diciembre	2023-12-16T00:00:00	2024-11-08T16:00:00	3	Temperatura mínima	21.9
25204	7	Sololá	712	San Antonio Palopó	9	San Antonio Palopo	12	Diciembre	2023-12-16T00:00:00	2024-11-08T16:00:00	5	Humedad	77
25205	7	Sololá	712	San Antonio Palopó	9	San Antonio Palopo	12	Diciembre	2023-12-16T00:00:00	2024-11-08T16:00:00	6	Velocidad del viento	11.3
25206	7	Sololá	712	San Antonio Palopó	9	San Antonio Palopo	12	Diciembre	2023-12-16T00:00:00	2024-11-08T16:00:00	7	Dirección del viento	11.27
25207	7	Sololá	712	San Antonio Palopó	9	San Antonio Palopo	12	Diciembre	2023-12-16T00:00:00	2024-11-08T16:00:00	1	Precipitación	0
25208	7	Sololá	712	San Antonio Palopó	9	San Antonio Palopo	12	Diciembre	2023-12-16T00:00:00	2024-11-08T16:00:00	8	Radiación solar	384
25209	7	Sololá	712	San Antonio Palopó	9	San Antonio Palopo	12	Diciembre	2023-12-16T00:00:00	2024-11-08T17:00:00	2	Temperatura media	21.1
25210	7	Sololá	712	San Antonio Palopó	9	San Antonio Palopo	12	Diciembre	2023-12-16T00:00:00	2024-11-08T17:00:00	4	Temperatura máxima	23.1
25211	7	Sololá	712	San Antonio Palopó	9	San Antonio Palopo	12	Diciembre	2023-12-16T00:00:00	2024-11-08T17:00:00	3	Temperatura mínima	21.1
25212	7	Sololá	712	San Antonio Palopó	9	San Antonio Palopo	12	Diciembre	2023-12-16T00:00:00	2024-11-08T17:00:00	5	Humedad	80
25213	7	Sololá	712	San Antonio Palopó	9	San Antonio Palopo	12	Diciembre	2023-12-16T00:00:00	2024-11-08T17:00:00	6	Velocidad del viento	6.4
25214	7	Sololá	712	San Antonio Palopó	9	San Antonio Palopo	12	Diciembre	2023-12-16T00:00:00	2024-11-08T17:00:00	7	Dirección del viento	6.44
25215	7	Sololá	712	San Antonio Palopó	9	San Antonio Palopo	12	Diciembre	2023-12-16T00:00:00	2024-11-08T17:00:00	1	Precipitación	0
25216	7	Sololá	712	San Antonio Palopó	9	San Antonio Palopo	12	Diciembre	2023-12-16T00:00:00	2024-11-08T17:00:00	8	Radiación solar	150
25217	7	Sololá	712	San Antonio Palopó	9	San Antonio Palopo	12	Diciembre	2023-12-16T00:00:00	2024-11-08T18:00:00	2	Temperatura media	20.3
25218	7	Sololá	712	San Antonio Palopó	9	San Antonio Palopo	12	Diciembre	2023-12-16T00:00:00	2024-11-08T18:00:00	4	Temperatura máxima	21
25219	7	Sololá	712	San Antonio Palopó	9	San Antonio Palopo	12	Diciembre	2023-12-16T00:00:00	2024-11-08T18:00:00	3	Temperatura mínima	20.3
25220	7	Sololá	712	San Antonio Palopó	9	San Antonio Palopo	12	Diciembre	2023-12-16T00:00:00	2024-11-08T18:00:00	5	Humedad	82
25221	7	Sololá	712	San Antonio Palopó	9	San Antonio Palopo	12	Diciembre	2023-12-16T00:00:00	2024-11-08T18:00:00	6	Velocidad del viento	3.2
25222	7	Sololá	712	San Antonio Palopó	9	San Antonio Palopo	12	Diciembre	2023-12-16T00:00:00	2024-11-08T18:00:00	7	Dirección del viento	3.22
25223	7	Sololá	712	San Antonio Palopó	9	San Antonio Palopo	12	Diciembre	2023-12-16T00:00:00	2024-11-08T18:00:00	1	Precipitación	0
25224	7	Sololá	712	San Antonio Palopó	9	San Antonio Palopo	12	Diciembre	2023-12-16T00:00:00	2024-11-08T18:00:00	8	Radiación solar	8
25225	7	Sololá	712	San Antonio Palopó	9	San Antonio Palopo	12	Diciembre	2023-12-16T00:00:00	2024-11-08T19:00:00	2	Temperatura media	19.2
25226	7	Sololá	712	San Antonio Palopó	9	San Antonio Palopo	12	Diciembre	2023-12-16T00:00:00	2024-11-08T19:00:00	4	Temperatura máxima	20.3
25227	7	Sololá	712	San Antonio Palopó	9	San Antonio Palopo	12	Diciembre	2023-12-16T00:00:00	2024-11-08T19:00:00	3	Temperatura mínima	19.2
25228	7	Sololá	712	San Antonio Palopó	9	San Antonio Palopo	12	Diciembre	2023-12-16T00:00:00	2024-11-08T19:00:00	5	Humedad	80
25229	7	Sololá	712	San Antonio Palopó	9	San Antonio Palopo	12	Diciembre	2023-12-16T00:00:00	2024-11-08T19:00:00	6	Velocidad del viento	1.6
25230	7	Sololá	712	San Antonio Palopó	9	San Antonio Palopo	12	Diciembre	2023-12-16T00:00:00	2024-11-08T19:00:00	7	Dirección del viento	1.61
25231	7	Sololá	712	San Antonio Palopó	9	San Antonio Palopo	12	Diciembre	2023-12-16T00:00:00	2024-11-08T19:00:00	1	Precipitación	0
25232	7	Sololá	712	San Antonio Palopó	9	San Antonio Palopo	12	Diciembre	2023-12-16T00:00:00	2024-11-08T19:00:00	8	Radiación solar	0
25233	7	Sololá	712	San Antonio Palopó	9	San Antonio Palopo	12	Diciembre	2023-12-16T00:00:00	2024-11-08T20:00:00	2	Temperatura media	19.9
25234	7	Sololá	712	San Antonio Palopó	9	San Antonio Palopo	12	Diciembre	2023-12-16T00:00:00	2024-11-08T20:00:00	4	Temperatura máxima	20.2
25235	7	Sololá	712	San Antonio Palopó	9	San Antonio Palopo	12	Diciembre	2023-12-16T00:00:00	2024-11-08T20:00:00	3	Temperatura mínima	19.1
25236	7	Sololá	712	San Antonio Palopó	9	San Antonio Palopo	12	Diciembre	2023-12-16T00:00:00	2024-11-08T20:00:00	5	Humedad	72
25237	7	Sololá	712	San Antonio Palopó	9	San Antonio Palopo	12	Diciembre	2023-12-16T00:00:00	2024-11-08T20:00:00	6	Velocidad del viento	6.4
25238	7	Sololá	712	San Antonio Palopó	9	San Antonio Palopo	12	Diciembre	2023-12-16T00:00:00	2024-11-08T20:00:00	7	Dirección del viento	6.44
25239	7	Sololá	712	San Antonio Palopó	9	San Antonio Palopo	12	Diciembre	2023-12-16T00:00:00	2024-11-08T20:00:00	1	Precipitación	0
25240	7	Sololá	712	San Antonio Palopó	9	San Antonio Palopo	12	Diciembre	2023-12-16T00:00:00	2024-11-08T20:00:00	8	Radiación solar	0
25241	7	Sololá	712	San Antonio Palopó	9	San Antonio Palopo	12	Diciembre	2023-12-16T00:00:00	2024-11-08T21:00:00	2	Temperatura media	20.1
25242	7	Sololá	712	San Antonio Palopó	9	San Antonio Palopo	12	Diciembre	2023-12-16T00:00:00	2024-11-08T21:00:00	4	Temperatura máxima	20.3
25243	7	Sololá	712	San Antonio Palopó	9	San Antonio Palopo	12	Diciembre	2023-12-16T00:00:00	2024-11-08T21:00:00	3	Temperatura mínima	19.8
25244	7	Sololá	712	San Antonio Palopó	9	San Antonio Palopo	12	Diciembre	2023-12-16T00:00:00	2024-11-08T21:00:00	5	Humedad	70
25245	7	Sololá	712	San Antonio Palopó	9	San Antonio Palopo	12	Diciembre	2023-12-16T00:00:00	2024-11-08T21:00:00	6	Velocidad del viento	8
25246	7	Sololá	712	San Antonio Palopó	9	San Antonio Palopo	12	Diciembre	2023-12-16T00:00:00	2024-11-08T21:00:00	7	Dirección del viento	8.05
25247	7	Sololá	712	San Antonio Palopó	9	San Antonio Palopo	12	Diciembre	2023-12-16T00:00:00	2024-11-08T21:00:00	1	Precipitación	0
25248	7	Sololá	712	San Antonio Palopó	9	San Antonio Palopo	12	Diciembre	2023-12-16T00:00:00	2024-11-08T21:00:00	8	Radiación solar	0
25249	7	Sololá	712	San Antonio Palopó	9	San Antonio Palopo	12	Diciembre	2023-12-16T00:00:00	2024-11-08T22:00:00	2	Temperatura media	19.9
25250	7	Sololá	712	San Antonio Palopó	9	San Antonio Palopo	12	Diciembre	2023-12-16T00:00:00	2024-11-08T22:00:00	4	Temperatura máxima	20.1
25251	7	Sololá	712	San Antonio Palopó	9	San Antonio Palopo	12	Diciembre	2023-12-16T00:00:00	2024-11-08T22:00:00	3	Temperatura mínima	19.4
25252	7	Sololá	712	San Antonio Palopó	9	San Antonio Palopo	12	Diciembre	2023-12-16T00:00:00	2024-11-08T22:00:00	5	Humedad	70
25253	7	Sololá	712	San Antonio Palopó	9	San Antonio Palopo	12	Diciembre	2023-12-16T00:00:00	2024-11-08T22:00:00	6	Velocidad del viento	6.4
25254	7	Sololá	712	San Antonio Palopó	9	San Antonio Palopo	12	Diciembre	2023-12-16T00:00:00	2024-11-08T22:00:00	7	Dirección del viento	6.44
25255	7	Sololá	712	San Antonio Palopó	9	San Antonio Palopo	12	Diciembre	2023-12-16T00:00:00	2024-11-08T22:00:00	1	Precipitación	0
25256	7	Sololá	712	San Antonio Palopó	9	San Antonio Palopo	12	Diciembre	2023-12-16T00:00:00	2024-11-08T22:00:00	8	Radiación solar	0
25257	7	Sololá	712	San Antonio Palopó	9	San Antonio Palopo	12	Diciembre	2023-12-16T00:00:00	2024-11-08T23:00:00	2	Temperatura media	19.8
25258	7	Sololá	712	San Antonio Palopó	9	San Antonio Palopo	12	Diciembre	2023-12-16T00:00:00	2024-11-08T23:00:00	4	Temperatura máxima	20
25259	7	Sololá	712	San Antonio Palopó	9	San Antonio Palopo	12	Diciembre	2023-12-16T00:00:00	2024-11-08T23:00:00	3	Temperatura mínima	19.7
25260	7	Sololá	712	San Antonio Palopó	9	San Antonio Palopo	12	Diciembre	2023-12-16T00:00:00	2024-11-08T23:00:00	5	Humedad	68
25261	7	Sololá	712	San Antonio Palopó	9	San Antonio Palopo	12	Diciembre	2023-12-16T00:00:00	2024-11-08T23:00:00	6	Velocidad del viento	6.4
25262	7	Sololá	712	San Antonio Palopó	9	San Antonio Palopo	12	Diciembre	2023-12-16T00:00:00	2024-11-08T23:00:00	7	Dirección del viento	6.44
25263	7	Sololá	712	San Antonio Palopó	9	San Antonio Palopo	12	Diciembre	2023-12-16T00:00:00	2024-11-08T23:00:00	1	Precipitación	0
25264	7	Sololá	712	San Antonio Palopó	9	San Antonio Palopo	12	Diciembre	2023-12-16T00:00:00	2024-11-08T23:00:00	8	Radiación solar	0
25265	7	Sololá	712	San Antonio Palopó	9	San Antonio Palopo	12	Diciembre	2023-12-17T00:00:00	2024-11-08T00:00:00	2	Temperatura media	19.2
25266	7	Sololá	712	San Antonio Palopó	9	San Antonio Palopo	12	Diciembre	2023-12-17T00:00:00	2024-11-08T00:00:00	4	Temperatura máxima	19.9
25267	7	Sololá	712	San Antonio Palopó	9	San Antonio Palopo	12	Diciembre	2023-12-17T00:00:00	2024-11-08T00:00:00	3	Temperatura mínima	19.2
25268	7	Sololá	712	San Antonio Palopó	9	San Antonio Palopo	12	Diciembre	2023-12-17T00:00:00	2024-11-08T00:00:00	5	Humedad	69
25269	7	Sololá	712	San Antonio Palopó	9	San Antonio Palopo	12	Diciembre	2023-12-17T00:00:00	2024-11-08T00:00:00	6	Velocidad del viento	3.2
25270	7	Sololá	712	San Antonio Palopó	9	San Antonio Palopo	12	Diciembre	2023-12-17T00:00:00	2024-11-08T00:00:00	7	Dirección del viento	3.22
25271	7	Sololá	712	San Antonio Palopó	9	San Antonio Palopo	12	Diciembre	2023-12-17T00:00:00	2024-11-08T00:00:00	1	Precipitación	0
25272	7	Sololá	712	San Antonio Palopó	9	San Antonio Palopo	12	Diciembre	2023-12-17T00:00:00	2024-11-08T00:00:00	8	Radiación solar	0
25273	7	Sololá	712	San Antonio Palopó	9	San Antonio Palopo	12	Diciembre	2023-12-17T00:00:00	2024-11-08T01:00:00	2	Temperatura media	19.2
25274	7	Sololá	712	San Antonio Palopó	9	San Antonio Palopo	12	Diciembre	2023-12-17T00:00:00	2024-11-08T01:00:00	4	Temperatura máxima	19.3
25275	7	Sololá	712	San Antonio Palopó	9	San Antonio Palopo	12	Diciembre	2023-12-17T00:00:00	2024-11-08T01:00:00	3	Temperatura mínima	19.1
25276	7	Sololá	712	San Antonio Palopó	9	San Antonio Palopo	12	Diciembre	2023-12-17T00:00:00	2024-11-08T01:00:00	5	Humedad	68
25277	7	Sololá	712	San Antonio Palopó	9	San Antonio Palopo	12	Diciembre	2023-12-17T00:00:00	2024-11-08T01:00:00	6	Velocidad del viento	8
25278	7	Sololá	712	San Antonio Palopó	9	San Antonio Palopo	12	Diciembre	2023-12-17T00:00:00	2024-11-08T01:00:00	7	Dirección del viento	8.05
25279	7	Sololá	712	San Antonio Palopó	9	San Antonio Palopo	12	Diciembre	2023-12-17T00:00:00	2024-11-08T01:00:00	1	Precipitación	0
25280	7	Sololá	712	San Antonio Palopó	9	San Antonio Palopo	12	Diciembre	2023-12-17T00:00:00	2024-11-08T01:00:00	8	Radiación solar	0
25281	7	Sololá	712	San Antonio Palopó	9	San Antonio Palopo	12	Diciembre	2023-12-17T00:00:00	2024-11-08T02:00:00	2	Temperatura media	18.9
25282	7	Sololá	712	San Antonio Palopó	9	San Antonio Palopo	12	Diciembre	2023-12-17T00:00:00	2024-11-08T02:00:00	4	Temperatura máxima	19.2
25283	7	Sololá	712	San Antonio Palopó	9	San Antonio Palopo	12	Diciembre	2023-12-17T00:00:00	2024-11-08T02:00:00	3	Temperatura mínima	18.5
25284	7	Sololá	712	San Antonio Palopó	9	San Antonio Palopo	12	Diciembre	2023-12-17T00:00:00	2024-11-08T02:00:00	5	Humedad	67
25285	7	Sololá	712	San Antonio Palopó	9	San Antonio Palopo	12	Diciembre	2023-12-17T00:00:00	2024-11-08T02:00:00	6	Velocidad del viento	12.9
25286	7	Sololá	712	San Antonio Palopó	9	San Antonio Palopo	12	Diciembre	2023-12-17T00:00:00	2024-11-08T02:00:00	7	Dirección del viento	12.87
25287	7	Sololá	712	San Antonio Palopó	9	San Antonio Palopo	12	Diciembre	2023-12-17T00:00:00	2024-11-08T02:00:00	1	Precipitación	0
25288	7	Sololá	712	San Antonio Palopó	9	San Antonio Palopo	12	Diciembre	2023-12-17T00:00:00	2024-11-08T02:00:00	8	Radiación solar	0
25289	7	Sololá	712	San Antonio Palopó	9	San Antonio Palopo	12	Diciembre	2023-12-17T00:00:00	2024-11-08T03:00:00	2	Temperatura media	18.3
25290	7	Sololá	712	San Antonio Palopó	9	San Antonio Palopo	12	Diciembre	2023-12-17T00:00:00	2024-11-08T03:00:00	4	Temperatura máxima	19
25291	7	Sololá	712	San Antonio Palopó	9	San Antonio Palopo	12	Diciembre	2023-12-17T00:00:00	2024-11-08T03:00:00	3	Temperatura mínima	18.3
25292	7	Sololá	712	San Antonio Palopó	9	San Antonio Palopo	12	Diciembre	2023-12-17T00:00:00	2024-11-08T03:00:00	5	Humedad	68
25293	7	Sololá	712	San Antonio Palopó	9	San Antonio Palopo	12	Diciembre	2023-12-17T00:00:00	2024-11-08T03:00:00	6	Velocidad del viento	20.9
25294	7	Sololá	712	San Antonio Palopó	9	San Antonio Palopo	12	Diciembre	2023-12-17T00:00:00	2024-11-08T03:00:00	7	Dirección del viento	20.92
25295	7	Sololá	712	San Antonio Palopó	9	San Antonio Palopo	12	Diciembre	2023-12-17T00:00:00	2024-11-08T03:00:00	1	Precipitación	0
25296	7	Sololá	712	San Antonio Palopó	9	San Antonio Palopo	12	Diciembre	2023-12-17T00:00:00	2024-11-08T03:00:00	8	Radiación solar	0
25297	7	Sololá	712	San Antonio Palopó	9	San Antonio Palopo	12	Diciembre	2023-12-17T00:00:00	2024-11-08T04:00:00	2	Temperatura media	17.6
25298	7	Sololá	712	San Antonio Palopó	9	San Antonio Palopo	12	Diciembre	2023-12-17T00:00:00	2024-11-08T04:00:00	4	Temperatura máxima	18.4
25299	7	Sololá	712	San Antonio Palopó	9	San Antonio Palopo	12	Diciembre	2023-12-17T00:00:00	2024-11-08T04:00:00	3	Temperatura mínima	17.6
25300	7	Sololá	712	San Antonio Palopó	9	San Antonio Palopo	12	Diciembre	2023-12-17T00:00:00	2024-11-08T04:00:00	5	Humedad	69
25301	7	Sololá	712	San Antonio Palopó	9	San Antonio Palopo	12	Diciembre	2023-12-17T00:00:00	2024-11-08T04:00:00	6	Velocidad del viento	24.1
25302	7	Sololá	712	San Antonio Palopó	9	San Antonio Palopo	12	Diciembre	2023-12-17T00:00:00	2024-11-08T04:00:00	7	Dirección del viento	24.14
25303	7	Sololá	712	San Antonio Palopó	9	San Antonio Palopo	12	Diciembre	2023-12-17T00:00:00	2024-11-08T04:00:00	1	Precipitación	0
25304	7	Sololá	712	San Antonio Palopó	9	San Antonio Palopo	12	Diciembre	2023-12-17T00:00:00	2024-11-08T04:00:00	8	Radiación solar	0
25305	7	Sololá	712	San Antonio Palopó	9	San Antonio Palopo	12	Diciembre	2023-12-17T00:00:00	2024-11-08T05:00:00	2	Temperatura media	17.2
25306	7	Sololá	712	San Antonio Palopó	9	San Antonio Palopo	12	Diciembre	2023-12-17T00:00:00	2024-11-08T05:00:00	4	Temperatura máxima	17.6
25307	7	Sololá	712	San Antonio Palopó	9	San Antonio Palopo	12	Diciembre	2023-12-17T00:00:00	2024-11-08T05:00:00	3	Temperatura mínima	16.9
25308	7	Sololá	712	San Antonio Palopó	9	San Antonio Palopo	12	Diciembre	2023-12-17T00:00:00	2024-11-08T05:00:00	5	Humedad	68
25309	7	Sololá	712	San Antonio Palopó	9	San Antonio Palopo	12	Diciembre	2023-12-17T00:00:00	2024-11-08T05:00:00	6	Velocidad del viento	22.5
25310	7	Sololá	712	San Antonio Palopó	9	San Antonio Palopo	12	Diciembre	2023-12-17T00:00:00	2024-11-08T05:00:00	7	Dirección del viento	22.53
25311	7	Sololá	712	San Antonio Palopó	9	San Antonio Palopo	12	Diciembre	2023-12-17T00:00:00	2024-11-08T05:00:00	1	Precipitación	0
25312	7	Sololá	712	San Antonio Palopó	9	San Antonio Palopo	12	Diciembre	2023-12-17T00:00:00	2024-11-08T05:00:00	8	Radiación solar	0
25313	7	Sololá	712	San Antonio Palopó	9	San Antonio Palopo	12	Diciembre	2023-12-17T00:00:00	2024-11-08T06:00:00	2	Temperatura media	16.8
25314	7	Sololá	712	San Antonio Palopó	9	San Antonio Palopo	12	Diciembre	2023-12-17T00:00:00	2024-11-08T06:00:00	4	Temperatura máxima	17.4
25315	7	Sololá	712	San Antonio Palopó	9	San Antonio Palopo	12	Diciembre	2023-12-17T00:00:00	2024-11-08T06:00:00	3	Temperatura mínima	16.8
25316	7	Sololá	712	San Antonio Palopó	9	San Antonio Palopo	12	Diciembre	2023-12-17T00:00:00	2024-11-08T06:00:00	5	Humedad	68
25317	7	Sololá	712	San Antonio Palopó	9	San Antonio Palopo	12	Diciembre	2023-12-17T00:00:00	2024-11-08T06:00:00	6	Velocidad del viento	20.9
25318	7	Sololá	712	San Antonio Palopó	9	San Antonio Palopo	12	Diciembre	2023-12-17T00:00:00	2024-11-08T06:00:00	7	Dirección del viento	20.92
25319	7	Sololá	712	San Antonio Palopó	9	San Antonio Palopo	12	Diciembre	2023-12-17T00:00:00	2024-11-08T06:00:00	1	Precipitación	0
25320	7	Sololá	712	San Antonio Palopó	9	San Antonio Palopo	12	Diciembre	2023-12-17T00:00:00	2024-11-08T06:00:00	8	Radiación solar	0
25321	7	Sololá	712	San Antonio Palopó	9	San Antonio Palopo	12	Diciembre	2023-12-17T00:00:00	2024-11-08T07:00:00	2	Temperatura media	16.5
25322	7	Sololá	712	San Antonio Palopó	9	San Antonio Palopo	12	Diciembre	2023-12-17T00:00:00	2024-11-08T07:00:00	4	Temperatura máxima	16.9
25323	7	Sololá	712	San Antonio Palopó	9	San Antonio Palopo	12	Diciembre	2023-12-17T00:00:00	2024-11-08T07:00:00	3	Temperatura mínima	16.4
25324	7	Sololá	712	San Antonio Palopó	9	San Antonio Palopo	12	Diciembre	2023-12-17T00:00:00	2024-11-08T07:00:00	5	Humedad	70
25325	7	Sololá	712	San Antonio Palopó	9	San Antonio Palopo	12	Diciembre	2023-12-17T00:00:00	2024-11-08T07:00:00	6	Velocidad del viento	22.5
25326	7	Sololá	712	San Antonio Palopó	9	San Antonio Palopo	12	Diciembre	2023-12-17T00:00:00	2024-11-08T07:00:00	7	Dirección del viento	22.53
25327	7	Sololá	712	San Antonio Palopó	9	San Antonio Palopo	12	Diciembre	2023-12-17T00:00:00	2024-11-08T07:00:00	1	Precipitación	0
25328	7	Sololá	712	San Antonio Palopó	9	San Antonio Palopo	12	Diciembre	2023-12-17T00:00:00	2024-11-08T07:00:00	8	Radiación solar	6
25329	7	Sololá	712	San Antonio Palopó	9	San Antonio Palopo	12	Diciembre	2023-12-17T00:00:00	2024-11-08T08:00:00	2	Temperatura media	18.4
25330	7	Sololá	712	San Antonio Palopó	9	San Antonio Palopo	12	Diciembre	2023-12-17T00:00:00	2024-11-08T08:00:00	4	Temperatura máxima	18.4
25331	7	Sololá	712	San Antonio Palopó	9	San Antonio Palopo	12	Diciembre	2023-12-17T00:00:00	2024-11-08T08:00:00	3	Temperatura mínima	16.3
25332	7	Sololá	712	San Antonio Palopó	9	San Antonio Palopo	12	Diciembre	2023-12-17T00:00:00	2024-11-08T08:00:00	5	Humedad	66
25333	7	Sololá	712	San Antonio Palopó	9	San Antonio Palopo	12	Diciembre	2023-12-17T00:00:00	2024-11-08T08:00:00	6	Velocidad del viento	24.1
25334	7	Sololá	712	San Antonio Palopó	9	San Antonio Palopo	12	Diciembre	2023-12-17T00:00:00	2024-11-08T08:00:00	7	Dirección del viento	24.14
25335	7	Sololá	712	San Antonio Palopó	9	San Antonio Palopo	12	Diciembre	2023-12-17T00:00:00	2024-11-08T08:00:00	1	Precipitación	0
25336	7	Sololá	712	San Antonio Palopó	9	San Antonio Palopo	12	Diciembre	2023-12-17T00:00:00	2024-11-08T08:00:00	8	Radiación solar	20
25337	7	Sololá	712	San Antonio Palopó	9	San Antonio Palopo	12	Diciembre	2023-12-17T00:00:00	2024-11-08T09:00:00	2	Temperatura media	20.7
25338	7	Sololá	712	San Antonio Palopó	9	San Antonio Palopo	12	Diciembre	2023-12-17T00:00:00	2024-11-08T09:00:00	4	Temperatura máxima	20.7
25339	7	Sololá	712	San Antonio Palopó	9	San Antonio Palopo	12	Diciembre	2023-12-17T00:00:00	2024-11-08T09:00:00	3	Temperatura mínima	18.3
25340	7	Sololá	712	San Antonio Palopó	9	San Antonio Palopo	12	Diciembre	2023-12-17T00:00:00	2024-11-08T09:00:00	5	Humedad	59
25341	7	Sololá	712	San Antonio Palopó	9	San Antonio Palopo	12	Diciembre	2023-12-17T00:00:00	2024-11-08T09:00:00	6	Velocidad del viento	22.5
25342	7	Sololá	712	San Antonio Palopó	9	San Antonio Palopo	12	Diciembre	2023-12-17T00:00:00	2024-11-08T09:00:00	7	Dirección del viento	22.53
25343	7	Sololá	712	San Antonio Palopó	9	San Antonio Palopo	12	Diciembre	2023-12-17T00:00:00	2024-11-08T09:00:00	1	Precipitación	0
25344	7	Sololá	712	San Antonio Palopó	9	San Antonio Palopo	12	Diciembre	2023-12-17T00:00:00	2024-11-08T09:00:00	8	Radiación solar	119
25345	7	Sololá	712	San Antonio Palopó	9	San Antonio Palopo	12	Diciembre	2023-12-17T00:00:00	2024-11-08T10:00:00	2	Temperatura media	21.9
25346	7	Sololá	712	San Antonio Palopó	9	San Antonio Palopo	12	Diciembre	2023-12-17T00:00:00	2024-11-08T10:00:00	4	Temperatura máxima	21.9
25347	7	Sololá	712	San Antonio Palopó	9	San Antonio Palopo	12	Diciembre	2023-12-17T00:00:00	2024-11-08T10:00:00	3	Temperatura mínima	20.7
25348	7	Sololá	712	San Antonio Palopó	9	San Antonio Palopo	12	Diciembre	2023-12-17T00:00:00	2024-11-08T10:00:00	5	Humedad	54
25349	7	Sololá	712	San Antonio Palopó	9	San Antonio Palopo	12	Diciembre	2023-12-17T00:00:00	2024-11-08T10:00:00	6	Velocidad del viento	19.3
25350	7	Sololá	712	San Antonio Palopó	9	San Antonio Palopo	12	Diciembre	2023-12-17T00:00:00	2024-11-08T10:00:00	7	Dirección del viento	19.31
25351	7	Sololá	712	San Antonio Palopó	9	San Antonio Palopo	12	Diciembre	2023-12-17T00:00:00	2024-11-08T10:00:00	1	Precipitación	0
25352	7	Sololá	712	San Antonio Palopó	9	San Antonio Palopo	12	Diciembre	2023-12-17T00:00:00	2024-11-08T10:00:00	8	Radiación solar	550
25353	7	Sololá	712	San Antonio Palopó	9	San Antonio Palopo	12	Diciembre	2023-12-17T00:00:00	2024-11-08T11:00:00	2	Temperatura media	23.1
25354	7	Sololá	712	San Antonio Palopó	9	San Antonio Palopo	12	Diciembre	2023-12-17T00:00:00	2024-11-08T11:00:00	4	Temperatura máxima	23.1
25355	7	Sololá	712	San Antonio Palopó	9	San Antonio Palopo	12	Diciembre	2023-12-17T00:00:00	2024-11-08T11:00:00	3	Temperatura mínima	21.9
25356	7	Sololá	712	San Antonio Palopó	9	San Antonio Palopo	12	Diciembre	2023-12-17T00:00:00	2024-11-08T11:00:00	5	Humedad	57
25357	7	Sololá	712	San Antonio Palopó	9	San Antonio Palopo	12	Diciembre	2023-12-17T00:00:00	2024-11-08T11:00:00	6	Velocidad del viento	17.7
25358	7	Sololá	712	San Antonio Palopó	9	San Antonio Palopo	12	Diciembre	2023-12-17T00:00:00	2024-11-08T11:00:00	7	Dirección del viento	17.7
25359	7	Sololá	712	San Antonio Palopó	9	San Antonio Palopo	12	Diciembre	2023-12-17T00:00:00	2024-11-08T11:00:00	1	Precipitación	0
25360	7	Sololá	712	San Antonio Palopó	9	San Antonio Palopo	12	Diciembre	2023-12-17T00:00:00	2024-11-08T11:00:00	8	Radiación solar	674
25361	7	Sololá	712	San Antonio Palopó	9	San Antonio Palopo	12	Diciembre	2023-12-17T00:00:00	2024-11-08T12:00:00	2	Temperatura media	22.9
25362	7	Sololá	712	San Antonio Palopó	9	San Antonio Palopo	12	Diciembre	2023-12-17T00:00:00	2024-11-08T12:00:00	4	Temperatura máxima	23.2
25363	7	Sololá	712	San Antonio Palopó	9	San Antonio Palopo	12	Diciembre	2023-12-17T00:00:00	2024-11-08T12:00:00	3	Temperatura mínima	22.8
25364	7	Sololá	712	San Antonio Palopó	9	San Antonio Palopo	12	Diciembre	2023-12-17T00:00:00	2024-11-08T12:00:00	5	Humedad	54
25365	7	Sololá	712	San Antonio Palopó	9	San Antonio Palopo	12	Diciembre	2023-12-17T00:00:00	2024-11-08T12:00:00	6	Velocidad del viento	14.5
25366	7	Sololá	712	San Antonio Palopó	9	San Antonio Palopo	12	Diciembre	2023-12-17T00:00:00	2024-11-08T12:00:00	7	Dirección del viento	14.48
25367	7	Sololá	712	San Antonio Palopó	9	San Antonio Palopo	12	Diciembre	2023-12-17T00:00:00	2024-11-08T12:00:00	1	Precipitación	0
25368	7	Sololá	712	San Antonio Palopó	9	San Antonio Palopo	12	Diciembre	2023-12-17T00:00:00	2024-11-08T12:00:00	8	Radiación solar	647
25369	7	Sololá	712	San Antonio Palopó	9	San Antonio Palopo	12	Diciembre	2023-12-17T00:00:00	2024-11-08T13:00:00	2	Temperatura media	23.8
25370	7	Sololá	712	San Antonio Palopó	9	San Antonio Palopo	12	Diciembre	2023-12-17T00:00:00	2024-11-08T13:00:00	4	Temperatura máxima	23.8
25371	7	Sololá	712	San Antonio Palopó	9	San Antonio Palopo	12	Diciembre	2023-12-17T00:00:00	2024-11-08T13:00:00	3	Temperatura mínima	22.9
25372	7	Sololá	712	San Antonio Palopó	9	San Antonio Palopo	12	Diciembre	2023-12-17T00:00:00	2024-11-08T13:00:00	5	Humedad	55
25373	7	Sololá	712	San Antonio Palopó	9	San Antonio Palopo	12	Diciembre	2023-12-17T00:00:00	2024-11-08T13:00:00	6	Velocidad del viento	8
25374	7	Sololá	712	San Antonio Palopó	9	San Antonio Palopo	12	Diciembre	2023-12-17T00:00:00	2024-11-08T13:00:00	7	Dirección del viento	8.05
25375	7	Sololá	712	San Antonio Palopó	9	San Antonio Palopo	12	Diciembre	2023-12-17T00:00:00	2024-11-08T13:00:00	1	Precipitación	0
25376	7	Sololá	712	San Antonio Palopó	9	San Antonio Palopo	12	Diciembre	2023-12-17T00:00:00	2024-11-08T13:00:00	8	Radiación solar	427
25377	7	Sololá	712	San Antonio Palopó	9	San Antonio Palopo	12	Diciembre	2023-12-17T00:00:00	2024-11-08T14:00:00	2	Temperatura media	23.1
25378	7	Sololá	712	San Antonio Palopó	9	San Antonio Palopo	12	Diciembre	2023-12-17T00:00:00	2024-11-08T14:00:00	4	Temperatura máxima	23.9
25379	7	Sololá	712	San Antonio Palopó	9	San Antonio Palopo	12	Diciembre	2023-12-17T00:00:00	2024-11-08T14:00:00	3	Temperatura mínima	22.2
25380	7	Sololá	712	San Antonio Palopó	9	San Antonio Palopo	12	Diciembre	2023-12-17T00:00:00	2024-11-08T14:00:00	5	Humedad	72
25381	7	Sololá	712	San Antonio Palopó	9	San Antonio Palopo	12	Diciembre	2023-12-17T00:00:00	2024-11-08T14:00:00	6	Velocidad del viento	8
25382	7	Sololá	712	San Antonio Palopó	9	San Antonio Palopo	12	Diciembre	2023-12-17T00:00:00	2024-11-08T14:00:00	7	Dirección del viento	8.05
25383	7	Sololá	712	San Antonio Palopó	9	San Antonio Palopo	12	Diciembre	2023-12-17T00:00:00	2024-11-08T14:00:00	1	Precipitación	0
25384	7	Sololá	712	San Antonio Palopó	9	San Antonio Palopo	12	Diciembre	2023-12-17T00:00:00	2024-11-08T14:00:00	8	Radiación solar	322
25385	7	Sololá	712	San Antonio Palopó	9	San Antonio Palopo	12	Diciembre	2023-12-17T00:00:00	2024-11-08T15:00:00	2	Temperatura media	21.9
25386	7	Sololá	712	San Antonio Palopó	9	San Antonio Palopo	12	Diciembre	2023-12-17T00:00:00	2024-11-08T15:00:00	4	Temperatura máxima	23.3
25387	7	Sololá	712	San Antonio Palopó	9	San Antonio Palopo	12	Diciembre	2023-12-17T00:00:00	2024-11-08T15:00:00	3	Temperatura mínima	21.8
25388	7	Sololá	712	San Antonio Palopó	9	San Antonio Palopo	12	Diciembre	2023-12-17T00:00:00	2024-11-08T15:00:00	5	Humedad	73
25389	7	Sololá	712	San Antonio Palopó	9	San Antonio Palopo	12	Diciembre	2023-12-17T00:00:00	2024-11-08T15:00:00	6	Velocidad del viento	9.7
25390	7	Sololá	712	San Antonio Palopó	9	San Antonio Palopo	12	Diciembre	2023-12-17T00:00:00	2024-11-08T15:00:00	7	Dirección del viento	9.66
25391	7	Sololá	712	San Antonio Palopó	9	San Antonio Palopo	12	Diciembre	2023-12-17T00:00:00	2024-11-08T15:00:00	1	Precipitación	0
25392	7	Sololá	712	San Antonio Palopó	9	San Antonio Palopo	12	Diciembre	2023-12-17T00:00:00	2024-11-08T15:00:00	8	Radiación solar	319
25393	7	Sololá	712	San Antonio Palopó	9	San Antonio Palopo	12	Diciembre	2023-12-17T00:00:00	2024-11-08T16:00:00	2	Temperatura media	21.8
25394	7	Sololá	712	San Antonio Palopó	9	San Antonio Palopo	12	Diciembre	2023-12-17T00:00:00	2024-11-08T16:00:00	4	Temperatura máxima	23.1
25395	7	Sololá	712	San Antonio Palopó	9	San Antonio Palopo	12	Diciembre	2023-12-17T00:00:00	2024-11-08T16:00:00	3	Temperatura mínima	21.6
25396	7	Sololá	712	San Antonio Palopó	9	San Antonio Palopo	12	Diciembre	2023-12-17T00:00:00	2024-11-08T16:00:00	5	Humedad	60
25397	7	Sololá	712	San Antonio Palopó	9	San Antonio Palopo	12	Diciembre	2023-12-17T00:00:00	2024-11-08T16:00:00	6	Velocidad del viento	8
25398	7	Sololá	712	San Antonio Palopó	9	San Antonio Palopo	12	Diciembre	2023-12-17T00:00:00	2024-11-08T16:00:00	7	Dirección del viento	8.05
25399	7	Sololá	712	San Antonio Palopó	9	San Antonio Palopo	12	Diciembre	2023-12-17T00:00:00	2024-11-08T16:00:00	1	Precipitación	0
25400	7	Sololá	712	San Antonio Palopó	9	San Antonio Palopo	12	Diciembre	2023-12-17T00:00:00	2024-11-08T16:00:00	8	Radiación solar	246
25401	7	Sololá	712	San Antonio Palopó	9	San Antonio Palopo	12	Diciembre	2023-12-17T00:00:00	2024-11-08T17:00:00	2	Temperatura media	21.1
25402	7	Sololá	712	San Antonio Palopó	9	San Antonio Palopo	12	Diciembre	2023-12-17T00:00:00	2024-11-08T17:00:00	4	Temperatura máxima	21.8
25403	7	Sololá	712	San Antonio Palopó	9	San Antonio Palopo	12	Diciembre	2023-12-17T00:00:00	2024-11-08T17:00:00	3	Temperatura mínima	20.9
25404	7	Sololá	712	San Antonio Palopó	9	San Antonio Palopo	12	Diciembre	2023-12-17T00:00:00	2024-11-08T17:00:00	5	Humedad	60
25405	7	Sololá	712	San Antonio Palopó	9	San Antonio Palopo	12	Diciembre	2023-12-17T00:00:00	2024-11-08T17:00:00	6	Velocidad del viento	11.3
25406	7	Sololá	712	San Antonio Palopó	9	San Antonio Palopo	12	Diciembre	2023-12-17T00:00:00	2024-11-08T17:00:00	7	Dirección del viento	11.27
25407	7	Sololá	712	San Antonio Palopó	9	San Antonio Palopo	12	Diciembre	2023-12-17T00:00:00	2024-11-08T17:00:00	1	Precipitación	0
25408	7	Sololá	712	San Antonio Palopó	9	San Antonio Palopo	12	Diciembre	2023-12-17T00:00:00	2024-11-08T17:00:00	8	Radiación solar	65
25409	7	Sololá	712	San Antonio Palopó	9	San Antonio Palopo	12	Diciembre	2023-12-17T00:00:00	2024-11-08T18:00:00	2	Temperatura media	19.3
25410	7	Sololá	712	San Antonio Palopó	9	San Antonio Palopo	12	Diciembre	2023-12-17T00:00:00	2024-11-08T18:00:00	4	Temperatura máxima	21.1
25411	7	Sololá	712	San Antonio Palopó	9	San Antonio Palopo	12	Diciembre	2023-12-17T00:00:00	2024-11-08T18:00:00	3	Temperatura mínima	19.2
25412	7	Sololá	712	San Antonio Palopó	9	San Antonio Palopo	12	Diciembre	2023-12-17T00:00:00	2024-11-08T18:00:00	5	Humedad	62
25413	7	Sololá	712	San Antonio Palopó	9	San Antonio Palopo	12	Diciembre	2023-12-17T00:00:00	2024-11-08T18:00:00	6	Velocidad del viento	19.3
25414	7	Sololá	712	San Antonio Palopó	9	San Antonio Palopo	12	Diciembre	2023-12-17T00:00:00	2024-11-08T18:00:00	7	Dirección del viento	19.31
25415	7	Sololá	712	San Antonio Palopó	9	San Antonio Palopo	12	Diciembre	2023-12-17T00:00:00	2024-11-08T18:00:00	1	Precipitación	0
25416	7	Sololá	712	San Antonio Palopó	9	San Antonio Palopo	12	Diciembre	2023-12-17T00:00:00	2024-11-08T18:00:00	8	Radiación solar	8
25417	7	Sololá	712	San Antonio Palopó	9	San Antonio Palopo	12	Diciembre	2023-12-17T00:00:00	2024-11-08T19:00:00	2	Temperatura media	18.2
25418	7	Sololá	712	San Antonio Palopó	9	San Antonio Palopo	12	Diciembre	2023-12-17T00:00:00	2024-11-08T19:00:00	4	Temperatura máxima	19.4
25419	7	Sololá	712	San Antonio Palopó	9	San Antonio Palopo	12	Diciembre	2023-12-17T00:00:00	2024-11-08T19:00:00	3	Temperatura mínima	18.1
25420	7	Sololá	712	San Antonio Palopó	9	San Antonio Palopo	12	Diciembre	2023-12-17T00:00:00	2024-11-08T19:00:00	5	Humedad	66
25421	7	Sololá	712	San Antonio Palopó	9	San Antonio Palopo	12	Diciembre	2023-12-17T00:00:00	2024-11-08T19:00:00	6	Velocidad del viento	22.5
25422	7	Sololá	712	San Antonio Palopó	9	San Antonio Palopo	12	Diciembre	2023-12-17T00:00:00	2024-11-08T19:00:00	7	Dirección del viento	22.53
25423	7	Sololá	712	San Antonio Palopó	9	San Antonio Palopo	12	Diciembre	2023-12-17T00:00:00	2024-11-08T19:00:00	1	Precipitación	0
25424	7	Sololá	712	San Antonio Palopó	9	San Antonio Palopo	12	Diciembre	2023-12-17T00:00:00	2024-11-08T19:00:00	8	Radiación solar	0
25425	7	Sololá	712	San Antonio Palopó	9	San Antonio Palopo	12	Diciembre	2023-12-17T00:00:00	2024-11-08T20:00:00	2	Temperatura media	17.2
25426	7	Sololá	712	San Antonio Palopó	9	San Antonio Palopo	12	Diciembre	2023-12-17T00:00:00	2024-11-08T20:00:00	4	Temperatura máxima	18.2
25427	7	Sololá	712	San Antonio Palopó	9	San Antonio Palopo	12	Diciembre	2023-12-17T00:00:00	2024-11-08T20:00:00	3	Temperatura mínima	17.2
25428	7	Sololá	712	San Antonio Palopó	9	San Antonio Palopo	12	Diciembre	2023-12-17T00:00:00	2024-11-08T20:00:00	5	Humedad	69
25429	7	Sololá	712	San Antonio Palopó	9	San Antonio Palopo	12	Diciembre	2023-12-17T00:00:00	2024-11-08T20:00:00	6	Velocidad del viento	22.5
25430	7	Sololá	712	San Antonio Palopó	9	San Antonio Palopo	12	Diciembre	2023-12-17T00:00:00	2024-11-08T20:00:00	7	Dirección del viento	22.53
25431	7	Sololá	712	San Antonio Palopó	9	San Antonio Palopo	12	Diciembre	2023-12-17T00:00:00	2024-11-08T20:00:00	1	Precipitación	0
25432	7	Sololá	712	San Antonio Palopó	9	San Antonio Palopo	12	Diciembre	2023-12-17T00:00:00	2024-11-08T20:00:00	8	Radiación solar	0
25433	7	Sololá	712	San Antonio Palopó	9	San Antonio Palopo	12	Diciembre	2023-12-17T00:00:00	2024-11-08T21:00:00	2	Temperatura media	17.3
25434	7	Sololá	712	San Antonio Palopó	9	San Antonio Palopo	12	Diciembre	2023-12-17T00:00:00	2024-11-08T21:00:00	4	Temperatura máxima	17.4
25435	7	Sololá	712	San Antonio Palopó	9	San Antonio Palopo	12	Diciembre	2023-12-17T00:00:00	2024-11-08T21:00:00	3	Temperatura mínima	17.2
25436	7	Sololá	712	San Antonio Palopó	9	San Antonio Palopo	12	Diciembre	2023-12-17T00:00:00	2024-11-08T21:00:00	5	Humedad	69
25437	7	Sololá	712	San Antonio Palopó	9	San Antonio Palopo	12	Diciembre	2023-12-17T00:00:00	2024-11-08T21:00:00	6	Velocidad del viento	20.9
25438	7	Sololá	712	San Antonio Palopó	9	San Antonio Palopo	12	Diciembre	2023-12-17T00:00:00	2024-11-08T21:00:00	7	Dirección del viento	20.92
25439	7	Sololá	712	San Antonio Palopó	9	San Antonio Palopo	12	Diciembre	2023-12-17T00:00:00	2024-11-08T21:00:00	1	Precipitación	0
25440	7	Sololá	712	San Antonio Palopó	9	San Antonio Palopo	12	Diciembre	2023-12-17T00:00:00	2024-11-08T21:00:00	8	Radiación solar	0
25441	7	Sololá	712	San Antonio Palopó	9	San Antonio Palopo	12	Diciembre	2023-12-17T00:00:00	2024-11-08T22:00:00	2	Temperatura media	17
25442	7	Sololá	712	San Antonio Palopó	9	San Antonio Palopo	12	Diciembre	2023-12-17T00:00:00	2024-11-08T22:00:00	4	Temperatura máxima	17.3
25443	7	Sololá	712	San Antonio Palopó	9	San Antonio Palopo	12	Diciembre	2023-12-17T00:00:00	2024-11-08T22:00:00	3	Temperatura mínima	16.9
25444	7	Sololá	712	San Antonio Palopó	9	San Antonio Palopo	12	Diciembre	2023-12-17T00:00:00	2024-11-08T22:00:00	5	Humedad	69
25445	7	Sololá	712	San Antonio Palopó	9	San Antonio Palopo	12	Diciembre	2023-12-17T00:00:00	2024-11-08T22:00:00	6	Velocidad del viento	20.9
25446	7	Sololá	712	San Antonio Palopó	9	San Antonio Palopo	12	Diciembre	2023-12-17T00:00:00	2024-11-08T22:00:00	7	Dirección del viento	20.92
25447	7	Sololá	712	San Antonio Palopó	9	San Antonio Palopo	12	Diciembre	2023-12-17T00:00:00	2024-11-08T22:00:00	1	Precipitación	0
25448	7	Sololá	712	San Antonio Palopó	9	San Antonio Palopo	12	Diciembre	2023-12-17T00:00:00	2024-11-08T22:00:00	8	Radiación solar	0
25449	7	Sololá	712	San Antonio Palopó	9	San Antonio Palopo	12	Diciembre	2023-12-17T00:00:00	2024-11-08T23:00:00	2	Temperatura media	16.1
25450	7	Sololá	712	San Antonio Palopó	9	San Antonio Palopo	12	Diciembre	2023-12-17T00:00:00	2024-11-08T23:00:00	4	Temperatura máxima	17.1
25451	7	Sololá	712	San Antonio Palopó	9	San Antonio Palopo	12	Diciembre	2023-12-17T00:00:00	2024-11-08T23:00:00	3	Temperatura mínima	16.1
25452	7	Sololá	712	San Antonio Palopó	9	San Antonio Palopo	12	Diciembre	2023-12-17T00:00:00	2024-11-08T23:00:00	5	Humedad	72
25453	7	Sololá	712	San Antonio Palopó	9	San Antonio Palopo	12	Diciembre	2023-12-17T00:00:00	2024-11-08T23:00:00	6	Velocidad del viento	20.9
25454	7	Sololá	712	San Antonio Palopó	9	San Antonio Palopo	12	Diciembre	2023-12-17T00:00:00	2024-11-08T23:00:00	7	Dirección del viento	20.92
25455	7	Sololá	712	San Antonio Palopó	9	San Antonio Palopo	12	Diciembre	2023-12-17T00:00:00	2024-11-08T23:00:00	1	Precipitación	0
25456	7	Sololá	712	San Antonio Palopó	9	San Antonio Palopo	12	Diciembre	2023-12-17T00:00:00	2024-11-08T23:00:00	8	Radiación solar	0
25457	7	Sololá	712	San Antonio Palopó	9	San Antonio Palopo	12	Diciembre	2023-12-18T00:00:00	2024-11-08T00:00:00	2	Temperatura media	15.6
25458	7	Sololá	712	San Antonio Palopó	9	San Antonio Palopo	12	Diciembre	2023-12-18T00:00:00	2024-11-08T00:00:00	4	Temperatura máxima	16.1
25459	7	Sololá	712	San Antonio Palopó	9	San Antonio Palopo	12	Diciembre	2023-12-18T00:00:00	2024-11-08T00:00:00	3	Temperatura mínima	15.6
25460	7	Sololá	712	San Antonio Palopó	9	San Antonio Palopo	12	Diciembre	2023-12-18T00:00:00	2024-11-08T00:00:00	5	Humedad	73
25461	7	Sololá	712	San Antonio Palopó	9	San Antonio Palopo	12	Diciembre	2023-12-18T00:00:00	2024-11-08T00:00:00	6	Velocidad del viento	19.3
25462	7	Sololá	712	San Antonio Palopó	9	San Antonio Palopo	12	Diciembre	2023-12-18T00:00:00	2024-11-08T00:00:00	7	Dirección del viento	19.31
25463	7	Sololá	712	San Antonio Palopó	9	San Antonio Palopo	12	Diciembre	2023-12-18T00:00:00	2024-11-08T00:00:00	1	Precipitación	0
25464	7	Sololá	712	San Antonio Palopó	9	San Antonio Palopo	12	Diciembre	2023-12-18T00:00:00	2024-11-08T00:00:00	8	Radiación solar	0
25465	7	Sololá	712	San Antonio Palopó	9	San Antonio Palopo	12	Diciembre	2023-12-18T00:00:00	2024-11-08T01:00:00	2	Temperatura media	15
25466	7	Sololá	712	San Antonio Palopó	9	San Antonio Palopo	12	Diciembre	2023-12-18T00:00:00	2024-11-08T01:00:00	4	Temperatura máxima	15.6
25467	7	Sololá	712	San Antonio Palopó	9	San Antonio Palopo	12	Diciembre	2023-12-18T00:00:00	2024-11-08T01:00:00	3	Temperatura mínima	14.8
25468	7	Sololá	712	San Antonio Palopó	9	San Antonio Palopo	12	Diciembre	2023-12-18T00:00:00	2024-11-08T01:00:00	5	Humedad	72
25469	7	Sololá	712	San Antonio Palopó	9	San Antonio Palopo	12	Diciembre	2023-12-18T00:00:00	2024-11-08T01:00:00	6	Velocidad del viento	20.9
25470	7	Sololá	712	San Antonio Palopó	9	San Antonio Palopo	12	Diciembre	2023-12-18T00:00:00	2024-11-08T01:00:00	7	Dirección del viento	20.92
25471	7	Sololá	712	San Antonio Palopó	9	San Antonio Palopo	12	Diciembre	2023-12-18T00:00:00	2024-11-08T01:00:00	1	Precipitación	0
25472	7	Sololá	712	San Antonio Palopó	9	San Antonio Palopo	12	Diciembre	2023-12-18T00:00:00	2024-11-08T01:00:00	8	Radiación solar	0
25473	7	Sololá	712	San Antonio Palopó	9	San Antonio Palopo	12	Diciembre	2023-12-18T00:00:00	2024-11-08T02:00:00	2	Temperatura media	15.1
25474	7	Sololá	712	San Antonio Palopó	9	San Antonio Palopo	12	Diciembre	2023-12-18T00:00:00	2024-11-08T02:00:00	4	Temperatura máxima	15.4
25475	7	Sololá	712	San Antonio Palopó	9	San Antonio Palopo	12	Diciembre	2023-12-18T00:00:00	2024-11-08T02:00:00	3	Temperatura mínima	14.9
25476	7	Sololá	712	San Antonio Palopó	9	San Antonio Palopo	12	Diciembre	2023-12-18T00:00:00	2024-11-08T02:00:00	5	Humedad	68
25477	7	Sololá	712	San Antonio Palopó	9	San Antonio Palopo	12	Diciembre	2023-12-18T00:00:00	2024-11-08T02:00:00	6	Velocidad del viento	12.9
25478	7	Sololá	712	San Antonio Palopó	9	San Antonio Palopo	12	Diciembre	2023-12-18T00:00:00	2024-11-08T02:00:00	7	Dirección del viento	12.87
25479	7	Sololá	712	San Antonio Palopó	9	San Antonio Palopo	12	Diciembre	2023-12-18T00:00:00	2024-11-08T02:00:00	1	Precipitación	0
25480	7	Sololá	712	San Antonio Palopó	9	San Antonio Palopo	12	Diciembre	2023-12-18T00:00:00	2024-11-08T02:00:00	8	Radiación solar	0
25481	7	Sololá	712	San Antonio Palopó	9	San Antonio Palopo	12	Diciembre	2023-12-18T00:00:00	2024-11-08T03:00:00	2	Temperatura media	15.8
25482	7	Sololá	712	San Antonio Palopó	9	San Antonio Palopo	12	Diciembre	2023-12-18T00:00:00	2024-11-08T03:00:00	4	Temperatura máxima	15.8
25483	7	Sololá	712	San Antonio Palopó	9	San Antonio Palopo	12	Diciembre	2023-12-18T00:00:00	2024-11-08T03:00:00	3	Temperatura mínima	15
25484	7	Sololá	712	San Antonio Palopó	9	San Antonio Palopo	12	Diciembre	2023-12-18T00:00:00	2024-11-08T03:00:00	5	Humedad	69
25485	7	Sololá	712	San Antonio Palopó	9	San Antonio Palopo	12	Diciembre	2023-12-18T00:00:00	2024-11-08T03:00:00	6	Velocidad del viento	8
25486	7	Sololá	712	San Antonio Palopó	9	San Antonio Palopo	12	Diciembre	2023-12-18T00:00:00	2024-11-08T03:00:00	7	Dirección del viento	8.05
25487	7	Sololá	712	San Antonio Palopó	9	San Antonio Palopo	12	Diciembre	2023-12-18T00:00:00	2024-11-08T03:00:00	1	Precipitación	0
25488	7	Sololá	712	San Antonio Palopó	9	San Antonio Palopo	12	Diciembre	2023-12-18T00:00:00	2024-11-08T03:00:00	8	Radiación solar	0
25489	7	Sololá	712	San Antonio Palopó	9	San Antonio Palopo	12	Diciembre	2023-12-18T00:00:00	2024-11-08T04:00:00	2	Temperatura media	16.3
25490	7	Sololá	712	San Antonio Palopó	9	San Antonio Palopo	12	Diciembre	2023-12-18T00:00:00	2024-11-08T04:00:00	4	Temperatura máxima	16.3
25491	7	Sololá	712	San Antonio Palopó	9	San Antonio Palopo	12	Diciembre	2023-12-18T00:00:00	2024-11-08T04:00:00	3	Temperatura mínima	15.8
25492	7	Sololá	712	San Antonio Palopó	9	San Antonio Palopo	12	Diciembre	2023-12-18T00:00:00	2024-11-08T04:00:00	5	Humedad	68
25493	7	Sololá	712	San Antonio Palopó	9	San Antonio Palopo	12	Diciembre	2023-12-18T00:00:00	2024-11-08T04:00:00	6	Velocidad del viento	4.8
25494	7	Sololá	712	San Antonio Palopó	9	San Antonio Palopo	12	Diciembre	2023-12-18T00:00:00	2024-11-08T04:00:00	7	Dirección del viento	4.83
25495	7	Sololá	712	San Antonio Palopó	9	San Antonio Palopo	12	Diciembre	2023-12-18T00:00:00	2024-11-08T04:00:00	1	Precipitación	0
25496	7	Sololá	712	San Antonio Palopó	9	San Antonio Palopo	12	Diciembre	2023-12-18T00:00:00	2024-11-08T04:00:00	8	Radiación solar	0
25497	7	Sololá	712	San Antonio Palopó	9	San Antonio Palopo	12	Diciembre	2023-12-18T00:00:00	2024-11-08T05:00:00	2	Temperatura media	14.9
25498	7	Sololá	712	San Antonio Palopó	9	San Antonio Palopo	12	Diciembre	2023-12-18T00:00:00	2024-11-08T05:00:00	4	Temperatura máxima	16.3
25499	7	Sololá	712	San Antonio Palopó	9	San Antonio Palopo	12	Diciembre	2023-12-18T00:00:00	2024-11-08T05:00:00	3	Temperatura mínima	14.9
25500	7	Sololá	712	San Antonio Palopó	9	San Antonio Palopo	12	Diciembre	2023-12-18T00:00:00	2024-11-08T05:00:00	5	Humedad	72
25501	7	Sololá	712	San Antonio Palopó	9	San Antonio Palopo	12	Diciembre	2023-12-18T00:00:00	2024-11-08T05:00:00	6	Velocidad del viento	3.2
25502	7	Sololá	712	San Antonio Palopó	9	San Antonio Palopo	12	Diciembre	2023-12-18T00:00:00	2024-11-08T05:00:00	7	Dirección del viento	3.22
25503	7	Sololá	712	San Antonio Palopó	9	San Antonio Palopo	12	Diciembre	2023-12-18T00:00:00	2024-11-08T05:00:00	1	Precipitación	0
25504	7	Sololá	712	San Antonio Palopó	9	San Antonio Palopo	12	Diciembre	2023-12-18T00:00:00	2024-11-08T05:00:00	8	Radiación solar	0
25505	7	Sololá	712	San Antonio Palopó	9	San Antonio Palopo	12	Diciembre	2023-12-18T00:00:00	2024-11-08T06:00:00	2	Temperatura media	14.8
25506	7	Sololá	712	San Antonio Palopó	9	San Antonio Palopo	12	Diciembre	2023-12-18T00:00:00	2024-11-08T06:00:00	4	Temperatura máxima	15.2
25507	7	Sololá	712	San Antonio Palopó	9	San Antonio Palopo	12	Diciembre	2023-12-18T00:00:00	2024-11-08T06:00:00	3	Temperatura mínima	14.7
25508	7	Sololá	712	San Antonio Palopó	9	San Antonio Palopo	12	Diciembre	2023-12-18T00:00:00	2024-11-08T06:00:00	5	Humedad	73
25509	7	Sololá	712	San Antonio Palopó	9	San Antonio Palopo	12	Diciembre	2023-12-18T00:00:00	2024-11-08T06:00:00	6	Velocidad del viento	4.8
25510	7	Sololá	712	San Antonio Palopó	9	San Antonio Palopo	12	Diciembre	2023-12-18T00:00:00	2024-11-08T06:00:00	7	Dirección del viento	4.83
25511	7	Sololá	712	San Antonio Palopó	9	San Antonio Palopo	12	Diciembre	2023-12-18T00:00:00	2024-11-08T06:00:00	1	Precipitación	0
25512	7	Sololá	712	San Antonio Palopó	9	San Antonio Palopo	12	Diciembre	2023-12-18T00:00:00	2024-11-08T06:00:00	8	Radiación solar	0
25513	7	Sololá	712	San Antonio Palopó	9	San Antonio Palopo	12	Diciembre	2023-12-18T00:00:00	2024-11-08T07:00:00	2	Temperatura media	14.8
25514	7	Sololá	712	San Antonio Palopó	9	San Antonio Palopo	12	Diciembre	2023-12-18T00:00:00	2024-11-08T07:00:00	4	Temperatura máxima	15
25515	7	Sololá	712	San Antonio Palopó	9	San Antonio Palopo	12	Diciembre	2023-12-18T00:00:00	2024-11-08T07:00:00	3	Temperatura mínima	14.7
25516	7	Sololá	712	San Antonio Palopó	9	San Antonio Palopo	12	Diciembre	2023-12-18T00:00:00	2024-11-08T07:00:00	5	Humedad	70
25517	7	Sololá	712	San Antonio Palopó	9	San Antonio Palopo	12	Diciembre	2023-12-18T00:00:00	2024-11-08T07:00:00	6	Velocidad del viento	4.8
25518	7	Sololá	712	San Antonio Palopó	9	San Antonio Palopo	12	Diciembre	2023-12-18T00:00:00	2024-11-08T07:00:00	7	Dirección del viento	4.83
25519	7	Sololá	712	San Antonio Palopó	9	San Antonio Palopo	12	Diciembre	2023-12-18T00:00:00	2024-11-08T07:00:00	1	Precipitación	0
25520	7	Sololá	712	San Antonio Palopó	9	San Antonio Palopo	12	Diciembre	2023-12-18T00:00:00	2024-11-08T07:00:00	8	Radiación solar	5
25521	7	Sololá	712	San Antonio Palopó	9	San Antonio Palopo	12	Diciembre	2023-12-18T00:00:00	2024-11-08T08:00:00	2	Temperatura media	14.9
25522	7	Sololá	712	San Antonio Palopó	9	San Antonio Palopo	12	Diciembre	2023-12-18T00:00:00	2024-11-08T08:00:00	4	Temperatura máxima	15.6
25523	7	Sololá	712	San Antonio Palopó	9	San Antonio Palopo	12	Diciembre	2023-12-18T00:00:00	2024-11-08T08:00:00	3	Temperatura mínima	14.7
25524	7	Sololá	712	San Antonio Palopó	9	San Antonio Palopo	12	Diciembre	2023-12-18T00:00:00	2024-11-08T08:00:00	5	Humedad	64
25525	7	Sololá	712	San Antonio Palopó	9	San Antonio Palopo	12	Diciembre	2023-12-18T00:00:00	2024-11-08T08:00:00	6	Velocidad del viento	3.2
25526	7	Sololá	712	San Antonio Palopó	9	San Antonio Palopo	12	Diciembre	2023-12-18T00:00:00	2024-11-08T08:00:00	7	Dirección del viento	3.22
25527	7	Sololá	712	San Antonio Palopó	9	San Antonio Palopo	12	Diciembre	2023-12-18T00:00:00	2024-11-08T08:00:00	1	Precipitación	0
25528	7	Sololá	712	San Antonio Palopó	9	San Antonio Palopo	12	Diciembre	2023-12-18T00:00:00	2024-11-08T08:00:00	8	Radiación solar	18
25529	7	Sololá	712	San Antonio Palopó	9	San Antonio Palopo	12	Diciembre	2023-12-18T00:00:00	2024-11-08T09:00:00	2	Temperatura media	17.2
25530	7	Sololá	712	San Antonio Palopó	9	San Antonio Palopo	12	Diciembre	2023-12-18T00:00:00	2024-11-08T09:00:00	4	Temperatura máxima	17.2
25531	7	Sololá	712	San Antonio Palopó	9	San Antonio Palopo	12	Diciembre	2023-12-18T00:00:00	2024-11-08T09:00:00	3	Temperatura mínima	14.9
25532	7	Sololá	712	San Antonio Palopó	9	San Antonio Palopo	12	Diciembre	2023-12-18T00:00:00	2024-11-08T09:00:00	5	Humedad	60
25533	7	Sololá	712	San Antonio Palopó	9	San Antonio Palopo	12	Diciembre	2023-12-18T00:00:00	2024-11-08T09:00:00	6	Velocidad del viento	3.2
25534	7	Sololá	712	San Antonio Palopó	9	San Antonio Palopo	12	Diciembre	2023-12-18T00:00:00	2024-11-08T09:00:00	7	Dirección del viento	3.22
25535	7	Sololá	712	San Antonio Palopó	9	San Antonio Palopo	12	Diciembre	2023-12-18T00:00:00	2024-11-08T09:00:00	1	Precipitación	0
25536	7	Sololá	712	San Antonio Palopó	9	San Antonio Palopo	12	Diciembre	2023-12-18T00:00:00	2024-11-08T09:00:00	8	Radiación solar	121
25537	7	Sololá	712	San Antonio Palopó	9	San Antonio Palopo	12	Diciembre	2023-12-18T00:00:00	2024-11-08T10:00:00	2	Temperatura media	19.3
25538	7	Sololá	712	San Antonio Palopó	9	San Antonio Palopo	12	Diciembre	2023-12-18T00:00:00	2024-11-08T10:00:00	4	Temperatura máxima	19.6
25539	7	Sololá	712	San Antonio Palopó	9	San Antonio Palopo	12	Diciembre	2023-12-18T00:00:00	2024-11-08T10:00:00	3	Temperatura mínima	17.2
25540	7	Sololá	712	San Antonio Palopó	9	San Antonio Palopo	12	Diciembre	2023-12-18T00:00:00	2024-11-08T10:00:00	5	Humedad	62
25541	7	Sololá	712	San Antonio Palopó	9	San Antonio Palopo	12	Diciembre	2023-12-18T00:00:00	2024-11-08T10:00:00	6	Velocidad del viento	1.6
25542	7	Sololá	712	San Antonio Palopó	9	San Antonio Palopo	12	Diciembre	2023-12-18T00:00:00	2024-11-08T10:00:00	7	Dirección del viento	1.61
25543	7	Sololá	712	San Antonio Palopó	9	San Antonio Palopo	12	Diciembre	2023-12-18T00:00:00	2024-11-08T10:00:00	1	Precipitación	0
25544	7	Sololá	712	San Antonio Palopó	9	San Antonio Palopo	12	Diciembre	2023-12-18T00:00:00	2024-11-08T10:00:00	8	Radiación solar	561
25545	7	Sololá	712	San Antonio Palopó	9	San Antonio Palopo	12	Diciembre	2023-12-18T00:00:00	2024-11-08T11:00:00	2	Temperatura media	21.2
25546	7	Sololá	712	San Antonio Palopó	9	San Antonio Palopo	12	Diciembre	2023-12-18T00:00:00	2024-11-08T11:00:00	4	Temperatura máxima	21.2
25547	7	Sololá	712	San Antonio Palopó	9	San Antonio Palopo	12	Diciembre	2023-12-18T00:00:00	2024-11-08T11:00:00	3	Temperatura mínima	19.3
25548	7	Sololá	712	San Antonio Palopó	9	San Antonio Palopo	12	Diciembre	2023-12-18T00:00:00	2024-11-08T11:00:00	5	Humedad	61
25549	7	Sololá	712	San Antonio Palopó	9	San Antonio Palopo	12	Diciembre	2023-12-18T00:00:00	2024-11-08T11:00:00	6	Velocidad del viento	3.2
25550	7	Sololá	712	San Antonio Palopó	9	San Antonio Palopo	12	Diciembre	2023-12-18T00:00:00	2024-11-08T11:00:00	7	Dirección del viento	3.22
25551	7	Sololá	712	San Antonio Palopó	9	San Antonio Palopo	12	Diciembre	2023-12-18T00:00:00	2024-11-08T11:00:00	1	Precipitación	0
25552	7	Sololá	712	San Antonio Palopó	9	San Antonio Palopo	12	Diciembre	2023-12-18T00:00:00	2024-11-08T11:00:00	8	Radiación solar	692
25553	7	Sololá	712	San Antonio Palopó	9	San Antonio Palopo	12	Diciembre	2023-12-18T00:00:00	2024-11-08T12:00:00	2	Temperatura media	22.9
25554	7	Sololá	712	San Antonio Palopó	9	San Antonio Palopo	12	Diciembre	2023-12-18T00:00:00	2024-11-08T12:00:00	4	Temperatura máxima	22.9
25555	7	Sololá	712	San Antonio Palopó	9	San Antonio Palopo	12	Diciembre	2023-12-18T00:00:00	2024-11-08T12:00:00	3	Temperatura mínima	21.2
25556	7	Sololá	712	San Antonio Palopó	9	San Antonio Palopo	12	Diciembre	2023-12-18T00:00:00	2024-11-08T12:00:00	5	Humedad	61
25557	7	Sololá	712	San Antonio Palopó	9	San Antonio Palopo	12	Diciembre	2023-12-18T00:00:00	2024-11-08T12:00:00	6	Velocidad del viento	4.8
25558	7	Sololá	712	San Antonio Palopó	9	San Antonio Palopo	12	Diciembre	2023-12-18T00:00:00	2024-11-08T12:00:00	7	Dirección del viento	4.83
25559	7	Sololá	712	San Antonio Palopó	9	San Antonio Palopo	12	Diciembre	2023-12-18T00:00:00	2024-11-08T12:00:00	1	Precipitación	0
25560	7	Sololá	712	San Antonio Palopó	9	San Antonio Palopo	12	Diciembre	2023-12-18T00:00:00	2024-11-08T12:00:00	8	Radiación solar	662
25561	7	Sololá	712	San Antonio Palopó	9	San Antonio Palopo	12	Diciembre	2023-12-18T00:00:00	2024-11-08T13:00:00	2	Temperatura media	23.3
25562	7	Sololá	712	San Antonio Palopó	9	San Antonio Palopo	12	Diciembre	2023-12-18T00:00:00	2024-11-08T13:00:00	4	Temperatura máxima	23.6
25563	7	Sololá	712	San Antonio Palopó	9	San Antonio Palopo	12	Diciembre	2023-12-18T00:00:00	2024-11-08T13:00:00	3	Temperatura mínima	22.9
25564	7	Sololá	712	San Antonio Palopó	9	San Antonio Palopo	12	Diciembre	2023-12-18T00:00:00	2024-11-08T13:00:00	5	Humedad	59
25565	7	Sololá	712	San Antonio Palopó	9	San Antonio Palopo	12	Diciembre	2023-12-18T00:00:00	2024-11-08T13:00:00	6	Velocidad del viento	6.4
25566	7	Sololá	712	San Antonio Palopó	9	San Antonio Palopo	12	Diciembre	2023-12-18T00:00:00	2024-11-08T13:00:00	7	Dirección del viento	6.44
25567	7	Sololá	712	San Antonio Palopó	9	San Antonio Palopo	12	Diciembre	2023-12-18T00:00:00	2024-11-08T13:00:00	1	Precipitación	0
25568	7	Sololá	712	San Antonio Palopó	9	San Antonio Palopo	12	Diciembre	2023-12-18T00:00:00	2024-11-08T13:00:00	8	Radiación solar	743
25569	7	Sololá	712	San Antonio Palopó	9	San Antonio Palopo	12	Diciembre	2023-12-18T00:00:00	2024-11-08T14:00:00	2	Temperatura media	23.2
25570	7	Sololá	712	San Antonio Palopó	9	San Antonio Palopo	12	Diciembre	2023-12-18T00:00:00	2024-11-08T14:00:00	4	Temperatura máxima	23.9
25571	7	Sololá	712	San Antonio Palopó	9	San Antonio Palopo	12	Diciembre	2023-12-18T00:00:00	2024-11-08T14:00:00	3	Temperatura mínima	23.2
25572	7	Sololá	712	San Antonio Palopó	9	San Antonio Palopo	12	Diciembre	2023-12-18T00:00:00	2024-11-08T14:00:00	5	Humedad	62
25573	7	Sololá	712	San Antonio Palopó	9	San Antonio Palopo	12	Diciembre	2023-12-18T00:00:00	2024-11-08T14:00:00	6	Velocidad del viento	8
25574	7	Sololá	712	San Antonio Palopó	9	San Antonio Palopo	12	Diciembre	2023-12-18T00:00:00	2024-11-08T14:00:00	7	Dirección del viento	8.05
25575	7	Sololá	712	San Antonio Palopó	9	San Antonio Palopo	12	Diciembre	2023-12-18T00:00:00	2024-11-08T14:00:00	1	Precipitación	0
25576	7	Sololá	712	San Antonio Palopó	9	San Antonio Palopo	12	Diciembre	2023-12-18T00:00:00	2024-11-08T14:00:00	8	Radiación solar	679
25577	7	Sololá	712	San Antonio Palopó	9	San Antonio Palopo	12	Diciembre	2023-12-18T00:00:00	2024-11-08T15:00:00	2	Temperatura media	22.7
25578	7	Sololá	712	San Antonio Palopó	9	San Antonio Palopo	12	Diciembre	2023-12-18T00:00:00	2024-11-08T15:00:00	4	Temperatura máxima	23.2
25579	7	Sololá	712	San Antonio Palopó	9	San Antonio Palopo	12	Diciembre	2023-12-18T00:00:00	2024-11-08T15:00:00	3	Temperatura mínima	22.7
25580	7	Sololá	712	San Antonio Palopó	9	San Antonio Palopo	12	Diciembre	2023-12-18T00:00:00	2024-11-08T15:00:00	5	Humedad	67
25581	7	Sololá	712	San Antonio Palopó	9	San Antonio Palopo	12	Diciembre	2023-12-18T00:00:00	2024-11-08T15:00:00	6	Velocidad del viento	11.3
25582	7	Sololá	712	San Antonio Palopó	9	San Antonio Palopo	12	Diciembre	2023-12-18T00:00:00	2024-11-08T15:00:00	7	Dirección del viento	11.27
25583	7	Sololá	712	San Antonio Palopó	9	San Antonio Palopo	12	Diciembre	2023-12-18T00:00:00	2024-11-08T15:00:00	1	Precipitación	0
25584	7	Sololá	712	San Antonio Palopó	9	San Antonio Palopo	12	Diciembre	2023-12-18T00:00:00	2024-11-08T15:00:00	8	Radiación solar	552
25585	7	Sololá	712	San Antonio Palopó	9	San Antonio Palopo	12	Diciembre	2023-12-18T00:00:00	2024-11-08T16:00:00	2	Temperatura media	22.3
25586	7	Sololá	712	San Antonio Palopó	9	San Antonio Palopo	12	Diciembre	2023-12-18T00:00:00	2024-11-08T16:00:00	4	Temperatura máxima	22.7
25587	7	Sololá	712	San Antonio Palopó	9	San Antonio Palopo	12	Diciembre	2023-12-18T00:00:00	2024-11-08T16:00:00	3	Temperatura mínima	22.3
25588	7	Sololá	712	San Antonio Palopó	9	San Antonio Palopo	12	Diciembre	2023-12-18T00:00:00	2024-11-08T16:00:00	5	Humedad	67
25589	7	Sololá	712	San Antonio Palopó	9	San Antonio Palopo	12	Diciembre	2023-12-18T00:00:00	2024-11-08T16:00:00	6	Velocidad del viento	9.7
25590	7	Sololá	712	San Antonio Palopó	9	San Antonio Palopo	12	Diciembre	2023-12-18T00:00:00	2024-11-08T16:00:00	7	Dirección del viento	9.66
25591	7	Sololá	712	San Antonio Palopó	9	San Antonio Palopo	12	Diciembre	2023-12-18T00:00:00	2024-11-08T16:00:00	1	Precipitación	0
25592	7	Sololá	712	San Antonio Palopó	9	San Antonio Palopo	12	Diciembre	2023-12-18T00:00:00	2024-11-08T16:00:00	8	Radiación solar	369
25593	7	Sololá	712	San Antonio Palopó	9	San Antonio Palopo	12	Diciembre	2023-12-18T00:00:00	2024-11-08T17:00:00	2	Temperatura media	21.1
25594	7	Sololá	712	San Antonio Palopó	9	San Antonio Palopo	12	Diciembre	2023-12-18T00:00:00	2024-11-08T17:00:00	4	Temperatura máxima	22.3
25595	7	Sololá	712	San Antonio Palopó	9	San Antonio Palopo	12	Diciembre	2023-12-18T00:00:00	2024-11-08T17:00:00	3	Temperatura mínima	21.1
25596	7	Sololá	712	San Antonio Palopó	9	San Antonio Palopo	12	Diciembre	2023-12-18T00:00:00	2024-11-08T17:00:00	5	Humedad	68
25597	7	Sololá	712	San Antonio Palopó	9	San Antonio Palopo	12	Diciembre	2023-12-18T00:00:00	2024-11-08T17:00:00	6	Velocidad del viento	8
25598	7	Sololá	712	San Antonio Palopó	9	San Antonio Palopo	12	Diciembre	2023-12-18T00:00:00	2024-11-08T17:00:00	7	Dirección del viento	8.05
25599	7	Sololá	712	San Antonio Palopó	9	San Antonio Palopo	12	Diciembre	2023-12-18T00:00:00	2024-11-08T17:00:00	1	Precipitación	0
25600	7	Sololá	712	San Antonio Palopó	9	San Antonio Palopo	12	Diciembre	2023-12-18T00:00:00	2024-11-08T17:00:00	8	Radiación solar	153
25601	7	Sololá	712	San Antonio Palopó	9	San Antonio Palopo	12	Diciembre	2023-12-18T00:00:00	2024-11-08T18:00:00	2	Temperatura media	19.7
25602	7	Sololá	712	San Antonio Palopó	9	San Antonio Palopo	12	Diciembre	2023-12-18T00:00:00	2024-11-08T18:00:00	4	Temperatura máxima	21.1
25603	7	Sololá	712	San Antonio Palopó	9	San Antonio Palopo	12	Diciembre	2023-12-18T00:00:00	2024-11-08T18:00:00	3	Temperatura mínima	19.7
25604	7	Sololá	712	San Antonio Palopó	9	San Antonio Palopo	12	Diciembre	2023-12-18T00:00:00	2024-11-08T18:00:00	5	Humedad	28
25605	7	Sololá	712	San Antonio Palopó	9	San Antonio Palopo	12	Diciembre	2023-12-18T00:00:00	2024-11-08T18:00:00	6	Velocidad del viento	9.7
25606	7	Sololá	712	San Antonio Palopó	9	San Antonio Palopo	12	Diciembre	2023-12-18T00:00:00	2024-11-08T18:00:00	7	Dirección del viento	9.66
25607	7	Sololá	712	San Antonio Palopó	9	San Antonio Palopo	12	Diciembre	2023-12-18T00:00:00	2024-11-08T18:00:00	1	Precipitación	0
25608	7	Sololá	712	San Antonio Palopó	9	San Antonio Palopo	12	Diciembre	2023-12-18T00:00:00	2024-11-08T18:00:00	8	Radiación solar	12
25609	7	Sololá	712	San Antonio Palopó	9	San Antonio Palopo	12	Diciembre	2023-12-18T00:00:00	2024-11-08T19:00:00	2	Temperatura media	17
25610	7	Sololá	712	San Antonio Palopó	9	San Antonio Palopo	12	Diciembre	2023-12-18T00:00:00	2024-11-08T19:00:00	4	Temperatura máxima	19.8
25611	7	Sololá	712	San Antonio Palopó	9	San Antonio Palopo	12	Diciembre	2023-12-18T00:00:00	2024-11-08T19:00:00	3	Temperatura mínima	16.9
25612	7	Sololá	712	San Antonio Palopó	9	San Antonio Palopo	12	Diciembre	2023-12-18T00:00:00	2024-11-08T19:00:00	5	Humedad	40
25613	7	Sololá	712	San Antonio Palopó	9	San Antonio Palopo	12	Diciembre	2023-12-18T00:00:00	2024-11-08T19:00:00	6	Velocidad del viento	19.3
25614	7	Sololá	712	San Antonio Palopó	9	San Antonio Palopo	12	Diciembre	2023-12-18T00:00:00	2024-11-08T19:00:00	7	Dirección del viento	19.31
25615	7	Sololá	712	San Antonio Palopó	9	San Antonio Palopo	12	Diciembre	2023-12-18T00:00:00	2024-11-08T19:00:00	1	Precipitación	0
25616	7	Sololá	712	San Antonio Palopó	9	San Antonio Palopo	12	Diciembre	2023-12-18T00:00:00	2024-11-08T19:00:00	8	Radiación solar	0
25617	7	Sololá	712	San Antonio Palopó	9	San Antonio Palopo	12	Diciembre	2023-12-18T00:00:00	2024-11-08T20:00:00	2	Temperatura media	15.9
25618	7	Sololá	712	San Antonio Palopó	9	San Antonio Palopo	12	Diciembre	2023-12-18T00:00:00	2024-11-08T20:00:00	4	Temperatura máxima	17.1
25619	7	Sololá	712	San Antonio Palopó	9	San Antonio Palopo	12	Diciembre	2023-12-18T00:00:00	2024-11-08T20:00:00	3	Temperatura mínima	15.9
25620	7	Sololá	712	San Antonio Palopó	9	San Antonio Palopo	12	Diciembre	2023-12-18T00:00:00	2024-11-08T20:00:00	5	Humedad	46
25621	7	Sololá	712	San Antonio Palopó	9	San Antonio Palopo	12	Diciembre	2023-12-18T00:00:00	2024-11-08T20:00:00	6	Velocidad del viento	29
25622	7	Sololá	712	San Antonio Palopó	9	San Antonio Palopo	12	Diciembre	2023-12-18T00:00:00	2024-11-08T20:00:00	7	Dirección del viento	28.97
25623	7	Sololá	712	San Antonio Palopó	9	San Antonio Palopo	12	Diciembre	2023-12-18T00:00:00	2024-11-08T20:00:00	1	Precipitación	0
25624	7	Sololá	712	San Antonio Palopó	9	San Antonio Palopo	12	Diciembre	2023-12-18T00:00:00	2024-11-08T20:00:00	8	Radiación solar	0
25625	7	Sololá	712	San Antonio Palopó	9	San Antonio Palopo	12	Diciembre	2023-12-18T00:00:00	2024-11-08T21:00:00	2	Temperatura media	15.9
25626	7	Sololá	712	San Antonio Palopó	9	San Antonio Palopo	12	Diciembre	2023-12-18T00:00:00	2024-11-08T21:00:00	4	Temperatura máxima	16.2
25627	7	Sololá	712	San Antonio Palopó	9	San Antonio Palopo	12	Diciembre	2023-12-18T00:00:00	2024-11-08T21:00:00	3	Temperatura mínima	15.6
25628	7	Sololá	712	San Antonio Palopó	9	San Antonio Palopo	12	Diciembre	2023-12-18T00:00:00	2024-11-08T21:00:00	5	Humedad	30
25629	7	Sololá	712	San Antonio Palopó	9	San Antonio Palopo	12	Diciembre	2023-12-18T00:00:00	2024-11-08T21:00:00	6	Velocidad del viento	30.6
25630	7	Sololá	712	San Antonio Palopó	9	San Antonio Palopo	12	Diciembre	2023-12-18T00:00:00	2024-11-08T21:00:00	7	Dirección del viento	30.58
25631	7	Sololá	712	San Antonio Palopó	9	San Antonio Palopo	12	Diciembre	2023-12-18T00:00:00	2024-11-08T21:00:00	1	Precipitación	0
25632	7	Sololá	712	San Antonio Palopó	9	San Antonio Palopo	12	Diciembre	2023-12-18T00:00:00	2024-11-08T21:00:00	8	Radiación solar	0
25633	7	Sololá	712	San Antonio Palopó	9	San Antonio Palopo	12	Diciembre	2023-12-18T00:00:00	2024-11-08T22:00:00	2	Temperatura media	15.6
25634	7	Sololá	712	San Antonio Palopó	9	San Antonio Palopo	12	Diciembre	2023-12-18T00:00:00	2024-11-08T22:00:00	4	Temperatura máxima	17.1
25635	7	Sololá	712	San Antonio Palopó	9	San Antonio Palopo	12	Diciembre	2023-12-18T00:00:00	2024-11-08T22:00:00	3	Temperatura mínima	15.4
25636	7	Sololá	712	San Antonio Palopó	9	San Antonio Palopo	12	Diciembre	2023-12-18T00:00:00	2024-11-08T22:00:00	5	Humedad	22
25637	7	Sololá	712	San Antonio Palopó	9	San Antonio Palopo	12	Diciembre	2023-12-18T00:00:00	2024-11-08T22:00:00	6	Velocidad del viento	25.7
25638	7	Sololá	712	San Antonio Palopó	9	San Antonio Palopo	12	Diciembre	2023-12-18T00:00:00	2024-11-08T22:00:00	7	Dirección del viento	25.75
25639	7	Sololá	712	San Antonio Palopó	9	San Antonio Palopo	12	Diciembre	2023-12-18T00:00:00	2024-11-08T22:00:00	1	Precipitación	0
25640	7	Sololá	712	San Antonio Palopó	9	San Antonio Palopo	12	Diciembre	2023-12-18T00:00:00	2024-11-08T22:00:00	8	Radiación solar	0
25641	7	Sololá	712	San Antonio Palopó	9	San Antonio Palopo	12	Diciembre	2023-12-18T00:00:00	2024-11-08T23:00:00	2	Temperatura media	14.9
25642	7	Sololá	712	San Antonio Palopó	9	San Antonio Palopo	12	Diciembre	2023-12-18T00:00:00	2024-11-08T23:00:00	4	Temperatura máxima	15.7
25643	7	Sololá	712	San Antonio Palopó	9	San Antonio Palopo	12	Diciembre	2023-12-18T00:00:00	2024-11-08T23:00:00	3	Temperatura mínima	14.8
25644	7	Sololá	712	San Antonio Palopó	9	San Antonio Palopo	12	Diciembre	2023-12-18T00:00:00	2024-11-08T23:00:00	5	Humedad	21
25645	7	Sololá	712	San Antonio Palopó	9	San Antonio Palopo	12	Diciembre	2023-12-18T00:00:00	2024-11-08T23:00:00	6	Velocidad del viento	25.7
25646	7	Sololá	712	San Antonio Palopó	9	San Antonio Palopo	12	Diciembre	2023-12-18T00:00:00	2024-11-08T23:00:00	7	Dirección del viento	25.75
25647	7	Sololá	712	San Antonio Palopó	9	San Antonio Palopo	12	Diciembre	2023-12-18T00:00:00	2024-11-08T23:00:00	1	Precipitación	0
25648	7	Sololá	712	San Antonio Palopó	9	San Antonio Palopo	12	Diciembre	2023-12-18T00:00:00	2024-11-08T23:00:00	8	Radiación solar	0
25649	7	Sololá	712	San Antonio Palopó	9	San Antonio Palopo	12	Diciembre	2023-12-19T00:00:00	2024-11-08T00:00:00	2	Temperatura media	15.4
25650	7	Sololá	712	San Antonio Palopó	9	San Antonio Palopo	12	Diciembre	2023-12-19T00:00:00	2024-11-08T00:00:00	4	Temperatura máxima	15.4
25651	7	Sololá	712	San Antonio Palopó	9	San Antonio Palopo	12	Diciembre	2023-12-19T00:00:00	2024-11-08T00:00:00	3	Temperatura mínima	14.6
25652	7	Sololá	712	San Antonio Palopó	9	San Antonio Palopo	12	Diciembre	2023-12-19T00:00:00	2024-11-08T00:00:00	5	Humedad	16
25653	7	Sololá	712	San Antonio Palopó	9	San Antonio Palopo	12	Diciembre	2023-12-19T00:00:00	2024-11-08T00:00:00	6	Velocidad del viento	22.5
25654	7	Sololá	712	San Antonio Palopó	9	San Antonio Palopo	12	Diciembre	2023-12-19T00:00:00	2024-11-08T00:00:00	7	Dirección del viento	22.53
25655	7	Sololá	712	San Antonio Palopó	9	San Antonio Palopo	12	Diciembre	2023-12-19T00:00:00	2024-11-08T00:00:00	1	Precipitación	0
25656	7	Sololá	712	San Antonio Palopó	9	San Antonio Palopo	12	Diciembre	2023-12-19T00:00:00	2024-11-08T00:00:00	8	Radiación solar	0
25657	7	Sololá	712	San Antonio Palopó	9	San Antonio Palopo	12	Diciembre	2023-12-19T00:00:00	2024-11-08T01:00:00	2	Temperatura media	16.7
25658	7	Sololá	712	San Antonio Palopó	9	San Antonio Palopo	12	Diciembre	2023-12-19T00:00:00	2024-11-08T01:00:00	4	Temperatura máxima	16.7
25659	7	Sololá	712	San Antonio Palopó	9	San Antonio Palopo	12	Diciembre	2023-12-19T00:00:00	2024-11-08T01:00:00	3	Temperatura mínima	15.4
25660	7	Sololá	712	San Antonio Palopó	9	San Antonio Palopo	12	Diciembre	2023-12-19T00:00:00	2024-11-08T01:00:00	5	Humedad	16
25661	7	Sololá	712	San Antonio Palopó	9	San Antonio Palopo	12	Diciembre	2023-12-19T00:00:00	2024-11-08T01:00:00	6	Velocidad del viento	14.5
25662	7	Sololá	712	San Antonio Palopó	9	San Antonio Palopo	12	Diciembre	2023-12-19T00:00:00	2024-11-08T01:00:00	7	Dirección del viento	14.48
25663	7	Sololá	712	San Antonio Palopó	9	San Antonio Palopo	12	Diciembre	2023-12-19T00:00:00	2024-11-08T01:00:00	1	Precipitación	0
25664	7	Sololá	712	San Antonio Palopó	9	San Antonio Palopo	12	Diciembre	2023-12-19T00:00:00	2024-11-08T01:00:00	8	Radiación solar	0
25665	7	Sololá	712	San Antonio Palopó	9	San Antonio Palopo	12	Diciembre	2023-12-19T00:00:00	2024-11-08T02:00:00	2	Temperatura media	15.2
25666	7	Sololá	712	San Antonio Palopó	9	San Antonio Palopo	12	Diciembre	2023-12-19T00:00:00	2024-11-08T02:00:00	4	Temperatura máxima	16.7
25667	7	Sololá	712	San Antonio Palopó	9	San Antonio Palopo	12	Diciembre	2023-12-19T00:00:00	2024-11-08T02:00:00	3	Temperatura mínima	14.7
25668	7	Sololá	712	San Antonio Palopó	9	San Antonio Palopo	12	Diciembre	2023-12-19T00:00:00	2024-11-08T02:00:00	5	Humedad	19
25669	7	Sololá	712	San Antonio Palopó	9	San Antonio Palopo	12	Diciembre	2023-12-19T00:00:00	2024-11-08T02:00:00	6	Velocidad del viento	16.1
25670	7	Sololá	712	San Antonio Palopó	9	San Antonio Palopo	12	Diciembre	2023-12-19T00:00:00	2024-11-08T02:00:00	7	Dirección del viento	16.09
25671	7	Sololá	712	San Antonio Palopó	9	San Antonio Palopo	12	Diciembre	2023-12-19T00:00:00	2024-11-08T02:00:00	1	Precipitación	0
25672	7	Sololá	712	San Antonio Palopó	9	San Antonio Palopo	12	Diciembre	2023-12-19T00:00:00	2024-11-08T02:00:00	8	Radiación solar	0
25673	7	Sololá	712	San Antonio Palopó	9	San Antonio Palopo	12	Diciembre	2023-12-19T00:00:00	2024-11-08T03:00:00	2	Temperatura media	14.2
25674	7	Sololá	712	San Antonio Palopó	9	San Antonio Palopo	12	Diciembre	2023-12-19T00:00:00	2024-11-08T03:00:00	4	Temperatura máxima	15.2
25675	7	Sololá	712	San Antonio Palopó	9	San Antonio Palopo	12	Diciembre	2023-12-19T00:00:00	2024-11-08T03:00:00	3	Temperatura mínima	14
25676	7	Sololá	712	San Antonio Palopó	9	San Antonio Palopo	12	Diciembre	2023-12-19T00:00:00	2024-11-08T03:00:00	5	Humedad	24
25677	7	Sololá	712	San Antonio Palopó	9	San Antonio Palopo	12	Diciembre	2023-12-19T00:00:00	2024-11-08T03:00:00	6	Velocidad del viento	24.1
25678	7	Sololá	712	San Antonio Palopó	9	San Antonio Palopo	12	Diciembre	2023-12-19T00:00:00	2024-11-08T03:00:00	7	Dirección del viento	24.14
25679	7	Sololá	712	San Antonio Palopó	9	San Antonio Palopo	12	Diciembre	2023-12-19T00:00:00	2024-11-08T03:00:00	1	Precipitación	0
25680	7	Sololá	712	San Antonio Palopó	9	San Antonio Palopo	12	Diciembre	2023-12-19T00:00:00	2024-11-08T03:00:00	8	Radiación solar	0
25681	7	Sololá	712	San Antonio Palopó	9	San Antonio Palopo	12	Diciembre	2023-12-19T00:00:00	2024-11-08T04:00:00	2	Temperatura media	14.1
25682	7	Sololá	712	San Antonio Palopó	9	San Antonio Palopo	12	Diciembre	2023-12-19T00:00:00	2024-11-08T04:00:00	4	Temperatura máxima	14.5
25683	7	Sololá	712	San Antonio Palopó	9	San Antonio Palopo	12	Diciembre	2023-12-19T00:00:00	2024-11-08T04:00:00	3	Temperatura mínima	13.9
25684	7	Sololá	712	San Antonio Palopó	9	San Antonio Palopo	12	Diciembre	2023-12-19T00:00:00	2024-11-08T04:00:00	5	Humedad	24
25685	7	Sololá	712	San Antonio Palopó	9	San Antonio Palopo	12	Diciembre	2023-12-19T00:00:00	2024-11-08T04:00:00	6	Velocidad del viento	22.5
25686	7	Sololá	712	San Antonio Palopó	9	San Antonio Palopo	12	Diciembre	2023-12-19T00:00:00	2024-11-08T04:00:00	7	Dirección del viento	22.53
25687	7	Sololá	712	San Antonio Palopó	9	San Antonio Palopo	12	Diciembre	2023-12-19T00:00:00	2024-11-08T04:00:00	1	Precipitación	0
25688	7	Sololá	712	San Antonio Palopó	9	San Antonio Palopo	12	Diciembre	2023-12-19T00:00:00	2024-11-08T04:00:00	8	Radiación solar	0
25689	7	Sololá	712	San Antonio Palopó	9	San Antonio Palopo	12	Diciembre	2023-12-19T00:00:00	2024-11-08T05:00:00	2	Temperatura media	14.1
25690	7	Sololá	712	San Antonio Palopó	9	San Antonio Palopo	12	Diciembre	2023-12-19T00:00:00	2024-11-08T05:00:00	4	Temperatura máxima	14.5
25691	7	Sololá	712	San Antonio Palopó	9	San Antonio Palopo	12	Diciembre	2023-12-19T00:00:00	2024-11-08T05:00:00	3	Temperatura mínima	13.6
25692	7	Sololá	712	San Antonio Palopó	9	San Antonio Palopo	12	Diciembre	2023-12-19T00:00:00	2024-11-08T05:00:00	5	Humedad	21
25693	7	Sololá	712	San Antonio Palopó	9	San Antonio Palopo	12	Diciembre	2023-12-19T00:00:00	2024-11-08T05:00:00	6	Velocidad del viento	22.5
25694	7	Sololá	712	San Antonio Palopó	9	San Antonio Palopo	12	Diciembre	2023-12-19T00:00:00	2024-11-08T05:00:00	7	Dirección del viento	22.53
25695	7	Sololá	712	San Antonio Palopó	9	San Antonio Palopo	12	Diciembre	2023-12-19T00:00:00	2024-11-08T05:00:00	1	Precipitación	0
25696	7	Sololá	712	San Antonio Palopó	9	San Antonio Palopo	12	Diciembre	2023-12-19T00:00:00	2024-11-08T05:00:00	8	Radiación solar	0
25697	7	Sololá	712	San Antonio Palopó	9	San Antonio Palopo	12	Diciembre	2023-12-19T00:00:00	2024-11-08T06:00:00	2	Temperatura media	14.2
25698	7	Sololá	712	San Antonio Palopó	9	San Antonio Palopo	12	Diciembre	2023-12-19T00:00:00	2024-11-08T06:00:00	4	Temperatura máxima	14.2
25699	7	Sololá	712	San Antonio Palopó	9	San Antonio Palopo	12	Diciembre	2023-12-19T00:00:00	2024-11-08T06:00:00	3	Temperatura mínima	13.7
25700	7	Sololá	712	San Antonio Palopó	9	San Antonio Palopo	12	Diciembre	2023-12-19T00:00:00	2024-11-08T06:00:00	5	Humedad	22
25701	7	Sololá	712	San Antonio Palopó	9	San Antonio Palopo	12	Diciembre	2023-12-19T00:00:00	2024-11-08T06:00:00	6	Velocidad del viento	22.5
25702	7	Sololá	712	San Antonio Palopó	9	San Antonio Palopo	12	Diciembre	2023-12-19T00:00:00	2024-11-08T06:00:00	7	Dirección del viento	22.53
25703	7	Sololá	712	San Antonio Palopó	9	San Antonio Palopo	12	Diciembre	2023-12-19T00:00:00	2024-11-08T06:00:00	1	Precipitación	0
25704	7	Sololá	712	San Antonio Palopó	9	San Antonio Palopo	12	Diciembre	2023-12-19T00:00:00	2024-11-08T06:00:00	8	Radiación solar	0
25705	7	Sololá	712	San Antonio Palopó	9	San Antonio Palopo	12	Diciembre	2023-12-19T00:00:00	2024-11-08T07:00:00	2	Temperatura media	14.9
25706	7	Sololá	712	San Antonio Palopó	9	San Antonio Palopo	12	Diciembre	2023-12-19T00:00:00	2024-11-08T07:00:00	4	Temperatura máxima	14.9
25707	7	Sololá	712	San Antonio Palopó	9	San Antonio Palopo	12	Diciembre	2023-12-19T00:00:00	2024-11-08T07:00:00	3	Temperatura mínima	13.9
25708	7	Sololá	712	San Antonio Palopó	9	San Antonio Palopo	12	Diciembre	2023-12-19T00:00:00	2024-11-08T07:00:00	5	Humedad	20
25709	7	Sololá	712	San Antonio Palopó	9	San Antonio Palopo	12	Diciembre	2023-12-19T00:00:00	2024-11-08T07:00:00	6	Velocidad del viento	19.3
25710	7	Sololá	712	San Antonio Palopó	9	San Antonio Palopo	12	Diciembre	2023-12-19T00:00:00	2024-11-08T07:00:00	7	Dirección del viento	19.31
25711	7	Sololá	712	San Antonio Palopó	9	San Antonio Palopo	12	Diciembre	2023-12-19T00:00:00	2024-11-08T07:00:00	1	Precipitación	0
25712	7	Sololá	712	San Antonio Palopó	9	San Antonio Palopo	12	Diciembre	2023-12-19T00:00:00	2024-11-08T07:00:00	8	Radiación solar	5
25713	7	Sololá	712	San Antonio Palopó	9	San Antonio Palopo	12	Diciembre	2023-12-19T00:00:00	2024-11-08T08:00:00	2	Temperatura media	16.2
25714	7	Sololá	712	San Antonio Palopó	9	San Antonio Palopo	12	Diciembre	2023-12-19T00:00:00	2024-11-08T08:00:00	4	Temperatura máxima	16.2
25715	7	Sololá	712	San Antonio Palopó	9	San Antonio Palopo	12	Diciembre	2023-12-19T00:00:00	2024-11-08T08:00:00	3	Temperatura mínima	14.8
25716	7	Sololá	712	San Antonio Palopó	9	San Antonio Palopo	12	Diciembre	2023-12-19T00:00:00	2024-11-08T08:00:00	5	Humedad	20
25717	7	Sololá	712	San Antonio Palopó	9	San Antonio Palopo	12	Diciembre	2023-12-19T00:00:00	2024-11-08T08:00:00	6	Velocidad del viento	17.7
25718	7	Sololá	712	San Antonio Palopó	9	San Antonio Palopo	12	Diciembre	2023-12-19T00:00:00	2024-11-08T08:00:00	7	Dirección del viento	17.7
25719	7	Sololá	712	San Antonio Palopó	9	San Antonio Palopo	12	Diciembre	2023-12-19T00:00:00	2024-11-08T08:00:00	1	Precipitación	0
25720	7	Sololá	712	San Antonio Palopó	9	San Antonio Palopo	12	Diciembre	2023-12-19T00:00:00	2024-11-08T08:00:00	8	Radiación solar	16
25721	7	Sololá	712	San Antonio Palopó	9	San Antonio Palopo	12	Diciembre	2023-12-19T00:00:00	2024-11-08T09:00:00	2	Temperatura media	18.8
25722	7	Sololá	712	San Antonio Palopó	9	San Antonio Palopo	12	Diciembre	2023-12-19T00:00:00	2024-11-08T09:00:00	4	Temperatura máxima	18.8
25723	7	Sololá	712	San Antonio Palopó	9	San Antonio Palopo	12	Diciembre	2023-12-19T00:00:00	2024-11-08T09:00:00	3	Temperatura mínima	16.2
25724	7	Sololá	712	San Antonio Palopó	9	San Antonio Palopo	12	Diciembre	2023-12-19T00:00:00	2024-11-08T09:00:00	5	Humedad	22
25725	7	Sololá	712	San Antonio Palopó	9	San Antonio Palopo	12	Diciembre	2023-12-19T00:00:00	2024-11-08T09:00:00	6	Velocidad del viento	12.9
25726	7	Sololá	712	San Antonio Palopó	9	San Antonio Palopo	12	Diciembre	2023-12-19T00:00:00	2024-11-08T09:00:00	7	Dirección del viento	12.87
25727	7	Sololá	712	San Antonio Palopó	9	San Antonio Palopo	12	Diciembre	2023-12-19T00:00:00	2024-11-08T09:00:00	1	Precipitación	0
25728	7	Sololá	712	San Antonio Palopó	9	San Antonio Palopo	12	Diciembre	2023-12-19T00:00:00	2024-11-08T09:00:00	8	Radiación solar	114
25729	7	Sololá	712	San Antonio Palopó	9	San Antonio Palopo	12	Diciembre	2023-12-19T00:00:00	2024-11-08T10:00:00	2	Temperatura media	20.8
25730	7	Sololá	712	San Antonio Palopó	9	San Antonio Palopo	12	Diciembre	2023-12-19T00:00:00	2024-11-08T10:00:00	4	Temperatura máxima	21.8
25731	7	Sololá	712	San Antonio Palopó	9	San Antonio Palopo	12	Diciembre	2023-12-19T00:00:00	2024-11-08T10:00:00	3	Temperatura mínima	18.8
25732	7	Sololá	712	San Antonio Palopó	9	San Antonio Palopo	12	Diciembre	2023-12-19T00:00:00	2024-11-08T10:00:00	5	Humedad	26
25733	7	Sololá	712	San Antonio Palopó	9	San Antonio Palopo	12	Diciembre	2023-12-19T00:00:00	2024-11-08T10:00:00	6	Velocidad del viento	8
25734	7	Sololá	712	San Antonio Palopó	9	San Antonio Palopo	12	Diciembre	2023-12-19T00:00:00	2024-11-08T10:00:00	7	Dirección del viento	8.05
25735	7	Sololá	712	San Antonio Palopó	9	San Antonio Palopo	12	Diciembre	2023-12-19T00:00:00	2024-11-08T10:00:00	1	Precipitación	0
25736	7	Sololá	712	San Antonio Palopó	9	San Antonio Palopo	12	Diciembre	2023-12-19T00:00:00	2024-11-08T10:00:00	8	Radiación solar	579
25737	7	Sololá	712	San Antonio Palopó	9	San Antonio Palopo	12	Diciembre	2023-12-19T00:00:00	2024-11-08T11:00:00	2	Temperatura media	21.9
25738	7	Sololá	712	San Antonio Palopó	9	San Antonio Palopo	12	Diciembre	2023-12-19T00:00:00	2024-11-08T11:00:00	4	Temperatura máxima	22
25739	7	Sololá	712	San Antonio Palopó	9	San Antonio Palopo	12	Diciembre	2023-12-19T00:00:00	2024-11-08T11:00:00	3	Temperatura mínima	20.6
25740	7	Sololá	712	San Antonio Palopó	9	San Antonio Palopo	12	Diciembre	2023-12-19T00:00:00	2024-11-08T11:00:00	5	Humedad	20
25741	7	Sololá	712	San Antonio Palopó	9	San Antonio Palopo	12	Diciembre	2023-12-19T00:00:00	2024-11-08T11:00:00	6	Velocidad del viento	3.2
25742	7	Sololá	712	San Antonio Palopó	9	San Antonio Palopo	12	Diciembre	2023-12-19T00:00:00	2024-11-08T11:00:00	7	Dirección del viento	3.22
25743	7	Sololá	712	San Antonio Palopó	9	San Antonio Palopo	12	Diciembre	2023-12-19T00:00:00	2024-11-08T11:00:00	1	Precipitación	0
25744	7	Sololá	712	San Antonio Palopó	9	San Antonio Palopo	12	Diciembre	2023-12-19T00:00:00	2024-11-08T11:00:00	8	Radiación solar	716
25745	7	Sololá	712	San Antonio Palopó	9	San Antonio Palopo	12	Diciembre	2023-12-19T00:00:00	2024-11-08T12:00:00	2	Temperatura media	23.2
25746	7	Sololá	712	San Antonio Palopó	9	San Antonio Palopo	12	Diciembre	2023-12-19T00:00:00	2024-11-08T12:00:00	4	Temperatura máxima	23.8
25747	7	Sololá	712	San Antonio Palopó	9	San Antonio Palopo	12	Diciembre	2023-12-19T00:00:00	2024-11-08T12:00:00	3	Temperatura mínima	22
25748	7	Sololá	712	San Antonio Palopó	9	San Antonio Palopo	12	Diciembre	2023-12-19T00:00:00	2024-11-08T12:00:00	5	Humedad	19
25749	7	Sololá	712	San Antonio Palopó	9	San Antonio Palopo	12	Diciembre	2023-12-19T00:00:00	2024-11-08T12:00:00	6	Velocidad del viento	3.2
25750	7	Sololá	712	San Antonio Palopó	9	San Antonio Palopo	12	Diciembre	2023-12-19T00:00:00	2024-11-08T12:00:00	7	Dirección del viento	3.22
25751	7	Sololá	712	San Antonio Palopó	9	San Antonio Palopo	12	Diciembre	2023-12-19T00:00:00	2024-11-08T12:00:00	1	Precipitación	0
25752	7	Sololá	712	San Antonio Palopó	9	San Antonio Palopo	12	Diciembre	2023-12-19T00:00:00	2024-11-08T12:00:00	8	Radiación solar	683
25753	7	Sololá	712	San Antonio Palopó	9	San Antonio Palopo	12	Diciembre	2023-12-19T00:00:00	2024-11-08T13:00:00	2	Temperatura media	23.4
25754	7	Sololá	712	San Antonio Palopó	9	San Antonio Palopo	12	Diciembre	2023-12-19T00:00:00	2024-11-08T13:00:00	4	Temperatura máxima	23.9
25755	7	Sololá	712	San Antonio Palopó	9	San Antonio Palopo	12	Diciembre	2023-12-19T00:00:00	2024-11-08T13:00:00	3	Temperatura mínima	23.1
25756	7	Sololá	712	San Antonio Palopó	9	San Antonio Palopo	12	Diciembre	2023-12-19T00:00:00	2024-11-08T13:00:00	5	Humedad	24
25757	7	Sololá	712	San Antonio Palopó	9	San Antonio Palopo	12	Diciembre	2023-12-19T00:00:00	2024-11-08T13:00:00	6	Velocidad del viento	6.4
25758	7	Sololá	712	San Antonio Palopó	9	San Antonio Palopo	12	Diciembre	2023-12-19T00:00:00	2024-11-08T13:00:00	7	Dirección del viento	6.44
25759	7	Sololá	712	San Antonio Palopó	9	San Antonio Palopo	12	Diciembre	2023-12-19T00:00:00	2024-11-08T13:00:00	1	Precipitación	0
25760	7	Sololá	712	San Antonio Palopó	9	San Antonio Palopo	12	Diciembre	2023-12-19T00:00:00	2024-11-08T13:00:00	8	Radiación solar	772
25761	7	Sololá	712	San Antonio Palopó	9	San Antonio Palopo	12	Diciembre	2023-12-19T00:00:00	2024-11-08T14:00:00	2	Temperatura media	24.4
25762	7	Sololá	712	San Antonio Palopó	9	San Antonio Palopo	12	Diciembre	2023-12-19T00:00:00	2024-11-08T14:00:00	4	Temperatura máxima	24.4
25763	7	Sololá	712	San Antonio Palopó	9	San Antonio Palopo	12	Diciembre	2023-12-19T00:00:00	2024-11-08T14:00:00	3	Temperatura mínima	23.3
25764	7	Sololá	712	San Antonio Palopó	9	San Antonio Palopo	12	Diciembre	2023-12-19T00:00:00	2024-11-08T14:00:00	5	Humedad	21
25765	7	Sololá	712	San Antonio Palopó	9	San Antonio Palopo	12	Diciembre	2023-12-19T00:00:00	2024-11-08T14:00:00	6	Velocidad del viento	8
25766	7	Sololá	712	San Antonio Palopó	9	San Antonio Palopo	12	Diciembre	2023-12-19T00:00:00	2024-11-08T14:00:00	7	Dirección del viento	8.05
25767	7	Sololá	712	San Antonio Palopó	9	San Antonio Palopo	12	Diciembre	2023-12-19T00:00:00	2024-11-08T14:00:00	1	Precipitación	0
25768	7	Sololá	712	San Antonio Palopó	9	San Antonio Palopo	12	Diciembre	2023-12-19T00:00:00	2024-11-08T14:00:00	8	Radiación solar	702
25769	7	Sololá	712	San Antonio Palopó	9	San Antonio Palopo	12	Diciembre	2023-12-19T00:00:00	2024-11-08T15:00:00	2	Temperatura media	24.2
25770	7	Sololá	712	San Antonio Palopó	9	San Antonio Palopo	12	Diciembre	2023-12-19T00:00:00	2024-11-08T15:00:00	4	Temperatura máxima	24.7
25771	7	Sololá	712	San Antonio Palopó	9	San Antonio Palopo	12	Diciembre	2023-12-19T00:00:00	2024-11-08T15:00:00	3	Temperatura mínima	23.6
25772	7	Sololá	712	San Antonio Palopó	9	San Antonio Palopo	12	Diciembre	2023-12-19T00:00:00	2024-11-08T15:00:00	5	Humedad	27
25773	7	Sololá	712	San Antonio Palopó	9	San Antonio Palopo	12	Diciembre	2023-12-19T00:00:00	2024-11-08T15:00:00	6	Velocidad del viento	16.1
25774	7	Sololá	712	San Antonio Palopó	9	San Antonio Palopo	12	Diciembre	2023-12-19T00:00:00	2024-11-08T15:00:00	7	Dirección del viento	16.09
25775	7	Sololá	712	San Antonio Palopó	9	San Antonio Palopo	12	Diciembre	2023-12-19T00:00:00	2024-11-08T15:00:00	1	Precipitación	0
25776	7	Sololá	712	San Antonio Palopó	9	San Antonio Palopo	12	Diciembre	2023-12-19T00:00:00	2024-11-08T15:00:00	8	Radiación solar	565
25777	7	Sololá	712	San Antonio Palopó	9	San Antonio Palopo	12	Diciembre	2023-12-19T00:00:00	2024-11-08T16:00:00	2	Temperatura media	22.3
25778	7	Sololá	712	San Antonio Palopó	9	San Antonio Palopo	12	Diciembre	2023-12-19T00:00:00	2024-11-08T16:00:00	4	Temperatura máxima	24.3
25779	7	Sololá	712	San Antonio Palopó	9	San Antonio Palopo	12	Diciembre	2023-12-19T00:00:00	2024-11-08T16:00:00	3	Temperatura mínima	22.3
25780	7	Sololá	712	San Antonio Palopó	9	San Antonio Palopo	12	Diciembre	2023-12-19T00:00:00	2024-11-08T16:00:00	5	Humedad	50
25781	7	Sololá	712	San Antonio Palopó	9	San Antonio Palopo	12	Diciembre	2023-12-19T00:00:00	2024-11-08T16:00:00	6	Velocidad del viento	11.3
25782	7	Sololá	712	San Antonio Palopó	9	San Antonio Palopo	12	Diciembre	2023-12-19T00:00:00	2024-11-08T16:00:00	7	Dirección del viento	11.27
25783	7	Sololá	712	San Antonio Palopó	9	San Antonio Palopo	12	Diciembre	2023-12-19T00:00:00	2024-11-08T16:00:00	1	Precipitación	0
25784	7	Sololá	712	San Antonio Palopó	9	San Antonio Palopo	12	Diciembre	2023-12-19T00:00:00	2024-11-08T16:00:00	8	Radiación solar	378
25785	7	Sololá	712	San Antonio Palopó	9	San Antonio Palopo	12	Diciembre	2023-12-19T00:00:00	2024-11-08T17:00:00	2	Temperatura media	20.8
25786	7	Sololá	712	San Antonio Palopó	9	San Antonio Palopo	12	Diciembre	2023-12-19T00:00:00	2024-11-08T17:00:00	4	Temperatura máxima	22.6
25787	7	Sololá	712	San Antonio Palopó	9	San Antonio Palopo	12	Diciembre	2023-12-19T00:00:00	2024-11-08T17:00:00	3	Temperatura mínima	20.8
25788	7	Sololá	712	San Antonio Palopó	9	San Antonio Palopo	12	Diciembre	2023-12-19T00:00:00	2024-11-08T17:00:00	5	Humedad	43
25789	7	Sololá	712	San Antonio Palopó	9	San Antonio Palopo	12	Diciembre	2023-12-19T00:00:00	2024-11-08T17:00:00	6	Velocidad del viento	9.7
25790	7	Sololá	712	San Antonio Palopó	9	San Antonio Palopo	12	Diciembre	2023-12-19T00:00:00	2024-11-08T17:00:00	7	Dirección del viento	9.66
25791	7	Sololá	712	San Antonio Palopó	9	San Antonio Palopo	12	Diciembre	2023-12-19T00:00:00	2024-11-08T17:00:00	1	Precipitación	0
25792	7	Sololá	712	San Antonio Palopó	9	San Antonio Palopo	12	Diciembre	2023-12-19T00:00:00	2024-11-08T17:00:00	8	Radiación solar	159
25793	7	Sololá	712	San Antonio Palopó	9	San Antonio Palopo	12	Diciembre	2023-12-19T00:00:00	2024-11-08T18:00:00	2	Temperatura media	17
25794	7	Sololá	712	San Antonio Palopó	9	San Antonio Palopo	12	Diciembre	2023-12-19T00:00:00	2024-11-08T18:00:00	4	Temperatura máxima	20.8
25795	7	Sololá	712	San Antonio Palopó	9	San Antonio Palopo	12	Diciembre	2023-12-19T00:00:00	2024-11-08T18:00:00	3	Temperatura mínima	17
25796	7	Sololá	712	San Antonio Palopó	9	San Antonio Palopo	12	Diciembre	2023-12-19T00:00:00	2024-11-08T18:00:00	5	Humedad	53
25797	7	Sololá	712	San Antonio Palopó	9	San Antonio Palopo	12	Diciembre	2023-12-19T00:00:00	2024-11-08T18:00:00	6	Velocidad del viento	16.1
25798	7	Sololá	712	San Antonio Palopó	9	San Antonio Palopo	12	Diciembre	2023-12-19T00:00:00	2024-11-08T18:00:00	7	Dirección del viento	16.09
25799	7	Sololá	712	San Antonio Palopó	9	San Antonio Palopo	12	Diciembre	2023-12-19T00:00:00	2024-11-08T18:00:00	1	Precipitación	0
25800	7	Sololá	712	San Antonio Palopó	9	San Antonio Palopo	12	Diciembre	2023-12-19T00:00:00	2024-11-08T18:00:00	8	Radiación solar	14
25801	7	Sololá	712	San Antonio Palopó	9	San Antonio Palopo	12	Diciembre	2023-12-19T00:00:00	2024-11-08T19:00:00	2	Temperatura media	14.8
25802	7	Sololá	712	San Antonio Palopó	9	San Antonio Palopo	12	Diciembre	2023-12-19T00:00:00	2024-11-08T19:00:00	4	Temperatura máxima	16.9
25803	7	Sololá	712	San Antonio Palopó	9	San Antonio Palopo	12	Diciembre	2023-12-19T00:00:00	2024-11-08T19:00:00	3	Temperatura mínima	14.8
25804	7	Sololá	712	San Antonio Palopó	9	San Antonio Palopo	12	Diciembre	2023-12-19T00:00:00	2024-11-08T19:00:00	5	Humedad	59
25805	7	Sololá	712	San Antonio Palopó	9	San Antonio Palopo	12	Diciembre	2023-12-19T00:00:00	2024-11-08T19:00:00	6	Velocidad del viento	24.1
25806	7	Sololá	712	San Antonio Palopó	9	San Antonio Palopo	12	Diciembre	2023-12-19T00:00:00	2024-11-08T19:00:00	7	Dirección del viento	24.14
25807	7	Sololá	712	San Antonio Palopó	9	San Antonio Palopo	12	Diciembre	2023-12-19T00:00:00	2024-11-08T19:00:00	1	Precipitación	0
25808	7	Sololá	712	San Antonio Palopó	9	San Antonio Palopo	12	Diciembre	2023-12-19T00:00:00	2024-11-08T19:00:00	8	Radiación solar	0
25809	7	Sololá	712	San Antonio Palopó	9	San Antonio Palopo	12	Diciembre	2023-12-19T00:00:00	2024-11-08T20:00:00	2	Temperatura media	13.6
25810	7	Sololá	712	San Antonio Palopó	9	San Antonio Palopo	12	Diciembre	2023-12-19T00:00:00	2024-11-08T20:00:00	4	Temperatura máxima	14.7
25811	7	Sololá	712	San Antonio Palopó	9	San Antonio Palopo	12	Diciembre	2023-12-19T00:00:00	2024-11-08T20:00:00	3	Temperatura mínima	13.6
25812	7	Sololá	712	San Antonio Palopó	9	San Antonio Palopo	12	Diciembre	2023-12-19T00:00:00	2024-11-08T20:00:00	5	Humedad	63
25813	7	Sololá	712	San Antonio Palopó	9	San Antonio Palopo	12	Diciembre	2023-12-19T00:00:00	2024-11-08T20:00:00	6	Velocidad del viento	25.7
25814	7	Sololá	712	San Antonio Palopó	9	San Antonio Palopo	12	Diciembre	2023-12-19T00:00:00	2024-11-08T20:00:00	7	Dirección del viento	25.75
25815	7	Sololá	712	San Antonio Palopó	9	San Antonio Palopo	12	Diciembre	2023-12-19T00:00:00	2024-11-08T20:00:00	1	Precipitación	0
25816	7	Sololá	712	San Antonio Palopó	9	San Antonio Palopo	12	Diciembre	2023-12-19T00:00:00	2024-11-08T20:00:00	8	Radiación solar	0
25817	7	Sololá	712	San Antonio Palopó	9	San Antonio Palopo	12	Diciembre	2023-12-19T00:00:00	2024-11-08T21:00:00	2	Temperatura media	12.7
25818	7	Sololá	712	San Antonio Palopó	9	San Antonio Palopo	12	Diciembre	2023-12-19T00:00:00	2024-11-08T21:00:00	4	Temperatura máxima	13.6
25819	7	Sololá	712	San Antonio Palopó	9	San Antonio Palopo	12	Diciembre	2023-12-19T00:00:00	2024-11-08T21:00:00	3	Temperatura mínima	12.7
25820	7	Sololá	712	San Antonio Palopó	9	San Antonio Palopo	12	Diciembre	2023-12-19T00:00:00	2024-11-08T21:00:00	5	Humedad	65
25821	7	Sololá	712	San Antonio Palopó	9	San Antonio Palopo	12	Diciembre	2023-12-19T00:00:00	2024-11-08T21:00:00	6	Velocidad del viento	27.4
25822	7	Sololá	712	San Antonio Palopó	9	San Antonio Palopo	12	Diciembre	2023-12-19T00:00:00	2024-11-08T21:00:00	7	Dirección del viento	27.36
25823	7	Sololá	712	San Antonio Palopó	9	San Antonio Palopo	12	Diciembre	2023-12-19T00:00:00	2024-11-08T21:00:00	1	Precipitación	0
25824	7	Sololá	712	San Antonio Palopó	9	San Antonio Palopo	12	Diciembre	2023-12-19T00:00:00	2024-11-08T21:00:00	8	Radiación solar	0
25825	7	Sololá	712	San Antonio Palopó	9	San Antonio Palopo	12	Diciembre	2023-12-19T00:00:00	2024-11-08T22:00:00	2	Temperatura media	12
25826	7	Sololá	712	San Antonio Palopó	9	San Antonio Palopo	12	Diciembre	2023-12-19T00:00:00	2024-11-08T22:00:00	4	Temperatura máxima	12.7
25827	7	Sololá	712	San Antonio Palopó	9	San Antonio Palopo	12	Diciembre	2023-12-19T00:00:00	2024-11-08T22:00:00	3	Temperatura mínima	11.9
25828	7	Sololá	712	San Antonio Palopó	9	San Antonio Palopo	12	Diciembre	2023-12-19T00:00:00	2024-11-08T22:00:00	5	Humedad	66
25829	7	Sololá	712	San Antonio Palopó	9	San Antonio Palopo	12	Diciembre	2023-12-19T00:00:00	2024-11-08T22:00:00	6	Velocidad del viento	25.7
25830	7	Sololá	712	San Antonio Palopó	9	San Antonio Palopo	12	Diciembre	2023-12-19T00:00:00	2024-11-08T22:00:00	7	Dirección del viento	25.75
25831	7	Sololá	712	San Antonio Palopó	9	San Antonio Palopo	12	Diciembre	2023-12-19T00:00:00	2024-11-08T22:00:00	1	Precipitación	0
25832	7	Sololá	712	San Antonio Palopó	9	San Antonio Palopo	12	Diciembre	2023-12-19T00:00:00	2024-11-08T22:00:00	8	Radiación solar	0
25833	7	Sololá	712	San Antonio Palopó	9	San Antonio Palopo	12	Diciembre	2023-12-19T00:00:00	2024-11-08T23:00:00	2	Temperatura media	11.6
25834	7	Sololá	712	San Antonio Palopó	9	San Antonio Palopo	12	Diciembre	2023-12-19T00:00:00	2024-11-08T23:00:00	4	Temperatura máxima	12.1
25835	7	Sololá	712	San Antonio Palopó	9	San Antonio Palopo	12	Diciembre	2023-12-19T00:00:00	2024-11-08T23:00:00	3	Temperatura mínima	11.6
25836	7	Sololá	712	San Antonio Palopó	9	San Antonio Palopo	12	Diciembre	2023-12-19T00:00:00	2024-11-08T23:00:00	5	Humedad	66
25837	7	Sololá	712	San Antonio Palopó	9	San Antonio Palopo	12	Diciembre	2023-12-19T00:00:00	2024-11-08T23:00:00	6	Velocidad del viento	22.5
25838	7	Sololá	712	San Antonio Palopó	9	San Antonio Palopo	12	Diciembre	2023-12-19T00:00:00	2024-11-08T23:00:00	7	Dirección del viento	22.53
25839	7	Sololá	712	San Antonio Palopó	9	San Antonio Palopo	12	Diciembre	2023-12-19T00:00:00	2024-11-08T23:00:00	1	Precipitación	0
25840	7	Sololá	712	San Antonio Palopó	9	San Antonio Palopo	12	Diciembre	2023-12-19T00:00:00	2024-11-08T23:00:00	8	Radiación solar	0
25841	7	Sololá	712	San Antonio Palopó	9	San Antonio Palopo	12	Diciembre	2023-12-20T00:00:00	2024-11-08T00:00:00	2	Temperatura media	11.4
25842	7	Sololá	712	San Antonio Palopó	9	San Antonio Palopo	12	Diciembre	2023-12-20T00:00:00	2024-11-08T00:00:00	4	Temperatura máxima	11.6
25843	7	Sololá	712	San Antonio Palopó	9	San Antonio Palopo	12	Diciembre	2023-12-20T00:00:00	2024-11-08T00:00:00	3	Temperatura mínima	11.3
25844	7	Sololá	712	San Antonio Palopó	9	San Antonio Palopo	12	Diciembre	2023-12-20T00:00:00	2024-11-08T00:00:00	5	Humedad	65
25845	7	Sololá	712	San Antonio Palopó	9	San Antonio Palopo	12	Diciembre	2023-12-20T00:00:00	2024-11-08T00:00:00	6	Velocidad del viento	27.4
25846	7	Sololá	712	San Antonio Palopó	9	San Antonio Palopo	12	Diciembre	2023-12-20T00:00:00	2024-11-08T00:00:00	7	Dirección del viento	27.36
25847	7	Sololá	712	San Antonio Palopó	9	San Antonio Palopo	12	Diciembre	2023-12-20T00:00:00	2024-11-08T00:00:00	1	Precipitación	0
25848	7	Sololá	712	San Antonio Palopó	9	San Antonio Palopo	12	Diciembre	2023-12-20T00:00:00	2024-11-08T00:00:00	8	Radiación solar	0
25849	7	Sololá	712	San Antonio Palopó	9	San Antonio Palopo	12	Diciembre	2023-12-20T00:00:00	2024-11-08T01:00:00	2	Temperatura media	10.6
25850	7	Sololá	712	San Antonio Palopó	9	San Antonio Palopo	12	Diciembre	2023-12-20T00:00:00	2024-11-08T01:00:00	4	Temperatura máxima	11.4
25851	7	Sololá	712	San Antonio Palopó	9	San Antonio Palopo	12	Diciembre	2023-12-20T00:00:00	2024-11-08T01:00:00	3	Temperatura mínima	10.6
25852	7	Sololá	712	San Antonio Palopó	9	San Antonio Palopo	12	Diciembre	2023-12-20T00:00:00	2024-11-08T01:00:00	5	Humedad	68
25853	7	Sololá	712	San Antonio Palopó	9	San Antonio Palopo	12	Diciembre	2023-12-20T00:00:00	2024-11-08T01:00:00	6	Velocidad del viento	29
25854	7	Sololá	712	San Antonio Palopó	9	San Antonio Palopo	12	Diciembre	2023-12-20T00:00:00	2024-11-08T01:00:00	7	Dirección del viento	28.97
25855	7	Sololá	712	San Antonio Palopó	9	San Antonio Palopo	12	Diciembre	2023-12-20T00:00:00	2024-11-08T01:00:00	1	Precipitación	0
25856	7	Sololá	712	San Antonio Palopó	9	San Antonio Palopo	12	Diciembre	2023-12-20T00:00:00	2024-11-08T01:00:00	8	Radiación solar	0
25857	7	Sololá	712	San Antonio Palopó	9	San Antonio Palopo	12	Diciembre	2023-12-20T00:00:00	2024-11-08T02:00:00	2	Temperatura media	10.6
25858	7	Sololá	712	San Antonio Palopó	9	San Antonio Palopo	12	Diciembre	2023-12-20T00:00:00	2024-11-08T02:00:00	4	Temperatura máxima	10.6
25859	7	Sololá	712	San Antonio Palopó	9	San Antonio Palopo	12	Diciembre	2023-12-20T00:00:00	2024-11-08T02:00:00	3	Temperatura mínima	10.4
25860	7	Sololá	712	San Antonio Palopó	9	San Antonio Palopo	12	Diciembre	2023-12-20T00:00:00	2024-11-08T02:00:00	5	Humedad	67
25861	7	Sololá	712	San Antonio Palopó	9	San Antonio Palopo	12	Diciembre	2023-12-20T00:00:00	2024-11-08T02:00:00	6	Velocidad del viento	24.1
25862	7	Sololá	712	San Antonio Palopó	9	San Antonio Palopo	12	Diciembre	2023-12-20T00:00:00	2024-11-08T02:00:00	7	Dirección del viento	24.14
25863	7	Sololá	712	San Antonio Palopó	9	San Antonio Palopo	12	Diciembre	2023-12-20T00:00:00	2024-11-08T02:00:00	1	Precipitación	0
25864	7	Sololá	712	San Antonio Palopó	9	San Antonio Palopo	12	Diciembre	2023-12-20T00:00:00	2024-11-08T02:00:00	8	Radiación solar	0
25865	7	Sololá	712	San Antonio Palopó	9	San Antonio Palopo	12	Diciembre	2023-12-20T00:00:00	2024-11-08T03:00:00	2	Temperatura media	10.5
25866	7	Sololá	712	San Antonio Palopó	9	San Antonio Palopo	12	Diciembre	2023-12-20T00:00:00	2024-11-08T03:00:00	4	Temperatura máxima	10.6
25867	7	Sololá	712	San Antonio Palopó	9	San Antonio Palopo	12	Diciembre	2023-12-20T00:00:00	2024-11-08T03:00:00	3	Temperatura mínima	10.3
25868	7	Sololá	712	San Antonio Palopó	9	San Antonio Palopo	12	Diciembre	2023-12-20T00:00:00	2024-11-08T03:00:00	5	Humedad	66
25869	7	Sololá	712	San Antonio Palopó	9	San Antonio Palopo	12	Diciembre	2023-12-20T00:00:00	2024-11-08T03:00:00	6	Velocidad del viento	24.1
25870	7	Sololá	712	San Antonio Palopó	9	San Antonio Palopo	12	Diciembre	2023-12-20T00:00:00	2024-11-08T03:00:00	7	Dirección del viento	24.14
25871	7	Sololá	712	San Antonio Palopó	9	San Antonio Palopo	12	Diciembre	2023-12-20T00:00:00	2024-11-08T03:00:00	1	Precipitación	0
25872	7	Sololá	712	San Antonio Palopó	9	San Antonio Palopo	12	Diciembre	2023-12-20T00:00:00	2024-11-08T03:00:00	8	Radiación solar	0
25873	7	Sololá	712	San Antonio Palopó	9	San Antonio Palopo	12	Diciembre	2023-12-20T00:00:00	2024-11-08T04:00:00	2	Temperatura media	10.5
25874	7	Sololá	712	San Antonio Palopó	9	San Antonio Palopo	12	Diciembre	2023-12-20T00:00:00	2024-11-08T04:00:00	4	Temperatura máxima	10.6
25875	7	Sololá	712	San Antonio Palopó	9	San Antonio Palopo	12	Diciembre	2023-12-20T00:00:00	2024-11-08T04:00:00	3	Temperatura mínima	10.4
25876	7	Sololá	712	San Antonio Palopó	9	San Antonio Palopo	12	Diciembre	2023-12-20T00:00:00	2024-11-08T04:00:00	5	Humedad	65
25877	7	Sololá	712	San Antonio Palopó	9	San Antonio Palopo	12	Diciembre	2023-12-20T00:00:00	2024-11-08T04:00:00	6	Velocidad del viento	22.5
25878	7	Sololá	712	San Antonio Palopó	9	San Antonio Palopo	12	Diciembre	2023-12-20T00:00:00	2024-11-08T04:00:00	7	Dirección del viento	22.53
25879	7	Sololá	712	San Antonio Palopó	9	San Antonio Palopo	12	Diciembre	2023-12-20T00:00:00	2024-11-08T04:00:00	1	Precipitación	0
25880	7	Sololá	712	San Antonio Palopó	9	San Antonio Palopo	12	Diciembre	2023-12-20T00:00:00	2024-11-08T04:00:00	8	Radiación solar	0
25881	7	Sololá	712	San Antonio Palopó	9	San Antonio Palopo	12	Diciembre	2023-12-20T00:00:00	2024-11-08T05:00:00	2	Temperatura media	11.3
25882	7	Sololá	712	San Antonio Palopó	9	San Antonio Palopo	12	Diciembre	2023-12-20T00:00:00	2024-11-08T05:00:00	4	Temperatura máxima	11.3
25883	7	Sololá	712	San Antonio Palopó	9	San Antonio Palopo	12	Diciembre	2023-12-20T00:00:00	2024-11-08T05:00:00	3	Temperatura mínima	10.4
25884	7	Sololá	712	San Antonio Palopó	9	San Antonio Palopo	12	Diciembre	2023-12-20T00:00:00	2024-11-08T05:00:00	5	Humedad	59
25885	7	Sololá	712	San Antonio Palopó	9	San Antonio Palopo	12	Diciembre	2023-12-20T00:00:00	2024-11-08T05:00:00	6	Velocidad del viento	17.7
25886	7	Sololá	712	San Antonio Palopó	9	San Antonio Palopo	12	Diciembre	2023-12-20T00:00:00	2024-11-08T05:00:00	7	Dirección del viento	17.7
25887	7	Sololá	712	San Antonio Palopó	9	San Antonio Palopo	12	Diciembre	2023-12-20T00:00:00	2024-11-08T05:00:00	1	Precipitación	0
25888	7	Sololá	712	San Antonio Palopó	9	San Antonio Palopo	12	Diciembre	2023-12-20T00:00:00	2024-11-08T05:00:00	8	Radiación solar	0
25889	7	Sololá	712	San Antonio Palopó	9	San Antonio Palopo	12	Diciembre	2023-12-20T00:00:00	2024-11-08T06:00:00	2	Temperatura media	11.1
25890	7	Sololá	712	San Antonio Palopó	9	San Antonio Palopo	12	Diciembre	2023-12-20T00:00:00	2024-11-08T06:00:00	4	Temperatura máxima	11.5
25891	7	Sololá	712	San Antonio Palopó	9	San Antonio Palopo	12	Diciembre	2023-12-20T00:00:00	2024-11-08T06:00:00	3	Temperatura mínima	10.9
25892	7	Sololá	712	San Antonio Palopó	9	San Antonio Palopo	12	Diciembre	2023-12-20T00:00:00	2024-11-08T06:00:00	5	Humedad	62
25893	7	Sololá	712	San Antonio Palopó	9	San Antonio Palopo	12	Diciembre	2023-12-20T00:00:00	2024-11-08T06:00:00	6	Velocidad del viento	12.9
25894	7	Sololá	712	San Antonio Palopó	9	San Antonio Palopo	12	Diciembre	2023-12-20T00:00:00	2024-11-08T06:00:00	7	Dirección del viento	12.87
25895	7	Sololá	712	San Antonio Palopó	9	San Antonio Palopo	12	Diciembre	2023-12-20T00:00:00	2024-11-08T06:00:00	1	Precipitación	0
25896	7	Sololá	712	San Antonio Palopó	9	San Antonio Palopo	12	Diciembre	2023-12-20T00:00:00	2024-11-08T06:00:00	8	Radiación solar	0
25897	7	Sololá	712	San Antonio Palopó	9	San Antonio Palopo	12	Diciembre	2023-12-20T00:00:00	2024-11-08T07:00:00	2	Temperatura media	11.3
25898	7	Sololá	712	San Antonio Palopó	9	San Antonio Palopo	12	Diciembre	2023-12-20T00:00:00	2024-11-08T07:00:00	4	Temperatura máxima	11.3
25899	7	Sololá	712	San Antonio Palopó	9	San Antonio Palopo	12	Diciembre	2023-12-20T00:00:00	2024-11-08T07:00:00	3	Temperatura mínima	10.9
25900	7	Sololá	712	San Antonio Palopó	9	San Antonio Palopo	12	Diciembre	2023-12-20T00:00:00	2024-11-08T07:00:00	5	Humedad	64
25901	7	Sololá	712	San Antonio Palopó	9	San Antonio Palopo	12	Diciembre	2023-12-20T00:00:00	2024-11-08T07:00:00	6	Velocidad del viento	6.4
25902	7	Sololá	712	San Antonio Palopó	9	San Antonio Palopo	12	Diciembre	2023-12-20T00:00:00	2024-11-08T07:00:00	7	Dirección del viento	6.44
25903	7	Sololá	712	San Antonio Palopó	9	San Antonio Palopo	12	Diciembre	2023-12-20T00:00:00	2024-11-08T07:00:00	1	Precipitación	0
25904	7	Sololá	712	San Antonio Palopó	9	San Antonio Palopo	12	Diciembre	2023-12-20T00:00:00	2024-11-08T07:00:00	8	Radiación solar	6
25905	7	Sololá	712	San Antonio Palopó	9	San Antonio Palopo	12	Diciembre	2023-12-20T00:00:00	2024-11-08T08:00:00	2	Temperatura media	12.7
25906	7	Sololá	712	San Antonio Palopó	9	San Antonio Palopo	12	Diciembre	2023-12-20T00:00:00	2024-11-08T08:00:00	4	Temperatura máxima	12.7
25907	7	Sololá	712	San Antonio Palopó	9	San Antonio Palopo	12	Diciembre	2023-12-20T00:00:00	2024-11-08T08:00:00	3	Temperatura mínima	11.3
25908	7	Sololá	712	San Antonio Palopó	9	San Antonio Palopo	12	Diciembre	2023-12-20T00:00:00	2024-11-08T08:00:00	5	Humedad	64
25909	7	Sololá	712	San Antonio Palopó	9	San Antonio Palopo	12	Diciembre	2023-12-20T00:00:00	2024-11-08T08:00:00	6	Velocidad del viento	3.2
25910	7	Sololá	712	San Antonio Palopó	9	San Antonio Palopo	12	Diciembre	2023-12-20T00:00:00	2024-11-08T08:00:00	7	Dirección del viento	3.22
25911	7	Sololá	712	San Antonio Palopó	9	San Antonio Palopo	12	Diciembre	2023-12-20T00:00:00	2024-11-08T08:00:00	1	Precipitación	0
25912	7	Sololá	712	San Antonio Palopó	9	San Antonio Palopo	12	Diciembre	2023-12-20T00:00:00	2024-11-08T08:00:00	8	Radiación solar	19
25913	7	Sololá	712	San Antonio Palopó	9	San Antonio Palopo	12	Diciembre	2023-12-20T00:00:00	2024-11-08T09:00:00	2	Temperatura media	13.5
25914	7	Sololá	712	San Antonio Palopó	9	San Antonio Palopo	12	Diciembre	2023-12-20T00:00:00	2024-11-08T09:00:00	4	Temperatura máxima	13.5
25915	7	Sololá	712	San Antonio Palopó	9	San Antonio Palopo	12	Diciembre	2023-12-20T00:00:00	2024-11-08T09:00:00	3	Temperatura mínima	12.4
25916	7	Sololá	712	San Antonio Palopó	9	San Antonio Palopo	12	Diciembre	2023-12-20T00:00:00	2024-11-08T09:00:00	5	Humedad	66
25917	7	Sololá	712	San Antonio Palopó	9	San Antonio Palopo	12	Diciembre	2023-12-20T00:00:00	2024-11-08T09:00:00	6	Velocidad del viento	3.2
25918	7	Sololá	712	San Antonio Palopó	9	San Antonio Palopo	12	Diciembre	2023-12-20T00:00:00	2024-11-08T09:00:00	7	Dirección del viento	3.22
25919	7	Sololá	712	San Antonio Palopó	9	San Antonio Palopo	12	Diciembre	2023-12-20T00:00:00	2024-11-08T09:00:00	1	Precipitación	0
25920	7	Sololá	712	San Antonio Palopó	9	San Antonio Palopo	12	Diciembre	2023-12-20T00:00:00	2024-11-08T09:00:00	8	Radiación solar	112
25921	7	Sololá	712	San Antonio Palopó	9	San Antonio Palopo	12	Diciembre	2023-12-20T00:00:00	2024-11-08T10:00:00	2	Temperatura media	16.2
25922	7	Sololá	712	San Antonio Palopó	9	San Antonio Palopo	12	Diciembre	2023-12-20T00:00:00	2024-11-08T10:00:00	4	Temperatura máxima	16.6
25923	7	Sololá	712	San Antonio Palopó	9	San Antonio Palopo	12	Diciembre	2023-12-20T00:00:00	2024-11-08T10:00:00	3	Temperatura mínima	13.6
25924	7	Sololá	712	San Antonio Palopó	9	San Antonio Palopo	12	Diciembre	2023-12-20T00:00:00	2024-11-08T10:00:00	5	Humedad	62
25925	7	Sololá	712	San Antonio Palopó	9	San Antonio Palopo	12	Diciembre	2023-12-20T00:00:00	2024-11-08T10:00:00	6	Velocidad del viento	1.6
25926	7	Sololá	712	San Antonio Palopó	9	San Antonio Palopo	12	Diciembre	2023-12-20T00:00:00	2024-11-08T10:00:00	7	Dirección del viento	1.61
25927	7	Sololá	712	San Antonio Palopó	9	San Antonio Palopo	12	Diciembre	2023-12-20T00:00:00	2024-11-08T10:00:00	1	Precipitación	0
25928	7	Sololá	712	San Antonio Palopó	9	San Antonio Palopo	12	Diciembre	2023-12-20T00:00:00	2024-11-08T10:00:00	8	Radiación solar	557
25929	7	Sololá	712	San Antonio Palopó	9	San Antonio Palopo	12	Diciembre	2023-12-20T00:00:00	2024-11-08T11:00:00	2	Temperatura media	17.6
25930	7	Sololá	712	San Antonio Palopó	9	San Antonio Palopo	12	Diciembre	2023-12-20T00:00:00	2024-11-08T11:00:00	4	Temperatura máxima	17.6
25931	7	Sololá	712	San Antonio Palopó	9	San Antonio Palopo	12	Diciembre	2023-12-20T00:00:00	2024-11-08T11:00:00	3	Temperatura mínima	16.2
25932	7	Sololá	712	San Antonio Palopó	9	San Antonio Palopo	12	Diciembre	2023-12-20T00:00:00	2024-11-08T11:00:00	5	Humedad	62
25933	7	Sololá	712	San Antonio Palopó	9	San Antonio Palopo	12	Diciembre	2023-12-20T00:00:00	2024-11-08T11:00:00	6	Velocidad del viento	3.2
25934	7	Sololá	712	San Antonio Palopó	9	San Antonio Palopo	12	Diciembre	2023-12-20T00:00:00	2024-11-08T11:00:00	7	Dirección del viento	3.22
25935	7	Sololá	712	San Antonio Palopó	9	San Antonio Palopo	12	Diciembre	2023-12-20T00:00:00	2024-11-08T11:00:00	1	Precipitación	0
25936	7	Sololá	712	San Antonio Palopó	9	San Antonio Palopo	12	Diciembre	2023-12-20T00:00:00	2024-11-08T11:00:00	8	Radiación solar	685
25937	7	Sololá	712	San Antonio Palopó	9	San Antonio Palopo	12	Diciembre	2023-12-20T00:00:00	2024-11-08T12:00:00	2	Temperatura media	19.8
25938	7	Sololá	712	San Antonio Palopó	9	San Antonio Palopo	12	Diciembre	2023-12-20T00:00:00	2024-11-08T12:00:00	4	Temperatura máxima	19.8
25939	7	Sololá	712	San Antonio Palopó	9	San Antonio Palopo	12	Diciembre	2023-12-20T00:00:00	2024-11-08T12:00:00	3	Temperatura mínima	17.6
25940	7	Sololá	712	San Antonio Palopó	9	San Antonio Palopo	12	Diciembre	2023-12-20T00:00:00	2024-11-08T12:00:00	5	Humedad	57
25941	7	Sololá	712	San Antonio Palopó	9	San Antonio Palopo	12	Diciembre	2023-12-20T00:00:00	2024-11-08T12:00:00	6	Velocidad del viento	3.2
25942	7	Sololá	712	San Antonio Palopó	9	San Antonio Palopo	12	Diciembre	2023-12-20T00:00:00	2024-11-08T12:00:00	7	Dirección del viento	3.22
25943	7	Sololá	712	San Antonio Palopó	9	San Antonio Palopo	12	Diciembre	2023-12-20T00:00:00	2024-11-08T12:00:00	1	Precipitación	0
25944	7	Sololá	712	San Antonio Palopó	9	San Antonio Palopo	12	Diciembre	2023-12-20T00:00:00	2024-11-08T12:00:00	8	Radiación solar	654
25945	7	Sololá	712	San Antonio Palopó	9	San Antonio Palopo	12	Diciembre	2023-12-20T00:00:00	2024-11-08T13:00:00	2	Temperatura media	20.7
25946	7	Sololá	712	San Antonio Palopó	9	San Antonio Palopo	12	Diciembre	2023-12-20T00:00:00	2024-11-08T13:00:00	4	Temperatura máxima	20.8
25947	7	Sololá	712	San Antonio Palopó	9	San Antonio Palopo	12	Diciembre	2023-12-20T00:00:00	2024-11-08T13:00:00	3	Temperatura mínima	19.8
25948	7	Sololá	712	San Antonio Palopó	9	San Antonio Palopo	12	Diciembre	2023-12-20T00:00:00	2024-11-08T13:00:00	5	Humedad	63
25949	7	Sololá	712	San Antonio Palopó	9	San Antonio Palopo	12	Diciembre	2023-12-20T00:00:00	2024-11-08T13:00:00	6	Velocidad del viento	3.2
25950	7	Sololá	712	San Antonio Palopó	9	San Antonio Palopo	12	Diciembre	2023-12-20T00:00:00	2024-11-08T13:00:00	7	Dirección del viento	3.22
25951	7	Sololá	712	San Antonio Palopó	9	San Antonio Palopo	12	Diciembre	2023-12-20T00:00:00	2024-11-08T13:00:00	1	Precipitación	0
25952	7	Sololá	712	San Antonio Palopó	9	San Antonio Palopo	12	Diciembre	2023-12-20T00:00:00	2024-11-08T13:00:00	8	Radiación solar	725
25953	7	Sololá	712	San Antonio Palopó	9	San Antonio Palopo	12	Diciembre	2023-12-20T00:00:00	2024-11-08T14:00:00	2	Temperatura media	22.9
25954	7	Sololá	712	San Antonio Palopó	9	San Antonio Palopo	12	Diciembre	2023-12-20T00:00:00	2024-11-08T14:00:00	4	Temperatura máxima	22.9
25955	7	Sololá	712	San Antonio Palopó	9	San Antonio Palopo	12	Diciembre	2023-12-20T00:00:00	2024-11-08T14:00:00	3	Temperatura mínima	20.6
25956	7	Sololá	712	San Antonio Palopó	9	San Antonio Palopo	12	Diciembre	2023-12-20T00:00:00	2024-11-08T14:00:00	5	Humedad	63
25957	7	Sololá	712	San Antonio Palopó	9	San Antonio Palopo	12	Diciembre	2023-12-20T00:00:00	2024-11-08T14:00:00	6	Velocidad del viento	4.8
25958	7	Sololá	712	San Antonio Palopó	9	San Antonio Palopo	12	Diciembre	2023-12-20T00:00:00	2024-11-08T14:00:00	7	Dirección del viento	4.83
25959	7	Sololá	712	San Antonio Palopó	9	San Antonio Palopo	12	Diciembre	2023-12-20T00:00:00	2024-11-08T14:00:00	1	Precipitación	0
25960	7	Sololá	712	San Antonio Palopó	9	San Antonio Palopo	12	Diciembre	2023-12-20T00:00:00	2024-11-08T14:00:00	8	Radiación solar	668
25961	7	Sololá	712	San Antonio Palopó	9	San Antonio Palopo	12	Diciembre	2023-12-20T00:00:00	2024-11-08T15:00:00	2	Temperatura media	22.9
25962	7	Sololá	712	San Antonio Palopó	9	San Antonio Palopo	12	Diciembre	2023-12-20T00:00:00	2024-11-08T15:00:00	4	Temperatura máxima	23.3
25963	7	Sololá	712	San Antonio Palopó	9	San Antonio Palopo	12	Diciembre	2023-12-20T00:00:00	2024-11-08T15:00:00	3	Temperatura mínima	22.7
25964	7	Sololá	712	San Antonio Palopó	9	San Antonio Palopo	12	Diciembre	2023-12-20T00:00:00	2024-11-08T15:00:00	5	Humedad	62
25965	7	Sololá	712	San Antonio Palopó	9	San Antonio Palopo	12	Diciembre	2023-12-20T00:00:00	2024-11-08T15:00:00	6	Velocidad del viento	6.4
25966	7	Sololá	712	San Antonio Palopó	9	San Antonio Palopo	12	Diciembre	2023-12-20T00:00:00	2024-11-08T15:00:00	7	Dirección del viento	6.44
25967	7	Sololá	712	San Antonio Palopó	9	San Antonio Palopo	12	Diciembre	2023-12-20T00:00:00	2024-11-08T15:00:00	1	Precipitación	0
25968	7	Sololá	712	San Antonio Palopó	9	San Antonio Palopo	12	Diciembre	2023-12-20T00:00:00	2024-11-08T15:00:00	8	Radiación solar	537
25969	7	Sololá	712	San Antonio Palopó	9	San Antonio Palopo	12	Diciembre	2023-12-20T00:00:00	2024-11-08T16:00:00	2	Temperatura media	22.8
25970	7	Sololá	712	San Antonio Palopó	9	San Antonio Palopo	12	Diciembre	2023-12-20T00:00:00	2024-11-08T16:00:00	4	Temperatura máxima	23.3
25971	7	Sololá	712	San Antonio Palopó	9	San Antonio Palopo	12	Diciembre	2023-12-20T00:00:00	2024-11-08T16:00:00	3	Temperatura mínima	22.8
25972	7	Sololá	712	San Antonio Palopó	9	San Antonio Palopo	12	Diciembre	2023-12-20T00:00:00	2024-11-08T16:00:00	5	Humedad	66
25973	7	Sololá	712	San Antonio Palopó	9	San Antonio Palopo	12	Diciembre	2023-12-20T00:00:00	2024-11-08T16:00:00	6	Velocidad del viento	6.4
25974	7	Sololá	712	San Antonio Palopó	9	San Antonio Palopo	12	Diciembre	2023-12-20T00:00:00	2024-11-08T16:00:00	7	Dirección del viento	6.44
25975	7	Sololá	712	San Antonio Palopó	9	San Antonio Palopo	12	Diciembre	2023-12-20T00:00:00	2024-11-08T16:00:00	1	Precipitación	0
25976	7	Sololá	712	San Antonio Palopó	9	San Antonio Palopo	12	Diciembre	2023-12-20T00:00:00	2024-11-08T16:00:00	8	Radiación solar	364
25977	7	Sololá	712	San Antonio Palopó	9	San Antonio Palopo	12	Diciembre	2023-12-20T00:00:00	2024-11-08T17:00:00	2	Temperatura media	21.7
25978	7	Sololá	712	San Antonio Palopó	9	San Antonio Palopo	12	Diciembre	2023-12-20T00:00:00	2024-11-08T17:00:00	4	Temperatura máxima	22.8
25979	7	Sololá	712	San Antonio Palopó	9	San Antonio Palopo	12	Diciembre	2023-12-20T00:00:00	2024-11-08T17:00:00	3	Temperatura mínima	21.2
25980	7	Sololá	712	San Antonio Palopó	9	San Antonio Palopo	12	Diciembre	2023-12-20T00:00:00	2024-11-08T17:00:00	5	Humedad	68
25981	7	Sololá	712	San Antonio Palopó	9	San Antonio Palopo	12	Diciembre	2023-12-20T00:00:00	2024-11-08T17:00:00	6	Velocidad del viento	6.4
25982	7	Sololá	712	San Antonio Palopó	9	San Antonio Palopo	12	Diciembre	2023-12-20T00:00:00	2024-11-08T17:00:00	7	Dirección del viento	6.44
25983	7	Sololá	712	San Antonio Palopó	9	San Antonio Palopo	12	Diciembre	2023-12-20T00:00:00	2024-11-08T17:00:00	1	Precipitación	0
25984	7	Sololá	712	San Antonio Palopó	9	San Antonio Palopo	12	Diciembre	2023-12-20T00:00:00	2024-11-08T17:00:00	8	Radiación solar	154
25985	7	Sololá	712	San Antonio Palopó	9	San Antonio Palopo	12	Diciembre	2023-12-20T00:00:00	2024-11-08T18:00:00	2	Temperatura media	18.6
25986	7	Sololá	712	San Antonio Palopó	9	San Antonio Palopo	12	Diciembre	2023-12-20T00:00:00	2024-11-08T18:00:00	4	Temperatura máxima	21.8
25987	7	Sololá	712	San Antonio Palopó	9	San Antonio Palopo	12	Diciembre	2023-12-20T00:00:00	2024-11-08T18:00:00	3	Temperatura mínima	18.6
25988	7	Sololá	712	San Antonio Palopó	9	San Antonio Palopo	12	Diciembre	2023-12-20T00:00:00	2024-11-08T18:00:00	5	Humedad	50
25989	7	Sololá	712	San Antonio Palopó	9	San Antonio Palopo	12	Diciembre	2023-12-20T00:00:00	2024-11-08T18:00:00	6	Velocidad del viento	11.3
25990	7	Sololá	712	San Antonio Palopó	9	San Antonio Palopo	12	Diciembre	2023-12-20T00:00:00	2024-11-08T18:00:00	7	Dirección del viento	11.27
25991	7	Sololá	712	San Antonio Palopó	9	San Antonio Palopo	12	Diciembre	2023-12-20T00:00:00	2024-11-08T18:00:00	1	Precipitación	0
25992	7	Sololá	712	San Antonio Palopó	9	San Antonio Palopo	12	Diciembre	2023-12-20T00:00:00	2024-11-08T18:00:00	8	Radiación solar	16
25993	7	Sololá	712	San Antonio Palopó	9	San Antonio Palopo	12	Diciembre	2023-12-20T00:00:00	2024-11-08T19:00:00	2	Temperatura media	16.7
25994	7	Sololá	712	San Antonio Palopó	9	San Antonio Palopo	12	Diciembre	2023-12-20T00:00:00	2024-11-08T19:00:00	4	Temperatura máxima	18.6
25995	7	Sololá	712	San Antonio Palopó	9	San Antonio Palopo	12	Diciembre	2023-12-20T00:00:00	2024-11-08T19:00:00	3	Temperatura mínima	16.7
25996	7	Sololá	712	San Antonio Palopó	9	San Antonio Palopo	12	Diciembre	2023-12-20T00:00:00	2024-11-08T19:00:00	5	Humedad	59
25997	7	Sololá	712	San Antonio Palopó	9	San Antonio Palopo	12	Diciembre	2023-12-20T00:00:00	2024-11-08T19:00:00	6	Velocidad del viento	19.3
25998	7	Sololá	712	San Antonio Palopó	9	San Antonio Palopo	12	Diciembre	2023-12-20T00:00:00	2024-11-08T19:00:00	7	Dirección del viento	19.31
25999	7	Sololá	712	San Antonio Palopó	9	San Antonio Palopo	12	Diciembre	2023-12-20T00:00:00	2024-11-08T19:00:00	1	Precipitación	0
26000	7	Sololá	712	San Antonio Palopó	9	San Antonio Palopo	12	Diciembre	2023-12-20T00:00:00	2024-11-08T19:00:00	8	Radiación solar	0
26001	7	Sololá	712	San Antonio Palopó	9	San Antonio Palopo	12	Diciembre	2023-12-20T00:00:00	2024-11-08T20:00:00	2	Temperatura media	15.2
26002	7	Sololá	712	San Antonio Palopó	9	San Antonio Palopo	12	Diciembre	2023-12-20T00:00:00	2024-11-08T20:00:00	4	Temperatura máxima	16.7
26003	7	Sololá	712	San Antonio Palopó	9	San Antonio Palopo	12	Diciembre	2023-12-20T00:00:00	2024-11-08T20:00:00	3	Temperatura mínima	15.2
26004	7	Sololá	712	San Antonio Palopó	9	San Antonio Palopo	12	Diciembre	2023-12-20T00:00:00	2024-11-08T20:00:00	5	Humedad	65
26005	7	Sololá	712	San Antonio Palopó	9	San Antonio Palopo	12	Diciembre	2023-12-20T00:00:00	2024-11-08T20:00:00	6	Velocidad del viento	22.5
26006	7	Sololá	712	San Antonio Palopó	9	San Antonio Palopo	12	Diciembre	2023-12-20T00:00:00	2024-11-08T20:00:00	7	Dirección del viento	22.53
26007	7	Sololá	712	San Antonio Palopó	9	San Antonio Palopo	12	Diciembre	2023-12-20T00:00:00	2024-11-08T20:00:00	1	Precipitación	0
26008	7	Sololá	712	San Antonio Palopó	9	San Antonio Palopo	12	Diciembre	2023-12-20T00:00:00	2024-11-08T20:00:00	8	Radiación solar	0
26009	7	Sololá	712	San Antonio Palopó	9	San Antonio Palopo	12	Diciembre	2023-12-20T00:00:00	2024-11-08T21:00:00	2	Temperatura media	14.5
26010	7	Sololá	712	San Antonio Palopó	9	San Antonio Palopo	12	Diciembre	2023-12-20T00:00:00	2024-11-08T21:00:00	4	Temperatura máxima	15.2
26011	7	Sololá	712	San Antonio Palopó	9	San Antonio Palopo	12	Diciembre	2023-12-20T00:00:00	2024-11-08T21:00:00	3	Temperatura mínima	14.4
26012	7	Sololá	712	San Antonio Palopó	9	San Antonio Palopo	12	Diciembre	2023-12-20T00:00:00	2024-11-08T21:00:00	5	Humedad	68
26013	7	Sololá	712	San Antonio Palopó	9	San Antonio Palopo	12	Diciembre	2023-12-20T00:00:00	2024-11-08T21:00:00	6	Velocidad del viento	24.1
26014	7	Sololá	712	San Antonio Palopó	9	San Antonio Palopo	12	Diciembre	2023-12-20T00:00:00	2024-11-08T21:00:00	7	Dirección del viento	24.14
26015	7	Sololá	712	San Antonio Palopó	9	San Antonio Palopo	12	Diciembre	2023-12-20T00:00:00	2024-11-08T21:00:00	1	Precipitación	0
26016	7	Sololá	712	San Antonio Palopó	9	San Antonio Palopo	12	Diciembre	2023-12-20T00:00:00	2024-11-08T21:00:00	8	Radiación solar	0
26017	7	Sololá	712	San Antonio Palopó	9	San Antonio Palopo	12	Diciembre	2023-12-20T00:00:00	2024-11-08T22:00:00	2	Temperatura media	14.1
26018	7	Sololá	712	San Antonio Palopó	9	San Antonio Palopo	12	Diciembre	2023-12-20T00:00:00	2024-11-08T22:00:00	4	Temperatura máxima	14.5
26019	7	Sololá	712	San Antonio Palopó	9	San Antonio Palopo	12	Diciembre	2023-12-20T00:00:00	2024-11-08T22:00:00	3	Temperatura mínima	14.1
26020	7	Sololá	712	San Antonio Palopó	9	San Antonio Palopo	12	Diciembre	2023-12-20T00:00:00	2024-11-08T22:00:00	5	Humedad	67
26021	7	Sololá	712	San Antonio Palopó	9	San Antonio Palopo	12	Diciembre	2023-12-20T00:00:00	2024-11-08T22:00:00	6	Velocidad del viento	20.9
26022	7	Sololá	712	San Antonio Palopó	9	San Antonio Palopo	12	Diciembre	2023-12-20T00:00:00	2024-11-08T22:00:00	7	Dirección del viento	20.92
26023	7	Sololá	712	San Antonio Palopó	9	San Antonio Palopo	12	Diciembre	2023-12-20T00:00:00	2024-11-08T22:00:00	1	Precipitación	0
26024	7	Sololá	712	San Antonio Palopó	9	San Antonio Palopo	12	Diciembre	2023-12-20T00:00:00	2024-11-08T22:00:00	8	Radiación solar	0
26025	7	Sololá	712	San Antonio Palopó	9	San Antonio Palopo	12	Diciembre	2023-12-20T00:00:00	2024-11-08T23:00:00	2	Temperatura media	13.6
26026	7	Sololá	712	San Antonio Palopó	9	San Antonio Palopo	12	Diciembre	2023-12-20T00:00:00	2024-11-08T23:00:00	4	Temperatura máxima	14.1
26027	7	Sololá	712	San Antonio Palopó	9	San Antonio Palopo	12	Diciembre	2023-12-20T00:00:00	2024-11-08T23:00:00	3	Temperatura mínima	13.5
26028	7	Sololá	712	San Antonio Palopó	9	San Antonio Palopo	12	Diciembre	2023-12-20T00:00:00	2024-11-08T23:00:00	5	Humedad	67
26029	7	Sololá	712	San Antonio Palopó	9	San Antonio Palopo	12	Diciembre	2023-12-20T00:00:00	2024-11-08T23:00:00	6	Velocidad del viento	20.9
26030	7	Sololá	712	San Antonio Palopó	9	San Antonio Palopo	12	Diciembre	2023-12-20T00:00:00	2024-11-08T23:00:00	7	Dirección del viento	20.92
26031	7	Sololá	712	San Antonio Palopó	9	San Antonio Palopo	12	Diciembre	2023-12-20T00:00:00	2024-11-08T23:00:00	1	Precipitación	0
26032	7	Sololá	712	San Antonio Palopó	9	San Antonio Palopo	12	Diciembre	2023-12-20T00:00:00	2024-11-08T23:00:00	8	Radiación solar	0
26033	7	Sololá	712	San Antonio Palopó	9	San Antonio Palopo	12	Diciembre	2023-12-21T00:00:00	2024-11-08T00:00:00	2	Temperatura media	13.3
26034	7	Sololá	712	San Antonio Palopó	9	San Antonio Palopo	12	Diciembre	2023-12-21T00:00:00	2024-11-08T00:00:00	4	Temperatura máxima	13.6
26035	7	Sololá	712	San Antonio Palopó	9	San Antonio Palopo	12	Diciembre	2023-12-21T00:00:00	2024-11-08T00:00:00	3	Temperatura mínima	13.2
26036	7	Sololá	712	San Antonio Palopó	9	San Antonio Palopo	12	Diciembre	2023-12-21T00:00:00	2024-11-08T00:00:00	5	Humedad	67
26037	7	Sololá	712	San Antonio Palopó	9	San Antonio Palopo	12	Diciembre	2023-12-21T00:00:00	2024-11-08T00:00:00	6	Velocidad del viento	19.3
26038	7	Sololá	712	San Antonio Palopó	9	San Antonio Palopo	12	Diciembre	2023-12-21T00:00:00	2024-11-08T00:00:00	7	Dirección del viento	19.31
26039	7	Sololá	712	San Antonio Palopó	9	San Antonio Palopo	12	Diciembre	2023-12-21T00:00:00	2024-11-08T00:00:00	1	Precipitación	0
26040	7	Sololá	712	San Antonio Palopó	9	San Antonio Palopo	12	Diciembre	2023-12-21T00:00:00	2024-11-08T00:00:00	8	Radiación solar	0
26041	7	Sololá	712	San Antonio Palopó	9	San Antonio Palopo	12	Diciembre	2023-12-21T00:00:00	2024-11-08T01:00:00	2	Temperatura media	12.6
26042	7	Sololá	712	San Antonio Palopó	9	San Antonio Palopo	12	Diciembre	2023-12-21T00:00:00	2024-11-08T01:00:00	4	Temperatura máxima	13.3
26043	7	Sololá	712	San Antonio Palopó	9	San Antonio Palopo	12	Diciembre	2023-12-21T00:00:00	2024-11-08T01:00:00	3	Temperatura mínima	12.6
26044	7	Sololá	712	San Antonio Palopó	9	San Antonio Palopo	12	Diciembre	2023-12-21T00:00:00	2024-11-08T01:00:00	5	Humedad	67
26045	7	Sololá	712	San Antonio Palopó	9	San Antonio Palopo	12	Diciembre	2023-12-21T00:00:00	2024-11-08T01:00:00	6	Velocidad del viento	22.5
26046	7	Sololá	712	San Antonio Palopó	9	San Antonio Palopo	12	Diciembre	2023-12-21T00:00:00	2024-11-08T01:00:00	7	Dirección del viento	22.53
26047	7	Sololá	712	San Antonio Palopó	9	San Antonio Palopo	12	Diciembre	2023-12-21T00:00:00	2024-11-08T01:00:00	1	Precipitación	0
26048	7	Sololá	712	San Antonio Palopó	9	San Antonio Palopo	12	Diciembre	2023-12-21T00:00:00	2024-11-08T01:00:00	8	Radiación solar	0
26049	7	Sololá	712	San Antonio Palopó	9	San Antonio Palopo	12	Diciembre	2023-12-21T00:00:00	2024-11-08T02:00:00	2	Temperatura media	12.2
26050	7	Sololá	712	San Antonio Palopó	9	San Antonio Palopo	12	Diciembre	2023-12-21T00:00:00	2024-11-08T02:00:00	4	Temperatura máxima	12.6
26051	7	Sololá	712	San Antonio Palopó	9	San Antonio Palopo	12	Diciembre	2023-12-21T00:00:00	2024-11-08T02:00:00	3	Temperatura mínima	12.2
26052	7	Sololá	712	San Antonio Palopó	9	San Antonio Palopo	12	Diciembre	2023-12-21T00:00:00	2024-11-08T02:00:00	5	Humedad	66
26053	7	Sololá	712	San Antonio Palopó	9	San Antonio Palopo	12	Diciembre	2023-12-21T00:00:00	2024-11-08T02:00:00	6	Velocidad del viento	24.1
26054	7	Sololá	712	San Antonio Palopó	9	San Antonio Palopo	12	Diciembre	2023-12-21T00:00:00	2024-11-08T02:00:00	7	Dirección del viento	24.14
26055	7	Sololá	712	San Antonio Palopó	9	San Antonio Palopo	12	Diciembre	2023-12-21T00:00:00	2024-11-08T02:00:00	1	Precipitación	0
26056	7	Sololá	712	San Antonio Palopó	9	San Antonio Palopo	12	Diciembre	2023-12-21T00:00:00	2024-11-08T02:00:00	8	Radiación solar	0
26057	7	Sololá	712	San Antonio Palopó	9	San Antonio Palopo	12	Diciembre	2023-12-21T00:00:00	2024-11-08T03:00:00	2	Temperatura media	13
26058	7	Sololá	712	San Antonio Palopó	9	San Antonio Palopo	12	Diciembre	2023-12-21T00:00:00	2024-11-08T03:00:00	4	Temperatura máxima	13
26059	7	Sololá	712	San Antonio Palopó	9	San Antonio Palopo	12	Diciembre	2023-12-21T00:00:00	2024-11-08T03:00:00	3	Temperatura mínima	12.2
26060	7	Sololá	712	San Antonio Palopó	9	San Antonio Palopo	12	Diciembre	2023-12-21T00:00:00	2024-11-08T03:00:00	5	Humedad	61
26061	7	Sololá	712	San Antonio Palopó	9	San Antonio Palopo	12	Diciembre	2023-12-21T00:00:00	2024-11-08T03:00:00	6	Velocidad del viento	22.5
26062	7	Sololá	712	San Antonio Palopó	9	San Antonio Palopo	12	Diciembre	2023-12-21T00:00:00	2024-11-08T03:00:00	7	Dirección del viento	22.53
26063	7	Sololá	712	San Antonio Palopó	9	San Antonio Palopo	12	Diciembre	2023-12-21T00:00:00	2024-11-08T03:00:00	1	Precipitación	0
26064	7	Sololá	712	San Antonio Palopó	9	San Antonio Palopo	12	Diciembre	2023-12-21T00:00:00	2024-11-08T03:00:00	8	Radiación solar	0
26065	7	Sololá	712	San Antonio Palopó	9	San Antonio Palopo	12	Diciembre	2023-12-21T00:00:00	2024-11-08T04:00:00	2	Temperatura media	13.1
26066	7	Sololá	712	San Antonio Palopó	9	San Antonio Palopo	12	Diciembre	2023-12-21T00:00:00	2024-11-08T04:00:00	4	Temperatura máxima	13.4
26067	7	Sololá	712	San Antonio Palopó	9	San Antonio Palopo	12	Diciembre	2023-12-21T00:00:00	2024-11-08T04:00:00	3	Temperatura mínima	12.9
26068	7	Sololá	712	San Antonio Palopó	9	San Antonio Palopo	12	Diciembre	2023-12-21T00:00:00	2024-11-08T04:00:00	5	Humedad	60
26069	7	Sololá	712	San Antonio Palopó	9	San Antonio Palopo	12	Diciembre	2023-12-21T00:00:00	2024-11-08T04:00:00	6	Velocidad del viento	20.9
26070	7	Sololá	712	San Antonio Palopó	9	San Antonio Palopo	12	Diciembre	2023-12-21T00:00:00	2024-11-08T04:00:00	7	Dirección del viento	20.92
26071	7	Sololá	712	San Antonio Palopó	9	San Antonio Palopo	12	Diciembre	2023-12-21T00:00:00	2024-11-08T04:00:00	1	Precipitación	0
26072	7	Sololá	712	San Antonio Palopó	9	San Antonio Palopo	12	Diciembre	2023-12-21T00:00:00	2024-11-08T04:00:00	8	Radiación solar	0
26073	7	Sololá	712	San Antonio Palopó	9	San Antonio Palopo	12	Diciembre	2023-12-21T00:00:00	2024-11-08T05:00:00	2	Temperatura media	13.9
26074	7	Sololá	712	San Antonio Palopó	9	San Antonio Palopo	12	Diciembre	2023-12-21T00:00:00	2024-11-08T05:00:00	4	Temperatura máxima	13.9
26075	7	Sololá	712	San Antonio Palopó	9	San Antonio Palopo	12	Diciembre	2023-12-21T00:00:00	2024-11-08T05:00:00	3	Temperatura mínima	13.1
26076	7	Sololá	712	San Antonio Palopó	9	San Antonio Palopo	12	Diciembre	2023-12-21T00:00:00	2024-11-08T05:00:00	5	Humedad	57
26077	7	Sololá	712	San Antonio Palopó	9	San Antonio Palopo	12	Diciembre	2023-12-21T00:00:00	2024-11-08T05:00:00	6	Velocidad del viento	19.3
26078	7	Sololá	712	San Antonio Palopó	9	San Antonio Palopo	12	Diciembre	2023-12-21T00:00:00	2024-11-08T05:00:00	7	Dirección del viento	19.31
26079	7	Sololá	712	San Antonio Palopó	9	San Antonio Palopo	12	Diciembre	2023-12-21T00:00:00	2024-11-08T05:00:00	1	Precipitación	0
26080	7	Sololá	712	San Antonio Palopó	9	San Antonio Palopo	12	Diciembre	2023-12-21T00:00:00	2024-11-08T05:00:00	8	Radiación solar	0
26081	7	Sololá	712	San Antonio Palopó	9	San Antonio Palopo	12	Diciembre	2023-12-21T00:00:00	2024-11-08T06:00:00	2	Temperatura media	13.8
26082	7	Sololá	712	San Antonio Palopó	9	San Antonio Palopo	12	Diciembre	2023-12-21T00:00:00	2024-11-08T06:00:00	4	Temperatura máxima	14.4
26083	7	Sololá	712	San Antonio Palopó	9	San Antonio Palopo	12	Diciembre	2023-12-21T00:00:00	2024-11-08T06:00:00	3	Temperatura mínima	13.8
26084	7	Sololá	712	San Antonio Palopó	9	San Antonio Palopo	12	Diciembre	2023-12-21T00:00:00	2024-11-08T06:00:00	5	Humedad	53
26085	7	Sololá	712	San Antonio Palopó	9	San Antonio Palopo	12	Diciembre	2023-12-21T00:00:00	2024-11-08T06:00:00	6	Velocidad del viento	17.7
26086	7	Sololá	712	San Antonio Palopó	9	San Antonio Palopo	12	Diciembre	2023-12-21T00:00:00	2024-11-08T06:00:00	7	Dirección del viento	17.7
26087	7	Sololá	712	San Antonio Palopó	9	San Antonio Palopo	12	Diciembre	2023-12-21T00:00:00	2024-11-08T06:00:00	1	Precipitación	0
26088	7	Sololá	712	San Antonio Palopó	9	San Antonio Palopo	12	Diciembre	2023-12-21T00:00:00	2024-11-08T06:00:00	8	Radiación solar	0
26089	7	Sololá	712	San Antonio Palopó	9	San Antonio Palopo	12	Diciembre	2023-12-21T00:00:00	2024-11-08T07:00:00	2	Temperatura media	13.8
26090	7	Sololá	712	San Antonio Palopó	9	San Antonio Palopo	12	Diciembre	2023-12-21T00:00:00	2024-11-08T07:00:00	4	Temperatura máxima	14.1
26091	7	Sololá	712	San Antonio Palopó	9	San Antonio Palopo	12	Diciembre	2023-12-21T00:00:00	2024-11-08T07:00:00	3	Temperatura mínima	13.8
26092	7	Sololá	712	San Antonio Palopó	9	San Antonio Palopo	12	Diciembre	2023-12-21T00:00:00	2024-11-08T07:00:00	5	Humedad	55
26093	7	Sololá	712	San Antonio Palopó	9	San Antonio Palopo	12	Diciembre	2023-12-21T00:00:00	2024-11-08T07:00:00	6	Velocidad del viento	17.7
26094	7	Sololá	712	San Antonio Palopó	9	San Antonio Palopo	12	Diciembre	2023-12-21T00:00:00	2024-11-08T07:00:00	7	Dirección del viento	17.7
26095	7	Sololá	712	San Antonio Palopó	9	San Antonio Palopo	12	Diciembre	2023-12-21T00:00:00	2024-11-08T07:00:00	1	Precipitación	0
26096	7	Sololá	712	San Antonio Palopó	9	San Antonio Palopo	12	Diciembre	2023-12-21T00:00:00	2024-11-08T07:00:00	8	Radiación solar	5
26097	7	Sololá	712	San Antonio Palopó	9	San Antonio Palopo	12	Diciembre	2023-12-21T00:00:00	2024-11-08T08:00:00	2	Temperatura media	14.1
26098	7	Sololá	712	San Antonio Palopó	9	San Antonio Palopo	12	Diciembre	2023-12-21T00:00:00	2024-11-08T08:00:00	4	Temperatura máxima	14.1
26099	7	Sololá	712	San Antonio Palopó	9	San Antonio Palopo	12	Diciembre	2023-12-21T00:00:00	2024-11-08T08:00:00	3	Temperatura mínima	13.8
26100	7	Sololá	712	San Antonio Palopó	9	San Antonio Palopo	12	Diciembre	2023-12-21T00:00:00	2024-11-08T08:00:00	5	Humedad	60
26101	7	Sololá	712	San Antonio Palopó	9	San Antonio Palopo	12	Diciembre	2023-12-21T00:00:00	2024-11-08T08:00:00	6	Velocidad del viento	24.1
26102	7	Sololá	712	San Antonio Palopó	9	San Antonio Palopo	12	Diciembre	2023-12-21T00:00:00	2024-11-08T08:00:00	7	Dirección del viento	24.14
26103	7	Sololá	712	San Antonio Palopó	9	San Antonio Palopo	12	Diciembre	2023-12-21T00:00:00	2024-11-08T08:00:00	1	Precipitación	0
26104	7	Sololá	712	San Antonio Palopó	9	San Antonio Palopo	12	Diciembre	2023-12-21T00:00:00	2024-11-08T08:00:00	8	Radiación solar	16
26105	7	Sololá	712	San Antonio Palopó	9	San Antonio Palopo	12	Diciembre	2023-12-21T00:00:00	2024-11-08T09:00:00	2	Temperatura media	16.7
26106	7	Sololá	712	San Antonio Palopó	9	San Antonio Palopo	12	Diciembre	2023-12-21T00:00:00	2024-11-08T09:00:00	4	Temperatura máxima	16.7
26107	7	Sololá	712	San Antonio Palopó	9	San Antonio Palopo	12	Diciembre	2023-12-21T00:00:00	2024-11-08T09:00:00	3	Temperatura mínima	14.1
26108	7	Sololá	712	San Antonio Palopó	9	San Antonio Palopo	12	Diciembre	2023-12-21T00:00:00	2024-11-08T09:00:00	5	Humedad	53
26109	7	Sololá	712	San Antonio Palopó	9	San Antonio Palopo	12	Diciembre	2023-12-21T00:00:00	2024-11-08T09:00:00	6	Velocidad del viento	16.1
26110	7	Sololá	712	San Antonio Palopó	9	San Antonio Palopo	12	Diciembre	2023-12-21T00:00:00	2024-11-08T09:00:00	7	Dirección del viento	16.09
26111	7	Sololá	712	San Antonio Palopó	9	San Antonio Palopo	12	Diciembre	2023-12-21T00:00:00	2024-11-08T09:00:00	1	Precipitación	0
26112	7	Sololá	712	San Antonio Palopó	9	San Antonio Palopo	12	Diciembre	2023-12-21T00:00:00	2024-11-08T09:00:00	8	Radiación solar	105
26113	7	Sololá	712	San Antonio Palopó	9	San Antonio Palopo	12	Diciembre	2023-12-21T00:00:00	2024-11-08T10:00:00	2	Temperatura media	19.9
26114	7	Sololá	712	San Antonio Palopó	9	San Antonio Palopo	12	Diciembre	2023-12-21T00:00:00	2024-11-08T10:00:00	4	Temperatura máxima	20
26115	7	Sololá	712	San Antonio Palopó	9	San Antonio Palopo	12	Diciembre	2023-12-21T00:00:00	2024-11-08T10:00:00	3	Temperatura mínima	16.7
26116	7	Sololá	712	San Antonio Palopó	9	San Antonio Palopo	12	Diciembre	2023-12-21T00:00:00	2024-11-08T10:00:00	5	Humedad	47
26117	7	Sololá	712	San Antonio Palopó	9	San Antonio Palopo	12	Diciembre	2023-12-21T00:00:00	2024-11-08T10:00:00	6	Velocidad del viento	12.9
26118	7	Sololá	712	San Antonio Palopó	9	San Antonio Palopo	12	Diciembre	2023-12-21T00:00:00	2024-11-08T10:00:00	7	Dirección del viento	12.87
26119	7	Sololá	712	San Antonio Palopó	9	San Antonio Palopo	12	Diciembre	2023-12-21T00:00:00	2024-11-08T10:00:00	1	Precipitación	0
26120	7	Sololá	712	San Antonio Palopó	9	San Antonio Palopo	12	Diciembre	2023-12-21T00:00:00	2024-11-08T10:00:00	8	Radiación solar	566
26121	7	Sololá	712	San Antonio Palopó	9	San Antonio Palopo	12	Diciembre	2023-12-21T00:00:00	2024-11-08T11:00:00	2	Temperatura media	21.7
26122	7	Sololá	712	San Antonio Palopó	9	San Antonio Palopo	12	Diciembre	2023-12-21T00:00:00	2024-11-08T11:00:00	4	Temperatura máxima	21.7
26123	7	Sololá	712	San Antonio Palopó	9	San Antonio Palopo	12	Diciembre	2023-12-21T00:00:00	2024-11-08T11:00:00	3	Temperatura mínima	19.9
26124	7	Sololá	712	San Antonio Palopó	9	San Antonio Palopo	12	Diciembre	2023-12-21T00:00:00	2024-11-08T11:00:00	5	Humedad	44
26125	7	Sololá	712	San Antonio Palopó	9	San Antonio Palopo	12	Diciembre	2023-12-21T00:00:00	2024-11-08T11:00:00	6	Velocidad del viento	6.4
26126	7	Sololá	712	San Antonio Palopó	9	San Antonio Palopo	12	Diciembre	2023-12-21T00:00:00	2024-11-08T11:00:00	7	Dirección del viento	6.44
26127	7	Sololá	712	San Antonio Palopó	9	San Antonio Palopo	12	Diciembre	2023-12-21T00:00:00	2024-11-08T11:00:00	1	Precipitación	0
26128	7	Sololá	712	San Antonio Palopó	9	San Antonio Palopo	12	Diciembre	2023-12-21T00:00:00	2024-11-08T11:00:00	8	Radiación solar	688
26129	7	Sololá	712	San Antonio Palopó	9	San Antonio Palopo	12	Diciembre	2023-12-21T00:00:00	2024-11-08T12:00:00	2	Temperatura media	23.1
26130	7	Sololá	712	San Antonio Palopó	9	San Antonio Palopo	12	Diciembre	2023-12-21T00:00:00	2024-11-08T12:00:00	4	Temperatura máxima	23.1
26131	7	Sololá	712	San Antonio Palopó	9	San Antonio Palopo	12	Diciembre	2023-12-21T00:00:00	2024-11-08T12:00:00	3	Temperatura mínima	21.6
26132	7	Sololá	712	San Antonio Palopó	9	San Antonio Palopo	12	Diciembre	2023-12-21T00:00:00	2024-11-08T12:00:00	5	Humedad	39
26133	7	Sololá	712	San Antonio Palopó	9	San Antonio Palopo	12	Diciembre	2023-12-21T00:00:00	2024-11-08T12:00:00	6	Velocidad del viento	6.4
26134	7	Sololá	712	San Antonio Palopó	9	San Antonio Palopo	12	Diciembre	2023-12-21T00:00:00	2024-11-08T12:00:00	7	Dirección del viento	6.44
26135	7	Sololá	712	San Antonio Palopó	9	San Antonio Palopo	12	Diciembre	2023-12-21T00:00:00	2024-11-08T12:00:00	1	Precipitación	0
26136	7	Sololá	712	San Antonio Palopó	9	San Antonio Palopo	12	Diciembre	2023-12-21T00:00:00	2024-11-08T12:00:00	8	Radiación solar	662
26137	7	Sololá	712	San Antonio Palopó	9	San Antonio Palopo	12	Diciembre	2023-12-21T00:00:00	2024-11-08T13:00:00	2	Temperatura media	24.3
26138	7	Sololá	712	San Antonio Palopó	9	San Antonio Palopo	12	Diciembre	2023-12-21T00:00:00	2024-11-08T13:00:00	4	Temperatura máxima	24.3
26139	7	Sololá	712	San Antonio Palopó	9	San Antonio Palopo	12	Diciembre	2023-12-21T00:00:00	2024-11-08T13:00:00	3	Temperatura mínima	23.1
26140	7	Sololá	712	San Antonio Palopó	9	San Antonio Palopo	12	Diciembre	2023-12-21T00:00:00	2024-11-08T13:00:00	5	Humedad	39
26141	7	Sololá	712	San Antonio Palopó	9	San Antonio Palopo	12	Diciembre	2023-12-21T00:00:00	2024-11-08T13:00:00	6	Velocidad del viento	8
26142	7	Sololá	712	San Antonio Palopó	9	San Antonio Palopo	12	Diciembre	2023-12-21T00:00:00	2024-11-08T13:00:00	7	Dirección del viento	8.05
26143	7	Sololá	712	San Antonio Palopó	9	San Antonio Palopo	12	Diciembre	2023-12-21T00:00:00	2024-11-08T13:00:00	1	Precipitación	0
26144	7	Sololá	712	San Antonio Palopó	9	San Antonio Palopo	12	Diciembre	2023-12-21T00:00:00	2024-11-08T13:00:00	8	Radiación solar	751
26145	7	Sololá	712	San Antonio Palopó	9	San Antonio Palopo	12	Diciembre	2023-12-21T00:00:00	2024-11-08T14:00:00	2	Temperatura media	24.1
26146	7	Sololá	712	San Antonio Palopó	9	San Antonio Palopo	12	Diciembre	2023-12-21T00:00:00	2024-11-08T14:00:00	4	Temperatura máxima	24.9
26147	7	Sololá	712	San Antonio Palopó	9	San Antonio Palopo	12	Diciembre	2023-12-21T00:00:00	2024-11-08T14:00:00	3	Temperatura mínima	23.9
26148	7	Sololá	712	San Antonio Palopó	9	San Antonio Palopo	12	Diciembre	2023-12-21T00:00:00	2024-11-08T14:00:00	5	Humedad	44
26149	7	Sololá	712	San Antonio Palopó	9	San Antonio Palopo	12	Diciembre	2023-12-21T00:00:00	2024-11-08T14:00:00	6	Velocidad del viento	8
26150	7	Sololá	712	San Antonio Palopó	9	San Antonio Palopo	12	Diciembre	2023-12-21T00:00:00	2024-11-08T14:00:00	7	Dirección del viento	8.05
26151	7	Sololá	712	San Antonio Palopó	9	San Antonio Palopo	12	Diciembre	2023-12-21T00:00:00	2024-11-08T14:00:00	1	Precipitación	0
26152	7	Sololá	712	San Antonio Palopó	9	San Antonio Palopo	12	Diciembre	2023-12-21T00:00:00	2024-11-08T14:00:00	8	Radiación solar	682
26153	7	Sololá	712	San Antonio Palopó	9	San Antonio Palopo	12	Diciembre	2023-12-21T00:00:00	2024-11-08T15:00:00	2	Temperatura media	23.1
26154	7	Sololá	712	San Antonio Palopó	9	San Antonio Palopo	12	Diciembre	2023-12-21T00:00:00	2024-11-08T15:00:00	4	Temperatura máxima	24
26155	7	Sololá	712	San Antonio Palopó	9	San Antonio Palopo	12	Diciembre	2023-12-21T00:00:00	2024-11-08T15:00:00	3	Temperatura mínima	23.1
26156	7	Sololá	712	San Antonio Palopó	9	San Antonio Palopo	12	Diciembre	2023-12-21T00:00:00	2024-11-08T15:00:00	5	Humedad	44
26157	7	Sololá	712	San Antonio Palopó	9	San Antonio Palopo	12	Diciembre	2023-12-21T00:00:00	2024-11-08T15:00:00	6	Velocidad del viento	9.7
26158	7	Sololá	712	San Antonio Palopó	9	San Antonio Palopo	12	Diciembre	2023-12-21T00:00:00	2024-11-08T15:00:00	7	Dirección del viento	9.66
26159	7	Sololá	712	San Antonio Palopó	9	San Antonio Palopo	12	Diciembre	2023-12-21T00:00:00	2024-11-08T15:00:00	1	Precipitación	0
26160	7	Sololá	712	San Antonio Palopó	9	San Antonio Palopo	12	Diciembre	2023-12-21T00:00:00	2024-11-08T15:00:00	8	Radiación solar	552
26161	7	Sololá	712	San Antonio Palopó	9	San Antonio Palopo	12	Diciembre	2023-12-21T00:00:00	2024-11-08T16:00:00	2	Temperatura media	22.3
26162	7	Sololá	712	San Antonio Palopó	9	San Antonio Palopo	12	Diciembre	2023-12-21T00:00:00	2024-11-08T16:00:00	4	Temperatura máxima	23.2
26163	7	Sololá	712	San Antonio Palopó	9	San Antonio Palopo	12	Diciembre	2023-12-21T00:00:00	2024-11-08T16:00:00	3	Temperatura mínima	22.2
26164	7	Sololá	712	San Antonio Palopó	9	San Antonio Palopo	12	Diciembre	2023-12-21T00:00:00	2024-11-08T16:00:00	5	Humedad	47
26165	7	Sololá	712	San Antonio Palopó	9	San Antonio Palopo	12	Diciembre	2023-12-21T00:00:00	2024-11-08T16:00:00	6	Velocidad del viento	9.7
26166	7	Sololá	712	San Antonio Palopó	9	San Antonio Palopo	12	Diciembre	2023-12-21T00:00:00	2024-11-08T16:00:00	7	Dirección del viento	9.66
26167	7	Sololá	712	San Antonio Palopó	9	San Antonio Palopo	12	Diciembre	2023-12-21T00:00:00	2024-11-08T16:00:00	1	Precipitación	0
26168	7	Sololá	712	San Antonio Palopó	9	San Antonio Palopo	12	Diciembre	2023-12-21T00:00:00	2024-11-08T16:00:00	8	Radiación solar	375
26169	7	Sololá	712	San Antonio Palopó	9	San Antonio Palopo	12	Diciembre	2023-12-21T00:00:00	2024-11-08T17:00:00	2	Temperatura media	20.2
26170	7	Sololá	712	San Antonio Palopó	9	San Antonio Palopo	12	Diciembre	2023-12-21T00:00:00	2024-11-08T17:00:00	4	Temperatura máxima	22.4
26171	7	Sololá	712	San Antonio Palopó	9	San Antonio Palopo	12	Diciembre	2023-12-21T00:00:00	2024-11-08T17:00:00	3	Temperatura mínima	20.2
26172	7	Sololá	712	San Antonio Palopó	9	San Antonio Palopo	12	Diciembre	2023-12-21T00:00:00	2024-11-08T17:00:00	5	Humedad	51
26173	7	Sololá	712	San Antonio Palopó	9	San Antonio Palopo	12	Diciembre	2023-12-21T00:00:00	2024-11-08T17:00:00	6	Velocidad del viento	9.7
26174	7	Sololá	712	San Antonio Palopó	9	San Antonio Palopo	12	Diciembre	2023-12-21T00:00:00	2024-11-08T17:00:00	7	Dirección del viento	9.66
26175	7	Sololá	712	San Antonio Palopó	9	San Antonio Palopo	12	Diciembre	2023-12-21T00:00:00	2024-11-08T17:00:00	1	Precipitación	0
26176	7	Sololá	712	San Antonio Palopó	9	San Antonio Palopo	12	Diciembre	2023-12-21T00:00:00	2024-11-08T17:00:00	8	Radiación solar	155
26177	7	Sololá	712	San Antonio Palopó	9	San Antonio Palopo	12	Diciembre	2023-12-21T00:00:00	2024-11-08T18:00:00	2	Temperatura media	17.9
26178	7	Sololá	712	San Antonio Palopó	9	San Antonio Palopo	12	Diciembre	2023-12-21T00:00:00	2024-11-08T18:00:00	4	Temperatura máxima	20.2
26179	7	Sololá	712	San Antonio Palopó	9	San Antonio Palopo	12	Diciembre	2023-12-21T00:00:00	2024-11-08T18:00:00	3	Temperatura mínima	17.7
26180	7	Sololá	712	San Antonio Palopó	9	San Antonio Palopo	12	Diciembre	2023-12-21T00:00:00	2024-11-08T18:00:00	5	Humedad	55
26181	7	Sololá	712	San Antonio Palopó	9	San Antonio Palopo	12	Diciembre	2023-12-21T00:00:00	2024-11-08T18:00:00	6	Velocidad del viento	17.7
26182	7	Sololá	712	San Antonio Palopó	9	San Antonio Palopo	12	Diciembre	2023-12-21T00:00:00	2024-11-08T18:00:00	7	Dirección del viento	17.7
26183	7	Sololá	712	San Antonio Palopó	9	San Antonio Palopo	12	Diciembre	2023-12-21T00:00:00	2024-11-08T18:00:00	1	Precipitación	0
26184	7	Sololá	712	San Antonio Palopó	9	San Antonio Palopo	12	Diciembre	2023-12-21T00:00:00	2024-11-08T18:00:00	8	Radiación solar	17
26185	7	Sololá	712	San Antonio Palopó	9	San Antonio Palopo	12	Diciembre	2023-12-21T00:00:00	2024-11-08T19:00:00	2	Temperatura media	17.4
26186	7	Sololá	712	San Antonio Palopó	9	San Antonio Palopo	12	Diciembre	2023-12-21T00:00:00	2024-11-08T19:00:00	4	Temperatura máxima	17.9
26187	7	Sololá	712	San Antonio Palopó	9	San Antonio Palopo	12	Diciembre	2023-12-21T00:00:00	2024-11-08T19:00:00	3	Temperatura mínima	17.4
26188	7	Sololá	712	San Antonio Palopó	9	San Antonio Palopo	12	Diciembre	2023-12-21T00:00:00	2024-11-08T19:00:00	5	Humedad	55
26189	7	Sololá	712	San Antonio Palopó	9	San Antonio Palopo	12	Diciembre	2023-12-21T00:00:00	2024-11-08T19:00:00	6	Velocidad del viento	22.5
26190	7	Sololá	712	San Antonio Palopó	9	San Antonio Palopo	12	Diciembre	2023-12-21T00:00:00	2024-11-08T19:00:00	7	Dirección del viento	22.53
26191	7	Sololá	712	San Antonio Palopó	9	San Antonio Palopo	12	Diciembre	2023-12-21T00:00:00	2024-11-08T19:00:00	1	Precipitación	0
26192	7	Sololá	712	San Antonio Palopó	9	San Antonio Palopo	12	Diciembre	2023-12-21T00:00:00	2024-11-08T19:00:00	8	Radiación solar	0
26193	7	Sololá	712	San Antonio Palopó	9	San Antonio Palopo	12	Diciembre	2023-12-21T00:00:00	2024-11-08T20:00:00	2	Temperatura media	17.2
26194	7	Sololá	712	San Antonio Palopó	9	San Antonio Palopo	12	Diciembre	2023-12-21T00:00:00	2024-11-08T20:00:00	4	Temperatura máxima	17.4
26195	7	Sololá	712	San Antonio Palopó	9	San Antonio Palopo	12	Diciembre	2023-12-21T00:00:00	2024-11-08T20:00:00	3	Temperatura mínima	17.1
26196	7	Sololá	712	San Antonio Palopó	9	San Antonio Palopo	12	Diciembre	2023-12-21T00:00:00	2024-11-08T20:00:00	5	Humedad	58
26197	7	Sololá	712	San Antonio Palopó	9	San Antonio Palopo	12	Diciembre	2023-12-21T00:00:00	2024-11-08T20:00:00	6	Velocidad del viento	22.5
26198	7	Sololá	712	San Antonio Palopó	9	San Antonio Palopo	12	Diciembre	2023-12-21T00:00:00	2024-11-08T20:00:00	7	Dirección del viento	22.53
26199	7	Sololá	712	San Antonio Palopó	9	San Antonio Palopo	12	Diciembre	2023-12-21T00:00:00	2024-11-08T20:00:00	1	Precipitación	0
26200	7	Sololá	712	San Antonio Palopó	9	San Antonio Palopo	12	Diciembre	2023-12-21T00:00:00	2024-11-08T20:00:00	8	Radiación solar	0
26201	7	Sololá	712	San Antonio Palopó	9	San Antonio Palopo	12	Diciembre	2023-12-21T00:00:00	2024-11-08T21:00:00	2	Temperatura media	16.5
26202	7	Sololá	712	San Antonio Palopó	9	San Antonio Palopo	12	Diciembre	2023-12-21T00:00:00	2024-11-08T21:00:00	4	Temperatura máxima	17.3
26203	7	Sololá	712	San Antonio Palopó	9	San Antonio Palopo	12	Diciembre	2023-12-21T00:00:00	2024-11-08T21:00:00	3	Temperatura mínima	16.5
26204	7	Sololá	712	San Antonio Palopó	9	San Antonio Palopo	12	Diciembre	2023-12-21T00:00:00	2024-11-08T21:00:00	5	Humedad	60
26205	7	Sololá	712	San Antonio Palopó	9	San Antonio Palopo	12	Diciembre	2023-12-21T00:00:00	2024-11-08T21:00:00	6	Velocidad del viento	20.9
26206	7	Sololá	712	San Antonio Palopó	9	San Antonio Palopo	12	Diciembre	2023-12-21T00:00:00	2024-11-08T21:00:00	7	Dirección del viento	20.92
26207	7	Sololá	712	San Antonio Palopó	9	San Antonio Palopo	12	Diciembre	2023-12-21T00:00:00	2024-11-08T21:00:00	1	Precipitación	0
26208	7	Sololá	712	San Antonio Palopó	9	San Antonio Palopo	12	Diciembre	2023-12-21T00:00:00	2024-11-08T21:00:00	8	Radiación solar	0
26209	7	Sololá	712	San Antonio Palopó	9	San Antonio Palopo	12	Diciembre	2023-12-21T00:00:00	2024-11-08T22:00:00	2	Temperatura media	16.1
26210	7	Sololá	712	San Antonio Palopó	9	San Antonio Palopo	12	Diciembre	2023-12-21T00:00:00	2024-11-08T22:00:00	4	Temperatura máxima	16.7
26211	7	Sololá	712	San Antonio Palopó	9	San Antonio Palopo	12	Diciembre	2023-12-21T00:00:00	2024-11-08T22:00:00	3	Temperatura mínima	16.1
26212	7	Sololá	712	San Antonio Palopó	9	San Antonio Palopo	12	Diciembre	2023-12-21T00:00:00	2024-11-08T22:00:00	5	Humedad	62
26213	7	Sololá	712	San Antonio Palopó	9	San Antonio Palopo	12	Diciembre	2023-12-21T00:00:00	2024-11-08T22:00:00	6	Velocidad del viento	20.9
26214	7	Sololá	712	San Antonio Palopó	9	San Antonio Palopo	12	Diciembre	2023-12-21T00:00:00	2024-11-08T22:00:00	7	Dirección del viento	20.92
26215	7	Sololá	712	San Antonio Palopó	9	San Antonio Palopo	12	Diciembre	2023-12-21T00:00:00	2024-11-08T22:00:00	1	Precipitación	0
26216	7	Sololá	712	San Antonio Palopó	9	San Antonio Palopo	12	Diciembre	2023-12-21T00:00:00	2024-11-08T22:00:00	8	Radiación solar	0
26217	7	Sololá	712	San Antonio Palopó	9	San Antonio Palopo	12	Diciembre	2023-12-21T00:00:00	2024-11-08T23:00:00	2	Temperatura media	16
26218	7	Sololá	712	San Antonio Palopó	9	San Antonio Palopo	12	Diciembre	2023-12-21T00:00:00	2024-11-08T23:00:00	4	Temperatura máxima	16.2
26219	7	Sololá	712	San Antonio Palopó	9	San Antonio Palopo	12	Diciembre	2023-12-21T00:00:00	2024-11-08T23:00:00	3	Temperatura mínima	15.9
26220	7	Sololá	712	San Antonio Palopó	9	San Antonio Palopo	12	Diciembre	2023-12-21T00:00:00	2024-11-08T23:00:00	5	Humedad	66
26221	7	Sololá	712	San Antonio Palopó	9	San Antonio Palopo	12	Diciembre	2023-12-21T00:00:00	2024-11-08T23:00:00	6	Velocidad del viento	17.7
26222	7	Sololá	712	San Antonio Palopó	9	San Antonio Palopo	12	Diciembre	2023-12-21T00:00:00	2024-11-08T23:00:00	7	Dirección del viento	17.7
26223	7	Sololá	712	San Antonio Palopó	9	San Antonio Palopo	12	Diciembre	2023-12-21T00:00:00	2024-11-08T23:00:00	1	Precipitación	0
26224	7	Sololá	712	San Antonio Palopó	9	San Antonio Palopo	12	Diciembre	2023-12-21T00:00:00	2024-11-08T23:00:00	8	Radiación solar	0
26225	7	Sololá	712	San Antonio Palopó	9	San Antonio Palopo	12	Diciembre	2023-12-22T00:00:00	2024-11-08T00:00:00	2	Temperatura media	15.6
26226	7	Sololá	712	San Antonio Palopó	9	San Antonio Palopo	12	Diciembre	2023-12-22T00:00:00	2024-11-08T00:00:00	4	Temperatura máxima	15.9
26227	7	Sololá	712	San Antonio Palopó	9	San Antonio Palopo	12	Diciembre	2023-12-22T00:00:00	2024-11-08T00:00:00	3	Temperatura mínima	15.5
26228	7	Sololá	712	San Antonio Palopó	9	San Antonio Palopo	12	Diciembre	2023-12-22T00:00:00	2024-11-08T00:00:00	5	Humedad	66
26229	7	Sololá	712	San Antonio Palopó	9	San Antonio Palopo	12	Diciembre	2023-12-22T00:00:00	2024-11-08T00:00:00	6	Velocidad del viento	20.9
26230	7	Sololá	712	San Antonio Palopó	9	San Antonio Palopo	12	Diciembre	2023-12-22T00:00:00	2024-11-08T00:00:00	7	Dirección del viento	20.92
26231	7	Sololá	712	San Antonio Palopó	9	San Antonio Palopo	12	Diciembre	2023-12-22T00:00:00	2024-11-08T00:00:00	1	Precipitación	0
26232	7	Sololá	712	San Antonio Palopó	9	San Antonio Palopo	12	Diciembre	2023-12-22T00:00:00	2024-11-08T00:00:00	8	Radiación solar	0
26233	7	Sololá	712	San Antonio Palopó	9	San Antonio Palopo	12	Diciembre	2023-12-22T00:00:00	2024-11-08T01:00:00	2	Temperatura media	15.4
26234	7	Sololá	712	San Antonio Palopó	9	San Antonio Palopo	12	Diciembre	2023-12-22T00:00:00	2024-11-08T01:00:00	4	Temperatura máxima	15.8
26235	7	Sololá	712	San Antonio Palopó	9	San Antonio Palopo	12	Diciembre	2023-12-22T00:00:00	2024-11-08T01:00:00	3	Temperatura mínima	15.2
26236	7	Sololá	712	San Antonio Palopó	9	San Antonio Palopo	12	Diciembre	2023-12-22T00:00:00	2024-11-08T01:00:00	5	Humedad	66
26237	7	Sololá	712	San Antonio Palopó	9	San Antonio Palopo	12	Diciembre	2023-12-22T00:00:00	2024-11-08T01:00:00	6	Velocidad del viento	17.7
26238	7	Sololá	712	San Antonio Palopó	9	San Antonio Palopo	12	Diciembre	2023-12-22T00:00:00	2024-11-08T01:00:00	7	Dirección del viento	17.7
26239	7	Sololá	712	San Antonio Palopó	9	San Antonio Palopo	12	Diciembre	2023-12-22T00:00:00	2024-11-08T01:00:00	1	Precipitación	0
26240	7	Sololá	712	San Antonio Palopó	9	San Antonio Palopo	12	Diciembre	2023-12-22T00:00:00	2024-11-08T01:00:00	8	Radiación solar	0
26241	7	Sololá	712	San Antonio Palopó	9	San Antonio Palopo	12	Diciembre	2023-12-22T00:00:00	2024-11-08T02:00:00	2	Temperatura media	15.8
26242	7	Sololá	712	San Antonio Palopó	9	San Antonio Palopo	12	Diciembre	2023-12-22T00:00:00	2024-11-08T02:00:00	4	Temperatura máxima	16.3
26243	7	Sololá	712	San Antonio Palopó	9	San Antonio Palopo	12	Diciembre	2023-12-22T00:00:00	2024-11-08T02:00:00	3	Temperatura mínima	15.4
26244	7	Sololá	712	San Antonio Palopó	9	San Antonio Palopo	12	Diciembre	2023-12-22T00:00:00	2024-11-08T02:00:00	5	Humedad	66
26245	7	Sololá	712	San Antonio Palopó	9	San Antonio Palopo	12	Diciembre	2023-12-22T00:00:00	2024-11-08T02:00:00	6	Velocidad del viento	22.5
26246	7	Sololá	712	San Antonio Palopó	9	San Antonio Palopo	12	Diciembre	2023-12-22T00:00:00	2024-11-08T02:00:00	7	Dirección del viento	22.53
26247	7	Sololá	712	San Antonio Palopó	9	San Antonio Palopo	12	Diciembre	2023-12-22T00:00:00	2024-11-08T02:00:00	1	Precipitación	0
26248	7	Sololá	712	San Antonio Palopó	9	San Antonio Palopo	12	Diciembre	2023-12-22T00:00:00	2024-11-08T02:00:00	8	Radiación solar	0
26249	7	Sololá	712	San Antonio Palopó	9	San Antonio Palopo	12	Diciembre	2023-12-22T00:00:00	2024-11-08T03:00:00	2	Temperatura media	15.9
26250	7	Sololá	712	San Antonio Palopó	9	San Antonio Palopo	12	Diciembre	2023-12-22T00:00:00	2024-11-08T03:00:00	4	Temperatura máxima	15.9
26251	7	Sololá	712	San Antonio Palopó	9	San Antonio Palopo	12	Diciembre	2023-12-22T00:00:00	2024-11-08T03:00:00	3	Temperatura mínima	15.6
26252	7	Sololá	712	San Antonio Palopó	9	San Antonio Palopo	12	Diciembre	2023-12-22T00:00:00	2024-11-08T03:00:00	5	Humedad	65
26253	7	Sololá	712	San Antonio Palopó	9	San Antonio Palopo	12	Diciembre	2023-12-22T00:00:00	2024-11-08T03:00:00	6	Velocidad del viento	17.7
26254	7	Sololá	712	San Antonio Palopó	9	San Antonio Palopo	12	Diciembre	2023-12-22T00:00:00	2024-11-08T03:00:00	7	Dirección del viento	17.7
26255	7	Sololá	712	San Antonio Palopó	9	San Antonio Palopo	12	Diciembre	2023-12-22T00:00:00	2024-11-08T03:00:00	1	Precipitación	0
26256	7	Sololá	712	San Antonio Palopó	9	San Antonio Palopo	12	Diciembre	2023-12-22T00:00:00	2024-11-08T03:00:00	8	Radiación solar	0
26257	7	Sololá	712	San Antonio Palopó	9	San Antonio Palopo	12	Diciembre	2023-12-22T00:00:00	2024-11-08T04:00:00	2	Temperatura media	15.6
26258	7	Sololá	712	San Antonio Palopó	9	San Antonio Palopo	12	Diciembre	2023-12-22T00:00:00	2024-11-08T04:00:00	4	Temperatura máxima	15.9
26259	7	Sololá	712	San Antonio Palopó	9	San Antonio Palopo	12	Diciembre	2023-12-22T00:00:00	2024-11-08T04:00:00	3	Temperatura mínima	15.4
26260	7	Sololá	712	San Antonio Palopó	9	San Antonio Palopo	12	Diciembre	2023-12-22T00:00:00	2024-11-08T04:00:00	5	Humedad	64
26261	7	Sololá	712	San Antonio Palopó	9	San Antonio Palopo	12	Diciembre	2023-12-22T00:00:00	2024-11-08T04:00:00	6	Velocidad del viento	12.9
26262	7	Sololá	712	San Antonio Palopó	9	San Antonio Palopo	12	Diciembre	2023-12-22T00:00:00	2024-11-08T04:00:00	7	Dirección del viento	12.87
26263	7	Sololá	712	San Antonio Palopó	9	San Antonio Palopo	12	Diciembre	2023-12-22T00:00:00	2024-11-08T04:00:00	1	Precipitación	0
26264	7	Sololá	712	San Antonio Palopó	9	San Antonio Palopo	12	Diciembre	2023-12-22T00:00:00	2024-11-08T04:00:00	8	Radiación solar	0
26265	7	Sololá	712	San Antonio Palopó	9	San Antonio Palopo	12	Diciembre	2023-12-22T00:00:00	2024-11-08T05:00:00	2	Temperatura media	15.6
26266	7	Sololá	712	San Antonio Palopó	9	San Antonio Palopo	12	Diciembre	2023-12-22T00:00:00	2024-11-08T05:00:00	4	Temperatura máxima	15.9
26267	7	Sololá	712	San Antonio Palopó	9	San Antonio Palopo	12	Diciembre	2023-12-22T00:00:00	2024-11-08T05:00:00	3	Temperatura mínima	15.1
26268	7	Sololá	712	San Antonio Palopó	9	San Antonio Palopo	12	Diciembre	2023-12-22T00:00:00	2024-11-08T05:00:00	5	Humedad	63
26269	7	Sololá	712	San Antonio Palopó	9	San Antonio Palopo	12	Diciembre	2023-12-22T00:00:00	2024-11-08T05:00:00	6	Velocidad del viento	16.1
26270	7	Sololá	712	San Antonio Palopó	9	San Antonio Palopo	12	Diciembre	2023-12-22T00:00:00	2024-11-08T05:00:00	7	Dirección del viento	16.09
26271	7	Sololá	712	San Antonio Palopó	9	San Antonio Palopo	12	Diciembre	2023-12-22T00:00:00	2024-11-08T05:00:00	1	Precipitación	0
26272	7	Sololá	712	San Antonio Palopó	9	San Antonio Palopo	12	Diciembre	2023-12-22T00:00:00	2024-11-08T05:00:00	8	Radiación solar	0
26273	7	Sololá	712	San Antonio Palopó	9	San Antonio Palopo	12	Diciembre	2023-12-22T00:00:00	2024-11-08T06:00:00	2	Temperatura media	15.8
26274	7	Sololá	712	San Antonio Palopó	9	San Antonio Palopo	12	Diciembre	2023-12-22T00:00:00	2024-11-08T06:00:00	4	Temperatura máxima	16
26275	7	Sololá	712	San Antonio Palopó	9	San Antonio Palopo	12	Diciembre	2023-12-22T00:00:00	2024-11-08T06:00:00	3	Temperatura mínima	15.3
26276	7	Sololá	712	San Antonio Palopó	9	San Antonio Palopo	12	Diciembre	2023-12-22T00:00:00	2024-11-08T06:00:00	5	Humedad	61
26277	7	Sololá	712	San Antonio Palopó	9	San Antonio Palopo	12	Diciembre	2023-12-22T00:00:00	2024-11-08T06:00:00	6	Velocidad del viento	11.3
26278	7	Sololá	712	San Antonio Palopó	9	San Antonio Palopo	12	Diciembre	2023-12-22T00:00:00	2024-11-08T06:00:00	7	Dirección del viento	11.27
26279	7	Sololá	712	San Antonio Palopó	9	San Antonio Palopo	12	Diciembre	2023-12-22T00:00:00	2024-11-08T06:00:00	1	Precipitación	0
26280	7	Sololá	712	San Antonio Palopó	9	San Antonio Palopo	12	Diciembre	2023-12-22T00:00:00	2024-11-08T06:00:00	8	Radiación solar	0
26281	7	Sololá	712	San Antonio Palopó	9	San Antonio Palopo	12	Diciembre	2023-12-22T00:00:00	2024-11-08T07:00:00	2	Temperatura media	15.9
26282	7	Sololá	712	San Antonio Palopó	9	San Antonio Palopo	12	Diciembre	2023-12-22T00:00:00	2024-11-08T07:00:00	4	Temperatura máxima	16.1
26283	7	Sololá	712	San Antonio Palopó	9	San Antonio Palopo	12	Diciembre	2023-12-22T00:00:00	2024-11-08T07:00:00	3	Temperatura mínima	15.3
26284	7	Sololá	712	San Antonio Palopó	9	San Antonio Palopo	12	Diciembre	2023-12-22T00:00:00	2024-11-08T07:00:00	5	Humedad	63
26285	7	Sololá	712	San Antonio Palopó	9	San Antonio Palopo	12	Diciembre	2023-12-22T00:00:00	2024-11-08T07:00:00	6	Velocidad del viento	11.3
26286	7	Sololá	712	San Antonio Palopó	9	San Antonio Palopo	12	Diciembre	2023-12-22T00:00:00	2024-11-08T07:00:00	7	Dirección del viento	11.27
26287	7	Sololá	712	San Antonio Palopó	9	San Antonio Palopo	12	Diciembre	2023-12-22T00:00:00	2024-11-08T07:00:00	1	Precipitación	0
26288	7	Sololá	712	San Antonio Palopó	9	San Antonio Palopo	12	Diciembre	2023-12-22T00:00:00	2024-11-08T07:00:00	8	Radiación solar	6
26289	7	Sololá	712	San Antonio Palopó	9	San Antonio Palopo	12	Diciembre	2023-12-22T00:00:00	2024-11-08T08:00:00	2	Temperatura media	17.3
26290	7	Sololá	712	San Antonio Palopó	9	San Antonio Palopo	12	Diciembre	2023-12-22T00:00:00	2024-11-08T08:00:00	4	Temperatura máxima	17.4
26291	7	Sololá	712	San Antonio Palopó	9	San Antonio Palopo	12	Diciembre	2023-12-22T00:00:00	2024-11-08T08:00:00	3	Temperatura mínima	15.9
26292	7	Sololá	712	San Antonio Palopó	9	San Antonio Palopo	12	Diciembre	2023-12-22T00:00:00	2024-11-08T08:00:00	5	Humedad	59
26293	7	Sololá	712	San Antonio Palopó	9	San Antonio Palopo	12	Diciembre	2023-12-22T00:00:00	2024-11-08T08:00:00	6	Velocidad del viento	14.5
26294	7	Sololá	712	San Antonio Palopó	9	San Antonio Palopo	12	Diciembre	2023-12-22T00:00:00	2024-11-08T08:00:00	7	Dirección del viento	14.48
26295	7	Sololá	712	San Antonio Palopó	9	San Antonio Palopo	12	Diciembre	2023-12-22T00:00:00	2024-11-08T08:00:00	1	Precipitación	0
26296	7	Sololá	712	San Antonio Palopó	9	San Antonio Palopo	12	Diciembre	2023-12-22T00:00:00	2024-11-08T08:00:00	8	Radiación solar	22
26297	7	Sololá	712	San Antonio Palopó	9	San Antonio Palopo	12	Diciembre	2023-12-22T00:00:00	2024-11-08T09:00:00	2	Temperatura media	19.7
26298	7	Sololá	712	San Antonio Palopó	9	San Antonio Palopo	12	Diciembre	2023-12-22T00:00:00	2024-11-08T09:00:00	4	Temperatura máxima	19.7
26299	7	Sololá	712	San Antonio Palopó	9	San Antonio Palopo	12	Diciembre	2023-12-22T00:00:00	2024-11-08T09:00:00	3	Temperatura mínima	17.4
26300	7	Sololá	712	San Antonio Palopó	9	San Antonio Palopo	12	Diciembre	2023-12-22T00:00:00	2024-11-08T09:00:00	5	Humedad	56
26301	7	Sololá	712	San Antonio Palopó	9	San Antonio Palopo	12	Diciembre	2023-12-22T00:00:00	2024-11-08T09:00:00	6	Velocidad del viento	11.3
26302	7	Sololá	712	San Antonio Palopó	9	San Antonio Palopo	12	Diciembre	2023-12-22T00:00:00	2024-11-08T09:00:00	7	Dirección del viento	11.27
26303	7	Sololá	712	San Antonio Palopó	9	San Antonio Palopo	12	Diciembre	2023-12-22T00:00:00	2024-11-08T09:00:00	1	Precipitación	0
26304	7	Sololá	712	San Antonio Palopó	9	San Antonio Palopo	12	Diciembre	2023-12-22T00:00:00	2024-11-08T09:00:00	8	Radiación solar	110
26305	7	Sololá	712	San Antonio Palopó	9	San Antonio Palopo	12	Diciembre	2023-12-22T00:00:00	2024-11-08T10:00:00	2	Temperatura media	21.4
26306	7	Sololá	712	San Antonio Palopó	9	San Antonio Palopo	12	Diciembre	2023-12-22T00:00:00	2024-11-08T10:00:00	4	Temperatura máxima	21.4
26307	7	Sololá	712	San Antonio Palopó	9	San Antonio Palopo	12	Diciembre	2023-12-22T00:00:00	2024-11-08T10:00:00	3	Temperatura mínima	19.7
26308	7	Sololá	712	San Antonio Palopó	9	San Antonio Palopo	12	Diciembre	2023-12-22T00:00:00	2024-11-08T10:00:00	5	Humedad	52
26309	7	Sololá	712	San Antonio Palopó	9	San Antonio Palopo	12	Diciembre	2023-12-22T00:00:00	2024-11-08T10:00:00	6	Velocidad del viento	17.7
26310	7	Sololá	712	San Antonio Palopó	9	San Antonio Palopo	12	Diciembre	2023-12-22T00:00:00	2024-11-08T10:00:00	7	Dirección del viento	17.7
26311	7	Sololá	712	San Antonio Palopó	9	San Antonio Palopo	12	Diciembre	2023-12-22T00:00:00	2024-11-08T10:00:00	1	Precipitación	0
26312	7	Sololá	712	San Antonio Palopó	9	San Antonio Palopo	12	Diciembre	2023-12-22T00:00:00	2024-11-08T10:00:00	8	Radiación solar	516
26313	7	Sololá	712	San Antonio Palopó	9	San Antonio Palopo	12	Diciembre	2023-12-22T00:00:00	2024-11-08T11:00:00	2	Temperatura media	22.9
26314	7	Sololá	712	San Antonio Palopó	9	San Antonio Palopo	12	Diciembre	2023-12-22T00:00:00	2024-11-08T11:00:00	4	Temperatura máxima	22.9
26315	7	Sololá	712	San Antonio Palopó	9	San Antonio Palopo	12	Diciembre	2023-12-22T00:00:00	2024-11-08T11:00:00	3	Temperatura mínima	21.4
26316	7	Sololá	712	San Antonio Palopó	9	San Antonio Palopo	12	Diciembre	2023-12-22T00:00:00	2024-11-08T11:00:00	5	Humedad	48
26317	7	Sololá	712	San Antonio Palopó	9	San Antonio Palopo	12	Diciembre	2023-12-22T00:00:00	2024-11-08T11:00:00	6	Velocidad del viento	8
26318	7	Sololá	712	San Antonio Palopó	9	San Antonio Palopo	12	Diciembre	2023-12-22T00:00:00	2024-11-08T11:00:00	7	Dirección del viento	8.05
26319	7	Sololá	712	San Antonio Palopó	9	San Antonio Palopo	12	Diciembre	2023-12-22T00:00:00	2024-11-08T11:00:00	1	Precipitación	0
26320	7	Sololá	712	San Antonio Palopó	9	San Antonio Palopo	12	Diciembre	2023-12-22T00:00:00	2024-11-08T11:00:00	8	Radiación solar	641
26321	7	Sololá	712	San Antonio Palopó	9	San Antonio Palopo	12	Diciembre	2023-12-22T00:00:00	2024-11-08T12:00:00	2	Temperatura media	23.9
26322	7	Sololá	712	San Antonio Palopó	9	San Antonio Palopo	12	Diciembre	2023-12-22T00:00:00	2024-11-08T12:00:00	4	Temperatura máxima	23.9
26323	7	Sololá	712	San Antonio Palopó	9	San Antonio Palopo	12	Diciembre	2023-12-22T00:00:00	2024-11-08T12:00:00	3	Temperatura mínima	22.9
26324	7	Sololá	712	San Antonio Palopó	9	San Antonio Palopo	12	Diciembre	2023-12-22T00:00:00	2024-11-08T12:00:00	5	Humedad	47
26325	7	Sololá	712	San Antonio Palopó	9	San Antonio Palopo	12	Diciembre	2023-12-22T00:00:00	2024-11-08T12:00:00	6	Velocidad del viento	11.3
26326	7	Sololá	712	San Antonio Palopó	9	San Antonio Palopo	12	Diciembre	2023-12-22T00:00:00	2024-11-08T12:00:00	7	Dirección del viento	11.27
26327	7	Sololá	712	San Antonio Palopó	9	San Antonio Palopo	12	Diciembre	2023-12-22T00:00:00	2024-11-08T12:00:00	1	Precipitación	0
26328	7	Sololá	712	San Antonio Palopó	9	San Antonio Palopo	12	Diciembre	2023-12-22T00:00:00	2024-11-08T12:00:00	8	Radiación solar	625
26329	7	Sololá	712	San Antonio Palopó	9	San Antonio Palopo	12	Diciembre	2023-12-22T00:00:00	2024-11-08T13:00:00	2	Temperatura media	24.3
26330	7	Sololá	712	San Antonio Palopó	9	San Antonio Palopo	12	Diciembre	2023-12-22T00:00:00	2024-11-08T13:00:00	4	Temperatura máxima	24.8
26331	7	Sololá	712	San Antonio Palopó	9	San Antonio Palopo	12	Diciembre	2023-12-22T00:00:00	2024-11-08T13:00:00	3	Temperatura mínima	23.9
26332	7	Sololá	712	San Antonio Palopó	9	San Antonio Palopo	12	Diciembre	2023-12-22T00:00:00	2024-11-08T13:00:00	5	Humedad	45
26333	7	Sololá	712	San Antonio Palopó	9	San Antonio Palopo	12	Diciembre	2023-12-22T00:00:00	2024-11-08T13:00:00	6	Velocidad del viento	9.7
26334	7	Sololá	712	San Antonio Palopó	9	San Antonio Palopo	12	Diciembre	2023-12-22T00:00:00	2024-11-08T13:00:00	7	Dirección del viento	9.66
26335	7	Sololá	712	San Antonio Palopó	9	San Antonio Palopo	12	Diciembre	2023-12-22T00:00:00	2024-11-08T13:00:00	1	Precipitación	0
26336	7	Sololá	712	San Antonio Palopó	9	San Antonio Palopo	12	Diciembre	2023-12-22T00:00:00	2024-11-08T13:00:00	8	Radiación solar	700
26337	7	Sololá	712	San Antonio Palopó	9	San Antonio Palopo	12	Diciembre	2023-12-22T00:00:00	2024-11-08T14:00:00	2	Temperatura media	24.6
26338	7	Sololá	712	San Antonio Palopó	9	San Antonio Palopo	12	Diciembre	2023-12-22T00:00:00	2024-11-08T14:00:00	4	Temperatura máxima	25.1
26339	7	Sololá	712	San Antonio Palopó	9	San Antonio Palopo	12	Diciembre	2023-12-22T00:00:00	2024-11-08T14:00:00	3	Temperatura mínima	23.8
26340	7	Sololá	712	San Antonio Palopó	9	San Antonio Palopo	12	Diciembre	2023-12-22T00:00:00	2024-11-08T14:00:00	5	Humedad	48
26341	7	Sololá	712	San Antonio Palopó	9	San Antonio Palopo	12	Diciembre	2023-12-22T00:00:00	2024-11-08T14:00:00	6	Velocidad del viento	8
26342	7	Sololá	712	San Antonio Palopó	9	San Antonio Palopo	12	Diciembre	2023-12-22T00:00:00	2024-11-08T14:00:00	7	Dirección del viento	8.05
26343	7	Sololá	712	San Antonio Palopó	9	San Antonio Palopo	12	Diciembre	2023-12-22T00:00:00	2024-11-08T14:00:00	1	Precipitación	0
26344	7	Sololá	712	San Antonio Palopó	9	San Antonio Palopo	12	Diciembre	2023-12-22T00:00:00	2024-11-08T14:00:00	8	Radiación solar	572
26345	7	Sololá	712	San Antonio Palopó	9	San Antonio Palopo	12	Diciembre	2023-12-22T00:00:00	2024-11-08T15:00:00	2	Temperatura media	25.2
26346	7	Sololá	712	San Antonio Palopó	9	San Antonio Palopo	12	Diciembre	2023-12-22T00:00:00	2024-11-08T15:00:00	4	Temperatura máxima	25.4
26347	7	Sololá	712	San Antonio Palopó	9	San Antonio Palopo	12	Diciembre	2023-12-22T00:00:00	2024-11-08T15:00:00	3	Temperatura mínima	24.2
26348	7	Sololá	712	San Antonio Palopó	9	San Antonio Palopo	12	Diciembre	2023-12-22T00:00:00	2024-11-08T15:00:00	5	Humedad	46
26349	7	Sololá	712	San Antonio Palopó	9	San Antonio Palopo	12	Diciembre	2023-12-22T00:00:00	2024-11-08T15:00:00	6	Velocidad del viento	8
26350	7	Sololá	712	San Antonio Palopó	9	San Antonio Palopo	12	Diciembre	2023-12-22T00:00:00	2024-11-08T15:00:00	7	Dirección del viento	8.05
26351	7	Sololá	712	San Antonio Palopó	9	San Antonio Palopo	12	Diciembre	2023-12-22T00:00:00	2024-11-08T15:00:00	1	Precipitación	0
26352	7	Sololá	712	San Antonio Palopó	9	San Antonio Palopo	12	Diciembre	2023-12-22T00:00:00	2024-11-08T15:00:00	8	Radiación solar	552
26353	7	Sololá	712	San Antonio Palopó	9	San Antonio Palopo	12	Diciembre	2023-12-22T00:00:00	2024-11-08T16:00:00	2	Temperatura media	24.2
26354	7	Sololá	712	San Antonio Palopó	9	San Antonio Palopo	12	Diciembre	2023-12-22T00:00:00	2024-11-08T16:00:00	4	Temperatura máxima	25.3
26355	7	Sololá	712	San Antonio Palopó	9	San Antonio Palopo	12	Diciembre	2023-12-22T00:00:00	2024-11-08T16:00:00	3	Temperatura mínima	23.7
26356	7	Sololá	712	San Antonio Palopó	9	San Antonio Palopo	12	Diciembre	2023-12-22T00:00:00	2024-11-08T16:00:00	5	Humedad	50
26357	7	Sololá	712	San Antonio Palopó	9	San Antonio Palopo	12	Diciembre	2023-12-22T00:00:00	2024-11-08T16:00:00	6	Velocidad del viento	11.3
26358	7	Sololá	712	San Antonio Palopó	9	San Antonio Palopo	12	Diciembre	2023-12-22T00:00:00	2024-11-08T16:00:00	7	Dirección del viento	11.27
26359	7	Sololá	712	San Antonio Palopó	9	San Antonio Palopo	12	Diciembre	2023-12-22T00:00:00	2024-11-08T16:00:00	1	Precipitación	0
26360	7	Sololá	712	San Antonio Palopó	9	San Antonio Palopo	12	Diciembre	2023-12-22T00:00:00	2024-11-08T16:00:00	8	Radiación solar	346
26361	7	Sololá	712	San Antonio Palopó	9	San Antonio Palopo	12	Diciembre	2023-12-22T00:00:00	2024-11-08T17:00:00	2	Temperatura media	22.4
26362	7	Sololá	712	San Antonio Palopó	9	San Antonio Palopo	12	Diciembre	2023-12-22T00:00:00	2024-11-08T17:00:00	4	Temperatura máxima	24.4
26363	7	Sololá	712	San Antonio Palopó	9	San Antonio Palopo	12	Diciembre	2023-12-22T00:00:00	2024-11-08T17:00:00	3	Temperatura mínima	22.4
26364	7	Sololá	712	San Antonio Palopó	9	San Antonio Palopo	12	Diciembre	2023-12-22T00:00:00	2024-11-08T17:00:00	5	Humedad	56
26365	7	Sololá	712	San Antonio Palopó	9	San Antonio Palopo	12	Diciembre	2023-12-22T00:00:00	2024-11-08T17:00:00	6	Velocidad del viento	11.3
26366	7	Sololá	712	San Antonio Palopó	9	San Antonio Palopo	12	Diciembre	2023-12-22T00:00:00	2024-11-08T17:00:00	7	Dirección del viento	11.27
26367	7	Sololá	712	San Antonio Palopó	9	San Antonio Palopo	12	Diciembre	2023-12-22T00:00:00	2024-11-08T17:00:00	1	Precipitación	0
26368	7	Sololá	712	San Antonio Palopó	9	San Antonio Palopo	12	Diciembre	2023-12-22T00:00:00	2024-11-08T17:00:00	8	Radiación solar	113
26369	7	Sololá	712	San Antonio Palopó	9	San Antonio Palopo	12	Diciembre	2023-12-22T00:00:00	2024-11-08T18:00:00	2	Temperatura media	20.4
26370	7	Sololá	712	San Antonio Palopó	9	San Antonio Palopo	12	Diciembre	2023-12-22T00:00:00	2024-11-08T18:00:00	4	Temperatura máxima	22.4
26371	7	Sololá	712	San Antonio Palopó	9	San Antonio Palopo	12	Diciembre	2023-12-22T00:00:00	2024-11-08T18:00:00	3	Temperatura mínima	20.4
26372	7	Sololá	712	San Antonio Palopó	9	San Antonio Palopo	12	Diciembre	2023-12-22T00:00:00	2024-11-08T18:00:00	5	Humedad	62
26373	7	Sololá	712	San Antonio Palopó	9	San Antonio Palopo	12	Diciembre	2023-12-22T00:00:00	2024-11-08T18:00:00	6	Velocidad del viento	16.1
26374	7	Sololá	712	San Antonio Palopó	9	San Antonio Palopo	12	Diciembre	2023-12-22T00:00:00	2024-11-08T18:00:00	7	Dirección del viento	16.09
26375	7	Sololá	712	San Antonio Palopó	9	San Antonio Palopo	12	Diciembre	2023-12-22T00:00:00	2024-11-08T18:00:00	1	Precipitación	0
26376	7	Sololá	712	San Antonio Palopó	9	San Antonio Palopo	12	Diciembre	2023-12-22T00:00:00	2024-11-08T18:00:00	8	Radiación solar	25
26377	7	Sololá	712	San Antonio Palopó	9	San Antonio Palopo	12	Diciembre	2023-12-22T00:00:00	2024-11-08T19:00:00	2	Temperatura media	19.5
26378	7	Sololá	712	San Antonio Palopó	9	San Antonio Palopo	12	Diciembre	2023-12-22T00:00:00	2024-11-08T19:00:00	4	Temperatura máxima	20.4
26379	7	Sololá	712	San Antonio Palopó	9	San Antonio Palopo	12	Diciembre	2023-12-22T00:00:00	2024-11-08T19:00:00	3	Temperatura mínima	19.5
26380	7	Sololá	712	San Antonio Palopó	9	San Antonio Palopo	12	Diciembre	2023-12-22T00:00:00	2024-11-08T19:00:00	5	Humedad	66
26381	7	Sololá	712	San Antonio Palopó	9	San Antonio Palopo	12	Diciembre	2023-12-22T00:00:00	2024-11-08T19:00:00	6	Velocidad del viento	19.3
26382	7	Sololá	712	San Antonio Palopó	9	San Antonio Palopo	12	Diciembre	2023-12-22T00:00:00	2024-11-08T19:00:00	7	Dirección del viento	19.31
26383	7	Sololá	712	San Antonio Palopó	9	San Antonio Palopo	12	Diciembre	2023-12-22T00:00:00	2024-11-08T19:00:00	1	Precipitación	0
26384	7	Sololá	712	San Antonio Palopó	9	San Antonio Palopo	12	Diciembre	2023-12-22T00:00:00	2024-11-08T19:00:00	8	Radiación solar	0
26385	7	Sololá	712	San Antonio Palopó	9	San Antonio Palopo	12	Diciembre	2023-12-22T00:00:00	2024-11-08T20:00:00	2	Temperatura media	18.7
26386	7	Sololá	712	San Antonio Palopó	9	San Antonio Palopo	12	Diciembre	2023-12-22T00:00:00	2024-11-08T20:00:00	4	Temperatura máxima	19.5
26387	7	Sololá	712	San Antonio Palopó	9	San Antonio Palopo	12	Diciembre	2023-12-22T00:00:00	2024-11-08T20:00:00	3	Temperatura mínima	18.7
26388	7	Sololá	712	San Antonio Palopó	9	San Antonio Palopo	12	Diciembre	2023-12-22T00:00:00	2024-11-08T20:00:00	5	Humedad	69
26389	7	Sololá	712	San Antonio Palopó	9	San Antonio Palopo	12	Diciembre	2023-12-22T00:00:00	2024-11-08T20:00:00	6	Velocidad del viento	24.1
26390	7	Sololá	712	San Antonio Palopó	9	San Antonio Palopo	12	Diciembre	2023-12-22T00:00:00	2024-11-08T20:00:00	7	Dirección del viento	24.14
26391	7	Sololá	712	San Antonio Palopó	9	San Antonio Palopo	12	Diciembre	2023-12-22T00:00:00	2024-11-08T20:00:00	1	Precipitación	0
26392	7	Sololá	712	San Antonio Palopó	9	San Antonio Palopo	12	Diciembre	2023-12-22T00:00:00	2024-11-08T20:00:00	8	Radiación solar	0
26393	7	Sololá	712	San Antonio Palopó	9	San Antonio Palopo	12	Diciembre	2023-12-22T00:00:00	2024-11-08T21:00:00	2	Temperatura media	18.3
26394	7	Sololá	712	San Antonio Palopó	9	San Antonio Palopo	12	Diciembre	2023-12-22T00:00:00	2024-11-08T21:00:00	4	Temperatura máxima	18.7
26395	7	Sololá	712	San Antonio Palopó	9	San Antonio Palopo	12	Diciembre	2023-12-22T00:00:00	2024-11-08T21:00:00	3	Temperatura mínima	18.3
26396	7	Sololá	712	San Antonio Palopó	9	San Antonio Palopo	12	Diciembre	2023-12-22T00:00:00	2024-11-08T21:00:00	5	Humedad	70
26397	7	Sololá	712	San Antonio Palopó	9	San Antonio Palopo	12	Diciembre	2023-12-22T00:00:00	2024-11-08T21:00:00	6	Velocidad del viento	22.5
26398	7	Sololá	712	San Antonio Palopó	9	San Antonio Palopo	12	Diciembre	2023-12-22T00:00:00	2024-11-08T21:00:00	7	Dirección del viento	22.53
26399	7	Sololá	712	San Antonio Palopó	9	San Antonio Palopo	12	Diciembre	2023-12-22T00:00:00	2024-11-08T21:00:00	1	Precipitación	0
26400	7	Sololá	712	San Antonio Palopó	9	San Antonio Palopo	12	Diciembre	2023-12-22T00:00:00	2024-11-08T21:00:00	8	Radiación solar	0
26401	7	Sololá	712	San Antonio Palopó	9	San Antonio Palopo	12	Diciembre	2023-12-22T00:00:00	2024-11-08T22:00:00	2	Temperatura media	18.3
26402	7	Sololá	712	San Antonio Palopó	9	San Antonio Palopo	12	Diciembre	2023-12-22T00:00:00	2024-11-08T22:00:00	4	Temperatura máxima	18.4
26403	7	Sololá	712	San Antonio Palopó	9	San Antonio Palopo	12	Diciembre	2023-12-22T00:00:00	2024-11-08T22:00:00	3	Temperatura mínima	18.2
26404	7	Sololá	712	San Antonio Palopó	9	San Antonio Palopo	12	Diciembre	2023-12-22T00:00:00	2024-11-08T22:00:00	5	Humedad	70
26405	7	Sololá	712	San Antonio Palopó	9	San Antonio Palopo	12	Diciembre	2023-12-22T00:00:00	2024-11-08T22:00:00	6	Velocidad del viento	17.7
26406	7	Sololá	712	San Antonio Palopó	9	San Antonio Palopo	12	Diciembre	2023-12-22T00:00:00	2024-11-08T22:00:00	7	Dirección del viento	17.7
26407	7	Sololá	712	San Antonio Palopó	9	San Antonio Palopo	12	Diciembre	2023-12-22T00:00:00	2024-11-08T22:00:00	1	Precipitación	0
26408	7	Sololá	712	San Antonio Palopó	9	San Antonio Palopo	12	Diciembre	2023-12-22T00:00:00	2024-11-08T22:00:00	8	Radiación solar	0
26409	7	Sololá	712	San Antonio Palopó	9	San Antonio Palopo	12	Diciembre	2023-12-22T00:00:00	2024-11-08T23:00:00	2	Temperatura media	18.4
26410	7	Sololá	712	San Antonio Palopó	9	San Antonio Palopo	12	Diciembre	2023-12-22T00:00:00	2024-11-08T23:00:00	4	Temperatura máxima	18.7
26411	7	Sololá	712	San Antonio Palopó	9	San Antonio Palopo	12	Diciembre	2023-12-22T00:00:00	2024-11-08T23:00:00	3	Temperatura mínima	18.3
26412	7	Sololá	712	San Antonio Palopó	9	San Antonio Palopo	12	Diciembre	2023-12-22T00:00:00	2024-11-08T23:00:00	5	Humedad	69
26413	7	Sololá	712	San Antonio Palopó	9	San Antonio Palopo	12	Diciembre	2023-12-22T00:00:00	2024-11-08T23:00:00	6	Velocidad del viento	14.5
26414	7	Sololá	712	San Antonio Palopó	9	San Antonio Palopo	12	Diciembre	2023-12-22T00:00:00	2024-11-08T23:00:00	7	Dirección del viento	14.48
26415	7	Sololá	712	San Antonio Palopó	9	San Antonio Palopo	12	Diciembre	2023-12-22T00:00:00	2024-11-08T23:00:00	1	Precipitación	0
26416	7	Sololá	712	San Antonio Palopó	9	San Antonio Palopo	12	Diciembre	2023-12-22T00:00:00	2024-11-08T23:00:00	8	Radiación solar	0
26417	7	Sololá	712	San Antonio Palopó	9	San Antonio Palopo	12	Diciembre	2023-12-23T00:00:00	2024-11-08T00:00:00	2	Temperatura media	18
26418	7	Sololá	712	San Antonio Palopó	9	San Antonio Palopo	12	Diciembre	2023-12-23T00:00:00	2024-11-08T00:00:00	4	Temperatura máxima	18.5
26419	7	Sololá	712	San Antonio Palopó	9	San Antonio Palopo	12	Diciembre	2023-12-23T00:00:00	2024-11-08T00:00:00	3	Temperatura mínima	18
26420	7	Sololá	712	San Antonio Palopó	9	San Antonio Palopo	12	Diciembre	2023-12-23T00:00:00	2024-11-08T00:00:00	5	Humedad	70
26421	7	Sololá	712	San Antonio Palopó	9	San Antonio Palopo	12	Diciembre	2023-12-23T00:00:00	2024-11-08T00:00:00	6	Velocidad del viento	14.5
26422	7	Sololá	712	San Antonio Palopó	9	San Antonio Palopo	12	Diciembre	2023-12-23T00:00:00	2024-11-08T00:00:00	7	Dirección del viento	14.48
26423	7	Sololá	712	San Antonio Palopó	9	San Antonio Palopo	12	Diciembre	2023-12-23T00:00:00	2024-11-08T00:00:00	1	Precipitación	0
26424	7	Sololá	712	San Antonio Palopó	9	San Antonio Palopo	12	Diciembre	2023-12-23T00:00:00	2024-11-08T00:00:00	8	Radiación solar	0
26425	7	Sololá	712	San Antonio Palopó	9	San Antonio Palopo	12	Diciembre	2023-12-23T00:00:00	2024-11-08T01:00:00	2	Temperatura media	17.8
26426	7	Sololá	712	San Antonio Palopó	9	San Antonio Palopo	12	Diciembre	2023-12-23T00:00:00	2024-11-08T01:00:00	4	Temperatura máxima	18.1
26427	7	Sololá	712	San Antonio Palopó	9	San Antonio Palopo	12	Diciembre	2023-12-23T00:00:00	2024-11-08T01:00:00	3	Temperatura mínima	17.8
26428	7	Sololá	712	San Antonio Palopó	9	San Antonio Palopo	12	Diciembre	2023-12-23T00:00:00	2024-11-08T01:00:00	5	Humedad	71
26429	7	Sololá	712	San Antonio Palopó	9	San Antonio Palopo	12	Diciembre	2023-12-23T00:00:00	2024-11-08T01:00:00	6	Velocidad del viento	19.3
26430	7	Sololá	712	San Antonio Palopó	9	San Antonio Palopo	12	Diciembre	2023-12-23T00:00:00	2024-11-08T01:00:00	7	Dirección del viento	19.31
26431	7	Sololá	712	San Antonio Palopó	9	San Antonio Palopo	12	Diciembre	2023-12-23T00:00:00	2024-11-08T01:00:00	1	Precipitación	0
26432	7	Sololá	712	San Antonio Palopó	9	San Antonio Palopo	12	Diciembre	2023-12-23T00:00:00	2024-11-08T01:00:00	8	Radiación solar	0
26433	7	Sololá	712	San Antonio Palopó	9	San Antonio Palopo	12	Diciembre	2023-12-23T00:00:00	2024-11-08T02:00:00	2	Temperatura media	17.9
26434	7	Sololá	712	San Antonio Palopó	9	San Antonio Palopo	12	Diciembre	2023-12-23T00:00:00	2024-11-08T02:00:00	4	Temperatura máxima	17.9
26435	7	Sololá	712	San Antonio Palopó	9	San Antonio Palopo	12	Diciembre	2023-12-23T00:00:00	2024-11-08T02:00:00	3	Temperatura mínima	17.7
26436	7	Sololá	712	San Antonio Palopó	9	San Antonio Palopo	12	Diciembre	2023-12-23T00:00:00	2024-11-08T02:00:00	5	Humedad	70
26437	7	Sololá	712	San Antonio Palopó	9	San Antonio Palopo	12	Diciembre	2023-12-23T00:00:00	2024-11-08T02:00:00	6	Velocidad del viento	20.9
26438	7	Sololá	712	San Antonio Palopó	9	San Antonio Palopo	12	Diciembre	2023-12-23T00:00:00	2024-11-08T02:00:00	7	Dirección del viento	20.92
26439	7	Sololá	712	San Antonio Palopó	9	San Antonio Palopo	12	Diciembre	2023-12-23T00:00:00	2024-11-08T02:00:00	1	Precipitación	0
26440	7	Sololá	712	San Antonio Palopó	9	San Antonio Palopo	12	Diciembre	2023-12-23T00:00:00	2024-11-08T02:00:00	8	Radiación solar	0
26441	7	Sololá	712	San Antonio Palopó	9	San Antonio Palopo	12	Diciembre	2023-12-23T00:00:00	2024-11-08T03:00:00	2	Temperatura media	17.7
26442	7	Sololá	712	San Antonio Palopó	9	San Antonio Palopo	12	Diciembre	2023-12-23T00:00:00	2024-11-08T03:00:00	4	Temperatura máxima	18
26443	7	Sololá	712	San Antonio Palopó	9	San Antonio Palopo	12	Diciembre	2023-12-23T00:00:00	2024-11-08T03:00:00	3	Temperatura mínima	17.6
26444	7	Sololá	712	San Antonio Palopó	9	San Antonio Palopo	12	Diciembre	2023-12-23T00:00:00	2024-11-08T03:00:00	5	Humedad	72
26445	7	Sololá	712	San Antonio Palopó	9	San Antonio Palopo	12	Diciembre	2023-12-23T00:00:00	2024-11-08T03:00:00	6	Velocidad del viento	17.7
26446	7	Sololá	712	San Antonio Palopó	9	San Antonio Palopo	12	Diciembre	2023-12-23T00:00:00	2024-11-08T03:00:00	7	Dirección del viento	17.7
26447	7	Sololá	712	San Antonio Palopó	9	San Antonio Palopo	12	Diciembre	2023-12-23T00:00:00	2024-11-08T03:00:00	1	Precipitación	0
26448	7	Sololá	712	San Antonio Palopó	9	San Antonio Palopo	12	Diciembre	2023-12-23T00:00:00	2024-11-08T03:00:00	8	Radiación solar	0
26449	7	Sololá	712	San Antonio Palopó	9	San Antonio Palopo	12	Diciembre	2023-12-23T00:00:00	2024-11-08T04:00:00	2	Temperatura media	17.3
26450	7	Sololá	712	San Antonio Palopó	9	San Antonio Palopo	12	Diciembre	2023-12-23T00:00:00	2024-11-08T04:00:00	4	Temperatura máxima	18
26451	7	Sololá	712	San Antonio Palopó	9	San Antonio Palopo	12	Diciembre	2023-12-23T00:00:00	2024-11-08T04:00:00	3	Temperatura mínima	17.2
26452	7	Sololá	712	San Antonio Palopó	9	San Antonio Palopo	12	Diciembre	2023-12-23T00:00:00	2024-11-08T04:00:00	5	Humedad	72
26453	7	Sololá	712	San Antonio Palopó	9	San Antonio Palopo	12	Diciembre	2023-12-23T00:00:00	2024-11-08T04:00:00	6	Velocidad del viento	16.1
26454	7	Sololá	712	San Antonio Palopó	9	San Antonio Palopo	12	Diciembre	2023-12-23T00:00:00	2024-11-08T04:00:00	7	Dirección del viento	16.09
26455	7	Sololá	712	San Antonio Palopó	9	San Antonio Palopo	12	Diciembre	2023-12-23T00:00:00	2024-11-08T04:00:00	1	Precipitación	0
26456	7	Sololá	712	San Antonio Palopó	9	San Antonio Palopo	12	Diciembre	2023-12-23T00:00:00	2024-11-08T04:00:00	8	Radiación solar	0
26457	7	Sololá	712	San Antonio Palopó	9	San Antonio Palopo	12	Diciembre	2023-12-23T00:00:00	2024-11-08T05:00:00	2	Temperatura media	17.4
26458	7	Sololá	712	San Antonio Palopó	9	San Antonio Palopo	12	Diciembre	2023-12-23T00:00:00	2024-11-08T05:00:00	4	Temperatura máxima	17.5
26459	7	Sololá	712	San Antonio Palopó	9	San Antonio Palopo	12	Diciembre	2023-12-23T00:00:00	2024-11-08T05:00:00	3	Temperatura mínima	17.2
26460	7	Sololá	712	San Antonio Palopó	9	San Antonio Palopo	12	Diciembre	2023-12-23T00:00:00	2024-11-08T05:00:00	5	Humedad	71
26461	7	Sololá	712	San Antonio Palopó	9	San Antonio Palopo	12	Diciembre	2023-12-23T00:00:00	2024-11-08T05:00:00	6	Velocidad del viento	14.5
26462	7	Sololá	712	San Antonio Palopó	9	San Antonio Palopo	12	Diciembre	2023-12-23T00:00:00	2024-11-08T05:00:00	7	Dirección del viento	14.48
26463	7	Sololá	712	San Antonio Palopó	9	San Antonio Palopo	12	Diciembre	2023-12-23T00:00:00	2024-11-08T05:00:00	1	Precipitación	0
26464	7	Sololá	712	San Antonio Palopó	9	San Antonio Palopo	12	Diciembre	2023-12-23T00:00:00	2024-11-08T05:00:00	8	Radiación solar	0
26465	7	Sololá	712	San Antonio Palopó	9	San Antonio Palopo	12	Diciembre	2023-12-23T00:00:00	2024-11-08T06:00:00	2	Temperatura media	17.2
26466	7	Sololá	712	San Antonio Palopó	9	San Antonio Palopo	12	Diciembre	2023-12-23T00:00:00	2024-11-08T06:00:00	4	Temperatura máxima	17.4
26467	7	Sololá	712	San Antonio Palopó	9	San Antonio Palopo	12	Diciembre	2023-12-23T00:00:00	2024-11-08T06:00:00	3	Temperatura mínima	17.2
26468	7	Sololá	712	San Antonio Palopó	9	San Antonio Palopo	12	Diciembre	2023-12-23T00:00:00	2024-11-08T06:00:00	5	Humedad	71
26469	7	Sololá	712	San Antonio Palopó	9	San Antonio Palopo	12	Diciembre	2023-12-23T00:00:00	2024-11-08T06:00:00	6	Velocidad del viento	17.7
26470	7	Sololá	712	San Antonio Palopó	9	San Antonio Palopo	12	Diciembre	2023-12-23T00:00:00	2024-11-08T06:00:00	7	Dirección del viento	17.7
26471	7	Sololá	712	San Antonio Palopó	9	San Antonio Palopo	12	Diciembre	2023-12-23T00:00:00	2024-11-08T06:00:00	1	Precipitación	0
26472	7	Sololá	712	San Antonio Palopó	9	San Antonio Palopo	12	Diciembre	2023-12-23T00:00:00	2024-11-08T06:00:00	8	Radiación solar	0
26473	7	Sololá	712	San Antonio Palopó	9	San Antonio Palopo	12	Diciembre	2023-12-23T00:00:00	2024-11-08T07:00:00	2	Temperatura media	16.7
26474	7	Sololá	712	San Antonio Palopó	9	San Antonio Palopo	12	Diciembre	2023-12-23T00:00:00	2024-11-08T07:00:00	4	Temperatura máxima	17.2
26475	7	Sololá	712	San Antonio Palopó	9	San Antonio Palopo	12	Diciembre	2023-12-23T00:00:00	2024-11-08T07:00:00	3	Temperatura mínima	16.7
26476	7	Sololá	712	San Antonio Palopó	9	San Antonio Palopo	12	Diciembre	2023-12-23T00:00:00	2024-11-08T07:00:00	5	Humedad	72
26477	7	Sololá	712	San Antonio Palopó	9	San Antonio Palopo	12	Diciembre	2023-12-23T00:00:00	2024-11-08T07:00:00	6	Velocidad del viento	17.7
26478	7	Sololá	712	San Antonio Palopó	9	San Antonio Palopo	12	Diciembre	2023-12-23T00:00:00	2024-11-08T07:00:00	7	Dirección del viento	17.7
26479	7	Sololá	712	San Antonio Palopó	9	San Antonio Palopo	12	Diciembre	2023-12-23T00:00:00	2024-11-08T07:00:00	1	Precipitación	0
26480	7	Sololá	712	San Antonio Palopó	9	San Antonio Palopo	12	Diciembre	2023-12-23T00:00:00	2024-11-08T07:00:00	8	Radiación solar	4
26481	7	Sololá	712	San Antonio Palopó	9	San Antonio Palopo	12	Diciembre	2023-12-23T00:00:00	2024-11-08T08:00:00	2	Temperatura media	18.1
26482	7	Sololá	712	San Antonio Palopó	9	San Antonio Palopo	12	Diciembre	2023-12-23T00:00:00	2024-11-08T08:00:00	4	Temperatura máxima	18.1
26483	7	Sololá	712	San Antonio Palopó	9	San Antonio Palopo	12	Diciembre	2023-12-23T00:00:00	2024-11-08T08:00:00	3	Temperatura mínima	16.7
26484	7	Sololá	712	San Antonio Palopó	9	San Antonio Palopo	12	Diciembre	2023-12-23T00:00:00	2024-11-08T08:00:00	5	Humedad	71
26485	7	Sololá	712	San Antonio Palopó	9	San Antonio Palopo	12	Diciembre	2023-12-23T00:00:00	2024-11-08T08:00:00	6	Velocidad del viento	22.5
26486	7	Sololá	712	San Antonio Palopó	9	San Antonio Palopo	12	Diciembre	2023-12-23T00:00:00	2024-11-08T08:00:00	7	Dirección del viento	22.53
26487	7	Sololá	712	San Antonio Palopó	9	San Antonio Palopo	12	Diciembre	2023-12-23T00:00:00	2024-11-08T08:00:00	1	Precipitación	0
26488	7	Sololá	712	San Antonio Palopó	9	San Antonio Palopo	12	Diciembre	2023-12-23T00:00:00	2024-11-08T08:00:00	8	Radiación solar	16
26489	7	Sololá	712	San Antonio Palopó	9	San Antonio Palopo	12	Diciembre	2023-12-23T00:00:00	2024-11-08T09:00:00	2	Temperatura media	19.7
26490	7	Sololá	712	San Antonio Palopó	9	San Antonio Palopo	12	Diciembre	2023-12-23T00:00:00	2024-11-08T09:00:00	4	Temperatura máxima	19.7
26491	7	Sololá	712	San Antonio Palopó	9	San Antonio Palopo	12	Diciembre	2023-12-23T00:00:00	2024-11-08T09:00:00	3	Temperatura mínima	18.1
26492	7	Sololá	712	San Antonio Palopó	9	San Antonio Palopo	12	Diciembre	2023-12-23T00:00:00	2024-11-08T09:00:00	5	Humedad	67
26493	7	Sololá	712	San Antonio Palopó	9	San Antonio Palopo	12	Diciembre	2023-12-23T00:00:00	2024-11-08T09:00:00	6	Velocidad del viento	19.3
26494	7	Sololá	712	San Antonio Palopó	9	San Antonio Palopo	12	Diciembre	2023-12-23T00:00:00	2024-11-08T09:00:00	7	Dirección del viento	19.31
26495	7	Sololá	712	San Antonio Palopó	9	San Antonio Palopo	12	Diciembre	2023-12-23T00:00:00	2024-11-08T09:00:00	1	Precipitación	0
26496	7	Sololá	712	San Antonio Palopó	9	San Antonio Palopo	12	Diciembre	2023-12-23T00:00:00	2024-11-08T09:00:00	8	Radiación solar	93
26497	7	Sololá	712	San Antonio Palopó	9	San Antonio Palopo	12	Diciembre	2023-12-23T00:00:00	2024-11-08T10:00:00	2	Temperatura media	21.6
26498	7	Sololá	712	San Antonio Palopó	9	San Antonio Palopo	12	Diciembre	2023-12-23T00:00:00	2024-11-08T10:00:00	4	Temperatura máxima	21.7
26499	7	Sololá	712	San Antonio Palopó	9	San Antonio Palopo	12	Diciembre	2023-12-23T00:00:00	2024-11-08T10:00:00	3	Temperatura mínima	19.7
26500	7	Sololá	712	San Antonio Palopó	9	San Antonio Palopo	12	Diciembre	2023-12-23T00:00:00	2024-11-08T10:00:00	5	Humedad	62
26501	7	Sololá	712	San Antonio Palopó	9	San Antonio Palopo	12	Diciembre	2023-12-23T00:00:00	2024-11-08T10:00:00	6	Velocidad del viento	6.4
26502	7	Sololá	712	San Antonio Palopó	9	San Antonio Palopo	12	Diciembre	2023-12-23T00:00:00	2024-11-08T10:00:00	7	Dirección del viento	6.44
26503	7	Sololá	712	San Antonio Palopó	9	San Antonio Palopo	12	Diciembre	2023-12-23T00:00:00	2024-11-08T10:00:00	1	Precipitación	0
26504	7	Sololá	712	San Antonio Palopó	9	San Antonio Palopo	12	Diciembre	2023-12-23T00:00:00	2024-11-08T10:00:00	8	Radiación solar	544
26505	7	Sololá	712	San Antonio Palopó	9	San Antonio Palopo	12	Diciembre	2023-12-23T00:00:00	2024-11-08T11:00:00	2	Temperatura media	22.4
26506	7	Sololá	712	San Antonio Palopó	9	San Antonio Palopo	12	Diciembre	2023-12-23T00:00:00	2024-11-08T11:00:00	4	Temperatura máxima	23.7
26507	7	Sololá	712	San Antonio Palopó	9	San Antonio Palopo	12	Diciembre	2023-12-23T00:00:00	2024-11-08T11:00:00	3	Temperatura mínima	21.6
26508	7	Sololá	712	San Antonio Palopó	9	San Antonio Palopo	12	Diciembre	2023-12-23T00:00:00	2024-11-08T11:00:00	5	Humedad	60
26509	7	Sololá	712	San Antonio Palopó	9	San Antonio Palopo	12	Diciembre	2023-12-23T00:00:00	2024-11-08T11:00:00	6	Velocidad del viento	8
26510	7	Sololá	712	San Antonio Palopó	9	San Antonio Palopo	12	Diciembre	2023-12-23T00:00:00	2024-11-08T11:00:00	7	Dirección del viento	8.05
26511	7	Sololá	712	San Antonio Palopó	9	San Antonio Palopo	12	Diciembre	2023-12-23T00:00:00	2024-11-08T11:00:00	1	Precipitación	0
26512	7	Sololá	712	San Antonio Palopó	9	San Antonio Palopo	12	Diciembre	2023-12-23T00:00:00	2024-11-08T11:00:00	8	Radiación solar	675
26513	7	Sololá	712	San Antonio Palopó	9	San Antonio Palopo	12	Diciembre	2023-12-23T00:00:00	2024-11-08T12:00:00	2	Temperatura media	21.9
26514	7	Sololá	712	San Antonio Palopó	9	San Antonio Palopo	12	Diciembre	2023-12-23T00:00:00	2024-11-08T12:00:00	4	Temperatura máxima	24
26515	7	Sololá	712	San Antonio Palopó	9	San Antonio Palopo	12	Diciembre	2023-12-23T00:00:00	2024-11-08T12:00:00	3	Temperatura mínima	21.9
26516	7	Sololá	712	San Antonio Palopó	9	San Antonio Palopo	12	Diciembre	2023-12-23T00:00:00	2024-11-08T12:00:00	5	Humedad	68
26517	7	Sololá	712	San Antonio Palopó	9	San Antonio Palopo	12	Diciembre	2023-12-23T00:00:00	2024-11-08T12:00:00	6	Velocidad del viento	9.7
26518	7	Sololá	712	San Antonio Palopó	9	San Antonio Palopo	12	Diciembre	2023-12-23T00:00:00	2024-11-08T12:00:00	7	Dirección del viento	9.66
26519	7	Sololá	712	San Antonio Palopó	9	San Antonio Palopo	12	Diciembre	2023-12-23T00:00:00	2024-11-08T12:00:00	1	Precipitación	0
26520	7	Sololá	712	San Antonio Palopó	9	San Antonio Palopo	12	Diciembre	2023-12-23T00:00:00	2024-11-08T12:00:00	8	Radiación solar	648
26521	7	Sololá	712	San Antonio Palopó	9	San Antonio Palopo	12	Diciembre	2023-12-23T00:00:00	2024-11-08T13:00:00	2	Temperatura media	23.5
26522	7	Sololá	712	San Antonio Palopó	9	San Antonio Palopo	12	Diciembre	2023-12-23T00:00:00	2024-11-08T13:00:00	4	Temperatura máxima	23.5
26523	7	Sololá	712	San Antonio Palopó	9	San Antonio Palopo	12	Diciembre	2023-12-23T00:00:00	2024-11-08T13:00:00	3	Temperatura mínima	21.9
26524	7	Sololá	712	San Antonio Palopó	9	San Antonio Palopo	12	Diciembre	2023-12-23T00:00:00	2024-11-08T13:00:00	5	Humedad	65
26525	7	Sololá	712	San Antonio Palopó	9	San Antonio Palopo	12	Diciembre	2023-12-23T00:00:00	2024-11-08T13:00:00	6	Velocidad del viento	6.4
26526	7	Sololá	712	San Antonio Palopó	9	San Antonio Palopo	12	Diciembre	2023-12-23T00:00:00	2024-11-08T13:00:00	7	Dirección del viento	6.44
26527	7	Sololá	712	San Antonio Palopó	9	San Antonio Palopo	12	Diciembre	2023-12-23T00:00:00	2024-11-08T13:00:00	1	Precipitación	0
26528	7	Sololá	712	San Antonio Palopó	9	San Antonio Palopo	12	Diciembre	2023-12-23T00:00:00	2024-11-08T13:00:00	8	Radiación solar	492
26529	7	Sololá	712	San Antonio Palopó	9	San Antonio Palopo	12	Diciembre	2023-12-23T00:00:00	2024-11-08T14:00:00	2	Temperatura media	23.8
26530	7	Sololá	712	San Antonio Palopó	9	San Antonio Palopo	12	Diciembre	2023-12-23T00:00:00	2024-11-08T14:00:00	4	Temperatura máxima	24.4
26531	7	Sololá	712	San Antonio Palopó	9	San Antonio Palopo	12	Diciembre	2023-12-23T00:00:00	2024-11-08T14:00:00	3	Temperatura mínima	23.5
26532	7	Sololá	712	San Antonio Palopó	9	San Antonio Palopo	12	Diciembre	2023-12-23T00:00:00	2024-11-08T14:00:00	5	Humedad	66
26533	7	Sololá	712	San Antonio Palopó	9	San Antonio Palopo	12	Diciembre	2023-12-23T00:00:00	2024-11-08T14:00:00	6	Velocidad del viento	14.5
26534	7	Sololá	712	San Antonio Palopó	9	San Antonio Palopo	12	Diciembre	2023-12-23T00:00:00	2024-11-08T14:00:00	7	Dirección del viento	14.48
26535	7	Sololá	712	San Antonio Palopó	9	San Antonio Palopo	12	Diciembre	2023-12-23T00:00:00	2024-11-08T14:00:00	1	Precipitación	0
26536	7	Sololá	712	San Antonio Palopó	9	San Antonio Palopo	12	Diciembre	2023-12-23T00:00:00	2024-11-08T14:00:00	8	Radiación solar	738
26537	7	Sololá	712	San Antonio Palopó	9	San Antonio Palopo	12	Diciembre	2023-12-23T00:00:00	2024-11-08T15:00:00	2	Temperatura media	23.3
26538	7	Sololá	712	San Antonio Palopó	9	San Antonio Palopo	12	Diciembre	2023-12-23T00:00:00	2024-11-08T15:00:00	4	Temperatura máxima	24
26539	7	Sololá	712	San Antonio Palopó	9	San Antonio Palopo	12	Diciembre	2023-12-23T00:00:00	2024-11-08T15:00:00	3	Temperatura mínima	23.2
26540	7	Sololá	712	San Antonio Palopó	9	San Antonio Palopo	12	Diciembre	2023-12-23T00:00:00	2024-11-08T15:00:00	5	Humedad	68
26541	7	Sololá	712	San Antonio Palopó	9	San Antonio Palopo	12	Diciembre	2023-12-23T00:00:00	2024-11-08T15:00:00	6	Velocidad del viento	16.1
26542	7	Sololá	712	San Antonio Palopó	9	San Antonio Palopo	12	Diciembre	2023-12-23T00:00:00	2024-11-08T15:00:00	7	Dirección del viento	16.09
26543	7	Sololá	712	San Antonio Palopó	9	San Antonio Palopo	12	Diciembre	2023-12-23T00:00:00	2024-11-08T15:00:00	1	Precipitación	0
26544	7	Sololá	712	San Antonio Palopó	9	San Antonio Palopo	12	Diciembre	2023-12-23T00:00:00	2024-11-08T15:00:00	8	Radiación solar	658
26545	7	Sololá	712	San Antonio Palopó	9	San Antonio Palopo	12	Diciembre	2023-12-23T00:00:00	2024-11-08T16:00:00	2	Temperatura media	21.8
26546	7	Sololá	712	San Antonio Palopó	9	San Antonio Palopo	12	Diciembre	2023-12-23T00:00:00	2024-11-08T16:00:00	4	Temperatura máxima	23.3
26547	7	Sololá	712	San Antonio Palopó	9	San Antonio Palopo	12	Diciembre	2023-12-23T00:00:00	2024-11-08T16:00:00	3	Temperatura mínima	21.3
26548	7	Sololá	712	San Antonio Palopó	9	San Antonio Palopo	12	Diciembre	2023-12-23T00:00:00	2024-11-08T16:00:00	5	Humedad	75
26549	7	Sololá	712	San Antonio Palopó	9	San Antonio Palopo	12	Diciembre	2023-12-23T00:00:00	2024-11-08T16:00:00	6	Velocidad del viento	14.5
26550	7	Sololá	712	San Antonio Palopó	9	San Antonio Palopo	12	Diciembre	2023-12-23T00:00:00	2024-11-08T16:00:00	7	Dirección del viento	14.48
26551	7	Sololá	712	San Antonio Palopó	9	San Antonio Palopo	12	Diciembre	2023-12-23T00:00:00	2024-11-08T16:00:00	1	Precipitación	0
26552	7	Sololá	712	San Antonio Palopó	9	San Antonio Palopo	12	Diciembre	2023-12-23T00:00:00	2024-11-08T16:00:00	8	Radiación solar	324
26553	7	Sololá	712	San Antonio Palopó	9	San Antonio Palopo	12	Diciembre	2023-12-23T00:00:00	2024-11-08T17:00:00	2	Temperatura media	20.9
26554	7	Sololá	712	San Antonio Palopó	9	San Antonio Palopo	12	Diciembre	2023-12-23T00:00:00	2024-11-08T17:00:00	4	Temperatura máxima	21.8
26555	7	Sololá	712	San Antonio Palopó	9	San Antonio Palopo	12	Diciembre	2023-12-23T00:00:00	2024-11-08T17:00:00	3	Temperatura mínima	20.7
26556	7	Sololá	712	San Antonio Palopó	9	San Antonio Palopo	12	Diciembre	2023-12-23T00:00:00	2024-11-08T17:00:00	5	Humedad	76
26557	7	Sololá	712	San Antonio Palopó	9	San Antonio Palopo	12	Diciembre	2023-12-23T00:00:00	2024-11-08T17:00:00	6	Velocidad del viento	8
26558	7	Sololá	712	San Antonio Palopó	9	San Antonio Palopo	12	Diciembre	2023-12-23T00:00:00	2024-11-08T17:00:00	7	Dirección del viento	8.05
26559	7	Sololá	712	San Antonio Palopó	9	San Antonio Palopo	12	Diciembre	2023-12-23T00:00:00	2024-11-08T17:00:00	1	Precipitación	0
26560	7	Sololá	712	San Antonio Palopó	9	San Antonio Palopo	12	Diciembre	2023-12-23T00:00:00	2024-11-08T17:00:00	8	Radiación solar	83
26561	7	Sololá	712	San Antonio Palopó	9	San Antonio Palopo	12	Diciembre	2023-12-23T00:00:00	2024-11-08T18:00:00	2	Temperatura media	20
26562	7	Sololá	712	San Antonio Palopó	9	San Antonio Palopo	12	Diciembre	2023-12-23T00:00:00	2024-11-08T18:00:00	4	Temperatura máxima	21.1
26563	7	Sololá	712	San Antonio Palopó	9	San Antonio Palopo	12	Diciembre	2023-12-23T00:00:00	2024-11-08T18:00:00	3	Temperatura mínima	20
26564	7	Sololá	712	San Antonio Palopó	9	San Antonio Palopo	12	Diciembre	2023-12-23T00:00:00	2024-11-08T18:00:00	5	Humedad	80
26565	7	Sololá	712	San Antonio Palopó	9	San Antonio Palopo	12	Diciembre	2023-12-23T00:00:00	2024-11-08T18:00:00	6	Velocidad del viento	3.2
26566	7	Sololá	712	San Antonio Palopó	9	San Antonio Palopo	12	Diciembre	2023-12-23T00:00:00	2024-11-08T18:00:00	7	Dirección del viento	3.22
26567	7	Sololá	712	San Antonio Palopó	9	San Antonio Palopo	12	Diciembre	2023-12-23T00:00:00	2024-11-08T18:00:00	1	Precipitación	0
26568	7	Sololá	712	San Antonio Palopó	9	San Antonio Palopo	12	Diciembre	2023-12-23T00:00:00	2024-11-08T18:00:00	8	Radiación solar	15
26569	7	Sololá	712	San Antonio Palopó	9	San Antonio Palopo	12	Diciembre	2023-12-23T00:00:00	2024-11-08T19:00:00	2	Temperatura media	20.2
26570	7	Sololá	712	San Antonio Palopó	9	San Antonio Palopo	12	Diciembre	2023-12-23T00:00:00	2024-11-08T19:00:00	4	Temperatura máxima	20.3
26571	7	Sololá	712	San Antonio Palopó	9	San Antonio Palopo	12	Diciembre	2023-12-23T00:00:00	2024-11-08T19:00:00	3	Temperatura mínima	19.9
26572	7	Sololá	712	San Antonio Palopó	9	San Antonio Palopo	12	Diciembre	2023-12-23T00:00:00	2024-11-08T19:00:00	5	Humedad	67
26573	7	Sololá	712	San Antonio Palopó	9	San Antonio Palopo	12	Diciembre	2023-12-23T00:00:00	2024-11-08T19:00:00	6	Velocidad del viento	11.3
26574	7	Sololá	712	San Antonio Palopó	9	San Antonio Palopo	12	Diciembre	2023-12-23T00:00:00	2024-11-08T19:00:00	7	Dirección del viento	11.27
26575	7	Sololá	712	San Antonio Palopó	9	San Antonio Palopo	12	Diciembre	2023-12-23T00:00:00	2024-11-08T19:00:00	1	Precipitación	0
26576	7	Sololá	712	San Antonio Palopó	9	San Antonio Palopo	12	Diciembre	2023-12-23T00:00:00	2024-11-08T19:00:00	8	Radiación solar	0
26577	7	Sololá	712	San Antonio Palopó	9	San Antonio Palopo	12	Diciembre	2023-12-23T00:00:00	2024-11-08T20:00:00	2	Temperatura media	19.6
26578	7	Sololá	712	San Antonio Palopó	9	San Antonio Palopo	12	Diciembre	2023-12-23T00:00:00	2024-11-08T20:00:00	4	Temperatura máxima	20.3
26579	7	Sololá	712	San Antonio Palopó	9	San Antonio Palopo	12	Diciembre	2023-12-23T00:00:00	2024-11-08T20:00:00	3	Temperatura mínima	19.6
26580	7	Sololá	712	San Antonio Palopó	9	San Antonio Palopo	12	Diciembre	2023-12-23T00:00:00	2024-11-08T20:00:00	5	Humedad	69
26581	7	Sololá	712	San Antonio Palopó	9	San Antonio Palopo	12	Diciembre	2023-12-23T00:00:00	2024-11-08T20:00:00	6	Velocidad del viento	17.7
26582	7	Sololá	712	San Antonio Palopó	9	San Antonio Palopo	12	Diciembre	2023-12-23T00:00:00	2024-11-08T20:00:00	7	Dirección del viento	17.7
26583	7	Sololá	712	San Antonio Palopó	9	San Antonio Palopo	12	Diciembre	2023-12-23T00:00:00	2024-11-08T20:00:00	1	Precipitación	0
26584	7	Sololá	712	San Antonio Palopó	9	San Antonio Palopo	12	Diciembre	2023-12-23T00:00:00	2024-11-08T20:00:00	8	Radiación solar	0
26585	7	Sololá	712	San Antonio Palopó	9	San Antonio Palopo	12	Diciembre	2023-12-23T00:00:00	2024-11-08T21:00:00	2	Temperatura media	19
26586	7	Sololá	712	San Antonio Palopó	9	San Antonio Palopo	12	Diciembre	2023-12-23T00:00:00	2024-11-08T21:00:00	4	Temperatura máxima	19.6
26587	7	Sololá	712	San Antonio Palopó	9	San Antonio Palopo	12	Diciembre	2023-12-23T00:00:00	2024-11-08T21:00:00	3	Temperatura mínima	19
26588	7	Sololá	712	San Antonio Palopó	9	San Antonio Palopo	12	Diciembre	2023-12-23T00:00:00	2024-11-08T21:00:00	5	Humedad	70
26589	7	Sololá	712	San Antonio Palopó	9	San Antonio Palopo	12	Diciembre	2023-12-23T00:00:00	2024-11-08T21:00:00	6	Velocidad del viento	19.3
26590	7	Sololá	712	San Antonio Palopó	9	San Antonio Palopo	12	Diciembre	2023-12-23T00:00:00	2024-11-08T21:00:00	7	Dirección del viento	19.31
26591	7	Sololá	712	San Antonio Palopó	9	San Antonio Palopo	12	Diciembre	2023-12-23T00:00:00	2024-11-08T21:00:00	1	Precipitación	0
26592	7	Sololá	712	San Antonio Palopó	9	San Antonio Palopo	12	Diciembre	2023-12-23T00:00:00	2024-11-08T21:00:00	8	Radiación solar	0
26593	7	Sololá	712	San Antonio Palopó	9	San Antonio Palopo	12	Diciembre	2023-12-23T00:00:00	2024-11-08T22:00:00	2	Temperatura media	18.4
26594	7	Sololá	712	San Antonio Palopó	9	San Antonio Palopo	12	Diciembre	2023-12-23T00:00:00	2024-11-08T22:00:00	4	Temperatura máxima	19
26595	7	Sololá	712	San Antonio Palopó	9	San Antonio Palopo	12	Diciembre	2023-12-23T00:00:00	2024-11-08T22:00:00	3	Temperatura mínima	18.4
26596	7	Sololá	712	San Antonio Palopó	9	San Antonio Palopo	12	Diciembre	2023-12-23T00:00:00	2024-11-08T22:00:00	5	Humedad	71
26597	7	Sololá	712	San Antonio Palopó	9	San Antonio Palopo	12	Diciembre	2023-12-23T00:00:00	2024-11-08T22:00:00	6	Velocidad del viento	16.1
26598	7	Sololá	712	San Antonio Palopó	9	San Antonio Palopo	12	Diciembre	2023-12-23T00:00:00	2024-11-08T22:00:00	7	Dirección del viento	16.09
26599	7	Sololá	712	San Antonio Palopó	9	San Antonio Palopo	12	Diciembre	2023-12-23T00:00:00	2024-11-08T22:00:00	1	Precipitación	0
26600	7	Sololá	712	San Antonio Palopó	9	San Antonio Palopo	12	Diciembre	2023-12-23T00:00:00	2024-11-08T22:00:00	8	Radiación solar	0
26601	7	Sololá	712	San Antonio Palopó	9	San Antonio Palopo	12	Diciembre	2023-12-23T00:00:00	2024-11-08T23:00:00	2	Temperatura media	18.3
26602	7	Sololá	712	San Antonio Palopó	9	San Antonio Palopo	12	Diciembre	2023-12-23T00:00:00	2024-11-08T23:00:00	4	Temperatura máxima	18.4
26603	7	Sololá	712	San Antonio Palopó	9	San Antonio Palopo	12	Diciembre	2023-12-23T00:00:00	2024-11-08T23:00:00	3	Temperatura mínima	18.3
26604	7	Sololá	712	San Antonio Palopó	9	San Antonio Palopo	12	Diciembre	2023-12-23T00:00:00	2024-11-08T23:00:00	5	Humedad	71
26605	7	Sololá	712	San Antonio Palopó	9	San Antonio Palopo	12	Diciembre	2023-12-23T00:00:00	2024-11-08T23:00:00	6	Velocidad del viento	16.1
26606	7	Sololá	712	San Antonio Palopó	9	San Antonio Palopo	12	Diciembre	2023-12-23T00:00:00	2024-11-08T23:00:00	7	Dirección del viento	16.09
26607	7	Sololá	712	San Antonio Palopó	9	San Antonio Palopo	12	Diciembre	2023-12-23T00:00:00	2024-11-08T23:00:00	1	Precipitación	0
26608	7	Sololá	712	San Antonio Palopó	9	San Antonio Palopo	12	Diciembre	2023-12-23T00:00:00	2024-11-08T23:00:00	8	Radiación solar	0
26609	7	Sololá	712	San Antonio Palopó	9	San Antonio Palopo	12	Diciembre	2023-12-24T00:00:00	2024-11-08T00:00:00	2	Temperatura media	18.4
26610	7	Sololá	712	San Antonio Palopó	9	San Antonio Palopo	12	Diciembre	2023-12-24T00:00:00	2024-11-08T00:00:00	4	Temperatura máxima	18.6
26611	7	Sololá	712	San Antonio Palopó	9	San Antonio Palopo	12	Diciembre	2023-12-24T00:00:00	2024-11-08T00:00:00	3	Temperatura mínima	18.3
26612	7	Sololá	712	San Antonio Palopó	9	San Antonio Palopo	12	Diciembre	2023-12-24T00:00:00	2024-11-08T00:00:00	5	Humedad	70
26613	7	Sololá	712	San Antonio Palopó	9	San Antonio Palopo	12	Diciembre	2023-12-24T00:00:00	2024-11-08T00:00:00	6	Velocidad del viento	14.5
26614	7	Sololá	712	San Antonio Palopó	9	San Antonio Palopo	12	Diciembre	2023-12-24T00:00:00	2024-11-08T00:00:00	7	Dirección del viento	14.48
26615	7	Sololá	712	San Antonio Palopó	9	San Antonio Palopo	12	Diciembre	2023-12-24T00:00:00	2024-11-08T00:00:00	1	Precipitación	0
26616	7	Sololá	712	San Antonio Palopó	9	San Antonio Palopo	12	Diciembre	2023-12-24T00:00:00	2024-11-08T00:00:00	8	Radiación solar	0
26617	7	Sololá	712	San Antonio Palopó	9	San Antonio Palopo	12	Diciembre	2023-12-24T00:00:00	2024-11-08T01:00:00	2	Temperatura media	17.9
26618	7	Sololá	712	San Antonio Palopó	9	San Antonio Palopo	12	Diciembre	2023-12-24T00:00:00	2024-11-08T01:00:00	4	Temperatura máxima	18.4
26619	7	Sololá	712	San Antonio Palopó	9	San Antonio Palopo	12	Diciembre	2023-12-24T00:00:00	2024-11-08T01:00:00	3	Temperatura mínima	17.9
26620	7	Sololá	712	San Antonio Palopó	9	San Antonio Palopo	12	Diciembre	2023-12-24T00:00:00	2024-11-08T01:00:00	5	Humedad	71
26621	7	Sololá	712	San Antonio Palopó	9	San Antonio Palopo	12	Diciembre	2023-12-24T00:00:00	2024-11-08T01:00:00	6	Velocidad del viento	8
26622	7	Sololá	712	San Antonio Palopó	9	San Antonio Palopo	12	Diciembre	2023-12-24T00:00:00	2024-11-08T01:00:00	7	Dirección del viento	8.05
26623	7	Sololá	712	San Antonio Palopó	9	San Antonio Palopo	12	Diciembre	2023-12-24T00:00:00	2024-11-08T01:00:00	1	Precipitación	0
26624	7	Sololá	712	San Antonio Palopó	9	San Antonio Palopo	12	Diciembre	2023-12-24T00:00:00	2024-11-08T01:00:00	8	Radiación solar	0
26625	7	Sololá	712	San Antonio Palopó	9	San Antonio Palopo	12	Diciembre	2023-12-24T00:00:00	2024-11-08T02:00:00	2	Temperatura media	17.6
26626	7	Sololá	712	San Antonio Palopó	9	San Antonio Palopo	12	Diciembre	2023-12-24T00:00:00	2024-11-08T02:00:00	4	Temperatura máxima	18.1
26627	7	Sololá	712	San Antonio Palopó	9	San Antonio Palopo	12	Diciembre	2023-12-24T00:00:00	2024-11-08T02:00:00	3	Temperatura mínima	17.5
26628	7	Sololá	712	San Antonio Palopó	9	San Antonio Palopo	12	Diciembre	2023-12-24T00:00:00	2024-11-08T02:00:00	5	Humedad	71
26629	7	Sololá	712	San Antonio Palopó	9	San Antonio Palopo	12	Diciembre	2023-12-24T00:00:00	2024-11-08T02:00:00	6	Velocidad del viento	11.3
26630	7	Sololá	712	San Antonio Palopó	9	San Antonio Palopo	12	Diciembre	2023-12-24T00:00:00	2024-11-08T02:00:00	7	Dirección del viento	11.27
26631	7	Sololá	712	San Antonio Palopó	9	San Antonio Palopo	12	Diciembre	2023-12-24T00:00:00	2024-11-08T02:00:00	1	Precipitación	0
26632	7	Sololá	712	San Antonio Palopó	9	San Antonio Palopo	12	Diciembre	2023-12-24T00:00:00	2024-11-08T02:00:00	8	Radiación solar	0
26633	7	Sololá	712	San Antonio Palopó	9	San Antonio Palopo	12	Diciembre	2023-12-24T00:00:00	2024-11-08T03:00:00	2	Temperatura media	17.3
26634	7	Sololá	712	San Antonio Palopó	9	San Antonio Palopo	12	Diciembre	2023-12-24T00:00:00	2024-11-08T03:00:00	4	Temperatura máxima	17.7
26635	7	Sololá	712	San Antonio Palopó	9	San Antonio Palopo	12	Diciembre	2023-12-24T00:00:00	2024-11-08T03:00:00	3	Temperatura mínima	17.3
26636	7	Sololá	712	San Antonio Palopó	9	San Antonio Palopo	12	Diciembre	2023-12-24T00:00:00	2024-11-08T03:00:00	5	Humedad	72
26637	7	Sololá	712	San Antonio Palopó	9	San Antonio Palopo	12	Diciembre	2023-12-24T00:00:00	2024-11-08T03:00:00	6	Velocidad del viento	6.4
26638	7	Sololá	712	San Antonio Palopó	9	San Antonio Palopo	12	Diciembre	2023-12-24T00:00:00	2024-11-08T03:00:00	7	Dirección del viento	6.44
26639	7	Sololá	712	San Antonio Palopó	9	San Antonio Palopo	12	Diciembre	2023-12-24T00:00:00	2024-11-08T03:00:00	1	Precipitación	0
26640	7	Sololá	712	San Antonio Palopó	9	San Antonio Palopo	12	Diciembre	2023-12-24T00:00:00	2024-11-08T03:00:00	8	Radiación solar	0
26641	7	Sololá	712	San Antonio Palopó	9	San Antonio Palopo	12	Diciembre	2023-12-24T00:00:00	2024-11-08T04:00:00	2	Temperatura media	17.2
26642	7	Sololá	712	San Antonio Palopó	9	San Antonio Palopo	12	Diciembre	2023-12-24T00:00:00	2024-11-08T04:00:00	4	Temperatura máxima	17.4
26643	7	Sololá	712	San Antonio Palopó	9	San Antonio Palopo	12	Diciembre	2023-12-24T00:00:00	2024-11-08T04:00:00	3	Temperatura mínima	17.2
26644	7	Sololá	712	San Antonio Palopó	9	San Antonio Palopo	12	Diciembre	2023-12-24T00:00:00	2024-11-08T04:00:00	5	Humedad	73
26645	7	Sololá	712	San Antonio Palopó	9	San Antonio Palopo	12	Diciembre	2023-12-24T00:00:00	2024-11-08T04:00:00	6	Velocidad del viento	1.6
26646	7	Sololá	712	San Antonio Palopó	9	San Antonio Palopo	12	Diciembre	2023-12-24T00:00:00	2024-11-08T04:00:00	7	Dirección del viento	1.61
26647	7	Sololá	712	San Antonio Palopó	9	San Antonio Palopo	12	Diciembre	2023-12-24T00:00:00	2024-11-08T04:00:00	1	Precipitación	0
26648	7	Sololá	712	San Antonio Palopó	9	San Antonio Palopo	12	Diciembre	2023-12-24T00:00:00	2024-11-08T04:00:00	8	Radiación solar	0
26649	7	Sololá	712	San Antonio Palopó	9	San Antonio Palopo	12	Diciembre	2023-12-24T00:00:00	2024-11-08T05:00:00	2	Temperatura media	16.2
26650	7	Sololá	712	San Antonio Palopó	9	San Antonio Palopo	12	Diciembre	2023-12-24T00:00:00	2024-11-08T05:00:00	4	Temperatura máxima	17.2
26651	7	Sololá	712	San Antonio Palopó	9	San Antonio Palopo	12	Diciembre	2023-12-24T00:00:00	2024-11-08T05:00:00	3	Temperatura mínima	16.2
26652	7	Sololá	712	San Antonio Palopó	9	San Antonio Palopo	12	Diciembre	2023-12-24T00:00:00	2024-11-08T05:00:00	5	Humedad	76
26653	7	Sololá	712	San Antonio Palopó	9	San Antonio Palopo	12	Diciembre	2023-12-24T00:00:00	2024-11-08T05:00:00	6	Velocidad del viento	1.6
26654	7	Sololá	712	San Antonio Palopó	9	San Antonio Palopo	12	Diciembre	2023-12-24T00:00:00	2024-11-08T05:00:00	7	Dirección del viento	1.61
26655	7	Sololá	712	San Antonio Palopó	9	San Antonio Palopo	12	Diciembre	2023-12-24T00:00:00	2024-11-08T05:00:00	1	Precipitación	0
26656	7	Sololá	712	San Antonio Palopó	9	San Antonio Palopo	12	Diciembre	2023-12-24T00:00:00	2024-11-08T05:00:00	8	Radiación solar	0
26657	7	Sololá	712	San Antonio Palopó	9	San Antonio Palopo	12	Diciembre	2023-12-24T00:00:00	2024-11-08T06:00:00	2	Temperatura media	15.9
26658	7	Sololá	712	San Antonio Palopó	9	San Antonio Palopo	12	Diciembre	2023-12-24T00:00:00	2024-11-08T06:00:00	4	Temperatura máxima	16.2
26659	7	Sololá	712	San Antonio Palopó	9	San Antonio Palopo	12	Diciembre	2023-12-24T00:00:00	2024-11-08T06:00:00	3	Temperatura mínima	15.8
26660	7	Sololá	712	San Antonio Palopó	9	San Antonio Palopo	12	Diciembre	2023-12-24T00:00:00	2024-11-08T06:00:00	5	Humedad	78
26661	7	Sololá	712	San Antonio Palopó	9	San Antonio Palopo	12	Diciembre	2023-12-24T00:00:00	2024-11-08T06:00:00	6	Velocidad del viento	3.2
26662	7	Sololá	712	San Antonio Palopó	9	San Antonio Palopo	12	Diciembre	2023-12-24T00:00:00	2024-11-08T06:00:00	7	Dirección del viento	3.22
26663	7	Sololá	712	San Antonio Palopó	9	San Antonio Palopo	12	Diciembre	2023-12-24T00:00:00	2024-11-08T06:00:00	1	Precipitación	0
26664	7	Sololá	712	San Antonio Palopó	9	San Antonio Palopo	12	Diciembre	2023-12-24T00:00:00	2024-11-08T06:00:00	8	Radiación solar	0
26665	7	Sololá	712	San Antonio Palopó	9	San Antonio Palopo	12	Diciembre	2023-12-24T00:00:00	2024-11-08T07:00:00	2	Temperatura media	15.8
26666	7	Sololá	712	San Antonio Palopó	9	San Antonio Palopo	12	Diciembre	2023-12-24T00:00:00	2024-11-08T07:00:00	4	Temperatura máxima	16.1
26667	7	Sololá	712	San Antonio Palopó	9	San Antonio Palopo	12	Diciembre	2023-12-24T00:00:00	2024-11-08T07:00:00	3	Temperatura mínima	15.8
26668	7	Sololá	712	San Antonio Palopó	9	San Antonio Palopo	12	Diciembre	2023-12-24T00:00:00	2024-11-08T07:00:00	5	Humedad	80
26669	7	Sololá	712	San Antonio Palopó	9	San Antonio Palopo	12	Diciembre	2023-12-24T00:00:00	2024-11-08T07:00:00	6	Velocidad del viento	3.2
26670	7	Sololá	712	San Antonio Palopó	9	San Antonio Palopo	12	Diciembre	2023-12-24T00:00:00	2024-11-08T07:00:00	7	Dirección del viento	3.22
26671	7	Sololá	712	San Antonio Palopó	9	San Antonio Palopo	12	Diciembre	2023-12-24T00:00:00	2024-11-08T07:00:00	1	Precipitación	0
26672	7	Sololá	712	San Antonio Palopó	9	San Antonio Palopo	12	Diciembre	2023-12-24T00:00:00	2024-11-08T07:00:00	8	Radiación solar	7
26673	7	Sololá	712	San Antonio Palopó	9	San Antonio Palopo	12	Diciembre	2023-12-24T00:00:00	2024-11-08T08:00:00	2	Temperatura media	17.3
26674	7	Sololá	712	San Antonio Palopó	9	San Antonio Palopo	12	Diciembre	2023-12-24T00:00:00	2024-11-08T08:00:00	4	Temperatura máxima	17.3
26675	7	Sololá	712	San Antonio Palopó	9	San Antonio Palopo	12	Diciembre	2023-12-24T00:00:00	2024-11-08T08:00:00	3	Temperatura mínima	15.7
26676	7	Sololá	712	San Antonio Palopó	9	San Antonio Palopo	12	Diciembre	2023-12-24T00:00:00	2024-11-08T08:00:00	5	Humedad	78
26677	7	Sololá	712	San Antonio Palopó	9	San Antonio Palopo	12	Diciembre	2023-12-24T00:00:00	2024-11-08T08:00:00	6	Velocidad del viento	1.6
26678	7	Sololá	712	San Antonio Palopó	9	San Antonio Palopo	12	Diciembre	2023-12-24T00:00:00	2024-11-08T08:00:00	7	Dirección del viento	1.61
26679	7	Sololá	712	San Antonio Palopó	9	San Antonio Palopo	12	Diciembre	2023-12-24T00:00:00	2024-11-08T08:00:00	1	Precipitación	0
26680	7	Sololá	712	San Antonio Palopó	9	San Antonio Palopo	12	Diciembre	2023-12-24T00:00:00	2024-11-08T08:00:00	8	Radiación solar	58
26681	7	Sololá	712	San Antonio Palopó	9	San Antonio Palopo	12	Diciembre	2023-12-24T00:00:00	2024-11-08T09:00:00	2	Temperatura media	17.9
26682	7	Sololá	712	San Antonio Palopó	9	San Antonio Palopo	12	Diciembre	2023-12-24T00:00:00	2024-11-08T09:00:00	4	Temperatura máxima	17.9
26683	7	Sololá	712	San Antonio Palopó	9	San Antonio Palopo	12	Diciembre	2023-12-24T00:00:00	2024-11-08T09:00:00	3	Temperatura mínima	16.8
26684	7	Sololá	712	San Antonio Palopó	9	San Antonio Palopo	12	Diciembre	2023-12-24T00:00:00	2024-11-08T09:00:00	5	Humedad	77
26685	7	Sololá	712	San Antonio Palopó	9	San Antonio Palopo	12	Diciembre	2023-12-24T00:00:00	2024-11-08T09:00:00	6	Velocidad del viento	0
26686	7	Sololá	712	San Antonio Palopó	9	San Antonio Palopo	12	Diciembre	2023-12-24T00:00:00	2024-11-08T09:00:00	7	Dirección del viento	0
26687	7	Sololá	712	San Antonio Palopó	9	San Antonio Palopo	12	Diciembre	2023-12-24T00:00:00	2024-11-08T09:00:00	1	Precipitación	0
26688	7	Sololá	712	San Antonio Palopó	9	San Antonio Palopo	12	Diciembre	2023-12-24T00:00:00	2024-11-08T09:00:00	8	Radiación solar	101
26689	7	Sololá	712	San Antonio Palopó	9	San Antonio Palopo	12	Diciembre	2023-12-24T00:00:00	2024-11-08T10:00:00	2	Temperatura media	19.9
26690	7	Sololá	712	San Antonio Palopó	9	San Antonio Palopo	12	Diciembre	2023-12-24T00:00:00	2024-11-08T10:00:00	4	Temperatura máxima	20.5
26691	7	Sololá	712	San Antonio Palopó	9	San Antonio Palopo	12	Diciembre	2023-12-24T00:00:00	2024-11-08T10:00:00	3	Temperatura mínima	17.9
26692	7	Sololá	712	San Antonio Palopó	9	San Antonio Palopo	12	Diciembre	2023-12-24T00:00:00	2024-11-08T10:00:00	5	Humedad	74
26693	7	Sololá	712	San Antonio Palopó	9	San Antonio Palopo	12	Diciembre	2023-12-24T00:00:00	2024-11-08T10:00:00	6	Velocidad del viento	1.6
26694	7	Sololá	712	San Antonio Palopó	9	San Antonio Palopo	12	Diciembre	2023-12-24T00:00:00	2024-11-08T10:00:00	7	Dirección del viento	1.61
26695	7	Sololá	712	San Antonio Palopó	9	San Antonio Palopo	12	Diciembre	2023-12-24T00:00:00	2024-11-08T10:00:00	1	Precipitación	0
26696	7	Sololá	712	San Antonio Palopó	9	San Antonio Palopo	12	Diciembre	2023-12-24T00:00:00	2024-11-08T10:00:00	8	Radiación solar	564
26697	7	Sololá	712	San Antonio Palopó	9	San Antonio Palopo	12	Diciembre	2023-12-24T00:00:00	2024-11-08T11:00:00	2	Temperatura media	21.1
26698	7	Sololá	712	San Antonio Palopó	9	San Antonio Palopo	12	Diciembre	2023-12-24T00:00:00	2024-11-08T11:00:00	4	Temperatura máxima	21.3
26699	7	Sololá	712	San Antonio Palopó	9	San Antonio Palopo	12	Diciembre	2023-12-24T00:00:00	2024-11-08T11:00:00	3	Temperatura mínima	19.9
26700	7	Sololá	712	San Antonio Palopó	9	San Antonio Palopo	12	Diciembre	2023-12-24T00:00:00	2024-11-08T11:00:00	5	Humedad	72
26701	7	Sololá	712	San Antonio Palopó	9	San Antonio Palopo	12	Diciembre	2023-12-24T00:00:00	2024-11-08T11:00:00	6	Velocidad del viento	3.2
26702	7	Sololá	712	San Antonio Palopó	9	San Antonio Palopo	12	Diciembre	2023-12-24T00:00:00	2024-11-08T11:00:00	7	Dirección del viento	3.22
26703	7	Sololá	712	San Antonio Palopó	9	San Antonio Palopo	12	Diciembre	2023-12-24T00:00:00	2024-11-08T11:00:00	1	Precipitación	0
26704	7	Sololá	712	San Antonio Palopó	9	San Antonio Palopo	12	Diciembre	2023-12-24T00:00:00	2024-11-08T11:00:00	8	Radiación solar	649
26705	7	Sololá	712	San Antonio Palopó	9	San Antonio Palopo	12	Diciembre	2023-12-24T00:00:00	2024-11-08T12:00:00	2	Temperatura media	22.2
26706	7	Sololá	712	San Antonio Palopó	9	San Antonio Palopo	12	Diciembre	2023-12-24T00:00:00	2024-11-08T12:00:00	4	Temperatura máxima	22.2
26707	7	Sololá	712	San Antonio Palopó	9	San Antonio Palopo	12	Diciembre	2023-12-24T00:00:00	2024-11-08T12:00:00	3	Temperatura mínima	21.1
26708	7	Sololá	712	San Antonio Palopó	9	San Antonio Palopo	12	Diciembre	2023-12-24T00:00:00	2024-11-08T12:00:00	5	Humedad	70
26709	7	Sololá	712	San Antonio Palopó	9	San Antonio Palopo	12	Diciembre	2023-12-24T00:00:00	2024-11-08T12:00:00	6	Velocidad del viento	1.6
26710	7	Sololá	712	San Antonio Palopó	9	San Antonio Palopo	12	Diciembre	2023-12-24T00:00:00	2024-11-08T12:00:00	7	Dirección del viento	1.61
26711	7	Sololá	712	San Antonio Palopó	9	San Antonio Palopo	12	Diciembre	2023-12-24T00:00:00	2024-11-08T12:00:00	1	Precipitación	0
26712	7	Sololá	712	San Antonio Palopó	9	San Antonio Palopo	12	Diciembre	2023-12-24T00:00:00	2024-11-08T12:00:00	8	Radiación solar	697
26713	7	Sololá	712	San Antonio Palopó	9	San Antonio Palopo	12	Diciembre	2023-12-24T00:00:00	2024-11-08T13:00:00	2	Temperatura media	23.3
26714	7	Sololá	712	San Antonio Palopó	9	San Antonio Palopo	12	Diciembre	2023-12-24T00:00:00	2024-11-08T13:00:00	4	Temperatura máxima	23.8
26715	7	Sololá	712	San Antonio Palopó	9	San Antonio Palopo	12	Diciembre	2023-12-24T00:00:00	2024-11-08T13:00:00	3	Temperatura mínima	22.2
26716	7	Sololá	712	San Antonio Palopó	9	San Antonio Palopo	12	Diciembre	2023-12-24T00:00:00	2024-11-08T13:00:00	5	Humedad	68
26717	7	Sololá	712	San Antonio Palopó	9	San Antonio Palopo	12	Diciembre	2023-12-24T00:00:00	2024-11-08T13:00:00	6	Velocidad del viento	6.4
26718	7	Sololá	712	San Antonio Palopó	9	San Antonio Palopo	12	Diciembre	2023-12-24T00:00:00	2024-11-08T13:00:00	7	Dirección del viento	6.44
26719	7	Sololá	712	San Antonio Palopó	9	San Antonio Palopo	12	Diciembre	2023-12-24T00:00:00	2024-11-08T13:00:00	1	Precipitación	0
26720	7	Sololá	712	San Antonio Palopó	9	San Antonio Palopo	12	Diciembre	2023-12-24T00:00:00	2024-11-08T13:00:00	8	Radiación solar	780
26721	7	Sololá	712	San Antonio Palopó	9	San Antonio Palopo	12	Diciembre	2023-12-24T00:00:00	2024-11-08T14:00:00	2	Temperatura media	22.8
26722	7	Sololá	712	San Antonio Palopó	9	San Antonio Palopo	12	Diciembre	2023-12-24T00:00:00	2024-11-08T14:00:00	4	Temperatura máxima	23.3
26723	7	Sololá	712	San Antonio Palopó	9	San Antonio Palopo	12	Diciembre	2023-12-24T00:00:00	2024-11-08T14:00:00	3	Temperatura mínima	22.7
26724	7	Sololá	712	San Antonio Palopó	9	San Antonio Palopo	12	Diciembre	2023-12-24T00:00:00	2024-11-08T14:00:00	5	Humedad	70
26725	7	Sololá	712	San Antonio Palopó	9	San Antonio Palopo	12	Diciembre	2023-12-24T00:00:00	2024-11-08T14:00:00	6	Velocidad del viento	11.3
26726	7	Sololá	712	San Antonio Palopó	9	San Antonio Palopo	12	Diciembre	2023-12-24T00:00:00	2024-11-08T14:00:00	7	Dirección del viento	11.27
26727	7	Sololá	712	San Antonio Palopó	9	San Antonio Palopo	12	Diciembre	2023-12-24T00:00:00	2024-11-08T14:00:00	1	Precipitación	0
26728	7	Sololá	712	San Antonio Palopó	9	San Antonio Palopo	12	Diciembre	2023-12-24T00:00:00	2024-11-08T14:00:00	8	Radiación solar	726
26729	7	Sololá	712	San Antonio Palopó	9	San Antonio Palopo	12	Diciembre	2023-12-24T00:00:00	2024-11-08T15:00:00	2	Temperatura media	23.7
26730	7	Sololá	712	San Antonio Palopó	9	San Antonio Palopo	12	Diciembre	2023-12-24T00:00:00	2024-11-08T15:00:00	4	Temperatura máxima	24.1
26731	7	Sololá	712	San Antonio Palopó	9	San Antonio Palopo	12	Diciembre	2023-12-24T00:00:00	2024-11-08T15:00:00	3	Temperatura mínima	22.8
26732	7	Sololá	712	San Antonio Palopó	9	San Antonio Palopo	12	Diciembre	2023-12-24T00:00:00	2024-11-08T15:00:00	5	Humedad	66
26733	7	Sololá	712	San Antonio Palopó	9	San Antonio Palopo	12	Diciembre	2023-12-24T00:00:00	2024-11-08T15:00:00	6	Velocidad del viento	6.4
26734	7	Sololá	712	San Antonio Palopó	9	San Antonio Palopo	12	Diciembre	2023-12-24T00:00:00	2024-11-08T15:00:00	7	Dirección del viento	6.44
26735	7	Sololá	712	San Antonio Palopó	9	San Antonio Palopo	12	Diciembre	2023-12-24T00:00:00	2024-11-08T15:00:00	1	Precipitación	0
26736	7	Sololá	712	San Antonio Palopó	9	San Antonio Palopo	12	Diciembre	2023-12-24T00:00:00	2024-11-08T15:00:00	8	Radiación solar	574
26737	7	Sololá	712	San Antonio Palopó	9	San Antonio Palopo	12	Diciembre	2023-12-24T00:00:00	2024-11-08T16:00:00	2	Temperatura media	22.8
26738	7	Sololá	712	San Antonio Palopó	9	San Antonio Palopo	12	Diciembre	2023-12-24T00:00:00	2024-11-08T16:00:00	4	Temperatura máxima	23.6
26739	7	Sololá	712	San Antonio Palopó	9	San Antonio Palopo	12	Diciembre	2023-12-24T00:00:00	2024-11-08T16:00:00	3	Temperatura mínima	22.5
26740	7	Sololá	712	San Antonio Palopó	9	San Antonio Palopo	12	Diciembre	2023-12-24T00:00:00	2024-11-08T16:00:00	5	Humedad	70
26741	7	Sololá	712	San Antonio Palopó	9	San Antonio Palopo	12	Diciembre	2023-12-24T00:00:00	2024-11-08T16:00:00	6	Velocidad del viento	9.7
26742	7	Sololá	712	San Antonio Palopó	9	San Antonio Palopo	12	Diciembre	2023-12-24T00:00:00	2024-11-08T16:00:00	7	Dirección del viento	9.66
26743	7	Sololá	712	San Antonio Palopó	9	San Antonio Palopo	12	Diciembre	2023-12-24T00:00:00	2024-11-08T16:00:00	1	Precipitación	0
26744	7	Sololá	712	San Antonio Palopó	9	San Antonio Palopo	12	Diciembre	2023-12-24T00:00:00	2024-11-08T16:00:00	8	Radiación solar	399
26745	7	Sololá	712	San Antonio Palopó	9	San Antonio Palopo	12	Diciembre	2023-12-24T00:00:00	2024-11-08T17:00:00	2	Temperatura media	22.4
26746	7	Sololá	712	San Antonio Palopó	9	San Antonio Palopo	12	Diciembre	2023-12-24T00:00:00	2024-11-08T17:00:00	4	Temperatura máxima	22.8
26747	7	Sololá	712	San Antonio Palopó	9	San Antonio Palopo	12	Diciembre	2023-12-24T00:00:00	2024-11-08T17:00:00	3	Temperatura mínima	21.6
26748	7	Sololá	712	San Antonio Palopó	9	San Antonio Palopo	12	Diciembre	2023-12-24T00:00:00	2024-11-08T17:00:00	5	Humedad	72
26749	7	Sololá	712	San Antonio Palopó	9	San Antonio Palopo	12	Diciembre	2023-12-24T00:00:00	2024-11-08T17:00:00	6	Velocidad del viento	6.4
26750	7	Sololá	712	San Antonio Palopó	9	San Antonio Palopo	12	Diciembre	2023-12-24T00:00:00	2024-11-08T17:00:00	7	Dirección del viento	6.44
26751	7	Sololá	712	San Antonio Palopó	9	San Antonio Palopo	12	Diciembre	2023-12-24T00:00:00	2024-11-08T17:00:00	1	Precipitación	0
26752	7	Sololá	712	San Antonio Palopó	9	San Antonio Palopo	12	Diciembre	2023-12-24T00:00:00	2024-11-08T17:00:00	8	Radiación solar	148
26753	7	Sololá	712	San Antonio Palopó	9	San Antonio Palopo	12	Diciembre	2023-12-24T00:00:00	2024-11-08T18:00:00	2	Temperatura media	20.6
26754	7	Sololá	712	San Antonio Palopó	9	San Antonio Palopo	12	Diciembre	2023-12-24T00:00:00	2024-11-08T18:00:00	4	Temperatura máxima	22.4
26755	7	Sololá	712	San Antonio Palopó	9	San Antonio Palopo	12	Diciembre	2023-12-24T00:00:00	2024-11-08T18:00:00	3	Temperatura mínima	20.5
26756	7	Sololá	712	San Antonio Palopó	9	San Antonio Palopo	12	Diciembre	2023-12-24T00:00:00	2024-11-08T18:00:00	5	Humedad	75
26757	7	Sololá	712	San Antonio Palopó	9	San Antonio Palopo	12	Diciembre	2023-12-24T00:00:00	2024-11-08T18:00:00	6	Velocidad del viento	4.8
26758	7	Sololá	712	San Antonio Palopó	9	San Antonio Palopo	12	Diciembre	2023-12-24T00:00:00	2024-11-08T18:00:00	7	Dirección del viento	4.83
26759	7	Sololá	712	San Antonio Palopó	9	San Antonio Palopo	12	Diciembre	2023-12-24T00:00:00	2024-11-08T18:00:00	1	Precipitación	0
26760	7	Sololá	712	San Antonio Palopó	9	San Antonio Palopo	12	Diciembre	2023-12-24T00:00:00	2024-11-08T18:00:00	8	Radiación solar	22
26761	7	Sololá	712	San Antonio Palopó	9	San Antonio Palopo	12	Diciembre	2023-12-24T00:00:00	2024-11-08T19:00:00	2	Temperatura media	19.5
26762	7	Sololá	712	San Antonio Palopó	9	San Antonio Palopo	12	Diciembre	2023-12-24T00:00:00	2024-11-08T19:00:00	4	Temperatura máxima	20.6
26763	7	Sololá	712	San Antonio Palopó	9	San Antonio Palopo	12	Diciembre	2023-12-24T00:00:00	2024-11-08T19:00:00	3	Temperatura mínima	19.5
26764	7	Sololá	712	San Antonio Palopó	9	San Antonio Palopo	12	Diciembre	2023-12-24T00:00:00	2024-11-08T19:00:00	5	Humedad	75
26765	7	Sololá	712	San Antonio Palopó	9	San Antonio Palopo	12	Diciembre	2023-12-24T00:00:00	2024-11-08T19:00:00	6	Velocidad del viento	1.6
26766	7	Sololá	712	San Antonio Palopó	9	San Antonio Palopo	12	Diciembre	2023-12-24T00:00:00	2024-11-08T19:00:00	7	Dirección del viento	1.61
26767	7	Sololá	712	San Antonio Palopó	9	San Antonio Palopo	12	Diciembre	2023-12-24T00:00:00	2024-11-08T19:00:00	1	Precipitación	0
26768	7	Sololá	712	San Antonio Palopó	9	San Antonio Palopo	12	Diciembre	2023-12-24T00:00:00	2024-11-08T19:00:00	8	Radiación solar	0
26769	7	Sololá	712	San Antonio Palopó	9	San Antonio Palopo	12	Diciembre	2023-12-24T00:00:00	2024-11-08T20:00:00	2	Temperatura media	18.7
26770	7	Sololá	712	San Antonio Palopó	9	San Antonio Palopo	12	Diciembre	2023-12-24T00:00:00	2024-11-08T20:00:00	4	Temperatura máxima	19.5
26771	7	Sololá	712	San Antonio Palopó	9	San Antonio Palopo	12	Diciembre	2023-12-24T00:00:00	2024-11-08T20:00:00	3	Temperatura mínima	18.6
26772	7	Sololá	712	San Antonio Palopó	9	San Antonio Palopo	12	Diciembre	2023-12-24T00:00:00	2024-11-08T20:00:00	5	Humedad	77
26773	7	Sololá	712	San Antonio Palopó	9	San Antonio Palopo	12	Diciembre	2023-12-24T00:00:00	2024-11-08T20:00:00	6	Velocidad del viento	1.6
26774	7	Sololá	712	San Antonio Palopó	9	San Antonio Palopo	12	Diciembre	2023-12-24T00:00:00	2024-11-08T20:00:00	7	Dirección del viento	1.61
26775	7	Sololá	712	San Antonio Palopó	9	San Antonio Palopo	12	Diciembre	2023-12-24T00:00:00	2024-11-08T20:00:00	1	Precipitación	0
26776	7	Sololá	712	San Antonio Palopó	9	San Antonio Palopo	12	Diciembre	2023-12-24T00:00:00	2024-11-08T20:00:00	8	Radiación solar	0
26777	7	Sololá	712	San Antonio Palopó	9	San Antonio Palopo	12	Diciembre	2023-12-24T00:00:00	2024-11-08T21:00:00	2	Temperatura media	18.1
26778	7	Sololá	712	San Antonio Palopó	9	San Antonio Palopo	12	Diciembre	2023-12-24T00:00:00	2024-11-08T21:00:00	4	Temperatura máxima	18.7
26779	7	Sololá	712	San Antonio Palopó	9	San Antonio Palopo	12	Diciembre	2023-12-24T00:00:00	2024-11-08T21:00:00	3	Temperatura mínima	18
26780	7	Sololá	712	San Antonio Palopó	9	San Antonio Palopo	12	Diciembre	2023-12-24T00:00:00	2024-11-08T21:00:00	5	Humedad	79
26781	7	Sololá	712	San Antonio Palopó	9	San Antonio Palopo	12	Diciembre	2023-12-24T00:00:00	2024-11-08T21:00:00	6	Velocidad del viento	1.6
26782	7	Sololá	712	San Antonio Palopó	9	San Antonio Palopo	12	Diciembre	2023-12-24T00:00:00	2024-11-08T21:00:00	7	Dirección del viento	1.61
26783	7	Sololá	712	San Antonio Palopó	9	San Antonio Palopo	12	Diciembre	2023-12-24T00:00:00	2024-11-08T21:00:00	1	Precipitación	0
26784	7	Sololá	712	San Antonio Palopó	9	San Antonio Palopo	12	Diciembre	2023-12-24T00:00:00	2024-11-08T21:00:00	8	Radiación solar	0
26785	7	Sololá	712	San Antonio Palopó	9	San Antonio Palopo	12	Diciembre	2023-12-24T00:00:00	2024-11-08T22:00:00	2	Temperatura media	17.5
26786	7	Sololá	712	San Antonio Palopó	9	San Antonio Palopo	12	Diciembre	2023-12-24T00:00:00	2024-11-08T22:00:00	4	Temperatura máxima	18.2
26787	7	Sololá	712	San Antonio Palopó	9	San Antonio Palopo	12	Diciembre	2023-12-24T00:00:00	2024-11-08T22:00:00	3	Temperatura mínima	17.5
26788	7	Sololá	712	San Antonio Palopó	9	San Antonio Palopo	12	Diciembre	2023-12-24T00:00:00	2024-11-08T22:00:00	5	Humedad	79
26789	7	Sololá	712	San Antonio Palopó	9	San Antonio Palopo	12	Diciembre	2023-12-24T00:00:00	2024-11-08T22:00:00	6	Velocidad del viento	3.2
26790	7	Sololá	712	San Antonio Palopó	9	San Antonio Palopo	12	Diciembre	2023-12-24T00:00:00	2024-11-08T22:00:00	7	Dirección del viento	3.22
26791	7	Sololá	712	San Antonio Palopó	9	San Antonio Palopo	12	Diciembre	2023-12-24T00:00:00	2024-11-08T22:00:00	1	Precipitación	0
26792	7	Sololá	712	San Antonio Palopó	9	San Antonio Palopo	12	Diciembre	2023-12-24T00:00:00	2024-11-08T22:00:00	8	Radiación solar	0
26793	7	Sololá	712	San Antonio Palopó	9	San Antonio Palopo	12	Diciembre	2023-12-24T00:00:00	2024-11-08T23:00:00	2	Temperatura media	16.9
26794	7	Sololá	712	San Antonio Palopó	9	San Antonio Palopo	12	Diciembre	2023-12-24T00:00:00	2024-11-08T23:00:00	4	Temperatura máxima	17.6
26795	7	Sololá	712	San Antonio Palopó	9	San Antonio Palopo	12	Diciembre	2023-12-24T00:00:00	2024-11-08T23:00:00	3	Temperatura mínima	16.9
26796	7	Sololá	712	San Antonio Palopó	9	San Antonio Palopo	12	Diciembre	2023-12-24T00:00:00	2024-11-08T23:00:00	5	Humedad	81
26797	7	Sololá	712	San Antonio Palopó	9	San Antonio Palopo	12	Diciembre	2023-12-24T00:00:00	2024-11-08T23:00:00	6	Velocidad del viento	3.2
26798	7	Sololá	712	San Antonio Palopó	9	San Antonio Palopo	12	Diciembre	2023-12-24T00:00:00	2024-11-08T23:00:00	7	Dirección del viento	3.22
26799	7	Sololá	712	San Antonio Palopó	9	San Antonio Palopo	12	Diciembre	2023-12-24T00:00:00	2024-11-08T23:00:00	1	Precipitación	0
26800	7	Sololá	712	San Antonio Palopó	9	San Antonio Palopo	12	Diciembre	2023-12-24T00:00:00	2024-11-08T23:00:00	8	Radiación solar	0
26801	7	Sololá	712	San Antonio Palopó	9	San Antonio Palopo	12	Diciembre	2023-12-25T00:00:00	2024-11-08T00:00:00	2	Temperatura media	16.6
26802	7	Sololá	712	San Antonio Palopó	9	San Antonio Palopo	12	Diciembre	2023-12-25T00:00:00	2024-11-08T00:00:00	4	Temperatura máxima	16.9
26803	7	Sololá	712	San Antonio Palopó	9	San Antonio Palopo	12	Diciembre	2023-12-25T00:00:00	2024-11-08T00:00:00	3	Temperatura mínima	16.6
26804	7	Sololá	712	San Antonio Palopó	9	San Antonio Palopo	12	Diciembre	2023-12-25T00:00:00	2024-11-08T00:00:00	5	Humedad	80
26805	7	Sololá	712	San Antonio Palopó	9	San Antonio Palopo	12	Diciembre	2023-12-25T00:00:00	2024-11-08T00:00:00	6	Velocidad del viento	3.2
26806	7	Sololá	712	San Antonio Palopó	9	San Antonio Palopo	12	Diciembre	2023-12-25T00:00:00	2024-11-08T00:00:00	7	Dirección del viento	3.22
26807	7	Sololá	712	San Antonio Palopó	9	San Antonio Palopo	12	Diciembre	2023-12-25T00:00:00	2024-11-08T00:00:00	1	Precipitación	0
26808	7	Sololá	712	San Antonio Palopó	9	San Antonio Palopo	12	Diciembre	2023-12-25T00:00:00	2024-11-08T00:00:00	8	Radiación solar	0
26809	7	Sololá	712	San Antonio Palopó	9	San Antonio Palopo	12	Diciembre	2023-12-25T00:00:00	2024-11-08T01:00:00	2	Temperatura media	16
26810	7	Sololá	712	San Antonio Palopó	9	San Antonio Palopo	12	Diciembre	2023-12-25T00:00:00	2024-11-08T01:00:00	4	Temperatura máxima	16.6
26811	7	Sololá	712	San Antonio Palopó	9	San Antonio Palopo	12	Diciembre	2023-12-25T00:00:00	2024-11-08T01:00:00	3	Temperatura mínima	16
26812	7	Sololá	712	San Antonio Palopó	9	San Antonio Palopo	12	Diciembre	2023-12-25T00:00:00	2024-11-08T01:00:00	5	Humedad	80
26813	7	Sololá	712	San Antonio Palopó	9	San Antonio Palopo	12	Diciembre	2023-12-25T00:00:00	2024-11-08T01:00:00	6	Velocidad del viento	3.2
26814	7	Sololá	712	San Antonio Palopó	9	San Antonio Palopo	12	Diciembre	2023-12-25T00:00:00	2024-11-08T01:00:00	7	Dirección del viento	3.22
26815	7	Sololá	712	San Antonio Palopó	9	San Antonio Palopo	12	Diciembre	2023-12-25T00:00:00	2024-11-08T01:00:00	1	Precipitación	0
26816	7	Sololá	712	San Antonio Palopó	9	San Antonio Palopo	12	Diciembre	2023-12-25T00:00:00	2024-11-08T01:00:00	8	Radiación solar	0
26817	7	Sololá	712	San Antonio Palopó	9	San Antonio Palopo	12	Diciembre	2023-12-25T00:00:00	2024-11-08T02:00:00	2	Temperatura media	15.8
26818	7	Sololá	712	San Antonio Palopó	9	San Antonio Palopo	12	Diciembre	2023-12-25T00:00:00	2024-11-08T02:00:00	4	Temperatura máxima	16.1
26819	7	Sololá	712	San Antonio Palopó	9	San Antonio Palopo	12	Diciembre	2023-12-25T00:00:00	2024-11-08T02:00:00	3	Temperatura mínima	15.8
26820	7	Sololá	712	San Antonio Palopó	9	San Antonio Palopo	12	Diciembre	2023-12-25T00:00:00	2024-11-08T02:00:00	5	Humedad	80
26821	7	Sololá	712	San Antonio Palopó	9	San Antonio Palopo	12	Diciembre	2023-12-25T00:00:00	2024-11-08T02:00:00	6	Velocidad del viento	3.2
26822	7	Sololá	712	San Antonio Palopó	9	San Antonio Palopo	12	Diciembre	2023-12-25T00:00:00	2024-11-08T02:00:00	7	Dirección del viento	3.22
26823	7	Sololá	712	San Antonio Palopó	9	San Antonio Palopo	12	Diciembre	2023-12-25T00:00:00	2024-11-08T02:00:00	1	Precipitación	0
26824	7	Sololá	712	San Antonio Palopó	9	San Antonio Palopo	12	Diciembre	2023-12-25T00:00:00	2024-11-08T02:00:00	8	Radiación solar	0
26825	7	Sololá	712	San Antonio Palopó	9	San Antonio Palopo	12	Diciembre	2023-12-25T00:00:00	2024-11-08T03:00:00	2	Temperatura media	15.6
26826	7	Sololá	712	San Antonio Palopó	9	San Antonio Palopo	12	Diciembre	2023-12-25T00:00:00	2024-11-08T03:00:00	4	Temperatura máxima	15.8
26827	7	Sololá	712	San Antonio Palopó	9	San Antonio Palopo	12	Diciembre	2023-12-25T00:00:00	2024-11-08T03:00:00	3	Temperatura mínima	15.4
26828	7	Sololá	712	San Antonio Palopó	9	San Antonio Palopo	12	Diciembre	2023-12-25T00:00:00	2024-11-08T03:00:00	5	Humedad	82
26829	7	Sololá	712	San Antonio Palopó	9	San Antonio Palopo	12	Diciembre	2023-12-25T00:00:00	2024-11-08T03:00:00	6	Velocidad del viento	3.2
26830	7	Sololá	712	San Antonio Palopó	9	San Antonio Palopo	12	Diciembre	2023-12-25T00:00:00	2024-11-08T03:00:00	7	Dirección del viento	3.22
26831	7	Sololá	712	San Antonio Palopó	9	San Antonio Palopo	12	Diciembre	2023-12-25T00:00:00	2024-11-08T03:00:00	1	Precipitación	0
26832	7	Sololá	712	San Antonio Palopó	9	San Antonio Palopo	12	Diciembre	2023-12-25T00:00:00	2024-11-08T03:00:00	8	Radiación solar	0
26833	7	Sololá	712	San Antonio Palopó	9	San Antonio Palopo	12	Diciembre	2023-12-25T00:00:00	2024-11-08T04:00:00	2	Temperatura media	16
26834	7	Sololá	712	San Antonio Palopó	9	San Antonio Palopo	12	Diciembre	2023-12-25T00:00:00	2024-11-08T04:00:00	4	Temperatura máxima	16.1
26835	7	Sololá	712	San Antonio Palopó	9	San Antonio Palopo	12	Diciembre	2023-12-25T00:00:00	2024-11-08T04:00:00	3	Temperatura mínima	15.6
26836	7	Sololá	712	San Antonio Palopó	9	San Antonio Palopo	12	Diciembre	2023-12-25T00:00:00	2024-11-08T04:00:00	5	Humedad	81
26837	7	Sololá	712	San Antonio Palopó	9	San Antonio Palopo	12	Diciembre	2023-12-25T00:00:00	2024-11-08T04:00:00	6	Velocidad del viento	3.2
26838	7	Sololá	712	San Antonio Palopó	9	San Antonio Palopo	12	Diciembre	2023-12-25T00:00:00	2024-11-08T04:00:00	7	Dirección del viento	3.22
26839	7	Sololá	712	San Antonio Palopó	9	San Antonio Palopo	12	Diciembre	2023-12-25T00:00:00	2024-11-08T04:00:00	1	Precipitación	0
26840	7	Sololá	712	San Antonio Palopó	9	San Antonio Palopo	12	Diciembre	2023-12-25T00:00:00	2024-11-08T04:00:00	8	Radiación solar	0
26841	7	Sololá	712	San Antonio Palopó	9	San Antonio Palopo	12	Diciembre	2023-12-25T00:00:00	2024-11-08T05:00:00	2	Temperatura media	16.6
26842	7	Sololá	712	San Antonio Palopó	9	San Antonio Palopo	12	Diciembre	2023-12-25T00:00:00	2024-11-08T05:00:00	4	Temperatura máxima	16.6
26843	7	Sololá	712	San Antonio Palopó	9	San Antonio Palopo	12	Diciembre	2023-12-25T00:00:00	2024-11-08T05:00:00	3	Temperatura mínima	16
26844	7	Sololá	712	San Antonio Palopó	9	San Antonio Palopo	12	Diciembre	2023-12-25T00:00:00	2024-11-08T05:00:00	5	Humedad	81
26845	7	Sololá	712	San Antonio Palopó	9	San Antonio Palopo	12	Diciembre	2023-12-25T00:00:00	2024-11-08T05:00:00	6	Velocidad del viento	1.6
26846	7	Sololá	712	San Antonio Palopó	9	San Antonio Palopo	12	Diciembre	2023-12-25T00:00:00	2024-11-08T05:00:00	7	Dirección del viento	1.61
26847	7	Sololá	712	San Antonio Palopó	9	San Antonio Palopo	12	Diciembre	2023-12-25T00:00:00	2024-11-08T05:00:00	1	Precipitación	0
26848	7	Sololá	712	San Antonio Palopó	9	San Antonio Palopo	12	Diciembre	2023-12-25T00:00:00	2024-11-08T05:00:00	8	Radiación solar	0
26849	7	Sololá	712	San Antonio Palopó	9	San Antonio Palopo	12	Diciembre	2023-12-25T00:00:00	2024-11-08T06:00:00	2	Temperatura media	16.7
26850	7	Sololá	712	San Antonio Palopó	9	San Antonio Palopo	12	Diciembre	2023-12-25T00:00:00	2024-11-08T06:00:00	4	Temperatura máxima	16.8
26851	7	Sololá	712	San Antonio Palopó	9	San Antonio Palopo	12	Diciembre	2023-12-25T00:00:00	2024-11-08T06:00:00	3	Temperatura mínima	16.6
26852	7	Sololá	712	San Antonio Palopó	9	San Antonio Palopo	12	Diciembre	2023-12-25T00:00:00	2024-11-08T06:00:00	5	Humedad	82
26853	7	Sololá	712	San Antonio Palopó	9	San Antonio Palopo	12	Diciembre	2023-12-25T00:00:00	2024-11-08T06:00:00	6	Velocidad del viento	0
26854	7	Sololá	712	San Antonio Palopó	9	San Antonio Palopo	12	Diciembre	2023-12-25T00:00:00	2024-11-08T06:00:00	7	Dirección del viento	0
26855	7	Sololá	712	San Antonio Palopó	9	San Antonio Palopo	12	Diciembre	2023-12-25T00:00:00	2024-11-08T06:00:00	1	Precipitación	0
26856	7	Sololá	712	San Antonio Palopó	9	San Antonio Palopo	12	Diciembre	2023-12-25T00:00:00	2024-11-08T06:00:00	8	Radiación solar	0
26857	7	Sololá	712	San Antonio Palopó	9	San Antonio Palopo	12	Diciembre	2023-12-25T00:00:00	2024-11-08T07:00:00	2	Temperatura media	16.3
26858	7	Sololá	712	San Antonio Palopó	9	San Antonio Palopo	12	Diciembre	2023-12-25T00:00:00	2024-11-08T07:00:00	4	Temperatura máxima	16.7
26859	7	Sololá	712	San Antonio Palopó	9	San Antonio Palopo	12	Diciembre	2023-12-25T00:00:00	2024-11-08T07:00:00	3	Temperatura mínima	15.9
26860	7	Sololá	712	San Antonio Palopó	9	San Antonio Palopo	12	Diciembre	2023-12-25T00:00:00	2024-11-08T07:00:00	5	Humedad	82
26861	7	Sololá	712	San Antonio Palopó	9	San Antonio Palopo	12	Diciembre	2023-12-25T00:00:00	2024-11-08T07:00:00	6	Velocidad del viento	1.6
26862	7	Sololá	712	San Antonio Palopó	9	San Antonio Palopo	12	Diciembre	2023-12-25T00:00:00	2024-11-08T07:00:00	7	Dirección del viento	1.61
26863	7	Sololá	712	San Antonio Palopó	9	San Antonio Palopo	12	Diciembre	2023-12-25T00:00:00	2024-11-08T07:00:00	1	Precipitación	0
26864	7	Sololá	712	San Antonio Palopó	9	San Antonio Palopo	12	Diciembre	2023-12-25T00:00:00	2024-11-08T07:00:00	8	Radiación solar	5
26865	7	Sololá	712	San Antonio Palopó	9	San Antonio Palopo	12	Diciembre	2023-12-25T00:00:00	2024-11-08T08:00:00	2	Temperatura media	17.7
26866	7	Sololá	712	San Antonio Palopó	9	San Antonio Palopo	12	Diciembre	2023-12-25T00:00:00	2024-11-08T08:00:00	4	Temperatura máxima	17.7
26867	7	Sololá	712	San Antonio Palopó	9	San Antonio Palopo	12	Diciembre	2023-12-25T00:00:00	2024-11-08T08:00:00	3	Temperatura mínima	16.3
26868	7	Sololá	712	San Antonio Palopó	9	San Antonio Palopo	12	Diciembre	2023-12-25T00:00:00	2024-11-08T08:00:00	5	Humedad	81
26869	7	Sololá	712	San Antonio Palopó	9	San Antonio Palopo	12	Diciembre	2023-12-25T00:00:00	2024-11-08T08:00:00	6	Velocidad del viento	0
26870	7	Sololá	712	San Antonio Palopó	9	San Antonio Palopo	12	Diciembre	2023-12-25T00:00:00	2024-11-08T08:00:00	7	Dirección del viento	0
26871	7	Sololá	712	San Antonio Palopó	9	San Antonio Palopo	12	Diciembre	2023-12-25T00:00:00	2024-11-08T08:00:00	1	Precipitación	0
26872	7	Sololá	712	San Antonio Palopó	9	San Antonio Palopo	12	Diciembre	2023-12-25T00:00:00	2024-11-08T08:00:00	8	Radiación solar	74
26873	7	Sololá	712	San Antonio Palopó	9	San Antonio Palopo	12	Diciembre	2023-12-25T00:00:00	2024-11-08T09:00:00	2	Temperatura media	17.2
26874	7	Sololá	712	San Antonio Palopó	9	San Antonio Palopo	12	Diciembre	2023-12-25T00:00:00	2024-11-08T09:00:00	4	Temperatura máxima	17.8
26875	7	Sololá	712	San Antonio Palopó	9	San Antonio Palopo	12	Diciembre	2023-12-25T00:00:00	2024-11-08T09:00:00	3	Temperatura mínima	17.2
26876	7	Sololá	712	San Antonio Palopó	9	San Antonio Palopo	12	Diciembre	2023-12-25T00:00:00	2024-11-08T09:00:00	5	Humedad	82
26877	7	Sololá	712	San Antonio Palopó	9	San Antonio Palopo	12	Diciembre	2023-12-25T00:00:00	2024-11-08T09:00:00	6	Velocidad del viento	0
26878	7	Sololá	712	San Antonio Palopó	9	San Antonio Palopo	12	Diciembre	2023-12-25T00:00:00	2024-11-08T09:00:00	7	Dirección del viento	0
26879	7	Sololá	712	San Antonio Palopó	9	San Antonio Palopo	12	Diciembre	2023-12-25T00:00:00	2024-11-08T09:00:00	1	Precipitación	0
26880	7	Sololá	712	San Antonio Palopó	9	San Antonio Palopo	12	Diciembre	2023-12-25T00:00:00	2024-11-08T09:00:00	8	Radiación solar	56
26881	7	Sololá	712	San Antonio Palopó	9	San Antonio Palopo	12	Diciembre	2023-12-25T00:00:00	2024-11-08T10:00:00	2	Temperatura media	19.7
26882	7	Sololá	712	San Antonio Palopó	9	San Antonio Palopo	12	Diciembre	2023-12-25T00:00:00	2024-11-08T10:00:00	4	Temperatura máxima	19.9
26883	7	Sololá	712	San Antonio Palopó	9	San Antonio Palopo	12	Diciembre	2023-12-25T00:00:00	2024-11-08T10:00:00	3	Temperatura mínima	17.1
26884	7	Sololá	712	San Antonio Palopó	9	San Antonio Palopo	12	Diciembre	2023-12-25T00:00:00	2024-11-08T10:00:00	5	Humedad	76
26885	7	Sololá	712	San Antonio Palopó	9	San Antonio Palopo	12	Diciembre	2023-12-25T00:00:00	2024-11-08T10:00:00	6	Velocidad del viento	1.6
26886	7	Sololá	712	San Antonio Palopó	9	San Antonio Palopo	12	Diciembre	2023-12-25T00:00:00	2024-11-08T10:00:00	7	Dirección del viento	1.61
26887	7	Sololá	712	San Antonio Palopó	9	San Antonio Palopo	12	Diciembre	2023-12-25T00:00:00	2024-11-08T10:00:00	1	Precipitación	0
26888	7	Sololá	712	San Antonio Palopó	9	San Antonio Palopo	12	Diciembre	2023-12-25T00:00:00	2024-11-08T10:00:00	8	Radiación solar	439
26889	7	Sololá	712	San Antonio Palopó	9	San Antonio Palopo	12	Diciembre	2023-12-25T00:00:00	2024-11-08T11:00:00	2	Temperatura media	21.1
26890	7	Sololá	712	San Antonio Palopó	9	San Antonio Palopo	12	Diciembre	2023-12-25T00:00:00	2024-11-08T11:00:00	4	Temperatura máxima	21.1
26891	7	Sololá	712	San Antonio Palopó	9	San Antonio Palopo	12	Diciembre	2023-12-25T00:00:00	2024-11-08T11:00:00	3	Temperatura mínima	19.2
26892	7	Sololá	712	San Antonio Palopó	9	San Antonio Palopo	12	Diciembre	2023-12-25T00:00:00	2024-11-08T11:00:00	5	Humedad	73
26893	7	Sololá	712	San Antonio Palopó	9	San Antonio Palopo	12	Diciembre	2023-12-25T00:00:00	2024-11-08T11:00:00	6	Velocidad del viento	1.6
26894	7	Sololá	712	San Antonio Palopó	9	San Antonio Palopo	12	Diciembre	2023-12-25T00:00:00	2024-11-08T11:00:00	7	Dirección del viento	1.61
26895	7	Sololá	712	San Antonio Palopó	9	San Antonio Palopo	12	Diciembre	2023-12-25T00:00:00	2024-11-08T11:00:00	1	Precipitación	0
26896	7	Sololá	712	San Antonio Palopó	9	San Antonio Palopo	12	Diciembre	2023-12-25T00:00:00	2024-11-08T11:00:00	8	Radiación solar	430
26897	7	Sololá	712	San Antonio Palopó	9	San Antonio Palopo	12	Diciembre	2023-12-25T00:00:00	2024-11-08T12:00:00	2	Temperatura media	21.9
26898	7	Sololá	712	San Antonio Palopó	9	San Antonio Palopo	12	Diciembre	2023-12-25T00:00:00	2024-11-08T12:00:00	4	Temperatura máxima	21.9
26899	7	Sololá	712	San Antonio Palopó	9	San Antonio Palopo	12	Diciembre	2023-12-25T00:00:00	2024-11-08T12:00:00	3	Temperatura mínima	20.3
26900	7	Sololá	712	San Antonio Palopó	9	San Antonio Palopo	12	Diciembre	2023-12-25T00:00:00	2024-11-08T12:00:00	5	Humedad	73
26901	7	Sololá	712	San Antonio Palopó	9	San Antonio Palopo	12	Diciembre	2023-12-25T00:00:00	2024-11-08T12:00:00	6	Velocidad del viento	3.2
26902	7	Sololá	712	San Antonio Palopó	9	San Antonio Palopo	12	Diciembre	2023-12-25T00:00:00	2024-11-08T12:00:00	7	Dirección del viento	3.22
26903	7	Sololá	712	San Antonio Palopó	9	San Antonio Palopo	12	Diciembre	2023-12-25T00:00:00	2024-11-08T12:00:00	1	Precipitación	0
26904	7	Sololá	712	San Antonio Palopó	9	San Antonio Palopo	12	Diciembre	2023-12-25T00:00:00	2024-11-08T12:00:00	8	Radiación solar	450
26905	7	Sololá	712	San Antonio Palopó	9	San Antonio Palopo	12	Diciembre	2023-12-25T00:00:00	2024-11-08T13:00:00	2	Temperatura media	23.4
26906	7	Sololá	712	San Antonio Palopó	9	San Antonio Palopo	12	Diciembre	2023-12-25T00:00:00	2024-11-08T13:00:00	4	Temperatura máxima	23.4
26907	7	Sololá	712	San Antonio Palopó	9	San Antonio Palopo	12	Diciembre	2023-12-25T00:00:00	2024-11-08T13:00:00	3	Temperatura mínima	21.9
26908	7	Sololá	712	San Antonio Palopó	9	San Antonio Palopo	12	Diciembre	2023-12-25T00:00:00	2024-11-08T13:00:00	5	Humedad	68
26909	7	Sololá	712	San Antonio Palopó	9	San Antonio Palopo	12	Diciembre	2023-12-25T00:00:00	2024-11-08T13:00:00	6	Velocidad del viento	4.8
26910	7	Sololá	712	San Antonio Palopó	9	San Antonio Palopo	12	Diciembre	2023-12-25T00:00:00	2024-11-08T13:00:00	7	Dirección del viento	4.83
26911	7	Sololá	712	San Antonio Palopó	9	San Antonio Palopo	12	Diciembre	2023-12-25T00:00:00	2024-11-08T13:00:00	1	Precipitación	0
26912	7	Sololá	712	San Antonio Palopó	9	San Antonio Palopo	12	Diciembre	2023-12-25T00:00:00	2024-11-08T13:00:00	8	Radiación solar	763
26913	7	Sololá	712	San Antonio Palopó	9	San Antonio Palopo	12	Diciembre	2023-12-25T00:00:00	2024-11-08T14:00:00	2	Temperatura media	22.7
26914	7	Sololá	712	San Antonio Palopó	9	San Antonio Palopo	12	Diciembre	2023-12-25T00:00:00	2024-11-08T14:00:00	4	Temperatura máxima	23.3
26915	7	Sololá	712	San Antonio Palopó	9	San Antonio Palopo	12	Diciembre	2023-12-25T00:00:00	2024-11-08T14:00:00	3	Temperatura mínima	22.4
26916	7	Sololá	712	San Antonio Palopó	9	San Antonio Palopo	12	Diciembre	2023-12-25T00:00:00	2024-11-08T14:00:00	5	Humedad	68
26917	7	Sololá	712	San Antonio Palopó	9	San Antonio Palopo	12	Diciembre	2023-12-25T00:00:00	2024-11-08T14:00:00	6	Velocidad del viento	9.7
26918	7	Sololá	712	San Antonio Palopó	9	San Antonio Palopo	12	Diciembre	2023-12-25T00:00:00	2024-11-08T14:00:00	7	Dirección del viento	9.66
26919	7	Sololá	712	San Antonio Palopó	9	San Antonio Palopo	12	Diciembre	2023-12-25T00:00:00	2024-11-08T14:00:00	1	Precipitación	0
26920	7	Sololá	712	San Antonio Palopó	9	San Antonio Palopo	12	Diciembre	2023-12-25T00:00:00	2024-11-08T14:00:00	8	Radiación solar	698
26921	7	Sololá	712	San Antonio Palopó	9	San Antonio Palopo	12	Diciembre	2023-12-25T00:00:00	2024-11-08T15:00:00	2	Temperatura media	22.5
26922	7	Sololá	712	San Antonio Palopó	9	San Antonio Palopo	12	Diciembre	2023-12-25T00:00:00	2024-11-08T15:00:00	4	Temperatura máxima	22.9
26923	7	Sololá	712	San Antonio Palopó	9	San Antonio Palopo	12	Diciembre	2023-12-25T00:00:00	2024-11-08T15:00:00	3	Temperatura mínima	22.4
26924	7	Sololá	712	San Antonio Palopó	9	San Antonio Palopo	12	Diciembre	2023-12-25T00:00:00	2024-11-08T15:00:00	5	Humedad	70
26925	7	Sololá	712	San Antonio Palopó	9	San Antonio Palopo	12	Diciembre	2023-12-25T00:00:00	2024-11-08T15:00:00	6	Velocidad del viento	9.7
26926	7	Sololá	712	San Antonio Palopó	9	San Antonio Palopo	12	Diciembre	2023-12-25T00:00:00	2024-11-08T15:00:00	7	Dirección del viento	9.66
26927	7	Sololá	712	San Antonio Palopó	9	San Antonio Palopo	12	Diciembre	2023-12-25T00:00:00	2024-11-08T15:00:00	1	Precipitación	0
26928	7	Sololá	712	San Antonio Palopó	9	San Antonio Palopo	12	Diciembre	2023-12-25T00:00:00	2024-11-08T15:00:00	8	Radiación solar	577
26929	7	Sololá	712	San Antonio Palopó	9	San Antonio Palopo	12	Diciembre	2023-12-25T00:00:00	2024-11-08T16:00:00	2	Temperatura media	21.5
26930	7	Sololá	712	San Antonio Palopó	9	San Antonio Palopo	12	Diciembre	2023-12-25T00:00:00	2024-11-08T16:00:00	4	Temperatura máxima	22.7
26931	7	Sololá	712	San Antonio Palopó	9	San Antonio Palopo	12	Diciembre	2023-12-25T00:00:00	2024-11-08T16:00:00	3	Temperatura mínima	21.4
26932	7	Sololá	712	San Antonio Palopó	9	San Antonio Palopo	12	Diciembre	2023-12-25T00:00:00	2024-11-08T16:00:00	5	Humedad	74
26933	7	Sololá	712	San Antonio Palopó	9	San Antonio Palopo	12	Diciembre	2023-12-25T00:00:00	2024-11-08T16:00:00	6	Velocidad del viento	9.7
26934	7	Sololá	712	San Antonio Palopó	9	San Antonio Palopo	12	Diciembre	2023-12-25T00:00:00	2024-11-08T16:00:00	7	Dirección del viento	9.66
26935	7	Sololá	712	San Antonio Palopó	9	San Antonio Palopo	12	Diciembre	2023-12-25T00:00:00	2024-11-08T16:00:00	1	Precipitación	0
26936	7	Sololá	712	San Antonio Palopó	9	San Antonio Palopo	12	Diciembre	2023-12-25T00:00:00	2024-11-08T16:00:00	8	Radiación solar	349
26937	7	Sololá	712	San Antonio Palopó	9	San Antonio Palopo	12	Diciembre	2023-12-25T00:00:00	2024-11-08T17:00:00	2	Temperatura media	20.8
26938	7	Sololá	712	San Antonio Palopó	9	San Antonio Palopo	12	Diciembre	2023-12-25T00:00:00	2024-11-08T17:00:00	4	Temperatura máxima	22.2
26939	7	Sololá	712	San Antonio Palopó	9	San Antonio Palopo	12	Diciembre	2023-12-25T00:00:00	2024-11-08T17:00:00	3	Temperatura mínima	20.8
26940	7	Sololá	712	San Antonio Palopó	9	San Antonio Palopo	12	Diciembre	2023-12-25T00:00:00	2024-11-08T17:00:00	5	Humedad	75
26941	7	Sololá	712	San Antonio Palopó	9	San Antonio Palopo	12	Diciembre	2023-12-25T00:00:00	2024-11-08T17:00:00	6	Velocidad del viento	6.4
26942	7	Sololá	712	San Antonio Palopó	9	San Antonio Palopo	12	Diciembre	2023-12-25T00:00:00	2024-11-08T17:00:00	7	Dirección del viento	6.44
26943	7	Sololá	712	San Antonio Palopó	9	San Antonio Palopo	12	Diciembre	2023-12-25T00:00:00	2024-11-08T17:00:00	1	Precipitación	0
26944	7	Sololá	712	San Antonio Palopó	9	San Antonio Palopo	12	Diciembre	2023-12-25T00:00:00	2024-11-08T17:00:00	8	Radiación solar	144
26945	7	Sololá	712	San Antonio Palopó	9	San Antonio Palopo	12	Diciembre	2023-12-25T00:00:00	2024-11-08T18:00:00	2	Temperatura media	19.9
26946	7	Sololá	712	San Antonio Palopó	9	San Antonio Palopo	12	Diciembre	2023-12-25T00:00:00	2024-11-08T18:00:00	4	Temperatura máxima	20.9
26947	7	Sololá	712	San Antonio Palopó	9	San Antonio Palopo	12	Diciembre	2023-12-25T00:00:00	2024-11-08T18:00:00	3	Temperatura mínima	19.9
26948	7	Sololá	712	San Antonio Palopó	9	San Antonio Palopo	12	Diciembre	2023-12-25T00:00:00	2024-11-08T18:00:00	5	Humedad	79
26949	7	Sololá	712	San Antonio Palopó	9	San Antonio Palopo	12	Diciembre	2023-12-25T00:00:00	2024-11-08T18:00:00	6	Velocidad del viento	3.2
26950	7	Sololá	712	San Antonio Palopó	9	San Antonio Palopo	12	Diciembre	2023-12-25T00:00:00	2024-11-08T18:00:00	7	Dirección del viento	3.22
26951	7	Sololá	712	San Antonio Palopó	9	San Antonio Palopo	12	Diciembre	2023-12-25T00:00:00	2024-11-08T18:00:00	1	Precipitación	0
26952	7	Sololá	712	San Antonio Palopó	9	San Antonio Palopo	12	Diciembre	2023-12-25T00:00:00	2024-11-08T18:00:00	8	Radiación solar	21
26953	7	Sololá	712	San Antonio Palopó	9	San Antonio Palopo	12	Diciembre	2023-12-25T00:00:00	2024-11-08T19:00:00	2	Temperatura media	19.2
26954	7	Sololá	712	San Antonio Palopó	9	San Antonio Palopo	12	Diciembre	2023-12-25T00:00:00	2024-11-08T19:00:00	4	Temperatura máxima	19.9
26955	7	Sololá	712	San Antonio Palopó	9	San Antonio Palopo	12	Diciembre	2023-12-25T00:00:00	2024-11-08T19:00:00	3	Temperatura mínima	19.2
26956	7	Sololá	712	San Antonio Palopó	9	San Antonio Palopo	12	Diciembre	2023-12-25T00:00:00	2024-11-08T19:00:00	5	Humedad	79
26957	7	Sololá	712	San Antonio Palopó	9	San Antonio Palopo	12	Diciembre	2023-12-25T00:00:00	2024-11-08T19:00:00	6	Velocidad del viento	1.6
26958	7	Sololá	712	San Antonio Palopó	9	San Antonio Palopo	12	Diciembre	2023-12-25T00:00:00	2024-11-08T19:00:00	7	Dirección del viento	1.61
26959	7	Sololá	712	San Antonio Palopó	9	San Antonio Palopo	12	Diciembre	2023-12-25T00:00:00	2024-11-08T19:00:00	1	Precipitación	0
26960	7	Sololá	712	San Antonio Palopó	9	San Antonio Palopo	12	Diciembre	2023-12-25T00:00:00	2024-11-08T19:00:00	8	Radiación solar	0
26961	7	Sololá	712	San Antonio Palopó	9	San Antonio Palopo	12	Diciembre	2023-12-25T00:00:00	2024-11-08T20:00:00	2	Temperatura media	18.1
26962	7	Sololá	712	San Antonio Palopó	9	San Antonio Palopo	12	Diciembre	2023-12-25T00:00:00	2024-11-08T20:00:00	4	Temperatura máxima	19.2
26963	7	Sololá	712	San Antonio Palopó	9	San Antonio Palopo	12	Diciembre	2023-12-25T00:00:00	2024-11-08T20:00:00	3	Temperatura mínima	18.1
26964	7	Sololá	712	San Antonio Palopó	9	San Antonio Palopo	12	Diciembre	2023-12-25T00:00:00	2024-11-08T20:00:00	5	Humedad	80
26965	7	Sololá	712	San Antonio Palopó	9	San Antonio Palopo	12	Diciembre	2023-12-25T00:00:00	2024-11-08T20:00:00	6	Velocidad del viento	3.2
26966	7	Sololá	712	San Antonio Palopó	9	San Antonio Palopo	12	Diciembre	2023-12-25T00:00:00	2024-11-08T20:00:00	7	Dirección del viento	3.22
26967	7	Sololá	712	San Antonio Palopó	9	San Antonio Palopo	12	Diciembre	2023-12-25T00:00:00	2024-11-08T20:00:00	1	Precipitación	0
26968	7	Sololá	712	San Antonio Palopó	9	San Antonio Palopo	12	Diciembre	2023-12-25T00:00:00	2024-11-08T20:00:00	8	Radiación solar	0
26969	7	Sololá	712	San Antonio Palopó	9	San Antonio Palopo	12	Diciembre	2023-12-25T00:00:00	2024-11-08T21:00:00	2	Temperatura media	18.4
26970	7	Sololá	712	San Antonio Palopó	9	San Antonio Palopo	12	Diciembre	2023-12-25T00:00:00	2024-11-08T21:00:00	4	Temperatura máxima	18.4
26971	7	Sololá	712	San Antonio Palopó	9	San Antonio Palopo	12	Diciembre	2023-12-25T00:00:00	2024-11-08T21:00:00	3	Temperatura mínima	18.1
26972	7	Sololá	712	San Antonio Palopó	9	San Antonio Palopo	12	Diciembre	2023-12-25T00:00:00	2024-11-08T21:00:00	5	Humedad	77
26973	7	Sololá	712	San Antonio Palopó	9	San Antonio Palopo	12	Diciembre	2023-12-25T00:00:00	2024-11-08T21:00:00	6	Velocidad del viento	1.6
26974	7	Sololá	712	San Antonio Palopó	9	San Antonio Palopo	12	Diciembre	2023-12-25T00:00:00	2024-11-08T21:00:00	7	Dirección del viento	1.61
26975	7	Sololá	712	San Antonio Palopó	9	San Antonio Palopo	12	Diciembre	2023-12-25T00:00:00	2024-11-08T21:00:00	1	Precipitación	0
26976	7	Sololá	712	San Antonio Palopó	9	San Antonio Palopo	12	Diciembre	2023-12-25T00:00:00	2024-11-08T21:00:00	8	Radiación solar	0
26977	7	Sololá	712	San Antonio Palopó	9	San Antonio Palopo	12	Diciembre	2023-12-25T00:00:00	2024-11-08T22:00:00	2	Temperatura media	18.2
26978	7	Sololá	712	San Antonio Palopó	9	San Antonio Palopo	12	Diciembre	2023-12-25T00:00:00	2024-11-08T22:00:00	4	Temperatura máxima	18.4
26979	7	Sololá	712	San Antonio Palopó	9	San Antonio Palopo	12	Diciembre	2023-12-25T00:00:00	2024-11-08T22:00:00	3	Temperatura mínima	18.2
26980	7	Sololá	712	San Antonio Palopó	9	San Antonio Palopo	12	Diciembre	2023-12-25T00:00:00	2024-11-08T22:00:00	5	Humedad	74
26981	7	Sololá	712	San Antonio Palopó	9	San Antonio Palopo	12	Diciembre	2023-12-25T00:00:00	2024-11-08T22:00:00	6	Velocidad del viento	3.2
26982	7	Sololá	712	San Antonio Palopó	9	San Antonio Palopo	12	Diciembre	2023-12-25T00:00:00	2024-11-08T22:00:00	7	Dirección del viento	3.22
26983	7	Sololá	712	San Antonio Palopó	9	San Antonio Palopo	12	Diciembre	2023-12-25T00:00:00	2024-11-08T22:00:00	1	Precipitación	0
26984	7	Sololá	712	San Antonio Palopó	9	San Antonio Palopo	12	Diciembre	2023-12-25T00:00:00	2024-11-08T22:00:00	8	Radiación solar	0
26985	7	Sololá	712	San Antonio Palopó	9	San Antonio Palopo	12	Diciembre	2023-12-25T00:00:00	2024-11-08T23:00:00	2	Temperatura media	18.4
26986	7	Sololá	712	San Antonio Palopó	9	San Antonio Palopo	12	Diciembre	2023-12-25T00:00:00	2024-11-08T23:00:00	4	Temperatura máxima	18.5
26987	7	Sololá	712	San Antonio Palopó	9	San Antonio Palopo	12	Diciembre	2023-12-25T00:00:00	2024-11-08T23:00:00	3	Temperatura mínima	18.1
26988	7	Sololá	712	San Antonio Palopó	9	San Antonio Palopo	12	Diciembre	2023-12-25T00:00:00	2024-11-08T23:00:00	5	Humedad	72
26989	7	Sololá	712	San Antonio Palopó	9	San Antonio Palopo	12	Diciembre	2023-12-25T00:00:00	2024-11-08T23:00:00	6	Velocidad del viento	11.3
26990	7	Sololá	712	San Antonio Palopó	9	San Antonio Palopo	12	Diciembre	2023-12-25T00:00:00	2024-11-08T23:00:00	7	Dirección del viento	11.27
26991	7	Sololá	712	San Antonio Palopó	9	San Antonio Palopo	12	Diciembre	2023-12-25T00:00:00	2024-11-08T23:00:00	1	Precipitación	0
26992	7	Sololá	712	San Antonio Palopó	9	San Antonio Palopo	12	Diciembre	2023-12-25T00:00:00	2024-11-08T23:00:00	8	Radiación solar	0
26993	7	Sololá	712	San Antonio Palopó	9	San Antonio Palopo	12	Diciembre	2023-12-26T00:00:00	2024-11-08T00:00:00	2	Temperatura media	18.4
26994	7	Sololá	712	San Antonio Palopó	9	San Antonio Palopo	12	Diciembre	2023-12-26T00:00:00	2024-11-08T00:00:00	4	Temperatura máxima	18.7
26995	7	Sololá	712	San Antonio Palopó	9	San Antonio Palopo	12	Diciembre	2023-12-26T00:00:00	2024-11-08T00:00:00	3	Temperatura mínima	18.4
26996	7	Sololá	712	San Antonio Palopó	9	San Antonio Palopo	12	Diciembre	2023-12-26T00:00:00	2024-11-08T00:00:00	5	Humedad	77
26997	7	Sololá	712	San Antonio Palopó	9	San Antonio Palopo	12	Diciembre	2023-12-26T00:00:00	2024-11-08T00:00:00	6	Velocidad del viento	12.9
26998	7	Sololá	712	San Antonio Palopó	9	San Antonio Palopo	12	Diciembre	2023-12-26T00:00:00	2024-11-08T00:00:00	7	Dirección del viento	12.87
26999	7	Sololá	712	San Antonio Palopó	9	San Antonio Palopo	12	Diciembre	2023-12-26T00:00:00	2024-11-08T00:00:00	1	Precipitación	0
27000	7	Sololá	712	San Antonio Palopó	9	San Antonio Palopo	12	Diciembre	2023-12-26T00:00:00	2024-11-08T00:00:00	8	Radiación solar	0
27001	7	Sololá	712	San Antonio Palopó	9	San Antonio Palopo	12	Diciembre	2023-12-26T00:00:00	2024-11-08T01:00:00	2	Temperatura media	18.4
27002	7	Sololá	712	San Antonio Palopó	9	San Antonio Palopo	12	Diciembre	2023-12-26T00:00:00	2024-11-08T01:00:00	4	Temperatura máxima	18.6
27003	7	Sololá	712	San Antonio Palopó	9	San Antonio Palopo	12	Diciembre	2023-12-26T00:00:00	2024-11-08T01:00:00	3	Temperatura mínima	18.3
27004	7	Sololá	712	San Antonio Palopó	9	San Antonio Palopo	12	Diciembre	2023-12-26T00:00:00	2024-11-08T01:00:00	5	Humedad	74
27005	7	Sololá	712	San Antonio Palopó	9	San Antonio Palopo	12	Diciembre	2023-12-26T00:00:00	2024-11-08T01:00:00	6	Velocidad del viento	8
27006	7	Sololá	712	San Antonio Palopó	9	San Antonio Palopo	12	Diciembre	2023-12-26T00:00:00	2024-11-08T01:00:00	7	Dirección del viento	8.05
27007	7	Sololá	712	San Antonio Palopó	9	San Antonio Palopo	12	Diciembre	2023-12-26T00:00:00	2024-11-08T01:00:00	1	Precipitación	0
27008	7	Sololá	712	San Antonio Palopó	9	San Antonio Palopo	12	Diciembre	2023-12-26T00:00:00	2024-11-08T01:00:00	8	Radiación solar	0
27009	7	Sololá	712	San Antonio Palopó	9	San Antonio Palopo	12	Diciembre	2023-12-26T00:00:00	2024-11-08T02:00:00	2	Temperatura media	18.2
27010	7	Sololá	712	San Antonio Palopó	9	San Antonio Palopo	12	Diciembre	2023-12-26T00:00:00	2024-11-08T02:00:00	4	Temperatura máxima	18.4
27011	7	Sololá	712	San Antonio Palopó	9	San Antonio Palopo	12	Diciembre	2023-12-26T00:00:00	2024-11-08T02:00:00	3	Temperatura mínima	18.2
27012	7	Sololá	712	San Antonio Palopó	9	San Antonio Palopo	12	Diciembre	2023-12-26T00:00:00	2024-11-08T02:00:00	5	Humedad	75
27013	7	Sololá	712	San Antonio Palopó	9	San Antonio Palopo	12	Diciembre	2023-12-26T00:00:00	2024-11-08T02:00:00	6	Velocidad del viento	9.7
27014	7	Sololá	712	San Antonio Palopó	9	San Antonio Palopo	12	Diciembre	2023-12-26T00:00:00	2024-11-08T02:00:00	7	Dirección del viento	9.66
27015	7	Sololá	712	San Antonio Palopó	9	San Antonio Palopo	12	Diciembre	2023-12-26T00:00:00	2024-11-08T02:00:00	1	Precipitación	0
27016	7	Sololá	712	San Antonio Palopó	9	San Antonio Palopo	12	Diciembre	2023-12-26T00:00:00	2024-11-08T02:00:00	8	Radiación solar	0
27017	7	Sololá	712	San Antonio Palopó	9	San Antonio Palopo	12	Diciembre	2023-12-26T00:00:00	2024-11-08T03:00:00	2	Temperatura media	18
27018	7	Sololá	712	San Antonio Palopó	9	San Antonio Palopo	12	Diciembre	2023-12-26T00:00:00	2024-11-08T03:00:00	4	Temperatura máxima	18.2
27019	7	Sololá	712	San Antonio Palopó	9	San Antonio Palopo	12	Diciembre	2023-12-26T00:00:00	2024-11-08T03:00:00	3	Temperatura mínima	18
27020	7	Sololá	712	San Antonio Palopó	9	San Antonio Palopo	12	Diciembre	2023-12-26T00:00:00	2024-11-08T03:00:00	5	Humedad	75
27021	7	Sololá	712	San Antonio Palopó	9	San Antonio Palopo	12	Diciembre	2023-12-26T00:00:00	2024-11-08T03:00:00	6	Velocidad del viento	4.8
27022	7	Sololá	712	San Antonio Palopó	9	San Antonio Palopo	12	Diciembre	2023-12-26T00:00:00	2024-11-08T03:00:00	7	Dirección del viento	4.83
27023	7	Sololá	712	San Antonio Palopó	9	San Antonio Palopo	12	Diciembre	2023-12-26T00:00:00	2024-11-08T03:00:00	1	Precipitación	0
27024	7	Sololá	712	San Antonio Palopó	9	San Antonio Palopo	12	Diciembre	2023-12-26T00:00:00	2024-11-08T03:00:00	8	Radiación solar	0
27025	7	Sololá	712	San Antonio Palopó	9	San Antonio Palopo	12	Diciembre	2023-12-26T00:00:00	2024-11-08T04:00:00	2	Temperatura media	17.4
27026	7	Sololá	712	San Antonio Palopó	9	San Antonio Palopo	12	Diciembre	2023-12-26T00:00:00	2024-11-08T04:00:00	4	Temperatura máxima	18.1
27027	7	Sololá	712	San Antonio Palopó	9	San Antonio Palopo	12	Diciembre	2023-12-26T00:00:00	2024-11-08T04:00:00	3	Temperatura mínima	17.3
27028	7	Sololá	712	San Antonio Palopó	9	San Antonio Palopo	12	Diciembre	2023-12-26T00:00:00	2024-11-08T04:00:00	5	Humedad	76
27029	7	Sololá	712	San Antonio Palopó	9	San Antonio Palopo	12	Diciembre	2023-12-26T00:00:00	2024-11-08T04:00:00	6	Velocidad del viento	4.8
27030	7	Sololá	712	San Antonio Palopó	9	San Antonio Palopo	12	Diciembre	2023-12-26T00:00:00	2024-11-08T04:00:00	7	Dirección del viento	4.83
27031	7	Sololá	712	San Antonio Palopó	9	San Antonio Palopo	12	Diciembre	2023-12-26T00:00:00	2024-11-08T04:00:00	1	Precipitación	0
27032	7	Sololá	712	San Antonio Palopó	9	San Antonio Palopo	12	Diciembre	2023-12-26T00:00:00	2024-11-08T04:00:00	8	Radiación solar	0
27033	7	Sololá	712	San Antonio Palopó	9	San Antonio Palopo	12	Diciembre	2023-12-26T00:00:00	2024-11-08T05:00:00	2	Temperatura media	17.4
27034	7	Sololá	712	San Antonio Palopó	9	San Antonio Palopo	12	Diciembre	2023-12-26T00:00:00	2024-11-08T05:00:00	4	Temperatura máxima	17.6
27035	7	Sololá	712	San Antonio Palopó	9	San Antonio Palopo	12	Diciembre	2023-12-26T00:00:00	2024-11-08T05:00:00	3	Temperatura mínima	17
27036	7	Sololá	712	San Antonio Palopó	9	San Antonio Palopo	12	Diciembre	2023-12-26T00:00:00	2024-11-08T05:00:00	5	Humedad	76
27037	7	Sololá	712	San Antonio Palopó	9	San Antonio Palopo	12	Diciembre	2023-12-26T00:00:00	2024-11-08T05:00:00	6	Velocidad del viento	6.4
27038	7	Sololá	712	San Antonio Palopó	9	San Antonio Palopo	12	Diciembre	2023-12-26T00:00:00	2024-11-08T05:00:00	7	Dirección del viento	6.44
27039	7	Sololá	712	San Antonio Palopó	9	San Antonio Palopo	12	Diciembre	2023-12-26T00:00:00	2024-11-08T05:00:00	1	Precipitación	0
27040	7	Sololá	712	San Antonio Palopó	9	San Antonio Palopo	12	Diciembre	2023-12-26T00:00:00	2024-11-08T05:00:00	8	Radiación solar	0
27041	7	Sololá	712	San Antonio Palopó	9	San Antonio Palopo	12	Diciembre	2023-12-26T00:00:00	2024-11-08T06:00:00	2	Temperatura media	16.7
27042	7	Sololá	712	San Antonio Palopó	9	San Antonio Palopo	12	Diciembre	2023-12-26T00:00:00	2024-11-08T06:00:00	4	Temperatura máxima	17.4
27043	7	Sololá	712	San Antonio Palopó	9	San Antonio Palopo	12	Diciembre	2023-12-26T00:00:00	2024-11-08T06:00:00	3	Temperatura mínima	16.4
27044	7	Sololá	712	San Antonio Palopó	9	San Antonio Palopo	12	Diciembre	2023-12-26T00:00:00	2024-11-08T06:00:00	5	Humedad	77
27045	7	Sololá	712	San Antonio Palopó	9	San Antonio Palopo	12	Diciembre	2023-12-26T00:00:00	2024-11-08T06:00:00	6	Velocidad del viento	6.4
27046	7	Sololá	712	San Antonio Palopó	9	San Antonio Palopo	12	Diciembre	2023-12-26T00:00:00	2024-11-08T06:00:00	7	Dirección del viento	6.44
27047	7	Sololá	712	San Antonio Palopó	9	San Antonio Palopo	12	Diciembre	2023-12-26T00:00:00	2024-11-08T06:00:00	1	Precipitación	0
27048	7	Sololá	712	San Antonio Palopó	9	San Antonio Palopo	12	Diciembre	2023-12-26T00:00:00	2024-11-08T06:00:00	8	Radiación solar	0
27049	7	Sololá	712	San Antonio Palopó	9	San Antonio Palopo	12	Diciembre	2023-12-26T00:00:00	2024-11-08T07:00:00	2	Temperatura media	16.8
27050	7	Sololá	712	San Antonio Palopó	9	San Antonio Palopo	12	Diciembre	2023-12-26T00:00:00	2024-11-08T07:00:00	4	Temperatura máxima	16.9
27051	7	Sololá	712	San Antonio Palopó	9	San Antonio Palopo	12	Diciembre	2023-12-26T00:00:00	2024-11-08T07:00:00	3	Temperatura mínima	15.9
27052	7	Sololá	712	San Antonio Palopó	9	San Antonio Palopo	12	Diciembre	2023-12-26T00:00:00	2024-11-08T07:00:00	5	Humedad	75
27053	7	Sololá	712	San Antonio Palopó	9	San Antonio Palopo	12	Diciembre	2023-12-26T00:00:00	2024-11-08T07:00:00	6	Velocidad del viento	6.4
27054	7	Sololá	712	San Antonio Palopó	9	San Antonio Palopo	12	Diciembre	2023-12-26T00:00:00	2024-11-08T07:00:00	7	Dirección del viento	6.44
27055	7	Sololá	712	San Antonio Palopó	9	San Antonio Palopo	12	Diciembre	2023-12-26T00:00:00	2024-11-08T07:00:00	1	Precipitación	0
27056	7	Sololá	712	San Antonio Palopó	9	San Antonio Palopo	12	Diciembre	2023-12-26T00:00:00	2024-11-08T07:00:00	8	Radiación solar	5
27057	7	Sololá	712	San Antonio Palopó	9	San Antonio Palopo	12	Diciembre	2023-12-26T00:00:00	2024-11-08T08:00:00	2	Temperatura media	17
27058	7	Sololá	712	San Antonio Palopó	9	San Antonio Palopo	12	Diciembre	2023-12-26T00:00:00	2024-11-08T08:00:00	4	Temperatura máxima	17.2
27059	7	Sololá	712	San Antonio Palopó	9	San Antonio Palopo	12	Diciembre	2023-12-26T00:00:00	2024-11-08T08:00:00	3	Temperatura mínima	16.9
27060	7	Sololá	712	San Antonio Palopó	9	San Antonio Palopo	12	Diciembre	2023-12-26T00:00:00	2024-11-08T08:00:00	5	Humedad	76
27061	7	Sololá	712	San Antonio Palopó	9	San Antonio Palopo	12	Diciembre	2023-12-26T00:00:00	2024-11-08T08:00:00	6	Velocidad del viento	3.2
27062	7	Sololá	712	San Antonio Palopó	9	San Antonio Palopo	12	Diciembre	2023-12-26T00:00:00	2024-11-08T08:00:00	7	Dirección del viento	3.22
27063	7	Sololá	712	San Antonio Palopó	9	San Antonio Palopo	12	Diciembre	2023-12-26T00:00:00	2024-11-08T08:00:00	1	Precipitación	0
27064	7	Sololá	712	San Antonio Palopó	9	San Antonio Palopo	12	Diciembre	2023-12-26T00:00:00	2024-11-08T08:00:00	8	Radiación solar	21
27065	7	Sololá	712	San Antonio Palopó	9	San Antonio Palopo	12	Diciembre	2023-12-26T00:00:00	2024-11-08T09:00:00	2	Temperatura media	16.9
27066	7	Sololá	712	San Antonio Palopó	9	San Antonio Palopo	12	Diciembre	2023-12-26T00:00:00	2024-11-08T09:00:00	4	Temperatura máxima	17
27067	7	Sololá	712	San Antonio Palopó	9	San Antonio Palopo	12	Diciembre	2023-12-26T00:00:00	2024-11-08T09:00:00	3	Temperatura mínima	15.9
27068	7	Sololá	712	San Antonio Palopó	9	San Antonio Palopo	12	Diciembre	2023-12-26T00:00:00	2024-11-08T09:00:00	5	Humedad	78
27069	7	Sololá	712	San Antonio Palopó	9	San Antonio Palopo	12	Diciembre	2023-12-26T00:00:00	2024-11-08T09:00:00	6	Velocidad del viento	3.2
27070	7	Sololá	712	San Antonio Palopó	9	San Antonio Palopo	12	Diciembre	2023-12-26T00:00:00	2024-11-08T09:00:00	7	Dirección del viento	3.22
27071	7	Sololá	712	San Antonio Palopó	9	San Antonio Palopo	12	Diciembre	2023-12-26T00:00:00	2024-11-08T09:00:00	1	Precipitación	0
27072	7	Sololá	712	San Antonio Palopó	9	San Antonio Palopo	12	Diciembre	2023-12-26T00:00:00	2024-11-08T09:00:00	8	Radiación solar	90
27073	7	Sololá	712	San Antonio Palopó	9	San Antonio Palopo	12	Diciembre	2023-12-26T00:00:00	2024-11-08T10:00:00	2	Temperatura media	19.1
27074	7	Sololá	712	San Antonio Palopó	9	San Antonio Palopo	12	Diciembre	2023-12-26T00:00:00	2024-11-08T10:00:00	4	Temperatura máxima	19.9
27075	7	Sololá	712	San Antonio Palopó	9	San Antonio Palopo	12	Diciembre	2023-12-26T00:00:00	2024-11-08T10:00:00	3	Temperatura mínima	16.9
27076	7	Sololá	712	San Antonio Palopó	9	San Antonio Palopo	12	Diciembre	2023-12-26T00:00:00	2024-11-08T10:00:00	5	Humedad	74
27077	7	Sololá	712	San Antonio Palopó	9	San Antonio Palopo	12	Diciembre	2023-12-26T00:00:00	2024-11-08T10:00:00	6	Velocidad del viento	3.2
27078	7	Sololá	712	San Antonio Palopó	9	San Antonio Palopo	12	Diciembre	2023-12-26T00:00:00	2024-11-08T10:00:00	7	Dirección del viento	3.22
27079	7	Sololá	712	San Antonio Palopó	9	San Antonio Palopo	12	Diciembre	2023-12-26T00:00:00	2024-11-08T10:00:00	1	Precipitación	0
27080	7	Sololá	712	San Antonio Palopó	9	San Antonio Palopo	12	Diciembre	2023-12-26T00:00:00	2024-11-08T10:00:00	8	Radiación solar	539
27081	7	Sololá	712	San Antonio Palopó	9	San Antonio Palopo	12	Diciembre	2023-12-26T00:00:00	2024-11-08T11:00:00	2	Temperatura media	20.9
27082	7	Sololá	712	San Antonio Palopó	9	San Antonio Palopo	12	Diciembre	2023-12-26T00:00:00	2024-11-08T11:00:00	4	Temperatura máxima	20.9
27083	7	Sololá	712	San Antonio Palopó	9	San Antonio Palopo	12	Diciembre	2023-12-26T00:00:00	2024-11-08T11:00:00	3	Temperatura mínima	19
27084	7	Sololá	712	San Antonio Palopó	9	San Antonio Palopo	12	Diciembre	2023-12-26T00:00:00	2024-11-08T11:00:00	5	Humedad	70
27085	7	Sololá	712	San Antonio Palopó	9	San Antonio Palopo	12	Diciembre	2023-12-26T00:00:00	2024-11-08T11:00:00	6	Velocidad del viento	1.6
27086	7	Sololá	712	San Antonio Palopó	9	San Antonio Palopo	12	Diciembre	2023-12-26T00:00:00	2024-11-08T11:00:00	7	Dirección del viento	1.61
27087	7	Sololá	712	San Antonio Palopó	9	San Antonio Palopo	12	Diciembre	2023-12-26T00:00:00	2024-11-08T11:00:00	1	Precipitación	0
27088	7	Sololá	712	San Antonio Palopó	9	San Antonio Palopo	12	Diciembre	2023-12-26T00:00:00	2024-11-08T11:00:00	8	Radiación solar	670
27089	7	Sololá	712	San Antonio Palopó	9	San Antonio Palopo	12	Diciembre	2023-12-26T00:00:00	2024-11-08T12:00:00	2	Temperatura media	22.2
27090	7	Sololá	712	San Antonio Palopó	9	San Antonio Palopo	12	Diciembre	2023-12-26T00:00:00	2024-11-08T12:00:00	4	Temperatura máxima	22.2
27091	7	Sololá	712	San Antonio Palopó	9	San Antonio Palopo	12	Diciembre	2023-12-26T00:00:00	2024-11-08T12:00:00	3	Temperatura mínima	20.8
27092	7	Sololá	712	San Antonio Palopó	9	San Antonio Palopo	12	Diciembre	2023-12-26T00:00:00	2024-11-08T12:00:00	5	Humedad	65
27093	7	Sololá	712	San Antonio Palopó	9	San Antonio Palopo	12	Diciembre	2023-12-26T00:00:00	2024-11-08T12:00:00	6	Velocidad del viento	1.6
27094	7	Sololá	712	San Antonio Palopó	9	San Antonio Palopo	12	Diciembre	2023-12-26T00:00:00	2024-11-08T12:00:00	7	Dirección del viento	1.61
27095	7	Sololá	712	San Antonio Palopó	9	San Antonio Palopo	12	Diciembre	2023-12-26T00:00:00	2024-11-08T12:00:00	1	Precipitación	0
27096	7	Sololá	712	San Antonio Palopó	9	San Antonio Palopo	12	Diciembre	2023-12-26T00:00:00	2024-11-08T12:00:00	8	Radiación solar	648
27097	7	Sololá	712	San Antonio Palopó	9	San Antonio Palopo	12	Diciembre	2023-12-26T00:00:00	2024-11-08T13:00:00	2	Temperatura media	23.6
27098	7	Sololá	712	San Antonio Palopó	9	San Antonio Palopo	12	Diciembre	2023-12-26T00:00:00	2024-11-08T13:00:00	4	Temperatura máxima	23.7
27099	7	Sololá	712	San Antonio Palopó	9	San Antonio Palopo	12	Diciembre	2023-12-26T00:00:00	2024-11-08T13:00:00	3	Temperatura mínima	21.8
27100	7	Sololá	712	San Antonio Palopó	9	San Antonio Palopo	12	Diciembre	2023-12-26T00:00:00	2024-11-08T13:00:00	5	Humedad	51
27101	7	Sololá	712	San Antonio Palopó	9	San Antonio Palopo	12	Diciembre	2023-12-26T00:00:00	2024-11-08T13:00:00	6	Velocidad del viento	8
27102	7	Sololá	712	San Antonio Palopó	9	San Antonio Palopo	12	Diciembre	2023-12-26T00:00:00	2024-11-08T13:00:00	7	Dirección del viento	8.05
27103	7	Sololá	712	San Antonio Palopó	9	San Antonio Palopo	12	Diciembre	2023-12-26T00:00:00	2024-11-08T13:00:00	1	Precipitación	0
27104	7	Sololá	712	San Antonio Palopó	9	San Antonio Palopo	12	Diciembre	2023-12-26T00:00:00	2024-11-08T13:00:00	8	Radiación solar	725
27105	7	Sololá	712	San Antonio Palopó	9	San Antonio Palopo	12	Diciembre	2023-12-26T00:00:00	2024-11-08T14:00:00	2	Temperatura media	23.7
27106	7	Sololá	712	San Antonio Palopó	9	San Antonio Palopo	12	Diciembre	2023-12-26T00:00:00	2024-11-08T14:00:00	4	Temperatura máxima	23.9
27107	7	Sololá	712	San Antonio Palopó	9	San Antonio Palopo	12	Diciembre	2023-12-26T00:00:00	2024-11-08T14:00:00	3	Temperatura mínima	23.5
27108	7	Sololá	712	San Antonio Palopó	9	San Antonio Palopo	12	Diciembre	2023-12-26T00:00:00	2024-11-08T14:00:00	5	Humedad	53
27109	7	Sololá	712	San Antonio Palopó	9	San Antonio Palopo	12	Diciembre	2023-12-26T00:00:00	2024-11-08T14:00:00	6	Velocidad del viento	9.7
27110	7	Sololá	712	San Antonio Palopó	9	San Antonio Palopo	12	Diciembre	2023-12-26T00:00:00	2024-11-08T14:00:00	7	Dirección del viento	9.66
27111	7	Sololá	712	San Antonio Palopó	9	San Antonio Palopo	12	Diciembre	2023-12-26T00:00:00	2024-11-08T14:00:00	1	Precipitación	0
27112	7	Sololá	712	San Antonio Palopó	9	San Antonio Palopo	12	Diciembre	2023-12-26T00:00:00	2024-11-08T14:00:00	8	Radiación solar	693
27113	7	Sololá	712	San Antonio Palopó	9	San Antonio Palopo	12	Diciembre	2023-12-26T00:00:00	2024-11-08T15:00:00	2	Temperatura media	23.1
27114	7	Sololá	712	San Antonio Palopó	9	San Antonio Palopo	12	Diciembre	2023-12-26T00:00:00	2024-11-08T15:00:00	4	Temperatura máxima	23.7
27115	7	Sololá	712	San Antonio Palopó	9	San Antonio Palopo	12	Diciembre	2023-12-26T00:00:00	2024-11-08T15:00:00	3	Temperatura mínima	22.9
27116	7	Sololá	712	San Antonio Palopó	9	San Antonio Palopo	12	Diciembre	2023-12-26T00:00:00	2024-11-08T15:00:00	5	Humedad	69
27117	7	Sololá	712	San Antonio Palopó	9	San Antonio Palopo	12	Diciembre	2023-12-26T00:00:00	2024-11-08T15:00:00	6	Velocidad del viento	9.7
27118	7	Sololá	712	San Antonio Palopó	9	San Antonio Palopo	12	Diciembre	2023-12-26T00:00:00	2024-11-08T15:00:00	7	Dirección del viento	9.66
27119	7	Sololá	712	San Antonio Palopó	9	San Antonio Palopo	12	Diciembre	2023-12-26T00:00:00	2024-11-08T15:00:00	1	Precipitación	0
27120	7	Sololá	712	San Antonio Palopó	9	San Antonio Palopo	12	Diciembre	2023-12-26T00:00:00	2024-11-08T15:00:00	8	Radiación solar	552
27121	7	Sololá	712	San Antonio Palopó	9	San Antonio Palopo	12	Diciembre	2023-12-26T00:00:00	2024-11-08T16:00:00	2	Temperatura media	22.1
27122	7	Sololá	712	San Antonio Palopó	9	San Antonio Palopo	12	Diciembre	2023-12-26T00:00:00	2024-11-08T16:00:00	4	Temperatura máxima	23.1
27123	7	Sololá	712	San Antonio Palopó	9	San Antonio Palopo	12	Diciembre	2023-12-26T00:00:00	2024-11-08T16:00:00	3	Temperatura mínima	22.1
27124	7	Sololá	712	San Antonio Palopó	9	San Antonio Palopo	12	Diciembre	2023-12-26T00:00:00	2024-11-08T16:00:00	5	Humedad	72
27125	7	Sololá	712	San Antonio Palopó	9	San Antonio Palopo	12	Diciembre	2023-12-26T00:00:00	2024-11-08T16:00:00	6	Velocidad del viento	9.7
27126	7	Sololá	712	San Antonio Palopó	9	San Antonio Palopo	12	Diciembre	2023-12-26T00:00:00	2024-11-08T16:00:00	7	Dirección del viento	9.66
27127	7	Sololá	712	San Antonio Palopó	9	San Antonio Palopo	12	Diciembre	2023-12-26T00:00:00	2024-11-08T16:00:00	1	Precipitación	0
27128	7	Sololá	712	San Antonio Palopó	9	San Antonio Palopo	12	Diciembre	2023-12-26T00:00:00	2024-11-08T16:00:00	8	Radiación solar	373
27129	7	Sololá	712	San Antonio Palopó	9	San Antonio Palopo	12	Diciembre	2023-12-26T00:00:00	2024-11-08T17:00:00	2	Temperatura media	21.2
27130	7	Sololá	712	San Antonio Palopó	9	San Antonio Palopo	12	Diciembre	2023-12-26T00:00:00	2024-11-08T17:00:00	4	Temperatura máxima	22.1
27131	7	Sololá	712	San Antonio Palopó	9	San Antonio Palopo	12	Diciembre	2023-12-26T00:00:00	2024-11-08T17:00:00	3	Temperatura mínima	20.9
27132	7	Sololá	712	San Antonio Palopó	9	San Antonio Palopo	12	Diciembre	2023-12-26T00:00:00	2024-11-08T17:00:00	5	Humedad	73
27133	7	Sololá	712	San Antonio Palopó	9	San Antonio Palopo	12	Diciembre	2023-12-26T00:00:00	2024-11-08T17:00:00	6	Velocidad del viento	6.4
27134	7	Sololá	712	San Antonio Palopó	9	San Antonio Palopo	12	Diciembre	2023-12-26T00:00:00	2024-11-08T17:00:00	7	Dirección del viento	6.44
27135	7	Sololá	712	San Antonio Palopó	9	San Antonio Palopo	12	Diciembre	2023-12-26T00:00:00	2024-11-08T17:00:00	1	Precipitación	0
27136	7	Sololá	712	San Antonio Palopó	9	San Antonio Palopo	12	Diciembre	2023-12-26T00:00:00	2024-11-08T17:00:00	8	Radiación solar	133
27137	7	Sololá	712	San Antonio Palopó	9	San Antonio Palopo	12	Diciembre	2023-12-26T00:00:00	2024-11-08T18:00:00	2	Temperatura media	19.9
27138	7	Sololá	712	San Antonio Palopó	9	San Antonio Palopo	12	Diciembre	2023-12-26T00:00:00	2024-11-08T18:00:00	4	Temperatura máxima	21.2
27139	7	Sololá	712	San Antonio Palopó	9	San Antonio Palopo	12	Diciembre	2023-12-26T00:00:00	2024-11-08T18:00:00	3	Temperatura mínima	19.9
27140	7	Sololá	712	San Antonio Palopó	9	San Antonio Palopo	12	Diciembre	2023-12-26T00:00:00	2024-11-08T18:00:00	5	Humedad	76
27141	7	Sololá	712	San Antonio Palopó	9	San Antonio Palopo	12	Diciembre	2023-12-26T00:00:00	2024-11-08T18:00:00	6	Velocidad del viento	3.2
27142	7	Sololá	712	San Antonio Palopó	9	San Antonio Palopo	12	Diciembre	2023-12-26T00:00:00	2024-11-08T18:00:00	7	Dirección del viento	3.22
27143	7	Sololá	712	San Antonio Palopó	9	San Antonio Palopo	12	Diciembre	2023-12-26T00:00:00	2024-11-08T18:00:00	1	Precipitación	0
27144	7	Sololá	712	San Antonio Palopó	9	San Antonio Palopo	12	Diciembre	2023-12-26T00:00:00	2024-11-08T18:00:00	8	Radiación solar	8
27145	7	Sololá	712	San Antonio Palopó	9	San Antonio Palopo	12	Diciembre	2023-12-26T00:00:00	2024-11-08T19:00:00	2	Temperatura media	19.2
27146	7	Sololá	712	San Antonio Palopó	9	San Antonio Palopo	12	Diciembre	2023-12-26T00:00:00	2024-11-08T19:00:00	4	Temperatura máxima	19.9
27147	7	Sololá	712	San Antonio Palopó	9	San Antonio Palopo	12	Diciembre	2023-12-26T00:00:00	2024-11-08T19:00:00	3	Temperatura mínima	19.2
27148	7	Sololá	712	San Antonio Palopó	9	San Antonio Palopo	12	Diciembre	2023-12-26T00:00:00	2024-11-08T19:00:00	5	Humedad	77
27149	7	Sololá	712	San Antonio Palopó	9	San Antonio Palopo	12	Diciembre	2023-12-26T00:00:00	2024-11-08T19:00:00	6	Velocidad del viento	1.6
27150	7	Sololá	712	San Antonio Palopó	9	San Antonio Palopo	12	Diciembre	2023-12-26T00:00:00	2024-11-08T19:00:00	7	Dirección del viento	1.61
27151	7	Sololá	712	San Antonio Palopó	9	San Antonio Palopo	12	Diciembre	2023-12-26T00:00:00	2024-11-08T19:00:00	1	Precipitación	0
27152	7	Sololá	712	San Antonio Palopó	9	San Antonio Palopo	12	Diciembre	2023-12-26T00:00:00	2024-11-08T19:00:00	8	Radiación solar	0
27153	7	Sololá	712	San Antonio Palopó	9	San Antonio Palopo	12	Diciembre	2023-12-26T00:00:00	2024-11-08T20:00:00	2	Temperatura media	18.5
27154	7	Sololá	712	San Antonio Palopó	9	San Antonio Palopo	12	Diciembre	2023-12-26T00:00:00	2024-11-08T20:00:00	4	Temperatura máxima	19.2
27155	7	Sololá	712	San Antonio Palopó	9	San Antonio Palopo	12	Diciembre	2023-12-26T00:00:00	2024-11-08T20:00:00	3	Temperatura mínima	18.5
27156	7	Sololá	712	San Antonio Palopó	9	San Antonio Palopo	12	Diciembre	2023-12-26T00:00:00	2024-11-08T20:00:00	5	Humedad	79
27157	7	Sololá	712	San Antonio Palopó	9	San Antonio Palopo	12	Diciembre	2023-12-26T00:00:00	2024-11-08T20:00:00	6	Velocidad del viento	1.6
27158	7	Sololá	712	San Antonio Palopó	9	San Antonio Palopo	12	Diciembre	2023-12-26T00:00:00	2024-11-08T20:00:00	7	Dirección del viento	1.61
27159	7	Sololá	712	San Antonio Palopó	9	San Antonio Palopo	12	Diciembre	2023-12-26T00:00:00	2024-11-08T20:00:00	1	Precipitación	0
27160	7	Sololá	712	San Antonio Palopó	9	San Antonio Palopo	12	Diciembre	2023-12-26T00:00:00	2024-11-08T20:00:00	8	Radiación solar	0
27161	7	Sololá	712	San Antonio Palopó	9	San Antonio Palopo	12	Diciembre	2023-12-26T00:00:00	2024-11-08T21:00:00	2	Temperatura media	18.3
27162	7	Sololá	712	San Antonio Palopó	9	San Antonio Palopo	12	Diciembre	2023-12-26T00:00:00	2024-11-08T21:00:00	4	Temperatura máxima	18.6
27163	7	Sololá	712	San Antonio Palopó	9	San Antonio Palopo	12	Diciembre	2023-12-26T00:00:00	2024-11-08T21:00:00	3	Temperatura mínima	18.3
27164	7	Sololá	712	San Antonio Palopó	9	San Antonio Palopo	12	Diciembre	2023-12-26T00:00:00	2024-11-08T21:00:00	5	Humedad	78
27165	7	Sololá	712	San Antonio Palopó	9	San Antonio Palopo	12	Diciembre	2023-12-26T00:00:00	2024-11-08T21:00:00	6	Velocidad del viento	1.6
27166	7	Sololá	712	San Antonio Palopó	9	San Antonio Palopo	12	Diciembre	2023-12-26T00:00:00	2024-11-08T21:00:00	7	Dirección del viento	1.61
27167	7	Sololá	712	San Antonio Palopó	9	San Antonio Palopo	12	Diciembre	2023-12-26T00:00:00	2024-11-08T21:00:00	1	Precipitación	0
27168	7	Sololá	712	San Antonio Palopó	9	San Antonio Palopo	12	Diciembre	2023-12-26T00:00:00	2024-11-08T21:00:00	8	Radiación solar	0
27169	7	Sololá	712	San Antonio Palopó	9	San Antonio Palopo	12	Diciembre	2023-12-26T00:00:00	2024-11-08T22:00:00	2	Temperatura media	18.8
27170	7	Sololá	712	San Antonio Palopó	9	San Antonio Palopo	12	Diciembre	2023-12-26T00:00:00	2024-11-08T22:00:00	4	Temperatura máxima	18.9
27171	7	Sololá	712	San Antonio Palopó	9	San Antonio Palopo	12	Diciembre	2023-12-26T00:00:00	2024-11-08T22:00:00	3	Temperatura mínima	18.3
27172	7	Sololá	712	San Antonio Palopó	9	San Antonio Palopo	12	Diciembre	2023-12-26T00:00:00	2024-11-08T22:00:00	5	Humedad	78
27173	7	Sololá	712	San Antonio Palopó	9	San Antonio Palopo	12	Diciembre	2023-12-26T00:00:00	2024-11-08T22:00:00	6	Velocidad del viento	1.6
27174	7	Sololá	712	San Antonio Palopó	9	San Antonio Palopo	12	Diciembre	2023-12-26T00:00:00	2024-11-08T22:00:00	7	Dirección del viento	1.61
27175	7	Sololá	712	San Antonio Palopó	9	San Antonio Palopo	12	Diciembre	2023-12-26T00:00:00	2024-11-08T22:00:00	1	Precipitación	0
27176	7	Sololá	712	San Antonio Palopó	9	San Antonio Palopo	12	Diciembre	2023-12-26T00:00:00	2024-11-08T22:00:00	8	Radiación solar	0
27177	7	Sololá	712	San Antonio Palopó	9	San Antonio Palopo	12	Diciembre	2023-12-26T00:00:00	2024-11-08T23:00:00	2	Temperatura media	18.2
27178	7	Sololá	712	San Antonio Palopó	9	San Antonio Palopo	12	Diciembre	2023-12-26T00:00:00	2024-11-08T23:00:00	4	Temperatura máxima	18.8
27179	7	Sololá	712	San Antonio Palopó	9	San Antonio Palopo	12	Diciembre	2023-12-26T00:00:00	2024-11-08T23:00:00	3	Temperatura mínima	18.2
27180	7	Sololá	712	San Antonio Palopó	9	San Antonio Palopo	12	Diciembre	2023-12-26T00:00:00	2024-11-08T23:00:00	5	Humedad	80
27181	7	Sololá	712	San Antonio Palopó	9	San Antonio Palopo	12	Diciembre	2023-12-26T00:00:00	2024-11-08T23:00:00	6	Velocidad del viento	1.6
27182	7	Sololá	712	San Antonio Palopó	9	San Antonio Palopo	12	Diciembre	2023-12-26T00:00:00	2024-11-08T23:00:00	7	Dirección del viento	1.61
27183	7	Sololá	712	San Antonio Palopó	9	San Antonio Palopo	12	Diciembre	2023-12-26T00:00:00	2024-11-08T23:00:00	1	Precipitación	0
27184	7	Sololá	712	San Antonio Palopó	9	San Antonio Palopo	12	Diciembre	2023-12-26T00:00:00	2024-11-08T23:00:00	8	Radiación solar	0
27185	7	Sololá	712	San Antonio Palopó	9	San Antonio Palopo	12	Diciembre	2023-12-27T00:00:00	2024-11-08T00:00:00	2	Temperatura media	16.9
27186	7	Sololá	712	San Antonio Palopó	9	San Antonio Palopo	12	Diciembre	2023-12-27T00:00:00	2024-11-08T00:00:00	4	Temperatura máxima	18.2
27187	7	Sololá	712	San Antonio Palopó	9	San Antonio Palopo	12	Diciembre	2023-12-27T00:00:00	2024-11-08T00:00:00	3	Temperatura mínima	16.9
27188	7	Sololá	712	San Antonio Palopó	9	San Antonio Palopo	12	Diciembre	2023-12-27T00:00:00	2024-11-08T00:00:00	5	Humedad	82
27189	7	Sololá	712	San Antonio Palopó	9	San Antonio Palopo	12	Diciembre	2023-12-27T00:00:00	2024-11-08T00:00:00	6	Velocidad del viento	3.2
27190	7	Sololá	712	San Antonio Palopó	9	San Antonio Palopo	12	Diciembre	2023-12-27T00:00:00	2024-11-08T00:00:00	7	Dirección del viento	3.22
27191	7	Sololá	712	San Antonio Palopó	9	San Antonio Palopo	12	Diciembre	2023-12-27T00:00:00	2024-11-08T00:00:00	1	Precipitación	0
27192	7	Sololá	712	San Antonio Palopó	9	San Antonio Palopo	12	Diciembre	2023-12-27T00:00:00	2024-11-08T00:00:00	8	Radiación solar	0
27193	7	Sololá	712	San Antonio Palopó	9	San Antonio Palopo	12	Diciembre	2023-12-27T00:00:00	2024-11-08T01:00:00	2	Temperatura media	17.4
27194	7	Sololá	712	San Antonio Palopó	9	San Antonio Palopo	12	Diciembre	2023-12-27T00:00:00	2024-11-08T01:00:00	4	Temperatura máxima	17.4
27195	7	Sololá	712	San Antonio Palopó	9	San Antonio Palopo	12	Diciembre	2023-12-27T00:00:00	2024-11-08T01:00:00	3	Temperatura mínima	16.7
27196	7	Sololá	712	San Antonio Palopó	9	San Antonio Palopo	12	Diciembre	2023-12-27T00:00:00	2024-11-08T01:00:00	5	Humedad	82
27197	7	Sololá	712	San Antonio Palopó	9	San Antonio Palopo	12	Diciembre	2023-12-27T00:00:00	2024-11-08T01:00:00	6	Velocidad del viento	1.6
27198	7	Sololá	712	San Antonio Palopó	9	San Antonio Palopo	12	Diciembre	2023-12-27T00:00:00	2024-11-08T01:00:00	7	Dirección del viento	1.61
27199	7	Sololá	712	San Antonio Palopó	9	San Antonio Palopo	12	Diciembre	2023-12-27T00:00:00	2024-11-08T01:00:00	1	Precipitación	0
27200	7	Sololá	712	San Antonio Palopó	9	San Antonio Palopo	12	Diciembre	2023-12-27T00:00:00	2024-11-08T01:00:00	8	Radiación solar	0
27201	7	Sololá	712	San Antonio Palopó	9	San Antonio Palopo	12	Diciembre	2023-12-27T00:00:00	2024-11-08T02:00:00	2	Temperatura media	17.4
27202	7	Sololá	712	San Antonio Palopó	9	San Antonio Palopo	12	Diciembre	2023-12-27T00:00:00	2024-11-08T02:00:00	4	Temperatura máxima	17.7
27203	7	Sololá	712	San Antonio Palopó	9	San Antonio Palopo	12	Diciembre	2023-12-27T00:00:00	2024-11-08T02:00:00	3	Temperatura mínima	17.4
27204	7	Sololá	712	San Antonio Palopó	9	San Antonio Palopo	12	Diciembre	2023-12-27T00:00:00	2024-11-08T02:00:00	5	Humedad	80
27205	7	Sololá	712	San Antonio Palopó	9	San Antonio Palopo	12	Diciembre	2023-12-27T00:00:00	2024-11-08T02:00:00	6	Velocidad del viento	1.6
27206	7	Sololá	712	San Antonio Palopó	9	San Antonio Palopo	12	Diciembre	2023-12-27T00:00:00	2024-11-08T02:00:00	7	Dirección del viento	1.61
27207	7	Sololá	712	San Antonio Palopó	9	San Antonio Palopo	12	Diciembre	2023-12-27T00:00:00	2024-11-08T02:00:00	1	Precipitación	0
27208	7	Sololá	712	San Antonio Palopó	9	San Antonio Palopo	12	Diciembre	2023-12-27T00:00:00	2024-11-08T02:00:00	8	Radiación solar	0
27209	7	Sololá	712	San Antonio Palopó	9	San Antonio Palopo	12	Diciembre	2023-12-27T00:00:00	2024-11-08T03:00:00	2	Temperatura media	16.4
27210	7	Sololá	712	San Antonio Palopó	9	San Antonio Palopo	12	Diciembre	2023-12-27T00:00:00	2024-11-08T03:00:00	4	Temperatura máxima	17.4
27211	7	Sololá	712	San Antonio Palopó	9	San Antonio Palopo	12	Diciembre	2023-12-27T00:00:00	2024-11-08T03:00:00	3	Temperatura mínima	16.4
27212	7	Sololá	712	San Antonio Palopó	9	San Antonio Palopo	12	Diciembre	2023-12-27T00:00:00	2024-11-08T03:00:00	5	Humedad	78
27213	7	Sololá	712	San Antonio Palopó	9	San Antonio Palopo	12	Diciembre	2023-12-27T00:00:00	2024-11-08T03:00:00	6	Velocidad del viento	3.2
27214	7	Sololá	712	San Antonio Palopó	9	San Antonio Palopo	12	Diciembre	2023-12-27T00:00:00	2024-11-08T03:00:00	7	Dirección del viento	3.22
27215	7	Sololá	712	San Antonio Palopó	9	San Antonio Palopo	12	Diciembre	2023-12-27T00:00:00	2024-11-08T03:00:00	1	Precipitación	0
27216	7	Sololá	712	San Antonio Palopó	9	San Antonio Palopo	12	Diciembre	2023-12-27T00:00:00	2024-11-08T03:00:00	8	Radiación solar	0
27217	7	Sololá	712	San Antonio Palopó	9	San Antonio Palopo	12	Diciembre	2023-12-27T00:00:00	2024-11-08T04:00:00	2	Temperatura media	16.2
27218	7	Sololá	712	San Antonio Palopó	9	San Antonio Palopo	12	Diciembre	2023-12-27T00:00:00	2024-11-08T04:00:00	4	Temperatura máxima	16.4
27219	7	Sololá	712	San Antonio Palopó	9	San Antonio Palopo	12	Diciembre	2023-12-27T00:00:00	2024-11-08T04:00:00	3	Temperatura mínima	15.8
27220	7	Sololá	712	San Antonio Palopó	9	San Antonio Palopo	12	Diciembre	2023-12-27T00:00:00	2024-11-08T04:00:00	5	Humedad	79
27221	7	Sololá	712	San Antonio Palopó	9	San Antonio Palopo	12	Diciembre	2023-12-27T00:00:00	2024-11-08T04:00:00	6	Velocidad del viento	3.2
27222	7	Sololá	712	San Antonio Palopó	9	San Antonio Palopo	12	Diciembre	2023-12-27T00:00:00	2024-11-08T04:00:00	7	Dirección del viento	3.22
27223	7	Sololá	712	San Antonio Palopó	9	San Antonio Palopo	12	Diciembre	2023-12-27T00:00:00	2024-11-08T04:00:00	1	Precipitación	0
27224	7	Sololá	712	San Antonio Palopó	9	San Antonio Palopo	12	Diciembre	2023-12-27T00:00:00	2024-11-08T04:00:00	8	Radiación solar	0
27225	7	Sololá	712	San Antonio Palopó	9	San Antonio Palopo	12	Diciembre	2023-12-27T00:00:00	2024-11-08T05:00:00	2	Temperatura media	15.3
27226	7	Sololá	712	San Antonio Palopó	9	San Antonio Palopo	12	Diciembre	2023-12-27T00:00:00	2024-11-08T05:00:00	4	Temperatura máxima	16.2
27227	7	Sololá	712	San Antonio Palopó	9	San Antonio Palopo	12	Diciembre	2023-12-27T00:00:00	2024-11-08T05:00:00	3	Temperatura mínima	15.2
27228	7	Sololá	712	San Antonio Palopó	9	San Antonio Palopo	12	Diciembre	2023-12-27T00:00:00	2024-11-08T05:00:00	5	Humedad	80
27229	7	Sololá	712	San Antonio Palopó	9	San Antonio Palopo	12	Diciembre	2023-12-27T00:00:00	2024-11-08T05:00:00	6	Velocidad del viento	3.2
27230	7	Sololá	712	San Antonio Palopó	9	San Antonio Palopo	12	Diciembre	2023-12-27T00:00:00	2024-11-08T05:00:00	7	Dirección del viento	3.22
27231	7	Sololá	712	San Antonio Palopó	9	San Antonio Palopo	12	Diciembre	2023-12-27T00:00:00	2024-11-08T05:00:00	1	Precipitación	0
27232	7	Sololá	712	San Antonio Palopó	9	San Antonio Palopo	12	Diciembre	2023-12-27T00:00:00	2024-11-08T05:00:00	8	Radiación solar	0
27233	7	Sololá	712	San Antonio Palopó	9	San Antonio Palopo	12	Diciembre	2023-12-27T00:00:00	2024-11-08T06:00:00	2	Temperatura media	14.7
27234	7	Sololá	712	San Antonio Palopó	9	San Antonio Palopo	12	Diciembre	2023-12-27T00:00:00	2024-11-08T06:00:00	4	Temperatura máxima	15.3
27235	7	Sololá	712	San Antonio Palopó	9	San Antonio Palopo	12	Diciembre	2023-12-27T00:00:00	2024-11-08T06:00:00	3	Temperatura mínima	14.7
27236	7	Sololá	712	San Antonio Palopó	9	San Antonio Palopo	12	Diciembre	2023-12-27T00:00:00	2024-11-08T06:00:00	5	Humedad	81
27237	7	Sololá	712	San Antonio Palopó	9	San Antonio Palopo	12	Diciembre	2023-12-27T00:00:00	2024-11-08T06:00:00	6	Velocidad del viento	4.8
27238	7	Sololá	712	San Antonio Palopó	9	San Antonio Palopo	12	Diciembre	2023-12-27T00:00:00	2024-11-08T06:00:00	7	Dirección del viento	4.83
27239	7	Sololá	712	San Antonio Palopó	9	San Antonio Palopo	12	Diciembre	2023-12-27T00:00:00	2024-11-08T06:00:00	1	Precipitación	0
27240	7	Sololá	712	San Antonio Palopó	9	San Antonio Palopo	12	Diciembre	2023-12-27T00:00:00	2024-11-08T06:00:00	8	Radiación solar	0
27241	7	Sololá	712	San Antonio Palopó	9	San Antonio Palopo	12	Diciembre	2023-12-27T00:00:00	2024-11-08T07:00:00	2	Temperatura media	14.8
27242	7	Sololá	712	San Antonio Palopó	9	San Antonio Palopo	12	Diciembre	2023-12-27T00:00:00	2024-11-08T07:00:00	4	Temperatura máxima	14.9
27243	7	Sololá	712	San Antonio Palopó	9	San Antonio Palopo	12	Diciembre	2023-12-27T00:00:00	2024-11-08T07:00:00	3	Temperatura mínima	14.5
27244	7	Sololá	712	San Antonio Palopó	9	San Antonio Palopo	12	Diciembre	2023-12-27T00:00:00	2024-11-08T07:00:00	5	Humedad	80
27245	7	Sololá	712	San Antonio Palopó	9	San Antonio Palopo	12	Diciembre	2023-12-27T00:00:00	2024-11-08T07:00:00	6	Velocidad del viento	3.2
27246	7	Sololá	712	San Antonio Palopó	9	San Antonio Palopo	12	Diciembre	2023-12-27T00:00:00	2024-11-08T07:00:00	7	Dirección del viento	3.22
27247	7	Sololá	712	San Antonio Palopó	9	San Antonio Palopo	12	Diciembre	2023-12-27T00:00:00	2024-11-08T07:00:00	1	Precipitación	0
27248	7	Sololá	712	San Antonio Palopó	9	San Antonio Palopo	12	Diciembre	2023-12-27T00:00:00	2024-11-08T07:00:00	8	Radiación solar	4
27249	7	Sololá	712	San Antonio Palopó	9	San Antonio Palopo	12	Diciembre	2023-12-27T00:00:00	2024-11-08T08:00:00	2	Temperatura media	15.3
27250	7	Sololá	712	San Antonio Palopó	9	San Antonio Palopo	12	Diciembre	2023-12-27T00:00:00	2024-11-08T08:00:00	4	Temperatura máxima	15.4
27251	7	Sololá	712	San Antonio Palopó	9	San Antonio Palopo	12	Diciembre	2023-12-27T00:00:00	2024-11-08T08:00:00	3	Temperatura mínima	14.8
27252	7	Sololá	712	San Antonio Palopó	9	San Antonio Palopo	12	Diciembre	2023-12-27T00:00:00	2024-11-08T08:00:00	5	Humedad	78
27253	7	Sololá	712	San Antonio Palopó	9	San Antonio Palopo	12	Diciembre	2023-12-27T00:00:00	2024-11-08T08:00:00	6	Velocidad del viento	3.2
27254	7	Sololá	712	San Antonio Palopó	9	San Antonio Palopo	12	Diciembre	2023-12-27T00:00:00	2024-11-08T08:00:00	7	Dirección del viento	3.22
27255	7	Sololá	712	San Antonio Palopó	9	San Antonio Palopo	12	Diciembre	2023-12-27T00:00:00	2024-11-08T08:00:00	1	Precipitación	0
27256	7	Sololá	712	San Antonio Palopó	9	San Antonio Palopo	12	Diciembre	2023-12-27T00:00:00	2024-11-08T08:00:00	8	Radiación solar	26
27257	7	Sololá	712	San Antonio Palopó	9	San Antonio Palopo	12	Diciembre	2023-12-27T00:00:00	2024-11-08T09:00:00	2	Temperatura media	16.3
27258	7	Sololá	712	San Antonio Palopó	9	San Antonio Palopo	12	Diciembre	2023-12-27T00:00:00	2024-11-08T09:00:00	4	Temperatura máxima	16.3
27259	7	Sololá	712	San Antonio Palopó	9	San Antonio Palopo	12	Diciembre	2023-12-27T00:00:00	2024-11-08T09:00:00	3	Temperatura mínima	15.2
27260	7	Sololá	712	San Antonio Palopó	9	San Antonio Palopo	12	Diciembre	2023-12-27T00:00:00	2024-11-08T09:00:00	5	Humedad	79
27261	7	Sololá	712	San Antonio Palopó	9	San Antonio Palopo	12	Diciembre	2023-12-27T00:00:00	2024-11-08T09:00:00	6	Velocidad del viento	3.2
27262	7	Sololá	712	San Antonio Palopó	9	San Antonio Palopo	12	Diciembre	2023-12-27T00:00:00	2024-11-08T09:00:00	7	Dirección del viento	3.22
27263	7	Sololá	712	San Antonio Palopó	9	San Antonio Palopo	12	Diciembre	2023-12-27T00:00:00	2024-11-08T09:00:00	1	Precipitación	0
27264	7	Sololá	712	San Antonio Palopó	9	San Antonio Palopo	12	Diciembre	2023-12-27T00:00:00	2024-11-08T09:00:00	8	Radiación solar	88
27265	7	Sololá	712	San Antonio Palopó	9	San Antonio Palopo	12	Diciembre	2023-12-27T00:00:00	2024-11-08T10:00:00	2	Temperatura media	18.3
27266	7	Sololá	712	San Antonio Palopó	9	San Antonio Palopo	12	Diciembre	2023-12-27T00:00:00	2024-11-08T10:00:00	4	Temperatura máxima	18.7
27267	7	Sololá	712	San Antonio Palopó	9	San Antonio Palopo	12	Diciembre	2023-12-27T00:00:00	2024-11-08T10:00:00	3	Temperatura mínima	16.3
27268	7	Sololá	712	San Antonio Palopó	9	San Antonio Palopo	12	Diciembre	2023-12-27T00:00:00	2024-11-08T10:00:00	5	Humedad	75
27269	7	Sololá	712	San Antonio Palopó	9	San Antonio Palopo	12	Diciembre	2023-12-27T00:00:00	2024-11-08T10:00:00	6	Velocidad del viento	1.6
27270	7	Sololá	712	San Antonio Palopó	9	San Antonio Palopo	12	Diciembre	2023-12-27T00:00:00	2024-11-08T10:00:00	7	Dirección del viento	1.61
27271	7	Sololá	712	San Antonio Palopó	9	San Antonio Palopo	12	Diciembre	2023-12-27T00:00:00	2024-11-08T10:00:00	1	Precipitación	0
27272	7	Sololá	712	San Antonio Palopó	9	San Antonio Palopo	12	Diciembre	2023-12-27T00:00:00	2024-11-08T10:00:00	8	Radiación solar	387
27273	7	Sololá	712	San Antonio Palopó	9	San Antonio Palopo	12	Diciembre	2023-12-27T00:00:00	2024-11-08T11:00:00	2	Temperatura media	19.2
27274	7	Sololá	712	San Antonio Palopó	9	San Antonio Palopo	12	Diciembre	2023-12-27T00:00:00	2024-11-08T11:00:00	4	Temperatura máxima	19.4
27275	7	Sololá	712	San Antonio Palopó	9	San Antonio Palopo	12	Diciembre	2023-12-27T00:00:00	2024-11-08T11:00:00	3	Temperatura mínima	18.3
27276	7	Sololá	712	San Antonio Palopó	9	San Antonio Palopo	12	Diciembre	2023-12-27T00:00:00	2024-11-08T11:00:00	5	Humedad	76
27277	7	Sololá	712	San Antonio Palopó	9	San Antonio Palopo	12	Diciembre	2023-12-27T00:00:00	2024-11-08T11:00:00	6	Velocidad del viento	1.6
27278	7	Sololá	712	San Antonio Palopó	9	San Antonio Palopo	12	Diciembre	2023-12-27T00:00:00	2024-11-08T11:00:00	7	Dirección del viento	1.61
27279	7	Sololá	712	San Antonio Palopó	9	San Antonio Palopo	12	Diciembre	2023-12-27T00:00:00	2024-11-08T11:00:00	1	Precipitación	0
27280	7	Sololá	712	San Antonio Palopó	9	San Antonio Palopo	12	Diciembre	2023-12-27T00:00:00	2024-11-08T11:00:00	8	Radiación solar	465
27281	7	Sololá	712	San Antonio Palopó	9	San Antonio Palopo	12	Diciembre	2023-12-27T00:00:00	2024-11-08T12:00:00	2	Temperatura media	20.9
27282	7	Sololá	712	San Antonio Palopó	9	San Antonio Palopo	12	Diciembre	2023-12-27T00:00:00	2024-11-08T12:00:00	4	Temperatura máxima	21
27283	7	Sololá	712	San Antonio Palopó	9	San Antonio Palopo	12	Diciembre	2023-12-27T00:00:00	2024-11-08T12:00:00	3	Temperatura mínima	19.3
27284	7	Sololá	712	San Antonio Palopó	9	San Antonio Palopo	12	Diciembre	2023-12-27T00:00:00	2024-11-08T12:00:00	5	Humedad	68
27285	7	Sololá	712	San Antonio Palopó	9	San Antonio Palopo	12	Diciembre	2023-12-27T00:00:00	2024-11-08T12:00:00	6	Velocidad del viento	3.2
27286	7	Sololá	712	San Antonio Palopó	9	San Antonio Palopo	12	Diciembre	2023-12-27T00:00:00	2024-11-08T12:00:00	7	Dirección del viento	3.22
27287	7	Sololá	712	San Antonio Palopó	9	San Antonio Palopo	12	Diciembre	2023-12-27T00:00:00	2024-11-08T12:00:00	1	Precipitación	0
27288	7	Sololá	712	San Antonio Palopó	9	San Antonio Palopo	12	Diciembre	2023-12-27T00:00:00	2024-11-08T12:00:00	8	Radiación solar	554
27289	7	Sololá	712	San Antonio Palopó	9	San Antonio Palopo	12	Diciembre	2023-12-27T00:00:00	2024-11-08T13:00:00	2	Temperatura media	22.7
27290	7	Sololá	712	San Antonio Palopó	9	San Antonio Palopo	12	Diciembre	2023-12-27T00:00:00	2024-11-08T13:00:00	4	Temperatura máxima	22.8
27291	7	Sololá	712	San Antonio Palopó	9	San Antonio Palopo	12	Diciembre	2023-12-27T00:00:00	2024-11-08T13:00:00	3	Temperatura mínima	20.7
27292	7	Sololá	712	San Antonio Palopó	9	San Antonio Palopo	12	Diciembre	2023-12-27T00:00:00	2024-11-08T13:00:00	5	Humedad	61
27293	7	Sololá	712	San Antonio Palopó	9	San Antonio Palopo	12	Diciembre	2023-12-27T00:00:00	2024-11-08T13:00:00	6	Velocidad del viento	3.2
27294	7	Sololá	712	San Antonio Palopó	9	San Antonio Palopo	12	Diciembre	2023-12-27T00:00:00	2024-11-08T13:00:00	7	Dirección del viento	3.22
27295	7	Sololá	712	San Antonio Palopó	9	San Antonio Palopo	12	Diciembre	2023-12-27T00:00:00	2024-11-08T13:00:00	1	Precipitación	0
27296	7	Sololá	712	San Antonio Palopó	9	San Antonio Palopo	12	Diciembre	2023-12-27T00:00:00	2024-11-08T13:00:00	8	Radiación solar	778
27297	7	Sololá	712	San Antonio Palopó	9	San Antonio Palopo	12	Diciembre	2023-12-27T00:00:00	2024-11-08T14:00:00	2	Temperatura media	23.2
27298	7	Sololá	712	San Antonio Palopó	9	San Antonio Palopo	12	Diciembre	2023-12-27T00:00:00	2024-11-08T14:00:00	4	Temperatura máxima	23.8
27299	7	Sololá	712	San Antonio Palopó	9	San Antonio Palopo	12	Diciembre	2023-12-27T00:00:00	2024-11-08T14:00:00	3	Temperatura mínima	22.6
27300	7	Sololá	712	San Antonio Palopó	9	San Antonio Palopo	12	Diciembre	2023-12-27T00:00:00	2024-11-08T14:00:00	5	Humedad	65
27301	7	Sololá	712	San Antonio Palopó	9	San Antonio Palopo	12	Diciembre	2023-12-27T00:00:00	2024-11-08T14:00:00	6	Velocidad del viento	4.8
27302	7	Sololá	712	San Antonio Palopó	9	San Antonio Palopo	12	Diciembre	2023-12-27T00:00:00	2024-11-08T14:00:00	7	Dirección del viento	4.83
27303	7	Sololá	712	San Antonio Palopó	9	San Antonio Palopo	12	Diciembre	2023-12-27T00:00:00	2024-11-08T14:00:00	1	Precipitación	0
27304	7	Sololá	712	San Antonio Palopó	9	San Antonio Palopo	12	Diciembre	2023-12-27T00:00:00	2024-11-08T14:00:00	8	Radiación solar	693
27305	7	Sololá	712	San Antonio Palopó	9	San Antonio Palopo	12	Diciembre	2023-12-27T00:00:00	2024-11-08T15:00:00	2	Temperatura media	23.5
27306	7	Sololá	712	San Antonio Palopó	9	San Antonio Palopo	12	Diciembre	2023-12-27T00:00:00	2024-11-08T15:00:00	4	Temperatura máxima	23.5
27307	7	Sololá	712	San Antonio Palopó	9	San Antonio Palopo	12	Diciembre	2023-12-27T00:00:00	2024-11-08T15:00:00	3	Temperatura mínima	22.8
27308	7	Sololá	712	San Antonio Palopó	9	San Antonio Palopo	12	Diciembre	2023-12-27T00:00:00	2024-11-08T15:00:00	5	Humedad	66
27309	7	Sololá	712	San Antonio Palopó	9	San Antonio Palopo	12	Diciembre	2023-12-27T00:00:00	2024-11-08T15:00:00	6	Velocidad del viento	6.4
27310	7	Sololá	712	San Antonio Palopó	9	San Antonio Palopo	12	Diciembre	2023-12-27T00:00:00	2024-11-08T15:00:00	7	Dirección del viento	6.44
27311	7	Sololá	712	San Antonio Palopó	9	San Antonio Palopo	12	Diciembre	2023-12-27T00:00:00	2024-11-08T15:00:00	1	Precipitación	0
27312	7	Sololá	712	San Antonio Palopó	9	San Antonio Palopo	12	Diciembre	2023-12-27T00:00:00	2024-11-08T15:00:00	8	Radiación solar	540
27313	7	Sololá	712	San Antonio Palopó	9	San Antonio Palopo	12	Diciembre	2023-12-27T00:00:00	2024-11-08T16:00:00	2	Temperatura media	21.9
27314	7	Sololá	712	San Antonio Palopó	9	San Antonio Palopo	12	Diciembre	2023-12-27T00:00:00	2024-11-08T16:00:00	4	Temperatura máxima	23.7
27315	7	Sololá	712	San Antonio Palopó	9	San Antonio Palopo	12	Diciembre	2023-12-27T00:00:00	2024-11-08T16:00:00	3	Temperatura mínima	21.3
27316	7	Sololá	712	San Antonio Palopó	9	San Antonio Palopo	12	Diciembre	2023-12-27T00:00:00	2024-11-08T16:00:00	5	Humedad	70
27317	7	Sololá	712	San Antonio Palopó	9	San Antonio Palopo	12	Diciembre	2023-12-27T00:00:00	2024-11-08T16:00:00	6	Velocidad del viento	9.7
27318	7	Sololá	712	San Antonio Palopó	9	San Antonio Palopo	12	Diciembre	2023-12-27T00:00:00	2024-11-08T16:00:00	7	Dirección del viento	9.66
27319	7	Sololá	712	San Antonio Palopó	9	San Antonio Palopo	12	Diciembre	2023-12-27T00:00:00	2024-11-08T16:00:00	1	Precipitación	0
27320	7	Sololá	712	San Antonio Palopó	9	San Antonio Palopo	12	Diciembre	2023-12-27T00:00:00	2024-11-08T16:00:00	8	Radiación solar	288
27321	7	Sololá	712	San Antonio Palopó	9	San Antonio Palopo	12	Diciembre	2023-12-27T00:00:00	2024-11-08T17:00:00	2	Temperatura media	21.6
27322	7	Sololá	712	San Antonio Palopó	9	San Antonio Palopo	12	Diciembre	2023-12-27T00:00:00	2024-11-08T17:00:00	4	Temperatura máxima	22.4
27323	7	Sololá	712	San Antonio Palopó	9	San Antonio Palopo	12	Diciembre	2023-12-27T00:00:00	2024-11-08T17:00:00	3	Temperatura mínima	21.4
27324	7	Sololá	712	San Antonio Palopó	9	San Antonio Palopo	12	Diciembre	2023-12-27T00:00:00	2024-11-08T17:00:00	5	Humedad	71
27325	7	Sololá	712	San Antonio Palopó	9	San Antonio Palopo	12	Diciembre	2023-12-27T00:00:00	2024-11-08T17:00:00	6	Velocidad del viento	8
27326	7	Sololá	712	San Antonio Palopó	9	San Antonio Palopo	12	Diciembre	2023-12-27T00:00:00	2024-11-08T17:00:00	7	Dirección del viento	8.05
27327	7	Sololá	712	San Antonio Palopó	9	San Antonio Palopo	12	Diciembre	2023-12-27T00:00:00	2024-11-08T17:00:00	1	Precipitación	0
27328	7	Sololá	712	San Antonio Palopó	9	San Antonio Palopo	12	Diciembre	2023-12-27T00:00:00	2024-11-08T17:00:00	8	Radiación solar	162
27329	7	Sololá	712	San Antonio Palopó	9	San Antonio Palopo	12	Diciembre	2023-12-27T00:00:00	2024-11-08T18:00:00	2	Temperatura media	19.8
27330	7	Sololá	712	San Antonio Palopó	9	San Antonio Palopo	12	Diciembre	2023-12-27T00:00:00	2024-11-08T18:00:00	4	Temperatura máxima	21.7
27331	7	Sololá	712	San Antonio Palopó	9	San Antonio Palopo	12	Diciembre	2023-12-27T00:00:00	2024-11-08T18:00:00	3	Temperatura mínima	19.8
27332	7	Sololá	712	San Antonio Palopó	9	San Antonio Palopo	12	Diciembre	2023-12-27T00:00:00	2024-11-08T18:00:00	5	Humedad	76
27333	7	Sololá	712	San Antonio Palopó	9	San Antonio Palopo	12	Diciembre	2023-12-27T00:00:00	2024-11-08T18:00:00	6	Velocidad del viento	3.2
27334	7	Sololá	712	San Antonio Palopó	9	San Antonio Palopo	12	Diciembre	2023-12-27T00:00:00	2024-11-08T18:00:00	7	Dirección del viento	3.22
27335	7	Sololá	712	San Antonio Palopó	9	San Antonio Palopo	12	Diciembre	2023-12-27T00:00:00	2024-11-08T18:00:00	1	Precipitación	0
27336	7	Sololá	712	San Antonio Palopó	9	San Antonio Palopo	12	Diciembre	2023-12-27T00:00:00	2024-11-08T18:00:00	8	Radiación solar	30
27337	7	Sololá	712	San Antonio Palopó	9	San Antonio Palopo	12	Diciembre	2023-12-27T00:00:00	2024-11-08T19:00:00	2	Temperatura media	18.9
27338	7	Sololá	712	San Antonio Palopó	9	San Antonio Palopo	12	Diciembre	2023-12-27T00:00:00	2024-11-08T19:00:00	4	Temperatura máxima	19.8
27339	7	Sololá	712	San Antonio Palopó	9	San Antonio Palopo	12	Diciembre	2023-12-27T00:00:00	2024-11-08T19:00:00	3	Temperatura mínima	18.9
27340	7	Sololá	712	San Antonio Palopó	9	San Antonio Palopo	12	Diciembre	2023-12-27T00:00:00	2024-11-08T19:00:00	5	Humedad	73
27341	7	Sololá	712	San Antonio Palopó	9	San Antonio Palopo	12	Diciembre	2023-12-27T00:00:00	2024-11-08T19:00:00	6	Velocidad del viento	1.6
27342	7	Sololá	712	San Antonio Palopó	9	San Antonio Palopo	12	Diciembre	2023-12-27T00:00:00	2024-11-08T19:00:00	7	Dirección del viento	1.61
27343	7	Sololá	712	San Antonio Palopó	9	San Antonio Palopo	12	Diciembre	2023-12-27T00:00:00	2024-11-08T19:00:00	1	Precipitación	0
27344	7	Sololá	712	San Antonio Palopó	9	San Antonio Palopo	12	Diciembre	2023-12-27T00:00:00	2024-11-08T19:00:00	8	Radiación solar	0
27345	7	Sololá	712	San Antonio Palopó	9	San Antonio Palopo	12	Diciembre	2023-12-27T00:00:00	2024-11-08T20:00:00	2	Temperatura media	17.7
27346	7	Sololá	712	San Antonio Palopó	9	San Antonio Palopo	12	Diciembre	2023-12-27T00:00:00	2024-11-08T20:00:00	4	Temperatura máxima	18.9
27347	7	Sololá	712	San Antonio Palopó	9	San Antonio Palopo	12	Diciembre	2023-12-27T00:00:00	2024-11-08T20:00:00	3	Temperatura mínima	17.7
27348	7	Sololá	712	San Antonio Palopó	9	San Antonio Palopo	12	Diciembre	2023-12-27T00:00:00	2024-11-08T20:00:00	5	Humedad	77
27349	7	Sololá	712	San Antonio Palopó	9	San Antonio Palopo	12	Diciembre	2023-12-27T00:00:00	2024-11-08T20:00:00	6	Velocidad del viento	3.2
27350	7	Sololá	712	San Antonio Palopó	9	San Antonio Palopo	12	Diciembre	2023-12-27T00:00:00	2024-11-08T20:00:00	7	Dirección del viento	3.22
27351	7	Sololá	712	San Antonio Palopó	9	San Antonio Palopo	12	Diciembre	2023-12-27T00:00:00	2024-11-08T20:00:00	1	Precipitación	0
27352	7	Sololá	712	San Antonio Palopó	9	San Antonio Palopo	12	Diciembre	2023-12-27T00:00:00	2024-11-08T20:00:00	8	Radiación solar	0
27353	7	Sololá	712	San Antonio Palopó	9	San Antonio Palopo	12	Diciembre	2023-12-27T00:00:00	2024-11-08T21:00:00	2	Temperatura media	17.9
27354	7	Sololá	712	San Antonio Palopó	9	San Antonio Palopo	12	Diciembre	2023-12-27T00:00:00	2024-11-08T21:00:00	4	Temperatura máxima	17.9
27355	7	Sololá	712	San Antonio Palopó	9	San Antonio Palopo	12	Diciembre	2023-12-27T00:00:00	2024-11-08T21:00:00	3	Temperatura mínima	17.4
27356	7	Sololá	712	San Antonio Palopó	9	San Antonio Palopo	12	Diciembre	2023-12-27T00:00:00	2024-11-08T21:00:00	5	Humedad	79
27357	7	Sololá	712	San Antonio Palopó	9	San Antonio Palopo	12	Diciembre	2023-12-27T00:00:00	2024-11-08T21:00:00	6	Velocidad del viento	3.2
27358	7	Sololá	712	San Antonio Palopó	9	San Antonio Palopo	12	Diciembre	2023-12-27T00:00:00	2024-11-08T21:00:00	7	Dirección del viento	3.22
27359	7	Sololá	712	San Antonio Palopó	9	San Antonio Palopo	12	Diciembre	2023-12-27T00:00:00	2024-11-08T21:00:00	1	Precipitación	0
27360	7	Sololá	712	San Antonio Palopó	9	San Antonio Palopo	12	Diciembre	2023-12-27T00:00:00	2024-11-08T21:00:00	8	Radiación solar	0
27361	7	Sololá	712	San Antonio Palopó	9	San Antonio Palopo	12	Diciembre	2023-12-27T00:00:00	2024-11-08T22:00:00	2	Temperatura media	17.2
27362	7	Sololá	712	San Antonio Palopó	9	San Antonio Palopo	12	Diciembre	2023-12-27T00:00:00	2024-11-08T22:00:00	4	Temperatura máxima	17.9
27363	7	Sololá	712	San Antonio Palopó	9	San Antonio Palopo	12	Diciembre	2023-12-27T00:00:00	2024-11-08T22:00:00	3	Temperatura mínima	17.2
27364	7	Sololá	712	San Antonio Palopó	9	San Antonio Palopo	12	Diciembre	2023-12-27T00:00:00	2024-11-08T22:00:00	5	Humedad	78
27365	7	Sololá	712	San Antonio Palopó	9	San Antonio Palopo	12	Diciembre	2023-12-27T00:00:00	2024-11-08T22:00:00	6	Velocidad del viento	1.6
27366	7	Sololá	712	San Antonio Palopó	9	San Antonio Palopo	12	Diciembre	2023-12-27T00:00:00	2024-11-08T22:00:00	7	Dirección del viento	1.61
27367	7	Sololá	712	San Antonio Palopó	9	San Antonio Palopo	12	Diciembre	2023-12-27T00:00:00	2024-11-08T22:00:00	1	Precipitación	0
27368	7	Sololá	712	San Antonio Palopó	9	San Antonio Palopo	12	Diciembre	2023-12-27T00:00:00	2024-11-08T22:00:00	8	Radiación solar	0
27369	7	Sololá	712	San Antonio Palopó	9	San Antonio Palopo	12	Diciembre	2023-12-27T00:00:00	2024-11-08T23:00:00	2	Temperatura media	17.2
27370	7	Sololá	712	San Antonio Palopó	9	San Antonio Palopo	12	Diciembre	2023-12-27T00:00:00	2024-11-08T23:00:00	4	Temperatura máxima	17.2
27371	7	Sololá	712	San Antonio Palopó	9	San Antonio Palopo	12	Diciembre	2023-12-27T00:00:00	2024-11-08T23:00:00	3	Temperatura mínima	16.7
27372	7	Sololá	712	San Antonio Palopó	9	San Antonio Palopo	12	Diciembre	2023-12-27T00:00:00	2024-11-08T23:00:00	5	Humedad	79
27373	7	Sololá	712	San Antonio Palopó	9	San Antonio Palopo	12	Diciembre	2023-12-27T00:00:00	2024-11-08T23:00:00	6	Velocidad del viento	3.2
27374	7	Sololá	712	San Antonio Palopó	9	San Antonio Palopo	12	Diciembre	2023-12-27T00:00:00	2024-11-08T23:00:00	7	Dirección del viento	3.22
27375	7	Sololá	712	San Antonio Palopó	9	San Antonio Palopo	12	Diciembre	2023-12-27T00:00:00	2024-11-08T23:00:00	1	Precipitación	0
27376	7	Sololá	712	San Antonio Palopó	9	San Antonio Palopo	12	Diciembre	2023-12-27T00:00:00	2024-11-08T23:00:00	8	Radiación solar	0
27377	7	Sololá	712	San Antonio Palopó	9	San Antonio Palopo	12	Diciembre	2023-12-28T00:00:00	2024-11-08T00:00:00	2	Temperatura media	17.3
27378	7	Sololá	712	San Antonio Palopó	9	San Antonio Palopo	12	Diciembre	2023-12-28T00:00:00	2024-11-08T00:00:00	4	Temperatura máxima	17.3
27379	7	Sololá	712	San Antonio Palopó	9	San Antonio Palopo	12	Diciembre	2023-12-28T00:00:00	2024-11-08T00:00:00	3	Temperatura mínima	16.6
27380	7	Sololá	712	San Antonio Palopó	9	San Antonio Palopo	12	Diciembre	2023-12-28T00:00:00	2024-11-08T00:00:00	5	Humedad	79
27381	7	Sololá	712	San Antonio Palopó	9	San Antonio Palopo	12	Diciembre	2023-12-28T00:00:00	2024-11-08T00:00:00	6	Velocidad del viento	3.2
27382	7	Sololá	712	San Antonio Palopó	9	San Antonio Palopo	12	Diciembre	2023-12-28T00:00:00	2024-11-08T00:00:00	7	Dirección del viento	3.22
27383	7	Sololá	712	San Antonio Palopó	9	San Antonio Palopo	12	Diciembre	2023-12-28T00:00:00	2024-11-08T00:00:00	1	Precipitación	0
27384	7	Sololá	712	San Antonio Palopó	9	San Antonio Palopo	12	Diciembre	2023-12-28T00:00:00	2024-11-08T00:00:00	8	Radiación solar	0
27385	7	Sololá	712	San Antonio Palopó	9	San Antonio Palopo	12	Diciembre	2023-12-28T00:00:00	2024-11-08T01:00:00	2	Temperatura media	15.9
27386	7	Sololá	712	San Antonio Palopó	9	San Antonio Palopo	12	Diciembre	2023-12-28T00:00:00	2024-11-08T01:00:00	4	Temperatura máxima	17.3
27387	7	Sololá	712	San Antonio Palopó	9	San Antonio Palopo	12	Diciembre	2023-12-28T00:00:00	2024-11-08T01:00:00	3	Temperatura mínima	15.8
27388	7	Sololá	712	San Antonio Palopó	9	San Antonio Palopo	12	Diciembre	2023-12-28T00:00:00	2024-11-08T01:00:00	5	Humedad	80
27389	7	Sololá	712	San Antonio Palopó	9	San Antonio Palopo	12	Diciembre	2023-12-28T00:00:00	2024-11-08T01:00:00	6	Velocidad del viento	3.2
27390	7	Sololá	712	San Antonio Palopó	9	San Antonio Palopo	12	Diciembre	2023-12-28T00:00:00	2024-11-08T01:00:00	7	Dirección del viento	3.22
27391	7	Sololá	712	San Antonio Palopó	9	San Antonio Palopo	12	Diciembre	2023-12-28T00:00:00	2024-11-08T01:00:00	1	Precipitación	0
27392	7	Sololá	712	San Antonio Palopó	9	San Antonio Palopo	12	Diciembre	2023-12-28T00:00:00	2024-11-08T01:00:00	8	Radiación solar	0
27393	7	Sololá	712	San Antonio Palopó	9	San Antonio Palopo	12	Diciembre	2023-12-28T00:00:00	2024-11-08T02:00:00	2	Temperatura media	15.2
27394	7	Sololá	712	San Antonio Palopó	9	San Antonio Palopo	12	Diciembre	2023-12-28T00:00:00	2024-11-08T02:00:00	4	Temperatura máxima	15.9
27395	7	Sololá	712	San Antonio Palopó	9	San Antonio Palopo	12	Diciembre	2023-12-28T00:00:00	2024-11-08T02:00:00	3	Temperatura mínima	15.2
27396	7	Sololá	712	San Antonio Palopó	9	San Antonio Palopo	12	Diciembre	2023-12-28T00:00:00	2024-11-08T02:00:00	5	Humedad	75
27397	7	Sololá	712	San Antonio Palopó	9	San Antonio Palopo	12	Diciembre	2023-12-28T00:00:00	2024-11-08T02:00:00	6	Velocidad del viento	3.2
27398	7	Sololá	712	San Antonio Palopó	9	San Antonio Palopo	12	Diciembre	2023-12-28T00:00:00	2024-11-08T02:00:00	7	Dirección del viento	3.22
27399	7	Sololá	712	San Antonio Palopó	9	San Antonio Palopo	12	Diciembre	2023-12-28T00:00:00	2024-11-08T02:00:00	1	Precipitación	0
27400	7	Sololá	712	San Antonio Palopó	9	San Antonio Palopo	12	Diciembre	2023-12-28T00:00:00	2024-11-08T02:00:00	8	Radiación solar	0
27401	7	Sololá	712	San Antonio Palopó	9	San Antonio Palopo	12	Diciembre	2023-12-28T00:00:00	2024-11-08T03:00:00	2	Temperatura media	15.1
27402	7	Sololá	712	San Antonio Palopó	9	San Antonio Palopo	12	Diciembre	2023-12-28T00:00:00	2024-11-08T03:00:00	4	Temperatura máxima	15.3
27403	7	Sololá	712	San Antonio Palopó	9	San Antonio Palopo	12	Diciembre	2023-12-28T00:00:00	2024-11-08T03:00:00	3	Temperatura mínima	14.8
27404	7	Sololá	712	San Antonio Palopó	9	San Antonio Palopo	12	Diciembre	2023-12-28T00:00:00	2024-11-08T03:00:00	5	Humedad	76
27405	7	Sololá	712	San Antonio Palopó	9	San Antonio Palopo	12	Diciembre	2023-12-28T00:00:00	2024-11-08T03:00:00	6	Velocidad del viento	3.2
27406	7	Sololá	712	San Antonio Palopó	9	San Antonio Palopo	12	Diciembre	2023-12-28T00:00:00	2024-11-08T03:00:00	7	Dirección del viento	3.22
27407	7	Sololá	712	San Antonio Palopó	9	San Antonio Palopo	12	Diciembre	2023-12-28T00:00:00	2024-11-08T03:00:00	1	Precipitación	0
27408	7	Sololá	712	San Antonio Palopó	9	San Antonio Palopo	12	Diciembre	2023-12-28T00:00:00	2024-11-08T03:00:00	8	Radiación solar	0
27409	7	Sololá	712	San Antonio Palopó	9	San Antonio Palopo	12	Diciembre	2023-12-28T00:00:00	2024-11-08T04:00:00	2	Temperatura media	14.4
27410	7	Sololá	712	San Antonio Palopó	9	San Antonio Palopo	12	Diciembre	2023-12-28T00:00:00	2024-11-08T04:00:00	4	Temperatura máxima	15.1
27411	7	Sololá	712	San Antonio Palopó	9	San Antonio Palopo	12	Diciembre	2023-12-28T00:00:00	2024-11-08T04:00:00	3	Temperatura mínima	14.4
27412	7	Sololá	712	San Antonio Palopó	9	San Antonio Palopo	12	Diciembre	2023-12-28T00:00:00	2024-11-08T04:00:00	5	Humedad	74
27413	7	Sololá	712	San Antonio Palopó	9	San Antonio Palopo	12	Diciembre	2023-12-28T00:00:00	2024-11-08T04:00:00	6	Velocidad del viento	4.8
27414	7	Sololá	712	San Antonio Palopó	9	San Antonio Palopo	12	Diciembre	2023-12-28T00:00:00	2024-11-08T04:00:00	7	Dirección del viento	4.83
27415	7	Sololá	712	San Antonio Palopó	9	San Antonio Palopo	12	Diciembre	2023-12-28T00:00:00	2024-11-08T04:00:00	1	Precipitación	0
27416	7	Sololá	712	San Antonio Palopó	9	San Antonio Palopo	12	Diciembre	2023-12-28T00:00:00	2024-11-08T04:00:00	8	Radiación solar	0
27417	7	Sololá	712	San Antonio Palopó	9	San Antonio Palopo	12	Diciembre	2023-12-28T00:00:00	2024-11-08T05:00:00	2	Temperatura media	14.2
27418	7	Sololá	712	San Antonio Palopó	9	San Antonio Palopo	12	Diciembre	2023-12-28T00:00:00	2024-11-08T05:00:00	4	Temperatura máxima	14.4
27419	7	Sololá	712	San Antonio Palopó	9	San Antonio Palopo	12	Diciembre	2023-12-28T00:00:00	2024-11-08T05:00:00	3	Temperatura mínima	14.2
27420	7	Sololá	712	San Antonio Palopó	9	San Antonio Palopo	12	Diciembre	2023-12-28T00:00:00	2024-11-08T05:00:00	5	Humedad	75
27421	7	Sololá	712	San Antonio Palopó	9	San Antonio Palopo	12	Diciembre	2023-12-28T00:00:00	2024-11-08T05:00:00	6	Velocidad del viento	4.8
27422	7	Sololá	712	San Antonio Palopó	9	San Antonio Palopo	12	Diciembre	2023-12-28T00:00:00	2024-11-08T05:00:00	7	Dirección del viento	4.83
27423	7	Sololá	712	San Antonio Palopó	9	San Antonio Palopo	12	Diciembre	2023-12-28T00:00:00	2024-11-08T05:00:00	1	Precipitación	0
27424	7	Sololá	712	San Antonio Palopó	9	San Antonio Palopo	12	Diciembre	2023-12-28T00:00:00	2024-11-08T05:00:00	8	Radiación solar	0
27425	7	Sololá	712	San Antonio Palopó	9	San Antonio Palopo	12	Diciembre	2023-12-28T00:00:00	2024-11-08T06:00:00	2	Temperatura media	14.4
27426	7	Sololá	712	San Antonio Palopó	9	San Antonio Palopo	12	Diciembre	2023-12-28T00:00:00	2024-11-08T06:00:00	4	Temperatura máxima	14.6
27427	7	Sololá	712	San Antonio Palopó	9	San Antonio Palopo	12	Diciembre	2023-12-28T00:00:00	2024-11-08T06:00:00	3	Temperatura mínima	14
27428	7	Sololá	712	San Antonio Palopó	9	San Antonio Palopo	12	Diciembre	2023-12-28T00:00:00	2024-11-08T06:00:00	5	Humedad	73
27429	7	Sololá	712	San Antonio Palopó	9	San Antonio Palopo	12	Diciembre	2023-12-28T00:00:00	2024-11-08T06:00:00	6	Velocidad del viento	4.8
27430	7	Sololá	712	San Antonio Palopó	9	San Antonio Palopo	12	Diciembre	2023-12-28T00:00:00	2024-11-08T06:00:00	7	Dirección del viento	4.83
27431	7	Sololá	712	San Antonio Palopó	9	San Antonio Palopo	12	Diciembre	2023-12-28T00:00:00	2024-11-08T06:00:00	1	Precipitación	0
27432	7	Sololá	712	San Antonio Palopó	9	San Antonio Palopo	12	Diciembre	2023-12-28T00:00:00	2024-11-08T06:00:00	8	Radiación solar	0
27433	7	Sololá	712	San Antonio Palopó	9	San Antonio Palopo	12	Diciembre	2023-12-28T00:00:00	2024-11-08T07:00:00	2	Temperatura media	14.1
27434	7	Sololá	712	San Antonio Palopó	9	San Antonio Palopo	12	Diciembre	2023-12-28T00:00:00	2024-11-08T07:00:00	4	Temperatura máxima	14.4
27435	7	Sololá	712	San Antonio Palopó	9	San Antonio Palopo	12	Diciembre	2023-12-28T00:00:00	2024-11-08T07:00:00	3	Temperatura mínima	13.9
27436	7	Sololá	712	San Antonio Palopó	9	San Antonio Palopo	12	Diciembre	2023-12-28T00:00:00	2024-11-08T07:00:00	5	Humedad	74
27437	7	Sololá	712	San Antonio Palopó	9	San Antonio Palopo	12	Diciembre	2023-12-28T00:00:00	2024-11-08T07:00:00	6	Velocidad del viento	4.8
27438	7	Sololá	712	San Antonio Palopó	9	San Antonio Palopo	12	Diciembre	2023-12-28T00:00:00	2024-11-08T07:00:00	7	Dirección del viento	4.83
27439	7	Sololá	712	San Antonio Palopó	9	San Antonio Palopo	12	Diciembre	2023-12-28T00:00:00	2024-11-08T07:00:00	1	Precipitación	0
27440	7	Sololá	712	San Antonio Palopó	9	San Antonio Palopo	12	Diciembre	2023-12-28T00:00:00	2024-11-08T07:00:00	8	Radiación solar	5
27441	7	Sololá	712	San Antonio Palopó	9	San Antonio Palopo	12	Diciembre	2023-12-28T00:00:00	2024-11-08T08:00:00	2	Temperatura media	14.4
27442	7	Sololá	712	San Antonio Palopó	9	San Antonio Palopo	12	Diciembre	2023-12-28T00:00:00	2024-11-08T08:00:00	4	Temperatura máxima	14.6
27443	7	Sololá	712	San Antonio Palopó	9	San Antonio Palopo	12	Diciembre	2023-12-28T00:00:00	2024-11-08T08:00:00	3	Temperatura mínima	14
27444	7	Sololá	712	San Antonio Palopó	9	San Antonio Palopo	12	Diciembre	2023-12-28T00:00:00	2024-11-08T08:00:00	5	Humedad	74
27445	7	Sololá	712	San Antonio Palopó	9	San Antonio Palopo	12	Diciembre	2023-12-28T00:00:00	2024-11-08T08:00:00	6	Velocidad del viento	3.2
27446	7	Sololá	712	San Antonio Palopó	9	San Antonio Palopo	12	Diciembre	2023-12-28T00:00:00	2024-11-08T08:00:00	7	Dirección del viento	3.22
27447	7	Sololá	712	San Antonio Palopó	9	San Antonio Palopo	12	Diciembre	2023-12-28T00:00:00	2024-11-08T08:00:00	1	Precipitación	0
27448	7	Sololá	712	San Antonio Palopó	9	San Antonio Palopo	12	Diciembre	2023-12-28T00:00:00	2024-11-08T08:00:00	8	Radiación solar	17
27449	7	Sololá	712	San Antonio Palopó	9	San Antonio Palopo	12	Diciembre	2023-12-28T00:00:00	2024-11-08T09:00:00	2	Temperatura media	15.6
27450	7	Sololá	712	San Antonio Palopó	9	San Antonio Palopo	12	Diciembre	2023-12-28T00:00:00	2024-11-08T09:00:00	4	Temperatura máxima	15.6
27451	7	Sololá	712	San Antonio Palopó	9	San Antonio Palopo	12	Diciembre	2023-12-28T00:00:00	2024-11-08T09:00:00	3	Temperatura mínima	14.3
27452	7	Sololá	712	San Antonio Palopó	9	San Antonio Palopo	12	Diciembre	2023-12-28T00:00:00	2024-11-08T09:00:00	5	Humedad	73
27453	7	Sololá	712	San Antonio Palopó	9	San Antonio Palopo	12	Diciembre	2023-12-28T00:00:00	2024-11-08T09:00:00	6	Velocidad del viento	3.2
27454	7	Sololá	712	San Antonio Palopó	9	San Antonio Palopo	12	Diciembre	2023-12-28T00:00:00	2024-11-08T09:00:00	7	Dirección del viento	3.22
27455	7	Sololá	712	San Antonio Palopó	9	San Antonio Palopo	12	Diciembre	2023-12-28T00:00:00	2024-11-08T09:00:00	1	Precipitación	0
27456	7	Sololá	712	San Antonio Palopó	9	San Antonio Palopo	12	Diciembre	2023-12-28T00:00:00	2024-11-08T09:00:00	8	Radiación solar	87
27457	7	Sololá	712	San Antonio Palopó	9	San Antonio Palopo	12	Diciembre	2023-12-28T00:00:00	2024-11-08T10:00:00	2	Temperatura media	18.3
27458	7	Sololá	712	San Antonio Palopó	9	San Antonio Palopo	12	Diciembre	2023-12-28T00:00:00	2024-11-08T10:00:00	4	Temperatura máxima	19.2
27459	7	Sololá	712	San Antonio Palopó	9	San Antonio Palopo	12	Diciembre	2023-12-28T00:00:00	2024-11-08T10:00:00	3	Temperatura mínima	15.6
27460	7	Sololá	712	San Antonio Palopó	9	San Antonio Palopo	12	Diciembre	2023-12-28T00:00:00	2024-11-08T10:00:00	5	Humedad	67
27461	7	Sololá	712	San Antonio Palopó	9	San Antonio Palopo	12	Diciembre	2023-12-28T00:00:00	2024-11-08T10:00:00	6	Velocidad del viento	3.2
27462	7	Sololá	712	San Antonio Palopó	9	San Antonio Palopo	12	Diciembre	2023-12-28T00:00:00	2024-11-08T10:00:00	7	Dirección del viento	3.22
27463	7	Sololá	712	San Antonio Palopó	9	San Antonio Palopo	12	Diciembre	2023-12-28T00:00:00	2024-11-08T10:00:00	1	Precipitación	0
27464	7	Sololá	712	San Antonio Palopó	9	San Antonio Palopo	12	Diciembre	2023-12-28T00:00:00	2024-11-08T10:00:00	8	Radiación solar	543
27465	7	Sololá	712	San Antonio Palopó	9	San Antonio Palopo	12	Diciembre	2023-12-28T00:00:00	2024-11-08T11:00:00	2	Temperatura media	19.8
27466	7	Sololá	712	San Antonio Palopó	9	San Antonio Palopo	12	Diciembre	2023-12-28T00:00:00	2024-11-08T11:00:00	4	Temperatura máxima	19.8
27467	7	Sololá	712	San Antonio Palopó	9	San Antonio Palopo	12	Diciembre	2023-12-28T00:00:00	2024-11-08T11:00:00	3	Temperatura mínima	18.3
27468	7	Sololá	712	San Antonio Palopó	9	San Antonio Palopo	12	Diciembre	2023-12-28T00:00:00	2024-11-08T11:00:00	5	Humedad	63
27469	7	Sololá	712	San Antonio Palopó	9	San Antonio Palopo	12	Diciembre	2023-12-28T00:00:00	2024-11-08T11:00:00	6	Velocidad del viento	3.2
27470	7	Sololá	712	San Antonio Palopó	9	San Antonio Palopo	12	Diciembre	2023-12-28T00:00:00	2024-11-08T11:00:00	7	Dirección del viento	3.22
27471	7	Sololá	712	San Antonio Palopó	9	San Antonio Palopo	12	Diciembre	2023-12-28T00:00:00	2024-11-08T11:00:00	1	Precipitación	0
27472	7	Sololá	712	San Antonio Palopó	9	San Antonio Palopo	12	Diciembre	2023-12-28T00:00:00	2024-11-08T11:00:00	8	Radiación solar	670
27473	7	Sololá	712	San Antonio Palopó	9	San Antonio Palopo	12	Diciembre	2023-12-28T00:00:00	2024-11-08T12:00:00	2	Temperatura media	21.3
27474	7	Sololá	712	San Antonio Palopó	9	San Antonio Palopo	12	Diciembre	2023-12-28T00:00:00	2024-11-08T12:00:00	4	Temperatura máxima	21.4
27475	7	Sololá	712	San Antonio Palopó	9	San Antonio Palopo	12	Diciembre	2023-12-28T00:00:00	2024-11-08T12:00:00	3	Temperatura mínima	19.9
27476	7	Sololá	712	San Antonio Palopó	9	San Antonio Palopo	12	Diciembre	2023-12-28T00:00:00	2024-11-08T12:00:00	5	Humedad	61
27477	7	Sololá	712	San Antonio Palopó	9	San Antonio Palopo	12	Diciembre	2023-12-28T00:00:00	2024-11-08T12:00:00	6	Velocidad del viento	3.2
27478	7	Sololá	712	San Antonio Palopó	9	San Antonio Palopo	12	Diciembre	2023-12-28T00:00:00	2024-11-08T12:00:00	7	Dirección del viento	3.22
27479	7	Sololá	712	San Antonio Palopó	9	San Antonio Palopo	12	Diciembre	2023-12-28T00:00:00	2024-11-08T12:00:00	1	Precipitación	0
27480	7	Sololá	712	San Antonio Palopó	9	San Antonio Palopo	12	Diciembre	2023-12-28T00:00:00	2024-11-08T12:00:00	8	Radiación solar	646
27481	7	Sololá	712	San Antonio Palopó	9	San Antonio Palopo	12	Diciembre	2023-12-28T00:00:00	2024-11-08T13:00:00	2	Temperatura media	23.6
27482	7	Sololá	712	San Antonio Palopó	9	San Antonio Palopo	12	Diciembre	2023-12-28T00:00:00	2024-11-08T13:00:00	4	Temperatura máxima	23.8
27483	7	Sololá	712	San Antonio Palopó	9	San Antonio Palopo	12	Diciembre	2023-12-28T00:00:00	2024-11-08T13:00:00	3	Temperatura mínima	21.3
27484	7	Sololá	712	San Antonio Palopó	9	San Antonio Palopo	12	Diciembre	2023-12-28T00:00:00	2024-11-08T13:00:00	5	Humedad	54
27485	7	Sololá	712	San Antonio Palopó	9	San Antonio Palopo	12	Diciembre	2023-12-28T00:00:00	2024-11-08T13:00:00	6	Velocidad del viento	6.4
27486	7	Sololá	712	San Antonio Palopó	9	San Antonio Palopo	12	Diciembre	2023-12-28T00:00:00	2024-11-08T13:00:00	7	Dirección del viento	6.44
27487	7	Sololá	712	San Antonio Palopó	9	San Antonio Palopo	12	Diciembre	2023-12-28T00:00:00	2024-11-08T13:00:00	1	Precipitación	0
27488	7	Sololá	712	San Antonio Palopó	9	San Antonio Palopo	12	Diciembre	2023-12-28T00:00:00	2024-11-08T13:00:00	8	Radiación solar	728
27489	7	Sololá	712	San Antonio Palopó	9	San Antonio Palopo	12	Diciembre	2023-12-28T00:00:00	2024-11-08T14:00:00	2	Temperatura media	23.9
27490	7	Sololá	712	San Antonio Palopó	9	San Antonio Palopo	12	Diciembre	2023-12-28T00:00:00	2024-11-08T14:00:00	4	Temperatura máxima	23.9
27491	7	Sololá	712	San Antonio Palopó	9	San Antonio Palopo	12	Diciembre	2023-12-28T00:00:00	2024-11-08T14:00:00	3	Temperatura mínima	23.5
27492	7	Sololá	712	San Antonio Palopó	9	San Antonio Palopo	12	Diciembre	2023-12-28T00:00:00	2024-11-08T14:00:00	5	Humedad	55
27493	7	Sololá	712	San Antonio Palopó	9	San Antonio Palopo	12	Diciembre	2023-12-28T00:00:00	2024-11-08T14:00:00	6	Velocidad del viento	8
27494	7	Sololá	712	San Antonio Palopó	9	San Antonio Palopo	12	Diciembre	2023-12-28T00:00:00	2024-11-08T14:00:00	7	Dirección del viento	8.05
27495	7	Sololá	712	San Antonio Palopó	9	San Antonio Palopo	12	Diciembre	2023-12-28T00:00:00	2024-11-08T14:00:00	1	Precipitación	0
27496	7	Sololá	712	San Antonio Palopó	9	San Antonio Palopo	12	Diciembre	2023-12-28T00:00:00	2024-11-08T14:00:00	8	Radiación solar	664
27497	7	Sololá	712	San Antonio Palopó	9	San Antonio Palopo	12	Diciembre	2023-12-28T00:00:00	2024-11-08T15:00:00	2	Temperatura media	22.7
27498	7	Sololá	712	San Antonio Palopó	9	San Antonio Palopo	12	Diciembre	2023-12-28T00:00:00	2024-11-08T15:00:00	4	Temperatura máxima	23.9
27499	7	Sololá	712	San Antonio Palopó	9	San Antonio Palopo	12	Diciembre	2023-12-28T00:00:00	2024-11-08T15:00:00	3	Temperatura mínima	22.6
27500	7	Sololá	712	San Antonio Palopó	9	San Antonio Palopo	12	Diciembre	2023-12-28T00:00:00	2024-11-08T15:00:00	5	Humedad	62
27501	7	Sololá	712	San Antonio Palopó	9	San Antonio Palopo	12	Diciembre	2023-12-28T00:00:00	2024-11-08T15:00:00	6	Velocidad del viento	11.3
27502	7	Sololá	712	San Antonio Palopó	9	San Antonio Palopo	12	Diciembre	2023-12-28T00:00:00	2024-11-08T15:00:00	7	Dirección del viento	11.27
27503	7	Sololá	712	San Antonio Palopó	9	San Antonio Palopo	12	Diciembre	2023-12-28T00:00:00	2024-11-08T15:00:00	1	Precipitación	0
27504	7	Sololá	712	San Antonio Palopó	9	San Antonio Palopo	12	Diciembre	2023-12-28T00:00:00	2024-11-08T15:00:00	8	Radiación solar	564
27505	7	Sololá	712	San Antonio Palopó	9	San Antonio Palopo	12	Diciembre	2023-12-28T00:00:00	2024-11-08T16:00:00	2	Temperatura media	21.4
27506	7	Sololá	712	San Antonio Palopó	9	San Antonio Palopo	12	Diciembre	2023-12-28T00:00:00	2024-11-08T16:00:00	4	Temperatura máxima	22.7
27507	7	Sololá	712	San Antonio Palopó	9	San Antonio Palopo	12	Diciembre	2023-12-28T00:00:00	2024-11-08T16:00:00	3	Temperatura mínima	21.4
27508	7	Sololá	712	San Antonio Palopó	9	San Antonio Palopo	12	Diciembre	2023-12-28T00:00:00	2024-11-08T16:00:00	5	Humedad	66
27509	7	Sololá	712	San Antonio Palopó	9	San Antonio Palopo	12	Diciembre	2023-12-28T00:00:00	2024-11-08T16:00:00	6	Velocidad del viento	12.9
27510	7	Sololá	712	San Antonio Palopó	9	San Antonio Palopo	12	Diciembre	2023-12-28T00:00:00	2024-11-08T16:00:00	7	Dirección del viento	12.87
27511	7	Sololá	712	San Antonio Palopó	9	San Antonio Palopo	12	Diciembre	2023-12-28T00:00:00	2024-11-08T16:00:00	1	Precipitación	0
27512	7	Sololá	712	San Antonio Palopó	9	San Antonio Palopo	12	Diciembre	2023-12-28T00:00:00	2024-11-08T16:00:00	8	Radiación solar	325
27513	7	Sololá	712	San Antonio Palopó	9	San Antonio Palopo	12	Diciembre	2023-12-28T00:00:00	2024-11-08T17:00:00	2	Temperatura media	20.3
27514	7	Sololá	712	San Antonio Palopó	9	San Antonio Palopo	12	Diciembre	2023-12-28T00:00:00	2024-11-08T17:00:00	4	Temperatura máxima	21.6
27515	7	Sololá	712	San Antonio Palopó	9	San Antonio Palopo	12	Diciembre	2023-12-28T00:00:00	2024-11-08T17:00:00	3	Temperatura mínima	20.3
27516	7	Sololá	712	San Antonio Palopó	9	San Antonio Palopo	12	Diciembre	2023-12-28T00:00:00	2024-11-08T17:00:00	5	Humedad	74
27517	7	Sololá	712	San Antonio Palopó	9	San Antonio Palopo	12	Diciembre	2023-12-28T00:00:00	2024-11-08T17:00:00	6	Velocidad del viento	9.7
27518	7	Sololá	712	San Antonio Palopó	9	San Antonio Palopo	12	Diciembre	2023-12-28T00:00:00	2024-11-08T17:00:00	7	Dirección del viento	9.66
27519	7	Sololá	712	San Antonio Palopó	9	San Antonio Palopo	12	Diciembre	2023-12-28T00:00:00	2024-11-08T17:00:00	1	Precipitación	0
27520	7	Sololá	712	San Antonio Palopó	9	San Antonio Palopo	12	Diciembre	2023-12-28T00:00:00	2024-11-08T17:00:00	8	Radiación solar	123
27521	7	Sololá	712	San Antonio Palopó	9	San Antonio Palopo	12	Diciembre	2023-12-28T00:00:00	2024-11-08T18:00:00	2	Temperatura media	19.9
27522	7	Sololá	712	San Antonio Palopó	9	San Antonio Palopo	12	Diciembre	2023-12-28T00:00:00	2024-11-08T18:00:00	4	Temperatura máxima	20.3
27523	7	Sololá	712	San Antonio Palopó	9	San Antonio Palopo	12	Diciembre	2023-12-28T00:00:00	2024-11-08T18:00:00	3	Temperatura mínima	19.8
27524	7	Sololá	712	San Antonio Palopó	9	San Antonio Palopo	12	Diciembre	2023-12-28T00:00:00	2024-11-08T18:00:00	5	Humedad	75
27525	7	Sololá	712	San Antonio Palopó	9	San Antonio Palopo	12	Diciembre	2023-12-28T00:00:00	2024-11-08T18:00:00	6	Velocidad del viento	3.2
27526	7	Sololá	712	San Antonio Palopó	9	San Antonio Palopo	12	Diciembre	2023-12-28T00:00:00	2024-11-08T18:00:00	7	Dirección del viento	3.22
27527	7	Sololá	712	San Antonio Palopó	9	San Antonio Palopo	12	Diciembre	2023-12-28T00:00:00	2024-11-08T18:00:00	1	Precipitación	0
27528	7	Sololá	712	San Antonio Palopó	9	San Antonio Palopo	12	Diciembre	2023-12-28T00:00:00	2024-11-08T18:00:00	8	Radiación solar	15
27529	7	Sololá	712	San Antonio Palopó	9	San Antonio Palopo	12	Diciembre	2023-12-28T00:00:00	2024-11-08T19:00:00	2	Temperatura media	18.7
27530	7	Sololá	712	San Antonio Palopó	9	San Antonio Palopo	12	Diciembre	2023-12-28T00:00:00	2024-11-08T19:00:00	4	Temperatura máxima	19.9
27531	7	Sololá	712	San Antonio Palopó	9	San Antonio Palopo	12	Diciembre	2023-12-28T00:00:00	2024-11-08T19:00:00	3	Temperatura mínima	18.7
27532	7	Sololá	712	San Antonio Palopó	9	San Antonio Palopo	12	Diciembre	2023-12-28T00:00:00	2024-11-08T19:00:00	5	Humedad	76
27533	7	Sololá	712	San Antonio Palopó	9	San Antonio Palopo	12	Diciembre	2023-12-28T00:00:00	2024-11-08T19:00:00	6	Velocidad del viento	1.6
27534	7	Sololá	712	San Antonio Palopó	9	San Antonio Palopo	12	Diciembre	2023-12-28T00:00:00	2024-11-08T19:00:00	7	Dirección del viento	1.61
27535	7	Sololá	712	San Antonio Palopó	9	San Antonio Palopo	12	Diciembre	2023-12-28T00:00:00	2024-11-08T19:00:00	1	Precipitación	0
27536	7	Sololá	712	San Antonio Palopó	9	San Antonio Palopo	12	Diciembre	2023-12-28T00:00:00	2024-11-08T19:00:00	8	Radiación solar	0
27537	7	Sololá	712	San Antonio Palopó	9	San Antonio Palopo	12	Diciembre	2023-12-28T00:00:00	2024-11-08T20:00:00	2	Temperatura media	18.5
27538	7	Sololá	712	San Antonio Palopó	9	San Antonio Palopo	12	Diciembre	2023-12-28T00:00:00	2024-11-08T20:00:00	4	Temperatura máxima	18.8
27539	7	Sololá	712	San Antonio Palopó	9	San Antonio Palopo	12	Diciembre	2023-12-28T00:00:00	2024-11-08T20:00:00	3	Temperatura mínima	18.2
27540	7	Sololá	712	San Antonio Palopó	9	San Antonio Palopo	12	Diciembre	2023-12-28T00:00:00	2024-11-08T20:00:00	5	Humedad	76
27541	7	Sololá	712	San Antonio Palopó	9	San Antonio Palopo	12	Diciembre	2023-12-28T00:00:00	2024-11-08T20:00:00	6	Velocidad del viento	1.6
27542	7	Sololá	712	San Antonio Palopó	9	San Antonio Palopo	12	Diciembre	2023-12-28T00:00:00	2024-11-08T20:00:00	7	Dirección del viento	1.61
27543	7	Sololá	712	San Antonio Palopó	9	San Antonio Palopo	12	Diciembre	2023-12-28T00:00:00	2024-11-08T20:00:00	1	Precipitación	0
27544	7	Sololá	712	San Antonio Palopó	9	San Antonio Palopo	12	Diciembre	2023-12-28T00:00:00	2024-11-08T20:00:00	8	Radiación solar	0
27545	7	Sololá	712	San Antonio Palopó	9	San Antonio Palopo	12	Diciembre	2023-12-28T00:00:00	2024-11-08T21:00:00	2	Temperatura media	18.4
27546	7	Sololá	712	San Antonio Palopó	9	San Antonio Palopo	12	Diciembre	2023-12-28T00:00:00	2024-11-08T21:00:00	4	Temperatura máxima	18.7
27547	7	Sololá	712	San Antonio Palopó	9	San Antonio Palopo	12	Diciembre	2023-12-28T00:00:00	2024-11-08T21:00:00	3	Temperatura mínima	18.4
27548	7	Sololá	712	San Antonio Palopó	9	San Antonio Palopo	12	Diciembre	2023-12-28T00:00:00	2024-11-08T21:00:00	5	Humedad	77
27549	7	Sololá	712	San Antonio Palopó	9	San Antonio Palopo	12	Diciembre	2023-12-28T00:00:00	2024-11-08T21:00:00	6	Velocidad del viento	1.6
27550	7	Sololá	712	San Antonio Palopó	9	San Antonio Palopo	12	Diciembre	2023-12-28T00:00:00	2024-11-08T21:00:00	7	Dirección del viento	1.61
27551	7	Sololá	712	San Antonio Palopó	9	San Antonio Palopo	12	Diciembre	2023-12-28T00:00:00	2024-11-08T21:00:00	1	Precipitación	0
27552	7	Sololá	712	San Antonio Palopó	9	San Antonio Palopo	12	Diciembre	2023-12-28T00:00:00	2024-11-08T21:00:00	8	Radiación solar	0
27553	7	Sololá	712	San Antonio Palopó	9	San Antonio Palopo	12	Diciembre	2023-12-28T00:00:00	2024-11-08T22:00:00	2	Temperatura media	18.3
27554	7	Sololá	712	San Antonio Palopó	9	San Antonio Palopo	12	Diciembre	2023-12-28T00:00:00	2024-11-08T22:00:00	4	Temperatura máxima	19.1
27555	7	Sololá	712	San Antonio Palopó	9	San Antonio Palopo	12	Diciembre	2023-12-28T00:00:00	2024-11-08T22:00:00	3	Temperatura mínima	18.3
27556	7	Sololá	712	San Antonio Palopó	9	San Antonio Palopo	12	Diciembre	2023-12-28T00:00:00	2024-11-08T22:00:00	5	Humedad	78
27557	7	Sololá	712	San Antonio Palopó	9	San Antonio Palopo	12	Diciembre	2023-12-28T00:00:00	2024-11-08T22:00:00	6	Velocidad del viento	3.2
27558	7	Sololá	712	San Antonio Palopó	9	San Antonio Palopo	12	Diciembre	2023-12-28T00:00:00	2024-11-08T22:00:00	7	Dirección del viento	3.22
27559	7	Sololá	712	San Antonio Palopó	9	San Antonio Palopo	12	Diciembre	2023-12-28T00:00:00	2024-11-08T22:00:00	1	Precipitación	0
27560	7	Sololá	712	San Antonio Palopó	9	San Antonio Palopo	12	Diciembre	2023-12-28T00:00:00	2024-11-08T22:00:00	8	Radiación solar	0
27561	7	Sololá	712	San Antonio Palopó	9	San Antonio Palopo	12	Diciembre	2023-12-28T00:00:00	2024-11-08T23:00:00	2	Temperatura media	18
27562	7	Sololá	712	San Antonio Palopó	9	San Antonio Palopo	12	Diciembre	2023-12-28T00:00:00	2024-11-08T23:00:00	4	Temperatura máxima	18.3
27563	7	Sololá	712	San Antonio Palopó	9	San Antonio Palopo	12	Diciembre	2023-12-28T00:00:00	2024-11-08T23:00:00	3	Temperatura mínima	17.9
27564	7	Sololá	712	San Antonio Palopó	9	San Antonio Palopo	12	Diciembre	2023-12-28T00:00:00	2024-11-08T23:00:00	5	Humedad	81
27565	7	Sololá	712	San Antonio Palopó	9	San Antonio Palopo	12	Diciembre	2023-12-28T00:00:00	2024-11-08T23:00:00	6	Velocidad del viento	1.6
27566	7	Sololá	712	San Antonio Palopó	9	San Antonio Palopo	12	Diciembre	2023-12-28T00:00:00	2024-11-08T23:00:00	7	Dirección del viento	1.61
27567	7	Sololá	712	San Antonio Palopó	9	San Antonio Palopo	12	Diciembre	2023-12-28T00:00:00	2024-11-08T23:00:00	1	Precipitación	0
27568	7	Sololá	712	San Antonio Palopó	9	San Antonio Palopo	12	Diciembre	2023-12-28T00:00:00	2024-11-08T23:00:00	8	Radiación solar	0
27569	7	Sololá	712	San Antonio Palopó	9	San Antonio Palopo	12	Diciembre	2023-12-29T00:00:00	2024-11-08T00:00:00	2	Temperatura media	17.9
27570	7	Sololá	712	San Antonio Palopó	9	San Antonio Palopo	12	Diciembre	2023-12-29T00:00:00	2024-11-08T00:00:00	4	Temperatura máxima	18
27571	7	Sololá	712	San Antonio Palopó	9	San Antonio Palopo	12	Diciembre	2023-12-29T00:00:00	2024-11-08T00:00:00	3	Temperatura mínima	17.8
27572	7	Sololá	712	San Antonio Palopó	9	San Antonio Palopo	12	Diciembre	2023-12-29T00:00:00	2024-11-08T00:00:00	5	Humedad	82
27573	7	Sololá	712	San Antonio Palopó	9	San Antonio Palopo	12	Diciembre	2023-12-29T00:00:00	2024-11-08T00:00:00	6	Velocidad del viento	1.6
27574	7	Sololá	712	San Antonio Palopó	9	San Antonio Palopo	12	Diciembre	2023-12-29T00:00:00	2024-11-08T00:00:00	7	Dirección del viento	1.61
27575	7	Sololá	712	San Antonio Palopó	9	San Antonio Palopo	12	Diciembre	2023-12-29T00:00:00	2024-11-08T00:00:00	1	Precipitación	0
27576	7	Sololá	712	San Antonio Palopó	9	San Antonio Palopo	12	Diciembre	2023-12-29T00:00:00	2024-11-08T00:00:00	8	Radiación solar	0
27577	7	Sololá	712	San Antonio Palopó	9	San Antonio Palopo	12	Diciembre	2023-12-29T00:00:00	2024-11-08T01:00:00	2	Temperatura media	17.3
27578	7	Sololá	712	San Antonio Palopó	9	San Antonio Palopo	12	Diciembre	2023-12-29T00:00:00	2024-11-08T01:00:00	4	Temperatura máxima	18
27579	7	Sololá	712	San Antonio Palopó	9	San Antonio Palopo	12	Diciembre	2023-12-29T00:00:00	2024-11-08T01:00:00	3	Temperatura mínima	17.3
27580	7	Sololá	712	San Antonio Palopó	9	San Antonio Palopo	12	Diciembre	2023-12-29T00:00:00	2024-11-08T01:00:00	5	Humedad	84
27581	7	Sololá	712	San Antonio Palopó	9	San Antonio Palopo	12	Diciembre	2023-12-29T00:00:00	2024-11-08T01:00:00	6	Velocidad del viento	1.6
27582	7	Sololá	712	San Antonio Palopó	9	San Antonio Palopo	12	Diciembre	2023-12-29T00:00:00	2024-11-08T01:00:00	7	Dirección del viento	1.61
27583	7	Sololá	712	San Antonio Palopó	9	San Antonio Palopo	12	Diciembre	2023-12-29T00:00:00	2024-11-08T01:00:00	1	Precipitación	0
27584	7	Sololá	712	San Antonio Palopó	9	San Antonio Palopo	12	Diciembre	2023-12-29T00:00:00	2024-11-08T01:00:00	8	Radiación solar	0
27585	7	Sololá	712	San Antonio Palopó	9	San Antonio Palopo	12	Diciembre	2023-12-29T00:00:00	2024-11-08T02:00:00	2	Temperatura media	17.3
27586	7	Sololá	712	San Antonio Palopó	9	San Antonio Palopo	12	Diciembre	2023-12-29T00:00:00	2024-11-08T02:00:00	4	Temperatura máxima	17.3
27587	7	Sololá	712	San Antonio Palopó	9	San Antonio Palopo	12	Diciembre	2023-12-29T00:00:00	2024-11-08T02:00:00	3	Temperatura mínima	16.8
27588	7	Sololá	712	San Antonio Palopó	9	San Antonio Palopo	12	Diciembre	2023-12-29T00:00:00	2024-11-08T02:00:00	5	Humedad	78
27589	7	Sololá	712	San Antonio Palopó	9	San Antonio Palopo	12	Diciembre	2023-12-29T00:00:00	2024-11-08T02:00:00	6	Velocidad del viento	3.2
27590	7	Sololá	712	San Antonio Palopó	9	San Antonio Palopo	12	Diciembre	2023-12-29T00:00:00	2024-11-08T02:00:00	7	Dirección del viento	3.22
27591	7	Sololá	712	San Antonio Palopó	9	San Antonio Palopo	12	Diciembre	2023-12-29T00:00:00	2024-11-08T02:00:00	1	Precipitación	0
27592	7	Sololá	712	San Antonio Palopó	9	San Antonio Palopo	12	Diciembre	2023-12-29T00:00:00	2024-11-08T02:00:00	8	Radiación solar	0
27593	7	Sololá	712	San Antonio Palopó	9	San Antonio Palopo	12	Diciembre	2023-12-29T00:00:00	2024-11-08T03:00:00	2	Temperatura media	18.1
27594	7	Sololá	712	San Antonio Palopó	9	San Antonio Palopo	12	Diciembre	2023-12-29T00:00:00	2024-11-08T03:00:00	4	Temperatura máxima	18.1
27595	7	Sololá	712	San Antonio Palopó	9	San Antonio Palopo	12	Diciembre	2023-12-29T00:00:00	2024-11-08T03:00:00	3	Temperatura mínima	17.4
27596	7	Sololá	712	San Antonio Palopó	9	San Antonio Palopo	12	Diciembre	2023-12-29T00:00:00	2024-11-08T03:00:00	5	Humedad	74
27597	7	Sololá	712	San Antonio Palopó	9	San Antonio Palopo	12	Diciembre	2023-12-29T00:00:00	2024-11-08T03:00:00	6	Velocidad del viento	3.2
27598	7	Sololá	712	San Antonio Palopó	9	San Antonio Palopo	12	Diciembre	2023-12-29T00:00:00	2024-11-08T03:00:00	7	Dirección del viento	3.22
27599	7	Sololá	712	San Antonio Palopó	9	San Antonio Palopo	12	Diciembre	2023-12-29T00:00:00	2024-11-08T03:00:00	1	Precipitación	0
27600	7	Sololá	712	San Antonio Palopó	9	San Antonio Palopo	12	Diciembre	2023-12-29T00:00:00	2024-11-08T03:00:00	8	Radiación solar	0
27601	7	Sololá	712	San Antonio Palopó	9	San Antonio Palopo	12	Diciembre	2023-12-29T00:00:00	2024-11-08T04:00:00	2	Temperatura media	17.5
27602	7	Sololá	712	San Antonio Palopó	9	San Antonio Palopo	12	Diciembre	2023-12-29T00:00:00	2024-11-08T04:00:00	4	Temperatura máxima	18.1
27603	7	Sololá	712	San Antonio Palopó	9	San Antonio Palopo	12	Diciembre	2023-12-29T00:00:00	2024-11-08T04:00:00	3	Temperatura mínima	17.4
27604	7	Sololá	712	San Antonio Palopó	9	San Antonio Palopo	12	Diciembre	2023-12-29T00:00:00	2024-11-08T04:00:00	5	Humedad	76
27605	7	Sololá	712	San Antonio Palopó	9	San Antonio Palopo	12	Diciembre	2023-12-29T00:00:00	2024-11-08T04:00:00	6	Velocidad del viento	3.2
27606	7	Sololá	712	San Antonio Palopó	9	San Antonio Palopo	12	Diciembre	2023-12-29T00:00:00	2024-11-08T04:00:00	7	Dirección del viento	3.22
27607	7	Sololá	712	San Antonio Palopó	9	San Antonio Palopo	12	Diciembre	2023-12-29T00:00:00	2024-11-08T04:00:00	1	Precipitación	0
27608	7	Sololá	712	San Antonio Palopó	9	San Antonio Palopo	12	Diciembre	2023-12-29T00:00:00	2024-11-08T04:00:00	8	Radiación solar	0
27609	7	Sololá	712	San Antonio Palopó	9	San Antonio Palopo	12	Diciembre	2023-12-29T00:00:00	2024-11-08T05:00:00	2	Temperatura media	18.1
27610	7	Sololá	712	San Antonio Palopó	9	San Antonio Palopo	12	Diciembre	2023-12-29T00:00:00	2024-11-08T05:00:00	4	Temperatura máxima	18.1
27611	7	Sololá	712	San Antonio Palopó	9	San Antonio Palopo	12	Diciembre	2023-12-29T00:00:00	2024-11-08T05:00:00	3	Temperatura mínima	17.4
27612	7	Sololá	712	San Antonio Palopó	9	San Antonio Palopo	12	Diciembre	2023-12-29T00:00:00	2024-11-08T05:00:00	5	Humedad	73
27613	7	Sololá	712	San Antonio Palopó	9	San Antonio Palopo	12	Diciembre	2023-12-29T00:00:00	2024-11-08T05:00:00	6	Velocidad del viento	4.8
27614	7	Sololá	712	San Antonio Palopó	9	San Antonio Palopo	12	Diciembre	2023-12-29T00:00:00	2024-11-08T05:00:00	7	Dirección del viento	4.83
27615	7	Sololá	712	San Antonio Palopó	9	San Antonio Palopo	12	Diciembre	2023-12-29T00:00:00	2024-11-08T05:00:00	1	Precipitación	0
27616	7	Sololá	712	San Antonio Palopó	9	San Antonio Palopo	12	Diciembre	2023-12-29T00:00:00	2024-11-08T05:00:00	8	Radiación solar	0
27617	7	Sololá	712	San Antonio Palopó	9	San Antonio Palopo	12	Diciembre	2023-12-29T00:00:00	2024-11-08T06:00:00	2	Temperatura media	17.9
27618	7	Sololá	712	San Antonio Palopó	9	San Antonio Palopo	12	Diciembre	2023-12-29T00:00:00	2024-11-08T06:00:00	4	Temperatura máxima	18.1
27619	7	Sololá	712	San Antonio Palopó	9	San Antonio Palopo	12	Diciembre	2023-12-29T00:00:00	2024-11-08T06:00:00	3	Temperatura mínima	17.9
27620	7	Sololá	712	San Antonio Palopó	9	San Antonio Palopo	12	Diciembre	2023-12-29T00:00:00	2024-11-08T06:00:00	5	Humedad	73
27621	7	Sololá	712	San Antonio Palopó	9	San Antonio Palopo	12	Diciembre	2023-12-29T00:00:00	2024-11-08T06:00:00	6	Velocidad del viento	8
27622	7	Sololá	712	San Antonio Palopó	9	San Antonio Palopo	12	Diciembre	2023-12-29T00:00:00	2024-11-08T06:00:00	7	Dirección del viento	8.05
27623	7	Sololá	712	San Antonio Palopó	9	San Antonio Palopo	12	Diciembre	2023-12-29T00:00:00	2024-11-08T06:00:00	1	Precipitación	0
27624	7	Sololá	712	San Antonio Palopó	9	San Antonio Palopo	12	Diciembre	2023-12-29T00:00:00	2024-11-08T06:00:00	8	Radiación solar	0
27625	7	Sololá	712	San Antonio Palopó	9	San Antonio Palopo	12	Diciembre	2023-12-29T00:00:00	2024-11-08T07:00:00	2	Temperatura media	17.6
27626	7	Sololá	712	San Antonio Palopó	9	San Antonio Palopo	12	Diciembre	2023-12-29T00:00:00	2024-11-08T07:00:00	4	Temperatura máxima	18
27627	7	Sololá	712	San Antonio Palopó	9	San Antonio Palopo	12	Diciembre	2023-12-29T00:00:00	2024-11-08T07:00:00	3	Temperatura mínima	17.6
27628	7	Sololá	712	San Antonio Palopó	9	San Antonio Palopo	12	Diciembre	2023-12-29T00:00:00	2024-11-08T07:00:00	5	Humedad	73
27629	7	Sololá	712	San Antonio Palopó	9	San Antonio Palopo	12	Diciembre	2023-12-29T00:00:00	2024-11-08T07:00:00	6	Velocidad del viento	11.3
27630	7	Sololá	712	San Antonio Palopó	9	San Antonio Palopo	12	Diciembre	2023-12-29T00:00:00	2024-11-08T07:00:00	7	Dirección del viento	11.27
27631	7	Sololá	712	San Antonio Palopó	9	San Antonio Palopo	12	Diciembre	2023-12-29T00:00:00	2024-11-08T07:00:00	1	Precipitación	0
27632	7	Sololá	712	San Antonio Palopó	9	San Antonio Palopo	12	Diciembre	2023-12-29T00:00:00	2024-11-08T07:00:00	8	Radiación solar	5
27633	7	Sololá	712	San Antonio Palopó	9	San Antonio Palopo	12	Diciembre	2023-12-29T00:00:00	2024-11-08T08:00:00	2	Temperatura media	18.2
27634	7	Sololá	712	San Antonio Palopó	9	San Antonio Palopo	12	Diciembre	2023-12-29T00:00:00	2024-11-08T08:00:00	4	Temperatura máxima	18.3
27635	7	Sololá	712	San Antonio Palopó	9	San Antonio Palopo	12	Diciembre	2023-12-29T00:00:00	2024-11-08T08:00:00	3	Temperatura mínima	17.6
27636	7	Sololá	712	San Antonio Palopó	9	San Antonio Palopo	12	Diciembre	2023-12-29T00:00:00	2024-11-08T08:00:00	5	Humedad	77
27637	7	Sololá	712	San Antonio Palopó	9	San Antonio Palopo	12	Diciembre	2023-12-29T00:00:00	2024-11-08T08:00:00	6	Velocidad del viento	8
27638	7	Sololá	712	San Antonio Palopó	9	San Antonio Palopo	12	Diciembre	2023-12-29T00:00:00	2024-11-08T08:00:00	7	Dirección del viento	8.05
27639	7	Sololá	712	San Antonio Palopó	9	San Antonio Palopo	12	Diciembre	2023-12-29T00:00:00	2024-11-08T08:00:00	1	Precipitación	0
27640	7	Sololá	712	San Antonio Palopó	9	San Antonio Palopo	12	Diciembre	2023-12-29T00:00:00	2024-11-08T08:00:00	8	Radiación solar	62
27641	7	Sololá	712	San Antonio Palopó	9	San Antonio Palopo	12	Diciembre	2023-12-29T00:00:00	2024-11-08T09:00:00	2	Temperatura media	18.8
27642	7	Sololá	712	San Antonio Palopó	9	San Antonio Palopo	12	Diciembre	2023-12-29T00:00:00	2024-11-08T09:00:00	4	Temperatura máxima	18.8
27643	7	Sololá	712	San Antonio Palopó	9	San Antonio Palopo	12	Diciembre	2023-12-29T00:00:00	2024-11-08T09:00:00	3	Temperatura mínima	18.2
27644	7	Sololá	712	San Antonio Palopó	9	San Antonio Palopo	12	Diciembre	2023-12-29T00:00:00	2024-11-08T09:00:00	5	Humedad	74
27645	7	Sololá	712	San Antonio Palopó	9	San Antonio Palopo	12	Diciembre	2023-12-29T00:00:00	2024-11-08T09:00:00	6	Velocidad del viento	1.6
27646	7	Sololá	712	San Antonio Palopó	9	San Antonio Palopo	12	Diciembre	2023-12-29T00:00:00	2024-11-08T09:00:00	7	Dirección del viento	1.61
27647	7	Sololá	712	San Antonio Palopó	9	San Antonio Palopo	12	Diciembre	2023-12-29T00:00:00	2024-11-08T09:00:00	1	Precipitación	0
27648	7	Sololá	712	San Antonio Palopó	9	San Antonio Palopo	12	Diciembre	2023-12-29T00:00:00	2024-11-08T09:00:00	8	Radiación solar	161
27649	7	Sololá	712	San Antonio Palopó	9	San Antonio Palopo	12	Diciembre	2023-12-29T00:00:00	2024-11-08T10:00:00	2	Temperatura media	19.9
27650	7	Sololá	712	San Antonio Palopó	9	San Antonio Palopo	12	Diciembre	2023-12-29T00:00:00	2024-11-08T10:00:00	4	Temperatura máxima	19.9
27651	7	Sololá	712	San Antonio Palopó	9	San Antonio Palopo	12	Diciembre	2023-12-29T00:00:00	2024-11-08T10:00:00	3	Temperatura mínima	18.8
27652	7	Sololá	712	San Antonio Palopó	9	San Antonio Palopo	12	Diciembre	2023-12-29T00:00:00	2024-11-08T10:00:00	5	Humedad	73
27653	7	Sololá	712	San Antonio Palopó	9	San Antonio Palopo	12	Diciembre	2023-12-29T00:00:00	2024-11-08T10:00:00	6	Velocidad del viento	1.6
27654	7	Sololá	712	San Antonio Palopó	9	San Antonio Palopo	12	Diciembre	2023-12-29T00:00:00	2024-11-08T10:00:00	7	Dirección del viento	1.61
27655	7	Sololá	712	San Antonio Palopó	9	San Antonio Palopo	12	Diciembre	2023-12-29T00:00:00	2024-11-08T10:00:00	1	Precipitación	0
27656	7	Sololá	712	San Antonio Palopó	9	San Antonio Palopo	12	Diciembre	2023-12-29T00:00:00	2024-11-08T10:00:00	8	Radiación solar	368
27657	7	Sololá	712	San Antonio Palopó	9	San Antonio Palopo	12	Diciembre	2023-12-29T00:00:00	2024-11-08T11:00:00	2	Temperatura media	20.5
27658	7	Sololá	712	San Antonio Palopó	9	San Antonio Palopo	12	Diciembre	2023-12-29T00:00:00	2024-11-08T11:00:00	4	Temperatura máxima	20.6
27659	7	Sololá	712	San Antonio Palopó	9	San Antonio Palopo	12	Diciembre	2023-12-29T00:00:00	2024-11-08T11:00:00	3	Temperatura mínima	19.9
27660	7	Sololá	712	San Antonio Palopó	9	San Antonio Palopo	12	Diciembre	2023-12-29T00:00:00	2024-11-08T11:00:00	5	Humedad	73
27661	7	Sololá	712	San Antonio Palopó	9	San Antonio Palopo	12	Diciembre	2023-12-29T00:00:00	2024-11-08T11:00:00	6	Velocidad del viento	1.6
27662	7	Sololá	712	San Antonio Palopó	9	San Antonio Palopo	12	Diciembre	2023-12-29T00:00:00	2024-11-08T11:00:00	7	Dirección del viento	1.61
27663	7	Sololá	712	San Antonio Palopó	9	San Antonio Palopo	12	Diciembre	2023-12-29T00:00:00	2024-11-08T11:00:00	1	Precipitación	0
27664	7	Sololá	712	San Antonio Palopó	9	San Antonio Palopo	12	Diciembre	2023-12-29T00:00:00	2024-11-08T11:00:00	8	Radiación solar	497
27665	7	Sololá	712	San Antonio Palopó	9	San Antonio Palopo	12	Diciembre	2023-12-29T00:00:00	2024-11-08T12:00:00	2	Temperatura media	22.3
27666	7	Sololá	712	San Antonio Palopó	9	San Antonio Palopo	12	Diciembre	2023-12-29T00:00:00	2024-11-08T12:00:00	4	Temperatura máxima	22.3
27667	7	Sololá	712	San Antonio Palopó	9	San Antonio Palopo	12	Diciembre	2023-12-29T00:00:00	2024-11-08T12:00:00	3	Temperatura mínima	20.4
27668	7	Sololá	712	San Antonio Palopó	9	San Antonio Palopo	12	Diciembre	2023-12-29T00:00:00	2024-11-08T12:00:00	5	Humedad	70
27669	7	Sololá	712	San Antonio Palopó	9	San Antonio Palopo	12	Diciembre	2023-12-29T00:00:00	2024-11-08T12:00:00	6	Velocidad del viento	4.8
27670	7	Sololá	712	San Antonio Palopó	9	San Antonio Palopo	12	Diciembre	2023-12-29T00:00:00	2024-11-08T12:00:00	7	Dirección del viento	4.83
27671	7	Sololá	712	San Antonio Palopó	9	San Antonio Palopo	12	Diciembre	2023-12-29T00:00:00	2024-11-08T12:00:00	1	Precipitación	0
27672	7	Sololá	712	San Antonio Palopó	9	San Antonio Palopo	12	Diciembre	2023-12-29T00:00:00	2024-11-08T12:00:00	8	Radiación solar	542
27673	7	Sololá	712	San Antonio Palopó	9	San Antonio Palopo	12	Diciembre	2023-12-29T00:00:00	2024-11-08T13:00:00	2	Temperatura media	22.4
27674	7	Sololá	712	San Antonio Palopó	9	San Antonio Palopo	12	Diciembre	2023-12-29T00:00:00	2024-11-08T13:00:00	4	Temperatura máxima	22.4
27675	7	Sololá	712	San Antonio Palopó	9	San Antonio Palopo	12	Diciembre	2023-12-29T00:00:00	2024-11-08T13:00:00	3	Temperatura mínima	21.9
27676	7	Sololá	712	San Antonio Palopó	9	San Antonio Palopo	12	Diciembre	2023-12-29T00:00:00	2024-11-08T13:00:00	5	Humedad	63
27677	7	Sololá	712	San Antonio Palopó	9	San Antonio Palopo	12	Diciembre	2023-12-29T00:00:00	2024-11-08T13:00:00	6	Velocidad del viento	9.7
27678	7	Sololá	712	San Antonio Palopó	9	San Antonio Palopo	12	Diciembre	2023-12-29T00:00:00	2024-11-08T13:00:00	7	Dirección del viento	9.66
27679	7	Sololá	712	San Antonio Palopó	9	San Antonio Palopo	12	Diciembre	2023-12-29T00:00:00	2024-11-08T13:00:00	1	Precipitación	0
27680	7	Sololá	712	San Antonio Palopó	9	San Antonio Palopo	12	Diciembre	2023-12-29T00:00:00	2024-11-08T13:00:00	8	Radiación solar	513
27681	7	Sololá	712	San Antonio Palopó	9	San Antonio Palopo	12	Diciembre	2023-12-29T00:00:00	2024-11-08T14:00:00	2	Temperatura media	22.3
27682	7	Sololá	712	San Antonio Palopó	9	San Antonio Palopo	12	Diciembre	2023-12-29T00:00:00	2024-11-08T14:00:00	4	Temperatura máxima	22.8
27683	7	Sololá	712	San Antonio Palopó	9	San Antonio Palopo	12	Diciembre	2023-12-29T00:00:00	2024-11-08T14:00:00	3	Temperatura mínima	22.3
27684	7	Sololá	712	San Antonio Palopó	9	San Antonio Palopo	12	Diciembre	2023-12-29T00:00:00	2024-11-08T14:00:00	5	Humedad	65
27685	7	Sololá	712	San Antonio Palopó	9	San Antonio Palopo	12	Diciembre	2023-12-29T00:00:00	2024-11-08T14:00:00	6	Velocidad del viento	8
27686	7	Sololá	712	San Antonio Palopó	9	San Antonio Palopo	12	Diciembre	2023-12-29T00:00:00	2024-11-08T14:00:00	7	Dirección del viento	8.05
27687	7	Sololá	712	San Antonio Palopó	9	San Antonio Palopo	12	Diciembre	2023-12-29T00:00:00	2024-11-08T14:00:00	1	Precipitación	0
27688	7	Sololá	712	San Antonio Palopó	9	San Antonio Palopo	12	Diciembre	2023-12-29T00:00:00	2024-11-08T14:00:00	8	Radiación solar	491
27689	7	Sololá	712	San Antonio Palopó	9	San Antonio Palopo	12	Diciembre	2023-12-29T00:00:00	2024-11-08T15:00:00	2	Temperatura media	22.3
27690	7	Sololá	712	San Antonio Palopó	9	San Antonio Palopo	12	Diciembre	2023-12-29T00:00:00	2024-11-08T15:00:00	4	Temperatura máxima	22.3
27691	7	Sololá	712	San Antonio Palopó	9	San Antonio Palopo	12	Diciembre	2023-12-29T00:00:00	2024-11-08T15:00:00	3	Temperatura mínima	21.4
27692	7	Sololá	712	San Antonio Palopó	9	San Antonio Palopo	12	Diciembre	2023-12-29T00:00:00	2024-11-08T15:00:00	5	Humedad	67
27693	7	Sololá	712	San Antonio Palopó	9	San Antonio Palopo	12	Diciembre	2023-12-29T00:00:00	2024-11-08T15:00:00	6	Velocidad del viento	6.4
27694	7	Sololá	712	San Antonio Palopó	9	San Antonio Palopo	12	Diciembre	2023-12-29T00:00:00	2024-11-08T15:00:00	7	Dirección del viento	6.44
27695	7	Sololá	712	San Antonio Palopó	9	San Antonio Palopo	12	Diciembre	2023-12-29T00:00:00	2024-11-08T15:00:00	1	Precipitación	0
27696	7	Sololá	712	San Antonio Palopó	9	San Antonio Palopo	12	Diciembre	2023-12-29T00:00:00	2024-11-08T15:00:00	8	Radiación solar	287
27697	7	Sololá	712	San Antonio Palopó	9	San Antonio Palopo	12	Diciembre	2023-12-29T00:00:00	2024-11-08T16:00:00	2	Temperatura media	22.4
27698	7	Sololá	712	San Antonio Palopó	9	San Antonio Palopo	12	Diciembre	2023-12-29T00:00:00	2024-11-08T16:00:00	4	Temperatura máxima	22.6
27699	7	Sololá	712	San Antonio Palopó	9	San Antonio Palopo	12	Diciembre	2023-12-29T00:00:00	2024-11-08T16:00:00	3	Temperatura mínima	22.2
27700	7	Sololá	712	San Antonio Palopó	9	San Antonio Palopo	12	Diciembre	2023-12-29T00:00:00	2024-11-08T16:00:00	5	Humedad	67
27701	7	Sololá	712	San Antonio Palopó	9	San Antonio Palopo	12	Diciembre	2023-12-29T00:00:00	2024-11-08T16:00:00	6	Velocidad del viento	9.7
27702	7	Sololá	712	San Antonio Palopó	9	San Antonio Palopo	12	Diciembre	2023-12-29T00:00:00	2024-11-08T16:00:00	7	Dirección del viento	9.66
27703	7	Sololá	712	San Antonio Palopó	9	San Antonio Palopo	12	Diciembre	2023-12-29T00:00:00	2024-11-08T16:00:00	1	Precipitación	0
27704	7	Sololá	712	San Antonio Palopó	9	San Antonio Palopo	12	Diciembre	2023-12-29T00:00:00	2024-11-08T16:00:00	8	Radiación solar	365
27705	7	Sololá	712	San Antonio Palopó	9	San Antonio Palopo	12	Diciembre	2023-12-29T00:00:00	2024-11-08T17:00:00	2	Temperatura media	21.8
27706	7	Sololá	712	San Antonio Palopó	9	San Antonio Palopo	12	Diciembre	2023-12-29T00:00:00	2024-11-08T17:00:00	4	Temperatura máxima	22.5
27707	7	Sololá	712	San Antonio Palopó	9	San Antonio Palopo	12	Diciembre	2023-12-29T00:00:00	2024-11-08T17:00:00	3	Temperatura mínima	21.8
27708	7	Sololá	712	San Antonio Palopó	9	San Antonio Palopo	12	Diciembre	2023-12-29T00:00:00	2024-11-08T17:00:00	5	Humedad	70
27709	7	Sololá	712	San Antonio Palopó	9	San Antonio Palopo	12	Diciembre	2023-12-29T00:00:00	2024-11-08T17:00:00	6	Velocidad del viento	8
27710	7	Sololá	712	San Antonio Palopó	9	San Antonio Palopo	12	Diciembre	2023-12-29T00:00:00	2024-11-08T17:00:00	7	Dirección del viento	8.05
27711	7	Sololá	712	San Antonio Palopó	9	San Antonio Palopo	12	Diciembre	2023-12-29T00:00:00	2024-11-08T17:00:00	1	Precipitación	0
27712	7	Sololá	712	San Antonio Palopó	9	San Antonio Palopo	12	Diciembre	2023-12-29T00:00:00	2024-11-08T17:00:00	8	Radiación solar	173
27713	7	Sololá	712	San Antonio Palopó	9	San Antonio Palopo	12	Diciembre	2023-12-29T00:00:00	2024-11-08T18:00:00	2	Temperatura media	19.7
27714	7	Sololá	712	San Antonio Palopó	9	San Antonio Palopo	12	Diciembre	2023-12-29T00:00:00	2024-11-08T18:00:00	4	Temperatura máxima	21.8
27715	7	Sololá	712	San Antonio Palopó	9	San Antonio Palopo	12	Diciembre	2023-12-29T00:00:00	2024-11-08T18:00:00	3	Temperatura mínima	19.7
27716	7	Sololá	712	San Antonio Palopó	9	San Antonio Palopo	12	Diciembre	2023-12-29T00:00:00	2024-11-08T18:00:00	5	Humedad	79
27717	7	Sololá	712	San Antonio Palopó	9	San Antonio Palopo	12	Diciembre	2023-12-29T00:00:00	2024-11-08T18:00:00	6	Velocidad del viento	6.4
27718	7	Sololá	712	San Antonio Palopó	9	San Antonio Palopo	12	Diciembre	2023-12-29T00:00:00	2024-11-08T18:00:00	7	Dirección del viento	6.44
27719	7	Sololá	712	San Antonio Palopó	9	San Antonio Palopo	12	Diciembre	2023-12-29T00:00:00	2024-11-08T18:00:00	1	Precipitación	0
27720	7	Sololá	712	San Antonio Palopó	9	San Antonio Palopo	12	Diciembre	2023-12-29T00:00:00	2024-11-08T18:00:00	8	Radiación solar	22
27721	7	Sololá	712	San Antonio Palopó	9	San Antonio Palopo	12	Diciembre	2023-12-29T00:00:00	2024-11-08T19:00:00	2	Temperatura media	18.8
27722	7	Sololá	712	San Antonio Palopó	9	San Antonio Palopo	12	Diciembre	2023-12-29T00:00:00	2024-11-08T19:00:00	4	Temperatura máxima	19.7
27723	7	Sololá	712	San Antonio Palopó	9	San Antonio Palopo	12	Diciembre	2023-12-29T00:00:00	2024-11-08T19:00:00	3	Temperatura mínima	18.8
27724	7	Sololá	712	San Antonio Palopó	9	San Antonio Palopo	12	Diciembre	2023-12-29T00:00:00	2024-11-08T19:00:00	5	Humedad	74
27725	7	Sololá	712	San Antonio Palopó	9	San Antonio Palopo	12	Diciembre	2023-12-29T00:00:00	2024-11-08T19:00:00	6	Velocidad del viento	1.6
27726	7	Sololá	712	San Antonio Palopó	9	San Antonio Palopo	12	Diciembre	2023-12-29T00:00:00	2024-11-08T19:00:00	7	Dirección del viento	1.61
27727	7	Sololá	712	San Antonio Palopó	9	San Antonio Palopo	12	Diciembre	2023-12-29T00:00:00	2024-11-08T19:00:00	1	Precipitación	0
27728	7	Sololá	712	San Antonio Palopó	9	San Antonio Palopo	12	Diciembre	2023-12-29T00:00:00	2024-11-08T19:00:00	8	Radiación solar	0
27729	7	Sololá	712	San Antonio Palopó	9	San Antonio Palopo	12	Diciembre	2023-12-29T00:00:00	2024-11-08T20:00:00	2	Temperatura media	18.3
27730	7	Sololá	712	San Antonio Palopó	9	San Antonio Palopo	12	Diciembre	2023-12-29T00:00:00	2024-11-08T20:00:00	4	Temperatura máxima	18.8
27731	7	Sololá	712	San Antonio Palopó	9	San Antonio Palopo	12	Diciembre	2023-12-29T00:00:00	2024-11-08T20:00:00	3	Temperatura mínima	18.1
27732	7	Sololá	712	San Antonio Palopó	9	San Antonio Palopo	12	Diciembre	2023-12-29T00:00:00	2024-11-08T20:00:00	5	Humedad	76
27733	7	Sololá	712	San Antonio Palopó	9	San Antonio Palopo	12	Diciembre	2023-12-29T00:00:00	2024-11-08T20:00:00	6	Velocidad del viento	1.6
27734	7	Sololá	712	San Antonio Palopó	9	San Antonio Palopo	12	Diciembre	2023-12-29T00:00:00	2024-11-08T20:00:00	7	Dirección del viento	1.61
27735	7	Sololá	712	San Antonio Palopó	9	San Antonio Palopo	12	Diciembre	2023-12-29T00:00:00	2024-11-08T20:00:00	1	Precipitación	0
27736	7	Sololá	712	San Antonio Palopó	9	San Antonio Palopo	12	Diciembre	2023-12-29T00:00:00	2024-11-08T20:00:00	8	Radiación solar	0
27737	7	Sololá	712	San Antonio Palopó	9	San Antonio Palopo	12	Diciembre	2023-12-29T00:00:00	2024-11-08T21:00:00	2	Temperatura media	17.9
27738	7	Sololá	712	San Antonio Palopó	9	San Antonio Palopo	12	Diciembre	2023-12-29T00:00:00	2024-11-08T21:00:00	4	Temperatura máxima	18.4
27739	7	Sololá	712	San Antonio Palopó	9	San Antonio Palopo	12	Diciembre	2023-12-29T00:00:00	2024-11-08T21:00:00	3	Temperatura mínima	17.9
27740	7	Sololá	712	San Antonio Palopó	9	San Antonio Palopo	12	Diciembre	2023-12-29T00:00:00	2024-11-08T21:00:00	5	Humedad	75
27741	7	Sololá	712	San Antonio Palopó	9	San Antonio Palopo	12	Diciembre	2023-12-29T00:00:00	2024-11-08T21:00:00	6	Velocidad del viento	1.6
27742	7	Sololá	712	San Antonio Palopó	9	San Antonio Palopo	12	Diciembre	2023-12-29T00:00:00	2024-11-08T21:00:00	7	Dirección del viento	1.61
27743	7	Sololá	712	San Antonio Palopó	9	San Antonio Palopo	12	Diciembre	2023-12-29T00:00:00	2024-11-08T21:00:00	1	Precipitación	0
27744	7	Sololá	712	San Antonio Palopó	9	San Antonio Palopo	12	Diciembre	2023-12-29T00:00:00	2024-11-08T21:00:00	8	Radiación solar	0
27745	7	Sololá	712	San Antonio Palopó	9	San Antonio Palopo	12	Diciembre	2023-12-29T00:00:00	2024-11-08T22:00:00	2	Temperatura media	17.6
27746	7	Sololá	712	San Antonio Palopó	9	San Antonio Palopo	12	Diciembre	2023-12-29T00:00:00	2024-11-08T22:00:00	4	Temperatura máxima	17.9
27747	7	Sololá	712	San Antonio Palopó	9	San Antonio Palopo	12	Diciembre	2023-12-29T00:00:00	2024-11-08T22:00:00	3	Temperatura mínima	17.2
27748	7	Sololá	712	San Antonio Palopó	9	San Antonio Palopo	12	Diciembre	2023-12-29T00:00:00	2024-11-08T22:00:00	5	Humedad	77
27749	7	Sololá	712	San Antonio Palopó	9	San Antonio Palopo	12	Diciembre	2023-12-29T00:00:00	2024-11-08T22:00:00	6	Velocidad del viento	1.6
27750	7	Sololá	712	San Antonio Palopó	9	San Antonio Palopo	12	Diciembre	2023-12-29T00:00:00	2024-11-08T22:00:00	7	Dirección del viento	1.61
27751	7	Sololá	712	San Antonio Palopó	9	San Antonio Palopo	12	Diciembre	2023-12-29T00:00:00	2024-11-08T22:00:00	1	Precipitación	0
27752	7	Sololá	712	San Antonio Palopó	9	San Antonio Palopo	12	Diciembre	2023-12-29T00:00:00	2024-11-08T22:00:00	8	Radiación solar	0
27753	7	Sololá	712	San Antonio Palopó	9	San Antonio Palopo	12	Diciembre	2023-12-29T00:00:00	2024-11-08T23:00:00	2	Temperatura media	17.3
27754	7	Sololá	712	San Antonio Palopó	9	San Antonio Palopo	12	Diciembre	2023-12-29T00:00:00	2024-11-08T23:00:00	4	Temperatura máxima	17.7
27755	7	Sololá	712	San Antonio Palopó	9	San Antonio Palopo	12	Diciembre	2023-12-29T00:00:00	2024-11-08T23:00:00	3	Temperatura mínima	17.3
27756	7	Sololá	712	San Antonio Palopó	9	San Antonio Palopo	12	Diciembre	2023-12-29T00:00:00	2024-11-08T23:00:00	5	Humedad	73
27757	7	Sololá	712	San Antonio Palopó	9	San Antonio Palopo	12	Diciembre	2023-12-29T00:00:00	2024-11-08T23:00:00	6	Velocidad del viento	3.2
27758	7	Sololá	712	San Antonio Palopó	9	San Antonio Palopo	12	Diciembre	2023-12-29T00:00:00	2024-11-08T23:00:00	7	Dirección del viento	3.22
27759	7	Sololá	712	San Antonio Palopó	9	San Antonio Palopo	12	Diciembre	2023-12-29T00:00:00	2024-11-08T23:00:00	1	Precipitación	0
27760	7	Sololá	712	San Antonio Palopó	9	San Antonio Palopo	12	Diciembre	2023-12-29T00:00:00	2024-11-08T23:00:00	8	Radiación solar	0
27761	7	Sololá	712	San Antonio Palopó	9	San Antonio Palopo	12	Diciembre	2023-12-30T00:00:00	2024-11-08T00:00:00	2	Temperatura media	16.8
27762	7	Sololá	712	San Antonio Palopó	9	San Antonio Palopo	12	Diciembre	2023-12-30T00:00:00	2024-11-08T00:00:00	4	Temperatura máxima	17.3
27763	7	Sololá	712	San Antonio Palopó	9	San Antonio Palopo	12	Diciembre	2023-12-30T00:00:00	2024-11-08T00:00:00	3	Temperatura mínima	16.8
27764	7	Sololá	712	San Antonio Palopó	9	San Antonio Palopo	12	Diciembre	2023-12-30T00:00:00	2024-11-08T00:00:00	5	Humedad	75
27765	7	Sololá	712	San Antonio Palopó	9	San Antonio Palopo	12	Diciembre	2023-12-30T00:00:00	2024-11-08T00:00:00	6	Velocidad del viento	3.2
27766	7	Sololá	712	San Antonio Palopó	9	San Antonio Palopo	12	Diciembre	2023-12-30T00:00:00	2024-11-08T00:00:00	7	Dirección del viento	3.22
27767	7	Sololá	712	San Antonio Palopó	9	San Antonio Palopo	12	Diciembre	2023-12-30T00:00:00	2024-11-08T00:00:00	1	Precipitación	0
27768	7	Sololá	712	San Antonio Palopó	9	San Antonio Palopo	12	Diciembre	2023-12-30T00:00:00	2024-11-08T00:00:00	8	Radiación solar	0
27769	7	Sololá	712	San Antonio Palopó	9	San Antonio Palopo	12	Diciembre	2023-12-30T00:00:00	2024-11-08T01:00:00	2	Temperatura media	16.9
27770	7	Sololá	712	San Antonio Palopó	9	San Antonio Palopo	12	Diciembre	2023-12-30T00:00:00	2024-11-08T01:00:00	4	Temperatura máxima	16.9
27771	7	Sololá	712	San Antonio Palopó	9	San Antonio Palopo	12	Diciembre	2023-12-30T00:00:00	2024-11-08T01:00:00	3	Temperatura mínima	16.4
27772	7	Sololá	712	San Antonio Palopó	9	San Antonio Palopo	12	Diciembre	2023-12-30T00:00:00	2024-11-08T01:00:00	5	Humedad	75
27773	7	Sololá	712	San Antonio Palopó	9	San Antonio Palopo	12	Diciembre	2023-12-30T00:00:00	2024-11-08T01:00:00	6	Velocidad del viento	8
27774	7	Sololá	712	San Antonio Palopó	9	San Antonio Palopo	12	Diciembre	2023-12-30T00:00:00	2024-11-08T01:00:00	7	Dirección del viento	8.05
27775	7	Sololá	712	San Antonio Palopó	9	San Antonio Palopo	12	Diciembre	2023-12-30T00:00:00	2024-11-08T01:00:00	1	Precipitación	0
27776	7	Sololá	712	San Antonio Palopó	9	San Antonio Palopo	12	Diciembre	2023-12-30T00:00:00	2024-11-08T01:00:00	8	Radiación solar	0
27777	7	Sololá	712	San Antonio Palopó	9	San Antonio Palopo	12	Diciembre	2023-12-30T00:00:00	2024-11-08T02:00:00	2	Temperatura media	16.7
27778	7	Sololá	712	San Antonio Palopó	9	San Antonio Palopo	12	Diciembre	2023-12-30T00:00:00	2024-11-08T02:00:00	4	Temperatura máxima	17
27779	7	Sololá	712	San Antonio Palopó	9	San Antonio Palopo	12	Diciembre	2023-12-30T00:00:00	2024-11-08T02:00:00	3	Temperatura mínima	16.7
27780	7	Sololá	712	San Antonio Palopó	9	San Antonio Palopo	12	Diciembre	2023-12-30T00:00:00	2024-11-08T02:00:00	5	Humedad	75
27781	7	Sololá	712	San Antonio Palopó	9	San Antonio Palopo	12	Diciembre	2023-12-30T00:00:00	2024-11-08T02:00:00	6	Velocidad del viento	8
27782	7	Sololá	712	San Antonio Palopó	9	San Antonio Palopo	12	Diciembre	2023-12-30T00:00:00	2024-11-08T02:00:00	7	Dirección del viento	8.05
27783	7	Sololá	712	San Antonio Palopó	9	San Antonio Palopo	12	Diciembre	2023-12-30T00:00:00	2024-11-08T02:00:00	1	Precipitación	0
27784	7	Sololá	712	San Antonio Palopó	9	San Antonio Palopo	12	Diciembre	2023-12-30T00:00:00	2024-11-08T02:00:00	8	Radiación solar	0
27785	7	Sololá	712	San Antonio Palopó	9	San Antonio Palopo	12	Diciembre	2023-12-30T00:00:00	2024-11-08T03:00:00	2	Temperatura media	16.4
27786	7	Sololá	712	San Antonio Palopó	9	San Antonio Palopo	12	Diciembre	2023-12-30T00:00:00	2024-11-08T03:00:00	4	Temperatura máxima	16.8
27787	7	Sololá	712	San Antonio Palopó	9	San Antonio Palopo	12	Diciembre	2023-12-30T00:00:00	2024-11-08T03:00:00	3	Temperatura mínima	16.4
27788	7	Sololá	712	San Antonio Palopó	9	San Antonio Palopo	12	Diciembre	2023-12-30T00:00:00	2024-11-08T03:00:00	5	Humedad	76
27789	7	Sololá	712	San Antonio Palopó	9	San Antonio Palopo	12	Diciembre	2023-12-30T00:00:00	2024-11-08T03:00:00	6	Velocidad del viento	6.4
27790	7	Sololá	712	San Antonio Palopó	9	San Antonio Palopo	12	Diciembre	2023-12-30T00:00:00	2024-11-08T03:00:00	7	Dirección del viento	6.44
27791	7	Sololá	712	San Antonio Palopó	9	San Antonio Palopo	12	Diciembre	2023-12-30T00:00:00	2024-11-08T03:00:00	1	Precipitación	0
27792	7	Sololá	712	San Antonio Palopó	9	San Antonio Palopo	12	Diciembre	2023-12-30T00:00:00	2024-11-08T03:00:00	8	Radiación solar	0
27793	7	Sololá	712	San Antonio Palopó	9	San Antonio Palopo	12	Diciembre	2023-12-30T00:00:00	2024-11-08T04:00:00	2	Temperatura media	16.5
27794	7	Sololá	712	San Antonio Palopó	9	San Antonio Palopo	12	Diciembre	2023-12-30T00:00:00	2024-11-08T04:00:00	4	Temperatura máxima	16.6
27795	7	Sololá	712	San Antonio Palopó	9	San Antonio Palopo	12	Diciembre	2023-12-30T00:00:00	2024-11-08T04:00:00	3	Temperatura mínima	16.4
27796	7	Sololá	712	San Antonio Palopó	9	San Antonio Palopo	12	Diciembre	2023-12-30T00:00:00	2024-11-08T04:00:00	5	Humedad	71
27797	7	Sololá	712	San Antonio Palopó	9	San Antonio Palopo	12	Diciembre	2023-12-30T00:00:00	2024-11-08T04:00:00	6	Velocidad del viento	9.7
27798	7	Sololá	712	San Antonio Palopó	9	San Antonio Palopo	12	Diciembre	2023-12-30T00:00:00	2024-11-08T04:00:00	7	Dirección del viento	9.66
27799	7	Sololá	712	San Antonio Palopó	9	San Antonio Palopo	12	Diciembre	2023-12-30T00:00:00	2024-11-08T04:00:00	1	Precipitación	0
27800	7	Sololá	712	San Antonio Palopó	9	San Antonio Palopo	12	Diciembre	2023-12-30T00:00:00	2024-11-08T04:00:00	8	Radiación solar	0
27801	7	Sololá	712	San Antonio Palopó	9	San Antonio Palopo	12	Diciembre	2023-12-30T00:00:00	2024-11-08T05:00:00	2	Temperatura media	16.4
27802	7	Sololá	712	San Antonio Palopó	9	San Antonio Palopo	12	Diciembre	2023-12-30T00:00:00	2024-11-08T05:00:00	4	Temperatura máxima	16.6
27803	7	Sololá	712	San Antonio Palopó	9	San Antonio Palopo	12	Diciembre	2023-12-30T00:00:00	2024-11-08T05:00:00	3	Temperatura mínima	16.2
27804	7	Sololá	712	San Antonio Palopó	9	San Antonio Palopo	12	Diciembre	2023-12-30T00:00:00	2024-11-08T05:00:00	5	Humedad	73
27805	7	Sololá	712	San Antonio Palopó	9	San Antonio Palopo	12	Diciembre	2023-12-30T00:00:00	2024-11-08T05:00:00	6	Velocidad del viento	14.5
27806	7	Sololá	712	San Antonio Palopó	9	San Antonio Palopo	12	Diciembre	2023-12-30T00:00:00	2024-11-08T05:00:00	7	Dirección del viento	14.48
27807	7	Sololá	712	San Antonio Palopó	9	San Antonio Palopo	12	Diciembre	2023-12-30T00:00:00	2024-11-08T05:00:00	1	Precipitación	0
27808	7	Sololá	712	San Antonio Palopó	9	San Antonio Palopo	12	Diciembre	2023-12-30T00:00:00	2024-11-08T05:00:00	8	Radiación solar	0
27809	7	Sololá	712	San Antonio Palopó	9	San Antonio Palopo	12	Diciembre	2023-12-30T00:00:00	2024-11-08T06:00:00	2	Temperatura media	16.3
27810	7	Sololá	712	San Antonio Palopó	9	San Antonio Palopo	12	Diciembre	2023-12-30T00:00:00	2024-11-08T06:00:00	4	Temperatura máxima	16.6
27811	7	Sololá	712	San Antonio Palopó	9	San Antonio Palopo	12	Diciembre	2023-12-30T00:00:00	2024-11-08T06:00:00	3	Temperatura mínima	16.1
27812	7	Sololá	712	San Antonio Palopó	9	San Antonio Palopo	12	Diciembre	2023-12-30T00:00:00	2024-11-08T06:00:00	5	Humedad	71
27813	7	Sololá	712	San Antonio Palopó	9	San Antonio Palopo	12	Diciembre	2023-12-30T00:00:00	2024-11-08T06:00:00	6	Velocidad del viento	11.3
27814	7	Sololá	712	San Antonio Palopó	9	San Antonio Palopo	12	Diciembre	2023-12-30T00:00:00	2024-11-08T06:00:00	7	Dirección del viento	11.27
27815	7	Sololá	712	San Antonio Palopó	9	San Antonio Palopo	12	Diciembre	2023-12-30T00:00:00	2024-11-08T06:00:00	1	Precipitación	0
27816	7	Sololá	712	San Antonio Palopó	9	San Antonio Palopo	12	Diciembre	2023-12-30T00:00:00	2024-11-08T06:00:00	8	Radiación solar	0
27817	7	Sololá	712	San Antonio Palopó	9	San Antonio Palopo	12	Diciembre	2023-12-30T00:00:00	2024-11-08T07:00:00	2	Temperatura media	16.2
27818	7	Sololá	712	San Antonio Palopó	9	San Antonio Palopo	12	Diciembre	2023-12-30T00:00:00	2024-11-08T07:00:00	4	Temperatura máxima	16.7
27819	7	Sololá	712	San Antonio Palopó	9	San Antonio Palopo	12	Diciembre	2023-12-30T00:00:00	2024-11-08T07:00:00	3	Temperatura mínima	16.2
27820	7	Sololá	712	San Antonio Palopó	9	San Antonio Palopo	12	Diciembre	2023-12-30T00:00:00	2024-11-08T07:00:00	5	Humedad	73
27821	7	Sololá	712	San Antonio Palopó	9	San Antonio Palopo	12	Diciembre	2023-12-30T00:00:00	2024-11-08T07:00:00	6	Velocidad del viento	11.3
27822	7	Sololá	712	San Antonio Palopó	9	San Antonio Palopo	12	Diciembre	2023-12-30T00:00:00	2024-11-08T07:00:00	7	Dirección del viento	11.27
27823	7	Sololá	712	San Antonio Palopó	9	San Antonio Palopo	12	Diciembre	2023-12-30T00:00:00	2024-11-08T07:00:00	1	Precipitación	0
27824	7	Sololá	712	San Antonio Palopó	9	San Antonio Palopo	12	Diciembre	2023-12-30T00:00:00	2024-11-08T07:00:00	8	Radiación solar	4
27825	7	Sololá	712	San Antonio Palopó	9	San Antonio Palopo	12	Diciembre	2023-12-30T00:00:00	2024-11-08T08:00:00	2	Temperatura media	16.7
27826	7	Sololá	712	San Antonio Palopó	9	San Antonio Palopo	12	Diciembre	2023-12-30T00:00:00	2024-11-08T08:00:00	4	Temperatura máxima	16.7
27827	7	Sololá	712	San Antonio Palopó	9	San Antonio Palopo	12	Diciembre	2023-12-30T00:00:00	2024-11-08T08:00:00	3	Temperatura mínima	15.7
27828	7	Sololá	712	San Antonio Palopó	9	San Antonio Palopo	12	Diciembre	2023-12-30T00:00:00	2024-11-08T08:00:00	5	Humedad	72
27829	7	Sololá	712	San Antonio Palopó	9	San Antonio Palopo	12	Diciembre	2023-12-30T00:00:00	2024-11-08T08:00:00	6	Velocidad del viento	16.1
27830	7	Sololá	712	San Antonio Palopó	9	San Antonio Palopo	12	Diciembre	2023-12-30T00:00:00	2024-11-08T08:00:00	7	Dirección del viento	16.09
27831	7	Sololá	712	San Antonio Palopó	9	San Antonio Palopo	12	Diciembre	2023-12-30T00:00:00	2024-11-08T08:00:00	1	Precipitación	0
27832	7	Sololá	712	San Antonio Palopó	9	San Antonio Palopo	12	Diciembre	2023-12-30T00:00:00	2024-11-08T08:00:00	8	Radiación solar	22
27833	7	Sololá	712	San Antonio Palopó	9	San Antonio Palopo	12	Diciembre	2023-12-30T00:00:00	2024-11-08T09:00:00	2	Temperatura media	18.2
27834	7	Sololá	712	San Antonio Palopó	9	San Antonio Palopo	12	Diciembre	2023-12-30T00:00:00	2024-11-08T09:00:00	4	Temperatura máxima	18.2
27835	7	Sololá	712	San Antonio Palopó	9	San Antonio Palopo	12	Diciembre	2023-12-30T00:00:00	2024-11-08T09:00:00	3	Temperatura mínima	16.7
27836	7	Sololá	712	San Antonio Palopó	9	San Antonio Palopo	12	Diciembre	2023-12-30T00:00:00	2024-11-08T09:00:00	5	Humedad	72
27837	7	Sololá	712	San Antonio Palopó	9	San Antonio Palopo	12	Diciembre	2023-12-30T00:00:00	2024-11-08T09:00:00	6	Velocidad del viento	9.7
27838	7	Sololá	712	San Antonio Palopó	9	San Antonio Palopo	12	Diciembre	2023-12-30T00:00:00	2024-11-08T09:00:00	7	Dirección del viento	9.66
27839	7	Sololá	712	San Antonio Palopó	9	San Antonio Palopo	12	Diciembre	2023-12-30T00:00:00	2024-11-08T09:00:00	1	Precipitación	0
27840	7	Sololá	712	San Antonio Palopó	9	San Antonio Palopo	12	Diciembre	2023-12-30T00:00:00	2024-11-08T09:00:00	8	Radiación solar	95
27841	7	Sololá	712	San Antonio Palopó	9	San Antonio Palopo	12	Diciembre	2023-12-30T00:00:00	2024-11-08T10:00:00	2	Temperatura media	19.6
27842	7	Sololá	712	San Antonio Palopó	9	San Antonio Palopo	12	Diciembre	2023-12-30T00:00:00	2024-11-08T10:00:00	4	Temperatura máxima	19.7
27843	7	Sololá	712	San Antonio Palopó	9	San Antonio Palopo	12	Diciembre	2023-12-30T00:00:00	2024-11-08T10:00:00	3	Temperatura mínima	18.1
27844	7	Sololá	712	San Antonio Palopó	9	San Antonio Palopo	12	Diciembre	2023-12-30T00:00:00	2024-11-08T10:00:00	5	Humedad	73
27845	7	Sololá	712	San Antonio Palopó	9	San Antonio Palopo	12	Diciembre	2023-12-30T00:00:00	2024-11-08T10:00:00	6	Velocidad del viento	3.2
27846	7	Sololá	712	San Antonio Palopó	9	San Antonio Palopo	12	Diciembre	2023-12-30T00:00:00	2024-11-08T10:00:00	7	Dirección del viento	3.22
27847	7	Sololá	712	San Antonio Palopó	9	San Antonio Palopo	12	Diciembre	2023-12-30T00:00:00	2024-11-08T10:00:00	1	Precipitación	0
27848	7	Sololá	712	San Antonio Palopó	9	San Antonio Palopo	12	Diciembre	2023-12-30T00:00:00	2024-11-08T10:00:00	8	Radiación solar	518
27849	7	Sololá	712	San Antonio Palopó	9	San Antonio Palopo	12	Diciembre	2023-12-30T00:00:00	2024-11-08T11:00:00	2	Temperatura media	20.2
27850	7	Sololá	712	San Antonio Palopó	9	San Antonio Palopo	12	Diciembre	2023-12-30T00:00:00	2024-11-08T11:00:00	4	Temperatura máxima	20.2
27851	7	Sololá	712	San Antonio Palopó	9	San Antonio Palopo	12	Diciembre	2023-12-30T00:00:00	2024-11-08T11:00:00	3	Temperatura mínima	19.6
27852	7	Sololá	712	San Antonio Palopó	9	San Antonio Palopo	12	Diciembre	2023-12-30T00:00:00	2024-11-08T11:00:00	5	Humedad	70
27853	7	Sololá	712	San Antonio Palopó	9	San Antonio Palopo	12	Diciembre	2023-12-30T00:00:00	2024-11-08T11:00:00	6	Velocidad del viento	3.2
27854	7	Sololá	712	San Antonio Palopó	9	San Antonio Palopo	12	Diciembre	2023-12-30T00:00:00	2024-11-08T11:00:00	7	Dirección del viento	3.22
27855	7	Sololá	712	San Antonio Palopó	9	San Antonio Palopo	12	Diciembre	2023-12-30T00:00:00	2024-11-08T11:00:00	1	Precipitación	0
27856	7	Sololá	712	San Antonio Palopó	9	San Antonio Palopo	12	Diciembre	2023-12-30T00:00:00	2024-11-08T11:00:00	8	Radiación solar	644
27857	7	Sololá	712	San Antonio Palopó	9	San Antonio Palopo	12	Diciembre	2023-12-30T00:00:00	2024-11-08T12:00:00	2	Temperatura media	21.5
27858	7	Sololá	712	San Antonio Palopó	9	San Antonio Palopo	12	Diciembre	2023-12-30T00:00:00	2024-11-08T12:00:00	4	Temperatura máxima	21.5
27859	7	Sololá	712	San Antonio Palopó	9	San Antonio Palopo	12	Diciembre	2023-12-30T00:00:00	2024-11-08T12:00:00	3	Temperatura mínima	20.1
27860	7	Sololá	712	San Antonio Palopó	9	San Antonio Palopo	12	Diciembre	2023-12-30T00:00:00	2024-11-08T12:00:00	5	Humedad	68
27861	7	Sololá	712	San Antonio Palopó	9	San Antonio Palopo	12	Diciembre	2023-12-30T00:00:00	2024-11-08T12:00:00	6	Velocidad del viento	3.2
27862	7	Sololá	712	San Antonio Palopó	9	San Antonio Palopo	12	Diciembre	2023-12-30T00:00:00	2024-11-08T12:00:00	7	Dirección del viento	3.22
27863	7	Sololá	712	San Antonio Palopó	9	San Antonio Palopo	12	Diciembre	2023-12-30T00:00:00	2024-11-08T12:00:00	1	Precipitación	0
27864	7	Sololá	712	San Antonio Palopó	9	San Antonio Palopo	12	Diciembre	2023-12-30T00:00:00	2024-11-08T12:00:00	8	Radiación solar	660
27865	7	Sololá	712	San Antonio Palopó	9	San Antonio Palopo	12	Diciembre	2023-12-30T00:00:00	2024-11-08T13:00:00	2	Temperatura media	23
27866	7	Sololá	712	San Antonio Palopó	9	San Antonio Palopo	12	Diciembre	2023-12-30T00:00:00	2024-11-08T13:00:00	4	Temperatura máxima	23.1
27867	7	Sololá	712	San Antonio Palopó	9	San Antonio Palopo	12	Diciembre	2023-12-30T00:00:00	2024-11-08T13:00:00	3	Temperatura mínima	21.4
27868	7	Sololá	712	San Antonio Palopó	9	San Antonio Palopo	12	Diciembre	2023-12-30T00:00:00	2024-11-08T13:00:00	5	Humedad	69
27869	7	Sololá	712	San Antonio Palopó	9	San Antonio Palopo	12	Diciembre	2023-12-30T00:00:00	2024-11-08T13:00:00	6	Velocidad del viento	6.4
27870	7	Sololá	712	San Antonio Palopó	9	San Antonio Palopo	12	Diciembre	2023-12-30T00:00:00	2024-11-08T13:00:00	7	Dirección del viento	6.44
27871	7	Sololá	712	San Antonio Palopó	9	San Antonio Palopo	12	Diciembre	2023-12-30T00:00:00	2024-11-08T13:00:00	1	Precipitación	0
27872	7	Sololá	712	San Antonio Palopó	9	San Antonio Palopo	12	Diciembre	2023-12-30T00:00:00	2024-11-08T13:00:00	8	Radiación solar	718
27873	7	Sololá	712	San Antonio Palopó	9	San Antonio Palopo	12	Diciembre	2023-12-30T00:00:00	2024-11-08T14:00:00	2	Temperatura media	22.7
27874	7	Sololá	712	San Antonio Palopó	9	San Antonio Palopo	12	Diciembre	2023-12-30T00:00:00	2024-11-08T14:00:00	4	Temperatura máxima	23
27875	7	Sololá	712	San Antonio Palopó	9	San Antonio Palopo	12	Diciembre	2023-12-30T00:00:00	2024-11-08T14:00:00	3	Temperatura mínima	22.4
27876	7	Sololá	712	San Antonio Palopó	9	San Antonio Palopo	12	Diciembre	2023-12-30T00:00:00	2024-11-08T14:00:00	5	Humedad	70
27877	7	Sololá	712	San Antonio Palopó	9	San Antonio Palopo	12	Diciembre	2023-12-30T00:00:00	2024-11-08T14:00:00	6	Velocidad del viento	12.9
27878	7	Sololá	712	San Antonio Palopó	9	San Antonio Palopo	12	Diciembre	2023-12-30T00:00:00	2024-11-08T14:00:00	7	Dirección del viento	12.87
27879	7	Sololá	712	San Antonio Palopó	9	San Antonio Palopo	12	Diciembre	2023-12-30T00:00:00	2024-11-08T14:00:00	1	Precipitación	0
27880	7	Sololá	712	San Antonio Palopó	9	San Antonio Palopo	12	Diciembre	2023-12-30T00:00:00	2024-11-08T14:00:00	8	Radiación solar	441
27881	7	Sololá	712	San Antonio Palopó	9	San Antonio Palopo	12	Diciembre	2023-12-30T00:00:00	2024-11-08T15:00:00	2	Temperatura media	22.8
27882	7	Sololá	712	San Antonio Palopó	9	San Antonio Palopo	12	Diciembre	2023-12-30T00:00:00	2024-11-08T15:00:00	4	Temperatura máxima	23.3
27883	7	Sololá	712	San Antonio Palopó	9	San Antonio Palopo	12	Diciembre	2023-12-30T00:00:00	2024-11-08T15:00:00	3	Temperatura mínima	22.7
27884	7	Sololá	712	San Antonio Palopó	9	San Antonio Palopo	12	Diciembre	2023-12-30T00:00:00	2024-11-08T15:00:00	5	Humedad	70
27885	7	Sololá	712	San Antonio Palopó	9	San Antonio Palopo	12	Diciembre	2023-12-30T00:00:00	2024-11-08T15:00:00	6	Velocidad del viento	12.9
27886	7	Sololá	712	San Antonio Palopó	9	San Antonio Palopo	12	Diciembre	2023-12-30T00:00:00	2024-11-08T15:00:00	7	Dirección del viento	12.87
27887	7	Sololá	712	San Antonio Palopó	9	San Antonio Palopo	12	Diciembre	2023-12-30T00:00:00	2024-11-08T15:00:00	1	Precipitación	0
27888	7	Sololá	712	San Antonio Palopó	9	San Antonio Palopo	12	Diciembre	2023-12-30T00:00:00	2024-11-08T15:00:00	8	Radiación solar	621
27889	7	Sololá	712	San Antonio Palopó	9	San Antonio Palopo	12	Diciembre	2023-12-30T00:00:00	2024-11-08T16:00:00	2	Temperatura media	22.2
27890	7	Sololá	712	San Antonio Palopó	9	San Antonio Palopo	12	Diciembre	2023-12-30T00:00:00	2024-11-08T16:00:00	4	Temperatura máxima	22.9
27891	7	Sololá	712	San Antonio Palopó	9	San Antonio Palopo	12	Diciembre	2023-12-30T00:00:00	2024-11-08T16:00:00	3	Temperatura mínima	22.2
27892	7	Sololá	712	San Antonio Palopó	9	San Antonio Palopo	12	Diciembre	2023-12-30T00:00:00	2024-11-08T16:00:00	5	Humedad	72
27893	7	Sololá	712	San Antonio Palopó	9	San Antonio Palopo	12	Diciembre	2023-12-30T00:00:00	2024-11-08T16:00:00	6	Velocidad del viento	14.5
27894	7	Sololá	712	San Antonio Palopó	9	San Antonio Palopo	12	Diciembre	2023-12-30T00:00:00	2024-11-08T16:00:00	7	Dirección del viento	14.48
27895	7	Sololá	712	San Antonio Palopó	9	San Antonio Palopo	12	Diciembre	2023-12-30T00:00:00	2024-11-08T16:00:00	1	Precipitación	0
27896	7	Sololá	712	San Antonio Palopó	9	San Antonio Palopo	12	Diciembre	2023-12-30T00:00:00	2024-11-08T16:00:00	8	Radiación solar	416
27897	7	Sololá	712	San Antonio Palopó	9	San Antonio Palopo	12	Diciembre	2023-12-30T00:00:00	2024-11-08T17:00:00	2	Temperatura media	21.3
27898	7	Sololá	712	San Antonio Palopó	9	San Antonio Palopo	12	Diciembre	2023-12-30T00:00:00	2024-11-08T17:00:00	4	Temperatura máxima	22.3
27899	7	Sololá	712	San Antonio Palopó	9	San Antonio Palopo	12	Diciembre	2023-12-30T00:00:00	2024-11-08T17:00:00	3	Temperatura mínima	21.3
27900	7	Sololá	712	San Antonio Palopó	9	San Antonio Palopo	12	Diciembre	2023-12-30T00:00:00	2024-11-08T17:00:00	5	Humedad	75
27901	7	Sololá	712	San Antonio Palopó	9	San Antonio Palopo	12	Diciembre	2023-12-30T00:00:00	2024-11-08T17:00:00	6	Velocidad del viento	11.3
27902	7	Sololá	712	San Antonio Palopó	9	San Antonio Palopo	12	Diciembre	2023-12-30T00:00:00	2024-11-08T17:00:00	7	Dirección del viento	11.27
27903	7	Sololá	712	San Antonio Palopó	9	San Antonio Palopo	12	Diciembre	2023-12-30T00:00:00	2024-11-08T17:00:00	1	Precipitación	0
27904	7	Sololá	712	San Antonio Palopó	9	San Antonio Palopo	12	Diciembre	2023-12-30T00:00:00	2024-11-08T17:00:00	8	Radiación solar	164
27905	7	Sololá	712	San Antonio Palopó	9	San Antonio Palopo	12	Diciembre	2023-12-30T00:00:00	2024-11-08T18:00:00	2	Temperatura media	20.4
27906	7	Sololá	712	San Antonio Palopó	9	San Antonio Palopo	12	Diciembre	2023-12-30T00:00:00	2024-11-08T18:00:00	4	Temperatura máxima	21.3
27907	7	Sololá	712	San Antonio Palopó	9	San Antonio Palopo	12	Diciembre	2023-12-30T00:00:00	2024-11-08T18:00:00	3	Temperatura mínima	20.4
27908	7	Sololá	712	San Antonio Palopó	9	San Antonio Palopo	12	Diciembre	2023-12-30T00:00:00	2024-11-08T18:00:00	5	Humedad	71
27909	7	Sololá	712	San Antonio Palopó	9	San Antonio Palopo	12	Diciembre	2023-12-30T00:00:00	2024-11-08T18:00:00	6	Velocidad del viento	3.2
27910	7	Sololá	712	San Antonio Palopó	9	San Antonio Palopo	12	Diciembre	2023-12-30T00:00:00	2024-11-08T18:00:00	7	Dirección del viento	3.22
27911	7	Sololá	712	San Antonio Palopó	9	San Antonio Palopo	12	Diciembre	2023-12-30T00:00:00	2024-11-08T18:00:00	1	Precipitación	0
27912	7	Sololá	712	San Antonio Palopó	9	San Antonio Palopo	12	Diciembre	2023-12-30T00:00:00	2024-11-08T18:00:00	8	Radiación solar	18
27913	7	Sololá	712	San Antonio Palopó	9	San Antonio Palopo	12	Diciembre	2023-12-30T00:00:00	2024-11-08T19:00:00	2	Temperatura media	19.6
27914	7	Sololá	712	San Antonio Palopó	9	San Antonio Palopo	12	Diciembre	2023-12-30T00:00:00	2024-11-08T19:00:00	4	Temperatura máxima	20.4
27915	7	Sololá	712	San Antonio Palopó	9	San Antonio Palopo	12	Diciembre	2023-12-30T00:00:00	2024-11-08T19:00:00	3	Temperatura mínima	19.6
27916	7	Sololá	712	San Antonio Palopó	9	San Antonio Palopo	12	Diciembre	2023-12-30T00:00:00	2024-11-08T19:00:00	5	Humedad	68
27917	7	Sololá	712	San Antonio Palopó	9	San Antonio Palopo	12	Diciembre	2023-12-30T00:00:00	2024-11-08T19:00:00	6	Velocidad del viento	14.5
27918	7	Sololá	712	San Antonio Palopó	9	San Antonio Palopo	12	Diciembre	2023-12-30T00:00:00	2024-11-08T19:00:00	7	Dirección del viento	14.48
27919	7	Sololá	712	San Antonio Palopó	9	San Antonio Palopo	12	Diciembre	2023-12-30T00:00:00	2024-11-08T19:00:00	1	Precipitación	0
27920	7	Sololá	712	San Antonio Palopó	9	San Antonio Palopo	12	Diciembre	2023-12-30T00:00:00	2024-11-08T19:00:00	8	Radiación solar	0
27921	7	Sololá	712	San Antonio Palopó	9	San Antonio Palopo	12	Diciembre	2023-12-30T00:00:00	2024-11-08T20:00:00	2	Temperatura media	18.8
27922	7	Sololá	712	San Antonio Palopó	9	San Antonio Palopo	12	Diciembre	2023-12-30T00:00:00	2024-11-08T20:00:00	4	Temperatura máxima	19.6
27923	7	Sololá	712	San Antonio Palopó	9	San Antonio Palopo	12	Diciembre	2023-12-30T00:00:00	2024-11-08T20:00:00	3	Temperatura mínima	18.8
27924	7	Sololá	712	San Antonio Palopó	9	San Antonio Palopo	12	Diciembre	2023-12-30T00:00:00	2024-11-08T20:00:00	5	Humedad	70
27925	7	Sololá	712	San Antonio Palopó	9	San Antonio Palopo	12	Diciembre	2023-12-30T00:00:00	2024-11-08T20:00:00	6	Velocidad del viento	14.5
27926	7	Sololá	712	San Antonio Palopó	9	San Antonio Palopo	12	Diciembre	2023-12-30T00:00:00	2024-11-08T20:00:00	7	Dirección del viento	14.48
27927	7	Sololá	712	San Antonio Palopó	9	San Antonio Palopo	12	Diciembre	2023-12-30T00:00:00	2024-11-08T20:00:00	1	Precipitación	0
27928	7	Sololá	712	San Antonio Palopó	9	San Antonio Palopo	12	Diciembre	2023-12-30T00:00:00	2024-11-08T20:00:00	8	Radiación solar	0
27929	7	Sololá	712	San Antonio Palopó	9	San Antonio Palopo	12	Diciembre	2023-12-30T00:00:00	2024-11-08T21:00:00	2	Temperatura media	18.3
27930	7	Sololá	712	San Antonio Palopó	9	San Antonio Palopo	12	Diciembre	2023-12-30T00:00:00	2024-11-08T21:00:00	4	Temperatura máxima	18.8
27931	7	Sololá	712	San Antonio Palopó	9	San Antonio Palopo	12	Diciembre	2023-12-30T00:00:00	2024-11-08T21:00:00	3	Temperatura mínima	18.3
27932	7	Sololá	712	San Antonio Palopó	9	San Antonio Palopo	12	Diciembre	2023-12-30T00:00:00	2024-11-08T21:00:00	5	Humedad	70
27933	7	Sololá	712	San Antonio Palopó	9	San Antonio Palopo	12	Diciembre	2023-12-30T00:00:00	2024-11-08T21:00:00	6	Velocidad del viento	16.1
27934	7	Sololá	712	San Antonio Palopó	9	San Antonio Palopo	12	Diciembre	2023-12-30T00:00:00	2024-11-08T21:00:00	7	Dirección del viento	16.09
27935	7	Sololá	712	San Antonio Palopó	9	San Antonio Palopo	12	Diciembre	2023-12-30T00:00:00	2024-11-08T21:00:00	1	Precipitación	0
27936	7	Sololá	712	San Antonio Palopó	9	San Antonio Palopo	12	Diciembre	2023-12-30T00:00:00	2024-11-08T21:00:00	8	Radiación solar	0
27937	7	Sololá	712	San Antonio Palopó	9	San Antonio Palopo	12	Diciembre	2023-12-30T00:00:00	2024-11-08T22:00:00	2	Temperatura media	17.8
27938	7	Sololá	712	San Antonio Palopó	9	San Antonio Palopo	12	Diciembre	2023-12-30T00:00:00	2024-11-08T22:00:00	4	Temperatura máxima	18.4
27939	7	Sololá	712	San Antonio Palopó	9	San Antonio Palopo	12	Diciembre	2023-12-30T00:00:00	2024-11-08T22:00:00	3	Temperatura mínima	17.8
27940	7	Sololá	712	San Antonio Palopó	9	San Antonio Palopo	12	Diciembre	2023-12-30T00:00:00	2024-11-08T22:00:00	5	Humedad	71
27941	7	Sololá	712	San Antonio Palopó	9	San Antonio Palopo	12	Diciembre	2023-12-30T00:00:00	2024-11-08T22:00:00	6	Velocidad del viento	22.5
27942	7	Sololá	712	San Antonio Palopó	9	San Antonio Palopo	12	Diciembre	2023-12-30T00:00:00	2024-11-08T22:00:00	7	Dirección del viento	22.53
27943	7	Sololá	712	San Antonio Palopó	9	San Antonio Palopo	12	Diciembre	2023-12-30T00:00:00	2024-11-08T22:00:00	1	Precipitación	0
27944	7	Sololá	712	San Antonio Palopó	9	San Antonio Palopo	12	Diciembre	2023-12-30T00:00:00	2024-11-08T22:00:00	8	Radiación solar	0
27945	7	Sololá	712	San Antonio Palopó	9	San Antonio Palopo	12	Diciembre	2023-12-30T00:00:00	2024-11-08T23:00:00	2	Temperatura media	17.4
27946	7	Sololá	712	San Antonio Palopó	9	San Antonio Palopo	12	Diciembre	2023-12-30T00:00:00	2024-11-08T23:00:00	4	Temperatura máxima	17.8
27947	7	Sololá	712	San Antonio Palopó	9	San Antonio Palopo	12	Diciembre	2023-12-30T00:00:00	2024-11-08T23:00:00	3	Temperatura mínima	17.4
27948	7	Sololá	712	San Antonio Palopó	9	San Antonio Palopo	12	Diciembre	2023-12-30T00:00:00	2024-11-08T23:00:00	5	Humedad	72
27949	7	Sololá	712	San Antonio Palopó	9	San Antonio Palopo	12	Diciembre	2023-12-30T00:00:00	2024-11-08T23:00:00	6	Velocidad del viento	17.7
27950	7	Sololá	712	San Antonio Palopó	9	San Antonio Palopo	12	Diciembre	2023-12-30T00:00:00	2024-11-08T23:00:00	7	Dirección del viento	17.7
27951	7	Sololá	712	San Antonio Palopó	9	San Antonio Palopo	12	Diciembre	2023-12-30T00:00:00	2024-11-08T23:00:00	1	Precipitación	0
27952	7	Sololá	712	San Antonio Palopó	9	San Antonio Palopo	12	Diciembre	2023-12-30T00:00:00	2024-11-08T23:00:00	8	Radiación solar	0
27953	7	Sololá	712	San Antonio Palopó	9	San Antonio Palopo	12	Diciembre	2023-12-31T00:00:00	2024-11-08T00:00:00	2	Temperatura media	17.2
27954	7	Sololá	712	San Antonio Palopó	9	San Antonio Palopo	12	Diciembre	2023-12-31T00:00:00	2024-11-08T00:00:00	4	Temperatura máxima	17.5
27955	7	Sololá	712	San Antonio Palopó	9	San Antonio Palopo	12	Diciembre	2023-12-31T00:00:00	2024-11-08T00:00:00	3	Temperatura mínima	17.2
27956	7	Sololá	712	San Antonio Palopó	9	San Antonio Palopo	12	Diciembre	2023-12-31T00:00:00	2024-11-08T00:00:00	5	Humedad	71
27957	7	Sololá	712	San Antonio Palopó	9	San Antonio Palopo	12	Diciembre	2023-12-31T00:00:00	2024-11-08T00:00:00	6	Velocidad del viento	19.3
27958	7	Sololá	712	San Antonio Palopó	9	San Antonio Palopo	12	Diciembre	2023-12-31T00:00:00	2024-11-08T00:00:00	7	Dirección del viento	19.31
27959	7	Sololá	712	San Antonio Palopó	9	San Antonio Palopo	12	Diciembre	2023-12-31T00:00:00	2024-11-08T00:00:00	1	Precipitación	0
27960	7	Sololá	712	San Antonio Palopó	9	San Antonio Palopo	12	Diciembre	2023-12-31T00:00:00	2024-11-08T00:00:00	8	Radiación solar	0
27961	7	Sololá	712	San Antonio Palopó	9	San Antonio Palopo	12	Diciembre	2023-12-31T00:00:00	2024-11-08T01:00:00	2	Temperatura media	16.9
27962	7	Sololá	712	San Antonio Palopó	9	San Antonio Palopo	12	Diciembre	2023-12-31T00:00:00	2024-11-08T01:00:00	4	Temperatura máxima	17.2
27963	7	Sololá	712	San Antonio Palopó	9	San Antonio Palopo	12	Diciembre	2023-12-31T00:00:00	2024-11-08T01:00:00	3	Temperatura mínima	16.9
27964	7	Sololá	712	San Antonio Palopó	9	San Antonio Palopo	12	Diciembre	2023-12-31T00:00:00	2024-11-08T01:00:00	5	Humedad	70
27965	7	Sololá	712	San Antonio Palopó	9	San Antonio Palopo	12	Diciembre	2023-12-31T00:00:00	2024-11-08T01:00:00	6	Velocidad del viento	19.3
27966	7	Sololá	712	San Antonio Palopó	9	San Antonio Palopo	12	Diciembre	2023-12-31T00:00:00	2024-11-08T01:00:00	7	Dirección del viento	19.31
27967	7	Sololá	712	San Antonio Palopó	9	San Antonio Palopo	12	Diciembre	2023-12-31T00:00:00	2024-11-08T01:00:00	1	Precipitación	0
27968	7	Sololá	712	San Antonio Palopó	9	San Antonio Palopo	12	Diciembre	2023-12-31T00:00:00	2024-11-08T01:00:00	8	Radiación solar	0
27969	7	Sololá	712	San Antonio Palopó	9	San Antonio Palopo	12	Diciembre	2023-12-31T00:00:00	2024-11-08T02:00:00	2	Temperatura media	16.5
27970	7	Sololá	712	San Antonio Palopó	9	San Antonio Palopo	12	Diciembre	2023-12-31T00:00:00	2024-11-08T02:00:00	4	Temperatura máxima	16.9
27971	7	Sololá	712	San Antonio Palopó	9	San Antonio Palopo	12	Diciembre	2023-12-31T00:00:00	2024-11-08T02:00:00	3	Temperatura mínima	16.4
27972	7	Sololá	712	San Antonio Palopó	9	San Antonio Palopo	12	Diciembre	2023-12-31T00:00:00	2024-11-08T02:00:00	5	Humedad	71
27973	7	Sololá	712	San Antonio Palopó	9	San Antonio Palopo	12	Diciembre	2023-12-31T00:00:00	2024-11-08T02:00:00	6	Velocidad del viento	16.1
27974	7	Sololá	712	San Antonio Palopó	9	San Antonio Palopo	12	Diciembre	2023-12-31T00:00:00	2024-11-08T02:00:00	7	Dirección del viento	16.09
27975	7	Sololá	712	San Antonio Palopó	9	San Antonio Palopo	12	Diciembre	2023-12-31T00:00:00	2024-11-08T02:00:00	1	Precipitación	0
27976	7	Sololá	712	San Antonio Palopó	9	San Antonio Palopo	12	Diciembre	2023-12-31T00:00:00	2024-11-08T02:00:00	8	Radiación solar	0
27977	7	Sololá	712	San Antonio Palopó	9	San Antonio Palopo	12	Diciembre	2023-12-31T00:00:00	2024-11-08T03:00:00	2	Temperatura media	16
27978	7	Sololá	712	San Antonio Palopó	9	San Antonio Palopo	12	Diciembre	2023-12-31T00:00:00	2024-11-08T03:00:00	4	Temperatura máxima	16.5
27979	7	Sololá	712	San Antonio Palopó	9	San Antonio Palopo	12	Diciembre	2023-12-31T00:00:00	2024-11-08T03:00:00	3	Temperatura mínima	15.9
27980	7	Sololá	712	San Antonio Palopó	9	San Antonio Palopo	12	Diciembre	2023-12-31T00:00:00	2024-11-08T03:00:00	5	Humedad	72
27981	7	Sololá	712	San Antonio Palopó	9	San Antonio Palopo	12	Diciembre	2023-12-31T00:00:00	2024-11-08T03:00:00	6	Velocidad del viento	20.9
27982	7	Sololá	712	San Antonio Palopó	9	San Antonio Palopo	12	Diciembre	2023-12-31T00:00:00	2024-11-08T03:00:00	7	Dirección del viento	20.92
27983	7	Sololá	712	San Antonio Palopó	9	San Antonio Palopo	12	Diciembre	2023-12-31T00:00:00	2024-11-08T03:00:00	1	Precipitación	0
27984	7	Sololá	712	San Antonio Palopó	9	San Antonio Palopo	12	Diciembre	2023-12-31T00:00:00	2024-11-08T03:00:00	8	Radiación solar	0
27985	7	Sololá	712	San Antonio Palopó	9	San Antonio Palopo	12	Diciembre	2023-12-31T00:00:00	2024-11-08T04:00:00	2	Temperatura media	15.6
27986	7	Sololá	712	San Antonio Palopó	9	San Antonio Palopo	12	Diciembre	2023-12-31T00:00:00	2024-11-08T04:00:00	4	Temperatura máxima	16
27987	7	Sololá	712	San Antonio Palopó	9	San Antonio Palopo	12	Diciembre	2023-12-31T00:00:00	2024-11-08T04:00:00	3	Temperatura mínima	15.6
27988	7	Sololá	712	San Antonio Palopó	9	San Antonio Palopo	12	Diciembre	2023-12-31T00:00:00	2024-11-08T04:00:00	5	Humedad	72
27989	7	Sololá	712	San Antonio Palopó	9	San Antonio Palopo	12	Diciembre	2023-12-31T00:00:00	2024-11-08T04:00:00	6	Velocidad del viento	20.9
27990	7	Sololá	712	San Antonio Palopó	9	San Antonio Palopo	12	Diciembre	2023-12-31T00:00:00	2024-11-08T04:00:00	7	Dirección del viento	20.92
27991	7	Sololá	712	San Antonio Palopó	9	San Antonio Palopo	12	Diciembre	2023-12-31T00:00:00	2024-11-08T04:00:00	1	Precipitación	0
27992	7	Sololá	712	San Antonio Palopó	9	San Antonio Palopo	12	Diciembre	2023-12-31T00:00:00	2024-11-08T04:00:00	8	Radiación solar	0
27993	7	Sololá	712	San Antonio Palopó	9	San Antonio Palopo	12	Diciembre	2023-12-31T00:00:00	2024-11-08T05:00:00	2	Temperatura media	15.4
27994	7	Sololá	712	San Antonio Palopó	9	San Antonio Palopo	12	Diciembre	2023-12-31T00:00:00	2024-11-08T05:00:00	4	Temperatura máxima	15.6
27995	7	Sololá	712	San Antonio Palopó	9	San Antonio Palopo	12	Diciembre	2023-12-31T00:00:00	2024-11-08T05:00:00	3	Temperatura mínima	15.4
27996	7	Sololá	712	San Antonio Palopó	9	San Antonio Palopo	12	Diciembre	2023-12-31T00:00:00	2024-11-08T05:00:00	5	Humedad	72
27997	7	Sololá	712	San Antonio Palopó	9	San Antonio Palopo	12	Diciembre	2023-12-31T00:00:00	2024-11-08T05:00:00	6	Velocidad del viento	24.1
27998	7	Sololá	712	San Antonio Palopó	9	San Antonio Palopo	12	Diciembre	2023-12-31T00:00:00	2024-11-08T05:00:00	7	Dirección del viento	24.14
27999	7	Sololá	712	San Antonio Palopó	9	San Antonio Palopo	12	Diciembre	2023-12-31T00:00:00	2024-11-08T05:00:00	1	Precipitación	0
28000	7	Sololá	712	San Antonio Palopó	9	San Antonio Palopo	12	Diciembre	2023-12-31T00:00:00	2024-11-08T05:00:00	8	Radiación solar	0
28001	7	Sololá	712	San Antonio Palopó	9	San Antonio Palopo	12	Diciembre	2023-12-31T00:00:00	2024-11-08T06:00:00	2	Temperatura media	15.4
28002	7	Sololá	712	San Antonio Palopó	9	San Antonio Palopo	12	Diciembre	2023-12-31T00:00:00	2024-11-08T06:00:00	4	Temperatura máxima	15.5
28003	7	Sololá	712	San Antonio Palopó	9	San Antonio Palopo	12	Diciembre	2023-12-31T00:00:00	2024-11-08T06:00:00	3	Temperatura mínima	15.3
28004	7	Sololá	712	San Antonio Palopó	9	San Antonio Palopo	12	Diciembre	2023-12-31T00:00:00	2024-11-08T06:00:00	5	Humedad	73
28005	7	Sololá	712	San Antonio Palopó	9	San Antonio Palopo	12	Diciembre	2023-12-31T00:00:00	2024-11-08T06:00:00	6	Velocidad del viento	22.5
28006	7	Sololá	712	San Antonio Palopó	9	San Antonio Palopo	12	Diciembre	2023-12-31T00:00:00	2024-11-08T06:00:00	7	Dirección del viento	22.53
28007	7	Sololá	712	San Antonio Palopó	9	San Antonio Palopo	12	Diciembre	2023-12-31T00:00:00	2024-11-08T06:00:00	1	Precipitación	0
28008	7	Sololá	712	San Antonio Palopó	9	San Antonio Palopo	12	Diciembre	2023-12-31T00:00:00	2024-11-08T06:00:00	8	Radiación solar	0
28009	7	Sololá	712	San Antonio Palopó	9	San Antonio Palopo	12	Diciembre	2023-12-31T00:00:00	2024-11-08T07:00:00	2	Temperatura media	15.4
28010	7	Sololá	712	San Antonio Palopó	9	San Antonio Palopo	12	Diciembre	2023-12-31T00:00:00	2024-11-08T07:00:00	4	Temperatura máxima	15.6
28011	7	Sololá	712	San Antonio Palopó	9	San Antonio Palopo	12	Diciembre	2023-12-31T00:00:00	2024-11-08T07:00:00	3	Temperatura mínima	15.4
28012	7	Sololá	712	San Antonio Palopó	9	San Antonio Palopo	12	Diciembre	2023-12-31T00:00:00	2024-11-08T07:00:00	5	Humedad	73
28013	7	Sololá	712	San Antonio Palopó	9	San Antonio Palopo	12	Diciembre	2023-12-31T00:00:00	2024-11-08T07:00:00	6	Velocidad del viento	27.4
28014	7	Sololá	712	San Antonio Palopó	9	San Antonio Palopo	12	Diciembre	2023-12-31T00:00:00	2024-11-08T07:00:00	7	Dirección del viento	27.36
28015	7	Sololá	712	San Antonio Palopó	9	San Antonio Palopo	12	Diciembre	2023-12-31T00:00:00	2024-11-08T07:00:00	1	Precipitación	0
28016	7	Sololá	712	San Antonio Palopó	9	San Antonio Palopo	12	Diciembre	2023-12-31T00:00:00	2024-11-08T07:00:00	8	Radiación solar	4
28017	7	Sololá	712	San Antonio Palopó	9	San Antonio Palopo	12	Diciembre	2023-12-31T00:00:00	2024-11-08T08:00:00	2	Temperatura media	15.9
28018	7	Sololá	712	San Antonio Palopó	9	San Antonio Palopo	12	Diciembre	2023-12-31T00:00:00	2024-11-08T08:00:00	4	Temperatura máxima	15.9
28019	7	Sololá	712	San Antonio Palopó	9	San Antonio Palopo	12	Diciembre	2023-12-31T00:00:00	2024-11-08T08:00:00	3	Temperatura mínima	15.4
28020	7	Sololá	712	San Antonio Palopó	9	San Antonio Palopo	12	Diciembre	2023-12-31T00:00:00	2024-11-08T08:00:00	5	Humedad	71
28021	7	Sololá	712	San Antonio Palopó	9	San Antonio Palopo	12	Diciembre	2023-12-31T00:00:00	2024-11-08T08:00:00	6	Velocidad del viento	27.4
28022	7	Sololá	712	San Antonio Palopó	9	San Antonio Palopo	12	Diciembre	2023-12-31T00:00:00	2024-11-08T08:00:00	7	Dirección del viento	27.36
28023	7	Sololá	712	San Antonio Palopó	9	San Antonio Palopo	12	Diciembre	2023-12-31T00:00:00	2024-11-08T08:00:00	1	Precipitación	0
28024	7	Sololá	712	San Antonio Palopó	9	San Antonio Palopo	12	Diciembre	2023-12-31T00:00:00	2024-11-08T08:00:00	8	Radiación solar	17
28025	7	Sololá	712	San Antonio Palopó	9	San Antonio Palopo	12	Diciembre	2023-12-31T00:00:00	2024-11-08T09:00:00	2	Temperatura media	18
28026	7	Sololá	712	San Antonio Palopó	9	San Antonio Palopo	12	Diciembre	2023-12-31T00:00:00	2024-11-08T09:00:00	4	Temperatura máxima	18
28027	7	Sololá	712	San Antonio Palopó	9	San Antonio Palopo	12	Diciembre	2023-12-31T00:00:00	2024-11-08T09:00:00	3	Temperatura mínima	15.9
28028	7	Sololá	712	San Antonio Palopó	9	San Antonio Palopo	12	Diciembre	2023-12-31T00:00:00	2024-11-08T09:00:00	5	Humedad	68
28029	7	Sololá	712	San Antonio Palopó	9	San Antonio Palopo	12	Diciembre	2023-12-31T00:00:00	2024-11-08T09:00:00	6	Velocidad del viento	22.5
28030	7	Sololá	712	San Antonio Palopó	9	San Antonio Palopo	12	Diciembre	2023-12-31T00:00:00	2024-11-08T09:00:00	7	Dirección del viento	22.53
28031	7	Sololá	712	San Antonio Palopó	9	San Antonio Palopo	12	Diciembre	2023-12-31T00:00:00	2024-11-08T09:00:00	1	Precipitación	0
28032	7	Sololá	712	San Antonio Palopó	9	San Antonio Palopo	12	Diciembre	2023-12-31T00:00:00	2024-11-08T09:00:00	8	Radiación solar	89
28033	7	Sololá	712	San Antonio Palopó	9	San Antonio Palopo	12	Diciembre	2023-12-31T00:00:00	2024-11-08T10:00:00	2	Temperatura media	19.9
28034	7	Sololá	712	San Antonio Palopó	9	San Antonio Palopo	12	Diciembre	2023-12-31T00:00:00	2024-11-08T10:00:00	4	Temperatura máxima	20
28035	7	Sololá	712	San Antonio Palopó	9	San Antonio Palopo	12	Diciembre	2023-12-31T00:00:00	2024-11-08T10:00:00	3	Temperatura mínima	18
28036	7	Sololá	712	San Antonio Palopó	9	San Antonio Palopo	12	Diciembre	2023-12-31T00:00:00	2024-11-08T10:00:00	5	Humedad	62
28037	7	Sololá	712	San Antonio Palopó	9	San Antonio Palopo	12	Diciembre	2023-12-31T00:00:00	2024-11-08T10:00:00	6	Velocidad del viento	16.1
28038	7	Sololá	712	San Antonio Palopó	9	San Antonio Palopo	12	Diciembre	2023-12-31T00:00:00	2024-11-08T10:00:00	7	Dirección del viento	16.09
28039	7	Sololá	712	San Antonio Palopó	9	San Antonio Palopo	12	Diciembre	2023-12-31T00:00:00	2024-11-08T10:00:00	1	Precipitación	0
28040	7	Sololá	712	San Antonio Palopó	9	San Antonio Palopo	12	Diciembre	2023-12-31T00:00:00	2024-11-08T10:00:00	8	Radiación solar	543
28041	7	Sololá	712	San Antonio Palopó	9	San Antonio Palopo	12	Diciembre	2023-12-31T00:00:00	2024-11-08T11:00:00	2	Temperatura media	21.2
28042	7	Sololá	712	San Antonio Palopó	9	San Antonio Palopo	12	Diciembre	2023-12-31T00:00:00	2024-11-08T11:00:00	4	Temperatura máxima	22.1
28043	7	Sololá	712	San Antonio Palopó	9	San Antonio Palopo	12	Diciembre	2023-12-31T00:00:00	2024-11-08T11:00:00	3	Temperatura mínima	19.9
28044	7	Sololá	712	San Antonio Palopó	9	San Antonio Palopo	12	Diciembre	2023-12-31T00:00:00	2024-11-08T11:00:00	5	Humedad	60
28045	7	Sololá	712	San Antonio Palopó	9	San Antonio Palopo	12	Diciembre	2023-12-31T00:00:00	2024-11-08T11:00:00	6	Velocidad del viento	9.7
28046	7	Sololá	712	San Antonio Palopó	9	San Antonio Palopo	12	Diciembre	2023-12-31T00:00:00	2024-11-08T11:00:00	7	Dirección del viento	9.66
28047	7	Sololá	712	San Antonio Palopó	9	San Antonio Palopo	12	Diciembre	2023-12-31T00:00:00	2024-11-08T11:00:00	1	Precipitación	0
28048	7	Sololá	712	San Antonio Palopó	9	San Antonio Palopo	12	Diciembre	2023-12-31T00:00:00	2024-11-08T11:00:00	8	Radiación solar	675
28049	7	Sololá	712	San Antonio Palopó	9	San Antonio Palopo	12	Diciembre	2023-12-31T00:00:00	2024-11-08T12:00:00	2	Temperatura media	21.1
28050	7	Sololá	712	San Antonio Palopó	9	San Antonio Palopo	12	Diciembre	2023-12-31T00:00:00	2024-11-08T12:00:00	4	Temperatura máxima	23.7
28051	7	Sololá	712	San Antonio Palopó	9	San Antonio Palopo	12	Diciembre	2023-12-31T00:00:00	2024-11-08T12:00:00	3	Temperatura mínima	20.9
28052	7	Sololá	712	San Antonio Palopó	9	San Antonio Palopo	12	Diciembre	2023-12-31T00:00:00	2024-11-08T12:00:00	5	Humedad	65
28053	7	Sololá	712	San Antonio Palopó	9	San Antonio Palopo	12	Diciembre	2023-12-31T00:00:00	2024-11-08T12:00:00	6	Velocidad del viento	9.7
28054	7	Sololá	712	San Antonio Palopó	9	San Antonio Palopo	12	Diciembre	2023-12-31T00:00:00	2024-11-08T12:00:00	7	Dirección del viento	9.66
28055	7	Sololá	712	San Antonio Palopó	9	San Antonio Palopo	12	Diciembre	2023-12-31T00:00:00	2024-11-08T12:00:00	1	Precipitación	0
28056	7	Sololá	712	San Antonio Palopó	9	San Antonio Palopo	12	Diciembre	2023-12-31T00:00:00	2024-11-08T12:00:00	8	Radiación solar	653
28057	7	Sololá	712	San Antonio Palopó	9	San Antonio Palopo	12	Diciembre	2023-12-31T00:00:00	2024-11-08T13:00:00	2	Temperatura media	23.2
28058	7	Sololá	712	San Antonio Palopó	9	San Antonio Palopo	12	Diciembre	2023-12-31T00:00:00	2024-11-08T13:00:00	4	Temperatura máxima	23.4
28059	7	Sololá	712	San Antonio Palopó	9	San Antonio Palopo	12	Diciembre	2023-12-31T00:00:00	2024-11-08T13:00:00	3	Temperatura mínima	21
28060	7	Sololá	712	San Antonio Palopó	9	San Antonio Palopo	12	Diciembre	2023-12-31T00:00:00	2024-11-08T13:00:00	5	Humedad	62
28061	7	Sololá	712	San Antonio Palopó	9	San Antonio Palopo	12	Diciembre	2023-12-31T00:00:00	2024-11-08T13:00:00	6	Velocidad del viento	6.4
28062	7	Sololá	712	San Antonio Palopó	9	San Antonio Palopo	12	Diciembre	2023-12-31T00:00:00	2024-11-08T13:00:00	7	Dirección del viento	6.44
28063	7	Sololá	712	San Antonio Palopó	9	San Antonio Palopo	12	Diciembre	2023-12-31T00:00:00	2024-11-08T13:00:00	1	Precipitación	0
28064	7	Sololá	712	San Antonio Palopó	9	San Antonio Palopo	12	Diciembre	2023-12-31T00:00:00	2024-11-08T13:00:00	8	Radiación solar	740
28065	7	Sololá	712	San Antonio Palopó	9	San Antonio Palopo	12	Diciembre	2023-12-31T00:00:00	2024-11-08T14:00:00	2	Temperatura media	23.1
28066	7	Sololá	712	San Antonio Palopó	9	San Antonio Palopo	12	Diciembre	2023-12-31T00:00:00	2024-11-08T14:00:00	4	Temperatura máxima	23.4
28067	7	Sololá	712	San Antonio Palopó	9	San Antonio Palopo	12	Diciembre	2023-12-31T00:00:00	2024-11-08T14:00:00	3	Temperatura mínima	22.7
28068	7	Sololá	712	San Antonio Palopó	9	San Antonio Palopo	12	Diciembre	2023-12-31T00:00:00	2024-11-08T14:00:00	5	Humedad	66
28069	7	Sololá	712	San Antonio Palopó	9	San Antonio Palopo	12	Diciembre	2023-12-31T00:00:00	2024-11-08T14:00:00	6	Velocidad del viento	12.9
28070	7	Sololá	712	San Antonio Palopó	9	San Antonio Palopo	12	Diciembre	2023-12-31T00:00:00	2024-11-08T14:00:00	7	Dirección del viento	12.87
28071	7	Sololá	712	San Antonio Palopó	9	San Antonio Palopo	12	Diciembre	2023-12-31T00:00:00	2024-11-08T14:00:00	1	Precipitación	0
28072	7	Sololá	712	San Antonio Palopó	9	San Antonio Palopo	12	Diciembre	2023-12-31T00:00:00	2024-11-08T14:00:00	8	Radiación solar	702
28073	7	Sololá	712	San Antonio Palopó	9	San Antonio Palopo	12	Diciembre	2023-12-31T00:00:00	2024-11-08T15:00:00	2	Temperatura media	23.1
28074	7	Sololá	712	San Antonio Palopó	9	San Antonio Palopo	12	Diciembre	2023-12-31T00:00:00	2024-11-08T15:00:00	4	Temperatura máxima	23.2
28075	7	Sololá	712	San Antonio Palopó	9	San Antonio Palopo	12	Diciembre	2023-12-31T00:00:00	2024-11-08T15:00:00	3	Temperatura mínima	22.8
28076	7	Sololá	712	San Antonio Palopó	9	San Antonio Palopo	12	Diciembre	2023-12-31T00:00:00	2024-11-08T15:00:00	5	Humedad	67
28077	7	Sololá	712	San Antonio Palopó	9	San Antonio Palopo	12	Diciembre	2023-12-31T00:00:00	2024-11-08T15:00:00	6	Velocidad del viento	12.9
28078	7	Sololá	712	San Antonio Palopó	9	San Antonio Palopo	12	Diciembre	2023-12-31T00:00:00	2024-11-08T15:00:00	7	Dirección del viento	12.87
28079	7	Sololá	712	San Antonio Palopó	9	San Antonio Palopo	12	Diciembre	2023-12-31T00:00:00	2024-11-08T15:00:00	1	Precipitación	0
28080	7	Sololá	712	San Antonio Palopó	9	San Antonio Palopo	12	Diciembre	2023-12-31T00:00:00	2024-11-08T15:00:00	8	Radiación solar	577
28081	7	Sololá	712	San Antonio Palopó	9	San Antonio Palopo	12	Diciembre	2023-12-31T00:00:00	2024-11-08T16:00:00	2	Temperatura media	22.2
28082	7	Sololá	712	San Antonio Palopó	9	San Antonio Palopo	12	Diciembre	2023-12-31T00:00:00	2024-11-08T16:00:00	4	Temperatura máxima	23.1
28083	7	Sololá	712	San Antonio Palopó	9	San Antonio Palopo	12	Diciembre	2023-12-31T00:00:00	2024-11-08T16:00:00	3	Temperatura mínima	22.1
28084	7	Sololá	712	San Antonio Palopó	9	San Antonio Palopo	12	Diciembre	2023-12-31T00:00:00	2024-11-08T16:00:00	5	Humedad	70
28085	7	Sololá	712	San Antonio Palopó	9	San Antonio Palopo	12	Diciembre	2023-12-31T00:00:00	2024-11-08T16:00:00	6	Velocidad del viento	14.5
28086	7	Sololá	712	San Antonio Palopó	9	San Antonio Palopo	12	Diciembre	2023-12-31T00:00:00	2024-11-08T16:00:00	7	Dirección del viento	14.48
28087	7	Sololá	712	San Antonio Palopó	9	San Antonio Palopo	12	Diciembre	2023-12-31T00:00:00	2024-11-08T16:00:00	1	Precipitación	0
28088	7	Sololá	712	San Antonio Palopó	9	San Antonio Palopo	12	Diciembre	2023-12-31T00:00:00	2024-11-08T16:00:00	8	Radiación solar	378
28089	7	Sololá	712	San Antonio Palopó	9	San Antonio Palopo	12	Diciembre	2023-12-31T00:00:00	2024-11-08T17:00:00	2	Temperatura media	21.8
28090	7	Sololá	712	San Antonio Palopó	9	San Antonio Palopo	12	Diciembre	2023-12-31T00:00:00	2024-11-08T17:00:00	4	Temperatura máxima	22.6
28091	7	Sololá	712	San Antonio Palopó	9	San Antonio Palopo	12	Diciembre	2023-12-31T00:00:00	2024-11-08T17:00:00	3	Temperatura mínima	21.8
28092	7	Sololá	712	San Antonio Palopó	9	San Antonio Palopo	12	Diciembre	2023-12-31T00:00:00	2024-11-08T17:00:00	5	Humedad	65
28093	7	Sololá	712	San Antonio Palopó	9	San Antonio Palopo	12	Diciembre	2023-12-31T00:00:00	2024-11-08T17:00:00	6	Velocidad del viento	9.7
28094	7	Sololá	712	San Antonio Palopó	9	San Antonio Palopo	12	Diciembre	2023-12-31T00:00:00	2024-11-08T17:00:00	7	Dirección del viento	9.66
28095	7	Sololá	712	San Antonio Palopó	9	San Antonio Palopo	12	Diciembre	2023-12-31T00:00:00	2024-11-08T17:00:00	1	Precipitación	0
28096	7	Sololá	712	San Antonio Palopó	9	San Antonio Palopo	12	Diciembre	2023-12-31T00:00:00	2024-11-08T17:00:00	8	Radiación solar	173
28097	7	Sololá	712	San Antonio Palopó	9	San Antonio Palopo	12	Diciembre	2023-12-31T00:00:00	2024-11-08T18:00:00	2	Temperatura media	19.7
28098	7	Sololá	712	San Antonio Palopó	9	San Antonio Palopo	12	Diciembre	2023-12-31T00:00:00	2024-11-08T18:00:00	4	Temperatura máxima	21.8
28099	7	Sololá	712	San Antonio Palopó	9	San Antonio Palopo	12	Diciembre	2023-12-31T00:00:00	2024-11-08T18:00:00	3	Temperatura mínima	19.7
28100	7	Sololá	712	San Antonio Palopó	9	San Antonio Palopo	12	Diciembre	2023-12-31T00:00:00	2024-11-08T18:00:00	5	Humedad	64
28101	7	Sololá	712	San Antonio Palopó	9	San Antonio Palopo	12	Diciembre	2023-12-31T00:00:00	2024-11-08T18:00:00	6	Velocidad del viento	12.9
28102	7	Sololá	712	San Antonio Palopó	9	San Antonio Palopo	12	Diciembre	2023-12-31T00:00:00	2024-11-08T18:00:00	7	Dirección del viento	12.87
28103	7	Sololá	712	San Antonio Palopó	9	San Antonio Palopo	12	Diciembre	2023-12-31T00:00:00	2024-11-08T18:00:00	1	Precipitación	0
28104	7	Sololá	712	San Antonio Palopó	9	San Antonio Palopo	12	Diciembre	2023-12-31T00:00:00	2024-11-08T18:00:00	8	Radiación solar	19
28105	7	Sololá	712	San Antonio Palopó	9	San Antonio Palopo	12	Diciembre	2023-12-31T00:00:00	2024-11-08T19:00:00	2	Temperatura media	18.5
28106	7	Sololá	712	San Antonio Palopó	9	San Antonio Palopo	12	Diciembre	2023-12-31T00:00:00	2024-11-08T19:00:00	4	Temperatura máxima	19.7
28107	7	Sololá	712	San Antonio Palopó	9	San Antonio Palopo	12	Diciembre	2023-12-31T00:00:00	2024-11-08T19:00:00	3	Temperatura mínima	18.5
28108	7	Sololá	712	San Antonio Palopó	9	San Antonio Palopo	12	Diciembre	2023-12-31T00:00:00	2024-11-08T19:00:00	5	Humedad	66
28109	7	Sololá	712	San Antonio Palopó	9	San Antonio Palopo	12	Diciembre	2023-12-31T00:00:00	2024-11-08T19:00:00	6	Velocidad del viento	19.3
28110	7	Sololá	712	San Antonio Palopó	9	San Antonio Palopo	12	Diciembre	2023-12-31T00:00:00	2024-11-08T19:00:00	7	Dirección del viento	19.31
28111	7	Sololá	712	San Antonio Palopó	9	San Antonio Palopo	12	Diciembre	2023-12-31T00:00:00	2024-11-08T19:00:00	1	Precipitación	0
28112	7	Sololá	712	San Antonio Palopó	9	San Antonio Palopo	12	Diciembre	2023-12-31T00:00:00	2024-11-08T19:00:00	8	Radiación solar	0
28113	7	Sololá	712	San Antonio Palopó	9	San Antonio Palopo	12	Diciembre	2023-12-31T00:00:00	2024-11-08T20:00:00	2	Temperatura media	18.3
28114	7	Sololá	712	San Antonio Palopó	9	San Antonio Palopo	12	Diciembre	2023-12-31T00:00:00	2024-11-08T20:00:00	4	Temperatura máxima	18.6
28115	7	Sololá	712	San Antonio Palopó	9	San Antonio Palopo	12	Diciembre	2023-12-31T00:00:00	2024-11-08T20:00:00	3	Temperatura mínima	18.2
28116	7	Sololá	712	San Antonio Palopó	9	San Antonio Palopo	12	Diciembre	2023-12-31T00:00:00	2024-11-08T20:00:00	5	Humedad	66
28117	7	Sololá	712	San Antonio Palopó	9	San Antonio Palopo	12	Diciembre	2023-12-31T00:00:00	2024-11-08T20:00:00	6	Velocidad del viento	19.3
28118	7	Sololá	712	San Antonio Palopó	9	San Antonio Palopo	12	Diciembre	2023-12-31T00:00:00	2024-11-08T20:00:00	7	Dirección del viento	19.31
28119	7	Sololá	712	San Antonio Palopó	9	San Antonio Palopo	12	Diciembre	2023-12-31T00:00:00	2024-11-08T20:00:00	1	Precipitación	0
28120	7	Sololá	712	San Antonio Palopó	9	San Antonio Palopo	12	Diciembre	2023-12-31T00:00:00	2024-11-08T20:00:00	8	Radiación solar	0
28121	7	Sololá	712	San Antonio Palopó	9	San Antonio Palopo	12	Diciembre	2023-12-31T00:00:00	2024-11-08T21:00:00	2	Temperatura media	17.8
28122	7	Sololá	712	San Antonio Palopó	9	San Antonio Palopo	12	Diciembre	2023-12-31T00:00:00	2024-11-08T21:00:00	4	Temperatura máxima	18.3
28123	7	Sololá	712	San Antonio Palopó	9	San Antonio Palopo	12	Diciembre	2023-12-31T00:00:00	2024-11-08T21:00:00	3	Temperatura mínima	17.8
28124	7	Sololá	712	San Antonio Palopó	9	San Antonio Palopo	12	Diciembre	2023-12-31T00:00:00	2024-11-08T21:00:00	5	Humedad	68
28125	7	Sololá	712	San Antonio Palopó	9	San Antonio Palopo	12	Diciembre	2023-12-31T00:00:00	2024-11-08T21:00:00	6	Velocidad del viento	16.1
28126	7	Sololá	712	San Antonio Palopó	9	San Antonio Palopo	12	Diciembre	2023-12-31T00:00:00	2024-11-08T21:00:00	7	Dirección del viento	16.09
28127	7	Sololá	712	San Antonio Palopó	9	San Antonio Palopo	12	Diciembre	2023-12-31T00:00:00	2024-11-08T21:00:00	1	Precipitación	0
28128	7	Sololá	712	San Antonio Palopó	9	San Antonio Palopo	12	Diciembre	2023-12-31T00:00:00	2024-11-08T21:00:00	8	Radiación solar	0
28129	7	Sololá	712	San Antonio Palopó	9	San Antonio Palopo	12	Diciembre	2023-12-31T00:00:00	2024-11-08T22:00:00	2	Temperatura media	17.3
28130	7	Sololá	712	San Antonio Palopó	9	San Antonio Palopo	12	Diciembre	2023-12-31T00:00:00	2024-11-08T22:00:00	4	Temperatura máxima	17.8
28131	7	Sololá	712	San Antonio Palopó	9	San Antonio Palopo	12	Diciembre	2023-12-31T00:00:00	2024-11-08T22:00:00	3	Temperatura mínima	17.3
28132	7	Sololá	712	San Antonio Palopó	9	San Antonio Palopo	12	Diciembre	2023-12-31T00:00:00	2024-11-08T22:00:00	5	Humedad	69
28133	7	Sololá	712	San Antonio Palopó	9	San Antonio Palopo	12	Diciembre	2023-12-31T00:00:00	2024-11-08T22:00:00	6	Velocidad del viento	16.1
28134	7	Sololá	712	San Antonio Palopó	9	San Antonio Palopo	12	Diciembre	2023-12-31T00:00:00	2024-11-08T22:00:00	7	Dirección del viento	16.09
28135	7	Sololá	712	San Antonio Palopó	9	San Antonio Palopo	12	Diciembre	2023-12-31T00:00:00	2024-11-08T22:00:00	1	Precipitación	0
28136	7	Sololá	712	San Antonio Palopó	9	San Antonio Palopo	12	Diciembre	2023-12-31T00:00:00	2024-11-08T22:00:00	8	Radiación solar	0
28137	7	Sololá	712	San Antonio Palopó	9	San Antonio Palopo	12	Diciembre	2023-12-31T00:00:00	2024-11-08T23:00:00	2	Temperatura media	16.8
28138	7	Sololá	712	San Antonio Palopó	9	San Antonio Palopo	12	Diciembre	2023-12-31T00:00:00	2024-11-08T23:00:00	4	Temperatura máxima	17.3
28139	7	Sololá	712	San Antonio Palopó	9	San Antonio Palopo	12	Diciembre	2023-12-31T00:00:00	2024-11-08T23:00:00	3	Temperatura mínima	16.8
28140	7	Sololá	712	San Antonio Palopó	9	San Antonio Palopo	12	Diciembre	2023-12-31T00:00:00	2024-11-08T23:00:00	5	Humedad	70
28141	7	Sololá	712	San Antonio Palopó	9	San Antonio Palopo	12	Diciembre	2023-12-31T00:00:00	2024-11-08T23:00:00	6	Velocidad del viento	17.7
28142	7	Sololá	712	San Antonio Palopó	9	San Antonio Palopo	12	Diciembre	2023-12-31T00:00:00	2024-11-08T23:00:00	7	Dirección del viento	17.7
28143	7	Sololá	712	San Antonio Palopó	9	San Antonio Palopo	12	Diciembre	2023-12-31T00:00:00	2024-11-08T23:00:00	1	Precipitación	0
28144	7	Sololá	712	San Antonio Palopó	9	San Antonio Palopo	12	Diciembre	2023-12-31T00:00:00	2024-11-08T23:00:00	8	Radiación solar	0
28145	7	Sololá	717	San Juan la Laguna	12	San Juan la Laguna	1	Enero	2023-01-01T00:00:00	2024-11-08T00:00:00	2	Temperatura media	14.8
28146	7	Sololá	717	San Juan la Laguna	12	San Juan la Laguna	1	Enero	2023-01-01T00:00:00	2024-11-08T00:00:00	4	Temperatura máxima	15.6
28147	7	Sololá	717	San Juan la Laguna	12	San Juan la Laguna	1	Enero	2023-01-01T00:00:00	2024-11-08T00:00:00	3	Temperatura mínima	14.7
28148	7	Sololá	717	San Juan la Laguna	12	San Juan la Laguna	1	Enero	2023-01-01T00:00:00	2024-11-08T00:00:00	5	Humedad	85
28149	7	Sololá	717	San Juan la Laguna	12	San Juan la Laguna	1	Enero	2023-01-01T00:00:00	2024-11-08T00:00:00	6	Velocidad del viento	3.2
28150	7	Sololá	717	San Juan la Laguna	12	San Juan la Laguna	1	Enero	2023-01-01T00:00:00	2024-11-08T00:00:00	7	Dirección del viento	3.22
28151	7	Sololá	717	San Juan la Laguna	12	San Juan la Laguna	1	Enero	2023-01-01T00:00:00	2024-11-08T00:00:00	1	Precipitación	0
28152	7	Sololá	717	San Juan la Laguna	12	San Juan la Laguna	1	Enero	2023-01-01T00:00:00	2024-11-08T00:00:00	8	Radiación solar	0
28153	7	Sololá	717	San Juan la Laguna	12	San Juan la Laguna	1	Enero	2023-01-01T00:00:00	2024-11-08T01:00:00	2	Temperatura media	14.8
28154	7	Sololá	717	San Juan la Laguna	12	San Juan la Laguna	1	Enero	2023-01-01T00:00:00	2024-11-08T01:00:00	4	Temperatura máxima	14.8
28155	7	Sololá	717	San Juan la Laguna	12	San Juan la Laguna	1	Enero	2023-01-01T00:00:00	2024-11-08T01:00:00	3	Temperatura mínima	14.6
28156	7	Sololá	717	San Juan la Laguna	12	San Juan la Laguna	1	Enero	2023-01-01T00:00:00	2024-11-08T01:00:00	5	Humedad	82
28157	7	Sololá	717	San Juan la Laguna	12	San Juan la Laguna	1	Enero	2023-01-01T00:00:00	2024-11-08T01:00:00	6	Velocidad del viento	4.8
28158	7	Sololá	717	San Juan la Laguna	12	San Juan la Laguna	1	Enero	2023-01-01T00:00:00	2024-11-08T01:00:00	7	Dirección del viento	4.83
28159	7	Sololá	717	San Juan la Laguna	12	San Juan la Laguna	1	Enero	2023-01-01T00:00:00	2024-11-08T01:00:00	1	Precipitación	0
28160	7	Sololá	717	San Juan la Laguna	12	San Juan la Laguna	1	Enero	2023-01-01T00:00:00	2024-11-08T01:00:00	8	Radiación solar	0
28161	7	Sololá	717	San Juan la Laguna	12	San Juan la Laguna	1	Enero	2023-01-01T00:00:00	2024-11-08T02:00:00	2	Temperatura media	14.1
28162	7	Sololá	717	San Juan la Laguna	12	San Juan la Laguna	1	Enero	2023-01-01T00:00:00	2024-11-08T02:00:00	4	Temperatura máxima	14.8
28163	7	Sololá	717	San Juan la Laguna	12	San Juan la Laguna	1	Enero	2023-01-01T00:00:00	2024-11-08T02:00:00	3	Temperatura mínima	14.1
28164	7	Sololá	717	San Juan la Laguna	12	San Juan la Laguna	1	Enero	2023-01-01T00:00:00	2024-11-08T02:00:00	5	Humedad	84
28165	7	Sololá	717	San Juan la Laguna	12	San Juan la Laguna	1	Enero	2023-01-01T00:00:00	2024-11-08T02:00:00	6	Velocidad del viento	3.2
28166	7	Sololá	717	San Juan la Laguna	12	San Juan la Laguna	1	Enero	2023-01-01T00:00:00	2024-11-08T02:00:00	7	Dirección del viento	3.22
28167	7	Sololá	717	San Juan la Laguna	12	San Juan la Laguna	1	Enero	2023-01-01T00:00:00	2024-11-08T02:00:00	1	Precipitación	0
28168	7	Sololá	717	San Juan la Laguna	12	San Juan la Laguna	1	Enero	2023-01-01T00:00:00	2024-11-08T02:00:00	8	Radiación solar	0
28169	7	Sololá	717	San Juan la Laguna	12	San Juan la Laguna	1	Enero	2023-01-01T00:00:00	2024-11-08T03:00:00	2	Temperatura media	14
28170	7	Sololá	717	San Juan la Laguna	12	San Juan la Laguna	1	Enero	2023-01-01T00:00:00	2024-11-08T03:00:00	4	Temperatura máxima	14.1
28171	7	Sololá	717	San Juan la Laguna	12	San Juan la Laguna	1	Enero	2023-01-01T00:00:00	2024-11-08T03:00:00	3	Temperatura mínima	13.8
28172	7	Sololá	717	San Juan la Laguna	12	San Juan la Laguna	1	Enero	2023-01-01T00:00:00	2024-11-08T03:00:00	5	Humedad	86
28173	7	Sololá	717	San Juan la Laguna	12	San Juan la Laguna	1	Enero	2023-01-01T00:00:00	2024-11-08T03:00:00	6	Velocidad del viento	4.8
28174	7	Sololá	717	San Juan la Laguna	12	San Juan la Laguna	1	Enero	2023-01-01T00:00:00	2024-11-08T03:00:00	7	Dirección del viento	4.83
28175	7	Sololá	717	San Juan la Laguna	12	San Juan la Laguna	1	Enero	2023-01-01T00:00:00	2024-11-08T03:00:00	1	Precipitación	0
28176	7	Sololá	717	San Juan la Laguna	12	San Juan la Laguna	1	Enero	2023-01-01T00:00:00	2024-11-08T03:00:00	8	Radiación solar	0
28177	7	Sololá	717	San Juan la Laguna	12	San Juan la Laguna	1	Enero	2023-01-01T00:00:00	2024-11-08T04:00:00	2	Temperatura media	14.6
28178	7	Sololá	717	San Juan la Laguna	12	San Juan la Laguna	1	Enero	2023-01-01T00:00:00	2024-11-08T04:00:00	4	Temperatura máxima	14.6
28179	7	Sololá	717	San Juan la Laguna	12	San Juan la Laguna	1	Enero	2023-01-01T00:00:00	2024-11-08T04:00:00	3	Temperatura mínima	14
28180	7	Sololá	717	San Juan la Laguna	12	San Juan la Laguna	1	Enero	2023-01-01T00:00:00	2024-11-08T04:00:00	5	Humedad	85
28181	7	Sololá	717	San Juan la Laguna	12	San Juan la Laguna	1	Enero	2023-01-01T00:00:00	2024-11-08T04:00:00	6	Velocidad del viento	3.2
28182	7	Sololá	717	San Juan la Laguna	12	San Juan la Laguna	1	Enero	2023-01-01T00:00:00	2024-11-08T04:00:00	7	Dirección del viento	3.22
28183	7	Sololá	717	San Juan la Laguna	12	San Juan la Laguna	1	Enero	2023-01-01T00:00:00	2024-11-08T04:00:00	1	Precipitación	0
28184	7	Sololá	717	San Juan la Laguna	12	San Juan la Laguna	1	Enero	2023-01-01T00:00:00	2024-11-08T04:00:00	8	Radiación solar	0
28185	7	Sololá	717	San Juan la Laguna	12	San Juan la Laguna	1	Enero	2023-01-01T00:00:00	2024-11-08T05:00:00	2	Temperatura media	14.4
28186	7	Sololá	717	San Juan la Laguna	12	San Juan la Laguna	1	Enero	2023-01-01T00:00:00	2024-11-08T05:00:00	4	Temperatura máxima	14.9
28187	7	Sololá	717	San Juan la Laguna	12	San Juan la Laguna	1	Enero	2023-01-01T00:00:00	2024-11-08T05:00:00	3	Temperatura mínima	14.4
28188	7	Sololá	717	San Juan la Laguna	12	San Juan la Laguna	1	Enero	2023-01-01T00:00:00	2024-11-08T05:00:00	5	Humedad	85
28189	7	Sololá	717	San Juan la Laguna	12	San Juan la Laguna	1	Enero	2023-01-01T00:00:00	2024-11-08T05:00:00	6	Velocidad del viento	3.2
28190	7	Sololá	717	San Juan la Laguna	12	San Juan la Laguna	1	Enero	2023-01-01T00:00:00	2024-11-08T05:00:00	7	Dirección del viento	3.22
28191	7	Sololá	717	San Juan la Laguna	12	San Juan la Laguna	1	Enero	2023-01-01T00:00:00	2024-11-08T05:00:00	1	Precipitación	0
28192	7	Sololá	717	San Juan la Laguna	12	San Juan la Laguna	1	Enero	2023-01-01T00:00:00	2024-11-08T05:00:00	8	Radiación solar	0
28193	7	Sololá	717	San Juan la Laguna	12	San Juan la Laguna	1	Enero	2023-01-01T00:00:00	2024-11-08T06:00:00	2	Temperatura media	14.2
28194	7	Sololá	717	San Juan la Laguna	12	San Juan la Laguna	1	Enero	2023-01-01T00:00:00	2024-11-08T06:00:00	4	Temperatura máxima	14.4
28195	7	Sololá	717	San Juan la Laguna	12	San Juan la Laguna	1	Enero	2023-01-01T00:00:00	2024-11-08T06:00:00	3	Temperatura mínima	13.7
28196	7	Sololá	717	San Juan la Laguna	12	San Juan la Laguna	1	Enero	2023-01-01T00:00:00	2024-11-08T06:00:00	5	Humedad	84
28197	7	Sololá	717	San Juan la Laguna	12	San Juan la Laguna	1	Enero	2023-01-01T00:00:00	2024-11-08T06:00:00	6	Velocidad del viento	1.6
28198	7	Sololá	717	San Juan la Laguna	12	San Juan la Laguna	1	Enero	2023-01-01T00:00:00	2024-11-08T06:00:00	7	Dirección del viento	1.61
28199	7	Sololá	717	San Juan la Laguna	12	San Juan la Laguna	1	Enero	2023-01-01T00:00:00	2024-11-08T06:00:00	1	Precipitación	0
28200	7	Sololá	717	San Juan la Laguna	12	San Juan la Laguna	1	Enero	2023-01-01T00:00:00	2024-11-08T06:00:00	8	Radiación solar	0
28201	7	Sololá	717	San Juan la Laguna	12	San Juan la Laguna	1	Enero	2023-01-01T00:00:00	2024-11-08T07:00:00	2	Temperatura media	13.4
28202	7	Sololá	717	San Juan la Laguna	12	San Juan la Laguna	1	Enero	2023-01-01T00:00:00	2024-11-08T07:00:00	4	Temperatura máxima	14.1
28203	7	Sololá	717	San Juan la Laguna	12	San Juan la Laguna	1	Enero	2023-01-01T00:00:00	2024-11-08T07:00:00	3	Temperatura mínima	13.1
28204	7	Sololá	717	San Juan la Laguna	12	San Juan la Laguna	1	Enero	2023-01-01T00:00:00	2024-11-08T07:00:00	5	Humedad	86
28205	7	Sololá	717	San Juan la Laguna	12	San Juan la Laguna	1	Enero	2023-01-01T00:00:00	2024-11-08T07:00:00	6	Velocidad del viento	3.2
28206	7	Sololá	717	San Juan la Laguna	12	San Juan la Laguna	1	Enero	2023-01-01T00:00:00	2024-11-08T07:00:00	7	Dirección del viento	3.22
28207	7	Sololá	717	San Juan la Laguna	12	San Juan la Laguna	1	Enero	2023-01-01T00:00:00	2024-11-08T07:00:00	1	Precipitación	0
28208	7	Sololá	717	San Juan la Laguna	12	San Juan la Laguna	1	Enero	2023-01-01T00:00:00	2024-11-08T07:00:00	8	Radiación solar	6
28209	7	Sololá	717	San Juan la Laguna	12	San Juan la Laguna	1	Enero	2023-01-01T00:00:00	2024-11-08T08:00:00	2	Temperatura media	15.7
28210	7	Sololá	717	San Juan la Laguna	12	San Juan la Laguna	1	Enero	2023-01-01T00:00:00	2024-11-08T08:00:00	4	Temperatura máxima	15.7
28211	7	Sololá	717	San Juan la Laguna	12	San Juan la Laguna	1	Enero	2023-01-01T00:00:00	2024-11-08T08:00:00	3	Temperatura mínima	13.4
28212	7	Sololá	717	San Juan la Laguna	12	San Juan la Laguna	1	Enero	2023-01-01T00:00:00	2024-11-08T08:00:00	5	Humedad	82
28213	7	Sololá	717	San Juan la Laguna	12	San Juan la Laguna	1	Enero	2023-01-01T00:00:00	2024-11-08T08:00:00	6	Velocidad del viento	1.6
28214	7	Sololá	717	San Juan la Laguna	12	San Juan la Laguna	1	Enero	2023-01-01T00:00:00	2024-11-08T08:00:00	7	Dirección del viento	1.61
28215	7	Sololá	717	San Juan la Laguna	12	San Juan la Laguna	1	Enero	2023-01-01T00:00:00	2024-11-08T08:00:00	1	Precipitación	0
28216	7	Sololá	717	San Juan la Laguna	12	San Juan la Laguna	1	Enero	2023-01-01T00:00:00	2024-11-08T08:00:00	8	Radiación solar	119
28217	7	Sololá	717	San Juan la Laguna	12	San Juan la Laguna	1	Enero	2023-01-01T00:00:00	2024-11-08T09:00:00	2	Temperatura media	20.4
28218	7	Sololá	717	San Juan la Laguna	12	San Juan la Laguna	1	Enero	2023-01-01T00:00:00	2024-11-08T09:00:00	4	Temperatura máxima	20.4
28219	7	Sololá	717	San Juan la Laguna	12	San Juan la Laguna	1	Enero	2023-01-01T00:00:00	2024-11-08T09:00:00	3	Temperatura mínima	15.7
28220	7	Sololá	717	San Juan la Laguna	12	San Juan la Laguna	1	Enero	2023-01-01T00:00:00	2024-11-08T09:00:00	5	Humedad	68
28221	7	Sololá	717	San Juan la Laguna	12	San Juan la Laguna	1	Enero	2023-01-01T00:00:00	2024-11-08T09:00:00	6	Velocidad del viento	1.6
28222	7	Sololá	717	San Juan la Laguna	12	San Juan la Laguna	1	Enero	2023-01-01T00:00:00	2024-11-08T09:00:00	7	Dirección del viento	1.61
28223	7	Sololá	717	San Juan la Laguna	12	San Juan la Laguna	1	Enero	2023-01-01T00:00:00	2024-11-08T09:00:00	1	Precipitación	0
28224	7	Sololá	717	San Juan la Laguna	12	San Juan la Laguna	1	Enero	2023-01-01T00:00:00	2024-11-08T09:00:00	8	Radiación solar	313
28225	7	Sololá	717	San Juan la Laguna	12	San Juan la Laguna	1	Enero	2023-01-01T00:00:00	2024-11-08T10:00:00	2	Temperatura media	20.6
28226	7	Sololá	717	San Juan la Laguna	12	San Juan la Laguna	1	Enero	2023-01-01T00:00:00	2024-11-08T10:00:00	4	Temperatura máxima	20.6
28227	7	Sololá	717	San Juan la Laguna	12	San Juan la Laguna	1	Enero	2023-01-01T00:00:00	2024-11-08T10:00:00	3	Temperatura mínima	19.9
28228	7	Sololá	717	San Juan la Laguna	12	San Juan la Laguna	1	Enero	2023-01-01T00:00:00	2024-11-08T10:00:00	5	Humedad	66
28229	7	Sololá	717	San Juan la Laguna	12	San Juan la Laguna	1	Enero	2023-01-01T00:00:00	2024-11-08T10:00:00	6	Velocidad del viento	3.2
28230	7	Sololá	717	San Juan la Laguna	12	San Juan la Laguna	1	Enero	2023-01-01T00:00:00	2024-11-08T10:00:00	7	Dirección del viento	3.22
28231	7	Sololá	717	San Juan la Laguna	12	San Juan la Laguna	1	Enero	2023-01-01T00:00:00	2024-11-08T10:00:00	1	Precipitación	0
28232	7	Sololá	717	San Juan la Laguna	12	San Juan la Laguna	1	Enero	2023-01-01T00:00:00	2024-11-08T10:00:00	8	Radiación solar	521
28233	7	Sololá	717	San Juan la Laguna	12	San Juan la Laguna	1	Enero	2023-01-01T00:00:00	2024-11-08T11:00:00	2	Temperatura media	21.6
28234	7	Sololá	717	San Juan la Laguna	12	San Juan la Laguna	1	Enero	2023-01-01T00:00:00	2024-11-08T11:00:00	4	Temperatura máxima	21.6
28235	7	Sololá	717	San Juan la Laguna	12	San Juan la Laguna	1	Enero	2023-01-01T00:00:00	2024-11-08T11:00:00	3	Temperatura mínima	20.6
28236	7	Sololá	717	San Juan la Laguna	12	San Juan la Laguna	1	Enero	2023-01-01T00:00:00	2024-11-08T11:00:00	5	Humedad	63
28237	7	Sololá	717	San Juan la Laguna	12	San Juan la Laguna	1	Enero	2023-01-01T00:00:00	2024-11-08T11:00:00	6	Velocidad del viento	3.2
28238	7	Sololá	717	San Juan la Laguna	12	San Juan la Laguna	1	Enero	2023-01-01T00:00:00	2024-11-08T11:00:00	7	Dirección del viento	3.22
28239	7	Sololá	717	San Juan la Laguna	12	San Juan la Laguna	1	Enero	2023-01-01T00:00:00	2024-11-08T11:00:00	1	Precipitación	0
28240	7	Sololá	717	San Juan la Laguna	12	San Juan la Laguna	1	Enero	2023-01-01T00:00:00	2024-11-08T11:00:00	8	Radiación solar	592
28241	7	Sololá	717	San Juan la Laguna	12	San Juan la Laguna	1	Enero	2023-01-01T00:00:00	2024-11-08T12:00:00	2	Temperatura media	22.8
28242	7	Sololá	717	San Juan la Laguna	12	San Juan la Laguna	1	Enero	2023-01-01T00:00:00	2024-11-08T12:00:00	4	Temperatura máxima	23.3
28243	7	Sololá	717	San Juan la Laguna	12	San Juan la Laguna	1	Enero	2023-01-01T00:00:00	2024-11-08T12:00:00	3	Temperatura mínima	21.6
28244	7	Sololá	717	San Juan la Laguna	12	San Juan la Laguna	1	Enero	2023-01-01T00:00:00	2024-11-08T12:00:00	5	Humedad	62
28245	7	Sololá	717	San Juan la Laguna	12	San Juan la Laguna	1	Enero	2023-01-01T00:00:00	2024-11-08T12:00:00	6	Velocidad del viento	4.8
28246	7	Sololá	717	San Juan la Laguna	12	San Juan la Laguna	1	Enero	2023-01-01T00:00:00	2024-11-08T12:00:00	7	Dirección del viento	4.83
28247	7	Sololá	717	San Juan la Laguna	12	San Juan la Laguna	1	Enero	2023-01-01T00:00:00	2024-11-08T12:00:00	1	Precipitación	0
28248	7	Sololá	717	San Juan la Laguna	12	San Juan la Laguna	1	Enero	2023-01-01T00:00:00	2024-11-08T12:00:00	8	Radiación solar	704
28249	7	Sololá	717	San Juan la Laguna	12	San Juan la Laguna	1	Enero	2023-01-01T00:00:00	2024-11-08T13:00:00	2	Temperatura media	22.4
28250	7	Sololá	717	San Juan la Laguna	12	San Juan la Laguna	1	Enero	2023-01-01T00:00:00	2024-11-08T13:00:00	4	Temperatura máxima	22.9
28251	7	Sololá	717	San Juan la Laguna	12	San Juan la Laguna	1	Enero	2023-01-01T00:00:00	2024-11-08T13:00:00	3	Temperatura mínima	21.9
28252	7	Sololá	717	San Juan la Laguna	12	San Juan la Laguna	1	Enero	2023-01-01T00:00:00	2024-11-08T13:00:00	5	Humedad	69
28253	7	Sololá	717	San Juan la Laguna	12	San Juan la Laguna	1	Enero	2023-01-01T00:00:00	2024-11-08T13:00:00	6	Velocidad del viento	6.4
28254	7	Sololá	717	San Juan la Laguna	12	San Juan la Laguna	1	Enero	2023-01-01T00:00:00	2024-11-08T13:00:00	7	Dirección del viento	6.44
28255	7	Sololá	717	San Juan la Laguna	12	San Juan la Laguna	1	Enero	2023-01-01T00:00:00	2024-11-08T13:00:00	1	Precipitación	0
28256	7	Sololá	717	San Juan la Laguna	12	San Juan la Laguna	1	Enero	2023-01-01T00:00:00	2024-11-08T13:00:00	8	Radiación solar	698
28257	7	Sololá	717	San Juan la Laguna	12	San Juan la Laguna	1	Enero	2023-01-01T00:00:00	2024-11-08T14:00:00	2	Temperatura media	22.3
28258	7	Sololá	717	San Juan la Laguna	12	San Juan la Laguna	1	Enero	2023-01-01T00:00:00	2024-11-08T14:00:00	4	Temperatura máxima	22.7
28259	7	Sololá	717	San Juan la Laguna	12	San Juan la Laguna	1	Enero	2023-01-01T00:00:00	2024-11-08T14:00:00	3	Temperatura mínima	21.8
28260	7	Sololá	717	San Juan la Laguna	12	San Juan la Laguna	1	Enero	2023-01-01T00:00:00	2024-11-08T14:00:00	5	Humedad	69
28261	7	Sololá	717	San Juan la Laguna	12	San Juan la Laguna	1	Enero	2023-01-01T00:00:00	2024-11-08T14:00:00	6	Velocidad del viento	3.2
28262	7	Sololá	717	San Juan la Laguna	12	San Juan la Laguna	1	Enero	2023-01-01T00:00:00	2024-11-08T14:00:00	7	Dirección del viento	3.22
28263	7	Sololá	717	San Juan la Laguna	12	San Juan la Laguna	1	Enero	2023-01-01T00:00:00	2024-11-08T14:00:00	1	Precipitación	0
28264	7	Sololá	717	San Juan la Laguna	12	San Juan la Laguna	1	Enero	2023-01-01T00:00:00	2024-11-08T14:00:00	8	Radiación solar	552
28265	7	Sololá	717	San Juan la Laguna	12	San Juan la Laguna	1	Enero	2023-01-01T00:00:00	2024-11-08T15:00:00	2	Temperatura media	22.1
28266	7	Sololá	717	San Juan la Laguna	12	San Juan la Laguna	1	Enero	2023-01-01T00:00:00	2024-11-08T15:00:00	4	Temperatura máxima	23.6
28267	7	Sololá	717	San Juan la Laguna	12	San Juan la Laguna	1	Enero	2023-01-01T00:00:00	2024-11-08T15:00:00	3	Temperatura mínima	22.1
28268	7	Sololá	717	San Juan la Laguna	12	San Juan la Laguna	1	Enero	2023-01-01T00:00:00	2024-11-08T15:00:00	5	Humedad	71
28269	7	Sololá	717	San Juan la Laguna	12	San Juan la Laguna	1	Enero	2023-01-01T00:00:00	2024-11-08T15:00:00	6	Velocidad del viento	4.8
28270	7	Sololá	717	San Juan la Laguna	12	San Juan la Laguna	1	Enero	2023-01-01T00:00:00	2024-11-08T15:00:00	7	Dirección del viento	4.83
28271	7	Sololá	717	San Juan la Laguna	12	San Juan la Laguna	1	Enero	2023-01-01T00:00:00	2024-11-08T15:00:00	1	Precipitación	0
28272	7	Sololá	717	San Juan la Laguna	12	San Juan la Laguna	1	Enero	2023-01-01T00:00:00	2024-11-08T15:00:00	8	Radiación solar	636
28273	7	Sololá	717	San Juan la Laguna	12	San Juan la Laguna	1	Enero	2023-01-01T00:00:00	2024-11-08T16:00:00	2	Temperatura media	20.9
28274	7	Sololá	717	San Juan la Laguna	12	San Juan la Laguna	1	Enero	2023-01-01T00:00:00	2024-11-08T16:00:00	4	Temperatura máxima	22.4
28275	7	Sololá	717	San Juan la Laguna	12	San Juan la Laguna	1	Enero	2023-01-01T00:00:00	2024-11-08T16:00:00	3	Temperatura mínima	20.9
28276	7	Sololá	717	San Juan la Laguna	12	San Juan la Laguna	1	Enero	2023-01-01T00:00:00	2024-11-08T16:00:00	5	Humedad	75
28277	7	Sololá	717	San Juan la Laguna	12	San Juan la Laguna	1	Enero	2023-01-01T00:00:00	2024-11-08T16:00:00	6	Velocidad del viento	6.4
28278	7	Sololá	717	San Juan la Laguna	12	San Juan la Laguna	1	Enero	2023-01-01T00:00:00	2024-11-08T16:00:00	7	Dirección del viento	6.44
28279	7	Sololá	717	San Juan la Laguna	12	San Juan la Laguna	1	Enero	2023-01-01T00:00:00	2024-11-08T16:00:00	1	Precipitación	0
28280	7	Sololá	717	San Juan la Laguna	12	San Juan la Laguna	1	Enero	2023-01-01T00:00:00	2024-11-08T16:00:00	8	Radiación solar	335
28281	7	Sololá	717	San Juan la Laguna	12	San Juan la Laguna	1	Enero	2023-01-01T00:00:00	2024-11-08T17:00:00	2	Temperatura media	19.7
28282	7	Sololá	717	San Juan la Laguna	12	San Juan la Laguna	1	Enero	2023-01-01T00:00:00	2024-11-08T17:00:00	4	Temperatura máxima	20.9
28283	7	Sololá	717	San Juan la Laguna	12	San Juan la Laguna	1	Enero	2023-01-01T00:00:00	2024-11-08T17:00:00	3	Temperatura mínima	19.7
28284	7	Sololá	717	San Juan la Laguna	12	San Juan la Laguna	1	Enero	2023-01-01T00:00:00	2024-11-08T17:00:00	5	Humedad	81
28285	7	Sololá	717	San Juan la Laguna	12	San Juan la Laguna	1	Enero	2023-01-01T00:00:00	2024-11-08T17:00:00	6	Velocidad del viento	4.8
28286	7	Sololá	717	San Juan la Laguna	12	San Juan la Laguna	1	Enero	2023-01-01T00:00:00	2024-11-08T17:00:00	7	Dirección del viento	4.83
28287	7	Sololá	717	San Juan la Laguna	12	San Juan la Laguna	1	Enero	2023-01-01T00:00:00	2024-11-08T17:00:00	1	Precipitación	0
28288	7	Sololá	717	San Juan la Laguna	12	San Juan la Laguna	1	Enero	2023-01-01T00:00:00	2024-11-08T17:00:00	8	Radiación solar	115
28289	7	Sololá	717	San Juan la Laguna	12	San Juan la Laguna	1	Enero	2023-01-01T00:00:00	2024-11-08T18:00:00	2	Temperatura media	18.9
28290	7	Sololá	717	San Juan la Laguna	12	San Juan la Laguna	1	Enero	2023-01-01T00:00:00	2024-11-08T18:00:00	4	Temperatura máxima	19.7
28291	7	Sololá	717	San Juan la Laguna	12	San Juan la Laguna	1	Enero	2023-01-01T00:00:00	2024-11-08T18:00:00	3	Temperatura mínima	18.9
28292	7	Sololá	717	San Juan la Laguna	12	San Juan la Laguna	1	Enero	2023-01-01T00:00:00	2024-11-08T18:00:00	5	Humedad	84
28293	7	Sololá	717	San Juan la Laguna	12	San Juan la Laguna	1	Enero	2023-01-01T00:00:00	2024-11-08T18:00:00	6	Velocidad del viento	1.6
28294	7	Sololá	717	San Juan la Laguna	12	San Juan la Laguna	1	Enero	2023-01-01T00:00:00	2024-11-08T18:00:00	7	Dirección del viento	1.61
28295	7	Sololá	717	San Juan la Laguna	12	San Juan la Laguna	1	Enero	2023-01-01T00:00:00	2024-11-08T18:00:00	1	Precipitación	0
28296	7	Sololá	717	San Juan la Laguna	12	San Juan la Laguna	1	Enero	2023-01-01T00:00:00	2024-11-08T18:00:00	8	Radiación solar	13
28297	7	Sololá	717	San Juan la Laguna	12	San Juan la Laguna	1	Enero	2023-01-01T00:00:00	2024-11-08T19:00:00	2	Temperatura media	19.1
28298	7	Sololá	717	San Juan la Laguna	12	San Juan la Laguna	1	Enero	2023-01-01T00:00:00	2024-11-08T19:00:00	4	Temperatura máxima	19.1
28299	7	Sololá	717	San Juan la Laguna	12	San Juan la Laguna	1	Enero	2023-01-01T00:00:00	2024-11-08T19:00:00	3	Temperatura mínima	18.9
28300	7	Sololá	717	San Juan la Laguna	12	San Juan la Laguna	1	Enero	2023-01-01T00:00:00	2024-11-08T19:00:00	5	Humedad	84
28301	7	Sololá	717	San Juan la Laguna	12	San Juan la Laguna	1	Enero	2023-01-01T00:00:00	2024-11-08T19:00:00	6	Velocidad del viento	0
28302	7	Sololá	717	San Juan la Laguna	12	San Juan la Laguna	1	Enero	2023-01-01T00:00:00	2024-11-08T19:00:00	7	Dirección del viento	0
28303	7	Sololá	717	San Juan la Laguna	12	San Juan la Laguna	1	Enero	2023-01-01T00:00:00	2024-11-08T19:00:00	1	Precipitación	0
28304	7	Sololá	717	San Juan la Laguna	12	San Juan la Laguna	1	Enero	2023-01-01T00:00:00	2024-11-08T19:00:00	8	Radiación solar	0
28305	7	Sololá	717	San Juan la Laguna	12	San Juan la Laguna	1	Enero	2023-01-01T00:00:00	2024-11-08T20:00:00	2	Temperatura media	17.4
28306	7	Sololá	717	San Juan la Laguna	12	San Juan la Laguna	1	Enero	2023-01-01T00:00:00	2024-11-08T20:00:00	4	Temperatura máxima	19.1
28307	7	Sololá	717	San Juan la Laguna	12	San Juan la Laguna	1	Enero	2023-01-01T00:00:00	2024-11-08T20:00:00	3	Temperatura mínima	17.4
28308	7	Sololá	717	San Juan la Laguna	12	San Juan la Laguna	1	Enero	2023-01-01T00:00:00	2024-11-08T20:00:00	5	Humedad	88
28309	7	Sololá	717	San Juan la Laguna	12	San Juan la Laguna	1	Enero	2023-01-01T00:00:00	2024-11-08T20:00:00	6	Velocidad del viento	0
28310	7	Sololá	717	San Juan la Laguna	12	San Juan la Laguna	1	Enero	2023-01-01T00:00:00	2024-11-08T20:00:00	7	Dirección del viento	0
28311	7	Sololá	717	San Juan la Laguna	12	San Juan la Laguna	1	Enero	2023-01-01T00:00:00	2024-11-08T20:00:00	1	Precipitación	0
28312	7	Sololá	717	San Juan la Laguna	12	San Juan la Laguna	1	Enero	2023-01-01T00:00:00	2024-11-08T20:00:00	8	Radiación solar	0
28313	7	Sololá	717	San Juan la Laguna	12	San Juan la Laguna	1	Enero	2023-01-01T00:00:00	2024-11-08T21:00:00	2	Temperatura media	16.5
28314	7	Sololá	717	San Juan la Laguna	12	San Juan la Laguna	1	Enero	2023-01-01T00:00:00	2024-11-08T21:00:00	4	Temperatura máxima	17.4
28315	7	Sololá	717	San Juan la Laguna	12	San Juan la Laguna	1	Enero	2023-01-01T00:00:00	2024-11-08T21:00:00	3	Temperatura mínima	16.4
28316	7	Sololá	717	San Juan la Laguna	12	San Juan la Laguna	1	Enero	2023-01-01T00:00:00	2024-11-08T21:00:00	5	Humedad	89
28317	7	Sololá	717	San Juan la Laguna	12	San Juan la Laguna	1	Enero	2023-01-01T00:00:00	2024-11-08T21:00:00	6	Velocidad del viento	0
28318	7	Sololá	717	San Juan la Laguna	12	San Juan la Laguna	1	Enero	2023-01-01T00:00:00	2024-11-08T21:00:00	7	Dirección del viento	0
28319	7	Sololá	717	San Juan la Laguna	12	San Juan la Laguna	1	Enero	2023-01-01T00:00:00	2024-11-08T21:00:00	1	Precipitación	0
28320	7	Sololá	717	San Juan la Laguna	12	San Juan la Laguna	1	Enero	2023-01-01T00:00:00	2024-11-08T21:00:00	8	Radiación solar	0
28321	7	Sololá	717	San Juan la Laguna	12	San Juan la Laguna	1	Enero	2023-01-01T00:00:00	2024-11-08T22:00:00	2	Temperatura media	16.4
28322	7	Sololá	717	San Juan la Laguna	12	San Juan la Laguna	1	Enero	2023-01-01T00:00:00	2024-11-08T22:00:00	4	Temperatura máxima	16.6
28323	7	Sololá	717	San Juan la Laguna	12	San Juan la Laguna	1	Enero	2023-01-01T00:00:00	2024-11-08T22:00:00	3	Temperatura mínima	16.3
28324	7	Sololá	717	San Juan la Laguna	12	San Juan la Laguna	1	Enero	2023-01-01T00:00:00	2024-11-08T22:00:00	5	Humedad	88
28325	7	Sololá	717	San Juan la Laguna	12	San Juan la Laguna	1	Enero	2023-01-01T00:00:00	2024-11-08T22:00:00	6	Velocidad del viento	3.2
28326	7	Sololá	717	San Juan la Laguna	12	San Juan la Laguna	1	Enero	2023-01-01T00:00:00	2024-11-08T22:00:00	7	Dirección del viento	3.22
28327	7	Sololá	717	San Juan la Laguna	12	San Juan la Laguna	1	Enero	2023-01-01T00:00:00	2024-11-08T22:00:00	1	Precipitación	0
28328	7	Sololá	717	San Juan la Laguna	12	San Juan la Laguna	1	Enero	2023-01-01T00:00:00	2024-11-08T22:00:00	8	Radiación solar	0
28329	7	Sololá	717	San Juan la Laguna	12	San Juan la Laguna	1	Enero	2023-01-01T00:00:00	2024-11-08T23:00:00	2	Temperatura media	15.8
28330	7	Sololá	717	San Juan la Laguna	12	San Juan la Laguna	1	Enero	2023-01-01T00:00:00	2024-11-08T23:00:00	4	Temperatura máxima	16.6
28331	7	Sololá	717	San Juan la Laguna	12	San Juan la Laguna	1	Enero	2023-01-01T00:00:00	2024-11-08T23:00:00	3	Temperatura mínima	15.8
28332	7	Sololá	717	San Juan la Laguna	12	San Juan la Laguna	1	Enero	2023-01-01T00:00:00	2024-11-08T23:00:00	5	Humedad	85
28333	7	Sololá	717	San Juan la Laguna	12	San Juan la Laguna	1	Enero	2023-01-01T00:00:00	2024-11-08T23:00:00	6	Velocidad del viento	4.8
28334	7	Sololá	717	San Juan la Laguna	12	San Juan la Laguna	1	Enero	2023-01-01T00:00:00	2024-11-08T23:00:00	7	Dirección del viento	4.83
28335	7	Sololá	717	San Juan la Laguna	12	San Juan la Laguna	1	Enero	2023-01-01T00:00:00	2024-11-08T23:00:00	1	Precipitación	0
28336	7	Sololá	717	San Juan la Laguna	12	San Juan la Laguna	1	Enero	2023-01-01T00:00:00	2024-11-08T23:00:00	8	Radiación solar	0
28337	7	Sololá	717	San Juan la Laguna	12	San Juan la Laguna	1	Enero	2023-02-01T00:00:00	2024-11-08T00:00:00	2	Temperatura media	16
28338	7	Sololá	717	San Juan la Laguna	12	San Juan la Laguna	1	Enero	2023-02-01T00:00:00	2024-11-08T00:00:00	4	Temperatura máxima	16.3
28339	7	Sololá	717	San Juan la Laguna	12	San Juan la Laguna	1	Enero	2023-02-01T00:00:00	2024-11-08T00:00:00	3	Temperatura mínima	15.8
28340	7	Sololá	717	San Juan la Laguna	12	San Juan la Laguna	1	Enero	2023-02-01T00:00:00	2024-11-08T00:00:00	5	Humedad	86
28341	7	Sololá	717	San Juan la Laguna	12	San Juan la Laguna	1	Enero	2023-02-01T00:00:00	2024-11-08T00:00:00	6	Velocidad del viento	3.2
28342	7	Sololá	717	San Juan la Laguna	12	San Juan la Laguna	1	Enero	2023-02-01T00:00:00	2024-11-08T00:00:00	7	Dirección del viento	3.22
28343	7	Sololá	717	San Juan la Laguna	12	San Juan la Laguna	1	Enero	2023-02-01T00:00:00	2024-11-08T00:00:00	1	Precipitación	0
28344	7	Sololá	717	San Juan la Laguna	12	San Juan la Laguna	1	Enero	2023-02-01T00:00:00	2024-11-08T00:00:00	8	Radiación solar	0
28345	7	Sololá	717	San Juan la Laguna	12	San Juan la Laguna	1	Enero	2023-02-01T00:00:00	2024-11-08T01:00:00	2	Temperatura media	15.8
28346	7	Sololá	717	San Juan la Laguna	12	San Juan la Laguna	1	Enero	2023-02-01T00:00:00	2024-11-08T01:00:00	4	Temperatura máxima	16.2
28347	7	Sololá	717	San Juan la Laguna	12	San Juan la Laguna	1	Enero	2023-02-01T00:00:00	2024-11-08T01:00:00	3	Temperatura mínima	15.8
28348	7	Sololá	717	San Juan la Laguna	12	San Juan la Laguna	1	Enero	2023-02-01T00:00:00	2024-11-08T01:00:00	5	Humedad	87
28349	7	Sololá	717	San Juan la Laguna	12	San Juan la Laguna	1	Enero	2023-02-01T00:00:00	2024-11-08T01:00:00	6	Velocidad del viento	1.6
28350	7	Sololá	717	San Juan la Laguna	12	San Juan la Laguna	1	Enero	2023-02-01T00:00:00	2024-11-08T01:00:00	7	Dirección del viento	1.61
28351	7	Sololá	717	San Juan la Laguna	12	San Juan la Laguna	1	Enero	2023-02-01T00:00:00	2024-11-08T01:00:00	1	Precipitación	0
28352	7	Sololá	717	San Juan la Laguna	12	San Juan la Laguna	1	Enero	2023-02-01T00:00:00	2024-11-08T01:00:00	8	Radiación solar	0
28353	7	Sololá	717	San Juan la Laguna	12	San Juan la Laguna	1	Enero	2023-02-01T00:00:00	2024-11-08T02:00:00	2	Temperatura media	14.6
28354	7	Sololá	717	San Juan la Laguna	12	San Juan la Laguna	1	Enero	2023-02-01T00:00:00	2024-11-08T02:00:00	4	Temperatura máxima	15.8
28355	7	Sololá	717	San Juan la Laguna	12	San Juan la Laguna	1	Enero	2023-02-01T00:00:00	2024-11-08T02:00:00	3	Temperatura mínima	14.6
28356	7	Sololá	717	San Juan la Laguna	12	San Juan la Laguna	1	Enero	2023-02-01T00:00:00	2024-11-08T02:00:00	5	Humedad	88
28357	7	Sololá	717	San Juan la Laguna	12	San Juan la Laguna	1	Enero	2023-02-01T00:00:00	2024-11-08T02:00:00	6	Velocidad del viento	3.2
28358	7	Sololá	717	San Juan la Laguna	12	San Juan la Laguna	1	Enero	2023-02-01T00:00:00	2024-11-08T02:00:00	7	Dirección del viento	3.22
28359	7	Sololá	717	San Juan la Laguna	12	San Juan la Laguna	1	Enero	2023-02-01T00:00:00	2024-11-08T02:00:00	1	Precipitación	0
28360	7	Sololá	717	San Juan la Laguna	12	San Juan la Laguna	1	Enero	2023-02-01T00:00:00	2024-11-08T02:00:00	8	Radiación solar	0
28361	7	Sololá	717	San Juan la Laguna	12	San Juan la Laguna	1	Enero	2023-02-01T00:00:00	2024-11-08T03:00:00	2	Temperatura media	14
28362	7	Sololá	717	San Juan la Laguna	12	San Juan la Laguna	1	Enero	2023-02-01T00:00:00	2024-11-08T03:00:00	4	Temperatura máxima	14.7
28363	7	Sololá	717	San Juan la Laguna	12	San Juan la Laguna	1	Enero	2023-02-01T00:00:00	2024-11-08T03:00:00	3	Temperatura mínima	14
28364	7	Sololá	717	San Juan la Laguna	12	San Juan la Laguna	1	Enero	2023-02-01T00:00:00	2024-11-08T03:00:00	5	Humedad	88
28365	7	Sololá	717	San Juan la Laguna	12	San Juan la Laguna	1	Enero	2023-02-01T00:00:00	2024-11-08T03:00:00	6	Velocidad del viento	3.2
28366	7	Sololá	717	San Juan la Laguna	12	San Juan la Laguna	1	Enero	2023-02-01T00:00:00	2024-11-08T03:00:00	7	Dirección del viento	3.22
28367	7	Sololá	717	San Juan la Laguna	12	San Juan la Laguna	1	Enero	2023-02-01T00:00:00	2024-11-08T03:00:00	1	Precipitación	0
28368	7	Sololá	717	San Juan la Laguna	12	San Juan la Laguna	1	Enero	2023-02-01T00:00:00	2024-11-08T03:00:00	8	Radiación solar	0
28369	7	Sololá	717	San Juan la Laguna	12	San Juan la Laguna	1	Enero	2023-02-01T00:00:00	2024-11-08T04:00:00	2	Temperatura media	14.6
28370	7	Sololá	717	San Juan la Laguna	12	San Juan la Laguna	1	Enero	2023-02-01T00:00:00	2024-11-08T04:00:00	4	Temperatura máxima	14.6
28371	7	Sololá	717	San Juan la Laguna	12	San Juan la Laguna	1	Enero	2023-02-01T00:00:00	2024-11-08T04:00:00	3	Temperatura mínima	13.9
28372	7	Sololá	717	San Juan la Laguna	12	San Juan la Laguna	1	Enero	2023-02-01T00:00:00	2024-11-08T04:00:00	5	Humedad	87
28373	7	Sololá	717	San Juan la Laguna	12	San Juan la Laguna	1	Enero	2023-02-01T00:00:00	2024-11-08T04:00:00	6	Velocidad del viento	3.2
28374	7	Sololá	717	San Juan la Laguna	12	San Juan la Laguna	1	Enero	2023-02-01T00:00:00	2024-11-08T04:00:00	7	Dirección del viento	3.22
28375	7	Sololá	717	San Juan la Laguna	12	San Juan la Laguna	1	Enero	2023-02-01T00:00:00	2024-11-08T04:00:00	1	Precipitación	0
28376	7	Sololá	717	San Juan la Laguna	12	San Juan la Laguna	1	Enero	2023-02-01T00:00:00	2024-11-08T04:00:00	8	Radiación solar	0
28377	7	Sololá	717	San Juan la Laguna	12	San Juan la Laguna	1	Enero	2023-02-01T00:00:00	2024-11-08T05:00:00	2	Temperatura media	14.1
28378	7	Sololá	717	San Juan la Laguna	12	San Juan la Laguna	1	Enero	2023-02-01T00:00:00	2024-11-08T05:00:00	4	Temperatura máxima	14.9
28379	7	Sololá	717	San Juan la Laguna	12	San Juan la Laguna	1	Enero	2023-02-01T00:00:00	2024-11-08T05:00:00	3	Temperatura mínima	14.1
28380	7	Sololá	717	San Juan la Laguna	12	San Juan la Laguna	1	Enero	2023-02-01T00:00:00	2024-11-08T05:00:00	5	Humedad	86
28381	7	Sololá	717	San Juan la Laguna	12	San Juan la Laguna	1	Enero	2023-02-01T00:00:00	2024-11-08T05:00:00	6	Velocidad del viento	1.6
28382	7	Sololá	717	San Juan la Laguna	12	San Juan la Laguna	1	Enero	2023-02-01T00:00:00	2024-11-08T05:00:00	7	Dirección del viento	1.61
28383	7	Sololá	717	San Juan la Laguna	12	San Juan la Laguna	1	Enero	2023-02-01T00:00:00	2024-11-08T05:00:00	1	Precipitación	0
28384	7	Sololá	717	San Juan la Laguna	12	San Juan la Laguna	1	Enero	2023-02-01T00:00:00	2024-11-08T05:00:00	8	Radiación solar	0
28385	7	Sololá	717	San Juan la Laguna	12	San Juan la Laguna	1	Enero	2023-02-01T00:00:00	2024-11-08T06:00:00	2	Temperatura media	13.7
28386	7	Sololá	717	San Juan la Laguna	12	San Juan la Laguna	1	Enero	2023-02-01T00:00:00	2024-11-08T06:00:00	4	Temperatura máxima	14.3
28387	7	Sololá	717	San Juan la Laguna	12	San Juan la Laguna	1	Enero	2023-02-01T00:00:00	2024-11-08T06:00:00	3	Temperatura mínima	13.7
28388	7	Sololá	717	San Juan la Laguna	12	San Juan la Laguna	1	Enero	2023-02-01T00:00:00	2024-11-08T06:00:00	5	Humedad	86
28389	7	Sololá	717	San Juan la Laguna	12	San Juan la Laguna	1	Enero	2023-02-01T00:00:00	2024-11-08T06:00:00	6	Velocidad del viento	3.2
28390	7	Sololá	717	San Juan la Laguna	12	San Juan la Laguna	1	Enero	2023-02-01T00:00:00	2024-11-08T06:00:00	7	Dirección del viento	3.22
28391	7	Sololá	717	San Juan la Laguna	12	San Juan la Laguna	1	Enero	2023-02-01T00:00:00	2024-11-08T06:00:00	1	Precipitación	0
28392	7	Sololá	717	San Juan la Laguna	12	San Juan la Laguna	1	Enero	2023-02-01T00:00:00	2024-11-08T06:00:00	8	Radiación solar	0
28393	7	Sololá	717	San Juan la Laguna	12	San Juan la Laguna	1	Enero	2023-02-01T00:00:00	2024-11-08T07:00:00	2	Temperatura media	12.9
28394	7	Sololá	717	San Juan la Laguna	12	San Juan la Laguna	1	Enero	2023-02-01T00:00:00	2024-11-08T07:00:00	4	Temperatura máxima	13.7
28395	7	Sololá	717	San Juan la Laguna	12	San Juan la Laguna	1	Enero	2023-02-01T00:00:00	2024-11-08T07:00:00	3	Temperatura mínima	12.9
28396	7	Sololá	717	San Juan la Laguna	12	San Juan la Laguna	1	Enero	2023-02-01T00:00:00	2024-11-08T07:00:00	5	Humedad	85
28397	7	Sololá	717	San Juan la Laguna	12	San Juan la Laguna	1	Enero	2023-02-01T00:00:00	2024-11-08T07:00:00	6	Velocidad del viento	4.8
28398	7	Sololá	717	San Juan la Laguna	12	San Juan la Laguna	1	Enero	2023-02-01T00:00:00	2024-11-08T07:00:00	7	Dirección del viento	4.83
28399	7	Sololá	717	San Juan la Laguna	12	San Juan la Laguna	1	Enero	2023-02-01T00:00:00	2024-11-08T07:00:00	1	Precipitación	0
28400	7	Sololá	717	San Juan la Laguna	12	San Juan la Laguna	1	Enero	2023-02-01T00:00:00	2024-11-08T07:00:00	8	Radiación solar	5
28401	7	Sololá	717	San Juan la Laguna	12	San Juan la Laguna	1	Enero	2023-02-01T00:00:00	2024-11-08T08:00:00	2	Temperatura media	15.6
28402	7	Sololá	717	San Juan la Laguna	12	San Juan la Laguna	1	Enero	2023-02-01T00:00:00	2024-11-08T08:00:00	4	Temperatura máxima	15.6
28403	7	Sololá	717	San Juan la Laguna	12	San Juan la Laguna	1	Enero	2023-02-01T00:00:00	2024-11-08T08:00:00	3	Temperatura mínima	12.9
28404	7	Sololá	717	San Juan la Laguna	12	San Juan la Laguna	1	Enero	2023-02-01T00:00:00	2024-11-08T08:00:00	5	Humedad	83
28405	7	Sololá	717	San Juan la Laguna	12	San Juan la Laguna	1	Enero	2023-02-01T00:00:00	2024-11-08T08:00:00	6	Velocidad del viento	1.6
28406	7	Sololá	717	San Juan la Laguna	12	San Juan la Laguna	1	Enero	2023-02-01T00:00:00	2024-11-08T08:00:00	7	Dirección del viento	1.61
28407	7	Sololá	717	San Juan la Laguna	12	San Juan la Laguna	1	Enero	2023-02-01T00:00:00	2024-11-08T08:00:00	1	Precipitación	0
28408	7	Sololá	717	San Juan la Laguna	12	San Juan la Laguna	1	Enero	2023-02-01T00:00:00	2024-11-08T08:00:00	8	Radiación solar	145
28409	7	Sololá	717	San Juan la Laguna	12	San Juan la Laguna	1	Enero	2023-02-01T00:00:00	2024-11-08T09:00:00	2	Temperatura media	18.1
28410	7	Sololá	717	San Juan la Laguna	12	San Juan la Laguna	1	Enero	2023-02-01T00:00:00	2024-11-08T09:00:00	4	Temperatura máxima	18.2
28411	7	Sololá	717	San Juan la Laguna	12	San Juan la Laguna	1	Enero	2023-02-01T00:00:00	2024-11-08T09:00:00	3	Temperatura mínima	15.6
28412	7	Sololá	717	San Juan la Laguna	12	San Juan la Laguna	1	Enero	2023-02-01T00:00:00	2024-11-08T09:00:00	5	Humedad	77
28413	7	Sololá	717	San Juan la Laguna	12	San Juan la Laguna	1	Enero	2023-02-01T00:00:00	2024-11-08T09:00:00	6	Velocidad del viento	1.6
28414	7	Sololá	717	San Juan la Laguna	12	San Juan la Laguna	1	Enero	2023-02-01T00:00:00	2024-11-08T09:00:00	7	Dirección del viento	1.61
28415	7	Sololá	717	San Juan la Laguna	12	San Juan la Laguna	1	Enero	2023-02-01T00:00:00	2024-11-08T09:00:00	1	Precipitación	0
28416	7	Sololá	717	San Juan la Laguna	12	San Juan la Laguna	1	Enero	2023-02-01T00:00:00	2024-11-08T09:00:00	8	Radiación solar	387
28417	7	Sololá	717	San Juan la Laguna	12	San Juan la Laguna	1	Enero	2023-02-01T00:00:00	2024-11-08T10:00:00	2	Temperatura media	19.1
28418	7	Sololá	717	San Juan la Laguna	12	San Juan la Laguna	1	Enero	2023-02-01T00:00:00	2024-11-08T10:00:00	4	Temperatura máxima	19.6
28419	7	Sololá	717	San Juan la Laguna	12	San Juan la Laguna	1	Enero	2023-02-01T00:00:00	2024-11-08T10:00:00	3	Temperatura mínima	18.1
28420	7	Sololá	717	San Juan la Laguna	12	San Juan la Laguna	1	Enero	2023-02-01T00:00:00	2024-11-08T10:00:00	5	Humedad	74
28421	7	Sololá	717	San Juan la Laguna	12	San Juan la Laguna	1	Enero	2023-02-01T00:00:00	2024-11-08T10:00:00	6	Velocidad del viento	1.6
28422	7	Sololá	717	San Juan la Laguna	12	San Juan la Laguna	1	Enero	2023-02-01T00:00:00	2024-11-08T10:00:00	7	Dirección del viento	1.61
28423	7	Sololá	717	San Juan la Laguna	12	San Juan la Laguna	1	Enero	2023-02-01T00:00:00	2024-11-08T10:00:00	1	Precipitación	0
28424	7	Sololá	717	San Juan la Laguna	12	San Juan la Laguna	1	Enero	2023-02-01T00:00:00	2024-11-08T10:00:00	8	Radiación solar	403
28425	7	Sololá	717	San Juan la Laguna	12	San Juan la Laguna	1	Enero	2023-02-01T00:00:00	2024-11-08T11:00:00	2	Temperatura media	20.6
28426	7	Sololá	717	San Juan la Laguna	12	San Juan la Laguna	1	Enero	2023-02-01T00:00:00	2024-11-08T11:00:00	4	Temperatura máxima	20.6
28427	7	Sololá	717	San Juan la Laguna	12	San Juan la Laguna	1	Enero	2023-02-01T00:00:00	2024-11-08T11:00:00	3	Temperatura mínima	19.1
28428	7	Sololá	717	San Juan la Laguna	12	San Juan la Laguna	1	Enero	2023-02-01T00:00:00	2024-11-08T11:00:00	5	Humedad	62
28429	7	Sololá	717	San Juan la Laguna	12	San Juan la Laguna	1	Enero	2023-02-01T00:00:00	2024-11-08T11:00:00	6	Velocidad del viento	1.6
28430	7	Sololá	717	San Juan la Laguna	12	San Juan la Laguna	1	Enero	2023-02-01T00:00:00	2024-11-08T11:00:00	7	Dirección del viento	1.61
28431	7	Sololá	717	San Juan la Laguna	12	San Juan la Laguna	1	Enero	2023-02-01T00:00:00	2024-11-08T11:00:00	1	Precipitación	0
28432	7	Sololá	717	San Juan la Laguna	12	San Juan la Laguna	1	Enero	2023-02-01T00:00:00	2024-11-08T11:00:00	8	Radiación solar	496
28433	7	Sololá	717	San Juan la Laguna	12	San Juan la Laguna	1	Enero	2023-02-01T00:00:00	2024-11-08T12:00:00	2	Temperatura media	20.3
28434	7	Sololá	717	San Juan la Laguna	12	San Juan la Laguna	1	Enero	2023-02-01T00:00:00	2024-11-08T12:00:00	4	Temperatura máxima	21.4
28435	7	Sololá	717	San Juan la Laguna	12	San Juan la Laguna	1	Enero	2023-02-01T00:00:00	2024-11-08T12:00:00	3	Temperatura mínima	20.3
28436	7	Sololá	717	San Juan la Laguna	12	San Juan la Laguna	1	Enero	2023-02-01T00:00:00	2024-11-08T12:00:00	5	Humedad	66
28437	7	Sololá	717	San Juan la Laguna	12	San Juan la Laguna	1	Enero	2023-02-01T00:00:00	2024-11-08T12:00:00	6	Velocidad del viento	6.4
28438	7	Sololá	717	San Juan la Laguna	12	San Juan la Laguna	1	Enero	2023-02-01T00:00:00	2024-11-08T12:00:00	7	Dirección del viento	6.44
28439	7	Sololá	717	San Juan la Laguna	12	San Juan la Laguna	1	Enero	2023-02-01T00:00:00	2024-11-08T12:00:00	1	Precipitación	0
28440	7	Sololá	717	San Juan la Laguna	12	San Juan la Laguna	1	Enero	2023-02-01T00:00:00	2024-11-08T12:00:00	8	Radiación solar	670
28441	7	Sololá	717	San Juan la Laguna	12	San Juan la Laguna	1	Enero	2023-02-01T00:00:00	2024-11-08T13:00:00	2	Temperatura media	21
28442	7	Sololá	717	San Juan la Laguna	12	San Juan la Laguna	1	Enero	2023-02-01T00:00:00	2024-11-08T13:00:00	4	Temperatura máxima	21.8
28443	7	Sololá	717	San Juan la Laguna	12	San Juan la Laguna	1	Enero	2023-02-01T00:00:00	2024-11-08T13:00:00	3	Temperatura mínima	20.1
28444	7	Sololá	717	San Juan la Laguna	12	San Juan la Laguna	1	Enero	2023-02-01T00:00:00	2024-11-08T13:00:00	5	Humedad	69
28445	7	Sololá	717	San Juan la Laguna	12	San Juan la Laguna	1	Enero	2023-02-01T00:00:00	2024-11-08T13:00:00	6	Velocidad del viento	3.2
28446	7	Sololá	717	San Juan la Laguna	12	San Juan la Laguna	1	Enero	2023-02-01T00:00:00	2024-11-08T13:00:00	7	Dirección del viento	3.22
28447	7	Sololá	717	San Juan la Laguna	12	San Juan la Laguna	1	Enero	2023-02-01T00:00:00	2024-11-08T13:00:00	1	Precipitación	0
28448	7	Sololá	717	San Juan la Laguna	12	San Juan la Laguna	1	Enero	2023-02-01T00:00:00	2024-11-08T13:00:00	8	Radiación solar	494
28449	7	Sololá	717	San Juan la Laguna	12	San Juan la Laguna	1	Enero	2023-02-01T00:00:00	2024-11-08T14:00:00	2	Temperatura media	21.8
28450	7	Sololá	717	San Juan la Laguna	12	San Juan la Laguna	1	Enero	2023-02-01T00:00:00	2024-11-08T14:00:00	4	Temperatura máxima	22.2
28451	7	Sololá	717	San Juan la Laguna	12	San Juan la Laguna	1	Enero	2023-02-01T00:00:00	2024-11-08T14:00:00	3	Temperatura mínima	21
28452	7	Sololá	717	San Juan la Laguna	12	San Juan la Laguna	1	Enero	2023-02-01T00:00:00	2024-11-08T14:00:00	5	Humedad	68
28453	7	Sololá	717	San Juan la Laguna	12	San Juan la Laguna	1	Enero	2023-02-01T00:00:00	2024-11-08T14:00:00	6	Velocidad del viento	6.4
28454	7	Sololá	717	San Juan la Laguna	12	San Juan la Laguna	1	Enero	2023-02-01T00:00:00	2024-11-08T14:00:00	7	Dirección del viento	6.44
28455	7	Sololá	717	San Juan la Laguna	12	San Juan la Laguna	1	Enero	2023-02-01T00:00:00	2024-11-08T14:00:00	1	Precipitación	0
28456	7	Sololá	717	San Juan la Laguna	12	San Juan la Laguna	1	Enero	2023-02-01T00:00:00	2024-11-08T14:00:00	8	Radiación solar	682
28457	7	Sololá	717	San Juan la Laguna	12	San Juan la Laguna	1	Enero	2023-02-01T00:00:00	2024-11-08T15:00:00	2	Temperatura media	21.3
28458	7	Sololá	717	San Juan la Laguna	12	San Juan la Laguna	1	Enero	2023-02-01T00:00:00	2024-11-08T15:00:00	4	Temperatura máxima	21.8
28459	7	Sololá	717	San Juan la Laguna	12	San Juan la Laguna	1	Enero	2023-02-01T00:00:00	2024-11-08T15:00:00	3	Temperatura mínima	20.8
28460	7	Sololá	717	San Juan la Laguna	12	San Juan la Laguna	1	Enero	2023-02-01T00:00:00	2024-11-08T15:00:00	5	Humedad	70
28461	7	Sololá	717	San Juan la Laguna	12	San Juan la Laguna	1	Enero	2023-02-01T00:00:00	2024-11-08T15:00:00	6	Velocidad del viento	3.2
28462	7	Sololá	717	San Juan la Laguna	12	San Juan la Laguna	1	Enero	2023-02-01T00:00:00	2024-11-08T15:00:00	7	Dirección del viento	3.22
28463	7	Sololá	717	San Juan la Laguna	12	San Juan la Laguna	1	Enero	2023-02-01T00:00:00	2024-11-08T15:00:00	1	Precipitación	0
28464	7	Sololá	717	San Juan la Laguna	12	San Juan la Laguna	1	Enero	2023-02-01T00:00:00	2024-11-08T15:00:00	8	Radiación solar	467
28465	7	Sololá	717	San Juan la Laguna	12	San Juan la Laguna	1	Enero	2023-02-01T00:00:00	2024-11-08T16:00:00	2	Temperatura media	20.8
28466	7	Sololá	717	San Juan la Laguna	12	San Juan la Laguna	1	Enero	2023-02-01T00:00:00	2024-11-08T16:00:00	4	Temperatura máxima	21.4
28467	7	Sololá	717	San Juan la Laguna	12	San Juan la Laguna	1	Enero	2023-02-01T00:00:00	2024-11-08T16:00:00	3	Temperatura mínima	20.8
28468	7	Sololá	717	San Juan la Laguna	12	San Juan la Laguna	1	Enero	2023-02-01T00:00:00	2024-11-08T16:00:00	5	Humedad	73
28469	7	Sololá	717	San Juan la Laguna	12	San Juan la Laguna	1	Enero	2023-02-01T00:00:00	2024-11-08T16:00:00	6	Velocidad del viento	3.2
28470	7	Sololá	717	San Juan la Laguna	12	San Juan la Laguna	1	Enero	2023-02-01T00:00:00	2024-11-08T16:00:00	7	Dirección del viento	3.22
28471	7	Sololá	717	San Juan la Laguna	12	San Juan la Laguna	1	Enero	2023-02-01T00:00:00	2024-11-08T16:00:00	1	Precipitación	0
28472	7	Sololá	717	San Juan la Laguna	12	San Juan la Laguna	1	Enero	2023-02-01T00:00:00	2024-11-08T16:00:00	8	Radiación solar	261
28473	7	Sololá	717	San Juan la Laguna	12	San Juan la Laguna	1	Enero	2023-02-01T00:00:00	2024-11-08T17:00:00	2	Temperatura media	19.9
28474	7	Sololá	717	San Juan la Laguna	12	San Juan la Laguna	1	Enero	2023-02-01T00:00:00	2024-11-08T17:00:00	4	Temperatura máxima	20.8
28475	7	Sololá	717	San Juan la Laguna	12	San Juan la Laguna	1	Enero	2023-02-01T00:00:00	2024-11-08T17:00:00	3	Temperatura mínima	19.9
28476	7	Sololá	717	San Juan la Laguna	12	San Juan la Laguna	1	Enero	2023-02-01T00:00:00	2024-11-08T17:00:00	5	Humedad	76
28477	7	Sololá	717	San Juan la Laguna	12	San Juan la Laguna	1	Enero	2023-02-01T00:00:00	2024-11-08T17:00:00	6	Velocidad del viento	3.2
28478	7	Sololá	717	San Juan la Laguna	12	San Juan la Laguna	1	Enero	2023-02-01T00:00:00	2024-11-08T17:00:00	7	Dirección del viento	3.22
28479	7	Sololá	717	San Juan la Laguna	12	San Juan la Laguna	1	Enero	2023-02-01T00:00:00	2024-11-08T17:00:00	1	Precipitación	0
28480	7	Sololá	717	San Juan la Laguna	12	San Juan la Laguna	1	Enero	2023-02-01T00:00:00	2024-11-08T17:00:00	8	Radiación solar	160
28481	7	Sololá	717	San Juan la Laguna	12	San Juan la Laguna	1	Enero	2023-02-01T00:00:00	2024-11-08T18:00:00	2	Temperatura media	19.1
28482	7	Sololá	717	San Juan la Laguna	12	San Juan la Laguna	1	Enero	2023-02-01T00:00:00	2024-11-08T18:00:00	4	Temperatura máxima	19.9
28483	7	Sololá	717	San Juan la Laguna	12	San Juan la Laguna	1	Enero	2023-02-01T00:00:00	2024-11-08T18:00:00	3	Temperatura mínima	19.1
28484	7	Sololá	717	San Juan la Laguna	12	San Juan la Laguna	1	Enero	2023-02-01T00:00:00	2024-11-08T18:00:00	5	Humedad	80
28485	7	Sololá	717	San Juan la Laguna	12	San Juan la Laguna	1	Enero	2023-02-01T00:00:00	2024-11-08T18:00:00	6	Velocidad del viento	1.6
28486	7	Sololá	717	San Juan la Laguna	12	San Juan la Laguna	1	Enero	2023-02-01T00:00:00	2024-11-08T18:00:00	7	Dirección del viento	1.61
28487	7	Sololá	717	San Juan la Laguna	12	San Juan la Laguna	1	Enero	2023-02-01T00:00:00	2024-11-08T18:00:00	1	Precipitación	0
28488	7	Sololá	717	San Juan la Laguna	12	San Juan la Laguna	1	Enero	2023-02-01T00:00:00	2024-11-08T18:00:00	8	Radiación solar	19
28489	7	Sololá	717	San Juan la Laguna	12	San Juan la Laguna	1	Enero	2023-02-01T00:00:00	2024-11-08T19:00:00	2	Temperatura media	17.7
28490	7	Sololá	717	San Juan la Laguna	12	San Juan la Laguna	1	Enero	2023-02-01T00:00:00	2024-11-08T19:00:00	4	Temperatura máxima	19.1
28491	7	Sololá	717	San Juan la Laguna	12	San Juan la Laguna	1	Enero	2023-02-01T00:00:00	2024-11-08T19:00:00	3	Temperatura mínima	17.7
28492	7	Sololá	717	San Juan la Laguna	12	San Juan la Laguna	1	Enero	2023-02-01T00:00:00	2024-11-08T19:00:00	5	Humedad	85
28493	7	Sololá	717	San Juan la Laguna	12	San Juan la Laguna	1	Enero	2023-02-01T00:00:00	2024-11-08T19:00:00	6	Velocidad del viento	0
28494	7	Sololá	717	San Juan la Laguna	12	San Juan la Laguna	1	Enero	2023-02-01T00:00:00	2024-11-08T19:00:00	7	Dirección del viento	0
28495	7	Sololá	717	San Juan la Laguna	12	San Juan la Laguna	1	Enero	2023-02-01T00:00:00	2024-11-08T19:00:00	1	Precipitación	0
28496	7	Sololá	717	San Juan la Laguna	12	San Juan la Laguna	1	Enero	2023-02-01T00:00:00	2024-11-08T19:00:00	8	Radiación solar	0
28497	7	Sololá	717	San Juan la Laguna	12	San Juan la Laguna	1	Enero	2023-02-01T00:00:00	2024-11-08T20:00:00	2	Temperatura media	17.3
28498	7	Sololá	717	San Juan la Laguna	12	San Juan la Laguna	1	Enero	2023-02-01T00:00:00	2024-11-08T20:00:00	4	Temperatura máxima	17.9
28499	7	Sololá	717	San Juan la Laguna	12	San Juan la Laguna	1	Enero	2023-02-01T00:00:00	2024-11-08T20:00:00	3	Temperatura mínima	17.3
28500	7	Sololá	717	San Juan la Laguna	12	San Juan la Laguna	1	Enero	2023-02-01T00:00:00	2024-11-08T20:00:00	5	Humedad	87
28501	7	Sololá	717	San Juan la Laguna	12	San Juan la Laguna	1	Enero	2023-02-01T00:00:00	2024-11-08T20:00:00	6	Velocidad del viento	0
28502	7	Sololá	717	San Juan la Laguna	12	San Juan la Laguna	1	Enero	2023-02-01T00:00:00	2024-11-08T20:00:00	7	Dirección del viento	0
28503	7	Sololá	717	San Juan la Laguna	12	San Juan la Laguna	1	Enero	2023-02-01T00:00:00	2024-11-08T20:00:00	1	Precipitación	0
28504	7	Sololá	717	San Juan la Laguna	12	San Juan la Laguna	1	Enero	2023-02-01T00:00:00	2024-11-08T20:00:00	8	Radiación solar	0
28505	7	Sololá	717	San Juan la Laguna	12	San Juan la Laguna	1	Enero	2023-02-01T00:00:00	2024-11-08T21:00:00	2	Temperatura media	16.7
28506	7	Sololá	717	San Juan la Laguna	12	San Juan la Laguna	1	Enero	2023-02-01T00:00:00	2024-11-08T21:00:00	4	Temperatura máxima	17.3
28507	7	Sololá	717	San Juan la Laguna	12	San Juan la Laguna	1	Enero	2023-02-01T00:00:00	2024-11-08T21:00:00	3	Temperatura mínima	16.7
28508	7	Sololá	717	San Juan la Laguna	12	San Juan la Laguna	1	Enero	2023-02-01T00:00:00	2024-11-08T21:00:00	5	Humedad	88
28509	7	Sololá	717	San Juan la Laguna	12	San Juan la Laguna	1	Enero	2023-02-01T00:00:00	2024-11-08T21:00:00	6	Velocidad del viento	0
28510	7	Sololá	717	San Juan la Laguna	12	San Juan la Laguna	1	Enero	2023-02-01T00:00:00	2024-11-08T21:00:00	7	Dirección del viento	0
28511	7	Sololá	717	San Juan la Laguna	12	San Juan la Laguna	1	Enero	2023-02-01T00:00:00	2024-11-08T21:00:00	1	Precipitación	0
28512	7	Sololá	717	San Juan la Laguna	12	San Juan la Laguna	1	Enero	2023-02-01T00:00:00	2024-11-08T21:00:00	8	Radiación solar	0
28513	7	Sololá	717	San Juan la Laguna	12	San Juan la Laguna	1	Enero	2023-02-01T00:00:00	2024-11-08T22:00:00	2	Temperatura media	16
28514	7	Sololá	717	San Juan la Laguna	12	San Juan la Laguna	1	Enero	2023-02-01T00:00:00	2024-11-08T22:00:00	4	Temperatura máxima	16.7
28515	7	Sololá	717	San Juan la Laguna	12	San Juan la Laguna	1	Enero	2023-02-01T00:00:00	2024-11-08T22:00:00	3	Temperatura mínima	16
28516	7	Sololá	717	San Juan la Laguna	12	San Juan la Laguna	1	Enero	2023-02-01T00:00:00	2024-11-08T22:00:00	5	Humedad	86
28517	7	Sololá	717	San Juan la Laguna	12	San Juan la Laguna	1	Enero	2023-02-01T00:00:00	2024-11-08T22:00:00	6	Velocidad del viento	0
28518	7	Sololá	717	San Juan la Laguna	12	San Juan la Laguna	1	Enero	2023-02-01T00:00:00	2024-11-08T22:00:00	7	Dirección del viento	0
28519	7	Sololá	717	San Juan la Laguna	12	San Juan la Laguna	1	Enero	2023-02-01T00:00:00	2024-11-08T22:00:00	1	Precipitación	0
28520	7	Sololá	717	San Juan la Laguna	12	San Juan la Laguna	1	Enero	2023-02-01T00:00:00	2024-11-08T22:00:00	8	Radiación solar	0
28521	7	Sololá	717	San Juan la Laguna	12	San Juan la Laguna	1	Enero	2023-02-01T00:00:00	2024-11-08T23:00:00	2	Temperatura media	16.2
28522	7	Sololá	717	San Juan la Laguna	12	San Juan la Laguna	1	Enero	2023-02-01T00:00:00	2024-11-08T23:00:00	4	Temperatura máxima	16.6
28523	7	Sololá	717	San Juan la Laguna	12	San Juan la Laguna	1	Enero	2023-02-01T00:00:00	2024-11-08T23:00:00	3	Temperatura mínima	15.9
28524	7	Sololá	717	San Juan la Laguna	12	San Juan la Laguna	1	Enero	2023-02-01T00:00:00	2024-11-08T23:00:00	5	Humedad	82
28525	7	Sololá	717	San Juan la Laguna	12	San Juan la Laguna	1	Enero	2023-02-01T00:00:00	2024-11-08T23:00:00	6	Velocidad del viento	1.6
28526	7	Sololá	717	San Juan la Laguna	12	San Juan la Laguna	1	Enero	2023-02-01T00:00:00	2024-11-08T23:00:00	7	Dirección del viento	1.61
28527	7	Sololá	717	San Juan la Laguna	12	San Juan la Laguna	1	Enero	2023-02-01T00:00:00	2024-11-08T23:00:00	1	Precipitación	0
28528	7	Sololá	717	San Juan la Laguna	12	San Juan la Laguna	1	Enero	2023-02-01T00:00:00	2024-11-08T23:00:00	8	Radiación solar	0
28529	7	Sololá	717	San Juan la Laguna	12	San Juan la Laguna	1	Enero	2023-03-01T00:00:00	2024-11-08T00:00:00	2	Temperatura media	14.9
28530	7	Sololá	717	San Juan la Laguna	12	San Juan la Laguna	1	Enero	2023-03-01T00:00:00	2024-11-08T00:00:00	4	Temperatura máxima	16.2
28531	7	Sololá	717	San Juan la Laguna	12	San Juan la Laguna	1	Enero	2023-03-01T00:00:00	2024-11-08T00:00:00	3	Temperatura mínima	14.9
28532	7	Sololá	717	San Juan la Laguna	12	San Juan la Laguna	1	Enero	2023-03-01T00:00:00	2024-11-08T00:00:00	5	Humedad	85
28533	7	Sololá	717	San Juan la Laguna	12	San Juan la Laguna	1	Enero	2023-03-01T00:00:00	2024-11-08T00:00:00	6	Velocidad del viento	1.6
28534	7	Sololá	717	San Juan la Laguna	12	San Juan la Laguna	1	Enero	2023-03-01T00:00:00	2024-11-08T00:00:00	7	Dirección del viento	1.61
28535	7	Sololá	717	San Juan la Laguna	12	San Juan la Laguna	1	Enero	2023-03-01T00:00:00	2024-11-08T00:00:00	1	Precipitación	0
28536	7	Sololá	717	San Juan la Laguna	12	San Juan la Laguna	1	Enero	2023-03-01T00:00:00	2024-11-08T00:00:00	8	Radiación solar	0
28537	7	Sololá	717	San Juan la Laguna	12	San Juan la Laguna	1	Enero	2023-03-01T00:00:00	2024-11-08T01:00:00	2	Temperatura media	14.4
28538	7	Sololá	717	San Juan la Laguna	12	San Juan la Laguna	1	Enero	2023-03-01T00:00:00	2024-11-08T01:00:00	4	Temperatura máxima	14.9
28539	7	Sololá	717	San Juan la Laguna	12	San Juan la Laguna	1	Enero	2023-03-01T00:00:00	2024-11-08T01:00:00	3	Temperatura mínima	14.4
28540	7	Sololá	717	San Juan la Laguna	12	San Juan la Laguna	1	Enero	2023-03-01T00:00:00	2024-11-08T01:00:00	5	Humedad	86
28541	7	Sololá	717	San Juan la Laguna	12	San Juan la Laguna	1	Enero	2023-03-01T00:00:00	2024-11-08T01:00:00	6	Velocidad del viento	1.6
28542	7	Sololá	717	San Juan la Laguna	12	San Juan la Laguna	1	Enero	2023-03-01T00:00:00	2024-11-08T01:00:00	7	Dirección del viento	1.61
28543	7	Sololá	717	San Juan la Laguna	12	San Juan la Laguna	1	Enero	2023-03-01T00:00:00	2024-11-08T01:00:00	1	Precipitación	0
28544	7	Sololá	717	San Juan la Laguna	12	San Juan la Laguna	1	Enero	2023-03-01T00:00:00	2024-11-08T01:00:00	8	Radiación solar	0
28545	7	Sololá	717	San Juan la Laguna	12	San Juan la Laguna	1	Enero	2023-03-01T00:00:00	2024-11-08T02:00:00	2	Temperatura media	13.8
28546	7	Sololá	717	San Juan la Laguna	12	San Juan la Laguna	1	Enero	2023-03-01T00:00:00	2024-11-08T02:00:00	4	Temperatura máxima	14.4
28547	7	Sololá	717	San Juan la Laguna	12	San Juan la Laguna	1	Enero	2023-03-01T00:00:00	2024-11-08T02:00:00	3	Temperatura mínima	13.8
28548	7	Sololá	717	San Juan la Laguna	12	San Juan la Laguna	1	Enero	2023-03-01T00:00:00	2024-11-08T02:00:00	5	Humedad	86
28549	7	Sololá	717	San Juan la Laguna	12	San Juan la Laguna	1	Enero	2023-03-01T00:00:00	2024-11-08T02:00:00	6	Velocidad del viento	1.6
28550	7	Sololá	717	San Juan la Laguna	12	San Juan la Laguna	1	Enero	2023-03-01T00:00:00	2024-11-08T02:00:00	7	Dirección del viento	1.61
28551	7	Sololá	717	San Juan la Laguna	12	San Juan la Laguna	1	Enero	2023-03-01T00:00:00	2024-11-08T02:00:00	1	Precipitación	0
28552	7	Sololá	717	San Juan la Laguna	12	San Juan la Laguna	1	Enero	2023-03-01T00:00:00	2024-11-08T02:00:00	8	Radiación solar	0
28553	7	Sololá	717	San Juan la Laguna	12	San Juan la Laguna	1	Enero	2023-03-01T00:00:00	2024-11-08T03:00:00	2	Temperatura media	13.4
28554	7	Sololá	717	San Juan la Laguna	12	San Juan la Laguna	1	Enero	2023-03-01T00:00:00	2024-11-08T03:00:00	4	Temperatura máxima	13.8
28555	7	Sololá	717	San Juan la Laguna	12	San Juan la Laguna	1	Enero	2023-03-01T00:00:00	2024-11-08T03:00:00	3	Temperatura mínima	13.4
28556	7	Sololá	717	San Juan la Laguna	12	San Juan la Laguna	1	Enero	2023-03-01T00:00:00	2024-11-08T03:00:00	5	Humedad	87
28557	7	Sololá	717	San Juan la Laguna	12	San Juan la Laguna	1	Enero	2023-03-01T00:00:00	2024-11-08T03:00:00	6	Velocidad del viento	1.6
28558	7	Sololá	717	San Juan la Laguna	12	San Juan la Laguna	1	Enero	2023-03-01T00:00:00	2024-11-08T03:00:00	7	Dirección del viento	1.61
28559	7	Sololá	717	San Juan la Laguna	12	San Juan la Laguna	1	Enero	2023-03-01T00:00:00	2024-11-08T03:00:00	1	Precipitación	0
28560	7	Sololá	717	San Juan la Laguna	12	San Juan la Laguna	1	Enero	2023-03-01T00:00:00	2024-11-08T03:00:00	8	Radiación solar	0
28561	7	Sololá	717	San Juan la Laguna	12	San Juan la Laguna	1	Enero	2023-03-01T00:00:00	2024-11-08T04:00:00	2	Temperatura media	13.2
28562	7	Sololá	717	San Juan la Laguna	12	San Juan la Laguna	1	Enero	2023-03-01T00:00:00	2024-11-08T04:00:00	4	Temperatura máxima	13.4
28563	7	Sololá	717	San Juan la Laguna	12	San Juan la Laguna	1	Enero	2023-03-01T00:00:00	2024-11-08T04:00:00	3	Temperatura mínima	13.1
28564	7	Sololá	717	San Juan la Laguna	12	San Juan la Laguna	1	Enero	2023-03-01T00:00:00	2024-11-08T04:00:00	5	Humedad	84
28565	7	Sololá	717	San Juan la Laguna	12	San Juan la Laguna	1	Enero	2023-03-01T00:00:00	2024-11-08T04:00:00	6	Velocidad del viento	3.2
28566	7	Sololá	717	San Juan la Laguna	12	San Juan la Laguna	1	Enero	2023-03-01T00:00:00	2024-11-08T04:00:00	7	Dirección del viento	3.22
28567	7	Sololá	717	San Juan la Laguna	12	San Juan la Laguna	1	Enero	2023-03-01T00:00:00	2024-11-08T04:00:00	1	Precipitación	0
28568	7	Sololá	717	San Juan la Laguna	12	San Juan la Laguna	1	Enero	2023-03-01T00:00:00	2024-11-08T04:00:00	8	Radiación solar	0
28569	7	Sololá	717	San Juan la Laguna	12	San Juan la Laguna	1	Enero	2023-03-01T00:00:00	2024-11-08T05:00:00	2	Temperatura media	12.5
28570	7	Sololá	717	San Juan la Laguna	12	San Juan la Laguna	1	Enero	2023-03-01T00:00:00	2024-11-08T05:00:00	4	Temperatura máxima	13.2
28571	7	Sololá	717	San Juan la Laguna	12	San Juan la Laguna	1	Enero	2023-03-01T00:00:00	2024-11-08T05:00:00	3	Temperatura mínima	12.4
28572	7	Sololá	717	San Juan la Laguna	12	San Juan la Laguna	1	Enero	2023-03-01T00:00:00	2024-11-08T05:00:00	5	Humedad	86
28573	7	Sololá	717	San Juan la Laguna	12	San Juan la Laguna	1	Enero	2023-03-01T00:00:00	2024-11-08T05:00:00	6	Velocidad del viento	3.2
28574	7	Sololá	717	San Juan la Laguna	12	San Juan la Laguna	1	Enero	2023-03-01T00:00:00	2024-11-08T05:00:00	7	Dirección del viento	3.22
28575	7	Sololá	717	San Juan la Laguna	12	San Juan la Laguna	1	Enero	2023-03-01T00:00:00	2024-11-08T05:00:00	1	Precipitación	0
28576	7	Sololá	717	San Juan la Laguna	12	San Juan la Laguna	1	Enero	2023-03-01T00:00:00	2024-11-08T05:00:00	8	Radiación solar	0
28577	7	Sololá	717	San Juan la Laguna	12	San Juan la Laguna	1	Enero	2023-03-01T00:00:00	2024-11-08T06:00:00	2	Temperatura media	12.7
28578	7	Sololá	717	San Juan la Laguna	12	San Juan la Laguna	1	Enero	2023-03-01T00:00:00	2024-11-08T06:00:00	4	Temperatura máxima	12.7
28579	7	Sololá	717	San Juan la Laguna	12	San Juan la Laguna	1	Enero	2023-03-01T00:00:00	2024-11-08T06:00:00	3	Temperatura mínima	12.4
28580	7	Sololá	717	San Juan la Laguna	12	San Juan la Laguna	1	Enero	2023-03-01T00:00:00	2024-11-08T06:00:00	5	Humedad	83
28581	7	Sololá	717	San Juan la Laguna	12	San Juan la Laguna	1	Enero	2023-03-01T00:00:00	2024-11-08T06:00:00	6	Velocidad del viento	4.8
28582	7	Sololá	717	San Juan la Laguna	12	San Juan la Laguna	1	Enero	2023-03-01T00:00:00	2024-11-08T06:00:00	7	Dirección del viento	4.83
28583	7	Sololá	717	San Juan la Laguna	12	San Juan la Laguna	1	Enero	2023-03-01T00:00:00	2024-11-08T06:00:00	1	Precipitación	0
28584	7	Sololá	717	San Juan la Laguna	12	San Juan la Laguna	1	Enero	2023-03-01T00:00:00	2024-11-08T06:00:00	8	Radiación solar	0
28585	7	Sololá	717	San Juan la Laguna	12	San Juan la Laguna	1	Enero	2023-03-01T00:00:00	2024-11-08T07:00:00	2	Temperatura media	12.2
28586	7	Sololá	717	San Juan la Laguna	12	San Juan la Laguna	1	Enero	2023-03-01T00:00:00	2024-11-08T07:00:00	4	Temperatura máxima	12.7
28587	7	Sololá	717	San Juan la Laguna	12	San Juan la Laguna	1	Enero	2023-03-01T00:00:00	2024-11-08T07:00:00	3	Temperatura mínima	11.6
28588	7	Sololá	717	San Juan la Laguna	12	San Juan la Laguna	1	Enero	2023-03-01T00:00:00	2024-11-08T07:00:00	5	Humedad	83
28589	7	Sololá	717	San Juan la Laguna	12	San Juan la Laguna	1	Enero	2023-03-01T00:00:00	2024-11-08T07:00:00	6	Velocidad del viento	1.6
28590	7	Sololá	717	San Juan la Laguna	12	San Juan la Laguna	1	Enero	2023-03-01T00:00:00	2024-11-08T07:00:00	7	Dirección del viento	1.61
28591	7	Sololá	717	San Juan la Laguna	12	San Juan la Laguna	1	Enero	2023-03-01T00:00:00	2024-11-08T07:00:00	1	Precipitación	0
28592	7	Sololá	717	San Juan la Laguna	12	San Juan la Laguna	1	Enero	2023-03-01T00:00:00	2024-11-08T07:00:00	8	Radiación solar	6
28593	7	Sololá	717	San Juan la Laguna	12	San Juan la Laguna	1	Enero	2023-03-01T00:00:00	2024-11-08T08:00:00	2	Temperatura media	14.9
28594	7	Sololá	717	San Juan la Laguna	12	San Juan la Laguna	1	Enero	2023-03-01T00:00:00	2024-11-08T08:00:00	4	Temperatura máxima	14.9
28595	7	Sololá	717	San Juan la Laguna	12	San Juan la Laguna	1	Enero	2023-03-01T00:00:00	2024-11-08T08:00:00	3	Temperatura mínima	12.2
28596	7	Sololá	717	San Juan la Laguna	12	San Juan la Laguna	1	Enero	2023-03-01T00:00:00	2024-11-08T08:00:00	5	Humedad	77
28597	7	Sololá	717	San Juan la Laguna	12	San Juan la Laguna	1	Enero	2023-03-01T00:00:00	2024-11-08T08:00:00	6	Velocidad del viento	1.6
28598	7	Sololá	717	San Juan la Laguna	12	San Juan la Laguna	1	Enero	2023-03-01T00:00:00	2024-11-08T08:00:00	7	Dirección del viento	1.61
28599	7	Sololá	717	San Juan la Laguna	12	San Juan la Laguna	1	Enero	2023-03-01T00:00:00	2024-11-08T08:00:00	1	Precipitación	0
28600	7	Sololá	717	San Juan la Laguna	12	San Juan la Laguna	1	Enero	2023-03-01T00:00:00	2024-11-08T08:00:00	8	Radiación solar	131
28601	7	Sololá	717	San Juan la Laguna	12	San Juan la Laguna	1	Enero	2023-03-01T00:00:00	2024-11-08T09:00:00	2	Temperatura media	17.2
28602	7	Sololá	717	San Juan la Laguna	12	San Juan la Laguna	1	Enero	2023-03-01T00:00:00	2024-11-08T09:00:00	4	Temperatura máxima	17.6
28603	7	Sololá	717	San Juan la Laguna	12	San Juan la Laguna	1	Enero	2023-03-01T00:00:00	2024-11-08T09:00:00	3	Temperatura mínima	14.9
28604	7	Sololá	717	San Juan la Laguna	12	San Juan la Laguna	1	Enero	2023-03-01T00:00:00	2024-11-08T09:00:00	5	Humedad	77
28605	7	Sololá	717	San Juan la Laguna	12	San Juan la Laguna	1	Enero	2023-03-01T00:00:00	2024-11-08T09:00:00	6	Velocidad del viento	0
28606	7	Sololá	717	San Juan la Laguna	12	San Juan la Laguna	1	Enero	2023-03-01T00:00:00	2024-11-08T09:00:00	7	Dirección del viento	0
28607	7	Sololá	717	San Juan la Laguna	12	San Juan la Laguna	1	Enero	2023-03-01T00:00:00	2024-11-08T09:00:00	1	Precipitación	0
28608	7	Sololá	717	San Juan la Laguna	12	San Juan la Laguna	1	Enero	2023-03-01T00:00:00	2024-11-08T09:00:00	8	Radiación solar	214
28609	7	Sololá	717	San Juan la Laguna	12	San Juan la Laguna	1	Enero	2023-03-01T00:00:00	2024-11-08T10:00:00	2	Temperatura media	19.3
28610	7	Sololá	717	San Juan la Laguna	12	San Juan la Laguna	1	Enero	2023-03-01T00:00:00	2024-11-08T10:00:00	4	Temperatura máxima	19.4
28611	7	Sololá	717	San Juan la Laguna	12	San Juan la Laguna	1	Enero	2023-03-01T00:00:00	2024-11-08T10:00:00	3	Temperatura mínima	17.1
28612	7	Sololá	717	San Juan la Laguna	12	San Juan la Laguna	1	Enero	2023-03-01T00:00:00	2024-11-08T10:00:00	5	Humedad	73
28613	7	Sololá	717	San Juan la Laguna	12	San Juan la Laguna	1	Enero	2023-03-01T00:00:00	2024-11-08T10:00:00	6	Velocidad del viento	1.6
28614	7	Sololá	717	San Juan la Laguna	12	San Juan la Laguna	1	Enero	2023-03-01T00:00:00	2024-11-08T10:00:00	7	Dirección del viento	1.61
28615	7	Sololá	717	San Juan la Laguna	12	San Juan la Laguna	1	Enero	2023-03-01T00:00:00	2024-11-08T10:00:00	1	Precipitación	0
28616	7	Sololá	717	San Juan la Laguna	12	San Juan la Laguna	1	Enero	2023-03-01T00:00:00	2024-11-08T10:00:00	8	Radiación solar	409
28617	7	Sololá	717	San Juan la Laguna	12	San Juan la Laguna	1	Enero	2023-03-01T00:00:00	2024-11-08T11:00:00	2	Temperatura media	20.1
28618	7	Sololá	717	San Juan la Laguna	12	San Juan la Laguna	1	Enero	2023-03-01T00:00:00	2024-11-08T11:00:00	4	Temperatura máxima	20.1
28619	7	Sololá	717	San Juan la Laguna	12	San Juan la Laguna	1	Enero	2023-03-01T00:00:00	2024-11-08T11:00:00	3	Temperatura mínima	18.8
28620	7	Sololá	717	San Juan la Laguna	12	San Juan la Laguna	1	Enero	2023-03-01T00:00:00	2024-11-08T11:00:00	5	Humedad	67
28621	7	Sololá	717	San Juan la Laguna	12	San Juan la Laguna	1	Enero	2023-03-01T00:00:00	2024-11-08T11:00:00	6	Velocidad del viento	1.6
28622	7	Sololá	717	San Juan la Laguna	12	San Juan la Laguna	1	Enero	2023-03-01T00:00:00	2024-11-08T11:00:00	7	Dirección del viento	1.61
28623	7	Sololá	717	San Juan la Laguna	12	San Juan la Laguna	1	Enero	2023-03-01T00:00:00	2024-11-08T11:00:00	1	Precipitación	0
28624	7	Sololá	717	San Juan la Laguna	12	San Juan la Laguna	1	Enero	2023-03-01T00:00:00	2024-11-08T11:00:00	8	Radiación solar	527
28625	7	Sololá	717	San Juan la Laguna	12	San Juan la Laguna	1	Enero	2023-03-01T00:00:00	2024-11-08T12:00:00	2	Temperatura media	20.2
28626	7	Sololá	717	San Juan la Laguna	12	San Juan la Laguna	1	Enero	2023-03-01T00:00:00	2024-11-08T12:00:00	4	Temperatura máxima	20.4
28627	7	Sololá	717	San Juan la Laguna	12	San Juan la Laguna	1	Enero	2023-03-01T00:00:00	2024-11-08T12:00:00	3	Temperatura mínima	19.1
28628	7	Sololá	717	San Juan la Laguna	12	San Juan la Laguna	1	Enero	2023-03-01T00:00:00	2024-11-08T12:00:00	5	Humedad	64
28629	7	Sololá	717	San Juan la Laguna	12	San Juan la Laguna	1	Enero	2023-03-01T00:00:00	2024-11-08T12:00:00	6	Velocidad del viento	1.6
28630	7	Sololá	717	San Juan la Laguna	12	San Juan la Laguna	1	Enero	2023-03-01T00:00:00	2024-11-08T12:00:00	7	Dirección del viento	1.61
28631	7	Sololá	717	San Juan la Laguna	12	San Juan la Laguna	1	Enero	2023-03-01T00:00:00	2024-11-08T12:00:00	1	Precipitación	0
28632	7	Sololá	717	San Juan la Laguna	12	San Juan la Laguna	1	Enero	2023-03-01T00:00:00	2024-11-08T12:00:00	8	Radiación solar	382
28633	7	Sololá	717	San Juan la Laguna	12	San Juan la Laguna	1	Enero	2023-03-01T00:00:00	2024-11-08T13:00:00	2	Temperatura media	20.9
28634	7	Sololá	717	San Juan la Laguna	12	San Juan la Laguna	1	Enero	2023-03-01T00:00:00	2024-11-08T13:00:00	4	Temperatura máxima	21.2
28635	7	Sololá	717	San Juan la Laguna	12	San Juan la Laguna	1	Enero	2023-03-01T00:00:00	2024-11-08T13:00:00	3	Temperatura mínima	20.1
28636	7	Sololá	717	San Juan la Laguna	12	San Juan la Laguna	1	Enero	2023-03-01T00:00:00	2024-11-08T13:00:00	5	Humedad	60
28637	7	Sololá	717	San Juan la Laguna	12	San Juan la Laguna	1	Enero	2023-03-01T00:00:00	2024-11-08T13:00:00	6	Velocidad del viento	3.2
28638	7	Sololá	717	San Juan la Laguna	12	San Juan la Laguna	1	Enero	2023-03-01T00:00:00	2024-11-08T13:00:00	7	Dirección del viento	3.22
28639	7	Sololá	717	San Juan la Laguna	12	San Juan la Laguna	1	Enero	2023-03-01T00:00:00	2024-11-08T13:00:00	1	Precipitación	0
28640	7	Sololá	717	San Juan la Laguna	12	San Juan la Laguna	1	Enero	2023-03-01T00:00:00	2024-11-08T13:00:00	8	Radiación solar	538
28641	7	Sololá	717	San Juan la Laguna	12	San Juan la Laguna	1	Enero	2023-03-01T00:00:00	2024-11-08T14:00:00	2	Temperatura media	21.7
28642	7	Sololá	717	San Juan la Laguna	12	San Juan la Laguna	1	Enero	2023-03-01T00:00:00	2024-11-08T14:00:00	4	Temperatura máxima	21.7
28643	7	Sololá	717	San Juan la Laguna	12	San Juan la Laguna	1	Enero	2023-03-01T00:00:00	2024-11-08T14:00:00	3	Temperatura mínima	20.8
28644	7	Sololá	717	San Juan la Laguna	12	San Juan la Laguna	1	Enero	2023-03-01T00:00:00	2024-11-08T14:00:00	5	Humedad	64
28645	7	Sololá	717	San Juan la Laguna	12	San Juan la Laguna	1	Enero	2023-03-01T00:00:00	2024-11-08T14:00:00	6	Velocidad del viento	4.8
28646	7	Sololá	717	San Juan la Laguna	12	San Juan la Laguna	1	Enero	2023-03-01T00:00:00	2024-11-08T14:00:00	7	Dirección del viento	4.83
28647	7	Sololá	717	San Juan la Laguna	12	San Juan la Laguna	1	Enero	2023-03-01T00:00:00	2024-11-08T14:00:00	1	Precipitación	0
28648	7	Sololá	717	San Juan la Laguna	12	San Juan la Laguna	1	Enero	2023-03-01T00:00:00	2024-11-08T14:00:00	8	Radiación solar	710
28649	7	Sololá	717	San Juan la Laguna	12	San Juan la Laguna	1	Enero	2023-03-01T00:00:00	2024-11-08T15:00:00	2	Temperatura media	21.5
28650	7	Sololá	717	San Juan la Laguna	12	San Juan la Laguna	1	Enero	2023-03-01T00:00:00	2024-11-08T15:00:00	4	Temperatura máxima	21.9
28651	7	Sololá	717	San Juan la Laguna	12	San Juan la Laguna	1	Enero	2023-03-01T00:00:00	2024-11-08T15:00:00	3	Temperatura mínima	21.2
28652	7	Sololá	717	San Juan la Laguna	12	San Juan la Laguna	1	Enero	2023-03-01T00:00:00	2024-11-08T15:00:00	5	Humedad	70
28653	7	Sololá	717	San Juan la Laguna	12	San Juan la Laguna	1	Enero	2023-03-01T00:00:00	2024-11-08T15:00:00	6	Velocidad del viento	4.8
28654	7	Sololá	717	San Juan la Laguna	12	San Juan la Laguna	1	Enero	2023-03-01T00:00:00	2024-11-08T15:00:00	7	Dirección del viento	4.83
28655	7	Sololá	717	San Juan la Laguna	12	San Juan la Laguna	1	Enero	2023-03-01T00:00:00	2024-11-08T15:00:00	1	Precipitación	0
28656	7	Sololá	717	San Juan la Laguna	12	San Juan la Laguna	1	Enero	2023-03-01T00:00:00	2024-11-08T15:00:00	8	Radiación solar	589
28657	7	Sololá	717	San Juan la Laguna	12	San Juan la Laguna	1	Enero	2023-03-01T00:00:00	2024-11-08T16:00:00	2	Temperatura media	21.3
28658	7	Sololá	717	San Juan la Laguna	12	San Juan la Laguna	1	Enero	2023-03-01T00:00:00	2024-11-08T16:00:00	4	Temperatura máxima	21.9
28659	7	Sololá	717	San Juan la Laguna	12	San Juan la Laguna	1	Enero	2023-03-01T00:00:00	2024-11-08T16:00:00	3	Temperatura mínima	21.3
28660	7	Sololá	717	San Juan la Laguna	12	San Juan la Laguna	1	Enero	2023-03-01T00:00:00	2024-11-08T16:00:00	5	Humedad	71
28661	7	Sololá	717	San Juan la Laguna	12	San Juan la Laguna	1	Enero	2023-03-01T00:00:00	2024-11-08T16:00:00	6	Velocidad del viento	8
28662	7	Sololá	717	San Juan la Laguna	12	San Juan la Laguna	1	Enero	2023-03-01T00:00:00	2024-11-08T16:00:00	7	Dirección del viento	8.05
28663	7	Sololá	717	San Juan la Laguna	12	San Juan la Laguna	1	Enero	2023-03-01T00:00:00	2024-11-08T16:00:00	1	Precipitación	0
28664	7	Sololá	717	San Juan la Laguna	12	San Juan la Laguna	1	Enero	2023-03-01T00:00:00	2024-11-08T16:00:00	8	Radiación solar	423
28665	7	Sololá	717	San Juan la Laguna	12	San Juan la Laguna	1	Enero	2023-03-01T00:00:00	2024-11-08T17:00:00	2	Temperatura media	18.9
28666	7	Sololá	717	San Juan la Laguna	12	San Juan la Laguna	1	Enero	2023-03-01T00:00:00	2024-11-08T17:00:00	4	Temperatura máxima	21.3
28667	7	Sololá	717	San Juan la Laguna	12	San Juan la Laguna	1	Enero	2023-03-01T00:00:00	2024-11-08T17:00:00	3	Temperatura mínima	18.9
28668	7	Sololá	717	San Juan la Laguna	12	San Juan la Laguna	1	Enero	2023-03-01T00:00:00	2024-11-08T17:00:00	5	Humedad	83
28669	7	Sololá	717	San Juan la Laguna	12	San Juan la Laguna	1	Enero	2023-03-01T00:00:00	2024-11-08T17:00:00	6	Velocidad del viento	8
28670	7	Sololá	717	San Juan la Laguna	12	San Juan la Laguna	1	Enero	2023-03-01T00:00:00	2024-11-08T17:00:00	7	Dirección del viento	8.05
28671	7	Sololá	717	San Juan la Laguna	12	San Juan la Laguna	1	Enero	2023-03-01T00:00:00	2024-11-08T17:00:00	1	Precipitación	0
28672	7	Sololá	717	San Juan la Laguna	12	San Juan la Laguna	1	Enero	2023-03-01T00:00:00	2024-11-08T17:00:00	8	Radiación solar	92
28673	7	Sololá	717	San Juan la Laguna	12	San Juan la Laguna	1	Enero	2023-03-01T00:00:00	2024-11-08T18:00:00	2	Temperatura media	18.6
28674	7	Sololá	717	San Juan la Laguna	12	San Juan la Laguna	1	Enero	2023-03-01T00:00:00	2024-11-08T18:00:00	4	Temperatura máxima	19
28675	7	Sololá	717	San Juan la Laguna	12	San Juan la Laguna	1	Enero	2023-03-01T00:00:00	2024-11-08T18:00:00	3	Temperatura mínima	18.6
28676	7	Sololá	717	San Juan la Laguna	12	San Juan la Laguna	1	Enero	2023-03-01T00:00:00	2024-11-08T18:00:00	5	Humedad	82
28677	7	Sololá	717	San Juan la Laguna	12	San Juan la Laguna	1	Enero	2023-03-01T00:00:00	2024-11-08T18:00:00	6	Velocidad del viento	3.2
28678	7	Sololá	717	San Juan la Laguna	12	San Juan la Laguna	1	Enero	2023-03-01T00:00:00	2024-11-08T18:00:00	7	Dirección del viento	3.22
28679	7	Sololá	717	San Juan la Laguna	12	San Juan la Laguna	1	Enero	2023-03-01T00:00:00	2024-11-08T18:00:00	1	Precipitación	0
28680	7	Sololá	717	San Juan la Laguna	12	San Juan la Laguna	1	Enero	2023-03-01T00:00:00	2024-11-08T18:00:00	8	Radiación solar	18
28681	7	Sololá	717	San Juan la Laguna	12	San Juan la Laguna	1	Enero	2023-03-01T00:00:00	2024-11-08T19:00:00	2	Temperatura media	17.5
28682	7	Sololá	717	San Juan la Laguna	12	San Juan la Laguna	1	Enero	2023-03-01T00:00:00	2024-11-08T19:00:00	4	Temperatura máxima	18.7
28683	7	Sololá	717	San Juan la Laguna	12	San Juan la Laguna	1	Enero	2023-03-01T00:00:00	2024-11-08T19:00:00	3	Temperatura mínima	17.5
28684	7	Sololá	717	San Juan la Laguna	12	San Juan la Laguna	1	Enero	2023-03-01T00:00:00	2024-11-08T19:00:00	5	Humedad	84
28685	7	Sololá	717	San Juan la Laguna	12	San Juan la Laguna	1	Enero	2023-03-01T00:00:00	2024-11-08T19:00:00	6	Velocidad del viento	1.6
28686	7	Sololá	717	San Juan la Laguna	12	San Juan la Laguna	1	Enero	2023-03-01T00:00:00	2024-11-08T19:00:00	7	Dirección del viento	1.61
28687	7	Sololá	717	San Juan la Laguna	12	San Juan la Laguna	1	Enero	2023-03-01T00:00:00	2024-11-08T19:00:00	1	Precipitación	0
28688	7	Sololá	717	San Juan la Laguna	12	San Juan la Laguna	1	Enero	2023-03-01T00:00:00	2024-11-08T19:00:00	8	Radiación solar	0
28689	7	Sololá	717	San Juan la Laguna	12	San Juan la Laguna	1	Enero	2023-03-01T00:00:00	2024-11-08T20:00:00	2	Temperatura media	16.6
28690	7	Sololá	717	San Juan la Laguna	12	San Juan la Laguna	1	Enero	2023-03-01T00:00:00	2024-11-08T20:00:00	4	Temperatura máxima	17.5
28691	7	Sololá	717	San Juan la Laguna	12	San Juan la Laguna	1	Enero	2023-03-01T00:00:00	2024-11-08T20:00:00	3	Temperatura mínima	16.5
28692	7	Sololá	717	San Juan la Laguna	12	San Juan la Laguna	1	Enero	2023-03-01T00:00:00	2024-11-08T20:00:00	5	Humedad	86
28693	7	Sololá	717	San Juan la Laguna	12	San Juan la Laguna	1	Enero	2023-03-01T00:00:00	2024-11-08T20:00:00	6	Velocidad del viento	1.6
28694	7	Sololá	717	San Juan la Laguna	12	San Juan la Laguna	1	Enero	2023-03-01T00:00:00	2024-11-08T20:00:00	7	Dirección del viento	1.61
28695	7	Sololá	717	San Juan la Laguna	12	San Juan la Laguna	1	Enero	2023-03-01T00:00:00	2024-11-08T20:00:00	1	Precipitación	0
28696	7	Sololá	717	San Juan la Laguna	12	San Juan la Laguna	1	Enero	2023-03-01T00:00:00	2024-11-08T20:00:00	8	Radiación solar	0
28697	7	Sololá	717	San Juan la Laguna	12	San Juan la Laguna	1	Enero	2023-03-01T00:00:00	2024-11-08T21:00:00	2	Temperatura media	17
28698	7	Sololá	717	San Juan la Laguna	12	San Juan la Laguna	1	Enero	2023-03-01T00:00:00	2024-11-08T21:00:00	4	Temperatura máxima	17.1
28699	7	Sololá	717	San Juan la Laguna	12	San Juan la Laguna	1	Enero	2023-03-01T00:00:00	2024-11-08T21:00:00	3	Temperatura mínima	16.5
28700	7	Sololá	717	San Juan la Laguna	12	San Juan la Laguna	1	Enero	2023-03-01T00:00:00	2024-11-08T21:00:00	5	Humedad	85
28701	7	Sololá	717	San Juan la Laguna	12	San Juan la Laguna	1	Enero	2023-03-01T00:00:00	2024-11-08T21:00:00	6	Velocidad del viento	3.2
28702	7	Sololá	717	San Juan la Laguna	12	San Juan la Laguna	1	Enero	2023-03-01T00:00:00	2024-11-08T21:00:00	7	Dirección del viento	3.22
28703	7	Sololá	717	San Juan la Laguna	12	San Juan la Laguna	1	Enero	2023-03-01T00:00:00	2024-11-08T21:00:00	1	Precipitación	0
28704	7	Sololá	717	San Juan la Laguna	12	San Juan la Laguna	1	Enero	2023-03-01T00:00:00	2024-11-08T21:00:00	8	Radiación solar	0
28705	7	Sololá	717	San Juan la Laguna	12	San Juan la Laguna	1	Enero	2023-03-01T00:00:00	2024-11-08T22:00:00	2	Temperatura media	17
28706	7	Sololá	717	San Juan la Laguna	12	San Juan la Laguna	1	Enero	2023-03-01T00:00:00	2024-11-08T22:00:00	4	Temperatura máxima	17
28707	7	Sololá	717	San Juan la Laguna	12	San Juan la Laguna	1	Enero	2023-03-01T00:00:00	2024-11-08T22:00:00	3	Temperatura mínima	16.9
28708	7	Sololá	717	San Juan la Laguna	12	San Juan la Laguna	1	Enero	2023-03-01T00:00:00	2024-11-08T22:00:00	5	Humedad	85
28709	7	Sololá	717	San Juan la Laguna	12	San Juan la Laguna	1	Enero	2023-03-01T00:00:00	2024-11-08T22:00:00	6	Velocidad del viento	1.6
28710	7	Sololá	717	San Juan la Laguna	12	San Juan la Laguna	1	Enero	2023-03-01T00:00:00	2024-11-08T22:00:00	7	Dirección del viento	1.61
28711	7	Sololá	717	San Juan la Laguna	12	San Juan la Laguna	1	Enero	2023-03-01T00:00:00	2024-11-08T22:00:00	1	Precipitación	0
28712	7	Sololá	717	San Juan la Laguna	12	San Juan la Laguna	1	Enero	2023-03-01T00:00:00	2024-11-08T22:00:00	8	Radiación solar	0
28713	7	Sololá	717	San Juan la Laguna	12	San Juan la Laguna	1	Enero	2023-03-01T00:00:00	2024-11-08T23:00:00	2	Temperatura media	15.8
28714	7	Sololá	717	San Juan la Laguna	12	San Juan la Laguna	1	Enero	2023-03-01T00:00:00	2024-11-08T23:00:00	4	Temperatura máxima	17
28715	7	Sololá	717	San Juan la Laguna	12	San Juan la Laguna	1	Enero	2023-03-01T00:00:00	2024-11-08T23:00:00	3	Temperatura mínima	15.8
28716	7	Sololá	717	San Juan la Laguna	12	San Juan la Laguna	1	Enero	2023-03-01T00:00:00	2024-11-08T23:00:00	5	Humedad	87
28717	7	Sololá	717	San Juan la Laguna	12	San Juan la Laguna	1	Enero	2023-03-01T00:00:00	2024-11-08T23:00:00	6	Velocidad del viento	1.6
28718	7	Sololá	717	San Juan la Laguna	12	San Juan la Laguna	1	Enero	2023-03-01T00:00:00	2024-11-08T23:00:00	7	Dirección del viento	1.61
28719	7	Sololá	717	San Juan la Laguna	12	San Juan la Laguna	1	Enero	2023-03-01T00:00:00	2024-11-08T23:00:00	1	Precipitación	0
28720	7	Sololá	717	San Juan la Laguna	12	San Juan la Laguna	1	Enero	2023-03-01T00:00:00	2024-11-08T23:00:00	8	Radiación solar	0
28721	7	Sololá	717	San Juan la Laguna	12	San Juan la Laguna	1	Enero	2023-04-01T00:00:00	2024-11-08T00:00:00	2	Temperatura media	15.2
28722	7	Sololá	717	San Juan la Laguna	12	San Juan la Laguna	1	Enero	2023-04-01T00:00:00	2024-11-08T00:00:00	4	Temperatura máxima	15.8
28723	7	Sololá	717	San Juan la Laguna	12	San Juan la Laguna	1	Enero	2023-04-01T00:00:00	2024-11-08T00:00:00	3	Temperatura mínima	15.2
28724	7	Sololá	717	San Juan la Laguna	12	San Juan la Laguna	1	Enero	2023-04-01T00:00:00	2024-11-08T00:00:00	5	Humedad	89
28725	7	Sololá	717	San Juan la Laguna	12	San Juan la Laguna	1	Enero	2023-04-01T00:00:00	2024-11-08T00:00:00	6	Velocidad del viento	1.6
28726	7	Sololá	717	San Juan la Laguna	12	San Juan la Laguna	1	Enero	2023-04-01T00:00:00	2024-11-08T00:00:00	7	Dirección del viento	1.61
28727	7	Sololá	717	San Juan la Laguna	12	San Juan la Laguna	1	Enero	2023-04-01T00:00:00	2024-11-08T00:00:00	1	Precipitación	0
28728	7	Sololá	717	San Juan la Laguna	12	San Juan la Laguna	1	Enero	2023-04-01T00:00:00	2024-11-08T00:00:00	8	Radiación solar	0
28729	7	Sololá	717	San Juan la Laguna	12	San Juan la Laguna	1	Enero	2023-04-01T00:00:00	2024-11-08T01:00:00	2	Temperatura media	15.8
28730	7	Sololá	717	San Juan la Laguna	12	San Juan la Laguna	1	Enero	2023-04-01T00:00:00	2024-11-08T01:00:00	4	Temperatura máxima	15.8
28731	7	Sololá	717	San Juan la Laguna	12	San Juan la Laguna	1	Enero	2023-04-01T00:00:00	2024-11-08T01:00:00	3	Temperatura mínima	15.2
28732	7	Sololá	717	San Juan la Laguna	12	San Juan la Laguna	1	Enero	2023-04-01T00:00:00	2024-11-08T01:00:00	5	Humedad	86
28733	7	Sololá	717	San Juan la Laguna	12	San Juan la Laguna	1	Enero	2023-04-01T00:00:00	2024-11-08T01:00:00	6	Velocidad del viento	3.2
28734	7	Sololá	717	San Juan la Laguna	12	San Juan la Laguna	1	Enero	2023-04-01T00:00:00	2024-11-08T01:00:00	7	Dirección del viento	3.22
28735	7	Sololá	717	San Juan la Laguna	12	San Juan la Laguna	1	Enero	2023-04-01T00:00:00	2024-11-08T01:00:00	1	Precipitación	0
28736	7	Sololá	717	San Juan la Laguna	12	San Juan la Laguna	1	Enero	2023-04-01T00:00:00	2024-11-08T01:00:00	8	Radiación solar	0
28737	7	Sololá	717	San Juan la Laguna	12	San Juan la Laguna	1	Enero	2023-04-01T00:00:00	2024-11-08T02:00:00	2	Temperatura media	15.3
28738	7	Sololá	717	San Juan la Laguna	12	San Juan la Laguna	1	Enero	2023-04-01T00:00:00	2024-11-08T02:00:00	4	Temperatura máxima	15.9
28739	7	Sololá	717	San Juan la Laguna	12	San Juan la Laguna	1	Enero	2023-04-01T00:00:00	2024-11-08T02:00:00	3	Temperatura mínima	15.3
28740	7	Sololá	717	San Juan la Laguna	12	San Juan la Laguna	1	Enero	2023-04-01T00:00:00	2024-11-08T02:00:00	5	Humedad	86
28741	7	Sololá	717	San Juan la Laguna	12	San Juan la Laguna	1	Enero	2023-04-01T00:00:00	2024-11-08T02:00:00	6	Velocidad del viento	1.6
28742	7	Sololá	717	San Juan la Laguna	12	San Juan la Laguna	1	Enero	2023-04-01T00:00:00	2024-11-08T02:00:00	7	Dirección del viento	1.61
28743	7	Sololá	717	San Juan la Laguna	12	San Juan la Laguna	1	Enero	2023-04-01T00:00:00	2024-11-08T02:00:00	1	Precipitación	0
28744	7	Sololá	717	San Juan la Laguna	12	San Juan la Laguna	1	Enero	2023-04-01T00:00:00	2024-11-08T02:00:00	8	Radiación solar	0
28745	7	Sololá	717	San Juan la Laguna	12	San Juan la Laguna	1	Enero	2023-04-01T00:00:00	2024-11-08T03:00:00	2	Temperatura media	14.7
28746	7	Sololá	717	San Juan la Laguna	12	San Juan la Laguna	1	Enero	2023-04-01T00:00:00	2024-11-08T03:00:00	4	Temperatura máxima	15.3
28747	7	Sololá	717	San Juan la Laguna	12	San Juan la Laguna	1	Enero	2023-04-01T00:00:00	2024-11-08T03:00:00	3	Temperatura mínima	14.7
28748	7	Sololá	717	San Juan la Laguna	12	San Juan la Laguna	1	Enero	2023-04-01T00:00:00	2024-11-08T03:00:00	5	Humedad	86
28749	7	Sololá	717	San Juan la Laguna	12	San Juan la Laguna	1	Enero	2023-04-01T00:00:00	2024-11-08T03:00:00	6	Velocidad del viento	1.6
28750	7	Sololá	717	San Juan la Laguna	12	San Juan la Laguna	1	Enero	2023-04-01T00:00:00	2024-11-08T03:00:00	7	Dirección del viento	1.61
28751	7	Sololá	717	San Juan la Laguna	12	San Juan la Laguna	1	Enero	2023-04-01T00:00:00	2024-11-08T03:00:00	1	Precipitación	0
28752	7	Sololá	717	San Juan la Laguna	12	San Juan la Laguna	1	Enero	2023-04-01T00:00:00	2024-11-08T03:00:00	8	Radiación solar	0
28753	7	Sololá	717	San Juan la Laguna	12	San Juan la Laguna	1	Enero	2023-04-01T00:00:00	2024-11-08T04:00:00	2	Temperatura media	14.2
28754	7	Sololá	717	San Juan la Laguna	12	San Juan la Laguna	1	Enero	2023-04-01T00:00:00	2024-11-08T04:00:00	4	Temperatura máxima	14.7
28755	7	Sololá	717	San Juan la Laguna	12	San Juan la Laguna	1	Enero	2023-04-01T00:00:00	2024-11-08T04:00:00	3	Temperatura mínima	13.9
28756	7	Sololá	717	San Juan la Laguna	12	San Juan la Laguna	1	Enero	2023-04-01T00:00:00	2024-11-08T04:00:00	5	Humedad	87
28757	7	Sololá	717	San Juan la Laguna	12	San Juan la Laguna	1	Enero	2023-04-01T00:00:00	2024-11-08T04:00:00	6	Velocidad del viento	3.2
28758	7	Sololá	717	San Juan la Laguna	12	San Juan la Laguna	1	Enero	2023-04-01T00:00:00	2024-11-08T04:00:00	7	Dirección del viento	3.22
28759	7	Sololá	717	San Juan la Laguna	12	San Juan la Laguna	1	Enero	2023-04-01T00:00:00	2024-11-08T04:00:00	1	Precipitación	0
28760	7	Sololá	717	San Juan la Laguna	12	San Juan la Laguna	1	Enero	2023-04-01T00:00:00	2024-11-08T04:00:00	8	Radiación solar	0
28761	7	Sololá	717	San Juan la Laguna	12	San Juan la Laguna	1	Enero	2023-04-01T00:00:00	2024-11-08T05:00:00	2	Temperatura media	13.3
28762	7	Sololá	717	San Juan la Laguna	12	San Juan la Laguna	1	Enero	2023-04-01T00:00:00	2024-11-08T05:00:00	4	Temperatura máxima	14.2
28763	7	Sololá	717	San Juan la Laguna	12	San Juan la Laguna	1	Enero	2023-04-01T00:00:00	2024-11-08T05:00:00	3	Temperatura mínima	13.3
28764	7	Sololá	717	San Juan la Laguna	12	San Juan la Laguna	1	Enero	2023-04-01T00:00:00	2024-11-08T05:00:00	5	Humedad	86
28765	7	Sololá	717	San Juan la Laguna	12	San Juan la Laguna	1	Enero	2023-04-01T00:00:00	2024-11-08T05:00:00	6	Velocidad del viento	3.2
28766	7	Sololá	717	San Juan la Laguna	12	San Juan la Laguna	1	Enero	2023-04-01T00:00:00	2024-11-08T05:00:00	7	Dirección del viento	3.22
28767	7	Sololá	717	San Juan la Laguna	12	San Juan la Laguna	1	Enero	2023-04-01T00:00:00	2024-11-08T05:00:00	1	Precipitación	0
28768	7	Sololá	717	San Juan la Laguna	12	San Juan la Laguna	1	Enero	2023-04-01T00:00:00	2024-11-08T05:00:00	8	Radiación solar	0
28769	7	Sololá	717	San Juan la Laguna	12	San Juan la Laguna	1	Enero	2023-04-01T00:00:00	2024-11-08T06:00:00	2	Temperatura media	13.1
28770	7	Sololá	717	San Juan la Laguna	12	San Juan la Laguna	1	Enero	2023-04-01T00:00:00	2024-11-08T06:00:00	4	Temperatura máxima	13.3
28771	7	Sololá	717	San Juan la Laguna	12	San Juan la Laguna	1	Enero	2023-04-01T00:00:00	2024-11-08T06:00:00	3	Temperatura mínima	12.8
28772	7	Sololá	717	San Juan la Laguna	12	San Juan la Laguna	1	Enero	2023-04-01T00:00:00	2024-11-08T06:00:00	5	Humedad	86
28773	7	Sololá	717	San Juan la Laguna	12	San Juan la Laguna	1	Enero	2023-04-01T00:00:00	2024-11-08T06:00:00	6	Velocidad del viento	3.2
28774	7	Sololá	717	San Juan la Laguna	12	San Juan la Laguna	1	Enero	2023-04-01T00:00:00	2024-11-08T06:00:00	7	Dirección del viento	3.22
28775	7	Sololá	717	San Juan la Laguna	12	San Juan la Laguna	1	Enero	2023-04-01T00:00:00	2024-11-08T06:00:00	1	Precipitación	0
28776	7	Sololá	717	San Juan la Laguna	12	San Juan la Laguna	1	Enero	2023-04-01T00:00:00	2024-11-08T06:00:00	8	Radiación solar	0
28777	7	Sololá	717	San Juan la Laguna	12	San Juan la Laguna	1	Enero	2023-04-01T00:00:00	2024-11-08T07:00:00	2	Temperatura media	13.2
28778	7	Sololá	717	San Juan la Laguna	12	San Juan la Laguna	1	Enero	2023-04-01T00:00:00	2024-11-08T07:00:00	4	Temperatura máxima	13.3
28779	7	Sololá	717	San Juan la Laguna	12	San Juan la Laguna	1	Enero	2023-04-01T00:00:00	2024-11-08T07:00:00	3	Temperatura mínima	13.1
28780	7	Sololá	717	San Juan la Laguna	12	San Juan la Laguna	1	Enero	2023-04-01T00:00:00	2024-11-08T07:00:00	5	Humedad	85
28781	7	Sololá	717	San Juan la Laguna	12	San Juan la Laguna	1	Enero	2023-04-01T00:00:00	2024-11-08T07:00:00	6	Velocidad del viento	4.8
28782	7	Sololá	717	San Juan la Laguna	12	San Juan la Laguna	1	Enero	2023-04-01T00:00:00	2024-11-08T07:00:00	7	Dirección del viento	4.83
28783	7	Sololá	717	San Juan la Laguna	12	San Juan la Laguna	1	Enero	2023-04-01T00:00:00	2024-11-08T07:00:00	1	Precipitación	0
28784	7	Sololá	717	San Juan la Laguna	12	San Juan la Laguna	1	Enero	2023-04-01T00:00:00	2024-11-08T07:00:00	8	Radiación solar	5
28785	7	Sololá	717	San Juan la Laguna	12	San Juan la Laguna	1	Enero	2023-04-01T00:00:00	2024-11-08T08:00:00	2	Temperatura media	14.7
28786	7	Sololá	717	San Juan la Laguna	12	San Juan la Laguna	1	Enero	2023-04-01T00:00:00	2024-11-08T08:00:00	4	Temperatura máxima	14.7
28787	7	Sololá	717	San Juan la Laguna	12	San Juan la Laguna	1	Enero	2023-04-01T00:00:00	2024-11-08T08:00:00	3	Temperatura mínima	13.2
28788	7	Sololá	717	San Juan la Laguna	12	San Juan la Laguna	1	Enero	2023-04-01T00:00:00	2024-11-08T08:00:00	5	Humedad	84
28789	7	Sololá	717	San Juan la Laguna	12	San Juan la Laguna	1	Enero	2023-04-01T00:00:00	2024-11-08T08:00:00	6	Velocidad del viento	1.6
28790	7	Sololá	717	San Juan la Laguna	12	San Juan la Laguna	1	Enero	2023-04-01T00:00:00	2024-11-08T08:00:00	7	Dirección del viento	1.61
28791	7	Sololá	717	San Juan la Laguna	12	San Juan la Laguna	1	Enero	2023-04-01T00:00:00	2024-11-08T08:00:00	1	Precipitación	0
28792	7	Sololá	717	San Juan la Laguna	12	San Juan la Laguna	1	Enero	2023-04-01T00:00:00	2024-11-08T08:00:00	8	Radiación solar	105
28793	7	Sololá	717	San Juan la Laguna	12	San Juan la Laguna	1	Enero	2023-04-01T00:00:00	2024-11-08T09:00:00	2	Temperatura media	19.8
28794	7	Sololá	717	San Juan la Laguna	12	San Juan la Laguna	1	Enero	2023-04-01T00:00:00	2024-11-08T09:00:00	4	Temperatura máxima	19.8
28795	7	Sololá	717	San Juan la Laguna	12	San Juan la Laguna	1	Enero	2023-04-01T00:00:00	2024-11-08T09:00:00	3	Temperatura mínima	14.8
28796	7	Sololá	717	San Juan la Laguna	12	San Juan la Laguna	1	Enero	2023-04-01T00:00:00	2024-11-08T09:00:00	5	Humedad	70
28797	7	Sololá	717	San Juan la Laguna	12	San Juan la Laguna	1	Enero	2023-04-01T00:00:00	2024-11-08T09:00:00	6	Velocidad del viento	0
28798	7	Sololá	717	San Juan la Laguna	12	San Juan la Laguna	1	Enero	2023-04-01T00:00:00	2024-11-08T09:00:00	7	Dirección del viento	0
28799	7	Sololá	717	San Juan la Laguna	12	San Juan la Laguna	1	Enero	2023-04-01T00:00:00	2024-11-08T09:00:00	1	Precipitación	0
28800	7	Sololá	717	San Juan la Laguna	12	San Juan la Laguna	1	Enero	2023-04-01T00:00:00	2024-11-08T09:00:00	8	Radiación solar	333
28801	7	Sololá	717	San Juan la Laguna	12	San Juan la Laguna	1	Enero	2023-04-01T00:00:00	2024-11-08T10:00:00	2	Temperatura media	19.8
28802	7	Sololá	717	San Juan la Laguna	12	San Juan la Laguna	1	Enero	2023-04-01T00:00:00	2024-11-08T10:00:00	4	Temperatura máxima	20.2
28803	7	Sololá	717	San Juan la Laguna	12	San Juan la Laguna	1	Enero	2023-04-01T00:00:00	2024-11-08T10:00:00	3	Temperatura mínima	18.7
28804	7	Sololá	717	San Juan la Laguna	12	San Juan la Laguna	1	Enero	2023-04-01T00:00:00	2024-11-08T10:00:00	5	Humedad	71
28805	7	Sololá	717	San Juan la Laguna	12	San Juan la Laguna	1	Enero	2023-04-01T00:00:00	2024-11-08T10:00:00	6	Velocidad del viento	3.2
28806	7	Sololá	717	San Juan la Laguna	12	San Juan la Laguna	1	Enero	2023-04-01T00:00:00	2024-11-08T10:00:00	7	Dirección del viento	3.22
28807	7	Sololá	717	San Juan la Laguna	12	San Juan la Laguna	1	Enero	2023-04-01T00:00:00	2024-11-08T10:00:00	1	Precipitación	0
28808	7	Sololá	717	San Juan la Laguna	12	San Juan la Laguna	1	Enero	2023-04-01T00:00:00	2024-11-08T10:00:00	8	Radiación solar	510
28809	7	Sololá	717	San Juan la Laguna	12	San Juan la Laguna	1	Enero	2023-04-01T00:00:00	2024-11-08T11:00:00	2	Temperatura media	22.4
28810	7	Sololá	717	San Juan la Laguna	12	San Juan la Laguna	1	Enero	2023-04-01T00:00:00	2024-11-08T11:00:00	4	Temperatura máxima	22.4
28811	7	Sololá	717	San Juan la Laguna	12	San Juan la Laguna	1	Enero	2023-04-01T00:00:00	2024-11-08T11:00:00	3	Temperatura mínima	19.8
28812	7	Sololá	717	San Juan la Laguna	12	San Juan la Laguna	1	Enero	2023-04-01T00:00:00	2024-11-08T11:00:00	5	Humedad	56
28813	7	Sololá	717	San Juan la Laguna	12	San Juan la Laguna	1	Enero	2023-04-01T00:00:00	2024-11-08T11:00:00	6	Velocidad del viento	1.6
28814	7	Sololá	717	San Juan la Laguna	12	San Juan la Laguna	1	Enero	2023-04-01T00:00:00	2024-11-08T11:00:00	7	Dirección del viento	1.61
28815	7	Sololá	717	San Juan la Laguna	12	San Juan la Laguna	1	Enero	2023-04-01T00:00:00	2024-11-08T11:00:00	1	Precipitación	0
28816	7	Sololá	717	San Juan la Laguna	12	San Juan la Laguna	1	Enero	2023-04-01T00:00:00	2024-11-08T11:00:00	8	Radiación solar	595
28817	7	Sololá	717	San Juan la Laguna	12	San Juan la Laguna	1	Enero	2023-04-01T00:00:00	2024-11-08T12:00:00	2	Temperatura media	21.8
28818	7	Sololá	717	San Juan la Laguna	12	San Juan la Laguna	1	Enero	2023-04-01T00:00:00	2024-11-08T12:00:00	4	Temperatura máxima	22.7
28819	7	Sololá	717	San Juan la Laguna	12	San Juan la Laguna	1	Enero	2023-04-01T00:00:00	2024-11-08T12:00:00	3	Temperatura mínima	21.6
28820	7	Sololá	717	San Juan la Laguna	12	San Juan la Laguna	1	Enero	2023-04-01T00:00:00	2024-11-08T12:00:00	5	Humedad	59
28821	7	Sololá	717	San Juan la Laguna	12	San Juan la Laguna	1	Enero	2023-04-01T00:00:00	2024-11-08T12:00:00	6	Velocidad del viento	4.8
28822	7	Sololá	717	San Juan la Laguna	12	San Juan la Laguna	1	Enero	2023-04-01T00:00:00	2024-11-08T12:00:00	7	Dirección del viento	4.83
28823	7	Sololá	717	San Juan la Laguna	12	San Juan la Laguna	1	Enero	2023-04-01T00:00:00	2024-11-08T12:00:00	1	Precipitación	0
28824	7	Sololá	717	San Juan la Laguna	12	San Juan la Laguna	1	Enero	2023-04-01T00:00:00	2024-11-08T12:00:00	8	Radiación solar	692
28825	7	Sololá	717	San Juan la Laguna	12	San Juan la Laguna	1	Enero	2023-04-01T00:00:00	2024-11-08T13:00:00	2	Temperatura media	22.9
28826	7	Sololá	717	San Juan la Laguna	12	San Juan la Laguna	1	Enero	2023-04-01T00:00:00	2024-11-08T13:00:00	4	Temperatura máxima	22.9
28827	7	Sololá	717	San Juan la Laguna	12	San Juan la Laguna	1	Enero	2023-04-01T00:00:00	2024-11-08T13:00:00	3	Temperatura mínima	21.9
28828	7	Sololá	717	San Juan la Laguna	12	San Juan la Laguna	1	Enero	2023-04-01T00:00:00	2024-11-08T13:00:00	5	Humedad	64
28829	7	Sololá	717	San Juan la Laguna	12	San Juan la Laguna	1	Enero	2023-04-01T00:00:00	2024-11-08T13:00:00	6	Velocidad del viento	3.2
28830	7	Sololá	717	San Juan la Laguna	12	San Juan la Laguna	1	Enero	2023-04-01T00:00:00	2024-11-08T13:00:00	7	Dirección del viento	3.22
28831	7	Sololá	717	San Juan la Laguna	12	San Juan la Laguna	1	Enero	2023-04-01T00:00:00	2024-11-08T13:00:00	1	Precipitación	0
28832	7	Sololá	717	San Juan la Laguna	12	San Juan la Laguna	1	Enero	2023-04-01T00:00:00	2024-11-08T13:00:00	8	Radiación solar	717
28833	7	Sololá	717	San Juan la Laguna	12	San Juan la Laguna	1	Enero	2023-04-01T00:00:00	2024-11-08T14:00:00	2	Temperatura media	22.3
28834	7	Sololá	717	San Juan la Laguna	12	San Juan la Laguna	1	Enero	2023-04-01T00:00:00	2024-11-08T14:00:00	4	Temperatura máxima	23.1
28835	7	Sololá	717	San Juan la Laguna	12	San Juan la Laguna	1	Enero	2023-04-01T00:00:00	2024-11-08T14:00:00	3	Temperatura mínima	22.3
28836	7	Sololá	717	San Juan la Laguna	12	San Juan la Laguna	1	Enero	2023-04-01T00:00:00	2024-11-08T14:00:00	5	Humedad	67
28837	7	Sololá	717	San Juan la Laguna	12	San Juan la Laguna	1	Enero	2023-04-01T00:00:00	2024-11-08T14:00:00	6	Velocidad del viento	4.8
28838	7	Sololá	717	San Juan la Laguna	12	San Juan la Laguna	1	Enero	2023-04-01T00:00:00	2024-11-08T14:00:00	7	Dirección del viento	4.83
28839	7	Sololá	717	San Juan la Laguna	12	San Juan la Laguna	1	Enero	2023-04-01T00:00:00	2024-11-08T14:00:00	1	Precipitación	0
28840	7	Sololá	717	San Juan la Laguna	12	San Juan la Laguna	1	Enero	2023-04-01T00:00:00	2024-11-08T14:00:00	8	Radiación solar	604
28841	7	Sololá	717	San Juan la Laguna	12	San Juan la Laguna	1	Enero	2023-04-01T00:00:00	2024-11-08T15:00:00	2	Temperatura media	21.3
28842	7	Sololá	717	San Juan la Laguna	12	San Juan la Laguna	1	Enero	2023-04-01T00:00:00	2024-11-08T15:00:00	4	Temperatura máxima	22.3
28843	7	Sololá	717	San Juan la Laguna	12	San Juan la Laguna	1	Enero	2023-04-01T00:00:00	2024-11-08T15:00:00	3	Temperatura mínima	21.3
28844	7	Sololá	717	San Juan la Laguna	12	San Juan la Laguna	1	Enero	2023-04-01T00:00:00	2024-11-08T15:00:00	5	Humedad	71
28845	7	Sololá	717	San Juan la Laguna	12	San Juan la Laguna	1	Enero	2023-04-01T00:00:00	2024-11-08T15:00:00	6	Velocidad del viento	4.8
28846	7	Sololá	717	San Juan la Laguna	12	San Juan la Laguna	1	Enero	2023-04-01T00:00:00	2024-11-08T15:00:00	7	Dirección del viento	4.83
28847	7	Sololá	717	San Juan la Laguna	12	San Juan la Laguna	1	Enero	2023-04-01T00:00:00	2024-11-08T15:00:00	1	Precipitación	0
28848	7	Sololá	717	San Juan la Laguna	12	San Juan la Laguna	1	Enero	2023-04-01T00:00:00	2024-11-08T15:00:00	8	Radiación solar	359
28849	7	Sololá	717	San Juan la Laguna	12	San Juan la Laguna	1	Enero	2023-04-01T00:00:00	2024-11-08T16:00:00	2	Temperatura media	20.4
28850	7	Sololá	717	San Juan la Laguna	12	San Juan la Laguna	1	Enero	2023-04-01T00:00:00	2024-11-08T16:00:00	4	Temperatura máxima	21.3
28851	7	Sololá	717	San Juan la Laguna	12	San Juan la Laguna	1	Enero	2023-04-01T00:00:00	2024-11-08T16:00:00	3	Temperatura mínima	20.4
28852	7	Sololá	717	San Juan la Laguna	12	San Juan la Laguna	1	Enero	2023-04-01T00:00:00	2024-11-08T16:00:00	5	Humedad	76
28853	7	Sololá	717	San Juan la Laguna	12	San Juan la Laguna	1	Enero	2023-04-01T00:00:00	2024-11-08T16:00:00	6	Velocidad del viento	3.2
28854	7	Sololá	717	San Juan la Laguna	12	San Juan la Laguna	1	Enero	2023-04-01T00:00:00	2024-11-08T16:00:00	7	Dirección del viento	3.22
28855	7	Sololá	717	San Juan la Laguna	12	San Juan la Laguna	1	Enero	2023-04-01T00:00:00	2024-11-08T16:00:00	1	Precipitación	0
28856	7	Sololá	717	San Juan la Laguna	12	San Juan la Laguna	1	Enero	2023-04-01T00:00:00	2024-11-08T16:00:00	8	Radiación solar	190
28857	7	Sololá	717	San Juan la Laguna	12	San Juan la Laguna	1	Enero	2023-04-01T00:00:00	2024-11-08T17:00:00	2	Temperatura media	19.8
28858	7	Sololá	717	San Juan la Laguna	12	San Juan la Laguna	1	Enero	2023-04-01T00:00:00	2024-11-08T17:00:00	4	Temperatura máxima	20.4
28859	7	Sololá	717	San Juan la Laguna	12	San Juan la Laguna	1	Enero	2023-04-01T00:00:00	2024-11-08T17:00:00	3	Temperatura mínima	19.8
28860	7	Sololá	717	San Juan la Laguna	12	San Juan la Laguna	1	Enero	2023-04-01T00:00:00	2024-11-08T17:00:00	5	Humedad	80
28861	7	Sololá	717	San Juan la Laguna	12	San Juan la Laguna	1	Enero	2023-04-01T00:00:00	2024-11-08T17:00:00	6	Velocidad del viento	1.6
28862	7	Sololá	717	San Juan la Laguna	12	San Juan la Laguna	1	Enero	2023-04-01T00:00:00	2024-11-08T17:00:00	7	Dirección del viento	1.61
28863	7	Sololá	717	San Juan la Laguna	12	San Juan la Laguna	1	Enero	2023-04-01T00:00:00	2024-11-08T17:00:00	1	Precipitación	0
28864	7	Sololá	717	San Juan la Laguna	12	San Juan la Laguna	1	Enero	2023-04-01T00:00:00	2024-11-08T17:00:00	8	Radiación solar	85
28865	7	Sololá	717	San Juan la Laguna	12	San Juan la Laguna	1	Enero	2023-04-01T00:00:00	2024-11-08T18:00:00	2	Temperatura media	18.7
28866	7	Sololá	717	San Juan la Laguna	12	San Juan la Laguna	1	Enero	2023-04-01T00:00:00	2024-11-08T18:00:00	4	Temperatura máxima	19.8
28867	7	Sololá	717	San Juan la Laguna	12	San Juan la Laguna	1	Enero	2023-04-01T00:00:00	2024-11-08T18:00:00	3	Temperatura mínima	18.7
28868	7	Sololá	717	San Juan la Laguna	12	San Juan la Laguna	1	Enero	2023-04-01T00:00:00	2024-11-08T18:00:00	5	Humedad	84
28869	7	Sololá	717	San Juan la Laguna	12	San Juan la Laguna	1	Enero	2023-04-01T00:00:00	2024-11-08T18:00:00	6	Velocidad del viento	0
28870	7	Sololá	717	San Juan la Laguna	12	San Juan la Laguna	1	Enero	2023-04-01T00:00:00	2024-11-08T18:00:00	7	Dirección del viento	0
28871	7	Sololá	717	San Juan la Laguna	12	San Juan la Laguna	1	Enero	2023-04-01T00:00:00	2024-11-08T18:00:00	1	Precipitación	0
28872	7	Sololá	717	San Juan la Laguna	12	San Juan la Laguna	1	Enero	2023-04-01T00:00:00	2024-11-08T18:00:00	8	Radiación solar	14
28873	7	Sololá	717	San Juan la Laguna	12	San Juan la Laguna	1	Enero	2023-04-01T00:00:00	2024-11-08T19:00:00	2	Temperatura media	16.8
28874	7	Sololá	717	San Juan la Laguna	12	San Juan la Laguna	1	Enero	2023-04-01T00:00:00	2024-11-08T19:00:00	4	Temperatura máxima	18.7
28875	7	Sololá	717	San Juan la Laguna	12	San Juan la Laguna	1	Enero	2023-04-01T00:00:00	2024-11-08T19:00:00	3	Temperatura mínima	16.8
28876	7	Sololá	717	San Juan la Laguna	12	San Juan la Laguna	1	Enero	2023-04-01T00:00:00	2024-11-08T19:00:00	5	Humedad	88
28877	7	Sololá	717	San Juan la Laguna	12	San Juan la Laguna	1	Enero	2023-04-01T00:00:00	2024-11-08T19:00:00	6	Velocidad del viento	0
28878	7	Sololá	717	San Juan la Laguna	12	San Juan la Laguna	1	Enero	2023-04-01T00:00:00	2024-11-08T19:00:00	7	Dirección del viento	0
28879	7	Sololá	717	San Juan la Laguna	12	San Juan la Laguna	1	Enero	2023-04-01T00:00:00	2024-11-08T19:00:00	1	Precipitación	0
28880	7	Sololá	717	San Juan la Laguna	12	San Juan la Laguna	1	Enero	2023-04-01T00:00:00	2024-11-08T19:00:00	8	Radiación solar	0
28881	7	Sololá	717	San Juan la Laguna	12	San Juan la Laguna	1	Enero	2023-04-01T00:00:00	2024-11-08T20:00:00	2	Temperatura media	15.9
28882	7	Sololá	717	San Juan la Laguna	12	San Juan la Laguna	1	Enero	2023-04-01T00:00:00	2024-11-08T20:00:00	4	Temperatura máxima	16.8
28883	7	Sololá	717	San Juan la Laguna	12	San Juan la Laguna	1	Enero	2023-04-01T00:00:00	2024-11-08T20:00:00	3	Temperatura mínima	15.9
28884	7	Sololá	717	San Juan la Laguna	12	San Juan la Laguna	1	Enero	2023-04-01T00:00:00	2024-11-08T20:00:00	5	Humedad	89
28885	7	Sololá	717	San Juan la Laguna	12	San Juan la Laguna	1	Enero	2023-04-01T00:00:00	2024-11-08T20:00:00	6	Velocidad del viento	0
28886	7	Sololá	717	San Juan la Laguna	12	San Juan la Laguna	1	Enero	2023-04-01T00:00:00	2024-11-08T20:00:00	7	Dirección del viento	0
28887	7	Sololá	717	San Juan la Laguna	12	San Juan la Laguna	1	Enero	2023-04-01T00:00:00	2024-11-08T20:00:00	1	Precipitación	0
28888	7	Sololá	717	San Juan la Laguna	12	San Juan la Laguna	1	Enero	2023-04-01T00:00:00	2024-11-08T20:00:00	8	Radiación solar	0
28889	7	Sololá	717	San Juan la Laguna	12	San Juan la Laguna	1	Enero	2023-04-01T00:00:00	2024-11-08T21:00:00	2	Temperatura media	15.1
28890	7	Sololá	717	San Juan la Laguna	12	San Juan la Laguna	1	Enero	2023-04-01T00:00:00	2024-11-08T21:00:00	4	Temperatura máxima	15.9
28891	7	Sololá	717	San Juan la Laguna	12	San Juan la Laguna	1	Enero	2023-04-01T00:00:00	2024-11-08T21:00:00	3	Temperatura mínima	15
28892	7	Sololá	717	San Juan la Laguna	12	San Juan la Laguna	1	Enero	2023-04-01T00:00:00	2024-11-08T21:00:00	5	Humedad	82
28893	7	Sololá	717	San Juan la Laguna	12	San Juan la Laguna	1	Enero	2023-04-01T00:00:00	2024-11-08T21:00:00	6	Velocidad del viento	3.2
28894	7	Sololá	717	San Juan la Laguna	12	San Juan la Laguna	1	Enero	2023-04-01T00:00:00	2024-11-08T21:00:00	7	Dirección del viento	3.22
28895	7	Sololá	717	San Juan la Laguna	12	San Juan la Laguna	1	Enero	2023-04-01T00:00:00	2024-11-08T21:00:00	1	Precipitación	0
28896	7	Sololá	717	San Juan la Laguna	12	San Juan la Laguna	1	Enero	2023-04-01T00:00:00	2024-11-08T21:00:00	8	Radiación solar	0
28897	7	Sololá	717	San Juan la Laguna	12	San Juan la Laguna	1	Enero	2023-04-01T00:00:00	2024-11-08T22:00:00	2	Temperatura media	14.1
28898	7	Sololá	717	San Juan la Laguna	12	San Juan la Laguna	1	Enero	2023-04-01T00:00:00	2024-11-08T22:00:00	4	Temperatura máxima	15.1
28899	7	Sololá	717	San Juan la Laguna	12	San Juan la Laguna	1	Enero	2023-04-01T00:00:00	2024-11-08T22:00:00	3	Temperatura mínima	14
28900	7	Sololá	717	San Juan la Laguna	12	San Juan la Laguna	1	Enero	2023-04-01T00:00:00	2024-11-08T22:00:00	5	Humedad	80
28901	7	Sololá	717	San Juan la Laguna	12	San Juan la Laguna	1	Enero	2023-04-01T00:00:00	2024-11-08T22:00:00	6	Velocidad del viento	3.2
28902	7	Sololá	717	San Juan la Laguna	12	San Juan la Laguna	1	Enero	2023-04-01T00:00:00	2024-11-08T22:00:00	7	Dirección del viento	3.22
28903	7	Sololá	717	San Juan la Laguna	12	San Juan la Laguna	1	Enero	2023-04-01T00:00:00	2024-11-08T22:00:00	1	Precipitación	0
28904	7	Sololá	717	San Juan la Laguna	12	San Juan la Laguna	1	Enero	2023-04-01T00:00:00	2024-11-08T22:00:00	8	Radiación solar	0
28905	7	Sololá	717	San Juan la Laguna	12	San Juan la Laguna	1	Enero	2023-04-01T00:00:00	2024-11-08T23:00:00	2	Temperatura media	13.9
28906	7	Sololá	717	San Juan la Laguna	12	San Juan la Laguna	1	Enero	2023-04-01T00:00:00	2024-11-08T23:00:00	4	Temperatura máxima	14.2
28907	7	Sololá	717	San Juan la Laguna	12	San Juan la Laguna	1	Enero	2023-04-01T00:00:00	2024-11-08T23:00:00	3	Temperatura mínima	13.8
28908	7	Sololá	717	San Juan la Laguna	12	San Juan la Laguna	1	Enero	2023-04-01T00:00:00	2024-11-08T23:00:00	5	Humedad	76
28909	7	Sololá	717	San Juan la Laguna	12	San Juan la Laguna	1	Enero	2023-04-01T00:00:00	2024-11-08T23:00:00	6	Velocidad del viento	3.2
28910	7	Sololá	717	San Juan la Laguna	12	San Juan la Laguna	1	Enero	2023-04-01T00:00:00	2024-11-08T23:00:00	7	Dirección del viento	3.22
28911	7	Sololá	717	San Juan la Laguna	12	San Juan la Laguna	1	Enero	2023-04-01T00:00:00	2024-11-08T23:00:00	1	Precipitación	0
28912	7	Sololá	717	San Juan la Laguna	12	San Juan la Laguna	1	Enero	2023-04-01T00:00:00	2024-11-08T23:00:00	8	Radiación solar	0
28913	7	Sololá	717	San Juan la Laguna	12	San Juan la Laguna	1	Enero	2023-05-01T00:00:00	2024-11-08T00:00:00	2	Temperatura media	12.8
28914	7	Sololá	717	San Juan la Laguna	12	San Juan la Laguna	1	Enero	2023-05-01T00:00:00	2024-11-08T00:00:00	4	Temperatura máxima	14.1
28915	7	Sololá	717	San Juan la Laguna	12	San Juan la Laguna	1	Enero	2023-05-01T00:00:00	2024-11-08T00:00:00	3	Temperatura mínima	12.8
28916	7	Sololá	717	San Juan la Laguna	12	San Juan la Laguna	1	Enero	2023-05-01T00:00:00	2024-11-08T00:00:00	5	Humedad	76
28917	7	Sololá	717	San Juan la Laguna	12	San Juan la Laguna	1	Enero	2023-05-01T00:00:00	2024-11-08T00:00:00	6	Velocidad del viento	3.2
28918	7	Sololá	717	San Juan la Laguna	12	San Juan la Laguna	1	Enero	2023-05-01T00:00:00	2024-11-08T00:00:00	7	Dirección del viento	3.22
28919	7	Sololá	717	San Juan la Laguna	12	San Juan la Laguna	1	Enero	2023-05-01T00:00:00	2024-11-08T00:00:00	1	Precipitación	0
28920	7	Sololá	717	San Juan la Laguna	12	San Juan la Laguna	1	Enero	2023-05-01T00:00:00	2024-11-08T00:00:00	8	Radiación solar	0
28921	7	Sololá	717	San Juan la Laguna	12	San Juan la Laguna	1	Enero	2023-05-01T00:00:00	2024-11-08T01:00:00	2	Temperatura media	12.4
28922	7	Sololá	717	San Juan la Laguna	12	San Juan la Laguna	1	Enero	2023-05-01T00:00:00	2024-11-08T01:00:00	4	Temperatura máxima	12.9
28923	7	Sololá	717	San Juan la Laguna	12	San Juan la Laguna	1	Enero	2023-05-01T00:00:00	2024-11-08T01:00:00	3	Temperatura mínima	12.4
28924	7	Sololá	717	San Juan la Laguna	12	San Juan la Laguna	1	Enero	2023-05-01T00:00:00	2024-11-08T01:00:00	5	Humedad	72
28925	7	Sololá	717	San Juan la Laguna	12	San Juan la Laguna	1	Enero	2023-05-01T00:00:00	2024-11-08T01:00:00	6	Velocidad del viento	4.8
28926	7	Sololá	717	San Juan la Laguna	12	San Juan la Laguna	1	Enero	2023-05-01T00:00:00	2024-11-08T01:00:00	7	Dirección del viento	4.83
28927	7	Sololá	717	San Juan la Laguna	12	San Juan la Laguna	1	Enero	2023-05-01T00:00:00	2024-11-08T01:00:00	1	Precipitación	0
28928	7	Sololá	717	San Juan la Laguna	12	San Juan la Laguna	1	Enero	2023-05-01T00:00:00	2024-11-08T01:00:00	8	Radiación solar	0
28929	7	Sololá	717	San Juan la Laguna	12	San Juan la Laguna	1	Enero	2023-05-01T00:00:00	2024-11-08T02:00:00	2	Temperatura media	12.3
28930	7	Sololá	717	San Juan la Laguna	12	San Juan la Laguna	1	Enero	2023-05-01T00:00:00	2024-11-08T02:00:00	4	Temperatura máxima	12.4
28931	7	Sololá	717	San Juan la Laguna	12	San Juan la Laguna	1	Enero	2023-05-01T00:00:00	2024-11-08T02:00:00	3	Temperatura mínima	11
28932	7	Sololá	717	San Juan la Laguna	12	San Juan la Laguna	1	Enero	2023-05-01T00:00:00	2024-11-08T02:00:00	5	Humedad	76
28933	7	Sololá	717	San Juan la Laguna	12	San Juan la Laguna	1	Enero	2023-05-01T00:00:00	2024-11-08T02:00:00	6	Velocidad del viento	3.2
28934	7	Sololá	717	San Juan la Laguna	12	San Juan la Laguna	1	Enero	2023-05-01T00:00:00	2024-11-08T02:00:00	7	Dirección del viento	3.22
28935	7	Sololá	717	San Juan la Laguna	12	San Juan la Laguna	1	Enero	2023-05-01T00:00:00	2024-11-08T02:00:00	1	Precipitación	0
28936	7	Sololá	717	San Juan la Laguna	12	San Juan la Laguna	1	Enero	2023-05-01T00:00:00	2024-11-08T02:00:00	8	Radiación solar	0
28937	7	Sololá	717	San Juan la Laguna	12	San Juan la Laguna	1	Enero	2023-05-01T00:00:00	2024-11-08T03:00:00	2	Temperatura media	12.3
28938	7	Sololá	717	San Juan la Laguna	12	San Juan la Laguna	1	Enero	2023-05-01T00:00:00	2024-11-08T03:00:00	4	Temperatura máxima	12.7
28939	7	Sololá	717	San Juan la Laguna	12	San Juan la Laguna	1	Enero	2023-05-01T00:00:00	2024-11-08T03:00:00	3	Temperatura mínima	11.6
28940	7	Sololá	717	San Juan la Laguna	12	San Juan la Laguna	1	Enero	2023-05-01T00:00:00	2024-11-08T03:00:00	5	Humedad	75
28941	7	Sololá	717	San Juan la Laguna	12	San Juan la Laguna	1	Enero	2023-05-01T00:00:00	2024-11-08T03:00:00	6	Velocidad del viento	4.8
28942	7	Sololá	717	San Juan la Laguna	12	San Juan la Laguna	1	Enero	2023-05-01T00:00:00	2024-11-08T03:00:00	7	Dirección del viento	4.83
28943	7	Sololá	717	San Juan la Laguna	12	San Juan la Laguna	1	Enero	2023-05-01T00:00:00	2024-11-08T03:00:00	1	Precipitación	0
28944	7	Sololá	717	San Juan la Laguna	12	San Juan la Laguna	1	Enero	2023-05-01T00:00:00	2024-11-08T03:00:00	8	Radiación solar	0
28945	7	Sololá	717	San Juan la Laguna	12	San Juan la Laguna	1	Enero	2023-05-01T00:00:00	2024-11-08T04:00:00	2	Temperatura media	13.4
28946	7	Sololá	717	San Juan la Laguna	12	San Juan la Laguna	1	Enero	2023-05-01T00:00:00	2024-11-08T04:00:00	4	Temperatura máxima	13.5
28947	7	Sololá	717	San Juan la Laguna	12	San Juan la Laguna	1	Enero	2023-05-01T00:00:00	2024-11-08T04:00:00	3	Temperatura mínima	12.3
28948	7	Sololá	717	San Juan la Laguna	12	San Juan la Laguna	1	Enero	2023-05-01T00:00:00	2024-11-08T04:00:00	5	Humedad	73
28949	7	Sololá	717	San Juan la Laguna	12	San Juan la Laguna	1	Enero	2023-05-01T00:00:00	2024-11-08T04:00:00	6	Velocidad del viento	3.2
28950	7	Sololá	717	San Juan la Laguna	12	San Juan la Laguna	1	Enero	2023-05-01T00:00:00	2024-11-08T04:00:00	7	Dirección del viento	3.22
28951	7	Sololá	717	San Juan la Laguna	12	San Juan la Laguna	1	Enero	2023-05-01T00:00:00	2024-11-08T04:00:00	1	Precipitación	0
28952	7	Sololá	717	San Juan la Laguna	12	San Juan la Laguna	1	Enero	2023-05-01T00:00:00	2024-11-08T04:00:00	8	Radiación solar	0
28953	7	Sololá	717	San Juan la Laguna	12	San Juan la Laguna	1	Enero	2023-05-01T00:00:00	2024-11-08T05:00:00	2	Temperatura media	13.1
28954	7	Sololá	717	San Juan la Laguna	12	San Juan la Laguna	1	Enero	2023-05-01T00:00:00	2024-11-08T05:00:00	4	Temperatura máxima	13.8
28955	7	Sololá	717	San Juan la Laguna	12	San Juan la Laguna	1	Enero	2023-05-01T00:00:00	2024-11-08T05:00:00	3	Temperatura mínima	13.1
28956	7	Sololá	717	San Juan la Laguna	12	San Juan la Laguna	1	Enero	2023-05-01T00:00:00	2024-11-08T05:00:00	5	Humedad	74
28957	7	Sololá	717	San Juan la Laguna	12	San Juan la Laguna	1	Enero	2023-05-01T00:00:00	2024-11-08T05:00:00	6	Velocidad del viento	4.8
28958	7	Sololá	717	San Juan la Laguna	12	San Juan la Laguna	1	Enero	2023-05-01T00:00:00	2024-11-08T05:00:00	7	Dirección del viento	4.83
28959	7	Sololá	717	San Juan la Laguna	12	San Juan la Laguna	1	Enero	2023-05-01T00:00:00	2024-11-08T05:00:00	1	Precipitación	0
28960	7	Sololá	717	San Juan la Laguna	12	San Juan la Laguna	1	Enero	2023-05-01T00:00:00	2024-11-08T05:00:00	8	Radiación solar	0
28961	7	Sololá	717	San Juan la Laguna	12	San Juan la Laguna	1	Enero	2023-05-01T00:00:00	2024-11-08T06:00:00	2	Temperatura media	13.6
28962	7	Sololá	717	San Juan la Laguna	12	San Juan la Laguna	1	Enero	2023-05-01T00:00:00	2024-11-08T06:00:00	4	Temperatura máxima	13.8
28963	7	Sololá	717	San Juan la Laguna	12	San Juan la Laguna	1	Enero	2023-05-01T00:00:00	2024-11-08T06:00:00	3	Temperatura mínima	12.9
28964	7	Sololá	717	San Juan la Laguna	12	San Juan la Laguna	1	Enero	2023-05-01T00:00:00	2024-11-08T06:00:00	5	Humedad	72
28965	7	Sololá	717	San Juan la Laguna	12	San Juan la Laguna	1	Enero	2023-05-01T00:00:00	2024-11-08T06:00:00	6	Velocidad del viento	4.8
28966	7	Sololá	717	San Juan la Laguna	12	San Juan la Laguna	1	Enero	2023-05-01T00:00:00	2024-11-08T06:00:00	7	Dirección del viento	4.83
28967	7	Sololá	717	San Juan la Laguna	12	San Juan la Laguna	1	Enero	2023-05-01T00:00:00	2024-11-08T06:00:00	1	Precipitación	0
28968	7	Sololá	717	San Juan la Laguna	12	San Juan la Laguna	1	Enero	2023-05-01T00:00:00	2024-11-08T06:00:00	8	Radiación solar	0
28969	7	Sololá	717	San Juan la Laguna	12	San Juan la Laguna	1	Enero	2023-05-01T00:00:00	2024-11-08T07:00:00	2	Temperatura media	13.7
28970	7	Sololá	717	San Juan la Laguna	12	San Juan la Laguna	1	Enero	2023-05-01T00:00:00	2024-11-08T07:00:00	4	Temperatura máxima	13.7
28971	7	Sololá	717	San Juan la Laguna	12	San Juan la Laguna	1	Enero	2023-05-01T00:00:00	2024-11-08T07:00:00	3	Temperatura mínima	12.9
28972	7	Sololá	717	San Juan la Laguna	12	San Juan la Laguna	1	Enero	2023-05-01T00:00:00	2024-11-08T07:00:00	5	Humedad	74
28973	7	Sololá	717	San Juan la Laguna	12	San Juan la Laguna	1	Enero	2023-05-01T00:00:00	2024-11-08T07:00:00	6	Velocidad del viento	4.8
28974	7	Sololá	717	San Juan la Laguna	12	San Juan la Laguna	1	Enero	2023-05-01T00:00:00	2024-11-08T07:00:00	7	Dirección del viento	4.83
28975	7	Sololá	717	San Juan la Laguna	12	San Juan la Laguna	1	Enero	2023-05-01T00:00:00	2024-11-08T07:00:00	1	Precipitación	0
28976	7	Sololá	717	San Juan la Laguna	12	San Juan la Laguna	1	Enero	2023-05-01T00:00:00	2024-11-08T07:00:00	8	Radiación solar	6
28977	7	Sololá	717	San Juan la Laguna	12	San Juan la Laguna	1	Enero	2023-05-01T00:00:00	2024-11-08T08:00:00	2	Temperatura media	15.8
28978	7	Sololá	717	San Juan la Laguna	12	San Juan la Laguna	1	Enero	2023-05-01T00:00:00	2024-11-08T08:00:00	4	Temperatura máxima	15.8
28979	7	Sololá	717	San Juan la Laguna	12	San Juan la Laguna	1	Enero	2023-05-01T00:00:00	2024-11-08T08:00:00	3	Temperatura mínima	13.7
28980	7	Sololá	717	San Juan la Laguna	12	San Juan la Laguna	1	Enero	2023-05-01T00:00:00	2024-11-08T08:00:00	5	Humedad	75
28981	7	Sololá	717	San Juan la Laguna	12	San Juan la Laguna	1	Enero	2023-05-01T00:00:00	2024-11-08T08:00:00	6	Velocidad del viento	1.6
28982	7	Sololá	717	San Juan la Laguna	12	San Juan la Laguna	1	Enero	2023-05-01T00:00:00	2024-11-08T08:00:00	7	Dirección del viento	1.61
28983	7	Sololá	717	San Juan la Laguna	12	San Juan la Laguna	1	Enero	2023-05-01T00:00:00	2024-11-08T08:00:00	1	Precipitación	0
28984	7	Sololá	717	San Juan la Laguna	12	San Juan la Laguna	1	Enero	2023-05-01T00:00:00	2024-11-08T08:00:00	8	Radiación solar	67
28985	7	Sololá	717	San Juan la Laguna	12	San Juan la Laguna	1	Enero	2023-05-01T00:00:00	2024-11-08T09:00:00	2	Temperatura media	18.8
28986	7	Sololá	717	San Juan la Laguna	12	San Juan la Laguna	1	Enero	2023-05-01T00:00:00	2024-11-08T09:00:00	4	Temperatura máxima	18.8
28987	7	Sololá	717	San Juan la Laguna	12	San Juan la Laguna	1	Enero	2023-05-01T00:00:00	2024-11-08T09:00:00	3	Temperatura mínima	15.8
28988	7	Sololá	717	San Juan la Laguna	12	San Juan la Laguna	1	Enero	2023-05-01T00:00:00	2024-11-08T09:00:00	5	Humedad	63
28989	7	Sololá	717	San Juan la Laguna	12	San Juan la Laguna	1	Enero	2023-05-01T00:00:00	2024-11-08T09:00:00	6	Velocidad del viento	3.2
28990	7	Sololá	717	San Juan la Laguna	12	San Juan la Laguna	1	Enero	2023-05-01T00:00:00	2024-11-08T09:00:00	7	Dirección del viento	3.22
28991	7	Sololá	717	San Juan la Laguna	12	San Juan la Laguna	1	Enero	2023-05-01T00:00:00	2024-11-08T09:00:00	1	Precipitación	0
28992	7	Sololá	717	San Juan la Laguna	12	San Juan la Laguna	1	Enero	2023-05-01T00:00:00	2024-11-08T09:00:00	8	Radiación solar	265
28993	7	Sololá	717	San Juan la Laguna	12	San Juan la Laguna	1	Enero	2023-05-01T00:00:00	2024-11-08T10:00:00	2	Temperatura media	20.4
28994	7	Sololá	717	San Juan la Laguna	12	San Juan la Laguna	1	Enero	2023-05-01T00:00:00	2024-11-08T10:00:00	4	Temperatura máxima	20.6
28995	7	Sololá	717	San Juan la Laguna	12	San Juan la Laguna	1	Enero	2023-05-01T00:00:00	2024-11-08T10:00:00	3	Temperatura mínima	18.8
28996	7	Sololá	717	San Juan la Laguna	12	San Juan la Laguna	1	Enero	2023-05-01T00:00:00	2024-11-08T10:00:00	5	Humedad	59
28997	7	Sololá	717	San Juan la Laguna	12	San Juan la Laguna	1	Enero	2023-05-01T00:00:00	2024-11-08T10:00:00	6	Velocidad del viento	4.8
28998	7	Sololá	717	San Juan la Laguna	12	San Juan la Laguna	1	Enero	2023-05-01T00:00:00	2024-11-08T10:00:00	7	Dirección del viento	4.83
28999	7	Sololá	717	San Juan la Laguna	12	San Juan la Laguna	1	Enero	2023-05-01T00:00:00	2024-11-08T10:00:00	1	Precipitación	0
29000	7	Sololá	717	San Juan la Laguna	12	San Juan la Laguna	1	Enero	2023-05-01T00:00:00	2024-11-08T10:00:00	8	Radiación solar	543
29001	7	Sololá	717	San Juan la Laguna	12	San Juan la Laguna	1	Enero	2023-05-01T00:00:00	2024-11-08T11:00:00	2	Temperatura media	21.4
29002	7	Sololá	717	San Juan la Laguna	12	San Juan la Laguna	1	Enero	2023-05-01T00:00:00	2024-11-08T11:00:00	4	Temperatura máxima	21.7
29003	7	Sololá	717	San Juan la Laguna	12	San Juan la Laguna	1	Enero	2023-05-01T00:00:00	2024-11-08T11:00:00	3	Temperatura mínima	20.4
29004	7	Sololá	717	San Juan la Laguna	12	San Juan la Laguna	1	Enero	2023-05-01T00:00:00	2024-11-08T11:00:00	5	Humedad	53
29005	7	Sololá	717	San Juan la Laguna	12	San Juan la Laguna	1	Enero	2023-05-01T00:00:00	2024-11-08T11:00:00	6	Velocidad del viento	14.5
29006	7	Sololá	717	San Juan la Laguna	12	San Juan la Laguna	1	Enero	2023-05-01T00:00:00	2024-11-08T11:00:00	7	Dirección del viento	14.48
29007	7	Sololá	717	San Juan la Laguna	12	San Juan la Laguna	1	Enero	2023-05-01T00:00:00	2024-11-08T11:00:00	1	Precipitación	0
29008	7	Sololá	717	San Juan la Laguna	12	San Juan la Laguna	1	Enero	2023-05-01T00:00:00	2024-11-08T11:00:00	8	Radiación solar	604
29009	7	Sololá	717	San Juan la Laguna	12	San Juan la Laguna	1	Enero	2023-05-01T00:00:00	2024-11-08T12:00:00	2	Temperatura media	22.2
29010	7	Sololá	717	San Juan la Laguna	12	San Juan la Laguna	1	Enero	2023-05-01T00:00:00	2024-11-08T12:00:00	4	Temperatura máxima	22.2
29011	7	Sololá	717	San Juan la Laguna	12	San Juan la Laguna	1	Enero	2023-05-01T00:00:00	2024-11-08T12:00:00	3	Temperatura mínima	21.2
29012	7	Sololá	717	San Juan la Laguna	12	San Juan la Laguna	1	Enero	2023-05-01T00:00:00	2024-11-08T12:00:00	5	Humedad	51
29013	7	Sololá	717	San Juan la Laguna	12	San Juan la Laguna	1	Enero	2023-05-01T00:00:00	2024-11-08T12:00:00	6	Velocidad del viento	16.1
29014	7	Sololá	717	San Juan la Laguna	12	San Juan la Laguna	1	Enero	2023-05-01T00:00:00	2024-11-08T12:00:00	7	Dirección del viento	16.09
29015	7	Sololá	717	San Juan la Laguna	12	San Juan la Laguna	1	Enero	2023-05-01T00:00:00	2024-11-08T12:00:00	1	Precipitación	0
29016	7	Sololá	717	San Juan la Laguna	12	San Juan la Laguna	1	Enero	2023-05-01T00:00:00	2024-11-08T12:00:00	8	Radiación solar	690
29017	7	Sololá	717	San Juan la Laguna	12	San Juan la Laguna	1	Enero	2023-05-01T00:00:00	2024-11-08T13:00:00	2	Temperatura media	21.9
29018	7	Sololá	717	San Juan la Laguna	12	San Juan la Laguna	1	Enero	2023-05-01T00:00:00	2024-11-08T13:00:00	4	Temperatura máxima	22.4
29019	7	Sololá	717	San Juan la Laguna	12	San Juan la Laguna	1	Enero	2023-05-01T00:00:00	2024-11-08T13:00:00	3	Temperatura mínima	21.6
29020	7	Sololá	717	San Juan la Laguna	12	San Juan la Laguna	1	Enero	2023-05-01T00:00:00	2024-11-08T13:00:00	5	Humedad	53
29021	7	Sololá	717	San Juan la Laguna	12	San Juan la Laguna	1	Enero	2023-05-01T00:00:00	2024-11-08T13:00:00	6	Velocidad del viento	16.1
29022	7	Sololá	717	San Juan la Laguna	12	San Juan la Laguna	1	Enero	2023-05-01T00:00:00	2024-11-08T13:00:00	7	Dirección del viento	16.09
29023	7	Sololá	717	San Juan la Laguna	12	San Juan la Laguna	1	Enero	2023-05-01T00:00:00	2024-11-08T13:00:00	1	Precipitación	0
29024	7	Sololá	717	San Juan la Laguna	12	San Juan la Laguna	1	Enero	2023-05-01T00:00:00	2024-11-08T13:00:00	8	Radiación solar	761
29025	7	Sololá	717	San Juan la Laguna	12	San Juan la Laguna	1	Enero	2023-05-01T00:00:00	2024-11-08T14:00:00	2	Temperatura media	21.1
29026	7	Sololá	717	San Juan la Laguna	12	San Juan la Laguna	1	Enero	2023-05-01T00:00:00	2024-11-08T14:00:00	4	Temperatura máxima	22.1
29027	7	Sololá	717	San Juan la Laguna	12	San Juan la Laguna	1	Enero	2023-05-01T00:00:00	2024-11-08T14:00:00	3	Temperatura mínima	20.9
29028	7	Sololá	717	San Juan la Laguna	12	San Juan la Laguna	1	Enero	2023-05-01T00:00:00	2024-11-08T14:00:00	5	Humedad	59
29029	7	Sololá	717	San Juan la Laguna	12	San Juan la Laguna	1	Enero	2023-05-01T00:00:00	2024-11-08T14:00:00	6	Velocidad del viento	8
29030	7	Sololá	717	San Juan la Laguna	12	San Juan la Laguna	1	Enero	2023-05-01T00:00:00	2024-11-08T14:00:00	7	Dirección del viento	8.05
29031	7	Sololá	717	San Juan la Laguna	12	San Juan la Laguna	1	Enero	2023-05-01T00:00:00	2024-11-08T14:00:00	1	Precipitación	0
29032	7	Sololá	717	San Juan la Laguna	12	San Juan la Laguna	1	Enero	2023-05-01T00:00:00	2024-11-08T14:00:00	8	Radiación solar	347
29033	7	Sololá	717	San Juan la Laguna	12	San Juan la Laguna	1	Enero	2023-05-01T00:00:00	2024-11-08T15:00:00	2	Temperatura media	19.7
29034	7	Sololá	717	San Juan la Laguna	12	San Juan la Laguna	1	Enero	2023-05-01T00:00:00	2024-11-08T15:00:00	4	Temperatura máxima	21.1
29035	7	Sololá	717	San Juan la Laguna	12	San Juan la Laguna	1	Enero	2023-05-01T00:00:00	2024-11-08T15:00:00	3	Temperatura mínima	19.6
29036	7	Sololá	717	San Juan la Laguna	12	San Juan la Laguna	1	Enero	2023-05-01T00:00:00	2024-11-08T15:00:00	5	Humedad	65
29037	7	Sololá	717	San Juan la Laguna	12	San Juan la Laguna	1	Enero	2023-05-01T00:00:00	2024-11-08T15:00:00	6	Velocidad del viento	6.4
29038	7	Sololá	717	San Juan la Laguna	12	San Juan la Laguna	1	Enero	2023-05-01T00:00:00	2024-11-08T15:00:00	7	Dirección del viento	6.44
29039	7	Sololá	717	San Juan la Laguna	12	San Juan la Laguna	1	Enero	2023-05-01T00:00:00	2024-11-08T15:00:00	1	Precipitación	0
29040	7	Sololá	717	San Juan la Laguna	12	San Juan la Laguna	1	Enero	2023-05-01T00:00:00	2024-11-08T15:00:00	8	Radiación solar	192
29041	7	Sololá	717	San Juan la Laguna	12	San Juan la Laguna	1	Enero	2023-05-01T00:00:00	2024-11-08T16:00:00	2	Temperatura media	19.9
29042	7	Sololá	717	San Juan la Laguna	12	San Juan la Laguna	1	Enero	2023-05-01T00:00:00	2024-11-08T16:00:00	4	Temperatura máxima	20.7
29043	7	Sololá	717	San Juan la Laguna	12	San Juan la Laguna	1	Enero	2023-05-01T00:00:00	2024-11-08T16:00:00	3	Temperatura mínima	19.7
29044	7	Sololá	717	San Juan la Laguna	12	San Juan la Laguna	1	Enero	2023-05-01T00:00:00	2024-11-08T16:00:00	5	Humedad	62
29045	7	Sololá	717	San Juan la Laguna	12	San Juan la Laguna	1	Enero	2023-05-01T00:00:00	2024-11-08T16:00:00	6	Velocidad del viento	4.8
29046	7	Sololá	717	San Juan la Laguna	12	San Juan la Laguna	1	Enero	2023-05-01T00:00:00	2024-11-08T16:00:00	7	Dirección del viento	4.83
29047	7	Sololá	717	San Juan la Laguna	12	San Juan la Laguna	1	Enero	2023-05-01T00:00:00	2024-11-08T16:00:00	1	Precipitación	0
29048	7	Sololá	717	San Juan la Laguna	12	San Juan la Laguna	1	Enero	2023-05-01T00:00:00	2024-11-08T16:00:00	8	Radiación solar	180
29049	7	Sololá	717	San Juan la Laguna	12	San Juan la Laguna	1	Enero	2023-05-01T00:00:00	2024-11-08T17:00:00	2	Temperatura media	19.6
29050	7	Sololá	717	San Juan la Laguna	12	San Juan la Laguna	1	Enero	2023-05-01T00:00:00	2024-11-08T17:00:00	4	Temperatura máxima	19.9
29051	7	Sololá	717	San Juan la Laguna	12	San Juan la Laguna	1	Enero	2023-05-01T00:00:00	2024-11-08T17:00:00	3	Temperatura mínima	19.6
29052	7	Sololá	717	San Juan la Laguna	12	San Juan la Laguna	1	Enero	2023-05-01T00:00:00	2024-11-08T17:00:00	5	Humedad	66
29053	7	Sololá	717	San Juan la Laguna	12	San Juan la Laguna	1	Enero	2023-05-01T00:00:00	2024-11-08T17:00:00	6	Velocidad del viento	4.8
29054	7	Sololá	717	San Juan la Laguna	12	San Juan la Laguna	1	Enero	2023-05-01T00:00:00	2024-11-08T17:00:00	7	Dirección del viento	4.83
29055	7	Sololá	717	San Juan la Laguna	12	San Juan la Laguna	1	Enero	2023-05-01T00:00:00	2024-11-08T17:00:00	1	Precipitación	0
29056	7	Sololá	717	San Juan la Laguna	12	San Juan la Laguna	1	Enero	2023-05-01T00:00:00	2024-11-08T17:00:00	8	Radiación solar	84
29057	7	Sololá	717	San Juan la Laguna	12	San Juan la Laguna	1	Enero	2023-05-01T00:00:00	2024-11-08T18:00:00	2	Temperatura media	19.2
29058	7	Sololá	717	San Juan la Laguna	12	San Juan la Laguna	1	Enero	2023-05-01T00:00:00	2024-11-08T18:00:00	4	Temperatura máxima	19.6
29059	7	Sololá	717	San Juan la Laguna	12	San Juan la Laguna	1	Enero	2023-05-01T00:00:00	2024-11-08T18:00:00	3	Temperatura mínima	18.7
29060	7	Sololá	717	San Juan la Laguna	12	San Juan la Laguna	1	Enero	2023-05-01T00:00:00	2024-11-08T18:00:00	5	Humedad	59
29061	7	Sololá	717	San Juan la Laguna	12	San Juan la Laguna	1	Enero	2023-05-01T00:00:00	2024-11-08T18:00:00	6	Velocidad del viento	12.9
29062	7	Sololá	717	San Juan la Laguna	12	San Juan la Laguna	1	Enero	2023-05-01T00:00:00	2024-11-08T18:00:00	7	Dirección del viento	12.87
29063	7	Sololá	717	San Juan la Laguna	12	San Juan la Laguna	1	Enero	2023-05-01T00:00:00	2024-11-08T18:00:00	1	Precipitación	0
29064	7	Sololá	717	San Juan la Laguna	12	San Juan la Laguna	1	Enero	2023-05-01T00:00:00	2024-11-08T18:00:00	8	Radiación solar	12
29065	7	Sololá	717	San Juan la Laguna	12	San Juan la Laguna	1	Enero	2023-05-01T00:00:00	2024-11-08T19:00:00	2	Temperatura media	17.8
29066	7	Sololá	717	San Juan la Laguna	12	San Juan la Laguna	1	Enero	2023-05-01T00:00:00	2024-11-08T19:00:00	4	Temperatura máxima	19.2
29067	7	Sololá	717	San Juan la Laguna	12	San Juan la Laguna	1	Enero	2023-05-01T00:00:00	2024-11-08T19:00:00	3	Temperatura mínima	17.8
29068	7	Sololá	717	San Juan la Laguna	12	San Juan la Laguna	1	Enero	2023-05-01T00:00:00	2024-11-08T19:00:00	5	Humedad	65
29069	7	Sololá	717	San Juan la Laguna	12	San Juan la Laguna	1	Enero	2023-05-01T00:00:00	2024-11-08T19:00:00	6	Velocidad del viento	12.9
29070	7	Sololá	717	San Juan la Laguna	12	San Juan la Laguna	1	Enero	2023-05-01T00:00:00	2024-11-08T19:00:00	7	Dirección del viento	12.87
29071	7	Sololá	717	San Juan la Laguna	12	San Juan la Laguna	1	Enero	2023-05-01T00:00:00	2024-11-08T19:00:00	1	Precipitación	0
29072	7	Sololá	717	San Juan la Laguna	12	San Juan la Laguna	1	Enero	2023-05-01T00:00:00	2024-11-08T19:00:00	8	Radiación solar	0
29073	7	Sololá	717	San Juan la Laguna	12	San Juan la Laguna	1	Enero	2023-05-01T00:00:00	2024-11-08T20:00:00	2	Temperatura media	18.1
29074	7	Sololá	717	San Juan la Laguna	12	San Juan la Laguna	1	Enero	2023-05-01T00:00:00	2024-11-08T20:00:00	4	Temperatura máxima	18.1
29075	7	Sololá	717	San Juan la Laguna	12	San Juan la Laguna	1	Enero	2023-05-01T00:00:00	2024-11-08T20:00:00	3	Temperatura mínima	17.7
29076	7	Sololá	717	San Juan la Laguna	12	San Juan la Laguna	1	Enero	2023-05-01T00:00:00	2024-11-08T20:00:00	5	Humedad	65
29077	7	Sololá	717	San Juan la Laguna	12	San Juan la Laguna	1	Enero	2023-05-01T00:00:00	2024-11-08T20:00:00	6	Velocidad del viento	14.5
29078	7	Sololá	717	San Juan la Laguna	12	San Juan la Laguna	1	Enero	2023-05-01T00:00:00	2024-11-08T20:00:00	7	Dirección del viento	14.48
29079	7	Sololá	717	San Juan la Laguna	12	San Juan la Laguna	1	Enero	2023-05-01T00:00:00	2024-11-08T20:00:00	1	Precipitación	0
29080	7	Sololá	717	San Juan la Laguna	12	San Juan la Laguna	1	Enero	2023-05-01T00:00:00	2024-11-08T20:00:00	8	Radiación solar	0
29081	7	Sololá	717	San Juan la Laguna	12	San Juan la Laguna	1	Enero	2023-05-01T00:00:00	2024-11-08T21:00:00	2	Temperatura media	17.7
29082	7	Sololá	717	San Juan la Laguna	12	San Juan la Laguna	1	Enero	2023-05-01T00:00:00	2024-11-08T21:00:00	4	Temperatura máxima	18.1
29083	7	Sololá	717	San Juan la Laguna	12	San Juan la Laguna	1	Enero	2023-05-01T00:00:00	2024-11-08T21:00:00	3	Temperatura mínima	17.7
29084	7	Sololá	717	San Juan la Laguna	12	San Juan la Laguna	1	Enero	2023-05-01T00:00:00	2024-11-08T21:00:00	5	Humedad	61
29085	7	Sololá	717	San Juan la Laguna	12	San Juan la Laguna	1	Enero	2023-05-01T00:00:00	2024-11-08T21:00:00	6	Velocidad del viento	16.1
29086	7	Sololá	717	San Juan la Laguna	12	San Juan la Laguna	1	Enero	2023-05-01T00:00:00	2024-11-08T21:00:00	7	Dirección del viento	16.09
29087	7	Sololá	717	San Juan la Laguna	12	San Juan la Laguna	1	Enero	2023-05-01T00:00:00	2024-11-08T21:00:00	1	Precipitación	0
29088	7	Sololá	717	San Juan la Laguna	12	San Juan la Laguna	1	Enero	2023-05-01T00:00:00	2024-11-08T21:00:00	8	Radiación solar	0
29089	7	Sololá	717	San Juan la Laguna	12	San Juan la Laguna	1	Enero	2023-05-01T00:00:00	2024-11-08T22:00:00	2	Temperatura media	17.3
29090	7	Sololá	717	San Juan la Laguna	12	San Juan la Laguna	1	Enero	2023-05-01T00:00:00	2024-11-08T22:00:00	4	Temperatura máxima	17.7
29091	7	Sololá	717	San Juan la Laguna	12	San Juan la Laguna	1	Enero	2023-05-01T00:00:00	2024-11-08T22:00:00	3	Temperatura mínima	17.3
29092	7	Sololá	717	San Juan la Laguna	12	San Juan la Laguna	1	Enero	2023-05-01T00:00:00	2024-11-08T22:00:00	5	Humedad	62
29093	7	Sololá	717	San Juan la Laguna	12	San Juan la Laguna	1	Enero	2023-05-01T00:00:00	2024-11-08T22:00:00	6	Velocidad del viento	17.7
29094	7	Sololá	717	San Juan la Laguna	12	San Juan la Laguna	1	Enero	2023-05-01T00:00:00	2024-11-08T22:00:00	7	Dirección del viento	17.7
29095	7	Sololá	717	San Juan la Laguna	12	San Juan la Laguna	1	Enero	2023-05-01T00:00:00	2024-11-08T22:00:00	1	Precipitación	0
29096	7	Sololá	717	San Juan la Laguna	12	San Juan la Laguna	1	Enero	2023-05-01T00:00:00	2024-11-08T22:00:00	8	Radiación solar	0
29097	7	Sololá	717	San Juan la Laguna	12	San Juan la Laguna	1	Enero	2023-05-01T00:00:00	2024-11-08T23:00:00	2	Temperatura media	17.3
29098	7	Sololá	717	San Juan la Laguna	12	San Juan la Laguna	1	Enero	2023-05-01T00:00:00	2024-11-08T23:00:00	4	Temperatura máxima	17.7
29099	7	Sololá	717	San Juan la Laguna	12	San Juan la Laguna	1	Enero	2023-05-01T00:00:00	2024-11-08T23:00:00	3	Temperatura mínima	17.3
29100	7	Sololá	717	San Juan la Laguna	12	San Juan la Laguna	1	Enero	2023-05-01T00:00:00	2024-11-08T23:00:00	5	Humedad	57
29101	7	Sololá	717	San Juan la Laguna	12	San Juan la Laguna	1	Enero	2023-05-01T00:00:00	2024-11-08T23:00:00	6	Velocidad del viento	16.1
29102	7	Sololá	717	San Juan la Laguna	12	San Juan la Laguna	1	Enero	2023-05-01T00:00:00	2024-11-08T23:00:00	7	Dirección del viento	16.09
29103	7	Sololá	717	San Juan la Laguna	12	San Juan la Laguna	1	Enero	2023-05-01T00:00:00	2024-11-08T23:00:00	1	Precipitación	0
29104	7	Sololá	717	San Juan la Laguna	12	San Juan la Laguna	1	Enero	2023-05-01T00:00:00	2024-11-08T23:00:00	8	Radiación solar	0
29105	7	Sololá	717	San Juan la Laguna	12	San Juan la Laguna	1	Enero	2023-06-01T00:00:00	2024-11-08T00:00:00	2	Temperatura media	17.2
29106	7	Sololá	717	San Juan la Laguna	12	San Juan la Laguna	1	Enero	2023-06-01T00:00:00	2024-11-08T00:00:00	4	Temperatura máxima	17.3
29107	7	Sololá	717	San Juan la Laguna	12	San Juan la Laguna	1	Enero	2023-06-01T00:00:00	2024-11-08T00:00:00	3	Temperatura mínima	17.2
29108	7	Sololá	717	San Juan la Laguna	12	San Juan la Laguna	1	Enero	2023-06-01T00:00:00	2024-11-08T00:00:00	5	Humedad	54
29109	7	Sololá	717	San Juan la Laguna	12	San Juan la Laguna	1	Enero	2023-06-01T00:00:00	2024-11-08T00:00:00	6	Velocidad del viento	17.7
29110	7	Sololá	717	San Juan la Laguna	12	San Juan la Laguna	1	Enero	2023-06-01T00:00:00	2024-11-08T00:00:00	7	Dirección del viento	17.7
29111	7	Sololá	717	San Juan la Laguna	12	San Juan la Laguna	1	Enero	2023-06-01T00:00:00	2024-11-08T00:00:00	1	Precipitación	0
29112	7	Sololá	717	San Juan la Laguna	12	San Juan la Laguna	1	Enero	2023-06-01T00:00:00	2024-11-08T00:00:00	8	Radiación solar	0
29113	7	Sololá	717	San Juan la Laguna	12	San Juan la Laguna	1	Enero	2023-06-01T00:00:00	2024-11-08T01:00:00	2	Temperatura media	16.7
29114	7	Sololá	717	San Juan la Laguna	12	San Juan la Laguna	1	Enero	2023-06-01T00:00:00	2024-11-08T01:00:00	4	Temperatura máxima	17.2
29115	7	Sololá	717	San Juan la Laguna	12	San Juan la Laguna	1	Enero	2023-06-01T00:00:00	2024-11-08T01:00:00	3	Temperatura mínima	16.7
29116	7	Sololá	717	San Juan la Laguna	12	San Juan la Laguna	1	Enero	2023-06-01T00:00:00	2024-11-08T01:00:00	5	Humedad	54
29117	7	Sololá	717	San Juan la Laguna	12	San Juan la Laguna	1	Enero	2023-06-01T00:00:00	2024-11-08T01:00:00	6	Velocidad del viento	19.3
29118	7	Sololá	717	San Juan la Laguna	12	San Juan la Laguna	1	Enero	2023-06-01T00:00:00	2024-11-08T01:00:00	7	Dirección del viento	19.31
29119	7	Sololá	717	San Juan la Laguna	12	San Juan la Laguna	1	Enero	2023-06-01T00:00:00	2024-11-08T01:00:00	1	Precipitación	0
29120	7	Sololá	717	San Juan la Laguna	12	San Juan la Laguna	1	Enero	2023-06-01T00:00:00	2024-11-08T01:00:00	8	Radiación solar	0
29121	7	Sololá	717	San Juan la Laguna	12	San Juan la Laguna	1	Enero	2023-06-01T00:00:00	2024-11-08T02:00:00	2	Temperatura media	16.6
29122	7	Sololá	717	San Juan la Laguna	12	San Juan la Laguna	1	Enero	2023-06-01T00:00:00	2024-11-08T02:00:00	4	Temperatura máxima	16.8
29123	7	Sololá	717	San Juan la Laguna	12	San Juan la Laguna	1	Enero	2023-06-01T00:00:00	2024-11-08T02:00:00	3	Temperatura mínima	16.6
29124	7	Sololá	717	San Juan la Laguna	12	San Juan la Laguna	1	Enero	2023-06-01T00:00:00	2024-11-08T02:00:00	5	Humedad	52
29125	7	Sololá	717	San Juan la Laguna	12	San Juan la Laguna	1	Enero	2023-06-01T00:00:00	2024-11-08T02:00:00	6	Velocidad del viento	16.1
29126	7	Sololá	717	San Juan la Laguna	12	San Juan la Laguna	1	Enero	2023-06-01T00:00:00	2024-11-08T02:00:00	7	Dirección del viento	16.09
29127	7	Sololá	717	San Juan la Laguna	12	San Juan la Laguna	1	Enero	2023-06-01T00:00:00	2024-11-08T02:00:00	1	Precipitación	0
29128	7	Sololá	717	San Juan la Laguna	12	San Juan la Laguna	1	Enero	2023-06-01T00:00:00	2024-11-08T02:00:00	8	Radiación solar	0
29129	7	Sololá	717	San Juan la Laguna	12	San Juan la Laguna	1	Enero	2023-06-01T00:00:00	2024-11-08T03:00:00	2	Temperatura media	16.3
29130	7	Sololá	717	San Juan la Laguna	12	San Juan la Laguna	1	Enero	2023-06-01T00:00:00	2024-11-08T03:00:00	4	Temperatura máxima	16.9
29131	7	Sololá	717	San Juan la Laguna	12	San Juan la Laguna	1	Enero	2023-06-01T00:00:00	2024-11-08T03:00:00	3	Temperatura mínima	16.3
29132	7	Sololá	717	San Juan la Laguna	12	San Juan la Laguna	1	Enero	2023-06-01T00:00:00	2024-11-08T03:00:00	5	Humedad	49
29133	7	Sololá	717	San Juan la Laguna	12	San Juan la Laguna	1	Enero	2023-06-01T00:00:00	2024-11-08T03:00:00	6	Velocidad del viento	12.9
29134	7	Sololá	717	San Juan la Laguna	12	San Juan la Laguna	1	Enero	2023-06-01T00:00:00	2024-11-08T03:00:00	7	Dirección del viento	12.87
29135	7	Sololá	717	San Juan la Laguna	12	San Juan la Laguna	1	Enero	2023-06-01T00:00:00	2024-11-08T03:00:00	1	Precipitación	0
29136	7	Sololá	717	San Juan la Laguna	12	San Juan la Laguna	1	Enero	2023-06-01T00:00:00	2024-11-08T03:00:00	8	Radiación solar	0
29137	7	Sololá	717	San Juan la Laguna	12	San Juan la Laguna	1	Enero	2023-06-01T00:00:00	2024-11-08T04:00:00	2	Temperatura media	15.9
29138	7	Sololá	717	San Juan la Laguna	12	San Juan la Laguna	1	Enero	2023-06-01T00:00:00	2024-11-08T04:00:00	4	Temperatura máxima	16.3
29139	7	Sololá	717	San Juan la Laguna	12	San Juan la Laguna	1	Enero	2023-06-01T00:00:00	2024-11-08T04:00:00	3	Temperatura mínima	15.8
29140	7	Sololá	717	San Juan la Laguna	12	San Juan la Laguna	1	Enero	2023-06-01T00:00:00	2024-11-08T04:00:00	5	Humedad	53
29141	7	Sololá	717	San Juan la Laguna	12	San Juan la Laguna	1	Enero	2023-06-01T00:00:00	2024-11-08T04:00:00	6	Velocidad del viento	12.9
29142	7	Sololá	717	San Juan la Laguna	12	San Juan la Laguna	1	Enero	2023-06-01T00:00:00	2024-11-08T04:00:00	7	Dirección del viento	12.87
29143	7	Sololá	717	San Juan la Laguna	12	San Juan la Laguna	1	Enero	2023-06-01T00:00:00	2024-11-08T04:00:00	1	Precipitación	0
29144	7	Sololá	717	San Juan la Laguna	12	San Juan la Laguna	1	Enero	2023-06-01T00:00:00	2024-11-08T04:00:00	8	Radiación solar	0
29145	7	Sololá	717	San Juan la Laguna	12	San Juan la Laguna	1	Enero	2023-06-01T00:00:00	2024-11-08T05:00:00	2	Temperatura media	15.9
29146	7	Sololá	717	San Juan la Laguna	12	San Juan la Laguna	1	Enero	2023-06-01T00:00:00	2024-11-08T05:00:00	4	Temperatura máxima	16
29147	7	Sololá	717	San Juan la Laguna	12	San Juan la Laguna	1	Enero	2023-06-01T00:00:00	2024-11-08T05:00:00	3	Temperatura mínima	15.7
29148	7	Sololá	717	San Juan la Laguna	12	San Juan la Laguna	1	Enero	2023-06-01T00:00:00	2024-11-08T05:00:00	5	Humedad	50
29149	7	Sololá	717	San Juan la Laguna	12	San Juan la Laguna	1	Enero	2023-06-01T00:00:00	2024-11-08T05:00:00	6	Velocidad del viento	14.5
29150	7	Sololá	717	San Juan la Laguna	12	San Juan la Laguna	1	Enero	2023-06-01T00:00:00	2024-11-08T05:00:00	7	Dirección del viento	14.48
29151	7	Sololá	717	San Juan la Laguna	12	San Juan la Laguna	1	Enero	2023-06-01T00:00:00	2024-11-08T05:00:00	1	Precipitación	0
29152	7	Sololá	717	San Juan la Laguna	12	San Juan la Laguna	1	Enero	2023-06-01T00:00:00	2024-11-08T05:00:00	8	Radiación solar	0
29153	7	Sololá	717	San Juan la Laguna	12	San Juan la Laguna	1	Enero	2023-06-01T00:00:00	2024-11-08T06:00:00	2	Temperatura media	15.6
29154	7	Sololá	717	San Juan la Laguna	12	San Juan la Laguna	1	Enero	2023-06-01T00:00:00	2024-11-08T06:00:00	4	Temperatura máxima	16.1
29155	7	Sololá	717	San Juan la Laguna	12	San Juan la Laguna	1	Enero	2023-06-01T00:00:00	2024-11-08T06:00:00	3	Temperatura mínima	15.6
29156	7	Sololá	717	San Juan la Laguna	12	San Juan la Laguna	1	Enero	2023-06-01T00:00:00	2024-11-08T06:00:00	5	Humedad	54
29157	7	Sololá	717	San Juan la Laguna	12	San Juan la Laguna	1	Enero	2023-06-01T00:00:00	2024-11-08T06:00:00	6	Velocidad del viento	12.9
29158	7	Sololá	717	San Juan la Laguna	12	San Juan la Laguna	1	Enero	2023-06-01T00:00:00	2024-11-08T06:00:00	7	Dirección del viento	12.87
29159	7	Sololá	717	San Juan la Laguna	12	San Juan la Laguna	1	Enero	2023-06-01T00:00:00	2024-11-08T06:00:00	1	Precipitación	0
29160	7	Sololá	717	San Juan la Laguna	12	San Juan la Laguna	1	Enero	2023-06-01T00:00:00	2024-11-08T06:00:00	8	Radiación solar	0
29161	7	Sololá	717	San Juan la Laguna	12	San Juan la Laguna	1	Enero	2023-06-01T00:00:00	2024-11-08T07:00:00	2	Temperatura media	15.6
29162	7	Sololá	717	San Juan la Laguna	12	San Juan la Laguna	1	Enero	2023-06-01T00:00:00	2024-11-08T07:00:00	4	Temperatura máxima	15.6
29163	7	Sololá	717	San Juan la Laguna	12	San Juan la Laguna	1	Enero	2023-06-01T00:00:00	2024-11-08T07:00:00	3	Temperatura mínima	15.4
29164	7	Sololá	717	San Juan la Laguna	12	San Juan la Laguna	1	Enero	2023-06-01T00:00:00	2024-11-08T07:00:00	5	Humedad	55
29165	7	Sololá	717	San Juan la Laguna	12	San Juan la Laguna	1	Enero	2023-06-01T00:00:00	2024-11-08T07:00:00	6	Velocidad del viento	12.9
29166	7	Sololá	717	San Juan la Laguna	12	San Juan la Laguna	1	Enero	2023-06-01T00:00:00	2024-11-08T07:00:00	7	Dirección del viento	12.87
29167	7	Sololá	717	San Juan la Laguna	12	San Juan la Laguna	1	Enero	2023-06-01T00:00:00	2024-11-08T07:00:00	1	Precipitación	0
29168	7	Sololá	717	San Juan la Laguna	12	San Juan la Laguna	1	Enero	2023-06-01T00:00:00	2024-11-08T07:00:00	8	Radiación solar	4
29169	7	Sololá	717	San Juan la Laguna	12	San Juan la Laguna	1	Enero	2023-06-01T00:00:00	2024-11-08T08:00:00	2	Temperatura media	17.6
29170	7	Sololá	717	San Juan la Laguna	12	San Juan la Laguna	1	Enero	2023-06-01T00:00:00	2024-11-08T08:00:00	4	Temperatura máxima	17.6
29171	7	Sololá	717	San Juan la Laguna	12	San Juan la Laguna	1	Enero	2023-06-01T00:00:00	2024-11-08T08:00:00	3	Temperatura mínima	15.6
29172	7	Sololá	717	San Juan la Laguna	12	San Juan la Laguna	1	Enero	2023-06-01T00:00:00	2024-11-08T08:00:00	5	Humedad	51
29173	7	Sololá	717	San Juan la Laguna	12	San Juan la Laguna	1	Enero	2023-06-01T00:00:00	2024-11-08T08:00:00	6	Velocidad del viento	8
29174	7	Sololá	717	San Juan la Laguna	12	San Juan la Laguna	1	Enero	2023-06-01T00:00:00	2024-11-08T08:00:00	7	Dirección del viento	8.05
29175	7	Sololá	717	San Juan la Laguna	12	San Juan la Laguna	1	Enero	2023-06-01T00:00:00	2024-11-08T08:00:00	1	Precipitación	0
29176	7	Sololá	717	San Juan la Laguna	12	San Juan la Laguna	1	Enero	2023-06-01T00:00:00	2024-11-08T08:00:00	8	Radiación solar	129
29177	7	Sololá	717	San Juan la Laguna	12	San Juan la Laguna	1	Enero	2023-06-01T00:00:00	2024-11-08T09:00:00	2	Temperatura media	18.6
29178	7	Sololá	717	San Juan la Laguna	12	San Juan la Laguna	1	Enero	2023-06-01T00:00:00	2024-11-08T09:00:00	4	Temperatura máxima	18.6
29179	7	Sololá	717	San Juan la Laguna	12	San Juan la Laguna	1	Enero	2023-06-01T00:00:00	2024-11-08T09:00:00	3	Temperatura mínima	17.6
29180	7	Sololá	717	San Juan la Laguna	12	San Juan la Laguna	1	Enero	2023-06-01T00:00:00	2024-11-08T09:00:00	5	Humedad	48
29181	7	Sololá	717	San Juan la Laguna	12	San Juan la Laguna	1	Enero	2023-06-01T00:00:00	2024-11-08T09:00:00	6	Velocidad del viento	9.7
29182	7	Sololá	717	San Juan la Laguna	12	San Juan la Laguna	1	Enero	2023-06-01T00:00:00	2024-11-08T09:00:00	7	Dirección del viento	9.66
29183	7	Sololá	717	San Juan la Laguna	12	San Juan la Laguna	1	Enero	2023-06-01T00:00:00	2024-11-08T09:00:00	1	Precipitación	0
29184	7	Sololá	717	San Juan la Laguna	12	San Juan la Laguna	1	Enero	2023-06-01T00:00:00	2024-11-08T09:00:00	8	Radiación solar	344
29185	7	Sololá	717	San Juan la Laguna	12	San Juan la Laguna	1	Enero	2023-06-01T00:00:00	2024-11-08T10:00:00	2	Temperatura media	19.7
29186	7	Sololá	717	San Juan la Laguna	12	San Juan la Laguna	1	Enero	2023-06-01T00:00:00	2024-11-08T10:00:00	4	Temperatura máxima	19.9
29187	7	Sololá	717	San Juan la Laguna	12	San Juan la Laguna	1	Enero	2023-06-01T00:00:00	2024-11-08T10:00:00	3	Temperatura mínima	18.6
29188	7	Sololá	717	San Juan la Laguna	12	San Juan la Laguna	1	Enero	2023-06-01T00:00:00	2024-11-08T10:00:00	5	Humedad	51
29189	7	Sololá	717	San Juan la Laguna	12	San Juan la Laguna	1	Enero	2023-06-01T00:00:00	2024-11-08T10:00:00	6	Velocidad del viento	11.3
29190	7	Sololá	717	San Juan la Laguna	12	San Juan la Laguna	1	Enero	2023-06-01T00:00:00	2024-11-08T10:00:00	7	Dirección del viento	11.27
29191	7	Sololá	717	San Juan la Laguna	12	San Juan la Laguna	1	Enero	2023-06-01T00:00:00	2024-11-08T10:00:00	1	Precipitación	0
29192	7	Sololá	717	San Juan la Laguna	12	San Juan la Laguna	1	Enero	2023-06-01T00:00:00	2024-11-08T10:00:00	8	Radiación solar	528
29193	7	Sololá	717	San Juan la Laguna	12	San Juan la Laguna	1	Enero	2023-06-01T00:00:00	2024-11-08T11:00:00	2	Temperatura media	20.9
29194	7	Sololá	717	San Juan la Laguna	12	San Juan la Laguna	1	Enero	2023-06-01T00:00:00	2024-11-08T11:00:00	4	Temperatura máxima	21.1
29195	7	Sololá	717	San Juan la Laguna	12	San Juan la Laguna	1	Enero	2023-06-01T00:00:00	2024-11-08T11:00:00	3	Temperatura mínima	19.6
29196	7	Sololá	717	San Juan la Laguna	12	San Juan la Laguna	1	Enero	2023-06-01T00:00:00	2024-11-08T11:00:00	5	Humedad	49
29197	7	Sololá	717	San Juan la Laguna	12	San Juan la Laguna	1	Enero	2023-06-01T00:00:00	2024-11-08T11:00:00	6	Velocidad del viento	16.1
29198	7	Sololá	717	San Juan la Laguna	12	San Juan la Laguna	1	Enero	2023-06-01T00:00:00	2024-11-08T11:00:00	7	Dirección del viento	16.09
29199	7	Sololá	717	San Juan la Laguna	12	San Juan la Laguna	1	Enero	2023-06-01T00:00:00	2024-11-08T11:00:00	1	Precipitación	0
29200	7	Sololá	717	San Juan la Laguna	12	San Juan la Laguna	1	Enero	2023-06-01T00:00:00	2024-11-08T11:00:00	8	Radiación solar	613
29201	7	Sololá	717	San Juan la Laguna	12	San Juan la Laguna	1	Enero	2023-06-01T00:00:00	2024-11-08T12:00:00	2	Temperatura media	21.8
29202	7	Sololá	717	San Juan la Laguna	12	San Juan la Laguna	1	Enero	2023-06-01T00:00:00	2024-11-08T12:00:00	4	Temperatura máxima	21.9
29203	7	Sololá	717	San Juan la Laguna	12	San Juan la Laguna	1	Enero	2023-06-01T00:00:00	2024-11-08T12:00:00	3	Temperatura mínima	21
29204	7	Sololá	717	San Juan la Laguna	12	San Juan la Laguna	1	Enero	2023-06-01T00:00:00	2024-11-08T12:00:00	5	Humedad	48
29205	7	Sololá	717	San Juan la Laguna	12	San Juan la Laguna	1	Enero	2023-06-01T00:00:00	2024-11-08T12:00:00	6	Velocidad del viento	12.9
29206	7	Sololá	717	San Juan la Laguna	12	San Juan la Laguna	1	Enero	2023-06-01T00:00:00	2024-11-08T12:00:00	7	Dirección del viento	12.87
29207	7	Sololá	717	San Juan la Laguna	12	San Juan la Laguna	1	Enero	2023-06-01T00:00:00	2024-11-08T12:00:00	1	Precipitación	0
29208	7	Sololá	717	San Juan la Laguna	12	San Juan la Laguna	1	Enero	2023-06-01T00:00:00	2024-11-08T12:00:00	8	Radiación solar	686
29209	7	Sololá	717	San Juan la Laguna	12	San Juan la Laguna	1	Enero	2023-06-01T00:00:00	2024-11-08T13:00:00	2	Temperatura media	22.4
29210	7	Sololá	717	San Juan la Laguna	12	San Juan la Laguna	1	Enero	2023-06-01T00:00:00	2024-11-08T13:00:00	4	Temperatura máxima	22.4
29211	7	Sololá	717	San Juan la Laguna	12	San Juan la Laguna	1	Enero	2023-06-01T00:00:00	2024-11-08T13:00:00	3	Temperatura mínima	21.7
29212	7	Sololá	717	San Juan la Laguna	12	San Juan la Laguna	1	Enero	2023-06-01T00:00:00	2024-11-08T13:00:00	5	Humedad	45
29213	7	Sololá	717	San Juan la Laguna	12	San Juan la Laguna	1	Enero	2023-06-01T00:00:00	2024-11-08T13:00:00	6	Velocidad del viento	11.3
29214	7	Sololá	717	San Juan la Laguna	12	San Juan la Laguna	1	Enero	2023-06-01T00:00:00	2024-11-08T13:00:00	7	Dirección del viento	11.27
29215	7	Sololá	717	San Juan la Laguna	12	San Juan la Laguna	1	Enero	2023-06-01T00:00:00	2024-11-08T13:00:00	1	Precipitación	0
29216	7	Sololá	717	San Juan la Laguna	12	San Juan la Laguna	1	Enero	2023-06-01T00:00:00	2024-11-08T13:00:00	8	Radiación solar	728
29217	7	Sololá	717	San Juan la Laguna	12	San Juan la Laguna	1	Enero	2023-06-01T00:00:00	2024-11-08T14:00:00	2	Temperatura media	23.1
29218	7	Sololá	717	San Juan la Laguna	12	San Juan la Laguna	1	Enero	2023-06-01T00:00:00	2024-11-08T14:00:00	4	Temperatura máxima	23.2
29219	7	Sololá	717	San Juan la Laguna	12	San Juan la Laguna	1	Enero	2023-06-01T00:00:00	2024-11-08T14:00:00	3	Temperatura mínima	22.2
29220	7	Sololá	717	San Juan la Laguna	12	San Juan la Laguna	1	Enero	2023-06-01T00:00:00	2024-11-08T14:00:00	5	Humedad	44
29221	7	Sololá	717	San Juan la Laguna	12	San Juan la Laguna	1	Enero	2023-06-01T00:00:00	2024-11-08T14:00:00	6	Velocidad del viento	8
29222	7	Sololá	717	San Juan la Laguna	12	San Juan la Laguna	1	Enero	2023-06-01T00:00:00	2024-11-08T14:00:00	7	Dirección del viento	8.05
29223	7	Sololá	717	San Juan la Laguna	12	San Juan la Laguna	1	Enero	2023-06-01T00:00:00	2024-11-08T14:00:00	1	Precipitación	0
29224	7	Sololá	717	San Juan la Laguna	12	San Juan la Laguna	1	Enero	2023-06-01T00:00:00	2024-11-08T14:00:00	8	Radiación solar	715
29225	7	Sololá	717	San Juan la Laguna	12	San Juan la Laguna	1	Enero	2023-06-01T00:00:00	2024-11-08T15:00:00	2	Temperatura media	23.1
29226	7	Sololá	717	San Juan la Laguna	12	San Juan la Laguna	1	Enero	2023-06-01T00:00:00	2024-11-08T15:00:00	4	Temperatura máxima	23.4
29227	7	Sololá	717	San Juan la Laguna	12	San Juan la Laguna	1	Enero	2023-06-01T00:00:00	2024-11-08T15:00:00	3	Temperatura mínima	22.8
29228	7	Sololá	717	San Juan la Laguna	12	San Juan la Laguna	1	Enero	2023-06-01T00:00:00	2024-11-08T15:00:00	5	Humedad	44
29229	7	Sololá	717	San Juan la Laguna	12	San Juan la Laguna	1	Enero	2023-06-01T00:00:00	2024-11-08T15:00:00	6	Velocidad del viento	6.4
29230	7	Sololá	717	San Juan la Laguna	12	San Juan la Laguna	1	Enero	2023-06-01T00:00:00	2024-11-08T15:00:00	7	Dirección del viento	6.44
29231	7	Sololá	717	San Juan la Laguna	12	San Juan la Laguna	1	Enero	2023-06-01T00:00:00	2024-11-08T15:00:00	1	Precipitación	0
29232	7	Sololá	717	San Juan la Laguna	12	San Juan la Laguna	1	Enero	2023-06-01T00:00:00	2024-11-08T15:00:00	8	Radiación solar	606
29233	7	Sololá	717	San Juan la Laguna	12	San Juan la Laguna	1	Enero	2023-06-01T00:00:00	2024-11-08T16:00:00	2	Temperatura media	22.7
29234	7	Sololá	717	San Juan la Laguna	12	San Juan la Laguna	1	Enero	2023-06-01T00:00:00	2024-11-08T16:00:00	4	Temperatura máxima	23.4
29235	7	Sololá	717	San Juan la Laguna	12	San Juan la Laguna	1	Enero	2023-06-01T00:00:00	2024-11-08T16:00:00	3	Temperatura mínima	22.4
29236	7	Sololá	717	San Juan la Laguna	12	San Juan la Laguna	1	Enero	2023-06-01T00:00:00	2024-11-08T16:00:00	5	Humedad	48
29237	7	Sololá	717	San Juan la Laguna	12	San Juan la Laguna	1	Enero	2023-06-01T00:00:00	2024-11-08T16:00:00	6	Velocidad del viento	4.8
29238	7	Sololá	717	San Juan la Laguna	12	San Juan la Laguna	1	Enero	2023-06-01T00:00:00	2024-11-08T16:00:00	7	Dirección del viento	4.83
29239	7	Sololá	717	San Juan la Laguna	12	San Juan la Laguna	1	Enero	2023-06-01T00:00:00	2024-11-08T16:00:00	1	Precipitación	0
29240	7	Sololá	717	San Juan la Laguna	12	San Juan la Laguna	1	Enero	2023-06-01T00:00:00	2024-11-08T16:00:00	8	Radiación solar	403
29241	7	Sololá	717	San Juan la Laguna	12	San Juan la Laguna	1	Enero	2023-06-01T00:00:00	2024-11-08T17:00:00	2	Temperatura media	21.3
29242	7	Sololá	717	San Juan la Laguna	12	San Juan la Laguna	1	Enero	2023-06-01T00:00:00	2024-11-08T17:00:00	4	Temperatura máxima	21.6
29243	7	Sololá	717	San Juan la Laguna	12	San Juan la Laguna	1	Enero	2023-06-01T00:00:00	2024-11-08T17:00:00	3	Temperatura mínima	20.4
29244	7	Sololá	717	San Juan la Laguna	12	San Juan la Laguna	1	Enero	2023-06-01T00:00:00	2024-11-08T17:00:00	5	Humedad	68
29245	7	Sololá	717	San Juan la Laguna	12	San Juan la Laguna	1	Enero	2023-06-01T00:00:00	2024-11-08T17:00:00	6	Velocidad del viento	12.9
29246	7	Sololá	717	San Juan la Laguna	12	San Juan la Laguna	1	Enero	2023-06-01T00:00:00	2024-11-08T17:00:00	7	Dirección del viento	12.87
29247	7	Sololá	717	San Juan la Laguna	12	San Juan la Laguna	1	Enero	2023-06-01T00:00:00	2024-11-08T17:00:00	1	Precipitación	0
29248	7	Sololá	717	San Juan la Laguna	12	San Juan la Laguna	1	Enero	2023-06-01T00:00:00	2024-11-08T17:00:00	8	Radiación solar	115
29249	7	Sololá	717	San Juan la Laguna	12	San Juan la Laguna	1	Enero	2023-06-01T00:00:00	2024-11-08T18:00:00	2	Temperatura media	21
29250	7	Sololá	717	San Juan la Laguna	12	San Juan la Laguna	1	Enero	2023-06-01T00:00:00	2024-11-08T18:00:00	4	Temperatura máxima	21.9
29251	7	Sololá	717	San Juan la Laguna	12	San Juan la Laguna	1	Enero	2023-06-01T00:00:00	2024-11-08T18:00:00	3	Temperatura mínima	20.8
29252	7	Sololá	717	San Juan la Laguna	12	San Juan la Laguna	1	Enero	2023-06-01T00:00:00	2024-11-08T18:00:00	5	Humedad	69
29253	7	Sololá	717	San Juan la Laguna	12	San Juan la Laguna	1	Enero	2023-06-01T00:00:00	2024-11-08T18:00:00	6	Velocidad del viento	14.5
29254	7	Sololá	717	San Juan la Laguna	12	San Juan la Laguna	1	Enero	2023-06-01T00:00:00	2024-11-08T18:00:00	7	Dirección del viento	14.48
29255	7	Sololá	717	San Juan la Laguna	12	San Juan la Laguna	1	Enero	2023-06-01T00:00:00	2024-11-08T18:00:00	1	Precipitación	0
29256	7	Sololá	717	San Juan la Laguna	12	San Juan la Laguna	1	Enero	2023-06-01T00:00:00	2024-11-08T18:00:00	8	Radiación solar	13
29257	7	Sololá	717	San Juan la Laguna	12	San Juan la Laguna	1	Enero	2023-06-01T00:00:00	2024-11-08T19:00:00	2	Temperatura media	19.8
29258	7	Sololá	717	San Juan la Laguna	12	San Juan la Laguna	1	Enero	2023-06-01T00:00:00	2024-11-08T19:00:00	4	Temperatura máxima	21.4
29259	7	Sololá	717	San Juan la Laguna	12	San Juan la Laguna	1	Enero	2023-06-01T00:00:00	2024-11-08T19:00:00	3	Temperatura mínima	19.8
29260	7	Sololá	717	San Juan la Laguna	12	San Juan la Laguna	1	Enero	2023-06-01T00:00:00	2024-11-08T19:00:00	5	Humedad	75
29261	7	Sololá	717	San Juan la Laguna	12	San Juan la Laguna	1	Enero	2023-06-01T00:00:00	2024-11-08T19:00:00	6	Velocidad del viento	12.9
29262	7	Sololá	717	San Juan la Laguna	12	San Juan la Laguna	1	Enero	2023-06-01T00:00:00	2024-11-08T19:00:00	7	Dirección del viento	12.87
29263	7	Sololá	717	San Juan la Laguna	12	San Juan la Laguna	1	Enero	2023-06-01T00:00:00	2024-11-08T19:00:00	1	Precipitación	0
29264	7	Sololá	717	San Juan la Laguna	12	San Juan la Laguna	1	Enero	2023-06-01T00:00:00	2024-11-08T19:00:00	8	Radiación solar	0
29265	7	Sololá	717	San Juan la Laguna	12	San Juan la Laguna	1	Enero	2023-06-01T00:00:00	2024-11-08T20:00:00	2	Temperatura media	18.8
29266	7	Sololá	717	San Juan la Laguna	12	San Juan la Laguna	1	Enero	2023-06-01T00:00:00	2024-11-08T20:00:00	4	Temperatura máxima	19.8
29267	7	Sololá	717	San Juan la Laguna	12	San Juan la Laguna	1	Enero	2023-06-01T00:00:00	2024-11-08T20:00:00	3	Temperatura mínima	18.7
29268	7	Sololá	717	San Juan la Laguna	12	San Juan la Laguna	1	Enero	2023-06-01T00:00:00	2024-11-08T20:00:00	5	Humedad	78
29269	7	Sololá	717	San Juan la Laguna	12	San Juan la Laguna	1	Enero	2023-06-01T00:00:00	2024-11-08T20:00:00	6	Velocidad del viento	8
29270	7	Sololá	717	San Juan la Laguna	12	San Juan la Laguna	1	Enero	2023-06-01T00:00:00	2024-11-08T20:00:00	7	Dirección del viento	8.05
29271	7	Sololá	717	San Juan la Laguna	12	San Juan la Laguna	1	Enero	2023-06-01T00:00:00	2024-11-08T20:00:00	1	Precipitación	0
29272	7	Sololá	717	San Juan la Laguna	12	San Juan la Laguna	1	Enero	2023-06-01T00:00:00	2024-11-08T20:00:00	8	Radiación solar	0
29273	7	Sololá	717	San Juan la Laguna	12	San Juan la Laguna	1	Enero	2023-06-01T00:00:00	2024-11-08T21:00:00	2	Temperatura media	18.1
29274	7	Sololá	717	San Juan la Laguna	12	San Juan la Laguna	1	Enero	2023-06-01T00:00:00	2024-11-08T21:00:00	4	Temperatura máxima	18.7
29275	7	Sololá	717	San Juan la Laguna	12	San Juan la Laguna	1	Enero	2023-06-01T00:00:00	2024-11-08T21:00:00	3	Temperatura mínima	18.1
29276	7	Sololá	717	San Juan la Laguna	12	San Juan la Laguna	1	Enero	2023-06-01T00:00:00	2024-11-08T21:00:00	5	Humedad	81
29277	7	Sololá	717	San Juan la Laguna	12	San Juan la Laguna	1	Enero	2023-06-01T00:00:00	2024-11-08T21:00:00	6	Velocidad del viento	4.8
29278	7	Sololá	717	San Juan la Laguna	12	San Juan la Laguna	1	Enero	2023-06-01T00:00:00	2024-11-08T21:00:00	7	Dirección del viento	4.83
29279	7	Sololá	717	San Juan la Laguna	12	San Juan la Laguna	1	Enero	2023-06-01T00:00:00	2024-11-08T21:00:00	1	Precipitación	0
29280	7	Sololá	717	San Juan la Laguna	12	San Juan la Laguna	1	Enero	2023-06-01T00:00:00	2024-11-08T21:00:00	8	Radiación solar	0
29281	7	Sololá	717	San Juan la Laguna	12	San Juan la Laguna	1	Enero	2023-06-01T00:00:00	2024-11-08T22:00:00	2	Temperatura media	17.3
29282	7	Sololá	717	San Juan la Laguna	12	San Juan la Laguna	1	Enero	2023-06-01T00:00:00	2024-11-08T22:00:00	4	Temperatura máxima	18.1
29283	7	Sololá	717	San Juan la Laguna	12	San Juan la Laguna	1	Enero	2023-06-01T00:00:00	2024-11-08T22:00:00	3	Temperatura mínima	17.3
29284	7	Sololá	717	San Juan la Laguna	12	San Juan la Laguna	1	Enero	2023-06-01T00:00:00	2024-11-08T22:00:00	5	Humedad	82
29285	7	Sololá	717	San Juan la Laguna	12	San Juan la Laguna	1	Enero	2023-06-01T00:00:00	2024-11-08T22:00:00	6	Velocidad del viento	3.2
29286	7	Sololá	717	San Juan la Laguna	12	San Juan la Laguna	1	Enero	2023-06-01T00:00:00	2024-11-08T22:00:00	7	Dirección del viento	3.22
29287	7	Sololá	717	San Juan la Laguna	12	San Juan la Laguna	1	Enero	2023-06-01T00:00:00	2024-11-08T22:00:00	1	Precipitación	0
29288	7	Sololá	717	San Juan la Laguna	12	San Juan la Laguna	1	Enero	2023-06-01T00:00:00	2024-11-08T22:00:00	8	Radiación solar	0
29289	7	Sololá	717	San Juan la Laguna	12	San Juan la Laguna	1	Enero	2023-06-01T00:00:00	2024-11-08T23:00:00	2	Temperatura media	17.1
29290	7	Sololá	717	San Juan la Laguna	12	San Juan la Laguna	1	Enero	2023-06-01T00:00:00	2024-11-08T23:00:00	4	Temperatura máxima	17.4
29291	7	Sololá	717	San Juan la Laguna	12	San Juan la Laguna	1	Enero	2023-06-01T00:00:00	2024-11-08T23:00:00	3	Temperatura mínima	16.7
29292	7	Sololá	717	San Juan la Laguna	12	San Juan la Laguna	1	Enero	2023-06-01T00:00:00	2024-11-08T23:00:00	5	Humedad	83
29293	7	Sololá	717	San Juan la Laguna	12	San Juan la Laguna	1	Enero	2023-06-01T00:00:00	2024-11-08T23:00:00	6	Velocidad del viento	3.2
29294	7	Sololá	717	San Juan la Laguna	12	San Juan la Laguna	1	Enero	2023-06-01T00:00:00	2024-11-08T23:00:00	7	Dirección del viento	3.22
29295	7	Sololá	717	San Juan la Laguna	12	San Juan la Laguna	1	Enero	2023-06-01T00:00:00	2024-11-08T23:00:00	1	Precipitación	0
29296	7	Sololá	717	San Juan la Laguna	12	San Juan la Laguna	1	Enero	2023-06-01T00:00:00	2024-11-08T23:00:00	8	Radiación solar	0
29297	7	Sololá	717	San Juan la Laguna	12	San Juan la Laguna	1	Enero	2023-07-01T00:00:00	2024-11-08T00:00:00	2	Temperatura media	16.7
29298	7	Sololá	717	San Juan la Laguna	12	San Juan la Laguna	1	Enero	2023-07-01T00:00:00	2024-11-08T00:00:00	4	Temperatura máxima	17.2
29299	7	Sololá	717	San Juan la Laguna	12	San Juan la Laguna	1	Enero	2023-07-01T00:00:00	2024-11-08T00:00:00	3	Temperatura mínima	16.7
29300	7	Sololá	717	San Juan la Laguna	12	San Juan la Laguna	1	Enero	2023-07-01T00:00:00	2024-11-08T00:00:00	5	Humedad	85
29301	7	Sololá	717	San Juan la Laguna	12	San Juan la Laguna	1	Enero	2023-07-01T00:00:00	2024-11-08T00:00:00	6	Velocidad del viento	3.2
29302	7	Sololá	717	San Juan la Laguna	12	San Juan la Laguna	1	Enero	2023-07-01T00:00:00	2024-11-08T00:00:00	7	Dirección del viento	3.22
29303	7	Sololá	717	San Juan la Laguna	12	San Juan la Laguna	1	Enero	2023-07-01T00:00:00	2024-11-08T00:00:00	1	Precipitación	0
29304	7	Sololá	717	San Juan la Laguna	12	San Juan la Laguna	1	Enero	2023-07-01T00:00:00	2024-11-08T00:00:00	8	Radiación solar	0
29305	7	Sololá	717	San Juan la Laguna	12	San Juan la Laguna	1	Enero	2023-07-01T00:00:00	2024-11-08T01:00:00	2	Temperatura media	17
29306	7	Sololá	717	San Juan la Laguna	12	San Juan la Laguna	1	Enero	2023-07-01T00:00:00	2024-11-08T01:00:00	4	Temperatura máxima	17
29307	7	Sololá	717	San Juan la Laguna	12	San Juan la Laguna	1	Enero	2023-07-01T00:00:00	2024-11-08T01:00:00	3	Temperatura mínima	16.8
29308	7	Sololá	717	San Juan la Laguna	12	San Juan la Laguna	1	Enero	2023-07-01T00:00:00	2024-11-08T01:00:00	5	Humedad	66
29309	7	Sololá	717	San Juan la Laguna	12	San Juan la Laguna	1	Enero	2023-07-01T00:00:00	2024-11-08T01:00:00	6	Velocidad del viento	8
29310	7	Sololá	717	San Juan la Laguna	12	San Juan la Laguna	1	Enero	2023-07-01T00:00:00	2024-11-08T01:00:00	7	Dirección del viento	8.05
29311	7	Sololá	717	San Juan la Laguna	12	San Juan la Laguna	1	Enero	2023-07-01T00:00:00	2024-11-08T01:00:00	1	Precipitación	0
29312	7	Sololá	717	San Juan la Laguna	12	San Juan la Laguna	1	Enero	2023-07-01T00:00:00	2024-11-08T01:00:00	8	Radiación solar	0
29313	7	Sololá	717	San Juan la Laguna	12	San Juan la Laguna	1	Enero	2023-07-01T00:00:00	2024-11-08T02:00:00	2	Temperatura media	17.1
29314	7	Sololá	717	San Juan la Laguna	12	San Juan la Laguna	1	Enero	2023-07-01T00:00:00	2024-11-08T02:00:00	4	Temperatura máxima	17.3
29315	7	Sololá	717	San Juan la Laguna	12	San Juan la Laguna	1	Enero	2023-07-01T00:00:00	2024-11-08T02:00:00	3	Temperatura mínima	17
29316	7	Sololá	717	San Juan la Laguna	12	San Juan la Laguna	1	Enero	2023-07-01T00:00:00	2024-11-08T02:00:00	5	Humedad	66
29317	7	Sololá	717	San Juan la Laguna	12	San Juan la Laguna	1	Enero	2023-07-01T00:00:00	2024-11-08T02:00:00	6	Velocidad del viento	8
29318	7	Sololá	717	San Juan la Laguna	12	San Juan la Laguna	1	Enero	2023-07-01T00:00:00	2024-11-08T02:00:00	7	Dirección del viento	8.05
29319	7	Sololá	717	San Juan la Laguna	12	San Juan la Laguna	1	Enero	2023-07-01T00:00:00	2024-11-08T02:00:00	1	Precipitación	0
29320	7	Sololá	717	San Juan la Laguna	12	San Juan la Laguna	1	Enero	2023-07-01T00:00:00	2024-11-08T02:00:00	8	Radiación solar	0
29321	7	Sololá	717	San Juan la Laguna	12	San Juan la Laguna	1	Enero	2023-07-01T00:00:00	2024-11-08T03:00:00	2	Temperatura media	17.1
29322	7	Sololá	717	San Juan la Laguna	12	San Juan la Laguna	1	Enero	2023-07-01T00:00:00	2024-11-08T03:00:00	4	Temperatura máxima	17.2
29323	7	Sololá	717	San Juan la Laguna	12	San Juan la Laguna	1	Enero	2023-07-01T00:00:00	2024-11-08T03:00:00	3	Temperatura mínima	16.8
29324	7	Sololá	717	San Juan la Laguna	12	San Juan la Laguna	1	Enero	2023-07-01T00:00:00	2024-11-08T03:00:00	5	Humedad	67
29325	7	Sololá	717	San Juan la Laguna	12	San Juan la Laguna	1	Enero	2023-07-01T00:00:00	2024-11-08T03:00:00	6	Velocidad del viento	6.4
29326	7	Sololá	717	San Juan la Laguna	12	San Juan la Laguna	1	Enero	2023-07-01T00:00:00	2024-11-08T03:00:00	7	Dirección del viento	6.44
29327	7	Sololá	717	San Juan la Laguna	12	San Juan la Laguna	1	Enero	2023-07-01T00:00:00	2024-11-08T03:00:00	1	Precipitación	0
29328	7	Sololá	717	San Juan la Laguna	12	San Juan la Laguna	1	Enero	2023-07-01T00:00:00	2024-11-08T03:00:00	8	Radiación solar	0
29329	7	Sololá	717	San Juan la Laguna	12	San Juan la Laguna	1	Enero	2023-07-01T00:00:00	2024-11-08T04:00:00	2	Temperatura media	15.3
29330	7	Sololá	717	San Juan la Laguna	12	San Juan la Laguna	1	Enero	2023-07-01T00:00:00	2024-11-08T04:00:00	4	Temperatura máxima	17.1
29331	7	Sololá	717	San Juan la Laguna	12	San Juan la Laguna	1	Enero	2023-07-01T00:00:00	2024-11-08T04:00:00	3	Temperatura mínima	15.3
29332	7	Sololá	717	San Juan la Laguna	12	San Juan la Laguna	1	Enero	2023-07-01T00:00:00	2024-11-08T04:00:00	5	Humedad	75
29333	7	Sololá	717	San Juan la Laguna	12	San Juan la Laguna	1	Enero	2023-07-01T00:00:00	2024-11-08T04:00:00	6	Velocidad del viento	3.2
29334	7	Sololá	717	San Juan la Laguna	12	San Juan la Laguna	1	Enero	2023-07-01T00:00:00	2024-11-08T04:00:00	7	Dirección del viento	3.22
29335	7	Sololá	717	San Juan la Laguna	12	San Juan la Laguna	1	Enero	2023-07-01T00:00:00	2024-11-08T04:00:00	1	Precipitación	0
29336	7	Sololá	717	San Juan la Laguna	12	San Juan la Laguna	1	Enero	2023-07-01T00:00:00	2024-11-08T04:00:00	8	Radiación solar	0
29337	7	Sololá	717	San Juan la Laguna	12	San Juan la Laguna	1	Enero	2023-07-01T00:00:00	2024-11-08T05:00:00	2	Temperatura media	12.7
29338	7	Sololá	717	San Juan la Laguna	12	San Juan la Laguna	1	Enero	2023-07-01T00:00:00	2024-11-08T05:00:00	4	Temperatura máxima	15.3
29339	7	Sololá	717	San Juan la Laguna	12	San Juan la Laguna	1	Enero	2023-07-01T00:00:00	2024-11-08T05:00:00	3	Temperatura mínima	12.7
29340	7	Sololá	717	San Juan la Laguna	12	San Juan la Laguna	1	Enero	2023-07-01T00:00:00	2024-11-08T05:00:00	5	Humedad	83
29341	7	Sololá	717	San Juan la Laguna	12	San Juan la Laguna	1	Enero	2023-07-01T00:00:00	2024-11-08T05:00:00	6	Velocidad del viento	3.2
29342	7	Sololá	717	San Juan la Laguna	12	San Juan la Laguna	1	Enero	2023-07-01T00:00:00	2024-11-08T05:00:00	7	Dirección del viento	3.22
29343	7	Sololá	717	San Juan la Laguna	12	San Juan la Laguna	1	Enero	2023-07-01T00:00:00	2024-11-08T05:00:00	1	Precipitación	0
29344	7	Sololá	717	San Juan la Laguna	12	San Juan la Laguna	1	Enero	2023-07-01T00:00:00	2024-11-08T05:00:00	8	Radiación solar	0
29345	7	Sololá	717	San Juan la Laguna	12	San Juan la Laguna	1	Enero	2023-07-01T00:00:00	2024-11-08T06:00:00	2	Temperatura media	12.8
29346	7	Sololá	717	San Juan la Laguna	12	San Juan la Laguna	1	Enero	2023-07-01T00:00:00	2024-11-08T06:00:00	4	Temperatura máxima	12.9
29347	7	Sololá	717	San Juan la Laguna	12	San Juan la Laguna	1	Enero	2023-07-01T00:00:00	2024-11-08T06:00:00	3	Temperatura mínima	12.6
29348	7	Sololá	717	San Juan la Laguna	12	San Juan la Laguna	1	Enero	2023-07-01T00:00:00	2024-11-08T06:00:00	5	Humedad	82
29349	7	Sololá	717	San Juan la Laguna	12	San Juan la Laguna	1	Enero	2023-07-01T00:00:00	2024-11-08T06:00:00	6	Velocidad del viento	3.2
29350	7	Sololá	717	San Juan la Laguna	12	San Juan la Laguna	1	Enero	2023-07-01T00:00:00	2024-11-08T06:00:00	7	Dirección del viento	3.22
29351	7	Sololá	717	San Juan la Laguna	12	San Juan la Laguna	1	Enero	2023-07-01T00:00:00	2024-11-08T06:00:00	1	Precipitación	0
29352	7	Sololá	717	San Juan la Laguna	12	San Juan la Laguna	1	Enero	2023-07-01T00:00:00	2024-11-08T06:00:00	8	Radiación solar	0
29353	7	Sololá	717	San Juan la Laguna	12	San Juan la Laguna	1	Enero	2023-07-01T00:00:00	2024-11-08T07:00:00	2	Temperatura media	13.3
29354	7	Sololá	717	San Juan la Laguna	12	San Juan la Laguna	1	Enero	2023-07-01T00:00:00	2024-11-08T07:00:00	4	Temperatura máxima	13.3
29355	7	Sololá	717	San Juan la Laguna	12	San Juan la Laguna	1	Enero	2023-07-01T00:00:00	2024-11-08T07:00:00	3	Temperatura mínima	12.3
29356	7	Sololá	717	San Juan la Laguna	12	San Juan la Laguna	1	Enero	2023-07-01T00:00:00	2024-11-08T07:00:00	5	Humedad	81
29357	7	Sololá	717	San Juan la Laguna	12	San Juan la Laguna	1	Enero	2023-07-01T00:00:00	2024-11-08T07:00:00	6	Velocidad del viento	3.2
29358	7	Sololá	717	San Juan la Laguna	12	San Juan la Laguna	1	Enero	2023-07-01T00:00:00	2024-11-08T07:00:00	7	Dirección del viento	3.22
29359	7	Sololá	717	San Juan la Laguna	12	San Juan la Laguna	1	Enero	2023-07-01T00:00:00	2024-11-08T07:00:00	1	Precipitación	0
29360	7	Sololá	717	San Juan la Laguna	12	San Juan la Laguna	1	Enero	2023-07-01T00:00:00	2024-11-08T07:00:00	8	Radiación solar	6
29361	7	Sololá	717	San Juan la Laguna	12	San Juan la Laguna	1	Enero	2023-07-01T00:00:00	2024-11-08T08:00:00	2	Temperatura media	15.2
29362	7	Sololá	717	San Juan la Laguna	12	San Juan la Laguna	1	Enero	2023-07-01T00:00:00	2024-11-08T08:00:00	4	Temperatura máxima	15.2
29363	7	Sololá	717	San Juan la Laguna	12	San Juan la Laguna	1	Enero	2023-07-01T00:00:00	2024-11-08T08:00:00	3	Temperatura mínima	13.3
29364	7	Sololá	717	San Juan la Laguna	12	San Juan la Laguna	1	Enero	2023-07-01T00:00:00	2024-11-08T08:00:00	5	Humedad	78
29365	7	Sololá	717	San Juan la Laguna	12	San Juan la Laguna	1	Enero	2023-07-01T00:00:00	2024-11-08T08:00:00	6	Velocidad del viento	1.6
29366	7	Sololá	717	San Juan la Laguna	12	San Juan la Laguna	1	Enero	2023-07-01T00:00:00	2024-11-08T08:00:00	7	Dirección del viento	1.61
29367	7	Sololá	717	San Juan la Laguna	12	San Juan la Laguna	1	Enero	2023-07-01T00:00:00	2024-11-08T08:00:00	1	Precipitación	0
29368	7	Sololá	717	San Juan la Laguna	12	San Juan la Laguna	1	Enero	2023-07-01T00:00:00	2024-11-08T08:00:00	8	Radiación solar	70
29369	7	Sololá	717	San Juan la Laguna	12	San Juan la Laguna	1	Enero	2023-07-01T00:00:00	2024-11-08T09:00:00	2	Temperatura media	18.8
29370	7	Sololá	717	San Juan la Laguna	12	San Juan la Laguna	1	Enero	2023-07-01T00:00:00	2024-11-08T09:00:00	4	Temperatura máxima	18.8
29371	7	Sololá	717	San Juan la Laguna	12	San Juan la Laguna	1	Enero	2023-07-01T00:00:00	2024-11-08T09:00:00	3	Temperatura mínima	15.2
29372	7	Sololá	717	San Juan la Laguna	12	San Juan la Laguna	1	Enero	2023-07-01T00:00:00	2024-11-08T09:00:00	5	Humedad	62
29373	7	Sololá	717	San Juan la Laguna	12	San Juan la Laguna	1	Enero	2023-07-01T00:00:00	2024-11-08T09:00:00	6	Velocidad del viento	3.2
29374	7	Sololá	717	San Juan la Laguna	12	San Juan la Laguna	1	Enero	2023-07-01T00:00:00	2024-11-08T09:00:00	7	Dirección del viento	3.22
29375	7	Sololá	717	San Juan la Laguna	12	San Juan la Laguna	1	Enero	2023-07-01T00:00:00	2024-11-08T09:00:00	1	Precipitación	0
29376	7	Sololá	717	San Juan la Laguna	12	San Juan la Laguna	1	Enero	2023-07-01T00:00:00	2024-11-08T09:00:00	8	Radiación solar	173
29377	7	Sololá	717	San Juan la Laguna	12	San Juan la Laguna	1	Enero	2023-07-01T00:00:00	2024-11-08T10:00:00	2	Temperatura media	20.8
29378	7	Sololá	717	San Juan la Laguna	12	San Juan la Laguna	1	Enero	2023-07-01T00:00:00	2024-11-08T10:00:00	4	Temperatura máxima	21.2
29379	7	Sololá	717	San Juan la Laguna	12	San Juan la Laguna	1	Enero	2023-07-01T00:00:00	2024-11-08T10:00:00	3	Temperatura mínima	18.8
29380	7	Sololá	717	San Juan la Laguna	12	San Juan la Laguna	1	Enero	2023-07-01T00:00:00	2024-11-08T10:00:00	5	Humedad	54
29381	7	Sololá	717	San Juan la Laguna	12	San Juan la Laguna	1	Enero	2023-07-01T00:00:00	2024-11-08T10:00:00	6	Velocidad del viento	6.4
29382	7	Sololá	717	San Juan la Laguna	12	San Juan la Laguna	1	Enero	2023-07-01T00:00:00	2024-11-08T10:00:00	7	Dirección del viento	6.44
29383	7	Sololá	717	San Juan la Laguna	12	San Juan la Laguna	1	Enero	2023-07-01T00:00:00	2024-11-08T10:00:00	1	Precipitación	0
29384	7	Sololá	717	San Juan la Laguna	12	San Juan la Laguna	1	Enero	2023-07-01T00:00:00	2024-11-08T10:00:00	8	Radiación solar	429
29385	7	Sololá	717	San Juan la Laguna	12	San Juan la Laguna	1	Enero	2023-07-01T00:00:00	2024-11-08T11:00:00	2	Temperatura media	22.1
29386	7	Sololá	717	San Juan la Laguna	12	San Juan la Laguna	1	Enero	2023-07-01T00:00:00	2024-11-08T11:00:00	4	Temperatura máxima	22.1
29387	7	Sololá	717	San Juan la Laguna	12	San Juan la Laguna	1	Enero	2023-07-01T00:00:00	2024-11-08T11:00:00	3	Temperatura mínima	20.8
29388	7	Sololá	717	San Juan la Laguna	12	San Juan la Laguna	1	Enero	2023-07-01T00:00:00	2024-11-08T11:00:00	5	Humedad	51
29389	7	Sololá	717	San Juan la Laguna	12	San Juan la Laguna	1	Enero	2023-07-01T00:00:00	2024-11-08T11:00:00	6	Velocidad del viento	9.7
29390	7	Sololá	717	San Juan la Laguna	12	San Juan la Laguna	1	Enero	2023-07-01T00:00:00	2024-11-08T11:00:00	7	Dirección del viento	9.66
29391	7	Sololá	717	San Juan la Laguna	12	San Juan la Laguna	1	Enero	2023-07-01T00:00:00	2024-11-08T11:00:00	1	Precipitación	0
29392	7	Sololá	717	San Juan la Laguna	12	San Juan la Laguna	1	Enero	2023-07-01T00:00:00	2024-11-08T11:00:00	8	Radiación solar	617
29393	7	Sololá	717	San Juan la Laguna	12	San Juan la Laguna	1	Enero	2023-07-01T00:00:00	2024-11-08T12:00:00	2	Temperatura media	21.9
29394	7	Sololá	717	San Juan la Laguna	12	San Juan la Laguna	1	Enero	2023-07-01T00:00:00	2024-11-08T12:00:00	4	Temperatura máxima	22.9
29395	7	Sololá	717	San Juan la Laguna	12	San Juan la Laguna	1	Enero	2023-07-01T00:00:00	2024-11-08T12:00:00	3	Temperatura mínima	21.7
29396	7	Sololá	717	San Juan la Laguna	12	San Juan la Laguna	1	Enero	2023-07-01T00:00:00	2024-11-08T12:00:00	5	Humedad	51
29397	7	Sololá	717	San Juan la Laguna	12	San Juan la Laguna	1	Enero	2023-07-01T00:00:00	2024-11-08T12:00:00	6	Velocidad del viento	8
29398	7	Sololá	717	San Juan la Laguna	12	San Juan la Laguna	1	Enero	2023-07-01T00:00:00	2024-11-08T12:00:00	7	Dirección del viento	8.05
29399	7	Sololá	717	San Juan la Laguna	12	San Juan la Laguna	1	Enero	2023-07-01T00:00:00	2024-11-08T12:00:00	1	Precipitación	0
29400	7	Sololá	717	San Juan la Laguna	12	San Juan la Laguna	1	Enero	2023-07-01T00:00:00	2024-11-08T12:00:00	8	Radiación solar	488
29401	7	Sololá	717	San Juan la Laguna	12	San Juan la Laguna	1	Enero	2023-07-01T00:00:00	2024-11-08T13:00:00	2	Temperatura media	23.6
29402	7	Sololá	717	San Juan la Laguna	12	San Juan la Laguna	1	Enero	2023-07-01T00:00:00	2024-11-08T13:00:00	4	Temperatura máxima	23.7
29403	7	Sololá	717	San Juan la Laguna	12	San Juan la Laguna	1	Enero	2023-07-01T00:00:00	2024-11-08T13:00:00	3	Temperatura mínima	21.8
29404	7	Sololá	717	San Juan la Laguna	12	San Juan la Laguna	1	Enero	2023-07-01T00:00:00	2024-11-08T13:00:00	5	Humedad	47
29405	7	Sololá	717	San Juan la Laguna	12	San Juan la Laguna	1	Enero	2023-07-01T00:00:00	2024-11-08T13:00:00	6	Velocidad del viento	6.4
29406	7	Sololá	717	San Juan la Laguna	12	San Juan la Laguna	1	Enero	2023-07-01T00:00:00	2024-11-08T13:00:00	7	Dirección del viento	6.44
29407	7	Sololá	717	San Juan la Laguna	12	San Juan la Laguna	1	Enero	2023-07-01T00:00:00	2024-11-08T13:00:00	1	Precipitación	0
29408	7	Sololá	717	San Juan la Laguna	12	San Juan la Laguna	1	Enero	2023-07-01T00:00:00	2024-11-08T13:00:00	8	Radiación solar	728
29409	7	Sololá	717	San Juan la Laguna	12	San Juan la Laguna	1	Enero	2023-07-01T00:00:00	2024-11-08T14:00:00	2	Temperatura media	21.5
29410	7	Sololá	717	San Juan la Laguna	12	San Juan la Laguna	1	Enero	2023-07-01T00:00:00	2024-11-08T14:00:00	4	Temperatura máxima	23.6
29411	7	Sololá	717	San Juan la Laguna	12	San Juan la Laguna	1	Enero	2023-07-01T00:00:00	2024-11-08T14:00:00	3	Temperatura mínima	21.5
29412	7	Sololá	717	San Juan la Laguna	12	San Juan la Laguna	1	Enero	2023-07-01T00:00:00	2024-11-08T14:00:00	5	Humedad	56
29413	7	Sololá	717	San Juan la Laguna	12	San Juan la Laguna	1	Enero	2023-07-01T00:00:00	2024-11-08T14:00:00	6	Velocidad del viento	8
29414	7	Sololá	717	San Juan la Laguna	12	San Juan la Laguna	1	Enero	2023-07-01T00:00:00	2024-11-08T14:00:00	7	Dirección del viento	8.05
29415	7	Sololá	717	San Juan la Laguna	12	San Juan la Laguna	1	Enero	2023-07-01T00:00:00	2024-11-08T14:00:00	1	Precipitación	0
29416	7	Sololá	717	San Juan la Laguna	12	San Juan la Laguna	1	Enero	2023-07-01T00:00:00	2024-11-08T14:00:00	8	Radiación solar	339
29417	7	Sololá	717	San Juan la Laguna	12	San Juan la Laguna	1	Enero	2023-07-01T00:00:00	2024-11-08T15:00:00	2	Temperatura media	21.6
29418	7	Sololá	717	San Juan la Laguna	12	San Juan la Laguna	1	Enero	2023-07-01T00:00:00	2024-11-08T15:00:00	4	Temperatura máxima	21.6
29419	7	Sololá	717	San Juan la Laguna	12	San Juan la Laguna	1	Enero	2023-07-01T00:00:00	2024-11-08T15:00:00	3	Temperatura mínima	20.9
29420	7	Sololá	717	San Juan la Laguna	12	San Juan la Laguna	1	Enero	2023-07-01T00:00:00	2024-11-08T15:00:00	5	Humedad	56
29421	7	Sololá	717	San Juan la Laguna	12	San Juan la Laguna	1	Enero	2023-07-01T00:00:00	2024-11-08T15:00:00	6	Velocidad del viento	9.7
29422	7	Sololá	717	San Juan la Laguna	12	San Juan la Laguna	1	Enero	2023-07-01T00:00:00	2024-11-08T15:00:00	7	Dirección del viento	9.66
29423	7	Sololá	717	San Juan la Laguna	12	San Juan la Laguna	1	Enero	2023-07-01T00:00:00	2024-11-08T15:00:00	1	Precipitación	0
29424	7	Sololá	717	San Juan la Laguna	12	San Juan la Laguna	1	Enero	2023-07-01T00:00:00	2024-11-08T15:00:00	8	Radiación solar	265
29425	7	Sololá	717	San Juan la Laguna	12	San Juan la Laguna	1	Enero	2023-07-01T00:00:00	2024-11-08T16:00:00	2	Temperatura media	21.6
29426	7	Sololá	717	San Juan la Laguna	12	San Juan la Laguna	1	Enero	2023-07-01T00:00:00	2024-11-08T16:00:00	4	Temperatura máxima	22.6
29427	7	Sololá	717	San Juan la Laguna	12	San Juan la Laguna	1	Enero	2023-07-01T00:00:00	2024-11-08T16:00:00	3	Temperatura mínima	21.4
29428	7	Sololá	717	San Juan la Laguna	12	San Juan la Laguna	1	Enero	2023-07-01T00:00:00	2024-11-08T16:00:00	5	Humedad	54
29429	7	Sololá	717	San Juan la Laguna	12	San Juan la Laguna	1	Enero	2023-07-01T00:00:00	2024-11-08T16:00:00	6	Velocidad del viento	8
29430	7	Sololá	717	San Juan la Laguna	12	San Juan la Laguna	1	Enero	2023-07-01T00:00:00	2024-11-08T16:00:00	7	Dirección del viento	8.05
29431	7	Sololá	717	San Juan la Laguna	12	San Juan la Laguna	1	Enero	2023-07-01T00:00:00	2024-11-08T16:00:00	1	Precipitación	0
29432	7	Sololá	717	San Juan la Laguna	12	San Juan la Laguna	1	Enero	2023-07-01T00:00:00	2024-11-08T16:00:00	8	Radiación solar	532
29433	7	Sololá	717	San Juan la Laguna	12	San Juan la Laguna	1	Enero	2023-07-01T00:00:00	2024-11-08T17:00:00	2	Temperatura media	20.3
29434	7	Sololá	717	San Juan la Laguna	12	San Juan la Laguna	1	Enero	2023-07-01T00:00:00	2024-11-08T17:00:00	4	Temperatura máxima	21.7
29435	7	Sololá	717	San Juan la Laguna	12	San Juan la Laguna	1	Enero	2023-07-01T00:00:00	2024-11-08T17:00:00	3	Temperatura mínima	20.3
29436	7	Sololá	717	San Juan la Laguna	12	San Juan la Laguna	1	Enero	2023-07-01T00:00:00	2024-11-08T17:00:00	5	Humedad	58
29437	7	Sololá	717	San Juan la Laguna	12	San Juan la Laguna	1	Enero	2023-07-01T00:00:00	2024-11-08T17:00:00	6	Velocidad del viento	8
29438	7	Sololá	717	San Juan la Laguna	12	San Juan la Laguna	1	Enero	2023-07-01T00:00:00	2024-11-08T17:00:00	7	Dirección del viento	8.05
29439	7	Sololá	717	San Juan la Laguna	12	San Juan la Laguna	1	Enero	2023-07-01T00:00:00	2024-11-08T17:00:00	1	Precipitación	0
29440	7	Sololá	717	San Juan la Laguna	12	San Juan la Laguna	1	Enero	2023-07-01T00:00:00	2024-11-08T17:00:00	8	Radiación solar	169
29441	7	Sololá	717	San Juan la Laguna	12	San Juan la Laguna	1	Enero	2023-07-01T00:00:00	2024-11-08T18:00:00	2	Temperatura media	19.7
29442	7	Sololá	717	San Juan la Laguna	12	San Juan la Laguna	1	Enero	2023-07-01T00:00:00	2024-11-08T18:00:00	4	Temperatura máxima	20.3
29443	7	Sololá	717	San Juan la Laguna	12	San Juan la Laguna	1	Enero	2023-07-01T00:00:00	2024-11-08T18:00:00	3	Temperatura mínima	19.7
29444	7	Sololá	717	San Juan la Laguna	12	San Juan la Laguna	1	Enero	2023-07-01T00:00:00	2024-11-08T18:00:00	5	Humedad	61
29445	7	Sololá	717	San Juan la Laguna	12	San Juan la Laguna	1	Enero	2023-07-01T00:00:00	2024-11-08T18:00:00	6	Velocidad del viento	4.8
29446	7	Sololá	717	San Juan la Laguna	12	San Juan la Laguna	1	Enero	2023-07-01T00:00:00	2024-11-08T18:00:00	7	Dirección del viento	4.83
29447	7	Sololá	717	San Juan la Laguna	12	San Juan la Laguna	1	Enero	2023-07-01T00:00:00	2024-11-08T18:00:00	1	Precipitación	0
29448	7	Sololá	717	San Juan la Laguna	12	San Juan la Laguna	1	Enero	2023-07-01T00:00:00	2024-11-08T18:00:00	8	Radiación solar	27
29449	7	Sololá	717	San Juan la Laguna	12	San Juan la Laguna	1	Enero	2023-07-01T00:00:00	2024-11-08T19:00:00	2	Temperatura media	18.7
29450	7	Sololá	717	San Juan la Laguna	12	San Juan la Laguna	1	Enero	2023-07-01T00:00:00	2024-11-08T19:00:00	4	Temperatura máxima	19.7
29451	7	Sololá	717	San Juan la Laguna	12	San Juan la Laguna	1	Enero	2023-07-01T00:00:00	2024-11-08T19:00:00	3	Temperatura mínima	18.7
29452	7	Sololá	717	San Juan la Laguna	12	San Juan la Laguna	1	Enero	2023-07-01T00:00:00	2024-11-08T19:00:00	5	Humedad	64
29453	7	Sololá	717	San Juan la Laguna	12	San Juan la Laguna	1	Enero	2023-07-01T00:00:00	2024-11-08T19:00:00	6	Velocidad del viento	3.2
29454	7	Sololá	717	San Juan la Laguna	12	San Juan la Laguna	1	Enero	2023-07-01T00:00:00	2024-11-08T19:00:00	7	Dirección del viento	3.22
29455	7	Sololá	717	San Juan la Laguna	12	San Juan la Laguna	1	Enero	2023-07-01T00:00:00	2024-11-08T19:00:00	1	Precipitación	0
29456	7	Sololá	717	San Juan la Laguna	12	San Juan la Laguna	1	Enero	2023-07-01T00:00:00	2024-11-08T19:00:00	8	Radiación solar	0
29457	7	Sololá	717	San Juan la Laguna	12	San Juan la Laguna	1	Enero	2023-07-01T00:00:00	2024-11-08T20:00:00	2	Temperatura media	18.1
29458	7	Sololá	717	San Juan la Laguna	12	San Juan la Laguna	1	Enero	2023-07-01T00:00:00	2024-11-08T20:00:00	4	Temperatura máxima	18.7
29459	7	Sololá	717	San Juan la Laguna	12	San Juan la Laguna	1	Enero	2023-07-01T00:00:00	2024-11-08T20:00:00	3	Temperatura mínima	18
29460	7	Sololá	717	San Juan la Laguna	12	San Juan la Laguna	1	Enero	2023-07-01T00:00:00	2024-11-08T20:00:00	5	Humedad	66
29461	7	Sololá	717	San Juan la Laguna	12	San Juan la Laguna	1	Enero	2023-07-01T00:00:00	2024-11-08T20:00:00	6	Velocidad del viento	3.2
29462	7	Sololá	717	San Juan la Laguna	12	San Juan la Laguna	1	Enero	2023-07-01T00:00:00	2024-11-08T20:00:00	7	Dirección del viento	3.22
29463	7	Sololá	717	San Juan la Laguna	12	San Juan la Laguna	1	Enero	2023-07-01T00:00:00	2024-11-08T20:00:00	1	Precipitación	0
29464	7	Sololá	717	San Juan la Laguna	12	San Juan la Laguna	1	Enero	2023-07-01T00:00:00	2024-11-08T20:00:00	8	Radiación solar	0
29465	7	Sololá	717	San Juan la Laguna	12	San Juan la Laguna	1	Enero	2023-07-01T00:00:00	2024-11-08T21:00:00	2	Temperatura media	17.8
29466	7	Sololá	717	San Juan la Laguna	12	San Juan la Laguna	1	Enero	2023-07-01T00:00:00	2024-11-08T21:00:00	4	Temperatura máxima	18.1
29467	7	Sololá	717	San Juan la Laguna	12	San Juan la Laguna	1	Enero	2023-07-01T00:00:00	2024-11-08T21:00:00	3	Temperatura mínima	17.8
29468	7	Sololá	717	San Juan la Laguna	12	San Juan la Laguna	1	Enero	2023-07-01T00:00:00	2024-11-08T21:00:00	5	Humedad	67
29469	7	Sololá	717	San Juan la Laguna	12	San Juan la Laguna	1	Enero	2023-07-01T00:00:00	2024-11-08T21:00:00	6	Velocidad del viento	4.8
29470	7	Sololá	717	San Juan la Laguna	12	San Juan la Laguna	1	Enero	2023-07-01T00:00:00	2024-11-08T21:00:00	7	Dirección del viento	4.83
29471	7	Sololá	717	San Juan la Laguna	12	San Juan la Laguna	1	Enero	2023-07-01T00:00:00	2024-11-08T21:00:00	1	Precipitación	0
29472	7	Sololá	717	San Juan la Laguna	12	San Juan la Laguna	1	Enero	2023-07-01T00:00:00	2024-11-08T21:00:00	8	Radiación solar	0
29473	7	Sololá	717	San Juan la Laguna	12	San Juan la Laguna	1	Enero	2023-07-01T00:00:00	2024-11-08T22:00:00	2	Temperatura media	18.2
29474	7	Sololá	717	San Juan la Laguna	12	San Juan la Laguna	1	Enero	2023-07-01T00:00:00	2024-11-08T22:00:00	4	Temperatura máxima	18.2
29475	7	Sololá	717	San Juan la Laguna	12	San Juan la Laguna	1	Enero	2023-07-01T00:00:00	2024-11-08T22:00:00	3	Temperatura mínima	17.7
29476	7	Sololá	717	San Juan la Laguna	12	San Juan la Laguna	1	Enero	2023-07-01T00:00:00	2024-11-08T22:00:00	5	Humedad	62
29477	7	Sololá	717	San Juan la Laguna	12	San Juan la Laguna	1	Enero	2023-07-01T00:00:00	2024-11-08T22:00:00	6	Velocidad del viento	3.2
29478	7	Sololá	717	San Juan la Laguna	12	San Juan la Laguna	1	Enero	2023-07-01T00:00:00	2024-11-08T22:00:00	7	Dirección del viento	3.22
29479	7	Sololá	717	San Juan la Laguna	12	San Juan la Laguna	1	Enero	2023-07-01T00:00:00	2024-11-08T22:00:00	1	Precipitación	0
29480	7	Sololá	717	San Juan la Laguna	12	San Juan la Laguna	1	Enero	2023-07-01T00:00:00	2024-11-08T22:00:00	8	Radiación solar	0
29481	7	Sololá	717	San Juan la Laguna	12	San Juan la Laguna	1	Enero	2023-07-01T00:00:00	2024-11-08T23:00:00	2	Temperatura media	18.4
29482	7	Sololá	717	San Juan la Laguna	12	San Juan la Laguna	1	Enero	2023-07-01T00:00:00	2024-11-08T23:00:00	4	Temperatura máxima	18.7
29483	7	Sololá	717	San Juan la Laguna	12	San Juan la Laguna	1	Enero	2023-07-01T00:00:00	2024-11-08T23:00:00	3	Temperatura mínima	18.2
29484	7	Sololá	717	San Juan la Laguna	12	San Juan la Laguna	1	Enero	2023-07-01T00:00:00	2024-11-08T23:00:00	5	Humedad	60
29485	7	Sololá	717	San Juan la Laguna	12	San Juan la Laguna	1	Enero	2023-07-01T00:00:00	2024-11-08T23:00:00	6	Velocidad del viento	3.2
29486	7	Sololá	717	San Juan la Laguna	12	San Juan la Laguna	1	Enero	2023-07-01T00:00:00	2024-11-08T23:00:00	7	Dirección del viento	3.22
29487	7	Sololá	717	San Juan la Laguna	12	San Juan la Laguna	1	Enero	2023-07-01T00:00:00	2024-11-08T23:00:00	1	Precipitación	0
29488	7	Sololá	717	San Juan la Laguna	12	San Juan la Laguna	1	Enero	2023-07-01T00:00:00	2024-11-08T23:00:00	8	Radiación solar	0
29489	7	Sololá	717	San Juan la Laguna	12	San Juan la Laguna	1	Enero	2023-08-01T00:00:00	2024-11-08T00:00:00	2	Temperatura media	17.8
29490	7	Sololá	717	San Juan la Laguna	12	San Juan la Laguna	1	Enero	2023-08-01T00:00:00	2024-11-08T00:00:00	4	Temperatura máxima	18.4
29491	7	Sololá	717	San Juan la Laguna	12	San Juan la Laguna	1	Enero	2023-08-01T00:00:00	2024-11-08T00:00:00	3	Temperatura mínima	16.3
29492	7	Sololá	717	San Juan la Laguna	12	San Juan la Laguna	1	Enero	2023-08-01T00:00:00	2024-11-08T00:00:00	5	Humedad	64
29493	7	Sololá	717	San Juan la Laguna	12	San Juan la Laguna	1	Enero	2023-08-01T00:00:00	2024-11-08T00:00:00	6	Velocidad del viento	1.6
29494	7	Sololá	717	San Juan la Laguna	12	San Juan la Laguna	1	Enero	2023-08-01T00:00:00	2024-11-08T00:00:00	7	Dirección del viento	1.61
29495	7	Sololá	717	San Juan la Laguna	12	San Juan la Laguna	1	Enero	2023-08-01T00:00:00	2024-11-08T00:00:00	1	Precipitación	0
29496	7	Sololá	717	San Juan la Laguna	12	San Juan la Laguna	1	Enero	2023-08-01T00:00:00	2024-11-08T00:00:00	8	Radiación solar	0
29497	7	Sololá	717	San Juan la Laguna	12	San Juan la Laguna	1	Enero	2023-08-01T00:00:00	2024-11-08T01:00:00	2	Temperatura media	15.7
29498	7	Sololá	717	San Juan la Laguna	12	San Juan la Laguna	1	Enero	2023-08-01T00:00:00	2024-11-08T01:00:00	4	Temperatura máxima	18.4
29499	7	Sololá	717	San Juan la Laguna	12	San Juan la Laguna	1	Enero	2023-08-01T00:00:00	2024-11-08T01:00:00	3	Temperatura mínima	15.7
29500	7	Sololá	717	San Juan la Laguna	12	San Juan la Laguna	1	Enero	2023-08-01T00:00:00	2024-11-08T01:00:00	5	Humedad	72
29501	7	Sololá	717	San Juan la Laguna	12	San Juan la Laguna	1	Enero	2023-08-01T00:00:00	2024-11-08T01:00:00	6	Velocidad del viento	1.6
29502	7	Sololá	717	San Juan la Laguna	12	San Juan la Laguna	1	Enero	2023-08-01T00:00:00	2024-11-08T01:00:00	7	Dirección del viento	1.61
29503	7	Sololá	717	San Juan la Laguna	12	San Juan la Laguna	1	Enero	2023-08-01T00:00:00	2024-11-08T01:00:00	1	Precipitación	0
29504	7	Sololá	717	San Juan la Laguna	12	San Juan la Laguna	1	Enero	2023-08-01T00:00:00	2024-11-08T01:00:00	8	Radiación solar	0
29505	7	Sololá	717	San Juan la Laguna	12	San Juan la Laguna	1	Enero	2023-08-01T00:00:00	2024-11-08T02:00:00	2	Temperatura media	16.2
29506	7	Sololá	717	San Juan la Laguna	12	San Juan la Laguna	1	Enero	2023-08-01T00:00:00	2024-11-08T02:00:00	4	Temperatura máxima	16.6
29507	7	Sololá	717	San Juan la Laguna	12	San Juan la Laguna	1	Enero	2023-08-01T00:00:00	2024-11-08T02:00:00	3	Temperatura mínima	15.3
29508	7	Sololá	717	San Juan la Laguna	12	San Juan la Laguna	1	Enero	2023-08-01T00:00:00	2024-11-08T02:00:00	5	Humedad	71
29509	7	Sololá	717	San Juan la Laguna	12	San Juan la Laguna	1	Enero	2023-08-01T00:00:00	2024-11-08T02:00:00	6	Velocidad del viento	3.2
29510	7	Sololá	717	San Juan la Laguna	12	San Juan la Laguna	1	Enero	2023-08-01T00:00:00	2024-11-08T02:00:00	7	Dirección del viento	3.22
29511	7	Sololá	717	San Juan la Laguna	12	San Juan la Laguna	1	Enero	2023-08-01T00:00:00	2024-11-08T02:00:00	1	Precipitación	0
29512	7	Sololá	717	San Juan la Laguna	12	San Juan la Laguna	1	Enero	2023-08-01T00:00:00	2024-11-08T02:00:00	8	Radiación solar	0
29513	7	Sololá	717	San Juan la Laguna	12	San Juan la Laguna	1	Enero	2023-08-01T00:00:00	2024-11-08T03:00:00	2	Temperatura media	14.9
29514	7	Sololá	717	San Juan la Laguna	12	San Juan la Laguna	1	Enero	2023-08-01T00:00:00	2024-11-08T03:00:00	4	Temperatura máxima	17
29515	7	Sololá	717	San Juan la Laguna	12	San Juan la Laguna	1	Enero	2023-08-01T00:00:00	2024-11-08T03:00:00	3	Temperatura mínima	14.9
29516	7	Sololá	717	San Juan la Laguna	12	San Juan la Laguna	1	Enero	2023-08-01T00:00:00	2024-11-08T03:00:00	5	Humedad	75
29517	7	Sololá	717	San Juan la Laguna	12	San Juan la Laguna	1	Enero	2023-08-01T00:00:00	2024-11-08T03:00:00	6	Velocidad del viento	3.2
29518	7	Sololá	717	San Juan la Laguna	12	San Juan la Laguna	1	Enero	2023-08-01T00:00:00	2024-11-08T03:00:00	7	Dirección del viento	3.22
29519	7	Sololá	717	San Juan la Laguna	12	San Juan la Laguna	1	Enero	2023-08-01T00:00:00	2024-11-08T03:00:00	1	Precipitación	0
29520	7	Sololá	717	San Juan la Laguna	12	San Juan la Laguna	1	Enero	2023-08-01T00:00:00	2024-11-08T03:00:00	8	Radiación solar	0
29521	7	Sololá	717	San Juan la Laguna	12	San Juan la Laguna	1	Enero	2023-08-01T00:00:00	2024-11-08T04:00:00	2	Temperatura media	13.7
29522	7	Sololá	717	San Juan la Laguna	12	San Juan la Laguna	1	Enero	2023-08-01T00:00:00	2024-11-08T04:00:00	4	Temperatura máxima	14.9
29523	7	Sololá	717	San Juan la Laguna	12	San Juan la Laguna	1	Enero	2023-08-01T00:00:00	2024-11-08T04:00:00	3	Temperatura mínima	13.7
29524	7	Sololá	717	San Juan la Laguna	12	San Juan la Laguna	1	Enero	2023-08-01T00:00:00	2024-11-08T04:00:00	5	Humedad	79
29525	7	Sololá	717	San Juan la Laguna	12	San Juan la Laguna	1	Enero	2023-08-01T00:00:00	2024-11-08T04:00:00	6	Velocidad del viento	3.2
29526	7	Sololá	717	San Juan la Laguna	12	San Juan la Laguna	1	Enero	2023-08-01T00:00:00	2024-11-08T04:00:00	7	Dirección del viento	3.22
29527	7	Sololá	717	San Juan la Laguna	12	San Juan la Laguna	1	Enero	2023-08-01T00:00:00	2024-11-08T04:00:00	1	Precipitación	0
29528	7	Sololá	717	San Juan la Laguna	12	San Juan la Laguna	1	Enero	2023-08-01T00:00:00	2024-11-08T04:00:00	8	Radiación solar	0
29529	7	Sololá	717	San Juan la Laguna	12	San Juan la Laguna	1	Enero	2023-08-01T00:00:00	2024-11-08T05:00:00	2	Temperatura media	12.4
29530	7	Sololá	717	San Juan la Laguna	12	San Juan la Laguna	1	Enero	2023-08-01T00:00:00	2024-11-08T05:00:00	4	Temperatura máxima	13.7
29531	7	Sololá	717	San Juan la Laguna	12	San Juan la Laguna	1	Enero	2023-08-01T00:00:00	2024-11-08T05:00:00	3	Temperatura mínima	12.4
29532	7	Sololá	717	San Juan la Laguna	12	San Juan la Laguna	1	Enero	2023-08-01T00:00:00	2024-11-08T05:00:00	5	Humedad	84
29533	7	Sololá	717	San Juan la Laguna	12	San Juan la Laguna	1	Enero	2023-08-01T00:00:00	2024-11-08T05:00:00	6	Velocidad del viento	1.6
29534	7	Sololá	717	San Juan la Laguna	12	San Juan la Laguna	1	Enero	2023-08-01T00:00:00	2024-11-08T05:00:00	7	Dirección del viento	1.61
29535	7	Sololá	717	San Juan la Laguna	12	San Juan la Laguna	1	Enero	2023-08-01T00:00:00	2024-11-08T05:00:00	1	Precipitación	0
29536	7	Sololá	717	San Juan la Laguna	12	San Juan la Laguna	1	Enero	2023-08-01T00:00:00	2024-11-08T05:00:00	8	Radiación solar	0
29537	7	Sololá	717	San Juan la Laguna	12	San Juan la Laguna	1	Enero	2023-08-01T00:00:00	2024-11-08T06:00:00	2	Temperatura media	12.5
29538	7	Sololá	717	San Juan la Laguna	12	San Juan la Laguna	1	Enero	2023-08-01T00:00:00	2024-11-08T06:00:00	4	Temperatura máxima	12.8
29539	7	Sololá	717	San Juan la Laguna	12	San Juan la Laguna	1	Enero	2023-08-01T00:00:00	2024-11-08T06:00:00	3	Temperatura mínima	12.4
29540	7	Sololá	717	San Juan la Laguna	12	San Juan la Laguna	1	Enero	2023-08-01T00:00:00	2024-11-08T06:00:00	5	Humedad	84
29541	7	Sololá	717	San Juan la Laguna	12	San Juan la Laguna	1	Enero	2023-08-01T00:00:00	2024-11-08T06:00:00	6	Velocidad del viento	3.2
29542	7	Sololá	717	San Juan la Laguna	12	San Juan la Laguna	1	Enero	2023-08-01T00:00:00	2024-11-08T06:00:00	7	Dirección del viento	3.22
29543	7	Sololá	717	San Juan la Laguna	12	San Juan la Laguna	1	Enero	2023-08-01T00:00:00	2024-11-08T06:00:00	1	Precipitación	0
29544	7	Sololá	717	San Juan la Laguna	12	San Juan la Laguna	1	Enero	2023-08-01T00:00:00	2024-11-08T06:00:00	8	Radiación solar	0
29545	7	Sololá	717	San Juan la Laguna	12	San Juan la Laguna	1	Enero	2023-08-01T00:00:00	2024-11-08T07:00:00	2	Temperatura media	13
29546	7	Sololá	717	San Juan la Laguna	12	San Juan la Laguna	1	Enero	2023-08-01T00:00:00	2024-11-08T07:00:00	4	Temperatura máxima	13.1
29547	7	Sololá	717	San Juan la Laguna	12	San Juan la Laguna	1	Enero	2023-08-01T00:00:00	2024-11-08T07:00:00	3	Temperatura mínima	12.3
29548	7	Sololá	717	San Juan la Laguna	12	San Juan la Laguna	1	Enero	2023-08-01T00:00:00	2024-11-08T07:00:00	5	Humedad	82
29549	7	Sololá	717	San Juan la Laguna	12	San Juan la Laguna	1	Enero	2023-08-01T00:00:00	2024-11-08T07:00:00	6	Velocidad del viento	3.2
29550	7	Sololá	717	San Juan la Laguna	12	San Juan la Laguna	1	Enero	2023-08-01T00:00:00	2024-11-08T07:00:00	7	Dirección del viento	3.22
29551	7	Sololá	717	San Juan la Laguna	12	San Juan la Laguna	1	Enero	2023-08-01T00:00:00	2024-11-08T07:00:00	1	Precipitación	0
29552	7	Sololá	717	San Juan la Laguna	12	San Juan la Laguna	1	Enero	2023-08-01T00:00:00	2024-11-08T07:00:00	8	Radiación solar	4
29553	7	Sololá	717	San Juan la Laguna	12	San Juan la Laguna	1	Enero	2023-08-01T00:00:00	2024-11-08T08:00:00	2	Temperatura media	15.7
29554	7	Sololá	717	San Juan la Laguna	12	San Juan la Laguna	1	Enero	2023-08-01T00:00:00	2024-11-08T08:00:00	4	Temperatura máxima	15.7
29555	7	Sololá	717	San Juan la Laguna	12	San Juan la Laguna	1	Enero	2023-08-01T00:00:00	2024-11-08T08:00:00	3	Temperatura mínima	12.9
29556	7	Sololá	717	San Juan la Laguna	12	San Juan la Laguna	1	Enero	2023-08-01T00:00:00	2024-11-08T08:00:00	5	Humedad	77
29557	7	Sololá	717	San Juan la Laguna	12	San Juan la Laguna	1	Enero	2023-08-01T00:00:00	2024-11-08T08:00:00	6	Velocidad del viento	3.2
29558	7	Sololá	717	San Juan la Laguna	12	San Juan la Laguna	1	Enero	2023-08-01T00:00:00	2024-11-08T08:00:00	7	Dirección del viento	3.22
29559	7	Sololá	717	San Juan la Laguna	12	San Juan la Laguna	1	Enero	2023-08-01T00:00:00	2024-11-08T08:00:00	1	Precipitación	0
29560	7	Sololá	717	San Juan la Laguna	12	San Juan la Laguna	1	Enero	2023-08-01T00:00:00	2024-11-08T08:00:00	8	Radiación solar	124
29561	7	Sololá	717	San Juan la Laguna	12	San Juan la Laguna	1	Enero	2023-08-01T00:00:00	2024-11-08T09:00:00	2	Temperatura media	19.1
29562	7	Sololá	717	San Juan la Laguna	12	San Juan la Laguna	1	Enero	2023-08-01T00:00:00	2024-11-08T09:00:00	4	Temperatura máxima	19.3
29563	7	Sololá	717	San Juan la Laguna	12	San Juan la Laguna	1	Enero	2023-08-01T00:00:00	2024-11-08T09:00:00	3	Temperatura mínima	15.7
29564	7	Sololá	717	San Juan la Laguna	12	San Juan la Laguna	1	Enero	2023-08-01T00:00:00	2024-11-08T09:00:00	5	Humedad	68
29565	7	Sololá	717	San Juan la Laguna	12	San Juan la Laguna	1	Enero	2023-08-01T00:00:00	2024-11-08T09:00:00	6	Velocidad del viento	1.6
29566	7	Sololá	717	San Juan la Laguna	12	San Juan la Laguna	1	Enero	2023-08-01T00:00:00	2024-11-08T09:00:00	7	Dirección del viento	1.61
29567	7	Sololá	717	San Juan la Laguna	12	San Juan la Laguna	1	Enero	2023-08-01T00:00:00	2024-11-08T09:00:00	1	Precipitación	0
29568	7	Sololá	717	San Juan la Laguna	12	San Juan la Laguna	1	Enero	2023-08-01T00:00:00	2024-11-08T09:00:00	8	Radiación solar	333
29569	7	Sololá	717	San Juan la Laguna	12	San Juan la Laguna	1	Enero	2023-08-01T00:00:00	2024-11-08T10:00:00	2	Temperatura media	20.6
29570	7	Sololá	717	San Juan la Laguna	12	San Juan la Laguna	1	Enero	2023-08-01T00:00:00	2024-11-08T10:00:00	4	Temperatura máxima	20.6
29571	7	Sololá	717	San Juan la Laguna	12	San Juan la Laguna	1	Enero	2023-08-01T00:00:00	2024-11-08T10:00:00	3	Temperatura mínima	19.1
29572	7	Sololá	717	San Juan la Laguna	12	San Juan la Laguna	1	Enero	2023-08-01T00:00:00	2024-11-08T10:00:00	5	Humedad	61
29573	7	Sololá	717	San Juan la Laguna	12	San Juan la Laguna	1	Enero	2023-08-01T00:00:00	2024-11-08T10:00:00	6	Velocidad del viento	1.6
29574	7	Sololá	717	San Juan la Laguna	12	San Juan la Laguna	1	Enero	2023-08-01T00:00:00	2024-11-08T10:00:00	7	Dirección del viento	1.61
29575	7	Sololá	717	San Juan la Laguna	12	San Juan la Laguna	1	Enero	2023-08-01T00:00:00	2024-11-08T10:00:00	1	Precipitación	0
29576	7	Sololá	717	San Juan la Laguna	12	San Juan la Laguna	1	Enero	2023-08-01T00:00:00	2024-11-08T10:00:00	8	Radiación solar	517
29577	7	Sololá	717	San Juan la Laguna	12	San Juan la Laguna	1	Enero	2023-08-01T00:00:00	2024-11-08T11:00:00	2	Temperatura media	22.5
29578	7	Sololá	717	San Juan la Laguna	12	San Juan la Laguna	1	Enero	2023-08-01T00:00:00	2024-11-08T11:00:00	4	Temperatura máxima	22.5
29579	7	Sololá	717	San Juan la Laguna	12	San Juan la Laguna	1	Enero	2023-08-01T00:00:00	2024-11-08T11:00:00	3	Temperatura mínima	20.6
29580	7	Sololá	717	San Juan la Laguna	12	San Juan la Laguna	1	Enero	2023-08-01T00:00:00	2024-11-08T11:00:00	5	Humedad	55
29581	7	Sololá	717	San Juan la Laguna	12	San Juan la Laguna	1	Enero	2023-08-01T00:00:00	2024-11-08T11:00:00	6	Velocidad del viento	3.2
29582	7	Sololá	717	San Juan la Laguna	12	San Juan la Laguna	1	Enero	2023-08-01T00:00:00	2024-11-08T11:00:00	7	Dirección del viento	3.22
29583	7	Sololá	717	San Juan la Laguna	12	San Juan la Laguna	1	Enero	2023-08-01T00:00:00	2024-11-08T11:00:00	1	Precipitación	0
29584	7	Sololá	717	San Juan la Laguna	12	San Juan la Laguna	1	Enero	2023-08-01T00:00:00	2024-11-08T11:00:00	8	Radiación solar	611
29585	7	Sololá	717	San Juan la Laguna	12	San Juan la Laguna	1	Enero	2023-08-01T00:00:00	2024-11-08T12:00:00	2	Temperatura media	23
29586	7	Sololá	717	San Juan la Laguna	12	San Juan la Laguna	1	Enero	2023-08-01T00:00:00	2024-11-08T12:00:00	4	Temperatura máxima	23.2
29587	7	Sololá	717	San Juan la Laguna	12	San Juan la Laguna	1	Enero	2023-08-01T00:00:00	2024-11-08T12:00:00	3	Temperatura mínima	22.4
29588	7	Sololá	717	San Juan la Laguna	12	San Juan la Laguna	1	Enero	2023-08-01T00:00:00	2024-11-08T12:00:00	5	Humedad	54
29589	7	Sololá	717	San Juan la Laguna	12	San Juan la Laguna	1	Enero	2023-08-01T00:00:00	2024-11-08T12:00:00	6	Velocidad del viento	4.8
29590	7	Sololá	717	San Juan la Laguna	12	San Juan la Laguna	1	Enero	2023-08-01T00:00:00	2024-11-08T12:00:00	7	Dirección del viento	4.83
29591	7	Sololá	717	San Juan la Laguna	12	San Juan la Laguna	1	Enero	2023-08-01T00:00:00	2024-11-08T12:00:00	1	Precipitación	0
29592	7	Sololá	717	San Juan la Laguna	12	San Juan la Laguna	1	Enero	2023-08-01T00:00:00	2024-11-08T12:00:00	8	Radiación solar	692
29593	7	Sololá	717	San Juan la Laguna	12	San Juan la Laguna	1	Enero	2023-08-01T00:00:00	2024-11-08T13:00:00	2	Temperatura media	23.1
29594	7	Sololá	717	San Juan la Laguna	12	San Juan la Laguna	1	Enero	2023-08-01T00:00:00	2024-11-08T13:00:00	4	Temperatura máxima	24
29595	7	Sololá	717	San Juan la Laguna	12	San Juan la Laguna	1	Enero	2023-08-01T00:00:00	2024-11-08T13:00:00	3	Temperatura mínima	22.8
29596	7	Sololá	717	San Juan la Laguna	12	San Juan la Laguna	1	Enero	2023-08-01T00:00:00	2024-11-08T13:00:00	5	Humedad	57
29597	7	Sololá	717	San Juan la Laguna	12	San Juan la Laguna	1	Enero	2023-08-01T00:00:00	2024-11-08T13:00:00	6	Velocidad del viento	3.2
29598	7	Sololá	717	San Juan la Laguna	12	San Juan la Laguna	1	Enero	2023-08-01T00:00:00	2024-11-08T13:00:00	7	Dirección del viento	3.22
29599	7	Sololá	717	San Juan la Laguna	12	San Juan la Laguna	1	Enero	2023-08-01T00:00:00	2024-11-08T13:00:00	1	Precipitación	0
29600	7	Sololá	717	San Juan la Laguna	12	San Juan la Laguna	1	Enero	2023-08-01T00:00:00	2024-11-08T13:00:00	8	Radiación solar	739
29601	7	Sololá	717	San Juan la Laguna	12	San Juan la Laguna	1	Enero	2023-08-01T00:00:00	2024-11-08T14:00:00	2	Temperatura media	22.7
29602	7	Sololá	717	San Juan la Laguna	12	San Juan la Laguna	1	Enero	2023-08-01T00:00:00	2024-11-08T14:00:00	4	Temperatura máxima	24.2
29603	7	Sololá	717	San Juan la Laguna	12	San Juan la Laguna	1	Enero	2023-08-01T00:00:00	2024-11-08T14:00:00	3	Temperatura mínima	22.6
29604	7	Sololá	717	San Juan la Laguna	12	San Juan la Laguna	1	Enero	2023-08-01T00:00:00	2024-11-08T14:00:00	5	Humedad	65
29605	7	Sololá	717	San Juan la Laguna	12	San Juan la Laguna	1	Enero	2023-08-01T00:00:00	2024-11-08T14:00:00	6	Velocidad del viento	6.4
29606	7	Sololá	717	San Juan la Laguna	12	San Juan la Laguna	1	Enero	2023-08-01T00:00:00	2024-11-08T14:00:00	7	Dirección del viento	6.44
29607	7	Sololá	717	San Juan la Laguna	12	San Juan la Laguna	1	Enero	2023-08-01T00:00:00	2024-11-08T14:00:00	1	Precipitación	0
29608	7	Sololá	717	San Juan la Laguna	12	San Juan la Laguna	1	Enero	2023-08-01T00:00:00	2024-11-08T14:00:00	8	Radiación solar	751
29609	7	Sololá	717	San Juan la Laguna	12	San Juan la Laguna	1	Enero	2023-08-01T00:00:00	2024-11-08T15:00:00	2	Temperatura media	20.9
29610	7	Sololá	717	San Juan la Laguna	12	San Juan la Laguna	1	Enero	2023-08-01T00:00:00	2024-11-08T15:00:00	4	Temperatura máxima	22.8
29611	7	Sololá	717	San Juan la Laguna	12	San Juan la Laguna	1	Enero	2023-08-01T00:00:00	2024-11-08T15:00:00	3	Temperatura mínima	20.9
29612	7	Sololá	717	San Juan la Laguna	12	San Juan la Laguna	1	Enero	2023-08-01T00:00:00	2024-11-08T15:00:00	5	Humedad	71
29613	7	Sololá	717	San Juan la Laguna	12	San Juan la Laguna	1	Enero	2023-08-01T00:00:00	2024-11-08T15:00:00	6	Velocidad del viento	12.9
29614	7	Sololá	717	San Juan la Laguna	12	San Juan la Laguna	1	Enero	2023-08-01T00:00:00	2024-11-08T15:00:00	7	Dirección del viento	12.87
29615	7	Sololá	717	San Juan la Laguna	12	San Juan la Laguna	1	Enero	2023-08-01T00:00:00	2024-11-08T15:00:00	1	Precipitación	0
29616	7	Sololá	717	San Juan la Laguna	12	San Juan la Laguna	1	Enero	2023-08-01T00:00:00	2024-11-08T15:00:00	8	Radiación solar	686
29617	7	Sololá	717	San Juan la Laguna	12	San Juan la Laguna	1	Enero	2023-08-01T00:00:00	2024-11-08T16:00:00	2	Temperatura media	19.5
29618	7	Sololá	717	San Juan la Laguna	12	San Juan la Laguna	1	Enero	2023-08-01T00:00:00	2024-11-08T16:00:00	4	Temperatura máxima	21.2
29619	7	Sololá	717	San Juan la Laguna	12	San Juan la Laguna	1	Enero	2023-08-01T00:00:00	2024-11-08T16:00:00	3	Temperatura mínima	19.5
29620	7	Sololá	717	San Juan la Laguna	12	San Juan la Laguna	1	Enero	2023-08-01T00:00:00	2024-11-08T16:00:00	5	Humedad	76
29621	7	Sololá	717	San Juan la Laguna	12	San Juan la Laguna	1	Enero	2023-08-01T00:00:00	2024-11-08T16:00:00	6	Velocidad del viento	12.9
29622	7	Sololá	717	San Juan la Laguna	12	San Juan la Laguna	1	Enero	2023-08-01T00:00:00	2024-11-08T16:00:00	7	Dirección del viento	12.87
29623	7	Sololá	717	San Juan la Laguna	12	San Juan la Laguna	1	Enero	2023-08-01T00:00:00	2024-11-08T16:00:00	1	Precipitación	0
29624	7	Sololá	717	San Juan la Laguna	12	San Juan la Laguna	1	Enero	2023-08-01T00:00:00	2024-11-08T16:00:00	8	Radiación solar	418
29625	7	Sololá	717	San Juan la Laguna	12	San Juan la Laguna	1	Enero	2023-08-01T00:00:00	2024-11-08T17:00:00	2	Temperatura media	18.4
29626	7	Sololá	717	San Juan la Laguna	12	San Juan la Laguna	1	Enero	2023-08-01T00:00:00	2024-11-08T17:00:00	4	Temperatura máxima	19.5
29627	7	Sololá	717	San Juan la Laguna	12	San Juan la Laguna	1	Enero	2023-08-01T00:00:00	2024-11-08T17:00:00	3	Temperatura mínima	18.3
29628	7	Sololá	717	San Juan la Laguna	12	San Juan la Laguna	1	Enero	2023-08-01T00:00:00	2024-11-08T17:00:00	5	Humedad	82
29629	7	Sololá	717	San Juan la Laguna	12	San Juan la Laguna	1	Enero	2023-08-01T00:00:00	2024-11-08T17:00:00	6	Velocidad del viento	8
29630	7	Sololá	717	San Juan la Laguna	12	San Juan la Laguna	1	Enero	2023-08-01T00:00:00	2024-11-08T17:00:00	7	Dirección del viento	8.05
29631	7	Sololá	717	San Juan la Laguna	12	San Juan la Laguna	1	Enero	2023-08-01T00:00:00	2024-11-08T17:00:00	1	Precipitación	0
29632	7	Sololá	717	San Juan la Laguna	12	San Juan la Laguna	1	Enero	2023-08-01T00:00:00	2024-11-08T17:00:00	8	Radiación solar	38
29633	7	Sololá	717	San Juan la Laguna	12	San Juan la Laguna	1	Enero	2023-08-01T00:00:00	2024-11-08T18:00:00	2	Temperatura media	17.9
29634	7	Sololá	717	San Juan la Laguna	12	San Juan la Laguna	1	Enero	2023-08-01T00:00:00	2024-11-08T18:00:00	4	Temperatura máxima	18.6
29635	7	Sololá	717	San Juan la Laguna	12	San Juan la Laguna	1	Enero	2023-08-01T00:00:00	2024-11-08T18:00:00	3	Temperatura mínima	17.9
29636	7	Sololá	717	San Juan la Laguna	12	San Juan la Laguna	1	Enero	2023-08-01T00:00:00	2024-11-08T18:00:00	5	Humedad	85
29637	7	Sololá	717	San Juan la Laguna	12	San Juan la Laguna	1	Enero	2023-08-01T00:00:00	2024-11-08T18:00:00	6	Velocidad del viento	3.2
29638	7	Sololá	717	San Juan la Laguna	12	San Juan la Laguna	1	Enero	2023-08-01T00:00:00	2024-11-08T18:00:00	7	Dirección del viento	3.22
29639	7	Sololá	717	San Juan la Laguna	12	San Juan la Laguna	1	Enero	2023-08-01T00:00:00	2024-11-08T18:00:00	1	Precipitación	0.2
29640	7	Sololá	717	San Juan la Laguna	12	San Juan la Laguna	1	Enero	2023-08-01T00:00:00	2024-11-08T18:00:00	8	Radiación solar	12
29641	7	Sololá	717	San Juan la Laguna	12	San Juan la Laguna	1	Enero	2023-08-01T00:00:00	2024-11-08T19:00:00	2	Temperatura media	17.1
29642	7	Sololá	717	San Juan la Laguna	12	San Juan la Laguna	1	Enero	2023-08-01T00:00:00	2024-11-08T19:00:00	4	Temperatura máxima	18
29643	7	Sololá	717	San Juan la Laguna	12	San Juan la Laguna	1	Enero	2023-08-01T00:00:00	2024-11-08T19:00:00	3	Temperatura mínima	17.1
29644	7	Sololá	717	San Juan la Laguna	12	San Juan la Laguna	1	Enero	2023-08-01T00:00:00	2024-11-08T19:00:00	5	Humedad	91
29645	7	Sololá	717	San Juan la Laguna	12	San Juan la Laguna	1	Enero	2023-08-01T00:00:00	2024-11-08T19:00:00	6	Velocidad del viento	0
29646	7	Sololá	717	San Juan la Laguna	12	San Juan la Laguna	1	Enero	2023-08-01T00:00:00	2024-11-08T19:00:00	7	Dirección del viento	0
29647	7	Sololá	717	San Juan la Laguna	12	San Juan la Laguna	1	Enero	2023-08-01T00:00:00	2024-11-08T19:00:00	1	Precipitación	1
29648	7	Sololá	717	San Juan la Laguna	12	San Juan la Laguna	1	Enero	2023-08-01T00:00:00	2024-11-08T19:00:00	8	Radiación solar	0
29649	7	Sololá	717	San Juan la Laguna	12	San Juan la Laguna	1	Enero	2023-08-01T00:00:00	2024-11-08T20:00:00	2	Temperatura media	17.1
29650	7	Sololá	717	San Juan la Laguna	12	San Juan la Laguna	1	Enero	2023-08-01T00:00:00	2024-11-08T20:00:00	4	Temperatura máxima	17.3
29651	7	Sololá	717	San Juan la Laguna	12	San Juan la Laguna	1	Enero	2023-08-01T00:00:00	2024-11-08T20:00:00	3	Temperatura mínima	16.7
29652	7	Sololá	717	San Juan la Laguna	12	San Juan la Laguna	1	Enero	2023-08-01T00:00:00	2024-11-08T20:00:00	5	Humedad	92
29653	7	Sololá	717	San Juan la Laguna	12	San Juan la Laguna	1	Enero	2023-08-01T00:00:00	2024-11-08T20:00:00	6	Velocidad del viento	0
29654	7	Sololá	717	San Juan la Laguna	12	San Juan la Laguna	1	Enero	2023-08-01T00:00:00	2024-11-08T20:00:00	7	Dirección del viento	0
29655	7	Sololá	717	San Juan la Laguna	12	San Juan la Laguna	1	Enero	2023-08-01T00:00:00	2024-11-08T20:00:00	1	Precipitación	0
29656	7	Sololá	717	San Juan la Laguna	12	San Juan la Laguna	1	Enero	2023-08-01T00:00:00	2024-11-08T20:00:00	8	Radiación solar	0
29657	7	Sololá	717	San Juan la Laguna	12	San Juan la Laguna	1	Enero	2023-08-01T00:00:00	2024-11-08T21:00:00	2	Temperatura media	15.4
29658	7	Sololá	717	San Juan la Laguna	12	San Juan la Laguna	1	Enero	2023-08-01T00:00:00	2024-11-08T21:00:00	4	Temperatura máxima	17.3
29659	7	Sololá	717	San Juan la Laguna	12	San Juan la Laguna	1	Enero	2023-08-01T00:00:00	2024-11-08T21:00:00	3	Temperatura mínima	15.4
29660	7	Sololá	717	San Juan la Laguna	12	San Juan la Laguna	1	Enero	2023-08-01T00:00:00	2024-11-08T21:00:00	5	Humedad	90
29661	7	Sololá	717	San Juan la Laguna	12	San Juan la Laguna	1	Enero	2023-08-01T00:00:00	2024-11-08T21:00:00	6	Velocidad del viento	0
29662	7	Sololá	717	San Juan la Laguna	12	San Juan la Laguna	1	Enero	2023-08-01T00:00:00	2024-11-08T21:00:00	7	Dirección del viento	0
29663	7	Sololá	717	San Juan la Laguna	12	San Juan la Laguna	1	Enero	2023-08-01T00:00:00	2024-11-08T21:00:00	1	Precipitación	0
29664	7	Sololá	717	San Juan la Laguna	12	San Juan la Laguna	1	Enero	2023-08-01T00:00:00	2024-11-08T21:00:00	8	Radiación solar	0
29665	7	Sololá	717	San Juan la Laguna	12	San Juan la Laguna	1	Enero	2023-08-01T00:00:00	2024-11-08T22:00:00	2	Temperatura media	14.7
29666	7	Sololá	717	San Juan la Laguna	12	San Juan la Laguna	1	Enero	2023-08-01T00:00:00	2024-11-08T22:00:00	4	Temperatura máxima	15.4
29667	7	Sololá	717	San Juan la Laguna	12	San Juan la Laguna	1	Enero	2023-08-01T00:00:00	2024-11-08T22:00:00	3	Temperatura mínima	14.7
29668	7	Sololá	717	San Juan la Laguna	12	San Juan la Laguna	1	Enero	2023-08-01T00:00:00	2024-11-08T22:00:00	5	Humedad	88
29669	7	Sololá	717	San Juan la Laguna	12	San Juan la Laguna	1	Enero	2023-08-01T00:00:00	2024-11-08T22:00:00	6	Velocidad del viento	1.6
29670	7	Sololá	717	San Juan la Laguna	12	San Juan la Laguna	1	Enero	2023-08-01T00:00:00	2024-11-08T22:00:00	7	Dirección del viento	1.61
29671	7	Sololá	717	San Juan la Laguna	12	San Juan la Laguna	1	Enero	2023-08-01T00:00:00	2024-11-08T22:00:00	1	Precipitación	0
29672	7	Sololá	717	San Juan la Laguna	12	San Juan la Laguna	1	Enero	2023-08-01T00:00:00	2024-11-08T22:00:00	8	Radiación solar	0
29673	7	Sololá	717	San Juan la Laguna	12	San Juan la Laguna	1	Enero	2023-08-01T00:00:00	2024-11-08T23:00:00	2	Temperatura media	14.1
29674	7	Sololá	717	San Juan la Laguna	12	San Juan la Laguna	1	Enero	2023-08-01T00:00:00	2024-11-08T23:00:00	4	Temperatura máxima	14.7
29675	7	Sololá	717	San Juan la Laguna	12	San Juan la Laguna	1	Enero	2023-08-01T00:00:00	2024-11-08T23:00:00	3	Temperatura mínima	14
29676	7	Sololá	717	San Juan la Laguna	12	San Juan la Laguna	1	Enero	2023-08-01T00:00:00	2024-11-08T23:00:00	5	Humedad	88
29677	7	Sololá	717	San Juan la Laguna	12	San Juan la Laguna	1	Enero	2023-08-01T00:00:00	2024-11-08T23:00:00	6	Velocidad del viento	1.6
29678	7	Sololá	717	San Juan la Laguna	12	San Juan la Laguna	1	Enero	2023-08-01T00:00:00	2024-11-08T23:00:00	7	Dirección del viento	1.61
29679	7	Sololá	717	San Juan la Laguna	12	San Juan la Laguna	1	Enero	2023-08-01T00:00:00	2024-11-08T23:00:00	1	Precipitación	0
29680	7	Sololá	717	San Juan la Laguna	12	San Juan la Laguna	1	Enero	2023-08-01T00:00:00	2024-11-08T23:00:00	8	Radiación solar	0
29681	7	Sololá	717	San Juan la Laguna	12	San Juan la Laguna	1	Enero	2023-09-01T00:00:00	2024-11-08T00:00:00	2	Temperatura media	13.7
29682	7	Sololá	717	San Juan la Laguna	12	San Juan la Laguna	1	Enero	2023-09-01T00:00:00	2024-11-08T00:00:00	4	Temperatura máxima	14.1
29683	7	Sololá	717	San Juan la Laguna	12	San Juan la Laguna	1	Enero	2023-09-01T00:00:00	2024-11-08T00:00:00	3	Temperatura mínima	13.7
29684	7	Sololá	717	San Juan la Laguna	12	San Juan la Laguna	1	Enero	2023-09-01T00:00:00	2024-11-08T00:00:00	5	Humedad	88
29685	7	Sololá	717	San Juan la Laguna	12	San Juan la Laguna	1	Enero	2023-09-01T00:00:00	2024-11-08T00:00:00	6	Velocidad del viento	3.2
29686	7	Sololá	717	San Juan la Laguna	12	San Juan la Laguna	1	Enero	2023-09-01T00:00:00	2024-11-08T00:00:00	7	Dirección del viento	3.22
29687	7	Sololá	717	San Juan la Laguna	12	San Juan la Laguna	1	Enero	2023-09-01T00:00:00	2024-11-08T00:00:00	1	Precipitación	0
29688	7	Sololá	717	San Juan la Laguna	12	San Juan la Laguna	1	Enero	2023-09-01T00:00:00	2024-11-08T00:00:00	8	Radiación solar	0
29689	7	Sololá	717	San Juan la Laguna	12	San Juan la Laguna	1	Enero	2023-09-01T00:00:00	2024-11-08T01:00:00	2	Temperatura media	13.9
29690	7	Sololá	717	San Juan la Laguna	12	San Juan la Laguna	1	Enero	2023-09-01T00:00:00	2024-11-08T01:00:00	4	Temperatura máxima	13.9
29691	7	Sololá	717	San Juan la Laguna	12	San Juan la Laguna	1	Enero	2023-09-01T00:00:00	2024-11-08T01:00:00	3	Temperatura mínima	13.6
29692	7	Sololá	717	San Juan la Laguna	12	San Juan la Laguna	1	Enero	2023-09-01T00:00:00	2024-11-08T01:00:00	5	Humedad	87
29693	7	Sololá	717	San Juan la Laguna	12	San Juan la Laguna	1	Enero	2023-09-01T00:00:00	2024-11-08T01:00:00	6	Velocidad del viento	4.8
29694	7	Sololá	717	San Juan la Laguna	12	San Juan la Laguna	1	Enero	2023-09-01T00:00:00	2024-11-08T01:00:00	7	Dirección del viento	4.83
29695	7	Sololá	717	San Juan la Laguna	12	San Juan la Laguna	1	Enero	2023-09-01T00:00:00	2024-11-08T01:00:00	1	Precipitación	0
29696	7	Sololá	717	San Juan la Laguna	12	San Juan la Laguna	1	Enero	2023-09-01T00:00:00	2024-11-08T01:00:00	8	Radiación solar	0
29697	7	Sololá	717	San Juan la Laguna	12	San Juan la Laguna	1	Enero	2023-09-01T00:00:00	2024-11-08T02:00:00	2	Temperatura media	13.1
29698	7	Sololá	717	San Juan la Laguna	12	San Juan la Laguna	1	Enero	2023-09-01T00:00:00	2024-11-08T02:00:00	4	Temperatura máxima	13.9
29699	7	Sololá	717	San Juan la Laguna	12	San Juan la Laguna	1	Enero	2023-09-01T00:00:00	2024-11-08T02:00:00	3	Temperatura mínima	13.1
29700	7	Sololá	717	San Juan la Laguna	12	San Juan la Laguna	1	Enero	2023-09-01T00:00:00	2024-11-08T02:00:00	5	Humedad	88
29701	7	Sololá	717	San Juan la Laguna	12	San Juan la Laguna	1	Enero	2023-09-01T00:00:00	2024-11-08T02:00:00	6	Velocidad del viento	3.2
29702	7	Sololá	717	San Juan la Laguna	12	San Juan la Laguna	1	Enero	2023-09-01T00:00:00	2024-11-08T02:00:00	7	Dirección del viento	3.22
29703	7	Sololá	717	San Juan la Laguna	12	San Juan la Laguna	1	Enero	2023-09-01T00:00:00	2024-11-08T02:00:00	1	Precipitación	0
29704	7	Sololá	717	San Juan la Laguna	12	San Juan la Laguna	1	Enero	2023-09-01T00:00:00	2024-11-08T02:00:00	8	Radiación solar	0
29705	7	Sololá	717	San Juan la Laguna	12	San Juan la Laguna	1	Enero	2023-09-01T00:00:00	2024-11-08T03:00:00	2	Temperatura media	13.3
29706	7	Sololá	717	San Juan la Laguna	12	San Juan la Laguna	1	Enero	2023-09-01T00:00:00	2024-11-08T03:00:00	4	Temperatura máxima	13.4
29707	7	Sololá	717	San Juan la Laguna	12	San Juan la Laguna	1	Enero	2023-09-01T00:00:00	2024-11-08T03:00:00	3	Temperatura mínima	13.1
29708	7	Sololá	717	San Juan la Laguna	12	San Juan la Laguna	1	Enero	2023-09-01T00:00:00	2024-11-08T03:00:00	5	Humedad	84
29709	7	Sololá	717	San Juan la Laguna	12	San Juan la Laguna	1	Enero	2023-09-01T00:00:00	2024-11-08T03:00:00	6	Velocidad del viento	4.8
29710	7	Sololá	717	San Juan la Laguna	12	San Juan la Laguna	1	Enero	2023-09-01T00:00:00	2024-11-08T03:00:00	7	Dirección del viento	4.83
29711	7	Sololá	717	San Juan la Laguna	12	San Juan la Laguna	1	Enero	2023-09-01T00:00:00	2024-11-08T03:00:00	1	Precipitación	0
29712	7	Sololá	717	San Juan la Laguna	12	San Juan la Laguna	1	Enero	2023-09-01T00:00:00	2024-11-08T03:00:00	8	Radiación solar	0
29713	7	Sololá	717	San Juan la Laguna	12	San Juan la Laguna	1	Enero	2023-09-01T00:00:00	2024-11-08T04:00:00	2	Temperatura media	13.1
29714	7	Sololá	717	San Juan la Laguna	12	San Juan la Laguna	1	Enero	2023-09-01T00:00:00	2024-11-08T04:00:00	4	Temperatura máxima	13.4
29715	7	Sololá	717	San Juan la Laguna	12	San Juan la Laguna	1	Enero	2023-09-01T00:00:00	2024-11-08T04:00:00	3	Temperatura mínima	13
29716	7	Sololá	717	San Juan la Laguna	12	San Juan la Laguna	1	Enero	2023-09-01T00:00:00	2024-11-08T04:00:00	5	Humedad	84
29717	7	Sololá	717	San Juan la Laguna	12	San Juan la Laguna	1	Enero	2023-09-01T00:00:00	2024-11-08T04:00:00	6	Velocidad del viento	6.4
29718	7	Sololá	717	San Juan la Laguna	12	San Juan la Laguna	1	Enero	2023-09-01T00:00:00	2024-11-08T04:00:00	7	Dirección del viento	6.44
29719	7	Sololá	717	San Juan la Laguna	12	San Juan la Laguna	1	Enero	2023-09-01T00:00:00	2024-11-08T04:00:00	1	Precipitación	0
29720	7	Sololá	717	San Juan la Laguna	12	San Juan la Laguna	1	Enero	2023-09-01T00:00:00	2024-11-08T04:00:00	8	Radiación solar	0
29721	7	Sololá	717	San Juan la Laguna	12	San Juan la Laguna	1	Enero	2023-09-01T00:00:00	2024-11-08T05:00:00	2	Temperatura media	13
29722	7	Sololá	717	San Juan la Laguna	12	San Juan la Laguna	1	Enero	2023-09-01T00:00:00	2024-11-08T05:00:00	4	Temperatura máxima	13.1
29723	7	Sololá	717	San Juan la Laguna	12	San Juan la Laguna	1	Enero	2023-09-01T00:00:00	2024-11-08T05:00:00	3	Temperatura mínima	12.8
29724	7	Sololá	717	San Juan la Laguna	12	San Juan la Laguna	1	Enero	2023-09-01T00:00:00	2024-11-08T05:00:00	5	Humedad	83
29725	7	Sololá	717	San Juan la Laguna	12	San Juan la Laguna	1	Enero	2023-09-01T00:00:00	2024-11-08T05:00:00	6	Velocidad del viento	6.4
29726	7	Sololá	717	San Juan la Laguna	12	San Juan la Laguna	1	Enero	2023-09-01T00:00:00	2024-11-08T05:00:00	7	Dirección del viento	6.44
29727	7	Sololá	717	San Juan la Laguna	12	San Juan la Laguna	1	Enero	2023-09-01T00:00:00	2024-11-08T05:00:00	1	Precipitación	0
29728	7	Sololá	717	San Juan la Laguna	12	San Juan la Laguna	1	Enero	2023-09-01T00:00:00	2024-11-08T05:00:00	8	Radiación solar	0
29729	7	Sololá	717	San Juan la Laguna	12	San Juan la Laguna	1	Enero	2023-09-01T00:00:00	2024-11-08T06:00:00	2	Temperatura media	12.3
29730	7	Sololá	717	San Juan la Laguna	12	San Juan la Laguna	1	Enero	2023-09-01T00:00:00	2024-11-08T06:00:00	4	Temperatura máxima	13
29731	7	Sololá	717	San Juan la Laguna	12	San Juan la Laguna	1	Enero	2023-09-01T00:00:00	2024-11-08T06:00:00	3	Temperatura mínima	12.3
29732	7	Sololá	717	San Juan la Laguna	12	San Juan la Laguna	1	Enero	2023-09-01T00:00:00	2024-11-08T06:00:00	5	Humedad	85
29733	7	Sololá	717	San Juan la Laguna	12	San Juan la Laguna	1	Enero	2023-09-01T00:00:00	2024-11-08T06:00:00	6	Velocidad del viento	4.8
29734	7	Sololá	717	San Juan la Laguna	12	San Juan la Laguna	1	Enero	2023-09-01T00:00:00	2024-11-08T06:00:00	7	Dirección del viento	4.83
29735	7	Sololá	717	San Juan la Laguna	12	San Juan la Laguna	1	Enero	2023-09-01T00:00:00	2024-11-08T06:00:00	1	Precipitación	0
29736	7	Sololá	717	San Juan la Laguna	12	San Juan la Laguna	1	Enero	2023-09-01T00:00:00	2024-11-08T06:00:00	8	Radiación solar	0
29737	7	Sololá	717	San Juan la Laguna	12	San Juan la Laguna	1	Enero	2023-09-01T00:00:00	2024-11-08T07:00:00	2	Temperatura media	12.2
29738	7	Sololá	717	San Juan la Laguna	12	San Juan la Laguna	1	Enero	2023-09-01T00:00:00	2024-11-08T07:00:00	4	Temperatura máxima	12.4
29739	7	Sololá	717	San Juan la Laguna	12	San Juan la Laguna	1	Enero	2023-09-01T00:00:00	2024-11-08T07:00:00	3	Temperatura mínima	12.2
29740	7	Sololá	717	San Juan la Laguna	12	San Juan la Laguna	1	Enero	2023-09-01T00:00:00	2024-11-08T07:00:00	5	Humedad	85
29741	7	Sololá	717	San Juan la Laguna	12	San Juan la Laguna	1	Enero	2023-09-01T00:00:00	2024-11-08T07:00:00	6	Velocidad del viento	4.8
29742	7	Sololá	717	San Juan la Laguna	12	San Juan la Laguna	1	Enero	2023-09-01T00:00:00	2024-11-08T07:00:00	7	Dirección del viento	4.83
29743	7	Sololá	717	San Juan la Laguna	12	San Juan la Laguna	1	Enero	2023-09-01T00:00:00	2024-11-08T07:00:00	1	Precipitación	0
29744	7	Sololá	717	San Juan la Laguna	12	San Juan la Laguna	1	Enero	2023-09-01T00:00:00	2024-11-08T07:00:00	8	Radiación solar	4
29745	7	Sololá	717	San Juan la Laguna	12	San Juan la Laguna	1	Enero	2023-09-01T00:00:00	2024-11-08T08:00:00	2	Temperatura media	14.5
29746	7	Sololá	717	San Juan la Laguna	12	San Juan la Laguna	1	Enero	2023-09-01T00:00:00	2024-11-08T08:00:00	4	Temperatura máxima	14.5
29747	7	Sololá	717	San Juan la Laguna	12	San Juan la Laguna	1	Enero	2023-09-01T00:00:00	2024-11-08T08:00:00	3	Temperatura mínima	12.2
29748	7	Sololá	717	San Juan la Laguna	12	San Juan la Laguna	1	Enero	2023-09-01T00:00:00	2024-11-08T08:00:00	5	Humedad	82
29749	7	Sololá	717	San Juan la Laguna	12	San Juan la Laguna	1	Enero	2023-09-01T00:00:00	2024-11-08T08:00:00	6	Velocidad del viento	3.2
29750	7	Sololá	717	San Juan la Laguna	12	San Juan la Laguna	1	Enero	2023-09-01T00:00:00	2024-11-08T08:00:00	7	Dirección del viento	3.22
29751	7	Sololá	717	San Juan la Laguna	12	San Juan la Laguna	1	Enero	2023-09-01T00:00:00	2024-11-08T08:00:00	1	Precipitación	0
29752	7	Sololá	717	San Juan la Laguna	12	San Juan la Laguna	1	Enero	2023-09-01T00:00:00	2024-11-08T08:00:00	8	Radiación solar	126
29753	7	Sololá	717	San Juan la Laguna	12	San Juan la Laguna	1	Enero	2023-09-01T00:00:00	2024-11-08T09:00:00	2	Temperatura media	19.4
29754	7	Sololá	717	San Juan la Laguna	12	San Juan la Laguna	1	Enero	2023-09-01T00:00:00	2024-11-08T09:00:00	4	Temperatura máxima	19.4
29755	7	Sololá	717	San Juan la Laguna	12	San Juan la Laguna	1	Enero	2023-09-01T00:00:00	2024-11-08T09:00:00	3	Temperatura mínima	14.5
29756	7	Sololá	717	San Juan la Laguna	12	San Juan la Laguna	1	Enero	2023-09-01T00:00:00	2024-11-08T09:00:00	5	Humedad	70
29757	7	Sololá	717	San Juan la Laguna	12	San Juan la Laguna	1	Enero	2023-09-01T00:00:00	2024-11-08T09:00:00	6	Velocidad del viento	0
29758	7	Sololá	717	San Juan la Laguna	12	San Juan la Laguna	1	Enero	2023-09-01T00:00:00	2024-11-08T09:00:00	7	Dirección del viento	0
29759	7	Sololá	717	San Juan la Laguna	12	San Juan la Laguna	1	Enero	2023-09-01T00:00:00	2024-11-08T09:00:00	1	Precipitación	0
29760	7	Sololá	717	San Juan la Laguna	12	San Juan la Laguna	1	Enero	2023-09-01T00:00:00	2024-11-08T09:00:00	8	Radiación solar	337
29761	7	Sololá	717	San Juan la Laguna	12	San Juan la Laguna	1	Enero	2023-09-01T00:00:00	2024-11-08T10:00:00	2	Temperatura media	20.5
29762	7	Sololá	717	San Juan la Laguna	12	San Juan la Laguna	1	Enero	2023-09-01T00:00:00	2024-11-08T10:00:00	4	Temperatura máxima	20.7
29763	7	Sololá	717	San Juan la Laguna	12	San Juan la Laguna	1	Enero	2023-09-01T00:00:00	2024-11-08T10:00:00	3	Temperatura mínima	19.3
29764	7	Sololá	717	San Juan la Laguna	12	San Juan la Laguna	1	Enero	2023-09-01T00:00:00	2024-11-08T10:00:00	5	Humedad	60
29765	7	Sololá	717	San Juan la Laguna	12	San Juan la Laguna	1	Enero	2023-09-01T00:00:00	2024-11-08T10:00:00	6	Velocidad del viento	1.6
29766	7	Sololá	717	San Juan la Laguna	12	San Juan la Laguna	1	Enero	2023-09-01T00:00:00	2024-11-08T10:00:00	7	Dirección del viento	1.61
29767	7	Sololá	717	San Juan la Laguna	12	San Juan la Laguna	1	Enero	2023-09-01T00:00:00	2024-11-08T10:00:00	1	Precipitación	0
29768	7	Sololá	717	San Juan la Laguna	12	San Juan la Laguna	1	Enero	2023-09-01T00:00:00	2024-11-08T10:00:00	8	Radiación solar	524
29769	7	Sololá	717	San Juan la Laguna	12	San Juan la Laguna	1	Enero	2023-09-01T00:00:00	2024-11-08T11:00:00	2	Temperatura media	21.5
29770	7	Sololá	717	San Juan la Laguna	12	San Juan la Laguna	1	Enero	2023-09-01T00:00:00	2024-11-08T11:00:00	4	Temperatura máxima	21.5
29771	7	Sololá	717	San Juan la Laguna	12	San Juan la Laguna	1	Enero	2023-09-01T00:00:00	2024-11-08T11:00:00	3	Temperatura mínima	20.6
29772	7	Sololá	717	San Juan la Laguna	12	San Juan la Laguna	1	Enero	2023-09-01T00:00:00	2024-11-08T11:00:00	5	Humedad	58
29773	7	Sololá	717	San Juan la Laguna	12	San Juan la Laguna	1	Enero	2023-09-01T00:00:00	2024-11-08T11:00:00	6	Velocidad del viento	3.2
29774	7	Sololá	717	San Juan la Laguna	12	San Juan la Laguna	1	Enero	2023-09-01T00:00:00	2024-11-08T11:00:00	7	Dirección del viento	3.22
29775	7	Sololá	717	San Juan la Laguna	12	San Juan la Laguna	1	Enero	2023-09-01T00:00:00	2024-11-08T11:00:00	1	Precipitación	0
29776	7	Sololá	717	San Juan la Laguna	12	San Juan la Laguna	1	Enero	2023-09-01T00:00:00	2024-11-08T11:00:00	8	Radiación solar	616
29777	7	Sololá	717	San Juan la Laguna	12	San Juan la Laguna	1	Enero	2023-09-01T00:00:00	2024-11-08T12:00:00	2	Temperatura media	23.1
29778	7	Sololá	717	San Juan la Laguna	12	San Juan la Laguna	1	Enero	2023-09-01T00:00:00	2024-11-08T12:00:00	4	Temperatura máxima	23.1
29779	7	Sololá	717	San Juan la Laguna	12	San Juan la Laguna	1	Enero	2023-09-01T00:00:00	2024-11-08T12:00:00	3	Temperatura mínima	21.5
29780	7	Sololá	717	San Juan la Laguna	12	San Juan la Laguna	1	Enero	2023-09-01T00:00:00	2024-11-08T12:00:00	5	Humedad	53
29781	7	Sololá	717	San Juan la Laguna	12	San Juan la Laguna	1	Enero	2023-09-01T00:00:00	2024-11-08T12:00:00	6	Velocidad del viento	3.2
29782	7	Sololá	717	San Juan la Laguna	12	San Juan la Laguna	1	Enero	2023-09-01T00:00:00	2024-11-08T12:00:00	7	Dirección del viento	3.22
29783	7	Sololá	717	San Juan la Laguna	12	San Juan la Laguna	1	Enero	2023-09-01T00:00:00	2024-11-08T12:00:00	1	Precipitación	0
29784	7	Sololá	717	San Juan la Laguna	12	San Juan la Laguna	1	Enero	2023-09-01T00:00:00	2024-11-08T12:00:00	8	Radiación solar	702
29785	7	Sololá	717	San Juan la Laguna	12	San Juan la Laguna	1	Enero	2023-09-01T00:00:00	2024-11-08T13:00:00	2	Temperatura media	22.6
29786	7	Sololá	717	San Juan la Laguna	12	San Juan la Laguna	1	Enero	2023-09-01T00:00:00	2024-11-08T13:00:00	4	Temperatura máxima	23.6
29787	7	Sololá	717	San Juan la Laguna	12	San Juan la Laguna	1	Enero	2023-09-01T00:00:00	2024-11-08T13:00:00	3	Temperatura mínima	22.4
29788	7	Sololá	717	San Juan la Laguna	12	San Juan la Laguna	1	Enero	2023-09-01T00:00:00	2024-11-08T13:00:00	5	Humedad	61
29789	7	Sololá	717	San Juan la Laguna	12	San Juan la Laguna	1	Enero	2023-09-01T00:00:00	2024-11-08T13:00:00	6	Velocidad del viento	3.2
29790	7	Sololá	717	San Juan la Laguna	12	San Juan la Laguna	1	Enero	2023-09-01T00:00:00	2024-11-08T13:00:00	7	Dirección del viento	3.22
29791	7	Sololá	717	San Juan la Laguna	12	San Juan la Laguna	1	Enero	2023-09-01T00:00:00	2024-11-08T13:00:00	1	Precipitación	0
29792	7	Sololá	717	San Juan la Laguna	12	San Juan la Laguna	1	Enero	2023-09-01T00:00:00	2024-11-08T13:00:00	8	Radiación solar	759
29793	7	Sololá	717	San Juan la Laguna	12	San Juan la Laguna	1	Enero	2023-09-01T00:00:00	2024-11-08T14:00:00	2	Temperatura media	21.1
29794	7	Sololá	717	San Juan la Laguna	12	San Juan la Laguna	1	Enero	2023-09-01T00:00:00	2024-11-08T14:00:00	4	Temperatura máxima	22.8
29795	7	Sololá	717	San Juan la Laguna	12	San Juan la Laguna	1	Enero	2023-09-01T00:00:00	2024-11-08T14:00:00	3	Temperatura mínima	21.1
29796	7	Sololá	717	San Juan la Laguna	12	San Juan la Laguna	1	Enero	2023-09-01T00:00:00	2024-11-08T14:00:00	5	Humedad	70
29797	7	Sololá	717	San Juan la Laguna	12	San Juan la Laguna	1	Enero	2023-09-01T00:00:00	2024-11-08T14:00:00	6	Velocidad del viento	8
29798	7	Sololá	717	San Juan la Laguna	12	San Juan la Laguna	1	Enero	2023-09-01T00:00:00	2024-11-08T14:00:00	7	Dirección del viento	8.05
29799	7	Sololá	717	San Juan la Laguna	12	San Juan la Laguna	1	Enero	2023-09-01T00:00:00	2024-11-08T14:00:00	1	Precipitación	0
29800	7	Sololá	717	San Juan la Laguna	12	San Juan la Laguna	1	Enero	2023-09-01T00:00:00	2024-11-08T14:00:00	8	Radiación solar	681
29801	7	Sololá	717	San Juan la Laguna	12	San Juan la Laguna	1	Enero	2023-09-01T00:00:00	2024-11-08T15:00:00	2	Temperatura media	21.1
29802	7	Sololá	717	San Juan la Laguna	12	San Juan la Laguna	1	Enero	2023-09-01T00:00:00	2024-11-08T15:00:00	4	Temperatura máxima	21.1
29803	7	Sololá	717	San Juan la Laguna	12	San Juan la Laguna	1	Enero	2023-09-01T00:00:00	2024-11-08T15:00:00	3	Temperatura mínima	20.3
29804	7	Sololá	717	San Juan la Laguna	12	San Juan la Laguna	1	Enero	2023-09-01T00:00:00	2024-11-08T15:00:00	5	Humedad	71
29805	7	Sololá	717	San Juan la Laguna	12	San Juan la Laguna	1	Enero	2023-09-01T00:00:00	2024-11-08T15:00:00	6	Velocidad del viento	11.3
29806	7	Sololá	717	San Juan la Laguna	12	San Juan la Laguna	1	Enero	2023-09-01T00:00:00	2024-11-08T15:00:00	7	Dirección del viento	11.27
29807	7	Sololá	717	San Juan la Laguna	12	San Juan la Laguna	1	Enero	2023-09-01T00:00:00	2024-11-08T15:00:00	1	Precipitación	0
29808	7	Sololá	717	San Juan la Laguna	12	San Juan la Laguna	1	Enero	2023-09-01T00:00:00	2024-11-08T15:00:00	8	Radiación solar	605
29809	7	Sololá	717	San Juan la Laguna	12	San Juan la Laguna	1	Enero	2023-09-01T00:00:00	2024-11-08T16:00:00	2	Temperatura media	20.4
29810	7	Sololá	717	San Juan la Laguna	12	San Juan la Laguna	1	Enero	2023-09-01T00:00:00	2024-11-08T16:00:00	4	Temperatura máxima	21.7
29811	7	Sololá	717	San Juan la Laguna	12	San Juan la Laguna	1	Enero	2023-09-01T00:00:00	2024-11-08T16:00:00	3	Temperatura mínima	20.3
29812	7	Sololá	717	San Juan la Laguna	12	San Juan la Laguna	1	Enero	2023-09-01T00:00:00	2024-11-08T16:00:00	5	Humedad	73
29813	7	Sololá	717	San Juan la Laguna	12	San Juan la Laguna	1	Enero	2023-09-01T00:00:00	2024-11-08T16:00:00	6	Velocidad del viento	8
29814	7	Sololá	717	San Juan la Laguna	12	San Juan la Laguna	1	Enero	2023-09-01T00:00:00	2024-11-08T16:00:00	7	Dirección del viento	8.05
29815	7	Sololá	717	San Juan la Laguna	12	San Juan la Laguna	1	Enero	2023-09-01T00:00:00	2024-11-08T16:00:00	1	Precipitación	0
29816	7	Sololá	717	San Juan la Laguna	12	San Juan la Laguna	1	Enero	2023-09-01T00:00:00	2024-11-08T16:00:00	8	Radiación solar	413
29817	7	Sololá	717	San Juan la Laguna	12	San Juan la Laguna	1	Enero	2023-09-01T00:00:00	2024-11-08T17:00:00	2	Temperatura media	19.2
29818	7	Sololá	717	San Juan la Laguna	12	San Juan la Laguna	1	Enero	2023-09-01T00:00:00	2024-11-08T17:00:00	4	Temperatura máxima	20.5
29819	7	Sololá	717	San Juan la Laguna	12	San Juan la Laguna	1	Enero	2023-09-01T00:00:00	2024-11-08T17:00:00	3	Temperatura mínima	19.2
29820	7	Sololá	717	San Juan la Laguna	12	San Juan la Laguna	1	Enero	2023-09-01T00:00:00	2024-11-08T17:00:00	5	Humedad	77
29821	7	Sololá	717	San Juan la Laguna	12	San Juan la Laguna	1	Enero	2023-09-01T00:00:00	2024-11-08T17:00:00	6	Velocidad del viento	4.8
29822	7	Sololá	717	San Juan la Laguna	12	San Juan la Laguna	1	Enero	2023-09-01T00:00:00	2024-11-08T17:00:00	7	Dirección del viento	4.83
29823	7	Sololá	717	San Juan la Laguna	12	San Juan la Laguna	1	Enero	2023-09-01T00:00:00	2024-11-08T17:00:00	1	Precipitación	0
29824	7	Sololá	717	San Juan la Laguna	12	San Juan la Laguna	1	Enero	2023-09-01T00:00:00	2024-11-08T17:00:00	8	Radiación solar	158
29825	7	Sololá	717	San Juan la Laguna	12	San Juan la Laguna	1	Enero	2023-09-01T00:00:00	2024-11-08T18:00:00	2	Temperatura media	18.8
29826	7	Sololá	717	San Juan la Laguna	12	San Juan la Laguna	1	Enero	2023-09-01T00:00:00	2024-11-08T18:00:00	4	Temperatura máxima	19.2
29827	7	Sololá	717	San Juan la Laguna	12	San Juan la Laguna	1	Enero	2023-09-01T00:00:00	2024-11-08T18:00:00	3	Temperatura mínima	18.8
29828	7	Sololá	717	San Juan la Laguna	12	San Juan la Laguna	1	Enero	2023-09-01T00:00:00	2024-11-08T18:00:00	5	Humedad	80
29829	7	Sololá	717	San Juan la Laguna	12	San Juan la Laguna	1	Enero	2023-09-01T00:00:00	2024-11-08T18:00:00	6	Velocidad del viento	1.6
29830	7	Sololá	717	San Juan la Laguna	12	San Juan la Laguna	1	Enero	2023-09-01T00:00:00	2024-11-08T18:00:00	7	Dirección del viento	1.61
29831	7	Sololá	717	San Juan la Laguna	12	San Juan la Laguna	1	Enero	2023-09-01T00:00:00	2024-11-08T18:00:00	1	Precipitación	0
29832	7	Sololá	717	San Juan la Laguna	12	San Juan la Laguna	1	Enero	2023-09-01T00:00:00	2024-11-08T18:00:00	8	Radiación solar	18
29833	7	Sololá	717	San Juan la Laguna	12	San Juan la Laguna	1	Enero	2023-09-01T00:00:00	2024-11-08T19:00:00	2	Temperatura media	17.8
29834	7	Sololá	717	San Juan la Laguna	12	San Juan la Laguna	1	Enero	2023-09-01T00:00:00	2024-11-08T19:00:00	4	Temperatura máxima	18.9
29835	7	Sololá	717	San Juan la Laguna	12	San Juan la Laguna	1	Enero	2023-09-01T00:00:00	2024-11-08T19:00:00	3	Temperatura mínima	17.8
29836	7	Sololá	717	San Juan la Laguna	12	San Juan la Laguna	1	Enero	2023-09-01T00:00:00	2024-11-08T19:00:00	5	Humedad	83
29837	7	Sololá	717	San Juan la Laguna	12	San Juan la Laguna	1	Enero	2023-09-01T00:00:00	2024-11-08T19:00:00	6	Velocidad del viento	1.6
29838	7	Sololá	717	San Juan la Laguna	12	San Juan la Laguna	1	Enero	2023-09-01T00:00:00	2024-11-08T19:00:00	7	Dirección del viento	1.61
29839	7	Sololá	717	San Juan la Laguna	12	San Juan la Laguna	1	Enero	2023-09-01T00:00:00	2024-11-08T19:00:00	1	Precipitación	0
29840	7	Sololá	717	San Juan la Laguna	12	San Juan la Laguna	1	Enero	2023-09-01T00:00:00	2024-11-08T19:00:00	8	Radiación solar	0
29841	7	Sololá	717	San Juan la Laguna	12	San Juan la Laguna	1	Enero	2023-09-01T00:00:00	2024-11-08T20:00:00	2	Temperatura media	15.9
29842	7	Sololá	717	San Juan la Laguna	12	San Juan la Laguna	1	Enero	2023-09-01T00:00:00	2024-11-08T20:00:00	4	Temperatura máxima	17.8
29843	7	Sololá	717	San Juan la Laguna	12	San Juan la Laguna	1	Enero	2023-09-01T00:00:00	2024-11-08T20:00:00	3	Temperatura mínima	15.9
29844	7	Sololá	717	San Juan la Laguna	12	San Juan la Laguna	1	Enero	2023-09-01T00:00:00	2024-11-08T20:00:00	5	Humedad	87
29845	7	Sololá	717	San Juan la Laguna	12	San Juan la Laguna	1	Enero	2023-09-01T00:00:00	2024-11-08T20:00:00	6	Velocidad del viento	1.6
29846	7	Sololá	717	San Juan la Laguna	12	San Juan la Laguna	1	Enero	2023-09-01T00:00:00	2024-11-08T20:00:00	7	Dirección del viento	1.61
29847	7	Sololá	717	San Juan la Laguna	12	San Juan la Laguna	1	Enero	2023-09-01T00:00:00	2024-11-08T20:00:00	1	Precipitación	0
29848	7	Sololá	717	San Juan la Laguna	12	San Juan la Laguna	1	Enero	2023-09-01T00:00:00	2024-11-08T20:00:00	8	Radiación solar	0
29849	7	Sololá	717	San Juan la Laguna	12	San Juan la Laguna	1	Enero	2023-09-01T00:00:00	2024-11-08T21:00:00	2	Temperatura media	15.2
29850	7	Sololá	717	San Juan la Laguna	12	San Juan la Laguna	1	Enero	2023-09-01T00:00:00	2024-11-08T21:00:00	4	Temperatura máxima	15.9
29851	7	Sololá	717	San Juan la Laguna	12	San Juan la Laguna	1	Enero	2023-09-01T00:00:00	2024-11-08T21:00:00	3	Temperatura mínima	15.2
29852	7	Sololá	717	San Juan la Laguna	12	San Juan la Laguna	1	Enero	2023-09-01T00:00:00	2024-11-08T21:00:00	5	Humedad	86
29853	7	Sololá	717	San Juan la Laguna	12	San Juan la Laguna	1	Enero	2023-09-01T00:00:00	2024-11-08T21:00:00	6	Velocidad del viento	1.6
29854	7	Sololá	717	San Juan la Laguna	12	San Juan la Laguna	1	Enero	2023-09-01T00:00:00	2024-11-08T21:00:00	7	Dirección del viento	1.61
29855	7	Sololá	717	San Juan la Laguna	12	San Juan la Laguna	1	Enero	2023-09-01T00:00:00	2024-11-08T21:00:00	1	Precipitación	0
29856	7	Sololá	717	San Juan la Laguna	12	San Juan la Laguna	1	Enero	2023-09-01T00:00:00	2024-11-08T21:00:00	8	Radiación solar	0
29857	7	Sololá	717	San Juan la Laguna	12	San Juan la Laguna	1	Enero	2023-09-01T00:00:00	2024-11-08T22:00:00	2	Temperatura media	14.7
29858	7	Sololá	717	San Juan la Laguna	12	San Juan la Laguna	1	Enero	2023-09-01T00:00:00	2024-11-08T22:00:00	4	Temperatura máxima	15.2
29859	7	Sololá	717	San Juan la Laguna	12	San Juan la Laguna	1	Enero	2023-09-01T00:00:00	2024-11-08T22:00:00	3	Temperatura mínima	14.7
29860	7	Sololá	717	San Juan la Laguna	12	San Juan la Laguna	1	Enero	2023-09-01T00:00:00	2024-11-08T22:00:00	5	Humedad	85
29861	7	Sololá	717	San Juan la Laguna	12	San Juan la Laguna	1	Enero	2023-09-01T00:00:00	2024-11-08T22:00:00	6	Velocidad del viento	3.2
29862	7	Sololá	717	San Juan la Laguna	12	San Juan la Laguna	1	Enero	2023-09-01T00:00:00	2024-11-08T22:00:00	7	Dirección del viento	3.22
29863	7	Sololá	717	San Juan la Laguna	12	San Juan la Laguna	1	Enero	2023-09-01T00:00:00	2024-11-08T22:00:00	1	Precipitación	0
29864	7	Sololá	717	San Juan la Laguna	12	San Juan la Laguna	1	Enero	2023-09-01T00:00:00	2024-11-08T22:00:00	8	Radiación solar	0
29865	7	Sololá	717	San Juan la Laguna	12	San Juan la Laguna	1	Enero	2023-09-01T00:00:00	2024-11-08T23:00:00	2	Temperatura media	14.1
29866	7	Sololá	717	San Juan la Laguna	12	San Juan la Laguna	1	Enero	2023-09-01T00:00:00	2024-11-08T23:00:00	4	Temperatura máxima	14.7
29867	7	Sololá	717	San Juan la Laguna	12	San Juan la Laguna	1	Enero	2023-09-01T00:00:00	2024-11-08T23:00:00	3	Temperatura mínima	14.1
29868	7	Sololá	717	San Juan la Laguna	12	San Juan la Laguna	1	Enero	2023-09-01T00:00:00	2024-11-08T23:00:00	5	Humedad	86
29869	7	Sololá	717	San Juan la Laguna	12	San Juan la Laguna	1	Enero	2023-09-01T00:00:00	2024-11-08T23:00:00	6	Velocidad del viento	3.2
29870	7	Sololá	717	San Juan la Laguna	12	San Juan la Laguna	1	Enero	2023-09-01T00:00:00	2024-11-08T23:00:00	7	Dirección del viento	3.22
29871	7	Sololá	717	San Juan la Laguna	12	San Juan la Laguna	1	Enero	2023-09-01T00:00:00	2024-11-08T23:00:00	1	Precipitación	0
29872	7	Sololá	717	San Juan la Laguna	12	San Juan la Laguna	1	Enero	2023-09-01T00:00:00	2024-11-08T23:00:00	8	Radiación solar	0
29873	7	Sololá	717	San Juan la Laguna	12	San Juan la Laguna	1	Enero	2023-10-01T00:00:00	2024-11-08T00:00:00	2	Temperatura media	13.8
29874	7	Sololá	717	San Juan la Laguna	12	San Juan la Laguna	1	Enero	2023-10-01T00:00:00	2024-11-08T00:00:00	4	Temperatura máxima	14.1
29875	7	Sololá	717	San Juan la Laguna	12	San Juan la Laguna	1	Enero	2023-10-01T00:00:00	2024-11-08T00:00:00	3	Temperatura mínima	13.7
29876	7	Sololá	717	San Juan la Laguna	12	San Juan la Laguna	1	Enero	2023-10-01T00:00:00	2024-11-08T00:00:00	5	Humedad	88
29877	7	Sololá	717	San Juan la Laguna	12	San Juan la Laguna	1	Enero	2023-10-01T00:00:00	2024-11-08T00:00:00	6	Velocidad del viento	3.2
29878	7	Sololá	717	San Juan la Laguna	12	San Juan la Laguna	1	Enero	2023-10-01T00:00:00	2024-11-08T00:00:00	7	Dirección del viento	3.22
29879	7	Sololá	717	San Juan la Laguna	12	San Juan la Laguna	1	Enero	2023-10-01T00:00:00	2024-11-08T00:00:00	1	Precipitación	0
29880	7	Sololá	717	San Juan la Laguna	12	San Juan la Laguna	1	Enero	2023-10-01T00:00:00	2024-11-08T00:00:00	8	Radiación solar	0
29881	7	Sololá	717	San Juan la Laguna	12	San Juan la Laguna	1	Enero	2023-10-01T00:00:00	2024-11-08T01:00:00	2	Temperatura media	13.6
29882	7	Sololá	717	San Juan la Laguna	12	San Juan la Laguna	1	Enero	2023-10-01T00:00:00	2024-11-08T01:00:00	4	Temperatura máxima	13.8
29883	7	Sololá	717	San Juan la Laguna	12	San Juan la Laguna	1	Enero	2023-10-01T00:00:00	2024-11-08T01:00:00	3	Temperatura mínima	13.6
29884	7	Sololá	717	San Juan la Laguna	12	San Juan la Laguna	1	Enero	2023-10-01T00:00:00	2024-11-08T01:00:00	5	Humedad	88
29885	7	Sololá	717	San Juan la Laguna	12	San Juan la Laguna	1	Enero	2023-10-01T00:00:00	2024-11-08T01:00:00	6	Velocidad del viento	3.2
29886	7	Sololá	717	San Juan la Laguna	12	San Juan la Laguna	1	Enero	2023-10-01T00:00:00	2024-11-08T01:00:00	7	Dirección del viento	3.22
29887	7	Sololá	717	San Juan la Laguna	12	San Juan la Laguna	1	Enero	2023-10-01T00:00:00	2024-11-08T01:00:00	1	Precipitación	0
29888	7	Sololá	717	San Juan la Laguna	12	San Juan la Laguna	1	Enero	2023-10-01T00:00:00	2024-11-08T01:00:00	8	Radiación solar	0
29889	7	Sololá	717	San Juan la Laguna	12	San Juan la Laguna	1	Enero	2023-10-01T00:00:00	2024-11-08T02:00:00	2	Temperatura media	13.8
29890	7	Sololá	717	San Juan la Laguna	12	San Juan la Laguna	1	Enero	2023-10-01T00:00:00	2024-11-08T02:00:00	4	Temperatura máxima	13.9
29891	7	Sololá	717	San Juan la Laguna	12	San Juan la Laguna	1	Enero	2023-10-01T00:00:00	2024-11-08T02:00:00	3	Temperatura mínima	13.4
29892	7	Sololá	717	San Juan la Laguna	12	San Juan la Laguna	1	Enero	2023-10-01T00:00:00	2024-11-08T02:00:00	5	Humedad	84
29893	7	Sololá	717	San Juan la Laguna	12	San Juan la Laguna	1	Enero	2023-10-01T00:00:00	2024-11-08T02:00:00	6	Velocidad del viento	4.8
29894	7	Sololá	717	San Juan la Laguna	12	San Juan la Laguna	1	Enero	2023-10-01T00:00:00	2024-11-08T02:00:00	7	Dirección del viento	4.83
29895	7	Sololá	717	San Juan la Laguna	12	San Juan la Laguna	1	Enero	2023-10-01T00:00:00	2024-11-08T02:00:00	1	Precipitación	0
29896	7	Sololá	717	San Juan la Laguna	12	San Juan la Laguna	1	Enero	2023-10-01T00:00:00	2024-11-08T02:00:00	8	Radiación solar	0
29897	7	Sololá	717	San Juan la Laguna	12	San Juan la Laguna	1	Enero	2023-10-01T00:00:00	2024-11-08T03:00:00	2	Temperatura media	13
29898	7	Sololá	717	San Juan la Laguna	12	San Juan la Laguna	1	Enero	2023-10-01T00:00:00	2024-11-08T03:00:00	4	Temperatura máxima	13.8
29899	7	Sololá	717	San Juan la Laguna	12	San Juan la Laguna	1	Enero	2023-10-01T00:00:00	2024-11-08T03:00:00	3	Temperatura mínima	13
29900	7	Sololá	717	San Juan la Laguna	12	San Juan la Laguna	1	Enero	2023-10-01T00:00:00	2024-11-08T03:00:00	5	Humedad	86
29901	7	Sololá	717	San Juan la Laguna	12	San Juan la Laguna	1	Enero	2023-10-01T00:00:00	2024-11-08T03:00:00	6	Velocidad del viento	4.8
29902	7	Sololá	717	San Juan la Laguna	12	San Juan la Laguna	1	Enero	2023-10-01T00:00:00	2024-11-08T03:00:00	7	Dirección del viento	4.83
29903	7	Sololá	717	San Juan la Laguna	12	San Juan la Laguna	1	Enero	2023-10-01T00:00:00	2024-11-08T03:00:00	1	Precipitación	0
29904	7	Sololá	717	San Juan la Laguna	12	San Juan la Laguna	1	Enero	2023-10-01T00:00:00	2024-11-08T03:00:00	8	Radiación solar	0
29905	7	Sololá	717	San Juan la Laguna	12	San Juan la Laguna	1	Enero	2023-10-01T00:00:00	2024-11-08T04:00:00	2	Temperatura media	13.4
29906	7	Sololá	717	San Juan la Laguna	12	San Juan la Laguna	1	Enero	2023-10-01T00:00:00	2024-11-08T04:00:00	4	Temperatura máxima	13.4
29907	7	Sololá	717	San Juan la Laguna	12	San Juan la Laguna	1	Enero	2023-10-01T00:00:00	2024-11-08T04:00:00	3	Temperatura mínima	13
29908	7	Sololá	717	San Juan la Laguna	12	San Juan la Laguna	1	Enero	2023-10-01T00:00:00	2024-11-08T04:00:00	5	Humedad	83
29909	7	Sololá	717	San Juan la Laguna	12	San Juan la Laguna	1	Enero	2023-10-01T00:00:00	2024-11-08T04:00:00	6	Velocidad del viento	6.4
29910	7	Sololá	717	San Juan la Laguna	12	San Juan la Laguna	1	Enero	2023-10-01T00:00:00	2024-11-08T04:00:00	7	Dirección del viento	6.44
29911	7	Sololá	717	San Juan la Laguna	12	San Juan la Laguna	1	Enero	2023-10-01T00:00:00	2024-11-08T04:00:00	1	Precipitación	0
29912	7	Sololá	717	San Juan la Laguna	12	San Juan la Laguna	1	Enero	2023-10-01T00:00:00	2024-11-08T04:00:00	8	Radiación solar	0
29913	7	Sololá	717	San Juan la Laguna	12	San Juan la Laguna	1	Enero	2023-10-01T00:00:00	2024-11-08T05:00:00	2	Temperatura media	12.8
29914	7	Sololá	717	San Juan la Laguna	12	San Juan la Laguna	1	Enero	2023-10-01T00:00:00	2024-11-08T05:00:00	4	Temperatura máxima	13.4
29915	7	Sololá	717	San Juan la Laguna	12	San Juan la Laguna	1	Enero	2023-10-01T00:00:00	2024-11-08T05:00:00	3	Temperatura mínima	12.8
29916	7	Sololá	717	San Juan la Laguna	12	San Juan la Laguna	1	Enero	2023-10-01T00:00:00	2024-11-08T05:00:00	5	Humedad	84
29917	7	Sololá	717	San Juan la Laguna	12	San Juan la Laguna	1	Enero	2023-10-01T00:00:00	2024-11-08T05:00:00	6	Velocidad del viento	4.8
29918	7	Sololá	717	San Juan la Laguna	12	San Juan la Laguna	1	Enero	2023-10-01T00:00:00	2024-11-08T05:00:00	7	Dirección del viento	4.83
29919	7	Sololá	717	San Juan la Laguna	12	San Juan la Laguna	1	Enero	2023-10-01T00:00:00	2024-11-08T05:00:00	1	Precipitación	0
29920	7	Sololá	717	San Juan la Laguna	12	San Juan la Laguna	1	Enero	2023-10-01T00:00:00	2024-11-08T05:00:00	8	Radiación solar	0
29921	7	Sololá	717	San Juan la Laguna	12	San Juan la Laguna	1	Enero	2023-10-01T00:00:00	2024-11-08T06:00:00	2	Temperatura media	12.8
29922	7	Sololá	717	San Juan la Laguna	12	San Juan la Laguna	1	Enero	2023-10-01T00:00:00	2024-11-08T06:00:00	4	Temperatura máxima	13.1
29923	7	Sololá	717	San Juan la Laguna	12	San Juan la Laguna	1	Enero	2023-10-01T00:00:00	2024-11-08T06:00:00	3	Temperatura mínima	12.8
29924	7	Sololá	717	San Juan la Laguna	12	San Juan la Laguna	1	Enero	2023-10-01T00:00:00	2024-11-08T06:00:00	5	Humedad	83
29925	7	Sololá	717	San Juan la Laguna	12	San Juan la Laguna	1	Enero	2023-10-01T00:00:00	2024-11-08T06:00:00	6	Velocidad del viento	4.8
29926	7	Sololá	717	San Juan la Laguna	12	San Juan la Laguna	1	Enero	2023-10-01T00:00:00	2024-11-08T06:00:00	7	Dirección del viento	4.83
29927	7	Sololá	717	San Juan la Laguna	12	San Juan la Laguna	1	Enero	2023-10-01T00:00:00	2024-11-08T06:00:00	1	Precipitación	0
29928	7	Sololá	717	San Juan la Laguna	12	San Juan la Laguna	1	Enero	2023-10-01T00:00:00	2024-11-08T06:00:00	8	Radiación solar	0
29929	7	Sololá	717	San Juan la Laguna	12	San Juan la Laguna	1	Enero	2023-10-01T00:00:00	2024-11-08T07:00:00	2	Temperatura media	12.5
29930	7	Sololá	717	San Juan la Laguna	12	San Juan la Laguna	1	Enero	2023-10-01T00:00:00	2024-11-08T07:00:00	4	Temperatura máxima	12.8
29931	7	Sololá	717	San Juan la Laguna	12	San Juan la Laguna	1	Enero	2023-10-01T00:00:00	2024-11-08T07:00:00	3	Temperatura mínima	12.5
29932	7	Sololá	717	San Juan la Laguna	12	San Juan la Laguna	1	Enero	2023-10-01T00:00:00	2024-11-08T07:00:00	5	Humedad	84
29933	7	Sololá	717	San Juan la Laguna	12	San Juan la Laguna	1	Enero	2023-10-01T00:00:00	2024-11-08T07:00:00	6	Velocidad del viento	4.8
29934	7	Sololá	717	San Juan la Laguna	12	San Juan la Laguna	1	Enero	2023-10-01T00:00:00	2024-11-08T07:00:00	7	Dirección del viento	4.83
29935	7	Sololá	717	San Juan la Laguna	12	San Juan la Laguna	1	Enero	2023-10-01T00:00:00	2024-11-08T07:00:00	1	Precipitación	0
29936	7	Sololá	717	San Juan la Laguna	12	San Juan la Laguna	1	Enero	2023-10-01T00:00:00	2024-11-08T07:00:00	8	Radiación solar	4
29937	7	Sololá	717	San Juan la Laguna	12	San Juan la Laguna	1	Enero	2023-10-01T00:00:00	2024-11-08T08:00:00	2	Temperatura media	14.6
29938	7	Sololá	717	San Juan la Laguna	12	San Juan la Laguna	1	Enero	2023-10-01T00:00:00	2024-11-08T08:00:00	4	Temperatura máxima	14.6
29939	7	Sololá	717	San Juan la Laguna	12	San Juan la Laguna	1	Enero	2023-10-01T00:00:00	2024-11-08T08:00:00	3	Temperatura mínima	12.4
29940	7	Sololá	717	San Juan la Laguna	12	San Juan la Laguna	1	Enero	2023-10-01T00:00:00	2024-11-08T08:00:00	5	Humedad	80
29941	7	Sololá	717	San Juan la Laguna	12	San Juan la Laguna	1	Enero	2023-10-01T00:00:00	2024-11-08T08:00:00	6	Velocidad del viento	3.2
29942	7	Sololá	717	San Juan la Laguna	12	San Juan la Laguna	1	Enero	2023-10-01T00:00:00	2024-11-08T08:00:00	7	Dirección del viento	3.22
29943	7	Sololá	717	San Juan la Laguna	12	San Juan la Laguna	1	Enero	2023-10-01T00:00:00	2024-11-08T08:00:00	1	Precipitación	0
29944	7	Sololá	717	San Juan la Laguna	12	San Juan la Laguna	1	Enero	2023-10-01T00:00:00	2024-11-08T08:00:00	8	Radiación solar	124
29945	7	Sololá	717	San Juan la Laguna	12	San Juan la Laguna	1	Enero	2023-10-01T00:00:00	2024-11-08T09:00:00	2	Temperatura media	18.8
29946	7	Sololá	717	San Juan la Laguna	12	San Juan la Laguna	1	Enero	2023-10-01T00:00:00	2024-11-08T09:00:00	4	Temperatura máxima	18.9
29947	7	Sololá	717	San Juan la Laguna	12	San Juan la Laguna	1	Enero	2023-10-01T00:00:00	2024-11-08T09:00:00	3	Temperatura mínima	14.6
29948	7	Sololá	717	San Juan la Laguna	12	San Juan la Laguna	1	Enero	2023-10-01T00:00:00	2024-11-08T09:00:00	5	Humedad	74
29949	7	Sololá	717	San Juan la Laguna	12	San Juan la Laguna	1	Enero	2023-10-01T00:00:00	2024-11-08T09:00:00	6	Velocidad del viento	1.6
29950	7	Sololá	717	San Juan la Laguna	12	San Juan la Laguna	1	Enero	2023-10-01T00:00:00	2024-11-08T09:00:00	7	Dirección del viento	1.61
29951	7	Sololá	717	San Juan la Laguna	12	San Juan la Laguna	1	Enero	2023-10-01T00:00:00	2024-11-08T09:00:00	1	Precipitación	0
29952	7	Sololá	717	San Juan la Laguna	12	San Juan la Laguna	1	Enero	2023-10-01T00:00:00	2024-11-08T09:00:00	8	Radiación solar	328
29953	7	Sololá	717	San Juan la Laguna	12	San Juan la Laguna	1	Enero	2023-10-01T00:00:00	2024-11-08T10:00:00	2	Temperatura media	20.6
29954	7	Sololá	717	San Juan la Laguna	12	San Juan la Laguna	1	Enero	2023-10-01T00:00:00	2024-11-08T10:00:00	4	Temperatura máxima	20.6
29955	7	Sololá	717	San Juan la Laguna	12	San Juan la Laguna	1	Enero	2023-10-01T00:00:00	2024-11-08T10:00:00	3	Temperatura mínima	18.8
29956	7	Sololá	717	San Juan la Laguna	12	San Juan la Laguna	1	Enero	2023-10-01T00:00:00	2024-11-08T10:00:00	5	Humedad	62
29957	7	Sololá	717	San Juan la Laguna	12	San Juan la Laguna	1	Enero	2023-10-01T00:00:00	2024-11-08T10:00:00	6	Velocidad del viento	1.6
29958	7	Sololá	717	San Juan la Laguna	12	San Juan la Laguna	1	Enero	2023-10-01T00:00:00	2024-11-08T10:00:00	7	Dirección del viento	1.61
29959	7	Sololá	717	San Juan la Laguna	12	San Juan la Laguna	1	Enero	2023-10-01T00:00:00	2024-11-08T10:00:00	1	Precipitación	0
29960	7	Sololá	717	San Juan la Laguna	12	San Juan la Laguna	1	Enero	2023-10-01T00:00:00	2024-11-08T10:00:00	8	Radiación solar	523
29961	7	Sololá	717	San Juan la Laguna	12	San Juan la Laguna	1	Enero	2023-10-01T00:00:00	2024-11-08T11:00:00	2	Temperatura media	21.8
29962	7	Sololá	717	San Juan la Laguna	12	San Juan la Laguna	1	Enero	2023-10-01T00:00:00	2024-11-08T11:00:00	4	Temperatura máxima	22.1
29963	7	Sololá	717	San Juan la Laguna	12	San Juan la Laguna	1	Enero	2023-10-01T00:00:00	2024-11-08T11:00:00	3	Temperatura mínima	20.5
29964	7	Sololá	717	San Juan la Laguna	12	San Juan la Laguna	1	Enero	2023-10-01T00:00:00	2024-11-08T11:00:00	5	Humedad	56
29965	7	Sololá	717	San Juan la Laguna	12	San Juan la Laguna	1	Enero	2023-10-01T00:00:00	2024-11-08T11:00:00	6	Velocidad del viento	3.2
29966	7	Sololá	717	San Juan la Laguna	12	San Juan la Laguna	1	Enero	2023-10-01T00:00:00	2024-11-08T11:00:00	7	Dirección del viento	3.22
29967	7	Sololá	717	San Juan la Laguna	12	San Juan la Laguna	1	Enero	2023-10-01T00:00:00	2024-11-08T11:00:00	1	Precipitación	0
29968	7	Sololá	717	San Juan la Laguna	12	San Juan la Laguna	1	Enero	2023-10-01T00:00:00	2024-11-08T11:00:00	8	Radiación solar	615
29969	7	Sololá	717	San Juan la Laguna	12	San Juan la Laguna	1	Enero	2023-10-01T00:00:00	2024-11-08T12:00:00	2	Temperatura media	22.7
29970	7	Sololá	717	San Juan la Laguna	12	San Juan la Laguna	1	Enero	2023-10-01T00:00:00	2024-11-08T12:00:00	4	Temperatura máxima	22.7
29971	7	Sololá	717	San Juan la Laguna	12	San Juan la Laguna	1	Enero	2023-10-01T00:00:00	2024-11-08T12:00:00	3	Temperatura mínima	21.8
29972	7	Sololá	717	San Juan la Laguna	12	San Juan la Laguna	1	Enero	2023-10-01T00:00:00	2024-11-08T12:00:00	5	Humedad	57
29973	7	Sololá	717	San Juan la Laguna	12	San Juan la Laguna	1	Enero	2023-10-01T00:00:00	2024-11-08T12:00:00	6	Velocidad del viento	4.8
29974	7	Sololá	717	San Juan la Laguna	12	San Juan la Laguna	1	Enero	2023-10-01T00:00:00	2024-11-08T12:00:00	7	Dirección del viento	4.83
29975	7	Sololá	717	San Juan la Laguna	12	San Juan la Laguna	1	Enero	2023-10-01T00:00:00	2024-11-08T12:00:00	1	Precipitación	0
29976	7	Sololá	717	San Juan la Laguna	12	San Juan la Laguna	1	Enero	2023-10-01T00:00:00	2024-11-08T12:00:00	8	Radiación solar	693
29977	7	Sololá	717	San Juan la Laguna	12	San Juan la Laguna	1	Enero	2023-10-01T00:00:00	2024-11-08T13:00:00	2	Temperatura media	22.8
29978	7	Sololá	717	San Juan la Laguna	12	San Juan la Laguna	1	Enero	2023-10-01T00:00:00	2024-11-08T13:00:00	4	Temperatura máxima	23.7
29979	7	Sololá	717	San Juan la Laguna	12	San Juan la Laguna	1	Enero	2023-10-01T00:00:00	2024-11-08T13:00:00	3	Temperatura mínima	22.7
29980	7	Sololá	717	San Juan la Laguna	12	San Juan la Laguna	1	Enero	2023-10-01T00:00:00	2024-11-08T13:00:00	5	Humedad	64
29981	7	Sololá	717	San Juan la Laguna	12	San Juan la Laguna	1	Enero	2023-10-01T00:00:00	2024-11-08T13:00:00	6	Velocidad del viento	6.4
29982	7	Sololá	717	San Juan la Laguna	12	San Juan la Laguna	1	Enero	2023-10-01T00:00:00	2024-11-08T13:00:00	7	Dirección del viento	6.44
29983	7	Sololá	717	San Juan la Laguna	12	San Juan la Laguna	1	Enero	2023-10-01T00:00:00	2024-11-08T13:00:00	1	Precipitación	0
29984	7	Sololá	717	San Juan la Laguna	12	San Juan la Laguna	1	Enero	2023-10-01T00:00:00	2024-11-08T13:00:00	8	Radiación solar	748
29985	7	Sololá	717	San Juan la Laguna	12	San Juan la Laguna	1	Enero	2023-10-01T00:00:00	2024-11-08T14:00:00	2	Temperatura media	21.7
29986	7	Sololá	717	San Juan la Laguna	12	San Juan la Laguna	1	Enero	2023-10-01T00:00:00	2024-11-08T14:00:00	4	Temperatura máxima	22.8
29987	7	Sololá	717	San Juan la Laguna	12	San Juan la Laguna	1	Enero	2023-10-01T00:00:00	2024-11-08T14:00:00	3	Temperatura mínima	21.4
29988	7	Sololá	717	San Juan la Laguna	12	San Juan la Laguna	1	Enero	2023-10-01T00:00:00	2024-11-08T14:00:00	5	Humedad	69
29989	7	Sololá	717	San Juan la Laguna	12	San Juan la Laguna	1	Enero	2023-10-01T00:00:00	2024-11-08T14:00:00	6	Velocidad del viento	6.4
29990	7	Sololá	717	San Juan la Laguna	12	San Juan la Laguna	1	Enero	2023-10-01T00:00:00	2024-11-08T14:00:00	7	Dirección del viento	6.44
29991	7	Sololá	717	San Juan la Laguna	12	San Juan la Laguna	1	Enero	2023-10-01T00:00:00	2024-11-08T14:00:00	1	Precipitación	0
29992	7	Sololá	717	San Juan la Laguna	12	San Juan la Laguna	1	Enero	2023-10-01T00:00:00	2024-11-08T14:00:00	8	Radiación solar	321
29993	7	Sololá	717	San Juan la Laguna	12	San Juan la Laguna	1	Enero	2023-10-01T00:00:00	2024-11-08T15:00:00	2	Temperatura media	21
29994	7	Sololá	717	San Juan la Laguna	12	San Juan la Laguna	1	Enero	2023-10-01T00:00:00	2024-11-08T15:00:00	4	Temperatura máxima	22.7
29995	7	Sololá	717	San Juan la Laguna	12	San Juan la Laguna	1	Enero	2023-10-01T00:00:00	2024-11-08T15:00:00	3	Temperatura mínima	20.8
29996	7	Sololá	717	San Juan la Laguna	12	San Juan la Laguna	1	Enero	2023-10-01T00:00:00	2024-11-08T15:00:00	5	Humedad	72
29997	7	Sololá	717	San Juan la Laguna	12	San Juan la Laguna	1	Enero	2023-10-01T00:00:00	2024-11-08T15:00:00	6	Velocidad del viento	4.8
29998	7	Sololá	717	San Juan la Laguna	12	San Juan la Laguna	1	Enero	2023-10-01T00:00:00	2024-11-08T15:00:00	7	Dirección del viento	4.83
29999	7	Sololá	717	San Juan la Laguna	12	San Juan la Laguna	1	Enero	2023-10-01T00:00:00	2024-11-08T15:00:00	1	Precipitación	0
30000	7	Sololá	717	San Juan la Laguna	12	San Juan la Laguna	1	Enero	2023-10-01T00:00:00	2024-11-08T15:00:00	8	Radiación solar	404
30001	7	Sololá	717	San Juan la Laguna	12	San Juan la Laguna	1	Enero	2023-10-01T00:00:00	2024-11-08T16:00:00	2	Temperatura media	20.7
30002	7	Sololá	717	San Juan la Laguna	12	San Juan la Laguna	1	Enero	2023-10-01T00:00:00	2024-11-08T16:00:00	4	Temperatura máxima	21.1
30003	7	Sololá	717	San Juan la Laguna	12	San Juan la Laguna	1	Enero	2023-10-01T00:00:00	2024-11-08T16:00:00	3	Temperatura mínima	20.7
30004	7	Sololá	717	San Juan la Laguna	12	San Juan la Laguna	1	Enero	2023-10-01T00:00:00	2024-11-08T16:00:00	5	Humedad	75
30005	7	Sololá	717	San Juan la Laguna	12	San Juan la Laguna	1	Enero	2023-10-01T00:00:00	2024-11-08T16:00:00	6	Velocidad del viento	6.4
30006	7	Sololá	717	San Juan la Laguna	12	San Juan la Laguna	1	Enero	2023-10-01T00:00:00	2024-11-08T16:00:00	7	Dirección del viento	6.44
30007	7	Sololá	717	San Juan la Laguna	12	San Juan la Laguna	1	Enero	2023-10-01T00:00:00	2024-11-08T16:00:00	1	Precipitación	0
30008	7	Sololá	717	San Juan la Laguna	12	San Juan la Laguna	1	Enero	2023-10-01T00:00:00	2024-11-08T16:00:00	8	Radiación solar	275
30009	7	Sololá	717	San Juan la Laguna	12	San Juan la Laguna	1	Enero	2023-10-01T00:00:00	2024-11-08T17:00:00	2	Temperatura media	19.4
30010	7	Sololá	717	San Juan la Laguna	12	San Juan la Laguna	1	Enero	2023-10-01T00:00:00	2024-11-08T17:00:00	4	Temperatura máxima	20.6
30011	7	Sololá	717	San Juan la Laguna	12	San Juan la Laguna	1	Enero	2023-10-01T00:00:00	2024-11-08T17:00:00	3	Temperatura mínima	19.4
30012	7	Sololá	717	San Juan la Laguna	12	San Juan la Laguna	1	Enero	2023-10-01T00:00:00	2024-11-08T17:00:00	5	Humedad	81
30013	7	Sololá	717	San Juan la Laguna	12	San Juan la Laguna	1	Enero	2023-10-01T00:00:00	2024-11-08T17:00:00	6	Velocidad del viento	1.6
30014	7	Sololá	717	San Juan la Laguna	12	San Juan la Laguna	1	Enero	2023-10-01T00:00:00	2024-11-08T17:00:00	7	Dirección del viento	1.61
30015	7	Sololá	717	San Juan la Laguna	12	San Juan la Laguna	1	Enero	2023-10-01T00:00:00	2024-11-08T17:00:00	1	Precipitación	0
30016	7	Sololá	717	San Juan la Laguna	12	San Juan la Laguna	1	Enero	2023-10-01T00:00:00	2024-11-08T17:00:00	8	Radiación solar	60
30017	7	Sololá	717	San Juan la Laguna	12	San Juan la Laguna	1	Enero	2023-10-01T00:00:00	2024-11-08T18:00:00	2	Temperatura media	18.3
30018	7	Sololá	717	San Juan la Laguna	12	San Juan la Laguna	1	Enero	2023-10-01T00:00:00	2024-11-08T18:00:00	4	Temperatura máxima	19.4
30019	7	Sololá	717	San Juan la Laguna	12	San Juan la Laguna	1	Enero	2023-10-01T00:00:00	2024-11-08T18:00:00	3	Temperatura mínima	18.3
30020	7	Sololá	717	San Juan la Laguna	12	San Juan la Laguna	1	Enero	2023-10-01T00:00:00	2024-11-08T18:00:00	5	Humedad	85
30021	7	Sololá	717	San Juan la Laguna	12	San Juan la Laguna	1	Enero	2023-10-01T00:00:00	2024-11-08T18:00:00	6	Velocidad del viento	0
30022	7	Sololá	717	San Juan la Laguna	12	San Juan la Laguna	1	Enero	2023-10-01T00:00:00	2024-11-08T18:00:00	7	Dirección del viento	0
30023	7	Sololá	717	San Juan la Laguna	12	San Juan la Laguna	1	Enero	2023-10-01T00:00:00	2024-11-08T18:00:00	1	Precipitación	0
30024	7	Sololá	717	San Juan la Laguna	12	San Juan la Laguna	1	Enero	2023-10-01T00:00:00	2024-11-08T18:00:00	8	Radiación solar	11
30025	7	Sololá	717	San Juan la Laguna	12	San Juan la Laguna	1	Enero	2023-10-01T00:00:00	2024-11-08T19:00:00	2	Temperatura media	18.3
30026	7	Sololá	717	San Juan la Laguna	12	San Juan la Laguna	1	Enero	2023-10-01T00:00:00	2024-11-08T19:00:00	4	Temperatura máxima	18.3
30027	7	Sololá	717	San Juan la Laguna	12	San Juan la Laguna	1	Enero	2023-10-01T00:00:00	2024-11-08T19:00:00	3	Temperatura mínima	16.9
30028	7	Sololá	717	San Juan la Laguna	12	San Juan la Laguna	1	Enero	2023-10-01T00:00:00	2024-11-08T19:00:00	5	Humedad	76
30029	7	Sololá	717	San Juan la Laguna	12	San Juan la Laguna	1	Enero	2023-10-01T00:00:00	2024-11-08T19:00:00	6	Velocidad del viento	1.6
30030	7	Sololá	717	San Juan la Laguna	12	San Juan la Laguna	1	Enero	2023-10-01T00:00:00	2024-11-08T19:00:00	7	Dirección del viento	1.61
30031	7	Sololá	717	San Juan la Laguna	12	San Juan la Laguna	1	Enero	2023-10-01T00:00:00	2024-11-08T19:00:00	1	Precipitación	0
30032	7	Sololá	717	San Juan la Laguna	12	San Juan la Laguna	1	Enero	2023-10-01T00:00:00	2024-11-08T19:00:00	8	Radiación solar	0
30033	7	Sololá	717	San Juan la Laguna	12	San Juan la Laguna	1	Enero	2023-10-01T00:00:00	2024-11-08T20:00:00	2	Temperatura media	18.9
30034	7	Sololá	717	San Juan la Laguna	12	San Juan la Laguna	1	Enero	2023-10-01T00:00:00	2024-11-08T20:00:00	4	Temperatura máxima	19.2
30035	7	Sololá	717	San Juan la Laguna	12	San Juan la Laguna	1	Enero	2023-10-01T00:00:00	2024-11-08T20:00:00	3	Temperatura mínima	18.3
30036	7	Sololá	717	San Juan la Laguna	12	San Juan la Laguna	1	Enero	2023-10-01T00:00:00	2024-11-08T20:00:00	5	Humedad	71
30037	7	Sololá	717	San Juan la Laguna	12	San Juan la Laguna	1	Enero	2023-10-01T00:00:00	2024-11-08T20:00:00	6	Velocidad del viento	4.8
30038	7	Sololá	717	San Juan la Laguna	12	San Juan la Laguna	1	Enero	2023-10-01T00:00:00	2024-11-08T20:00:00	7	Dirección del viento	4.83
30039	7	Sololá	717	San Juan la Laguna	12	San Juan la Laguna	1	Enero	2023-10-01T00:00:00	2024-11-08T20:00:00	1	Precipitación	0
30040	7	Sololá	717	San Juan la Laguna	12	San Juan la Laguna	1	Enero	2023-10-01T00:00:00	2024-11-08T20:00:00	8	Radiación solar	0
30041	7	Sololá	717	San Juan la Laguna	12	San Juan la Laguna	1	Enero	2023-10-01T00:00:00	2024-11-08T21:00:00	2	Temperatura media	15.9
30042	7	Sololá	717	San Juan la Laguna	12	San Juan la Laguna	1	Enero	2023-10-01T00:00:00	2024-11-08T21:00:00	4	Temperatura máxima	18.9
30043	7	Sololá	717	San Juan la Laguna	12	San Juan la Laguna	1	Enero	2023-10-01T00:00:00	2024-11-08T21:00:00	3	Temperatura mínima	15.7
30044	7	Sololá	717	San Juan la Laguna	12	San Juan la Laguna	1	Enero	2023-10-01T00:00:00	2024-11-08T21:00:00	5	Humedad	81
30045	7	Sololá	717	San Juan la Laguna	12	San Juan la Laguna	1	Enero	2023-10-01T00:00:00	2024-11-08T21:00:00	6	Velocidad del viento	1.6
30046	7	Sololá	717	San Juan la Laguna	12	San Juan la Laguna	1	Enero	2023-10-01T00:00:00	2024-11-08T21:00:00	7	Dirección del viento	1.61
30047	7	Sololá	717	San Juan la Laguna	12	San Juan la Laguna	1	Enero	2023-10-01T00:00:00	2024-11-08T21:00:00	1	Precipitación	0
30048	7	Sololá	717	San Juan la Laguna	12	San Juan la Laguna	1	Enero	2023-10-01T00:00:00	2024-11-08T21:00:00	8	Radiación solar	0
30049	7	Sololá	717	San Juan la Laguna	12	San Juan la Laguna	1	Enero	2023-10-01T00:00:00	2024-11-08T22:00:00	2	Temperatura media	16.1
30050	7	Sololá	717	San Juan la Laguna	12	San Juan la Laguna	1	Enero	2023-10-01T00:00:00	2024-11-08T22:00:00	4	Temperatura máxima	17.9
30051	7	Sololá	717	San Juan la Laguna	12	San Juan la Laguna	1	Enero	2023-10-01T00:00:00	2024-11-08T22:00:00	3	Temperatura mínima	16
30052	7	Sololá	717	San Juan la Laguna	12	San Juan la Laguna	1	Enero	2023-10-01T00:00:00	2024-11-08T22:00:00	5	Humedad	77
30053	7	Sololá	717	San Juan la Laguna	12	San Juan la Laguna	1	Enero	2023-10-01T00:00:00	2024-11-08T22:00:00	6	Velocidad del viento	3.2
30054	7	Sololá	717	San Juan la Laguna	12	San Juan la Laguna	1	Enero	2023-10-01T00:00:00	2024-11-08T22:00:00	7	Dirección del viento	3.22
30055	7	Sololá	717	San Juan la Laguna	12	San Juan la Laguna	1	Enero	2023-10-01T00:00:00	2024-11-08T22:00:00	1	Precipitación	0
30056	7	Sololá	717	San Juan la Laguna	12	San Juan la Laguna	1	Enero	2023-10-01T00:00:00	2024-11-08T22:00:00	8	Radiación solar	0
30057	7	Sololá	717	San Juan la Laguna	12	San Juan la Laguna	1	Enero	2023-10-01T00:00:00	2024-11-08T23:00:00	2	Temperatura media	14.8
30058	7	Sololá	717	San Juan la Laguna	12	San Juan la Laguna	1	Enero	2023-10-01T00:00:00	2024-11-08T23:00:00	4	Temperatura máxima	16.1
30059	7	Sololá	717	San Juan la Laguna	12	San Juan la Laguna	1	Enero	2023-10-01T00:00:00	2024-11-08T23:00:00	3	Temperatura mínima	14.5
30060	7	Sololá	717	San Juan la Laguna	12	San Juan la Laguna	1	Enero	2023-10-01T00:00:00	2024-11-08T23:00:00	5	Humedad	82
30061	7	Sololá	717	San Juan la Laguna	12	San Juan la Laguna	1	Enero	2023-10-01T00:00:00	2024-11-08T23:00:00	6	Velocidad del viento	1.6
30062	7	Sololá	717	San Juan la Laguna	12	San Juan la Laguna	1	Enero	2023-10-01T00:00:00	2024-11-08T23:00:00	7	Dirección del viento	1.61
30063	7	Sololá	717	San Juan la Laguna	12	San Juan la Laguna	1	Enero	2023-10-01T00:00:00	2024-11-08T23:00:00	1	Precipitación	0
30064	7	Sololá	717	San Juan la Laguna	12	San Juan la Laguna	1	Enero	2023-10-01T00:00:00	2024-11-08T23:00:00	8	Radiación solar	0
30065	7	Sololá	717	San Juan la Laguna	12	San Juan la Laguna	1	Enero	2023-11-01T00:00:00	2024-11-08T00:00:00	2	Temperatura media	14.7
30066	7	Sololá	717	San Juan la Laguna	12	San Juan la Laguna	1	Enero	2023-11-01T00:00:00	2024-11-08T00:00:00	4	Temperatura máxima	14.8
30067	7	Sololá	717	San Juan la Laguna	12	San Juan la Laguna	1	Enero	2023-11-01T00:00:00	2024-11-08T00:00:00	3	Temperatura mínima	14.3
30068	7	Sololá	717	San Juan la Laguna	12	San Juan la Laguna	1	Enero	2023-11-01T00:00:00	2024-11-08T00:00:00	5	Humedad	82
30069	7	Sololá	717	San Juan la Laguna	12	San Juan la Laguna	1	Enero	2023-11-01T00:00:00	2024-11-08T00:00:00	6	Velocidad del viento	3.2
30070	7	Sololá	717	San Juan la Laguna	12	San Juan la Laguna	1	Enero	2023-11-01T00:00:00	2024-11-08T00:00:00	7	Dirección del viento	3.22
30071	7	Sololá	717	San Juan la Laguna	12	San Juan la Laguna	1	Enero	2023-11-01T00:00:00	2024-11-08T00:00:00	1	Precipitación	0
30072	7	Sololá	717	San Juan la Laguna	12	San Juan la Laguna	1	Enero	2023-11-01T00:00:00	2024-11-08T00:00:00	8	Radiación solar	0
30073	7	Sololá	717	San Juan la Laguna	12	San Juan la Laguna	1	Enero	2023-11-01T00:00:00	2024-11-08T01:00:00	2	Temperatura media	14.1
30074	7	Sololá	717	San Juan la Laguna	12	San Juan la Laguna	1	Enero	2023-11-01T00:00:00	2024-11-08T01:00:00	4	Temperatura máxima	14.7
30075	7	Sololá	717	San Juan la Laguna	12	San Juan la Laguna	1	Enero	2023-11-01T00:00:00	2024-11-08T01:00:00	3	Temperatura mínima	14.1
30076	7	Sololá	717	San Juan la Laguna	12	San Juan la Laguna	1	Enero	2023-11-01T00:00:00	2024-11-08T01:00:00	5	Humedad	85
30077	7	Sololá	717	San Juan la Laguna	12	San Juan la Laguna	1	Enero	2023-11-01T00:00:00	2024-11-08T01:00:00	6	Velocidad del viento	1.6
30078	7	Sololá	717	San Juan la Laguna	12	San Juan la Laguna	1	Enero	2023-11-01T00:00:00	2024-11-08T01:00:00	7	Dirección del viento	1.61
30079	7	Sololá	717	San Juan la Laguna	12	San Juan la Laguna	1	Enero	2023-11-01T00:00:00	2024-11-08T01:00:00	1	Precipitación	0
30080	7	Sololá	717	San Juan la Laguna	12	San Juan la Laguna	1	Enero	2023-11-01T00:00:00	2024-11-08T01:00:00	8	Radiación solar	0
30081	7	Sololá	717	San Juan la Laguna	12	San Juan la Laguna	1	Enero	2023-11-01T00:00:00	2024-11-08T02:00:00	2	Temperatura media	13.8
30082	7	Sololá	717	San Juan la Laguna	12	San Juan la Laguna	1	Enero	2023-11-01T00:00:00	2024-11-08T02:00:00	4	Temperatura máxima	14.1
30083	7	Sololá	717	San Juan la Laguna	12	San Juan la Laguna	1	Enero	2023-11-01T00:00:00	2024-11-08T02:00:00	3	Temperatura mínima	13.7
30084	7	Sololá	717	San Juan la Laguna	12	San Juan la Laguna	1	Enero	2023-11-01T00:00:00	2024-11-08T02:00:00	5	Humedad	86
30085	7	Sololá	717	San Juan la Laguna	12	San Juan la Laguna	1	Enero	2023-11-01T00:00:00	2024-11-08T02:00:00	6	Velocidad del viento	3.2
30086	7	Sololá	717	San Juan la Laguna	12	San Juan la Laguna	1	Enero	2023-11-01T00:00:00	2024-11-08T02:00:00	7	Dirección del viento	3.22
30087	7	Sololá	717	San Juan la Laguna	12	San Juan la Laguna	1	Enero	2023-11-01T00:00:00	2024-11-08T02:00:00	1	Precipitación	0
30088	7	Sololá	717	San Juan la Laguna	12	San Juan la Laguna	1	Enero	2023-11-01T00:00:00	2024-11-08T02:00:00	8	Radiación solar	0
30089	7	Sololá	717	San Juan la Laguna	12	San Juan la Laguna	1	Enero	2023-11-01T00:00:00	2024-11-08T03:00:00	2	Temperatura media	13.5
30090	7	Sololá	717	San Juan la Laguna	12	San Juan la Laguna	1	Enero	2023-11-01T00:00:00	2024-11-08T03:00:00	4	Temperatura máxima	13.8
30091	7	Sololá	717	San Juan la Laguna	12	San Juan la Laguna	1	Enero	2023-11-01T00:00:00	2024-11-08T03:00:00	3	Temperatura mínima	13.4
30092	7	Sololá	717	San Juan la Laguna	12	San Juan la Laguna	1	Enero	2023-11-01T00:00:00	2024-11-08T03:00:00	5	Humedad	86
30093	7	Sololá	717	San Juan la Laguna	12	San Juan la Laguna	1	Enero	2023-11-01T00:00:00	2024-11-08T03:00:00	6	Velocidad del viento	3.2
30094	7	Sololá	717	San Juan la Laguna	12	San Juan la Laguna	1	Enero	2023-11-01T00:00:00	2024-11-08T03:00:00	7	Dirección del viento	3.22
30095	7	Sololá	717	San Juan la Laguna	12	San Juan la Laguna	1	Enero	2023-11-01T00:00:00	2024-11-08T03:00:00	1	Precipitación	0
30096	7	Sololá	717	San Juan la Laguna	12	San Juan la Laguna	1	Enero	2023-11-01T00:00:00	2024-11-08T03:00:00	8	Radiación solar	0
30097	7	Sololá	717	San Juan la Laguna	12	San Juan la Laguna	1	Enero	2023-11-01T00:00:00	2024-11-08T04:00:00	2	Temperatura media	14.2
30098	7	Sololá	717	San Juan la Laguna	12	San Juan la Laguna	1	Enero	2023-11-01T00:00:00	2024-11-08T04:00:00	4	Temperatura máxima	14.6
30099	7	Sololá	717	San Juan la Laguna	12	San Juan la Laguna	1	Enero	2023-11-01T00:00:00	2024-11-08T04:00:00	3	Temperatura mínima	13.3
30100	7	Sololá	717	San Juan la Laguna	12	San Juan la Laguna	1	Enero	2023-11-01T00:00:00	2024-11-08T04:00:00	5	Humedad	85
30101	7	Sololá	717	San Juan la Laguna	12	San Juan la Laguna	1	Enero	2023-11-01T00:00:00	2024-11-08T04:00:00	6	Velocidad del viento	1.6
30102	7	Sololá	717	San Juan la Laguna	12	San Juan la Laguna	1	Enero	2023-11-01T00:00:00	2024-11-08T04:00:00	7	Dirección del viento	1.61
30103	7	Sololá	717	San Juan la Laguna	12	San Juan la Laguna	1	Enero	2023-11-01T00:00:00	2024-11-08T04:00:00	1	Precipitación	0
30104	7	Sololá	717	San Juan la Laguna	12	San Juan la Laguna	1	Enero	2023-11-01T00:00:00	2024-11-08T04:00:00	8	Radiación solar	0
30105	7	Sololá	717	San Juan la Laguna	12	San Juan la Laguna	1	Enero	2023-11-01T00:00:00	2024-11-08T05:00:00	2	Temperatura media	13.8
30106	7	Sololá	717	San Juan la Laguna	12	San Juan la Laguna	1	Enero	2023-11-01T00:00:00	2024-11-08T05:00:00	4	Temperatura máxima	14.2
30107	7	Sololá	717	San Juan la Laguna	12	San Juan la Laguna	1	Enero	2023-11-01T00:00:00	2024-11-08T05:00:00	3	Temperatura mínima	13.4
30108	7	Sololá	717	San Juan la Laguna	12	San Juan la Laguna	1	Enero	2023-11-01T00:00:00	2024-11-08T05:00:00	5	Humedad	87
30109	7	Sololá	717	San Juan la Laguna	12	San Juan la Laguna	1	Enero	2023-11-01T00:00:00	2024-11-08T05:00:00	6	Velocidad del viento	1.6
30110	7	Sololá	717	San Juan la Laguna	12	San Juan la Laguna	1	Enero	2023-11-01T00:00:00	2024-11-08T05:00:00	7	Dirección del viento	1.61
30111	7	Sololá	717	San Juan la Laguna	12	San Juan la Laguna	1	Enero	2023-11-01T00:00:00	2024-11-08T05:00:00	1	Precipitación	0
30112	7	Sololá	717	San Juan la Laguna	12	San Juan la Laguna	1	Enero	2023-11-01T00:00:00	2024-11-08T05:00:00	8	Radiación solar	0
30113	7	Sololá	717	San Juan la Laguna	12	San Juan la Laguna	1	Enero	2023-11-01T00:00:00	2024-11-08T06:00:00	2	Temperatura media	13.7
30114	7	Sololá	717	San Juan la Laguna	12	San Juan la Laguna	1	Enero	2023-11-01T00:00:00	2024-11-08T06:00:00	4	Temperatura máxima	14.3
30115	7	Sololá	717	San Juan la Laguna	12	San Juan la Laguna	1	Enero	2023-11-01T00:00:00	2024-11-08T06:00:00	3	Temperatura mínima	13.6
30116	7	Sololá	717	San Juan la Laguna	12	San Juan la Laguna	1	Enero	2023-11-01T00:00:00	2024-11-08T06:00:00	5	Humedad	88
30117	7	Sololá	717	San Juan la Laguna	12	San Juan la Laguna	1	Enero	2023-11-01T00:00:00	2024-11-08T06:00:00	6	Velocidad del viento	1.6
30118	7	Sololá	717	San Juan la Laguna	12	San Juan la Laguna	1	Enero	2023-11-01T00:00:00	2024-11-08T06:00:00	7	Dirección del viento	1.61
30119	7	Sololá	717	San Juan la Laguna	12	San Juan la Laguna	1	Enero	2023-11-01T00:00:00	2024-11-08T06:00:00	1	Precipitación	0
30120	7	Sololá	717	San Juan la Laguna	12	San Juan la Laguna	1	Enero	2023-11-01T00:00:00	2024-11-08T06:00:00	8	Radiación solar	0
30121	7	Sololá	717	San Juan la Laguna	12	San Juan la Laguna	1	Enero	2023-11-01T00:00:00	2024-11-08T07:00:00	2	Temperatura media	15.4
30122	7	Sololá	717	San Juan la Laguna	12	San Juan la Laguna	1	Enero	2023-11-01T00:00:00	2024-11-08T07:00:00	4	Temperatura máxima	15.4
30123	7	Sololá	717	San Juan la Laguna	12	San Juan la Laguna	1	Enero	2023-11-01T00:00:00	2024-11-08T07:00:00	3	Temperatura mínima	13.7
30124	7	Sololá	717	San Juan la Laguna	12	San Juan la Laguna	1	Enero	2023-11-01T00:00:00	2024-11-08T07:00:00	5	Humedad	80
30125	7	Sololá	717	San Juan la Laguna	12	San Juan la Laguna	1	Enero	2023-11-01T00:00:00	2024-11-08T07:00:00	6	Velocidad del viento	1.6
30126	7	Sololá	717	San Juan la Laguna	12	San Juan la Laguna	1	Enero	2023-11-01T00:00:00	2024-11-08T07:00:00	7	Dirección del viento	1.61
30127	7	Sololá	717	San Juan la Laguna	12	San Juan la Laguna	1	Enero	2023-11-01T00:00:00	2024-11-08T07:00:00	1	Precipitación	0
30128	7	Sololá	717	San Juan la Laguna	12	San Juan la Laguna	1	Enero	2023-11-01T00:00:00	2024-11-08T07:00:00	8	Radiación solar	4
30129	7	Sololá	717	San Juan la Laguna	12	San Juan la Laguna	1	Enero	2023-11-01T00:00:00	2024-11-08T08:00:00	2	Temperatura media	17.3
30130	7	Sololá	717	San Juan la Laguna	12	San Juan la Laguna	1	Enero	2023-11-01T00:00:00	2024-11-08T08:00:00	4	Temperatura máxima	17.3
30131	7	Sololá	717	San Juan la Laguna	12	San Juan la Laguna	1	Enero	2023-11-01T00:00:00	2024-11-08T08:00:00	3	Temperatura mínima	14.8
30132	7	Sololá	717	San Juan la Laguna	12	San Juan la Laguna	1	Enero	2023-11-01T00:00:00	2024-11-08T08:00:00	5	Humedad	77
30133	7	Sololá	717	San Juan la Laguna	12	San Juan la Laguna	1	Enero	2023-11-01T00:00:00	2024-11-08T08:00:00	6	Velocidad del viento	1.6
30134	7	Sololá	717	San Juan la Laguna	12	San Juan la Laguna	1	Enero	2023-11-01T00:00:00	2024-11-08T08:00:00	7	Dirección del viento	1.61
30135	7	Sololá	717	San Juan la Laguna	12	San Juan la Laguna	1	Enero	2023-11-01T00:00:00	2024-11-08T08:00:00	1	Precipitación	0
30136	7	Sololá	717	San Juan la Laguna	12	San Juan la Laguna	1	Enero	2023-11-01T00:00:00	2024-11-08T08:00:00	8	Radiación solar	125
30137	7	Sololá	717	San Juan la Laguna	12	San Juan la Laguna	1	Enero	2023-11-01T00:00:00	2024-11-08T09:00:00	2	Temperatura media	20.4
30138	7	Sololá	717	San Juan la Laguna	12	San Juan la Laguna	1	Enero	2023-11-01T00:00:00	2024-11-08T09:00:00	4	Temperatura máxima	20.4
30139	7	Sololá	717	San Juan la Laguna	12	San Juan la Laguna	1	Enero	2023-11-01T00:00:00	2024-11-08T09:00:00	3	Temperatura mínima	17.3
30140	7	Sololá	717	San Juan la Laguna	12	San Juan la Laguna	1	Enero	2023-11-01T00:00:00	2024-11-08T09:00:00	5	Humedad	60
30141	7	Sololá	717	San Juan la Laguna	12	San Juan la Laguna	1	Enero	2023-11-01T00:00:00	2024-11-08T09:00:00	6	Velocidad del viento	6.4
30142	7	Sololá	717	San Juan la Laguna	12	San Juan la Laguna	1	Enero	2023-11-01T00:00:00	2024-11-08T09:00:00	7	Dirección del viento	6.44
30143	7	Sololá	717	San Juan la Laguna	12	San Juan la Laguna	1	Enero	2023-11-01T00:00:00	2024-11-08T09:00:00	1	Precipitación	0
30144	7	Sololá	717	San Juan la Laguna	12	San Juan la Laguna	1	Enero	2023-11-01T00:00:00	2024-11-08T09:00:00	8	Radiación solar	350
30145	7	Sololá	717	San Juan la Laguna	12	San Juan la Laguna	1	Enero	2023-11-01T00:00:00	2024-11-08T10:00:00	2	Temperatura media	22.1
30146	7	Sololá	717	San Juan la Laguna	12	San Juan la Laguna	1	Enero	2023-11-01T00:00:00	2024-11-08T10:00:00	4	Temperatura máxima	22.1
30147	7	Sololá	717	San Juan la Laguna	12	San Juan la Laguna	1	Enero	2023-11-01T00:00:00	2024-11-08T10:00:00	3	Temperatura mínima	20.4
30148	7	Sololá	717	San Juan la Laguna	12	San Juan la Laguna	1	Enero	2023-11-01T00:00:00	2024-11-08T10:00:00	5	Humedad	54
30149	7	Sololá	717	San Juan la Laguna	12	San Juan la Laguna	1	Enero	2023-11-01T00:00:00	2024-11-08T10:00:00	6	Velocidad del viento	9.7
30150	7	Sololá	717	San Juan la Laguna	12	San Juan la Laguna	1	Enero	2023-11-01T00:00:00	2024-11-08T10:00:00	7	Dirección del viento	9.66
30151	7	Sololá	717	San Juan la Laguna	12	San Juan la Laguna	1	Enero	2023-11-01T00:00:00	2024-11-08T10:00:00	1	Precipitación	0
30152	7	Sololá	717	San Juan la Laguna	12	San Juan la Laguna	1	Enero	2023-11-01T00:00:00	2024-11-08T10:00:00	8	Radiación solar	531
30153	7	Sololá	717	San Juan la Laguna	12	San Juan la Laguna	1	Enero	2023-11-01T00:00:00	2024-11-08T11:00:00	2	Temperatura media	23.1
30154	7	Sololá	717	San Juan la Laguna	12	San Juan la Laguna	1	Enero	2023-11-01T00:00:00	2024-11-08T11:00:00	4	Temperatura máxima	23.2
30155	7	Sololá	717	San Juan la Laguna	12	San Juan la Laguna	1	Enero	2023-11-01T00:00:00	2024-11-08T11:00:00	3	Temperatura mínima	21.9
30156	7	Sololá	717	San Juan la Laguna	12	San Juan la Laguna	1	Enero	2023-11-01T00:00:00	2024-11-08T11:00:00	5	Humedad	52
30157	7	Sololá	717	San Juan la Laguna	12	San Juan la Laguna	1	Enero	2023-11-01T00:00:00	2024-11-08T11:00:00	6	Velocidad del viento	6.4
30158	7	Sololá	717	San Juan la Laguna	12	San Juan la Laguna	1	Enero	2023-11-01T00:00:00	2024-11-08T11:00:00	7	Dirección del viento	6.44
30159	7	Sololá	717	San Juan la Laguna	12	San Juan la Laguna	1	Enero	2023-11-01T00:00:00	2024-11-08T11:00:00	1	Precipitación	0
30160	7	Sololá	717	San Juan la Laguna	12	San Juan la Laguna	1	Enero	2023-11-01T00:00:00	2024-11-08T11:00:00	8	Radiación solar	627
30161	7	Sololá	717	San Juan la Laguna	12	San Juan la Laguna	1	Enero	2023-11-01T00:00:00	2024-11-08T12:00:00	2	Temperatura media	23.8
30162	7	Sololá	717	San Juan la Laguna	12	San Juan la Laguna	1	Enero	2023-11-01T00:00:00	2024-11-08T12:00:00	4	Temperatura máxima	24.2
30163	7	Sololá	717	San Juan la Laguna	12	San Juan la Laguna	1	Enero	2023-11-01T00:00:00	2024-11-08T12:00:00	3	Temperatura mínima	23.1
30164	7	Sololá	717	San Juan la Laguna	12	San Juan la Laguna	1	Enero	2023-11-01T00:00:00	2024-11-08T12:00:00	5	Humedad	49
30165	7	Sololá	717	San Juan la Laguna	12	San Juan la Laguna	1	Enero	2023-11-01T00:00:00	2024-11-08T12:00:00	6	Velocidad del viento	6.4
30166	7	Sololá	717	San Juan la Laguna	12	San Juan la Laguna	1	Enero	2023-11-01T00:00:00	2024-11-08T12:00:00	7	Dirección del viento	6.44
30167	7	Sololá	717	San Juan la Laguna	12	San Juan la Laguna	1	Enero	2023-11-01T00:00:00	2024-11-08T12:00:00	1	Precipitación	0
30168	7	Sololá	717	San Juan la Laguna	12	San Juan la Laguna	1	Enero	2023-11-01T00:00:00	2024-11-08T12:00:00	8	Radiación solar	685
30169	7	Sololá	717	San Juan la Laguna	12	San Juan la Laguna	1	Enero	2023-11-01T00:00:00	2024-11-08T13:00:00	2	Temperatura media	24.6
30170	7	Sololá	717	San Juan la Laguna	12	San Juan la Laguna	1	Enero	2023-11-01T00:00:00	2024-11-08T13:00:00	4	Temperatura máxima	24.9
30171	7	Sololá	717	San Juan la Laguna	12	San Juan la Laguna	1	Enero	2023-11-01T00:00:00	2024-11-08T13:00:00	3	Temperatura mínima	23.9
30172	7	Sololá	717	San Juan la Laguna	12	San Juan la Laguna	1	Enero	2023-11-01T00:00:00	2024-11-08T13:00:00	5	Humedad	46
30173	7	Sololá	717	San Juan la Laguna	12	San Juan la Laguna	1	Enero	2023-11-01T00:00:00	2024-11-08T13:00:00	6	Velocidad del viento	4.8
30174	7	Sololá	717	San Juan la Laguna	12	San Juan la Laguna	1	Enero	2023-11-01T00:00:00	2024-11-08T13:00:00	7	Dirección del viento	4.83
30175	7	Sololá	717	San Juan la Laguna	12	San Juan la Laguna	1	Enero	2023-11-01T00:00:00	2024-11-08T13:00:00	1	Precipitación	0
30176	7	Sololá	717	San Juan la Laguna	12	San Juan la Laguna	1	Enero	2023-11-01T00:00:00	2024-11-08T13:00:00	8	Radiación solar	780
30177	7	Sololá	717	San Juan la Laguna	12	San Juan la Laguna	1	Enero	2023-11-01T00:00:00	2024-11-08T14:00:00	2	Temperatura media	22.7
30178	7	Sololá	717	San Juan la Laguna	12	San Juan la Laguna	1	Enero	2023-11-01T00:00:00	2024-11-08T14:00:00	4	Temperatura máxima	25.1
30179	7	Sololá	717	San Juan la Laguna	12	San Juan la Laguna	1	Enero	2023-11-01T00:00:00	2024-11-08T14:00:00	3	Temperatura mínima	22.6
30180	7	Sololá	717	San Juan la Laguna	12	San Juan la Laguna	1	Enero	2023-11-01T00:00:00	2024-11-08T14:00:00	5	Humedad	64
30181	7	Sololá	717	San Juan la Laguna	12	San Juan la Laguna	1	Enero	2023-11-01T00:00:00	2024-11-08T14:00:00	6	Velocidad del viento	6.4
30182	7	Sololá	717	San Juan la Laguna	12	San Juan la Laguna	1	Enero	2023-11-01T00:00:00	2024-11-08T14:00:00	7	Dirección del viento	6.44
30183	7	Sololá	717	San Juan la Laguna	12	San Juan la Laguna	1	Enero	2023-11-01T00:00:00	2024-11-08T14:00:00	1	Precipitación	0
30184	7	Sololá	717	San Juan la Laguna	12	San Juan la Laguna	1	Enero	2023-11-01T00:00:00	2024-11-08T14:00:00	8	Radiación solar	768
30185	7	Sololá	717	San Juan la Laguna	12	San Juan la Laguna	1	Enero	2023-11-01T00:00:00	2024-11-08T15:00:00	2	Temperatura media	21.8
30186	7	Sololá	717	San Juan la Laguna	12	San Juan la Laguna	1	Enero	2023-11-01T00:00:00	2024-11-08T15:00:00	4	Temperatura máxima	22.9
30187	7	Sololá	717	San Juan la Laguna	12	San Juan la Laguna	1	Enero	2023-11-01T00:00:00	2024-11-08T15:00:00	3	Temperatura mínima	21.5
30188	7	Sololá	717	San Juan la Laguna	12	San Juan la Laguna	1	Enero	2023-11-01T00:00:00	2024-11-08T15:00:00	5	Humedad	70
30189	7	Sololá	717	San Juan la Laguna	12	San Juan la Laguna	1	Enero	2023-11-01T00:00:00	2024-11-08T15:00:00	6	Velocidad del viento	11.3
30190	7	Sololá	717	San Juan la Laguna	12	San Juan la Laguna	1	Enero	2023-11-01T00:00:00	2024-11-08T15:00:00	7	Dirección del viento	11.27
30191	7	Sololá	717	San Juan la Laguna	12	San Juan la Laguna	1	Enero	2023-11-01T00:00:00	2024-11-08T15:00:00	1	Precipitación	0
30192	7	Sololá	717	San Juan la Laguna	12	San Juan la Laguna	1	Enero	2023-11-01T00:00:00	2024-11-08T15:00:00	8	Radiación solar	695
30193	7	Sololá	717	San Juan la Laguna	12	San Juan la Laguna	1	Enero	2023-11-01T00:00:00	2024-11-08T16:00:00	2	Temperatura media	20.4
30194	7	Sololá	717	San Juan la Laguna	12	San Juan la Laguna	1	Enero	2023-11-01T00:00:00	2024-11-08T16:00:00	4	Temperatura máxima	22.1
30195	7	Sololá	717	San Juan la Laguna	12	San Juan la Laguna	1	Enero	2023-11-01T00:00:00	2024-11-08T16:00:00	3	Temperatura mínima	20.3
30196	7	Sololá	717	San Juan la Laguna	12	San Juan la Laguna	1	Enero	2023-11-01T00:00:00	2024-11-08T16:00:00	5	Humedad	75
30197	7	Sololá	717	San Juan la Laguna	12	San Juan la Laguna	1	Enero	2023-11-01T00:00:00	2024-11-08T16:00:00	6	Velocidad del viento	6.4
30198	7	Sololá	717	San Juan la Laguna	12	San Juan la Laguna	1	Enero	2023-11-01T00:00:00	2024-11-08T16:00:00	7	Dirección del viento	6.44
30199	7	Sololá	717	San Juan la Laguna	12	San Juan la Laguna	1	Enero	2023-11-01T00:00:00	2024-11-08T16:00:00	1	Precipitación	0
30200	7	Sololá	717	San Juan la Laguna	12	San Juan la Laguna	1	Enero	2023-11-01T00:00:00	2024-11-08T16:00:00	8	Radiación solar	231
30201	7	Sololá	717	San Juan la Laguna	12	San Juan la Laguna	1	Enero	2023-11-01T00:00:00	2024-11-08T17:00:00	2	Temperatura media	20.3
30202	7	Sololá	717	San Juan la Laguna	12	San Juan la Laguna	1	Enero	2023-11-01T00:00:00	2024-11-08T17:00:00	4	Temperatura máxima	20.6
30203	7	Sololá	717	San Juan la Laguna	12	San Juan la Laguna	1	Enero	2023-11-01T00:00:00	2024-11-08T17:00:00	3	Temperatura mínima	20
30204	7	Sololá	717	San Juan la Laguna	12	San Juan la Laguna	1	Enero	2023-11-01T00:00:00	2024-11-08T17:00:00	5	Humedad	72
30205	7	Sololá	717	San Juan la Laguna	12	San Juan la Laguna	1	Enero	2023-11-01T00:00:00	2024-11-08T17:00:00	6	Velocidad del viento	1.6
30206	7	Sololá	717	San Juan la Laguna	12	San Juan la Laguna	1	Enero	2023-11-01T00:00:00	2024-11-08T17:00:00	7	Dirección del viento	1.61
30207	7	Sololá	717	San Juan la Laguna	12	San Juan la Laguna	1	Enero	2023-11-01T00:00:00	2024-11-08T17:00:00	1	Precipitación	0
30208	7	Sololá	717	San Juan la Laguna	12	San Juan la Laguna	1	Enero	2023-11-01T00:00:00	2024-11-08T17:00:00	8	Radiación solar	106
30209	7	Sololá	717	San Juan la Laguna	12	San Juan la Laguna	1	Enero	2023-11-01T00:00:00	2024-11-08T18:00:00	2	Temperatura media	20
30210	7	Sololá	717	San Juan la Laguna	12	San Juan la Laguna	1	Enero	2023-11-01T00:00:00	2024-11-08T18:00:00	4	Temperatura máxima	20.4
30211	7	Sololá	717	San Juan la Laguna	12	San Juan la Laguna	1	Enero	2023-11-01T00:00:00	2024-11-08T18:00:00	3	Temperatura mínima	19.9
30212	7	Sololá	717	San Juan la Laguna	12	San Juan la Laguna	1	Enero	2023-11-01T00:00:00	2024-11-08T18:00:00	5	Humedad	72
30213	7	Sololá	717	San Juan la Laguna	12	San Juan la Laguna	1	Enero	2023-11-01T00:00:00	2024-11-08T18:00:00	6	Velocidad del viento	1.6
30214	7	Sololá	717	San Juan la Laguna	12	San Juan la Laguna	1	Enero	2023-11-01T00:00:00	2024-11-08T18:00:00	7	Dirección del viento	1.61
30215	7	Sololá	717	San Juan la Laguna	12	San Juan la Laguna	1	Enero	2023-11-01T00:00:00	2024-11-08T18:00:00	1	Precipitación	0
30216	7	Sololá	717	San Juan la Laguna	12	San Juan la Laguna	1	Enero	2023-11-01T00:00:00	2024-11-08T18:00:00	8	Radiación solar	24
30217	7	Sololá	717	San Juan la Laguna	12	San Juan la Laguna	1	Enero	2023-11-01T00:00:00	2024-11-08T19:00:00	2	Temperatura media	19.6
30218	7	Sololá	717	San Juan la Laguna	12	San Juan la Laguna	1	Enero	2023-11-01T00:00:00	2024-11-08T19:00:00	4	Temperatura máxima	20.1
30219	7	Sololá	717	San Juan la Laguna	12	San Juan la Laguna	1	Enero	2023-11-01T00:00:00	2024-11-08T19:00:00	3	Temperatura mínima	19.6
30220	7	Sololá	717	San Juan la Laguna	12	San Juan la Laguna	1	Enero	2023-11-01T00:00:00	2024-11-08T19:00:00	5	Humedad	68
30221	7	Sololá	717	San Juan la Laguna	12	San Juan la Laguna	1	Enero	2023-11-01T00:00:00	2024-11-08T19:00:00	6	Velocidad del viento	3.2
30222	7	Sololá	717	San Juan la Laguna	12	San Juan la Laguna	1	Enero	2023-11-01T00:00:00	2024-11-08T19:00:00	7	Dirección del viento	3.22
30223	7	Sololá	717	San Juan la Laguna	12	San Juan la Laguna	1	Enero	2023-11-01T00:00:00	2024-11-08T19:00:00	1	Precipitación	0
30224	7	Sololá	717	San Juan la Laguna	12	San Juan la Laguna	1	Enero	2023-11-01T00:00:00	2024-11-08T19:00:00	8	Radiación solar	0
30225	7	Sololá	717	San Juan la Laguna	12	San Juan la Laguna	1	Enero	2023-11-01T00:00:00	2024-11-08T20:00:00	2	Temperatura media	17.9
30226	7	Sololá	717	San Juan la Laguna	12	San Juan la Laguna	1	Enero	2023-11-01T00:00:00	2024-11-08T20:00:00	4	Temperatura máxima	19.6
30227	7	Sololá	717	San Juan la Laguna	12	San Juan la Laguna	1	Enero	2023-11-01T00:00:00	2024-11-08T20:00:00	3	Temperatura mínima	17.9
30228	7	Sololá	717	San Juan la Laguna	12	San Juan la Laguna	1	Enero	2023-11-01T00:00:00	2024-11-08T20:00:00	5	Humedad	72
30229	7	Sololá	717	San Juan la Laguna	12	San Juan la Laguna	1	Enero	2023-11-01T00:00:00	2024-11-08T20:00:00	6	Velocidad del viento	1.6
30230	7	Sololá	717	San Juan la Laguna	12	San Juan la Laguna	1	Enero	2023-11-01T00:00:00	2024-11-08T20:00:00	7	Dirección del viento	1.61
30231	7	Sololá	717	San Juan la Laguna	12	San Juan la Laguna	1	Enero	2023-11-01T00:00:00	2024-11-08T20:00:00	1	Precipitación	0
30232	7	Sololá	717	San Juan la Laguna	12	San Juan la Laguna	1	Enero	2023-11-01T00:00:00	2024-11-08T20:00:00	8	Radiación solar	0
30233	7	Sololá	717	San Juan la Laguna	12	San Juan la Laguna	1	Enero	2023-11-01T00:00:00	2024-11-08T21:00:00	2	Temperatura media	18.8
30234	7	Sololá	717	San Juan la Laguna	12	San Juan la Laguna	1	Enero	2023-11-01T00:00:00	2024-11-08T21:00:00	4	Temperatura máxima	18.9
30235	7	Sololá	717	San Juan la Laguna	12	San Juan la Laguna	1	Enero	2023-11-01T00:00:00	2024-11-08T21:00:00	3	Temperatura mínima	17.7
30236	7	Sololá	717	San Juan la Laguna	12	San Juan la Laguna	1	Enero	2023-11-01T00:00:00	2024-11-08T21:00:00	5	Humedad	69
30237	7	Sololá	717	San Juan la Laguna	12	San Juan la Laguna	1	Enero	2023-11-01T00:00:00	2024-11-08T21:00:00	6	Velocidad del viento	3.2
30238	7	Sololá	717	San Juan la Laguna	12	San Juan la Laguna	1	Enero	2023-11-01T00:00:00	2024-11-08T21:00:00	7	Dirección del viento	3.22
30239	7	Sololá	717	San Juan la Laguna	12	San Juan la Laguna	1	Enero	2023-11-01T00:00:00	2024-11-08T21:00:00	1	Precipitación	0
30240	7	Sololá	717	San Juan la Laguna	12	San Juan la Laguna	1	Enero	2023-11-01T00:00:00	2024-11-08T21:00:00	8	Radiación solar	0
30241	7	Sololá	717	San Juan la Laguna	12	San Juan la Laguna	1	Enero	2023-11-01T00:00:00	2024-11-08T22:00:00	2	Temperatura media	17.9
30242	7	Sololá	717	San Juan la Laguna	12	San Juan la Laguna	1	Enero	2023-11-01T00:00:00	2024-11-08T22:00:00	4	Temperatura máxima	18.8
30243	7	Sololá	717	San Juan la Laguna	12	San Juan la Laguna	1	Enero	2023-11-01T00:00:00	2024-11-08T22:00:00	3	Temperatura mínima	17.7
30244	7	Sololá	717	San Juan la Laguna	12	San Juan la Laguna	1	Enero	2023-11-01T00:00:00	2024-11-08T22:00:00	5	Humedad	71
30245	7	Sololá	717	San Juan la Laguna	12	San Juan la Laguna	1	Enero	2023-11-01T00:00:00	2024-11-08T22:00:00	6	Velocidad del viento	1.6
30246	7	Sololá	717	San Juan la Laguna	12	San Juan la Laguna	1	Enero	2023-11-01T00:00:00	2024-11-08T22:00:00	7	Dirección del viento	1.61
30247	7	Sololá	717	San Juan la Laguna	12	San Juan la Laguna	1	Enero	2023-11-01T00:00:00	2024-11-08T22:00:00	1	Precipitación	0
30248	7	Sololá	717	San Juan la Laguna	12	San Juan la Laguna	1	Enero	2023-11-01T00:00:00	2024-11-08T22:00:00	8	Radiación solar	0
30249	7	Sololá	717	San Juan la Laguna	12	San Juan la Laguna	1	Enero	2023-11-01T00:00:00	2024-11-08T23:00:00	2	Temperatura media	15.9
30250	7	Sololá	717	San Juan la Laguna	12	San Juan la Laguna	1	Enero	2023-11-01T00:00:00	2024-11-08T23:00:00	4	Temperatura máxima	17.9
30251	7	Sololá	717	San Juan la Laguna	12	San Juan la Laguna	1	Enero	2023-11-01T00:00:00	2024-11-08T23:00:00	3	Temperatura mínima	15.8
30252	7	Sololá	717	San Juan la Laguna	12	San Juan la Laguna	1	Enero	2023-11-01T00:00:00	2024-11-08T23:00:00	5	Humedad	78
30253	7	Sololá	717	San Juan la Laguna	12	San Juan la Laguna	1	Enero	2023-11-01T00:00:00	2024-11-08T23:00:00	6	Velocidad del viento	1.6
30254	7	Sololá	717	San Juan la Laguna	12	San Juan la Laguna	1	Enero	2023-11-01T00:00:00	2024-11-08T23:00:00	7	Dirección del viento	1.61
30255	7	Sololá	717	San Juan la Laguna	12	San Juan la Laguna	1	Enero	2023-11-01T00:00:00	2024-11-08T23:00:00	1	Precipitación	0
30256	7	Sololá	717	San Juan la Laguna	12	San Juan la Laguna	1	Enero	2023-11-01T00:00:00	2024-11-08T23:00:00	8	Radiación solar	0
30257	7	Sololá	717	San Juan la Laguna	12	San Juan la Laguna	1	Enero	2023-12-01T00:00:00	2024-11-08T00:00:00	2	Temperatura media	14
30258	7	Sololá	717	San Juan la Laguna	12	San Juan la Laguna	1	Enero	2023-12-01T00:00:00	2024-11-08T00:00:00	4	Temperatura máxima	15.9
30259	7	Sololá	717	San Juan la Laguna	12	San Juan la Laguna	1	Enero	2023-12-01T00:00:00	2024-11-08T00:00:00	3	Temperatura mínima	14
30260	7	Sololá	717	San Juan la Laguna	12	San Juan la Laguna	1	Enero	2023-12-01T00:00:00	2024-11-08T00:00:00	5	Humedad	84
30261	7	Sololá	717	San Juan la Laguna	12	San Juan la Laguna	1	Enero	2023-12-01T00:00:00	2024-11-08T00:00:00	6	Velocidad del viento	3.2
30262	7	Sololá	717	San Juan la Laguna	12	San Juan la Laguna	1	Enero	2023-12-01T00:00:00	2024-11-08T00:00:00	7	Dirección del viento	3.22
30263	7	Sololá	717	San Juan la Laguna	12	San Juan la Laguna	1	Enero	2023-12-01T00:00:00	2024-11-08T00:00:00	1	Precipitación	0
30264	7	Sololá	717	San Juan la Laguna	12	San Juan la Laguna	1	Enero	2023-12-01T00:00:00	2024-11-08T00:00:00	8	Radiación solar	0
30265	7	Sololá	717	San Juan la Laguna	12	San Juan la Laguna	1	Enero	2023-12-01T00:00:00	2024-11-08T01:00:00	2	Temperatura media	13.7
30266	7	Sololá	717	San Juan la Laguna	12	San Juan la Laguna	1	Enero	2023-12-01T00:00:00	2024-11-08T01:00:00	4	Temperatura máxima	14
30267	7	Sololá	717	San Juan la Laguna	12	San Juan la Laguna	1	Enero	2023-12-01T00:00:00	2024-11-08T01:00:00	3	Temperatura mínima	13.7
30268	7	Sololá	717	San Juan la Laguna	12	San Juan la Laguna	1	Enero	2023-12-01T00:00:00	2024-11-08T01:00:00	5	Humedad	83
30269	7	Sololá	717	San Juan la Laguna	12	San Juan la Laguna	1	Enero	2023-12-01T00:00:00	2024-11-08T01:00:00	6	Velocidad del viento	3.2
30270	7	Sololá	717	San Juan la Laguna	12	San Juan la Laguna	1	Enero	2023-12-01T00:00:00	2024-11-08T01:00:00	7	Dirección del viento	3.22
30271	7	Sololá	717	San Juan la Laguna	12	San Juan la Laguna	1	Enero	2023-12-01T00:00:00	2024-11-08T01:00:00	1	Precipitación	0
30272	7	Sololá	717	San Juan la Laguna	12	San Juan la Laguna	1	Enero	2023-12-01T00:00:00	2024-11-08T01:00:00	8	Radiación solar	0
30273	7	Sololá	717	San Juan la Laguna	12	San Juan la Laguna	1	Enero	2023-12-01T00:00:00	2024-11-08T02:00:00	2	Temperatura media	13.3
30274	7	Sololá	717	San Juan la Laguna	12	San Juan la Laguna	1	Enero	2023-12-01T00:00:00	2024-11-08T02:00:00	4	Temperatura máxima	13.7
30275	7	Sololá	717	San Juan la Laguna	12	San Juan la Laguna	1	Enero	2023-12-01T00:00:00	2024-11-08T02:00:00	3	Temperatura mínima	13.3
30276	7	Sololá	717	San Juan la Laguna	12	San Juan la Laguna	1	Enero	2023-12-01T00:00:00	2024-11-08T02:00:00	5	Humedad	87
30277	7	Sololá	717	San Juan la Laguna	12	San Juan la Laguna	1	Enero	2023-12-01T00:00:00	2024-11-08T02:00:00	6	Velocidad del viento	0
30278	7	Sololá	717	San Juan la Laguna	12	San Juan la Laguna	1	Enero	2023-12-01T00:00:00	2024-11-08T02:00:00	7	Dirección del viento	0
30279	7	Sololá	717	San Juan la Laguna	12	San Juan la Laguna	1	Enero	2023-12-01T00:00:00	2024-11-08T02:00:00	1	Precipitación	0
30280	7	Sololá	717	San Juan la Laguna	12	San Juan la Laguna	1	Enero	2023-12-01T00:00:00	2024-11-08T02:00:00	8	Radiación solar	0
30281	7	Sololá	717	San Juan la Laguna	12	San Juan la Laguna	1	Enero	2023-12-01T00:00:00	2024-11-08T03:00:00	2	Temperatura media	13.4
30282	7	Sololá	717	San Juan la Laguna	12	San Juan la Laguna	1	Enero	2023-12-01T00:00:00	2024-11-08T03:00:00	4	Temperatura máxima	13.8
30283	7	Sololá	717	San Juan la Laguna	12	San Juan la Laguna	1	Enero	2023-12-01T00:00:00	2024-11-08T03:00:00	3	Temperatura mínima	13.3
30284	7	Sololá	717	San Juan la Laguna	12	San Juan la Laguna	1	Enero	2023-12-01T00:00:00	2024-11-08T03:00:00	5	Humedad	83
30285	7	Sololá	717	San Juan la Laguna	12	San Juan la Laguna	1	Enero	2023-12-01T00:00:00	2024-11-08T03:00:00	6	Velocidad del viento	4.8
30286	7	Sololá	717	San Juan la Laguna	12	San Juan la Laguna	1	Enero	2023-12-01T00:00:00	2024-11-08T03:00:00	7	Dirección del viento	4.83
30287	7	Sololá	717	San Juan la Laguna	12	San Juan la Laguna	1	Enero	2023-12-01T00:00:00	2024-11-08T03:00:00	1	Precipitación	0
30288	7	Sololá	717	San Juan la Laguna	12	San Juan la Laguna	1	Enero	2023-12-01T00:00:00	2024-11-08T03:00:00	8	Radiación solar	0
30289	7	Sololá	717	San Juan la Laguna	12	San Juan la Laguna	1	Enero	2023-12-01T00:00:00	2024-11-08T04:00:00	2	Temperatura media	12.8
30290	7	Sololá	717	San Juan la Laguna	12	San Juan la Laguna	1	Enero	2023-12-01T00:00:00	2024-11-08T04:00:00	4	Temperatura máxima	13.4
30291	7	Sololá	717	San Juan la Laguna	12	San Juan la Laguna	1	Enero	2023-12-01T00:00:00	2024-11-08T04:00:00	3	Temperatura mínima	12.7
30292	7	Sololá	717	San Juan la Laguna	12	San Juan la Laguna	1	Enero	2023-12-01T00:00:00	2024-11-08T04:00:00	5	Humedad	84
30293	7	Sololá	717	San Juan la Laguna	12	San Juan la Laguna	1	Enero	2023-12-01T00:00:00	2024-11-08T04:00:00	6	Velocidad del viento	3.2
30294	7	Sololá	717	San Juan la Laguna	12	San Juan la Laguna	1	Enero	2023-12-01T00:00:00	2024-11-08T04:00:00	7	Dirección del viento	3.22
30295	7	Sololá	717	San Juan la Laguna	12	San Juan la Laguna	1	Enero	2023-12-01T00:00:00	2024-11-08T04:00:00	1	Precipitación	0
30296	7	Sololá	717	San Juan la Laguna	12	San Juan la Laguna	1	Enero	2023-12-01T00:00:00	2024-11-08T04:00:00	8	Radiación solar	0
30297	7	Sololá	717	San Juan la Laguna	12	San Juan la Laguna	1	Enero	2023-12-01T00:00:00	2024-11-08T05:00:00	2	Temperatura media	12.7
30298	7	Sololá	717	San Juan la Laguna	12	San Juan la Laguna	1	Enero	2023-12-01T00:00:00	2024-11-08T05:00:00	4	Temperatura máxima	12.8
30299	7	Sololá	717	San Juan la Laguna	12	San Juan la Laguna	1	Enero	2023-12-01T00:00:00	2024-11-08T05:00:00	3	Temperatura mínima	12.6
30300	7	Sololá	717	San Juan la Laguna	12	San Juan la Laguna	1	Enero	2023-12-01T00:00:00	2024-11-08T05:00:00	5	Humedad	83
30301	7	Sololá	717	San Juan la Laguna	12	San Juan la Laguna	1	Enero	2023-12-01T00:00:00	2024-11-08T05:00:00	6	Velocidad del viento	4.8
30302	7	Sololá	717	San Juan la Laguna	12	San Juan la Laguna	1	Enero	2023-12-01T00:00:00	2024-11-08T05:00:00	7	Dirección del viento	4.83
30303	7	Sololá	717	San Juan la Laguna	12	San Juan la Laguna	1	Enero	2023-12-01T00:00:00	2024-11-08T05:00:00	1	Precipitación	0
30304	7	Sololá	717	San Juan la Laguna	12	San Juan la Laguna	1	Enero	2023-12-01T00:00:00	2024-11-08T05:00:00	8	Radiación solar	0
30305	7	Sololá	717	San Juan la Laguna	12	San Juan la Laguna	1	Enero	2023-12-01T00:00:00	2024-11-08T06:00:00	2	Temperatura media	12.7
30306	7	Sololá	717	San Juan la Laguna	12	San Juan la Laguna	1	Enero	2023-12-01T00:00:00	2024-11-08T06:00:00	4	Temperatura máxima	12.8
30307	7	Sololá	717	San Juan la Laguna	12	San Juan la Laguna	1	Enero	2023-12-01T00:00:00	2024-11-08T06:00:00	3	Temperatura mínima	12.6
30308	7	Sololá	717	San Juan la Laguna	12	San Juan la Laguna	1	Enero	2023-12-01T00:00:00	2024-11-08T06:00:00	5	Humedad	82
30309	7	Sololá	717	San Juan la Laguna	12	San Juan la Laguna	1	Enero	2023-12-01T00:00:00	2024-11-08T06:00:00	6	Velocidad del viento	4.8
30310	7	Sololá	717	San Juan la Laguna	12	San Juan la Laguna	1	Enero	2023-12-01T00:00:00	2024-11-08T06:00:00	7	Dirección del viento	4.83
30311	7	Sololá	717	San Juan la Laguna	12	San Juan la Laguna	1	Enero	2023-12-01T00:00:00	2024-11-08T06:00:00	1	Precipitación	0
30312	7	Sololá	717	San Juan la Laguna	12	San Juan la Laguna	1	Enero	2023-12-01T00:00:00	2024-11-08T06:00:00	8	Radiación solar	0
30313	7	Sololá	717	San Juan la Laguna	12	San Juan la Laguna	1	Enero	2023-12-01T00:00:00	2024-11-08T07:00:00	2	Temperatura media	12.6
30314	7	Sololá	717	San Juan la Laguna	12	San Juan la Laguna	1	Enero	2023-12-01T00:00:00	2024-11-08T07:00:00	4	Temperatura máxima	12.7
30315	7	Sololá	717	San Juan la Laguna	12	San Juan la Laguna	1	Enero	2023-12-01T00:00:00	2024-11-08T07:00:00	3	Temperatura mínima	12.3
30316	7	Sololá	717	San Juan la Laguna	12	San Juan la Laguna	1	Enero	2023-12-01T00:00:00	2024-11-08T07:00:00	5	Humedad	83
30317	7	Sololá	717	San Juan la Laguna	12	San Juan la Laguna	1	Enero	2023-12-01T00:00:00	2024-11-08T07:00:00	6	Velocidad del viento	4.8
30318	7	Sololá	717	San Juan la Laguna	12	San Juan la Laguna	1	Enero	2023-12-01T00:00:00	2024-11-08T07:00:00	7	Dirección del viento	4.83
30319	7	Sololá	717	San Juan la Laguna	12	San Juan la Laguna	1	Enero	2023-12-01T00:00:00	2024-11-08T07:00:00	1	Precipitación	0
30320	7	Sololá	717	San Juan la Laguna	12	San Juan la Laguna	1	Enero	2023-12-01T00:00:00	2024-11-08T07:00:00	8	Radiación solar	4
30321	7	Sololá	717	San Juan la Laguna	12	San Juan la Laguna	1	Enero	2023-12-01T00:00:00	2024-11-08T08:00:00	2	Temperatura media	14.8
30322	7	Sololá	717	San Juan la Laguna	12	San Juan la Laguna	1	Enero	2023-12-01T00:00:00	2024-11-08T08:00:00	4	Temperatura máxima	14.8
30323	7	Sololá	717	San Juan la Laguna	12	San Juan la Laguna	1	Enero	2023-12-01T00:00:00	2024-11-08T08:00:00	3	Temperatura mínima	12.5
30324	7	Sololá	717	San Juan la Laguna	12	San Juan la Laguna	1	Enero	2023-12-01T00:00:00	2024-11-08T08:00:00	5	Humedad	79
30325	7	Sololá	717	San Juan la Laguna	12	San Juan la Laguna	1	Enero	2023-12-01T00:00:00	2024-11-08T08:00:00	6	Velocidad del viento	3.2
30326	7	Sololá	717	San Juan la Laguna	12	San Juan la Laguna	1	Enero	2023-12-01T00:00:00	2024-11-08T08:00:00	7	Dirección del viento	3.22
30327	7	Sololá	717	San Juan la Laguna	12	San Juan la Laguna	1	Enero	2023-12-01T00:00:00	2024-11-08T08:00:00	1	Precipitación	0
30328	7	Sololá	717	San Juan la Laguna	12	San Juan la Laguna	1	Enero	2023-12-01T00:00:00	2024-11-08T08:00:00	8	Radiación solar	125
30329	7	Sololá	717	San Juan la Laguna	12	San Juan la Laguna	1	Enero	2023-12-01T00:00:00	2024-11-08T09:00:00	2	Temperatura media	19
30330	7	Sololá	717	San Juan la Laguna	12	San Juan la Laguna	1	Enero	2023-12-01T00:00:00	2024-11-08T09:00:00	4	Temperatura máxima	19
30331	7	Sololá	717	San Juan la Laguna	12	San Juan la Laguna	1	Enero	2023-12-01T00:00:00	2024-11-08T09:00:00	3	Temperatura mínima	14.8
30332	7	Sololá	717	San Juan la Laguna	12	San Juan la Laguna	1	Enero	2023-12-01T00:00:00	2024-11-08T09:00:00	5	Humedad	70
30333	7	Sololá	717	San Juan la Laguna	12	San Juan la Laguna	1	Enero	2023-12-01T00:00:00	2024-11-08T09:00:00	6	Velocidad del viento	0
30334	7	Sololá	717	San Juan la Laguna	12	San Juan la Laguna	1	Enero	2023-12-01T00:00:00	2024-11-08T09:00:00	7	Dirección del viento	0
30335	7	Sololá	717	San Juan la Laguna	12	San Juan la Laguna	1	Enero	2023-12-01T00:00:00	2024-11-08T09:00:00	1	Precipitación	0
30336	7	Sololá	717	San Juan la Laguna	12	San Juan la Laguna	1	Enero	2023-12-01T00:00:00	2024-11-08T09:00:00	8	Radiación solar	337
30337	7	Sololá	717	San Juan la Laguna	12	San Juan la Laguna	1	Enero	2023-12-01T00:00:00	2024-11-08T10:00:00	2	Temperatura media	20
30338	7	Sololá	717	San Juan la Laguna	12	San Juan la Laguna	1	Enero	2023-12-01T00:00:00	2024-11-08T10:00:00	4	Temperatura máxima	20.1
30339	7	Sololá	717	San Juan la Laguna	12	San Juan la Laguna	1	Enero	2023-12-01T00:00:00	2024-11-08T10:00:00	3	Temperatura mínima	19
30340	7	Sololá	717	San Juan la Laguna	12	San Juan la Laguna	1	Enero	2023-12-01T00:00:00	2024-11-08T10:00:00	5	Humedad	69
30341	7	Sololá	717	San Juan la Laguna	12	San Juan la Laguna	1	Enero	2023-12-01T00:00:00	2024-11-08T10:00:00	6	Velocidad del viento	0
30342	7	Sololá	717	San Juan la Laguna	12	San Juan la Laguna	1	Enero	2023-12-01T00:00:00	2024-11-08T10:00:00	7	Dirección del viento	0
30343	7	Sololá	717	San Juan la Laguna	12	San Juan la Laguna	1	Enero	2023-12-01T00:00:00	2024-11-08T10:00:00	1	Precipitación	0
30344	7	Sololá	717	San Juan la Laguna	12	San Juan la Laguna	1	Enero	2023-12-01T00:00:00	2024-11-08T10:00:00	8	Radiación solar	527
30345	7	Sololá	717	San Juan la Laguna	12	San Juan la Laguna	1	Enero	2023-12-01T00:00:00	2024-11-08T11:00:00	2	Temperatura media	21.4
30346	7	Sololá	717	San Juan la Laguna	12	San Juan la Laguna	1	Enero	2023-12-01T00:00:00	2024-11-08T11:00:00	4	Temperatura máxima	22
30347	7	Sololá	717	San Juan la Laguna	12	San Juan la Laguna	1	Enero	2023-12-01T00:00:00	2024-11-08T11:00:00	3	Temperatura mínima	20
30348	7	Sololá	717	San Juan la Laguna	12	San Juan la Laguna	1	Enero	2023-12-01T00:00:00	2024-11-08T11:00:00	5	Humedad	54
30349	7	Sololá	717	San Juan la Laguna	12	San Juan la Laguna	1	Enero	2023-12-01T00:00:00	2024-11-08T11:00:00	6	Velocidad del viento	3.2
30350	7	Sololá	717	San Juan la Laguna	12	San Juan la Laguna	1	Enero	2023-12-01T00:00:00	2024-11-08T11:00:00	7	Dirección del viento	3.22
30351	7	Sololá	717	San Juan la Laguna	12	San Juan la Laguna	1	Enero	2023-12-01T00:00:00	2024-11-08T11:00:00	1	Precipitación	0
30352	7	Sololá	717	San Juan la Laguna	12	San Juan la Laguna	1	Enero	2023-12-01T00:00:00	2024-11-08T11:00:00	8	Radiación solar	622
30353	7	Sololá	717	San Juan la Laguna	12	San Juan la Laguna	1	Enero	2023-12-01T00:00:00	2024-11-08T12:00:00	2	Temperatura media	20.9
30354	7	Sololá	717	San Juan la Laguna	12	San Juan la Laguna	1	Enero	2023-12-01T00:00:00	2024-11-08T12:00:00	4	Temperatura máxima	21.7
30355	7	Sololá	717	San Juan la Laguna	12	San Juan la Laguna	1	Enero	2023-12-01T00:00:00	2024-11-08T12:00:00	3	Temperatura mínima	20.9
30356	7	Sololá	717	San Juan la Laguna	12	San Juan la Laguna	1	Enero	2023-12-01T00:00:00	2024-11-08T12:00:00	5	Humedad	67
30357	7	Sololá	717	San Juan la Laguna	12	San Juan la Laguna	1	Enero	2023-12-01T00:00:00	2024-11-08T12:00:00	6	Velocidad del viento	4.8
30358	7	Sololá	717	San Juan la Laguna	12	San Juan la Laguna	1	Enero	2023-12-01T00:00:00	2024-11-08T12:00:00	7	Dirección del viento	4.83
30359	7	Sololá	717	San Juan la Laguna	12	San Juan la Laguna	1	Enero	2023-12-01T00:00:00	2024-11-08T12:00:00	1	Precipitación	0
30360	7	Sololá	717	San Juan la Laguna	12	San Juan la Laguna	1	Enero	2023-12-01T00:00:00	2024-11-08T12:00:00	8	Radiación solar	691
30361	7	Sololá	717	San Juan la Laguna	12	San Juan la Laguna	1	Enero	2023-12-01T00:00:00	2024-11-08T13:00:00	2	Temperatura media	21.7
30362	7	Sololá	717	San Juan la Laguna	12	San Juan la Laguna	1	Enero	2023-12-01T00:00:00	2024-11-08T13:00:00	4	Temperatura máxima	22.2
30363	7	Sololá	717	San Juan la Laguna	12	San Juan la Laguna	1	Enero	2023-12-01T00:00:00	2024-11-08T13:00:00	3	Temperatura mínima	20.9
30364	7	Sololá	717	San Juan la Laguna	12	San Juan la Laguna	1	Enero	2023-12-01T00:00:00	2024-11-08T13:00:00	5	Humedad	68
30365	7	Sololá	717	San Juan la Laguna	12	San Juan la Laguna	1	Enero	2023-12-01T00:00:00	2024-11-08T13:00:00	6	Velocidad del viento	6.4
30366	7	Sololá	717	San Juan la Laguna	12	San Juan la Laguna	1	Enero	2023-12-01T00:00:00	2024-11-08T13:00:00	7	Dirección del viento	6.44
30367	7	Sololá	717	San Juan la Laguna	12	San Juan la Laguna	1	Enero	2023-12-01T00:00:00	2024-11-08T13:00:00	1	Precipitación	0
30368	7	Sololá	717	San Juan la Laguna	12	San Juan la Laguna	1	Enero	2023-12-01T00:00:00	2024-11-08T13:00:00	8	Radiación solar	678
30369	7	Sololá	717	San Juan la Laguna	12	San Juan la Laguna	1	Enero	2023-12-01T00:00:00	2024-11-08T14:00:00	2	Temperatura media	21.3
30370	7	Sololá	717	San Juan la Laguna	12	San Juan la Laguna	1	Enero	2023-12-01T00:00:00	2024-11-08T14:00:00	4	Temperatura máxima	21.9
30371	7	Sololá	717	San Juan la Laguna	12	San Juan la Laguna	1	Enero	2023-12-01T00:00:00	2024-11-08T14:00:00	3	Temperatura mínima	20.8
30372	7	Sololá	717	San Juan la Laguna	12	San Juan la Laguna	1	Enero	2023-12-01T00:00:00	2024-11-08T14:00:00	5	Humedad	70
30373	7	Sololá	717	San Juan la Laguna	12	San Juan la Laguna	1	Enero	2023-12-01T00:00:00	2024-11-08T14:00:00	6	Velocidad del viento	12.9
30374	7	Sololá	717	San Juan la Laguna	12	San Juan la Laguna	1	Enero	2023-12-01T00:00:00	2024-11-08T14:00:00	7	Dirección del viento	12.87
30375	7	Sololá	717	San Juan la Laguna	12	San Juan la Laguna	1	Enero	2023-12-01T00:00:00	2024-11-08T14:00:00	1	Precipitación	0
30376	7	Sololá	717	San Juan la Laguna	12	San Juan la Laguna	1	Enero	2023-12-01T00:00:00	2024-11-08T14:00:00	8	Radiación solar	749
30377	7	Sololá	717	San Juan la Laguna	12	San Juan la Laguna	1	Enero	2023-12-01T00:00:00	2024-11-08T15:00:00	2	Temperatura media	21.5
30378	7	Sololá	717	San Juan la Laguna	12	San Juan la Laguna	1	Enero	2023-12-01T00:00:00	2024-11-08T15:00:00	4	Temperatura máxima	21.5
30379	7	Sololá	717	San Juan la Laguna	12	San Juan la Laguna	1	Enero	2023-12-01T00:00:00	2024-11-08T15:00:00	3	Temperatura mínima	20.8
30380	7	Sololá	717	San Juan la Laguna	12	San Juan la Laguna	1	Enero	2023-12-01T00:00:00	2024-11-08T15:00:00	5	Humedad	69
30381	7	Sololá	717	San Juan la Laguna	12	San Juan la Laguna	1	Enero	2023-12-01T00:00:00	2024-11-08T15:00:00	6	Velocidad del viento	11.3
30382	7	Sololá	717	San Juan la Laguna	12	San Juan la Laguna	1	Enero	2023-12-01T00:00:00	2024-11-08T15:00:00	7	Dirección del viento	11.27
30383	7	Sololá	717	San Juan la Laguna	12	San Juan la Laguna	1	Enero	2023-12-01T00:00:00	2024-11-08T15:00:00	1	Precipitación	0
30384	7	Sololá	717	San Juan la Laguna	12	San Juan la Laguna	1	Enero	2023-12-01T00:00:00	2024-11-08T15:00:00	8	Radiación solar	627
30385	7	Sololá	717	San Juan la Laguna	12	San Juan la Laguna	1	Enero	2023-12-01T00:00:00	2024-11-08T16:00:00	2	Temperatura media	20.7
30386	7	Sololá	717	San Juan la Laguna	12	San Juan la Laguna	1	Enero	2023-12-01T00:00:00	2024-11-08T16:00:00	4	Temperatura máxima	21.7
30387	7	Sololá	717	San Juan la Laguna	12	San Juan la Laguna	1	Enero	2023-12-01T00:00:00	2024-11-08T16:00:00	3	Temperatura mínima	20.6
30388	7	Sololá	717	San Juan la Laguna	12	San Juan la Laguna	1	Enero	2023-12-01T00:00:00	2024-11-08T16:00:00	5	Humedad	72
30389	7	Sololá	717	San Juan la Laguna	12	San Juan la Laguna	1	Enero	2023-12-01T00:00:00	2024-11-08T16:00:00	6	Velocidad del viento	9.7
30390	7	Sololá	717	San Juan la Laguna	12	San Juan la Laguna	1	Enero	2023-12-01T00:00:00	2024-11-08T16:00:00	7	Dirección del viento	9.66
30391	7	Sololá	717	San Juan la Laguna	12	San Juan la Laguna	1	Enero	2023-12-01T00:00:00	2024-11-08T16:00:00	1	Precipitación	0
30392	7	Sololá	717	San Juan la Laguna	12	San Juan la Laguna	1	Enero	2023-12-01T00:00:00	2024-11-08T16:00:00	8	Radiación solar	472
30393	7	Sololá	717	San Juan la Laguna	12	San Juan la Laguna	1	Enero	2023-12-01T00:00:00	2024-11-08T17:00:00	2	Temperatura media	19.6
30394	7	Sololá	717	San Juan la Laguna	12	San Juan la Laguna	1	Enero	2023-12-01T00:00:00	2024-11-08T17:00:00	4	Temperatura máxima	20.9
30395	7	Sololá	717	San Juan la Laguna	12	San Juan la Laguna	1	Enero	2023-12-01T00:00:00	2024-11-08T17:00:00	3	Temperatura mínima	19.5
30396	7	Sololá	717	San Juan la Laguna	12	San Juan la Laguna	1	Enero	2023-12-01T00:00:00	2024-11-08T17:00:00	5	Humedad	77
30397	7	Sololá	717	San Juan la Laguna	12	San Juan la Laguna	1	Enero	2023-12-01T00:00:00	2024-11-08T17:00:00	6	Velocidad del viento	4.8
30398	7	Sololá	717	San Juan la Laguna	12	San Juan la Laguna	1	Enero	2023-12-01T00:00:00	2024-11-08T17:00:00	7	Dirección del viento	4.83
30399	7	Sololá	717	San Juan la Laguna	12	San Juan la Laguna	1	Enero	2023-12-01T00:00:00	2024-11-08T17:00:00	1	Precipitación	0
30400	7	Sololá	717	San Juan la Laguna	12	San Juan la Laguna	1	Enero	2023-12-01T00:00:00	2024-11-08T17:00:00	8	Radiación solar	193
30401	7	Sololá	717	San Juan la Laguna	12	San Juan la Laguna	1	Enero	2023-12-01T00:00:00	2024-11-08T18:00:00	2	Temperatura media	18.7
30402	7	Sololá	717	San Juan la Laguna	12	San Juan la Laguna	1	Enero	2023-12-01T00:00:00	2024-11-08T18:00:00	4	Temperatura máxima	19.6
30403	7	Sololá	717	San Juan la Laguna	12	San Juan la Laguna	1	Enero	2023-12-01T00:00:00	2024-11-08T18:00:00	3	Temperatura mínima	18.7
30404	7	Sololá	717	San Juan la Laguna	12	San Juan la Laguna	1	Enero	2023-12-01T00:00:00	2024-11-08T18:00:00	5	Humedad	80
30405	7	Sololá	717	San Juan la Laguna	12	San Juan la Laguna	1	Enero	2023-12-01T00:00:00	2024-11-08T18:00:00	6	Velocidad del viento	3.2
30406	7	Sololá	717	San Juan la Laguna	12	San Juan la Laguna	1	Enero	2023-12-01T00:00:00	2024-11-08T18:00:00	7	Dirección del viento	3.22
30407	7	Sololá	717	San Juan la Laguna	12	San Juan la Laguna	1	Enero	2023-12-01T00:00:00	2024-11-08T18:00:00	1	Precipitación	0
30408	7	Sololá	717	San Juan la Laguna	12	San Juan la Laguna	1	Enero	2023-12-01T00:00:00	2024-11-08T18:00:00	8	Radiación solar	24
30409	7	Sololá	717	San Juan la Laguna	12	San Juan la Laguna	1	Enero	2023-12-01T00:00:00	2024-11-08T19:00:00	2	Temperatura media	17.8
30410	7	Sololá	717	San Juan la Laguna	12	San Juan la Laguna	1	Enero	2023-12-01T00:00:00	2024-11-08T19:00:00	4	Temperatura máxima	18.7
30411	7	Sololá	717	San Juan la Laguna	12	San Juan la Laguna	1	Enero	2023-12-01T00:00:00	2024-11-08T19:00:00	3	Temperatura mínima	17.8
30412	7	Sololá	717	San Juan la Laguna	12	San Juan la Laguna	1	Enero	2023-12-01T00:00:00	2024-11-08T19:00:00	5	Humedad	82
30413	7	Sololá	717	San Juan la Laguna	12	San Juan la Laguna	1	Enero	2023-12-01T00:00:00	2024-11-08T19:00:00	6	Velocidad del viento	1.6
30414	7	Sololá	717	San Juan la Laguna	12	San Juan la Laguna	1	Enero	2023-12-01T00:00:00	2024-11-08T19:00:00	7	Dirección del viento	1.61
30415	7	Sololá	717	San Juan la Laguna	12	San Juan la Laguna	1	Enero	2023-12-01T00:00:00	2024-11-08T19:00:00	1	Precipitación	0
30416	7	Sololá	717	San Juan la Laguna	12	San Juan la Laguna	1	Enero	2023-12-01T00:00:00	2024-11-08T19:00:00	8	Radiación solar	0
30417	7	Sololá	717	San Juan la Laguna	12	San Juan la Laguna	1	Enero	2023-12-01T00:00:00	2024-11-08T20:00:00	2	Temperatura media	17.1
30418	7	Sololá	717	San Juan la Laguna	12	San Juan la Laguna	1	Enero	2023-12-01T00:00:00	2024-11-08T20:00:00	4	Temperatura máxima	17.8
30419	7	Sololá	717	San Juan la Laguna	12	San Juan la Laguna	1	Enero	2023-12-01T00:00:00	2024-11-08T20:00:00	3	Temperatura mínima	17.1
30420	7	Sololá	717	San Juan la Laguna	12	San Juan la Laguna	1	Enero	2023-12-01T00:00:00	2024-11-08T20:00:00	5	Humedad	86
30421	7	Sololá	717	San Juan la Laguna	12	San Juan la Laguna	1	Enero	2023-12-01T00:00:00	2024-11-08T20:00:00	6	Velocidad del viento	1.6
30422	7	Sololá	717	San Juan la Laguna	12	San Juan la Laguna	1	Enero	2023-12-01T00:00:00	2024-11-08T20:00:00	7	Dirección del viento	1.61
30423	7	Sololá	717	San Juan la Laguna	12	San Juan la Laguna	1	Enero	2023-12-01T00:00:00	2024-11-08T20:00:00	1	Precipitación	0
30424	7	Sololá	717	San Juan la Laguna	12	San Juan la Laguna	1	Enero	2023-12-01T00:00:00	2024-11-08T20:00:00	8	Radiación solar	0
30425	7	Sololá	717	San Juan la Laguna	12	San Juan la Laguna	1	Enero	2023-12-01T00:00:00	2024-11-08T21:00:00	2	Temperatura media	16.4
30426	7	Sololá	717	San Juan la Laguna	12	San Juan la Laguna	1	Enero	2023-12-01T00:00:00	2024-11-08T21:00:00	4	Temperatura máxima	17.1
30427	7	Sololá	717	San Juan la Laguna	12	San Juan la Laguna	1	Enero	2023-12-01T00:00:00	2024-11-08T21:00:00	3	Temperatura mínima	16.4
30428	7	Sololá	717	San Juan la Laguna	12	San Juan la Laguna	1	Enero	2023-12-01T00:00:00	2024-11-08T21:00:00	5	Humedad	88
30429	7	Sololá	717	San Juan la Laguna	12	San Juan la Laguna	1	Enero	2023-12-01T00:00:00	2024-11-08T21:00:00	6	Velocidad del viento	1.6
30430	7	Sololá	717	San Juan la Laguna	12	San Juan la Laguna	1	Enero	2023-12-01T00:00:00	2024-11-08T21:00:00	7	Dirección del viento	1.61
30431	7	Sololá	717	San Juan la Laguna	12	San Juan la Laguna	1	Enero	2023-12-01T00:00:00	2024-11-08T21:00:00	1	Precipitación	0
30432	7	Sololá	717	San Juan la Laguna	12	San Juan la Laguna	1	Enero	2023-12-01T00:00:00	2024-11-08T21:00:00	8	Radiación solar	0
30433	7	Sololá	717	San Juan la Laguna	12	San Juan la Laguna	1	Enero	2023-12-01T00:00:00	2024-11-08T22:00:00	2	Temperatura media	15.8
30434	7	Sololá	717	San Juan la Laguna	12	San Juan la Laguna	1	Enero	2023-12-01T00:00:00	2024-11-08T22:00:00	4	Temperatura máxima	16.4
30435	7	Sololá	717	San Juan la Laguna	12	San Juan la Laguna	1	Enero	2023-12-01T00:00:00	2024-11-08T22:00:00	3	Temperatura mínima	15.8
30436	7	Sololá	717	San Juan la Laguna	12	San Juan la Laguna	1	Enero	2023-12-01T00:00:00	2024-11-08T22:00:00	5	Humedad	88
30437	7	Sololá	717	San Juan la Laguna	12	San Juan la Laguna	1	Enero	2023-12-01T00:00:00	2024-11-08T22:00:00	6	Velocidad del viento	1.6
30438	7	Sololá	717	San Juan la Laguna	12	San Juan la Laguna	1	Enero	2023-12-01T00:00:00	2024-11-08T22:00:00	7	Dirección del viento	1.61
30439	7	Sololá	717	San Juan la Laguna	12	San Juan la Laguna	1	Enero	2023-12-01T00:00:00	2024-11-08T22:00:00	1	Precipitación	0
30440	7	Sololá	717	San Juan la Laguna	12	San Juan la Laguna	1	Enero	2023-12-01T00:00:00	2024-11-08T22:00:00	8	Radiación solar	0
30441	7	Sololá	717	San Juan la Laguna	12	San Juan la Laguna	1	Enero	2023-12-01T00:00:00	2024-11-08T23:00:00	2	Temperatura media	15.1
30442	7	Sololá	717	San Juan la Laguna	12	San Juan la Laguna	1	Enero	2023-12-01T00:00:00	2024-11-08T23:00:00	4	Temperatura máxima	15.9
30443	7	Sololá	717	San Juan la Laguna	12	San Juan la Laguna	1	Enero	2023-12-01T00:00:00	2024-11-08T23:00:00	3	Temperatura mínima	15.1
30444	7	Sololá	717	San Juan la Laguna	12	San Juan la Laguna	1	Enero	2023-12-01T00:00:00	2024-11-08T23:00:00	5	Humedad	86
30445	7	Sololá	717	San Juan la Laguna	12	San Juan la Laguna	1	Enero	2023-12-01T00:00:00	2024-11-08T23:00:00	6	Velocidad del viento	1.6
30446	7	Sololá	717	San Juan la Laguna	12	San Juan la Laguna	1	Enero	2023-12-01T00:00:00	2024-11-08T23:00:00	7	Dirección del viento	1.61
30447	7	Sololá	717	San Juan la Laguna	12	San Juan la Laguna	1	Enero	2023-12-01T00:00:00	2024-11-08T23:00:00	1	Precipitación	0
30448	7	Sololá	717	San Juan la Laguna	12	San Juan la Laguna	1	Enero	2023-12-01T00:00:00	2024-11-08T23:00:00	8	Radiación solar	0
30449	7	Sololá	717	San Juan la Laguna	12	San Juan la Laguna	1	Enero	2023-01-13T00:00:00	2024-11-08T00:00:00	2	Temperatura media	14.8
30450	7	Sololá	717	San Juan la Laguna	12	San Juan la Laguna	1	Enero	2023-01-13T00:00:00	2024-11-08T00:00:00	4	Temperatura máxima	15.2
30451	7	Sololá	717	San Juan la Laguna	12	San Juan la Laguna	1	Enero	2023-01-13T00:00:00	2024-11-08T00:00:00	3	Temperatura mínima	14.7
30452	7	Sololá	717	San Juan la Laguna	12	San Juan la Laguna	1	Enero	2023-01-13T00:00:00	2024-11-08T00:00:00	5	Humedad	84
30453	7	Sololá	717	San Juan la Laguna	12	San Juan la Laguna	1	Enero	2023-01-13T00:00:00	2024-11-08T00:00:00	6	Velocidad del viento	1.6
30454	7	Sololá	717	San Juan la Laguna	12	San Juan la Laguna	1	Enero	2023-01-13T00:00:00	2024-11-08T00:00:00	7	Dirección del viento	1.61
30455	7	Sololá	717	San Juan la Laguna	12	San Juan la Laguna	1	Enero	2023-01-13T00:00:00	2024-11-08T00:00:00	1	Precipitación	0
30456	7	Sololá	717	San Juan la Laguna	12	San Juan la Laguna	1	Enero	2023-01-13T00:00:00	2024-11-08T00:00:00	8	Radiación solar	0
30457	7	Sololá	717	San Juan la Laguna	12	San Juan la Laguna	1	Enero	2023-01-13T00:00:00	2024-11-08T01:00:00	2	Temperatura media	14.3
30458	7	Sololá	717	San Juan la Laguna	12	San Juan la Laguna	1	Enero	2023-01-13T00:00:00	2024-11-08T01:00:00	4	Temperatura máxima	15
30459	7	Sololá	717	San Juan la Laguna	12	San Juan la Laguna	1	Enero	2023-01-13T00:00:00	2024-11-08T01:00:00	3	Temperatura mínima	14.3
30460	7	Sololá	717	San Juan la Laguna	12	San Juan la Laguna	1	Enero	2023-01-13T00:00:00	2024-11-08T01:00:00	5	Humedad	85
30461	7	Sololá	717	San Juan la Laguna	12	San Juan la Laguna	1	Enero	2023-01-13T00:00:00	2024-11-08T01:00:00	6	Velocidad del viento	3.2
30462	7	Sololá	717	San Juan la Laguna	12	San Juan la Laguna	1	Enero	2023-01-13T00:00:00	2024-11-08T01:00:00	7	Dirección del viento	3.22
30463	7	Sololá	717	San Juan la Laguna	12	San Juan la Laguna	1	Enero	2023-01-13T00:00:00	2024-11-08T01:00:00	1	Precipitación	0
30464	7	Sololá	717	San Juan la Laguna	12	San Juan la Laguna	1	Enero	2023-01-13T00:00:00	2024-11-08T01:00:00	8	Radiación solar	0
30465	7	Sololá	717	San Juan la Laguna	12	San Juan la Laguna	1	Enero	2023-01-13T00:00:00	2024-11-08T02:00:00	2	Temperatura media	14.2
30466	7	Sololá	717	San Juan la Laguna	12	San Juan la Laguna	1	Enero	2023-01-13T00:00:00	2024-11-08T02:00:00	4	Temperatura máxima	14.4
30467	7	Sololá	717	San Juan la Laguna	12	San Juan la Laguna	1	Enero	2023-01-13T00:00:00	2024-11-08T02:00:00	3	Temperatura mínima	13.9
30468	7	Sololá	717	San Juan la Laguna	12	San Juan la Laguna	1	Enero	2023-01-13T00:00:00	2024-11-08T02:00:00	5	Humedad	84
30469	7	Sololá	717	San Juan la Laguna	12	San Juan la Laguna	1	Enero	2023-01-13T00:00:00	2024-11-08T02:00:00	6	Velocidad del viento	3.2
30470	7	Sololá	717	San Juan la Laguna	12	San Juan la Laguna	1	Enero	2023-01-13T00:00:00	2024-11-08T02:00:00	7	Dirección del viento	3.22
30471	7	Sololá	717	San Juan la Laguna	12	San Juan la Laguna	1	Enero	2023-01-13T00:00:00	2024-11-08T02:00:00	1	Precipitación	0
30472	7	Sololá	717	San Juan la Laguna	12	San Juan la Laguna	1	Enero	2023-01-13T00:00:00	2024-11-08T02:00:00	8	Radiación solar	0
30473	7	Sololá	717	San Juan la Laguna	12	San Juan la Laguna	1	Enero	2023-01-13T00:00:00	2024-11-08T03:00:00	2	Temperatura media	13.8
30474	7	Sololá	717	San Juan la Laguna	12	San Juan la Laguna	1	Enero	2023-01-13T00:00:00	2024-11-08T03:00:00	4	Temperatura máxima	14.3
30475	7	Sololá	717	San Juan la Laguna	12	San Juan la Laguna	1	Enero	2023-01-13T00:00:00	2024-11-08T03:00:00	3	Temperatura mínima	13.7
30476	7	Sololá	717	San Juan la Laguna	12	San Juan la Laguna	1	Enero	2023-01-13T00:00:00	2024-11-08T03:00:00	5	Humedad	82
30477	7	Sololá	717	San Juan la Laguna	12	San Juan la Laguna	1	Enero	2023-01-13T00:00:00	2024-11-08T03:00:00	6	Velocidad del viento	4.8
30478	7	Sololá	717	San Juan la Laguna	12	San Juan la Laguna	1	Enero	2023-01-13T00:00:00	2024-11-08T03:00:00	7	Dirección del viento	4.83
30479	7	Sololá	717	San Juan la Laguna	12	San Juan la Laguna	1	Enero	2023-01-13T00:00:00	2024-11-08T03:00:00	1	Precipitación	0
30480	7	Sololá	717	San Juan la Laguna	12	San Juan la Laguna	1	Enero	2023-01-13T00:00:00	2024-11-08T03:00:00	8	Radiación solar	0
30481	7	Sololá	717	San Juan la Laguna	12	San Juan la Laguna	1	Enero	2023-01-13T00:00:00	2024-11-08T04:00:00	2	Temperatura media	13.2
30482	7	Sololá	717	San Juan la Laguna	12	San Juan la Laguna	1	Enero	2023-01-13T00:00:00	2024-11-08T04:00:00	4	Temperatura máxima	13.8
30483	7	Sololá	717	San Juan la Laguna	12	San Juan la Laguna	1	Enero	2023-01-13T00:00:00	2024-11-08T04:00:00	3	Temperatura mínima	13.2
30484	7	Sololá	717	San Juan la Laguna	12	San Juan la Laguna	1	Enero	2023-01-13T00:00:00	2024-11-08T04:00:00	5	Humedad	82
30485	7	Sololá	717	San Juan la Laguna	12	San Juan la Laguna	1	Enero	2023-01-13T00:00:00	2024-11-08T04:00:00	6	Velocidad del viento	4.8
30486	7	Sololá	717	San Juan la Laguna	12	San Juan la Laguna	1	Enero	2023-01-13T00:00:00	2024-11-08T04:00:00	7	Dirección del viento	4.83
30487	7	Sololá	717	San Juan la Laguna	12	San Juan la Laguna	1	Enero	2023-01-13T00:00:00	2024-11-08T04:00:00	1	Precipitación	0
30488	7	Sololá	717	San Juan la Laguna	12	San Juan la Laguna	1	Enero	2023-01-13T00:00:00	2024-11-08T04:00:00	8	Radiación solar	0
30489	7	Sololá	717	San Juan la Laguna	12	San Juan la Laguna	1	Enero	2023-01-13T00:00:00	2024-11-08T05:00:00	2	Temperatura media	12.9
30490	7	Sololá	717	San Juan la Laguna	12	San Juan la Laguna	1	Enero	2023-01-13T00:00:00	2024-11-08T05:00:00	4	Temperatura máxima	13.2
30491	7	Sololá	717	San Juan la Laguna	12	San Juan la Laguna	1	Enero	2023-01-13T00:00:00	2024-11-08T05:00:00	3	Temperatura mínima	12.9
30492	7	Sololá	717	San Juan la Laguna	12	San Juan la Laguna	1	Enero	2023-01-13T00:00:00	2024-11-08T05:00:00	5	Humedad	82
30493	7	Sololá	717	San Juan la Laguna	12	San Juan la Laguna	1	Enero	2023-01-13T00:00:00	2024-11-08T05:00:00	6	Velocidad del viento	3.2
30494	7	Sololá	717	San Juan la Laguna	12	San Juan la Laguna	1	Enero	2023-01-13T00:00:00	2024-11-08T05:00:00	7	Dirección del viento	3.22
30495	7	Sololá	717	San Juan la Laguna	12	San Juan la Laguna	1	Enero	2023-01-13T00:00:00	2024-11-08T05:00:00	1	Precipitación	0
30496	7	Sololá	717	San Juan la Laguna	12	San Juan la Laguna	1	Enero	2023-01-13T00:00:00	2024-11-08T05:00:00	8	Radiación solar	0
30497	7	Sololá	717	San Juan la Laguna	12	San Juan la Laguna	1	Enero	2023-01-13T00:00:00	2024-11-08T06:00:00	2	Temperatura media	12.5
30498	7	Sololá	717	San Juan la Laguna	12	San Juan la Laguna	1	Enero	2023-01-13T00:00:00	2024-11-08T06:00:00	4	Temperatura máxima	13.1
30499	7	Sololá	717	San Juan la Laguna	12	San Juan la Laguna	1	Enero	2023-01-13T00:00:00	2024-11-08T06:00:00	3	Temperatura mínima	12.5
30500	7	Sololá	717	San Juan la Laguna	12	San Juan la Laguna	1	Enero	2023-01-13T00:00:00	2024-11-08T06:00:00	5	Humedad	82
30501	7	Sololá	717	San Juan la Laguna	12	San Juan la Laguna	1	Enero	2023-01-13T00:00:00	2024-11-08T06:00:00	6	Velocidad del viento	6.4
30502	7	Sololá	717	San Juan la Laguna	12	San Juan la Laguna	1	Enero	2023-01-13T00:00:00	2024-11-08T06:00:00	7	Dirección del viento	6.44
30503	7	Sololá	717	San Juan la Laguna	12	San Juan la Laguna	1	Enero	2023-01-13T00:00:00	2024-11-08T06:00:00	1	Precipitación	0
30504	7	Sololá	717	San Juan la Laguna	12	San Juan la Laguna	1	Enero	2023-01-13T00:00:00	2024-11-08T06:00:00	8	Radiación solar	0
30505	7	Sololá	717	San Juan la Laguna	12	San Juan la Laguna	1	Enero	2023-01-13T00:00:00	2024-11-08T07:00:00	2	Temperatura media	12.9
30506	7	Sololá	717	San Juan la Laguna	12	San Juan la Laguna	1	Enero	2023-01-13T00:00:00	2024-11-08T07:00:00	4	Temperatura máxima	13.1
30507	7	Sololá	717	San Juan la Laguna	12	San Juan la Laguna	1	Enero	2023-01-13T00:00:00	2024-11-08T07:00:00	3	Temperatura mínima	12.3
30508	7	Sololá	717	San Juan la Laguna	12	San Juan la Laguna	1	Enero	2023-01-13T00:00:00	2024-11-08T07:00:00	5	Humedad	80
30509	7	Sololá	717	San Juan la Laguna	12	San Juan la Laguna	1	Enero	2023-01-13T00:00:00	2024-11-08T07:00:00	6	Velocidad del viento	4.8
30510	7	Sololá	717	San Juan la Laguna	12	San Juan la Laguna	1	Enero	2023-01-13T00:00:00	2024-11-08T07:00:00	7	Dirección del viento	4.83
30511	7	Sololá	717	San Juan la Laguna	12	San Juan la Laguna	1	Enero	2023-01-13T00:00:00	2024-11-08T07:00:00	1	Precipitación	0
30512	7	Sololá	717	San Juan la Laguna	12	San Juan la Laguna	1	Enero	2023-01-13T00:00:00	2024-11-08T07:00:00	8	Radiación solar	4
30513	7	Sololá	717	San Juan la Laguna	12	San Juan la Laguna	1	Enero	2023-01-13T00:00:00	2024-11-08T08:00:00	2	Temperatura media	17.7
30514	7	Sololá	717	San Juan la Laguna	12	San Juan la Laguna	1	Enero	2023-01-13T00:00:00	2024-11-08T08:00:00	4	Temperatura máxima	17.7
30515	7	Sololá	717	San Juan la Laguna	12	San Juan la Laguna	1	Enero	2023-01-13T00:00:00	2024-11-08T08:00:00	3	Temperatura mínima	12.8
30516	7	Sololá	717	San Juan la Laguna	12	San Juan la Laguna	1	Enero	2023-01-13T00:00:00	2024-11-08T08:00:00	5	Humedad	69
30517	7	Sololá	717	San Juan la Laguna	12	San Juan la Laguna	1	Enero	2023-01-13T00:00:00	2024-11-08T08:00:00	6	Velocidad del viento	3.2
30518	7	Sololá	717	San Juan la Laguna	12	San Juan la Laguna	1	Enero	2023-01-13T00:00:00	2024-11-08T08:00:00	7	Dirección del viento	3.22
30519	7	Sololá	717	San Juan la Laguna	12	San Juan la Laguna	1	Enero	2023-01-13T00:00:00	2024-11-08T08:00:00	1	Precipitación	0
30520	7	Sololá	717	San Juan la Laguna	12	San Juan la Laguna	1	Enero	2023-01-13T00:00:00	2024-11-08T08:00:00	8	Radiación solar	124
30521	7	Sololá	717	San Juan la Laguna	12	San Juan la Laguna	1	Enero	2023-01-13T00:00:00	2024-11-08T09:00:00	2	Temperatura media	20.5
30522	7	Sololá	717	San Juan la Laguna	12	San Juan la Laguna	1	Enero	2023-01-13T00:00:00	2024-11-08T09:00:00	4	Temperatura máxima	20.5
30523	7	Sololá	717	San Juan la Laguna	12	San Juan la Laguna	1	Enero	2023-01-13T00:00:00	2024-11-08T09:00:00	3	Temperatura mínima	17.7
30524	7	Sololá	717	San Juan la Laguna	12	San Juan la Laguna	1	Enero	2023-01-13T00:00:00	2024-11-08T09:00:00	5	Humedad	62
30525	7	Sololá	717	San Juan la Laguna	12	San Juan la Laguna	1	Enero	2023-01-13T00:00:00	2024-11-08T09:00:00	6	Velocidad del viento	1.6
30526	7	Sololá	717	San Juan la Laguna	12	San Juan la Laguna	1	Enero	2023-01-13T00:00:00	2024-11-08T09:00:00	7	Dirección del viento	1.61
30527	7	Sololá	717	San Juan la Laguna	12	San Juan la Laguna	1	Enero	2023-01-13T00:00:00	2024-11-08T09:00:00	1	Precipitación	0
30528	7	Sololá	717	San Juan la Laguna	12	San Juan la Laguna	1	Enero	2023-01-13T00:00:00	2024-11-08T09:00:00	8	Radiación solar	341
30529	7	Sololá	717	San Juan la Laguna	12	San Juan la Laguna	1	Enero	2023-01-13T00:00:00	2024-11-08T10:00:00	2	Temperatura media	21.6
30530	7	Sololá	717	San Juan la Laguna	12	San Juan la Laguna	1	Enero	2023-01-13T00:00:00	2024-11-08T10:00:00	4	Temperatura máxima	21.6
30531	7	Sololá	717	San Juan la Laguna	12	San Juan la Laguna	1	Enero	2023-01-13T00:00:00	2024-11-08T10:00:00	3	Temperatura mínima	20.3
30532	7	Sololá	717	San Juan la Laguna	12	San Juan la Laguna	1	Enero	2023-01-13T00:00:00	2024-11-08T10:00:00	5	Humedad	56
30533	7	Sololá	717	San Juan la Laguna	12	San Juan la Laguna	1	Enero	2023-01-13T00:00:00	2024-11-08T10:00:00	6	Velocidad del viento	9.7
30534	7	Sololá	717	San Juan la Laguna	12	San Juan la Laguna	1	Enero	2023-01-13T00:00:00	2024-11-08T10:00:00	7	Dirección del viento	9.66
30535	7	Sololá	717	San Juan la Laguna	12	San Juan la Laguna	1	Enero	2023-01-13T00:00:00	2024-11-08T10:00:00	1	Precipitación	0
30536	7	Sololá	717	San Juan la Laguna	12	San Juan la Laguna	1	Enero	2023-01-13T00:00:00	2024-11-08T10:00:00	8	Radiación solar	532
30537	7	Sololá	717	San Juan la Laguna	12	San Juan la Laguna	1	Enero	2023-01-13T00:00:00	2024-11-08T11:00:00	2	Temperatura media	22.3
30538	7	Sololá	717	San Juan la Laguna	12	San Juan la Laguna	1	Enero	2023-01-13T00:00:00	2024-11-08T11:00:00	4	Temperatura máxima	22.3
30539	7	Sololá	717	San Juan la Laguna	12	San Juan la Laguna	1	Enero	2023-01-13T00:00:00	2024-11-08T11:00:00	3	Temperatura mínima	21.3
30540	7	Sololá	717	San Juan la Laguna	12	San Juan la Laguna	1	Enero	2023-01-13T00:00:00	2024-11-08T11:00:00	5	Humedad	56
30541	7	Sololá	717	San Juan la Laguna	12	San Juan la Laguna	1	Enero	2023-01-13T00:00:00	2024-11-08T11:00:00	6	Velocidad del viento	14.5
30542	7	Sololá	717	San Juan la Laguna	12	San Juan la Laguna	1	Enero	2023-01-13T00:00:00	2024-11-08T11:00:00	7	Dirección del viento	14.48
30543	7	Sololá	717	San Juan la Laguna	12	San Juan la Laguna	1	Enero	2023-01-13T00:00:00	2024-11-08T11:00:00	1	Precipitación	0
30544	7	Sololá	717	San Juan la Laguna	12	San Juan la Laguna	1	Enero	2023-01-13T00:00:00	2024-11-08T11:00:00	8	Radiación solar	642
30545	7	Sololá	717	San Juan la Laguna	12	San Juan la Laguna	1	Enero	2023-01-13T00:00:00	2024-11-08T12:00:00	2	Temperatura media	23.2
30546	7	Sololá	717	San Juan la Laguna	12	San Juan la Laguna	1	Enero	2023-01-13T00:00:00	2024-11-08T12:00:00	4	Temperatura máxima	23.4
30547	7	Sololá	717	San Juan la Laguna	12	San Juan la Laguna	1	Enero	2023-01-13T00:00:00	2024-11-08T12:00:00	3	Temperatura mínima	21.7
30548	7	Sololá	717	San Juan la Laguna	12	San Juan la Laguna	1	Enero	2023-01-13T00:00:00	2024-11-08T12:00:00	5	Humedad	50
30549	7	Sololá	717	San Juan la Laguna	12	San Juan la Laguna	1	Enero	2023-01-13T00:00:00	2024-11-08T12:00:00	6	Velocidad del viento	12.9
30550	7	Sololá	717	San Juan la Laguna	12	San Juan la Laguna	1	Enero	2023-01-13T00:00:00	2024-11-08T12:00:00	7	Dirección del viento	12.87
30551	7	Sololá	717	San Juan la Laguna	12	San Juan la Laguna	1	Enero	2023-01-13T00:00:00	2024-11-08T12:00:00	1	Precipitación	0
30552	7	Sololá	717	San Juan la Laguna	12	San Juan la Laguna	1	Enero	2023-01-13T00:00:00	2024-11-08T12:00:00	8	Radiación solar	735
30553	7	Sololá	717	San Juan la Laguna	12	San Juan la Laguna	1	Enero	2023-01-13T00:00:00	2024-11-08T13:00:00	2	Temperatura media	23.8
30554	7	Sololá	717	San Juan la Laguna	12	San Juan la Laguna	1	Enero	2023-01-13T00:00:00	2024-11-08T13:00:00	4	Temperatura máxima	23.9
30555	7	Sololá	717	San Juan la Laguna	12	San Juan la Laguna	1	Enero	2023-01-13T00:00:00	2024-11-08T13:00:00	3	Temperatura mínima	23.2
30556	7	Sololá	717	San Juan la Laguna	12	San Juan la Laguna	1	Enero	2023-01-13T00:00:00	2024-11-08T13:00:00	5	Humedad	47
30557	7	Sololá	717	San Juan la Laguna	12	San Juan la Laguna	1	Enero	2023-01-13T00:00:00	2024-11-08T13:00:00	6	Velocidad del viento	8
30558	7	Sololá	717	San Juan la Laguna	12	San Juan la Laguna	1	Enero	2023-01-13T00:00:00	2024-11-08T13:00:00	7	Dirección del viento	8.05
30559	7	Sololá	717	San Juan la Laguna	12	San Juan la Laguna	1	Enero	2023-01-13T00:00:00	2024-11-08T13:00:00	1	Precipitación	0
30560	7	Sololá	717	San Juan la Laguna	12	San Juan la Laguna	1	Enero	2023-01-13T00:00:00	2024-11-08T13:00:00	8	Radiación solar	795
30561	7	Sololá	717	San Juan la Laguna	12	San Juan la Laguna	1	Enero	2023-01-13T00:00:00	2024-11-08T14:00:00	2	Temperatura media	23.7
30562	7	Sololá	717	San Juan la Laguna	12	San Juan la Laguna	1	Enero	2023-01-13T00:00:00	2024-11-08T14:00:00	4	Temperatura máxima	24.7
30563	7	Sololá	717	San Juan la Laguna	12	San Juan la Laguna	1	Enero	2023-01-13T00:00:00	2024-11-08T14:00:00	3	Temperatura mínima	23.3
30564	7	Sololá	717	San Juan la Laguna	12	San Juan la Laguna	1	Enero	2023-01-13T00:00:00	2024-11-08T14:00:00	5	Humedad	49
30565	7	Sololá	717	San Juan la Laguna	12	San Juan la Laguna	1	Enero	2023-01-13T00:00:00	2024-11-08T14:00:00	6	Velocidad del viento	9.7
30566	7	Sololá	717	San Juan la Laguna	12	San Juan la Laguna	1	Enero	2023-01-13T00:00:00	2024-11-08T14:00:00	7	Dirección del viento	9.66
30567	7	Sololá	717	San Juan la Laguna	12	San Juan la Laguna	1	Enero	2023-01-13T00:00:00	2024-11-08T14:00:00	1	Precipitación	0
30568	7	Sololá	717	San Juan la Laguna	12	San Juan la Laguna	1	Enero	2023-01-13T00:00:00	2024-11-08T14:00:00	8	Radiación solar	609
30569	7	Sololá	717	San Juan la Laguna	12	San Juan la Laguna	1	Enero	2023-01-13T00:00:00	2024-11-08T15:00:00	2	Temperatura media	22
30570	7	Sololá	717	San Juan la Laguna	12	San Juan la Laguna	1	Enero	2023-01-13T00:00:00	2024-11-08T15:00:00	4	Temperatura máxima	23.8
30571	7	Sololá	717	San Juan la Laguna	12	San Juan la Laguna	1	Enero	2023-01-13T00:00:00	2024-11-08T15:00:00	3	Temperatura mínima	21.6
30572	7	Sololá	717	San Juan la Laguna	12	San Juan la Laguna	1	Enero	2023-01-13T00:00:00	2024-11-08T15:00:00	5	Humedad	52
30573	7	Sololá	717	San Juan la Laguna	12	San Juan la Laguna	1	Enero	2023-01-13T00:00:00	2024-11-08T15:00:00	6	Velocidad del viento	9.7
30574	7	Sololá	717	San Juan la Laguna	12	San Juan la Laguna	1	Enero	2023-01-13T00:00:00	2024-11-08T15:00:00	7	Dirección del viento	9.66
30575	7	Sololá	717	San Juan la Laguna	12	San Juan la Laguna	1	Enero	2023-01-13T00:00:00	2024-11-08T15:00:00	1	Precipitación	0
30576	7	Sololá	717	San Juan la Laguna	12	San Juan la Laguna	1	Enero	2023-01-13T00:00:00	2024-11-08T15:00:00	8	Radiación solar	200
30577	7	Sololá	717	San Juan la Laguna	12	San Juan la Laguna	1	Enero	2023-01-13T00:00:00	2024-11-08T16:00:00	2	Temperatura media	22.1
30578	7	Sololá	717	San Juan la Laguna	12	San Juan la Laguna	1	Enero	2023-01-13T00:00:00	2024-11-08T16:00:00	4	Temperatura máxima	22.7
30579	7	Sololá	717	San Juan la Laguna	12	San Juan la Laguna	1	Enero	2023-01-13T00:00:00	2024-11-08T16:00:00	3	Temperatura mínima	21.9
30580	7	Sololá	717	San Juan la Laguna	12	San Juan la Laguna	1	Enero	2023-01-13T00:00:00	2024-11-08T16:00:00	5	Humedad	50
30581	7	Sololá	717	San Juan la Laguna	12	San Juan la Laguna	1	Enero	2023-01-13T00:00:00	2024-11-08T16:00:00	6	Velocidad del viento	11.3
30582	7	Sololá	717	San Juan la Laguna	12	San Juan la Laguna	1	Enero	2023-01-13T00:00:00	2024-11-08T16:00:00	7	Dirección del viento	11.27
30583	7	Sololá	717	San Juan la Laguna	12	San Juan la Laguna	1	Enero	2023-01-13T00:00:00	2024-11-08T16:00:00	1	Precipitación	0
30584	7	Sololá	717	San Juan la Laguna	12	San Juan la Laguna	1	Enero	2023-01-13T00:00:00	2024-11-08T16:00:00	8	Radiación solar	289
30585	7	Sololá	717	San Juan la Laguna	12	San Juan la Laguna	1	Enero	2023-01-13T00:00:00	2024-11-08T17:00:00	2	Temperatura media	19.6
30586	7	Sololá	717	San Juan la Laguna	12	San Juan la Laguna	1	Enero	2023-01-13T00:00:00	2024-11-08T17:00:00	4	Temperatura máxima	22.1
30587	7	Sololá	717	San Juan la Laguna	12	San Juan la Laguna	1	Enero	2023-01-13T00:00:00	2024-11-08T17:00:00	3	Temperatura mínima	19.6
30588	7	Sololá	717	San Juan la Laguna	12	San Juan la Laguna	1	Enero	2023-01-13T00:00:00	2024-11-08T17:00:00	5	Humedad	63
30589	7	Sololá	717	San Juan la Laguna	12	San Juan la Laguna	1	Enero	2023-01-13T00:00:00	2024-11-08T17:00:00	6	Velocidad del viento	12.9
30590	7	Sololá	717	San Juan la Laguna	12	San Juan la Laguna	1	Enero	2023-01-13T00:00:00	2024-11-08T17:00:00	7	Dirección del viento	12.87
30591	7	Sololá	717	San Juan la Laguna	12	San Juan la Laguna	1	Enero	2023-01-13T00:00:00	2024-11-08T17:00:00	1	Precipitación	0
30592	7	Sololá	717	San Juan la Laguna	12	San Juan la Laguna	1	Enero	2023-01-13T00:00:00	2024-11-08T17:00:00	8	Radiación solar	77
30593	7	Sololá	717	San Juan la Laguna	12	San Juan la Laguna	1	Enero	2023-01-13T00:00:00	2024-11-08T18:00:00	2	Temperatura media	18.3
30594	7	Sololá	717	San Juan la Laguna	12	San Juan la Laguna	1	Enero	2023-01-13T00:00:00	2024-11-08T18:00:00	4	Temperatura máxima	19.6
30595	7	Sololá	717	San Juan la Laguna	12	San Juan la Laguna	1	Enero	2023-01-13T00:00:00	2024-11-08T18:00:00	3	Temperatura mínima	18.3
30596	7	Sololá	717	San Juan la Laguna	12	San Juan la Laguna	1	Enero	2023-01-13T00:00:00	2024-11-08T18:00:00	5	Humedad	67
30597	7	Sololá	717	San Juan la Laguna	12	San Juan la Laguna	1	Enero	2023-01-13T00:00:00	2024-11-08T18:00:00	6	Velocidad del viento	14.5
30598	7	Sololá	717	San Juan la Laguna	12	San Juan la Laguna	1	Enero	2023-01-13T00:00:00	2024-11-08T18:00:00	7	Dirección del viento	14.48
30599	7	Sololá	717	San Juan la Laguna	12	San Juan la Laguna	1	Enero	2023-01-13T00:00:00	2024-11-08T18:00:00	1	Precipitación	0
30600	7	Sololá	717	San Juan la Laguna	12	San Juan la Laguna	1	Enero	2023-01-13T00:00:00	2024-11-08T18:00:00	8	Radiación solar	30
30601	7	Sololá	717	San Juan la Laguna	12	San Juan la Laguna	1	Enero	2023-01-13T00:00:00	2024-11-08T19:00:00	2	Temperatura media	18
30602	7	Sololá	717	San Juan la Laguna	12	San Juan la Laguna	1	Enero	2023-01-13T00:00:00	2024-11-08T19:00:00	4	Temperatura máxima	18.3
30603	7	Sololá	717	San Juan la Laguna	12	San Juan la Laguna	1	Enero	2023-01-13T00:00:00	2024-11-08T19:00:00	3	Temperatura mínima	17.9
30604	7	Sololá	717	San Juan la Laguna	12	San Juan la Laguna	1	Enero	2023-01-13T00:00:00	2024-11-08T19:00:00	5	Humedad	67
30605	7	Sololá	717	San Juan la Laguna	12	San Juan la Laguna	1	Enero	2023-01-13T00:00:00	2024-11-08T19:00:00	6	Velocidad del viento	9.7
30606	7	Sololá	717	San Juan la Laguna	12	San Juan la Laguna	1	Enero	2023-01-13T00:00:00	2024-11-08T19:00:00	7	Dirección del viento	9.66
30607	7	Sololá	717	San Juan la Laguna	12	San Juan la Laguna	1	Enero	2023-01-13T00:00:00	2024-11-08T19:00:00	1	Precipitación	0
30608	7	Sololá	717	San Juan la Laguna	12	San Juan la Laguna	1	Enero	2023-01-13T00:00:00	2024-11-08T19:00:00	8	Radiación solar	0
30609	7	Sololá	717	San Juan la Laguna	12	San Juan la Laguna	1	Enero	2023-01-13T00:00:00	2024-11-08T20:00:00	2	Temperatura media	17.4
30610	7	Sololá	717	San Juan la Laguna	12	San Juan la Laguna	1	Enero	2023-01-13T00:00:00	2024-11-08T20:00:00	4	Temperatura máxima	18.2
30611	7	Sololá	717	San Juan la Laguna	12	San Juan la Laguna	1	Enero	2023-01-13T00:00:00	2024-11-08T20:00:00	3	Temperatura mínima	17.4
30612	7	Sololá	717	San Juan la Laguna	12	San Juan la Laguna	1	Enero	2023-01-13T00:00:00	2024-11-08T20:00:00	5	Humedad	69
30613	7	Sololá	717	San Juan la Laguna	12	San Juan la Laguna	1	Enero	2023-01-13T00:00:00	2024-11-08T20:00:00	6	Velocidad del viento	4.8
30614	7	Sololá	717	San Juan la Laguna	12	San Juan la Laguna	1	Enero	2023-01-13T00:00:00	2024-11-08T20:00:00	7	Dirección del viento	4.83
30615	7	Sololá	717	San Juan la Laguna	12	San Juan la Laguna	1	Enero	2023-01-13T00:00:00	2024-11-08T20:00:00	1	Precipitación	0
30616	7	Sololá	717	San Juan la Laguna	12	San Juan la Laguna	1	Enero	2023-01-13T00:00:00	2024-11-08T20:00:00	8	Radiación solar	0
30617	7	Sololá	717	San Juan la Laguna	12	San Juan la Laguna	1	Enero	2023-01-13T00:00:00	2024-11-08T21:00:00	2	Temperatura media	17.3
30618	7	Sololá	717	San Juan la Laguna	12	San Juan la Laguna	1	Enero	2023-01-13T00:00:00	2024-11-08T21:00:00	4	Temperatura máxima	17.7
30619	7	Sololá	717	San Juan la Laguna	12	San Juan la Laguna	1	Enero	2023-01-13T00:00:00	2024-11-08T21:00:00	3	Temperatura mínima	16.3
30620	7	Sololá	717	San Juan la Laguna	12	San Juan la Laguna	1	Enero	2023-01-13T00:00:00	2024-11-08T21:00:00	5	Humedad	69
30621	7	Sololá	717	San Juan la Laguna	12	San Juan la Laguna	1	Enero	2023-01-13T00:00:00	2024-11-08T21:00:00	6	Velocidad del viento	3.2
30622	7	Sololá	717	San Juan la Laguna	12	San Juan la Laguna	1	Enero	2023-01-13T00:00:00	2024-11-08T21:00:00	7	Dirección del viento	3.22
30623	7	Sololá	717	San Juan la Laguna	12	San Juan la Laguna	1	Enero	2023-01-13T00:00:00	2024-11-08T21:00:00	1	Precipitación	0
30624	7	Sololá	717	San Juan la Laguna	12	San Juan la Laguna	1	Enero	2023-01-13T00:00:00	2024-11-08T21:00:00	8	Radiación solar	0
30625	7	Sololá	717	San Juan la Laguna	12	San Juan la Laguna	1	Enero	2023-01-13T00:00:00	2024-11-08T22:00:00	2	Temperatura media	17.2
30626	7	Sololá	717	San Juan la Laguna	12	San Juan la Laguna	1	Enero	2023-01-13T00:00:00	2024-11-08T22:00:00	4	Temperatura máxima	17.3
30627	7	Sololá	717	San Juan la Laguna	12	San Juan la Laguna	1	Enero	2023-01-13T00:00:00	2024-11-08T22:00:00	3	Temperatura mínima	16.4
30628	7	Sololá	717	San Juan la Laguna	12	San Juan la Laguna	1	Enero	2023-01-13T00:00:00	2024-11-08T22:00:00	5	Humedad	66
30629	7	Sololá	717	San Juan la Laguna	12	San Juan la Laguna	1	Enero	2023-01-13T00:00:00	2024-11-08T22:00:00	6	Velocidad del viento	6.4
30630	7	Sololá	717	San Juan la Laguna	12	San Juan la Laguna	1	Enero	2023-01-13T00:00:00	2024-11-08T22:00:00	7	Dirección del viento	6.44
30631	7	Sololá	717	San Juan la Laguna	12	San Juan la Laguna	1	Enero	2023-01-13T00:00:00	2024-11-08T22:00:00	1	Precipitación	0
30632	7	Sololá	717	San Juan la Laguna	12	San Juan la Laguna	1	Enero	2023-01-13T00:00:00	2024-11-08T22:00:00	8	Radiación solar	0
30633	7	Sololá	717	San Juan la Laguna	12	San Juan la Laguna	1	Enero	2023-01-13T00:00:00	2024-11-08T23:00:00	2	Temperatura media	17
30634	7	Sololá	717	San Juan la Laguna	12	San Juan la Laguna	1	Enero	2023-01-13T00:00:00	2024-11-08T23:00:00	4	Temperatura máxima	17.3
30635	7	Sololá	717	San Juan la Laguna	12	San Juan la Laguna	1	Enero	2023-01-13T00:00:00	2024-11-08T23:00:00	3	Temperatura mínima	16.8
30636	7	Sololá	717	San Juan la Laguna	12	San Juan la Laguna	1	Enero	2023-01-13T00:00:00	2024-11-08T23:00:00	5	Humedad	65
30637	7	Sololá	717	San Juan la Laguna	12	San Juan la Laguna	1	Enero	2023-01-13T00:00:00	2024-11-08T23:00:00	6	Velocidad del viento	6.4
30638	7	Sololá	717	San Juan la Laguna	12	San Juan la Laguna	1	Enero	2023-01-13T00:00:00	2024-11-08T23:00:00	7	Dirección del viento	6.44
30639	7	Sololá	717	San Juan la Laguna	12	San Juan la Laguna	1	Enero	2023-01-13T00:00:00	2024-11-08T23:00:00	1	Precipitación	0
30640	7	Sololá	717	San Juan la Laguna	12	San Juan la Laguna	1	Enero	2023-01-13T00:00:00	2024-11-08T23:00:00	8	Radiación solar	0
30641	7	Sololá	717	San Juan la Laguna	12	San Juan la Laguna	1	Enero	2023-01-14T00:00:00	2024-11-08T00:00:00	2	Temperatura media	16.5
30642	7	Sololá	717	San Juan la Laguna	12	San Juan la Laguna	1	Enero	2023-01-14T00:00:00	2024-11-08T00:00:00	4	Temperatura máxima	17.1
30643	7	Sololá	717	San Juan la Laguna	12	San Juan la Laguna	1	Enero	2023-01-14T00:00:00	2024-11-08T00:00:00	3	Temperatura mínima	15.7
30644	7	Sololá	717	San Juan la Laguna	12	San Juan la Laguna	1	Enero	2023-01-14T00:00:00	2024-11-08T00:00:00	5	Humedad	65
30645	7	Sololá	717	San Juan la Laguna	12	San Juan la Laguna	1	Enero	2023-01-14T00:00:00	2024-11-08T00:00:00	6	Velocidad del viento	3.2
30646	7	Sololá	717	San Juan la Laguna	12	San Juan la Laguna	1	Enero	2023-01-14T00:00:00	2024-11-08T00:00:00	7	Dirección del viento	3.22
30647	7	Sololá	717	San Juan la Laguna	12	San Juan la Laguna	1	Enero	2023-01-14T00:00:00	2024-11-08T00:00:00	1	Precipitación	0
30648	7	Sololá	717	San Juan la Laguna	12	San Juan la Laguna	1	Enero	2023-01-14T00:00:00	2024-11-08T00:00:00	8	Radiación solar	0
30649	7	Sololá	717	San Juan la Laguna	12	San Juan la Laguna	1	Enero	2023-01-14T00:00:00	2024-11-08T01:00:00	2	Temperatura media	14.9
30650	7	Sololá	717	San Juan la Laguna	12	San Juan la Laguna	1	Enero	2023-01-14T00:00:00	2024-11-08T01:00:00	4	Temperatura máxima	16.7
30651	7	Sololá	717	San Juan la Laguna	12	San Juan la Laguna	1	Enero	2023-01-14T00:00:00	2024-11-08T01:00:00	3	Temperatura mínima	14.9
30652	7	Sololá	717	San Juan la Laguna	12	San Juan la Laguna	1	Enero	2023-01-14T00:00:00	2024-11-08T01:00:00	5	Humedad	70
30653	7	Sololá	717	San Juan la Laguna	12	San Juan la Laguna	1	Enero	2023-01-14T00:00:00	2024-11-08T01:00:00	6	Velocidad del viento	4.8
30654	7	Sololá	717	San Juan la Laguna	12	San Juan la Laguna	1	Enero	2023-01-14T00:00:00	2024-11-08T01:00:00	7	Dirección del viento	4.83
30655	7	Sololá	717	San Juan la Laguna	12	San Juan la Laguna	1	Enero	2023-01-14T00:00:00	2024-11-08T01:00:00	1	Precipitación	0
30656	7	Sololá	717	San Juan la Laguna	12	San Juan la Laguna	1	Enero	2023-01-14T00:00:00	2024-11-08T01:00:00	8	Radiación solar	0
30657	7	Sololá	717	San Juan la Laguna	12	San Juan la Laguna	1	Enero	2023-01-14T00:00:00	2024-11-08T02:00:00	2	Temperatura media	13.4
30658	7	Sololá	717	San Juan la Laguna	12	San Juan la Laguna	1	Enero	2023-01-14T00:00:00	2024-11-08T02:00:00	4	Temperatura máxima	14.9
30659	7	Sololá	717	San Juan la Laguna	12	San Juan la Laguna	1	Enero	2023-01-14T00:00:00	2024-11-08T02:00:00	3	Temperatura mínima	13.4
30660	7	Sololá	717	San Juan la Laguna	12	San Juan la Laguna	1	Enero	2023-01-14T00:00:00	2024-11-08T02:00:00	5	Humedad	76
30661	7	Sololá	717	San Juan la Laguna	12	San Juan la Laguna	1	Enero	2023-01-14T00:00:00	2024-11-08T02:00:00	6	Velocidad del viento	3.2
30662	7	Sololá	717	San Juan la Laguna	12	San Juan la Laguna	1	Enero	2023-01-14T00:00:00	2024-11-08T02:00:00	7	Dirección del viento	3.22
30663	7	Sololá	717	San Juan la Laguna	12	San Juan la Laguna	1	Enero	2023-01-14T00:00:00	2024-11-08T02:00:00	1	Precipitación	0
30664	7	Sololá	717	San Juan la Laguna	12	San Juan la Laguna	1	Enero	2023-01-14T00:00:00	2024-11-08T02:00:00	8	Radiación solar	0
30665	7	Sololá	717	San Juan la Laguna	12	San Juan la Laguna	1	Enero	2023-01-14T00:00:00	2024-11-08T03:00:00	2	Temperatura media	13.6
30666	7	Sololá	717	San Juan la Laguna	12	San Juan la Laguna	1	Enero	2023-01-14T00:00:00	2024-11-08T03:00:00	4	Temperatura máxima	13.6
30667	7	Sololá	717	San Juan la Laguna	12	San Juan la Laguna	1	Enero	2023-01-14T00:00:00	2024-11-08T03:00:00	3	Temperatura mínima	12.7
30668	7	Sololá	717	San Juan la Laguna	12	San Juan la Laguna	1	Enero	2023-01-14T00:00:00	2024-11-08T03:00:00	5	Humedad	76
30669	7	Sololá	717	San Juan la Laguna	12	San Juan la Laguna	1	Enero	2023-01-14T00:00:00	2024-11-08T03:00:00	6	Velocidad del viento	4.8
30670	7	Sololá	717	San Juan la Laguna	12	San Juan la Laguna	1	Enero	2023-01-14T00:00:00	2024-11-08T03:00:00	7	Dirección del viento	4.83
30671	7	Sololá	717	San Juan la Laguna	12	San Juan la Laguna	1	Enero	2023-01-14T00:00:00	2024-11-08T03:00:00	1	Precipitación	0
30672	7	Sololá	717	San Juan la Laguna	12	San Juan la Laguna	1	Enero	2023-01-14T00:00:00	2024-11-08T03:00:00	8	Radiación solar	0
30673	7	Sololá	717	San Juan la Laguna	12	San Juan la Laguna	1	Enero	2023-01-14T00:00:00	2024-11-08T04:00:00	2	Temperatura media	15.1
30674	7	Sololá	717	San Juan la Laguna	12	San Juan la Laguna	1	Enero	2023-01-14T00:00:00	2024-11-08T04:00:00	4	Temperatura máxima	16.3
30675	7	Sololá	717	San Juan la Laguna	12	San Juan la Laguna	1	Enero	2023-01-14T00:00:00	2024-11-08T04:00:00	3	Temperatura mínima	13.5
30676	7	Sololá	717	San Juan la Laguna	12	San Juan la Laguna	1	Enero	2023-01-14T00:00:00	2024-11-08T04:00:00	5	Humedad	68
30677	7	Sololá	717	San Juan la Laguna	12	San Juan la Laguna	1	Enero	2023-01-14T00:00:00	2024-11-08T04:00:00	6	Velocidad del viento	3.2
30678	7	Sololá	717	San Juan la Laguna	12	San Juan la Laguna	1	Enero	2023-01-14T00:00:00	2024-11-08T04:00:00	7	Dirección del viento	3.22
30679	7	Sololá	717	San Juan la Laguna	12	San Juan la Laguna	1	Enero	2023-01-14T00:00:00	2024-11-08T04:00:00	1	Precipitación	0
30680	7	Sololá	717	San Juan la Laguna	12	San Juan la Laguna	1	Enero	2023-01-14T00:00:00	2024-11-08T04:00:00	8	Radiación solar	0
30681	7	Sololá	717	San Juan la Laguna	12	San Juan la Laguna	1	Enero	2023-01-14T00:00:00	2024-11-08T05:00:00	2	Temperatura media	14.9
30682	7	Sololá	717	San Juan la Laguna	12	San Juan la Laguna	1	Enero	2023-01-14T00:00:00	2024-11-08T05:00:00	4	Temperatura máxima	15.6
30683	7	Sololá	717	San Juan la Laguna	12	San Juan la Laguna	1	Enero	2023-01-14T00:00:00	2024-11-08T05:00:00	3	Temperatura mínima	13.8
30684	7	Sololá	717	San Juan la Laguna	12	San Juan la Laguna	1	Enero	2023-01-14T00:00:00	2024-11-08T05:00:00	5	Humedad	68
30685	7	Sololá	717	San Juan la Laguna	12	San Juan la Laguna	1	Enero	2023-01-14T00:00:00	2024-11-08T05:00:00	6	Velocidad del viento	3.2
30686	7	Sololá	717	San Juan la Laguna	12	San Juan la Laguna	1	Enero	2023-01-14T00:00:00	2024-11-08T05:00:00	7	Dirección del viento	3.22
30687	7	Sololá	717	San Juan la Laguna	12	San Juan la Laguna	1	Enero	2023-01-14T00:00:00	2024-11-08T05:00:00	1	Precipitación	0
30688	7	Sololá	717	San Juan la Laguna	12	San Juan la Laguna	1	Enero	2023-01-14T00:00:00	2024-11-08T05:00:00	8	Radiación solar	0
30689	7	Sololá	717	San Juan la Laguna	12	San Juan la Laguna	1	Enero	2023-01-14T00:00:00	2024-11-08T06:00:00	2	Temperatura media	14.9
30690	7	Sololá	717	San Juan la Laguna	12	San Juan la Laguna	1	Enero	2023-01-14T00:00:00	2024-11-08T06:00:00	4	Temperatura máxima	14.9
30691	7	Sololá	717	San Juan la Laguna	12	San Juan la Laguna	1	Enero	2023-01-14T00:00:00	2024-11-08T06:00:00	3	Temperatura mínima	13.4
30692	7	Sololá	717	San Juan la Laguna	12	San Juan la Laguna	1	Enero	2023-01-14T00:00:00	2024-11-08T06:00:00	5	Humedad	71
30693	7	Sololá	717	San Juan la Laguna	12	San Juan la Laguna	1	Enero	2023-01-14T00:00:00	2024-11-08T06:00:00	6	Velocidad del viento	3.2
30694	7	Sololá	717	San Juan la Laguna	12	San Juan la Laguna	1	Enero	2023-01-14T00:00:00	2024-11-08T06:00:00	7	Dirección del viento	3.22
30695	7	Sololá	717	San Juan la Laguna	12	San Juan la Laguna	1	Enero	2023-01-14T00:00:00	2024-11-08T06:00:00	1	Precipitación	0
30696	7	Sololá	717	San Juan la Laguna	12	San Juan la Laguna	1	Enero	2023-01-14T00:00:00	2024-11-08T06:00:00	8	Radiación solar	0
30697	7	Sololá	717	San Juan la Laguna	12	San Juan la Laguna	1	Enero	2023-01-14T00:00:00	2024-11-08T07:00:00	2	Temperatura media	14.9
30698	7	Sololá	717	San Juan la Laguna	12	San Juan la Laguna	1	Enero	2023-01-14T00:00:00	2024-11-08T07:00:00	4	Temperatura máxima	15.6
30699	7	Sololá	717	San Juan la Laguna	12	San Juan la Laguna	1	Enero	2023-01-14T00:00:00	2024-11-08T07:00:00	3	Temperatura mínima	14.3
30700	7	Sololá	717	San Juan la Laguna	12	San Juan la Laguna	1	Enero	2023-01-14T00:00:00	2024-11-08T07:00:00	5	Humedad	71
30701	7	Sololá	717	San Juan la Laguna	12	San Juan la Laguna	1	Enero	2023-01-14T00:00:00	2024-11-08T07:00:00	6	Velocidad del viento	3.2
30702	7	Sololá	717	San Juan la Laguna	12	San Juan la Laguna	1	Enero	2023-01-14T00:00:00	2024-11-08T07:00:00	7	Dirección del viento	3.22
30703	7	Sololá	717	San Juan la Laguna	12	San Juan la Laguna	1	Enero	2023-01-14T00:00:00	2024-11-08T07:00:00	1	Precipitación	0
30704	7	Sololá	717	San Juan la Laguna	12	San Juan la Laguna	1	Enero	2023-01-14T00:00:00	2024-11-08T07:00:00	8	Radiación solar	4
30705	7	Sololá	717	San Juan la Laguna	12	San Juan la Laguna	1	Enero	2023-01-14T00:00:00	2024-11-08T08:00:00	2	Temperatura media	17.8
30706	7	Sololá	717	San Juan la Laguna	12	San Juan la Laguna	1	Enero	2023-01-14T00:00:00	2024-11-08T08:00:00	4	Temperatura máxima	17.8
30707	7	Sololá	717	San Juan la Laguna	12	San Juan la Laguna	1	Enero	2023-01-14T00:00:00	2024-11-08T08:00:00	3	Temperatura mínima	14.9
30708	7	Sololá	717	San Juan la Laguna	12	San Juan la Laguna	1	Enero	2023-01-14T00:00:00	2024-11-08T08:00:00	5	Humedad	63
30709	7	Sololá	717	San Juan la Laguna	12	San Juan la Laguna	1	Enero	2023-01-14T00:00:00	2024-11-08T08:00:00	6	Velocidad del viento	3.2
30710	7	Sololá	717	San Juan la Laguna	12	San Juan la Laguna	1	Enero	2023-01-14T00:00:00	2024-11-08T08:00:00	7	Dirección del viento	3.22
30711	7	Sololá	717	San Juan la Laguna	12	San Juan la Laguna	1	Enero	2023-01-14T00:00:00	2024-11-08T08:00:00	1	Precipitación	0
30712	7	Sololá	717	San Juan la Laguna	12	San Juan la Laguna	1	Enero	2023-01-14T00:00:00	2024-11-08T08:00:00	8	Radiación solar	125
30713	7	Sololá	717	San Juan la Laguna	12	San Juan la Laguna	1	Enero	2023-01-14T00:00:00	2024-11-08T09:00:00	2	Temperatura media	19
30714	7	Sololá	717	San Juan la Laguna	12	San Juan la Laguna	1	Enero	2023-01-14T00:00:00	2024-11-08T09:00:00	4	Temperatura máxima	19.7
30715	7	Sololá	717	San Juan la Laguna	12	San Juan la Laguna	1	Enero	2023-01-14T00:00:00	2024-11-08T09:00:00	3	Temperatura mínima	17.8
30716	7	Sololá	717	San Juan la Laguna	12	San Juan la Laguna	1	Enero	2023-01-14T00:00:00	2024-11-08T09:00:00	5	Humedad	59
30717	7	Sololá	717	San Juan la Laguna	12	San Juan la Laguna	1	Enero	2023-01-14T00:00:00	2024-11-08T09:00:00	6	Velocidad del viento	6.4
30718	7	Sololá	717	San Juan la Laguna	12	San Juan la Laguna	1	Enero	2023-01-14T00:00:00	2024-11-08T09:00:00	7	Dirección del viento	6.44
30719	7	Sololá	717	San Juan la Laguna	12	San Juan la Laguna	1	Enero	2023-01-14T00:00:00	2024-11-08T09:00:00	1	Precipitación	0
30720	7	Sololá	717	San Juan la Laguna	12	San Juan la Laguna	1	Enero	2023-01-14T00:00:00	2024-11-08T09:00:00	8	Radiación solar	350
30721	7	Sololá	717	San Juan la Laguna	12	San Juan la Laguna	1	Enero	2023-01-14T00:00:00	2024-11-08T10:00:00	2	Temperatura media	20.5
30722	7	Sololá	717	San Juan la Laguna	12	San Juan la Laguna	1	Enero	2023-01-14T00:00:00	2024-11-08T10:00:00	4	Temperatura máxima	20.5
30723	7	Sololá	717	San Juan la Laguna	12	San Juan la Laguna	1	Enero	2023-01-14T00:00:00	2024-11-08T10:00:00	3	Temperatura mínima	18.9
30724	7	Sololá	717	San Juan la Laguna	12	San Juan la Laguna	1	Enero	2023-01-14T00:00:00	2024-11-08T10:00:00	5	Humedad	53
30725	7	Sololá	717	San Juan la Laguna	12	San Juan la Laguna	1	Enero	2023-01-14T00:00:00	2024-11-08T10:00:00	6	Velocidad del viento	9.7
30726	7	Sololá	717	San Juan la Laguna	12	San Juan la Laguna	1	Enero	2023-01-14T00:00:00	2024-11-08T10:00:00	7	Dirección del viento	9.66
30727	7	Sololá	717	San Juan la Laguna	12	San Juan la Laguna	1	Enero	2023-01-14T00:00:00	2024-11-08T10:00:00	1	Precipitación	0
30728	7	Sololá	717	San Juan la Laguna	12	San Juan la Laguna	1	Enero	2023-01-14T00:00:00	2024-11-08T10:00:00	8	Radiación solar	537
30729	7	Sololá	717	San Juan la Laguna	12	San Juan la Laguna	1	Enero	2023-01-14T00:00:00	2024-11-08T11:00:00	2	Temperatura media	21.6
30730	7	Sololá	717	San Juan la Laguna	12	San Juan la Laguna	1	Enero	2023-01-14T00:00:00	2024-11-08T11:00:00	4	Temperatura máxima	21.6
30731	7	Sololá	717	San Juan la Laguna	12	San Juan la Laguna	1	Enero	2023-01-14T00:00:00	2024-11-08T11:00:00	3	Temperatura mínima	20.4
30732	7	Sololá	717	San Juan la Laguna	12	San Juan la Laguna	1	Enero	2023-01-14T00:00:00	2024-11-08T11:00:00	5	Humedad	49
30733	7	Sololá	717	San Juan la Laguna	12	San Juan la Laguna	1	Enero	2023-01-14T00:00:00	2024-11-08T11:00:00	6	Velocidad del viento	11.3
30734	7	Sololá	717	San Juan la Laguna	12	San Juan la Laguna	1	Enero	2023-01-14T00:00:00	2024-11-08T11:00:00	7	Dirección del viento	11.27
30735	7	Sololá	717	San Juan la Laguna	12	San Juan la Laguna	1	Enero	2023-01-14T00:00:00	2024-11-08T11:00:00	1	Precipitación	0
30736	7	Sololá	717	San Juan la Laguna	12	San Juan la Laguna	1	Enero	2023-01-14T00:00:00	2024-11-08T11:00:00	8	Radiación solar	640
30737	7	Sololá	717	San Juan la Laguna	12	San Juan la Laguna	1	Enero	2023-01-14T00:00:00	2024-11-08T12:00:00	2	Temperatura media	22.7
30738	7	Sololá	717	San Juan la Laguna	12	San Juan la Laguna	1	Enero	2023-01-14T00:00:00	2024-11-08T12:00:00	4	Temperatura máxima	22.7
30739	7	Sololá	717	San Juan la Laguna	12	San Juan la Laguna	1	Enero	2023-01-14T00:00:00	2024-11-08T12:00:00	3	Temperatura mínima	21.2
30740	7	Sololá	717	San Juan la Laguna	12	San Juan la Laguna	1	Enero	2023-01-14T00:00:00	2024-11-08T12:00:00	5	Humedad	43
30741	7	Sololá	717	San Juan la Laguna	12	San Juan la Laguna	1	Enero	2023-01-14T00:00:00	2024-11-08T12:00:00	6	Velocidad del viento	11.3
30742	7	Sololá	717	San Juan la Laguna	12	San Juan la Laguna	1	Enero	2023-01-14T00:00:00	2024-11-08T12:00:00	7	Dirección del viento	11.27
30743	7	Sololá	717	San Juan la Laguna	12	San Juan la Laguna	1	Enero	2023-01-14T00:00:00	2024-11-08T12:00:00	1	Precipitación	0
30744	7	Sololá	717	San Juan la Laguna	12	San Juan la Laguna	1	Enero	2023-01-14T00:00:00	2024-11-08T12:00:00	8	Radiación solar	692
30745	7	Sololá	717	San Juan la Laguna	12	San Juan la Laguna	1	Enero	2023-01-14T00:00:00	2024-11-08T13:00:00	2	Temperatura media	23.3
30746	7	Sololá	717	San Juan la Laguna	12	San Juan la Laguna	1	Enero	2023-01-14T00:00:00	2024-11-08T13:00:00	4	Temperatura máxima	23.3
30747	7	Sololá	717	San Juan la Laguna	12	San Juan la Laguna	1	Enero	2023-01-14T00:00:00	2024-11-08T13:00:00	3	Temperatura mínima	22.7
30748	7	Sololá	717	San Juan la Laguna	12	San Juan la Laguna	1	Enero	2023-01-14T00:00:00	2024-11-08T13:00:00	5	Humedad	38
30749	7	Sololá	717	San Juan la Laguna	12	San Juan la Laguna	1	Enero	2023-01-14T00:00:00	2024-11-08T13:00:00	6	Velocidad del viento	8
30750	7	Sololá	717	San Juan la Laguna	12	San Juan la Laguna	1	Enero	2023-01-14T00:00:00	2024-11-08T13:00:00	7	Dirección del viento	8.05
30751	7	Sololá	717	San Juan la Laguna	12	San Juan la Laguna	1	Enero	2023-01-14T00:00:00	2024-11-08T13:00:00	1	Precipitación	0
30752	7	Sololá	717	San Juan la Laguna	12	San Juan la Laguna	1	Enero	2023-01-14T00:00:00	2024-11-08T13:00:00	8	Radiación solar	773
30753	7	Sololá	717	San Juan la Laguna	12	San Juan la Laguna	1	Enero	2023-01-14T00:00:00	2024-11-08T14:00:00	2	Temperatura media	24.2
30754	7	Sololá	717	San Juan la Laguna	12	San Juan la Laguna	1	Enero	2023-01-14T00:00:00	2024-11-08T14:00:00	4	Temperatura máxima	24.3
30755	7	Sololá	717	San Juan la Laguna	12	San Juan la Laguna	1	Enero	2023-01-14T00:00:00	2024-11-08T14:00:00	3	Temperatura mínima	23.3
30756	7	Sololá	717	San Juan la Laguna	12	San Juan la Laguna	1	Enero	2023-01-14T00:00:00	2024-11-08T14:00:00	5	Humedad	35
30757	7	Sololá	717	San Juan la Laguna	12	San Juan la Laguna	1	Enero	2023-01-14T00:00:00	2024-11-08T14:00:00	6	Velocidad del viento	6.4
30758	7	Sololá	717	San Juan la Laguna	12	San Juan la Laguna	1	Enero	2023-01-14T00:00:00	2024-11-08T14:00:00	7	Dirección del viento	6.44
30759	7	Sololá	717	San Juan la Laguna	12	San Juan la Laguna	1	Enero	2023-01-14T00:00:00	2024-11-08T14:00:00	1	Precipitación	0
30760	7	Sololá	717	San Juan la Laguna	12	San Juan la Laguna	1	Enero	2023-01-14T00:00:00	2024-11-08T14:00:00	8	Radiación solar	746
30761	7	Sololá	717	San Juan la Laguna	12	San Juan la Laguna	1	Enero	2023-01-14T00:00:00	2024-11-08T15:00:00	2	Temperatura media	23.4
30762	7	Sololá	717	San Juan la Laguna	12	San Juan la Laguna	1	Enero	2023-01-14T00:00:00	2024-11-08T15:00:00	4	Temperatura máxima	24.7
30763	7	Sololá	717	San Juan la Laguna	12	San Juan la Laguna	1	Enero	2023-01-14T00:00:00	2024-11-08T15:00:00	3	Temperatura mínima	23.4
30764	7	Sololá	717	San Juan la Laguna	12	San Juan la Laguna	1	Enero	2023-01-14T00:00:00	2024-11-08T15:00:00	5	Humedad	48
30765	7	Sololá	717	San Juan la Laguna	12	San Juan la Laguna	1	Enero	2023-01-14T00:00:00	2024-11-08T15:00:00	6	Velocidad del viento	4.8
30766	7	Sololá	717	San Juan la Laguna	12	San Juan la Laguna	1	Enero	2023-01-14T00:00:00	2024-11-08T15:00:00	7	Dirección del viento	4.83
30767	7	Sololá	717	San Juan la Laguna	12	San Juan la Laguna	1	Enero	2023-01-14T00:00:00	2024-11-08T15:00:00	1	Precipitación	0
30768	7	Sololá	717	San Juan la Laguna	12	San Juan la Laguna	1	Enero	2023-01-14T00:00:00	2024-11-08T15:00:00	8	Radiación solar	630
30769	7	Sololá	717	San Juan la Laguna	12	San Juan la Laguna	1	Enero	2023-01-14T00:00:00	2024-11-08T16:00:00	2	Temperatura media	23
30770	7	Sololá	717	San Juan la Laguna	12	San Juan la Laguna	1	Enero	2023-01-14T00:00:00	2024-11-08T16:00:00	4	Temperatura máxima	23.7
30771	7	Sololá	717	San Juan la Laguna	12	San Juan la Laguna	1	Enero	2023-01-14T00:00:00	2024-11-08T16:00:00	3	Temperatura mínima	22.9
30772	7	Sololá	717	San Juan la Laguna	12	San Juan la Laguna	1	Enero	2023-01-14T00:00:00	2024-11-08T16:00:00	5	Humedad	54
30773	7	Sololá	717	San Juan la Laguna	12	San Juan la Laguna	1	Enero	2023-01-14T00:00:00	2024-11-08T16:00:00	6	Velocidad del viento	4.8
30774	7	Sololá	717	San Juan la Laguna	12	San Juan la Laguna	1	Enero	2023-01-14T00:00:00	2024-11-08T16:00:00	7	Dirección del viento	4.83
30775	7	Sololá	717	San Juan la Laguna	12	San Juan la Laguna	1	Enero	2023-01-14T00:00:00	2024-11-08T16:00:00	1	Precipitación	0
30776	7	Sololá	717	San Juan la Laguna	12	San Juan la Laguna	1	Enero	2023-01-14T00:00:00	2024-11-08T16:00:00	8	Radiación solar	421
30777	7	Sololá	717	San Juan la Laguna	12	San Juan la Laguna	1	Enero	2023-01-14T00:00:00	2024-11-08T17:00:00	2	Temperatura media	21
30778	7	Sololá	717	San Juan la Laguna	12	San Juan la Laguna	1	Enero	2023-01-14T00:00:00	2024-11-08T17:00:00	4	Temperatura máxima	22.9
30779	7	Sololá	717	San Juan la Laguna	12	San Juan la Laguna	1	Enero	2023-01-14T00:00:00	2024-11-08T17:00:00	3	Temperatura mínima	21
30780	7	Sololá	717	San Juan la Laguna	12	San Juan la Laguna	1	Enero	2023-01-14T00:00:00	2024-11-08T17:00:00	5	Humedad	61
30781	7	Sololá	717	San Juan la Laguna	12	San Juan la Laguna	1	Enero	2023-01-14T00:00:00	2024-11-08T17:00:00	6	Velocidad del viento	3.2
30782	7	Sololá	717	San Juan la Laguna	12	San Juan la Laguna	1	Enero	2023-01-14T00:00:00	2024-11-08T17:00:00	7	Dirección del viento	3.22
30783	7	Sololá	717	San Juan la Laguna	12	San Juan la Laguna	1	Enero	2023-01-14T00:00:00	2024-11-08T17:00:00	1	Precipitación	0
30784	7	Sololá	717	San Juan la Laguna	12	San Juan la Laguna	1	Enero	2023-01-14T00:00:00	2024-11-08T17:00:00	8	Radiación solar	211
30785	7	Sololá	717	San Juan la Laguna	12	San Juan la Laguna	1	Enero	2023-01-14T00:00:00	2024-11-08T18:00:00	2	Temperatura media	18.3
30786	7	Sololá	717	San Juan la Laguna	12	San Juan la Laguna	1	Enero	2023-01-14T00:00:00	2024-11-08T18:00:00	4	Temperatura máxima	21
30787	7	Sololá	717	San Juan la Laguna	12	San Juan la Laguna	1	Enero	2023-01-14T00:00:00	2024-11-08T18:00:00	3	Temperatura mínima	18.2
30788	7	Sololá	717	San Juan la Laguna	12	San Juan la Laguna	1	Enero	2023-01-14T00:00:00	2024-11-08T18:00:00	5	Humedad	68
30789	7	Sololá	717	San Juan la Laguna	12	San Juan la Laguna	1	Enero	2023-01-14T00:00:00	2024-11-08T18:00:00	6	Velocidad del viento	0
30790	7	Sololá	717	San Juan la Laguna	12	San Juan la Laguna	1	Enero	2023-01-14T00:00:00	2024-11-08T18:00:00	7	Dirección del viento	0
30791	7	Sololá	717	San Juan la Laguna	12	San Juan la Laguna	1	Enero	2023-01-14T00:00:00	2024-11-08T18:00:00	1	Precipitación	0
30792	7	Sololá	717	San Juan la Laguna	12	San Juan la Laguna	1	Enero	2023-01-14T00:00:00	2024-11-08T18:00:00	8	Radiación solar	16
30793	7	Sololá	717	San Juan la Laguna	12	San Juan la Laguna	1	Enero	2023-01-14T00:00:00	2024-11-08T19:00:00	2	Temperatura media	18.3
30794	7	Sololá	717	San Juan la Laguna	12	San Juan la Laguna	1	Enero	2023-01-14T00:00:00	2024-11-08T19:00:00	4	Temperatura máxima	18.3
30795	7	Sololá	717	San Juan la Laguna	12	San Juan la Laguna	1	Enero	2023-01-14T00:00:00	2024-11-08T19:00:00	3	Temperatura mínima	17.6
30796	7	Sololá	717	San Juan la Laguna	12	San Juan la Laguna	1	Enero	2023-01-14T00:00:00	2024-11-08T19:00:00	5	Humedad	58
30797	7	Sololá	717	San Juan la Laguna	12	San Juan la Laguna	1	Enero	2023-01-14T00:00:00	2024-11-08T19:00:00	6	Velocidad del viento	1.6
30798	7	Sololá	717	San Juan la Laguna	12	San Juan la Laguna	1	Enero	2023-01-14T00:00:00	2024-11-08T19:00:00	7	Dirección del viento	1.61
30799	7	Sololá	717	San Juan la Laguna	12	San Juan la Laguna	1	Enero	2023-01-14T00:00:00	2024-11-08T19:00:00	1	Precipitación	0
30800	7	Sololá	717	San Juan la Laguna	12	San Juan la Laguna	1	Enero	2023-01-14T00:00:00	2024-11-08T19:00:00	8	Radiación solar	0
30801	7	Sololá	717	San Juan la Laguna	12	San Juan la Laguna	1	Enero	2023-01-14T00:00:00	2024-11-08T20:00:00	2	Temperatura media	15
30802	7	Sololá	717	San Juan la Laguna	12	San Juan la Laguna	1	Enero	2023-01-14T00:00:00	2024-11-08T20:00:00	4	Temperatura máxima	18.4
30803	7	Sololá	717	San Juan la Laguna	12	San Juan la Laguna	1	Enero	2023-01-14T00:00:00	2024-11-08T20:00:00	3	Temperatura mínima	15
30804	7	Sololá	717	San Juan la Laguna	12	San Juan la Laguna	1	Enero	2023-01-14T00:00:00	2024-11-08T20:00:00	5	Humedad	68
30805	7	Sololá	717	San Juan la Laguna	12	San Juan la Laguna	1	Enero	2023-01-14T00:00:00	2024-11-08T20:00:00	6	Velocidad del viento	3.2
30806	7	Sololá	717	San Juan la Laguna	12	San Juan la Laguna	1	Enero	2023-01-14T00:00:00	2024-11-08T20:00:00	7	Dirección del viento	3.22
30807	7	Sololá	717	San Juan la Laguna	12	San Juan la Laguna	1	Enero	2023-01-14T00:00:00	2024-11-08T20:00:00	1	Precipitación	0
30808	7	Sololá	717	San Juan la Laguna	12	San Juan la Laguna	1	Enero	2023-01-14T00:00:00	2024-11-08T20:00:00	8	Radiación solar	0
30809	7	Sololá	717	San Juan la Laguna	12	San Juan la Laguna	1	Enero	2023-01-14T00:00:00	2024-11-08T21:00:00	2	Temperatura media	13.1
30810	7	Sololá	717	San Juan la Laguna	12	San Juan la Laguna	1	Enero	2023-01-14T00:00:00	2024-11-08T21:00:00	4	Temperatura máxima	14.9
30811	7	Sololá	717	San Juan la Laguna	12	San Juan la Laguna	1	Enero	2023-01-14T00:00:00	2024-11-08T21:00:00	3	Temperatura mínima	13.1
30812	7	Sololá	717	San Juan la Laguna	12	San Juan la Laguna	1	Enero	2023-01-14T00:00:00	2024-11-08T21:00:00	5	Humedad	64
30813	7	Sololá	717	San Juan la Laguna	12	San Juan la Laguna	1	Enero	2023-01-14T00:00:00	2024-11-08T21:00:00	6	Velocidad del viento	3.2
30814	7	Sololá	717	San Juan la Laguna	12	San Juan la Laguna	1	Enero	2023-01-14T00:00:00	2024-11-08T21:00:00	7	Dirección del viento	3.22
30815	7	Sololá	717	San Juan la Laguna	12	San Juan la Laguna	1	Enero	2023-01-14T00:00:00	2024-11-08T21:00:00	1	Precipitación	0
30816	7	Sololá	717	San Juan la Laguna	12	San Juan la Laguna	1	Enero	2023-01-14T00:00:00	2024-11-08T21:00:00	8	Radiación solar	0
30817	7	Sololá	717	San Juan la Laguna	12	San Juan la Laguna	1	Enero	2023-01-14T00:00:00	2024-11-08T22:00:00	2	Temperatura media	12.1
30818	7	Sololá	717	San Juan la Laguna	12	San Juan la Laguna	1	Enero	2023-01-14T00:00:00	2024-11-08T22:00:00	4	Temperatura máxima	13.1
30819	7	Sololá	717	San Juan la Laguna	12	San Juan la Laguna	1	Enero	2023-01-14T00:00:00	2024-11-08T22:00:00	3	Temperatura mínima	12.1
30820	7	Sololá	717	San Juan la Laguna	12	San Juan la Laguna	1	Enero	2023-01-14T00:00:00	2024-11-08T22:00:00	5	Humedad	66
30821	7	Sololá	717	San Juan la Laguna	12	San Juan la Laguna	1	Enero	2023-01-14T00:00:00	2024-11-08T22:00:00	6	Velocidad del viento	3.2
30822	7	Sololá	717	San Juan la Laguna	12	San Juan la Laguna	1	Enero	2023-01-14T00:00:00	2024-11-08T22:00:00	7	Dirección del viento	3.22
30823	7	Sololá	717	San Juan la Laguna	12	San Juan la Laguna	1	Enero	2023-01-14T00:00:00	2024-11-08T22:00:00	1	Precipitación	0
30824	7	Sololá	717	San Juan la Laguna	12	San Juan la Laguna	1	Enero	2023-01-14T00:00:00	2024-11-08T22:00:00	8	Radiación solar	0
30825	7	Sololá	717	San Juan la Laguna	12	San Juan la Laguna	1	Enero	2023-01-14T00:00:00	2024-11-08T23:00:00	2	Temperatura media	11.6
30826	7	Sololá	717	San Juan la Laguna	12	San Juan la Laguna	1	Enero	2023-01-14T00:00:00	2024-11-08T23:00:00	4	Temperatura máxima	12.1
30827	7	Sololá	717	San Juan la Laguna	12	San Juan la Laguna	1	Enero	2023-01-14T00:00:00	2024-11-08T23:00:00	3	Temperatura mínima	11.6
30828	7	Sololá	717	San Juan la Laguna	12	San Juan la Laguna	1	Enero	2023-01-14T00:00:00	2024-11-08T23:00:00	5	Humedad	68
30829	7	Sololá	717	San Juan la Laguna	12	San Juan la Laguna	1	Enero	2023-01-14T00:00:00	2024-11-08T23:00:00	6	Velocidad del viento	3.2
30830	7	Sololá	717	San Juan la Laguna	12	San Juan la Laguna	1	Enero	2023-01-14T00:00:00	2024-11-08T23:00:00	7	Dirección del viento	3.22
30831	7	Sololá	717	San Juan la Laguna	12	San Juan la Laguna	1	Enero	2023-01-14T00:00:00	2024-11-08T23:00:00	1	Precipitación	0
30832	7	Sololá	717	San Juan la Laguna	12	San Juan la Laguna	1	Enero	2023-01-14T00:00:00	2024-11-08T23:00:00	8	Radiación solar	0
30833	7	Sololá	717	San Juan la Laguna	12	San Juan la Laguna	1	Enero	2023-01-15T00:00:00	2024-11-08T00:00:00	2	Temperatura media	10.9
30834	7	Sololá	717	San Juan la Laguna	12	San Juan la Laguna	1	Enero	2023-01-15T00:00:00	2024-11-08T00:00:00	4	Temperatura máxima	11.6
30835	7	Sololá	717	San Juan la Laguna	12	San Juan la Laguna	1	Enero	2023-01-15T00:00:00	2024-11-08T00:00:00	3	Temperatura mínima	10.7
30836	7	Sololá	717	San Juan la Laguna	12	San Juan la Laguna	1	Enero	2023-01-15T00:00:00	2024-11-08T00:00:00	5	Humedad	65
30837	7	Sololá	717	San Juan la Laguna	12	San Juan la Laguna	1	Enero	2023-01-15T00:00:00	2024-11-08T00:00:00	6	Velocidad del viento	4.8
30838	7	Sololá	717	San Juan la Laguna	12	San Juan la Laguna	1	Enero	2023-01-15T00:00:00	2024-11-08T00:00:00	7	Dirección del viento	4.83
30839	7	Sololá	717	San Juan la Laguna	12	San Juan la Laguna	1	Enero	2023-01-15T00:00:00	2024-11-08T00:00:00	1	Precipitación	0
30840	7	Sololá	717	San Juan la Laguna	12	San Juan la Laguna	1	Enero	2023-01-15T00:00:00	2024-11-08T00:00:00	8	Radiación solar	0
30841	7	Sololá	717	San Juan la Laguna	12	San Juan la Laguna	1	Enero	2023-01-15T00:00:00	2024-11-08T01:00:00	2	Temperatura media	10.5
30842	7	Sololá	717	San Juan la Laguna	12	San Juan la Laguna	1	Enero	2023-01-15T00:00:00	2024-11-08T01:00:00	4	Temperatura máxima	11.1
30843	7	Sololá	717	San Juan la Laguna	12	San Juan la Laguna	1	Enero	2023-01-15T00:00:00	2024-11-08T01:00:00	3	Temperatura mínima	10.3
30844	7	Sololá	717	San Juan la Laguna	12	San Juan la Laguna	1	Enero	2023-01-15T00:00:00	2024-11-08T01:00:00	5	Humedad	59
30845	7	Sololá	717	San Juan la Laguna	12	San Juan la Laguna	1	Enero	2023-01-15T00:00:00	2024-11-08T01:00:00	6	Velocidad del viento	4.8
30846	7	Sololá	717	San Juan la Laguna	12	San Juan la Laguna	1	Enero	2023-01-15T00:00:00	2024-11-08T01:00:00	7	Dirección del viento	4.83
30847	7	Sololá	717	San Juan la Laguna	12	San Juan la Laguna	1	Enero	2023-01-15T00:00:00	2024-11-08T01:00:00	1	Precipitación	0
30848	7	Sololá	717	San Juan la Laguna	12	San Juan la Laguna	1	Enero	2023-01-15T00:00:00	2024-11-08T01:00:00	8	Radiación solar	0
30849	7	Sololá	717	San Juan la Laguna	12	San Juan la Laguna	1	Enero	2023-01-15T00:00:00	2024-11-08T02:00:00	2	Temperatura media	10
30850	7	Sololá	717	San Juan la Laguna	12	San Juan la Laguna	1	Enero	2023-01-15T00:00:00	2024-11-08T02:00:00	4	Temperatura máxima	10.6
30851	7	Sololá	717	San Juan la Laguna	12	San Juan la Laguna	1	Enero	2023-01-15T00:00:00	2024-11-08T02:00:00	3	Temperatura mínima	10
30852	7	Sololá	717	San Juan la Laguna	12	San Juan la Laguna	1	Enero	2023-01-15T00:00:00	2024-11-08T02:00:00	5	Humedad	62
30853	7	Sololá	717	San Juan la Laguna	12	San Juan la Laguna	1	Enero	2023-01-15T00:00:00	2024-11-08T02:00:00	6	Velocidad del viento	4.8
30854	7	Sololá	717	San Juan la Laguna	12	San Juan la Laguna	1	Enero	2023-01-15T00:00:00	2024-11-08T02:00:00	7	Dirección del viento	4.83
30855	7	Sololá	717	San Juan la Laguna	12	San Juan la Laguna	1	Enero	2023-01-15T00:00:00	2024-11-08T02:00:00	1	Precipitación	0
30856	7	Sololá	717	San Juan la Laguna	12	San Juan la Laguna	1	Enero	2023-01-15T00:00:00	2024-11-08T02:00:00	8	Radiación solar	0
30857	7	Sololá	717	San Juan la Laguna	12	San Juan la Laguna	1	Enero	2023-01-15T00:00:00	2024-11-08T03:00:00	2	Temperatura media	9.7
30858	7	Sololá	717	San Juan la Laguna	12	San Juan la Laguna	1	Enero	2023-01-15T00:00:00	2024-11-08T03:00:00	4	Temperatura máxima	10
30859	7	Sololá	717	San Juan la Laguna	12	San Juan la Laguna	1	Enero	2023-01-15T00:00:00	2024-11-08T03:00:00	3	Temperatura mínima	9.6
30860	7	Sololá	717	San Juan la Laguna	12	San Juan la Laguna	1	Enero	2023-01-15T00:00:00	2024-11-08T03:00:00	5	Humedad	65
30861	7	Sololá	717	San Juan la Laguna	12	San Juan la Laguna	1	Enero	2023-01-15T00:00:00	2024-11-08T03:00:00	6	Velocidad del viento	4.8
30862	7	Sololá	717	San Juan la Laguna	12	San Juan la Laguna	1	Enero	2023-01-15T00:00:00	2024-11-08T03:00:00	7	Dirección del viento	4.83
30863	7	Sololá	717	San Juan la Laguna	12	San Juan la Laguna	1	Enero	2023-01-15T00:00:00	2024-11-08T03:00:00	1	Precipitación	0
30864	7	Sololá	717	San Juan la Laguna	12	San Juan la Laguna	1	Enero	2023-01-15T00:00:00	2024-11-08T03:00:00	8	Radiación solar	0
30865	7	Sololá	717	San Juan la Laguna	12	San Juan la Laguna	1	Enero	2023-01-15T00:00:00	2024-11-08T04:00:00	2	Temperatura media	9.3
30866	7	Sololá	717	San Juan la Laguna	12	San Juan la Laguna	1	Enero	2023-01-15T00:00:00	2024-11-08T04:00:00	4	Temperatura máxima	9.8
30867	7	Sololá	717	San Juan la Laguna	12	San Juan la Laguna	1	Enero	2023-01-15T00:00:00	2024-11-08T04:00:00	3	Temperatura mínima	9.3
30868	7	Sololá	717	San Juan la Laguna	12	San Juan la Laguna	1	Enero	2023-01-15T00:00:00	2024-11-08T04:00:00	5	Humedad	68
30869	7	Sololá	717	San Juan la Laguna	12	San Juan la Laguna	1	Enero	2023-01-15T00:00:00	2024-11-08T04:00:00	6	Velocidad del viento	4.8
30870	7	Sololá	717	San Juan la Laguna	12	San Juan la Laguna	1	Enero	2023-01-15T00:00:00	2024-11-08T04:00:00	7	Dirección del viento	4.83
30871	7	Sololá	717	San Juan la Laguna	12	San Juan la Laguna	1	Enero	2023-01-15T00:00:00	2024-11-08T04:00:00	1	Precipitación	0
30872	7	Sololá	717	San Juan la Laguna	12	San Juan la Laguna	1	Enero	2023-01-15T00:00:00	2024-11-08T04:00:00	8	Radiación solar	0
30873	7	Sololá	717	San Juan la Laguna	12	San Juan la Laguna	1	Enero	2023-01-15T00:00:00	2024-11-08T05:00:00	2	Temperatura media	9.1
30874	7	Sololá	717	San Juan la Laguna	12	San Juan la Laguna	1	Enero	2023-01-15T00:00:00	2024-11-08T05:00:00	4	Temperatura máxima	9.9
30875	7	Sololá	717	San Juan la Laguna	12	San Juan la Laguna	1	Enero	2023-01-15T00:00:00	2024-11-08T05:00:00	3	Temperatura mínima	9.1
30876	7	Sololá	717	San Juan la Laguna	12	San Juan la Laguna	1	Enero	2023-01-15T00:00:00	2024-11-08T05:00:00	5	Humedad	70
30877	7	Sololá	717	San Juan la Laguna	12	San Juan la Laguna	1	Enero	2023-01-15T00:00:00	2024-11-08T05:00:00	6	Velocidad del viento	3.2
30878	7	Sololá	717	San Juan la Laguna	12	San Juan la Laguna	1	Enero	2023-01-15T00:00:00	2024-11-08T05:00:00	7	Dirección del viento	3.22
30879	7	Sololá	717	San Juan la Laguna	12	San Juan la Laguna	1	Enero	2023-01-15T00:00:00	2024-11-08T05:00:00	1	Precipitación	0
30880	7	Sololá	717	San Juan la Laguna	12	San Juan la Laguna	1	Enero	2023-01-15T00:00:00	2024-11-08T05:00:00	8	Radiación solar	0
30881	7	Sololá	717	San Juan la Laguna	12	San Juan la Laguna	1	Enero	2023-01-15T00:00:00	2024-11-08T06:00:00	2	Temperatura media	9.6
30882	7	Sololá	717	San Juan la Laguna	12	San Juan la Laguna	1	Enero	2023-01-15T00:00:00	2024-11-08T06:00:00	4	Temperatura máxima	9.6
30883	7	Sololá	717	San Juan la Laguna	12	San Juan la Laguna	1	Enero	2023-01-15T00:00:00	2024-11-08T06:00:00	3	Temperatura mínima	8.7
30884	7	Sololá	717	San Juan la Laguna	12	San Juan la Laguna	1	Enero	2023-01-15T00:00:00	2024-11-08T06:00:00	5	Humedad	70
30885	7	Sololá	717	San Juan la Laguna	12	San Juan la Laguna	1	Enero	2023-01-15T00:00:00	2024-11-08T06:00:00	6	Velocidad del viento	3.2
30886	7	Sololá	717	San Juan la Laguna	12	San Juan la Laguna	1	Enero	2023-01-15T00:00:00	2024-11-08T06:00:00	7	Dirección del viento	3.22
30887	7	Sololá	717	San Juan la Laguna	12	San Juan la Laguna	1	Enero	2023-01-15T00:00:00	2024-11-08T06:00:00	1	Precipitación	0
30888	7	Sololá	717	San Juan la Laguna	12	San Juan la Laguna	1	Enero	2023-01-15T00:00:00	2024-11-08T06:00:00	8	Radiación solar	0
30889	7	Sololá	717	San Juan la Laguna	12	San Juan la Laguna	1	Enero	2023-01-15T00:00:00	2024-11-08T07:00:00	2	Temperatura media	8.6
30890	7	Sololá	717	San Juan la Laguna	12	San Juan la Laguna	1	Enero	2023-01-15T00:00:00	2024-11-08T07:00:00	4	Temperatura máxima	10.1
30891	7	Sololá	717	San Juan la Laguna	12	San Juan la Laguna	1	Enero	2023-01-15T00:00:00	2024-11-08T07:00:00	3	Temperatura mínima	8.6
30892	7	Sololá	717	San Juan la Laguna	12	San Juan la Laguna	1	Enero	2023-01-15T00:00:00	2024-11-08T07:00:00	5	Humedad	74
30893	7	Sololá	717	San Juan la Laguna	12	San Juan la Laguna	1	Enero	2023-01-15T00:00:00	2024-11-08T07:00:00	6	Velocidad del viento	3.2
30894	7	Sololá	717	San Juan la Laguna	12	San Juan la Laguna	1	Enero	2023-01-15T00:00:00	2024-11-08T07:00:00	7	Dirección del viento	3.22
30895	7	Sololá	717	San Juan la Laguna	12	San Juan la Laguna	1	Enero	2023-01-15T00:00:00	2024-11-08T07:00:00	1	Precipitación	0
30896	7	Sololá	717	San Juan la Laguna	12	San Juan la Laguna	1	Enero	2023-01-15T00:00:00	2024-11-08T07:00:00	8	Radiación solar	4
30897	7	Sololá	717	San Juan la Laguna	12	San Juan la Laguna	1	Enero	2023-01-15T00:00:00	2024-11-08T08:00:00	2	Temperatura media	12
30898	7	Sololá	717	San Juan la Laguna	12	San Juan la Laguna	1	Enero	2023-01-15T00:00:00	2024-11-08T08:00:00	4	Temperatura máxima	12
30899	7	Sololá	717	San Juan la Laguna	12	San Juan la Laguna	1	Enero	2023-01-15T00:00:00	2024-11-08T08:00:00	3	Temperatura mínima	8.6
30900	7	Sololá	717	San Juan la Laguna	12	San Juan la Laguna	1	Enero	2023-01-15T00:00:00	2024-11-08T08:00:00	5	Humedad	69
30901	7	Sololá	717	San Juan la Laguna	12	San Juan la Laguna	1	Enero	2023-01-15T00:00:00	2024-11-08T08:00:00	6	Velocidad del viento	1.6
30902	7	Sololá	717	San Juan la Laguna	12	San Juan la Laguna	1	Enero	2023-01-15T00:00:00	2024-11-08T08:00:00	7	Dirección del viento	1.61
30903	7	Sololá	717	San Juan la Laguna	12	San Juan la Laguna	1	Enero	2023-01-15T00:00:00	2024-11-08T08:00:00	1	Precipitación	0
30904	7	Sololá	717	San Juan la Laguna	12	San Juan la Laguna	1	Enero	2023-01-15T00:00:00	2024-11-08T08:00:00	8	Radiación solar	124
30905	7	Sololá	717	San Juan la Laguna	12	San Juan la Laguna	1	Enero	2023-01-15T00:00:00	2024-11-08T09:00:00	2	Temperatura media	16.8
30906	7	Sololá	717	San Juan la Laguna	12	San Juan la Laguna	1	Enero	2023-01-15T00:00:00	2024-11-08T09:00:00	4	Temperatura máxima	17.4
30907	7	Sololá	717	San Juan la Laguna	12	San Juan la Laguna	1	Enero	2023-01-15T00:00:00	2024-11-08T09:00:00	3	Temperatura mínima	12
30908	7	Sololá	717	San Juan la Laguna	12	San Juan la Laguna	1	Enero	2023-01-15T00:00:00	2024-11-08T09:00:00	5	Humedad	58
30909	7	Sololá	717	San Juan la Laguna	12	San Juan la Laguna	1	Enero	2023-01-15T00:00:00	2024-11-08T09:00:00	6	Velocidad del viento	0
30910	7	Sololá	717	San Juan la Laguna	12	San Juan la Laguna	1	Enero	2023-01-15T00:00:00	2024-11-08T09:00:00	7	Dirección del viento	0
30911	7	Sololá	717	San Juan la Laguna	12	San Juan la Laguna	1	Enero	2023-01-15T00:00:00	2024-11-08T09:00:00	1	Precipitación	0
30912	7	Sololá	717	San Juan la Laguna	12	San Juan la Laguna	1	Enero	2023-01-15T00:00:00	2024-11-08T09:00:00	8	Radiación solar	349
30913	7	Sololá	717	San Juan la Laguna	12	San Juan la Laguna	1	Enero	2023-01-15T00:00:00	2024-11-08T10:00:00	2	Temperatura media	17.6
30914	7	Sololá	717	San Juan la Laguna	12	San Juan la Laguna	1	Enero	2023-01-15T00:00:00	2024-11-08T10:00:00	4	Temperatura máxima	17.7
30915	7	Sololá	717	San Juan la Laguna	12	San Juan la Laguna	1	Enero	2023-01-15T00:00:00	2024-11-08T10:00:00	3	Temperatura mínima	16.8
30916	7	Sololá	717	San Juan la Laguna	12	San Juan la Laguna	1	Enero	2023-01-15T00:00:00	2024-11-08T10:00:00	5	Humedad	60
30917	7	Sololá	717	San Juan la Laguna	12	San Juan la Laguna	1	Enero	2023-01-15T00:00:00	2024-11-08T10:00:00	6	Velocidad del viento	3.2
30918	7	Sololá	717	San Juan la Laguna	12	San Juan la Laguna	1	Enero	2023-01-15T00:00:00	2024-11-08T10:00:00	7	Dirección del viento	3.22
30919	7	Sololá	717	San Juan la Laguna	12	San Juan la Laguna	1	Enero	2023-01-15T00:00:00	2024-11-08T10:00:00	1	Precipitación	0
30920	7	Sololá	717	San Juan la Laguna	12	San Juan la Laguna	1	Enero	2023-01-15T00:00:00	2024-11-08T10:00:00	8	Radiación solar	538
30921	7	Sololá	717	San Juan la Laguna	12	San Juan la Laguna	1	Enero	2023-01-15T00:00:00	2024-11-08T11:00:00	2	Temperatura media	19.5
30922	7	Sololá	717	San Juan la Laguna	12	San Juan la Laguna	1	Enero	2023-01-15T00:00:00	2024-11-08T11:00:00	4	Temperatura máxima	19.6
30923	7	Sololá	717	San Juan la Laguna	12	San Juan la Laguna	1	Enero	2023-01-15T00:00:00	2024-11-08T11:00:00	3	Temperatura mínima	17.6
30924	7	Sololá	717	San Juan la Laguna	12	San Juan la Laguna	1	Enero	2023-01-15T00:00:00	2024-11-08T11:00:00	5	Humedad	54
30925	7	Sololá	717	San Juan la Laguna	12	San Juan la Laguna	1	Enero	2023-01-15T00:00:00	2024-11-08T11:00:00	6	Velocidad del viento	1.6
30926	7	Sololá	717	San Juan la Laguna	12	San Juan la Laguna	1	Enero	2023-01-15T00:00:00	2024-11-08T11:00:00	7	Dirección del viento	1.61
30927	7	Sololá	717	San Juan la Laguna	12	San Juan la Laguna	1	Enero	2023-01-15T00:00:00	2024-11-08T11:00:00	1	Precipitación	0
30928	7	Sololá	717	San Juan la Laguna	12	San Juan la Laguna	1	Enero	2023-01-15T00:00:00	2024-11-08T11:00:00	8	Radiación solar	640
30929	7	Sololá	717	San Juan la Laguna	12	San Juan la Laguna	1	Enero	2023-01-15T00:00:00	2024-11-08T12:00:00	2	Temperatura media	20.6
30930	7	Sololá	717	San Juan la Laguna	12	San Juan la Laguna	1	Enero	2023-01-15T00:00:00	2024-11-08T12:00:00	4	Temperatura máxima	20.6
30931	7	Sololá	717	San Juan la Laguna	12	San Juan la Laguna	1	Enero	2023-01-15T00:00:00	2024-11-08T12:00:00	3	Temperatura mínima	19.1
30932	7	Sololá	717	San Juan la Laguna	12	San Juan la Laguna	1	Enero	2023-01-15T00:00:00	2024-11-08T12:00:00	5	Humedad	51
30933	7	Sololá	717	San Juan la Laguna	12	San Juan la Laguna	1	Enero	2023-01-15T00:00:00	2024-11-08T12:00:00	6	Velocidad del viento	4.8
30934	7	Sololá	717	San Juan la Laguna	12	San Juan la Laguna	1	Enero	2023-01-15T00:00:00	2024-11-08T12:00:00	7	Dirección del viento	4.83
30935	7	Sololá	717	San Juan la Laguna	12	San Juan la Laguna	1	Enero	2023-01-15T00:00:00	2024-11-08T12:00:00	1	Precipitación	0
30936	7	Sololá	717	San Juan la Laguna	12	San Juan la Laguna	1	Enero	2023-01-15T00:00:00	2024-11-08T12:00:00	8	Radiación solar	689
30937	7	Sololá	717	San Juan la Laguna	12	San Juan la Laguna	1	Enero	2023-01-15T00:00:00	2024-11-08T13:00:00	2	Temperatura media	20.9
30938	7	Sololá	717	San Juan la Laguna	12	San Juan la Laguna	1	Enero	2023-01-15T00:00:00	2024-11-08T13:00:00	4	Temperatura máxima	21.5
30939	7	Sololá	717	San Juan la Laguna	12	San Juan la Laguna	1	Enero	2023-01-15T00:00:00	2024-11-08T13:00:00	3	Temperatura mínima	20.5
30940	7	Sololá	717	San Juan la Laguna	12	San Juan la Laguna	1	Enero	2023-01-15T00:00:00	2024-11-08T13:00:00	5	Humedad	63
30941	7	Sololá	717	San Juan la Laguna	12	San Juan la Laguna	1	Enero	2023-01-15T00:00:00	2024-11-08T13:00:00	6	Velocidad del viento	12.9
30942	7	Sololá	717	San Juan la Laguna	12	San Juan la Laguna	1	Enero	2023-01-15T00:00:00	2024-11-08T13:00:00	7	Dirección del viento	12.87
30943	7	Sololá	717	San Juan la Laguna	12	San Juan la Laguna	1	Enero	2023-01-15T00:00:00	2024-11-08T13:00:00	1	Precipitación	0
30944	7	Sololá	717	San Juan la Laguna	12	San Juan la Laguna	1	Enero	2023-01-15T00:00:00	2024-11-08T13:00:00	8	Radiación solar	766
30945	7	Sololá	717	San Juan la Laguna	12	San Juan la Laguna	1	Enero	2023-01-15T00:00:00	2024-11-08T14:00:00	2	Temperatura media	20.7
30946	7	Sololá	717	San Juan la Laguna	12	San Juan la Laguna	1	Enero	2023-01-15T00:00:00	2024-11-08T14:00:00	4	Temperatura máxima	21.3
30947	7	Sololá	717	San Juan la Laguna	12	San Juan la Laguna	1	Enero	2023-01-15T00:00:00	2024-11-08T14:00:00	3	Temperatura mínima	20.6
30948	7	Sololá	717	San Juan la Laguna	12	San Juan la Laguna	1	Enero	2023-01-15T00:00:00	2024-11-08T14:00:00	5	Humedad	64
30949	7	Sololá	717	San Juan la Laguna	12	San Juan la Laguna	1	Enero	2023-01-15T00:00:00	2024-11-08T14:00:00	6	Velocidad del viento	16.1
30950	7	Sololá	717	San Juan la Laguna	12	San Juan la Laguna	1	Enero	2023-01-15T00:00:00	2024-11-08T14:00:00	7	Dirección del viento	16.09
30951	7	Sololá	717	San Juan la Laguna	12	San Juan la Laguna	1	Enero	2023-01-15T00:00:00	2024-11-08T14:00:00	1	Precipitación	0
30952	7	Sololá	717	San Juan la Laguna	12	San Juan la Laguna	1	Enero	2023-01-15T00:00:00	2024-11-08T14:00:00	8	Radiación solar	729
30953	7	Sololá	717	San Juan la Laguna	12	San Juan la Laguna	1	Enero	2023-01-15T00:00:00	2024-11-08T15:00:00	2	Temperatura media	20.8
30954	7	Sololá	717	San Juan la Laguna	12	San Juan la Laguna	1	Enero	2023-01-15T00:00:00	2024-11-08T15:00:00	4	Temperatura máxima	20.9
30955	7	Sololá	717	San Juan la Laguna	12	San Juan la Laguna	1	Enero	2023-01-15T00:00:00	2024-11-08T15:00:00	3	Temperatura mínima	20.2
30956	7	Sololá	717	San Juan la Laguna	12	San Juan la Laguna	1	Enero	2023-01-15T00:00:00	2024-11-08T15:00:00	5	Humedad	66
30957	7	Sololá	717	San Juan la Laguna	12	San Juan la Laguna	1	Enero	2023-01-15T00:00:00	2024-11-08T15:00:00	6	Velocidad del viento	14.5
30958	7	Sololá	717	San Juan la Laguna	12	San Juan la Laguna	1	Enero	2023-01-15T00:00:00	2024-11-08T15:00:00	7	Dirección del viento	14.48
30959	7	Sololá	717	San Juan la Laguna	12	San Juan la Laguna	1	Enero	2023-01-15T00:00:00	2024-11-08T15:00:00	1	Precipitación	0
30960	7	Sololá	717	San Juan la Laguna	12	San Juan la Laguna	1	Enero	2023-01-15T00:00:00	2024-11-08T15:00:00	8	Radiación solar	662
30961	7	Sololá	717	San Juan la Laguna	12	San Juan la Laguna	1	Enero	2023-01-15T00:00:00	2024-11-08T16:00:00	2	Temperatura media	20.2
30962	7	Sololá	717	San Juan la Laguna	12	San Juan la Laguna	1	Enero	2023-01-15T00:00:00	2024-11-08T16:00:00	4	Temperatura máxima	21.3
30963	7	Sololá	717	San Juan la Laguna	12	San Juan la Laguna	1	Enero	2023-01-15T00:00:00	2024-11-08T16:00:00	3	Temperatura mínima	20.2
30964	7	Sololá	717	San Juan la Laguna	12	San Juan la Laguna	1	Enero	2023-01-15T00:00:00	2024-11-08T16:00:00	5	Humedad	69
30965	7	Sololá	717	San Juan la Laguna	12	San Juan la Laguna	1	Enero	2023-01-15T00:00:00	2024-11-08T16:00:00	6	Velocidad del viento	11.3
30966	7	Sololá	717	San Juan la Laguna	12	San Juan la Laguna	1	Enero	2023-01-15T00:00:00	2024-11-08T16:00:00	7	Dirección del viento	11.27
30967	7	Sololá	717	San Juan la Laguna	12	San Juan la Laguna	1	Enero	2023-01-15T00:00:00	2024-11-08T16:00:00	1	Precipitación	0
30968	7	Sololá	717	San Juan la Laguna	12	San Juan la Laguna	1	Enero	2023-01-15T00:00:00	2024-11-08T16:00:00	8	Radiación solar	507
30969	7	Sololá	717	San Juan la Laguna	12	San Juan la Laguna	1	Enero	2023-01-15T00:00:00	2024-11-08T17:00:00	2	Temperatura media	18.7
30970	7	Sololá	717	San Juan la Laguna	12	San Juan la Laguna	1	Enero	2023-01-15T00:00:00	2024-11-08T17:00:00	4	Temperatura máxima	20.3
30971	7	Sololá	717	San Juan la Laguna	12	San Juan la Laguna	1	Enero	2023-01-15T00:00:00	2024-11-08T17:00:00	3	Temperatura mínima	18.6
30972	7	Sololá	717	San Juan la Laguna	12	San Juan la Laguna	1	Enero	2023-01-15T00:00:00	2024-11-08T17:00:00	5	Humedad	76
30973	7	Sololá	717	San Juan la Laguna	12	San Juan la Laguna	1	Enero	2023-01-15T00:00:00	2024-11-08T17:00:00	6	Velocidad del viento	6.4
30974	7	Sololá	717	San Juan la Laguna	12	San Juan la Laguna	1	Enero	2023-01-15T00:00:00	2024-11-08T17:00:00	7	Dirección del viento	6.44
30975	7	Sololá	717	San Juan la Laguna	12	San Juan la Laguna	1	Enero	2023-01-15T00:00:00	2024-11-08T17:00:00	1	Precipitación	0
30976	7	Sololá	717	San Juan la Laguna	12	San Juan la Laguna	1	Enero	2023-01-15T00:00:00	2024-11-08T17:00:00	8	Radiación solar	141
30977	7	Sololá	717	San Juan la Laguna	12	San Juan la Laguna	1	Enero	2023-01-15T00:00:00	2024-11-08T18:00:00	2	Temperatura media	17.3
30978	7	Sololá	717	San Juan la Laguna	12	San Juan la Laguna	1	Enero	2023-01-15T00:00:00	2024-11-08T18:00:00	4	Temperatura máxima	18.7
30979	7	Sololá	717	San Juan la Laguna	12	San Juan la Laguna	1	Enero	2023-01-15T00:00:00	2024-11-08T18:00:00	3	Temperatura mínima	17.3
30980	7	Sololá	717	San Juan la Laguna	12	San Juan la Laguna	1	Enero	2023-01-15T00:00:00	2024-11-08T18:00:00	5	Humedad	80
30981	7	Sololá	717	San Juan la Laguna	12	San Juan la Laguna	1	Enero	2023-01-15T00:00:00	2024-11-08T18:00:00	6	Velocidad del viento	4.8
30982	7	Sololá	717	San Juan la Laguna	12	San Juan la Laguna	1	Enero	2023-01-15T00:00:00	2024-11-08T18:00:00	7	Dirección del viento	4.83
30983	7	Sololá	717	San Juan la Laguna	12	San Juan la Laguna	1	Enero	2023-01-15T00:00:00	2024-11-08T18:00:00	1	Precipitación	0
30984	7	Sololá	717	San Juan la Laguna	12	San Juan la Laguna	1	Enero	2023-01-15T00:00:00	2024-11-08T18:00:00	8	Radiación solar	16
30985	7	Sololá	717	San Juan la Laguna	12	San Juan la Laguna	1	Enero	2023-01-15T00:00:00	2024-11-08T19:00:00	2	Temperatura media	17.1
30986	7	Sololá	717	San Juan la Laguna	12	San Juan la Laguna	1	Enero	2023-01-15T00:00:00	2024-11-08T19:00:00	4	Temperatura máxima	17.3
30987	7	Sololá	717	San Juan la Laguna	12	San Juan la Laguna	1	Enero	2023-01-15T00:00:00	2024-11-08T19:00:00	3	Temperatura mínima	16.6
30988	7	Sololá	717	San Juan la Laguna	12	San Juan la Laguna	1	Enero	2023-01-15T00:00:00	2024-11-08T19:00:00	5	Humedad	81
30989	7	Sololá	717	San Juan la Laguna	12	San Juan la Laguna	1	Enero	2023-01-15T00:00:00	2024-11-08T19:00:00	6	Velocidad del viento	1.6
30990	7	Sololá	717	San Juan la Laguna	12	San Juan la Laguna	1	Enero	2023-01-15T00:00:00	2024-11-08T19:00:00	7	Dirección del viento	1.61
30991	7	Sololá	717	San Juan la Laguna	12	San Juan la Laguna	1	Enero	2023-01-15T00:00:00	2024-11-08T19:00:00	1	Precipitación	0
30992	7	Sololá	717	San Juan la Laguna	12	San Juan la Laguna	1	Enero	2023-01-15T00:00:00	2024-11-08T19:00:00	8	Radiación solar	0
30993	7	Sololá	717	San Juan la Laguna	12	San Juan la Laguna	1	Enero	2023-01-15T00:00:00	2024-11-08T20:00:00	2	Temperatura media	16.8
30994	7	Sololá	717	San Juan la Laguna	12	San Juan la Laguna	1	Enero	2023-01-15T00:00:00	2024-11-08T20:00:00	4	Temperatura máxima	17.1
30995	7	Sololá	717	San Juan la Laguna	12	San Juan la Laguna	1	Enero	2023-01-15T00:00:00	2024-11-08T20:00:00	3	Temperatura mínima	16.5
30996	7	Sololá	717	San Juan la Laguna	12	San Juan la Laguna	1	Enero	2023-01-15T00:00:00	2024-11-08T20:00:00	5	Humedad	81
30997	7	Sololá	717	San Juan la Laguna	12	San Juan la Laguna	1	Enero	2023-01-15T00:00:00	2024-11-08T20:00:00	6	Velocidad del viento	1.6
30998	7	Sololá	717	San Juan la Laguna	12	San Juan la Laguna	1	Enero	2023-01-15T00:00:00	2024-11-08T20:00:00	7	Dirección del viento	1.61
30999	7	Sololá	717	San Juan la Laguna	12	San Juan la Laguna	1	Enero	2023-01-15T00:00:00	2024-11-08T20:00:00	1	Precipitación	0
31000	7	Sololá	717	San Juan la Laguna	12	San Juan la Laguna	1	Enero	2023-01-15T00:00:00	2024-11-08T20:00:00	8	Radiación solar	0
31001	7	Sololá	717	San Juan la Laguna	12	San Juan la Laguna	1	Enero	2023-01-15T00:00:00	2024-11-08T21:00:00	2	Temperatura media	17.1
31002	7	Sololá	717	San Juan la Laguna	12	San Juan la Laguna	1	Enero	2023-01-15T00:00:00	2024-11-08T21:00:00	4	Temperatura máxima	17.1
31003	7	Sololá	717	San Juan la Laguna	12	San Juan la Laguna	1	Enero	2023-01-15T00:00:00	2024-11-08T21:00:00	3	Temperatura mínima	16.8
31004	7	Sololá	717	San Juan la Laguna	12	San Juan la Laguna	1	Enero	2023-01-15T00:00:00	2024-11-08T21:00:00	5	Humedad	81
31005	7	Sololá	717	San Juan la Laguna	12	San Juan la Laguna	1	Enero	2023-01-15T00:00:00	2024-11-08T21:00:00	6	Velocidad del viento	1.6
31006	7	Sololá	717	San Juan la Laguna	12	San Juan la Laguna	1	Enero	2023-01-15T00:00:00	2024-11-08T21:00:00	7	Dirección del viento	1.61
31007	7	Sololá	717	San Juan la Laguna	12	San Juan la Laguna	1	Enero	2023-01-15T00:00:00	2024-11-08T21:00:00	1	Precipitación	0
31008	7	Sololá	717	San Juan la Laguna	12	San Juan la Laguna	1	Enero	2023-01-15T00:00:00	2024-11-08T21:00:00	8	Radiación solar	0
31009	7	Sololá	717	San Juan la Laguna	12	San Juan la Laguna	1	Enero	2023-01-15T00:00:00	2024-11-08T22:00:00	2	Temperatura media	16.8
31010	7	Sololá	717	San Juan la Laguna	12	San Juan la Laguna	1	Enero	2023-01-15T00:00:00	2024-11-08T22:00:00	4	Temperatura máxima	17.2
31011	7	Sololá	717	San Juan la Laguna	12	San Juan la Laguna	1	Enero	2023-01-15T00:00:00	2024-11-08T22:00:00	3	Temperatura mínima	16.8
31012	7	Sololá	717	San Juan la Laguna	12	San Juan la Laguna	1	Enero	2023-01-15T00:00:00	2024-11-08T22:00:00	5	Humedad	81
31013	7	Sololá	717	San Juan la Laguna	12	San Juan la Laguna	1	Enero	2023-01-15T00:00:00	2024-11-08T22:00:00	6	Velocidad del viento	1.6
31014	7	Sololá	717	San Juan la Laguna	12	San Juan la Laguna	1	Enero	2023-01-15T00:00:00	2024-11-08T22:00:00	7	Dirección del viento	1.61
31015	7	Sololá	717	San Juan la Laguna	12	San Juan la Laguna	1	Enero	2023-01-15T00:00:00	2024-11-08T22:00:00	1	Precipitación	0
31016	7	Sololá	717	San Juan la Laguna	12	San Juan la Laguna	1	Enero	2023-01-15T00:00:00	2024-11-08T22:00:00	8	Radiación solar	0
31017	7	Sololá	717	San Juan la Laguna	12	San Juan la Laguna	1	Enero	2023-01-15T00:00:00	2024-11-08T23:00:00	2	Temperatura media	16.7
31018	7	Sololá	717	San Juan la Laguna	12	San Juan la Laguna	1	Enero	2023-01-15T00:00:00	2024-11-08T23:00:00	4	Temperatura máxima	16.9
31019	7	Sololá	717	San Juan la Laguna	12	San Juan la Laguna	1	Enero	2023-01-15T00:00:00	2024-11-08T23:00:00	3	Temperatura mínima	16.7
31020	7	Sololá	717	San Juan la Laguna	12	San Juan la Laguna	1	Enero	2023-01-15T00:00:00	2024-11-08T23:00:00	5	Humedad	80
31021	7	Sololá	717	San Juan la Laguna	12	San Juan la Laguna	1	Enero	2023-01-15T00:00:00	2024-11-08T23:00:00	6	Velocidad del viento	0
31022	7	Sololá	717	San Juan la Laguna	12	San Juan la Laguna	1	Enero	2023-01-15T00:00:00	2024-11-08T23:00:00	7	Dirección del viento	0
31023	7	Sololá	717	San Juan la Laguna	12	San Juan la Laguna	1	Enero	2023-01-15T00:00:00	2024-11-08T23:00:00	1	Precipitación	0
31024	7	Sololá	717	San Juan la Laguna	12	San Juan la Laguna	1	Enero	2023-01-15T00:00:00	2024-11-08T23:00:00	8	Radiación solar	0
31025	7	Sololá	717	San Juan la Laguna	12	San Juan la Laguna	1	Enero	2023-01-16T00:00:00	2024-11-08T00:00:00	2	Temperatura media	16.5
31026	7	Sololá	717	San Juan la Laguna	12	San Juan la Laguna	1	Enero	2023-01-16T00:00:00	2024-11-08T00:00:00	4	Temperatura máxima	16.8
31027	7	Sololá	717	San Juan la Laguna	12	San Juan la Laguna	1	Enero	2023-01-16T00:00:00	2024-11-08T00:00:00	3	Temperatura mínima	16.5
31028	7	Sololá	717	San Juan la Laguna	12	San Juan la Laguna	1	Enero	2023-01-16T00:00:00	2024-11-08T00:00:00	5	Humedad	75
31029	7	Sololá	717	San Juan la Laguna	12	San Juan la Laguna	1	Enero	2023-01-16T00:00:00	2024-11-08T00:00:00	6	Velocidad del viento	1.6
31030	7	Sololá	717	San Juan la Laguna	12	San Juan la Laguna	1	Enero	2023-01-16T00:00:00	2024-11-08T00:00:00	7	Dirección del viento	1.61
31031	7	Sololá	717	San Juan la Laguna	12	San Juan la Laguna	1	Enero	2023-01-16T00:00:00	2024-11-08T00:00:00	1	Precipitación	0
31032	7	Sololá	717	San Juan la Laguna	12	San Juan la Laguna	1	Enero	2023-01-16T00:00:00	2024-11-08T00:00:00	8	Radiación solar	0
31033	7	Sololá	717	San Juan la Laguna	12	San Juan la Laguna	1	Enero	2023-01-16T00:00:00	2024-11-08T01:00:00	2	Temperatura media	14.7
31034	7	Sololá	717	San Juan la Laguna	12	San Juan la Laguna	1	Enero	2023-01-16T00:00:00	2024-11-08T01:00:00	4	Temperatura máxima	16.5
31035	7	Sololá	717	San Juan la Laguna	12	San Juan la Laguna	1	Enero	2023-01-16T00:00:00	2024-11-08T01:00:00	3	Temperatura mínima	14.7
31036	7	Sololá	717	San Juan la Laguna	12	San Juan la Laguna	1	Enero	2023-01-16T00:00:00	2024-11-08T01:00:00	5	Humedad	77
31037	7	Sololá	717	San Juan la Laguna	12	San Juan la Laguna	1	Enero	2023-01-16T00:00:00	2024-11-08T01:00:00	6	Velocidad del viento	3.2
31038	7	Sololá	717	San Juan la Laguna	12	San Juan la Laguna	1	Enero	2023-01-16T00:00:00	2024-11-08T01:00:00	7	Dirección del viento	3.22
31039	7	Sololá	717	San Juan la Laguna	12	San Juan la Laguna	1	Enero	2023-01-16T00:00:00	2024-11-08T01:00:00	1	Precipitación	0
31040	7	Sololá	717	San Juan la Laguna	12	San Juan la Laguna	1	Enero	2023-01-16T00:00:00	2024-11-08T01:00:00	8	Radiación solar	0
31041	7	Sololá	717	San Juan la Laguna	12	San Juan la Laguna	1	Enero	2023-01-16T00:00:00	2024-11-08T02:00:00	2	Temperatura media	14.2
31042	7	Sololá	717	San Juan la Laguna	12	San Juan la Laguna	1	Enero	2023-01-16T00:00:00	2024-11-08T02:00:00	4	Temperatura máxima	14.7
31043	7	Sololá	717	San Juan la Laguna	12	San Juan la Laguna	1	Enero	2023-01-16T00:00:00	2024-11-08T02:00:00	3	Temperatura mínima	14.1
31044	7	Sololá	717	San Juan la Laguna	12	San Juan la Laguna	1	Enero	2023-01-16T00:00:00	2024-11-08T02:00:00	5	Humedad	76
31045	7	Sololá	717	San Juan la Laguna	12	San Juan la Laguna	1	Enero	2023-01-16T00:00:00	2024-11-08T02:00:00	6	Velocidad del viento	6.4
31046	7	Sololá	717	San Juan la Laguna	12	San Juan la Laguna	1	Enero	2023-01-16T00:00:00	2024-11-08T02:00:00	7	Dirección del viento	6.44
31047	7	Sololá	717	San Juan la Laguna	12	San Juan la Laguna	1	Enero	2023-01-16T00:00:00	2024-11-08T02:00:00	1	Precipitación	0
31048	7	Sololá	717	San Juan la Laguna	12	San Juan la Laguna	1	Enero	2023-01-16T00:00:00	2024-11-08T02:00:00	8	Radiación solar	0
31049	7	Sololá	717	San Juan la Laguna	12	San Juan la Laguna	1	Enero	2023-01-16T00:00:00	2024-11-08T03:00:00	2	Temperatura media	13.4
31050	7	Sololá	717	San Juan la Laguna	12	San Juan la Laguna	1	Enero	2023-01-16T00:00:00	2024-11-08T03:00:00	4	Temperatura máxima	14.2
31051	7	Sololá	717	San Juan la Laguna	12	San Juan la Laguna	1	Enero	2023-01-16T00:00:00	2024-11-08T03:00:00	3	Temperatura mínima	13.4
31052	7	Sololá	717	San Juan la Laguna	12	San Juan la Laguna	1	Enero	2023-01-16T00:00:00	2024-11-08T03:00:00	5	Humedad	79
31053	7	Sololá	717	San Juan la Laguna	12	San Juan la Laguna	1	Enero	2023-01-16T00:00:00	2024-11-08T03:00:00	6	Velocidad del viento	4.8
31054	7	Sololá	717	San Juan la Laguna	12	San Juan la Laguna	1	Enero	2023-01-16T00:00:00	2024-11-08T03:00:00	7	Dirección del viento	4.83
31055	7	Sololá	717	San Juan la Laguna	12	San Juan la Laguna	1	Enero	2023-01-16T00:00:00	2024-11-08T03:00:00	1	Precipitación	0
31056	7	Sololá	717	San Juan la Laguna	12	San Juan la Laguna	1	Enero	2023-01-16T00:00:00	2024-11-08T03:00:00	8	Radiación solar	0
31057	7	Sololá	717	San Juan la Laguna	12	San Juan la Laguna	1	Enero	2023-01-16T00:00:00	2024-11-08T04:00:00	2	Temperatura media	13.2
31058	7	Sololá	717	San Juan la Laguna	12	San Juan la Laguna	1	Enero	2023-01-16T00:00:00	2024-11-08T04:00:00	4	Temperatura máxima	13.4
31059	7	Sololá	717	San Juan la Laguna	12	San Juan la Laguna	1	Enero	2023-01-16T00:00:00	2024-11-08T04:00:00	3	Temperatura mínima	13.2
31060	7	Sololá	717	San Juan la Laguna	12	San Juan la Laguna	1	Enero	2023-01-16T00:00:00	2024-11-08T04:00:00	5	Humedad	77
31061	7	Sololá	717	San Juan la Laguna	12	San Juan la Laguna	1	Enero	2023-01-16T00:00:00	2024-11-08T04:00:00	6	Velocidad del viento	6.4
31062	7	Sololá	717	San Juan la Laguna	12	San Juan la Laguna	1	Enero	2023-01-16T00:00:00	2024-11-08T04:00:00	7	Dirección del viento	6.44
31063	7	Sololá	717	San Juan la Laguna	12	San Juan la Laguna	1	Enero	2023-01-16T00:00:00	2024-11-08T04:00:00	1	Precipitación	0
31064	7	Sololá	717	San Juan la Laguna	12	San Juan la Laguna	1	Enero	2023-01-16T00:00:00	2024-11-08T04:00:00	8	Radiación solar	0
31065	7	Sololá	717	San Juan la Laguna	12	San Juan la Laguna	1	Enero	2023-01-16T00:00:00	2024-11-08T05:00:00	2	Temperatura media	12.4
31066	7	Sololá	717	San Juan la Laguna	12	San Juan la Laguna	1	Enero	2023-01-16T00:00:00	2024-11-08T05:00:00	4	Temperatura máxima	13.3
31067	7	Sololá	717	San Juan la Laguna	12	San Juan la Laguna	1	Enero	2023-01-16T00:00:00	2024-11-08T05:00:00	3	Temperatura mínima	12.4
31068	7	Sololá	717	San Juan la Laguna	12	San Juan la Laguna	1	Enero	2023-01-16T00:00:00	2024-11-08T05:00:00	5	Humedad	80
31069	7	Sololá	717	San Juan la Laguna	12	San Juan la Laguna	1	Enero	2023-01-16T00:00:00	2024-11-08T05:00:00	6	Velocidad del viento	3.2
31070	7	Sololá	717	San Juan la Laguna	12	San Juan la Laguna	1	Enero	2023-01-16T00:00:00	2024-11-08T05:00:00	7	Dirección del viento	3.22
31071	7	Sololá	717	San Juan la Laguna	12	San Juan la Laguna	1	Enero	2023-01-16T00:00:00	2024-11-08T05:00:00	1	Precipitación	0
31072	7	Sololá	717	San Juan la Laguna	12	San Juan la Laguna	1	Enero	2023-01-16T00:00:00	2024-11-08T05:00:00	8	Radiación solar	0
31073	7	Sololá	717	San Juan la Laguna	12	San Juan la Laguna	1	Enero	2023-01-16T00:00:00	2024-11-08T06:00:00	2	Temperatura media	12.3
31074	7	Sololá	717	San Juan la Laguna	12	San Juan la Laguna	1	Enero	2023-01-16T00:00:00	2024-11-08T06:00:00	4	Temperatura máxima	12.6
31075	7	Sololá	717	San Juan la Laguna	12	San Juan la Laguna	1	Enero	2023-01-16T00:00:00	2024-11-08T06:00:00	3	Temperatura mínima	11.8
31076	7	Sololá	717	San Juan la Laguna	12	San Juan la Laguna	1	Enero	2023-01-16T00:00:00	2024-11-08T06:00:00	5	Humedad	79
31077	7	Sololá	717	San Juan la Laguna	12	San Juan la Laguna	1	Enero	2023-01-16T00:00:00	2024-11-08T06:00:00	6	Velocidad del viento	3.2
31078	7	Sololá	717	San Juan la Laguna	12	San Juan la Laguna	1	Enero	2023-01-16T00:00:00	2024-11-08T06:00:00	7	Dirección del viento	3.22
31079	7	Sololá	717	San Juan la Laguna	12	San Juan la Laguna	1	Enero	2023-01-16T00:00:00	2024-11-08T06:00:00	1	Precipitación	0
31080	7	Sololá	717	San Juan la Laguna	12	San Juan la Laguna	1	Enero	2023-01-16T00:00:00	2024-11-08T06:00:00	8	Radiación solar	0
31081	7	Sololá	717	San Juan la Laguna	12	San Juan la Laguna	1	Enero	2023-01-16T00:00:00	2024-11-08T07:00:00	2	Temperatura media	11.6
31082	7	Sololá	717	San Juan la Laguna	12	San Juan la Laguna	1	Enero	2023-01-16T00:00:00	2024-11-08T07:00:00	4	Temperatura máxima	12.3
31083	7	Sololá	717	San Juan la Laguna	12	San Juan la Laguna	1	Enero	2023-01-16T00:00:00	2024-11-08T07:00:00	3	Temperatura mínima	11.4
31084	7	Sololá	717	San Juan la Laguna	12	San Juan la Laguna	1	Enero	2023-01-16T00:00:00	2024-11-08T07:00:00	5	Humedad	81
31085	7	Sololá	717	San Juan la Laguna	12	San Juan la Laguna	1	Enero	2023-01-16T00:00:00	2024-11-08T07:00:00	6	Velocidad del viento	3.2
31086	7	Sololá	717	San Juan la Laguna	12	San Juan la Laguna	1	Enero	2023-01-16T00:00:00	2024-11-08T07:00:00	7	Dirección del viento	3.22
31087	7	Sololá	717	San Juan la Laguna	12	San Juan la Laguna	1	Enero	2023-01-16T00:00:00	2024-11-08T07:00:00	1	Precipitación	0
31088	7	Sololá	717	San Juan la Laguna	12	San Juan la Laguna	1	Enero	2023-01-16T00:00:00	2024-11-08T07:00:00	8	Radiación solar	7
31089	7	Sololá	717	San Juan la Laguna	12	San Juan la Laguna	1	Enero	2023-01-16T00:00:00	2024-11-08T08:00:00	2	Temperatura media	13.9
31090	7	Sololá	717	San Juan la Laguna	12	San Juan la Laguna	1	Enero	2023-01-16T00:00:00	2024-11-08T08:00:00	4	Temperatura máxima	13.9
31091	7	Sololá	717	San Juan la Laguna	12	San Juan la Laguna	1	Enero	2023-01-16T00:00:00	2024-11-08T08:00:00	3	Temperatura mínima	11.6
31092	7	Sololá	717	San Juan la Laguna	12	San Juan la Laguna	1	Enero	2023-01-16T00:00:00	2024-11-08T08:00:00	5	Humedad	77
31093	7	Sololá	717	San Juan la Laguna	12	San Juan la Laguna	1	Enero	2023-01-16T00:00:00	2024-11-08T08:00:00	6	Velocidad del viento	1.6
31094	7	Sololá	717	San Juan la Laguna	12	San Juan la Laguna	1	Enero	2023-01-16T00:00:00	2024-11-08T08:00:00	7	Dirección del viento	1.61
31095	7	Sololá	717	San Juan la Laguna	12	San Juan la Laguna	1	Enero	2023-01-16T00:00:00	2024-11-08T08:00:00	1	Precipitación	0
31096	7	Sololá	717	San Juan la Laguna	12	San Juan la Laguna	1	Enero	2023-01-16T00:00:00	2024-11-08T08:00:00	8	Radiación solar	121
31097	7	Sololá	717	San Juan la Laguna	12	San Juan la Laguna	1	Enero	2023-01-16T00:00:00	2024-11-08T09:00:00	2	Temperatura media	17.4
31098	7	Sololá	717	San Juan la Laguna	12	San Juan la Laguna	1	Enero	2023-01-16T00:00:00	2024-11-08T09:00:00	4	Temperatura máxima	17.4
31099	7	Sololá	717	San Juan la Laguna	12	San Juan la Laguna	1	Enero	2023-01-16T00:00:00	2024-11-08T09:00:00	3	Temperatura mínima	13.9
31100	7	Sololá	717	San Juan la Laguna	12	San Juan la Laguna	1	Enero	2023-01-16T00:00:00	2024-11-08T09:00:00	5	Humedad	74
31101	7	Sololá	717	San Juan la Laguna	12	San Juan la Laguna	1	Enero	2023-01-16T00:00:00	2024-11-08T09:00:00	6	Velocidad del viento	1.6
31102	7	Sololá	717	San Juan la Laguna	12	San Juan la Laguna	1	Enero	2023-01-16T00:00:00	2024-11-08T09:00:00	7	Dirección del viento	1.61
31103	7	Sololá	717	San Juan la Laguna	12	San Juan la Laguna	1	Enero	2023-01-16T00:00:00	2024-11-08T09:00:00	1	Precipitación	0
31104	7	Sololá	717	San Juan la Laguna	12	San Juan la Laguna	1	Enero	2023-01-16T00:00:00	2024-11-08T09:00:00	8	Radiación solar	330
31105	7	Sololá	717	San Juan la Laguna	12	San Juan la Laguna	1	Enero	2023-01-16T00:00:00	2024-11-08T10:00:00	2	Temperatura media	18.4
31106	7	Sololá	717	San Juan la Laguna	12	San Juan la Laguna	1	Enero	2023-01-16T00:00:00	2024-11-08T10:00:00	4	Temperatura máxima	18.4
31107	7	Sololá	717	San Juan la Laguna	12	San Juan la Laguna	1	Enero	2023-01-16T00:00:00	2024-11-08T10:00:00	3	Temperatura mínima	17.4
31108	7	Sololá	717	San Juan la Laguna	12	San Juan la Laguna	1	Enero	2023-01-16T00:00:00	2024-11-08T10:00:00	5	Humedad	70
31109	7	Sololá	717	San Juan la Laguna	12	San Juan la Laguna	1	Enero	2023-01-16T00:00:00	2024-11-08T10:00:00	6	Velocidad del viento	3.2
31110	7	Sololá	717	San Juan la Laguna	12	San Juan la Laguna	1	Enero	2023-01-16T00:00:00	2024-11-08T10:00:00	7	Dirección del viento	3.22
31111	7	Sololá	717	San Juan la Laguna	12	San Juan la Laguna	1	Enero	2023-01-16T00:00:00	2024-11-08T10:00:00	1	Precipitación	0
31112	7	Sololá	717	San Juan la Laguna	12	San Juan la Laguna	1	Enero	2023-01-16T00:00:00	2024-11-08T10:00:00	8	Radiación solar	525
31113	7	Sololá	717	San Juan la Laguna	12	San Juan la Laguna	1	Enero	2023-01-16T00:00:00	2024-11-08T11:00:00	2	Temperatura media	19.4
31114	7	Sololá	717	San Juan la Laguna	12	San Juan la Laguna	1	Enero	2023-01-16T00:00:00	2024-11-08T11:00:00	4	Temperatura máxima	19.4
31115	7	Sololá	717	San Juan la Laguna	12	San Juan la Laguna	1	Enero	2023-01-16T00:00:00	2024-11-08T11:00:00	3	Temperatura mínima	18.4
31116	7	Sololá	717	San Juan la Laguna	12	San Juan la Laguna	1	Enero	2023-01-16T00:00:00	2024-11-08T11:00:00	5	Humedad	62
31117	7	Sololá	717	San Juan la Laguna	12	San Juan la Laguna	1	Enero	2023-01-16T00:00:00	2024-11-08T11:00:00	6	Velocidad del viento	4.8
31118	7	Sololá	717	San Juan la Laguna	12	San Juan la Laguna	1	Enero	2023-01-16T00:00:00	2024-11-08T11:00:00	7	Dirección del viento	4.83
31119	7	Sololá	717	San Juan la Laguna	12	San Juan la Laguna	1	Enero	2023-01-16T00:00:00	2024-11-08T11:00:00	1	Precipitación	0
31120	7	Sololá	717	San Juan la Laguna	12	San Juan la Laguna	1	Enero	2023-01-16T00:00:00	2024-11-08T11:00:00	8	Radiación solar	634
31121	7	Sololá	717	San Juan la Laguna	12	San Juan la Laguna	1	Enero	2023-01-16T00:00:00	2024-11-08T12:00:00	2	Temperatura media	21.5
31122	7	Sololá	717	San Juan la Laguna	12	San Juan la Laguna	1	Enero	2023-01-16T00:00:00	2024-11-08T12:00:00	4	Temperatura máxima	21.5
31123	7	Sololá	717	San Juan la Laguna	12	San Juan la Laguna	1	Enero	2023-01-16T00:00:00	2024-11-08T12:00:00	3	Temperatura mínima	19.4
31124	7	Sololá	717	San Juan la Laguna	12	San Juan la Laguna	1	Enero	2023-01-16T00:00:00	2024-11-08T12:00:00	5	Humedad	58
31125	7	Sololá	717	San Juan la Laguna	12	San Juan la Laguna	1	Enero	2023-01-16T00:00:00	2024-11-08T12:00:00	6	Velocidad del viento	4.8
31126	7	Sololá	717	San Juan la Laguna	12	San Juan la Laguna	1	Enero	2023-01-16T00:00:00	2024-11-08T12:00:00	7	Dirección del viento	4.83
31127	7	Sololá	717	San Juan la Laguna	12	San Juan la Laguna	1	Enero	2023-01-16T00:00:00	2024-11-08T12:00:00	1	Precipitación	0
31128	7	Sololá	717	San Juan la Laguna	12	San Juan la Laguna	1	Enero	2023-01-16T00:00:00	2024-11-08T12:00:00	8	Radiación solar	691
31129	7	Sololá	717	San Juan la Laguna	12	San Juan la Laguna	1	Enero	2023-01-16T00:00:00	2024-11-08T13:00:00	2	Temperatura media	21.7
31130	7	Sololá	717	San Juan la Laguna	12	San Juan la Laguna	1	Enero	2023-01-16T00:00:00	2024-11-08T13:00:00	4	Temperatura máxima	21.7
31131	7	Sololá	717	San Juan la Laguna	12	San Juan la Laguna	1	Enero	2023-01-16T00:00:00	2024-11-08T13:00:00	3	Temperatura mínima	20.7
31132	7	Sololá	717	San Juan la Laguna	12	San Juan la Laguna	1	Enero	2023-01-16T00:00:00	2024-11-08T13:00:00	5	Humedad	63
31133	7	Sololá	717	San Juan la Laguna	12	San Juan la Laguna	1	Enero	2023-01-16T00:00:00	2024-11-08T13:00:00	6	Velocidad del viento	4.8
31134	7	Sololá	717	San Juan la Laguna	12	San Juan la Laguna	1	Enero	2023-01-16T00:00:00	2024-11-08T13:00:00	7	Dirección del viento	4.83
31135	7	Sololá	717	San Juan la Laguna	12	San Juan la Laguna	1	Enero	2023-01-16T00:00:00	2024-11-08T13:00:00	1	Precipitación	0
31136	7	Sololá	717	San Juan la Laguna	12	San Juan la Laguna	1	Enero	2023-01-16T00:00:00	2024-11-08T13:00:00	8	Radiación solar	759
31137	7	Sololá	717	San Juan la Laguna	12	San Juan la Laguna	1	Enero	2023-01-16T00:00:00	2024-11-08T14:00:00	2	Temperatura media	21.5
31138	7	Sololá	717	San Juan la Laguna	12	San Juan la Laguna	1	Enero	2023-01-16T00:00:00	2024-11-08T14:00:00	4	Temperatura máxima	22.3
31139	7	Sololá	717	San Juan la Laguna	12	San Juan la Laguna	1	Enero	2023-01-16T00:00:00	2024-11-08T14:00:00	3	Temperatura mínima	21.3
31140	7	Sololá	717	San Juan la Laguna	12	San Juan la Laguna	1	Enero	2023-01-16T00:00:00	2024-11-08T14:00:00	5	Humedad	67
31141	7	Sololá	717	San Juan la Laguna	12	San Juan la Laguna	1	Enero	2023-01-16T00:00:00	2024-11-08T14:00:00	6	Velocidad del viento	9.7
31142	7	Sololá	717	San Juan la Laguna	12	San Juan la Laguna	1	Enero	2023-01-16T00:00:00	2024-11-08T14:00:00	7	Dirección del viento	9.66
31143	7	Sololá	717	San Juan la Laguna	12	San Juan la Laguna	1	Enero	2023-01-16T00:00:00	2024-11-08T14:00:00	1	Precipitación	0
31144	7	Sololá	717	San Juan la Laguna	12	San Juan la Laguna	1	Enero	2023-01-16T00:00:00	2024-11-08T14:00:00	8	Radiación solar	735
31145	7	Sololá	717	San Juan la Laguna	12	San Juan la Laguna	1	Enero	2023-01-16T00:00:00	2024-11-08T15:00:00	2	Temperatura media	21.2
31146	7	Sololá	717	San Juan la Laguna	12	San Juan la Laguna	1	Enero	2023-01-16T00:00:00	2024-11-08T15:00:00	4	Temperatura máxima	21.8
31147	7	Sololá	717	San Juan la Laguna	12	San Juan la Laguna	1	Enero	2023-01-16T00:00:00	2024-11-08T15:00:00	3	Temperatura mínima	21.2
31148	7	Sololá	717	San Juan la Laguna	12	San Juan la Laguna	1	Enero	2023-01-16T00:00:00	2024-11-08T15:00:00	5	Humedad	68
31149	7	Sololá	717	San Juan la Laguna	12	San Juan la Laguna	1	Enero	2023-01-16T00:00:00	2024-11-08T15:00:00	6	Velocidad del viento	9.7
31150	7	Sololá	717	San Juan la Laguna	12	San Juan la Laguna	1	Enero	2023-01-16T00:00:00	2024-11-08T15:00:00	7	Dirección del viento	9.66
31151	7	Sololá	717	San Juan la Laguna	12	San Juan la Laguna	1	Enero	2023-01-16T00:00:00	2024-11-08T15:00:00	1	Precipitación	0
31152	7	Sololá	717	San Juan la Laguna	12	San Juan la Laguna	1	Enero	2023-01-16T00:00:00	2024-11-08T15:00:00	8	Radiación solar	642
31153	7	Sololá	717	San Juan la Laguna	12	San Juan la Laguna	1	Enero	2023-01-16T00:00:00	2024-11-08T16:00:00	2	Temperatura media	20.7
31154	7	Sololá	717	San Juan la Laguna	12	San Juan la Laguna	1	Enero	2023-01-16T00:00:00	2024-11-08T16:00:00	4	Temperatura máxima	21.1
31155	7	Sololá	717	San Juan la Laguna	12	San Juan la Laguna	1	Enero	2023-01-16T00:00:00	2024-11-08T16:00:00	3	Temperatura mínima	20.6
31156	7	Sololá	717	San Juan la Laguna	12	San Juan la Laguna	1	Enero	2023-01-16T00:00:00	2024-11-08T16:00:00	5	Humedad	69
31157	7	Sololá	717	San Juan la Laguna	12	San Juan la Laguna	1	Enero	2023-01-16T00:00:00	2024-11-08T16:00:00	6	Velocidad del viento	9.7
31158	7	Sololá	717	San Juan la Laguna	12	San Juan la Laguna	1	Enero	2023-01-16T00:00:00	2024-11-08T16:00:00	7	Dirección del viento	9.66
31159	7	Sololá	717	San Juan la Laguna	12	San Juan la Laguna	1	Enero	2023-01-16T00:00:00	2024-11-08T16:00:00	1	Precipitación	0
31160	7	Sololá	717	San Juan la Laguna	12	San Juan la Laguna	1	Enero	2023-01-16T00:00:00	2024-11-08T16:00:00	8	Radiación solar	383
31161	7	Sololá	717	San Juan la Laguna	12	San Juan la Laguna	1	Enero	2023-01-16T00:00:00	2024-11-08T17:00:00	2	Temperatura media	19.1
31162	7	Sololá	717	San Juan la Laguna	12	San Juan la Laguna	1	Enero	2023-01-16T00:00:00	2024-11-08T17:00:00	4	Temperatura máxima	20.7
31163	7	Sololá	717	San Juan la Laguna	12	San Juan la Laguna	1	Enero	2023-01-16T00:00:00	2024-11-08T17:00:00	3	Temperatura mínima	19.1
31164	7	Sololá	717	San Juan la Laguna	12	San Juan la Laguna	1	Enero	2023-01-16T00:00:00	2024-11-08T17:00:00	5	Humedad	76
31165	7	Sololá	717	San Juan la Laguna	12	San Juan la Laguna	1	Enero	2023-01-16T00:00:00	2024-11-08T17:00:00	6	Velocidad del viento	6.4
31166	7	Sololá	717	San Juan la Laguna	12	San Juan la Laguna	1	Enero	2023-01-16T00:00:00	2024-11-08T17:00:00	7	Dirección del viento	6.44
31167	7	Sololá	717	San Juan la Laguna	12	San Juan la Laguna	1	Enero	2023-01-16T00:00:00	2024-11-08T17:00:00	1	Precipitación	0
31168	7	Sololá	717	San Juan la Laguna	12	San Juan la Laguna	1	Enero	2023-01-16T00:00:00	2024-11-08T17:00:00	8	Radiación solar	174
31169	7	Sololá	717	San Juan la Laguna	12	San Juan la Laguna	1	Enero	2023-01-16T00:00:00	2024-11-08T18:00:00	2	Temperatura media	18.3
31170	7	Sololá	717	San Juan la Laguna	12	San Juan la Laguna	1	Enero	2023-01-16T00:00:00	2024-11-08T18:00:00	4	Temperatura máxima	19.2
31171	7	Sololá	717	San Juan la Laguna	12	San Juan la Laguna	1	Enero	2023-01-16T00:00:00	2024-11-08T18:00:00	3	Temperatura mínima	18.3
31172	7	Sololá	717	San Juan la Laguna	12	San Juan la Laguna	1	Enero	2023-01-16T00:00:00	2024-11-08T18:00:00	5	Humedad	79
31173	7	Sololá	717	San Juan la Laguna	12	San Juan la Laguna	1	Enero	2023-01-16T00:00:00	2024-11-08T18:00:00	6	Velocidad del viento	4.8
31174	7	Sololá	717	San Juan la Laguna	12	San Juan la Laguna	1	Enero	2023-01-16T00:00:00	2024-11-08T18:00:00	7	Dirección del viento	4.83
31175	7	Sololá	717	San Juan la Laguna	12	San Juan la Laguna	1	Enero	2023-01-16T00:00:00	2024-11-08T18:00:00	1	Precipitación	0
31176	7	Sololá	717	San Juan la Laguna	12	San Juan la Laguna	1	Enero	2023-01-16T00:00:00	2024-11-08T18:00:00	8	Radiación solar	26
31177	7	Sololá	717	San Juan la Laguna	12	San Juan la Laguna	1	Enero	2023-01-16T00:00:00	2024-11-08T19:00:00	2	Temperatura media	18.1
31178	7	Sololá	717	San Juan la Laguna	12	San Juan la Laguna	1	Enero	2023-01-16T00:00:00	2024-11-08T19:00:00	4	Temperatura máxima	18.3
31179	7	Sololá	717	San Juan la Laguna	12	San Juan la Laguna	1	Enero	2023-01-16T00:00:00	2024-11-08T19:00:00	3	Temperatura mínima	18.1
31180	7	Sololá	717	San Juan la Laguna	12	San Juan la Laguna	1	Enero	2023-01-16T00:00:00	2024-11-08T19:00:00	5	Humedad	80
31181	7	Sololá	717	San Juan la Laguna	12	San Juan la Laguna	1	Enero	2023-01-16T00:00:00	2024-11-08T19:00:00	6	Velocidad del viento	3.2
31182	7	Sololá	717	San Juan la Laguna	12	San Juan la Laguna	1	Enero	2023-01-16T00:00:00	2024-11-08T19:00:00	7	Dirección del viento	3.22
31183	7	Sololá	717	San Juan la Laguna	12	San Juan la Laguna	1	Enero	2023-01-16T00:00:00	2024-11-08T19:00:00	1	Precipitación	0
31184	7	Sololá	717	San Juan la Laguna	12	San Juan la Laguna	1	Enero	2023-01-16T00:00:00	2024-11-08T19:00:00	8	Radiación solar	0
31185	7	Sololá	717	San Juan la Laguna	12	San Juan la Laguna	1	Enero	2023-01-16T00:00:00	2024-11-08T20:00:00	2	Temperatura media	17.9
31186	7	Sololá	717	San Juan la Laguna	12	San Juan la Laguna	1	Enero	2023-01-16T00:00:00	2024-11-08T20:00:00	4	Temperatura máxima	18.1
31187	7	Sololá	717	San Juan la Laguna	12	San Juan la Laguna	1	Enero	2023-01-16T00:00:00	2024-11-08T20:00:00	3	Temperatura mínima	17.6
31188	7	Sololá	717	San Juan la Laguna	12	San Juan la Laguna	1	Enero	2023-01-16T00:00:00	2024-11-08T20:00:00	5	Humedad	84
31189	7	Sololá	717	San Juan la Laguna	12	San Juan la Laguna	1	Enero	2023-01-16T00:00:00	2024-11-08T20:00:00	6	Velocidad del viento	1.6
31190	7	Sololá	717	San Juan la Laguna	12	San Juan la Laguna	1	Enero	2023-01-16T00:00:00	2024-11-08T20:00:00	7	Dirección del viento	1.61
31191	7	Sololá	717	San Juan la Laguna	12	San Juan la Laguna	1	Enero	2023-01-16T00:00:00	2024-11-08T20:00:00	1	Precipitación	0
31192	7	Sololá	717	San Juan la Laguna	12	San Juan la Laguna	1	Enero	2023-01-16T00:00:00	2024-11-08T20:00:00	8	Radiación solar	0
31193	7	Sololá	717	San Juan la Laguna	12	San Juan la Laguna	1	Enero	2023-01-16T00:00:00	2024-11-08T21:00:00	2	Temperatura media	17.6
31194	7	Sololá	717	San Juan la Laguna	12	San Juan la Laguna	1	Enero	2023-01-16T00:00:00	2024-11-08T21:00:00	4	Temperatura máxima	18
31195	7	Sololá	717	San Juan la Laguna	12	San Juan la Laguna	1	Enero	2023-01-16T00:00:00	2024-11-08T21:00:00	3	Temperatura mínima	17.4
31196	7	Sololá	717	San Juan la Laguna	12	San Juan la Laguna	1	Enero	2023-01-16T00:00:00	2024-11-08T21:00:00	5	Humedad	83
31197	7	Sololá	717	San Juan la Laguna	12	San Juan la Laguna	1	Enero	2023-01-16T00:00:00	2024-11-08T21:00:00	6	Velocidad del viento	1.6
31198	7	Sololá	717	San Juan la Laguna	12	San Juan la Laguna	1	Enero	2023-01-16T00:00:00	2024-11-08T21:00:00	7	Dirección del viento	1.61
31199	7	Sololá	717	San Juan la Laguna	12	San Juan la Laguna	1	Enero	2023-01-16T00:00:00	2024-11-08T21:00:00	1	Precipitación	0
31200	7	Sololá	717	San Juan la Laguna	12	San Juan la Laguna	1	Enero	2023-01-16T00:00:00	2024-11-08T21:00:00	8	Radiación solar	0
31201	7	Sololá	717	San Juan la Laguna	12	San Juan la Laguna	1	Enero	2023-01-16T00:00:00	2024-11-08T22:00:00	2	Temperatura media	16.5
31202	7	Sololá	717	San Juan la Laguna	12	San Juan la Laguna	1	Enero	2023-01-16T00:00:00	2024-11-08T22:00:00	4	Temperatura máxima	17.6
31203	7	Sololá	717	San Juan la Laguna	12	San Juan la Laguna	1	Enero	2023-01-16T00:00:00	2024-11-08T22:00:00	3	Temperatura mínima	16.4
31204	7	Sololá	717	San Juan la Laguna	12	San Juan la Laguna	1	Enero	2023-01-16T00:00:00	2024-11-08T22:00:00	5	Humedad	86
31205	7	Sololá	717	San Juan la Laguna	12	San Juan la Laguna	1	Enero	2023-01-16T00:00:00	2024-11-08T22:00:00	6	Velocidad del viento	1.6
31206	7	Sololá	717	San Juan la Laguna	12	San Juan la Laguna	1	Enero	2023-01-16T00:00:00	2024-11-08T22:00:00	7	Dirección del viento	1.61
31207	7	Sololá	717	San Juan la Laguna	12	San Juan la Laguna	1	Enero	2023-01-16T00:00:00	2024-11-08T22:00:00	1	Precipitación	0
31208	7	Sololá	717	San Juan la Laguna	12	San Juan la Laguna	1	Enero	2023-01-16T00:00:00	2024-11-08T22:00:00	8	Radiación solar	0
31209	7	Sololá	717	San Juan la Laguna	12	San Juan la Laguna	1	Enero	2023-01-16T00:00:00	2024-11-08T23:00:00	2	Temperatura media	16.8
31210	7	Sololá	717	San Juan la Laguna	12	San Juan la Laguna	1	Enero	2023-01-16T00:00:00	2024-11-08T23:00:00	4	Temperatura máxima	16.8
31211	7	Sololá	717	San Juan la Laguna	12	San Juan la Laguna	1	Enero	2023-01-16T00:00:00	2024-11-08T23:00:00	3	Temperatura mínima	16.4
31212	7	Sololá	717	San Juan la Laguna	12	San Juan la Laguna	1	Enero	2023-01-16T00:00:00	2024-11-08T23:00:00	5	Humedad	82
31213	7	Sololá	717	San Juan la Laguna	12	San Juan la Laguna	1	Enero	2023-01-16T00:00:00	2024-11-08T23:00:00	6	Velocidad del viento	3.2
31214	7	Sololá	717	San Juan la Laguna	12	San Juan la Laguna	1	Enero	2023-01-16T00:00:00	2024-11-08T23:00:00	7	Dirección del viento	3.22
31215	7	Sololá	717	San Juan la Laguna	12	San Juan la Laguna	1	Enero	2023-01-16T00:00:00	2024-11-08T23:00:00	1	Precipitación	0
31216	7	Sololá	717	San Juan la Laguna	12	San Juan la Laguna	1	Enero	2023-01-16T00:00:00	2024-11-08T23:00:00	8	Radiación solar	0
31217	7	Sololá	717	San Juan la Laguna	12	San Juan la Laguna	1	Enero	2023-01-17T00:00:00	2024-11-08T00:00:00	2	Temperatura media	16.8
31218	7	Sololá	717	San Juan la Laguna	12	San Juan la Laguna	1	Enero	2023-01-17T00:00:00	2024-11-08T00:00:00	4	Temperatura máxima	16.9
31219	7	Sololá	717	San Juan la Laguna	12	San Juan la Laguna	1	Enero	2023-01-17T00:00:00	2024-11-08T00:00:00	3	Temperatura mínima	16.7
31220	7	Sololá	717	San Juan la Laguna	12	San Juan la Laguna	1	Enero	2023-01-17T00:00:00	2024-11-08T00:00:00	5	Humedad	82
31221	7	Sololá	717	San Juan la Laguna	12	San Juan la Laguna	1	Enero	2023-01-17T00:00:00	2024-11-08T00:00:00	6	Velocidad del viento	1.6
31222	7	Sololá	717	San Juan la Laguna	12	San Juan la Laguna	1	Enero	2023-01-17T00:00:00	2024-11-08T00:00:00	7	Dirección del viento	1.61
31223	7	Sololá	717	San Juan la Laguna	12	San Juan la Laguna	1	Enero	2023-01-17T00:00:00	2024-11-08T00:00:00	1	Precipitación	0
31224	7	Sololá	717	San Juan la Laguna	12	San Juan la Laguna	1	Enero	2023-01-17T00:00:00	2024-11-08T00:00:00	8	Radiación solar	0
31225	7	Sololá	717	San Juan la Laguna	12	San Juan la Laguna	1	Enero	2023-01-17T00:00:00	2024-11-08T01:00:00	2	Temperatura media	16.8
31226	7	Sololá	717	San Juan la Laguna	12	San Juan la Laguna	1	Enero	2023-01-17T00:00:00	2024-11-08T01:00:00	4	Temperatura máxima	16.9
31227	7	Sololá	717	San Juan la Laguna	12	San Juan la Laguna	1	Enero	2023-01-17T00:00:00	2024-11-08T01:00:00	3	Temperatura mínima	16.6
31228	7	Sololá	717	San Juan la Laguna	12	San Juan la Laguna	1	Enero	2023-01-17T00:00:00	2024-11-08T01:00:00	5	Humedad	83
31229	7	Sololá	717	San Juan la Laguna	12	San Juan la Laguna	1	Enero	2023-01-17T00:00:00	2024-11-08T01:00:00	6	Velocidad del viento	1.6
31230	7	Sololá	717	San Juan la Laguna	12	San Juan la Laguna	1	Enero	2023-01-17T00:00:00	2024-11-08T01:00:00	7	Dirección del viento	1.61
31231	7	Sololá	717	San Juan la Laguna	12	San Juan la Laguna	1	Enero	2023-01-17T00:00:00	2024-11-08T01:00:00	1	Precipitación	0
31232	7	Sololá	717	San Juan la Laguna	12	San Juan la Laguna	1	Enero	2023-01-17T00:00:00	2024-11-08T01:00:00	8	Radiación solar	0
31233	7	Sololá	717	San Juan la Laguna	12	San Juan la Laguna	1	Enero	2023-01-17T00:00:00	2024-11-08T02:00:00	2	Temperatura media	16.4
31234	7	Sololá	717	San Juan la Laguna	12	San Juan la Laguna	1	Enero	2023-01-17T00:00:00	2024-11-08T02:00:00	4	Temperatura máxima	16.9
31235	7	Sololá	717	San Juan la Laguna	12	San Juan la Laguna	1	Enero	2023-01-17T00:00:00	2024-11-08T02:00:00	3	Temperatura mínima	16.4
31236	7	Sololá	717	San Juan la Laguna	12	San Juan la Laguna	1	Enero	2023-01-17T00:00:00	2024-11-08T02:00:00	5	Humedad	83
31237	7	Sololá	717	San Juan la Laguna	12	San Juan la Laguna	1	Enero	2023-01-17T00:00:00	2024-11-08T02:00:00	6	Velocidad del viento	1.6
31238	7	Sololá	717	San Juan la Laguna	12	San Juan la Laguna	1	Enero	2023-01-17T00:00:00	2024-11-08T02:00:00	7	Dirección del viento	1.61
31239	7	Sololá	717	San Juan la Laguna	12	San Juan la Laguna	1	Enero	2023-01-17T00:00:00	2024-11-08T02:00:00	1	Precipitación	0
31240	7	Sololá	717	San Juan la Laguna	12	San Juan la Laguna	1	Enero	2023-01-17T00:00:00	2024-11-08T02:00:00	8	Radiación solar	0
31241	7	Sololá	717	San Juan la Laguna	12	San Juan la Laguna	1	Enero	2023-01-17T00:00:00	2024-11-08T03:00:00	2	Temperatura media	15.2
31242	7	Sololá	717	San Juan la Laguna	12	San Juan la Laguna	1	Enero	2023-01-17T00:00:00	2024-11-08T03:00:00	4	Temperatura máxima	16.5
31243	7	Sololá	717	San Juan la Laguna	12	San Juan la Laguna	1	Enero	2023-01-17T00:00:00	2024-11-08T03:00:00	3	Temperatura mínima	15.2
31244	7	Sololá	717	San Juan la Laguna	12	San Juan la Laguna	1	Enero	2023-01-17T00:00:00	2024-11-08T03:00:00	5	Humedad	85
31245	7	Sololá	717	San Juan la Laguna	12	San Juan la Laguna	1	Enero	2023-01-17T00:00:00	2024-11-08T03:00:00	6	Velocidad del viento	3.2
31246	7	Sololá	717	San Juan la Laguna	12	San Juan la Laguna	1	Enero	2023-01-17T00:00:00	2024-11-08T03:00:00	7	Dirección del viento	3.22
31247	7	Sololá	717	San Juan la Laguna	12	San Juan la Laguna	1	Enero	2023-01-17T00:00:00	2024-11-08T03:00:00	1	Precipitación	0
31248	7	Sololá	717	San Juan la Laguna	12	San Juan la Laguna	1	Enero	2023-01-17T00:00:00	2024-11-08T03:00:00	8	Radiación solar	0
31249	7	Sololá	717	San Juan la Laguna	12	San Juan la Laguna	1	Enero	2023-01-17T00:00:00	2024-11-08T04:00:00	2	Temperatura media	14.7
31250	7	Sololá	717	San Juan la Laguna	12	San Juan la Laguna	1	Enero	2023-01-17T00:00:00	2024-11-08T04:00:00	4	Temperatura máxima	15.2
31251	7	Sololá	717	San Juan la Laguna	12	San Juan la Laguna	1	Enero	2023-01-17T00:00:00	2024-11-08T04:00:00	3	Temperatura mínima	14.7
31252	7	Sololá	717	San Juan la Laguna	12	San Juan la Laguna	1	Enero	2023-01-17T00:00:00	2024-11-08T04:00:00	5	Humedad	85
31253	7	Sololá	717	San Juan la Laguna	12	San Juan la Laguna	1	Enero	2023-01-17T00:00:00	2024-11-08T04:00:00	6	Velocidad del viento	3.2
31254	7	Sololá	717	San Juan la Laguna	12	San Juan la Laguna	1	Enero	2023-01-17T00:00:00	2024-11-08T04:00:00	7	Dirección del viento	3.22
31255	7	Sololá	717	San Juan la Laguna	12	San Juan la Laguna	1	Enero	2023-01-17T00:00:00	2024-11-08T04:00:00	1	Precipitación	0
31256	7	Sololá	717	San Juan la Laguna	12	San Juan la Laguna	1	Enero	2023-01-17T00:00:00	2024-11-08T04:00:00	8	Radiación solar	0
31257	7	Sololá	717	San Juan la Laguna	12	San Juan la Laguna	1	Enero	2023-01-17T00:00:00	2024-11-08T05:00:00	2	Temperatura media	14
31258	7	Sololá	717	San Juan la Laguna	12	San Juan la Laguna	1	Enero	2023-01-17T00:00:00	2024-11-08T05:00:00	4	Temperatura máxima	14.7
31259	7	Sololá	717	San Juan la Laguna	12	San Juan la Laguna	1	Enero	2023-01-17T00:00:00	2024-11-08T05:00:00	3	Temperatura mínima	14
31260	7	Sololá	717	San Juan la Laguna	12	San Juan la Laguna	1	Enero	2023-01-17T00:00:00	2024-11-08T05:00:00	5	Humedad	84
31261	7	Sololá	717	San Juan la Laguna	12	San Juan la Laguna	1	Enero	2023-01-17T00:00:00	2024-11-08T05:00:00	6	Velocidad del viento	3.2
31262	7	Sololá	717	San Juan la Laguna	12	San Juan la Laguna	1	Enero	2023-01-17T00:00:00	2024-11-08T05:00:00	7	Dirección del viento	3.22
31263	7	Sololá	717	San Juan la Laguna	12	San Juan la Laguna	1	Enero	2023-01-17T00:00:00	2024-11-08T05:00:00	1	Precipitación	0
31264	7	Sololá	717	San Juan la Laguna	12	San Juan la Laguna	1	Enero	2023-01-17T00:00:00	2024-11-08T05:00:00	8	Radiación solar	0
31265	7	Sololá	717	San Juan la Laguna	12	San Juan la Laguna	1	Enero	2023-01-17T00:00:00	2024-11-08T06:00:00	2	Temperatura media	13.2
31266	7	Sololá	717	San Juan la Laguna	12	San Juan la Laguna	1	Enero	2023-01-17T00:00:00	2024-11-08T06:00:00	4	Temperatura máxima	14
31267	7	Sololá	717	San Juan la Laguna	12	San Juan la Laguna	1	Enero	2023-01-17T00:00:00	2024-11-08T06:00:00	3	Temperatura mínima	13.2
31268	7	Sololá	717	San Juan la Laguna	12	San Juan la Laguna	1	Enero	2023-01-17T00:00:00	2024-11-08T06:00:00	5	Humedad	83
31269	7	Sololá	717	San Juan la Laguna	12	San Juan la Laguna	1	Enero	2023-01-17T00:00:00	2024-11-08T06:00:00	6	Velocidad del viento	4.8
31270	7	Sololá	717	San Juan la Laguna	12	San Juan la Laguna	1	Enero	2023-01-17T00:00:00	2024-11-08T06:00:00	7	Dirección del viento	4.83
31271	7	Sololá	717	San Juan la Laguna	12	San Juan la Laguna	1	Enero	2023-01-17T00:00:00	2024-11-08T06:00:00	1	Precipitación	0
31272	7	Sololá	717	San Juan la Laguna	12	San Juan la Laguna	1	Enero	2023-01-17T00:00:00	2024-11-08T06:00:00	8	Radiación solar	0
31273	7	Sololá	717	San Juan la Laguna	12	San Juan la Laguna	1	Enero	2023-01-17T00:00:00	2024-11-08T07:00:00	2	Temperatura media	13.2
31274	7	Sololá	717	San Juan la Laguna	12	San Juan la Laguna	1	Enero	2023-01-17T00:00:00	2024-11-08T07:00:00	4	Temperatura máxima	13.2
31275	7	Sololá	717	San Juan la Laguna	12	San Juan la Laguna	1	Enero	2023-01-17T00:00:00	2024-11-08T07:00:00	3	Temperatura mínima	12.8
31276	7	Sololá	717	San Juan la Laguna	12	San Juan la Laguna	1	Enero	2023-01-17T00:00:00	2024-11-08T07:00:00	5	Humedad	83
31277	7	Sololá	717	San Juan la Laguna	12	San Juan la Laguna	1	Enero	2023-01-17T00:00:00	2024-11-08T07:00:00	6	Velocidad del viento	4.8
31278	7	Sololá	717	San Juan la Laguna	12	San Juan la Laguna	1	Enero	2023-01-17T00:00:00	2024-11-08T07:00:00	7	Dirección del viento	4.83
31279	7	Sololá	717	San Juan la Laguna	12	San Juan la Laguna	1	Enero	2023-01-17T00:00:00	2024-11-08T07:00:00	1	Precipitación	0
31280	7	Sololá	717	San Juan la Laguna	12	San Juan la Laguna	1	Enero	2023-01-17T00:00:00	2024-11-08T07:00:00	8	Radiación solar	5
31281	7	Sololá	717	San Juan la Laguna	12	San Juan la Laguna	1	Enero	2023-01-17T00:00:00	2024-11-08T08:00:00	2	Temperatura media	15.5
31282	7	Sololá	717	San Juan la Laguna	12	San Juan la Laguna	1	Enero	2023-01-17T00:00:00	2024-11-08T08:00:00	4	Temperatura máxima	15.5
31283	7	Sololá	717	San Juan la Laguna	12	San Juan la Laguna	1	Enero	2023-01-17T00:00:00	2024-11-08T08:00:00	3	Temperatura mínima	13.2
31284	7	Sololá	717	San Juan la Laguna	12	San Juan la Laguna	1	Enero	2023-01-17T00:00:00	2024-11-08T08:00:00	5	Humedad	80
31285	7	Sololá	717	San Juan la Laguna	12	San Juan la Laguna	1	Enero	2023-01-17T00:00:00	2024-11-08T08:00:00	6	Velocidad del viento	3.2
31286	7	Sololá	717	San Juan la Laguna	12	San Juan la Laguna	1	Enero	2023-01-17T00:00:00	2024-11-08T08:00:00	7	Dirección del viento	3.22
31287	7	Sololá	717	San Juan la Laguna	12	San Juan la Laguna	1	Enero	2023-01-17T00:00:00	2024-11-08T08:00:00	1	Precipitación	0
31288	7	Sololá	717	San Juan la Laguna	12	San Juan la Laguna	1	Enero	2023-01-17T00:00:00	2024-11-08T08:00:00	8	Radiación solar	115
31289	7	Sololá	717	San Juan la Laguna	12	San Juan la Laguna	1	Enero	2023-01-17T00:00:00	2024-11-08T09:00:00	2	Temperatura media	18.7
31290	7	Sololá	717	San Juan la Laguna	12	San Juan la Laguna	1	Enero	2023-01-17T00:00:00	2024-11-08T09:00:00	4	Temperatura máxima	18.7
31291	7	Sololá	717	San Juan la Laguna	12	San Juan la Laguna	1	Enero	2023-01-17T00:00:00	2024-11-08T09:00:00	3	Temperatura mínima	15.5
31292	7	Sololá	717	San Juan la Laguna	12	San Juan la Laguna	1	Enero	2023-01-17T00:00:00	2024-11-08T09:00:00	5	Humedad	75
31293	7	Sololá	717	San Juan la Laguna	12	San Juan la Laguna	1	Enero	2023-01-17T00:00:00	2024-11-08T09:00:00	6	Velocidad del viento	1.6
31294	7	Sololá	717	San Juan la Laguna	12	San Juan la Laguna	1	Enero	2023-01-17T00:00:00	2024-11-08T09:00:00	7	Dirección del viento	1.61
31295	7	Sololá	717	San Juan la Laguna	12	San Juan la Laguna	1	Enero	2023-01-17T00:00:00	2024-11-08T09:00:00	1	Precipitación	0
31296	7	Sololá	717	San Juan la Laguna	12	San Juan la Laguna	1	Enero	2023-01-17T00:00:00	2024-11-08T09:00:00	8	Radiación solar	300
31297	7	Sololá	717	San Juan la Laguna	12	San Juan la Laguna	1	Enero	2023-01-17T00:00:00	2024-11-08T10:00:00	2	Temperatura media	18.8
31298	7	Sololá	717	San Juan la Laguna	12	San Juan la Laguna	1	Enero	2023-01-17T00:00:00	2024-11-08T10:00:00	4	Temperatura máxima	19.2
31299	7	Sololá	717	San Juan la Laguna	12	San Juan la Laguna	1	Enero	2023-01-17T00:00:00	2024-11-08T10:00:00	3	Temperatura mínima	18.6
31300	7	Sololá	717	San Juan la Laguna	12	San Juan la Laguna	1	Enero	2023-01-17T00:00:00	2024-11-08T10:00:00	5	Humedad	75
31301	7	Sololá	717	San Juan la Laguna	12	San Juan la Laguna	1	Enero	2023-01-17T00:00:00	2024-11-08T10:00:00	6	Velocidad del viento	3.2
31302	7	Sololá	717	San Juan la Laguna	12	San Juan la Laguna	1	Enero	2023-01-17T00:00:00	2024-11-08T10:00:00	7	Dirección del viento	3.22
31303	7	Sololá	717	San Juan la Laguna	12	San Juan la Laguna	1	Enero	2023-01-17T00:00:00	2024-11-08T10:00:00	1	Precipitación	0
31304	7	Sololá	717	San Juan la Laguna	12	San Juan la Laguna	1	Enero	2023-01-17T00:00:00	2024-11-08T10:00:00	8	Radiación solar	499
31305	7	Sololá	717	San Juan la Laguna	12	San Juan la Laguna	1	Enero	2023-01-17T00:00:00	2024-11-08T11:00:00	2	Temperatura media	19.4
31306	7	Sololá	717	San Juan la Laguna	12	San Juan la Laguna	1	Enero	2023-01-17T00:00:00	2024-11-08T11:00:00	4	Temperatura máxima	19.7
31307	7	Sololá	717	San Juan la Laguna	12	San Juan la Laguna	1	Enero	2023-01-17T00:00:00	2024-11-08T11:00:00	3	Temperatura mínima	18.7
31308	7	Sololá	717	San Juan la Laguna	12	San Juan la Laguna	1	Enero	2023-01-17T00:00:00	2024-11-08T11:00:00	5	Humedad	72
31309	7	Sololá	717	San Juan la Laguna	12	San Juan la Laguna	1	Enero	2023-01-17T00:00:00	2024-11-08T11:00:00	6	Velocidad del viento	4.8
31310	7	Sololá	717	San Juan la Laguna	12	San Juan la Laguna	1	Enero	2023-01-17T00:00:00	2024-11-08T11:00:00	7	Dirección del viento	4.83
31311	7	Sololá	717	San Juan la Laguna	12	San Juan la Laguna	1	Enero	2023-01-17T00:00:00	2024-11-08T11:00:00	1	Precipitación	0
31312	7	Sololá	717	San Juan la Laguna	12	San Juan la Laguna	1	Enero	2023-01-17T00:00:00	2024-11-08T11:00:00	8	Radiación solar	618
31313	7	Sololá	717	San Juan la Laguna	12	San Juan la Laguna	1	Enero	2023-01-17T00:00:00	2024-11-08T12:00:00	2	Temperatura media	20.6
31314	7	Sololá	717	San Juan la Laguna	12	San Juan la Laguna	1	Enero	2023-01-17T00:00:00	2024-11-08T12:00:00	4	Temperatura máxima	20.6
31315	7	Sololá	717	San Juan la Laguna	12	San Juan la Laguna	1	Enero	2023-01-17T00:00:00	2024-11-08T12:00:00	3	Temperatura mínima	19.4
31316	7	Sololá	717	San Juan la Laguna	12	San Juan la Laguna	1	Enero	2023-01-17T00:00:00	2024-11-08T12:00:00	5	Humedad	69
31317	7	Sololá	717	San Juan la Laguna	12	San Juan la Laguna	1	Enero	2023-01-17T00:00:00	2024-11-08T12:00:00	6	Velocidad del viento	4.8
31318	7	Sololá	717	San Juan la Laguna	12	San Juan la Laguna	1	Enero	2023-01-17T00:00:00	2024-11-08T12:00:00	7	Dirección del viento	4.83
31319	7	Sololá	717	San Juan la Laguna	12	San Juan la Laguna	1	Enero	2023-01-17T00:00:00	2024-11-08T12:00:00	1	Precipitación	0
31320	7	Sololá	717	San Juan la Laguna	12	San Juan la Laguna	1	Enero	2023-01-17T00:00:00	2024-11-08T12:00:00	8	Radiación solar	671
31321	7	Sololá	717	San Juan la Laguna	12	San Juan la Laguna	1	Enero	2023-01-17T00:00:00	2024-11-08T13:00:00	2	Temperatura media	21.2
31322	7	Sololá	717	San Juan la Laguna	12	San Juan la Laguna	1	Enero	2023-01-17T00:00:00	2024-11-08T13:00:00	4	Temperatura máxima	21.8
31323	7	Sololá	717	San Juan la Laguna	12	San Juan la Laguna	1	Enero	2023-01-17T00:00:00	2024-11-08T13:00:00	3	Temperatura mínima	20.6
31324	7	Sololá	717	San Juan la Laguna	12	San Juan la Laguna	1	Enero	2023-01-17T00:00:00	2024-11-08T13:00:00	5	Humedad	70
31325	7	Sololá	717	San Juan la Laguna	12	San Juan la Laguna	1	Enero	2023-01-17T00:00:00	2024-11-08T13:00:00	6	Velocidad del viento	9.7
31326	7	Sololá	717	San Juan la Laguna	12	San Juan la Laguna	1	Enero	2023-01-17T00:00:00	2024-11-08T13:00:00	7	Dirección del viento	9.66
31327	7	Sololá	717	San Juan la Laguna	12	San Juan la Laguna	1	Enero	2023-01-17T00:00:00	2024-11-08T13:00:00	1	Precipitación	0
31328	7	Sololá	717	San Juan la Laguna	12	San Juan la Laguna	1	Enero	2023-01-17T00:00:00	2024-11-08T13:00:00	8	Radiación solar	720
31329	7	Sololá	717	San Juan la Laguna	12	San Juan la Laguna	1	Enero	2023-01-17T00:00:00	2024-11-08T14:00:00	2	Temperatura media	20.3
31330	7	Sololá	717	San Juan la Laguna	12	San Juan la Laguna	1	Enero	2023-01-17T00:00:00	2024-11-08T14:00:00	4	Temperatura máxima	22
31331	7	Sololá	717	San Juan la Laguna	12	San Juan la Laguna	1	Enero	2023-01-17T00:00:00	2024-11-08T14:00:00	3	Temperatura mínima	20.3
31332	7	Sololá	717	San Juan la Laguna	12	San Juan la Laguna	1	Enero	2023-01-17T00:00:00	2024-11-08T14:00:00	5	Humedad	71
31333	7	Sololá	717	San Juan la Laguna	12	San Juan la Laguna	1	Enero	2023-01-17T00:00:00	2024-11-08T14:00:00	6	Velocidad del viento	9.7
31334	7	Sololá	717	San Juan la Laguna	12	San Juan la Laguna	1	Enero	2023-01-17T00:00:00	2024-11-08T14:00:00	7	Dirección del viento	9.66
31335	7	Sololá	717	San Juan la Laguna	12	San Juan la Laguna	1	Enero	2023-01-17T00:00:00	2024-11-08T14:00:00	1	Precipitación	0
31336	7	Sololá	717	San Juan la Laguna	12	San Juan la Laguna	1	Enero	2023-01-17T00:00:00	2024-11-08T14:00:00	8	Radiación solar	601
31337	7	Sololá	717	San Juan la Laguna	12	San Juan la Laguna	1	Enero	2023-01-17T00:00:00	2024-11-08T15:00:00	2	Temperatura media	18.9
31338	7	Sololá	717	San Juan la Laguna	12	San Juan la Laguna	1	Enero	2023-01-17T00:00:00	2024-11-08T15:00:00	4	Temperatura máxima	20.4
31339	7	Sololá	717	San Juan la Laguna	12	San Juan la Laguna	1	Enero	2023-01-17T00:00:00	2024-11-08T15:00:00	3	Temperatura mínima	18.9
31340	7	Sololá	717	San Juan la Laguna	12	San Juan la Laguna	1	Enero	2023-01-17T00:00:00	2024-11-08T15:00:00	5	Humedad	77
31341	7	Sololá	717	San Juan la Laguna	12	San Juan la Laguna	1	Enero	2023-01-17T00:00:00	2024-11-08T15:00:00	6	Velocidad del viento	9.7
31342	7	Sololá	717	San Juan la Laguna	12	San Juan la Laguna	1	Enero	2023-01-17T00:00:00	2024-11-08T15:00:00	7	Dirección del viento	9.66
31343	7	Sololá	717	San Juan la Laguna	12	San Juan la Laguna	1	Enero	2023-01-17T00:00:00	2024-11-08T15:00:00	1	Precipitación	0
31344	7	Sololá	717	San Juan la Laguna	12	San Juan la Laguna	1	Enero	2023-01-17T00:00:00	2024-11-08T15:00:00	8	Radiación solar	207
31345	7	Sololá	717	San Juan la Laguna	12	San Juan la Laguna	1	Enero	2023-01-17T00:00:00	2024-11-08T16:00:00	2	Temperatura media	18.7
31346	7	Sololá	717	San Juan la Laguna	12	San Juan la Laguna	1	Enero	2023-01-17T00:00:00	2024-11-08T16:00:00	4	Temperatura máxima	19.2
31347	7	Sololá	717	San Juan la Laguna	12	San Juan la Laguna	1	Enero	2023-01-17T00:00:00	2024-11-08T16:00:00	3	Temperatura mínima	18.6
31348	7	Sololá	717	San Juan la Laguna	12	San Juan la Laguna	1	Enero	2023-01-17T00:00:00	2024-11-08T16:00:00	5	Humedad	79
31349	7	Sololá	717	San Juan la Laguna	12	San Juan la Laguna	1	Enero	2023-01-17T00:00:00	2024-11-08T16:00:00	6	Velocidad del viento	6.4
31350	7	Sololá	717	San Juan la Laguna	12	San Juan la Laguna	1	Enero	2023-01-17T00:00:00	2024-11-08T16:00:00	7	Dirección del viento	6.44
31351	7	Sololá	717	San Juan la Laguna	12	San Juan la Laguna	1	Enero	2023-01-17T00:00:00	2024-11-08T16:00:00	1	Precipitación	0
31352	7	Sololá	717	San Juan la Laguna	12	San Juan la Laguna	1	Enero	2023-01-17T00:00:00	2024-11-08T16:00:00	8	Radiación solar	99
31353	7	Sololá	717	San Juan la Laguna	12	San Juan la Laguna	1	Enero	2023-01-17T00:00:00	2024-11-08T17:00:00	2	Temperatura media	18.6
31354	7	Sololá	717	San Juan la Laguna	12	San Juan la Laguna	1	Enero	2023-01-17T00:00:00	2024-11-08T17:00:00	4	Temperatura máxima	18.7
31355	7	Sololá	717	San Juan la Laguna	12	San Juan la Laguna	1	Enero	2023-01-17T00:00:00	2024-11-08T17:00:00	3	Temperatura mínima	18.4
31356	7	Sololá	717	San Juan la Laguna	12	San Juan la Laguna	1	Enero	2023-01-17T00:00:00	2024-11-08T17:00:00	5	Humedad	79
31357	7	Sololá	717	San Juan la Laguna	12	San Juan la Laguna	1	Enero	2023-01-17T00:00:00	2024-11-08T17:00:00	6	Velocidad del viento	6.4
31358	7	Sololá	717	San Juan la Laguna	12	San Juan la Laguna	1	Enero	2023-01-17T00:00:00	2024-11-08T17:00:00	7	Dirección del viento	6.44
31359	7	Sololá	717	San Juan la Laguna	12	San Juan la Laguna	1	Enero	2023-01-17T00:00:00	2024-11-08T17:00:00	1	Precipitación	0
31360	7	Sololá	717	San Juan la Laguna	12	San Juan la Laguna	1	Enero	2023-01-17T00:00:00	2024-11-08T17:00:00	8	Radiación solar	94
31361	7	Sololá	717	San Juan la Laguna	12	San Juan la Laguna	1	Enero	2023-01-17T00:00:00	2024-11-08T18:00:00	2	Temperatura media	18.2
31362	7	Sololá	717	San Juan la Laguna	12	San Juan la Laguna	1	Enero	2023-01-17T00:00:00	2024-11-08T18:00:00	4	Temperatura máxima	18.6
31363	7	Sololá	717	San Juan la Laguna	12	San Juan la Laguna	1	Enero	2023-01-17T00:00:00	2024-11-08T18:00:00	3	Temperatura mínima	18.1
31364	7	Sololá	717	San Juan la Laguna	12	San Juan la Laguna	1	Enero	2023-01-17T00:00:00	2024-11-08T18:00:00	5	Humedad	81
31365	7	Sololá	717	San Juan la Laguna	12	San Juan la Laguna	1	Enero	2023-01-17T00:00:00	2024-11-08T18:00:00	6	Velocidad del viento	3.2
31366	7	Sololá	717	San Juan la Laguna	12	San Juan la Laguna	1	Enero	2023-01-17T00:00:00	2024-11-08T18:00:00	7	Dirección del viento	3.22
31367	7	Sololá	717	San Juan la Laguna	12	San Juan la Laguna	1	Enero	2023-01-17T00:00:00	2024-11-08T18:00:00	1	Precipitación	0
31368	7	Sololá	717	San Juan la Laguna	12	San Juan la Laguna	1	Enero	2023-01-17T00:00:00	2024-11-08T18:00:00	8	Radiación solar	11
31369	7	Sololá	717	San Juan la Laguna	12	San Juan la Laguna	1	Enero	2023-01-17T00:00:00	2024-11-08T19:00:00	2	Temperatura media	17.2
31370	7	Sololá	717	San Juan la Laguna	12	San Juan la Laguna	1	Enero	2023-01-17T00:00:00	2024-11-08T19:00:00	4	Temperatura máxima	18.2
31371	7	Sololá	717	San Juan la Laguna	12	San Juan la Laguna	1	Enero	2023-01-17T00:00:00	2024-11-08T19:00:00	3	Temperatura mínima	17.2
31372	7	Sololá	717	San Juan la Laguna	12	San Juan la Laguna	1	Enero	2023-01-17T00:00:00	2024-11-08T19:00:00	5	Humedad	84
31373	7	Sololá	717	San Juan la Laguna	12	San Juan la Laguna	1	Enero	2023-01-17T00:00:00	2024-11-08T19:00:00	6	Velocidad del viento	1.6
31374	7	Sololá	717	San Juan la Laguna	12	San Juan la Laguna	1	Enero	2023-01-17T00:00:00	2024-11-08T19:00:00	7	Dirección del viento	1.61
31375	7	Sololá	717	San Juan la Laguna	12	San Juan la Laguna	1	Enero	2023-01-17T00:00:00	2024-11-08T19:00:00	1	Precipitación	0
31376	7	Sololá	717	San Juan la Laguna	12	San Juan la Laguna	1	Enero	2023-01-17T00:00:00	2024-11-08T19:00:00	8	Radiación solar	0
31377	7	Sololá	717	San Juan la Laguna	12	San Juan la Laguna	1	Enero	2023-01-17T00:00:00	2024-11-08T20:00:00	2	Temperatura media	17.3
31378	7	Sololá	717	San Juan la Laguna	12	San Juan la Laguna	1	Enero	2023-01-17T00:00:00	2024-11-08T20:00:00	4	Temperatura máxima	17.7
31379	7	Sololá	717	San Juan la Laguna	12	San Juan la Laguna	1	Enero	2023-01-17T00:00:00	2024-11-08T20:00:00	3	Temperatura mínima	17.2
31380	7	Sololá	717	San Juan la Laguna	12	San Juan la Laguna	1	Enero	2023-01-17T00:00:00	2024-11-08T20:00:00	5	Humedad	84
31381	7	Sololá	717	San Juan la Laguna	12	San Juan la Laguna	1	Enero	2023-01-17T00:00:00	2024-11-08T20:00:00	6	Velocidad del viento	1.6
31382	7	Sololá	717	San Juan la Laguna	12	San Juan la Laguna	1	Enero	2023-01-17T00:00:00	2024-11-08T20:00:00	7	Dirección del viento	1.61
31383	7	Sololá	717	San Juan la Laguna	12	San Juan la Laguna	1	Enero	2023-01-17T00:00:00	2024-11-08T20:00:00	1	Precipitación	0
31384	7	Sololá	717	San Juan la Laguna	12	San Juan la Laguna	1	Enero	2023-01-17T00:00:00	2024-11-08T20:00:00	8	Radiación solar	0
31385	7	Sololá	717	San Juan la Laguna	12	San Juan la Laguna	1	Enero	2023-01-17T00:00:00	2024-11-08T21:00:00	2	Temperatura media	16.3
31386	7	Sololá	717	San Juan la Laguna	12	San Juan la Laguna	1	Enero	2023-01-17T00:00:00	2024-11-08T21:00:00	4	Temperatura máxima	17.3
31387	7	Sololá	717	San Juan la Laguna	12	San Juan la Laguna	1	Enero	2023-01-17T00:00:00	2024-11-08T21:00:00	3	Temperatura mínima	16.2
31388	7	Sololá	717	San Juan la Laguna	12	San Juan la Laguna	1	Enero	2023-01-17T00:00:00	2024-11-08T21:00:00	5	Humedad	85
31389	7	Sololá	717	San Juan la Laguna	12	San Juan la Laguna	1	Enero	2023-01-17T00:00:00	2024-11-08T21:00:00	6	Velocidad del viento	1.6
31390	7	Sololá	717	San Juan la Laguna	12	San Juan la Laguna	1	Enero	2023-01-17T00:00:00	2024-11-08T21:00:00	7	Dirección del viento	1.61
31391	7	Sololá	717	San Juan la Laguna	12	San Juan la Laguna	1	Enero	2023-01-17T00:00:00	2024-11-08T21:00:00	1	Precipitación	0
31392	7	Sololá	717	San Juan la Laguna	12	San Juan la Laguna	1	Enero	2023-01-17T00:00:00	2024-11-08T21:00:00	8	Radiación solar	0
31393	7	Sololá	717	San Juan la Laguna	12	San Juan la Laguna	1	Enero	2023-01-17T00:00:00	2024-11-08T22:00:00	2	Temperatura media	16.7
31394	7	Sololá	717	San Juan la Laguna	12	San Juan la Laguna	1	Enero	2023-01-17T00:00:00	2024-11-08T22:00:00	4	Temperatura máxima	16.7
31395	7	Sololá	717	San Juan la Laguna	12	San Juan la Laguna	1	Enero	2023-01-17T00:00:00	2024-11-08T22:00:00	3	Temperatura mínima	16.3
31396	7	Sololá	717	San Juan la Laguna	12	San Juan la Laguna	1	Enero	2023-01-17T00:00:00	2024-11-08T22:00:00	5	Humedad	84
31397	7	Sololá	717	San Juan la Laguna	12	San Juan la Laguna	1	Enero	2023-01-17T00:00:00	2024-11-08T22:00:00	6	Velocidad del viento	1.6
31398	7	Sololá	717	San Juan la Laguna	12	San Juan la Laguna	1	Enero	2023-01-17T00:00:00	2024-11-08T22:00:00	7	Dirección del viento	1.61
31399	7	Sololá	717	San Juan la Laguna	12	San Juan la Laguna	1	Enero	2023-01-17T00:00:00	2024-11-08T22:00:00	1	Precipitación	0
31400	7	Sololá	717	San Juan la Laguna	12	San Juan la Laguna	1	Enero	2023-01-17T00:00:00	2024-11-08T22:00:00	8	Radiación solar	0
31401	7	Sololá	717	San Juan la Laguna	12	San Juan la Laguna	1	Enero	2023-01-17T00:00:00	2024-11-08T23:00:00	2	Temperatura media	16.7
31402	7	Sololá	717	San Juan la Laguna	12	San Juan la Laguna	1	Enero	2023-01-17T00:00:00	2024-11-08T23:00:00	4	Temperatura máxima	16.9
31403	7	Sololá	717	San Juan la Laguna	12	San Juan la Laguna	1	Enero	2023-01-17T00:00:00	2024-11-08T23:00:00	3	Temperatura mínima	16.7
31404	7	Sololá	717	San Juan la Laguna	12	San Juan la Laguna	1	Enero	2023-01-17T00:00:00	2024-11-08T23:00:00	5	Humedad	85
31405	7	Sololá	717	San Juan la Laguna	12	San Juan la Laguna	1	Enero	2023-01-17T00:00:00	2024-11-08T23:00:00	6	Velocidad del viento	0
31406	7	Sololá	717	San Juan la Laguna	12	San Juan la Laguna	1	Enero	2023-01-17T00:00:00	2024-11-08T23:00:00	7	Dirección del viento	0
31407	7	Sololá	717	San Juan la Laguna	12	San Juan la Laguna	1	Enero	2023-01-17T00:00:00	2024-11-08T23:00:00	1	Precipitación	0
31408	7	Sololá	717	San Juan la Laguna	12	San Juan la Laguna	1	Enero	2023-01-17T00:00:00	2024-11-08T23:00:00	8	Radiación solar	0
31409	7	Sololá	717	San Juan la Laguna	12	San Juan la Laguna	1	Enero	2023-01-18T00:00:00	2024-11-08T00:00:00	2	Temperatura media	16.8
31410	7	Sololá	717	San Juan la Laguna	12	San Juan la Laguna	1	Enero	2023-01-18T00:00:00	2024-11-08T00:00:00	4	Temperatura máxima	16.8
31411	7	Sololá	717	San Juan la Laguna	12	San Juan la Laguna	1	Enero	2023-01-18T00:00:00	2024-11-08T00:00:00	3	Temperatura mínima	16.6
31412	7	Sololá	717	San Juan la Laguna	12	San Juan la Laguna	1	Enero	2023-01-18T00:00:00	2024-11-08T00:00:00	5	Humedad	85
31413	7	Sololá	717	San Juan la Laguna	12	San Juan la Laguna	1	Enero	2023-01-18T00:00:00	2024-11-08T00:00:00	6	Velocidad del viento	0
31414	7	Sololá	717	San Juan la Laguna	12	San Juan la Laguna	1	Enero	2023-01-18T00:00:00	2024-11-08T00:00:00	7	Dirección del viento	0
31415	7	Sololá	717	San Juan la Laguna	12	San Juan la Laguna	1	Enero	2023-01-18T00:00:00	2024-11-08T00:00:00	1	Precipitación	0
31416	7	Sololá	717	San Juan la Laguna	12	San Juan la Laguna	1	Enero	2023-01-18T00:00:00	2024-11-08T00:00:00	8	Radiación solar	0
31417	7	Sololá	717	San Juan la Laguna	12	San Juan la Laguna	1	Enero	2023-01-18T00:00:00	2024-11-08T01:00:00	2	Temperatura media	16.2
31418	7	Sololá	717	San Juan la Laguna	12	San Juan la Laguna	1	Enero	2023-01-18T00:00:00	2024-11-08T01:00:00	4	Temperatura máxima	16.8
31419	7	Sololá	717	San Juan la Laguna	12	San Juan la Laguna	1	Enero	2023-01-18T00:00:00	2024-11-08T01:00:00	3	Temperatura mínima	16.2
31420	7	Sololá	717	San Juan la Laguna	12	San Juan la Laguna	1	Enero	2023-01-18T00:00:00	2024-11-08T01:00:00	5	Humedad	87
31421	7	Sololá	717	San Juan la Laguna	12	San Juan la Laguna	1	Enero	2023-01-18T00:00:00	2024-11-08T01:00:00	6	Velocidad del viento	0
31422	7	Sololá	717	San Juan la Laguna	12	San Juan la Laguna	1	Enero	2023-01-18T00:00:00	2024-11-08T01:00:00	7	Dirección del viento	0
31423	7	Sololá	717	San Juan la Laguna	12	San Juan la Laguna	1	Enero	2023-01-18T00:00:00	2024-11-08T01:00:00	1	Precipitación	0
31424	7	Sololá	717	San Juan la Laguna	12	San Juan la Laguna	1	Enero	2023-01-18T00:00:00	2024-11-08T01:00:00	8	Radiación solar	0
31425	7	Sololá	717	San Juan la Laguna	12	San Juan la Laguna	1	Enero	2023-01-18T00:00:00	2024-11-08T02:00:00	2	Temperatura media	15
31426	7	Sololá	717	San Juan la Laguna	12	San Juan la Laguna	1	Enero	2023-01-18T00:00:00	2024-11-08T02:00:00	4	Temperatura máxima	16.2
31427	7	Sololá	717	San Juan la Laguna	12	San Juan la Laguna	1	Enero	2023-01-18T00:00:00	2024-11-08T02:00:00	3	Temperatura mínima	15
31428	7	Sololá	717	San Juan la Laguna	12	San Juan la Laguna	1	Enero	2023-01-18T00:00:00	2024-11-08T02:00:00	5	Humedad	90
31429	7	Sololá	717	San Juan la Laguna	12	San Juan la Laguna	1	Enero	2023-01-18T00:00:00	2024-11-08T02:00:00	6	Velocidad del viento	0
31430	7	Sololá	717	San Juan la Laguna	12	San Juan la Laguna	1	Enero	2023-01-18T00:00:00	2024-11-08T02:00:00	7	Dirección del viento	0
31431	7	Sololá	717	San Juan la Laguna	12	San Juan la Laguna	1	Enero	2023-01-18T00:00:00	2024-11-08T02:00:00	1	Precipitación	0
31432	7	Sololá	717	San Juan la Laguna	12	San Juan la Laguna	1	Enero	2023-01-18T00:00:00	2024-11-08T02:00:00	8	Radiación solar	0
31433	7	Sololá	717	San Juan la Laguna	12	San Juan la Laguna	1	Enero	2023-01-18T00:00:00	2024-11-08T03:00:00	2	Temperatura media	13.9
31434	7	Sololá	717	San Juan la Laguna	12	San Juan la Laguna	1	Enero	2023-01-18T00:00:00	2024-11-08T03:00:00	4	Temperatura máxima	15
31435	7	Sololá	717	San Juan la Laguna	12	San Juan la Laguna	1	Enero	2023-01-18T00:00:00	2024-11-08T03:00:00	3	Temperatura mínima	13.8
31436	7	Sololá	717	San Juan la Laguna	12	San Juan la Laguna	1	Enero	2023-01-18T00:00:00	2024-11-08T03:00:00	5	Humedad	88
31437	7	Sololá	717	San Juan la Laguna	12	San Juan la Laguna	1	Enero	2023-01-18T00:00:00	2024-11-08T03:00:00	6	Velocidad del viento	1.6
31438	7	Sololá	717	San Juan la Laguna	12	San Juan la Laguna	1	Enero	2023-01-18T00:00:00	2024-11-08T03:00:00	7	Dirección del viento	1.61
31439	7	Sololá	717	San Juan la Laguna	12	San Juan la Laguna	1	Enero	2023-01-18T00:00:00	2024-11-08T03:00:00	1	Precipitación	0
31440	7	Sololá	717	San Juan la Laguna	12	San Juan la Laguna	1	Enero	2023-01-18T00:00:00	2024-11-08T03:00:00	8	Radiación solar	0
31441	7	Sololá	717	San Juan la Laguna	12	San Juan la Laguna	1	Enero	2023-01-18T00:00:00	2024-11-08T04:00:00	2	Temperatura media	14.4
31442	7	Sololá	717	San Juan la Laguna	12	San Juan la Laguna	1	Enero	2023-01-18T00:00:00	2024-11-08T04:00:00	4	Temperatura máxima	14.4
31443	7	Sololá	717	San Juan la Laguna	12	San Juan la Laguna	1	Enero	2023-01-18T00:00:00	2024-11-08T04:00:00	3	Temperatura mínima	13.9
31444	7	Sololá	717	San Juan la Laguna	12	San Juan la Laguna	1	Enero	2023-01-18T00:00:00	2024-11-08T04:00:00	5	Humedad	85
31445	7	Sololá	717	San Juan la Laguna	12	San Juan la Laguna	1	Enero	2023-01-18T00:00:00	2024-11-08T04:00:00	6	Velocidad del viento	3.2
31446	7	Sololá	717	San Juan la Laguna	12	San Juan la Laguna	1	Enero	2023-01-18T00:00:00	2024-11-08T04:00:00	7	Dirección del viento	3.22
31447	7	Sololá	717	San Juan la Laguna	12	San Juan la Laguna	1	Enero	2023-01-18T00:00:00	2024-11-08T04:00:00	1	Precipitación	0
31448	7	Sololá	717	San Juan la Laguna	12	San Juan la Laguna	1	Enero	2023-01-18T00:00:00	2024-11-08T04:00:00	8	Radiación solar	0
31449	7	Sololá	717	San Juan la Laguna	12	San Juan la Laguna	1	Enero	2023-01-18T00:00:00	2024-11-08T05:00:00	2	Temperatura media	14.1
31450	7	Sololá	717	San Juan la Laguna	12	San Juan la Laguna	1	Enero	2023-01-18T00:00:00	2024-11-08T05:00:00	4	Temperatura máxima	14.5
31451	7	Sololá	717	San Juan la Laguna	12	San Juan la Laguna	1	Enero	2023-01-18T00:00:00	2024-11-08T05:00:00	3	Temperatura mínima	14.1
31452	7	Sololá	717	San Juan la Laguna	12	San Juan la Laguna	1	Enero	2023-01-18T00:00:00	2024-11-08T05:00:00	5	Humedad	86
31453	7	Sololá	717	San Juan la Laguna	12	San Juan la Laguna	1	Enero	2023-01-18T00:00:00	2024-11-08T05:00:00	6	Velocidad del viento	3.2
31454	7	Sololá	717	San Juan la Laguna	12	San Juan la Laguna	1	Enero	2023-01-18T00:00:00	2024-11-08T05:00:00	7	Dirección del viento	3.22
31455	7	Sololá	717	San Juan la Laguna	12	San Juan la Laguna	1	Enero	2023-01-18T00:00:00	2024-11-08T05:00:00	1	Precipitación	0
31456	7	Sololá	717	San Juan la Laguna	12	San Juan la Laguna	1	Enero	2023-01-18T00:00:00	2024-11-08T05:00:00	8	Radiación solar	0
31457	7	Sololá	717	San Juan la Laguna	12	San Juan la Laguna	1	Enero	2023-01-18T00:00:00	2024-11-08T06:00:00	2	Temperatura media	13.5
31458	7	Sololá	717	San Juan la Laguna	12	San Juan la Laguna	1	Enero	2023-01-18T00:00:00	2024-11-08T06:00:00	4	Temperatura máxima	14.2
31459	7	Sololá	717	San Juan la Laguna	12	San Juan la Laguna	1	Enero	2023-01-18T00:00:00	2024-11-08T06:00:00	3	Temperatura mínima	13.4
31460	7	Sololá	717	San Juan la Laguna	12	San Juan la Laguna	1	Enero	2023-01-18T00:00:00	2024-11-08T06:00:00	5	Humedad	84
31461	7	Sololá	717	San Juan la Laguna	12	San Juan la Laguna	1	Enero	2023-01-18T00:00:00	2024-11-08T06:00:00	6	Velocidad del viento	3.2
31462	7	Sololá	717	San Juan la Laguna	12	San Juan la Laguna	1	Enero	2023-01-18T00:00:00	2024-11-08T06:00:00	7	Dirección del viento	3.22
31463	7	Sololá	717	San Juan la Laguna	12	San Juan la Laguna	1	Enero	2023-01-18T00:00:00	2024-11-08T06:00:00	1	Precipitación	0
31464	7	Sololá	717	San Juan la Laguna	12	San Juan la Laguna	1	Enero	2023-01-18T00:00:00	2024-11-08T06:00:00	8	Radiación solar	0
31465	7	Sololá	717	San Juan la Laguna	12	San Juan la Laguna	1	Enero	2023-01-18T00:00:00	2024-11-08T07:00:00	2	Temperatura media	12.8
31466	7	Sololá	717	San Juan la Laguna	12	San Juan la Laguna	1	Enero	2023-01-18T00:00:00	2024-11-08T07:00:00	4	Temperatura máxima	13.5
31467	7	Sololá	717	San Juan la Laguna	12	San Juan la Laguna	1	Enero	2023-01-18T00:00:00	2024-11-08T07:00:00	3	Temperatura mínima	12.8
31468	7	Sololá	717	San Juan la Laguna	12	San Juan la Laguna	1	Enero	2023-01-18T00:00:00	2024-11-08T07:00:00	5	Humedad	84
31469	7	Sololá	717	San Juan la Laguna	12	San Juan la Laguna	1	Enero	2023-01-18T00:00:00	2024-11-08T07:00:00	6	Velocidad del viento	4.8
31470	7	Sololá	717	San Juan la Laguna	12	San Juan la Laguna	1	Enero	2023-01-18T00:00:00	2024-11-08T07:00:00	7	Dirección del viento	4.83
31471	7	Sololá	717	San Juan la Laguna	12	San Juan la Laguna	1	Enero	2023-01-18T00:00:00	2024-11-08T07:00:00	1	Precipitación	0
31472	7	Sololá	717	San Juan la Laguna	12	San Juan la Laguna	1	Enero	2023-01-18T00:00:00	2024-11-08T07:00:00	8	Radiación solar	5
31473	7	Sololá	717	San Juan la Laguna	12	San Juan la Laguna	1	Enero	2023-01-18T00:00:00	2024-11-08T08:00:00	2	Temperatura media	14.1
31474	7	Sololá	717	San Juan la Laguna	12	San Juan la Laguna	1	Enero	2023-01-18T00:00:00	2024-11-08T08:00:00	4	Temperatura máxima	14.1
31475	7	Sololá	717	San Juan la Laguna	12	San Juan la Laguna	1	Enero	2023-01-18T00:00:00	2024-11-08T08:00:00	3	Temperatura mínima	12.8
31476	7	Sololá	717	San Juan la Laguna	12	San Juan la Laguna	1	Enero	2023-01-18T00:00:00	2024-11-08T08:00:00	5	Humedad	81
31477	7	Sololá	717	San Juan la Laguna	12	San Juan la Laguna	1	Enero	2023-01-18T00:00:00	2024-11-08T08:00:00	6	Velocidad del viento	3.2
31478	7	Sololá	717	San Juan la Laguna	12	San Juan la Laguna	1	Enero	2023-01-18T00:00:00	2024-11-08T08:00:00	7	Dirección del viento	3.22
31479	7	Sololá	717	San Juan la Laguna	12	San Juan la Laguna	1	Enero	2023-01-18T00:00:00	2024-11-08T08:00:00	1	Precipitación	0
31480	7	Sololá	717	San Juan la Laguna	12	San Juan la Laguna	1	Enero	2023-01-18T00:00:00	2024-11-08T08:00:00	8	Radiación solar	106
31481	7	Sololá	717	San Juan la Laguna	12	San Juan la Laguna	1	Enero	2023-01-18T00:00:00	2024-11-08T09:00:00	2	Temperatura media	17.5
31482	7	Sololá	717	San Juan la Laguna	12	San Juan la Laguna	1	Enero	2023-01-18T00:00:00	2024-11-08T09:00:00	4	Temperatura máxima	17.7
31483	7	Sololá	717	San Juan la Laguna	12	San Juan la Laguna	1	Enero	2023-01-18T00:00:00	2024-11-08T09:00:00	3	Temperatura mínima	14.1
31484	7	Sololá	717	San Juan la Laguna	12	San Juan la Laguna	1	Enero	2023-01-18T00:00:00	2024-11-08T09:00:00	5	Humedad	77
31485	7	Sololá	717	San Juan la Laguna	12	San Juan la Laguna	1	Enero	2023-01-18T00:00:00	2024-11-08T09:00:00	6	Velocidad del viento	1.6
31486	7	Sololá	717	San Juan la Laguna	12	San Juan la Laguna	1	Enero	2023-01-18T00:00:00	2024-11-08T09:00:00	7	Dirección del viento	1.61
31487	7	Sololá	717	San Juan la Laguna	12	San Juan la Laguna	1	Enero	2023-01-18T00:00:00	2024-11-08T09:00:00	1	Precipitación	0
31488	7	Sololá	717	San Juan la Laguna	12	San Juan la Laguna	1	Enero	2023-01-18T00:00:00	2024-11-08T09:00:00	8	Radiación solar	315
31489	7	Sololá	717	San Juan la Laguna	12	San Juan la Laguna	1	Enero	2023-01-18T00:00:00	2024-11-08T10:00:00	2	Temperatura media	18.7
31490	7	Sololá	717	San Juan la Laguna	12	San Juan la Laguna	1	Enero	2023-01-18T00:00:00	2024-11-08T10:00:00	4	Temperatura máxima	18.7
31491	7	Sololá	717	San Juan la Laguna	12	San Juan la Laguna	1	Enero	2023-01-18T00:00:00	2024-11-08T10:00:00	3	Temperatura mínima	17.5
31492	7	Sololá	717	San Juan la Laguna	12	San Juan la Laguna	1	Enero	2023-01-18T00:00:00	2024-11-08T10:00:00	5	Humedad	73
31493	7	Sololá	717	San Juan la Laguna	12	San Juan la Laguna	1	Enero	2023-01-18T00:00:00	2024-11-08T10:00:00	6	Velocidad del viento	3.2
31494	7	Sololá	717	San Juan la Laguna	12	San Juan la Laguna	1	Enero	2023-01-18T00:00:00	2024-11-08T10:00:00	7	Dirección del viento	3.22
31495	7	Sololá	717	San Juan la Laguna	12	San Juan la Laguna	1	Enero	2023-01-18T00:00:00	2024-11-08T10:00:00	1	Precipitación	0
31496	7	Sololá	717	San Juan la Laguna	12	San Juan la Laguna	1	Enero	2023-01-18T00:00:00	2024-11-08T10:00:00	8	Radiación solar	515
31497	7	Sololá	717	San Juan la Laguna	12	San Juan la Laguna	1	Enero	2023-01-18T00:00:00	2024-11-08T11:00:00	2	Temperatura media	19.4
31498	7	Sololá	717	San Juan la Laguna	12	San Juan la Laguna	1	Enero	2023-01-18T00:00:00	2024-11-08T11:00:00	4	Temperatura máxima	19.7
31499	7	Sololá	717	San Juan la Laguna	12	San Juan la Laguna	1	Enero	2023-01-18T00:00:00	2024-11-08T11:00:00	3	Temperatura mínima	18.6
31500	7	Sololá	717	San Juan la Laguna	12	San Juan la Laguna	1	Enero	2023-01-18T00:00:00	2024-11-08T11:00:00	5	Humedad	70
31501	7	Sololá	717	San Juan la Laguna	12	San Juan la Laguna	1	Enero	2023-01-18T00:00:00	2024-11-08T11:00:00	6	Velocidad del viento	4.8
31502	7	Sololá	717	San Juan la Laguna	12	San Juan la Laguna	1	Enero	2023-01-18T00:00:00	2024-11-08T11:00:00	7	Dirección del viento	4.83
31503	7	Sololá	717	San Juan la Laguna	12	San Juan la Laguna	1	Enero	2023-01-18T00:00:00	2024-11-08T11:00:00	1	Precipitación	0
31504	7	Sololá	717	San Juan la Laguna	12	San Juan la Laguna	1	Enero	2023-01-18T00:00:00	2024-11-08T11:00:00	8	Radiación solar	627
31505	7	Sololá	717	San Juan la Laguna	12	San Juan la Laguna	1	Enero	2023-01-18T00:00:00	2024-11-08T12:00:00	2	Temperatura media	20.4
31506	7	Sololá	717	San Juan la Laguna	12	San Juan la Laguna	1	Enero	2023-01-18T00:00:00	2024-11-08T12:00:00	4	Temperatura máxima	20.4
31507	7	Sololá	717	San Juan la Laguna	12	San Juan la Laguna	1	Enero	2023-01-18T00:00:00	2024-11-08T12:00:00	3	Temperatura mínima	19
31508	7	Sololá	717	San Juan la Laguna	12	San Juan la Laguna	1	Enero	2023-01-18T00:00:00	2024-11-08T12:00:00	5	Humedad	69
31509	7	Sololá	717	San Juan la Laguna	12	San Juan la Laguna	1	Enero	2023-01-18T00:00:00	2024-11-08T12:00:00	6	Velocidad del viento	6.4
31510	7	Sololá	717	San Juan la Laguna	12	San Juan la Laguna	1	Enero	2023-01-18T00:00:00	2024-11-08T12:00:00	7	Dirección del viento	6.44
31511	7	Sololá	717	San Juan la Laguna	12	San Juan la Laguna	1	Enero	2023-01-18T00:00:00	2024-11-08T12:00:00	1	Precipitación	0
31512	7	Sololá	717	San Juan la Laguna	12	San Juan la Laguna	1	Enero	2023-01-18T00:00:00	2024-11-08T12:00:00	8	Radiación solar	706
31513	7	Sololá	717	San Juan la Laguna	12	San Juan la Laguna	1	Enero	2023-01-18T00:00:00	2024-11-08T13:00:00	2	Temperatura media	20.4
31514	7	Sololá	717	San Juan la Laguna	12	San Juan la Laguna	1	Enero	2023-01-18T00:00:00	2024-11-08T13:00:00	4	Temperatura máxima	21.2
31515	7	Sololá	717	San Juan la Laguna	12	San Juan la Laguna	1	Enero	2023-01-18T00:00:00	2024-11-08T13:00:00	3	Temperatura mínima	20.1
31516	7	Sololá	717	San Juan la Laguna	12	San Juan la Laguna	1	Enero	2023-01-18T00:00:00	2024-11-08T13:00:00	5	Humedad	68
31517	7	Sololá	717	San Juan la Laguna	12	San Juan la Laguna	1	Enero	2023-01-18T00:00:00	2024-11-08T13:00:00	6	Velocidad del viento	3.2
31518	7	Sololá	717	San Juan la Laguna	12	San Juan la Laguna	1	Enero	2023-01-18T00:00:00	2024-11-08T13:00:00	7	Dirección del viento	3.22
31519	7	Sololá	717	San Juan la Laguna	12	San Juan la Laguna	1	Enero	2023-01-18T00:00:00	2024-11-08T13:00:00	1	Precipitación	0
31520	7	Sololá	717	San Juan la Laguna	12	San Juan la Laguna	1	Enero	2023-01-18T00:00:00	2024-11-08T13:00:00	8	Radiación solar	451
31521	7	Sololá	717	San Juan la Laguna	12	San Juan la Laguna	1	Enero	2023-01-18T00:00:00	2024-11-08T14:00:00	2	Temperatura media	21.6
31522	7	Sololá	717	San Juan la Laguna	12	San Juan la Laguna	1	Enero	2023-01-18T00:00:00	2024-11-08T14:00:00	4	Temperatura máxima	21.7
31523	7	Sololá	717	San Juan la Laguna	12	San Juan la Laguna	1	Enero	2023-01-18T00:00:00	2024-11-08T14:00:00	3	Temperatura mínima	20.2
31524	7	Sololá	717	San Juan la Laguna	12	San Juan la Laguna	1	Enero	2023-01-18T00:00:00	2024-11-08T14:00:00	5	Humedad	67
31525	7	Sololá	717	San Juan la Laguna	12	San Juan la Laguna	1	Enero	2023-01-18T00:00:00	2024-11-08T14:00:00	6	Velocidad del viento	3.2
31526	7	Sololá	717	San Juan la Laguna	12	San Juan la Laguna	1	Enero	2023-01-18T00:00:00	2024-11-08T14:00:00	7	Dirección del viento	3.22
31527	7	Sololá	717	San Juan la Laguna	12	San Juan la Laguna	1	Enero	2023-01-18T00:00:00	2024-11-08T14:00:00	1	Precipitación	0
31528	7	Sololá	717	San Juan la Laguna	12	San Juan la Laguna	1	Enero	2023-01-18T00:00:00	2024-11-08T14:00:00	8	Radiación solar	539
31529	7	Sololá	717	San Juan la Laguna	12	San Juan la Laguna	1	Enero	2023-01-18T00:00:00	2024-11-08T15:00:00	2	Temperatura media	20.2
31530	7	Sololá	717	San Juan la Laguna	12	San Juan la Laguna	1	Enero	2023-01-18T00:00:00	2024-11-08T15:00:00	4	Temperatura máxima	21.6
31531	7	Sololá	717	San Juan la Laguna	12	San Juan la Laguna	1	Enero	2023-01-18T00:00:00	2024-11-08T15:00:00	3	Temperatura mínima	20.2
31532	7	Sololá	717	San Juan la Laguna	12	San Juan la Laguna	1	Enero	2023-01-18T00:00:00	2024-11-08T15:00:00	5	Humedad	71
31533	7	Sololá	717	San Juan la Laguna	12	San Juan la Laguna	1	Enero	2023-01-18T00:00:00	2024-11-08T15:00:00	6	Velocidad del viento	12.9
31534	7	Sololá	717	San Juan la Laguna	12	San Juan la Laguna	1	Enero	2023-01-18T00:00:00	2024-11-08T15:00:00	7	Dirección del viento	12.87
31535	7	Sololá	717	San Juan la Laguna	12	San Juan la Laguna	1	Enero	2023-01-18T00:00:00	2024-11-08T15:00:00	1	Precipitación	0
31536	7	Sololá	717	San Juan la Laguna	12	San Juan la Laguna	1	Enero	2023-01-18T00:00:00	2024-11-08T15:00:00	8	Radiación solar	643
31537	7	Sololá	717	San Juan la Laguna	12	San Juan la Laguna	1	Enero	2023-01-18T00:00:00	2024-11-08T16:00:00	2	Temperatura media	20.1
31538	7	Sololá	717	San Juan la Laguna	12	San Juan la Laguna	1	Enero	2023-01-18T00:00:00	2024-11-08T16:00:00	4	Temperatura máxima	20.6
31539	7	Sololá	717	San Juan la Laguna	12	San Juan la Laguna	1	Enero	2023-01-18T00:00:00	2024-11-08T16:00:00	3	Temperatura mínima	20
31540	7	Sololá	717	San Juan la Laguna	12	San Juan la Laguna	1	Enero	2023-01-18T00:00:00	2024-11-08T16:00:00	5	Humedad	71
31541	7	Sololá	717	San Juan la Laguna	12	San Juan la Laguna	1	Enero	2023-01-18T00:00:00	2024-11-08T16:00:00	6	Velocidad del viento	11.3
31542	7	Sololá	717	San Juan la Laguna	12	San Juan la Laguna	1	Enero	2023-01-18T00:00:00	2024-11-08T16:00:00	7	Dirección del viento	11.27
31543	7	Sololá	717	San Juan la Laguna	12	San Juan la Laguna	1	Enero	2023-01-18T00:00:00	2024-11-08T16:00:00	1	Precipitación	0
31544	7	Sololá	717	San Juan la Laguna	12	San Juan la Laguna	1	Enero	2023-01-18T00:00:00	2024-11-08T16:00:00	8	Radiación solar	421
31545	7	Sololá	717	San Juan la Laguna	12	San Juan la Laguna	1	Enero	2023-01-18T00:00:00	2024-11-08T17:00:00	2	Temperatura media	18.6
31546	7	Sololá	717	San Juan la Laguna	12	San Juan la Laguna	1	Enero	2023-01-18T00:00:00	2024-11-08T17:00:00	4	Temperatura máxima	20.3
31547	7	Sololá	717	San Juan la Laguna	12	San Juan la Laguna	1	Enero	2023-01-18T00:00:00	2024-11-08T17:00:00	3	Temperatura mínima	18.6
31548	7	Sololá	717	San Juan la Laguna	12	San Juan la Laguna	1	Enero	2023-01-18T00:00:00	2024-11-08T17:00:00	5	Humedad	77
31549	7	Sololá	717	San Juan la Laguna	12	San Juan la Laguna	1	Enero	2023-01-18T00:00:00	2024-11-08T17:00:00	6	Velocidad del viento	6.4
31550	7	Sololá	717	San Juan la Laguna	12	San Juan la Laguna	1	Enero	2023-01-18T00:00:00	2024-11-08T17:00:00	7	Dirección del viento	6.44
31551	7	Sololá	717	San Juan la Laguna	12	San Juan la Laguna	1	Enero	2023-01-18T00:00:00	2024-11-08T17:00:00	1	Precipitación	0
31552	7	Sololá	717	San Juan la Laguna	12	San Juan la Laguna	1	Enero	2023-01-18T00:00:00	2024-11-08T17:00:00	8	Radiación solar	193
31553	7	Sololá	717	San Juan la Laguna	12	San Juan la Laguna	1	Enero	2023-01-18T00:00:00	2024-11-08T18:00:00	2	Temperatura media	18.2
31554	7	Sololá	717	San Juan la Laguna	12	San Juan la Laguna	1	Enero	2023-01-18T00:00:00	2024-11-08T18:00:00	4	Temperatura máxima	18.6
31555	7	Sololá	717	San Juan la Laguna	12	San Juan la Laguna	1	Enero	2023-01-18T00:00:00	2024-11-08T18:00:00	3	Temperatura mínima	18.1
31556	7	Sololá	717	San Juan la Laguna	12	San Juan la Laguna	1	Enero	2023-01-18T00:00:00	2024-11-08T18:00:00	5	Humedad	79
31557	7	Sololá	717	San Juan la Laguna	12	San Juan la Laguna	1	Enero	2023-01-18T00:00:00	2024-11-08T18:00:00	6	Velocidad del viento	4.8
31558	7	Sololá	717	San Juan la Laguna	12	San Juan la Laguna	1	Enero	2023-01-18T00:00:00	2024-11-08T18:00:00	7	Dirección del viento	4.83
31559	7	Sololá	717	San Juan la Laguna	12	San Juan la Laguna	1	Enero	2023-01-18T00:00:00	2024-11-08T18:00:00	1	Precipitación	0
31560	7	Sololá	717	San Juan la Laguna	12	San Juan la Laguna	1	Enero	2023-01-18T00:00:00	2024-11-08T18:00:00	8	Radiación solar	20
31561	7	Sololá	717	San Juan la Laguna	12	San Juan la Laguna	1	Enero	2023-01-18T00:00:00	2024-11-08T19:00:00	2	Temperatura media	18.1
31562	7	Sololá	717	San Juan la Laguna	12	San Juan la Laguna	1	Enero	2023-01-18T00:00:00	2024-11-08T19:00:00	4	Temperatura máxima	18.2
31563	7	Sololá	717	San Juan la Laguna	12	San Juan la Laguna	1	Enero	2023-01-18T00:00:00	2024-11-08T19:00:00	3	Temperatura mínima	18
31564	7	Sololá	717	San Juan la Laguna	12	San Juan la Laguna	1	Enero	2023-01-18T00:00:00	2024-11-08T19:00:00	5	Humedad	79
31565	7	Sololá	717	San Juan la Laguna	12	San Juan la Laguna	1	Enero	2023-01-18T00:00:00	2024-11-08T19:00:00	6	Velocidad del viento	1.6
31566	7	Sololá	717	San Juan la Laguna	12	San Juan la Laguna	1	Enero	2023-01-18T00:00:00	2024-11-08T19:00:00	7	Dirección del viento	1.61
31567	7	Sololá	717	San Juan la Laguna	12	San Juan la Laguna	1	Enero	2023-01-18T00:00:00	2024-11-08T19:00:00	1	Precipitación	0
31568	7	Sololá	717	San Juan la Laguna	12	San Juan la Laguna	1	Enero	2023-01-18T00:00:00	2024-11-08T19:00:00	8	Radiación solar	0
31569	7	Sololá	717	San Juan la Laguna	12	San Juan la Laguna	1	Enero	2023-01-18T00:00:00	2024-11-08T20:00:00	2	Temperatura media	17.2
31570	7	Sololá	717	San Juan la Laguna	12	San Juan la Laguna	1	Enero	2023-01-18T00:00:00	2024-11-08T20:00:00	4	Temperatura máxima	18.1
31571	7	Sololá	717	San Juan la Laguna	12	San Juan la Laguna	1	Enero	2023-01-18T00:00:00	2024-11-08T20:00:00	3	Temperatura mínima	17.2
31572	7	Sololá	717	San Juan la Laguna	12	San Juan la Laguna	1	Enero	2023-01-18T00:00:00	2024-11-08T20:00:00	5	Humedad	81
31573	7	Sololá	717	San Juan la Laguna	12	San Juan la Laguna	1	Enero	2023-01-18T00:00:00	2024-11-08T20:00:00	6	Velocidad del viento	1.6
31574	7	Sololá	717	San Juan la Laguna	12	San Juan la Laguna	1	Enero	2023-01-18T00:00:00	2024-11-08T20:00:00	7	Dirección del viento	1.61
31575	7	Sololá	717	San Juan la Laguna	12	San Juan la Laguna	1	Enero	2023-01-18T00:00:00	2024-11-08T20:00:00	1	Precipitación	0
31576	7	Sololá	717	San Juan la Laguna	12	San Juan la Laguna	1	Enero	2023-01-18T00:00:00	2024-11-08T20:00:00	8	Radiación solar	0
31577	7	Sololá	717	San Juan la Laguna	12	San Juan la Laguna	1	Enero	2023-01-18T00:00:00	2024-11-08T21:00:00	2	Temperatura media	17.4
31578	7	Sololá	717	San Juan la Laguna	12	San Juan la Laguna	1	Enero	2023-01-18T00:00:00	2024-11-08T21:00:00	4	Temperatura máxima	17.4
31579	7	Sololá	717	San Juan la Laguna	12	San Juan la Laguna	1	Enero	2023-01-18T00:00:00	2024-11-08T21:00:00	3	Temperatura mínima	17
31580	7	Sololá	717	San Juan la Laguna	12	San Juan la Laguna	1	Enero	2023-01-18T00:00:00	2024-11-08T21:00:00	5	Humedad	85
31581	7	Sololá	717	San Juan la Laguna	12	San Juan la Laguna	1	Enero	2023-01-18T00:00:00	2024-11-08T21:00:00	6	Velocidad del viento	3.2
31582	7	Sololá	717	San Juan la Laguna	12	San Juan la Laguna	1	Enero	2023-01-18T00:00:00	2024-11-08T21:00:00	7	Dirección del viento	3.22
31583	7	Sololá	717	San Juan la Laguna	12	San Juan la Laguna	1	Enero	2023-01-18T00:00:00	2024-11-08T21:00:00	1	Precipitación	0
31584	7	Sololá	717	San Juan la Laguna	12	San Juan la Laguna	1	Enero	2023-01-18T00:00:00	2024-11-08T21:00:00	8	Radiación solar	0
31585	7	Sololá	717	San Juan la Laguna	12	San Juan la Laguna	1	Enero	2023-01-18T00:00:00	2024-11-08T22:00:00	2	Temperatura media	16.6
31586	7	Sololá	717	San Juan la Laguna	12	San Juan la Laguna	1	Enero	2023-01-18T00:00:00	2024-11-08T22:00:00	4	Temperatura máxima	17.4
31587	7	Sololá	717	San Juan la Laguna	12	San Juan la Laguna	1	Enero	2023-01-18T00:00:00	2024-11-08T22:00:00	3	Temperatura mínima	16.6
31588	7	Sololá	717	San Juan la Laguna	12	San Juan la Laguna	1	Enero	2023-01-18T00:00:00	2024-11-08T22:00:00	5	Humedad	84
31589	7	Sololá	717	San Juan la Laguna	12	San Juan la Laguna	1	Enero	2023-01-18T00:00:00	2024-11-08T22:00:00	6	Velocidad del viento	0
31590	7	Sololá	717	San Juan la Laguna	12	San Juan la Laguna	1	Enero	2023-01-18T00:00:00	2024-11-08T22:00:00	7	Dirección del viento	0
31591	7	Sololá	717	San Juan la Laguna	12	San Juan la Laguna	1	Enero	2023-01-18T00:00:00	2024-11-08T22:00:00	1	Precipitación	0
31592	7	Sololá	717	San Juan la Laguna	12	San Juan la Laguna	1	Enero	2023-01-18T00:00:00	2024-11-08T22:00:00	8	Radiación solar	0
31593	7	Sololá	717	San Juan la Laguna	12	San Juan la Laguna	1	Enero	2023-01-18T00:00:00	2024-11-08T23:00:00	2	Temperatura media	16.4
31594	7	Sololá	717	San Juan la Laguna	12	San Juan la Laguna	1	Enero	2023-01-18T00:00:00	2024-11-08T23:00:00	4	Temperatura máxima	16.6
31595	7	Sololá	717	San Juan la Laguna	12	San Juan la Laguna	1	Enero	2023-01-18T00:00:00	2024-11-08T23:00:00	3	Temperatura mínima	16.2
31596	7	Sololá	717	San Juan la Laguna	12	San Juan la Laguna	1	Enero	2023-01-18T00:00:00	2024-11-08T23:00:00	5	Humedad	85
31597	7	Sololá	717	San Juan la Laguna	12	San Juan la Laguna	1	Enero	2023-01-18T00:00:00	2024-11-08T23:00:00	6	Velocidad del viento	0
31598	7	Sololá	717	San Juan la Laguna	12	San Juan la Laguna	1	Enero	2023-01-18T00:00:00	2024-11-08T23:00:00	7	Dirección del viento	0
31599	7	Sololá	717	San Juan la Laguna	12	San Juan la Laguna	1	Enero	2023-01-18T00:00:00	2024-11-08T23:00:00	1	Precipitación	0
31600	7	Sololá	717	San Juan la Laguna	12	San Juan la Laguna	1	Enero	2023-01-18T00:00:00	2024-11-08T23:00:00	8	Radiación solar	0
31601	7	Sololá	717	San Juan la Laguna	12	San Juan la Laguna	1	Enero	2023-01-19T00:00:00	2024-11-08T00:00:00	2	Temperatura media	15.3
31602	7	Sololá	717	San Juan la Laguna	12	San Juan la Laguna	1	Enero	2023-01-19T00:00:00	2024-11-08T00:00:00	4	Temperatura máxima	16.5
31603	7	Sololá	717	San Juan la Laguna	12	San Juan la Laguna	1	Enero	2023-01-19T00:00:00	2024-11-08T00:00:00	3	Temperatura mínima	15.3
31604	7	Sololá	717	San Juan la Laguna	12	San Juan la Laguna	1	Enero	2023-01-19T00:00:00	2024-11-08T00:00:00	5	Humedad	87
31605	7	Sololá	717	San Juan la Laguna	12	San Juan la Laguna	1	Enero	2023-01-19T00:00:00	2024-11-08T00:00:00	6	Velocidad del viento	0
31606	7	Sololá	717	San Juan la Laguna	12	San Juan la Laguna	1	Enero	2023-01-19T00:00:00	2024-11-08T00:00:00	7	Dirección del viento	0
31607	7	Sololá	717	San Juan la Laguna	12	San Juan la Laguna	1	Enero	2023-01-19T00:00:00	2024-11-08T00:00:00	1	Precipitación	0
31608	7	Sololá	717	San Juan la Laguna	12	San Juan la Laguna	1	Enero	2023-01-19T00:00:00	2024-11-08T00:00:00	8	Radiación solar	0
31609	7	Sololá	717	San Juan la Laguna	12	San Juan la Laguna	1	Enero	2023-01-19T00:00:00	2024-11-08T01:00:00	2	Temperatura media	14
31610	7	Sololá	717	San Juan la Laguna	12	San Juan la Laguna	1	Enero	2023-01-19T00:00:00	2024-11-08T01:00:00	4	Temperatura máxima	15.4
31611	7	Sololá	717	San Juan la Laguna	12	San Juan la Laguna	1	Enero	2023-01-19T00:00:00	2024-11-08T01:00:00	3	Temperatura mínima	14
31612	7	Sololá	717	San Juan la Laguna	12	San Juan la Laguna	1	Enero	2023-01-19T00:00:00	2024-11-08T01:00:00	5	Humedad	88
31613	7	Sololá	717	San Juan la Laguna	12	San Juan la Laguna	1	Enero	2023-01-19T00:00:00	2024-11-08T01:00:00	6	Velocidad del viento	1.6
31614	7	Sololá	717	San Juan la Laguna	12	San Juan la Laguna	1	Enero	2023-01-19T00:00:00	2024-11-08T01:00:00	7	Dirección del viento	1.61
31615	7	Sololá	717	San Juan la Laguna	12	San Juan la Laguna	1	Enero	2023-01-19T00:00:00	2024-11-08T01:00:00	1	Precipitación	0
31616	7	Sololá	717	San Juan la Laguna	12	San Juan la Laguna	1	Enero	2023-01-19T00:00:00	2024-11-08T01:00:00	8	Radiación solar	0
31617	7	Sololá	717	San Juan la Laguna	12	San Juan la Laguna	1	Enero	2023-01-19T00:00:00	2024-11-08T02:00:00	2	Temperatura media	14.3
31618	7	Sololá	717	San Juan la Laguna	12	San Juan la Laguna	1	Enero	2023-01-19T00:00:00	2024-11-08T02:00:00	4	Temperatura máxima	14.3
31619	7	Sololá	717	San Juan la Laguna	12	San Juan la Laguna	1	Enero	2023-01-19T00:00:00	2024-11-08T02:00:00	3	Temperatura mínima	13.9
31620	7	Sololá	717	San Juan la Laguna	12	San Juan la Laguna	1	Enero	2023-01-19T00:00:00	2024-11-08T02:00:00	5	Humedad	86
31621	7	Sololá	717	San Juan la Laguna	12	San Juan la Laguna	1	Enero	2023-01-19T00:00:00	2024-11-08T02:00:00	6	Velocidad del viento	3.2
31622	7	Sololá	717	San Juan la Laguna	12	San Juan la Laguna	1	Enero	2023-01-19T00:00:00	2024-11-08T02:00:00	7	Dirección del viento	3.22
31623	7	Sololá	717	San Juan la Laguna	12	San Juan la Laguna	1	Enero	2023-01-19T00:00:00	2024-11-08T02:00:00	1	Precipitación	0
31624	7	Sololá	717	San Juan la Laguna	12	San Juan la Laguna	1	Enero	2023-01-19T00:00:00	2024-11-08T02:00:00	8	Radiación solar	0
31625	7	Sololá	717	San Juan la Laguna	12	San Juan la Laguna	1	Enero	2023-01-19T00:00:00	2024-11-08T03:00:00	2	Temperatura media	14.2
31626	7	Sololá	717	San Juan la Laguna	12	San Juan la Laguna	1	Enero	2023-01-19T00:00:00	2024-11-08T03:00:00	4	Temperatura máxima	14.4
31627	7	Sololá	717	San Juan la Laguna	12	San Juan la Laguna	1	Enero	2023-01-19T00:00:00	2024-11-08T03:00:00	3	Temperatura mínima	14
31628	7	Sololá	717	San Juan la Laguna	12	San Juan la Laguna	1	Enero	2023-01-19T00:00:00	2024-11-08T03:00:00	5	Humedad	86
31629	7	Sololá	717	San Juan la Laguna	12	San Juan la Laguna	1	Enero	2023-01-19T00:00:00	2024-11-08T03:00:00	6	Velocidad del viento	1.6
31630	7	Sololá	717	San Juan la Laguna	12	San Juan la Laguna	1	Enero	2023-01-19T00:00:00	2024-11-08T03:00:00	7	Dirección del viento	1.61
31631	7	Sololá	717	San Juan la Laguna	12	San Juan la Laguna	1	Enero	2023-01-19T00:00:00	2024-11-08T03:00:00	1	Precipitación	0
31632	7	Sololá	717	San Juan la Laguna	12	San Juan la Laguna	1	Enero	2023-01-19T00:00:00	2024-11-08T03:00:00	8	Radiación solar	0
31633	7	Sololá	717	San Juan la Laguna	12	San Juan la Laguna	1	Enero	2023-01-19T00:00:00	2024-11-08T04:00:00	2	Temperatura media	13.6
31634	7	Sololá	717	San Juan la Laguna	12	San Juan la Laguna	1	Enero	2023-01-19T00:00:00	2024-11-08T04:00:00	4	Temperatura máxima	14.3
31635	7	Sololá	717	San Juan la Laguna	12	San Juan la Laguna	1	Enero	2023-01-19T00:00:00	2024-11-08T04:00:00	3	Temperatura mínima	13.6
31636	7	Sololá	717	San Juan la Laguna	12	San Juan la Laguna	1	Enero	2023-01-19T00:00:00	2024-11-08T04:00:00	5	Humedad	83
31637	7	Sololá	717	San Juan la Laguna	12	San Juan la Laguna	1	Enero	2023-01-19T00:00:00	2024-11-08T04:00:00	6	Velocidad del viento	1.6
31638	7	Sololá	717	San Juan la Laguna	12	San Juan la Laguna	1	Enero	2023-01-19T00:00:00	2024-11-08T04:00:00	7	Dirección del viento	1.61
31639	7	Sololá	717	San Juan la Laguna	12	San Juan la Laguna	1	Enero	2023-01-19T00:00:00	2024-11-08T04:00:00	1	Precipitación	0
31640	7	Sololá	717	San Juan la Laguna	12	San Juan la Laguna	1	Enero	2023-01-19T00:00:00	2024-11-08T04:00:00	8	Radiación solar	0
31641	7	Sololá	717	San Juan la Laguna	12	San Juan la Laguna	1	Enero	2023-01-19T00:00:00	2024-11-08T05:00:00	2	Temperatura media	11.9
31642	7	Sololá	717	San Juan la Laguna	12	San Juan la Laguna	1	Enero	2023-01-19T00:00:00	2024-11-08T05:00:00	4	Temperatura máxima	13.6
31643	7	Sololá	717	San Juan la Laguna	12	San Juan la Laguna	1	Enero	2023-01-19T00:00:00	2024-11-08T05:00:00	3	Temperatura mínima	11.9
31644	7	Sololá	717	San Juan la Laguna	12	San Juan la Laguna	1	Enero	2023-01-19T00:00:00	2024-11-08T05:00:00	5	Humedad	81
31645	7	Sololá	717	San Juan la Laguna	12	San Juan la Laguna	1	Enero	2023-01-19T00:00:00	2024-11-08T05:00:00	6	Velocidad del viento	4.8
31646	7	Sololá	717	San Juan la Laguna	12	San Juan la Laguna	1	Enero	2023-01-19T00:00:00	2024-11-08T05:00:00	7	Dirección del viento	4.83
31647	7	Sololá	717	San Juan la Laguna	12	San Juan la Laguna	1	Enero	2023-01-19T00:00:00	2024-11-08T05:00:00	1	Precipitación	0
31648	7	Sololá	717	San Juan la Laguna	12	San Juan la Laguna	1	Enero	2023-01-19T00:00:00	2024-11-08T05:00:00	8	Radiación solar	0
31649	7	Sololá	717	San Juan la Laguna	12	San Juan la Laguna	1	Enero	2023-01-19T00:00:00	2024-11-08T06:00:00	2	Temperatura media	11.5
31650	7	Sololá	717	San Juan la Laguna	12	San Juan la Laguna	1	Enero	2023-01-19T00:00:00	2024-11-08T06:00:00	4	Temperatura máxima	11.9
31651	7	Sololá	717	San Juan la Laguna	12	San Juan la Laguna	1	Enero	2023-01-19T00:00:00	2024-11-08T06:00:00	3	Temperatura mínima	11.4
31652	7	Sololá	717	San Juan la Laguna	12	San Juan la Laguna	1	Enero	2023-01-19T00:00:00	2024-11-08T06:00:00	5	Humedad	80
31653	7	Sololá	717	San Juan la Laguna	12	San Juan la Laguna	1	Enero	2023-01-19T00:00:00	2024-11-08T06:00:00	6	Velocidad del viento	4.8
31654	7	Sololá	717	San Juan la Laguna	12	San Juan la Laguna	1	Enero	2023-01-19T00:00:00	2024-11-08T06:00:00	7	Dirección del viento	4.83
31655	7	Sololá	717	San Juan la Laguna	12	San Juan la Laguna	1	Enero	2023-01-19T00:00:00	2024-11-08T06:00:00	1	Precipitación	0
31656	7	Sololá	717	San Juan la Laguna	12	San Juan la Laguna	1	Enero	2023-01-19T00:00:00	2024-11-08T06:00:00	8	Radiación solar	0
31657	7	Sololá	717	San Juan la Laguna	12	San Juan la Laguna	1	Enero	2023-01-19T00:00:00	2024-11-08T07:00:00	2	Temperatura media	10.7
31658	7	Sololá	717	San Juan la Laguna	12	San Juan la Laguna	1	Enero	2023-01-19T00:00:00	2024-11-08T07:00:00	4	Temperatura máxima	11.5
31659	7	Sololá	717	San Juan la Laguna	12	San Juan la Laguna	1	Enero	2023-01-19T00:00:00	2024-11-08T07:00:00	3	Temperatura mínima	10.5
31660	7	Sololá	717	San Juan la Laguna	12	San Juan la Laguna	1	Enero	2023-01-19T00:00:00	2024-11-08T07:00:00	5	Humedad	76
31661	7	Sololá	717	San Juan la Laguna	12	San Juan la Laguna	1	Enero	2023-01-19T00:00:00	2024-11-08T07:00:00	6	Velocidad del viento	4.8
31662	7	Sololá	717	San Juan la Laguna	12	San Juan la Laguna	1	Enero	2023-01-19T00:00:00	2024-11-08T07:00:00	7	Dirección del viento	4.83
31663	7	Sololá	717	San Juan la Laguna	12	San Juan la Laguna	1	Enero	2023-01-19T00:00:00	2024-11-08T07:00:00	1	Precipitación	0
31664	7	Sololá	717	San Juan la Laguna	12	San Juan la Laguna	1	Enero	2023-01-19T00:00:00	2024-11-08T07:00:00	8	Radiación solar	9
31665	7	Sololá	717	San Juan la Laguna	12	San Juan la Laguna	1	Enero	2023-01-19T00:00:00	2024-11-08T08:00:00	2	Temperatura media	13.3
31666	7	Sololá	717	San Juan la Laguna	12	San Juan la Laguna	1	Enero	2023-01-19T00:00:00	2024-11-08T08:00:00	4	Temperatura máxima	13.3
31667	7	Sololá	717	San Juan la Laguna	12	San Juan la Laguna	1	Enero	2023-01-19T00:00:00	2024-11-08T08:00:00	3	Temperatura mínima	10.7
31668	7	Sololá	717	San Juan la Laguna	12	San Juan la Laguna	1	Enero	2023-01-19T00:00:00	2024-11-08T08:00:00	5	Humedad	75
31669	7	Sololá	717	San Juan la Laguna	12	San Juan la Laguna	1	Enero	2023-01-19T00:00:00	2024-11-08T08:00:00	6	Velocidad del viento	3.2
31670	7	Sololá	717	San Juan la Laguna	12	San Juan la Laguna	1	Enero	2023-01-19T00:00:00	2024-11-08T08:00:00	7	Dirección del viento	3.22
31671	7	Sololá	717	San Juan la Laguna	12	San Juan la Laguna	1	Enero	2023-01-19T00:00:00	2024-11-08T08:00:00	1	Precipitación	0
31672	7	Sololá	717	San Juan la Laguna	12	San Juan la Laguna	1	Enero	2023-01-19T00:00:00	2024-11-08T08:00:00	8	Radiación solar	142
31673	7	Sololá	717	San Juan la Laguna	12	San Juan la Laguna	1	Enero	2023-01-19T00:00:00	2024-11-08T09:00:00	2	Temperatura media	17.2
31674	7	Sololá	717	San Juan la Laguna	12	San Juan la Laguna	1	Enero	2023-01-19T00:00:00	2024-11-08T09:00:00	4	Temperatura máxima	17.2
31675	7	Sololá	717	San Juan la Laguna	12	San Juan la Laguna	1	Enero	2023-01-19T00:00:00	2024-11-08T09:00:00	3	Temperatura mínima	13.3
31676	7	Sololá	717	San Juan la Laguna	12	San Juan la Laguna	1	Enero	2023-01-19T00:00:00	2024-11-08T09:00:00	5	Humedad	68
31677	7	Sololá	717	San Juan la Laguna	12	San Juan la Laguna	1	Enero	2023-01-19T00:00:00	2024-11-08T09:00:00	6	Velocidad del viento	1.6
31678	7	Sololá	717	San Juan la Laguna	12	San Juan la Laguna	1	Enero	2023-01-19T00:00:00	2024-11-08T09:00:00	7	Dirección del viento	1.61
31679	7	Sololá	717	San Juan la Laguna	12	San Juan la Laguna	1	Enero	2023-01-19T00:00:00	2024-11-08T09:00:00	1	Precipitación	0
31680	7	Sololá	717	San Juan la Laguna	12	San Juan la Laguna	1	Enero	2023-01-19T00:00:00	2024-11-08T09:00:00	8	Radiación solar	348
31681	7	Sololá	717	San Juan la Laguna	12	San Juan la Laguna	1	Enero	2023-01-19T00:00:00	2024-11-08T10:00:00	2	Temperatura media	18.1
31682	7	Sololá	717	San Juan la Laguna	12	San Juan la Laguna	1	Enero	2023-01-19T00:00:00	2024-11-08T10:00:00	4	Temperatura máxima	18.4
31683	7	Sololá	717	San Juan la Laguna	12	San Juan la Laguna	1	Enero	2023-01-19T00:00:00	2024-11-08T10:00:00	3	Temperatura mínima	17.2
31684	7	Sololá	717	San Juan la Laguna	12	San Juan la Laguna	1	Enero	2023-01-19T00:00:00	2024-11-08T10:00:00	5	Humedad	60
31685	7	Sololá	717	San Juan la Laguna	12	San Juan la Laguna	1	Enero	2023-01-19T00:00:00	2024-11-08T10:00:00	6	Velocidad del viento	3.2
31686	7	Sololá	717	San Juan la Laguna	12	San Juan la Laguna	1	Enero	2023-01-19T00:00:00	2024-11-08T10:00:00	7	Dirección del viento	3.22
31687	7	Sololá	717	San Juan la Laguna	12	San Juan la Laguna	1	Enero	2023-01-19T00:00:00	2024-11-08T10:00:00	1	Precipitación	0
31688	7	Sololá	717	San Juan la Laguna	12	San Juan la Laguna	1	Enero	2023-01-19T00:00:00	2024-11-08T10:00:00	8	Radiación solar	544
31689	7	Sololá	717	San Juan la Laguna	12	San Juan la Laguna	1	Enero	2023-01-19T00:00:00	2024-11-08T11:00:00	2	Temperatura media	18.7
31690	7	Sololá	717	San Juan la Laguna	12	San Juan la Laguna	1	Enero	2023-01-19T00:00:00	2024-11-08T11:00:00	4	Temperatura máxima	19.2
31691	7	Sololá	717	San Juan la Laguna	12	San Juan la Laguna	1	Enero	2023-01-19T00:00:00	2024-11-08T11:00:00	3	Temperatura mínima	17.9
31692	7	Sololá	717	San Juan la Laguna	12	San Juan la Laguna	1	Enero	2023-01-19T00:00:00	2024-11-08T11:00:00	5	Humedad	59
31693	7	Sololá	717	San Juan la Laguna	12	San Juan la Laguna	1	Enero	2023-01-19T00:00:00	2024-11-08T11:00:00	6	Velocidad del viento	4.8
31694	7	Sololá	717	San Juan la Laguna	12	San Juan la Laguna	1	Enero	2023-01-19T00:00:00	2024-11-08T11:00:00	7	Dirección del viento	4.83
31695	7	Sololá	717	San Juan la Laguna	12	San Juan la Laguna	1	Enero	2023-01-19T00:00:00	2024-11-08T11:00:00	1	Precipitación	0
31696	7	Sololá	717	San Juan la Laguna	12	San Juan la Laguna	1	Enero	2023-01-19T00:00:00	2024-11-08T11:00:00	8	Radiación solar	652
31697	7	Sololá	717	San Juan la Laguna	12	San Juan la Laguna	1	Enero	2023-01-19T00:00:00	2024-11-08T12:00:00	2	Temperatura media	19.7
31698	7	Sololá	717	San Juan la Laguna	12	San Juan la Laguna	1	Enero	2023-01-19T00:00:00	2024-11-08T12:00:00	4	Temperatura máxima	19.9
31699	7	Sololá	717	San Juan la Laguna	12	San Juan la Laguna	1	Enero	2023-01-19T00:00:00	2024-11-08T12:00:00	3	Temperatura mínima	18.5
31700	7	Sololá	717	San Juan la Laguna	12	San Juan la Laguna	1	Enero	2023-01-19T00:00:00	2024-11-08T12:00:00	5	Humedad	55
31701	7	Sololá	717	San Juan la Laguna	12	San Juan la Laguna	1	Enero	2023-01-19T00:00:00	2024-11-08T12:00:00	6	Velocidad del viento	4.8
31702	7	Sololá	717	San Juan la Laguna	12	San Juan la Laguna	1	Enero	2023-01-19T00:00:00	2024-11-08T12:00:00	7	Dirección del viento	4.83
31703	7	Sololá	717	San Juan la Laguna	12	San Juan la Laguna	1	Enero	2023-01-19T00:00:00	2024-11-08T12:00:00	1	Precipitación	0
31704	7	Sololá	717	San Juan la Laguna	12	San Juan la Laguna	1	Enero	2023-01-19T00:00:00	2024-11-08T12:00:00	8	Radiación solar	702
31705	7	Sololá	717	San Juan la Laguna	12	San Juan la Laguna	1	Enero	2023-01-19T00:00:00	2024-11-08T13:00:00	2	Temperatura media	20.2
31706	7	Sololá	717	San Juan la Laguna	12	San Juan la Laguna	1	Enero	2023-01-19T00:00:00	2024-11-08T13:00:00	4	Temperatura máxima	20.3
31707	7	Sololá	717	San Juan la Laguna	12	San Juan la Laguna	1	Enero	2023-01-19T00:00:00	2024-11-08T13:00:00	3	Temperatura mínima	19.3
31708	7	Sololá	717	San Juan la Laguna	12	San Juan la Laguna	1	Enero	2023-01-19T00:00:00	2024-11-08T13:00:00	5	Humedad	57
31709	7	Sololá	717	San Juan la Laguna	12	San Juan la Laguna	1	Enero	2023-01-19T00:00:00	2024-11-08T13:00:00	6	Velocidad del viento	6.4
31710	7	Sololá	717	San Juan la Laguna	12	San Juan la Laguna	1	Enero	2023-01-19T00:00:00	2024-11-08T13:00:00	7	Dirección del viento	6.44
31711	7	Sololá	717	San Juan la Laguna	12	San Juan la Laguna	1	Enero	2023-01-19T00:00:00	2024-11-08T13:00:00	1	Precipitación	0
31712	7	Sololá	717	San Juan la Laguna	12	San Juan la Laguna	1	Enero	2023-01-19T00:00:00	2024-11-08T13:00:00	8	Radiación solar	790
31713	7	Sololá	717	San Juan la Laguna	12	San Juan la Laguna	1	Enero	2023-01-19T00:00:00	2024-11-08T14:00:00	2	Temperatura media	20.8
31714	7	Sololá	717	San Juan la Laguna	12	San Juan la Laguna	1	Enero	2023-01-19T00:00:00	2024-11-08T14:00:00	4	Temperatura máxima	21.4
31715	7	Sololá	717	San Juan la Laguna	12	San Juan la Laguna	1	Enero	2023-01-19T00:00:00	2024-11-08T14:00:00	3	Temperatura mínima	20.2
31716	7	Sololá	717	San Juan la Laguna	12	San Juan la Laguna	1	Enero	2023-01-19T00:00:00	2024-11-08T14:00:00	5	Humedad	64
31717	7	Sololá	717	San Juan la Laguna	12	San Juan la Laguna	1	Enero	2023-01-19T00:00:00	2024-11-08T14:00:00	6	Velocidad del viento	6.4
31718	7	Sololá	717	San Juan la Laguna	12	San Juan la Laguna	1	Enero	2023-01-19T00:00:00	2024-11-08T14:00:00	7	Dirección del viento	6.44
31719	7	Sololá	717	San Juan la Laguna	12	San Juan la Laguna	1	Enero	2023-01-19T00:00:00	2024-11-08T14:00:00	1	Precipitación	0
31720	7	Sololá	717	San Juan la Laguna	12	San Juan la Laguna	1	Enero	2023-01-19T00:00:00	2024-11-08T14:00:00	8	Radiación solar	740
31721	7	Sololá	717	San Juan la Laguna	12	San Juan la Laguna	1	Enero	2023-01-19T00:00:00	2024-11-08T15:00:00	2	Temperatura media	20.9
31722	7	Sololá	717	San Juan la Laguna	12	San Juan la Laguna	1	Enero	2023-01-19T00:00:00	2024-11-08T15:00:00	4	Temperatura máxima	21.8
31723	7	Sololá	717	San Juan la Laguna	12	San Juan la Laguna	1	Enero	2023-01-19T00:00:00	2024-11-08T15:00:00	3	Temperatura mínima	20.8
31724	7	Sololá	717	San Juan la Laguna	12	San Juan la Laguna	1	Enero	2023-01-19T00:00:00	2024-11-08T15:00:00	5	Humedad	65
31725	7	Sololá	717	San Juan la Laguna	12	San Juan la Laguna	1	Enero	2023-01-19T00:00:00	2024-11-08T15:00:00	6	Velocidad del viento	6.4
31726	7	Sololá	717	San Juan la Laguna	12	San Juan la Laguna	1	Enero	2023-01-19T00:00:00	2024-11-08T15:00:00	7	Dirección del viento	6.44
31727	7	Sololá	717	San Juan la Laguna	12	San Juan la Laguna	1	Enero	2023-01-19T00:00:00	2024-11-08T15:00:00	1	Precipitación	0
31728	7	Sololá	717	San Juan la Laguna	12	San Juan la Laguna	1	Enero	2023-01-19T00:00:00	2024-11-08T15:00:00	8	Radiación solar	670
31729	7	Sololá	717	San Juan la Laguna	12	San Juan la Laguna	1	Enero	2023-01-19T00:00:00	2024-11-08T16:00:00	2	Temperatura media	19.7
31730	7	Sololá	717	San Juan la Laguna	12	San Juan la Laguna	1	Enero	2023-01-19T00:00:00	2024-11-08T16:00:00	4	Temperatura máxima	21
31731	7	Sololá	717	San Juan la Laguna	12	San Juan la Laguna	1	Enero	2023-01-19T00:00:00	2024-11-08T16:00:00	3	Temperatura mínima	19.7
31732	7	Sololá	717	San Juan la Laguna	12	San Juan la Laguna	1	Enero	2023-01-19T00:00:00	2024-11-08T16:00:00	5	Humedad	68
31733	7	Sololá	717	San Juan la Laguna	12	San Juan la Laguna	1	Enero	2023-01-19T00:00:00	2024-11-08T16:00:00	6	Velocidad del viento	3.2
31734	7	Sololá	717	San Juan la Laguna	12	San Juan la Laguna	1	Enero	2023-01-19T00:00:00	2024-11-08T16:00:00	7	Dirección del viento	3.22
31735	7	Sololá	717	San Juan la Laguna	12	San Juan la Laguna	1	Enero	2023-01-19T00:00:00	2024-11-08T16:00:00	1	Precipitación	0
31736	7	Sololá	717	San Juan la Laguna	12	San Juan la Laguna	1	Enero	2023-01-19T00:00:00	2024-11-08T16:00:00	8	Radiación solar	286
31737	7	Sololá	717	San Juan la Laguna	12	San Juan la Laguna	1	Enero	2023-01-19T00:00:00	2024-11-08T17:00:00	2	Temperatura media	18.9
31738	7	Sololá	717	San Juan la Laguna	12	San Juan la Laguna	1	Enero	2023-01-19T00:00:00	2024-11-08T17:00:00	4	Temperatura máxima	19.8
31739	7	Sololá	717	San Juan la Laguna	12	San Juan la Laguna	1	Enero	2023-01-19T00:00:00	2024-11-08T17:00:00	3	Temperatura mínima	18.9
31740	7	Sololá	717	San Juan la Laguna	12	San Juan la Laguna	1	Enero	2023-01-19T00:00:00	2024-11-08T17:00:00	5	Humedad	71
31741	7	Sololá	717	San Juan la Laguna	12	San Juan la Laguna	1	Enero	2023-01-19T00:00:00	2024-11-08T17:00:00	6	Velocidad del viento	1.6
31742	7	Sololá	717	San Juan la Laguna	12	San Juan la Laguna	1	Enero	2023-01-19T00:00:00	2024-11-08T17:00:00	7	Dirección del viento	1.61
31743	7	Sololá	717	San Juan la Laguna	12	San Juan la Laguna	1	Enero	2023-01-19T00:00:00	2024-11-08T17:00:00	1	Precipitación	0
31744	7	Sololá	717	San Juan la Laguna	12	San Juan la Laguna	1	Enero	2023-01-19T00:00:00	2024-11-08T17:00:00	8	Radiación solar	124
31745	7	Sololá	717	San Juan la Laguna	12	San Juan la Laguna	1	Enero	2023-01-19T00:00:00	2024-11-08T18:00:00	2	Temperatura media	18.1
31746	7	Sololá	717	San Juan la Laguna	12	San Juan la Laguna	1	Enero	2023-01-19T00:00:00	2024-11-08T18:00:00	4	Temperatura máxima	18.9
31747	7	Sololá	717	San Juan la Laguna	12	San Juan la Laguna	1	Enero	2023-01-19T00:00:00	2024-11-08T18:00:00	3	Temperatura mínima	18.1
31748	7	Sololá	717	San Juan la Laguna	12	San Juan la Laguna	1	Enero	2023-01-19T00:00:00	2024-11-08T18:00:00	5	Humedad	74
31749	7	Sololá	717	San Juan la Laguna	12	San Juan la Laguna	1	Enero	2023-01-19T00:00:00	2024-11-08T18:00:00	6	Velocidad del viento	0
31750	7	Sololá	717	San Juan la Laguna	12	San Juan la Laguna	1	Enero	2023-01-19T00:00:00	2024-11-08T18:00:00	7	Dirección del viento	0
31751	7	Sololá	717	San Juan la Laguna	12	San Juan la Laguna	1	Enero	2023-01-19T00:00:00	2024-11-08T18:00:00	1	Precipitación	0
31752	7	Sololá	717	San Juan la Laguna	12	San Juan la Laguna	1	Enero	2023-01-19T00:00:00	2024-11-08T18:00:00	8	Radiación solar	32
31753	7	Sololá	717	San Juan la Laguna	12	San Juan la Laguna	1	Enero	2023-01-19T00:00:00	2024-11-08T19:00:00	2	Temperatura media	16.4
31754	7	Sololá	717	San Juan la Laguna	12	San Juan la Laguna	1	Enero	2023-01-19T00:00:00	2024-11-08T19:00:00	4	Temperatura máxima	18.1
31755	7	Sololá	717	San Juan la Laguna	12	San Juan la Laguna	1	Enero	2023-01-19T00:00:00	2024-11-08T19:00:00	3	Temperatura mínima	16.4
31756	7	Sololá	717	San Juan la Laguna	12	San Juan la Laguna	1	Enero	2023-01-19T00:00:00	2024-11-08T19:00:00	5	Humedad	82
31757	7	Sololá	717	San Juan la Laguna	12	San Juan la Laguna	1	Enero	2023-01-19T00:00:00	2024-11-08T19:00:00	6	Velocidad del viento	0
31758	7	Sololá	717	San Juan la Laguna	12	San Juan la Laguna	1	Enero	2023-01-19T00:00:00	2024-11-08T19:00:00	7	Dirección del viento	0
31759	7	Sololá	717	San Juan la Laguna	12	San Juan la Laguna	1	Enero	2023-01-19T00:00:00	2024-11-08T19:00:00	1	Precipitación	0
31760	7	Sololá	717	San Juan la Laguna	12	San Juan la Laguna	1	Enero	2023-01-19T00:00:00	2024-11-08T19:00:00	8	Radiación solar	0
31761	7	Sololá	717	San Juan la Laguna	12	San Juan la Laguna	1	Enero	2023-01-19T00:00:00	2024-11-08T20:00:00	2	Temperatura media	14.6
31762	7	Sololá	717	San Juan la Laguna	12	San Juan la Laguna	1	Enero	2023-01-19T00:00:00	2024-11-08T20:00:00	4	Temperatura máxima	16.4
31763	7	Sololá	717	San Juan la Laguna	12	San Juan la Laguna	1	Enero	2023-01-19T00:00:00	2024-11-08T20:00:00	3	Temperatura mínima	14.6
31764	7	Sololá	717	San Juan la Laguna	12	San Juan la Laguna	1	Enero	2023-01-19T00:00:00	2024-11-08T20:00:00	5	Humedad	86
31765	7	Sololá	717	San Juan la Laguna	12	San Juan la Laguna	1	Enero	2023-01-19T00:00:00	2024-11-08T20:00:00	6	Velocidad del viento	1.6
31766	7	Sololá	717	San Juan la Laguna	12	San Juan la Laguna	1	Enero	2023-01-19T00:00:00	2024-11-08T20:00:00	7	Dirección del viento	1.61
31767	7	Sololá	717	San Juan la Laguna	12	San Juan la Laguna	1	Enero	2023-01-19T00:00:00	2024-11-08T20:00:00	1	Precipitación	0
31768	7	Sololá	717	San Juan la Laguna	12	San Juan la Laguna	1	Enero	2023-01-19T00:00:00	2024-11-08T20:00:00	8	Radiación solar	0
31769	7	Sololá	717	San Juan la Laguna	12	San Juan la Laguna	1	Enero	2023-01-19T00:00:00	2024-11-08T21:00:00	2	Temperatura media	13.8
31770	7	Sololá	717	San Juan la Laguna	12	San Juan la Laguna	1	Enero	2023-01-19T00:00:00	2024-11-08T21:00:00	4	Temperatura máxima	14.6
31771	7	Sololá	717	San Juan la Laguna	12	San Juan la Laguna	1	Enero	2023-01-19T00:00:00	2024-11-08T21:00:00	3	Temperatura mínima	13.8
31772	7	Sololá	717	San Juan la Laguna	12	San Juan la Laguna	1	Enero	2023-01-19T00:00:00	2024-11-08T21:00:00	5	Humedad	83
31773	7	Sololá	717	San Juan la Laguna	12	San Juan la Laguna	1	Enero	2023-01-19T00:00:00	2024-11-08T21:00:00	6	Velocidad del viento	3.2
31774	7	Sololá	717	San Juan la Laguna	12	San Juan la Laguna	1	Enero	2023-01-19T00:00:00	2024-11-08T21:00:00	7	Dirección del viento	3.22
31775	7	Sololá	717	San Juan la Laguna	12	San Juan la Laguna	1	Enero	2023-01-19T00:00:00	2024-11-08T21:00:00	1	Precipitación	0
31776	7	Sololá	717	San Juan la Laguna	12	San Juan la Laguna	1	Enero	2023-01-19T00:00:00	2024-11-08T21:00:00	8	Radiación solar	0
31777	7	Sololá	717	San Juan la Laguna	12	San Juan la Laguna	1	Enero	2023-01-19T00:00:00	2024-11-08T22:00:00	2	Temperatura media	12.9
31778	7	Sololá	717	San Juan la Laguna	12	San Juan la Laguna	1	Enero	2023-01-19T00:00:00	2024-11-08T22:00:00	4	Temperatura máxima	13.9
31779	7	Sololá	717	San Juan la Laguna	12	San Juan la Laguna	1	Enero	2023-01-19T00:00:00	2024-11-08T22:00:00	3	Temperatura mínima	12.9
31780	7	Sololá	717	San Juan la Laguna	12	San Juan la Laguna	1	Enero	2023-01-19T00:00:00	2024-11-08T22:00:00	5	Humedad	82
31781	7	Sololá	717	San Juan la Laguna	12	San Juan la Laguna	1	Enero	2023-01-19T00:00:00	2024-11-08T22:00:00	6	Velocidad del viento	3.2
31782	7	Sololá	717	San Juan la Laguna	12	San Juan la Laguna	1	Enero	2023-01-19T00:00:00	2024-11-08T22:00:00	7	Dirección del viento	3.22
31783	7	Sololá	717	San Juan la Laguna	12	San Juan la Laguna	1	Enero	2023-01-19T00:00:00	2024-11-08T22:00:00	1	Precipitación	0
31784	7	Sololá	717	San Juan la Laguna	12	San Juan la Laguna	1	Enero	2023-01-19T00:00:00	2024-11-08T22:00:00	8	Radiación solar	0
31785	7	Sololá	717	San Juan la Laguna	12	San Juan la Laguna	1	Enero	2023-01-19T00:00:00	2024-11-08T23:00:00	2	Temperatura media	12.3
31786	7	Sololá	717	San Juan la Laguna	12	San Juan la Laguna	1	Enero	2023-01-19T00:00:00	2024-11-08T23:00:00	4	Temperatura máxima	12.9
31787	7	Sololá	717	San Juan la Laguna	12	San Juan la Laguna	1	Enero	2023-01-19T00:00:00	2024-11-08T23:00:00	3	Temperatura mínima	12.2
31788	7	Sololá	717	San Juan la Laguna	12	San Juan la Laguna	1	Enero	2023-01-19T00:00:00	2024-11-08T23:00:00	5	Humedad	85
31789	7	Sololá	717	San Juan la Laguna	12	San Juan la Laguna	1	Enero	2023-01-19T00:00:00	2024-11-08T23:00:00	6	Velocidad del viento	3.2
31790	7	Sololá	717	San Juan la Laguna	12	San Juan la Laguna	1	Enero	2023-01-19T00:00:00	2024-11-08T23:00:00	7	Dirección del viento	3.22
31791	7	Sololá	717	San Juan la Laguna	12	San Juan la Laguna	1	Enero	2023-01-19T00:00:00	2024-11-08T23:00:00	1	Precipitación	0
31792	7	Sololá	717	San Juan la Laguna	12	San Juan la Laguna	1	Enero	2023-01-19T00:00:00	2024-11-08T23:00:00	8	Radiación solar	0
31793	7	Sololá	717	San Juan la Laguna	12	San Juan la Laguna	1	Enero	2023-01-20T00:00:00	2024-11-08T00:00:00	2	Temperatura media	12.7
31794	7	Sololá	717	San Juan la Laguna	12	San Juan la Laguna	1	Enero	2023-01-20T00:00:00	2024-11-08T00:00:00	4	Temperatura máxima	12.8
31795	7	Sololá	717	San Juan la Laguna	12	San Juan la Laguna	1	Enero	2023-01-20T00:00:00	2024-11-08T00:00:00	3	Temperatura mínima	12.2
31796	7	Sololá	717	San Juan la Laguna	12	San Juan la Laguna	1	Enero	2023-01-20T00:00:00	2024-11-08T00:00:00	5	Humedad	77
31797	7	Sololá	717	San Juan la Laguna	12	San Juan la Laguna	1	Enero	2023-01-20T00:00:00	2024-11-08T00:00:00	6	Velocidad del viento	4.8
31798	7	Sololá	717	San Juan la Laguna	12	San Juan la Laguna	1	Enero	2023-01-20T00:00:00	2024-11-08T00:00:00	7	Dirección del viento	4.83
31799	7	Sololá	717	San Juan la Laguna	12	San Juan la Laguna	1	Enero	2023-01-20T00:00:00	2024-11-08T00:00:00	1	Precipitación	0
31800	7	Sololá	717	San Juan la Laguna	12	San Juan la Laguna	1	Enero	2023-01-20T00:00:00	2024-11-08T00:00:00	8	Radiación solar	0
31801	7	Sololá	717	San Juan la Laguna	12	San Juan la Laguna	1	Enero	2023-01-20T00:00:00	2024-11-08T01:00:00	2	Temperatura media	11.7
31802	7	Sololá	717	San Juan la Laguna	12	San Juan la Laguna	1	Enero	2023-01-20T00:00:00	2024-11-08T01:00:00	4	Temperatura máxima	12.7
31803	7	Sololá	717	San Juan la Laguna	12	San Juan la Laguna	1	Enero	2023-01-20T00:00:00	2024-11-08T01:00:00	3	Temperatura mínima	11.7
31804	7	Sololá	717	San Juan la Laguna	12	San Juan la Laguna	1	Enero	2023-01-20T00:00:00	2024-11-08T01:00:00	5	Humedad	82
31805	7	Sololá	717	San Juan la Laguna	12	San Juan la Laguna	1	Enero	2023-01-20T00:00:00	2024-11-08T01:00:00	6	Velocidad del viento	3.2
31806	7	Sololá	717	San Juan la Laguna	12	San Juan la Laguna	1	Enero	2023-01-20T00:00:00	2024-11-08T01:00:00	7	Dirección del viento	3.22
31807	7	Sololá	717	San Juan la Laguna	12	San Juan la Laguna	1	Enero	2023-01-20T00:00:00	2024-11-08T01:00:00	1	Precipitación	0
31808	7	Sololá	717	San Juan la Laguna	12	San Juan la Laguna	1	Enero	2023-01-20T00:00:00	2024-11-08T01:00:00	8	Radiación solar	0
31809	7	Sololá	717	San Juan la Laguna	12	San Juan la Laguna	1	Enero	2023-01-20T00:00:00	2024-11-08T02:00:00	2	Temperatura media	11.8
31810	7	Sololá	717	San Juan la Laguna	12	San Juan la Laguna	1	Enero	2023-01-20T00:00:00	2024-11-08T02:00:00	4	Temperatura máxima	11.9
31811	7	Sololá	717	San Juan la Laguna	12	San Juan la Laguna	1	Enero	2023-01-20T00:00:00	2024-11-08T02:00:00	3	Temperatura mínima	11.6
31812	7	Sololá	717	San Juan la Laguna	12	San Juan la Laguna	1	Enero	2023-01-20T00:00:00	2024-11-08T02:00:00	5	Humedad	80
31813	7	Sololá	717	San Juan la Laguna	12	San Juan la Laguna	1	Enero	2023-01-20T00:00:00	2024-11-08T02:00:00	6	Velocidad del viento	4.8
31814	7	Sololá	717	San Juan la Laguna	12	San Juan la Laguna	1	Enero	2023-01-20T00:00:00	2024-11-08T02:00:00	7	Dirección del viento	4.83
31815	7	Sololá	717	San Juan la Laguna	12	San Juan la Laguna	1	Enero	2023-01-20T00:00:00	2024-11-08T02:00:00	1	Precipitación	0
31816	7	Sololá	717	San Juan la Laguna	12	San Juan la Laguna	1	Enero	2023-01-20T00:00:00	2024-11-08T02:00:00	8	Radiación solar	0
31817	7	Sololá	717	San Juan la Laguna	12	San Juan la Laguna	1	Enero	2023-01-20T00:00:00	2024-11-08T03:00:00	2	Temperatura media	11.6
31818	7	Sololá	717	San Juan la Laguna	12	San Juan la Laguna	1	Enero	2023-01-20T00:00:00	2024-11-08T03:00:00	4	Temperatura máxima	11.8
31819	7	Sololá	717	San Juan la Laguna	12	San Juan la Laguna	1	Enero	2023-01-20T00:00:00	2024-11-08T03:00:00	3	Temperatura mínima	11.4
31820	7	Sololá	717	San Juan la Laguna	12	San Juan la Laguna	1	Enero	2023-01-20T00:00:00	2024-11-08T03:00:00	5	Humedad	78
31821	7	Sololá	717	San Juan la Laguna	12	San Juan la Laguna	1	Enero	2023-01-20T00:00:00	2024-11-08T03:00:00	6	Velocidad del viento	4.8
31822	7	Sololá	717	San Juan la Laguna	12	San Juan la Laguna	1	Enero	2023-01-20T00:00:00	2024-11-08T03:00:00	7	Dirección del viento	4.83
31823	7	Sololá	717	San Juan la Laguna	12	San Juan la Laguna	1	Enero	2023-01-20T00:00:00	2024-11-08T03:00:00	1	Precipitación	0
31824	7	Sololá	717	San Juan la Laguna	12	San Juan la Laguna	1	Enero	2023-01-20T00:00:00	2024-11-08T03:00:00	8	Radiación solar	0
31825	7	Sololá	717	San Juan la Laguna	12	San Juan la Laguna	1	Enero	2023-01-20T00:00:00	2024-11-08T04:00:00	2	Temperatura media	11.4
31826	7	Sololá	717	San Juan la Laguna	12	San Juan la Laguna	1	Enero	2023-01-20T00:00:00	2024-11-08T04:00:00	4	Temperatura máxima	11.7
31827	7	Sololá	717	San Juan la Laguna	12	San Juan la Laguna	1	Enero	2023-01-20T00:00:00	2024-11-08T04:00:00	3	Temperatura mínima	11.4
31828	7	Sololá	717	San Juan la Laguna	12	San Juan la Laguna	1	Enero	2023-01-20T00:00:00	2024-11-08T04:00:00	5	Humedad	76
31829	7	Sololá	717	San Juan la Laguna	12	San Juan la Laguna	1	Enero	2023-01-20T00:00:00	2024-11-08T04:00:00	6	Velocidad del viento	3.2
31830	7	Sololá	717	San Juan la Laguna	12	San Juan la Laguna	1	Enero	2023-01-20T00:00:00	2024-11-08T04:00:00	7	Dirección del viento	3.22
31831	7	Sololá	717	San Juan la Laguna	12	San Juan la Laguna	1	Enero	2023-01-20T00:00:00	2024-11-08T04:00:00	1	Precipitación	0
31832	7	Sololá	717	San Juan la Laguna	12	San Juan la Laguna	1	Enero	2023-01-20T00:00:00	2024-11-08T04:00:00	8	Radiación solar	0
31833	7	Sololá	717	San Juan la Laguna	12	San Juan la Laguna	1	Enero	2023-01-20T00:00:00	2024-11-08T05:00:00	2	Temperatura media	11.3
31834	7	Sololá	717	San Juan la Laguna	12	San Juan la Laguna	1	Enero	2023-01-20T00:00:00	2024-11-08T05:00:00	4	Temperatura máxima	11.4
31835	7	Sololá	717	San Juan la Laguna	12	San Juan la Laguna	1	Enero	2023-01-20T00:00:00	2024-11-08T05:00:00	3	Temperatura mínima	11
31836	7	Sololá	717	San Juan la Laguna	12	San Juan la Laguna	1	Enero	2023-01-20T00:00:00	2024-11-08T05:00:00	5	Humedad	79
31837	7	Sololá	717	San Juan la Laguna	12	San Juan la Laguna	1	Enero	2023-01-20T00:00:00	2024-11-08T05:00:00	6	Velocidad del viento	3.2
31838	7	Sololá	717	San Juan la Laguna	12	San Juan la Laguna	1	Enero	2023-01-20T00:00:00	2024-11-08T05:00:00	7	Dirección del viento	3.22
31839	7	Sololá	717	San Juan la Laguna	12	San Juan la Laguna	1	Enero	2023-01-20T00:00:00	2024-11-08T05:00:00	1	Precipitación	0
31840	7	Sololá	717	San Juan la Laguna	12	San Juan la Laguna	1	Enero	2023-01-20T00:00:00	2024-11-08T05:00:00	8	Radiación solar	0
31841	7	Sololá	717	San Juan la Laguna	12	San Juan la Laguna	1	Enero	2023-01-20T00:00:00	2024-11-08T06:00:00	2	Temperatura media	11.2
31842	7	Sololá	717	San Juan la Laguna	12	San Juan la Laguna	1	Enero	2023-01-20T00:00:00	2024-11-08T06:00:00	4	Temperatura máxima	11.4
31843	7	Sololá	717	San Juan la Laguna	12	San Juan la Laguna	1	Enero	2023-01-20T00:00:00	2024-11-08T06:00:00	3	Temperatura mínima	11.2
31844	7	Sololá	717	San Juan la Laguna	12	San Juan la Laguna	1	Enero	2023-01-20T00:00:00	2024-11-08T06:00:00	5	Humedad	76
31845	7	Sololá	717	San Juan la Laguna	12	San Juan la Laguna	1	Enero	2023-01-20T00:00:00	2024-11-08T06:00:00	6	Velocidad del viento	3.2
31846	7	Sololá	717	San Juan la Laguna	12	San Juan la Laguna	1	Enero	2023-01-20T00:00:00	2024-11-08T06:00:00	7	Dirección del viento	3.22
31847	7	Sololá	717	San Juan la Laguna	12	San Juan la Laguna	1	Enero	2023-01-20T00:00:00	2024-11-08T06:00:00	1	Precipitación	0
31848	7	Sololá	717	San Juan la Laguna	12	San Juan la Laguna	1	Enero	2023-01-20T00:00:00	2024-11-08T06:00:00	8	Radiación solar	0
31849	7	Sololá	717	San Juan la Laguna	12	San Juan la Laguna	1	Enero	2023-01-20T00:00:00	2024-11-08T07:00:00	2	Temperatura media	10.5
31850	7	Sololá	717	San Juan la Laguna	12	San Juan la Laguna	1	Enero	2023-01-20T00:00:00	2024-11-08T07:00:00	4	Temperatura máxima	11.2
31851	7	Sololá	717	San Juan la Laguna	12	San Juan la Laguna	1	Enero	2023-01-20T00:00:00	2024-11-08T07:00:00	3	Temperatura mínima	10.4
31852	7	Sololá	717	San Juan la Laguna	12	San Juan la Laguna	1	Enero	2023-01-20T00:00:00	2024-11-08T07:00:00	5	Humedad	82
31853	7	Sololá	717	San Juan la Laguna	12	San Juan la Laguna	1	Enero	2023-01-20T00:00:00	2024-11-08T07:00:00	6	Velocidad del viento	3.2
31854	7	Sololá	717	San Juan la Laguna	12	San Juan la Laguna	1	Enero	2023-01-20T00:00:00	2024-11-08T07:00:00	7	Dirección del viento	3.22
31855	7	Sololá	717	San Juan la Laguna	12	San Juan la Laguna	1	Enero	2023-01-20T00:00:00	2024-11-08T07:00:00	1	Precipitación	0
31856	7	Sololá	717	San Juan la Laguna	12	San Juan la Laguna	1	Enero	2023-01-20T00:00:00	2024-11-08T07:00:00	8	Radiación solar	4
31857	7	Sololá	717	San Juan la Laguna	12	San Juan la Laguna	1	Enero	2023-01-20T00:00:00	2024-11-08T08:00:00	2	Temperatura media	13.3
31858	7	Sololá	717	San Juan la Laguna	12	San Juan la Laguna	1	Enero	2023-01-20T00:00:00	2024-11-08T08:00:00	4	Temperatura máxima	13.3
31859	7	Sololá	717	San Juan la Laguna	12	San Juan la Laguna	1	Enero	2023-01-20T00:00:00	2024-11-08T08:00:00	3	Temperatura mínima	10.5
31860	7	Sololá	717	San Juan la Laguna	12	San Juan la Laguna	1	Enero	2023-01-20T00:00:00	2024-11-08T08:00:00	5	Humedad	77
31861	7	Sololá	717	San Juan la Laguna	12	San Juan la Laguna	1	Enero	2023-01-20T00:00:00	2024-11-08T08:00:00	6	Velocidad del viento	3.2
31862	7	Sololá	717	San Juan la Laguna	12	San Juan la Laguna	1	Enero	2023-01-20T00:00:00	2024-11-08T08:00:00	7	Dirección del viento	3.22
31863	7	Sololá	717	San Juan la Laguna	12	San Juan la Laguna	1	Enero	2023-01-20T00:00:00	2024-11-08T08:00:00	1	Precipitación	0
31864	7	Sololá	717	San Juan la Laguna	12	San Juan la Laguna	1	Enero	2023-01-20T00:00:00	2024-11-08T08:00:00	8	Radiación solar	119
31865	7	Sololá	717	San Juan la Laguna	12	San Juan la Laguna	1	Enero	2023-01-20T00:00:00	2024-11-08T09:00:00	2	Temperatura media	18.8
31866	7	Sololá	717	San Juan la Laguna	12	San Juan la Laguna	1	Enero	2023-01-20T00:00:00	2024-11-08T09:00:00	4	Temperatura máxima	19.1
31867	7	Sololá	717	San Juan la Laguna	12	San Juan la Laguna	1	Enero	2023-01-20T00:00:00	2024-11-08T09:00:00	3	Temperatura mínima	13.3
31868	7	Sololá	717	San Juan la Laguna	12	San Juan la Laguna	1	Enero	2023-01-20T00:00:00	2024-11-08T09:00:00	5	Humedad	62
31869	7	Sololá	717	San Juan la Laguna	12	San Juan la Laguna	1	Enero	2023-01-20T00:00:00	2024-11-08T09:00:00	6	Velocidad del viento	0
31870	7	Sololá	717	San Juan la Laguna	12	San Juan la Laguna	1	Enero	2023-01-20T00:00:00	2024-11-08T09:00:00	7	Dirección del viento	0
31871	7	Sololá	717	San Juan la Laguna	12	San Juan la Laguna	1	Enero	2023-01-20T00:00:00	2024-11-08T09:00:00	1	Precipitación	0
31872	7	Sololá	717	San Juan la Laguna	12	San Juan la Laguna	1	Enero	2023-01-20T00:00:00	2024-11-08T09:00:00	8	Radiación solar	341
31873	7	Sololá	717	San Juan la Laguna	12	San Juan la Laguna	1	Enero	2023-01-20T00:00:00	2024-11-08T10:00:00	2	Temperatura media	21.1
31874	7	Sololá	717	San Juan la Laguna	12	San Juan la Laguna	1	Enero	2023-01-20T00:00:00	2024-11-08T10:00:00	4	Temperatura máxima	21.1
31875	7	Sololá	717	San Juan la Laguna	12	San Juan la Laguna	1	Enero	2023-01-20T00:00:00	2024-11-08T10:00:00	3	Temperatura mínima	18.7
31876	7	Sololá	717	San Juan la Laguna	12	San Juan la Laguna	1	Enero	2023-01-20T00:00:00	2024-11-08T10:00:00	5	Humedad	50
31877	7	Sololá	717	San Juan la Laguna	12	San Juan la Laguna	1	Enero	2023-01-20T00:00:00	2024-11-08T10:00:00	6	Velocidad del viento	1.6
31878	7	Sololá	717	San Juan la Laguna	12	San Juan la Laguna	1	Enero	2023-01-20T00:00:00	2024-11-08T10:00:00	7	Dirección del viento	1.61
31879	7	Sololá	717	San Juan la Laguna	12	San Juan la Laguna	1	Enero	2023-01-20T00:00:00	2024-11-08T10:00:00	1	Precipitación	0
31880	7	Sololá	717	San Juan la Laguna	12	San Juan la Laguna	1	Enero	2023-01-20T00:00:00	2024-11-08T10:00:00	8	Radiación solar	535
31881	7	Sololá	717	San Juan la Laguna	12	San Juan la Laguna	1	Enero	2023-01-20T00:00:00	2024-11-08T11:00:00	2	Temperatura media	22.1
31882	7	Sololá	717	San Juan la Laguna	12	San Juan la Laguna	1	Enero	2023-01-20T00:00:00	2024-11-08T11:00:00	4	Temperatura máxima	22.1
31883	7	Sololá	717	San Juan la Laguna	12	San Juan la Laguna	1	Enero	2023-01-20T00:00:00	2024-11-08T11:00:00	3	Temperatura mínima	20.9
31884	7	Sololá	717	San Juan la Laguna	12	San Juan la Laguna	1	Enero	2023-01-20T00:00:00	2024-11-08T11:00:00	5	Humedad	50
31885	7	Sololá	717	San Juan la Laguna	12	San Juan la Laguna	1	Enero	2023-01-20T00:00:00	2024-11-08T11:00:00	6	Velocidad del viento	4.8
31886	7	Sololá	717	San Juan la Laguna	12	San Juan la Laguna	1	Enero	2023-01-20T00:00:00	2024-11-08T11:00:00	7	Dirección del viento	4.83
31887	7	Sololá	717	San Juan la Laguna	12	San Juan la Laguna	1	Enero	2023-01-20T00:00:00	2024-11-08T11:00:00	1	Precipitación	0
31888	7	Sololá	717	San Juan la Laguna	12	San Juan la Laguna	1	Enero	2023-01-20T00:00:00	2024-11-08T11:00:00	8	Radiación solar	649
31889	7	Sololá	717	San Juan la Laguna	12	San Juan la Laguna	1	Enero	2023-01-20T00:00:00	2024-11-08T12:00:00	2	Temperatura media	24.2
31890	7	Sololá	717	San Juan la Laguna	12	San Juan la Laguna	1	Enero	2023-01-20T00:00:00	2024-11-08T12:00:00	4	Temperatura máxima	24.2
31891	7	Sololá	717	San Juan la Laguna	12	San Juan la Laguna	1	Enero	2023-01-20T00:00:00	2024-11-08T12:00:00	3	Temperatura mínima	22.1
31892	7	Sololá	717	San Juan la Laguna	12	San Juan la Laguna	1	Enero	2023-01-20T00:00:00	2024-11-08T12:00:00	5	Humedad	43
31893	7	Sololá	717	San Juan la Laguna	12	San Juan la Laguna	1	Enero	2023-01-20T00:00:00	2024-11-08T12:00:00	6	Velocidad del viento	6.4
31894	7	Sololá	717	San Juan la Laguna	12	San Juan la Laguna	1	Enero	2023-01-20T00:00:00	2024-11-08T12:00:00	7	Dirección del viento	6.44
31895	7	Sololá	717	San Juan la Laguna	12	San Juan la Laguna	1	Enero	2023-01-20T00:00:00	2024-11-08T12:00:00	1	Precipitación	0
31896	7	Sololá	717	San Juan la Laguna	12	San Juan la Laguna	1	Enero	2023-01-20T00:00:00	2024-11-08T12:00:00	8	Radiación solar	705
31897	7	Sololá	717	San Juan la Laguna	12	San Juan la Laguna	1	Enero	2023-01-20T00:00:00	2024-11-08T13:00:00	2	Temperatura media	24.8
31898	7	Sololá	717	San Juan la Laguna	12	San Juan la Laguna	1	Enero	2023-01-20T00:00:00	2024-11-08T13:00:00	4	Temperatura máxima	25
31899	7	Sololá	717	San Juan la Laguna	12	San Juan la Laguna	1	Enero	2023-01-20T00:00:00	2024-11-08T13:00:00	3	Temperatura mínima	24.2
31900	7	Sololá	717	San Juan la Laguna	12	San Juan la Laguna	1	Enero	2023-01-20T00:00:00	2024-11-08T13:00:00	5	Humedad	38
31901	7	Sololá	717	San Juan la Laguna	12	San Juan la Laguna	1	Enero	2023-01-20T00:00:00	2024-11-08T13:00:00	6	Velocidad del viento	8
31902	7	Sololá	717	San Juan la Laguna	12	San Juan la Laguna	1	Enero	2023-01-20T00:00:00	2024-11-08T13:00:00	7	Dirección del viento	8.05
31903	7	Sololá	717	San Juan la Laguna	12	San Juan la Laguna	1	Enero	2023-01-20T00:00:00	2024-11-08T13:00:00	1	Precipitación	0
31904	7	Sololá	717	San Juan la Laguna	12	San Juan la Laguna	1	Enero	2023-01-20T00:00:00	2024-11-08T13:00:00	8	Radiación solar	794
31905	7	Sololá	717	San Juan la Laguna	12	San Juan la Laguna	1	Enero	2023-01-20T00:00:00	2024-11-08T14:00:00	2	Temperatura media	23.9
31906	7	Sololá	717	San Juan la Laguna	12	San Juan la Laguna	1	Enero	2023-01-20T00:00:00	2024-11-08T14:00:00	4	Temperatura máxima	25.2
31907	7	Sololá	717	San Juan la Laguna	12	San Juan la Laguna	1	Enero	2023-01-20T00:00:00	2024-11-08T14:00:00	3	Temperatura mínima	23.9
31908	7	Sololá	717	San Juan la Laguna	12	San Juan la Laguna	1	Enero	2023-01-20T00:00:00	2024-11-08T14:00:00	5	Humedad	50
31909	7	Sololá	717	San Juan la Laguna	12	San Juan la Laguna	1	Enero	2023-01-20T00:00:00	2024-11-08T14:00:00	6	Velocidad del viento	6.4
31910	7	Sololá	717	San Juan la Laguna	12	San Juan la Laguna	1	Enero	2023-01-20T00:00:00	2024-11-08T14:00:00	7	Dirección del viento	6.44
31911	7	Sololá	717	San Juan la Laguna	12	San Juan la Laguna	1	Enero	2023-01-20T00:00:00	2024-11-08T14:00:00	1	Precipitación	0
31912	7	Sololá	717	San Juan la Laguna	12	San Juan la Laguna	1	Enero	2023-01-20T00:00:00	2024-11-08T14:00:00	8	Radiación solar	747
31913	7	Sololá	717	San Juan la Laguna	12	San Juan la Laguna	1	Enero	2023-01-20T00:00:00	2024-11-08T15:00:00	2	Temperatura media	21.8
31914	7	Sololá	717	San Juan la Laguna	12	San Juan la Laguna	1	Enero	2023-01-20T00:00:00	2024-11-08T15:00:00	4	Temperatura máxima	23.9
31915	7	Sololá	717	San Juan la Laguna	12	San Juan la Laguna	1	Enero	2023-01-20T00:00:00	2024-11-08T15:00:00	3	Temperatura mínima	21.6
31916	7	Sololá	717	San Juan la Laguna	12	San Juan la Laguna	1	Enero	2023-01-20T00:00:00	2024-11-08T15:00:00	5	Humedad	65
31917	7	Sololá	717	San Juan la Laguna	12	San Juan la Laguna	1	Enero	2023-01-20T00:00:00	2024-11-08T15:00:00	6	Velocidad del viento	6.4
31918	7	Sololá	717	San Juan la Laguna	12	San Juan la Laguna	1	Enero	2023-01-20T00:00:00	2024-11-08T15:00:00	7	Dirección del viento	6.44
31919	7	Sololá	717	San Juan la Laguna	12	San Juan la Laguna	1	Enero	2023-01-20T00:00:00	2024-11-08T15:00:00	1	Precipitación	0
31920	7	Sololá	717	San Juan la Laguna	12	San Juan la Laguna	1	Enero	2023-01-20T00:00:00	2024-11-08T15:00:00	8	Radiación solar	617
31921	7	Sololá	717	San Juan la Laguna	12	San Juan la Laguna	1	Enero	2023-01-20T00:00:00	2024-11-08T16:00:00	2	Temperatura media	20.1
31922	7	Sololá	717	San Juan la Laguna	12	San Juan la Laguna	1	Enero	2023-01-20T00:00:00	2024-11-08T16:00:00	4	Temperatura máxima	21.9
31923	7	Sololá	717	San Juan la Laguna	12	San Juan la Laguna	1	Enero	2023-01-20T00:00:00	2024-11-08T16:00:00	3	Temperatura mínima	20.1
31924	7	Sololá	717	San Juan la Laguna	12	San Juan la Laguna	1	Enero	2023-01-20T00:00:00	2024-11-08T16:00:00	5	Humedad	72
31925	7	Sololá	717	San Juan la Laguna	12	San Juan la Laguna	1	Enero	2023-01-20T00:00:00	2024-11-08T16:00:00	6	Velocidad del viento	9.7
31926	7	Sololá	717	San Juan la Laguna	12	San Juan la Laguna	1	Enero	2023-01-20T00:00:00	2024-11-08T16:00:00	7	Dirección del viento	9.66
31927	7	Sololá	717	San Juan la Laguna	12	San Juan la Laguna	1	Enero	2023-01-20T00:00:00	2024-11-08T16:00:00	1	Precipitación	0
31928	7	Sololá	717	San Juan la Laguna	12	San Juan la Laguna	1	Enero	2023-01-20T00:00:00	2024-11-08T16:00:00	8	Radiación solar	443
31929	7	Sololá	717	San Juan la Laguna	12	San Juan la Laguna	1	Enero	2023-01-20T00:00:00	2024-11-08T17:00:00	2	Temperatura media	18.7
31930	7	Sololá	717	San Juan la Laguna	12	San Juan la Laguna	1	Enero	2023-01-20T00:00:00	2024-11-08T17:00:00	4	Temperatura máxima	20.1
31931	7	Sololá	717	San Juan la Laguna	12	San Juan la Laguna	1	Enero	2023-01-20T00:00:00	2024-11-08T17:00:00	3	Temperatura mínima	18.7
31932	7	Sololá	717	San Juan la Laguna	12	San Juan la Laguna	1	Enero	2023-01-20T00:00:00	2024-11-08T17:00:00	5	Humedad	77
31933	7	Sololá	717	San Juan la Laguna	12	San Juan la Laguna	1	Enero	2023-01-20T00:00:00	2024-11-08T17:00:00	6	Velocidad del viento	6.4
31934	7	Sololá	717	San Juan la Laguna	12	San Juan la Laguna	1	Enero	2023-01-20T00:00:00	2024-11-08T17:00:00	7	Dirección del viento	6.44
31935	7	Sololá	717	San Juan la Laguna	12	San Juan la Laguna	1	Enero	2023-01-20T00:00:00	2024-11-08T17:00:00	1	Precipitación	0
31936	7	Sololá	717	San Juan la Laguna	12	San Juan la Laguna	1	Enero	2023-01-20T00:00:00	2024-11-08T17:00:00	8	Radiación solar	156
31937	7	Sololá	717	San Juan la Laguna	12	San Juan la Laguna	1	Enero	2023-01-20T00:00:00	2024-11-08T18:00:00	2	Temperatura media	18.4
31938	7	Sololá	717	San Juan la Laguna	12	San Juan la Laguna	1	Enero	2023-01-20T00:00:00	2024-11-08T18:00:00	4	Temperatura máxima	18.7
31939	7	Sololá	717	San Juan la Laguna	12	San Juan la Laguna	1	Enero	2023-01-20T00:00:00	2024-11-08T18:00:00	3	Temperatura mínima	18.4
31940	7	Sololá	717	San Juan la Laguna	12	San Juan la Laguna	1	Enero	2023-01-20T00:00:00	2024-11-08T18:00:00	5	Humedad	79
31941	7	Sololá	717	San Juan la Laguna	12	San Juan la Laguna	1	Enero	2023-01-20T00:00:00	2024-11-08T18:00:00	6	Velocidad del viento	1.6
31942	7	Sololá	717	San Juan la Laguna	12	San Juan la Laguna	1	Enero	2023-01-20T00:00:00	2024-11-08T18:00:00	7	Dirección del viento	1.61
31943	7	Sololá	717	San Juan la Laguna	12	San Juan la Laguna	1	Enero	2023-01-20T00:00:00	2024-11-08T18:00:00	1	Precipitación	0
31944	7	Sololá	717	San Juan la Laguna	12	San Juan la Laguna	1	Enero	2023-01-20T00:00:00	2024-11-08T18:00:00	8	Radiación solar	23
31945	7	Sololá	717	San Juan la Laguna	12	San Juan la Laguna	1	Enero	2023-01-20T00:00:00	2024-11-08T19:00:00	2	Temperatura media	16.3
31946	7	Sololá	717	San Juan la Laguna	12	San Juan la Laguna	1	Enero	2023-01-20T00:00:00	2024-11-08T19:00:00	4	Temperatura máxima	18.4
31947	7	Sololá	717	San Juan la Laguna	12	San Juan la Laguna	1	Enero	2023-01-20T00:00:00	2024-11-08T19:00:00	3	Temperatura mínima	16.3
31948	7	Sololá	717	San Juan la Laguna	12	San Juan la Laguna	1	Enero	2023-01-20T00:00:00	2024-11-08T19:00:00	5	Humedad	85
31949	7	Sololá	717	San Juan la Laguna	12	San Juan la Laguna	1	Enero	2023-01-20T00:00:00	2024-11-08T19:00:00	6	Velocidad del viento	4.8
31950	7	Sololá	717	San Juan la Laguna	12	San Juan la Laguna	1	Enero	2023-01-20T00:00:00	2024-11-08T19:00:00	7	Dirección del viento	4.83
31951	7	Sololá	717	San Juan la Laguna	12	San Juan la Laguna	1	Enero	2023-01-20T00:00:00	2024-11-08T19:00:00	1	Precipitación	0
31952	7	Sololá	717	San Juan la Laguna	12	San Juan la Laguna	1	Enero	2023-01-20T00:00:00	2024-11-08T19:00:00	8	Radiación solar	0
31953	7	Sololá	717	San Juan la Laguna	12	San Juan la Laguna	1	Enero	2023-01-20T00:00:00	2024-11-08T20:00:00	2	Temperatura media	15.3
31954	7	Sololá	717	San Juan la Laguna	12	San Juan la Laguna	1	Enero	2023-01-20T00:00:00	2024-11-08T20:00:00	4	Temperatura máxima	16.3
31955	7	Sololá	717	San Juan la Laguna	12	San Juan la Laguna	1	Enero	2023-01-20T00:00:00	2024-11-08T20:00:00	3	Temperatura mínima	15.3
31956	7	Sololá	717	San Juan la Laguna	12	San Juan la Laguna	1	Enero	2023-01-20T00:00:00	2024-11-08T20:00:00	5	Humedad	85
31957	7	Sololá	717	San Juan la Laguna	12	San Juan la Laguna	1	Enero	2023-01-20T00:00:00	2024-11-08T20:00:00	6	Velocidad del viento	4.8
31958	7	Sololá	717	San Juan la Laguna	12	San Juan la Laguna	1	Enero	2023-01-20T00:00:00	2024-11-08T20:00:00	7	Dirección del viento	4.83
31959	7	Sololá	717	San Juan la Laguna	12	San Juan la Laguna	1	Enero	2023-01-20T00:00:00	2024-11-08T20:00:00	1	Precipitación	0
31960	7	Sololá	717	San Juan la Laguna	12	San Juan la Laguna	1	Enero	2023-01-20T00:00:00	2024-11-08T20:00:00	8	Radiación solar	0
31961	7	Sololá	717	San Juan la Laguna	12	San Juan la Laguna	1	Enero	2023-01-20T00:00:00	2024-11-08T21:00:00	2	Temperatura media	14.9
31962	7	Sololá	717	San Juan la Laguna	12	San Juan la Laguna	1	Enero	2023-01-20T00:00:00	2024-11-08T21:00:00	4	Temperatura máxima	15.3
31963	7	Sololá	717	San Juan la Laguna	12	San Juan la Laguna	1	Enero	2023-01-20T00:00:00	2024-11-08T21:00:00	3	Temperatura mínima	14.9
31964	7	Sololá	717	San Juan la Laguna	12	San Juan la Laguna	1	Enero	2023-01-20T00:00:00	2024-11-08T21:00:00	5	Humedad	83
31965	7	Sololá	717	San Juan la Laguna	12	San Juan la Laguna	1	Enero	2023-01-20T00:00:00	2024-11-08T21:00:00	6	Velocidad del viento	3.2
31966	7	Sololá	717	San Juan la Laguna	12	San Juan la Laguna	1	Enero	2023-01-20T00:00:00	2024-11-08T21:00:00	7	Dirección del viento	3.22
31967	7	Sololá	717	San Juan la Laguna	12	San Juan la Laguna	1	Enero	2023-01-20T00:00:00	2024-11-08T21:00:00	1	Precipitación	0
31968	7	Sololá	717	San Juan la Laguna	12	San Juan la Laguna	1	Enero	2023-01-20T00:00:00	2024-11-08T21:00:00	8	Radiación solar	0
31969	7	Sololá	717	San Juan la Laguna	12	San Juan la Laguna	1	Enero	2023-01-20T00:00:00	2024-11-08T22:00:00	2	Temperatura media	14.3
31970	7	Sololá	717	San Juan la Laguna	12	San Juan la Laguna	1	Enero	2023-01-20T00:00:00	2024-11-08T22:00:00	4	Temperatura máxima	14.9
31971	7	Sololá	717	San Juan la Laguna	12	San Juan la Laguna	1	Enero	2023-01-20T00:00:00	2024-11-08T22:00:00	3	Temperatura mínima	14.2
31972	7	Sololá	717	San Juan la Laguna	12	San Juan la Laguna	1	Enero	2023-01-20T00:00:00	2024-11-08T22:00:00	5	Humedad	85
31973	7	Sololá	717	San Juan la Laguna	12	San Juan la Laguna	1	Enero	2023-01-20T00:00:00	2024-11-08T22:00:00	6	Velocidad del viento	1.6
31974	7	Sololá	717	San Juan la Laguna	12	San Juan la Laguna	1	Enero	2023-01-20T00:00:00	2024-11-08T22:00:00	7	Dirección del viento	1.61
31975	7	Sololá	717	San Juan la Laguna	12	San Juan la Laguna	1	Enero	2023-01-20T00:00:00	2024-11-08T22:00:00	1	Precipitación	0
31976	7	Sololá	717	San Juan la Laguna	12	San Juan la Laguna	1	Enero	2023-01-20T00:00:00	2024-11-08T22:00:00	8	Radiación solar	0
31977	7	Sololá	717	San Juan la Laguna	12	San Juan la Laguna	1	Enero	2023-01-20T00:00:00	2024-11-08T23:00:00	2	Temperatura media	14
31978	7	Sololá	717	San Juan la Laguna	12	San Juan la Laguna	1	Enero	2023-01-20T00:00:00	2024-11-08T23:00:00	4	Temperatura máxima	14.3
31979	7	Sololá	717	San Juan la Laguna	12	San Juan la Laguna	1	Enero	2023-01-20T00:00:00	2024-11-08T23:00:00	3	Temperatura mínima	13.9
31980	7	Sololá	717	San Juan la Laguna	12	San Juan la Laguna	1	Enero	2023-01-20T00:00:00	2024-11-08T23:00:00	5	Humedad	86
31981	7	Sololá	717	San Juan la Laguna	12	San Juan la Laguna	1	Enero	2023-01-20T00:00:00	2024-11-08T23:00:00	6	Velocidad del viento	1.6
31982	7	Sololá	717	San Juan la Laguna	12	San Juan la Laguna	1	Enero	2023-01-20T00:00:00	2024-11-08T23:00:00	7	Dirección del viento	1.61
31983	7	Sololá	717	San Juan la Laguna	12	San Juan la Laguna	1	Enero	2023-01-20T00:00:00	2024-11-08T23:00:00	1	Precipitación	0
31984	7	Sololá	717	San Juan la Laguna	12	San Juan la Laguna	1	Enero	2023-01-20T00:00:00	2024-11-08T23:00:00	8	Radiación solar	0
31985	7	Sololá	717	San Juan la Laguna	12	San Juan la Laguna	1	Enero	2023-01-21T00:00:00	2024-11-08T00:00:00	2	Temperatura media	14.2
31986	7	Sololá	717	San Juan la Laguna	12	San Juan la Laguna	1	Enero	2023-01-21T00:00:00	2024-11-08T00:00:00	4	Temperatura máxima	14.3
31987	7	Sololá	717	San Juan la Laguna	12	San Juan la Laguna	1	Enero	2023-01-21T00:00:00	2024-11-08T00:00:00	3	Temperatura mínima	13.9
31988	7	Sololá	717	San Juan la Laguna	12	San Juan la Laguna	1	Enero	2023-01-21T00:00:00	2024-11-08T00:00:00	5	Humedad	86
31989	7	Sololá	717	San Juan la Laguna	12	San Juan la Laguna	1	Enero	2023-01-21T00:00:00	2024-11-08T00:00:00	6	Velocidad del viento	3.2
31990	7	Sololá	717	San Juan la Laguna	12	San Juan la Laguna	1	Enero	2023-01-21T00:00:00	2024-11-08T00:00:00	7	Dirección del viento	3.22
31991	7	Sololá	717	San Juan la Laguna	12	San Juan la Laguna	1	Enero	2023-01-21T00:00:00	2024-11-08T00:00:00	1	Precipitación	0
31992	7	Sololá	717	San Juan la Laguna	12	San Juan la Laguna	1	Enero	2023-01-21T00:00:00	2024-11-08T00:00:00	8	Radiación solar	0
31993	7	Sololá	717	San Juan la Laguna	12	San Juan la Laguna	1	Enero	2023-01-21T00:00:00	2024-11-08T01:00:00	2	Temperatura media	13.6
31994	7	Sololá	717	San Juan la Laguna	12	San Juan la Laguna	1	Enero	2023-01-21T00:00:00	2024-11-08T01:00:00	4	Temperatura máxima	14.2
31995	7	Sololá	717	San Juan la Laguna	12	San Juan la Laguna	1	Enero	2023-01-21T00:00:00	2024-11-08T01:00:00	3	Temperatura mínima	13.6
31996	7	Sololá	717	San Juan la Laguna	12	San Juan la Laguna	1	Enero	2023-01-21T00:00:00	2024-11-08T01:00:00	5	Humedad	86
31997	7	Sololá	717	San Juan la Laguna	12	San Juan la Laguna	1	Enero	2023-01-21T00:00:00	2024-11-08T01:00:00	6	Velocidad del viento	3.2
31998	7	Sololá	717	San Juan la Laguna	12	San Juan la Laguna	1	Enero	2023-01-21T00:00:00	2024-11-08T01:00:00	7	Dirección del viento	3.22
31999	7	Sololá	717	San Juan la Laguna	12	San Juan la Laguna	1	Enero	2023-01-21T00:00:00	2024-11-08T01:00:00	1	Precipitación	0
32000	7	Sololá	717	San Juan la Laguna	12	San Juan la Laguna	1	Enero	2023-01-21T00:00:00	2024-11-08T01:00:00	8	Radiación solar	0
32001	7	Sololá	717	San Juan la Laguna	12	San Juan la Laguna	1	Enero	2023-01-21T00:00:00	2024-11-08T02:00:00	2	Temperatura media	12.9
32002	7	Sololá	717	San Juan la Laguna	12	San Juan la Laguna	1	Enero	2023-01-21T00:00:00	2024-11-08T02:00:00	4	Temperatura máxima	13.7
32003	7	Sololá	717	San Juan la Laguna	12	San Juan la Laguna	1	Enero	2023-01-21T00:00:00	2024-11-08T02:00:00	3	Temperatura mínima	12.9
32004	7	Sololá	717	San Juan la Laguna	12	San Juan la Laguna	1	Enero	2023-01-21T00:00:00	2024-11-08T02:00:00	5	Humedad	87
32005	7	Sololá	717	San Juan la Laguna	12	San Juan la Laguna	1	Enero	2023-01-21T00:00:00	2024-11-08T02:00:00	6	Velocidad del viento	4.8
32006	7	Sololá	717	San Juan la Laguna	12	San Juan la Laguna	1	Enero	2023-01-21T00:00:00	2024-11-08T02:00:00	7	Dirección del viento	4.83
32007	7	Sololá	717	San Juan la Laguna	12	San Juan la Laguna	1	Enero	2023-01-21T00:00:00	2024-11-08T02:00:00	1	Precipitación	0
32008	7	Sololá	717	San Juan la Laguna	12	San Juan la Laguna	1	Enero	2023-01-21T00:00:00	2024-11-08T02:00:00	8	Radiación solar	0
32009	7	Sololá	717	San Juan la Laguna	12	San Juan la Laguna	1	Enero	2023-01-21T00:00:00	2024-11-08T03:00:00	2	Temperatura media	12.8
32010	7	Sololá	717	San Juan la Laguna	12	San Juan la Laguna	1	Enero	2023-01-21T00:00:00	2024-11-08T03:00:00	4	Temperatura máxima	13.2
32011	7	Sololá	717	San Juan la Laguna	12	San Juan la Laguna	1	Enero	2023-01-21T00:00:00	2024-11-08T03:00:00	3	Temperatura mínima	12.8
32012	7	Sololá	717	San Juan la Laguna	12	San Juan la Laguna	1	Enero	2023-01-21T00:00:00	2024-11-08T03:00:00	5	Humedad	87
32013	7	Sololá	717	San Juan la Laguna	12	San Juan la Laguna	1	Enero	2023-01-21T00:00:00	2024-11-08T03:00:00	6	Velocidad del viento	3.2
32014	7	Sololá	717	San Juan la Laguna	12	San Juan la Laguna	1	Enero	2023-01-21T00:00:00	2024-11-08T03:00:00	7	Dirección del viento	3.22
32015	7	Sololá	717	San Juan la Laguna	12	San Juan la Laguna	1	Enero	2023-01-21T00:00:00	2024-11-08T03:00:00	1	Precipitación	0
32016	7	Sololá	717	San Juan la Laguna	12	San Juan la Laguna	1	Enero	2023-01-21T00:00:00	2024-11-08T03:00:00	8	Radiación solar	0
32017	7	Sololá	717	San Juan la Laguna	12	San Juan la Laguna	1	Enero	2023-01-21T00:00:00	2024-11-08T04:00:00	2	Temperatura media	12.7
32018	7	Sololá	717	San Juan la Laguna	12	San Juan la Laguna	1	Enero	2023-01-21T00:00:00	2024-11-08T04:00:00	4	Temperatura máxima	13.3
32019	7	Sololá	717	San Juan la Laguna	12	San Juan la Laguna	1	Enero	2023-01-21T00:00:00	2024-11-08T04:00:00	3	Temperatura mínima	12.7
32020	7	Sololá	717	San Juan la Laguna	12	San Juan la Laguna	1	Enero	2023-01-21T00:00:00	2024-11-08T04:00:00	5	Humedad	85
32021	7	Sololá	717	San Juan la Laguna	12	San Juan la Laguna	1	Enero	2023-01-21T00:00:00	2024-11-08T04:00:00	6	Velocidad del viento	4.8
32022	7	Sololá	717	San Juan la Laguna	12	San Juan la Laguna	1	Enero	2023-01-21T00:00:00	2024-11-08T04:00:00	7	Dirección del viento	4.83
32023	7	Sololá	717	San Juan la Laguna	12	San Juan la Laguna	1	Enero	2023-01-21T00:00:00	2024-11-08T04:00:00	1	Precipitación	0
32024	7	Sololá	717	San Juan la Laguna	12	San Juan la Laguna	1	Enero	2023-01-21T00:00:00	2024-11-08T04:00:00	8	Radiación solar	0
32025	7	Sololá	717	San Juan la Laguna	12	San Juan la Laguna	1	Enero	2023-01-21T00:00:00	2024-11-08T05:00:00	2	Temperatura media	12.4
32026	7	Sololá	717	San Juan la Laguna	12	San Juan la Laguna	1	Enero	2023-01-21T00:00:00	2024-11-08T05:00:00	4	Temperatura máxima	12.7
32027	7	Sololá	717	San Juan la Laguna	12	San Juan la Laguna	1	Enero	2023-01-21T00:00:00	2024-11-08T05:00:00	3	Temperatura mínima	12.3
32028	7	Sololá	717	San Juan la Laguna	12	San Juan la Laguna	1	Enero	2023-01-21T00:00:00	2024-11-08T05:00:00	5	Humedad	86
32029	7	Sololá	717	San Juan la Laguna	12	San Juan la Laguna	1	Enero	2023-01-21T00:00:00	2024-11-08T05:00:00	6	Velocidad del viento	4.8
32030	7	Sololá	717	San Juan la Laguna	12	San Juan la Laguna	1	Enero	2023-01-21T00:00:00	2024-11-08T05:00:00	7	Dirección del viento	4.83
32031	7	Sololá	717	San Juan la Laguna	12	San Juan la Laguna	1	Enero	2023-01-21T00:00:00	2024-11-08T05:00:00	1	Precipitación	0
32032	7	Sololá	717	San Juan la Laguna	12	San Juan la Laguna	1	Enero	2023-01-21T00:00:00	2024-11-08T05:00:00	8	Radiación solar	0
32033	7	Sololá	717	San Juan la Laguna	12	San Juan la Laguna	1	Enero	2023-01-21T00:00:00	2024-11-08T06:00:00	2	Temperatura media	12.7
32034	7	Sololá	717	San Juan la Laguna	12	San Juan la Laguna	1	Enero	2023-01-21T00:00:00	2024-11-08T06:00:00	4	Temperatura máxima	12.9
32035	7	Sololá	717	San Juan la Laguna	12	San Juan la Laguna	1	Enero	2023-01-21T00:00:00	2024-11-08T06:00:00	3	Temperatura mínima	12.3
32036	7	Sololá	717	San Juan la Laguna	12	San Juan la Laguna	1	Enero	2023-01-21T00:00:00	2024-11-08T06:00:00	5	Humedad	84
32037	7	Sololá	717	San Juan la Laguna	12	San Juan la Laguna	1	Enero	2023-01-21T00:00:00	2024-11-08T06:00:00	6	Velocidad del viento	4.8
32038	7	Sololá	717	San Juan la Laguna	12	San Juan la Laguna	1	Enero	2023-01-21T00:00:00	2024-11-08T06:00:00	7	Dirección del viento	4.83
32039	7	Sololá	717	San Juan la Laguna	12	San Juan la Laguna	1	Enero	2023-01-21T00:00:00	2024-11-08T06:00:00	1	Precipitación	0
32040	7	Sololá	717	San Juan la Laguna	12	San Juan la Laguna	1	Enero	2023-01-21T00:00:00	2024-11-08T06:00:00	8	Radiación solar	0
32041	7	Sololá	717	San Juan la Laguna	12	San Juan la Laguna	1	Enero	2023-01-21T00:00:00	2024-11-08T07:00:00	2	Temperatura media	12.3
32042	7	Sololá	717	San Juan la Laguna	12	San Juan la Laguna	1	Enero	2023-01-21T00:00:00	2024-11-08T07:00:00	4	Temperatura máxima	12.8
32043	7	Sololá	717	San Juan la Laguna	12	San Juan la Laguna	1	Enero	2023-01-21T00:00:00	2024-11-08T07:00:00	3	Temperatura mínima	12.3
32044	7	Sololá	717	San Juan la Laguna	12	San Juan la Laguna	1	Enero	2023-01-21T00:00:00	2024-11-08T07:00:00	5	Humedad	85
32045	7	Sololá	717	San Juan la Laguna	12	San Juan la Laguna	1	Enero	2023-01-21T00:00:00	2024-11-08T07:00:00	6	Velocidad del viento	4.8
32046	7	Sololá	717	San Juan la Laguna	12	San Juan la Laguna	1	Enero	2023-01-21T00:00:00	2024-11-08T07:00:00	7	Dirección del viento	4.83
32047	7	Sololá	717	San Juan la Laguna	12	San Juan la Laguna	1	Enero	2023-01-21T00:00:00	2024-11-08T07:00:00	1	Precipitación	0
32048	7	Sololá	717	San Juan la Laguna	12	San Juan la Laguna	1	Enero	2023-01-21T00:00:00	2024-11-08T07:00:00	8	Radiación solar	5
32049	7	Sololá	717	San Juan la Laguna	12	San Juan la Laguna	1	Enero	2023-01-21T00:00:00	2024-11-08T08:00:00	2	Temperatura media	14.6
32050	7	Sololá	717	San Juan la Laguna	12	San Juan la Laguna	1	Enero	2023-01-21T00:00:00	2024-11-08T08:00:00	4	Temperatura máxima	14.6
32051	7	Sololá	717	San Juan la Laguna	12	San Juan la Laguna	1	Enero	2023-01-21T00:00:00	2024-11-08T08:00:00	3	Temperatura mínima	12.3
32052	7	Sololá	717	San Juan la Laguna	12	San Juan la Laguna	1	Enero	2023-01-21T00:00:00	2024-11-08T08:00:00	5	Humedad	82
32053	7	Sololá	717	San Juan la Laguna	12	San Juan la Laguna	1	Enero	2023-01-21T00:00:00	2024-11-08T08:00:00	6	Velocidad del viento	1.6
32054	7	Sololá	717	San Juan la Laguna	12	San Juan la Laguna	1	Enero	2023-01-21T00:00:00	2024-11-08T08:00:00	7	Dirección del viento	1.61
32055	7	Sololá	717	San Juan la Laguna	12	San Juan la Laguna	1	Enero	2023-01-21T00:00:00	2024-11-08T08:00:00	1	Precipitación	0
32056	7	Sololá	717	San Juan la Laguna	12	San Juan la Laguna	1	Enero	2023-01-21T00:00:00	2024-11-08T08:00:00	8	Radiación solar	116
32057	7	Sololá	717	San Juan la Laguna	12	San Juan la Laguna	1	Enero	2023-01-21T00:00:00	2024-11-08T09:00:00	2	Temperatura media	18.7
32058	7	Sololá	717	San Juan la Laguna	12	San Juan la Laguna	1	Enero	2023-01-21T00:00:00	2024-11-08T09:00:00	4	Temperatura máxima	18.7
32059	7	Sololá	717	San Juan la Laguna	12	San Juan la Laguna	1	Enero	2023-01-21T00:00:00	2024-11-08T09:00:00	3	Temperatura mínima	14.6
32060	7	Sololá	717	San Juan la Laguna	12	San Juan la Laguna	1	Enero	2023-01-21T00:00:00	2024-11-08T09:00:00	5	Humedad	72
32061	7	Sololá	717	San Juan la Laguna	12	San Juan la Laguna	1	Enero	2023-01-21T00:00:00	2024-11-08T09:00:00	6	Velocidad del viento	0
32062	7	Sololá	717	San Juan la Laguna	12	San Juan la Laguna	1	Enero	2023-01-21T00:00:00	2024-11-08T09:00:00	7	Dirección del viento	0
32063	7	Sololá	717	San Juan la Laguna	12	San Juan la Laguna	1	Enero	2023-01-21T00:00:00	2024-11-08T09:00:00	1	Precipitación	0
32064	7	Sololá	717	San Juan la Laguna	12	San Juan la Laguna	1	Enero	2023-01-21T00:00:00	2024-11-08T09:00:00	8	Radiación solar	336
32065	7	Sololá	717	San Juan la Laguna	12	San Juan la Laguna	1	Enero	2023-01-21T00:00:00	2024-11-08T10:00:00	2	Temperatura media	19.1
32066	7	Sololá	717	San Juan la Laguna	12	San Juan la Laguna	1	Enero	2023-01-21T00:00:00	2024-11-08T10:00:00	4	Temperatura máxima	19.1
32067	7	Sololá	717	San Juan la Laguna	12	San Juan la Laguna	1	Enero	2023-01-21T00:00:00	2024-11-08T10:00:00	3	Temperatura mínima	18.4
32068	7	Sololá	717	San Juan la Laguna	12	San Juan la Laguna	1	Enero	2023-01-21T00:00:00	2024-11-08T10:00:00	5	Humedad	70
32069	7	Sololá	717	San Juan la Laguna	12	San Juan la Laguna	1	Enero	2023-01-21T00:00:00	2024-11-08T10:00:00	6	Velocidad del viento	3.2
32070	7	Sololá	717	San Juan la Laguna	12	San Juan la Laguna	1	Enero	2023-01-21T00:00:00	2024-11-08T10:00:00	7	Dirección del viento	3.22
32071	7	Sololá	717	San Juan la Laguna	12	San Juan la Laguna	1	Enero	2023-01-21T00:00:00	2024-11-08T10:00:00	1	Precipitación	0
32072	7	Sololá	717	San Juan la Laguna	12	San Juan la Laguna	1	Enero	2023-01-21T00:00:00	2024-11-08T10:00:00	8	Radiación solar	531
32073	7	Sololá	717	San Juan la Laguna	12	San Juan la Laguna	1	Enero	2023-01-21T00:00:00	2024-11-08T11:00:00	2	Temperatura media	21.2
32074	7	Sololá	717	San Juan la Laguna	12	San Juan la Laguna	1	Enero	2023-01-21T00:00:00	2024-11-08T11:00:00	4	Temperatura máxima	21.2
32075	7	Sololá	717	San Juan la Laguna	12	San Juan la Laguna	1	Enero	2023-01-21T00:00:00	2024-11-08T11:00:00	3	Temperatura mínima	19.1
32076	7	Sololá	717	San Juan la Laguna	12	San Juan la Laguna	1	Enero	2023-01-21T00:00:00	2024-11-08T11:00:00	5	Humedad	59
32077	7	Sololá	717	San Juan la Laguna	12	San Juan la Laguna	1	Enero	2023-01-21T00:00:00	2024-11-08T11:00:00	6	Velocidad del viento	3.2
32078	7	Sololá	717	San Juan la Laguna	12	San Juan la Laguna	1	Enero	2023-01-21T00:00:00	2024-11-08T11:00:00	7	Dirección del viento	3.22
32079	7	Sololá	717	San Juan la Laguna	12	San Juan la Laguna	1	Enero	2023-01-21T00:00:00	2024-11-08T11:00:00	1	Precipitación	0
32080	7	Sololá	717	San Juan la Laguna	12	San Juan la Laguna	1	Enero	2023-01-21T00:00:00	2024-11-08T11:00:00	8	Radiación solar	648
32081	7	Sololá	717	San Juan la Laguna	12	San Juan la Laguna	1	Enero	2023-01-21T00:00:00	2024-11-08T12:00:00	2	Temperatura media	21.2
32082	7	Sololá	717	San Juan la Laguna	12	San Juan la Laguna	1	Enero	2023-01-21T00:00:00	2024-11-08T12:00:00	4	Temperatura máxima	22.3
32083	7	Sololá	717	San Juan la Laguna	12	San Juan la Laguna	1	Enero	2023-01-21T00:00:00	2024-11-08T12:00:00	3	Temperatura mínima	21.2
32084	7	Sololá	717	San Juan la Laguna	12	San Juan la Laguna	1	Enero	2023-01-21T00:00:00	2024-11-08T12:00:00	5	Humedad	63
32085	7	Sololá	717	San Juan la Laguna	12	San Juan la Laguna	1	Enero	2023-01-21T00:00:00	2024-11-08T12:00:00	6	Velocidad del viento	4.8
32086	7	Sololá	717	San Juan la Laguna	12	San Juan la Laguna	1	Enero	2023-01-21T00:00:00	2024-11-08T12:00:00	7	Dirección del viento	4.83
32087	7	Sololá	717	San Juan la Laguna	12	San Juan la Laguna	1	Enero	2023-01-21T00:00:00	2024-11-08T12:00:00	1	Precipitación	0
32088	7	Sololá	717	San Juan la Laguna	12	San Juan la Laguna	1	Enero	2023-01-21T00:00:00	2024-11-08T12:00:00	8	Radiación solar	692
32089	7	Sololá	717	San Juan la Laguna	12	San Juan la Laguna	1	Enero	2023-01-21T00:00:00	2024-11-08T13:00:00	2	Temperatura media	21.6
32090	7	Sololá	717	San Juan la Laguna	12	San Juan la Laguna	1	Enero	2023-01-21T00:00:00	2024-11-08T13:00:00	4	Temperatura máxima	21.9
32091	7	Sololá	717	San Juan la Laguna	12	San Juan la Laguna	1	Enero	2023-01-21T00:00:00	2024-11-08T13:00:00	3	Temperatura mínima	20.9
32092	7	Sololá	717	San Juan la Laguna	12	San Juan la Laguna	1	Enero	2023-01-21T00:00:00	2024-11-08T13:00:00	5	Humedad	68
32093	7	Sololá	717	San Juan la Laguna	12	San Juan la Laguna	1	Enero	2023-01-21T00:00:00	2024-11-08T13:00:00	6	Velocidad del viento	6.4
32094	7	Sololá	717	San Juan la Laguna	12	San Juan la Laguna	1	Enero	2023-01-21T00:00:00	2024-11-08T13:00:00	7	Dirección del viento	6.44
32095	7	Sololá	717	San Juan la Laguna	12	San Juan la Laguna	1	Enero	2023-01-21T00:00:00	2024-11-08T13:00:00	1	Precipitación	0
32096	7	Sololá	717	San Juan la Laguna	12	San Juan la Laguna	1	Enero	2023-01-21T00:00:00	2024-11-08T13:00:00	8	Radiación solar	797
32097	7	Sololá	717	San Juan la Laguna	12	San Juan la Laguna	1	Enero	2023-01-21T00:00:00	2024-11-08T14:00:00	2	Temperatura media	20.3
32098	7	Sololá	717	San Juan la Laguna	12	San Juan la Laguna	1	Enero	2023-01-21T00:00:00	2024-11-08T14:00:00	4	Temperatura máxima	21.7
32099	7	Sololá	717	San Juan la Laguna	12	San Juan la Laguna	1	Enero	2023-01-21T00:00:00	2024-11-08T14:00:00	3	Temperatura mínima	20.2
32100	7	Sololá	717	San Juan la Laguna	12	San Juan la Laguna	1	Enero	2023-01-21T00:00:00	2024-11-08T14:00:00	5	Humedad	73
32101	7	Sololá	717	San Juan la Laguna	12	San Juan la Laguna	1	Enero	2023-01-21T00:00:00	2024-11-08T14:00:00	6	Velocidad del viento	11.3
32102	7	Sololá	717	San Juan la Laguna	12	San Juan la Laguna	1	Enero	2023-01-21T00:00:00	2024-11-08T14:00:00	7	Dirección del viento	11.27
32103	7	Sololá	717	San Juan la Laguna	12	San Juan la Laguna	1	Enero	2023-01-21T00:00:00	2024-11-08T14:00:00	1	Precipitación	0
32104	7	Sololá	717	San Juan la Laguna	12	San Juan la Laguna	1	Enero	2023-01-21T00:00:00	2024-11-08T14:00:00	8	Radiación solar	652
32105	7	Sololá	717	San Juan la Laguna	12	San Juan la Laguna	1	Enero	2023-01-21T00:00:00	2024-11-08T15:00:00	2	Temperatura media	20.8
32106	7	Sololá	717	San Juan la Laguna	12	San Juan la Laguna	1	Enero	2023-01-21T00:00:00	2024-11-08T15:00:00	4	Temperatura máxima	20.8
32107	7	Sololá	717	San Juan la Laguna	12	San Juan la Laguna	1	Enero	2023-01-21T00:00:00	2024-11-08T15:00:00	3	Temperatura mínima	20.3
32108	7	Sololá	717	San Juan la Laguna	12	San Juan la Laguna	1	Enero	2023-01-21T00:00:00	2024-11-08T15:00:00	5	Humedad	71
32109	7	Sololá	717	San Juan la Laguna	12	San Juan la Laguna	1	Enero	2023-01-21T00:00:00	2024-11-08T15:00:00	6	Velocidad del viento	14.5
32110	7	Sololá	717	San Juan la Laguna	12	San Juan la Laguna	1	Enero	2023-01-21T00:00:00	2024-11-08T15:00:00	7	Dirección del viento	14.48
32111	7	Sololá	717	San Juan la Laguna	12	San Juan la Laguna	1	Enero	2023-01-21T00:00:00	2024-11-08T15:00:00	1	Precipitación	0
32112	7	Sololá	717	San Juan la Laguna	12	San Juan la Laguna	1	Enero	2023-01-21T00:00:00	2024-11-08T15:00:00	8	Radiación solar	614
32113	7	Sololá	717	San Juan la Laguna	12	San Juan la Laguna	1	Enero	2023-01-21T00:00:00	2024-11-08T16:00:00	2	Temperatura media	20.2
32114	7	Sololá	717	San Juan la Laguna	12	San Juan la Laguna	1	Enero	2023-01-21T00:00:00	2024-11-08T16:00:00	4	Temperatura máxima	20.9
32115	7	Sololá	717	San Juan la Laguna	12	San Juan la Laguna	1	Enero	2023-01-21T00:00:00	2024-11-08T16:00:00	3	Temperatura mínima	20.2
32116	7	Sololá	717	San Juan la Laguna	12	San Juan la Laguna	1	Enero	2023-01-21T00:00:00	2024-11-08T16:00:00	5	Humedad	73
32117	7	Sololá	717	San Juan la Laguna	12	San Juan la Laguna	1	Enero	2023-01-21T00:00:00	2024-11-08T16:00:00	6	Velocidad del viento	11.3
32118	7	Sololá	717	San Juan la Laguna	12	San Juan la Laguna	1	Enero	2023-01-21T00:00:00	2024-11-08T16:00:00	7	Dirección del viento	11.27
32119	7	Sololá	717	San Juan la Laguna	12	San Juan la Laguna	1	Enero	2023-01-21T00:00:00	2024-11-08T16:00:00	1	Precipitación	0
32120	7	Sololá	717	San Juan la Laguna	12	San Juan la Laguna	1	Enero	2023-01-21T00:00:00	2024-11-08T16:00:00	8	Radiación solar	428
32121	7	Sololá	717	San Juan la Laguna	12	San Juan la Laguna	1	Enero	2023-01-21T00:00:00	2024-11-08T17:00:00	2	Temperatura media	18.7
32122	7	Sololá	717	San Juan la Laguna	12	San Juan la Laguna	1	Enero	2023-01-21T00:00:00	2024-11-08T17:00:00	4	Temperatura máxima	20.2
32123	7	Sololá	717	San Juan la Laguna	12	San Juan la Laguna	1	Enero	2023-01-21T00:00:00	2024-11-08T17:00:00	3	Temperatura mínima	18.6
32124	7	Sololá	717	San Juan la Laguna	12	San Juan la Laguna	1	Enero	2023-01-21T00:00:00	2024-11-08T17:00:00	5	Humedad	78
32125	7	Sololá	717	San Juan la Laguna	12	San Juan la Laguna	1	Enero	2023-01-21T00:00:00	2024-11-08T17:00:00	6	Velocidad del viento	8
32126	7	Sololá	717	San Juan la Laguna	12	San Juan la Laguna	1	Enero	2023-01-21T00:00:00	2024-11-08T17:00:00	7	Dirección del viento	8.05
32127	7	Sololá	717	San Juan la Laguna	12	San Juan la Laguna	1	Enero	2023-01-21T00:00:00	2024-11-08T17:00:00	1	Precipitación	0
32128	7	Sololá	717	San Juan la Laguna	12	San Juan la Laguna	1	Enero	2023-01-21T00:00:00	2024-11-08T17:00:00	8	Radiación solar	133
32129	7	Sololá	717	San Juan la Laguna	12	San Juan la Laguna	1	Enero	2023-01-21T00:00:00	2024-11-08T18:00:00	2	Temperatura media	18.1
32130	7	Sololá	717	San Juan la Laguna	12	San Juan la Laguna	1	Enero	2023-01-21T00:00:00	2024-11-08T18:00:00	4	Temperatura máxima	18.7
32131	7	Sololá	717	San Juan la Laguna	12	San Juan la Laguna	1	Enero	2023-01-21T00:00:00	2024-11-08T18:00:00	3	Temperatura mínima	18.1
32132	7	Sololá	717	San Juan la Laguna	12	San Juan la Laguna	1	Enero	2023-01-21T00:00:00	2024-11-08T18:00:00	5	Humedad	80
32133	7	Sololá	717	San Juan la Laguna	12	San Juan la Laguna	1	Enero	2023-01-21T00:00:00	2024-11-08T18:00:00	6	Velocidad del viento	4.8
32134	7	Sololá	717	San Juan la Laguna	12	San Juan la Laguna	1	Enero	2023-01-21T00:00:00	2024-11-08T18:00:00	7	Dirección del viento	4.83
32135	7	Sololá	717	San Juan la Laguna	12	San Juan la Laguna	1	Enero	2023-01-21T00:00:00	2024-11-08T18:00:00	1	Precipitación	0
32136	7	Sololá	717	San Juan la Laguna	12	San Juan la Laguna	1	Enero	2023-01-21T00:00:00	2024-11-08T18:00:00	8	Radiación solar	40
32137	7	Sololá	717	San Juan la Laguna	12	San Juan la Laguna	1	Enero	2023-01-21T00:00:00	2024-11-08T19:00:00	2	Temperatura media	17.9
32138	7	Sololá	717	San Juan la Laguna	12	San Juan la Laguna	1	Enero	2023-01-21T00:00:00	2024-11-08T19:00:00	4	Temperatura máxima	18.1
32139	7	Sololá	717	San Juan la Laguna	12	San Juan la Laguna	1	Enero	2023-01-21T00:00:00	2024-11-08T19:00:00	3	Temperatura mínima	17.8
32140	7	Sololá	717	San Juan la Laguna	12	San Juan la Laguna	1	Enero	2023-01-21T00:00:00	2024-11-08T19:00:00	5	Humedad	81
32141	7	Sololá	717	San Juan la Laguna	12	San Juan la Laguna	1	Enero	2023-01-21T00:00:00	2024-11-08T19:00:00	6	Velocidad del viento	1.6
32142	7	Sololá	717	San Juan la Laguna	12	San Juan la Laguna	1	Enero	2023-01-21T00:00:00	2024-11-08T19:00:00	7	Dirección del viento	1.61
32143	7	Sololá	717	San Juan la Laguna	12	San Juan la Laguna	1	Enero	2023-01-21T00:00:00	2024-11-08T19:00:00	1	Precipitación	0
32144	7	Sololá	717	San Juan la Laguna	12	San Juan la Laguna	1	Enero	2023-01-21T00:00:00	2024-11-08T19:00:00	8	Radiación solar	0
32145	7	Sololá	717	San Juan la Laguna	12	San Juan la Laguna	1	Enero	2023-01-21T00:00:00	2024-11-08T20:00:00	2	Temperatura media	17.8
32146	7	Sololá	717	San Juan la Laguna	12	San Juan la Laguna	1	Enero	2023-01-21T00:00:00	2024-11-08T20:00:00	4	Temperatura máxima	17.9
32147	7	Sololá	717	San Juan la Laguna	12	San Juan la Laguna	1	Enero	2023-01-21T00:00:00	2024-11-08T20:00:00	3	Temperatura mínima	17.7
32148	7	Sololá	717	San Juan la Laguna	12	San Juan la Laguna	1	Enero	2023-01-21T00:00:00	2024-11-08T20:00:00	5	Humedad	83
32149	7	Sololá	717	San Juan la Laguna	12	San Juan la Laguna	1	Enero	2023-01-21T00:00:00	2024-11-08T20:00:00	6	Velocidad del viento	0
32150	7	Sololá	717	San Juan la Laguna	12	San Juan la Laguna	1	Enero	2023-01-21T00:00:00	2024-11-08T20:00:00	7	Dirección del viento	0
32151	7	Sololá	717	San Juan la Laguna	12	San Juan la Laguna	1	Enero	2023-01-21T00:00:00	2024-11-08T20:00:00	1	Precipitación	0
32152	7	Sololá	717	San Juan la Laguna	12	San Juan la Laguna	1	Enero	2023-01-21T00:00:00	2024-11-08T20:00:00	8	Radiación solar	0
32153	7	Sololá	717	San Juan la Laguna	12	San Juan la Laguna	1	Enero	2023-01-21T00:00:00	2024-11-08T21:00:00	2	Temperatura media	17.2
32154	7	Sololá	717	San Juan la Laguna	12	San Juan la Laguna	1	Enero	2023-01-21T00:00:00	2024-11-08T21:00:00	4	Temperatura máxima	17.8
32155	7	Sololá	717	San Juan la Laguna	12	San Juan la Laguna	1	Enero	2023-01-21T00:00:00	2024-11-08T21:00:00	3	Temperatura mínima	17.1
32156	7	Sololá	717	San Juan la Laguna	12	San Juan la Laguna	1	Enero	2023-01-21T00:00:00	2024-11-08T21:00:00	5	Humedad	86
32157	7	Sololá	717	San Juan la Laguna	12	San Juan la Laguna	1	Enero	2023-01-21T00:00:00	2024-11-08T21:00:00	6	Velocidad del viento	0
32158	7	Sololá	717	San Juan la Laguna	12	San Juan la Laguna	1	Enero	2023-01-21T00:00:00	2024-11-08T21:00:00	7	Dirección del viento	0
32159	7	Sololá	717	San Juan la Laguna	12	San Juan la Laguna	1	Enero	2023-01-21T00:00:00	2024-11-08T21:00:00	1	Precipitación	0
32160	7	Sololá	717	San Juan la Laguna	12	San Juan la Laguna	1	Enero	2023-01-21T00:00:00	2024-11-08T21:00:00	8	Radiación solar	0
32161	7	Sololá	717	San Juan la Laguna	12	San Juan la Laguna	1	Enero	2023-01-21T00:00:00	2024-11-08T22:00:00	2	Temperatura media	15.4
32162	7	Sololá	717	San Juan la Laguna	12	San Juan la Laguna	1	Enero	2023-01-21T00:00:00	2024-11-08T22:00:00	4	Temperatura máxima	17.2
32163	7	Sololá	717	San Juan la Laguna	12	San Juan la Laguna	1	Enero	2023-01-21T00:00:00	2024-11-08T22:00:00	3	Temperatura mínima	15.4
32164	7	Sololá	717	San Juan la Laguna	12	San Juan la Laguna	1	Enero	2023-01-21T00:00:00	2024-11-08T22:00:00	5	Humedad	87
32165	7	Sololá	717	San Juan la Laguna	12	San Juan la Laguna	1	Enero	2023-01-21T00:00:00	2024-11-08T22:00:00	6	Velocidad del viento	0
32166	7	Sololá	717	San Juan la Laguna	12	San Juan la Laguna	1	Enero	2023-01-21T00:00:00	2024-11-08T22:00:00	7	Dirección del viento	0
32167	7	Sololá	717	San Juan la Laguna	12	San Juan la Laguna	1	Enero	2023-01-21T00:00:00	2024-11-08T22:00:00	1	Precipitación	0
32168	7	Sololá	717	San Juan la Laguna	12	San Juan la Laguna	1	Enero	2023-01-21T00:00:00	2024-11-08T22:00:00	8	Radiación solar	0
32169	7	Sololá	717	San Juan la Laguna	12	San Juan la Laguna	1	Enero	2023-01-21T00:00:00	2024-11-08T23:00:00	2	Temperatura media	14.8
32170	7	Sololá	717	San Juan la Laguna	12	San Juan la Laguna	1	Enero	2023-01-21T00:00:00	2024-11-08T23:00:00	4	Temperatura máxima	15.4
32171	7	Sololá	717	San Juan la Laguna	12	San Juan la Laguna	1	Enero	2023-01-21T00:00:00	2024-11-08T23:00:00	3	Temperatura mínima	14.8
32172	7	Sololá	717	San Juan la Laguna	12	San Juan la Laguna	1	Enero	2023-01-21T00:00:00	2024-11-08T23:00:00	5	Humedad	83
32173	7	Sololá	717	San Juan la Laguna	12	San Juan la Laguna	1	Enero	2023-01-21T00:00:00	2024-11-08T23:00:00	6	Velocidad del viento	1.6
32174	7	Sololá	717	San Juan la Laguna	12	San Juan la Laguna	1	Enero	2023-01-21T00:00:00	2024-11-08T23:00:00	7	Dirección del viento	1.61
32175	7	Sololá	717	San Juan la Laguna	12	San Juan la Laguna	1	Enero	2023-01-21T00:00:00	2024-11-08T23:00:00	1	Precipitación	0
32176	7	Sololá	717	San Juan la Laguna	12	San Juan la Laguna	1	Enero	2023-01-21T00:00:00	2024-11-08T23:00:00	8	Radiación solar	0
32177	7	Sololá	717	San Juan la Laguna	12	San Juan la Laguna	1	Enero	2023-01-22T00:00:00	2024-11-08T00:00:00	2	Temperatura media	14
32178	7	Sololá	717	San Juan la Laguna	12	San Juan la Laguna	1	Enero	2023-01-22T00:00:00	2024-11-08T00:00:00	4	Temperatura máxima	14.8
32179	7	Sololá	717	San Juan la Laguna	12	San Juan la Laguna	1	Enero	2023-01-22T00:00:00	2024-11-08T00:00:00	3	Temperatura mínima	14
32180	7	Sololá	717	San Juan la Laguna	12	San Juan la Laguna	1	Enero	2023-01-22T00:00:00	2024-11-08T00:00:00	5	Humedad	80
32181	7	Sololá	717	San Juan la Laguna	12	San Juan la Laguna	1	Enero	2023-01-22T00:00:00	2024-11-08T00:00:00	6	Velocidad del viento	1.6
32182	7	Sololá	717	San Juan la Laguna	12	San Juan la Laguna	1	Enero	2023-01-22T00:00:00	2024-11-08T00:00:00	7	Dirección del viento	1.61
32183	7	Sololá	717	San Juan la Laguna	12	San Juan la Laguna	1	Enero	2023-01-22T00:00:00	2024-11-08T00:00:00	1	Precipitación	0
32184	7	Sololá	717	San Juan la Laguna	12	San Juan la Laguna	1	Enero	2023-01-22T00:00:00	2024-11-08T00:00:00	8	Radiación solar	0
32185	7	Sololá	717	San Juan la Laguna	12	San Juan la Laguna	1	Enero	2023-01-22T00:00:00	2024-11-08T01:00:00	2	Temperatura media	13.6
32186	7	Sololá	717	San Juan la Laguna	12	San Juan la Laguna	1	Enero	2023-01-22T00:00:00	2024-11-08T01:00:00	4	Temperatura máxima	14
32187	7	Sololá	717	San Juan la Laguna	12	San Juan la Laguna	1	Enero	2023-01-22T00:00:00	2024-11-08T01:00:00	3	Temperatura mínima	13.4
32188	7	Sololá	717	San Juan la Laguna	12	San Juan la Laguna	1	Enero	2023-01-22T00:00:00	2024-11-08T01:00:00	5	Humedad	81
32189	7	Sololá	717	San Juan la Laguna	12	San Juan la Laguna	1	Enero	2023-01-22T00:00:00	2024-11-08T01:00:00	6	Velocidad del viento	3.2
32190	7	Sololá	717	San Juan la Laguna	12	San Juan la Laguna	1	Enero	2023-01-22T00:00:00	2024-11-08T01:00:00	7	Dirección del viento	3.22
32191	7	Sololá	717	San Juan la Laguna	12	San Juan la Laguna	1	Enero	2023-01-22T00:00:00	2024-11-08T01:00:00	1	Precipitación	0
32192	7	Sololá	717	San Juan la Laguna	12	San Juan la Laguna	1	Enero	2023-01-22T00:00:00	2024-11-08T01:00:00	8	Radiación solar	0
32193	7	Sololá	717	San Juan la Laguna	12	San Juan la Laguna	1	Enero	2023-01-22T00:00:00	2024-11-08T02:00:00	2	Temperatura media	13.1
32194	7	Sololá	717	San Juan la Laguna	12	San Juan la Laguna	1	Enero	2023-01-22T00:00:00	2024-11-08T02:00:00	4	Temperatura máxima	13.6
32195	7	Sololá	717	San Juan la Laguna	12	San Juan la Laguna	1	Enero	2023-01-22T00:00:00	2024-11-08T02:00:00	3	Temperatura mínima	13
32196	7	Sololá	717	San Juan la Laguna	12	San Juan la Laguna	1	Enero	2023-01-22T00:00:00	2024-11-08T02:00:00	5	Humedad	82
32197	7	Sololá	717	San Juan la Laguna	12	San Juan la Laguna	1	Enero	2023-01-22T00:00:00	2024-11-08T02:00:00	6	Velocidad del viento	4.8
32198	7	Sololá	717	San Juan la Laguna	12	San Juan la Laguna	1	Enero	2023-01-22T00:00:00	2024-11-08T02:00:00	7	Dirección del viento	4.83
32199	7	Sololá	717	San Juan la Laguna	12	San Juan la Laguna	1	Enero	2023-01-22T00:00:00	2024-11-08T02:00:00	1	Precipitación	0
32200	7	Sololá	717	San Juan la Laguna	12	San Juan la Laguna	1	Enero	2023-01-22T00:00:00	2024-11-08T02:00:00	8	Radiación solar	0
32201	7	Sololá	717	San Juan la Laguna	12	San Juan la Laguna	1	Enero	2023-01-22T00:00:00	2024-11-08T03:00:00	2	Temperatura media	12.2
32202	7	Sololá	717	San Juan la Laguna	12	San Juan la Laguna	1	Enero	2023-01-22T00:00:00	2024-11-08T03:00:00	4	Temperatura máxima	13.1
32203	7	Sololá	717	San Juan la Laguna	12	San Juan la Laguna	1	Enero	2023-01-22T00:00:00	2024-11-08T03:00:00	3	Temperatura mínima	12.2
32204	7	Sololá	717	San Juan la Laguna	12	San Juan la Laguna	1	Enero	2023-01-22T00:00:00	2024-11-08T03:00:00	5	Humedad	83
32205	7	Sololá	717	San Juan la Laguna	12	San Juan la Laguna	1	Enero	2023-01-22T00:00:00	2024-11-08T03:00:00	6	Velocidad del viento	3.2
32206	7	Sololá	717	San Juan la Laguna	12	San Juan la Laguna	1	Enero	2023-01-22T00:00:00	2024-11-08T03:00:00	7	Dirección del viento	3.22
32207	7	Sololá	717	San Juan la Laguna	12	San Juan la Laguna	1	Enero	2023-01-22T00:00:00	2024-11-08T03:00:00	1	Precipitación	0
32208	7	Sololá	717	San Juan la Laguna	12	San Juan la Laguna	1	Enero	2023-01-22T00:00:00	2024-11-08T03:00:00	8	Radiación solar	0
32209	7	Sololá	717	San Juan la Laguna	12	San Juan la Laguna	1	Enero	2023-01-22T00:00:00	2024-11-08T04:00:00	2	Temperatura media	11.8
32210	7	Sololá	717	San Juan la Laguna	12	San Juan la Laguna	1	Enero	2023-01-22T00:00:00	2024-11-08T04:00:00	4	Temperatura máxima	12.2
32211	7	Sololá	717	San Juan la Laguna	12	San Juan la Laguna	1	Enero	2023-01-22T00:00:00	2024-11-08T04:00:00	3	Temperatura mínima	11.7
32212	7	Sololá	717	San Juan la Laguna	12	San Juan la Laguna	1	Enero	2023-01-22T00:00:00	2024-11-08T04:00:00	5	Humedad	83
32213	7	Sololá	717	San Juan la Laguna	12	San Juan la Laguna	1	Enero	2023-01-22T00:00:00	2024-11-08T04:00:00	6	Velocidad del viento	3.2
32214	7	Sololá	717	San Juan la Laguna	12	San Juan la Laguna	1	Enero	2023-01-22T00:00:00	2024-11-08T04:00:00	7	Dirección del viento	3.22
32215	7	Sololá	717	San Juan la Laguna	12	San Juan la Laguna	1	Enero	2023-01-22T00:00:00	2024-11-08T04:00:00	1	Precipitación	0
32216	7	Sololá	717	San Juan la Laguna	12	San Juan la Laguna	1	Enero	2023-01-22T00:00:00	2024-11-08T04:00:00	8	Radiación solar	0
32217	7	Sololá	717	San Juan la Laguna	12	San Juan la Laguna	1	Enero	2023-01-22T00:00:00	2024-11-08T05:00:00	2	Temperatura media	11.4
32218	7	Sololá	717	San Juan la Laguna	12	San Juan la Laguna	1	Enero	2023-01-22T00:00:00	2024-11-08T05:00:00	4	Temperatura máxima	12.1
32219	7	Sololá	717	San Juan la Laguna	12	San Juan la Laguna	1	Enero	2023-01-22T00:00:00	2024-11-08T05:00:00	3	Temperatura mínima	11.4
32220	7	Sololá	717	San Juan la Laguna	12	San Juan la Laguna	1	Enero	2023-01-22T00:00:00	2024-11-08T05:00:00	5	Humedad	83
32221	7	Sololá	717	San Juan la Laguna	12	San Juan la Laguna	1	Enero	2023-01-22T00:00:00	2024-11-08T05:00:00	6	Velocidad del viento	3.2
32222	7	Sololá	717	San Juan la Laguna	12	San Juan la Laguna	1	Enero	2023-01-22T00:00:00	2024-11-08T05:00:00	7	Dirección del viento	3.22
32223	7	Sololá	717	San Juan la Laguna	12	San Juan la Laguna	1	Enero	2023-01-22T00:00:00	2024-11-08T05:00:00	1	Precipitación	0
32224	7	Sololá	717	San Juan la Laguna	12	San Juan la Laguna	1	Enero	2023-01-22T00:00:00	2024-11-08T05:00:00	8	Radiación solar	0
32225	7	Sololá	717	San Juan la Laguna	12	San Juan la Laguna	1	Enero	2023-01-22T00:00:00	2024-11-08T06:00:00	2	Temperatura media	10.9
32226	7	Sololá	717	San Juan la Laguna	12	San Juan la Laguna	1	Enero	2023-01-22T00:00:00	2024-11-08T06:00:00	4	Temperatura máxima	11.4
32227	7	Sololá	717	San Juan la Laguna	12	San Juan la Laguna	1	Enero	2023-01-22T00:00:00	2024-11-08T06:00:00	3	Temperatura mínima	10.9
32228	7	Sololá	717	San Juan la Laguna	12	San Juan la Laguna	1	Enero	2023-01-22T00:00:00	2024-11-08T06:00:00	5	Humedad	85
32229	7	Sololá	717	San Juan la Laguna	12	San Juan la Laguna	1	Enero	2023-01-22T00:00:00	2024-11-08T06:00:00	6	Velocidad del viento	3.2
32230	7	Sololá	717	San Juan la Laguna	12	San Juan la Laguna	1	Enero	2023-01-22T00:00:00	2024-11-08T06:00:00	7	Dirección del viento	3.22
32231	7	Sololá	717	San Juan la Laguna	12	San Juan la Laguna	1	Enero	2023-01-22T00:00:00	2024-11-08T06:00:00	1	Precipitación	0
32232	7	Sololá	717	San Juan la Laguna	12	San Juan la Laguna	1	Enero	2023-01-22T00:00:00	2024-11-08T06:00:00	8	Radiación solar	0
32233	7	Sololá	717	San Juan la Laguna	12	San Juan la Laguna	1	Enero	2023-01-22T00:00:00	2024-11-08T07:00:00	2	Temperatura media	11.4
32234	7	Sololá	717	San Juan la Laguna	12	San Juan la Laguna	1	Enero	2023-01-22T00:00:00	2024-11-08T07:00:00	4	Temperatura máxima	11.4
32235	7	Sololá	717	San Juan la Laguna	12	San Juan la Laguna	1	Enero	2023-01-22T00:00:00	2024-11-08T07:00:00	3	Temperatura mínima	10.9
32236	7	Sololá	717	San Juan la Laguna	12	San Juan la Laguna	1	Enero	2023-01-22T00:00:00	2024-11-08T07:00:00	5	Humedad	85
32237	7	Sololá	717	San Juan la Laguna	12	San Juan la Laguna	1	Enero	2023-01-22T00:00:00	2024-11-08T07:00:00	6	Velocidad del viento	3.2
32238	7	Sololá	717	San Juan la Laguna	12	San Juan la Laguna	1	Enero	2023-01-22T00:00:00	2024-11-08T07:00:00	7	Dirección del viento	3.22
32239	7	Sololá	717	San Juan la Laguna	12	San Juan la Laguna	1	Enero	2023-01-22T00:00:00	2024-11-08T07:00:00	1	Precipitación	0
32240	7	Sololá	717	San Juan la Laguna	12	San Juan la Laguna	1	Enero	2023-01-22T00:00:00	2024-11-08T07:00:00	8	Radiación solar	5
32241	7	Sololá	717	San Juan la Laguna	12	San Juan la Laguna	1	Enero	2023-01-22T00:00:00	2024-11-08T08:00:00	2	Temperatura media	14
32242	7	Sololá	717	San Juan la Laguna	12	San Juan la Laguna	1	Enero	2023-01-22T00:00:00	2024-11-08T08:00:00	4	Temperatura máxima	14
32243	7	Sololá	717	San Juan la Laguna	12	San Juan la Laguna	1	Enero	2023-01-22T00:00:00	2024-11-08T08:00:00	3	Temperatura mínima	11.4
32244	7	Sololá	717	San Juan la Laguna	12	San Juan la Laguna	1	Enero	2023-01-22T00:00:00	2024-11-08T08:00:00	5	Humedad	82
32245	7	Sololá	717	San Juan la Laguna	12	San Juan la Laguna	1	Enero	2023-01-22T00:00:00	2024-11-08T08:00:00	6	Velocidad del viento	3.2
32246	7	Sololá	717	San Juan la Laguna	12	San Juan la Laguna	1	Enero	2023-01-22T00:00:00	2024-11-08T08:00:00	7	Dirección del viento	3.22
32247	7	Sololá	717	San Juan la Laguna	12	San Juan la Laguna	1	Enero	2023-01-22T00:00:00	2024-11-08T08:00:00	1	Precipitación	0
32248	7	Sololá	717	San Juan la Laguna	12	San Juan la Laguna	1	Enero	2023-01-22T00:00:00	2024-11-08T08:00:00	8	Radiación solar	117
32249	7	Sololá	717	San Juan la Laguna	12	San Juan la Laguna	1	Enero	2023-01-22T00:00:00	2024-11-08T09:00:00	2	Temperatura media	17.1
32250	7	Sololá	717	San Juan la Laguna	12	San Juan la Laguna	1	Enero	2023-01-22T00:00:00	2024-11-08T09:00:00	4	Temperatura máxima	17.3
32251	7	Sololá	717	San Juan la Laguna	12	San Juan la Laguna	1	Enero	2023-01-22T00:00:00	2024-11-08T09:00:00	3	Temperatura mínima	14.1
32252	7	Sololá	717	San Juan la Laguna	12	San Juan la Laguna	1	Enero	2023-01-22T00:00:00	2024-11-08T09:00:00	5	Humedad	76
32253	7	Sololá	717	San Juan la Laguna	12	San Juan la Laguna	1	Enero	2023-01-22T00:00:00	2024-11-08T09:00:00	6	Velocidad del viento	1.6
32254	7	Sololá	717	San Juan la Laguna	12	San Juan la Laguna	1	Enero	2023-01-22T00:00:00	2024-11-08T09:00:00	7	Dirección del viento	1.61
32255	7	Sololá	717	San Juan la Laguna	12	San Juan la Laguna	1	Enero	2023-01-22T00:00:00	2024-11-08T09:00:00	1	Precipitación	0
32256	7	Sololá	717	San Juan la Laguna	12	San Juan la Laguna	1	Enero	2023-01-22T00:00:00	2024-11-08T09:00:00	8	Radiación solar	344
32257	7	Sololá	717	San Juan la Laguna	12	San Juan la Laguna	1	Enero	2023-01-22T00:00:00	2024-11-08T10:00:00	2	Temperatura media	18.3
32258	7	Sololá	717	San Juan la Laguna	12	San Juan la Laguna	1	Enero	2023-01-22T00:00:00	2024-11-08T10:00:00	4	Temperatura máxima	18.3
32259	7	Sololá	717	San Juan la Laguna	12	San Juan la Laguna	1	Enero	2023-01-22T00:00:00	2024-11-08T10:00:00	3	Temperatura mínima	17.1
32260	7	Sololá	717	San Juan la Laguna	12	San Juan la Laguna	1	Enero	2023-01-22T00:00:00	2024-11-08T10:00:00	5	Humedad	72
32261	7	Sololá	717	San Juan la Laguna	12	San Juan la Laguna	1	Enero	2023-01-22T00:00:00	2024-11-08T10:00:00	6	Velocidad del viento	4.8
32262	7	Sololá	717	San Juan la Laguna	12	San Juan la Laguna	1	Enero	2023-01-22T00:00:00	2024-11-08T10:00:00	7	Dirección del viento	4.83
32263	7	Sololá	717	San Juan la Laguna	12	San Juan la Laguna	1	Enero	2023-01-22T00:00:00	2024-11-08T10:00:00	1	Precipitación	0
32264	7	Sololá	717	San Juan la Laguna	12	San Juan la Laguna	1	Enero	2023-01-22T00:00:00	2024-11-08T10:00:00	8	Radiación solar	539
32265	7	Sololá	717	San Juan la Laguna	12	San Juan la Laguna	1	Enero	2023-01-22T00:00:00	2024-11-08T11:00:00	2	Temperatura media	18.8
32266	7	Sololá	717	San Juan la Laguna	12	San Juan la Laguna	1	Enero	2023-01-22T00:00:00	2024-11-08T11:00:00	4	Temperatura máxima	18.9
32267	7	Sololá	717	San Juan la Laguna	12	San Juan la Laguna	1	Enero	2023-01-22T00:00:00	2024-11-08T11:00:00	3	Temperatura mínima	18.2
32268	7	Sololá	717	San Juan la Laguna	12	San Juan la Laguna	1	Enero	2023-01-22T00:00:00	2024-11-08T11:00:00	5	Humedad	67
32269	7	Sololá	717	San Juan la Laguna	12	San Juan la Laguna	1	Enero	2023-01-22T00:00:00	2024-11-08T11:00:00	6	Velocidad del viento	4.8
32270	7	Sololá	717	San Juan la Laguna	12	San Juan la Laguna	1	Enero	2023-01-22T00:00:00	2024-11-08T11:00:00	7	Dirección del viento	4.83
32271	7	Sololá	717	San Juan la Laguna	12	San Juan la Laguna	1	Enero	2023-01-22T00:00:00	2024-11-08T11:00:00	1	Precipitación	0
32272	7	Sololá	717	San Juan la Laguna	12	San Juan la Laguna	1	Enero	2023-01-22T00:00:00	2024-11-08T11:00:00	8	Radiación solar	655
32273	7	Sololá	717	San Juan la Laguna	12	San Juan la Laguna	1	Enero	2023-01-22T00:00:00	2024-11-08T12:00:00	2	Temperatura media	20.9
32274	7	Sololá	717	San Juan la Laguna	12	San Juan la Laguna	1	Enero	2023-01-22T00:00:00	2024-11-08T12:00:00	4	Temperatura máxima	20.9
32275	7	Sololá	717	San Juan la Laguna	12	San Juan la Laguna	1	Enero	2023-01-22T00:00:00	2024-11-08T12:00:00	3	Temperatura mínima	18.7
32276	7	Sololá	717	San Juan la Laguna	12	San Juan la Laguna	1	Enero	2023-01-22T00:00:00	2024-11-08T12:00:00	5	Humedad	61
32277	7	Sololá	717	San Juan la Laguna	12	San Juan la Laguna	1	Enero	2023-01-22T00:00:00	2024-11-08T12:00:00	6	Velocidad del viento	4.8
32278	7	Sololá	717	San Juan la Laguna	12	San Juan la Laguna	1	Enero	2023-01-22T00:00:00	2024-11-08T12:00:00	7	Dirección del viento	4.83
32279	7	Sololá	717	San Juan la Laguna	12	San Juan la Laguna	1	Enero	2023-01-22T00:00:00	2024-11-08T12:00:00	1	Precipitación	0
32280	7	Sololá	717	San Juan la Laguna	12	San Juan la Laguna	1	Enero	2023-01-22T00:00:00	2024-11-08T12:00:00	8	Radiación solar	704
32281	7	Sololá	717	San Juan la Laguna	12	San Juan la Laguna	1	Enero	2023-01-22T00:00:00	2024-11-08T13:00:00	2	Temperatura media	21.4
32282	7	Sololá	717	San Juan la Laguna	12	San Juan la Laguna	1	Enero	2023-01-22T00:00:00	2024-11-08T13:00:00	4	Temperatura máxima	21.5
32283	7	Sololá	717	San Juan la Laguna	12	San Juan la Laguna	1	Enero	2023-01-22T00:00:00	2024-11-08T13:00:00	3	Temperatura mínima	20.5
32284	7	Sololá	717	San Juan la Laguna	12	San Juan la Laguna	1	Enero	2023-01-22T00:00:00	2024-11-08T13:00:00	5	Humedad	63
32285	7	Sololá	717	San Juan la Laguna	12	San Juan la Laguna	1	Enero	2023-01-22T00:00:00	2024-11-08T13:00:00	6	Velocidad del viento	4.8
32286	7	Sololá	717	San Juan la Laguna	12	San Juan la Laguna	1	Enero	2023-01-22T00:00:00	2024-11-08T13:00:00	7	Dirección del viento	4.83
32287	7	Sololá	717	San Juan la Laguna	12	San Juan la Laguna	1	Enero	2023-01-22T00:00:00	2024-11-08T13:00:00	1	Precipitación	0
32288	7	Sololá	717	San Juan la Laguna	12	San Juan la Laguna	1	Enero	2023-01-22T00:00:00	2024-11-08T13:00:00	8	Radiación solar	810
32289	7	Sololá	717	San Juan la Laguna	12	San Juan la Laguna	1	Enero	2023-01-22T00:00:00	2024-11-08T14:00:00	2	Temperatura media	21.6
32290	7	Sololá	717	San Juan la Laguna	12	San Juan la Laguna	1	Enero	2023-01-22T00:00:00	2024-11-08T14:00:00	4	Temperatura máxima	22.1
32291	7	Sololá	717	San Juan la Laguna	12	San Juan la Laguna	1	Enero	2023-01-22T00:00:00	2024-11-08T14:00:00	3	Temperatura mínima	21.3
32292	7	Sololá	717	San Juan la Laguna	12	San Juan la Laguna	1	Enero	2023-01-22T00:00:00	2024-11-08T14:00:00	5	Humedad	66
32293	7	Sololá	717	San Juan la Laguna	12	San Juan la Laguna	1	Enero	2023-01-22T00:00:00	2024-11-08T14:00:00	6	Velocidad del viento	8
32294	7	Sololá	717	San Juan la Laguna	12	San Juan la Laguna	1	Enero	2023-01-22T00:00:00	2024-11-08T14:00:00	7	Dirección del viento	8.05
32295	7	Sololá	717	San Juan la Laguna	12	San Juan la Laguna	1	Enero	2023-01-22T00:00:00	2024-11-08T14:00:00	1	Precipitación	0
32296	7	Sololá	717	San Juan la Laguna	12	San Juan la Laguna	1	Enero	2023-01-22T00:00:00	2024-11-08T14:00:00	8	Radiación solar	689
32297	7	Sololá	717	San Juan la Laguna	12	San Juan la Laguna	1	Enero	2023-01-22T00:00:00	2024-11-08T15:00:00	2	Temperatura media	21.3
32298	7	Sololá	717	San Juan la Laguna	12	San Juan la Laguna	1	Enero	2023-01-22T00:00:00	2024-11-08T15:00:00	4	Temperatura máxima	21.9
32299	7	Sololá	717	San Juan la Laguna	12	San Juan la Laguna	1	Enero	2023-01-22T00:00:00	2024-11-08T15:00:00	3	Temperatura mínima	21.2
32300	7	Sololá	717	San Juan la Laguna	12	San Juan la Laguna	1	Enero	2023-01-22T00:00:00	2024-11-08T15:00:00	5	Humedad	67
32301	7	Sololá	717	San Juan la Laguna	12	San Juan la Laguna	1	Enero	2023-01-22T00:00:00	2024-11-08T15:00:00	6	Velocidad del viento	11.3
32302	7	Sololá	717	San Juan la Laguna	12	San Juan la Laguna	1	Enero	2023-01-22T00:00:00	2024-11-08T15:00:00	7	Dirección del viento	11.27
32303	7	Sololá	717	San Juan la Laguna	12	San Juan la Laguna	1	Enero	2023-01-22T00:00:00	2024-11-08T15:00:00	1	Precipitación	0
32304	7	Sololá	717	San Juan la Laguna	12	San Juan la Laguna	1	Enero	2023-01-22T00:00:00	2024-11-08T15:00:00	8	Radiación solar	681
32305	7	Sololá	717	San Juan la Laguna	12	San Juan la Laguna	1	Enero	2023-01-22T00:00:00	2024-11-08T16:00:00	2	Temperatura media	20.7
32306	7	Sololá	717	San Juan la Laguna	12	San Juan la Laguna	1	Enero	2023-01-22T00:00:00	2024-11-08T16:00:00	4	Temperatura máxima	21.5
32307	7	Sololá	717	San Juan la Laguna	12	San Juan la Laguna	1	Enero	2023-01-22T00:00:00	2024-11-08T16:00:00	3	Temperatura mínima	20.6
32308	7	Sololá	717	San Juan la Laguna	12	San Juan la Laguna	1	Enero	2023-01-22T00:00:00	2024-11-08T16:00:00	5	Humedad	70
32309	7	Sololá	717	San Juan la Laguna	12	San Juan la Laguna	1	Enero	2023-01-22T00:00:00	2024-11-08T16:00:00	6	Velocidad del viento	9.7
32310	7	Sololá	717	San Juan la Laguna	12	San Juan la Laguna	1	Enero	2023-01-22T00:00:00	2024-11-08T16:00:00	7	Dirección del viento	9.66
32311	7	Sololá	717	San Juan la Laguna	12	San Juan la Laguna	1	Enero	2023-01-22T00:00:00	2024-11-08T16:00:00	1	Precipitación	0
32312	7	Sololá	717	San Juan la Laguna	12	San Juan la Laguna	1	Enero	2023-01-22T00:00:00	2024-11-08T16:00:00	8	Radiación solar	527
32313	7	Sololá	717	San Juan la Laguna	12	San Juan la Laguna	1	Enero	2023-01-22T00:00:00	2024-11-08T17:00:00	2	Temperatura media	18.7
32314	7	Sololá	717	San Juan la Laguna	12	San Juan la Laguna	1	Enero	2023-01-22T00:00:00	2024-11-08T17:00:00	4	Temperatura máxima	20.6
32315	7	Sololá	717	San Juan la Laguna	12	San Juan la Laguna	1	Enero	2023-01-22T00:00:00	2024-11-08T17:00:00	3	Temperatura mínima	18.6
32316	7	Sololá	717	San Juan la Laguna	12	San Juan la Laguna	1	Enero	2023-01-22T00:00:00	2024-11-08T17:00:00	5	Humedad	77
32317	7	Sololá	717	San Juan la Laguna	12	San Juan la Laguna	1	Enero	2023-01-22T00:00:00	2024-11-08T17:00:00	6	Velocidad del viento	8
32318	7	Sololá	717	San Juan la Laguna	12	San Juan la Laguna	1	Enero	2023-01-22T00:00:00	2024-11-08T17:00:00	7	Dirección del viento	8.05
32319	7	Sololá	717	San Juan la Laguna	12	San Juan la Laguna	1	Enero	2023-01-22T00:00:00	2024-11-08T17:00:00	1	Precipitación	0
32320	7	Sololá	717	San Juan la Laguna	12	San Juan la Laguna	1	Enero	2023-01-22T00:00:00	2024-11-08T17:00:00	8	Radiación solar	122
32321	7	Sololá	717	San Juan la Laguna	12	San Juan la Laguna	1	Enero	2023-01-22T00:00:00	2024-11-08T18:00:00	2	Temperatura media	18.1
32322	7	Sololá	717	San Juan la Laguna	12	San Juan la Laguna	1	Enero	2023-01-22T00:00:00	2024-11-08T18:00:00	4	Temperatura máxima	18.7
32323	7	Sololá	717	San Juan la Laguna	12	San Juan la Laguna	1	Enero	2023-01-22T00:00:00	2024-11-08T18:00:00	3	Temperatura mínima	18.1
32324	7	Sololá	717	San Juan la Laguna	12	San Juan la Laguna	1	Enero	2023-01-22T00:00:00	2024-11-08T18:00:00	5	Humedad	79
32325	7	Sololá	717	San Juan la Laguna	12	San Juan la Laguna	1	Enero	2023-01-22T00:00:00	2024-11-08T18:00:00	6	Velocidad del viento	6.4
32326	7	Sololá	717	San Juan la Laguna	12	San Juan la Laguna	1	Enero	2023-01-22T00:00:00	2024-11-08T18:00:00	7	Dirección del viento	6.44
32327	7	Sololá	717	San Juan la Laguna	12	San Juan la Laguna	1	Enero	2023-01-22T00:00:00	2024-11-08T18:00:00	1	Precipitación	0
32328	7	Sololá	717	San Juan la Laguna	12	San Juan la Laguna	1	Enero	2023-01-22T00:00:00	2024-11-08T18:00:00	8	Radiación solar	39
32329	7	Sololá	717	San Juan la Laguna	12	San Juan la Laguna	1	Enero	2023-01-22T00:00:00	2024-11-08T19:00:00	2	Temperatura media	17.5
32330	7	Sololá	717	San Juan la Laguna	12	San Juan la Laguna	1	Enero	2023-01-22T00:00:00	2024-11-08T19:00:00	4	Temperatura máxima	18.1
32331	7	Sololá	717	San Juan la Laguna	12	San Juan la Laguna	1	Enero	2023-01-22T00:00:00	2024-11-08T19:00:00	3	Temperatura mínima	17.5
32332	7	Sololá	717	San Juan la Laguna	12	San Juan la Laguna	1	Enero	2023-01-22T00:00:00	2024-11-08T19:00:00	5	Humedad	81
32333	7	Sololá	717	San Juan la Laguna	12	San Juan la Laguna	1	Enero	2023-01-22T00:00:00	2024-11-08T19:00:00	6	Velocidad del viento	1.6
32334	7	Sololá	717	San Juan la Laguna	12	San Juan la Laguna	1	Enero	2023-01-22T00:00:00	2024-11-08T19:00:00	7	Dirección del viento	1.61
32335	7	Sololá	717	San Juan la Laguna	12	San Juan la Laguna	1	Enero	2023-01-22T00:00:00	2024-11-08T19:00:00	1	Precipitación	0
32336	7	Sololá	717	San Juan la Laguna	12	San Juan la Laguna	1	Enero	2023-01-22T00:00:00	2024-11-08T19:00:00	8	Radiación solar	0
32337	7	Sololá	717	San Juan la Laguna	12	San Juan la Laguna	1	Enero	2023-01-22T00:00:00	2024-11-08T20:00:00	2	Temperatura media	16.3
32338	7	Sololá	717	San Juan la Laguna	12	San Juan la Laguna	1	Enero	2023-01-22T00:00:00	2024-11-08T20:00:00	4	Temperatura máxima	17.5
32339	7	Sololá	717	San Juan la Laguna	12	San Juan la Laguna	1	Enero	2023-01-22T00:00:00	2024-11-08T20:00:00	3	Temperatura mínima	16.3
32340	7	Sololá	717	San Juan la Laguna	12	San Juan la Laguna	1	Enero	2023-01-22T00:00:00	2024-11-08T20:00:00	5	Humedad	85
32341	7	Sololá	717	San Juan la Laguna	12	San Juan la Laguna	1	Enero	2023-01-22T00:00:00	2024-11-08T20:00:00	6	Velocidad del viento	1.6
32342	7	Sololá	717	San Juan la Laguna	12	San Juan la Laguna	1	Enero	2023-01-22T00:00:00	2024-11-08T20:00:00	7	Dirección del viento	1.61
32343	7	Sololá	717	San Juan la Laguna	12	San Juan la Laguna	1	Enero	2023-01-22T00:00:00	2024-11-08T20:00:00	1	Precipitación	0
32344	7	Sololá	717	San Juan la Laguna	12	San Juan la Laguna	1	Enero	2023-01-22T00:00:00	2024-11-08T20:00:00	8	Radiación solar	0
32345	7	Sololá	717	San Juan la Laguna	12	San Juan la Laguna	1	Enero	2023-01-22T00:00:00	2024-11-08T21:00:00	2	Temperatura media	15.7
32346	7	Sololá	717	San Juan la Laguna	12	San Juan la Laguna	1	Enero	2023-01-22T00:00:00	2024-11-08T21:00:00	4	Temperatura máxima	16.3
32347	7	Sololá	717	San Juan la Laguna	12	San Juan la Laguna	1	Enero	2023-01-22T00:00:00	2024-11-08T21:00:00	3	Temperatura mínima	15.7
32348	7	Sololá	717	San Juan la Laguna	12	San Juan la Laguna	1	Enero	2023-01-22T00:00:00	2024-11-08T21:00:00	5	Humedad	87
32349	7	Sololá	717	San Juan la Laguna	12	San Juan la Laguna	1	Enero	2023-01-22T00:00:00	2024-11-08T21:00:00	6	Velocidad del viento	0
32350	7	Sololá	717	San Juan la Laguna	12	San Juan la Laguna	1	Enero	2023-01-22T00:00:00	2024-11-08T21:00:00	7	Dirección del viento	0
32351	7	Sololá	717	San Juan la Laguna	12	San Juan la Laguna	1	Enero	2023-01-22T00:00:00	2024-11-08T21:00:00	1	Precipitación	0
32352	7	Sololá	717	San Juan la Laguna	12	San Juan la Laguna	1	Enero	2023-01-22T00:00:00	2024-11-08T21:00:00	8	Radiación solar	0
32353	7	Sololá	717	San Juan la Laguna	12	San Juan la Laguna	1	Enero	2023-01-22T00:00:00	2024-11-08T22:00:00	2	Temperatura media	15.1
32354	7	Sololá	717	San Juan la Laguna	12	San Juan la Laguna	1	Enero	2023-01-22T00:00:00	2024-11-08T22:00:00	4	Temperatura máxima	15.7
32355	7	Sololá	717	San Juan la Laguna	12	San Juan la Laguna	1	Enero	2023-01-22T00:00:00	2024-11-08T22:00:00	3	Temperatura mínima	14.9
32356	7	Sololá	717	San Juan la Laguna	12	San Juan la Laguna	1	Enero	2023-01-22T00:00:00	2024-11-08T22:00:00	5	Humedad	87
32357	7	Sololá	717	San Juan la Laguna	12	San Juan la Laguna	1	Enero	2023-01-22T00:00:00	2024-11-08T22:00:00	6	Velocidad del viento	1.6
32358	7	Sololá	717	San Juan la Laguna	12	San Juan la Laguna	1	Enero	2023-01-22T00:00:00	2024-11-08T22:00:00	7	Dirección del viento	1.61
32359	7	Sololá	717	San Juan la Laguna	12	San Juan la Laguna	1	Enero	2023-01-22T00:00:00	2024-11-08T22:00:00	1	Precipitación	0
32360	7	Sololá	717	San Juan la Laguna	12	San Juan la Laguna	1	Enero	2023-01-22T00:00:00	2024-11-08T22:00:00	8	Radiación solar	0
32361	7	Sololá	717	San Juan la Laguna	12	San Juan la Laguna	1	Enero	2023-01-22T00:00:00	2024-11-08T23:00:00	2	Temperatura media	13.8
32362	7	Sololá	717	San Juan la Laguna	12	San Juan la Laguna	1	Enero	2023-01-22T00:00:00	2024-11-08T23:00:00	4	Temperatura máxima	15.1
32363	7	Sololá	717	San Juan la Laguna	12	San Juan la Laguna	1	Enero	2023-01-22T00:00:00	2024-11-08T23:00:00	3	Temperatura mínima	13.8
32364	7	Sololá	717	San Juan la Laguna	12	San Juan la Laguna	1	Enero	2023-01-22T00:00:00	2024-11-08T23:00:00	5	Humedad	88
32365	7	Sololá	717	San Juan la Laguna	12	San Juan la Laguna	1	Enero	2023-01-22T00:00:00	2024-11-08T23:00:00	6	Velocidad del viento	3.2
32366	7	Sololá	717	San Juan la Laguna	12	San Juan la Laguna	1	Enero	2023-01-22T00:00:00	2024-11-08T23:00:00	7	Dirección del viento	3.22
32367	7	Sololá	717	San Juan la Laguna	12	San Juan la Laguna	1	Enero	2023-01-22T00:00:00	2024-11-08T23:00:00	1	Precipitación	0
32368	7	Sololá	717	San Juan la Laguna	12	San Juan la Laguna	1	Enero	2023-01-22T00:00:00	2024-11-08T23:00:00	8	Radiación solar	0
32369	7	Sololá	717	San Juan la Laguna	12	San Juan la Laguna	1	Enero	2023-01-23T00:00:00	2024-11-08T00:00:00	2	Temperatura media	13.2
32370	7	Sololá	717	San Juan la Laguna	12	San Juan la Laguna	1	Enero	2023-01-23T00:00:00	2024-11-08T00:00:00	4	Temperatura máxima	13.8
32371	7	Sololá	717	San Juan la Laguna	12	San Juan la Laguna	1	Enero	2023-01-23T00:00:00	2024-11-08T00:00:00	3	Temperatura mínima	13.2
32372	7	Sololá	717	San Juan la Laguna	12	San Juan la Laguna	1	Enero	2023-01-23T00:00:00	2024-11-08T00:00:00	5	Humedad	84
32373	7	Sololá	717	San Juan la Laguna	12	San Juan la Laguna	1	Enero	2023-01-23T00:00:00	2024-11-08T00:00:00	6	Velocidad del viento	3.2
32374	7	Sololá	717	San Juan la Laguna	12	San Juan la Laguna	1	Enero	2023-01-23T00:00:00	2024-11-08T00:00:00	7	Dirección del viento	3.22
32375	7	Sololá	717	San Juan la Laguna	12	San Juan la Laguna	1	Enero	2023-01-23T00:00:00	2024-11-08T00:00:00	1	Precipitación	0
32376	7	Sololá	717	San Juan la Laguna	12	San Juan la Laguna	1	Enero	2023-01-23T00:00:00	2024-11-08T00:00:00	8	Radiación solar	0
32377	7	Sololá	717	San Juan la Laguna	12	San Juan la Laguna	1	Enero	2023-01-23T00:00:00	2024-11-08T01:00:00	2	Temperatura media	13.1
32378	7	Sololá	717	San Juan la Laguna	12	San Juan la Laguna	1	Enero	2023-01-23T00:00:00	2024-11-08T01:00:00	4	Temperatura máxima	13.2
32379	7	Sololá	717	San Juan la Laguna	12	San Juan la Laguna	1	Enero	2023-01-23T00:00:00	2024-11-08T01:00:00	3	Temperatura mínima	12.9
32380	7	Sololá	717	San Juan la Laguna	12	San Juan la Laguna	1	Enero	2023-01-23T00:00:00	2024-11-08T01:00:00	5	Humedad	83
32381	7	Sololá	717	San Juan la Laguna	12	San Juan la Laguna	1	Enero	2023-01-23T00:00:00	2024-11-08T01:00:00	6	Velocidad del viento	3.2
32382	7	Sololá	717	San Juan la Laguna	12	San Juan la Laguna	1	Enero	2023-01-23T00:00:00	2024-11-08T01:00:00	7	Dirección del viento	3.22
32383	7	Sololá	717	San Juan la Laguna	12	San Juan la Laguna	1	Enero	2023-01-23T00:00:00	2024-11-08T01:00:00	1	Precipitación	0
32384	7	Sololá	717	San Juan la Laguna	12	San Juan la Laguna	1	Enero	2023-01-23T00:00:00	2024-11-08T01:00:00	8	Radiación solar	0
32385	7	Sololá	717	San Juan la Laguna	12	San Juan la Laguna	1	Enero	2023-01-23T00:00:00	2024-11-08T02:00:00	2	Temperatura media	12.7
32386	7	Sololá	717	San Juan la Laguna	12	San Juan la Laguna	1	Enero	2023-01-23T00:00:00	2024-11-08T02:00:00	4	Temperatura máxima	13.1
32387	7	Sololá	717	San Juan la Laguna	12	San Juan la Laguna	1	Enero	2023-01-23T00:00:00	2024-11-08T02:00:00	3	Temperatura mínima	12.6
32388	7	Sololá	717	San Juan la Laguna	12	San Juan la Laguna	1	Enero	2023-01-23T00:00:00	2024-11-08T02:00:00	5	Humedad	84
32389	7	Sololá	717	San Juan la Laguna	12	San Juan la Laguna	1	Enero	2023-01-23T00:00:00	2024-11-08T02:00:00	6	Velocidad del viento	3.2
32390	7	Sololá	717	San Juan la Laguna	12	San Juan la Laguna	1	Enero	2023-01-23T00:00:00	2024-11-08T02:00:00	7	Dirección del viento	3.22
32391	7	Sololá	717	San Juan la Laguna	12	San Juan la Laguna	1	Enero	2023-01-23T00:00:00	2024-11-08T02:00:00	1	Precipitación	0
32392	7	Sololá	717	San Juan la Laguna	12	San Juan la Laguna	1	Enero	2023-01-23T00:00:00	2024-11-08T02:00:00	8	Radiación solar	0
32393	7	Sololá	717	San Juan la Laguna	12	San Juan la Laguna	1	Enero	2023-01-23T00:00:00	2024-11-08T03:00:00	2	Temperatura media	12.4
32394	7	Sololá	717	San Juan la Laguna	12	San Juan la Laguna	1	Enero	2023-01-23T00:00:00	2024-11-08T03:00:00	4	Temperatura máxima	12.7
32395	7	Sololá	717	San Juan la Laguna	12	San Juan la Laguna	1	Enero	2023-01-23T00:00:00	2024-11-08T03:00:00	3	Temperatura mínima	12.3
32396	7	Sololá	717	San Juan la Laguna	12	San Juan la Laguna	1	Enero	2023-01-23T00:00:00	2024-11-08T03:00:00	5	Humedad	85
32397	7	Sololá	717	San Juan la Laguna	12	San Juan la Laguna	1	Enero	2023-01-23T00:00:00	2024-11-08T03:00:00	6	Velocidad del viento	3.2
32398	7	Sololá	717	San Juan la Laguna	12	San Juan la Laguna	1	Enero	2023-01-23T00:00:00	2024-11-08T03:00:00	7	Dirección del viento	3.22
32399	7	Sololá	717	San Juan la Laguna	12	San Juan la Laguna	1	Enero	2023-01-23T00:00:00	2024-11-08T03:00:00	1	Precipitación	0
32400	7	Sololá	717	San Juan la Laguna	12	San Juan la Laguna	1	Enero	2023-01-23T00:00:00	2024-11-08T03:00:00	8	Radiación solar	0
32401	7	Sololá	717	San Juan la Laguna	12	San Juan la Laguna	1	Enero	2023-01-23T00:00:00	2024-11-08T04:00:00	2	Temperatura media	11.6
32402	7	Sololá	717	San Juan la Laguna	12	San Juan la Laguna	1	Enero	2023-01-23T00:00:00	2024-11-08T04:00:00	4	Temperatura máxima	12.4
32403	7	Sololá	717	San Juan la Laguna	12	San Juan la Laguna	1	Enero	2023-01-23T00:00:00	2024-11-08T04:00:00	3	Temperatura mínima	11.6
32404	7	Sololá	717	San Juan la Laguna	12	San Juan la Laguna	1	Enero	2023-01-23T00:00:00	2024-11-08T04:00:00	5	Humedad	89
32405	7	Sololá	717	San Juan la Laguna	12	San Juan la Laguna	1	Enero	2023-01-23T00:00:00	2024-11-08T04:00:00	6	Velocidad del viento	3.2
32406	7	Sololá	717	San Juan la Laguna	12	San Juan la Laguna	1	Enero	2023-01-23T00:00:00	2024-11-08T04:00:00	7	Dirección del viento	3.22
32407	7	Sololá	717	San Juan la Laguna	12	San Juan la Laguna	1	Enero	2023-01-23T00:00:00	2024-11-08T04:00:00	1	Precipitación	0
32408	7	Sololá	717	San Juan la Laguna	12	San Juan la Laguna	1	Enero	2023-01-23T00:00:00	2024-11-08T04:00:00	8	Radiación solar	0
32409	7	Sololá	717	San Juan la Laguna	12	San Juan la Laguna	1	Enero	2023-01-23T00:00:00	2024-11-08T05:00:00	2	Temperatura media	11.6
32410	7	Sololá	717	San Juan la Laguna	12	San Juan la Laguna	1	Enero	2023-01-23T00:00:00	2024-11-08T05:00:00	4	Temperatura máxima	11.9
32411	7	Sololá	717	San Juan la Laguna	12	San Juan la Laguna	1	Enero	2023-01-23T00:00:00	2024-11-08T05:00:00	3	Temperatura mínima	11.6
32412	7	Sololá	717	San Juan la Laguna	12	San Juan la Laguna	1	Enero	2023-01-23T00:00:00	2024-11-08T05:00:00	5	Humedad	87
32413	7	Sololá	717	San Juan la Laguna	12	San Juan la Laguna	1	Enero	2023-01-23T00:00:00	2024-11-08T05:00:00	6	Velocidad del viento	3.2
32414	7	Sololá	717	San Juan la Laguna	12	San Juan la Laguna	1	Enero	2023-01-23T00:00:00	2024-11-08T05:00:00	7	Dirección del viento	3.22
32415	7	Sololá	717	San Juan la Laguna	12	San Juan la Laguna	1	Enero	2023-01-23T00:00:00	2024-11-08T05:00:00	1	Precipitación	0
32416	7	Sololá	717	San Juan la Laguna	12	San Juan la Laguna	1	Enero	2023-01-23T00:00:00	2024-11-08T05:00:00	8	Radiación solar	0
32417	7	Sololá	717	San Juan la Laguna	12	San Juan la Laguna	1	Enero	2023-01-23T00:00:00	2024-11-08T06:00:00	2	Temperatura media	11.4
32418	7	Sololá	717	San Juan la Laguna	12	San Juan la Laguna	1	Enero	2023-01-23T00:00:00	2024-11-08T06:00:00	4	Temperatura máxima	11.6
32419	7	Sololá	717	San Juan la Laguna	12	San Juan la Laguna	1	Enero	2023-01-23T00:00:00	2024-11-08T06:00:00	3	Temperatura mínima	11.1
32420	7	Sololá	717	San Juan la Laguna	12	San Juan la Laguna	1	Enero	2023-01-23T00:00:00	2024-11-08T06:00:00	5	Humedad	86
32421	7	Sololá	717	San Juan la Laguna	12	San Juan la Laguna	1	Enero	2023-01-23T00:00:00	2024-11-08T06:00:00	6	Velocidad del viento	3.2
32422	7	Sololá	717	San Juan la Laguna	12	San Juan la Laguna	1	Enero	2023-01-23T00:00:00	2024-11-08T06:00:00	7	Dirección del viento	3.22
32423	7	Sololá	717	San Juan la Laguna	12	San Juan la Laguna	1	Enero	2023-01-23T00:00:00	2024-11-08T06:00:00	1	Precipitación	0
32424	7	Sololá	717	San Juan la Laguna	12	San Juan la Laguna	1	Enero	2023-01-23T00:00:00	2024-11-08T06:00:00	8	Radiación solar	0
32425	7	Sololá	717	San Juan la Laguna	12	San Juan la Laguna	1	Enero	2023-01-23T00:00:00	2024-11-08T07:00:00	2	Temperatura media	11.5
32426	7	Sololá	717	San Juan la Laguna	12	San Juan la Laguna	1	Enero	2023-01-23T00:00:00	2024-11-08T07:00:00	4	Temperatura máxima	11.5
32427	7	Sololá	717	San Juan la Laguna	12	San Juan la Laguna	1	Enero	2023-01-23T00:00:00	2024-11-08T07:00:00	3	Temperatura mínima	11.2
32428	7	Sololá	717	San Juan la Laguna	12	San Juan la Laguna	1	Enero	2023-01-23T00:00:00	2024-11-08T07:00:00	5	Humedad	84
32429	7	Sololá	717	San Juan la Laguna	12	San Juan la Laguna	1	Enero	2023-01-23T00:00:00	2024-11-08T07:00:00	6	Velocidad del viento	4.8
32430	7	Sololá	717	San Juan la Laguna	12	San Juan la Laguna	1	Enero	2023-01-23T00:00:00	2024-11-08T07:00:00	7	Dirección del viento	4.83
32431	7	Sololá	717	San Juan la Laguna	12	San Juan la Laguna	1	Enero	2023-01-23T00:00:00	2024-11-08T07:00:00	1	Precipitación	0
32432	7	Sololá	717	San Juan la Laguna	12	San Juan la Laguna	1	Enero	2023-01-23T00:00:00	2024-11-08T07:00:00	8	Radiación solar	5
32433	7	Sololá	717	San Juan la Laguna	12	San Juan la Laguna	1	Enero	2023-01-23T00:00:00	2024-11-08T08:00:00	2	Temperatura media	13.7
32434	7	Sololá	717	San Juan la Laguna	12	San Juan la Laguna	1	Enero	2023-01-23T00:00:00	2024-11-08T08:00:00	4	Temperatura máxima	13.7
32435	7	Sololá	717	San Juan la Laguna	12	San Juan la Laguna	1	Enero	2023-01-23T00:00:00	2024-11-08T08:00:00	3	Temperatura mínima	11.5
32436	7	Sololá	717	San Juan la Laguna	12	San Juan la Laguna	1	Enero	2023-01-23T00:00:00	2024-11-08T08:00:00	5	Humedad	79
32437	7	Sololá	717	San Juan la Laguna	12	San Juan la Laguna	1	Enero	2023-01-23T00:00:00	2024-11-08T08:00:00	6	Velocidad del viento	3.2
32438	7	Sololá	717	San Juan la Laguna	12	San Juan la Laguna	1	Enero	2023-01-23T00:00:00	2024-11-08T08:00:00	7	Dirección del viento	3.22
32439	7	Sololá	717	San Juan la Laguna	12	San Juan la Laguna	1	Enero	2023-01-23T00:00:00	2024-11-08T08:00:00	1	Precipitación	0
32440	7	Sololá	717	San Juan la Laguna	12	San Juan la Laguna	1	Enero	2023-01-23T00:00:00	2024-11-08T08:00:00	8	Radiación solar	120
32441	7	Sololá	717	San Juan la Laguna	12	San Juan la Laguna	1	Enero	2023-01-23T00:00:00	2024-11-08T09:00:00	2	Temperatura media	18.6
32442	7	Sololá	717	San Juan la Laguna	12	San Juan la Laguna	1	Enero	2023-01-23T00:00:00	2024-11-08T09:00:00	4	Temperatura máxima	18.6
32443	7	Sololá	717	San Juan la Laguna	12	San Juan la Laguna	1	Enero	2023-01-23T00:00:00	2024-11-08T09:00:00	3	Temperatura mínima	13.7
32444	7	Sololá	717	San Juan la Laguna	12	San Juan la Laguna	1	Enero	2023-01-23T00:00:00	2024-11-08T09:00:00	5	Humedad	63
32445	7	Sololá	717	San Juan la Laguna	12	San Juan la Laguna	1	Enero	2023-01-23T00:00:00	2024-11-08T09:00:00	6	Velocidad del viento	1.6
32446	7	Sololá	717	San Juan la Laguna	12	San Juan la Laguna	1	Enero	2023-01-23T00:00:00	2024-11-08T09:00:00	7	Dirección del viento	1.61
32447	7	Sololá	717	San Juan la Laguna	12	San Juan la Laguna	1	Enero	2023-01-23T00:00:00	2024-11-08T09:00:00	1	Precipitación	0
32448	7	Sololá	717	San Juan la Laguna	12	San Juan la Laguna	1	Enero	2023-01-23T00:00:00	2024-11-08T09:00:00	8	Radiación solar	346
32449	7	Sololá	717	San Juan la Laguna	12	San Juan la Laguna	1	Enero	2023-01-23T00:00:00	2024-11-08T10:00:00	2	Temperatura media	20.1
32450	7	Sololá	717	San Juan la Laguna	12	San Juan la Laguna	1	Enero	2023-01-23T00:00:00	2024-11-08T10:00:00	4	Temperatura máxima	20.3
32451	7	Sololá	717	San Juan la Laguna	12	San Juan la Laguna	1	Enero	2023-01-23T00:00:00	2024-11-08T10:00:00	3	Temperatura mínima	18.6
32452	7	Sololá	717	San Juan la Laguna	12	San Juan la Laguna	1	Enero	2023-01-23T00:00:00	2024-11-08T10:00:00	5	Humedad	57
32453	7	Sololá	717	San Juan la Laguna	12	San Juan la Laguna	1	Enero	2023-01-23T00:00:00	2024-11-08T10:00:00	6	Velocidad del viento	1.6
32454	7	Sololá	717	San Juan la Laguna	12	San Juan la Laguna	1	Enero	2023-01-23T00:00:00	2024-11-08T10:00:00	7	Dirección del viento	1.61
32455	7	Sololá	717	San Juan la Laguna	12	San Juan la Laguna	1	Enero	2023-01-23T00:00:00	2024-11-08T10:00:00	1	Precipitación	0
32456	7	Sololá	717	San Juan la Laguna	12	San Juan la Laguna	1	Enero	2023-01-23T00:00:00	2024-11-08T10:00:00	8	Radiación solar	541
32457	7	Sololá	717	San Juan la Laguna	12	San Juan la Laguna	1	Enero	2023-01-23T00:00:00	2024-11-08T11:00:00	2	Temperatura media	21.6
32458	7	Sololá	717	San Juan la Laguna	12	San Juan la Laguna	1	Enero	2023-01-23T00:00:00	2024-11-08T11:00:00	4	Temperatura máxima	21.7
32459	7	Sololá	717	San Juan la Laguna	12	San Juan la Laguna	1	Enero	2023-01-23T00:00:00	2024-11-08T11:00:00	3	Temperatura mínima	20.1
32460	7	Sololá	717	San Juan la Laguna	12	San Juan la Laguna	1	Enero	2023-01-23T00:00:00	2024-11-08T11:00:00	5	Humedad	49
32461	7	Sololá	717	San Juan la Laguna	12	San Juan la Laguna	1	Enero	2023-01-23T00:00:00	2024-11-08T11:00:00	6	Velocidad del viento	3.2
32462	7	Sololá	717	San Juan la Laguna	12	San Juan la Laguna	1	Enero	2023-01-23T00:00:00	2024-11-08T11:00:00	7	Dirección del viento	3.22
32463	7	Sololá	717	San Juan la Laguna	12	San Juan la Laguna	1	Enero	2023-01-23T00:00:00	2024-11-08T11:00:00	1	Precipitación	0
32464	7	Sololá	717	San Juan la Laguna	12	San Juan la Laguna	1	Enero	2023-01-23T00:00:00	2024-11-08T11:00:00	8	Radiación solar	661
32465	7	Sololá	717	San Juan la Laguna	12	San Juan la Laguna	1	Enero	2023-01-23T00:00:00	2024-11-08T12:00:00	2	Temperatura media	24.3
32466	7	Sololá	717	San Juan la Laguna	12	San Juan la Laguna	1	Enero	2023-01-23T00:00:00	2024-11-08T12:00:00	4	Temperatura máxima	24.5
32467	7	Sololá	717	San Juan la Laguna	12	San Juan la Laguna	1	Enero	2023-01-23T00:00:00	2024-11-08T12:00:00	3	Temperatura mínima	21.6
32468	7	Sololá	717	San Juan la Laguna	12	San Juan la Laguna	1	Enero	2023-01-23T00:00:00	2024-11-08T12:00:00	5	Humedad	35
32469	7	Sololá	717	San Juan la Laguna	12	San Juan la Laguna	1	Enero	2023-01-23T00:00:00	2024-11-08T12:00:00	6	Velocidad del viento	4.8
32470	7	Sololá	717	San Juan la Laguna	12	San Juan la Laguna	1	Enero	2023-01-23T00:00:00	2024-11-08T12:00:00	7	Dirección del viento	4.83
32471	7	Sololá	717	San Juan la Laguna	12	San Juan la Laguna	1	Enero	2023-01-23T00:00:00	2024-11-08T12:00:00	1	Precipitación	0
32472	7	Sololá	717	San Juan la Laguna	12	San Juan la Laguna	1	Enero	2023-01-23T00:00:00	2024-11-08T12:00:00	8	Radiación solar	699
32473	7	Sololá	717	San Juan la Laguna	12	San Juan la Laguna	1	Enero	2023-01-23T00:00:00	2024-11-08T13:00:00	2	Temperatura media	25.2
32474	7	Sololá	717	San Juan la Laguna	12	San Juan la Laguna	1	Enero	2023-01-23T00:00:00	2024-11-08T13:00:00	4	Temperatura máxima	25.2
32475	7	Sololá	717	San Juan la Laguna	12	San Juan la Laguna	1	Enero	2023-01-23T00:00:00	2024-11-08T13:00:00	3	Temperatura mínima	24.2
32476	7	Sololá	717	San Juan la Laguna	12	San Juan la Laguna	1	Enero	2023-01-23T00:00:00	2024-11-08T13:00:00	5	Humedad	36
32477	7	Sololá	717	San Juan la Laguna	12	San Juan la Laguna	1	Enero	2023-01-23T00:00:00	2024-11-08T13:00:00	6	Velocidad del viento	6.4
32478	7	Sololá	717	San Juan la Laguna	12	San Juan la Laguna	1	Enero	2023-01-23T00:00:00	2024-11-08T13:00:00	7	Dirección del viento	6.44
32479	7	Sololá	717	San Juan la Laguna	12	San Juan la Laguna	1	Enero	2023-01-23T00:00:00	2024-11-08T13:00:00	1	Precipitación	0
32480	7	Sololá	717	San Juan la Laguna	12	San Juan la Laguna	1	Enero	2023-01-23T00:00:00	2024-11-08T13:00:00	8	Radiación solar	810
32481	7	Sololá	717	San Juan la Laguna	12	San Juan la Laguna	1	Enero	2023-01-23T00:00:00	2024-11-08T14:00:00	2	Temperatura media	23.1
32482	7	Sololá	717	San Juan la Laguna	12	San Juan la Laguna	1	Enero	2023-01-23T00:00:00	2024-11-08T14:00:00	4	Temperatura máxima	25.2
32483	7	Sololá	717	San Juan la Laguna	12	San Juan la Laguna	1	Enero	2023-01-23T00:00:00	2024-11-08T14:00:00	3	Temperatura mínima	22.5
32484	7	Sololá	717	San Juan la Laguna	12	San Juan la Laguna	1	Enero	2023-01-23T00:00:00	2024-11-08T14:00:00	5	Humedad	58
32485	7	Sololá	717	San Juan la Laguna	12	San Juan la Laguna	1	Enero	2023-01-23T00:00:00	2024-11-08T14:00:00	6	Velocidad del viento	8
32486	7	Sololá	717	San Juan la Laguna	12	San Juan la Laguna	1	Enero	2023-01-23T00:00:00	2024-11-08T14:00:00	7	Dirección del viento	8.05
32487	7	Sololá	717	San Juan la Laguna	12	San Juan la Laguna	1	Enero	2023-01-23T00:00:00	2024-11-08T14:00:00	1	Precipitación	0
32488	7	Sololá	717	San Juan la Laguna	12	San Juan la Laguna	1	Enero	2023-01-23T00:00:00	2024-11-08T14:00:00	8	Radiación solar	745
32489	7	Sololá	717	San Juan la Laguna	12	San Juan la Laguna	1	Enero	2023-01-23T00:00:00	2024-11-08T15:00:00	2	Temperatura media	22.6
32490	7	Sololá	717	San Juan la Laguna	12	San Juan la Laguna	1	Enero	2023-01-23T00:00:00	2024-11-08T15:00:00	4	Temperatura máxima	23.2
32491	7	Sololá	717	San Juan la Laguna	12	San Juan la Laguna	1	Enero	2023-01-23T00:00:00	2024-11-08T15:00:00	3	Temperatura mínima	22.3
32492	7	Sololá	717	San Juan la Laguna	12	San Juan la Laguna	1	Enero	2023-01-23T00:00:00	2024-11-08T15:00:00	5	Humedad	64
32493	7	Sololá	717	San Juan la Laguna	12	San Juan la Laguna	1	Enero	2023-01-23T00:00:00	2024-11-08T15:00:00	6	Velocidad del viento	8
32494	7	Sololá	717	San Juan la Laguna	12	San Juan la Laguna	1	Enero	2023-01-23T00:00:00	2024-11-08T15:00:00	7	Dirección del viento	8.05
32495	7	Sololá	717	San Juan la Laguna	12	San Juan la Laguna	1	Enero	2023-01-23T00:00:00	2024-11-08T15:00:00	1	Precipitación	0
32496	7	Sololá	717	San Juan la Laguna	12	San Juan la Laguna	1	Enero	2023-01-23T00:00:00	2024-11-08T15:00:00	8	Radiación solar	628
32497	7	Sololá	717	San Juan la Laguna	12	San Juan la Laguna	1	Enero	2023-01-23T00:00:00	2024-11-08T16:00:00	2	Temperatura media	23.5
32498	7	Sololá	717	San Juan la Laguna	12	San Juan la Laguna	1	Enero	2023-01-23T00:00:00	2024-11-08T16:00:00	4	Temperatura máxima	23.5
32499	7	Sololá	717	San Juan la Laguna	12	San Juan la Laguna	1	Enero	2023-01-23T00:00:00	2024-11-08T16:00:00	3	Temperatura mínima	22.1
32500	7	Sololá	717	San Juan la Laguna	12	San Juan la Laguna	1	Enero	2023-01-23T00:00:00	2024-11-08T16:00:00	5	Humedad	57
32501	7	Sololá	717	San Juan la Laguna	12	San Juan la Laguna	1	Enero	2023-01-23T00:00:00	2024-11-08T16:00:00	6	Velocidad del viento	4.8
32502	7	Sololá	717	San Juan la Laguna	12	San Juan la Laguna	1	Enero	2023-01-23T00:00:00	2024-11-08T16:00:00	7	Dirección del viento	4.83
32503	7	Sololá	717	San Juan la Laguna	12	San Juan la Laguna	1	Enero	2023-01-23T00:00:00	2024-11-08T16:00:00	1	Precipitación	0
32504	7	Sololá	717	San Juan la Laguna	12	San Juan la Laguna	1	Enero	2023-01-23T00:00:00	2024-11-08T16:00:00	8	Radiación solar	460
32505	7	Sololá	717	San Juan la Laguna	12	San Juan la Laguna	1	Enero	2023-01-23T00:00:00	2024-11-08T17:00:00	2	Temperatura media	20.8
32506	7	Sololá	717	San Juan la Laguna	12	San Juan la Laguna	1	Enero	2023-01-23T00:00:00	2024-11-08T17:00:00	4	Temperatura máxima	23.8
32507	7	Sololá	717	San Juan la Laguna	12	San Juan la Laguna	1	Enero	2023-01-23T00:00:00	2024-11-08T17:00:00	3	Temperatura mínima	20.8
32508	7	Sololá	717	San Juan la Laguna	12	San Juan la Laguna	1	Enero	2023-01-23T00:00:00	2024-11-08T17:00:00	5	Humedad	70
32509	7	Sololá	717	San Juan la Laguna	12	San Juan la Laguna	1	Enero	2023-01-23T00:00:00	2024-11-08T17:00:00	6	Velocidad del viento	3.2
32510	7	Sololá	717	San Juan la Laguna	12	San Juan la Laguna	1	Enero	2023-01-23T00:00:00	2024-11-08T17:00:00	7	Dirección del viento	3.22
32511	7	Sololá	717	San Juan la Laguna	12	San Juan la Laguna	1	Enero	2023-01-23T00:00:00	2024-11-08T17:00:00	1	Precipitación	0
32512	7	Sololá	717	San Juan la Laguna	12	San Juan la Laguna	1	Enero	2023-01-23T00:00:00	2024-11-08T17:00:00	8	Radiación solar	225
32513	7	Sololá	717	San Juan la Laguna	12	San Juan la Laguna	1	Enero	2023-01-23T00:00:00	2024-11-08T18:00:00	2	Temperatura media	18.8
32514	7	Sololá	717	San Juan la Laguna	12	San Juan la Laguna	1	Enero	2023-01-23T00:00:00	2024-11-08T18:00:00	4	Temperatura máxima	20.8
32515	7	Sololá	717	San Juan la Laguna	12	San Juan la Laguna	1	Enero	2023-01-23T00:00:00	2024-11-08T18:00:00	3	Temperatura mínima	18.8
32516	7	Sololá	717	San Juan la Laguna	12	San Juan la Laguna	1	Enero	2023-01-23T00:00:00	2024-11-08T18:00:00	5	Humedad	74
32517	7	Sololá	717	San Juan la Laguna	12	San Juan la Laguna	1	Enero	2023-01-23T00:00:00	2024-11-08T18:00:00	6	Velocidad del viento	3.2
32518	7	Sololá	717	San Juan la Laguna	12	San Juan la Laguna	1	Enero	2023-01-23T00:00:00	2024-11-08T18:00:00	7	Dirección del viento	3.22
32519	7	Sololá	717	San Juan la Laguna	12	San Juan la Laguna	1	Enero	2023-01-23T00:00:00	2024-11-08T18:00:00	1	Precipitación	0
32520	7	Sololá	717	San Juan la Laguna	12	San Juan la Laguna	1	Enero	2023-01-23T00:00:00	2024-11-08T18:00:00	8	Radiación solar	27
32521	7	Sololá	717	San Juan la Laguna	12	San Juan la Laguna	1	Enero	2023-01-23T00:00:00	2024-11-08T19:00:00	2	Temperatura media	19.7
32522	7	Sololá	717	San Juan la Laguna	12	San Juan la Laguna	1	Enero	2023-01-23T00:00:00	2024-11-08T19:00:00	4	Temperatura máxima	19.7
32523	7	Sololá	717	San Juan la Laguna	12	San Juan la Laguna	1	Enero	2023-01-23T00:00:00	2024-11-08T19:00:00	3	Temperatura mínima	17.8
32524	7	Sololá	717	San Juan la Laguna	12	San Juan la Laguna	1	Enero	2023-01-23T00:00:00	2024-11-08T19:00:00	5	Humedad	64
32525	7	Sololá	717	San Juan la Laguna	12	San Juan la Laguna	1	Enero	2023-01-23T00:00:00	2024-11-08T19:00:00	6	Velocidad del viento	3.2
32526	7	Sololá	717	San Juan la Laguna	12	San Juan la Laguna	1	Enero	2023-01-23T00:00:00	2024-11-08T19:00:00	7	Dirección del viento	3.22
32527	7	Sololá	717	San Juan la Laguna	12	San Juan la Laguna	1	Enero	2023-01-23T00:00:00	2024-11-08T19:00:00	1	Precipitación	0
32528	7	Sololá	717	San Juan la Laguna	12	San Juan la Laguna	1	Enero	2023-01-23T00:00:00	2024-11-08T19:00:00	8	Radiación solar	0
32529	7	Sololá	717	San Juan la Laguna	12	San Juan la Laguna	1	Enero	2023-01-23T00:00:00	2024-11-08T20:00:00	2	Temperatura media	19.5
32530	7	Sololá	717	San Juan la Laguna	12	San Juan la Laguna	1	Enero	2023-01-23T00:00:00	2024-11-08T20:00:00	4	Temperatura máxima	19.9
32531	7	Sololá	717	San Juan la Laguna	12	San Juan la Laguna	1	Enero	2023-01-23T00:00:00	2024-11-08T20:00:00	3	Temperatura mínima	19.5
32532	7	Sololá	717	San Juan la Laguna	12	San Juan la Laguna	1	Enero	2023-01-23T00:00:00	2024-11-08T20:00:00	5	Humedad	62
32533	7	Sololá	717	San Juan la Laguna	12	San Juan la Laguna	1	Enero	2023-01-23T00:00:00	2024-11-08T20:00:00	6	Velocidad del viento	8
32534	7	Sololá	717	San Juan la Laguna	12	San Juan la Laguna	1	Enero	2023-01-23T00:00:00	2024-11-08T20:00:00	7	Dirección del viento	8.05
32535	7	Sololá	717	San Juan la Laguna	12	San Juan la Laguna	1	Enero	2023-01-23T00:00:00	2024-11-08T20:00:00	1	Precipitación	0
32536	7	Sololá	717	San Juan la Laguna	12	San Juan la Laguna	1	Enero	2023-01-23T00:00:00	2024-11-08T20:00:00	8	Radiación solar	0
32537	7	Sololá	717	San Juan la Laguna	12	San Juan la Laguna	1	Enero	2023-01-23T00:00:00	2024-11-08T21:00:00	2	Temperatura media	18.8
32538	7	Sololá	717	San Juan la Laguna	12	San Juan la Laguna	1	Enero	2023-01-23T00:00:00	2024-11-08T21:00:00	4	Temperatura máxima	19.5
32539	7	Sololá	717	San Juan la Laguna	12	San Juan la Laguna	1	Enero	2023-01-23T00:00:00	2024-11-08T21:00:00	3	Temperatura mínima	18.8
32540	7	Sololá	717	San Juan la Laguna	12	San Juan la Laguna	1	Enero	2023-01-23T00:00:00	2024-11-08T21:00:00	5	Humedad	63
32541	7	Sololá	717	San Juan la Laguna	12	San Juan la Laguna	1	Enero	2023-01-23T00:00:00	2024-11-08T21:00:00	6	Velocidad del viento	9.7
32542	7	Sololá	717	San Juan la Laguna	12	San Juan la Laguna	1	Enero	2023-01-23T00:00:00	2024-11-08T21:00:00	7	Dirección del viento	9.66
32543	7	Sololá	717	San Juan la Laguna	12	San Juan la Laguna	1	Enero	2023-01-23T00:00:00	2024-11-08T21:00:00	1	Precipitación	0
32544	7	Sololá	717	San Juan la Laguna	12	San Juan la Laguna	1	Enero	2023-01-23T00:00:00	2024-11-08T21:00:00	8	Radiación solar	0
32545	7	Sololá	717	San Juan la Laguna	12	San Juan la Laguna	1	Enero	2023-01-23T00:00:00	2024-11-08T22:00:00	2	Temperatura media	18.1
32546	7	Sololá	717	San Juan la Laguna	12	San Juan la Laguna	1	Enero	2023-01-23T00:00:00	2024-11-08T22:00:00	4	Temperatura máxima	18.8
32547	7	Sololá	717	San Juan la Laguna	12	San Juan la Laguna	1	Enero	2023-01-23T00:00:00	2024-11-08T22:00:00	3	Temperatura mínima	18.1
32548	7	Sololá	717	San Juan la Laguna	12	San Juan la Laguna	1	Enero	2023-01-23T00:00:00	2024-11-08T22:00:00	5	Humedad	66
32549	7	Sololá	717	San Juan la Laguna	12	San Juan la Laguna	1	Enero	2023-01-23T00:00:00	2024-11-08T22:00:00	6	Velocidad del viento	9.7
32550	7	Sololá	717	San Juan la Laguna	12	San Juan la Laguna	1	Enero	2023-01-23T00:00:00	2024-11-08T22:00:00	7	Dirección del viento	9.66
32551	7	Sololá	717	San Juan la Laguna	12	San Juan la Laguna	1	Enero	2023-01-23T00:00:00	2024-11-08T22:00:00	1	Precipitación	0
32552	7	Sololá	717	San Juan la Laguna	12	San Juan la Laguna	1	Enero	2023-01-23T00:00:00	2024-11-08T22:00:00	8	Radiación solar	0
32553	7	Sololá	717	San Juan la Laguna	12	San Juan la Laguna	1	Enero	2023-01-23T00:00:00	2024-11-08T23:00:00	2	Temperatura media	17.8
32554	7	Sololá	717	San Juan la Laguna	12	San Juan la Laguna	1	Enero	2023-01-23T00:00:00	2024-11-08T23:00:00	4	Temperatura máxima	18.2
32555	7	Sololá	717	San Juan la Laguna	12	San Juan la Laguna	1	Enero	2023-01-23T00:00:00	2024-11-08T23:00:00	3	Temperatura mínima	17.8
32556	7	Sololá	717	San Juan la Laguna	12	San Juan la Laguna	1	Enero	2023-01-23T00:00:00	2024-11-08T23:00:00	5	Humedad	65
32557	7	Sololá	717	San Juan la Laguna	12	San Juan la Laguna	1	Enero	2023-01-23T00:00:00	2024-11-08T23:00:00	6	Velocidad del viento	12.9
32558	7	Sololá	717	San Juan la Laguna	12	San Juan la Laguna	1	Enero	2023-01-23T00:00:00	2024-11-08T23:00:00	7	Dirección del viento	12.87
32559	7	Sololá	717	San Juan la Laguna	12	San Juan la Laguna	1	Enero	2023-01-23T00:00:00	2024-11-08T23:00:00	1	Precipitación	0
32560	7	Sololá	717	San Juan la Laguna	12	San Juan la Laguna	1	Enero	2023-01-23T00:00:00	2024-11-08T23:00:00	8	Radiación solar	0
32561	7	Sololá	717	San Juan la Laguna	12	San Juan la Laguna	1	Enero	2023-01-24T00:00:00	2024-11-08T00:00:00	2	Temperatura media	15.6
32562	7	Sololá	717	San Juan la Laguna	12	San Juan la Laguna	1	Enero	2023-01-24T00:00:00	2024-11-08T00:00:00	4	Temperatura máxima	17.8
32563	7	Sololá	717	San Juan la Laguna	12	San Juan la Laguna	1	Enero	2023-01-24T00:00:00	2024-11-08T00:00:00	3	Temperatura mínima	15.6
32564	7	Sololá	717	San Juan la Laguna	12	San Juan la Laguna	1	Enero	2023-01-24T00:00:00	2024-11-08T00:00:00	5	Humedad	71
32565	7	Sololá	717	San Juan la Laguna	12	San Juan la Laguna	1	Enero	2023-01-24T00:00:00	2024-11-08T00:00:00	6	Velocidad del viento	3.2
32566	7	Sololá	717	San Juan la Laguna	12	San Juan la Laguna	1	Enero	2023-01-24T00:00:00	2024-11-08T00:00:00	7	Dirección del viento	3.22
32567	7	Sololá	717	San Juan la Laguna	12	San Juan la Laguna	1	Enero	2023-01-24T00:00:00	2024-11-08T00:00:00	1	Precipitación	0
32568	7	Sololá	717	San Juan la Laguna	12	San Juan la Laguna	1	Enero	2023-01-24T00:00:00	2024-11-08T00:00:00	8	Radiación solar	0
32569	7	Sololá	717	San Juan la Laguna	12	San Juan la Laguna	1	Enero	2023-01-24T00:00:00	2024-11-08T01:00:00	2	Temperatura media	13.7
32570	7	Sololá	717	San Juan la Laguna	12	San Juan la Laguna	1	Enero	2023-01-24T00:00:00	2024-11-08T01:00:00	4	Temperatura máxima	15.6
32571	7	Sololá	717	San Juan la Laguna	12	San Juan la Laguna	1	Enero	2023-01-24T00:00:00	2024-11-08T01:00:00	3	Temperatura mínima	13.7
32572	7	Sololá	717	San Juan la Laguna	12	San Juan la Laguna	1	Enero	2023-01-24T00:00:00	2024-11-08T01:00:00	5	Humedad	73
32573	7	Sololá	717	San Juan la Laguna	12	San Juan la Laguna	1	Enero	2023-01-24T00:00:00	2024-11-08T01:00:00	6	Velocidad del viento	3.2
32574	7	Sololá	717	San Juan la Laguna	12	San Juan la Laguna	1	Enero	2023-01-24T00:00:00	2024-11-08T01:00:00	7	Dirección del viento	3.22
32575	7	Sololá	717	San Juan la Laguna	12	San Juan la Laguna	1	Enero	2023-01-24T00:00:00	2024-11-08T01:00:00	1	Precipitación	0
32576	7	Sololá	717	San Juan la Laguna	12	San Juan la Laguna	1	Enero	2023-01-24T00:00:00	2024-11-08T01:00:00	8	Radiación solar	0
32577	7	Sololá	717	San Juan la Laguna	12	San Juan la Laguna	1	Enero	2023-01-24T00:00:00	2024-11-08T02:00:00	2	Temperatura media	12.2
32578	7	Sololá	717	San Juan la Laguna	12	San Juan la Laguna	1	Enero	2023-01-24T00:00:00	2024-11-08T02:00:00	4	Temperatura máxima	13.7
32579	7	Sololá	717	San Juan la Laguna	12	San Juan la Laguna	1	Enero	2023-01-24T00:00:00	2024-11-08T02:00:00	3	Temperatura mínima	12.2
32580	7	Sololá	717	San Juan la Laguna	12	San Juan la Laguna	1	Enero	2023-01-24T00:00:00	2024-11-08T02:00:00	5	Humedad	71
32581	7	Sololá	717	San Juan la Laguna	12	San Juan la Laguna	1	Enero	2023-01-24T00:00:00	2024-11-08T02:00:00	6	Velocidad del viento	4.8
32582	7	Sololá	717	San Juan la Laguna	12	San Juan la Laguna	1	Enero	2023-01-24T00:00:00	2024-11-08T02:00:00	7	Dirección del viento	4.83
32583	7	Sololá	717	San Juan la Laguna	12	San Juan la Laguna	1	Enero	2023-01-24T00:00:00	2024-11-08T02:00:00	1	Precipitación	0
32584	7	Sololá	717	San Juan la Laguna	12	San Juan la Laguna	1	Enero	2023-01-24T00:00:00	2024-11-08T02:00:00	8	Radiación solar	0
32585	7	Sololá	717	San Juan la Laguna	12	San Juan la Laguna	1	Enero	2023-01-24T00:00:00	2024-11-08T03:00:00	2	Temperatura media	12.2
32586	7	Sololá	717	San Juan la Laguna	12	San Juan la Laguna	1	Enero	2023-01-24T00:00:00	2024-11-08T03:00:00	4	Temperatura máxima	12.3
32587	7	Sololá	717	San Juan la Laguna	12	San Juan la Laguna	1	Enero	2023-01-24T00:00:00	2024-11-08T03:00:00	3	Temperatura mínima	11.8
32588	7	Sololá	717	San Juan la Laguna	12	San Juan la Laguna	1	Enero	2023-01-24T00:00:00	2024-11-08T03:00:00	5	Humedad	59
32589	7	Sololá	717	San Juan la Laguna	12	San Juan la Laguna	1	Enero	2023-01-24T00:00:00	2024-11-08T03:00:00	6	Velocidad del viento	4.8
32590	7	Sololá	717	San Juan la Laguna	12	San Juan la Laguna	1	Enero	2023-01-24T00:00:00	2024-11-08T03:00:00	7	Dirección del viento	4.83
32591	7	Sololá	717	San Juan la Laguna	12	San Juan la Laguna	1	Enero	2023-01-24T00:00:00	2024-11-08T03:00:00	1	Precipitación	0
32592	7	Sololá	717	San Juan la Laguna	12	San Juan la Laguna	1	Enero	2023-01-24T00:00:00	2024-11-08T03:00:00	8	Radiación solar	0
32593	7	Sololá	717	San Juan la Laguna	12	San Juan la Laguna	1	Enero	2023-01-24T00:00:00	2024-11-08T04:00:00	2	Temperatura media	11.4
32594	7	Sololá	717	San Juan la Laguna	12	San Juan la Laguna	1	Enero	2023-01-24T00:00:00	2024-11-08T04:00:00	4	Temperatura máxima	12.2
32595	7	Sololá	717	San Juan la Laguna	12	San Juan la Laguna	1	Enero	2023-01-24T00:00:00	2024-11-08T04:00:00	3	Temperatura mínima	11.3
32596	7	Sololá	717	San Juan la Laguna	12	San Juan la Laguna	1	Enero	2023-01-24T00:00:00	2024-11-08T04:00:00	5	Humedad	58
32597	7	Sololá	717	San Juan la Laguna	12	San Juan la Laguna	1	Enero	2023-01-24T00:00:00	2024-11-08T04:00:00	6	Velocidad del viento	4.8
32598	7	Sololá	717	San Juan la Laguna	12	San Juan la Laguna	1	Enero	2023-01-24T00:00:00	2024-11-08T04:00:00	7	Dirección del viento	4.83
32599	7	Sololá	717	San Juan la Laguna	12	San Juan la Laguna	1	Enero	2023-01-24T00:00:00	2024-11-08T04:00:00	1	Precipitación	0
32600	7	Sololá	717	San Juan la Laguna	12	San Juan la Laguna	1	Enero	2023-01-24T00:00:00	2024-11-08T04:00:00	8	Radiación solar	0
32601	7	Sololá	717	San Juan la Laguna	12	San Juan la Laguna	1	Enero	2023-01-24T00:00:00	2024-11-08T05:00:00	2	Temperatura media	10.4
32602	7	Sololá	717	San Juan la Laguna	12	San Juan la Laguna	1	Enero	2023-01-24T00:00:00	2024-11-08T05:00:00	4	Temperatura máxima	11.4
32603	7	Sololá	717	San Juan la Laguna	12	San Juan la Laguna	1	Enero	2023-01-24T00:00:00	2024-11-08T05:00:00	3	Temperatura mínima	10.3
32604	7	Sololá	717	San Juan la Laguna	12	San Juan la Laguna	1	Enero	2023-01-24T00:00:00	2024-11-08T05:00:00	5	Humedad	62
32605	7	Sololá	717	San Juan la Laguna	12	San Juan la Laguna	1	Enero	2023-01-24T00:00:00	2024-11-08T05:00:00	6	Velocidad del viento	3.2
32606	7	Sololá	717	San Juan la Laguna	12	San Juan la Laguna	1	Enero	2023-01-24T00:00:00	2024-11-08T05:00:00	7	Dirección del viento	3.22
32607	7	Sololá	717	San Juan la Laguna	12	San Juan la Laguna	1	Enero	2023-01-24T00:00:00	2024-11-08T05:00:00	1	Precipitación	0
32608	7	Sololá	717	San Juan la Laguna	12	San Juan la Laguna	1	Enero	2023-01-24T00:00:00	2024-11-08T05:00:00	8	Radiación solar	0
32609	7	Sololá	717	San Juan la Laguna	12	San Juan la Laguna	1	Enero	2023-01-24T00:00:00	2024-11-08T06:00:00	2	Temperatura media	10.3
32610	7	Sololá	717	San Juan la Laguna	12	San Juan la Laguna	1	Enero	2023-01-24T00:00:00	2024-11-08T06:00:00	4	Temperatura máxima	10.4
32611	7	Sololá	717	San Juan la Laguna	12	San Juan la Laguna	1	Enero	2023-01-24T00:00:00	2024-11-08T06:00:00	3	Temperatura mínima	10.1
32612	7	Sololá	717	San Juan la Laguna	12	San Juan la Laguna	1	Enero	2023-01-24T00:00:00	2024-11-08T06:00:00	5	Humedad	63
32613	7	Sololá	717	San Juan la Laguna	12	San Juan la Laguna	1	Enero	2023-01-24T00:00:00	2024-11-08T06:00:00	6	Velocidad del viento	4.8
32614	7	Sololá	717	San Juan la Laguna	12	San Juan la Laguna	1	Enero	2023-01-24T00:00:00	2024-11-08T06:00:00	7	Dirección del viento	4.83
32615	7	Sololá	717	San Juan la Laguna	12	San Juan la Laguna	1	Enero	2023-01-24T00:00:00	2024-11-08T06:00:00	1	Precipitación	0
32616	7	Sololá	717	San Juan la Laguna	12	San Juan la Laguna	1	Enero	2023-01-24T00:00:00	2024-11-08T06:00:00	8	Radiación solar	0
32617	7	Sololá	717	San Juan la Laguna	12	San Juan la Laguna	1	Enero	2023-01-24T00:00:00	2024-11-08T07:00:00	2	Temperatura media	9.6
32618	7	Sololá	717	San Juan la Laguna	12	San Juan la Laguna	1	Enero	2023-01-24T00:00:00	2024-11-08T07:00:00	4	Temperatura máxima	10.3
32619	7	Sololá	717	San Juan la Laguna	12	San Juan la Laguna	1	Enero	2023-01-24T00:00:00	2024-11-08T07:00:00	3	Temperatura mínima	9.4
32620	7	Sololá	717	San Juan la Laguna	12	San Juan la Laguna	1	Enero	2023-01-24T00:00:00	2024-11-08T07:00:00	5	Humedad	71
32621	7	Sololá	717	San Juan la Laguna	12	San Juan la Laguna	1	Enero	2023-01-24T00:00:00	2024-11-08T07:00:00	6	Velocidad del viento	3.2
32622	7	Sololá	717	San Juan la Laguna	12	San Juan la Laguna	1	Enero	2023-01-24T00:00:00	2024-11-08T07:00:00	7	Dirección del viento	3.22
32623	7	Sololá	717	San Juan la Laguna	12	San Juan la Laguna	1	Enero	2023-01-24T00:00:00	2024-11-08T07:00:00	1	Precipitación	0
32624	7	Sololá	717	San Juan la Laguna	12	San Juan la Laguna	1	Enero	2023-01-24T00:00:00	2024-11-08T07:00:00	8	Radiación solar	4
32625	7	Sololá	717	San Juan la Laguna	12	San Juan la Laguna	1	Enero	2023-01-24T00:00:00	2024-11-08T08:00:00	2	Temperatura media	12.8
32626	7	Sololá	717	San Juan la Laguna	12	San Juan la Laguna	1	Enero	2023-01-24T00:00:00	2024-11-08T08:00:00	4	Temperatura máxima	12.8
32627	7	Sololá	717	San Juan la Laguna	12	San Juan la Laguna	1	Enero	2023-01-24T00:00:00	2024-11-08T08:00:00	3	Temperatura mínima	9.6
32628	7	Sololá	717	San Juan la Laguna	12	San Juan la Laguna	1	Enero	2023-01-24T00:00:00	2024-11-08T08:00:00	5	Humedad	66
32629	7	Sololá	717	San Juan la Laguna	12	San Juan la Laguna	1	Enero	2023-01-24T00:00:00	2024-11-08T08:00:00	6	Velocidad del viento	3.2
32630	7	Sololá	717	San Juan la Laguna	12	San Juan la Laguna	1	Enero	2023-01-24T00:00:00	2024-11-08T08:00:00	7	Dirección del viento	3.22
32631	7	Sololá	717	San Juan la Laguna	12	San Juan la Laguna	1	Enero	2023-01-24T00:00:00	2024-11-08T08:00:00	1	Precipitación	0
32632	7	Sololá	717	San Juan la Laguna	12	San Juan la Laguna	1	Enero	2023-01-24T00:00:00	2024-11-08T08:00:00	8	Radiación solar	125
32633	7	Sololá	717	San Juan la Laguna	12	San Juan la Laguna	1	Enero	2023-01-24T00:00:00	2024-11-08T09:00:00	2	Temperatura media	19.1
32634	7	Sololá	717	San Juan la Laguna	12	San Juan la Laguna	1	Enero	2023-01-24T00:00:00	2024-11-08T09:00:00	4	Temperatura máxima	19.1
32635	7	Sololá	717	San Juan la Laguna	12	San Juan la Laguna	1	Enero	2023-01-24T00:00:00	2024-11-08T09:00:00	3	Temperatura mínima	12.8
32636	7	Sololá	717	San Juan la Laguna	12	San Juan la Laguna	1	Enero	2023-01-24T00:00:00	2024-11-08T09:00:00	5	Humedad	47
32637	7	Sololá	717	San Juan la Laguna	12	San Juan la Laguna	1	Enero	2023-01-24T00:00:00	2024-11-08T09:00:00	6	Velocidad del viento	0
32638	7	Sololá	717	San Juan la Laguna	12	San Juan la Laguna	1	Enero	2023-01-24T00:00:00	2024-11-08T09:00:00	7	Dirección del viento	0
32639	7	Sololá	717	San Juan la Laguna	12	San Juan la Laguna	1	Enero	2023-01-24T00:00:00	2024-11-08T09:00:00	1	Precipitación	0
32640	7	Sololá	717	San Juan la Laguna	12	San Juan la Laguna	1	Enero	2023-01-24T00:00:00	2024-11-08T09:00:00	8	Radiación solar	361
32641	7	Sololá	717	San Juan la Laguna	12	San Juan la Laguna	1	Enero	2023-01-24T00:00:00	2024-11-08T10:00:00	2	Temperatura media	20.8
32642	7	Sololá	717	San Juan la Laguna	12	San Juan la Laguna	1	Enero	2023-01-24T00:00:00	2024-11-08T10:00:00	4	Temperatura máxima	20.8
32643	7	Sololá	717	San Juan la Laguna	12	San Juan la Laguna	1	Enero	2023-01-24T00:00:00	2024-11-08T10:00:00	3	Temperatura mínima	19.1
32644	7	Sololá	717	San Juan la Laguna	12	San Juan la Laguna	1	Enero	2023-01-24T00:00:00	2024-11-08T10:00:00	5	Humedad	39
32645	7	Sololá	717	San Juan la Laguna	12	San Juan la Laguna	1	Enero	2023-01-24T00:00:00	2024-11-08T10:00:00	6	Velocidad del viento	1.6
32646	7	Sololá	717	San Juan la Laguna	12	San Juan la Laguna	1	Enero	2023-01-24T00:00:00	2024-11-08T10:00:00	7	Dirección del viento	1.61
32647	7	Sololá	717	San Juan la Laguna	12	San Juan la Laguna	1	Enero	2023-01-24T00:00:00	2024-11-08T10:00:00	1	Precipitación	0
32648	7	Sololá	717	San Juan la Laguna	12	San Juan la Laguna	1	Enero	2023-01-24T00:00:00	2024-11-08T10:00:00	8	Radiación solar	559
32649	7	Sololá	717	San Juan la Laguna	12	San Juan la Laguna	1	Enero	2023-01-24T00:00:00	2024-11-08T11:00:00	2	Temperatura media	22.7
32650	7	Sololá	717	San Juan la Laguna	12	San Juan la Laguna	1	Enero	2023-01-24T00:00:00	2024-11-08T11:00:00	4	Temperatura máxima	22.7
32651	7	Sololá	717	San Juan la Laguna	12	San Juan la Laguna	1	Enero	2023-01-24T00:00:00	2024-11-08T11:00:00	3	Temperatura mínima	20.8
32652	7	Sololá	717	San Juan la Laguna	12	San Juan la Laguna	1	Enero	2023-01-24T00:00:00	2024-11-08T11:00:00	5	Humedad	34
32653	7	Sololá	717	San Juan la Laguna	12	San Juan la Laguna	1	Enero	2023-01-24T00:00:00	2024-11-08T11:00:00	6	Velocidad del viento	3.2
32654	7	Sololá	717	San Juan la Laguna	12	San Juan la Laguna	1	Enero	2023-01-24T00:00:00	2024-11-08T11:00:00	7	Dirección del viento	3.22
32655	7	Sololá	717	San Juan la Laguna	12	San Juan la Laguna	1	Enero	2023-01-24T00:00:00	2024-11-08T11:00:00	1	Precipitación	0
32656	7	Sololá	717	San Juan la Laguna	12	San Juan la Laguna	1	Enero	2023-01-24T00:00:00	2024-11-08T11:00:00	8	Radiación solar	683
32657	7	Sololá	717	San Juan la Laguna	12	San Juan la Laguna	1	Enero	2023-01-24T00:00:00	2024-11-08T12:00:00	2	Temperatura media	24.3
32658	7	Sololá	717	San Juan la Laguna	12	San Juan la Laguna	1	Enero	2023-01-24T00:00:00	2024-11-08T12:00:00	4	Temperatura máxima	24.3
32659	7	Sololá	717	San Juan la Laguna	12	San Juan la Laguna	1	Enero	2023-01-24T00:00:00	2024-11-08T12:00:00	3	Temperatura mínima	22.6
32660	7	Sololá	717	San Juan la Laguna	12	San Juan la Laguna	1	Enero	2023-01-24T00:00:00	2024-11-08T12:00:00	5	Humedad	32
32661	7	Sololá	717	San Juan la Laguna	12	San Juan la Laguna	1	Enero	2023-01-24T00:00:00	2024-11-08T12:00:00	6	Velocidad del viento	4.8
32662	7	Sololá	717	San Juan la Laguna	12	San Juan la Laguna	1	Enero	2023-01-24T00:00:00	2024-11-08T12:00:00	7	Dirección del viento	4.83
32663	7	Sololá	717	San Juan la Laguna	12	San Juan la Laguna	1	Enero	2023-01-24T00:00:00	2024-11-08T12:00:00	1	Precipitación	0
32664	7	Sololá	717	San Juan la Laguna	12	San Juan la Laguna	1	Enero	2023-01-24T00:00:00	2024-11-08T12:00:00	8	Radiación solar	715
32665	7	Sololá	717	San Juan la Laguna	12	San Juan la Laguna	1	Enero	2023-01-24T00:00:00	2024-11-08T13:00:00	2	Temperatura media	23.8
32666	7	Sololá	717	San Juan la Laguna	12	San Juan la Laguna	1	Enero	2023-01-24T00:00:00	2024-11-08T13:00:00	4	Temperatura máxima	24.4
32667	7	Sololá	717	San Juan la Laguna	12	San Juan la Laguna	1	Enero	2023-01-24T00:00:00	2024-11-08T13:00:00	3	Temperatura mínima	23.6
32668	7	Sololá	717	San Juan la Laguna	12	San Juan la Laguna	1	Enero	2023-01-24T00:00:00	2024-11-08T13:00:00	5	Humedad	38
32669	7	Sololá	717	San Juan la Laguna	12	San Juan la Laguna	1	Enero	2023-01-24T00:00:00	2024-11-08T13:00:00	6	Velocidad del viento	3.2
32670	7	Sololá	717	San Juan la Laguna	12	San Juan la Laguna	1	Enero	2023-01-24T00:00:00	2024-11-08T13:00:00	7	Dirección del viento	3.22
32671	7	Sololá	717	San Juan la Laguna	12	San Juan la Laguna	1	Enero	2023-01-24T00:00:00	2024-11-08T13:00:00	1	Precipitación	0
32672	7	Sololá	717	San Juan la Laguna	12	San Juan la Laguna	1	Enero	2023-01-24T00:00:00	2024-11-08T13:00:00	8	Radiación solar	827
32673	7	Sololá	717	San Juan la Laguna	12	San Juan la Laguna	1	Enero	2023-01-24T00:00:00	2024-11-08T14:00:00	2	Temperatura media	22.3
32674	7	Sololá	717	San Juan la Laguna	12	San Juan la Laguna	1	Enero	2023-01-24T00:00:00	2024-11-08T14:00:00	4	Temperatura máxima	24.2
32675	7	Sololá	717	San Juan la Laguna	12	San Juan la Laguna	1	Enero	2023-01-24T00:00:00	2024-11-08T14:00:00	3	Temperatura mínima	22.1
32676	7	Sololá	717	San Juan la Laguna	12	San Juan la Laguna	1	Enero	2023-01-24T00:00:00	2024-11-08T14:00:00	5	Humedad	61
32677	7	Sololá	717	San Juan la Laguna	12	San Juan la Laguna	1	Enero	2023-01-24T00:00:00	2024-11-08T14:00:00	6	Velocidad del viento	12.9
32678	7	Sololá	717	San Juan la Laguna	12	San Juan la Laguna	1	Enero	2023-01-24T00:00:00	2024-11-08T14:00:00	7	Dirección del viento	12.87
32679	7	Sololá	717	San Juan la Laguna	12	San Juan la Laguna	1	Enero	2023-01-24T00:00:00	2024-11-08T14:00:00	1	Precipitación	0
32680	7	Sololá	717	San Juan la Laguna	12	San Juan la Laguna	1	Enero	2023-01-24T00:00:00	2024-11-08T14:00:00	8	Radiación solar	763
32681	7	Sololá	717	San Juan la Laguna	12	San Juan la Laguna	1	Enero	2023-01-24T00:00:00	2024-11-08T15:00:00	2	Temperatura media	21.1
32682	7	Sololá	717	San Juan la Laguna	12	San Juan la Laguna	1	Enero	2023-01-24T00:00:00	2024-11-08T15:00:00	4	Temperatura máxima	22.4
32683	7	Sololá	717	San Juan la Laguna	12	San Juan la Laguna	1	Enero	2023-01-24T00:00:00	2024-11-08T15:00:00	3	Temperatura mínima	21.1
32684	7	Sololá	717	San Juan la Laguna	12	San Juan la Laguna	1	Enero	2023-01-24T00:00:00	2024-11-08T15:00:00	5	Humedad	67
32685	7	Sololá	717	San Juan la Laguna	12	San Juan la Laguna	1	Enero	2023-01-24T00:00:00	2024-11-08T15:00:00	6	Velocidad del viento	16.1
32686	7	Sololá	717	San Juan la Laguna	12	San Juan la Laguna	1	Enero	2023-01-24T00:00:00	2024-11-08T15:00:00	7	Dirección del viento	16.09
32687	7	Sololá	717	San Juan la Laguna	12	San Juan la Laguna	1	Enero	2023-01-24T00:00:00	2024-11-08T15:00:00	1	Precipitación	0
32688	7	Sololá	717	San Juan la Laguna	12	San Juan la Laguna	1	Enero	2023-01-24T00:00:00	2024-11-08T15:00:00	8	Radiación solar	637
32689	7	Sololá	717	San Juan la Laguna	12	San Juan la Laguna	1	Enero	2023-01-24T00:00:00	2024-11-08T16:00:00	2	Temperatura media	19.6
32690	7	Sololá	717	San Juan la Laguna	12	San Juan la Laguna	1	Enero	2023-01-24T00:00:00	2024-11-08T16:00:00	4	Temperatura máxima	21.1
32691	7	Sololá	717	San Juan la Laguna	12	San Juan la Laguna	1	Enero	2023-01-24T00:00:00	2024-11-08T16:00:00	3	Temperatura mínima	19.6
32692	7	Sololá	717	San Juan la Laguna	12	San Juan la Laguna	1	Enero	2023-01-24T00:00:00	2024-11-08T16:00:00	5	Humedad	71
32693	7	Sololá	717	San Juan la Laguna	12	San Juan la Laguna	1	Enero	2023-01-24T00:00:00	2024-11-08T16:00:00	6	Velocidad del viento	14.5
32694	7	Sololá	717	San Juan la Laguna	12	San Juan la Laguna	1	Enero	2023-01-24T00:00:00	2024-11-08T16:00:00	7	Dirección del viento	14.48
32695	7	Sololá	717	San Juan la Laguna	12	San Juan la Laguna	1	Enero	2023-01-24T00:00:00	2024-11-08T16:00:00	1	Precipitación	0
32696	7	Sololá	717	San Juan la Laguna	12	San Juan la Laguna	1	Enero	2023-01-24T00:00:00	2024-11-08T16:00:00	8	Radiación solar	400
32697	7	Sololá	717	San Juan la Laguna	12	San Juan la Laguna	1	Enero	2023-01-24T00:00:00	2024-11-08T17:00:00	2	Temperatura media	19.3
32698	7	Sololá	717	San Juan la Laguna	12	San Juan la Laguna	1	Enero	2023-01-24T00:00:00	2024-11-08T17:00:00	4	Temperatura máxima	19.6
32699	7	Sololá	717	San Juan la Laguna	12	San Juan la Laguna	1	Enero	2023-01-24T00:00:00	2024-11-08T17:00:00	3	Temperatura mínima	19.3
32700	7	Sololá	717	San Juan la Laguna	12	San Juan la Laguna	1	Enero	2023-01-24T00:00:00	2024-11-08T17:00:00	5	Humedad	73
32701	7	Sololá	717	San Juan la Laguna	12	San Juan la Laguna	1	Enero	2023-01-24T00:00:00	2024-11-08T17:00:00	6	Velocidad del viento	11.3
32702	7	Sololá	717	San Juan la Laguna	12	San Juan la Laguna	1	Enero	2023-01-24T00:00:00	2024-11-08T17:00:00	7	Dirección del viento	11.27
32703	7	Sololá	717	San Juan la Laguna	12	San Juan la Laguna	1	Enero	2023-01-24T00:00:00	2024-11-08T17:00:00	1	Precipitación	0
32704	7	Sololá	717	San Juan la Laguna	12	San Juan la Laguna	1	Enero	2023-01-24T00:00:00	2024-11-08T17:00:00	8	Radiación solar	127
32705	7	Sololá	717	San Juan la Laguna	12	San Juan la Laguna	1	Enero	2023-01-24T00:00:00	2024-11-08T18:00:00	2	Temperatura media	17.8
32706	7	Sololá	717	San Juan la Laguna	12	San Juan la Laguna	1	Enero	2023-01-24T00:00:00	2024-11-08T18:00:00	4	Temperatura máxima	19.3
32707	7	Sololá	717	San Juan la Laguna	12	San Juan la Laguna	1	Enero	2023-01-24T00:00:00	2024-11-08T18:00:00	3	Temperatura mínima	17.8
32708	7	Sololá	717	San Juan la Laguna	12	San Juan la Laguna	1	Enero	2023-01-24T00:00:00	2024-11-08T18:00:00	5	Humedad	80
32709	7	Sololá	717	San Juan la Laguna	12	San Juan la Laguna	1	Enero	2023-01-24T00:00:00	2024-11-08T18:00:00	6	Velocidad del viento	4.8
32710	7	Sololá	717	San Juan la Laguna	12	San Juan la Laguna	1	Enero	2023-01-24T00:00:00	2024-11-08T18:00:00	7	Dirección del viento	4.83
32711	7	Sololá	717	San Juan la Laguna	12	San Juan la Laguna	1	Enero	2023-01-24T00:00:00	2024-11-08T18:00:00	1	Precipitación	0
32712	7	Sololá	717	San Juan la Laguna	12	San Juan la Laguna	1	Enero	2023-01-24T00:00:00	2024-11-08T18:00:00	8	Radiación solar	31
32713	7	Sololá	717	San Juan la Laguna	12	San Juan la Laguna	1	Enero	2023-01-24T00:00:00	2024-11-08T19:00:00	2	Temperatura media	16.9
32714	7	Sololá	717	San Juan la Laguna	12	San Juan la Laguna	1	Enero	2023-01-24T00:00:00	2024-11-08T19:00:00	4	Temperatura máxima	17.8
32715	7	Sololá	717	San Juan la Laguna	12	San Juan la Laguna	1	Enero	2023-01-24T00:00:00	2024-11-08T19:00:00	3	Temperatura mínima	16.9
32716	7	Sololá	717	San Juan la Laguna	12	San Juan la Laguna	1	Enero	2023-01-24T00:00:00	2024-11-08T19:00:00	5	Humedad	80
32717	7	Sololá	717	San Juan la Laguna	12	San Juan la Laguna	1	Enero	2023-01-24T00:00:00	2024-11-08T19:00:00	6	Velocidad del viento	4.8
32718	7	Sololá	717	San Juan la Laguna	12	San Juan la Laguna	1	Enero	2023-01-24T00:00:00	2024-11-08T19:00:00	7	Dirección del viento	4.83
32719	7	Sololá	717	San Juan la Laguna	12	San Juan la Laguna	1	Enero	2023-01-24T00:00:00	2024-11-08T19:00:00	1	Precipitación	0
32720	7	Sololá	717	San Juan la Laguna	12	San Juan la Laguna	1	Enero	2023-01-24T00:00:00	2024-11-08T19:00:00	8	Radiación solar	0
32721	7	Sololá	717	San Juan la Laguna	12	San Juan la Laguna	1	Enero	2023-01-24T00:00:00	2024-11-08T20:00:00	2	Temperatura media	15.5
32722	7	Sololá	717	San Juan la Laguna	12	San Juan la Laguna	1	Enero	2023-01-24T00:00:00	2024-11-08T20:00:00	4	Temperatura máxima	17
32723	7	Sololá	717	San Juan la Laguna	12	San Juan la Laguna	1	Enero	2023-01-24T00:00:00	2024-11-08T20:00:00	3	Temperatura mínima	15.5
32724	7	Sololá	717	San Juan la Laguna	12	San Juan la Laguna	1	Enero	2023-01-24T00:00:00	2024-11-08T20:00:00	5	Humedad	81
32725	7	Sololá	717	San Juan la Laguna	12	San Juan la Laguna	1	Enero	2023-01-24T00:00:00	2024-11-08T20:00:00	6	Velocidad del viento	4.8
32726	7	Sololá	717	San Juan la Laguna	12	San Juan la Laguna	1	Enero	2023-01-24T00:00:00	2024-11-08T20:00:00	7	Dirección del viento	4.83
32727	7	Sololá	717	San Juan la Laguna	12	San Juan la Laguna	1	Enero	2023-01-24T00:00:00	2024-11-08T20:00:00	1	Precipitación	0
32728	7	Sololá	717	San Juan la Laguna	12	San Juan la Laguna	1	Enero	2023-01-24T00:00:00	2024-11-08T20:00:00	8	Radiación solar	0
32729	7	Sololá	717	San Juan la Laguna	12	San Juan la Laguna	1	Enero	2023-01-24T00:00:00	2024-11-08T21:00:00	2	Temperatura media	14.9
32730	7	Sololá	717	San Juan la Laguna	12	San Juan la Laguna	1	Enero	2023-01-24T00:00:00	2024-11-08T21:00:00	4	Temperatura máxima	15.5
32731	7	Sololá	717	San Juan la Laguna	12	San Juan la Laguna	1	Enero	2023-01-24T00:00:00	2024-11-08T21:00:00	3	Temperatura mínima	14.9
32732	7	Sololá	717	San Juan la Laguna	12	San Juan la Laguna	1	Enero	2023-01-24T00:00:00	2024-11-08T21:00:00	5	Humedad	79
32733	7	Sololá	717	San Juan la Laguna	12	San Juan la Laguna	1	Enero	2023-01-24T00:00:00	2024-11-08T21:00:00	6	Velocidad del viento	4.8
32734	7	Sololá	717	San Juan la Laguna	12	San Juan la Laguna	1	Enero	2023-01-24T00:00:00	2024-11-08T21:00:00	7	Dirección del viento	4.83
32735	7	Sololá	717	San Juan la Laguna	12	San Juan la Laguna	1	Enero	2023-01-24T00:00:00	2024-11-08T21:00:00	1	Precipitación	0
32736	7	Sololá	717	San Juan la Laguna	12	San Juan la Laguna	1	Enero	2023-01-24T00:00:00	2024-11-08T21:00:00	8	Radiación solar	0
32737	7	Sololá	717	San Juan la Laguna	12	San Juan la Laguna	1	Enero	2023-01-24T00:00:00	2024-11-08T22:00:00	2	Temperatura media	14.2
32738	7	Sololá	717	San Juan la Laguna	12	San Juan la Laguna	1	Enero	2023-01-24T00:00:00	2024-11-08T22:00:00	4	Temperatura máxima	14.9
32739	7	Sololá	717	San Juan la Laguna	12	San Juan la Laguna	1	Enero	2023-01-24T00:00:00	2024-11-08T22:00:00	3	Temperatura mínima	14.2
32740	7	Sololá	717	San Juan la Laguna	12	San Juan la Laguna	1	Enero	2023-01-24T00:00:00	2024-11-08T22:00:00	5	Humedad	82
32741	7	Sololá	717	San Juan la Laguna	12	San Juan la Laguna	1	Enero	2023-01-24T00:00:00	2024-11-08T22:00:00	6	Velocidad del viento	4.8
32742	7	Sololá	717	San Juan la Laguna	12	San Juan la Laguna	1	Enero	2023-01-24T00:00:00	2024-11-08T22:00:00	7	Dirección del viento	4.83
32743	7	Sololá	717	San Juan la Laguna	12	San Juan la Laguna	1	Enero	2023-01-24T00:00:00	2024-11-08T22:00:00	1	Precipitación	0
32744	7	Sololá	717	San Juan la Laguna	12	San Juan la Laguna	1	Enero	2023-01-24T00:00:00	2024-11-08T22:00:00	8	Radiación solar	0
32745	7	Sololá	717	San Juan la Laguna	12	San Juan la Laguna	1	Enero	2023-01-24T00:00:00	2024-11-08T23:00:00	2	Temperatura media	13.6
32746	7	Sololá	717	San Juan la Laguna	12	San Juan la Laguna	1	Enero	2023-01-24T00:00:00	2024-11-08T23:00:00	4	Temperatura máxima	14.2
32747	7	Sololá	717	San Juan la Laguna	12	San Juan la Laguna	1	Enero	2023-01-24T00:00:00	2024-11-08T23:00:00	3	Temperatura mínima	13.6
32748	7	Sololá	717	San Juan la Laguna	12	San Juan la Laguna	1	Enero	2023-01-24T00:00:00	2024-11-08T23:00:00	5	Humedad	82
32749	7	Sololá	717	San Juan la Laguna	12	San Juan la Laguna	1	Enero	2023-01-24T00:00:00	2024-11-08T23:00:00	6	Velocidad del viento	3.2
32750	7	Sololá	717	San Juan la Laguna	12	San Juan la Laguna	1	Enero	2023-01-24T00:00:00	2024-11-08T23:00:00	7	Dirección del viento	3.22
32751	7	Sololá	717	San Juan la Laguna	12	San Juan la Laguna	1	Enero	2023-01-24T00:00:00	2024-11-08T23:00:00	1	Precipitación	0
32752	7	Sololá	717	San Juan la Laguna	12	San Juan la Laguna	1	Enero	2023-01-24T00:00:00	2024-11-08T23:00:00	8	Radiación solar	0
32753	7	Sololá	717	San Juan la Laguna	12	San Juan la Laguna	1	Enero	2023-01-25T00:00:00	2024-11-08T00:00:00	2	Temperatura media	13.1
32754	7	Sololá	717	San Juan la Laguna	12	San Juan la Laguna	1	Enero	2023-01-25T00:00:00	2024-11-08T00:00:00	4	Temperatura máxima	13.6
32755	7	Sololá	717	San Juan la Laguna	12	San Juan la Laguna	1	Enero	2023-01-25T00:00:00	2024-11-08T00:00:00	3	Temperatura mínima	13.1
32756	7	Sololá	717	San Juan la Laguna	12	San Juan la Laguna	1	Enero	2023-01-25T00:00:00	2024-11-08T00:00:00	5	Humedad	83
32757	7	Sololá	717	San Juan la Laguna	12	San Juan la Laguna	1	Enero	2023-01-25T00:00:00	2024-11-08T00:00:00	6	Velocidad del viento	3.2
32758	7	Sololá	717	San Juan la Laguna	12	San Juan la Laguna	1	Enero	2023-01-25T00:00:00	2024-11-08T00:00:00	7	Dirección del viento	3.22
32759	7	Sololá	717	San Juan la Laguna	12	San Juan la Laguna	1	Enero	2023-01-25T00:00:00	2024-11-08T00:00:00	1	Precipitación	0
32760	7	Sololá	717	San Juan la Laguna	12	San Juan la Laguna	1	Enero	2023-01-25T00:00:00	2024-11-08T00:00:00	8	Radiación solar	0
32761	7	Sololá	717	San Juan la Laguna	12	San Juan la Laguna	1	Enero	2023-01-25T00:00:00	2024-11-08T01:00:00	2	Temperatura media	12.8
32762	7	Sololá	717	San Juan la Laguna	12	San Juan la Laguna	1	Enero	2023-01-25T00:00:00	2024-11-08T01:00:00	4	Temperatura máxima	13.1
32763	7	Sololá	717	San Juan la Laguna	12	San Juan la Laguna	1	Enero	2023-01-25T00:00:00	2024-11-08T01:00:00	3	Temperatura mínima	12.6
32764	7	Sololá	717	San Juan la Laguna	12	San Juan la Laguna	1	Enero	2023-01-25T00:00:00	2024-11-08T01:00:00	5	Humedad	84
32765	7	Sololá	717	San Juan la Laguna	12	San Juan la Laguna	1	Enero	2023-01-25T00:00:00	2024-11-08T01:00:00	6	Velocidad del viento	3.2
32766	7	Sololá	717	San Juan la Laguna	12	San Juan la Laguna	1	Enero	2023-01-25T00:00:00	2024-11-08T01:00:00	7	Dirección del viento	3.22
32767	7	Sololá	717	San Juan la Laguna	12	San Juan la Laguna	1	Enero	2023-01-25T00:00:00	2024-11-08T01:00:00	1	Precipitación	0
32768	7	Sololá	717	San Juan la Laguna	12	San Juan la Laguna	1	Enero	2023-01-25T00:00:00	2024-11-08T01:00:00	8	Radiación solar	0
32769	7	Sololá	717	San Juan la Laguna	12	San Juan la Laguna	1	Enero	2023-01-25T00:00:00	2024-11-08T02:00:00	2	Temperatura media	13
32770	7	Sololá	717	San Juan la Laguna	12	San Juan la Laguna	1	Enero	2023-01-25T00:00:00	2024-11-08T02:00:00	4	Temperatura máxima	13.1
32771	7	Sololá	717	San Juan la Laguna	12	San Juan la Laguna	1	Enero	2023-01-25T00:00:00	2024-11-08T02:00:00	3	Temperatura mínima	12.4
32772	7	Sololá	717	San Juan la Laguna	12	San Juan la Laguna	1	Enero	2023-01-25T00:00:00	2024-11-08T02:00:00	5	Humedad	83
32773	7	Sololá	717	San Juan la Laguna	12	San Juan la Laguna	1	Enero	2023-01-25T00:00:00	2024-11-08T02:00:00	6	Velocidad del viento	4.8
32774	7	Sololá	717	San Juan la Laguna	12	San Juan la Laguna	1	Enero	2023-01-25T00:00:00	2024-11-08T02:00:00	7	Dirección del viento	4.83
32775	7	Sololá	717	San Juan la Laguna	12	San Juan la Laguna	1	Enero	2023-01-25T00:00:00	2024-11-08T02:00:00	1	Precipitación	0
32776	7	Sololá	717	San Juan la Laguna	12	San Juan la Laguna	1	Enero	2023-01-25T00:00:00	2024-11-08T02:00:00	8	Radiación solar	0
32777	7	Sololá	717	San Juan la Laguna	12	San Juan la Laguna	1	Enero	2023-01-25T00:00:00	2024-11-08T03:00:00	2	Temperatura media	12.1
32778	7	Sololá	717	San Juan la Laguna	12	San Juan la Laguna	1	Enero	2023-01-25T00:00:00	2024-11-08T03:00:00	4	Temperatura máxima	13.1
32779	7	Sololá	717	San Juan la Laguna	12	San Juan la Laguna	1	Enero	2023-01-25T00:00:00	2024-11-08T03:00:00	3	Temperatura mínima	11.9
32780	7	Sololá	717	San Juan la Laguna	12	San Juan la Laguna	1	Enero	2023-01-25T00:00:00	2024-11-08T03:00:00	5	Humedad	85
32781	7	Sololá	717	San Juan la Laguna	12	San Juan la Laguna	1	Enero	2023-01-25T00:00:00	2024-11-08T03:00:00	6	Velocidad del viento	3.2
32782	7	Sololá	717	San Juan la Laguna	12	San Juan la Laguna	1	Enero	2023-01-25T00:00:00	2024-11-08T03:00:00	7	Dirección del viento	3.22
32783	7	Sololá	717	San Juan la Laguna	12	San Juan la Laguna	1	Enero	2023-01-25T00:00:00	2024-11-08T03:00:00	1	Precipitación	0
32784	7	Sololá	717	San Juan la Laguna	12	San Juan la Laguna	1	Enero	2023-01-25T00:00:00	2024-11-08T03:00:00	8	Radiación solar	0
32785	7	Sololá	717	San Juan la Laguna	12	San Juan la Laguna	1	Enero	2023-01-25T00:00:00	2024-11-08T04:00:00	2	Temperatura media	11.9
32786	7	Sololá	717	San Juan la Laguna	12	San Juan la Laguna	1	Enero	2023-01-25T00:00:00	2024-11-08T04:00:00	4	Temperatura máxima	12.1
32787	7	Sololá	717	San Juan la Laguna	12	San Juan la Laguna	1	Enero	2023-01-25T00:00:00	2024-11-08T04:00:00	3	Temperatura mínima	11.8
32788	7	Sololá	717	San Juan la Laguna	12	San Juan la Laguna	1	Enero	2023-01-25T00:00:00	2024-11-08T04:00:00	5	Humedad	85
32789	7	Sololá	717	San Juan la Laguna	12	San Juan la Laguna	1	Enero	2023-01-25T00:00:00	2024-11-08T04:00:00	6	Velocidad del viento	3.2
32790	7	Sololá	717	San Juan la Laguna	12	San Juan la Laguna	1	Enero	2023-01-25T00:00:00	2024-11-08T04:00:00	7	Dirección del viento	3.22
32791	7	Sololá	717	San Juan la Laguna	12	San Juan la Laguna	1	Enero	2023-01-25T00:00:00	2024-11-08T04:00:00	1	Precipitación	0
32792	7	Sololá	717	San Juan la Laguna	12	San Juan la Laguna	1	Enero	2023-01-25T00:00:00	2024-11-08T04:00:00	8	Radiación solar	0
32793	7	Sololá	717	San Juan la Laguna	12	San Juan la Laguna	1	Enero	2023-01-25T00:00:00	2024-11-08T05:00:00	2	Temperatura media	11.2
32794	7	Sololá	717	San Juan la Laguna	12	San Juan la Laguna	1	Enero	2023-01-25T00:00:00	2024-11-08T05:00:00	4	Temperatura máxima	11.9
32795	7	Sololá	717	San Juan la Laguna	12	San Juan la Laguna	1	Enero	2023-01-25T00:00:00	2024-11-08T05:00:00	3	Temperatura mínima	11.2
32796	7	Sololá	717	San Juan la Laguna	12	San Juan la Laguna	1	Enero	2023-01-25T00:00:00	2024-11-08T05:00:00	5	Humedad	88
32797	7	Sololá	717	San Juan la Laguna	12	San Juan la Laguna	1	Enero	2023-01-25T00:00:00	2024-11-08T05:00:00	6	Velocidad del viento	1.6
32798	7	Sololá	717	San Juan la Laguna	12	San Juan la Laguna	1	Enero	2023-01-25T00:00:00	2024-11-08T05:00:00	7	Dirección del viento	1.61
32799	7	Sololá	717	San Juan la Laguna	12	San Juan la Laguna	1	Enero	2023-01-25T00:00:00	2024-11-08T05:00:00	1	Precipitación	0
32800	7	Sololá	717	San Juan la Laguna	12	San Juan la Laguna	1	Enero	2023-01-25T00:00:00	2024-11-08T05:00:00	8	Radiación solar	0
32801	7	Sololá	717	San Juan la Laguna	12	San Juan la Laguna	1	Enero	2023-01-25T00:00:00	2024-11-08T06:00:00	2	Temperatura media	11.1
32802	7	Sololá	717	San Juan la Laguna	12	San Juan la Laguna	1	Enero	2023-01-25T00:00:00	2024-11-08T06:00:00	4	Temperatura máxima	11.2
32803	7	Sololá	717	San Juan la Laguna	12	San Juan la Laguna	1	Enero	2023-01-25T00:00:00	2024-11-08T06:00:00	3	Temperatura mínima	10.9
32804	7	Sololá	717	San Juan la Laguna	12	San Juan la Laguna	1	Enero	2023-01-25T00:00:00	2024-11-08T06:00:00	5	Humedad	90
32805	7	Sololá	717	San Juan la Laguna	12	San Juan la Laguna	1	Enero	2023-01-25T00:00:00	2024-11-08T06:00:00	6	Velocidad del viento	0
32806	7	Sololá	717	San Juan la Laguna	12	San Juan la Laguna	1	Enero	2023-01-25T00:00:00	2024-11-08T06:00:00	7	Dirección del viento	0
32807	7	Sololá	717	San Juan la Laguna	12	San Juan la Laguna	1	Enero	2023-01-25T00:00:00	2024-11-08T06:00:00	1	Precipitación	0
32808	7	Sololá	717	San Juan la Laguna	12	San Juan la Laguna	1	Enero	2023-01-25T00:00:00	2024-11-08T06:00:00	8	Radiación solar	0
32809	7	Sololá	717	San Juan la Laguna	12	San Juan la Laguna	1	Enero	2023-01-25T00:00:00	2024-11-08T07:00:00	2	Temperatura media	11.6
32810	7	Sololá	717	San Juan la Laguna	12	San Juan la Laguna	1	Enero	2023-01-25T00:00:00	2024-11-08T07:00:00	4	Temperatura máxima	11.6
32811	7	Sololá	717	San Juan la Laguna	12	San Juan la Laguna	1	Enero	2023-01-25T00:00:00	2024-11-08T07:00:00	3	Temperatura mínima	11.1
32812	7	Sololá	717	San Juan la Laguna	12	San Juan la Laguna	1	Enero	2023-01-25T00:00:00	2024-11-08T07:00:00	5	Humedad	88
32813	7	Sololá	717	San Juan la Laguna	12	San Juan la Laguna	1	Enero	2023-01-25T00:00:00	2024-11-08T07:00:00	6	Velocidad del viento	3.2
32814	7	Sololá	717	San Juan la Laguna	12	San Juan la Laguna	1	Enero	2023-01-25T00:00:00	2024-11-08T07:00:00	7	Dirección del viento	3.22
32815	7	Sololá	717	San Juan la Laguna	12	San Juan la Laguna	1	Enero	2023-01-25T00:00:00	2024-11-08T07:00:00	1	Precipitación	0
32816	7	Sololá	717	San Juan la Laguna	12	San Juan la Laguna	1	Enero	2023-01-25T00:00:00	2024-11-08T07:00:00	8	Radiación solar	5
32817	7	Sololá	717	San Juan la Laguna	12	San Juan la Laguna	1	Enero	2023-01-25T00:00:00	2024-11-08T08:00:00	2	Temperatura media	13.9
32818	7	Sololá	717	San Juan la Laguna	12	San Juan la Laguna	1	Enero	2023-01-25T00:00:00	2024-11-08T08:00:00	4	Temperatura máxima	13.9
32819	7	Sololá	717	San Juan la Laguna	12	San Juan la Laguna	1	Enero	2023-01-25T00:00:00	2024-11-08T08:00:00	3	Temperatura mínima	11.6
32820	7	Sololá	717	San Juan la Laguna	12	San Juan la Laguna	1	Enero	2023-01-25T00:00:00	2024-11-08T08:00:00	5	Humedad	85
32821	7	Sololá	717	San Juan la Laguna	12	San Juan la Laguna	1	Enero	2023-01-25T00:00:00	2024-11-08T08:00:00	6	Velocidad del viento	1.6
32822	7	Sololá	717	San Juan la Laguna	12	San Juan la Laguna	1	Enero	2023-01-25T00:00:00	2024-11-08T08:00:00	7	Dirección del viento	1.61
32823	7	Sololá	717	San Juan la Laguna	12	San Juan la Laguna	1	Enero	2023-01-25T00:00:00	2024-11-08T08:00:00	1	Precipitación	0
32824	7	Sololá	717	San Juan la Laguna	12	San Juan la Laguna	1	Enero	2023-01-25T00:00:00	2024-11-08T08:00:00	8	Radiación solar	114
32825	7	Sololá	717	San Juan la Laguna	12	San Juan la Laguna	1	Enero	2023-01-25T00:00:00	2024-11-08T09:00:00	2	Temperatura media	18
32826	7	Sololá	717	San Juan la Laguna	12	San Juan la Laguna	1	Enero	2023-01-25T00:00:00	2024-11-08T09:00:00	4	Temperatura máxima	18.2
32827	7	Sololá	717	San Juan la Laguna	12	San Juan la Laguna	1	Enero	2023-01-25T00:00:00	2024-11-08T09:00:00	3	Temperatura mínima	13.9
32828	7	Sololá	717	San Juan la Laguna	12	San Juan la Laguna	1	Enero	2023-01-25T00:00:00	2024-11-08T09:00:00	5	Humedad	76
32829	7	Sololá	717	San Juan la Laguna	12	San Juan la Laguna	1	Enero	2023-01-25T00:00:00	2024-11-08T09:00:00	6	Velocidad del viento	0
32830	7	Sololá	717	San Juan la Laguna	12	San Juan la Laguna	1	Enero	2023-01-25T00:00:00	2024-11-08T09:00:00	7	Dirección del viento	0
32831	7	Sololá	717	San Juan la Laguna	12	San Juan la Laguna	1	Enero	2023-01-25T00:00:00	2024-11-08T09:00:00	1	Precipitación	0
32832	7	Sololá	717	San Juan la Laguna	12	San Juan la Laguna	1	Enero	2023-01-25T00:00:00	2024-11-08T09:00:00	8	Radiación solar	337
32833	7	Sololá	717	San Juan la Laguna	12	San Juan la Laguna	1	Enero	2023-01-25T00:00:00	2024-11-08T10:00:00	2	Temperatura media	19.4
32834	7	Sololá	717	San Juan la Laguna	12	San Juan la Laguna	1	Enero	2023-01-25T00:00:00	2024-11-08T10:00:00	4	Temperatura máxima	19.5
32835	7	Sololá	717	San Juan la Laguna	12	San Juan la Laguna	1	Enero	2023-01-25T00:00:00	2024-11-08T10:00:00	3	Temperatura mínima	17.8
32836	7	Sololá	717	San Juan la Laguna	12	San Juan la Laguna	1	Enero	2023-01-25T00:00:00	2024-11-08T10:00:00	5	Humedad	68
32837	7	Sololá	717	San Juan la Laguna	12	San Juan la Laguna	1	Enero	2023-01-25T00:00:00	2024-11-08T10:00:00	6	Velocidad del viento	1.6
32838	7	Sololá	717	San Juan la Laguna	12	San Juan la Laguna	1	Enero	2023-01-25T00:00:00	2024-11-08T10:00:00	7	Dirección del viento	1.61
32839	7	Sololá	717	San Juan la Laguna	12	San Juan la Laguna	1	Enero	2023-01-25T00:00:00	2024-11-08T10:00:00	1	Precipitación	0
32840	7	Sololá	717	San Juan la Laguna	12	San Juan la Laguna	1	Enero	2023-01-25T00:00:00	2024-11-08T10:00:00	8	Radiación solar	539
32841	7	Sololá	717	San Juan la Laguna	12	San Juan la Laguna	1	Enero	2023-01-25T00:00:00	2024-11-08T11:00:00	2	Temperatura media	20.6
32842	7	Sololá	717	San Juan la Laguna	12	San Juan la Laguna	1	Enero	2023-01-25T00:00:00	2024-11-08T11:00:00	4	Temperatura máxima	20.6
32843	7	Sololá	717	San Juan la Laguna	12	San Juan la Laguna	1	Enero	2023-01-25T00:00:00	2024-11-08T11:00:00	3	Temperatura mínima	19.4
32844	7	Sololá	717	San Juan la Laguna	12	San Juan la Laguna	1	Enero	2023-01-25T00:00:00	2024-11-08T11:00:00	5	Humedad	60
32845	7	Sololá	717	San Juan la Laguna	12	San Juan la Laguna	1	Enero	2023-01-25T00:00:00	2024-11-08T11:00:00	6	Velocidad del viento	4.8
32846	7	Sololá	717	San Juan la Laguna	12	San Juan la Laguna	1	Enero	2023-01-25T00:00:00	2024-11-08T11:00:00	7	Dirección del viento	4.83
32847	7	Sololá	717	San Juan la Laguna	12	San Juan la Laguna	1	Enero	2023-01-25T00:00:00	2024-11-08T11:00:00	1	Precipitación	0
32848	7	Sololá	717	San Juan la Laguna	12	San Juan la Laguna	1	Enero	2023-01-25T00:00:00	2024-11-08T11:00:00	8	Radiación solar	664
32849	7	Sololá	717	San Juan la Laguna	12	San Juan la Laguna	1	Enero	2023-01-25T00:00:00	2024-11-08T12:00:00	2	Temperatura media	22.3
32850	7	Sololá	717	San Juan la Laguna	12	San Juan la Laguna	1	Enero	2023-01-25T00:00:00	2024-11-08T12:00:00	4	Temperatura máxima	22.3
32851	7	Sololá	717	San Juan la Laguna	12	San Juan la Laguna	1	Enero	2023-01-25T00:00:00	2024-11-08T12:00:00	3	Temperatura mínima	20.6
32852	7	Sololá	717	San Juan la Laguna	12	San Juan la Laguna	1	Enero	2023-01-25T00:00:00	2024-11-08T12:00:00	5	Humedad	55
32853	7	Sololá	717	San Juan la Laguna	12	San Juan la Laguna	1	Enero	2023-01-25T00:00:00	2024-11-08T12:00:00	6	Velocidad del viento	3.2
32854	7	Sololá	717	San Juan la Laguna	12	San Juan la Laguna	1	Enero	2023-01-25T00:00:00	2024-11-08T12:00:00	7	Dirección del viento	3.22
32855	7	Sololá	717	San Juan la Laguna	12	San Juan la Laguna	1	Enero	2023-01-25T00:00:00	2024-11-08T12:00:00	1	Precipitación	0
32856	7	Sololá	717	San Juan la Laguna	12	San Juan la Laguna	1	Enero	2023-01-25T00:00:00	2024-11-08T12:00:00	8	Radiación solar	699
32857	7	Sololá	717	San Juan la Laguna	12	San Juan la Laguna	1	Enero	2023-01-25T00:00:00	2024-11-08T13:00:00	2	Temperatura media	23
32858	7	Sololá	717	San Juan la Laguna	12	San Juan la Laguna	1	Enero	2023-01-25T00:00:00	2024-11-08T13:00:00	4	Temperatura máxima	23.1
32859	7	Sololá	717	San Juan la Laguna	12	San Juan la Laguna	1	Enero	2023-01-25T00:00:00	2024-11-08T13:00:00	3	Temperatura mínima	22.1
32860	7	Sololá	717	San Juan la Laguna	12	San Juan la Laguna	1	Enero	2023-01-25T00:00:00	2024-11-08T13:00:00	5	Humedad	61
32861	7	Sololá	717	San Juan la Laguna	12	San Juan la Laguna	1	Enero	2023-01-25T00:00:00	2024-11-08T13:00:00	6	Velocidad del viento	8
32862	7	Sololá	717	San Juan la Laguna	12	San Juan la Laguna	1	Enero	2023-01-25T00:00:00	2024-11-08T13:00:00	7	Dirección del viento	8.05
32863	7	Sololá	717	San Juan la Laguna	12	San Juan la Laguna	1	Enero	2023-01-25T00:00:00	2024-11-08T13:00:00	1	Precipitación	0
32864	7	Sololá	717	San Juan la Laguna	12	San Juan la Laguna	1	Enero	2023-01-25T00:00:00	2024-11-08T13:00:00	8	Radiación solar	792
32865	7	Sololá	717	San Juan la Laguna	12	San Juan la Laguna	1	Enero	2023-01-25T00:00:00	2024-11-08T14:00:00	2	Temperatura media	23.4
32866	7	Sololá	717	San Juan la Laguna	12	San Juan la Laguna	1	Enero	2023-01-25T00:00:00	2024-11-08T14:00:00	4	Temperatura máxima	23.6
32867	7	Sololá	717	San Juan la Laguna	12	San Juan la Laguna	1	Enero	2023-01-25T00:00:00	2024-11-08T14:00:00	3	Temperatura mínima	22.8
32868	7	Sololá	717	San Juan la Laguna	12	San Juan la Laguna	1	Enero	2023-01-25T00:00:00	2024-11-08T14:00:00	5	Humedad	61
32869	7	Sololá	717	San Juan la Laguna	12	San Juan la Laguna	1	Enero	2023-01-25T00:00:00	2024-11-08T14:00:00	6	Velocidad del viento	6.4
32870	7	Sololá	717	San Juan la Laguna	12	San Juan la Laguna	1	Enero	2023-01-25T00:00:00	2024-11-08T14:00:00	7	Dirección del viento	6.44
32871	7	Sololá	717	San Juan la Laguna	12	San Juan la Laguna	1	Enero	2023-01-25T00:00:00	2024-11-08T14:00:00	1	Precipitación	0
32872	7	Sololá	717	San Juan la Laguna	12	San Juan la Laguna	1	Enero	2023-01-25T00:00:00	2024-11-08T14:00:00	8	Radiación solar	777
32873	7	Sololá	717	San Juan la Laguna	12	San Juan la Laguna	1	Enero	2023-01-25T00:00:00	2024-11-08T15:00:00	2	Temperatura media	22.9
32874	7	Sololá	717	San Juan la Laguna	12	San Juan la Laguna	1	Enero	2023-01-25T00:00:00	2024-11-08T15:00:00	4	Temperatura máxima	23.7
32875	7	Sololá	717	San Juan la Laguna	12	San Juan la Laguna	1	Enero	2023-01-25T00:00:00	2024-11-08T15:00:00	3	Temperatura mínima	22.7
32876	7	Sololá	717	San Juan la Laguna	12	San Juan la Laguna	1	Enero	2023-01-25T00:00:00	2024-11-08T15:00:00	5	Humedad	64
32877	7	Sololá	717	San Juan la Laguna	12	San Juan la Laguna	1	Enero	2023-01-25T00:00:00	2024-11-08T15:00:00	6	Velocidad del viento	9.7
32878	7	Sololá	717	San Juan la Laguna	12	San Juan la Laguna	1	Enero	2023-01-25T00:00:00	2024-11-08T15:00:00	7	Dirección del viento	9.66
32879	7	Sololá	717	San Juan la Laguna	12	San Juan la Laguna	1	Enero	2023-01-25T00:00:00	2024-11-08T15:00:00	1	Precipitación	0
32880	7	Sololá	717	San Juan la Laguna	12	San Juan la Laguna	1	Enero	2023-01-25T00:00:00	2024-11-08T15:00:00	8	Radiación solar	657
32881	7	Sololá	717	San Juan la Laguna	12	San Juan la Laguna	1	Enero	2023-01-25T00:00:00	2024-11-08T16:00:00	2	Temperatura media	22.2
32882	7	Sololá	717	San Juan la Laguna	12	San Juan la Laguna	1	Enero	2023-01-25T00:00:00	2024-11-08T16:00:00	4	Temperatura máxima	22.9
32883	7	Sololá	717	San Juan la Laguna	12	San Juan la Laguna	1	Enero	2023-01-25T00:00:00	2024-11-08T16:00:00	3	Temperatura mínima	22.2
32884	7	Sololá	717	San Juan la Laguna	12	San Juan la Laguna	1	Enero	2023-01-25T00:00:00	2024-11-08T16:00:00	5	Humedad	67
32885	7	Sololá	717	San Juan la Laguna	12	San Juan la Laguna	1	Enero	2023-01-25T00:00:00	2024-11-08T16:00:00	6	Velocidad del viento	9.7
32886	7	Sololá	717	San Juan la Laguna	12	San Juan la Laguna	1	Enero	2023-01-25T00:00:00	2024-11-08T16:00:00	7	Dirección del viento	9.66
32887	7	Sololá	717	San Juan la Laguna	12	San Juan la Laguna	1	Enero	2023-01-25T00:00:00	2024-11-08T16:00:00	1	Precipitación	0
32888	7	Sololá	717	San Juan la Laguna	12	San Juan la Laguna	1	Enero	2023-01-25T00:00:00	2024-11-08T16:00:00	8	Radiación solar	470
32889	7	Sololá	717	San Juan la Laguna	12	San Juan la Laguna	1	Enero	2023-01-25T00:00:00	2024-11-08T17:00:00	2	Temperatura media	20.4
32890	7	Sololá	717	San Juan la Laguna	12	San Juan la Laguna	1	Enero	2023-01-25T00:00:00	2024-11-08T17:00:00	4	Temperatura máxima	22.2
32891	7	Sololá	717	San Juan la Laguna	12	San Juan la Laguna	1	Enero	2023-01-25T00:00:00	2024-11-08T17:00:00	3	Temperatura mínima	20.4
32892	7	Sololá	717	San Juan la Laguna	12	San Juan la Laguna	1	Enero	2023-01-25T00:00:00	2024-11-08T17:00:00	5	Humedad	74
32893	7	Sololá	717	San Juan la Laguna	12	San Juan la Laguna	1	Enero	2023-01-25T00:00:00	2024-11-08T17:00:00	6	Velocidad del viento	8
32894	7	Sololá	717	San Juan la Laguna	12	San Juan la Laguna	1	Enero	2023-01-25T00:00:00	2024-11-08T17:00:00	7	Dirección del viento	8.05
32895	7	Sololá	717	San Juan la Laguna	12	San Juan la Laguna	1	Enero	2023-01-25T00:00:00	2024-11-08T17:00:00	1	Precipitación	0
32896	7	Sololá	717	San Juan la Laguna	12	San Juan la Laguna	1	Enero	2023-01-25T00:00:00	2024-11-08T17:00:00	8	Radiación solar	228
32897	7	Sololá	717	San Juan la Laguna	12	San Juan la Laguna	1	Enero	2023-01-25T00:00:00	2024-11-08T18:00:00	2	Temperatura media	19.1
32898	7	Sololá	717	San Juan la Laguna	12	San Juan la Laguna	1	Enero	2023-01-25T00:00:00	2024-11-08T18:00:00	4	Temperatura máxima	20.4
32899	7	Sololá	717	San Juan la Laguna	12	San Juan la Laguna	1	Enero	2023-01-25T00:00:00	2024-11-08T18:00:00	3	Temperatura mínima	19.1
32900	7	Sololá	717	San Juan la Laguna	12	San Juan la Laguna	1	Enero	2023-01-25T00:00:00	2024-11-08T18:00:00	5	Humedad	80
32901	7	Sololá	717	San Juan la Laguna	12	San Juan la Laguna	1	Enero	2023-01-25T00:00:00	2024-11-08T18:00:00	6	Velocidad del viento	6.4
32902	7	Sololá	717	San Juan la Laguna	12	San Juan la Laguna	1	Enero	2023-01-25T00:00:00	2024-11-08T18:00:00	7	Dirección del viento	6.44
32903	7	Sololá	717	San Juan la Laguna	12	San Juan la Laguna	1	Enero	2023-01-25T00:00:00	2024-11-08T18:00:00	1	Precipitación	0
32904	7	Sololá	717	San Juan la Laguna	12	San Juan la Laguna	1	Enero	2023-01-25T00:00:00	2024-11-08T18:00:00	8	Radiación solar	30
32905	7	Sololá	717	San Juan la Laguna	12	San Juan la Laguna	1	Enero	2023-01-25T00:00:00	2024-11-08T19:00:00	2	Temperatura media	17.8
32906	7	Sololá	717	San Juan la Laguna	12	San Juan la Laguna	1	Enero	2023-01-25T00:00:00	2024-11-08T19:00:00	4	Temperatura máxima	19.1
32907	7	Sololá	717	San Juan la Laguna	12	San Juan la Laguna	1	Enero	2023-01-25T00:00:00	2024-11-08T19:00:00	3	Temperatura mínima	17.7
32908	7	Sololá	717	San Juan la Laguna	12	San Juan la Laguna	1	Enero	2023-01-25T00:00:00	2024-11-08T19:00:00	5	Humedad	83
32909	7	Sololá	717	San Juan la Laguna	12	San Juan la Laguna	1	Enero	2023-01-25T00:00:00	2024-11-08T19:00:00	6	Velocidad del viento	3.2
32910	7	Sololá	717	San Juan la Laguna	12	San Juan la Laguna	1	Enero	2023-01-25T00:00:00	2024-11-08T19:00:00	7	Dirección del viento	3.22
32911	7	Sololá	717	San Juan la Laguna	12	San Juan la Laguna	1	Enero	2023-01-25T00:00:00	2024-11-08T19:00:00	1	Precipitación	0
32912	7	Sololá	717	San Juan la Laguna	12	San Juan la Laguna	1	Enero	2023-01-25T00:00:00	2024-11-08T19:00:00	8	Radiación solar	0
32913	7	Sololá	717	San Juan la Laguna	12	San Juan la Laguna	1	Enero	2023-01-25T00:00:00	2024-11-08T20:00:00	2	Temperatura media	16.4
32914	7	Sololá	717	San Juan la Laguna	12	San Juan la Laguna	1	Enero	2023-01-25T00:00:00	2024-11-08T20:00:00	4	Temperatura máxima	17.8
32915	7	Sololá	717	San Juan la Laguna	12	San Juan la Laguna	1	Enero	2023-01-25T00:00:00	2024-11-08T20:00:00	3	Temperatura mínima	16.4
32916	7	Sololá	717	San Juan la Laguna	12	San Juan la Laguna	1	Enero	2023-01-25T00:00:00	2024-11-08T20:00:00	5	Humedad	82
32917	7	Sololá	717	San Juan la Laguna	12	San Juan la Laguna	1	Enero	2023-01-25T00:00:00	2024-11-08T20:00:00	6	Velocidad del viento	3.2
32918	7	Sololá	717	San Juan la Laguna	12	San Juan la Laguna	1	Enero	2023-01-25T00:00:00	2024-11-08T20:00:00	7	Dirección del viento	3.22
32919	7	Sololá	717	San Juan la Laguna	12	San Juan la Laguna	1	Enero	2023-01-25T00:00:00	2024-11-08T20:00:00	1	Precipitación	0
32920	7	Sololá	717	San Juan la Laguna	12	San Juan la Laguna	1	Enero	2023-01-25T00:00:00	2024-11-08T20:00:00	8	Radiación solar	0
32921	7	Sololá	717	San Juan la Laguna	12	San Juan la Laguna	1	Enero	2023-01-25T00:00:00	2024-11-08T21:00:00	2	Temperatura media	15.9
32922	7	Sololá	717	San Juan la Laguna	12	San Juan la Laguna	1	Enero	2023-01-25T00:00:00	2024-11-08T21:00:00	4	Temperatura máxima	16.4
32923	7	Sololá	717	San Juan la Laguna	12	San Juan la Laguna	1	Enero	2023-01-25T00:00:00	2024-11-08T21:00:00	3	Temperatura mínima	15.2
32924	7	Sololá	717	San Juan la Laguna	12	San Juan la Laguna	1	Enero	2023-01-25T00:00:00	2024-11-08T21:00:00	5	Humedad	68
32925	7	Sololá	717	San Juan la Laguna	12	San Juan la Laguna	1	Enero	2023-01-25T00:00:00	2024-11-08T21:00:00	6	Velocidad del viento	1.6
32926	7	Sololá	717	San Juan la Laguna	12	San Juan la Laguna	1	Enero	2023-01-25T00:00:00	2024-11-08T21:00:00	7	Dirección del viento	1.61
32927	7	Sololá	717	San Juan la Laguna	12	San Juan la Laguna	1	Enero	2023-01-25T00:00:00	2024-11-08T21:00:00	1	Precipitación	0
32928	7	Sololá	717	San Juan la Laguna	12	San Juan la Laguna	1	Enero	2023-01-25T00:00:00	2024-11-08T21:00:00	8	Radiación solar	0
32929	7	Sololá	717	San Juan la Laguna	12	San Juan la Laguna	1	Enero	2023-01-25T00:00:00	2024-11-08T22:00:00	2	Temperatura media	17
32930	7	Sololá	717	San Juan la Laguna	12	San Juan la Laguna	1	Enero	2023-01-25T00:00:00	2024-11-08T22:00:00	4	Temperatura máxima	18.4
32931	7	Sololá	717	San Juan la Laguna	12	San Juan la Laguna	1	Enero	2023-01-25T00:00:00	2024-11-08T22:00:00	3	Temperatura mínima	16
32932	7	Sololá	717	San Juan la Laguna	12	San Juan la Laguna	1	Enero	2023-01-25T00:00:00	2024-11-08T22:00:00	5	Humedad	60
32933	7	Sololá	717	San Juan la Laguna	12	San Juan la Laguna	1	Enero	2023-01-25T00:00:00	2024-11-08T22:00:00	6	Velocidad del viento	1.6
32934	7	Sololá	717	San Juan la Laguna	12	San Juan la Laguna	1	Enero	2023-01-25T00:00:00	2024-11-08T22:00:00	7	Dirección del viento	1.61
32935	7	Sololá	717	San Juan la Laguna	12	San Juan la Laguna	1	Enero	2023-01-25T00:00:00	2024-11-08T22:00:00	1	Precipitación	0
32936	7	Sololá	717	San Juan la Laguna	12	San Juan la Laguna	1	Enero	2023-01-25T00:00:00	2024-11-08T22:00:00	8	Radiación solar	0
32937	7	Sololá	717	San Juan la Laguna	12	San Juan la Laguna	1	Enero	2023-01-25T00:00:00	2024-11-08T23:00:00	2	Temperatura media	16.2
32938	7	Sololá	717	San Juan la Laguna	12	San Juan la Laguna	1	Enero	2023-01-25T00:00:00	2024-11-08T23:00:00	4	Temperatura máxima	18.8
32939	7	Sololá	717	San Juan la Laguna	12	San Juan la Laguna	1	Enero	2023-01-25T00:00:00	2024-11-08T23:00:00	3	Temperatura mínima	16.2
32940	7	Sololá	717	San Juan la Laguna	12	San Juan la Laguna	1	Enero	2023-01-25T00:00:00	2024-11-08T23:00:00	5	Humedad	64
32941	7	Sololá	717	San Juan la Laguna	12	San Juan la Laguna	1	Enero	2023-01-25T00:00:00	2024-11-08T23:00:00	6	Velocidad del viento	3.2
32942	7	Sololá	717	San Juan la Laguna	12	San Juan la Laguna	1	Enero	2023-01-25T00:00:00	2024-11-08T23:00:00	7	Dirección del viento	3.22
32943	7	Sololá	717	San Juan la Laguna	12	San Juan la Laguna	1	Enero	2023-01-25T00:00:00	2024-11-08T23:00:00	1	Precipitación	0
32944	7	Sololá	717	San Juan la Laguna	12	San Juan la Laguna	1	Enero	2023-01-25T00:00:00	2024-11-08T23:00:00	8	Radiación solar	0
32945	7	Sololá	717	San Juan la Laguna	12	San Juan la Laguna	1	Enero	2023-01-26T00:00:00	2024-11-08T00:00:00	2	Temperatura media	18.3
32946	7	Sololá	717	San Juan la Laguna	12	San Juan la Laguna	1	Enero	2023-01-26T00:00:00	2024-11-08T00:00:00	4	Temperatura máxima	18.3
32947	7	Sololá	717	San Juan la Laguna	12	San Juan la Laguna	1	Enero	2023-01-26T00:00:00	2024-11-08T00:00:00	3	Temperatura mínima	15.9
32948	7	Sololá	717	San Juan la Laguna	12	San Juan la Laguna	1	Enero	2023-01-26T00:00:00	2024-11-08T00:00:00	5	Humedad	63
32949	7	Sololá	717	San Juan la Laguna	12	San Juan la Laguna	1	Enero	2023-01-26T00:00:00	2024-11-08T00:00:00	6	Velocidad del viento	4.8
32950	7	Sololá	717	San Juan la Laguna	12	San Juan la Laguna	1	Enero	2023-01-26T00:00:00	2024-11-08T00:00:00	7	Dirección del viento	4.83
32951	7	Sololá	717	San Juan la Laguna	12	San Juan la Laguna	1	Enero	2023-01-26T00:00:00	2024-11-08T00:00:00	1	Precipitación	0
32952	7	Sololá	717	San Juan la Laguna	12	San Juan la Laguna	1	Enero	2023-01-26T00:00:00	2024-11-08T00:00:00	8	Radiación solar	0
32953	7	Sololá	717	San Juan la Laguna	12	San Juan la Laguna	1	Enero	2023-01-26T00:00:00	2024-11-08T01:00:00	2	Temperatura media	17.5
32954	7	Sololá	717	San Juan la Laguna	12	San Juan la Laguna	1	Enero	2023-01-26T00:00:00	2024-11-08T01:00:00	4	Temperatura máxima	18.3
32955	7	Sololá	717	San Juan la Laguna	12	San Juan la Laguna	1	Enero	2023-01-26T00:00:00	2024-11-08T01:00:00	3	Temperatura mínima	17.5
32956	7	Sololá	717	San Juan la Laguna	12	San Juan la Laguna	1	Enero	2023-01-26T00:00:00	2024-11-08T01:00:00	5	Humedad	68
32957	7	Sololá	717	San Juan la Laguna	12	San Juan la Laguna	1	Enero	2023-01-26T00:00:00	2024-11-08T01:00:00	6	Velocidad del viento	3.2
32958	7	Sololá	717	San Juan la Laguna	12	San Juan la Laguna	1	Enero	2023-01-26T00:00:00	2024-11-08T01:00:00	7	Dirección del viento	3.22
32959	7	Sololá	717	San Juan la Laguna	12	San Juan la Laguna	1	Enero	2023-01-26T00:00:00	2024-11-08T01:00:00	1	Precipitación	0
32960	7	Sololá	717	San Juan la Laguna	12	San Juan la Laguna	1	Enero	2023-01-26T00:00:00	2024-11-08T01:00:00	8	Radiación solar	0
32961	7	Sololá	717	San Juan la Laguna	12	San Juan la Laguna	1	Enero	2023-01-26T00:00:00	2024-11-08T02:00:00	2	Temperatura media	16.1
32962	7	Sololá	717	San Juan la Laguna	12	San Juan la Laguna	1	Enero	2023-01-26T00:00:00	2024-11-08T02:00:00	4	Temperatura máxima	17.5
32963	7	Sololá	717	San Juan la Laguna	12	San Juan la Laguna	1	Enero	2023-01-26T00:00:00	2024-11-08T02:00:00	3	Temperatura mínima	16.1
32964	7	Sololá	717	San Juan la Laguna	12	San Juan la Laguna	1	Enero	2023-01-26T00:00:00	2024-11-08T02:00:00	5	Humedad	71
32965	7	Sololá	717	San Juan la Laguna	12	San Juan la Laguna	1	Enero	2023-01-26T00:00:00	2024-11-08T02:00:00	6	Velocidad del viento	1.6
32966	7	Sololá	717	San Juan la Laguna	12	San Juan la Laguna	1	Enero	2023-01-26T00:00:00	2024-11-08T02:00:00	7	Dirección del viento	1.61
32967	7	Sololá	717	San Juan la Laguna	12	San Juan la Laguna	1	Enero	2023-01-26T00:00:00	2024-11-08T02:00:00	1	Precipitación	0
32968	7	Sololá	717	San Juan la Laguna	12	San Juan la Laguna	1	Enero	2023-01-26T00:00:00	2024-11-08T02:00:00	8	Radiación solar	0
32969	7	Sololá	717	San Juan la Laguna	12	San Juan la Laguna	1	Enero	2023-01-26T00:00:00	2024-11-08T03:00:00	2	Temperatura media	15.3
32970	7	Sololá	717	San Juan la Laguna	12	San Juan la Laguna	1	Enero	2023-01-26T00:00:00	2024-11-08T03:00:00	4	Temperatura máxima	16
32971	7	Sololá	717	San Juan la Laguna	12	San Juan la Laguna	1	Enero	2023-01-26T00:00:00	2024-11-08T03:00:00	3	Temperatura mínima	14.1
32972	7	Sololá	717	San Juan la Laguna	12	San Juan la Laguna	1	Enero	2023-01-26T00:00:00	2024-11-08T03:00:00	5	Humedad	75
32973	7	Sololá	717	San Juan la Laguna	12	San Juan la Laguna	1	Enero	2023-01-26T00:00:00	2024-11-08T03:00:00	6	Velocidad del viento	1.6
32974	7	Sololá	717	San Juan la Laguna	12	San Juan la Laguna	1	Enero	2023-01-26T00:00:00	2024-11-08T03:00:00	7	Dirección del viento	1.61
32975	7	Sololá	717	San Juan la Laguna	12	San Juan la Laguna	1	Enero	2023-01-26T00:00:00	2024-11-08T03:00:00	1	Precipitación	0
32976	7	Sololá	717	San Juan la Laguna	12	San Juan la Laguna	1	Enero	2023-01-26T00:00:00	2024-11-08T03:00:00	8	Radiación solar	0
32977	7	Sololá	717	San Juan la Laguna	12	San Juan la Laguna	1	Enero	2023-01-26T00:00:00	2024-11-08T04:00:00	2	Temperatura media	15.9
32978	7	Sololá	717	San Juan la Laguna	12	San Juan la Laguna	1	Enero	2023-01-26T00:00:00	2024-11-08T04:00:00	4	Temperatura máxima	16.1
32979	7	Sololá	717	San Juan la Laguna	12	San Juan la Laguna	1	Enero	2023-01-26T00:00:00	2024-11-08T04:00:00	3	Temperatura mínima	14.9
32980	7	Sololá	717	San Juan la Laguna	12	San Juan la Laguna	1	Enero	2023-01-26T00:00:00	2024-11-08T04:00:00	5	Humedad	71
32981	7	Sololá	717	San Juan la Laguna	12	San Juan la Laguna	1	Enero	2023-01-26T00:00:00	2024-11-08T04:00:00	6	Velocidad del viento	3.2
32982	7	Sololá	717	San Juan la Laguna	12	San Juan la Laguna	1	Enero	2023-01-26T00:00:00	2024-11-08T04:00:00	7	Dirección del viento	3.22
32983	7	Sololá	717	San Juan la Laguna	12	San Juan la Laguna	1	Enero	2023-01-26T00:00:00	2024-11-08T04:00:00	1	Precipitación	0
32984	7	Sololá	717	San Juan la Laguna	12	San Juan la Laguna	1	Enero	2023-01-26T00:00:00	2024-11-08T04:00:00	8	Radiación solar	0
32985	7	Sololá	717	San Juan la Laguna	12	San Juan la Laguna	1	Enero	2023-01-26T00:00:00	2024-11-08T05:00:00	2	Temperatura media	16.7
32986	7	Sololá	717	San Juan la Laguna	12	San Juan la Laguna	1	Enero	2023-01-26T00:00:00	2024-11-08T05:00:00	4	Temperatura máxima	17.3
32987	7	Sololá	717	San Juan la Laguna	12	San Juan la Laguna	1	Enero	2023-01-26T00:00:00	2024-11-08T05:00:00	3	Temperatura mínima	15.8
32988	7	Sololá	717	San Juan la Laguna	12	San Juan la Laguna	1	Enero	2023-01-26T00:00:00	2024-11-08T05:00:00	5	Humedad	69
32989	7	Sololá	717	San Juan la Laguna	12	San Juan la Laguna	1	Enero	2023-01-26T00:00:00	2024-11-08T05:00:00	6	Velocidad del viento	3.2
32990	7	Sololá	717	San Juan la Laguna	12	San Juan la Laguna	1	Enero	2023-01-26T00:00:00	2024-11-08T05:00:00	7	Dirección del viento	3.22
32991	7	Sololá	717	San Juan la Laguna	12	San Juan la Laguna	1	Enero	2023-01-26T00:00:00	2024-11-08T05:00:00	1	Precipitación	0
32992	7	Sololá	717	San Juan la Laguna	12	San Juan la Laguna	1	Enero	2023-01-26T00:00:00	2024-11-08T05:00:00	8	Radiación solar	0
32993	7	Sololá	717	San Juan la Laguna	12	San Juan la Laguna	1	Enero	2023-01-26T00:00:00	2024-11-08T06:00:00	2	Temperatura media	14.2
32994	7	Sololá	717	San Juan la Laguna	12	San Juan la Laguna	1	Enero	2023-01-26T00:00:00	2024-11-08T06:00:00	4	Temperatura máxima	16.7
32995	7	Sololá	717	San Juan la Laguna	12	San Juan la Laguna	1	Enero	2023-01-26T00:00:00	2024-11-08T06:00:00	3	Temperatura mínima	14.2
32996	7	Sololá	717	San Juan la Laguna	12	San Juan la Laguna	1	Enero	2023-01-26T00:00:00	2024-11-08T06:00:00	5	Humedad	72
32997	7	Sololá	717	San Juan la Laguna	12	San Juan la Laguna	1	Enero	2023-01-26T00:00:00	2024-11-08T06:00:00	6	Velocidad del viento	3.2
32998	7	Sololá	717	San Juan la Laguna	12	San Juan la Laguna	1	Enero	2023-01-26T00:00:00	2024-11-08T06:00:00	7	Dirección del viento	3.22
32999	7	Sololá	717	San Juan la Laguna	12	San Juan la Laguna	1	Enero	2023-01-26T00:00:00	2024-11-08T06:00:00	1	Precipitación	0
33000	7	Sololá	717	San Juan la Laguna	12	San Juan la Laguna	1	Enero	2023-01-26T00:00:00	2024-11-08T06:00:00	8	Radiación solar	0
33001	7	Sololá	717	San Juan la Laguna	12	San Juan la Laguna	1	Enero	2023-01-26T00:00:00	2024-11-08T07:00:00	2	Temperatura media	13.6
33002	7	Sololá	717	San Juan la Laguna	12	San Juan la Laguna	1	Enero	2023-01-26T00:00:00	2024-11-08T07:00:00	4	Temperatura máxima	14.2
33003	7	Sololá	717	San Juan la Laguna	12	San Juan la Laguna	1	Enero	2023-01-26T00:00:00	2024-11-08T07:00:00	3	Temperatura mínima	13.5
33004	7	Sololá	717	San Juan la Laguna	12	San Juan la Laguna	1	Enero	2023-01-26T00:00:00	2024-11-08T07:00:00	5	Humedad	75
33005	7	Sololá	717	San Juan la Laguna	12	San Juan la Laguna	1	Enero	2023-01-26T00:00:00	2024-11-08T07:00:00	6	Velocidad del viento	3.2
33006	7	Sololá	717	San Juan la Laguna	12	San Juan la Laguna	1	Enero	2023-01-26T00:00:00	2024-11-08T07:00:00	7	Dirección del viento	3.22
33007	7	Sololá	717	San Juan la Laguna	12	San Juan la Laguna	1	Enero	2023-01-26T00:00:00	2024-11-08T07:00:00	1	Precipitación	0
33008	7	Sololá	717	San Juan la Laguna	12	San Juan la Laguna	1	Enero	2023-01-26T00:00:00	2024-11-08T07:00:00	8	Radiación solar	5
33009	7	Sololá	717	San Juan la Laguna	12	San Juan la Laguna	1	Enero	2023-01-26T00:00:00	2024-11-08T08:00:00	2	Temperatura media	16.4
33010	7	Sololá	717	San Juan la Laguna	12	San Juan la Laguna	1	Enero	2023-01-26T00:00:00	2024-11-08T08:00:00	4	Temperatura máxima	16.4
33011	7	Sololá	717	San Juan la Laguna	12	San Juan la Laguna	1	Enero	2023-01-26T00:00:00	2024-11-08T08:00:00	3	Temperatura mínima	13.6
33012	7	Sololá	717	San Juan la Laguna	12	San Juan la Laguna	1	Enero	2023-01-26T00:00:00	2024-11-08T08:00:00	5	Humedad	71
33013	7	Sololá	717	San Juan la Laguna	12	San Juan la Laguna	1	Enero	2023-01-26T00:00:00	2024-11-08T08:00:00	6	Velocidad del viento	3.2
33014	7	Sololá	717	San Juan la Laguna	12	San Juan la Laguna	1	Enero	2023-01-26T00:00:00	2024-11-08T08:00:00	7	Dirección del viento	3.22
33015	7	Sololá	717	San Juan la Laguna	12	San Juan la Laguna	1	Enero	2023-01-26T00:00:00	2024-11-08T08:00:00	1	Precipitación	0
33016	7	Sololá	717	San Juan la Laguna	12	San Juan la Laguna	1	Enero	2023-01-26T00:00:00	2024-11-08T08:00:00	8	Radiación solar	117
33017	7	Sololá	717	San Juan la Laguna	12	San Juan la Laguna	1	Enero	2023-01-26T00:00:00	2024-11-08T09:00:00	2	Temperatura media	21.1
33018	7	Sololá	717	San Juan la Laguna	12	San Juan la Laguna	1	Enero	2023-01-26T00:00:00	2024-11-08T09:00:00	4	Temperatura máxima	21.1
33019	7	Sololá	717	San Juan la Laguna	12	San Juan la Laguna	1	Enero	2023-01-26T00:00:00	2024-11-08T09:00:00	3	Temperatura mínima	16.4
33020	7	Sololá	717	San Juan la Laguna	12	San Juan la Laguna	1	Enero	2023-01-26T00:00:00	2024-11-08T09:00:00	5	Humedad	60
33021	7	Sololá	717	San Juan la Laguna	12	San Juan la Laguna	1	Enero	2023-01-26T00:00:00	2024-11-08T09:00:00	6	Velocidad del viento	3.2
33022	7	Sololá	717	San Juan la Laguna	12	San Juan la Laguna	1	Enero	2023-01-26T00:00:00	2024-11-08T09:00:00	7	Dirección del viento	3.22
33023	7	Sololá	717	San Juan la Laguna	12	San Juan la Laguna	1	Enero	2023-01-26T00:00:00	2024-11-08T09:00:00	1	Precipitación	0
33024	7	Sololá	717	San Juan la Laguna	12	San Juan la Laguna	1	Enero	2023-01-26T00:00:00	2024-11-08T09:00:00	8	Radiación solar	345
33025	7	Sololá	717	San Juan la Laguna	12	San Juan la Laguna	1	Enero	2023-01-26T00:00:00	2024-11-08T10:00:00	2	Temperatura media	22.4
33026	7	Sololá	717	San Juan la Laguna	12	San Juan la Laguna	1	Enero	2023-01-26T00:00:00	2024-11-08T10:00:00	4	Temperatura máxima	22.4
33027	7	Sololá	717	San Juan la Laguna	12	San Juan la Laguna	1	Enero	2023-01-26T00:00:00	2024-11-08T10:00:00	3	Temperatura mínima	21.1
33028	7	Sololá	717	San Juan la Laguna	12	San Juan la Laguna	1	Enero	2023-01-26T00:00:00	2024-11-08T10:00:00	5	Humedad	52
33029	7	Sololá	717	San Juan la Laguna	12	San Juan la Laguna	1	Enero	2023-01-26T00:00:00	2024-11-08T10:00:00	6	Velocidad del viento	9.7
33030	7	Sololá	717	San Juan la Laguna	12	San Juan la Laguna	1	Enero	2023-01-26T00:00:00	2024-11-08T10:00:00	7	Dirección del viento	9.66
33031	7	Sololá	717	San Juan la Laguna	12	San Juan la Laguna	1	Enero	2023-01-26T00:00:00	2024-11-08T10:00:00	1	Precipitación	0
33032	7	Sololá	717	San Juan la Laguna	12	San Juan la Laguna	1	Enero	2023-01-26T00:00:00	2024-11-08T10:00:00	8	Radiación solar	541
33033	7	Sololá	717	San Juan la Laguna	12	San Juan la Laguna	1	Enero	2023-01-26T00:00:00	2024-11-08T11:00:00	2	Temperatura media	24.8
33034	7	Sololá	717	San Juan la Laguna	12	San Juan la Laguna	1	Enero	2023-01-26T00:00:00	2024-11-08T11:00:00	4	Temperatura máxima	24.8
33035	7	Sololá	717	San Juan la Laguna	12	San Juan la Laguna	1	Enero	2023-01-26T00:00:00	2024-11-08T11:00:00	3	Temperatura mínima	22.4
33036	7	Sololá	717	San Juan la Laguna	12	San Juan la Laguna	1	Enero	2023-01-26T00:00:00	2024-11-08T11:00:00	5	Humedad	47
33037	7	Sololá	717	San Juan la Laguna	12	San Juan la Laguna	1	Enero	2023-01-26T00:00:00	2024-11-08T11:00:00	6	Velocidad del viento	8
33038	7	Sololá	717	San Juan la Laguna	12	San Juan la Laguna	1	Enero	2023-01-26T00:00:00	2024-11-08T11:00:00	7	Dirección del viento	8.05
33039	7	Sololá	717	San Juan la Laguna	12	San Juan la Laguna	1	Enero	2023-01-26T00:00:00	2024-11-08T11:00:00	1	Precipitación	0
33040	7	Sololá	717	San Juan la Laguna	12	San Juan la Laguna	1	Enero	2023-01-26T00:00:00	2024-11-08T11:00:00	8	Radiación solar	672
33041	7	Sololá	717	San Juan la Laguna	12	San Juan la Laguna	1	Enero	2023-01-26T00:00:00	2024-11-08T12:00:00	2	Temperatura media	24.6
33042	7	Sololá	717	San Juan la Laguna	12	San Juan la Laguna	1	Enero	2023-01-26T00:00:00	2024-11-08T12:00:00	4	Temperatura máxima	24.8
33043	7	Sololá	717	San Juan la Laguna	12	San Juan la Laguna	1	Enero	2023-01-26T00:00:00	2024-11-08T12:00:00	3	Temperatura mínima	24.3
33044	7	Sololá	717	San Juan la Laguna	12	San Juan la Laguna	1	Enero	2023-01-26T00:00:00	2024-11-08T12:00:00	5	Humedad	44
33045	7	Sololá	717	San Juan la Laguna	12	San Juan la Laguna	1	Enero	2023-01-26T00:00:00	2024-11-08T12:00:00	6	Velocidad del viento	11.3
33046	7	Sololá	717	San Juan la Laguna	12	San Juan la Laguna	1	Enero	2023-01-26T00:00:00	2024-11-08T12:00:00	7	Dirección del viento	11.27
33047	7	Sololá	717	San Juan la Laguna	12	San Juan la Laguna	1	Enero	2023-01-26T00:00:00	2024-11-08T12:00:00	1	Precipitación	0
33048	7	Sololá	717	San Juan la Laguna	12	San Juan la Laguna	1	Enero	2023-01-26T00:00:00	2024-11-08T12:00:00	8	Radiación solar	690
33049	7	Sololá	717	San Juan la Laguna	12	San Juan la Laguna	1	Enero	2023-01-26T00:00:00	2024-11-08T13:00:00	2	Temperatura media	25.6
33050	7	Sololá	717	San Juan la Laguna	12	San Juan la Laguna	1	Enero	2023-01-26T00:00:00	2024-11-08T13:00:00	4	Temperatura máxima	25.6
33051	7	Sololá	717	San Juan la Laguna	12	San Juan la Laguna	1	Enero	2023-01-26T00:00:00	2024-11-08T13:00:00	3	Temperatura mínima	24.3
33052	7	Sololá	717	San Juan la Laguna	12	San Juan la Laguna	1	Enero	2023-01-26T00:00:00	2024-11-08T13:00:00	5	Humedad	43
33053	7	Sololá	717	San Juan la Laguna	12	San Juan la Laguna	1	Enero	2023-01-26T00:00:00	2024-11-08T13:00:00	6	Velocidad del viento	8
33054	7	Sololá	717	San Juan la Laguna	12	San Juan la Laguna	1	Enero	2023-01-26T00:00:00	2024-11-08T13:00:00	7	Dirección del viento	8.05
33055	7	Sololá	717	San Juan la Laguna	12	San Juan la Laguna	1	Enero	2023-01-26T00:00:00	2024-11-08T13:00:00	1	Precipitación	0
33056	7	Sololá	717	San Juan la Laguna	12	San Juan la Laguna	1	Enero	2023-01-26T00:00:00	2024-11-08T13:00:00	8	Radiación solar	794
33057	7	Sololá	717	San Juan la Laguna	12	San Juan la Laguna	1	Enero	2023-01-26T00:00:00	2024-11-08T14:00:00	2	Temperatura media	25
33058	7	Sololá	717	San Juan la Laguna	12	San Juan la Laguna	1	Enero	2023-01-26T00:00:00	2024-11-08T14:00:00	4	Temperatura máxima	25.7
33059	7	Sololá	717	San Juan la Laguna	12	San Juan la Laguna	1	Enero	2023-01-26T00:00:00	2024-11-08T14:00:00	3	Temperatura mínima	24.7
33060	7	Sololá	717	San Juan la Laguna	12	San Juan la Laguna	1	Enero	2023-01-26T00:00:00	2024-11-08T14:00:00	5	Humedad	43
33061	7	Sololá	717	San Juan la Laguna	12	San Juan la Laguna	1	Enero	2023-01-26T00:00:00	2024-11-08T14:00:00	6	Velocidad del viento	9.7
33062	7	Sololá	717	San Juan la Laguna	12	San Juan la Laguna	1	Enero	2023-01-26T00:00:00	2024-11-08T14:00:00	7	Dirección del viento	9.66
33063	7	Sololá	717	San Juan la Laguna	12	San Juan la Laguna	1	Enero	2023-01-26T00:00:00	2024-11-08T14:00:00	1	Precipitación	0
33064	7	Sololá	717	San Juan la Laguna	12	San Juan la Laguna	1	Enero	2023-01-26T00:00:00	2024-11-08T14:00:00	8	Radiación solar	749
33065	7	Sololá	717	San Juan la Laguna	12	San Juan la Laguna	1	Enero	2023-01-26T00:00:00	2024-11-08T15:00:00	2	Temperatura media	24.4
33066	7	Sololá	717	San Juan la Laguna	12	San Juan la Laguna	1	Enero	2023-01-26T00:00:00	2024-11-08T15:00:00	4	Temperatura máxima	25.3
33067	7	Sololá	717	San Juan la Laguna	12	San Juan la Laguna	1	Enero	2023-01-26T00:00:00	2024-11-08T15:00:00	3	Temperatura mínima	24.1
33068	7	Sololá	717	San Juan la Laguna	12	San Juan la Laguna	1	Enero	2023-01-26T00:00:00	2024-11-08T15:00:00	5	Humedad	45
33069	7	Sololá	717	San Juan la Laguna	12	San Juan la Laguna	1	Enero	2023-01-26T00:00:00	2024-11-08T15:00:00	6	Velocidad del viento	8
33070	7	Sololá	717	San Juan la Laguna	12	San Juan la Laguna	1	Enero	2023-01-26T00:00:00	2024-11-08T15:00:00	7	Dirección del viento	8.05
33071	7	Sololá	717	San Juan la Laguna	12	San Juan la Laguna	1	Enero	2023-01-26T00:00:00	2024-11-08T15:00:00	1	Precipitación	0
33072	7	Sololá	717	San Juan la Laguna	12	San Juan la Laguna	1	Enero	2023-01-26T00:00:00	2024-11-08T15:00:00	8	Radiación solar	576
33073	7	Sololá	717	San Juan la Laguna	12	San Juan la Laguna	1	Enero	2023-01-26T00:00:00	2024-11-08T16:00:00	2	Temperatura media	24
33074	7	Sololá	717	San Juan la Laguna	12	San Juan la Laguna	1	Enero	2023-01-26T00:00:00	2024-11-08T16:00:00	4	Temperatura máxima	25.1
33075	7	Sololá	717	San Juan la Laguna	12	San Juan la Laguna	1	Enero	2023-01-26T00:00:00	2024-11-08T16:00:00	3	Temperatura mínima	24
33076	7	Sololá	717	San Juan la Laguna	12	San Juan la Laguna	1	Enero	2023-01-26T00:00:00	2024-11-08T16:00:00	5	Humedad	48
33077	7	Sololá	717	San Juan la Laguna	12	San Juan la Laguna	1	Enero	2023-01-26T00:00:00	2024-11-08T16:00:00	6	Velocidad del viento	6.4
33078	7	Sololá	717	San Juan la Laguna	12	San Juan la Laguna	1	Enero	2023-01-26T00:00:00	2024-11-08T16:00:00	7	Dirección del viento	6.44
33079	7	Sololá	717	San Juan la Laguna	12	San Juan la Laguna	1	Enero	2023-01-26T00:00:00	2024-11-08T16:00:00	1	Precipitación	0
33080	7	Sololá	717	San Juan la Laguna	12	San Juan la Laguna	1	Enero	2023-01-26T00:00:00	2024-11-08T16:00:00	8	Radiación solar	505
33081	7	Sololá	717	San Juan la Laguna	12	San Juan la Laguna	1	Enero	2023-01-26T00:00:00	2024-11-08T17:00:00	2	Temperatura media	21.2
33082	7	Sololá	717	San Juan la Laguna	12	San Juan la Laguna	1	Enero	2023-01-26T00:00:00	2024-11-08T17:00:00	4	Temperatura máxima	24
33083	7	Sololá	717	San Juan la Laguna	12	San Juan la Laguna	1	Enero	2023-01-26T00:00:00	2024-11-08T17:00:00	3	Temperatura mínima	21.2
33084	7	Sololá	717	San Juan la Laguna	12	San Juan la Laguna	1	Enero	2023-01-26T00:00:00	2024-11-08T17:00:00	5	Humedad	55
33085	7	Sololá	717	San Juan la Laguna	12	San Juan la Laguna	1	Enero	2023-01-26T00:00:00	2024-11-08T17:00:00	6	Velocidad del viento	11.3
33086	7	Sololá	717	San Juan la Laguna	12	San Juan la Laguna	1	Enero	2023-01-26T00:00:00	2024-11-08T17:00:00	7	Dirección del viento	11.27
33087	7	Sololá	717	San Juan la Laguna	12	San Juan la Laguna	1	Enero	2023-01-26T00:00:00	2024-11-08T17:00:00	1	Precipitación	0
33088	7	Sololá	717	San Juan la Laguna	12	San Juan la Laguna	1	Enero	2023-01-26T00:00:00	2024-11-08T17:00:00	8	Radiación solar	185
33089	7	Sololá	717	San Juan la Laguna	12	San Juan la Laguna	1	Enero	2023-01-26T00:00:00	2024-11-08T18:00:00	2	Temperatura media	20.2
33090	7	Sololá	717	San Juan la Laguna	12	San Juan la Laguna	1	Enero	2023-01-26T00:00:00	2024-11-08T18:00:00	4	Temperatura máxima	21.2
33091	7	Sololá	717	San Juan la Laguna	12	San Juan la Laguna	1	Enero	2023-01-26T00:00:00	2024-11-08T18:00:00	3	Temperatura mínima	20.2
33092	7	Sololá	717	San Juan la Laguna	12	San Juan la Laguna	1	Enero	2023-01-26T00:00:00	2024-11-08T18:00:00	5	Humedad	55
33093	7	Sololá	717	San Juan la Laguna	12	San Juan la Laguna	1	Enero	2023-01-26T00:00:00	2024-11-08T18:00:00	6	Velocidad del viento	14.5
33094	7	Sololá	717	San Juan la Laguna	12	San Juan la Laguna	1	Enero	2023-01-26T00:00:00	2024-11-08T18:00:00	7	Dirección del viento	14.48
33095	7	Sololá	717	San Juan la Laguna	12	San Juan la Laguna	1	Enero	2023-01-26T00:00:00	2024-11-08T18:00:00	1	Precipitación	0
33096	7	Sololá	717	San Juan la Laguna	12	San Juan la Laguna	1	Enero	2023-01-26T00:00:00	2024-11-08T18:00:00	8	Radiación solar	20
33097	7	Sololá	717	San Juan la Laguna	12	San Juan la Laguna	1	Enero	2023-01-26T00:00:00	2024-11-08T19:00:00	2	Temperatura media	19.9
33098	7	Sololá	717	San Juan la Laguna	12	San Juan la Laguna	1	Enero	2023-01-26T00:00:00	2024-11-08T19:00:00	4	Temperatura máxima	20.2
33099	7	Sololá	717	San Juan la Laguna	12	San Juan la Laguna	1	Enero	2023-01-26T00:00:00	2024-11-08T19:00:00	3	Temperatura mínima	19.8
33100	7	Sololá	717	San Juan la Laguna	12	San Juan la Laguna	1	Enero	2023-01-26T00:00:00	2024-11-08T19:00:00	5	Humedad	55
33101	7	Sololá	717	San Juan la Laguna	12	San Juan la Laguna	1	Enero	2023-01-26T00:00:00	2024-11-08T19:00:00	6	Velocidad del viento	11.3
33102	7	Sololá	717	San Juan la Laguna	12	San Juan la Laguna	1	Enero	2023-01-26T00:00:00	2024-11-08T19:00:00	7	Dirección del viento	11.27
33103	7	Sololá	717	San Juan la Laguna	12	San Juan la Laguna	1	Enero	2023-01-26T00:00:00	2024-11-08T19:00:00	1	Precipitación	0
33104	7	Sololá	717	San Juan la Laguna	12	San Juan la Laguna	1	Enero	2023-01-26T00:00:00	2024-11-08T19:00:00	8	Radiación solar	0
33105	7	Sololá	717	San Juan la Laguna	12	San Juan la Laguna	1	Enero	2023-01-26T00:00:00	2024-11-08T20:00:00	2	Temperatura media	19.4
33106	7	Sololá	717	San Juan la Laguna	12	San Juan la Laguna	1	Enero	2023-01-26T00:00:00	2024-11-08T20:00:00	4	Temperatura máxima	19.9
33107	7	Sololá	717	San Juan la Laguna	12	San Juan la Laguna	1	Enero	2023-01-26T00:00:00	2024-11-08T20:00:00	3	Temperatura mínima	19.2
33108	7	Sololá	717	San Juan la Laguna	12	San Juan la Laguna	1	Enero	2023-01-26T00:00:00	2024-11-08T20:00:00	5	Humedad	57
33109	7	Sololá	717	San Juan la Laguna	12	San Juan la Laguna	1	Enero	2023-01-26T00:00:00	2024-11-08T20:00:00	6	Velocidad del viento	16.1
33110	7	Sololá	717	San Juan la Laguna	12	San Juan la Laguna	1	Enero	2023-01-26T00:00:00	2024-11-08T20:00:00	7	Dirección del viento	16.09
33111	7	Sololá	717	San Juan la Laguna	12	San Juan la Laguna	1	Enero	2023-01-26T00:00:00	2024-11-08T20:00:00	1	Precipitación	0
33112	7	Sololá	717	San Juan la Laguna	12	San Juan la Laguna	1	Enero	2023-01-26T00:00:00	2024-11-08T20:00:00	8	Radiación solar	0
33113	7	Sololá	717	San Juan la Laguna	12	San Juan la Laguna	1	Enero	2023-01-26T00:00:00	2024-11-08T21:00:00	2	Temperatura media	18.7
33114	7	Sololá	717	San Juan la Laguna	12	San Juan la Laguna	1	Enero	2023-01-26T00:00:00	2024-11-08T21:00:00	4	Temperatura máxima	19.4
33115	7	Sololá	717	San Juan la Laguna	12	San Juan la Laguna	1	Enero	2023-01-26T00:00:00	2024-11-08T21:00:00	3	Temperatura mínima	18.6
33116	7	Sololá	717	San Juan la Laguna	12	San Juan la Laguna	1	Enero	2023-01-26T00:00:00	2024-11-08T21:00:00	5	Humedad	57
33117	7	Sololá	717	San Juan la Laguna	12	San Juan la Laguna	1	Enero	2023-01-26T00:00:00	2024-11-08T21:00:00	6	Velocidad del viento	14.5
33118	7	Sololá	717	San Juan la Laguna	12	San Juan la Laguna	1	Enero	2023-01-26T00:00:00	2024-11-08T21:00:00	7	Dirección del viento	14.48
33119	7	Sololá	717	San Juan la Laguna	12	San Juan la Laguna	1	Enero	2023-01-26T00:00:00	2024-11-08T21:00:00	1	Precipitación	0
33120	7	Sololá	717	San Juan la Laguna	12	San Juan la Laguna	1	Enero	2023-01-26T00:00:00	2024-11-08T21:00:00	8	Radiación solar	0
33121	7	Sololá	717	San Juan la Laguna	12	San Juan la Laguna	1	Enero	2023-01-26T00:00:00	2024-11-08T22:00:00	2	Temperatura media	18.1
33122	7	Sololá	717	San Juan la Laguna	12	San Juan la Laguna	1	Enero	2023-01-26T00:00:00	2024-11-08T22:00:00	4	Temperatura máxima	18.7
33123	7	Sololá	717	San Juan la Laguna	12	San Juan la Laguna	1	Enero	2023-01-26T00:00:00	2024-11-08T22:00:00	3	Temperatura mínima	18.1
33124	7	Sololá	717	San Juan la Laguna	12	San Juan la Laguna	1	Enero	2023-01-26T00:00:00	2024-11-08T22:00:00	5	Humedad	64
33125	7	Sololá	717	San Juan la Laguna	12	San Juan la Laguna	1	Enero	2023-01-26T00:00:00	2024-11-08T22:00:00	6	Velocidad del viento	14.5
33126	7	Sololá	717	San Juan la Laguna	12	San Juan la Laguna	1	Enero	2023-01-26T00:00:00	2024-11-08T22:00:00	7	Dirección del viento	14.48
33127	7	Sololá	717	San Juan la Laguna	12	San Juan la Laguna	1	Enero	2023-01-26T00:00:00	2024-11-08T22:00:00	1	Precipitación	0
33128	7	Sololá	717	San Juan la Laguna	12	San Juan la Laguna	1	Enero	2023-01-26T00:00:00	2024-11-08T22:00:00	8	Radiación solar	0
33129	7	Sololá	717	San Juan la Laguna	12	San Juan la Laguna	1	Enero	2023-01-26T00:00:00	2024-11-08T23:00:00	2	Temperatura media	17.8
33130	7	Sololá	717	San Juan la Laguna	12	San Juan la Laguna	1	Enero	2023-01-26T00:00:00	2024-11-08T23:00:00	4	Temperatura máxima	18.1
33131	7	Sololá	717	San Juan la Laguna	12	San Juan la Laguna	1	Enero	2023-01-26T00:00:00	2024-11-08T23:00:00	3	Temperatura mínima	17.8
33132	7	Sololá	717	San Juan la Laguna	12	San Juan la Laguna	1	Enero	2023-01-26T00:00:00	2024-11-08T23:00:00	5	Humedad	63
33133	7	Sololá	717	San Juan la Laguna	12	San Juan la Laguna	1	Enero	2023-01-26T00:00:00	2024-11-08T23:00:00	6	Velocidad del viento	14.5
33134	7	Sololá	717	San Juan la Laguna	12	San Juan la Laguna	1	Enero	2023-01-26T00:00:00	2024-11-08T23:00:00	7	Dirección del viento	14.48
33135	7	Sololá	717	San Juan la Laguna	12	San Juan la Laguna	1	Enero	2023-01-26T00:00:00	2024-11-08T23:00:00	1	Precipitación	0
33136	7	Sololá	717	San Juan la Laguna	12	San Juan la Laguna	1	Enero	2023-01-26T00:00:00	2024-11-08T23:00:00	8	Radiación solar	0
33137	7	Sololá	717	San Juan la Laguna	12	San Juan la Laguna	1	Enero	2023-01-27T00:00:00	2024-11-08T00:00:00	2	Temperatura media	18
33138	7	Sololá	717	San Juan la Laguna	12	San Juan la Laguna	1	Enero	2023-01-27T00:00:00	2024-11-08T00:00:00	4	Temperatura máxima	18.2
33139	7	Sololá	717	San Juan la Laguna	12	San Juan la Laguna	1	Enero	2023-01-27T00:00:00	2024-11-08T00:00:00	3	Temperatura mínima	17.8
33140	7	Sololá	717	San Juan la Laguna	12	San Juan la Laguna	1	Enero	2023-01-27T00:00:00	2024-11-08T00:00:00	5	Humedad	65
33141	7	Sololá	717	San Juan la Laguna	12	San Juan la Laguna	1	Enero	2023-01-27T00:00:00	2024-11-08T00:00:00	6	Velocidad del viento	19.3
33142	7	Sololá	717	San Juan la Laguna	12	San Juan la Laguna	1	Enero	2023-01-27T00:00:00	2024-11-08T00:00:00	7	Dirección del viento	19.31
33143	7	Sololá	717	San Juan la Laguna	12	San Juan la Laguna	1	Enero	2023-01-27T00:00:00	2024-11-08T00:00:00	1	Precipitación	0
33144	7	Sololá	717	San Juan la Laguna	12	San Juan la Laguna	1	Enero	2023-01-27T00:00:00	2024-11-08T00:00:00	8	Radiación solar	0
33145	7	Sololá	717	San Juan la Laguna	12	San Juan la Laguna	1	Enero	2023-01-27T00:00:00	2024-11-08T01:00:00	2	Temperatura media	18.2
33146	7	Sololá	717	San Juan la Laguna	12	San Juan la Laguna	1	Enero	2023-01-27T00:00:00	2024-11-08T01:00:00	4	Temperatura máxima	18.2
33147	7	Sololá	717	San Juan la Laguna	12	San Juan la Laguna	1	Enero	2023-01-27T00:00:00	2024-11-08T01:00:00	3	Temperatura mínima	17.8
33148	7	Sololá	717	San Juan la Laguna	12	San Juan la Laguna	1	Enero	2023-01-27T00:00:00	2024-11-08T01:00:00	5	Humedad	63
33149	7	Sololá	717	San Juan la Laguna	12	San Juan la Laguna	1	Enero	2023-01-27T00:00:00	2024-11-08T01:00:00	6	Velocidad del viento	14.5
33150	7	Sololá	717	San Juan la Laguna	12	San Juan la Laguna	1	Enero	2023-01-27T00:00:00	2024-11-08T01:00:00	7	Dirección del viento	14.48
33151	7	Sololá	717	San Juan la Laguna	12	San Juan la Laguna	1	Enero	2023-01-27T00:00:00	2024-11-08T01:00:00	1	Precipitación	0
33152	7	Sololá	717	San Juan la Laguna	12	San Juan la Laguna	1	Enero	2023-01-27T00:00:00	2024-11-08T01:00:00	8	Radiación solar	0
33153	7	Sololá	717	San Juan la Laguna	12	San Juan la Laguna	1	Enero	2023-01-27T00:00:00	2024-11-08T02:00:00	2	Temperatura media	18.7
33154	7	Sololá	717	San Juan la Laguna	12	San Juan la Laguna	1	Enero	2023-01-27T00:00:00	2024-11-08T02:00:00	4	Temperatura máxima	18.8
33155	7	Sololá	717	San Juan la Laguna	12	San Juan la Laguna	1	Enero	2023-01-27T00:00:00	2024-11-08T02:00:00	3	Temperatura mínima	18.2
33156	7	Sololá	717	San Juan la Laguna	12	San Juan la Laguna	1	Enero	2023-01-27T00:00:00	2024-11-08T02:00:00	5	Humedad	63
33157	7	Sololá	717	San Juan la Laguna	12	San Juan la Laguna	1	Enero	2023-01-27T00:00:00	2024-11-08T02:00:00	6	Velocidad del viento	12.9
33158	7	Sololá	717	San Juan la Laguna	12	San Juan la Laguna	1	Enero	2023-01-27T00:00:00	2024-11-08T02:00:00	7	Dirección del viento	12.87
33159	7	Sololá	717	San Juan la Laguna	12	San Juan la Laguna	1	Enero	2023-01-27T00:00:00	2024-11-08T02:00:00	1	Precipitación	0
33160	7	Sololá	717	San Juan la Laguna	12	San Juan la Laguna	1	Enero	2023-01-27T00:00:00	2024-11-08T02:00:00	8	Radiación solar	0
33161	7	Sololá	717	San Juan la Laguna	12	San Juan la Laguna	1	Enero	2023-01-27T00:00:00	2024-11-08T03:00:00	2	Temperatura media	18.1
33162	7	Sololá	717	San Juan la Laguna	12	San Juan la Laguna	1	Enero	2023-01-27T00:00:00	2024-11-08T03:00:00	4	Temperatura máxima	18.7
33163	7	Sololá	717	San Juan la Laguna	12	San Juan la Laguna	1	Enero	2023-01-27T00:00:00	2024-11-08T03:00:00	3	Temperatura mínima	17.9
33164	7	Sololá	717	San Juan la Laguna	12	San Juan la Laguna	1	Enero	2023-01-27T00:00:00	2024-11-08T03:00:00	5	Humedad	68
33165	7	Sololá	717	San Juan la Laguna	12	San Juan la Laguna	1	Enero	2023-01-27T00:00:00	2024-11-08T03:00:00	6	Velocidad del viento	12.9
33166	7	Sololá	717	San Juan la Laguna	12	San Juan la Laguna	1	Enero	2023-01-27T00:00:00	2024-11-08T03:00:00	7	Dirección del viento	12.87
33167	7	Sololá	717	San Juan la Laguna	12	San Juan la Laguna	1	Enero	2023-01-27T00:00:00	2024-11-08T03:00:00	1	Precipitación	0
33168	7	Sololá	717	San Juan la Laguna	12	San Juan la Laguna	1	Enero	2023-01-27T00:00:00	2024-11-08T03:00:00	8	Radiación solar	0
33169	7	Sololá	717	San Juan la Laguna	12	San Juan la Laguna	1	Enero	2023-01-27T00:00:00	2024-11-08T04:00:00	2	Temperatura media	18.2
33170	7	Sololá	717	San Juan la Laguna	12	San Juan la Laguna	1	Enero	2023-01-27T00:00:00	2024-11-08T04:00:00	4	Temperatura máxima	18.4
33171	7	Sololá	717	San Juan la Laguna	12	San Juan la Laguna	1	Enero	2023-01-27T00:00:00	2024-11-08T04:00:00	3	Temperatura mínima	18.1
33172	7	Sololá	717	San Juan la Laguna	12	San Juan la Laguna	1	Enero	2023-01-27T00:00:00	2024-11-08T04:00:00	5	Humedad	70
33173	7	Sololá	717	San Juan la Laguna	12	San Juan la Laguna	1	Enero	2023-01-27T00:00:00	2024-11-08T04:00:00	6	Velocidad del viento	8
33174	7	Sololá	717	San Juan la Laguna	12	San Juan la Laguna	1	Enero	2023-01-27T00:00:00	2024-11-08T04:00:00	7	Dirección del viento	8.05
33175	7	Sololá	717	San Juan la Laguna	12	San Juan la Laguna	1	Enero	2023-01-27T00:00:00	2024-11-08T04:00:00	1	Precipitación	0
33176	7	Sololá	717	San Juan la Laguna	12	San Juan la Laguna	1	Enero	2023-01-27T00:00:00	2024-11-08T04:00:00	8	Radiación solar	0
33177	7	Sololá	717	San Juan la Laguna	12	San Juan la Laguna	1	Enero	2023-01-27T00:00:00	2024-11-08T05:00:00	2	Temperatura media	18.1
33178	7	Sololá	717	San Juan la Laguna	12	San Juan la Laguna	1	Enero	2023-01-27T00:00:00	2024-11-08T05:00:00	4	Temperatura máxima	18.3
33179	7	Sololá	717	San Juan la Laguna	12	San Juan la Laguna	1	Enero	2023-01-27T00:00:00	2024-11-08T05:00:00	3	Temperatura mínima	18.1
33180	7	Sololá	717	San Juan la Laguna	12	San Juan la Laguna	1	Enero	2023-01-27T00:00:00	2024-11-08T05:00:00	5	Humedad	68
33181	7	Sololá	717	San Juan la Laguna	12	San Juan la Laguna	1	Enero	2023-01-27T00:00:00	2024-11-08T05:00:00	6	Velocidad del viento	8
33182	7	Sololá	717	San Juan la Laguna	12	San Juan la Laguna	1	Enero	2023-01-27T00:00:00	2024-11-08T05:00:00	7	Dirección del viento	8.05
33183	7	Sololá	717	San Juan la Laguna	12	San Juan la Laguna	1	Enero	2023-01-27T00:00:00	2024-11-08T05:00:00	1	Precipitación	0
33184	7	Sololá	717	San Juan la Laguna	12	San Juan la Laguna	1	Enero	2023-01-27T00:00:00	2024-11-08T05:00:00	8	Radiación solar	0
33185	7	Sololá	717	San Juan la Laguna	12	San Juan la Laguna	1	Enero	2023-01-27T00:00:00	2024-11-08T06:00:00	2	Temperatura media	17.8
33186	7	Sololá	717	San Juan la Laguna	12	San Juan la Laguna	1	Enero	2023-01-27T00:00:00	2024-11-08T06:00:00	4	Temperatura máxima	18.1
33187	7	Sololá	717	San Juan la Laguna	12	San Juan la Laguna	1	Enero	2023-01-27T00:00:00	2024-11-08T06:00:00	3	Temperatura mínima	17.7
33188	7	Sololá	717	San Juan la Laguna	12	San Juan la Laguna	1	Enero	2023-01-27T00:00:00	2024-11-08T06:00:00	5	Humedad	69
33189	7	Sololá	717	San Juan la Laguna	12	San Juan la Laguna	1	Enero	2023-01-27T00:00:00	2024-11-08T06:00:00	6	Velocidad del viento	8
33190	7	Sololá	717	San Juan la Laguna	12	San Juan la Laguna	1	Enero	2023-01-27T00:00:00	2024-11-08T06:00:00	7	Dirección del viento	8.05
33191	7	Sololá	717	San Juan la Laguna	12	San Juan la Laguna	1	Enero	2023-01-27T00:00:00	2024-11-08T06:00:00	1	Precipitación	0
33192	7	Sololá	717	San Juan la Laguna	12	San Juan la Laguna	1	Enero	2023-01-27T00:00:00	2024-11-08T06:00:00	8	Radiación solar	0
33193	7	Sololá	717	San Juan la Laguna	12	San Juan la Laguna	1	Enero	2023-01-27T00:00:00	2024-11-08T07:00:00	2	Temperatura media	18.4
33194	7	Sololá	717	San Juan la Laguna	12	San Juan la Laguna	1	Enero	2023-01-27T00:00:00	2024-11-08T07:00:00	4	Temperatura máxima	18.4
33195	7	Sololá	717	San Juan la Laguna	12	San Juan la Laguna	1	Enero	2023-01-27T00:00:00	2024-11-08T07:00:00	3	Temperatura mínima	17.7
33196	7	Sololá	717	San Juan la Laguna	12	San Juan la Laguna	1	Enero	2023-01-27T00:00:00	2024-11-08T07:00:00	5	Humedad	63
33197	7	Sololá	717	San Juan la Laguna	12	San Juan la Laguna	1	Enero	2023-01-27T00:00:00	2024-11-08T07:00:00	6	Velocidad del viento	8
33198	7	Sololá	717	San Juan la Laguna	12	San Juan la Laguna	1	Enero	2023-01-27T00:00:00	2024-11-08T07:00:00	7	Dirección del viento	8.05
33199	7	Sololá	717	San Juan la Laguna	12	San Juan la Laguna	1	Enero	2023-01-27T00:00:00	2024-11-08T07:00:00	1	Precipitación	0
33200	7	Sololá	717	San Juan la Laguna	12	San Juan la Laguna	1	Enero	2023-01-27T00:00:00	2024-11-08T07:00:00	8	Radiación solar	5
33201	7	Sololá	717	San Juan la Laguna	12	San Juan la Laguna	1	Enero	2023-01-27T00:00:00	2024-11-08T08:00:00	2	Temperatura media	19.4
33202	7	Sololá	717	San Juan la Laguna	12	San Juan la Laguna	1	Enero	2023-01-27T00:00:00	2024-11-08T08:00:00	4	Temperatura máxima	19.4
33203	7	Sololá	717	San Juan la Laguna	12	San Juan la Laguna	1	Enero	2023-01-27T00:00:00	2024-11-08T08:00:00	3	Temperatura mínima	18.4
33204	7	Sololá	717	San Juan la Laguna	12	San Juan la Laguna	1	Enero	2023-01-27T00:00:00	2024-11-08T08:00:00	5	Humedad	64
33205	7	Sololá	717	San Juan la Laguna	12	San Juan la Laguna	1	Enero	2023-01-27T00:00:00	2024-11-08T08:00:00	6	Velocidad del viento	9.7
33206	7	Sololá	717	San Juan la Laguna	12	San Juan la Laguna	1	Enero	2023-01-27T00:00:00	2024-11-08T08:00:00	7	Dirección del viento	9.66
33207	7	Sololá	717	San Juan la Laguna	12	San Juan la Laguna	1	Enero	2023-01-27T00:00:00	2024-11-08T08:00:00	1	Precipitación	0
33208	7	Sololá	717	San Juan la Laguna	12	San Juan la Laguna	1	Enero	2023-01-27T00:00:00	2024-11-08T08:00:00	8	Radiación solar	111
33209	7	Sololá	717	San Juan la Laguna	12	San Juan la Laguna	1	Enero	2023-01-27T00:00:00	2024-11-08T09:00:00	2	Temperatura media	20.4
33210	7	Sololá	717	San Juan la Laguna	12	San Juan la Laguna	1	Enero	2023-01-27T00:00:00	2024-11-08T09:00:00	4	Temperatura máxima	20.4
33211	7	Sololá	717	San Juan la Laguna	12	San Juan la Laguna	1	Enero	2023-01-27T00:00:00	2024-11-08T09:00:00	3	Temperatura mínima	19.2
33212	7	Sololá	717	San Juan la Laguna	12	San Juan la Laguna	1	Enero	2023-01-27T00:00:00	2024-11-08T09:00:00	5	Humedad	60
33213	7	Sololá	717	San Juan la Laguna	12	San Juan la Laguna	1	Enero	2023-01-27T00:00:00	2024-11-08T09:00:00	6	Velocidad del viento	14.5
33214	7	Sololá	717	San Juan la Laguna	12	San Juan la Laguna	1	Enero	2023-01-27T00:00:00	2024-11-08T09:00:00	7	Dirección del viento	14.48
33215	7	Sololá	717	San Juan la Laguna	12	San Juan la Laguna	1	Enero	2023-01-27T00:00:00	2024-11-08T09:00:00	1	Precipitación	0
33216	7	Sololá	717	San Juan la Laguna	12	San Juan la Laguna	1	Enero	2023-01-27T00:00:00	2024-11-08T09:00:00	8	Radiación solar	315
33217	7	Sololá	717	San Juan la Laguna	12	San Juan la Laguna	1	Enero	2023-01-27T00:00:00	2024-11-08T10:00:00	2	Temperatura media	20.9
33218	7	Sololá	717	San Juan la Laguna	12	San Juan la Laguna	1	Enero	2023-01-27T00:00:00	2024-11-08T10:00:00	4	Temperatura máxima	20.9
33219	7	Sololá	717	San Juan la Laguna	12	San Juan la Laguna	1	Enero	2023-01-27T00:00:00	2024-11-08T10:00:00	3	Temperatura mínima	20.3
33220	7	Sololá	717	San Juan la Laguna	12	San Juan la Laguna	1	Enero	2023-01-27T00:00:00	2024-11-08T10:00:00	5	Humedad	60
33221	7	Sololá	717	San Juan la Laguna	12	San Juan la Laguna	1	Enero	2023-01-27T00:00:00	2024-11-08T10:00:00	6	Velocidad del viento	19.3
33222	7	Sololá	717	San Juan la Laguna	12	San Juan la Laguna	1	Enero	2023-01-27T00:00:00	2024-11-08T10:00:00	7	Dirección del viento	19.31
33223	7	Sololá	717	San Juan la Laguna	12	San Juan la Laguna	1	Enero	2023-01-27T00:00:00	2024-11-08T10:00:00	1	Precipitación	0
33224	7	Sololá	717	San Juan la Laguna	12	San Juan la Laguna	1	Enero	2023-01-27T00:00:00	2024-11-08T10:00:00	8	Radiación solar	540
33225	7	Sololá	717	San Juan la Laguna	12	San Juan la Laguna	1	Enero	2023-01-27T00:00:00	2024-11-08T11:00:00	2	Temperatura media	21.5
33226	7	Sololá	717	San Juan la Laguna	12	San Juan la Laguna	1	Enero	2023-01-27T00:00:00	2024-11-08T11:00:00	4	Temperatura máxima	21.5
33227	7	Sololá	717	San Juan la Laguna	12	San Juan la Laguna	1	Enero	2023-01-27T00:00:00	2024-11-08T11:00:00	3	Temperatura mínima	21
33228	7	Sololá	717	San Juan la Laguna	12	San Juan la Laguna	1	Enero	2023-01-27T00:00:00	2024-11-08T11:00:00	5	Humedad	57
33229	7	Sololá	717	San Juan la Laguna	12	San Juan la Laguna	1	Enero	2023-01-27T00:00:00	2024-11-08T11:00:00	6	Velocidad del viento	19.3
33230	7	Sololá	717	San Juan la Laguna	12	San Juan la Laguna	1	Enero	2023-01-27T00:00:00	2024-11-08T11:00:00	7	Dirección del viento	19.31
33231	7	Sololá	717	San Juan la Laguna	12	San Juan la Laguna	1	Enero	2023-01-27T00:00:00	2024-11-08T11:00:00	1	Precipitación	0
33232	7	Sololá	717	San Juan la Laguna	12	San Juan la Laguna	1	Enero	2023-01-27T00:00:00	2024-11-08T11:00:00	8	Radiación solar	681
33233	7	Sololá	717	San Juan la Laguna	12	San Juan la Laguna	1	Enero	2023-01-27T00:00:00	2024-11-08T12:00:00	2	Temperatura media	22.1
33234	7	Sololá	717	San Juan la Laguna	12	San Juan la Laguna	1	Enero	2023-01-27T00:00:00	2024-11-08T12:00:00	4	Temperatura máxima	22.2
33235	7	Sololá	717	San Juan la Laguna	12	San Juan la Laguna	1	Enero	2023-01-27T00:00:00	2024-11-08T12:00:00	3	Temperatura mínima	21.4
33236	7	Sololá	717	San Juan la Laguna	12	San Juan la Laguna	1	Enero	2023-01-27T00:00:00	2024-11-08T12:00:00	5	Humedad	56
33237	7	Sololá	717	San Juan la Laguna	12	San Juan la Laguna	1	Enero	2023-01-27T00:00:00	2024-11-08T12:00:00	6	Velocidad del viento	17.7
33238	7	Sololá	717	San Juan la Laguna	12	San Juan la Laguna	1	Enero	2023-01-27T00:00:00	2024-11-08T12:00:00	7	Dirección del viento	17.7
33239	7	Sololá	717	San Juan la Laguna	12	San Juan la Laguna	1	Enero	2023-01-27T00:00:00	2024-11-08T12:00:00	1	Precipitación	0
33240	7	Sololá	717	San Juan la Laguna	12	San Juan la Laguna	1	Enero	2023-01-27T00:00:00	2024-11-08T12:00:00	8	Radiación solar	577
33241	7	Sololá	717	San Juan la Laguna	12	San Juan la Laguna	1	Enero	2023-01-27T00:00:00	2024-11-08T13:00:00	2	Temperatura media	21.5
33242	7	Sololá	717	San Juan la Laguna	12	San Juan la Laguna	1	Enero	2023-01-27T00:00:00	2024-11-08T13:00:00	4	Temperatura máxima	22.1
33243	7	Sololá	717	San Juan la Laguna	12	San Juan la Laguna	1	Enero	2023-01-27T00:00:00	2024-11-08T13:00:00	3	Temperatura mínima	21.2
33244	7	Sololá	717	San Juan la Laguna	12	San Juan la Laguna	1	Enero	2023-01-27T00:00:00	2024-11-08T13:00:00	5	Humedad	58
33245	7	Sololá	717	San Juan la Laguna	12	San Juan la Laguna	1	Enero	2023-01-27T00:00:00	2024-11-08T13:00:00	6	Velocidad del viento	16.1
33246	7	Sololá	717	San Juan la Laguna	12	San Juan la Laguna	1	Enero	2023-01-27T00:00:00	2024-11-08T13:00:00	7	Dirección del viento	16.09
33247	7	Sololá	717	San Juan la Laguna	12	San Juan la Laguna	1	Enero	2023-01-27T00:00:00	2024-11-08T13:00:00	1	Precipitación	0
33248	7	Sololá	717	San Juan la Laguna	12	San Juan la Laguna	1	Enero	2023-01-27T00:00:00	2024-11-08T13:00:00	8	Radiación solar	314
33249	7	Sololá	717	San Juan la Laguna	12	San Juan la Laguna	1	Enero	2023-01-27T00:00:00	2024-11-08T14:00:00	2	Temperatura media	21.4
33250	7	Sololá	717	San Juan la Laguna	12	San Juan la Laguna	1	Enero	2023-01-27T00:00:00	2024-11-08T14:00:00	4	Temperatura máxima	21.9
33251	7	Sololá	717	San Juan la Laguna	12	San Juan la Laguna	1	Enero	2023-01-27T00:00:00	2024-11-08T14:00:00	3	Temperatura mínima	21.3
33252	7	Sololá	717	San Juan la Laguna	12	San Juan la Laguna	1	Enero	2023-01-27T00:00:00	2024-11-08T14:00:00	5	Humedad	60
33253	7	Sololá	717	San Juan la Laguna	12	San Juan la Laguna	1	Enero	2023-01-27T00:00:00	2024-11-08T14:00:00	6	Velocidad del viento	14.5
33254	7	Sololá	717	San Juan la Laguna	12	San Juan la Laguna	1	Enero	2023-01-27T00:00:00	2024-11-08T14:00:00	7	Dirección del viento	14.48
33255	7	Sololá	717	San Juan la Laguna	12	San Juan la Laguna	1	Enero	2023-01-27T00:00:00	2024-11-08T14:00:00	1	Precipitación	0
33256	7	Sololá	717	San Juan la Laguna	12	San Juan la Laguna	1	Enero	2023-01-27T00:00:00	2024-11-08T14:00:00	8	Radiación solar	344
33257	7	Sololá	717	San Juan la Laguna	12	San Juan la Laguna	1	Enero	2023-01-27T00:00:00	2024-11-08T15:00:00	2	Temperatura media	21.1
33258	7	Sololá	717	San Juan la Laguna	12	San Juan la Laguna	1	Enero	2023-01-27T00:00:00	2024-11-08T15:00:00	4	Temperatura máxima	21.4
33259	7	Sololá	717	San Juan la Laguna	12	San Juan la Laguna	1	Enero	2023-01-27T00:00:00	2024-11-08T15:00:00	3	Temperatura mínima	21.1
33260	7	Sololá	717	San Juan la Laguna	12	San Juan la Laguna	1	Enero	2023-01-27T00:00:00	2024-11-08T15:00:00	5	Humedad	60
33261	7	Sololá	717	San Juan la Laguna	12	San Juan la Laguna	1	Enero	2023-01-27T00:00:00	2024-11-08T15:00:00	6	Velocidad del viento	14.5
33262	7	Sololá	717	San Juan la Laguna	12	San Juan la Laguna	1	Enero	2023-01-27T00:00:00	2024-11-08T15:00:00	7	Dirección del viento	14.48
33263	7	Sololá	717	San Juan la Laguna	12	San Juan la Laguna	1	Enero	2023-01-27T00:00:00	2024-11-08T15:00:00	1	Precipitación	0
33264	7	Sololá	717	San Juan la Laguna	12	San Juan la Laguna	1	Enero	2023-01-27T00:00:00	2024-11-08T15:00:00	8	Radiación solar	321
33265	7	Sololá	717	San Juan la Laguna	12	San Juan la Laguna	1	Enero	2023-01-27T00:00:00	2024-11-08T16:00:00	2	Temperatura media	20.8
33266	7	Sololá	717	San Juan la Laguna	12	San Juan la Laguna	1	Enero	2023-01-27T00:00:00	2024-11-08T16:00:00	4	Temperatura máxima	21.7
33267	7	Sololá	717	San Juan la Laguna	12	San Juan la Laguna	1	Enero	2023-01-27T00:00:00	2024-11-08T16:00:00	3	Temperatura mínima	20.8
33268	7	Sololá	717	San Juan la Laguna	12	San Juan la Laguna	1	Enero	2023-01-27T00:00:00	2024-11-08T16:00:00	5	Humedad	61
33269	7	Sololá	717	San Juan la Laguna	12	San Juan la Laguna	1	Enero	2023-01-27T00:00:00	2024-11-08T16:00:00	6	Velocidad del viento	14.5
33270	7	Sololá	717	San Juan la Laguna	12	San Juan la Laguna	1	Enero	2023-01-27T00:00:00	2024-11-08T16:00:00	7	Dirección del viento	14.48
33271	7	Sololá	717	San Juan la Laguna	12	San Juan la Laguna	1	Enero	2023-01-27T00:00:00	2024-11-08T16:00:00	1	Precipitación	0
33272	7	Sololá	717	San Juan la Laguna	12	San Juan la Laguna	1	Enero	2023-01-27T00:00:00	2024-11-08T16:00:00	8	Radiación solar	445
33273	7	Sololá	717	San Juan la Laguna	12	San Juan la Laguna	1	Enero	2023-01-27T00:00:00	2024-11-08T17:00:00	2	Temperatura media	20.3
33274	7	Sololá	717	San Juan la Laguna	12	San Juan la Laguna	1	Enero	2023-01-27T00:00:00	2024-11-08T17:00:00	4	Temperatura máxima	20.8
33275	7	Sololá	717	San Juan la Laguna	12	San Juan la Laguna	1	Enero	2023-01-27T00:00:00	2024-11-08T17:00:00	3	Temperatura mínima	20.2
33276	7	Sololá	717	San Juan la Laguna	12	San Juan la Laguna	1	Enero	2023-01-27T00:00:00	2024-11-08T17:00:00	5	Humedad	62
33277	7	Sololá	717	San Juan la Laguna	12	San Juan la Laguna	1	Enero	2023-01-27T00:00:00	2024-11-08T17:00:00	6	Velocidad del viento	12.9
33278	7	Sololá	717	San Juan la Laguna	12	San Juan la Laguna	1	Enero	2023-01-27T00:00:00	2024-11-08T17:00:00	7	Dirección del viento	12.87
33279	7	Sololá	717	San Juan la Laguna	12	San Juan la Laguna	1	Enero	2023-01-27T00:00:00	2024-11-08T17:00:00	1	Precipitación	0
33280	7	Sololá	717	San Juan la Laguna	12	San Juan la Laguna	1	Enero	2023-01-27T00:00:00	2024-11-08T17:00:00	8	Radiación solar	113
33281	7	Sololá	717	San Juan la Laguna	12	San Juan la Laguna	1	Enero	2023-01-27T00:00:00	2024-11-08T18:00:00	2	Temperatura media	19.5
33282	7	Sololá	717	San Juan la Laguna	12	San Juan la Laguna	1	Enero	2023-01-27T00:00:00	2024-11-08T18:00:00	4	Temperatura máxima	20.3
33283	7	Sololá	717	San Juan la Laguna	12	San Juan la Laguna	1	Enero	2023-01-27T00:00:00	2024-11-08T18:00:00	3	Temperatura mínima	19.5
33284	7	Sololá	717	San Juan la Laguna	12	San Juan la Laguna	1	Enero	2023-01-27T00:00:00	2024-11-08T18:00:00	5	Humedad	65
33285	7	Sololá	717	San Juan la Laguna	12	San Juan la Laguna	1	Enero	2023-01-27T00:00:00	2024-11-08T18:00:00	6	Velocidad del viento	11.3
33286	7	Sololá	717	San Juan la Laguna	12	San Juan la Laguna	1	Enero	2023-01-27T00:00:00	2024-11-08T18:00:00	7	Dirección del viento	11.27
33287	7	Sololá	717	San Juan la Laguna	12	San Juan la Laguna	1	Enero	2023-01-27T00:00:00	2024-11-08T18:00:00	1	Precipitación	0
33288	7	Sololá	717	San Juan la Laguna	12	San Juan la Laguna	1	Enero	2023-01-27T00:00:00	2024-11-08T18:00:00	8	Radiación solar	40
33289	7	Sololá	717	San Juan la Laguna	12	San Juan la Laguna	1	Enero	2023-01-27T00:00:00	2024-11-08T19:00:00	2	Temperatura media	19.2
33290	7	Sololá	717	San Juan la Laguna	12	San Juan la Laguna	1	Enero	2023-01-27T00:00:00	2024-11-08T19:00:00	4	Temperatura máxima	19.5
33291	7	Sololá	717	San Juan la Laguna	12	San Juan la Laguna	1	Enero	2023-01-27T00:00:00	2024-11-08T19:00:00	3	Temperatura mínima	19.2
33292	7	Sololá	717	San Juan la Laguna	12	San Juan la Laguna	1	Enero	2023-01-27T00:00:00	2024-11-08T19:00:00	5	Humedad	66
33293	7	Sololá	717	San Juan la Laguna	12	San Juan la Laguna	1	Enero	2023-01-27T00:00:00	2024-11-08T19:00:00	6	Velocidad del viento	11.3
33294	7	Sololá	717	San Juan la Laguna	12	San Juan la Laguna	1	Enero	2023-01-27T00:00:00	2024-11-08T19:00:00	7	Dirección del viento	11.27
33295	7	Sololá	717	San Juan la Laguna	12	San Juan la Laguna	1	Enero	2023-01-27T00:00:00	2024-11-08T19:00:00	1	Precipitación	0
33296	7	Sololá	717	San Juan la Laguna	12	San Juan la Laguna	1	Enero	2023-01-27T00:00:00	2024-11-08T19:00:00	8	Radiación solar	0
33297	7	Sololá	717	San Juan la Laguna	12	San Juan la Laguna	1	Enero	2023-01-27T00:00:00	2024-11-08T20:00:00	2	Temperatura media	18.3
33298	7	Sololá	717	San Juan la Laguna	12	San Juan la Laguna	1	Enero	2023-01-27T00:00:00	2024-11-08T20:00:00	4	Temperatura máxima	19.2
33299	7	Sololá	717	San Juan la Laguna	12	San Juan la Laguna	1	Enero	2023-01-27T00:00:00	2024-11-08T20:00:00	3	Temperatura mínima	18.3
33300	7	Sololá	717	San Juan la Laguna	12	San Juan la Laguna	1	Enero	2023-01-27T00:00:00	2024-11-08T20:00:00	5	Humedad	71
33301	7	Sololá	717	San Juan la Laguna	12	San Juan la Laguna	1	Enero	2023-01-27T00:00:00	2024-11-08T20:00:00	6	Velocidad del viento	16.1
33302	7	Sololá	717	San Juan la Laguna	12	San Juan la Laguna	1	Enero	2023-01-27T00:00:00	2024-11-08T20:00:00	7	Dirección del viento	16.09
33303	7	Sololá	717	San Juan la Laguna	12	San Juan la Laguna	1	Enero	2023-01-27T00:00:00	2024-11-08T20:00:00	1	Precipitación	0
33304	7	Sololá	717	San Juan la Laguna	12	San Juan la Laguna	1	Enero	2023-01-27T00:00:00	2024-11-08T20:00:00	8	Radiación solar	0
33305	7	Sololá	717	San Juan la Laguna	12	San Juan la Laguna	1	Enero	2023-01-27T00:00:00	2024-11-08T21:00:00	2	Temperatura media	18.1
33306	7	Sololá	717	San Juan la Laguna	12	San Juan la Laguna	1	Enero	2023-01-27T00:00:00	2024-11-08T21:00:00	4	Temperatura máxima	18.4
33307	7	Sololá	717	San Juan la Laguna	12	San Juan la Laguna	1	Enero	2023-01-27T00:00:00	2024-11-08T21:00:00	3	Temperatura mínima	18.1
33308	7	Sololá	717	San Juan la Laguna	12	San Juan la Laguna	1	Enero	2023-01-27T00:00:00	2024-11-08T21:00:00	5	Humedad	71
33309	7	Sololá	717	San Juan la Laguna	12	San Juan la Laguna	1	Enero	2023-01-27T00:00:00	2024-11-08T21:00:00	6	Velocidad del viento	16.1
33310	7	Sololá	717	San Juan la Laguna	12	San Juan la Laguna	1	Enero	2023-01-27T00:00:00	2024-11-08T21:00:00	7	Dirección del viento	16.09
33311	7	Sololá	717	San Juan la Laguna	12	San Juan la Laguna	1	Enero	2023-01-27T00:00:00	2024-11-08T21:00:00	1	Precipitación	0
33312	7	Sololá	717	San Juan la Laguna	12	San Juan la Laguna	1	Enero	2023-01-27T00:00:00	2024-11-08T21:00:00	8	Radiación solar	0
33313	7	Sololá	717	San Juan la Laguna	12	San Juan la Laguna	1	Enero	2023-01-27T00:00:00	2024-11-08T22:00:00	2	Temperatura media	17.8
33314	7	Sololá	717	San Juan la Laguna	12	San Juan la Laguna	1	Enero	2023-01-27T00:00:00	2024-11-08T22:00:00	4	Temperatura máxima	18.1
33315	7	Sololá	717	San Juan la Laguna	12	San Juan la Laguna	1	Enero	2023-01-27T00:00:00	2024-11-08T22:00:00	3	Temperatura mínima	17.8
33316	7	Sololá	717	San Juan la Laguna	12	San Juan la Laguna	1	Enero	2023-01-27T00:00:00	2024-11-08T22:00:00	5	Humedad	68
33317	7	Sololá	717	San Juan la Laguna	12	San Juan la Laguna	1	Enero	2023-01-27T00:00:00	2024-11-08T22:00:00	6	Velocidad del viento	16.1
33318	7	Sololá	717	San Juan la Laguna	12	San Juan la Laguna	1	Enero	2023-01-27T00:00:00	2024-11-08T22:00:00	7	Dirección del viento	16.09
33319	7	Sololá	717	San Juan la Laguna	12	San Juan la Laguna	1	Enero	2023-01-27T00:00:00	2024-11-08T22:00:00	1	Precipitación	0
33320	7	Sololá	717	San Juan la Laguna	12	San Juan la Laguna	1	Enero	2023-01-27T00:00:00	2024-11-08T22:00:00	8	Radiación solar	0
33321	7	Sololá	717	San Juan la Laguna	12	San Juan la Laguna	1	Enero	2023-01-27T00:00:00	2024-11-08T23:00:00	2	Temperatura media	17.7
33322	7	Sololá	717	San Juan la Laguna	12	San Juan la Laguna	1	Enero	2023-01-27T00:00:00	2024-11-08T23:00:00	4	Temperatura máxima	18.1
33323	7	Sololá	717	San Juan la Laguna	12	San Juan la Laguna	1	Enero	2023-01-27T00:00:00	2024-11-08T23:00:00	3	Temperatura mínima	17.7
33324	7	Sololá	717	San Juan la Laguna	12	San Juan la Laguna	1	Enero	2023-01-27T00:00:00	2024-11-08T23:00:00	5	Humedad	54
33325	7	Sololá	717	San Juan la Laguna	12	San Juan la Laguna	1	Enero	2023-01-27T00:00:00	2024-11-08T23:00:00	6	Velocidad del viento	12.9
33326	7	Sololá	717	San Juan la Laguna	12	San Juan la Laguna	1	Enero	2023-01-27T00:00:00	2024-11-08T23:00:00	7	Dirección del viento	12.87
33327	7	Sololá	717	San Juan la Laguna	12	San Juan la Laguna	1	Enero	2023-01-27T00:00:00	2024-11-08T23:00:00	1	Precipitación	0
33328	7	Sololá	717	San Juan la Laguna	12	San Juan la Laguna	1	Enero	2023-01-27T00:00:00	2024-11-08T23:00:00	8	Radiación solar	0
33329	7	Sololá	717	San Juan la Laguna	12	San Juan la Laguna	1	Enero	2023-01-28T00:00:00	2024-11-08T00:00:00	2	Temperatura media	16.9
33330	7	Sololá	717	San Juan la Laguna	12	San Juan la Laguna	1	Enero	2023-01-28T00:00:00	2024-11-08T00:00:00	4	Temperatura máxima	17.7
33331	7	Sololá	717	San Juan la Laguna	12	San Juan la Laguna	1	Enero	2023-01-28T00:00:00	2024-11-08T00:00:00	3	Temperatura mínima	16.9
33332	7	Sololá	717	San Juan la Laguna	12	San Juan la Laguna	1	Enero	2023-01-28T00:00:00	2024-11-08T00:00:00	5	Humedad	54
33333	7	Sololá	717	San Juan la Laguna	12	San Juan la Laguna	1	Enero	2023-01-28T00:00:00	2024-11-08T00:00:00	6	Velocidad del viento	14.5
33334	7	Sololá	717	San Juan la Laguna	12	San Juan la Laguna	1	Enero	2023-01-28T00:00:00	2024-11-08T00:00:00	7	Dirección del viento	14.48
33335	7	Sololá	717	San Juan la Laguna	12	San Juan la Laguna	1	Enero	2023-01-28T00:00:00	2024-11-08T00:00:00	1	Precipitación	0
33336	7	Sololá	717	San Juan la Laguna	12	San Juan la Laguna	1	Enero	2023-01-28T00:00:00	2024-11-08T00:00:00	8	Radiación solar	0
33337	7	Sololá	717	San Juan la Laguna	12	San Juan la Laguna	1	Enero	2023-01-28T00:00:00	2024-11-08T01:00:00	2	Temperatura media	16.4
33338	7	Sololá	717	San Juan la Laguna	12	San Juan la Laguna	1	Enero	2023-01-28T00:00:00	2024-11-08T01:00:00	4	Temperatura máxima	16.9
33339	7	Sololá	717	San Juan la Laguna	12	San Juan la Laguna	1	Enero	2023-01-28T00:00:00	2024-11-08T01:00:00	3	Temperatura mínima	16.3
33340	7	Sololá	717	San Juan la Laguna	12	San Juan la Laguna	1	Enero	2023-01-28T00:00:00	2024-11-08T01:00:00	5	Humedad	48
33341	7	Sololá	717	San Juan la Laguna	12	San Juan la Laguna	1	Enero	2023-01-28T00:00:00	2024-11-08T01:00:00	6	Velocidad del viento	9.7
33342	7	Sololá	717	San Juan la Laguna	12	San Juan la Laguna	1	Enero	2023-01-28T00:00:00	2024-11-08T01:00:00	7	Dirección del viento	9.66
33343	7	Sololá	717	San Juan la Laguna	12	San Juan la Laguna	1	Enero	2023-01-28T00:00:00	2024-11-08T01:00:00	1	Precipitación	0
33344	7	Sololá	717	San Juan la Laguna	12	San Juan la Laguna	1	Enero	2023-01-28T00:00:00	2024-11-08T01:00:00	8	Radiación solar	0
33345	7	Sololá	717	San Juan la Laguna	12	San Juan la Laguna	1	Enero	2023-01-28T00:00:00	2024-11-08T02:00:00	2	Temperatura media	16.7
33346	7	Sololá	717	San Juan la Laguna	12	San Juan la Laguna	1	Enero	2023-01-28T00:00:00	2024-11-08T02:00:00	4	Temperatura máxima	17
33347	7	Sololá	717	San Juan la Laguna	12	San Juan la Laguna	1	Enero	2023-01-28T00:00:00	2024-11-08T02:00:00	3	Temperatura mínima	16.2
33348	7	Sololá	717	San Juan la Laguna	12	San Juan la Laguna	1	Enero	2023-01-28T00:00:00	2024-11-08T02:00:00	5	Humedad	47
33349	7	Sololá	717	San Juan la Laguna	12	San Juan la Laguna	1	Enero	2023-01-28T00:00:00	2024-11-08T02:00:00	6	Velocidad del viento	11.3
33350	7	Sololá	717	San Juan la Laguna	12	San Juan la Laguna	1	Enero	2023-01-28T00:00:00	2024-11-08T02:00:00	7	Dirección del viento	11.27
33351	7	Sololá	717	San Juan la Laguna	12	San Juan la Laguna	1	Enero	2023-01-28T00:00:00	2024-11-08T02:00:00	1	Precipitación	0
33352	7	Sololá	717	San Juan la Laguna	12	San Juan la Laguna	1	Enero	2023-01-28T00:00:00	2024-11-08T02:00:00	8	Radiación solar	0
33353	7	Sololá	717	San Juan la Laguna	12	San Juan la Laguna	1	Enero	2023-01-28T00:00:00	2024-11-08T03:00:00	2	Temperatura media	17.3
33354	7	Sololá	717	San Juan la Laguna	12	San Juan la Laguna	1	Enero	2023-01-28T00:00:00	2024-11-08T03:00:00	4	Temperatura máxima	17.3
33355	7	Sololá	717	San Juan la Laguna	12	San Juan la Laguna	1	Enero	2023-01-28T00:00:00	2024-11-08T03:00:00	3	Temperatura mínima	16.7
33356	7	Sololá	717	San Juan la Laguna	12	San Juan la Laguna	1	Enero	2023-01-28T00:00:00	2024-11-08T03:00:00	5	Humedad	47
33357	7	Sololá	717	San Juan la Laguna	12	San Juan la Laguna	1	Enero	2023-01-28T00:00:00	2024-11-08T03:00:00	6	Velocidad del viento	8
33358	7	Sololá	717	San Juan la Laguna	12	San Juan la Laguna	1	Enero	2023-01-28T00:00:00	2024-11-08T03:00:00	7	Dirección del viento	8.05
33359	7	Sololá	717	San Juan la Laguna	12	San Juan la Laguna	1	Enero	2023-01-28T00:00:00	2024-11-08T03:00:00	1	Precipitación	0
33360	7	Sololá	717	San Juan la Laguna	12	San Juan la Laguna	1	Enero	2023-01-28T00:00:00	2024-11-08T03:00:00	8	Radiación solar	0
33361	7	Sololá	717	San Juan la Laguna	12	San Juan la Laguna	1	Enero	2023-01-28T00:00:00	2024-11-08T04:00:00	2	Temperatura media	16.4
33362	7	Sololá	717	San Juan la Laguna	12	San Juan la Laguna	1	Enero	2023-01-28T00:00:00	2024-11-08T04:00:00	4	Temperatura máxima	17.3
33363	7	Sololá	717	San Juan la Laguna	12	San Juan la Laguna	1	Enero	2023-01-28T00:00:00	2024-11-08T04:00:00	3	Temperatura mínima	15.7
33364	7	Sololá	717	San Juan la Laguna	12	San Juan la Laguna	1	Enero	2023-01-28T00:00:00	2024-11-08T04:00:00	5	Humedad	58
33365	7	Sololá	717	San Juan la Laguna	12	San Juan la Laguna	1	Enero	2023-01-28T00:00:00	2024-11-08T04:00:00	6	Velocidad del viento	4.8
33366	7	Sololá	717	San Juan la Laguna	12	San Juan la Laguna	1	Enero	2023-01-28T00:00:00	2024-11-08T04:00:00	7	Dirección del viento	4.83
33367	7	Sololá	717	San Juan la Laguna	12	San Juan la Laguna	1	Enero	2023-01-28T00:00:00	2024-11-08T04:00:00	1	Precipitación	0
33368	7	Sololá	717	San Juan la Laguna	12	San Juan la Laguna	1	Enero	2023-01-28T00:00:00	2024-11-08T04:00:00	8	Radiación solar	0
33369	7	Sololá	717	San Juan la Laguna	12	San Juan la Laguna	1	Enero	2023-01-28T00:00:00	2024-11-08T05:00:00	2	Temperatura media	17.1
33370	7	Sololá	717	San Juan la Laguna	12	San Juan la Laguna	1	Enero	2023-01-28T00:00:00	2024-11-08T05:00:00	4	Temperatura máxima	17.1
33371	7	Sololá	717	San Juan la Laguna	12	San Juan la Laguna	1	Enero	2023-01-28T00:00:00	2024-11-08T05:00:00	3	Temperatura mínima	16.4
33372	7	Sololá	717	San Juan la Laguna	12	San Juan la Laguna	1	Enero	2023-01-28T00:00:00	2024-11-08T05:00:00	5	Humedad	66
33373	7	Sololá	717	San Juan la Laguna	12	San Juan la Laguna	1	Enero	2023-01-28T00:00:00	2024-11-08T05:00:00	6	Velocidad del viento	11.3
33374	7	Sololá	717	San Juan la Laguna	12	San Juan la Laguna	1	Enero	2023-01-28T00:00:00	2024-11-08T05:00:00	7	Dirección del viento	11.27
33375	7	Sololá	717	San Juan la Laguna	12	San Juan la Laguna	1	Enero	2023-01-28T00:00:00	2024-11-08T05:00:00	1	Precipitación	0
33376	7	Sololá	717	San Juan la Laguna	12	San Juan la Laguna	1	Enero	2023-01-28T00:00:00	2024-11-08T05:00:00	8	Radiación solar	0
33377	7	Sololá	717	San Juan la Laguna	12	San Juan la Laguna	1	Enero	2023-01-28T00:00:00	2024-11-08T06:00:00	2	Temperatura media	16.9
33378	7	Sololá	717	San Juan la Laguna	12	San Juan la Laguna	1	Enero	2023-01-28T00:00:00	2024-11-08T06:00:00	4	Temperatura máxima	17.2
33379	7	Sololá	717	San Juan la Laguna	12	San Juan la Laguna	1	Enero	2023-01-28T00:00:00	2024-11-08T06:00:00	3	Temperatura mínima	16.7
33380	7	Sololá	717	San Juan la Laguna	12	San Juan la Laguna	1	Enero	2023-01-28T00:00:00	2024-11-08T06:00:00	5	Humedad	68
33381	7	Sololá	717	San Juan la Laguna	12	San Juan la Laguna	1	Enero	2023-01-28T00:00:00	2024-11-08T06:00:00	6	Velocidad del viento	12.9
33382	7	Sololá	717	San Juan la Laguna	12	San Juan la Laguna	1	Enero	2023-01-28T00:00:00	2024-11-08T06:00:00	7	Dirección del viento	12.87
33383	7	Sololá	717	San Juan la Laguna	12	San Juan la Laguna	1	Enero	2023-01-28T00:00:00	2024-11-08T06:00:00	1	Precipitación	0
33384	7	Sololá	717	San Juan la Laguna	12	San Juan la Laguna	1	Enero	2023-01-28T00:00:00	2024-11-08T06:00:00	8	Radiación solar	0
33385	7	Sololá	717	San Juan la Laguna	12	San Juan la Laguna	1	Enero	2023-01-28T00:00:00	2024-11-08T07:00:00	2	Temperatura media	17.2
33386	7	Sololá	717	San Juan la Laguna	12	San Juan la Laguna	1	Enero	2023-01-28T00:00:00	2024-11-08T07:00:00	4	Temperatura máxima	17.2
33387	7	Sololá	717	San Juan la Laguna	12	San Juan la Laguna	1	Enero	2023-01-28T00:00:00	2024-11-08T07:00:00	3	Temperatura mínima	16.9
33388	7	Sololá	717	San Juan la Laguna	12	San Juan la Laguna	1	Enero	2023-01-28T00:00:00	2024-11-08T07:00:00	5	Humedad	67
33389	7	Sololá	717	San Juan la Laguna	12	San Juan la Laguna	1	Enero	2023-01-28T00:00:00	2024-11-08T07:00:00	6	Velocidad del viento	14.5
33390	7	Sololá	717	San Juan la Laguna	12	San Juan la Laguna	1	Enero	2023-01-28T00:00:00	2024-11-08T07:00:00	7	Dirección del viento	14.48
33391	7	Sololá	717	San Juan la Laguna	12	San Juan la Laguna	1	Enero	2023-01-28T00:00:00	2024-11-08T07:00:00	1	Precipitación	0
33392	7	Sololá	717	San Juan la Laguna	12	San Juan la Laguna	1	Enero	2023-01-28T00:00:00	2024-11-08T07:00:00	8	Radiación solar	3
33393	7	Sololá	717	San Juan la Laguna	12	San Juan la Laguna	1	Enero	2023-01-28T00:00:00	2024-11-08T08:00:00	2	Temperatura media	19.1
33394	7	Sololá	717	San Juan la Laguna	12	San Juan la Laguna	1	Enero	2023-01-28T00:00:00	2024-11-08T08:00:00	4	Temperatura máxima	19.2
33395	7	Sololá	717	San Juan la Laguna	12	San Juan la Laguna	1	Enero	2023-01-28T00:00:00	2024-11-08T08:00:00	3	Temperatura mínima	17.2
33396	7	Sololá	717	San Juan la Laguna	12	San Juan la Laguna	1	Enero	2023-01-28T00:00:00	2024-11-08T08:00:00	5	Humedad	64
33397	7	Sololá	717	San Juan la Laguna	12	San Juan la Laguna	1	Enero	2023-01-28T00:00:00	2024-11-08T08:00:00	6	Velocidad del viento	12.9
33398	7	Sololá	717	San Juan la Laguna	12	San Juan la Laguna	1	Enero	2023-01-28T00:00:00	2024-11-08T08:00:00	7	Dirección del viento	12.87
33399	7	Sololá	717	San Juan la Laguna	12	San Juan la Laguna	1	Enero	2023-01-28T00:00:00	2024-11-08T08:00:00	1	Precipitación	0
33400	7	Sololá	717	San Juan la Laguna	12	San Juan la Laguna	1	Enero	2023-01-28T00:00:00	2024-11-08T08:00:00	8	Radiación solar	111
33401	7	Sololá	717	San Juan la Laguna	12	San Juan la Laguna	1	Enero	2023-01-28T00:00:00	2024-11-08T09:00:00	2	Temperatura media	20.5
33402	7	Sololá	717	San Juan la Laguna	12	San Juan la Laguna	1	Enero	2023-01-28T00:00:00	2024-11-08T09:00:00	4	Temperatura máxima	20.5
33403	7	Sololá	717	San Juan la Laguna	12	San Juan la Laguna	1	Enero	2023-01-28T00:00:00	2024-11-08T09:00:00	3	Temperatura mínima	19
33404	7	Sololá	717	San Juan la Laguna	12	San Juan la Laguna	1	Enero	2023-01-28T00:00:00	2024-11-08T09:00:00	5	Humedad	57
33405	7	Sololá	717	San Juan la Laguna	12	San Juan la Laguna	1	Enero	2023-01-28T00:00:00	2024-11-08T09:00:00	6	Velocidad del viento	12.9
33406	7	Sololá	717	San Juan la Laguna	12	San Juan la Laguna	1	Enero	2023-01-28T00:00:00	2024-11-08T09:00:00	7	Dirección del viento	12.87
33407	7	Sololá	717	San Juan la Laguna	12	San Juan la Laguna	1	Enero	2023-01-28T00:00:00	2024-11-08T09:00:00	1	Precipitación	0
33408	7	Sololá	717	San Juan la Laguna	12	San Juan la Laguna	1	Enero	2023-01-28T00:00:00	2024-11-08T09:00:00	8	Radiación solar	356
33409	7	Sololá	717	San Juan la Laguna	12	San Juan la Laguna	1	Enero	2023-01-28T00:00:00	2024-11-08T10:00:00	2	Temperatura media	22.4
33410	7	Sololá	717	San Juan la Laguna	12	San Juan la Laguna	1	Enero	2023-01-28T00:00:00	2024-11-08T10:00:00	4	Temperatura máxima	22.4
33411	7	Sololá	717	San Juan la Laguna	12	San Juan la Laguna	1	Enero	2023-01-28T00:00:00	2024-11-08T10:00:00	3	Temperatura mínima	20.5
33412	7	Sololá	717	San Juan la Laguna	12	San Juan la Laguna	1	Enero	2023-01-28T00:00:00	2024-11-08T10:00:00	5	Humedad	36
33413	7	Sololá	717	San Juan la Laguna	12	San Juan la Laguna	1	Enero	2023-01-28T00:00:00	2024-11-08T10:00:00	6	Velocidad del viento	12.9
33414	7	Sololá	717	San Juan la Laguna	12	San Juan la Laguna	1	Enero	2023-01-28T00:00:00	2024-11-08T10:00:00	7	Dirección del viento	12.87
33415	7	Sololá	717	San Juan la Laguna	12	San Juan la Laguna	1	Enero	2023-01-28T00:00:00	2024-11-08T10:00:00	1	Precipitación	0
33416	7	Sololá	717	San Juan la Laguna	12	San Juan la Laguna	1	Enero	2023-01-28T00:00:00	2024-11-08T10:00:00	8	Radiación solar	559
33417	7	Sololá	717	San Juan la Laguna	12	San Juan la Laguna	1	Enero	2023-01-28T00:00:00	2024-11-08T11:00:00	2	Temperatura media	23.1
33418	7	Sololá	717	San Juan la Laguna	12	San Juan la Laguna	1	Enero	2023-01-28T00:00:00	2024-11-08T11:00:00	4	Temperatura máxima	23.2
33419	7	Sololá	717	San Juan la Laguna	12	San Juan la Laguna	1	Enero	2023-01-28T00:00:00	2024-11-08T11:00:00	3	Temperatura mínima	22.4
33420	7	Sololá	717	San Juan la Laguna	12	San Juan la Laguna	1	Enero	2023-01-28T00:00:00	2024-11-08T11:00:00	5	Humedad	33
33421	7	Sololá	717	San Juan la Laguna	12	San Juan la Laguna	1	Enero	2023-01-28T00:00:00	2024-11-08T11:00:00	6	Velocidad del viento	9.7
33422	7	Sololá	717	San Juan la Laguna	12	San Juan la Laguna	1	Enero	2023-01-28T00:00:00	2024-11-08T11:00:00	7	Dirección del viento	9.66
33423	7	Sololá	717	San Juan la Laguna	12	San Juan la Laguna	1	Enero	2023-01-28T00:00:00	2024-11-08T11:00:00	1	Precipitación	0
33424	7	Sololá	717	San Juan la Laguna	12	San Juan la Laguna	1	Enero	2023-01-28T00:00:00	2024-11-08T11:00:00	8	Radiación solar	697
33425	7	Sololá	717	San Juan la Laguna	12	San Juan la Laguna	1	Enero	2023-01-28T00:00:00	2024-11-08T12:00:00	2	Temperatura media	23.9
33426	7	Sololá	717	San Juan la Laguna	12	San Juan la Laguna	1	Enero	2023-01-28T00:00:00	2024-11-08T12:00:00	4	Temperatura máxima	23.9
33427	7	Sololá	717	San Juan la Laguna	12	San Juan la Laguna	1	Enero	2023-01-28T00:00:00	2024-11-08T12:00:00	3	Temperatura mínima	23.1
33428	7	Sololá	717	San Juan la Laguna	12	San Juan la Laguna	1	Enero	2023-01-28T00:00:00	2024-11-08T12:00:00	5	Humedad	30
33429	7	Sololá	717	San Juan la Laguna	12	San Juan la Laguna	1	Enero	2023-01-28T00:00:00	2024-11-08T12:00:00	6	Velocidad del viento	9.7
33430	7	Sololá	717	San Juan la Laguna	12	San Juan la Laguna	1	Enero	2023-01-28T00:00:00	2024-11-08T12:00:00	7	Dirección del viento	9.66
33431	7	Sololá	717	San Juan la Laguna	12	San Juan la Laguna	1	Enero	2023-01-28T00:00:00	2024-11-08T12:00:00	1	Precipitación	0
33432	7	Sololá	717	San Juan la Laguna	12	San Juan la Laguna	1	Enero	2023-01-28T00:00:00	2024-11-08T12:00:00	8	Radiación solar	704
33433	7	Sololá	717	San Juan la Laguna	12	San Juan la Laguna	1	Enero	2023-01-28T00:00:00	2024-11-08T13:00:00	2	Temperatura media	24.6
33434	7	Sololá	717	San Juan la Laguna	12	San Juan la Laguna	1	Enero	2023-01-28T00:00:00	2024-11-08T13:00:00	4	Temperatura máxima	24.9
33435	7	Sololá	717	San Juan la Laguna	12	San Juan la Laguna	1	Enero	2023-01-28T00:00:00	2024-11-08T13:00:00	3	Temperatura mínima	23.9
33436	7	Sololá	717	San Juan la Laguna	12	San Juan la Laguna	1	Enero	2023-01-28T00:00:00	2024-11-08T13:00:00	5	Humedad	29
33437	7	Sololá	717	San Juan la Laguna	12	San Juan la Laguna	1	Enero	2023-01-28T00:00:00	2024-11-08T13:00:00	6	Velocidad del viento	9.7
33438	7	Sololá	717	San Juan la Laguna	12	San Juan la Laguna	1	Enero	2023-01-28T00:00:00	2024-11-08T13:00:00	7	Dirección del viento	9.66
33439	7	Sololá	717	San Juan la Laguna	12	San Juan la Laguna	1	Enero	2023-01-28T00:00:00	2024-11-08T13:00:00	1	Precipitación	0
33440	7	Sololá	717	San Juan la Laguna	12	San Juan la Laguna	1	Enero	2023-01-28T00:00:00	2024-11-08T13:00:00	8	Radiación solar	833
33441	7	Sololá	717	San Juan la Laguna	12	San Juan la Laguna	1	Enero	2023-01-28T00:00:00	2024-11-08T14:00:00	2	Temperatura media	25.1
33442	7	Sololá	717	San Juan la Laguna	12	San Juan la Laguna	1	Enero	2023-01-28T00:00:00	2024-11-08T14:00:00	4	Temperatura máxima	25.3
33443	7	Sololá	717	San Juan la Laguna	12	San Juan la Laguna	1	Enero	2023-01-28T00:00:00	2024-11-08T14:00:00	3	Temperatura mínima	24.5
33444	7	Sololá	717	San Juan la Laguna	12	San Juan la Laguna	1	Enero	2023-01-28T00:00:00	2024-11-08T14:00:00	5	Humedad	24
33445	7	Sololá	717	San Juan la Laguna	12	San Juan la Laguna	1	Enero	2023-01-28T00:00:00	2024-11-08T14:00:00	6	Velocidad del viento	8
33446	7	Sololá	717	San Juan la Laguna	12	San Juan la Laguna	1	Enero	2023-01-28T00:00:00	2024-11-08T14:00:00	7	Dirección del viento	8.05
33447	7	Sololá	717	San Juan la Laguna	12	San Juan la Laguna	1	Enero	2023-01-28T00:00:00	2024-11-08T14:00:00	1	Precipitación	0
33448	7	Sololá	717	San Juan la Laguna	12	San Juan la Laguna	1	Enero	2023-01-28T00:00:00	2024-11-08T14:00:00	8	Radiación solar	788
33449	7	Sololá	717	San Juan la Laguna	12	San Juan la Laguna	1	Enero	2023-01-28T00:00:00	2024-11-08T15:00:00	2	Temperatura media	25.2
33450	7	Sololá	717	San Juan la Laguna	12	San Juan la Laguna	1	Enero	2023-01-28T00:00:00	2024-11-08T15:00:00	4	Temperatura máxima	25.6
33451	7	Sololá	717	San Juan la Laguna	12	San Juan la Laguna	1	Enero	2023-01-28T00:00:00	2024-11-08T15:00:00	3	Temperatura mínima	25.1
33452	7	Sololá	717	San Juan la Laguna	12	San Juan la Laguna	1	Enero	2023-01-28T00:00:00	2024-11-08T15:00:00	5	Humedad	26
33453	7	Sololá	717	San Juan la Laguna	12	San Juan la Laguna	1	Enero	2023-01-28T00:00:00	2024-11-08T15:00:00	6	Velocidad del viento	4.8
33454	7	Sololá	717	San Juan la Laguna	12	San Juan la Laguna	1	Enero	2023-01-28T00:00:00	2024-11-08T15:00:00	7	Dirección del viento	4.83
33455	7	Sololá	717	San Juan la Laguna	12	San Juan la Laguna	1	Enero	2023-01-28T00:00:00	2024-11-08T15:00:00	1	Precipitación	0
33456	7	Sololá	717	San Juan la Laguna	12	San Juan la Laguna	1	Enero	2023-01-28T00:00:00	2024-11-08T15:00:00	8	Radiación solar	672
33457	7	Sololá	717	San Juan la Laguna	12	San Juan la Laguna	1	Enero	2023-01-28T00:00:00	2024-11-08T16:00:00	2	Temperatura media	24.7
33458	7	Sololá	717	San Juan la Laguna	12	San Juan la Laguna	1	Enero	2023-01-28T00:00:00	2024-11-08T16:00:00	4	Temperatura máxima	25.2
33459	7	Sololá	717	San Juan la Laguna	12	San Juan la Laguna	1	Enero	2023-01-28T00:00:00	2024-11-08T16:00:00	3	Temperatura mínima	24.7
33460	7	Sololá	717	San Juan la Laguna	12	San Juan la Laguna	1	Enero	2023-01-28T00:00:00	2024-11-08T16:00:00	5	Humedad	30
33461	7	Sololá	717	San Juan la Laguna	12	San Juan la Laguna	1	Enero	2023-01-28T00:00:00	2024-11-08T16:00:00	6	Velocidad del viento	4.8
33462	7	Sololá	717	San Juan la Laguna	12	San Juan la Laguna	1	Enero	2023-01-28T00:00:00	2024-11-08T16:00:00	7	Dirección del viento	4.83
33463	7	Sololá	717	San Juan la Laguna	12	San Juan la Laguna	1	Enero	2023-01-28T00:00:00	2024-11-08T16:00:00	1	Precipitación	0
33464	7	Sololá	717	San Juan la Laguna	12	San Juan la Laguna	1	Enero	2023-01-28T00:00:00	2024-11-08T16:00:00	8	Radiación solar	505
33465	7	Sololá	717	San Juan la Laguna	12	San Juan la Laguna	1	Enero	2023-01-28T00:00:00	2024-11-08T17:00:00	2	Temperatura media	22.7
33466	7	Sololá	717	San Juan la Laguna	12	San Juan la Laguna	1	Enero	2023-01-28T00:00:00	2024-11-08T17:00:00	4	Temperatura máxima	24.7
33467	7	Sololá	717	San Juan la Laguna	12	San Juan la Laguna	1	Enero	2023-01-28T00:00:00	2024-11-08T17:00:00	3	Temperatura mínima	22.7
33468	7	Sololá	717	San Juan la Laguna	12	San Juan la Laguna	1	Enero	2023-01-28T00:00:00	2024-11-08T17:00:00	5	Humedad	40
33469	7	Sololá	717	San Juan la Laguna	12	San Juan la Laguna	1	Enero	2023-01-28T00:00:00	2024-11-08T17:00:00	6	Velocidad del viento	6.4
33470	7	Sololá	717	San Juan la Laguna	12	San Juan la Laguna	1	Enero	2023-01-28T00:00:00	2024-11-08T17:00:00	7	Dirección del viento	6.44
33471	7	Sololá	717	San Juan la Laguna	12	San Juan la Laguna	1	Enero	2023-01-28T00:00:00	2024-11-08T17:00:00	1	Precipitación	0
33472	7	Sololá	717	San Juan la Laguna	12	San Juan la Laguna	1	Enero	2023-01-28T00:00:00	2024-11-08T17:00:00	8	Radiación solar	273
33473	7	Sololá	717	San Juan la Laguna	12	San Juan la Laguna	1	Enero	2023-01-28T00:00:00	2024-11-08T18:00:00	2	Temperatura media	21.6
33474	7	Sololá	717	San Juan la Laguna	12	San Juan la Laguna	1	Enero	2023-01-28T00:00:00	2024-11-08T18:00:00	4	Temperatura máxima	22.7
33475	7	Sololá	717	San Juan la Laguna	12	San Juan la Laguna	1	Enero	2023-01-28T00:00:00	2024-11-08T18:00:00	3	Temperatura mínima	21.6
33476	7	Sololá	717	San Juan la Laguna	12	San Juan la Laguna	1	Enero	2023-01-28T00:00:00	2024-11-08T18:00:00	5	Humedad	39
33477	7	Sololá	717	San Juan la Laguna	12	San Juan la Laguna	1	Enero	2023-01-28T00:00:00	2024-11-08T18:00:00	6	Velocidad del viento	4.8
33478	7	Sololá	717	San Juan la Laguna	12	San Juan la Laguna	1	Enero	2023-01-28T00:00:00	2024-11-08T18:00:00	7	Dirección del viento	4.83
33479	7	Sololá	717	San Juan la Laguna	12	San Juan la Laguna	1	Enero	2023-01-28T00:00:00	2024-11-08T18:00:00	1	Precipitación	0
33480	7	Sololá	717	San Juan la Laguna	12	San Juan la Laguna	1	Enero	2023-01-28T00:00:00	2024-11-08T18:00:00	8	Radiación solar	17
33481	7	Sololá	717	San Juan la Laguna	12	San Juan la Laguna	1	Enero	2023-01-28T00:00:00	2024-11-08T19:00:00	2	Temperatura media	19.8
33482	7	Sololá	717	San Juan la Laguna	12	San Juan la Laguna	1	Enero	2023-01-28T00:00:00	2024-11-08T19:00:00	4	Temperatura máxima	21.6
33483	7	Sololá	717	San Juan la Laguna	12	San Juan la Laguna	1	Enero	2023-01-28T00:00:00	2024-11-08T19:00:00	3	Temperatura mínima	19.8
33484	7	Sololá	717	San Juan la Laguna	12	San Juan la Laguna	1	Enero	2023-01-28T00:00:00	2024-11-08T19:00:00	5	Humedad	47
33485	7	Sololá	717	San Juan la Laguna	12	San Juan la Laguna	1	Enero	2023-01-28T00:00:00	2024-11-08T19:00:00	6	Velocidad del viento	6.4
33486	7	Sololá	717	San Juan la Laguna	12	San Juan la Laguna	1	Enero	2023-01-28T00:00:00	2024-11-08T19:00:00	7	Dirección del viento	6.44
33487	7	Sololá	717	San Juan la Laguna	12	San Juan la Laguna	1	Enero	2023-01-28T00:00:00	2024-11-08T19:00:00	1	Precipitación	0
33488	7	Sololá	717	San Juan la Laguna	12	San Juan la Laguna	1	Enero	2023-01-28T00:00:00	2024-11-08T19:00:00	8	Radiación solar	0
33489	7	Sololá	717	San Juan la Laguna	12	San Juan la Laguna	1	Enero	2023-01-28T00:00:00	2024-11-08T20:00:00	2	Temperatura media	18.9
33490	7	Sololá	717	San Juan la Laguna	12	San Juan la Laguna	1	Enero	2023-01-28T00:00:00	2024-11-08T20:00:00	4	Temperatura máxima	19.8
33491	7	Sololá	717	San Juan la Laguna	12	San Juan la Laguna	1	Enero	2023-01-28T00:00:00	2024-11-08T20:00:00	3	Temperatura mínima	18.9
33492	7	Sololá	717	San Juan la Laguna	12	San Juan la Laguna	1	Enero	2023-01-28T00:00:00	2024-11-08T20:00:00	5	Humedad	54
33493	7	Sololá	717	San Juan la Laguna	12	San Juan la Laguna	1	Enero	2023-01-28T00:00:00	2024-11-08T20:00:00	6	Velocidad del viento	4.8
33494	7	Sololá	717	San Juan la Laguna	12	San Juan la Laguna	1	Enero	2023-01-28T00:00:00	2024-11-08T20:00:00	7	Dirección del viento	4.83
33495	7	Sololá	717	San Juan la Laguna	12	San Juan la Laguna	1	Enero	2023-01-28T00:00:00	2024-11-08T20:00:00	1	Precipitación	0
33496	7	Sololá	717	San Juan la Laguna	12	San Juan la Laguna	1	Enero	2023-01-28T00:00:00	2024-11-08T20:00:00	8	Radiación solar	0
33497	7	Sololá	717	San Juan la Laguna	12	San Juan la Laguna	1	Enero	2023-01-28T00:00:00	2024-11-08T21:00:00	2	Temperatura media	18.4
33498	7	Sololá	717	San Juan la Laguna	12	San Juan la Laguna	1	Enero	2023-01-28T00:00:00	2024-11-08T21:00:00	4	Temperatura máxima	18.9
33499	7	Sololá	717	San Juan la Laguna	12	San Juan la Laguna	1	Enero	2023-01-28T00:00:00	2024-11-08T21:00:00	3	Temperatura mínima	18.4
33500	7	Sololá	717	San Juan la Laguna	12	San Juan la Laguna	1	Enero	2023-01-28T00:00:00	2024-11-08T21:00:00	5	Humedad	56
33501	7	Sololá	717	San Juan la Laguna	12	San Juan la Laguna	1	Enero	2023-01-28T00:00:00	2024-11-08T21:00:00	6	Velocidad del viento	6.4
33502	7	Sololá	717	San Juan la Laguna	12	San Juan la Laguna	1	Enero	2023-01-28T00:00:00	2024-11-08T21:00:00	7	Dirección del viento	6.44
33503	7	Sololá	717	San Juan la Laguna	12	San Juan la Laguna	1	Enero	2023-01-28T00:00:00	2024-11-08T21:00:00	1	Precipitación	0
33504	7	Sololá	717	San Juan la Laguna	12	San Juan la Laguna	1	Enero	2023-01-28T00:00:00	2024-11-08T21:00:00	8	Radiación solar	0
33505	7	Sololá	717	San Juan la Laguna	12	San Juan la Laguna	1	Enero	2023-01-28T00:00:00	2024-11-08T22:00:00	2	Temperatura media	18
33506	7	Sololá	717	San Juan la Laguna	12	San Juan la Laguna	1	Enero	2023-01-28T00:00:00	2024-11-08T22:00:00	4	Temperatura máxima	18.4
33507	7	Sololá	717	San Juan la Laguna	12	San Juan la Laguna	1	Enero	2023-01-28T00:00:00	2024-11-08T22:00:00	3	Temperatura mínima	18
33508	7	Sololá	717	San Juan la Laguna	12	San Juan la Laguna	1	Enero	2023-01-28T00:00:00	2024-11-08T22:00:00	5	Humedad	59
33509	7	Sololá	717	San Juan la Laguna	12	San Juan la Laguna	1	Enero	2023-01-28T00:00:00	2024-11-08T22:00:00	6	Velocidad del viento	4.8
33510	7	Sololá	717	San Juan la Laguna	12	San Juan la Laguna	1	Enero	2023-01-28T00:00:00	2024-11-08T22:00:00	7	Dirección del viento	4.83
33511	7	Sololá	717	San Juan la Laguna	12	San Juan la Laguna	1	Enero	2023-01-28T00:00:00	2024-11-08T22:00:00	1	Precipitación	0
33512	7	Sololá	717	San Juan la Laguna	12	San Juan la Laguna	1	Enero	2023-01-28T00:00:00	2024-11-08T22:00:00	8	Radiación solar	0
33513	7	Sololá	717	San Juan la Laguna	12	San Juan la Laguna	1	Enero	2023-01-28T00:00:00	2024-11-08T23:00:00	2	Temperatura media	18.4
33514	7	Sololá	717	San Juan la Laguna	12	San Juan la Laguna	1	Enero	2023-01-28T00:00:00	2024-11-08T23:00:00	4	Temperatura máxima	18.4
33515	7	Sololá	717	San Juan la Laguna	12	San Juan la Laguna	1	Enero	2023-01-28T00:00:00	2024-11-08T23:00:00	3	Temperatura mínima	17.9
33516	7	Sololá	717	San Juan la Laguna	12	San Juan la Laguna	1	Enero	2023-01-28T00:00:00	2024-11-08T23:00:00	5	Humedad	49
33517	7	Sololá	717	San Juan la Laguna	12	San Juan la Laguna	1	Enero	2023-01-28T00:00:00	2024-11-08T23:00:00	6	Velocidad del viento	6.4
33518	7	Sololá	717	San Juan la Laguna	12	San Juan la Laguna	1	Enero	2023-01-28T00:00:00	2024-11-08T23:00:00	7	Dirección del viento	6.44
33519	7	Sololá	717	San Juan la Laguna	12	San Juan la Laguna	1	Enero	2023-01-28T00:00:00	2024-11-08T23:00:00	1	Precipitación	0
33520	7	Sololá	717	San Juan la Laguna	12	San Juan la Laguna	1	Enero	2023-01-28T00:00:00	2024-11-08T23:00:00	8	Radiación solar	0
33521	7	Sololá	717	San Juan la Laguna	12	San Juan la Laguna	1	Enero	2023-01-29T00:00:00	2024-11-08T00:00:00	2	Temperatura media	15.8
33522	7	Sololá	717	San Juan la Laguna	12	San Juan la Laguna	1	Enero	2023-01-29T00:00:00	2024-11-08T00:00:00	4	Temperatura máxima	18.4
33523	7	Sololá	717	San Juan la Laguna	12	San Juan la Laguna	1	Enero	2023-01-29T00:00:00	2024-11-08T00:00:00	3	Temperatura mínima	15.8
33524	7	Sololá	717	San Juan la Laguna	12	San Juan la Laguna	1	Enero	2023-01-29T00:00:00	2024-11-08T00:00:00	5	Humedad	48
33525	7	Sololá	717	San Juan la Laguna	12	San Juan la Laguna	1	Enero	2023-01-29T00:00:00	2024-11-08T00:00:00	6	Velocidad del viento	3.2
33526	7	Sololá	717	San Juan la Laguna	12	San Juan la Laguna	1	Enero	2023-01-29T00:00:00	2024-11-08T00:00:00	7	Dirección del viento	3.22
33527	7	Sololá	717	San Juan la Laguna	12	San Juan la Laguna	1	Enero	2023-01-29T00:00:00	2024-11-08T00:00:00	1	Precipitación	0
33528	7	Sololá	717	San Juan la Laguna	12	San Juan la Laguna	1	Enero	2023-01-29T00:00:00	2024-11-08T00:00:00	8	Radiación solar	0
33529	7	Sololá	717	San Juan la Laguna	12	San Juan la Laguna	1	Enero	2023-01-29T00:00:00	2024-11-08T01:00:00	2	Temperatura media	13.1
33530	7	Sololá	717	San Juan la Laguna	12	San Juan la Laguna	1	Enero	2023-01-29T00:00:00	2024-11-08T01:00:00	4	Temperatura máxima	15.8
33531	7	Sololá	717	San Juan la Laguna	12	San Juan la Laguna	1	Enero	2023-01-29T00:00:00	2024-11-08T01:00:00	3	Temperatura mínima	13.1
33532	7	Sololá	717	San Juan la Laguna	12	San Juan la Laguna	1	Enero	2023-01-29T00:00:00	2024-11-08T01:00:00	5	Humedad	49
33533	7	Sololá	717	San Juan la Laguna	12	San Juan la Laguna	1	Enero	2023-01-29T00:00:00	2024-11-08T01:00:00	6	Velocidad del viento	1.6
33534	7	Sololá	717	San Juan la Laguna	12	San Juan la Laguna	1	Enero	2023-01-29T00:00:00	2024-11-08T01:00:00	7	Dirección del viento	1.61
33535	7	Sololá	717	San Juan la Laguna	12	San Juan la Laguna	1	Enero	2023-01-29T00:00:00	2024-11-08T01:00:00	1	Precipitación	0
33536	7	Sololá	717	San Juan la Laguna	12	San Juan la Laguna	1	Enero	2023-01-29T00:00:00	2024-11-08T01:00:00	8	Radiación solar	0
33537	7	Sololá	717	San Juan la Laguna	12	San Juan la Laguna	1	Enero	2023-01-29T00:00:00	2024-11-08T02:00:00	2	Temperatura media	11.3
33538	7	Sololá	717	San Juan la Laguna	12	San Juan la Laguna	1	Enero	2023-01-29T00:00:00	2024-11-08T02:00:00	4	Temperatura máxima	13
33539	7	Sololá	717	San Juan la Laguna	12	San Juan la Laguna	1	Enero	2023-01-29T00:00:00	2024-11-08T02:00:00	3	Temperatura mínima	11.3
33540	7	Sololá	717	San Juan la Laguna	12	San Juan la Laguna	1	Enero	2023-01-29T00:00:00	2024-11-08T02:00:00	5	Humedad	49
33541	7	Sololá	717	San Juan la Laguna	12	San Juan la Laguna	1	Enero	2023-01-29T00:00:00	2024-11-08T02:00:00	6	Velocidad del viento	3.2
33542	7	Sololá	717	San Juan la Laguna	12	San Juan la Laguna	1	Enero	2023-01-29T00:00:00	2024-11-08T02:00:00	7	Dirección del viento	3.22
33543	7	Sololá	717	San Juan la Laguna	12	San Juan la Laguna	1	Enero	2023-01-29T00:00:00	2024-11-08T02:00:00	1	Precipitación	0
33544	7	Sololá	717	San Juan la Laguna	12	San Juan la Laguna	1	Enero	2023-01-29T00:00:00	2024-11-08T02:00:00	8	Radiación solar	0
33545	7	Sololá	717	San Juan la Laguna	12	San Juan la Laguna	1	Enero	2023-01-29T00:00:00	2024-11-08T03:00:00	2	Temperatura media	11.5
33546	7	Sololá	717	San Juan la Laguna	12	San Juan la Laguna	1	Enero	2023-01-29T00:00:00	2024-11-08T03:00:00	4	Temperatura máxima	11.7
33547	7	Sololá	717	San Juan la Laguna	12	San Juan la Laguna	1	Enero	2023-01-29T00:00:00	2024-11-08T03:00:00	3	Temperatura mínima	10.8
33548	7	Sololá	717	San Juan la Laguna	12	San Juan la Laguna	1	Enero	2023-01-29T00:00:00	2024-11-08T03:00:00	5	Humedad	46
33549	7	Sololá	717	San Juan la Laguna	12	San Juan la Laguna	1	Enero	2023-01-29T00:00:00	2024-11-08T03:00:00	6	Velocidad del viento	4.8
33550	7	Sololá	717	San Juan la Laguna	12	San Juan la Laguna	1	Enero	2023-01-29T00:00:00	2024-11-08T03:00:00	7	Dirección del viento	4.83
33551	7	Sololá	717	San Juan la Laguna	12	San Juan la Laguna	1	Enero	2023-01-29T00:00:00	2024-11-08T03:00:00	1	Precipitación	0
33552	7	Sololá	717	San Juan la Laguna	12	San Juan la Laguna	1	Enero	2023-01-29T00:00:00	2024-11-08T03:00:00	8	Radiación solar	0
33553	7	Sololá	717	San Juan la Laguna	12	San Juan la Laguna	1	Enero	2023-01-29T00:00:00	2024-11-08T04:00:00	2	Temperatura media	10.9
33554	7	Sololá	717	San Juan la Laguna	12	San Juan la Laguna	1	Enero	2023-01-29T00:00:00	2024-11-08T04:00:00	4	Temperatura máxima	11.6
33555	7	Sololá	717	San Juan la Laguna	12	San Juan la Laguna	1	Enero	2023-01-29T00:00:00	2024-11-08T04:00:00	3	Temperatura mínima	10.8
33556	7	Sololá	717	San Juan la Laguna	12	San Juan la Laguna	1	Enero	2023-01-29T00:00:00	2024-11-08T04:00:00	5	Humedad	49
33557	7	Sololá	717	San Juan la Laguna	12	San Juan la Laguna	1	Enero	2023-01-29T00:00:00	2024-11-08T04:00:00	6	Velocidad del viento	4.8
33558	7	Sololá	717	San Juan la Laguna	12	San Juan la Laguna	1	Enero	2023-01-29T00:00:00	2024-11-08T04:00:00	7	Dirección del viento	4.83
33559	7	Sololá	717	San Juan la Laguna	12	San Juan la Laguna	1	Enero	2023-01-29T00:00:00	2024-11-08T04:00:00	1	Precipitación	0
33560	7	Sololá	717	San Juan la Laguna	12	San Juan la Laguna	1	Enero	2023-01-29T00:00:00	2024-11-08T04:00:00	8	Radiación solar	0
33561	7	Sololá	717	San Juan la Laguna	12	San Juan la Laguna	1	Enero	2023-01-29T00:00:00	2024-11-08T05:00:00	2	Temperatura media	10
33562	7	Sololá	717	San Juan la Laguna	12	San Juan la Laguna	1	Enero	2023-01-29T00:00:00	2024-11-08T05:00:00	4	Temperatura máxima	10.9
33563	7	Sololá	717	San Juan la Laguna	12	San Juan la Laguna	1	Enero	2023-01-29T00:00:00	2024-11-08T05:00:00	3	Temperatura mínima	10
33564	7	Sololá	717	San Juan la Laguna	12	San Juan la Laguna	1	Enero	2023-01-29T00:00:00	2024-11-08T05:00:00	5	Humedad	56
33565	7	Sololá	717	San Juan la Laguna	12	San Juan la Laguna	1	Enero	2023-01-29T00:00:00	2024-11-08T05:00:00	6	Velocidad del viento	4.8
33566	7	Sololá	717	San Juan la Laguna	12	San Juan la Laguna	1	Enero	2023-01-29T00:00:00	2024-11-08T05:00:00	7	Dirección del viento	4.83
33567	7	Sololá	717	San Juan la Laguna	12	San Juan la Laguna	1	Enero	2023-01-29T00:00:00	2024-11-08T05:00:00	1	Precipitación	0
33568	7	Sololá	717	San Juan la Laguna	12	San Juan la Laguna	1	Enero	2023-01-29T00:00:00	2024-11-08T05:00:00	8	Radiación solar	0
33569	7	Sololá	717	San Juan la Laguna	12	San Juan la Laguna	1	Enero	2023-01-29T00:00:00	2024-11-08T06:00:00	2	Temperatura media	9.7
33570	7	Sololá	717	San Juan la Laguna	12	San Juan la Laguna	1	Enero	2023-01-29T00:00:00	2024-11-08T06:00:00	4	Temperatura máxima	10.2
33571	7	Sololá	717	San Juan la Laguna	12	San Juan la Laguna	1	Enero	2023-01-29T00:00:00	2024-11-08T06:00:00	3	Temperatura mínima	9.7
33572	7	Sololá	717	San Juan la Laguna	12	San Juan la Laguna	1	Enero	2023-01-29T00:00:00	2024-11-08T06:00:00	5	Humedad	58
33573	7	Sololá	717	San Juan la Laguna	12	San Juan la Laguna	1	Enero	2023-01-29T00:00:00	2024-11-08T06:00:00	6	Velocidad del viento	4.8
33574	7	Sololá	717	San Juan la Laguna	12	San Juan la Laguna	1	Enero	2023-01-29T00:00:00	2024-11-08T06:00:00	7	Dirección del viento	4.83
33575	7	Sololá	717	San Juan la Laguna	12	San Juan la Laguna	1	Enero	2023-01-29T00:00:00	2024-11-08T06:00:00	1	Precipitación	0
33576	7	Sololá	717	San Juan la Laguna	12	San Juan la Laguna	1	Enero	2023-01-29T00:00:00	2024-11-08T06:00:00	8	Radiación solar	0
33577	7	Sololá	717	San Juan la Laguna	12	San Juan la Laguna	1	Enero	2023-01-29T00:00:00	2024-11-08T07:00:00	2	Temperatura media	9.8
33578	7	Sololá	717	San Juan la Laguna	12	San Juan la Laguna	1	Enero	2023-01-29T00:00:00	2024-11-08T07:00:00	4	Temperatura máxima	9.8
33579	7	Sololá	717	San Juan la Laguna	12	San Juan la Laguna	1	Enero	2023-01-29T00:00:00	2024-11-08T07:00:00	3	Temperatura mínima	9.4
33580	7	Sololá	717	San Juan la Laguna	12	San Juan la Laguna	1	Enero	2023-01-29T00:00:00	2024-11-08T07:00:00	5	Humedad	57
33581	7	Sololá	717	San Juan la Laguna	12	San Juan la Laguna	1	Enero	2023-01-29T00:00:00	2024-11-08T07:00:00	6	Velocidad del viento	4.8
33582	7	Sololá	717	San Juan la Laguna	12	San Juan la Laguna	1	Enero	2023-01-29T00:00:00	2024-11-08T07:00:00	7	Dirección del viento	4.83
33583	7	Sololá	717	San Juan la Laguna	12	San Juan la Laguna	1	Enero	2023-01-29T00:00:00	2024-11-08T07:00:00	1	Precipitación	0
33584	7	Sololá	717	San Juan la Laguna	12	San Juan la Laguna	1	Enero	2023-01-29T00:00:00	2024-11-08T07:00:00	8	Radiación solar	4
33585	7	Sololá	717	San Juan la Laguna	12	San Juan la Laguna	1	Enero	2023-01-29T00:00:00	2024-11-08T08:00:00	2	Temperatura media	12.3
33586	7	Sololá	717	San Juan la Laguna	12	San Juan la Laguna	1	Enero	2023-01-29T00:00:00	2024-11-08T08:00:00	4	Temperatura máxima	12.3
33587	7	Sololá	717	San Juan la Laguna	12	San Juan la Laguna	1	Enero	2023-01-29T00:00:00	2024-11-08T08:00:00	3	Temperatura mínima	9.8
33588	7	Sololá	717	San Juan la Laguna	12	San Juan la Laguna	1	Enero	2023-01-29T00:00:00	2024-11-08T08:00:00	5	Humedad	59
33589	7	Sololá	717	San Juan la Laguna	12	San Juan la Laguna	1	Enero	2023-01-29T00:00:00	2024-11-08T08:00:00	6	Velocidad del viento	4.8
33590	7	Sololá	717	San Juan la Laguna	12	San Juan la Laguna	1	Enero	2023-01-29T00:00:00	2024-11-08T08:00:00	7	Dirección del viento	4.83
33591	7	Sololá	717	San Juan la Laguna	12	San Juan la Laguna	1	Enero	2023-01-29T00:00:00	2024-11-08T08:00:00	1	Precipitación	0
33592	7	Sololá	717	San Juan la Laguna	12	San Juan la Laguna	1	Enero	2023-01-29T00:00:00	2024-11-08T08:00:00	8	Radiación solar	125
33593	7	Sololá	717	San Juan la Laguna	12	San Juan la Laguna	1	Enero	2023-01-29T00:00:00	2024-11-08T09:00:00	2	Temperatura media	18.6
33594	7	Sololá	717	San Juan la Laguna	12	San Juan la Laguna	1	Enero	2023-01-29T00:00:00	2024-11-08T09:00:00	4	Temperatura máxima	18.6
33595	7	Sololá	717	San Juan la Laguna	12	San Juan la Laguna	1	Enero	2023-01-29T00:00:00	2024-11-08T09:00:00	3	Temperatura mínima	12.4
33596	7	Sololá	717	San Juan la Laguna	12	San Juan la Laguna	1	Enero	2023-01-29T00:00:00	2024-11-08T09:00:00	5	Humedad	43
33597	7	Sololá	717	San Juan la Laguna	12	San Juan la Laguna	1	Enero	2023-01-29T00:00:00	2024-11-08T09:00:00	6	Velocidad del viento	0
33598	7	Sololá	717	San Juan la Laguna	12	San Juan la Laguna	1	Enero	2023-01-29T00:00:00	2024-11-08T09:00:00	7	Dirección del viento	0
33599	7	Sololá	717	San Juan la Laguna	12	San Juan la Laguna	1	Enero	2023-01-29T00:00:00	2024-11-08T09:00:00	1	Precipitación	0
33600	7	Sololá	717	San Juan la Laguna	12	San Juan la Laguna	1	Enero	2023-01-29T00:00:00	2024-11-08T09:00:00	8	Radiación solar	367
33601	7	Sololá	717	San Juan la Laguna	12	San Juan la Laguna	1	Enero	2023-01-29T00:00:00	2024-11-08T10:00:00	2	Temperatura media	20.4
33602	7	Sololá	717	San Juan la Laguna	12	San Juan la Laguna	1	Enero	2023-01-29T00:00:00	2024-11-08T10:00:00	4	Temperatura máxima	20.4
33603	7	Sololá	717	San Juan la Laguna	12	San Juan la Laguna	1	Enero	2023-01-29T00:00:00	2024-11-08T10:00:00	3	Temperatura mínima	18.4
33604	7	Sololá	717	San Juan la Laguna	12	San Juan la Laguna	1	Enero	2023-01-29T00:00:00	2024-11-08T10:00:00	5	Humedad	41
33605	7	Sololá	717	San Juan la Laguna	12	San Juan la Laguna	1	Enero	2023-01-29T00:00:00	2024-11-08T10:00:00	6	Velocidad del viento	3.2
33606	7	Sololá	717	San Juan la Laguna	12	San Juan la Laguna	1	Enero	2023-01-29T00:00:00	2024-11-08T10:00:00	7	Dirección del viento	3.22
33607	7	Sololá	717	San Juan la Laguna	12	San Juan la Laguna	1	Enero	2023-01-29T00:00:00	2024-11-08T10:00:00	1	Precipitación	0
33608	7	Sololá	717	San Juan la Laguna	12	San Juan la Laguna	1	Enero	2023-01-29T00:00:00	2024-11-08T10:00:00	8	Radiación solar	566
33609	7	Sololá	717	San Juan la Laguna	12	San Juan la Laguna	1	Enero	2023-01-29T00:00:00	2024-11-08T11:00:00	2	Temperatura media	22.3
33610	7	Sololá	717	San Juan la Laguna	12	San Juan la Laguna	1	Enero	2023-01-29T00:00:00	2024-11-08T11:00:00	4	Temperatura máxima	22.3
33611	7	Sololá	717	San Juan la Laguna	12	San Juan la Laguna	1	Enero	2023-01-29T00:00:00	2024-11-08T11:00:00	3	Temperatura mínima	20.4
33612	7	Sololá	717	San Juan la Laguna	12	San Juan la Laguna	1	Enero	2023-01-29T00:00:00	2024-11-08T11:00:00	5	Humedad	37
33613	7	Sololá	717	San Juan la Laguna	12	San Juan la Laguna	1	Enero	2023-01-29T00:00:00	2024-11-08T11:00:00	6	Velocidad del viento	4.8
33614	7	Sololá	717	San Juan la Laguna	12	San Juan la Laguna	1	Enero	2023-01-29T00:00:00	2024-11-08T11:00:00	7	Dirección del viento	4.83
33615	7	Sololá	717	San Juan la Laguna	12	San Juan la Laguna	1	Enero	2023-01-29T00:00:00	2024-11-08T11:00:00	1	Precipitación	0
33616	7	Sololá	717	San Juan la Laguna	12	San Juan la Laguna	1	Enero	2023-01-29T00:00:00	2024-11-08T11:00:00	8	Radiación solar	704
33617	7	Sololá	717	San Juan la Laguna	12	San Juan la Laguna	1	Enero	2023-01-29T00:00:00	2024-11-08T12:00:00	2	Temperatura media	24.7
33618	7	Sololá	717	San Juan la Laguna	12	San Juan la Laguna	1	Enero	2023-01-29T00:00:00	2024-11-08T12:00:00	4	Temperatura máxima	25.1
33619	7	Sololá	717	San Juan la Laguna	12	San Juan la Laguna	1	Enero	2023-01-29T00:00:00	2024-11-08T12:00:00	3	Temperatura mínima	22.1
33620	7	Sololá	717	San Juan la Laguna	12	San Juan la Laguna	1	Enero	2023-01-29T00:00:00	2024-11-08T12:00:00	5	Humedad	25
33621	7	Sololá	717	San Juan la Laguna	12	San Juan la Laguna	1	Enero	2023-01-29T00:00:00	2024-11-08T12:00:00	6	Velocidad del viento	8
33622	7	Sololá	717	San Juan la Laguna	12	San Juan la Laguna	1	Enero	2023-01-29T00:00:00	2024-11-08T12:00:00	7	Dirección del viento	8.05
33623	7	Sololá	717	San Juan la Laguna	12	San Juan la Laguna	1	Enero	2023-01-29T00:00:00	2024-11-08T12:00:00	1	Precipitación	0
33624	7	Sololá	717	San Juan la Laguna	12	San Juan la Laguna	1	Enero	2023-01-29T00:00:00	2024-11-08T12:00:00	8	Radiación solar	713
33625	7	Sololá	717	San Juan la Laguna	12	San Juan la Laguna	1	Enero	2023-01-29T00:00:00	2024-11-08T13:00:00	2	Temperatura media	24.4
33626	7	Sololá	717	San Juan la Laguna	12	San Juan la Laguna	1	Enero	2023-01-29T00:00:00	2024-11-08T13:00:00	4	Temperatura máxima	25.1
33627	7	Sololá	717	San Juan la Laguna	12	San Juan la Laguna	1	Enero	2023-01-29T00:00:00	2024-11-08T13:00:00	3	Temperatura mínima	24.1
33628	7	Sololá	717	San Juan la Laguna	12	San Juan la Laguna	1	Enero	2023-01-29T00:00:00	2024-11-08T13:00:00	5	Humedad	33
33629	7	Sololá	717	San Juan la Laguna	12	San Juan la Laguna	1	Enero	2023-01-29T00:00:00	2024-11-08T13:00:00	6	Velocidad del viento	6.4
33630	7	Sololá	717	San Juan la Laguna	12	San Juan la Laguna	1	Enero	2023-01-29T00:00:00	2024-11-08T13:00:00	7	Dirección del viento	6.44
33631	7	Sololá	717	San Juan la Laguna	12	San Juan la Laguna	1	Enero	2023-01-29T00:00:00	2024-11-08T13:00:00	1	Precipitación	0
33632	7	Sololá	717	San Juan la Laguna	12	San Juan la Laguna	1	Enero	2023-01-29T00:00:00	2024-11-08T13:00:00	8	Radiación solar	843
33633	7	Sololá	717	San Juan la Laguna	12	San Juan la Laguna	1	Enero	2023-01-29T00:00:00	2024-11-08T14:00:00	2	Temperatura media	24
33634	7	Sololá	717	San Juan la Laguna	12	San Juan la Laguna	1	Enero	2023-01-29T00:00:00	2024-11-08T14:00:00	4	Temperatura máxima	25.3
33635	7	Sololá	717	San Juan la Laguna	12	San Juan la Laguna	1	Enero	2023-01-29T00:00:00	2024-11-08T14:00:00	3	Temperatura mínima	24
33636	7	Sololá	717	San Juan la Laguna	12	San Juan la Laguna	1	Enero	2023-01-29T00:00:00	2024-11-08T14:00:00	5	Humedad	46
33637	7	Sololá	717	San Juan la Laguna	12	San Juan la Laguna	1	Enero	2023-01-29T00:00:00	2024-11-08T14:00:00	6	Velocidad del viento	6.4
33638	7	Sololá	717	San Juan la Laguna	12	San Juan la Laguna	1	Enero	2023-01-29T00:00:00	2024-11-08T14:00:00	7	Dirección del viento	6.44
33639	7	Sololá	717	San Juan la Laguna	12	San Juan la Laguna	1	Enero	2023-01-29T00:00:00	2024-11-08T14:00:00	1	Precipitación	0
33640	7	Sololá	717	San Juan la Laguna	12	San Juan la Laguna	1	Enero	2023-01-29T00:00:00	2024-11-08T14:00:00	8	Radiación solar	789
33641	7	Sololá	717	San Juan la Laguna	12	San Juan la Laguna	1	Enero	2023-01-29T00:00:00	2024-11-08T15:00:00	2	Temperatura media	22.5
33642	7	Sololá	717	San Juan la Laguna	12	San Juan la Laguna	1	Enero	2023-01-29T00:00:00	2024-11-08T15:00:00	4	Temperatura máxima	23.9
33643	7	Sololá	717	San Juan la Laguna	12	San Juan la Laguna	1	Enero	2023-01-29T00:00:00	2024-11-08T15:00:00	3	Temperatura mínima	22.5
33644	7	Sololá	717	San Juan la Laguna	12	San Juan la Laguna	1	Enero	2023-01-29T00:00:00	2024-11-08T15:00:00	5	Humedad	52
33645	7	Sololá	717	San Juan la Laguna	12	San Juan la Laguna	1	Enero	2023-01-29T00:00:00	2024-11-08T15:00:00	6	Velocidad del viento	14.5
33646	7	Sololá	717	San Juan la Laguna	12	San Juan la Laguna	1	Enero	2023-01-29T00:00:00	2024-11-08T15:00:00	7	Dirección del viento	14.48
33647	7	Sololá	717	San Juan la Laguna	12	San Juan la Laguna	1	Enero	2023-01-29T00:00:00	2024-11-08T15:00:00	1	Precipitación	0
33648	7	Sololá	717	San Juan la Laguna	12	San Juan la Laguna	1	Enero	2023-01-29T00:00:00	2024-11-08T15:00:00	8	Radiación solar	657
33649	7	Sololá	717	San Juan la Laguna	12	San Juan la Laguna	1	Enero	2023-01-29T00:00:00	2024-11-08T16:00:00	2	Temperatura media	21.9
33650	7	Sololá	717	San Juan la Laguna	12	San Juan la Laguna	1	Enero	2023-01-29T00:00:00	2024-11-08T16:00:00	4	Temperatura máxima	22.7
33651	7	Sololá	717	San Juan la Laguna	12	San Juan la Laguna	1	Enero	2023-01-29T00:00:00	2024-11-08T16:00:00	3	Temperatura mínima	21.9
33652	7	Sololá	717	San Juan la Laguna	12	San Juan la Laguna	1	Enero	2023-01-29T00:00:00	2024-11-08T16:00:00	5	Humedad	56
33653	7	Sololá	717	San Juan la Laguna	12	San Juan la Laguna	1	Enero	2023-01-29T00:00:00	2024-11-08T16:00:00	6	Velocidad del viento	12.9
33654	7	Sololá	717	San Juan la Laguna	12	San Juan la Laguna	1	Enero	2023-01-29T00:00:00	2024-11-08T16:00:00	7	Dirección del viento	12.87
33655	7	Sololá	717	San Juan la Laguna	12	San Juan la Laguna	1	Enero	2023-01-29T00:00:00	2024-11-08T16:00:00	1	Precipitación	0
33656	7	Sololá	717	San Juan la Laguna	12	San Juan la Laguna	1	Enero	2023-01-29T00:00:00	2024-11-08T16:00:00	8	Radiación solar	481
33657	7	Sololá	717	San Juan la Laguna	12	San Juan la Laguna	1	Enero	2023-01-29T00:00:00	2024-11-08T17:00:00	2	Temperatura media	21.5
33658	7	Sololá	717	San Juan la Laguna	12	San Juan la Laguna	1	Enero	2023-01-29T00:00:00	2024-11-08T17:00:00	4	Temperatura máxima	21.9
33659	7	Sololá	717	San Juan la Laguna	12	San Juan la Laguna	1	Enero	2023-01-29T00:00:00	2024-11-08T17:00:00	3	Temperatura mínima	21.5
33660	7	Sololá	717	San Juan la Laguna	12	San Juan la Laguna	1	Enero	2023-01-29T00:00:00	2024-11-08T17:00:00	5	Humedad	58
33661	7	Sololá	717	San Juan la Laguna	12	San Juan la Laguna	1	Enero	2023-01-29T00:00:00	2024-11-08T17:00:00	6	Velocidad del viento	6.4
33662	7	Sololá	717	San Juan la Laguna	12	San Juan la Laguna	1	Enero	2023-01-29T00:00:00	2024-11-08T17:00:00	7	Dirección del viento	6.44
33663	7	Sololá	717	San Juan la Laguna	12	San Juan la Laguna	1	Enero	2023-01-29T00:00:00	2024-11-08T17:00:00	1	Precipitación	0
33664	7	Sololá	717	San Juan la Laguna	12	San Juan la Laguna	1	Enero	2023-01-29T00:00:00	2024-11-08T17:00:00	8	Radiación solar	259
33665	7	Sololá	717	San Juan la Laguna	12	San Juan la Laguna	1	Enero	2023-01-29T00:00:00	2024-11-08T18:00:00	2	Temperatura media	18.3
33666	7	Sololá	717	San Juan la Laguna	12	San Juan la Laguna	1	Enero	2023-01-29T00:00:00	2024-11-08T18:00:00	4	Temperatura máxima	21.5
33667	7	Sololá	717	San Juan la Laguna	12	San Juan la Laguna	1	Enero	2023-01-29T00:00:00	2024-11-08T18:00:00	3	Temperatura mínima	18.3
33668	7	Sololá	717	San Juan la Laguna	12	San Juan la Laguna	1	Enero	2023-01-29T00:00:00	2024-11-08T18:00:00	5	Humedad	70
33669	7	Sololá	717	San Juan la Laguna	12	San Juan la Laguna	1	Enero	2023-01-29T00:00:00	2024-11-08T18:00:00	6	Velocidad del viento	1.6
33670	7	Sololá	717	San Juan la Laguna	12	San Juan la Laguna	1	Enero	2023-01-29T00:00:00	2024-11-08T18:00:00	7	Dirección del viento	1.61
33671	7	Sololá	717	San Juan la Laguna	12	San Juan la Laguna	1	Enero	2023-01-29T00:00:00	2024-11-08T18:00:00	1	Precipitación	0
33672	7	Sololá	717	San Juan la Laguna	12	San Juan la Laguna	1	Enero	2023-01-29T00:00:00	2024-11-08T18:00:00	8	Radiación solar	22
33673	7	Sololá	717	San Juan la Laguna	12	San Juan la Laguna	1	Enero	2023-01-29T00:00:00	2024-11-08T19:00:00	2	Temperatura media	16.1
33674	7	Sololá	717	San Juan la Laguna	12	San Juan la Laguna	1	Enero	2023-01-29T00:00:00	2024-11-08T19:00:00	4	Temperatura máxima	18.3
33675	7	Sololá	717	San Juan la Laguna	12	San Juan la Laguna	1	Enero	2023-01-29T00:00:00	2024-11-08T19:00:00	3	Temperatura mínima	16
33676	7	Sololá	717	San Juan la Laguna	12	San Juan la Laguna	1	Enero	2023-01-29T00:00:00	2024-11-08T19:00:00	5	Humedad	76
33677	7	Sololá	717	San Juan la Laguna	12	San Juan la Laguna	1	Enero	2023-01-29T00:00:00	2024-11-08T19:00:00	6	Velocidad del viento	1.6
33678	7	Sololá	717	San Juan la Laguna	12	San Juan la Laguna	1	Enero	2023-01-29T00:00:00	2024-11-08T19:00:00	7	Dirección del viento	1.61
33679	7	Sololá	717	San Juan la Laguna	12	San Juan la Laguna	1	Enero	2023-01-29T00:00:00	2024-11-08T19:00:00	1	Precipitación	0
33680	7	Sololá	717	San Juan la Laguna	12	San Juan la Laguna	1	Enero	2023-01-29T00:00:00	2024-11-08T19:00:00	8	Radiación solar	0
33681	7	Sololá	717	San Juan la Laguna	12	San Juan la Laguna	1	Enero	2023-01-29T00:00:00	2024-11-08T20:00:00	2	Temperatura media	15.4
33682	7	Sololá	717	San Juan la Laguna	12	San Juan la Laguna	1	Enero	2023-01-29T00:00:00	2024-11-08T20:00:00	4	Temperatura máxima	16
33683	7	Sololá	717	San Juan la Laguna	12	San Juan la Laguna	1	Enero	2023-01-29T00:00:00	2024-11-08T20:00:00	3	Temperatura mínima	15.3
33684	7	Sololá	717	San Juan la Laguna	12	San Juan la Laguna	1	Enero	2023-01-29T00:00:00	2024-11-08T20:00:00	5	Humedad	75
33685	7	Sololá	717	San Juan la Laguna	12	San Juan la Laguna	1	Enero	2023-01-29T00:00:00	2024-11-08T20:00:00	6	Velocidad del viento	1.6
33686	7	Sololá	717	San Juan la Laguna	12	San Juan la Laguna	1	Enero	2023-01-29T00:00:00	2024-11-08T20:00:00	7	Dirección del viento	1.61
33687	7	Sololá	717	San Juan la Laguna	12	San Juan la Laguna	1	Enero	2023-01-29T00:00:00	2024-11-08T20:00:00	1	Precipitación	0
33688	7	Sololá	717	San Juan la Laguna	12	San Juan la Laguna	1	Enero	2023-01-29T00:00:00	2024-11-08T20:00:00	8	Radiación solar	0
33689	7	Sololá	717	San Juan la Laguna	12	San Juan la Laguna	1	Enero	2023-01-29T00:00:00	2024-11-08T21:00:00	2	Temperatura media	17.5
33690	7	Sololá	717	San Juan la Laguna	12	San Juan la Laguna	1	Enero	2023-01-29T00:00:00	2024-11-08T21:00:00	4	Temperatura máxima	17.6
33691	7	Sololá	717	San Juan la Laguna	12	San Juan la Laguna	1	Enero	2023-01-29T00:00:00	2024-11-08T21:00:00	3	Temperatura mínima	15.1
33692	7	Sololá	717	San Juan la Laguna	12	San Juan la Laguna	1	Enero	2023-01-29T00:00:00	2024-11-08T21:00:00	5	Humedad	67
33693	7	Sololá	717	San Juan la Laguna	12	San Juan la Laguna	1	Enero	2023-01-29T00:00:00	2024-11-08T21:00:00	6	Velocidad del viento	1.6
33694	7	Sololá	717	San Juan la Laguna	12	San Juan la Laguna	1	Enero	2023-01-29T00:00:00	2024-11-08T21:00:00	7	Dirección del viento	1.61
33695	7	Sololá	717	San Juan la Laguna	12	San Juan la Laguna	1	Enero	2023-01-29T00:00:00	2024-11-08T21:00:00	1	Precipitación	0
33696	7	Sololá	717	San Juan la Laguna	12	San Juan la Laguna	1	Enero	2023-01-29T00:00:00	2024-11-08T21:00:00	8	Radiación solar	0
33697	7	Sololá	717	San Juan la Laguna	12	San Juan la Laguna	1	Enero	2023-01-29T00:00:00	2024-11-08T22:00:00	2	Temperatura media	14.1
33698	7	Sololá	717	San Juan la Laguna	12	San Juan la Laguna	1	Enero	2023-01-29T00:00:00	2024-11-08T22:00:00	4	Temperatura máxima	17.5
33699	7	Sololá	717	San Juan la Laguna	12	San Juan la Laguna	1	Enero	2023-01-29T00:00:00	2024-11-08T22:00:00	3	Temperatura mínima	14.1
33700	7	Sololá	717	San Juan la Laguna	12	San Juan la Laguna	1	Enero	2023-01-29T00:00:00	2024-11-08T22:00:00	5	Humedad	73
33701	7	Sololá	717	San Juan la Laguna	12	San Juan la Laguna	1	Enero	2023-01-29T00:00:00	2024-11-08T22:00:00	6	Velocidad del viento	3.2
33702	7	Sololá	717	San Juan la Laguna	12	San Juan la Laguna	1	Enero	2023-01-29T00:00:00	2024-11-08T22:00:00	7	Dirección del viento	3.22
33703	7	Sololá	717	San Juan la Laguna	12	San Juan la Laguna	1	Enero	2023-01-29T00:00:00	2024-11-08T22:00:00	1	Precipitación	0
33704	7	Sololá	717	San Juan la Laguna	12	San Juan la Laguna	1	Enero	2023-01-29T00:00:00	2024-11-08T22:00:00	8	Radiación solar	0
33705	7	Sololá	717	San Juan la Laguna	12	San Juan la Laguna	1	Enero	2023-01-29T00:00:00	2024-11-08T23:00:00	2	Temperatura media	13.5
33706	7	Sololá	717	San Juan la Laguna	12	San Juan la Laguna	1	Enero	2023-01-29T00:00:00	2024-11-08T23:00:00	4	Temperatura máxima	14.1
33707	7	Sololá	717	San Juan la Laguna	12	San Juan la Laguna	1	Enero	2023-01-29T00:00:00	2024-11-08T23:00:00	3	Temperatura mínima	13.5
33708	7	Sololá	717	San Juan la Laguna	12	San Juan la Laguna	1	Enero	2023-01-29T00:00:00	2024-11-08T23:00:00	5	Humedad	75
33709	7	Sololá	717	San Juan la Laguna	12	San Juan la Laguna	1	Enero	2023-01-29T00:00:00	2024-11-08T23:00:00	6	Velocidad del viento	4.8
33710	7	Sololá	717	San Juan la Laguna	12	San Juan la Laguna	1	Enero	2023-01-29T00:00:00	2024-11-08T23:00:00	7	Dirección del viento	4.83
33711	7	Sololá	717	San Juan la Laguna	12	San Juan la Laguna	1	Enero	2023-01-29T00:00:00	2024-11-08T23:00:00	1	Precipitación	0
33712	7	Sololá	717	San Juan la Laguna	12	San Juan la Laguna	1	Enero	2023-01-29T00:00:00	2024-11-08T23:00:00	8	Radiación solar	0
33713	7	Sololá	717	San Juan la Laguna	12	San Juan la Laguna	1	Enero	2023-01-30T00:00:00	2024-11-08T00:00:00	2	Temperatura media	12.9
33714	7	Sololá	717	San Juan la Laguna	12	San Juan la Laguna	1	Enero	2023-01-30T00:00:00	2024-11-08T00:00:00	4	Temperatura máxima	13.5
33715	7	Sololá	717	San Juan la Laguna	12	San Juan la Laguna	1	Enero	2023-01-30T00:00:00	2024-11-08T00:00:00	3	Temperatura mínima	12.9
33716	7	Sololá	717	San Juan la Laguna	12	San Juan la Laguna	1	Enero	2023-01-30T00:00:00	2024-11-08T00:00:00	5	Humedad	74
33717	7	Sololá	717	San Juan la Laguna	12	San Juan la Laguna	1	Enero	2023-01-30T00:00:00	2024-11-08T00:00:00	6	Velocidad del viento	4.8
33718	7	Sololá	717	San Juan la Laguna	12	San Juan la Laguna	1	Enero	2023-01-30T00:00:00	2024-11-08T00:00:00	7	Dirección del viento	4.83
33719	7	Sololá	717	San Juan la Laguna	12	San Juan la Laguna	1	Enero	2023-01-30T00:00:00	2024-11-08T00:00:00	1	Precipitación	0
33720	7	Sololá	717	San Juan la Laguna	12	San Juan la Laguna	1	Enero	2023-01-30T00:00:00	2024-11-08T00:00:00	8	Radiación solar	0
33721	7	Sololá	717	San Juan la Laguna	12	San Juan la Laguna	1	Enero	2023-01-30T00:00:00	2024-11-08T01:00:00	2	Temperatura media	12.3
33722	7	Sololá	717	San Juan la Laguna	12	San Juan la Laguna	1	Enero	2023-01-30T00:00:00	2024-11-08T01:00:00	4	Temperatura máxima	12.9
33723	7	Sololá	717	San Juan la Laguna	12	San Juan la Laguna	1	Enero	2023-01-30T00:00:00	2024-11-08T01:00:00	3	Temperatura mínima	12.3
33724	7	Sololá	717	San Juan la Laguna	12	San Juan la Laguna	1	Enero	2023-01-30T00:00:00	2024-11-08T01:00:00	5	Humedad	74
33725	7	Sololá	717	San Juan la Laguna	12	San Juan la Laguna	1	Enero	2023-01-30T00:00:00	2024-11-08T01:00:00	6	Velocidad del viento	4.8
33726	7	Sololá	717	San Juan la Laguna	12	San Juan la Laguna	1	Enero	2023-01-30T00:00:00	2024-11-08T01:00:00	7	Dirección del viento	4.83
33727	7	Sololá	717	San Juan la Laguna	12	San Juan la Laguna	1	Enero	2023-01-30T00:00:00	2024-11-08T01:00:00	1	Precipitación	0
33728	7	Sololá	717	San Juan la Laguna	12	San Juan la Laguna	1	Enero	2023-01-30T00:00:00	2024-11-08T01:00:00	8	Radiación solar	0
33729	7	Sololá	717	San Juan la Laguna	12	San Juan la Laguna	1	Enero	2023-01-30T00:00:00	2024-11-08T02:00:00	2	Temperatura media	11.7
33730	7	Sololá	717	San Juan la Laguna	12	San Juan la Laguna	1	Enero	2023-01-30T00:00:00	2024-11-08T02:00:00	4	Temperatura máxima	12.3
33731	7	Sololá	717	San Juan la Laguna	12	San Juan la Laguna	1	Enero	2023-01-30T00:00:00	2024-11-08T02:00:00	3	Temperatura mínima	11.7
33732	7	Sololá	717	San Juan la Laguna	12	San Juan la Laguna	1	Enero	2023-01-30T00:00:00	2024-11-08T02:00:00	5	Humedad	74
33733	7	Sololá	717	San Juan la Laguna	12	San Juan la Laguna	1	Enero	2023-01-30T00:00:00	2024-11-08T02:00:00	6	Velocidad del viento	3.2
33734	7	Sololá	717	San Juan la Laguna	12	San Juan la Laguna	1	Enero	2023-01-30T00:00:00	2024-11-08T02:00:00	7	Dirección del viento	3.22
33735	7	Sololá	717	San Juan la Laguna	12	San Juan la Laguna	1	Enero	2023-01-30T00:00:00	2024-11-08T02:00:00	1	Precipitación	0
33736	7	Sololá	717	San Juan la Laguna	12	San Juan la Laguna	1	Enero	2023-01-30T00:00:00	2024-11-08T02:00:00	8	Radiación solar	0
33737	7	Sololá	717	San Juan la Laguna	12	San Juan la Laguna	1	Enero	2023-01-30T00:00:00	2024-11-08T03:00:00	2	Temperatura media	11.6
33738	7	Sololá	717	San Juan la Laguna	12	San Juan la Laguna	1	Enero	2023-01-30T00:00:00	2024-11-08T03:00:00	4	Temperatura máxima	11.8
33739	7	Sololá	717	San Juan la Laguna	12	San Juan la Laguna	1	Enero	2023-01-30T00:00:00	2024-11-08T03:00:00	3	Temperatura mínima	11.4
33740	7	Sololá	717	San Juan la Laguna	12	San Juan la Laguna	1	Enero	2023-01-30T00:00:00	2024-11-08T03:00:00	5	Humedad	74
33741	7	Sololá	717	San Juan la Laguna	12	San Juan la Laguna	1	Enero	2023-01-30T00:00:00	2024-11-08T03:00:00	6	Velocidad del viento	4.8
33742	7	Sololá	717	San Juan la Laguna	12	San Juan la Laguna	1	Enero	2023-01-30T00:00:00	2024-11-08T03:00:00	7	Dirección del viento	4.83
33743	7	Sololá	717	San Juan la Laguna	12	San Juan la Laguna	1	Enero	2023-01-30T00:00:00	2024-11-08T03:00:00	1	Precipitación	0
33744	7	Sololá	717	San Juan la Laguna	12	San Juan la Laguna	1	Enero	2023-01-30T00:00:00	2024-11-08T03:00:00	8	Radiación solar	0
33745	7	Sololá	717	San Juan la Laguna	12	San Juan la Laguna	1	Enero	2023-01-30T00:00:00	2024-11-08T04:00:00	2	Temperatura media	10.7
33746	7	Sololá	717	San Juan la Laguna	12	San Juan la Laguna	1	Enero	2023-01-30T00:00:00	2024-11-08T04:00:00	4	Temperatura máxima	11.7
33747	7	Sololá	717	San Juan la Laguna	12	San Juan la Laguna	1	Enero	2023-01-30T00:00:00	2024-11-08T04:00:00	3	Temperatura mínima	10.6
33748	7	Sololá	717	San Juan la Laguna	12	San Juan la Laguna	1	Enero	2023-01-30T00:00:00	2024-11-08T04:00:00	5	Humedad	77
33749	7	Sololá	717	San Juan la Laguna	12	San Juan la Laguna	1	Enero	2023-01-30T00:00:00	2024-11-08T04:00:00	6	Velocidad del viento	3.2
33750	7	Sololá	717	San Juan la Laguna	12	San Juan la Laguna	1	Enero	2023-01-30T00:00:00	2024-11-08T04:00:00	7	Dirección del viento	3.22
33751	7	Sololá	717	San Juan la Laguna	12	San Juan la Laguna	1	Enero	2023-01-30T00:00:00	2024-11-08T04:00:00	1	Precipitación	0
33752	7	Sololá	717	San Juan la Laguna	12	San Juan la Laguna	1	Enero	2023-01-30T00:00:00	2024-11-08T04:00:00	8	Radiación solar	0
33753	7	Sololá	717	San Juan la Laguna	12	San Juan la Laguna	1	Enero	2023-01-30T00:00:00	2024-11-08T05:00:00	2	Temperatura media	10.1
33754	7	Sololá	717	San Juan la Laguna	12	San Juan la Laguna	1	Enero	2023-01-30T00:00:00	2024-11-08T05:00:00	4	Temperatura máxima	11.2
33755	7	Sololá	717	San Juan la Laguna	12	San Juan la Laguna	1	Enero	2023-01-30T00:00:00	2024-11-08T05:00:00	3	Temperatura mínima	10.1
33756	7	Sololá	717	San Juan la Laguna	12	San Juan la Laguna	1	Enero	2023-01-30T00:00:00	2024-11-08T05:00:00	5	Humedad	78
33757	7	Sololá	717	San Juan la Laguna	12	San Juan la Laguna	1	Enero	2023-01-30T00:00:00	2024-11-08T05:00:00	6	Velocidad del viento	3.2
33758	7	Sololá	717	San Juan la Laguna	12	San Juan la Laguna	1	Enero	2023-01-30T00:00:00	2024-11-08T05:00:00	7	Dirección del viento	3.22
33759	7	Sololá	717	San Juan la Laguna	12	San Juan la Laguna	1	Enero	2023-01-30T00:00:00	2024-11-08T05:00:00	1	Precipitación	0
33760	7	Sololá	717	San Juan la Laguna	12	San Juan la Laguna	1	Enero	2023-01-30T00:00:00	2024-11-08T05:00:00	8	Radiación solar	0
33761	7	Sololá	717	San Juan la Laguna	12	San Juan la Laguna	1	Enero	2023-01-30T00:00:00	2024-11-08T06:00:00	2	Temperatura media	10.8
33762	7	Sololá	717	San Juan la Laguna	12	San Juan la Laguna	1	Enero	2023-01-30T00:00:00	2024-11-08T06:00:00	4	Temperatura máxima	10.8
33763	7	Sololá	717	San Juan la Laguna	12	San Juan la Laguna	1	Enero	2023-01-30T00:00:00	2024-11-08T06:00:00	3	Temperatura mínima	10.1
33764	7	Sololá	717	San Juan la Laguna	12	San Juan la Laguna	1	Enero	2023-01-30T00:00:00	2024-11-08T06:00:00	5	Humedad	77
33765	7	Sololá	717	San Juan la Laguna	12	San Juan la Laguna	1	Enero	2023-01-30T00:00:00	2024-11-08T06:00:00	6	Velocidad del viento	3.2
33766	7	Sololá	717	San Juan la Laguna	12	San Juan la Laguna	1	Enero	2023-01-30T00:00:00	2024-11-08T06:00:00	7	Dirección del viento	3.22
33767	7	Sololá	717	San Juan la Laguna	12	San Juan la Laguna	1	Enero	2023-01-30T00:00:00	2024-11-08T06:00:00	1	Precipitación	0
33768	7	Sololá	717	San Juan la Laguna	12	San Juan la Laguna	1	Enero	2023-01-30T00:00:00	2024-11-08T06:00:00	8	Radiación solar	0
33769	7	Sololá	717	San Juan la Laguna	12	San Juan la Laguna	1	Enero	2023-01-30T00:00:00	2024-11-08T07:00:00	2	Temperatura media	10.6
33770	7	Sololá	717	San Juan la Laguna	12	San Juan la Laguna	1	Enero	2023-01-30T00:00:00	2024-11-08T07:00:00	4	Temperatura máxima	11.1
33771	7	Sololá	717	San Juan la Laguna	12	San Juan la Laguna	1	Enero	2023-01-30T00:00:00	2024-11-08T07:00:00	3	Temperatura mínima	10.2
33772	7	Sololá	717	San Juan la Laguna	12	San Juan la Laguna	1	Enero	2023-01-30T00:00:00	2024-11-08T07:00:00	5	Humedad	77
33773	7	Sololá	717	San Juan la Laguna	12	San Juan la Laguna	1	Enero	2023-01-30T00:00:00	2024-11-08T07:00:00	6	Velocidad del viento	1.6
33774	7	Sololá	717	San Juan la Laguna	12	San Juan la Laguna	1	Enero	2023-01-30T00:00:00	2024-11-08T07:00:00	7	Dirección del viento	1.61
33775	7	Sololá	717	San Juan la Laguna	12	San Juan la Laguna	1	Enero	2023-01-30T00:00:00	2024-11-08T07:00:00	1	Precipitación	0
33776	7	Sololá	717	San Juan la Laguna	12	San Juan la Laguna	1	Enero	2023-01-30T00:00:00	2024-11-08T07:00:00	8	Radiación solar	5
33777	7	Sololá	717	San Juan la Laguna	12	San Juan la Laguna	1	Enero	2023-01-30T00:00:00	2024-11-08T08:00:00	2	Temperatura media	13.6
33778	7	Sololá	717	San Juan la Laguna	12	San Juan la Laguna	1	Enero	2023-01-30T00:00:00	2024-11-08T08:00:00	4	Temperatura máxima	13.6
33779	7	Sololá	717	San Juan la Laguna	12	San Juan la Laguna	1	Enero	2023-01-30T00:00:00	2024-11-08T08:00:00	3	Temperatura mínima	10.6
33780	7	Sololá	717	San Juan la Laguna	12	San Juan la Laguna	1	Enero	2023-01-30T00:00:00	2024-11-08T08:00:00	5	Humedad	75
33781	7	Sololá	717	San Juan la Laguna	12	San Juan la Laguna	1	Enero	2023-01-30T00:00:00	2024-11-08T08:00:00	6	Velocidad del viento	1.6
33782	7	Sololá	717	San Juan la Laguna	12	San Juan la Laguna	1	Enero	2023-01-30T00:00:00	2024-11-08T08:00:00	7	Dirección del viento	1.61
33783	7	Sololá	717	San Juan la Laguna	12	San Juan la Laguna	1	Enero	2023-01-30T00:00:00	2024-11-08T08:00:00	1	Precipitación	0
33784	7	Sololá	717	San Juan la Laguna	12	San Juan la Laguna	1	Enero	2023-01-30T00:00:00	2024-11-08T08:00:00	8	Radiación solar	117
33785	7	Sololá	717	San Juan la Laguna	12	San Juan la Laguna	1	Enero	2023-01-30T00:00:00	2024-11-08T09:00:00	2	Temperatura media	18.1
33786	7	Sololá	717	San Juan la Laguna	12	San Juan la Laguna	1	Enero	2023-01-30T00:00:00	2024-11-08T09:00:00	4	Temperatura máxima	18.1
33787	7	Sololá	717	San Juan la Laguna	12	San Juan la Laguna	1	Enero	2023-01-30T00:00:00	2024-11-08T09:00:00	3	Temperatura mínima	13.6
33788	7	Sololá	717	San Juan la Laguna	12	San Juan la Laguna	1	Enero	2023-01-30T00:00:00	2024-11-08T09:00:00	5	Humedad	67
33789	7	Sololá	717	San Juan la Laguna	12	San Juan la Laguna	1	Enero	2023-01-30T00:00:00	2024-11-08T09:00:00	6	Velocidad del viento	0
33790	7	Sololá	717	San Juan la Laguna	12	San Juan la Laguna	1	Enero	2023-01-30T00:00:00	2024-11-08T09:00:00	7	Dirección del viento	0
33791	7	Sololá	717	San Juan la Laguna	12	San Juan la Laguna	1	Enero	2023-01-30T00:00:00	2024-11-08T09:00:00	1	Precipitación	0
33792	7	Sololá	717	San Juan la Laguna	12	San Juan la Laguna	1	Enero	2023-01-30T00:00:00	2024-11-08T09:00:00	8	Radiación solar	355
33793	7	Sololá	717	San Juan la Laguna	12	San Juan la Laguna	1	Enero	2023-01-30T00:00:00	2024-11-08T10:00:00	2	Temperatura media	19.1
33794	7	Sololá	717	San Juan la Laguna	12	San Juan la Laguna	1	Enero	2023-01-30T00:00:00	2024-11-08T10:00:00	4	Temperatura máxima	19.1
33795	7	Sololá	717	San Juan la Laguna	12	San Juan la Laguna	1	Enero	2023-01-30T00:00:00	2024-11-08T10:00:00	3	Temperatura mínima	17.8
33796	7	Sololá	717	San Juan la Laguna	12	San Juan la Laguna	1	Enero	2023-01-30T00:00:00	2024-11-08T10:00:00	5	Humedad	63
33797	7	Sololá	717	San Juan la Laguna	12	San Juan la Laguna	1	Enero	2023-01-30T00:00:00	2024-11-08T10:00:00	6	Velocidad del viento	1.6
33798	7	Sololá	717	San Juan la Laguna	12	San Juan la Laguna	1	Enero	2023-01-30T00:00:00	2024-11-08T10:00:00	7	Dirección del viento	1.61
33799	7	Sololá	717	San Juan la Laguna	12	San Juan la Laguna	1	Enero	2023-01-30T00:00:00	2024-11-08T10:00:00	1	Precipitación	0
33800	7	Sololá	717	San Juan la Laguna	12	San Juan la Laguna	1	Enero	2023-01-30T00:00:00	2024-11-08T10:00:00	8	Radiación solar	555
33801	7	Sololá	717	San Juan la Laguna	12	San Juan la Laguna	1	Enero	2023-01-30T00:00:00	2024-11-08T11:00:00	2	Temperatura media	20.5
33802	7	Sololá	717	San Juan la Laguna	12	San Juan la Laguna	1	Enero	2023-01-30T00:00:00	2024-11-08T11:00:00	4	Temperatura máxima	20.8
33803	7	Sololá	717	San Juan la Laguna	12	San Juan la Laguna	1	Enero	2023-01-30T00:00:00	2024-11-08T11:00:00	3	Temperatura mínima	18.6
33804	7	Sololá	717	San Juan la Laguna	12	San Juan la Laguna	1	Enero	2023-01-30T00:00:00	2024-11-08T11:00:00	5	Humedad	53
33805	7	Sololá	717	San Juan la Laguna	12	San Juan la Laguna	1	Enero	2023-01-30T00:00:00	2024-11-08T11:00:00	6	Velocidad del viento	3.2
33806	7	Sololá	717	San Juan la Laguna	12	San Juan la Laguna	1	Enero	2023-01-30T00:00:00	2024-11-08T11:00:00	7	Dirección del viento	3.22
33807	7	Sololá	717	San Juan la Laguna	12	San Juan la Laguna	1	Enero	2023-01-30T00:00:00	2024-11-08T11:00:00	1	Precipitación	0
33808	7	Sololá	717	San Juan la Laguna	12	San Juan la Laguna	1	Enero	2023-01-30T00:00:00	2024-11-08T11:00:00	8	Radiación solar	691
33809	7	Sololá	717	San Juan la Laguna	12	San Juan la Laguna	1	Enero	2023-01-30T00:00:00	2024-11-08T12:00:00	2	Temperatura media	23
33810	7	Sololá	717	San Juan la Laguna	12	San Juan la Laguna	1	Enero	2023-01-30T00:00:00	2024-11-08T12:00:00	4	Temperatura máxima	23.2
33811	7	Sololá	717	San Juan la Laguna	12	San Juan la Laguna	1	Enero	2023-01-30T00:00:00	2024-11-08T12:00:00	3	Temperatura mínima	20.5
33812	7	Sololá	717	San Juan la Laguna	12	San Juan la Laguna	1	Enero	2023-01-30T00:00:00	2024-11-08T12:00:00	5	Humedad	45
33813	7	Sololá	717	San Juan la Laguna	12	San Juan la Laguna	1	Enero	2023-01-30T00:00:00	2024-11-08T12:00:00	6	Velocidad del viento	3.2
33814	7	Sololá	717	San Juan la Laguna	12	San Juan la Laguna	1	Enero	2023-01-30T00:00:00	2024-11-08T12:00:00	7	Dirección del viento	3.22
33815	7	Sololá	717	San Juan la Laguna	12	San Juan la Laguna	1	Enero	2023-01-30T00:00:00	2024-11-08T12:00:00	1	Precipitación	0
33816	7	Sololá	717	San Juan la Laguna	12	San Juan la Laguna	1	Enero	2023-01-30T00:00:00	2024-11-08T12:00:00	8	Radiación solar	698
33817	7	Sololá	717	San Juan la Laguna	12	San Juan la Laguna	1	Enero	2023-01-30T00:00:00	2024-11-08T13:00:00	2	Temperatura media	22.3
33818	7	Sololá	717	San Juan la Laguna	12	San Juan la Laguna	1	Enero	2023-01-30T00:00:00	2024-11-08T13:00:00	4	Temperatura máxima	23.1
33819	7	Sololá	717	San Juan la Laguna	12	San Juan la Laguna	1	Enero	2023-01-30T00:00:00	2024-11-08T13:00:00	3	Temperatura mínima	21.1
33820	7	Sololá	717	San Juan la Laguna	12	San Juan la Laguna	1	Enero	2023-01-30T00:00:00	2024-11-08T13:00:00	5	Humedad	57
33821	7	Sololá	717	San Juan la Laguna	12	San Juan la Laguna	1	Enero	2023-01-30T00:00:00	2024-11-08T13:00:00	6	Velocidad del viento	6.4
33822	7	Sololá	717	San Juan la Laguna	12	San Juan la Laguna	1	Enero	2023-01-30T00:00:00	2024-11-08T13:00:00	7	Dirección del viento	6.44
33823	7	Sololá	717	San Juan la Laguna	12	San Juan la Laguna	1	Enero	2023-01-30T00:00:00	2024-11-08T13:00:00	1	Precipitación	0
33824	7	Sololá	717	San Juan la Laguna	12	San Juan la Laguna	1	Enero	2023-01-30T00:00:00	2024-11-08T13:00:00	8	Radiación solar	815
33825	7	Sololá	717	San Juan la Laguna	12	San Juan la Laguna	1	Enero	2023-01-30T00:00:00	2024-11-08T14:00:00	2	Temperatura media	22.8
33826	7	Sololá	717	San Juan la Laguna	12	San Juan la Laguna	1	Enero	2023-01-30T00:00:00	2024-11-08T14:00:00	4	Temperatura máxima	22.9
33827	7	Sololá	717	San Juan la Laguna	12	San Juan la Laguna	1	Enero	2023-01-30T00:00:00	2024-11-08T14:00:00	3	Temperatura mínima	22.1
33828	7	Sololá	717	San Juan la Laguna	12	San Juan la Laguna	1	Enero	2023-01-30T00:00:00	2024-11-08T14:00:00	5	Humedad	56
33829	7	Sololá	717	San Juan la Laguna	12	San Juan la Laguna	1	Enero	2023-01-30T00:00:00	2024-11-08T14:00:00	6	Velocidad del viento	4.8
33830	7	Sololá	717	San Juan la Laguna	12	San Juan la Laguna	1	Enero	2023-01-30T00:00:00	2024-11-08T14:00:00	7	Dirección del viento	4.83
33831	7	Sololá	717	San Juan la Laguna	12	San Juan la Laguna	1	Enero	2023-01-30T00:00:00	2024-11-08T14:00:00	1	Precipitación	0
33832	7	Sololá	717	San Juan la Laguna	12	San Juan la Laguna	1	Enero	2023-01-30T00:00:00	2024-11-08T14:00:00	8	Radiación solar	763
33833	7	Sololá	717	San Juan la Laguna	12	San Juan la Laguna	1	Enero	2023-01-30T00:00:00	2024-11-08T15:00:00	2	Temperatura media	22.7
33834	7	Sololá	717	San Juan la Laguna	12	San Juan la Laguna	1	Enero	2023-01-30T00:00:00	2024-11-08T15:00:00	4	Temperatura máxima	23.3
33835	7	Sololá	717	San Juan la Laguna	12	San Juan la Laguna	1	Enero	2023-01-30T00:00:00	2024-11-08T15:00:00	3	Temperatura mínima	22.7
33836	7	Sololá	717	San Juan la Laguna	12	San Juan la Laguna	1	Enero	2023-01-30T00:00:00	2024-11-08T15:00:00	5	Humedad	57
33837	7	Sololá	717	San Juan la Laguna	12	San Juan la Laguna	1	Enero	2023-01-30T00:00:00	2024-11-08T15:00:00	6	Velocidad del viento	9.7
33838	7	Sololá	717	San Juan la Laguna	12	San Juan la Laguna	1	Enero	2023-01-30T00:00:00	2024-11-08T15:00:00	7	Dirección del viento	9.66
33839	7	Sololá	717	San Juan la Laguna	12	San Juan la Laguna	1	Enero	2023-01-30T00:00:00	2024-11-08T15:00:00	1	Precipitación	0
33840	7	Sololá	717	San Juan la Laguna	12	San Juan la Laguna	1	Enero	2023-01-30T00:00:00	2024-11-08T15:00:00	8	Radiación solar	647
33841	7	Sololá	717	San Juan la Laguna	12	San Juan la Laguna	1	Enero	2023-01-30T00:00:00	2024-11-08T16:00:00	2	Temperatura media	21.9
33842	7	Sololá	717	San Juan la Laguna	12	San Juan la Laguna	1	Enero	2023-01-30T00:00:00	2024-11-08T16:00:00	4	Temperatura máxima	22.7
33843	7	Sololá	717	San Juan la Laguna	12	San Juan la Laguna	1	Enero	2023-01-30T00:00:00	2024-11-08T16:00:00	3	Temperatura mínima	21.7
33844	7	Sololá	717	San Juan la Laguna	12	San Juan la Laguna	1	Enero	2023-01-30T00:00:00	2024-11-08T16:00:00	5	Humedad	60
33845	7	Sololá	717	San Juan la Laguna	12	San Juan la Laguna	1	Enero	2023-01-30T00:00:00	2024-11-08T16:00:00	6	Velocidad del viento	11.3
33846	7	Sololá	717	San Juan la Laguna	12	San Juan la Laguna	1	Enero	2023-01-30T00:00:00	2024-11-08T16:00:00	7	Dirección del viento	11.27
33847	7	Sololá	717	San Juan la Laguna	12	San Juan la Laguna	1	Enero	2023-01-30T00:00:00	2024-11-08T16:00:00	1	Precipitación	0
33848	7	Sololá	717	San Juan la Laguna	12	San Juan la Laguna	1	Enero	2023-01-30T00:00:00	2024-11-08T16:00:00	8	Radiación solar	474
33849	7	Sololá	717	San Juan la Laguna	12	San Juan la Laguna	1	Enero	2023-01-30T00:00:00	2024-11-08T17:00:00	2	Temperatura media	20.5
33850	7	Sololá	717	San Juan la Laguna	12	San Juan la Laguna	1	Enero	2023-01-30T00:00:00	2024-11-08T17:00:00	4	Temperatura máxima	21.9
33851	7	Sololá	717	San Juan la Laguna	12	San Juan la Laguna	1	Enero	2023-01-30T00:00:00	2024-11-08T17:00:00	3	Temperatura mínima	20.5
33852	7	Sololá	717	San Juan la Laguna	12	San Juan la Laguna	1	Enero	2023-01-30T00:00:00	2024-11-08T17:00:00	5	Humedad	66
33853	7	Sololá	717	San Juan la Laguna	12	San Juan la Laguna	1	Enero	2023-01-30T00:00:00	2024-11-08T17:00:00	6	Velocidad del viento	8
33854	7	Sololá	717	San Juan la Laguna	12	San Juan la Laguna	1	Enero	2023-01-30T00:00:00	2024-11-08T17:00:00	7	Dirección del viento	8.05
33855	7	Sololá	717	San Juan la Laguna	12	San Juan la Laguna	1	Enero	2023-01-30T00:00:00	2024-11-08T17:00:00	1	Precipitación	0
33856	7	Sololá	717	San Juan la Laguna	12	San Juan la Laguna	1	Enero	2023-01-30T00:00:00	2024-11-08T17:00:00	8	Radiación solar	248
33857	7	Sololá	717	San Juan la Laguna	12	San Juan la Laguna	1	Enero	2023-01-30T00:00:00	2024-11-08T18:00:00	2	Temperatura media	18.6
33858	7	Sololá	717	San Juan la Laguna	12	San Juan la Laguna	1	Enero	2023-01-30T00:00:00	2024-11-08T18:00:00	4	Temperatura máxima	20.4
33859	7	Sololá	717	San Juan la Laguna	12	San Juan la Laguna	1	Enero	2023-01-30T00:00:00	2024-11-08T18:00:00	3	Temperatura mínima	18.6
33860	7	Sololá	717	San Juan la Laguna	12	San Juan la Laguna	1	Enero	2023-01-30T00:00:00	2024-11-08T18:00:00	5	Humedad	74
33861	7	Sololá	717	San Juan la Laguna	12	San Juan la Laguna	1	Enero	2023-01-30T00:00:00	2024-11-08T18:00:00	6	Velocidad del viento	1.6
33862	7	Sololá	717	San Juan la Laguna	12	San Juan la Laguna	1	Enero	2023-01-30T00:00:00	2024-11-08T18:00:00	7	Dirección del viento	1.61
33863	7	Sololá	717	San Juan la Laguna	12	San Juan la Laguna	1	Enero	2023-01-30T00:00:00	2024-11-08T18:00:00	1	Precipitación	0
33864	7	Sololá	717	San Juan la Laguna	12	San Juan la Laguna	1	Enero	2023-01-30T00:00:00	2024-11-08T18:00:00	8	Radiación solar	23
33865	7	Sololá	717	San Juan la Laguna	12	San Juan la Laguna	1	Enero	2023-01-30T00:00:00	2024-11-08T19:00:00	2	Temperatura media	16.3
33866	7	Sololá	717	San Juan la Laguna	12	San Juan la Laguna	1	Enero	2023-01-30T00:00:00	2024-11-08T19:00:00	4	Temperatura máxima	18.6
33867	7	Sololá	717	San Juan la Laguna	12	San Juan la Laguna	1	Enero	2023-01-30T00:00:00	2024-11-08T19:00:00	3	Temperatura mínima	16.3
33868	7	Sololá	717	San Juan la Laguna	12	San Juan la Laguna	1	Enero	2023-01-30T00:00:00	2024-11-08T19:00:00	5	Humedad	80
33869	7	Sololá	717	San Juan la Laguna	12	San Juan la Laguna	1	Enero	2023-01-30T00:00:00	2024-11-08T19:00:00	6	Velocidad del viento	3.2
33870	7	Sololá	717	San Juan la Laguna	12	San Juan la Laguna	1	Enero	2023-01-30T00:00:00	2024-11-08T19:00:00	7	Dirección del viento	3.22
33871	7	Sololá	717	San Juan la Laguna	12	San Juan la Laguna	1	Enero	2023-01-30T00:00:00	2024-11-08T19:00:00	1	Precipitación	0
33872	7	Sololá	717	San Juan la Laguna	12	San Juan la Laguna	1	Enero	2023-01-30T00:00:00	2024-11-08T19:00:00	8	Radiación solar	0
33873	7	Sololá	717	San Juan la Laguna	12	San Juan la Laguna	1	Enero	2023-01-30T00:00:00	2024-11-08T20:00:00	2	Temperatura media	15.4
33874	7	Sololá	717	San Juan la Laguna	12	San Juan la Laguna	1	Enero	2023-01-30T00:00:00	2024-11-08T20:00:00	4	Temperatura máxima	16.3
33875	7	Sololá	717	San Juan la Laguna	12	San Juan la Laguna	1	Enero	2023-01-30T00:00:00	2024-11-08T20:00:00	3	Temperatura mínima	15.4
33876	7	Sololá	717	San Juan la Laguna	12	San Juan la Laguna	1	Enero	2023-01-30T00:00:00	2024-11-08T20:00:00	5	Humedad	82
33877	7	Sololá	717	San Juan la Laguna	12	San Juan la Laguna	1	Enero	2023-01-30T00:00:00	2024-11-08T20:00:00	6	Velocidad del viento	1.6
33878	7	Sololá	717	San Juan la Laguna	12	San Juan la Laguna	1	Enero	2023-01-30T00:00:00	2024-11-08T20:00:00	7	Dirección del viento	1.61
33879	7	Sololá	717	San Juan la Laguna	12	San Juan la Laguna	1	Enero	2023-01-30T00:00:00	2024-11-08T20:00:00	1	Precipitación	0
33880	7	Sololá	717	San Juan la Laguna	12	San Juan la Laguna	1	Enero	2023-01-30T00:00:00	2024-11-08T20:00:00	8	Radiación solar	0
33881	7	Sololá	717	San Juan la Laguna	12	San Juan la Laguna	1	Enero	2023-01-30T00:00:00	2024-11-08T21:00:00	2	Temperatura media	14.8
33882	7	Sololá	717	San Juan la Laguna	12	San Juan la Laguna	1	Enero	2023-01-30T00:00:00	2024-11-08T21:00:00	4	Temperatura máxima	15.4
33883	7	Sololá	717	San Juan la Laguna	12	San Juan la Laguna	1	Enero	2023-01-30T00:00:00	2024-11-08T21:00:00	3	Temperatura mínima	14.6
33884	7	Sololá	717	San Juan la Laguna	12	San Juan la Laguna	1	Enero	2023-01-30T00:00:00	2024-11-08T21:00:00	5	Humedad	85
33885	7	Sololá	717	San Juan la Laguna	12	San Juan la Laguna	1	Enero	2023-01-30T00:00:00	2024-11-08T21:00:00	6	Velocidad del viento	1.6
33886	7	Sololá	717	San Juan la Laguna	12	San Juan la Laguna	1	Enero	2023-01-30T00:00:00	2024-11-08T21:00:00	7	Dirección del viento	1.61
33887	7	Sololá	717	San Juan la Laguna	12	San Juan la Laguna	1	Enero	2023-01-30T00:00:00	2024-11-08T21:00:00	1	Precipitación	0
33888	7	Sololá	717	San Juan la Laguna	12	San Juan la Laguna	1	Enero	2023-01-30T00:00:00	2024-11-08T21:00:00	8	Radiación solar	0
33889	7	Sololá	717	San Juan la Laguna	12	San Juan la Laguna	1	Enero	2023-01-30T00:00:00	2024-11-08T22:00:00	2	Temperatura media	14.1
33890	7	Sololá	717	San Juan la Laguna	12	San Juan la Laguna	1	Enero	2023-01-30T00:00:00	2024-11-08T22:00:00	4	Temperatura máxima	14.8
33891	7	Sololá	717	San Juan la Laguna	12	San Juan la Laguna	1	Enero	2023-01-30T00:00:00	2024-11-08T22:00:00	3	Temperatura mínima	14.1
33892	7	Sololá	717	San Juan la Laguna	12	San Juan la Laguna	1	Enero	2023-01-30T00:00:00	2024-11-08T22:00:00	5	Humedad	86
33893	7	Sololá	717	San Juan la Laguna	12	San Juan la Laguna	1	Enero	2023-01-30T00:00:00	2024-11-08T22:00:00	6	Velocidad del viento	1.6
33894	7	Sololá	717	San Juan la Laguna	12	San Juan la Laguna	1	Enero	2023-01-30T00:00:00	2024-11-08T22:00:00	7	Dirección del viento	1.61
33895	7	Sololá	717	San Juan la Laguna	12	San Juan la Laguna	1	Enero	2023-01-30T00:00:00	2024-11-08T22:00:00	1	Precipitación	0
33896	7	Sololá	717	San Juan la Laguna	12	San Juan la Laguna	1	Enero	2023-01-30T00:00:00	2024-11-08T22:00:00	8	Radiación solar	0
33897	7	Sololá	717	San Juan la Laguna	12	San Juan la Laguna	1	Enero	2023-01-30T00:00:00	2024-11-08T23:00:00	2	Temperatura media	14.1
33898	7	Sololá	717	San Juan la Laguna	12	San Juan la Laguna	1	Enero	2023-01-30T00:00:00	2024-11-08T23:00:00	4	Temperatura máxima	14.1
33899	7	Sololá	717	San Juan la Laguna	12	San Juan la Laguna	1	Enero	2023-01-30T00:00:00	2024-11-08T23:00:00	3	Temperatura mínima	13.9
33900	7	Sololá	717	San Juan la Laguna	12	San Juan la Laguna	1	Enero	2023-01-30T00:00:00	2024-11-08T23:00:00	5	Humedad	83
33901	7	Sololá	717	San Juan la Laguna	12	San Juan la Laguna	1	Enero	2023-01-30T00:00:00	2024-11-08T23:00:00	6	Velocidad del viento	3.2
33902	7	Sololá	717	San Juan la Laguna	12	San Juan la Laguna	1	Enero	2023-01-30T00:00:00	2024-11-08T23:00:00	7	Dirección del viento	3.22
33903	7	Sololá	717	San Juan la Laguna	12	San Juan la Laguna	1	Enero	2023-01-30T00:00:00	2024-11-08T23:00:00	1	Precipitación	0
33904	7	Sololá	717	San Juan la Laguna	12	San Juan la Laguna	1	Enero	2023-01-30T00:00:00	2024-11-08T23:00:00	8	Radiación solar	0
33905	7	Sololá	717	San Juan la Laguna	12	San Juan la Laguna	1	Enero	2023-01-31T00:00:00	2024-11-08T00:00:00	2	Temperatura media	14.1
33906	7	Sololá	717	San Juan la Laguna	12	San Juan la Laguna	1	Enero	2023-01-31T00:00:00	2024-11-08T00:00:00	4	Temperatura máxima	14.1
33907	7	Sololá	717	San Juan la Laguna	12	San Juan la Laguna	1	Enero	2023-01-31T00:00:00	2024-11-08T00:00:00	3	Temperatura mínima	13.7
33908	7	Sololá	717	San Juan la Laguna	12	San Juan la Laguna	1	Enero	2023-01-31T00:00:00	2024-11-08T00:00:00	5	Humedad	80
33909	7	Sololá	717	San Juan la Laguna	12	San Juan la Laguna	1	Enero	2023-01-31T00:00:00	2024-11-08T00:00:00	6	Velocidad del viento	3.2
33910	7	Sololá	717	San Juan la Laguna	12	San Juan la Laguna	1	Enero	2023-01-31T00:00:00	2024-11-08T00:00:00	7	Dirección del viento	3.22
33911	7	Sololá	717	San Juan la Laguna	12	San Juan la Laguna	1	Enero	2023-01-31T00:00:00	2024-11-08T00:00:00	1	Precipitación	0
33912	7	Sololá	717	San Juan la Laguna	12	San Juan la Laguna	1	Enero	2023-01-31T00:00:00	2024-11-08T00:00:00	8	Radiación solar	0
33913	7	Sololá	717	San Juan la Laguna	12	San Juan la Laguna	1	Enero	2023-01-31T00:00:00	2024-11-08T01:00:00	2	Temperatura media	13.7
33914	7	Sololá	717	San Juan la Laguna	12	San Juan la Laguna	1	Enero	2023-01-31T00:00:00	2024-11-08T01:00:00	4	Temperatura máxima	14.4
33915	7	Sololá	717	San Juan la Laguna	12	San Juan la Laguna	1	Enero	2023-01-31T00:00:00	2024-11-08T01:00:00	3	Temperatura mínima	13.7
33916	7	Sololá	717	San Juan la Laguna	12	San Juan la Laguna	1	Enero	2023-01-31T00:00:00	2024-11-08T01:00:00	5	Humedad	79
33917	7	Sololá	717	San Juan la Laguna	12	San Juan la Laguna	1	Enero	2023-01-31T00:00:00	2024-11-08T01:00:00	6	Velocidad del viento	3.2
33918	7	Sololá	717	San Juan la Laguna	12	San Juan la Laguna	1	Enero	2023-01-31T00:00:00	2024-11-08T01:00:00	7	Dirección del viento	3.22
33919	7	Sololá	717	San Juan la Laguna	12	San Juan la Laguna	1	Enero	2023-01-31T00:00:00	2024-11-08T01:00:00	1	Precipitación	0
33920	7	Sololá	717	San Juan la Laguna	12	San Juan la Laguna	1	Enero	2023-01-31T00:00:00	2024-11-08T01:00:00	8	Radiación solar	0
33921	7	Sololá	717	San Juan la Laguna	12	San Juan la Laguna	1	Enero	2023-01-31T00:00:00	2024-11-08T02:00:00	2	Temperatura media	12.9
33922	7	Sololá	717	San Juan la Laguna	12	San Juan la Laguna	1	Enero	2023-01-31T00:00:00	2024-11-08T02:00:00	4	Temperatura máxima	13.7
33923	7	Sololá	717	San Juan la Laguna	12	San Juan la Laguna	1	Enero	2023-01-31T00:00:00	2024-11-08T02:00:00	3	Temperatura mínima	12.9
33924	7	Sololá	717	San Juan la Laguna	12	San Juan la Laguna	1	Enero	2023-01-31T00:00:00	2024-11-08T02:00:00	5	Humedad	79
33925	7	Sololá	717	San Juan la Laguna	12	San Juan la Laguna	1	Enero	2023-01-31T00:00:00	2024-11-08T02:00:00	6	Velocidad del viento	3.2
33926	7	Sololá	717	San Juan la Laguna	12	San Juan la Laguna	1	Enero	2023-01-31T00:00:00	2024-11-08T02:00:00	7	Dirección del viento	3.22
33927	7	Sololá	717	San Juan la Laguna	12	San Juan la Laguna	1	Enero	2023-01-31T00:00:00	2024-11-08T02:00:00	1	Precipitación	0
33928	7	Sololá	717	San Juan la Laguna	12	San Juan la Laguna	1	Enero	2023-01-31T00:00:00	2024-11-08T02:00:00	8	Radiación solar	0
33929	7	Sololá	717	San Juan la Laguna	12	San Juan la Laguna	1	Enero	2023-01-31T00:00:00	2024-11-08T03:00:00	2	Temperatura media	12
33930	7	Sololá	717	San Juan la Laguna	12	San Juan la Laguna	1	Enero	2023-01-31T00:00:00	2024-11-08T03:00:00	4	Temperatura máxima	12.9
33931	7	Sololá	717	San Juan la Laguna	12	San Juan la Laguna	1	Enero	2023-01-31T00:00:00	2024-11-08T03:00:00	3	Temperatura mínima	11.9
33932	7	Sololá	717	San Juan la Laguna	12	San Juan la Laguna	1	Enero	2023-01-31T00:00:00	2024-11-08T03:00:00	5	Humedad	79
33933	7	Sololá	717	San Juan la Laguna	12	San Juan la Laguna	1	Enero	2023-01-31T00:00:00	2024-11-08T03:00:00	6	Velocidad del viento	4.8
33934	7	Sololá	717	San Juan la Laguna	12	San Juan la Laguna	1	Enero	2023-01-31T00:00:00	2024-11-08T03:00:00	7	Dirección del viento	4.83
33935	7	Sololá	717	San Juan la Laguna	12	San Juan la Laguna	1	Enero	2023-01-31T00:00:00	2024-11-08T03:00:00	1	Precipitación	0
33936	7	Sololá	717	San Juan la Laguna	12	San Juan la Laguna	1	Enero	2023-01-31T00:00:00	2024-11-08T03:00:00	8	Radiación solar	0
33937	7	Sololá	717	San Juan la Laguna	12	San Juan la Laguna	1	Enero	2023-01-31T00:00:00	2024-11-08T04:00:00	2	Temperatura media	11.7
33938	7	Sololá	717	San Juan la Laguna	12	San Juan la Laguna	1	Enero	2023-01-31T00:00:00	2024-11-08T04:00:00	4	Temperatura máxima	12
33939	7	Sololá	717	San Juan la Laguna	12	San Juan la Laguna	1	Enero	2023-01-31T00:00:00	2024-11-08T04:00:00	3	Temperatura mínima	11.5
33940	7	Sololá	717	San Juan la Laguna	12	San Juan la Laguna	1	Enero	2023-01-31T00:00:00	2024-11-08T04:00:00	5	Humedad	79
33941	7	Sololá	717	San Juan la Laguna	12	San Juan la Laguna	1	Enero	2023-01-31T00:00:00	2024-11-08T04:00:00	6	Velocidad del viento	4.8
33942	7	Sololá	717	San Juan la Laguna	12	San Juan la Laguna	1	Enero	2023-01-31T00:00:00	2024-11-08T04:00:00	7	Dirección del viento	4.83
33943	7	Sololá	717	San Juan la Laguna	12	San Juan la Laguna	1	Enero	2023-01-31T00:00:00	2024-11-08T04:00:00	1	Precipitación	0
33944	7	Sololá	717	San Juan la Laguna	12	San Juan la Laguna	1	Enero	2023-01-31T00:00:00	2024-11-08T04:00:00	8	Radiación solar	0
33945	7	Sololá	717	San Juan la Laguna	12	San Juan la Laguna	1	Enero	2023-01-31T00:00:00	2024-11-08T05:00:00	2	Temperatura media	10.9
33946	7	Sololá	717	San Juan la Laguna	12	San Juan la Laguna	1	Enero	2023-01-31T00:00:00	2024-11-08T05:00:00	4	Temperatura máxima	11.8
33947	7	Sololá	717	San Juan la Laguna	12	San Juan la Laguna	1	Enero	2023-01-31T00:00:00	2024-11-08T05:00:00	3	Temperatura mínima	10.8
33948	7	Sololá	717	San Juan la Laguna	12	San Juan la Laguna	1	Enero	2023-01-31T00:00:00	2024-11-08T05:00:00	5	Humedad	84
33949	7	Sololá	717	San Juan la Laguna	12	San Juan la Laguna	1	Enero	2023-01-31T00:00:00	2024-11-08T05:00:00	6	Velocidad del viento	4.8
33950	7	Sololá	717	San Juan la Laguna	12	San Juan la Laguna	1	Enero	2023-01-31T00:00:00	2024-11-08T05:00:00	7	Dirección del viento	4.83
33951	7	Sololá	717	San Juan la Laguna	12	San Juan la Laguna	1	Enero	2023-01-31T00:00:00	2024-11-08T05:00:00	1	Precipitación	0
33952	7	Sololá	717	San Juan la Laguna	12	San Juan la Laguna	1	Enero	2023-01-31T00:00:00	2024-11-08T05:00:00	8	Radiación solar	0
33953	7	Sololá	717	San Juan la Laguna	12	San Juan la Laguna	1	Enero	2023-01-31T00:00:00	2024-11-08T06:00:00	2	Temperatura media	11.3
33954	7	Sololá	717	San Juan la Laguna	12	San Juan la Laguna	1	Enero	2023-01-31T00:00:00	2024-11-08T06:00:00	4	Temperatura máxima	11.4
33955	7	Sololá	717	San Juan la Laguna	12	San Juan la Laguna	1	Enero	2023-01-31T00:00:00	2024-11-08T06:00:00	3	Temperatura mínima	10.9
33956	7	Sololá	717	San Juan la Laguna	12	San Juan la Laguna	1	Enero	2023-01-31T00:00:00	2024-11-08T06:00:00	5	Humedad	82
33957	7	Sololá	717	San Juan la Laguna	12	San Juan la Laguna	1	Enero	2023-01-31T00:00:00	2024-11-08T06:00:00	6	Velocidad del viento	4.8
33958	7	Sololá	717	San Juan la Laguna	12	San Juan la Laguna	1	Enero	2023-01-31T00:00:00	2024-11-08T06:00:00	7	Dirección del viento	4.83
33959	7	Sololá	717	San Juan la Laguna	12	San Juan la Laguna	1	Enero	2023-01-31T00:00:00	2024-11-08T06:00:00	1	Precipitación	0
33960	7	Sololá	717	San Juan la Laguna	12	San Juan la Laguna	1	Enero	2023-01-31T00:00:00	2024-11-08T06:00:00	8	Radiación solar	0
33961	7	Sololá	717	San Juan la Laguna	12	San Juan la Laguna	1	Enero	2023-01-31T00:00:00	2024-11-08T07:00:00	2	Temperatura media	11.3
33962	7	Sololá	717	San Juan la Laguna	12	San Juan la Laguna	1	Enero	2023-01-31T00:00:00	2024-11-08T07:00:00	4	Temperatura máxima	11.3
33963	7	Sololá	717	San Juan la Laguna	12	San Juan la Laguna	1	Enero	2023-01-31T00:00:00	2024-11-08T07:00:00	3	Temperatura mínima	11
33964	7	Sololá	717	San Juan la Laguna	12	San Juan la Laguna	1	Enero	2023-01-31T00:00:00	2024-11-08T07:00:00	5	Humedad	83
33965	7	Sololá	717	San Juan la Laguna	12	San Juan la Laguna	1	Enero	2023-01-31T00:00:00	2024-11-08T07:00:00	6	Velocidad del viento	3.2
33966	7	Sololá	717	San Juan la Laguna	12	San Juan la Laguna	1	Enero	2023-01-31T00:00:00	2024-11-08T07:00:00	7	Dirección del viento	3.22
33967	7	Sololá	717	San Juan la Laguna	12	San Juan la Laguna	1	Enero	2023-01-31T00:00:00	2024-11-08T07:00:00	1	Precipitación	0
33968	7	Sololá	717	San Juan la Laguna	12	San Juan la Laguna	1	Enero	2023-01-31T00:00:00	2024-11-08T07:00:00	8	Radiación solar	5
33969	7	Sololá	717	San Juan la Laguna	12	San Juan la Laguna	1	Enero	2023-01-31T00:00:00	2024-11-08T08:00:00	2	Temperatura media	14.3
33970	7	Sololá	717	San Juan la Laguna	12	San Juan la Laguna	1	Enero	2023-01-31T00:00:00	2024-11-08T08:00:00	4	Temperatura máxima	14.3
33971	7	Sololá	717	San Juan la Laguna	12	San Juan la Laguna	1	Enero	2023-01-31T00:00:00	2024-11-08T08:00:00	3	Temperatura mínima	11.3
33972	7	Sololá	717	San Juan la Laguna	12	San Juan la Laguna	1	Enero	2023-01-31T00:00:00	2024-11-08T08:00:00	5	Humedad	76
33973	7	Sololá	717	San Juan la Laguna	12	San Juan la Laguna	1	Enero	2023-01-31T00:00:00	2024-11-08T08:00:00	6	Velocidad del viento	3.2
33974	7	Sololá	717	San Juan la Laguna	12	San Juan la Laguna	1	Enero	2023-01-31T00:00:00	2024-11-08T08:00:00	7	Dirección del viento	3.22
33975	7	Sololá	717	San Juan la Laguna	12	San Juan la Laguna	1	Enero	2023-01-31T00:00:00	2024-11-08T08:00:00	1	Precipitación	0
33976	7	Sololá	717	San Juan la Laguna	12	San Juan la Laguna	1	Enero	2023-01-31T00:00:00	2024-11-08T08:00:00	8	Radiación solar	116
33977	7	Sololá	717	San Juan la Laguna	12	San Juan la Laguna	1	Enero	2023-01-31T00:00:00	2024-11-08T09:00:00	2	Temperatura media	18.4
33978	7	Sololá	717	San Juan la Laguna	12	San Juan la Laguna	1	Enero	2023-01-31T00:00:00	2024-11-08T09:00:00	4	Temperatura máxima	18.4
33979	7	Sololá	717	San Juan la Laguna	12	San Juan la Laguna	1	Enero	2023-01-31T00:00:00	2024-11-08T09:00:00	3	Temperatura mínima	14.3
33980	7	Sololá	717	San Juan la Laguna	12	San Juan la Laguna	1	Enero	2023-01-31T00:00:00	2024-11-08T09:00:00	5	Humedad	64
33981	7	Sololá	717	San Juan la Laguna	12	San Juan la Laguna	1	Enero	2023-01-31T00:00:00	2024-11-08T09:00:00	6	Velocidad del viento	3.2
33982	7	Sololá	717	San Juan la Laguna	12	San Juan la Laguna	1	Enero	2023-01-31T00:00:00	2024-11-08T09:00:00	7	Dirección del viento	3.22
33983	7	Sololá	717	San Juan la Laguna	12	San Juan la Laguna	1	Enero	2023-01-31T00:00:00	2024-11-08T09:00:00	1	Precipitación	0
33984	7	Sololá	717	San Juan la Laguna	12	San Juan la Laguna	1	Enero	2023-01-31T00:00:00	2024-11-08T09:00:00	8	Radiación solar	355
33985	7	Sololá	717	San Juan la Laguna	12	San Juan la Laguna	1	Enero	2023-01-31T00:00:00	2024-11-08T10:00:00	2	Temperatura media	19.8
33986	7	Sololá	717	San Juan la Laguna	12	San Juan la Laguna	1	Enero	2023-01-31T00:00:00	2024-11-08T10:00:00	4	Temperatura máxima	19.9
33987	7	Sololá	717	San Juan la Laguna	12	San Juan la Laguna	1	Enero	2023-01-31T00:00:00	2024-11-08T10:00:00	3	Temperatura mínima	18.4
33988	7	Sololá	717	San Juan la Laguna	12	San Juan la Laguna	1	Enero	2023-01-31T00:00:00	2024-11-08T10:00:00	5	Humedad	57
33989	7	Sololá	717	San Juan la Laguna	12	San Juan la Laguna	1	Enero	2023-01-31T00:00:00	2024-11-08T10:00:00	6	Velocidad del viento	4.8
33990	7	Sololá	717	San Juan la Laguna	12	San Juan la Laguna	1	Enero	2023-01-31T00:00:00	2024-11-08T10:00:00	7	Dirección del viento	4.83
33991	7	Sololá	717	San Juan la Laguna	12	San Juan la Laguna	1	Enero	2023-01-31T00:00:00	2024-11-08T10:00:00	1	Precipitación	0
33992	7	Sololá	717	San Juan la Laguna	12	San Juan la Laguna	1	Enero	2023-01-31T00:00:00	2024-11-08T10:00:00	8	Radiación solar	558
33993	7	Sololá	717	San Juan la Laguna	12	San Juan la Laguna	1	Enero	2023-01-31T00:00:00	2024-11-08T11:00:00	2	Temperatura media	21.1
33994	7	Sololá	717	San Juan la Laguna	12	San Juan la Laguna	1	Enero	2023-01-31T00:00:00	2024-11-08T11:00:00	4	Temperatura máxima	21.2
33995	7	Sololá	717	San Juan la Laguna	12	San Juan la Laguna	1	Enero	2023-01-31T00:00:00	2024-11-08T11:00:00	3	Temperatura mínima	19.7
33996	7	Sololá	717	San Juan la Laguna	12	San Juan la Laguna	1	Enero	2023-01-31T00:00:00	2024-11-08T11:00:00	5	Humedad	51
33997	7	Sololá	717	San Juan la Laguna	12	San Juan la Laguna	1	Enero	2023-01-31T00:00:00	2024-11-08T11:00:00	6	Velocidad del viento	4.8
33998	7	Sololá	717	San Juan la Laguna	12	San Juan la Laguna	1	Enero	2023-01-31T00:00:00	2024-11-08T11:00:00	7	Dirección del viento	4.83
33999	7	Sololá	717	San Juan la Laguna	12	San Juan la Laguna	1	Enero	2023-01-31T00:00:00	2024-11-08T11:00:00	1	Precipitación	0
34000	7	Sololá	717	San Juan la Laguna	12	San Juan la Laguna	1	Enero	2023-01-31T00:00:00	2024-11-08T11:00:00	8	Radiación solar	696
34001	7	Sololá	717	San Juan la Laguna	12	San Juan la Laguna	1	Enero	2023-01-31T00:00:00	2024-11-08T12:00:00	2	Temperatura media	22.9
34002	7	Sololá	717	San Juan la Laguna	12	San Juan la Laguna	1	Enero	2023-01-31T00:00:00	2024-11-08T12:00:00	4	Temperatura máxima	23
34003	7	Sololá	717	San Juan la Laguna	12	San Juan la Laguna	1	Enero	2023-01-31T00:00:00	2024-11-08T12:00:00	3	Temperatura mínima	21.1
34004	7	Sololá	717	San Juan la Laguna	12	San Juan la Laguna	1	Enero	2023-01-31T00:00:00	2024-11-08T12:00:00	5	Humedad	42
34005	7	Sololá	717	San Juan la Laguna	12	San Juan la Laguna	1	Enero	2023-01-31T00:00:00	2024-11-08T12:00:00	6	Velocidad del viento	4.8
34006	7	Sololá	717	San Juan la Laguna	12	San Juan la Laguna	1	Enero	2023-01-31T00:00:00	2024-11-08T12:00:00	7	Dirección del viento	4.83
34007	7	Sololá	717	San Juan la Laguna	12	San Juan la Laguna	1	Enero	2023-01-31T00:00:00	2024-11-08T12:00:00	1	Precipitación	0
34008	7	Sololá	717	San Juan la Laguna	12	San Juan la Laguna	1	Enero	2023-01-31T00:00:00	2024-11-08T12:00:00	8	Radiación solar	707
34009	7	Sololá	717	San Juan la Laguna	12	San Juan la Laguna	1	Enero	2023-01-31T00:00:00	2024-11-08T13:00:00	2	Temperatura media	24.3
34010	7	Sololá	717	San Juan la Laguna	12	San Juan la Laguna	1	Enero	2023-01-31T00:00:00	2024-11-08T13:00:00	4	Temperatura máxima	24.7
34011	7	Sololá	717	San Juan la Laguna	12	San Juan la Laguna	1	Enero	2023-01-31T00:00:00	2024-11-08T13:00:00	3	Temperatura mínima	22.8
34012	7	Sololá	717	San Juan la Laguna	12	San Juan la Laguna	1	Enero	2023-01-31T00:00:00	2024-11-08T13:00:00	5	Humedad	38
34013	7	Sololá	717	San Juan la Laguna	12	San Juan la Laguna	1	Enero	2023-01-31T00:00:00	2024-11-08T13:00:00	6	Velocidad del viento	4.8
34014	7	Sololá	717	San Juan la Laguna	12	San Juan la Laguna	1	Enero	2023-01-31T00:00:00	2024-11-08T13:00:00	7	Dirección del viento	4.83
34015	7	Sololá	717	San Juan la Laguna	12	San Juan la Laguna	1	Enero	2023-01-31T00:00:00	2024-11-08T13:00:00	1	Precipitación	0
34016	7	Sololá	717	San Juan la Laguna	12	San Juan la Laguna	1	Enero	2023-01-31T00:00:00	2024-11-08T13:00:00	8	Radiación solar	838
34017	7	Sololá	717	San Juan la Laguna	12	San Juan la Laguna	1	Enero	2023-01-31T00:00:00	2024-11-08T14:00:00	2	Temperatura media	24.8
34018	7	Sololá	717	San Juan la Laguna	12	San Juan la Laguna	1	Enero	2023-01-31T00:00:00	2024-11-08T14:00:00	4	Temperatura máxima	25
34019	7	Sololá	717	San Juan la Laguna	12	San Juan la Laguna	1	Enero	2023-01-31T00:00:00	2024-11-08T14:00:00	3	Temperatura mínima	24.3
34020	7	Sololá	717	San Juan la Laguna	12	San Juan la Laguna	1	Enero	2023-01-31T00:00:00	2024-11-08T14:00:00	5	Humedad	38
34021	7	Sololá	717	San Juan la Laguna	12	San Juan la Laguna	1	Enero	2023-01-31T00:00:00	2024-11-08T14:00:00	6	Velocidad del viento	4.8
34022	7	Sololá	717	San Juan la Laguna	12	San Juan la Laguna	1	Enero	2023-01-31T00:00:00	2024-11-08T14:00:00	7	Dirección del viento	4.83
34023	7	Sololá	717	San Juan la Laguna	12	San Juan la Laguna	1	Enero	2023-01-31T00:00:00	2024-11-08T14:00:00	1	Precipitación	0
34024	7	Sololá	717	San Juan la Laguna	12	San Juan la Laguna	1	Enero	2023-01-31T00:00:00	2024-11-08T14:00:00	8	Radiación solar	787
34025	7	Sololá	717	San Juan la Laguna	12	San Juan la Laguna	1	Enero	2023-01-31T00:00:00	2024-11-08T15:00:00	2	Temperatura media	23.9
34026	7	Sololá	717	San Juan la Laguna	12	San Juan la Laguna	1	Enero	2023-01-31T00:00:00	2024-11-08T15:00:00	4	Temperatura máxima	25.1
34027	7	Sololá	717	San Juan la Laguna	12	San Juan la Laguna	1	Enero	2023-01-31T00:00:00	2024-11-08T15:00:00	3	Temperatura mínima	23.9
34028	7	Sololá	717	San Juan la Laguna	12	San Juan la Laguna	1	Enero	2023-01-31T00:00:00	2024-11-08T15:00:00	5	Humedad	51
34029	7	Sololá	717	San Juan la Laguna	12	San Juan la Laguna	1	Enero	2023-01-31T00:00:00	2024-11-08T15:00:00	6	Velocidad del viento	4.8
34030	7	Sololá	717	San Juan la Laguna	12	San Juan la Laguna	1	Enero	2023-01-31T00:00:00	2024-11-08T15:00:00	7	Dirección del viento	4.83
34031	7	Sololá	717	San Juan la Laguna	12	San Juan la Laguna	1	Enero	2023-01-31T00:00:00	2024-11-08T15:00:00	1	Precipitación	0
34032	7	Sololá	717	San Juan la Laguna	12	San Juan la Laguna	1	Enero	2023-01-31T00:00:00	2024-11-08T15:00:00	8	Radiación solar	670
34033	7	Sololá	717	San Juan la Laguna	12	San Juan la Laguna	1	Enero	2023-01-31T00:00:00	2024-11-08T16:00:00	2	Temperatura media	22.7
34034	7	Sololá	717	San Juan la Laguna	12	San Juan la Laguna	1	Enero	2023-01-31T00:00:00	2024-11-08T16:00:00	4	Temperatura máxima	24.2
34035	7	Sololá	717	San Juan la Laguna	12	San Juan la Laguna	1	Enero	2023-01-31T00:00:00	2024-11-08T16:00:00	3	Temperatura mínima	22.6
34036	7	Sololá	717	San Juan la Laguna	12	San Juan la Laguna	1	Enero	2023-01-31T00:00:00	2024-11-08T16:00:00	5	Humedad	62
34037	7	Sololá	717	San Juan la Laguna	12	San Juan la Laguna	1	Enero	2023-01-31T00:00:00	2024-11-08T16:00:00	6	Velocidad del viento	6.4
34038	7	Sololá	717	San Juan la Laguna	12	San Juan la Laguna	1	Enero	2023-01-31T00:00:00	2024-11-08T16:00:00	7	Dirección del viento	6.44
34039	7	Sololá	717	San Juan la Laguna	12	San Juan la Laguna	1	Enero	2023-01-31T00:00:00	2024-11-08T16:00:00	1	Precipitación	0
34040	7	Sololá	717	San Juan la Laguna	12	San Juan la Laguna	1	Enero	2023-01-31T00:00:00	2024-11-08T16:00:00	8	Radiación solar	483
34041	7	Sololá	717	San Juan la Laguna	12	San Juan la Laguna	1	Enero	2023-01-31T00:00:00	2024-11-08T17:00:00	2	Temperatura media	20.8
34042	7	Sololá	717	San Juan la Laguna	12	San Juan la Laguna	1	Enero	2023-01-31T00:00:00	2024-11-08T17:00:00	4	Temperatura máxima	22.7
34043	7	Sololá	717	San Juan la Laguna	12	San Juan la Laguna	1	Enero	2023-01-31T00:00:00	2024-11-08T17:00:00	3	Temperatura mínima	20.8
34044	7	Sololá	717	San Juan la Laguna	12	San Juan la Laguna	1	Enero	2023-01-31T00:00:00	2024-11-08T17:00:00	5	Humedad	69
34045	7	Sololá	717	San Juan la Laguna	12	San Juan la Laguna	1	Enero	2023-01-31T00:00:00	2024-11-08T17:00:00	6	Velocidad del viento	8
34046	7	Sololá	717	San Juan la Laguna	12	San Juan la Laguna	1	Enero	2023-01-31T00:00:00	2024-11-08T17:00:00	7	Dirección del viento	8.05
34047	7	Sololá	717	San Juan la Laguna	12	San Juan la Laguna	1	Enero	2023-01-31T00:00:00	2024-11-08T17:00:00	1	Precipitación	0
34048	7	Sololá	717	San Juan la Laguna	12	San Juan la Laguna	1	Enero	2023-01-31T00:00:00	2024-11-08T17:00:00	8	Radiación solar	257
34049	7	Sololá	717	San Juan la Laguna	12	San Juan la Laguna	1	Enero	2023-01-31T00:00:00	2024-11-08T18:00:00	2	Temperatura media	19.2
34050	7	Sololá	717	San Juan la Laguna	12	San Juan la Laguna	1	Enero	2023-01-31T00:00:00	2024-11-08T18:00:00	4	Temperatura máxima	20.7
34051	7	Sololá	717	San Juan la Laguna	12	San Juan la Laguna	1	Enero	2023-01-31T00:00:00	2024-11-08T18:00:00	3	Temperatura mínima	19.2
34052	7	Sololá	717	San Juan la Laguna	12	San Juan la Laguna	1	Enero	2023-01-31T00:00:00	2024-11-08T18:00:00	5	Humedad	75
34053	7	Sololá	717	San Juan la Laguna	12	San Juan la Laguna	1	Enero	2023-01-31T00:00:00	2024-11-08T18:00:00	6	Velocidad del viento	4.8
34054	7	Sololá	717	San Juan la Laguna	12	San Juan la Laguna	1	Enero	2023-01-31T00:00:00	2024-11-08T18:00:00	7	Dirección del viento	4.83
34055	7	Sololá	717	San Juan la Laguna	12	San Juan la Laguna	1	Enero	2023-01-31T00:00:00	2024-11-08T18:00:00	1	Precipitación	0
34056	7	Sololá	717	San Juan la Laguna	12	San Juan la Laguna	1	Enero	2023-01-31T00:00:00	2024-11-08T18:00:00	8	Radiación solar	23
34057	7	Sololá	717	San Juan la Laguna	12	San Juan la Laguna	1	Enero	2023-01-31T00:00:00	2024-11-08T19:00:00	2	Temperatura media	16.8
34058	7	Sololá	717	San Juan la Laguna	12	San Juan la Laguna	1	Enero	2023-01-31T00:00:00	2024-11-08T19:00:00	4	Temperatura máxima	19.2
34059	7	Sololá	717	San Juan la Laguna	12	San Juan la Laguna	1	Enero	2023-01-31T00:00:00	2024-11-08T19:00:00	3	Temperatura mínima	16.8
34060	7	Sololá	717	San Juan la Laguna	12	San Juan la Laguna	1	Enero	2023-01-31T00:00:00	2024-11-08T19:00:00	5	Humedad	81
34061	7	Sololá	717	San Juan la Laguna	12	San Juan la Laguna	1	Enero	2023-01-31T00:00:00	2024-11-08T19:00:00	6	Velocidad del viento	3.2
34062	7	Sololá	717	San Juan la Laguna	12	San Juan la Laguna	1	Enero	2023-01-31T00:00:00	2024-11-08T19:00:00	7	Dirección del viento	3.22
34063	7	Sololá	717	San Juan la Laguna	12	San Juan la Laguna	1	Enero	2023-01-31T00:00:00	2024-11-08T19:00:00	1	Precipitación	0
34064	7	Sololá	717	San Juan la Laguna	12	San Juan la Laguna	1	Enero	2023-01-31T00:00:00	2024-11-08T19:00:00	8	Radiación solar	0
34065	7	Sololá	717	San Juan la Laguna	12	San Juan la Laguna	1	Enero	2023-01-31T00:00:00	2024-11-08T20:00:00	2	Temperatura media	15.8
34066	7	Sololá	717	San Juan la Laguna	12	San Juan la Laguna	1	Enero	2023-01-31T00:00:00	2024-11-08T20:00:00	4	Temperatura máxima	17
34067	7	Sololá	717	San Juan la Laguna	12	San Juan la Laguna	1	Enero	2023-01-31T00:00:00	2024-11-08T20:00:00	3	Temperatura mínima	15.8
34068	7	Sololá	717	San Juan la Laguna	12	San Juan la Laguna	1	Enero	2023-01-31T00:00:00	2024-11-08T20:00:00	5	Humedad	73
34069	7	Sololá	717	San Juan la Laguna	12	San Juan la Laguna	1	Enero	2023-01-31T00:00:00	2024-11-08T20:00:00	6	Velocidad del viento	3.2
34070	7	Sololá	717	San Juan la Laguna	12	San Juan la Laguna	1	Enero	2023-01-31T00:00:00	2024-11-08T20:00:00	7	Dirección del viento	3.22
34071	7	Sololá	717	San Juan la Laguna	12	San Juan la Laguna	1	Enero	2023-01-31T00:00:00	2024-11-08T20:00:00	1	Precipitación	0
34072	7	Sololá	717	San Juan la Laguna	12	San Juan la Laguna	1	Enero	2023-01-31T00:00:00	2024-11-08T20:00:00	8	Radiación solar	0
34073	7	Sololá	717	San Juan la Laguna	12	San Juan la Laguna	1	Enero	2023-01-31T00:00:00	2024-11-08T21:00:00	2	Temperatura media	14.3
34074	7	Sololá	717	San Juan la Laguna	12	San Juan la Laguna	1	Enero	2023-01-31T00:00:00	2024-11-08T21:00:00	4	Temperatura máxima	15.8
34075	7	Sololá	717	San Juan la Laguna	12	San Juan la Laguna	1	Enero	2023-01-31T00:00:00	2024-11-08T21:00:00	3	Temperatura mínima	14.3
34076	7	Sololá	717	San Juan la Laguna	12	San Juan la Laguna	1	Enero	2023-01-31T00:00:00	2024-11-08T21:00:00	5	Humedad	77
34077	7	Sololá	717	San Juan la Laguna	12	San Juan la Laguna	1	Enero	2023-01-31T00:00:00	2024-11-08T21:00:00	6	Velocidad del viento	1.6
34078	7	Sololá	717	San Juan la Laguna	12	San Juan la Laguna	1	Enero	2023-01-31T00:00:00	2024-11-08T21:00:00	7	Dirección del viento	1.61
34079	7	Sololá	717	San Juan la Laguna	12	San Juan la Laguna	1	Enero	2023-01-31T00:00:00	2024-11-08T21:00:00	1	Precipitación	0
34080	7	Sololá	717	San Juan la Laguna	12	San Juan la Laguna	1	Enero	2023-01-31T00:00:00	2024-11-08T21:00:00	8	Radiación solar	0
34081	7	Sololá	717	San Juan la Laguna	12	San Juan la Laguna	1	Enero	2023-01-31T00:00:00	2024-11-08T22:00:00	2	Temperatura media	14.3
34082	7	Sololá	717	San Juan la Laguna	12	San Juan la Laguna	1	Enero	2023-01-31T00:00:00	2024-11-08T22:00:00	4	Temperatura máxima	14.4
34083	7	Sololá	717	San Juan la Laguna	12	San Juan la Laguna	1	Enero	2023-01-31T00:00:00	2024-11-08T22:00:00	3	Temperatura mínima	13.9
34084	7	Sololá	717	San Juan la Laguna	12	San Juan la Laguna	1	Enero	2023-01-31T00:00:00	2024-11-08T22:00:00	5	Humedad	79
34085	7	Sololá	717	San Juan la Laguna	12	San Juan la Laguna	1	Enero	2023-01-31T00:00:00	2024-11-08T22:00:00	6	Velocidad del viento	3.2
34086	7	Sololá	717	San Juan la Laguna	12	San Juan la Laguna	1	Enero	2023-01-31T00:00:00	2024-11-08T22:00:00	7	Dirección del viento	3.22
34087	7	Sololá	717	San Juan la Laguna	12	San Juan la Laguna	1	Enero	2023-01-31T00:00:00	2024-11-08T22:00:00	1	Precipitación	0
34088	7	Sololá	717	San Juan la Laguna	12	San Juan la Laguna	1	Enero	2023-01-31T00:00:00	2024-11-08T22:00:00	8	Radiación solar	0
34089	7	Sololá	717	San Juan la Laguna	12	San Juan la Laguna	1	Enero	2023-01-31T00:00:00	2024-11-08T23:00:00	2	Temperatura media	13.2
34090	7	Sololá	717	San Juan la Laguna	12	San Juan la Laguna	1	Enero	2023-01-31T00:00:00	2024-11-08T23:00:00	4	Temperatura máxima	14.3
34091	7	Sololá	717	San Juan la Laguna	12	San Juan la Laguna	1	Enero	2023-01-31T00:00:00	2024-11-08T23:00:00	3	Temperatura mínima	13.2
34092	7	Sololá	717	San Juan la Laguna	12	San Juan la Laguna	1	Enero	2023-01-31T00:00:00	2024-11-08T23:00:00	5	Humedad	81
34093	7	Sololá	717	San Juan la Laguna	12	San Juan la Laguna	1	Enero	2023-01-31T00:00:00	2024-11-08T23:00:00	6	Velocidad del viento	3.2
34094	7	Sololá	717	San Juan la Laguna	12	San Juan la Laguna	1	Enero	2023-01-31T00:00:00	2024-11-08T23:00:00	7	Dirección del viento	3.22
34095	7	Sololá	717	San Juan la Laguna	12	San Juan la Laguna	1	Enero	2023-01-31T00:00:00	2024-11-08T23:00:00	1	Precipitación	0
34096	7	Sololá	717	San Juan la Laguna	12	San Juan la Laguna	1	Enero	2023-01-31T00:00:00	2024-11-08T23:00:00	8	Radiación solar	0
34097	7	Sololá	717	San Juan la Laguna	12	San Juan la Laguna	2	Febrero	2023-01-02T00:00:00	2024-11-08T00:00:00	2	Temperatura media	12.6
34098	7	Sololá	717	San Juan la Laguna	12	San Juan la Laguna	2	Febrero	2023-01-02T00:00:00	2024-11-08T00:00:00	4	Temperatura máxima	13.1
34099	7	Sololá	717	San Juan la Laguna	12	San Juan la Laguna	2	Febrero	2023-01-02T00:00:00	2024-11-08T00:00:00	3	Temperatura mínima	12.6
34100	7	Sololá	717	San Juan la Laguna	12	San Juan la Laguna	2	Febrero	2023-01-02T00:00:00	2024-11-08T00:00:00	5	Humedad	82
34101	7	Sololá	717	San Juan la Laguna	12	San Juan la Laguna	2	Febrero	2023-01-02T00:00:00	2024-11-08T00:00:00	6	Velocidad del viento	3.2
34102	7	Sololá	717	San Juan la Laguna	12	San Juan la Laguna	2	Febrero	2023-01-02T00:00:00	2024-11-08T00:00:00	7	Dirección del viento	3.22
34103	7	Sololá	717	San Juan la Laguna	12	San Juan la Laguna	2	Febrero	2023-01-02T00:00:00	2024-11-08T00:00:00	1	Precipitación	0
34104	7	Sololá	717	San Juan la Laguna	12	San Juan la Laguna	2	Febrero	2023-01-02T00:00:00	2024-11-08T00:00:00	8	Radiación solar	0
34105	7	Sololá	717	San Juan la Laguna	12	San Juan la Laguna	2	Febrero	2023-01-02T00:00:00	2024-11-08T01:00:00	2	Temperatura media	12.7
34106	7	Sololá	717	San Juan la Laguna	12	San Juan la Laguna	2	Febrero	2023-01-02T00:00:00	2024-11-08T01:00:00	4	Temperatura máxima	13.4
34107	7	Sololá	717	San Juan la Laguna	12	San Juan la Laguna	2	Febrero	2023-01-02T00:00:00	2024-11-08T01:00:00	3	Temperatura mínima	12.6
34108	7	Sololá	717	San Juan la Laguna	12	San Juan la Laguna	2	Febrero	2023-01-02T00:00:00	2024-11-08T01:00:00	5	Humedad	73
34109	7	Sololá	717	San Juan la Laguna	12	San Juan la Laguna	2	Febrero	2023-01-02T00:00:00	2024-11-08T01:00:00	6	Velocidad del viento	4.8
34110	7	Sololá	717	San Juan la Laguna	12	San Juan la Laguna	2	Febrero	2023-01-02T00:00:00	2024-11-08T01:00:00	7	Dirección del viento	4.83
34111	7	Sololá	717	San Juan la Laguna	12	San Juan la Laguna	2	Febrero	2023-01-02T00:00:00	2024-11-08T01:00:00	1	Precipitación	0
34112	7	Sololá	717	San Juan la Laguna	12	San Juan la Laguna	2	Febrero	2023-01-02T00:00:00	2024-11-08T01:00:00	8	Radiación solar	0
34113	7	Sololá	717	San Juan la Laguna	12	San Juan la Laguna	2	Febrero	2023-01-02T00:00:00	2024-11-08T02:00:00	2	Temperatura media	12.3
34114	7	Sololá	717	San Juan la Laguna	12	San Juan la Laguna	2	Febrero	2023-01-02T00:00:00	2024-11-08T02:00:00	4	Temperatura máxima	12.9
34115	7	Sololá	717	San Juan la Laguna	12	San Juan la Laguna	2	Febrero	2023-01-02T00:00:00	2024-11-08T02:00:00	3	Temperatura mínima	12.3
34116	7	Sololá	717	San Juan la Laguna	12	San Juan la Laguna	2	Febrero	2023-01-02T00:00:00	2024-11-08T02:00:00	5	Humedad	72
34117	7	Sololá	717	San Juan la Laguna	12	San Juan la Laguna	2	Febrero	2023-01-02T00:00:00	2024-11-08T02:00:00	6	Velocidad del viento	4.8
34118	7	Sololá	717	San Juan la Laguna	12	San Juan la Laguna	2	Febrero	2023-01-02T00:00:00	2024-11-08T02:00:00	7	Dirección del viento	4.83
34119	7	Sololá	717	San Juan la Laguna	12	San Juan la Laguna	2	Febrero	2023-01-02T00:00:00	2024-11-08T02:00:00	1	Precipitación	0
34120	7	Sololá	717	San Juan la Laguna	12	San Juan la Laguna	2	Febrero	2023-01-02T00:00:00	2024-11-08T02:00:00	8	Radiación solar	0
34121	7	Sololá	717	San Juan la Laguna	12	San Juan la Laguna	2	Febrero	2023-01-02T00:00:00	2024-11-08T03:00:00	2	Temperatura media	11.9
34122	7	Sololá	717	San Juan la Laguna	12	San Juan la Laguna	2	Febrero	2023-01-02T00:00:00	2024-11-08T03:00:00	4	Temperatura máxima	12.3
34123	7	Sololá	717	San Juan la Laguna	12	San Juan la Laguna	2	Febrero	2023-01-02T00:00:00	2024-11-08T03:00:00	3	Temperatura mínima	11.9
34124	7	Sololá	717	San Juan la Laguna	12	San Juan la Laguna	2	Febrero	2023-01-02T00:00:00	2024-11-08T03:00:00	5	Humedad	74
34125	7	Sololá	717	San Juan la Laguna	12	San Juan la Laguna	2	Febrero	2023-01-02T00:00:00	2024-11-08T03:00:00	6	Velocidad del viento	4.8
34126	7	Sololá	717	San Juan la Laguna	12	San Juan la Laguna	2	Febrero	2023-01-02T00:00:00	2024-11-08T03:00:00	7	Dirección del viento	4.83
34127	7	Sololá	717	San Juan la Laguna	12	San Juan la Laguna	2	Febrero	2023-01-02T00:00:00	2024-11-08T03:00:00	1	Precipitación	0
34128	7	Sololá	717	San Juan la Laguna	12	San Juan la Laguna	2	Febrero	2023-01-02T00:00:00	2024-11-08T03:00:00	8	Radiación solar	0
34129	7	Sololá	717	San Juan la Laguna	12	San Juan la Laguna	2	Febrero	2023-01-02T00:00:00	2024-11-08T04:00:00	2	Temperatura media	11.6
34130	7	Sololá	717	San Juan la Laguna	12	San Juan la Laguna	2	Febrero	2023-01-02T00:00:00	2024-11-08T04:00:00	4	Temperatura máxima	11.9
34131	7	Sololá	717	San Juan la Laguna	12	San Juan la Laguna	2	Febrero	2023-01-02T00:00:00	2024-11-08T04:00:00	3	Temperatura mínima	11.4
34132	7	Sololá	717	San Juan la Laguna	12	San Juan la Laguna	2	Febrero	2023-01-02T00:00:00	2024-11-08T04:00:00	5	Humedad	76
34133	7	Sololá	717	San Juan la Laguna	12	San Juan la Laguna	2	Febrero	2023-01-02T00:00:00	2024-11-08T04:00:00	6	Velocidad del viento	3.2
34134	7	Sololá	717	San Juan la Laguna	12	San Juan la Laguna	2	Febrero	2023-01-02T00:00:00	2024-11-08T04:00:00	7	Dirección del viento	3.22
34135	7	Sololá	717	San Juan la Laguna	12	San Juan la Laguna	2	Febrero	2023-01-02T00:00:00	2024-11-08T04:00:00	1	Precipitación	0
34136	7	Sololá	717	San Juan la Laguna	12	San Juan la Laguna	2	Febrero	2023-01-02T00:00:00	2024-11-08T04:00:00	8	Radiación solar	0
34137	7	Sololá	717	San Juan la Laguna	12	San Juan la Laguna	2	Febrero	2023-01-02T00:00:00	2024-11-08T05:00:00	2	Temperatura media	11.4
34138	7	Sololá	717	San Juan la Laguna	12	San Juan la Laguna	2	Febrero	2023-01-02T00:00:00	2024-11-08T05:00:00	4	Temperatura máxima	11.8
34139	7	Sololá	717	San Juan la Laguna	12	San Juan la Laguna	2	Febrero	2023-01-02T00:00:00	2024-11-08T05:00:00	3	Temperatura mínima	11.4
34140	7	Sololá	717	San Juan la Laguna	12	San Juan la Laguna	2	Febrero	2023-01-02T00:00:00	2024-11-08T05:00:00	5	Humedad	74
34141	7	Sololá	717	San Juan la Laguna	12	San Juan la Laguna	2	Febrero	2023-01-02T00:00:00	2024-11-08T05:00:00	6	Velocidad del viento	4.8
34142	7	Sololá	717	San Juan la Laguna	12	San Juan la Laguna	2	Febrero	2023-01-02T00:00:00	2024-11-08T05:00:00	7	Dirección del viento	4.83
34143	7	Sololá	717	San Juan la Laguna	12	San Juan la Laguna	2	Febrero	2023-01-02T00:00:00	2024-11-08T05:00:00	1	Precipitación	0
34144	7	Sololá	717	San Juan la Laguna	12	San Juan la Laguna	2	Febrero	2023-01-02T00:00:00	2024-11-08T05:00:00	8	Radiación solar	0
34145	7	Sololá	717	San Juan la Laguna	12	San Juan la Laguna	2	Febrero	2023-01-02T00:00:00	2024-11-08T06:00:00	2	Temperatura media	11.1
34146	7	Sololá	717	San Juan la Laguna	12	San Juan la Laguna	2	Febrero	2023-01-02T00:00:00	2024-11-08T06:00:00	4	Temperatura máxima	11.4
34147	7	Sololá	717	San Juan la Laguna	12	San Juan la Laguna	2	Febrero	2023-01-02T00:00:00	2024-11-08T06:00:00	3	Temperatura mínima	10.9
34148	7	Sololá	717	San Juan la Laguna	12	San Juan la Laguna	2	Febrero	2023-01-02T00:00:00	2024-11-08T06:00:00	5	Humedad	78
34149	7	Sololá	717	San Juan la Laguna	12	San Juan la Laguna	2	Febrero	2023-01-02T00:00:00	2024-11-08T06:00:00	6	Velocidad del viento	4.8
34150	7	Sololá	717	San Juan la Laguna	12	San Juan la Laguna	2	Febrero	2023-01-02T00:00:00	2024-11-08T06:00:00	7	Dirección del viento	4.83
34151	7	Sololá	717	San Juan la Laguna	12	San Juan la Laguna	2	Febrero	2023-01-02T00:00:00	2024-11-08T06:00:00	1	Precipitación	0
34152	7	Sololá	717	San Juan la Laguna	12	San Juan la Laguna	2	Febrero	2023-01-02T00:00:00	2024-11-08T06:00:00	8	Radiación solar	0
34153	7	Sololá	717	San Juan la Laguna	12	San Juan la Laguna	2	Febrero	2023-01-02T00:00:00	2024-11-08T07:00:00	2	Temperatura media	11.1
34154	7	Sololá	717	San Juan la Laguna	12	San Juan la Laguna	2	Febrero	2023-01-02T00:00:00	2024-11-08T07:00:00	4	Temperatura máxima	11.3
34155	7	Sololá	717	San Juan la Laguna	12	San Juan la Laguna	2	Febrero	2023-01-02T00:00:00	2024-11-08T07:00:00	3	Temperatura mínima	10.9
34156	7	Sololá	717	San Juan la Laguna	12	San Juan la Laguna	2	Febrero	2023-01-02T00:00:00	2024-11-08T07:00:00	5	Humedad	78
34157	7	Sololá	717	San Juan la Laguna	12	San Juan la Laguna	2	Febrero	2023-01-02T00:00:00	2024-11-08T07:00:00	6	Velocidad del viento	4.8
34158	7	Sololá	717	San Juan la Laguna	12	San Juan la Laguna	2	Febrero	2023-01-02T00:00:00	2024-11-08T07:00:00	7	Dirección del viento	4.83
34159	7	Sololá	717	San Juan la Laguna	12	San Juan la Laguna	2	Febrero	2023-01-02T00:00:00	2024-11-08T07:00:00	1	Precipitación	0
34160	7	Sololá	717	San Juan la Laguna	12	San Juan la Laguna	2	Febrero	2023-01-02T00:00:00	2024-11-08T07:00:00	8	Radiación solar	5
34161	7	Sololá	717	San Juan la Laguna	12	San Juan la Laguna	2	Febrero	2023-01-02T00:00:00	2024-11-08T08:00:00	2	Temperatura media	14.1
34162	7	Sololá	717	San Juan la Laguna	12	San Juan la Laguna	2	Febrero	2023-01-02T00:00:00	2024-11-08T08:00:00	4	Temperatura máxima	14.1
34163	7	Sololá	717	San Juan la Laguna	12	San Juan la Laguna	2	Febrero	2023-01-02T00:00:00	2024-11-08T08:00:00	3	Temperatura mínima	11.1
34164	7	Sololá	717	San Juan la Laguna	12	San Juan la Laguna	2	Febrero	2023-01-02T00:00:00	2024-11-08T08:00:00	5	Humedad	76
34165	7	Sololá	717	San Juan la Laguna	12	San Juan la Laguna	2	Febrero	2023-01-02T00:00:00	2024-11-08T08:00:00	6	Velocidad del viento	3.2
34166	7	Sololá	717	San Juan la Laguna	12	San Juan la Laguna	2	Febrero	2023-01-02T00:00:00	2024-11-08T08:00:00	7	Dirección del viento	3.22
34167	7	Sololá	717	San Juan la Laguna	12	San Juan la Laguna	2	Febrero	2023-01-02T00:00:00	2024-11-08T08:00:00	1	Precipitación	0
34168	7	Sololá	717	San Juan la Laguna	12	San Juan la Laguna	2	Febrero	2023-01-02T00:00:00	2024-11-08T08:00:00	8	Radiación solar	120
34169	7	Sololá	717	San Juan la Laguna	12	San Juan la Laguna	2	Febrero	2023-01-02T00:00:00	2024-11-08T09:00:00	2	Temperatura media	19.3
34170	7	Sololá	717	San Juan la Laguna	12	San Juan la Laguna	2	Febrero	2023-01-02T00:00:00	2024-11-08T09:00:00	4	Temperatura máxima	19.3
34171	7	Sololá	717	San Juan la Laguna	12	San Juan la Laguna	2	Febrero	2023-01-02T00:00:00	2024-11-08T09:00:00	3	Temperatura mínima	14.1
34172	7	Sololá	717	San Juan la Laguna	12	San Juan la Laguna	2	Febrero	2023-01-02T00:00:00	2024-11-08T09:00:00	5	Humedad	60
34173	7	Sololá	717	San Juan la Laguna	12	San Juan la Laguna	2	Febrero	2023-01-02T00:00:00	2024-11-08T09:00:00	6	Velocidad del viento	1.6
34174	7	Sololá	717	San Juan la Laguna	12	San Juan la Laguna	2	Febrero	2023-01-02T00:00:00	2024-11-08T09:00:00	7	Dirección del viento	1.61
34175	7	Sololá	717	San Juan la Laguna	12	San Juan la Laguna	2	Febrero	2023-01-02T00:00:00	2024-11-08T09:00:00	1	Precipitación	0
34176	7	Sololá	717	San Juan la Laguna	12	San Juan la Laguna	2	Febrero	2023-01-02T00:00:00	2024-11-08T09:00:00	8	Radiación solar	353
34177	7	Sololá	717	San Juan la Laguna	12	San Juan la Laguna	2	Febrero	2023-01-02T00:00:00	2024-11-08T10:00:00	2	Temperatura media	20.4
34178	7	Sololá	717	San Juan la Laguna	12	San Juan la Laguna	2	Febrero	2023-01-02T00:00:00	2024-11-08T10:00:00	4	Temperatura máxima	20.4
34179	7	Sololá	717	San Juan la Laguna	12	San Juan la Laguna	2	Febrero	2023-01-02T00:00:00	2024-11-08T10:00:00	3	Temperatura mínima	19.3
34180	7	Sololá	717	San Juan la Laguna	12	San Juan la Laguna	2	Febrero	2023-01-02T00:00:00	2024-11-08T10:00:00	5	Humedad	56
34181	7	Sololá	717	San Juan la Laguna	12	San Juan la Laguna	2	Febrero	2023-01-02T00:00:00	2024-11-08T10:00:00	6	Velocidad del viento	1.6
34182	7	Sololá	717	San Juan la Laguna	12	San Juan la Laguna	2	Febrero	2023-01-02T00:00:00	2024-11-08T10:00:00	7	Dirección del viento	1.61
34183	7	Sololá	717	San Juan la Laguna	12	San Juan la Laguna	2	Febrero	2023-01-02T00:00:00	2024-11-08T10:00:00	1	Precipitación	0
34184	7	Sololá	717	San Juan la Laguna	12	San Juan la Laguna	2	Febrero	2023-01-02T00:00:00	2024-11-08T10:00:00	8	Radiación solar	544
34185	7	Sololá	717	San Juan la Laguna	12	San Juan la Laguna	2	Febrero	2023-01-02T00:00:00	2024-11-08T11:00:00	2	Temperatura media	22.5
34186	7	Sololá	717	San Juan la Laguna	12	San Juan la Laguna	2	Febrero	2023-01-02T00:00:00	2024-11-08T11:00:00	4	Temperatura máxima	23.3
34187	7	Sololá	717	San Juan la Laguna	12	San Juan la Laguna	2	Febrero	2023-01-02T00:00:00	2024-11-08T11:00:00	3	Temperatura mínima	20.4
34188	7	Sololá	717	San Juan la Laguna	12	San Juan la Laguna	2	Febrero	2023-01-02T00:00:00	2024-11-08T11:00:00	5	Humedad	49
34189	7	Sololá	717	San Juan la Laguna	12	San Juan la Laguna	2	Febrero	2023-01-02T00:00:00	2024-11-08T11:00:00	6	Velocidad del viento	3.2
34190	7	Sololá	717	San Juan la Laguna	12	San Juan la Laguna	2	Febrero	2023-01-02T00:00:00	2024-11-08T11:00:00	7	Dirección del viento	3.22
34191	7	Sololá	717	San Juan la Laguna	12	San Juan la Laguna	2	Febrero	2023-01-02T00:00:00	2024-11-08T11:00:00	1	Precipitación	0
34192	7	Sololá	717	San Juan la Laguna	12	San Juan la Laguna	2	Febrero	2023-01-02T00:00:00	2024-11-08T11:00:00	8	Radiación solar	700
34193	7	Sololá	717	San Juan la Laguna	12	San Juan la Laguna	2	Febrero	2023-01-02T00:00:00	2024-11-08T12:00:00	2	Temperatura media	23.7
34194	7	Sololá	717	San Juan la Laguna	12	San Juan la Laguna	2	Febrero	2023-01-02T00:00:00	2024-11-08T12:00:00	4	Temperatura máxima	23.8
34195	7	Sololá	717	San Juan la Laguna	12	San Juan la Laguna	2	Febrero	2023-01-02T00:00:00	2024-11-08T12:00:00	3	Temperatura mínima	22.5
34196	7	Sololá	717	San Juan la Laguna	12	San Juan la Laguna	2	Febrero	2023-01-02T00:00:00	2024-11-08T12:00:00	5	Humedad	45
34197	7	Sololá	717	San Juan la Laguna	12	San Juan la Laguna	2	Febrero	2023-01-02T00:00:00	2024-11-08T12:00:00	6	Velocidad del viento	6.4
34198	7	Sololá	717	San Juan la Laguna	12	San Juan la Laguna	2	Febrero	2023-01-02T00:00:00	2024-11-08T12:00:00	7	Dirección del viento	6.44
34199	7	Sololá	717	San Juan la Laguna	12	San Juan la Laguna	2	Febrero	2023-01-02T00:00:00	2024-11-08T12:00:00	1	Precipitación	0
34200	7	Sololá	717	San Juan la Laguna	12	San Juan la Laguna	2	Febrero	2023-01-02T00:00:00	2024-11-08T12:00:00	8	Radiación solar	697
34201	7	Sololá	717	San Juan la Laguna	12	San Juan la Laguna	2	Febrero	2023-01-02T00:00:00	2024-11-08T13:00:00	2	Temperatura media	24.9
34202	7	Sololá	717	San Juan la Laguna	12	San Juan la Laguna	2	Febrero	2023-01-02T00:00:00	2024-11-08T13:00:00	4	Temperatura máxima	24.9
34203	7	Sololá	717	San Juan la Laguna	12	San Juan la Laguna	2	Febrero	2023-01-02T00:00:00	2024-11-08T13:00:00	3	Temperatura mínima	23.6
34204	7	Sololá	717	San Juan la Laguna	12	San Juan la Laguna	2	Febrero	2023-01-02T00:00:00	2024-11-08T13:00:00	5	Humedad	43
34205	7	Sololá	717	San Juan la Laguna	12	San Juan la Laguna	2	Febrero	2023-01-02T00:00:00	2024-11-08T13:00:00	6	Velocidad del viento	6.4
34206	7	Sololá	717	San Juan la Laguna	12	San Juan la Laguna	2	Febrero	2023-01-02T00:00:00	2024-11-08T13:00:00	7	Dirección del viento	6.44
34207	7	Sololá	717	San Juan la Laguna	12	San Juan la Laguna	2	Febrero	2023-01-02T00:00:00	2024-11-08T13:00:00	1	Precipitación	0
34208	7	Sololá	717	San Juan la Laguna	12	San Juan la Laguna	2	Febrero	2023-01-02T00:00:00	2024-11-08T13:00:00	8	Radiación solar	825
34209	7	Sololá	717	San Juan la Laguna	12	San Juan la Laguna	2	Febrero	2023-01-02T00:00:00	2024-11-08T14:00:00	2	Temperatura media	24.7
34210	7	Sololá	717	San Juan la Laguna	12	San Juan la Laguna	2	Febrero	2023-01-02T00:00:00	2024-11-08T14:00:00	4	Temperatura máxima	25.2
34211	7	Sololá	717	San Juan la Laguna	12	San Juan la Laguna	2	Febrero	2023-01-02T00:00:00	2024-11-08T14:00:00	3	Temperatura mínima	24.6
34212	7	Sololá	717	San Juan la Laguna	12	San Juan la Laguna	2	Febrero	2023-01-02T00:00:00	2024-11-08T14:00:00	5	Humedad	53
34213	7	Sololá	717	San Juan la Laguna	12	San Juan la Laguna	2	Febrero	2023-01-02T00:00:00	2024-11-08T14:00:00	6	Velocidad del viento	4.8
34214	7	Sololá	717	San Juan la Laguna	12	San Juan la Laguna	2	Febrero	2023-01-02T00:00:00	2024-11-08T14:00:00	7	Dirección del viento	4.83
34215	7	Sololá	717	San Juan la Laguna	12	San Juan la Laguna	2	Febrero	2023-01-02T00:00:00	2024-11-08T14:00:00	1	Precipitación	0
34216	7	Sololá	717	San Juan la Laguna	12	San Juan la Laguna	2	Febrero	2023-01-02T00:00:00	2024-11-08T14:00:00	8	Radiación solar	773
34217	7	Sololá	717	San Juan la Laguna	12	San Juan la Laguna	2	Febrero	2023-01-02T00:00:00	2024-11-08T15:00:00	2	Temperatura media	22.8
34218	7	Sololá	717	San Juan la Laguna	12	San Juan la Laguna	2	Febrero	2023-01-02T00:00:00	2024-11-08T15:00:00	4	Temperatura máxima	24.8
34219	7	Sololá	717	San Juan la Laguna	12	San Juan la Laguna	2	Febrero	2023-01-02T00:00:00	2024-11-08T15:00:00	3	Temperatura mínima	22.8
34220	7	Sololá	717	San Juan la Laguna	12	San Juan la Laguna	2	Febrero	2023-01-02T00:00:00	2024-11-08T15:00:00	5	Humedad	62
34221	7	Sololá	717	San Juan la Laguna	12	San Juan la Laguna	2	Febrero	2023-01-02T00:00:00	2024-11-08T15:00:00	6	Velocidad del viento	11.3
34222	7	Sololá	717	San Juan la Laguna	12	San Juan la Laguna	2	Febrero	2023-01-02T00:00:00	2024-11-08T15:00:00	7	Dirección del viento	11.27
34223	7	Sololá	717	San Juan la Laguna	12	San Juan la Laguna	2	Febrero	2023-01-02T00:00:00	2024-11-08T15:00:00	1	Precipitación	0
34224	7	Sololá	717	San Juan la Laguna	12	San Juan la Laguna	2	Febrero	2023-01-02T00:00:00	2024-11-08T15:00:00	8	Radiación solar	644
34225	7	Sololá	717	San Juan la Laguna	12	San Juan la Laguna	2	Febrero	2023-01-02T00:00:00	2024-11-08T16:00:00	2	Temperatura media	22.6
34226	7	Sololá	717	San Juan la Laguna	12	San Juan la Laguna	2	Febrero	2023-01-02T00:00:00	2024-11-08T16:00:00	4	Temperatura máxima	22.8
34227	7	Sololá	717	San Juan la Laguna	12	San Juan la Laguna	2	Febrero	2023-01-02T00:00:00	2024-11-08T16:00:00	3	Temperatura mínima	22.3
34228	7	Sololá	717	San Juan la Laguna	12	San Juan la Laguna	2	Febrero	2023-01-02T00:00:00	2024-11-08T16:00:00	5	Humedad	63
34229	7	Sololá	717	San Juan la Laguna	12	San Juan la Laguna	2	Febrero	2023-01-02T00:00:00	2024-11-08T16:00:00	6	Velocidad del viento	11.3
34230	7	Sololá	717	San Juan la Laguna	12	San Juan la Laguna	2	Febrero	2023-01-02T00:00:00	2024-11-08T16:00:00	7	Dirección del viento	11.27
34231	7	Sololá	717	San Juan la Laguna	12	San Juan la Laguna	2	Febrero	2023-01-02T00:00:00	2024-11-08T16:00:00	1	Precipitación	0
34232	7	Sololá	717	San Juan la Laguna	12	San Juan la Laguna	2	Febrero	2023-01-02T00:00:00	2024-11-08T16:00:00	8	Radiación solar	476
34233	7	Sololá	717	San Juan la Laguna	12	San Juan la Laguna	2	Febrero	2023-01-02T00:00:00	2024-11-08T17:00:00	2	Temperatura media	21.1
34234	7	Sololá	717	San Juan la Laguna	12	San Juan la Laguna	2	Febrero	2023-01-02T00:00:00	2024-11-08T17:00:00	4	Temperatura máxima	22.6
34235	7	Sololá	717	San Juan la Laguna	12	San Juan la Laguna	2	Febrero	2023-01-02T00:00:00	2024-11-08T17:00:00	3	Temperatura mínima	21.1
34236	7	Sololá	717	San Juan la Laguna	12	San Juan la Laguna	2	Febrero	2023-01-02T00:00:00	2024-11-08T17:00:00	5	Humedad	70
34237	7	Sololá	717	San Juan la Laguna	12	San Juan la Laguna	2	Febrero	2023-01-02T00:00:00	2024-11-08T17:00:00	6	Velocidad del viento	6.4
34238	7	Sololá	717	San Juan la Laguna	12	San Juan la Laguna	2	Febrero	2023-01-02T00:00:00	2024-11-08T17:00:00	7	Dirección del viento	6.44
34239	7	Sololá	717	San Juan la Laguna	12	San Juan la Laguna	2	Febrero	2023-01-02T00:00:00	2024-11-08T17:00:00	1	Precipitación	0
34240	7	Sololá	717	San Juan la Laguna	12	San Juan la Laguna	2	Febrero	2023-01-02T00:00:00	2024-11-08T17:00:00	8	Radiación solar	245
34241	7	Sololá	717	San Juan la Laguna	12	San Juan la Laguna	2	Febrero	2023-01-02T00:00:00	2024-11-08T18:00:00	2	Temperatura media	19.1
34242	7	Sololá	717	San Juan la Laguna	12	San Juan la Laguna	2	Febrero	2023-01-02T00:00:00	2024-11-08T18:00:00	4	Temperatura máxima	21.1
34243	7	Sololá	717	San Juan la Laguna	12	San Juan la Laguna	2	Febrero	2023-01-02T00:00:00	2024-11-08T18:00:00	3	Temperatura mínima	19.1
34244	7	Sololá	717	San Juan la Laguna	12	San Juan la Laguna	2	Febrero	2023-01-02T00:00:00	2024-11-08T18:00:00	5	Humedad	78
34245	7	Sololá	717	San Juan la Laguna	12	San Juan la Laguna	2	Febrero	2023-01-02T00:00:00	2024-11-08T18:00:00	6	Velocidad del viento	3.2
34246	7	Sololá	717	San Juan la Laguna	12	San Juan la Laguna	2	Febrero	2023-01-02T00:00:00	2024-11-08T18:00:00	7	Dirección del viento	3.22
34247	7	Sololá	717	San Juan la Laguna	12	San Juan la Laguna	2	Febrero	2023-01-02T00:00:00	2024-11-08T18:00:00	1	Precipitación	0
34248	7	Sololá	717	San Juan la Laguna	12	San Juan la Laguna	2	Febrero	2023-01-02T00:00:00	2024-11-08T18:00:00	8	Radiación solar	25
34249	7	Sololá	717	San Juan la Laguna	12	San Juan la Laguna	2	Febrero	2023-01-02T00:00:00	2024-11-08T19:00:00	2	Temperatura media	17.2
34250	7	Sololá	717	San Juan la Laguna	12	San Juan la Laguna	2	Febrero	2023-01-02T00:00:00	2024-11-08T19:00:00	4	Temperatura máxima	19.1
34251	7	Sololá	717	San Juan la Laguna	12	San Juan la Laguna	2	Febrero	2023-01-02T00:00:00	2024-11-08T19:00:00	3	Temperatura mínima	17.2
34252	7	Sololá	717	San Juan la Laguna	12	San Juan la Laguna	2	Febrero	2023-01-02T00:00:00	2024-11-08T19:00:00	5	Humedad	83
34253	7	Sololá	717	San Juan la Laguna	12	San Juan la Laguna	2	Febrero	2023-01-02T00:00:00	2024-11-08T19:00:00	6	Velocidad del viento	1.6
34254	7	Sololá	717	San Juan la Laguna	12	San Juan la Laguna	2	Febrero	2023-01-02T00:00:00	2024-11-08T19:00:00	7	Dirección del viento	1.61
34255	7	Sololá	717	San Juan la Laguna	12	San Juan la Laguna	2	Febrero	2023-01-02T00:00:00	2024-11-08T19:00:00	1	Precipitación	0
34256	7	Sololá	717	San Juan la Laguna	12	San Juan la Laguna	2	Febrero	2023-01-02T00:00:00	2024-11-08T19:00:00	8	Radiación solar	0
34257	7	Sololá	717	San Juan la Laguna	12	San Juan la Laguna	2	Febrero	2023-01-02T00:00:00	2024-11-08T20:00:00	2	Temperatura media	16.2
34258	7	Sololá	717	San Juan la Laguna	12	San Juan la Laguna	2	Febrero	2023-01-02T00:00:00	2024-11-08T20:00:00	4	Temperatura máxima	17.2
34259	7	Sololá	717	San Juan la Laguna	12	San Juan la Laguna	2	Febrero	2023-01-02T00:00:00	2024-11-08T20:00:00	3	Temperatura mínima	16.1
34260	7	Sololá	717	San Juan la Laguna	12	San Juan la Laguna	2	Febrero	2023-01-02T00:00:00	2024-11-08T20:00:00	5	Humedad	85
34261	7	Sololá	717	San Juan la Laguna	12	San Juan la Laguna	2	Febrero	2023-01-02T00:00:00	2024-11-08T20:00:00	6	Velocidad del viento	1.6
34262	7	Sololá	717	San Juan la Laguna	12	San Juan la Laguna	2	Febrero	2023-01-02T00:00:00	2024-11-08T20:00:00	7	Dirección del viento	1.61
34263	7	Sololá	717	San Juan la Laguna	12	San Juan la Laguna	2	Febrero	2023-01-02T00:00:00	2024-11-08T20:00:00	1	Precipitación	0
34264	7	Sololá	717	San Juan la Laguna	12	San Juan la Laguna	2	Febrero	2023-01-02T00:00:00	2024-11-08T20:00:00	8	Radiación solar	0
34265	7	Sololá	717	San Juan la Laguna	12	San Juan la Laguna	2	Febrero	2023-01-02T00:00:00	2024-11-08T21:00:00	2	Temperatura media	18.8
34266	7	Sololá	717	San Juan la Laguna	12	San Juan la Laguna	2	Febrero	2023-01-02T00:00:00	2024-11-08T21:00:00	4	Temperatura máxima	18.9
34267	7	Sololá	717	San Juan la Laguna	12	San Juan la Laguna	2	Febrero	2023-01-02T00:00:00	2024-11-08T21:00:00	3	Temperatura mínima	16.1
34268	7	Sololá	717	San Juan la Laguna	12	San Juan la Laguna	2	Febrero	2023-01-02T00:00:00	2024-11-08T21:00:00	5	Humedad	65
34269	7	Sololá	717	San Juan la Laguna	12	San Juan la Laguna	2	Febrero	2023-01-02T00:00:00	2024-11-08T21:00:00	6	Velocidad del viento	3.2
34270	7	Sololá	717	San Juan la Laguna	12	San Juan la Laguna	2	Febrero	2023-01-02T00:00:00	2024-11-08T21:00:00	7	Dirección del viento	3.22
34271	7	Sololá	717	San Juan la Laguna	12	San Juan la Laguna	2	Febrero	2023-01-02T00:00:00	2024-11-08T21:00:00	1	Precipitación	0
34272	7	Sololá	717	San Juan la Laguna	12	San Juan la Laguna	2	Febrero	2023-01-02T00:00:00	2024-11-08T21:00:00	8	Radiación solar	0
34273	7	Sololá	717	San Juan la Laguna	12	San Juan la Laguna	2	Febrero	2023-01-02T00:00:00	2024-11-08T22:00:00	2	Temperatura media	18.3
34274	7	Sololá	717	San Juan la Laguna	12	San Juan la Laguna	2	Febrero	2023-01-02T00:00:00	2024-11-08T22:00:00	4	Temperatura máxima	18.9
34275	7	Sololá	717	San Juan la Laguna	12	San Juan la Laguna	2	Febrero	2023-01-02T00:00:00	2024-11-08T22:00:00	3	Temperatura mínima	18.3
34276	7	Sololá	717	San Juan la Laguna	12	San Juan la Laguna	2	Febrero	2023-01-02T00:00:00	2024-11-08T22:00:00	5	Humedad	66
34277	7	Sololá	717	San Juan la Laguna	12	San Juan la Laguna	2	Febrero	2023-01-02T00:00:00	2024-11-08T22:00:00	6	Velocidad del viento	4.8
34278	7	Sololá	717	San Juan la Laguna	12	San Juan la Laguna	2	Febrero	2023-01-02T00:00:00	2024-11-08T22:00:00	7	Dirección del viento	4.83
34279	7	Sololá	717	San Juan la Laguna	12	San Juan la Laguna	2	Febrero	2023-01-02T00:00:00	2024-11-08T22:00:00	1	Precipitación	0
34280	7	Sololá	717	San Juan la Laguna	12	San Juan la Laguna	2	Febrero	2023-01-02T00:00:00	2024-11-08T22:00:00	8	Radiación solar	0
34281	7	Sololá	717	San Juan la Laguna	12	San Juan la Laguna	2	Febrero	2023-01-02T00:00:00	2024-11-08T23:00:00	2	Temperatura media	17.9
34282	7	Sololá	717	San Juan la Laguna	12	San Juan la Laguna	2	Febrero	2023-01-02T00:00:00	2024-11-08T23:00:00	4	Temperatura máxima	18.3
34283	7	Sololá	717	San Juan la Laguna	12	San Juan la Laguna	2	Febrero	2023-01-02T00:00:00	2024-11-08T23:00:00	3	Temperatura mínima	17.6
34284	7	Sololá	717	San Juan la Laguna	12	San Juan la Laguna	2	Febrero	2023-01-02T00:00:00	2024-11-08T23:00:00	5	Humedad	66
34285	7	Sololá	717	San Juan la Laguna	12	San Juan la Laguna	2	Febrero	2023-01-02T00:00:00	2024-11-08T23:00:00	6	Velocidad del viento	3.2
34286	7	Sololá	717	San Juan la Laguna	12	San Juan la Laguna	2	Febrero	2023-01-02T00:00:00	2024-11-08T23:00:00	7	Dirección del viento	3.22
34287	7	Sololá	717	San Juan la Laguna	12	San Juan la Laguna	2	Febrero	2023-01-02T00:00:00	2024-11-08T23:00:00	1	Precipitación	0
34288	7	Sololá	717	San Juan la Laguna	12	San Juan la Laguna	2	Febrero	2023-01-02T00:00:00	2024-11-08T23:00:00	8	Radiación solar	0
34289	7	Sololá	717	San Juan la Laguna	12	San Juan la Laguna	2	Febrero	2023-02-02T00:00:00	2024-11-08T00:00:00	2	Temperatura media	14.7
34290	7	Sololá	717	San Juan la Laguna	12	San Juan la Laguna	2	Febrero	2023-02-02T00:00:00	2024-11-08T00:00:00	4	Temperatura máxima	17.9
34291	7	Sololá	717	San Juan la Laguna	12	San Juan la Laguna	2	Febrero	2023-02-02T00:00:00	2024-11-08T00:00:00	3	Temperatura mínima	14.7
34292	7	Sololá	717	San Juan la Laguna	12	San Juan la Laguna	2	Febrero	2023-02-02T00:00:00	2024-11-08T00:00:00	5	Humedad	72
34293	7	Sololá	717	San Juan la Laguna	12	San Juan la Laguna	2	Febrero	2023-02-02T00:00:00	2024-11-08T00:00:00	6	Velocidad del viento	3.2
34294	7	Sololá	717	San Juan la Laguna	12	San Juan la Laguna	2	Febrero	2023-02-02T00:00:00	2024-11-08T00:00:00	7	Dirección del viento	3.22
34295	7	Sololá	717	San Juan la Laguna	12	San Juan la Laguna	2	Febrero	2023-02-02T00:00:00	2024-11-08T00:00:00	1	Precipitación	0
34296	7	Sololá	717	San Juan la Laguna	12	San Juan la Laguna	2	Febrero	2023-02-02T00:00:00	2024-11-08T00:00:00	8	Radiación solar	0
34297	7	Sololá	717	San Juan la Laguna	12	San Juan la Laguna	2	Febrero	2023-02-02T00:00:00	2024-11-08T01:00:00	2	Temperatura media	13.5
34298	7	Sololá	717	San Juan la Laguna	12	San Juan la Laguna	2	Febrero	2023-02-02T00:00:00	2024-11-08T01:00:00	4	Temperatura máxima	15.5
34299	7	Sololá	717	San Juan la Laguna	12	San Juan la Laguna	2	Febrero	2023-02-02T00:00:00	2024-11-08T01:00:00	3	Temperatura mínima	13.5
34300	7	Sololá	717	San Juan la Laguna	12	San Juan la Laguna	2	Febrero	2023-02-02T00:00:00	2024-11-08T01:00:00	5	Humedad	72
34301	7	Sololá	717	San Juan la Laguna	12	San Juan la Laguna	2	Febrero	2023-02-02T00:00:00	2024-11-08T01:00:00	6	Velocidad del viento	3.2
34302	7	Sololá	717	San Juan la Laguna	12	San Juan la Laguna	2	Febrero	2023-02-02T00:00:00	2024-11-08T01:00:00	7	Dirección del viento	3.22
34303	7	Sololá	717	San Juan la Laguna	12	San Juan la Laguna	2	Febrero	2023-02-02T00:00:00	2024-11-08T01:00:00	1	Precipitación	0
34304	7	Sololá	717	San Juan la Laguna	12	San Juan la Laguna	2	Febrero	2023-02-02T00:00:00	2024-11-08T01:00:00	8	Radiación solar	0
34305	7	Sololá	717	San Juan la Laguna	12	San Juan la Laguna	2	Febrero	2023-02-02T00:00:00	2024-11-08T02:00:00	2	Temperatura media	12.6
34306	7	Sololá	717	San Juan la Laguna	12	San Juan la Laguna	2	Febrero	2023-02-02T00:00:00	2024-11-08T02:00:00	4	Temperatura máxima	13.8
34307	7	Sololá	717	San Juan la Laguna	12	San Juan la Laguna	2	Febrero	2023-02-02T00:00:00	2024-11-08T02:00:00	3	Temperatura mínima	12.6
34308	7	Sololá	717	San Juan la Laguna	12	San Juan la Laguna	2	Febrero	2023-02-02T00:00:00	2024-11-08T02:00:00	5	Humedad	77
34309	7	Sololá	717	San Juan la Laguna	12	San Juan la Laguna	2	Febrero	2023-02-02T00:00:00	2024-11-08T02:00:00	6	Velocidad del viento	3.2
34310	7	Sololá	717	San Juan la Laguna	12	San Juan la Laguna	2	Febrero	2023-02-02T00:00:00	2024-11-08T02:00:00	7	Dirección del viento	3.22
34311	7	Sololá	717	San Juan la Laguna	12	San Juan la Laguna	2	Febrero	2023-02-02T00:00:00	2024-11-08T02:00:00	1	Precipitación	0
34312	7	Sololá	717	San Juan la Laguna	12	San Juan la Laguna	2	Febrero	2023-02-02T00:00:00	2024-11-08T02:00:00	8	Radiación solar	0
34313	7	Sololá	717	San Juan la Laguna	12	San Juan la Laguna	2	Febrero	2023-02-02T00:00:00	2024-11-08T03:00:00	2	Temperatura media	12.1
34314	7	Sololá	717	San Juan la Laguna	12	San Juan la Laguna	2	Febrero	2023-02-02T00:00:00	2024-11-08T03:00:00	4	Temperatura máxima	12.6
34315	7	Sololá	717	San Juan la Laguna	12	San Juan la Laguna	2	Febrero	2023-02-02T00:00:00	2024-11-08T03:00:00	3	Temperatura mínima	12.1
34316	7	Sololá	717	San Juan la Laguna	12	San Juan la Laguna	2	Febrero	2023-02-02T00:00:00	2024-11-08T03:00:00	5	Humedad	73
34317	7	Sololá	717	San Juan la Laguna	12	San Juan la Laguna	2	Febrero	2023-02-02T00:00:00	2024-11-08T03:00:00	6	Velocidad del viento	4.8
34318	7	Sololá	717	San Juan la Laguna	12	San Juan la Laguna	2	Febrero	2023-02-02T00:00:00	2024-11-08T03:00:00	7	Dirección del viento	4.83
34319	7	Sololá	717	San Juan la Laguna	12	San Juan la Laguna	2	Febrero	2023-02-02T00:00:00	2024-11-08T03:00:00	1	Precipitación	0
34320	7	Sololá	717	San Juan la Laguna	12	San Juan la Laguna	2	Febrero	2023-02-02T00:00:00	2024-11-08T03:00:00	8	Radiación solar	0
34321	7	Sololá	717	San Juan la Laguna	12	San Juan la Laguna	2	Febrero	2023-02-02T00:00:00	2024-11-08T04:00:00	2	Temperatura media	11.6
34322	7	Sololá	717	San Juan la Laguna	12	San Juan la Laguna	2	Febrero	2023-02-02T00:00:00	2024-11-08T04:00:00	4	Temperatura máxima	12.1
34323	7	Sololá	717	San Juan la Laguna	12	San Juan la Laguna	2	Febrero	2023-02-02T00:00:00	2024-11-08T04:00:00	3	Temperatura mínima	11.4
34324	7	Sololá	717	San Juan la Laguna	12	San Juan la Laguna	2	Febrero	2023-02-02T00:00:00	2024-11-08T04:00:00	5	Humedad	75
34325	7	Sololá	717	San Juan la Laguna	12	San Juan la Laguna	2	Febrero	2023-02-02T00:00:00	2024-11-08T04:00:00	6	Velocidad del viento	6.4
34326	7	Sololá	717	San Juan la Laguna	12	San Juan la Laguna	2	Febrero	2023-02-02T00:00:00	2024-11-08T04:00:00	7	Dirección del viento	6.44
34327	7	Sololá	717	San Juan la Laguna	12	San Juan la Laguna	2	Febrero	2023-02-02T00:00:00	2024-11-08T04:00:00	1	Precipitación	0
34328	7	Sololá	717	San Juan la Laguna	12	San Juan la Laguna	2	Febrero	2023-02-02T00:00:00	2024-11-08T04:00:00	8	Radiación solar	0
34329	7	Sololá	717	San Juan la Laguna	12	San Juan la Laguna	2	Febrero	2023-02-02T00:00:00	2024-11-08T05:00:00	2	Temperatura media	11.2
34330	7	Sololá	717	San Juan la Laguna	12	San Juan la Laguna	2	Febrero	2023-02-02T00:00:00	2024-11-08T05:00:00	4	Temperatura máxima	11.6
34331	7	Sololá	717	San Juan la Laguna	12	San Juan la Laguna	2	Febrero	2023-02-02T00:00:00	2024-11-08T05:00:00	3	Temperatura mínima	11.2
34332	7	Sololá	717	San Juan la Laguna	12	San Juan la Laguna	2	Febrero	2023-02-02T00:00:00	2024-11-08T05:00:00	5	Humedad	75
34333	7	Sololá	717	San Juan la Laguna	12	San Juan la Laguna	2	Febrero	2023-02-02T00:00:00	2024-11-08T05:00:00	6	Velocidad del viento	4.8
34334	7	Sololá	717	San Juan la Laguna	12	San Juan la Laguna	2	Febrero	2023-02-02T00:00:00	2024-11-08T05:00:00	7	Dirección del viento	4.83
34335	7	Sololá	717	San Juan la Laguna	12	San Juan la Laguna	2	Febrero	2023-02-02T00:00:00	2024-11-08T05:00:00	1	Precipitación	0
34336	7	Sololá	717	San Juan la Laguna	12	San Juan la Laguna	2	Febrero	2023-02-02T00:00:00	2024-11-08T05:00:00	8	Radiación solar	0
34337	7	Sololá	717	San Juan la Laguna	12	San Juan la Laguna	2	Febrero	2023-02-02T00:00:00	2024-11-08T06:00:00	2	Temperatura media	10.8
34338	7	Sololá	717	San Juan la Laguna	12	San Juan la Laguna	2	Febrero	2023-02-02T00:00:00	2024-11-08T06:00:00	4	Temperatura máxima	11.4
34339	7	Sololá	717	San Juan la Laguna	12	San Juan la Laguna	2	Febrero	2023-02-02T00:00:00	2024-11-08T06:00:00	3	Temperatura mínima	10.8
34340	7	Sololá	717	San Juan la Laguna	12	San Juan la Laguna	2	Febrero	2023-02-02T00:00:00	2024-11-08T06:00:00	5	Humedad	77
34341	7	Sololá	717	San Juan la Laguna	12	San Juan la Laguna	2	Febrero	2023-02-02T00:00:00	2024-11-08T06:00:00	6	Velocidad del viento	4.8
34342	7	Sololá	717	San Juan la Laguna	12	San Juan la Laguna	2	Febrero	2023-02-02T00:00:00	2024-11-08T06:00:00	7	Dirección del viento	4.83
34343	7	Sololá	717	San Juan la Laguna	12	San Juan la Laguna	2	Febrero	2023-02-02T00:00:00	2024-11-08T06:00:00	1	Precipitación	0
34344	7	Sololá	717	San Juan la Laguna	12	San Juan la Laguna	2	Febrero	2023-02-02T00:00:00	2024-11-08T06:00:00	8	Radiación solar	0
34345	7	Sololá	717	San Juan la Laguna	12	San Juan la Laguna	2	Febrero	2023-02-02T00:00:00	2024-11-08T07:00:00	2	Temperatura media	10.8
34346	7	Sololá	717	San Juan la Laguna	12	San Juan la Laguna	2	Febrero	2023-02-02T00:00:00	2024-11-08T07:00:00	4	Temperatura máxima	10.8
34347	7	Sololá	717	San Juan la Laguna	12	San Juan la Laguna	2	Febrero	2023-02-02T00:00:00	2024-11-08T07:00:00	3	Temperatura mínima	10.4
34348	7	Sololá	717	San Juan la Laguna	12	San Juan la Laguna	2	Febrero	2023-02-02T00:00:00	2024-11-08T07:00:00	5	Humedad	77
34349	7	Sololá	717	San Juan la Laguna	12	San Juan la Laguna	2	Febrero	2023-02-02T00:00:00	2024-11-08T07:00:00	6	Velocidad del viento	4.8
34350	7	Sololá	717	San Juan la Laguna	12	San Juan la Laguna	2	Febrero	2023-02-02T00:00:00	2024-11-08T07:00:00	7	Dirección del viento	4.83
34351	7	Sololá	717	San Juan la Laguna	12	San Juan la Laguna	2	Febrero	2023-02-02T00:00:00	2024-11-08T07:00:00	1	Precipitación	0
34352	7	Sololá	717	San Juan la Laguna	12	San Juan la Laguna	2	Febrero	2023-02-02T00:00:00	2024-11-08T07:00:00	8	Radiación solar	5
34353	7	Sololá	717	San Juan la Laguna	12	San Juan la Laguna	2	Febrero	2023-02-02T00:00:00	2024-11-08T08:00:00	2	Temperatura media	13.3
34354	7	Sololá	717	San Juan la Laguna	12	San Juan la Laguna	2	Febrero	2023-02-02T00:00:00	2024-11-08T08:00:00	4	Temperatura máxima	13.3
34355	7	Sololá	717	San Juan la Laguna	12	San Juan la Laguna	2	Febrero	2023-02-02T00:00:00	2024-11-08T08:00:00	3	Temperatura mínima	10.7
34356	7	Sololá	717	San Juan la Laguna	12	San Juan la Laguna	2	Febrero	2023-02-02T00:00:00	2024-11-08T08:00:00	5	Humedad	69
34357	7	Sololá	717	San Juan la Laguna	12	San Juan la Laguna	2	Febrero	2023-02-02T00:00:00	2024-11-08T08:00:00	6	Velocidad del viento	3.2
34358	7	Sololá	717	San Juan la Laguna	12	San Juan la Laguna	2	Febrero	2023-02-02T00:00:00	2024-11-08T08:00:00	7	Dirección del viento	3.22
34359	7	Sololá	717	San Juan la Laguna	12	San Juan la Laguna	2	Febrero	2023-02-02T00:00:00	2024-11-08T08:00:00	1	Precipitación	0
34360	7	Sololá	717	San Juan la Laguna	12	San Juan la Laguna	2	Febrero	2023-02-02T00:00:00	2024-11-08T08:00:00	8	Radiación solar	126
34361	7	Sololá	717	San Juan la Laguna	12	San Juan la Laguna	2	Febrero	2023-02-02T00:00:00	2024-11-08T09:00:00	2	Temperatura media	19.2
34362	7	Sololá	717	San Juan la Laguna	12	San Juan la Laguna	2	Febrero	2023-02-02T00:00:00	2024-11-08T09:00:00	4	Temperatura máxima	19.2
34363	7	Sololá	717	San Juan la Laguna	12	San Juan la Laguna	2	Febrero	2023-02-02T00:00:00	2024-11-08T09:00:00	3	Temperatura mínima	13.4
34364	7	Sololá	717	San Juan la Laguna	12	San Juan la Laguna	2	Febrero	2023-02-02T00:00:00	2024-11-08T09:00:00	5	Humedad	53
34365	7	Sololá	717	San Juan la Laguna	12	San Juan la Laguna	2	Febrero	2023-02-02T00:00:00	2024-11-08T09:00:00	6	Velocidad del viento	1.6
34366	7	Sololá	717	San Juan la Laguna	12	San Juan la Laguna	2	Febrero	2023-02-02T00:00:00	2024-11-08T09:00:00	7	Dirección del viento	1.61
34367	7	Sololá	717	San Juan la Laguna	12	San Juan la Laguna	2	Febrero	2023-02-02T00:00:00	2024-11-08T09:00:00	1	Precipitación	0
34368	7	Sololá	717	San Juan la Laguna	12	San Juan la Laguna	2	Febrero	2023-02-02T00:00:00	2024-11-08T09:00:00	8	Radiación solar	362
34369	7	Sololá	717	San Juan la Laguna	12	San Juan la Laguna	2	Febrero	2023-02-02T00:00:00	2024-11-08T10:00:00	2	Temperatura media	19.9
34370	7	Sololá	717	San Juan la Laguna	12	San Juan la Laguna	2	Febrero	2023-02-02T00:00:00	2024-11-08T10:00:00	4	Temperatura máxima	19.9
34371	7	Sololá	717	San Juan la Laguna	12	San Juan la Laguna	2	Febrero	2023-02-02T00:00:00	2024-11-08T10:00:00	3	Temperatura mínima	18.8
34372	7	Sololá	717	San Juan la Laguna	12	San Juan la Laguna	2	Febrero	2023-02-02T00:00:00	2024-11-08T10:00:00	5	Humedad	47
34373	7	Sololá	717	San Juan la Laguna	12	San Juan la Laguna	2	Febrero	2023-02-02T00:00:00	2024-11-08T10:00:00	6	Velocidad del viento	1.6
34374	7	Sololá	717	San Juan la Laguna	12	San Juan la Laguna	2	Febrero	2023-02-02T00:00:00	2024-11-08T10:00:00	7	Dirección del viento	1.61
34375	7	Sololá	717	San Juan la Laguna	12	San Juan la Laguna	2	Febrero	2023-02-02T00:00:00	2024-11-08T10:00:00	1	Precipitación	0
34376	7	Sololá	717	San Juan la Laguna	12	San Juan la Laguna	2	Febrero	2023-02-02T00:00:00	2024-11-08T10:00:00	8	Radiación solar	563
34377	7	Sololá	717	San Juan la Laguna	12	San Juan la Laguna	2	Febrero	2023-02-02T00:00:00	2024-11-08T11:00:00	2	Temperatura media	22.7
34378	7	Sololá	717	San Juan la Laguna	12	San Juan la Laguna	2	Febrero	2023-02-02T00:00:00	2024-11-08T11:00:00	4	Temperatura máxima	22.7
34379	7	Sololá	717	San Juan la Laguna	12	San Juan la Laguna	2	Febrero	2023-02-02T00:00:00	2024-11-08T11:00:00	3	Temperatura mínima	20
34380	7	Sololá	717	San Juan la Laguna	12	San Juan la Laguna	2	Febrero	2023-02-02T00:00:00	2024-11-08T11:00:00	5	Humedad	37
34381	7	Sololá	717	San Juan la Laguna	12	San Juan la Laguna	2	Febrero	2023-02-02T00:00:00	2024-11-08T11:00:00	6	Velocidad del viento	3.2
34382	7	Sololá	717	San Juan la Laguna	12	San Juan la Laguna	2	Febrero	2023-02-02T00:00:00	2024-11-08T11:00:00	7	Dirección del viento	3.22
34383	7	Sololá	717	San Juan la Laguna	12	San Juan la Laguna	2	Febrero	2023-02-02T00:00:00	2024-11-08T11:00:00	1	Precipitación	0
34384	7	Sololá	717	San Juan la Laguna	12	San Juan la Laguna	2	Febrero	2023-02-02T00:00:00	2024-11-08T11:00:00	8	Radiación solar	709
34385	7	Sololá	717	San Juan la Laguna	12	San Juan la Laguna	2	Febrero	2023-02-02T00:00:00	2024-11-08T12:00:00	2	Temperatura media	23.4
34386	7	Sololá	717	San Juan la Laguna	12	San Juan la Laguna	2	Febrero	2023-02-02T00:00:00	2024-11-08T12:00:00	4	Temperatura máxima	23.4
34387	7	Sololá	717	San Juan la Laguna	12	San Juan la Laguna	2	Febrero	2023-02-02T00:00:00	2024-11-08T12:00:00	3	Temperatura mínima	22.5
34388	7	Sololá	717	San Juan la Laguna	12	San Juan la Laguna	2	Febrero	2023-02-02T00:00:00	2024-11-08T12:00:00	5	Humedad	34
34389	7	Sololá	717	San Juan la Laguna	12	San Juan la Laguna	2	Febrero	2023-02-02T00:00:00	2024-11-08T12:00:00	6	Velocidad del viento	3.2
34390	7	Sololá	717	San Juan la Laguna	12	San Juan la Laguna	2	Febrero	2023-02-02T00:00:00	2024-11-08T12:00:00	7	Dirección del viento	3.22
34391	7	Sololá	717	San Juan la Laguna	12	San Juan la Laguna	2	Febrero	2023-02-02T00:00:00	2024-11-08T12:00:00	1	Precipitación	0
34392	7	Sololá	717	San Juan la Laguna	12	San Juan la Laguna	2	Febrero	2023-02-02T00:00:00	2024-11-08T12:00:00	8	Radiación solar	721
34393	7	Sololá	717	San Juan la Laguna	12	San Juan la Laguna	2	Febrero	2023-02-02T00:00:00	2024-11-08T13:00:00	2	Temperatura media	24.8
34394	7	Sololá	717	San Juan la Laguna	12	San Juan la Laguna	2	Febrero	2023-02-02T00:00:00	2024-11-08T13:00:00	4	Temperatura máxima	25
34395	7	Sololá	717	San Juan la Laguna	12	San Juan la Laguna	2	Febrero	2023-02-02T00:00:00	2024-11-08T13:00:00	3	Temperatura mínima	23.4
34396	7	Sololá	717	San Juan la Laguna	12	San Juan la Laguna	2	Febrero	2023-02-02T00:00:00	2024-11-08T13:00:00	5	Humedad	30
34397	7	Sololá	717	San Juan la Laguna	12	San Juan la Laguna	2	Febrero	2023-02-02T00:00:00	2024-11-08T13:00:00	6	Velocidad del viento	3.2
34398	7	Sololá	717	San Juan la Laguna	12	San Juan la Laguna	2	Febrero	2023-02-02T00:00:00	2024-11-08T13:00:00	7	Dirección del viento	3.22
34399	7	Sololá	717	San Juan la Laguna	12	San Juan la Laguna	2	Febrero	2023-02-02T00:00:00	2024-11-08T13:00:00	1	Precipitación	0
34400	7	Sololá	717	San Juan la Laguna	12	San Juan la Laguna	2	Febrero	2023-02-02T00:00:00	2024-11-08T13:00:00	8	Radiación solar	838
34401	7	Sololá	717	San Juan la Laguna	12	San Juan la Laguna	2	Febrero	2023-02-02T00:00:00	2024-11-08T14:00:00	2	Temperatura media	24.2
34402	7	Sololá	717	San Juan la Laguna	12	San Juan la Laguna	2	Febrero	2023-02-02T00:00:00	2024-11-08T14:00:00	4	Temperatura máxima	25
34403	7	Sololá	717	San Juan la Laguna	12	San Juan la Laguna	2	Febrero	2023-02-02T00:00:00	2024-11-08T14:00:00	3	Temperatura mínima	24.2
34404	7	Sololá	717	San Juan la Laguna	12	San Juan la Laguna	2	Febrero	2023-02-02T00:00:00	2024-11-08T14:00:00	5	Humedad	49
34405	7	Sololá	717	San Juan la Laguna	12	San Juan la Laguna	2	Febrero	2023-02-02T00:00:00	2024-11-08T14:00:00	6	Velocidad del viento	4.8
34406	7	Sololá	717	San Juan la Laguna	12	San Juan la Laguna	2	Febrero	2023-02-02T00:00:00	2024-11-08T14:00:00	7	Dirección del viento	4.83
34407	7	Sololá	717	San Juan la Laguna	12	San Juan la Laguna	2	Febrero	2023-02-02T00:00:00	2024-11-08T14:00:00	1	Precipitación	0
34408	7	Sololá	717	San Juan la Laguna	12	San Juan la Laguna	2	Febrero	2023-02-02T00:00:00	2024-11-08T14:00:00	8	Radiación solar	785
34409	7	Sololá	717	San Juan la Laguna	12	San Juan la Laguna	2	Febrero	2023-02-02T00:00:00	2024-11-08T15:00:00	2	Temperatura media	22.4
34410	7	Sololá	717	San Juan la Laguna	12	San Juan la Laguna	2	Febrero	2023-02-02T00:00:00	2024-11-08T15:00:00	4	Temperatura máxima	24.2
34411	7	Sololá	717	San Juan la Laguna	12	San Juan la Laguna	2	Febrero	2023-02-02T00:00:00	2024-11-08T15:00:00	3	Temperatura mínima	22.4
34412	7	Sololá	717	San Juan la Laguna	12	San Juan la Laguna	2	Febrero	2023-02-02T00:00:00	2024-11-08T15:00:00	5	Humedad	61
34413	7	Sololá	717	San Juan la Laguna	12	San Juan la Laguna	2	Febrero	2023-02-02T00:00:00	2024-11-08T15:00:00	6	Velocidad del viento	12.9
34414	7	Sololá	717	San Juan la Laguna	12	San Juan la Laguna	2	Febrero	2023-02-02T00:00:00	2024-11-08T15:00:00	7	Dirección del viento	12.87
34415	7	Sololá	717	San Juan la Laguna	12	San Juan la Laguna	2	Febrero	2023-02-02T00:00:00	2024-11-08T15:00:00	1	Precipitación	0
34416	7	Sololá	717	San Juan la Laguna	12	San Juan la Laguna	2	Febrero	2023-02-02T00:00:00	2024-11-08T15:00:00	8	Radiación solar	660
34417	7	Sololá	717	San Juan la Laguna	12	San Juan la Laguna	2	Febrero	2023-02-02T00:00:00	2024-11-08T16:00:00	2	Temperatura media	21.7
34418	7	Sololá	717	San Juan la Laguna	12	San Juan la Laguna	2	Febrero	2023-02-02T00:00:00	2024-11-08T16:00:00	4	Temperatura máxima	22.6
34419	7	Sololá	717	San Juan la Laguna	12	San Juan la Laguna	2	Febrero	2023-02-02T00:00:00	2024-11-08T16:00:00	3	Temperatura mínima	21.4
34420	7	Sololá	717	San Juan la Laguna	12	San Juan la Laguna	2	Febrero	2023-02-02T00:00:00	2024-11-08T16:00:00	5	Humedad	65
34421	7	Sololá	717	San Juan la Laguna	12	San Juan la Laguna	2	Febrero	2023-02-02T00:00:00	2024-11-08T16:00:00	6	Velocidad del viento	12.9
34422	7	Sololá	717	San Juan la Laguna	12	San Juan la Laguna	2	Febrero	2023-02-02T00:00:00	2024-11-08T16:00:00	7	Dirección del viento	12.87
34423	7	Sololá	717	San Juan la Laguna	12	San Juan la Laguna	2	Febrero	2023-02-02T00:00:00	2024-11-08T16:00:00	1	Precipitación	0
34424	7	Sololá	717	San Juan la Laguna	12	San Juan la Laguna	2	Febrero	2023-02-02T00:00:00	2024-11-08T16:00:00	8	Radiación solar	480
34425	7	Sololá	717	San Juan la Laguna	12	San Juan la Laguna	2	Febrero	2023-02-02T00:00:00	2024-11-08T17:00:00	2	Temperatura media	20.6
34426	7	Sololá	717	San Juan la Laguna	12	San Juan la Laguna	2	Febrero	2023-02-02T00:00:00	2024-11-08T17:00:00	4	Temperatura máxima	21.7
34427	7	Sololá	717	San Juan la Laguna	12	San Juan la Laguna	2	Febrero	2023-02-02T00:00:00	2024-11-08T17:00:00	3	Temperatura mínima	20.6
34428	7	Sololá	717	San Juan la Laguna	12	San Juan la Laguna	2	Febrero	2023-02-02T00:00:00	2024-11-08T17:00:00	5	Humedad	70
34429	7	Sololá	717	San Juan la Laguna	12	San Juan la Laguna	2	Febrero	2023-02-02T00:00:00	2024-11-08T17:00:00	6	Velocidad del viento	8
34430	7	Sololá	717	San Juan la Laguna	12	San Juan la Laguna	2	Febrero	2023-02-02T00:00:00	2024-11-08T17:00:00	7	Dirección del viento	8.05
34431	7	Sololá	717	San Juan la Laguna	12	San Juan la Laguna	2	Febrero	2023-02-02T00:00:00	2024-11-08T17:00:00	1	Precipitación	0
34432	7	Sololá	717	San Juan la Laguna	12	San Juan la Laguna	2	Febrero	2023-02-02T00:00:00	2024-11-08T17:00:00	8	Radiación solar	253
34433	7	Sololá	717	San Juan la Laguna	12	San Juan la Laguna	2	Febrero	2023-02-02T00:00:00	2024-11-08T18:00:00	2	Temperatura media	18.8
34434	7	Sololá	717	San Juan la Laguna	12	San Juan la Laguna	2	Febrero	2023-02-02T00:00:00	2024-11-08T18:00:00	4	Temperatura máxima	20.6
34435	7	Sololá	717	San Juan la Laguna	12	San Juan la Laguna	2	Febrero	2023-02-02T00:00:00	2024-11-08T18:00:00	3	Temperatura mínima	18.8
34436	7	Sololá	717	San Juan la Laguna	12	San Juan la Laguna	2	Febrero	2023-02-02T00:00:00	2024-11-08T18:00:00	5	Humedad	79
34437	7	Sololá	717	San Juan la Laguna	12	San Juan la Laguna	2	Febrero	2023-02-02T00:00:00	2024-11-08T18:00:00	6	Velocidad del viento	4.8
34438	7	Sololá	717	San Juan la Laguna	12	San Juan la Laguna	2	Febrero	2023-02-02T00:00:00	2024-11-08T18:00:00	7	Dirección del viento	4.83
34439	7	Sololá	717	San Juan la Laguna	12	San Juan la Laguna	2	Febrero	2023-02-02T00:00:00	2024-11-08T18:00:00	1	Precipitación	0
34440	7	Sololá	717	San Juan la Laguna	12	San Juan la Laguna	2	Febrero	2023-02-02T00:00:00	2024-11-08T18:00:00	8	Radiación solar	25
34441	7	Sololá	717	San Juan la Laguna	12	San Juan la Laguna	2	Febrero	2023-02-02T00:00:00	2024-11-08T19:00:00	2	Temperatura media	16.9
34442	7	Sololá	717	San Juan la Laguna	12	San Juan la Laguna	2	Febrero	2023-02-02T00:00:00	2024-11-08T19:00:00	4	Temperatura máxima	18.8
34443	7	Sololá	717	San Juan la Laguna	12	San Juan la Laguna	2	Febrero	2023-02-02T00:00:00	2024-11-08T19:00:00	3	Temperatura mínima	16.9
34444	7	Sololá	717	San Juan la Laguna	12	San Juan la Laguna	2	Febrero	2023-02-02T00:00:00	2024-11-08T19:00:00	5	Humedad	81
34445	7	Sololá	717	San Juan la Laguna	12	San Juan la Laguna	2	Febrero	2023-02-02T00:00:00	2024-11-08T19:00:00	6	Velocidad del viento	3.2
34446	7	Sololá	717	San Juan la Laguna	12	San Juan la Laguna	2	Febrero	2023-02-02T00:00:00	2024-11-08T19:00:00	7	Dirección del viento	3.22
34447	7	Sololá	717	San Juan la Laguna	12	San Juan la Laguna	2	Febrero	2023-02-02T00:00:00	2024-11-08T19:00:00	1	Precipitación	0
34448	7	Sololá	717	San Juan la Laguna	12	San Juan la Laguna	2	Febrero	2023-02-02T00:00:00	2024-11-08T19:00:00	8	Radiación solar	0
34449	7	Sololá	717	San Juan la Laguna	12	San Juan la Laguna	2	Febrero	2023-02-02T00:00:00	2024-11-08T20:00:00	2	Temperatura media	15.5
34450	7	Sololá	717	San Juan la Laguna	12	San Juan la Laguna	2	Febrero	2023-02-02T00:00:00	2024-11-08T20:00:00	4	Temperatura máxima	16.9
34451	7	Sololá	717	San Juan la Laguna	12	San Juan la Laguna	2	Febrero	2023-02-02T00:00:00	2024-11-08T20:00:00	3	Temperatura mínima	15.5
34452	7	Sololá	717	San Juan la Laguna	12	San Juan la Laguna	2	Febrero	2023-02-02T00:00:00	2024-11-08T20:00:00	5	Humedad	85
34453	7	Sololá	717	San Juan la Laguna	12	San Juan la Laguna	2	Febrero	2023-02-02T00:00:00	2024-11-08T20:00:00	6	Velocidad del viento	1.6
34454	7	Sololá	717	San Juan la Laguna	12	San Juan la Laguna	2	Febrero	2023-02-02T00:00:00	2024-11-08T20:00:00	7	Dirección del viento	1.61
34455	7	Sololá	717	San Juan la Laguna	12	San Juan la Laguna	2	Febrero	2023-02-02T00:00:00	2024-11-08T20:00:00	1	Precipitación	0
34456	7	Sololá	717	San Juan la Laguna	12	San Juan la Laguna	2	Febrero	2023-02-02T00:00:00	2024-11-08T20:00:00	8	Radiación solar	0
34457	7	Sololá	717	San Juan la Laguna	12	San Juan la Laguna	2	Febrero	2023-02-02T00:00:00	2024-11-08T21:00:00	2	Temperatura media	15.1
34458	7	Sololá	717	San Juan la Laguna	12	San Juan la Laguna	2	Febrero	2023-02-02T00:00:00	2024-11-08T21:00:00	4	Temperatura máxima	15.5
34459	7	Sololá	717	San Juan la Laguna	12	San Juan la Laguna	2	Febrero	2023-02-02T00:00:00	2024-11-08T21:00:00	3	Temperatura mínima	15.1
34460	7	Sololá	717	San Juan la Laguna	12	San Juan la Laguna	2	Febrero	2023-02-02T00:00:00	2024-11-08T21:00:00	5	Humedad	84
34461	7	Sololá	717	San Juan la Laguna	12	San Juan la Laguna	2	Febrero	2023-02-02T00:00:00	2024-11-08T21:00:00	6	Velocidad del viento	1.6
34462	7	Sololá	717	San Juan la Laguna	12	San Juan la Laguna	2	Febrero	2023-02-02T00:00:00	2024-11-08T21:00:00	7	Dirección del viento	1.61
34463	7	Sololá	717	San Juan la Laguna	12	San Juan la Laguna	2	Febrero	2023-02-02T00:00:00	2024-11-08T21:00:00	1	Precipitación	0
34464	7	Sololá	717	San Juan la Laguna	12	San Juan la Laguna	2	Febrero	2023-02-02T00:00:00	2024-11-08T21:00:00	8	Radiación solar	0
34465	7	Sololá	717	San Juan la Laguna	12	San Juan la Laguna	2	Febrero	2023-02-02T00:00:00	2024-11-08T22:00:00	2	Temperatura media	14.4
34466	7	Sololá	717	San Juan la Laguna	12	San Juan la Laguna	2	Febrero	2023-02-02T00:00:00	2024-11-08T22:00:00	4	Temperatura máxima	15.1
34467	7	Sololá	717	San Juan la Laguna	12	San Juan la Laguna	2	Febrero	2023-02-02T00:00:00	2024-11-08T22:00:00	3	Temperatura mínima	14.4
34468	7	Sololá	717	San Juan la Laguna	12	San Juan la Laguna	2	Febrero	2023-02-02T00:00:00	2024-11-08T22:00:00	5	Humedad	82
34469	7	Sololá	717	San Juan la Laguna	12	San Juan la Laguna	2	Febrero	2023-02-02T00:00:00	2024-11-08T22:00:00	6	Velocidad del viento	1.6
34470	7	Sololá	717	San Juan la Laguna	12	San Juan la Laguna	2	Febrero	2023-02-02T00:00:00	2024-11-08T22:00:00	7	Dirección del viento	1.61
34471	7	Sololá	717	San Juan la Laguna	12	San Juan la Laguna	2	Febrero	2023-02-02T00:00:00	2024-11-08T22:00:00	1	Precipitación	0
34472	7	Sololá	717	San Juan la Laguna	12	San Juan la Laguna	2	Febrero	2023-02-02T00:00:00	2024-11-08T22:00:00	8	Radiación solar	0
34473	7	Sololá	717	San Juan la Laguna	12	San Juan la Laguna	2	Febrero	2023-02-02T00:00:00	2024-11-08T23:00:00	2	Temperatura media	14
34474	7	Sololá	717	San Juan la Laguna	12	San Juan la Laguna	2	Febrero	2023-02-02T00:00:00	2024-11-08T23:00:00	4	Temperatura máxima	14.6
34475	7	Sololá	717	San Juan la Laguna	12	San Juan la Laguna	2	Febrero	2023-02-02T00:00:00	2024-11-08T23:00:00	3	Temperatura mínima	14
34476	7	Sololá	717	San Juan la Laguna	12	San Juan la Laguna	2	Febrero	2023-02-02T00:00:00	2024-11-08T23:00:00	5	Humedad	80
34477	7	Sololá	717	San Juan la Laguna	12	San Juan la Laguna	2	Febrero	2023-02-02T00:00:00	2024-11-08T23:00:00	6	Velocidad del viento	4.8
34478	7	Sololá	717	San Juan la Laguna	12	San Juan la Laguna	2	Febrero	2023-02-02T00:00:00	2024-11-08T23:00:00	7	Dirección del viento	4.83
34479	7	Sololá	717	San Juan la Laguna	12	San Juan la Laguna	2	Febrero	2023-02-02T00:00:00	2024-11-08T23:00:00	1	Precipitación	0
34480	7	Sololá	717	San Juan la Laguna	12	San Juan la Laguna	2	Febrero	2023-02-02T00:00:00	2024-11-08T23:00:00	8	Radiación solar	0
34481	7	Sololá	717	San Juan la Laguna	12	San Juan la Laguna	2	Febrero	2023-03-02T00:00:00	2024-11-08T00:00:00	2	Temperatura media	13.7
34482	7	Sololá	717	San Juan la Laguna	12	San Juan la Laguna	2	Febrero	2023-03-02T00:00:00	2024-11-08T00:00:00	4	Temperatura máxima	14.1
34483	7	Sololá	717	San Juan la Laguna	12	San Juan la Laguna	2	Febrero	2023-03-02T00:00:00	2024-11-08T00:00:00	3	Temperatura mínima	13.6
34484	7	Sololá	717	San Juan la Laguna	12	San Juan la Laguna	2	Febrero	2023-03-02T00:00:00	2024-11-08T00:00:00	5	Humedad	80
34485	7	Sololá	717	San Juan la Laguna	12	San Juan la Laguna	2	Febrero	2023-03-02T00:00:00	2024-11-08T00:00:00	6	Velocidad del viento	4.8
34486	7	Sololá	717	San Juan la Laguna	12	San Juan la Laguna	2	Febrero	2023-03-02T00:00:00	2024-11-08T00:00:00	7	Dirección del viento	4.83
34487	7	Sololá	717	San Juan la Laguna	12	San Juan la Laguna	2	Febrero	2023-03-02T00:00:00	2024-11-08T00:00:00	1	Precipitación	0
34488	7	Sololá	717	San Juan la Laguna	12	San Juan la Laguna	2	Febrero	2023-03-02T00:00:00	2024-11-08T00:00:00	8	Radiación solar	0
34489	7	Sololá	717	San Juan la Laguna	12	San Juan la Laguna	2	Febrero	2023-03-02T00:00:00	2024-11-08T01:00:00	2	Temperatura media	13.4
34490	7	Sololá	717	San Juan la Laguna	12	San Juan la Laguna	2	Febrero	2023-03-02T00:00:00	2024-11-08T01:00:00	4	Temperatura máxima	13.8
34491	7	Sololá	717	San Juan la Laguna	12	San Juan la Laguna	2	Febrero	2023-03-02T00:00:00	2024-11-08T01:00:00	3	Temperatura mínima	12.9
34492	7	Sololá	717	San Juan la Laguna	12	San Juan la Laguna	2	Febrero	2023-03-02T00:00:00	2024-11-08T01:00:00	5	Humedad	81
34493	7	Sololá	717	San Juan la Laguna	12	San Juan la Laguna	2	Febrero	2023-03-02T00:00:00	2024-11-08T01:00:00	6	Velocidad del viento	4.8
34494	7	Sololá	717	San Juan la Laguna	12	San Juan la Laguna	2	Febrero	2023-03-02T00:00:00	2024-11-08T01:00:00	7	Dirección del viento	4.83
34495	7	Sololá	717	San Juan la Laguna	12	San Juan la Laguna	2	Febrero	2023-03-02T00:00:00	2024-11-08T01:00:00	1	Precipitación	0
34496	7	Sololá	717	San Juan la Laguna	12	San Juan la Laguna	2	Febrero	2023-03-02T00:00:00	2024-11-08T01:00:00	8	Radiación solar	0
34497	7	Sololá	717	San Juan la Laguna	12	San Juan la Laguna	2	Febrero	2023-03-02T00:00:00	2024-11-08T02:00:00	2	Temperatura media	12.9
34498	7	Sololá	717	San Juan la Laguna	12	San Juan la Laguna	2	Febrero	2023-03-02T00:00:00	2024-11-08T02:00:00	4	Temperatura máxima	13.6
34499	7	Sololá	717	San Juan la Laguna	12	San Juan la Laguna	2	Febrero	2023-03-02T00:00:00	2024-11-08T02:00:00	3	Temperatura mínima	12.8
34500	7	Sololá	717	San Juan la Laguna	12	San Juan la Laguna	2	Febrero	2023-03-02T00:00:00	2024-11-08T02:00:00	5	Humedad	80
34501	7	Sololá	717	San Juan la Laguna	12	San Juan la Laguna	2	Febrero	2023-03-02T00:00:00	2024-11-08T02:00:00	6	Velocidad del viento	3.2
34502	7	Sololá	717	San Juan la Laguna	12	San Juan la Laguna	2	Febrero	2023-03-02T00:00:00	2024-11-08T02:00:00	7	Dirección del viento	3.22
34503	7	Sololá	717	San Juan la Laguna	12	San Juan la Laguna	2	Febrero	2023-03-02T00:00:00	2024-11-08T02:00:00	1	Precipitación	0
34504	7	Sololá	717	San Juan la Laguna	12	San Juan la Laguna	2	Febrero	2023-03-02T00:00:00	2024-11-08T02:00:00	8	Radiación solar	0
34505	7	Sololá	717	San Juan la Laguna	12	San Juan la Laguna	2	Febrero	2023-03-02T00:00:00	2024-11-08T03:00:00	2	Temperatura media	12.2
34506	7	Sololá	717	San Juan la Laguna	12	San Juan la Laguna	2	Febrero	2023-03-02T00:00:00	2024-11-08T03:00:00	4	Temperatura máxima	12.9
34507	7	Sololá	717	San Juan la Laguna	12	San Juan la Laguna	2	Febrero	2023-03-02T00:00:00	2024-11-08T03:00:00	3	Temperatura mínima	12.2
34508	7	Sololá	717	San Juan la Laguna	12	San Juan la Laguna	2	Febrero	2023-03-02T00:00:00	2024-11-08T03:00:00	5	Humedad	81
34509	7	Sololá	717	San Juan la Laguna	12	San Juan la Laguna	2	Febrero	2023-03-02T00:00:00	2024-11-08T03:00:00	6	Velocidad del viento	3.2
34510	7	Sololá	717	San Juan la Laguna	12	San Juan la Laguna	2	Febrero	2023-03-02T00:00:00	2024-11-08T03:00:00	7	Dirección del viento	3.22
34511	7	Sololá	717	San Juan la Laguna	12	San Juan la Laguna	2	Febrero	2023-03-02T00:00:00	2024-11-08T03:00:00	1	Precipitación	0
34512	7	Sololá	717	San Juan la Laguna	12	San Juan la Laguna	2	Febrero	2023-03-02T00:00:00	2024-11-08T03:00:00	8	Radiación solar	0
34513	7	Sololá	717	San Juan la Laguna	12	San Juan la Laguna	2	Febrero	2023-03-02T00:00:00	2024-11-08T04:00:00	2	Temperatura media	12.1
34514	7	Sololá	717	San Juan la Laguna	12	San Juan la Laguna	2	Febrero	2023-03-02T00:00:00	2024-11-08T04:00:00	4	Temperatura máxima	12.6
34515	7	Sololá	717	San Juan la Laguna	12	San Juan la Laguna	2	Febrero	2023-03-02T00:00:00	2024-11-08T04:00:00	3	Temperatura mínima	12.1
34516	7	Sololá	717	San Juan la Laguna	12	San Juan la Laguna	2	Febrero	2023-03-02T00:00:00	2024-11-08T04:00:00	5	Humedad	78
34517	7	Sololá	717	San Juan la Laguna	12	San Juan la Laguna	2	Febrero	2023-03-02T00:00:00	2024-11-08T04:00:00	6	Velocidad del viento	4.8
34518	7	Sololá	717	San Juan la Laguna	12	San Juan la Laguna	2	Febrero	2023-03-02T00:00:00	2024-11-08T04:00:00	7	Dirección del viento	4.83
34519	7	Sololá	717	San Juan la Laguna	12	San Juan la Laguna	2	Febrero	2023-03-02T00:00:00	2024-11-08T04:00:00	1	Precipitación	0
34520	7	Sololá	717	San Juan la Laguna	12	San Juan la Laguna	2	Febrero	2023-03-02T00:00:00	2024-11-08T04:00:00	8	Radiación solar	0
34521	7	Sololá	717	San Juan la Laguna	12	San Juan la Laguna	2	Febrero	2023-03-02T00:00:00	2024-11-08T05:00:00	2	Temperatura media	12.5
34522	7	Sololá	717	San Juan la Laguna	12	San Juan la Laguna	2	Febrero	2023-03-02T00:00:00	2024-11-08T05:00:00	4	Temperatura máxima	12.7
34523	7	Sololá	717	San Juan la Laguna	12	San Juan la Laguna	2	Febrero	2023-03-02T00:00:00	2024-11-08T05:00:00	3	Temperatura mínima	11.5
34524	7	Sololá	717	San Juan la Laguna	12	San Juan la Laguna	2	Febrero	2023-03-02T00:00:00	2024-11-08T05:00:00	5	Humedad	76
34525	7	Sololá	717	San Juan la Laguna	12	San Juan la Laguna	2	Febrero	2023-03-02T00:00:00	2024-11-08T05:00:00	6	Velocidad del viento	3.2
34526	7	Sololá	717	San Juan la Laguna	12	San Juan la Laguna	2	Febrero	2023-03-02T00:00:00	2024-11-08T05:00:00	7	Dirección del viento	3.22
34527	7	Sololá	717	San Juan la Laguna	12	San Juan la Laguna	2	Febrero	2023-03-02T00:00:00	2024-11-08T05:00:00	1	Precipitación	0
34528	7	Sololá	717	San Juan la Laguna	12	San Juan la Laguna	2	Febrero	2023-03-02T00:00:00	2024-11-08T05:00:00	8	Radiación solar	0
34529	7	Sololá	717	San Juan la Laguna	12	San Juan la Laguna	2	Febrero	2023-03-02T00:00:00	2024-11-08T06:00:00	2	Temperatura media	13.3
34530	7	Sololá	717	San Juan la Laguna	12	San Juan la Laguna	2	Febrero	2023-03-02T00:00:00	2024-11-08T06:00:00	4	Temperatura máxima	13.8
34531	7	Sololá	717	San Juan la Laguna	12	San Juan la Laguna	2	Febrero	2023-03-02T00:00:00	2024-11-08T06:00:00	3	Temperatura mínima	12.1
34532	7	Sololá	717	San Juan la Laguna	12	San Juan la Laguna	2	Febrero	2023-03-02T00:00:00	2024-11-08T06:00:00	5	Humedad	73
34533	7	Sololá	717	San Juan la Laguna	12	San Juan la Laguna	2	Febrero	2023-03-02T00:00:00	2024-11-08T06:00:00	6	Velocidad del viento	1.6
34534	7	Sololá	717	San Juan la Laguna	12	San Juan la Laguna	2	Febrero	2023-03-02T00:00:00	2024-11-08T06:00:00	7	Dirección del viento	1.61
34535	7	Sololá	717	San Juan la Laguna	12	San Juan la Laguna	2	Febrero	2023-03-02T00:00:00	2024-11-08T06:00:00	1	Precipitación	0
34536	7	Sololá	717	San Juan la Laguna	12	San Juan la Laguna	2	Febrero	2023-03-02T00:00:00	2024-11-08T06:00:00	8	Radiación solar	0
34537	7	Sololá	717	San Juan la Laguna	12	San Juan la Laguna	2	Febrero	2023-03-02T00:00:00	2024-11-08T07:00:00	2	Temperatura media	15.5
34538	7	Sololá	717	San Juan la Laguna	12	San Juan la Laguna	2	Febrero	2023-03-02T00:00:00	2024-11-08T07:00:00	4	Temperatura máxima	16.1
34539	7	Sololá	717	San Juan la Laguna	12	San Juan la Laguna	2	Febrero	2023-03-02T00:00:00	2024-11-08T07:00:00	3	Temperatura mínima	12.7
34540	7	Sololá	717	San Juan la Laguna	12	San Juan la Laguna	2	Febrero	2023-03-02T00:00:00	2024-11-08T07:00:00	5	Humedad	68
34541	7	Sololá	717	San Juan la Laguna	12	San Juan la Laguna	2	Febrero	2023-03-02T00:00:00	2024-11-08T07:00:00	6	Velocidad del viento	4.8
34542	7	Sololá	717	San Juan la Laguna	12	San Juan la Laguna	2	Febrero	2023-03-02T00:00:00	2024-11-08T07:00:00	7	Dirección del viento	4.83
34543	7	Sololá	717	San Juan la Laguna	12	San Juan la Laguna	2	Febrero	2023-03-02T00:00:00	2024-11-08T07:00:00	1	Precipitación	0
34544	7	Sololá	717	San Juan la Laguna	12	San Juan la Laguna	2	Febrero	2023-03-02T00:00:00	2024-11-08T07:00:00	8	Radiación solar	5
34545	7	Sololá	717	San Juan la Laguna	12	San Juan la Laguna	2	Febrero	2023-03-02T00:00:00	2024-11-08T08:00:00	2	Temperatura media	16.8
34546	7	Sololá	717	San Juan la Laguna	12	San Juan la Laguna	2	Febrero	2023-03-02T00:00:00	2024-11-08T08:00:00	4	Temperatura máxima	16.8
34547	7	Sololá	717	San Juan la Laguna	12	San Juan la Laguna	2	Febrero	2023-03-02T00:00:00	2024-11-08T08:00:00	3	Temperatura mínima	15.4
34548	7	Sololá	717	San Juan la Laguna	12	San Juan la Laguna	2	Febrero	2023-03-02T00:00:00	2024-11-08T08:00:00	5	Humedad	64
34549	7	Sololá	717	San Juan la Laguna	12	San Juan la Laguna	2	Febrero	2023-03-02T00:00:00	2024-11-08T08:00:00	6	Velocidad del viento	1.6
34550	7	Sololá	717	San Juan la Laguna	12	San Juan la Laguna	2	Febrero	2023-03-02T00:00:00	2024-11-08T08:00:00	7	Dirección del viento	1.61
34551	7	Sololá	717	San Juan la Laguna	12	San Juan la Laguna	2	Febrero	2023-03-02T00:00:00	2024-11-08T08:00:00	1	Precipitación	0
34552	7	Sololá	717	San Juan la Laguna	12	San Juan la Laguna	2	Febrero	2023-03-02T00:00:00	2024-11-08T08:00:00	8	Radiación solar	126
34553	7	Sololá	717	San Juan la Laguna	12	San Juan la Laguna	2	Febrero	2023-03-02T00:00:00	2024-11-08T09:00:00	2	Temperatura media	20.3
34554	7	Sololá	717	San Juan la Laguna	12	San Juan la Laguna	2	Febrero	2023-03-02T00:00:00	2024-11-08T09:00:00	4	Temperatura máxima	20.5
34555	7	Sololá	717	San Juan la Laguna	12	San Juan la Laguna	2	Febrero	2023-03-02T00:00:00	2024-11-08T09:00:00	3	Temperatura mínima	16.8
34556	7	Sololá	717	San Juan la Laguna	12	San Juan la Laguna	2	Febrero	2023-03-02T00:00:00	2024-11-08T09:00:00	5	Humedad	51
34557	7	Sololá	717	San Juan la Laguna	12	San Juan la Laguna	2	Febrero	2023-03-02T00:00:00	2024-11-08T09:00:00	6	Velocidad del viento	11.3
34558	7	Sololá	717	San Juan la Laguna	12	San Juan la Laguna	2	Febrero	2023-03-02T00:00:00	2024-11-08T09:00:00	7	Dirección del viento	11.27
34559	7	Sololá	717	San Juan la Laguna	12	San Juan la Laguna	2	Febrero	2023-03-02T00:00:00	2024-11-08T09:00:00	1	Precipitación	0
34560	7	Sololá	717	San Juan la Laguna	12	San Juan la Laguna	2	Febrero	2023-03-02T00:00:00	2024-11-08T09:00:00	8	Radiación solar	354
34561	7	Sololá	717	San Juan la Laguna	12	San Juan la Laguna	2	Febrero	2023-03-02T00:00:00	2024-11-08T10:00:00	2	Temperatura media	20.7
34562	7	Sololá	717	San Juan la Laguna	12	San Juan la Laguna	2	Febrero	2023-03-02T00:00:00	2024-11-08T10:00:00	4	Temperatura máxima	20.7
34563	7	Sololá	717	San Juan la Laguna	12	San Juan la Laguna	2	Febrero	2023-03-02T00:00:00	2024-11-08T10:00:00	3	Temperatura mínima	20.3
34564	7	Sololá	717	San Juan la Laguna	12	San Juan la Laguna	2	Febrero	2023-03-02T00:00:00	2024-11-08T10:00:00	5	Humedad	55
34565	7	Sololá	717	San Juan la Laguna	12	San Juan la Laguna	2	Febrero	2023-03-02T00:00:00	2024-11-08T10:00:00	6	Velocidad del viento	16.1
34566	7	Sololá	717	San Juan la Laguna	12	San Juan la Laguna	2	Febrero	2023-03-02T00:00:00	2024-11-08T10:00:00	7	Dirección del viento	16.09
34567	7	Sololá	717	San Juan la Laguna	12	San Juan la Laguna	2	Febrero	2023-03-02T00:00:00	2024-11-08T10:00:00	1	Precipitación	0
34568	7	Sololá	717	San Juan la Laguna	12	San Juan la Laguna	2	Febrero	2023-03-02T00:00:00	2024-11-08T10:00:00	8	Radiación solar	555
34569	7	Sololá	717	San Juan la Laguna	12	San Juan la Laguna	2	Febrero	2023-03-02T00:00:00	2024-11-08T11:00:00	2	Temperatura media	21.2
34570	7	Sololá	717	San Juan la Laguna	12	San Juan la Laguna	2	Febrero	2023-03-02T00:00:00	2024-11-08T11:00:00	4	Temperatura máxima	21.3
34571	7	Sololá	717	San Juan la Laguna	12	San Juan la Laguna	2	Febrero	2023-03-02T00:00:00	2024-11-08T11:00:00	3	Temperatura mínima	20.5
34572	7	Sololá	717	San Juan la Laguna	12	San Juan la Laguna	2	Febrero	2023-03-02T00:00:00	2024-11-08T11:00:00	5	Humedad	55
34573	7	Sololá	717	San Juan la Laguna	12	San Juan la Laguna	2	Febrero	2023-03-02T00:00:00	2024-11-08T11:00:00	6	Velocidad del viento	14.5
34574	7	Sololá	717	San Juan la Laguna	12	San Juan la Laguna	2	Febrero	2023-03-02T00:00:00	2024-11-08T11:00:00	7	Dirección del viento	14.48
34575	7	Sololá	717	San Juan la Laguna	12	San Juan la Laguna	2	Febrero	2023-03-02T00:00:00	2024-11-08T11:00:00	1	Precipitación	0
34576	7	Sololá	717	San Juan la Laguna	12	San Juan la Laguna	2	Febrero	2023-03-02T00:00:00	2024-11-08T11:00:00	8	Radiación solar	703
34577	7	Sololá	717	San Juan la Laguna	12	San Juan la Laguna	2	Febrero	2023-03-02T00:00:00	2024-11-08T12:00:00	2	Temperatura media	21.6
34578	7	Sololá	717	San Juan la Laguna	12	San Juan la Laguna	2	Febrero	2023-03-02T00:00:00	2024-11-08T12:00:00	4	Temperatura máxima	21.6
34579	7	Sololá	717	San Juan la Laguna	12	San Juan la Laguna	2	Febrero	2023-03-02T00:00:00	2024-11-08T12:00:00	3	Temperatura mínima	20.9
34580	7	Sololá	717	San Juan la Laguna	12	San Juan la Laguna	2	Febrero	2023-03-02T00:00:00	2024-11-08T12:00:00	5	Humedad	56
34581	7	Sololá	717	San Juan la Laguna	12	San Juan la Laguna	2	Febrero	2023-03-02T00:00:00	2024-11-08T12:00:00	6	Velocidad del viento	16.1
34582	7	Sololá	717	San Juan la Laguna	12	San Juan la Laguna	2	Febrero	2023-03-02T00:00:00	2024-11-08T12:00:00	7	Dirección del viento	16.09
34583	7	Sololá	717	San Juan la Laguna	12	San Juan la Laguna	2	Febrero	2023-03-02T00:00:00	2024-11-08T12:00:00	1	Precipitación	0
34584	7	Sololá	717	San Juan la Laguna	12	San Juan la Laguna	2	Febrero	2023-03-02T00:00:00	2024-11-08T12:00:00	8	Radiación solar	726
34585	7	Sololá	717	San Juan la Laguna	12	San Juan la Laguna	2	Febrero	2023-03-02T00:00:00	2024-11-08T13:00:00	2	Temperatura media	21.2
34586	7	Sololá	717	San Juan la Laguna	12	San Juan la Laguna	2	Febrero	2023-03-02T00:00:00	2024-11-08T13:00:00	4	Temperatura máxima	21.8
34587	7	Sololá	717	San Juan la Laguna	12	San Juan la Laguna	2	Febrero	2023-03-02T00:00:00	2024-11-08T13:00:00	3	Temperatura mínima	20.8
34588	7	Sololá	717	San Juan la Laguna	12	San Juan la Laguna	2	Febrero	2023-03-02T00:00:00	2024-11-08T13:00:00	5	Humedad	58
34589	7	Sololá	717	San Juan la Laguna	12	San Juan la Laguna	2	Febrero	2023-03-02T00:00:00	2024-11-08T13:00:00	6	Velocidad del viento	14.5
34590	7	Sololá	717	San Juan la Laguna	12	San Juan la Laguna	2	Febrero	2023-03-02T00:00:00	2024-11-08T13:00:00	7	Dirección del viento	14.48
34591	7	Sololá	717	San Juan la Laguna	12	San Juan la Laguna	2	Febrero	2023-03-02T00:00:00	2024-11-08T13:00:00	1	Precipitación	0
34592	7	Sololá	717	San Juan la Laguna	12	San Juan la Laguna	2	Febrero	2023-03-02T00:00:00	2024-11-08T13:00:00	8	Radiación solar	868
34593	7	Sololá	717	San Juan la Laguna	12	San Juan la Laguna	2	Febrero	2023-03-02T00:00:00	2024-11-08T14:00:00	2	Temperatura media	20.1
34594	7	Sololá	717	San Juan la Laguna	12	San Juan la Laguna	2	Febrero	2023-03-02T00:00:00	2024-11-08T14:00:00	4	Temperatura máxima	22
34595	7	Sololá	717	San Juan la Laguna	12	San Juan la Laguna	2	Febrero	2023-03-02T00:00:00	2024-11-08T14:00:00	3	Temperatura mínima	19.9
34596	7	Sololá	717	San Juan la Laguna	12	San Juan la Laguna	2	Febrero	2023-03-02T00:00:00	2024-11-08T14:00:00	5	Humedad	63
34597	7	Sololá	717	San Juan la Laguna	12	San Juan la Laguna	2	Febrero	2023-03-02T00:00:00	2024-11-08T14:00:00	6	Velocidad del viento	16.1
34598	7	Sololá	717	San Juan la Laguna	12	San Juan la Laguna	2	Febrero	2023-03-02T00:00:00	2024-11-08T14:00:00	7	Dirección del viento	16.09
34599	7	Sololá	717	San Juan la Laguna	12	San Juan la Laguna	2	Febrero	2023-03-02T00:00:00	2024-11-08T14:00:00	1	Precipitación	0
34600	7	Sololá	717	San Juan la Laguna	12	San Juan la Laguna	2	Febrero	2023-03-02T00:00:00	2024-11-08T14:00:00	8	Radiación solar	547
34601	7	Sololá	717	San Juan la Laguna	12	San Juan la Laguna	2	Febrero	2023-03-02T00:00:00	2024-11-08T15:00:00	2	Temperatura media	18.6
34602	7	Sololá	717	San Juan la Laguna	12	San Juan la Laguna	2	Febrero	2023-03-02T00:00:00	2024-11-08T15:00:00	4	Temperatura máxima	20.3
34603	7	Sololá	717	San Juan la Laguna	12	San Juan la Laguna	2	Febrero	2023-03-02T00:00:00	2024-11-08T15:00:00	3	Temperatura mínima	18.4
34604	7	Sololá	717	San Juan la Laguna	12	San Juan la Laguna	2	Febrero	2023-03-02T00:00:00	2024-11-08T15:00:00	5	Humedad	66
34605	7	Sololá	717	San Juan la Laguna	12	San Juan la Laguna	2	Febrero	2023-03-02T00:00:00	2024-11-08T15:00:00	6	Velocidad del viento	17.7
34606	7	Sololá	717	San Juan la Laguna	12	San Juan la Laguna	2	Febrero	2023-03-02T00:00:00	2024-11-08T15:00:00	7	Dirección del viento	17.7
34607	7	Sololá	717	San Juan la Laguna	12	San Juan la Laguna	2	Febrero	2023-03-02T00:00:00	2024-11-08T15:00:00	1	Precipitación	0
34608	7	Sololá	717	San Juan la Laguna	12	San Juan la Laguna	2	Febrero	2023-03-02T00:00:00	2024-11-08T15:00:00	8	Radiación solar	233
34609	7	Sololá	717	San Juan la Laguna	12	San Juan la Laguna	2	Febrero	2023-03-02T00:00:00	2024-11-08T16:00:00	2	Temperatura media	18.8
34610	7	Sololá	717	San Juan la Laguna	12	San Juan la Laguna	2	Febrero	2023-03-02T00:00:00	2024-11-08T16:00:00	4	Temperatura máxima	19.2
34611	7	Sololá	717	San Juan la Laguna	12	San Juan la Laguna	2	Febrero	2023-03-02T00:00:00	2024-11-08T16:00:00	3	Temperatura mínima	18.6
34612	7	Sololá	717	San Juan la Laguna	12	San Juan la Laguna	2	Febrero	2023-03-02T00:00:00	2024-11-08T16:00:00	5	Humedad	62
34613	7	Sololá	717	San Juan la Laguna	12	San Juan la Laguna	2	Febrero	2023-03-02T00:00:00	2024-11-08T16:00:00	6	Velocidad del viento	12.9
34614	7	Sololá	717	San Juan la Laguna	12	San Juan la Laguna	2	Febrero	2023-03-02T00:00:00	2024-11-08T16:00:00	7	Dirección del viento	12.87
34615	7	Sololá	717	San Juan la Laguna	12	San Juan la Laguna	2	Febrero	2023-03-02T00:00:00	2024-11-08T16:00:00	1	Precipitación	0
34616	7	Sololá	717	San Juan la Laguna	12	San Juan la Laguna	2	Febrero	2023-03-02T00:00:00	2024-11-08T16:00:00	8	Radiación solar	217
34617	7	Sololá	717	San Juan la Laguna	12	San Juan la Laguna	2	Febrero	2023-03-02T00:00:00	2024-11-08T17:00:00	2	Temperatura media	19.1
34618	7	Sololá	717	San Juan la Laguna	12	San Juan la Laguna	2	Febrero	2023-03-02T00:00:00	2024-11-08T17:00:00	4	Temperatura máxima	19.3
34619	7	Sololá	717	San Juan la Laguna	12	San Juan la Laguna	2	Febrero	2023-03-02T00:00:00	2024-11-08T17:00:00	3	Temperatura mínima	18.8
34620	7	Sololá	717	San Juan la Laguna	12	San Juan la Laguna	2	Febrero	2023-03-02T00:00:00	2024-11-08T17:00:00	5	Humedad	57
34621	7	Sololá	717	San Juan la Laguna	12	San Juan la Laguna	2	Febrero	2023-03-02T00:00:00	2024-11-08T17:00:00	6	Velocidad del viento	14.5
34622	7	Sololá	717	San Juan la Laguna	12	San Juan la Laguna	2	Febrero	2023-03-02T00:00:00	2024-11-08T17:00:00	7	Dirección del viento	14.48
34623	7	Sololá	717	San Juan la Laguna	12	San Juan la Laguna	2	Febrero	2023-03-02T00:00:00	2024-11-08T17:00:00	1	Precipitación	0
34624	7	Sololá	717	San Juan la Laguna	12	San Juan la Laguna	2	Febrero	2023-03-02T00:00:00	2024-11-08T17:00:00	8	Radiación solar	361
34625	7	Sololá	717	San Juan la Laguna	12	San Juan la Laguna	2	Febrero	2023-03-02T00:00:00	2024-11-08T18:00:00	2	Temperatura media	17.6
34626	7	Sololá	717	San Juan la Laguna	12	San Juan la Laguna	2	Febrero	2023-03-02T00:00:00	2024-11-08T18:00:00	4	Temperatura máxima	19.1
34627	7	Sololá	717	San Juan la Laguna	12	San Juan la Laguna	2	Febrero	2023-03-02T00:00:00	2024-11-08T18:00:00	3	Temperatura mínima	17.6
34628	7	Sololá	717	San Juan la Laguna	12	San Juan la Laguna	2	Febrero	2023-03-02T00:00:00	2024-11-08T18:00:00	5	Humedad	65
34629	7	Sololá	717	San Juan la Laguna	12	San Juan la Laguna	2	Febrero	2023-03-02T00:00:00	2024-11-08T18:00:00	6	Velocidad del viento	14.5
34630	7	Sololá	717	San Juan la Laguna	12	San Juan la Laguna	2	Febrero	2023-03-02T00:00:00	2024-11-08T18:00:00	7	Dirección del viento	14.48
34631	7	Sololá	717	San Juan la Laguna	12	San Juan la Laguna	2	Febrero	2023-03-02T00:00:00	2024-11-08T18:00:00	1	Precipitación	0
34632	7	Sololá	717	San Juan la Laguna	12	San Juan la Laguna	2	Febrero	2023-03-02T00:00:00	2024-11-08T18:00:00	8	Radiación solar	35
34633	7	Sololá	717	San Juan la Laguna	12	San Juan la Laguna	2	Febrero	2023-03-02T00:00:00	2024-11-08T19:00:00	2	Temperatura media	17.6
34634	7	Sololá	717	San Juan la Laguna	12	San Juan la Laguna	2	Febrero	2023-03-02T00:00:00	2024-11-08T19:00:00	4	Temperatura máxima	17.7
34635	7	Sololá	717	San Juan la Laguna	12	San Juan la Laguna	2	Febrero	2023-03-02T00:00:00	2024-11-08T19:00:00	3	Temperatura mínima	17.3
34636	7	Sololá	717	San Juan la Laguna	12	San Juan la Laguna	2	Febrero	2023-03-02T00:00:00	2024-11-08T19:00:00	5	Humedad	63
34637	7	Sololá	717	San Juan la Laguna	12	San Juan la Laguna	2	Febrero	2023-03-02T00:00:00	2024-11-08T19:00:00	6	Velocidad del viento	16.1
34638	7	Sololá	717	San Juan la Laguna	12	San Juan la Laguna	2	Febrero	2023-03-02T00:00:00	2024-11-08T19:00:00	7	Dirección del viento	16.09
34639	7	Sololá	717	San Juan la Laguna	12	San Juan la Laguna	2	Febrero	2023-03-02T00:00:00	2024-11-08T19:00:00	1	Precipitación	0
34640	7	Sololá	717	San Juan la Laguna	12	San Juan la Laguna	2	Febrero	2023-03-02T00:00:00	2024-11-08T19:00:00	8	Radiación solar	0
34641	7	Sololá	717	San Juan la Laguna	12	San Juan la Laguna	2	Febrero	2023-03-02T00:00:00	2024-11-08T20:00:00	2	Temperatura media	17.1
34642	7	Sololá	717	San Juan la Laguna	12	San Juan la Laguna	2	Febrero	2023-03-02T00:00:00	2024-11-08T20:00:00	4	Temperatura máxima	17.7
34643	7	Sololá	717	San Juan la Laguna	12	San Juan la Laguna	2	Febrero	2023-03-02T00:00:00	2024-11-08T20:00:00	3	Temperatura mínima	17.1
34644	7	Sololá	717	San Juan la Laguna	12	San Juan la Laguna	2	Febrero	2023-03-02T00:00:00	2024-11-08T20:00:00	5	Humedad	66
34645	7	Sololá	717	San Juan la Laguna	12	San Juan la Laguna	2	Febrero	2023-03-02T00:00:00	2024-11-08T20:00:00	6	Velocidad del viento	14.5
34646	7	Sololá	717	San Juan la Laguna	12	San Juan la Laguna	2	Febrero	2023-03-02T00:00:00	2024-11-08T20:00:00	7	Dirección del viento	14.48
34647	7	Sololá	717	San Juan la Laguna	12	San Juan la Laguna	2	Febrero	2023-03-02T00:00:00	2024-11-08T20:00:00	1	Precipitación	0
34648	7	Sololá	717	San Juan la Laguna	12	San Juan la Laguna	2	Febrero	2023-03-02T00:00:00	2024-11-08T20:00:00	8	Radiación solar	0
34649	7	Sololá	717	San Juan la Laguna	12	San Juan la Laguna	2	Febrero	2023-03-02T00:00:00	2024-11-08T21:00:00	2	Temperatura media	17.6
34650	7	Sololá	717	San Juan la Laguna	12	San Juan la Laguna	2	Febrero	2023-03-02T00:00:00	2024-11-08T21:00:00	4	Temperatura máxima	17.6
34651	7	Sololá	717	San Juan la Laguna	12	San Juan la Laguna	2	Febrero	2023-03-02T00:00:00	2024-11-08T21:00:00	3	Temperatura mínima	17.1
34652	7	Sololá	717	San Juan la Laguna	12	San Juan la Laguna	2	Febrero	2023-03-02T00:00:00	2024-11-08T21:00:00	5	Humedad	63
34653	7	Sololá	717	San Juan la Laguna	12	San Juan la Laguna	2	Febrero	2023-03-02T00:00:00	2024-11-08T21:00:00	6	Velocidad del viento	12.9
34654	7	Sololá	717	San Juan la Laguna	12	San Juan la Laguna	2	Febrero	2023-03-02T00:00:00	2024-11-08T21:00:00	7	Dirección del viento	12.87
34655	7	Sololá	717	San Juan la Laguna	12	San Juan la Laguna	2	Febrero	2023-03-02T00:00:00	2024-11-08T21:00:00	1	Precipitación	0
34656	7	Sololá	717	San Juan la Laguna	12	San Juan la Laguna	2	Febrero	2023-03-02T00:00:00	2024-11-08T21:00:00	8	Radiación solar	0
34657	7	Sololá	717	San Juan la Laguna	12	San Juan la Laguna	2	Febrero	2023-03-02T00:00:00	2024-11-08T22:00:00	2	Temperatura media	17.1
34658	7	Sololá	717	San Juan la Laguna	12	San Juan la Laguna	2	Febrero	2023-03-02T00:00:00	2024-11-08T22:00:00	4	Temperatura máxima	17.6
34659	7	Sololá	717	San Juan la Laguna	12	San Juan la Laguna	2	Febrero	2023-03-02T00:00:00	2024-11-08T22:00:00	3	Temperatura mínima	17.1
34660	7	Sololá	717	San Juan la Laguna	12	San Juan la Laguna	2	Febrero	2023-03-02T00:00:00	2024-11-08T22:00:00	5	Humedad	66
34661	7	Sololá	717	San Juan la Laguna	12	San Juan la Laguna	2	Febrero	2023-03-02T00:00:00	2024-11-08T22:00:00	6	Velocidad del viento	14.5
34662	7	Sololá	717	San Juan la Laguna	12	San Juan la Laguna	2	Febrero	2023-03-02T00:00:00	2024-11-08T22:00:00	7	Dirección del viento	14.48
34663	7	Sololá	717	San Juan la Laguna	12	San Juan la Laguna	2	Febrero	2023-03-02T00:00:00	2024-11-08T22:00:00	1	Precipitación	0
34664	7	Sololá	717	San Juan la Laguna	12	San Juan la Laguna	2	Febrero	2023-03-02T00:00:00	2024-11-08T22:00:00	8	Radiación solar	0
34665	7	Sololá	717	San Juan la Laguna	12	San Juan la Laguna	2	Febrero	2023-03-02T00:00:00	2024-11-08T23:00:00	2	Temperatura media	17.1
34666	7	Sololá	717	San Juan la Laguna	12	San Juan la Laguna	2	Febrero	2023-03-02T00:00:00	2024-11-08T23:00:00	4	Temperatura máxima	17.1
34667	7	Sololá	717	San Juan la Laguna	12	San Juan la Laguna	2	Febrero	2023-03-02T00:00:00	2024-11-08T23:00:00	3	Temperatura mínima	16.9
34668	7	Sololá	717	San Juan la Laguna	12	San Juan la Laguna	2	Febrero	2023-03-02T00:00:00	2024-11-08T23:00:00	5	Humedad	68
34669	7	Sololá	717	San Juan la Laguna	12	San Juan la Laguna	2	Febrero	2023-03-02T00:00:00	2024-11-08T23:00:00	6	Velocidad del viento	17.7
34670	7	Sololá	717	San Juan la Laguna	12	San Juan la Laguna	2	Febrero	2023-03-02T00:00:00	2024-11-08T23:00:00	7	Dirección del viento	17.7
34671	7	Sololá	717	San Juan la Laguna	12	San Juan la Laguna	2	Febrero	2023-03-02T00:00:00	2024-11-08T23:00:00	1	Precipitación	0
34672	7	Sololá	717	San Juan la Laguna	12	San Juan la Laguna	2	Febrero	2023-03-02T00:00:00	2024-11-08T23:00:00	8	Radiación solar	0
34673	7	Sololá	717	San Juan la Laguna	12	San Juan la Laguna	2	Febrero	2023-04-02T00:00:00	2024-11-08T00:00:00	2	Temperatura media	16.8
34674	7	Sololá	717	San Juan la Laguna	12	San Juan la Laguna	2	Febrero	2023-04-02T00:00:00	2024-11-08T00:00:00	4	Temperatura máxima	17.1
34675	7	Sololá	717	San Juan la Laguna	12	San Juan la Laguna	2	Febrero	2023-04-02T00:00:00	2024-11-08T00:00:00	3	Temperatura mínima	16.6
34676	7	Sololá	717	San Juan la Laguna	12	San Juan la Laguna	2	Febrero	2023-04-02T00:00:00	2024-11-08T00:00:00	5	Humedad	71
34677	7	Sololá	717	San Juan la Laguna	12	San Juan la Laguna	2	Febrero	2023-04-02T00:00:00	2024-11-08T00:00:00	6	Velocidad del viento	11.3
34678	7	Sololá	717	San Juan la Laguna	12	San Juan la Laguna	2	Febrero	2023-04-02T00:00:00	2024-11-08T00:00:00	7	Dirección del viento	11.27
34679	7	Sololá	717	San Juan la Laguna	12	San Juan la Laguna	2	Febrero	2023-04-02T00:00:00	2024-11-08T00:00:00	1	Precipitación	0
34680	7	Sololá	717	San Juan la Laguna	12	San Juan la Laguna	2	Febrero	2023-04-02T00:00:00	2024-11-08T00:00:00	8	Radiación solar	0
34681	7	Sololá	717	San Juan la Laguna	12	San Juan la Laguna	2	Febrero	2023-04-02T00:00:00	2024-11-08T01:00:00	2	Temperatura media	17
34682	7	Sololá	717	San Juan la Laguna	12	San Juan la Laguna	2	Febrero	2023-04-02T00:00:00	2024-11-08T01:00:00	4	Temperatura máxima	17.2
34683	7	Sololá	717	San Juan la Laguna	12	San Juan la Laguna	2	Febrero	2023-04-02T00:00:00	2024-11-08T01:00:00	3	Temperatura mínima	16.8
34684	7	Sololá	717	San Juan la Laguna	12	San Juan la Laguna	2	Febrero	2023-04-02T00:00:00	2024-11-08T01:00:00	5	Humedad	71
34685	7	Sololá	717	San Juan la Laguna	12	San Juan la Laguna	2	Febrero	2023-04-02T00:00:00	2024-11-08T01:00:00	6	Velocidad del viento	11.3
34686	7	Sololá	717	San Juan la Laguna	12	San Juan la Laguna	2	Febrero	2023-04-02T00:00:00	2024-11-08T01:00:00	7	Dirección del viento	11.27
34687	7	Sololá	717	San Juan la Laguna	12	San Juan la Laguna	2	Febrero	2023-04-02T00:00:00	2024-11-08T01:00:00	1	Precipitación	0
34688	7	Sololá	717	San Juan la Laguna	12	San Juan la Laguna	2	Febrero	2023-04-02T00:00:00	2024-11-08T01:00:00	8	Radiación solar	0
34689	7	Sololá	717	San Juan la Laguna	12	San Juan la Laguna	2	Febrero	2023-04-02T00:00:00	2024-11-08T02:00:00	2	Temperatura media	17.3
34690	7	Sololá	717	San Juan la Laguna	12	San Juan la Laguna	2	Febrero	2023-04-02T00:00:00	2024-11-08T02:00:00	4	Temperatura máxima	17.4
34691	7	Sololá	717	San Juan la Laguna	12	San Juan la Laguna	2	Febrero	2023-04-02T00:00:00	2024-11-08T02:00:00	3	Temperatura mínima	16.9
34692	7	Sololá	717	San Juan la Laguna	12	San Juan la Laguna	2	Febrero	2023-04-02T00:00:00	2024-11-08T02:00:00	5	Humedad	69
34693	7	Sololá	717	San Juan la Laguna	12	San Juan la Laguna	2	Febrero	2023-04-02T00:00:00	2024-11-08T02:00:00	6	Velocidad del viento	11.3
34694	7	Sololá	717	San Juan la Laguna	12	San Juan la Laguna	2	Febrero	2023-04-02T00:00:00	2024-11-08T02:00:00	7	Dirección del viento	11.27
34695	7	Sololá	717	San Juan la Laguna	12	San Juan la Laguna	2	Febrero	2023-04-02T00:00:00	2024-11-08T02:00:00	1	Precipitación	0
34696	7	Sololá	717	San Juan la Laguna	12	San Juan la Laguna	2	Febrero	2023-04-02T00:00:00	2024-11-08T02:00:00	8	Radiación solar	0
34697	7	Sololá	717	San Juan la Laguna	12	San Juan la Laguna	2	Febrero	2023-04-02T00:00:00	2024-11-08T03:00:00	2	Temperatura media	17.1
34698	7	Sololá	717	San Juan la Laguna	12	San Juan la Laguna	2	Febrero	2023-04-02T00:00:00	2024-11-08T03:00:00	4	Temperatura máxima	17.4
34699	7	Sololá	717	San Juan la Laguna	12	San Juan la Laguna	2	Febrero	2023-04-02T00:00:00	2024-11-08T03:00:00	3	Temperatura mínima	17
34700	7	Sololá	717	San Juan la Laguna	12	San Juan la Laguna	2	Febrero	2023-04-02T00:00:00	2024-11-08T03:00:00	5	Humedad	71
34701	7	Sololá	717	San Juan la Laguna	12	San Juan la Laguna	2	Febrero	2023-04-02T00:00:00	2024-11-08T03:00:00	6	Velocidad del viento	11.3
34702	7	Sololá	717	San Juan la Laguna	12	San Juan la Laguna	2	Febrero	2023-04-02T00:00:00	2024-11-08T03:00:00	7	Dirección del viento	11.27
34703	7	Sololá	717	San Juan la Laguna	12	San Juan la Laguna	2	Febrero	2023-04-02T00:00:00	2024-11-08T03:00:00	1	Precipitación	0
34704	7	Sololá	717	San Juan la Laguna	12	San Juan la Laguna	2	Febrero	2023-04-02T00:00:00	2024-11-08T03:00:00	8	Radiación solar	0
34705	7	Sololá	717	San Juan la Laguna	12	San Juan la Laguna	2	Febrero	2023-04-02T00:00:00	2024-11-08T04:00:00	2	Temperatura media	17.9
34706	7	Sololá	717	San Juan la Laguna	12	San Juan la Laguna	2	Febrero	2023-04-02T00:00:00	2024-11-08T04:00:00	4	Temperatura máxima	17.9
34707	7	Sololá	717	San Juan la Laguna	12	San Juan la Laguna	2	Febrero	2023-04-02T00:00:00	2024-11-08T04:00:00	3	Temperatura mínima	17
34708	7	Sololá	717	San Juan la Laguna	12	San Juan la Laguna	2	Febrero	2023-04-02T00:00:00	2024-11-08T04:00:00	5	Humedad	64
34709	7	Sololá	717	San Juan la Laguna	12	San Juan la Laguna	2	Febrero	2023-04-02T00:00:00	2024-11-08T04:00:00	6	Velocidad del viento	14.5
34710	7	Sololá	717	San Juan la Laguna	12	San Juan la Laguna	2	Febrero	2023-04-02T00:00:00	2024-11-08T04:00:00	7	Dirección del viento	14.48
34711	7	Sololá	717	San Juan la Laguna	12	San Juan la Laguna	2	Febrero	2023-04-02T00:00:00	2024-11-08T04:00:00	1	Precipitación	0
34712	7	Sololá	717	San Juan la Laguna	12	San Juan la Laguna	2	Febrero	2023-04-02T00:00:00	2024-11-08T04:00:00	8	Radiación solar	0
34713	7	Sololá	717	San Juan la Laguna	12	San Juan la Laguna	2	Febrero	2023-04-02T00:00:00	2024-11-08T05:00:00	2	Temperatura media	17.2
34714	7	Sololá	717	San Juan la Laguna	12	San Juan la Laguna	2	Febrero	2023-04-02T00:00:00	2024-11-08T05:00:00	4	Temperatura máxima	17.9
34715	7	Sololá	717	San Juan la Laguna	12	San Juan la Laguna	2	Febrero	2023-04-02T00:00:00	2024-11-08T05:00:00	3	Temperatura mínima	17.1
34716	7	Sololá	717	San Juan la Laguna	12	San Juan la Laguna	2	Febrero	2023-04-02T00:00:00	2024-11-08T05:00:00	5	Humedad	69
34717	7	Sololá	717	San Juan la Laguna	12	San Juan la Laguna	2	Febrero	2023-04-02T00:00:00	2024-11-08T05:00:00	6	Velocidad del viento	19.3
34718	7	Sololá	717	San Juan la Laguna	12	San Juan la Laguna	2	Febrero	2023-04-02T00:00:00	2024-11-08T05:00:00	7	Dirección del viento	19.31
34719	7	Sololá	717	San Juan la Laguna	12	San Juan la Laguna	2	Febrero	2023-04-02T00:00:00	2024-11-08T05:00:00	1	Precipitación	0
34720	7	Sololá	717	San Juan la Laguna	12	San Juan la Laguna	2	Febrero	2023-04-02T00:00:00	2024-11-08T05:00:00	8	Radiación solar	0
34721	7	Sololá	717	San Juan la Laguna	12	San Juan la Laguna	2	Febrero	2023-04-02T00:00:00	2024-11-08T06:00:00	2	Temperatura media	16.8
34722	7	Sololá	717	San Juan la Laguna	12	San Juan la Laguna	2	Febrero	2023-04-02T00:00:00	2024-11-08T06:00:00	4	Temperatura máxima	17.2
34723	7	Sololá	717	San Juan la Laguna	12	San Juan la Laguna	2	Febrero	2023-04-02T00:00:00	2024-11-08T06:00:00	3	Temperatura mínima	16.7
34724	7	Sololá	717	San Juan la Laguna	12	San Juan la Laguna	2	Febrero	2023-04-02T00:00:00	2024-11-08T06:00:00	5	Humedad	69
34725	7	Sololá	717	San Juan la Laguna	12	San Juan la Laguna	2	Febrero	2023-04-02T00:00:00	2024-11-08T06:00:00	6	Velocidad del viento	20.9
34726	7	Sololá	717	San Juan la Laguna	12	San Juan la Laguna	2	Febrero	2023-04-02T00:00:00	2024-11-08T06:00:00	7	Dirección del viento	20.92
34727	7	Sololá	717	San Juan la Laguna	12	San Juan la Laguna	2	Febrero	2023-04-02T00:00:00	2024-11-08T06:00:00	1	Precipitación	0
34728	7	Sololá	717	San Juan la Laguna	12	San Juan la Laguna	2	Febrero	2023-04-02T00:00:00	2024-11-08T06:00:00	8	Radiación solar	0
34729	7	Sololá	717	San Juan la Laguna	12	San Juan la Laguna	2	Febrero	2023-04-02T00:00:00	2024-11-08T07:00:00	2	Temperatura media	16.9
34730	7	Sololá	717	San Juan la Laguna	12	San Juan la Laguna	2	Febrero	2023-04-02T00:00:00	2024-11-08T07:00:00	4	Temperatura máxima	16.9
34731	7	Sololá	717	San Juan la Laguna	12	San Juan la Laguna	2	Febrero	2023-04-02T00:00:00	2024-11-08T07:00:00	3	Temperatura mínima	16.7
34732	7	Sololá	717	San Juan la Laguna	12	San Juan la Laguna	2	Febrero	2023-04-02T00:00:00	2024-11-08T07:00:00	5	Humedad	69
34733	7	Sololá	717	San Juan la Laguna	12	San Juan la Laguna	2	Febrero	2023-04-02T00:00:00	2024-11-08T07:00:00	6	Velocidad del viento	19.3
34734	7	Sololá	717	San Juan la Laguna	12	San Juan la Laguna	2	Febrero	2023-04-02T00:00:00	2024-11-08T07:00:00	7	Dirección del viento	19.31
34735	7	Sololá	717	San Juan la Laguna	12	San Juan la Laguna	2	Febrero	2023-04-02T00:00:00	2024-11-08T07:00:00	1	Precipitación	0
34736	7	Sololá	717	San Juan la Laguna	12	San Juan la Laguna	2	Febrero	2023-04-02T00:00:00	2024-11-08T07:00:00	8	Radiación solar	6
34737	7	Sololá	717	San Juan la Laguna	12	San Juan la Laguna	2	Febrero	2023-04-02T00:00:00	2024-11-08T08:00:00	2	Temperatura media	17.8
34738	7	Sololá	717	San Juan la Laguna	12	San Juan la Laguna	2	Febrero	2023-04-02T00:00:00	2024-11-08T08:00:00	4	Temperatura máxima	17.8
34739	7	Sololá	717	San Juan la Laguna	12	San Juan la Laguna	2	Febrero	2023-04-02T00:00:00	2024-11-08T08:00:00	3	Temperatura mínima	16.9
34740	7	Sololá	717	San Juan la Laguna	12	San Juan la Laguna	2	Febrero	2023-04-02T00:00:00	2024-11-08T08:00:00	5	Humedad	65
34741	7	Sololá	717	San Juan la Laguna	12	San Juan la Laguna	2	Febrero	2023-04-02T00:00:00	2024-11-08T08:00:00	6	Velocidad del viento	19.3
34742	7	Sololá	717	San Juan la Laguna	12	San Juan la Laguna	2	Febrero	2023-04-02T00:00:00	2024-11-08T08:00:00	7	Dirección del viento	19.31
34743	7	Sololá	717	San Juan la Laguna	12	San Juan la Laguna	2	Febrero	2023-04-02T00:00:00	2024-11-08T08:00:00	1	Precipitación	0
34744	7	Sololá	717	San Juan la Laguna	12	San Juan la Laguna	2	Febrero	2023-04-02T00:00:00	2024-11-08T08:00:00	8	Radiación solar	134
34745	7	Sololá	717	San Juan la Laguna	12	San Juan la Laguna	2	Febrero	2023-04-02T00:00:00	2024-11-08T09:00:00	2	Temperatura media	19.1
34746	7	Sololá	717	San Juan la Laguna	12	San Juan la Laguna	2	Febrero	2023-04-02T00:00:00	2024-11-08T09:00:00	4	Temperatura máxima	19.1
34747	7	Sololá	717	San Juan la Laguna	12	San Juan la Laguna	2	Febrero	2023-04-02T00:00:00	2024-11-08T09:00:00	3	Temperatura mínima	17.8
34748	7	Sololá	717	San Juan la Laguna	12	San Juan la Laguna	2	Febrero	2023-04-02T00:00:00	2024-11-08T09:00:00	5	Humedad	56
34749	7	Sololá	717	San Juan la Laguna	12	San Juan la Laguna	2	Febrero	2023-04-02T00:00:00	2024-11-08T09:00:00	6	Velocidad del viento	20.9
34750	7	Sololá	717	San Juan la Laguna	12	San Juan la Laguna	2	Febrero	2023-04-02T00:00:00	2024-11-08T09:00:00	7	Dirección del viento	20.92
34751	7	Sololá	717	San Juan la Laguna	12	San Juan la Laguna	2	Febrero	2023-04-02T00:00:00	2024-11-08T09:00:00	1	Precipitación	0
34752	7	Sololá	717	San Juan la Laguna	12	San Juan la Laguna	2	Febrero	2023-04-02T00:00:00	2024-11-08T09:00:00	8	Radiación solar	348
34753	7	Sololá	717	San Juan la Laguna	12	San Juan la Laguna	2	Febrero	2023-04-02T00:00:00	2024-11-08T10:00:00	2	Temperatura media	19.9
34754	7	Sololá	717	San Juan la Laguna	12	San Juan la Laguna	2	Febrero	2023-04-02T00:00:00	2024-11-08T10:00:00	4	Temperatura máxima	19.9
34755	7	Sololá	717	San Juan la Laguna	12	San Juan la Laguna	2	Febrero	2023-04-02T00:00:00	2024-11-08T10:00:00	3	Temperatura mínima	19.1
34756	7	Sololá	717	San Juan la Laguna	12	San Juan la Laguna	2	Febrero	2023-04-02T00:00:00	2024-11-08T10:00:00	5	Humedad	54
34757	7	Sololá	717	San Juan la Laguna	12	San Juan la Laguna	2	Febrero	2023-04-02T00:00:00	2024-11-08T10:00:00	6	Velocidad del viento	19.3
34758	7	Sololá	717	San Juan la Laguna	12	San Juan la Laguna	2	Febrero	2023-04-02T00:00:00	2024-11-08T10:00:00	7	Dirección del viento	19.31
34759	7	Sololá	717	San Juan la Laguna	12	San Juan la Laguna	2	Febrero	2023-04-02T00:00:00	2024-11-08T10:00:00	1	Precipitación	0
34760	7	Sololá	717	San Juan la Laguna	12	San Juan la Laguna	2	Febrero	2023-04-02T00:00:00	2024-11-08T10:00:00	8	Radiación solar	560
34761	7	Sololá	717	San Juan la Laguna	12	San Juan la Laguna	2	Febrero	2023-04-02T00:00:00	2024-11-08T11:00:00	2	Temperatura media	20.6
34762	7	Sololá	717	San Juan la Laguna	12	San Juan la Laguna	2	Febrero	2023-04-02T00:00:00	2024-11-08T11:00:00	4	Temperatura máxima	20.8
34763	7	Sololá	717	San Juan la Laguna	12	San Juan la Laguna	2	Febrero	2023-04-02T00:00:00	2024-11-08T11:00:00	3	Temperatura mínima	19.9
34764	7	Sololá	717	San Juan la Laguna	12	San Juan la Laguna	2	Febrero	2023-04-02T00:00:00	2024-11-08T11:00:00	5	Humedad	56
34765	7	Sololá	717	San Juan la Laguna	12	San Juan la Laguna	2	Febrero	2023-04-02T00:00:00	2024-11-08T11:00:00	6	Velocidad del viento	20.9
34766	7	Sololá	717	San Juan la Laguna	12	San Juan la Laguna	2	Febrero	2023-04-02T00:00:00	2024-11-08T11:00:00	7	Dirección del viento	20.92
34767	7	Sololá	717	San Juan la Laguna	12	San Juan la Laguna	2	Febrero	2023-04-02T00:00:00	2024-11-08T11:00:00	1	Precipitación	0
34768	7	Sololá	717	San Juan la Laguna	12	San Juan la Laguna	2	Febrero	2023-04-02T00:00:00	2024-11-08T11:00:00	8	Radiación solar	713
34769	7	Sololá	717	San Juan la Laguna	12	San Juan la Laguna	2	Febrero	2023-04-02T00:00:00	2024-11-08T12:00:00	2	Temperatura media	22.4
34770	7	Sololá	717	San Juan la Laguna	12	San Juan la Laguna	2	Febrero	2023-04-02T00:00:00	2024-11-08T12:00:00	4	Temperatura máxima	22.4
34771	7	Sololá	717	San Juan la Laguna	12	San Juan la Laguna	2	Febrero	2023-04-02T00:00:00	2024-11-08T12:00:00	3	Temperatura mínima	20.6
34772	7	Sololá	717	San Juan la Laguna	12	San Juan la Laguna	2	Febrero	2023-04-02T00:00:00	2024-11-08T12:00:00	5	Humedad	50
34773	7	Sololá	717	San Juan la Laguna	12	San Juan la Laguna	2	Febrero	2023-04-02T00:00:00	2024-11-08T12:00:00	6	Velocidad del viento	17.7
34774	7	Sololá	717	San Juan la Laguna	12	San Juan la Laguna	2	Febrero	2023-04-02T00:00:00	2024-11-08T12:00:00	7	Dirección del viento	17.7
34775	7	Sololá	717	San Juan la Laguna	12	San Juan la Laguna	2	Febrero	2023-04-02T00:00:00	2024-11-08T12:00:00	1	Precipitación	0
34776	7	Sololá	717	San Juan la Laguna	12	San Juan la Laguna	2	Febrero	2023-04-02T00:00:00	2024-11-08T12:00:00	8	Radiación solar	711
34777	7	Sololá	717	San Juan la Laguna	12	San Juan la Laguna	2	Febrero	2023-04-02T00:00:00	2024-11-08T13:00:00	2	Temperatura media	22.1
34778	7	Sololá	717	San Juan la Laguna	12	San Juan la Laguna	2	Febrero	2023-04-02T00:00:00	2024-11-08T13:00:00	4	Temperatura máxima	22.5
34779	7	Sololá	717	San Juan la Laguna	12	San Juan la Laguna	2	Febrero	2023-04-02T00:00:00	2024-11-08T13:00:00	3	Temperatura mínima	21.7
34780	7	Sololá	717	San Juan la Laguna	12	San Juan la Laguna	2	Febrero	2023-04-02T00:00:00	2024-11-08T13:00:00	5	Humedad	53
34781	7	Sololá	717	San Juan la Laguna	12	San Juan la Laguna	2	Febrero	2023-04-02T00:00:00	2024-11-08T13:00:00	6	Velocidad del viento	16.1
34782	7	Sololá	717	San Juan la Laguna	12	San Juan la Laguna	2	Febrero	2023-04-02T00:00:00	2024-11-08T13:00:00	7	Dirección del viento	16.09
34783	7	Sololá	717	San Juan la Laguna	12	San Juan la Laguna	2	Febrero	2023-04-02T00:00:00	2024-11-08T13:00:00	1	Precipitación	0
34784	7	Sololá	717	San Juan la Laguna	12	San Juan la Laguna	2	Febrero	2023-04-02T00:00:00	2024-11-08T13:00:00	8	Radiación solar	823
34785	7	Sololá	717	San Juan la Laguna	12	San Juan la Laguna	2	Febrero	2023-04-02T00:00:00	2024-11-08T14:00:00	2	Temperatura media	23.1
34786	7	Sololá	717	San Juan la Laguna	12	San Juan la Laguna	2	Febrero	2023-04-02T00:00:00	2024-11-08T14:00:00	4	Temperatura máxima	23.2
34787	7	Sololá	717	San Juan la Laguna	12	San Juan la Laguna	2	Febrero	2023-04-02T00:00:00	2024-11-08T14:00:00	3	Temperatura mínima	22
34788	7	Sololá	717	San Juan la Laguna	12	San Juan la Laguna	2	Febrero	2023-04-02T00:00:00	2024-11-08T14:00:00	5	Humedad	51
34789	7	Sololá	717	San Juan la Laguna	12	San Juan la Laguna	2	Febrero	2023-04-02T00:00:00	2024-11-08T14:00:00	6	Velocidad del viento	12.9
34790	7	Sololá	717	San Juan la Laguna	12	San Juan la Laguna	2	Febrero	2023-04-02T00:00:00	2024-11-08T14:00:00	7	Dirección del viento	12.87
34791	7	Sololá	717	San Juan la Laguna	12	San Juan la Laguna	2	Febrero	2023-04-02T00:00:00	2024-11-08T14:00:00	1	Precipitación	0
34792	7	Sololá	717	San Juan la Laguna	12	San Juan la Laguna	2	Febrero	2023-04-02T00:00:00	2024-11-08T14:00:00	8	Radiación solar	837
34793	7	Sololá	717	San Juan la Laguna	12	San Juan la Laguna	2	Febrero	2023-04-02T00:00:00	2024-11-08T15:00:00	2	Temperatura media	23.1
34794	7	Sololá	717	San Juan la Laguna	12	San Juan la Laguna	2	Febrero	2023-04-02T00:00:00	2024-11-08T15:00:00	4	Temperatura máxima	23.4
34795	7	Sololá	717	San Juan la Laguna	12	San Juan la Laguna	2	Febrero	2023-04-02T00:00:00	2024-11-08T15:00:00	3	Temperatura mínima	22.8
34796	7	Sololá	717	San Juan la Laguna	12	San Juan la Laguna	2	Febrero	2023-04-02T00:00:00	2024-11-08T15:00:00	5	Humedad	50
34797	7	Sololá	717	San Juan la Laguna	12	San Juan la Laguna	2	Febrero	2023-04-02T00:00:00	2024-11-08T15:00:00	6	Velocidad del viento	12.9
34798	7	Sololá	717	San Juan la Laguna	12	San Juan la Laguna	2	Febrero	2023-04-02T00:00:00	2024-11-08T15:00:00	7	Dirección del viento	12.87
34799	7	Sololá	717	San Juan la Laguna	12	San Juan la Laguna	2	Febrero	2023-04-02T00:00:00	2024-11-08T15:00:00	1	Precipitación	0
34800	7	Sololá	717	San Juan la Laguna	12	San Juan la Laguna	2	Febrero	2023-04-02T00:00:00	2024-11-08T15:00:00	8	Radiación solar	687
34801	7	Sololá	717	San Juan la Laguna	12	San Juan la Laguna	2	Febrero	2023-04-02T00:00:00	2024-11-08T16:00:00	2	Temperatura media	22.8
34802	7	Sololá	717	San Juan la Laguna	12	San Juan la Laguna	2	Febrero	2023-04-02T00:00:00	2024-11-08T16:00:00	4	Temperatura máxima	23.2
34803	7	Sololá	717	San Juan la Laguna	12	San Juan la Laguna	2	Febrero	2023-04-02T00:00:00	2024-11-08T16:00:00	3	Temperatura mínima	22.7
34804	7	Sololá	717	San Juan la Laguna	12	San Juan la Laguna	2	Febrero	2023-04-02T00:00:00	2024-11-08T16:00:00	5	Humedad	51
34805	7	Sololá	717	San Juan la Laguna	12	San Juan la Laguna	2	Febrero	2023-04-02T00:00:00	2024-11-08T16:00:00	6	Velocidad del viento	11.3
34806	7	Sololá	717	San Juan la Laguna	12	San Juan la Laguna	2	Febrero	2023-04-02T00:00:00	2024-11-08T16:00:00	7	Dirección del viento	11.27
34807	7	Sololá	717	San Juan la Laguna	12	San Juan la Laguna	2	Febrero	2023-04-02T00:00:00	2024-11-08T16:00:00	1	Precipitación	0
34808	7	Sololá	717	San Juan la Laguna	12	San Juan la Laguna	2	Febrero	2023-04-02T00:00:00	2024-11-08T16:00:00	8	Radiación solar	521
34809	7	Sololá	717	San Juan la Laguna	12	San Juan la Laguna	2	Febrero	2023-04-02T00:00:00	2024-11-08T17:00:00	2	Temperatura media	21.8
34810	7	Sololá	717	San Juan la Laguna	12	San Juan la Laguna	2	Febrero	2023-04-02T00:00:00	2024-11-08T17:00:00	4	Temperatura máxima	22.8
34811	7	Sololá	717	San Juan la Laguna	12	San Juan la Laguna	2	Febrero	2023-04-02T00:00:00	2024-11-08T17:00:00	3	Temperatura mínima	21.8
34812	7	Sololá	717	San Juan la Laguna	12	San Juan la Laguna	2	Febrero	2023-04-02T00:00:00	2024-11-08T17:00:00	5	Humedad	55
34813	7	Sololá	717	San Juan la Laguna	12	San Juan la Laguna	2	Febrero	2023-04-02T00:00:00	2024-11-08T17:00:00	6	Velocidad del viento	11.3
34814	7	Sololá	717	San Juan la Laguna	12	San Juan la Laguna	2	Febrero	2023-04-02T00:00:00	2024-11-08T17:00:00	7	Dirección del viento	11.27
34815	7	Sololá	717	San Juan la Laguna	12	San Juan la Laguna	2	Febrero	2023-04-02T00:00:00	2024-11-08T17:00:00	1	Precipitación	0
34816	7	Sololá	717	San Juan la Laguna	12	San Juan la Laguna	2	Febrero	2023-04-02T00:00:00	2024-11-08T17:00:00	8	Radiación solar	307
34817	7	Sololá	717	San Juan la Laguna	12	San Juan la Laguna	2	Febrero	2023-04-02T00:00:00	2024-11-08T18:00:00	2	Temperatura media	20.2
34818	7	Sololá	717	San Juan la Laguna	12	San Juan la Laguna	2	Febrero	2023-04-02T00:00:00	2024-11-08T18:00:00	4	Temperatura máxima	21.8
34819	7	Sololá	717	San Juan la Laguna	12	San Juan la Laguna	2	Febrero	2023-04-02T00:00:00	2024-11-08T18:00:00	3	Temperatura mínima	20.2
34820	7	Sololá	717	San Juan la Laguna	12	San Juan la Laguna	2	Febrero	2023-04-02T00:00:00	2024-11-08T18:00:00	5	Humedad	59
34821	7	Sololá	717	San Juan la Laguna	12	San Juan la Laguna	2	Febrero	2023-04-02T00:00:00	2024-11-08T18:00:00	6	Velocidad del viento	11.3
34822	7	Sololá	717	San Juan la Laguna	12	San Juan la Laguna	2	Febrero	2023-04-02T00:00:00	2024-11-08T18:00:00	7	Dirección del viento	11.27
34823	7	Sololá	717	San Juan la Laguna	12	San Juan la Laguna	2	Febrero	2023-04-02T00:00:00	2024-11-08T18:00:00	1	Precipitación	0
34824	7	Sololá	717	San Juan la Laguna	12	San Juan la Laguna	2	Febrero	2023-04-02T00:00:00	2024-11-08T18:00:00	8	Radiación solar	15
34825	7	Sololá	717	San Juan la Laguna	12	San Juan la Laguna	2	Febrero	2023-04-02T00:00:00	2024-11-08T19:00:00	2	Temperatura media	19.4
34826	7	Sololá	717	San Juan la Laguna	12	San Juan la Laguna	2	Febrero	2023-04-02T00:00:00	2024-11-08T19:00:00	4	Temperatura máxima	20.2
34827	7	Sololá	717	San Juan la Laguna	12	San Juan la Laguna	2	Febrero	2023-04-02T00:00:00	2024-11-08T19:00:00	3	Temperatura mínima	19.4
34828	7	Sololá	717	San Juan la Laguna	12	San Juan la Laguna	2	Febrero	2023-04-02T00:00:00	2024-11-08T19:00:00	5	Humedad	63
34829	7	Sololá	717	San Juan la Laguna	12	San Juan la Laguna	2	Febrero	2023-04-02T00:00:00	2024-11-08T19:00:00	6	Velocidad del viento	11.3
34830	7	Sololá	717	San Juan la Laguna	12	San Juan la Laguna	2	Febrero	2023-04-02T00:00:00	2024-11-08T19:00:00	7	Dirección del viento	11.27
34831	7	Sololá	717	San Juan la Laguna	12	San Juan la Laguna	2	Febrero	2023-04-02T00:00:00	2024-11-08T19:00:00	1	Precipitación	0
34832	7	Sololá	717	San Juan la Laguna	12	San Juan la Laguna	2	Febrero	2023-04-02T00:00:00	2024-11-08T19:00:00	8	Radiación solar	0
34833	7	Sololá	717	San Juan la Laguna	12	San Juan la Laguna	2	Febrero	2023-04-02T00:00:00	2024-11-08T20:00:00	2	Temperatura media	19.2
34834	7	Sololá	717	San Juan la Laguna	12	San Juan la Laguna	2	Febrero	2023-04-02T00:00:00	2024-11-08T20:00:00	4	Temperatura máxima	19.4
34835	7	Sololá	717	San Juan la Laguna	12	San Juan la Laguna	2	Febrero	2023-04-02T00:00:00	2024-11-08T20:00:00	3	Temperatura mínima	19
34836	7	Sololá	717	San Juan la Laguna	12	San Juan la Laguna	2	Febrero	2023-04-02T00:00:00	2024-11-08T20:00:00	5	Humedad	60
34837	7	Sololá	717	San Juan la Laguna	12	San Juan la Laguna	2	Febrero	2023-04-02T00:00:00	2024-11-08T20:00:00	6	Velocidad del viento	12.9
34838	7	Sololá	717	San Juan la Laguna	12	San Juan la Laguna	2	Febrero	2023-04-02T00:00:00	2024-11-08T20:00:00	7	Dirección del viento	12.87
34839	7	Sololá	717	San Juan la Laguna	12	San Juan la Laguna	2	Febrero	2023-04-02T00:00:00	2024-11-08T20:00:00	1	Precipitación	0
34840	7	Sololá	717	San Juan la Laguna	12	San Juan la Laguna	2	Febrero	2023-04-02T00:00:00	2024-11-08T20:00:00	8	Radiación solar	0
34841	7	Sololá	717	San Juan la Laguna	12	San Juan la Laguna	2	Febrero	2023-04-02T00:00:00	2024-11-08T21:00:00	2	Temperatura media	19
34842	7	Sololá	717	San Juan la Laguna	12	San Juan la Laguna	2	Febrero	2023-04-02T00:00:00	2024-11-08T21:00:00	4	Temperatura máxima	19.3
34843	7	Sololá	717	San Juan la Laguna	12	San Juan la Laguna	2	Febrero	2023-04-02T00:00:00	2024-11-08T21:00:00	3	Temperatura mínima	19
34844	7	Sololá	717	San Juan la Laguna	12	San Juan la Laguna	2	Febrero	2023-04-02T00:00:00	2024-11-08T21:00:00	5	Humedad	58
34845	7	Sololá	717	San Juan la Laguna	12	San Juan la Laguna	2	Febrero	2023-04-02T00:00:00	2024-11-08T21:00:00	6	Velocidad del viento	14.5
34846	7	Sololá	717	San Juan la Laguna	12	San Juan la Laguna	2	Febrero	2023-04-02T00:00:00	2024-11-08T21:00:00	7	Dirección del viento	14.48
34847	7	Sololá	717	San Juan la Laguna	12	San Juan la Laguna	2	Febrero	2023-04-02T00:00:00	2024-11-08T21:00:00	1	Precipitación	0
34848	7	Sololá	717	San Juan la Laguna	12	San Juan la Laguna	2	Febrero	2023-04-02T00:00:00	2024-11-08T21:00:00	8	Radiación solar	0
34849	7	Sololá	717	San Juan la Laguna	12	San Juan la Laguna	2	Febrero	2023-04-02T00:00:00	2024-11-08T22:00:00	2	Temperatura media	18.8
34850	7	Sololá	717	San Juan la Laguna	12	San Juan la Laguna	2	Febrero	2023-04-02T00:00:00	2024-11-08T22:00:00	4	Temperatura máxima	19.3
34851	7	Sololá	717	San Juan la Laguna	12	San Juan la Laguna	2	Febrero	2023-04-02T00:00:00	2024-11-08T22:00:00	3	Temperatura mínima	18.8
34852	7	Sololá	717	San Juan la Laguna	12	San Juan la Laguna	2	Febrero	2023-04-02T00:00:00	2024-11-08T22:00:00	5	Humedad	61
34853	7	Sololá	717	San Juan la Laguna	12	San Juan la Laguna	2	Febrero	2023-04-02T00:00:00	2024-11-08T22:00:00	6	Velocidad del viento	12.9
34854	7	Sololá	717	San Juan la Laguna	12	San Juan la Laguna	2	Febrero	2023-04-02T00:00:00	2024-11-08T22:00:00	7	Dirección del viento	12.87
34855	7	Sololá	717	San Juan la Laguna	12	San Juan la Laguna	2	Febrero	2023-04-02T00:00:00	2024-11-08T22:00:00	1	Precipitación	0
34856	7	Sololá	717	San Juan la Laguna	12	San Juan la Laguna	2	Febrero	2023-04-02T00:00:00	2024-11-08T22:00:00	8	Radiación solar	0
34857	7	Sololá	717	San Juan la Laguna	12	San Juan la Laguna	2	Febrero	2023-04-02T00:00:00	2024-11-08T23:00:00	2	Temperatura media	18.4
34858	7	Sololá	717	San Juan la Laguna	12	San Juan la Laguna	2	Febrero	2023-04-02T00:00:00	2024-11-08T23:00:00	4	Temperatura máxima	18.8
34859	7	Sololá	717	San Juan la Laguna	12	San Juan la Laguna	2	Febrero	2023-04-02T00:00:00	2024-11-08T23:00:00	3	Temperatura mínima	18.3
34860	7	Sololá	717	San Juan la Laguna	12	San Juan la Laguna	2	Febrero	2023-04-02T00:00:00	2024-11-08T23:00:00	5	Humedad	62
34861	7	Sololá	717	San Juan la Laguna	12	San Juan la Laguna	2	Febrero	2023-04-02T00:00:00	2024-11-08T23:00:00	6	Velocidad del viento	11.3
34862	7	Sololá	717	San Juan la Laguna	12	San Juan la Laguna	2	Febrero	2023-04-02T00:00:00	2024-11-08T23:00:00	7	Dirección del viento	11.27
34863	7	Sololá	717	San Juan la Laguna	12	San Juan la Laguna	2	Febrero	2023-04-02T00:00:00	2024-11-08T23:00:00	1	Precipitación	0
34864	7	Sololá	717	San Juan la Laguna	12	San Juan la Laguna	2	Febrero	2023-04-02T00:00:00	2024-11-08T23:00:00	8	Radiación solar	0
34865	7	Sololá	717	San Juan la Laguna	12	San Juan la Laguna	2	Febrero	2023-05-02T00:00:00	2024-11-08T00:00:00	2	Temperatura media	18.1
34866	7	Sololá	717	San Juan la Laguna	12	San Juan la Laguna	2	Febrero	2023-05-02T00:00:00	2024-11-08T00:00:00	4	Temperatura máxima	18.4
34867	7	Sololá	717	San Juan la Laguna	12	San Juan la Laguna	2	Febrero	2023-05-02T00:00:00	2024-11-08T00:00:00	3	Temperatura mínima	18.1
34868	7	Sololá	717	San Juan la Laguna	12	San Juan la Laguna	2	Febrero	2023-05-02T00:00:00	2024-11-08T00:00:00	5	Humedad	66
34869	7	Sololá	717	San Juan la Laguna	12	San Juan la Laguna	2	Febrero	2023-05-02T00:00:00	2024-11-08T00:00:00	6	Velocidad del viento	12.9
34870	7	Sololá	717	San Juan la Laguna	12	San Juan la Laguna	2	Febrero	2023-05-02T00:00:00	2024-11-08T00:00:00	7	Dirección del viento	12.87
34871	7	Sololá	717	San Juan la Laguna	12	San Juan la Laguna	2	Febrero	2023-05-02T00:00:00	2024-11-08T00:00:00	1	Precipitación	0
34872	7	Sololá	717	San Juan la Laguna	12	San Juan la Laguna	2	Febrero	2023-05-02T00:00:00	2024-11-08T00:00:00	8	Radiación solar	0
34873	7	Sololá	717	San Juan la Laguna	12	San Juan la Laguna	2	Febrero	2023-05-02T00:00:00	2024-11-08T01:00:00	2	Temperatura media	17.6
34874	7	Sololá	717	San Juan la Laguna	12	San Juan la Laguna	2	Febrero	2023-05-02T00:00:00	2024-11-08T01:00:00	4	Temperatura máxima	18.1
34875	7	Sololá	717	San Juan la Laguna	12	San Juan la Laguna	2	Febrero	2023-05-02T00:00:00	2024-11-08T01:00:00	3	Temperatura mínima	17.6
34876	7	Sololá	717	San Juan la Laguna	12	San Juan la Laguna	2	Febrero	2023-05-02T00:00:00	2024-11-08T01:00:00	5	Humedad	67
34877	7	Sololá	717	San Juan la Laguna	12	San Juan la Laguna	2	Febrero	2023-05-02T00:00:00	2024-11-08T01:00:00	6	Velocidad del viento	6.4
34878	7	Sololá	717	San Juan la Laguna	12	San Juan la Laguna	2	Febrero	2023-05-02T00:00:00	2024-11-08T01:00:00	7	Dirección del viento	6.44
34879	7	Sololá	717	San Juan la Laguna	12	San Juan la Laguna	2	Febrero	2023-05-02T00:00:00	2024-11-08T01:00:00	1	Precipitación	0
34880	7	Sololá	717	San Juan la Laguna	12	San Juan la Laguna	2	Febrero	2023-05-02T00:00:00	2024-11-08T01:00:00	8	Radiación solar	0
34881	7	Sololá	717	San Juan la Laguna	12	San Juan la Laguna	2	Febrero	2023-05-02T00:00:00	2024-11-08T02:00:00	2	Temperatura media	17.2
34882	7	Sololá	717	San Juan la Laguna	12	San Juan la Laguna	2	Febrero	2023-05-02T00:00:00	2024-11-08T02:00:00	4	Temperatura máxima	17.7
34883	7	Sololá	717	San Juan la Laguna	12	San Juan la Laguna	2	Febrero	2023-05-02T00:00:00	2024-11-08T02:00:00	3	Temperatura mínima	17.2
34884	7	Sololá	717	San Juan la Laguna	12	San Juan la Laguna	2	Febrero	2023-05-02T00:00:00	2024-11-08T02:00:00	5	Humedad	70
34885	7	Sololá	717	San Juan la Laguna	12	San Juan la Laguna	2	Febrero	2023-05-02T00:00:00	2024-11-08T02:00:00	6	Velocidad del viento	3.2
34886	7	Sololá	717	San Juan la Laguna	12	San Juan la Laguna	2	Febrero	2023-05-02T00:00:00	2024-11-08T02:00:00	7	Dirección del viento	3.22
34887	7	Sololá	717	San Juan la Laguna	12	San Juan la Laguna	2	Febrero	2023-05-02T00:00:00	2024-11-08T02:00:00	1	Precipitación	0
34888	7	Sololá	717	San Juan la Laguna	12	San Juan la Laguna	2	Febrero	2023-05-02T00:00:00	2024-11-08T02:00:00	8	Radiación solar	0
34889	7	Sololá	717	San Juan la Laguna	12	San Juan la Laguna	2	Febrero	2023-05-02T00:00:00	2024-11-08T03:00:00	2	Temperatura media	16.6
34890	7	Sololá	717	San Juan la Laguna	12	San Juan la Laguna	2	Febrero	2023-05-02T00:00:00	2024-11-08T03:00:00	4	Temperatura máxima	17.4
34891	7	Sololá	717	San Juan la Laguna	12	San Juan la Laguna	2	Febrero	2023-05-02T00:00:00	2024-11-08T03:00:00	3	Temperatura mínima	16.6
34892	7	Sololá	717	San Juan la Laguna	12	San Juan la Laguna	2	Febrero	2023-05-02T00:00:00	2024-11-08T03:00:00	5	Humedad	72
34893	7	Sololá	717	San Juan la Laguna	12	San Juan la Laguna	2	Febrero	2023-05-02T00:00:00	2024-11-08T03:00:00	6	Velocidad del viento	1.6
34894	7	Sololá	717	San Juan la Laguna	12	San Juan la Laguna	2	Febrero	2023-05-02T00:00:00	2024-11-08T03:00:00	7	Dirección del viento	1.61
34895	7	Sololá	717	San Juan la Laguna	12	San Juan la Laguna	2	Febrero	2023-05-02T00:00:00	2024-11-08T03:00:00	1	Precipitación	0
34896	7	Sololá	717	San Juan la Laguna	12	San Juan la Laguna	2	Febrero	2023-05-02T00:00:00	2024-11-08T03:00:00	8	Radiación solar	0
34897	7	Sololá	717	San Juan la Laguna	12	San Juan la Laguna	2	Febrero	2023-05-02T00:00:00	2024-11-08T04:00:00	2	Temperatura media	15.9
34898	7	Sololá	717	San Juan la Laguna	12	San Juan la Laguna	2	Febrero	2023-05-02T00:00:00	2024-11-08T04:00:00	4	Temperatura máxima	16.6
34899	7	Sololá	717	San Juan la Laguna	12	San Juan la Laguna	2	Febrero	2023-05-02T00:00:00	2024-11-08T04:00:00	3	Temperatura mínima	15.6
34900	7	Sololá	717	San Juan la Laguna	12	San Juan la Laguna	2	Febrero	2023-05-02T00:00:00	2024-11-08T04:00:00	5	Humedad	75
34901	7	Sololá	717	San Juan la Laguna	12	San Juan la Laguna	2	Febrero	2023-05-02T00:00:00	2024-11-08T04:00:00	6	Velocidad del viento	1.6
34902	7	Sololá	717	San Juan la Laguna	12	San Juan la Laguna	2	Febrero	2023-05-02T00:00:00	2024-11-08T04:00:00	7	Dirección del viento	1.61
34903	7	Sololá	717	San Juan la Laguna	12	San Juan la Laguna	2	Febrero	2023-05-02T00:00:00	2024-11-08T04:00:00	1	Precipitación	0
34904	7	Sololá	717	San Juan la Laguna	12	San Juan la Laguna	2	Febrero	2023-05-02T00:00:00	2024-11-08T04:00:00	8	Radiación solar	0
34905	7	Sololá	717	San Juan la Laguna	12	San Juan la Laguna	2	Febrero	2023-05-02T00:00:00	2024-11-08T05:00:00	2	Temperatura media	15
34906	7	Sololá	717	San Juan la Laguna	12	San Juan la Laguna	2	Febrero	2023-05-02T00:00:00	2024-11-08T05:00:00	4	Temperatura máxima	16.3
34907	7	Sololá	717	San Juan la Laguna	12	San Juan la Laguna	2	Febrero	2023-05-02T00:00:00	2024-11-08T05:00:00	3	Temperatura mínima	14.7
34908	7	Sololá	717	San Juan la Laguna	12	San Juan la Laguna	2	Febrero	2023-05-02T00:00:00	2024-11-08T05:00:00	5	Humedad	76
34909	7	Sololá	717	San Juan la Laguna	12	San Juan la Laguna	2	Febrero	2023-05-02T00:00:00	2024-11-08T05:00:00	6	Velocidad del viento	1.6
34910	7	Sololá	717	San Juan la Laguna	12	San Juan la Laguna	2	Febrero	2023-05-02T00:00:00	2024-11-08T05:00:00	7	Dirección del viento	1.61
34911	7	Sololá	717	San Juan la Laguna	12	San Juan la Laguna	2	Febrero	2023-05-02T00:00:00	2024-11-08T05:00:00	1	Precipitación	0
34912	7	Sololá	717	San Juan la Laguna	12	San Juan la Laguna	2	Febrero	2023-05-02T00:00:00	2024-11-08T05:00:00	8	Radiación solar	0
34913	7	Sololá	717	San Juan la Laguna	12	San Juan la Laguna	2	Febrero	2023-05-02T00:00:00	2024-11-08T06:00:00	2	Temperatura media	16.2
34914	7	Sololá	717	San Juan la Laguna	12	San Juan la Laguna	2	Febrero	2023-05-02T00:00:00	2024-11-08T06:00:00	4	Temperatura máxima	16.2
34915	7	Sololá	717	San Juan la Laguna	12	San Juan la Laguna	2	Febrero	2023-05-02T00:00:00	2024-11-08T06:00:00	3	Temperatura mínima	14.4
34916	7	Sololá	717	San Juan la Laguna	12	San Juan la Laguna	2	Febrero	2023-05-02T00:00:00	2024-11-08T06:00:00	5	Humedad	73
34917	7	Sololá	717	San Juan la Laguna	12	San Juan la Laguna	2	Febrero	2023-05-02T00:00:00	2024-11-08T06:00:00	6	Velocidad del viento	1.6
34918	7	Sololá	717	San Juan la Laguna	12	San Juan la Laguna	2	Febrero	2023-05-02T00:00:00	2024-11-08T06:00:00	7	Dirección del viento	1.61
34919	7	Sololá	717	San Juan la Laguna	12	San Juan la Laguna	2	Febrero	2023-05-02T00:00:00	2024-11-08T06:00:00	1	Precipitación	0
34920	7	Sololá	717	San Juan la Laguna	12	San Juan la Laguna	2	Febrero	2023-05-02T00:00:00	2024-11-08T06:00:00	8	Radiación solar	0
34921	7	Sololá	717	San Juan la Laguna	12	San Juan la Laguna	2	Febrero	2023-05-02T00:00:00	2024-11-08T07:00:00	2	Temperatura media	16.9
34922	7	Sololá	717	San Juan la Laguna	12	San Juan la Laguna	2	Febrero	2023-05-02T00:00:00	2024-11-08T07:00:00	4	Temperatura máxima	16.9
34923	7	Sololá	717	San Juan la Laguna	12	San Juan la Laguna	2	Febrero	2023-05-02T00:00:00	2024-11-08T07:00:00	3	Temperatura mínima	16.2
34924	7	Sololá	717	San Juan la Laguna	12	San Juan la Laguna	2	Febrero	2023-05-02T00:00:00	2024-11-08T07:00:00	5	Humedad	70
34925	7	Sololá	717	San Juan la Laguna	12	San Juan la Laguna	2	Febrero	2023-05-02T00:00:00	2024-11-08T07:00:00	6	Velocidad del viento	3.2
34926	7	Sololá	717	San Juan la Laguna	12	San Juan la Laguna	2	Febrero	2023-05-02T00:00:00	2024-11-08T07:00:00	7	Dirección del viento	3.22
34927	7	Sololá	717	San Juan la Laguna	12	San Juan la Laguna	2	Febrero	2023-05-02T00:00:00	2024-11-08T07:00:00	1	Precipitación	0
34928	7	Sololá	717	San Juan la Laguna	12	San Juan la Laguna	2	Febrero	2023-05-02T00:00:00	2024-11-08T07:00:00	8	Radiación solar	5
34929	7	Sololá	717	San Juan la Laguna	12	San Juan la Laguna	2	Febrero	2023-05-02T00:00:00	2024-11-08T08:00:00	2	Temperatura media	18.9
34930	7	Sololá	717	San Juan la Laguna	12	San Juan la Laguna	2	Febrero	2023-05-02T00:00:00	2024-11-08T08:00:00	4	Temperatura máxima	18.9
34931	7	Sololá	717	San Juan la Laguna	12	San Juan la Laguna	2	Febrero	2023-05-02T00:00:00	2024-11-08T08:00:00	3	Temperatura mínima	16.9
34932	7	Sololá	717	San Juan la Laguna	12	San Juan la Laguna	2	Febrero	2023-05-02T00:00:00	2024-11-08T08:00:00	5	Humedad	64
34933	7	Sololá	717	San Juan la Laguna	12	San Juan la Laguna	2	Febrero	2023-05-02T00:00:00	2024-11-08T08:00:00	6	Velocidad del viento	3.2
34934	7	Sololá	717	San Juan la Laguna	12	San Juan la Laguna	2	Febrero	2023-05-02T00:00:00	2024-11-08T08:00:00	7	Dirección del viento	3.22
34935	7	Sololá	717	San Juan la Laguna	12	San Juan la Laguna	2	Febrero	2023-05-02T00:00:00	2024-11-08T08:00:00	1	Precipitación	0
34936	7	Sololá	717	San Juan la Laguna	12	San Juan la Laguna	2	Febrero	2023-05-02T00:00:00	2024-11-08T08:00:00	8	Radiación solar	134
34937	7	Sololá	717	San Juan la Laguna	12	San Juan la Laguna	2	Febrero	2023-05-02T00:00:00	2024-11-08T09:00:00	2	Temperatura media	20.2
34938	7	Sololá	717	San Juan la Laguna	12	San Juan la Laguna	2	Febrero	2023-05-02T00:00:00	2024-11-08T09:00:00	4	Temperatura máxima	20.2
34939	7	Sololá	717	San Juan la Laguna	12	San Juan la Laguna	2	Febrero	2023-05-02T00:00:00	2024-11-08T09:00:00	3	Temperatura mínima	18.9
34940	7	Sololá	717	San Juan la Laguna	12	San Juan la Laguna	2	Febrero	2023-05-02T00:00:00	2024-11-08T09:00:00	5	Humedad	59
34941	7	Sololá	717	San Juan la Laguna	12	San Juan la Laguna	2	Febrero	2023-05-02T00:00:00	2024-11-08T09:00:00	6	Velocidad del viento	3.2
34942	7	Sololá	717	San Juan la Laguna	12	San Juan la Laguna	2	Febrero	2023-05-02T00:00:00	2024-11-08T09:00:00	7	Dirección del viento	3.22
34943	7	Sololá	717	San Juan la Laguna	12	San Juan la Laguna	2	Febrero	2023-05-02T00:00:00	2024-11-08T09:00:00	1	Precipitación	0
34944	7	Sololá	717	San Juan la Laguna	12	San Juan la Laguna	2	Febrero	2023-05-02T00:00:00	2024-11-08T09:00:00	8	Radiación solar	354
34945	7	Sololá	717	San Juan la Laguna	12	San Juan la Laguna	2	Febrero	2023-05-02T00:00:00	2024-11-08T10:00:00	2	Temperatura media	21.7
34946	7	Sololá	717	San Juan la Laguna	12	San Juan la Laguna	2	Febrero	2023-05-02T00:00:00	2024-11-08T10:00:00	4	Temperatura máxima	21.7
34947	7	Sololá	717	San Juan la Laguna	12	San Juan la Laguna	2	Febrero	2023-05-02T00:00:00	2024-11-08T10:00:00	3	Temperatura mínima	20.2
34948	7	Sololá	717	San Juan la Laguna	12	San Juan la Laguna	2	Febrero	2023-05-02T00:00:00	2024-11-08T10:00:00	5	Humedad	52
34949	7	Sololá	717	San Juan la Laguna	12	San Juan la Laguna	2	Febrero	2023-05-02T00:00:00	2024-11-08T10:00:00	6	Velocidad del viento	3.2
34950	7	Sololá	717	San Juan la Laguna	12	San Juan la Laguna	2	Febrero	2023-05-02T00:00:00	2024-11-08T10:00:00	7	Dirección del viento	3.22
34951	7	Sololá	717	San Juan la Laguna	12	San Juan la Laguna	2	Febrero	2023-05-02T00:00:00	2024-11-08T10:00:00	1	Precipitación	0
34952	7	Sololá	717	San Juan la Laguna	12	San Juan la Laguna	2	Febrero	2023-05-02T00:00:00	2024-11-08T10:00:00	8	Radiación solar	564
34953	7	Sololá	717	San Juan la Laguna	12	San Juan la Laguna	2	Febrero	2023-05-02T00:00:00	2024-11-08T11:00:00	2	Temperatura media	22.6
34954	7	Sololá	717	San Juan la Laguna	12	San Juan la Laguna	2	Febrero	2023-05-02T00:00:00	2024-11-08T11:00:00	4	Temperatura máxima	22.7
34955	7	Sololá	717	San Juan la Laguna	12	San Juan la Laguna	2	Febrero	2023-05-02T00:00:00	2024-11-08T11:00:00	3	Temperatura mínima	21.5
34956	7	Sololá	717	San Juan la Laguna	12	San Juan la Laguna	2	Febrero	2023-05-02T00:00:00	2024-11-08T11:00:00	5	Humedad	48
34957	7	Sololá	717	San Juan la Laguna	12	San Juan la Laguna	2	Febrero	2023-05-02T00:00:00	2024-11-08T11:00:00	6	Velocidad del viento	6.4
34958	7	Sololá	717	San Juan la Laguna	12	San Juan la Laguna	2	Febrero	2023-05-02T00:00:00	2024-11-08T11:00:00	7	Dirección del viento	6.44
34959	7	Sololá	717	San Juan la Laguna	12	San Juan la Laguna	2	Febrero	2023-05-02T00:00:00	2024-11-08T11:00:00	1	Precipitación	0
34960	7	Sololá	717	San Juan la Laguna	12	San Juan la Laguna	2	Febrero	2023-05-02T00:00:00	2024-11-08T11:00:00	8	Radiación solar	713
34961	7	Sololá	717	San Juan la Laguna	12	San Juan la Laguna	2	Febrero	2023-05-02T00:00:00	2024-11-08T12:00:00	2	Temperatura media	23.8
34962	7	Sololá	717	San Juan la Laguna	12	San Juan la Laguna	2	Febrero	2023-05-02T00:00:00	2024-11-08T12:00:00	4	Temperatura máxima	23.8
34963	7	Sololá	717	San Juan la Laguna	12	San Juan la Laguna	2	Febrero	2023-05-02T00:00:00	2024-11-08T12:00:00	3	Temperatura mínima	22.4
34964	7	Sololá	717	San Juan la Laguna	12	San Juan la Laguna	2	Febrero	2023-05-02T00:00:00	2024-11-08T12:00:00	5	Humedad	39
34965	7	Sololá	717	San Juan la Laguna	12	San Juan la Laguna	2	Febrero	2023-05-02T00:00:00	2024-11-08T12:00:00	6	Velocidad del viento	6.4
34966	7	Sololá	717	San Juan la Laguna	12	San Juan la Laguna	2	Febrero	2023-05-02T00:00:00	2024-11-08T12:00:00	7	Dirección del viento	6.44
34967	7	Sololá	717	San Juan la Laguna	12	San Juan la Laguna	2	Febrero	2023-05-02T00:00:00	2024-11-08T12:00:00	1	Precipitación	0
34968	7	Sololá	717	San Juan la Laguna	12	San Juan la Laguna	2	Febrero	2023-05-02T00:00:00	2024-11-08T12:00:00	8	Radiación solar	710
34969	7	Sololá	717	San Juan la Laguna	12	San Juan la Laguna	2	Febrero	2023-05-02T00:00:00	2024-11-08T13:00:00	2	Temperatura media	24.5
34970	7	Sololá	717	San Juan la Laguna	12	San Juan la Laguna	2	Febrero	2023-05-02T00:00:00	2024-11-08T13:00:00	4	Temperatura máxima	24.6
34971	7	Sololá	717	San Juan la Laguna	12	San Juan la Laguna	2	Febrero	2023-05-02T00:00:00	2024-11-08T13:00:00	3	Temperatura mínima	23.6
34972	7	Sololá	717	San Juan la Laguna	12	San Juan la Laguna	2	Febrero	2023-05-02T00:00:00	2024-11-08T13:00:00	5	Humedad	36
34973	7	Sololá	717	San Juan la Laguna	12	San Juan la Laguna	2	Febrero	2023-05-02T00:00:00	2024-11-08T13:00:00	6	Velocidad del viento	4.8
34974	7	Sololá	717	San Juan la Laguna	12	San Juan la Laguna	2	Febrero	2023-05-02T00:00:00	2024-11-08T13:00:00	7	Dirección del viento	4.83
34975	7	Sololá	717	San Juan la Laguna	12	San Juan la Laguna	2	Febrero	2023-05-02T00:00:00	2024-11-08T13:00:00	1	Precipitación	0
34976	7	Sololá	717	San Juan la Laguna	12	San Juan la Laguna	2	Febrero	2023-05-02T00:00:00	2024-11-08T13:00:00	8	Radiación solar	849
34977	7	Sololá	717	San Juan la Laguna	12	San Juan la Laguna	2	Febrero	2023-05-02T00:00:00	2024-11-08T14:00:00	2	Temperatura media	25.3
34978	7	Sololá	717	San Juan la Laguna	12	San Juan la Laguna	2	Febrero	2023-05-02T00:00:00	2024-11-08T14:00:00	4	Temperatura máxima	25.3
34979	7	Sololá	717	San Juan la Laguna	12	San Juan la Laguna	2	Febrero	2023-05-02T00:00:00	2024-11-08T14:00:00	3	Temperatura mínima	24.6
34980	7	Sololá	717	San Juan la Laguna	12	San Juan la Laguna	2	Febrero	2023-05-02T00:00:00	2024-11-08T14:00:00	5	Humedad	37
34981	7	Sololá	717	San Juan la Laguna	12	San Juan la Laguna	2	Febrero	2023-05-02T00:00:00	2024-11-08T14:00:00	6	Velocidad del viento	3.2
34982	7	Sololá	717	San Juan la Laguna	12	San Juan la Laguna	2	Febrero	2023-05-02T00:00:00	2024-11-08T14:00:00	7	Dirección del viento	3.22
34983	7	Sololá	717	San Juan la Laguna	12	San Juan la Laguna	2	Febrero	2023-05-02T00:00:00	2024-11-08T14:00:00	1	Precipitación	0
34984	7	Sololá	717	San Juan la Laguna	12	San Juan la Laguna	2	Febrero	2023-05-02T00:00:00	2024-11-08T14:00:00	8	Radiación solar	805
34985	7	Sololá	717	San Juan la Laguna	12	San Juan la Laguna	2	Febrero	2023-05-02T00:00:00	2024-11-08T15:00:00	2	Temperatura media	24.7
34986	7	Sololá	717	San Juan la Laguna	12	San Juan la Laguna	2	Febrero	2023-05-02T00:00:00	2024-11-08T15:00:00	4	Temperatura máxima	25.4
34987	7	Sololá	717	San Juan la Laguna	12	San Juan la Laguna	2	Febrero	2023-05-02T00:00:00	2024-11-08T15:00:00	3	Temperatura mínima	24.5
34988	7	Sololá	717	San Juan la Laguna	12	San Juan la Laguna	2	Febrero	2023-05-02T00:00:00	2024-11-08T15:00:00	5	Humedad	39
34989	7	Sololá	717	San Juan la Laguna	12	San Juan la Laguna	2	Febrero	2023-05-02T00:00:00	2024-11-08T15:00:00	6	Velocidad del viento	3.2
34990	7	Sololá	717	San Juan la Laguna	12	San Juan la Laguna	2	Febrero	2023-05-02T00:00:00	2024-11-08T15:00:00	7	Dirección del viento	3.22
34991	7	Sololá	717	San Juan la Laguna	12	San Juan la Laguna	2	Febrero	2023-05-02T00:00:00	2024-11-08T15:00:00	1	Precipitación	0
34992	7	Sololá	717	San Juan la Laguna	12	San Juan la Laguna	2	Febrero	2023-05-02T00:00:00	2024-11-08T15:00:00	8	Radiación solar	696
34993	7	Sololá	717	San Juan la Laguna	12	San Juan la Laguna	2	Febrero	2023-05-02T00:00:00	2024-11-08T16:00:00	2	Temperatura media	23.8
34994	7	Sololá	717	San Juan la Laguna	12	San Juan la Laguna	2	Febrero	2023-05-02T00:00:00	2024-11-08T16:00:00	4	Temperatura máxima	24.8
34995	7	Sololá	717	San Juan la Laguna	12	San Juan la Laguna	2	Febrero	2023-05-02T00:00:00	2024-11-08T16:00:00	3	Temperatura mínima	23.8
34996	7	Sololá	717	San Juan la Laguna	12	San Juan la Laguna	2	Febrero	2023-05-02T00:00:00	2024-11-08T16:00:00	5	Humedad	49
34997	7	Sololá	717	San Juan la Laguna	12	San Juan la Laguna	2	Febrero	2023-05-02T00:00:00	2024-11-08T16:00:00	6	Velocidad del viento	3.2
34998	7	Sololá	717	San Juan la Laguna	12	San Juan la Laguna	2	Febrero	2023-05-02T00:00:00	2024-11-08T16:00:00	7	Dirección del viento	3.22
34999	7	Sololá	717	San Juan la Laguna	12	San Juan la Laguna	2	Febrero	2023-05-02T00:00:00	2024-11-08T16:00:00	1	Precipitación	0
35000	7	Sololá	717	San Juan la Laguna	12	San Juan la Laguna	2	Febrero	2023-05-02T00:00:00	2024-11-08T16:00:00	8	Radiación solar	512
35001	7	Sololá	717	San Juan la Laguna	12	San Juan la Laguna	2	Febrero	2023-05-02T00:00:00	2024-11-08T17:00:00	2	Temperatura media	22.7
35002	7	Sololá	717	San Juan la Laguna	12	San Juan la Laguna	2	Febrero	2023-05-02T00:00:00	2024-11-08T17:00:00	4	Temperatura máxima	23.8
35003	7	Sololá	717	San Juan la Laguna	12	San Juan la Laguna	2	Febrero	2023-05-02T00:00:00	2024-11-08T17:00:00	3	Temperatura mínima	22.7
35004	7	Sololá	717	San Juan la Laguna	12	San Juan la Laguna	2	Febrero	2023-05-02T00:00:00	2024-11-08T17:00:00	5	Humedad	47
35005	7	Sololá	717	San Juan la Laguna	12	San Juan la Laguna	2	Febrero	2023-05-02T00:00:00	2024-11-08T17:00:00	6	Velocidad del viento	3.2
35006	7	Sololá	717	San Juan la Laguna	12	San Juan la Laguna	2	Febrero	2023-05-02T00:00:00	2024-11-08T17:00:00	7	Dirección del viento	3.22
35007	7	Sololá	717	San Juan la Laguna	12	San Juan la Laguna	2	Febrero	2023-05-02T00:00:00	2024-11-08T17:00:00	1	Precipitación	0
35008	7	Sololá	717	San Juan la Laguna	12	San Juan la Laguna	2	Febrero	2023-05-02T00:00:00	2024-11-08T17:00:00	8	Radiación solar	296
35009	7	Sololá	717	San Juan la Laguna	12	San Juan la Laguna	2	Febrero	2023-05-02T00:00:00	2024-11-08T18:00:00	2	Temperatura media	20.8
35010	7	Sololá	717	San Juan la Laguna	12	San Juan la Laguna	2	Febrero	2023-05-02T00:00:00	2024-11-08T18:00:00	4	Temperatura máxima	22.7
35011	7	Sololá	717	San Juan la Laguna	12	San Juan la Laguna	2	Febrero	2023-05-02T00:00:00	2024-11-08T18:00:00	3	Temperatura mínima	20.8
35012	7	Sololá	717	San Juan la Laguna	12	San Juan la Laguna	2	Febrero	2023-05-02T00:00:00	2024-11-08T18:00:00	5	Humedad	52
35013	7	Sololá	717	San Juan la Laguna	12	San Juan la Laguna	2	Febrero	2023-05-02T00:00:00	2024-11-08T18:00:00	6	Velocidad del viento	4.8
35014	7	Sololá	717	San Juan la Laguna	12	San Juan la Laguna	2	Febrero	2023-05-02T00:00:00	2024-11-08T18:00:00	7	Dirección del viento	4.83
35015	7	Sololá	717	San Juan la Laguna	12	San Juan la Laguna	2	Febrero	2023-05-02T00:00:00	2024-11-08T18:00:00	1	Precipitación	0
35016	7	Sololá	717	San Juan la Laguna	12	San Juan la Laguna	2	Febrero	2023-05-02T00:00:00	2024-11-08T18:00:00	8	Radiación solar	20
35017	7	Sololá	717	San Juan la Laguna	12	San Juan la Laguna	2	Febrero	2023-05-02T00:00:00	2024-11-08T19:00:00	2	Temperatura media	19.3
35018	7	Sololá	717	San Juan la Laguna	12	San Juan la Laguna	2	Febrero	2023-05-02T00:00:00	2024-11-08T19:00:00	4	Temperatura máxima	20.8
35019	7	Sololá	717	San Juan la Laguna	12	San Juan la Laguna	2	Febrero	2023-05-02T00:00:00	2024-11-08T19:00:00	3	Temperatura mínima	19.3
35020	7	Sololá	717	San Juan la Laguna	12	San Juan la Laguna	2	Febrero	2023-05-02T00:00:00	2024-11-08T19:00:00	5	Humedad	61
35021	7	Sololá	717	San Juan la Laguna	12	San Juan la Laguna	2	Febrero	2023-05-02T00:00:00	2024-11-08T19:00:00	6	Velocidad del viento	8
35022	7	Sololá	717	San Juan la Laguna	12	San Juan la Laguna	2	Febrero	2023-05-02T00:00:00	2024-11-08T19:00:00	7	Dirección del viento	8.05
35023	7	Sololá	717	San Juan la Laguna	12	San Juan la Laguna	2	Febrero	2023-05-02T00:00:00	2024-11-08T19:00:00	1	Precipitación	0
35024	7	Sololá	717	San Juan la Laguna	12	San Juan la Laguna	2	Febrero	2023-05-02T00:00:00	2024-11-08T19:00:00	8	Radiación solar	0
35025	7	Sololá	717	San Juan la Laguna	12	San Juan la Laguna	2	Febrero	2023-05-02T00:00:00	2024-11-08T20:00:00	2	Temperatura media	18.3
35026	7	Sololá	717	San Juan la Laguna	12	San Juan la Laguna	2	Febrero	2023-05-02T00:00:00	2024-11-08T20:00:00	4	Temperatura máxima	19.3
35027	7	Sololá	717	San Juan la Laguna	12	San Juan la Laguna	2	Febrero	2023-05-02T00:00:00	2024-11-08T20:00:00	3	Temperatura mínima	18.3
35028	7	Sololá	717	San Juan la Laguna	12	San Juan la Laguna	2	Febrero	2023-05-02T00:00:00	2024-11-08T20:00:00	5	Humedad	62
35029	7	Sololá	717	San Juan la Laguna	12	San Juan la Laguna	2	Febrero	2023-05-02T00:00:00	2024-11-08T20:00:00	6	Velocidad del viento	8
35030	7	Sololá	717	San Juan la Laguna	12	San Juan la Laguna	2	Febrero	2023-05-02T00:00:00	2024-11-08T20:00:00	7	Dirección del viento	8.05
35031	7	Sololá	717	San Juan la Laguna	12	San Juan la Laguna	2	Febrero	2023-05-02T00:00:00	2024-11-08T20:00:00	1	Precipitación	0
35032	7	Sololá	717	San Juan la Laguna	12	San Juan la Laguna	2	Febrero	2023-05-02T00:00:00	2024-11-08T20:00:00	8	Radiación solar	0
35033	7	Sololá	717	San Juan la Laguna	12	San Juan la Laguna	2	Febrero	2023-05-02T00:00:00	2024-11-08T21:00:00	2	Temperatura media	18.1
35034	7	Sololá	717	San Juan la Laguna	12	San Juan la Laguna	2	Febrero	2023-05-02T00:00:00	2024-11-08T21:00:00	4	Temperatura máxima	18.3
35035	7	Sololá	717	San Juan la Laguna	12	San Juan la Laguna	2	Febrero	2023-05-02T00:00:00	2024-11-08T21:00:00	3	Temperatura mínima	18.1
35036	7	Sololá	717	San Juan la Laguna	12	San Juan la Laguna	2	Febrero	2023-05-02T00:00:00	2024-11-08T21:00:00	5	Humedad	60
35037	7	Sololá	717	San Juan la Laguna	12	San Juan la Laguna	2	Febrero	2023-05-02T00:00:00	2024-11-08T21:00:00	6	Velocidad del viento	8
35038	7	Sololá	717	San Juan la Laguna	12	San Juan la Laguna	2	Febrero	2023-05-02T00:00:00	2024-11-08T21:00:00	7	Dirección del viento	8.05
35039	7	Sololá	717	San Juan la Laguna	12	San Juan la Laguna	2	Febrero	2023-05-02T00:00:00	2024-11-08T21:00:00	1	Precipitación	0
35040	7	Sololá	717	San Juan la Laguna	12	San Juan la Laguna	2	Febrero	2023-05-02T00:00:00	2024-11-08T21:00:00	8	Radiación solar	0
35041	7	Sololá	717	San Juan la Laguna	12	San Juan la Laguna	2	Febrero	2023-05-02T00:00:00	2024-11-08T22:00:00	2	Temperatura media	17.4
35042	7	Sololá	717	San Juan la Laguna	12	San Juan la Laguna	2	Febrero	2023-05-02T00:00:00	2024-11-08T22:00:00	4	Temperatura máxima	18.1
35043	7	Sololá	717	San Juan la Laguna	12	San Juan la Laguna	2	Febrero	2023-05-02T00:00:00	2024-11-08T22:00:00	3	Temperatura mínima	17.4
35044	7	Sololá	717	San Juan la Laguna	12	San Juan la Laguna	2	Febrero	2023-05-02T00:00:00	2024-11-08T22:00:00	5	Humedad	62
35045	7	Sololá	717	San Juan la Laguna	12	San Juan la Laguna	2	Febrero	2023-05-02T00:00:00	2024-11-08T22:00:00	6	Velocidad del viento	8
35046	7	Sololá	717	San Juan la Laguna	12	San Juan la Laguna	2	Febrero	2023-05-02T00:00:00	2024-11-08T22:00:00	7	Dirección del viento	8.05
35047	7	Sololá	717	San Juan la Laguna	12	San Juan la Laguna	2	Febrero	2023-05-02T00:00:00	2024-11-08T22:00:00	1	Precipitación	0
35048	7	Sololá	717	San Juan la Laguna	12	San Juan la Laguna	2	Febrero	2023-05-02T00:00:00	2024-11-08T22:00:00	8	Radiación solar	0
35049	7	Sololá	717	San Juan la Laguna	12	San Juan la Laguna	2	Febrero	2023-05-02T00:00:00	2024-11-08T23:00:00	2	Temperatura media	17.1
35050	7	Sololá	717	San Juan la Laguna	12	San Juan la Laguna	2	Febrero	2023-05-02T00:00:00	2024-11-08T23:00:00	4	Temperatura máxima	17.4
35051	7	Sololá	717	San Juan la Laguna	12	San Juan la Laguna	2	Febrero	2023-05-02T00:00:00	2024-11-08T23:00:00	3	Temperatura mínima	17.1
35052	7	Sololá	717	San Juan la Laguna	12	San Juan la Laguna	2	Febrero	2023-05-02T00:00:00	2024-11-08T23:00:00	5	Humedad	64
35053	7	Sololá	717	San Juan la Laguna	12	San Juan la Laguna	2	Febrero	2023-05-02T00:00:00	2024-11-08T23:00:00	6	Velocidad del viento	8
35054	7	Sololá	717	San Juan la Laguna	12	San Juan la Laguna	2	Febrero	2023-05-02T00:00:00	2024-11-08T23:00:00	7	Dirección del viento	8.05
35055	7	Sololá	717	San Juan la Laguna	12	San Juan la Laguna	2	Febrero	2023-05-02T00:00:00	2024-11-08T23:00:00	1	Precipitación	0
35056	7	Sololá	717	San Juan la Laguna	12	San Juan la Laguna	2	Febrero	2023-05-02T00:00:00	2024-11-08T23:00:00	8	Radiación solar	0
35057	7	Sololá	717	San Juan la Laguna	12	San Juan la Laguna	2	Febrero	2023-06-02T00:00:00	2024-11-08T00:00:00	2	Temperatura media	17
35058	7	Sololá	717	San Juan la Laguna	12	San Juan la Laguna	2	Febrero	2023-06-02T00:00:00	2024-11-08T00:00:00	4	Temperatura máxima	17.1
35059	7	Sololá	717	San Juan la Laguna	12	San Juan la Laguna	2	Febrero	2023-06-02T00:00:00	2024-11-08T00:00:00	3	Temperatura mínima	16.6
35060	7	Sololá	717	San Juan la Laguna	12	San Juan la Laguna	2	Febrero	2023-06-02T00:00:00	2024-11-08T00:00:00	5	Humedad	59
35061	7	Sololá	717	San Juan la Laguna	12	San Juan la Laguna	2	Febrero	2023-06-02T00:00:00	2024-11-08T00:00:00	6	Velocidad del viento	9.7
35062	7	Sololá	717	San Juan la Laguna	12	San Juan la Laguna	2	Febrero	2023-06-02T00:00:00	2024-11-08T00:00:00	7	Dirección del viento	9.66
35063	7	Sololá	717	San Juan la Laguna	12	San Juan la Laguna	2	Febrero	2023-06-02T00:00:00	2024-11-08T00:00:00	1	Precipitación	0
35064	7	Sololá	717	San Juan la Laguna	12	San Juan la Laguna	2	Febrero	2023-06-02T00:00:00	2024-11-08T00:00:00	8	Radiación solar	0
35065	7	Sololá	717	San Juan la Laguna	12	San Juan la Laguna	2	Febrero	2023-06-02T00:00:00	2024-11-08T01:00:00	2	Temperatura media	16.6
35066	7	Sololá	717	San Juan la Laguna	12	San Juan la Laguna	2	Febrero	2023-06-02T00:00:00	2024-11-08T01:00:00	4	Temperatura máxima	17.1
35067	7	Sololá	717	San Juan la Laguna	12	San Juan la Laguna	2	Febrero	2023-06-02T00:00:00	2024-11-08T01:00:00	3	Temperatura mínima	16.4
35068	7	Sololá	717	San Juan la Laguna	12	San Juan la Laguna	2	Febrero	2023-06-02T00:00:00	2024-11-08T01:00:00	5	Humedad	65
35069	7	Sololá	717	San Juan la Laguna	12	San Juan la Laguna	2	Febrero	2023-06-02T00:00:00	2024-11-08T01:00:00	6	Velocidad del viento	4.8
35070	7	Sololá	717	San Juan la Laguna	12	San Juan la Laguna	2	Febrero	2023-06-02T00:00:00	2024-11-08T01:00:00	7	Dirección del viento	4.83
35071	7	Sololá	717	San Juan la Laguna	12	San Juan la Laguna	2	Febrero	2023-06-02T00:00:00	2024-11-08T01:00:00	1	Precipitación	0
35072	7	Sololá	717	San Juan la Laguna	12	San Juan la Laguna	2	Febrero	2023-06-02T00:00:00	2024-11-08T01:00:00	8	Radiación solar	0
35073	7	Sololá	717	San Juan la Laguna	12	San Juan la Laguna	2	Febrero	2023-06-02T00:00:00	2024-11-08T02:00:00	2	Temperatura media	16.4
35074	7	Sololá	717	San Juan la Laguna	12	San Juan la Laguna	2	Febrero	2023-06-02T00:00:00	2024-11-08T02:00:00	4	Temperatura máxima	16.6
35075	7	Sololá	717	San Juan la Laguna	12	San Juan la Laguna	2	Febrero	2023-06-02T00:00:00	2024-11-08T02:00:00	3	Temperatura mínima	15.3
35076	7	Sololá	717	San Juan la Laguna	12	San Juan la Laguna	2	Febrero	2023-06-02T00:00:00	2024-11-08T02:00:00	5	Humedad	63
35077	7	Sololá	717	San Juan la Laguna	12	San Juan la Laguna	2	Febrero	2023-06-02T00:00:00	2024-11-08T02:00:00	6	Velocidad del viento	3.2
35078	7	Sololá	717	San Juan la Laguna	12	San Juan la Laguna	2	Febrero	2023-06-02T00:00:00	2024-11-08T02:00:00	7	Dirección del viento	3.22
35079	7	Sololá	717	San Juan la Laguna	12	San Juan la Laguna	2	Febrero	2023-06-02T00:00:00	2024-11-08T02:00:00	1	Precipitación	0
35080	7	Sololá	717	San Juan la Laguna	12	San Juan la Laguna	2	Febrero	2023-06-02T00:00:00	2024-11-08T02:00:00	8	Radiación solar	0
35081	7	Sololá	717	San Juan la Laguna	12	San Juan la Laguna	2	Febrero	2023-06-02T00:00:00	2024-11-08T03:00:00	2	Temperatura media	16.1
35082	7	Sololá	717	San Juan la Laguna	12	San Juan la Laguna	2	Febrero	2023-06-02T00:00:00	2024-11-08T03:00:00	4	Temperatura máxima	16.4
35083	7	Sololá	717	San Juan la Laguna	12	San Juan la Laguna	2	Febrero	2023-06-02T00:00:00	2024-11-08T03:00:00	3	Temperatura mínima	16
35084	7	Sololá	717	San Juan la Laguna	12	San Juan la Laguna	2	Febrero	2023-06-02T00:00:00	2024-11-08T03:00:00	5	Humedad	65
35085	7	Sololá	717	San Juan la Laguna	12	San Juan la Laguna	2	Febrero	2023-06-02T00:00:00	2024-11-08T03:00:00	6	Velocidad del viento	4.8
35086	7	Sololá	717	San Juan la Laguna	12	San Juan la Laguna	2	Febrero	2023-06-02T00:00:00	2024-11-08T03:00:00	7	Dirección del viento	4.83
35087	7	Sololá	717	San Juan la Laguna	12	San Juan la Laguna	2	Febrero	2023-06-02T00:00:00	2024-11-08T03:00:00	1	Precipitación	0
35088	7	Sololá	717	San Juan la Laguna	12	San Juan la Laguna	2	Febrero	2023-06-02T00:00:00	2024-11-08T03:00:00	8	Radiación solar	0
35089	7	Sololá	717	San Juan la Laguna	12	San Juan la Laguna	2	Febrero	2023-06-02T00:00:00	2024-11-08T04:00:00	2	Temperatura media	16.2
35090	7	Sololá	717	San Juan la Laguna	12	San Juan la Laguna	2	Febrero	2023-06-02T00:00:00	2024-11-08T04:00:00	4	Temperatura máxima	16.3
35091	7	Sololá	717	San Juan la Laguna	12	San Juan la Laguna	2	Febrero	2023-06-02T00:00:00	2024-11-08T04:00:00	3	Temperatura mínima	16.1
35092	7	Sololá	717	San Juan la Laguna	12	San Juan la Laguna	2	Febrero	2023-06-02T00:00:00	2024-11-08T04:00:00	5	Humedad	58
35093	7	Sololá	717	San Juan la Laguna	12	San Juan la Laguna	2	Febrero	2023-06-02T00:00:00	2024-11-08T04:00:00	6	Velocidad del viento	4.8
35094	7	Sololá	717	San Juan la Laguna	12	San Juan la Laguna	2	Febrero	2023-06-02T00:00:00	2024-11-08T04:00:00	7	Dirección del viento	4.83
35095	7	Sololá	717	San Juan la Laguna	12	San Juan la Laguna	2	Febrero	2023-06-02T00:00:00	2024-11-08T04:00:00	1	Precipitación	0
35096	7	Sololá	717	San Juan la Laguna	12	San Juan la Laguna	2	Febrero	2023-06-02T00:00:00	2024-11-08T04:00:00	8	Radiación solar	0
35097	7	Sololá	717	San Juan la Laguna	12	San Juan la Laguna	2	Febrero	2023-06-02T00:00:00	2024-11-08T05:00:00	2	Temperatura media	16.2
35098	7	Sololá	717	San Juan la Laguna	12	San Juan la Laguna	2	Febrero	2023-06-02T00:00:00	2024-11-08T05:00:00	4	Temperatura máxima	16.3
35099	7	Sololá	717	San Juan la Laguna	12	San Juan la Laguna	2	Febrero	2023-06-02T00:00:00	2024-11-08T05:00:00	3	Temperatura mínima	16.2
35100	7	Sololá	717	San Juan la Laguna	12	San Juan la Laguna	2	Febrero	2023-06-02T00:00:00	2024-11-08T05:00:00	5	Humedad	60
35101	7	Sololá	717	San Juan la Laguna	12	San Juan la Laguna	2	Febrero	2023-06-02T00:00:00	2024-11-08T05:00:00	6	Velocidad del viento	4.8
35102	7	Sololá	717	San Juan la Laguna	12	San Juan la Laguna	2	Febrero	2023-06-02T00:00:00	2024-11-08T05:00:00	7	Dirección del viento	4.83
35103	7	Sololá	717	San Juan la Laguna	12	San Juan la Laguna	2	Febrero	2023-06-02T00:00:00	2024-11-08T05:00:00	1	Precipitación	0
35104	7	Sololá	717	San Juan la Laguna	12	San Juan la Laguna	2	Febrero	2023-06-02T00:00:00	2024-11-08T05:00:00	8	Radiación solar	0
35105	7	Sololá	717	San Juan la Laguna	12	San Juan la Laguna	2	Febrero	2023-06-02T00:00:00	2024-11-08T06:00:00	2	Temperatura media	16.5
35106	7	Sololá	717	San Juan la Laguna	12	San Juan la Laguna	2	Febrero	2023-06-02T00:00:00	2024-11-08T06:00:00	4	Temperatura máxima	16.5
35107	7	Sololá	717	San Juan la Laguna	12	San Juan la Laguna	2	Febrero	2023-06-02T00:00:00	2024-11-08T06:00:00	3	Temperatura mínima	16.1
35108	7	Sololá	717	San Juan la Laguna	12	San Juan la Laguna	2	Febrero	2023-06-02T00:00:00	2024-11-08T06:00:00	5	Humedad	56
35109	7	Sololá	717	San Juan la Laguna	12	San Juan la Laguna	2	Febrero	2023-06-02T00:00:00	2024-11-08T06:00:00	6	Velocidad del viento	3.2
35110	7	Sololá	717	San Juan la Laguna	12	San Juan la Laguna	2	Febrero	2023-06-02T00:00:00	2024-11-08T06:00:00	7	Dirección del viento	3.22
35111	7	Sololá	717	San Juan la Laguna	12	San Juan la Laguna	2	Febrero	2023-06-02T00:00:00	2024-11-08T06:00:00	1	Precipitación	0
35112	7	Sololá	717	San Juan la Laguna	12	San Juan la Laguna	2	Febrero	2023-06-02T00:00:00	2024-11-08T06:00:00	8	Radiación solar	0
35113	7	Sololá	717	San Juan la Laguna	12	San Juan la Laguna	2	Febrero	2023-06-02T00:00:00	2024-11-08T07:00:00	2	Temperatura media	16.3
35114	7	Sololá	717	San Juan la Laguna	12	San Juan la Laguna	2	Febrero	2023-06-02T00:00:00	2024-11-08T07:00:00	4	Temperatura máxima	16.6
35115	7	Sololá	717	San Juan la Laguna	12	San Juan la Laguna	2	Febrero	2023-06-02T00:00:00	2024-11-08T07:00:00	3	Temperatura mínima	16.1
35116	7	Sololá	717	San Juan la Laguna	12	San Juan la Laguna	2	Febrero	2023-06-02T00:00:00	2024-11-08T07:00:00	5	Humedad	51
35117	7	Sololá	717	San Juan la Laguna	12	San Juan la Laguna	2	Febrero	2023-06-02T00:00:00	2024-11-08T07:00:00	6	Velocidad del viento	4.8
35118	7	Sololá	717	San Juan la Laguna	12	San Juan la Laguna	2	Febrero	2023-06-02T00:00:00	2024-11-08T07:00:00	7	Dirección del viento	4.83
35119	7	Sololá	717	San Juan la Laguna	12	San Juan la Laguna	2	Febrero	2023-06-02T00:00:00	2024-11-08T07:00:00	1	Precipitación	0
35120	7	Sololá	717	San Juan la Laguna	12	San Juan la Laguna	2	Febrero	2023-06-02T00:00:00	2024-11-08T07:00:00	8	Radiación solar	5
35121	7	Sololá	717	San Juan la Laguna	12	San Juan la Laguna	2	Febrero	2023-06-02T00:00:00	2024-11-08T08:00:00	2	Temperatura media	17.8
35122	7	Sololá	717	San Juan la Laguna	12	San Juan la Laguna	2	Febrero	2023-06-02T00:00:00	2024-11-08T08:00:00	4	Temperatura máxima	17.8
35123	7	Sololá	717	San Juan la Laguna	12	San Juan la Laguna	2	Febrero	2023-06-02T00:00:00	2024-11-08T08:00:00	3	Temperatura mínima	16.3
35124	7	Sololá	717	San Juan la Laguna	12	San Juan la Laguna	2	Febrero	2023-06-02T00:00:00	2024-11-08T08:00:00	5	Humedad	59
35125	7	Sololá	717	San Juan la Laguna	12	San Juan la Laguna	2	Febrero	2023-06-02T00:00:00	2024-11-08T08:00:00	6	Velocidad del viento	4.8
35126	7	Sololá	717	San Juan la Laguna	12	San Juan la Laguna	2	Febrero	2023-06-02T00:00:00	2024-11-08T08:00:00	7	Dirección del viento	4.83
35127	7	Sololá	717	San Juan la Laguna	12	San Juan la Laguna	2	Febrero	2023-06-02T00:00:00	2024-11-08T08:00:00	1	Precipitación	0
35128	7	Sololá	717	San Juan la Laguna	12	San Juan la Laguna	2	Febrero	2023-06-02T00:00:00	2024-11-08T08:00:00	8	Radiación solar	140
35129	7	Sololá	717	San Juan la Laguna	12	San Juan la Laguna	2	Febrero	2023-06-02T00:00:00	2024-11-08T09:00:00	2	Temperatura media	19.1
35130	7	Sololá	717	San Juan la Laguna	12	San Juan la Laguna	2	Febrero	2023-06-02T00:00:00	2024-11-08T09:00:00	4	Temperatura máxima	19.1
35131	7	Sololá	717	San Juan la Laguna	12	San Juan la Laguna	2	Febrero	2023-06-02T00:00:00	2024-11-08T09:00:00	3	Temperatura mínima	17.8
35132	7	Sololá	717	San Juan la Laguna	12	San Juan la Laguna	2	Febrero	2023-06-02T00:00:00	2024-11-08T09:00:00	5	Humedad	55
35133	7	Sololá	717	San Juan la Laguna	12	San Juan la Laguna	2	Febrero	2023-06-02T00:00:00	2024-11-08T09:00:00	6	Velocidad del viento	8
35134	7	Sololá	717	San Juan la Laguna	12	San Juan la Laguna	2	Febrero	2023-06-02T00:00:00	2024-11-08T09:00:00	7	Dirección del viento	8.05
35135	7	Sololá	717	San Juan la Laguna	12	San Juan la Laguna	2	Febrero	2023-06-02T00:00:00	2024-11-08T09:00:00	1	Precipitación	0
35136	7	Sololá	717	San Juan la Laguna	12	San Juan la Laguna	2	Febrero	2023-06-02T00:00:00	2024-11-08T09:00:00	8	Radiación solar	355
35137	7	Sololá	717	San Juan la Laguna	12	San Juan la Laguna	2	Febrero	2023-06-02T00:00:00	2024-11-08T10:00:00	2	Temperatura media	20.8
35138	7	Sololá	717	San Juan la Laguna	12	San Juan la Laguna	2	Febrero	2023-06-02T00:00:00	2024-11-08T10:00:00	4	Temperatura máxima	20.8
35139	7	Sololá	717	San Juan la Laguna	12	San Juan la Laguna	2	Febrero	2023-06-02T00:00:00	2024-11-08T10:00:00	3	Temperatura mínima	19.1
35140	7	Sololá	717	San Juan la Laguna	12	San Juan la Laguna	2	Febrero	2023-06-02T00:00:00	2024-11-08T10:00:00	5	Humedad	47
35141	7	Sololá	717	San Juan la Laguna	12	San Juan la Laguna	2	Febrero	2023-06-02T00:00:00	2024-11-08T10:00:00	6	Velocidad del viento	6.4
35142	7	Sololá	717	San Juan la Laguna	12	San Juan la Laguna	2	Febrero	2023-06-02T00:00:00	2024-11-08T10:00:00	7	Dirección del viento	6.44
35143	7	Sololá	717	San Juan la Laguna	12	San Juan la Laguna	2	Febrero	2023-06-02T00:00:00	2024-11-08T10:00:00	1	Precipitación	0
35144	7	Sololá	717	San Juan la Laguna	12	San Juan la Laguna	2	Febrero	2023-06-02T00:00:00	2024-11-08T10:00:00	8	Radiación solar	570
35145	7	Sololá	717	San Juan la Laguna	12	San Juan la Laguna	2	Febrero	2023-06-02T00:00:00	2024-11-08T11:00:00	2	Temperatura media	22.3
35146	7	Sololá	717	San Juan la Laguna	12	San Juan la Laguna	2	Febrero	2023-06-02T00:00:00	2024-11-08T11:00:00	4	Temperatura máxima	22.3
35147	7	Sololá	717	San Juan la Laguna	12	San Juan la Laguna	2	Febrero	2023-06-02T00:00:00	2024-11-08T11:00:00	3	Temperatura mínima	20.8
35148	7	Sololá	717	San Juan la Laguna	12	San Juan la Laguna	2	Febrero	2023-06-02T00:00:00	2024-11-08T11:00:00	5	Humedad	45
35149	7	Sololá	717	San Juan la Laguna	12	San Juan la Laguna	2	Febrero	2023-06-02T00:00:00	2024-11-08T11:00:00	6	Velocidad del viento	4.8
35150	7	Sololá	717	San Juan la Laguna	12	San Juan la Laguna	2	Febrero	2023-06-02T00:00:00	2024-11-08T11:00:00	7	Dirección del viento	4.83
35151	7	Sololá	717	San Juan la Laguna	12	San Juan la Laguna	2	Febrero	2023-06-02T00:00:00	2024-11-08T11:00:00	1	Precipitación	0
35152	7	Sololá	717	San Juan la Laguna	12	San Juan la Laguna	2	Febrero	2023-06-02T00:00:00	2024-11-08T11:00:00	8	Radiación solar	720
35153	7	Sololá	717	San Juan la Laguna	12	San Juan la Laguna	2	Febrero	2023-06-02T00:00:00	2024-11-08T12:00:00	2	Temperatura media	23.6
35154	7	Sololá	717	San Juan la Laguna	12	San Juan la Laguna	2	Febrero	2023-06-02T00:00:00	2024-11-08T12:00:00	4	Temperatura máxima	23.6
35155	7	Sololá	717	San Juan la Laguna	12	San Juan la Laguna	2	Febrero	2023-06-02T00:00:00	2024-11-08T12:00:00	3	Temperatura mínima	22.2
35156	7	Sololá	717	San Juan la Laguna	12	San Juan la Laguna	2	Febrero	2023-06-02T00:00:00	2024-11-08T12:00:00	5	Humedad	40
35157	7	Sololá	717	San Juan la Laguna	12	San Juan la Laguna	2	Febrero	2023-06-02T00:00:00	2024-11-08T12:00:00	6	Velocidad del viento	6.4
35158	7	Sololá	717	San Juan la Laguna	12	San Juan la Laguna	2	Febrero	2023-06-02T00:00:00	2024-11-08T12:00:00	7	Dirección del viento	6.44
35159	7	Sololá	717	San Juan la Laguna	12	San Juan la Laguna	2	Febrero	2023-06-02T00:00:00	2024-11-08T12:00:00	1	Precipitación	0
35160	7	Sololá	717	San Juan la Laguna	12	San Juan la Laguna	2	Febrero	2023-06-02T00:00:00	2024-11-08T12:00:00	8	Radiación solar	712
35161	7	Sololá	717	San Juan la Laguna	12	San Juan la Laguna	2	Febrero	2023-06-02T00:00:00	2024-11-08T13:00:00	2	Temperatura media	23.4
35162	7	Sololá	717	San Juan la Laguna	12	San Juan la Laguna	2	Febrero	2023-06-02T00:00:00	2024-11-08T13:00:00	4	Temperatura máxima	24.3
35163	7	Sololá	717	San Juan la Laguna	12	San Juan la Laguna	2	Febrero	2023-06-02T00:00:00	2024-11-08T13:00:00	3	Temperatura mínima	23.4
35164	7	Sololá	717	San Juan la Laguna	12	San Juan la Laguna	2	Febrero	2023-06-02T00:00:00	2024-11-08T13:00:00	5	Humedad	46
35165	7	Sololá	717	San Juan la Laguna	12	San Juan la Laguna	2	Febrero	2023-06-02T00:00:00	2024-11-08T13:00:00	6	Velocidad del viento	4.8
35166	7	Sololá	717	San Juan la Laguna	12	San Juan la Laguna	2	Febrero	2023-06-02T00:00:00	2024-11-08T13:00:00	7	Dirección del viento	4.83
35167	7	Sololá	717	San Juan la Laguna	12	San Juan la Laguna	2	Febrero	2023-06-02T00:00:00	2024-11-08T13:00:00	1	Precipitación	0
35168	7	Sololá	717	San Juan la Laguna	12	San Juan la Laguna	2	Febrero	2023-06-02T00:00:00	2024-11-08T13:00:00	8	Radiación solar	843
35169	7	Sololá	717	San Juan la Laguna	12	San Juan la Laguna	2	Febrero	2023-06-02T00:00:00	2024-11-08T14:00:00	2	Temperatura media	23.7
35170	7	Sololá	717	San Juan la Laguna	12	San Juan la Laguna	2	Febrero	2023-06-02T00:00:00	2024-11-08T14:00:00	4	Temperatura máxima	24.3
35171	7	Sololá	717	San Juan la Laguna	12	San Juan la Laguna	2	Febrero	2023-06-02T00:00:00	2024-11-08T14:00:00	3	Temperatura mínima	23.4
35172	7	Sololá	717	San Juan la Laguna	12	San Juan la Laguna	2	Febrero	2023-06-02T00:00:00	2024-11-08T14:00:00	5	Humedad	47
35173	7	Sololá	717	San Juan la Laguna	12	San Juan la Laguna	2	Febrero	2023-06-02T00:00:00	2024-11-08T14:00:00	6	Velocidad del viento	3.2
35174	7	Sololá	717	San Juan la Laguna	12	San Juan la Laguna	2	Febrero	2023-06-02T00:00:00	2024-11-08T14:00:00	7	Dirección del viento	3.22
35175	7	Sololá	717	San Juan la Laguna	12	San Juan la Laguna	2	Febrero	2023-06-02T00:00:00	2024-11-08T14:00:00	1	Precipitación	0
35176	7	Sololá	717	San Juan la Laguna	12	San Juan la Laguna	2	Febrero	2023-06-02T00:00:00	2024-11-08T14:00:00	8	Radiación solar	805
35177	7	Sololá	717	San Juan la Laguna	12	San Juan la Laguna	2	Febrero	2023-06-02T00:00:00	2024-11-08T15:00:00	2	Temperatura media	22.7
35178	7	Sololá	717	San Juan la Laguna	12	San Juan la Laguna	2	Febrero	2023-06-02T00:00:00	2024-11-08T15:00:00	4	Temperatura máxima	23.7
35179	7	Sololá	717	San Juan la Laguna	12	San Juan la Laguna	2	Febrero	2023-06-02T00:00:00	2024-11-08T15:00:00	3	Temperatura mínima	22.7
35180	7	Sololá	717	San Juan la Laguna	12	San Juan la Laguna	2	Febrero	2023-06-02T00:00:00	2024-11-08T15:00:00	5	Humedad	59
35181	7	Sololá	717	San Juan la Laguna	12	San Juan la Laguna	2	Febrero	2023-06-02T00:00:00	2024-11-08T15:00:00	6	Velocidad del viento	3.2
35182	7	Sololá	717	San Juan la Laguna	12	San Juan la Laguna	2	Febrero	2023-06-02T00:00:00	2024-11-08T15:00:00	7	Dirección del viento	3.22
35183	7	Sololá	717	San Juan la Laguna	12	San Juan la Laguna	2	Febrero	2023-06-02T00:00:00	2024-11-08T15:00:00	1	Precipitación	0
35184	7	Sololá	717	San Juan la Laguna	12	San Juan la Laguna	2	Febrero	2023-06-02T00:00:00	2024-11-08T15:00:00	8	Radiación solar	684
35185	7	Sololá	717	San Juan la Laguna	12	San Juan la Laguna	2	Febrero	2023-06-02T00:00:00	2024-11-08T16:00:00	2	Temperatura media	22.4
35186	7	Sololá	717	San Juan la Laguna	12	San Juan la Laguna	2	Febrero	2023-06-02T00:00:00	2024-11-08T16:00:00	4	Temperatura máxima	23.3
35187	7	Sololá	717	San Juan la Laguna	12	San Juan la Laguna	2	Febrero	2023-06-02T00:00:00	2024-11-08T16:00:00	3	Temperatura mínima	22.3
35188	7	Sololá	717	San Juan la Laguna	12	San Juan la Laguna	2	Febrero	2023-06-02T00:00:00	2024-11-08T16:00:00	5	Humedad	61
35189	7	Sololá	717	San Juan la Laguna	12	San Juan la Laguna	2	Febrero	2023-06-02T00:00:00	2024-11-08T16:00:00	6	Velocidad del viento	3.2
35190	7	Sololá	717	San Juan la Laguna	12	San Juan la Laguna	2	Febrero	2023-06-02T00:00:00	2024-11-08T16:00:00	7	Dirección del viento	3.22
35191	7	Sololá	717	San Juan la Laguna	12	San Juan la Laguna	2	Febrero	2023-06-02T00:00:00	2024-11-08T16:00:00	1	Precipitación	0
35192	7	Sololá	717	San Juan la Laguna	12	San Juan la Laguna	2	Febrero	2023-06-02T00:00:00	2024-11-08T16:00:00	8	Radiación solar	512
35193	7	Sololá	717	San Juan la Laguna	12	San Juan la Laguna	2	Febrero	2023-06-02T00:00:00	2024-11-08T17:00:00	2	Temperatura media	21.7
35194	7	Sololá	717	San Juan la Laguna	12	San Juan la Laguna	2	Febrero	2023-06-02T00:00:00	2024-11-08T17:00:00	4	Temperatura máxima	22.4
35195	7	Sololá	717	San Juan la Laguna	12	San Juan la Laguna	2	Febrero	2023-06-02T00:00:00	2024-11-08T17:00:00	3	Temperatura mínima	21.6
35196	7	Sololá	717	San Juan la Laguna	12	San Juan la Laguna	2	Febrero	2023-06-02T00:00:00	2024-11-08T17:00:00	5	Humedad	67
35197	7	Sololá	717	San Juan la Laguna	12	San Juan la Laguna	2	Febrero	2023-06-02T00:00:00	2024-11-08T17:00:00	6	Velocidad del viento	4.8
35198	7	Sololá	717	San Juan la Laguna	12	San Juan la Laguna	2	Febrero	2023-06-02T00:00:00	2024-11-08T17:00:00	7	Dirección del viento	4.83
35199	7	Sololá	717	San Juan la Laguna	12	San Juan la Laguna	2	Febrero	2023-06-02T00:00:00	2024-11-08T17:00:00	1	Precipitación	0
35200	7	Sololá	717	San Juan la Laguna	12	San Juan la Laguna	2	Febrero	2023-06-02T00:00:00	2024-11-08T17:00:00	8	Radiación solar	293
35201	7	Sololá	717	San Juan la Laguna	12	San Juan la Laguna	2	Febrero	2023-06-02T00:00:00	2024-11-08T18:00:00	2	Temperatura media	20.1
35202	7	Sololá	717	San Juan la Laguna	12	San Juan la Laguna	2	Febrero	2023-06-02T00:00:00	2024-11-08T18:00:00	4	Temperatura máxima	21.7
35203	7	Sololá	717	San Juan la Laguna	12	San Juan la Laguna	2	Febrero	2023-06-02T00:00:00	2024-11-08T18:00:00	3	Temperatura mínima	20.1
35204	7	Sololá	717	San Juan la Laguna	12	San Juan la Laguna	2	Febrero	2023-06-02T00:00:00	2024-11-08T18:00:00	5	Humedad	63
35205	7	Sololá	717	San Juan la Laguna	12	San Juan la Laguna	2	Febrero	2023-06-02T00:00:00	2024-11-08T18:00:00	6	Velocidad del viento	3.2
35206	7	Sololá	717	San Juan la Laguna	12	San Juan la Laguna	2	Febrero	2023-06-02T00:00:00	2024-11-08T18:00:00	7	Dirección del viento	3.22
35207	7	Sololá	717	San Juan la Laguna	12	San Juan la Laguna	2	Febrero	2023-06-02T00:00:00	2024-11-08T18:00:00	1	Precipitación	0
35208	7	Sololá	717	San Juan la Laguna	12	San Juan la Laguna	2	Febrero	2023-06-02T00:00:00	2024-11-08T18:00:00	8	Radiación solar	26
35209	7	Sololá	717	San Juan la Laguna	12	San Juan la Laguna	2	Febrero	2023-06-02T00:00:00	2024-11-08T19:00:00	2	Temperatura media	18.7
35210	7	Sololá	717	San Juan la Laguna	12	San Juan la Laguna	2	Febrero	2023-06-02T00:00:00	2024-11-08T19:00:00	4	Temperatura máxima	20.1
35211	7	Sololá	717	San Juan la Laguna	12	San Juan la Laguna	2	Febrero	2023-06-02T00:00:00	2024-11-08T19:00:00	3	Temperatura mínima	18.7
35212	7	Sololá	717	San Juan la Laguna	12	San Juan la Laguna	2	Febrero	2023-06-02T00:00:00	2024-11-08T19:00:00	5	Humedad	61
35213	7	Sololá	717	San Juan la Laguna	12	San Juan la Laguna	2	Febrero	2023-06-02T00:00:00	2024-11-08T19:00:00	6	Velocidad del viento	3.2
35214	7	Sololá	717	San Juan la Laguna	12	San Juan la Laguna	2	Febrero	2023-06-02T00:00:00	2024-11-08T19:00:00	7	Dirección del viento	3.22
35215	7	Sololá	717	San Juan la Laguna	12	San Juan la Laguna	2	Febrero	2023-06-02T00:00:00	2024-11-08T19:00:00	1	Precipitación	0
35216	7	Sololá	717	San Juan la Laguna	12	San Juan la Laguna	2	Febrero	2023-06-02T00:00:00	2024-11-08T19:00:00	8	Radiación solar	0
35217	7	Sololá	717	San Juan la Laguna	12	San Juan la Laguna	2	Febrero	2023-06-02T00:00:00	2024-11-08T20:00:00	2	Temperatura media	17.7
35218	7	Sololá	717	San Juan la Laguna	12	San Juan la Laguna	2	Febrero	2023-06-02T00:00:00	2024-11-08T20:00:00	4	Temperatura máxima	18.7
35219	7	Sololá	717	San Juan la Laguna	12	San Juan la Laguna	2	Febrero	2023-06-02T00:00:00	2024-11-08T20:00:00	3	Temperatura mínima	17.7
35220	7	Sololá	717	San Juan la Laguna	12	San Juan la Laguna	2	Febrero	2023-06-02T00:00:00	2024-11-08T20:00:00	5	Humedad	62
35221	7	Sololá	717	San Juan la Laguna	12	San Juan la Laguna	2	Febrero	2023-06-02T00:00:00	2024-11-08T20:00:00	6	Velocidad del viento	4.8
35222	7	Sololá	717	San Juan la Laguna	12	San Juan la Laguna	2	Febrero	2023-06-02T00:00:00	2024-11-08T20:00:00	7	Dirección del viento	4.83
35223	7	Sololá	717	San Juan la Laguna	12	San Juan la Laguna	2	Febrero	2023-06-02T00:00:00	2024-11-08T20:00:00	1	Precipitación	0
35224	7	Sololá	717	San Juan la Laguna	12	San Juan la Laguna	2	Febrero	2023-06-02T00:00:00	2024-11-08T20:00:00	8	Radiación solar	0
35225	7	Sololá	717	San Juan la Laguna	12	San Juan la Laguna	2	Febrero	2023-06-02T00:00:00	2024-11-08T21:00:00	2	Temperatura media	16.9
35226	7	Sololá	717	San Juan la Laguna	12	San Juan la Laguna	2	Febrero	2023-06-02T00:00:00	2024-11-08T21:00:00	4	Temperatura máxima	17.7
35227	7	Sololá	717	San Juan la Laguna	12	San Juan la Laguna	2	Febrero	2023-06-02T00:00:00	2024-11-08T21:00:00	3	Temperatura mínima	16.9
35228	7	Sololá	717	San Juan la Laguna	12	San Juan la Laguna	2	Febrero	2023-06-02T00:00:00	2024-11-08T21:00:00	5	Humedad	63
35229	7	Sololá	717	San Juan la Laguna	12	San Juan la Laguna	2	Febrero	2023-06-02T00:00:00	2024-11-08T21:00:00	6	Velocidad del viento	6.4
35230	7	Sololá	717	San Juan la Laguna	12	San Juan la Laguna	2	Febrero	2023-06-02T00:00:00	2024-11-08T21:00:00	7	Dirección del viento	6.44
35231	7	Sololá	717	San Juan la Laguna	12	San Juan la Laguna	2	Febrero	2023-06-02T00:00:00	2024-11-08T21:00:00	1	Precipitación	0
35232	7	Sololá	717	San Juan la Laguna	12	San Juan la Laguna	2	Febrero	2023-06-02T00:00:00	2024-11-08T21:00:00	8	Radiación solar	0
35233	7	Sololá	717	San Juan la Laguna	12	San Juan la Laguna	2	Febrero	2023-06-02T00:00:00	2024-11-08T22:00:00	2	Temperatura media	16.7
35234	7	Sololá	717	San Juan la Laguna	12	San Juan la Laguna	2	Febrero	2023-06-02T00:00:00	2024-11-08T22:00:00	4	Temperatura máxima	17
35235	7	Sololá	717	San Juan la Laguna	12	San Juan la Laguna	2	Febrero	2023-06-02T00:00:00	2024-11-08T22:00:00	3	Temperatura mínima	16.7
35236	7	Sololá	717	San Juan la Laguna	12	San Juan la Laguna	2	Febrero	2023-06-02T00:00:00	2024-11-08T22:00:00	5	Humedad	63
35237	7	Sololá	717	San Juan la Laguna	12	San Juan la Laguna	2	Febrero	2023-06-02T00:00:00	2024-11-08T22:00:00	6	Velocidad del viento	4.8
35238	7	Sololá	717	San Juan la Laguna	12	San Juan la Laguna	2	Febrero	2023-06-02T00:00:00	2024-11-08T22:00:00	7	Dirección del viento	4.83
35239	7	Sololá	717	San Juan la Laguna	12	San Juan la Laguna	2	Febrero	2023-06-02T00:00:00	2024-11-08T22:00:00	1	Precipitación	0
35240	7	Sololá	717	San Juan la Laguna	12	San Juan la Laguna	2	Febrero	2023-06-02T00:00:00	2024-11-08T22:00:00	8	Radiación solar	0
35241	7	Sololá	717	San Juan la Laguna	12	San Juan la Laguna	2	Febrero	2023-06-02T00:00:00	2024-11-08T23:00:00	2	Temperatura media	16.2
35242	7	Sololá	717	San Juan la Laguna	12	San Juan la Laguna	2	Febrero	2023-06-02T00:00:00	2024-11-08T23:00:00	4	Temperatura máxima	16.8
35243	7	Sololá	717	San Juan la Laguna	12	San Juan la Laguna	2	Febrero	2023-06-02T00:00:00	2024-11-08T23:00:00	3	Temperatura mínima	16.2
35244	7	Sololá	717	San Juan la Laguna	12	San Juan la Laguna	2	Febrero	2023-06-02T00:00:00	2024-11-08T23:00:00	5	Humedad	63
35245	7	Sololá	717	San Juan la Laguna	12	San Juan la Laguna	2	Febrero	2023-06-02T00:00:00	2024-11-08T23:00:00	6	Velocidad del viento	3.2
35246	7	Sololá	717	San Juan la Laguna	12	San Juan la Laguna	2	Febrero	2023-06-02T00:00:00	2024-11-08T23:00:00	7	Dirección del viento	3.22
35247	7	Sololá	717	San Juan la Laguna	12	San Juan la Laguna	2	Febrero	2023-06-02T00:00:00	2024-11-08T23:00:00	1	Precipitación	0
35248	7	Sololá	717	San Juan la Laguna	12	San Juan la Laguna	2	Febrero	2023-06-02T00:00:00	2024-11-08T23:00:00	8	Radiación solar	0
35249	7	Sololá	717	San Juan la Laguna	12	San Juan la Laguna	2	Febrero	2023-07-02T00:00:00	2024-11-08T00:00:00	2	Temperatura media	15.6
35250	7	Sololá	717	San Juan la Laguna	12	San Juan la Laguna	2	Febrero	2023-07-02T00:00:00	2024-11-08T00:00:00	4	Temperatura máxima	16.2
35251	7	Sololá	717	San Juan la Laguna	12	San Juan la Laguna	2	Febrero	2023-07-02T00:00:00	2024-11-08T00:00:00	3	Temperatura mínima	14.4
35252	7	Sololá	717	San Juan la Laguna	12	San Juan la Laguna	2	Febrero	2023-07-02T00:00:00	2024-11-08T00:00:00	5	Humedad	66
35253	7	Sololá	717	San Juan la Laguna	12	San Juan la Laguna	2	Febrero	2023-07-02T00:00:00	2024-11-08T00:00:00	6	Velocidad del viento	1.6
35254	7	Sololá	717	San Juan la Laguna	12	San Juan la Laguna	2	Febrero	2023-07-02T00:00:00	2024-11-08T00:00:00	7	Dirección del viento	1.61
35255	7	Sololá	717	San Juan la Laguna	12	San Juan la Laguna	2	Febrero	2023-07-02T00:00:00	2024-11-08T00:00:00	1	Precipitación	0
35256	7	Sololá	717	San Juan la Laguna	12	San Juan la Laguna	2	Febrero	2023-07-02T00:00:00	2024-11-08T00:00:00	8	Radiación solar	0
35257	7	Sololá	717	San Juan la Laguna	12	San Juan la Laguna	2	Febrero	2023-07-02T00:00:00	2024-11-08T01:00:00	2	Temperatura media	12.4
35258	7	Sololá	717	San Juan la Laguna	12	San Juan la Laguna	2	Febrero	2023-07-02T00:00:00	2024-11-08T01:00:00	4	Temperatura máxima	15.6
35259	7	Sololá	717	San Juan la Laguna	12	San Juan la Laguna	2	Febrero	2023-07-02T00:00:00	2024-11-08T01:00:00	3	Temperatura mínima	12.1
35260	7	Sololá	717	San Juan la Laguna	12	San Juan la Laguna	2	Febrero	2023-07-02T00:00:00	2024-11-08T01:00:00	5	Humedad	72
35261	7	Sololá	717	San Juan la Laguna	12	San Juan la Laguna	2	Febrero	2023-07-02T00:00:00	2024-11-08T01:00:00	6	Velocidad del viento	3.2
35262	7	Sololá	717	San Juan la Laguna	12	San Juan la Laguna	2	Febrero	2023-07-02T00:00:00	2024-11-08T01:00:00	7	Dirección del viento	3.22
35263	7	Sololá	717	San Juan la Laguna	12	San Juan la Laguna	2	Febrero	2023-07-02T00:00:00	2024-11-08T01:00:00	1	Precipitación	0
35264	7	Sololá	717	San Juan la Laguna	12	San Juan la Laguna	2	Febrero	2023-07-02T00:00:00	2024-11-08T01:00:00	8	Radiación solar	0
35265	7	Sololá	717	San Juan la Laguna	12	San Juan la Laguna	2	Febrero	2023-07-02T00:00:00	2024-11-08T02:00:00	2	Temperatura media	11.9
35266	7	Sololá	717	San Juan la Laguna	12	San Juan la Laguna	2	Febrero	2023-07-02T00:00:00	2024-11-08T02:00:00	4	Temperatura máxima	12.6
35267	7	Sololá	717	San Juan la Laguna	12	San Juan la Laguna	2	Febrero	2023-07-02T00:00:00	2024-11-08T02:00:00	3	Temperatura mínima	11.8
35268	7	Sololá	717	San Juan la Laguna	12	San Juan la Laguna	2	Febrero	2023-07-02T00:00:00	2024-11-08T02:00:00	5	Humedad	72
35269	7	Sololá	717	San Juan la Laguna	12	San Juan la Laguna	2	Febrero	2023-07-02T00:00:00	2024-11-08T02:00:00	6	Velocidad del viento	4.8
35270	7	Sololá	717	San Juan la Laguna	12	San Juan la Laguna	2	Febrero	2023-07-02T00:00:00	2024-11-08T02:00:00	7	Dirección del viento	4.83
35271	7	Sololá	717	San Juan la Laguna	12	San Juan la Laguna	2	Febrero	2023-07-02T00:00:00	2024-11-08T02:00:00	1	Precipitación	0
35272	7	Sololá	717	San Juan la Laguna	12	San Juan la Laguna	2	Febrero	2023-07-02T00:00:00	2024-11-08T02:00:00	8	Radiación solar	0
35273	7	Sololá	717	San Juan la Laguna	12	San Juan la Laguna	2	Febrero	2023-07-02T00:00:00	2024-11-08T03:00:00	2	Temperatura media	11.4
35274	7	Sololá	717	San Juan la Laguna	12	San Juan la Laguna	2	Febrero	2023-07-02T00:00:00	2024-11-08T03:00:00	4	Temperatura máxima	11.9
35275	7	Sololá	717	San Juan la Laguna	12	San Juan la Laguna	2	Febrero	2023-07-02T00:00:00	2024-11-08T03:00:00	3	Temperatura mínima	11
35276	7	Sololá	717	San Juan la Laguna	12	San Juan la Laguna	2	Febrero	2023-07-02T00:00:00	2024-11-08T03:00:00	5	Humedad	74
35277	7	Sololá	717	San Juan la Laguna	12	San Juan la Laguna	2	Febrero	2023-07-02T00:00:00	2024-11-08T03:00:00	6	Velocidad del viento	4.8
35278	7	Sololá	717	San Juan la Laguna	12	San Juan la Laguna	2	Febrero	2023-07-02T00:00:00	2024-11-08T03:00:00	7	Dirección del viento	4.83
35279	7	Sololá	717	San Juan la Laguna	12	San Juan la Laguna	2	Febrero	2023-07-02T00:00:00	2024-11-08T03:00:00	1	Precipitación	0
35280	7	Sololá	717	San Juan la Laguna	12	San Juan la Laguna	2	Febrero	2023-07-02T00:00:00	2024-11-08T03:00:00	8	Radiación solar	0
35281	7	Sololá	717	San Juan la Laguna	12	San Juan la Laguna	2	Febrero	2023-07-02T00:00:00	2024-11-08T04:00:00	2	Temperatura media	10.8
35282	7	Sololá	717	San Juan la Laguna	12	San Juan la Laguna	2	Febrero	2023-07-02T00:00:00	2024-11-08T04:00:00	4	Temperatura máxima	11.4
35283	7	Sololá	717	San Juan la Laguna	12	San Juan la Laguna	2	Febrero	2023-07-02T00:00:00	2024-11-08T04:00:00	3	Temperatura mínima	10.7
35284	7	Sololá	717	San Juan la Laguna	12	San Juan la Laguna	2	Febrero	2023-07-02T00:00:00	2024-11-08T04:00:00	5	Humedad	74
35285	7	Sololá	717	San Juan la Laguna	12	San Juan la Laguna	2	Febrero	2023-07-02T00:00:00	2024-11-08T04:00:00	6	Velocidad del viento	4.8
35286	7	Sololá	717	San Juan la Laguna	12	San Juan la Laguna	2	Febrero	2023-07-02T00:00:00	2024-11-08T04:00:00	7	Dirección del viento	4.83
35287	7	Sololá	717	San Juan la Laguna	12	San Juan la Laguna	2	Febrero	2023-07-02T00:00:00	2024-11-08T04:00:00	1	Precipitación	0
35288	7	Sololá	717	San Juan la Laguna	12	San Juan la Laguna	2	Febrero	2023-07-02T00:00:00	2024-11-08T04:00:00	8	Radiación solar	0
35289	7	Sololá	717	San Juan la Laguna	12	San Juan la Laguna	2	Febrero	2023-07-02T00:00:00	2024-11-08T05:00:00	2	Temperatura media	10.3
35290	7	Sololá	717	San Juan la Laguna	12	San Juan la Laguna	2	Febrero	2023-07-02T00:00:00	2024-11-08T05:00:00	4	Temperatura máxima	10.8
35291	7	Sololá	717	San Juan la Laguna	12	San Juan la Laguna	2	Febrero	2023-07-02T00:00:00	2024-11-08T05:00:00	3	Temperatura mínima	10.3
35292	7	Sololá	717	San Juan la Laguna	12	San Juan la Laguna	2	Febrero	2023-07-02T00:00:00	2024-11-08T05:00:00	5	Humedad	74
35293	7	Sololá	717	San Juan la Laguna	12	San Juan la Laguna	2	Febrero	2023-07-02T00:00:00	2024-11-08T05:00:00	6	Velocidad del viento	4.8
35294	7	Sololá	717	San Juan la Laguna	12	San Juan la Laguna	2	Febrero	2023-07-02T00:00:00	2024-11-08T05:00:00	7	Dirección del viento	4.83
35295	7	Sololá	717	San Juan la Laguna	12	San Juan la Laguna	2	Febrero	2023-07-02T00:00:00	2024-11-08T05:00:00	1	Precipitación	0
35296	7	Sololá	717	San Juan la Laguna	12	San Juan la Laguna	2	Febrero	2023-07-02T00:00:00	2024-11-08T05:00:00	8	Radiación solar	0
35297	7	Sololá	717	San Juan la Laguna	12	San Juan la Laguna	2	Febrero	2023-07-02T00:00:00	2024-11-08T06:00:00	2	Temperatura media	10.4
35298	7	Sololá	717	San Juan la Laguna	12	San Juan la Laguna	2	Febrero	2023-07-02T00:00:00	2024-11-08T06:00:00	4	Temperatura máxima	10.7
35299	7	Sololá	717	San Juan la Laguna	12	San Juan la Laguna	2	Febrero	2023-07-02T00:00:00	2024-11-08T06:00:00	3	Temperatura mínima	10.3
35300	7	Sololá	717	San Juan la Laguna	12	San Juan la Laguna	2	Febrero	2023-07-02T00:00:00	2024-11-08T06:00:00	5	Humedad	73
35301	7	Sololá	717	San Juan la Laguna	12	San Juan la Laguna	2	Febrero	2023-07-02T00:00:00	2024-11-08T06:00:00	6	Velocidad del viento	4.8
35302	7	Sololá	717	San Juan la Laguna	12	San Juan la Laguna	2	Febrero	2023-07-02T00:00:00	2024-11-08T06:00:00	7	Dirección del viento	4.83
35303	7	Sololá	717	San Juan la Laguna	12	San Juan la Laguna	2	Febrero	2023-07-02T00:00:00	2024-11-08T06:00:00	1	Precipitación	0
35304	7	Sololá	717	San Juan la Laguna	12	San Juan la Laguna	2	Febrero	2023-07-02T00:00:00	2024-11-08T06:00:00	8	Radiación solar	0
35305	7	Sololá	717	San Juan la Laguna	12	San Juan la Laguna	2	Febrero	2023-07-02T00:00:00	2024-11-08T07:00:00	2	Temperatura media	10.2
35306	7	Sololá	717	San Juan la Laguna	12	San Juan la Laguna	2	Febrero	2023-07-02T00:00:00	2024-11-08T07:00:00	4	Temperatura máxima	10.4
35307	7	Sololá	717	San Juan la Laguna	12	San Juan la Laguna	2	Febrero	2023-07-02T00:00:00	2024-11-08T07:00:00	3	Temperatura mínima	9.7
35308	7	Sololá	717	San Juan la Laguna	12	San Juan la Laguna	2	Febrero	2023-07-02T00:00:00	2024-11-08T07:00:00	5	Humedad	76
35309	7	Sololá	717	San Juan la Laguna	12	San Juan la Laguna	2	Febrero	2023-07-02T00:00:00	2024-11-08T07:00:00	6	Velocidad del viento	3.2
35310	7	Sololá	717	San Juan la Laguna	12	San Juan la Laguna	2	Febrero	2023-07-02T00:00:00	2024-11-08T07:00:00	7	Dirección del viento	3.22
35311	7	Sololá	717	San Juan la Laguna	12	San Juan la Laguna	2	Febrero	2023-07-02T00:00:00	2024-11-08T07:00:00	1	Precipitación	0
35312	7	Sololá	717	San Juan la Laguna	12	San Juan la Laguna	2	Febrero	2023-07-02T00:00:00	2024-11-08T07:00:00	8	Radiación solar	5
35313	7	Sololá	717	San Juan la Laguna	12	San Juan la Laguna	2	Febrero	2023-07-02T00:00:00	2024-11-08T08:00:00	2	Temperatura media	13.4
35314	7	Sololá	717	San Juan la Laguna	12	San Juan la Laguna	2	Febrero	2023-07-02T00:00:00	2024-11-08T08:00:00	4	Temperatura máxima	13.4
35315	7	Sololá	717	San Juan la Laguna	12	San Juan la Laguna	2	Febrero	2023-07-02T00:00:00	2024-11-08T08:00:00	3	Temperatura mínima	10.2
35316	7	Sololá	717	San Juan la Laguna	12	San Juan la Laguna	2	Febrero	2023-07-02T00:00:00	2024-11-08T08:00:00	5	Humedad	66
35317	7	Sololá	717	San Juan la Laguna	12	San Juan la Laguna	2	Febrero	2023-07-02T00:00:00	2024-11-08T08:00:00	6	Velocidad del viento	4.8
35318	7	Sololá	717	San Juan la Laguna	12	San Juan la Laguna	2	Febrero	2023-07-02T00:00:00	2024-11-08T08:00:00	7	Dirección del viento	4.83
35319	7	Sololá	717	San Juan la Laguna	12	San Juan la Laguna	2	Febrero	2023-07-02T00:00:00	2024-11-08T08:00:00	1	Precipitación	0
35320	7	Sololá	717	San Juan la Laguna	12	San Juan la Laguna	2	Febrero	2023-07-02T00:00:00	2024-11-08T08:00:00	8	Radiación solar	140
35321	7	Sololá	717	San Juan la Laguna	12	San Juan la Laguna	2	Febrero	2023-07-02T00:00:00	2024-11-08T09:00:00	2	Temperatura media	18.3
35322	7	Sololá	717	San Juan la Laguna	12	San Juan la Laguna	2	Febrero	2023-07-02T00:00:00	2024-11-08T09:00:00	4	Temperatura máxima	18.3
35323	7	Sololá	717	San Juan la Laguna	12	San Juan la Laguna	2	Febrero	2023-07-02T00:00:00	2024-11-08T09:00:00	3	Temperatura mínima	13.4
35324	7	Sololá	717	San Juan la Laguna	12	San Juan la Laguna	2	Febrero	2023-07-02T00:00:00	2024-11-08T09:00:00	5	Humedad	54
35325	7	Sololá	717	San Juan la Laguna	12	San Juan la Laguna	2	Febrero	2023-07-02T00:00:00	2024-11-08T09:00:00	6	Velocidad del viento	0
35326	7	Sololá	717	San Juan la Laguna	12	San Juan la Laguna	2	Febrero	2023-07-02T00:00:00	2024-11-08T09:00:00	7	Dirección del viento	0
35327	7	Sololá	717	San Juan la Laguna	12	San Juan la Laguna	2	Febrero	2023-07-02T00:00:00	2024-11-08T09:00:00	1	Precipitación	0
35328	7	Sololá	717	San Juan la Laguna	12	San Juan la Laguna	2	Febrero	2023-07-02T00:00:00	2024-11-08T09:00:00	8	Radiación solar	351
35329	7	Sololá	717	San Juan la Laguna	12	San Juan la Laguna	2	Febrero	2023-07-02T00:00:00	2024-11-08T10:00:00	2	Temperatura media	20.7
35330	7	Sololá	717	San Juan la Laguna	12	San Juan la Laguna	2	Febrero	2023-07-02T00:00:00	2024-11-08T10:00:00	4	Temperatura máxima	20.8
35331	7	Sololá	717	San Juan la Laguna	12	San Juan la Laguna	2	Febrero	2023-07-02T00:00:00	2024-11-08T10:00:00	3	Temperatura mínima	18.4
35332	7	Sololá	717	San Juan la Laguna	12	San Juan la Laguna	2	Febrero	2023-07-02T00:00:00	2024-11-08T10:00:00	5	Humedad	44
35333	7	Sololá	717	San Juan la Laguna	12	San Juan la Laguna	2	Febrero	2023-07-02T00:00:00	2024-11-08T10:00:00	6	Velocidad del viento	1.6
35334	7	Sololá	717	San Juan la Laguna	12	San Juan la Laguna	2	Febrero	2023-07-02T00:00:00	2024-11-08T10:00:00	7	Dirección del viento	1.61
35335	7	Sololá	717	San Juan la Laguna	12	San Juan la Laguna	2	Febrero	2023-07-02T00:00:00	2024-11-08T10:00:00	1	Precipitación	0
35336	7	Sololá	717	San Juan la Laguna	12	San Juan la Laguna	2	Febrero	2023-07-02T00:00:00	2024-11-08T10:00:00	8	Radiación solar	569
35337	7	Sololá	717	San Juan la Laguna	12	San Juan la Laguna	2	Febrero	2023-07-02T00:00:00	2024-11-08T11:00:00	2	Temperatura media	22.4
35338	7	Sololá	717	San Juan la Laguna	12	San Juan la Laguna	2	Febrero	2023-07-02T00:00:00	2024-11-08T11:00:00	4	Temperatura máxima	22.4
35339	7	Sololá	717	San Juan la Laguna	12	San Juan la Laguna	2	Febrero	2023-07-02T00:00:00	2024-11-08T11:00:00	3	Temperatura mínima	20.6
35340	7	Sololá	717	San Juan la Laguna	12	San Juan la Laguna	2	Febrero	2023-07-02T00:00:00	2024-11-08T11:00:00	5	Humedad	43
35341	7	Sololá	717	San Juan la Laguna	12	San Juan la Laguna	2	Febrero	2023-07-02T00:00:00	2024-11-08T11:00:00	6	Velocidad del viento	1.6
35342	7	Sololá	717	San Juan la Laguna	12	San Juan la Laguna	2	Febrero	2023-07-02T00:00:00	2024-11-08T11:00:00	7	Dirección del viento	1.61
35343	7	Sololá	717	San Juan la Laguna	12	San Juan la Laguna	2	Febrero	2023-07-02T00:00:00	2024-11-08T11:00:00	1	Precipitación	0
35344	7	Sololá	717	San Juan la Laguna	12	San Juan la Laguna	2	Febrero	2023-07-02T00:00:00	2024-11-08T11:00:00	8	Radiación solar	726
35345	7	Sololá	717	San Juan la Laguna	12	San Juan la Laguna	2	Febrero	2023-07-02T00:00:00	2024-11-08T12:00:00	2	Temperatura media	23.6
35346	7	Sololá	717	San Juan la Laguna	12	San Juan la Laguna	2	Febrero	2023-07-02T00:00:00	2024-11-08T12:00:00	4	Temperatura máxima	24.1
35347	7	Sololá	717	San Juan la Laguna	12	San Juan la Laguna	2	Febrero	2023-07-02T00:00:00	2024-11-08T12:00:00	3	Temperatura mínima	22.3
35348	7	Sololá	717	San Juan la Laguna	12	San Juan la Laguna	2	Febrero	2023-07-02T00:00:00	2024-11-08T12:00:00	5	Humedad	33
35349	7	Sololá	717	San Juan la Laguna	12	San Juan la Laguna	2	Febrero	2023-07-02T00:00:00	2024-11-08T12:00:00	6	Velocidad del viento	1.6
35350	7	Sololá	717	San Juan la Laguna	12	San Juan la Laguna	2	Febrero	2023-07-02T00:00:00	2024-11-08T12:00:00	7	Dirección del viento	1.61
35351	7	Sololá	717	San Juan la Laguna	12	San Juan la Laguna	2	Febrero	2023-07-02T00:00:00	2024-11-08T12:00:00	1	Precipitación	0
35352	7	Sololá	717	San Juan la Laguna	12	San Juan la Laguna	2	Febrero	2023-07-02T00:00:00	2024-11-08T12:00:00	8	Radiación solar	715
35353	7	Sololá	717	San Juan la Laguna	12	San Juan la Laguna	2	Febrero	2023-07-02T00:00:00	2024-11-08T13:00:00	2	Temperatura media	24.7
35354	7	Sololá	717	San Juan la Laguna	12	San Juan la Laguna	2	Febrero	2023-07-02T00:00:00	2024-11-08T13:00:00	4	Temperatura máxima	24.9
35355	7	Sololá	717	San Juan la Laguna	12	San Juan la Laguna	2	Febrero	2023-07-02T00:00:00	2024-11-08T13:00:00	3	Temperatura mínima	23.6
35356	7	Sololá	717	San Juan la Laguna	12	San Juan la Laguna	2	Febrero	2023-07-02T00:00:00	2024-11-08T13:00:00	5	Humedad	35
35357	7	Sololá	717	San Juan la Laguna	12	San Juan la Laguna	2	Febrero	2023-07-02T00:00:00	2024-11-08T13:00:00	6	Velocidad del viento	1.6
35358	7	Sololá	717	San Juan la Laguna	12	San Juan la Laguna	2	Febrero	2023-07-02T00:00:00	2024-11-08T13:00:00	7	Dirección del viento	1.61
35359	7	Sololá	717	San Juan la Laguna	12	San Juan la Laguna	2	Febrero	2023-07-02T00:00:00	2024-11-08T13:00:00	1	Precipitación	0
35360	7	Sololá	717	San Juan la Laguna	12	San Juan la Laguna	2	Febrero	2023-07-02T00:00:00	2024-11-08T13:00:00	8	Radiación solar	858
35361	7	Sololá	717	San Juan la Laguna	12	San Juan la Laguna	2	Febrero	2023-07-02T00:00:00	2024-11-08T14:00:00	2	Temperatura media	22.9
35362	7	Sololá	717	San Juan la Laguna	12	San Juan la Laguna	2	Febrero	2023-07-02T00:00:00	2024-11-08T14:00:00	4	Temperatura máxima	24.9
35363	7	Sololá	717	San Juan la Laguna	12	San Juan la Laguna	2	Febrero	2023-07-02T00:00:00	2024-11-08T14:00:00	3	Temperatura mínima	22.9
35364	7	Sololá	717	San Juan la Laguna	12	San Juan la Laguna	2	Febrero	2023-07-02T00:00:00	2024-11-08T14:00:00	5	Humedad	53
35365	7	Sololá	717	San Juan la Laguna	12	San Juan la Laguna	2	Febrero	2023-07-02T00:00:00	2024-11-08T14:00:00	6	Velocidad del viento	11.3
35366	7	Sololá	717	San Juan la Laguna	12	San Juan la Laguna	2	Febrero	2023-07-02T00:00:00	2024-11-08T14:00:00	7	Dirección del viento	11.27
35367	7	Sololá	717	San Juan la Laguna	12	San Juan la Laguna	2	Febrero	2023-07-02T00:00:00	2024-11-08T14:00:00	1	Precipitación	0
35368	7	Sololá	717	San Juan la Laguna	12	San Juan la Laguna	2	Febrero	2023-07-02T00:00:00	2024-11-08T14:00:00	8	Radiación solar	795
35369	7	Sololá	717	San Juan la Laguna	12	San Juan la Laguna	2	Febrero	2023-07-02T00:00:00	2024-11-08T15:00:00	2	Temperatura media	22.4
35370	7	Sololá	717	San Juan la Laguna	12	San Juan la Laguna	2	Febrero	2023-07-02T00:00:00	2024-11-08T15:00:00	4	Temperatura máxima	23
35371	7	Sololá	717	San Juan la Laguna	12	San Juan la Laguna	2	Febrero	2023-07-02T00:00:00	2024-11-08T15:00:00	3	Temperatura mínima	22.1
35372	7	Sololá	717	San Juan la Laguna	12	San Juan la Laguna	2	Febrero	2023-07-02T00:00:00	2024-11-08T15:00:00	5	Humedad	56
35373	7	Sololá	717	San Juan la Laguna	12	San Juan la Laguna	2	Febrero	2023-07-02T00:00:00	2024-11-08T15:00:00	6	Velocidad del viento	14.5
35374	7	Sololá	717	San Juan la Laguna	12	San Juan la Laguna	2	Febrero	2023-07-02T00:00:00	2024-11-08T15:00:00	7	Dirección del viento	14.48
35375	7	Sololá	717	San Juan la Laguna	12	San Juan la Laguna	2	Febrero	2023-07-02T00:00:00	2024-11-08T15:00:00	1	Precipitación	0
35376	7	Sololá	717	San Juan la Laguna	12	San Juan la Laguna	2	Febrero	2023-07-02T00:00:00	2024-11-08T15:00:00	8	Radiación solar	673
35377	7	Sololá	717	San Juan la Laguna	12	San Juan la Laguna	2	Febrero	2023-07-02T00:00:00	2024-11-08T16:00:00	2	Temperatura media	22.1
35378	7	Sololá	717	San Juan la Laguna	12	San Juan la Laguna	2	Febrero	2023-07-02T00:00:00	2024-11-08T16:00:00	4	Temperatura máxima	22.4
35379	7	Sololá	717	San Juan la Laguna	12	San Juan la Laguna	2	Febrero	2023-07-02T00:00:00	2024-11-08T16:00:00	3	Temperatura mínima	21.9
35380	7	Sololá	717	San Juan la Laguna	12	San Juan la Laguna	2	Febrero	2023-07-02T00:00:00	2024-11-08T16:00:00	5	Humedad	55
35381	7	Sololá	717	San Juan la Laguna	12	San Juan la Laguna	2	Febrero	2023-07-02T00:00:00	2024-11-08T16:00:00	6	Velocidad del viento	12.9
35382	7	Sololá	717	San Juan la Laguna	12	San Juan la Laguna	2	Febrero	2023-07-02T00:00:00	2024-11-08T16:00:00	7	Dirección del viento	12.87
35383	7	Sololá	717	San Juan la Laguna	12	San Juan la Laguna	2	Febrero	2023-07-02T00:00:00	2024-11-08T16:00:00	1	Precipitación	0
35384	7	Sololá	717	San Juan la Laguna	12	San Juan la Laguna	2	Febrero	2023-07-02T00:00:00	2024-11-08T16:00:00	8	Radiación solar	494
35385	7	Sololá	717	San Juan la Laguna	12	San Juan la Laguna	2	Febrero	2023-07-02T00:00:00	2024-11-08T17:00:00	2	Temperatura media	20.3
35386	7	Sololá	717	San Juan la Laguna	12	San Juan la Laguna	2	Febrero	2023-07-02T00:00:00	2024-11-08T17:00:00	4	Temperatura máxima	22
35387	7	Sololá	717	San Juan la Laguna	12	San Juan la Laguna	2	Febrero	2023-07-02T00:00:00	2024-11-08T17:00:00	3	Temperatura mínima	20.3
35388	7	Sololá	717	San Juan la Laguna	12	San Juan la Laguna	2	Febrero	2023-07-02T00:00:00	2024-11-08T17:00:00	5	Humedad	68
35389	7	Sololá	717	San Juan la Laguna	12	San Juan la Laguna	2	Febrero	2023-07-02T00:00:00	2024-11-08T17:00:00	6	Velocidad del viento	11.3
35390	7	Sololá	717	San Juan la Laguna	12	San Juan la Laguna	2	Febrero	2023-07-02T00:00:00	2024-11-08T17:00:00	7	Dirección del viento	11.27
35391	7	Sololá	717	San Juan la Laguna	12	San Juan la Laguna	2	Febrero	2023-07-02T00:00:00	2024-11-08T17:00:00	1	Precipitación	0
35392	7	Sololá	717	San Juan la Laguna	12	San Juan la Laguna	2	Febrero	2023-07-02T00:00:00	2024-11-08T17:00:00	8	Radiación solar	255
35393	7	Sololá	717	San Juan la Laguna	12	San Juan la Laguna	2	Febrero	2023-07-02T00:00:00	2024-11-08T18:00:00	2	Temperatura media	18.2
35394	7	Sololá	717	San Juan la Laguna	12	San Juan la Laguna	2	Febrero	2023-07-02T00:00:00	2024-11-08T18:00:00	4	Temperatura máxima	20.3
35395	7	Sololá	717	San Juan la Laguna	12	San Juan la Laguna	2	Febrero	2023-07-02T00:00:00	2024-11-08T18:00:00	3	Temperatura mínima	18.2
35396	7	Sololá	717	San Juan la Laguna	12	San Juan la Laguna	2	Febrero	2023-07-02T00:00:00	2024-11-08T18:00:00	5	Humedad	78
35397	7	Sololá	717	San Juan la Laguna	12	San Juan la Laguna	2	Febrero	2023-07-02T00:00:00	2024-11-08T18:00:00	6	Velocidad del viento	8
35398	7	Sololá	717	San Juan la Laguna	12	San Juan la Laguna	2	Febrero	2023-07-02T00:00:00	2024-11-08T18:00:00	7	Dirección del viento	8.05
35399	7	Sololá	717	San Juan la Laguna	12	San Juan la Laguna	2	Febrero	2023-07-02T00:00:00	2024-11-08T18:00:00	1	Precipitación	0
35400	7	Sololá	717	San Juan la Laguna	12	San Juan la Laguna	2	Febrero	2023-07-02T00:00:00	2024-11-08T18:00:00	8	Radiación solar	24
35401	7	Sololá	717	San Juan la Laguna	12	San Juan la Laguna	2	Febrero	2023-07-02T00:00:00	2024-11-08T19:00:00	2	Temperatura media	17
35402	7	Sololá	717	San Juan la Laguna	12	San Juan la Laguna	2	Febrero	2023-07-02T00:00:00	2024-11-08T19:00:00	4	Temperatura máxima	18.3
35403	7	Sololá	717	San Juan la Laguna	12	San Juan la Laguna	2	Febrero	2023-07-02T00:00:00	2024-11-08T19:00:00	3	Temperatura mínima	17
35404	7	Sololá	717	San Juan la Laguna	12	San Juan la Laguna	2	Febrero	2023-07-02T00:00:00	2024-11-08T19:00:00	5	Humedad	78
35405	7	Sololá	717	San Juan la Laguna	12	San Juan la Laguna	2	Febrero	2023-07-02T00:00:00	2024-11-08T19:00:00	6	Velocidad del viento	4.8
35406	7	Sololá	717	San Juan la Laguna	12	San Juan la Laguna	2	Febrero	2023-07-02T00:00:00	2024-11-08T19:00:00	7	Dirección del viento	4.83
35407	7	Sololá	717	San Juan la Laguna	12	San Juan la Laguna	2	Febrero	2023-07-02T00:00:00	2024-11-08T19:00:00	1	Precipitación	0
35408	7	Sololá	717	San Juan la Laguna	12	San Juan la Laguna	2	Febrero	2023-07-02T00:00:00	2024-11-08T19:00:00	8	Radiación solar	0
35409	7	Sololá	717	San Juan la Laguna	12	San Juan la Laguna	2	Febrero	2023-07-02T00:00:00	2024-11-08T20:00:00	2	Temperatura media	16
35410	7	Sololá	717	San Juan la Laguna	12	San Juan la Laguna	2	Febrero	2023-07-02T00:00:00	2024-11-08T20:00:00	4	Temperatura máxima	17
35411	7	Sololá	717	San Juan la Laguna	12	San Juan la Laguna	2	Febrero	2023-07-02T00:00:00	2024-11-08T20:00:00	3	Temperatura mínima	16
35412	7	Sololá	717	San Juan la Laguna	12	San Juan la Laguna	2	Febrero	2023-07-02T00:00:00	2024-11-08T20:00:00	5	Humedad	78
35413	7	Sololá	717	San Juan la Laguna	12	San Juan la Laguna	2	Febrero	2023-07-02T00:00:00	2024-11-08T20:00:00	6	Velocidad del viento	3.2
35414	7	Sololá	717	San Juan la Laguna	12	San Juan la Laguna	2	Febrero	2023-07-02T00:00:00	2024-11-08T20:00:00	7	Dirección del viento	3.22
35415	7	Sololá	717	San Juan la Laguna	12	San Juan la Laguna	2	Febrero	2023-07-02T00:00:00	2024-11-08T20:00:00	1	Precipitación	0
35416	7	Sololá	717	San Juan la Laguna	12	San Juan la Laguna	2	Febrero	2023-07-02T00:00:00	2024-11-08T20:00:00	8	Radiación solar	0
35417	7	Sololá	717	San Juan la Laguna	12	San Juan la Laguna	2	Febrero	2023-07-02T00:00:00	2024-11-08T21:00:00	2	Temperatura media	15.3
35418	7	Sololá	717	San Juan la Laguna	12	San Juan la Laguna	2	Febrero	2023-07-02T00:00:00	2024-11-08T21:00:00	4	Temperatura máxima	16
35419	7	Sololá	717	San Juan la Laguna	12	San Juan la Laguna	2	Febrero	2023-07-02T00:00:00	2024-11-08T21:00:00	3	Temperatura mínima	15.3
35420	7	Sololá	717	San Juan la Laguna	12	San Juan la Laguna	2	Febrero	2023-07-02T00:00:00	2024-11-08T21:00:00	5	Humedad	80
35421	7	Sololá	717	San Juan la Laguna	12	San Juan la Laguna	2	Febrero	2023-07-02T00:00:00	2024-11-08T21:00:00	6	Velocidad del viento	3.2
35422	7	Sololá	717	San Juan la Laguna	12	San Juan la Laguna	2	Febrero	2023-07-02T00:00:00	2024-11-08T21:00:00	7	Dirección del viento	3.22
35423	7	Sololá	717	San Juan la Laguna	12	San Juan la Laguna	2	Febrero	2023-07-02T00:00:00	2024-11-08T21:00:00	1	Precipitación	0
35424	7	Sololá	717	San Juan la Laguna	12	San Juan la Laguna	2	Febrero	2023-07-02T00:00:00	2024-11-08T21:00:00	8	Radiación solar	0
35425	7	Sololá	717	San Juan la Laguna	12	San Juan la Laguna	2	Febrero	2023-07-02T00:00:00	2024-11-08T22:00:00	2	Temperatura media	14.6
35426	7	Sololá	717	San Juan la Laguna	12	San Juan la Laguna	2	Febrero	2023-07-02T00:00:00	2024-11-08T22:00:00	4	Temperatura máxima	15.3
35427	7	Sololá	717	San Juan la Laguna	12	San Juan la Laguna	2	Febrero	2023-07-02T00:00:00	2024-11-08T22:00:00	3	Temperatura mínima	14.6
35428	7	Sololá	717	San Juan la Laguna	12	San Juan la Laguna	2	Febrero	2023-07-02T00:00:00	2024-11-08T22:00:00	5	Humedad	83
35429	7	Sololá	717	San Juan la Laguna	12	San Juan la Laguna	2	Febrero	2023-07-02T00:00:00	2024-11-08T22:00:00	6	Velocidad del viento	4.8
35430	7	Sololá	717	San Juan la Laguna	12	San Juan la Laguna	2	Febrero	2023-07-02T00:00:00	2024-11-08T22:00:00	7	Dirección del viento	4.83
35431	7	Sololá	717	San Juan la Laguna	12	San Juan la Laguna	2	Febrero	2023-07-02T00:00:00	2024-11-08T22:00:00	1	Precipitación	0
35432	7	Sololá	717	San Juan la Laguna	12	San Juan la Laguna	2	Febrero	2023-07-02T00:00:00	2024-11-08T22:00:00	8	Radiación solar	0
35433	7	Sololá	717	San Juan la Laguna	12	San Juan la Laguna	2	Febrero	2023-07-02T00:00:00	2024-11-08T23:00:00	2	Temperatura media	14.3
35434	7	Sololá	717	San Juan la Laguna	12	San Juan la Laguna	2	Febrero	2023-07-02T00:00:00	2024-11-08T23:00:00	4	Temperatura máxima	14.7
35435	7	Sololá	717	San Juan la Laguna	12	San Juan la Laguna	2	Febrero	2023-07-02T00:00:00	2024-11-08T23:00:00	3	Temperatura mínima	14.2
35436	7	Sololá	717	San Juan la Laguna	12	San Juan la Laguna	2	Febrero	2023-07-02T00:00:00	2024-11-08T23:00:00	5	Humedad	82
35437	7	Sololá	717	San Juan la Laguna	12	San Juan la Laguna	2	Febrero	2023-07-02T00:00:00	2024-11-08T23:00:00	6	Velocidad del viento	1.6
35438	7	Sololá	717	San Juan la Laguna	12	San Juan la Laguna	2	Febrero	2023-07-02T00:00:00	2024-11-08T23:00:00	7	Dirección del viento	1.61
35439	7	Sololá	717	San Juan la Laguna	12	San Juan la Laguna	2	Febrero	2023-07-02T00:00:00	2024-11-08T23:00:00	1	Precipitación	0
35440	7	Sololá	717	San Juan la Laguna	12	San Juan la Laguna	2	Febrero	2023-07-02T00:00:00	2024-11-08T23:00:00	8	Radiación solar	0
35441	7	Sololá	717	San Juan la Laguna	12	San Juan la Laguna	2	Febrero	2023-08-02T00:00:00	2024-11-08T00:00:00	2	Temperatura media	13.6
35442	7	Sololá	717	San Juan la Laguna	12	San Juan la Laguna	2	Febrero	2023-08-02T00:00:00	2024-11-08T00:00:00	4	Temperatura máxima	14.4
35443	7	Sololá	717	San Juan la Laguna	12	San Juan la Laguna	2	Febrero	2023-08-02T00:00:00	2024-11-08T00:00:00	3	Temperatura mínima	13.6
35444	7	Sololá	717	San Juan la Laguna	12	San Juan la Laguna	2	Febrero	2023-08-02T00:00:00	2024-11-08T00:00:00	5	Humedad	82
35445	7	Sololá	717	San Juan la Laguna	12	San Juan la Laguna	2	Febrero	2023-08-02T00:00:00	2024-11-08T00:00:00	6	Velocidad del viento	1.6
35446	7	Sololá	717	San Juan la Laguna	12	San Juan la Laguna	2	Febrero	2023-08-02T00:00:00	2024-11-08T00:00:00	7	Dirección del viento	1.61
35447	7	Sololá	717	San Juan la Laguna	12	San Juan la Laguna	2	Febrero	2023-08-02T00:00:00	2024-11-08T00:00:00	1	Precipitación	0
35448	7	Sololá	717	San Juan la Laguna	12	San Juan la Laguna	2	Febrero	2023-08-02T00:00:00	2024-11-08T00:00:00	8	Radiación solar	0
35449	7	Sololá	717	San Juan la Laguna	12	San Juan la Laguna	2	Febrero	2023-08-02T00:00:00	2024-11-08T01:00:00	2	Temperatura media	13.3
35450	7	Sololá	717	San Juan la Laguna	12	San Juan la Laguna	2	Febrero	2023-08-02T00:00:00	2024-11-08T01:00:00	4	Temperatura máxima	13.7
35451	7	Sololá	717	San Juan la Laguna	12	San Juan la Laguna	2	Febrero	2023-08-02T00:00:00	2024-11-08T01:00:00	3	Temperatura mínima	13.3
35452	7	Sololá	717	San Juan la Laguna	12	San Juan la Laguna	2	Febrero	2023-08-02T00:00:00	2024-11-08T01:00:00	5	Humedad	82
35453	7	Sololá	717	San Juan la Laguna	12	San Juan la Laguna	2	Febrero	2023-08-02T00:00:00	2024-11-08T01:00:00	6	Velocidad del viento	3.2
35454	7	Sololá	717	San Juan la Laguna	12	San Juan la Laguna	2	Febrero	2023-08-02T00:00:00	2024-11-08T01:00:00	7	Dirección del viento	3.22
35455	7	Sololá	717	San Juan la Laguna	12	San Juan la Laguna	2	Febrero	2023-08-02T00:00:00	2024-11-08T01:00:00	1	Precipitación	0
35456	7	Sololá	717	San Juan la Laguna	12	San Juan la Laguna	2	Febrero	2023-08-02T00:00:00	2024-11-08T01:00:00	8	Radiación solar	0
35457	7	Sololá	717	San Juan la Laguna	12	San Juan la Laguna	2	Febrero	2023-08-02T00:00:00	2024-11-08T02:00:00	2	Temperatura media	13.2
35458	7	Sololá	717	San Juan la Laguna	12	San Juan la Laguna	2	Febrero	2023-08-02T00:00:00	2024-11-08T02:00:00	4	Temperatura máxima	13.4
35459	7	Sololá	717	San Juan la Laguna	12	San Juan la Laguna	2	Febrero	2023-08-02T00:00:00	2024-11-08T02:00:00	3	Temperatura mínima	13
35460	7	Sololá	717	San Juan la Laguna	12	San Juan la Laguna	2	Febrero	2023-08-02T00:00:00	2024-11-08T02:00:00	5	Humedad	81
35461	7	Sololá	717	San Juan la Laguna	12	San Juan la Laguna	2	Febrero	2023-08-02T00:00:00	2024-11-08T02:00:00	6	Velocidad del viento	4.8
35462	7	Sololá	717	San Juan la Laguna	12	San Juan la Laguna	2	Febrero	2023-08-02T00:00:00	2024-11-08T02:00:00	7	Dirección del viento	4.83
35463	7	Sololá	717	San Juan la Laguna	12	San Juan la Laguna	2	Febrero	2023-08-02T00:00:00	2024-11-08T02:00:00	1	Precipitación	0
35464	7	Sololá	717	San Juan la Laguna	12	San Juan la Laguna	2	Febrero	2023-08-02T00:00:00	2024-11-08T02:00:00	8	Radiación solar	0
35465	7	Sololá	717	San Juan la Laguna	12	San Juan la Laguna	2	Febrero	2023-08-02T00:00:00	2024-11-08T03:00:00	2	Temperatura media	12.9
35466	7	Sololá	717	San Juan la Laguna	12	San Juan la Laguna	2	Febrero	2023-08-02T00:00:00	2024-11-08T03:00:00	4	Temperatura máxima	13.3
35467	7	Sololá	717	San Juan la Laguna	12	San Juan la Laguna	2	Febrero	2023-08-02T00:00:00	2024-11-08T03:00:00	3	Temperatura mínima	12.9
35468	7	Sololá	717	San Juan la Laguna	12	San Juan la Laguna	2	Febrero	2023-08-02T00:00:00	2024-11-08T03:00:00	5	Humedad	81
35469	7	Sololá	717	San Juan la Laguna	12	San Juan la Laguna	2	Febrero	2023-08-02T00:00:00	2024-11-08T03:00:00	6	Velocidad del viento	4.8
35470	7	Sololá	717	San Juan la Laguna	12	San Juan la Laguna	2	Febrero	2023-08-02T00:00:00	2024-11-08T03:00:00	7	Dirección del viento	4.83
35471	7	Sololá	717	San Juan la Laguna	12	San Juan la Laguna	2	Febrero	2023-08-02T00:00:00	2024-11-08T03:00:00	1	Precipitación	0
35472	7	Sololá	717	San Juan la Laguna	12	San Juan la Laguna	2	Febrero	2023-08-02T00:00:00	2024-11-08T03:00:00	8	Radiación solar	0
35473	7	Sololá	717	San Juan la Laguna	12	San Juan la Laguna	2	Febrero	2023-08-02T00:00:00	2024-11-08T04:00:00	2	Temperatura media	12.9
35474	7	Sololá	717	San Juan la Laguna	12	San Juan la Laguna	2	Febrero	2023-08-02T00:00:00	2024-11-08T04:00:00	4	Temperatura máxima	12.9
35475	7	Sololá	717	San Juan la Laguna	12	San Juan la Laguna	2	Febrero	2023-08-02T00:00:00	2024-11-08T04:00:00	3	Temperatura mínima	12.6
35476	7	Sololá	717	San Juan la Laguna	12	San Juan la Laguna	2	Febrero	2023-08-02T00:00:00	2024-11-08T04:00:00	5	Humedad	81
35477	7	Sololá	717	San Juan la Laguna	12	San Juan la Laguna	2	Febrero	2023-08-02T00:00:00	2024-11-08T04:00:00	6	Velocidad del viento	4.8
35478	7	Sololá	717	San Juan la Laguna	12	San Juan la Laguna	2	Febrero	2023-08-02T00:00:00	2024-11-08T04:00:00	7	Dirección del viento	4.83
35479	7	Sololá	717	San Juan la Laguna	12	San Juan la Laguna	2	Febrero	2023-08-02T00:00:00	2024-11-08T04:00:00	1	Precipitación	0
35480	7	Sololá	717	San Juan la Laguna	12	San Juan la Laguna	2	Febrero	2023-08-02T00:00:00	2024-11-08T04:00:00	8	Radiación solar	0
35481	7	Sololá	717	San Juan la Laguna	12	San Juan la Laguna	2	Febrero	2023-08-02T00:00:00	2024-11-08T05:00:00	2	Temperatura media	12.1
35482	7	Sololá	717	San Juan la Laguna	12	San Juan la Laguna	2	Febrero	2023-08-02T00:00:00	2024-11-08T05:00:00	4	Temperatura máxima	12.9
35483	7	Sololá	717	San Juan la Laguna	12	San Juan la Laguna	2	Febrero	2023-08-02T00:00:00	2024-11-08T05:00:00	3	Temperatura mínima	11.9
35484	7	Sololá	717	San Juan la Laguna	12	San Juan la Laguna	2	Febrero	2023-08-02T00:00:00	2024-11-08T05:00:00	5	Humedad	84
35485	7	Sololá	717	San Juan la Laguna	12	San Juan la Laguna	2	Febrero	2023-08-02T00:00:00	2024-11-08T05:00:00	6	Velocidad del viento	3.2
35486	7	Sololá	717	San Juan la Laguna	12	San Juan la Laguna	2	Febrero	2023-08-02T00:00:00	2024-11-08T05:00:00	7	Dirección del viento	3.22
35487	7	Sololá	717	San Juan la Laguna	12	San Juan la Laguna	2	Febrero	2023-08-02T00:00:00	2024-11-08T05:00:00	1	Precipitación	0
35488	7	Sololá	717	San Juan la Laguna	12	San Juan la Laguna	2	Febrero	2023-08-02T00:00:00	2024-11-08T05:00:00	8	Radiación solar	0
35489	7	Sololá	717	San Juan la Laguna	12	San Juan la Laguna	2	Febrero	2023-08-02T00:00:00	2024-11-08T06:00:00	2	Temperatura media	11.7
35490	7	Sololá	717	San Juan la Laguna	12	San Juan la Laguna	2	Febrero	2023-08-02T00:00:00	2024-11-08T06:00:00	4	Temperatura máxima	12.5
35491	7	Sololá	717	San Juan la Laguna	12	San Juan la Laguna	2	Febrero	2023-08-02T00:00:00	2024-11-08T06:00:00	3	Temperatura mínima	11.7
35492	7	Sololá	717	San Juan la Laguna	12	San Juan la Laguna	2	Febrero	2023-08-02T00:00:00	2024-11-08T06:00:00	5	Humedad	84
35493	7	Sololá	717	San Juan la Laguna	12	San Juan la Laguna	2	Febrero	2023-08-02T00:00:00	2024-11-08T06:00:00	6	Velocidad del viento	3.2
35494	7	Sololá	717	San Juan la Laguna	12	San Juan la Laguna	2	Febrero	2023-08-02T00:00:00	2024-11-08T06:00:00	7	Dirección del viento	3.22
35495	7	Sololá	717	San Juan la Laguna	12	San Juan la Laguna	2	Febrero	2023-08-02T00:00:00	2024-11-08T06:00:00	1	Precipitación	0
35496	7	Sololá	717	San Juan la Laguna	12	San Juan la Laguna	2	Febrero	2023-08-02T00:00:00	2024-11-08T06:00:00	8	Radiación solar	0
35497	7	Sololá	717	San Juan la Laguna	12	San Juan la Laguna	2	Febrero	2023-08-02T00:00:00	2024-11-08T07:00:00	2	Temperatura media	12
35498	7	Sololá	717	San Juan la Laguna	12	San Juan la Laguna	2	Febrero	2023-08-02T00:00:00	2024-11-08T07:00:00	4	Temperatura máxima	12.3
35499	7	Sololá	717	San Juan la Laguna	12	San Juan la Laguna	2	Febrero	2023-08-02T00:00:00	2024-11-08T07:00:00	3	Temperatura mínima	11.7
35500	7	Sololá	717	San Juan la Laguna	12	San Juan la Laguna	2	Febrero	2023-08-02T00:00:00	2024-11-08T07:00:00	5	Humedad	82
35501	7	Sololá	717	San Juan la Laguna	12	San Juan la Laguna	2	Febrero	2023-08-02T00:00:00	2024-11-08T07:00:00	6	Velocidad del viento	3.2
35502	7	Sololá	717	San Juan la Laguna	12	San Juan la Laguna	2	Febrero	2023-08-02T00:00:00	2024-11-08T07:00:00	7	Dirección del viento	3.22
35503	7	Sololá	717	San Juan la Laguna	12	San Juan la Laguna	2	Febrero	2023-08-02T00:00:00	2024-11-08T07:00:00	1	Precipitación	0
35504	7	Sololá	717	San Juan la Laguna	12	San Juan la Laguna	2	Febrero	2023-08-02T00:00:00	2024-11-08T07:00:00	8	Radiación solar	6
35505	7	Sololá	717	San Juan la Laguna	12	San Juan la Laguna	2	Febrero	2023-08-02T00:00:00	2024-11-08T08:00:00	2	Temperatura media	15.6
35506	7	Sololá	717	San Juan la Laguna	12	San Juan la Laguna	2	Febrero	2023-08-02T00:00:00	2024-11-08T08:00:00	4	Temperatura máxima	15.6
35507	7	Sololá	717	San Juan la Laguna	12	San Juan la Laguna	2	Febrero	2023-08-02T00:00:00	2024-11-08T08:00:00	3	Temperatura mínima	12
35508	7	Sololá	717	San Juan la Laguna	12	San Juan la Laguna	2	Febrero	2023-08-02T00:00:00	2024-11-08T08:00:00	5	Humedad	73
35509	7	Sololá	717	San Juan la Laguna	12	San Juan la Laguna	2	Febrero	2023-08-02T00:00:00	2024-11-08T08:00:00	6	Velocidad del viento	3.2
35510	7	Sololá	717	San Juan la Laguna	12	San Juan la Laguna	2	Febrero	2023-08-02T00:00:00	2024-11-08T08:00:00	7	Dirección del viento	3.22
35511	7	Sololá	717	San Juan la Laguna	12	San Juan la Laguna	2	Febrero	2023-08-02T00:00:00	2024-11-08T08:00:00	1	Precipitación	0
35512	7	Sololá	717	San Juan la Laguna	12	San Juan la Laguna	2	Febrero	2023-08-02T00:00:00	2024-11-08T08:00:00	8	Radiación solar	137
35513	7	Sololá	717	San Juan la Laguna	12	San Juan la Laguna	2	Febrero	2023-08-02T00:00:00	2024-11-08T09:00:00	2	Temperatura media	19.1
35514	7	Sololá	717	San Juan la Laguna	12	San Juan la Laguna	2	Febrero	2023-08-02T00:00:00	2024-11-08T09:00:00	4	Temperatura máxima	19.1
35515	7	Sololá	717	San Juan la Laguna	12	San Juan la Laguna	2	Febrero	2023-08-02T00:00:00	2024-11-08T09:00:00	3	Temperatura mínima	15.6
35516	7	Sololá	717	San Juan la Laguna	12	San Juan la Laguna	2	Febrero	2023-08-02T00:00:00	2024-11-08T09:00:00	5	Humedad	67
35517	7	Sololá	717	San Juan la Laguna	12	San Juan la Laguna	2	Febrero	2023-08-02T00:00:00	2024-11-08T09:00:00	6	Velocidad del viento	1.6
35518	7	Sololá	717	San Juan la Laguna	12	San Juan la Laguna	2	Febrero	2023-08-02T00:00:00	2024-11-08T09:00:00	7	Dirección del viento	1.61
35519	7	Sololá	717	San Juan la Laguna	12	San Juan la Laguna	2	Febrero	2023-08-02T00:00:00	2024-11-08T09:00:00	1	Precipitación	0
35520	7	Sololá	717	San Juan la Laguna	12	San Juan la Laguna	2	Febrero	2023-08-02T00:00:00	2024-11-08T09:00:00	8	Radiación solar	349
35521	7	Sololá	717	San Juan la Laguna	12	San Juan la Laguna	2	Febrero	2023-08-02T00:00:00	2024-11-08T10:00:00	2	Temperatura media	20.2
35522	7	Sololá	717	San Juan la Laguna	12	San Juan la Laguna	2	Febrero	2023-08-02T00:00:00	2024-11-08T10:00:00	4	Temperatura máxima	20.2
35523	7	Sololá	717	San Juan la Laguna	12	San Juan la Laguna	2	Febrero	2023-08-02T00:00:00	2024-11-08T10:00:00	3	Temperatura mínima	19.1
35524	7	Sololá	717	San Juan la Laguna	12	San Juan la Laguna	2	Febrero	2023-08-02T00:00:00	2024-11-08T10:00:00	5	Humedad	59
35525	7	Sololá	717	San Juan la Laguna	12	San Juan la Laguna	2	Febrero	2023-08-02T00:00:00	2024-11-08T10:00:00	6	Velocidad del viento	1.6
35526	7	Sololá	717	San Juan la Laguna	12	San Juan la Laguna	2	Febrero	2023-08-02T00:00:00	2024-11-08T10:00:00	7	Dirección del viento	1.61
35527	7	Sololá	717	San Juan la Laguna	12	San Juan la Laguna	2	Febrero	2023-08-02T00:00:00	2024-11-08T10:00:00	1	Precipitación	0
35528	7	Sololá	717	San Juan la Laguna	12	San Juan la Laguna	2	Febrero	2023-08-02T00:00:00	2024-11-08T10:00:00	8	Radiación solar	563
35529	7	Sololá	717	San Juan la Laguna	12	San Juan la Laguna	2	Febrero	2023-08-02T00:00:00	2024-11-08T11:00:00	2	Temperatura media	21.1
35530	7	Sololá	717	San Juan la Laguna	12	San Juan la Laguna	2	Febrero	2023-08-02T00:00:00	2024-11-08T11:00:00	4	Temperatura máxima	21.1
35531	7	Sololá	717	San Juan la Laguna	12	San Juan la Laguna	2	Febrero	2023-08-02T00:00:00	2024-11-08T11:00:00	3	Temperatura mínima	20.1
35532	7	Sololá	717	San Juan la Laguna	12	San Juan la Laguna	2	Febrero	2023-08-02T00:00:00	2024-11-08T11:00:00	5	Humedad	58
35533	7	Sololá	717	San Juan la Laguna	12	San Juan la Laguna	2	Febrero	2023-08-02T00:00:00	2024-11-08T11:00:00	6	Velocidad del viento	4.8
35534	7	Sololá	717	San Juan la Laguna	12	San Juan la Laguna	2	Febrero	2023-08-02T00:00:00	2024-11-08T11:00:00	7	Dirección del viento	4.83
35535	7	Sololá	717	San Juan la Laguna	12	San Juan la Laguna	2	Febrero	2023-08-02T00:00:00	2024-11-08T11:00:00	1	Precipitación	0
35536	7	Sololá	717	San Juan la Laguna	12	San Juan la Laguna	2	Febrero	2023-08-02T00:00:00	2024-11-08T11:00:00	8	Radiación solar	715
35537	7	Sololá	717	San Juan la Laguna	12	San Juan la Laguna	2	Febrero	2023-08-02T00:00:00	2024-11-08T12:00:00	2	Temperatura media	21.9
35538	7	Sololá	717	San Juan la Laguna	12	San Juan la Laguna	2	Febrero	2023-08-02T00:00:00	2024-11-08T12:00:00	4	Temperatura máxima	21.9
35539	7	Sololá	717	San Juan la Laguna	12	San Juan la Laguna	2	Febrero	2023-08-02T00:00:00	2024-11-08T12:00:00	3	Temperatura mínima	21.1
35540	7	Sololá	717	San Juan la Laguna	12	San Juan la Laguna	2	Febrero	2023-08-02T00:00:00	2024-11-08T12:00:00	5	Humedad	60
35541	7	Sololá	717	San Juan la Laguna	12	San Juan la Laguna	2	Febrero	2023-08-02T00:00:00	2024-11-08T12:00:00	6	Velocidad del viento	4.8
35542	7	Sololá	717	San Juan la Laguna	12	San Juan la Laguna	2	Febrero	2023-08-02T00:00:00	2024-11-08T12:00:00	7	Dirección del viento	4.83
35543	7	Sololá	717	San Juan la Laguna	12	San Juan la Laguna	2	Febrero	2023-08-02T00:00:00	2024-11-08T12:00:00	1	Precipitación	0
35544	7	Sololá	717	San Juan la Laguna	12	San Juan la Laguna	2	Febrero	2023-08-02T00:00:00	2024-11-08T12:00:00	8	Radiación solar	706
35545	7	Sololá	717	San Juan la Laguna	12	San Juan la Laguna	2	Febrero	2023-08-02T00:00:00	2024-11-08T13:00:00	2	Temperatura media	23.3
35546	7	Sololá	717	San Juan la Laguna	12	San Juan la Laguna	2	Febrero	2023-08-02T00:00:00	2024-11-08T13:00:00	4	Temperatura máxima	23.3
35547	7	Sololá	717	San Juan la Laguna	12	San Juan la Laguna	2	Febrero	2023-08-02T00:00:00	2024-11-08T13:00:00	3	Temperatura mínima	21.8
35548	7	Sololá	717	San Juan la Laguna	12	San Juan la Laguna	2	Febrero	2023-08-02T00:00:00	2024-11-08T13:00:00	5	Humedad	56
35549	7	Sololá	717	San Juan la Laguna	12	San Juan la Laguna	2	Febrero	2023-08-02T00:00:00	2024-11-08T13:00:00	6	Velocidad del viento	4.8
35550	7	Sololá	717	San Juan la Laguna	12	San Juan la Laguna	2	Febrero	2023-08-02T00:00:00	2024-11-08T13:00:00	7	Dirección del viento	4.83
35551	7	Sololá	717	San Juan la Laguna	12	San Juan la Laguna	2	Febrero	2023-08-02T00:00:00	2024-11-08T13:00:00	1	Precipitación	0
35552	7	Sololá	717	San Juan la Laguna	12	San Juan la Laguna	2	Febrero	2023-08-02T00:00:00	2024-11-08T13:00:00	8	Radiación solar	830
35553	7	Sololá	717	San Juan la Laguna	12	San Juan la Laguna	2	Febrero	2023-08-02T00:00:00	2024-11-08T14:00:00	2	Temperatura media	23.7
35554	7	Sololá	717	San Juan la Laguna	12	San Juan la Laguna	2	Febrero	2023-08-02T00:00:00	2024-11-08T14:00:00	4	Temperatura máxima	23.8
35555	7	Sololá	717	San Juan la Laguna	12	San Juan la Laguna	2	Febrero	2023-08-02T00:00:00	2024-11-08T14:00:00	3	Temperatura mínima	23.1
35556	7	Sololá	717	San Juan la Laguna	12	San Juan la Laguna	2	Febrero	2023-08-02T00:00:00	2024-11-08T14:00:00	5	Humedad	58
35557	7	Sololá	717	San Juan la Laguna	12	San Juan la Laguna	2	Febrero	2023-08-02T00:00:00	2024-11-08T14:00:00	6	Velocidad del viento	8
35558	7	Sololá	717	San Juan la Laguna	12	San Juan la Laguna	2	Febrero	2023-08-02T00:00:00	2024-11-08T14:00:00	7	Dirección del viento	8.05
35559	7	Sololá	717	San Juan la Laguna	12	San Juan la Laguna	2	Febrero	2023-08-02T00:00:00	2024-11-08T14:00:00	1	Precipitación	0
35560	7	Sololá	717	San Juan la Laguna	12	San Juan la Laguna	2	Febrero	2023-08-02T00:00:00	2024-11-08T14:00:00	8	Radiación solar	769
35561	7	Sololá	717	San Juan la Laguna	12	San Juan la Laguna	2	Febrero	2023-08-02T00:00:00	2024-11-08T15:00:00	2	Temperatura media	21.9
35562	7	Sololá	717	San Juan la Laguna	12	San Juan la Laguna	2	Febrero	2023-08-02T00:00:00	2024-11-08T15:00:00	4	Temperatura máxima	23.7
35563	7	Sololá	717	San Juan la Laguna	12	San Juan la Laguna	2	Febrero	2023-08-02T00:00:00	2024-11-08T15:00:00	3	Temperatura mínima	21.9
35564	7	Sololá	717	San Juan la Laguna	12	San Juan la Laguna	2	Febrero	2023-08-02T00:00:00	2024-11-08T15:00:00	5	Humedad	67
35565	7	Sololá	717	San Juan la Laguna	12	San Juan la Laguna	2	Febrero	2023-08-02T00:00:00	2024-11-08T15:00:00	6	Velocidad del viento	9.7
35566	7	Sololá	717	San Juan la Laguna	12	San Juan la Laguna	2	Febrero	2023-08-02T00:00:00	2024-11-08T15:00:00	7	Dirección del viento	9.66
35567	7	Sololá	717	San Juan la Laguna	12	San Juan la Laguna	2	Febrero	2023-08-02T00:00:00	2024-11-08T15:00:00	1	Precipitación	0
35568	7	Sololá	717	San Juan la Laguna	12	San Juan la Laguna	2	Febrero	2023-08-02T00:00:00	2024-11-08T15:00:00	8	Radiación solar	656
35569	7	Sololá	717	San Juan la Laguna	12	San Juan la Laguna	2	Febrero	2023-08-02T00:00:00	2024-11-08T16:00:00	2	Temperatura media	22
35570	7	Sololá	717	San Juan la Laguna	12	San Juan la Laguna	2	Febrero	2023-08-02T00:00:00	2024-11-08T16:00:00	4	Temperatura máxima	22.2
35571	7	Sololá	717	San Juan la Laguna	12	San Juan la Laguna	2	Febrero	2023-08-02T00:00:00	2024-11-08T16:00:00	3	Temperatura mínima	21.6
35572	7	Sololá	717	San Juan la Laguna	12	San Juan la Laguna	2	Febrero	2023-08-02T00:00:00	2024-11-08T16:00:00	5	Humedad	66
35573	7	Sololá	717	San Juan la Laguna	12	San Juan la Laguna	2	Febrero	2023-08-02T00:00:00	2024-11-08T16:00:00	6	Velocidad del viento	11.3
35574	7	Sololá	717	San Juan la Laguna	12	San Juan la Laguna	2	Febrero	2023-08-02T00:00:00	2024-11-08T16:00:00	7	Dirección del viento	11.27
35575	7	Sololá	717	San Juan la Laguna	12	San Juan la Laguna	2	Febrero	2023-08-02T00:00:00	2024-11-08T16:00:00	1	Precipitación	0
35576	7	Sololá	717	San Juan la Laguna	12	San Juan la Laguna	2	Febrero	2023-08-02T00:00:00	2024-11-08T16:00:00	8	Radiación solar	482
35577	7	Sololá	717	San Juan la Laguna	12	San Juan la Laguna	2	Febrero	2023-08-02T00:00:00	2024-11-08T17:00:00	2	Temperatura media	21.6
35578	7	Sololá	717	San Juan la Laguna	12	San Juan la Laguna	2	Febrero	2023-08-02T00:00:00	2024-11-08T17:00:00	4	Temperatura máxima	22
35579	7	Sololá	717	San Juan la Laguna	12	San Juan la Laguna	2	Febrero	2023-08-02T00:00:00	2024-11-08T17:00:00	3	Temperatura mínima	21.4
35580	7	Sololá	717	San Juan la Laguna	12	San Juan la Laguna	2	Febrero	2023-08-02T00:00:00	2024-11-08T17:00:00	5	Humedad	68
35581	7	Sololá	717	San Juan la Laguna	12	San Juan la Laguna	2	Febrero	2023-08-02T00:00:00	2024-11-08T17:00:00	6	Velocidad del viento	6.4
35582	7	Sololá	717	San Juan la Laguna	12	San Juan la Laguna	2	Febrero	2023-08-02T00:00:00	2024-11-08T17:00:00	7	Dirección del viento	6.44
35583	7	Sololá	717	San Juan la Laguna	12	San Juan la Laguna	2	Febrero	2023-08-02T00:00:00	2024-11-08T17:00:00	1	Precipitación	0
35584	7	Sololá	717	San Juan la Laguna	12	San Juan la Laguna	2	Febrero	2023-08-02T00:00:00	2024-11-08T17:00:00	8	Radiación solar	260
35585	7	Sololá	717	San Juan la Laguna	12	San Juan la Laguna	2	Febrero	2023-08-02T00:00:00	2024-11-08T18:00:00	2	Temperatura media	20.4
35586	7	Sololá	717	San Juan la Laguna	12	San Juan la Laguna	2	Febrero	2023-08-02T00:00:00	2024-11-08T18:00:00	4	Temperatura máxima	21.6
35587	7	Sololá	717	San Juan la Laguna	12	San Juan la Laguna	2	Febrero	2023-08-02T00:00:00	2024-11-08T18:00:00	3	Temperatura mínima	20.4
35588	7	Sololá	717	San Juan la Laguna	12	San Juan la Laguna	2	Febrero	2023-08-02T00:00:00	2024-11-08T18:00:00	5	Humedad	73
35589	7	Sololá	717	San Juan la Laguna	12	San Juan la Laguna	2	Febrero	2023-08-02T00:00:00	2024-11-08T18:00:00	6	Velocidad del viento	0
35590	7	Sololá	717	San Juan la Laguna	12	San Juan la Laguna	2	Febrero	2023-08-02T00:00:00	2024-11-08T18:00:00	7	Dirección del viento	0
35591	7	Sololá	717	San Juan la Laguna	12	San Juan la Laguna	2	Febrero	2023-08-02T00:00:00	2024-11-08T18:00:00	1	Precipitación	0
35592	7	Sololá	717	San Juan la Laguna	12	San Juan la Laguna	2	Febrero	2023-08-02T00:00:00	2024-11-08T18:00:00	8	Radiación solar	50
35593	7	Sololá	717	San Juan la Laguna	12	San Juan la Laguna	2	Febrero	2023-08-02T00:00:00	2024-11-08T19:00:00	2	Temperatura media	18.6
35594	7	Sololá	717	San Juan la Laguna	12	San Juan la Laguna	2	Febrero	2023-08-02T00:00:00	2024-11-08T19:00:00	4	Temperatura máxima	20.4
35595	7	Sololá	717	San Juan la Laguna	12	San Juan la Laguna	2	Febrero	2023-08-02T00:00:00	2024-11-08T19:00:00	3	Temperatura mínima	18.6
35596	7	Sololá	717	San Juan la Laguna	12	San Juan la Laguna	2	Febrero	2023-08-02T00:00:00	2024-11-08T19:00:00	5	Humedad	80
35597	7	Sololá	717	San Juan la Laguna	12	San Juan la Laguna	2	Febrero	2023-08-02T00:00:00	2024-11-08T19:00:00	6	Velocidad del viento	0
35598	7	Sololá	717	San Juan la Laguna	12	San Juan la Laguna	2	Febrero	2023-08-02T00:00:00	2024-11-08T19:00:00	7	Dirección del viento	0
35599	7	Sololá	717	San Juan la Laguna	12	San Juan la Laguna	2	Febrero	2023-08-02T00:00:00	2024-11-08T19:00:00	1	Precipitación	0
35600	7	Sololá	717	San Juan la Laguna	12	San Juan la Laguna	2	Febrero	2023-08-02T00:00:00	2024-11-08T19:00:00	8	Radiación solar	0
35601	7	Sololá	717	San Juan la Laguna	12	San Juan la Laguna	2	Febrero	2023-08-02T00:00:00	2024-11-08T20:00:00	2	Temperatura media	17.1
35602	7	Sololá	717	San Juan la Laguna	12	San Juan la Laguna	2	Febrero	2023-08-02T00:00:00	2024-11-08T20:00:00	4	Temperatura máxima	18.7
35603	7	Sololá	717	San Juan la Laguna	12	San Juan la Laguna	2	Febrero	2023-08-02T00:00:00	2024-11-08T20:00:00	3	Temperatura mínima	17.1
35604	7	Sololá	717	San Juan la Laguna	12	San Juan la Laguna	2	Febrero	2023-08-02T00:00:00	2024-11-08T20:00:00	5	Humedad	83
35605	7	Sololá	717	San Juan la Laguna	12	San Juan la Laguna	2	Febrero	2023-08-02T00:00:00	2024-11-08T20:00:00	6	Velocidad del viento	0
35606	7	Sololá	717	San Juan la Laguna	12	San Juan la Laguna	2	Febrero	2023-08-02T00:00:00	2024-11-08T20:00:00	7	Dirección del viento	0
35607	7	Sololá	717	San Juan la Laguna	12	San Juan la Laguna	2	Febrero	2023-08-02T00:00:00	2024-11-08T20:00:00	1	Precipitación	0
35608	7	Sololá	717	San Juan la Laguna	12	San Juan la Laguna	2	Febrero	2023-08-02T00:00:00	2024-11-08T20:00:00	8	Radiación solar	0
35609	7	Sololá	717	San Juan la Laguna	12	San Juan la Laguna	2	Febrero	2023-08-02T00:00:00	2024-11-08T21:00:00	2	Temperatura media	16.4
35610	7	Sololá	717	San Juan la Laguna	12	San Juan la Laguna	2	Febrero	2023-08-02T00:00:00	2024-11-08T21:00:00	4	Temperatura máxima	17.1
35611	7	Sololá	717	San Juan la Laguna	12	San Juan la Laguna	2	Febrero	2023-08-02T00:00:00	2024-11-08T21:00:00	3	Temperatura mínima	16.3
35612	7	Sololá	717	San Juan la Laguna	12	San Juan la Laguna	2	Febrero	2023-08-02T00:00:00	2024-11-08T21:00:00	5	Humedad	87
35613	7	Sololá	717	San Juan la Laguna	12	San Juan la Laguna	2	Febrero	2023-08-02T00:00:00	2024-11-08T21:00:00	6	Velocidad del viento	0
35614	7	Sololá	717	San Juan la Laguna	12	San Juan la Laguna	2	Febrero	2023-08-02T00:00:00	2024-11-08T21:00:00	7	Dirección del viento	0
35615	7	Sololá	717	San Juan la Laguna	12	San Juan la Laguna	2	Febrero	2023-08-02T00:00:00	2024-11-08T21:00:00	1	Precipitación	0
35616	7	Sololá	717	San Juan la Laguna	12	San Juan la Laguna	2	Febrero	2023-08-02T00:00:00	2024-11-08T21:00:00	8	Radiación solar	0
35617	7	Sololá	717	San Juan la Laguna	12	San Juan la Laguna	2	Febrero	2023-08-02T00:00:00	2024-11-08T22:00:00	2	Temperatura media	16.4
35618	7	Sololá	717	San Juan la Laguna	12	San Juan la Laguna	2	Febrero	2023-08-02T00:00:00	2024-11-08T22:00:00	4	Temperatura máxima	16.8
35619	7	Sololá	717	San Juan la Laguna	12	San Juan la Laguna	2	Febrero	2023-08-02T00:00:00	2024-11-08T22:00:00	3	Temperatura mínima	16.4
35620	7	Sololá	717	San Juan la Laguna	12	San Juan la Laguna	2	Febrero	2023-08-02T00:00:00	2024-11-08T22:00:00	5	Humedad	84
35621	7	Sololá	717	San Juan la Laguna	12	San Juan la Laguna	2	Febrero	2023-08-02T00:00:00	2024-11-08T22:00:00	6	Velocidad del viento	1.6
35622	7	Sololá	717	San Juan la Laguna	12	San Juan la Laguna	2	Febrero	2023-08-02T00:00:00	2024-11-08T22:00:00	7	Dirección del viento	1.61
35623	7	Sololá	717	San Juan la Laguna	12	San Juan la Laguna	2	Febrero	2023-08-02T00:00:00	2024-11-08T22:00:00	1	Precipitación	0
35624	7	Sololá	717	San Juan la Laguna	12	San Juan la Laguna	2	Febrero	2023-08-02T00:00:00	2024-11-08T22:00:00	8	Radiación solar	0
35625	7	Sololá	717	San Juan la Laguna	12	San Juan la Laguna	2	Febrero	2023-08-02T00:00:00	2024-11-08T23:00:00	2	Temperatura media	16.2
35626	7	Sololá	717	San Juan la Laguna	12	San Juan la Laguna	2	Febrero	2023-08-02T00:00:00	2024-11-08T23:00:00	4	Temperatura máxima	16.4
35627	7	Sololá	717	San Juan la Laguna	12	San Juan la Laguna	2	Febrero	2023-08-02T00:00:00	2024-11-08T23:00:00	3	Temperatura mínima	16.2
35628	7	Sololá	717	San Juan la Laguna	12	San Juan la Laguna	2	Febrero	2023-08-02T00:00:00	2024-11-08T23:00:00	5	Humedad	83
35629	7	Sololá	717	San Juan la Laguna	12	San Juan la Laguna	2	Febrero	2023-08-02T00:00:00	2024-11-08T23:00:00	6	Velocidad del viento	1.6
35630	7	Sololá	717	San Juan la Laguna	12	San Juan la Laguna	2	Febrero	2023-08-02T00:00:00	2024-11-08T23:00:00	7	Dirección del viento	1.61
35631	7	Sololá	717	San Juan la Laguna	12	San Juan la Laguna	2	Febrero	2023-08-02T00:00:00	2024-11-08T23:00:00	1	Precipitación	0
35632	7	Sololá	717	San Juan la Laguna	12	San Juan la Laguna	2	Febrero	2023-08-02T00:00:00	2024-11-08T23:00:00	8	Radiación solar	0
35633	7	Sololá	717	San Juan la Laguna	12	San Juan la Laguna	2	Febrero	2023-09-02T00:00:00	2024-11-08T00:00:00	2	Temperatura media	15.9
35634	7	Sololá	717	San Juan la Laguna	12	San Juan la Laguna	2	Febrero	2023-09-02T00:00:00	2024-11-08T00:00:00	4	Temperatura máxima	16.4
35635	7	Sololá	717	San Juan la Laguna	12	San Juan la Laguna	2	Febrero	2023-09-02T00:00:00	2024-11-08T00:00:00	3	Temperatura mínima	15.9
35636	7	Sololá	717	San Juan la Laguna	12	San Juan la Laguna	2	Febrero	2023-09-02T00:00:00	2024-11-08T00:00:00	5	Humedad	85
35637	7	Sololá	717	San Juan la Laguna	12	San Juan la Laguna	2	Febrero	2023-09-02T00:00:00	2024-11-08T00:00:00	6	Velocidad del viento	1.6
35638	7	Sololá	717	San Juan la Laguna	12	San Juan la Laguna	2	Febrero	2023-09-02T00:00:00	2024-11-08T00:00:00	7	Dirección del viento	1.61
35639	7	Sololá	717	San Juan la Laguna	12	San Juan la Laguna	2	Febrero	2023-09-02T00:00:00	2024-11-08T00:00:00	1	Precipitación	0
35640	7	Sololá	717	San Juan la Laguna	12	San Juan la Laguna	2	Febrero	2023-09-02T00:00:00	2024-11-08T00:00:00	8	Radiación solar	0
35641	7	Sololá	717	San Juan la Laguna	12	San Juan la Laguna	2	Febrero	2023-09-02T00:00:00	2024-11-08T01:00:00	2	Temperatura media	14.8
35642	7	Sololá	717	San Juan la Laguna	12	San Juan la Laguna	2	Febrero	2023-09-02T00:00:00	2024-11-08T01:00:00	4	Temperatura máxima	15.9
35643	7	Sololá	717	San Juan la Laguna	12	San Juan la Laguna	2	Febrero	2023-09-02T00:00:00	2024-11-08T01:00:00	3	Temperatura mínima	14.8
35644	7	Sololá	717	San Juan la Laguna	12	San Juan la Laguna	2	Febrero	2023-09-02T00:00:00	2024-11-08T01:00:00	5	Humedad	84
35645	7	Sololá	717	San Juan la Laguna	12	San Juan la Laguna	2	Febrero	2023-09-02T00:00:00	2024-11-08T01:00:00	6	Velocidad del viento	1.6
35646	7	Sololá	717	San Juan la Laguna	12	San Juan la Laguna	2	Febrero	2023-09-02T00:00:00	2024-11-08T01:00:00	7	Dirección del viento	1.61
35647	7	Sololá	717	San Juan la Laguna	12	San Juan la Laguna	2	Febrero	2023-09-02T00:00:00	2024-11-08T01:00:00	1	Precipitación	0
35648	7	Sololá	717	San Juan la Laguna	12	San Juan la Laguna	2	Febrero	2023-09-02T00:00:00	2024-11-08T01:00:00	8	Radiación solar	0
35649	7	Sololá	717	San Juan la Laguna	12	San Juan la Laguna	2	Febrero	2023-09-02T00:00:00	2024-11-08T02:00:00	2	Temperatura media	14.6
35650	7	Sololá	717	San Juan la Laguna	12	San Juan la Laguna	2	Febrero	2023-09-02T00:00:00	2024-11-08T02:00:00	4	Temperatura máxima	15.1
35651	7	Sololá	717	San Juan la Laguna	12	San Juan la Laguna	2	Febrero	2023-09-02T00:00:00	2024-11-08T02:00:00	3	Temperatura mínima	14.6
35652	7	Sololá	717	San Juan la Laguna	12	San Juan la Laguna	2	Febrero	2023-09-02T00:00:00	2024-11-08T02:00:00	5	Humedad	81
35653	7	Sololá	717	San Juan la Laguna	12	San Juan la Laguna	2	Febrero	2023-09-02T00:00:00	2024-11-08T02:00:00	6	Velocidad del viento	4.8
35654	7	Sololá	717	San Juan la Laguna	12	San Juan la Laguna	2	Febrero	2023-09-02T00:00:00	2024-11-08T02:00:00	7	Dirección del viento	4.83
35655	7	Sololá	717	San Juan la Laguna	12	San Juan la Laguna	2	Febrero	2023-09-02T00:00:00	2024-11-08T02:00:00	1	Precipitación	0
35656	7	Sololá	717	San Juan la Laguna	12	San Juan la Laguna	2	Febrero	2023-09-02T00:00:00	2024-11-08T02:00:00	8	Radiación solar	0
35657	7	Sololá	717	San Juan la Laguna	12	San Juan la Laguna	2	Febrero	2023-09-02T00:00:00	2024-11-08T03:00:00	2	Temperatura media	14
35658	7	Sololá	717	San Juan la Laguna	12	San Juan la Laguna	2	Febrero	2023-09-02T00:00:00	2024-11-08T03:00:00	4	Temperatura máxima	14.6
35659	7	Sololá	717	San Juan la Laguna	12	San Juan la Laguna	2	Febrero	2023-09-02T00:00:00	2024-11-08T03:00:00	3	Temperatura mínima	13.9
35660	7	Sololá	717	San Juan la Laguna	12	San Juan la Laguna	2	Febrero	2023-09-02T00:00:00	2024-11-08T03:00:00	5	Humedad	81
35661	7	Sololá	717	San Juan la Laguna	12	San Juan la Laguna	2	Febrero	2023-09-02T00:00:00	2024-11-08T03:00:00	6	Velocidad del viento	4.8
35662	7	Sololá	717	San Juan la Laguna	12	San Juan la Laguna	2	Febrero	2023-09-02T00:00:00	2024-11-08T03:00:00	7	Dirección del viento	4.83
35663	7	Sololá	717	San Juan la Laguna	12	San Juan la Laguna	2	Febrero	2023-09-02T00:00:00	2024-11-08T03:00:00	1	Precipitación	0
35664	7	Sololá	717	San Juan la Laguna	12	San Juan la Laguna	2	Febrero	2023-09-02T00:00:00	2024-11-08T03:00:00	8	Radiación solar	0
35665	7	Sololá	717	San Juan la Laguna	12	San Juan la Laguna	2	Febrero	2023-09-02T00:00:00	2024-11-08T04:00:00	2	Temperatura media	13.7
35666	7	Sololá	717	San Juan la Laguna	12	San Juan la Laguna	2	Febrero	2023-09-02T00:00:00	2024-11-08T04:00:00	4	Temperatura máxima	14.2
35667	7	Sololá	717	San Juan la Laguna	12	San Juan la Laguna	2	Febrero	2023-09-02T00:00:00	2024-11-08T04:00:00	3	Temperatura mínima	13.7
35668	7	Sololá	717	San Juan la Laguna	12	San Juan la Laguna	2	Febrero	2023-09-02T00:00:00	2024-11-08T04:00:00	5	Humedad	81
35669	7	Sololá	717	San Juan la Laguna	12	San Juan la Laguna	2	Febrero	2023-09-02T00:00:00	2024-11-08T04:00:00	6	Velocidad del viento	4.8
35670	7	Sololá	717	San Juan la Laguna	12	San Juan la Laguna	2	Febrero	2023-09-02T00:00:00	2024-11-08T04:00:00	7	Dirección del viento	4.83
35671	7	Sololá	717	San Juan la Laguna	12	San Juan la Laguna	2	Febrero	2023-09-02T00:00:00	2024-11-08T04:00:00	1	Precipitación	0
35672	7	Sololá	717	San Juan la Laguna	12	San Juan la Laguna	2	Febrero	2023-09-02T00:00:00	2024-11-08T04:00:00	8	Radiación solar	0
35673	7	Sololá	717	San Juan la Laguna	12	San Juan la Laguna	2	Febrero	2023-09-02T00:00:00	2024-11-08T05:00:00	2	Temperatura media	13.4
35674	7	Sololá	717	San Juan la Laguna	12	San Juan la Laguna	2	Febrero	2023-09-02T00:00:00	2024-11-08T05:00:00	4	Temperatura máxima	13.8
35675	7	Sololá	717	San Juan la Laguna	12	San Juan la Laguna	2	Febrero	2023-09-02T00:00:00	2024-11-08T05:00:00	3	Temperatura mínima	13.3
35676	7	Sololá	717	San Juan la Laguna	12	San Juan la Laguna	2	Febrero	2023-09-02T00:00:00	2024-11-08T05:00:00	5	Humedad	83
35677	7	Sololá	717	San Juan la Laguna	12	San Juan la Laguna	2	Febrero	2023-09-02T00:00:00	2024-11-08T05:00:00	6	Velocidad del viento	4.8
35678	7	Sololá	717	San Juan la Laguna	12	San Juan la Laguna	2	Febrero	2023-09-02T00:00:00	2024-11-08T05:00:00	7	Dirección del viento	4.83
35679	7	Sololá	717	San Juan la Laguna	12	San Juan la Laguna	2	Febrero	2023-09-02T00:00:00	2024-11-08T05:00:00	1	Precipitación	0
35680	7	Sololá	717	San Juan la Laguna	12	San Juan la Laguna	2	Febrero	2023-09-02T00:00:00	2024-11-08T05:00:00	8	Radiación solar	0
35681	7	Sololá	717	San Juan la Laguna	12	San Juan la Laguna	2	Febrero	2023-09-02T00:00:00	2024-11-08T06:00:00	2	Temperatura media	12.8
35682	7	Sololá	717	San Juan la Laguna	12	San Juan la Laguna	2	Febrero	2023-09-02T00:00:00	2024-11-08T06:00:00	4	Temperatura máxima	13.5
35683	7	Sololá	717	San Juan la Laguna	12	San Juan la Laguna	2	Febrero	2023-09-02T00:00:00	2024-11-08T06:00:00	3	Temperatura mínima	12.7
35684	7	Sololá	717	San Juan la Laguna	12	San Juan la Laguna	2	Febrero	2023-09-02T00:00:00	2024-11-08T06:00:00	5	Humedad	82
35685	7	Sololá	717	San Juan la Laguna	12	San Juan la Laguna	2	Febrero	2023-09-02T00:00:00	2024-11-08T06:00:00	6	Velocidad del viento	3.2
35686	7	Sololá	717	San Juan la Laguna	12	San Juan la Laguna	2	Febrero	2023-09-02T00:00:00	2024-11-08T06:00:00	7	Dirección del viento	3.22
35687	7	Sololá	717	San Juan la Laguna	12	San Juan la Laguna	2	Febrero	2023-09-02T00:00:00	2024-11-08T06:00:00	1	Precipitación	0
35688	7	Sololá	717	San Juan la Laguna	12	San Juan la Laguna	2	Febrero	2023-09-02T00:00:00	2024-11-08T06:00:00	8	Radiación solar	0
35689	7	Sololá	717	San Juan la Laguna	12	San Juan la Laguna	2	Febrero	2023-09-02T00:00:00	2024-11-08T07:00:00	2	Temperatura media	13.1
35690	7	Sololá	717	San Juan la Laguna	12	San Juan la Laguna	2	Febrero	2023-09-02T00:00:00	2024-11-08T07:00:00	4	Temperatura máxima	13.1
35691	7	Sololá	717	San Juan la Laguna	12	San Juan la Laguna	2	Febrero	2023-09-02T00:00:00	2024-11-08T07:00:00	3	Temperatura mínima	12.4
35692	7	Sololá	717	San Juan la Laguna	12	San Juan la Laguna	2	Febrero	2023-09-02T00:00:00	2024-11-08T07:00:00	5	Humedad	82
35693	7	Sololá	717	San Juan la Laguna	12	San Juan la Laguna	2	Febrero	2023-09-02T00:00:00	2024-11-08T07:00:00	6	Velocidad del viento	4.8
35694	7	Sololá	717	San Juan la Laguna	12	San Juan la Laguna	2	Febrero	2023-09-02T00:00:00	2024-11-08T07:00:00	7	Dirección del viento	4.83
35695	7	Sololá	717	San Juan la Laguna	12	San Juan la Laguna	2	Febrero	2023-09-02T00:00:00	2024-11-08T07:00:00	1	Precipitación	0
35696	7	Sololá	717	San Juan la Laguna	12	San Juan la Laguna	2	Febrero	2023-09-02T00:00:00	2024-11-08T07:00:00	8	Radiación solar	7
35697	7	Sololá	717	San Juan la Laguna	12	San Juan la Laguna	2	Febrero	2023-09-02T00:00:00	2024-11-08T08:00:00	2	Temperatura media	15.9
35698	7	Sololá	717	San Juan la Laguna	12	San Juan la Laguna	2	Febrero	2023-09-02T00:00:00	2024-11-08T08:00:00	4	Temperatura máxima	15.9
35699	7	Sololá	717	San Juan la Laguna	12	San Juan la Laguna	2	Febrero	2023-09-02T00:00:00	2024-11-08T08:00:00	3	Temperatura mínima	13.1
35700	7	Sololá	717	San Juan la Laguna	12	San Juan la Laguna	2	Febrero	2023-09-02T00:00:00	2024-11-08T08:00:00	5	Humedad	76
35701	7	Sololá	717	San Juan la Laguna	12	San Juan la Laguna	2	Febrero	2023-09-02T00:00:00	2024-11-08T08:00:00	6	Velocidad del viento	3.2
35702	7	Sololá	717	San Juan la Laguna	12	San Juan la Laguna	2	Febrero	2023-09-02T00:00:00	2024-11-08T08:00:00	7	Dirección del viento	3.22
35703	7	Sololá	717	San Juan la Laguna	12	San Juan la Laguna	2	Febrero	2023-09-02T00:00:00	2024-11-08T08:00:00	1	Precipitación	0
35704	7	Sololá	717	San Juan la Laguna	12	San Juan la Laguna	2	Febrero	2023-09-02T00:00:00	2024-11-08T08:00:00	8	Radiación solar	136
35705	7	Sololá	717	San Juan la Laguna	12	San Juan la Laguna	2	Febrero	2023-09-02T00:00:00	2024-11-08T09:00:00	2	Temperatura media	18.8
35706	7	Sololá	717	San Juan la Laguna	12	San Juan la Laguna	2	Febrero	2023-09-02T00:00:00	2024-11-08T09:00:00	4	Temperatura máxima	19.1
35707	7	Sololá	717	San Juan la Laguna	12	San Juan la Laguna	2	Febrero	2023-09-02T00:00:00	2024-11-08T09:00:00	3	Temperatura mínima	15.9
35708	7	Sololá	717	San Juan la Laguna	12	San Juan la Laguna	2	Febrero	2023-09-02T00:00:00	2024-11-08T09:00:00	5	Humedad	73
35709	7	Sololá	717	San Juan la Laguna	12	San Juan la Laguna	2	Febrero	2023-09-02T00:00:00	2024-11-08T09:00:00	6	Velocidad del viento	1.6
35710	7	Sololá	717	San Juan la Laguna	12	San Juan la Laguna	2	Febrero	2023-09-02T00:00:00	2024-11-08T09:00:00	7	Dirección del viento	1.61
35711	7	Sololá	717	San Juan la Laguna	12	San Juan la Laguna	2	Febrero	2023-09-02T00:00:00	2024-11-08T09:00:00	1	Precipitación	0
35712	7	Sololá	717	San Juan la Laguna	12	San Juan la Laguna	2	Febrero	2023-09-02T00:00:00	2024-11-08T09:00:00	8	Radiación solar	345
35713	7	Sololá	717	San Juan la Laguna	12	San Juan la Laguna	2	Febrero	2023-09-02T00:00:00	2024-11-08T10:00:00	2	Temperatura media	20.2
35714	7	Sololá	717	San Juan la Laguna	12	San Juan la Laguna	2	Febrero	2023-09-02T00:00:00	2024-11-08T10:00:00	4	Temperatura máxima	20.2
35715	7	Sololá	717	San Juan la Laguna	12	San Juan la Laguna	2	Febrero	2023-09-02T00:00:00	2024-11-08T10:00:00	3	Temperatura mínima	18.5
35716	7	Sololá	717	San Juan la Laguna	12	San Juan la Laguna	2	Febrero	2023-09-02T00:00:00	2024-11-08T10:00:00	5	Humedad	70
35717	7	Sololá	717	San Juan la Laguna	12	San Juan la Laguna	2	Febrero	2023-09-02T00:00:00	2024-11-08T10:00:00	6	Velocidad del viento	3.2
35718	7	Sololá	717	San Juan la Laguna	12	San Juan la Laguna	2	Febrero	2023-09-02T00:00:00	2024-11-08T10:00:00	7	Dirección del viento	3.22
35719	7	Sololá	717	San Juan la Laguna	12	San Juan la Laguna	2	Febrero	2023-09-02T00:00:00	2024-11-08T10:00:00	1	Precipitación	0
35720	7	Sololá	717	San Juan la Laguna	12	San Juan la Laguna	2	Febrero	2023-09-02T00:00:00	2024-11-08T10:00:00	8	Radiación solar	557
35721	7	Sololá	717	San Juan la Laguna	12	San Juan la Laguna	2	Febrero	2023-09-02T00:00:00	2024-11-08T11:00:00	2	Temperatura media	22.6
35722	7	Sololá	717	San Juan la Laguna	12	San Juan la Laguna	2	Febrero	2023-09-02T00:00:00	2024-11-08T11:00:00	4	Temperatura máxima	22.6
35723	7	Sololá	717	San Juan la Laguna	12	San Juan la Laguna	2	Febrero	2023-09-02T00:00:00	2024-11-08T11:00:00	3	Temperatura mínima	20.1
35724	7	Sololá	717	San Juan la Laguna	12	San Juan la Laguna	2	Febrero	2023-09-02T00:00:00	2024-11-08T11:00:00	5	Humedad	54
35725	7	Sololá	717	San Juan la Laguna	12	San Juan la Laguna	2	Febrero	2023-09-02T00:00:00	2024-11-08T11:00:00	6	Velocidad del viento	1.6
35726	7	Sololá	717	San Juan la Laguna	12	San Juan la Laguna	2	Febrero	2023-09-02T00:00:00	2024-11-08T11:00:00	7	Dirección del viento	1.61
35727	7	Sololá	717	San Juan la Laguna	12	San Juan la Laguna	2	Febrero	2023-09-02T00:00:00	2024-11-08T11:00:00	1	Precipitación	0
35728	7	Sololá	717	San Juan la Laguna	12	San Juan la Laguna	2	Febrero	2023-09-02T00:00:00	2024-11-08T11:00:00	8	Radiación solar	713
35729	7	Sololá	717	San Juan la Laguna	12	San Juan la Laguna	2	Febrero	2023-09-02T00:00:00	2024-11-08T12:00:00	2	Temperatura media	23.8
35730	7	Sololá	717	San Juan la Laguna	12	San Juan la Laguna	2	Febrero	2023-09-02T00:00:00	2024-11-08T12:00:00	4	Temperatura máxima	23.9
35731	7	Sololá	717	San Juan la Laguna	12	San Juan la Laguna	2	Febrero	2023-09-02T00:00:00	2024-11-08T12:00:00	3	Temperatura mínima	22.3
35732	7	Sololá	717	San Juan la Laguna	12	San Juan la Laguna	2	Febrero	2023-09-02T00:00:00	2024-11-08T12:00:00	5	Humedad	40
35733	7	Sololá	717	San Juan la Laguna	12	San Juan la Laguna	2	Febrero	2023-09-02T00:00:00	2024-11-08T12:00:00	6	Velocidad del viento	1.6
35734	7	Sololá	717	San Juan la Laguna	12	San Juan la Laguna	2	Febrero	2023-09-02T00:00:00	2024-11-08T12:00:00	7	Dirección del viento	1.61
35735	7	Sololá	717	San Juan la Laguna	12	San Juan la Laguna	2	Febrero	2023-09-02T00:00:00	2024-11-08T12:00:00	1	Precipitación	0
35736	7	Sololá	717	San Juan la Laguna	12	San Juan la Laguna	2	Febrero	2023-09-02T00:00:00	2024-11-08T12:00:00	8	Radiación solar	706
35737	7	Sololá	717	San Juan la Laguna	12	San Juan la Laguna	2	Febrero	2023-09-02T00:00:00	2024-11-08T13:00:00	2	Temperatura media	24.2
35738	7	Sololá	717	San Juan la Laguna	12	San Juan la Laguna	2	Febrero	2023-09-02T00:00:00	2024-11-08T13:00:00	4	Temperatura máxima	24.9
35739	7	Sololá	717	San Juan la Laguna	12	San Juan la Laguna	2	Febrero	2023-09-02T00:00:00	2024-11-08T13:00:00	3	Temperatura mínima	23.7
35740	7	Sololá	717	San Juan la Laguna	12	San Juan la Laguna	2	Febrero	2023-09-02T00:00:00	2024-11-08T13:00:00	5	Humedad	55
35741	7	Sololá	717	San Juan la Laguna	12	San Juan la Laguna	2	Febrero	2023-09-02T00:00:00	2024-11-08T13:00:00	6	Velocidad del viento	4.8
35742	7	Sololá	717	San Juan la Laguna	12	San Juan la Laguna	2	Febrero	2023-09-02T00:00:00	2024-11-08T13:00:00	7	Dirección del viento	4.83
35743	7	Sololá	717	San Juan la Laguna	12	San Juan la Laguna	2	Febrero	2023-09-02T00:00:00	2024-11-08T13:00:00	1	Precipitación	0
35744	7	Sololá	717	San Juan la Laguna	12	San Juan la Laguna	2	Febrero	2023-09-02T00:00:00	2024-11-08T13:00:00	8	Radiación solar	827
35745	7	Sololá	717	San Juan la Laguna	12	San Juan la Laguna	2	Febrero	2023-09-02T00:00:00	2024-11-08T14:00:00	2	Temperatura media	23
35746	7	Sololá	717	San Juan la Laguna	12	San Juan la Laguna	2	Febrero	2023-09-02T00:00:00	2024-11-08T14:00:00	4	Temperatura máxima	24.2
35747	7	Sololá	717	San Juan la Laguna	12	San Juan la Laguna	2	Febrero	2023-09-02T00:00:00	2024-11-08T14:00:00	3	Temperatura mínima	22.7
35748	7	Sololá	717	San Juan la Laguna	12	San Juan la Laguna	2	Febrero	2023-09-02T00:00:00	2024-11-08T14:00:00	5	Humedad	64
35749	7	Sololá	717	San Juan la Laguna	12	San Juan la Laguna	2	Febrero	2023-09-02T00:00:00	2024-11-08T14:00:00	6	Velocidad del viento	11.3
35750	7	Sololá	717	San Juan la Laguna	12	San Juan la Laguna	2	Febrero	2023-09-02T00:00:00	2024-11-08T14:00:00	7	Dirección del viento	11.27
35751	7	Sololá	717	San Juan la Laguna	12	San Juan la Laguna	2	Febrero	2023-09-02T00:00:00	2024-11-08T14:00:00	1	Precipitación	0
35752	7	Sololá	717	San Juan la Laguna	12	San Juan la Laguna	2	Febrero	2023-09-02T00:00:00	2024-11-08T14:00:00	8	Radiación solar	784
35753	7	Sololá	717	San Juan la Laguna	12	San Juan la Laguna	2	Febrero	2023-09-02T00:00:00	2024-11-08T15:00:00	2	Temperatura media	22.4
35754	7	Sololá	717	San Juan la Laguna	12	San Juan la Laguna	2	Febrero	2023-09-02T00:00:00	2024-11-08T15:00:00	4	Temperatura máxima	23.2
35755	7	Sololá	717	San Juan la Laguna	12	San Juan la Laguna	2	Febrero	2023-09-02T00:00:00	2024-11-08T15:00:00	3	Temperatura mínima	22.3
35756	7	Sololá	717	San Juan la Laguna	12	San Juan la Laguna	2	Febrero	2023-09-02T00:00:00	2024-11-08T15:00:00	5	Humedad	66
35757	7	Sololá	717	San Juan la Laguna	12	San Juan la Laguna	2	Febrero	2023-09-02T00:00:00	2024-11-08T15:00:00	6	Velocidad del viento	8
35758	7	Sololá	717	San Juan la Laguna	12	San Juan la Laguna	2	Febrero	2023-09-02T00:00:00	2024-11-08T15:00:00	7	Dirección del viento	8.05
35759	7	Sololá	717	San Juan la Laguna	12	San Juan la Laguna	2	Febrero	2023-09-02T00:00:00	2024-11-08T15:00:00	1	Precipitación	0
35760	7	Sololá	717	San Juan la Laguna	12	San Juan la Laguna	2	Febrero	2023-09-02T00:00:00	2024-11-08T15:00:00	8	Radiación solar	693
35761	7	Sololá	717	San Juan la Laguna	12	San Juan la Laguna	2	Febrero	2023-09-02T00:00:00	2024-11-08T16:00:00	2	Temperatura media	22.7
35762	7	Sololá	717	San Juan la Laguna	12	San Juan la Laguna	2	Febrero	2023-09-02T00:00:00	2024-11-08T16:00:00	4	Temperatura máxima	22.8
35763	7	Sololá	717	San Juan la Laguna	12	San Juan la Laguna	2	Febrero	2023-09-02T00:00:00	2024-11-08T16:00:00	3	Temperatura mínima	22.1
35764	7	Sololá	717	San Juan la Laguna	12	San Juan la Laguna	2	Febrero	2023-09-02T00:00:00	2024-11-08T16:00:00	5	Humedad	67
35765	7	Sololá	717	San Juan la Laguna	12	San Juan la Laguna	2	Febrero	2023-09-02T00:00:00	2024-11-08T16:00:00	6	Velocidad del viento	8
35766	7	Sololá	717	San Juan la Laguna	12	San Juan la Laguna	2	Febrero	2023-09-02T00:00:00	2024-11-08T16:00:00	7	Dirección del viento	8.05
35767	7	Sololá	717	San Juan la Laguna	12	San Juan la Laguna	2	Febrero	2023-09-02T00:00:00	2024-11-08T16:00:00	1	Precipitación	0
35768	7	Sololá	717	San Juan la Laguna	12	San Juan la Laguna	2	Febrero	2023-09-02T00:00:00	2024-11-08T16:00:00	8	Radiación solar	482
35769	7	Sololá	717	San Juan la Laguna	12	San Juan la Laguna	2	Febrero	2023-09-02T00:00:00	2024-11-08T17:00:00	2	Temperatura media	21
35770	7	Sololá	717	San Juan la Laguna	12	San Juan la Laguna	2	Febrero	2023-09-02T00:00:00	2024-11-08T17:00:00	4	Temperatura máxima	22.8
35771	7	Sololá	717	San Juan la Laguna	12	San Juan la Laguna	2	Febrero	2023-09-02T00:00:00	2024-11-08T17:00:00	3	Temperatura mínima	21
35772	7	Sololá	717	San Juan la Laguna	12	San Juan la Laguna	2	Febrero	2023-09-02T00:00:00	2024-11-08T17:00:00	5	Humedad	73
35773	7	Sololá	717	San Juan la Laguna	12	San Juan la Laguna	2	Febrero	2023-09-02T00:00:00	2024-11-08T17:00:00	6	Velocidad del viento	4.8
35774	7	Sololá	717	San Juan la Laguna	12	San Juan la Laguna	2	Febrero	2023-09-02T00:00:00	2024-11-08T17:00:00	7	Dirección del viento	4.83
35775	7	Sololá	717	San Juan la Laguna	12	San Juan la Laguna	2	Febrero	2023-09-02T00:00:00	2024-11-08T17:00:00	1	Precipitación	0
35776	7	Sololá	717	San Juan la Laguna	12	San Juan la Laguna	2	Febrero	2023-09-02T00:00:00	2024-11-08T17:00:00	8	Radiación solar	254
35777	7	Sololá	717	San Juan la Laguna	12	San Juan la Laguna	2	Febrero	2023-09-02T00:00:00	2024-11-08T18:00:00	2	Temperatura media	19.9
35778	7	Sololá	717	San Juan la Laguna	12	San Juan la Laguna	2	Febrero	2023-09-02T00:00:00	2024-11-08T18:00:00	4	Temperatura máxima	21
35779	7	Sololá	717	San Juan la Laguna	12	San Juan la Laguna	2	Febrero	2023-09-02T00:00:00	2024-11-08T18:00:00	3	Temperatura mínima	19.9
35780	7	Sololá	717	San Juan la Laguna	12	San Juan la Laguna	2	Febrero	2023-09-02T00:00:00	2024-11-08T18:00:00	5	Humedad	77
35781	7	Sololá	717	San Juan la Laguna	12	San Juan la Laguna	2	Febrero	2023-09-02T00:00:00	2024-11-08T18:00:00	6	Velocidad del viento	0
35782	7	Sololá	717	San Juan la Laguna	12	San Juan la Laguna	2	Febrero	2023-09-02T00:00:00	2024-11-08T18:00:00	7	Dirección del viento	0
35783	7	Sololá	717	San Juan la Laguna	12	San Juan la Laguna	2	Febrero	2023-09-02T00:00:00	2024-11-08T18:00:00	1	Precipitación	0
35784	7	Sololá	717	San Juan la Laguna	12	San Juan la Laguna	2	Febrero	2023-09-02T00:00:00	2024-11-08T18:00:00	8	Radiación solar	38
35785	7	Sololá	717	San Juan la Laguna	12	San Juan la Laguna	2	Febrero	2023-09-02T00:00:00	2024-11-08T19:00:00	2	Temperatura media	17.6
35786	7	Sololá	717	San Juan la Laguna	12	San Juan la Laguna	2	Febrero	2023-09-02T00:00:00	2024-11-08T19:00:00	4	Temperatura máxima	19.9
35787	7	Sololá	717	San Juan la Laguna	12	San Juan la Laguna	2	Febrero	2023-09-02T00:00:00	2024-11-08T19:00:00	3	Temperatura mínima	17.6
35788	7	Sololá	717	San Juan la Laguna	12	San Juan la Laguna	2	Febrero	2023-09-02T00:00:00	2024-11-08T19:00:00	5	Humedad	85
35789	7	Sololá	717	San Juan la Laguna	12	San Juan la Laguna	2	Febrero	2023-09-02T00:00:00	2024-11-08T19:00:00	6	Velocidad del viento	0
35790	7	Sololá	717	San Juan la Laguna	12	San Juan la Laguna	2	Febrero	2023-09-02T00:00:00	2024-11-08T19:00:00	7	Dirección del viento	0
35791	7	Sololá	717	San Juan la Laguna	12	San Juan la Laguna	2	Febrero	2023-09-02T00:00:00	2024-11-08T19:00:00	1	Precipitación	0
35792	7	Sololá	717	San Juan la Laguna	12	San Juan la Laguna	2	Febrero	2023-09-02T00:00:00	2024-11-08T19:00:00	8	Radiación solar	0
35793	7	Sololá	717	San Juan la Laguna	12	San Juan la Laguna	2	Febrero	2023-09-02T00:00:00	2024-11-08T20:00:00	2	Temperatura media	19.3
35794	7	Sololá	717	San Juan la Laguna	12	San Juan la Laguna	2	Febrero	2023-09-02T00:00:00	2024-11-08T20:00:00	4	Temperatura máxima	19.3
35795	7	Sololá	717	San Juan la Laguna	12	San Juan la Laguna	2	Febrero	2023-09-02T00:00:00	2024-11-08T20:00:00	3	Temperatura mínima	17.1
35796	7	Sololá	717	San Juan la Laguna	12	San Juan la Laguna	2	Febrero	2023-09-02T00:00:00	2024-11-08T20:00:00	5	Humedad	64
35797	7	Sololá	717	San Juan la Laguna	12	San Juan la Laguna	2	Febrero	2023-09-02T00:00:00	2024-11-08T20:00:00	6	Velocidad del viento	1.6
35798	7	Sololá	717	San Juan la Laguna	12	San Juan la Laguna	2	Febrero	2023-09-02T00:00:00	2024-11-08T20:00:00	7	Dirección del viento	1.61
35799	7	Sololá	717	San Juan la Laguna	12	San Juan la Laguna	2	Febrero	2023-09-02T00:00:00	2024-11-08T20:00:00	1	Precipitación	0
35800	7	Sololá	717	San Juan la Laguna	12	San Juan la Laguna	2	Febrero	2023-09-02T00:00:00	2024-11-08T20:00:00	8	Radiación solar	0
35801	7	Sololá	717	San Juan la Laguna	12	San Juan la Laguna	2	Febrero	2023-09-02T00:00:00	2024-11-08T21:00:00	2	Temperatura media	18.9
35802	7	Sololá	717	San Juan la Laguna	12	San Juan la Laguna	2	Febrero	2023-09-02T00:00:00	2024-11-08T21:00:00	4	Temperatura máxima	19.4
35803	7	Sololá	717	San Juan la Laguna	12	San Juan la Laguna	2	Febrero	2023-09-02T00:00:00	2024-11-08T21:00:00	3	Temperatura mínima	18.9
35804	7	Sololá	717	San Juan la Laguna	12	San Juan la Laguna	2	Febrero	2023-09-02T00:00:00	2024-11-08T21:00:00	5	Humedad	66
35805	7	Sololá	717	San Juan la Laguna	12	San Juan la Laguna	2	Febrero	2023-09-02T00:00:00	2024-11-08T21:00:00	6	Velocidad del viento	8
35806	7	Sololá	717	San Juan la Laguna	12	San Juan la Laguna	2	Febrero	2023-09-02T00:00:00	2024-11-08T21:00:00	7	Dirección del viento	8.05
35807	7	Sololá	717	San Juan la Laguna	12	San Juan la Laguna	2	Febrero	2023-09-02T00:00:00	2024-11-08T21:00:00	1	Precipitación	0
35808	7	Sololá	717	San Juan la Laguna	12	San Juan la Laguna	2	Febrero	2023-09-02T00:00:00	2024-11-08T21:00:00	8	Radiación solar	0
35809	7	Sololá	717	San Juan la Laguna	12	San Juan la Laguna	2	Febrero	2023-09-02T00:00:00	2024-11-08T22:00:00	2	Temperatura media	17.6
35810	7	Sololá	717	San Juan la Laguna	12	San Juan la Laguna	2	Febrero	2023-09-02T00:00:00	2024-11-08T22:00:00	4	Temperatura máxima	18.9
35811	7	Sololá	717	San Juan la Laguna	12	San Juan la Laguna	2	Febrero	2023-09-02T00:00:00	2024-11-08T22:00:00	3	Temperatura mínima	17.6
35812	7	Sololá	717	San Juan la Laguna	12	San Juan la Laguna	2	Febrero	2023-09-02T00:00:00	2024-11-08T22:00:00	5	Humedad	69
35813	7	Sololá	717	San Juan la Laguna	12	San Juan la Laguna	2	Febrero	2023-09-02T00:00:00	2024-11-08T22:00:00	6	Velocidad del viento	3.2
35814	7	Sololá	717	San Juan la Laguna	12	San Juan la Laguna	2	Febrero	2023-09-02T00:00:00	2024-11-08T22:00:00	7	Dirección del viento	3.22
35815	7	Sololá	717	San Juan la Laguna	12	San Juan la Laguna	2	Febrero	2023-09-02T00:00:00	2024-11-08T22:00:00	1	Precipitación	0
35816	7	Sololá	717	San Juan la Laguna	12	San Juan la Laguna	2	Febrero	2023-09-02T00:00:00	2024-11-08T22:00:00	8	Radiación solar	0
35817	7	Sololá	717	San Juan la Laguna	12	San Juan la Laguna	2	Febrero	2023-09-02T00:00:00	2024-11-08T23:00:00	2	Temperatura media	15.6
35818	7	Sololá	717	San Juan la Laguna	12	San Juan la Laguna	2	Febrero	2023-09-02T00:00:00	2024-11-08T23:00:00	4	Temperatura máxima	17.6
35819	7	Sololá	717	San Juan la Laguna	12	San Juan la Laguna	2	Febrero	2023-09-02T00:00:00	2024-11-08T23:00:00	3	Temperatura mínima	15.2
35820	7	Sololá	717	San Juan la Laguna	12	San Juan la Laguna	2	Febrero	2023-09-02T00:00:00	2024-11-08T23:00:00	5	Humedad	74
35821	7	Sololá	717	San Juan la Laguna	12	San Juan la Laguna	2	Febrero	2023-09-02T00:00:00	2024-11-08T23:00:00	6	Velocidad del viento	1.6
35822	7	Sololá	717	San Juan la Laguna	12	San Juan la Laguna	2	Febrero	2023-09-02T00:00:00	2024-11-08T23:00:00	7	Dirección del viento	1.61
35823	7	Sololá	717	San Juan la Laguna	12	San Juan la Laguna	2	Febrero	2023-09-02T00:00:00	2024-11-08T23:00:00	1	Precipitación	0
35824	7	Sololá	717	San Juan la Laguna	12	San Juan la Laguna	2	Febrero	2023-09-02T00:00:00	2024-11-08T23:00:00	8	Radiación solar	0
35825	7	Sololá	717	San Juan la Laguna	12	San Juan la Laguna	2	Febrero	2023-10-02T00:00:00	2024-11-08T00:00:00	2	Temperatura media	16.1
35826	7	Sololá	717	San Juan la Laguna	12	San Juan la Laguna	2	Febrero	2023-10-02T00:00:00	2024-11-08T00:00:00	4	Temperatura máxima	16.2
35827	7	Sololá	717	San Juan la Laguna	12	San Juan la Laguna	2	Febrero	2023-10-02T00:00:00	2024-11-08T00:00:00	3	Temperatura mínima	15.5
35828	7	Sololá	717	San Juan la Laguna	12	San Juan la Laguna	2	Febrero	2023-10-02T00:00:00	2024-11-08T00:00:00	5	Humedad	73
35829	7	Sololá	717	San Juan la Laguna	12	San Juan la Laguna	2	Febrero	2023-10-02T00:00:00	2024-11-08T00:00:00	6	Velocidad del viento	1.6
35830	7	Sololá	717	San Juan la Laguna	12	San Juan la Laguna	2	Febrero	2023-10-02T00:00:00	2024-11-08T00:00:00	7	Dirección del viento	1.61
35831	7	Sololá	717	San Juan la Laguna	12	San Juan la Laguna	2	Febrero	2023-10-02T00:00:00	2024-11-08T00:00:00	1	Precipitación	0
35832	7	Sololá	717	San Juan la Laguna	12	San Juan la Laguna	2	Febrero	2023-10-02T00:00:00	2024-11-08T00:00:00	8	Radiación solar	0
35833	7	Sololá	717	San Juan la Laguna	12	San Juan la Laguna	2	Febrero	2023-10-02T00:00:00	2024-11-08T01:00:00	2	Temperatura media	13.8
35834	7	Sololá	717	San Juan la Laguna	12	San Juan la Laguna	2	Febrero	2023-10-02T00:00:00	2024-11-08T01:00:00	4	Temperatura máxima	16.1
35835	7	Sololá	717	San Juan la Laguna	12	San Juan la Laguna	2	Febrero	2023-10-02T00:00:00	2024-11-08T01:00:00	3	Temperatura mínima	13.7
35836	7	Sololá	717	San Juan la Laguna	12	San Juan la Laguna	2	Febrero	2023-10-02T00:00:00	2024-11-08T01:00:00	5	Humedad	81
35837	7	Sololá	717	San Juan la Laguna	12	San Juan la Laguna	2	Febrero	2023-10-02T00:00:00	2024-11-08T01:00:00	6	Velocidad del viento	1.6
35838	7	Sololá	717	San Juan la Laguna	12	San Juan la Laguna	2	Febrero	2023-10-02T00:00:00	2024-11-08T01:00:00	7	Dirección del viento	1.61
35839	7	Sololá	717	San Juan la Laguna	12	San Juan la Laguna	2	Febrero	2023-10-02T00:00:00	2024-11-08T01:00:00	1	Precipitación	0
35840	7	Sololá	717	San Juan la Laguna	12	San Juan la Laguna	2	Febrero	2023-10-02T00:00:00	2024-11-08T01:00:00	8	Radiación solar	0
35841	7	Sololá	717	San Juan la Laguna	12	San Juan la Laguna	2	Febrero	2023-10-02T00:00:00	2024-11-08T02:00:00	2	Temperatura media	14
35842	7	Sololá	717	San Juan la Laguna	12	San Juan la Laguna	2	Febrero	2023-10-02T00:00:00	2024-11-08T02:00:00	4	Temperatura máxima	14.3
35843	7	Sololá	717	San Juan la Laguna	12	San Juan la Laguna	2	Febrero	2023-10-02T00:00:00	2024-11-08T02:00:00	3	Temperatura mínima	13.7
35844	7	Sololá	717	San Juan la Laguna	12	San Juan la Laguna	2	Febrero	2023-10-02T00:00:00	2024-11-08T02:00:00	5	Humedad	81
35845	7	Sololá	717	San Juan la Laguna	12	San Juan la Laguna	2	Febrero	2023-10-02T00:00:00	2024-11-08T02:00:00	6	Velocidad del viento	3.2
35846	7	Sololá	717	San Juan la Laguna	12	San Juan la Laguna	2	Febrero	2023-10-02T00:00:00	2024-11-08T02:00:00	7	Dirección del viento	3.22
35847	7	Sololá	717	San Juan la Laguna	12	San Juan la Laguna	2	Febrero	2023-10-02T00:00:00	2024-11-08T02:00:00	1	Precipitación	0
35848	7	Sololá	717	San Juan la Laguna	12	San Juan la Laguna	2	Febrero	2023-10-02T00:00:00	2024-11-08T02:00:00	8	Radiación solar	0
35849	7	Sololá	717	San Juan la Laguna	12	San Juan la Laguna	2	Febrero	2023-10-02T00:00:00	2024-11-08T03:00:00	2	Temperatura media	13.1
35850	7	Sololá	717	San Juan la Laguna	12	San Juan la Laguna	2	Febrero	2023-10-02T00:00:00	2024-11-08T03:00:00	4	Temperatura máxima	14
35851	7	Sololá	717	San Juan la Laguna	12	San Juan la Laguna	2	Febrero	2023-10-02T00:00:00	2024-11-08T03:00:00	3	Temperatura mínima	13.1
35852	7	Sololá	717	San Juan la Laguna	12	San Juan la Laguna	2	Febrero	2023-10-02T00:00:00	2024-11-08T03:00:00	5	Humedad	84
35853	7	Sololá	717	San Juan la Laguna	12	San Juan la Laguna	2	Febrero	2023-10-02T00:00:00	2024-11-08T03:00:00	6	Velocidad del viento	3.2
35854	7	Sololá	717	San Juan la Laguna	12	San Juan la Laguna	2	Febrero	2023-10-02T00:00:00	2024-11-08T03:00:00	7	Dirección del viento	3.22
35855	7	Sololá	717	San Juan la Laguna	12	San Juan la Laguna	2	Febrero	2023-10-02T00:00:00	2024-11-08T03:00:00	1	Precipitación	0
35856	7	Sololá	717	San Juan la Laguna	12	San Juan la Laguna	2	Febrero	2023-10-02T00:00:00	2024-11-08T03:00:00	8	Radiación solar	0
35857	7	Sololá	717	San Juan la Laguna	12	San Juan la Laguna	2	Febrero	2023-10-02T00:00:00	2024-11-08T04:00:00	2	Temperatura media	13.2
35858	7	Sololá	717	San Juan la Laguna	12	San Juan la Laguna	2	Febrero	2023-10-02T00:00:00	2024-11-08T04:00:00	4	Temperatura máxima	13.3
35859	7	Sololá	717	San Juan la Laguna	12	San Juan la Laguna	2	Febrero	2023-10-02T00:00:00	2024-11-08T04:00:00	3	Temperatura mínima	12.9
35860	7	Sololá	717	San Juan la Laguna	12	San Juan la Laguna	2	Febrero	2023-10-02T00:00:00	2024-11-08T04:00:00	5	Humedad	78
35861	7	Sololá	717	San Juan la Laguna	12	San Juan la Laguna	2	Febrero	2023-10-02T00:00:00	2024-11-08T04:00:00	6	Velocidad del viento	3.2
35862	7	Sololá	717	San Juan la Laguna	12	San Juan la Laguna	2	Febrero	2023-10-02T00:00:00	2024-11-08T04:00:00	7	Dirección del viento	3.22
35863	7	Sololá	717	San Juan la Laguna	12	San Juan la Laguna	2	Febrero	2023-10-02T00:00:00	2024-11-08T04:00:00	1	Precipitación	0
35864	7	Sololá	717	San Juan la Laguna	12	San Juan la Laguna	2	Febrero	2023-10-02T00:00:00	2024-11-08T04:00:00	8	Radiación solar	0
35865	7	Sololá	717	San Juan la Laguna	12	San Juan la Laguna	2	Febrero	2023-10-02T00:00:00	2024-11-08T05:00:00	2	Temperatura media	12.8
35866	7	Sololá	717	San Juan la Laguna	12	San Juan la Laguna	2	Febrero	2023-10-02T00:00:00	2024-11-08T05:00:00	4	Temperatura máxima	13.2
35867	7	Sololá	717	San Juan la Laguna	12	San Juan la Laguna	2	Febrero	2023-10-02T00:00:00	2024-11-08T05:00:00	3	Temperatura mínima	12.7
35868	7	Sololá	717	San Juan la Laguna	12	San Juan la Laguna	2	Febrero	2023-10-02T00:00:00	2024-11-08T05:00:00	5	Humedad	80
35869	7	Sololá	717	San Juan la Laguna	12	San Juan la Laguna	2	Febrero	2023-10-02T00:00:00	2024-11-08T05:00:00	6	Velocidad del viento	4.8
35870	7	Sololá	717	San Juan la Laguna	12	San Juan la Laguna	2	Febrero	2023-10-02T00:00:00	2024-11-08T05:00:00	7	Dirección del viento	4.83
35871	7	Sololá	717	San Juan la Laguna	12	San Juan la Laguna	2	Febrero	2023-10-02T00:00:00	2024-11-08T05:00:00	1	Precipitación	0
35872	7	Sololá	717	San Juan la Laguna	12	San Juan la Laguna	2	Febrero	2023-10-02T00:00:00	2024-11-08T05:00:00	8	Radiación solar	0
35873	7	Sololá	717	San Juan la Laguna	12	San Juan la Laguna	2	Febrero	2023-10-02T00:00:00	2024-11-08T06:00:00	2	Temperatura media	12.6
35874	7	Sololá	717	San Juan la Laguna	12	San Juan la Laguna	2	Febrero	2023-10-02T00:00:00	2024-11-08T06:00:00	4	Temperatura máxima	12.8
35875	7	Sololá	717	San Juan la Laguna	12	San Juan la Laguna	2	Febrero	2023-10-02T00:00:00	2024-11-08T06:00:00	3	Temperatura mínima	12.6
35876	7	Sololá	717	San Juan la Laguna	12	San Juan la Laguna	2	Febrero	2023-10-02T00:00:00	2024-11-08T06:00:00	5	Humedad	79
35877	7	Sololá	717	San Juan la Laguna	12	San Juan la Laguna	2	Febrero	2023-10-02T00:00:00	2024-11-08T06:00:00	6	Velocidad del viento	4.8
35878	7	Sololá	717	San Juan la Laguna	12	San Juan la Laguna	2	Febrero	2023-10-02T00:00:00	2024-11-08T06:00:00	7	Dirección del viento	4.83
35879	7	Sololá	717	San Juan la Laguna	12	San Juan la Laguna	2	Febrero	2023-10-02T00:00:00	2024-11-08T06:00:00	1	Precipitación	0
35880	7	Sololá	717	San Juan la Laguna	12	San Juan la Laguna	2	Febrero	2023-10-02T00:00:00	2024-11-08T06:00:00	8	Radiación solar	0
35881	7	Sololá	717	San Juan la Laguna	12	San Juan la Laguna	2	Febrero	2023-10-02T00:00:00	2024-11-08T07:00:00	2	Temperatura media	12.2
35882	7	Sololá	717	San Juan la Laguna	12	San Juan la Laguna	2	Febrero	2023-10-02T00:00:00	2024-11-08T07:00:00	4	Temperatura máxima	12.6
35883	7	Sololá	717	San Juan la Laguna	12	San Juan la Laguna	2	Febrero	2023-10-02T00:00:00	2024-11-08T07:00:00	3	Temperatura mínima	12.1
35884	7	Sololá	717	San Juan la Laguna	12	San Juan la Laguna	2	Febrero	2023-10-02T00:00:00	2024-11-08T07:00:00	5	Humedad	79
35885	7	Sololá	717	San Juan la Laguna	12	San Juan la Laguna	2	Febrero	2023-10-02T00:00:00	2024-11-08T07:00:00	6	Velocidad del viento	4.8
35886	7	Sololá	717	San Juan la Laguna	12	San Juan la Laguna	2	Febrero	2023-10-02T00:00:00	2024-11-08T07:00:00	7	Dirección del viento	4.83
35887	7	Sololá	717	San Juan la Laguna	12	San Juan la Laguna	2	Febrero	2023-10-02T00:00:00	2024-11-08T07:00:00	1	Precipitación	0
35888	7	Sololá	717	San Juan la Laguna	12	San Juan la Laguna	2	Febrero	2023-10-02T00:00:00	2024-11-08T07:00:00	8	Radiación solar	7
35889	7	Sololá	717	San Juan la Laguna	12	San Juan la Laguna	2	Febrero	2023-10-02T00:00:00	2024-11-08T08:00:00	2	Temperatura media	15.5
35890	7	Sololá	717	San Juan la Laguna	12	San Juan la Laguna	2	Febrero	2023-10-02T00:00:00	2024-11-08T08:00:00	4	Temperatura máxima	15.5
35891	7	Sololá	717	San Juan la Laguna	12	San Juan la Laguna	2	Febrero	2023-10-02T00:00:00	2024-11-08T08:00:00	3	Temperatura mínima	12.3
35892	7	Sololá	717	San Juan la Laguna	12	San Juan la Laguna	2	Febrero	2023-10-02T00:00:00	2024-11-08T08:00:00	5	Humedad	72
35893	7	Sololá	717	San Juan la Laguna	12	San Juan la Laguna	2	Febrero	2023-10-02T00:00:00	2024-11-08T08:00:00	6	Velocidad del viento	3.2
35894	7	Sololá	717	San Juan la Laguna	12	San Juan la Laguna	2	Febrero	2023-10-02T00:00:00	2024-11-08T08:00:00	7	Dirección del viento	3.22
35895	7	Sololá	717	San Juan la Laguna	12	San Juan la Laguna	2	Febrero	2023-10-02T00:00:00	2024-11-08T08:00:00	1	Precipitación	0
35896	7	Sololá	717	San Juan la Laguna	12	San Juan la Laguna	2	Febrero	2023-10-02T00:00:00	2024-11-08T08:00:00	8	Radiación solar	153
35897	7	Sololá	717	San Juan la Laguna	12	San Juan la Laguna	2	Febrero	2023-10-02T00:00:00	2024-11-08T09:00:00	2	Temperatura media	18.7
35898	7	Sololá	717	San Juan la Laguna	12	San Juan la Laguna	2	Febrero	2023-10-02T00:00:00	2024-11-08T09:00:00	4	Temperatura máxima	18.9
35899	7	Sololá	717	San Juan la Laguna	12	San Juan la Laguna	2	Febrero	2023-10-02T00:00:00	2024-11-08T09:00:00	3	Temperatura mínima	15.5
35900	7	Sololá	717	San Juan la Laguna	12	San Juan la Laguna	2	Febrero	2023-10-02T00:00:00	2024-11-08T09:00:00	5	Humedad	68
35901	7	Sololá	717	San Juan la Laguna	12	San Juan la Laguna	2	Febrero	2023-10-02T00:00:00	2024-11-08T09:00:00	6	Velocidad del viento	1.6
35902	7	Sololá	717	San Juan la Laguna	12	San Juan la Laguna	2	Febrero	2023-10-02T00:00:00	2024-11-08T09:00:00	7	Dirección del viento	1.61
35903	7	Sololá	717	San Juan la Laguna	12	San Juan la Laguna	2	Febrero	2023-10-02T00:00:00	2024-11-08T09:00:00	1	Precipitación	0
35904	7	Sololá	717	San Juan la Laguna	12	San Juan la Laguna	2	Febrero	2023-10-02T00:00:00	2024-11-08T09:00:00	8	Radiación solar	378
35905	7	Sololá	717	San Juan la Laguna	12	San Juan la Laguna	2	Febrero	2023-10-02T00:00:00	2024-11-08T10:00:00	2	Temperatura media	20.6
35906	7	Sololá	717	San Juan la Laguna	12	San Juan la Laguna	2	Febrero	2023-10-02T00:00:00	2024-11-08T10:00:00	4	Temperatura máxima	20.6
35907	7	Sololá	717	San Juan la Laguna	12	San Juan la Laguna	2	Febrero	2023-10-02T00:00:00	2024-11-08T10:00:00	3	Temperatura mínima	18.8
35908	7	Sololá	717	San Juan la Laguna	12	San Juan la Laguna	2	Febrero	2023-10-02T00:00:00	2024-11-08T10:00:00	5	Humedad	60
35909	7	Sololá	717	San Juan la Laguna	12	San Juan la Laguna	2	Febrero	2023-10-02T00:00:00	2024-11-08T10:00:00	6	Velocidad del viento	3.2
35910	7	Sololá	717	San Juan la Laguna	12	San Juan la Laguna	2	Febrero	2023-10-02T00:00:00	2024-11-08T10:00:00	7	Dirección del viento	3.22
35911	7	Sololá	717	San Juan la Laguna	12	San Juan la Laguna	2	Febrero	2023-10-02T00:00:00	2024-11-08T10:00:00	1	Precipitación	0
35912	7	Sololá	717	San Juan la Laguna	12	San Juan la Laguna	2	Febrero	2023-10-02T00:00:00	2024-11-08T10:00:00	8	Radiación solar	595
35913	7	Sololá	717	San Juan la Laguna	12	San Juan la Laguna	2	Febrero	2023-10-02T00:00:00	2024-11-08T11:00:00	2	Temperatura media	22.7
35914	7	Sololá	717	San Juan la Laguna	12	San Juan la Laguna	2	Febrero	2023-10-02T00:00:00	2024-11-08T11:00:00	4	Temperatura máxima	22.7
35915	7	Sololá	717	San Juan la Laguna	12	San Juan la Laguna	2	Febrero	2023-10-02T00:00:00	2024-11-08T11:00:00	3	Temperatura mínima	20.5
35916	7	Sololá	717	San Juan la Laguna	12	San Juan la Laguna	2	Febrero	2023-10-02T00:00:00	2024-11-08T11:00:00	5	Humedad	44
35917	7	Sololá	717	San Juan la Laguna	12	San Juan la Laguna	2	Febrero	2023-10-02T00:00:00	2024-11-08T11:00:00	6	Velocidad del viento	3.2
35918	7	Sololá	717	San Juan la Laguna	12	San Juan la Laguna	2	Febrero	2023-10-02T00:00:00	2024-11-08T11:00:00	7	Dirección del viento	3.22
35919	7	Sololá	717	San Juan la Laguna	12	San Juan la Laguna	2	Febrero	2023-10-02T00:00:00	2024-11-08T11:00:00	1	Precipitación	0
35920	7	Sololá	717	San Juan la Laguna	12	San Juan la Laguna	2	Febrero	2023-10-02T00:00:00	2024-11-08T11:00:00	8	Radiación solar	750
35921	7	Sololá	717	San Juan la Laguna	12	San Juan la Laguna	2	Febrero	2023-10-02T00:00:00	2024-11-08T12:00:00	2	Temperatura media	23.7
35922	7	Sololá	717	San Juan la Laguna	12	San Juan la Laguna	2	Febrero	2023-10-02T00:00:00	2024-11-08T12:00:00	4	Temperatura máxima	23.9
35923	7	Sololá	717	San Juan la Laguna	12	San Juan la Laguna	2	Febrero	2023-10-02T00:00:00	2024-11-08T12:00:00	3	Temperatura mínima	22.7
35924	7	Sololá	717	San Juan la Laguna	12	San Juan la Laguna	2	Febrero	2023-10-02T00:00:00	2024-11-08T12:00:00	5	Humedad	42
35925	7	Sololá	717	San Juan la Laguna	12	San Juan la Laguna	2	Febrero	2023-10-02T00:00:00	2024-11-08T12:00:00	6	Velocidad del viento	4.8
35926	7	Sololá	717	San Juan la Laguna	12	San Juan la Laguna	2	Febrero	2023-10-02T00:00:00	2024-11-08T12:00:00	7	Dirección del viento	4.83
35927	7	Sololá	717	San Juan la Laguna	12	San Juan la Laguna	2	Febrero	2023-10-02T00:00:00	2024-11-08T12:00:00	1	Precipitación	0
35928	7	Sololá	717	San Juan la Laguna	12	San Juan la Laguna	2	Febrero	2023-10-02T00:00:00	2024-11-08T12:00:00	8	Radiación solar	741
35929	7	Sololá	717	San Juan la Laguna	12	San Juan la Laguna	2	Febrero	2023-10-02T00:00:00	2024-11-08T13:00:00	2	Temperatura media	22.9
35930	7	Sololá	717	San Juan la Laguna	12	San Juan la Laguna	2	Febrero	2023-10-02T00:00:00	2024-11-08T13:00:00	4	Temperatura máxima	24.4
35931	7	Sololá	717	San Juan la Laguna	12	San Juan la Laguna	2	Febrero	2023-10-02T00:00:00	2024-11-08T13:00:00	3	Temperatura mínima	22.6
35932	7	Sololá	717	San Juan la Laguna	12	San Juan la Laguna	2	Febrero	2023-10-02T00:00:00	2024-11-08T13:00:00	5	Humedad	61
35933	7	Sololá	717	San Juan la Laguna	12	San Juan la Laguna	2	Febrero	2023-10-02T00:00:00	2024-11-08T13:00:00	6	Velocidad del viento	8
35934	7	Sololá	717	San Juan la Laguna	12	San Juan la Laguna	2	Febrero	2023-10-02T00:00:00	2024-11-08T13:00:00	7	Dirección del viento	8.05
35935	7	Sololá	717	San Juan la Laguna	12	San Juan la Laguna	2	Febrero	2023-10-02T00:00:00	2024-11-08T13:00:00	1	Precipitación	0
35936	7	Sololá	717	San Juan la Laguna	12	San Juan la Laguna	2	Febrero	2023-10-02T00:00:00	2024-11-08T13:00:00	8	Radiación solar	861
35937	7	Sololá	717	San Juan la Laguna	12	San Juan la Laguna	2	Febrero	2023-10-02T00:00:00	2024-11-08T14:00:00	2	Temperatura media	21.9
35938	7	Sololá	717	San Juan la Laguna	12	San Juan la Laguna	2	Febrero	2023-10-02T00:00:00	2024-11-08T14:00:00	4	Temperatura máxima	22.9
35939	7	Sololá	717	San Juan la Laguna	12	San Juan la Laguna	2	Febrero	2023-10-02T00:00:00	2024-11-08T14:00:00	3	Temperatura mínima	21.7
35940	7	Sololá	717	San Juan la Laguna	12	San Juan la Laguna	2	Febrero	2023-10-02T00:00:00	2024-11-08T14:00:00	5	Humedad	67
35941	7	Sololá	717	San Juan la Laguna	12	San Juan la Laguna	2	Febrero	2023-10-02T00:00:00	2024-11-08T14:00:00	6	Velocidad del viento	16.1
35942	7	Sololá	717	San Juan la Laguna	12	San Juan la Laguna	2	Febrero	2023-10-02T00:00:00	2024-11-08T14:00:00	7	Dirección del viento	16.09
35943	7	Sololá	717	San Juan la Laguna	12	San Juan la Laguna	2	Febrero	2023-10-02T00:00:00	2024-11-08T14:00:00	1	Precipitación	0
35944	7	Sololá	717	San Juan la Laguna	12	San Juan la Laguna	2	Febrero	2023-10-02T00:00:00	2024-11-08T14:00:00	8	Radiación solar	804
35945	7	Sololá	717	San Juan la Laguna	12	San Juan la Laguna	2	Febrero	2023-10-02T00:00:00	2024-11-08T15:00:00	2	Temperatura media	21.7
35946	7	Sololá	717	San Juan la Laguna	12	San Juan la Laguna	2	Febrero	2023-10-02T00:00:00	2024-11-08T15:00:00	4	Temperatura máxima	22.1
35947	7	Sololá	717	San Juan la Laguna	12	San Juan la Laguna	2	Febrero	2023-10-02T00:00:00	2024-11-08T15:00:00	3	Temperatura mínima	21.6
35948	7	Sololá	717	San Juan la Laguna	12	San Juan la Laguna	2	Febrero	2023-10-02T00:00:00	2024-11-08T15:00:00	5	Humedad	68
35949	7	Sololá	717	San Juan la Laguna	12	San Juan la Laguna	2	Febrero	2023-10-02T00:00:00	2024-11-08T15:00:00	6	Velocidad del viento	14.5
35950	7	Sololá	717	San Juan la Laguna	12	San Juan la Laguna	2	Febrero	2023-10-02T00:00:00	2024-11-08T15:00:00	7	Dirección del viento	14.48
35951	7	Sololá	717	San Juan la Laguna	12	San Juan la Laguna	2	Febrero	2023-10-02T00:00:00	2024-11-08T15:00:00	1	Precipitación	0
35952	7	Sololá	717	San Juan la Laguna	12	San Juan la Laguna	2	Febrero	2023-10-02T00:00:00	2024-11-08T15:00:00	8	Radiación solar	679
35953	7	Sololá	717	San Juan la Laguna	12	San Juan la Laguna	2	Febrero	2023-10-02T00:00:00	2024-11-08T16:00:00	2	Temperatura media	22.2
35954	7	Sololá	717	San Juan la Laguna	12	San Juan la Laguna	2	Febrero	2023-10-02T00:00:00	2024-11-08T16:00:00	4	Temperatura máxima	22.3
35955	7	Sololá	717	San Juan la Laguna	12	San Juan la Laguna	2	Febrero	2023-10-02T00:00:00	2024-11-08T16:00:00	3	Temperatura mínima	21.7
35956	7	Sololá	717	San Juan la Laguna	12	San Juan la Laguna	2	Febrero	2023-10-02T00:00:00	2024-11-08T16:00:00	5	Humedad	68
35957	7	Sololá	717	San Juan la Laguna	12	San Juan la Laguna	2	Febrero	2023-10-02T00:00:00	2024-11-08T16:00:00	6	Velocidad del viento	8
35958	7	Sololá	717	San Juan la Laguna	12	San Juan la Laguna	2	Febrero	2023-10-02T00:00:00	2024-11-08T16:00:00	7	Dirección del viento	8.05
35959	7	Sololá	717	San Juan la Laguna	12	San Juan la Laguna	2	Febrero	2023-10-02T00:00:00	2024-11-08T16:00:00	1	Precipitación	0
35960	7	Sololá	717	San Juan la Laguna	12	San Juan la Laguna	2	Febrero	2023-10-02T00:00:00	2024-11-08T16:00:00	8	Radiación solar	494
35961	7	Sololá	717	San Juan la Laguna	12	San Juan la Laguna	2	Febrero	2023-10-02T00:00:00	2024-11-08T17:00:00	2	Temperatura media	20.7
35962	7	Sololá	717	San Juan la Laguna	12	San Juan la Laguna	2	Febrero	2023-10-02T00:00:00	2024-11-08T17:00:00	4	Temperatura máxima	22.3
35963	7	Sololá	717	San Juan la Laguna	12	San Juan la Laguna	2	Febrero	2023-10-02T00:00:00	2024-11-08T17:00:00	3	Temperatura mínima	20.7
35964	7	Sololá	717	San Juan la Laguna	12	San Juan la Laguna	2	Febrero	2023-10-02T00:00:00	2024-11-08T17:00:00	5	Humedad	72
35965	7	Sololá	717	San Juan la Laguna	12	San Juan la Laguna	2	Febrero	2023-10-02T00:00:00	2024-11-08T17:00:00	6	Velocidad del viento	3.2
35966	7	Sololá	717	San Juan la Laguna	12	San Juan la Laguna	2	Febrero	2023-10-02T00:00:00	2024-11-08T17:00:00	7	Dirección del viento	3.22
35967	7	Sololá	717	San Juan la Laguna	12	San Juan la Laguna	2	Febrero	2023-10-02T00:00:00	2024-11-08T17:00:00	1	Precipitación	0
35968	7	Sololá	717	San Juan la Laguna	12	San Juan la Laguna	2	Febrero	2023-10-02T00:00:00	2024-11-08T17:00:00	8	Radiación solar	139
35969	7	Sololá	717	San Juan la Laguna	12	San Juan la Laguna	2	Febrero	2023-10-02T00:00:00	2024-11-08T18:00:00	2	Temperatura media	19.7
35970	7	Sololá	717	San Juan la Laguna	12	San Juan la Laguna	2	Febrero	2023-10-02T00:00:00	2024-11-08T18:00:00	4	Temperatura máxima	20.7
35971	7	Sololá	717	San Juan la Laguna	12	San Juan la Laguna	2	Febrero	2023-10-02T00:00:00	2024-11-08T18:00:00	3	Temperatura mínima	19.7
35972	7	Sololá	717	San Juan la Laguna	12	San Juan la Laguna	2	Febrero	2023-10-02T00:00:00	2024-11-08T18:00:00	5	Humedad	78
35973	7	Sololá	717	San Juan la Laguna	12	San Juan la Laguna	2	Febrero	2023-10-02T00:00:00	2024-11-08T18:00:00	6	Velocidad del viento	3.2
35974	7	Sololá	717	San Juan la Laguna	12	San Juan la Laguna	2	Febrero	2023-10-02T00:00:00	2024-11-08T18:00:00	7	Dirección del viento	3.22
35975	7	Sololá	717	San Juan la Laguna	12	San Juan la Laguna	2	Febrero	2023-10-02T00:00:00	2024-11-08T18:00:00	1	Precipitación	0
35976	7	Sololá	717	San Juan la Laguna	12	San Juan la Laguna	2	Febrero	2023-10-02T00:00:00	2024-11-08T18:00:00	8	Radiación solar	35
35977	7	Sololá	717	San Juan la Laguna	12	San Juan la Laguna	2	Febrero	2023-10-02T00:00:00	2024-11-08T19:00:00	2	Temperatura media	17.8
35978	7	Sololá	717	San Juan la Laguna	12	San Juan la Laguna	2	Febrero	2023-10-02T00:00:00	2024-11-08T19:00:00	4	Temperatura máxima	19.7
35979	7	Sololá	717	San Juan la Laguna	12	San Juan la Laguna	2	Febrero	2023-10-02T00:00:00	2024-11-08T19:00:00	3	Temperatura mínima	17.8
35980	7	Sololá	717	San Juan la Laguna	12	San Juan la Laguna	2	Febrero	2023-10-02T00:00:00	2024-11-08T19:00:00	5	Humedad	84
35981	7	Sololá	717	San Juan la Laguna	12	San Juan la Laguna	2	Febrero	2023-10-02T00:00:00	2024-11-08T19:00:00	6	Velocidad del viento	0
35982	7	Sololá	717	San Juan la Laguna	12	San Juan la Laguna	2	Febrero	2023-10-02T00:00:00	2024-11-08T19:00:00	7	Dirección del viento	0
35983	7	Sololá	717	San Juan la Laguna	12	San Juan la Laguna	2	Febrero	2023-10-02T00:00:00	2024-11-08T19:00:00	1	Precipitación	0
35984	7	Sololá	717	San Juan la Laguna	12	San Juan la Laguna	2	Febrero	2023-10-02T00:00:00	2024-11-08T19:00:00	8	Radiación solar	0
35985	7	Sololá	717	San Juan la Laguna	12	San Juan la Laguna	2	Febrero	2023-10-02T00:00:00	2024-11-08T20:00:00	2	Temperatura media	16.8
35986	7	Sololá	717	San Juan la Laguna	12	San Juan la Laguna	2	Febrero	2023-10-02T00:00:00	2024-11-08T20:00:00	4	Temperatura máxima	17.8
35987	7	Sololá	717	San Juan la Laguna	12	San Juan la Laguna	2	Febrero	2023-10-02T00:00:00	2024-11-08T20:00:00	3	Temperatura mínima	16.8
35988	7	Sololá	717	San Juan la Laguna	12	San Juan la Laguna	2	Febrero	2023-10-02T00:00:00	2024-11-08T20:00:00	5	Humedad	87
35989	7	Sololá	717	San Juan la Laguna	12	San Juan la Laguna	2	Febrero	2023-10-02T00:00:00	2024-11-08T20:00:00	6	Velocidad del viento	1.6
35990	7	Sololá	717	San Juan la Laguna	12	San Juan la Laguna	2	Febrero	2023-10-02T00:00:00	2024-11-08T20:00:00	7	Dirección del viento	1.61
35991	7	Sololá	717	San Juan la Laguna	12	San Juan la Laguna	2	Febrero	2023-10-02T00:00:00	2024-11-08T20:00:00	1	Precipitación	0
35992	7	Sololá	717	San Juan la Laguna	12	San Juan la Laguna	2	Febrero	2023-10-02T00:00:00	2024-11-08T20:00:00	8	Radiación solar	0
35993	7	Sololá	717	San Juan la Laguna	12	San Juan la Laguna	2	Febrero	2023-10-02T00:00:00	2024-11-08T21:00:00	2	Temperatura media	15.8
35994	7	Sololá	717	San Juan la Laguna	12	San Juan la Laguna	2	Febrero	2023-10-02T00:00:00	2024-11-08T21:00:00	4	Temperatura máxima	16.8
35995	7	Sololá	717	San Juan la Laguna	12	San Juan la Laguna	2	Febrero	2023-10-02T00:00:00	2024-11-08T21:00:00	3	Temperatura mínima	15.8
35996	7	Sololá	717	San Juan la Laguna	12	San Juan la Laguna	2	Febrero	2023-10-02T00:00:00	2024-11-08T21:00:00	5	Humedad	89
35997	7	Sololá	717	San Juan la Laguna	12	San Juan la Laguna	2	Febrero	2023-10-02T00:00:00	2024-11-08T21:00:00	6	Velocidad del viento	0
35998	7	Sololá	717	San Juan la Laguna	12	San Juan la Laguna	2	Febrero	2023-10-02T00:00:00	2024-11-08T21:00:00	7	Dirección del viento	0
35999	7	Sololá	717	San Juan la Laguna	12	San Juan la Laguna	2	Febrero	2023-10-02T00:00:00	2024-11-08T21:00:00	1	Precipitación	0
36000	7	Sololá	717	San Juan la Laguna	12	San Juan la Laguna	2	Febrero	2023-10-02T00:00:00	2024-11-08T21:00:00	8	Radiación solar	0
36001	7	Sololá	717	San Juan la Laguna	12	San Juan la Laguna	2	Febrero	2023-10-02T00:00:00	2024-11-08T22:00:00	2	Temperatura media	15.8
36002	7	Sololá	717	San Juan la Laguna	12	San Juan la Laguna	2	Febrero	2023-10-02T00:00:00	2024-11-08T22:00:00	4	Temperatura máxima	15.9
36003	7	Sololá	717	San Juan la Laguna	12	San Juan la Laguna	2	Febrero	2023-10-02T00:00:00	2024-11-08T22:00:00	3	Temperatura mínima	15.5
36004	7	Sololá	717	San Juan la Laguna	12	San Juan la Laguna	2	Febrero	2023-10-02T00:00:00	2024-11-08T22:00:00	5	Humedad	83
36005	7	Sololá	717	San Juan la Laguna	12	San Juan la Laguna	2	Febrero	2023-10-02T00:00:00	2024-11-08T22:00:00	6	Velocidad del viento	1.6
36006	7	Sololá	717	San Juan la Laguna	12	San Juan la Laguna	2	Febrero	2023-10-02T00:00:00	2024-11-08T22:00:00	7	Dirección del viento	1.61
36007	7	Sololá	717	San Juan la Laguna	12	San Juan la Laguna	2	Febrero	2023-10-02T00:00:00	2024-11-08T22:00:00	1	Precipitación	0
36008	7	Sololá	717	San Juan la Laguna	12	San Juan la Laguna	2	Febrero	2023-10-02T00:00:00	2024-11-08T22:00:00	8	Radiación solar	0
36009	7	Sololá	717	San Juan la Laguna	12	San Juan la Laguna	2	Febrero	2023-10-02T00:00:00	2024-11-08T23:00:00	2	Temperatura media	15.5
36010	7	Sololá	717	San Juan la Laguna	12	San Juan la Laguna	2	Febrero	2023-10-02T00:00:00	2024-11-08T23:00:00	4	Temperatura máxima	15.8
36011	7	Sololá	717	San Juan la Laguna	12	San Juan la Laguna	2	Febrero	2023-10-02T00:00:00	2024-11-08T23:00:00	3	Temperatura mínima	15.4
36012	7	Sololá	717	San Juan la Laguna	12	San Juan la Laguna	2	Febrero	2023-10-02T00:00:00	2024-11-08T23:00:00	5	Humedad	80
36013	7	Sololá	717	San Juan la Laguna	12	San Juan la Laguna	2	Febrero	2023-10-02T00:00:00	2024-11-08T23:00:00	6	Velocidad del viento	3.2
36014	7	Sololá	717	San Juan la Laguna	12	San Juan la Laguna	2	Febrero	2023-10-02T00:00:00	2024-11-08T23:00:00	7	Dirección del viento	3.22
36015	7	Sololá	717	San Juan la Laguna	12	San Juan la Laguna	2	Febrero	2023-10-02T00:00:00	2024-11-08T23:00:00	1	Precipitación	0
36016	7	Sololá	717	San Juan la Laguna	12	San Juan la Laguna	2	Febrero	2023-10-02T00:00:00	2024-11-08T23:00:00	8	Radiación solar	0
36017	7	Sololá	717	San Juan la Laguna	12	San Juan la Laguna	2	Febrero	2023-11-02T00:00:00	2024-11-08T00:00:00	2	Temperatura media	14.2
36018	7	Sololá	717	San Juan la Laguna	12	San Juan la Laguna	2	Febrero	2023-11-02T00:00:00	2024-11-08T00:00:00	4	Temperatura máxima	15.5
36019	7	Sololá	717	San Juan la Laguna	12	San Juan la Laguna	2	Febrero	2023-11-02T00:00:00	2024-11-08T00:00:00	3	Temperatura mínima	14.2
36020	7	Sololá	717	San Juan la Laguna	12	San Juan la Laguna	2	Febrero	2023-11-02T00:00:00	2024-11-08T00:00:00	5	Humedad	82
36021	7	Sololá	717	San Juan la Laguna	12	San Juan la Laguna	2	Febrero	2023-11-02T00:00:00	2024-11-08T00:00:00	6	Velocidad del viento	3.2
36022	7	Sololá	717	San Juan la Laguna	12	San Juan la Laguna	2	Febrero	2023-11-02T00:00:00	2024-11-08T00:00:00	7	Dirección del viento	3.22
36023	7	Sololá	717	San Juan la Laguna	12	San Juan la Laguna	2	Febrero	2023-11-02T00:00:00	2024-11-08T00:00:00	1	Precipitación	0
36024	7	Sololá	717	San Juan la Laguna	12	San Juan la Laguna	2	Febrero	2023-11-02T00:00:00	2024-11-08T00:00:00	8	Radiación solar	0
36025	7	Sololá	717	San Juan la Laguna	12	San Juan la Laguna	2	Febrero	2023-11-02T00:00:00	2024-11-08T01:00:00	2	Temperatura media	14.2
36026	7	Sololá	717	San Juan la Laguna	12	San Juan la Laguna	2	Febrero	2023-11-02T00:00:00	2024-11-08T01:00:00	4	Temperatura máxima	14.2
36027	7	Sololá	717	San Juan la Laguna	12	San Juan la Laguna	2	Febrero	2023-11-02T00:00:00	2024-11-08T01:00:00	3	Temperatura mínima	13.7
36028	7	Sololá	717	San Juan la Laguna	12	San Juan la Laguna	2	Febrero	2023-11-02T00:00:00	2024-11-08T01:00:00	5	Humedad	83
36029	7	Sololá	717	San Juan la Laguna	12	San Juan la Laguna	2	Febrero	2023-11-02T00:00:00	2024-11-08T01:00:00	6	Velocidad del viento	3.2
36030	7	Sololá	717	San Juan la Laguna	12	San Juan la Laguna	2	Febrero	2023-11-02T00:00:00	2024-11-08T01:00:00	7	Dirección del viento	3.22
36031	7	Sololá	717	San Juan la Laguna	12	San Juan la Laguna	2	Febrero	2023-11-02T00:00:00	2024-11-08T01:00:00	1	Precipitación	0
36032	7	Sololá	717	San Juan la Laguna	12	San Juan la Laguna	2	Febrero	2023-11-02T00:00:00	2024-11-08T01:00:00	8	Radiación solar	0
36033	7	Sololá	717	San Juan la Laguna	12	San Juan la Laguna	2	Febrero	2023-11-02T00:00:00	2024-11-08T02:00:00	2	Temperatura media	13.6
36034	7	Sololá	717	San Juan la Laguna	12	San Juan la Laguna	2	Febrero	2023-11-02T00:00:00	2024-11-08T02:00:00	4	Temperatura máxima	14.3
36035	7	Sololá	717	San Juan la Laguna	12	San Juan la Laguna	2	Febrero	2023-11-02T00:00:00	2024-11-08T02:00:00	3	Temperatura mínima	13.5
36036	7	Sololá	717	San Juan la Laguna	12	San Juan la Laguna	2	Febrero	2023-11-02T00:00:00	2024-11-08T02:00:00	5	Humedad	84
36037	7	Sololá	717	San Juan la Laguna	12	San Juan la Laguna	2	Febrero	2023-11-02T00:00:00	2024-11-08T02:00:00	6	Velocidad del viento	3.2
36038	7	Sololá	717	San Juan la Laguna	12	San Juan la Laguna	2	Febrero	2023-11-02T00:00:00	2024-11-08T02:00:00	7	Dirección del viento	3.22
36039	7	Sololá	717	San Juan la Laguna	12	San Juan la Laguna	2	Febrero	2023-11-02T00:00:00	2024-11-08T02:00:00	1	Precipitación	0
36040	7	Sololá	717	San Juan la Laguna	12	San Juan la Laguna	2	Febrero	2023-11-02T00:00:00	2024-11-08T02:00:00	8	Radiación solar	0
36041	7	Sololá	717	San Juan la Laguna	12	San Juan la Laguna	2	Febrero	2023-11-02T00:00:00	2024-11-08T03:00:00	2	Temperatura media	13.7
36042	7	Sololá	717	San Juan la Laguna	12	San Juan la Laguna	2	Febrero	2023-11-02T00:00:00	2024-11-08T03:00:00	4	Temperatura máxima	14.1
36043	7	Sololá	717	San Juan la Laguna	12	San Juan la Laguna	2	Febrero	2023-11-02T00:00:00	2024-11-08T03:00:00	3	Temperatura mínima	13.4
36044	7	Sololá	717	San Juan la Laguna	12	San Juan la Laguna	2	Febrero	2023-11-02T00:00:00	2024-11-08T03:00:00	5	Humedad	79
36045	7	Sololá	717	San Juan la Laguna	12	San Juan la Laguna	2	Febrero	2023-11-02T00:00:00	2024-11-08T03:00:00	6	Velocidad del viento	6.4
36046	7	Sololá	717	San Juan la Laguna	12	San Juan la Laguna	2	Febrero	2023-11-02T00:00:00	2024-11-08T03:00:00	7	Dirección del viento	6.44
36047	7	Sololá	717	San Juan la Laguna	12	San Juan la Laguna	2	Febrero	2023-11-02T00:00:00	2024-11-08T03:00:00	1	Precipitación	0
36048	7	Sololá	717	San Juan la Laguna	12	San Juan la Laguna	2	Febrero	2023-11-02T00:00:00	2024-11-08T03:00:00	8	Radiación solar	0
36049	7	Sololá	717	San Juan la Laguna	12	San Juan la Laguna	2	Febrero	2023-11-02T00:00:00	2024-11-08T04:00:00	2	Temperatura media	12.7
36050	7	Sololá	717	San Juan la Laguna	12	San Juan la Laguna	2	Febrero	2023-11-02T00:00:00	2024-11-08T04:00:00	4	Temperatura máxima	13.7
36051	7	Sololá	717	San Juan la Laguna	12	San Juan la Laguna	2	Febrero	2023-11-02T00:00:00	2024-11-08T04:00:00	3	Temperatura mínima	12.6
36052	7	Sololá	717	San Juan la Laguna	12	San Juan la Laguna	2	Febrero	2023-11-02T00:00:00	2024-11-08T04:00:00	5	Humedad	81
36053	7	Sololá	717	San Juan la Laguna	12	San Juan la Laguna	2	Febrero	2023-11-02T00:00:00	2024-11-08T04:00:00	6	Velocidad del viento	6.4
36054	7	Sololá	717	San Juan la Laguna	12	San Juan la Laguna	2	Febrero	2023-11-02T00:00:00	2024-11-08T04:00:00	7	Dirección del viento	6.44
36055	7	Sololá	717	San Juan la Laguna	12	San Juan la Laguna	2	Febrero	2023-11-02T00:00:00	2024-11-08T04:00:00	1	Precipitación	0
36056	7	Sololá	717	San Juan la Laguna	12	San Juan la Laguna	2	Febrero	2023-11-02T00:00:00	2024-11-08T04:00:00	8	Radiación solar	0
36057	7	Sololá	717	San Juan la Laguna	12	San Juan la Laguna	2	Febrero	2023-11-02T00:00:00	2024-11-08T05:00:00	2	Temperatura media	12.3
36058	7	Sololá	717	San Juan la Laguna	12	San Juan la Laguna	2	Febrero	2023-11-02T00:00:00	2024-11-08T05:00:00	4	Temperatura máxima	12.7
36059	7	Sololá	717	San Juan la Laguna	12	San Juan la Laguna	2	Febrero	2023-11-02T00:00:00	2024-11-08T05:00:00	3	Temperatura mínima	12.3
36060	7	Sololá	717	San Juan la Laguna	12	San Juan la Laguna	2	Febrero	2023-11-02T00:00:00	2024-11-08T05:00:00	5	Humedad	81
36061	7	Sololá	717	San Juan la Laguna	12	San Juan la Laguna	2	Febrero	2023-11-02T00:00:00	2024-11-08T05:00:00	6	Velocidad del viento	6.4
36062	7	Sololá	717	San Juan la Laguna	12	San Juan la Laguna	2	Febrero	2023-11-02T00:00:00	2024-11-08T05:00:00	7	Dirección del viento	6.44
36063	7	Sololá	717	San Juan la Laguna	12	San Juan la Laguna	2	Febrero	2023-11-02T00:00:00	2024-11-08T05:00:00	1	Precipitación	0
36064	7	Sololá	717	San Juan la Laguna	12	San Juan la Laguna	2	Febrero	2023-11-02T00:00:00	2024-11-08T05:00:00	8	Radiación solar	0
36065	7	Sololá	717	San Juan la Laguna	12	San Juan la Laguna	2	Febrero	2023-11-02T00:00:00	2024-11-08T06:00:00	2	Temperatura media	11.8
36066	7	Sololá	717	San Juan la Laguna	12	San Juan la Laguna	2	Febrero	2023-11-02T00:00:00	2024-11-08T06:00:00	4	Temperatura máxima	12.3
36067	7	Sololá	717	San Juan la Laguna	12	San Juan la Laguna	2	Febrero	2023-11-02T00:00:00	2024-11-08T06:00:00	3	Temperatura mínima	11.6
36068	7	Sololá	717	San Juan la Laguna	12	San Juan la Laguna	2	Febrero	2023-11-02T00:00:00	2024-11-08T06:00:00	5	Humedad	80
36069	7	Sololá	717	San Juan la Laguna	12	San Juan la Laguna	2	Febrero	2023-11-02T00:00:00	2024-11-08T06:00:00	6	Velocidad del viento	6.4
36070	7	Sololá	717	San Juan la Laguna	12	San Juan la Laguna	2	Febrero	2023-11-02T00:00:00	2024-11-08T06:00:00	7	Dirección del viento	6.44
36071	7	Sololá	717	San Juan la Laguna	12	San Juan la Laguna	2	Febrero	2023-11-02T00:00:00	2024-11-08T06:00:00	1	Precipitación	0
36072	7	Sololá	717	San Juan la Laguna	12	San Juan la Laguna	2	Febrero	2023-11-02T00:00:00	2024-11-08T06:00:00	8	Radiación solar	0
36073	7	Sololá	717	San Juan la Laguna	12	San Juan la Laguna	2	Febrero	2023-11-02T00:00:00	2024-11-08T07:00:00	2	Temperatura media	12.1
36074	7	Sololá	717	San Juan la Laguna	12	San Juan la Laguna	2	Febrero	2023-11-02T00:00:00	2024-11-08T07:00:00	4	Temperatura máxima	12.1
36075	7	Sololá	717	San Juan la Laguna	12	San Juan la Laguna	2	Febrero	2023-11-02T00:00:00	2024-11-08T07:00:00	3	Temperatura mínima	11.6
36076	7	Sololá	717	San Juan la Laguna	12	San Juan la Laguna	2	Febrero	2023-11-02T00:00:00	2024-11-08T07:00:00	5	Humedad	77
36077	7	Sololá	717	San Juan la Laguna	12	San Juan la Laguna	2	Febrero	2023-11-02T00:00:00	2024-11-08T07:00:00	6	Velocidad del viento	6.4
36078	7	Sololá	717	San Juan la Laguna	12	San Juan la Laguna	2	Febrero	2023-11-02T00:00:00	2024-11-08T07:00:00	7	Dirección del viento	6.44
36079	7	Sololá	717	San Juan la Laguna	12	San Juan la Laguna	2	Febrero	2023-11-02T00:00:00	2024-11-08T07:00:00	1	Precipitación	0
36080	7	Sololá	717	San Juan la Laguna	12	San Juan la Laguna	2	Febrero	2023-11-02T00:00:00	2024-11-08T07:00:00	8	Radiación solar	7
36081	7	Sololá	717	San Juan la Laguna	12	San Juan la Laguna	2	Febrero	2023-11-02T00:00:00	2024-11-08T08:00:00	2	Temperatura media	14.9
36082	7	Sololá	717	San Juan la Laguna	12	San Juan la Laguna	2	Febrero	2023-11-02T00:00:00	2024-11-08T08:00:00	4	Temperatura máxima	14.9
36083	7	Sololá	717	San Juan la Laguna	12	San Juan la Laguna	2	Febrero	2023-11-02T00:00:00	2024-11-08T08:00:00	3	Temperatura mínima	12.1
36084	7	Sololá	717	San Juan la Laguna	12	San Juan la Laguna	2	Febrero	2023-11-02T00:00:00	2024-11-08T08:00:00	5	Humedad	73
36085	7	Sololá	717	San Juan la Laguna	12	San Juan la Laguna	2	Febrero	2023-11-02T00:00:00	2024-11-08T08:00:00	6	Velocidad del viento	3.2
36086	7	Sololá	717	San Juan la Laguna	12	San Juan la Laguna	2	Febrero	2023-11-02T00:00:00	2024-11-08T08:00:00	7	Dirección del viento	3.22
36087	7	Sololá	717	San Juan la Laguna	12	San Juan la Laguna	2	Febrero	2023-11-02T00:00:00	2024-11-08T08:00:00	1	Precipitación	0
36088	7	Sololá	717	San Juan la Laguna	12	San Juan la Laguna	2	Febrero	2023-11-02T00:00:00	2024-11-08T08:00:00	8	Radiación solar	161
36089	7	Sololá	717	San Juan la Laguna	12	San Juan la Laguna	2	Febrero	2023-11-02T00:00:00	2024-11-08T09:00:00	2	Temperatura media	20.3
36090	7	Sololá	717	San Juan la Laguna	12	San Juan la Laguna	2	Febrero	2023-11-02T00:00:00	2024-11-08T09:00:00	4	Temperatura máxima	20.3
36091	7	Sololá	717	San Juan la Laguna	12	San Juan la Laguna	2	Febrero	2023-11-02T00:00:00	2024-11-08T09:00:00	3	Temperatura mínima	14.9
36092	7	Sololá	717	San Juan la Laguna	12	San Juan la Laguna	2	Febrero	2023-11-02T00:00:00	2024-11-08T09:00:00	5	Humedad	49
36093	7	Sololá	717	San Juan la Laguna	12	San Juan la Laguna	2	Febrero	2023-11-02T00:00:00	2024-11-08T09:00:00	6	Velocidad del viento	1.6
36094	7	Sololá	717	San Juan la Laguna	12	San Juan la Laguna	2	Febrero	2023-11-02T00:00:00	2024-11-08T09:00:00	7	Dirección del viento	1.61
36095	7	Sololá	717	San Juan la Laguna	12	San Juan la Laguna	2	Febrero	2023-11-02T00:00:00	2024-11-08T09:00:00	1	Precipitación	0
36096	7	Sololá	717	San Juan la Laguna	12	San Juan la Laguna	2	Febrero	2023-11-02T00:00:00	2024-11-08T09:00:00	8	Radiación solar	388
36097	7	Sololá	717	San Juan la Laguna	12	San Juan la Laguna	2	Febrero	2023-11-02T00:00:00	2024-11-08T10:00:00	2	Temperatura media	22.3
36098	7	Sololá	717	San Juan la Laguna	12	San Juan la Laguna	2	Febrero	2023-11-02T00:00:00	2024-11-08T10:00:00	4	Temperatura máxima	22.3
36099	7	Sololá	717	San Juan la Laguna	12	San Juan la Laguna	2	Febrero	2023-11-02T00:00:00	2024-11-08T10:00:00	3	Temperatura mínima	20.3
36100	7	Sololá	717	San Juan la Laguna	12	San Juan la Laguna	2	Febrero	2023-11-02T00:00:00	2024-11-08T10:00:00	5	Humedad	41
36101	7	Sololá	717	San Juan la Laguna	12	San Juan la Laguna	2	Febrero	2023-11-02T00:00:00	2024-11-08T10:00:00	6	Velocidad del viento	8
36102	7	Sololá	717	San Juan la Laguna	12	San Juan la Laguna	2	Febrero	2023-11-02T00:00:00	2024-11-08T10:00:00	7	Dirección del viento	8.05
36103	7	Sololá	717	San Juan la Laguna	12	San Juan la Laguna	2	Febrero	2023-11-02T00:00:00	2024-11-08T10:00:00	1	Precipitación	0
36104	7	Sololá	717	San Juan la Laguna	12	San Juan la Laguna	2	Febrero	2023-11-02T00:00:00	2024-11-08T10:00:00	8	Radiación solar	605
36105	7	Sololá	717	San Juan la Laguna	12	San Juan la Laguna	2	Febrero	2023-11-02T00:00:00	2024-11-08T11:00:00	2	Temperatura media	22.9
36106	7	Sololá	717	San Juan la Laguna	12	San Juan la Laguna	2	Febrero	2023-11-02T00:00:00	2024-11-08T11:00:00	4	Temperatura máxima	23
36107	7	Sololá	717	San Juan la Laguna	12	San Juan la Laguna	2	Febrero	2023-11-02T00:00:00	2024-11-08T11:00:00	3	Temperatura mínima	22.3
36108	7	Sololá	717	San Juan la Laguna	12	San Juan la Laguna	2	Febrero	2023-11-02T00:00:00	2024-11-08T11:00:00	5	Humedad	41
36109	7	Sololá	717	San Juan la Laguna	12	San Juan la Laguna	2	Febrero	2023-11-02T00:00:00	2024-11-08T11:00:00	6	Velocidad del viento	12.9
36110	7	Sololá	717	San Juan la Laguna	12	San Juan la Laguna	2	Febrero	2023-11-02T00:00:00	2024-11-08T11:00:00	7	Dirección del viento	12.87
36111	7	Sololá	717	San Juan la Laguna	12	San Juan la Laguna	2	Febrero	2023-11-02T00:00:00	2024-11-08T11:00:00	1	Precipitación	0
36112	7	Sololá	717	San Juan la Laguna	12	San Juan la Laguna	2	Febrero	2023-11-02T00:00:00	2024-11-08T11:00:00	8	Radiación solar	755
36113	7	Sololá	717	San Juan la Laguna	12	San Juan la Laguna	2	Febrero	2023-11-02T00:00:00	2024-11-08T12:00:00	2	Temperatura media	23.8
36114	7	Sololá	717	San Juan la Laguna	12	San Juan la Laguna	2	Febrero	2023-11-02T00:00:00	2024-11-08T12:00:00	4	Temperatura máxima	23.9
36115	7	Sololá	717	San Juan la Laguna	12	San Juan la Laguna	2	Febrero	2023-11-02T00:00:00	2024-11-08T12:00:00	3	Temperatura mínima	22.9
36116	7	Sololá	717	San Juan la Laguna	12	San Juan la Laguna	2	Febrero	2023-11-02T00:00:00	2024-11-08T12:00:00	5	Humedad	39
36117	7	Sololá	717	San Juan la Laguna	12	San Juan la Laguna	2	Febrero	2023-11-02T00:00:00	2024-11-08T12:00:00	6	Velocidad del viento	14.5
36118	7	Sololá	717	San Juan la Laguna	12	San Juan la Laguna	2	Febrero	2023-11-02T00:00:00	2024-11-08T12:00:00	7	Dirección del viento	14.48
36119	7	Sololá	717	San Juan la Laguna	12	San Juan la Laguna	2	Febrero	2023-11-02T00:00:00	2024-11-08T12:00:00	1	Precipitación	0
36120	7	Sololá	717	San Juan la Laguna	12	San Juan la Laguna	2	Febrero	2023-11-02T00:00:00	2024-11-08T12:00:00	8	Radiación solar	742
36121	7	Sololá	717	San Juan la Laguna	12	San Juan la Laguna	2	Febrero	2023-11-02T00:00:00	2024-11-08T13:00:00	2	Temperatura media	24.5
36122	7	Sololá	717	San Juan la Laguna	12	San Juan la Laguna	2	Febrero	2023-11-02T00:00:00	2024-11-08T13:00:00	4	Temperatura máxima	24.5
36123	7	Sololá	717	San Juan la Laguna	12	San Juan la Laguna	2	Febrero	2023-11-02T00:00:00	2024-11-08T13:00:00	3	Temperatura mínima	23.6
36124	7	Sololá	717	San Juan la Laguna	12	San Juan la Laguna	2	Febrero	2023-11-02T00:00:00	2024-11-08T13:00:00	5	Humedad	37
36125	7	Sololá	717	San Juan la Laguna	12	San Juan la Laguna	2	Febrero	2023-11-02T00:00:00	2024-11-08T13:00:00	6	Velocidad del viento	16.1
36126	7	Sololá	717	San Juan la Laguna	12	San Juan la Laguna	2	Febrero	2023-11-02T00:00:00	2024-11-08T13:00:00	7	Dirección del viento	16.09
36127	7	Sololá	717	San Juan la Laguna	12	San Juan la Laguna	2	Febrero	2023-11-02T00:00:00	2024-11-08T13:00:00	1	Precipitación	0
36128	7	Sololá	717	San Juan la Laguna	12	San Juan la Laguna	2	Febrero	2023-11-02T00:00:00	2024-11-08T13:00:00	8	Radiación solar	872
36129	7	Sololá	717	San Juan la Laguna	12	San Juan la Laguna	2	Febrero	2023-11-02T00:00:00	2024-11-08T14:00:00	2	Temperatura media	24.7
36130	7	Sololá	717	San Juan la Laguna	12	San Juan la Laguna	2	Febrero	2023-11-02T00:00:00	2024-11-08T14:00:00	4	Temperatura máxima	24.9
36131	7	Sololá	717	San Juan la Laguna	12	San Juan la Laguna	2	Febrero	2023-11-02T00:00:00	2024-11-08T14:00:00	3	Temperatura mínima	24.4
36132	7	Sololá	717	San Juan la Laguna	12	San Juan la Laguna	2	Febrero	2023-11-02T00:00:00	2024-11-08T14:00:00	5	Humedad	40
36133	7	Sololá	717	San Juan la Laguna	12	San Juan la Laguna	2	Febrero	2023-11-02T00:00:00	2024-11-08T14:00:00	6	Velocidad del viento	14.5
36134	7	Sololá	717	San Juan la Laguna	12	San Juan la Laguna	2	Febrero	2023-11-02T00:00:00	2024-11-08T14:00:00	7	Dirección del viento	14.48
36135	7	Sololá	717	San Juan la Laguna	12	San Juan la Laguna	2	Febrero	2023-11-02T00:00:00	2024-11-08T14:00:00	1	Precipitación	0
36136	7	Sololá	717	San Juan la Laguna	12	San Juan la Laguna	2	Febrero	2023-11-02T00:00:00	2024-11-08T14:00:00	8	Radiación solar	823
36137	7	Sololá	717	San Juan la Laguna	12	San Juan la Laguna	2	Febrero	2023-11-02T00:00:00	2024-11-08T15:00:00	2	Temperatura media	24.4
36138	7	Sololá	717	San Juan la Laguna	12	San Juan la Laguna	2	Febrero	2023-11-02T00:00:00	2024-11-08T15:00:00	4	Temperatura máxima	24.9
36139	7	Sololá	717	San Juan la Laguna	12	San Juan la Laguna	2	Febrero	2023-11-02T00:00:00	2024-11-08T15:00:00	3	Temperatura mínima	24.4
36140	7	Sololá	717	San Juan la Laguna	12	San Juan la Laguna	2	Febrero	2023-11-02T00:00:00	2024-11-08T15:00:00	5	Humedad	41
36141	7	Sololá	717	San Juan la Laguna	12	San Juan la Laguna	2	Febrero	2023-11-02T00:00:00	2024-11-08T15:00:00	6	Velocidad del viento	9.7
36142	7	Sololá	717	San Juan la Laguna	12	San Juan la Laguna	2	Febrero	2023-11-02T00:00:00	2024-11-08T15:00:00	7	Dirección del viento	9.66
36143	7	Sololá	717	San Juan la Laguna	12	San Juan la Laguna	2	Febrero	2023-11-02T00:00:00	2024-11-08T15:00:00	1	Precipitación	0
36144	7	Sololá	717	San Juan la Laguna	12	San Juan la Laguna	2	Febrero	2023-11-02T00:00:00	2024-11-08T15:00:00	8	Radiación solar	708
36145	7	Sololá	717	San Juan la Laguna	12	San Juan la Laguna	2	Febrero	2023-11-02T00:00:00	2024-11-08T16:00:00	2	Temperatura media	23.3
36146	7	Sololá	717	San Juan la Laguna	12	San Juan la Laguna	2	Febrero	2023-11-02T00:00:00	2024-11-08T16:00:00	4	Temperatura máxima	24.4
36147	7	Sololá	717	San Juan la Laguna	12	San Juan la Laguna	2	Febrero	2023-11-02T00:00:00	2024-11-08T16:00:00	3	Temperatura mínima	23.2
36148	7	Sololá	717	San Juan la Laguna	12	San Juan la Laguna	2	Febrero	2023-11-02T00:00:00	2024-11-08T16:00:00	5	Humedad	43
36149	7	Sololá	717	San Juan la Laguna	12	San Juan la Laguna	2	Febrero	2023-11-02T00:00:00	2024-11-08T16:00:00	6	Velocidad del viento	9.7
36150	7	Sololá	717	San Juan la Laguna	12	San Juan la Laguna	2	Febrero	2023-11-02T00:00:00	2024-11-08T16:00:00	7	Dirección del viento	9.66
36151	7	Sololá	717	San Juan la Laguna	12	San Juan la Laguna	2	Febrero	2023-11-02T00:00:00	2024-11-08T16:00:00	1	Precipitación	0
36152	7	Sololá	717	San Juan la Laguna	12	San Juan la Laguna	2	Febrero	2023-11-02T00:00:00	2024-11-08T16:00:00	8	Radiación solar	538
36153	7	Sololá	717	San Juan la Laguna	12	San Juan la Laguna	2	Febrero	2023-11-02T00:00:00	2024-11-08T17:00:00	2	Temperatura media	22.3
36154	7	Sololá	717	San Juan la Laguna	12	San Juan la Laguna	2	Febrero	2023-11-02T00:00:00	2024-11-08T17:00:00	4	Temperatura máxima	23.6
36155	7	Sololá	717	San Juan la Laguna	12	San Juan la Laguna	2	Febrero	2023-11-02T00:00:00	2024-11-08T17:00:00	3	Temperatura mínima	22.3
36156	7	Sololá	717	San Juan la Laguna	12	San Juan la Laguna	2	Febrero	2023-11-02T00:00:00	2024-11-08T17:00:00	5	Humedad	47
36157	7	Sololá	717	San Juan la Laguna	12	San Juan la Laguna	2	Febrero	2023-11-02T00:00:00	2024-11-08T17:00:00	6	Velocidad del viento	8
36158	7	Sololá	717	San Juan la Laguna	12	San Juan la Laguna	2	Febrero	2023-11-02T00:00:00	2024-11-08T17:00:00	7	Dirección del viento	8.05
36159	7	Sololá	717	San Juan la Laguna	12	San Juan la Laguna	2	Febrero	2023-11-02T00:00:00	2024-11-08T17:00:00	1	Precipitación	0
36160	7	Sololá	717	San Juan la Laguna	12	San Juan la Laguna	2	Febrero	2023-11-02T00:00:00	2024-11-08T17:00:00	8	Radiación solar	360
36161	7	Sololá	717	San Juan la Laguna	12	San Juan la Laguna	2	Febrero	2023-11-02T00:00:00	2024-11-08T18:00:00	2	Temperatura media	20.7
36162	7	Sololá	717	San Juan la Laguna	12	San Juan la Laguna	2	Febrero	2023-11-02T00:00:00	2024-11-08T18:00:00	4	Temperatura máxima	22.3
36163	7	Sololá	717	San Juan la Laguna	12	San Juan la Laguna	2	Febrero	2023-11-02T00:00:00	2024-11-08T18:00:00	3	Temperatura mínima	20.6
36164	7	Sololá	717	San Juan la Laguna	12	San Juan la Laguna	2	Febrero	2023-11-02T00:00:00	2024-11-08T18:00:00	5	Humedad	56
36165	7	Sololá	717	San Juan la Laguna	12	San Juan la Laguna	2	Febrero	2023-11-02T00:00:00	2024-11-08T18:00:00	6	Velocidad del viento	9.7
36166	7	Sololá	717	San Juan la Laguna	12	San Juan la Laguna	2	Febrero	2023-11-02T00:00:00	2024-11-08T18:00:00	7	Dirección del viento	9.66
36167	7	Sololá	717	San Juan la Laguna	12	San Juan la Laguna	2	Febrero	2023-11-02T00:00:00	2024-11-08T18:00:00	1	Precipitación	0
36168	7	Sololá	717	San Juan la Laguna	12	San Juan la Laguna	2	Febrero	2023-11-02T00:00:00	2024-11-08T18:00:00	8	Radiación solar	42
36169	7	Sololá	717	San Juan la Laguna	12	San Juan la Laguna	2	Febrero	2023-11-02T00:00:00	2024-11-08T19:00:00	2	Temperatura media	19.7
36170	7	Sololá	717	San Juan la Laguna	12	San Juan la Laguna	2	Febrero	2023-11-02T00:00:00	2024-11-08T19:00:00	4	Temperatura máxima	20.7
36171	7	Sololá	717	San Juan la Laguna	12	San Juan la Laguna	2	Febrero	2023-11-02T00:00:00	2024-11-08T19:00:00	3	Temperatura mínima	19.7
36172	7	Sololá	717	San Juan la Laguna	12	San Juan la Laguna	2	Febrero	2023-11-02T00:00:00	2024-11-08T19:00:00	5	Humedad	59
36173	7	Sololá	717	San Juan la Laguna	12	San Juan la Laguna	2	Febrero	2023-11-02T00:00:00	2024-11-08T19:00:00	6	Velocidad del viento	9.7
36174	7	Sololá	717	San Juan la Laguna	12	San Juan la Laguna	2	Febrero	2023-11-02T00:00:00	2024-11-08T19:00:00	7	Dirección del viento	9.66
36175	7	Sololá	717	San Juan la Laguna	12	San Juan la Laguna	2	Febrero	2023-11-02T00:00:00	2024-11-08T19:00:00	1	Precipitación	0
36176	7	Sololá	717	San Juan la Laguna	12	San Juan la Laguna	2	Febrero	2023-11-02T00:00:00	2024-11-08T19:00:00	8	Radiación solar	0
36177	7	Sololá	717	San Juan la Laguna	12	San Juan la Laguna	2	Febrero	2023-11-02T00:00:00	2024-11-08T20:00:00	2	Temperatura media	18.9
36178	7	Sololá	717	San Juan la Laguna	12	San Juan la Laguna	2	Febrero	2023-11-02T00:00:00	2024-11-08T20:00:00	4	Temperatura máxima	19.7
36179	7	Sololá	717	San Juan la Laguna	12	San Juan la Laguna	2	Febrero	2023-11-02T00:00:00	2024-11-08T20:00:00	3	Temperatura mínima	18.9
36180	7	Sololá	717	San Juan la Laguna	12	San Juan la Laguna	2	Febrero	2023-11-02T00:00:00	2024-11-08T20:00:00	5	Humedad	66
36181	7	Sololá	717	San Juan la Laguna	12	San Juan la Laguna	2	Febrero	2023-11-02T00:00:00	2024-11-08T20:00:00	6	Velocidad del viento	11.3
36182	7	Sololá	717	San Juan la Laguna	12	San Juan la Laguna	2	Febrero	2023-11-02T00:00:00	2024-11-08T20:00:00	7	Dirección del viento	11.27
36183	7	Sololá	717	San Juan la Laguna	12	San Juan la Laguna	2	Febrero	2023-11-02T00:00:00	2024-11-08T20:00:00	1	Precipitación	0
36184	7	Sololá	717	San Juan la Laguna	12	San Juan la Laguna	2	Febrero	2023-11-02T00:00:00	2024-11-08T20:00:00	8	Radiación solar	0
36185	7	Sololá	717	San Juan la Laguna	12	San Juan la Laguna	2	Febrero	2023-11-02T00:00:00	2024-11-08T21:00:00	2	Temperatura media	18.6
36186	7	Sololá	717	San Juan la Laguna	12	San Juan la Laguna	2	Febrero	2023-11-02T00:00:00	2024-11-08T21:00:00	4	Temperatura máxima	18.9
36187	7	Sololá	717	San Juan la Laguna	12	San Juan la Laguna	2	Febrero	2023-11-02T00:00:00	2024-11-08T21:00:00	3	Temperatura mínima	18.6
36188	7	Sololá	717	San Juan la Laguna	12	San Juan la Laguna	2	Febrero	2023-11-02T00:00:00	2024-11-08T21:00:00	5	Humedad	70
36189	7	Sololá	717	San Juan la Laguna	12	San Juan la Laguna	2	Febrero	2023-11-02T00:00:00	2024-11-08T21:00:00	6	Velocidad del viento	12.9
36190	7	Sololá	717	San Juan la Laguna	12	San Juan la Laguna	2	Febrero	2023-11-02T00:00:00	2024-11-08T21:00:00	7	Dirección del viento	12.87
36191	7	Sololá	717	San Juan la Laguna	12	San Juan la Laguna	2	Febrero	2023-11-02T00:00:00	2024-11-08T21:00:00	1	Precipitación	0
36192	7	Sololá	717	San Juan la Laguna	12	San Juan la Laguna	2	Febrero	2023-11-02T00:00:00	2024-11-08T21:00:00	8	Radiación solar	0
36193	7	Sololá	717	San Juan la Laguna	12	San Juan la Laguna	2	Febrero	2023-11-02T00:00:00	2024-11-08T22:00:00	2	Temperatura media	18.6
36194	7	Sololá	717	San Juan la Laguna	12	San Juan la Laguna	2	Febrero	2023-11-02T00:00:00	2024-11-08T22:00:00	4	Temperatura máxima	18.8
36195	7	Sololá	717	San Juan la Laguna	12	San Juan la Laguna	2	Febrero	2023-11-02T00:00:00	2024-11-08T22:00:00	3	Temperatura mínima	18.4
36196	7	Sololá	717	San Juan la Laguna	12	San Juan la Laguna	2	Febrero	2023-11-02T00:00:00	2024-11-08T22:00:00	5	Humedad	69
36197	7	Sololá	717	San Juan la Laguna	12	San Juan la Laguna	2	Febrero	2023-11-02T00:00:00	2024-11-08T22:00:00	6	Velocidad del viento	14.5
36198	7	Sololá	717	San Juan la Laguna	12	San Juan la Laguna	2	Febrero	2023-11-02T00:00:00	2024-11-08T22:00:00	7	Dirección del viento	14.48
36199	7	Sololá	717	San Juan la Laguna	12	San Juan la Laguna	2	Febrero	2023-11-02T00:00:00	2024-11-08T22:00:00	1	Precipitación	0
36200	7	Sololá	717	San Juan la Laguna	12	San Juan la Laguna	2	Febrero	2023-11-02T00:00:00	2024-11-08T22:00:00	8	Radiación solar	0
36201	7	Sololá	717	San Juan la Laguna	12	San Juan la Laguna	2	Febrero	2023-11-02T00:00:00	2024-11-08T23:00:00	2	Temperatura media	18.4
36202	7	Sololá	717	San Juan la Laguna	12	San Juan la Laguna	2	Febrero	2023-11-02T00:00:00	2024-11-08T23:00:00	4	Temperatura máxima	18.6
36203	7	Sololá	717	San Juan la Laguna	12	San Juan la Laguna	2	Febrero	2023-11-02T00:00:00	2024-11-08T23:00:00	3	Temperatura mínima	18.3
36204	7	Sololá	717	San Juan la Laguna	12	San Juan la Laguna	2	Febrero	2023-11-02T00:00:00	2024-11-08T23:00:00	5	Humedad	69
36205	7	Sololá	717	San Juan la Laguna	12	San Juan la Laguna	2	Febrero	2023-11-02T00:00:00	2024-11-08T23:00:00	6	Velocidad del viento	11.3
36206	7	Sololá	717	San Juan la Laguna	12	San Juan la Laguna	2	Febrero	2023-11-02T00:00:00	2024-11-08T23:00:00	7	Dirección del viento	11.27
36207	7	Sololá	717	San Juan la Laguna	12	San Juan la Laguna	2	Febrero	2023-11-02T00:00:00	2024-11-08T23:00:00	1	Precipitación	0
36208	7	Sololá	717	San Juan la Laguna	12	San Juan la Laguna	2	Febrero	2023-11-02T00:00:00	2024-11-08T23:00:00	8	Radiación solar	0
36209	7	Sololá	717	San Juan la Laguna	12	San Juan la Laguna	2	Febrero	2023-12-02T00:00:00	2024-11-08T00:00:00	2	Temperatura media	18.3
36210	7	Sololá	717	San Juan la Laguna	12	San Juan la Laguna	2	Febrero	2023-12-02T00:00:00	2024-11-08T00:00:00	4	Temperatura máxima	18.4
36211	7	Sololá	717	San Juan la Laguna	12	San Juan la Laguna	2	Febrero	2023-12-02T00:00:00	2024-11-08T00:00:00	3	Temperatura mínima	18.1
36212	7	Sololá	717	San Juan la Laguna	12	San Juan la Laguna	2	Febrero	2023-12-02T00:00:00	2024-11-08T00:00:00	5	Humedad	68
36213	7	Sololá	717	San Juan la Laguna	12	San Juan la Laguna	2	Febrero	2023-12-02T00:00:00	2024-11-08T00:00:00	6	Velocidad del viento	9.7
36214	7	Sololá	717	San Juan la Laguna	12	San Juan la Laguna	2	Febrero	2023-12-02T00:00:00	2024-11-08T00:00:00	7	Dirección del viento	9.66
36215	7	Sololá	717	San Juan la Laguna	12	San Juan la Laguna	2	Febrero	2023-12-02T00:00:00	2024-11-08T00:00:00	1	Precipitación	0
36216	7	Sololá	717	San Juan la Laguna	12	San Juan la Laguna	2	Febrero	2023-12-02T00:00:00	2024-11-08T00:00:00	8	Radiación solar	0
36217	7	Sololá	717	San Juan la Laguna	12	San Juan la Laguna	2	Febrero	2023-12-02T00:00:00	2024-11-08T01:00:00	2	Temperatura media	17.7
36218	7	Sololá	717	San Juan la Laguna	12	San Juan la Laguna	2	Febrero	2023-12-02T00:00:00	2024-11-08T01:00:00	4	Temperatura máxima	18.3
36219	7	Sololá	717	San Juan la Laguna	12	San Juan la Laguna	2	Febrero	2023-12-02T00:00:00	2024-11-08T01:00:00	3	Temperatura mínima	17.7
36220	7	Sololá	717	San Juan la Laguna	12	San Juan la Laguna	2	Febrero	2023-12-02T00:00:00	2024-11-08T01:00:00	5	Humedad	71
36221	7	Sololá	717	San Juan la Laguna	12	San Juan la Laguna	2	Febrero	2023-12-02T00:00:00	2024-11-08T01:00:00	6	Velocidad del viento	9.7
36222	7	Sololá	717	San Juan la Laguna	12	San Juan la Laguna	2	Febrero	2023-12-02T00:00:00	2024-11-08T01:00:00	7	Dirección del viento	9.66
36223	7	Sololá	717	San Juan la Laguna	12	San Juan la Laguna	2	Febrero	2023-12-02T00:00:00	2024-11-08T01:00:00	1	Precipitación	0
36224	7	Sololá	717	San Juan la Laguna	12	San Juan la Laguna	2	Febrero	2023-12-02T00:00:00	2024-11-08T01:00:00	8	Radiación solar	0
36225	7	Sololá	717	San Juan la Laguna	12	San Juan la Laguna	2	Febrero	2023-12-02T00:00:00	2024-11-08T02:00:00	2	Temperatura media	17.2
36226	7	Sololá	717	San Juan la Laguna	12	San Juan la Laguna	2	Febrero	2023-12-02T00:00:00	2024-11-08T02:00:00	4	Temperatura máxima	17.7
36227	7	Sololá	717	San Juan la Laguna	12	San Juan la Laguna	2	Febrero	2023-12-02T00:00:00	2024-11-08T02:00:00	3	Temperatura mínima	17.2
36228	7	Sololá	717	San Juan la Laguna	12	San Juan la Laguna	2	Febrero	2023-12-02T00:00:00	2024-11-08T02:00:00	5	Humedad	70
36229	7	Sololá	717	San Juan la Laguna	12	San Juan la Laguna	2	Febrero	2023-12-02T00:00:00	2024-11-08T02:00:00	6	Velocidad del viento	6.4
36230	7	Sololá	717	San Juan la Laguna	12	San Juan la Laguna	2	Febrero	2023-12-02T00:00:00	2024-11-08T02:00:00	7	Dirección del viento	6.44
36231	7	Sololá	717	San Juan la Laguna	12	San Juan la Laguna	2	Febrero	2023-12-02T00:00:00	2024-11-08T02:00:00	1	Precipitación	0
36232	7	Sololá	717	San Juan la Laguna	12	San Juan la Laguna	2	Febrero	2023-12-02T00:00:00	2024-11-08T02:00:00	8	Radiación solar	0
36233	7	Sololá	717	San Juan la Laguna	12	San Juan la Laguna	2	Febrero	2023-12-02T00:00:00	2024-11-08T03:00:00	2	Temperatura media	16.8
36234	7	Sololá	717	San Juan la Laguna	12	San Juan la Laguna	2	Febrero	2023-12-02T00:00:00	2024-11-08T03:00:00	4	Temperatura máxima	17.2
36235	7	Sololá	717	San Juan la Laguna	12	San Juan la Laguna	2	Febrero	2023-12-02T00:00:00	2024-11-08T03:00:00	3	Temperatura mínima	16.8
36236	7	Sololá	717	San Juan la Laguna	12	San Juan la Laguna	2	Febrero	2023-12-02T00:00:00	2024-11-08T03:00:00	5	Humedad	72
36237	7	Sololá	717	San Juan la Laguna	12	San Juan la Laguna	2	Febrero	2023-12-02T00:00:00	2024-11-08T03:00:00	6	Velocidad del viento	6.4
36238	7	Sololá	717	San Juan la Laguna	12	San Juan la Laguna	2	Febrero	2023-12-02T00:00:00	2024-11-08T03:00:00	7	Dirección del viento	6.44
36239	7	Sololá	717	San Juan la Laguna	12	San Juan la Laguna	2	Febrero	2023-12-02T00:00:00	2024-11-08T03:00:00	1	Precipitación	0
36240	7	Sololá	717	San Juan la Laguna	12	San Juan la Laguna	2	Febrero	2023-12-02T00:00:00	2024-11-08T03:00:00	8	Radiación solar	0
36241	7	Sololá	717	San Juan la Laguna	12	San Juan la Laguna	2	Febrero	2023-12-02T00:00:00	2024-11-08T04:00:00	2	Temperatura media	16.3
36242	7	Sololá	717	San Juan la Laguna	12	San Juan la Laguna	2	Febrero	2023-12-02T00:00:00	2024-11-08T04:00:00	4	Temperatura máxima	16.8
36243	7	Sololá	717	San Juan la Laguna	12	San Juan la Laguna	2	Febrero	2023-12-02T00:00:00	2024-11-08T04:00:00	3	Temperatura mínima	16.3
36244	7	Sololá	717	San Juan la Laguna	12	San Juan la Laguna	2	Febrero	2023-12-02T00:00:00	2024-11-08T04:00:00	5	Humedad	71
36245	7	Sololá	717	San Juan la Laguna	12	San Juan la Laguna	2	Febrero	2023-12-02T00:00:00	2024-11-08T04:00:00	6	Velocidad del viento	6.4
36246	7	Sololá	717	San Juan la Laguna	12	San Juan la Laguna	2	Febrero	2023-12-02T00:00:00	2024-11-08T04:00:00	7	Dirección del viento	6.44
36247	7	Sololá	717	San Juan la Laguna	12	San Juan la Laguna	2	Febrero	2023-12-02T00:00:00	2024-11-08T04:00:00	1	Precipitación	0
36248	7	Sololá	717	San Juan la Laguna	12	San Juan la Laguna	2	Febrero	2023-12-02T00:00:00	2024-11-08T04:00:00	8	Radiación solar	0
36249	7	Sololá	717	San Juan la Laguna	12	San Juan la Laguna	2	Febrero	2023-12-02T00:00:00	2024-11-08T05:00:00	2	Temperatura media	16.3
36250	7	Sololá	717	San Juan la Laguna	12	San Juan la Laguna	2	Febrero	2023-12-02T00:00:00	2024-11-08T05:00:00	4	Temperatura máxima	16.5
36251	7	Sololá	717	San Juan la Laguna	12	San Juan la Laguna	2	Febrero	2023-12-02T00:00:00	2024-11-08T05:00:00	3	Temperatura mínima	15.8
36252	7	Sololá	717	San Juan la Laguna	12	San Juan la Laguna	2	Febrero	2023-12-02T00:00:00	2024-11-08T05:00:00	5	Humedad	70
36253	7	Sololá	717	San Juan la Laguna	12	San Juan la Laguna	2	Febrero	2023-12-02T00:00:00	2024-11-08T05:00:00	6	Velocidad del viento	4.8
36254	7	Sololá	717	San Juan la Laguna	12	San Juan la Laguna	2	Febrero	2023-12-02T00:00:00	2024-11-08T05:00:00	7	Dirección del viento	4.83
36255	7	Sololá	717	San Juan la Laguna	12	San Juan la Laguna	2	Febrero	2023-12-02T00:00:00	2024-11-08T05:00:00	1	Precipitación	0
36256	7	Sololá	717	San Juan la Laguna	12	San Juan la Laguna	2	Febrero	2023-12-02T00:00:00	2024-11-08T05:00:00	8	Radiación solar	0
36257	7	Sololá	717	San Juan la Laguna	12	San Juan la Laguna	2	Febrero	2023-12-02T00:00:00	2024-11-08T06:00:00	2	Temperatura media	16.5
36258	7	Sololá	717	San Juan la Laguna	12	San Juan la Laguna	2	Febrero	2023-12-02T00:00:00	2024-11-08T06:00:00	4	Temperatura máxima	16.5
36259	7	Sololá	717	San Juan la Laguna	12	San Juan la Laguna	2	Febrero	2023-12-02T00:00:00	2024-11-08T06:00:00	3	Temperatura mínima	16.2
36260	7	Sololá	717	San Juan la Laguna	12	San Juan la Laguna	2	Febrero	2023-12-02T00:00:00	2024-11-08T06:00:00	5	Humedad	66
36261	7	Sololá	717	San Juan la Laguna	12	San Juan la Laguna	2	Febrero	2023-12-02T00:00:00	2024-11-08T06:00:00	6	Velocidad del viento	3.2
36262	7	Sololá	717	San Juan la Laguna	12	San Juan la Laguna	2	Febrero	2023-12-02T00:00:00	2024-11-08T06:00:00	7	Dirección del viento	3.22
36263	7	Sololá	717	San Juan la Laguna	12	San Juan la Laguna	2	Febrero	2023-12-02T00:00:00	2024-11-08T06:00:00	1	Precipitación	0
36264	7	Sololá	717	San Juan la Laguna	12	San Juan la Laguna	2	Febrero	2023-12-02T00:00:00	2024-11-08T06:00:00	8	Radiación solar	0
36265	7	Sololá	717	San Juan la Laguna	12	San Juan la Laguna	2	Febrero	2023-12-02T00:00:00	2024-11-08T07:00:00	2	Temperatura media	17
36266	7	Sololá	717	San Juan la Laguna	12	San Juan la Laguna	2	Febrero	2023-12-02T00:00:00	2024-11-08T07:00:00	4	Temperatura máxima	17
36267	7	Sololá	717	San Juan la Laguna	12	San Juan la Laguna	2	Febrero	2023-12-02T00:00:00	2024-11-08T07:00:00	3	Temperatura mínima	16.3
36268	7	Sololá	717	San Juan la Laguna	12	San Juan la Laguna	2	Febrero	2023-12-02T00:00:00	2024-11-08T07:00:00	5	Humedad	63
36269	7	Sololá	717	San Juan la Laguna	12	San Juan la Laguna	2	Febrero	2023-12-02T00:00:00	2024-11-08T07:00:00	6	Velocidad del viento	6.4
36270	7	Sololá	717	San Juan la Laguna	12	San Juan la Laguna	2	Febrero	2023-12-02T00:00:00	2024-11-08T07:00:00	7	Dirección del viento	6.44
36271	7	Sololá	717	San Juan la Laguna	12	San Juan la Laguna	2	Febrero	2023-12-02T00:00:00	2024-11-08T07:00:00	1	Precipitación	0
36272	7	Sololá	717	San Juan la Laguna	12	San Juan la Laguna	2	Febrero	2023-12-02T00:00:00	2024-11-08T07:00:00	8	Radiación solar	7
36273	7	Sololá	717	San Juan la Laguna	12	San Juan la Laguna	2	Febrero	2023-12-02T00:00:00	2024-11-08T08:00:00	2	Temperatura media	18.8
36274	7	Sololá	717	San Juan la Laguna	12	San Juan la Laguna	2	Febrero	2023-12-02T00:00:00	2024-11-08T08:00:00	4	Temperatura máxima	18.8
36275	7	Sololá	717	San Juan la Laguna	12	San Juan la Laguna	2	Febrero	2023-12-02T00:00:00	2024-11-08T08:00:00	3	Temperatura mínima	17
36276	7	Sololá	717	San Juan la Laguna	12	San Juan la Laguna	2	Febrero	2023-12-02T00:00:00	2024-11-08T08:00:00	5	Humedad	57
36277	7	Sololá	717	San Juan la Laguna	12	San Juan la Laguna	2	Febrero	2023-12-02T00:00:00	2024-11-08T08:00:00	6	Velocidad del viento	6.4
36278	7	Sololá	717	San Juan la Laguna	12	San Juan la Laguna	2	Febrero	2023-12-02T00:00:00	2024-11-08T08:00:00	7	Dirección del viento	6.44
36279	7	Sololá	717	San Juan la Laguna	12	San Juan la Laguna	2	Febrero	2023-12-02T00:00:00	2024-11-08T08:00:00	1	Precipitación	0
36280	7	Sololá	717	San Juan la Laguna	12	San Juan la Laguna	2	Febrero	2023-12-02T00:00:00	2024-11-08T08:00:00	8	Radiación solar	157
36281	7	Sololá	717	San Juan la Laguna	12	San Juan la Laguna	2	Febrero	2023-12-02T00:00:00	2024-11-08T09:00:00	2	Temperatura media	19.8
36282	7	Sololá	717	San Juan la Laguna	12	San Juan la Laguna	2	Febrero	2023-12-02T00:00:00	2024-11-08T09:00:00	4	Temperatura máxima	20.1
36283	7	Sololá	717	San Juan la Laguna	12	San Juan la Laguna	2	Febrero	2023-12-02T00:00:00	2024-11-08T09:00:00	3	Temperatura mínima	18.8
36284	7	Sololá	717	San Juan la Laguna	12	San Juan la Laguna	2	Febrero	2023-12-02T00:00:00	2024-11-08T09:00:00	5	Humedad	55
36285	7	Sololá	717	San Juan la Laguna	12	San Juan la Laguna	2	Febrero	2023-12-02T00:00:00	2024-11-08T09:00:00	6	Velocidad del viento	8
36286	7	Sololá	717	San Juan la Laguna	12	San Juan la Laguna	2	Febrero	2023-12-02T00:00:00	2024-11-08T09:00:00	7	Dirección del viento	8.05
36287	7	Sololá	717	San Juan la Laguna	12	San Juan la Laguna	2	Febrero	2023-12-02T00:00:00	2024-11-08T09:00:00	1	Precipitación	0
36288	7	Sololá	717	San Juan la Laguna	12	San Juan la Laguna	2	Febrero	2023-12-02T00:00:00	2024-11-08T09:00:00	8	Radiación solar	380
36289	7	Sololá	717	San Juan la Laguna	12	San Juan la Laguna	2	Febrero	2023-12-02T00:00:00	2024-11-08T10:00:00	2	Temperatura media	20.6
36290	7	Sololá	717	San Juan la Laguna	12	San Juan la Laguna	2	Febrero	2023-12-02T00:00:00	2024-11-08T10:00:00	4	Temperatura máxima	20.7
36291	7	Sololá	717	San Juan la Laguna	12	San Juan la Laguna	2	Febrero	2023-12-02T00:00:00	2024-11-08T10:00:00	3	Temperatura mínima	19.8
36292	7	Sololá	717	San Juan la Laguna	12	San Juan la Laguna	2	Febrero	2023-12-02T00:00:00	2024-11-08T10:00:00	5	Humedad	53
36293	7	Sololá	717	San Juan la Laguna	12	San Juan la Laguna	2	Febrero	2023-12-02T00:00:00	2024-11-08T10:00:00	6	Velocidad del viento	9.7
36294	7	Sololá	717	San Juan la Laguna	12	San Juan la Laguna	2	Febrero	2023-12-02T00:00:00	2024-11-08T10:00:00	7	Dirección del viento	9.66
36295	7	Sololá	717	San Juan la Laguna	12	San Juan la Laguna	2	Febrero	2023-12-02T00:00:00	2024-11-08T10:00:00	1	Precipitación	0
36296	7	Sololá	717	San Juan la Laguna	12	San Juan la Laguna	2	Febrero	2023-12-02T00:00:00	2024-11-08T10:00:00	8	Radiación solar	591
36297	7	Sololá	717	San Juan la Laguna	12	San Juan la Laguna	2	Febrero	2023-12-02T00:00:00	2024-11-08T11:00:00	2	Temperatura media	21.2
36298	7	Sololá	717	San Juan la Laguna	12	San Juan la Laguna	2	Febrero	2023-12-02T00:00:00	2024-11-08T11:00:00	4	Temperatura máxima	21.5
36299	7	Sololá	717	San Juan la Laguna	12	San Juan la Laguna	2	Febrero	2023-12-02T00:00:00	2024-11-08T11:00:00	3	Temperatura mínima	20.6
36300	7	Sololá	717	San Juan la Laguna	12	San Juan la Laguna	2	Febrero	2023-12-02T00:00:00	2024-11-08T11:00:00	5	Humedad	51
36301	7	Sololá	717	San Juan la Laguna	12	San Juan la Laguna	2	Febrero	2023-12-02T00:00:00	2024-11-08T11:00:00	6	Velocidad del viento	11.3
36302	7	Sololá	717	San Juan la Laguna	12	San Juan la Laguna	2	Febrero	2023-12-02T00:00:00	2024-11-08T11:00:00	7	Dirección del viento	11.27
36303	7	Sololá	717	San Juan la Laguna	12	San Juan la Laguna	2	Febrero	2023-12-02T00:00:00	2024-11-08T11:00:00	1	Precipitación	0
36304	7	Sololá	717	San Juan la Laguna	12	San Juan la Laguna	2	Febrero	2023-12-02T00:00:00	2024-11-08T11:00:00	8	Radiación solar	747
36305	7	Sololá	717	San Juan la Laguna	12	San Juan la Laguna	2	Febrero	2023-12-02T00:00:00	2024-11-08T12:00:00	2	Temperatura media	22.3
36306	7	Sololá	717	San Juan la Laguna	12	San Juan la Laguna	2	Febrero	2023-12-02T00:00:00	2024-11-08T12:00:00	4	Temperatura máxima	22.6
36307	7	Sololá	717	San Juan la Laguna	12	San Juan la Laguna	2	Febrero	2023-12-02T00:00:00	2024-11-08T12:00:00	3	Temperatura mínima	21
36308	7	Sololá	717	San Juan la Laguna	12	San Juan la Laguna	2	Febrero	2023-12-02T00:00:00	2024-11-08T12:00:00	5	Humedad	49
36309	7	Sololá	717	San Juan la Laguna	12	San Juan la Laguna	2	Febrero	2023-12-02T00:00:00	2024-11-08T12:00:00	6	Velocidad del viento	11.3
36310	7	Sololá	717	San Juan la Laguna	12	San Juan la Laguna	2	Febrero	2023-12-02T00:00:00	2024-11-08T12:00:00	7	Dirección del viento	11.27
36311	7	Sololá	717	San Juan la Laguna	12	San Juan la Laguna	2	Febrero	2023-12-02T00:00:00	2024-11-08T12:00:00	1	Precipitación	0
36312	7	Sololá	717	San Juan la Laguna	12	San Juan la Laguna	2	Febrero	2023-12-02T00:00:00	2024-11-08T12:00:00	8	Radiación solar	742
36313	7	Sololá	717	San Juan la Laguna	12	San Juan la Laguna	2	Febrero	2023-12-02T00:00:00	2024-11-08T13:00:00	2	Temperatura media	23.3
36314	7	Sololá	717	San Juan la Laguna	12	San Juan la Laguna	2	Febrero	2023-12-02T00:00:00	2024-11-08T13:00:00	4	Temperatura máxima	23.3
36315	7	Sololá	717	San Juan la Laguna	12	San Juan la Laguna	2	Febrero	2023-12-02T00:00:00	2024-11-08T13:00:00	3	Temperatura mínima	22.3
36316	7	Sololá	717	San Juan la Laguna	12	San Juan la Laguna	2	Febrero	2023-12-02T00:00:00	2024-11-08T13:00:00	5	Humedad	47
36317	7	Sololá	717	San Juan la Laguna	12	San Juan la Laguna	2	Febrero	2023-12-02T00:00:00	2024-11-08T13:00:00	6	Velocidad del viento	11.3
36318	7	Sololá	717	San Juan la Laguna	12	San Juan la Laguna	2	Febrero	2023-12-02T00:00:00	2024-11-08T13:00:00	7	Dirección del viento	11.27
36319	7	Sololá	717	San Juan la Laguna	12	San Juan la Laguna	2	Febrero	2023-12-02T00:00:00	2024-11-08T13:00:00	1	Precipitación	0
36320	7	Sololá	717	San Juan la Laguna	12	San Juan la Laguna	2	Febrero	2023-12-02T00:00:00	2024-11-08T13:00:00	8	Radiación solar	868
36321	7	Sololá	717	San Juan la Laguna	12	San Juan la Laguna	2	Febrero	2023-12-02T00:00:00	2024-11-08T14:00:00	2	Temperatura media	24.3
36322	7	Sololá	717	San Juan la Laguna	12	San Juan la Laguna	2	Febrero	2023-12-02T00:00:00	2024-11-08T14:00:00	4	Temperatura máxima	24.3
36323	7	Sololá	717	San Juan la Laguna	12	San Juan la Laguna	2	Febrero	2023-12-02T00:00:00	2024-11-08T14:00:00	3	Temperatura mínima	23.3
36324	7	Sololá	717	San Juan la Laguna	12	San Juan la Laguna	2	Febrero	2023-12-02T00:00:00	2024-11-08T14:00:00	5	Humedad	44
36325	7	Sololá	717	San Juan la Laguna	12	San Juan la Laguna	2	Febrero	2023-12-02T00:00:00	2024-11-08T14:00:00	6	Velocidad del viento	8
36326	7	Sololá	717	San Juan la Laguna	12	San Juan la Laguna	2	Febrero	2023-12-02T00:00:00	2024-11-08T14:00:00	7	Dirección del viento	8.05
36327	7	Sololá	717	San Juan la Laguna	12	San Juan la Laguna	2	Febrero	2023-12-02T00:00:00	2024-11-08T14:00:00	1	Precipitación	0
36328	7	Sololá	717	San Juan la Laguna	12	San Juan la Laguna	2	Febrero	2023-12-02T00:00:00	2024-11-08T14:00:00	8	Radiación solar	824
36329	7	Sololá	717	San Juan la Laguna	12	San Juan la Laguna	2	Febrero	2023-12-02T00:00:00	2024-11-08T15:00:00	2	Temperatura media	24.8
36330	7	Sololá	717	San Juan la Laguna	12	San Juan la Laguna	2	Febrero	2023-12-02T00:00:00	2024-11-08T15:00:00	4	Temperatura máxima	24.9
36331	7	Sololá	717	San Juan la Laguna	12	San Juan la Laguna	2	Febrero	2023-12-02T00:00:00	2024-11-08T15:00:00	3	Temperatura mínima	24.1
36332	7	Sololá	717	San Juan la Laguna	12	San Juan la Laguna	2	Febrero	2023-12-02T00:00:00	2024-11-08T15:00:00	5	Humedad	42
36333	7	Sololá	717	San Juan la Laguna	12	San Juan la Laguna	2	Febrero	2023-12-02T00:00:00	2024-11-08T15:00:00	6	Velocidad del viento	4.8
36334	7	Sololá	717	San Juan la Laguna	12	San Juan la Laguna	2	Febrero	2023-12-02T00:00:00	2024-11-08T15:00:00	7	Dirección del viento	4.83
36335	7	Sololá	717	San Juan la Laguna	12	San Juan la Laguna	2	Febrero	2023-12-02T00:00:00	2024-11-08T15:00:00	1	Precipitación	0
36336	7	Sololá	717	San Juan la Laguna	12	San Juan la Laguna	2	Febrero	2023-12-02T00:00:00	2024-11-08T15:00:00	8	Radiación solar	711
36337	7	Sololá	717	San Juan la Laguna	12	San Juan la Laguna	2	Febrero	2023-12-02T00:00:00	2024-11-08T16:00:00	2	Temperatura media	24.1
36338	7	Sololá	717	San Juan la Laguna	12	San Juan la Laguna	2	Febrero	2023-12-02T00:00:00	2024-11-08T16:00:00	4	Temperatura máxima	24.9
36339	7	Sololá	717	San Juan la Laguna	12	San Juan la Laguna	2	Febrero	2023-12-02T00:00:00	2024-11-08T16:00:00	3	Temperatura mínima	24.1
36340	7	Sololá	717	San Juan la Laguna	12	San Juan la Laguna	2	Febrero	2023-12-02T00:00:00	2024-11-08T16:00:00	5	Humedad	50
36341	7	Sololá	717	San Juan la Laguna	12	San Juan la Laguna	2	Febrero	2023-12-02T00:00:00	2024-11-08T16:00:00	6	Velocidad del viento	4.8
36342	7	Sololá	717	San Juan la Laguna	12	San Juan la Laguna	2	Febrero	2023-12-02T00:00:00	2024-11-08T16:00:00	7	Dirección del viento	4.83
36343	7	Sololá	717	San Juan la Laguna	12	San Juan la Laguna	2	Febrero	2023-12-02T00:00:00	2024-11-08T16:00:00	1	Precipitación	0
36344	7	Sololá	717	San Juan la Laguna	12	San Juan la Laguna	2	Febrero	2023-12-02T00:00:00	2024-11-08T16:00:00	8	Radiación solar	542
36345	7	Sololá	717	San Juan la Laguna	12	San Juan la Laguna	2	Febrero	2023-12-02T00:00:00	2024-11-08T17:00:00	2	Temperatura media	22.9
36346	7	Sololá	717	San Juan la Laguna	12	San Juan la Laguna	2	Febrero	2023-12-02T00:00:00	2024-11-08T17:00:00	4	Temperatura máxima	24.1
36347	7	Sololá	717	San Juan la Laguna	12	San Juan la Laguna	2	Febrero	2023-12-02T00:00:00	2024-11-08T17:00:00	3	Temperatura mínima	22.9
36348	7	Sololá	717	San Juan la Laguna	12	San Juan la Laguna	2	Febrero	2023-12-02T00:00:00	2024-11-08T17:00:00	5	Humedad	49
36349	7	Sololá	717	San Juan la Laguna	12	San Juan la Laguna	2	Febrero	2023-12-02T00:00:00	2024-11-08T17:00:00	6	Velocidad del viento	4.8
36350	7	Sololá	717	San Juan la Laguna	12	San Juan la Laguna	2	Febrero	2023-12-02T00:00:00	2024-11-08T17:00:00	7	Dirección del viento	4.83
36351	7	Sololá	717	San Juan la Laguna	12	San Juan la Laguna	2	Febrero	2023-12-02T00:00:00	2024-11-08T17:00:00	1	Precipitación	0
36352	7	Sololá	717	San Juan la Laguna	12	San Juan la Laguna	2	Febrero	2023-12-02T00:00:00	2024-11-08T17:00:00	8	Radiación solar	329
36353	7	Sololá	717	San Juan la Laguna	12	San Juan la Laguna	2	Febrero	2023-12-02T00:00:00	2024-11-08T18:00:00	2	Temperatura media	21.2
36354	7	Sololá	717	San Juan la Laguna	12	San Juan la Laguna	2	Febrero	2023-12-02T00:00:00	2024-11-08T18:00:00	4	Temperatura máxima	23
36355	7	Sololá	717	San Juan la Laguna	12	San Juan la Laguna	2	Febrero	2023-12-02T00:00:00	2024-11-08T18:00:00	3	Temperatura mínima	21.2
36356	7	Sololá	717	San Juan la Laguna	12	San Juan la Laguna	2	Febrero	2023-12-02T00:00:00	2024-11-08T18:00:00	5	Humedad	54
36357	7	Sololá	717	San Juan la Laguna	12	San Juan la Laguna	2	Febrero	2023-12-02T00:00:00	2024-11-08T18:00:00	6	Velocidad del viento	4.8
36358	7	Sololá	717	San Juan la Laguna	12	San Juan la Laguna	2	Febrero	2023-12-02T00:00:00	2024-11-08T18:00:00	7	Dirección del viento	4.83
36359	7	Sololá	717	San Juan la Laguna	12	San Juan la Laguna	2	Febrero	2023-12-02T00:00:00	2024-11-08T18:00:00	1	Precipitación	0
36360	7	Sololá	717	San Juan la Laguna	12	San Juan la Laguna	2	Febrero	2023-12-02T00:00:00	2024-11-08T18:00:00	8	Radiación solar	32
36361	7	Sololá	717	San Juan la Laguna	12	San Juan la Laguna	2	Febrero	2023-12-02T00:00:00	2024-11-08T19:00:00	2	Temperatura media	19.9
36362	7	Sololá	717	San Juan la Laguna	12	San Juan la Laguna	2	Febrero	2023-12-02T00:00:00	2024-11-08T19:00:00	4	Temperatura máxima	21.2
36363	7	Sololá	717	San Juan la Laguna	12	San Juan la Laguna	2	Febrero	2023-12-02T00:00:00	2024-11-08T19:00:00	3	Temperatura mínima	19.9
36364	7	Sololá	717	San Juan la Laguna	12	San Juan la Laguna	2	Febrero	2023-12-02T00:00:00	2024-11-08T19:00:00	5	Humedad	56
36365	7	Sololá	717	San Juan la Laguna	12	San Juan la Laguna	2	Febrero	2023-12-02T00:00:00	2024-11-08T19:00:00	6	Velocidad del viento	6.4
36366	7	Sololá	717	San Juan la Laguna	12	San Juan la Laguna	2	Febrero	2023-12-02T00:00:00	2024-11-08T19:00:00	7	Dirección del viento	6.44
36367	7	Sololá	717	San Juan la Laguna	12	San Juan la Laguna	2	Febrero	2023-12-02T00:00:00	2024-11-08T19:00:00	1	Precipitación	0
36368	7	Sololá	717	San Juan la Laguna	12	San Juan la Laguna	2	Febrero	2023-12-02T00:00:00	2024-11-08T19:00:00	8	Radiación solar	0
36369	7	Sololá	717	San Juan la Laguna	12	San Juan la Laguna	2	Febrero	2023-12-02T00:00:00	2024-11-08T20:00:00	2	Temperatura media	18.4
36370	7	Sololá	717	San Juan la Laguna	12	San Juan la Laguna	2	Febrero	2023-12-02T00:00:00	2024-11-08T20:00:00	4	Temperatura máxima	19.9
36371	7	Sololá	717	San Juan la Laguna	12	San Juan la Laguna	2	Febrero	2023-12-02T00:00:00	2024-11-08T20:00:00	3	Temperatura mínima	18.4
36372	7	Sololá	717	San Juan la Laguna	12	San Juan la Laguna	2	Febrero	2023-12-02T00:00:00	2024-11-08T20:00:00	5	Humedad	59
36373	7	Sololá	717	San Juan la Laguna	12	San Juan la Laguna	2	Febrero	2023-12-02T00:00:00	2024-11-08T20:00:00	6	Velocidad del viento	8
36374	7	Sololá	717	San Juan la Laguna	12	San Juan la Laguna	2	Febrero	2023-12-02T00:00:00	2024-11-08T20:00:00	7	Dirección del viento	8.05
36375	7	Sololá	717	San Juan la Laguna	12	San Juan la Laguna	2	Febrero	2023-12-02T00:00:00	2024-11-08T20:00:00	1	Precipitación	0
36376	7	Sololá	717	San Juan la Laguna	12	San Juan la Laguna	2	Febrero	2023-12-02T00:00:00	2024-11-08T20:00:00	8	Radiación solar	0
36377	7	Sololá	717	San Juan la Laguna	12	San Juan la Laguna	2	Febrero	2023-12-02T00:00:00	2024-11-08T21:00:00	2	Temperatura media	17.5
36378	7	Sololá	717	San Juan la Laguna	12	San Juan la Laguna	2	Febrero	2023-12-02T00:00:00	2024-11-08T21:00:00	4	Temperatura máxima	18.4
36379	7	Sololá	717	San Juan la Laguna	12	San Juan la Laguna	2	Febrero	2023-12-02T00:00:00	2024-11-08T21:00:00	3	Temperatura mínima	17.4
36380	7	Sololá	717	San Juan la Laguna	12	San Juan la Laguna	2	Febrero	2023-12-02T00:00:00	2024-11-08T21:00:00	5	Humedad	62
36381	7	Sololá	717	San Juan la Laguna	12	San Juan la Laguna	2	Febrero	2023-12-02T00:00:00	2024-11-08T21:00:00	6	Velocidad del viento	3.2
36382	7	Sololá	717	San Juan la Laguna	12	San Juan la Laguna	2	Febrero	2023-12-02T00:00:00	2024-11-08T21:00:00	7	Dirección del viento	3.22
36383	7	Sololá	717	San Juan la Laguna	12	San Juan la Laguna	2	Febrero	2023-12-02T00:00:00	2024-11-08T21:00:00	1	Precipitación	0
36384	7	Sololá	717	San Juan la Laguna	12	San Juan la Laguna	2	Febrero	2023-12-02T00:00:00	2024-11-08T21:00:00	8	Radiación solar	0
36385	7	Sololá	717	San Juan la Laguna	12	San Juan la Laguna	2	Febrero	2023-12-02T00:00:00	2024-11-08T22:00:00	2	Temperatura media	17.3
36386	7	Sololá	717	San Juan la Laguna	12	San Juan la Laguna	2	Febrero	2023-12-02T00:00:00	2024-11-08T22:00:00	4	Temperatura máxima	17.5
36387	7	Sololá	717	San Juan la Laguna	12	San Juan la Laguna	2	Febrero	2023-12-02T00:00:00	2024-11-08T22:00:00	3	Temperatura mínima	16.9
36388	7	Sololá	717	San Juan la Laguna	12	San Juan la Laguna	2	Febrero	2023-12-02T00:00:00	2024-11-08T22:00:00	5	Humedad	64
36389	7	Sololá	717	San Juan la Laguna	12	San Juan la Laguna	2	Febrero	2023-12-02T00:00:00	2024-11-08T22:00:00	6	Velocidad del viento	1.6
36390	7	Sololá	717	San Juan la Laguna	12	San Juan la Laguna	2	Febrero	2023-12-02T00:00:00	2024-11-08T22:00:00	7	Dirección del viento	1.61
36391	7	Sololá	717	San Juan la Laguna	12	San Juan la Laguna	2	Febrero	2023-12-02T00:00:00	2024-11-08T22:00:00	1	Precipitación	0
36392	7	Sololá	717	San Juan la Laguna	12	San Juan la Laguna	2	Febrero	2023-12-02T00:00:00	2024-11-08T22:00:00	8	Radiación solar	0
36393	7	Sololá	717	San Juan la Laguna	12	San Juan la Laguna	2	Febrero	2023-12-02T00:00:00	2024-11-08T23:00:00	2	Temperatura media	16.7
36394	7	Sololá	717	San Juan la Laguna	12	San Juan la Laguna	2	Febrero	2023-12-02T00:00:00	2024-11-08T23:00:00	4	Temperatura máxima	17.3
36395	7	Sololá	717	San Juan la Laguna	12	San Juan la Laguna	2	Febrero	2023-12-02T00:00:00	2024-11-08T23:00:00	3	Temperatura mínima	16.7
36396	7	Sololá	717	San Juan la Laguna	12	San Juan la Laguna	2	Febrero	2023-12-02T00:00:00	2024-11-08T23:00:00	5	Humedad	67
36397	7	Sololá	717	San Juan la Laguna	12	San Juan la Laguna	2	Febrero	2023-12-02T00:00:00	2024-11-08T23:00:00	6	Velocidad del viento	3.2
36398	7	Sololá	717	San Juan la Laguna	12	San Juan la Laguna	2	Febrero	2023-12-02T00:00:00	2024-11-08T23:00:00	7	Dirección del viento	3.22
36399	7	Sololá	717	San Juan la Laguna	12	San Juan la Laguna	2	Febrero	2023-12-02T00:00:00	2024-11-08T23:00:00	1	Precipitación	0
36400	7	Sololá	717	San Juan la Laguna	12	San Juan la Laguna	2	Febrero	2023-12-02T00:00:00	2024-11-08T23:00:00	8	Radiación solar	0
36401	7	Sololá	717	San Juan la Laguna	12	San Juan la Laguna	2	Febrero	2023-02-13T00:00:00	2024-11-08T00:00:00	2	Temperatura media	17.1
36402	7	Sololá	717	San Juan la Laguna	12	San Juan la Laguna	2	Febrero	2023-02-13T00:00:00	2024-11-08T00:00:00	4	Temperatura máxima	17.2
36403	7	Sololá	717	San Juan la Laguna	12	San Juan la Laguna	2	Febrero	2023-02-13T00:00:00	2024-11-08T00:00:00	3	Temperatura mínima	16.6
36404	7	Sololá	717	San Juan la Laguna	12	San Juan la Laguna	2	Febrero	2023-02-13T00:00:00	2024-11-08T00:00:00	5	Humedad	64
36405	7	Sololá	717	San Juan la Laguna	12	San Juan la Laguna	2	Febrero	2023-02-13T00:00:00	2024-11-08T00:00:00	6	Velocidad del viento	3.2
36406	7	Sololá	717	San Juan la Laguna	12	San Juan la Laguna	2	Febrero	2023-02-13T00:00:00	2024-11-08T00:00:00	7	Dirección del viento	3.22
36407	7	Sololá	717	San Juan la Laguna	12	San Juan la Laguna	2	Febrero	2023-02-13T00:00:00	2024-11-08T00:00:00	1	Precipitación	0
36408	7	Sololá	717	San Juan la Laguna	12	San Juan la Laguna	2	Febrero	2023-02-13T00:00:00	2024-11-08T00:00:00	8	Radiación solar	0
36409	7	Sololá	717	San Juan la Laguna	12	San Juan la Laguna	2	Febrero	2023-02-13T00:00:00	2024-11-08T01:00:00	2	Temperatura media	13.9
36410	7	Sololá	717	San Juan la Laguna	12	San Juan la Laguna	2	Febrero	2023-02-13T00:00:00	2024-11-08T01:00:00	4	Temperatura máxima	17.1
36411	7	Sololá	717	San Juan la Laguna	12	San Juan la Laguna	2	Febrero	2023-02-13T00:00:00	2024-11-08T01:00:00	3	Temperatura mínima	13.9
36412	7	Sololá	717	San Juan la Laguna	12	San Juan la Laguna	2	Febrero	2023-02-13T00:00:00	2024-11-08T01:00:00	5	Humedad	74
36413	7	Sololá	717	San Juan la Laguna	12	San Juan la Laguna	2	Febrero	2023-02-13T00:00:00	2024-11-08T01:00:00	6	Velocidad del viento	1.6
36414	7	Sololá	717	San Juan la Laguna	12	San Juan la Laguna	2	Febrero	2023-02-13T00:00:00	2024-11-08T01:00:00	7	Dirección del viento	1.61
36415	7	Sololá	717	San Juan la Laguna	12	San Juan la Laguna	2	Febrero	2023-02-13T00:00:00	2024-11-08T01:00:00	1	Precipitación	0
36416	7	Sololá	717	San Juan la Laguna	12	San Juan la Laguna	2	Febrero	2023-02-13T00:00:00	2024-11-08T01:00:00	8	Radiación solar	0
36417	7	Sololá	717	San Juan la Laguna	12	San Juan la Laguna	2	Febrero	2023-02-13T00:00:00	2024-11-08T02:00:00	2	Temperatura media	13.1
36418	7	Sololá	717	San Juan la Laguna	12	San Juan la Laguna	2	Febrero	2023-02-13T00:00:00	2024-11-08T02:00:00	4	Temperatura máxima	13.9
36419	7	Sololá	717	San Juan la Laguna	12	San Juan la Laguna	2	Febrero	2023-02-13T00:00:00	2024-11-08T02:00:00	3	Temperatura mínima	13.1
36420	7	Sololá	717	San Juan la Laguna	12	San Juan la Laguna	2	Febrero	2023-02-13T00:00:00	2024-11-08T02:00:00	5	Humedad	77
36421	7	Sololá	717	San Juan la Laguna	12	San Juan la Laguna	2	Febrero	2023-02-13T00:00:00	2024-11-08T02:00:00	6	Velocidad del viento	3.2
36422	7	Sololá	717	San Juan la Laguna	12	San Juan la Laguna	2	Febrero	2023-02-13T00:00:00	2024-11-08T02:00:00	7	Dirección del viento	3.22
36423	7	Sololá	717	San Juan la Laguna	12	San Juan la Laguna	2	Febrero	2023-02-13T00:00:00	2024-11-08T02:00:00	1	Precipitación	0
36424	7	Sololá	717	San Juan la Laguna	12	San Juan la Laguna	2	Febrero	2023-02-13T00:00:00	2024-11-08T02:00:00	8	Radiación solar	0
36425	7	Sololá	717	San Juan la Laguna	12	San Juan la Laguna	2	Febrero	2023-02-13T00:00:00	2024-11-08T03:00:00	2	Temperatura media	15.6
36426	7	Sololá	717	San Juan la Laguna	12	San Juan la Laguna	2	Febrero	2023-02-13T00:00:00	2024-11-08T03:00:00	4	Temperatura máxima	15.6
36427	7	Sololá	717	San Juan la Laguna	12	San Juan la Laguna	2	Febrero	2023-02-13T00:00:00	2024-11-08T03:00:00	3	Temperatura mínima	13.1
36428	7	Sololá	717	San Juan la Laguna	12	San Juan la Laguna	2	Febrero	2023-02-13T00:00:00	2024-11-08T03:00:00	5	Humedad	70
36429	7	Sololá	717	San Juan la Laguna	12	San Juan la Laguna	2	Febrero	2023-02-13T00:00:00	2024-11-08T03:00:00	6	Velocidad del viento	1.6
36430	7	Sololá	717	San Juan la Laguna	12	San Juan la Laguna	2	Febrero	2023-02-13T00:00:00	2024-11-08T03:00:00	7	Dirección del viento	1.61
36431	7	Sololá	717	San Juan la Laguna	12	San Juan la Laguna	2	Febrero	2023-02-13T00:00:00	2024-11-08T03:00:00	1	Precipitación	0
36432	7	Sololá	717	San Juan la Laguna	12	San Juan la Laguna	2	Febrero	2023-02-13T00:00:00	2024-11-08T03:00:00	8	Radiación solar	0
36433	7	Sololá	717	San Juan la Laguna	12	San Juan la Laguna	2	Febrero	2023-02-13T00:00:00	2024-11-08T04:00:00	2	Temperatura media	16.8
36434	7	Sololá	717	San Juan la Laguna	12	San Juan la Laguna	2	Febrero	2023-02-13T00:00:00	2024-11-08T04:00:00	4	Temperatura máxima	17
36435	7	Sololá	717	San Juan la Laguna	12	San Juan la Laguna	2	Febrero	2023-02-13T00:00:00	2024-11-08T04:00:00	3	Temperatura mínima	15.2
36436	7	Sololá	717	San Juan la Laguna	12	San Juan la Laguna	2	Febrero	2023-02-13T00:00:00	2024-11-08T04:00:00	5	Humedad	66
36437	7	Sololá	717	San Juan la Laguna	12	San Juan la Laguna	2	Febrero	2023-02-13T00:00:00	2024-11-08T04:00:00	6	Velocidad del viento	3.2
36438	7	Sololá	717	San Juan la Laguna	12	San Juan la Laguna	2	Febrero	2023-02-13T00:00:00	2024-11-08T04:00:00	7	Dirección del viento	3.22
36439	7	Sololá	717	San Juan la Laguna	12	San Juan la Laguna	2	Febrero	2023-02-13T00:00:00	2024-11-08T04:00:00	1	Precipitación	0
36440	7	Sololá	717	San Juan la Laguna	12	San Juan la Laguna	2	Febrero	2023-02-13T00:00:00	2024-11-08T04:00:00	8	Radiación solar	0
36441	7	Sololá	717	San Juan la Laguna	12	San Juan la Laguna	2	Febrero	2023-02-13T00:00:00	2024-11-08T05:00:00	2	Temperatura media	14.6
36442	7	Sololá	717	San Juan la Laguna	12	San Juan la Laguna	2	Febrero	2023-02-13T00:00:00	2024-11-08T05:00:00	4	Temperatura máxima	16.9
36443	7	Sololá	717	San Juan la Laguna	12	San Juan la Laguna	2	Febrero	2023-02-13T00:00:00	2024-11-08T05:00:00	3	Temperatura mínima	14.6
36444	7	Sololá	717	San Juan la Laguna	12	San Juan la Laguna	2	Febrero	2023-02-13T00:00:00	2024-11-08T05:00:00	5	Humedad	73
36445	7	Sololá	717	San Juan la Laguna	12	San Juan la Laguna	2	Febrero	2023-02-13T00:00:00	2024-11-08T05:00:00	6	Velocidad del viento	1.6
36446	7	Sololá	717	San Juan la Laguna	12	San Juan la Laguna	2	Febrero	2023-02-13T00:00:00	2024-11-08T05:00:00	7	Dirección del viento	1.61
36447	7	Sololá	717	San Juan la Laguna	12	San Juan la Laguna	2	Febrero	2023-02-13T00:00:00	2024-11-08T05:00:00	1	Precipitación	0
36448	7	Sololá	717	San Juan la Laguna	12	San Juan la Laguna	2	Febrero	2023-02-13T00:00:00	2024-11-08T05:00:00	8	Radiación solar	0
36449	7	Sololá	717	San Juan la Laguna	12	San Juan la Laguna	2	Febrero	2023-02-13T00:00:00	2024-11-08T06:00:00	2	Temperatura media	13.3
36450	7	Sololá	717	San Juan la Laguna	12	San Juan la Laguna	2	Febrero	2023-02-13T00:00:00	2024-11-08T06:00:00	4	Temperatura máxima	14.6
36451	7	Sololá	717	San Juan la Laguna	12	San Juan la Laguna	2	Febrero	2023-02-13T00:00:00	2024-11-08T06:00:00	3	Temperatura mínima	12.9
36452	7	Sololá	717	San Juan la Laguna	12	San Juan la Laguna	2	Febrero	2023-02-13T00:00:00	2024-11-08T06:00:00	5	Humedad	78
36453	7	Sololá	717	San Juan la Laguna	12	San Juan la Laguna	2	Febrero	2023-02-13T00:00:00	2024-11-08T06:00:00	6	Velocidad del viento	1.6
36454	7	Sololá	717	San Juan la Laguna	12	San Juan la Laguna	2	Febrero	2023-02-13T00:00:00	2024-11-08T06:00:00	7	Dirección del viento	1.61
36455	7	Sololá	717	San Juan la Laguna	12	San Juan la Laguna	2	Febrero	2023-02-13T00:00:00	2024-11-08T06:00:00	1	Precipitación	0
36456	7	Sololá	717	San Juan la Laguna	12	San Juan la Laguna	2	Febrero	2023-02-13T00:00:00	2024-11-08T06:00:00	8	Radiación solar	0
36457	7	Sololá	717	San Juan la Laguna	12	San Juan la Laguna	2	Febrero	2023-02-13T00:00:00	2024-11-08T07:00:00	2	Temperatura media	13.2
36458	7	Sololá	717	San Juan la Laguna	12	San Juan la Laguna	2	Febrero	2023-02-13T00:00:00	2024-11-08T07:00:00	4	Temperatura máxima	13.9
36459	7	Sololá	717	San Juan la Laguna	12	San Juan la Laguna	2	Febrero	2023-02-13T00:00:00	2024-11-08T07:00:00	3	Temperatura mínima	13.2
36460	7	Sololá	717	San Juan la Laguna	12	San Juan la Laguna	2	Febrero	2023-02-13T00:00:00	2024-11-08T07:00:00	5	Humedad	80
36461	7	Sololá	717	San Juan la Laguna	12	San Juan la Laguna	2	Febrero	2023-02-13T00:00:00	2024-11-08T07:00:00	6	Velocidad del viento	1.6
36462	7	Sololá	717	San Juan la Laguna	12	San Juan la Laguna	2	Febrero	2023-02-13T00:00:00	2024-11-08T07:00:00	7	Dirección del viento	1.61
36463	7	Sololá	717	San Juan la Laguna	12	San Juan la Laguna	2	Febrero	2023-02-13T00:00:00	2024-11-08T07:00:00	1	Precipitación	0
36464	7	Sololá	717	San Juan la Laguna	12	San Juan la Laguna	2	Febrero	2023-02-13T00:00:00	2024-11-08T07:00:00	8	Radiación solar	6
36465	7	Sololá	717	San Juan la Laguna	12	San Juan la Laguna	2	Febrero	2023-02-13T00:00:00	2024-11-08T08:00:00	2	Temperatura media	18.1
36466	7	Sololá	717	San Juan la Laguna	12	San Juan la Laguna	2	Febrero	2023-02-13T00:00:00	2024-11-08T08:00:00	4	Temperatura máxima	18.1
36467	7	Sololá	717	San Juan la Laguna	12	San Juan la Laguna	2	Febrero	2023-02-13T00:00:00	2024-11-08T08:00:00	3	Temperatura mínima	13.2
36468	7	Sololá	717	San Juan la Laguna	12	San Juan la Laguna	2	Febrero	2023-02-13T00:00:00	2024-11-08T08:00:00	5	Humedad	66
36469	7	Sololá	717	San Juan la Laguna	12	San Juan la Laguna	2	Febrero	2023-02-13T00:00:00	2024-11-08T08:00:00	6	Velocidad del viento	3.2
36470	7	Sololá	717	San Juan la Laguna	12	San Juan la Laguna	2	Febrero	2023-02-13T00:00:00	2024-11-08T08:00:00	7	Dirección del viento	3.22
36471	7	Sololá	717	San Juan la Laguna	12	San Juan la Laguna	2	Febrero	2023-02-13T00:00:00	2024-11-08T08:00:00	1	Precipitación	0
36472	7	Sololá	717	San Juan la Laguna	12	San Juan la Laguna	2	Febrero	2023-02-13T00:00:00	2024-11-08T08:00:00	8	Radiación solar	161
36473	7	Sololá	717	San Juan la Laguna	12	San Juan la Laguna	2	Febrero	2023-02-13T00:00:00	2024-11-08T09:00:00	2	Temperatura media	19.7
36474	7	Sololá	717	San Juan la Laguna	12	San Juan la Laguna	2	Febrero	2023-02-13T00:00:00	2024-11-08T09:00:00	4	Temperatura máxima	19.7
36475	7	Sololá	717	San Juan la Laguna	12	San Juan la Laguna	2	Febrero	2023-02-13T00:00:00	2024-11-08T09:00:00	3	Temperatura mínima	18.1
36476	7	Sololá	717	San Juan la Laguna	12	San Juan la Laguna	2	Febrero	2023-02-13T00:00:00	2024-11-08T09:00:00	5	Humedad	57
36477	7	Sololá	717	San Juan la Laguna	12	San Juan la Laguna	2	Febrero	2023-02-13T00:00:00	2024-11-08T09:00:00	6	Velocidad del viento	4.8
36478	7	Sololá	717	San Juan la Laguna	12	San Juan la Laguna	2	Febrero	2023-02-13T00:00:00	2024-11-08T09:00:00	7	Dirección del viento	4.83
36479	7	Sololá	717	San Juan la Laguna	12	San Juan la Laguna	2	Febrero	2023-02-13T00:00:00	2024-11-08T09:00:00	1	Precipitación	0
36480	7	Sololá	717	San Juan la Laguna	12	San Juan la Laguna	2	Febrero	2023-02-13T00:00:00	2024-11-08T09:00:00	8	Radiación solar	387
36481	7	Sololá	717	San Juan la Laguna	12	San Juan la Laguna	2	Febrero	2023-02-13T00:00:00	2024-11-08T10:00:00	2	Temperatura media	21.7
36482	7	Sololá	717	San Juan la Laguna	12	San Juan la Laguna	2	Febrero	2023-02-13T00:00:00	2024-11-08T10:00:00	4	Temperatura máxima	21.7
36483	7	Sololá	717	San Juan la Laguna	12	San Juan la Laguna	2	Febrero	2023-02-13T00:00:00	2024-11-08T10:00:00	3	Temperatura mínima	19.7
36484	7	Sololá	717	San Juan la Laguna	12	San Juan la Laguna	2	Febrero	2023-02-13T00:00:00	2024-11-08T10:00:00	5	Humedad	53
36485	7	Sololá	717	San Juan la Laguna	12	San Juan la Laguna	2	Febrero	2023-02-13T00:00:00	2024-11-08T10:00:00	6	Velocidad del viento	3.2
36486	7	Sololá	717	San Juan la Laguna	12	San Juan la Laguna	2	Febrero	2023-02-13T00:00:00	2024-11-08T10:00:00	7	Dirección del viento	3.22
36487	7	Sololá	717	San Juan la Laguna	12	San Juan la Laguna	2	Febrero	2023-02-13T00:00:00	2024-11-08T10:00:00	1	Precipitación	0
36488	7	Sololá	717	San Juan la Laguna	12	San Juan la Laguna	2	Febrero	2023-02-13T00:00:00	2024-11-08T10:00:00	8	Radiación solar	597
36489	7	Sololá	717	San Juan la Laguna	12	San Juan la Laguna	2	Febrero	2023-02-13T00:00:00	2024-11-08T11:00:00	2	Temperatura media	22.7
36490	7	Sololá	717	San Juan la Laguna	12	San Juan la Laguna	2	Febrero	2023-02-13T00:00:00	2024-11-08T11:00:00	4	Temperatura máxima	22.7
36491	7	Sololá	717	San Juan la Laguna	12	San Juan la Laguna	2	Febrero	2023-02-13T00:00:00	2024-11-08T11:00:00	3	Temperatura mínima	21.2
36492	7	Sololá	717	San Juan la Laguna	12	San Juan la Laguna	2	Febrero	2023-02-13T00:00:00	2024-11-08T11:00:00	5	Humedad	49
36493	7	Sololá	717	San Juan la Laguna	12	San Juan la Laguna	2	Febrero	2023-02-13T00:00:00	2024-11-08T11:00:00	6	Velocidad del viento	3.2
36494	7	Sololá	717	San Juan la Laguna	12	San Juan la Laguna	2	Febrero	2023-02-13T00:00:00	2024-11-08T11:00:00	7	Dirección del viento	3.22
36495	7	Sololá	717	San Juan la Laguna	12	San Juan la Laguna	2	Febrero	2023-02-13T00:00:00	2024-11-08T11:00:00	1	Precipitación	0
36496	7	Sololá	717	San Juan la Laguna	12	San Juan la Laguna	2	Febrero	2023-02-13T00:00:00	2024-11-08T11:00:00	8	Radiación solar	752
36497	7	Sololá	717	San Juan la Laguna	12	San Juan la Laguna	2	Febrero	2023-02-13T00:00:00	2024-11-08T12:00:00	2	Temperatura media	23.5
36498	7	Sololá	717	San Juan la Laguna	12	San Juan la Laguna	2	Febrero	2023-02-13T00:00:00	2024-11-08T12:00:00	4	Temperatura máxima	23.5
36499	7	Sololá	717	San Juan la Laguna	12	San Juan la Laguna	2	Febrero	2023-02-13T00:00:00	2024-11-08T12:00:00	3	Temperatura mínima	22.6
36500	7	Sololá	717	San Juan la Laguna	12	San Juan la Laguna	2	Febrero	2023-02-13T00:00:00	2024-11-08T12:00:00	5	Humedad	48
36501	7	Sololá	717	San Juan la Laguna	12	San Juan la Laguna	2	Febrero	2023-02-13T00:00:00	2024-11-08T12:00:00	6	Velocidad del viento	6.4
36502	7	Sololá	717	San Juan la Laguna	12	San Juan la Laguna	2	Febrero	2023-02-13T00:00:00	2024-11-08T12:00:00	7	Dirección del viento	6.44
36503	7	Sololá	717	San Juan la Laguna	12	San Juan la Laguna	2	Febrero	2023-02-13T00:00:00	2024-11-08T12:00:00	1	Precipitación	0
36504	7	Sololá	717	San Juan la Laguna	12	San Juan la Laguna	2	Febrero	2023-02-13T00:00:00	2024-11-08T12:00:00	8	Radiación solar	753
36505	7	Sololá	717	San Juan la Laguna	12	San Juan la Laguna	2	Febrero	2023-02-13T00:00:00	2024-11-08T13:00:00	2	Temperatura media	24.4
36506	7	Sololá	717	San Juan la Laguna	12	San Juan la Laguna	2	Febrero	2023-02-13T00:00:00	2024-11-08T13:00:00	4	Temperatura máxima	24.5
36507	7	Sololá	717	San Juan la Laguna	12	San Juan la Laguna	2	Febrero	2023-02-13T00:00:00	2024-11-08T13:00:00	3	Temperatura mínima	23.4
36508	7	Sololá	717	San Juan la Laguna	12	San Juan la Laguna	2	Febrero	2023-02-13T00:00:00	2024-11-08T13:00:00	5	Humedad	45
36509	7	Sololá	717	San Juan la Laguna	12	San Juan la Laguna	2	Febrero	2023-02-13T00:00:00	2024-11-08T13:00:00	6	Velocidad del viento	6.4
36510	7	Sololá	717	San Juan la Laguna	12	San Juan la Laguna	2	Febrero	2023-02-13T00:00:00	2024-11-08T13:00:00	7	Dirección del viento	6.44
36511	7	Sololá	717	San Juan la Laguna	12	San Juan la Laguna	2	Febrero	2023-02-13T00:00:00	2024-11-08T13:00:00	1	Precipitación	0
36512	7	Sololá	717	San Juan la Laguna	12	San Juan la Laguna	2	Febrero	2023-02-13T00:00:00	2024-11-08T13:00:00	8	Radiación solar	882
36513	7	Sololá	717	San Juan la Laguna	12	San Juan la Laguna	2	Febrero	2023-02-13T00:00:00	2024-11-08T14:00:00	2	Temperatura media	25.2
36514	7	Sololá	717	San Juan la Laguna	12	San Juan la Laguna	2	Febrero	2023-02-13T00:00:00	2024-11-08T14:00:00	4	Temperatura máxima	25.2
36515	7	Sololá	717	San Juan la Laguna	12	San Juan la Laguna	2	Febrero	2023-02-13T00:00:00	2024-11-08T14:00:00	3	Temperatura mínima	24.5
36516	7	Sololá	717	San Juan la Laguna	12	San Juan la Laguna	2	Febrero	2023-02-13T00:00:00	2024-11-08T14:00:00	5	Humedad	42
36517	7	Sololá	717	San Juan la Laguna	12	San Juan la Laguna	2	Febrero	2023-02-13T00:00:00	2024-11-08T14:00:00	6	Velocidad del viento	4.8
36518	7	Sololá	717	San Juan la Laguna	12	San Juan la Laguna	2	Febrero	2023-02-13T00:00:00	2024-11-08T14:00:00	7	Dirección del viento	4.83
36519	7	Sololá	717	San Juan la Laguna	12	San Juan la Laguna	2	Febrero	2023-02-13T00:00:00	2024-11-08T14:00:00	1	Precipitación	0
36520	7	Sololá	717	San Juan la Laguna	12	San Juan la Laguna	2	Febrero	2023-02-13T00:00:00	2024-11-08T14:00:00	8	Radiación solar	841
36521	7	Sololá	717	San Juan la Laguna	12	San Juan la Laguna	2	Febrero	2023-02-13T00:00:00	2024-11-08T15:00:00	2	Temperatura media	24.8
36522	7	Sololá	717	San Juan la Laguna	12	San Juan la Laguna	2	Febrero	2023-02-13T00:00:00	2024-11-08T15:00:00	4	Temperatura máxima	25.6
36523	7	Sololá	717	San Juan la Laguna	12	San Juan la Laguna	2	Febrero	2023-02-13T00:00:00	2024-11-08T15:00:00	3	Temperatura mínima	24.8
36524	7	Sololá	717	San Juan la Laguna	12	San Juan la Laguna	2	Febrero	2023-02-13T00:00:00	2024-11-08T15:00:00	5	Humedad	45
36525	7	Sololá	717	San Juan la Laguna	12	San Juan la Laguna	2	Febrero	2023-02-13T00:00:00	2024-11-08T15:00:00	6	Velocidad del viento	4.8
36526	7	Sololá	717	San Juan la Laguna	12	San Juan la Laguna	2	Febrero	2023-02-13T00:00:00	2024-11-08T15:00:00	7	Dirección del viento	4.83
36527	7	Sololá	717	San Juan la Laguna	12	San Juan la Laguna	2	Febrero	2023-02-13T00:00:00	2024-11-08T15:00:00	1	Precipitación	0
36528	7	Sololá	717	San Juan la Laguna	12	San Juan la Laguna	2	Febrero	2023-02-13T00:00:00	2024-11-08T15:00:00	8	Radiación solar	729
36529	7	Sololá	717	San Juan la Laguna	12	San Juan la Laguna	2	Febrero	2023-02-13T00:00:00	2024-11-08T16:00:00	2	Temperatura media	24.7
36530	7	Sololá	717	San Juan la Laguna	12	San Juan la Laguna	2	Febrero	2023-02-13T00:00:00	2024-11-08T16:00:00	4	Temperatura máxima	24.9
36531	7	Sololá	717	San Juan la Laguna	12	San Juan la Laguna	2	Febrero	2023-02-13T00:00:00	2024-11-08T16:00:00	3	Temperatura mínima	24.4
36532	7	Sololá	717	San Juan la Laguna	12	San Juan la Laguna	2	Febrero	2023-02-13T00:00:00	2024-11-08T16:00:00	5	Humedad	43
36533	7	Sololá	717	San Juan la Laguna	12	San Juan la Laguna	2	Febrero	2023-02-13T00:00:00	2024-11-08T16:00:00	6	Velocidad del viento	3.2
36534	7	Sololá	717	San Juan la Laguna	12	San Juan la Laguna	2	Febrero	2023-02-13T00:00:00	2024-11-08T16:00:00	7	Dirección del viento	3.22
36535	7	Sololá	717	San Juan la Laguna	12	San Juan la Laguna	2	Febrero	2023-02-13T00:00:00	2024-11-08T16:00:00	1	Precipitación	0
36536	7	Sololá	717	San Juan la Laguna	12	San Juan la Laguna	2	Febrero	2023-02-13T00:00:00	2024-11-08T16:00:00	8	Radiación solar	547
36537	7	Sololá	717	San Juan la Laguna	12	San Juan la Laguna	2	Febrero	2023-02-13T00:00:00	2024-11-08T17:00:00	2	Temperatura media	22
36538	7	Sololá	717	San Juan la Laguna	12	San Juan la Laguna	2	Febrero	2023-02-13T00:00:00	2024-11-08T17:00:00	4	Temperatura máxima	24.7
36539	7	Sololá	717	San Juan la Laguna	12	San Juan la Laguna	2	Febrero	2023-02-13T00:00:00	2024-11-08T17:00:00	3	Temperatura mínima	21.9
36540	7	Sololá	717	San Juan la Laguna	12	San Juan la Laguna	2	Febrero	2023-02-13T00:00:00	2024-11-08T17:00:00	5	Humedad	63
36541	7	Sololá	717	San Juan la Laguna	12	San Juan la Laguna	2	Febrero	2023-02-13T00:00:00	2024-11-08T17:00:00	6	Velocidad del viento	3.2
36542	7	Sololá	717	San Juan la Laguna	12	San Juan la Laguna	2	Febrero	2023-02-13T00:00:00	2024-11-08T17:00:00	7	Dirección del viento	3.22
36543	7	Sololá	717	San Juan la Laguna	12	San Juan la Laguna	2	Febrero	2023-02-13T00:00:00	2024-11-08T17:00:00	1	Precipitación	0
36544	7	Sololá	717	San Juan la Laguna	12	San Juan la Laguna	2	Febrero	2023-02-13T00:00:00	2024-11-08T17:00:00	8	Radiación solar	303
36545	7	Sololá	717	San Juan la Laguna	12	San Juan la Laguna	2	Febrero	2023-02-13T00:00:00	2024-11-08T18:00:00	2	Temperatura media	21.1
36546	7	Sololá	717	San Juan la Laguna	12	San Juan la Laguna	2	Febrero	2023-02-13T00:00:00	2024-11-08T18:00:00	4	Temperatura máxima	22
36547	7	Sololá	717	San Juan la Laguna	12	San Juan la Laguna	2	Febrero	2023-02-13T00:00:00	2024-11-08T18:00:00	3	Temperatura mínima	20.8
36548	7	Sololá	717	San Juan la Laguna	12	San Juan la Laguna	2	Febrero	2023-02-13T00:00:00	2024-11-08T18:00:00	5	Humedad	57
36549	7	Sololá	717	San Juan la Laguna	12	San Juan la Laguna	2	Febrero	2023-02-13T00:00:00	2024-11-08T18:00:00	6	Velocidad del viento	1.6
36550	7	Sololá	717	San Juan la Laguna	12	San Juan la Laguna	2	Febrero	2023-02-13T00:00:00	2024-11-08T18:00:00	7	Dirección del viento	1.61
36551	7	Sololá	717	San Juan la Laguna	12	San Juan la Laguna	2	Febrero	2023-02-13T00:00:00	2024-11-08T18:00:00	1	Precipitación	0
36552	7	Sololá	717	San Juan la Laguna	12	San Juan la Laguna	2	Febrero	2023-02-13T00:00:00	2024-11-08T18:00:00	8	Radiación solar	30
36553	7	Sololá	717	San Juan la Laguna	12	San Juan la Laguna	2	Febrero	2023-02-13T00:00:00	2024-11-08T19:00:00	2	Temperatura media	20.3
36554	7	Sololá	717	San Juan la Laguna	12	San Juan la Laguna	2	Febrero	2023-02-13T00:00:00	2024-11-08T19:00:00	4	Temperatura máxima	21.1
36555	7	Sololá	717	San Juan la Laguna	12	San Juan la Laguna	2	Febrero	2023-02-13T00:00:00	2024-11-08T19:00:00	3	Temperatura mínima	20.3
36556	7	Sololá	717	San Juan la Laguna	12	San Juan la Laguna	2	Febrero	2023-02-13T00:00:00	2024-11-08T19:00:00	5	Humedad	60
36557	7	Sololá	717	San Juan la Laguna	12	San Juan la Laguna	2	Febrero	2023-02-13T00:00:00	2024-11-08T19:00:00	6	Velocidad del viento	4.8
36558	7	Sololá	717	San Juan la Laguna	12	San Juan la Laguna	2	Febrero	2023-02-13T00:00:00	2024-11-08T19:00:00	7	Dirección del viento	4.83
36559	7	Sololá	717	San Juan la Laguna	12	San Juan la Laguna	2	Febrero	2023-02-13T00:00:00	2024-11-08T19:00:00	1	Precipitación	0
36560	7	Sololá	717	San Juan la Laguna	12	San Juan la Laguna	2	Febrero	2023-02-13T00:00:00	2024-11-08T19:00:00	8	Radiación solar	0
36561	7	Sololá	717	San Juan la Laguna	12	San Juan la Laguna	2	Febrero	2023-02-13T00:00:00	2024-11-08T20:00:00	2	Temperatura media	18.7
36562	7	Sololá	717	San Juan la Laguna	12	San Juan la Laguna	2	Febrero	2023-02-13T00:00:00	2024-11-08T20:00:00	4	Temperatura máxima	20.3
36563	7	Sololá	717	San Juan la Laguna	12	San Juan la Laguna	2	Febrero	2023-02-13T00:00:00	2024-11-08T20:00:00	3	Temperatura mínima	18.7
36564	7	Sololá	717	San Juan la Laguna	12	San Juan la Laguna	2	Febrero	2023-02-13T00:00:00	2024-11-08T20:00:00	5	Humedad	65
36565	7	Sololá	717	San Juan la Laguna	12	San Juan la Laguna	2	Febrero	2023-02-13T00:00:00	2024-11-08T20:00:00	6	Velocidad del viento	1.6
36566	7	Sololá	717	San Juan la Laguna	12	San Juan la Laguna	2	Febrero	2023-02-13T00:00:00	2024-11-08T20:00:00	7	Dirección del viento	1.61
36567	7	Sololá	717	San Juan la Laguna	12	San Juan la Laguna	2	Febrero	2023-02-13T00:00:00	2024-11-08T20:00:00	1	Precipitación	0
36568	7	Sololá	717	San Juan la Laguna	12	San Juan la Laguna	2	Febrero	2023-02-13T00:00:00	2024-11-08T20:00:00	8	Radiación solar	0
36569	7	Sololá	717	San Juan la Laguna	12	San Juan la Laguna	2	Febrero	2023-02-13T00:00:00	2024-11-08T21:00:00	2	Temperatura media	15.9
36570	7	Sololá	717	San Juan la Laguna	12	San Juan la Laguna	2	Febrero	2023-02-13T00:00:00	2024-11-08T21:00:00	4	Temperatura máxima	18.6
36571	7	Sololá	717	San Juan la Laguna	12	San Juan la Laguna	2	Febrero	2023-02-13T00:00:00	2024-11-08T21:00:00	3	Temperatura mínima	15.9
36572	7	Sololá	717	San Juan la Laguna	12	San Juan la Laguna	2	Febrero	2023-02-13T00:00:00	2024-11-08T21:00:00	5	Humedad	74
36573	7	Sololá	717	San Juan la Laguna	12	San Juan la Laguna	2	Febrero	2023-02-13T00:00:00	2024-11-08T21:00:00	6	Velocidad del viento	1.6
36574	7	Sololá	717	San Juan la Laguna	12	San Juan la Laguna	2	Febrero	2023-02-13T00:00:00	2024-11-08T21:00:00	7	Dirección del viento	1.61
36575	7	Sololá	717	San Juan la Laguna	12	San Juan la Laguna	2	Febrero	2023-02-13T00:00:00	2024-11-08T21:00:00	1	Precipitación	0
36576	7	Sololá	717	San Juan la Laguna	12	San Juan la Laguna	2	Febrero	2023-02-13T00:00:00	2024-11-08T21:00:00	8	Radiación solar	0
36577	7	Sololá	717	San Juan la Laguna	12	San Juan la Laguna	2	Febrero	2023-02-13T00:00:00	2024-11-08T22:00:00	2	Temperatura media	14.9
36578	7	Sololá	717	San Juan la Laguna	12	San Juan la Laguna	2	Febrero	2023-02-13T00:00:00	2024-11-08T22:00:00	4	Temperatura máxima	15.9
36579	7	Sololá	717	San Juan la Laguna	12	San Juan la Laguna	2	Febrero	2023-02-13T00:00:00	2024-11-08T22:00:00	3	Temperatura mínima	14.9
36580	7	Sololá	717	San Juan la Laguna	12	San Juan la Laguna	2	Febrero	2023-02-13T00:00:00	2024-11-08T22:00:00	5	Humedad	75
36581	7	Sololá	717	San Juan la Laguna	12	San Juan la Laguna	2	Febrero	2023-02-13T00:00:00	2024-11-08T22:00:00	6	Velocidad del viento	1.6
36582	7	Sololá	717	San Juan la Laguna	12	San Juan la Laguna	2	Febrero	2023-02-13T00:00:00	2024-11-08T22:00:00	7	Dirección del viento	1.61
36583	7	Sololá	717	San Juan la Laguna	12	San Juan la Laguna	2	Febrero	2023-02-13T00:00:00	2024-11-08T22:00:00	1	Precipitación	0
36584	7	Sololá	717	San Juan la Laguna	12	San Juan la Laguna	2	Febrero	2023-02-13T00:00:00	2024-11-08T22:00:00	8	Radiación solar	0
36585	7	Sololá	717	San Juan la Laguna	12	San Juan la Laguna	2	Febrero	2023-02-13T00:00:00	2024-11-08T23:00:00	2	Temperatura media	14.4
36586	7	Sololá	717	San Juan la Laguna	12	San Juan la Laguna	2	Febrero	2023-02-13T00:00:00	2024-11-08T23:00:00	4	Temperatura máxima	14.9
36587	7	Sololá	717	San Juan la Laguna	12	San Juan la Laguna	2	Febrero	2023-02-13T00:00:00	2024-11-08T23:00:00	3	Temperatura mínima	14.3
36588	7	Sololá	717	San Juan la Laguna	12	San Juan la Laguna	2	Febrero	2023-02-13T00:00:00	2024-11-08T23:00:00	5	Humedad	76
36589	7	Sololá	717	San Juan la Laguna	12	San Juan la Laguna	2	Febrero	2023-02-13T00:00:00	2024-11-08T23:00:00	6	Velocidad del viento	3.2
36590	7	Sololá	717	San Juan la Laguna	12	San Juan la Laguna	2	Febrero	2023-02-13T00:00:00	2024-11-08T23:00:00	7	Dirección del viento	3.22
36591	7	Sololá	717	San Juan la Laguna	12	San Juan la Laguna	2	Febrero	2023-02-13T00:00:00	2024-11-08T23:00:00	1	Precipitación	0
36592	7	Sololá	717	San Juan la Laguna	12	San Juan la Laguna	2	Febrero	2023-02-13T00:00:00	2024-11-08T23:00:00	8	Radiación solar	0
36593	7	Sololá	717	San Juan la Laguna	12	San Juan la Laguna	2	Febrero	2023-02-14T00:00:00	2024-11-08T00:00:00	2	Temperatura media	14.3
36594	7	Sololá	717	San Juan la Laguna	12	San Juan la Laguna	2	Febrero	2023-02-14T00:00:00	2024-11-08T00:00:00	4	Temperatura máxima	15
36595	7	Sololá	717	San Juan la Laguna	12	San Juan la Laguna	2	Febrero	2023-02-14T00:00:00	2024-11-08T00:00:00	3	Temperatura mínima	14.1
36596	7	Sololá	717	San Juan la Laguna	12	San Juan la Laguna	2	Febrero	2023-02-14T00:00:00	2024-11-08T00:00:00	5	Humedad	73
36597	7	Sololá	717	San Juan la Laguna	12	San Juan la Laguna	2	Febrero	2023-02-14T00:00:00	2024-11-08T00:00:00	6	Velocidad del viento	4.8
36598	7	Sololá	717	San Juan la Laguna	12	San Juan la Laguna	2	Febrero	2023-02-14T00:00:00	2024-11-08T00:00:00	7	Dirección del viento	4.83
36599	7	Sololá	717	San Juan la Laguna	12	San Juan la Laguna	2	Febrero	2023-02-14T00:00:00	2024-11-08T00:00:00	1	Precipitación	0
36600	7	Sololá	717	San Juan la Laguna	12	San Juan la Laguna	2	Febrero	2023-02-14T00:00:00	2024-11-08T00:00:00	8	Radiación solar	0
36601	7	Sololá	717	San Juan la Laguna	12	San Juan la Laguna	2	Febrero	2023-02-14T00:00:00	2024-11-08T01:00:00	2	Temperatura media	13.8
36602	7	Sololá	717	San Juan la Laguna	12	San Juan la Laguna	2	Febrero	2023-02-14T00:00:00	2024-11-08T01:00:00	4	Temperatura máxima	14.5
36603	7	Sololá	717	San Juan la Laguna	12	San Juan la Laguna	2	Febrero	2023-02-14T00:00:00	2024-11-08T01:00:00	3	Temperatura mínima	13.8
36604	7	Sololá	717	San Juan la Laguna	12	San Juan la Laguna	2	Febrero	2023-02-14T00:00:00	2024-11-08T01:00:00	5	Humedad	72
36605	7	Sololá	717	San Juan la Laguna	12	San Juan la Laguna	2	Febrero	2023-02-14T00:00:00	2024-11-08T01:00:00	6	Velocidad del viento	4.8
36606	7	Sololá	717	San Juan la Laguna	12	San Juan la Laguna	2	Febrero	2023-02-14T00:00:00	2024-11-08T01:00:00	7	Dirección del viento	4.83
36607	7	Sololá	717	San Juan la Laguna	12	San Juan la Laguna	2	Febrero	2023-02-14T00:00:00	2024-11-08T01:00:00	1	Precipitación	0
36608	7	Sololá	717	San Juan la Laguna	12	San Juan la Laguna	2	Febrero	2023-02-14T00:00:00	2024-11-08T01:00:00	8	Radiación solar	0
36609	7	Sololá	717	San Juan la Laguna	12	San Juan la Laguna	2	Febrero	2023-02-14T00:00:00	2024-11-08T02:00:00	2	Temperatura media	13.3
36610	7	Sololá	717	San Juan la Laguna	12	San Juan la Laguna	2	Febrero	2023-02-14T00:00:00	2024-11-08T02:00:00	4	Temperatura máxima	13.9
36611	7	Sololá	717	San Juan la Laguna	12	San Juan la Laguna	2	Febrero	2023-02-14T00:00:00	2024-11-08T02:00:00	3	Temperatura mínima	13.2
36612	7	Sololá	717	San Juan la Laguna	12	San Juan la Laguna	2	Febrero	2023-02-14T00:00:00	2024-11-08T02:00:00	5	Humedad	72
36613	7	Sololá	717	San Juan la Laguna	12	San Juan la Laguna	2	Febrero	2023-02-14T00:00:00	2024-11-08T02:00:00	6	Velocidad del viento	3.2
36614	7	Sololá	717	San Juan la Laguna	12	San Juan la Laguna	2	Febrero	2023-02-14T00:00:00	2024-11-08T02:00:00	7	Dirección del viento	3.22
36615	7	Sololá	717	San Juan la Laguna	12	San Juan la Laguna	2	Febrero	2023-02-14T00:00:00	2024-11-08T02:00:00	1	Precipitación	0
36616	7	Sololá	717	San Juan la Laguna	12	San Juan la Laguna	2	Febrero	2023-02-14T00:00:00	2024-11-08T02:00:00	8	Radiación solar	0
36617	7	Sololá	717	San Juan la Laguna	12	San Juan la Laguna	2	Febrero	2023-02-14T00:00:00	2024-11-08T03:00:00	2	Temperatura media	13.1
36618	7	Sololá	717	San Juan la Laguna	12	San Juan la Laguna	2	Febrero	2023-02-14T00:00:00	2024-11-08T03:00:00	4	Temperatura máxima	13.3
36619	7	Sololá	717	San Juan la Laguna	12	San Juan la Laguna	2	Febrero	2023-02-14T00:00:00	2024-11-08T03:00:00	3	Temperatura mínima	12.9
36620	7	Sololá	717	San Juan la Laguna	12	San Juan la Laguna	2	Febrero	2023-02-14T00:00:00	2024-11-08T03:00:00	5	Humedad	72
36621	7	Sololá	717	San Juan la Laguna	12	San Juan la Laguna	2	Febrero	2023-02-14T00:00:00	2024-11-08T03:00:00	6	Velocidad del viento	4.8
36622	7	Sololá	717	San Juan la Laguna	12	San Juan la Laguna	2	Febrero	2023-02-14T00:00:00	2024-11-08T03:00:00	7	Dirección del viento	4.83
36623	7	Sololá	717	San Juan la Laguna	12	San Juan la Laguna	2	Febrero	2023-02-14T00:00:00	2024-11-08T03:00:00	1	Precipitación	0
36624	7	Sololá	717	San Juan la Laguna	12	San Juan la Laguna	2	Febrero	2023-02-14T00:00:00	2024-11-08T03:00:00	8	Radiación solar	0
36625	7	Sololá	717	San Juan la Laguna	12	San Juan la Laguna	2	Febrero	2023-02-14T00:00:00	2024-11-08T04:00:00	2	Temperatura media	12.3
36626	7	Sololá	717	San Juan la Laguna	12	San Juan la Laguna	2	Febrero	2023-02-14T00:00:00	2024-11-08T04:00:00	4	Temperatura máxima	13.1
36627	7	Sololá	717	San Juan la Laguna	12	San Juan la Laguna	2	Febrero	2023-02-14T00:00:00	2024-11-08T04:00:00	3	Temperatura mínima	12.3
36628	7	Sololá	717	San Juan la Laguna	12	San Juan la Laguna	2	Febrero	2023-02-14T00:00:00	2024-11-08T04:00:00	5	Humedad	75
36629	7	Sololá	717	San Juan la Laguna	12	San Juan la Laguna	2	Febrero	2023-02-14T00:00:00	2024-11-08T04:00:00	6	Velocidad del viento	3.2
36630	7	Sololá	717	San Juan la Laguna	12	San Juan la Laguna	2	Febrero	2023-02-14T00:00:00	2024-11-08T04:00:00	7	Dirección del viento	3.22
36631	7	Sololá	717	San Juan la Laguna	12	San Juan la Laguna	2	Febrero	2023-02-14T00:00:00	2024-11-08T04:00:00	1	Precipitación	0
36632	7	Sololá	717	San Juan la Laguna	12	San Juan la Laguna	2	Febrero	2023-02-14T00:00:00	2024-11-08T04:00:00	8	Radiación solar	0
36633	7	Sololá	717	San Juan la Laguna	12	San Juan la Laguna	2	Febrero	2023-02-14T00:00:00	2024-11-08T05:00:00	2	Temperatura media	11.4
36634	7	Sololá	717	San Juan la Laguna	12	San Juan la Laguna	2	Febrero	2023-02-14T00:00:00	2024-11-08T05:00:00	4	Temperatura máxima	12.3
36635	7	Sololá	717	San Juan la Laguna	12	San Juan la Laguna	2	Febrero	2023-02-14T00:00:00	2024-11-08T05:00:00	3	Temperatura mínima	11.4
36636	7	Sololá	717	San Juan la Laguna	12	San Juan la Laguna	2	Febrero	2023-02-14T00:00:00	2024-11-08T05:00:00	5	Humedad	80
36637	7	Sololá	717	San Juan la Laguna	12	San Juan la Laguna	2	Febrero	2023-02-14T00:00:00	2024-11-08T05:00:00	6	Velocidad del viento	1.6
36638	7	Sololá	717	San Juan la Laguna	12	San Juan la Laguna	2	Febrero	2023-02-14T00:00:00	2024-11-08T05:00:00	7	Dirección del viento	1.61
36639	7	Sololá	717	San Juan la Laguna	12	San Juan la Laguna	2	Febrero	2023-02-14T00:00:00	2024-11-08T05:00:00	1	Precipitación	0
36640	7	Sololá	717	San Juan la Laguna	12	San Juan la Laguna	2	Febrero	2023-02-14T00:00:00	2024-11-08T05:00:00	8	Radiación solar	0
36641	7	Sololá	717	San Juan la Laguna	12	San Juan la Laguna	2	Febrero	2023-02-14T00:00:00	2024-11-08T06:00:00	2	Temperatura media	11.7
36642	7	Sololá	717	San Juan la Laguna	12	San Juan la Laguna	2	Febrero	2023-02-14T00:00:00	2024-11-08T06:00:00	4	Temperatura máxima	11.9
36643	7	Sololá	717	San Juan la Laguna	12	San Juan la Laguna	2	Febrero	2023-02-14T00:00:00	2024-11-08T06:00:00	3	Temperatura mínima	11.2
36644	7	Sololá	717	San Juan la Laguna	12	San Juan la Laguna	2	Febrero	2023-02-14T00:00:00	2024-11-08T06:00:00	5	Humedad	80
36645	7	Sololá	717	San Juan la Laguna	12	San Juan la Laguna	2	Febrero	2023-02-14T00:00:00	2024-11-08T06:00:00	6	Velocidad del viento	1.6
36646	7	Sololá	717	San Juan la Laguna	12	San Juan la Laguna	2	Febrero	2023-02-14T00:00:00	2024-11-08T06:00:00	7	Dirección del viento	1.61
36647	7	Sololá	717	San Juan la Laguna	12	San Juan la Laguna	2	Febrero	2023-02-14T00:00:00	2024-11-08T06:00:00	1	Precipitación	0
36648	7	Sololá	717	San Juan la Laguna	12	San Juan la Laguna	2	Febrero	2023-02-14T00:00:00	2024-11-08T06:00:00	8	Radiación solar	0
36649	7	Sololá	717	San Juan la Laguna	12	San Juan la Laguna	2	Febrero	2023-02-14T00:00:00	2024-11-08T07:00:00	2	Temperatura media	11.6
36650	7	Sololá	717	San Juan la Laguna	12	San Juan la Laguna	2	Febrero	2023-02-14T00:00:00	2024-11-08T07:00:00	4	Temperatura máxima	11.7
36651	7	Sololá	717	San Juan la Laguna	12	San Juan la Laguna	2	Febrero	2023-02-14T00:00:00	2024-11-08T07:00:00	3	Temperatura mínima	11.1
36652	7	Sololá	717	San Juan la Laguna	12	San Juan la Laguna	2	Febrero	2023-02-14T00:00:00	2024-11-08T07:00:00	5	Humedad	82
36653	7	Sololá	717	San Juan la Laguna	12	San Juan la Laguna	2	Febrero	2023-02-14T00:00:00	2024-11-08T07:00:00	6	Velocidad del viento	1.6
36654	7	Sololá	717	San Juan la Laguna	12	San Juan la Laguna	2	Febrero	2023-02-14T00:00:00	2024-11-08T07:00:00	7	Dirección del viento	1.61
36655	7	Sololá	717	San Juan la Laguna	12	San Juan la Laguna	2	Febrero	2023-02-14T00:00:00	2024-11-08T07:00:00	1	Precipitación	0
36656	7	Sololá	717	San Juan la Laguna	12	San Juan la Laguna	2	Febrero	2023-02-14T00:00:00	2024-11-08T07:00:00	8	Radiación solar	7
36657	7	Sololá	717	San Juan la Laguna	12	San Juan la Laguna	2	Febrero	2023-02-14T00:00:00	2024-11-08T08:00:00	2	Temperatura media	16.1
36658	7	Sololá	717	San Juan la Laguna	12	San Juan la Laguna	2	Febrero	2023-02-14T00:00:00	2024-11-08T08:00:00	4	Temperatura máxima	16.1
36659	7	Sololá	717	San Juan la Laguna	12	San Juan la Laguna	2	Febrero	2023-02-14T00:00:00	2024-11-08T08:00:00	3	Temperatura mínima	11.6
36660	7	Sololá	717	San Juan la Laguna	12	San Juan la Laguna	2	Febrero	2023-02-14T00:00:00	2024-11-08T08:00:00	5	Humedad	71
36661	7	Sololá	717	San Juan la Laguna	12	San Juan la Laguna	2	Febrero	2023-02-14T00:00:00	2024-11-08T08:00:00	6	Velocidad del viento	1.6
36662	7	Sololá	717	San Juan la Laguna	12	San Juan la Laguna	2	Febrero	2023-02-14T00:00:00	2024-11-08T08:00:00	7	Dirección del viento	1.61
36663	7	Sololá	717	San Juan la Laguna	12	San Juan la Laguna	2	Febrero	2023-02-14T00:00:00	2024-11-08T08:00:00	1	Precipitación	0
36664	7	Sololá	717	San Juan la Laguna	12	San Juan la Laguna	2	Febrero	2023-02-14T00:00:00	2024-11-08T08:00:00	8	Radiación solar	159
36665	7	Sololá	717	San Juan la Laguna	12	San Juan la Laguna	2	Febrero	2023-02-14T00:00:00	2024-11-08T09:00:00	2	Temperatura media	18.3
36666	7	Sololá	717	San Juan la Laguna	12	San Juan la Laguna	2	Febrero	2023-02-14T00:00:00	2024-11-08T09:00:00	4	Temperatura máxima	18.4
36667	7	Sololá	717	San Juan la Laguna	12	San Juan la Laguna	2	Febrero	2023-02-14T00:00:00	2024-11-08T09:00:00	3	Temperatura mínima	16.1
36668	7	Sololá	717	San Juan la Laguna	12	San Juan la Laguna	2	Febrero	2023-02-14T00:00:00	2024-11-08T09:00:00	5	Humedad	68
36669	7	Sololá	717	San Juan la Laguna	12	San Juan la Laguna	2	Febrero	2023-02-14T00:00:00	2024-11-08T09:00:00	6	Velocidad del viento	1.6
36670	7	Sololá	717	San Juan la Laguna	12	San Juan la Laguna	2	Febrero	2023-02-14T00:00:00	2024-11-08T09:00:00	7	Dirección del viento	1.61
36671	7	Sololá	717	San Juan la Laguna	12	San Juan la Laguna	2	Febrero	2023-02-14T00:00:00	2024-11-08T09:00:00	1	Precipitación	0
36672	7	Sololá	717	San Juan la Laguna	12	San Juan la Laguna	2	Febrero	2023-02-14T00:00:00	2024-11-08T09:00:00	8	Radiación solar	389
36673	7	Sololá	717	San Juan la Laguna	12	San Juan la Laguna	2	Febrero	2023-02-14T00:00:00	2024-11-08T10:00:00	2	Temperatura media	19.9
36674	7	Sololá	717	San Juan la Laguna	12	San Juan la Laguna	2	Febrero	2023-02-14T00:00:00	2024-11-08T10:00:00	4	Temperatura máxima	19.9
36675	7	Sololá	717	San Juan la Laguna	12	San Juan la Laguna	2	Febrero	2023-02-14T00:00:00	2024-11-08T10:00:00	3	Temperatura mínima	18.3
36676	7	Sololá	717	San Juan la Laguna	12	San Juan la Laguna	2	Febrero	2023-02-14T00:00:00	2024-11-08T10:00:00	5	Humedad	60
36677	7	Sololá	717	San Juan la Laguna	12	San Juan la Laguna	2	Febrero	2023-02-14T00:00:00	2024-11-08T10:00:00	6	Velocidad del viento	3.2
36678	7	Sololá	717	San Juan la Laguna	12	San Juan la Laguna	2	Febrero	2023-02-14T00:00:00	2024-11-08T10:00:00	7	Dirección del viento	3.22
36679	7	Sololá	717	San Juan la Laguna	12	San Juan la Laguna	2	Febrero	2023-02-14T00:00:00	2024-11-08T10:00:00	1	Precipitación	0
36680	7	Sololá	717	San Juan la Laguna	12	San Juan la Laguna	2	Febrero	2023-02-14T00:00:00	2024-11-08T10:00:00	8	Radiación solar	600
36681	7	Sololá	717	San Juan la Laguna	12	San Juan la Laguna	2	Febrero	2023-02-14T00:00:00	2024-11-08T11:00:00	2	Temperatura media	21.3
36682	7	Sololá	717	San Juan la Laguna	12	San Juan la Laguna	2	Febrero	2023-02-14T00:00:00	2024-11-08T11:00:00	4	Temperatura máxima	21.3
36683	7	Sololá	717	San Juan la Laguna	12	San Juan la Laguna	2	Febrero	2023-02-14T00:00:00	2024-11-08T11:00:00	3	Temperatura mínima	19.9
36684	7	Sololá	717	San Juan la Laguna	12	San Juan la Laguna	2	Febrero	2023-02-14T00:00:00	2024-11-08T11:00:00	5	Humedad	54
36685	7	Sololá	717	San Juan la Laguna	12	San Juan la Laguna	2	Febrero	2023-02-14T00:00:00	2024-11-08T11:00:00	6	Velocidad del viento	3.2
36686	7	Sololá	717	San Juan la Laguna	12	San Juan la Laguna	2	Febrero	2023-02-14T00:00:00	2024-11-08T11:00:00	7	Dirección del viento	3.22
36687	7	Sololá	717	San Juan la Laguna	12	San Juan la Laguna	2	Febrero	2023-02-14T00:00:00	2024-11-08T11:00:00	1	Precipitación	0
36688	7	Sololá	717	San Juan la Laguna	12	San Juan la Laguna	2	Febrero	2023-02-14T00:00:00	2024-11-08T11:00:00	8	Radiación solar	752
36689	7	Sololá	717	San Juan la Laguna	12	San Juan la Laguna	2	Febrero	2023-02-14T00:00:00	2024-11-08T12:00:00	2	Temperatura media	22.3
36690	7	Sololá	717	San Juan la Laguna	12	San Juan la Laguna	2	Febrero	2023-02-14T00:00:00	2024-11-08T12:00:00	4	Temperatura máxima	22.3
36691	7	Sololá	717	San Juan la Laguna	12	San Juan la Laguna	2	Febrero	2023-02-14T00:00:00	2024-11-08T12:00:00	3	Temperatura mínima	20.5
36692	7	Sololá	717	San Juan la Laguna	12	San Juan la Laguna	2	Febrero	2023-02-14T00:00:00	2024-11-08T12:00:00	5	Humedad	60
36693	7	Sololá	717	San Juan la Laguna	12	San Juan la Laguna	2	Febrero	2023-02-14T00:00:00	2024-11-08T12:00:00	6	Velocidad del viento	3.2
36694	7	Sololá	717	San Juan la Laguna	12	San Juan la Laguna	2	Febrero	2023-02-14T00:00:00	2024-11-08T12:00:00	7	Dirección del viento	3.22
36695	7	Sololá	717	San Juan la Laguna	12	San Juan la Laguna	2	Febrero	2023-02-14T00:00:00	2024-11-08T12:00:00	1	Precipitación	0
36696	7	Sololá	717	San Juan la Laguna	12	San Juan la Laguna	2	Febrero	2023-02-14T00:00:00	2024-11-08T12:00:00	8	Radiación solar	602
36697	7	Sololá	717	San Juan la Laguna	12	San Juan la Laguna	2	Febrero	2023-02-14T00:00:00	2024-11-08T13:00:00	2	Temperatura media	23.3
36698	7	Sololá	717	San Juan la Laguna	12	San Juan la Laguna	2	Febrero	2023-02-14T00:00:00	2024-11-08T13:00:00	4	Temperatura máxima	23.7
36699	7	Sololá	717	San Juan la Laguna	12	San Juan la Laguna	2	Febrero	2023-02-14T00:00:00	2024-11-08T13:00:00	3	Temperatura mínima	22.3
36700	7	Sololá	717	San Juan la Laguna	12	San Juan la Laguna	2	Febrero	2023-02-14T00:00:00	2024-11-08T13:00:00	5	Humedad	55
36701	7	Sololá	717	San Juan la Laguna	12	San Juan la Laguna	2	Febrero	2023-02-14T00:00:00	2024-11-08T13:00:00	6	Velocidad del viento	6.4
36702	7	Sololá	717	San Juan la Laguna	12	San Juan la Laguna	2	Febrero	2023-02-14T00:00:00	2024-11-08T13:00:00	7	Dirección del viento	6.44
36703	7	Sololá	717	San Juan la Laguna	12	San Juan la Laguna	2	Febrero	2023-02-14T00:00:00	2024-11-08T13:00:00	1	Precipitación	0
36704	7	Sololá	717	San Juan la Laguna	12	San Juan la Laguna	2	Febrero	2023-02-14T00:00:00	2024-11-08T13:00:00	8	Radiación solar	911
36705	7	Sololá	717	San Juan la Laguna	12	San Juan la Laguna	2	Febrero	2023-02-14T00:00:00	2024-11-08T14:00:00	2	Temperatura media	22.4
36706	7	Sololá	717	San Juan la Laguna	12	San Juan la Laguna	2	Febrero	2023-02-14T00:00:00	2024-11-08T14:00:00	4	Temperatura máxima	23.3
36707	7	Sololá	717	San Juan la Laguna	12	San Juan la Laguna	2	Febrero	2023-02-14T00:00:00	2024-11-08T14:00:00	3	Temperatura mínima	21.6
36708	7	Sololá	717	San Juan la Laguna	12	San Juan la Laguna	2	Febrero	2023-02-14T00:00:00	2024-11-08T14:00:00	5	Humedad	64
36709	7	Sololá	717	San Juan la Laguna	12	San Juan la Laguna	2	Febrero	2023-02-14T00:00:00	2024-11-08T14:00:00	6	Velocidad del viento	3.2
36710	7	Sololá	717	San Juan la Laguna	12	San Juan la Laguna	2	Febrero	2023-02-14T00:00:00	2024-11-08T14:00:00	7	Dirección del viento	3.22
36711	7	Sololá	717	San Juan la Laguna	12	San Juan la Laguna	2	Febrero	2023-02-14T00:00:00	2024-11-08T14:00:00	1	Precipitación	0
36712	7	Sololá	717	San Juan la Laguna	12	San Juan la Laguna	2	Febrero	2023-02-14T00:00:00	2024-11-08T14:00:00	8	Radiación solar	533
36713	7	Sololá	717	San Juan la Laguna	12	San Juan la Laguna	2	Febrero	2023-02-14T00:00:00	2024-11-08T15:00:00	2	Temperatura media	21.8
36714	7	Sololá	717	San Juan la Laguna	12	San Juan la Laguna	2	Febrero	2023-02-14T00:00:00	2024-11-08T15:00:00	4	Temperatura máxima	23.1
36715	7	Sololá	717	San Juan la Laguna	12	San Juan la Laguna	2	Febrero	2023-02-14T00:00:00	2024-11-08T15:00:00	3	Temperatura mínima	21.8
36716	7	Sololá	717	San Juan la Laguna	12	San Juan la Laguna	2	Febrero	2023-02-14T00:00:00	2024-11-08T15:00:00	5	Humedad	66
36717	7	Sololá	717	San Juan la Laguna	12	San Juan la Laguna	2	Febrero	2023-02-14T00:00:00	2024-11-08T15:00:00	6	Velocidad del viento	9.7
36718	7	Sololá	717	San Juan la Laguna	12	San Juan la Laguna	2	Febrero	2023-02-14T00:00:00	2024-11-08T15:00:00	7	Dirección del viento	9.66
36719	7	Sololá	717	San Juan la Laguna	12	San Juan la Laguna	2	Febrero	2023-02-14T00:00:00	2024-11-08T15:00:00	1	Precipitación	0
36720	7	Sololá	717	San Juan la Laguna	12	San Juan la Laguna	2	Febrero	2023-02-14T00:00:00	2024-11-08T15:00:00	8	Radiación solar	738
36721	7	Sololá	717	San Juan la Laguna	12	San Juan la Laguna	2	Febrero	2023-02-14T00:00:00	2024-11-08T16:00:00	2	Temperatura media	21.6
36722	7	Sololá	717	San Juan la Laguna	12	San Juan la Laguna	2	Febrero	2023-02-14T00:00:00	2024-11-08T16:00:00	4	Temperatura máxima	22.1
36723	7	Sololá	717	San Juan la Laguna	12	San Juan la Laguna	2	Febrero	2023-02-14T00:00:00	2024-11-08T16:00:00	3	Temperatura mínima	21.6
36724	7	Sololá	717	San Juan la Laguna	12	San Juan la Laguna	2	Febrero	2023-02-14T00:00:00	2024-11-08T16:00:00	5	Humedad	68
36725	7	Sololá	717	San Juan la Laguna	12	San Juan la Laguna	2	Febrero	2023-02-14T00:00:00	2024-11-08T16:00:00	6	Velocidad del viento	9.7
36726	7	Sololá	717	San Juan la Laguna	12	San Juan la Laguna	2	Febrero	2023-02-14T00:00:00	2024-11-08T16:00:00	7	Dirección del viento	9.66
36727	7	Sololá	717	San Juan la Laguna	12	San Juan la Laguna	2	Febrero	2023-02-14T00:00:00	2024-11-08T16:00:00	1	Precipitación	0
36728	7	Sololá	717	San Juan la Laguna	12	San Juan la Laguna	2	Febrero	2023-02-14T00:00:00	2024-11-08T16:00:00	8	Radiación solar	553
36729	7	Sololá	717	San Juan la Laguna	12	San Juan la Laguna	2	Febrero	2023-02-14T00:00:00	2024-11-08T17:00:00	2	Temperatura media	19.9
36730	7	Sololá	717	San Juan la Laguna	12	San Juan la Laguna	2	Febrero	2023-02-14T00:00:00	2024-11-08T17:00:00	4	Temperatura máxima	21.6
36731	7	Sololá	717	San Juan la Laguna	12	San Juan la Laguna	2	Febrero	2023-02-14T00:00:00	2024-11-08T17:00:00	3	Temperatura mínima	19.9
36732	7	Sololá	717	San Juan la Laguna	12	San Juan la Laguna	2	Febrero	2023-02-14T00:00:00	2024-11-08T17:00:00	5	Humedad	74
36733	7	Sololá	717	San Juan la Laguna	12	San Juan la Laguna	2	Febrero	2023-02-14T00:00:00	2024-11-08T17:00:00	6	Velocidad del viento	8
36734	7	Sololá	717	San Juan la Laguna	12	San Juan la Laguna	2	Febrero	2023-02-14T00:00:00	2024-11-08T17:00:00	7	Dirección del viento	8.05
36735	7	Sololá	717	San Juan la Laguna	12	San Juan la Laguna	2	Febrero	2023-02-14T00:00:00	2024-11-08T17:00:00	1	Precipitación	0
36736	7	Sololá	717	San Juan la Laguna	12	San Juan la Laguna	2	Febrero	2023-02-14T00:00:00	2024-11-08T17:00:00	8	Radiación solar	285
36737	7	Sololá	717	San Juan la Laguna	12	San Juan la Laguna	2	Febrero	2023-02-14T00:00:00	2024-11-08T18:00:00	2	Temperatura media	19.6
36738	7	Sololá	717	San Juan la Laguna	12	San Juan la Laguna	2	Febrero	2023-02-14T00:00:00	2024-11-08T18:00:00	4	Temperatura máxima	19.9
36739	7	Sololá	717	San Juan la Laguna	12	San Juan la Laguna	2	Febrero	2023-02-14T00:00:00	2024-11-08T18:00:00	3	Temperatura mínima	19.4
36740	7	Sololá	717	San Juan la Laguna	12	San Juan la Laguna	2	Febrero	2023-02-14T00:00:00	2024-11-08T18:00:00	5	Humedad	77
36741	7	Sololá	717	San Juan la Laguna	12	San Juan la Laguna	2	Febrero	2023-02-14T00:00:00	2024-11-08T18:00:00	6	Velocidad del viento	4.8
36742	7	Sololá	717	San Juan la Laguna	12	San Juan la Laguna	2	Febrero	2023-02-14T00:00:00	2024-11-08T18:00:00	7	Dirección del viento	4.83
36743	7	Sololá	717	San Juan la Laguna	12	San Juan la Laguna	2	Febrero	2023-02-14T00:00:00	2024-11-08T18:00:00	1	Precipitación	0
36744	7	Sololá	717	San Juan la Laguna	12	San Juan la Laguna	2	Febrero	2023-02-14T00:00:00	2024-11-08T18:00:00	8	Radiación solar	35
36745	7	Sololá	717	San Juan la Laguna	12	San Juan la Laguna	2	Febrero	2023-02-14T00:00:00	2024-11-08T19:00:00	2	Temperatura media	18.7
36746	7	Sololá	717	San Juan la Laguna	12	San Juan la Laguna	2	Febrero	2023-02-14T00:00:00	2024-11-08T19:00:00	4	Temperatura máxima	19.6
36747	7	Sololá	717	San Juan la Laguna	12	San Juan la Laguna	2	Febrero	2023-02-14T00:00:00	2024-11-08T19:00:00	3	Temperatura mínima	18.7
36748	7	Sololá	717	San Juan la Laguna	12	San Juan la Laguna	2	Febrero	2023-02-14T00:00:00	2024-11-08T19:00:00	5	Humedad	79
36749	7	Sololá	717	San Juan la Laguna	12	San Juan la Laguna	2	Febrero	2023-02-14T00:00:00	2024-11-08T19:00:00	6	Velocidad del viento	1.6
36750	7	Sololá	717	San Juan la Laguna	12	San Juan la Laguna	2	Febrero	2023-02-14T00:00:00	2024-11-08T19:00:00	7	Dirección del viento	1.61
36751	7	Sololá	717	San Juan la Laguna	12	San Juan la Laguna	2	Febrero	2023-02-14T00:00:00	2024-11-08T19:00:00	1	Precipitación	0
36752	7	Sololá	717	San Juan la Laguna	12	San Juan la Laguna	2	Febrero	2023-02-14T00:00:00	2024-11-08T19:00:00	8	Radiación solar	0
36753	7	Sololá	717	San Juan la Laguna	12	San Juan la Laguna	2	Febrero	2023-02-14T00:00:00	2024-11-08T20:00:00	2	Temperatura media	17.4
36754	7	Sololá	717	San Juan la Laguna	12	San Juan la Laguna	2	Febrero	2023-02-14T00:00:00	2024-11-08T20:00:00	4	Temperatura máxima	18.7
36755	7	Sololá	717	San Juan la Laguna	12	San Juan la Laguna	2	Febrero	2023-02-14T00:00:00	2024-11-08T20:00:00	3	Temperatura mínima	17.3
36756	7	Sololá	717	San Juan la Laguna	12	San Juan la Laguna	2	Febrero	2023-02-14T00:00:00	2024-11-08T20:00:00	5	Humedad	83
36757	7	Sololá	717	San Juan la Laguna	12	San Juan la Laguna	2	Febrero	2023-02-14T00:00:00	2024-11-08T20:00:00	6	Velocidad del viento	0
36758	7	Sololá	717	San Juan la Laguna	12	San Juan la Laguna	2	Febrero	2023-02-14T00:00:00	2024-11-08T20:00:00	7	Dirección del viento	0
36759	7	Sololá	717	San Juan la Laguna	12	San Juan la Laguna	2	Febrero	2023-02-14T00:00:00	2024-11-08T20:00:00	1	Precipitación	0
36760	7	Sololá	717	San Juan la Laguna	12	San Juan la Laguna	2	Febrero	2023-02-14T00:00:00	2024-11-08T20:00:00	8	Radiación solar	0
36761	7	Sololá	717	San Juan la Laguna	12	San Juan la Laguna	2	Febrero	2023-02-14T00:00:00	2024-11-08T21:00:00	2	Temperatura media	16.3
36762	7	Sololá	717	San Juan la Laguna	12	San Juan la Laguna	2	Febrero	2023-02-14T00:00:00	2024-11-08T21:00:00	4	Temperatura máxima	17.4
36763	7	Sololá	717	San Juan la Laguna	12	San Juan la Laguna	2	Febrero	2023-02-14T00:00:00	2024-11-08T21:00:00	3	Temperatura mínima	16.3
36764	7	Sololá	717	San Juan la Laguna	12	San Juan la Laguna	2	Febrero	2023-02-14T00:00:00	2024-11-08T21:00:00	5	Humedad	83
36765	7	Sololá	717	San Juan la Laguna	12	San Juan la Laguna	2	Febrero	2023-02-14T00:00:00	2024-11-08T21:00:00	6	Velocidad del viento	1.6
36766	7	Sololá	717	San Juan la Laguna	12	San Juan la Laguna	2	Febrero	2023-02-14T00:00:00	2024-11-08T21:00:00	7	Dirección del viento	1.61
36767	7	Sololá	717	San Juan la Laguna	12	San Juan la Laguna	2	Febrero	2023-02-14T00:00:00	2024-11-08T21:00:00	1	Precipitación	0
36768	7	Sololá	717	San Juan la Laguna	12	San Juan la Laguna	2	Febrero	2023-02-14T00:00:00	2024-11-08T21:00:00	8	Radiación solar	0
36769	7	Sololá	717	San Juan la Laguna	12	San Juan la Laguna	2	Febrero	2023-02-14T00:00:00	2024-11-08T22:00:00	2	Temperatura media	15.3
36770	7	Sololá	717	San Juan la Laguna	12	San Juan la Laguna	2	Febrero	2023-02-14T00:00:00	2024-11-08T22:00:00	4	Temperatura máxima	16.3
36771	7	Sololá	717	San Juan la Laguna	12	San Juan la Laguna	2	Febrero	2023-02-14T00:00:00	2024-11-08T22:00:00	3	Temperatura mínima	15.3
36772	7	Sololá	717	San Juan la Laguna	12	San Juan la Laguna	2	Febrero	2023-02-14T00:00:00	2024-11-08T22:00:00	5	Humedad	81
36773	7	Sololá	717	San Juan la Laguna	12	San Juan la Laguna	2	Febrero	2023-02-14T00:00:00	2024-11-08T22:00:00	6	Velocidad del viento	3.2
36774	7	Sololá	717	San Juan la Laguna	12	San Juan la Laguna	2	Febrero	2023-02-14T00:00:00	2024-11-08T22:00:00	7	Dirección del viento	3.22
36775	7	Sololá	717	San Juan la Laguna	12	San Juan la Laguna	2	Febrero	2023-02-14T00:00:00	2024-11-08T22:00:00	1	Precipitación	0
36776	7	Sololá	717	San Juan la Laguna	12	San Juan la Laguna	2	Febrero	2023-02-14T00:00:00	2024-11-08T22:00:00	8	Radiación solar	0
36777	7	Sololá	717	San Juan la Laguna	12	San Juan la Laguna	2	Febrero	2023-02-14T00:00:00	2024-11-08T23:00:00	2	Temperatura media	14.8
36778	7	Sololá	717	San Juan la Laguna	12	San Juan la Laguna	2	Febrero	2023-02-14T00:00:00	2024-11-08T23:00:00	4	Temperatura máxima	15.4
36779	7	Sololá	717	San Juan la Laguna	12	San Juan la Laguna	2	Febrero	2023-02-14T00:00:00	2024-11-08T23:00:00	3	Temperatura mínima	14.8
36780	7	Sololá	717	San Juan la Laguna	12	San Juan la Laguna	2	Febrero	2023-02-14T00:00:00	2024-11-08T23:00:00	5	Humedad	84
36781	7	Sololá	717	San Juan la Laguna	12	San Juan la Laguna	2	Febrero	2023-02-14T00:00:00	2024-11-08T23:00:00	6	Velocidad del viento	3.2
36782	7	Sololá	717	San Juan la Laguna	12	San Juan la Laguna	2	Febrero	2023-02-14T00:00:00	2024-11-08T23:00:00	7	Dirección del viento	3.22
36783	7	Sololá	717	San Juan la Laguna	12	San Juan la Laguna	2	Febrero	2023-02-14T00:00:00	2024-11-08T23:00:00	1	Precipitación	0
36784	7	Sololá	717	San Juan la Laguna	12	San Juan la Laguna	2	Febrero	2023-02-14T00:00:00	2024-11-08T23:00:00	8	Radiación solar	0
36785	7	Sololá	717	San Juan la Laguna	12	San Juan la Laguna	2	Febrero	2023-02-15T00:00:00	2024-11-08T00:00:00	2	Temperatura media	14.6
36786	7	Sololá	717	San Juan la Laguna	12	San Juan la Laguna	2	Febrero	2023-02-15T00:00:00	2024-11-08T00:00:00	4	Temperatura máxima	14.9
36787	7	Sololá	717	San Juan la Laguna	12	San Juan la Laguna	2	Febrero	2023-02-15T00:00:00	2024-11-08T00:00:00	3	Temperatura mínima	14.5
36788	7	Sololá	717	San Juan la Laguna	12	San Juan la Laguna	2	Febrero	2023-02-15T00:00:00	2024-11-08T00:00:00	5	Humedad	83
36789	7	Sololá	717	San Juan la Laguna	12	San Juan la Laguna	2	Febrero	2023-02-15T00:00:00	2024-11-08T00:00:00	6	Velocidad del viento	3.2
36790	7	Sololá	717	San Juan la Laguna	12	San Juan la Laguna	2	Febrero	2023-02-15T00:00:00	2024-11-08T00:00:00	7	Dirección del viento	3.22
36791	7	Sololá	717	San Juan la Laguna	12	San Juan la Laguna	2	Febrero	2023-02-15T00:00:00	2024-11-08T00:00:00	1	Precipitación	0
36792	7	Sololá	717	San Juan la Laguna	12	San Juan la Laguna	2	Febrero	2023-02-15T00:00:00	2024-11-08T00:00:00	8	Radiación solar	0
36793	7	Sololá	717	San Juan la Laguna	12	San Juan la Laguna	2	Febrero	2023-02-15T00:00:00	2024-11-08T01:00:00	2	Temperatura media	13.8
36794	7	Sololá	717	San Juan la Laguna	12	San Juan la Laguna	2	Febrero	2023-02-15T00:00:00	2024-11-08T01:00:00	4	Temperatura máxima	14.6
36795	7	Sololá	717	San Juan la Laguna	12	San Juan la Laguna	2	Febrero	2023-02-15T00:00:00	2024-11-08T01:00:00	3	Temperatura mínima	13.8
36796	7	Sololá	717	San Juan la Laguna	12	San Juan la Laguna	2	Febrero	2023-02-15T00:00:00	2024-11-08T01:00:00	5	Humedad	84
36797	7	Sololá	717	San Juan la Laguna	12	San Juan la Laguna	2	Febrero	2023-02-15T00:00:00	2024-11-08T01:00:00	6	Velocidad del viento	3.2
36798	7	Sololá	717	San Juan la Laguna	12	San Juan la Laguna	2	Febrero	2023-02-15T00:00:00	2024-11-08T01:00:00	7	Dirección del viento	3.22
36799	7	Sololá	717	San Juan la Laguna	12	San Juan la Laguna	2	Febrero	2023-02-15T00:00:00	2024-11-08T01:00:00	1	Precipitación	0
36800	7	Sololá	717	San Juan la Laguna	12	San Juan la Laguna	2	Febrero	2023-02-15T00:00:00	2024-11-08T01:00:00	8	Radiación solar	0
36801	7	Sololá	717	San Juan la Laguna	12	San Juan la Laguna	2	Febrero	2023-02-15T00:00:00	2024-11-08T02:00:00	2	Temperatura media	13.3
36802	7	Sololá	717	San Juan la Laguna	12	San Juan la Laguna	2	Febrero	2023-02-15T00:00:00	2024-11-08T02:00:00	4	Temperatura máxima	14
36803	7	Sololá	717	San Juan la Laguna	12	San Juan la Laguna	2	Febrero	2023-02-15T00:00:00	2024-11-08T02:00:00	3	Temperatura mínima	13.3
36804	7	Sololá	717	San Juan la Laguna	12	San Juan la Laguna	2	Febrero	2023-02-15T00:00:00	2024-11-08T02:00:00	5	Humedad	84
36805	7	Sololá	717	San Juan la Laguna	12	San Juan la Laguna	2	Febrero	2023-02-15T00:00:00	2024-11-08T02:00:00	6	Velocidad del viento	1.6
36806	7	Sololá	717	San Juan la Laguna	12	San Juan la Laguna	2	Febrero	2023-02-15T00:00:00	2024-11-08T02:00:00	7	Dirección del viento	1.61
36807	7	Sololá	717	San Juan la Laguna	12	San Juan la Laguna	2	Febrero	2023-02-15T00:00:00	2024-11-08T02:00:00	1	Precipitación	0
36808	7	Sololá	717	San Juan la Laguna	12	San Juan la Laguna	2	Febrero	2023-02-15T00:00:00	2024-11-08T02:00:00	8	Radiación solar	0
36809	7	Sololá	717	San Juan la Laguna	12	San Juan la Laguna	2	Febrero	2023-02-15T00:00:00	2024-11-08T03:00:00	2	Temperatura media	13.1
36810	7	Sololá	717	San Juan la Laguna	12	San Juan la Laguna	2	Febrero	2023-02-15T00:00:00	2024-11-08T03:00:00	4	Temperatura máxima	13.3
36811	7	Sololá	717	San Juan la Laguna	12	San Juan la Laguna	2	Febrero	2023-02-15T00:00:00	2024-11-08T03:00:00	3	Temperatura mínima	13
36812	7	Sololá	717	San Juan la Laguna	12	San Juan la Laguna	2	Febrero	2023-02-15T00:00:00	2024-11-08T03:00:00	5	Humedad	84
36813	7	Sololá	717	San Juan la Laguna	12	San Juan la Laguna	2	Febrero	2023-02-15T00:00:00	2024-11-08T03:00:00	6	Velocidad del viento	1.6
36814	7	Sololá	717	San Juan la Laguna	12	San Juan la Laguna	2	Febrero	2023-02-15T00:00:00	2024-11-08T03:00:00	7	Dirección del viento	1.61
36815	7	Sololá	717	San Juan la Laguna	12	San Juan la Laguna	2	Febrero	2023-02-15T00:00:00	2024-11-08T03:00:00	1	Precipitación	0
36816	7	Sololá	717	San Juan la Laguna	12	San Juan la Laguna	2	Febrero	2023-02-15T00:00:00	2024-11-08T03:00:00	8	Radiación solar	0
36817	7	Sololá	717	San Juan la Laguna	12	San Juan la Laguna	2	Febrero	2023-02-15T00:00:00	2024-11-08T04:00:00	2	Temperatura media	12.7
36818	7	Sololá	717	San Juan la Laguna	12	San Juan la Laguna	2	Febrero	2023-02-15T00:00:00	2024-11-08T04:00:00	4	Temperatura máxima	13.1
36819	7	Sololá	717	San Juan la Laguna	12	San Juan la Laguna	2	Febrero	2023-02-15T00:00:00	2024-11-08T04:00:00	3	Temperatura mínima	12.7
36820	7	Sololá	717	San Juan la Laguna	12	San Juan la Laguna	2	Febrero	2023-02-15T00:00:00	2024-11-08T04:00:00	5	Humedad	84
36821	7	Sololá	717	San Juan la Laguna	12	San Juan la Laguna	2	Febrero	2023-02-15T00:00:00	2024-11-08T04:00:00	6	Velocidad del viento	3.2
36822	7	Sololá	717	San Juan la Laguna	12	San Juan la Laguna	2	Febrero	2023-02-15T00:00:00	2024-11-08T04:00:00	7	Dirección del viento	3.22
36823	7	Sololá	717	San Juan la Laguna	12	San Juan la Laguna	2	Febrero	2023-02-15T00:00:00	2024-11-08T04:00:00	1	Precipitación	0
36824	7	Sololá	717	San Juan la Laguna	12	San Juan la Laguna	2	Febrero	2023-02-15T00:00:00	2024-11-08T04:00:00	8	Radiación solar	0
36825	7	Sololá	717	San Juan la Laguna	12	San Juan la Laguna	2	Febrero	2023-02-15T00:00:00	2024-11-08T05:00:00	2	Temperatura media	12.3
36826	7	Sololá	717	San Juan la Laguna	12	San Juan la Laguna	2	Febrero	2023-02-15T00:00:00	2024-11-08T05:00:00	4	Temperatura máxima	12.7
36827	7	Sololá	717	San Juan la Laguna	12	San Juan la Laguna	2	Febrero	2023-02-15T00:00:00	2024-11-08T05:00:00	3	Temperatura mínima	12.2
36828	7	Sololá	717	San Juan la Laguna	12	San Juan la Laguna	2	Febrero	2023-02-15T00:00:00	2024-11-08T05:00:00	5	Humedad	84
36829	7	Sololá	717	San Juan la Laguna	12	San Juan la Laguna	2	Febrero	2023-02-15T00:00:00	2024-11-08T05:00:00	6	Velocidad del viento	3.2
36830	7	Sololá	717	San Juan la Laguna	12	San Juan la Laguna	2	Febrero	2023-02-15T00:00:00	2024-11-08T05:00:00	7	Dirección del viento	3.22
36831	7	Sololá	717	San Juan la Laguna	12	San Juan la Laguna	2	Febrero	2023-02-15T00:00:00	2024-11-08T05:00:00	1	Precipitación	0
36832	7	Sololá	717	San Juan la Laguna	12	San Juan la Laguna	2	Febrero	2023-02-15T00:00:00	2024-11-08T05:00:00	8	Radiación solar	0
36833	7	Sololá	717	San Juan la Laguna	12	San Juan la Laguna	2	Febrero	2023-02-15T00:00:00	2024-11-08T06:00:00	2	Temperatura media	11.8
36834	7	Sololá	717	San Juan la Laguna	12	San Juan la Laguna	2	Febrero	2023-02-15T00:00:00	2024-11-08T06:00:00	4	Temperatura máxima	12.4
36835	7	Sololá	717	San Juan la Laguna	12	San Juan la Laguna	2	Febrero	2023-02-15T00:00:00	2024-11-08T06:00:00	3	Temperatura mínima	11.8
36836	7	Sololá	717	San Juan la Laguna	12	San Juan la Laguna	2	Febrero	2023-02-15T00:00:00	2024-11-08T06:00:00	5	Humedad	85
36837	7	Sololá	717	San Juan la Laguna	12	San Juan la Laguna	2	Febrero	2023-02-15T00:00:00	2024-11-08T06:00:00	6	Velocidad del viento	1.6
36838	7	Sololá	717	San Juan la Laguna	12	San Juan la Laguna	2	Febrero	2023-02-15T00:00:00	2024-11-08T06:00:00	7	Dirección del viento	1.61
36839	7	Sololá	717	San Juan la Laguna	12	San Juan la Laguna	2	Febrero	2023-02-15T00:00:00	2024-11-08T06:00:00	1	Precipitación	0
36840	7	Sololá	717	San Juan la Laguna	12	San Juan la Laguna	2	Febrero	2023-02-15T00:00:00	2024-11-08T06:00:00	8	Radiación solar	0
36841	7	Sololá	717	San Juan la Laguna	12	San Juan la Laguna	2	Febrero	2023-02-15T00:00:00	2024-11-08T07:00:00	2	Temperatura media	12.1
36842	7	Sololá	717	San Juan la Laguna	12	San Juan la Laguna	2	Febrero	2023-02-15T00:00:00	2024-11-08T07:00:00	4	Temperatura máxima	12.2
36843	7	Sololá	717	San Juan la Laguna	12	San Juan la Laguna	2	Febrero	2023-02-15T00:00:00	2024-11-08T07:00:00	3	Temperatura mínima	11.7
36844	7	Sololá	717	San Juan la Laguna	12	San Juan la Laguna	2	Febrero	2023-02-15T00:00:00	2024-11-08T07:00:00	5	Humedad	83
36845	7	Sololá	717	San Juan la Laguna	12	San Juan la Laguna	2	Febrero	2023-02-15T00:00:00	2024-11-08T07:00:00	6	Velocidad del viento	3.2
36846	7	Sololá	717	San Juan la Laguna	12	San Juan la Laguna	2	Febrero	2023-02-15T00:00:00	2024-11-08T07:00:00	7	Dirección del viento	3.22
36847	7	Sololá	717	San Juan la Laguna	12	San Juan la Laguna	2	Febrero	2023-02-15T00:00:00	2024-11-08T07:00:00	1	Precipitación	0
36848	7	Sololá	717	San Juan la Laguna	12	San Juan la Laguna	2	Febrero	2023-02-15T00:00:00	2024-11-08T07:00:00	8	Radiación solar	9
36849	7	Sololá	717	San Juan la Laguna	12	San Juan la Laguna	2	Febrero	2023-02-15T00:00:00	2024-11-08T08:00:00	2	Temperatura media	15.3
36850	7	Sololá	717	San Juan la Laguna	12	San Juan la Laguna	2	Febrero	2023-02-15T00:00:00	2024-11-08T08:00:00	4	Temperatura máxima	15.3
36851	7	Sololá	717	San Juan la Laguna	12	San Juan la Laguna	2	Febrero	2023-02-15T00:00:00	2024-11-08T08:00:00	3	Temperatura mínima	12.2
36852	7	Sololá	717	San Juan la Laguna	12	San Juan la Laguna	2	Febrero	2023-02-15T00:00:00	2024-11-08T08:00:00	5	Humedad	78
36853	7	Sololá	717	San Juan la Laguna	12	San Juan la Laguna	2	Febrero	2023-02-15T00:00:00	2024-11-08T08:00:00	6	Velocidad del viento	1.6
36854	7	Sololá	717	San Juan la Laguna	12	San Juan la Laguna	2	Febrero	2023-02-15T00:00:00	2024-11-08T08:00:00	7	Dirección del viento	1.61
36855	7	Sololá	717	San Juan la Laguna	12	San Juan la Laguna	2	Febrero	2023-02-15T00:00:00	2024-11-08T08:00:00	1	Precipitación	0
36856	7	Sololá	717	San Juan la Laguna	12	San Juan la Laguna	2	Febrero	2023-02-15T00:00:00	2024-11-08T08:00:00	8	Radiación solar	156
36857	7	Sololá	717	San Juan la Laguna	12	San Juan la Laguna	2	Febrero	2023-02-15T00:00:00	2024-11-08T09:00:00	2	Temperatura media	18
36858	7	Sololá	717	San Juan la Laguna	12	San Juan la Laguna	2	Febrero	2023-02-15T00:00:00	2024-11-08T09:00:00	4	Temperatura máxima	18.7
36859	7	Sololá	717	San Juan la Laguna	12	San Juan la Laguna	2	Febrero	2023-02-15T00:00:00	2024-11-08T09:00:00	3	Temperatura mínima	15.3
36860	7	Sololá	717	San Juan la Laguna	12	San Juan la Laguna	2	Febrero	2023-02-15T00:00:00	2024-11-08T09:00:00	5	Humedad	77
36861	7	Sololá	717	San Juan la Laguna	12	San Juan la Laguna	2	Febrero	2023-02-15T00:00:00	2024-11-08T09:00:00	6	Velocidad del viento	1.6
36862	7	Sololá	717	San Juan la Laguna	12	San Juan la Laguna	2	Febrero	2023-02-15T00:00:00	2024-11-08T09:00:00	7	Dirección del viento	1.61
36863	7	Sololá	717	San Juan la Laguna	12	San Juan la Laguna	2	Febrero	2023-02-15T00:00:00	2024-11-08T09:00:00	1	Precipitación	0
36864	7	Sololá	717	San Juan la Laguna	12	San Juan la Laguna	2	Febrero	2023-02-15T00:00:00	2024-11-08T09:00:00	8	Radiación solar	383
36865	7	Sololá	717	San Juan la Laguna	12	San Juan la Laguna	2	Febrero	2023-02-15T00:00:00	2024-11-08T10:00:00	2	Temperatura media	18.8
36866	7	Sololá	717	San Juan la Laguna	12	San Juan la Laguna	2	Febrero	2023-02-15T00:00:00	2024-11-08T10:00:00	4	Temperatura máxima	19.2
36867	7	Sololá	717	San Juan la Laguna	12	San Juan la Laguna	2	Febrero	2023-02-15T00:00:00	2024-11-08T10:00:00	3	Temperatura mínima	18
36868	7	Sololá	717	San Juan la Laguna	12	San Juan la Laguna	2	Febrero	2023-02-15T00:00:00	2024-11-08T10:00:00	5	Humedad	73
36869	7	Sololá	717	San Juan la Laguna	12	San Juan la Laguna	2	Febrero	2023-02-15T00:00:00	2024-11-08T10:00:00	6	Velocidad del viento	3.2
36870	7	Sololá	717	San Juan la Laguna	12	San Juan la Laguna	2	Febrero	2023-02-15T00:00:00	2024-11-08T10:00:00	7	Dirección del viento	3.22
36871	7	Sololá	717	San Juan la Laguna	12	San Juan la Laguna	2	Febrero	2023-02-15T00:00:00	2024-11-08T10:00:00	1	Precipitación	0
36872	7	Sololá	717	San Juan la Laguna	12	San Juan la Laguna	2	Febrero	2023-02-15T00:00:00	2024-11-08T10:00:00	8	Radiación solar	593
36873	7	Sololá	717	San Juan la Laguna	12	San Juan la Laguna	2	Febrero	2023-02-15T00:00:00	2024-11-08T11:00:00	2	Temperatura media	20.6
36874	7	Sololá	717	San Juan la Laguna	12	San Juan la Laguna	2	Febrero	2023-02-15T00:00:00	2024-11-08T11:00:00	4	Temperatura máxima	20.7
36875	7	Sololá	717	San Juan la Laguna	12	San Juan la Laguna	2	Febrero	2023-02-15T00:00:00	2024-11-08T11:00:00	3	Temperatura mínima	18.8
36876	7	Sololá	717	San Juan la Laguna	12	San Juan la Laguna	2	Febrero	2023-02-15T00:00:00	2024-11-08T11:00:00	5	Humedad	65
36877	7	Sololá	717	San Juan la Laguna	12	San Juan la Laguna	2	Febrero	2023-02-15T00:00:00	2024-11-08T11:00:00	6	Velocidad del viento	3.2
36878	7	Sololá	717	San Juan la Laguna	12	San Juan la Laguna	2	Febrero	2023-02-15T00:00:00	2024-11-08T11:00:00	7	Dirección del viento	3.22
36879	7	Sololá	717	San Juan la Laguna	12	San Juan la Laguna	2	Febrero	2023-02-15T00:00:00	2024-11-08T11:00:00	1	Precipitación	0
36880	7	Sololá	717	San Juan la Laguna	12	San Juan la Laguna	2	Febrero	2023-02-15T00:00:00	2024-11-08T11:00:00	8	Radiación solar	736
36881	7	Sololá	717	San Juan la Laguna	12	San Juan la Laguna	2	Febrero	2023-02-15T00:00:00	2024-11-08T12:00:00	2	Temperatura media	21.2
36882	7	Sololá	717	San Juan la Laguna	12	San Juan la Laguna	2	Febrero	2023-02-15T00:00:00	2024-11-08T12:00:00	4	Temperatura máxima	21.3
36883	7	Sololá	717	San Juan la Laguna	12	San Juan la Laguna	2	Febrero	2023-02-15T00:00:00	2024-11-08T12:00:00	3	Temperatura mínima	19.9
36884	7	Sololá	717	San Juan la Laguna	12	San Juan la Laguna	2	Febrero	2023-02-15T00:00:00	2024-11-08T12:00:00	5	Humedad	68
36885	7	Sololá	717	San Juan la Laguna	12	San Juan la Laguna	2	Febrero	2023-02-15T00:00:00	2024-11-08T12:00:00	6	Velocidad del viento	6.4
36886	7	Sololá	717	San Juan la Laguna	12	San Juan la Laguna	2	Febrero	2023-02-15T00:00:00	2024-11-08T12:00:00	7	Dirección del viento	6.44
36887	7	Sololá	717	San Juan la Laguna	12	San Juan la Laguna	2	Febrero	2023-02-15T00:00:00	2024-11-08T12:00:00	1	Precipitación	0
36888	7	Sololá	717	San Juan la Laguna	12	San Juan la Laguna	2	Febrero	2023-02-15T00:00:00	2024-11-08T12:00:00	8	Radiación solar	739
36889	7	Sololá	717	San Juan la Laguna	12	San Juan la Laguna	2	Febrero	2023-02-15T00:00:00	2024-11-08T13:00:00	2	Temperatura media	22.1
36890	7	Sololá	717	San Juan la Laguna	12	San Juan la Laguna	2	Febrero	2023-02-15T00:00:00	2024-11-08T13:00:00	4	Temperatura máxima	22.6
36891	7	Sololá	717	San Juan la Laguna	12	San Juan la Laguna	2	Febrero	2023-02-15T00:00:00	2024-11-08T13:00:00	3	Temperatura mínima	21.2
36892	7	Sololá	717	San Juan la Laguna	12	San Juan la Laguna	2	Febrero	2023-02-15T00:00:00	2024-11-08T13:00:00	5	Humedad	67
36893	7	Sololá	717	San Juan la Laguna	12	San Juan la Laguna	2	Febrero	2023-02-15T00:00:00	2024-11-08T13:00:00	6	Velocidad del viento	8
36894	7	Sololá	717	San Juan la Laguna	12	San Juan la Laguna	2	Febrero	2023-02-15T00:00:00	2024-11-08T13:00:00	7	Dirección del viento	8.05
36895	7	Sololá	717	San Juan la Laguna	12	San Juan la Laguna	2	Febrero	2023-02-15T00:00:00	2024-11-08T13:00:00	1	Precipitación	0
36896	7	Sololá	717	San Juan la Laguna	12	San Juan la Laguna	2	Febrero	2023-02-15T00:00:00	2024-11-08T13:00:00	8	Radiación solar	860
36897	7	Sololá	717	San Juan la Laguna	12	San Juan la Laguna	2	Febrero	2023-02-15T00:00:00	2024-11-08T14:00:00	2	Temperatura media	20.9
36898	7	Sololá	717	San Juan la Laguna	12	San Juan la Laguna	2	Febrero	2023-02-15T00:00:00	2024-11-08T14:00:00	4	Temperatura máxima	22.1
36899	7	Sololá	717	San Juan la Laguna	12	San Juan la Laguna	2	Febrero	2023-02-15T00:00:00	2024-11-08T14:00:00	3	Temperatura mínima	20.8
36900	7	Sololá	717	San Juan la Laguna	12	San Juan la Laguna	2	Febrero	2023-02-15T00:00:00	2024-11-08T14:00:00	5	Humedad	72
36901	7	Sololá	717	San Juan la Laguna	12	San Juan la Laguna	2	Febrero	2023-02-15T00:00:00	2024-11-08T14:00:00	6	Velocidad del viento	14.5
36902	7	Sololá	717	San Juan la Laguna	12	San Juan la Laguna	2	Febrero	2023-02-15T00:00:00	2024-11-08T14:00:00	7	Dirección del viento	14.48
36903	7	Sololá	717	San Juan la Laguna	12	San Juan la Laguna	2	Febrero	2023-02-15T00:00:00	2024-11-08T14:00:00	1	Precipitación	0
36904	7	Sololá	717	San Juan la Laguna	12	San Juan la Laguna	2	Febrero	2023-02-15T00:00:00	2024-11-08T14:00:00	8	Radiación solar	826
36905	7	Sololá	717	San Juan la Laguna	12	San Juan la Laguna	2	Febrero	2023-02-15T00:00:00	2024-11-08T15:00:00	2	Temperatura media	22.3
36906	7	Sololá	717	San Juan la Laguna	12	San Juan la Laguna	2	Febrero	2023-02-15T00:00:00	2024-11-08T15:00:00	4	Temperatura máxima	22.3
36907	7	Sololá	717	San Juan la Laguna	12	San Juan la Laguna	2	Febrero	2023-02-15T00:00:00	2024-11-08T15:00:00	3	Temperatura mínima	20.9
36908	7	Sololá	717	San Juan la Laguna	12	San Juan la Laguna	2	Febrero	2023-02-15T00:00:00	2024-11-08T15:00:00	5	Humedad	65
36909	7	Sololá	717	San Juan la Laguna	12	San Juan la Laguna	2	Febrero	2023-02-15T00:00:00	2024-11-08T15:00:00	6	Velocidad del viento	11.3
36910	7	Sololá	717	San Juan la Laguna	12	San Juan la Laguna	2	Febrero	2023-02-15T00:00:00	2024-11-08T15:00:00	7	Dirección del viento	11.27
36911	7	Sololá	717	San Juan la Laguna	12	San Juan la Laguna	2	Febrero	2023-02-15T00:00:00	2024-11-08T15:00:00	1	Precipitación	0
36912	7	Sololá	717	San Juan la Laguna	12	San Juan la Laguna	2	Febrero	2023-02-15T00:00:00	2024-11-08T15:00:00	8	Radiación solar	729
36913	7	Sololá	717	San Juan la Laguna	12	San Juan la Laguna	2	Febrero	2023-02-15T00:00:00	2024-11-08T16:00:00	2	Temperatura media	21.1
36914	7	Sololá	717	San Juan la Laguna	12	San Juan la Laguna	2	Febrero	2023-02-15T00:00:00	2024-11-08T16:00:00	4	Temperatura máxima	22.8
36915	7	Sololá	717	San Juan la Laguna	12	San Juan la Laguna	2	Febrero	2023-02-15T00:00:00	2024-11-08T16:00:00	3	Temperatura mínima	21.1
36916	7	Sololá	717	San Juan la Laguna	12	San Juan la Laguna	2	Febrero	2023-02-15T00:00:00	2024-11-08T16:00:00	5	Humedad	71
36917	7	Sololá	717	San Juan la Laguna	12	San Juan la Laguna	2	Febrero	2023-02-15T00:00:00	2024-11-08T16:00:00	6	Velocidad del viento	6.4
36918	7	Sololá	717	San Juan la Laguna	12	San Juan la Laguna	2	Febrero	2023-02-15T00:00:00	2024-11-08T16:00:00	7	Dirección del viento	6.44
36919	7	Sololá	717	San Juan la Laguna	12	San Juan la Laguna	2	Febrero	2023-02-15T00:00:00	2024-11-08T16:00:00	1	Precipitación	0
36920	7	Sololá	717	San Juan la Laguna	12	San Juan la Laguna	2	Febrero	2023-02-15T00:00:00	2024-11-08T16:00:00	8	Radiación solar	537
36921	7	Sololá	717	San Juan la Laguna	12	San Juan la Laguna	2	Febrero	2023-02-15T00:00:00	2024-11-08T17:00:00	2	Temperatura media	20.4
36922	7	Sololá	717	San Juan la Laguna	12	San Juan la Laguna	2	Febrero	2023-02-15T00:00:00	2024-11-08T17:00:00	4	Temperatura máxima	21.1
36923	7	Sololá	717	San Juan la Laguna	12	San Juan la Laguna	2	Febrero	2023-02-15T00:00:00	2024-11-08T17:00:00	3	Temperatura mínima	20.4
36924	7	Sololá	717	San Juan la Laguna	12	San Juan la Laguna	2	Febrero	2023-02-15T00:00:00	2024-11-08T17:00:00	5	Humedad	72
36925	7	Sololá	717	San Juan la Laguna	12	San Juan la Laguna	2	Febrero	2023-02-15T00:00:00	2024-11-08T17:00:00	6	Velocidad del viento	3.2
36926	7	Sololá	717	San Juan la Laguna	12	San Juan la Laguna	2	Febrero	2023-02-15T00:00:00	2024-11-08T17:00:00	7	Dirección del viento	3.22
36927	7	Sololá	717	San Juan la Laguna	12	San Juan la Laguna	2	Febrero	2023-02-15T00:00:00	2024-11-08T17:00:00	1	Precipitación	0
36928	7	Sololá	717	San Juan la Laguna	12	San Juan la Laguna	2	Febrero	2023-02-15T00:00:00	2024-11-08T17:00:00	8	Radiación solar	123
36929	7	Sololá	717	San Juan la Laguna	12	San Juan la Laguna	2	Febrero	2023-02-15T00:00:00	2024-11-08T18:00:00	2	Temperatura media	19.3
36930	7	Sololá	717	San Juan la Laguna	12	San Juan la Laguna	2	Febrero	2023-02-15T00:00:00	2024-11-08T18:00:00	4	Temperatura máxima	20.5
36931	7	Sololá	717	San Juan la Laguna	12	San Juan la Laguna	2	Febrero	2023-02-15T00:00:00	2024-11-08T18:00:00	3	Temperatura mínima	19.3
36932	7	Sololá	717	San Juan la Laguna	12	San Juan la Laguna	2	Febrero	2023-02-15T00:00:00	2024-11-08T18:00:00	5	Humedad	79
36933	7	Sololá	717	San Juan la Laguna	12	San Juan la Laguna	2	Febrero	2023-02-15T00:00:00	2024-11-08T18:00:00	6	Velocidad del viento	4.8
36934	7	Sololá	717	San Juan la Laguna	12	San Juan la Laguna	2	Febrero	2023-02-15T00:00:00	2024-11-08T18:00:00	7	Dirección del viento	4.83
36935	7	Sololá	717	San Juan la Laguna	12	San Juan la Laguna	2	Febrero	2023-02-15T00:00:00	2024-11-08T18:00:00	1	Precipitación	0
36936	7	Sololá	717	San Juan la Laguna	12	San Juan la Laguna	2	Febrero	2023-02-15T00:00:00	2024-11-08T18:00:00	8	Radiación solar	50
36937	7	Sololá	717	San Juan la Laguna	12	San Juan la Laguna	2	Febrero	2023-02-15T00:00:00	2024-11-08T19:00:00	2	Temperatura media	18.5
36938	7	Sololá	717	San Juan la Laguna	12	San Juan la Laguna	2	Febrero	2023-02-15T00:00:00	2024-11-08T19:00:00	4	Temperatura máxima	19.3
36939	7	Sololá	717	San Juan la Laguna	12	San Juan la Laguna	2	Febrero	2023-02-15T00:00:00	2024-11-08T19:00:00	3	Temperatura mínima	18.4
36940	7	Sololá	717	San Juan la Laguna	12	San Juan la Laguna	2	Febrero	2023-02-15T00:00:00	2024-11-08T19:00:00	5	Humedad	83
36941	7	Sololá	717	San Juan la Laguna	12	San Juan la Laguna	2	Febrero	2023-02-15T00:00:00	2024-11-08T19:00:00	6	Velocidad del viento	4.8
36942	7	Sololá	717	San Juan la Laguna	12	San Juan la Laguna	2	Febrero	2023-02-15T00:00:00	2024-11-08T19:00:00	7	Dirección del viento	4.83
36943	7	Sololá	717	San Juan la Laguna	12	San Juan la Laguna	2	Febrero	2023-02-15T00:00:00	2024-11-08T19:00:00	1	Precipitación	0
36944	7	Sololá	717	San Juan la Laguna	12	San Juan la Laguna	2	Febrero	2023-02-15T00:00:00	2024-11-08T19:00:00	8	Radiación solar	0
36945	7	Sololá	717	San Juan la Laguna	12	San Juan la Laguna	2	Febrero	2023-02-15T00:00:00	2024-11-08T20:00:00	2	Temperatura media	18.8
36946	7	Sololá	717	San Juan la Laguna	12	San Juan la Laguna	2	Febrero	2023-02-15T00:00:00	2024-11-08T20:00:00	4	Temperatura máxima	18.8
36947	7	Sololá	717	San Juan la Laguna	12	San Juan la Laguna	2	Febrero	2023-02-15T00:00:00	2024-11-08T20:00:00	3	Temperatura mínima	18.5
36948	7	Sololá	717	San Juan la Laguna	12	San Juan la Laguna	2	Febrero	2023-02-15T00:00:00	2024-11-08T20:00:00	5	Humedad	81
36949	7	Sololá	717	San Juan la Laguna	12	San Juan la Laguna	2	Febrero	2023-02-15T00:00:00	2024-11-08T20:00:00	6	Velocidad del viento	3.2
36950	7	Sololá	717	San Juan la Laguna	12	San Juan la Laguna	2	Febrero	2023-02-15T00:00:00	2024-11-08T20:00:00	7	Dirección del viento	3.22
36951	7	Sololá	717	San Juan la Laguna	12	San Juan la Laguna	2	Febrero	2023-02-15T00:00:00	2024-11-08T20:00:00	1	Precipitación	0
36952	7	Sololá	717	San Juan la Laguna	12	San Juan la Laguna	2	Febrero	2023-02-15T00:00:00	2024-11-08T20:00:00	8	Radiación solar	0
36953	7	Sololá	717	San Juan la Laguna	12	San Juan la Laguna	2	Febrero	2023-02-15T00:00:00	2024-11-08T21:00:00	2	Temperatura media	17.6
36954	7	Sololá	717	San Juan la Laguna	12	San Juan la Laguna	2	Febrero	2023-02-15T00:00:00	2024-11-08T21:00:00	4	Temperatura máxima	18.9
36955	7	Sololá	717	San Juan la Laguna	12	San Juan la Laguna	2	Febrero	2023-02-15T00:00:00	2024-11-08T21:00:00	3	Temperatura mínima	17.6
36956	7	Sololá	717	San Juan la Laguna	12	San Juan la Laguna	2	Febrero	2023-02-15T00:00:00	2024-11-08T21:00:00	5	Humedad	83
36957	7	Sololá	717	San Juan la Laguna	12	San Juan la Laguna	2	Febrero	2023-02-15T00:00:00	2024-11-08T21:00:00	6	Velocidad del viento	0
36958	7	Sololá	717	San Juan la Laguna	12	San Juan la Laguna	2	Febrero	2023-02-15T00:00:00	2024-11-08T21:00:00	7	Dirección del viento	0
36959	7	Sololá	717	San Juan la Laguna	12	San Juan la Laguna	2	Febrero	2023-02-15T00:00:00	2024-11-08T21:00:00	1	Precipitación	0
36960	7	Sololá	717	San Juan la Laguna	12	San Juan la Laguna	2	Febrero	2023-02-15T00:00:00	2024-11-08T21:00:00	8	Radiación solar	0
36961	7	Sololá	717	San Juan la Laguna	12	San Juan la Laguna	2	Febrero	2023-02-15T00:00:00	2024-11-08T22:00:00	2	Temperatura media	16.4
36962	7	Sololá	717	San Juan la Laguna	12	San Juan la Laguna	2	Febrero	2023-02-15T00:00:00	2024-11-08T22:00:00	4	Temperatura máxima	17.5
36963	7	Sololá	717	San Juan la Laguna	12	San Juan la Laguna	2	Febrero	2023-02-15T00:00:00	2024-11-08T22:00:00	3	Temperatura mínima	16.1
36964	7	Sololá	717	San Juan la Laguna	12	San Juan la Laguna	2	Febrero	2023-02-15T00:00:00	2024-11-08T22:00:00	5	Humedad	87
36965	7	Sololá	717	San Juan la Laguna	12	San Juan la Laguna	2	Febrero	2023-02-15T00:00:00	2024-11-08T22:00:00	6	Velocidad del viento	0
36966	7	Sololá	717	San Juan la Laguna	12	San Juan la Laguna	2	Febrero	2023-02-15T00:00:00	2024-11-08T22:00:00	7	Dirección del viento	0
36967	7	Sololá	717	San Juan la Laguna	12	San Juan la Laguna	2	Febrero	2023-02-15T00:00:00	2024-11-08T22:00:00	1	Precipitación	0
36968	7	Sololá	717	San Juan la Laguna	12	San Juan la Laguna	2	Febrero	2023-02-15T00:00:00	2024-11-08T22:00:00	8	Radiación solar	0
36969	7	Sololá	717	San Juan la Laguna	12	San Juan la Laguna	2	Febrero	2023-02-15T00:00:00	2024-11-08T23:00:00	2	Temperatura media	16.2
36970	7	Sololá	717	San Juan la Laguna	12	San Juan la Laguna	2	Febrero	2023-02-15T00:00:00	2024-11-08T23:00:00	4	Temperatura máxima	16.8
36971	7	Sololá	717	San Juan la Laguna	12	San Juan la Laguna	2	Febrero	2023-02-15T00:00:00	2024-11-08T23:00:00	3	Temperatura mínima	16.2
36972	7	Sololá	717	San Juan la Laguna	12	San Juan la Laguna	2	Febrero	2023-02-15T00:00:00	2024-11-08T23:00:00	5	Humedad	79
36973	7	Sololá	717	San Juan la Laguna	12	San Juan la Laguna	2	Febrero	2023-02-15T00:00:00	2024-11-08T23:00:00	6	Velocidad del viento	1.6
36974	7	Sololá	717	San Juan la Laguna	12	San Juan la Laguna	2	Febrero	2023-02-15T00:00:00	2024-11-08T23:00:00	7	Dirección del viento	1.61
36975	7	Sololá	717	San Juan la Laguna	12	San Juan la Laguna	2	Febrero	2023-02-15T00:00:00	2024-11-08T23:00:00	1	Precipitación	0
36976	7	Sololá	717	San Juan la Laguna	12	San Juan la Laguna	2	Febrero	2023-02-15T00:00:00	2024-11-08T23:00:00	8	Radiación solar	0
36977	7	Sololá	717	San Juan la Laguna	12	San Juan la Laguna	2	Febrero	2023-02-16T00:00:00	2024-11-08T00:00:00	2	Temperatura media	14.6
36978	7	Sololá	717	San Juan la Laguna	12	San Juan la Laguna	2	Febrero	2023-02-16T00:00:00	2024-11-08T00:00:00	4	Temperatura máxima	16.2
36979	7	Sololá	717	San Juan la Laguna	12	San Juan la Laguna	2	Febrero	2023-02-16T00:00:00	2024-11-08T00:00:00	3	Temperatura mínima	14.6
36980	7	Sololá	717	San Juan la Laguna	12	San Juan la Laguna	2	Febrero	2023-02-16T00:00:00	2024-11-08T00:00:00	5	Humedad	79
36981	7	Sololá	717	San Juan la Laguna	12	San Juan la Laguna	2	Febrero	2023-02-16T00:00:00	2024-11-08T00:00:00	6	Velocidad del viento	3.2
36982	7	Sololá	717	San Juan la Laguna	12	San Juan la Laguna	2	Febrero	2023-02-16T00:00:00	2024-11-08T00:00:00	7	Dirección del viento	3.22
36983	7	Sololá	717	San Juan la Laguna	12	San Juan la Laguna	2	Febrero	2023-02-16T00:00:00	2024-11-08T00:00:00	1	Precipitación	0
36984	7	Sololá	717	San Juan la Laguna	12	San Juan la Laguna	2	Febrero	2023-02-16T00:00:00	2024-11-08T00:00:00	8	Radiación solar	0
36985	7	Sololá	717	San Juan la Laguna	12	San Juan la Laguna	2	Febrero	2023-02-16T00:00:00	2024-11-08T01:00:00	2	Temperatura media	14.4
36986	7	Sololá	717	San Juan la Laguna	12	San Juan la Laguna	2	Febrero	2023-02-16T00:00:00	2024-11-08T01:00:00	4	Temperatura máxima	14.6
36987	7	Sololá	717	San Juan la Laguna	12	San Juan la Laguna	2	Febrero	2023-02-16T00:00:00	2024-11-08T01:00:00	3	Temperatura mínima	14.3
36988	7	Sololá	717	San Juan la Laguna	12	San Juan la Laguna	2	Febrero	2023-02-16T00:00:00	2024-11-08T01:00:00	5	Humedad	79
36989	7	Sololá	717	San Juan la Laguna	12	San Juan la Laguna	2	Febrero	2023-02-16T00:00:00	2024-11-08T01:00:00	6	Velocidad del viento	3.2
36990	7	Sololá	717	San Juan la Laguna	12	San Juan la Laguna	2	Febrero	2023-02-16T00:00:00	2024-11-08T01:00:00	7	Dirección del viento	3.22
36991	7	Sololá	717	San Juan la Laguna	12	San Juan la Laguna	2	Febrero	2023-02-16T00:00:00	2024-11-08T01:00:00	1	Precipitación	0
36992	7	Sololá	717	San Juan la Laguna	12	San Juan la Laguna	2	Febrero	2023-02-16T00:00:00	2024-11-08T01:00:00	8	Radiación solar	0
36993	7	Sololá	717	San Juan la Laguna	12	San Juan la Laguna	2	Febrero	2023-02-16T00:00:00	2024-11-08T02:00:00	2	Temperatura media	14.9
36994	7	Sololá	717	San Juan la Laguna	12	San Juan la Laguna	2	Febrero	2023-02-16T00:00:00	2024-11-08T02:00:00	4	Temperatura máxima	14.9
36995	7	Sololá	717	San Juan la Laguna	12	San Juan la Laguna	2	Febrero	2023-02-16T00:00:00	2024-11-08T02:00:00	3	Temperatura mínima	14.4
36996	7	Sololá	717	San Juan la Laguna	12	San Juan la Laguna	2	Febrero	2023-02-16T00:00:00	2024-11-08T02:00:00	5	Humedad	80
36997	7	Sololá	717	San Juan la Laguna	12	San Juan la Laguna	2	Febrero	2023-02-16T00:00:00	2024-11-08T02:00:00	6	Velocidad del viento	1.6
36998	7	Sololá	717	San Juan la Laguna	12	San Juan la Laguna	2	Febrero	2023-02-16T00:00:00	2024-11-08T02:00:00	7	Dirección del viento	1.61
36999	7	Sololá	717	San Juan la Laguna	12	San Juan la Laguna	2	Febrero	2023-02-16T00:00:00	2024-11-08T02:00:00	1	Precipitación	0
37000	7	Sololá	717	San Juan la Laguna	12	San Juan la Laguna	2	Febrero	2023-02-16T00:00:00	2024-11-08T02:00:00	8	Radiación solar	0
37001	7	Sololá	717	San Juan la Laguna	12	San Juan la Laguna	2	Febrero	2023-02-16T00:00:00	2024-11-08T03:00:00	2	Temperatura media	14.8
37002	7	Sololá	717	San Juan la Laguna	12	San Juan la Laguna	2	Febrero	2023-02-16T00:00:00	2024-11-08T03:00:00	4	Temperatura máxima	15.2
37003	7	Sololá	717	San Juan la Laguna	12	San Juan la Laguna	2	Febrero	2023-02-16T00:00:00	2024-11-08T03:00:00	3	Temperatura mínima	14.8
37004	7	Sololá	717	San Juan la Laguna	12	San Juan la Laguna	2	Febrero	2023-02-16T00:00:00	2024-11-08T03:00:00	5	Humedad	81
37005	7	Sololá	717	San Juan la Laguna	12	San Juan la Laguna	2	Febrero	2023-02-16T00:00:00	2024-11-08T03:00:00	6	Velocidad del viento	1.6
37006	7	Sololá	717	San Juan la Laguna	12	San Juan la Laguna	2	Febrero	2023-02-16T00:00:00	2024-11-08T03:00:00	7	Dirección del viento	1.61
37007	7	Sololá	717	San Juan la Laguna	12	San Juan la Laguna	2	Febrero	2023-02-16T00:00:00	2024-11-08T03:00:00	1	Precipitación	0
37008	7	Sololá	717	San Juan la Laguna	12	San Juan la Laguna	2	Febrero	2023-02-16T00:00:00	2024-11-08T03:00:00	8	Radiación solar	0
37009	7	Sololá	717	San Juan la Laguna	12	San Juan la Laguna	2	Febrero	2023-02-16T00:00:00	2024-11-08T04:00:00	2	Temperatura media	14.9
37010	7	Sololá	717	San Juan la Laguna	12	San Juan la Laguna	2	Febrero	2023-02-16T00:00:00	2024-11-08T04:00:00	4	Temperatura máxima	15
37011	7	Sololá	717	San Juan la Laguna	12	San Juan la Laguna	2	Febrero	2023-02-16T00:00:00	2024-11-08T04:00:00	3	Temperatura mínima	14.8
37012	7	Sololá	717	San Juan la Laguna	12	San Juan la Laguna	2	Febrero	2023-02-16T00:00:00	2024-11-08T04:00:00	5	Humedad	80
37013	7	Sololá	717	San Juan la Laguna	12	San Juan la Laguna	2	Febrero	2023-02-16T00:00:00	2024-11-08T04:00:00	6	Velocidad del viento	3.2
37014	7	Sololá	717	San Juan la Laguna	12	San Juan la Laguna	2	Febrero	2023-02-16T00:00:00	2024-11-08T04:00:00	7	Dirección del viento	3.22
37015	7	Sololá	717	San Juan la Laguna	12	San Juan la Laguna	2	Febrero	2023-02-16T00:00:00	2024-11-08T04:00:00	1	Precipitación	0
37016	7	Sololá	717	San Juan la Laguna	12	San Juan la Laguna	2	Febrero	2023-02-16T00:00:00	2024-11-08T04:00:00	8	Radiación solar	0
37017	7	Sololá	717	San Juan la Laguna	12	San Juan la Laguna	2	Febrero	2023-02-16T00:00:00	2024-11-08T05:00:00	2	Temperatura media	13.8
37018	7	Sololá	717	San Juan la Laguna	12	San Juan la Laguna	2	Febrero	2023-02-16T00:00:00	2024-11-08T05:00:00	4	Temperatura máxima	14.9
37019	7	Sololá	717	San Juan la Laguna	12	San Juan la Laguna	2	Febrero	2023-02-16T00:00:00	2024-11-08T05:00:00	3	Temperatura mínima	13.8
37020	7	Sololá	717	San Juan la Laguna	12	San Juan la Laguna	2	Febrero	2023-02-16T00:00:00	2024-11-08T05:00:00	5	Humedad	82
37021	7	Sololá	717	San Juan la Laguna	12	San Juan la Laguna	2	Febrero	2023-02-16T00:00:00	2024-11-08T05:00:00	6	Velocidad del viento	1.6
37022	7	Sololá	717	San Juan la Laguna	12	San Juan la Laguna	2	Febrero	2023-02-16T00:00:00	2024-11-08T05:00:00	7	Dirección del viento	1.61
37023	7	Sololá	717	San Juan la Laguna	12	San Juan la Laguna	2	Febrero	2023-02-16T00:00:00	2024-11-08T05:00:00	1	Precipitación	0
37024	7	Sololá	717	San Juan la Laguna	12	San Juan la Laguna	2	Febrero	2023-02-16T00:00:00	2024-11-08T05:00:00	8	Radiación solar	0
37025	7	Sololá	717	San Juan la Laguna	12	San Juan la Laguna	2	Febrero	2023-02-16T00:00:00	2024-11-08T06:00:00	2	Temperatura media	12.3
37026	7	Sololá	717	San Juan la Laguna	12	San Juan la Laguna	2	Febrero	2023-02-16T00:00:00	2024-11-08T06:00:00	4	Temperatura máxima	13.8
37027	7	Sololá	717	San Juan la Laguna	12	San Juan la Laguna	2	Febrero	2023-02-16T00:00:00	2024-11-08T06:00:00	3	Temperatura mínima	12.3
37028	7	Sololá	717	San Juan la Laguna	12	San Juan la Laguna	2	Febrero	2023-02-16T00:00:00	2024-11-08T06:00:00	5	Humedad	84
37029	7	Sololá	717	San Juan la Laguna	12	San Juan la Laguna	2	Febrero	2023-02-16T00:00:00	2024-11-08T06:00:00	6	Velocidad del viento	4.8
37030	7	Sololá	717	San Juan la Laguna	12	San Juan la Laguna	2	Febrero	2023-02-16T00:00:00	2024-11-08T06:00:00	7	Dirección del viento	4.83
37031	7	Sololá	717	San Juan la Laguna	12	San Juan la Laguna	2	Febrero	2023-02-16T00:00:00	2024-11-08T06:00:00	1	Precipitación	0
37032	7	Sololá	717	San Juan la Laguna	12	San Juan la Laguna	2	Febrero	2023-02-16T00:00:00	2024-11-08T06:00:00	8	Radiación solar	0
37033	7	Sololá	717	San Juan la Laguna	12	San Juan la Laguna	2	Febrero	2023-02-16T00:00:00	2024-11-08T07:00:00	2	Temperatura media	12.4
37034	7	Sololá	717	San Juan la Laguna	12	San Juan la Laguna	2	Febrero	2023-02-16T00:00:00	2024-11-08T07:00:00	4	Temperatura máxima	12.4
37035	7	Sololá	717	San Juan la Laguna	12	San Juan la Laguna	2	Febrero	2023-02-16T00:00:00	2024-11-08T07:00:00	3	Temperatura mínima	12.1
37036	7	Sololá	717	San Juan la Laguna	12	San Juan la Laguna	2	Febrero	2023-02-16T00:00:00	2024-11-08T07:00:00	5	Humedad	84
37037	7	Sololá	717	San Juan la Laguna	12	San Juan la Laguna	2	Febrero	2023-02-16T00:00:00	2024-11-08T07:00:00	6	Velocidad del viento	4.8
37038	7	Sololá	717	San Juan la Laguna	12	San Juan la Laguna	2	Febrero	2023-02-16T00:00:00	2024-11-08T07:00:00	7	Dirección del viento	4.83
37039	7	Sololá	717	San Juan la Laguna	12	San Juan la Laguna	2	Febrero	2023-02-16T00:00:00	2024-11-08T07:00:00	1	Precipitación	0
37040	7	Sololá	717	San Juan la Laguna	12	San Juan la Laguna	2	Febrero	2023-02-16T00:00:00	2024-11-08T07:00:00	8	Radiación solar	12
37041	7	Sololá	717	San Juan la Laguna	12	San Juan la Laguna	2	Febrero	2023-02-16T00:00:00	2024-11-08T08:00:00	2	Temperatura media	14.4
37042	7	Sololá	717	San Juan la Laguna	12	San Juan la Laguna	2	Febrero	2023-02-16T00:00:00	2024-11-08T08:00:00	4	Temperatura máxima	14.4
37043	7	Sololá	717	San Juan la Laguna	12	San Juan la Laguna	2	Febrero	2023-02-16T00:00:00	2024-11-08T08:00:00	3	Temperatura mínima	12.4
37044	7	Sololá	717	San Juan la Laguna	12	San Juan la Laguna	2	Febrero	2023-02-16T00:00:00	2024-11-08T08:00:00	5	Humedad	80
37045	7	Sololá	717	San Juan la Laguna	12	San Juan la Laguna	2	Febrero	2023-02-16T00:00:00	2024-11-08T08:00:00	6	Velocidad del viento	1.6
37046	7	Sololá	717	San Juan la Laguna	12	San Juan la Laguna	2	Febrero	2023-02-16T00:00:00	2024-11-08T08:00:00	7	Dirección del viento	1.61
37047	7	Sololá	717	San Juan la Laguna	12	San Juan la Laguna	2	Febrero	2023-02-16T00:00:00	2024-11-08T08:00:00	1	Precipitación	0
37048	7	Sololá	717	San Juan la Laguna	12	San Juan la Laguna	2	Febrero	2023-02-16T00:00:00	2024-11-08T08:00:00	8	Radiación solar	131
37049	7	Sololá	717	San Juan la Laguna	12	San Juan la Laguna	2	Febrero	2023-02-16T00:00:00	2024-11-08T09:00:00	2	Temperatura media	17.9
37050	7	Sololá	717	San Juan la Laguna	12	San Juan la Laguna	2	Febrero	2023-02-16T00:00:00	2024-11-08T09:00:00	4	Temperatura máxima	17.9
37051	7	Sololá	717	San Juan la Laguna	12	San Juan la Laguna	2	Febrero	2023-02-16T00:00:00	2024-11-08T09:00:00	3	Temperatura mínima	14.5
37052	7	Sololá	717	San Juan la Laguna	12	San Juan la Laguna	2	Febrero	2023-02-16T00:00:00	2024-11-08T09:00:00	5	Humedad	72
37053	7	Sololá	717	San Juan la Laguna	12	San Juan la Laguna	2	Febrero	2023-02-16T00:00:00	2024-11-08T09:00:00	6	Velocidad del viento	1.6
37054	7	Sololá	717	San Juan la Laguna	12	San Juan la Laguna	2	Febrero	2023-02-16T00:00:00	2024-11-08T09:00:00	7	Dirección del viento	1.61
37055	7	Sololá	717	San Juan la Laguna	12	San Juan la Laguna	2	Febrero	2023-02-16T00:00:00	2024-11-08T09:00:00	1	Precipitación	0
37056	7	Sololá	717	San Juan la Laguna	12	San Juan la Laguna	2	Febrero	2023-02-16T00:00:00	2024-11-08T09:00:00	8	Radiación solar	366
37057	7	Sololá	717	San Juan la Laguna	12	San Juan la Laguna	2	Febrero	2023-02-16T00:00:00	2024-11-08T10:00:00	2	Temperatura media	19.2
37058	7	Sololá	717	San Juan la Laguna	12	San Juan la Laguna	2	Febrero	2023-02-16T00:00:00	2024-11-08T10:00:00	4	Temperatura máxima	19.2
37059	7	Sololá	717	San Juan la Laguna	12	San Juan la Laguna	2	Febrero	2023-02-16T00:00:00	2024-11-08T10:00:00	3	Temperatura mínima	17.8
37060	7	Sololá	717	San Juan la Laguna	12	San Juan la Laguna	2	Febrero	2023-02-16T00:00:00	2024-11-08T10:00:00	5	Humedad	67
37061	7	Sololá	717	San Juan la Laguna	12	San Juan la Laguna	2	Febrero	2023-02-16T00:00:00	2024-11-08T10:00:00	6	Velocidad del viento	3.2
37062	7	Sololá	717	San Juan la Laguna	12	San Juan la Laguna	2	Febrero	2023-02-16T00:00:00	2024-11-08T10:00:00	7	Dirección del viento	3.22
37063	7	Sololá	717	San Juan la Laguna	12	San Juan la Laguna	2	Febrero	2023-02-16T00:00:00	2024-11-08T10:00:00	1	Precipitación	0
37064	7	Sololá	717	San Juan la Laguna	12	San Juan la Laguna	2	Febrero	2023-02-16T00:00:00	2024-11-08T10:00:00	8	Radiación solar	596
37065	7	Sololá	717	San Juan la Laguna	12	San Juan la Laguna	2	Febrero	2023-02-16T00:00:00	2024-11-08T11:00:00	2	Temperatura media	20
37066	7	Sololá	717	San Juan la Laguna	12	San Juan la Laguna	2	Febrero	2023-02-16T00:00:00	2024-11-08T11:00:00	4	Temperatura máxima	20
37067	7	Sololá	717	San Juan la Laguna	12	San Juan la Laguna	2	Febrero	2023-02-16T00:00:00	2024-11-08T11:00:00	3	Temperatura mínima	19.1
37068	7	Sololá	717	San Juan la Laguna	12	San Juan la Laguna	2	Febrero	2023-02-16T00:00:00	2024-11-08T11:00:00	5	Humedad	67
37069	7	Sololá	717	San Juan la Laguna	12	San Juan la Laguna	2	Febrero	2023-02-16T00:00:00	2024-11-08T11:00:00	6	Velocidad del viento	4.8
37070	7	Sololá	717	San Juan la Laguna	12	San Juan la Laguna	2	Febrero	2023-02-16T00:00:00	2024-11-08T11:00:00	7	Dirección del viento	4.83
37071	7	Sololá	717	San Juan la Laguna	12	San Juan la Laguna	2	Febrero	2023-02-16T00:00:00	2024-11-08T11:00:00	1	Precipitación	0
37072	7	Sololá	717	San Juan la Laguna	12	San Juan la Laguna	2	Febrero	2023-02-16T00:00:00	2024-11-08T11:00:00	8	Radiación solar	755
37073	7	Sololá	717	San Juan la Laguna	12	San Juan la Laguna	2	Febrero	2023-02-16T00:00:00	2024-11-08T12:00:00	2	Temperatura media	20.1
37074	7	Sololá	717	San Juan la Laguna	12	San Juan la Laguna	2	Febrero	2023-02-16T00:00:00	2024-11-08T12:00:00	4	Temperatura máxima	20.2
37075	7	Sololá	717	San Juan la Laguna	12	San Juan la Laguna	2	Febrero	2023-02-16T00:00:00	2024-11-08T12:00:00	3	Temperatura mínima	19.4
37076	7	Sololá	717	San Juan la Laguna	12	San Juan la Laguna	2	Febrero	2023-02-16T00:00:00	2024-11-08T12:00:00	5	Humedad	67
37077	7	Sololá	717	San Juan la Laguna	12	San Juan la Laguna	2	Febrero	2023-02-16T00:00:00	2024-11-08T12:00:00	6	Velocidad del viento	6.4
37078	7	Sololá	717	San Juan la Laguna	12	San Juan la Laguna	2	Febrero	2023-02-16T00:00:00	2024-11-08T12:00:00	7	Dirección del viento	6.44
37079	7	Sololá	717	San Juan la Laguna	12	San Juan la Laguna	2	Febrero	2023-02-16T00:00:00	2024-11-08T12:00:00	1	Precipitación	0
37080	7	Sololá	717	San Juan la Laguna	12	San Juan la Laguna	2	Febrero	2023-02-16T00:00:00	2024-11-08T12:00:00	8	Radiación solar	756
37081	7	Sololá	717	San Juan la Laguna	12	San Juan la Laguna	2	Febrero	2023-02-16T00:00:00	2024-11-08T13:00:00	2	Temperatura media	21.3
37082	7	Sololá	717	San Juan la Laguna	12	San Juan la Laguna	2	Febrero	2023-02-16T00:00:00	2024-11-08T13:00:00	4	Temperatura máxima	21.5
37083	7	Sololá	717	San Juan la Laguna	12	San Juan la Laguna	2	Febrero	2023-02-16T00:00:00	2024-11-08T13:00:00	3	Temperatura mínima	20.1
37084	7	Sololá	717	San Juan la Laguna	12	San Juan la Laguna	2	Febrero	2023-02-16T00:00:00	2024-11-08T13:00:00	5	Humedad	70
37085	7	Sololá	717	San Juan la Laguna	12	San Juan la Laguna	2	Febrero	2023-02-16T00:00:00	2024-11-08T13:00:00	6	Velocidad del viento	4.8
37086	7	Sololá	717	San Juan la Laguna	12	San Juan la Laguna	2	Febrero	2023-02-16T00:00:00	2024-11-08T13:00:00	7	Dirección del viento	4.83
37087	7	Sololá	717	San Juan la Laguna	12	San Juan la Laguna	2	Febrero	2023-02-16T00:00:00	2024-11-08T13:00:00	1	Precipitación	0
37088	7	Sololá	717	San Juan la Laguna	12	San Juan la Laguna	2	Febrero	2023-02-16T00:00:00	2024-11-08T13:00:00	8	Radiación solar	873
37089	7	Sololá	717	San Juan la Laguna	12	San Juan la Laguna	2	Febrero	2023-02-16T00:00:00	2024-11-08T14:00:00	2	Temperatura media	20.1
37090	7	Sololá	717	San Juan la Laguna	12	San Juan la Laguna	2	Febrero	2023-02-16T00:00:00	2024-11-08T14:00:00	4	Temperatura máxima	21.8
37091	7	Sololá	717	San Juan la Laguna	12	San Juan la Laguna	2	Febrero	2023-02-16T00:00:00	2024-11-08T14:00:00	3	Temperatura mínima	19.8
37092	7	Sololá	717	San Juan la Laguna	12	San Juan la Laguna	2	Febrero	2023-02-16T00:00:00	2024-11-08T14:00:00	5	Humedad	73
37093	7	Sololá	717	San Juan la Laguna	12	San Juan la Laguna	2	Febrero	2023-02-16T00:00:00	2024-11-08T14:00:00	6	Velocidad del viento	12.9
37094	7	Sololá	717	San Juan la Laguna	12	San Juan la Laguna	2	Febrero	2023-02-16T00:00:00	2024-11-08T14:00:00	7	Dirección del viento	12.87
37095	7	Sololá	717	San Juan la Laguna	12	San Juan la Laguna	2	Febrero	2023-02-16T00:00:00	2024-11-08T14:00:00	1	Precipitación	0
37096	7	Sololá	717	San Juan la Laguna	12	San Juan la Laguna	2	Febrero	2023-02-16T00:00:00	2024-11-08T14:00:00	8	Radiación solar	830
37097	7	Sololá	717	San Juan la Laguna	12	San Juan la Laguna	2	Febrero	2023-02-16T00:00:00	2024-11-08T15:00:00	2	Temperatura media	20.1
37098	7	Sololá	717	San Juan la Laguna	12	San Juan la Laguna	2	Febrero	2023-02-16T00:00:00	2024-11-08T15:00:00	4	Temperatura máxima	22.1
37099	7	Sololá	717	San Juan la Laguna	12	San Juan la Laguna	2	Febrero	2023-02-16T00:00:00	2024-11-08T15:00:00	3	Temperatura mínima	20.1
37100	7	Sololá	717	San Juan la Laguna	12	San Juan la Laguna	2	Febrero	2023-02-16T00:00:00	2024-11-08T15:00:00	5	Humedad	73
37101	7	Sololá	717	San Juan la Laguna	12	San Juan la Laguna	2	Febrero	2023-02-16T00:00:00	2024-11-08T15:00:00	6	Velocidad del viento	6.4
37102	7	Sololá	717	San Juan la Laguna	12	San Juan la Laguna	2	Febrero	2023-02-16T00:00:00	2024-11-08T15:00:00	7	Dirección del viento	6.44
37103	7	Sololá	717	San Juan la Laguna	12	San Juan la Laguna	2	Febrero	2023-02-16T00:00:00	2024-11-08T15:00:00	1	Precipitación	0
37104	7	Sololá	717	San Juan la Laguna	12	San Juan la Laguna	2	Febrero	2023-02-16T00:00:00	2024-11-08T15:00:00	8	Radiación solar	580
37105	7	Sololá	717	San Juan la Laguna	12	San Juan la Laguna	2	Febrero	2023-02-16T00:00:00	2024-11-08T16:00:00	2	Temperatura media	19.6
37106	7	Sololá	717	San Juan la Laguna	12	San Juan la Laguna	2	Febrero	2023-02-16T00:00:00	2024-11-08T16:00:00	4	Temperatura máxima	20.4
37107	7	Sololá	717	San Juan la Laguna	12	San Juan la Laguna	2	Febrero	2023-02-16T00:00:00	2024-11-08T16:00:00	3	Temperatura mínima	19.6
37108	7	Sololá	717	San Juan la Laguna	12	San Juan la Laguna	2	Febrero	2023-02-16T00:00:00	2024-11-08T16:00:00	5	Humedad	75
37109	7	Sololá	717	San Juan la Laguna	12	San Juan la Laguna	2	Febrero	2023-02-16T00:00:00	2024-11-08T16:00:00	6	Velocidad del viento	9.7
37110	7	Sololá	717	San Juan la Laguna	12	San Juan la Laguna	2	Febrero	2023-02-16T00:00:00	2024-11-08T16:00:00	7	Dirección del viento	9.66
37111	7	Sololá	717	San Juan la Laguna	12	San Juan la Laguna	2	Febrero	2023-02-16T00:00:00	2024-11-08T16:00:00	1	Precipitación	0
37112	7	Sololá	717	San Juan la Laguna	12	San Juan la Laguna	2	Febrero	2023-02-16T00:00:00	2024-11-08T16:00:00	8	Radiación solar	537
37113	7	Sololá	717	San Juan la Laguna	12	San Juan la Laguna	2	Febrero	2023-02-16T00:00:00	2024-11-08T17:00:00	2	Temperatura media	19.3
37114	7	Sololá	717	San Juan la Laguna	12	San Juan la Laguna	2	Febrero	2023-02-16T00:00:00	2024-11-08T17:00:00	4	Temperatura máxima	19.6
37115	7	Sololá	717	San Juan la Laguna	12	San Juan la Laguna	2	Febrero	2023-02-16T00:00:00	2024-11-08T17:00:00	3	Temperatura mínima	18.8
37116	7	Sololá	717	San Juan la Laguna	12	San Juan la Laguna	2	Febrero	2023-02-16T00:00:00	2024-11-08T17:00:00	5	Humedad	74
37117	7	Sololá	717	San Juan la Laguna	12	San Juan la Laguna	2	Febrero	2023-02-16T00:00:00	2024-11-08T17:00:00	6	Velocidad del viento	8
37118	7	Sololá	717	San Juan la Laguna	12	San Juan la Laguna	2	Febrero	2023-02-16T00:00:00	2024-11-08T17:00:00	7	Dirección del viento	8.05
37119	7	Sololá	717	San Juan la Laguna	12	San Juan la Laguna	2	Febrero	2023-02-16T00:00:00	2024-11-08T17:00:00	1	Precipitación	0
37120	7	Sololá	717	San Juan la Laguna	12	San Juan la Laguna	2	Febrero	2023-02-16T00:00:00	2024-11-08T17:00:00	8	Radiación solar	145
37121	7	Sololá	717	San Juan la Laguna	12	San Juan la Laguna	2	Febrero	2023-02-16T00:00:00	2024-11-08T18:00:00	2	Temperatura media	19.1
37122	7	Sololá	717	San Juan la Laguna	12	San Juan la Laguna	2	Febrero	2023-02-16T00:00:00	2024-11-08T18:00:00	4	Temperatura máxima	19.3
37123	7	Sololá	717	San Juan la Laguna	12	San Juan la Laguna	2	Febrero	2023-02-16T00:00:00	2024-11-08T18:00:00	3	Temperatura mínima	19.1
37124	7	Sololá	717	San Juan la Laguna	12	San Juan la Laguna	2	Febrero	2023-02-16T00:00:00	2024-11-08T18:00:00	5	Humedad	75
37125	7	Sololá	717	San Juan la Laguna	12	San Juan la Laguna	2	Febrero	2023-02-16T00:00:00	2024-11-08T18:00:00	6	Velocidad del viento	3.2
37126	7	Sololá	717	San Juan la Laguna	12	San Juan la Laguna	2	Febrero	2023-02-16T00:00:00	2024-11-08T18:00:00	7	Dirección del viento	3.22
37127	7	Sololá	717	San Juan la Laguna	12	San Juan la Laguna	2	Febrero	2023-02-16T00:00:00	2024-11-08T18:00:00	1	Precipitación	0
37128	7	Sololá	717	San Juan la Laguna	12	San Juan la Laguna	2	Febrero	2023-02-16T00:00:00	2024-11-08T18:00:00	8	Radiación solar	41
37129	7	Sololá	717	San Juan la Laguna	12	San Juan la Laguna	2	Febrero	2023-02-16T00:00:00	2024-11-08T19:00:00	2	Temperatura media	18.8
37130	7	Sololá	717	San Juan la Laguna	12	San Juan la Laguna	2	Febrero	2023-02-16T00:00:00	2024-11-08T19:00:00	4	Temperatura máxima	19.1
37131	7	Sololá	717	San Juan la Laguna	12	San Juan la Laguna	2	Febrero	2023-02-16T00:00:00	2024-11-08T19:00:00	3	Temperatura mínima	18.8
37132	7	Sololá	717	San Juan la Laguna	12	San Juan la Laguna	2	Febrero	2023-02-16T00:00:00	2024-11-08T19:00:00	5	Humedad	78
37133	7	Sololá	717	San Juan la Laguna	12	San Juan la Laguna	2	Febrero	2023-02-16T00:00:00	2024-11-08T19:00:00	6	Velocidad del viento	0
37134	7	Sololá	717	San Juan la Laguna	12	San Juan la Laguna	2	Febrero	2023-02-16T00:00:00	2024-11-08T19:00:00	7	Dirección del viento	0
37135	7	Sololá	717	San Juan la Laguna	12	San Juan la Laguna	2	Febrero	2023-02-16T00:00:00	2024-11-08T19:00:00	1	Precipitación	0
37136	7	Sololá	717	San Juan la Laguna	12	San Juan la Laguna	2	Febrero	2023-02-16T00:00:00	2024-11-08T19:00:00	8	Radiación solar	0
37137	7	Sololá	717	San Juan la Laguna	12	San Juan la Laguna	2	Febrero	2023-02-16T00:00:00	2024-11-08T20:00:00	2	Temperatura media	17.9
37138	7	Sololá	717	San Juan la Laguna	12	San Juan la Laguna	2	Febrero	2023-02-16T00:00:00	2024-11-08T20:00:00	4	Temperatura máxima	18.8
37139	7	Sololá	717	San Juan la Laguna	12	San Juan la Laguna	2	Febrero	2023-02-16T00:00:00	2024-11-08T20:00:00	3	Temperatura mínima	17.9
37140	7	Sololá	717	San Juan la Laguna	12	San Juan la Laguna	2	Febrero	2023-02-16T00:00:00	2024-11-08T20:00:00	5	Humedad	81
37141	7	Sololá	717	San Juan la Laguna	12	San Juan la Laguna	2	Febrero	2023-02-16T00:00:00	2024-11-08T20:00:00	6	Velocidad del viento	0
37142	7	Sololá	717	San Juan la Laguna	12	San Juan la Laguna	2	Febrero	2023-02-16T00:00:00	2024-11-08T20:00:00	7	Dirección del viento	0
37143	7	Sololá	717	San Juan la Laguna	12	San Juan la Laguna	2	Febrero	2023-02-16T00:00:00	2024-11-08T20:00:00	1	Precipitación	0
37144	7	Sololá	717	San Juan la Laguna	12	San Juan la Laguna	2	Febrero	2023-02-16T00:00:00	2024-11-08T20:00:00	8	Radiación solar	0
37145	7	Sololá	717	San Juan la Laguna	12	San Juan la Laguna	2	Febrero	2023-02-16T00:00:00	2024-11-08T21:00:00	2	Temperatura media	15.9
37146	7	Sololá	717	San Juan la Laguna	12	San Juan la Laguna	2	Febrero	2023-02-16T00:00:00	2024-11-08T21:00:00	4	Temperatura máxima	17.9
37147	7	Sololá	717	San Juan la Laguna	12	San Juan la Laguna	2	Febrero	2023-02-16T00:00:00	2024-11-08T21:00:00	3	Temperatura mínima	15.9
37148	7	Sololá	717	San Juan la Laguna	12	San Juan la Laguna	2	Febrero	2023-02-16T00:00:00	2024-11-08T21:00:00	5	Humedad	84
37149	7	Sololá	717	San Juan la Laguna	12	San Juan la Laguna	2	Febrero	2023-02-16T00:00:00	2024-11-08T21:00:00	6	Velocidad del viento	1.6
37150	7	Sololá	717	San Juan la Laguna	12	San Juan la Laguna	2	Febrero	2023-02-16T00:00:00	2024-11-08T21:00:00	7	Dirección del viento	1.61
37151	7	Sololá	717	San Juan la Laguna	12	San Juan la Laguna	2	Febrero	2023-02-16T00:00:00	2024-11-08T21:00:00	1	Precipitación	0
37152	7	Sololá	717	San Juan la Laguna	12	San Juan la Laguna	2	Febrero	2023-02-16T00:00:00	2024-11-08T21:00:00	8	Radiación solar	0
37153	7	Sololá	717	San Juan la Laguna	12	San Juan la Laguna	2	Febrero	2023-02-16T00:00:00	2024-11-08T22:00:00	2	Temperatura media	14.7
37154	7	Sololá	717	San Juan la Laguna	12	San Juan la Laguna	2	Febrero	2023-02-16T00:00:00	2024-11-08T22:00:00	4	Temperatura máxima	15.8
37155	7	Sololá	717	San Juan la Laguna	12	San Juan la Laguna	2	Febrero	2023-02-16T00:00:00	2024-11-08T22:00:00	3	Temperatura mínima	14.7
37156	7	Sololá	717	San Juan la Laguna	12	San Juan la Laguna	2	Febrero	2023-02-16T00:00:00	2024-11-08T22:00:00	5	Humedad	86
37157	7	Sololá	717	San Juan la Laguna	12	San Juan la Laguna	2	Febrero	2023-02-16T00:00:00	2024-11-08T22:00:00	6	Velocidad del viento	4.8
37158	7	Sololá	717	San Juan la Laguna	12	San Juan la Laguna	2	Febrero	2023-02-16T00:00:00	2024-11-08T22:00:00	7	Dirección del viento	4.83
37159	7	Sololá	717	San Juan la Laguna	12	San Juan la Laguna	2	Febrero	2023-02-16T00:00:00	2024-11-08T22:00:00	1	Precipitación	0
37160	7	Sololá	717	San Juan la Laguna	12	San Juan la Laguna	2	Febrero	2023-02-16T00:00:00	2024-11-08T22:00:00	8	Radiación solar	0
37161	7	Sololá	717	San Juan la Laguna	12	San Juan la Laguna	2	Febrero	2023-02-16T00:00:00	2024-11-08T23:00:00	2	Temperatura media	15.8
37162	7	Sololá	717	San Juan la Laguna	12	San Juan la Laguna	2	Febrero	2023-02-16T00:00:00	2024-11-08T23:00:00	4	Temperatura máxima	15.8
37163	7	Sololá	717	San Juan la Laguna	12	San Juan la Laguna	2	Febrero	2023-02-16T00:00:00	2024-11-08T23:00:00	3	Temperatura mínima	14.7
37164	7	Sololá	717	San Juan la Laguna	12	San Juan la Laguna	2	Febrero	2023-02-16T00:00:00	2024-11-08T23:00:00	5	Humedad	85
37165	7	Sololá	717	San Juan la Laguna	12	San Juan la Laguna	2	Febrero	2023-02-16T00:00:00	2024-11-08T23:00:00	6	Velocidad del viento	0
37166	7	Sololá	717	San Juan la Laguna	12	San Juan la Laguna	2	Febrero	2023-02-16T00:00:00	2024-11-08T23:00:00	7	Dirección del viento	0
37167	7	Sololá	717	San Juan la Laguna	12	San Juan la Laguna	2	Febrero	2023-02-16T00:00:00	2024-11-08T23:00:00	1	Precipitación	0
37168	7	Sololá	717	San Juan la Laguna	12	San Juan la Laguna	2	Febrero	2023-02-16T00:00:00	2024-11-08T23:00:00	8	Radiación solar	0
37169	7	Sololá	717	San Juan la Laguna	12	San Juan la Laguna	2	Febrero	2023-02-17T00:00:00	2024-11-08T00:00:00	2	Temperatura media	15.1
37170	7	Sololá	717	San Juan la Laguna	12	San Juan la Laguna	2	Febrero	2023-02-17T00:00:00	2024-11-08T00:00:00	4	Temperatura máxima	15.8
37171	7	Sololá	717	San Juan la Laguna	12	San Juan la Laguna	2	Febrero	2023-02-17T00:00:00	2024-11-08T00:00:00	3	Temperatura mínima	14.9
37172	7	Sololá	717	San Juan la Laguna	12	San Juan la Laguna	2	Febrero	2023-02-17T00:00:00	2024-11-08T00:00:00	5	Humedad	87
37173	7	Sololá	717	San Juan la Laguna	12	San Juan la Laguna	2	Febrero	2023-02-17T00:00:00	2024-11-08T00:00:00	6	Velocidad del viento	0
37174	7	Sololá	717	San Juan la Laguna	12	San Juan la Laguna	2	Febrero	2023-02-17T00:00:00	2024-11-08T00:00:00	7	Dirección del viento	0
37175	7	Sololá	717	San Juan la Laguna	12	San Juan la Laguna	2	Febrero	2023-02-17T00:00:00	2024-11-08T00:00:00	1	Precipitación	0
37176	7	Sololá	717	San Juan la Laguna	12	San Juan la Laguna	2	Febrero	2023-02-17T00:00:00	2024-11-08T00:00:00	8	Radiación solar	0
37177	7	Sololá	717	San Juan la Laguna	12	San Juan la Laguna	2	Febrero	2023-02-17T00:00:00	2024-11-08T01:00:00	2	Temperatura media	14.9
37178	7	Sololá	717	San Juan la Laguna	12	San Juan la Laguna	2	Febrero	2023-02-17T00:00:00	2024-11-08T01:00:00	4	Temperatura máxima	15.5
37179	7	Sololá	717	San Juan la Laguna	12	San Juan la Laguna	2	Febrero	2023-02-17T00:00:00	2024-11-08T01:00:00	3	Temperatura mínima	14.9
37180	7	Sololá	717	San Juan la Laguna	12	San Juan la Laguna	2	Febrero	2023-02-17T00:00:00	2024-11-08T01:00:00	5	Humedad	84
37181	7	Sololá	717	San Juan la Laguna	12	San Juan la Laguna	2	Febrero	2023-02-17T00:00:00	2024-11-08T01:00:00	6	Velocidad del viento	1.6
37182	7	Sololá	717	San Juan la Laguna	12	San Juan la Laguna	2	Febrero	2023-02-17T00:00:00	2024-11-08T01:00:00	7	Dirección del viento	1.61
37183	7	Sololá	717	San Juan la Laguna	12	San Juan la Laguna	2	Febrero	2023-02-17T00:00:00	2024-11-08T01:00:00	1	Precipitación	0
37184	7	Sololá	717	San Juan la Laguna	12	San Juan la Laguna	2	Febrero	2023-02-17T00:00:00	2024-11-08T01:00:00	8	Radiación solar	0
37185	7	Sololá	717	San Juan la Laguna	12	San Juan la Laguna	2	Febrero	2023-02-17T00:00:00	2024-11-08T02:00:00	2	Temperatura media	15.3
37186	7	Sololá	717	San Juan la Laguna	12	San Juan la Laguna	2	Febrero	2023-02-17T00:00:00	2024-11-08T02:00:00	4	Temperatura máxima	15.3
37187	7	Sololá	717	San Juan la Laguna	12	San Juan la Laguna	2	Febrero	2023-02-17T00:00:00	2024-11-08T02:00:00	3	Temperatura mínima	14.8
37188	7	Sololá	717	San Juan la Laguna	12	San Juan la Laguna	2	Febrero	2023-02-17T00:00:00	2024-11-08T02:00:00	5	Humedad	83
37189	7	Sololá	717	San Juan la Laguna	12	San Juan la Laguna	2	Febrero	2023-02-17T00:00:00	2024-11-08T02:00:00	6	Velocidad del viento	3.2
37190	7	Sololá	717	San Juan la Laguna	12	San Juan la Laguna	2	Febrero	2023-02-17T00:00:00	2024-11-08T02:00:00	7	Dirección del viento	3.22
37191	7	Sololá	717	San Juan la Laguna	12	San Juan la Laguna	2	Febrero	2023-02-17T00:00:00	2024-11-08T02:00:00	1	Precipitación	0
37192	7	Sololá	717	San Juan la Laguna	12	San Juan la Laguna	2	Febrero	2023-02-17T00:00:00	2024-11-08T02:00:00	8	Radiación solar	0
37193	7	Sololá	717	San Juan la Laguna	12	San Juan la Laguna	2	Febrero	2023-02-17T00:00:00	2024-11-08T03:00:00	2	Temperatura media	15.6
37194	7	Sololá	717	San Juan la Laguna	12	San Juan la Laguna	2	Febrero	2023-02-17T00:00:00	2024-11-08T03:00:00	4	Temperatura máxima	15.6
37195	7	Sololá	717	San Juan la Laguna	12	San Juan la Laguna	2	Febrero	2023-02-17T00:00:00	2024-11-08T03:00:00	3	Temperatura mínima	15.3
37196	7	Sololá	717	San Juan la Laguna	12	San Juan la Laguna	2	Febrero	2023-02-17T00:00:00	2024-11-08T03:00:00	5	Humedad	83
37197	7	Sololá	717	San Juan la Laguna	12	San Juan la Laguna	2	Febrero	2023-02-17T00:00:00	2024-11-08T03:00:00	6	Velocidad del viento	1.6
37198	7	Sololá	717	San Juan la Laguna	12	San Juan la Laguna	2	Febrero	2023-02-17T00:00:00	2024-11-08T03:00:00	7	Dirección del viento	1.61
37199	7	Sololá	717	San Juan la Laguna	12	San Juan la Laguna	2	Febrero	2023-02-17T00:00:00	2024-11-08T03:00:00	1	Precipitación	0
37200	7	Sololá	717	San Juan la Laguna	12	San Juan la Laguna	2	Febrero	2023-02-17T00:00:00	2024-11-08T03:00:00	8	Radiación solar	0
37201	7	Sololá	717	San Juan la Laguna	12	San Juan la Laguna	2	Febrero	2023-02-17T00:00:00	2024-11-08T04:00:00	2	Temperatura media	15.4
37202	7	Sololá	717	San Juan la Laguna	12	San Juan la Laguna	2	Febrero	2023-02-17T00:00:00	2024-11-08T04:00:00	4	Temperatura máxima	15.7
37203	7	Sololá	717	San Juan la Laguna	12	San Juan la Laguna	2	Febrero	2023-02-17T00:00:00	2024-11-08T04:00:00	3	Temperatura mínima	15.4
37204	7	Sololá	717	San Juan la Laguna	12	San Juan la Laguna	2	Febrero	2023-02-17T00:00:00	2024-11-08T04:00:00	5	Humedad	81
37205	7	Sololá	717	San Juan la Laguna	12	San Juan la Laguna	2	Febrero	2023-02-17T00:00:00	2024-11-08T04:00:00	6	Velocidad del viento	1.6
37206	7	Sololá	717	San Juan la Laguna	12	San Juan la Laguna	2	Febrero	2023-02-17T00:00:00	2024-11-08T04:00:00	7	Dirección del viento	1.61
37207	7	Sololá	717	San Juan la Laguna	12	San Juan la Laguna	2	Febrero	2023-02-17T00:00:00	2024-11-08T04:00:00	1	Precipitación	0
37208	7	Sololá	717	San Juan la Laguna	12	San Juan la Laguna	2	Febrero	2023-02-17T00:00:00	2024-11-08T04:00:00	8	Radiación solar	0
37209	7	Sololá	717	San Juan la Laguna	12	San Juan la Laguna	2	Febrero	2023-02-17T00:00:00	2024-11-08T05:00:00	2	Temperatura media	14.8
37210	7	Sololá	717	San Juan la Laguna	12	San Juan la Laguna	2	Febrero	2023-02-17T00:00:00	2024-11-08T05:00:00	4	Temperatura máxima	15.4
37211	7	Sololá	717	San Juan la Laguna	12	San Juan la Laguna	2	Febrero	2023-02-17T00:00:00	2024-11-08T05:00:00	3	Temperatura mínima	14.8
37212	7	Sololá	717	San Juan la Laguna	12	San Juan la Laguna	2	Febrero	2023-02-17T00:00:00	2024-11-08T05:00:00	5	Humedad	82
37213	7	Sololá	717	San Juan la Laguna	12	San Juan la Laguna	2	Febrero	2023-02-17T00:00:00	2024-11-08T05:00:00	6	Velocidad del viento	3.2
37214	7	Sololá	717	San Juan la Laguna	12	San Juan la Laguna	2	Febrero	2023-02-17T00:00:00	2024-11-08T05:00:00	7	Dirección del viento	3.22
37215	7	Sololá	717	San Juan la Laguna	12	San Juan la Laguna	2	Febrero	2023-02-17T00:00:00	2024-11-08T05:00:00	1	Precipitación	0
37216	7	Sololá	717	San Juan la Laguna	12	San Juan la Laguna	2	Febrero	2023-02-17T00:00:00	2024-11-08T05:00:00	8	Radiación solar	0
37217	7	Sololá	717	San Juan la Laguna	12	San Juan la Laguna	2	Febrero	2023-02-17T00:00:00	2024-11-08T06:00:00	2	Temperatura media	13.5
37218	7	Sololá	717	San Juan la Laguna	12	San Juan la Laguna	2	Febrero	2023-02-17T00:00:00	2024-11-08T06:00:00	4	Temperatura máxima	14.8
37219	7	Sololá	717	San Juan la Laguna	12	San Juan la Laguna	2	Febrero	2023-02-17T00:00:00	2024-11-08T06:00:00	3	Temperatura mínima	13.5
37220	7	Sololá	717	San Juan la Laguna	12	San Juan la Laguna	2	Febrero	2023-02-17T00:00:00	2024-11-08T06:00:00	5	Humedad	83
37221	7	Sololá	717	San Juan la Laguna	12	San Juan la Laguna	2	Febrero	2023-02-17T00:00:00	2024-11-08T06:00:00	6	Velocidad del viento	1.6
37222	7	Sololá	717	San Juan la Laguna	12	San Juan la Laguna	2	Febrero	2023-02-17T00:00:00	2024-11-08T06:00:00	7	Dirección del viento	1.61
37223	7	Sololá	717	San Juan la Laguna	12	San Juan la Laguna	2	Febrero	2023-02-17T00:00:00	2024-11-08T06:00:00	1	Precipitación	0
37224	7	Sololá	717	San Juan la Laguna	12	San Juan la Laguna	2	Febrero	2023-02-17T00:00:00	2024-11-08T06:00:00	8	Radiación solar	0
37225	7	Sololá	717	San Juan la Laguna	12	San Juan la Laguna	2	Febrero	2023-02-17T00:00:00	2024-11-08T07:00:00	2	Temperatura media	13.3
37226	7	Sololá	717	San Juan la Laguna	12	San Juan la Laguna	2	Febrero	2023-02-17T00:00:00	2024-11-08T07:00:00	4	Temperatura máxima	13.5
37227	7	Sololá	717	San Juan la Laguna	12	San Juan la Laguna	2	Febrero	2023-02-17T00:00:00	2024-11-08T07:00:00	3	Temperatura mínima	12.9
37228	7	Sololá	717	San Juan la Laguna	12	San Juan la Laguna	2	Febrero	2023-02-17T00:00:00	2024-11-08T07:00:00	5	Humedad	83
37229	7	Sololá	717	San Juan la Laguna	12	San Juan la Laguna	2	Febrero	2023-02-17T00:00:00	2024-11-08T07:00:00	6	Velocidad del viento	4.8
37230	7	Sololá	717	San Juan la Laguna	12	San Juan la Laguna	2	Febrero	2023-02-17T00:00:00	2024-11-08T07:00:00	7	Dirección del viento	4.83
37231	7	Sololá	717	San Juan la Laguna	12	San Juan la Laguna	2	Febrero	2023-02-17T00:00:00	2024-11-08T07:00:00	1	Precipitación	0
37232	7	Sololá	717	San Juan la Laguna	12	San Juan la Laguna	2	Febrero	2023-02-17T00:00:00	2024-11-08T07:00:00	8	Radiación solar	11
37233	7	Sololá	717	San Juan la Laguna	12	San Juan la Laguna	2	Febrero	2023-02-17T00:00:00	2024-11-08T08:00:00	2	Temperatura media	15.3
37234	7	Sololá	717	San Juan la Laguna	12	San Juan la Laguna	2	Febrero	2023-02-17T00:00:00	2024-11-08T08:00:00	4	Temperatura máxima	15.3
37235	7	Sololá	717	San Juan la Laguna	12	San Juan la Laguna	2	Febrero	2023-02-17T00:00:00	2024-11-08T08:00:00	3	Temperatura mínima	13.3
37236	7	Sololá	717	San Juan la Laguna	12	San Juan la Laguna	2	Febrero	2023-02-17T00:00:00	2024-11-08T08:00:00	5	Humedad	79
37237	7	Sololá	717	San Juan la Laguna	12	San Juan la Laguna	2	Febrero	2023-02-17T00:00:00	2024-11-08T08:00:00	6	Velocidad del viento	1.6
37238	7	Sololá	717	San Juan la Laguna	12	San Juan la Laguna	2	Febrero	2023-02-17T00:00:00	2024-11-08T08:00:00	7	Dirección del viento	1.61
37239	7	Sololá	717	San Juan la Laguna	12	San Juan la Laguna	2	Febrero	2023-02-17T00:00:00	2024-11-08T08:00:00	1	Precipitación	0
37240	7	Sololá	717	San Juan la Laguna	12	San Juan la Laguna	2	Febrero	2023-02-17T00:00:00	2024-11-08T08:00:00	8	Radiación solar	150
37241	7	Sololá	717	San Juan la Laguna	12	San Juan la Laguna	2	Febrero	2023-02-17T00:00:00	2024-11-08T09:00:00	2	Temperatura media	18.3
37242	7	Sololá	717	San Juan la Laguna	12	San Juan la Laguna	2	Febrero	2023-02-17T00:00:00	2024-11-08T09:00:00	4	Temperatura máxima	18.4
37243	7	Sololá	717	San Juan la Laguna	12	San Juan la Laguna	2	Febrero	2023-02-17T00:00:00	2024-11-08T09:00:00	3	Temperatura mínima	15.3
37244	7	Sololá	717	San Juan la Laguna	12	San Juan la Laguna	2	Febrero	2023-02-17T00:00:00	2024-11-08T09:00:00	5	Humedad	73
37245	7	Sololá	717	San Juan la Laguna	12	San Juan la Laguna	2	Febrero	2023-02-17T00:00:00	2024-11-08T09:00:00	6	Velocidad del viento	0
37246	7	Sololá	717	San Juan la Laguna	12	San Juan la Laguna	2	Febrero	2023-02-17T00:00:00	2024-11-08T09:00:00	7	Dirección del viento	0
37247	7	Sololá	717	San Juan la Laguna	12	San Juan la Laguna	2	Febrero	2023-02-17T00:00:00	2024-11-08T09:00:00	1	Precipitación	0
37248	7	Sololá	717	San Juan la Laguna	12	San Juan la Laguna	2	Febrero	2023-02-17T00:00:00	2024-11-08T09:00:00	8	Radiación solar	377
37249	7	Sololá	717	San Juan la Laguna	12	San Juan la Laguna	2	Febrero	2023-02-17T00:00:00	2024-11-08T10:00:00	2	Temperatura media	20
37250	7	Sololá	717	San Juan la Laguna	12	San Juan la Laguna	2	Febrero	2023-02-17T00:00:00	2024-11-08T10:00:00	4	Temperatura máxima	20
37251	7	Sololá	717	San Juan la Laguna	12	San Juan la Laguna	2	Febrero	2023-02-17T00:00:00	2024-11-08T10:00:00	3	Temperatura mínima	18.3
37252	7	Sololá	717	San Juan la Laguna	12	San Juan la Laguna	2	Febrero	2023-02-17T00:00:00	2024-11-08T10:00:00	5	Humedad	62
37253	7	Sololá	717	San Juan la Laguna	12	San Juan la Laguna	2	Febrero	2023-02-17T00:00:00	2024-11-08T10:00:00	6	Velocidad del viento	1.6
37254	7	Sololá	717	San Juan la Laguna	12	San Juan la Laguna	2	Febrero	2023-02-17T00:00:00	2024-11-08T10:00:00	7	Dirección del viento	1.61
37255	7	Sololá	717	San Juan la Laguna	12	San Juan la Laguna	2	Febrero	2023-02-17T00:00:00	2024-11-08T10:00:00	1	Precipitación	0
37256	7	Sololá	717	San Juan la Laguna	12	San Juan la Laguna	2	Febrero	2023-02-17T00:00:00	2024-11-08T10:00:00	8	Radiación solar	585
37257	7	Sololá	717	San Juan la Laguna	12	San Juan la Laguna	2	Febrero	2023-02-17T00:00:00	2024-11-08T11:00:00	2	Temperatura media	21.4
37258	7	Sololá	717	San Juan la Laguna	12	San Juan la Laguna	2	Febrero	2023-02-17T00:00:00	2024-11-08T11:00:00	4	Temperatura máxima	21.4
37259	7	Sololá	717	San Juan la Laguna	12	San Juan la Laguna	2	Febrero	2023-02-17T00:00:00	2024-11-08T11:00:00	3	Temperatura mínima	20
37260	7	Sololá	717	San Juan la Laguna	12	San Juan la Laguna	2	Febrero	2023-02-17T00:00:00	2024-11-08T11:00:00	5	Humedad	55
37261	7	Sololá	717	San Juan la Laguna	12	San Juan la Laguna	2	Febrero	2023-02-17T00:00:00	2024-11-08T11:00:00	6	Velocidad del viento	3.2
37262	7	Sololá	717	San Juan la Laguna	12	San Juan la Laguna	2	Febrero	2023-02-17T00:00:00	2024-11-08T11:00:00	7	Dirección del viento	3.22
37263	7	Sololá	717	San Juan la Laguna	12	San Juan la Laguna	2	Febrero	2023-02-17T00:00:00	2024-11-08T11:00:00	1	Precipitación	0
37264	7	Sololá	717	San Juan la Laguna	12	San Juan la Laguna	2	Febrero	2023-02-17T00:00:00	2024-11-08T11:00:00	8	Radiación solar	747
37265	7	Sololá	717	San Juan la Laguna	12	San Juan la Laguna	2	Febrero	2023-02-17T00:00:00	2024-11-08T12:00:00	2	Temperatura media	23.1
37266	7	Sololá	717	San Juan la Laguna	12	San Juan la Laguna	2	Febrero	2023-02-17T00:00:00	2024-11-08T12:00:00	4	Temperatura máxima	23.2
37267	7	Sololá	717	San Juan la Laguna	12	San Juan la Laguna	2	Febrero	2023-02-17T00:00:00	2024-11-08T12:00:00	3	Temperatura mínima	21.4
37268	7	Sololá	717	San Juan la Laguna	12	San Juan la Laguna	2	Febrero	2023-02-17T00:00:00	2024-11-08T12:00:00	5	Humedad	48
37269	7	Sololá	717	San Juan la Laguna	12	San Juan la Laguna	2	Febrero	2023-02-17T00:00:00	2024-11-08T12:00:00	6	Velocidad del viento	4.8
37270	7	Sololá	717	San Juan la Laguna	12	San Juan la Laguna	2	Febrero	2023-02-17T00:00:00	2024-11-08T12:00:00	7	Dirección del viento	4.83
37271	7	Sololá	717	San Juan la Laguna	12	San Juan la Laguna	2	Febrero	2023-02-17T00:00:00	2024-11-08T12:00:00	1	Precipitación	0
37272	7	Sololá	717	San Juan la Laguna	12	San Juan la Laguna	2	Febrero	2023-02-17T00:00:00	2024-11-08T12:00:00	8	Radiación solar	750
37273	7	Sololá	717	San Juan la Laguna	12	San Juan la Laguna	2	Febrero	2023-02-17T00:00:00	2024-11-08T13:00:00	2	Temperatura media	25.5
37274	7	Sololá	717	San Juan la Laguna	12	San Juan la Laguna	2	Febrero	2023-02-17T00:00:00	2024-11-08T13:00:00	4	Temperatura máxima	25.6
37275	7	Sololá	717	San Juan la Laguna	12	San Juan la Laguna	2	Febrero	2023-02-17T00:00:00	2024-11-08T13:00:00	3	Temperatura mínima	23.1
37276	7	Sololá	717	San Juan la Laguna	12	San Juan la Laguna	2	Febrero	2023-02-17T00:00:00	2024-11-08T13:00:00	5	Humedad	39
37277	7	Sololá	717	San Juan la Laguna	12	San Juan la Laguna	2	Febrero	2023-02-17T00:00:00	2024-11-08T13:00:00	6	Velocidad del viento	12.9
37278	7	Sololá	717	San Juan la Laguna	12	San Juan la Laguna	2	Febrero	2023-02-17T00:00:00	2024-11-08T13:00:00	7	Dirección del viento	12.87
37279	7	Sololá	717	San Juan la Laguna	12	San Juan la Laguna	2	Febrero	2023-02-17T00:00:00	2024-11-08T13:00:00	1	Precipitación	0
37280	7	Sololá	717	San Juan la Laguna	12	San Juan la Laguna	2	Febrero	2023-02-17T00:00:00	2024-11-08T13:00:00	8	Radiación solar	871
37281	7	Sololá	717	San Juan la Laguna	12	San Juan la Laguna	2	Febrero	2023-02-17T00:00:00	2024-11-08T14:00:00	2	Temperatura media	25.3
37282	7	Sololá	717	San Juan la Laguna	12	San Juan la Laguna	2	Febrero	2023-02-17T00:00:00	2024-11-08T14:00:00	4	Temperatura máxima	25.6
37283	7	Sololá	717	San Juan la Laguna	12	San Juan la Laguna	2	Febrero	2023-02-17T00:00:00	2024-11-08T14:00:00	3	Temperatura mínima	25
37284	7	Sololá	717	San Juan la Laguna	12	San Juan la Laguna	2	Febrero	2023-02-17T00:00:00	2024-11-08T14:00:00	5	Humedad	36
37285	7	Sololá	717	San Juan la Laguna	12	San Juan la Laguna	2	Febrero	2023-02-17T00:00:00	2024-11-08T14:00:00	6	Velocidad del viento	19.3
37286	7	Sololá	717	San Juan la Laguna	12	San Juan la Laguna	2	Febrero	2023-02-17T00:00:00	2024-11-08T14:00:00	7	Dirección del viento	19.31
37287	7	Sololá	717	San Juan la Laguna	12	San Juan la Laguna	2	Febrero	2023-02-17T00:00:00	2024-11-08T14:00:00	1	Precipitación	0
37288	7	Sololá	717	San Juan la Laguna	12	San Juan la Laguna	2	Febrero	2023-02-17T00:00:00	2024-11-08T14:00:00	8	Radiación solar	832
37289	7	Sololá	717	San Juan la Laguna	12	San Juan la Laguna	2	Febrero	2023-02-17T00:00:00	2024-11-08T15:00:00	2	Temperatura media	24.4
37290	7	Sololá	717	San Juan la Laguna	12	San Juan la Laguna	2	Febrero	2023-02-17T00:00:00	2024-11-08T15:00:00	4	Temperatura máxima	25.4
37291	7	Sololá	717	San Juan la Laguna	12	San Juan la Laguna	2	Febrero	2023-02-17T00:00:00	2024-11-08T15:00:00	3	Temperatura mínima	24.4
37292	7	Sololá	717	San Juan la Laguna	12	San Juan la Laguna	2	Febrero	2023-02-17T00:00:00	2024-11-08T15:00:00	5	Humedad	38
37293	7	Sololá	717	San Juan la Laguna	12	San Juan la Laguna	2	Febrero	2023-02-17T00:00:00	2024-11-08T15:00:00	6	Velocidad del viento	16.1
37294	7	Sololá	717	San Juan la Laguna	12	San Juan la Laguna	2	Febrero	2023-02-17T00:00:00	2024-11-08T15:00:00	7	Dirección del viento	16.09
37295	7	Sololá	717	San Juan la Laguna	12	San Juan la Laguna	2	Febrero	2023-02-17T00:00:00	2024-11-08T15:00:00	1	Precipitación	0
37296	7	Sololá	717	San Juan la Laguna	12	San Juan la Laguna	2	Febrero	2023-02-17T00:00:00	2024-11-08T15:00:00	8	Radiación solar	714
37297	7	Sololá	717	San Juan la Laguna	12	San Juan la Laguna	2	Febrero	2023-02-17T00:00:00	2024-11-08T16:00:00	2	Temperatura media	23.4
37298	7	Sololá	717	San Juan la Laguna	12	San Juan la Laguna	2	Febrero	2023-02-17T00:00:00	2024-11-08T16:00:00	4	Temperatura máxima	24.4
37299	7	Sololá	717	San Juan la Laguna	12	San Juan la Laguna	2	Febrero	2023-02-17T00:00:00	2024-11-08T16:00:00	3	Temperatura mínima	23.4
37300	7	Sololá	717	San Juan la Laguna	12	San Juan la Laguna	2	Febrero	2023-02-17T00:00:00	2024-11-08T16:00:00	5	Humedad	44
37301	7	Sololá	717	San Juan la Laguna	12	San Juan la Laguna	2	Febrero	2023-02-17T00:00:00	2024-11-08T16:00:00	6	Velocidad del viento	12.9
37302	7	Sololá	717	San Juan la Laguna	12	San Juan la Laguna	2	Febrero	2023-02-17T00:00:00	2024-11-08T16:00:00	7	Dirección del viento	12.87
37303	7	Sololá	717	San Juan la Laguna	12	San Juan la Laguna	2	Febrero	2023-02-17T00:00:00	2024-11-08T16:00:00	1	Precipitación	0
37304	7	Sololá	717	San Juan la Laguna	12	San Juan la Laguna	2	Febrero	2023-02-17T00:00:00	2024-11-08T16:00:00	8	Radiación solar	547
37305	7	Sololá	717	San Juan la Laguna	12	San Juan la Laguna	2	Febrero	2023-02-17T00:00:00	2024-11-08T17:00:00	2	Temperatura media	22.4
37306	7	Sololá	717	San Juan la Laguna	12	San Juan la Laguna	2	Febrero	2023-02-17T00:00:00	2024-11-08T17:00:00	4	Temperatura máxima	23.4
37307	7	Sololá	717	San Juan la Laguna	12	San Juan la Laguna	2	Febrero	2023-02-17T00:00:00	2024-11-08T17:00:00	3	Temperatura mínima	22.4
37308	7	Sololá	717	San Juan la Laguna	12	San Juan la Laguna	2	Febrero	2023-02-17T00:00:00	2024-11-08T17:00:00	5	Humedad	46
37309	7	Sololá	717	San Juan la Laguna	12	San Juan la Laguna	2	Febrero	2023-02-17T00:00:00	2024-11-08T17:00:00	6	Velocidad del viento	8
37310	7	Sololá	717	San Juan la Laguna	12	San Juan la Laguna	2	Febrero	2023-02-17T00:00:00	2024-11-08T17:00:00	7	Dirección del viento	8.05
37311	7	Sololá	717	San Juan la Laguna	12	San Juan la Laguna	2	Febrero	2023-02-17T00:00:00	2024-11-08T17:00:00	1	Precipitación	0
37312	7	Sololá	717	San Juan la Laguna	12	San Juan la Laguna	2	Febrero	2023-02-17T00:00:00	2024-11-08T17:00:00	8	Radiación solar	335
37313	7	Sololá	717	San Juan la Laguna	12	San Juan la Laguna	2	Febrero	2023-02-17T00:00:00	2024-11-08T18:00:00	2	Temperatura media	20.5
37314	7	Sololá	717	San Juan la Laguna	12	San Juan la Laguna	2	Febrero	2023-02-17T00:00:00	2024-11-08T18:00:00	4	Temperatura máxima	22.4
37315	7	Sololá	717	San Juan la Laguna	12	San Juan la Laguna	2	Febrero	2023-02-17T00:00:00	2024-11-08T18:00:00	3	Temperatura mínima	20.5
37316	7	Sololá	717	San Juan la Laguna	12	San Juan la Laguna	2	Febrero	2023-02-17T00:00:00	2024-11-08T18:00:00	5	Humedad	54
37317	7	Sololá	717	San Juan la Laguna	12	San Juan la Laguna	2	Febrero	2023-02-17T00:00:00	2024-11-08T18:00:00	6	Velocidad del viento	12.9
37318	7	Sololá	717	San Juan la Laguna	12	San Juan la Laguna	2	Febrero	2023-02-17T00:00:00	2024-11-08T18:00:00	7	Dirección del viento	12.87
37319	7	Sololá	717	San Juan la Laguna	12	San Juan la Laguna	2	Febrero	2023-02-17T00:00:00	2024-11-08T18:00:00	1	Precipitación	0
37320	7	Sololá	717	San Juan la Laguna	12	San Juan la Laguna	2	Febrero	2023-02-17T00:00:00	2024-11-08T18:00:00	8	Radiación solar	44
37321	7	Sololá	717	San Juan la Laguna	12	San Juan la Laguna	2	Febrero	2023-02-17T00:00:00	2024-11-08T19:00:00	2	Temperatura media	19.4
37322	7	Sololá	717	San Juan la Laguna	12	San Juan la Laguna	2	Febrero	2023-02-17T00:00:00	2024-11-08T19:00:00	4	Temperatura máxima	20.4
37323	7	Sololá	717	San Juan la Laguna	12	San Juan la Laguna	2	Febrero	2023-02-17T00:00:00	2024-11-08T19:00:00	3	Temperatura mínima	19.4
37324	7	Sololá	717	San Juan la Laguna	12	San Juan la Laguna	2	Febrero	2023-02-17T00:00:00	2024-11-08T19:00:00	5	Humedad	56
37325	7	Sololá	717	San Juan la Laguna	12	San Juan la Laguna	2	Febrero	2023-02-17T00:00:00	2024-11-08T19:00:00	6	Velocidad del viento	12.9
37326	7	Sololá	717	San Juan la Laguna	12	San Juan la Laguna	2	Febrero	2023-02-17T00:00:00	2024-11-08T19:00:00	7	Dirección del viento	12.87
37327	7	Sololá	717	San Juan la Laguna	12	San Juan la Laguna	2	Febrero	2023-02-17T00:00:00	2024-11-08T19:00:00	1	Precipitación	0
37328	7	Sololá	717	San Juan la Laguna	12	San Juan la Laguna	2	Febrero	2023-02-17T00:00:00	2024-11-08T19:00:00	8	Radiación solar	0
37329	7	Sololá	717	San Juan la Laguna	12	San Juan la Laguna	2	Febrero	2023-02-17T00:00:00	2024-11-08T20:00:00	2	Temperatura media	19.1
37330	7	Sololá	717	San Juan la Laguna	12	San Juan la Laguna	2	Febrero	2023-02-17T00:00:00	2024-11-08T20:00:00	4	Temperatura máxima	19.6
37331	7	Sololá	717	San Juan la Laguna	12	San Juan la Laguna	2	Febrero	2023-02-17T00:00:00	2024-11-08T20:00:00	3	Temperatura mínima	18.9
37332	7	Sololá	717	San Juan la Laguna	12	San Juan la Laguna	2	Febrero	2023-02-17T00:00:00	2024-11-08T20:00:00	5	Humedad	59
37333	7	Sololá	717	San Juan la Laguna	12	San Juan la Laguna	2	Febrero	2023-02-17T00:00:00	2024-11-08T20:00:00	6	Velocidad del viento	14.5
37334	7	Sololá	717	San Juan la Laguna	12	San Juan la Laguna	2	Febrero	2023-02-17T00:00:00	2024-11-08T20:00:00	7	Dirección del viento	14.48
37335	7	Sololá	717	San Juan la Laguna	12	San Juan la Laguna	2	Febrero	2023-02-17T00:00:00	2024-11-08T20:00:00	1	Precipitación	0
37336	7	Sololá	717	San Juan la Laguna	12	San Juan la Laguna	2	Febrero	2023-02-17T00:00:00	2024-11-08T20:00:00	8	Radiación solar	0
37337	7	Sololá	717	San Juan la Laguna	12	San Juan la Laguna	2	Febrero	2023-02-17T00:00:00	2024-11-08T21:00:00	2	Temperatura media	18.8
37338	7	Sololá	717	San Juan la Laguna	12	San Juan la Laguna	2	Febrero	2023-02-17T00:00:00	2024-11-08T21:00:00	4	Temperatura máxima	19.4
37339	7	Sololá	717	San Juan la Laguna	12	San Juan la Laguna	2	Febrero	2023-02-17T00:00:00	2024-11-08T21:00:00	3	Temperatura mínima	18.8
37340	7	Sololá	717	San Juan la Laguna	12	San Juan la Laguna	2	Febrero	2023-02-17T00:00:00	2024-11-08T21:00:00	5	Humedad	58
37341	7	Sololá	717	San Juan la Laguna	12	San Juan la Laguna	2	Febrero	2023-02-17T00:00:00	2024-11-08T21:00:00	6	Velocidad del viento	16.1
37342	7	Sololá	717	San Juan la Laguna	12	San Juan la Laguna	2	Febrero	2023-02-17T00:00:00	2024-11-08T21:00:00	7	Dirección del viento	16.09
37343	7	Sololá	717	San Juan la Laguna	12	San Juan la Laguna	2	Febrero	2023-02-17T00:00:00	2024-11-08T21:00:00	1	Precipitación	0
37344	7	Sololá	717	San Juan la Laguna	12	San Juan la Laguna	2	Febrero	2023-02-17T00:00:00	2024-11-08T21:00:00	8	Radiación solar	0
37345	7	Sololá	717	San Juan la Laguna	12	San Juan la Laguna	2	Febrero	2023-02-17T00:00:00	2024-11-08T22:00:00	2	Temperatura media	19.3
37346	7	Sololá	717	San Juan la Laguna	12	San Juan la Laguna	2	Febrero	2023-02-17T00:00:00	2024-11-08T22:00:00	4	Temperatura máxima	19.4
37347	7	Sololá	717	San Juan la Laguna	12	San Juan la Laguna	2	Febrero	2023-02-17T00:00:00	2024-11-08T22:00:00	3	Temperatura mínima	18.8
37348	7	Sololá	717	San Juan la Laguna	12	San Juan la Laguna	2	Febrero	2023-02-17T00:00:00	2024-11-08T22:00:00	5	Humedad	57
37349	7	Sololá	717	San Juan la Laguna	12	San Juan la Laguna	2	Febrero	2023-02-17T00:00:00	2024-11-08T22:00:00	6	Velocidad del viento	12.9
37350	7	Sololá	717	San Juan la Laguna	12	San Juan la Laguna	2	Febrero	2023-02-17T00:00:00	2024-11-08T22:00:00	7	Dirección del viento	12.87
37351	7	Sololá	717	San Juan la Laguna	12	San Juan la Laguna	2	Febrero	2023-02-17T00:00:00	2024-11-08T22:00:00	1	Precipitación	0
37352	7	Sololá	717	San Juan la Laguna	12	San Juan la Laguna	2	Febrero	2023-02-17T00:00:00	2024-11-08T22:00:00	8	Radiación solar	0
37353	7	Sololá	717	San Juan la Laguna	12	San Juan la Laguna	2	Febrero	2023-02-17T00:00:00	2024-11-08T23:00:00	2	Temperatura media	19.6
37354	7	Sololá	717	San Juan la Laguna	12	San Juan la Laguna	2	Febrero	2023-02-17T00:00:00	2024-11-08T23:00:00	4	Temperatura máxima	19.9
37355	7	Sololá	717	San Juan la Laguna	12	San Juan la Laguna	2	Febrero	2023-02-17T00:00:00	2024-11-08T23:00:00	3	Temperatura mínima	19.2
37356	7	Sololá	717	San Juan la Laguna	12	San Juan la Laguna	2	Febrero	2023-02-17T00:00:00	2024-11-08T23:00:00	5	Humedad	58
37357	7	Sololá	717	San Juan la Laguna	12	San Juan la Laguna	2	Febrero	2023-02-17T00:00:00	2024-11-08T23:00:00	6	Velocidad del viento	12.9
37358	7	Sololá	717	San Juan la Laguna	12	San Juan la Laguna	2	Febrero	2023-02-17T00:00:00	2024-11-08T23:00:00	7	Dirección del viento	12.87
37359	7	Sololá	717	San Juan la Laguna	12	San Juan la Laguna	2	Febrero	2023-02-17T00:00:00	2024-11-08T23:00:00	1	Precipitación	0
37360	7	Sololá	717	San Juan la Laguna	12	San Juan la Laguna	2	Febrero	2023-02-17T00:00:00	2024-11-08T23:00:00	8	Radiación solar	0
37361	7	Sololá	717	San Juan la Laguna	12	San Juan la Laguna	2	Febrero	2023-02-18T00:00:00	2024-11-08T00:00:00	2	Temperatura media	19.6
37362	7	Sololá	717	San Juan la Laguna	12	San Juan la Laguna	2	Febrero	2023-02-18T00:00:00	2024-11-08T00:00:00	4	Temperatura máxima	19.9
37363	7	Sololá	717	San Juan la Laguna	12	San Juan la Laguna	2	Febrero	2023-02-18T00:00:00	2024-11-08T00:00:00	3	Temperatura mínima	19.1
37364	7	Sololá	717	San Juan la Laguna	12	San Juan la Laguna	2	Febrero	2023-02-18T00:00:00	2024-11-08T00:00:00	5	Humedad	60
37365	7	Sololá	717	San Juan la Laguna	12	San Juan la Laguna	2	Febrero	2023-02-18T00:00:00	2024-11-08T00:00:00	6	Velocidad del viento	12.9
37366	7	Sololá	717	San Juan la Laguna	12	San Juan la Laguna	2	Febrero	2023-02-18T00:00:00	2024-11-08T00:00:00	7	Dirección del viento	12.87
37367	7	Sololá	717	San Juan la Laguna	12	San Juan la Laguna	2	Febrero	2023-02-18T00:00:00	2024-11-08T00:00:00	1	Precipitación	0
37368	7	Sololá	717	San Juan la Laguna	12	San Juan la Laguna	2	Febrero	2023-02-18T00:00:00	2024-11-08T00:00:00	8	Radiación solar	0
37369	7	Sololá	717	San Juan la Laguna	12	San Juan la Laguna	2	Febrero	2023-02-18T00:00:00	2024-11-08T01:00:00	2	Temperatura media	19.8
37370	7	Sololá	717	San Juan la Laguna	12	San Juan la Laguna	2	Febrero	2023-02-18T00:00:00	2024-11-08T01:00:00	4	Temperatura máxima	19.8
37371	7	Sololá	717	San Juan la Laguna	12	San Juan la Laguna	2	Febrero	2023-02-18T00:00:00	2024-11-08T01:00:00	3	Temperatura mínima	19.3
37372	7	Sololá	717	San Juan la Laguna	12	San Juan la Laguna	2	Febrero	2023-02-18T00:00:00	2024-11-08T01:00:00	5	Humedad	60
37373	7	Sololá	717	San Juan la Laguna	12	San Juan la Laguna	2	Febrero	2023-02-18T00:00:00	2024-11-08T01:00:00	6	Velocidad del viento	11.3
37374	7	Sololá	717	San Juan la Laguna	12	San Juan la Laguna	2	Febrero	2023-02-18T00:00:00	2024-11-08T01:00:00	7	Dirección del viento	11.27
37375	7	Sololá	717	San Juan la Laguna	12	San Juan la Laguna	2	Febrero	2023-02-18T00:00:00	2024-11-08T01:00:00	1	Precipitación	0
37376	7	Sololá	717	San Juan la Laguna	12	San Juan la Laguna	2	Febrero	2023-02-18T00:00:00	2024-11-08T01:00:00	8	Radiación solar	0
37377	7	Sololá	717	San Juan la Laguna	12	San Juan la Laguna	2	Febrero	2023-02-18T00:00:00	2024-11-08T02:00:00	2	Temperatura media	19.4
37378	7	Sololá	717	San Juan la Laguna	12	San Juan la Laguna	2	Febrero	2023-02-18T00:00:00	2024-11-08T02:00:00	4	Temperatura máxima	19.8
37379	7	Sololá	717	San Juan la Laguna	12	San Juan la Laguna	2	Febrero	2023-02-18T00:00:00	2024-11-08T02:00:00	3	Temperatura mínima	19.4
37380	7	Sololá	717	San Juan la Laguna	12	San Juan la Laguna	2	Febrero	2023-02-18T00:00:00	2024-11-08T02:00:00	5	Humedad	63
37381	7	Sololá	717	San Juan la Laguna	12	San Juan la Laguna	2	Febrero	2023-02-18T00:00:00	2024-11-08T02:00:00	6	Velocidad del viento	11.3
37382	7	Sololá	717	San Juan la Laguna	12	San Juan la Laguna	2	Febrero	2023-02-18T00:00:00	2024-11-08T02:00:00	7	Dirección del viento	11.27
37383	7	Sololá	717	San Juan la Laguna	12	San Juan la Laguna	2	Febrero	2023-02-18T00:00:00	2024-11-08T02:00:00	1	Precipitación	0
37384	7	Sololá	717	San Juan la Laguna	12	San Juan la Laguna	2	Febrero	2023-02-18T00:00:00	2024-11-08T02:00:00	8	Radiación solar	0
37385	7	Sololá	717	San Juan la Laguna	12	San Juan la Laguna	2	Febrero	2023-02-18T00:00:00	2024-11-08T03:00:00	2	Temperatura media	18.1
37386	7	Sololá	717	San Juan la Laguna	12	San Juan la Laguna	2	Febrero	2023-02-18T00:00:00	2024-11-08T03:00:00	4	Temperatura máxima	19.5
37387	7	Sololá	717	San Juan la Laguna	12	San Juan la Laguna	2	Febrero	2023-02-18T00:00:00	2024-11-08T03:00:00	3	Temperatura mínima	17.8
37388	7	Sololá	717	San Juan la Laguna	12	San Juan la Laguna	2	Febrero	2023-02-18T00:00:00	2024-11-08T03:00:00	5	Humedad	69
37389	7	Sololá	717	San Juan la Laguna	12	San Juan la Laguna	2	Febrero	2023-02-18T00:00:00	2024-11-08T03:00:00	6	Velocidad del viento	16.1
37390	7	Sololá	717	San Juan la Laguna	12	San Juan la Laguna	2	Febrero	2023-02-18T00:00:00	2024-11-08T03:00:00	7	Dirección del viento	16.09
37391	7	Sololá	717	San Juan la Laguna	12	San Juan la Laguna	2	Febrero	2023-02-18T00:00:00	2024-11-08T03:00:00	1	Precipitación	0
37392	7	Sololá	717	San Juan la Laguna	12	San Juan la Laguna	2	Febrero	2023-02-18T00:00:00	2024-11-08T03:00:00	8	Radiación solar	0
37393	7	Sololá	717	San Juan la Laguna	12	San Juan la Laguna	2	Febrero	2023-02-18T00:00:00	2024-11-08T04:00:00	2	Temperatura media	17.7
37394	7	Sololá	717	San Juan la Laguna	12	San Juan la Laguna	2	Febrero	2023-02-18T00:00:00	2024-11-08T04:00:00	4	Temperatura máxima	18.1
37395	7	Sololá	717	San Juan la Laguna	12	San Juan la Laguna	2	Febrero	2023-02-18T00:00:00	2024-11-08T04:00:00	3	Temperatura mínima	17.6
37396	7	Sololá	717	San Juan la Laguna	12	San Juan la Laguna	2	Febrero	2023-02-18T00:00:00	2024-11-08T04:00:00	5	Humedad	63
37397	7	Sololá	717	San Juan la Laguna	12	San Juan la Laguna	2	Febrero	2023-02-18T00:00:00	2024-11-08T04:00:00	6	Velocidad del viento	16.1
37398	7	Sololá	717	San Juan la Laguna	12	San Juan la Laguna	2	Febrero	2023-02-18T00:00:00	2024-11-08T04:00:00	7	Dirección del viento	16.09
37399	7	Sololá	717	San Juan la Laguna	12	San Juan la Laguna	2	Febrero	2023-02-18T00:00:00	2024-11-08T04:00:00	1	Precipitación	0
37400	7	Sololá	717	San Juan la Laguna	12	San Juan la Laguna	2	Febrero	2023-02-18T00:00:00	2024-11-08T04:00:00	8	Radiación solar	0
37401	7	Sololá	717	San Juan la Laguna	12	San Juan la Laguna	2	Febrero	2023-02-18T00:00:00	2024-11-08T05:00:00	2	Temperatura media	17.6
37402	7	Sololá	717	San Juan la Laguna	12	San Juan la Laguna	2	Febrero	2023-02-18T00:00:00	2024-11-08T05:00:00	4	Temperatura máxima	17.8
37403	7	Sololá	717	San Juan la Laguna	12	San Juan la Laguna	2	Febrero	2023-02-18T00:00:00	2024-11-08T05:00:00	3	Temperatura mínima	17.5
37404	7	Sololá	717	San Juan la Laguna	12	San Juan la Laguna	2	Febrero	2023-02-18T00:00:00	2024-11-08T05:00:00	5	Humedad	58
37405	7	Sololá	717	San Juan la Laguna	12	San Juan la Laguna	2	Febrero	2023-02-18T00:00:00	2024-11-08T05:00:00	6	Velocidad del viento	14.5
37406	7	Sololá	717	San Juan la Laguna	12	San Juan la Laguna	2	Febrero	2023-02-18T00:00:00	2024-11-08T05:00:00	7	Dirección del viento	14.48
37407	7	Sololá	717	San Juan la Laguna	12	San Juan la Laguna	2	Febrero	2023-02-18T00:00:00	2024-11-08T05:00:00	1	Precipitación	0
37408	7	Sololá	717	San Juan la Laguna	12	San Juan la Laguna	2	Febrero	2023-02-18T00:00:00	2024-11-08T05:00:00	8	Radiación solar	0
37409	7	Sololá	717	San Juan la Laguna	12	San Juan la Laguna	2	Febrero	2023-02-18T00:00:00	2024-11-08T06:00:00	2	Temperatura media	17.2
37410	7	Sololá	717	San Juan la Laguna	12	San Juan la Laguna	2	Febrero	2023-02-18T00:00:00	2024-11-08T06:00:00	4	Temperatura máxima	17.6
37411	7	Sololá	717	San Juan la Laguna	12	San Juan la Laguna	2	Febrero	2023-02-18T00:00:00	2024-11-08T06:00:00	3	Temperatura mínima	17.2
37412	7	Sololá	717	San Juan la Laguna	12	San Juan la Laguna	2	Febrero	2023-02-18T00:00:00	2024-11-08T06:00:00	5	Humedad	59
37413	7	Sololá	717	San Juan la Laguna	12	San Juan la Laguna	2	Febrero	2023-02-18T00:00:00	2024-11-08T06:00:00	6	Velocidad del viento	12.9
37414	7	Sololá	717	San Juan la Laguna	12	San Juan la Laguna	2	Febrero	2023-02-18T00:00:00	2024-11-08T06:00:00	7	Dirección del viento	12.87
37415	7	Sololá	717	San Juan la Laguna	12	San Juan la Laguna	2	Febrero	2023-02-18T00:00:00	2024-11-08T06:00:00	1	Precipitación	0
37416	7	Sololá	717	San Juan la Laguna	12	San Juan la Laguna	2	Febrero	2023-02-18T00:00:00	2024-11-08T06:00:00	8	Radiación solar	0
37417	7	Sololá	717	San Juan la Laguna	12	San Juan la Laguna	2	Febrero	2023-02-18T00:00:00	2024-11-08T07:00:00	2	Temperatura media	17.3
37418	7	Sololá	717	San Juan la Laguna	12	San Juan la Laguna	2	Febrero	2023-02-18T00:00:00	2024-11-08T07:00:00	4	Temperatura máxima	17.3
37419	7	Sololá	717	San Juan la Laguna	12	San Juan la Laguna	2	Febrero	2023-02-18T00:00:00	2024-11-08T07:00:00	3	Temperatura mínima	16.9
37420	7	Sololá	717	San Juan la Laguna	12	San Juan la Laguna	2	Febrero	2023-02-18T00:00:00	2024-11-08T07:00:00	5	Humedad	56
37421	7	Sololá	717	San Juan la Laguna	12	San Juan la Laguna	2	Febrero	2023-02-18T00:00:00	2024-11-08T07:00:00	6	Velocidad del viento	11.3
37422	7	Sololá	717	San Juan la Laguna	12	San Juan la Laguna	2	Febrero	2023-02-18T00:00:00	2024-11-08T07:00:00	7	Dirección del viento	11.27
37423	7	Sololá	717	San Juan la Laguna	12	San Juan la Laguna	2	Febrero	2023-02-18T00:00:00	2024-11-08T07:00:00	1	Precipitación	0
37424	7	Sololá	717	San Juan la Laguna	12	San Juan la Laguna	2	Febrero	2023-02-18T00:00:00	2024-11-08T07:00:00	8	Radiación solar	9
37425	7	Sololá	717	San Juan la Laguna	12	San Juan la Laguna	2	Febrero	2023-02-18T00:00:00	2024-11-08T08:00:00	2	Temperatura media	18.4
37426	7	Sololá	717	San Juan la Laguna	12	San Juan la Laguna	2	Febrero	2023-02-18T00:00:00	2024-11-08T08:00:00	4	Temperatura máxima	18.4
37427	7	Sololá	717	San Juan la Laguna	12	San Juan la Laguna	2	Febrero	2023-02-18T00:00:00	2024-11-08T08:00:00	3	Temperatura mínima	17.3
37428	7	Sololá	717	San Juan la Laguna	12	San Juan la Laguna	2	Febrero	2023-02-18T00:00:00	2024-11-08T08:00:00	5	Humedad	53
37429	7	Sololá	717	San Juan la Laguna	12	San Juan la Laguna	2	Febrero	2023-02-18T00:00:00	2024-11-08T08:00:00	6	Velocidad del viento	11.3
37430	7	Sololá	717	San Juan la Laguna	12	San Juan la Laguna	2	Febrero	2023-02-18T00:00:00	2024-11-08T08:00:00	7	Dirección del viento	11.27
37431	7	Sololá	717	San Juan la Laguna	12	San Juan la Laguna	2	Febrero	2023-02-18T00:00:00	2024-11-08T08:00:00	1	Precipitación	0
37432	7	Sololá	717	San Juan la Laguna	12	San Juan la Laguna	2	Febrero	2023-02-18T00:00:00	2024-11-08T08:00:00	8	Radiación solar	164
37433	7	Sololá	717	San Juan la Laguna	12	San Juan la Laguna	2	Febrero	2023-02-18T00:00:00	2024-11-08T09:00:00	2	Temperatura media	19.9
37434	7	Sololá	717	San Juan la Laguna	12	San Juan la Laguna	2	Febrero	2023-02-18T00:00:00	2024-11-08T09:00:00	4	Temperatura máxima	19.9
37435	7	Sololá	717	San Juan la Laguna	12	San Juan la Laguna	2	Febrero	2023-02-18T00:00:00	2024-11-08T09:00:00	3	Temperatura mínima	18.4
37436	7	Sololá	717	San Juan la Laguna	12	San Juan la Laguna	2	Febrero	2023-02-18T00:00:00	2024-11-08T09:00:00	5	Humedad	51
37437	7	Sololá	717	San Juan la Laguna	12	San Juan la Laguna	2	Febrero	2023-02-18T00:00:00	2024-11-08T09:00:00	6	Velocidad del viento	17.7
37438	7	Sololá	717	San Juan la Laguna	12	San Juan la Laguna	2	Febrero	2023-02-18T00:00:00	2024-11-08T09:00:00	7	Dirección del viento	17.7
37439	7	Sololá	717	San Juan la Laguna	12	San Juan la Laguna	2	Febrero	2023-02-18T00:00:00	2024-11-08T09:00:00	1	Precipitación	0
37440	7	Sololá	717	San Juan la Laguna	12	San Juan la Laguna	2	Febrero	2023-02-18T00:00:00	2024-11-08T09:00:00	8	Radiación solar	398
37441	7	Sololá	717	San Juan la Laguna	12	San Juan la Laguna	2	Febrero	2023-02-18T00:00:00	2024-11-08T10:00:00	2	Temperatura media	20.6
37442	7	Sololá	717	San Juan la Laguna	12	San Juan la Laguna	2	Febrero	2023-02-18T00:00:00	2024-11-08T10:00:00	4	Temperatura máxima	20.8
37443	7	Sololá	717	San Juan la Laguna	12	San Juan la Laguna	2	Febrero	2023-02-18T00:00:00	2024-11-08T10:00:00	3	Temperatura mínima	19.9
37444	7	Sololá	717	San Juan la Laguna	12	San Juan la Laguna	2	Febrero	2023-02-18T00:00:00	2024-11-08T10:00:00	5	Humedad	55
37445	7	Sololá	717	San Juan la Laguna	12	San Juan la Laguna	2	Febrero	2023-02-18T00:00:00	2024-11-08T10:00:00	6	Velocidad del viento	19.3
37446	7	Sololá	717	San Juan la Laguna	12	San Juan la Laguna	2	Febrero	2023-02-18T00:00:00	2024-11-08T10:00:00	7	Dirección del viento	19.31
37447	7	Sololá	717	San Juan la Laguna	12	San Juan la Laguna	2	Febrero	2023-02-18T00:00:00	2024-11-08T10:00:00	1	Precipitación	0
37448	7	Sololá	717	San Juan la Laguna	12	San Juan la Laguna	2	Febrero	2023-02-18T00:00:00	2024-11-08T10:00:00	8	Radiación solar	610
37449	7	Sololá	717	San Juan la Laguna	12	San Juan la Laguna	2	Febrero	2023-02-18T00:00:00	2024-11-08T11:00:00	2	Temperatura media	21.1
37450	7	Sololá	717	San Juan la Laguna	12	San Juan la Laguna	2	Febrero	2023-02-18T00:00:00	2024-11-08T11:00:00	4	Temperatura máxima	21.1
37451	7	Sololá	717	San Juan la Laguna	12	San Juan la Laguna	2	Febrero	2023-02-18T00:00:00	2024-11-08T11:00:00	3	Temperatura mínima	20.4
37452	7	Sololá	717	San Juan la Laguna	12	San Juan la Laguna	2	Febrero	2023-02-18T00:00:00	2024-11-08T11:00:00	5	Humedad	53
37453	7	Sololá	717	San Juan la Laguna	12	San Juan la Laguna	2	Febrero	2023-02-18T00:00:00	2024-11-08T11:00:00	6	Velocidad del viento	20.9
37454	7	Sololá	717	San Juan la Laguna	12	San Juan la Laguna	2	Febrero	2023-02-18T00:00:00	2024-11-08T11:00:00	7	Dirección del viento	20.92
37455	7	Sololá	717	San Juan la Laguna	12	San Juan la Laguna	2	Febrero	2023-02-18T00:00:00	2024-11-08T11:00:00	1	Precipitación	0
37456	7	Sololá	717	San Juan la Laguna	12	San Juan la Laguna	2	Febrero	2023-02-18T00:00:00	2024-11-08T11:00:00	8	Radiación solar	767
37457	7	Sololá	717	San Juan la Laguna	12	San Juan la Laguna	2	Febrero	2023-02-18T00:00:00	2024-11-08T12:00:00	2	Temperatura media	21.7
37458	7	Sololá	717	San Juan la Laguna	12	San Juan la Laguna	2	Febrero	2023-02-18T00:00:00	2024-11-08T12:00:00	4	Temperatura máxima	21.8
37459	7	Sololá	717	San Juan la Laguna	12	San Juan la Laguna	2	Febrero	2023-02-18T00:00:00	2024-11-08T12:00:00	3	Temperatura mínima	21.1
37460	7	Sololá	717	San Juan la Laguna	12	San Juan la Laguna	2	Febrero	2023-02-18T00:00:00	2024-11-08T12:00:00	5	Humedad	54
37461	7	Sololá	717	San Juan la Laguna	12	San Juan la Laguna	2	Febrero	2023-02-18T00:00:00	2024-11-08T12:00:00	6	Velocidad del viento	19.3
37462	7	Sololá	717	San Juan la Laguna	12	San Juan la Laguna	2	Febrero	2023-02-18T00:00:00	2024-11-08T12:00:00	7	Dirección del viento	19.31
37463	7	Sololá	717	San Juan la Laguna	12	San Juan la Laguna	2	Febrero	2023-02-18T00:00:00	2024-11-08T12:00:00	1	Precipitación	0
37464	7	Sololá	717	San Juan la Laguna	12	San Juan la Laguna	2	Febrero	2023-02-18T00:00:00	2024-11-08T12:00:00	8	Radiación solar	765
37465	7	Sololá	717	San Juan la Laguna	12	San Juan la Laguna	2	Febrero	2023-02-18T00:00:00	2024-11-08T13:00:00	2	Temperatura media	22.2
37466	7	Sololá	717	San Juan la Laguna	12	San Juan la Laguna	2	Febrero	2023-02-18T00:00:00	2024-11-08T13:00:00	4	Temperatura máxima	22.2
37467	7	Sololá	717	San Juan la Laguna	12	San Juan la Laguna	2	Febrero	2023-02-18T00:00:00	2024-11-08T13:00:00	3	Temperatura mínima	21.7
37468	7	Sololá	717	San Juan la Laguna	12	San Juan la Laguna	2	Febrero	2023-02-18T00:00:00	2024-11-08T13:00:00	5	Humedad	54
37469	7	Sololá	717	San Juan la Laguna	12	San Juan la Laguna	2	Febrero	2023-02-18T00:00:00	2024-11-08T13:00:00	6	Velocidad del viento	16.1
37470	7	Sololá	717	San Juan la Laguna	12	San Juan la Laguna	2	Febrero	2023-02-18T00:00:00	2024-11-08T13:00:00	7	Dirección del viento	16.09
37471	7	Sololá	717	San Juan la Laguna	12	San Juan la Laguna	2	Febrero	2023-02-18T00:00:00	2024-11-08T13:00:00	1	Precipitación	0
37472	7	Sololá	717	San Juan la Laguna	12	San Juan la Laguna	2	Febrero	2023-02-18T00:00:00	2024-11-08T13:00:00	8	Radiación solar	891
37473	7	Sololá	717	San Juan la Laguna	12	San Juan la Laguna	2	Febrero	2023-02-18T00:00:00	2024-11-08T14:00:00	2	Temperatura media	21.9
37474	7	Sololá	717	San Juan la Laguna	12	San Juan la Laguna	2	Febrero	2023-02-18T00:00:00	2024-11-08T14:00:00	4	Temperatura máxima	22.3
37475	7	Sololá	717	San Juan la Laguna	12	San Juan la Laguna	2	Febrero	2023-02-18T00:00:00	2024-11-08T14:00:00	3	Temperatura mínima	21.7
37476	7	Sololá	717	San Juan la Laguna	12	San Juan la Laguna	2	Febrero	2023-02-18T00:00:00	2024-11-08T14:00:00	5	Humedad	54
37477	7	Sololá	717	San Juan la Laguna	12	San Juan la Laguna	2	Febrero	2023-02-18T00:00:00	2024-11-08T14:00:00	6	Velocidad del viento	14.5
37478	7	Sololá	717	San Juan la Laguna	12	San Juan la Laguna	2	Febrero	2023-02-18T00:00:00	2024-11-08T14:00:00	7	Dirección del viento	14.48
37479	7	Sololá	717	San Juan la Laguna	12	San Juan la Laguna	2	Febrero	2023-02-18T00:00:00	2024-11-08T14:00:00	1	Precipitación	0
37480	7	Sololá	717	San Juan la Laguna	12	San Juan la Laguna	2	Febrero	2023-02-18T00:00:00	2024-11-08T14:00:00	8	Radiación solar	847
37481	7	Sololá	717	San Juan la Laguna	12	San Juan la Laguna	2	Febrero	2023-02-18T00:00:00	2024-11-08T15:00:00	2	Temperatura media	21.4
37482	7	Sololá	717	San Juan la Laguna	12	San Juan la Laguna	2	Febrero	2023-02-18T00:00:00	2024-11-08T15:00:00	4	Temperatura máxima	21.9
37483	7	Sololá	717	San Juan la Laguna	12	San Juan la Laguna	2	Febrero	2023-02-18T00:00:00	2024-11-08T15:00:00	3	Temperatura mínima	21.2
37484	7	Sololá	717	San Juan la Laguna	12	San Juan la Laguna	2	Febrero	2023-02-18T00:00:00	2024-11-08T15:00:00	5	Humedad	56
37485	7	Sololá	717	San Juan la Laguna	12	San Juan la Laguna	2	Febrero	2023-02-18T00:00:00	2024-11-08T15:00:00	6	Velocidad del viento	14.5
37486	7	Sololá	717	San Juan la Laguna	12	San Juan la Laguna	2	Febrero	2023-02-18T00:00:00	2024-11-08T15:00:00	7	Dirección del viento	14.48
37487	7	Sololá	717	San Juan la Laguna	12	San Juan la Laguna	2	Febrero	2023-02-18T00:00:00	2024-11-08T15:00:00	1	Precipitación	0
37488	7	Sololá	717	San Juan la Laguna	12	San Juan la Laguna	2	Febrero	2023-02-18T00:00:00	2024-11-08T15:00:00	8	Radiación solar	732
37489	7	Sololá	717	San Juan la Laguna	12	San Juan la Laguna	2	Febrero	2023-02-18T00:00:00	2024-11-08T16:00:00	2	Temperatura media	21.1
37490	7	Sololá	717	San Juan la Laguna	12	San Juan la Laguna	2	Febrero	2023-02-18T00:00:00	2024-11-08T16:00:00	4	Temperatura máxima	21.6
37491	7	Sololá	717	San Juan la Laguna	12	San Juan la Laguna	2	Febrero	2023-02-18T00:00:00	2024-11-08T16:00:00	3	Temperatura mínima	20.9
37492	7	Sololá	717	San Juan la Laguna	12	San Juan la Laguna	2	Febrero	2023-02-18T00:00:00	2024-11-08T16:00:00	5	Humedad	56
37493	7	Sololá	717	San Juan la Laguna	12	San Juan la Laguna	2	Febrero	2023-02-18T00:00:00	2024-11-08T16:00:00	6	Velocidad del viento	12.9
37494	7	Sololá	717	San Juan la Laguna	12	San Juan la Laguna	2	Febrero	2023-02-18T00:00:00	2024-11-08T16:00:00	7	Dirección del viento	12.87
37495	7	Sololá	717	San Juan la Laguna	12	San Juan la Laguna	2	Febrero	2023-02-18T00:00:00	2024-11-08T16:00:00	1	Precipitación	0
37496	7	Sololá	717	San Juan la Laguna	12	San Juan la Laguna	2	Febrero	2023-02-18T00:00:00	2024-11-08T16:00:00	8	Radiación solar	564
37497	7	Sololá	717	San Juan la Laguna	12	San Juan la Laguna	2	Febrero	2023-02-18T00:00:00	2024-11-08T17:00:00	2	Temperatura media	19.9
37498	7	Sololá	717	San Juan la Laguna	12	San Juan la Laguna	2	Febrero	2023-02-18T00:00:00	2024-11-08T17:00:00	4	Temperatura máxima	21.2
37499	7	Sololá	717	San Juan la Laguna	12	San Juan la Laguna	2	Febrero	2023-02-18T00:00:00	2024-11-08T17:00:00	3	Temperatura mínima	19.9
37500	7	Sololá	717	San Juan la Laguna	12	San Juan la Laguna	2	Febrero	2023-02-18T00:00:00	2024-11-08T17:00:00	5	Humedad	57
37501	7	Sololá	717	San Juan la Laguna	12	San Juan la Laguna	2	Febrero	2023-02-18T00:00:00	2024-11-08T17:00:00	6	Velocidad del viento	8
37502	7	Sololá	717	San Juan la Laguna	12	San Juan la Laguna	2	Febrero	2023-02-18T00:00:00	2024-11-08T17:00:00	7	Dirección del viento	8.05
37503	7	Sololá	717	San Juan la Laguna	12	San Juan la Laguna	2	Febrero	2023-02-18T00:00:00	2024-11-08T17:00:00	1	Precipitación	0
37504	7	Sololá	717	San Juan la Laguna	12	San Juan la Laguna	2	Febrero	2023-02-18T00:00:00	2024-11-08T17:00:00	8	Radiación solar	354
37505	7	Sololá	717	San Juan la Laguna	12	San Juan la Laguna	2	Febrero	2023-02-18T00:00:00	2024-11-08T18:00:00	2	Temperatura media	18.8
37506	7	Sololá	717	San Juan la Laguna	12	San Juan la Laguna	2	Febrero	2023-02-18T00:00:00	2024-11-08T18:00:00	4	Temperatura máxima	19.9
37507	7	Sololá	717	San Juan la Laguna	12	San Juan la Laguna	2	Febrero	2023-02-18T00:00:00	2024-11-08T18:00:00	3	Temperatura mínima	18.8
37508	7	Sololá	717	San Juan la Laguna	12	San Juan la Laguna	2	Febrero	2023-02-18T00:00:00	2024-11-08T18:00:00	5	Humedad	60
37509	7	Sololá	717	San Juan la Laguna	12	San Juan la Laguna	2	Febrero	2023-02-18T00:00:00	2024-11-08T18:00:00	6	Velocidad del viento	9.7
37510	7	Sololá	717	San Juan la Laguna	12	San Juan la Laguna	2	Febrero	2023-02-18T00:00:00	2024-11-08T18:00:00	7	Dirección del viento	9.66
37511	7	Sololá	717	San Juan la Laguna	12	San Juan la Laguna	2	Febrero	2023-02-18T00:00:00	2024-11-08T18:00:00	1	Precipitación	0
37512	7	Sololá	717	San Juan la Laguna	12	San Juan la Laguna	2	Febrero	2023-02-18T00:00:00	2024-11-08T18:00:00	8	Radiación solar	45
37513	7	Sololá	717	San Juan la Laguna	12	San Juan la Laguna	2	Febrero	2023-02-18T00:00:00	2024-11-08T19:00:00	2	Temperatura media	18.1
37514	7	Sololá	717	San Juan la Laguna	12	San Juan la Laguna	2	Febrero	2023-02-18T00:00:00	2024-11-08T19:00:00	4	Temperatura máxima	18.8
37515	7	Sololá	717	San Juan la Laguna	12	San Juan la Laguna	2	Febrero	2023-02-18T00:00:00	2024-11-08T19:00:00	3	Temperatura mínima	18.1
37516	7	Sololá	717	San Juan la Laguna	12	San Juan la Laguna	2	Febrero	2023-02-18T00:00:00	2024-11-08T19:00:00	5	Humedad	58
37517	7	Sololá	717	San Juan la Laguna	12	San Juan la Laguna	2	Febrero	2023-02-18T00:00:00	2024-11-08T19:00:00	6	Velocidad del viento	8
37518	7	Sololá	717	San Juan la Laguna	12	San Juan la Laguna	2	Febrero	2023-02-18T00:00:00	2024-11-08T19:00:00	7	Dirección del viento	8.05
37519	7	Sololá	717	San Juan la Laguna	12	San Juan la Laguna	2	Febrero	2023-02-18T00:00:00	2024-11-08T19:00:00	1	Precipitación	0
37520	7	Sololá	717	San Juan la Laguna	12	San Juan la Laguna	2	Febrero	2023-02-18T00:00:00	2024-11-08T19:00:00	8	Radiación solar	0
37521	7	Sololá	717	San Juan la Laguna	12	San Juan la Laguna	2	Febrero	2023-02-18T00:00:00	2024-11-08T20:00:00	2	Temperatura media	17.6
37522	7	Sololá	717	San Juan la Laguna	12	San Juan la Laguna	2	Febrero	2023-02-18T00:00:00	2024-11-08T20:00:00	4	Temperatura máxima	18.1
37523	7	Sololá	717	San Juan la Laguna	12	San Juan la Laguna	2	Febrero	2023-02-18T00:00:00	2024-11-08T20:00:00	3	Temperatura mínima	17.6
37524	7	Sololá	717	San Juan la Laguna	12	San Juan la Laguna	2	Febrero	2023-02-18T00:00:00	2024-11-08T20:00:00	5	Humedad	61
37525	7	Sololá	717	San Juan la Laguna	12	San Juan la Laguna	2	Febrero	2023-02-18T00:00:00	2024-11-08T20:00:00	6	Velocidad del viento	9.7
37526	7	Sololá	717	San Juan la Laguna	12	San Juan la Laguna	2	Febrero	2023-02-18T00:00:00	2024-11-08T20:00:00	7	Dirección del viento	9.66
37527	7	Sololá	717	San Juan la Laguna	12	San Juan la Laguna	2	Febrero	2023-02-18T00:00:00	2024-11-08T20:00:00	1	Precipitación	0
37528	7	Sololá	717	San Juan la Laguna	12	San Juan la Laguna	2	Febrero	2023-02-18T00:00:00	2024-11-08T20:00:00	8	Radiación solar	0
37529	7	Sololá	717	San Juan la Laguna	12	San Juan la Laguna	2	Febrero	2023-02-18T00:00:00	2024-11-08T21:00:00	2	Temperatura media	17.7
37530	7	Sololá	717	San Juan la Laguna	12	San Juan la Laguna	2	Febrero	2023-02-18T00:00:00	2024-11-08T21:00:00	4	Temperatura máxima	17.9
37531	7	Sololá	717	San Juan la Laguna	12	San Juan la Laguna	2	Febrero	2023-02-18T00:00:00	2024-11-08T21:00:00	3	Temperatura mínima	17.6
37532	7	Sololá	717	San Juan la Laguna	12	San Juan la Laguna	2	Febrero	2023-02-18T00:00:00	2024-11-08T21:00:00	5	Humedad	63
37533	7	Sololá	717	San Juan la Laguna	12	San Juan la Laguna	2	Febrero	2023-02-18T00:00:00	2024-11-08T21:00:00	6	Velocidad del viento	8
37534	7	Sololá	717	San Juan la Laguna	12	San Juan la Laguna	2	Febrero	2023-02-18T00:00:00	2024-11-08T21:00:00	7	Dirección del viento	8.05
37535	7	Sololá	717	San Juan la Laguna	12	San Juan la Laguna	2	Febrero	2023-02-18T00:00:00	2024-11-08T21:00:00	1	Precipitación	0
37536	7	Sololá	717	San Juan la Laguna	12	San Juan la Laguna	2	Febrero	2023-02-18T00:00:00	2024-11-08T21:00:00	8	Radiación solar	0
37537	7	Sololá	717	San Juan la Laguna	12	San Juan la Laguna	2	Febrero	2023-02-18T00:00:00	2024-11-08T22:00:00	2	Temperatura media	17.2
37538	7	Sololá	717	San Juan la Laguna	12	San Juan la Laguna	2	Febrero	2023-02-18T00:00:00	2024-11-08T22:00:00	4	Temperatura máxima	17.7
37539	7	Sololá	717	San Juan la Laguna	12	San Juan la Laguna	2	Febrero	2023-02-18T00:00:00	2024-11-08T22:00:00	3	Temperatura mínima	17.2
37540	7	Sololá	717	San Juan la Laguna	12	San Juan la Laguna	2	Febrero	2023-02-18T00:00:00	2024-11-08T22:00:00	5	Humedad	68
37541	7	Sololá	717	San Juan la Laguna	12	San Juan la Laguna	2	Febrero	2023-02-18T00:00:00	2024-11-08T22:00:00	6	Velocidad del viento	8
37542	7	Sololá	717	San Juan la Laguna	12	San Juan la Laguna	2	Febrero	2023-02-18T00:00:00	2024-11-08T22:00:00	7	Dirección del viento	8.05
37543	7	Sololá	717	San Juan la Laguna	12	San Juan la Laguna	2	Febrero	2023-02-18T00:00:00	2024-11-08T22:00:00	1	Precipitación	0
37544	7	Sololá	717	San Juan la Laguna	12	San Juan la Laguna	2	Febrero	2023-02-18T00:00:00	2024-11-08T22:00:00	8	Radiación solar	0
37545	7	Sololá	717	San Juan la Laguna	12	San Juan la Laguna	2	Febrero	2023-02-18T00:00:00	2024-11-08T23:00:00	2	Temperatura media	17.6
37546	7	Sololá	717	San Juan la Laguna	12	San Juan la Laguna	2	Febrero	2023-02-18T00:00:00	2024-11-08T23:00:00	4	Temperatura máxima	17.6
37547	7	Sololá	717	San Juan la Laguna	12	San Juan la Laguna	2	Febrero	2023-02-18T00:00:00	2024-11-08T23:00:00	3	Temperatura mínima	16.9
37548	7	Sololá	717	San Juan la Laguna	12	San Juan la Laguna	2	Febrero	2023-02-18T00:00:00	2024-11-08T23:00:00	5	Humedad	67
37549	7	Sololá	717	San Juan la Laguna	12	San Juan la Laguna	2	Febrero	2023-02-18T00:00:00	2024-11-08T23:00:00	6	Velocidad del viento	12.9
37550	7	Sololá	717	San Juan la Laguna	12	San Juan la Laguna	2	Febrero	2023-02-18T00:00:00	2024-11-08T23:00:00	7	Dirección del viento	12.87
37551	7	Sololá	717	San Juan la Laguna	12	San Juan la Laguna	2	Febrero	2023-02-18T00:00:00	2024-11-08T23:00:00	1	Precipitación	0
37552	7	Sololá	717	San Juan la Laguna	12	San Juan la Laguna	2	Febrero	2023-02-18T00:00:00	2024-11-08T23:00:00	8	Radiación solar	0
37553	7	Sololá	717	San Juan la Laguna	12	San Juan la Laguna	2	Febrero	2023-02-19T00:00:00	2024-11-08T00:00:00	2	Temperatura media	17.3
37554	7	Sololá	717	San Juan la Laguna	12	San Juan la Laguna	2	Febrero	2023-02-19T00:00:00	2024-11-08T00:00:00	4	Temperatura máxima	17.8
37555	7	Sololá	717	San Juan la Laguna	12	San Juan la Laguna	2	Febrero	2023-02-19T00:00:00	2024-11-08T00:00:00	3	Temperatura mínima	16.8
37556	7	Sololá	717	San Juan la Laguna	12	San Juan la Laguna	2	Febrero	2023-02-19T00:00:00	2024-11-08T00:00:00	5	Humedad	69
37557	7	Sololá	717	San Juan la Laguna	12	San Juan la Laguna	2	Febrero	2023-02-19T00:00:00	2024-11-08T00:00:00	6	Velocidad del viento	12.9
37558	7	Sololá	717	San Juan la Laguna	12	San Juan la Laguna	2	Febrero	2023-02-19T00:00:00	2024-11-08T00:00:00	7	Dirección del viento	12.87
37559	7	Sololá	717	San Juan la Laguna	12	San Juan la Laguna	2	Febrero	2023-02-19T00:00:00	2024-11-08T00:00:00	1	Precipitación	0
37560	7	Sololá	717	San Juan la Laguna	12	San Juan la Laguna	2	Febrero	2023-02-19T00:00:00	2024-11-08T00:00:00	8	Radiación solar	0
37561	7	Sololá	717	San Juan la Laguna	12	San Juan la Laguna	2	Febrero	2023-02-19T00:00:00	2024-11-08T01:00:00	2	Temperatura media	17.3
37562	7	Sololá	717	San Juan la Laguna	12	San Juan la Laguna	2	Febrero	2023-02-19T00:00:00	2024-11-08T01:00:00	4	Temperatura máxima	17.7
37563	7	Sololá	717	San Juan la Laguna	12	San Juan la Laguna	2	Febrero	2023-02-19T00:00:00	2024-11-08T01:00:00	3	Temperatura mínima	17.2
37564	7	Sololá	717	San Juan la Laguna	12	San Juan la Laguna	2	Febrero	2023-02-19T00:00:00	2024-11-08T01:00:00	5	Humedad	69
37565	7	Sololá	717	San Juan la Laguna	12	San Juan la Laguna	2	Febrero	2023-02-19T00:00:00	2024-11-08T01:00:00	6	Velocidad del viento	11.3
37566	7	Sololá	717	San Juan la Laguna	12	San Juan la Laguna	2	Febrero	2023-02-19T00:00:00	2024-11-08T01:00:00	7	Dirección del viento	11.27
37567	7	Sololá	717	San Juan la Laguna	12	San Juan la Laguna	2	Febrero	2023-02-19T00:00:00	2024-11-08T01:00:00	1	Precipitación	0
37568	7	Sololá	717	San Juan la Laguna	12	San Juan la Laguna	2	Febrero	2023-02-19T00:00:00	2024-11-08T01:00:00	8	Radiación solar	0
37569	7	Sololá	717	San Juan la Laguna	12	San Juan la Laguna	2	Febrero	2023-02-19T00:00:00	2024-11-08T02:00:00	2	Temperatura media	18
37570	7	Sololá	717	San Juan la Laguna	12	San Juan la Laguna	2	Febrero	2023-02-19T00:00:00	2024-11-08T02:00:00	4	Temperatura máxima	18
37571	7	Sololá	717	San Juan la Laguna	12	San Juan la Laguna	2	Febrero	2023-02-19T00:00:00	2024-11-08T02:00:00	3	Temperatura mínima	16.7
37572	7	Sololá	717	San Juan la Laguna	12	San Juan la Laguna	2	Febrero	2023-02-19T00:00:00	2024-11-08T02:00:00	5	Humedad	63
37573	7	Sololá	717	San Juan la Laguna	12	San Juan la Laguna	2	Febrero	2023-02-19T00:00:00	2024-11-08T02:00:00	6	Velocidad del viento	8
37574	7	Sololá	717	San Juan la Laguna	12	San Juan la Laguna	2	Febrero	2023-02-19T00:00:00	2024-11-08T02:00:00	7	Dirección del viento	8.05
37575	7	Sololá	717	San Juan la Laguna	12	San Juan la Laguna	2	Febrero	2023-02-19T00:00:00	2024-11-08T02:00:00	1	Precipitación	0
37576	7	Sololá	717	San Juan la Laguna	12	San Juan la Laguna	2	Febrero	2023-02-19T00:00:00	2024-11-08T02:00:00	8	Radiación solar	0
37577	7	Sololá	717	San Juan la Laguna	12	San Juan la Laguna	2	Febrero	2023-02-19T00:00:00	2024-11-08T03:00:00	2	Temperatura media	17.9
37578	7	Sololá	717	San Juan la Laguna	12	San Juan la Laguna	2	Febrero	2023-02-19T00:00:00	2024-11-08T03:00:00	4	Temperatura máxima	18.6
37579	7	Sololá	717	San Juan la Laguna	12	San Juan la Laguna	2	Febrero	2023-02-19T00:00:00	2024-11-08T03:00:00	3	Temperatura mínima	17.8
37580	7	Sololá	717	San Juan la Laguna	12	San Juan la Laguna	2	Febrero	2023-02-19T00:00:00	2024-11-08T03:00:00	5	Humedad	64
37581	7	Sololá	717	San Juan la Laguna	12	San Juan la Laguna	2	Febrero	2023-02-19T00:00:00	2024-11-08T03:00:00	6	Velocidad del viento	9.7
37582	7	Sololá	717	San Juan la Laguna	12	San Juan la Laguna	2	Febrero	2023-02-19T00:00:00	2024-11-08T03:00:00	7	Dirección del viento	9.66
37583	7	Sololá	717	San Juan la Laguna	12	San Juan la Laguna	2	Febrero	2023-02-19T00:00:00	2024-11-08T03:00:00	1	Precipitación	0
37584	7	Sololá	717	San Juan la Laguna	12	San Juan la Laguna	2	Febrero	2023-02-19T00:00:00	2024-11-08T03:00:00	8	Radiación solar	0
37585	7	Sololá	717	San Juan la Laguna	12	San Juan la Laguna	2	Febrero	2023-02-19T00:00:00	2024-11-08T04:00:00	2	Temperatura media	17.7
37586	7	Sololá	717	San Juan la Laguna	12	San Juan la Laguna	2	Febrero	2023-02-19T00:00:00	2024-11-08T04:00:00	4	Temperatura máxima	18.7
37587	7	Sololá	717	San Juan la Laguna	12	San Juan la Laguna	2	Febrero	2023-02-19T00:00:00	2024-11-08T04:00:00	3	Temperatura mínima	17.7
37588	7	Sololá	717	San Juan la Laguna	12	San Juan la Laguna	2	Febrero	2023-02-19T00:00:00	2024-11-08T04:00:00	5	Humedad	64
37589	7	Sololá	717	San Juan la Laguna	12	San Juan la Laguna	2	Febrero	2023-02-19T00:00:00	2024-11-08T04:00:00	6	Velocidad del viento	8
37590	7	Sololá	717	San Juan la Laguna	12	San Juan la Laguna	2	Febrero	2023-02-19T00:00:00	2024-11-08T04:00:00	7	Dirección del viento	8.05
37591	7	Sololá	717	San Juan la Laguna	12	San Juan la Laguna	2	Febrero	2023-02-19T00:00:00	2024-11-08T04:00:00	1	Precipitación	0
37592	7	Sololá	717	San Juan la Laguna	12	San Juan la Laguna	2	Febrero	2023-02-19T00:00:00	2024-11-08T04:00:00	8	Radiación solar	0
37593	7	Sololá	717	San Juan la Laguna	12	San Juan la Laguna	2	Febrero	2023-02-19T00:00:00	2024-11-08T05:00:00	2	Temperatura media	16.7
37594	7	Sololá	717	San Juan la Laguna	12	San Juan la Laguna	2	Febrero	2023-02-19T00:00:00	2024-11-08T05:00:00	4	Temperatura máxima	17.7
37595	7	Sololá	717	San Juan la Laguna	12	San Juan la Laguna	2	Febrero	2023-02-19T00:00:00	2024-11-08T05:00:00	3	Temperatura mínima	16.6
37596	7	Sololá	717	San Juan la Laguna	12	San Juan la Laguna	2	Febrero	2023-02-19T00:00:00	2024-11-08T05:00:00	5	Humedad	70
37597	7	Sololá	717	San Juan la Laguna	12	San Juan la Laguna	2	Febrero	2023-02-19T00:00:00	2024-11-08T05:00:00	6	Velocidad del viento	12.9
37598	7	Sololá	717	San Juan la Laguna	12	San Juan la Laguna	2	Febrero	2023-02-19T00:00:00	2024-11-08T05:00:00	7	Dirección del viento	12.87
37599	7	Sololá	717	San Juan la Laguna	12	San Juan la Laguna	2	Febrero	2023-02-19T00:00:00	2024-11-08T05:00:00	1	Precipitación	0
37600	7	Sololá	717	San Juan la Laguna	12	San Juan la Laguna	2	Febrero	2023-02-19T00:00:00	2024-11-08T05:00:00	8	Radiación solar	0
37601	7	Sololá	717	San Juan la Laguna	12	San Juan la Laguna	2	Febrero	2023-02-19T00:00:00	2024-11-08T06:00:00	2	Temperatura media	17.1
37602	7	Sololá	717	San Juan la Laguna	12	San Juan la Laguna	2	Febrero	2023-02-19T00:00:00	2024-11-08T06:00:00	4	Temperatura máxima	17.3
37603	7	Sololá	717	San Juan la Laguna	12	San Juan la Laguna	2	Febrero	2023-02-19T00:00:00	2024-11-08T06:00:00	3	Temperatura mínima	16.6
37604	7	Sololá	717	San Juan la Laguna	12	San Juan la Laguna	2	Febrero	2023-02-19T00:00:00	2024-11-08T06:00:00	5	Humedad	68
37605	7	Sololá	717	San Juan la Laguna	12	San Juan la Laguna	2	Febrero	2023-02-19T00:00:00	2024-11-08T06:00:00	6	Velocidad del viento	9.7
37606	7	Sololá	717	San Juan la Laguna	12	San Juan la Laguna	2	Febrero	2023-02-19T00:00:00	2024-11-08T06:00:00	7	Dirección del viento	9.66
37607	7	Sololá	717	San Juan la Laguna	12	San Juan la Laguna	2	Febrero	2023-02-19T00:00:00	2024-11-08T06:00:00	1	Precipitación	0
37608	7	Sololá	717	San Juan la Laguna	12	San Juan la Laguna	2	Febrero	2023-02-19T00:00:00	2024-11-08T06:00:00	8	Radiación solar	0
37609	7	Sololá	717	San Juan la Laguna	12	San Juan la Laguna	2	Febrero	2023-02-19T00:00:00	2024-11-08T07:00:00	2	Temperatura media	17.7
37610	7	Sololá	717	San Juan la Laguna	12	San Juan la Laguna	2	Febrero	2023-02-19T00:00:00	2024-11-08T07:00:00	4	Temperatura máxima	17.7
37611	7	Sololá	717	San Juan la Laguna	12	San Juan la Laguna	2	Febrero	2023-02-19T00:00:00	2024-11-08T07:00:00	3	Temperatura mínima	16.6
37612	7	Sololá	717	San Juan la Laguna	12	San Juan la Laguna	2	Febrero	2023-02-19T00:00:00	2024-11-08T07:00:00	5	Humedad	65
37613	7	Sololá	717	San Juan la Laguna	12	San Juan la Laguna	2	Febrero	2023-02-19T00:00:00	2024-11-08T07:00:00	6	Velocidad del viento	9.7
37614	7	Sololá	717	San Juan la Laguna	12	San Juan la Laguna	2	Febrero	2023-02-19T00:00:00	2024-11-08T07:00:00	7	Dirección del viento	9.66
37615	7	Sololá	717	San Juan la Laguna	12	San Juan la Laguna	2	Febrero	2023-02-19T00:00:00	2024-11-08T07:00:00	1	Precipitación	0
37616	7	Sololá	717	San Juan la Laguna	12	San Juan la Laguna	2	Febrero	2023-02-19T00:00:00	2024-11-08T07:00:00	8	Radiación solar	9
37617	7	Sololá	717	San Juan la Laguna	12	San Juan la Laguna	2	Febrero	2023-02-19T00:00:00	2024-11-08T08:00:00	2	Temperatura media	18.4
37618	7	Sololá	717	San Juan la Laguna	12	San Juan la Laguna	2	Febrero	2023-02-19T00:00:00	2024-11-08T08:00:00	4	Temperatura máxima	18.6
37619	7	Sololá	717	San Juan la Laguna	12	San Juan la Laguna	2	Febrero	2023-02-19T00:00:00	2024-11-08T08:00:00	3	Temperatura mínima	17.6
37620	7	Sololá	717	San Juan la Laguna	12	San Juan la Laguna	2	Febrero	2023-02-19T00:00:00	2024-11-08T08:00:00	5	Humedad	62
37621	7	Sololá	717	San Juan la Laguna	12	San Juan la Laguna	2	Febrero	2023-02-19T00:00:00	2024-11-08T08:00:00	6	Velocidad del viento	8
37622	7	Sololá	717	San Juan la Laguna	12	San Juan la Laguna	2	Febrero	2023-02-19T00:00:00	2024-11-08T08:00:00	7	Dirección del viento	8.05
37623	7	Sololá	717	San Juan la Laguna	12	San Juan la Laguna	2	Febrero	2023-02-19T00:00:00	2024-11-08T08:00:00	1	Precipitación	0
37624	7	Sololá	717	San Juan la Laguna	12	San Juan la Laguna	2	Febrero	2023-02-19T00:00:00	2024-11-08T08:00:00	8	Radiación solar	170
37625	7	Sololá	717	San Juan la Laguna	12	San Juan la Laguna	2	Febrero	2023-02-19T00:00:00	2024-11-08T09:00:00	2	Temperatura media	19.9
37626	7	Sololá	717	San Juan la Laguna	12	San Juan la Laguna	2	Febrero	2023-02-19T00:00:00	2024-11-08T09:00:00	4	Temperatura máxima	20.1
37627	7	Sololá	717	San Juan la Laguna	12	San Juan la Laguna	2	Febrero	2023-02-19T00:00:00	2024-11-08T09:00:00	3	Temperatura mínima	18.4
37628	7	Sololá	717	San Juan la Laguna	12	San Juan la Laguna	2	Febrero	2023-02-19T00:00:00	2024-11-08T09:00:00	5	Humedad	57
37629	7	Sololá	717	San Juan la Laguna	12	San Juan la Laguna	2	Febrero	2023-02-19T00:00:00	2024-11-08T09:00:00	6	Velocidad del viento	12.9
37630	7	Sololá	717	San Juan la Laguna	12	San Juan la Laguna	2	Febrero	2023-02-19T00:00:00	2024-11-08T09:00:00	7	Dirección del viento	12.87
37631	7	Sololá	717	San Juan la Laguna	12	San Juan la Laguna	2	Febrero	2023-02-19T00:00:00	2024-11-08T09:00:00	1	Precipitación	0
37632	7	Sololá	717	San Juan la Laguna	12	San Juan la Laguna	2	Febrero	2023-02-19T00:00:00	2024-11-08T09:00:00	8	Radiación solar	410
37633	7	Sololá	717	San Juan la Laguna	12	San Juan la Laguna	2	Febrero	2023-02-19T00:00:00	2024-11-08T10:00:00	2	Temperatura media	20.9
37634	7	Sololá	717	San Juan la Laguna	12	San Juan la Laguna	2	Febrero	2023-02-19T00:00:00	2024-11-08T10:00:00	4	Temperatura máxima	21.3
37635	7	Sololá	717	San Juan la Laguna	12	San Juan la Laguna	2	Febrero	2023-02-19T00:00:00	2024-11-08T10:00:00	3	Temperatura mínima	19.9
37636	7	Sololá	717	San Juan la Laguna	12	San Juan la Laguna	2	Febrero	2023-02-19T00:00:00	2024-11-08T10:00:00	5	Humedad	57
37637	7	Sololá	717	San Juan la Laguna	12	San Juan la Laguna	2	Febrero	2023-02-19T00:00:00	2024-11-08T10:00:00	6	Velocidad del viento	12.9
37638	7	Sololá	717	San Juan la Laguna	12	San Juan la Laguna	2	Febrero	2023-02-19T00:00:00	2024-11-08T10:00:00	7	Dirección del viento	12.87
37639	7	Sololá	717	San Juan la Laguna	12	San Juan la Laguna	2	Febrero	2023-02-19T00:00:00	2024-11-08T10:00:00	1	Precipitación	0
37640	7	Sololá	717	San Juan la Laguna	12	San Juan la Laguna	2	Febrero	2023-02-19T00:00:00	2024-11-08T10:00:00	8	Radiación solar	619
37641	7	Sololá	717	San Juan la Laguna	12	San Juan la Laguna	2	Febrero	2023-02-19T00:00:00	2024-11-08T11:00:00	2	Temperatura media	21.3
37642	7	Sololá	717	San Juan la Laguna	12	San Juan la Laguna	2	Febrero	2023-02-19T00:00:00	2024-11-08T11:00:00	4	Temperatura máxima	22.2
37643	7	Sololá	717	San Juan la Laguna	12	San Juan la Laguna	2	Febrero	2023-02-19T00:00:00	2024-11-08T11:00:00	3	Temperatura mínima	21
37644	7	Sololá	717	San Juan la Laguna	12	San Juan la Laguna	2	Febrero	2023-02-19T00:00:00	2024-11-08T11:00:00	5	Humedad	56
37645	7	Sololá	717	San Juan la Laguna	12	San Juan la Laguna	2	Febrero	2023-02-19T00:00:00	2024-11-08T11:00:00	6	Velocidad del viento	11.3
37646	7	Sololá	717	San Juan la Laguna	12	San Juan la Laguna	2	Febrero	2023-02-19T00:00:00	2024-11-08T11:00:00	7	Dirección del viento	11.27
37647	7	Sololá	717	San Juan la Laguna	12	San Juan la Laguna	2	Febrero	2023-02-19T00:00:00	2024-11-08T11:00:00	1	Precipitación	0
37648	7	Sololá	717	San Juan la Laguna	12	San Juan la Laguna	2	Febrero	2023-02-19T00:00:00	2024-11-08T11:00:00	8	Radiación solar	768
37649	7	Sololá	717	San Juan la Laguna	12	San Juan la Laguna	2	Febrero	2023-02-19T00:00:00	2024-11-08T12:00:00	2	Temperatura media	19.9
37650	7	Sololá	717	San Juan la Laguna	12	San Juan la Laguna	2	Febrero	2023-02-19T00:00:00	2024-11-08T12:00:00	4	Temperatura máxima	21.4
37651	7	Sololá	717	San Juan la Laguna	12	San Juan la Laguna	2	Febrero	2023-02-19T00:00:00	2024-11-08T12:00:00	3	Temperatura mínima	19.9
37652	7	Sololá	717	San Juan la Laguna	12	San Juan la Laguna	2	Febrero	2023-02-19T00:00:00	2024-11-08T12:00:00	5	Humedad	61
37653	7	Sololá	717	San Juan la Laguna	12	San Juan la Laguna	2	Febrero	2023-02-19T00:00:00	2024-11-08T12:00:00	6	Velocidad del viento	17.7
37654	7	Sololá	717	San Juan la Laguna	12	San Juan la Laguna	2	Febrero	2023-02-19T00:00:00	2024-11-08T12:00:00	7	Dirección del viento	17.7
37655	7	Sololá	717	San Juan la Laguna	12	San Juan la Laguna	2	Febrero	2023-02-19T00:00:00	2024-11-08T12:00:00	1	Precipitación	0
37656	7	Sololá	717	San Juan la Laguna	12	San Juan la Laguna	2	Febrero	2023-02-19T00:00:00	2024-11-08T12:00:00	8	Radiación solar	773
37657	7	Sololá	717	San Juan la Laguna	12	San Juan la Laguna	2	Febrero	2023-02-19T00:00:00	2024-11-08T13:00:00	2	Temperatura media	20.9
37658	7	Sololá	717	San Juan la Laguna	12	San Juan la Laguna	2	Febrero	2023-02-19T00:00:00	2024-11-08T13:00:00	4	Temperatura máxima	20.9
37659	7	Sololá	717	San Juan la Laguna	12	San Juan la Laguna	2	Febrero	2023-02-19T00:00:00	2024-11-08T13:00:00	3	Temperatura mínima	19.9
37660	7	Sololá	717	San Juan la Laguna	12	San Juan la Laguna	2	Febrero	2023-02-19T00:00:00	2024-11-08T13:00:00	5	Humedad	57
37661	7	Sololá	717	San Juan la Laguna	12	San Juan la Laguna	2	Febrero	2023-02-19T00:00:00	2024-11-08T13:00:00	6	Velocidad del viento	14.5
37662	7	Sololá	717	San Juan la Laguna	12	San Juan la Laguna	2	Febrero	2023-02-19T00:00:00	2024-11-08T13:00:00	7	Dirección del viento	14.48
37663	7	Sololá	717	San Juan la Laguna	12	San Juan la Laguna	2	Febrero	2023-02-19T00:00:00	2024-11-08T13:00:00	1	Precipitación	0
37664	7	Sololá	717	San Juan la Laguna	12	San Juan la Laguna	2	Febrero	2023-02-19T00:00:00	2024-11-08T13:00:00	8	Radiación solar	901
37665	7	Sololá	717	San Juan la Laguna	12	San Juan la Laguna	2	Febrero	2023-02-19T00:00:00	2024-11-08T14:00:00	2	Temperatura media	22
37666	7	Sololá	717	San Juan la Laguna	12	San Juan la Laguna	2	Febrero	2023-02-19T00:00:00	2024-11-08T14:00:00	4	Temperatura máxima	22.1
37667	7	Sololá	717	San Juan la Laguna	12	San Juan la Laguna	2	Febrero	2023-02-19T00:00:00	2024-11-08T14:00:00	3	Temperatura mínima	20.8
37668	7	Sololá	717	San Juan la Laguna	12	San Juan la Laguna	2	Febrero	2023-02-19T00:00:00	2024-11-08T14:00:00	5	Humedad	53
37669	7	Sololá	717	San Juan la Laguna	12	San Juan la Laguna	2	Febrero	2023-02-19T00:00:00	2024-11-08T14:00:00	6	Velocidad del viento	16.1
37670	7	Sololá	717	San Juan la Laguna	12	San Juan la Laguna	2	Febrero	2023-02-19T00:00:00	2024-11-08T14:00:00	7	Dirección del viento	16.09
37671	7	Sololá	717	San Juan la Laguna	12	San Juan la Laguna	2	Febrero	2023-02-19T00:00:00	2024-11-08T14:00:00	1	Precipitación	0
37672	7	Sololá	717	San Juan la Laguna	12	San Juan la Laguna	2	Febrero	2023-02-19T00:00:00	2024-11-08T14:00:00	8	Radiación solar	843
37673	7	Sololá	717	San Juan la Laguna	12	San Juan la Laguna	2	Febrero	2023-02-19T00:00:00	2024-11-08T15:00:00	2	Temperatura media	22.2
37674	7	Sololá	717	San Juan la Laguna	12	San Juan la Laguna	2	Febrero	2023-02-19T00:00:00	2024-11-08T15:00:00	4	Temperatura máxima	22.9
37675	7	Sololá	717	San Juan la Laguna	12	San Juan la Laguna	2	Febrero	2023-02-19T00:00:00	2024-11-08T15:00:00	3	Temperatura mínima	22.1
37676	7	Sololá	717	San Juan la Laguna	12	San Juan la Laguna	2	Febrero	2023-02-19T00:00:00	2024-11-08T15:00:00	5	Humedad	53
37677	7	Sololá	717	San Juan la Laguna	12	San Juan la Laguna	2	Febrero	2023-02-19T00:00:00	2024-11-08T15:00:00	6	Velocidad del viento	11.3
37678	7	Sololá	717	San Juan la Laguna	12	San Juan la Laguna	2	Febrero	2023-02-19T00:00:00	2024-11-08T15:00:00	7	Dirección del viento	11.27
37679	7	Sololá	717	San Juan la Laguna	12	San Juan la Laguna	2	Febrero	2023-02-19T00:00:00	2024-11-08T15:00:00	1	Precipitación	0
37680	7	Sololá	717	San Juan la Laguna	12	San Juan la Laguna	2	Febrero	2023-02-19T00:00:00	2024-11-08T15:00:00	8	Radiación solar	732
37681	7	Sololá	717	San Juan la Laguna	12	San Juan la Laguna	2	Febrero	2023-02-19T00:00:00	2024-11-08T16:00:00	2	Temperatura media	22.2
37682	7	Sololá	717	San Juan la Laguna	12	San Juan la Laguna	2	Febrero	2023-02-19T00:00:00	2024-11-08T16:00:00	4	Temperatura máxima	22.4
37683	7	Sololá	717	San Juan la Laguna	12	San Juan la Laguna	2	Febrero	2023-02-19T00:00:00	2024-11-08T16:00:00	3	Temperatura mínima	21.8
37684	7	Sololá	717	San Juan la Laguna	12	San Juan la Laguna	2	Febrero	2023-02-19T00:00:00	2024-11-08T16:00:00	5	Humedad	51
37685	7	Sololá	717	San Juan la Laguna	12	San Juan la Laguna	2	Febrero	2023-02-19T00:00:00	2024-11-08T16:00:00	6	Velocidad del viento	8
37686	7	Sololá	717	San Juan la Laguna	12	San Juan la Laguna	2	Febrero	2023-02-19T00:00:00	2024-11-08T16:00:00	7	Dirección del viento	8.05
37687	7	Sololá	717	San Juan la Laguna	12	San Juan la Laguna	2	Febrero	2023-02-19T00:00:00	2024-11-08T16:00:00	1	Precipitación	0
37688	7	Sololá	717	San Juan la Laguna	12	San Juan la Laguna	2	Febrero	2023-02-19T00:00:00	2024-11-08T16:00:00	8	Radiación solar	559
37689	7	Sololá	717	San Juan la Laguna	12	San Juan la Laguna	2	Febrero	2023-02-19T00:00:00	2024-11-08T17:00:00	2	Temperatura media	21.7
37690	7	Sololá	717	San Juan la Laguna	12	San Juan la Laguna	2	Febrero	2023-02-19T00:00:00	2024-11-08T17:00:00	4	Temperatura máxima	22.2
37691	7	Sololá	717	San Juan la Laguna	12	San Juan la Laguna	2	Febrero	2023-02-19T00:00:00	2024-11-08T17:00:00	3	Temperatura mínima	21.7
37692	7	Sololá	717	San Juan la Laguna	12	San Juan la Laguna	2	Febrero	2023-02-19T00:00:00	2024-11-08T17:00:00	5	Humedad	54
37693	7	Sololá	717	San Juan la Laguna	12	San Juan la Laguna	2	Febrero	2023-02-19T00:00:00	2024-11-08T17:00:00	6	Velocidad del viento	6.4
37694	7	Sololá	717	San Juan la Laguna	12	San Juan la Laguna	2	Febrero	2023-02-19T00:00:00	2024-11-08T17:00:00	7	Dirección del viento	6.44
37695	7	Sololá	717	San Juan la Laguna	12	San Juan la Laguna	2	Febrero	2023-02-19T00:00:00	2024-11-08T17:00:00	1	Precipitación	0
37696	7	Sololá	717	San Juan la Laguna	12	San Juan la Laguna	2	Febrero	2023-02-19T00:00:00	2024-11-08T17:00:00	8	Radiación solar	348
37697	7	Sololá	717	San Juan la Laguna	12	San Juan la Laguna	2	Febrero	2023-02-19T00:00:00	2024-11-08T18:00:00	2	Temperatura media	19.9
37698	7	Sololá	717	San Juan la Laguna	12	San Juan la Laguna	2	Febrero	2023-02-19T00:00:00	2024-11-08T18:00:00	4	Temperatura máxima	21.7
37699	7	Sololá	717	San Juan la Laguna	12	San Juan la Laguna	2	Febrero	2023-02-19T00:00:00	2024-11-08T18:00:00	3	Temperatura mínima	19.9
37700	7	Sololá	717	San Juan la Laguna	12	San Juan la Laguna	2	Febrero	2023-02-19T00:00:00	2024-11-08T18:00:00	5	Humedad	60
37701	7	Sololá	717	San Juan la Laguna	12	San Juan la Laguna	2	Febrero	2023-02-19T00:00:00	2024-11-08T18:00:00	6	Velocidad del viento	6.4
37702	7	Sololá	717	San Juan la Laguna	12	San Juan la Laguna	2	Febrero	2023-02-19T00:00:00	2024-11-08T18:00:00	7	Dirección del viento	6.44
37703	7	Sololá	717	San Juan la Laguna	12	San Juan la Laguna	2	Febrero	2023-02-19T00:00:00	2024-11-08T18:00:00	1	Precipitación	0
37704	7	Sololá	717	San Juan la Laguna	12	San Juan la Laguna	2	Febrero	2023-02-19T00:00:00	2024-11-08T18:00:00	8	Radiación solar	50
37705	7	Sololá	717	San Juan la Laguna	12	San Juan la Laguna	2	Febrero	2023-02-19T00:00:00	2024-11-08T19:00:00	2	Temperatura media	18.8
37706	7	Sololá	717	San Juan la Laguna	12	San Juan la Laguna	2	Febrero	2023-02-19T00:00:00	2024-11-08T19:00:00	4	Temperatura máxima	19.9
37707	7	Sololá	717	San Juan la Laguna	12	San Juan la Laguna	2	Febrero	2023-02-19T00:00:00	2024-11-08T19:00:00	3	Temperatura mínima	18.8
37708	7	Sololá	717	San Juan la Laguna	12	San Juan la Laguna	2	Febrero	2023-02-19T00:00:00	2024-11-08T19:00:00	5	Humedad	62
37709	7	Sololá	717	San Juan la Laguna	12	San Juan la Laguna	2	Febrero	2023-02-19T00:00:00	2024-11-08T19:00:00	6	Velocidad del viento	6.4
37710	7	Sololá	717	San Juan la Laguna	12	San Juan la Laguna	2	Febrero	2023-02-19T00:00:00	2024-11-08T19:00:00	7	Dirección del viento	6.44
37711	7	Sololá	717	San Juan la Laguna	12	San Juan la Laguna	2	Febrero	2023-02-19T00:00:00	2024-11-08T19:00:00	1	Precipitación	0
37712	7	Sololá	717	San Juan la Laguna	12	San Juan la Laguna	2	Febrero	2023-02-19T00:00:00	2024-11-08T19:00:00	8	Radiación solar	0
37713	7	Sololá	717	San Juan la Laguna	12	San Juan la Laguna	2	Febrero	2023-02-19T00:00:00	2024-11-08T20:00:00	2	Temperatura media	18
37714	7	Sololá	717	San Juan la Laguna	12	San Juan la Laguna	2	Febrero	2023-02-19T00:00:00	2024-11-08T20:00:00	4	Temperatura máxima	18.7
37715	7	Sololá	717	San Juan la Laguna	12	San Juan la Laguna	2	Febrero	2023-02-19T00:00:00	2024-11-08T20:00:00	3	Temperatura mínima	18
37716	7	Sololá	717	San Juan la Laguna	12	San Juan la Laguna	2	Febrero	2023-02-19T00:00:00	2024-11-08T20:00:00	5	Humedad	65
37717	7	Sololá	717	San Juan la Laguna	12	San Juan la Laguna	2	Febrero	2023-02-19T00:00:00	2024-11-08T20:00:00	6	Velocidad del viento	8
37718	7	Sololá	717	San Juan la Laguna	12	San Juan la Laguna	2	Febrero	2023-02-19T00:00:00	2024-11-08T20:00:00	7	Dirección del viento	8.05
37719	7	Sololá	717	San Juan la Laguna	12	San Juan la Laguna	2	Febrero	2023-02-19T00:00:00	2024-11-08T20:00:00	1	Precipitación	0
37720	7	Sololá	717	San Juan la Laguna	12	San Juan la Laguna	2	Febrero	2023-02-19T00:00:00	2024-11-08T20:00:00	8	Radiación solar	0
37721	7	Sololá	717	San Juan la Laguna	12	San Juan la Laguna	2	Febrero	2023-02-19T00:00:00	2024-11-08T21:00:00	2	Temperatura media	17.8
37722	7	Sololá	717	San Juan la Laguna	12	San Juan la Laguna	2	Febrero	2023-02-19T00:00:00	2024-11-08T21:00:00	4	Temperatura máxima	18.1
37723	7	Sololá	717	San Juan la Laguna	12	San Juan la Laguna	2	Febrero	2023-02-19T00:00:00	2024-11-08T21:00:00	3	Temperatura mínima	17.8
37724	7	Sololá	717	San Juan la Laguna	12	San Juan la Laguna	2	Febrero	2023-02-19T00:00:00	2024-11-08T21:00:00	5	Humedad	63
37725	7	Sololá	717	San Juan la Laguna	12	San Juan la Laguna	2	Febrero	2023-02-19T00:00:00	2024-11-08T21:00:00	6	Velocidad del viento	9.7
37726	7	Sololá	717	San Juan la Laguna	12	San Juan la Laguna	2	Febrero	2023-02-19T00:00:00	2024-11-08T21:00:00	7	Dirección del viento	9.66
37727	7	Sololá	717	San Juan la Laguna	12	San Juan la Laguna	2	Febrero	2023-02-19T00:00:00	2024-11-08T21:00:00	1	Precipitación	0
37728	7	Sololá	717	San Juan la Laguna	12	San Juan la Laguna	2	Febrero	2023-02-19T00:00:00	2024-11-08T21:00:00	8	Radiación solar	0
37729	7	Sololá	717	San Juan la Laguna	12	San Juan la Laguna	2	Febrero	2023-02-19T00:00:00	2024-11-08T22:00:00	2	Temperatura media	17.6
37730	7	Sololá	717	San Juan la Laguna	12	San Juan la Laguna	2	Febrero	2023-02-19T00:00:00	2024-11-08T22:00:00	4	Temperatura máxima	17.8
37731	7	Sololá	717	San Juan la Laguna	12	San Juan la Laguna	2	Febrero	2023-02-19T00:00:00	2024-11-08T22:00:00	3	Temperatura mínima	17.5
37732	7	Sololá	717	San Juan la Laguna	12	San Juan la Laguna	2	Febrero	2023-02-19T00:00:00	2024-11-08T22:00:00	5	Humedad	63
37733	7	Sololá	717	San Juan la Laguna	12	San Juan la Laguna	2	Febrero	2023-02-19T00:00:00	2024-11-08T22:00:00	6	Velocidad del viento	9.7
37734	7	Sololá	717	San Juan la Laguna	12	San Juan la Laguna	2	Febrero	2023-02-19T00:00:00	2024-11-08T22:00:00	7	Dirección del viento	9.66
37735	7	Sololá	717	San Juan la Laguna	12	San Juan la Laguna	2	Febrero	2023-02-19T00:00:00	2024-11-08T22:00:00	1	Precipitación	0
37736	7	Sololá	717	San Juan la Laguna	12	San Juan la Laguna	2	Febrero	2023-02-19T00:00:00	2024-11-08T22:00:00	8	Radiación solar	0
37737	7	Sololá	717	San Juan la Laguna	12	San Juan la Laguna	2	Febrero	2023-02-19T00:00:00	2024-11-08T23:00:00	2	Temperatura media	17.2
37738	7	Sololá	717	San Juan la Laguna	12	San Juan la Laguna	2	Febrero	2023-02-19T00:00:00	2024-11-08T23:00:00	4	Temperatura máxima	17.6
37739	7	Sololá	717	San Juan la Laguna	12	San Juan la Laguna	2	Febrero	2023-02-19T00:00:00	2024-11-08T23:00:00	3	Temperatura mínima	17.1
37740	7	Sololá	717	San Juan la Laguna	12	San Juan la Laguna	2	Febrero	2023-02-19T00:00:00	2024-11-08T23:00:00	5	Humedad	60
37741	7	Sololá	717	San Juan la Laguna	12	San Juan la Laguna	2	Febrero	2023-02-19T00:00:00	2024-11-08T23:00:00	6	Velocidad del viento	4.8
37742	7	Sololá	717	San Juan la Laguna	12	San Juan la Laguna	2	Febrero	2023-02-19T00:00:00	2024-11-08T23:00:00	7	Dirección del viento	4.83
37743	7	Sololá	717	San Juan la Laguna	12	San Juan la Laguna	2	Febrero	2023-02-19T00:00:00	2024-11-08T23:00:00	1	Precipitación	0
37744	7	Sololá	717	San Juan la Laguna	12	San Juan la Laguna	2	Febrero	2023-02-19T00:00:00	2024-11-08T23:00:00	8	Radiación solar	0
37745	7	Sololá	717	San Juan la Laguna	12	San Juan la Laguna	2	Febrero	2023-02-20T00:00:00	2024-11-08T00:00:00	2	Temperatura media	17.2
37746	7	Sololá	717	San Juan la Laguna	12	San Juan la Laguna	2	Febrero	2023-02-20T00:00:00	2024-11-08T00:00:00	4	Temperatura máxima	17.4
37747	7	Sololá	717	San Juan la Laguna	12	San Juan la Laguna	2	Febrero	2023-02-20T00:00:00	2024-11-08T00:00:00	3	Temperatura mínima	17.1
37748	7	Sololá	717	San Juan la Laguna	12	San Juan la Laguna	2	Febrero	2023-02-20T00:00:00	2024-11-08T00:00:00	5	Humedad	56
37749	7	Sololá	717	San Juan la Laguna	12	San Juan la Laguna	2	Febrero	2023-02-20T00:00:00	2024-11-08T00:00:00	6	Velocidad del viento	3.2
37750	7	Sololá	717	San Juan la Laguna	12	San Juan la Laguna	2	Febrero	2023-02-20T00:00:00	2024-11-08T00:00:00	7	Dirección del viento	3.22
37751	7	Sololá	717	San Juan la Laguna	12	San Juan la Laguna	2	Febrero	2023-02-20T00:00:00	2024-11-08T00:00:00	1	Precipitación	0
37752	7	Sololá	717	San Juan la Laguna	12	San Juan la Laguna	2	Febrero	2023-02-20T00:00:00	2024-11-08T00:00:00	8	Radiación solar	0
37753	7	Sololá	717	San Juan la Laguna	12	San Juan la Laguna	2	Febrero	2023-02-20T00:00:00	2024-11-08T01:00:00	2	Temperatura media	17.2
37754	7	Sololá	717	San Juan la Laguna	12	San Juan la Laguna	2	Febrero	2023-02-20T00:00:00	2024-11-08T01:00:00	4	Temperatura máxima	17.3
37755	7	Sololá	717	San Juan la Laguna	12	San Juan la Laguna	2	Febrero	2023-02-20T00:00:00	2024-11-08T01:00:00	3	Temperatura mínima	17.1
37756	7	Sololá	717	San Juan la Laguna	12	San Juan la Laguna	2	Febrero	2023-02-20T00:00:00	2024-11-08T01:00:00	5	Humedad	55
37757	7	Sololá	717	San Juan la Laguna	12	San Juan la Laguna	2	Febrero	2023-02-20T00:00:00	2024-11-08T01:00:00	6	Velocidad del viento	4.8
37758	7	Sololá	717	San Juan la Laguna	12	San Juan la Laguna	2	Febrero	2023-02-20T00:00:00	2024-11-08T01:00:00	7	Dirección del viento	4.83
37759	7	Sololá	717	San Juan la Laguna	12	San Juan la Laguna	2	Febrero	2023-02-20T00:00:00	2024-11-08T01:00:00	1	Precipitación	0
37760	7	Sololá	717	San Juan la Laguna	12	San Juan la Laguna	2	Febrero	2023-02-20T00:00:00	2024-11-08T01:00:00	8	Radiación solar	0
37761	7	Sololá	717	San Juan la Laguna	12	San Juan la Laguna	2	Febrero	2023-02-20T00:00:00	2024-11-08T02:00:00	2	Temperatura media	16.6
37762	7	Sololá	717	San Juan la Laguna	12	San Juan la Laguna	2	Febrero	2023-02-20T00:00:00	2024-11-08T02:00:00	4	Temperatura máxima	17.3
37763	7	Sololá	717	San Juan la Laguna	12	San Juan la Laguna	2	Febrero	2023-02-20T00:00:00	2024-11-08T02:00:00	3	Temperatura mínima	16.4
37764	7	Sololá	717	San Juan la Laguna	12	San Juan la Laguna	2	Febrero	2023-02-20T00:00:00	2024-11-08T02:00:00	5	Humedad	59
37765	7	Sololá	717	San Juan la Laguna	12	San Juan la Laguna	2	Febrero	2023-02-20T00:00:00	2024-11-08T02:00:00	6	Velocidad del viento	4.8
37766	7	Sololá	717	San Juan la Laguna	12	San Juan la Laguna	2	Febrero	2023-02-20T00:00:00	2024-11-08T02:00:00	7	Dirección del viento	4.83
37767	7	Sololá	717	San Juan la Laguna	12	San Juan la Laguna	2	Febrero	2023-02-20T00:00:00	2024-11-08T02:00:00	1	Precipitación	0
37768	7	Sololá	717	San Juan la Laguna	12	San Juan la Laguna	2	Febrero	2023-02-20T00:00:00	2024-11-08T02:00:00	8	Radiación solar	0
37769	7	Sololá	717	San Juan la Laguna	12	San Juan la Laguna	2	Febrero	2023-02-20T00:00:00	2024-11-08T03:00:00	2	Temperatura media	16.6
37770	7	Sololá	717	San Juan la Laguna	12	San Juan la Laguna	2	Febrero	2023-02-20T00:00:00	2024-11-08T03:00:00	4	Temperatura máxima	16.8
37771	7	Sololá	717	San Juan la Laguna	12	San Juan la Laguna	2	Febrero	2023-02-20T00:00:00	2024-11-08T03:00:00	3	Temperatura mínima	16.4
37772	7	Sololá	717	San Juan la Laguna	12	San Juan la Laguna	2	Febrero	2023-02-20T00:00:00	2024-11-08T03:00:00	5	Humedad	59
37773	7	Sololá	717	San Juan la Laguna	12	San Juan la Laguna	2	Febrero	2023-02-20T00:00:00	2024-11-08T03:00:00	6	Velocidad del viento	4.8
37774	7	Sololá	717	San Juan la Laguna	12	San Juan la Laguna	2	Febrero	2023-02-20T00:00:00	2024-11-08T03:00:00	7	Dirección del viento	4.83
37775	7	Sololá	717	San Juan la Laguna	12	San Juan la Laguna	2	Febrero	2023-02-20T00:00:00	2024-11-08T03:00:00	1	Precipitación	0
37776	7	Sololá	717	San Juan la Laguna	12	San Juan la Laguna	2	Febrero	2023-02-20T00:00:00	2024-11-08T03:00:00	8	Radiación solar	0
37777	7	Sololá	717	San Juan la Laguna	12	San Juan la Laguna	2	Febrero	2023-02-20T00:00:00	2024-11-08T04:00:00	2	Temperatura media	17
37778	7	Sololá	717	San Juan la Laguna	12	San Juan la Laguna	2	Febrero	2023-02-20T00:00:00	2024-11-08T04:00:00	4	Temperatura máxima	17
37779	7	Sololá	717	San Juan la Laguna	12	San Juan la Laguna	2	Febrero	2023-02-20T00:00:00	2024-11-08T04:00:00	3	Temperatura mínima	16.6
37780	7	Sololá	717	San Juan la Laguna	12	San Juan la Laguna	2	Febrero	2023-02-20T00:00:00	2024-11-08T04:00:00	5	Humedad	58
37781	7	Sololá	717	San Juan la Laguna	12	San Juan la Laguna	2	Febrero	2023-02-20T00:00:00	2024-11-08T04:00:00	6	Velocidad del viento	4.8
37782	7	Sololá	717	San Juan la Laguna	12	San Juan la Laguna	2	Febrero	2023-02-20T00:00:00	2024-11-08T04:00:00	7	Dirección del viento	4.83
37783	7	Sololá	717	San Juan la Laguna	12	San Juan la Laguna	2	Febrero	2023-02-20T00:00:00	2024-11-08T04:00:00	1	Precipitación	0
37784	7	Sololá	717	San Juan la Laguna	12	San Juan la Laguna	2	Febrero	2023-02-20T00:00:00	2024-11-08T04:00:00	8	Radiación solar	0
37785	7	Sololá	717	San Juan la Laguna	12	San Juan la Laguna	2	Febrero	2023-02-20T00:00:00	2024-11-08T05:00:00	2	Temperatura media	16.6
37786	7	Sololá	717	San Juan la Laguna	12	San Juan la Laguna	2	Febrero	2023-02-20T00:00:00	2024-11-08T05:00:00	4	Temperatura máxima	17.3
37787	7	Sololá	717	San Juan la Laguna	12	San Juan la Laguna	2	Febrero	2023-02-20T00:00:00	2024-11-08T05:00:00	3	Temperatura mínima	16.6
37788	7	Sololá	717	San Juan la Laguna	12	San Juan la Laguna	2	Febrero	2023-02-20T00:00:00	2024-11-08T05:00:00	5	Humedad	60
37789	7	Sololá	717	San Juan la Laguna	12	San Juan la Laguna	2	Febrero	2023-02-20T00:00:00	2024-11-08T05:00:00	6	Velocidad del viento	4.8
37790	7	Sololá	717	San Juan la Laguna	12	San Juan la Laguna	2	Febrero	2023-02-20T00:00:00	2024-11-08T05:00:00	7	Dirección del viento	4.83
37791	7	Sololá	717	San Juan la Laguna	12	San Juan la Laguna	2	Febrero	2023-02-20T00:00:00	2024-11-08T05:00:00	1	Precipitación	0
37792	7	Sololá	717	San Juan la Laguna	12	San Juan la Laguna	2	Febrero	2023-02-20T00:00:00	2024-11-08T05:00:00	8	Radiación solar	0
37793	7	Sololá	717	San Juan la Laguna	12	San Juan la Laguna	2	Febrero	2023-02-20T00:00:00	2024-11-08T06:00:00	2	Temperatura media	17
37794	7	Sololá	717	San Juan la Laguna	12	San Juan la Laguna	2	Febrero	2023-02-20T00:00:00	2024-11-08T06:00:00	4	Temperatura máxima	17.1
37795	7	Sololá	717	San Juan la Laguna	12	San Juan la Laguna	2	Febrero	2023-02-20T00:00:00	2024-11-08T06:00:00	3	Temperatura mínima	16.6
37796	7	Sololá	717	San Juan la Laguna	12	San Juan la Laguna	2	Febrero	2023-02-20T00:00:00	2024-11-08T06:00:00	5	Humedad	57
37797	7	Sololá	717	San Juan la Laguna	12	San Juan la Laguna	2	Febrero	2023-02-20T00:00:00	2024-11-08T06:00:00	6	Velocidad del viento	6.4
37798	7	Sololá	717	San Juan la Laguna	12	San Juan la Laguna	2	Febrero	2023-02-20T00:00:00	2024-11-08T06:00:00	7	Dirección del viento	6.44
37799	7	Sololá	717	San Juan la Laguna	12	San Juan la Laguna	2	Febrero	2023-02-20T00:00:00	2024-11-08T06:00:00	1	Precipitación	0
37800	7	Sololá	717	San Juan la Laguna	12	San Juan la Laguna	2	Febrero	2023-02-20T00:00:00	2024-11-08T06:00:00	8	Radiación solar	0
37801	7	Sololá	717	San Juan la Laguna	12	San Juan la Laguna	2	Febrero	2023-02-20T00:00:00	2024-11-08T07:00:00	2	Temperatura media	17.7
37802	7	Sololá	717	San Juan la Laguna	12	San Juan la Laguna	2	Febrero	2023-02-20T00:00:00	2024-11-08T07:00:00	4	Temperatura máxima	17.7
37803	7	Sololá	717	San Juan la Laguna	12	San Juan la Laguna	2	Febrero	2023-02-20T00:00:00	2024-11-08T07:00:00	3	Temperatura mínima	16.8
37804	7	Sololá	717	San Juan la Laguna	12	San Juan la Laguna	2	Febrero	2023-02-20T00:00:00	2024-11-08T07:00:00	5	Humedad	56
37805	7	Sololá	717	San Juan la Laguna	12	San Juan la Laguna	2	Febrero	2023-02-20T00:00:00	2024-11-08T07:00:00	6	Velocidad del viento	8
37806	7	Sololá	717	San Juan la Laguna	12	San Juan la Laguna	2	Febrero	2023-02-20T00:00:00	2024-11-08T07:00:00	7	Dirección del viento	8.05
37807	7	Sololá	717	San Juan la Laguna	12	San Juan la Laguna	2	Febrero	2023-02-20T00:00:00	2024-11-08T07:00:00	1	Precipitación	0
37808	7	Sololá	717	San Juan la Laguna	12	San Juan la Laguna	2	Febrero	2023-02-20T00:00:00	2024-11-08T07:00:00	8	Radiación solar	9
37809	7	Sololá	717	San Juan la Laguna	12	San Juan la Laguna	2	Febrero	2023-02-20T00:00:00	2024-11-08T08:00:00	2	Temperatura media	18.8
37810	7	Sololá	717	San Juan la Laguna	12	San Juan la Laguna	2	Febrero	2023-02-20T00:00:00	2024-11-08T08:00:00	4	Temperatura máxima	18.8
37811	7	Sololá	717	San Juan la Laguna	12	San Juan la Laguna	2	Febrero	2023-02-20T00:00:00	2024-11-08T08:00:00	3	Temperatura mínima	17.7
37812	7	Sololá	717	San Juan la Laguna	12	San Juan la Laguna	2	Febrero	2023-02-20T00:00:00	2024-11-08T08:00:00	5	Humedad	53
37813	7	Sololá	717	San Juan la Laguna	12	San Juan la Laguna	2	Febrero	2023-02-20T00:00:00	2024-11-08T08:00:00	6	Velocidad del viento	8
37814	7	Sololá	717	San Juan la Laguna	12	San Juan la Laguna	2	Febrero	2023-02-20T00:00:00	2024-11-08T08:00:00	7	Dirección del viento	8.05
37815	7	Sololá	717	San Juan la Laguna	12	San Juan la Laguna	2	Febrero	2023-02-20T00:00:00	2024-11-08T08:00:00	1	Precipitación	0
37816	7	Sololá	717	San Juan la Laguna	12	San Juan la Laguna	2	Febrero	2023-02-20T00:00:00	2024-11-08T08:00:00	8	Radiación solar	172
37817	7	Sololá	717	San Juan la Laguna	12	San Juan la Laguna	2	Febrero	2023-02-20T00:00:00	2024-11-08T09:00:00	2	Temperatura media	20.9
37818	7	Sololá	717	San Juan la Laguna	12	San Juan la Laguna	2	Febrero	2023-02-20T00:00:00	2024-11-08T09:00:00	4	Temperatura máxima	20.9
37819	7	Sololá	717	San Juan la Laguna	12	San Juan la Laguna	2	Febrero	2023-02-20T00:00:00	2024-11-08T09:00:00	3	Temperatura mínima	18.8
37820	7	Sololá	717	San Juan la Laguna	12	San Juan la Laguna	2	Febrero	2023-02-20T00:00:00	2024-11-08T09:00:00	5	Humedad	46
37821	7	Sololá	717	San Juan la Laguna	12	San Juan la Laguna	2	Febrero	2023-02-20T00:00:00	2024-11-08T09:00:00	6	Velocidad del viento	4.8
37822	7	Sololá	717	San Juan la Laguna	12	San Juan la Laguna	2	Febrero	2023-02-20T00:00:00	2024-11-08T09:00:00	7	Dirección del viento	4.83
37823	7	Sololá	717	San Juan la Laguna	12	San Juan la Laguna	2	Febrero	2023-02-20T00:00:00	2024-11-08T09:00:00	1	Precipitación	0
37824	7	Sololá	717	San Juan la Laguna	12	San Juan la Laguna	2	Febrero	2023-02-20T00:00:00	2024-11-08T09:00:00	8	Radiación solar	414
37825	7	Sololá	717	San Juan la Laguna	12	San Juan la Laguna	2	Febrero	2023-02-20T00:00:00	2024-11-08T10:00:00	2	Temperatura media	22.4
37826	7	Sololá	717	San Juan la Laguna	12	San Juan la Laguna	2	Febrero	2023-02-20T00:00:00	2024-11-08T10:00:00	4	Temperatura máxima	22.6
37827	7	Sololá	717	San Juan la Laguna	12	San Juan la Laguna	2	Febrero	2023-02-20T00:00:00	2024-11-08T10:00:00	3	Temperatura mínima	20.9
37828	7	Sololá	717	San Juan la Laguna	12	San Juan la Laguna	2	Febrero	2023-02-20T00:00:00	2024-11-08T10:00:00	5	Humedad	41
37829	7	Sololá	717	San Juan la Laguna	12	San Juan la Laguna	2	Febrero	2023-02-20T00:00:00	2024-11-08T10:00:00	6	Velocidad del viento	3.2
37830	7	Sololá	717	San Juan la Laguna	12	San Juan la Laguna	2	Febrero	2023-02-20T00:00:00	2024-11-08T10:00:00	7	Dirección del viento	3.22
37831	7	Sololá	717	San Juan la Laguna	12	San Juan la Laguna	2	Febrero	2023-02-20T00:00:00	2024-11-08T10:00:00	1	Precipitación	0
37832	7	Sololá	717	San Juan la Laguna	12	San Juan la Laguna	2	Febrero	2023-02-20T00:00:00	2024-11-08T10:00:00	8	Radiación solar	620
37833	7	Sololá	717	San Juan la Laguna	12	San Juan la Laguna	2	Febrero	2023-02-20T00:00:00	2024-11-08T11:00:00	2	Temperatura media	23.7
37834	7	Sololá	717	San Juan la Laguna	12	San Juan la Laguna	2	Febrero	2023-02-20T00:00:00	2024-11-08T11:00:00	4	Temperatura máxima	23.8
37835	7	Sololá	717	San Juan la Laguna	12	San Juan la Laguna	2	Febrero	2023-02-20T00:00:00	2024-11-08T11:00:00	3	Temperatura mínima	22.4
37836	7	Sololá	717	San Juan la Laguna	12	San Juan la Laguna	2	Febrero	2023-02-20T00:00:00	2024-11-08T11:00:00	5	Humedad	37
37837	7	Sololá	717	San Juan la Laguna	12	San Juan la Laguna	2	Febrero	2023-02-20T00:00:00	2024-11-08T11:00:00	6	Velocidad del viento	3.2
37838	7	Sololá	717	San Juan la Laguna	12	San Juan la Laguna	2	Febrero	2023-02-20T00:00:00	2024-11-08T11:00:00	7	Dirección del viento	3.22
37839	7	Sololá	717	San Juan la Laguna	12	San Juan la Laguna	2	Febrero	2023-02-20T00:00:00	2024-11-08T11:00:00	1	Precipitación	0
37840	7	Sololá	717	San Juan la Laguna	12	San Juan la Laguna	2	Febrero	2023-02-20T00:00:00	2024-11-08T11:00:00	8	Radiación solar	777
37841	7	Sololá	717	San Juan la Laguna	12	San Juan la Laguna	2	Febrero	2023-02-20T00:00:00	2024-11-08T12:00:00	2	Temperatura media	24.4
37842	7	Sololá	717	San Juan la Laguna	12	San Juan la Laguna	2	Febrero	2023-02-20T00:00:00	2024-11-08T12:00:00	4	Temperatura máxima	24.4
37843	7	Sololá	717	San Juan la Laguna	12	San Juan la Laguna	2	Febrero	2023-02-20T00:00:00	2024-11-08T12:00:00	3	Temperatura mínima	23.3
37844	7	Sololá	717	San Juan la Laguna	12	San Juan la Laguna	2	Febrero	2023-02-20T00:00:00	2024-11-08T12:00:00	5	Humedad	37
37845	7	Sololá	717	San Juan la Laguna	12	San Juan la Laguna	2	Febrero	2023-02-20T00:00:00	2024-11-08T12:00:00	6	Velocidad del viento	4.8
37846	7	Sololá	717	San Juan la Laguna	12	San Juan la Laguna	2	Febrero	2023-02-20T00:00:00	2024-11-08T12:00:00	7	Dirección del viento	4.83
37847	7	Sololá	717	San Juan la Laguna	12	San Juan la Laguna	2	Febrero	2023-02-20T00:00:00	2024-11-08T12:00:00	1	Precipitación	0
37848	7	Sololá	717	San Juan la Laguna	12	San Juan la Laguna	2	Febrero	2023-02-20T00:00:00	2024-11-08T12:00:00	8	Radiación solar	776
37849	7	Sololá	717	San Juan la Laguna	12	San Juan la Laguna	2	Febrero	2023-02-20T00:00:00	2024-11-08T13:00:00	2	Temperatura media	24.6
37850	7	Sololá	717	San Juan la Laguna	12	San Juan la Laguna	2	Febrero	2023-02-20T00:00:00	2024-11-08T13:00:00	4	Temperatura máxima	24.9
37851	7	Sololá	717	San Juan la Laguna	12	San Juan la Laguna	2	Febrero	2023-02-20T00:00:00	2024-11-08T13:00:00	3	Temperatura mínima	24.4
37852	7	Sololá	717	San Juan la Laguna	12	San Juan la Laguna	2	Febrero	2023-02-20T00:00:00	2024-11-08T13:00:00	5	Humedad	37
37853	7	Sololá	717	San Juan la Laguna	12	San Juan la Laguna	2	Febrero	2023-02-20T00:00:00	2024-11-08T13:00:00	6	Velocidad del viento	4.8
37854	7	Sololá	717	San Juan la Laguna	12	San Juan la Laguna	2	Febrero	2023-02-20T00:00:00	2024-11-08T13:00:00	7	Dirección del viento	4.83
37855	7	Sololá	717	San Juan la Laguna	12	San Juan la Laguna	2	Febrero	2023-02-20T00:00:00	2024-11-08T13:00:00	1	Precipitación	0
37856	7	Sololá	717	San Juan la Laguna	12	San Juan la Laguna	2	Febrero	2023-02-20T00:00:00	2024-11-08T13:00:00	8	Radiación solar	897
37857	7	Sololá	717	San Juan la Laguna	12	San Juan la Laguna	2	Febrero	2023-02-20T00:00:00	2024-11-08T14:00:00	2	Temperatura media	24.4
37858	7	Sololá	717	San Juan la Laguna	12	San Juan la Laguna	2	Febrero	2023-02-20T00:00:00	2024-11-08T14:00:00	4	Temperatura máxima	24.9
37859	7	Sololá	717	San Juan la Laguna	12	San Juan la Laguna	2	Febrero	2023-02-20T00:00:00	2024-11-08T14:00:00	3	Temperatura mínima	24.3
37860	7	Sololá	717	San Juan la Laguna	12	San Juan la Laguna	2	Febrero	2023-02-20T00:00:00	2024-11-08T14:00:00	5	Humedad	38
37861	7	Sololá	717	San Juan la Laguna	12	San Juan la Laguna	2	Febrero	2023-02-20T00:00:00	2024-11-08T14:00:00	6	Velocidad del viento	6.4
37862	7	Sololá	717	San Juan la Laguna	12	San Juan la Laguna	2	Febrero	2023-02-20T00:00:00	2024-11-08T14:00:00	7	Dirección del viento	6.44
37863	7	Sololá	717	San Juan la Laguna	12	San Juan la Laguna	2	Febrero	2023-02-20T00:00:00	2024-11-08T14:00:00	1	Precipitación	0
37864	7	Sololá	717	San Juan la Laguna	12	San Juan la Laguna	2	Febrero	2023-02-20T00:00:00	2024-11-08T14:00:00	8	Radiación solar	854
37865	7	Sololá	717	San Juan la Laguna	12	San Juan la Laguna	2	Febrero	2023-02-20T00:00:00	2024-11-08T15:00:00	2	Temperatura media	23.9
37866	7	Sololá	717	San Juan la Laguna	12	San Juan la Laguna	2	Febrero	2023-02-20T00:00:00	2024-11-08T15:00:00	4	Temperatura máxima	24.5
37867	7	Sololá	717	San Juan la Laguna	12	San Juan la Laguna	2	Febrero	2023-02-20T00:00:00	2024-11-08T15:00:00	3	Temperatura mínima	23.9
37868	7	Sololá	717	San Juan la Laguna	12	San Juan la Laguna	2	Febrero	2023-02-20T00:00:00	2024-11-08T15:00:00	5	Humedad	38
37869	7	Sololá	717	San Juan la Laguna	12	San Juan la Laguna	2	Febrero	2023-02-20T00:00:00	2024-11-08T15:00:00	6	Velocidad del viento	6.4
37870	7	Sololá	717	San Juan la Laguna	12	San Juan la Laguna	2	Febrero	2023-02-20T00:00:00	2024-11-08T15:00:00	7	Dirección del viento	6.44
37871	7	Sololá	717	San Juan la Laguna	12	San Juan la Laguna	2	Febrero	2023-02-20T00:00:00	2024-11-08T15:00:00	1	Precipitación	0
37872	7	Sololá	717	San Juan la Laguna	12	San Juan la Laguna	2	Febrero	2023-02-20T00:00:00	2024-11-08T15:00:00	8	Radiación solar	735
37873	7	Sololá	717	San Juan la Laguna	12	San Juan la Laguna	2	Febrero	2023-02-20T00:00:00	2024-11-08T16:00:00	2	Temperatura media	23.8
37874	7	Sololá	717	San Juan la Laguna	12	San Juan la Laguna	2	Febrero	2023-02-20T00:00:00	2024-11-08T16:00:00	4	Temperatura máxima	24.3
37875	7	Sololá	717	San Juan la Laguna	12	San Juan la Laguna	2	Febrero	2023-02-20T00:00:00	2024-11-08T16:00:00	3	Temperatura mínima	23.8
37876	7	Sololá	717	San Juan la Laguna	12	San Juan la Laguna	2	Febrero	2023-02-20T00:00:00	2024-11-08T16:00:00	5	Humedad	36
37877	7	Sololá	717	San Juan la Laguna	12	San Juan la Laguna	2	Febrero	2023-02-20T00:00:00	2024-11-08T16:00:00	6	Velocidad del viento	4.8
37878	7	Sololá	717	San Juan la Laguna	12	San Juan la Laguna	2	Febrero	2023-02-20T00:00:00	2024-11-08T16:00:00	7	Dirección del viento	4.83
37879	7	Sololá	717	San Juan la Laguna	12	San Juan la Laguna	2	Febrero	2023-02-20T00:00:00	2024-11-08T16:00:00	1	Precipitación	0
37880	7	Sololá	717	San Juan la Laguna	12	San Juan la Laguna	2	Febrero	2023-02-20T00:00:00	2024-11-08T16:00:00	8	Radiación solar	558
37881	7	Sololá	717	San Juan la Laguna	12	San Juan la Laguna	2	Febrero	2023-02-20T00:00:00	2024-11-08T17:00:00	2	Temperatura media	22.7
37882	7	Sololá	717	San Juan la Laguna	12	San Juan la Laguna	2	Febrero	2023-02-20T00:00:00	2024-11-08T17:00:00	4	Temperatura máxima	23.8
37883	7	Sololá	717	San Juan la Laguna	12	San Juan la Laguna	2	Febrero	2023-02-20T00:00:00	2024-11-08T17:00:00	3	Temperatura mínima	22.6
37884	7	Sololá	717	San Juan la Laguna	12	San Juan la Laguna	2	Febrero	2023-02-20T00:00:00	2024-11-08T17:00:00	5	Humedad	45
37885	7	Sololá	717	San Juan la Laguna	12	San Juan la Laguna	2	Febrero	2023-02-20T00:00:00	2024-11-08T17:00:00	6	Velocidad del viento	6.4
37886	7	Sololá	717	San Juan la Laguna	12	San Juan la Laguna	2	Febrero	2023-02-20T00:00:00	2024-11-08T17:00:00	7	Dirección del viento	6.44
37887	7	Sololá	717	San Juan la Laguna	12	San Juan la Laguna	2	Febrero	2023-02-20T00:00:00	2024-11-08T17:00:00	1	Precipitación	0
37888	7	Sololá	717	San Juan la Laguna	12	San Juan la Laguna	2	Febrero	2023-02-20T00:00:00	2024-11-08T17:00:00	8	Radiación solar	335
37889	7	Sololá	717	San Juan la Laguna	12	San Juan la Laguna	2	Febrero	2023-02-20T00:00:00	2024-11-08T18:00:00	2	Temperatura media	20.9
37890	7	Sololá	717	San Juan la Laguna	12	San Juan la Laguna	2	Febrero	2023-02-20T00:00:00	2024-11-08T18:00:00	4	Temperatura máxima	22.7
37891	7	Sololá	717	San Juan la Laguna	12	San Juan la Laguna	2	Febrero	2023-02-20T00:00:00	2024-11-08T18:00:00	3	Temperatura mínima	20.9
37892	7	Sololá	717	San Juan la Laguna	12	San Juan la Laguna	2	Febrero	2023-02-20T00:00:00	2024-11-08T18:00:00	5	Humedad	49
37893	7	Sololá	717	San Juan la Laguna	12	San Juan la Laguna	2	Febrero	2023-02-20T00:00:00	2024-11-08T18:00:00	6	Velocidad del viento	3.2
37894	7	Sololá	717	San Juan la Laguna	12	San Juan la Laguna	2	Febrero	2023-02-20T00:00:00	2024-11-08T18:00:00	7	Dirección del viento	3.22
37895	7	Sololá	717	San Juan la Laguna	12	San Juan la Laguna	2	Febrero	2023-02-20T00:00:00	2024-11-08T18:00:00	1	Precipitación	0
37896	7	Sololá	717	San Juan la Laguna	12	San Juan la Laguna	2	Febrero	2023-02-20T00:00:00	2024-11-08T18:00:00	8	Radiación solar	51
37897	7	Sololá	717	San Juan la Laguna	12	San Juan la Laguna	2	Febrero	2023-02-20T00:00:00	2024-11-08T19:00:00	2	Temperatura media	19.8
37898	7	Sololá	717	San Juan la Laguna	12	San Juan la Laguna	2	Febrero	2023-02-20T00:00:00	2024-11-08T19:00:00	4	Temperatura máxima	20.8
37899	7	Sololá	717	San Juan la Laguna	12	San Juan la Laguna	2	Febrero	2023-02-20T00:00:00	2024-11-08T19:00:00	3	Temperatura mínima	19.8
37900	7	Sololá	717	San Juan la Laguna	12	San Juan la Laguna	2	Febrero	2023-02-20T00:00:00	2024-11-08T19:00:00	5	Humedad	51
37901	7	Sololá	717	San Juan la Laguna	12	San Juan la Laguna	2	Febrero	2023-02-20T00:00:00	2024-11-08T19:00:00	6	Velocidad del viento	3.2
37902	7	Sololá	717	San Juan la Laguna	12	San Juan la Laguna	2	Febrero	2023-02-20T00:00:00	2024-11-08T19:00:00	7	Dirección del viento	3.22
37903	7	Sololá	717	San Juan la Laguna	12	San Juan la Laguna	2	Febrero	2023-02-20T00:00:00	2024-11-08T19:00:00	1	Precipitación	0
37904	7	Sololá	717	San Juan la Laguna	12	San Juan la Laguna	2	Febrero	2023-02-20T00:00:00	2024-11-08T19:00:00	8	Radiación solar	0
37905	7	Sololá	717	San Juan la Laguna	12	San Juan la Laguna	2	Febrero	2023-02-20T00:00:00	2024-11-08T20:00:00	2	Temperatura media	18.6
37906	7	Sololá	717	San Juan la Laguna	12	San Juan la Laguna	2	Febrero	2023-02-20T00:00:00	2024-11-08T20:00:00	4	Temperatura máxima	19.8
37907	7	Sololá	717	San Juan la Laguna	12	San Juan la Laguna	2	Febrero	2023-02-20T00:00:00	2024-11-08T20:00:00	3	Temperatura mínima	18.6
37908	7	Sololá	717	San Juan la Laguna	12	San Juan la Laguna	2	Febrero	2023-02-20T00:00:00	2024-11-08T20:00:00	5	Humedad	59
37909	7	Sololá	717	San Juan la Laguna	12	San Juan la Laguna	2	Febrero	2023-02-20T00:00:00	2024-11-08T20:00:00	6	Velocidad del viento	3.2
37910	7	Sololá	717	San Juan la Laguna	12	San Juan la Laguna	2	Febrero	2023-02-20T00:00:00	2024-11-08T20:00:00	7	Dirección del viento	3.22
37911	7	Sololá	717	San Juan la Laguna	12	San Juan la Laguna	2	Febrero	2023-02-20T00:00:00	2024-11-08T20:00:00	1	Precipitación	0
37912	7	Sololá	717	San Juan la Laguna	12	San Juan la Laguna	2	Febrero	2023-02-20T00:00:00	2024-11-08T20:00:00	8	Radiación solar	0
37913	7	Sololá	717	San Juan la Laguna	12	San Juan la Laguna	2	Febrero	2023-02-20T00:00:00	2024-11-08T21:00:00	2	Temperatura media	17.9
37914	7	Sololá	717	San Juan la Laguna	12	San Juan la Laguna	2	Febrero	2023-02-20T00:00:00	2024-11-08T21:00:00	4	Temperatura máxima	18.6
37915	7	Sololá	717	San Juan la Laguna	12	San Juan la Laguna	2	Febrero	2023-02-20T00:00:00	2024-11-08T21:00:00	3	Temperatura mínima	17.9
37916	7	Sololá	717	San Juan la Laguna	12	San Juan la Laguna	2	Febrero	2023-02-20T00:00:00	2024-11-08T21:00:00	5	Humedad	63
37917	7	Sololá	717	San Juan la Laguna	12	San Juan la Laguna	2	Febrero	2023-02-20T00:00:00	2024-11-08T21:00:00	6	Velocidad del viento	3.2
37918	7	Sololá	717	San Juan la Laguna	12	San Juan la Laguna	2	Febrero	2023-02-20T00:00:00	2024-11-08T21:00:00	7	Dirección del viento	3.22
37919	7	Sololá	717	San Juan la Laguna	12	San Juan la Laguna	2	Febrero	2023-02-20T00:00:00	2024-11-08T21:00:00	1	Precipitación	0
37920	7	Sololá	717	San Juan la Laguna	12	San Juan la Laguna	2	Febrero	2023-02-20T00:00:00	2024-11-08T21:00:00	8	Radiación solar	0
37921	7	Sololá	717	San Juan la Laguna	12	San Juan la Laguna	2	Febrero	2023-02-20T00:00:00	2024-11-08T22:00:00	2	Temperatura media	16.2
37922	7	Sololá	717	San Juan la Laguna	12	San Juan la Laguna	2	Febrero	2023-02-20T00:00:00	2024-11-08T22:00:00	4	Temperatura máxima	17.9
37923	7	Sololá	717	San Juan la Laguna	12	San Juan la Laguna	2	Febrero	2023-02-20T00:00:00	2024-11-08T22:00:00	3	Temperatura mínima	16.2
37924	7	Sololá	717	San Juan la Laguna	12	San Juan la Laguna	2	Febrero	2023-02-20T00:00:00	2024-11-08T22:00:00	5	Humedad	65
37925	7	Sololá	717	San Juan la Laguna	12	San Juan la Laguna	2	Febrero	2023-02-20T00:00:00	2024-11-08T22:00:00	6	Velocidad del viento	3.2
37926	7	Sololá	717	San Juan la Laguna	12	San Juan la Laguna	2	Febrero	2023-02-20T00:00:00	2024-11-08T22:00:00	7	Dirección del viento	3.22
37927	7	Sololá	717	San Juan la Laguna	12	San Juan la Laguna	2	Febrero	2023-02-20T00:00:00	2024-11-08T22:00:00	1	Precipitación	0
37928	7	Sololá	717	San Juan la Laguna	12	San Juan la Laguna	2	Febrero	2023-02-20T00:00:00	2024-11-08T22:00:00	8	Radiación solar	0
37929	7	Sololá	717	San Juan la Laguna	12	San Juan la Laguna	2	Febrero	2023-02-20T00:00:00	2024-11-08T23:00:00	2	Temperatura media	14.3
37930	7	Sololá	717	San Juan la Laguna	12	San Juan la Laguna	2	Febrero	2023-02-20T00:00:00	2024-11-08T23:00:00	4	Temperatura máxima	16.2
37931	7	Sololá	717	San Juan la Laguna	12	San Juan la Laguna	2	Febrero	2023-02-20T00:00:00	2024-11-08T23:00:00	3	Temperatura mínima	14.3
37932	7	Sololá	717	San Juan la Laguna	12	San Juan la Laguna	2	Febrero	2023-02-20T00:00:00	2024-11-08T23:00:00	5	Humedad	70
37933	7	Sololá	717	San Juan la Laguna	12	San Juan la Laguna	2	Febrero	2023-02-20T00:00:00	2024-11-08T23:00:00	6	Velocidad del viento	1.6
37934	7	Sololá	717	San Juan la Laguna	12	San Juan la Laguna	2	Febrero	2023-02-20T00:00:00	2024-11-08T23:00:00	7	Dirección del viento	1.61
37935	7	Sololá	717	San Juan la Laguna	12	San Juan la Laguna	2	Febrero	2023-02-20T00:00:00	2024-11-08T23:00:00	1	Precipitación	0
37936	7	Sololá	717	San Juan la Laguna	12	San Juan la Laguna	2	Febrero	2023-02-20T00:00:00	2024-11-08T23:00:00	8	Radiación solar	0
37937	7	Sololá	717	San Juan la Laguna	12	San Juan la Laguna	2	Febrero	2023-02-21T00:00:00	2024-11-08T00:00:00	2	Temperatura media	13.4
37938	7	Sololá	717	San Juan la Laguna	12	San Juan la Laguna	2	Febrero	2023-02-21T00:00:00	2024-11-08T00:00:00	4	Temperatura máxima	14.3
37939	7	Sololá	717	San Juan la Laguna	12	San Juan la Laguna	2	Febrero	2023-02-21T00:00:00	2024-11-08T00:00:00	3	Temperatura mínima	13.4
37940	7	Sololá	717	San Juan la Laguna	12	San Juan la Laguna	2	Febrero	2023-02-21T00:00:00	2024-11-08T00:00:00	5	Humedad	72
37941	7	Sololá	717	San Juan la Laguna	12	San Juan la Laguna	2	Febrero	2023-02-21T00:00:00	2024-11-08T00:00:00	6	Velocidad del viento	3.2
37942	7	Sololá	717	San Juan la Laguna	12	San Juan la Laguna	2	Febrero	2023-02-21T00:00:00	2024-11-08T00:00:00	7	Dirección del viento	3.22
37943	7	Sololá	717	San Juan la Laguna	12	San Juan la Laguna	2	Febrero	2023-02-21T00:00:00	2024-11-08T00:00:00	1	Precipitación	0
37944	7	Sololá	717	San Juan la Laguna	12	San Juan la Laguna	2	Febrero	2023-02-21T00:00:00	2024-11-08T00:00:00	8	Radiación solar	0
37945	7	Sololá	717	San Juan la Laguna	12	San Juan la Laguna	2	Febrero	2023-02-21T00:00:00	2024-11-08T01:00:00	2	Temperatura media	13.5
37946	7	Sololá	717	San Juan la Laguna	12	San Juan la Laguna	2	Febrero	2023-02-21T00:00:00	2024-11-08T01:00:00	4	Temperatura máxima	13.7
37947	7	Sololá	717	San Juan la Laguna	12	San Juan la Laguna	2	Febrero	2023-02-21T00:00:00	2024-11-08T01:00:00	3	Temperatura mínima	13.3
37948	7	Sololá	717	San Juan la Laguna	12	San Juan la Laguna	2	Febrero	2023-02-21T00:00:00	2024-11-08T01:00:00	5	Humedad	68
37949	7	Sololá	717	San Juan la Laguna	12	San Juan la Laguna	2	Febrero	2023-02-21T00:00:00	2024-11-08T01:00:00	6	Velocidad del viento	4.8
37950	7	Sololá	717	San Juan la Laguna	12	San Juan la Laguna	2	Febrero	2023-02-21T00:00:00	2024-11-08T01:00:00	7	Dirección del viento	4.83
37951	7	Sololá	717	San Juan la Laguna	12	San Juan la Laguna	2	Febrero	2023-02-21T00:00:00	2024-11-08T01:00:00	1	Precipitación	0
37952	7	Sololá	717	San Juan la Laguna	12	San Juan la Laguna	2	Febrero	2023-02-21T00:00:00	2024-11-08T01:00:00	8	Radiación solar	0
37953	7	Sololá	717	San Juan la Laguna	12	San Juan la Laguna	2	Febrero	2023-02-21T00:00:00	2024-11-08T02:00:00	2	Temperatura media	12.8
37954	7	Sololá	717	San Juan la Laguna	12	San Juan la Laguna	2	Febrero	2023-02-21T00:00:00	2024-11-08T02:00:00	4	Temperatura máxima	13.6
37955	7	Sololá	717	San Juan la Laguna	12	San Juan la Laguna	2	Febrero	2023-02-21T00:00:00	2024-11-08T02:00:00	3	Temperatura mínima	12.7
37956	7	Sololá	717	San Juan la Laguna	12	San Juan la Laguna	2	Febrero	2023-02-21T00:00:00	2024-11-08T02:00:00	5	Humedad	72
37957	7	Sololá	717	San Juan la Laguna	12	San Juan la Laguna	2	Febrero	2023-02-21T00:00:00	2024-11-08T02:00:00	6	Velocidad del viento	3.2
37958	7	Sololá	717	San Juan la Laguna	12	San Juan la Laguna	2	Febrero	2023-02-21T00:00:00	2024-11-08T02:00:00	7	Dirección del viento	3.22
37959	7	Sololá	717	San Juan la Laguna	12	San Juan la Laguna	2	Febrero	2023-02-21T00:00:00	2024-11-08T02:00:00	1	Precipitación	0
37960	7	Sololá	717	San Juan la Laguna	12	San Juan la Laguna	2	Febrero	2023-02-21T00:00:00	2024-11-08T02:00:00	8	Radiación solar	0
37961	7	Sololá	717	San Juan la Laguna	12	San Juan la Laguna	2	Febrero	2023-02-21T00:00:00	2024-11-08T03:00:00	2	Temperatura media	13.2
37962	7	Sololá	717	San Juan la Laguna	12	San Juan la Laguna	2	Febrero	2023-02-21T00:00:00	2024-11-08T03:00:00	4	Temperatura máxima	13.3
37963	7	Sololá	717	San Juan la Laguna	12	San Juan la Laguna	2	Febrero	2023-02-21T00:00:00	2024-11-08T03:00:00	3	Temperatura mínima	12.7
37964	7	Sololá	717	San Juan la Laguna	12	San Juan la Laguna	2	Febrero	2023-02-21T00:00:00	2024-11-08T03:00:00	5	Humedad	72
37965	7	Sololá	717	San Juan la Laguna	12	San Juan la Laguna	2	Febrero	2023-02-21T00:00:00	2024-11-08T03:00:00	6	Velocidad del viento	3.2
37966	7	Sololá	717	San Juan la Laguna	12	San Juan la Laguna	2	Febrero	2023-02-21T00:00:00	2024-11-08T03:00:00	7	Dirección del viento	3.22
37967	7	Sololá	717	San Juan la Laguna	12	San Juan la Laguna	2	Febrero	2023-02-21T00:00:00	2024-11-08T03:00:00	1	Precipitación	0
37968	7	Sololá	717	San Juan la Laguna	12	San Juan la Laguna	2	Febrero	2023-02-21T00:00:00	2024-11-08T03:00:00	8	Radiación solar	0
37969	7	Sololá	717	San Juan la Laguna	12	San Juan la Laguna	2	Febrero	2023-02-21T00:00:00	2024-11-08T04:00:00	2	Temperatura media	13.1
37970	7	Sololá	717	San Juan la Laguna	12	San Juan la Laguna	2	Febrero	2023-02-21T00:00:00	2024-11-08T04:00:00	4	Temperatura máxima	13.3
37971	7	Sololá	717	San Juan la Laguna	12	San Juan la Laguna	2	Febrero	2023-02-21T00:00:00	2024-11-08T04:00:00	3	Temperatura mínima	12.9
37972	7	Sololá	717	San Juan la Laguna	12	San Juan la Laguna	2	Febrero	2023-02-21T00:00:00	2024-11-08T04:00:00	5	Humedad	73
37973	7	Sololá	717	San Juan la Laguna	12	San Juan la Laguna	2	Febrero	2023-02-21T00:00:00	2024-11-08T04:00:00	6	Velocidad del viento	3.2
37974	7	Sololá	717	San Juan la Laguna	12	San Juan la Laguna	2	Febrero	2023-02-21T00:00:00	2024-11-08T04:00:00	7	Dirección del viento	3.22
37975	7	Sololá	717	San Juan la Laguna	12	San Juan la Laguna	2	Febrero	2023-02-21T00:00:00	2024-11-08T04:00:00	1	Precipitación	0
37976	7	Sololá	717	San Juan la Laguna	12	San Juan la Laguna	2	Febrero	2023-02-21T00:00:00	2024-11-08T04:00:00	8	Radiación solar	0
37977	7	Sololá	717	San Juan la Laguna	12	San Juan la Laguna	2	Febrero	2023-02-21T00:00:00	2024-11-08T05:00:00	2	Temperatura media	12.2
37978	7	Sololá	717	San Juan la Laguna	12	San Juan la Laguna	2	Febrero	2023-02-21T00:00:00	2024-11-08T05:00:00	4	Temperatura máxima	13.1
37979	7	Sololá	717	San Juan la Laguna	12	San Juan la Laguna	2	Febrero	2023-02-21T00:00:00	2024-11-08T05:00:00	3	Temperatura mínima	11.9
37980	7	Sololá	717	San Juan la Laguna	12	San Juan la Laguna	2	Febrero	2023-02-21T00:00:00	2024-11-08T05:00:00	5	Humedad	76
37981	7	Sololá	717	San Juan la Laguna	12	San Juan la Laguna	2	Febrero	2023-02-21T00:00:00	2024-11-08T05:00:00	6	Velocidad del viento	1.6
37982	7	Sololá	717	San Juan la Laguna	12	San Juan la Laguna	2	Febrero	2023-02-21T00:00:00	2024-11-08T05:00:00	7	Dirección del viento	1.61
37983	7	Sololá	717	San Juan la Laguna	12	San Juan la Laguna	2	Febrero	2023-02-21T00:00:00	2024-11-08T05:00:00	1	Precipitación	0
37984	7	Sololá	717	San Juan la Laguna	12	San Juan la Laguna	2	Febrero	2023-02-21T00:00:00	2024-11-08T05:00:00	8	Radiación solar	0
37985	7	Sololá	717	San Juan la Laguna	12	San Juan la Laguna	2	Febrero	2023-02-21T00:00:00	2024-11-08T06:00:00	2	Temperatura media	12.3
37986	7	Sololá	717	San Juan la Laguna	12	San Juan la Laguna	2	Febrero	2023-02-21T00:00:00	2024-11-08T06:00:00	4	Temperatura máxima	12.4
37987	7	Sololá	717	San Juan la Laguna	12	San Juan la Laguna	2	Febrero	2023-02-21T00:00:00	2024-11-08T06:00:00	3	Temperatura mínima	11.9
37988	7	Sololá	717	San Juan la Laguna	12	San Juan la Laguna	2	Febrero	2023-02-21T00:00:00	2024-11-08T06:00:00	5	Humedad	76
37989	7	Sololá	717	San Juan la Laguna	12	San Juan la Laguna	2	Febrero	2023-02-21T00:00:00	2024-11-08T06:00:00	6	Velocidad del viento	3.2
37990	7	Sololá	717	San Juan la Laguna	12	San Juan la Laguna	2	Febrero	2023-02-21T00:00:00	2024-11-08T06:00:00	7	Dirección del viento	3.22
37991	7	Sololá	717	San Juan la Laguna	12	San Juan la Laguna	2	Febrero	2023-02-21T00:00:00	2024-11-08T06:00:00	1	Precipitación	0
37992	7	Sololá	717	San Juan la Laguna	12	San Juan la Laguna	2	Febrero	2023-02-21T00:00:00	2024-11-08T06:00:00	8	Radiación solar	0
37993	7	Sololá	717	San Juan la Laguna	12	San Juan la Laguna	2	Febrero	2023-02-21T00:00:00	2024-11-08T07:00:00	2	Temperatura media	12.5
37994	7	Sololá	717	San Juan la Laguna	12	San Juan la Laguna	2	Febrero	2023-02-21T00:00:00	2024-11-08T07:00:00	4	Temperatura máxima	12.5
37995	7	Sololá	717	San Juan la Laguna	12	San Juan la Laguna	2	Febrero	2023-02-21T00:00:00	2024-11-08T07:00:00	3	Temperatura mínima	11.8
37996	7	Sololá	717	San Juan la Laguna	12	San Juan la Laguna	2	Febrero	2023-02-21T00:00:00	2024-11-08T07:00:00	5	Humedad	79
37997	7	Sololá	717	San Juan la Laguna	12	San Juan la Laguna	2	Febrero	2023-02-21T00:00:00	2024-11-08T07:00:00	6	Velocidad del viento	1.6
37998	7	Sololá	717	San Juan la Laguna	12	San Juan la Laguna	2	Febrero	2023-02-21T00:00:00	2024-11-08T07:00:00	7	Dirección del viento	1.61
37999	7	Sololá	717	San Juan la Laguna	12	San Juan la Laguna	2	Febrero	2023-02-21T00:00:00	2024-11-08T07:00:00	1	Precipitación	0
38000	7	Sololá	717	San Juan la Laguna	12	San Juan la Laguna	2	Febrero	2023-02-21T00:00:00	2024-11-08T07:00:00	8	Radiación solar	17
38001	7	Sololá	717	San Juan la Laguna	12	San Juan la Laguna	2	Febrero	2023-02-21T00:00:00	2024-11-08T08:00:00	2	Temperatura media	15.6
38002	7	Sololá	717	San Juan la Laguna	12	San Juan la Laguna	2	Febrero	2023-02-21T00:00:00	2024-11-08T08:00:00	4	Temperatura máxima	15.6
38003	7	Sololá	717	San Juan la Laguna	12	San Juan la Laguna	2	Febrero	2023-02-21T00:00:00	2024-11-08T08:00:00	3	Temperatura mínima	12.5
38004	7	Sololá	717	San Juan la Laguna	12	San Juan la Laguna	2	Febrero	2023-02-21T00:00:00	2024-11-08T08:00:00	5	Humedad	72
38005	7	Sololá	717	San Juan la Laguna	12	San Juan la Laguna	2	Febrero	2023-02-21T00:00:00	2024-11-08T08:00:00	6	Velocidad del viento	1.6
38006	7	Sololá	717	San Juan la Laguna	12	San Juan la Laguna	2	Febrero	2023-02-21T00:00:00	2024-11-08T08:00:00	7	Dirección del viento	1.61
38007	7	Sololá	717	San Juan la Laguna	12	San Juan la Laguna	2	Febrero	2023-02-21T00:00:00	2024-11-08T08:00:00	1	Precipitación	0
38008	7	Sololá	717	San Juan la Laguna	12	San Juan la Laguna	2	Febrero	2023-02-21T00:00:00	2024-11-08T08:00:00	8	Radiación solar	116
38009	7	Sololá	717	San Juan la Laguna	12	San Juan la Laguna	2	Febrero	2023-02-21T00:00:00	2024-11-08T09:00:00	2	Temperatura media	19.3
38010	7	Sololá	717	San Juan la Laguna	12	San Juan la Laguna	2	Febrero	2023-02-21T00:00:00	2024-11-08T09:00:00	4	Temperatura máxima	19.5
38011	7	Sololá	717	San Juan la Laguna	12	San Juan la Laguna	2	Febrero	2023-02-21T00:00:00	2024-11-08T09:00:00	3	Temperatura mínima	15.6
38012	7	Sololá	717	San Juan la Laguna	12	San Juan la Laguna	2	Febrero	2023-02-21T00:00:00	2024-11-08T09:00:00	5	Humedad	62
38013	7	Sololá	717	San Juan la Laguna	12	San Juan la Laguna	2	Febrero	2023-02-21T00:00:00	2024-11-08T09:00:00	6	Velocidad del viento	0
38014	7	Sololá	717	San Juan la Laguna	12	San Juan la Laguna	2	Febrero	2023-02-21T00:00:00	2024-11-08T09:00:00	7	Dirección del viento	0
38015	7	Sololá	717	San Juan la Laguna	12	San Juan la Laguna	2	Febrero	2023-02-21T00:00:00	2024-11-08T09:00:00	1	Precipitación	0
38016	7	Sololá	717	San Juan la Laguna	12	San Juan la Laguna	2	Febrero	2023-02-21T00:00:00	2024-11-08T09:00:00	8	Radiación solar	375
38017	7	Sololá	717	San Juan la Laguna	12	San Juan la Laguna	2	Febrero	2023-02-21T00:00:00	2024-11-08T10:00:00	2	Temperatura media	21.1
38018	7	Sololá	717	San Juan la Laguna	12	San Juan la Laguna	2	Febrero	2023-02-21T00:00:00	2024-11-08T10:00:00	4	Temperatura máxima	21.1
38019	7	Sololá	717	San Juan la Laguna	12	San Juan la Laguna	2	Febrero	2023-02-21T00:00:00	2024-11-08T10:00:00	3	Temperatura mínima	19.1
38020	7	Sololá	717	San Juan la Laguna	12	San Juan la Laguna	2	Febrero	2023-02-21T00:00:00	2024-11-08T10:00:00	5	Humedad	55
38021	7	Sololá	717	San Juan la Laguna	12	San Juan la Laguna	2	Febrero	2023-02-21T00:00:00	2024-11-08T10:00:00	6	Velocidad del viento	1.6
38022	7	Sololá	717	San Juan la Laguna	12	San Juan la Laguna	2	Febrero	2023-02-21T00:00:00	2024-11-08T10:00:00	7	Dirección del viento	1.61
38023	7	Sololá	717	San Juan la Laguna	12	San Juan la Laguna	2	Febrero	2023-02-21T00:00:00	2024-11-08T10:00:00	1	Precipitación	0
38024	7	Sololá	717	San Juan la Laguna	12	San Juan la Laguna	2	Febrero	2023-02-21T00:00:00	2024-11-08T10:00:00	8	Radiación solar	526
38025	7	Sololá	717	San Juan la Laguna	12	San Juan la Laguna	2	Febrero	2023-02-21T00:00:00	2024-11-08T11:00:00	2	Temperatura media	22.7
38026	7	Sololá	717	San Juan la Laguna	12	San Juan la Laguna	2	Febrero	2023-02-21T00:00:00	2024-11-08T11:00:00	4	Temperatura máxima	22.7
38027	7	Sololá	717	San Juan la Laguna	12	San Juan la Laguna	2	Febrero	2023-02-21T00:00:00	2024-11-08T11:00:00	3	Temperatura mínima	21.1
38028	7	Sololá	717	San Juan la Laguna	12	San Juan la Laguna	2	Febrero	2023-02-21T00:00:00	2024-11-08T11:00:00	5	Humedad	51
38029	7	Sololá	717	San Juan la Laguna	12	San Juan la Laguna	2	Febrero	2023-02-21T00:00:00	2024-11-08T11:00:00	6	Velocidad del viento	1.6
38030	7	Sololá	717	San Juan la Laguna	12	San Juan la Laguna	2	Febrero	2023-02-21T00:00:00	2024-11-08T11:00:00	7	Dirección del viento	1.61
38031	7	Sololá	717	San Juan la Laguna	12	San Juan la Laguna	2	Febrero	2023-02-21T00:00:00	2024-11-08T11:00:00	1	Precipitación	0
38032	7	Sololá	717	San Juan la Laguna	12	San Juan la Laguna	2	Febrero	2023-02-21T00:00:00	2024-11-08T11:00:00	8	Radiación solar	677
38033	7	Sololá	717	San Juan la Laguna	12	San Juan la Laguna	2	Febrero	2023-02-21T00:00:00	2024-11-08T12:00:00	2	Temperatura media	22.2
38034	7	Sololá	717	San Juan la Laguna	12	San Juan la Laguna	2	Febrero	2023-02-21T00:00:00	2024-11-08T12:00:00	4	Temperatura máxima	23.2
38035	7	Sololá	717	San Juan la Laguna	12	San Juan la Laguna	2	Febrero	2023-02-21T00:00:00	2024-11-08T12:00:00	3	Temperatura mínima	22.1
38036	7	Sololá	717	San Juan la Laguna	12	San Juan la Laguna	2	Febrero	2023-02-21T00:00:00	2024-11-08T12:00:00	5	Humedad	52
38037	7	Sololá	717	San Juan la Laguna	12	San Juan la Laguna	2	Febrero	2023-02-21T00:00:00	2024-11-08T12:00:00	6	Velocidad del viento	3.2
38038	7	Sololá	717	San Juan la Laguna	12	San Juan la Laguna	2	Febrero	2023-02-21T00:00:00	2024-11-08T12:00:00	7	Dirección del viento	3.22
38039	7	Sololá	717	San Juan la Laguna	12	San Juan la Laguna	2	Febrero	2023-02-21T00:00:00	2024-11-08T12:00:00	1	Precipitación	0
38040	7	Sololá	717	San Juan la Laguna	12	San Juan la Laguna	2	Febrero	2023-02-21T00:00:00	2024-11-08T12:00:00	8	Radiación solar	704
38041	7	Sololá	717	San Juan la Laguna	12	San Juan la Laguna	2	Febrero	2023-02-21T00:00:00	2024-11-08T13:00:00	2	Temperatura media	23.4
38042	7	Sololá	717	San Juan la Laguna	12	San Juan la Laguna	2	Febrero	2023-02-21T00:00:00	2024-11-08T13:00:00	4	Temperatura máxima	23.4
38043	7	Sololá	717	San Juan la Laguna	12	San Juan la Laguna	2	Febrero	2023-02-21T00:00:00	2024-11-08T13:00:00	3	Temperatura mínima	21.9
38044	7	Sololá	717	San Juan la Laguna	12	San Juan la Laguna	2	Febrero	2023-02-21T00:00:00	2024-11-08T13:00:00	5	Humedad	56
38045	7	Sololá	717	San Juan la Laguna	12	San Juan la Laguna	2	Febrero	2023-02-21T00:00:00	2024-11-08T13:00:00	6	Velocidad del viento	3.2
38046	7	Sololá	717	San Juan la Laguna	12	San Juan la Laguna	2	Febrero	2023-02-21T00:00:00	2024-11-08T13:00:00	7	Dirección del viento	3.22
38047	7	Sololá	717	San Juan la Laguna	12	San Juan la Laguna	2	Febrero	2023-02-21T00:00:00	2024-11-08T13:00:00	1	Precipitación	0
38048	7	Sololá	717	San Juan la Laguna	12	San Juan la Laguna	2	Febrero	2023-02-21T00:00:00	2024-11-08T13:00:00	8	Radiación solar	496
38049	7	Sololá	717	San Juan la Laguna	12	San Juan la Laguna	2	Febrero	2023-02-21T00:00:00	2024-11-08T14:00:00	2	Temperatura media	23.6
38050	7	Sololá	717	San Juan la Laguna	12	San Juan la Laguna	2	Febrero	2023-02-21T00:00:00	2024-11-08T14:00:00	4	Temperatura máxima	24
38051	7	Sololá	717	San Juan la Laguna	12	San Juan la Laguna	2	Febrero	2023-02-21T00:00:00	2024-11-08T14:00:00	3	Temperatura mínima	23.3
38052	7	Sololá	717	San Juan la Laguna	12	San Juan la Laguna	2	Febrero	2023-02-21T00:00:00	2024-11-08T14:00:00	5	Humedad	56
38053	7	Sololá	717	San Juan la Laguna	12	San Juan la Laguna	2	Febrero	2023-02-21T00:00:00	2024-11-08T14:00:00	6	Velocidad del viento	11.3
38054	7	Sololá	717	San Juan la Laguna	12	San Juan la Laguna	2	Febrero	2023-02-21T00:00:00	2024-11-08T14:00:00	7	Dirección del viento	11.27
38055	7	Sololá	717	San Juan la Laguna	12	San Juan la Laguna	2	Febrero	2023-02-21T00:00:00	2024-11-08T14:00:00	1	Precipitación	0
38056	7	Sololá	717	San Juan la Laguna	12	San Juan la Laguna	2	Febrero	2023-02-21T00:00:00	2024-11-08T14:00:00	8	Radiación solar	871
38057	7	Sololá	717	San Juan la Laguna	12	San Juan la Laguna	2	Febrero	2023-02-21T00:00:00	2024-11-08T15:00:00	2	Temperatura media	23.2
38058	7	Sololá	717	San Juan la Laguna	12	San Juan la Laguna	2	Febrero	2023-02-21T00:00:00	2024-11-08T15:00:00	4	Temperatura máxima	23.6
38059	7	Sololá	717	San Juan la Laguna	12	San Juan la Laguna	2	Febrero	2023-02-21T00:00:00	2024-11-08T15:00:00	3	Temperatura mínima	22.7
38060	7	Sololá	717	San Juan la Laguna	12	San Juan la Laguna	2	Febrero	2023-02-21T00:00:00	2024-11-08T15:00:00	5	Humedad	57
38061	7	Sololá	717	San Juan la Laguna	12	San Juan la Laguna	2	Febrero	2023-02-21T00:00:00	2024-11-08T15:00:00	6	Velocidad del viento	11.3
38062	7	Sololá	717	San Juan la Laguna	12	San Juan la Laguna	2	Febrero	2023-02-21T00:00:00	2024-11-08T15:00:00	7	Dirección del viento	11.27
38063	7	Sololá	717	San Juan la Laguna	12	San Juan la Laguna	2	Febrero	2023-02-21T00:00:00	2024-11-08T15:00:00	1	Precipitación	0
38064	7	Sololá	717	San Juan la Laguna	12	San Juan la Laguna	2	Febrero	2023-02-21T00:00:00	2024-11-08T15:00:00	8	Radiación solar	685
38065	7	Sololá	717	San Juan la Laguna	12	San Juan la Laguna	2	Febrero	2023-02-21T00:00:00	2024-11-08T16:00:00	2	Temperatura media	22.2
38066	7	Sololá	717	San Juan la Laguna	12	San Juan la Laguna	2	Febrero	2023-02-21T00:00:00	2024-11-08T16:00:00	4	Temperatura máxima	23.4
38067	7	Sololá	717	San Juan la Laguna	12	San Juan la Laguna	2	Febrero	2023-02-21T00:00:00	2024-11-08T16:00:00	3	Temperatura mínima	21.9
38068	7	Sololá	717	San Juan la Laguna	12	San Juan la Laguna	2	Febrero	2023-02-21T00:00:00	2024-11-08T16:00:00	5	Humedad	61
38069	7	Sololá	717	San Juan la Laguna	12	San Juan la Laguna	2	Febrero	2023-02-21T00:00:00	2024-11-08T16:00:00	6	Velocidad del viento	11.3
38070	7	Sololá	717	San Juan la Laguna	12	San Juan la Laguna	2	Febrero	2023-02-21T00:00:00	2024-11-08T16:00:00	7	Dirección del viento	11.27
38071	7	Sololá	717	San Juan la Laguna	12	San Juan la Laguna	2	Febrero	2023-02-21T00:00:00	2024-11-08T16:00:00	1	Precipitación	0
38072	7	Sololá	717	San Juan la Laguna	12	San Juan la Laguna	2	Febrero	2023-02-21T00:00:00	2024-11-08T16:00:00	8	Radiación solar	527
38073	7	Sololá	717	San Juan la Laguna	12	San Juan la Laguna	2	Febrero	2023-02-21T00:00:00	2024-11-08T17:00:00	2	Temperatura media	20.8
38074	7	Sololá	717	San Juan la Laguna	12	San Juan la Laguna	2	Febrero	2023-02-21T00:00:00	2024-11-08T17:00:00	4	Temperatura máxima	22.3
38075	7	Sololá	717	San Juan la Laguna	12	San Juan la Laguna	2	Febrero	2023-02-21T00:00:00	2024-11-08T17:00:00	3	Temperatura mínima	20.8
38076	7	Sololá	717	San Juan la Laguna	12	San Juan la Laguna	2	Febrero	2023-02-21T00:00:00	2024-11-08T17:00:00	5	Humedad	72
38077	7	Sololá	717	San Juan la Laguna	12	San Juan la Laguna	2	Febrero	2023-02-21T00:00:00	2024-11-08T17:00:00	6	Velocidad del viento	8
38078	7	Sololá	717	San Juan la Laguna	12	San Juan la Laguna	2	Febrero	2023-02-21T00:00:00	2024-11-08T17:00:00	7	Dirección del viento	8.05
38079	7	Sololá	717	San Juan la Laguna	12	San Juan la Laguna	2	Febrero	2023-02-21T00:00:00	2024-11-08T17:00:00	1	Precipitación	0
38080	7	Sololá	717	San Juan la Laguna	12	San Juan la Laguna	2	Febrero	2023-02-21T00:00:00	2024-11-08T17:00:00	8	Radiación solar	292
38081	7	Sololá	717	San Juan la Laguna	12	San Juan la Laguna	2	Febrero	2023-02-21T00:00:00	2024-11-08T18:00:00	2	Temperatura media	18.9
38082	7	Sololá	717	San Juan la Laguna	12	San Juan la Laguna	2	Febrero	2023-02-21T00:00:00	2024-11-08T18:00:00	4	Temperatura máxima	20.7
38083	7	Sololá	717	San Juan la Laguna	12	San Juan la Laguna	2	Febrero	2023-02-21T00:00:00	2024-11-08T18:00:00	3	Temperatura mínima	18.9
38084	7	Sololá	717	San Juan la Laguna	12	San Juan la Laguna	2	Febrero	2023-02-21T00:00:00	2024-11-08T18:00:00	5	Humedad	79
38085	7	Sololá	717	San Juan la Laguna	12	San Juan la Laguna	2	Febrero	2023-02-21T00:00:00	2024-11-08T18:00:00	6	Velocidad del viento	4.8
38086	7	Sololá	717	San Juan la Laguna	12	San Juan la Laguna	2	Febrero	2023-02-21T00:00:00	2024-11-08T18:00:00	7	Dirección del viento	4.83
38087	7	Sololá	717	San Juan la Laguna	12	San Juan la Laguna	2	Febrero	2023-02-21T00:00:00	2024-11-08T18:00:00	1	Precipitación	0
38088	7	Sololá	717	San Juan la Laguna	12	San Juan la Laguna	2	Febrero	2023-02-21T00:00:00	2024-11-08T18:00:00	8	Radiación solar	46
38089	7	Sololá	717	San Juan la Laguna	12	San Juan la Laguna	2	Febrero	2023-02-21T00:00:00	2024-11-08T19:00:00	2	Temperatura media	18.4
38090	7	Sololá	717	San Juan la Laguna	12	San Juan la Laguna	2	Febrero	2023-02-21T00:00:00	2024-11-08T19:00:00	4	Temperatura máxima	18.9
38091	7	Sololá	717	San Juan la Laguna	12	San Juan la Laguna	2	Febrero	2023-02-21T00:00:00	2024-11-08T19:00:00	3	Temperatura mínima	18.4
38092	7	Sololá	717	San Juan la Laguna	12	San Juan la Laguna	2	Febrero	2023-02-21T00:00:00	2024-11-08T19:00:00	5	Humedad	80
38093	7	Sololá	717	San Juan la Laguna	12	San Juan la Laguna	2	Febrero	2023-02-21T00:00:00	2024-11-08T19:00:00	6	Velocidad del viento	3.2
38094	7	Sololá	717	San Juan la Laguna	12	San Juan la Laguna	2	Febrero	2023-02-21T00:00:00	2024-11-08T19:00:00	7	Dirección del viento	3.22
38095	7	Sololá	717	San Juan la Laguna	12	San Juan la Laguna	2	Febrero	2023-02-21T00:00:00	2024-11-08T19:00:00	1	Precipitación	0
38096	7	Sololá	717	San Juan la Laguna	12	San Juan la Laguna	2	Febrero	2023-02-21T00:00:00	2024-11-08T19:00:00	8	Radiación solar	0
38097	7	Sololá	717	San Juan la Laguna	12	San Juan la Laguna	2	Febrero	2023-02-21T00:00:00	2024-11-08T20:00:00	2	Temperatura media	17.8
38098	7	Sololá	717	San Juan la Laguna	12	San Juan la Laguna	2	Febrero	2023-02-21T00:00:00	2024-11-08T20:00:00	4	Temperatura máxima	18.4
38099	7	Sololá	717	San Juan la Laguna	12	San Juan la Laguna	2	Febrero	2023-02-21T00:00:00	2024-11-08T20:00:00	3	Temperatura mínima	17.8
38100	7	Sololá	717	San Juan la Laguna	12	San Juan la Laguna	2	Febrero	2023-02-21T00:00:00	2024-11-08T20:00:00	5	Humedad	83
38101	7	Sololá	717	San Juan la Laguna	12	San Juan la Laguna	2	Febrero	2023-02-21T00:00:00	2024-11-08T20:00:00	6	Velocidad del viento	0
38102	7	Sololá	717	San Juan la Laguna	12	San Juan la Laguna	2	Febrero	2023-02-21T00:00:00	2024-11-08T20:00:00	7	Dirección del viento	0
38103	7	Sololá	717	San Juan la Laguna	12	San Juan la Laguna	2	Febrero	2023-02-21T00:00:00	2024-11-08T20:00:00	1	Precipitación	0
38104	7	Sololá	717	San Juan la Laguna	12	San Juan la Laguna	2	Febrero	2023-02-21T00:00:00	2024-11-08T20:00:00	8	Radiación solar	0
38105	7	Sololá	717	San Juan la Laguna	12	San Juan la Laguna	2	Febrero	2023-02-21T00:00:00	2024-11-08T21:00:00	2	Temperatura media	17.2
38106	7	Sololá	717	San Juan la Laguna	12	San Juan la Laguna	2	Febrero	2023-02-21T00:00:00	2024-11-08T21:00:00	4	Temperatura máxima	17.8
38107	7	Sololá	717	San Juan la Laguna	12	San Juan la Laguna	2	Febrero	2023-02-21T00:00:00	2024-11-08T21:00:00	3	Temperatura mínima	17
38108	7	Sololá	717	San Juan la Laguna	12	San Juan la Laguna	2	Febrero	2023-02-21T00:00:00	2024-11-08T21:00:00	5	Humedad	84
38109	7	Sololá	717	San Juan la Laguna	12	San Juan la Laguna	2	Febrero	2023-02-21T00:00:00	2024-11-08T21:00:00	6	Velocidad del viento	0
38110	7	Sololá	717	San Juan la Laguna	12	San Juan la Laguna	2	Febrero	2023-02-21T00:00:00	2024-11-08T21:00:00	7	Dirección del viento	0
38111	7	Sololá	717	San Juan la Laguna	12	San Juan la Laguna	2	Febrero	2023-02-21T00:00:00	2024-11-08T21:00:00	1	Precipitación	0
38112	7	Sololá	717	San Juan la Laguna	12	San Juan la Laguna	2	Febrero	2023-02-21T00:00:00	2024-11-08T21:00:00	8	Radiación solar	0
38113	7	Sololá	717	San Juan la Laguna	12	San Juan la Laguna	2	Febrero	2023-02-21T00:00:00	2024-11-08T22:00:00	2	Temperatura media	15.8
38114	7	Sololá	717	San Juan la Laguna	12	San Juan la Laguna	2	Febrero	2023-02-21T00:00:00	2024-11-08T22:00:00	4	Temperatura máxima	17.2
38115	7	Sololá	717	San Juan la Laguna	12	San Juan la Laguna	2	Febrero	2023-02-21T00:00:00	2024-11-08T22:00:00	3	Temperatura mínima	15.8
38116	7	Sololá	717	San Juan la Laguna	12	San Juan la Laguna	2	Febrero	2023-02-21T00:00:00	2024-11-08T22:00:00	5	Humedad	85
38117	7	Sololá	717	San Juan la Laguna	12	San Juan la Laguna	2	Febrero	2023-02-21T00:00:00	2024-11-08T22:00:00	6	Velocidad del viento	1.6
38118	7	Sololá	717	San Juan la Laguna	12	San Juan la Laguna	2	Febrero	2023-02-21T00:00:00	2024-11-08T22:00:00	7	Dirección del viento	1.61
38119	7	Sololá	717	San Juan la Laguna	12	San Juan la Laguna	2	Febrero	2023-02-21T00:00:00	2024-11-08T22:00:00	1	Precipitación	0
38120	7	Sololá	717	San Juan la Laguna	12	San Juan la Laguna	2	Febrero	2023-02-21T00:00:00	2024-11-08T22:00:00	8	Radiación solar	0
38121	7	Sololá	717	San Juan la Laguna	12	San Juan la Laguna	2	Febrero	2023-02-21T00:00:00	2024-11-08T23:00:00	2	Temperatura media	15.4
38122	7	Sololá	717	San Juan la Laguna	12	San Juan la Laguna	2	Febrero	2023-02-21T00:00:00	2024-11-08T23:00:00	4	Temperatura máxima	15.9
38123	7	Sololá	717	San Juan la Laguna	12	San Juan la Laguna	2	Febrero	2023-02-21T00:00:00	2024-11-08T23:00:00	3	Temperatura mínima	15.4
38124	7	Sololá	717	San Juan la Laguna	12	San Juan la Laguna	2	Febrero	2023-02-21T00:00:00	2024-11-08T23:00:00	5	Humedad	85
38125	7	Sololá	717	San Juan la Laguna	12	San Juan la Laguna	2	Febrero	2023-02-21T00:00:00	2024-11-08T23:00:00	6	Velocidad del viento	3.2
38126	7	Sololá	717	San Juan la Laguna	12	San Juan la Laguna	2	Febrero	2023-02-21T00:00:00	2024-11-08T23:00:00	7	Dirección del viento	3.22
38127	7	Sololá	717	San Juan la Laguna	12	San Juan la Laguna	2	Febrero	2023-02-21T00:00:00	2024-11-08T23:00:00	1	Precipitación	0
38128	7	Sololá	717	San Juan la Laguna	12	San Juan la Laguna	2	Febrero	2023-02-21T00:00:00	2024-11-08T23:00:00	8	Radiación solar	0
38129	7	Sololá	717	San Juan la Laguna	12	San Juan la Laguna	2	Febrero	2023-02-22T00:00:00	2024-11-08T00:00:00	2	Temperatura media	15.1
38130	7	Sololá	717	San Juan la Laguna	12	San Juan la Laguna	2	Febrero	2023-02-22T00:00:00	2024-11-08T00:00:00	4	Temperatura máxima	15.4
38131	7	Sololá	717	San Juan la Laguna	12	San Juan la Laguna	2	Febrero	2023-02-22T00:00:00	2024-11-08T00:00:00	3	Temperatura mínima	15
38132	7	Sololá	717	San Juan la Laguna	12	San Juan la Laguna	2	Febrero	2023-02-22T00:00:00	2024-11-08T00:00:00	5	Humedad	86
38133	7	Sololá	717	San Juan la Laguna	12	San Juan la Laguna	2	Febrero	2023-02-22T00:00:00	2024-11-08T00:00:00	6	Velocidad del viento	1.6
38134	7	Sololá	717	San Juan la Laguna	12	San Juan la Laguna	2	Febrero	2023-02-22T00:00:00	2024-11-08T00:00:00	7	Dirección del viento	1.61
38135	7	Sololá	717	San Juan la Laguna	12	San Juan la Laguna	2	Febrero	2023-02-22T00:00:00	2024-11-08T00:00:00	1	Precipitación	0
38136	7	Sololá	717	San Juan la Laguna	12	San Juan la Laguna	2	Febrero	2023-02-22T00:00:00	2024-11-08T00:00:00	8	Radiación solar	0
38137	7	Sololá	717	San Juan la Laguna	12	San Juan la Laguna	2	Febrero	2023-02-22T00:00:00	2024-11-08T01:00:00	2	Temperatura media	14.3
38138	7	Sololá	717	San Juan la Laguna	12	San Juan la Laguna	2	Febrero	2023-02-22T00:00:00	2024-11-08T01:00:00	4	Temperatura máxima	15.1
38139	7	Sololá	717	San Juan la Laguna	12	San Juan la Laguna	2	Febrero	2023-02-22T00:00:00	2024-11-08T01:00:00	3	Temperatura mínima	14.3
38140	7	Sololá	717	San Juan la Laguna	12	San Juan la Laguna	2	Febrero	2023-02-22T00:00:00	2024-11-08T01:00:00	5	Humedad	88
38141	7	Sololá	717	San Juan la Laguna	12	San Juan la Laguna	2	Febrero	2023-02-22T00:00:00	2024-11-08T01:00:00	6	Velocidad del viento	1.6
38142	7	Sololá	717	San Juan la Laguna	12	San Juan la Laguna	2	Febrero	2023-02-22T00:00:00	2024-11-08T01:00:00	7	Dirección del viento	1.61
38143	7	Sololá	717	San Juan la Laguna	12	San Juan la Laguna	2	Febrero	2023-02-22T00:00:00	2024-11-08T01:00:00	1	Precipitación	0
38144	7	Sololá	717	San Juan la Laguna	12	San Juan la Laguna	2	Febrero	2023-02-22T00:00:00	2024-11-08T01:00:00	8	Radiación solar	0
38145	7	Sololá	717	San Juan la Laguna	12	San Juan la Laguna	2	Febrero	2023-02-22T00:00:00	2024-11-08T02:00:00	2	Temperatura media	14.9
38146	7	Sololá	717	San Juan la Laguna	12	San Juan la Laguna	2	Febrero	2023-02-22T00:00:00	2024-11-08T02:00:00	4	Temperatura máxima	15
38147	7	Sololá	717	San Juan la Laguna	12	San Juan la Laguna	2	Febrero	2023-02-22T00:00:00	2024-11-08T02:00:00	3	Temperatura mínima	14.2
38148	7	Sololá	717	San Juan la Laguna	12	San Juan la Laguna	2	Febrero	2023-02-22T00:00:00	2024-11-08T02:00:00	5	Humedad	87
38149	7	Sololá	717	San Juan la Laguna	12	San Juan la Laguna	2	Febrero	2023-02-22T00:00:00	2024-11-08T02:00:00	6	Velocidad del viento	0
38150	7	Sololá	717	San Juan la Laguna	12	San Juan la Laguna	2	Febrero	2023-02-22T00:00:00	2024-11-08T02:00:00	7	Dirección del viento	0
38151	7	Sololá	717	San Juan la Laguna	12	San Juan la Laguna	2	Febrero	2023-02-22T00:00:00	2024-11-08T02:00:00	1	Precipitación	0
38152	7	Sololá	717	San Juan la Laguna	12	San Juan la Laguna	2	Febrero	2023-02-22T00:00:00	2024-11-08T02:00:00	8	Radiación solar	0
38153	7	Sololá	717	San Juan la Laguna	12	San Juan la Laguna	2	Febrero	2023-02-22T00:00:00	2024-11-08T03:00:00	2	Temperatura media	15.7
38154	7	Sololá	717	San Juan la Laguna	12	San Juan la Laguna	2	Febrero	2023-02-22T00:00:00	2024-11-08T03:00:00	4	Temperatura máxima	15.8
38155	7	Sololá	717	San Juan la Laguna	12	San Juan la Laguna	2	Febrero	2023-02-22T00:00:00	2024-11-08T03:00:00	3	Temperatura mínima	15
38156	7	Sololá	717	San Juan la Laguna	12	San Juan la Laguna	2	Febrero	2023-02-22T00:00:00	2024-11-08T03:00:00	5	Humedad	86
38157	7	Sololá	717	San Juan la Laguna	12	San Juan la Laguna	2	Febrero	2023-02-22T00:00:00	2024-11-08T03:00:00	6	Velocidad del viento	0
38158	7	Sololá	717	San Juan la Laguna	12	San Juan la Laguna	2	Febrero	2023-02-22T00:00:00	2024-11-08T03:00:00	7	Dirección del viento	0
38159	7	Sololá	717	San Juan la Laguna	12	San Juan la Laguna	2	Febrero	2023-02-22T00:00:00	2024-11-08T03:00:00	1	Precipitación	0
38160	7	Sololá	717	San Juan la Laguna	12	San Juan la Laguna	2	Febrero	2023-02-22T00:00:00	2024-11-08T03:00:00	8	Radiación solar	0
38161	7	Sololá	717	San Juan la Laguna	12	San Juan la Laguna	2	Febrero	2023-02-22T00:00:00	2024-11-08T04:00:00	2	Temperatura media	14.7
38162	7	Sololá	717	San Juan la Laguna	12	San Juan la Laguna	2	Febrero	2023-02-22T00:00:00	2024-11-08T04:00:00	4	Temperatura máxima	15.7
38163	7	Sololá	717	San Juan la Laguna	12	San Juan la Laguna	2	Febrero	2023-02-22T00:00:00	2024-11-08T04:00:00	3	Temperatura mínima	14.6
38164	7	Sololá	717	San Juan la Laguna	12	San Juan la Laguna	2	Febrero	2023-02-22T00:00:00	2024-11-08T04:00:00	5	Humedad	88
38165	7	Sololá	717	San Juan la Laguna	12	San Juan la Laguna	2	Febrero	2023-02-22T00:00:00	2024-11-08T04:00:00	6	Velocidad del viento	1.6
38166	7	Sololá	717	San Juan la Laguna	12	San Juan la Laguna	2	Febrero	2023-02-22T00:00:00	2024-11-08T04:00:00	7	Dirección del viento	1.61
38167	7	Sololá	717	San Juan la Laguna	12	San Juan la Laguna	2	Febrero	2023-02-22T00:00:00	2024-11-08T04:00:00	1	Precipitación	0
38168	7	Sololá	717	San Juan la Laguna	12	San Juan la Laguna	2	Febrero	2023-02-22T00:00:00	2024-11-08T04:00:00	8	Radiación solar	0
38169	7	Sololá	717	San Juan la Laguna	12	San Juan la Laguna	2	Febrero	2023-02-22T00:00:00	2024-11-08T05:00:00	2	Temperatura media	16.1
38170	7	Sololá	717	San Juan la Laguna	12	San Juan la Laguna	2	Febrero	2023-02-22T00:00:00	2024-11-08T05:00:00	4	Temperatura máxima	16.3
38171	7	Sololá	717	San Juan la Laguna	12	San Juan la Laguna	2	Febrero	2023-02-22T00:00:00	2024-11-08T05:00:00	3	Temperatura mínima	14.7
38172	7	Sololá	717	San Juan la Laguna	12	San Juan la Laguna	2	Febrero	2023-02-22T00:00:00	2024-11-08T05:00:00	5	Humedad	84
38173	7	Sololá	717	San Juan la Laguna	12	San Juan la Laguna	2	Febrero	2023-02-22T00:00:00	2024-11-08T05:00:00	6	Velocidad del viento	3.2
38174	7	Sololá	717	San Juan la Laguna	12	San Juan la Laguna	2	Febrero	2023-02-22T00:00:00	2024-11-08T05:00:00	7	Dirección del viento	3.22
38175	7	Sololá	717	San Juan la Laguna	12	San Juan la Laguna	2	Febrero	2023-02-22T00:00:00	2024-11-08T05:00:00	1	Precipitación	0
38176	7	Sololá	717	San Juan la Laguna	12	San Juan la Laguna	2	Febrero	2023-02-22T00:00:00	2024-11-08T05:00:00	8	Radiación solar	0
38177	7	Sololá	717	San Juan la Laguna	12	San Juan la Laguna	2	Febrero	2023-02-22T00:00:00	2024-11-08T06:00:00	2	Temperatura media	14.7
38178	7	Sololá	717	San Juan la Laguna	12	San Juan la Laguna	2	Febrero	2023-02-22T00:00:00	2024-11-08T06:00:00	4	Temperatura máxima	16.1
38179	7	Sololá	717	San Juan la Laguna	12	San Juan la Laguna	2	Febrero	2023-02-22T00:00:00	2024-11-08T06:00:00	3	Temperatura mínima	14.7
38180	7	Sololá	717	San Juan la Laguna	12	San Juan la Laguna	2	Febrero	2023-02-22T00:00:00	2024-11-08T06:00:00	5	Humedad	88
38181	7	Sololá	717	San Juan la Laguna	12	San Juan la Laguna	2	Febrero	2023-02-22T00:00:00	2024-11-08T06:00:00	6	Velocidad del viento	0
38182	7	Sololá	717	San Juan la Laguna	12	San Juan la Laguna	2	Febrero	2023-02-22T00:00:00	2024-11-08T06:00:00	7	Dirección del viento	0
38183	7	Sololá	717	San Juan la Laguna	12	San Juan la Laguna	2	Febrero	2023-02-22T00:00:00	2024-11-08T06:00:00	1	Precipitación	0
38184	7	Sololá	717	San Juan la Laguna	12	San Juan la Laguna	2	Febrero	2023-02-22T00:00:00	2024-11-08T06:00:00	8	Radiación solar	0
38185	7	Sololá	717	San Juan la Laguna	12	San Juan la Laguna	2	Febrero	2023-02-22T00:00:00	2024-11-08T07:00:00	2	Temperatura media	14.8
38186	7	Sololá	717	San Juan la Laguna	12	San Juan la Laguna	2	Febrero	2023-02-22T00:00:00	2024-11-08T07:00:00	4	Temperatura máxima	15.1
38187	7	Sololá	717	San Juan la Laguna	12	San Juan la Laguna	2	Febrero	2023-02-22T00:00:00	2024-11-08T07:00:00	3	Temperatura mínima	14.7
38188	7	Sololá	717	San Juan la Laguna	12	San Juan la Laguna	2	Febrero	2023-02-22T00:00:00	2024-11-08T07:00:00	5	Humedad	87
38189	7	Sololá	717	San Juan la Laguna	12	San Juan la Laguna	2	Febrero	2023-02-22T00:00:00	2024-11-08T07:00:00	6	Velocidad del viento	0
38190	7	Sololá	717	San Juan la Laguna	12	San Juan la Laguna	2	Febrero	2023-02-22T00:00:00	2024-11-08T07:00:00	7	Dirección del viento	0
38191	7	Sololá	717	San Juan la Laguna	12	San Juan la Laguna	2	Febrero	2023-02-22T00:00:00	2024-11-08T07:00:00	1	Precipitación	0
38192	7	Sololá	717	San Juan la Laguna	12	San Juan la Laguna	2	Febrero	2023-02-22T00:00:00	2024-11-08T07:00:00	8	Radiación solar	13
38193	7	Sololá	717	San Juan la Laguna	12	San Juan la Laguna	2	Febrero	2023-02-22T00:00:00	2024-11-08T08:00:00	2	Temperatura media	16.8
38194	7	Sololá	717	San Juan la Laguna	12	San Juan la Laguna	2	Febrero	2023-02-22T00:00:00	2024-11-08T08:00:00	4	Temperatura máxima	16.8
38195	7	Sololá	717	San Juan la Laguna	12	San Juan la Laguna	2	Febrero	2023-02-22T00:00:00	2024-11-08T08:00:00	3	Temperatura mínima	14.8
38196	7	Sololá	717	San Juan la Laguna	12	San Juan la Laguna	2	Febrero	2023-02-22T00:00:00	2024-11-08T08:00:00	5	Humedad	83
38197	7	Sololá	717	San Juan la Laguna	12	San Juan la Laguna	2	Febrero	2023-02-22T00:00:00	2024-11-08T08:00:00	6	Velocidad del viento	0
38198	7	Sololá	717	San Juan la Laguna	12	San Juan la Laguna	2	Febrero	2023-02-22T00:00:00	2024-11-08T08:00:00	7	Dirección del viento	0
38199	7	Sololá	717	San Juan la Laguna	12	San Juan la Laguna	2	Febrero	2023-02-22T00:00:00	2024-11-08T08:00:00	1	Precipitación	0
38200	7	Sololá	717	San Juan la Laguna	12	San Juan la Laguna	2	Febrero	2023-02-22T00:00:00	2024-11-08T08:00:00	8	Radiación solar	98
38201	7	Sololá	717	San Juan la Laguna	12	San Juan la Laguna	2	Febrero	2023-02-22T00:00:00	2024-11-08T09:00:00	2	Temperatura media	18.6
38202	7	Sololá	717	San Juan la Laguna	12	San Juan la Laguna	2	Febrero	2023-02-22T00:00:00	2024-11-08T09:00:00	4	Temperatura máxima	18.6
38203	7	Sololá	717	San Juan la Laguna	12	San Juan la Laguna	2	Febrero	2023-02-22T00:00:00	2024-11-08T09:00:00	3	Temperatura mínima	16.8
38204	7	Sololá	717	San Juan la Laguna	12	San Juan la Laguna	2	Febrero	2023-02-22T00:00:00	2024-11-08T09:00:00	5	Humedad	79
38205	7	Sololá	717	San Juan la Laguna	12	San Juan la Laguna	2	Febrero	2023-02-22T00:00:00	2024-11-08T09:00:00	6	Velocidad del viento	0
38206	7	Sololá	717	San Juan la Laguna	12	San Juan la Laguna	2	Febrero	2023-02-22T00:00:00	2024-11-08T09:00:00	7	Dirección del viento	0
38207	7	Sololá	717	San Juan la Laguna	12	San Juan la Laguna	2	Febrero	2023-02-22T00:00:00	2024-11-08T09:00:00	1	Precipitación	0
38208	7	Sololá	717	San Juan la Laguna	12	San Juan la Laguna	2	Febrero	2023-02-22T00:00:00	2024-11-08T09:00:00	8	Radiación solar	185
38209	7	Sololá	717	San Juan la Laguna	12	San Juan la Laguna	2	Febrero	2023-02-22T00:00:00	2024-11-08T10:00:00	2	Temperatura media	19.9
38210	7	Sololá	717	San Juan la Laguna	12	San Juan la Laguna	2	Febrero	2023-02-22T00:00:00	2024-11-08T10:00:00	4	Temperatura máxima	20.1
38211	7	Sololá	717	San Juan la Laguna	12	San Juan la Laguna	2	Febrero	2023-02-22T00:00:00	2024-11-08T10:00:00	3	Temperatura mínima	18.6
38212	7	Sololá	717	San Juan la Laguna	12	San Juan la Laguna	2	Febrero	2023-02-22T00:00:00	2024-11-08T10:00:00	5	Humedad	74
38213	7	Sololá	717	San Juan la Laguna	12	San Juan la Laguna	2	Febrero	2023-02-22T00:00:00	2024-11-08T10:00:00	6	Velocidad del viento	1.6
38214	7	Sololá	717	San Juan la Laguna	12	San Juan la Laguna	2	Febrero	2023-02-22T00:00:00	2024-11-08T10:00:00	7	Dirección del viento	1.61
38215	7	Sololá	717	San Juan la Laguna	12	San Juan la Laguna	2	Febrero	2023-02-22T00:00:00	2024-11-08T10:00:00	1	Precipitación	0
38216	7	Sololá	717	San Juan la Laguna	12	San Juan la Laguna	2	Febrero	2023-02-22T00:00:00	2024-11-08T10:00:00	8	Radiación solar	433
38217	7	Sololá	717	San Juan la Laguna	12	San Juan la Laguna	2	Febrero	2023-02-22T00:00:00	2024-11-08T11:00:00	2	Temperatura media	20.7
38218	7	Sololá	717	San Juan la Laguna	12	San Juan la Laguna	2	Febrero	2023-02-22T00:00:00	2024-11-08T11:00:00	4	Temperatura máxima	21.1
38219	7	Sololá	717	San Juan la Laguna	12	San Juan la Laguna	2	Febrero	2023-02-22T00:00:00	2024-11-08T11:00:00	3	Temperatura mínima	19.8
38220	7	Sololá	717	San Juan la Laguna	12	San Juan la Laguna	2	Febrero	2023-02-22T00:00:00	2024-11-08T11:00:00	5	Humedad	71
38221	7	Sololá	717	San Juan la Laguna	12	San Juan la Laguna	2	Febrero	2023-02-22T00:00:00	2024-11-08T11:00:00	6	Velocidad del viento	3.2
38222	7	Sololá	717	San Juan la Laguna	12	San Juan la Laguna	2	Febrero	2023-02-22T00:00:00	2024-11-08T11:00:00	7	Dirección del viento	3.22
38223	7	Sololá	717	San Juan la Laguna	12	San Juan la Laguna	2	Febrero	2023-02-22T00:00:00	2024-11-08T11:00:00	1	Precipitación	0
38224	7	Sololá	717	San Juan la Laguna	12	San Juan la Laguna	2	Febrero	2023-02-22T00:00:00	2024-11-08T11:00:00	8	Radiación solar	664
38225	7	Sololá	717	San Juan la Laguna	12	San Juan la Laguna	2	Febrero	2023-02-22T00:00:00	2024-11-08T12:00:00	2	Temperatura media	23
38226	7	Sololá	717	San Juan la Laguna	12	San Juan la Laguna	2	Febrero	2023-02-22T00:00:00	2024-11-08T12:00:00	4	Temperatura máxima	23
38227	7	Sololá	717	San Juan la Laguna	12	San Juan la Laguna	2	Febrero	2023-02-22T00:00:00	2024-11-08T12:00:00	3	Temperatura mínima	20.3
38228	7	Sololá	717	San Juan la Laguna	12	San Juan la Laguna	2	Febrero	2023-02-22T00:00:00	2024-11-08T12:00:00	5	Humedad	61
38229	7	Sololá	717	San Juan la Laguna	12	San Juan la Laguna	2	Febrero	2023-02-22T00:00:00	2024-11-08T12:00:00	6	Velocidad del viento	1.6
38230	7	Sololá	717	San Juan la Laguna	12	San Juan la Laguna	2	Febrero	2023-02-22T00:00:00	2024-11-08T12:00:00	7	Dirección del viento	1.61
38231	7	Sololá	717	San Juan la Laguna	12	San Juan la Laguna	2	Febrero	2023-02-22T00:00:00	2024-11-08T12:00:00	1	Precipitación	0
38232	7	Sololá	717	San Juan la Laguna	12	San Juan la Laguna	2	Febrero	2023-02-22T00:00:00	2024-11-08T12:00:00	8	Radiación solar	534
38233	7	Sololá	717	San Juan la Laguna	12	San Juan la Laguna	2	Febrero	2023-02-22T00:00:00	2024-11-08T13:00:00	2	Temperatura media	22.2
38234	7	Sololá	717	San Juan la Laguna	12	San Juan la Laguna	2	Febrero	2023-02-22T00:00:00	2024-11-08T13:00:00	4	Temperatura máxima	23.1
38235	7	Sololá	717	San Juan la Laguna	12	San Juan la Laguna	2	Febrero	2023-02-22T00:00:00	2024-11-08T13:00:00	3	Temperatura mínima	21.4
38236	7	Sololá	717	San Juan la Laguna	12	San Juan la Laguna	2	Febrero	2023-02-22T00:00:00	2024-11-08T13:00:00	5	Humedad	63
38237	7	Sololá	717	San Juan la Laguna	12	San Juan la Laguna	2	Febrero	2023-02-22T00:00:00	2024-11-08T13:00:00	6	Velocidad del viento	6.4
38238	7	Sololá	717	San Juan la Laguna	12	San Juan la Laguna	2	Febrero	2023-02-22T00:00:00	2024-11-08T13:00:00	7	Dirección del viento	6.44
38239	7	Sololá	717	San Juan la Laguna	12	San Juan la Laguna	2	Febrero	2023-02-22T00:00:00	2024-11-08T13:00:00	1	Precipitación	0
38240	7	Sololá	717	San Juan la Laguna	12	San Juan la Laguna	2	Febrero	2023-02-22T00:00:00	2024-11-08T13:00:00	8	Radiación solar	695
38241	7	Sololá	717	San Juan la Laguna	12	San Juan la Laguna	2	Febrero	2023-02-22T00:00:00	2024-11-08T14:00:00	2	Temperatura media	22.7
38242	7	Sololá	717	San Juan la Laguna	12	San Juan la Laguna	2	Febrero	2023-02-22T00:00:00	2024-11-08T14:00:00	4	Temperatura máxima	23.3
38243	7	Sololá	717	San Juan la Laguna	12	San Juan la Laguna	2	Febrero	2023-02-22T00:00:00	2024-11-08T14:00:00	3	Temperatura mínima	22.2
38244	7	Sololá	717	San Juan la Laguna	12	San Juan la Laguna	2	Febrero	2023-02-22T00:00:00	2024-11-08T14:00:00	5	Humedad	62
38245	7	Sololá	717	San Juan la Laguna	12	San Juan la Laguna	2	Febrero	2023-02-22T00:00:00	2024-11-08T14:00:00	6	Velocidad del viento	6.4
38246	7	Sololá	717	San Juan la Laguna	12	San Juan la Laguna	2	Febrero	2023-02-22T00:00:00	2024-11-08T14:00:00	7	Dirección del viento	6.44
38247	7	Sololá	717	San Juan la Laguna	12	San Juan la Laguna	2	Febrero	2023-02-22T00:00:00	2024-11-08T14:00:00	1	Precipitación	0
38248	7	Sololá	717	San Juan la Laguna	12	San Juan la Laguna	2	Febrero	2023-02-22T00:00:00	2024-11-08T14:00:00	8	Radiación solar	868
38249	7	Sololá	717	San Juan la Laguna	12	San Juan la Laguna	2	Febrero	2023-02-22T00:00:00	2024-11-08T15:00:00	2	Temperatura media	21.5
38250	7	Sololá	717	San Juan la Laguna	12	San Juan la Laguna	2	Febrero	2023-02-22T00:00:00	2024-11-08T15:00:00	4	Temperatura máxima	22.6
38251	7	Sololá	717	San Juan la Laguna	12	San Juan la Laguna	2	Febrero	2023-02-22T00:00:00	2024-11-08T15:00:00	3	Temperatura mínima	21.5
38252	7	Sololá	717	San Juan la Laguna	12	San Juan la Laguna	2	Febrero	2023-02-22T00:00:00	2024-11-08T15:00:00	5	Humedad	67
38253	7	Sololá	717	San Juan la Laguna	12	San Juan la Laguna	2	Febrero	2023-02-22T00:00:00	2024-11-08T15:00:00	6	Velocidad del viento	8
38254	7	Sololá	717	San Juan la Laguna	12	San Juan la Laguna	2	Febrero	2023-02-22T00:00:00	2024-11-08T15:00:00	7	Dirección del viento	8.05
38255	7	Sololá	717	San Juan la Laguna	12	San Juan la Laguna	2	Febrero	2023-02-22T00:00:00	2024-11-08T15:00:00	1	Precipitación	0
38256	7	Sololá	717	San Juan la Laguna	12	San Juan la Laguna	2	Febrero	2023-02-22T00:00:00	2024-11-08T15:00:00	8	Radiación solar	669
38257	7	Sololá	717	San Juan la Laguna	12	San Juan la Laguna	2	Febrero	2023-02-22T00:00:00	2024-11-08T16:00:00	2	Temperatura media	20.8
38258	7	Sololá	717	San Juan la Laguna	12	San Juan la Laguna	2	Febrero	2023-02-22T00:00:00	2024-11-08T16:00:00	4	Temperatura máxima	21.6
38259	7	Sololá	717	San Juan la Laguna	12	San Juan la Laguna	2	Febrero	2023-02-22T00:00:00	2024-11-08T16:00:00	3	Temperatura mínima	20.8
38260	7	Sololá	717	San Juan la Laguna	12	San Juan la Laguna	2	Febrero	2023-02-22T00:00:00	2024-11-08T16:00:00	5	Humedad	70
38261	7	Sololá	717	San Juan la Laguna	12	San Juan la Laguna	2	Febrero	2023-02-22T00:00:00	2024-11-08T16:00:00	6	Velocidad del viento	11.3
38262	7	Sololá	717	San Juan la Laguna	12	San Juan la Laguna	2	Febrero	2023-02-22T00:00:00	2024-11-08T16:00:00	7	Dirección del viento	11.27
38263	7	Sololá	717	San Juan la Laguna	12	San Juan la Laguna	2	Febrero	2023-02-22T00:00:00	2024-11-08T16:00:00	1	Precipitación	0
38264	7	Sololá	717	San Juan la Laguna	12	San Juan la Laguna	2	Febrero	2023-02-22T00:00:00	2024-11-08T16:00:00	8	Radiación solar	568
38265	7	Sololá	717	San Juan la Laguna	12	San Juan la Laguna	2	Febrero	2023-02-22T00:00:00	2024-11-08T17:00:00	2	Temperatura media	20.3
38266	7	Sololá	717	San Juan la Laguna	12	San Juan la Laguna	2	Febrero	2023-02-22T00:00:00	2024-11-08T17:00:00	4	Temperatura máxima	20.8
38267	7	Sololá	717	San Juan la Laguna	12	San Juan la Laguna	2	Febrero	2023-02-22T00:00:00	2024-11-08T17:00:00	3	Temperatura mínima	20.2
38268	7	Sololá	717	San Juan la Laguna	12	San Juan la Laguna	2	Febrero	2023-02-22T00:00:00	2024-11-08T17:00:00	5	Humedad	73
38269	7	Sololá	717	San Juan la Laguna	12	San Juan la Laguna	2	Febrero	2023-02-22T00:00:00	2024-11-08T17:00:00	6	Velocidad del viento	6.4
38270	7	Sololá	717	San Juan la Laguna	12	San Juan la Laguna	2	Febrero	2023-02-22T00:00:00	2024-11-08T17:00:00	7	Dirección del viento	6.44
38271	7	Sololá	717	San Juan la Laguna	12	San Juan la Laguna	2	Febrero	2023-02-22T00:00:00	2024-11-08T17:00:00	1	Precipitación	0
38272	7	Sololá	717	San Juan la Laguna	12	San Juan la Laguna	2	Febrero	2023-02-22T00:00:00	2024-11-08T17:00:00	8	Radiación solar	290
38273	7	Sololá	717	San Juan la Laguna	12	San Juan la Laguna	2	Febrero	2023-02-22T00:00:00	2024-11-08T18:00:00	2	Temperatura media	19.2
38274	7	Sololá	717	San Juan la Laguna	12	San Juan la Laguna	2	Febrero	2023-02-22T00:00:00	2024-11-08T18:00:00	4	Temperatura máxima	20.4
38275	7	Sololá	717	San Juan la Laguna	12	San Juan la Laguna	2	Febrero	2023-02-22T00:00:00	2024-11-08T18:00:00	3	Temperatura mínima	19.2
38276	7	Sololá	717	San Juan la Laguna	12	San Juan la Laguna	2	Febrero	2023-02-22T00:00:00	2024-11-08T18:00:00	5	Humedad	76
38277	7	Sololá	717	San Juan la Laguna	12	San Juan la Laguna	2	Febrero	2023-02-22T00:00:00	2024-11-08T18:00:00	6	Velocidad del viento	3.2
38278	7	Sololá	717	San Juan la Laguna	12	San Juan la Laguna	2	Febrero	2023-02-22T00:00:00	2024-11-08T18:00:00	7	Dirección del viento	3.22
38279	7	Sololá	717	San Juan la Laguna	12	San Juan la Laguna	2	Febrero	2023-02-22T00:00:00	2024-11-08T18:00:00	1	Precipitación	0
38280	7	Sololá	717	San Juan la Laguna	12	San Juan la Laguna	2	Febrero	2023-02-22T00:00:00	2024-11-08T18:00:00	8	Radiación solar	45
38281	7	Sololá	717	San Juan la Laguna	12	San Juan la Laguna	2	Febrero	2023-02-22T00:00:00	2024-11-08T19:00:00	2	Temperatura media	18.3
38282	7	Sololá	717	San Juan la Laguna	12	San Juan la Laguna	2	Febrero	2023-02-22T00:00:00	2024-11-08T19:00:00	4	Temperatura máxima	19.2
38283	7	Sololá	717	San Juan la Laguna	12	San Juan la Laguna	2	Febrero	2023-02-22T00:00:00	2024-11-08T19:00:00	3	Temperatura mínima	18.3
38284	7	Sololá	717	San Juan la Laguna	12	San Juan la Laguna	2	Febrero	2023-02-22T00:00:00	2024-11-08T19:00:00	5	Humedad	80
38285	7	Sololá	717	San Juan la Laguna	12	San Juan la Laguna	2	Febrero	2023-02-22T00:00:00	2024-11-08T19:00:00	6	Velocidad del viento	1.6
38286	7	Sololá	717	San Juan la Laguna	12	San Juan la Laguna	2	Febrero	2023-02-22T00:00:00	2024-11-08T19:00:00	7	Dirección del viento	1.61
38287	7	Sololá	717	San Juan la Laguna	12	San Juan la Laguna	2	Febrero	2023-02-22T00:00:00	2024-11-08T19:00:00	1	Precipitación	0
38288	7	Sololá	717	San Juan la Laguna	12	San Juan la Laguna	2	Febrero	2023-02-22T00:00:00	2024-11-08T19:00:00	8	Radiación solar	0
38289	7	Sololá	717	San Juan la Laguna	12	San Juan la Laguna	2	Febrero	2023-02-22T00:00:00	2024-11-08T20:00:00	2	Temperatura media	17.9
38290	7	Sololá	717	San Juan la Laguna	12	San Juan la Laguna	2	Febrero	2023-02-22T00:00:00	2024-11-08T20:00:00	4	Temperatura máxima	18.3
38291	7	Sololá	717	San Juan la Laguna	12	San Juan la Laguna	2	Febrero	2023-02-22T00:00:00	2024-11-08T20:00:00	3	Temperatura mínima	17.8
38292	7	Sololá	717	San Juan la Laguna	12	San Juan la Laguna	2	Febrero	2023-02-22T00:00:00	2024-11-08T20:00:00	5	Humedad	83
38293	7	Sololá	717	San Juan la Laguna	12	San Juan la Laguna	2	Febrero	2023-02-22T00:00:00	2024-11-08T20:00:00	6	Velocidad del viento	1.6
38294	7	Sololá	717	San Juan la Laguna	12	San Juan la Laguna	2	Febrero	2023-02-22T00:00:00	2024-11-08T20:00:00	7	Dirección del viento	1.61
38295	7	Sololá	717	San Juan la Laguna	12	San Juan la Laguna	2	Febrero	2023-02-22T00:00:00	2024-11-08T20:00:00	1	Precipitación	0
38296	7	Sololá	717	San Juan la Laguna	12	San Juan la Laguna	2	Febrero	2023-02-22T00:00:00	2024-11-08T20:00:00	8	Radiación solar	0
38297	7	Sololá	717	San Juan la Laguna	12	San Juan la Laguna	2	Febrero	2023-02-22T00:00:00	2024-11-08T21:00:00	2	Temperatura media	16.8
38298	7	Sololá	717	San Juan la Laguna	12	San Juan la Laguna	2	Febrero	2023-02-22T00:00:00	2024-11-08T21:00:00	4	Temperatura máxima	18.1
38299	7	Sololá	717	San Juan la Laguna	12	San Juan la Laguna	2	Febrero	2023-02-22T00:00:00	2024-11-08T21:00:00	3	Temperatura mínima	16.8
38300	7	Sololá	717	San Juan la Laguna	12	San Juan la Laguna	2	Febrero	2023-02-22T00:00:00	2024-11-08T21:00:00	5	Humedad	88
38301	7	Sololá	717	San Juan la Laguna	12	San Juan la Laguna	2	Febrero	2023-02-22T00:00:00	2024-11-08T21:00:00	6	Velocidad del viento	4.8
38302	7	Sololá	717	San Juan la Laguna	12	San Juan la Laguna	2	Febrero	2023-02-22T00:00:00	2024-11-08T21:00:00	7	Dirección del viento	4.83
38303	7	Sololá	717	San Juan la Laguna	12	San Juan la Laguna	2	Febrero	2023-02-22T00:00:00	2024-11-08T21:00:00	1	Precipitación	0
38304	7	Sololá	717	San Juan la Laguna	12	San Juan la Laguna	2	Febrero	2023-02-22T00:00:00	2024-11-08T21:00:00	8	Radiación solar	0
38305	7	Sololá	717	San Juan la Laguna	12	San Juan la Laguna	2	Febrero	2023-02-22T00:00:00	2024-11-08T22:00:00	2	Temperatura media	17.1
38306	7	Sololá	717	San Juan la Laguna	12	San Juan la Laguna	2	Febrero	2023-02-22T00:00:00	2024-11-08T22:00:00	4	Temperatura máxima	17.1
38307	7	Sololá	717	San Juan la Laguna	12	San Juan la Laguna	2	Febrero	2023-02-22T00:00:00	2024-11-08T22:00:00	3	Temperatura mínima	16.6
38308	7	Sololá	717	San Juan la Laguna	12	San Juan la Laguna	2	Febrero	2023-02-22T00:00:00	2024-11-08T22:00:00	5	Humedad	85
38309	7	Sololá	717	San Juan la Laguna	12	San Juan la Laguna	2	Febrero	2023-02-22T00:00:00	2024-11-08T22:00:00	6	Velocidad del viento	4.8
38310	7	Sololá	717	San Juan la Laguna	12	San Juan la Laguna	2	Febrero	2023-02-22T00:00:00	2024-11-08T22:00:00	7	Dirección del viento	4.83
38311	7	Sololá	717	San Juan la Laguna	12	San Juan la Laguna	2	Febrero	2023-02-22T00:00:00	2024-11-08T22:00:00	1	Precipitación	0
38312	7	Sololá	717	San Juan la Laguna	12	San Juan la Laguna	2	Febrero	2023-02-22T00:00:00	2024-11-08T22:00:00	8	Radiación solar	0
38313	7	Sololá	717	San Juan la Laguna	12	San Juan la Laguna	2	Febrero	2023-02-22T00:00:00	2024-11-08T23:00:00	2	Temperatura media	17
38314	7	Sololá	717	San Juan la Laguna	12	San Juan la Laguna	2	Febrero	2023-02-22T00:00:00	2024-11-08T23:00:00	4	Temperatura máxima	17.1
38315	7	Sololá	717	San Juan la Laguna	12	San Juan la Laguna	2	Febrero	2023-02-22T00:00:00	2024-11-08T23:00:00	3	Temperatura mínima	16.9
38316	7	Sololá	717	San Juan la Laguna	12	San Juan la Laguna	2	Febrero	2023-02-22T00:00:00	2024-11-08T23:00:00	5	Humedad	85
38317	7	Sololá	717	San Juan la Laguna	12	San Juan la Laguna	2	Febrero	2023-02-22T00:00:00	2024-11-08T23:00:00	6	Velocidad del viento	6.4
38318	7	Sololá	717	San Juan la Laguna	12	San Juan la Laguna	2	Febrero	2023-02-22T00:00:00	2024-11-08T23:00:00	7	Dirección del viento	6.44
38319	7	Sololá	717	San Juan la Laguna	12	San Juan la Laguna	2	Febrero	2023-02-22T00:00:00	2024-11-08T23:00:00	1	Precipitación	0
38320	7	Sololá	717	San Juan la Laguna	12	San Juan la Laguna	2	Febrero	2023-02-22T00:00:00	2024-11-08T23:00:00	8	Radiación solar	0
38321	7	Sololá	717	San Juan la Laguna	12	San Juan la Laguna	2	Febrero	2023-02-23T00:00:00	2024-11-08T00:00:00	2	Temperatura media	17.1
38322	7	Sololá	717	San Juan la Laguna	12	San Juan la Laguna	2	Febrero	2023-02-23T00:00:00	2024-11-08T00:00:00	4	Temperatura máxima	17.2
38323	7	Sololá	717	San Juan la Laguna	12	San Juan la Laguna	2	Febrero	2023-02-23T00:00:00	2024-11-08T00:00:00	3	Temperatura mínima	17
38324	7	Sololá	717	San Juan la Laguna	12	San Juan la Laguna	2	Febrero	2023-02-23T00:00:00	2024-11-08T00:00:00	5	Humedad	85
38325	7	Sololá	717	San Juan la Laguna	12	San Juan la Laguna	2	Febrero	2023-02-23T00:00:00	2024-11-08T00:00:00	6	Velocidad del viento	1.6
38326	7	Sololá	717	San Juan la Laguna	12	San Juan la Laguna	2	Febrero	2023-02-23T00:00:00	2024-11-08T00:00:00	7	Dirección del viento	1.61
38327	7	Sololá	717	San Juan la Laguna	12	San Juan la Laguna	2	Febrero	2023-02-23T00:00:00	2024-11-08T00:00:00	1	Precipitación	0
38328	7	Sololá	717	San Juan la Laguna	12	San Juan la Laguna	2	Febrero	2023-02-23T00:00:00	2024-11-08T00:00:00	8	Radiación solar	0
38329	7	Sololá	717	San Juan la Laguna	12	San Juan la Laguna	2	Febrero	2023-02-23T00:00:00	2024-11-08T01:00:00	2	Temperatura media	16.6
38330	7	Sololá	717	San Juan la Laguna	12	San Juan la Laguna	2	Febrero	2023-02-23T00:00:00	2024-11-08T01:00:00	4	Temperatura máxima	17.1
38331	7	Sololá	717	San Juan la Laguna	12	San Juan la Laguna	2	Febrero	2023-02-23T00:00:00	2024-11-08T01:00:00	3	Temperatura mínima	16.6
38332	7	Sololá	717	San Juan la Laguna	12	San Juan la Laguna	2	Febrero	2023-02-23T00:00:00	2024-11-08T01:00:00	5	Humedad	87
38333	7	Sololá	717	San Juan la Laguna	12	San Juan la Laguna	2	Febrero	2023-02-23T00:00:00	2024-11-08T01:00:00	6	Velocidad del viento	0
38334	7	Sololá	717	San Juan la Laguna	12	San Juan la Laguna	2	Febrero	2023-02-23T00:00:00	2024-11-08T01:00:00	7	Dirección del viento	0
38335	7	Sololá	717	San Juan la Laguna	12	San Juan la Laguna	2	Febrero	2023-02-23T00:00:00	2024-11-08T01:00:00	1	Precipitación	0
38336	7	Sololá	717	San Juan la Laguna	12	San Juan la Laguna	2	Febrero	2023-02-23T00:00:00	2024-11-08T01:00:00	8	Radiación solar	0
38337	7	Sololá	717	San Juan la Laguna	12	San Juan la Laguna	2	Febrero	2023-02-23T00:00:00	2024-11-08T02:00:00	2	Temperatura media	16.9
38338	7	Sololá	717	San Juan la Laguna	12	San Juan la Laguna	2	Febrero	2023-02-23T00:00:00	2024-11-08T02:00:00	4	Temperatura máxima	17
38339	7	Sololá	717	San Juan la Laguna	12	San Juan la Laguna	2	Febrero	2023-02-23T00:00:00	2024-11-08T02:00:00	3	Temperatura mínima	16.6
38340	7	Sololá	717	San Juan la Laguna	12	San Juan la Laguna	2	Febrero	2023-02-23T00:00:00	2024-11-08T02:00:00	5	Humedad	86
38341	7	Sololá	717	San Juan la Laguna	12	San Juan la Laguna	2	Febrero	2023-02-23T00:00:00	2024-11-08T02:00:00	6	Velocidad del viento	0
38342	7	Sololá	717	San Juan la Laguna	12	San Juan la Laguna	2	Febrero	2023-02-23T00:00:00	2024-11-08T02:00:00	7	Dirección del viento	0
38343	7	Sololá	717	San Juan la Laguna	12	San Juan la Laguna	2	Febrero	2023-02-23T00:00:00	2024-11-08T02:00:00	1	Precipitación	0
38344	7	Sololá	717	San Juan la Laguna	12	San Juan la Laguna	2	Febrero	2023-02-23T00:00:00	2024-11-08T02:00:00	8	Radiación solar	0
38345	7	Sololá	717	San Juan la Laguna	12	San Juan la Laguna	2	Febrero	2023-02-23T00:00:00	2024-11-08T03:00:00	2	Temperatura media	17.1
38346	7	Sololá	717	San Juan la Laguna	12	San Juan la Laguna	2	Febrero	2023-02-23T00:00:00	2024-11-08T03:00:00	4	Temperatura máxima	17.1
38347	7	Sololá	717	San Juan la Laguna	12	San Juan la Laguna	2	Febrero	2023-02-23T00:00:00	2024-11-08T03:00:00	3	Temperatura mínima	16.8
38348	7	Sololá	717	San Juan la Laguna	12	San Juan la Laguna	2	Febrero	2023-02-23T00:00:00	2024-11-08T03:00:00	5	Humedad	87
38349	7	Sololá	717	San Juan la Laguna	12	San Juan la Laguna	2	Febrero	2023-02-23T00:00:00	2024-11-08T03:00:00	6	Velocidad del viento	0
38350	7	Sololá	717	San Juan la Laguna	12	San Juan la Laguna	2	Febrero	2023-02-23T00:00:00	2024-11-08T03:00:00	7	Dirección del viento	0
38351	7	Sololá	717	San Juan la Laguna	12	San Juan la Laguna	2	Febrero	2023-02-23T00:00:00	2024-11-08T03:00:00	1	Precipitación	0
38352	7	Sololá	717	San Juan la Laguna	12	San Juan la Laguna	2	Febrero	2023-02-23T00:00:00	2024-11-08T03:00:00	8	Radiación solar	0
38353	7	Sololá	717	San Juan la Laguna	12	San Juan la Laguna	2	Febrero	2023-02-23T00:00:00	2024-11-08T04:00:00	2	Temperatura media	16.9
38354	7	Sololá	717	San Juan la Laguna	12	San Juan la Laguna	2	Febrero	2023-02-23T00:00:00	2024-11-08T04:00:00	4	Temperatura máxima	17.2
38355	7	Sololá	717	San Juan la Laguna	12	San Juan la Laguna	2	Febrero	2023-02-23T00:00:00	2024-11-08T04:00:00	3	Temperatura mínima	16.9
38356	7	Sololá	717	San Juan la Laguna	12	San Juan la Laguna	2	Febrero	2023-02-23T00:00:00	2024-11-08T04:00:00	5	Humedad	86
38357	7	Sololá	717	San Juan la Laguna	12	San Juan la Laguna	2	Febrero	2023-02-23T00:00:00	2024-11-08T04:00:00	6	Velocidad del viento	1.6
38358	7	Sololá	717	San Juan la Laguna	12	San Juan la Laguna	2	Febrero	2023-02-23T00:00:00	2024-11-08T04:00:00	7	Dirección del viento	1.61
38359	7	Sololá	717	San Juan la Laguna	12	San Juan la Laguna	2	Febrero	2023-02-23T00:00:00	2024-11-08T04:00:00	1	Precipitación	0
38360	7	Sololá	717	San Juan la Laguna	12	San Juan la Laguna	2	Febrero	2023-02-23T00:00:00	2024-11-08T04:00:00	8	Radiación solar	0
38361	7	Sololá	717	San Juan la Laguna	12	San Juan la Laguna	2	Febrero	2023-02-23T00:00:00	2024-11-08T05:00:00	2	Temperatura media	16.6
38362	7	Sololá	717	San Juan la Laguna	12	San Juan la Laguna	2	Febrero	2023-02-23T00:00:00	2024-11-08T05:00:00	4	Temperatura máxima	16.9
38363	7	Sololá	717	San Juan la Laguna	12	San Juan la Laguna	2	Febrero	2023-02-23T00:00:00	2024-11-08T05:00:00	3	Temperatura mínima	16.6
38364	7	Sololá	717	San Juan la Laguna	12	San Juan la Laguna	2	Febrero	2023-02-23T00:00:00	2024-11-08T05:00:00	5	Humedad	85
38365	7	Sololá	717	San Juan la Laguna	12	San Juan la Laguna	2	Febrero	2023-02-23T00:00:00	2024-11-08T05:00:00	6	Velocidad del viento	1.6
38366	7	Sololá	717	San Juan la Laguna	12	San Juan la Laguna	2	Febrero	2023-02-23T00:00:00	2024-11-08T05:00:00	7	Dirección del viento	1.61
38367	7	Sololá	717	San Juan la Laguna	12	San Juan la Laguna	2	Febrero	2023-02-23T00:00:00	2024-11-08T05:00:00	1	Precipitación	0
38368	7	Sololá	717	San Juan la Laguna	12	San Juan la Laguna	2	Febrero	2023-02-23T00:00:00	2024-11-08T05:00:00	8	Radiación solar	0
38369	7	Sololá	717	San Juan la Laguna	12	San Juan la Laguna	2	Febrero	2023-02-23T00:00:00	2024-11-08T06:00:00	2	Temperatura media	16.2
38370	7	Sololá	717	San Juan la Laguna	12	San Juan la Laguna	2	Febrero	2023-02-23T00:00:00	2024-11-08T06:00:00	4	Temperatura máxima	16.6
38371	7	Sololá	717	San Juan la Laguna	12	San Juan la Laguna	2	Febrero	2023-02-23T00:00:00	2024-11-08T06:00:00	3	Temperatura mínima	16.2
38372	7	Sololá	717	San Juan la Laguna	12	San Juan la Laguna	2	Febrero	2023-02-23T00:00:00	2024-11-08T06:00:00	5	Humedad	84
38373	7	Sololá	717	San Juan la Laguna	12	San Juan la Laguna	2	Febrero	2023-02-23T00:00:00	2024-11-08T06:00:00	6	Velocidad del viento	0
38374	7	Sololá	717	San Juan la Laguna	12	San Juan la Laguna	2	Febrero	2023-02-23T00:00:00	2024-11-08T06:00:00	7	Dirección del viento	0
38375	7	Sololá	717	San Juan la Laguna	12	San Juan la Laguna	2	Febrero	2023-02-23T00:00:00	2024-11-08T06:00:00	1	Precipitación	0
38376	7	Sololá	717	San Juan la Laguna	12	San Juan la Laguna	2	Febrero	2023-02-23T00:00:00	2024-11-08T06:00:00	8	Radiación solar	0
38377	7	Sololá	717	San Juan la Laguna	12	San Juan la Laguna	2	Febrero	2023-02-23T00:00:00	2024-11-08T07:00:00	2	Temperatura media	15.7
38378	7	Sololá	717	San Juan la Laguna	12	San Juan la Laguna	2	Febrero	2023-02-23T00:00:00	2024-11-08T07:00:00	4	Temperatura máxima	16.3
38379	7	Sololá	717	San Juan la Laguna	12	San Juan la Laguna	2	Febrero	2023-02-23T00:00:00	2024-11-08T07:00:00	3	Temperatura mínima	15.5
38380	7	Sololá	717	San Juan la Laguna	12	San Juan la Laguna	2	Febrero	2023-02-23T00:00:00	2024-11-08T07:00:00	5	Humedad	82
38381	7	Sololá	717	San Juan la Laguna	12	San Juan la Laguna	2	Febrero	2023-02-23T00:00:00	2024-11-08T07:00:00	6	Velocidad del viento	0
38382	7	Sololá	717	San Juan la Laguna	12	San Juan la Laguna	2	Febrero	2023-02-23T00:00:00	2024-11-08T07:00:00	7	Dirección del viento	0
38383	7	Sololá	717	San Juan la Laguna	12	San Juan la Laguna	2	Febrero	2023-02-23T00:00:00	2024-11-08T07:00:00	1	Precipitación	0
38384	7	Sololá	717	San Juan la Laguna	12	San Juan la Laguna	2	Febrero	2023-02-23T00:00:00	2024-11-08T07:00:00	8	Radiación solar	10
38385	7	Sololá	717	San Juan la Laguna	12	San Juan la Laguna	2	Febrero	2023-02-23T00:00:00	2024-11-08T08:00:00	2	Temperatura media	16.9
38386	7	Sololá	717	San Juan la Laguna	12	San Juan la Laguna	2	Febrero	2023-02-23T00:00:00	2024-11-08T08:00:00	4	Temperatura máxima	16.9
38387	7	Sololá	717	San Juan la Laguna	12	San Juan la Laguna	2	Febrero	2023-02-23T00:00:00	2024-11-08T08:00:00	3	Temperatura mínima	15.8
38388	7	Sololá	717	San Juan la Laguna	12	San Juan la Laguna	2	Febrero	2023-02-23T00:00:00	2024-11-08T08:00:00	5	Humedad	73
38389	7	Sololá	717	San Juan la Laguna	12	San Juan la Laguna	2	Febrero	2023-02-23T00:00:00	2024-11-08T08:00:00	6	Velocidad del viento	1.6
38390	7	Sololá	717	San Juan la Laguna	12	San Juan la Laguna	2	Febrero	2023-02-23T00:00:00	2024-11-08T08:00:00	7	Dirección del viento	1.61
38391	7	Sololá	717	San Juan la Laguna	12	San Juan la Laguna	2	Febrero	2023-02-23T00:00:00	2024-11-08T08:00:00	1	Precipitación	0
38392	7	Sololá	717	San Juan la Laguna	12	San Juan la Laguna	2	Febrero	2023-02-23T00:00:00	2024-11-08T08:00:00	8	Radiación solar	70
38393	7	Sololá	717	San Juan la Laguna	12	San Juan la Laguna	2	Febrero	2023-02-23T00:00:00	2024-11-08T09:00:00	2	Temperatura media	18.7
38394	7	Sololá	717	San Juan la Laguna	12	San Juan la Laguna	2	Febrero	2023-02-23T00:00:00	2024-11-08T09:00:00	4	Temperatura máxima	18.9
38395	7	Sololá	717	San Juan la Laguna	12	San Juan la Laguna	2	Febrero	2023-02-23T00:00:00	2024-11-08T09:00:00	3	Temperatura mínima	16.9
38396	7	Sololá	717	San Juan la Laguna	12	San Juan la Laguna	2	Febrero	2023-02-23T00:00:00	2024-11-08T09:00:00	5	Humedad	65
38397	7	Sololá	717	San Juan la Laguna	12	San Juan la Laguna	2	Febrero	2023-02-23T00:00:00	2024-11-08T09:00:00	6	Velocidad del viento	3.2
38398	7	Sololá	717	San Juan la Laguna	12	San Juan la Laguna	2	Febrero	2023-02-23T00:00:00	2024-11-08T09:00:00	7	Dirección del viento	3.22
38399	7	Sololá	717	San Juan la Laguna	12	San Juan la Laguna	2	Febrero	2023-02-23T00:00:00	2024-11-08T09:00:00	1	Precipitación	0
38400	7	Sololá	717	San Juan la Laguna	12	San Juan la Laguna	2	Febrero	2023-02-23T00:00:00	2024-11-08T09:00:00	8	Radiación solar	364
38401	7	Sololá	717	San Juan la Laguna	12	San Juan la Laguna	2	Febrero	2023-02-23T00:00:00	2024-11-08T10:00:00	2	Temperatura media	19.2
38402	7	Sololá	717	San Juan la Laguna	12	San Juan la Laguna	2	Febrero	2023-02-23T00:00:00	2024-11-08T10:00:00	4	Temperatura máxima	19.6
38403	7	Sololá	717	San Juan la Laguna	12	San Juan la Laguna	2	Febrero	2023-02-23T00:00:00	2024-11-08T10:00:00	3	Temperatura mínima	18.6
38404	7	Sololá	717	San Juan la Laguna	12	San Juan la Laguna	2	Febrero	2023-02-23T00:00:00	2024-11-08T10:00:00	5	Humedad	66
38405	7	Sololá	717	San Juan la Laguna	12	San Juan la Laguna	2	Febrero	2023-02-23T00:00:00	2024-11-08T10:00:00	6	Velocidad del viento	1.6
38406	7	Sololá	717	San Juan la Laguna	12	San Juan la Laguna	2	Febrero	2023-02-23T00:00:00	2024-11-08T10:00:00	7	Dirección del viento	1.61
38407	7	Sololá	717	San Juan la Laguna	12	San Juan la Laguna	2	Febrero	2023-02-23T00:00:00	2024-11-08T10:00:00	1	Precipitación	0
38408	7	Sololá	717	San Juan la Laguna	12	San Juan la Laguna	2	Febrero	2023-02-23T00:00:00	2024-11-08T10:00:00	8	Radiación solar	611
38409	7	Sololá	717	San Juan la Laguna	12	San Juan la Laguna	2	Febrero	2023-02-23T00:00:00	2024-11-08T11:00:00	2	Temperatura media	20.6
38410	7	Sololá	717	San Juan la Laguna	12	San Juan la Laguna	2	Febrero	2023-02-23T00:00:00	2024-11-08T11:00:00	4	Temperatura máxima	21
38411	7	Sololá	717	San Juan la Laguna	12	San Juan la Laguna	2	Febrero	2023-02-23T00:00:00	2024-11-08T11:00:00	3	Temperatura mínima	19.2
38412	7	Sololá	717	San Juan la Laguna	12	San Juan la Laguna	2	Febrero	2023-02-23T00:00:00	2024-11-08T11:00:00	5	Humedad	58
38413	7	Sololá	717	San Juan la Laguna	12	San Juan la Laguna	2	Febrero	2023-02-23T00:00:00	2024-11-08T11:00:00	6	Velocidad del viento	3.2
38414	7	Sololá	717	San Juan la Laguna	12	San Juan la Laguna	2	Febrero	2023-02-23T00:00:00	2024-11-08T11:00:00	7	Dirección del viento	3.22
38415	7	Sololá	717	San Juan la Laguna	12	San Juan la Laguna	2	Febrero	2023-02-23T00:00:00	2024-11-08T11:00:00	1	Precipitación	0
38416	7	Sololá	717	San Juan la Laguna	12	San Juan la Laguna	2	Febrero	2023-02-23T00:00:00	2024-11-08T11:00:00	8	Radiación solar	774
38417	7	Sololá	717	San Juan la Laguna	12	San Juan la Laguna	2	Febrero	2023-02-23T00:00:00	2024-11-08T12:00:00	2	Temperatura media	21.4
38418	7	Sololá	717	San Juan la Laguna	12	San Juan la Laguna	2	Febrero	2023-02-23T00:00:00	2024-11-08T12:00:00	4	Temperatura máxima	22.4
38419	7	Sololá	717	San Juan la Laguna	12	San Juan la Laguna	2	Febrero	2023-02-23T00:00:00	2024-11-08T12:00:00	3	Temperatura mínima	20.2
38420	7	Sololá	717	San Juan la Laguna	12	San Juan la Laguna	2	Febrero	2023-02-23T00:00:00	2024-11-08T12:00:00	5	Humedad	58
38421	7	Sololá	717	San Juan la Laguna	12	San Juan la Laguna	2	Febrero	2023-02-23T00:00:00	2024-11-08T12:00:00	6	Velocidad del viento	3.2
38422	7	Sololá	717	San Juan la Laguna	12	San Juan la Laguna	2	Febrero	2023-02-23T00:00:00	2024-11-08T12:00:00	7	Dirección del viento	3.22
38423	7	Sololá	717	San Juan la Laguna	12	San Juan la Laguna	2	Febrero	2023-02-23T00:00:00	2024-11-08T12:00:00	1	Precipitación	0
38424	7	Sololá	717	San Juan la Laguna	12	San Juan la Laguna	2	Febrero	2023-02-23T00:00:00	2024-11-08T12:00:00	8	Radiación solar	779
38425	7	Sololá	717	San Juan la Laguna	12	San Juan la Laguna	2	Febrero	2023-02-23T00:00:00	2024-11-08T13:00:00	2	Temperatura media	22
38426	7	Sololá	717	San Juan la Laguna	12	San Juan la Laguna	2	Febrero	2023-02-23T00:00:00	2024-11-08T13:00:00	4	Temperatura máxima	22.8
38427	7	Sololá	717	San Juan la Laguna	12	San Juan la Laguna	2	Febrero	2023-02-23T00:00:00	2024-11-08T13:00:00	3	Temperatura mínima	21.1
38428	7	Sololá	717	San Juan la Laguna	12	San Juan la Laguna	2	Febrero	2023-02-23T00:00:00	2024-11-08T13:00:00	5	Humedad	63
38429	7	Sololá	717	San Juan la Laguna	12	San Juan la Laguna	2	Febrero	2023-02-23T00:00:00	2024-11-08T13:00:00	6	Velocidad del viento	4.8
38430	7	Sololá	717	San Juan la Laguna	12	San Juan la Laguna	2	Febrero	2023-02-23T00:00:00	2024-11-08T13:00:00	7	Dirección del viento	4.83
38431	7	Sololá	717	San Juan la Laguna	12	San Juan la Laguna	2	Febrero	2023-02-23T00:00:00	2024-11-08T13:00:00	1	Precipitación	0
38432	7	Sololá	717	San Juan la Laguna	12	San Juan la Laguna	2	Febrero	2023-02-23T00:00:00	2024-11-08T13:00:00	8	Radiación solar	860
38433	7	Sololá	717	San Juan la Laguna	12	San Juan la Laguna	2	Febrero	2023-02-23T00:00:00	2024-11-08T14:00:00	2	Temperatura media	21.8
38434	7	Sololá	717	San Juan la Laguna	12	San Juan la Laguna	2	Febrero	2023-02-23T00:00:00	2024-11-08T14:00:00	4	Temperatura máxima	22.3
38435	7	Sololá	717	San Juan la Laguna	12	San Juan la Laguna	2	Febrero	2023-02-23T00:00:00	2024-11-08T14:00:00	3	Temperatura mínima	21.1
38436	7	Sololá	717	San Juan la Laguna	12	San Juan la Laguna	2	Febrero	2023-02-23T00:00:00	2024-11-08T14:00:00	5	Humedad	64
38437	7	Sololá	717	San Juan la Laguna	12	San Juan la Laguna	2	Febrero	2023-02-23T00:00:00	2024-11-08T14:00:00	6	Velocidad del viento	6.4
38438	7	Sololá	717	San Juan la Laguna	12	San Juan la Laguna	2	Febrero	2023-02-23T00:00:00	2024-11-08T14:00:00	7	Dirección del viento	6.44
38439	7	Sololá	717	San Juan la Laguna	12	San Juan la Laguna	2	Febrero	2023-02-23T00:00:00	2024-11-08T14:00:00	1	Precipitación	0
38440	7	Sololá	717	San Juan la Laguna	12	San Juan la Laguna	2	Febrero	2023-02-23T00:00:00	2024-11-08T14:00:00	8	Radiación solar	593
38441	7	Sololá	717	San Juan la Laguna	12	San Juan la Laguna	2	Febrero	2023-02-23T00:00:00	2024-11-08T15:00:00	2	Temperatura media	21.7
38442	7	Sololá	717	San Juan la Laguna	12	San Juan la Laguna	2	Febrero	2023-02-23T00:00:00	2024-11-08T15:00:00	4	Temperatura máxima	22
38443	7	Sololá	717	San Juan la Laguna	12	San Juan la Laguna	2	Febrero	2023-02-23T00:00:00	2024-11-08T15:00:00	3	Temperatura mínima	21.7
38444	7	Sololá	717	San Juan la Laguna	12	San Juan la Laguna	2	Febrero	2023-02-23T00:00:00	2024-11-08T15:00:00	5	Humedad	65
38445	7	Sololá	717	San Juan la Laguna	12	San Juan la Laguna	2	Febrero	2023-02-23T00:00:00	2024-11-08T15:00:00	6	Velocidad del viento	9.7
38446	7	Sololá	717	San Juan la Laguna	12	San Juan la Laguna	2	Febrero	2023-02-23T00:00:00	2024-11-08T15:00:00	7	Dirección del viento	9.66
38447	7	Sololá	717	San Juan la Laguna	12	San Juan la Laguna	2	Febrero	2023-02-23T00:00:00	2024-11-08T15:00:00	1	Precipitación	0
38448	7	Sololá	717	San Juan la Laguna	12	San Juan la Laguna	2	Febrero	2023-02-23T00:00:00	2024-11-08T15:00:00	8	Radiación solar	761
38449	7	Sololá	717	San Juan la Laguna	12	San Juan la Laguna	2	Febrero	2023-02-23T00:00:00	2024-11-08T16:00:00	2	Temperatura media	20.8
38450	7	Sololá	717	San Juan la Laguna	12	San Juan la Laguna	2	Febrero	2023-02-23T00:00:00	2024-11-08T16:00:00	4	Temperatura máxima	22.1
38451	7	Sololá	717	San Juan la Laguna	12	San Juan la Laguna	2	Febrero	2023-02-23T00:00:00	2024-11-08T16:00:00	3	Temperatura mínima	20.8
38452	7	Sololá	717	San Juan la Laguna	12	San Juan la Laguna	2	Febrero	2023-02-23T00:00:00	2024-11-08T16:00:00	5	Humedad	71
38453	7	Sololá	717	San Juan la Laguna	12	San Juan la Laguna	2	Febrero	2023-02-23T00:00:00	2024-11-08T16:00:00	6	Velocidad del viento	8
38454	7	Sololá	717	San Juan la Laguna	12	San Juan la Laguna	2	Febrero	2023-02-23T00:00:00	2024-11-08T16:00:00	7	Dirección del viento	8.05
38455	7	Sololá	717	San Juan la Laguna	12	San Juan la Laguna	2	Febrero	2023-02-23T00:00:00	2024-11-08T16:00:00	1	Precipitación	0
38456	7	Sololá	717	San Juan la Laguna	12	San Juan la Laguna	2	Febrero	2023-02-23T00:00:00	2024-11-08T16:00:00	8	Radiación solar	535
38457	7	Sololá	717	San Juan la Laguna	12	San Juan la Laguna	2	Febrero	2023-02-23T00:00:00	2024-11-08T17:00:00	2	Temperatura media	19.9
38458	7	Sololá	717	San Juan la Laguna	12	San Juan la Laguna	2	Febrero	2023-02-23T00:00:00	2024-11-08T17:00:00	4	Temperatura máxima	20.8
38459	7	Sololá	717	San Juan la Laguna	12	San Juan la Laguna	2	Febrero	2023-02-23T00:00:00	2024-11-08T17:00:00	3	Temperatura mínima	19.9
38460	7	Sololá	717	San Juan la Laguna	12	San Juan la Laguna	2	Febrero	2023-02-23T00:00:00	2024-11-08T17:00:00	5	Humedad	74
38461	7	Sololá	717	San Juan la Laguna	12	San Juan la Laguna	2	Febrero	2023-02-23T00:00:00	2024-11-08T17:00:00	6	Velocidad del viento	6.4
38462	7	Sololá	717	San Juan la Laguna	12	San Juan la Laguna	2	Febrero	2023-02-23T00:00:00	2024-11-08T17:00:00	7	Dirección del viento	6.44
38463	7	Sololá	717	San Juan la Laguna	12	San Juan la Laguna	2	Febrero	2023-02-23T00:00:00	2024-11-08T17:00:00	1	Precipitación	0
38464	7	Sololá	717	San Juan la Laguna	12	San Juan la Laguna	2	Febrero	2023-02-23T00:00:00	2024-11-08T17:00:00	8	Radiación solar	264
38465	7	Sololá	717	San Juan la Laguna	12	San Juan la Laguna	2	Febrero	2023-02-23T00:00:00	2024-11-08T18:00:00	2	Temperatura media	18.4
38466	7	Sololá	717	San Juan la Laguna	12	San Juan la Laguna	2	Febrero	2023-02-23T00:00:00	2024-11-08T18:00:00	4	Temperatura máxima	19.9
38467	7	Sololá	717	San Juan la Laguna	12	San Juan la Laguna	2	Febrero	2023-02-23T00:00:00	2024-11-08T18:00:00	3	Temperatura mínima	18.4
38468	7	Sololá	717	San Juan la Laguna	12	San Juan la Laguna	2	Febrero	2023-02-23T00:00:00	2024-11-08T18:00:00	5	Humedad	79
38469	7	Sololá	717	San Juan la Laguna	12	San Juan la Laguna	2	Febrero	2023-02-23T00:00:00	2024-11-08T18:00:00	6	Velocidad del viento	4.8
38470	7	Sololá	717	San Juan la Laguna	12	San Juan la Laguna	2	Febrero	2023-02-23T00:00:00	2024-11-08T18:00:00	7	Dirección del viento	4.83
38471	7	Sololá	717	San Juan la Laguna	12	San Juan la Laguna	2	Febrero	2023-02-23T00:00:00	2024-11-08T18:00:00	1	Precipitación	0
38472	7	Sololá	717	San Juan la Laguna	12	San Juan la Laguna	2	Febrero	2023-02-23T00:00:00	2024-11-08T18:00:00	8	Radiación solar	47
38473	7	Sololá	717	San Juan la Laguna	12	San Juan la Laguna	2	Febrero	2023-02-23T00:00:00	2024-11-08T19:00:00	2	Temperatura media	18.7
38474	7	Sololá	717	San Juan la Laguna	12	San Juan la Laguna	2	Febrero	2023-02-23T00:00:00	2024-11-08T19:00:00	4	Temperatura máxima	18.8
38475	7	Sololá	717	San Juan la Laguna	12	San Juan la Laguna	2	Febrero	2023-02-23T00:00:00	2024-11-08T19:00:00	3	Temperatura mínima	18.4
38476	7	Sololá	717	San Juan la Laguna	12	San Juan la Laguna	2	Febrero	2023-02-23T00:00:00	2024-11-08T19:00:00	5	Humedad	78
38477	7	Sololá	717	San Juan la Laguna	12	San Juan la Laguna	2	Febrero	2023-02-23T00:00:00	2024-11-08T19:00:00	6	Velocidad del viento	1.6
38478	7	Sololá	717	San Juan la Laguna	12	San Juan la Laguna	2	Febrero	2023-02-23T00:00:00	2024-11-08T19:00:00	7	Dirección del viento	1.61
38479	7	Sololá	717	San Juan la Laguna	12	San Juan la Laguna	2	Febrero	2023-02-23T00:00:00	2024-11-08T19:00:00	1	Precipitación	0
38480	7	Sololá	717	San Juan la Laguna	12	San Juan la Laguna	2	Febrero	2023-02-23T00:00:00	2024-11-08T19:00:00	8	Radiación solar	0
38481	7	Sololá	717	San Juan la Laguna	12	San Juan la Laguna	2	Febrero	2023-02-23T00:00:00	2024-11-08T20:00:00	2	Temperatura media	18.2
38482	7	Sololá	717	San Juan la Laguna	12	San Juan la Laguna	2	Febrero	2023-02-23T00:00:00	2024-11-08T20:00:00	4	Temperatura máxima	18.7
38483	7	Sololá	717	San Juan la Laguna	12	San Juan la Laguna	2	Febrero	2023-02-23T00:00:00	2024-11-08T20:00:00	3	Temperatura mínima	18.2
38484	7	Sololá	717	San Juan la Laguna	12	San Juan la Laguna	2	Febrero	2023-02-23T00:00:00	2024-11-08T20:00:00	5	Humedad	85
38485	7	Sololá	717	San Juan la Laguna	12	San Juan la Laguna	2	Febrero	2023-02-23T00:00:00	2024-11-08T20:00:00	6	Velocidad del viento	1.6
38486	7	Sololá	717	San Juan la Laguna	12	San Juan la Laguna	2	Febrero	2023-02-23T00:00:00	2024-11-08T20:00:00	7	Dirección del viento	1.61
38487	7	Sololá	717	San Juan la Laguna	12	San Juan la Laguna	2	Febrero	2023-02-23T00:00:00	2024-11-08T20:00:00	1	Precipitación	0
38488	7	Sololá	717	San Juan la Laguna	12	San Juan la Laguna	2	Febrero	2023-02-23T00:00:00	2024-11-08T20:00:00	8	Radiación solar	0
38489	7	Sololá	717	San Juan la Laguna	12	San Juan la Laguna	2	Febrero	2023-02-23T00:00:00	2024-11-08T21:00:00	2	Temperatura media	17.8
38490	7	Sololá	717	San Juan la Laguna	12	San Juan la Laguna	2	Febrero	2023-02-23T00:00:00	2024-11-08T21:00:00	4	Temperatura máxima	18.2
38491	7	Sololá	717	San Juan la Laguna	12	San Juan la Laguna	2	Febrero	2023-02-23T00:00:00	2024-11-08T21:00:00	3	Temperatura mínima	17.8
38492	7	Sololá	717	San Juan la Laguna	12	San Juan la Laguna	2	Febrero	2023-02-23T00:00:00	2024-11-08T21:00:00	5	Humedad	86
38493	7	Sololá	717	San Juan la Laguna	12	San Juan la Laguna	2	Febrero	2023-02-23T00:00:00	2024-11-08T21:00:00	6	Velocidad del viento	0
38494	7	Sololá	717	San Juan la Laguna	12	San Juan la Laguna	2	Febrero	2023-02-23T00:00:00	2024-11-08T21:00:00	7	Dirección del viento	0
38495	7	Sololá	717	San Juan la Laguna	12	San Juan la Laguna	2	Febrero	2023-02-23T00:00:00	2024-11-08T21:00:00	1	Precipitación	0
38496	7	Sololá	717	San Juan la Laguna	12	San Juan la Laguna	2	Febrero	2023-02-23T00:00:00	2024-11-08T21:00:00	8	Radiación solar	0
38497	7	Sololá	717	San Juan la Laguna	12	San Juan la Laguna	2	Febrero	2023-02-23T00:00:00	2024-11-08T22:00:00	2	Temperatura media	16.3
38498	7	Sololá	717	San Juan la Laguna	12	San Juan la Laguna	2	Febrero	2023-02-23T00:00:00	2024-11-08T22:00:00	4	Temperatura máxima	17.8
38499	7	Sololá	717	San Juan la Laguna	12	San Juan la Laguna	2	Febrero	2023-02-23T00:00:00	2024-11-08T22:00:00	3	Temperatura mínima	16.3
38500	7	Sololá	717	San Juan la Laguna	12	San Juan la Laguna	2	Febrero	2023-02-23T00:00:00	2024-11-08T22:00:00	5	Humedad	88
38501	7	Sololá	717	San Juan la Laguna	12	San Juan la Laguna	2	Febrero	2023-02-23T00:00:00	2024-11-08T22:00:00	6	Velocidad del viento	0
38502	7	Sololá	717	San Juan la Laguna	12	San Juan la Laguna	2	Febrero	2023-02-23T00:00:00	2024-11-08T22:00:00	7	Dirección del viento	0
38503	7	Sololá	717	San Juan la Laguna	12	San Juan la Laguna	2	Febrero	2023-02-23T00:00:00	2024-11-08T22:00:00	1	Precipitación	0
38504	7	Sololá	717	San Juan la Laguna	12	San Juan la Laguna	2	Febrero	2023-02-23T00:00:00	2024-11-08T22:00:00	8	Radiación solar	0
38505	7	Sololá	717	San Juan la Laguna	12	San Juan la Laguna	2	Febrero	2023-02-23T00:00:00	2024-11-08T23:00:00	2	Temperatura media	14.9
38506	7	Sololá	717	San Juan la Laguna	12	San Juan la Laguna	2	Febrero	2023-02-23T00:00:00	2024-11-08T23:00:00	4	Temperatura máxima	16.4
38507	7	Sololá	717	San Juan la Laguna	12	San Juan la Laguna	2	Febrero	2023-02-23T00:00:00	2024-11-08T23:00:00	3	Temperatura mínima	14.9
38508	7	Sololá	717	San Juan la Laguna	12	San Juan la Laguna	2	Febrero	2023-02-23T00:00:00	2024-11-08T23:00:00	5	Humedad	86
38509	7	Sololá	717	San Juan la Laguna	12	San Juan la Laguna	2	Febrero	2023-02-23T00:00:00	2024-11-08T23:00:00	6	Velocidad del viento	0
38510	7	Sololá	717	San Juan la Laguna	12	San Juan la Laguna	2	Febrero	2023-02-23T00:00:00	2024-11-08T23:00:00	7	Dirección del viento	0
38511	7	Sololá	717	San Juan la Laguna	12	San Juan la Laguna	2	Febrero	2023-02-23T00:00:00	2024-11-08T23:00:00	1	Precipitación	0
38512	7	Sololá	717	San Juan la Laguna	12	San Juan la Laguna	2	Febrero	2023-02-23T00:00:00	2024-11-08T23:00:00	8	Radiación solar	0
38513	7	Sololá	717	San Juan la Laguna	12	San Juan la Laguna	2	Febrero	2023-02-24T00:00:00	2024-11-08T00:00:00	2	Temperatura media	14.1
38514	7	Sololá	717	San Juan la Laguna	12	San Juan la Laguna	2	Febrero	2023-02-24T00:00:00	2024-11-08T00:00:00	4	Temperatura máxima	14.9
38515	7	Sololá	717	San Juan la Laguna	12	San Juan la Laguna	2	Febrero	2023-02-24T00:00:00	2024-11-08T00:00:00	3	Temperatura mínima	14.1
38516	7	Sololá	717	San Juan la Laguna	12	San Juan la Laguna	2	Febrero	2023-02-24T00:00:00	2024-11-08T00:00:00	5	Humedad	86
38517	7	Sololá	717	San Juan la Laguna	12	San Juan la Laguna	2	Febrero	2023-02-24T00:00:00	2024-11-08T00:00:00	6	Velocidad del viento	0
38518	7	Sololá	717	San Juan la Laguna	12	San Juan la Laguna	2	Febrero	2023-02-24T00:00:00	2024-11-08T00:00:00	7	Dirección del viento	0
38519	7	Sololá	717	San Juan la Laguna	12	San Juan la Laguna	2	Febrero	2023-02-24T00:00:00	2024-11-08T00:00:00	1	Precipitación	0
38520	7	Sololá	717	San Juan la Laguna	12	San Juan la Laguna	2	Febrero	2023-02-24T00:00:00	2024-11-08T00:00:00	8	Radiación solar	0
38521	7	Sololá	717	San Juan la Laguna	12	San Juan la Laguna	2	Febrero	2023-02-24T00:00:00	2024-11-08T01:00:00	2	Temperatura media	14.2
38522	7	Sololá	717	San Juan la Laguna	12	San Juan la Laguna	2	Febrero	2023-02-24T00:00:00	2024-11-08T01:00:00	4	Temperatura máxima	14.2
38523	7	Sololá	717	San Juan la Laguna	12	San Juan la Laguna	2	Febrero	2023-02-24T00:00:00	2024-11-08T01:00:00	3	Temperatura mínima	13.8
38524	7	Sololá	717	San Juan la Laguna	12	San Juan la Laguna	2	Febrero	2023-02-24T00:00:00	2024-11-08T01:00:00	5	Humedad	84
38525	7	Sololá	717	San Juan la Laguna	12	San Juan la Laguna	2	Febrero	2023-02-24T00:00:00	2024-11-08T01:00:00	6	Velocidad del viento	1.6
38526	7	Sololá	717	San Juan la Laguna	12	San Juan la Laguna	2	Febrero	2023-02-24T00:00:00	2024-11-08T01:00:00	7	Dirección del viento	1.61
38527	7	Sololá	717	San Juan la Laguna	12	San Juan la Laguna	2	Febrero	2023-02-24T00:00:00	2024-11-08T01:00:00	1	Precipitación	0
38528	7	Sololá	717	San Juan la Laguna	12	San Juan la Laguna	2	Febrero	2023-02-24T00:00:00	2024-11-08T01:00:00	8	Radiación solar	0
38529	7	Sololá	717	San Juan la Laguna	12	San Juan la Laguna	2	Febrero	2023-02-24T00:00:00	2024-11-08T02:00:00	2	Temperatura media	13.6
38530	7	Sololá	717	San Juan la Laguna	12	San Juan la Laguna	2	Febrero	2023-02-24T00:00:00	2024-11-08T02:00:00	4	Temperatura máxima	14.2
38531	7	Sololá	717	San Juan la Laguna	12	San Juan la Laguna	2	Febrero	2023-02-24T00:00:00	2024-11-08T02:00:00	3	Temperatura mínima	13.6
38532	7	Sololá	717	San Juan la Laguna	12	San Juan la Laguna	2	Febrero	2023-02-24T00:00:00	2024-11-08T02:00:00	5	Humedad	83
38533	7	Sololá	717	San Juan la Laguna	12	San Juan la Laguna	2	Febrero	2023-02-24T00:00:00	2024-11-08T02:00:00	6	Velocidad del viento	3.2
38534	7	Sololá	717	San Juan la Laguna	12	San Juan la Laguna	2	Febrero	2023-02-24T00:00:00	2024-11-08T02:00:00	7	Dirección del viento	3.22
38535	7	Sololá	717	San Juan la Laguna	12	San Juan la Laguna	2	Febrero	2023-02-24T00:00:00	2024-11-08T02:00:00	1	Precipitación	0
38536	7	Sololá	717	San Juan la Laguna	12	San Juan la Laguna	2	Febrero	2023-02-24T00:00:00	2024-11-08T02:00:00	8	Radiación solar	0
38537	7	Sololá	717	San Juan la Laguna	12	San Juan la Laguna	2	Febrero	2023-02-24T00:00:00	2024-11-08T03:00:00	2	Temperatura media	12.6
38538	7	Sololá	717	San Juan la Laguna	12	San Juan la Laguna	2	Febrero	2023-02-24T00:00:00	2024-11-08T03:00:00	4	Temperatura máxima	13.6
38539	7	Sololá	717	San Juan la Laguna	12	San Juan la Laguna	2	Febrero	2023-02-24T00:00:00	2024-11-08T03:00:00	3	Temperatura mínima	12.6
38540	7	Sololá	717	San Juan la Laguna	12	San Juan la Laguna	2	Febrero	2023-02-24T00:00:00	2024-11-08T03:00:00	5	Humedad	86
38541	7	Sololá	717	San Juan la Laguna	12	San Juan la Laguna	2	Febrero	2023-02-24T00:00:00	2024-11-08T03:00:00	6	Velocidad del viento	1.6
38542	7	Sololá	717	San Juan la Laguna	12	San Juan la Laguna	2	Febrero	2023-02-24T00:00:00	2024-11-08T03:00:00	7	Dirección del viento	1.61
38543	7	Sololá	717	San Juan la Laguna	12	San Juan la Laguna	2	Febrero	2023-02-24T00:00:00	2024-11-08T03:00:00	1	Precipitación	0
38544	7	Sololá	717	San Juan la Laguna	12	San Juan la Laguna	2	Febrero	2023-02-24T00:00:00	2024-11-08T03:00:00	8	Radiación solar	0
38545	7	Sololá	717	San Juan la Laguna	12	San Juan la Laguna	2	Febrero	2023-02-24T00:00:00	2024-11-08T04:00:00	2	Temperatura media	11.8
38546	7	Sololá	717	San Juan la Laguna	12	San Juan la Laguna	2	Febrero	2023-02-24T00:00:00	2024-11-08T04:00:00	4	Temperatura máxima	12.7
38547	7	Sololá	717	San Juan la Laguna	12	San Juan la Laguna	2	Febrero	2023-02-24T00:00:00	2024-11-08T04:00:00	3	Temperatura mínima	11.7
38548	7	Sololá	717	San Juan la Laguna	12	San Juan la Laguna	2	Febrero	2023-02-24T00:00:00	2024-11-08T04:00:00	5	Humedad	87
38549	7	Sololá	717	San Juan la Laguna	12	San Juan la Laguna	2	Febrero	2023-02-24T00:00:00	2024-11-08T04:00:00	6	Velocidad del viento	1.6
38550	7	Sololá	717	San Juan la Laguna	12	San Juan la Laguna	2	Febrero	2023-02-24T00:00:00	2024-11-08T04:00:00	7	Dirección del viento	1.61
38551	7	Sololá	717	San Juan la Laguna	12	San Juan la Laguna	2	Febrero	2023-02-24T00:00:00	2024-11-08T04:00:00	1	Precipitación	0
38552	7	Sololá	717	San Juan la Laguna	12	San Juan la Laguna	2	Febrero	2023-02-24T00:00:00	2024-11-08T04:00:00	8	Radiación solar	0
38553	7	Sololá	717	San Juan la Laguna	12	San Juan la Laguna	2	Febrero	2023-02-24T00:00:00	2024-11-08T05:00:00	2	Temperatura media	11.5
38554	7	Sololá	717	San Juan la Laguna	12	San Juan la Laguna	2	Febrero	2023-02-24T00:00:00	2024-11-08T05:00:00	4	Temperatura máxima	11.8
38555	7	Sololá	717	San Juan la Laguna	12	San Juan la Laguna	2	Febrero	2023-02-24T00:00:00	2024-11-08T05:00:00	3	Temperatura mínima	11.5
38556	7	Sololá	717	San Juan la Laguna	12	San Juan la Laguna	2	Febrero	2023-02-24T00:00:00	2024-11-08T05:00:00	5	Humedad	87
38557	7	Sololá	717	San Juan la Laguna	12	San Juan la Laguna	2	Febrero	2023-02-24T00:00:00	2024-11-08T05:00:00	6	Velocidad del viento	0
38558	7	Sololá	717	San Juan la Laguna	12	San Juan la Laguna	2	Febrero	2023-02-24T00:00:00	2024-11-08T05:00:00	7	Dirección del viento	0
38559	7	Sololá	717	San Juan la Laguna	12	San Juan la Laguna	2	Febrero	2023-02-24T00:00:00	2024-11-08T05:00:00	1	Precipitación	0
38560	7	Sololá	717	San Juan la Laguna	12	San Juan la Laguna	2	Febrero	2023-02-24T00:00:00	2024-11-08T05:00:00	8	Radiación solar	0
38561	7	Sololá	717	San Juan la Laguna	12	San Juan la Laguna	2	Febrero	2023-02-24T00:00:00	2024-11-08T06:00:00	2	Temperatura media	10.9
38562	7	Sololá	717	San Juan la Laguna	12	San Juan la Laguna	2	Febrero	2023-02-24T00:00:00	2024-11-08T06:00:00	4	Temperatura máxima	11.5
38563	7	Sololá	717	San Juan la Laguna	12	San Juan la Laguna	2	Febrero	2023-02-24T00:00:00	2024-11-08T06:00:00	3	Temperatura mínima	10.8
38564	7	Sololá	717	San Juan la Laguna	12	San Juan la Laguna	2	Febrero	2023-02-24T00:00:00	2024-11-08T06:00:00	5	Humedad	87
38565	7	Sololá	717	San Juan la Laguna	12	San Juan la Laguna	2	Febrero	2023-02-24T00:00:00	2024-11-08T06:00:00	6	Velocidad del viento	0
38566	7	Sololá	717	San Juan la Laguna	12	San Juan la Laguna	2	Febrero	2023-02-24T00:00:00	2024-11-08T06:00:00	7	Dirección del viento	0
38567	7	Sololá	717	San Juan la Laguna	12	San Juan la Laguna	2	Febrero	2023-02-24T00:00:00	2024-11-08T06:00:00	1	Precipitación	0
38568	7	Sololá	717	San Juan la Laguna	12	San Juan la Laguna	2	Febrero	2023-02-24T00:00:00	2024-11-08T06:00:00	8	Radiación solar	0
38569	7	Sololá	717	San Juan la Laguna	12	San Juan la Laguna	2	Febrero	2023-02-24T00:00:00	2024-11-08T07:00:00	2	Temperatura media	11.4
38570	7	Sololá	717	San Juan la Laguna	12	San Juan la Laguna	2	Febrero	2023-02-24T00:00:00	2024-11-08T07:00:00	4	Temperatura máxima	11.4
38571	7	Sololá	717	San Juan la Laguna	12	San Juan la Laguna	2	Febrero	2023-02-24T00:00:00	2024-11-08T07:00:00	3	Temperatura mínima	10.7
38572	7	Sololá	717	San Juan la Laguna	12	San Juan la Laguna	2	Febrero	2023-02-24T00:00:00	2024-11-08T07:00:00	5	Humedad	85
38573	7	Sololá	717	San Juan la Laguna	12	San Juan la Laguna	2	Febrero	2023-02-24T00:00:00	2024-11-08T07:00:00	6	Velocidad del viento	3.2
38574	7	Sololá	717	San Juan la Laguna	12	San Juan la Laguna	2	Febrero	2023-02-24T00:00:00	2024-11-08T07:00:00	7	Dirección del viento	3.22
38575	7	Sololá	717	San Juan la Laguna	12	San Juan la Laguna	2	Febrero	2023-02-24T00:00:00	2024-11-08T07:00:00	1	Precipitación	0
38576	7	Sololá	717	San Juan la Laguna	12	San Juan la Laguna	2	Febrero	2023-02-24T00:00:00	2024-11-08T07:00:00	8	Radiación solar	12
38577	7	Sololá	717	San Juan la Laguna	12	San Juan la Laguna	2	Febrero	2023-02-24T00:00:00	2024-11-08T08:00:00	2	Temperatura media	15.7
38578	7	Sololá	717	San Juan la Laguna	12	San Juan la Laguna	2	Febrero	2023-02-24T00:00:00	2024-11-08T08:00:00	4	Temperatura máxima	15.7
38579	7	Sololá	717	San Juan la Laguna	12	San Juan la Laguna	2	Febrero	2023-02-24T00:00:00	2024-11-08T08:00:00	3	Temperatura mínima	11.4
38580	7	Sololá	717	San Juan la Laguna	12	San Juan la Laguna	2	Febrero	2023-02-24T00:00:00	2024-11-08T08:00:00	5	Humedad	71
38581	7	Sololá	717	San Juan la Laguna	12	San Juan la Laguna	2	Febrero	2023-02-24T00:00:00	2024-11-08T08:00:00	6	Velocidad del viento	1.6
38582	7	Sololá	717	San Juan la Laguna	12	San Juan la Laguna	2	Febrero	2023-02-24T00:00:00	2024-11-08T08:00:00	7	Dirección del viento	1.61
38583	7	Sololá	717	San Juan la Laguna	12	San Juan la Laguna	2	Febrero	2023-02-24T00:00:00	2024-11-08T08:00:00	1	Precipitación	0
38584	7	Sololá	717	San Juan la Laguna	12	San Juan la Laguna	2	Febrero	2023-02-24T00:00:00	2024-11-08T08:00:00	8	Radiación solar	156
38585	7	Sololá	717	San Juan la Laguna	12	San Juan la Laguna	2	Febrero	2023-02-24T00:00:00	2024-11-08T09:00:00	2	Temperatura media	19.6
38586	7	Sololá	717	San Juan la Laguna	12	San Juan la Laguna	2	Febrero	2023-02-24T00:00:00	2024-11-08T09:00:00	4	Temperatura máxima	19.6
38587	7	Sololá	717	San Juan la Laguna	12	San Juan la Laguna	2	Febrero	2023-02-24T00:00:00	2024-11-08T09:00:00	3	Temperatura mínima	15.7
38588	7	Sololá	717	San Juan la Laguna	12	San Juan la Laguna	2	Febrero	2023-02-24T00:00:00	2024-11-08T09:00:00	5	Humedad	55
38589	7	Sololá	717	San Juan la Laguna	12	San Juan la Laguna	2	Febrero	2023-02-24T00:00:00	2024-11-08T09:00:00	6	Velocidad del viento	0
38590	7	Sololá	717	San Juan la Laguna	12	San Juan la Laguna	2	Febrero	2023-02-24T00:00:00	2024-11-08T09:00:00	7	Dirección del viento	0
38591	7	Sololá	717	San Juan la Laguna	12	San Juan la Laguna	2	Febrero	2023-02-24T00:00:00	2024-11-08T09:00:00	1	Precipitación	0
38592	7	Sololá	717	San Juan la Laguna	12	San Juan la Laguna	2	Febrero	2023-02-24T00:00:00	2024-11-08T09:00:00	8	Radiación solar	404
38593	7	Sololá	717	San Juan la Laguna	12	San Juan la Laguna	2	Febrero	2023-02-24T00:00:00	2024-11-08T10:00:00	2	Temperatura media	22.4
38594	7	Sololá	717	San Juan la Laguna	12	San Juan la Laguna	2	Febrero	2023-02-24T00:00:00	2024-11-08T10:00:00	4	Temperatura máxima	22.7
38595	7	Sololá	717	San Juan la Laguna	12	San Juan la Laguna	2	Febrero	2023-02-24T00:00:00	2024-11-08T10:00:00	3	Temperatura mínima	19.6
38596	7	Sololá	717	San Juan la Laguna	12	San Juan la Laguna	2	Febrero	2023-02-24T00:00:00	2024-11-08T10:00:00	5	Humedad	37
38597	7	Sololá	717	San Juan la Laguna	12	San Juan la Laguna	2	Febrero	2023-02-24T00:00:00	2024-11-08T10:00:00	6	Velocidad del viento	1.6
38598	7	Sololá	717	San Juan la Laguna	12	San Juan la Laguna	2	Febrero	2023-02-24T00:00:00	2024-11-08T10:00:00	7	Dirección del viento	1.61
38599	7	Sololá	717	San Juan la Laguna	12	San Juan la Laguna	2	Febrero	2023-02-24T00:00:00	2024-11-08T10:00:00	1	Precipitación	0
38600	7	Sololá	717	San Juan la Laguna	12	San Juan la Laguna	2	Febrero	2023-02-24T00:00:00	2024-11-08T10:00:00	8	Radiación solar	617
38601	7	Sololá	717	San Juan la Laguna	12	San Juan la Laguna	2	Febrero	2023-02-24T00:00:00	2024-11-08T11:00:00	2	Temperatura media	23.3
38602	7	Sololá	717	San Juan la Laguna	12	San Juan la Laguna	2	Febrero	2023-02-24T00:00:00	2024-11-08T11:00:00	4	Temperatura máxima	23.3
38603	7	Sololá	717	San Juan la Laguna	12	San Juan la Laguna	2	Febrero	2023-02-24T00:00:00	2024-11-08T11:00:00	3	Temperatura mínima	22.4
38604	7	Sololá	717	San Juan la Laguna	12	San Juan la Laguna	2	Febrero	2023-02-24T00:00:00	2024-11-08T11:00:00	5	Humedad	36
38605	7	Sololá	717	San Juan la Laguna	12	San Juan la Laguna	2	Febrero	2023-02-24T00:00:00	2024-11-08T11:00:00	6	Velocidad del viento	3.2
38606	7	Sololá	717	San Juan la Laguna	12	San Juan la Laguna	2	Febrero	2023-02-24T00:00:00	2024-11-08T11:00:00	7	Dirección del viento	3.22
38607	7	Sololá	717	San Juan la Laguna	12	San Juan la Laguna	2	Febrero	2023-02-24T00:00:00	2024-11-08T11:00:00	1	Precipitación	0
38608	7	Sololá	717	San Juan la Laguna	12	San Juan la Laguna	2	Febrero	2023-02-24T00:00:00	2024-11-08T11:00:00	8	Radiación solar	773
38609	7	Sololá	717	San Juan la Laguna	12	San Juan la Laguna	2	Febrero	2023-02-24T00:00:00	2024-11-08T12:00:00	2	Temperatura media	24.8
38610	7	Sololá	717	San Juan la Laguna	12	San Juan la Laguna	2	Febrero	2023-02-24T00:00:00	2024-11-08T12:00:00	4	Temperatura máxima	24.8
38611	7	Sololá	717	San Juan la Laguna	12	San Juan la Laguna	2	Febrero	2023-02-24T00:00:00	2024-11-08T12:00:00	3	Temperatura mínima	23.3
38612	7	Sololá	717	San Juan la Laguna	12	San Juan la Laguna	2	Febrero	2023-02-24T00:00:00	2024-11-08T12:00:00	5	Humedad	34
38613	7	Sololá	717	San Juan la Laguna	12	San Juan la Laguna	2	Febrero	2023-02-24T00:00:00	2024-11-08T12:00:00	6	Velocidad del viento	3.2
38614	7	Sololá	717	San Juan la Laguna	12	San Juan la Laguna	2	Febrero	2023-02-24T00:00:00	2024-11-08T12:00:00	7	Dirección del viento	3.22
38615	7	Sololá	717	San Juan la Laguna	12	San Juan la Laguna	2	Febrero	2023-02-24T00:00:00	2024-11-08T12:00:00	1	Precipitación	0
38616	7	Sololá	717	San Juan la Laguna	12	San Juan la Laguna	2	Febrero	2023-02-24T00:00:00	2024-11-08T12:00:00	8	Radiación solar	777
38617	7	Sololá	717	San Juan la Laguna	12	San Juan la Laguna	2	Febrero	2023-02-24T00:00:00	2024-11-08T13:00:00	2	Temperatura media	23.2
38618	7	Sololá	717	San Juan la Laguna	12	San Juan la Laguna	2	Febrero	2023-02-24T00:00:00	2024-11-08T13:00:00	4	Temperatura máxima	24.9
38619	7	Sololá	717	San Juan la Laguna	12	San Juan la Laguna	2	Febrero	2023-02-24T00:00:00	2024-11-08T13:00:00	3	Temperatura mínima	22.9
38620	7	Sololá	717	San Juan la Laguna	12	San Juan la Laguna	2	Febrero	2023-02-24T00:00:00	2024-11-08T13:00:00	5	Humedad	54
38621	7	Sololá	717	San Juan la Laguna	12	San Juan la Laguna	2	Febrero	2023-02-24T00:00:00	2024-11-08T13:00:00	6	Velocidad del viento	9.7
38622	7	Sololá	717	San Juan la Laguna	12	San Juan la Laguna	2	Febrero	2023-02-24T00:00:00	2024-11-08T13:00:00	7	Dirección del viento	9.66
38623	7	Sololá	717	San Juan la Laguna	12	San Juan la Laguna	2	Febrero	2023-02-24T00:00:00	2024-11-08T13:00:00	1	Precipitación	0
38624	7	Sololá	717	San Juan la Laguna	12	San Juan la Laguna	2	Febrero	2023-02-24T00:00:00	2024-11-08T13:00:00	8	Radiación solar	879
38625	7	Sololá	717	San Juan la Laguna	12	San Juan la Laguna	2	Febrero	2023-02-24T00:00:00	2024-11-08T14:00:00	2	Temperatura media	22.4
38626	7	Sololá	717	San Juan la Laguna	12	San Juan la Laguna	2	Febrero	2023-02-24T00:00:00	2024-11-08T14:00:00	4	Temperatura máxima	23.2
38627	7	Sololá	717	San Juan la Laguna	12	San Juan la Laguna	2	Febrero	2023-02-24T00:00:00	2024-11-08T14:00:00	3	Temperatura mínima	22.4
38628	7	Sololá	717	San Juan la Laguna	12	San Juan la Laguna	2	Febrero	2023-02-24T00:00:00	2024-11-08T14:00:00	5	Humedad	58
38629	7	Sololá	717	San Juan la Laguna	12	San Juan la Laguna	2	Febrero	2023-02-24T00:00:00	2024-11-08T14:00:00	6	Velocidad del viento	12.9
38630	7	Sololá	717	San Juan la Laguna	12	San Juan la Laguna	2	Febrero	2023-02-24T00:00:00	2024-11-08T14:00:00	7	Dirección del viento	12.87
38631	7	Sololá	717	San Juan la Laguna	12	San Juan la Laguna	2	Febrero	2023-02-24T00:00:00	2024-11-08T14:00:00	1	Precipitación	0
38632	7	Sololá	717	San Juan la Laguna	12	San Juan la Laguna	2	Febrero	2023-02-24T00:00:00	2024-11-08T14:00:00	8	Radiación solar	816
38633	7	Sololá	717	San Juan la Laguna	12	San Juan la Laguna	2	Febrero	2023-02-24T00:00:00	2024-11-08T15:00:00	2	Temperatura media	22.3
38634	7	Sololá	717	San Juan la Laguna	12	San Juan la Laguna	2	Febrero	2023-02-24T00:00:00	2024-11-08T15:00:00	4	Temperatura máxima	22.7
38635	7	Sololá	717	San Juan la Laguna	12	San Juan la Laguna	2	Febrero	2023-02-24T00:00:00	2024-11-08T15:00:00	3	Temperatura mínima	22.2
38636	7	Sololá	717	San Juan la Laguna	12	San Juan la Laguna	2	Febrero	2023-02-24T00:00:00	2024-11-08T15:00:00	5	Humedad	62
38637	7	Sololá	717	San Juan la Laguna	12	San Juan la Laguna	2	Febrero	2023-02-24T00:00:00	2024-11-08T15:00:00	6	Velocidad del viento	11.3
38638	7	Sololá	717	San Juan la Laguna	12	San Juan la Laguna	2	Febrero	2023-02-24T00:00:00	2024-11-08T15:00:00	7	Dirección del viento	11.27
38639	7	Sololá	717	San Juan la Laguna	12	San Juan la Laguna	2	Febrero	2023-02-24T00:00:00	2024-11-08T15:00:00	1	Precipitación	0
38640	7	Sololá	717	San Juan la Laguna	12	San Juan la Laguna	2	Febrero	2023-02-24T00:00:00	2024-11-08T15:00:00	8	Radiación solar	698
38641	7	Sololá	717	San Juan la Laguna	12	San Juan la Laguna	2	Febrero	2023-02-24T00:00:00	2024-11-08T16:00:00	2	Temperatura media	21.6
38642	7	Sololá	717	San Juan la Laguna	12	San Juan la Laguna	2	Febrero	2023-02-24T00:00:00	2024-11-08T16:00:00	4	Temperatura máxima	22.3
38643	7	Sololá	717	San Juan la Laguna	12	San Juan la Laguna	2	Febrero	2023-02-24T00:00:00	2024-11-08T16:00:00	3	Temperatura mínima	21.6
38644	7	Sololá	717	San Juan la Laguna	12	San Juan la Laguna	2	Febrero	2023-02-24T00:00:00	2024-11-08T16:00:00	5	Humedad	65
38645	7	Sololá	717	San Juan la Laguna	12	San Juan la Laguna	2	Febrero	2023-02-24T00:00:00	2024-11-08T16:00:00	6	Velocidad del viento	11.3
38646	7	Sololá	717	San Juan la Laguna	12	San Juan la Laguna	2	Febrero	2023-02-24T00:00:00	2024-11-08T16:00:00	7	Dirección del viento	11.27
38647	7	Sololá	717	San Juan la Laguna	12	San Juan la Laguna	2	Febrero	2023-02-24T00:00:00	2024-11-08T16:00:00	1	Precipitación	0
38648	7	Sololá	717	San Juan la Laguna	12	San Juan la Laguna	2	Febrero	2023-02-24T00:00:00	2024-11-08T16:00:00	8	Radiación solar	525
38649	7	Sololá	717	San Juan la Laguna	12	San Juan la Laguna	2	Febrero	2023-02-24T00:00:00	2024-11-08T17:00:00	2	Temperatura media	20.2
38650	7	Sololá	717	San Juan la Laguna	12	San Juan la Laguna	2	Febrero	2023-02-24T00:00:00	2024-11-08T17:00:00	4	Temperatura máxima	21.7
38651	7	Sololá	717	San Juan la Laguna	12	San Juan la Laguna	2	Febrero	2023-02-24T00:00:00	2024-11-08T17:00:00	3	Temperatura mínima	20.2
38652	7	Sololá	717	San Juan la Laguna	12	San Juan la Laguna	2	Febrero	2023-02-24T00:00:00	2024-11-08T17:00:00	5	Humedad	72
38653	7	Sololá	717	San Juan la Laguna	12	San Juan la Laguna	2	Febrero	2023-02-24T00:00:00	2024-11-08T17:00:00	6	Velocidad del viento	8
38654	7	Sololá	717	San Juan la Laguna	12	San Juan la Laguna	2	Febrero	2023-02-24T00:00:00	2024-11-08T17:00:00	7	Dirección del viento	8.05
38655	7	Sololá	717	San Juan la Laguna	12	San Juan la Laguna	2	Febrero	2023-02-24T00:00:00	2024-11-08T17:00:00	1	Precipitación	0
38656	7	Sololá	717	San Juan la Laguna	12	San Juan la Laguna	2	Febrero	2023-02-24T00:00:00	2024-11-08T17:00:00	8	Radiación solar	250
38657	7	Sololá	717	San Juan la Laguna	12	San Juan la Laguna	2	Febrero	2023-02-24T00:00:00	2024-11-08T18:00:00	2	Temperatura media	19.7
38658	7	Sololá	717	San Juan la Laguna	12	San Juan la Laguna	2	Febrero	2023-02-24T00:00:00	2024-11-08T18:00:00	4	Temperatura máxima	20.2
38659	7	Sololá	717	San Juan la Laguna	12	San Juan la Laguna	2	Febrero	2023-02-24T00:00:00	2024-11-08T18:00:00	3	Temperatura mínima	19.7
38660	7	Sololá	717	San Juan la Laguna	12	San Juan la Laguna	2	Febrero	2023-02-24T00:00:00	2024-11-08T18:00:00	5	Humedad	75
38661	7	Sololá	717	San Juan la Laguna	12	San Juan la Laguna	2	Febrero	2023-02-24T00:00:00	2024-11-08T18:00:00	6	Velocidad del viento	4.8
38662	7	Sololá	717	San Juan la Laguna	12	San Juan la Laguna	2	Febrero	2023-02-24T00:00:00	2024-11-08T18:00:00	7	Dirección del viento	4.83
38663	7	Sololá	717	San Juan la Laguna	12	San Juan la Laguna	2	Febrero	2023-02-24T00:00:00	2024-11-08T18:00:00	1	Precipitación	0
38664	7	Sololá	717	San Juan la Laguna	12	San Juan la Laguna	2	Febrero	2023-02-24T00:00:00	2024-11-08T18:00:00	8	Radiación solar	44
38665	7	Sololá	717	San Juan la Laguna	12	San Juan la Laguna	2	Febrero	2023-02-24T00:00:00	2024-11-08T19:00:00	2	Temperatura media	17.5
38666	7	Sololá	717	San Juan la Laguna	12	San Juan la Laguna	2	Febrero	2023-02-24T00:00:00	2024-11-08T19:00:00	4	Temperatura máxima	19.7
38667	7	Sololá	717	San Juan la Laguna	12	San Juan la Laguna	2	Febrero	2023-02-24T00:00:00	2024-11-08T19:00:00	3	Temperatura mínima	17.5
38668	7	Sololá	717	San Juan la Laguna	12	San Juan la Laguna	2	Febrero	2023-02-24T00:00:00	2024-11-08T19:00:00	5	Humedad	81
38669	7	Sololá	717	San Juan la Laguna	12	San Juan la Laguna	2	Febrero	2023-02-24T00:00:00	2024-11-08T19:00:00	6	Velocidad del viento	1.6
38670	7	Sololá	717	San Juan la Laguna	12	San Juan la Laguna	2	Febrero	2023-02-24T00:00:00	2024-11-08T19:00:00	7	Dirección del viento	1.61
38671	7	Sololá	717	San Juan la Laguna	12	San Juan la Laguna	2	Febrero	2023-02-24T00:00:00	2024-11-08T19:00:00	1	Precipitación	0
38672	7	Sololá	717	San Juan la Laguna	12	San Juan la Laguna	2	Febrero	2023-02-24T00:00:00	2024-11-08T19:00:00	8	Radiación solar	0
38673	7	Sololá	717	San Juan la Laguna	12	San Juan la Laguna	2	Febrero	2023-02-24T00:00:00	2024-11-08T20:00:00	2	Temperatura media	16.3
38674	7	Sololá	717	San Juan la Laguna	12	San Juan la Laguna	2	Febrero	2023-02-24T00:00:00	2024-11-08T20:00:00	4	Temperatura máxima	17.5
38675	7	Sololá	717	San Juan la Laguna	12	San Juan la Laguna	2	Febrero	2023-02-24T00:00:00	2024-11-08T20:00:00	3	Temperatura mínima	16.3
38676	7	Sololá	717	San Juan la Laguna	12	San Juan la Laguna	2	Febrero	2023-02-24T00:00:00	2024-11-08T20:00:00	5	Humedad	84
38677	7	Sololá	717	San Juan la Laguna	12	San Juan la Laguna	2	Febrero	2023-02-24T00:00:00	2024-11-08T20:00:00	6	Velocidad del viento	0
38678	7	Sololá	717	San Juan la Laguna	12	San Juan la Laguna	2	Febrero	2023-02-24T00:00:00	2024-11-08T20:00:00	7	Dirección del viento	0
38679	7	Sololá	717	San Juan la Laguna	12	San Juan la Laguna	2	Febrero	2023-02-24T00:00:00	2024-11-08T20:00:00	1	Precipitación	0
38680	7	Sololá	717	San Juan la Laguna	12	San Juan la Laguna	2	Febrero	2023-02-24T00:00:00	2024-11-08T20:00:00	8	Radiación solar	0
38681	7	Sololá	717	San Juan la Laguna	12	San Juan la Laguna	2	Febrero	2023-02-24T00:00:00	2024-11-08T21:00:00	2	Temperatura media	15.9
38682	7	Sololá	717	San Juan la Laguna	12	San Juan la Laguna	2	Febrero	2023-02-24T00:00:00	2024-11-08T21:00:00	4	Temperatura máxima	16.4
38683	7	Sololá	717	San Juan la Laguna	12	San Juan la Laguna	2	Febrero	2023-02-24T00:00:00	2024-11-08T21:00:00	3	Temperatura mínima	15.8
38684	7	Sololá	717	San Juan la Laguna	12	San Juan la Laguna	2	Febrero	2023-02-24T00:00:00	2024-11-08T21:00:00	5	Humedad	87
38685	7	Sololá	717	San Juan la Laguna	12	San Juan la Laguna	2	Febrero	2023-02-24T00:00:00	2024-11-08T21:00:00	6	Velocidad del viento	0
38686	7	Sololá	717	San Juan la Laguna	12	San Juan la Laguna	2	Febrero	2023-02-24T00:00:00	2024-11-08T21:00:00	7	Dirección del viento	0
38687	7	Sololá	717	San Juan la Laguna	12	San Juan la Laguna	2	Febrero	2023-02-24T00:00:00	2024-11-08T21:00:00	1	Precipitación	0
38688	7	Sololá	717	San Juan la Laguna	12	San Juan la Laguna	2	Febrero	2023-02-24T00:00:00	2024-11-08T21:00:00	8	Radiación solar	0
38689	7	Sololá	717	San Juan la Laguna	12	San Juan la Laguna	2	Febrero	2023-02-24T00:00:00	2024-11-08T22:00:00	2	Temperatura media	15.4
38690	7	Sololá	717	San Juan la Laguna	12	San Juan la Laguna	2	Febrero	2023-02-24T00:00:00	2024-11-08T22:00:00	4	Temperatura máxima	16.3
38691	7	Sololá	717	San Juan la Laguna	12	San Juan la Laguna	2	Febrero	2023-02-24T00:00:00	2024-11-08T22:00:00	3	Temperatura mínima	15.2
38692	7	Sololá	717	San Juan la Laguna	12	San Juan la Laguna	2	Febrero	2023-02-24T00:00:00	2024-11-08T22:00:00	5	Humedad	87
38693	7	Sololá	717	San Juan la Laguna	12	San Juan la Laguna	2	Febrero	2023-02-24T00:00:00	2024-11-08T22:00:00	6	Velocidad del viento	1.6
38694	7	Sololá	717	San Juan la Laguna	12	San Juan la Laguna	2	Febrero	2023-02-24T00:00:00	2024-11-08T22:00:00	7	Dirección del viento	1.61
38695	7	Sololá	717	San Juan la Laguna	12	San Juan la Laguna	2	Febrero	2023-02-24T00:00:00	2024-11-08T22:00:00	1	Precipitación	0
38696	7	Sololá	717	San Juan la Laguna	12	San Juan la Laguna	2	Febrero	2023-02-24T00:00:00	2024-11-08T22:00:00	8	Radiación solar	0
38697	7	Sololá	717	San Juan la Laguna	12	San Juan la Laguna	2	Febrero	2023-02-24T00:00:00	2024-11-08T23:00:00	2	Temperatura media	15.3
38698	7	Sololá	717	San Juan la Laguna	12	San Juan la Laguna	2	Febrero	2023-02-24T00:00:00	2024-11-08T23:00:00	4	Temperatura máxima	16.7
38699	7	Sololá	717	San Juan la Laguna	12	San Juan la Laguna	2	Febrero	2023-02-24T00:00:00	2024-11-08T23:00:00	3	Temperatura mínima	15.3
38700	7	Sololá	717	San Juan la Laguna	12	San Juan la Laguna	2	Febrero	2023-02-24T00:00:00	2024-11-08T23:00:00	5	Humedad	82
38701	7	Sololá	717	San Juan la Laguna	12	San Juan la Laguna	2	Febrero	2023-02-24T00:00:00	2024-11-08T23:00:00	6	Velocidad del viento	1.6
38702	7	Sololá	717	San Juan la Laguna	12	San Juan la Laguna	2	Febrero	2023-02-24T00:00:00	2024-11-08T23:00:00	7	Dirección del viento	1.61
38703	7	Sololá	717	San Juan la Laguna	12	San Juan la Laguna	2	Febrero	2023-02-24T00:00:00	2024-11-08T23:00:00	1	Precipitación	0
38704	7	Sololá	717	San Juan la Laguna	12	San Juan la Laguna	2	Febrero	2023-02-24T00:00:00	2024-11-08T23:00:00	8	Radiación solar	0
38705	7	Sololá	717	San Juan la Laguna	12	San Juan la Laguna	2	Febrero	2023-02-25T00:00:00	2024-11-08T00:00:00	2	Temperatura media	14.2
38706	7	Sololá	717	San Juan la Laguna	12	San Juan la Laguna	2	Febrero	2023-02-25T00:00:00	2024-11-08T00:00:00	4	Temperatura máxima	15.3
38707	7	Sololá	717	San Juan la Laguna	12	San Juan la Laguna	2	Febrero	2023-02-25T00:00:00	2024-11-08T00:00:00	3	Temperatura mínima	14.2
38708	7	Sololá	717	San Juan la Laguna	12	San Juan la Laguna	2	Febrero	2023-02-25T00:00:00	2024-11-08T00:00:00	5	Humedad	83
38709	7	Sololá	717	San Juan la Laguna	12	San Juan la Laguna	2	Febrero	2023-02-25T00:00:00	2024-11-08T00:00:00	6	Velocidad del viento	3.2
38710	7	Sololá	717	San Juan la Laguna	12	San Juan la Laguna	2	Febrero	2023-02-25T00:00:00	2024-11-08T00:00:00	7	Dirección del viento	3.22
38711	7	Sololá	717	San Juan la Laguna	12	San Juan la Laguna	2	Febrero	2023-02-25T00:00:00	2024-11-08T00:00:00	1	Precipitación	0
38712	7	Sololá	717	San Juan la Laguna	12	San Juan la Laguna	2	Febrero	2023-02-25T00:00:00	2024-11-08T00:00:00	8	Radiación solar	0
38713	7	Sololá	717	San Juan la Laguna	12	San Juan la Laguna	2	Febrero	2023-02-25T00:00:00	2024-11-08T01:00:00	2	Temperatura media	13.8
38714	7	Sololá	717	San Juan la Laguna	12	San Juan la Laguna	2	Febrero	2023-02-25T00:00:00	2024-11-08T01:00:00	4	Temperatura máxima	14.6
38715	7	Sololá	717	San Juan la Laguna	12	San Juan la Laguna	2	Febrero	2023-02-25T00:00:00	2024-11-08T01:00:00	3	Temperatura mínima	13.8
38716	7	Sololá	717	San Juan la Laguna	12	San Juan la Laguna	2	Febrero	2023-02-25T00:00:00	2024-11-08T01:00:00	5	Humedad	83
38717	7	Sololá	717	San Juan la Laguna	12	San Juan la Laguna	2	Febrero	2023-02-25T00:00:00	2024-11-08T01:00:00	6	Velocidad del viento	1.6
38718	7	Sololá	717	San Juan la Laguna	12	San Juan la Laguna	2	Febrero	2023-02-25T00:00:00	2024-11-08T01:00:00	7	Dirección del viento	1.61
38719	7	Sololá	717	San Juan la Laguna	12	San Juan la Laguna	2	Febrero	2023-02-25T00:00:00	2024-11-08T01:00:00	1	Precipitación	0
38720	7	Sololá	717	San Juan la Laguna	12	San Juan la Laguna	2	Febrero	2023-02-25T00:00:00	2024-11-08T01:00:00	8	Radiación solar	0
38721	7	Sololá	717	San Juan la Laguna	12	San Juan la Laguna	2	Febrero	2023-02-25T00:00:00	2024-11-08T02:00:00	2	Temperatura media	13.2
38722	7	Sololá	717	San Juan la Laguna	12	San Juan la Laguna	2	Febrero	2023-02-25T00:00:00	2024-11-08T02:00:00	4	Temperatura máxima	13.8
38723	7	Sololá	717	San Juan la Laguna	12	San Juan la Laguna	2	Febrero	2023-02-25T00:00:00	2024-11-08T02:00:00	3	Temperatura mínima	13.2
38724	7	Sololá	717	San Juan la Laguna	12	San Juan la Laguna	2	Febrero	2023-02-25T00:00:00	2024-11-08T02:00:00	5	Humedad	78
38725	7	Sololá	717	San Juan la Laguna	12	San Juan la Laguna	2	Febrero	2023-02-25T00:00:00	2024-11-08T02:00:00	6	Velocidad del viento	3.2
38726	7	Sololá	717	San Juan la Laguna	12	San Juan la Laguna	2	Febrero	2023-02-25T00:00:00	2024-11-08T02:00:00	7	Dirección del viento	3.22
38727	7	Sololá	717	San Juan la Laguna	12	San Juan la Laguna	2	Febrero	2023-02-25T00:00:00	2024-11-08T02:00:00	1	Precipitación	0
38728	7	Sololá	717	San Juan la Laguna	12	San Juan la Laguna	2	Febrero	2023-02-25T00:00:00	2024-11-08T02:00:00	8	Radiación solar	0
38729	7	Sololá	717	San Juan la Laguna	12	San Juan la Laguna	2	Febrero	2023-02-25T00:00:00	2024-11-08T03:00:00	2	Temperatura media	12.9
38730	7	Sololá	717	San Juan la Laguna	12	San Juan la Laguna	2	Febrero	2023-02-25T00:00:00	2024-11-08T03:00:00	4	Temperatura máxima	13.2
38731	7	Sololá	717	San Juan la Laguna	12	San Juan la Laguna	2	Febrero	2023-02-25T00:00:00	2024-11-08T03:00:00	3	Temperatura mínima	12.6
38732	7	Sololá	717	San Juan la Laguna	12	San Juan la Laguna	2	Febrero	2023-02-25T00:00:00	2024-11-08T03:00:00	5	Humedad	78
38733	7	Sololá	717	San Juan la Laguna	12	San Juan la Laguna	2	Febrero	2023-02-25T00:00:00	2024-11-08T03:00:00	6	Velocidad del viento	3.2
38734	7	Sololá	717	San Juan la Laguna	12	San Juan la Laguna	2	Febrero	2023-02-25T00:00:00	2024-11-08T03:00:00	7	Dirección del viento	3.22
38735	7	Sololá	717	San Juan la Laguna	12	San Juan la Laguna	2	Febrero	2023-02-25T00:00:00	2024-11-08T03:00:00	1	Precipitación	0
38736	7	Sololá	717	San Juan la Laguna	12	San Juan la Laguna	2	Febrero	2023-02-25T00:00:00	2024-11-08T03:00:00	8	Radiación solar	0
38737	7	Sololá	717	San Juan la Laguna	12	San Juan la Laguna	2	Febrero	2023-02-25T00:00:00	2024-11-08T04:00:00	2	Temperatura media	12.7
38738	7	Sololá	717	San Juan la Laguna	12	San Juan la Laguna	2	Febrero	2023-02-25T00:00:00	2024-11-08T04:00:00	4	Temperatura máxima	12.9
38739	7	Sololá	717	San Juan la Laguna	12	San Juan la Laguna	2	Febrero	2023-02-25T00:00:00	2024-11-08T04:00:00	3	Temperatura mínima	12.6
38740	7	Sololá	717	San Juan la Laguna	12	San Juan la Laguna	2	Febrero	2023-02-25T00:00:00	2024-11-08T04:00:00	5	Humedad	74
38741	7	Sololá	717	San Juan la Laguna	12	San Juan la Laguna	2	Febrero	2023-02-25T00:00:00	2024-11-08T04:00:00	6	Velocidad del viento	4.8
38742	7	Sololá	717	San Juan la Laguna	12	San Juan la Laguna	2	Febrero	2023-02-25T00:00:00	2024-11-08T04:00:00	7	Dirección del viento	4.83
38743	7	Sololá	717	San Juan la Laguna	12	San Juan la Laguna	2	Febrero	2023-02-25T00:00:00	2024-11-08T04:00:00	1	Precipitación	0
38744	7	Sololá	717	San Juan la Laguna	12	San Juan la Laguna	2	Febrero	2023-02-25T00:00:00	2024-11-08T04:00:00	8	Radiación solar	0
38745	7	Sololá	717	San Juan la Laguna	12	San Juan la Laguna	2	Febrero	2023-02-25T00:00:00	2024-11-08T05:00:00	2	Temperatura media	11.9
38746	7	Sololá	717	San Juan la Laguna	12	San Juan la Laguna	2	Febrero	2023-02-25T00:00:00	2024-11-08T05:00:00	4	Temperatura máxima	12.7
38747	7	Sololá	717	San Juan la Laguna	12	San Juan la Laguna	2	Febrero	2023-02-25T00:00:00	2024-11-08T05:00:00	3	Temperatura mínima	11.9
38748	7	Sololá	717	San Juan la Laguna	12	San Juan la Laguna	2	Febrero	2023-02-25T00:00:00	2024-11-08T05:00:00	5	Humedad	80
38749	7	Sololá	717	San Juan la Laguna	12	San Juan la Laguna	2	Febrero	2023-02-25T00:00:00	2024-11-08T05:00:00	6	Velocidad del viento	4.8
38750	7	Sololá	717	San Juan la Laguna	12	San Juan la Laguna	2	Febrero	2023-02-25T00:00:00	2024-11-08T05:00:00	7	Dirección del viento	4.83
38751	7	Sololá	717	San Juan la Laguna	12	San Juan la Laguna	2	Febrero	2023-02-25T00:00:00	2024-11-08T05:00:00	1	Precipitación	0
38752	7	Sololá	717	San Juan la Laguna	12	San Juan la Laguna	2	Febrero	2023-02-25T00:00:00	2024-11-08T05:00:00	8	Radiación solar	0
38753	7	Sololá	717	San Juan la Laguna	12	San Juan la Laguna	2	Febrero	2023-02-25T00:00:00	2024-11-08T06:00:00	2	Temperatura media	11.8
38754	7	Sololá	717	San Juan la Laguna	12	San Juan la Laguna	2	Febrero	2023-02-25T00:00:00	2024-11-08T06:00:00	4	Temperatura máxima	11.9
38755	7	Sololá	717	San Juan la Laguna	12	San Juan la Laguna	2	Febrero	2023-02-25T00:00:00	2024-11-08T06:00:00	3	Temperatura mínima	11.5
38756	7	Sololá	717	San Juan la Laguna	12	San Juan la Laguna	2	Febrero	2023-02-25T00:00:00	2024-11-08T06:00:00	5	Humedad	78
38757	7	Sololá	717	San Juan la Laguna	12	San Juan la Laguna	2	Febrero	2023-02-25T00:00:00	2024-11-08T06:00:00	6	Velocidad del viento	4.8
38758	7	Sololá	717	San Juan la Laguna	12	San Juan la Laguna	2	Febrero	2023-02-25T00:00:00	2024-11-08T06:00:00	7	Dirección del viento	4.83
38759	7	Sololá	717	San Juan la Laguna	12	San Juan la Laguna	2	Febrero	2023-02-25T00:00:00	2024-11-08T06:00:00	1	Precipitación	0
38760	7	Sololá	717	San Juan la Laguna	12	San Juan la Laguna	2	Febrero	2023-02-25T00:00:00	2024-11-08T06:00:00	8	Radiación solar	0
38761	7	Sololá	717	San Juan la Laguna	12	San Juan la Laguna	2	Febrero	2023-02-25T00:00:00	2024-11-08T07:00:00	2	Temperatura media	11.6
38762	7	Sololá	717	San Juan la Laguna	12	San Juan la Laguna	2	Febrero	2023-02-25T00:00:00	2024-11-08T07:00:00	4	Temperatura máxima	11.8
38763	7	Sololá	717	San Juan la Laguna	12	San Juan la Laguna	2	Febrero	2023-02-25T00:00:00	2024-11-08T07:00:00	3	Temperatura mínima	11.3
38764	7	Sololá	717	San Juan la Laguna	12	San Juan la Laguna	2	Febrero	2023-02-25T00:00:00	2024-11-08T07:00:00	5	Humedad	80
38765	7	Sololá	717	San Juan la Laguna	12	San Juan la Laguna	2	Febrero	2023-02-25T00:00:00	2024-11-08T07:00:00	6	Velocidad del viento	3.2
38766	7	Sololá	717	San Juan la Laguna	12	San Juan la Laguna	2	Febrero	2023-02-25T00:00:00	2024-11-08T07:00:00	7	Dirección del viento	3.22
38767	7	Sololá	717	San Juan la Laguna	12	San Juan la Laguna	2	Febrero	2023-02-25T00:00:00	2024-11-08T07:00:00	1	Precipitación	0
38768	7	Sololá	717	San Juan la Laguna	12	San Juan la Laguna	2	Febrero	2023-02-25T00:00:00	2024-11-08T07:00:00	8	Radiación solar	12
38769	7	Sololá	717	San Juan la Laguna	12	San Juan la Laguna	2	Febrero	2023-02-25T00:00:00	2024-11-08T08:00:00	2	Temperatura media	16.1
38770	7	Sololá	717	San Juan la Laguna	12	San Juan la Laguna	2	Febrero	2023-02-25T00:00:00	2024-11-08T08:00:00	4	Temperatura máxima	16.1
38771	7	Sololá	717	San Juan la Laguna	12	San Juan la Laguna	2	Febrero	2023-02-25T00:00:00	2024-11-08T08:00:00	3	Temperatura mínima	11.7
38772	7	Sololá	717	San Juan la Laguna	12	San Juan la Laguna	2	Febrero	2023-02-25T00:00:00	2024-11-08T08:00:00	5	Humedad	70
38773	7	Sololá	717	San Juan la Laguna	12	San Juan la Laguna	2	Febrero	2023-02-25T00:00:00	2024-11-08T08:00:00	6	Velocidad del viento	1.6
38774	7	Sololá	717	San Juan la Laguna	12	San Juan la Laguna	2	Febrero	2023-02-25T00:00:00	2024-11-08T08:00:00	7	Dirección del viento	1.61
38775	7	Sololá	717	San Juan la Laguna	12	San Juan la Laguna	2	Febrero	2023-02-25T00:00:00	2024-11-08T08:00:00	1	Precipitación	0
38776	7	Sololá	717	San Juan la Laguna	12	San Juan la Laguna	2	Febrero	2023-02-25T00:00:00	2024-11-08T08:00:00	8	Radiación solar	167
38777	7	Sololá	717	San Juan la Laguna	12	San Juan la Laguna	2	Febrero	2023-02-25T00:00:00	2024-11-08T09:00:00	2	Temperatura media	19.8
38778	7	Sololá	717	San Juan la Laguna	12	San Juan la Laguna	2	Febrero	2023-02-25T00:00:00	2024-11-08T09:00:00	4	Temperatura máxima	19.8
38779	7	Sololá	717	San Juan la Laguna	12	San Juan la Laguna	2	Febrero	2023-02-25T00:00:00	2024-11-08T09:00:00	3	Temperatura mínima	16.1
38780	7	Sololá	717	San Juan la Laguna	12	San Juan la Laguna	2	Febrero	2023-02-25T00:00:00	2024-11-08T09:00:00	5	Humedad	58
38781	7	Sololá	717	San Juan la Laguna	12	San Juan la Laguna	2	Febrero	2023-02-25T00:00:00	2024-11-08T09:00:00	6	Velocidad del viento	0
38782	7	Sololá	717	San Juan la Laguna	12	San Juan la Laguna	2	Febrero	2023-02-25T00:00:00	2024-11-08T09:00:00	7	Dirección del viento	0
38783	7	Sololá	717	San Juan la Laguna	12	San Juan la Laguna	2	Febrero	2023-02-25T00:00:00	2024-11-08T09:00:00	1	Precipitación	0
38784	7	Sololá	717	San Juan la Laguna	12	San Juan la Laguna	2	Febrero	2023-02-25T00:00:00	2024-11-08T09:00:00	8	Radiación solar	412
38785	7	Sololá	717	San Juan la Laguna	12	San Juan la Laguna	2	Febrero	2023-02-25T00:00:00	2024-11-08T10:00:00	2	Temperatura media	21.6
38786	7	Sololá	717	San Juan la Laguna	12	San Juan la Laguna	2	Febrero	2023-02-25T00:00:00	2024-11-08T10:00:00	4	Temperatura máxima	21.6
38787	7	Sololá	717	San Juan la Laguna	12	San Juan la Laguna	2	Febrero	2023-02-25T00:00:00	2024-11-08T10:00:00	3	Temperatura mínima	19.9
38788	7	Sololá	717	San Juan la Laguna	12	San Juan la Laguna	2	Febrero	2023-02-25T00:00:00	2024-11-08T10:00:00	5	Humedad	49
38789	7	Sololá	717	San Juan la Laguna	12	San Juan la Laguna	2	Febrero	2023-02-25T00:00:00	2024-11-08T10:00:00	6	Velocidad del viento	1.6
38790	7	Sololá	717	San Juan la Laguna	12	San Juan la Laguna	2	Febrero	2023-02-25T00:00:00	2024-11-08T10:00:00	7	Dirección del viento	1.61
38791	7	Sololá	717	San Juan la Laguna	12	San Juan la Laguna	2	Febrero	2023-02-25T00:00:00	2024-11-08T10:00:00	1	Precipitación	0
38792	7	Sololá	717	San Juan la Laguna	12	San Juan la Laguna	2	Febrero	2023-02-25T00:00:00	2024-11-08T10:00:00	8	Radiación solar	623
38793	7	Sololá	717	San Juan la Laguna	12	San Juan la Laguna	2	Febrero	2023-02-25T00:00:00	2024-11-08T11:00:00	2	Temperatura media	23.5
38794	7	Sololá	717	San Juan la Laguna	12	San Juan la Laguna	2	Febrero	2023-02-25T00:00:00	2024-11-08T11:00:00	4	Temperatura máxima	23.8
38795	7	Sololá	717	San Juan la Laguna	12	San Juan la Laguna	2	Febrero	2023-02-25T00:00:00	2024-11-08T11:00:00	3	Temperatura mínima	21.6
38796	7	Sololá	717	San Juan la Laguna	12	San Juan la Laguna	2	Febrero	2023-02-25T00:00:00	2024-11-08T11:00:00	5	Humedad	39
38797	7	Sololá	717	San Juan la Laguna	12	San Juan la Laguna	2	Febrero	2023-02-25T00:00:00	2024-11-08T11:00:00	6	Velocidad del viento	1.6
38798	7	Sololá	717	San Juan la Laguna	12	San Juan la Laguna	2	Febrero	2023-02-25T00:00:00	2024-11-08T11:00:00	7	Dirección del viento	1.61
38799	7	Sololá	717	San Juan la Laguna	12	San Juan la Laguna	2	Febrero	2023-02-25T00:00:00	2024-11-08T11:00:00	1	Precipitación	0
38800	7	Sololá	717	San Juan la Laguna	12	San Juan la Laguna	2	Febrero	2023-02-25T00:00:00	2024-11-08T11:00:00	8	Radiación solar	786
38801	7	Sololá	717	San Juan la Laguna	12	San Juan la Laguna	2	Febrero	2023-02-25T00:00:00	2024-11-08T12:00:00	2	Temperatura media	25.1
38802	7	Sololá	717	San Juan la Laguna	12	San Juan la Laguna	2	Febrero	2023-02-25T00:00:00	2024-11-08T12:00:00	4	Temperatura máxima	25.2
38803	7	Sololá	717	San Juan la Laguna	12	San Juan la Laguna	2	Febrero	2023-02-25T00:00:00	2024-11-08T12:00:00	3	Temperatura mínima	23
38804	7	Sololá	717	San Juan la Laguna	12	San Juan la Laguna	2	Febrero	2023-02-25T00:00:00	2024-11-08T12:00:00	5	Humedad	32
38805	7	Sololá	717	San Juan la Laguna	12	San Juan la Laguna	2	Febrero	2023-02-25T00:00:00	2024-11-08T12:00:00	6	Velocidad del viento	3.2
38806	7	Sololá	717	San Juan la Laguna	12	San Juan la Laguna	2	Febrero	2023-02-25T00:00:00	2024-11-08T12:00:00	7	Dirección del viento	3.22
38807	7	Sololá	717	San Juan la Laguna	12	San Juan la Laguna	2	Febrero	2023-02-25T00:00:00	2024-11-08T12:00:00	1	Precipitación	0
38808	7	Sololá	717	San Juan la Laguna	12	San Juan la Laguna	2	Febrero	2023-02-25T00:00:00	2024-11-08T12:00:00	8	Radiación solar	784
38809	7	Sololá	717	San Juan la Laguna	12	San Juan la Laguna	2	Febrero	2023-02-25T00:00:00	2024-11-08T13:00:00	2	Temperatura media	25.1
38810	7	Sololá	717	San Juan la Laguna	12	San Juan la Laguna	2	Febrero	2023-02-25T00:00:00	2024-11-08T13:00:00	4	Temperatura máxima	25.5
38811	7	Sololá	717	San Juan la Laguna	12	San Juan la Laguna	2	Febrero	2023-02-25T00:00:00	2024-11-08T13:00:00	3	Temperatura mínima	24.5
38812	7	Sololá	717	San Juan la Laguna	12	San Juan la Laguna	2	Febrero	2023-02-25T00:00:00	2024-11-08T13:00:00	5	Humedad	50
38813	7	Sololá	717	San Juan la Laguna	12	San Juan la Laguna	2	Febrero	2023-02-25T00:00:00	2024-11-08T13:00:00	6	Velocidad del viento	3.2
38814	7	Sololá	717	San Juan la Laguna	12	San Juan la Laguna	2	Febrero	2023-02-25T00:00:00	2024-11-08T13:00:00	7	Dirección del viento	3.22
38815	7	Sololá	717	San Juan la Laguna	12	San Juan la Laguna	2	Febrero	2023-02-25T00:00:00	2024-11-08T13:00:00	1	Precipitación	0
38816	7	Sololá	717	San Juan la Laguna	12	San Juan la Laguna	2	Febrero	2023-02-25T00:00:00	2024-11-08T13:00:00	8	Radiación solar	896
38817	7	Sololá	717	San Juan la Laguna	12	San Juan la Laguna	2	Febrero	2023-02-25T00:00:00	2024-11-08T14:00:00	2	Temperatura media	24.9
38818	7	Sololá	717	San Juan la Laguna	12	San Juan la Laguna	2	Febrero	2023-02-25T00:00:00	2024-11-08T14:00:00	4	Temperatura máxima	25.1
38819	7	Sololá	717	San Juan la Laguna	12	San Juan la Laguna	2	Febrero	2023-02-25T00:00:00	2024-11-08T14:00:00	3	Temperatura mínima	24.3
38820	7	Sololá	717	San Juan la Laguna	12	San Juan la Laguna	2	Febrero	2023-02-25T00:00:00	2024-11-08T14:00:00	5	Humedad	54
38821	7	Sololá	717	San Juan la Laguna	12	San Juan la Laguna	2	Febrero	2023-02-25T00:00:00	2024-11-08T14:00:00	6	Velocidad del viento	3.2
38822	7	Sololá	717	San Juan la Laguna	12	San Juan la Laguna	2	Febrero	2023-02-25T00:00:00	2024-11-08T14:00:00	7	Dirección del viento	3.22
38823	7	Sololá	717	San Juan la Laguna	12	San Juan la Laguna	2	Febrero	2023-02-25T00:00:00	2024-11-08T14:00:00	1	Precipitación	0
38824	7	Sololá	717	San Juan la Laguna	12	San Juan la Laguna	2	Febrero	2023-02-25T00:00:00	2024-11-08T14:00:00	8	Radiación solar	820
38825	7	Sololá	717	San Juan la Laguna	12	San Juan la Laguna	2	Febrero	2023-02-25T00:00:00	2024-11-08T15:00:00	2	Temperatura media	22.8
38826	7	Sololá	717	San Juan la Laguna	12	San Juan la Laguna	2	Febrero	2023-02-25T00:00:00	2024-11-08T15:00:00	4	Temperatura máxima	24.9
38827	7	Sololá	717	San Juan la Laguna	12	San Juan la Laguna	2	Febrero	2023-02-25T00:00:00	2024-11-08T15:00:00	3	Temperatura mínima	22.7
38828	7	Sololá	717	San Juan la Laguna	12	San Juan la Laguna	2	Febrero	2023-02-25T00:00:00	2024-11-08T15:00:00	5	Humedad	67
38829	7	Sololá	717	San Juan la Laguna	12	San Juan la Laguna	2	Febrero	2023-02-25T00:00:00	2024-11-08T15:00:00	6	Velocidad del viento	8
38830	7	Sololá	717	San Juan la Laguna	12	San Juan la Laguna	2	Febrero	2023-02-25T00:00:00	2024-11-08T15:00:00	7	Dirección del viento	8.05
38831	7	Sololá	717	San Juan la Laguna	12	San Juan la Laguna	2	Febrero	2023-02-25T00:00:00	2024-11-08T15:00:00	1	Precipitación	0
38832	7	Sololá	717	San Juan la Laguna	12	San Juan la Laguna	2	Febrero	2023-02-25T00:00:00	2024-11-08T15:00:00	8	Radiación solar	706
38833	7	Sololá	717	San Juan la Laguna	12	San Juan la Laguna	2	Febrero	2023-02-25T00:00:00	2024-11-08T16:00:00	2	Temperatura media	23.2
38834	7	Sololá	717	San Juan la Laguna	12	San Juan la Laguna	2	Febrero	2023-02-25T00:00:00	2024-11-08T16:00:00	4	Temperatura máxima	23.3
38835	7	Sololá	717	San Juan la Laguna	12	San Juan la Laguna	2	Febrero	2023-02-25T00:00:00	2024-11-08T16:00:00	3	Temperatura mínima	22.5
38836	7	Sololá	717	San Juan la Laguna	12	San Juan la Laguna	2	Febrero	2023-02-25T00:00:00	2024-11-08T16:00:00	5	Humedad	65
38837	7	Sololá	717	San Juan la Laguna	12	San Juan la Laguna	2	Febrero	2023-02-25T00:00:00	2024-11-08T16:00:00	6	Velocidad del viento	8
38838	7	Sololá	717	San Juan la Laguna	12	San Juan la Laguna	2	Febrero	2023-02-25T00:00:00	2024-11-08T16:00:00	7	Dirección del viento	8.05
38839	7	Sololá	717	San Juan la Laguna	12	San Juan la Laguna	2	Febrero	2023-02-25T00:00:00	2024-11-08T16:00:00	1	Precipitación	0
38840	7	Sololá	717	San Juan la Laguna	12	San Juan la Laguna	2	Febrero	2023-02-25T00:00:00	2024-11-08T16:00:00	8	Radiación solar	526
38841	7	Sololá	717	San Juan la Laguna	12	San Juan la Laguna	2	Febrero	2023-02-25T00:00:00	2024-11-08T17:00:00	2	Temperatura media	22.3
38842	7	Sololá	717	San Juan la Laguna	12	San Juan la Laguna	2	Febrero	2023-02-25T00:00:00	2024-11-08T17:00:00	4	Temperatura máxima	23.6
38843	7	Sololá	717	San Juan la Laguna	12	San Juan la Laguna	2	Febrero	2023-02-25T00:00:00	2024-11-08T17:00:00	3	Temperatura mínima	22.3
38844	7	Sololá	717	San Juan la Laguna	12	San Juan la Laguna	2	Febrero	2023-02-25T00:00:00	2024-11-08T17:00:00	5	Humedad	69
38845	7	Sololá	717	San Juan la Laguna	12	San Juan la Laguna	2	Febrero	2023-02-25T00:00:00	2024-11-08T17:00:00	6	Velocidad del viento	3.2
38846	7	Sololá	717	San Juan la Laguna	12	San Juan la Laguna	2	Febrero	2023-02-25T00:00:00	2024-11-08T17:00:00	7	Dirección del viento	3.22
38847	7	Sololá	717	San Juan la Laguna	12	San Juan la Laguna	2	Febrero	2023-02-25T00:00:00	2024-11-08T17:00:00	1	Precipitación	0
38848	7	Sololá	717	San Juan la Laguna	12	San Juan la Laguna	2	Febrero	2023-02-25T00:00:00	2024-11-08T17:00:00	8	Radiación solar	296
38849	7	Sololá	717	San Juan la Laguna	12	San Juan la Laguna	2	Febrero	2023-02-25T00:00:00	2024-11-08T18:00:00	2	Temperatura media	20.3
38850	7	Sololá	717	San Juan la Laguna	12	San Juan la Laguna	2	Febrero	2023-02-25T00:00:00	2024-11-08T18:00:00	4	Temperatura máxima	22.3
38851	7	Sololá	717	San Juan la Laguna	12	San Juan la Laguna	2	Febrero	2023-02-25T00:00:00	2024-11-08T18:00:00	3	Temperatura mínima	20.3
38852	7	Sololá	717	San Juan la Laguna	12	San Juan la Laguna	2	Febrero	2023-02-25T00:00:00	2024-11-08T18:00:00	5	Humedad	75
38853	7	Sololá	717	San Juan la Laguna	12	San Juan la Laguna	2	Febrero	2023-02-25T00:00:00	2024-11-08T18:00:00	6	Velocidad del viento	1.6
38854	7	Sololá	717	San Juan la Laguna	12	San Juan la Laguna	2	Febrero	2023-02-25T00:00:00	2024-11-08T18:00:00	7	Dirección del viento	1.61
38855	7	Sololá	717	San Juan la Laguna	12	San Juan la Laguna	2	Febrero	2023-02-25T00:00:00	2024-11-08T18:00:00	1	Precipitación	0
38856	7	Sololá	717	San Juan la Laguna	12	San Juan la Laguna	2	Febrero	2023-02-25T00:00:00	2024-11-08T18:00:00	8	Radiación solar	55
38857	7	Sololá	717	San Juan la Laguna	12	San Juan la Laguna	2	Febrero	2023-02-25T00:00:00	2024-11-08T19:00:00	2	Temperatura media	18.4
38858	7	Sololá	717	San Juan la Laguna	12	San Juan la Laguna	2	Febrero	2023-02-25T00:00:00	2024-11-08T19:00:00	4	Temperatura máxima	20.3
38859	7	Sololá	717	San Juan la Laguna	12	San Juan la Laguna	2	Febrero	2023-02-25T00:00:00	2024-11-08T19:00:00	3	Temperatura mínima	18.4
38860	7	Sololá	717	San Juan la Laguna	12	San Juan la Laguna	2	Febrero	2023-02-25T00:00:00	2024-11-08T19:00:00	5	Humedad	82
38861	7	Sololá	717	San Juan la Laguna	12	San Juan la Laguna	2	Febrero	2023-02-25T00:00:00	2024-11-08T19:00:00	6	Velocidad del viento	1.6
38862	7	Sololá	717	San Juan la Laguna	12	San Juan la Laguna	2	Febrero	2023-02-25T00:00:00	2024-11-08T19:00:00	7	Dirección del viento	1.61
38863	7	Sololá	717	San Juan la Laguna	12	San Juan la Laguna	2	Febrero	2023-02-25T00:00:00	2024-11-08T19:00:00	1	Precipitación	0
38864	7	Sololá	717	San Juan la Laguna	12	San Juan la Laguna	2	Febrero	2023-02-25T00:00:00	2024-11-08T19:00:00	8	Radiación solar	0
38865	7	Sololá	717	San Juan la Laguna	12	San Juan la Laguna	2	Febrero	2023-02-25T00:00:00	2024-11-08T20:00:00	2	Temperatura media	17.2
38866	7	Sololá	717	San Juan la Laguna	12	San Juan la Laguna	2	Febrero	2023-02-25T00:00:00	2024-11-08T20:00:00	4	Temperatura máxima	18.4
38867	7	Sololá	717	San Juan la Laguna	12	San Juan la Laguna	2	Febrero	2023-02-25T00:00:00	2024-11-08T20:00:00	3	Temperatura mínima	17.2
38868	7	Sololá	717	San Juan la Laguna	12	San Juan la Laguna	2	Febrero	2023-02-25T00:00:00	2024-11-08T20:00:00	5	Humedad	86
38869	7	Sololá	717	San Juan la Laguna	12	San Juan la Laguna	2	Febrero	2023-02-25T00:00:00	2024-11-08T20:00:00	6	Velocidad del viento	1.6
38870	7	Sololá	717	San Juan la Laguna	12	San Juan la Laguna	2	Febrero	2023-02-25T00:00:00	2024-11-08T20:00:00	7	Dirección del viento	1.61
38871	7	Sololá	717	San Juan la Laguna	12	San Juan la Laguna	2	Febrero	2023-02-25T00:00:00	2024-11-08T20:00:00	1	Precipitación	0
38872	7	Sololá	717	San Juan la Laguna	12	San Juan la Laguna	2	Febrero	2023-02-25T00:00:00	2024-11-08T20:00:00	8	Radiación solar	0
38873	7	Sololá	717	San Juan la Laguna	12	San Juan la Laguna	2	Febrero	2023-02-25T00:00:00	2024-11-08T21:00:00	2	Temperatura media	18.4
38874	7	Sololá	717	San Juan la Laguna	12	San Juan la Laguna	2	Febrero	2023-02-25T00:00:00	2024-11-08T21:00:00	4	Temperatura máxima	18.5
38875	7	Sololá	717	San Juan la Laguna	12	San Juan la Laguna	2	Febrero	2023-02-25T00:00:00	2024-11-08T21:00:00	3	Temperatura mínima	17.1
38876	7	Sololá	717	San Juan la Laguna	12	San Juan la Laguna	2	Febrero	2023-02-25T00:00:00	2024-11-08T21:00:00	5	Humedad	72
38877	7	Sololá	717	San Juan la Laguna	12	San Juan la Laguna	2	Febrero	2023-02-25T00:00:00	2024-11-08T21:00:00	6	Velocidad del viento	1.6
38878	7	Sololá	717	San Juan la Laguna	12	San Juan la Laguna	2	Febrero	2023-02-25T00:00:00	2024-11-08T21:00:00	7	Dirección del viento	1.61
38879	7	Sololá	717	San Juan la Laguna	12	San Juan la Laguna	2	Febrero	2023-02-25T00:00:00	2024-11-08T21:00:00	1	Precipitación	0
38880	7	Sololá	717	San Juan la Laguna	12	San Juan la Laguna	2	Febrero	2023-02-25T00:00:00	2024-11-08T21:00:00	8	Radiación solar	0
38881	7	Sololá	717	San Juan la Laguna	12	San Juan la Laguna	2	Febrero	2023-02-25T00:00:00	2024-11-08T22:00:00	2	Temperatura media	16.8
38882	7	Sololá	717	San Juan la Laguna	12	San Juan la Laguna	2	Febrero	2023-02-25T00:00:00	2024-11-08T22:00:00	4	Temperatura máxima	18.4
38883	7	Sololá	717	San Juan la Laguna	12	San Juan la Laguna	2	Febrero	2023-02-25T00:00:00	2024-11-08T22:00:00	3	Temperatura mínima	16.8
38884	7	Sololá	717	San Juan la Laguna	12	San Juan la Laguna	2	Febrero	2023-02-25T00:00:00	2024-11-08T22:00:00	5	Humedad	75
38885	7	Sololá	717	San Juan la Laguna	12	San Juan la Laguna	2	Febrero	2023-02-25T00:00:00	2024-11-08T22:00:00	6	Velocidad del viento	1.6
38886	7	Sololá	717	San Juan la Laguna	12	San Juan la Laguna	2	Febrero	2023-02-25T00:00:00	2024-11-08T22:00:00	7	Dirección del viento	1.61
38887	7	Sololá	717	San Juan la Laguna	12	San Juan la Laguna	2	Febrero	2023-02-25T00:00:00	2024-11-08T22:00:00	1	Precipitación	0
38888	7	Sololá	717	San Juan la Laguna	12	San Juan la Laguna	2	Febrero	2023-02-25T00:00:00	2024-11-08T22:00:00	8	Radiación solar	0
38889	7	Sololá	717	San Juan la Laguna	12	San Juan la Laguna	2	Febrero	2023-02-25T00:00:00	2024-11-08T23:00:00	2	Temperatura media	17.9
38890	7	Sololá	717	San Juan la Laguna	12	San Juan la Laguna	2	Febrero	2023-02-25T00:00:00	2024-11-08T23:00:00	4	Temperatura máxima	17.9
38891	7	Sololá	717	San Juan la Laguna	12	San Juan la Laguna	2	Febrero	2023-02-25T00:00:00	2024-11-08T23:00:00	3	Temperatura mínima	16.4
38892	7	Sololá	717	San Juan la Laguna	12	San Juan la Laguna	2	Febrero	2023-02-25T00:00:00	2024-11-08T23:00:00	5	Humedad	66
38893	7	Sololá	717	San Juan la Laguna	12	San Juan la Laguna	2	Febrero	2023-02-25T00:00:00	2024-11-08T23:00:00	6	Velocidad del viento	1.6
38894	7	Sololá	717	San Juan la Laguna	12	San Juan la Laguna	2	Febrero	2023-02-25T00:00:00	2024-11-08T23:00:00	7	Dirección del viento	1.61
38895	7	Sololá	717	San Juan la Laguna	12	San Juan la Laguna	2	Febrero	2023-02-25T00:00:00	2024-11-08T23:00:00	1	Precipitación	0
38896	7	Sololá	717	San Juan la Laguna	12	San Juan la Laguna	2	Febrero	2023-02-25T00:00:00	2024-11-08T23:00:00	8	Radiación solar	0
38897	7	Sololá	717	San Juan la Laguna	12	San Juan la Laguna	2	Febrero	2023-02-26T00:00:00	2024-11-08T00:00:00	2	Temperatura media	16.8
38898	7	Sololá	717	San Juan la Laguna	12	San Juan la Laguna	2	Febrero	2023-02-26T00:00:00	2024-11-08T00:00:00	4	Temperatura máxima	17.9
38899	7	Sololá	717	San Juan la Laguna	12	San Juan la Laguna	2	Febrero	2023-02-26T00:00:00	2024-11-08T00:00:00	3	Temperatura mínima	16.3
38900	7	Sololá	717	San Juan la Laguna	12	San Juan la Laguna	2	Febrero	2023-02-26T00:00:00	2024-11-08T00:00:00	5	Humedad	69
38901	7	Sololá	717	San Juan la Laguna	12	San Juan la Laguna	2	Febrero	2023-02-26T00:00:00	2024-11-08T00:00:00	6	Velocidad del viento	3.2
38902	7	Sololá	717	San Juan la Laguna	12	San Juan la Laguna	2	Febrero	2023-02-26T00:00:00	2024-11-08T00:00:00	7	Dirección del viento	3.22
38903	7	Sololá	717	San Juan la Laguna	12	San Juan la Laguna	2	Febrero	2023-02-26T00:00:00	2024-11-08T00:00:00	1	Precipitación	0
38904	7	Sololá	717	San Juan la Laguna	12	San Juan la Laguna	2	Febrero	2023-02-26T00:00:00	2024-11-08T00:00:00	8	Radiación solar	0
38905	7	Sololá	717	San Juan la Laguna	12	San Juan la Laguna	2	Febrero	2023-02-26T00:00:00	2024-11-08T01:00:00	2	Temperatura media	13.8
38906	7	Sololá	717	San Juan la Laguna	12	San Juan la Laguna	2	Febrero	2023-02-26T00:00:00	2024-11-08T01:00:00	4	Temperatura máxima	16.8
38907	7	Sololá	717	San Juan la Laguna	12	San Juan la Laguna	2	Febrero	2023-02-26T00:00:00	2024-11-08T01:00:00	3	Temperatura mínima	13.7
38908	7	Sololá	717	San Juan la Laguna	12	San Juan la Laguna	2	Febrero	2023-02-26T00:00:00	2024-11-08T01:00:00	5	Humedad	77
38909	7	Sololá	717	San Juan la Laguna	12	San Juan la Laguna	2	Febrero	2023-02-26T00:00:00	2024-11-08T01:00:00	6	Velocidad del viento	1.6
38910	7	Sololá	717	San Juan la Laguna	12	San Juan la Laguna	2	Febrero	2023-02-26T00:00:00	2024-11-08T01:00:00	7	Dirección del viento	1.61
38911	7	Sololá	717	San Juan la Laguna	12	San Juan la Laguna	2	Febrero	2023-02-26T00:00:00	2024-11-08T01:00:00	1	Precipitación	0
38912	7	Sololá	717	San Juan la Laguna	12	San Juan la Laguna	2	Febrero	2023-02-26T00:00:00	2024-11-08T01:00:00	8	Radiación solar	0
38913	7	Sololá	717	San Juan la Laguna	12	San Juan la Laguna	2	Febrero	2023-02-26T00:00:00	2024-11-08T02:00:00	2	Temperatura media	13.1
38914	7	Sololá	717	San Juan la Laguna	12	San Juan la Laguna	2	Febrero	2023-02-26T00:00:00	2024-11-08T02:00:00	4	Temperatura máxima	13.7
38915	7	Sololá	717	San Juan la Laguna	12	San Juan la Laguna	2	Febrero	2023-02-26T00:00:00	2024-11-08T02:00:00	3	Temperatura mínima	12.9
38916	7	Sololá	717	San Juan la Laguna	12	San Juan la Laguna	2	Febrero	2023-02-26T00:00:00	2024-11-08T02:00:00	5	Humedad	73
38917	7	Sololá	717	San Juan la Laguna	12	San Juan la Laguna	2	Febrero	2023-02-26T00:00:00	2024-11-08T02:00:00	6	Velocidad del viento	4.8
38918	7	Sololá	717	San Juan la Laguna	12	San Juan la Laguna	2	Febrero	2023-02-26T00:00:00	2024-11-08T02:00:00	7	Dirección del viento	4.83
38919	7	Sololá	717	San Juan la Laguna	12	San Juan la Laguna	2	Febrero	2023-02-26T00:00:00	2024-11-08T02:00:00	1	Precipitación	0
38920	7	Sololá	717	San Juan la Laguna	12	San Juan la Laguna	2	Febrero	2023-02-26T00:00:00	2024-11-08T02:00:00	8	Radiación solar	0
38921	7	Sololá	717	San Juan la Laguna	12	San Juan la Laguna	2	Febrero	2023-02-26T00:00:00	2024-11-08T03:00:00	2	Temperatura media	12.6
38922	7	Sololá	717	San Juan la Laguna	12	San Juan la Laguna	2	Febrero	2023-02-26T00:00:00	2024-11-08T03:00:00	4	Temperatura máxima	13.1
38923	7	Sololá	717	San Juan la Laguna	12	San Juan la Laguna	2	Febrero	2023-02-26T00:00:00	2024-11-08T03:00:00	3	Temperatura mínima	12.5
38924	7	Sololá	717	San Juan la Laguna	12	San Juan la Laguna	2	Febrero	2023-02-26T00:00:00	2024-11-08T03:00:00	5	Humedad	70
38925	7	Sololá	717	San Juan la Laguna	12	San Juan la Laguna	2	Febrero	2023-02-26T00:00:00	2024-11-08T03:00:00	6	Velocidad del viento	6.4
38926	7	Sololá	717	San Juan la Laguna	12	San Juan la Laguna	2	Febrero	2023-02-26T00:00:00	2024-11-08T03:00:00	7	Dirección del viento	6.44
38927	7	Sololá	717	San Juan la Laguna	12	San Juan la Laguna	2	Febrero	2023-02-26T00:00:00	2024-11-08T03:00:00	1	Precipitación	0
38928	7	Sololá	717	San Juan la Laguna	12	San Juan la Laguna	2	Febrero	2023-02-26T00:00:00	2024-11-08T03:00:00	8	Radiación solar	0
38929	7	Sololá	717	San Juan la Laguna	12	San Juan la Laguna	2	Febrero	2023-02-26T00:00:00	2024-11-08T04:00:00	2	Temperatura media	11.7
38930	7	Sololá	717	San Juan la Laguna	12	San Juan la Laguna	2	Febrero	2023-02-26T00:00:00	2024-11-08T04:00:00	4	Temperatura máxima	12.6
38931	7	Sololá	717	San Juan la Laguna	12	San Juan la Laguna	2	Febrero	2023-02-26T00:00:00	2024-11-08T04:00:00	3	Temperatura mínima	11.7
38932	7	Sololá	717	San Juan la Laguna	12	San Juan la Laguna	2	Febrero	2023-02-26T00:00:00	2024-11-08T04:00:00	5	Humedad	74
38933	7	Sololá	717	San Juan la Laguna	12	San Juan la Laguna	2	Febrero	2023-02-26T00:00:00	2024-11-08T04:00:00	6	Velocidad del viento	4.8
38934	7	Sololá	717	San Juan la Laguna	12	San Juan la Laguna	2	Febrero	2023-02-26T00:00:00	2024-11-08T04:00:00	7	Dirección del viento	4.83
38935	7	Sololá	717	San Juan la Laguna	12	San Juan la Laguna	2	Febrero	2023-02-26T00:00:00	2024-11-08T04:00:00	1	Precipitación	0
38936	7	Sololá	717	San Juan la Laguna	12	San Juan la Laguna	2	Febrero	2023-02-26T00:00:00	2024-11-08T04:00:00	8	Radiación solar	0
38937	7	Sololá	717	San Juan la Laguna	12	San Juan la Laguna	2	Febrero	2023-02-26T00:00:00	2024-11-08T05:00:00	2	Temperatura media	11.6
38938	7	Sololá	717	San Juan la Laguna	12	San Juan la Laguna	2	Febrero	2023-02-26T00:00:00	2024-11-08T05:00:00	4	Temperatura máxima	11.8
38939	7	Sololá	717	San Juan la Laguna	12	San Juan la Laguna	2	Febrero	2023-02-26T00:00:00	2024-11-08T05:00:00	3	Temperatura mínima	11.4
38940	7	Sololá	717	San Juan la Laguna	12	San Juan la Laguna	2	Febrero	2023-02-26T00:00:00	2024-11-08T05:00:00	5	Humedad	74
38941	7	Sololá	717	San Juan la Laguna	12	San Juan la Laguna	2	Febrero	2023-02-26T00:00:00	2024-11-08T05:00:00	6	Velocidad del viento	6.4
38942	7	Sololá	717	San Juan la Laguna	12	San Juan la Laguna	2	Febrero	2023-02-26T00:00:00	2024-11-08T05:00:00	7	Dirección del viento	6.44
38943	7	Sololá	717	San Juan la Laguna	12	San Juan la Laguna	2	Febrero	2023-02-26T00:00:00	2024-11-08T05:00:00	1	Precipitación	0
38944	7	Sololá	717	San Juan la Laguna	12	San Juan la Laguna	2	Febrero	2023-02-26T00:00:00	2024-11-08T05:00:00	8	Radiación solar	0
38945	7	Sololá	717	San Juan la Laguna	12	San Juan la Laguna	2	Febrero	2023-02-26T00:00:00	2024-11-08T06:00:00	2	Temperatura media	11.1
38946	7	Sololá	717	San Juan la Laguna	12	San Juan la Laguna	2	Febrero	2023-02-26T00:00:00	2024-11-08T06:00:00	4	Temperatura máxima	11.7
38947	7	Sololá	717	San Juan la Laguna	12	San Juan la Laguna	2	Febrero	2023-02-26T00:00:00	2024-11-08T06:00:00	3	Temperatura mínima	11.1
38948	7	Sololá	717	San Juan la Laguna	12	San Juan la Laguna	2	Febrero	2023-02-26T00:00:00	2024-11-08T06:00:00	5	Humedad	74
38949	7	Sololá	717	San Juan la Laguna	12	San Juan la Laguna	2	Febrero	2023-02-26T00:00:00	2024-11-08T06:00:00	6	Velocidad del viento	6.4
38950	7	Sololá	717	San Juan la Laguna	12	San Juan la Laguna	2	Febrero	2023-02-26T00:00:00	2024-11-08T06:00:00	7	Dirección del viento	6.44
38951	7	Sololá	717	San Juan la Laguna	12	San Juan la Laguna	2	Febrero	2023-02-26T00:00:00	2024-11-08T06:00:00	1	Precipitación	0
38952	7	Sololá	717	San Juan la Laguna	12	San Juan la Laguna	2	Febrero	2023-02-26T00:00:00	2024-11-08T06:00:00	8	Radiación solar	0
38953	7	Sololá	717	San Juan la Laguna	12	San Juan la Laguna	2	Febrero	2023-02-26T00:00:00	2024-11-08T07:00:00	2	Temperatura media	11.4
38954	7	Sololá	717	San Juan la Laguna	12	San Juan la Laguna	2	Febrero	2023-02-26T00:00:00	2024-11-08T07:00:00	4	Temperatura máxima	11.4
38955	7	Sololá	717	San Juan la Laguna	12	San Juan la Laguna	2	Febrero	2023-02-26T00:00:00	2024-11-08T07:00:00	3	Temperatura mínima	11.1
38956	7	Sololá	717	San Juan la Laguna	12	San Juan la Laguna	2	Febrero	2023-02-26T00:00:00	2024-11-08T07:00:00	5	Humedad	73
38957	7	Sololá	717	San Juan la Laguna	12	San Juan la Laguna	2	Febrero	2023-02-26T00:00:00	2024-11-08T07:00:00	6	Velocidad del viento	6.4
38958	7	Sololá	717	San Juan la Laguna	12	San Juan la Laguna	2	Febrero	2023-02-26T00:00:00	2024-11-08T07:00:00	7	Dirección del viento	6.44
38959	7	Sololá	717	San Juan la Laguna	12	San Juan la Laguna	2	Febrero	2023-02-26T00:00:00	2024-11-08T07:00:00	1	Precipitación	0
38960	7	Sololá	717	San Juan la Laguna	12	San Juan la Laguna	2	Febrero	2023-02-26T00:00:00	2024-11-08T07:00:00	8	Radiación solar	12
38961	7	Sololá	717	San Juan la Laguna	12	San Juan la Laguna	2	Febrero	2023-02-26T00:00:00	2024-11-08T08:00:00	2	Temperatura media	15.1
38962	7	Sololá	717	San Juan la Laguna	12	San Juan la Laguna	2	Febrero	2023-02-26T00:00:00	2024-11-08T08:00:00	4	Temperatura máxima	15.1
38963	7	Sololá	717	San Juan la Laguna	12	San Juan la Laguna	2	Febrero	2023-02-26T00:00:00	2024-11-08T08:00:00	3	Temperatura mínima	11.4
38964	7	Sololá	717	San Juan la Laguna	12	San Juan la Laguna	2	Febrero	2023-02-26T00:00:00	2024-11-08T08:00:00	5	Humedad	67
38965	7	Sololá	717	San Juan la Laguna	12	San Juan la Laguna	2	Febrero	2023-02-26T00:00:00	2024-11-08T08:00:00	6	Velocidad del viento	3.2
38966	7	Sololá	717	San Juan la Laguna	12	San Juan la Laguna	2	Febrero	2023-02-26T00:00:00	2024-11-08T08:00:00	7	Dirección del viento	3.22
38967	7	Sololá	717	San Juan la Laguna	12	San Juan la Laguna	2	Febrero	2023-02-26T00:00:00	2024-11-08T08:00:00	1	Precipitación	0
38968	7	Sololá	717	San Juan la Laguna	12	San Juan la Laguna	2	Febrero	2023-02-26T00:00:00	2024-11-08T08:00:00	8	Radiación solar	171
38969	7	Sololá	717	San Juan la Laguna	12	San Juan la Laguna	2	Febrero	2023-02-26T00:00:00	2024-11-08T09:00:00	2	Temperatura media	18.9
38970	7	Sololá	717	San Juan la Laguna	12	San Juan la Laguna	2	Febrero	2023-02-26T00:00:00	2024-11-08T09:00:00	4	Temperatura máxima	19
38971	7	Sololá	717	San Juan la Laguna	12	San Juan la Laguna	2	Febrero	2023-02-26T00:00:00	2024-11-08T09:00:00	3	Temperatura mínima	15.2
38972	7	Sololá	717	San Juan la Laguna	12	San Juan la Laguna	2	Febrero	2023-02-26T00:00:00	2024-11-08T09:00:00	5	Humedad	57
38973	7	Sololá	717	San Juan la Laguna	12	San Juan la Laguna	2	Febrero	2023-02-26T00:00:00	2024-11-08T09:00:00	6	Velocidad del viento	1.6
38974	7	Sololá	717	San Juan la Laguna	12	San Juan la Laguna	2	Febrero	2023-02-26T00:00:00	2024-11-08T09:00:00	7	Dirección del viento	1.61
38975	7	Sololá	717	San Juan la Laguna	12	San Juan la Laguna	2	Febrero	2023-02-26T00:00:00	2024-11-08T09:00:00	1	Precipitación	0
38976	7	Sololá	717	San Juan la Laguna	12	San Juan la Laguna	2	Febrero	2023-02-26T00:00:00	2024-11-08T09:00:00	8	Radiación solar	421
38977	7	Sololá	717	San Juan la Laguna	12	San Juan la Laguna	2	Febrero	2023-02-26T00:00:00	2024-11-08T10:00:00	2	Temperatura media	20.2
38978	7	Sololá	717	San Juan la Laguna	12	San Juan la Laguna	2	Febrero	2023-02-26T00:00:00	2024-11-08T10:00:00	4	Temperatura máxima	20.2
38979	7	Sololá	717	San Juan la Laguna	12	San Juan la Laguna	2	Febrero	2023-02-26T00:00:00	2024-11-08T10:00:00	3	Temperatura mínima	18.6
38980	7	Sololá	717	San Juan la Laguna	12	San Juan la Laguna	2	Febrero	2023-02-26T00:00:00	2024-11-08T10:00:00	5	Humedad	50
38981	7	Sololá	717	San Juan la Laguna	12	San Juan la Laguna	2	Febrero	2023-02-26T00:00:00	2024-11-08T10:00:00	6	Velocidad del viento	3.2
38982	7	Sololá	717	San Juan la Laguna	12	San Juan la Laguna	2	Febrero	2023-02-26T00:00:00	2024-11-08T10:00:00	7	Dirección del viento	3.22
38983	7	Sololá	717	San Juan la Laguna	12	San Juan la Laguna	2	Febrero	2023-02-26T00:00:00	2024-11-08T10:00:00	1	Precipitación	0
38984	7	Sololá	717	San Juan la Laguna	12	San Juan la Laguna	2	Febrero	2023-02-26T00:00:00	2024-11-08T10:00:00	8	Radiación solar	628
38985	7	Sololá	717	San Juan la Laguna	12	San Juan la Laguna	2	Febrero	2023-02-26T00:00:00	2024-11-08T11:00:00	2	Temperatura media	22.6
38986	7	Sololá	717	San Juan la Laguna	12	San Juan la Laguna	2	Febrero	2023-02-26T00:00:00	2024-11-08T11:00:00	4	Temperatura máxima	22.6
38987	7	Sololá	717	San Juan la Laguna	12	San Juan la Laguna	2	Febrero	2023-02-26T00:00:00	2024-11-08T11:00:00	3	Temperatura mínima	20.2
38988	7	Sololá	717	San Juan la Laguna	12	San Juan la Laguna	2	Febrero	2023-02-26T00:00:00	2024-11-08T11:00:00	5	Humedad	42
38989	7	Sololá	717	San Juan la Laguna	12	San Juan la Laguna	2	Febrero	2023-02-26T00:00:00	2024-11-08T11:00:00	6	Velocidad del viento	3.2
38990	7	Sololá	717	San Juan la Laguna	12	San Juan la Laguna	2	Febrero	2023-02-26T00:00:00	2024-11-08T11:00:00	7	Dirección del viento	3.22
38991	7	Sololá	717	San Juan la Laguna	12	San Juan la Laguna	2	Febrero	2023-02-26T00:00:00	2024-11-08T11:00:00	1	Precipitación	0
38992	7	Sololá	717	San Juan la Laguna	12	San Juan la Laguna	2	Febrero	2023-02-26T00:00:00	2024-11-08T11:00:00	8	Radiación solar	788
38993	7	Sololá	717	San Juan la Laguna	12	San Juan la Laguna	2	Febrero	2023-02-26T00:00:00	2024-11-08T12:00:00	2	Temperatura media	23.5
38994	7	Sololá	717	San Juan la Laguna	12	San Juan la Laguna	2	Febrero	2023-02-26T00:00:00	2024-11-08T12:00:00	4	Temperatura máxima	23.6
38995	7	Sololá	717	San Juan la Laguna	12	San Juan la Laguna	2	Febrero	2023-02-26T00:00:00	2024-11-08T12:00:00	3	Temperatura mínima	22.6
38996	7	Sololá	717	San Juan la Laguna	12	San Juan la Laguna	2	Febrero	2023-02-26T00:00:00	2024-11-08T12:00:00	5	Humedad	42
38997	7	Sololá	717	San Juan la Laguna	12	San Juan la Laguna	2	Febrero	2023-02-26T00:00:00	2024-11-08T12:00:00	6	Velocidad del viento	3.2
38998	7	Sololá	717	San Juan la Laguna	12	San Juan la Laguna	2	Febrero	2023-02-26T00:00:00	2024-11-08T12:00:00	7	Dirección del viento	3.22
38999	7	Sololá	717	San Juan la Laguna	12	San Juan la Laguna	2	Febrero	2023-02-26T00:00:00	2024-11-08T12:00:00	1	Precipitación	0
39000	7	Sololá	717	San Juan la Laguna	12	San Juan la Laguna	2	Febrero	2023-02-26T00:00:00	2024-11-08T12:00:00	8	Radiación solar	790
39001	7	Sololá	717	San Juan la Laguna	12	San Juan la Laguna	2	Febrero	2023-02-26T00:00:00	2024-11-08T13:00:00	2	Temperatura media	23.8
39002	7	Sololá	717	San Juan la Laguna	12	San Juan la Laguna	2	Febrero	2023-02-26T00:00:00	2024-11-08T13:00:00	4	Temperatura máxima	23.9
39003	7	Sololá	717	San Juan la Laguna	12	San Juan la Laguna	2	Febrero	2023-02-26T00:00:00	2024-11-08T13:00:00	3	Temperatura mínima	22.9
39004	7	Sololá	717	San Juan la Laguna	12	San Juan la Laguna	2	Febrero	2023-02-26T00:00:00	2024-11-08T13:00:00	5	Humedad	50
39005	7	Sololá	717	San Juan la Laguna	12	San Juan la Laguna	2	Febrero	2023-02-26T00:00:00	2024-11-08T13:00:00	6	Velocidad del viento	4.8
39006	7	Sololá	717	San Juan la Laguna	12	San Juan la Laguna	2	Febrero	2023-02-26T00:00:00	2024-11-08T13:00:00	7	Dirección del viento	4.83
39007	7	Sololá	717	San Juan la Laguna	12	San Juan la Laguna	2	Febrero	2023-02-26T00:00:00	2024-11-08T13:00:00	1	Precipitación	0
39008	7	Sololá	717	San Juan la Laguna	12	San Juan la Laguna	2	Febrero	2023-02-26T00:00:00	2024-11-08T13:00:00	8	Radiación solar	905
39009	7	Sololá	717	San Juan la Laguna	12	San Juan la Laguna	2	Febrero	2023-02-26T00:00:00	2024-11-08T14:00:00	2	Temperatura media	23.3
39010	7	Sololá	717	San Juan la Laguna	12	San Juan la Laguna	2	Febrero	2023-02-26T00:00:00	2024-11-08T14:00:00	4	Temperatura máxima	24.4
39011	7	Sololá	717	San Juan la Laguna	12	San Juan la Laguna	2	Febrero	2023-02-26T00:00:00	2024-11-08T14:00:00	3	Temperatura mínima	22.8
39012	7	Sololá	717	San Juan la Laguna	12	San Juan la Laguna	2	Febrero	2023-02-26T00:00:00	2024-11-08T14:00:00	5	Humedad	62
39013	7	Sololá	717	San Juan la Laguna	12	San Juan la Laguna	2	Febrero	2023-02-26T00:00:00	2024-11-08T14:00:00	6	Velocidad del viento	8
39014	7	Sololá	717	San Juan la Laguna	12	San Juan la Laguna	2	Febrero	2023-02-26T00:00:00	2024-11-08T14:00:00	7	Dirección del viento	8.05
39015	7	Sololá	717	San Juan la Laguna	12	San Juan la Laguna	2	Febrero	2023-02-26T00:00:00	2024-11-08T14:00:00	1	Precipitación	0
39016	7	Sololá	717	San Juan la Laguna	12	San Juan la Laguna	2	Febrero	2023-02-26T00:00:00	2024-11-08T14:00:00	8	Radiación solar	846
39017	7	Sololá	717	San Juan la Laguna	12	San Juan la Laguna	2	Febrero	2023-02-26T00:00:00	2024-11-08T15:00:00	2	Temperatura media	21.7
39018	7	Sololá	717	San Juan la Laguna	12	San Juan la Laguna	2	Febrero	2023-02-26T00:00:00	2024-11-08T15:00:00	4	Temperatura máxima	23.3
39019	7	Sololá	717	San Juan la Laguna	12	San Juan la Laguna	2	Febrero	2023-02-26T00:00:00	2024-11-08T15:00:00	3	Temperatura mínima	21.3
39020	7	Sololá	717	San Juan la Laguna	12	San Juan la Laguna	2	Febrero	2023-02-26T00:00:00	2024-11-08T15:00:00	5	Humedad	67
39021	7	Sololá	717	San Juan la Laguna	12	San Juan la Laguna	2	Febrero	2023-02-26T00:00:00	2024-11-08T15:00:00	6	Velocidad del viento	14.5
39022	7	Sololá	717	San Juan la Laguna	12	San Juan la Laguna	2	Febrero	2023-02-26T00:00:00	2024-11-08T15:00:00	7	Dirección del viento	14.48
39023	7	Sololá	717	San Juan la Laguna	12	San Juan la Laguna	2	Febrero	2023-02-26T00:00:00	2024-11-08T15:00:00	1	Precipitación	0
39024	7	Sololá	717	San Juan la Laguna	12	San Juan la Laguna	2	Febrero	2023-02-26T00:00:00	2024-11-08T15:00:00	8	Radiación solar	718
39025	7	Sololá	717	San Juan la Laguna	12	San Juan la Laguna	2	Febrero	2023-02-26T00:00:00	2024-11-08T16:00:00	2	Temperatura media	21.8
39026	7	Sololá	717	San Juan la Laguna	12	San Juan la Laguna	2	Febrero	2023-02-26T00:00:00	2024-11-08T16:00:00	4	Temperatura máxima	22.1
39027	7	Sololá	717	San Juan la Laguna	12	San Juan la Laguna	2	Febrero	2023-02-26T00:00:00	2024-11-08T16:00:00	3	Temperatura mínima	21.4
39028	7	Sololá	717	San Juan la Laguna	12	San Juan la Laguna	2	Febrero	2023-02-26T00:00:00	2024-11-08T16:00:00	5	Humedad	67
39029	7	Sololá	717	San Juan la Laguna	12	San Juan la Laguna	2	Febrero	2023-02-26T00:00:00	2024-11-08T16:00:00	6	Velocidad del viento	9.7
39030	7	Sololá	717	San Juan la Laguna	12	San Juan la Laguna	2	Febrero	2023-02-26T00:00:00	2024-11-08T16:00:00	7	Dirección del viento	9.66
39031	7	Sololá	717	San Juan la Laguna	12	San Juan la Laguna	2	Febrero	2023-02-26T00:00:00	2024-11-08T16:00:00	1	Precipitación	0
39032	7	Sololá	717	San Juan la Laguna	12	San Juan la Laguna	2	Febrero	2023-02-26T00:00:00	2024-11-08T16:00:00	8	Radiación solar	528
39033	7	Sololá	717	San Juan la Laguna	12	San Juan la Laguna	2	Febrero	2023-02-26T00:00:00	2024-11-08T17:00:00	2	Temperatura media	20.7
39034	7	Sololá	717	San Juan la Laguna	12	San Juan la Laguna	2	Febrero	2023-02-26T00:00:00	2024-11-08T17:00:00	4	Temperatura máxima	21.9
39035	7	Sololá	717	San Juan la Laguna	12	San Juan la Laguna	2	Febrero	2023-02-26T00:00:00	2024-11-08T17:00:00	3	Temperatura mínima	20.7
39036	7	Sololá	717	San Juan la Laguna	12	San Juan la Laguna	2	Febrero	2023-02-26T00:00:00	2024-11-08T17:00:00	5	Humedad	72
39037	7	Sololá	717	San Juan la Laguna	12	San Juan la Laguna	2	Febrero	2023-02-26T00:00:00	2024-11-08T17:00:00	6	Velocidad del viento	6.4
39038	7	Sololá	717	San Juan la Laguna	12	San Juan la Laguna	2	Febrero	2023-02-26T00:00:00	2024-11-08T17:00:00	7	Dirección del viento	6.44
39039	7	Sololá	717	San Juan la Laguna	12	San Juan la Laguna	2	Febrero	2023-02-26T00:00:00	2024-11-08T17:00:00	1	Precipitación	0
39040	7	Sololá	717	San Juan la Laguna	12	San Juan la Laguna	2	Febrero	2023-02-26T00:00:00	2024-11-08T17:00:00	8	Radiación solar	311
39041	7	Sololá	717	San Juan la Laguna	12	San Juan la Laguna	2	Febrero	2023-02-26T00:00:00	2024-11-08T18:00:00	2	Temperatura media	19.6
39042	7	Sololá	717	San Juan la Laguna	12	San Juan la Laguna	2	Febrero	2023-02-26T00:00:00	2024-11-08T18:00:00	4	Temperatura máxima	20.8
39043	7	Sololá	717	San Juan la Laguna	12	San Juan la Laguna	2	Febrero	2023-02-26T00:00:00	2024-11-08T18:00:00	3	Temperatura mínima	19.5
39044	7	Sololá	717	San Juan la Laguna	12	San Juan la Laguna	2	Febrero	2023-02-26T00:00:00	2024-11-08T18:00:00	5	Humedad	77
39045	7	Sololá	717	San Juan la Laguna	12	San Juan la Laguna	2	Febrero	2023-02-26T00:00:00	2024-11-08T18:00:00	6	Velocidad del viento	3.2
39046	7	Sololá	717	San Juan la Laguna	12	San Juan la Laguna	2	Febrero	2023-02-26T00:00:00	2024-11-08T18:00:00	7	Dirección del viento	3.22
39047	7	Sololá	717	San Juan la Laguna	12	San Juan la Laguna	2	Febrero	2023-02-26T00:00:00	2024-11-08T18:00:00	1	Precipitación	0
39048	7	Sololá	717	San Juan la Laguna	12	San Juan la Laguna	2	Febrero	2023-02-26T00:00:00	2024-11-08T18:00:00	8	Radiación solar	49
39049	7	Sololá	717	San Juan la Laguna	12	San Juan la Laguna	2	Febrero	2023-02-26T00:00:00	2024-11-08T19:00:00	2	Temperatura media	19.2
39050	7	Sololá	717	San Juan la Laguna	12	San Juan la Laguna	2	Febrero	2023-02-26T00:00:00	2024-11-08T19:00:00	4	Temperatura máxima	19.7
39051	7	Sololá	717	San Juan la Laguna	12	San Juan la Laguna	2	Febrero	2023-02-26T00:00:00	2024-11-08T19:00:00	3	Temperatura mínima	19.2
39052	7	Sololá	717	San Juan la Laguna	12	San Juan la Laguna	2	Febrero	2023-02-26T00:00:00	2024-11-08T19:00:00	5	Humedad	80
39053	7	Sololá	717	San Juan la Laguna	12	San Juan la Laguna	2	Febrero	2023-02-26T00:00:00	2024-11-08T19:00:00	6	Velocidad del viento	0
39054	7	Sololá	717	San Juan la Laguna	12	San Juan la Laguna	2	Febrero	2023-02-26T00:00:00	2024-11-08T19:00:00	7	Dirección del viento	0
39055	7	Sololá	717	San Juan la Laguna	12	San Juan la Laguna	2	Febrero	2023-02-26T00:00:00	2024-11-08T19:00:00	1	Precipitación	0
39056	7	Sololá	717	San Juan la Laguna	12	San Juan la Laguna	2	Febrero	2023-02-26T00:00:00	2024-11-08T19:00:00	8	Radiación solar	0
39057	7	Sololá	717	San Juan la Laguna	12	San Juan la Laguna	2	Febrero	2023-02-26T00:00:00	2024-11-08T20:00:00	2	Temperatura media	18.4
39058	7	Sololá	717	San Juan la Laguna	12	San Juan la Laguna	2	Febrero	2023-02-26T00:00:00	2024-11-08T20:00:00	4	Temperatura máxima	19.2
39059	7	Sololá	717	San Juan la Laguna	12	San Juan la Laguna	2	Febrero	2023-02-26T00:00:00	2024-11-08T20:00:00	3	Temperatura mínima	18.4
39060	7	Sololá	717	San Juan la Laguna	12	San Juan la Laguna	2	Febrero	2023-02-26T00:00:00	2024-11-08T20:00:00	5	Humedad	83
39061	7	Sololá	717	San Juan la Laguna	12	San Juan la Laguna	2	Febrero	2023-02-26T00:00:00	2024-11-08T20:00:00	6	Velocidad del viento	1.6
39062	7	Sololá	717	San Juan la Laguna	12	San Juan la Laguna	2	Febrero	2023-02-26T00:00:00	2024-11-08T20:00:00	7	Dirección del viento	1.61
39063	7	Sololá	717	San Juan la Laguna	12	San Juan la Laguna	2	Febrero	2023-02-26T00:00:00	2024-11-08T20:00:00	1	Precipitación	0
39064	7	Sololá	717	San Juan la Laguna	12	San Juan la Laguna	2	Febrero	2023-02-26T00:00:00	2024-11-08T20:00:00	8	Radiación solar	0
39065	7	Sololá	717	San Juan la Laguna	12	San Juan la Laguna	2	Febrero	2023-02-26T00:00:00	2024-11-08T21:00:00	2	Temperatura media	17.8
39066	7	Sololá	717	San Juan la Laguna	12	San Juan la Laguna	2	Febrero	2023-02-26T00:00:00	2024-11-08T21:00:00	4	Temperatura máxima	18.4
39067	7	Sololá	717	San Juan la Laguna	12	San Juan la Laguna	2	Febrero	2023-02-26T00:00:00	2024-11-08T21:00:00	3	Temperatura mínima	17.8
39068	7	Sololá	717	San Juan la Laguna	12	San Juan la Laguna	2	Febrero	2023-02-26T00:00:00	2024-11-08T21:00:00	5	Humedad	84
39069	7	Sololá	717	San Juan la Laguna	12	San Juan la Laguna	2	Febrero	2023-02-26T00:00:00	2024-11-08T21:00:00	6	Velocidad del viento	0
39070	7	Sololá	717	San Juan la Laguna	12	San Juan la Laguna	2	Febrero	2023-02-26T00:00:00	2024-11-08T21:00:00	7	Dirección del viento	0
39071	7	Sololá	717	San Juan la Laguna	12	San Juan la Laguna	2	Febrero	2023-02-26T00:00:00	2024-11-08T21:00:00	1	Precipitación	0
39072	7	Sololá	717	San Juan la Laguna	12	San Juan la Laguna	2	Febrero	2023-02-26T00:00:00	2024-11-08T21:00:00	8	Radiación solar	0
39073	7	Sololá	717	San Juan la Laguna	12	San Juan la Laguna	2	Febrero	2023-02-26T00:00:00	2024-11-08T22:00:00	2	Temperatura media	17.2
39074	7	Sololá	717	San Juan la Laguna	12	San Juan la Laguna	2	Febrero	2023-02-26T00:00:00	2024-11-08T22:00:00	4	Temperatura máxima	17.9
39075	7	Sololá	717	San Juan la Laguna	12	San Juan la Laguna	2	Febrero	2023-02-26T00:00:00	2024-11-08T22:00:00	3	Temperatura mínima	17.2
39076	7	Sololá	717	San Juan la Laguna	12	San Juan la Laguna	2	Febrero	2023-02-26T00:00:00	2024-11-08T22:00:00	5	Humedad	86
39077	7	Sololá	717	San Juan la Laguna	12	San Juan la Laguna	2	Febrero	2023-02-26T00:00:00	2024-11-08T22:00:00	6	Velocidad del viento	0
39078	7	Sololá	717	San Juan la Laguna	12	San Juan la Laguna	2	Febrero	2023-02-26T00:00:00	2024-11-08T22:00:00	7	Dirección del viento	0
39079	7	Sololá	717	San Juan la Laguna	12	San Juan la Laguna	2	Febrero	2023-02-26T00:00:00	2024-11-08T22:00:00	1	Precipitación	0
39080	7	Sololá	717	San Juan la Laguna	12	San Juan la Laguna	2	Febrero	2023-02-26T00:00:00	2024-11-08T22:00:00	8	Radiación solar	0
39081	7	Sololá	717	San Juan la Laguna	12	San Juan la Laguna	2	Febrero	2023-02-26T00:00:00	2024-11-08T23:00:00	2	Temperatura media	15.7
39082	7	Sololá	717	San Juan la Laguna	12	San Juan la Laguna	2	Febrero	2023-02-26T00:00:00	2024-11-08T23:00:00	4	Temperatura máxima	17.3
39083	7	Sololá	717	San Juan la Laguna	12	San Juan la Laguna	2	Febrero	2023-02-26T00:00:00	2024-11-08T23:00:00	3	Temperatura mínima	15.7
39084	7	Sololá	717	San Juan la Laguna	12	San Juan la Laguna	2	Febrero	2023-02-26T00:00:00	2024-11-08T23:00:00	5	Humedad	82
39085	7	Sololá	717	San Juan la Laguna	12	San Juan la Laguna	2	Febrero	2023-02-26T00:00:00	2024-11-08T23:00:00	6	Velocidad del viento	0
39086	7	Sololá	717	San Juan la Laguna	12	San Juan la Laguna	2	Febrero	2023-02-26T00:00:00	2024-11-08T23:00:00	7	Dirección del viento	0
39087	7	Sololá	717	San Juan la Laguna	12	San Juan la Laguna	2	Febrero	2023-02-26T00:00:00	2024-11-08T23:00:00	1	Precipitación	0
39088	7	Sololá	717	San Juan la Laguna	12	San Juan la Laguna	2	Febrero	2023-02-26T00:00:00	2024-11-08T23:00:00	8	Radiación solar	0
39089	7	Sololá	717	San Juan la Laguna	12	San Juan la Laguna	2	Febrero	2023-02-27T00:00:00	2024-11-08T00:00:00	2	Temperatura media	14.1
39090	7	Sololá	717	San Juan la Laguna	12	San Juan la Laguna	2	Febrero	2023-02-27T00:00:00	2024-11-08T00:00:00	4	Temperatura máxima	15.6
39091	7	Sololá	717	San Juan la Laguna	12	San Juan la Laguna	2	Febrero	2023-02-27T00:00:00	2024-11-08T00:00:00	3	Temperatura mínima	14.1
39092	7	Sololá	717	San Juan la Laguna	12	San Juan la Laguna	2	Febrero	2023-02-27T00:00:00	2024-11-08T00:00:00	5	Humedad	83
39093	7	Sololá	717	San Juan la Laguna	12	San Juan la Laguna	2	Febrero	2023-02-27T00:00:00	2024-11-08T00:00:00	6	Velocidad del viento	3.2
39094	7	Sololá	717	San Juan la Laguna	12	San Juan la Laguna	2	Febrero	2023-02-27T00:00:00	2024-11-08T00:00:00	7	Dirección del viento	3.22
39095	7	Sololá	717	San Juan la Laguna	12	San Juan la Laguna	2	Febrero	2023-02-27T00:00:00	2024-11-08T00:00:00	1	Precipitación	0
39096	7	Sololá	717	San Juan la Laguna	12	San Juan la Laguna	2	Febrero	2023-02-27T00:00:00	2024-11-08T00:00:00	8	Radiación solar	0
39097	7	Sololá	717	San Juan la Laguna	12	San Juan la Laguna	2	Febrero	2023-02-27T00:00:00	2024-11-08T01:00:00	2	Temperatura media	13.6
39098	7	Sololá	717	San Juan la Laguna	12	San Juan la Laguna	2	Febrero	2023-02-27T00:00:00	2024-11-08T01:00:00	4	Temperatura máxima	14.1
39099	7	Sololá	717	San Juan la Laguna	12	San Juan la Laguna	2	Febrero	2023-02-27T00:00:00	2024-11-08T01:00:00	3	Temperatura mínima	13.6
39100	7	Sololá	717	San Juan la Laguna	12	San Juan la Laguna	2	Febrero	2023-02-27T00:00:00	2024-11-08T01:00:00	5	Humedad	83
39101	7	Sololá	717	San Juan la Laguna	12	San Juan la Laguna	2	Febrero	2023-02-27T00:00:00	2024-11-08T01:00:00	6	Velocidad del viento	3.2
39102	7	Sololá	717	San Juan la Laguna	12	San Juan la Laguna	2	Febrero	2023-02-27T00:00:00	2024-11-08T01:00:00	7	Dirección del viento	3.22
39103	7	Sololá	717	San Juan la Laguna	12	San Juan la Laguna	2	Febrero	2023-02-27T00:00:00	2024-11-08T01:00:00	1	Precipitación	0
39104	7	Sololá	717	San Juan la Laguna	12	San Juan la Laguna	2	Febrero	2023-02-27T00:00:00	2024-11-08T01:00:00	8	Radiación solar	0
39105	7	Sololá	717	San Juan la Laguna	12	San Juan la Laguna	2	Febrero	2023-02-27T00:00:00	2024-11-08T02:00:00	2	Temperatura media	13.3
39106	7	Sololá	717	San Juan la Laguna	12	San Juan la Laguna	2	Febrero	2023-02-27T00:00:00	2024-11-08T02:00:00	4	Temperatura máxima	13.6
39107	7	Sololá	717	San Juan la Laguna	12	San Juan la Laguna	2	Febrero	2023-02-27T00:00:00	2024-11-08T02:00:00	3	Temperatura mínima	13.3
39108	7	Sololá	717	San Juan la Laguna	12	San Juan la Laguna	2	Febrero	2023-02-27T00:00:00	2024-11-08T02:00:00	5	Humedad	82
39109	7	Sololá	717	San Juan la Laguna	12	San Juan la Laguna	2	Febrero	2023-02-27T00:00:00	2024-11-08T02:00:00	6	Velocidad del viento	4.8
39110	7	Sololá	717	San Juan la Laguna	12	San Juan la Laguna	2	Febrero	2023-02-27T00:00:00	2024-11-08T02:00:00	7	Dirección del viento	4.83
39111	7	Sololá	717	San Juan la Laguna	12	San Juan la Laguna	2	Febrero	2023-02-27T00:00:00	2024-11-08T02:00:00	1	Precipitación	0
39112	7	Sololá	717	San Juan la Laguna	12	San Juan la Laguna	2	Febrero	2023-02-27T00:00:00	2024-11-08T02:00:00	8	Radiación solar	0
39113	7	Sololá	717	San Juan la Laguna	12	San Juan la Laguna	2	Febrero	2023-02-27T00:00:00	2024-11-08T03:00:00	2	Temperatura media	12.3
39114	7	Sololá	717	San Juan la Laguna	12	San Juan la Laguna	2	Febrero	2023-02-27T00:00:00	2024-11-08T03:00:00	4	Temperatura máxima	13.3
39115	7	Sololá	717	San Juan la Laguna	12	San Juan la Laguna	2	Febrero	2023-02-27T00:00:00	2024-11-08T03:00:00	3	Temperatura mínima	12.3
39116	7	Sololá	717	San Juan la Laguna	12	San Juan la Laguna	2	Febrero	2023-02-27T00:00:00	2024-11-08T03:00:00	5	Humedad	83
39117	7	Sololá	717	San Juan la Laguna	12	San Juan la Laguna	2	Febrero	2023-02-27T00:00:00	2024-11-08T03:00:00	6	Velocidad del viento	1.6
39118	7	Sololá	717	San Juan la Laguna	12	San Juan la Laguna	2	Febrero	2023-02-27T00:00:00	2024-11-08T03:00:00	7	Dirección del viento	1.61
39119	7	Sololá	717	San Juan la Laguna	12	San Juan la Laguna	2	Febrero	2023-02-27T00:00:00	2024-11-08T03:00:00	1	Precipitación	0
39120	7	Sololá	717	San Juan la Laguna	12	San Juan la Laguna	2	Febrero	2023-02-27T00:00:00	2024-11-08T03:00:00	8	Radiación solar	0
39121	7	Sololá	717	San Juan la Laguna	12	San Juan la Laguna	2	Febrero	2023-02-27T00:00:00	2024-11-08T04:00:00	2	Temperatura media	12.2
39122	7	Sololá	717	San Juan la Laguna	12	San Juan la Laguna	2	Febrero	2023-02-27T00:00:00	2024-11-08T04:00:00	4	Temperatura máxima	12.4
39123	7	Sololá	717	San Juan la Laguna	12	San Juan la Laguna	2	Febrero	2023-02-27T00:00:00	2024-11-08T04:00:00	3	Temperatura mínima	12.1
39124	7	Sololá	717	San Juan la Laguna	12	San Juan la Laguna	2	Febrero	2023-02-27T00:00:00	2024-11-08T04:00:00	5	Humedad	83
39125	7	Sololá	717	San Juan la Laguna	12	San Juan la Laguna	2	Febrero	2023-02-27T00:00:00	2024-11-08T04:00:00	6	Velocidad del viento	3.2
39126	7	Sololá	717	San Juan la Laguna	12	San Juan la Laguna	2	Febrero	2023-02-27T00:00:00	2024-11-08T04:00:00	7	Dirección del viento	3.22
39127	7	Sololá	717	San Juan la Laguna	12	San Juan la Laguna	2	Febrero	2023-02-27T00:00:00	2024-11-08T04:00:00	1	Precipitación	0
39128	7	Sololá	717	San Juan la Laguna	12	San Juan la Laguna	2	Febrero	2023-02-27T00:00:00	2024-11-08T04:00:00	8	Radiación solar	0
39129	7	Sololá	717	San Juan la Laguna	12	San Juan la Laguna	2	Febrero	2023-02-27T00:00:00	2024-11-08T05:00:00	2	Temperatura media	11.8
39130	7	Sololá	717	San Juan la Laguna	12	San Juan la Laguna	2	Febrero	2023-02-27T00:00:00	2024-11-08T05:00:00	4	Temperatura máxima	12.2
39131	7	Sololá	717	San Juan la Laguna	12	San Juan la Laguna	2	Febrero	2023-02-27T00:00:00	2024-11-08T05:00:00	3	Temperatura mínima	11.8
39132	7	Sololá	717	San Juan la Laguna	12	San Juan la Laguna	2	Febrero	2023-02-27T00:00:00	2024-11-08T05:00:00	5	Humedad	82
39133	7	Sololá	717	San Juan la Laguna	12	San Juan la Laguna	2	Febrero	2023-02-27T00:00:00	2024-11-08T05:00:00	6	Velocidad del viento	1.6
39134	7	Sololá	717	San Juan la Laguna	12	San Juan la Laguna	2	Febrero	2023-02-27T00:00:00	2024-11-08T05:00:00	7	Dirección del viento	1.61
39135	7	Sololá	717	San Juan la Laguna	12	San Juan la Laguna	2	Febrero	2023-02-27T00:00:00	2024-11-08T05:00:00	1	Precipitación	0
39136	7	Sololá	717	San Juan la Laguna	12	San Juan la Laguna	2	Febrero	2023-02-27T00:00:00	2024-11-08T05:00:00	8	Radiación solar	0
39137	7	Sololá	717	San Juan la Laguna	12	San Juan la Laguna	2	Febrero	2023-02-27T00:00:00	2024-11-08T06:00:00	2	Temperatura media	11.5
39138	7	Sololá	717	San Juan la Laguna	12	San Juan la Laguna	2	Febrero	2023-02-27T00:00:00	2024-11-08T06:00:00	4	Temperatura máxima	11.8
39139	7	Sololá	717	San Juan la Laguna	12	San Juan la Laguna	2	Febrero	2023-02-27T00:00:00	2024-11-08T06:00:00	3	Temperatura mínima	11.1
39140	7	Sololá	717	San Juan la Laguna	12	San Juan la Laguna	2	Febrero	2023-02-27T00:00:00	2024-11-08T06:00:00	5	Humedad	83
39141	7	Sololá	717	San Juan la Laguna	12	San Juan la Laguna	2	Febrero	2023-02-27T00:00:00	2024-11-08T06:00:00	6	Velocidad del viento	1.6
39142	7	Sololá	717	San Juan la Laguna	12	San Juan la Laguna	2	Febrero	2023-02-27T00:00:00	2024-11-08T06:00:00	7	Dirección del viento	1.61
39143	7	Sololá	717	San Juan la Laguna	12	San Juan la Laguna	2	Febrero	2023-02-27T00:00:00	2024-11-08T06:00:00	1	Precipitación	0
39144	7	Sololá	717	San Juan la Laguna	12	San Juan la Laguna	2	Febrero	2023-02-27T00:00:00	2024-11-08T06:00:00	8	Radiación solar	0
39145	7	Sololá	717	San Juan la Laguna	12	San Juan la Laguna	2	Febrero	2023-02-27T00:00:00	2024-11-08T07:00:00	2	Temperatura media	11.8
39146	7	Sololá	717	San Juan la Laguna	12	San Juan la Laguna	2	Febrero	2023-02-27T00:00:00	2024-11-08T07:00:00	4	Temperatura máxima	11.8
39147	7	Sololá	717	San Juan la Laguna	12	San Juan la Laguna	2	Febrero	2023-02-27T00:00:00	2024-11-08T07:00:00	3	Temperatura mínima	11.2
39148	7	Sololá	717	San Juan la Laguna	12	San Juan la Laguna	2	Febrero	2023-02-27T00:00:00	2024-11-08T07:00:00	5	Humedad	84
39149	7	Sololá	717	San Juan la Laguna	12	San Juan la Laguna	2	Febrero	2023-02-27T00:00:00	2024-11-08T07:00:00	6	Velocidad del viento	1.6
39150	7	Sololá	717	San Juan la Laguna	12	San Juan la Laguna	2	Febrero	2023-02-27T00:00:00	2024-11-08T07:00:00	7	Dirección del viento	1.61
39151	7	Sololá	717	San Juan la Laguna	12	San Juan la Laguna	2	Febrero	2023-02-27T00:00:00	2024-11-08T07:00:00	1	Precipitación	0
39152	7	Sololá	717	San Juan la Laguna	12	San Juan la Laguna	2	Febrero	2023-02-27T00:00:00	2024-11-08T07:00:00	8	Radiación solar	14
39153	7	Sololá	717	San Juan la Laguna	12	San Juan la Laguna	2	Febrero	2023-02-27T00:00:00	2024-11-08T08:00:00	2	Temperatura media	15.8
39154	7	Sololá	717	San Juan la Laguna	12	San Juan la Laguna	2	Febrero	2023-02-27T00:00:00	2024-11-08T08:00:00	4	Temperatura máxima	15.8
39155	7	Sololá	717	San Juan la Laguna	12	San Juan la Laguna	2	Febrero	2023-02-27T00:00:00	2024-11-08T08:00:00	3	Temperatura mínima	11.8
39156	7	Sololá	717	San Juan la Laguna	12	San Juan la Laguna	2	Febrero	2023-02-27T00:00:00	2024-11-08T08:00:00	5	Humedad	75
39157	7	Sololá	717	San Juan la Laguna	12	San Juan la Laguna	2	Febrero	2023-02-27T00:00:00	2024-11-08T08:00:00	6	Velocidad del viento	0
39158	7	Sololá	717	San Juan la Laguna	12	San Juan la Laguna	2	Febrero	2023-02-27T00:00:00	2024-11-08T08:00:00	7	Dirección del viento	0
39159	7	Sololá	717	San Juan la Laguna	12	San Juan la Laguna	2	Febrero	2023-02-27T00:00:00	2024-11-08T08:00:00	1	Precipitación	0
39160	7	Sololá	717	San Juan la Laguna	12	San Juan la Laguna	2	Febrero	2023-02-27T00:00:00	2024-11-08T08:00:00	8	Radiación solar	158
39161	7	Sololá	717	San Juan la Laguna	12	San Juan la Laguna	2	Febrero	2023-02-27T00:00:00	2024-11-08T09:00:00	2	Temperatura media	18.2
39162	7	Sololá	717	San Juan la Laguna	12	San Juan la Laguna	2	Febrero	2023-02-27T00:00:00	2024-11-08T09:00:00	4	Temperatura máxima	18.2
39163	7	Sololá	717	San Juan la Laguna	12	San Juan la Laguna	2	Febrero	2023-02-27T00:00:00	2024-11-08T09:00:00	3	Temperatura mínima	15.8
39164	7	Sololá	717	San Juan la Laguna	12	San Juan la Laguna	2	Febrero	2023-02-27T00:00:00	2024-11-08T09:00:00	5	Humedad	70
39165	7	Sololá	717	San Juan la Laguna	12	San Juan la Laguna	2	Febrero	2023-02-27T00:00:00	2024-11-08T09:00:00	6	Velocidad del viento	1.6
39166	7	Sololá	717	San Juan la Laguna	12	San Juan la Laguna	2	Febrero	2023-02-27T00:00:00	2024-11-08T09:00:00	7	Dirección del viento	1.61
39167	7	Sololá	717	San Juan la Laguna	12	San Juan la Laguna	2	Febrero	2023-02-27T00:00:00	2024-11-08T09:00:00	1	Precipitación	0
39168	7	Sololá	717	San Juan la Laguna	12	San Juan la Laguna	2	Febrero	2023-02-27T00:00:00	2024-11-08T09:00:00	8	Radiación solar	416
39169	7	Sololá	717	San Juan la Laguna	12	San Juan la Laguna	2	Febrero	2023-02-27T00:00:00	2024-11-08T10:00:00	2	Temperatura media	18.9
39170	7	Sololá	717	San Juan la Laguna	12	San Juan la Laguna	2	Febrero	2023-02-27T00:00:00	2024-11-08T10:00:00	4	Temperatura máxima	19.1
39171	7	Sololá	717	San Juan la Laguna	12	San Juan la Laguna	2	Febrero	2023-02-27T00:00:00	2024-11-08T10:00:00	3	Temperatura mínima	17.8
39172	7	Sololá	717	San Juan la Laguna	12	San Juan la Laguna	2	Febrero	2023-02-27T00:00:00	2024-11-08T10:00:00	5	Humedad	67
39173	7	Sololá	717	San Juan la Laguna	12	San Juan la Laguna	2	Febrero	2023-02-27T00:00:00	2024-11-08T10:00:00	6	Velocidad del viento	3.2
39174	7	Sololá	717	San Juan la Laguna	12	San Juan la Laguna	2	Febrero	2023-02-27T00:00:00	2024-11-08T10:00:00	7	Dirección del viento	3.22
39175	7	Sololá	717	San Juan la Laguna	12	San Juan la Laguna	2	Febrero	2023-02-27T00:00:00	2024-11-08T10:00:00	1	Precipitación	0
39176	7	Sololá	717	San Juan la Laguna	12	San Juan la Laguna	2	Febrero	2023-02-27T00:00:00	2024-11-08T10:00:00	8	Radiación solar	621
39177	7	Sololá	717	San Juan la Laguna	12	San Juan la Laguna	2	Febrero	2023-02-27T00:00:00	2024-11-08T11:00:00	2	Temperatura media	20.1
39178	7	Sololá	717	San Juan la Laguna	12	San Juan la Laguna	2	Febrero	2023-02-27T00:00:00	2024-11-08T11:00:00	4	Temperatura máxima	20.2
39179	7	Sololá	717	San Juan la Laguna	12	San Juan la Laguna	2	Febrero	2023-02-27T00:00:00	2024-11-08T11:00:00	3	Temperatura mínima	18.9
39180	7	Sololá	717	San Juan la Laguna	12	San Juan la Laguna	2	Febrero	2023-02-27T00:00:00	2024-11-08T11:00:00	5	Humedad	62
39181	7	Sololá	717	San Juan la Laguna	12	San Juan la Laguna	2	Febrero	2023-02-27T00:00:00	2024-11-08T11:00:00	6	Velocidad del viento	4.8
39182	7	Sololá	717	San Juan la Laguna	12	San Juan la Laguna	2	Febrero	2023-02-27T00:00:00	2024-11-08T11:00:00	7	Dirección del viento	4.83
39183	7	Sololá	717	San Juan la Laguna	12	San Juan la Laguna	2	Febrero	2023-02-27T00:00:00	2024-11-08T11:00:00	1	Precipitación	0
39184	7	Sololá	717	San Juan la Laguna	12	San Juan la Laguna	2	Febrero	2023-02-27T00:00:00	2024-11-08T11:00:00	8	Radiación solar	774
39185	7	Sololá	717	San Juan la Laguna	12	San Juan la Laguna	2	Febrero	2023-02-27T00:00:00	2024-11-08T12:00:00	2	Temperatura media	20.8
39186	7	Sololá	717	San Juan la Laguna	12	San Juan la Laguna	2	Febrero	2023-02-27T00:00:00	2024-11-08T12:00:00	4	Temperatura máxima	21.3
39187	7	Sololá	717	San Juan la Laguna	12	San Juan la Laguna	2	Febrero	2023-02-27T00:00:00	2024-11-08T12:00:00	3	Temperatura mínima	19.9
39188	7	Sololá	717	San Juan la Laguna	12	San Juan la Laguna	2	Febrero	2023-02-27T00:00:00	2024-11-08T12:00:00	5	Humedad	64
39189	7	Sololá	717	San Juan la Laguna	12	San Juan la Laguna	2	Febrero	2023-02-27T00:00:00	2024-11-08T12:00:00	6	Velocidad del viento	4.8
39190	7	Sololá	717	San Juan la Laguna	12	San Juan la Laguna	2	Febrero	2023-02-27T00:00:00	2024-11-08T12:00:00	7	Dirección del viento	4.83
39191	7	Sololá	717	San Juan la Laguna	12	San Juan la Laguna	2	Febrero	2023-02-27T00:00:00	2024-11-08T12:00:00	1	Precipitación	0
39192	7	Sololá	717	San Juan la Laguna	12	San Juan la Laguna	2	Febrero	2023-02-27T00:00:00	2024-11-08T12:00:00	8	Radiación solar	787
39193	7	Sololá	717	San Juan la Laguna	12	San Juan la Laguna	2	Febrero	2023-02-27T00:00:00	2024-11-08T13:00:00	2	Temperatura media	22.8
39194	7	Sololá	717	San Juan la Laguna	12	San Juan la Laguna	2	Febrero	2023-02-27T00:00:00	2024-11-08T13:00:00	4	Temperatura máxima	22.8
39195	7	Sololá	717	San Juan la Laguna	12	San Juan la Laguna	2	Febrero	2023-02-27T00:00:00	2024-11-08T13:00:00	3	Temperatura mínima	20.8
39196	7	Sololá	717	San Juan la Laguna	12	San Juan la Laguna	2	Febrero	2023-02-27T00:00:00	2024-11-08T13:00:00	5	Humedad	57
39197	7	Sololá	717	San Juan la Laguna	12	San Juan la Laguna	2	Febrero	2023-02-27T00:00:00	2024-11-08T13:00:00	6	Velocidad del viento	3.2
39198	7	Sololá	717	San Juan la Laguna	12	San Juan la Laguna	2	Febrero	2023-02-27T00:00:00	2024-11-08T13:00:00	7	Dirección del viento	3.22
39199	7	Sololá	717	San Juan la Laguna	12	San Juan la Laguna	2	Febrero	2023-02-27T00:00:00	2024-11-08T13:00:00	1	Precipitación	0
39200	7	Sololá	717	San Juan la Laguna	12	San Juan la Laguna	2	Febrero	2023-02-27T00:00:00	2024-11-08T13:00:00	8	Radiación solar	890
39201	7	Sololá	717	San Juan la Laguna	12	San Juan la Laguna	2	Febrero	2023-02-27T00:00:00	2024-11-08T14:00:00	2	Temperatura media	22.6
39202	7	Sololá	717	San Juan la Laguna	12	San Juan la Laguna	2	Febrero	2023-02-27T00:00:00	2024-11-08T14:00:00	4	Temperatura máxima	22.8
39203	7	Sololá	717	San Juan la Laguna	12	San Juan la Laguna	2	Febrero	2023-02-27T00:00:00	2024-11-08T14:00:00	3	Temperatura mínima	21.6
39204	7	Sololá	717	San Juan la Laguna	12	San Juan la Laguna	2	Febrero	2023-02-27T00:00:00	2024-11-08T14:00:00	5	Humedad	64
39205	7	Sololá	717	San Juan la Laguna	12	San Juan la Laguna	2	Febrero	2023-02-27T00:00:00	2024-11-08T14:00:00	6	Velocidad del viento	6.4
39206	7	Sololá	717	San Juan la Laguna	12	San Juan la Laguna	2	Febrero	2023-02-27T00:00:00	2024-11-08T14:00:00	7	Dirección del viento	6.44
39207	7	Sololá	717	San Juan la Laguna	12	San Juan la Laguna	2	Febrero	2023-02-27T00:00:00	2024-11-08T14:00:00	1	Precipitación	0
39208	7	Sololá	717	San Juan la Laguna	12	San Juan la Laguna	2	Febrero	2023-02-27T00:00:00	2024-11-08T14:00:00	8	Radiación solar	358
39209	7	Sololá	717	San Juan la Laguna	12	San Juan la Laguna	2	Febrero	2023-02-27T00:00:00	2024-11-08T15:00:00	2	Temperatura media	22.1
39210	7	Sololá	717	San Juan la Laguna	12	San Juan la Laguna	2	Febrero	2023-02-27T00:00:00	2024-11-08T15:00:00	4	Temperatura máxima	23.1
39211	7	Sololá	717	San Juan la Laguna	12	San Juan la Laguna	2	Febrero	2023-02-27T00:00:00	2024-11-08T15:00:00	3	Temperatura mínima	21.8
39212	7	Sololá	717	San Juan la Laguna	12	San Juan la Laguna	2	Febrero	2023-02-27T00:00:00	2024-11-08T15:00:00	5	Humedad	67
39213	7	Sololá	717	San Juan la Laguna	12	San Juan la Laguna	2	Febrero	2023-02-27T00:00:00	2024-11-08T15:00:00	6	Velocidad del viento	9.7
39214	7	Sololá	717	San Juan la Laguna	12	San Juan la Laguna	2	Febrero	2023-02-27T00:00:00	2024-11-08T15:00:00	7	Dirección del viento	9.66
39215	7	Sololá	717	San Juan la Laguna	12	San Juan la Laguna	2	Febrero	2023-02-27T00:00:00	2024-11-08T15:00:00	1	Precipitación	0
39216	7	Sololá	717	San Juan la Laguna	12	San Juan la Laguna	2	Febrero	2023-02-27T00:00:00	2024-11-08T15:00:00	8	Radiación solar	771
39217	7	Sololá	717	San Juan la Laguna	12	San Juan la Laguna	2	Febrero	2023-02-27T00:00:00	2024-11-08T16:00:00	2	Temperatura media	21.9
39218	7	Sololá	717	San Juan la Laguna	12	San Juan la Laguna	2	Febrero	2023-02-27T00:00:00	2024-11-08T16:00:00	4	Temperatura máxima	22.3
39219	7	Sololá	717	San Juan la Laguna	12	San Juan la Laguna	2	Febrero	2023-02-27T00:00:00	2024-11-08T16:00:00	3	Temperatura mínima	21.7
39220	7	Sololá	717	San Juan la Laguna	12	San Juan la Laguna	2	Febrero	2023-02-27T00:00:00	2024-11-08T16:00:00	5	Humedad	67
39221	7	Sololá	717	San Juan la Laguna	12	San Juan la Laguna	2	Febrero	2023-02-27T00:00:00	2024-11-08T16:00:00	6	Velocidad del viento	9.7
39222	7	Sololá	717	San Juan la Laguna	12	San Juan la Laguna	2	Febrero	2023-02-27T00:00:00	2024-11-08T16:00:00	7	Dirección del viento	9.66
39223	7	Sololá	717	San Juan la Laguna	12	San Juan la Laguna	2	Febrero	2023-02-27T00:00:00	2024-11-08T16:00:00	1	Precipitación	0
39224	7	Sololá	717	San Juan la Laguna	12	San Juan la Laguna	2	Febrero	2023-02-27T00:00:00	2024-11-08T16:00:00	8	Radiación solar	587
39225	7	Sololá	717	San Juan la Laguna	12	San Juan la Laguna	2	Febrero	2023-02-27T00:00:00	2024-11-08T17:00:00	2	Temperatura media	20.3
39226	7	Sololá	717	San Juan la Laguna	12	San Juan la Laguna	2	Febrero	2023-02-27T00:00:00	2024-11-08T17:00:00	4	Temperatura máxima	21.9
39227	7	Sololá	717	San Juan la Laguna	12	San Juan la Laguna	2	Febrero	2023-02-27T00:00:00	2024-11-08T17:00:00	3	Temperatura mínima	20.2
39228	7	Sololá	717	San Juan la Laguna	12	San Juan la Laguna	2	Febrero	2023-02-27T00:00:00	2024-11-08T17:00:00	5	Humedad	73
39229	7	Sololá	717	San Juan la Laguna	12	San Juan la Laguna	2	Febrero	2023-02-27T00:00:00	2024-11-08T17:00:00	6	Velocidad del viento	8
39230	7	Sololá	717	San Juan la Laguna	12	San Juan la Laguna	2	Febrero	2023-02-27T00:00:00	2024-11-08T17:00:00	7	Dirección del viento	8.05
39231	7	Sololá	717	San Juan la Laguna	12	San Juan la Laguna	2	Febrero	2023-02-27T00:00:00	2024-11-08T17:00:00	1	Precipitación	0
39232	7	Sololá	717	San Juan la Laguna	12	San Juan la Laguna	2	Febrero	2023-02-27T00:00:00	2024-11-08T17:00:00	8	Radiación solar	153
39233	7	Sololá	717	San Juan la Laguna	12	San Juan la Laguna	2	Febrero	2023-02-27T00:00:00	2024-11-08T18:00:00	2	Temperatura media	20.2
39234	7	Sololá	717	San Juan la Laguna	12	San Juan la Laguna	2	Febrero	2023-02-27T00:00:00	2024-11-08T18:00:00	4	Temperatura máxima	20.6
39235	7	Sololá	717	San Juan la Laguna	12	San Juan la Laguna	2	Febrero	2023-02-27T00:00:00	2024-11-08T18:00:00	3	Temperatura mínima	20.2
39236	7	Sololá	717	San Juan la Laguna	12	San Juan la Laguna	2	Febrero	2023-02-27T00:00:00	2024-11-08T18:00:00	5	Humedad	73
39237	7	Sololá	717	San Juan la Laguna	12	San Juan la Laguna	2	Febrero	2023-02-27T00:00:00	2024-11-08T18:00:00	6	Velocidad del viento	3.2
39238	7	Sololá	717	San Juan la Laguna	12	San Juan la Laguna	2	Febrero	2023-02-27T00:00:00	2024-11-08T18:00:00	7	Dirección del viento	3.22
39239	7	Sololá	717	San Juan la Laguna	12	San Juan la Laguna	2	Febrero	2023-02-27T00:00:00	2024-11-08T18:00:00	1	Precipitación	0
39240	7	Sololá	717	San Juan la Laguna	12	San Juan la Laguna	2	Febrero	2023-02-27T00:00:00	2024-11-08T18:00:00	8	Radiación solar	78
39241	7	Sololá	717	San Juan la Laguna	12	San Juan la Laguna	2	Febrero	2023-02-27T00:00:00	2024-11-08T19:00:00	2	Temperatura media	18.6
39242	7	Sololá	717	San Juan la Laguna	12	San Juan la Laguna	2	Febrero	2023-02-27T00:00:00	2024-11-08T19:00:00	4	Temperatura máxima	20.2
39243	7	Sololá	717	San Juan la Laguna	12	San Juan la Laguna	2	Febrero	2023-02-27T00:00:00	2024-11-08T19:00:00	3	Temperatura mínima	18.6
39244	7	Sololá	717	San Juan la Laguna	12	San Juan la Laguna	2	Febrero	2023-02-27T00:00:00	2024-11-08T19:00:00	5	Humedad	79
39245	7	Sololá	717	San Juan la Laguna	12	San Juan la Laguna	2	Febrero	2023-02-27T00:00:00	2024-11-08T19:00:00	6	Velocidad del viento	0
39246	7	Sololá	717	San Juan la Laguna	12	San Juan la Laguna	2	Febrero	2023-02-27T00:00:00	2024-11-08T19:00:00	7	Dirección del viento	0
39247	7	Sololá	717	San Juan la Laguna	12	San Juan la Laguna	2	Febrero	2023-02-27T00:00:00	2024-11-08T19:00:00	1	Precipitación	0
39248	7	Sololá	717	San Juan la Laguna	12	San Juan la Laguna	2	Febrero	2023-02-27T00:00:00	2024-11-08T19:00:00	8	Radiación solar	0
39249	7	Sololá	717	San Juan la Laguna	12	San Juan la Laguna	2	Febrero	2023-02-27T00:00:00	2024-11-08T20:00:00	2	Temperatura media	18.3
39250	7	Sololá	717	San Juan la Laguna	12	San Juan la Laguna	2	Febrero	2023-02-27T00:00:00	2024-11-08T20:00:00	4	Temperatura máxima	18.6
39251	7	Sololá	717	San Juan la Laguna	12	San Juan la Laguna	2	Febrero	2023-02-27T00:00:00	2024-11-08T20:00:00	3	Temperatura mínima	18
39252	7	Sololá	717	San Juan la Laguna	12	San Juan la Laguna	2	Febrero	2023-02-27T00:00:00	2024-11-08T20:00:00	5	Humedad	81
39253	7	Sololá	717	San Juan la Laguna	12	San Juan la Laguna	2	Febrero	2023-02-27T00:00:00	2024-11-08T20:00:00	6	Velocidad del viento	0
39254	7	Sololá	717	San Juan la Laguna	12	San Juan la Laguna	2	Febrero	2023-02-27T00:00:00	2024-11-08T20:00:00	7	Dirección del viento	0
39255	7	Sololá	717	San Juan la Laguna	12	San Juan la Laguna	2	Febrero	2023-02-27T00:00:00	2024-11-08T20:00:00	1	Precipitación	0
39256	7	Sololá	717	San Juan la Laguna	12	San Juan la Laguna	2	Febrero	2023-02-27T00:00:00	2024-11-08T20:00:00	8	Radiación solar	0
39257	7	Sololá	717	San Juan la Laguna	12	San Juan la Laguna	2	Febrero	2023-02-27T00:00:00	2024-11-08T21:00:00	2	Temperatura media	17.9
39258	7	Sololá	717	San Juan la Laguna	12	San Juan la Laguna	2	Febrero	2023-02-27T00:00:00	2024-11-08T21:00:00	4	Temperatura máxima	18.4
39259	7	Sololá	717	San Juan la Laguna	12	San Juan la Laguna	2	Febrero	2023-02-27T00:00:00	2024-11-08T21:00:00	3	Temperatura mínima	17.8
39260	7	Sololá	717	San Juan la Laguna	12	San Juan la Laguna	2	Febrero	2023-02-27T00:00:00	2024-11-08T21:00:00	5	Humedad	85
39261	7	Sololá	717	San Juan la Laguna	12	San Juan la Laguna	2	Febrero	2023-02-27T00:00:00	2024-11-08T21:00:00	6	Velocidad del viento	0
39262	7	Sololá	717	San Juan la Laguna	12	San Juan la Laguna	2	Febrero	2023-02-27T00:00:00	2024-11-08T21:00:00	7	Dirección del viento	0
39263	7	Sololá	717	San Juan la Laguna	12	San Juan la Laguna	2	Febrero	2023-02-27T00:00:00	2024-11-08T21:00:00	1	Precipitación	0
39264	7	Sololá	717	San Juan la Laguna	12	San Juan la Laguna	2	Febrero	2023-02-27T00:00:00	2024-11-08T21:00:00	8	Radiación solar	0
39265	7	Sololá	717	San Juan la Laguna	12	San Juan la Laguna	2	Febrero	2023-02-27T00:00:00	2024-11-08T22:00:00	2	Temperatura media	16.9
39266	7	Sololá	717	San Juan la Laguna	12	San Juan la Laguna	2	Febrero	2023-02-27T00:00:00	2024-11-08T22:00:00	4	Temperatura máxima	17.9
39267	7	Sololá	717	San Juan la Laguna	12	San Juan la Laguna	2	Febrero	2023-02-27T00:00:00	2024-11-08T22:00:00	3	Temperatura mínima	16.9
39268	7	Sololá	717	San Juan la Laguna	12	San Juan la Laguna	2	Febrero	2023-02-27T00:00:00	2024-11-08T22:00:00	5	Humedad	87
39269	7	Sololá	717	San Juan la Laguna	12	San Juan la Laguna	2	Febrero	2023-02-27T00:00:00	2024-11-08T22:00:00	6	Velocidad del viento	0
39270	7	Sololá	717	San Juan la Laguna	12	San Juan la Laguna	2	Febrero	2023-02-27T00:00:00	2024-11-08T22:00:00	7	Dirección del viento	0
39271	7	Sololá	717	San Juan la Laguna	12	San Juan la Laguna	2	Febrero	2023-02-27T00:00:00	2024-11-08T22:00:00	1	Precipitación	0
39272	7	Sololá	717	San Juan la Laguna	12	San Juan la Laguna	2	Febrero	2023-02-27T00:00:00	2024-11-08T22:00:00	8	Radiación solar	0
39273	7	Sololá	717	San Juan la Laguna	12	San Juan la Laguna	2	Febrero	2023-02-27T00:00:00	2024-11-08T23:00:00	2	Temperatura media	15.8
39274	7	Sololá	717	San Juan la Laguna	12	San Juan la Laguna	2	Febrero	2023-02-27T00:00:00	2024-11-08T23:00:00	4	Temperatura máxima	17
39275	7	Sololá	717	San Juan la Laguna	12	San Juan la Laguna	2	Febrero	2023-02-27T00:00:00	2024-11-08T23:00:00	3	Temperatura mínima	15.8
39276	7	Sololá	717	San Juan la Laguna	12	San Juan la Laguna	2	Febrero	2023-02-27T00:00:00	2024-11-08T23:00:00	5	Humedad	83
39277	7	Sololá	717	San Juan la Laguna	12	San Juan la Laguna	2	Febrero	2023-02-27T00:00:00	2024-11-08T23:00:00	6	Velocidad del viento	1.6
39278	7	Sololá	717	San Juan la Laguna	12	San Juan la Laguna	2	Febrero	2023-02-27T00:00:00	2024-11-08T23:00:00	7	Dirección del viento	1.61
39279	7	Sololá	717	San Juan la Laguna	12	San Juan la Laguna	2	Febrero	2023-02-27T00:00:00	2024-11-08T23:00:00	1	Precipitación	0
39280	7	Sololá	717	San Juan la Laguna	12	San Juan la Laguna	2	Febrero	2023-02-27T00:00:00	2024-11-08T23:00:00	8	Radiación solar	0
39281	7	Sololá	717	San Juan la Laguna	12	San Juan la Laguna	2	Febrero	2023-02-28T00:00:00	2024-11-08T00:00:00	2	Temperatura media	14.6
39282	7	Sololá	717	San Juan la Laguna	12	San Juan la Laguna	2	Febrero	2023-02-28T00:00:00	2024-11-08T00:00:00	4	Temperatura máxima	15.8
39283	7	Sololá	717	San Juan la Laguna	12	San Juan la Laguna	2	Febrero	2023-02-28T00:00:00	2024-11-08T00:00:00	3	Temperatura mínima	14.6
39284	7	Sololá	717	San Juan la Laguna	12	San Juan la Laguna	2	Febrero	2023-02-28T00:00:00	2024-11-08T00:00:00	5	Humedad	84
39285	7	Sololá	717	San Juan la Laguna	12	San Juan la Laguna	2	Febrero	2023-02-28T00:00:00	2024-11-08T00:00:00	6	Velocidad del viento	3.2
39286	7	Sololá	717	San Juan la Laguna	12	San Juan la Laguna	2	Febrero	2023-02-28T00:00:00	2024-11-08T00:00:00	7	Dirección del viento	3.22
39287	7	Sololá	717	San Juan la Laguna	12	San Juan la Laguna	2	Febrero	2023-02-28T00:00:00	2024-11-08T00:00:00	1	Precipitación	0
39288	7	Sololá	717	San Juan la Laguna	12	San Juan la Laguna	2	Febrero	2023-02-28T00:00:00	2024-11-08T00:00:00	8	Radiación solar	0
39289	7	Sololá	717	San Juan la Laguna	12	San Juan la Laguna	2	Febrero	2023-02-28T00:00:00	2024-11-08T01:00:00	2	Temperatura media	14.1
39290	7	Sololá	717	San Juan la Laguna	12	San Juan la Laguna	2	Febrero	2023-02-28T00:00:00	2024-11-08T01:00:00	4	Temperatura máxima	14.6
39291	7	Sololá	717	San Juan la Laguna	12	San Juan la Laguna	2	Febrero	2023-02-28T00:00:00	2024-11-08T01:00:00	3	Temperatura mínima	14.1
39292	7	Sololá	717	San Juan la Laguna	12	San Juan la Laguna	2	Febrero	2023-02-28T00:00:00	2024-11-08T01:00:00	5	Humedad	83
39293	7	Sololá	717	San Juan la Laguna	12	San Juan la Laguna	2	Febrero	2023-02-28T00:00:00	2024-11-08T01:00:00	6	Velocidad del viento	3.2
39294	7	Sololá	717	San Juan la Laguna	12	San Juan la Laguna	2	Febrero	2023-02-28T00:00:00	2024-11-08T01:00:00	7	Dirección del viento	3.22
39295	7	Sololá	717	San Juan la Laguna	12	San Juan la Laguna	2	Febrero	2023-02-28T00:00:00	2024-11-08T01:00:00	1	Precipitación	0
39296	7	Sololá	717	San Juan la Laguna	12	San Juan la Laguna	2	Febrero	2023-02-28T00:00:00	2024-11-08T01:00:00	8	Radiación solar	0
39297	7	Sololá	717	San Juan la Laguna	12	San Juan la Laguna	2	Febrero	2023-02-28T00:00:00	2024-11-08T02:00:00	2	Temperatura media	14.9
39298	7	Sololá	717	San Juan la Laguna	12	San Juan la Laguna	2	Febrero	2023-02-28T00:00:00	2024-11-08T02:00:00	4	Temperatura máxima	14.9
39299	7	Sololá	717	San Juan la Laguna	12	San Juan la Laguna	2	Febrero	2023-02-28T00:00:00	2024-11-08T02:00:00	3	Temperatura mínima	13.9
39300	7	Sololá	717	San Juan la Laguna	12	San Juan la Laguna	2	Febrero	2023-02-28T00:00:00	2024-11-08T02:00:00	5	Humedad	81
39301	7	Sololá	717	San Juan la Laguna	12	San Juan la Laguna	2	Febrero	2023-02-28T00:00:00	2024-11-08T02:00:00	6	Velocidad del viento	3.2
39302	7	Sololá	717	San Juan la Laguna	12	San Juan la Laguna	2	Febrero	2023-02-28T00:00:00	2024-11-08T02:00:00	7	Dirección del viento	3.22
39303	7	Sololá	717	San Juan la Laguna	12	San Juan la Laguna	2	Febrero	2023-02-28T00:00:00	2024-11-08T02:00:00	1	Precipitación	0
39304	7	Sololá	717	San Juan la Laguna	12	San Juan la Laguna	2	Febrero	2023-02-28T00:00:00	2024-11-08T02:00:00	8	Radiación solar	0
39305	7	Sololá	717	San Juan la Laguna	12	San Juan la Laguna	2	Febrero	2023-02-28T00:00:00	2024-11-08T03:00:00	2	Temperatura media	13.8
39306	7	Sololá	717	San Juan la Laguna	12	San Juan la Laguna	2	Febrero	2023-02-28T00:00:00	2024-11-08T03:00:00	4	Temperatura máxima	14.9
39307	7	Sololá	717	San Juan la Laguna	12	San Juan la Laguna	2	Febrero	2023-02-28T00:00:00	2024-11-08T03:00:00	3	Temperatura mínima	13.7
39308	7	Sololá	717	San Juan la Laguna	12	San Juan la Laguna	2	Febrero	2023-02-28T00:00:00	2024-11-08T03:00:00	5	Humedad	83
39309	7	Sololá	717	San Juan la Laguna	12	San Juan la Laguna	2	Febrero	2023-02-28T00:00:00	2024-11-08T03:00:00	6	Velocidad del viento	4.8
39310	7	Sololá	717	San Juan la Laguna	12	San Juan la Laguna	2	Febrero	2023-02-28T00:00:00	2024-11-08T03:00:00	7	Dirección del viento	4.83
39311	7	Sololá	717	San Juan la Laguna	12	San Juan la Laguna	2	Febrero	2023-02-28T00:00:00	2024-11-08T03:00:00	1	Precipitación	0
39312	7	Sololá	717	San Juan la Laguna	12	San Juan la Laguna	2	Febrero	2023-02-28T00:00:00	2024-11-08T03:00:00	8	Radiación solar	0
39313	7	Sololá	717	San Juan la Laguna	12	San Juan la Laguna	2	Febrero	2023-02-28T00:00:00	2024-11-08T04:00:00	2	Temperatura media	13
39314	7	Sololá	717	San Juan la Laguna	12	San Juan la Laguna	2	Febrero	2023-02-28T00:00:00	2024-11-08T04:00:00	4	Temperatura máxima	13.8
39315	7	Sololá	717	San Juan la Laguna	12	San Juan la Laguna	2	Febrero	2023-02-28T00:00:00	2024-11-08T04:00:00	3	Temperatura mínima	13
39316	7	Sololá	717	San Juan la Laguna	12	San Juan la Laguna	2	Febrero	2023-02-28T00:00:00	2024-11-08T04:00:00	5	Humedad	84
39317	7	Sololá	717	San Juan la Laguna	12	San Juan la Laguna	2	Febrero	2023-02-28T00:00:00	2024-11-08T04:00:00	6	Velocidad del viento	4.8
39318	7	Sololá	717	San Juan la Laguna	12	San Juan la Laguna	2	Febrero	2023-02-28T00:00:00	2024-11-08T04:00:00	7	Dirección del viento	4.83
39319	7	Sololá	717	San Juan la Laguna	12	San Juan la Laguna	2	Febrero	2023-02-28T00:00:00	2024-11-08T04:00:00	1	Precipitación	0
39320	7	Sololá	717	San Juan la Laguna	12	San Juan la Laguna	2	Febrero	2023-02-28T00:00:00	2024-11-08T04:00:00	8	Radiación solar	0
39321	7	Sololá	717	San Juan la Laguna	12	San Juan la Laguna	2	Febrero	2023-02-28T00:00:00	2024-11-08T05:00:00	2	Temperatura media	12.4
39322	7	Sololá	717	San Juan la Laguna	12	San Juan la Laguna	2	Febrero	2023-02-28T00:00:00	2024-11-08T05:00:00	4	Temperatura máxima	13
39323	7	Sololá	717	San Juan la Laguna	12	San Juan la Laguna	2	Febrero	2023-02-28T00:00:00	2024-11-08T05:00:00	3	Temperatura mínima	12.4
39324	7	Sololá	717	San Juan la Laguna	12	San Juan la Laguna	2	Febrero	2023-02-28T00:00:00	2024-11-08T05:00:00	5	Humedad	85
39325	7	Sololá	717	San Juan la Laguna	12	San Juan la Laguna	2	Febrero	2023-02-28T00:00:00	2024-11-08T05:00:00	6	Velocidad del viento	1.6
39326	7	Sololá	717	San Juan la Laguna	12	San Juan la Laguna	2	Febrero	2023-02-28T00:00:00	2024-11-08T05:00:00	7	Dirección del viento	1.61
39327	7	Sololá	717	San Juan la Laguna	12	San Juan la Laguna	2	Febrero	2023-02-28T00:00:00	2024-11-08T05:00:00	1	Precipitación	0
39328	7	Sololá	717	San Juan la Laguna	12	San Juan la Laguna	2	Febrero	2023-02-28T00:00:00	2024-11-08T05:00:00	8	Radiación solar	0
39329	7	Sololá	717	San Juan la Laguna	12	San Juan la Laguna	2	Febrero	2023-02-28T00:00:00	2024-11-08T06:00:00	2	Temperatura media	12.2
39330	7	Sololá	717	San Juan la Laguna	12	San Juan la Laguna	2	Febrero	2023-02-28T00:00:00	2024-11-08T06:00:00	4	Temperatura máxima	12.5
39331	7	Sololá	717	San Juan la Laguna	12	San Juan la Laguna	2	Febrero	2023-02-28T00:00:00	2024-11-08T06:00:00	3	Temperatura mínima	12.2
39332	7	Sololá	717	San Juan la Laguna	12	San Juan la Laguna	2	Febrero	2023-02-28T00:00:00	2024-11-08T06:00:00	5	Humedad	83
39333	7	Sololá	717	San Juan la Laguna	12	San Juan la Laguna	2	Febrero	2023-02-28T00:00:00	2024-11-08T06:00:00	6	Velocidad del viento	3.2
39334	7	Sololá	717	San Juan la Laguna	12	San Juan la Laguna	2	Febrero	2023-02-28T00:00:00	2024-11-08T06:00:00	7	Dirección del viento	3.22
39335	7	Sololá	717	San Juan la Laguna	12	San Juan la Laguna	2	Febrero	2023-02-28T00:00:00	2024-11-08T06:00:00	1	Precipitación	0
39336	7	Sololá	717	San Juan la Laguna	12	San Juan la Laguna	2	Febrero	2023-02-28T00:00:00	2024-11-08T06:00:00	8	Radiación solar	0
39337	7	Sololá	717	San Juan la Laguna	12	San Juan la Laguna	2	Febrero	2023-02-28T00:00:00	2024-11-08T07:00:00	2	Temperatura media	12.3
39338	7	Sololá	717	San Juan la Laguna	12	San Juan la Laguna	2	Febrero	2023-02-28T00:00:00	2024-11-08T07:00:00	4	Temperatura máxima	12.3
39339	7	Sololá	717	San Juan la Laguna	12	San Juan la Laguna	2	Febrero	2023-02-28T00:00:00	2024-11-08T07:00:00	3	Temperatura mínima	11.8
39340	7	Sololá	717	San Juan la Laguna	12	San Juan la Laguna	2	Febrero	2023-02-28T00:00:00	2024-11-08T07:00:00	5	Humedad	80
39341	7	Sololá	717	San Juan la Laguna	12	San Juan la Laguna	2	Febrero	2023-02-28T00:00:00	2024-11-08T07:00:00	6	Velocidad del viento	3.2
39342	7	Sololá	717	San Juan la Laguna	12	San Juan la Laguna	2	Febrero	2023-02-28T00:00:00	2024-11-08T07:00:00	7	Dirección del viento	3.22
39343	7	Sololá	717	San Juan la Laguna	12	San Juan la Laguna	2	Febrero	2023-02-28T00:00:00	2024-11-08T07:00:00	1	Precipitación	0
39344	7	Sololá	717	San Juan la Laguna	12	San Juan la Laguna	2	Febrero	2023-02-28T00:00:00	2024-11-08T07:00:00	8	Radiación solar	14
39345	7	Sololá	717	San Juan la Laguna	12	San Juan la Laguna	2	Febrero	2023-02-28T00:00:00	2024-11-08T08:00:00	2	Temperatura media	16.1
39346	7	Sololá	717	San Juan la Laguna	12	San Juan la Laguna	2	Febrero	2023-02-28T00:00:00	2024-11-08T08:00:00	4	Temperatura máxima	16.1
39347	7	Sololá	717	San Juan la Laguna	12	San Juan la Laguna	2	Febrero	2023-02-28T00:00:00	2024-11-08T08:00:00	3	Temperatura mínima	12.3
39348	7	Sololá	717	San Juan la Laguna	12	San Juan la Laguna	2	Febrero	2023-02-28T00:00:00	2024-11-08T08:00:00	5	Humedad	75
39349	7	Sololá	717	San Juan la Laguna	12	San Juan la Laguna	2	Febrero	2023-02-28T00:00:00	2024-11-08T08:00:00	6	Velocidad del viento	1.6
39350	7	Sololá	717	San Juan la Laguna	12	San Juan la Laguna	2	Febrero	2023-02-28T00:00:00	2024-11-08T08:00:00	7	Dirección del viento	1.61
39351	7	Sololá	717	San Juan la Laguna	12	San Juan la Laguna	2	Febrero	2023-02-28T00:00:00	2024-11-08T08:00:00	1	Precipitación	0
39352	7	Sololá	717	San Juan la Laguna	12	San Juan la Laguna	2	Febrero	2023-02-28T00:00:00	2024-11-08T08:00:00	8	Radiación solar	156
39353	7	Sololá	717	San Juan la Laguna	12	San Juan la Laguna	2	Febrero	2023-02-28T00:00:00	2024-11-08T09:00:00	2	Temperatura media	18.4
39354	7	Sololá	717	San Juan la Laguna	12	San Juan la Laguna	2	Febrero	2023-02-28T00:00:00	2024-11-08T09:00:00	4	Temperatura máxima	18.4
39355	7	Sololá	717	San Juan la Laguna	12	San Juan la Laguna	2	Febrero	2023-02-28T00:00:00	2024-11-08T09:00:00	3	Temperatura mínima	16.1
39356	7	Sololá	717	San Juan la Laguna	12	San Juan la Laguna	2	Febrero	2023-02-28T00:00:00	2024-11-08T09:00:00	5	Humedad	74
39357	7	Sololá	717	San Juan la Laguna	12	San Juan la Laguna	2	Febrero	2023-02-28T00:00:00	2024-11-08T09:00:00	6	Velocidad del viento	1.6
39358	7	Sololá	717	San Juan la Laguna	12	San Juan la Laguna	2	Febrero	2023-02-28T00:00:00	2024-11-08T09:00:00	7	Dirección del viento	1.61
39359	7	Sololá	717	San Juan la Laguna	12	San Juan la Laguna	2	Febrero	2023-02-28T00:00:00	2024-11-08T09:00:00	1	Precipitación	0
39360	7	Sololá	717	San Juan la Laguna	12	San Juan la Laguna	2	Febrero	2023-02-28T00:00:00	2024-11-08T09:00:00	8	Radiación solar	406
39361	7	Sololá	717	San Juan la Laguna	12	San Juan la Laguna	2	Febrero	2023-02-28T00:00:00	2024-11-08T10:00:00	2	Temperatura media	19.4
39362	7	Sololá	717	San Juan la Laguna	12	San Juan la Laguna	2	Febrero	2023-02-28T00:00:00	2024-11-08T10:00:00	4	Temperatura máxima	19.4
39363	7	Sololá	717	San Juan la Laguna	12	San Juan la Laguna	2	Febrero	2023-02-28T00:00:00	2024-11-08T10:00:00	3	Temperatura mínima	18.3
39364	7	Sololá	717	San Juan la Laguna	12	San Juan la Laguna	2	Febrero	2023-02-28T00:00:00	2024-11-08T10:00:00	5	Humedad	72
39365	7	Sololá	717	San Juan la Laguna	12	San Juan la Laguna	2	Febrero	2023-02-28T00:00:00	2024-11-08T10:00:00	6	Velocidad del viento	3.2
39366	7	Sololá	717	San Juan la Laguna	12	San Juan la Laguna	2	Febrero	2023-02-28T00:00:00	2024-11-08T10:00:00	7	Dirección del viento	3.22
39367	7	Sololá	717	San Juan la Laguna	12	San Juan la Laguna	2	Febrero	2023-02-28T00:00:00	2024-11-08T10:00:00	1	Precipitación	0
39368	7	Sololá	717	San Juan la Laguna	12	San Juan la Laguna	2	Febrero	2023-02-28T00:00:00	2024-11-08T10:00:00	8	Radiación solar	620
39369	7	Sololá	717	San Juan la Laguna	12	San Juan la Laguna	2	Febrero	2023-02-28T00:00:00	2024-11-08T11:00:00	2	Temperatura media	20.4
39370	7	Sololá	717	San Juan la Laguna	12	San Juan la Laguna	2	Febrero	2023-02-28T00:00:00	2024-11-08T11:00:00	4	Temperatura máxima	20.5
39371	7	Sololá	717	San Juan la Laguna	12	San Juan la Laguna	2	Febrero	2023-02-28T00:00:00	2024-11-08T11:00:00	3	Temperatura mínima	19.2
39372	7	Sololá	717	San Juan la Laguna	12	San Juan la Laguna	2	Febrero	2023-02-28T00:00:00	2024-11-08T11:00:00	5	Humedad	66
39373	7	Sololá	717	San Juan la Laguna	12	San Juan la Laguna	2	Febrero	2023-02-28T00:00:00	2024-11-08T11:00:00	6	Velocidad del viento	4.8
39374	7	Sololá	717	San Juan la Laguna	12	San Juan la Laguna	2	Febrero	2023-02-28T00:00:00	2024-11-08T11:00:00	7	Dirección del viento	4.83
39375	7	Sololá	717	San Juan la Laguna	12	San Juan la Laguna	2	Febrero	2023-02-28T00:00:00	2024-11-08T11:00:00	1	Precipitación	0
39376	7	Sololá	717	San Juan la Laguna	12	San Juan la Laguna	2	Febrero	2023-02-28T00:00:00	2024-11-08T11:00:00	8	Radiación solar	770
39377	7	Sololá	717	San Juan la Laguna	12	San Juan la Laguna	2	Febrero	2023-02-28T00:00:00	2024-11-08T12:00:00	2	Temperatura media	21.8
39378	7	Sololá	717	San Juan la Laguna	12	San Juan la Laguna	2	Febrero	2023-02-28T00:00:00	2024-11-08T12:00:00	4	Temperatura máxima	21.8
39379	7	Sololá	717	San Juan la Laguna	12	San Juan la Laguna	2	Febrero	2023-02-28T00:00:00	2024-11-08T12:00:00	3	Temperatura mínima	20.4
39380	7	Sololá	717	San Juan la Laguna	12	San Juan la Laguna	2	Febrero	2023-02-28T00:00:00	2024-11-08T12:00:00	5	Humedad	67
39381	7	Sololá	717	San Juan la Laguna	12	San Juan la Laguna	2	Febrero	2023-02-28T00:00:00	2024-11-08T12:00:00	6	Velocidad del viento	4.8
39382	7	Sololá	717	San Juan la Laguna	12	San Juan la Laguna	2	Febrero	2023-02-28T00:00:00	2024-11-08T12:00:00	7	Dirección del viento	4.83
39383	7	Sololá	717	San Juan la Laguna	12	San Juan la Laguna	2	Febrero	2023-02-28T00:00:00	2024-11-08T12:00:00	1	Precipitación	0
39384	7	Sololá	717	San Juan la Laguna	12	San Juan la Laguna	2	Febrero	2023-02-28T00:00:00	2024-11-08T12:00:00	8	Radiación solar	786
39385	7	Sololá	717	San Juan la Laguna	12	San Juan la Laguna	2	Febrero	2023-02-28T00:00:00	2024-11-08T13:00:00	2	Temperatura media	22.3
39386	7	Sololá	717	San Juan la Laguna	12	San Juan la Laguna	2	Febrero	2023-02-28T00:00:00	2024-11-08T13:00:00	4	Temperatura máxima	23
39387	7	Sololá	717	San Juan la Laguna	12	San Juan la Laguna	2	Febrero	2023-02-28T00:00:00	2024-11-08T13:00:00	3	Temperatura mínima	21.7
39388	7	Sololá	717	San Juan la Laguna	12	San Juan la Laguna	2	Febrero	2023-02-28T00:00:00	2024-11-08T13:00:00	5	Humedad	64
39389	7	Sololá	717	San Juan la Laguna	12	San Juan la Laguna	2	Febrero	2023-02-28T00:00:00	2024-11-08T13:00:00	6	Velocidad del viento	4.8
39390	7	Sololá	717	San Juan la Laguna	12	San Juan la Laguna	2	Febrero	2023-02-28T00:00:00	2024-11-08T13:00:00	7	Dirección del viento	4.83
39391	7	Sololá	717	San Juan la Laguna	12	San Juan la Laguna	2	Febrero	2023-02-28T00:00:00	2024-11-08T13:00:00	1	Precipitación	0
39392	7	Sololá	717	San Juan la Laguna	12	San Juan la Laguna	2	Febrero	2023-02-28T00:00:00	2024-11-08T13:00:00	8	Radiación solar	888
39393	7	Sololá	717	San Juan la Laguna	12	San Juan la Laguna	2	Febrero	2023-02-28T00:00:00	2024-11-08T14:00:00	2	Temperatura media	22.6
39394	7	Sololá	717	San Juan la Laguna	12	San Juan la Laguna	2	Febrero	2023-02-28T00:00:00	2024-11-08T14:00:00	4	Temperatura máxima	23.3
39395	7	Sololá	717	San Juan la Laguna	12	San Juan la Laguna	2	Febrero	2023-02-28T00:00:00	2024-11-08T14:00:00	3	Temperatura mínima	22.3
39396	7	Sololá	717	San Juan la Laguna	12	San Juan la Laguna	2	Febrero	2023-02-28T00:00:00	2024-11-08T14:00:00	5	Humedad	67
39397	7	Sololá	717	San Juan la Laguna	12	San Juan la Laguna	2	Febrero	2023-02-28T00:00:00	2024-11-08T14:00:00	6	Velocidad del viento	4.8
39398	7	Sololá	717	San Juan la Laguna	12	San Juan la Laguna	2	Febrero	2023-02-28T00:00:00	2024-11-08T14:00:00	7	Dirección del viento	4.83
39399	7	Sololá	717	San Juan la Laguna	12	San Juan la Laguna	2	Febrero	2023-02-28T00:00:00	2024-11-08T14:00:00	1	Precipitación	0
39400	7	Sololá	717	San Juan la Laguna	12	San Juan la Laguna	2	Febrero	2023-02-28T00:00:00	2024-11-08T14:00:00	8	Radiación solar	814
39401	7	Sololá	717	San Juan la Laguna	12	San Juan la Laguna	2	Febrero	2023-02-28T00:00:00	2024-11-08T15:00:00	2	Temperatura media	22.3
39402	7	Sololá	717	San Juan la Laguna	12	San Juan la Laguna	2	Febrero	2023-02-28T00:00:00	2024-11-08T15:00:00	4	Temperatura máxima	23.9
39403	7	Sololá	717	San Juan la Laguna	12	San Juan la Laguna	2	Febrero	2023-02-28T00:00:00	2024-11-08T15:00:00	3	Temperatura mínima	22.3
39404	7	Sololá	717	San Juan la Laguna	12	San Juan la Laguna	2	Febrero	2023-02-28T00:00:00	2024-11-08T15:00:00	5	Humedad	70
39405	7	Sololá	717	San Juan la Laguna	12	San Juan la Laguna	2	Febrero	2023-02-28T00:00:00	2024-11-08T15:00:00	6	Velocidad del viento	8
39406	7	Sololá	717	San Juan la Laguna	12	San Juan la Laguna	2	Febrero	2023-02-28T00:00:00	2024-11-08T15:00:00	7	Dirección del viento	8.05
39407	7	Sololá	717	San Juan la Laguna	12	San Juan la Laguna	2	Febrero	2023-02-28T00:00:00	2024-11-08T15:00:00	1	Precipitación	0
39408	7	Sololá	717	San Juan la Laguna	12	San Juan la Laguna	2	Febrero	2023-02-28T00:00:00	2024-11-08T15:00:00	8	Radiación solar	704
39409	7	Sololá	717	San Juan la Laguna	12	San Juan la Laguna	2	Febrero	2023-02-28T00:00:00	2024-11-08T16:00:00	2	Temperatura media	20.9
39410	7	Sololá	717	San Juan la Laguna	12	San Juan la Laguna	2	Febrero	2023-02-28T00:00:00	2024-11-08T16:00:00	4	Temperatura máxima	22.2
39411	7	Sololá	717	San Juan la Laguna	12	San Juan la Laguna	2	Febrero	2023-02-28T00:00:00	2024-11-08T16:00:00	3	Temperatura mínima	20.9
39412	7	Sololá	717	San Juan la Laguna	12	San Juan la Laguna	2	Febrero	2023-02-28T00:00:00	2024-11-08T16:00:00	5	Humedad	75
39413	7	Sololá	717	San Juan la Laguna	12	San Juan la Laguna	2	Febrero	2023-02-28T00:00:00	2024-11-08T16:00:00	6	Velocidad del viento	11.3
39414	7	Sololá	717	San Juan la Laguna	12	San Juan la Laguna	2	Febrero	2023-02-28T00:00:00	2024-11-08T16:00:00	7	Dirección del viento	11.27
39415	7	Sololá	717	San Juan la Laguna	12	San Juan la Laguna	2	Febrero	2023-02-28T00:00:00	2024-11-08T16:00:00	1	Precipitación	0
39416	7	Sololá	717	San Juan la Laguna	12	San Juan la Laguna	2	Febrero	2023-02-28T00:00:00	2024-11-08T16:00:00	8	Radiación solar	448
39417	7	Sololá	717	San Juan la Laguna	12	San Juan la Laguna	2	Febrero	2023-02-28T00:00:00	2024-11-08T17:00:00	2	Temperatura media	20.8
39418	7	Sololá	717	San Juan la Laguna	12	San Juan la Laguna	2	Febrero	2023-02-28T00:00:00	2024-11-08T17:00:00	4	Temperatura máxima	21.2
39419	7	Sololá	717	San Juan la Laguna	12	San Juan la Laguna	2	Febrero	2023-02-28T00:00:00	2024-11-08T17:00:00	3	Temperatura mínima	20.7
39420	7	Sololá	717	San Juan la Laguna	12	San Juan la Laguna	2	Febrero	2023-02-28T00:00:00	2024-11-08T17:00:00	5	Humedad	76
39421	7	Sololá	717	San Juan la Laguna	12	San Juan la Laguna	2	Febrero	2023-02-28T00:00:00	2024-11-08T17:00:00	6	Velocidad del viento	6.4
39422	7	Sololá	717	San Juan la Laguna	12	San Juan la Laguna	2	Febrero	2023-02-28T00:00:00	2024-11-08T17:00:00	7	Dirección del viento	6.44
39423	7	Sololá	717	San Juan la Laguna	12	San Juan la Laguna	2	Febrero	2023-02-28T00:00:00	2024-11-08T17:00:00	1	Precipitación	0
39424	7	Sololá	717	San Juan la Laguna	12	San Juan la Laguna	2	Febrero	2023-02-28T00:00:00	2024-11-08T17:00:00	8	Radiación solar	134
39425	7	Sololá	717	San Juan la Laguna	12	San Juan la Laguna	2	Febrero	2023-02-28T00:00:00	2024-11-08T18:00:00	2	Temperatura media	20.3
39426	7	Sololá	717	San Juan la Laguna	12	San Juan la Laguna	2	Febrero	2023-02-28T00:00:00	2024-11-08T18:00:00	4	Temperatura máxima	20.8
39427	7	Sololá	717	San Juan la Laguna	12	San Juan la Laguna	2	Febrero	2023-02-28T00:00:00	2024-11-08T18:00:00	3	Temperatura mínima	20.3
39428	7	Sololá	717	San Juan la Laguna	12	San Juan la Laguna	2	Febrero	2023-02-28T00:00:00	2024-11-08T18:00:00	5	Humedad	78
39429	7	Sololá	717	San Juan la Laguna	12	San Juan la Laguna	2	Febrero	2023-02-28T00:00:00	2024-11-08T18:00:00	6	Velocidad del viento	3.2
39430	7	Sololá	717	San Juan la Laguna	12	San Juan la Laguna	2	Febrero	2023-02-28T00:00:00	2024-11-08T18:00:00	7	Dirección del viento	3.22
39431	7	Sololá	717	San Juan la Laguna	12	San Juan la Laguna	2	Febrero	2023-02-28T00:00:00	2024-11-08T18:00:00	1	Precipitación	0
39432	7	Sololá	717	San Juan la Laguna	12	San Juan la Laguna	2	Febrero	2023-02-28T00:00:00	2024-11-08T18:00:00	8	Radiación solar	41
39433	7	Sololá	717	San Juan la Laguna	12	San Juan la Laguna	2	Febrero	2023-02-28T00:00:00	2024-11-08T19:00:00	2	Temperatura media	19.9
39434	7	Sololá	717	San Juan la Laguna	12	San Juan la Laguna	2	Febrero	2023-02-28T00:00:00	2024-11-08T19:00:00	4	Temperatura máxima	20.3
39435	7	Sololá	717	San Juan la Laguna	12	San Juan la Laguna	2	Febrero	2023-02-28T00:00:00	2024-11-08T19:00:00	3	Temperatura mínima	19.9
39436	7	Sololá	717	San Juan la Laguna	12	San Juan la Laguna	2	Febrero	2023-02-28T00:00:00	2024-11-08T19:00:00	5	Humedad	80
39437	7	Sololá	717	San Juan la Laguna	12	San Juan la Laguna	2	Febrero	2023-02-28T00:00:00	2024-11-08T19:00:00	6	Velocidad del viento	0
39438	7	Sololá	717	San Juan la Laguna	12	San Juan la Laguna	2	Febrero	2023-02-28T00:00:00	2024-11-08T19:00:00	7	Dirección del viento	0
39439	7	Sololá	717	San Juan la Laguna	12	San Juan la Laguna	2	Febrero	2023-02-28T00:00:00	2024-11-08T19:00:00	1	Precipitación	0
39440	7	Sololá	717	San Juan la Laguna	12	San Juan la Laguna	2	Febrero	2023-02-28T00:00:00	2024-11-08T19:00:00	8	Radiación solar	0
39441	7	Sololá	717	San Juan la Laguna	12	San Juan la Laguna	2	Febrero	2023-02-28T00:00:00	2024-11-08T20:00:00	2	Temperatura media	17.8
39442	7	Sololá	717	San Juan la Laguna	12	San Juan la Laguna	2	Febrero	2023-02-28T00:00:00	2024-11-08T20:00:00	4	Temperatura máxima	19.9
39443	7	Sololá	717	San Juan la Laguna	12	San Juan la Laguna	2	Febrero	2023-02-28T00:00:00	2024-11-08T20:00:00	3	Temperatura mínima	17.8
39444	7	Sololá	717	San Juan la Laguna	12	San Juan la Laguna	2	Febrero	2023-02-28T00:00:00	2024-11-08T20:00:00	5	Humedad	86
39445	7	Sololá	717	San Juan la Laguna	12	San Juan la Laguna	2	Febrero	2023-02-28T00:00:00	2024-11-08T20:00:00	6	Velocidad del viento	0
39446	7	Sololá	717	San Juan la Laguna	12	San Juan la Laguna	2	Febrero	2023-02-28T00:00:00	2024-11-08T20:00:00	7	Dirección del viento	0
39447	7	Sololá	717	San Juan la Laguna	12	San Juan la Laguna	2	Febrero	2023-02-28T00:00:00	2024-11-08T20:00:00	1	Precipitación	0
39448	7	Sololá	717	San Juan la Laguna	12	San Juan la Laguna	2	Febrero	2023-02-28T00:00:00	2024-11-08T20:00:00	8	Radiación solar	0
39449	7	Sololá	717	San Juan la Laguna	12	San Juan la Laguna	2	Febrero	2023-02-28T00:00:00	2024-11-08T21:00:00	2	Temperatura media	17.8
39450	7	Sololá	717	San Juan la Laguna	12	San Juan la Laguna	2	Febrero	2023-02-28T00:00:00	2024-11-08T21:00:00	4	Temperatura máxima	17.8
39451	7	Sololá	717	San Juan la Laguna	12	San Juan la Laguna	2	Febrero	2023-02-28T00:00:00	2024-11-08T21:00:00	3	Temperatura mínima	17.1
39452	7	Sololá	717	San Juan la Laguna	12	San Juan la Laguna	2	Febrero	2023-02-28T00:00:00	2024-11-08T21:00:00	5	Humedad	85
39453	7	Sololá	717	San Juan la Laguna	12	San Juan la Laguna	2	Febrero	2023-02-28T00:00:00	2024-11-08T21:00:00	6	Velocidad del viento	1.6
39454	7	Sololá	717	San Juan la Laguna	12	San Juan la Laguna	2	Febrero	2023-02-28T00:00:00	2024-11-08T21:00:00	7	Dirección del viento	1.61
39455	7	Sololá	717	San Juan la Laguna	12	San Juan la Laguna	2	Febrero	2023-02-28T00:00:00	2024-11-08T21:00:00	1	Precipitación	0
39456	7	Sololá	717	San Juan la Laguna	12	San Juan la Laguna	2	Febrero	2023-02-28T00:00:00	2024-11-08T21:00:00	8	Radiación solar	0
39457	7	Sololá	717	San Juan la Laguna	12	San Juan la Laguna	2	Febrero	2023-02-28T00:00:00	2024-11-08T22:00:00	2	Temperatura media	18.4
39458	7	Sololá	717	San Juan la Laguna	12	San Juan la Laguna	2	Febrero	2023-02-28T00:00:00	2024-11-08T22:00:00	4	Temperatura máxima	18.4
39459	7	Sololá	717	San Juan la Laguna	12	San Juan la Laguna	2	Febrero	2023-02-28T00:00:00	2024-11-08T22:00:00	3	Temperatura mínima	17.7
39460	7	Sololá	717	San Juan la Laguna	12	San Juan la Laguna	2	Febrero	2023-02-28T00:00:00	2024-11-08T22:00:00	5	Humedad	83
39461	7	Sololá	717	San Juan la Laguna	12	San Juan la Laguna	2	Febrero	2023-02-28T00:00:00	2024-11-08T22:00:00	6	Velocidad del viento	0
39462	7	Sololá	717	San Juan la Laguna	12	San Juan la Laguna	2	Febrero	2023-02-28T00:00:00	2024-11-08T22:00:00	7	Dirección del viento	0
39463	7	Sololá	717	San Juan la Laguna	12	San Juan la Laguna	2	Febrero	2023-02-28T00:00:00	2024-11-08T22:00:00	1	Precipitación	0
39464	7	Sololá	717	San Juan la Laguna	12	San Juan la Laguna	2	Febrero	2023-02-28T00:00:00	2024-11-08T22:00:00	8	Radiación solar	0
39465	7	Sololá	717	San Juan la Laguna	12	San Juan la Laguna	2	Febrero	2023-02-28T00:00:00	2024-11-08T23:00:00	2	Temperatura media	17.3
39466	7	Sololá	717	San Juan la Laguna	12	San Juan la Laguna	2	Febrero	2023-02-28T00:00:00	2024-11-08T23:00:00	4	Temperatura máxima	18.4
39467	7	Sololá	717	San Juan la Laguna	12	San Juan la Laguna	2	Febrero	2023-02-28T00:00:00	2024-11-08T23:00:00	3	Temperatura mínima	17.3
39468	7	Sololá	717	San Juan la Laguna	12	San Juan la Laguna	2	Febrero	2023-02-28T00:00:00	2024-11-08T23:00:00	5	Humedad	86
39469	7	Sololá	717	San Juan la Laguna	12	San Juan la Laguna	2	Febrero	2023-02-28T00:00:00	2024-11-08T23:00:00	6	Velocidad del viento	0
39470	7	Sololá	717	San Juan la Laguna	12	San Juan la Laguna	2	Febrero	2023-02-28T00:00:00	2024-11-08T23:00:00	7	Dirección del viento	0
39471	7	Sololá	717	San Juan la Laguna	12	San Juan la Laguna	2	Febrero	2023-02-28T00:00:00	2024-11-08T23:00:00	1	Precipitación	0
39472	7	Sololá	717	San Juan la Laguna	12	San Juan la Laguna	2	Febrero	2023-02-28T00:00:00	2024-11-08T23:00:00	8	Radiación solar	0
39473	7	Sololá	717	San Juan la Laguna	12	San Juan la Laguna	3	Marzo	2023-01-03T00:00:00	2024-11-08T00:00:00	2	Temperatura media	15.8
39474	7	Sololá	717	San Juan la Laguna	12	San Juan la Laguna	3	Marzo	2023-01-03T00:00:00	2024-11-08T00:00:00	4	Temperatura máxima	17.3
39475	7	Sololá	717	San Juan la Laguna	12	San Juan la Laguna	3	Marzo	2023-01-03T00:00:00	2024-11-08T00:00:00	3	Temperatura mínima	15.8
39476	7	Sololá	717	San Juan la Laguna	12	San Juan la Laguna	3	Marzo	2023-01-03T00:00:00	2024-11-08T00:00:00	5	Humedad	83
39477	7	Sololá	717	San Juan la Laguna	12	San Juan la Laguna	3	Marzo	2023-01-03T00:00:00	2024-11-08T00:00:00	6	Velocidad del viento	1.6
39478	7	Sololá	717	San Juan la Laguna	12	San Juan la Laguna	3	Marzo	2023-01-03T00:00:00	2024-11-08T00:00:00	7	Dirección del viento	1.61
39479	7	Sololá	717	San Juan la Laguna	12	San Juan la Laguna	3	Marzo	2023-01-03T00:00:00	2024-11-08T00:00:00	1	Precipitación	0
39480	7	Sololá	717	San Juan la Laguna	12	San Juan la Laguna	3	Marzo	2023-01-03T00:00:00	2024-11-08T00:00:00	8	Radiación solar	0
39481	7	Sololá	717	San Juan la Laguna	12	San Juan la Laguna	3	Marzo	2023-01-03T00:00:00	2024-11-08T01:00:00	2	Temperatura media	14.8
39482	7	Sololá	717	San Juan la Laguna	12	San Juan la Laguna	3	Marzo	2023-01-03T00:00:00	2024-11-08T01:00:00	4	Temperatura máxima	15.8
39483	7	Sololá	717	San Juan la Laguna	12	San Juan la Laguna	3	Marzo	2023-01-03T00:00:00	2024-11-08T01:00:00	3	Temperatura mínima	14.7
39484	7	Sololá	717	San Juan la Laguna	12	San Juan la Laguna	3	Marzo	2023-01-03T00:00:00	2024-11-08T01:00:00	5	Humedad	82
39485	7	Sololá	717	San Juan la Laguna	12	San Juan la Laguna	3	Marzo	2023-01-03T00:00:00	2024-11-08T01:00:00	6	Velocidad del viento	1.6
39486	7	Sololá	717	San Juan la Laguna	12	San Juan la Laguna	3	Marzo	2023-01-03T00:00:00	2024-11-08T01:00:00	7	Dirección del viento	1.61
39487	7	Sololá	717	San Juan la Laguna	12	San Juan la Laguna	3	Marzo	2023-01-03T00:00:00	2024-11-08T01:00:00	1	Precipitación	0
39488	7	Sololá	717	San Juan la Laguna	12	San Juan la Laguna	3	Marzo	2023-01-03T00:00:00	2024-11-08T01:00:00	8	Radiación solar	0
39489	7	Sololá	717	San Juan la Laguna	12	San Juan la Laguna	3	Marzo	2023-01-03T00:00:00	2024-11-08T02:00:00	2	Temperatura media	14.2
39490	7	Sololá	717	San Juan la Laguna	12	San Juan la Laguna	3	Marzo	2023-01-03T00:00:00	2024-11-08T02:00:00	4	Temperatura máxima	14.8
39491	7	Sololá	717	San Juan la Laguna	12	San Juan la Laguna	3	Marzo	2023-01-03T00:00:00	2024-11-08T02:00:00	3	Temperatura mínima	14.1
39492	7	Sololá	717	San Juan la Laguna	12	San Juan la Laguna	3	Marzo	2023-01-03T00:00:00	2024-11-08T02:00:00	5	Humedad	82
39493	7	Sololá	717	San Juan la Laguna	12	San Juan la Laguna	3	Marzo	2023-01-03T00:00:00	2024-11-08T02:00:00	6	Velocidad del viento	1.6
39494	7	Sololá	717	San Juan la Laguna	12	San Juan la Laguna	3	Marzo	2023-01-03T00:00:00	2024-11-08T02:00:00	7	Dirección del viento	1.61
39495	7	Sololá	717	San Juan la Laguna	12	San Juan la Laguna	3	Marzo	2023-01-03T00:00:00	2024-11-08T02:00:00	1	Precipitación	0
39496	7	Sololá	717	San Juan la Laguna	12	San Juan la Laguna	3	Marzo	2023-01-03T00:00:00	2024-11-08T02:00:00	8	Radiación solar	0
39497	7	Sololá	717	San Juan la Laguna	12	San Juan la Laguna	3	Marzo	2023-01-03T00:00:00	2024-11-08T03:00:00	2	Temperatura media	13.9
39498	7	Sololá	717	San Juan la Laguna	12	San Juan la Laguna	3	Marzo	2023-01-03T00:00:00	2024-11-08T03:00:00	4	Temperatura máxima	14.3
39499	7	Sololá	717	San Juan la Laguna	12	San Juan la Laguna	3	Marzo	2023-01-03T00:00:00	2024-11-08T03:00:00	3	Temperatura mínima	13.8
39500	7	Sololá	717	San Juan la Laguna	12	San Juan la Laguna	3	Marzo	2023-01-03T00:00:00	2024-11-08T03:00:00	5	Humedad	80
39501	7	Sololá	717	San Juan la Laguna	12	San Juan la Laguna	3	Marzo	2023-01-03T00:00:00	2024-11-08T03:00:00	6	Velocidad del viento	3.2
39502	7	Sololá	717	San Juan la Laguna	12	San Juan la Laguna	3	Marzo	2023-01-03T00:00:00	2024-11-08T03:00:00	7	Dirección del viento	3.22
39503	7	Sololá	717	San Juan la Laguna	12	San Juan la Laguna	3	Marzo	2023-01-03T00:00:00	2024-11-08T03:00:00	1	Precipitación	0
39504	7	Sololá	717	San Juan la Laguna	12	San Juan la Laguna	3	Marzo	2023-01-03T00:00:00	2024-11-08T03:00:00	8	Radiación solar	0
39505	7	Sololá	717	San Juan la Laguna	12	San Juan la Laguna	3	Marzo	2023-01-03T00:00:00	2024-11-08T04:00:00	2	Temperatura media	12.9
39506	7	Sololá	717	San Juan la Laguna	12	San Juan la Laguna	3	Marzo	2023-01-03T00:00:00	2024-11-08T04:00:00	4	Temperatura máxima	13.9
39507	7	Sololá	717	San Juan la Laguna	12	San Juan la Laguna	3	Marzo	2023-01-03T00:00:00	2024-11-08T04:00:00	3	Temperatura mínima	12.8
39508	7	Sololá	717	San Juan la Laguna	12	San Juan la Laguna	3	Marzo	2023-01-03T00:00:00	2024-11-08T04:00:00	5	Humedad	81
39509	7	Sololá	717	San Juan la Laguna	12	San Juan la Laguna	3	Marzo	2023-01-03T00:00:00	2024-11-08T04:00:00	6	Velocidad del viento	1.6
39510	7	Sololá	717	San Juan la Laguna	12	San Juan la Laguna	3	Marzo	2023-01-03T00:00:00	2024-11-08T04:00:00	7	Dirección del viento	1.61
39511	7	Sololá	717	San Juan la Laguna	12	San Juan la Laguna	3	Marzo	2023-01-03T00:00:00	2024-11-08T04:00:00	1	Precipitación	0
39512	7	Sololá	717	San Juan la Laguna	12	San Juan la Laguna	3	Marzo	2023-01-03T00:00:00	2024-11-08T04:00:00	8	Radiación solar	0
39513	7	Sololá	717	San Juan la Laguna	12	San Juan la Laguna	3	Marzo	2023-01-03T00:00:00	2024-11-08T05:00:00	2	Temperatura media	12.7
39514	7	Sololá	717	San Juan la Laguna	12	San Juan la Laguna	3	Marzo	2023-01-03T00:00:00	2024-11-08T05:00:00	4	Temperatura máxima	13.2
39515	7	Sololá	717	San Juan la Laguna	12	San Juan la Laguna	3	Marzo	2023-01-03T00:00:00	2024-11-08T05:00:00	3	Temperatura mínima	12.6
39516	7	Sololá	717	San Juan la Laguna	12	San Juan la Laguna	3	Marzo	2023-01-03T00:00:00	2024-11-08T05:00:00	5	Humedad	81
39517	7	Sololá	717	San Juan la Laguna	12	San Juan la Laguna	3	Marzo	2023-01-03T00:00:00	2024-11-08T05:00:00	6	Velocidad del viento	3.2
39518	7	Sololá	717	San Juan la Laguna	12	San Juan la Laguna	3	Marzo	2023-01-03T00:00:00	2024-11-08T05:00:00	7	Dirección del viento	3.22
39519	7	Sololá	717	San Juan la Laguna	12	San Juan la Laguna	3	Marzo	2023-01-03T00:00:00	2024-11-08T05:00:00	1	Precipitación	0
39520	7	Sololá	717	San Juan la Laguna	12	San Juan la Laguna	3	Marzo	2023-01-03T00:00:00	2024-11-08T05:00:00	8	Radiación solar	0
39521	7	Sololá	717	San Juan la Laguna	12	San Juan la Laguna	3	Marzo	2023-01-03T00:00:00	2024-11-08T06:00:00	2	Temperatura media	12.3
39522	7	Sololá	717	San Juan la Laguna	12	San Juan la Laguna	3	Marzo	2023-01-03T00:00:00	2024-11-08T06:00:00	4	Temperatura máxima	12.8
39523	7	Sololá	717	San Juan la Laguna	12	San Juan la Laguna	3	Marzo	2023-01-03T00:00:00	2024-11-08T06:00:00	3	Temperatura mínima	12.2
39524	7	Sololá	717	San Juan la Laguna	12	San Juan la Laguna	3	Marzo	2023-01-03T00:00:00	2024-11-08T06:00:00	5	Humedad	81
39525	7	Sololá	717	San Juan la Laguna	12	San Juan la Laguna	3	Marzo	2023-01-03T00:00:00	2024-11-08T06:00:00	6	Velocidad del viento	1.6
39526	7	Sololá	717	San Juan la Laguna	12	San Juan la Laguna	3	Marzo	2023-01-03T00:00:00	2024-11-08T06:00:00	7	Dirección del viento	1.61
39527	7	Sololá	717	San Juan la Laguna	12	San Juan la Laguna	3	Marzo	2023-01-03T00:00:00	2024-11-08T06:00:00	1	Precipitación	0
39528	7	Sololá	717	San Juan la Laguna	12	San Juan la Laguna	3	Marzo	2023-01-03T00:00:00	2024-11-08T06:00:00	8	Radiación solar	0
39529	7	Sololá	717	San Juan la Laguna	12	San Juan la Laguna	3	Marzo	2023-01-03T00:00:00	2024-11-08T07:00:00	2	Temperatura media	12.4
39530	7	Sololá	717	San Juan la Laguna	12	San Juan la Laguna	3	Marzo	2023-01-03T00:00:00	2024-11-08T07:00:00	4	Temperatura máxima	12.5
39531	7	Sololá	717	San Juan la Laguna	12	San Juan la Laguna	3	Marzo	2023-01-03T00:00:00	2024-11-08T07:00:00	3	Temperatura mínima	12.2
39532	7	Sololá	717	San Juan la Laguna	12	San Juan la Laguna	3	Marzo	2023-01-03T00:00:00	2024-11-08T07:00:00	5	Humedad	80
39533	7	Sololá	717	San Juan la Laguna	12	San Juan la Laguna	3	Marzo	2023-01-03T00:00:00	2024-11-08T07:00:00	6	Velocidad del viento	1.6
39534	7	Sololá	717	San Juan la Laguna	12	San Juan la Laguna	3	Marzo	2023-01-03T00:00:00	2024-11-08T07:00:00	7	Dirección del viento	1.61
39535	7	Sololá	717	San Juan la Laguna	12	San Juan la Laguna	3	Marzo	2023-01-03T00:00:00	2024-11-08T07:00:00	1	Precipitación	0
39536	7	Sololá	717	San Juan la Laguna	12	San Juan la Laguna	3	Marzo	2023-01-03T00:00:00	2024-11-08T07:00:00	8	Radiación solar	15
39537	7	Sololá	717	San Juan la Laguna	12	San Juan la Laguna	3	Marzo	2023-01-03T00:00:00	2024-11-08T08:00:00	2	Temperatura media	16.7
39538	7	Sololá	717	San Juan la Laguna	12	San Juan la Laguna	3	Marzo	2023-01-03T00:00:00	2024-11-08T08:00:00	4	Temperatura máxima	16.7
39539	7	Sololá	717	San Juan la Laguna	12	San Juan la Laguna	3	Marzo	2023-01-03T00:00:00	2024-11-08T08:00:00	3	Temperatura mínima	12.4
39540	7	Sololá	717	San Juan la Laguna	12	San Juan la Laguna	3	Marzo	2023-01-03T00:00:00	2024-11-08T08:00:00	5	Humedad	72
39541	7	Sololá	717	San Juan la Laguna	12	San Juan la Laguna	3	Marzo	2023-01-03T00:00:00	2024-11-08T08:00:00	6	Velocidad del viento	0
39542	7	Sololá	717	San Juan la Laguna	12	San Juan la Laguna	3	Marzo	2023-01-03T00:00:00	2024-11-08T08:00:00	7	Dirección del viento	0
39543	7	Sololá	717	San Juan la Laguna	12	San Juan la Laguna	3	Marzo	2023-01-03T00:00:00	2024-11-08T08:00:00	1	Precipitación	0
39544	7	Sololá	717	San Juan la Laguna	12	San Juan la Laguna	3	Marzo	2023-01-03T00:00:00	2024-11-08T08:00:00	8	Radiación solar	161
39545	7	Sololá	717	San Juan la Laguna	12	San Juan la Laguna	3	Marzo	2023-01-03T00:00:00	2024-11-08T09:00:00	2	Temperatura media	18.4
39546	7	Sololá	717	San Juan la Laguna	12	San Juan la Laguna	3	Marzo	2023-01-03T00:00:00	2024-11-08T09:00:00	4	Temperatura máxima	18.8
39547	7	Sololá	717	San Juan la Laguna	12	San Juan la Laguna	3	Marzo	2023-01-03T00:00:00	2024-11-08T09:00:00	3	Temperatura mínima	16.7
39548	7	Sololá	717	San Juan la Laguna	12	San Juan la Laguna	3	Marzo	2023-01-03T00:00:00	2024-11-08T09:00:00	5	Humedad	72
39549	7	Sololá	717	San Juan la Laguna	12	San Juan la Laguna	3	Marzo	2023-01-03T00:00:00	2024-11-08T09:00:00	6	Velocidad del viento	0
39550	7	Sololá	717	San Juan la Laguna	12	San Juan la Laguna	3	Marzo	2023-01-03T00:00:00	2024-11-08T09:00:00	7	Dirección del viento	0
39551	7	Sololá	717	San Juan la Laguna	12	San Juan la Laguna	3	Marzo	2023-01-03T00:00:00	2024-11-08T09:00:00	1	Precipitación	0
39552	7	Sololá	717	San Juan la Laguna	12	San Juan la Laguna	3	Marzo	2023-01-03T00:00:00	2024-11-08T09:00:00	8	Radiación solar	420
39553	7	Sololá	717	San Juan la Laguna	12	San Juan la Laguna	3	Marzo	2023-01-03T00:00:00	2024-11-08T10:00:00	2	Temperatura media	20.1
39554	7	Sololá	717	San Juan la Laguna	12	San Juan la Laguna	3	Marzo	2023-01-03T00:00:00	2024-11-08T10:00:00	4	Temperatura máxima	20.1
39555	7	Sololá	717	San Juan la Laguna	12	San Juan la Laguna	3	Marzo	2023-01-03T00:00:00	2024-11-08T10:00:00	3	Temperatura mínima	18.4
39556	7	Sololá	717	San Juan la Laguna	12	San Juan la Laguna	3	Marzo	2023-01-03T00:00:00	2024-11-08T10:00:00	5	Humedad	66
39557	7	Sololá	717	San Juan la Laguna	12	San Juan la Laguna	3	Marzo	2023-01-03T00:00:00	2024-11-08T10:00:00	6	Velocidad del viento	3.2
39558	7	Sololá	717	San Juan la Laguna	12	San Juan la Laguna	3	Marzo	2023-01-03T00:00:00	2024-11-08T10:00:00	7	Dirección del viento	3.22
39559	7	Sololá	717	San Juan la Laguna	12	San Juan la Laguna	3	Marzo	2023-01-03T00:00:00	2024-11-08T10:00:00	1	Precipitación	0
39560	7	Sololá	717	San Juan la Laguna	12	San Juan la Laguna	3	Marzo	2023-01-03T00:00:00	2024-11-08T10:00:00	8	Radiación solar	629
39561	7	Sololá	717	San Juan la Laguna	12	San Juan la Laguna	3	Marzo	2023-01-03T00:00:00	2024-11-08T11:00:00	2	Temperatura media	20.9
39562	7	Sololá	717	San Juan la Laguna	12	San Juan la Laguna	3	Marzo	2023-01-03T00:00:00	2024-11-08T11:00:00	4	Temperatura máxima	21.1
39563	7	Sololá	717	San Juan la Laguna	12	San Juan la Laguna	3	Marzo	2023-01-03T00:00:00	2024-11-08T11:00:00	3	Temperatura mínima	20.1
39564	7	Sololá	717	San Juan la Laguna	12	San Juan la Laguna	3	Marzo	2023-01-03T00:00:00	2024-11-08T11:00:00	5	Humedad	63
39565	7	Sololá	717	San Juan la Laguna	12	San Juan la Laguna	3	Marzo	2023-01-03T00:00:00	2024-11-08T11:00:00	6	Velocidad del viento	4.8
39566	7	Sololá	717	San Juan la Laguna	12	San Juan la Laguna	3	Marzo	2023-01-03T00:00:00	2024-11-08T11:00:00	7	Dirección del viento	4.83
39567	7	Sololá	717	San Juan la Laguna	12	San Juan la Laguna	3	Marzo	2023-01-03T00:00:00	2024-11-08T11:00:00	1	Precipitación	0
39568	7	Sololá	717	San Juan la Laguna	12	San Juan la Laguna	3	Marzo	2023-01-03T00:00:00	2024-11-08T11:00:00	8	Radiación solar	787
39569	7	Sololá	717	San Juan la Laguna	12	San Juan la Laguna	3	Marzo	2023-01-03T00:00:00	2024-11-08T12:00:00	2	Temperatura media	22.6
39570	7	Sololá	717	San Juan la Laguna	12	San Juan la Laguna	3	Marzo	2023-01-03T00:00:00	2024-11-08T12:00:00	4	Temperatura máxima	22.6
39571	7	Sololá	717	San Juan la Laguna	12	San Juan la Laguna	3	Marzo	2023-01-03T00:00:00	2024-11-08T12:00:00	3	Temperatura mínima	20.9
39572	7	Sololá	717	San Juan la Laguna	12	San Juan la Laguna	3	Marzo	2023-01-03T00:00:00	2024-11-08T12:00:00	5	Humedad	62
39573	7	Sololá	717	San Juan la Laguna	12	San Juan la Laguna	3	Marzo	2023-01-03T00:00:00	2024-11-08T12:00:00	6	Velocidad del viento	4.8
39574	7	Sololá	717	San Juan la Laguna	12	San Juan la Laguna	3	Marzo	2023-01-03T00:00:00	2024-11-08T12:00:00	7	Dirección del viento	4.83
39575	7	Sololá	717	San Juan la Laguna	12	San Juan la Laguna	3	Marzo	2023-01-03T00:00:00	2024-11-08T12:00:00	1	Precipitación	0
39576	7	Sololá	717	San Juan la Laguna	12	San Juan la Laguna	3	Marzo	2023-01-03T00:00:00	2024-11-08T12:00:00	8	Radiación solar	793
39577	7	Sololá	717	San Juan la Laguna	12	San Juan la Laguna	3	Marzo	2023-01-03T00:00:00	2024-11-08T13:00:00	2	Temperatura media	22.8
39578	7	Sololá	717	San Juan la Laguna	12	San Juan la Laguna	3	Marzo	2023-01-03T00:00:00	2024-11-08T13:00:00	4	Temperatura máxima	23.7
39579	7	Sololá	717	San Juan la Laguna	12	San Juan la Laguna	3	Marzo	2023-01-03T00:00:00	2024-11-08T13:00:00	3	Temperatura mínima	22.6
39580	7	Sololá	717	San Juan la Laguna	12	San Juan la Laguna	3	Marzo	2023-01-03T00:00:00	2024-11-08T13:00:00	5	Humedad	67
39581	7	Sololá	717	San Juan la Laguna	12	San Juan la Laguna	3	Marzo	2023-01-03T00:00:00	2024-11-08T13:00:00	6	Velocidad del viento	8
39582	7	Sololá	717	San Juan la Laguna	12	San Juan la Laguna	3	Marzo	2023-01-03T00:00:00	2024-11-08T13:00:00	7	Dirección del viento	8.05
39583	7	Sololá	717	San Juan la Laguna	12	San Juan la Laguna	3	Marzo	2023-01-03T00:00:00	2024-11-08T13:00:00	1	Precipitación	0
39584	7	Sololá	717	San Juan la Laguna	12	San Juan la Laguna	3	Marzo	2023-01-03T00:00:00	2024-11-08T13:00:00	8	Radiación solar	873
39585	7	Sololá	717	San Juan la Laguna	12	San Juan la Laguna	3	Marzo	2023-01-03T00:00:00	2024-11-08T14:00:00	2	Temperatura media	22.8
39586	7	Sololá	717	San Juan la Laguna	12	San Juan la Laguna	3	Marzo	2023-01-03T00:00:00	2024-11-08T14:00:00	4	Temperatura máxima	23.1
39587	7	Sololá	717	San Juan la Laguna	12	San Juan la Laguna	3	Marzo	2023-01-03T00:00:00	2024-11-08T14:00:00	3	Temperatura mínima	22.5
39588	7	Sololá	717	San Juan la Laguna	12	San Juan la Laguna	3	Marzo	2023-01-03T00:00:00	2024-11-08T14:00:00	5	Humedad	68
39589	7	Sololá	717	San Juan la Laguna	12	San Juan la Laguna	3	Marzo	2023-01-03T00:00:00	2024-11-08T14:00:00	6	Velocidad del viento	11.3
39590	7	Sololá	717	San Juan la Laguna	12	San Juan la Laguna	3	Marzo	2023-01-03T00:00:00	2024-11-08T14:00:00	7	Dirección del viento	11.27
39591	7	Sololá	717	San Juan la Laguna	12	San Juan la Laguna	3	Marzo	2023-01-03T00:00:00	2024-11-08T14:00:00	1	Precipitación	0
39592	7	Sololá	717	San Juan la Laguna	12	San Juan la Laguna	3	Marzo	2023-01-03T00:00:00	2024-11-08T14:00:00	8	Radiación solar	853
39593	7	Sololá	717	San Juan la Laguna	12	San Juan la Laguna	3	Marzo	2023-01-03T00:00:00	2024-11-08T15:00:00	2	Temperatura media	22.7
39594	7	Sololá	717	San Juan la Laguna	12	San Juan la Laguna	3	Marzo	2023-01-03T00:00:00	2024-11-08T15:00:00	4	Temperatura máxima	22.8
39595	7	Sololá	717	San Juan la Laguna	12	San Juan la Laguna	3	Marzo	2023-01-03T00:00:00	2024-11-08T15:00:00	3	Temperatura mínima	22.1
39596	7	Sololá	717	San Juan la Laguna	12	San Juan la Laguna	3	Marzo	2023-01-03T00:00:00	2024-11-08T15:00:00	5	Humedad	68
39597	7	Sololá	717	San Juan la Laguna	12	San Juan la Laguna	3	Marzo	2023-01-03T00:00:00	2024-11-08T15:00:00	6	Velocidad del viento	11.3
39598	7	Sololá	717	San Juan la Laguna	12	San Juan la Laguna	3	Marzo	2023-01-03T00:00:00	2024-11-08T15:00:00	7	Dirección del viento	11.27
39599	7	Sololá	717	San Juan la Laguna	12	San Juan la Laguna	3	Marzo	2023-01-03T00:00:00	2024-11-08T15:00:00	1	Precipitación	0
39600	7	Sololá	717	San Juan la Laguna	12	San Juan la Laguna	3	Marzo	2023-01-03T00:00:00	2024-11-08T15:00:00	8	Radiación solar	764
39601	7	Sololá	717	San Juan la Laguna	12	San Juan la Laguna	3	Marzo	2023-01-03T00:00:00	2024-11-08T16:00:00	2	Temperatura media	22.5
39602	7	Sololá	717	San Juan la Laguna	12	San Juan la Laguna	3	Marzo	2023-01-03T00:00:00	2024-11-08T16:00:00	4	Temperatura máxima	23.5
39603	7	Sololá	717	San Juan la Laguna	12	San Juan la Laguna	3	Marzo	2023-01-03T00:00:00	2024-11-08T16:00:00	3	Temperatura mínima	22.5
39604	7	Sololá	717	San Juan la Laguna	12	San Juan la Laguna	3	Marzo	2023-01-03T00:00:00	2024-11-08T16:00:00	5	Humedad	69
39605	7	Sololá	717	San Juan la Laguna	12	San Juan la Laguna	3	Marzo	2023-01-03T00:00:00	2024-11-08T16:00:00	6	Velocidad del viento	8
39606	7	Sololá	717	San Juan la Laguna	12	San Juan la Laguna	3	Marzo	2023-01-03T00:00:00	2024-11-08T16:00:00	7	Dirección del viento	8.05
39607	7	Sololá	717	San Juan la Laguna	12	San Juan la Laguna	3	Marzo	2023-01-03T00:00:00	2024-11-08T16:00:00	1	Precipitación	0
39608	7	Sololá	717	San Juan la Laguna	12	San Juan la Laguna	3	Marzo	2023-01-03T00:00:00	2024-11-08T16:00:00	8	Radiación solar	574
39609	7	Sololá	717	San Juan la Laguna	12	San Juan la Laguna	3	Marzo	2023-01-03T00:00:00	2024-11-08T17:00:00	2	Temperatura media	20.8
39610	7	Sololá	717	San Juan la Laguna	12	San Juan la Laguna	3	Marzo	2023-01-03T00:00:00	2024-11-08T17:00:00	4	Temperatura máxima	22.5
39611	7	Sololá	717	San Juan la Laguna	12	San Juan la Laguna	3	Marzo	2023-01-03T00:00:00	2024-11-08T17:00:00	3	Temperatura mínima	20.8
39612	7	Sololá	717	San Juan la Laguna	12	San Juan la Laguna	3	Marzo	2023-01-03T00:00:00	2024-11-08T17:00:00	5	Humedad	76
39613	7	Sololá	717	San Juan la Laguna	12	San Juan la Laguna	3	Marzo	2023-01-03T00:00:00	2024-11-08T17:00:00	6	Velocidad del viento	6.4
39614	7	Sololá	717	San Juan la Laguna	12	San Juan la Laguna	3	Marzo	2023-01-03T00:00:00	2024-11-08T17:00:00	7	Dirección del viento	6.44
39615	7	Sololá	717	San Juan la Laguna	12	San Juan la Laguna	3	Marzo	2023-01-03T00:00:00	2024-11-08T17:00:00	1	Precipitación	0
39616	7	Sololá	717	San Juan la Laguna	12	San Juan la Laguna	3	Marzo	2023-01-03T00:00:00	2024-11-08T17:00:00	8	Radiación solar	221
39617	7	Sololá	717	San Juan la Laguna	12	San Juan la Laguna	3	Marzo	2023-01-03T00:00:00	2024-11-08T18:00:00	2	Temperatura media	19.9
39618	7	Sololá	717	San Juan la Laguna	12	San Juan la Laguna	3	Marzo	2023-01-03T00:00:00	2024-11-08T18:00:00	4	Temperatura máxima	20.8
39619	7	Sololá	717	San Juan la Laguna	12	San Juan la Laguna	3	Marzo	2023-01-03T00:00:00	2024-11-08T18:00:00	3	Temperatura mínima	19.9
39620	7	Sololá	717	San Juan la Laguna	12	San Juan la Laguna	3	Marzo	2023-01-03T00:00:00	2024-11-08T18:00:00	5	Humedad	79
39621	7	Sololá	717	San Juan la Laguna	12	San Juan la Laguna	3	Marzo	2023-01-03T00:00:00	2024-11-08T18:00:00	6	Velocidad del viento	3.2
39622	7	Sololá	717	San Juan la Laguna	12	San Juan la Laguna	3	Marzo	2023-01-03T00:00:00	2024-11-08T18:00:00	7	Dirección del viento	3.22
39623	7	Sololá	717	San Juan la Laguna	12	San Juan la Laguna	3	Marzo	2023-01-03T00:00:00	2024-11-08T18:00:00	1	Precipitación	0
39624	7	Sololá	717	San Juan la Laguna	12	San Juan la Laguna	3	Marzo	2023-01-03T00:00:00	2024-11-08T18:00:00	8	Radiación solar	52
39625	7	Sololá	717	San Juan la Laguna	12	San Juan la Laguna	3	Marzo	2023-01-03T00:00:00	2024-11-08T19:00:00	2	Temperatura media	18.9
39626	7	Sololá	717	San Juan la Laguna	12	San Juan la Laguna	3	Marzo	2023-01-03T00:00:00	2024-11-08T19:00:00	4	Temperatura máxima	19.9
39627	7	Sololá	717	San Juan la Laguna	12	San Juan la Laguna	3	Marzo	2023-01-03T00:00:00	2024-11-08T19:00:00	3	Temperatura mínima	18.9
39628	7	Sololá	717	San Juan la Laguna	12	San Juan la Laguna	3	Marzo	2023-01-03T00:00:00	2024-11-08T19:00:00	5	Humedad	82
39629	7	Sololá	717	San Juan la Laguna	12	San Juan la Laguna	3	Marzo	2023-01-03T00:00:00	2024-11-08T19:00:00	6	Velocidad del viento	3.2
39630	7	Sololá	717	San Juan la Laguna	12	San Juan la Laguna	3	Marzo	2023-01-03T00:00:00	2024-11-08T19:00:00	7	Dirección del viento	3.22
39631	7	Sololá	717	San Juan la Laguna	12	San Juan la Laguna	3	Marzo	2023-01-03T00:00:00	2024-11-08T19:00:00	1	Precipitación	0
39632	7	Sololá	717	San Juan la Laguna	12	San Juan la Laguna	3	Marzo	2023-01-03T00:00:00	2024-11-08T19:00:00	8	Radiación solar	0
39633	7	Sololá	717	San Juan la Laguna	12	San Juan la Laguna	3	Marzo	2023-01-03T00:00:00	2024-11-08T20:00:00	2	Temperatura media	18.5
39634	7	Sololá	717	San Juan la Laguna	12	San Juan la Laguna	3	Marzo	2023-01-03T00:00:00	2024-11-08T20:00:00	4	Temperatura máxima	18.9
39635	7	Sololá	717	San Juan la Laguna	12	San Juan la Laguna	3	Marzo	2023-01-03T00:00:00	2024-11-08T20:00:00	3	Temperatura mínima	18.3
39636	7	Sololá	717	San Juan la Laguna	12	San Juan la Laguna	3	Marzo	2023-01-03T00:00:00	2024-11-08T20:00:00	5	Humedad	81
39637	7	Sololá	717	San Juan la Laguna	12	San Juan la Laguna	3	Marzo	2023-01-03T00:00:00	2024-11-08T20:00:00	6	Velocidad del viento	1.6
39638	7	Sololá	717	San Juan la Laguna	12	San Juan la Laguna	3	Marzo	2023-01-03T00:00:00	2024-11-08T20:00:00	7	Dirección del viento	1.61
39639	7	Sololá	717	San Juan la Laguna	12	San Juan la Laguna	3	Marzo	2023-01-03T00:00:00	2024-11-08T20:00:00	1	Precipitación	0
39640	7	Sololá	717	San Juan la Laguna	12	San Juan la Laguna	3	Marzo	2023-01-03T00:00:00	2024-11-08T20:00:00	8	Radiación solar	0
39641	7	Sololá	717	San Juan la Laguna	12	San Juan la Laguna	3	Marzo	2023-01-03T00:00:00	2024-11-08T21:00:00	2	Temperatura media	17.4
39642	7	Sololá	717	San Juan la Laguna	12	San Juan la Laguna	3	Marzo	2023-01-03T00:00:00	2024-11-08T21:00:00	4	Temperatura máxima	18.5
39643	7	Sololá	717	San Juan la Laguna	12	San Juan la Laguna	3	Marzo	2023-01-03T00:00:00	2024-11-08T21:00:00	3	Temperatura mínima	17.4
39644	7	Sololá	717	San Juan la Laguna	12	San Juan la Laguna	3	Marzo	2023-01-03T00:00:00	2024-11-08T21:00:00	5	Humedad	83
39645	7	Sololá	717	San Juan la Laguna	12	San Juan la Laguna	3	Marzo	2023-01-03T00:00:00	2024-11-08T21:00:00	6	Velocidad del viento	3.2
39646	7	Sololá	717	San Juan la Laguna	12	San Juan la Laguna	3	Marzo	2023-01-03T00:00:00	2024-11-08T21:00:00	7	Dirección del viento	3.22
39647	7	Sololá	717	San Juan la Laguna	12	San Juan la Laguna	3	Marzo	2023-01-03T00:00:00	2024-11-08T21:00:00	1	Precipitación	0
39648	7	Sololá	717	San Juan la Laguna	12	San Juan la Laguna	3	Marzo	2023-01-03T00:00:00	2024-11-08T21:00:00	8	Radiación solar	0
39649	7	Sololá	717	San Juan la Laguna	12	San Juan la Laguna	3	Marzo	2023-01-03T00:00:00	2024-11-08T22:00:00	2	Temperatura media	16.8
39650	7	Sololá	717	San Juan la Laguna	12	San Juan la Laguna	3	Marzo	2023-01-03T00:00:00	2024-11-08T22:00:00	4	Temperatura máxima	17.4
39651	7	Sololá	717	San Juan la Laguna	12	San Juan la Laguna	3	Marzo	2023-01-03T00:00:00	2024-11-08T22:00:00	3	Temperatura mínima	16.8
39652	7	Sololá	717	San Juan la Laguna	12	San Juan la Laguna	3	Marzo	2023-01-03T00:00:00	2024-11-08T22:00:00	5	Humedad	84
39653	7	Sololá	717	San Juan la Laguna	12	San Juan la Laguna	3	Marzo	2023-01-03T00:00:00	2024-11-08T22:00:00	6	Velocidad del viento	3.2
39654	7	Sololá	717	San Juan la Laguna	12	San Juan la Laguna	3	Marzo	2023-01-03T00:00:00	2024-11-08T22:00:00	7	Dirección del viento	3.22
39655	7	Sololá	717	San Juan la Laguna	12	San Juan la Laguna	3	Marzo	2023-01-03T00:00:00	2024-11-08T22:00:00	1	Precipitación	0
39656	7	Sololá	717	San Juan la Laguna	12	San Juan la Laguna	3	Marzo	2023-01-03T00:00:00	2024-11-08T22:00:00	8	Radiación solar	0
39657	7	Sololá	717	San Juan la Laguna	12	San Juan la Laguna	3	Marzo	2023-01-03T00:00:00	2024-11-08T23:00:00	2	Temperatura media	16.3
39658	7	Sololá	717	San Juan la Laguna	12	San Juan la Laguna	3	Marzo	2023-01-03T00:00:00	2024-11-08T23:00:00	4	Temperatura máxima	16.8
39659	7	Sololá	717	San Juan la Laguna	12	San Juan la Laguna	3	Marzo	2023-01-03T00:00:00	2024-11-08T23:00:00	3	Temperatura mínima	15.9
39660	7	Sololá	717	San Juan la Laguna	12	San Juan la Laguna	3	Marzo	2023-01-03T00:00:00	2024-11-08T23:00:00	5	Humedad	84
39661	7	Sololá	717	San Juan la Laguna	12	San Juan la Laguna	3	Marzo	2023-01-03T00:00:00	2024-11-08T23:00:00	6	Velocidad del viento	1.6
39662	7	Sololá	717	San Juan la Laguna	12	San Juan la Laguna	3	Marzo	2023-01-03T00:00:00	2024-11-08T23:00:00	7	Dirección del viento	1.61
39663	7	Sololá	717	San Juan la Laguna	12	San Juan la Laguna	3	Marzo	2023-01-03T00:00:00	2024-11-08T23:00:00	1	Precipitación	0
39664	7	Sololá	717	San Juan la Laguna	12	San Juan la Laguna	3	Marzo	2023-01-03T00:00:00	2024-11-08T23:00:00	8	Radiación solar	0
39665	7	Sololá	717	San Juan la Laguna	12	San Juan la Laguna	3	Marzo	2023-02-03T00:00:00	2024-11-08T00:00:00	2	Temperatura media	15.8
39666	7	Sololá	717	San Juan la Laguna	12	San Juan la Laguna	3	Marzo	2023-02-03T00:00:00	2024-11-08T00:00:00	4	Temperatura máxima	16.6
39667	7	Sololá	717	San Juan la Laguna	12	San Juan la Laguna	3	Marzo	2023-02-03T00:00:00	2024-11-08T00:00:00	3	Temperatura mínima	15.8
39668	7	Sololá	717	San Juan la Laguna	12	San Juan la Laguna	3	Marzo	2023-02-03T00:00:00	2024-11-08T00:00:00	5	Humedad	87
39669	7	Sololá	717	San Juan la Laguna	12	San Juan la Laguna	3	Marzo	2023-02-03T00:00:00	2024-11-08T00:00:00	6	Velocidad del viento	1.6
39670	7	Sololá	717	San Juan la Laguna	12	San Juan la Laguna	3	Marzo	2023-02-03T00:00:00	2024-11-08T00:00:00	7	Dirección del viento	1.61
39671	7	Sololá	717	San Juan la Laguna	12	San Juan la Laguna	3	Marzo	2023-02-03T00:00:00	2024-11-08T00:00:00	1	Precipitación	0
39672	7	Sololá	717	San Juan la Laguna	12	San Juan la Laguna	3	Marzo	2023-02-03T00:00:00	2024-11-08T00:00:00	8	Radiación solar	0
39673	7	Sololá	717	San Juan la Laguna	12	San Juan la Laguna	3	Marzo	2023-02-03T00:00:00	2024-11-08T01:00:00	2	Temperatura media	16.4
39674	7	Sololá	717	San Juan la Laguna	12	San Juan la Laguna	3	Marzo	2023-02-03T00:00:00	2024-11-08T01:00:00	4	Temperatura máxima	16.5
39675	7	Sololá	717	San Juan la Laguna	12	San Juan la Laguna	3	Marzo	2023-02-03T00:00:00	2024-11-08T01:00:00	3	Temperatura mínima	15.7
39676	7	Sololá	717	San Juan la Laguna	12	San Juan la Laguna	3	Marzo	2023-02-03T00:00:00	2024-11-08T01:00:00	5	Humedad	86
39677	7	Sololá	717	San Juan la Laguna	12	San Juan la Laguna	3	Marzo	2023-02-03T00:00:00	2024-11-08T01:00:00	6	Velocidad del viento	1.6
39678	7	Sololá	717	San Juan la Laguna	12	San Juan la Laguna	3	Marzo	2023-02-03T00:00:00	2024-11-08T01:00:00	7	Dirección del viento	1.61
39679	7	Sololá	717	San Juan la Laguna	12	San Juan la Laguna	3	Marzo	2023-02-03T00:00:00	2024-11-08T01:00:00	1	Precipitación	0
39680	7	Sololá	717	San Juan la Laguna	12	San Juan la Laguna	3	Marzo	2023-02-03T00:00:00	2024-11-08T01:00:00	8	Radiación solar	0
39681	7	Sololá	717	San Juan la Laguna	12	San Juan la Laguna	3	Marzo	2023-02-03T00:00:00	2024-11-08T02:00:00	2	Temperatura media	15.9
39682	7	Sololá	717	San Juan la Laguna	12	San Juan la Laguna	3	Marzo	2023-02-03T00:00:00	2024-11-08T02:00:00	4	Temperatura máxima	16.4
39683	7	Sololá	717	San Juan la Laguna	12	San Juan la Laguna	3	Marzo	2023-02-03T00:00:00	2024-11-08T02:00:00	3	Temperatura mínima	15.9
39684	7	Sololá	717	San Juan la Laguna	12	San Juan la Laguna	3	Marzo	2023-02-03T00:00:00	2024-11-08T02:00:00	5	Humedad	87
39685	7	Sololá	717	San Juan la Laguna	12	San Juan la Laguna	3	Marzo	2023-02-03T00:00:00	2024-11-08T02:00:00	6	Velocidad del viento	3.2
39686	7	Sololá	717	San Juan la Laguna	12	San Juan la Laguna	3	Marzo	2023-02-03T00:00:00	2024-11-08T02:00:00	7	Dirección del viento	3.22
39687	7	Sololá	717	San Juan la Laguna	12	San Juan la Laguna	3	Marzo	2023-02-03T00:00:00	2024-11-08T02:00:00	1	Precipitación	0
39688	7	Sololá	717	San Juan la Laguna	12	San Juan la Laguna	3	Marzo	2023-02-03T00:00:00	2024-11-08T02:00:00	8	Radiación solar	0
39689	7	Sololá	717	San Juan la Laguna	12	San Juan la Laguna	3	Marzo	2023-02-03T00:00:00	2024-11-08T03:00:00	2	Temperatura media	14.8
39690	7	Sololá	717	San Juan la Laguna	12	San Juan la Laguna	3	Marzo	2023-02-03T00:00:00	2024-11-08T03:00:00	4	Temperatura máxima	15.9
39691	7	Sololá	717	San Juan la Laguna	12	San Juan la Laguna	3	Marzo	2023-02-03T00:00:00	2024-11-08T03:00:00	3	Temperatura mínima	14.8
39692	7	Sololá	717	San Juan la Laguna	12	San Juan la Laguna	3	Marzo	2023-02-03T00:00:00	2024-11-08T03:00:00	5	Humedad	88
39693	7	Sololá	717	San Juan la Laguna	12	San Juan la Laguna	3	Marzo	2023-02-03T00:00:00	2024-11-08T03:00:00	6	Velocidad del viento	1.6
39694	7	Sololá	717	San Juan la Laguna	12	San Juan la Laguna	3	Marzo	2023-02-03T00:00:00	2024-11-08T03:00:00	7	Dirección del viento	1.61
39695	7	Sololá	717	San Juan la Laguna	12	San Juan la Laguna	3	Marzo	2023-02-03T00:00:00	2024-11-08T03:00:00	1	Precipitación	0
39696	7	Sololá	717	San Juan la Laguna	12	San Juan la Laguna	3	Marzo	2023-02-03T00:00:00	2024-11-08T03:00:00	8	Radiación solar	0
39697	7	Sololá	717	San Juan la Laguna	12	San Juan la Laguna	3	Marzo	2023-02-03T00:00:00	2024-11-08T04:00:00	2	Temperatura media	14.6
39698	7	Sololá	717	San Juan la Laguna	12	San Juan la Laguna	3	Marzo	2023-02-03T00:00:00	2024-11-08T04:00:00	4	Temperatura máxima	14.8
39699	7	Sololá	717	San Juan la Laguna	12	San Juan la Laguna	3	Marzo	2023-02-03T00:00:00	2024-11-08T04:00:00	3	Temperatura mínima	14.5
39700	7	Sololá	717	San Juan la Laguna	12	San Juan la Laguna	3	Marzo	2023-02-03T00:00:00	2024-11-08T04:00:00	5	Humedad	87
39701	7	Sololá	717	San Juan la Laguna	12	San Juan la Laguna	3	Marzo	2023-02-03T00:00:00	2024-11-08T04:00:00	6	Velocidad del viento	1.6
39702	7	Sololá	717	San Juan la Laguna	12	San Juan la Laguna	3	Marzo	2023-02-03T00:00:00	2024-11-08T04:00:00	7	Dirección del viento	1.61
39703	7	Sololá	717	San Juan la Laguna	12	San Juan la Laguna	3	Marzo	2023-02-03T00:00:00	2024-11-08T04:00:00	1	Precipitación	0
39704	7	Sololá	717	San Juan la Laguna	12	San Juan la Laguna	3	Marzo	2023-02-03T00:00:00	2024-11-08T04:00:00	8	Radiación solar	0
39705	7	Sololá	717	San Juan la Laguna	12	San Juan la Laguna	3	Marzo	2023-02-03T00:00:00	2024-11-08T05:00:00	2	Temperatura media	14.9
39706	7	Sololá	717	San Juan la Laguna	12	San Juan la Laguna	3	Marzo	2023-02-03T00:00:00	2024-11-08T05:00:00	4	Temperatura máxima	15.3
39707	7	Sololá	717	San Juan la Laguna	12	San Juan la Laguna	3	Marzo	2023-02-03T00:00:00	2024-11-08T05:00:00	3	Temperatura mínima	14.6
39708	7	Sololá	717	San Juan la Laguna	12	San Juan la Laguna	3	Marzo	2023-02-03T00:00:00	2024-11-08T05:00:00	5	Humedad	87
39709	7	Sololá	717	San Juan la Laguna	12	San Juan la Laguna	3	Marzo	2023-02-03T00:00:00	2024-11-08T05:00:00	6	Velocidad del viento	3.2
39710	7	Sololá	717	San Juan la Laguna	12	San Juan la Laguna	3	Marzo	2023-02-03T00:00:00	2024-11-08T05:00:00	7	Dirección del viento	3.22
39711	7	Sololá	717	San Juan la Laguna	12	San Juan la Laguna	3	Marzo	2023-02-03T00:00:00	2024-11-08T05:00:00	1	Precipitación	0
39712	7	Sololá	717	San Juan la Laguna	12	San Juan la Laguna	3	Marzo	2023-02-03T00:00:00	2024-11-08T05:00:00	8	Radiación solar	0
39713	7	Sololá	717	San Juan la Laguna	12	San Juan la Laguna	3	Marzo	2023-02-03T00:00:00	2024-11-08T06:00:00	2	Temperatura media	15.1
39714	7	Sololá	717	San Juan la Laguna	12	San Juan la Laguna	3	Marzo	2023-02-03T00:00:00	2024-11-08T06:00:00	4	Temperatura máxima	15.2
39715	7	Sololá	717	San Juan la Laguna	12	San Juan la Laguna	3	Marzo	2023-02-03T00:00:00	2024-11-08T06:00:00	3	Temperatura mínima	14.8
39716	7	Sololá	717	San Juan la Laguna	12	San Juan la Laguna	3	Marzo	2023-02-03T00:00:00	2024-11-08T06:00:00	5	Humedad	87
39717	7	Sololá	717	San Juan la Laguna	12	San Juan la Laguna	3	Marzo	2023-02-03T00:00:00	2024-11-08T06:00:00	6	Velocidad del viento	0
39718	7	Sololá	717	San Juan la Laguna	12	San Juan la Laguna	3	Marzo	2023-02-03T00:00:00	2024-11-08T06:00:00	7	Dirección del viento	0
39719	7	Sololá	717	San Juan la Laguna	12	San Juan la Laguna	3	Marzo	2023-02-03T00:00:00	2024-11-08T06:00:00	1	Precipitación	0
39720	7	Sololá	717	San Juan la Laguna	12	San Juan la Laguna	3	Marzo	2023-02-03T00:00:00	2024-11-08T06:00:00	8	Radiación solar	0
39721	7	Sololá	717	San Juan la Laguna	12	San Juan la Laguna	3	Marzo	2023-02-03T00:00:00	2024-11-08T07:00:00	2	Temperatura media	15.3
39722	7	Sololá	717	San Juan la Laguna	12	San Juan la Laguna	3	Marzo	2023-02-03T00:00:00	2024-11-08T07:00:00	4	Temperatura máxima	15.3
39723	7	Sololá	717	San Juan la Laguna	12	San Juan la Laguna	3	Marzo	2023-02-03T00:00:00	2024-11-08T07:00:00	3	Temperatura mínima	15.1
39724	7	Sololá	717	San Juan la Laguna	12	San Juan la Laguna	3	Marzo	2023-02-03T00:00:00	2024-11-08T07:00:00	5	Humedad	86
39725	7	Sololá	717	San Juan la Laguna	12	San Juan la Laguna	3	Marzo	2023-02-03T00:00:00	2024-11-08T07:00:00	6	Velocidad del viento	0
39726	7	Sololá	717	San Juan la Laguna	12	San Juan la Laguna	3	Marzo	2023-02-03T00:00:00	2024-11-08T07:00:00	7	Dirección del viento	0
39727	7	Sololá	717	San Juan la Laguna	12	San Juan la Laguna	3	Marzo	2023-02-03T00:00:00	2024-11-08T07:00:00	1	Precipitación	0
39728	7	Sololá	717	San Juan la Laguna	12	San Juan la Laguna	3	Marzo	2023-02-03T00:00:00	2024-11-08T07:00:00	8	Radiación solar	17
39729	7	Sololá	717	San Juan la Laguna	12	San Juan la Laguna	3	Marzo	2023-02-03T00:00:00	2024-11-08T08:00:00	2	Temperatura media	17.9
39730	7	Sololá	717	San Juan la Laguna	12	San Juan la Laguna	3	Marzo	2023-02-03T00:00:00	2024-11-08T08:00:00	4	Temperatura máxima	17.9
39731	7	Sololá	717	San Juan la Laguna	12	San Juan la Laguna	3	Marzo	2023-02-03T00:00:00	2024-11-08T08:00:00	3	Temperatura mínima	15.3
39732	7	Sololá	717	San Juan la Laguna	12	San Juan la Laguna	3	Marzo	2023-02-03T00:00:00	2024-11-08T08:00:00	5	Humedad	79
39733	7	Sololá	717	San Juan la Laguna	12	San Juan la Laguna	3	Marzo	2023-02-03T00:00:00	2024-11-08T08:00:00	6	Velocidad del viento	0
39734	7	Sololá	717	San Juan la Laguna	12	San Juan la Laguna	3	Marzo	2023-02-03T00:00:00	2024-11-08T08:00:00	7	Dirección del viento	0
39735	7	Sololá	717	San Juan la Laguna	12	San Juan la Laguna	3	Marzo	2023-02-03T00:00:00	2024-11-08T08:00:00	1	Precipitación	0
39736	7	Sololá	717	San Juan la Laguna	12	San Juan la Laguna	3	Marzo	2023-02-03T00:00:00	2024-11-08T08:00:00	8	Radiación solar	131
39737	7	Sololá	717	San Juan la Laguna	12	San Juan la Laguna	3	Marzo	2023-02-03T00:00:00	2024-11-08T09:00:00	2	Temperatura media	19.2
39738	7	Sololá	717	San Juan la Laguna	12	San Juan la Laguna	3	Marzo	2023-02-03T00:00:00	2024-11-08T09:00:00	4	Temperatura máxima	19.2
39739	7	Sololá	717	San Juan la Laguna	12	San Juan la Laguna	3	Marzo	2023-02-03T00:00:00	2024-11-08T09:00:00	3	Temperatura mínima	17.9
39740	7	Sololá	717	San Juan la Laguna	12	San Juan la Laguna	3	Marzo	2023-02-03T00:00:00	2024-11-08T09:00:00	5	Humedad	75
39741	7	Sololá	717	San Juan la Laguna	12	San Juan la Laguna	3	Marzo	2023-02-03T00:00:00	2024-11-08T09:00:00	6	Velocidad del viento	1.6
39742	7	Sololá	717	San Juan la Laguna	12	San Juan la Laguna	3	Marzo	2023-02-03T00:00:00	2024-11-08T09:00:00	7	Dirección del viento	1.61
39743	7	Sololá	717	San Juan la Laguna	12	San Juan la Laguna	3	Marzo	2023-02-03T00:00:00	2024-11-08T09:00:00	1	Precipitación	0
39744	7	Sololá	717	San Juan la Laguna	12	San Juan la Laguna	3	Marzo	2023-02-03T00:00:00	2024-11-08T09:00:00	8	Radiación solar	396
39745	7	Sololá	717	San Juan la Laguna	12	San Juan la Laguna	3	Marzo	2023-02-03T00:00:00	2024-11-08T10:00:00	2	Temperatura media	20.5
39746	7	Sololá	717	San Juan la Laguna	12	San Juan la Laguna	3	Marzo	2023-02-03T00:00:00	2024-11-08T10:00:00	4	Temperatura máxima	20.7
39747	7	Sololá	717	San Juan la Laguna	12	San Juan la Laguna	3	Marzo	2023-02-03T00:00:00	2024-11-08T10:00:00	3	Temperatura mínima	19.2
39748	7	Sololá	717	San Juan la Laguna	12	San Juan la Laguna	3	Marzo	2023-02-03T00:00:00	2024-11-08T10:00:00	5	Humedad	70
39749	7	Sololá	717	San Juan la Laguna	12	San Juan la Laguna	3	Marzo	2023-02-03T00:00:00	2024-11-08T10:00:00	6	Velocidad del viento	3.2
39750	7	Sololá	717	San Juan la Laguna	12	San Juan la Laguna	3	Marzo	2023-02-03T00:00:00	2024-11-08T10:00:00	7	Dirección del viento	3.22
39751	7	Sololá	717	San Juan la Laguna	12	San Juan la Laguna	3	Marzo	2023-02-03T00:00:00	2024-11-08T10:00:00	1	Precipitación	0
39752	7	Sololá	717	San Juan la Laguna	12	San Juan la Laguna	3	Marzo	2023-02-03T00:00:00	2024-11-08T10:00:00	8	Radiación solar	615
39753	7	Sololá	717	San Juan la Laguna	12	San Juan la Laguna	3	Marzo	2023-02-03T00:00:00	2024-11-08T11:00:00	2	Temperatura media	22.2
39754	7	Sololá	717	San Juan la Laguna	12	San Juan la Laguna	3	Marzo	2023-02-03T00:00:00	2024-11-08T11:00:00	4	Temperatura máxima	22.2
39755	7	Sololá	717	San Juan la Laguna	12	San Juan la Laguna	3	Marzo	2023-02-03T00:00:00	2024-11-08T11:00:00	3	Temperatura mínima	20.3
39756	7	Sololá	717	San Juan la Laguna	12	San Juan la Laguna	3	Marzo	2023-02-03T00:00:00	2024-11-08T11:00:00	5	Humedad	59
39757	7	Sololá	717	San Juan la Laguna	12	San Juan la Laguna	3	Marzo	2023-02-03T00:00:00	2024-11-08T11:00:00	6	Velocidad del viento	4.8
39758	7	Sololá	717	San Juan la Laguna	12	San Juan la Laguna	3	Marzo	2023-02-03T00:00:00	2024-11-08T11:00:00	7	Dirección del viento	4.83
39759	7	Sololá	717	San Juan la Laguna	12	San Juan la Laguna	3	Marzo	2023-02-03T00:00:00	2024-11-08T11:00:00	1	Precipitación	0
39760	7	Sololá	717	San Juan la Laguna	12	San Juan la Laguna	3	Marzo	2023-02-03T00:00:00	2024-11-08T11:00:00	8	Radiación solar	777
39761	7	Sololá	717	San Juan la Laguna	12	San Juan la Laguna	3	Marzo	2023-02-03T00:00:00	2024-11-08T12:00:00	2	Temperatura media	22.2
39762	7	Sololá	717	San Juan la Laguna	12	San Juan la Laguna	3	Marzo	2023-02-03T00:00:00	2024-11-08T12:00:00	4	Temperatura máxima	22.5
39763	7	Sololá	717	San Juan la Laguna	12	San Juan la Laguna	3	Marzo	2023-02-03T00:00:00	2024-11-08T12:00:00	3	Temperatura mínima	21.9
39764	7	Sololá	717	San Juan la Laguna	12	San Juan la Laguna	3	Marzo	2023-02-03T00:00:00	2024-11-08T12:00:00	5	Humedad	66
39765	7	Sololá	717	San Juan la Laguna	12	San Juan la Laguna	3	Marzo	2023-02-03T00:00:00	2024-11-08T12:00:00	6	Velocidad del viento	3.2
39766	7	Sololá	717	San Juan la Laguna	12	San Juan la Laguna	3	Marzo	2023-02-03T00:00:00	2024-11-08T12:00:00	7	Dirección del viento	3.22
39767	7	Sololá	717	San Juan la Laguna	12	San Juan la Laguna	3	Marzo	2023-02-03T00:00:00	2024-11-08T12:00:00	1	Precipitación	0
39768	7	Sololá	717	San Juan la Laguna	12	San Juan la Laguna	3	Marzo	2023-02-03T00:00:00	2024-11-08T12:00:00	8	Radiación solar	785
39769	7	Sololá	717	San Juan la Laguna	12	San Juan la Laguna	3	Marzo	2023-02-03T00:00:00	2024-11-08T13:00:00	2	Temperatura media	23.1
39770	7	Sololá	717	San Juan la Laguna	12	San Juan la Laguna	3	Marzo	2023-02-03T00:00:00	2024-11-08T13:00:00	4	Temperatura máxima	23.1
39771	7	Sololá	717	San Juan la Laguna	12	San Juan la Laguna	3	Marzo	2023-02-03T00:00:00	2024-11-08T13:00:00	3	Temperatura mínima	21.5
39772	7	Sololá	717	San Juan la Laguna	12	San Juan la Laguna	3	Marzo	2023-02-03T00:00:00	2024-11-08T13:00:00	5	Humedad	62
39773	7	Sololá	717	San Juan la Laguna	12	San Juan la Laguna	3	Marzo	2023-02-03T00:00:00	2024-11-08T13:00:00	6	Velocidad del viento	4.8
39774	7	Sololá	717	San Juan la Laguna	12	San Juan la Laguna	3	Marzo	2023-02-03T00:00:00	2024-11-08T13:00:00	7	Dirección del viento	4.83
39775	7	Sololá	717	San Juan la Laguna	12	San Juan la Laguna	3	Marzo	2023-02-03T00:00:00	2024-11-08T13:00:00	1	Precipitación	0
39776	7	Sololá	717	San Juan la Laguna	12	San Juan la Laguna	3	Marzo	2023-02-03T00:00:00	2024-11-08T13:00:00	8	Radiación solar	861
39777	7	Sololá	717	San Juan la Laguna	12	San Juan la Laguna	3	Marzo	2023-02-03T00:00:00	2024-11-08T14:00:00	2	Temperatura media	22.8
39778	7	Sololá	717	San Juan la Laguna	12	San Juan la Laguna	3	Marzo	2023-02-03T00:00:00	2024-11-08T14:00:00	4	Temperatura máxima	23.6
39779	7	Sololá	717	San Juan la Laguna	12	San Juan la Laguna	3	Marzo	2023-02-03T00:00:00	2024-11-08T14:00:00	3	Temperatura mínima	22.8
39780	7	Sololá	717	San Juan la Laguna	12	San Juan la Laguna	3	Marzo	2023-02-03T00:00:00	2024-11-08T14:00:00	5	Humedad	62
39781	7	Sololá	717	San Juan la Laguna	12	San Juan la Laguna	3	Marzo	2023-02-03T00:00:00	2024-11-08T14:00:00	6	Velocidad del viento	9.7
39782	7	Sololá	717	San Juan la Laguna	12	San Juan la Laguna	3	Marzo	2023-02-03T00:00:00	2024-11-08T14:00:00	7	Dirección del viento	9.66
39783	7	Sololá	717	San Juan la Laguna	12	San Juan la Laguna	3	Marzo	2023-02-03T00:00:00	2024-11-08T14:00:00	1	Precipitación	0
39784	7	Sololá	717	San Juan la Laguna	12	San Juan la Laguna	3	Marzo	2023-02-03T00:00:00	2024-11-08T14:00:00	8	Radiación solar	842
39785	7	Sololá	717	San Juan la Laguna	12	San Juan la Laguna	3	Marzo	2023-02-03T00:00:00	2024-11-08T15:00:00	2	Temperatura media	22.6
39786	7	Sololá	717	San Juan la Laguna	12	San Juan la Laguna	3	Marzo	2023-02-03T00:00:00	2024-11-08T15:00:00	4	Temperatura máxima	23.2
39787	7	Sololá	717	San Juan la Laguna	12	San Juan la Laguna	3	Marzo	2023-02-03T00:00:00	2024-11-08T15:00:00	3	Temperatura mínima	22.4
39788	7	Sololá	717	San Juan la Laguna	12	San Juan la Laguna	3	Marzo	2023-02-03T00:00:00	2024-11-08T15:00:00	5	Humedad	66
39789	7	Sololá	717	San Juan la Laguna	12	San Juan la Laguna	3	Marzo	2023-02-03T00:00:00	2024-11-08T15:00:00	6	Velocidad del viento	9.7
39790	7	Sololá	717	San Juan la Laguna	12	San Juan la Laguna	3	Marzo	2023-02-03T00:00:00	2024-11-08T15:00:00	7	Dirección del viento	9.66
39791	7	Sololá	717	San Juan la Laguna	12	San Juan la Laguna	3	Marzo	2023-02-03T00:00:00	2024-11-08T15:00:00	1	Precipitación	0
39792	7	Sololá	717	San Juan la Laguna	12	San Juan la Laguna	3	Marzo	2023-02-03T00:00:00	2024-11-08T15:00:00	8	Radiación solar	670
39793	7	Sololá	717	San Juan la Laguna	12	San Juan la Laguna	3	Marzo	2023-02-03T00:00:00	2024-11-08T16:00:00	2	Temperatura media	22.2
39794	7	Sololá	717	San Juan la Laguna	12	San Juan la Laguna	3	Marzo	2023-02-03T00:00:00	2024-11-08T16:00:00	4	Temperatura máxima	22.9
39795	7	Sololá	717	San Juan la Laguna	12	San Juan la Laguna	3	Marzo	2023-02-03T00:00:00	2024-11-08T16:00:00	3	Temperatura mínima	21.8
39796	7	Sololá	717	San Juan la Laguna	12	San Juan la Laguna	3	Marzo	2023-02-03T00:00:00	2024-11-08T16:00:00	5	Humedad	67
39797	7	Sololá	717	San Juan la Laguna	12	San Juan la Laguna	3	Marzo	2023-02-03T00:00:00	2024-11-08T16:00:00	6	Velocidad del viento	8
39798	7	Sololá	717	San Juan la Laguna	12	San Juan la Laguna	3	Marzo	2023-02-03T00:00:00	2024-11-08T16:00:00	7	Dirección del viento	8.05
39799	7	Sololá	717	San Juan la Laguna	12	San Juan la Laguna	3	Marzo	2023-02-03T00:00:00	2024-11-08T16:00:00	1	Precipitación	0
39800	7	Sololá	717	San Juan la Laguna	12	San Juan la Laguna	3	Marzo	2023-02-03T00:00:00	2024-11-08T16:00:00	8	Radiación solar	534
39801	7	Sololá	717	San Juan la Laguna	12	San Juan la Laguna	3	Marzo	2023-02-03T00:00:00	2024-11-08T17:00:00	2	Temperatura media	20.9
39802	7	Sololá	717	San Juan la Laguna	12	San Juan la Laguna	3	Marzo	2023-02-03T00:00:00	2024-11-08T17:00:00	4	Temperatura máxima	22.4
39803	7	Sololá	717	San Juan la Laguna	12	San Juan la Laguna	3	Marzo	2023-02-03T00:00:00	2024-11-08T17:00:00	3	Temperatura mínima	20.8
39804	7	Sololá	717	San Juan la Laguna	12	San Juan la Laguna	3	Marzo	2023-02-03T00:00:00	2024-11-08T17:00:00	5	Humedad	71
39805	7	Sololá	717	San Juan la Laguna	12	San Juan la Laguna	3	Marzo	2023-02-03T00:00:00	2024-11-08T17:00:00	6	Velocidad del viento	9.7
39806	7	Sololá	717	San Juan la Laguna	12	San Juan la Laguna	3	Marzo	2023-02-03T00:00:00	2024-11-08T17:00:00	7	Dirección del viento	9.66
39807	7	Sololá	717	San Juan la Laguna	12	San Juan la Laguna	3	Marzo	2023-02-03T00:00:00	2024-11-08T17:00:00	1	Precipitación	0
39808	7	Sololá	717	San Juan la Laguna	12	San Juan la Laguna	3	Marzo	2023-02-03T00:00:00	2024-11-08T17:00:00	8	Radiación solar	344
39809	7	Sololá	717	San Juan la Laguna	12	San Juan la Laguna	3	Marzo	2023-02-03T00:00:00	2024-11-08T18:00:00	2	Temperatura media	19.1
39810	7	Sololá	717	San Juan la Laguna	12	San Juan la Laguna	3	Marzo	2023-02-03T00:00:00	2024-11-08T18:00:00	4	Temperatura máxima	20.9
39811	7	Sololá	717	San Juan la Laguna	12	San Juan la Laguna	3	Marzo	2023-02-03T00:00:00	2024-11-08T18:00:00	3	Temperatura mínima	19.1
39812	7	Sololá	717	San Juan la Laguna	12	San Juan la Laguna	3	Marzo	2023-02-03T00:00:00	2024-11-08T18:00:00	5	Humedad	79
39813	7	Sololá	717	San Juan la Laguna	12	San Juan la Laguna	3	Marzo	2023-02-03T00:00:00	2024-11-08T18:00:00	6	Velocidad del viento	8
39814	7	Sololá	717	San Juan la Laguna	12	San Juan la Laguna	3	Marzo	2023-02-03T00:00:00	2024-11-08T18:00:00	7	Dirección del viento	8.05
39815	7	Sololá	717	San Juan la Laguna	12	San Juan la Laguna	3	Marzo	2023-02-03T00:00:00	2024-11-08T18:00:00	1	Precipitación	0
39816	7	Sololá	717	San Juan la Laguna	12	San Juan la Laguna	3	Marzo	2023-02-03T00:00:00	2024-11-08T18:00:00	8	Radiación solar	32
39817	7	Sololá	717	San Juan la Laguna	12	San Juan la Laguna	3	Marzo	2023-02-03T00:00:00	2024-11-08T19:00:00	2	Temperatura media	18.1
39818	7	Sololá	717	San Juan la Laguna	12	San Juan la Laguna	3	Marzo	2023-02-03T00:00:00	2024-11-08T19:00:00	4	Temperatura máxima	19.1
39819	7	Sololá	717	San Juan la Laguna	12	San Juan la Laguna	3	Marzo	2023-02-03T00:00:00	2024-11-08T19:00:00	3	Temperatura mínima	18.1
39820	7	Sololá	717	San Juan la Laguna	12	San Juan la Laguna	3	Marzo	2023-02-03T00:00:00	2024-11-08T19:00:00	5	Humedad	82
39821	7	Sololá	717	San Juan la Laguna	12	San Juan la Laguna	3	Marzo	2023-02-03T00:00:00	2024-11-08T19:00:00	6	Velocidad del viento	6.4
39822	7	Sololá	717	San Juan la Laguna	12	San Juan la Laguna	3	Marzo	2023-02-03T00:00:00	2024-11-08T19:00:00	7	Dirección del viento	6.44
39823	7	Sololá	717	San Juan la Laguna	12	San Juan la Laguna	3	Marzo	2023-02-03T00:00:00	2024-11-08T19:00:00	1	Precipitación	0
39824	7	Sololá	717	San Juan la Laguna	12	San Juan la Laguna	3	Marzo	2023-02-03T00:00:00	2024-11-08T19:00:00	8	Radiación solar	0
39825	7	Sololá	717	San Juan la Laguna	12	San Juan la Laguna	3	Marzo	2023-02-03T00:00:00	2024-11-08T20:00:00	2	Temperatura media	17.8
39826	7	Sololá	717	San Juan la Laguna	12	San Juan la Laguna	3	Marzo	2023-02-03T00:00:00	2024-11-08T20:00:00	4	Temperatura máxima	18.1
39827	7	Sololá	717	San Juan la Laguna	12	San Juan la Laguna	3	Marzo	2023-02-03T00:00:00	2024-11-08T20:00:00	3	Temperatura mínima	17.7
39828	7	Sololá	717	San Juan la Laguna	12	San Juan la Laguna	3	Marzo	2023-02-03T00:00:00	2024-11-08T20:00:00	5	Humedad	82
39829	7	Sololá	717	San Juan la Laguna	12	San Juan la Laguna	3	Marzo	2023-02-03T00:00:00	2024-11-08T20:00:00	6	Velocidad del viento	3.2
39830	7	Sololá	717	San Juan la Laguna	12	San Juan la Laguna	3	Marzo	2023-02-03T00:00:00	2024-11-08T20:00:00	7	Dirección del viento	3.22
39831	7	Sololá	717	San Juan la Laguna	12	San Juan la Laguna	3	Marzo	2023-02-03T00:00:00	2024-11-08T20:00:00	1	Precipitación	0
39832	7	Sololá	717	San Juan la Laguna	12	San Juan la Laguna	3	Marzo	2023-02-03T00:00:00	2024-11-08T20:00:00	8	Radiación solar	0
39833	7	Sololá	717	San Juan la Laguna	12	San Juan la Laguna	3	Marzo	2023-02-03T00:00:00	2024-11-08T21:00:00	2	Temperatura media	16.8
39834	7	Sololá	717	San Juan la Laguna	12	San Juan la Laguna	3	Marzo	2023-02-03T00:00:00	2024-11-08T21:00:00	4	Temperatura máxima	17.9
39835	7	Sololá	717	San Juan la Laguna	12	San Juan la Laguna	3	Marzo	2023-02-03T00:00:00	2024-11-08T21:00:00	3	Temperatura mínima	16.8
39836	7	Sololá	717	San Juan la Laguna	12	San Juan la Laguna	3	Marzo	2023-02-03T00:00:00	2024-11-08T21:00:00	5	Humedad	82
39837	7	Sololá	717	San Juan la Laguna	12	San Juan la Laguna	3	Marzo	2023-02-03T00:00:00	2024-11-08T21:00:00	6	Velocidad del viento	3.2
39838	7	Sololá	717	San Juan la Laguna	12	San Juan la Laguna	3	Marzo	2023-02-03T00:00:00	2024-11-08T21:00:00	7	Dirección del viento	3.22
39839	7	Sololá	717	San Juan la Laguna	12	San Juan la Laguna	3	Marzo	2023-02-03T00:00:00	2024-11-08T21:00:00	1	Precipitación	0
39840	7	Sololá	717	San Juan la Laguna	12	San Juan la Laguna	3	Marzo	2023-02-03T00:00:00	2024-11-08T21:00:00	8	Radiación solar	0
39841	7	Sololá	717	San Juan la Laguna	12	San Juan la Laguna	3	Marzo	2023-02-03T00:00:00	2024-11-08T22:00:00	2	Temperatura media	15.3
39842	7	Sololá	717	San Juan la Laguna	12	San Juan la Laguna	3	Marzo	2023-02-03T00:00:00	2024-11-08T22:00:00	4	Temperatura máxima	16.8
39843	7	Sololá	717	San Juan la Laguna	12	San Juan la Laguna	3	Marzo	2023-02-03T00:00:00	2024-11-08T22:00:00	3	Temperatura mínima	15.3
39844	7	Sololá	717	San Juan la Laguna	12	San Juan la Laguna	3	Marzo	2023-02-03T00:00:00	2024-11-08T22:00:00	5	Humedad	78
39845	7	Sololá	717	San Juan la Laguna	12	San Juan la Laguna	3	Marzo	2023-02-03T00:00:00	2024-11-08T22:00:00	6	Velocidad del viento	6.4
39846	7	Sololá	717	San Juan la Laguna	12	San Juan la Laguna	3	Marzo	2023-02-03T00:00:00	2024-11-08T22:00:00	7	Dirección del viento	6.44
39847	7	Sololá	717	San Juan la Laguna	12	San Juan la Laguna	3	Marzo	2023-02-03T00:00:00	2024-11-08T22:00:00	1	Precipitación	0
39848	7	Sololá	717	San Juan la Laguna	12	San Juan la Laguna	3	Marzo	2023-02-03T00:00:00	2024-11-08T22:00:00	8	Radiación solar	0
39849	7	Sololá	717	San Juan la Laguna	12	San Juan la Laguna	3	Marzo	2023-02-03T00:00:00	2024-11-08T23:00:00	2	Temperatura media	15
39850	7	Sololá	717	San Juan la Laguna	12	San Juan la Laguna	3	Marzo	2023-02-03T00:00:00	2024-11-08T23:00:00	4	Temperatura máxima	15.3
39851	7	Sololá	717	San Juan la Laguna	12	San Juan la Laguna	3	Marzo	2023-02-03T00:00:00	2024-11-08T23:00:00	3	Temperatura mínima	15
39852	7	Sololá	717	San Juan la Laguna	12	San Juan la Laguna	3	Marzo	2023-02-03T00:00:00	2024-11-08T23:00:00	5	Humedad	78
39853	7	Sololá	717	San Juan la Laguna	12	San Juan la Laguna	3	Marzo	2023-02-03T00:00:00	2024-11-08T23:00:00	6	Velocidad del viento	4.8
39854	7	Sololá	717	San Juan la Laguna	12	San Juan la Laguna	3	Marzo	2023-02-03T00:00:00	2024-11-08T23:00:00	7	Dirección del viento	4.83
39855	7	Sololá	717	San Juan la Laguna	12	San Juan la Laguna	3	Marzo	2023-02-03T00:00:00	2024-11-08T23:00:00	1	Precipitación	0
39856	7	Sololá	717	San Juan la Laguna	12	San Juan la Laguna	3	Marzo	2023-02-03T00:00:00	2024-11-08T23:00:00	8	Radiación solar	0
39857	7	Sololá	717	San Juan la Laguna	12	San Juan la Laguna	3	Marzo	2023-03-03T00:00:00	2024-11-08T00:00:00	2	Temperatura media	13.8
39858	7	Sololá	717	San Juan la Laguna	12	San Juan la Laguna	3	Marzo	2023-03-03T00:00:00	2024-11-08T00:00:00	4	Temperatura máxima	15
39859	7	Sololá	717	San Juan la Laguna	12	San Juan la Laguna	3	Marzo	2023-03-03T00:00:00	2024-11-08T00:00:00	3	Temperatura mínima	13.8
39860	7	Sololá	717	San Juan la Laguna	12	San Juan la Laguna	3	Marzo	2023-03-03T00:00:00	2024-11-08T00:00:00	5	Humedad	79
39861	7	Sololá	717	San Juan la Laguna	12	San Juan la Laguna	3	Marzo	2023-03-03T00:00:00	2024-11-08T00:00:00	6	Velocidad del viento	4.8
39862	7	Sololá	717	San Juan la Laguna	12	San Juan la Laguna	3	Marzo	2023-03-03T00:00:00	2024-11-08T00:00:00	7	Dirección del viento	4.83
39863	7	Sololá	717	San Juan la Laguna	12	San Juan la Laguna	3	Marzo	2023-03-03T00:00:00	2024-11-08T00:00:00	1	Precipitación	0
39864	7	Sololá	717	San Juan la Laguna	12	San Juan la Laguna	3	Marzo	2023-03-03T00:00:00	2024-11-08T00:00:00	8	Radiación solar	0
39865	7	Sololá	717	San Juan la Laguna	12	San Juan la Laguna	3	Marzo	2023-03-03T00:00:00	2024-11-08T01:00:00	2	Temperatura media	12.9
39866	7	Sololá	717	San Juan la Laguna	12	San Juan la Laguna	3	Marzo	2023-03-03T00:00:00	2024-11-08T01:00:00	4	Temperatura máxima	13.8
39867	7	Sololá	717	San Juan la Laguna	12	San Juan la Laguna	3	Marzo	2023-03-03T00:00:00	2024-11-08T01:00:00	3	Temperatura mínima	12.7
39868	7	Sololá	717	San Juan la Laguna	12	San Juan la Laguna	3	Marzo	2023-03-03T00:00:00	2024-11-08T01:00:00	5	Humedad	78
39869	7	Sololá	717	San Juan la Laguna	12	San Juan la Laguna	3	Marzo	2023-03-03T00:00:00	2024-11-08T01:00:00	6	Velocidad del viento	4.8
39870	7	Sololá	717	San Juan la Laguna	12	San Juan la Laguna	3	Marzo	2023-03-03T00:00:00	2024-11-08T01:00:00	7	Dirección del viento	4.83
39871	7	Sololá	717	San Juan la Laguna	12	San Juan la Laguna	3	Marzo	2023-03-03T00:00:00	2024-11-08T01:00:00	1	Precipitación	0
39872	7	Sololá	717	San Juan la Laguna	12	San Juan la Laguna	3	Marzo	2023-03-03T00:00:00	2024-11-08T01:00:00	8	Radiación solar	0
39873	7	Sololá	717	San Juan la Laguna	12	San Juan la Laguna	3	Marzo	2023-03-03T00:00:00	2024-11-08T02:00:00	2	Temperatura media	10.9
39874	7	Sololá	717	San Juan la Laguna	12	San Juan la Laguna	3	Marzo	2023-03-03T00:00:00	2024-11-08T02:00:00	4	Temperatura máxima	12.9
39875	7	Sololá	717	San Juan la Laguna	12	San Juan la Laguna	3	Marzo	2023-03-03T00:00:00	2024-11-08T02:00:00	3	Temperatura mínima	10.9
39876	7	Sololá	717	San Juan la Laguna	12	San Juan la Laguna	3	Marzo	2023-03-03T00:00:00	2024-11-08T02:00:00	5	Humedad	74
39877	7	Sololá	717	San Juan la Laguna	12	San Juan la Laguna	3	Marzo	2023-03-03T00:00:00	2024-11-08T02:00:00	6	Velocidad del viento	3.2
39878	7	Sololá	717	San Juan la Laguna	12	San Juan la Laguna	3	Marzo	2023-03-03T00:00:00	2024-11-08T02:00:00	7	Dirección del viento	3.22
39879	7	Sololá	717	San Juan la Laguna	12	San Juan la Laguna	3	Marzo	2023-03-03T00:00:00	2024-11-08T02:00:00	1	Precipitación	0
39880	7	Sololá	717	San Juan la Laguna	12	San Juan la Laguna	3	Marzo	2023-03-03T00:00:00	2024-11-08T02:00:00	8	Radiación solar	0
39881	7	Sololá	717	San Juan la Laguna	12	San Juan la Laguna	3	Marzo	2023-03-03T00:00:00	2024-11-08T03:00:00	2	Temperatura media	11
39882	7	Sololá	717	San Juan la Laguna	12	San Juan la Laguna	3	Marzo	2023-03-03T00:00:00	2024-11-08T03:00:00	4	Temperatura máxima	11.1
39883	7	Sololá	717	San Juan la Laguna	12	San Juan la Laguna	3	Marzo	2023-03-03T00:00:00	2024-11-08T03:00:00	3	Temperatura mínima	10.6
39884	7	Sololá	717	San Juan la Laguna	12	San Juan la Laguna	3	Marzo	2023-03-03T00:00:00	2024-11-08T03:00:00	5	Humedad	74
39885	7	Sololá	717	San Juan la Laguna	12	San Juan la Laguna	3	Marzo	2023-03-03T00:00:00	2024-11-08T03:00:00	6	Velocidad del viento	0
39886	7	Sololá	717	San Juan la Laguna	12	San Juan la Laguna	3	Marzo	2023-03-03T00:00:00	2024-11-08T03:00:00	7	Dirección del viento	0
39887	7	Sololá	717	San Juan la Laguna	12	San Juan la Laguna	3	Marzo	2023-03-03T00:00:00	2024-11-08T03:00:00	1	Precipitación	0
39888	7	Sololá	717	San Juan la Laguna	12	San Juan la Laguna	3	Marzo	2023-03-03T00:00:00	2024-11-08T03:00:00	8	Radiación solar	0
39889	7	Sololá	717	San Juan la Laguna	12	San Juan la Laguna	3	Marzo	2023-03-03T00:00:00	2024-11-08T04:00:00	2	Temperatura media	10.4
39890	7	Sololá	717	San Juan la Laguna	12	San Juan la Laguna	3	Marzo	2023-03-03T00:00:00	2024-11-08T04:00:00	4	Temperatura máxima	11
39891	7	Sololá	717	San Juan la Laguna	12	San Juan la Laguna	3	Marzo	2023-03-03T00:00:00	2024-11-08T04:00:00	3	Temperatura mínima	10.3
39892	7	Sololá	717	San Juan la Laguna	12	San Juan la Laguna	3	Marzo	2023-03-03T00:00:00	2024-11-08T04:00:00	5	Humedad	79
39893	7	Sololá	717	San Juan la Laguna	12	San Juan la Laguna	3	Marzo	2023-03-03T00:00:00	2024-11-08T04:00:00	6	Velocidad del viento	1.6
39894	7	Sololá	717	San Juan la Laguna	12	San Juan la Laguna	3	Marzo	2023-03-03T00:00:00	2024-11-08T04:00:00	7	Dirección del viento	1.61
39895	7	Sololá	717	San Juan la Laguna	12	San Juan la Laguna	3	Marzo	2023-03-03T00:00:00	2024-11-08T04:00:00	1	Precipitación	0
39896	7	Sololá	717	San Juan la Laguna	12	San Juan la Laguna	3	Marzo	2023-03-03T00:00:00	2024-11-08T04:00:00	8	Radiación solar	0
39897	7	Sololá	717	San Juan la Laguna	12	San Juan la Laguna	3	Marzo	2023-03-03T00:00:00	2024-11-08T05:00:00	2	Temperatura media	10.4
39898	7	Sololá	717	San Juan la Laguna	12	San Juan la Laguna	3	Marzo	2023-03-03T00:00:00	2024-11-08T05:00:00	4	Temperatura máxima	10.5
39899	7	Sololá	717	San Juan la Laguna	12	San Juan la Laguna	3	Marzo	2023-03-03T00:00:00	2024-11-08T05:00:00	3	Temperatura mínima	10.2
39900	7	Sololá	717	San Juan la Laguna	12	San Juan la Laguna	3	Marzo	2023-03-03T00:00:00	2024-11-08T05:00:00	5	Humedad	73
39901	7	Sololá	717	San Juan la Laguna	12	San Juan la Laguna	3	Marzo	2023-03-03T00:00:00	2024-11-08T05:00:00	6	Velocidad del viento	1.6
39902	7	Sololá	717	San Juan la Laguna	12	San Juan la Laguna	3	Marzo	2023-03-03T00:00:00	2024-11-08T05:00:00	7	Dirección del viento	1.61
39903	7	Sololá	717	San Juan la Laguna	12	San Juan la Laguna	3	Marzo	2023-03-03T00:00:00	2024-11-08T05:00:00	1	Precipitación	0
39904	7	Sololá	717	San Juan la Laguna	12	San Juan la Laguna	3	Marzo	2023-03-03T00:00:00	2024-11-08T05:00:00	8	Radiación solar	0
39905	7	Sololá	717	San Juan la Laguna	12	San Juan la Laguna	3	Marzo	2023-03-03T00:00:00	2024-11-08T06:00:00	2	Temperatura media	9.4
39906	7	Sololá	717	San Juan la Laguna	12	San Juan la Laguna	3	Marzo	2023-03-03T00:00:00	2024-11-08T06:00:00	4	Temperatura máxima	10.4
39907	7	Sololá	717	San Juan la Laguna	12	San Juan la Laguna	3	Marzo	2023-03-03T00:00:00	2024-11-08T06:00:00	3	Temperatura mínima	9.3
39908	7	Sololá	717	San Juan la Laguna	12	San Juan la Laguna	3	Marzo	2023-03-03T00:00:00	2024-11-08T06:00:00	5	Humedad	72
39909	7	Sololá	717	San Juan la Laguna	12	San Juan la Laguna	3	Marzo	2023-03-03T00:00:00	2024-11-08T06:00:00	6	Velocidad del viento	0
39910	7	Sololá	717	San Juan la Laguna	12	San Juan la Laguna	3	Marzo	2023-03-03T00:00:00	2024-11-08T06:00:00	7	Dirección del viento	0
39911	7	Sololá	717	San Juan la Laguna	12	San Juan la Laguna	3	Marzo	2023-03-03T00:00:00	2024-11-08T06:00:00	1	Precipitación	0
39912	7	Sololá	717	San Juan la Laguna	12	San Juan la Laguna	3	Marzo	2023-03-03T00:00:00	2024-11-08T06:00:00	8	Radiación solar	0
39913	7	Sololá	717	San Juan la Laguna	12	San Juan la Laguna	3	Marzo	2023-03-03T00:00:00	2024-11-08T07:00:00	2	Temperatura media	10.2
39914	7	Sololá	717	San Juan la Laguna	12	San Juan la Laguna	3	Marzo	2023-03-03T00:00:00	2024-11-08T07:00:00	4	Temperatura máxima	10.2
39915	7	Sololá	717	San Juan la Laguna	12	San Juan la Laguna	3	Marzo	2023-03-03T00:00:00	2024-11-08T07:00:00	3	Temperatura mínima	9.3
39916	7	Sololá	717	San Juan la Laguna	12	San Juan la Laguna	3	Marzo	2023-03-03T00:00:00	2024-11-08T07:00:00	5	Humedad	77
39917	7	Sololá	717	San Juan la Laguna	12	San Juan la Laguna	3	Marzo	2023-03-03T00:00:00	2024-11-08T07:00:00	6	Velocidad del viento	0
39918	7	Sololá	717	San Juan la Laguna	12	San Juan la Laguna	3	Marzo	2023-03-03T00:00:00	2024-11-08T07:00:00	7	Dirección del viento	0
39919	7	Sololá	717	San Juan la Laguna	12	San Juan la Laguna	3	Marzo	2023-03-03T00:00:00	2024-11-08T07:00:00	1	Precipitación	0
39920	7	Sololá	717	San Juan la Laguna	12	San Juan la Laguna	3	Marzo	2023-03-03T00:00:00	2024-11-08T07:00:00	8	Radiación solar	16
39921	7	Sololá	717	San Juan la Laguna	12	San Juan la Laguna	3	Marzo	2023-03-03T00:00:00	2024-11-08T08:00:00	2	Temperatura media	16.3
39922	7	Sololá	717	San Juan la Laguna	12	San Juan la Laguna	3	Marzo	2023-03-03T00:00:00	2024-11-08T08:00:00	4	Temperatura máxima	16.3
39923	7	Sololá	717	San Juan la Laguna	12	San Juan la Laguna	3	Marzo	2023-03-03T00:00:00	2024-11-08T08:00:00	3	Temperatura mínima	10.2
39924	7	Sololá	717	San Juan la Laguna	12	San Juan la Laguna	3	Marzo	2023-03-03T00:00:00	2024-11-08T08:00:00	5	Humedad	72
39925	7	Sololá	717	San Juan la Laguna	12	San Juan la Laguna	3	Marzo	2023-03-03T00:00:00	2024-11-08T08:00:00	6	Velocidad del viento	0
39926	7	Sololá	717	San Juan la Laguna	12	San Juan la Laguna	3	Marzo	2023-03-03T00:00:00	2024-11-08T08:00:00	7	Dirección del viento	0
39927	7	Sololá	717	San Juan la Laguna	12	San Juan la Laguna	3	Marzo	2023-03-03T00:00:00	2024-11-08T08:00:00	1	Precipitación	0
39928	7	Sololá	717	San Juan la Laguna	12	San Juan la Laguna	3	Marzo	2023-03-03T00:00:00	2024-11-08T08:00:00	8	Radiación solar	163
39929	7	Sololá	717	San Juan la Laguna	12	San Juan la Laguna	3	Marzo	2023-03-03T00:00:00	2024-11-08T09:00:00	2	Temperatura media	18.1
39930	7	Sololá	717	San Juan la Laguna	12	San Juan la Laguna	3	Marzo	2023-03-03T00:00:00	2024-11-08T09:00:00	4	Temperatura máxima	19.1
39931	7	Sololá	717	San Juan la Laguna	12	San Juan la Laguna	3	Marzo	2023-03-03T00:00:00	2024-11-08T09:00:00	3	Temperatura mínima	16.3
39932	7	Sololá	717	San Juan la Laguna	12	San Juan la Laguna	3	Marzo	2023-03-03T00:00:00	2024-11-08T09:00:00	5	Humedad	72
39933	7	Sololá	717	San Juan la Laguna	12	San Juan la Laguna	3	Marzo	2023-03-03T00:00:00	2024-11-08T09:00:00	6	Velocidad del viento	1.6
39934	7	Sololá	717	San Juan la Laguna	12	San Juan la Laguna	3	Marzo	2023-03-03T00:00:00	2024-11-08T09:00:00	7	Dirección del viento	1.61
39935	7	Sololá	717	San Juan la Laguna	12	San Juan la Laguna	3	Marzo	2023-03-03T00:00:00	2024-11-08T09:00:00	1	Precipitación	0
39936	7	Sololá	717	San Juan la Laguna	12	San Juan la Laguna	3	Marzo	2023-03-03T00:00:00	2024-11-08T09:00:00	8	Radiación solar	433
39937	7	Sololá	717	San Juan la Laguna	12	San Juan la Laguna	3	Marzo	2023-03-03T00:00:00	2024-11-08T10:00:00	2	Temperatura media	19.9
39938	7	Sololá	717	San Juan la Laguna	12	San Juan la Laguna	3	Marzo	2023-03-03T00:00:00	2024-11-08T10:00:00	4	Temperatura máxima	19.9
39939	7	Sololá	717	San Juan la Laguna	12	San Juan la Laguna	3	Marzo	2023-03-03T00:00:00	2024-11-08T10:00:00	3	Temperatura mínima	18.1
39940	7	Sololá	717	San Juan la Laguna	12	San Juan la Laguna	3	Marzo	2023-03-03T00:00:00	2024-11-08T10:00:00	5	Humedad	63
39941	7	Sololá	717	San Juan la Laguna	12	San Juan la Laguna	3	Marzo	2023-03-03T00:00:00	2024-11-08T10:00:00	6	Velocidad del viento	1.6
39942	7	Sololá	717	San Juan la Laguna	12	San Juan la Laguna	3	Marzo	2023-03-03T00:00:00	2024-11-08T10:00:00	7	Dirección del viento	1.61
39943	7	Sololá	717	San Juan la Laguna	12	San Juan la Laguna	3	Marzo	2023-03-03T00:00:00	2024-11-08T10:00:00	1	Precipitación	0
39944	7	Sololá	717	San Juan la Laguna	12	San Juan la Laguna	3	Marzo	2023-03-03T00:00:00	2024-11-08T10:00:00	8	Radiación solar	636
39945	7	Sololá	717	San Juan la Laguna	12	San Juan la Laguna	3	Marzo	2023-03-03T00:00:00	2024-11-08T11:00:00	2	Temperatura media	21.5
39946	7	Sololá	717	San Juan la Laguna	12	San Juan la Laguna	3	Marzo	2023-03-03T00:00:00	2024-11-08T11:00:00	4	Temperatura máxima	21.5
39947	7	Sololá	717	San Juan la Laguna	12	San Juan la Laguna	3	Marzo	2023-03-03T00:00:00	2024-11-08T11:00:00	3	Temperatura mínima	19.7
39948	7	Sololá	717	San Juan la Laguna	12	San Juan la Laguna	3	Marzo	2023-03-03T00:00:00	2024-11-08T11:00:00	5	Humedad	51
39949	7	Sololá	717	San Juan la Laguna	12	San Juan la Laguna	3	Marzo	2023-03-03T00:00:00	2024-11-08T11:00:00	6	Velocidad del viento	4.8
39950	7	Sololá	717	San Juan la Laguna	12	San Juan la Laguna	3	Marzo	2023-03-03T00:00:00	2024-11-08T11:00:00	7	Dirección del viento	4.83
39951	7	Sololá	717	San Juan la Laguna	12	San Juan la Laguna	3	Marzo	2023-03-03T00:00:00	2024-11-08T11:00:00	1	Precipitación	0
39952	7	Sololá	717	San Juan la Laguna	12	San Juan la Laguna	3	Marzo	2023-03-03T00:00:00	2024-11-08T11:00:00	8	Radiación solar	798
39953	7	Sololá	717	San Juan la Laguna	12	San Juan la Laguna	3	Marzo	2023-03-03T00:00:00	2024-11-08T12:00:00	2	Temperatura media	24.7
39954	7	Sololá	717	San Juan la Laguna	12	San Juan la Laguna	3	Marzo	2023-03-03T00:00:00	2024-11-08T12:00:00	4	Temperatura máxima	24.8
39955	7	Sololá	717	San Juan la Laguna	12	San Juan la Laguna	3	Marzo	2023-03-03T00:00:00	2024-11-08T12:00:00	3	Temperatura mínima	21.4
39956	7	Sololá	717	San Juan la Laguna	12	San Juan la Laguna	3	Marzo	2023-03-03T00:00:00	2024-11-08T12:00:00	5	Humedad	44
39957	7	Sololá	717	San Juan la Laguna	12	San Juan la Laguna	3	Marzo	2023-03-03T00:00:00	2024-11-08T12:00:00	6	Velocidad del viento	4.8
39958	7	Sololá	717	San Juan la Laguna	12	San Juan la Laguna	3	Marzo	2023-03-03T00:00:00	2024-11-08T12:00:00	7	Dirección del viento	4.83
39959	7	Sololá	717	San Juan la Laguna	12	San Juan la Laguna	3	Marzo	2023-03-03T00:00:00	2024-11-08T12:00:00	1	Precipitación	0
39960	7	Sololá	717	San Juan la Laguna	12	San Juan la Laguna	3	Marzo	2023-03-03T00:00:00	2024-11-08T12:00:00	8	Radiación solar	808
39961	7	Sololá	717	San Juan la Laguna	12	San Juan la Laguna	3	Marzo	2023-03-03T00:00:00	2024-11-08T13:00:00	2	Temperatura media	22.9
39962	7	Sololá	717	San Juan la Laguna	12	San Juan la Laguna	3	Marzo	2023-03-03T00:00:00	2024-11-08T13:00:00	4	Temperatura máxima	24.7
39963	7	Sololá	717	San Juan la Laguna	12	San Juan la Laguna	3	Marzo	2023-03-03T00:00:00	2024-11-08T13:00:00	3	Temperatura mínima	22.9
39964	7	Sololá	717	San Juan la Laguna	12	San Juan la Laguna	3	Marzo	2023-03-03T00:00:00	2024-11-08T13:00:00	5	Humedad	57
39965	7	Sololá	717	San Juan la Laguna	12	San Juan la Laguna	3	Marzo	2023-03-03T00:00:00	2024-11-08T13:00:00	6	Velocidad del viento	9.7
39966	7	Sololá	717	San Juan la Laguna	12	San Juan la Laguna	3	Marzo	2023-03-03T00:00:00	2024-11-08T13:00:00	7	Dirección del viento	9.66
39967	7	Sololá	717	San Juan la Laguna	12	San Juan la Laguna	3	Marzo	2023-03-03T00:00:00	2024-11-08T13:00:00	1	Precipitación	0
39968	7	Sololá	717	San Juan la Laguna	12	San Juan la Laguna	3	Marzo	2023-03-03T00:00:00	2024-11-08T13:00:00	8	Radiación solar	922
39969	7	Sololá	717	San Juan la Laguna	12	San Juan la Laguna	3	Marzo	2023-03-03T00:00:00	2024-11-08T14:00:00	2	Temperatura media	22.4
39970	7	Sololá	717	San Juan la Laguna	12	San Juan la Laguna	3	Marzo	2023-03-03T00:00:00	2024-11-08T14:00:00	4	Temperatura máxima	23.4
39971	7	Sololá	717	San Juan la Laguna	12	San Juan la Laguna	3	Marzo	2023-03-03T00:00:00	2024-11-08T14:00:00	3	Temperatura mínima	22.3
39972	7	Sololá	717	San Juan la Laguna	12	San Juan la Laguna	3	Marzo	2023-03-03T00:00:00	2024-11-08T14:00:00	5	Humedad	64
39973	7	Sololá	717	San Juan la Laguna	12	San Juan la Laguna	3	Marzo	2023-03-03T00:00:00	2024-11-08T14:00:00	6	Velocidad del viento	9.7
39974	7	Sololá	717	San Juan la Laguna	12	San Juan la Laguna	3	Marzo	2023-03-03T00:00:00	2024-11-08T14:00:00	7	Dirección del viento	9.66
39975	7	Sololá	717	San Juan la Laguna	12	San Juan la Laguna	3	Marzo	2023-03-03T00:00:00	2024-11-08T14:00:00	1	Precipitación	0
39976	7	Sololá	717	San Juan la Laguna	12	San Juan la Laguna	3	Marzo	2023-03-03T00:00:00	2024-11-08T14:00:00	8	Radiación solar	861
39977	7	Sololá	717	San Juan la Laguna	12	San Juan la Laguna	3	Marzo	2023-03-03T00:00:00	2024-11-08T15:00:00	2	Temperatura media	21.8
39978	7	Sololá	717	San Juan la Laguna	12	San Juan la Laguna	3	Marzo	2023-03-03T00:00:00	2024-11-08T15:00:00	4	Temperatura máxima	22.5
39979	7	Sololá	717	San Juan la Laguna	12	San Juan la Laguna	3	Marzo	2023-03-03T00:00:00	2024-11-08T15:00:00	3	Temperatura mínima	21.5
39980	7	Sololá	717	San Juan la Laguna	12	San Juan la Laguna	3	Marzo	2023-03-03T00:00:00	2024-11-08T15:00:00	5	Humedad	66
39981	7	Sololá	717	San Juan la Laguna	12	San Juan la Laguna	3	Marzo	2023-03-03T00:00:00	2024-11-08T15:00:00	6	Velocidad del viento	9.7
39982	7	Sololá	717	San Juan la Laguna	12	San Juan la Laguna	3	Marzo	2023-03-03T00:00:00	2024-11-08T15:00:00	7	Dirección del viento	9.66
39983	7	Sololá	717	San Juan la Laguna	12	San Juan la Laguna	3	Marzo	2023-03-03T00:00:00	2024-11-08T15:00:00	1	Precipitación	0
39984	7	Sololá	717	San Juan la Laguna	12	San Juan la Laguna	3	Marzo	2023-03-03T00:00:00	2024-11-08T15:00:00	8	Radiación solar	736
39985	7	Sololá	717	San Juan la Laguna	12	San Juan la Laguna	3	Marzo	2023-03-03T00:00:00	2024-11-08T16:00:00	2	Temperatura media	21
39986	7	Sololá	717	San Juan la Laguna	12	San Juan la Laguna	3	Marzo	2023-03-03T00:00:00	2024-11-08T16:00:00	4	Temperatura máxima	21.8
39987	7	Sololá	717	San Juan la Laguna	12	San Juan la Laguna	3	Marzo	2023-03-03T00:00:00	2024-11-08T16:00:00	3	Temperatura mínima	20.8
39988	7	Sololá	717	San Juan la Laguna	12	San Juan la Laguna	3	Marzo	2023-03-03T00:00:00	2024-11-08T16:00:00	5	Humedad	69
39989	7	Sololá	717	San Juan la Laguna	12	San Juan la Laguna	3	Marzo	2023-03-03T00:00:00	2024-11-08T16:00:00	6	Velocidad del viento	6.4
39990	7	Sololá	717	San Juan la Laguna	12	San Juan la Laguna	3	Marzo	2023-03-03T00:00:00	2024-11-08T16:00:00	7	Dirección del viento	6.44
39991	7	Sololá	717	San Juan la Laguna	12	San Juan la Laguna	3	Marzo	2023-03-03T00:00:00	2024-11-08T16:00:00	1	Precipitación	0
39992	7	Sololá	717	San Juan la Laguna	12	San Juan la Laguna	3	Marzo	2023-03-03T00:00:00	2024-11-08T16:00:00	8	Radiación solar	411
39993	7	Sololá	717	San Juan la Laguna	12	San Juan la Laguna	3	Marzo	2023-03-03T00:00:00	2024-11-08T17:00:00	2	Temperatura media	19.9
39994	7	Sololá	717	San Juan la Laguna	12	San Juan la Laguna	3	Marzo	2023-03-03T00:00:00	2024-11-08T17:00:00	4	Temperatura máxima	21.3
39995	7	Sololá	717	San Juan la Laguna	12	San Juan la Laguna	3	Marzo	2023-03-03T00:00:00	2024-11-08T17:00:00	3	Temperatura mínima	19.9
39996	7	Sololá	717	San Juan la Laguna	12	San Juan la Laguna	3	Marzo	2023-03-03T00:00:00	2024-11-08T17:00:00	5	Humedad	74
39997	7	Sololá	717	San Juan la Laguna	12	San Juan la Laguna	3	Marzo	2023-03-03T00:00:00	2024-11-08T17:00:00	6	Velocidad del viento	8
39998	7	Sololá	717	San Juan la Laguna	12	San Juan la Laguna	3	Marzo	2023-03-03T00:00:00	2024-11-08T17:00:00	7	Dirección del viento	8.05
39999	7	Sololá	717	San Juan la Laguna	12	San Juan la Laguna	3	Marzo	2023-03-03T00:00:00	2024-11-08T17:00:00	1	Precipitación	0
40000	7	Sololá	717	San Juan la Laguna	12	San Juan la Laguna	3	Marzo	2023-03-03T00:00:00	2024-11-08T17:00:00	8	Radiación solar	147
40001	7	Sololá	717	San Juan la Laguna	12	San Juan la Laguna	3	Marzo	2023-03-03T00:00:00	2024-11-08T18:00:00	2	Temperatura media	19.7
40002	7	Sololá	717	San Juan la Laguna	12	San Juan la Laguna	3	Marzo	2023-03-03T00:00:00	2024-11-08T18:00:00	4	Temperatura máxima	19.9
40003	7	Sololá	717	San Juan la Laguna	12	San Juan la Laguna	3	Marzo	2023-03-03T00:00:00	2024-11-08T18:00:00	3	Temperatura mínima	19.7
40004	7	Sololá	717	San Juan la Laguna	12	San Juan la Laguna	3	Marzo	2023-03-03T00:00:00	2024-11-08T18:00:00	5	Humedad	76
40005	7	Sololá	717	San Juan la Laguna	12	San Juan la Laguna	3	Marzo	2023-03-03T00:00:00	2024-11-08T18:00:00	6	Velocidad del viento	8
40006	7	Sololá	717	San Juan la Laguna	12	San Juan la Laguna	3	Marzo	2023-03-03T00:00:00	2024-11-08T18:00:00	7	Dirección del viento	8.05
40007	7	Sololá	717	San Juan la Laguna	12	San Juan la Laguna	3	Marzo	2023-03-03T00:00:00	2024-11-08T18:00:00	1	Precipitación	0
40008	7	Sololá	717	San Juan la Laguna	12	San Juan la Laguna	3	Marzo	2023-03-03T00:00:00	2024-11-08T18:00:00	8	Radiación solar	37
40009	7	Sololá	717	San Juan la Laguna	12	San Juan la Laguna	3	Marzo	2023-03-03T00:00:00	2024-11-08T19:00:00	2	Temperatura media	18.7
40010	7	Sololá	717	San Juan la Laguna	12	San Juan la Laguna	3	Marzo	2023-03-03T00:00:00	2024-11-08T19:00:00	4	Temperatura máxima	19.8
40011	7	Sololá	717	San Juan la Laguna	12	San Juan la Laguna	3	Marzo	2023-03-03T00:00:00	2024-11-08T19:00:00	3	Temperatura mínima	18.7
40012	7	Sololá	717	San Juan la Laguna	12	San Juan la Laguna	3	Marzo	2023-03-03T00:00:00	2024-11-08T19:00:00	5	Humedad	80
40013	7	Sololá	717	San Juan la Laguna	12	San Juan la Laguna	3	Marzo	2023-03-03T00:00:00	2024-11-08T19:00:00	6	Velocidad del viento	3.2
40014	7	Sololá	717	San Juan la Laguna	12	San Juan la Laguna	3	Marzo	2023-03-03T00:00:00	2024-11-08T19:00:00	7	Dirección del viento	3.22
40015	7	Sololá	717	San Juan la Laguna	12	San Juan la Laguna	3	Marzo	2023-03-03T00:00:00	2024-11-08T19:00:00	1	Precipitación	0
40016	7	Sololá	717	San Juan la Laguna	12	San Juan la Laguna	3	Marzo	2023-03-03T00:00:00	2024-11-08T19:00:00	8	Radiación solar	0
40017	7	Sololá	717	San Juan la Laguna	12	San Juan la Laguna	3	Marzo	2023-03-03T00:00:00	2024-11-08T20:00:00	2	Temperatura media	17.3
40018	7	Sololá	717	San Juan la Laguna	12	San Juan la Laguna	3	Marzo	2023-03-03T00:00:00	2024-11-08T20:00:00	4	Temperatura máxima	18.7
40019	7	Sololá	717	San Juan la Laguna	12	San Juan la Laguna	3	Marzo	2023-03-03T00:00:00	2024-11-08T20:00:00	3	Temperatura mínima	17.3
40020	7	Sololá	717	San Juan la Laguna	12	San Juan la Laguna	3	Marzo	2023-03-03T00:00:00	2024-11-08T20:00:00	5	Humedad	84
40021	7	Sololá	717	San Juan la Laguna	12	San Juan la Laguna	3	Marzo	2023-03-03T00:00:00	2024-11-08T20:00:00	6	Velocidad del viento	3.2
40022	7	Sololá	717	San Juan la Laguna	12	San Juan la Laguna	3	Marzo	2023-03-03T00:00:00	2024-11-08T20:00:00	7	Dirección del viento	3.22
40023	7	Sololá	717	San Juan la Laguna	12	San Juan la Laguna	3	Marzo	2023-03-03T00:00:00	2024-11-08T20:00:00	1	Precipitación	0
40024	7	Sololá	717	San Juan la Laguna	12	San Juan la Laguna	3	Marzo	2023-03-03T00:00:00	2024-11-08T20:00:00	8	Radiación solar	0
40025	7	Sololá	717	San Juan la Laguna	12	San Juan la Laguna	3	Marzo	2023-03-03T00:00:00	2024-11-08T21:00:00	2	Temperatura media	16.9
40026	7	Sololá	717	San Juan la Laguna	12	San Juan la Laguna	3	Marzo	2023-03-03T00:00:00	2024-11-08T21:00:00	4	Temperatura máxima	17.6
40027	7	Sololá	717	San Juan la Laguna	12	San Juan la Laguna	3	Marzo	2023-03-03T00:00:00	2024-11-08T21:00:00	3	Temperatura mínima	16.9
40028	7	Sololá	717	San Juan la Laguna	12	San Juan la Laguna	3	Marzo	2023-03-03T00:00:00	2024-11-08T21:00:00	5	Humedad	82
40029	7	Sololá	717	San Juan la Laguna	12	San Juan la Laguna	3	Marzo	2023-03-03T00:00:00	2024-11-08T21:00:00	6	Velocidad del viento	3.2
40030	7	Sololá	717	San Juan la Laguna	12	San Juan la Laguna	3	Marzo	2023-03-03T00:00:00	2024-11-08T21:00:00	7	Dirección del viento	3.22
40031	7	Sololá	717	San Juan la Laguna	12	San Juan la Laguna	3	Marzo	2023-03-03T00:00:00	2024-11-08T21:00:00	1	Precipitación	0
40032	7	Sololá	717	San Juan la Laguna	12	San Juan la Laguna	3	Marzo	2023-03-03T00:00:00	2024-11-08T21:00:00	8	Radiación solar	0
40033	7	Sololá	717	San Juan la Laguna	12	San Juan la Laguna	3	Marzo	2023-03-03T00:00:00	2024-11-08T22:00:00	2	Temperatura media	16.1
40034	7	Sololá	717	San Juan la Laguna	12	San Juan la Laguna	3	Marzo	2023-03-03T00:00:00	2024-11-08T22:00:00	4	Temperatura máxima	16.9
40035	7	Sololá	717	San Juan la Laguna	12	San Juan la Laguna	3	Marzo	2023-03-03T00:00:00	2024-11-08T22:00:00	3	Temperatura mínima	16.1
40036	7	Sololá	717	San Juan la Laguna	12	San Juan la Laguna	3	Marzo	2023-03-03T00:00:00	2024-11-08T22:00:00	5	Humedad	83
40037	7	Sololá	717	San Juan la Laguna	12	San Juan la Laguna	3	Marzo	2023-03-03T00:00:00	2024-11-08T22:00:00	6	Velocidad del viento	1.6
40038	7	Sololá	717	San Juan la Laguna	12	San Juan la Laguna	3	Marzo	2023-03-03T00:00:00	2024-11-08T22:00:00	7	Dirección del viento	1.61
40039	7	Sololá	717	San Juan la Laguna	12	San Juan la Laguna	3	Marzo	2023-03-03T00:00:00	2024-11-08T22:00:00	1	Precipitación	0
40040	7	Sololá	717	San Juan la Laguna	12	San Juan la Laguna	3	Marzo	2023-03-03T00:00:00	2024-11-08T22:00:00	8	Radiación solar	0
40041	7	Sololá	717	San Juan la Laguna	12	San Juan la Laguna	3	Marzo	2023-03-03T00:00:00	2024-11-08T23:00:00	2	Temperatura media	15.4
40042	7	Sololá	717	San Juan la Laguna	12	San Juan la Laguna	3	Marzo	2023-03-03T00:00:00	2024-11-08T23:00:00	4	Temperatura máxima	16.1
40043	7	Sololá	717	San Juan la Laguna	12	San Juan la Laguna	3	Marzo	2023-03-03T00:00:00	2024-11-08T23:00:00	3	Temperatura mínima	15.4
40044	7	Sololá	717	San Juan la Laguna	12	San Juan la Laguna	3	Marzo	2023-03-03T00:00:00	2024-11-08T23:00:00	5	Humedad	84
40045	7	Sololá	717	San Juan la Laguna	12	San Juan la Laguna	3	Marzo	2023-03-03T00:00:00	2024-11-08T23:00:00	6	Velocidad del viento	3.2
40046	7	Sololá	717	San Juan la Laguna	12	San Juan la Laguna	3	Marzo	2023-03-03T00:00:00	2024-11-08T23:00:00	7	Dirección del viento	3.22
40047	7	Sololá	717	San Juan la Laguna	12	San Juan la Laguna	3	Marzo	2023-03-03T00:00:00	2024-11-08T23:00:00	1	Precipitación	0
40048	7	Sololá	717	San Juan la Laguna	12	San Juan la Laguna	3	Marzo	2023-03-03T00:00:00	2024-11-08T23:00:00	8	Radiación solar	0
40049	7	Sololá	717	San Juan la Laguna	12	San Juan la Laguna	3	Marzo	2023-04-03T00:00:00	2024-11-08T00:00:00	2	Temperatura media	15.8
40050	7	Sololá	717	San Juan la Laguna	12	San Juan la Laguna	3	Marzo	2023-04-03T00:00:00	2024-11-08T00:00:00	4	Temperatura máxima	15.8
40051	7	Sololá	717	San Juan la Laguna	12	San Juan la Laguna	3	Marzo	2023-04-03T00:00:00	2024-11-08T00:00:00	3	Temperatura mínima	14.8
40052	7	Sololá	717	San Juan la Laguna	12	San Juan la Laguna	3	Marzo	2023-04-03T00:00:00	2024-11-08T00:00:00	5	Humedad	84
40053	7	Sololá	717	San Juan la Laguna	12	San Juan la Laguna	3	Marzo	2023-04-03T00:00:00	2024-11-08T00:00:00	6	Velocidad del viento	3.2
40054	7	Sololá	717	San Juan la Laguna	12	San Juan la Laguna	3	Marzo	2023-04-03T00:00:00	2024-11-08T00:00:00	7	Dirección del viento	3.22
40055	7	Sololá	717	San Juan la Laguna	12	San Juan la Laguna	3	Marzo	2023-04-03T00:00:00	2024-11-08T00:00:00	1	Precipitación	0
40056	7	Sololá	717	San Juan la Laguna	12	San Juan la Laguna	3	Marzo	2023-04-03T00:00:00	2024-11-08T00:00:00	8	Radiación solar	0
40057	7	Sololá	717	San Juan la Laguna	12	San Juan la Laguna	3	Marzo	2023-04-03T00:00:00	2024-11-08T01:00:00	2	Temperatura media	15.7
40058	7	Sololá	717	San Juan la Laguna	12	San Juan la Laguna	3	Marzo	2023-04-03T00:00:00	2024-11-08T01:00:00	4	Temperatura máxima	16.2
40059	7	Sololá	717	San Juan la Laguna	12	San Juan la Laguna	3	Marzo	2023-04-03T00:00:00	2024-11-08T01:00:00	3	Temperatura mínima	15.7
40060	7	Sololá	717	San Juan la Laguna	12	San Juan la Laguna	3	Marzo	2023-04-03T00:00:00	2024-11-08T01:00:00	5	Humedad	83
40061	7	Sololá	717	San Juan la Laguna	12	San Juan la Laguna	3	Marzo	2023-04-03T00:00:00	2024-11-08T01:00:00	6	Velocidad del viento	0
40062	7	Sololá	717	San Juan la Laguna	12	San Juan la Laguna	3	Marzo	2023-04-03T00:00:00	2024-11-08T01:00:00	7	Dirección del viento	0
40063	7	Sololá	717	San Juan la Laguna	12	San Juan la Laguna	3	Marzo	2023-04-03T00:00:00	2024-11-08T01:00:00	1	Precipitación	0
40064	7	Sololá	717	San Juan la Laguna	12	San Juan la Laguna	3	Marzo	2023-04-03T00:00:00	2024-11-08T01:00:00	8	Radiación solar	0
40065	7	Sololá	717	San Juan la Laguna	12	San Juan la Laguna	3	Marzo	2023-04-03T00:00:00	2024-11-08T02:00:00	2	Temperatura media	15.9
40066	7	Sololá	717	San Juan la Laguna	12	San Juan la Laguna	3	Marzo	2023-04-03T00:00:00	2024-11-08T02:00:00	4	Temperatura máxima	16
40067	7	Sololá	717	San Juan la Laguna	12	San Juan la Laguna	3	Marzo	2023-04-03T00:00:00	2024-11-08T02:00:00	3	Temperatura mínima	15.7
40068	7	Sololá	717	San Juan la Laguna	12	San Juan la Laguna	3	Marzo	2023-04-03T00:00:00	2024-11-08T02:00:00	5	Humedad	83
40069	7	Sololá	717	San Juan la Laguna	12	San Juan la Laguna	3	Marzo	2023-04-03T00:00:00	2024-11-08T02:00:00	6	Velocidad del viento	1.6
40070	7	Sololá	717	San Juan la Laguna	12	San Juan la Laguna	3	Marzo	2023-04-03T00:00:00	2024-11-08T02:00:00	7	Dirección del viento	1.61
40071	7	Sololá	717	San Juan la Laguna	12	San Juan la Laguna	3	Marzo	2023-04-03T00:00:00	2024-11-08T02:00:00	1	Precipitación	0
40072	7	Sololá	717	San Juan la Laguna	12	San Juan la Laguna	3	Marzo	2023-04-03T00:00:00	2024-11-08T02:00:00	8	Radiación solar	0
40073	7	Sololá	717	San Juan la Laguna	12	San Juan la Laguna	3	Marzo	2023-04-03T00:00:00	2024-11-08T03:00:00	2	Temperatura media	14.8
40074	7	Sololá	717	San Juan la Laguna	12	San Juan la Laguna	3	Marzo	2023-04-03T00:00:00	2024-11-08T03:00:00	4	Temperatura máxima	15.9
40075	7	Sololá	717	San Juan la Laguna	12	San Juan la Laguna	3	Marzo	2023-04-03T00:00:00	2024-11-08T03:00:00	3	Temperatura mínima	14.8
40076	7	Sololá	717	San Juan la Laguna	12	San Juan la Laguna	3	Marzo	2023-04-03T00:00:00	2024-11-08T03:00:00	5	Humedad	83
40077	7	Sololá	717	San Juan la Laguna	12	San Juan la Laguna	3	Marzo	2023-04-03T00:00:00	2024-11-08T03:00:00	6	Velocidad del viento	3.2
40078	7	Sololá	717	San Juan la Laguna	12	San Juan la Laguna	3	Marzo	2023-04-03T00:00:00	2024-11-08T03:00:00	7	Dirección del viento	3.22
40079	7	Sololá	717	San Juan la Laguna	12	San Juan la Laguna	3	Marzo	2023-04-03T00:00:00	2024-11-08T03:00:00	1	Precipitación	0
40080	7	Sololá	717	San Juan la Laguna	12	San Juan la Laguna	3	Marzo	2023-04-03T00:00:00	2024-11-08T03:00:00	8	Radiación solar	0
40081	7	Sololá	717	San Juan la Laguna	12	San Juan la Laguna	3	Marzo	2023-04-03T00:00:00	2024-11-08T04:00:00	2	Temperatura media	14.6
40082	7	Sololá	717	San Juan la Laguna	12	San Juan la Laguna	3	Marzo	2023-04-03T00:00:00	2024-11-08T04:00:00	4	Temperatura máxima	15
40083	7	Sololá	717	San Juan la Laguna	12	San Juan la Laguna	3	Marzo	2023-04-03T00:00:00	2024-11-08T04:00:00	3	Temperatura mínima	14.4
40084	7	Sololá	717	San Juan la Laguna	12	San Juan la Laguna	3	Marzo	2023-04-03T00:00:00	2024-11-08T04:00:00	5	Humedad	85
40085	7	Sololá	717	San Juan la Laguna	12	San Juan la Laguna	3	Marzo	2023-04-03T00:00:00	2024-11-08T04:00:00	6	Velocidad del viento	4.8
40086	7	Sololá	717	San Juan la Laguna	12	San Juan la Laguna	3	Marzo	2023-04-03T00:00:00	2024-11-08T04:00:00	7	Dirección del viento	4.83
40087	7	Sololá	717	San Juan la Laguna	12	San Juan la Laguna	3	Marzo	2023-04-03T00:00:00	2024-11-08T04:00:00	1	Precipitación	0
40088	7	Sololá	717	San Juan la Laguna	12	San Juan la Laguna	3	Marzo	2023-04-03T00:00:00	2024-11-08T04:00:00	8	Radiación solar	0
40089	7	Sololá	717	San Juan la Laguna	12	San Juan la Laguna	3	Marzo	2023-04-03T00:00:00	2024-11-08T05:00:00	2	Temperatura media	14.8
40090	7	Sololá	717	San Juan la Laguna	12	San Juan la Laguna	3	Marzo	2023-04-03T00:00:00	2024-11-08T05:00:00	4	Temperatura máxima	14.9
40091	7	Sololá	717	San Juan la Laguna	12	San Juan la Laguna	3	Marzo	2023-04-03T00:00:00	2024-11-08T05:00:00	3	Temperatura mínima	14.6
40092	7	Sololá	717	San Juan la Laguna	12	San Juan la Laguna	3	Marzo	2023-04-03T00:00:00	2024-11-08T05:00:00	5	Humedad	83
40093	7	Sololá	717	San Juan la Laguna	12	San Juan la Laguna	3	Marzo	2023-04-03T00:00:00	2024-11-08T05:00:00	6	Velocidad del viento	0
40094	7	Sololá	717	San Juan la Laguna	12	San Juan la Laguna	3	Marzo	2023-04-03T00:00:00	2024-11-08T05:00:00	7	Dirección del viento	0
40095	7	Sololá	717	San Juan la Laguna	12	San Juan la Laguna	3	Marzo	2023-04-03T00:00:00	2024-11-08T05:00:00	1	Precipitación	0
40096	7	Sololá	717	San Juan la Laguna	12	San Juan la Laguna	3	Marzo	2023-04-03T00:00:00	2024-11-08T05:00:00	8	Radiación solar	0
40097	7	Sololá	717	San Juan la Laguna	12	San Juan la Laguna	3	Marzo	2023-04-03T00:00:00	2024-11-08T06:00:00	2	Temperatura media	13.9
40098	7	Sololá	717	San Juan la Laguna	12	San Juan la Laguna	3	Marzo	2023-04-03T00:00:00	2024-11-08T06:00:00	4	Temperatura máxima	14.8
40099	7	Sololá	717	San Juan la Laguna	12	San Juan la Laguna	3	Marzo	2023-04-03T00:00:00	2024-11-08T06:00:00	3	Temperatura mínima	13.9
40100	7	Sololá	717	San Juan la Laguna	12	San Juan la Laguna	3	Marzo	2023-04-03T00:00:00	2024-11-08T06:00:00	5	Humedad	86
40101	7	Sololá	717	San Juan la Laguna	12	San Juan la Laguna	3	Marzo	2023-04-03T00:00:00	2024-11-08T06:00:00	6	Velocidad del viento	1.6
40102	7	Sololá	717	San Juan la Laguna	12	San Juan la Laguna	3	Marzo	2023-04-03T00:00:00	2024-11-08T06:00:00	7	Dirección del viento	1.61
40103	7	Sololá	717	San Juan la Laguna	12	San Juan la Laguna	3	Marzo	2023-04-03T00:00:00	2024-11-08T06:00:00	1	Precipitación	0
40104	7	Sololá	717	San Juan la Laguna	12	San Juan la Laguna	3	Marzo	2023-04-03T00:00:00	2024-11-08T06:00:00	8	Radiación solar	0
40105	7	Sololá	717	San Juan la Laguna	12	San Juan la Laguna	3	Marzo	2023-04-03T00:00:00	2024-11-08T07:00:00	2	Temperatura media	13.7
40106	7	Sololá	717	San Juan la Laguna	12	San Juan la Laguna	3	Marzo	2023-04-03T00:00:00	2024-11-08T07:00:00	4	Temperatura máxima	13.9
40107	7	Sololá	717	San Juan la Laguna	12	San Juan la Laguna	3	Marzo	2023-04-03T00:00:00	2024-11-08T07:00:00	3	Temperatura mínima	13.4
40108	7	Sololá	717	San Juan la Laguna	12	San Juan la Laguna	3	Marzo	2023-04-03T00:00:00	2024-11-08T07:00:00	5	Humedad	84
40109	7	Sololá	717	San Juan la Laguna	12	San Juan la Laguna	3	Marzo	2023-04-03T00:00:00	2024-11-08T07:00:00	6	Velocidad del viento	4.8
40110	7	Sololá	717	San Juan la Laguna	12	San Juan la Laguna	3	Marzo	2023-04-03T00:00:00	2024-11-08T07:00:00	7	Dirección del viento	4.83
40111	7	Sololá	717	San Juan la Laguna	12	San Juan la Laguna	3	Marzo	2023-04-03T00:00:00	2024-11-08T07:00:00	1	Precipitación	0
40112	7	Sololá	717	San Juan la Laguna	12	San Juan la Laguna	3	Marzo	2023-04-03T00:00:00	2024-11-08T07:00:00	8	Radiación solar	16
40113	7	Sololá	717	San Juan la Laguna	12	San Juan la Laguna	3	Marzo	2023-04-03T00:00:00	2024-11-08T08:00:00	2	Temperatura media	17.3
40114	7	Sololá	717	San Juan la Laguna	12	San Juan la Laguna	3	Marzo	2023-04-03T00:00:00	2024-11-08T08:00:00	4	Temperatura máxima	17.3
40115	7	Sololá	717	San Juan la Laguna	12	San Juan la Laguna	3	Marzo	2023-04-03T00:00:00	2024-11-08T08:00:00	3	Temperatura mínima	13.7
40116	7	Sololá	717	San Juan la Laguna	12	San Juan la Laguna	3	Marzo	2023-04-03T00:00:00	2024-11-08T08:00:00	5	Humedad	78
40117	7	Sololá	717	San Juan la Laguna	12	San Juan la Laguna	3	Marzo	2023-04-03T00:00:00	2024-11-08T08:00:00	6	Velocidad del viento	3.2
40118	7	Sololá	717	San Juan la Laguna	12	San Juan la Laguna	3	Marzo	2023-04-03T00:00:00	2024-11-08T08:00:00	7	Dirección del viento	3.22
40119	7	Sololá	717	San Juan la Laguna	12	San Juan la Laguna	3	Marzo	2023-04-03T00:00:00	2024-11-08T08:00:00	1	Precipitación	0
40120	7	Sololá	717	San Juan la Laguna	12	San Juan la Laguna	3	Marzo	2023-04-03T00:00:00	2024-11-08T08:00:00	8	Radiación solar	144
40121	7	Sololá	717	San Juan la Laguna	12	San Juan la Laguna	3	Marzo	2023-04-03T00:00:00	2024-11-08T09:00:00	2	Temperatura media	20.2
40122	7	Sololá	717	San Juan la Laguna	12	San Juan la Laguna	3	Marzo	2023-04-03T00:00:00	2024-11-08T09:00:00	4	Temperatura máxima	20.2
40123	7	Sololá	717	San Juan la Laguna	12	San Juan la Laguna	3	Marzo	2023-04-03T00:00:00	2024-11-08T09:00:00	3	Temperatura mínima	17.4
40124	7	Sololá	717	San Juan la Laguna	12	San Juan la Laguna	3	Marzo	2023-04-03T00:00:00	2024-11-08T09:00:00	5	Humedad	69
40125	7	Sololá	717	San Juan la Laguna	12	San Juan la Laguna	3	Marzo	2023-04-03T00:00:00	2024-11-08T09:00:00	6	Velocidad del viento	1.6
40126	7	Sololá	717	San Juan la Laguna	12	San Juan la Laguna	3	Marzo	2023-04-03T00:00:00	2024-11-08T09:00:00	7	Dirección del viento	1.61
40127	7	Sololá	717	San Juan la Laguna	12	San Juan la Laguna	3	Marzo	2023-04-03T00:00:00	2024-11-08T09:00:00	1	Precipitación	0
40128	7	Sololá	717	San Juan la Laguna	12	San Juan la Laguna	3	Marzo	2023-04-03T00:00:00	2024-11-08T09:00:00	8	Radiación solar	396
40129	7	Sololá	717	San Juan la Laguna	12	San Juan la Laguna	3	Marzo	2023-04-03T00:00:00	2024-11-08T10:00:00	2	Temperatura media	22.4
40130	7	Sololá	717	San Juan la Laguna	12	San Juan la Laguna	3	Marzo	2023-04-03T00:00:00	2024-11-08T10:00:00	4	Temperatura máxima	22.6
40131	7	Sololá	717	San Juan la Laguna	12	San Juan la Laguna	3	Marzo	2023-04-03T00:00:00	2024-11-08T10:00:00	3	Temperatura mínima	20.1
40132	7	Sololá	717	San Juan la Laguna	12	San Juan la Laguna	3	Marzo	2023-04-03T00:00:00	2024-11-08T10:00:00	5	Humedad	56
40133	7	Sololá	717	San Juan la Laguna	12	San Juan la Laguna	3	Marzo	2023-04-03T00:00:00	2024-11-08T10:00:00	6	Velocidad del viento	1.6
40134	7	Sololá	717	San Juan la Laguna	12	San Juan la Laguna	3	Marzo	2023-04-03T00:00:00	2024-11-08T10:00:00	7	Dirección del viento	1.61
40135	7	Sololá	717	San Juan la Laguna	12	San Juan la Laguna	3	Marzo	2023-04-03T00:00:00	2024-11-08T10:00:00	1	Precipitación	0
40136	7	Sololá	717	San Juan la Laguna	12	San Juan la Laguna	3	Marzo	2023-04-03T00:00:00	2024-11-08T10:00:00	8	Radiación solar	610
40137	7	Sololá	717	San Juan la Laguna	12	San Juan la Laguna	3	Marzo	2023-04-03T00:00:00	2024-11-08T11:00:00	2	Temperatura media	21.2
40138	7	Sololá	717	San Juan la Laguna	12	San Juan la Laguna	3	Marzo	2023-04-03T00:00:00	2024-11-08T11:00:00	4	Temperatura máxima	23.9
40139	7	Sololá	717	San Juan la Laguna	12	San Juan la Laguna	3	Marzo	2023-04-03T00:00:00	2024-11-08T11:00:00	3	Temperatura mínima	21.2
40140	7	Sololá	717	San Juan la Laguna	12	San Juan la Laguna	3	Marzo	2023-04-03T00:00:00	2024-11-08T11:00:00	5	Humedad	71
40141	7	Sololá	717	San Juan la Laguna	12	San Juan la Laguna	3	Marzo	2023-04-03T00:00:00	2024-11-08T11:00:00	6	Velocidad del viento	3.2
40142	7	Sololá	717	San Juan la Laguna	12	San Juan la Laguna	3	Marzo	2023-04-03T00:00:00	2024-11-08T11:00:00	7	Dirección del viento	3.22
40143	7	Sololá	717	San Juan la Laguna	12	San Juan la Laguna	3	Marzo	2023-04-03T00:00:00	2024-11-08T11:00:00	1	Precipitación	0
40144	7	Sololá	717	San Juan la Laguna	12	San Juan la Laguna	3	Marzo	2023-04-03T00:00:00	2024-11-08T11:00:00	8	Radiación solar	771
40145	7	Sololá	717	San Juan la Laguna	12	San Juan la Laguna	3	Marzo	2023-04-03T00:00:00	2024-11-08T12:00:00	2	Temperatura media	23.9
40146	7	Sololá	717	San Juan la Laguna	12	San Juan la Laguna	3	Marzo	2023-04-03T00:00:00	2024-11-08T12:00:00	4	Temperatura máxima	23.9
40147	7	Sololá	717	San Juan la Laguna	12	San Juan la Laguna	3	Marzo	2023-04-03T00:00:00	2024-11-08T12:00:00	3	Temperatura mínima	20.7
40148	7	Sololá	717	San Juan la Laguna	12	San Juan la Laguna	3	Marzo	2023-04-03T00:00:00	2024-11-08T12:00:00	5	Humedad	61
40149	7	Sololá	717	San Juan la Laguna	12	San Juan la Laguna	3	Marzo	2023-04-03T00:00:00	2024-11-08T12:00:00	6	Velocidad del viento	4.8
40150	7	Sololá	717	San Juan la Laguna	12	San Juan la Laguna	3	Marzo	2023-04-03T00:00:00	2024-11-08T12:00:00	7	Dirección del viento	4.83
40151	7	Sololá	717	San Juan la Laguna	12	San Juan la Laguna	3	Marzo	2023-04-03T00:00:00	2024-11-08T12:00:00	1	Precipitación	0
40152	7	Sololá	717	San Juan la Laguna	12	San Juan la Laguna	3	Marzo	2023-04-03T00:00:00	2024-11-08T12:00:00	8	Radiación solar	778
40153	7	Sololá	717	San Juan la Laguna	12	San Juan la Laguna	3	Marzo	2023-04-03T00:00:00	2024-11-08T13:00:00	2	Temperatura media	23.2
40154	7	Sololá	717	San Juan la Laguna	12	San Juan la Laguna	3	Marzo	2023-04-03T00:00:00	2024-11-08T13:00:00	4	Temperatura máxima	24.7
40155	7	Sololá	717	San Juan la Laguna	12	San Juan la Laguna	3	Marzo	2023-04-03T00:00:00	2024-11-08T13:00:00	3	Temperatura mínima	23.2
40156	7	Sololá	717	San Juan la Laguna	12	San Juan la Laguna	3	Marzo	2023-04-03T00:00:00	2024-11-08T13:00:00	5	Humedad	63
40157	7	Sololá	717	San Juan la Laguna	12	San Juan la Laguna	3	Marzo	2023-04-03T00:00:00	2024-11-08T13:00:00	6	Velocidad del viento	11.3
40158	7	Sololá	717	San Juan la Laguna	12	San Juan la Laguna	3	Marzo	2023-04-03T00:00:00	2024-11-08T13:00:00	7	Dirección del viento	11.27
40159	7	Sololá	717	San Juan la Laguna	12	San Juan la Laguna	3	Marzo	2023-04-03T00:00:00	2024-11-08T13:00:00	1	Precipitación	0
40160	7	Sololá	717	San Juan la Laguna	12	San Juan la Laguna	3	Marzo	2023-04-03T00:00:00	2024-11-08T13:00:00	8	Radiación solar	888
40161	7	Sololá	717	San Juan la Laguna	12	San Juan la Laguna	3	Marzo	2023-04-03T00:00:00	2024-11-08T14:00:00	2	Temperatura media	23.9
40162	7	Sololá	717	San Juan la Laguna	12	San Juan la Laguna	3	Marzo	2023-04-03T00:00:00	2024-11-08T14:00:00	4	Temperatura máxima	24.1
40163	7	Sololá	717	San Juan la Laguna	12	San Juan la Laguna	3	Marzo	2023-04-03T00:00:00	2024-11-08T14:00:00	3	Temperatura mínima	23.2
40164	7	Sololá	717	San Juan la Laguna	12	San Juan la Laguna	3	Marzo	2023-04-03T00:00:00	2024-11-08T14:00:00	5	Humedad	61
40165	7	Sololá	717	San Juan la Laguna	12	San Juan la Laguna	3	Marzo	2023-04-03T00:00:00	2024-11-08T14:00:00	6	Velocidad del viento	11.3
40166	7	Sololá	717	San Juan la Laguna	12	San Juan la Laguna	3	Marzo	2023-04-03T00:00:00	2024-11-08T14:00:00	7	Dirección del viento	11.27
40167	7	Sololá	717	San Juan la Laguna	12	San Juan la Laguna	3	Marzo	2023-04-03T00:00:00	2024-11-08T14:00:00	1	Precipitación	0
40168	7	Sololá	717	San Juan la Laguna	12	San Juan la Laguna	3	Marzo	2023-04-03T00:00:00	2024-11-08T14:00:00	8	Radiación solar	830
40169	7	Sololá	717	San Juan la Laguna	12	San Juan la Laguna	3	Marzo	2023-04-03T00:00:00	2024-11-08T15:00:00	2	Temperatura media	23.2
40170	7	Sololá	717	San Juan la Laguna	12	San Juan la Laguna	3	Marzo	2023-04-03T00:00:00	2024-11-08T15:00:00	4	Temperatura máxima	23.9
40171	7	Sololá	717	San Juan la Laguna	12	San Juan la Laguna	3	Marzo	2023-04-03T00:00:00	2024-11-08T15:00:00	3	Temperatura mínima	22.6
40172	7	Sololá	717	San Juan la Laguna	12	San Juan la Laguna	3	Marzo	2023-04-03T00:00:00	2024-11-08T15:00:00	5	Humedad	64
40173	7	Sololá	717	San Juan la Laguna	12	San Juan la Laguna	3	Marzo	2023-04-03T00:00:00	2024-11-08T15:00:00	6	Velocidad del viento	12.9
40174	7	Sololá	717	San Juan la Laguna	12	San Juan la Laguna	3	Marzo	2023-04-03T00:00:00	2024-11-08T15:00:00	7	Dirección del viento	12.87
40175	7	Sololá	717	San Juan la Laguna	12	San Juan la Laguna	3	Marzo	2023-04-03T00:00:00	2024-11-08T15:00:00	1	Precipitación	0
40176	7	Sololá	717	San Juan la Laguna	12	San Juan la Laguna	3	Marzo	2023-04-03T00:00:00	2024-11-08T15:00:00	8	Radiación solar	700
40177	7	Sololá	717	San Juan la Laguna	12	San Juan la Laguna	3	Marzo	2023-04-03T00:00:00	2024-11-08T16:00:00	2	Temperatura media	22.1
40178	7	Sololá	717	San Juan la Laguna	12	San Juan la Laguna	3	Marzo	2023-04-03T00:00:00	2024-11-08T16:00:00	4	Temperatura máxima	23.3
40179	7	Sololá	717	San Juan la Laguna	12	San Juan la Laguna	3	Marzo	2023-04-03T00:00:00	2024-11-08T16:00:00	3	Temperatura mínima	22
40180	7	Sololá	717	San Juan la Laguna	12	San Juan la Laguna	3	Marzo	2023-04-03T00:00:00	2024-11-08T16:00:00	5	Humedad	69
40181	7	Sololá	717	San Juan la Laguna	12	San Juan la Laguna	3	Marzo	2023-04-03T00:00:00	2024-11-08T16:00:00	6	Velocidad del viento	9.7
40182	7	Sololá	717	San Juan la Laguna	12	San Juan la Laguna	3	Marzo	2023-04-03T00:00:00	2024-11-08T16:00:00	7	Dirección del viento	9.66
40183	7	Sololá	717	San Juan la Laguna	12	San Juan la Laguna	3	Marzo	2023-04-03T00:00:00	2024-11-08T16:00:00	1	Precipitación	0
40184	7	Sololá	717	San Juan la Laguna	12	San Juan la Laguna	3	Marzo	2023-04-03T00:00:00	2024-11-08T16:00:00	8	Radiación solar	390
40185	7	Sololá	717	San Juan la Laguna	12	San Juan la Laguna	3	Marzo	2023-04-03T00:00:00	2024-11-08T17:00:00	2	Temperatura media	21.5
40186	7	Sololá	717	San Juan la Laguna	12	San Juan la Laguna	3	Marzo	2023-04-03T00:00:00	2024-11-08T17:00:00	4	Temperatura máxima	22.4
40187	7	Sololá	717	San Juan la Laguna	12	San Juan la Laguna	3	Marzo	2023-04-03T00:00:00	2024-11-08T17:00:00	3	Temperatura mínima	21.5
40188	7	Sololá	717	San Juan la Laguna	12	San Juan la Laguna	3	Marzo	2023-04-03T00:00:00	2024-11-08T17:00:00	5	Humedad	70
40189	7	Sololá	717	San Juan la Laguna	12	San Juan la Laguna	3	Marzo	2023-04-03T00:00:00	2024-11-08T17:00:00	6	Velocidad del viento	8
40190	7	Sololá	717	San Juan la Laguna	12	San Juan la Laguna	3	Marzo	2023-04-03T00:00:00	2024-11-08T17:00:00	7	Dirección del viento	8.05
40191	7	Sololá	717	San Juan la Laguna	12	San Juan la Laguna	3	Marzo	2023-04-03T00:00:00	2024-11-08T17:00:00	1	Precipitación	0
40192	7	Sololá	717	San Juan la Laguna	12	San Juan la Laguna	3	Marzo	2023-04-03T00:00:00	2024-11-08T17:00:00	8	Radiación solar	242
40193	7	Sololá	717	San Juan la Laguna	12	San Juan la Laguna	3	Marzo	2023-04-03T00:00:00	2024-11-08T18:00:00	2	Temperatura media	20.4
40194	7	Sololá	717	San Juan la Laguna	12	San Juan la Laguna	3	Marzo	2023-04-03T00:00:00	2024-11-08T18:00:00	4	Temperatura máxima	21.5
40195	7	Sololá	717	San Juan la Laguna	12	San Juan la Laguna	3	Marzo	2023-04-03T00:00:00	2024-11-08T18:00:00	3	Temperatura mínima	20.4
40196	7	Sololá	717	San Juan la Laguna	12	San Juan la Laguna	3	Marzo	2023-04-03T00:00:00	2024-11-08T18:00:00	5	Humedad	76
40197	7	Sololá	717	San Juan la Laguna	12	San Juan la Laguna	3	Marzo	2023-04-03T00:00:00	2024-11-08T18:00:00	6	Velocidad del viento	3.2
40198	7	Sololá	717	San Juan la Laguna	12	San Juan la Laguna	3	Marzo	2023-04-03T00:00:00	2024-11-08T18:00:00	7	Dirección del viento	3.22
40199	7	Sololá	717	San Juan la Laguna	12	San Juan la Laguna	3	Marzo	2023-04-03T00:00:00	2024-11-08T18:00:00	1	Precipitación	0
40200	7	Sololá	717	San Juan la Laguna	12	San Juan la Laguna	3	Marzo	2023-04-03T00:00:00	2024-11-08T18:00:00	8	Radiación solar	30
40201	7	Sololá	717	San Juan la Laguna	12	San Juan la Laguna	3	Marzo	2023-04-03T00:00:00	2024-11-08T19:00:00	2	Temperatura media	19.6
40202	7	Sololá	717	San Juan la Laguna	12	San Juan la Laguna	3	Marzo	2023-04-03T00:00:00	2024-11-08T19:00:00	4	Temperatura máxima	20.4
40203	7	Sololá	717	San Juan la Laguna	12	San Juan la Laguna	3	Marzo	2023-04-03T00:00:00	2024-11-08T19:00:00	3	Temperatura mínima	19.6
40204	7	Sololá	717	San Juan la Laguna	12	San Juan la Laguna	3	Marzo	2023-04-03T00:00:00	2024-11-08T19:00:00	5	Humedad	78
40205	7	Sololá	717	San Juan la Laguna	12	San Juan la Laguna	3	Marzo	2023-04-03T00:00:00	2024-11-08T19:00:00	6	Velocidad del viento	1.6
40206	7	Sololá	717	San Juan la Laguna	12	San Juan la Laguna	3	Marzo	2023-04-03T00:00:00	2024-11-08T19:00:00	7	Dirección del viento	1.61
40207	7	Sololá	717	San Juan la Laguna	12	San Juan la Laguna	3	Marzo	2023-04-03T00:00:00	2024-11-08T19:00:00	1	Precipitación	0
40208	7	Sololá	717	San Juan la Laguna	12	San Juan la Laguna	3	Marzo	2023-04-03T00:00:00	2024-11-08T19:00:00	8	Radiación solar	0
40209	7	Sololá	717	San Juan la Laguna	12	San Juan la Laguna	3	Marzo	2023-04-03T00:00:00	2024-11-08T20:00:00	2	Temperatura media	19.1
40210	7	Sololá	717	San Juan la Laguna	12	San Juan la Laguna	3	Marzo	2023-04-03T00:00:00	2024-11-08T20:00:00	4	Temperatura máxima	19.6
40211	7	Sololá	717	San Juan la Laguna	12	San Juan la Laguna	3	Marzo	2023-04-03T00:00:00	2024-11-08T20:00:00	3	Temperatura mínima	19.1
40212	7	Sololá	717	San Juan la Laguna	12	San Juan la Laguna	3	Marzo	2023-04-03T00:00:00	2024-11-08T20:00:00	5	Humedad	80
40213	7	Sololá	717	San Juan la Laguna	12	San Juan la Laguna	3	Marzo	2023-04-03T00:00:00	2024-11-08T20:00:00	6	Velocidad del viento	0
40214	7	Sololá	717	San Juan la Laguna	12	San Juan la Laguna	3	Marzo	2023-04-03T00:00:00	2024-11-08T20:00:00	7	Dirección del viento	0
40215	7	Sololá	717	San Juan la Laguna	12	San Juan la Laguna	3	Marzo	2023-04-03T00:00:00	2024-11-08T20:00:00	1	Precipitación	0
40216	7	Sololá	717	San Juan la Laguna	12	San Juan la Laguna	3	Marzo	2023-04-03T00:00:00	2024-11-08T20:00:00	8	Radiación solar	0
40217	7	Sololá	717	San Juan la Laguna	12	San Juan la Laguna	3	Marzo	2023-04-03T00:00:00	2024-11-08T21:00:00	2	Temperatura media	18.1
40218	7	Sololá	717	San Juan la Laguna	12	San Juan la Laguna	3	Marzo	2023-04-03T00:00:00	2024-11-08T21:00:00	4	Temperatura máxima	19.1
40219	7	Sololá	717	San Juan la Laguna	12	San Juan la Laguna	3	Marzo	2023-04-03T00:00:00	2024-11-08T21:00:00	3	Temperatura mínima	18
40220	7	Sololá	717	San Juan la Laguna	12	San Juan la Laguna	3	Marzo	2023-04-03T00:00:00	2024-11-08T21:00:00	5	Humedad	82
40221	7	Sololá	717	San Juan la Laguna	12	San Juan la Laguna	3	Marzo	2023-04-03T00:00:00	2024-11-08T21:00:00	6	Velocidad del viento	0
40222	7	Sololá	717	San Juan la Laguna	12	San Juan la Laguna	3	Marzo	2023-04-03T00:00:00	2024-11-08T21:00:00	7	Dirección del viento	0
40223	7	Sololá	717	San Juan la Laguna	12	San Juan la Laguna	3	Marzo	2023-04-03T00:00:00	2024-11-08T21:00:00	1	Precipitación	0
40224	7	Sololá	717	San Juan la Laguna	12	San Juan la Laguna	3	Marzo	2023-04-03T00:00:00	2024-11-08T21:00:00	8	Radiación solar	0
40225	7	Sololá	717	San Juan la Laguna	12	San Juan la Laguna	3	Marzo	2023-04-03T00:00:00	2024-11-08T22:00:00	2	Temperatura media	17.7
40226	7	Sololá	717	San Juan la Laguna	12	San Juan la Laguna	3	Marzo	2023-04-03T00:00:00	2024-11-08T22:00:00	4	Temperatura máxima	18.2
40227	7	Sololá	717	San Juan la Laguna	12	San Juan la Laguna	3	Marzo	2023-04-03T00:00:00	2024-11-08T22:00:00	3	Temperatura mínima	17.7
40228	7	Sololá	717	San Juan la Laguna	12	San Juan la Laguna	3	Marzo	2023-04-03T00:00:00	2024-11-08T22:00:00	5	Humedad	83
40229	7	Sololá	717	San Juan la Laguna	12	San Juan la Laguna	3	Marzo	2023-04-03T00:00:00	2024-11-08T22:00:00	6	Velocidad del viento	0
40230	7	Sololá	717	San Juan la Laguna	12	San Juan la Laguna	3	Marzo	2023-04-03T00:00:00	2024-11-08T22:00:00	7	Dirección del viento	0
40231	7	Sololá	717	San Juan la Laguna	12	San Juan la Laguna	3	Marzo	2023-04-03T00:00:00	2024-11-08T22:00:00	1	Precipitación	0
40232	7	Sololá	717	San Juan la Laguna	12	San Juan la Laguna	3	Marzo	2023-04-03T00:00:00	2024-11-08T22:00:00	8	Radiación solar	0
40233	7	Sololá	717	San Juan la Laguna	12	San Juan la Laguna	3	Marzo	2023-04-03T00:00:00	2024-11-08T23:00:00	2	Temperatura media	17
40234	7	Sololá	717	San Juan la Laguna	12	San Juan la Laguna	3	Marzo	2023-04-03T00:00:00	2024-11-08T23:00:00	4	Temperatura máxima	17.7
40235	7	Sololá	717	San Juan la Laguna	12	San Juan la Laguna	3	Marzo	2023-04-03T00:00:00	2024-11-08T23:00:00	3	Temperatura mínima	17
40236	7	Sololá	717	San Juan la Laguna	12	San Juan la Laguna	3	Marzo	2023-04-03T00:00:00	2024-11-08T23:00:00	5	Humedad	86
40237	7	Sololá	717	San Juan la Laguna	12	San Juan la Laguna	3	Marzo	2023-04-03T00:00:00	2024-11-08T23:00:00	6	Velocidad del viento	0
40238	7	Sololá	717	San Juan la Laguna	12	San Juan la Laguna	3	Marzo	2023-04-03T00:00:00	2024-11-08T23:00:00	7	Dirección del viento	0
40239	7	Sololá	717	San Juan la Laguna	12	San Juan la Laguna	3	Marzo	2023-04-03T00:00:00	2024-11-08T23:00:00	1	Precipitación	0
40240	7	Sololá	717	San Juan la Laguna	12	San Juan la Laguna	3	Marzo	2023-04-03T00:00:00	2024-11-08T23:00:00	8	Radiación solar	0
40241	7	Sololá	717	San Juan la Laguna	12	San Juan la Laguna	3	Marzo	2023-05-03T00:00:00	2024-11-08T00:00:00	2	Temperatura media	16.8
40242	7	Sololá	717	San Juan la Laguna	12	San Juan la Laguna	3	Marzo	2023-05-03T00:00:00	2024-11-08T00:00:00	4	Temperatura máxima	17.1
40243	7	Sololá	717	San Juan la Laguna	12	San Juan la Laguna	3	Marzo	2023-05-03T00:00:00	2024-11-08T00:00:00	3	Temperatura mínima	16.8
40244	7	Sololá	717	San Juan la Laguna	12	San Juan la Laguna	3	Marzo	2023-05-03T00:00:00	2024-11-08T00:00:00	5	Humedad	82
40245	7	Sololá	717	San Juan la Laguna	12	San Juan la Laguna	3	Marzo	2023-05-03T00:00:00	2024-11-08T00:00:00	6	Velocidad del viento	1.6
40246	7	Sololá	717	San Juan la Laguna	12	San Juan la Laguna	3	Marzo	2023-05-03T00:00:00	2024-11-08T00:00:00	7	Dirección del viento	1.61
40247	7	Sololá	717	San Juan la Laguna	12	San Juan la Laguna	3	Marzo	2023-05-03T00:00:00	2024-11-08T00:00:00	1	Precipitación	0
40248	7	Sololá	717	San Juan la Laguna	12	San Juan la Laguna	3	Marzo	2023-05-03T00:00:00	2024-11-08T00:00:00	8	Radiación solar	0
40249	7	Sololá	717	San Juan la Laguna	12	San Juan la Laguna	3	Marzo	2023-05-03T00:00:00	2024-11-08T01:00:00	2	Temperatura media	15.6
40250	7	Sololá	717	San Juan la Laguna	12	San Juan la Laguna	3	Marzo	2023-05-03T00:00:00	2024-11-08T01:00:00	4	Temperatura máxima	16.8
40251	7	Sololá	717	San Juan la Laguna	12	San Juan la Laguna	3	Marzo	2023-05-03T00:00:00	2024-11-08T01:00:00	3	Temperatura mínima	15.6
40252	7	Sololá	717	San Juan la Laguna	12	San Juan la Laguna	3	Marzo	2023-05-03T00:00:00	2024-11-08T01:00:00	5	Humedad	85
40253	7	Sololá	717	San Juan la Laguna	12	San Juan la Laguna	3	Marzo	2023-05-03T00:00:00	2024-11-08T01:00:00	6	Velocidad del viento	1.6
40254	7	Sololá	717	San Juan la Laguna	12	San Juan la Laguna	3	Marzo	2023-05-03T00:00:00	2024-11-08T01:00:00	7	Dirección del viento	1.61
40255	7	Sololá	717	San Juan la Laguna	12	San Juan la Laguna	3	Marzo	2023-05-03T00:00:00	2024-11-08T01:00:00	1	Precipitación	0
40256	7	Sololá	717	San Juan la Laguna	12	San Juan la Laguna	3	Marzo	2023-05-03T00:00:00	2024-11-08T01:00:00	8	Radiación solar	0
40257	7	Sololá	717	San Juan la Laguna	12	San Juan la Laguna	3	Marzo	2023-05-03T00:00:00	2024-11-08T02:00:00	2	Temperatura media	15.4
40258	7	Sololá	717	San Juan la Laguna	12	San Juan la Laguna	3	Marzo	2023-05-03T00:00:00	2024-11-08T02:00:00	4	Temperatura máxima	15.6
40259	7	Sololá	717	San Juan la Laguna	12	San Juan la Laguna	3	Marzo	2023-05-03T00:00:00	2024-11-08T02:00:00	3	Temperatura mínima	15.3
40260	7	Sololá	717	San Juan la Laguna	12	San Juan la Laguna	3	Marzo	2023-05-03T00:00:00	2024-11-08T02:00:00	5	Humedad	85
40261	7	Sololá	717	San Juan la Laguna	12	San Juan la Laguna	3	Marzo	2023-05-03T00:00:00	2024-11-08T02:00:00	6	Velocidad del viento	1.6
40262	7	Sololá	717	San Juan la Laguna	12	San Juan la Laguna	3	Marzo	2023-05-03T00:00:00	2024-11-08T02:00:00	7	Dirección del viento	1.61
40263	7	Sololá	717	San Juan la Laguna	12	San Juan la Laguna	3	Marzo	2023-05-03T00:00:00	2024-11-08T02:00:00	1	Precipitación	0
40264	7	Sololá	717	San Juan la Laguna	12	San Juan la Laguna	3	Marzo	2023-05-03T00:00:00	2024-11-08T02:00:00	8	Radiación solar	0
40265	7	Sololá	717	San Juan la Laguna	12	San Juan la Laguna	3	Marzo	2023-05-03T00:00:00	2024-11-08T03:00:00	2	Temperatura media	15.3
40266	7	Sololá	717	San Juan la Laguna	12	San Juan la Laguna	3	Marzo	2023-05-03T00:00:00	2024-11-08T03:00:00	4	Temperatura máxima	15.4
40267	7	Sololá	717	San Juan la Laguna	12	San Juan la Laguna	3	Marzo	2023-05-03T00:00:00	2024-11-08T03:00:00	3	Temperatura mínima	15.2
40268	7	Sololá	717	San Juan la Laguna	12	San Juan la Laguna	3	Marzo	2023-05-03T00:00:00	2024-11-08T03:00:00	5	Humedad	82
40269	7	Sololá	717	San Juan la Laguna	12	San Juan la Laguna	3	Marzo	2023-05-03T00:00:00	2024-11-08T03:00:00	6	Velocidad del viento	3.2
40270	7	Sololá	717	San Juan la Laguna	12	San Juan la Laguna	3	Marzo	2023-05-03T00:00:00	2024-11-08T03:00:00	7	Dirección del viento	3.22
40271	7	Sololá	717	San Juan la Laguna	12	San Juan la Laguna	3	Marzo	2023-05-03T00:00:00	2024-11-08T03:00:00	1	Precipitación	0
40272	7	Sololá	717	San Juan la Laguna	12	San Juan la Laguna	3	Marzo	2023-05-03T00:00:00	2024-11-08T03:00:00	8	Radiación solar	0
40273	7	Sololá	717	San Juan la Laguna	12	San Juan la Laguna	3	Marzo	2023-05-03T00:00:00	2024-11-08T04:00:00	2	Temperatura media	14.6
40274	7	Sololá	717	San Juan la Laguna	12	San Juan la Laguna	3	Marzo	2023-05-03T00:00:00	2024-11-08T04:00:00	4	Temperatura máxima	15.3
40275	7	Sololá	717	San Juan la Laguna	12	San Juan la Laguna	3	Marzo	2023-05-03T00:00:00	2024-11-08T04:00:00	3	Temperatura mínima	14.6
40276	7	Sololá	717	San Juan la Laguna	12	San Juan la Laguna	3	Marzo	2023-05-03T00:00:00	2024-11-08T04:00:00	5	Humedad	83
40277	7	Sololá	717	San Juan la Laguna	12	San Juan la Laguna	3	Marzo	2023-05-03T00:00:00	2024-11-08T04:00:00	6	Velocidad del viento	3.2
40278	7	Sololá	717	San Juan la Laguna	12	San Juan la Laguna	3	Marzo	2023-05-03T00:00:00	2024-11-08T04:00:00	7	Dirección del viento	3.22
40279	7	Sololá	717	San Juan la Laguna	12	San Juan la Laguna	3	Marzo	2023-05-03T00:00:00	2024-11-08T04:00:00	1	Precipitación	0
40280	7	Sololá	717	San Juan la Laguna	12	San Juan la Laguna	3	Marzo	2023-05-03T00:00:00	2024-11-08T04:00:00	8	Radiación solar	0
40281	7	Sololá	717	San Juan la Laguna	12	San Juan la Laguna	3	Marzo	2023-05-03T00:00:00	2024-11-08T05:00:00	2	Temperatura media	14.3
40282	7	Sololá	717	San Juan la Laguna	12	San Juan la Laguna	3	Marzo	2023-05-03T00:00:00	2024-11-08T05:00:00	4	Temperatura máxima	14.7
40283	7	Sololá	717	San Juan la Laguna	12	San Juan la Laguna	3	Marzo	2023-05-03T00:00:00	2024-11-08T05:00:00	3	Temperatura mínima	14.3
40284	7	Sololá	717	San Juan la Laguna	12	San Juan la Laguna	3	Marzo	2023-05-03T00:00:00	2024-11-08T05:00:00	5	Humedad	82
40285	7	Sololá	717	San Juan la Laguna	12	San Juan la Laguna	3	Marzo	2023-05-03T00:00:00	2024-11-08T05:00:00	6	Velocidad del viento	3.2
40286	7	Sololá	717	San Juan la Laguna	12	San Juan la Laguna	3	Marzo	2023-05-03T00:00:00	2024-11-08T05:00:00	7	Dirección del viento	3.22
40287	7	Sololá	717	San Juan la Laguna	12	San Juan la Laguna	3	Marzo	2023-05-03T00:00:00	2024-11-08T05:00:00	1	Precipitación	0
40288	7	Sololá	717	San Juan la Laguna	12	San Juan la Laguna	3	Marzo	2023-05-03T00:00:00	2024-11-08T05:00:00	8	Radiación solar	0
40289	7	Sololá	717	San Juan la Laguna	12	San Juan la Laguna	3	Marzo	2023-05-03T00:00:00	2024-11-08T06:00:00	2	Temperatura media	14.1
40290	7	Sololá	717	San Juan la Laguna	12	San Juan la Laguna	3	Marzo	2023-05-03T00:00:00	2024-11-08T06:00:00	4	Temperatura máxima	14.4
40291	7	Sololá	717	San Juan la Laguna	12	San Juan la Laguna	3	Marzo	2023-05-03T00:00:00	2024-11-08T06:00:00	3	Temperatura mínima	14.1
40292	7	Sololá	717	San Juan la Laguna	12	San Juan la Laguna	3	Marzo	2023-05-03T00:00:00	2024-11-08T06:00:00	5	Humedad	82
40293	7	Sololá	717	San Juan la Laguna	12	San Juan la Laguna	3	Marzo	2023-05-03T00:00:00	2024-11-08T06:00:00	6	Velocidad del viento	3.2
40294	7	Sololá	717	San Juan la Laguna	12	San Juan la Laguna	3	Marzo	2023-05-03T00:00:00	2024-11-08T06:00:00	7	Dirección del viento	3.22
40295	7	Sololá	717	San Juan la Laguna	12	San Juan la Laguna	3	Marzo	2023-05-03T00:00:00	2024-11-08T06:00:00	1	Precipitación	0
40296	7	Sololá	717	San Juan la Laguna	12	San Juan la Laguna	3	Marzo	2023-05-03T00:00:00	2024-11-08T06:00:00	8	Radiación solar	0
40297	7	Sololá	717	San Juan la Laguna	12	San Juan la Laguna	3	Marzo	2023-05-03T00:00:00	2024-11-08T07:00:00	2	Temperatura media	14.7
40298	7	Sololá	717	San Juan la Laguna	12	San Juan la Laguna	3	Marzo	2023-05-03T00:00:00	2024-11-08T07:00:00	4	Temperatura máxima	14.7
40299	7	Sololá	717	San Juan la Laguna	12	San Juan la Laguna	3	Marzo	2023-05-03T00:00:00	2024-11-08T07:00:00	3	Temperatura mínima	13.8
40300	7	Sololá	717	San Juan la Laguna	12	San Juan la Laguna	3	Marzo	2023-05-03T00:00:00	2024-11-08T07:00:00	5	Humedad	80
40301	7	Sololá	717	San Juan la Laguna	12	San Juan la Laguna	3	Marzo	2023-05-03T00:00:00	2024-11-08T07:00:00	6	Velocidad del viento	4.8
40302	7	Sololá	717	San Juan la Laguna	12	San Juan la Laguna	3	Marzo	2023-05-03T00:00:00	2024-11-08T07:00:00	7	Dirección del viento	4.83
40303	7	Sololá	717	San Juan la Laguna	12	San Juan la Laguna	3	Marzo	2023-05-03T00:00:00	2024-11-08T07:00:00	1	Precipitación	0
40304	7	Sololá	717	San Juan la Laguna	12	San Juan la Laguna	3	Marzo	2023-05-03T00:00:00	2024-11-08T07:00:00	8	Radiación solar	19
40305	7	Sololá	717	San Juan la Laguna	12	San Juan la Laguna	3	Marzo	2023-05-03T00:00:00	2024-11-08T08:00:00	2	Temperatura media	18.1
40306	7	Sololá	717	San Juan la Laguna	12	San Juan la Laguna	3	Marzo	2023-05-03T00:00:00	2024-11-08T08:00:00	4	Temperatura máxima	18.1
40307	7	Sololá	717	San Juan la Laguna	12	San Juan la Laguna	3	Marzo	2023-05-03T00:00:00	2024-11-08T08:00:00	3	Temperatura mínima	14.7
40308	7	Sololá	717	San Juan la Laguna	12	San Juan la Laguna	3	Marzo	2023-05-03T00:00:00	2024-11-08T08:00:00	5	Humedad	71
40309	7	Sololá	717	San Juan la Laguna	12	San Juan la Laguna	3	Marzo	2023-05-03T00:00:00	2024-11-08T08:00:00	6	Velocidad del viento	3.2
40310	7	Sololá	717	San Juan la Laguna	12	San Juan la Laguna	3	Marzo	2023-05-03T00:00:00	2024-11-08T08:00:00	7	Dirección del viento	3.22
40311	7	Sololá	717	San Juan la Laguna	12	San Juan la Laguna	3	Marzo	2023-05-03T00:00:00	2024-11-08T08:00:00	1	Precipitación	0
40312	7	Sololá	717	San Juan la Laguna	12	San Juan la Laguna	3	Marzo	2023-05-03T00:00:00	2024-11-08T08:00:00	8	Radiación solar	159
40313	7	Sololá	717	San Juan la Laguna	12	San Juan la Laguna	3	Marzo	2023-05-03T00:00:00	2024-11-08T09:00:00	2	Temperatura media	22.2
40314	7	Sololá	717	San Juan la Laguna	12	San Juan la Laguna	3	Marzo	2023-05-03T00:00:00	2024-11-08T09:00:00	4	Temperatura máxima	22.2
40315	7	Sololá	717	San Juan la Laguna	12	San Juan la Laguna	3	Marzo	2023-05-03T00:00:00	2024-11-08T09:00:00	3	Temperatura mínima	18.1
40316	7	Sololá	717	San Juan la Laguna	12	San Juan la Laguna	3	Marzo	2023-05-03T00:00:00	2024-11-08T09:00:00	5	Humedad	60
40317	7	Sololá	717	San Juan la Laguna	12	San Juan la Laguna	3	Marzo	2023-05-03T00:00:00	2024-11-08T09:00:00	6	Velocidad del viento	0
40318	7	Sololá	717	San Juan la Laguna	12	San Juan la Laguna	3	Marzo	2023-05-03T00:00:00	2024-11-08T09:00:00	7	Dirección del viento	0
40319	7	Sololá	717	San Juan la Laguna	12	San Juan la Laguna	3	Marzo	2023-05-03T00:00:00	2024-11-08T09:00:00	1	Precipitación	0
40320	7	Sololá	717	San Juan la Laguna	12	San Juan la Laguna	3	Marzo	2023-05-03T00:00:00	2024-11-08T09:00:00	8	Radiación solar	421
40321	7	Sololá	717	San Juan la Laguna	12	San Juan la Laguna	3	Marzo	2023-05-03T00:00:00	2024-11-08T10:00:00	2	Temperatura media	22.9
40322	7	Sololá	717	San Juan la Laguna	12	San Juan la Laguna	3	Marzo	2023-05-03T00:00:00	2024-11-08T10:00:00	4	Temperatura máxima	23
40323	7	Sololá	717	San Juan la Laguna	12	San Juan la Laguna	3	Marzo	2023-05-03T00:00:00	2024-11-08T10:00:00	3	Temperatura mínima	21.6
40324	7	Sololá	717	San Juan la Laguna	12	San Juan la Laguna	3	Marzo	2023-05-03T00:00:00	2024-11-08T10:00:00	5	Humedad	53
40325	7	Sololá	717	San Juan la Laguna	12	San Juan la Laguna	3	Marzo	2023-05-03T00:00:00	2024-11-08T10:00:00	6	Velocidad del viento	3.2
40326	7	Sololá	717	San Juan la Laguna	12	San Juan la Laguna	3	Marzo	2023-05-03T00:00:00	2024-11-08T10:00:00	7	Dirección del viento	3.22
40327	7	Sololá	717	San Juan la Laguna	12	San Juan la Laguna	3	Marzo	2023-05-03T00:00:00	2024-11-08T10:00:00	1	Precipitación	0
40328	7	Sololá	717	San Juan la Laguna	12	San Juan la Laguna	3	Marzo	2023-05-03T00:00:00	2024-11-08T10:00:00	8	Radiación solar	633
40329	7	Sololá	717	San Juan la Laguna	12	San Juan la Laguna	3	Marzo	2023-05-03T00:00:00	2024-11-08T11:00:00	2	Temperatura media	25.3
40330	7	Sololá	717	San Juan la Laguna	12	San Juan la Laguna	3	Marzo	2023-05-03T00:00:00	2024-11-08T11:00:00	4	Temperatura máxima	25.4
40331	7	Sololá	717	San Juan la Laguna	12	San Juan la Laguna	3	Marzo	2023-05-03T00:00:00	2024-11-08T11:00:00	3	Temperatura mínima	22.9
40332	7	Sololá	717	San Juan la Laguna	12	San Juan la Laguna	3	Marzo	2023-05-03T00:00:00	2024-11-08T11:00:00	5	Humedad	36
40333	7	Sololá	717	San Juan la Laguna	12	San Juan la Laguna	3	Marzo	2023-05-03T00:00:00	2024-11-08T11:00:00	6	Velocidad del viento	1.6
40334	7	Sololá	717	San Juan la Laguna	12	San Juan la Laguna	3	Marzo	2023-05-03T00:00:00	2024-11-08T11:00:00	7	Dirección del viento	1.61
40335	7	Sololá	717	San Juan la Laguna	12	San Juan la Laguna	3	Marzo	2023-05-03T00:00:00	2024-11-08T11:00:00	1	Precipitación	0
40336	7	Sololá	717	San Juan la Laguna	12	San Juan la Laguna	3	Marzo	2023-05-03T00:00:00	2024-11-08T11:00:00	8	Radiación solar	794
40337	7	Sololá	717	San Juan la Laguna	12	San Juan la Laguna	3	Marzo	2023-05-03T00:00:00	2024-11-08T12:00:00	2	Temperatura media	24.5
40338	7	Sololá	717	San Juan la Laguna	12	San Juan la Laguna	3	Marzo	2023-05-03T00:00:00	2024-11-08T12:00:00	4	Temperatura máxima	25.7
40339	7	Sololá	717	San Juan la Laguna	12	San Juan la Laguna	3	Marzo	2023-05-03T00:00:00	2024-11-08T12:00:00	3	Temperatura mínima	24.1
40340	7	Sololá	717	San Juan la Laguna	12	San Juan la Laguna	3	Marzo	2023-05-03T00:00:00	2024-11-08T12:00:00	5	Humedad	56
40341	7	Sololá	717	San Juan la Laguna	12	San Juan la Laguna	3	Marzo	2023-05-03T00:00:00	2024-11-08T12:00:00	6	Velocidad del viento	3.2
40342	7	Sololá	717	San Juan la Laguna	12	San Juan la Laguna	3	Marzo	2023-05-03T00:00:00	2024-11-08T12:00:00	7	Dirección del viento	3.22
40343	7	Sololá	717	San Juan la Laguna	12	San Juan la Laguna	3	Marzo	2023-05-03T00:00:00	2024-11-08T12:00:00	1	Precipitación	0
40344	7	Sololá	717	San Juan la Laguna	12	San Juan la Laguna	3	Marzo	2023-05-03T00:00:00	2024-11-08T12:00:00	8	Radiación solar	793
40345	7	Sololá	717	San Juan la Laguna	12	San Juan la Laguna	3	Marzo	2023-05-03T00:00:00	2024-11-08T13:00:00	2	Temperatura media	25.2
40346	7	Sololá	717	San Juan la Laguna	12	San Juan la Laguna	3	Marzo	2023-05-03T00:00:00	2024-11-08T13:00:00	4	Temperatura máxima	26.1
40347	7	Sololá	717	San Juan la Laguna	12	San Juan la Laguna	3	Marzo	2023-05-03T00:00:00	2024-11-08T13:00:00	3	Temperatura mínima	24.2
40348	7	Sololá	717	San Juan la Laguna	12	San Juan la Laguna	3	Marzo	2023-05-03T00:00:00	2024-11-08T13:00:00	5	Humedad	58
40349	7	Sololá	717	San Juan la Laguna	12	San Juan la Laguna	3	Marzo	2023-05-03T00:00:00	2024-11-08T13:00:00	6	Velocidad del viento	3.2
40350	7	Sololá	717	San Juan la Laguna	12	San Juan la Laguna	3	Marzo	2023-05-03T00:00:00	2024-11-08T13:00:00	7	Dirección del viento	3.22
40351	7	Sololá	717	San Juan la Laguna	12	San Juan la Laguna	3	Marzo	2023-05-03T00:00:00	2024-11-08T13:00:00	1	Precipitación	0
40352	7	Sololá	717	San Juan la Laguna	12	San Juan la Laguna	3	Marzo	2023-05-03T00:00:00	2024-11-08T13:00:00	8	Radiación solar	871
40353	7	Sololá	717	San Juan la Laguna	12	San Juan la Laguna	3	Marzo	2023-05-03T00:00:00	2024-11-08T14:00:00	2	Temperatura media	23.6
40354	7	Sololá	717	San Juan la Laguna	12	San Juan la Laguna	3	Marzo	2023-05-03T00:00:00	2024-11-08T14:00:00	4	Temperatura máxima	25.4
40355	7	Sololá	717	San Juan la Laguna	12	San Juan la Laguna	3	Marzo	2023-05-03T00:00:00	2024-11-08T14:00:00	3	Temperatura mínima	23.6
40356	7	Sololá	717	San Juan la Laguna	12	San Juan la Laguna	3	Marzo	2023-05-03T00:00:00	2024-11-08T14:00:00	5	Humedad	68
40357	7	Sololá	717	San Juan la Laguna	12	San Juan la Laguna	3	Marzo	2023-05-03T00:00:00	2024-11-08T14:00:00	6	Velocidad del viento	11.3
40358	7	Sololá	717	San Juan la Laguna	12	San Juan la Laguna	3	Marzo	2023-05-03T00:00:00	2024-11-08T14:00:00	7	Dirección del viento	11.27
40359	7	Sololá	717	San Juan la Laguna	12	San Juan la Laguna	3	Marzo	2023-05-03T00:00:00	2024-11-08T14:00:00	1	Precipitación	0
40360	7	Sololá	717	San Juan la Laguna	12	San Juan la Laguna	3	Marzo	2023-05-03T00:00:00	2024-11-08T14:00:00	8	Radiación solar	832
40361	7	Sololá	717	San Juan la Laguna	12	San Juan la Laguna	3	Marzo	2023-05-03T00:00:00	2024-11-08T15:00:00	2	Temperatura media	23.6
40362	7	Sololá	717	San Juan la Laguna	12	San Juan la Laguna	3	Marzo	2023-05-03T00:00:00	2024-11-08T15:00:00	4	Temperatura máxima	23.8
40363	7	Sololá	717	San Juan la Laguna	12	San Juan la Laguna	3	Marzo	2023-05-03T00:00:00	2024-11-08T15:00:00	3	Temperatura mínima	23.4
40364	7	Sololá	717	San Juan la Laguna	12	San Juan la Laguna	3	Marzo	2023-05-03T00:00:00	2024-11-08T15:00:00	5	Humedad	68
40365	7	Sololá	717	San Juan la Laguna	12	San Juan la Laguna	3	Marzo	2023-05-03T00:00:00	2024-11-08T15:00:00	6	Velocidad del viento	11.3
40366	7	Sololá	717	San Juan la Laguna	12	San Juan la Laguna	3	Marzo	2023-05-03T00:00:00	2024-11-08T15:00:00	7	Dirección del viento	11.27
40367	7	Sololá	717	San Juan la Laguna	12	San Juan la Laguna	3	Marzo	2023-05-03T00:00:00	2024-11-08T15:00:00	1	Precipitación	0
40368	7	Sololá	717	San Juan la Laguna	12	San Juan la Laguna	3	Marzo	2023-05-03T00:00:00	2024-11-08T15:00:00	8	Radiación solar	708
40369	7	Sololá	717	San Juan la Laguna	12	San Juan la Laguna	3	Marzo	2023-05-03T00:00:00	2024-11-08T16:00:00	2	Temperatura media	22.8
40370	7	Sololá	717	San Juan la Laguna	12	San Juan la Laguna	3	Marzo	2023-05-03T00:00:00	2024-11-08T16:00:00	4	Temperatura máxima	23.9
40371	7	Sololá	717	San Juan la Laguna	12	San Juan la Laguna	3	Marzo	2023-05-03T00:00:00	2024-11-08T16:00:00	3	Temperatura mínima	22.8
40372	7	Sololá	717	San Juan la Laguna	12	San Juan la Laguna	3	Marzo	2023-05-03T00:00:00	2024-11-08T16:00:00	5	Humedad	70
40373	7	Sololá	717	San Juan la Laguna	12	San Juan la Laguna	3	Marzo	2023-05-03T00:00:00	2024-11-08T16:00:00	6	Velocidad del viento	9.7
40374	7	Sololá	717	San Juan la Laguna	12	San Juan la Laguna	3	Marzo	2023-05-03T00:00:00	2024-11-08T16:00:00	7	Dirección del viento	9.66
40375	7	Sololá	717	San Juan la Laguna	12	San Juan la Laguna	3	Marzo	2023-05-03T00:00:00	2024-11-08T16:00:00	1	Precipitación	0
40376	7	Sololá	717	San Juan la Laguna	12	San Juan la Laguna	3	Marzo	2023-05-03T00:00:00	2024-11-08T16:00:00	8	Radiación solar	540
40377	7	Sololá	717	San Juan la Laguna	12	San Juan la Laguna	3	Marzo	2023-05-03T00:00:00	2024-11-08T17:00:00	2	Temperatura media	21.4
40378	7	Sololá	717	San Juan la Laguna	12	San Juan la Laguna	3	Marzo	2023-05-03T00:00:00	2024-11-08T17:00:00	4	Temperatura máxima	22.9
40379	7	Sololá	717	San Juan la Laguna	12	San Juan la Laguna	3	Marzo	2023-05-03T00:00:00	2024-11-08T17:00:00	3	Temperatura mínima	21.4
40380	7	Sololá	717	San Juan la Laguna	12	San Juan la Laguna	3	Marzo	2023-05-03T00:00:00	2024-11-08T17:00:00	5	Humedad	75
40381	7	Sololá	717	San Juan la Laguna	12	San Juan la Laguna	3	Marzo	2023-05-03T00:00:00	2024-11-08T17:00:00	6	Velocidad del viento	6.4
40382	7	Sololá	717	San Juan la Laguna	12	San Juan la Laguna	3	Marzo	2023-05-03T00:00:00	2024-11-08T17:00:00	7	Dirección del viento	6.44
40383	7	Sololá	717	San Juan la Laguna	12	San Juan la Laguna	3	Marzo	2023-05-03T00:00:00	2024-11-08T17:00:00	1	Precipitación	0
40384	7	Sololá	717	San Juan la Laguna	12	San Juan la Laguna	3	Marzo	2023-05-03T00:00:00	2024-11-08T17:00:00	8	Radiación solar	194
40385	7	Sololá	717	San Juan la Laguna	12	San Juan la Laguna	3	Marzo	2023-05-03T00:00:00	2024-11-08T18:00:00	2	Temperatura media	20.4
40386	7	Sololá	717	San Juan la Laguna	12	San Juan la Laguna	3	Marzo	2023-05-03T00:00:00	2024-11-08T18:00:00	4	Temperatura máxima	21.5
40387	7	Sololá	717	San Juan la Laguna	12	San Juan la Laguna	3	Marzo	2023-05-03T00:00:00	2024-11-08T18:00:00	3	Temperatura mínima	20.4
40388	7	Sololá	717	San Juan la Laguna	12	San Juan la Laguna	3	Marzo	2023-05-03T00:00:00	2024-11-08T18:00:00	5	Humedad	81
40389	7	Sololá	717	San Juan la Laguna	12	San Juan la Laguna	3	Marzo	2023-05-03T00:00:00	2024-11-08T18:00:00	6	Velocidad del viento	4.8
40390	7	Sololá	717	San Juan la Laguna	12	San Juan la Laguna	3	Marzo	2023-05-03T00:00:00	2024-11-08T18:00:00	7	Dirección del viento	4.83
40391	7	Sololá	717	San Juan la Laguna	12	San Juan la Laguna	3	Marzo	2023-05-03T00:00:00	2024-11-08T18:00:00	1	Precipitación	0
40392	7	Sololá	717	San Juan la Laguna	12	San Juan la Laguna	3	Marzo	2023-05-03T00:00:00	2024-11-08T18:00:00	8	Radiación solar	9
40393	7	Sololá	717	San Juan la Laguna	12	San Juan la Laguna	3	Marzo	2023-05-03T00:00:00	2024-11-08T19:00:00	2	Temperatura media	18.9
40394	7	Sololá	717	San Juan la Laguna	12	San Juan la Laguna	3	Marzo	2023-05-03T00:00:00	2024-11-08T19:00:00	4	Temperatura máxima	20.4
40395	7	Sololá	717	San Juan la Laguna	12	San Juan la Laguna	3	Marzo	2023-05-03T00:00:00	2024-11-08T19:00:00	3	Temperatura mínima	18.7
40396	7	Sololá	717	San Juan la Laguna	12	San Juan la Laguna	3	Marzo	2023-05-03T00:00:00	2024-11-08T19:00:00	5	Humedad	86
40397	7	Sololá	717	San Juan la Laguna	12	San Juan la Laguna	3	Marzo	2023-05-03T00:00:00	2024-11-08T19:00:00	6	Velocidad del viento	4.8
40398	7	Sololá	717	San Juan la Laguna	12	San Juan la Laguna	3	Marzo	2023-05-03T00:00:00	2024-11-08T19:00:00	7	Dirección del viento	4.83
40399	7	Sololá	717	San Juan la Laguna	12	San Juan la Laguna	3	Marzo	2023-05-03T00:00:00	2024-11-08T19:00:00	1	Precipitación	0
40400	7	Sololá	717	San Juan la Laguna	12	San Juan la Laguna	3	Marzo	2023-05-03T00:00:00	2024-11-08T19:00:00	8	Radiación solar	0
40401	7	Sololá	717	San Juan la Laguna	12	San Juan la Laguna	3	Marzo	2023-05-03T00:00:00	2024-11-08T20:00:00	2	Temperatura media	18
40402	7	Sololá	717	San Juan la Laguna	12	San Juan la Laguna	3	Marzo	2023-05-03T00:00:00	2024-11-08T20:00:00	4	Temperatura máxima	18.9
40403	7	Sololá	717	San Juan la Laguna	12	San Juan la Laguna	3	Marzo	2023-05-03T00:00:00	2024-11-08T20:00:00	3	Temperatura mínima	17.8
40404	7	Sololá	717	San Juan la Laguna	12	San Juan la Laguna	3	Marzo	2023-05-03T00:00:00	2024-11-08T20:00:00	5	Humedad	90
40405	7	Sololá	717	San Juan la Laguna	12	San Juan la Laguna	3	Marzo	2023-05-03T00:00:00	2024-11-08T20:00:00	6	Velocidad del viento	4.8
40406	7	Sololá	717	San Juan la Laguna	12	San Juan la Laguna	3	Marzo	2023-05-03T00:00:00	2024-11-08T20:00:00	7	Dirección del viento	4.83
40407	7	Sololá	717	San Juan la Laguna	12	San Juan la Laguna	3	Marzo	2023-05-03T00:00:00	2024-11-08T20:00:00	1	Precipitación	0
40408	7	Sololá	717	San Juan la Laguna	12	San Juan la Laguna	3	Marzo	2023-05-03T00:00:00	2024-11-08T20:00:00	8	Radiación solar	0
40409	7	Sololá	717	San Juan la Laguna	12	San Juan la Laguna	3	Marzo	2023-05-03T00:00:00	2024-11-08T21:00:00	2	Temperatura media	18.3
40410	7	Sololá	717	San Juan la Laguna	12	San Juan la Laguna	3	Marzo	2023-05-03T00:00:00	2024-11-08T21:00:00	4	Temperatura máxima	18.5
40411	7	Sololá	717	San Juan la Laguna	12	San Juan la Laguna	3	Marzo	2023-05-03T00:00:00	2024-11-08T21:00:00	3	Temperatura mínima	18
40412	7	Sololá	717	San Juan la Laguna	12	San Juan la Laguna	3	Marzo	2023-05-03T00:00:00	2024-11-08T21:00:00	5	Humedad	88
40413	7	Sololá	717	San Juan la Laguna	12	San Juan la Laguna	3	Marzo	2023-05-03T00:00:00	2024-11-08T21:00:00	6	Velocidad del viento	0
40414	7	Sololá	717	San Juan la Laguna	12	San Juan la Laguna	3	Marzo	2023-05-03T00:00:00	2024-11-08T21:00:00	7	Dirección del viento	0
40415	7	Sololá	717	San Juan la Laguna	12	San Juan la Laguna	3	Marzo	2023-05-03T00:00:00	2024-11-08T21:00:00	1	Precipitación	0
40416	7	Sololá	717	San Juan la Laguna	12	San Juan la Laguna	3	Marzo	2023-05-03T00:00:00	2024-11-08T21:00:00	8	Radiación solar	0
40417	7	Sololá	717	San Juan la Laguna	12	San Juan la Laguna	3	Marzo	2023-05-03T00:00:00	2024-11-08T22:00:00	2	Temperatura media	17.8
40418	7	Sololá	717	San Juan la Laguna	12	San Juan la Laguna	3	Marzo	2023-05-03T00:00:00	2024-11-08T22:00:00	4	Temperatura máxima	18.3
40419	7	Sololá	717	San Juan la Laguna	12	San Juan la Laguna	3	Marzo	2023-05-03T00:00:00	2024-11-08T22:00:00	3	Temperatura mínima	17.8
40420	7	Sololá	717	San Juan la Laguna	12	San Juan la Laguna	3	Marzo	2023-05-03T00:00:00	2024-11-08T22:00:00	5	Humedad	88
40421	7	Sololá	717	San Juan la Laguna	12	San Juan la Laguna	3	Marzo	2023-05-03T00:00:00	2024-11-08T22:00:00	6	Velocidad del viento	0
40422	7	Sololá	717	San Juan la Laguna	12	San Juan la Laguna	3	Marzo	2023-05-03T00:00:00	2024-11-08T22:00:00	7	Dirección del viento	0
40423	7	Sololá	717	San Juan la Laguna	12	San Juan la Laguna	3	Marzo	2023-05-03T00:00:00	2024-11-08T22:00:00	1	Precipitación	0
40424	7	Sololá	717	San Juan la Laguna	12	San Juan la Laguna	3	Marzo	2023-05-03T00:00:00	2024-11-08T22:00:00	8	Radiación solar	0
40425	7	Sololá	717	San Juan la Laguna	12	San Juan la Laguna	3	Marzo	2023-05-03T00:00:00	2024-11-08T23:00:00	2	Temperatura media	17.5
40426	7	Sololá	717	San Juan la Laguna	12	San Juan la Laguna	3	Marzo	2023-05-03T00:00:00	2024-11-08T23:00:00	4	Temperatura máxima	17.8
40427	7	Sololá	717	San Juan la Laguna	12	San Juan la Laguna	3	Marzo	2023-05-03T00:00:00	2024-11-08T23:00:00	3	Temperatura mínima	17.5
40428	7	Sololá	717	San Juan la Laguna	12	San Juan la Laguna	3	Marzo	2023-05-03T00:00:00	2024-11-08T23:00:00	5	Humedad	89
40429	7	Sololá	717	San Juan la Laguna	12	San Juan la Laguna	3	Marzo	2023-05-03T00:00:00	2024-11-08T23:00:00	6	Velocidad del viento	0
40430	7	Sololá	717	San Juan la Laguna	12	San Juan la Laguna	3	Marzo	2023-05-03T00:00:00	2024-11-08T23:00:00	7	Dirección del viento	0
40431	7	Sololá	717	San Juan la Laguna	12	San Juan la Laguna	3	Marzo	2023-05-03T00:00:00	2024-11-08T23:00:00	1	Precipitación	0
40432	7	Sololá	717	San Juan la Laguna	12	San Juan la Laguna	3	Marzo	2023-05-03T00:00:00	2024-11-08T23:00:00	8	Radiación solar	0
40433	7	Sololá	717	San Juan la Laguna	12	San Juan la Laguna	3	Marzo	2023-06-03T00:00:00	2024-11-08T00:00:00	2	Temperatura media	16.6
40434	7	Sololá	717	San Juan la Laguna	12	San Juan la Laguna	3	Marzo	2023-06-03T00:00:00	2024-11-08T00:00:00	4	Temperatura máxima	17.5
40435	7	Sololá	717	San Juan la Laguna	12	San Juan la Laguna	3	Marzo	2023-06-03T00:00:00	2024-11-08T00:00:00	3	Temperatura mínima	16.6
40436	7	Sololá	717	San Juan la Laguna	12	San Juan la Laguna	3	Marzo	2023-06-03T00:00:00	2024-11-08T00:00:00	5	Humedad	90
40437	7	Sololá	717	San Juan la Laguna	12	San Juan la Laguna	3	Marzo	2023-06-03T00:00:00	2024-11-08T00:00:00	6	Velocidad del viento	0
40438	7	Sololá	717	San Juan la Laguna	12	San Juan la Laguna	3	Marzo	2023-06-03T00:00:00	2024-11-08T00:00:00	7	Dirección del viento	0
40439	7	Sololá	717	San Juan la Laguna	12	San Juan la Laguna	3	Marzo	2023-06-03T00:00:00	2024-11-08T00:00:00	1	Precipitación	0
40440	7	Sololá	717	San Juan la Laguna	12	San Juan la Laguna	3	Marzo	2023-06-03T00:00:00	2024-11-08T00:00:00	8	Radiación solar	0
40441	7	Sololá	717	San Juan la Laguna	12	San Juan la Laguna	3	Marzo	2023-06-03T00:00:00	2024-11-08T01:00:00	2	Temperatura media	15.2
40442	7	Sololá	717	San Juan la Laguna	12	San Juan la Laguna	3	Marzo	2023-06-03T00:00:00	2024-11-08T01:00:00	4	Temperatura máxima	16.3
40443	7	Sololá	717	San Juan la Laguna	12	San Juan la Laguna	3	Marzo	2023-06-03T00:00:00	2024-11-08T01:00:00	3	Temperatura mínima	15.2
40444	7	Sololá	717	San Juan la Laguna	12	San Juan la Laguna	3	Marzo	2023-06-03T00:00:00	2024-11-08T01:00:00	5	Humedad	90
40445	7	Sololá	717	San Juan la Laguna	12	San Juan la Laguna	3	Marzo	2023-06-03T00:00:00	2024-11-08T01:00:00	6	Velocidad del viento	1.6
40446	7	Sololá	717	San Juan la Laguna	12	San Juan la Laguna	3	Marzo	2023-06-03T00:00:00	2024-11-08T01:00:00	7	Dirección del viento	1.61
40447	7	Sololá	717	San Juan la Laguna	12	San Juan la Laguna	3	Marzo	2023-06-03T00:00:00	2024-11-08T01:00:00	1	Precipitación	0
40448	7	Sololá	717	San Juan la Laguna	12	San Juan la Laguna	3	Marzo	2023-06-03T00:00:00	2024-11-08T01:00:00	8	Radiación solar	0
40449	7	Sololá	717	San Juan la Laguna	12	San Juan la Laguna	3	Marzo	2023-06-03T00:00:00	2024-11-08T02:00:00	2	Temperatura media	14.3
40450	7	Sololá	717	San Juan la Laguna	12	San Juan la Laguna	3	Marzo	2023-06-03T00:00:00	2024-11-08T02:00:00	4	Temperatura máxima	15.2
40451	7	Sololá	717	San Juan la Laguna	12	San Juan la Laguna	3	Marzo	2023-06-03T00:00:00	2024-11-08T02:00:00	3	Temperatura mínima	14.3
40452	7	Sololá	717	San Juan la Laguna	12	San Juan la Laguna	3	Marzo	2023-06-03T00:00:00	2024-11-08T02:00:00	5	Humedad	83
40453	7	Sololá	717	San Juan la Laguna	12	San Juan la Laguna	3	Marzo	2023-06-03T00:00:00	2024-11-08T02:00:00	6	Velocidad del viento	4.8
40454	7	Sololá	717	San Juan la Laguna	12	San Juan la Laguna	3	Marzo	2023-06-03T00:00:00	2024-11-08T02:00:00	7	Dirección del viento	4.83
40455	7	Sololá	717	San Juan la Laguna	12	San Juan la Laguna	3	Marzo	2023-06-03T00:00:00	2024-11-08T02:00:00	1	Precipitación	0
40456	7	Sololá	717	San Juan la Laguna	12	San Juan la Laguna	3	Marzo	2023-06-03T00:00:00	2024-11-08T02:00:00	8	Radiación solar	0
40457	7	Sololá	717	San Juan la Laguna	12	San Juan la Laguna	3	Marzo	2023-06-03T00:00:00	2024-11-08T03:00:00	2	Temperatura media	13.9
40458	7	Sololá	717	San Juan la Laguna	12	San Juan la Laguna	3	Marzo	2023-06-03T00:00:00	2024-11-08T03:00:00	4	Temperatura máxima	14.4
40459	7	Sololá	717	San Juan la Laguna	12	San Juan la Laguna	3	Marzo	2023-06-03T00:00:00	2024-11-08T03:00:00	3	Temperatura mínima	13.9
40460	7	Sololá	717	San Juan la Laguna	12	San Juan la Laguna	3	Marzo	2023-06-03T00:00:00	2024-11-08T03:00:00	5	Humedad	83
40461	7	Sololá	717	San Juan la Laguna	12	San Juan la Laguna	3	Marzo	2023-06-03T00:00:00	2024-11-08T03:00:00	6	Velocidad del viento	3.2
40462	7	Sololá	717	San Juan la Laguna	12	San Juan la Laguna	3	Marzo	2023-06-03T00:00:00	2024-11-08T03:00:00	7	Dirección del viento	3.22
40463	7	Sololá	717	San Juan la Laguna	12	San Juan la Laguna	3	Marzo	2023-06-03T00:00:00	2024-11-08T03:00:00	1	Precipitación	0
40464	7	Sololá	717	San Juan la Laguna	12	San Juan la Laguna	3	Marzo	2023-06-03T00:00:00	2024-11-08T03:00:00	8	Radiación solar	0
40465	7	Sololá	717	San Juan la Laguna	12	San Juan la Laguna	3	Marzo	2023-06-03T00:00:00	2024-11-08T04:00:00	2	Temperatura media	13.4
40466	7	Sololá	717	San Juan la Laguna	12	San Juan la Laguna	3	Marzo	2023-06-03T00:00:00	2024-11-08T04:00:00	4	Temperatura máxima	14
40467	7	Sololá	717	San Juan la Laguna	12	San Juan la Laguna	3	Marzo	2023-06-03T00:00:00	2024-11-08T04:00:00	3	Temperatura mínima	13.4
40468	7	Sololá	717	San Juan la Laguna	12	San Juan la Laguna	3	Marzo	2023-06-03T00:00:00	2024-11-08T04:00:00	5	Humedad	83
40469	7	Sololá	717	San Juan la Laguna	12	San Juan la Laguna	3	Marzo	2023-06-03T00:00:00	2024-11-08T04:00:00	6	Velocidad del viento	4.8
40470	7	Sololá	717	San Juan la Laguna	12	San Juan la Laguna	3	Marzo	2023-06-03T00:00:00	2024-11-08T04:00:00	7	Dirección del viento	4.83
40471	7	Sololá	717	San Juan la Laguna	12	San Juan la Laguna	3	Marzo	2023-06-03T00:00:00	2024-11-08T04:00:00	1	Precipitación	0
40472	7	Sololá	717	San Juan la Laguna	12	San Juan la Laguna	3	Marzo	2023-06-03T00:00:00	2024-11-08T04:00:00	8	Radiación solar	0
40473	7	Sololá	717	San Juan la Laguna	12	San Juan la Laguna	3	Marzo	2023-06-03T00:00:00	2024-11-08T05:00:00	2	Temperatura media	13.5
40474	7	Sololá	717	San Juan la Laguna	12	San Juan la Laguna	3	Marzo	2023-06-03T00:00:00	2024-11-08T05:00:00	4	Temperatura máxima	13.7
40475	7	Sololá	717	San Juan la Laguna	12	San Juan la Laguna	3	Marzo	2023-06-03T00:00:00	2024-11-08T05:00:00	3	Temperatura mínima	13.4
40476	7	Sololá	717	San Juan la Laguna	12	San Juan la Laguna	3	Marzo	2023-06-03T00:00:00	2024-11-08T05:00:00	5	Humedad	81
40477	7	Sololá	717	San Juan la Laguna	12	San Juan la Laguna	3	Marzo	2023-06-03T00:00:00	2024-11-08T05:00:00	6	Velocidad del viento	4.8
40478	7	Sololá	717	San Juan la Laguna	12	San Juan la Laguna	3	Marzo	2023-06-03T00:00:00	2024-11-08T05:00:00	7	Dirección del viento	4.83
40479	7	Sololá	717	San Juan la Laguna	12	San Juan la Laguna	3	Marzo	2023-06-03T00:00:00	2024-11-08T05:00:00	1	Precipitación	0
40480	7	Sololá	717	San Juan la Laguna	12	San Juan la Laguna	3	Marzo	2023-06-03T00:00:00	2024-11-08T05:00:00	8	Radiación solar	0
40481	7	Sololá	717	San Juan la Laguna	12	San Juan la Laguna	3	Marzo	2023-06-03T00:00:00	2024-11-08T06:00:00	2	Temperatura media	13
40482	7	Sololá	717	San Juan la Laguna	12	San Juan la Laguna	3	Marzo	2023-06-03T00:00:00	2024-11-08T06:00:00	4	Temperatura máxima	13.5
40483	7	Sololá	717	San Juan la Laguna	12	San Juan la Laguna	3	Marzo	2023-06-03T00:00:00	2024-11-08T06:00:00	3	Temperatura mínima	13
40484	7	Sololá	717	San Juan la Laguna	12	San Juan la Laguna	3	Marzo	2023-06-03T00:00:00	2024-11-08T06:00:00	5	Humedad	81
40485	7	Sololá	717	San Juan la Laguna	12	San Juan la Laguna	3	Marzo	2023-06-03T00:00:00	2024-11-08T06:00:00	6	Velocidad del viento	4.8
40486	7	Sololá	717	San Juan la Laguna	12	San Juan la Laguna	3	Marzo	2023-06-03T00:00:00	2024-11-08T06:00:00	7	Dirección del viento	4.83
40487	7	Sololá	717	San Juan la Laguna	12	San Juan la Laguna	3	Marzo	2023-06-03T00:00:00	2024-11-08T06:00:00	1	Precipitación	0
40488	7	Sololá	717	San Juan la Laguna	12	San Juan la Laguna	3	Marzo	2023-06-03T00:00:00	2024-11-08T06:00:00	8	Radiación solar	0
40489	7	Sololá	717	San Juan la Laguna	12	San Juan la Laguna	3	Marzo	2023-06-03T00:00:00	2024-11-08T07:00:00	2	Temperatura media	13.9
40490	7	Sololá	717	San Juan la Laguna	12	San Juan la Laguna	3	Marzo	2023-06-03T00:00:00	2024-11-08T07:00:00	4	Temperatura máxima	13.9
40491	7	Sololá	717	San Juan la Laguna	12	San Juan la Laguna	3	Marzo	2023-06-03T00:00:00	2024-11-08T07:00:00	3	Temperatura mínima	13
40492	7	Sololá	717	San Juan la Laguna	12	San Juan la Laguna	3	Marzo	2023-06-03T00:00:00	2024-11-08T07:00:00	5	Humedad	78
40493	7	Sololá	717	San Juan la Laguna	12	San Juan la Laguna	3	Marzo	2023-06-03T00:00:00	2024-11-08T07:00:00	6	Velocidad del viento	4.8
40494	7	Sololá	717	San Juan la Laguna	12	San Juan la Laguna	3	Marzo	2023-06-03T00:00:00	2024-11-08T07:00:00	7	Dirección del viento	4.83
40495	7	Sololá	717	San Juan la Laguna	12	San Juan la Laguna	3	Marzo	2023-06-03T00:00:00	2024-11-08T07:00:00	1	Precipitación	0
40496	7	Sololá	717	San Juan la Laguna	12	San Juan la Laguna	3	Marzo	2023-06-03T00:00:00	2024-11-08T07:00:00	8	Radiación solar	19
40497	7	Sololá	717	San Juan la Laguna	12	San Juan la Laguna	3	Marzo	2023-06-03T00:00:00	2024-11-08T08:00:00	2	Temperatura media	17.2
40498	7	Sololá	717	San Juan la Laguna	12	San Juan la Laguna	3	Marzo	2023-06-03T00:00:00	2024-11-08T08:00:00	4	Temperatura máxima	17.2
40499	7	Sololá	717	San Juan la Laguna	12	San Juan la Laguna	3	Marzo	2023-06-03T00:00:00	2024-11-08T08:00:00	3	Temperatura mínima	13.9
40500	7	Sololá	717	San Juan la Laguna	12	San Juan la Laguna	3	Marzo	2023-06-03T00:00:00	2024-11-08T08:00:00	5	Humedad	72
40501	7	Sololá	717	San Juan la Laguna	12	San Juan la Laguna	3	Marzo	2023-06-03T00:00:00	2024-11-08T08:00:00	6	Velocidad del viento	1.6
40502	7	Sololá	717	San Juan la Laguna	12	San Juan la Laguna	3	Marzo	2023-06-03T00:00:00	2024-11-08T08:00:00	7	Dirección del viento	1.61
40503	7	Sololá	717	San Juan la Laguna	12	San Juan la Laguna	3	Marzo	2023-06-03T00:00:00	2024-11-08T08:00:00	1	Precipitación	0
40504	7	Sololá	717	San Juan la Laguna	12	San Juan la Laguna	3	Marzo	2023-06-03T00:00:00	2024-11-08T08:00:00	8	Radiación solar	155
40505	7	Sololá	717	San Juan la Laguna	12	San Juan la Laguna	3	Marzo	2023-06-03T00:00:00	2024-11-08T09:00:00	2	Temperatura media	19.8
40506	7	Sololá	717	San Juan la Laguna	12	San Juan la Laguna	3	Marzo	2023-06-03T00:00:00	2024-11-08T09:00:00	4	Temperatura máxima	19.9
40507	7	Sololá	717	San Juan la Laguna	12	San Juan la Laguna	3	Marzo	2023-06-03T00:00:00	2024-11-08T09:00:00	3	Temperatura mínima	17.2
40508	7	Sololá	717	San Juan la Laguna	12	San Juan la Laguna	3	Marzo	2023-06-03T00:00:00	2024-11-08T09:00:00	5	Humedad	66
40509	7	Sololá	717	San Juan la Laguna	12	San Juan la Laguna	3	Marzo	2023-06-03T00:00:00	2024-11-08T09:00:00	6	Velocidad del viento	1.6
40510	7	Sololá	717	San Juan la Laguna	12	San Juan la Laguna	3	Marzo	2023-06-03T00:00:00	2024-11-08T09:00:00	7	Dirección del viento	1.61
40511	7	Sololá	717	San Juan la Laguna	12	San Juan la Laguna	3	Marzo	2023-06-03T00:00:00	2024-11-08T09:00:00	1	Precipitación	0
40512	7	Sololá	717	San Juan la Laguna	12	San Juan la Laguna	3	Marzo	2023-06-03T00:00:00	2024-11-08T09:00:00	8	Radiación solar	405
40513	7	Sololá	717	San Juan la Laguna	12	San Juan la Laguna	3	Marzo	2023-06-03T00:00:00	2024-11-08T10:00:00	2	Temperatura media	20.8
40514	7	Sololá	717	San Juan la Laguna	12	San Juan la Laguna	3	Marzo	2023-06-03T00:00:00	2024-11-08T10:00:00	4	Temperatura máxima	20.8
40515	7	Sololá	717	San Juan la Laguna	12	San Juan la Laguna	3	Marzo	2023-06-03T00:00:00	2024-11-08T10:00:00	3	Temperatura mínima	19.8
40516	7	Sololá	717	San Juan la Laguna	12	San Juan la Laguna	3	Marzo	2023-06-03T00:00:00	2024-11-08T10:00:00	5	Humedad	60
40517	7	Sololá	717	San Juan la Laguna	12	San Juan la Laguna	3	Marzo	2023-06-03T00:00:00	2024-11-08T10:00:00	6	Velocidad del viento	3.2
40518	7	Sololá	717	San Juan la Laguna	12	San Juan la Laguna	3	Marzo	2023-06-03T00:00:00	2024-11-08T10:00:00	7	Dirección del viento	3.22
40519	7	Sololá	717	San Juan la Laguna	12	San Juan la Laguna	3	Marzo	2023-06-03T00:00:00	2024-11-08T10:00:00	1	Precipitación	0
40520	7	Sololá	717	San Juan la Laguna	12	San Juan la Laguna	3	Marzo	2023-06-03T00:00:00	2024-11-08T10:00:00	8	Radiación solar	621
40521	7	Sololá	717	San Juan la Laguna	12	San Juan la Laguna	3	Marzo	2023-06-03T00:00:00	2024-11-08T11:00:00	2	Temperatura media	22.7
40522	7	Sololá	717	San Juan la Laguna	12	San Juan la Laguna	3	Marzo	2023-06-03T00:00:00	2024-11-08T11:00:00	4	Temperatura máxima	22.7
40523	7	Sololá	717	San Juan la Laguna	12	San Juan la Laguna	3	Marzo	2023-06-03T00:00:00	2024-11-08T11:00:00	3	Temperatura mínima	20.7
40524	7	Sololá	717	San Juan la Laguna	12	San Juan la Laguna	3	Marzo	2023-06-03T00:00:00	2024-11-08T11:00:00	5	Humedad	51
40525	7	Sololá	717	San Juan la Laguna	12	San Juan la Laguna	3	Marzo	2023-06-03T00:00:00	2024-11-08T11:00:00	6	Velocidad del viento	3.2
40526	7	Sololá	717	San Juan la Laguna	12	San Juan la Laguna	3	Marzo	2023-06-03T00:00:00	2024-11-08T11:00:00	7	Dirección del viento	3.22
40527	7	Sololá	717	San Juan la Laguna	12	San Juan la Laguna	3	Marzo	2023-06-03T00:00:00	2024-11-08T11:00:00	1	Precipitación	0
40528	7	Sololá	717	San Juan la Laguna	12	San Juan la Laguna	3	Marzo	2023-06-03T00:00:00	2024-11-08T11:00:00	8	Radiación solar	763
40529	7	Sololá	717	San Juan la Laguna	12	San Juan la Laguna	3	Marzo	2023-06-03T00:00:00	2024-11-08T12:00:00	2	Temperatura media	23.2
40530	7	Sololá	717	San Juan la Laguna	12	San Juan la Laguna	3	Marzo	2023-06-03T00:00:00	2024-11-08T12:00:00	4	Temperatura máxima	23.6
40531	7	Sololá	717	San Juan la Laguna	12	San Juan la Laguna	3	Marzo	2023-06-03T00:00:00	2024-11-08T12:00:00	3	Temperatura mínima	22.3
40532	7	Sololá	717	San Juan la Laguna	12	San Juan la Laguna	3	Marzo	2023-06-03T00:00:00	2024-11-08T12:00:00	5	Humedad	61
40533	7	Sololá	717	San Juan la Laguna	12	San Juan la Laguna	3	Marzo	2023-06-03T00:00:00	2024-11-08T12:00:00	6	Velocidad del viento	4.8
40534	7	Sololá	717	San Juan la Laguna	12	San Juan la Laguna	3	Marzo	2023-06-03T00:00:00	2024-11-08T12:00:00	7	Dirección del viento	4.83
40535	7	Sololá	717	San Juan la Laguna	12	San Juan la Laguna	3	Marzo	2023-06-03T00:00:00	2024-11-08T12:00:00	1	Precipitación	0
40536	7	Sololá	717	San Juan la Laguna	12	San Juan la Laguna	3	Marzo	2023-06-03T00:00:00	2024-11-08T12:00:00	8	Radiación solar	786
40537	7	Sololá	717	San Juan la Laguna	12	San Juan la Laguna	3	Marzo	2023-06-03T00:00:00	2024-11-08T13:00:00	2	Temperatura media	23.4
40538	7	Sololá	717	San Juan la Laguna	12	San Juan la Laguna	3	Marzo	2023-06-03T00:00:00	2024-11-08T13:00:00	4	Temperatura máxima	24.3
40539	7	Sololá	717	San Juan la Laguna	12	San Juan la Laguna	3	Marzo	2023-06-03T00:00:00	2024-11-08T13:00:00	3	Temperatura mínima	23.1
40540	7	Sololá	717	San Juan la Laguna	12	San Juan la Laguna	3	Marzo	2023-06-03T00:00:00	2024-11-08T13:00:00	5	Humedad	63
40541	7	Sololá	717	San Juan la Laguna	12	San Juan la Laguna	3	Marzo	2023-06-03T00:00:00	2024-11-08T13:00:00	6	Velocidad del viento	6.4
40542	7	Sololá	717	San Juan la Laguna	12	San Juan la Laguna	3	Marzo	2023-06-03T00:00:00	2024-11-08T13:00:00	7	Dirección del viento	6.44
40543	7	Sololá	717	San Juan la Laguna	12	San Juan la Laguna	3	Marzo	2023-06-03T00:00:00	2024-11-08T13:00:00	1	Precipitación	0
40544	7	Sololá	717	San Juan la Laguna	12	San Juan la Laguna	3	Marzo	2023-06-03T00:00:00	2024-11-08T13:00:00	8	Radiación solar	878
40545	7	Sololá	717	San Juan la Laguna	12	San Juan la Laguna	3	Marzo	2023-06-03T00:00:00	2024-11-08T14:00:00	2	Temperatura media	23.4
40546	7	Sololá	717	San Juan la Laguna	12	San Juan la Laguna	3	Marzo	2023-06-03T00:00:00	2024-11-08T14:00:00	4	Temperatura máxima	24.3
40547	7	Sololá	717	San Juan la Laguna	12	San Juan la Laguna	3	Marzo	2023-06-03T00:00:00	2024-11-08T14:00:00	3	Temperatura mínima	23.4
40548	7	Sololá	717	San Juan la Laguna	12	San Juan la Laguna	3	Marzo	2023-06-03T00:00:00	2024-11-08T14:00:00	5	Humedad	64
40549	7	Sololá	717	San Juan la Laguna	12	San Juan la Laguna	3	Marzo	2023-06-03T00:00:00	2024-11-08T14:00:00	6	Velocidad del viento	9.7
40550	7	Sololá	717	San Juan la Laguna	12	San Juan la Laguna	3	Marzo	2023-06-03T00:00:00	2024-11-08T14:00:00	7	Dirección del viento	9.66
40551	7	Sololá	717	San Juan la Laguna	12	San Juan la Laguna	3	Marzo	2023-06-03T00:00:00	2024-11-08T14:00:00	1	Precipitación	0
40552	7	Sololá	717	San Juan la Laguna	12	San Juan la Laguna	3	Marzo	2023-06-03T00:00:00	2024-11-08T14:00:00	8	Radiación solar	829
40553	7	Sololá	717	San Juan la Laguna	12	San Juan la Laguna	3	Marzo	2023-06-03T00:00:00	2024-11-08T15:00:00	2	Temperatura media	23.4
40554	7	Sololá	717	San Juan la Laguna	12	San Juan la Laguna	3	Marzo	2023-06-03T00:00:00	2024-11-08T15:00:00	4	Temperatura máxima	23.5
40555	7	Sololá	717	San Juan la Laguna	12	San Juan la Laguna	3	Marzo	2023-06-03T00:00:00	2024-11-08T15:00:00	3	Temperatura mínima	22.9
40556	7	Sololá	717	San Juan la Laguna	12	San Juan la Laguna	3	Marzo	2023-06-03T00:00:00	2024-11-08T15:00:00	5	Humedad	65
40557	7	Sololá	717	San Juan la Laguna	12	San Juan la Laguna	3	Marzo	2023-06-03T00:00:00	2024-11-08T15:00:00	6	Velocidad del viento	9.7
40558	7	Sololá	717	San Juan la Laguna	12	San Juan la Laguna	3	Marzo	2023-06-03T00:00:00	2024-11-08T15:00:00	7	Dirección del viento	9.66
40559	7	Sololá	717	San Juan la Laguna	12	San Juan la Laguna	3	Marzo	2023-06-03T00:00:00	2024-11-08T15:00:00	1	Precipitación	0
40560	7	Sololá	717	San Juan la Laguna	12	San Juan la Laguna	3	Marzo	2023-06-03T00:00:00	2024-11-08T15:00:00	8	Radiación solar	716
40561	7	Sololá	717	San Juan la Laguna	12	San Juan la Laguna	3	Marzo	2023-06-03T00:00:00	2024-11-08T16:00:00	2	Temperatura media	22.9
40562	7	Sololá	717	San Juan la Laguna	12	San Juan la Laguna	3	Marzo	2023-06-03T00:00:00	2024-11-08T16:00:00	4	Temperatura máxima	23.4
40563	7	Sololá	717	San Juan la Laguna	12	San Juan la Laguna	3	Marzo	2023-06-03T00:00:00	2024-11-08T16:00:00	3	Temperatura mínima	22.8
40564	7	Sololá	717	San Juan la Laguna	12	San Juan la Laguna	3	Marzo	2023-06-03T00:00:00	2024-11-08T16:00:00	5	Humedad	67
40565	7	Sololá	717	San Juan la Laguna	12	San Juan la Laguna	3	Marzo	2023-06-03T00:00:00	2024-11-08T16:00:00	6	Velocidad del viento	8
40566	7	Sololá	717	San Juan la Laguna	12	San Juan la Laguna	3	Marzo	2023-06-03T00:00:00	2024-11-08T16:00:00	7	Dirección del viento	8.05
40567	7	Sololá	717	San Juan la Laguna	12	San Juan la Laguna	3	Marzo	2023-06-03T00:00:00	2024-11-08T16:00:00	1	Precipitación	0
40568	7	Sololá	717	San Juan la Laguna	12	San Juan la Laguna	3	Marzo	2023-06-03T00:00:00	2024-11-08T16:00:00	8	Radiación solar	490
40569	7	Sololá	717	San Juan la Laguna	12	San Juan la Laguna	3	Marzo	2023-06-03T00:00:00	2024-11-08T17:00:00	2	Temperatura media	20.9
40570	7	Sololá	717	San Juan la Laguna	12	San Juan la Laguna	3	Marzo	2023-06-03T00:00:00	2024-11-08T17:00:00	4	Temperatura máxima	22.9
40571	7	Sololá	717	San Juan la Laguna	12	San Juan la Laguna	3	Marzo	2023-06-03T00:00:00	2024-11-08T17:00:00	3	Temperatura mínima	20.9
40572	7	Sololá	717	San Juan la Laguna	12	San Juan la Laguna	3	Marzo	2023-06-03T00:00:00	2024-11-08T17:00:00	5	Humedad	74
40573	7	Sololá	717	San Juan la Laguna	12	San Juan la Laguna	3	Marzo	2023-06-03T00:00:00	2024-11-08T17:00:00	6	Velocidad del viento	4.8
40574	7	Sololá	717	San Juan la Laguna	12	San Juan la Laguna	3	Marzo	2023-06-03T00:00:00	2024-11-08T17:00:00	7	Dirección del viento	4.83
40575	7	Sololá	717	San Juan la Laguna	12	San Juan la Laguna	3	Marzo	2023-06-03T00:00:00	2024-11-08T17:00:00	1	Precipitación	0
40576	7	Sololá	717	San Juan la Laguna	12	San Juan la Laguna	3	Marzo	2023-06-03T00:00:00	2024-11-08T17:00:00	8	Radiación solar	166
40577	7	Sololá	717	San Juan la Laguna	12	San Juan la Laguna	3	Marzo	2023-06-03T00:00:00	2024-11-08T18:00:00	2	Temperatura media	20.7
40578	7	Sololá	717	San Juan la Laguna	12	San Juan la Laguna	3	Marzo	2023-06-03T00:00:00	2024-11-08T18:00:00	4	Temperatura máxima	21.2
40579	7	Sololá	717	San Juan la Laguna	12	San Juan la Laguna	3	Marzo	2023-06-03T00:00:00	2024-11-08T18:00:00	3	Temperatura mínima	20.7
40580	7	Sololá	717	San Juan la Laguna	12	San Juan la Laguna	3	Marzo	2023-06-03T00:00:00	2024-11-08T18:00:00	5	Humedad	76
40581	7	Sololá	717	San Juan la Laguna	12	San Juan la Laguna	3	Marzo	2023-06-03T00:00:00	2024-11-08T18:00:00	6	Velocidad del viento	1.6
40582	7	Sololá	717	San Juan la Laguna	12	San Juan la Laguna	3	Marzo	2023-06-03T00:00:00	2024-11-08T18:00:00	7	Dirección del viento	1.61
40583	7	Sololá	717	San Juan la Laguna	12	San Juan la Laguna	3	Marzo	2023-06-03T00:00:00	2024-11-08T18:00:00	1	Precipitación	0
40584	7	Sololá	717	San Juan la Laguna	12	San Juan la Laguna	3	Marzo	2023-06-03T00:00:00	2024-11-08T18:00:00	8	Radiación solar	36
40585	7	Sololá	717	San Juan la Laguna	12	San Juan la Laguna	3	Marzo	2023-06-03T00:00:00	2024-11-08T19:00:00	2	Temperatura media	19.7
40586	7	Sololá	717	San Juan la Laguna	12	San Juan la Laguna	3	Marzo	2023-06-03T00:00:00	2024-11-08T19:00:00	4	Temperatura máxima	20.7
40587	7	Sololá	717	San Juan la Laguna	12	San Juan la Laguna	3	Marzo	2023-06-03T00:00:00	2024-11-08T19:00:00	3	Temperatura mínima	19.7
40588	7	Sololá	717	San Juan la Laguna	12	San Juan la Laguna	3	Marzo	2023-06-03T00:00:00	2024-11-08T19:00:00	5	Humedad	82
40589	7	Sololá	717	San Juan la Laguna	12	San Juan la Laguna	3	Marzo	2023-06-03T00:00:00	2024-11-08T19:00:00	6	Velocidad del viento	0
40590	7	Sololá	717	San Juan la Laguna	12	San Juan la Laguna	3	Marzo	2023-06-03T00:00:00	2024-11-08T19:00:00	7	Dirección del viento	0
40591	7	Sololá	717	San Juan la Laguna	12	San Juan la Laguna	3	Marzo	2023-06-03T00:00:00	2024-11-08T19:00:00	1	Precipitación	0
40592	7	Sololá	717	San Juan la Laguna	12	San Juan la Laguna	3	Marzo	2023-06-03T00:00:00	2024-11-08T19:00:00	8	Radiación solar	0
40593	7	Sololá	717	San Juan la Laguna	12	San Juan la Laguna	3	Marzo	2023-06-03T00:00:00	2024-11-08T20:00:00	2	Temperatura media	18.8
40594	7	Sololá	717	San Juan la Laguna	12	San Juan la Laguna	3	Marzo	2023-06-03T00:00:00	2024-11-08T20:00:00	4	Temperatura máxima	19.7
40595	7	Sololá	717	San Juan la Laguna	12	San Juan la Laguna	3	Marzo	2023-06-03T00:00:00	2024-11-08T20:00:00	3	Temperatura mínima	18.8
40596	7	Sololá	717	San Juan la Laguna	12	San Juan la Laguna	3	Marzo	2023-06-03T00:00:00	2024-11-08T20:00:00	5	Humedad	85
40597	7	Sololá	717	San Juan la Laguna	12	San Juan la Laguna	3	Marzo	2023-06-03T00:00:00	2024-11-08T20:00:00	6	Velocidad del viento	0
40598	7	Sololá	717	San Juan la Laguna	12	San Juan la Laguna	3	Marzo	2023-06-03T00:00:00	2024-11-08T20:00:00	7	Dirección del viento	0
40599	7	Sololá	717	San Juan la Laguna	12	San Juan la Laguna	3	Marzo	2023-06-03T00:00:00	2024-11-08T20:00:00	1	Precipitación	0
40600	7	Sololá	717	San Juan la Laguna	12	San Juan la Laguna	3	Marzo	2023-06-03T00:00:00	2024-11-08T20:00:00	8	Radiación solar	0
40601	7	Sololá	717	San Juan la Laguna	12	San Juan la Laguna	3	Marzo	2023-06-03T00:00:00	2024-11-08T21:00:00	2	Temperatura media	17.5
40602	7	Sololá	717	San Juan la Laguna	12	San Juan la Laguna	3	Marzo	2023-06-03T00:00:00	2024-11-08T21:00:00	4	Temperatura máxima	18.8
40603	7	Sololá	717	San Juan la Laguna	12	San Juan la Laguna	3	Marzo	2023-06-03T00:00:00	2024-11-08T21:00:00	3	Temperatura mínima	17.5
40604	7	Sololá	717	San Juan la Laguna	12	San Juan la Laguna	3	Marzo	2023-06-03T00:00:00	2024-11-08T21:00:00	5	Humedad	87
40605	7	Sololá	717	San Juan la Laguna	12	San Juan la Laguna	3	Marzo	2023-06-03T00:00:00	2024-11-08T21:00:00	6	Velocidad del viento	0
40606	7	Sololá	717	San Juan la Laguna	12	San Juan la Laguna	3	Marzo	2023-06-03T00:00:00	2024-11-08T21:00:00	7	Dirección del viento	0
40607	7	Sololá	717	San Juan la Laguna	12	San Juan la Laguna	3	Marzo	2023-06-03T00:00:00	2024-11-08T21:00:00	1	Precipitación	0
40608	7	Sololá	717	San Juan la Laguna	12	San Juan la Laguna	3	Marzo	2023-06-03T00:00:00	2024-11-08T21:00:00	8	Radiación solar	0
40609	7	Sololá	717	San Juan la Laguna	12	San Juan la Laguna	3	Marzo	2023-06-03T00:00:00	2024-11-08T22:00:00	2	Temperatura media	16.2
40610	7	Sololá	717	San Juan la Laguna	12	San Juan la Laguna	3	Marzo	2023-06-03T00:00:00	2024-11-08T22:00:00	4	Temperatura máxima	17.4
40611	7	Sololá	717	San Juan la Laguna	12	San Juan la Laguna	3	Marzo	2023-06-03T00:00:00	2024-11-08T22:00:00	3	Temperatura mínima	16.2
40612	7	Sololá	717	San Juan la Laguna	12	San Juan la Laguna	3	Marzo	2023-06-03T00:00:00	2024-11-08T22:00:00	5	Humedad	88
40613	7	Sololá	717	San Juan la Laguna	12	San Juan la Laguna	3	Marzo	2023-06-03T00:00:00	2024-11-08T22:00:00	6	Velocidad del viento	0
40614	7	Sololá	717	San Juan la Laguna	12	San Juan la Laguna	3	Marzo	2023-06-03T00:00:00	2024-11-08T22:00:00	7	Dirección del viento	0
40615	7	Sololá	717	San Juan la Laguna	12	San Juan la Laguna	3	Marzo	2023-06-03T00:00:00	2024-11-08T22:00:00	1	Precipitación	0
40616	7	Sololá	717	San Juan la Laguna	12	San Juan la Laguna	3	Marzo	2023-06-03T00:00:00	2024-11-08T22:00:00	8	Radiación solar	0
40617	7	Sololá	717	San Juan la Laguna	12	San Juan la Laguna	3	Marzo	2023-06-03T00:00:00	2024-11-08T23:00:00	2	Temperatura media	15.4
40618	7	Sololá	717	San Juan la Laguna	12	San Juan la Laguna	3	Marzo	2023-06-03T00:00:00	2024-11-08T23:00:00	4	Temperatura máxima	16.2
40619	7	Sololá	717	San Juan la Laguna	12	San Juan la Laguna	3	Marzo	2023-06-03T00:00:00	2024-11-08T23:00:00	3	Temperatura mínima	15.4
40620	7	Sololá	717	San Juan la Laguna	12	San Juan la Laguna	3	Marzo	2023-06-03T00:00:00	2024-11-08T23:00:00	5	Humedad	87
40621	7	Sololá	717	San Juan la Laguna	12	San Juan la Laguna	3	Marzo	2023-06-03T00:00:00	2024-11-08T23:00:00	6	Velocidad del viento	1.6
40622	7	Sololá	717	San Juan la Laguna	12	San Juan la Laguna	3	Marzo	2023-06-03T00:00:00	2024-11-08T23:00:00	7	Dirección del viento	1.61
40623	7	Sololá	717	San Juan la Laguna	12	San Juan la Laguna	3	Marzo	2023-06-03T00:00:00	2024-11-08T23:00:00	1	Precipitación	0
40624	7	Sololá	717	San Juan la Laguna	12	San Juan la Laguna	3	Marzo	2023-06-03T00:00:00	2024-11-08T23:00:00	8	Radiación solar	0
40625	7	Sololá	717	San Juan la Laguna	12	San Juan la Laguna	3	Marzo	2023-07-03T00:00:00	2024-11-08T00:00:00	2	Temperatura media	14.9
40626	7	Sololá	717	San Juan la Laguna	12	San Juan la Laguna	3	Marzo	2023-07-03T00:00:00	2024-11-08T00:00:00	4	Temperatura máxima	15.4
40627	7	Sololá	717	San Juan la Laguna	12	San Juan la Laguna	3	Marzo	2023-07-03T00:00:00	2024-11-08T00:00:00	3	Temperatura mínima	14.7
40628	7	Sololá	717	San Juan la Laguna	12	San Juan la Laguna	3	Marzo	2023-07-03T00:00:00	2024-11-08T00:00:00	5	Humedad	83
40629	7	Sololá	717	San Juan la Laguna	12	San Juan la Laguna	3	Marzo	2023-07-03T00:00:00	2024-11-08T00:00:00	6	Velocidad del viento	3.2
40630	7	Sololá	717	San Juan la Laguna	12	San Juan la Laguna	3	Marzo	2023-07-03T00:00:00	2024-11-08T00:00:00	7	Dirección del viento	3.22
40631	7	Sololá	717	San Juan la Laguna	12	San Juan la Laguna	3	Marzo	2023-07-03T00:00:00	2024-11-08T00:00:00	1	Precipitación	0
40632	7	Sololá	717	San Juan la Laguna	12	San Juan la Laguna	3	Marzo	2023-07-03T00:00:00	2024-11-08T00:00:00	8	Radiación solar	0
40633	7	Sololá	717	San Juan la Laguna	12	San Juan la Laguna	3	Marzo	2023-07-03T00:00:00	2024-11-08T01:00:00	2	Temperatura media	15.3
40634	7	Sololá	717	San Juan la Laguna	12	San Juan la Laguna	3	Marzo	2023-07-03T00:00:00	2024-11-08T01:00:00	4	Temperatura máxima	15.3
40635	7	Sololá	717	San Juan la Laguna	12	San Juan la Laguna	3	Marzo	2023-07-03T00:00:00	2024-11-08T01:00:00	3	Temperatura mínima	14.9
40636	7	Sololá	717	San Juan la Laguna	12	San Juan la Laguna	3	Marzo	2023-07-03T00:00:00	2024-11-08T01:00:00	5	Humedad	81
40637	7	Sololá	717	San Juan la Laguna	12	San Juan la Laguna	3	Marzo	2023-07-03T00:00:00	2024-11-08T01:00:00	6	Velocidad del viento	4.8
40638	7	Sololá	717	San Juan la Laguna	12	San Juan la Laguna	3	Marzo	2023-07-03T00:00:00	2024-11-08T01:00:00	7	Dirección del viento	4.83
40639	7	Sololá	717	San Juan la Laguna	12	San Juan la Laguna	3	Marzo	2023-07-03T00:00:00	2024-11-08T01:00:00	1	Precipitación	0
40640	7	Sololá	717	San Juan la Laguna	12	San Juan la Laguna	3	Marzo	2023-07-03T00:00:00	2024-11-08T01:00:00	8	Radiación solar	0
40641	7	Sololá	717	San Juan la Laguna	12	San Juan la Laguna	3	Marzo	2023-07-03T00:00:00	2024-11-08T02:00:00	2	Temperatura media	14.3
40642	7	Sololá	717	San Juan la Laguna	12	San Juan la Laguna	3	Marzo	2023-07-03T00:00:00	2024-11-08T02:00:00	4	Temperatura máxima	15.3
40643	7	Sololá	717	San Juan la Laguna	12	San Juan la Laguna	3	Marzo	2023-07-03T00:00:00	2024-11-08T02:00:00	3	Temperatura mínima	14.3
40644	7	Sololá	717	San Juan la Laguna	12	San Juan la Laguna	3	Marzo	2023-07-03T00:00:00	2024-11-08T02:00:00	5	Humedad	82
40645	7	Sololá	717	San Juan la Laguna	12	San Juan la Laguna	3	Marzo	2023-07-03T00:00:00	2024-11-08T02:00:00	6	Velocidad del viento	4.8
40646	7	Sololá	717	San Juan la Laguna	12	San Juan la Laguna	3	Marzo	2023-07-03T00:00:00	2024-11-08T02:00:00	7	Dirección del viento	4.83
40647	7	Sololá	717	San Juan la Laguna	12	San Juan la Laguna	3	Marzo	2023-07-03T00:00:00	2024-11-08T02:00:00	1	Precipitación	0
40648	7	Sololá	717	San Juan la Laguna	12	San Juan la Laguna	3	Marzo	2023-07-03T00:00:00	2024-11-08T02:00:00	8	Radiación solar	0
40649	7	Sololá	717	San Juan la Laguna	12	San Juan la Laguna	3	Marzo	2023-07-03T00:00:00	2024-11-08T03:00:00	2	Temperatura media	14.2
40650	7	Sololá	717	San Juan la Laguna	12	San Juan la Laguna	3	Marzo	2023-07-03T00:00:00	2024-11-08T03:00:00	4	Temperatura máxima	14.7
40651	7	Sololá	717	San Juan la Laguna	12	San Juan la Laguna	3	Marzo	2023-07-03T00:00:00	2024-11-08T03:00:00	3	Temperatura mínima	14.2
40652	7	Sololá	717	San Juan la Laguna	12	San Juan la Laguna	3	Marzo	2023-07-03T00:00:00	2024-11-08T03:00:00	5	Humedad	83
40653	7	Sololá	717	San Juan la Laguna	12	San Juan la Laguna	3	Marzo	2023-07-03T00:00:00	2024-11-08T03:00:00	6	Velocidad del viento	3.2
40654	7	Sololá	717	San Juan la Laguna	12	San Juan la Laguna	3	Marzo	2023-07-03T00:00:00	2024-11-08T03:00:00	7	Dirección del viento	3.22
40655	7	Sololá	717	San Juan la Laguna	12	San Juan la Laguna	3	Marzo	2023-07-03T00:00:00	2024-11-08T03:00:00	1	Precipitación	0
40656	7	Sololá	717	San Juan la Laguna	12	San Juan la Laguna	3	Marzo	2023-07-03T00:00:00	2024-11-08T03:00:00	8	Radiación solar	0
40657	7	Sololá	717	San Juan la Laguna	12	San Juan la Laguna	3	Marzo	2023-07-03T00:00:00	2024-11-08T04:00:00	2	Temperatura media	13.7
40658	7	Sololá	717	San Juan la Laguna	12	San Juan la Laguna	3	Marzo	2023-07-03T00:00:00	2024-11-08T04:00:00	4	Temperatura máxima	14.3
40659	7	Sololá	717	San Juan la Laguna	12	San Juan la Laguna	3	Marzo	2023-07-03T00:00:00	2024-11-08T04:00:00	3	Temperatura mínima	13.7
40660	7	Sololá	717	San Juan la Laguna	12	San Juan la Laguna	3	Marzo	2023-07-03T00:00:00	2024-11-08T04:00:00	5	Humedad	84
40661	7	Sololá	717	San Juan la Laguna	12	San Juan la Laguna	3	Marzo	2023-07-03T00:00:00	2024-11-08T04:00:00	6	Velocidad del viento	1.6
40662	7	Sololá	717	San Juan la Laguna	12	San Juan la Laguna	3	Marzo	2023-07-03T00:00:00	2024-11-08T04:00:00	7	Dirección del viento	1.61
40663	7	Sololá	717	San Juan la Laguna	12	San Juan la Laguna	3	Marzo	2023-07-03T00:00:00	2024-11-08T04:00:00	1	Precipitación	0
40664	7	Sololá	717	San Juan la Laguna	12	San Juan la Laguna	3	Marzo	2023-07-03T00:00:00	2024-11-08T04:00:00	8	Radiación solar	0
40665	7	Sololá	717	San Juan la Laguna	12	San Juan la Laguna	3	Marzo	2023-07-03T00:00:00	2024-11-08T05:00:00	2	Temperatura media	13.3
40666	7	Sololá	717	San Juan la Laguna	12	San Juan la Laguna	3	Marzo	2023-07-03T00:00:00	2024-11-08T05:00:00	4	Temperatura máxima	13.7
40667	7	Sololá	717	San Juan la Laguna	12	San Juan la Laguna	3	Marzo	2023-07-03T00:00:00	2024-11-08T05:00:00	3	Temperatura mínima	13.2
40668	7	Sololá	717	San Juan la Laguna	12	San Juan la Laguna	3	Marzo	2023-07-03T00:00:00	2024-11-08T05:00:00	5	Humedad	86
40669	7	Sololá	717	San Juan la Laguna	12	San Juan la Laguna	3	Marzo	2023-07-03T00:00:00	2024-11-08T05:00:00	6	Velocidad del viento	1.6
40670	7	Sololá	717	San Juan la Laguna	12	San Juan la Laguna	3	Marzo	2023-07-03T00:00:00	2024-11-08T05:00:00	7	Dirección del viento	1.61
40671	7	Sololá	717	San Juan la Laguna	12	San Juan la Laguna	3	Marzo	2023-07-03T00:00:00	2024-11-08T05:00:00	1	Precipitación	0
40672	7	Sololá	717	San Juan la Laguna	12	San Juan la Laguna	3	Marzo	2023-07-03T00:00:00	2024-11-08T05:00:00	8	Radiación solar	0
40673	7	Sololá	717	San Juan la Laguna	12	San Juan la Laguna	3	Marzo	2023-07-03T00:00:00	2024-11-08T06:00:00	2	Temperatura media	13.1
40674	7	Sololá	717	San Juan la Laguna	12	San Juan la Laguna	3	Marzo	2023-07-03T00:00:00	2024-11-08T06:00:00	4	Temperatura máxima	13.6
40675	7	Sololá	717	San Juan la Laguna	12	San Juan la Laguna	3	Marzo	2023-07-03T00:00:00	2024-11-08T06:00:00	3	Temperatura mínima	13.1
40676	7	Sololá	717	San Juan la Laguna	12	San Juan la Laguna	3	Marzo	2023-07-03T00:00:00	2024-11-08T06:00:00	5	Humedad	85
40677	7	Sololá	717	San Juan la Laguna	12	San Juan la Laguna	3	Marzo	2023-07-03T00:00:00	2024-11-08T06:00:00	6	Velocidad del viento	3.2
40678	7	Sololá	717	San Juan la Laguna	12	San Juan la Laguna	3	Marzo	2023-07-03T00:00:00	2024-11-08T06:00:00	7	Dirección del viento	3.22
40679	7	Sololá	717	San Juan la Laguna	12	San Juan la Laguna	3	Marzo	2023-07-03T00:00:00	2024-11-08T06:00:00	1	Precipitación	0
40680	7	Sololá	717	San Juan la Laguna	12	San Juan la Laguna	3	Marzo	2023-07-03T00:00:00	2024-11-08T06:00:00	8	Radiación solar	0
40681	7	Sololá	717	San Juan la Laguna	12	San Juan la Laguna	3	Marzo	2023-07-03T00:00:00	2024-11-08T07:00:00	2	Temperatura media	13.5
40682	7	Sololá	717	San Juan la Laguna	12	San Juan la Laguna	3	Marzo	2023-07-03T00:00:00	2024-11-08T07:00:00	4	Temperatura máxima	13.5
40683	7	Sololá	717	San Juan la Laguna	12	San Juan la Laguna	3	Marzo	2023-07-03T00:00:00	2024-11-08T07:00:00	3	Temperatura mínima	13.1
40684	7	Sololá	717	San Juan la Laguna	12	San Juan la Laguna	3	Marzo	2023-07-03T00:00:00	2024-11-08T07:00:00	5	Humedad	82
40685	7	Sololá	717	San Juan la Laguna	12	San Juan la Laguna	3	Marzo	2023-07-03T00:00:00	2024-11-08T07:00:00	6	Velocidad del viento	3.2
40686	7	Sololá	717	San Juan la Laguna	12	San Juan la Laguna	3	Marzo	2023-07-03T00:00:00	2024-11-08T07:00:00	7	Dirección del viento	3.22
40687	7	Sololá	717	San Juan la Laguna	12	San Juan la Laguna	3	Marzo	2023-07-03T00:00:00	2024-11-08T07:00:00	1	Precipitación	0
40688	7	Sololá	717	San Juan la Laguna	12	San Juan la Laguna	3	Marzo	2023-07-03T00:00:00	2024-11-08T07:00:00	8	Radiación solar	19
40689	7	Sololá	717	San Juan la Laguna	12	San Juan la Laguna	3	Marzo	2023-07-03T00:00:00	2024-11-08T08:00:00	2	Temperatura media	16.3
40690	7	Sololá	717	San Juan la Laguna	12	San Juan la Laguna	3	Marzo	2023-07-03T00:00:00	2024-11-08T08:00:00	4	Temperatura máxima	16.3
40691	7	Sololá	717	San Juan la Laguna	12	San Juan la Laguna	3	Marzo	2023-07-03T00:00:00	2024-11-08T08:00:00	3	Temperatura mínima	13.5
40692	7	Sololá	717	San Juan la Laguna	12	San Juan la Laguna	3	Marzo	2023-07-03T00:00:00	2024-11-08T08:00:00	5	Humedad	77
40693	7	Sololá	717	San Juan la Laguna	12	San Juan la Laguna	3	Marzo	2023-07-03T00:00:00	2024-11-08T08:00:00	6	Velocidad del viento	1.6
40694	7	Sololá	717	San Juan la Laguna	12	San Juan la Laguna	3	Marzo	2023-07-03T00:00:00	2024-11-08T08:00:00	7	Dirección del viento	1.61
40695	7	Sololá	717	San Juan la Laguna	12	San Juan la Laguna	3	Marzo	2023-07-03T00:00:00	2024-11-08T08:00:00	1	Precipitación	0
40696	7	Sololá	717	San Juan la Laguna	12	San Juan la Laguna	3	Marzo	2023-07-03T00:00:00	2024-11-08T08:00:00	8	Radiación solar	124
40697	7	Sololá	717	San Juan la Laguna	12	San Juan la Laguna	3	Marzo	2023-07-03T00:00:00	2024-11-08T09:00:00	2	Temperatura media	17.9
40698	7	Sololá	717	San Juan la Laguna	12	San Juan la Laguna	3	Marzo	2023-07-03T00:00:00	2024-11-08T09:00:00	4	Temperatura máxima	17.9
40699	7	Sololá	717	San Juan la Laguna	12	San Juan la Laguna	3	Marzo	2023-07-03T00:00:00	2024-11-08T09:00:00	3	Temperatura mínima	16.3
40700	7	Sololá	717	San Juan la Laguna	12	San Juan la Laguna	3	Marzo	2023-07-03T00:00:00	2024-11-08T09:00:00	5	Humedad	75
40701	7	Sololá	717	San Juan la Laguna	12	San Juan la Laguna	3	Marzo	2023-07-03T00:00:00	2024-11-08T09:00:00	6	Velocidad del viento	1.6
40702	7	Sololá	717	San Juan la Laguna	12	San Juan la Laguna	3	Marzo	2023-07-03T00:00:00	2024-11-08T09:00:00	7	Dirección del viento	1.61
40703	7	Sololá	717	San Juan la Laguna	12	San Juan la Laguna	3	Marzo	2023-07-03T00:00:00	2024-11-08T09:00:00	1	Precipitación	0
40704	7	Sololá	717	San Juan la Laguna	12	San Juan la Laguna	3	Marzo	2023-07-03T00:00:00	2024-11-08T09:00:00	8	Radiación solar	255
40705	7	Sololá	717	San Juan la Laguna	12	San Juan la Laguna	3	Marzo	2023-07-03T00:00:00	2024-11-08T10:00:00	2	Temperatura media	18.8
40706	7	Sololá	717	San Juan la Laguna	12	San Juan la Laguna	3	Marzo	2023-07-03T00:00:00	2024-11-08T10:00:00	4	Temperatura máxima	19.3
40707	7	Sololá	717	San Juan la Laguna	12	San Juan la Laguna	3	Marzo	2023-07-03T00:00:00	2024-11-08T10:00:00	3	Temperatura mínima	17.9
40708	7	Sololá	717	San Juan la Laguna	12	San Juan la Laguna	3	Marzo	2023-07-03T00:00:00	2024-11-08T10:00:00	5	Humedad	72
40709	7	Sololá	717	San Juan la Laguna	12	San Juan la Laguna	3	Marzo	2023-07-03T00:00:00	2024-11-08T10:00:00	6	Velocidad del viento	3.2
40710	7	Sololá	717	San Juan la Laguna	12	San Juan la Laguna	3	Marzo	2023-07-03T00:00:00	2024-11-08T10:00:00	7	Dirección del viento	3.22
40711	7	Sololá	717	San Juan la Laguna	12	San Juan la Laguna	3	Marzo	2023-07-03T00:00:00	2024-11-08T10:00:00	1	Precipitación	0
40712	7	Sololá	717	San Juan la Laguna	12	San Juan la Laguna	3	Marzo	2023-07-03T00:00:00	2024-11-08T10:00:00	8	Radiación solar	519
40713	7	Sololá	717	San Juan la Laguna	12	San Juan la Laguna	3	Marzo	2023-07-03T00:00:00	2024-11-08T11:00:00	2	Temperatura media	20.6
40714	7	Sololá	717	San Juan la Laguna	12	San Juan la Laguna	3	Marzo	2023-07-03T00:00:00	2024-11-08T11:00:00	4	Temperatura máxima	21.1
40715	7	Sololá	717	San Juan la Laguna	12	San Juan la Laguna	3	Marzo	2023-07-03T00:00:00	2024-11-08T11:00:00	3	Temperatura mínima	18.8
40716	7	Sololá	717	San Juan la Laguna	12	San Juan la Laguna	3	Marzo	2023-07-03T00:00:00	2024-11-08T11:00:00	5	Humedad	67
40717	7	Sololá	717	San Juan la Laguna	12	San Juan la Laguna	3	Marzo	2023-07-03T00:00:00	2024-11-08T11:00:00	6	Velocidad del viento	3.2
40718	7	Sololá	717	San Juan la Laguna	12	San Juan la Laguna	3	Marzo	2023-07-03T00:00:00	2024-11-08T11:00:00	7	Dirección del viento	3.22
40719	7	Sololá	717	San Juan la Laguna	12	San Juan la Laguna	3	Marzo	2023-07-03T00:00:00	2024-11-08T11:00:00	1	Precipitación	0
40720	7	Sololá	717	San Juan la Laguna	12	San Juan la Laguna	3	Marzo	2023-07-03T00:00:00	2024-11-08T11:00:00	8	Radiación solar	632
40721	7	Sololá	717	San Juan la Laguna	12	San Juan la Laguna	3	Marzo	2023-07-03T00:00:00	2024-11-08T12:00:00	2	Temperatura media	21.1
40722	7	Sololá	717	San Juan la Laguna	12	San Juan la Laguna	3	Marzo	2023-07-03T00:00:00	2024-11-08T12:00:00	4	Temperatura máxima	21.8
40723	7	Sololá	717	San Juan la Laguna	12	San Juan la Laguna	3	Marzo	2023-07-03T00:00:00	2024-11-08T12:00:00	3	Temperatura mínima	20.6
40724	7	Sololá	717	San Juan la Laguna	12	San Juan la Laguna	3	Marzo	2023-07-03T00:00:00	2024-11-08T12:00:00	5	Humedad	68
40725	7	Sololá	717	San Juan la Laguna	12	San Juan la Laguna	3	Marzo	2023-07-03T00:00:00	2024-11-08T12:00:00	6	Velocidad del viento	4.8
40726	7	Sololá	717	San Juan la Laguna	12	San Juan la Laguna	3	Marzo	2023-07-03T00:00:00	2024-11-08T12:00:00	7	Dirección del viento	4.83
40727	7	Sololá	717	San Juan la Laguna	12	San Juan la Laguna	3	Marzo	2023-07-03T00:00:00	2024-11-08T12:00:00	1	Precipitación	0
40728	7	Sololá	717	San Juan la Laguna	12	San Juan la Laguna	3	Marzo	2023-07-03T00:00:00	2024-11-08T12:00:00	8	Radiación solar	527
40729	7	Sololá	717	San Juan la Laguna	12	San Juan la Laguna	3	Marzo	2023-07-03T00:00:00	2024-11-08T13:00:00	2	Temperatura media	21.8
40730	7	Sololá	717	San Juan la Laguna	12	San Juan la Laguna	3	Marzo	2023-07-03T00:00:00	2024-11-08T13:00:00	4	Temperatura máxima	22
40731	7	Sololá	717	San Juan la Laguna	12	San Juan la Laguna	3	Marzo	2023-07-03T00:00:00	2024-11-08T13:00:00	3	Temperatura mínima	21.1
40732	7	Sololá	717	San Juan la Laguna	12	San Juan la Laguna	3	Marzo	2023-07-03T00:00:00	2024-11-08T13:00:00	5	Humedad	65
40733	7	Sololá	717	San Juan la Laguna	12	San Juan la Laguna	3	Marzo	2023-07-03T00:00:00	2024-11-08T13:00:00	6	Velocidad del viento	6.4
40734	7	Sololá	717	San Juan la Laguna	12	San Juan la Laguna	3	Marzo	2023-07-03T00:00:00	2024-11-08T13:00:00	7	Dirección del viento	6.44
40735	7	Sololá	717	San Juan la Laguna	12	San Juan la Laguna	3	Marzo	2023-07-03T00:00:00	2024-11-08T13:00:00	1	Precipitación	0
40736	7	Sololá	717	San Juan la Laguna	12	San Juan la Laguna	3	Marzo	2023-07-03T00:00:00	2024-11-08T13:00:00	8	Radiación solar	702
40737	7	Sololá	717	San Juan la Laguna	12	San Juan la Laguna	3	Marzo	2023-07-03T00:00:00	2024-11-08T14:00:00	2	Temperatura media	21.4
40738	7	Sololá	717	San Juan la Laguna	12	San Juan la Laguna	3	Marzo	2023-07-03T00:00:00	2024-11-08T14:00:00	4	Temperatura máxima	22.7
40739	7	Sololá	717	San Juan la Laguna	12	San Juan la Laguna	3	Marzo	2023-07-03T00:00:00	2024-11-08T14:00:00	3	Temperatura mínima	21.4
40740	7	Sololá	717	San Juan la Laguna	12	San Juan la Laguna	3	Marzo	2023-07-03T00:00:00	2024-11-08T14:00:00	5	Humedad	69
40741	7	Sololá	717	San Juan la Laguna	12	San Juan la Laguna	3	Marzo	2023-07-03T00:00:00	2024-11-08T14:00:00	6	Velocidad del viento	8
40742	7	Sololá	717	San Juan la Laguna	12	San Juan la Laguna	3	Marzo	2023-07-03T00:00:00	2024-11-08T14:00:00	7	Dirección del viento	8.05
40743	7	Sololá	717	San Juan la Laguna	12	San Juan la Laguna	3	Marzo	2023-07-03T00:00:00	2024-11-08T14:00:00	1	Precipitación	0
40744	7	Sololá	717	San Juan la Laguna	12	San Juan la Laguna	3	Marzo	2023-07-03T00:00:00	2024-11-08T14:00:00	8	Radiación solar	624
40745	7	Sololá	717	San Juan la Laguna	12	San Juan la Laguna	3	Marzo	2023-07-03T00:00:00	2024-11-08T15:00:00	2	Temperatura media	21.3
40746	7	Sololá	717	San Juan la Laguna	12	San Juan la Laguna	3	Marzo	2023-07-03T00:00:00	2024-11-08T15:00:00	4	Temperatura máxima	22.3
40747	7	Sololá	717	San Juan la Laguna	12	San Juan la Laguna	3	Marzo	2023-07-03T00:00:00	2024-11-08T15:00:00	3	Temperatura mínima	21.3
40748	7	Sololá	717	San Juan la Laguna	12	San Juan la Laguna	3	Marzo	2023-07-03T00:00:00	2024-11-08T15:00:00	5	Humedad	69
40749	7	Sololá	717	San Juan la Laguna	12	San Juan la Laguna	3	Marzo	2023-07-03T00:00:00	2024-11-08T15:00:00	6	Velocidad del viento	6.4
40750	7	Sololá	717	San Juan la Laguna	12	San Juan la Laguna	3	Marzo	2023-07-03T00:00:00	2024-11-08T15:00:00	7	Dirección del viento	6.44
40751	7	Sololá	717	San Juan la Laguna	12	San Juan la Laguna	3	Marzo	2023-07-03T00:00:00	2024-11-08T15:00:00	1	Precipitación	0
40752	7	Sololá	717	San Juan la Laguna	12	San Juan la Laguna	3	Marzo	2023-07-03T00:00:00	2024-11-08T15:00:00	8	Radiación solar	458
40753	7	Sololá	717	San Juan la Laguna	12	San Juan la Laguna	3	Marzo	2023-07-03T00:00:00	2024-11-08T16:00:00	2	Temperatura media	20.3
40754	7	Sololá	717	San Juan la Laguna	12	San Juan la Laguna	3	Marzo	2023-07-03T00:00:00	2024-11-08T16:00:00	4	Temperatura máxima	21.3
40755	7	Sololá	717	San Juan la Laguna	12	San Juan la Laguna	3	Marzo	2023-07-03T00:00:00	2024-11-08T16:00:00	3	Temperatura mínima	19.9
40756	7	Sololá	717	San Juan la Laguna	12	San Juan la Laguna	3	Marzo	2023-07-03T00:00:00	2024-11-08T16:00:00	5	Humedad	73
40757	7	Sololá	717	San Juan la Laguna	12	San Juan la Laguna	3	Marzo	2023-07-03T00:00:00	2024-11-08T16:00:00	6	Velocidad del viento	6.4
40758	7	Sololá	717	San Juan la Laguna	12	San Juan la Laguna	3	Marzo	2023-07-03T00:00:00	2024-11-08T16:00:00	7	Dirección del viento	6.44
40759	7	Sololá	717	San Juan la Laguna	12	San Juan la Laguna	3	Marzo	2023-07-03T00:00:00	2024-11-08T16:00:00	1	Precipitación	0
40760	7	Sololá	717	San Juan la Laguna	12	San Juan la Laguna	3	Marzo	2023-07-03T00:00:00	2024-11-08T16:00:00	8	Radiación solar	181
40761	7	Sololá	717	San Juan la Laguna	12	San Juan la Laguna	3	Marzo	2023-07-03T00:00:00	2024-11-08T17:00:00	2	Temperatura media	19.8
40762	7	Sololá	717	San Juan la Laguna	12	San Juan la Laguna	3	Marzo	2023-07-03T00:00:00	2024-11-08T17:00:00	4	Temperatura máxima	20.3
40763	7	Sololá	717	San Juan la Laguna	12	San Juan la Laguna	3	Marzo	2023-07-03T00:00:00	2024-11-08T17:00:00	3	Temperatura mínima	19.7
40764	7	Sololá	717	San Juan la Laguna	12	San Juan la Laguna	3	Marzo	2023-07-03T00:00:00	2024-11-08T17:00:00	5	Humedad	77
40765	7	Sololá	717	San Juan la Laguna	12	San Juan la Laguna	3	Marzo	2023-07-03T00:00:00	2024-11-08T17:00:00	6	Velocidad del viento	4.8
40766	7	Sololá	717	San Juan la Laguna	12	San Juan la Laguna	3	Marzo	2023-07-03T00:00:00	2024-11-08T17:00:00	7	Dirección del viento	4.83
40767	7	Sololá	717	San Juan la Laguna	12	San Juan la Laguna	3	Marzo	2023-07-03T00:00:00	2024-11-08T17:00:00	1	Precipitación	0
40768	7	Sololá	717	San Juan la Laguna	12	San Juan la Laguna	3	Marzo	2023-07-03T00:00:00	2024-11-08T17:00:00	8	Radiación solar	108
40769	7	Sololá	717	San Juan la Laguna	12	San Juan la Laguna	3	Marzo	2023-07-03T00:00:00	2024-11-08T18:00:00	2	Temperatura media	19.8
40770	7	Sololá	717	San Juan la Laguna	12	San Juan la Laguna	3	Marzo	2023-07-03T00:00:00	2024-11-08T18:00:00	4	Temperatura máxima	19.9
40771	7	Sololá	717	San Juan la Laguna	12	San Juan la Laguna	3	Marzo	2023-07-03T00:00:00	2024-11-08T18:00:00	3	Temperatura mínima	19.7
40772	7	Sololá	717	San Juan la Laguna	12	San Juan la Laguna	3	Marzo	2023-07-03T00:00:00	2024-11-08T18:00:00	5	Humedad	78
40773	7	Sololá	717	San Juan la Laguna	12	San Juan la Laguna	3	Marzo	2023-07-03T00:00:00	2024-11-08T18:00:00	6	Velocidad del viento	3.2
40774	7	Sololá	717	San Juan la Laguna	12	San Juan la Laguna	3	Marzo	2023-07-03T00:00:00	2024-11-08T18:00:00	7	Dirección del viento	3.22
40775	7	Sololá	717	San Juan la Laguna	12	San Juan la Laguna	3	Marzo	2023-07-03T00:00:00	2024-11-08T18:00:00	1	Precipitación	0
40776	7	Sololá	717	San Juan la Laguna	12	San Juan la Laguna	3	Marzo	2023-07-03T00:00:00	2024-11-08T18:00:00	8	Radiación solar	71
40777	7	Sololá	717	San Juan la Laguna	12	San Juan la Laguna	3	Marzo	2023-07-03T00:00:00	2024-11-08T19:00:00	2	Temperatura media	18.9
40778	7	Sololá	717	San Juan la Laguna	12	San Juan la Laguna	3	Marzo	2023-07-03T00:00:00	2024-11-08T19:00:00	4	Temperatura máxima	19.8
40779	7	Sololá	717	San Juan la Laguna	12	San Juan la Laguna	3	Marzo	2023-07-03T00:00:00	2024-11-08T19:00:00	3	Temperatura mínima	18.9
40780	7	Sololá	717	San Juan la Laguna	12	San Juan la Laguna	3	Marzo	2023-07-03T00:00:00	2024-11-08T19:00:00	5	Humedad	84
40781	7	Sololá	717	San Juan la Laguna	12	San Juan la Laguna	3	Marzo	2023-07-03T00:00:00	2024-11-08T19:00:00	6	Velocidad del viento	1.6
40782	7	Sololá	717	San Juan la Laguna	12	San Juan la Laguna	3	Marzo	2023-07-03T00:00:00	2024-11-08T19:00:00	7	Dirección del viento	1.61
40783	7	Sololá	717	San Juan la Laguna	12	San Juan la Laguna	3	Marzo	2023-07-03T00:00:00	2024-11-08T19:00:00	1	Precipitación	0
40784	7	Sololá	717	San Juan la Laguna	12	San Juan la Laguna	3	Marzo	2023-07-03T00:00:00	2024-11-08T19:00:00	8	Radiación solar	0
40785	7	Sololá	717	San Juan la Laguna	12	San Juan la Laguna	3	Marzo	2023-07-03T00:00:00	2024-11-08T20:00:00	2	Temperatura media	18.4
40786	7	Sololá	717	San Juan la Laguna	12	San Juan la Laguna	3	Marzo	2023-07-03T00:00:00	2024-11-08T20:00:00	4	Temperatura máxima	18.9
40787	7	Sololá	717	San Juan la Laguna	12	San Juan la Laguna	3	Marzo	2023-07-03T00:00:00	2024-11-08T20:00:00	3	Temperatura mínima	18.4
40788	7	Sololá	717	San Juan la Laguna	12	San Juan la Laguna	3	Marzo	2023-07-03T00:00:00	2024-11-08T20:00:00	5	Humedad	87
40789	7	Sololá	717	San Juan la Laguna	12	San Juan la Laguna	3	Marzo	2023-07-03T00:00:00	2024-11-08T20:00:00	6	Velocidad del viento	0
40790	7	Sololá	717	San Juan la Laguna	12	San Juan la Laguna	3	Marzo	2023-07-03T00:00:00	2024-11-08T20:00:00	7	Dirección del viento	0
40791	7	Sololá	717	San Juan la Laguna	12	San Juan la Laguna	3	Marzo	2023-07-03T00:00:00	2024-11-08T20:00:00	1	Precipitación	0
40792	7	Sololá	717	San Juan la Laguna	12	San Juan la Laguna	3	Marzo	2023-07-03T00:00:00	2024-11-08T20:00:00	8	Radiación solar	0
40793	7	Sololá	717	San Juan la Laguna	12	San Juan la Laguna	3	Marzo	2023-07-03T00:00:00	2024-11-08T21:00:00	2	Temperatura media	18.4
40794	7	Sololá	717	San Juan la Laguna	12	San Juan la Laguna	3	Marzo	2023-07-03T00:00:00	2024-11-08T21:00:00	4	Temperatura máxima	18.4
40795	7	Sololá	717	San Juan la Laguna	12	San Juan la Laguna	3	Marzo	2023-07-03T00:00:00	2024-11-08T21:00:00	3	Temperatura mínima	18.3
40796	7	Sololá	717	San Juan la Laguna	12	San Juan la Laguna	3	Marzo	2023-07-03T00:00:00	2024-11-08T21:00:00	5	Humedad	88
40797	7	Sololá	717	San Juan la Laguna	12	San Juan la Laguna	3	Marzo	2023-07-03T00:00:00	2024-11-08T21:00:00	6	Velocidad del viento	0
40798	7	Sololá	717	San Juan la Laguna	12	San Juan la Laguna	3	Marzo	2023-07-03T00:00:00	2024-11-08T21:00:00	7	Dirección del viento	0
40799	7	Sololá	717	San Juan la Laguna	12	San Juan la Laguna	3	Marzo	2023-07-03T00:00:00	2024-11-08T21:00:00	1	Precipitación	0
40800	7	Sololá	717	San Juan la Laguna	12	San Juan la Laguna	3	Marzo	2023-07-03T00:00:00	2024-11-08T21:00:00	8	Radiación solar	0
40801	7	Sololá	717	San Juan la Laguna	12	San Juan la Laguna	3	Marzo	2023-07-03T00:00:00	2024-11-08T22:00:00	2	Temperatura media	18.2
40802	7	Sololá	717	San Juan la Laguna	12	San Juan la Laguna	3	Marzo	2023-07-03T00:00:00	2024-11-08T22:00:00	4	Temperatura máxima	18.4
40803	7	Sololá	717	San Juan la Laguna	12	San Juan la Laguna	3	Marzo	2023-07-03T00:00:00	2024-11-08T22:00:00	3	Temperatura mínima	18.2
40804	7	Sololá	717	San Juan la Laguna	12	San Juan la Laguna	3	Marzo	2023-07-03T00:00:00	2024-11-08T22:00:00	5	Humedad	88
40805	7	Sololá	717	San Juan la Laguna	12	San Juan la Laguna	3	Marzo	2023-07-03T00:00:00	2024-11-08T22:00:00	6	Velocidad del viento	0
40806	7	Sololá	717	San Juan la Laguna	12	San Juan la Laguna	3	Marzo	2023-07-03T00:00:00	2024-11-08T22:00:00	7	Dirección del viento	0
40807	7	Sololá	717	San Juan la Laguna	12	San Juan la Laguna	3	Marzo	2023-07-03T00:00:00	2024-11-08T22:00:00	1	Precipitación	0
40808	7	Sololá	717	San Juan la Laguna	12	San Juan la Laguna	3	Marzo	2023-07-03T00:00:00	2024-11-08T22:00:00	8	Radiación solar	0
40809	7	Sololá	717	San Juan la Laguna	12	San Juan la Laguna	3	Marzo	2023-07-03T00:00:00	2024-11-08T23:00:00	2	Temperatura media	17.2
40810	7	Sololá	717	San Juan la Laguna	12	San Juan la Laguna	3	Marzo	2023-07-03T00:00:00	2024-11-08T23:00:00	4	Temperatura máxima	18.2
40811	7	Sololá	717	San Juan la Laguna	12	San Juan la Laguna	3	Marzo	2023-07-03T00:00:00	2024-11-08T23:00:00	3	Temperatura mínima	17.2
40812	7	Sololá	717	San Juan la Laguna	12	San Juan la Laguna	3	Marzo	2023-07-03T00:00:00	2024-11-08T23:00:00	5	Humedad	86
40813	7	Sololá	717	San Juan la Laguna	12	San Juan la Laguna	3	Marzo	2023-07-03T00:00:00	2024-11-08T23:00:00	6	Velocidad del viento	0
40814	7	Sololá	717	San Juan la Laguna	12	San Juan la Laguna	3	Marzo	2023-07-03T00:00:00	2024-11-08T23:00:00	7	Dirección del viento	0
40815	7	Sololá	717	San Juan la Laguna	12	San Juan la Laguna	3	Marzo	2023-07-03T00:00:00	2024-11-08T23:00:00	1	Precipitación	0
40816	7	Sololá	717	San Juan la Laguna	12	San Juan la Laguna	3	Marzo	2023-07-03T00:00:00	2024-11-08T23:00:00	8	Radiación solar	0
40817	7	Sololá	717	San Juan la Laguna	12	San Juan la Laguna	3	Marzo	2023-08-03T00:00:00	2024-11-08T00:00:00	2	Temperatura media	16.4
40818	7	Sololá	717	San Juan la Laguna	12	San Juan la Laguna	3	Marzo	2023-08-03T00:00:00	2024-11-08T00:00:00	4	Temperatura máxima	17.2
40819	7	Sololá	717	San Juan la Laguna	12	San Juan la Laguna	3	Marzo	2023-08-03T00:00:00	2024-11-08T00:00:00	3	Temperatura mínima	16.4
40820	7	Sololá	717	San Juan la Laguna	12	San Juan la Laguna	3	Marzo	2023-08-03T00:00:00	2024-11-08T00:00:00	5	Humedad	83
40821	7	Sololá	717	San Juan la Laguna	12	San Juan la Laguna	3	Marzo	2023-08-03T00:00:00	2024-11-08T00:00:00	6	Velocidad del viento	1.6
40822	7	Sololá	717	San Juan la Laguna	12	San Juan la Laguna	3	Marzo	2023-08-03T00:00:00	2024-11-08T00:00:00	7	Dirección del viento	1.61
40823	7	Sololá	717	San Juan la Laguna	12	San Juan la Laguna	3	Marzo	2023-08-03T00:00:00	2024-11-08T00:00:00	1	Precipitación	0
40824	7	Sololá	717	San Juan la Laguna	12	San Juan la Laguna	3	Marzo	2023-08-03T00:00:00	2024-11-08T00:00:00	8	Radiación solar	0
40825	7	Sololá	717	San Juan la Laguna	12	San Juan la Laguna	3	Marzo	2023-08-03T00:00:00	2024-11-08T01:00:00	2	Temperatura media	16.7
40826	7	Sololá	717	San Juan la Laguna	12	San Juan la Laguna	3	Marzo	2023-08-03T00:00:00	2024-11-08T01:00:00	4	Temperatura máxima	16.7
40827	7	Sololá	717	San Juan la Laguna	12	San Juan la Laguna	3	Marzo	2023-08-03T00:00:00	2024-11-08T01:00:00	3	Temperatura mínima	16.2
40828	7	Sololá	717	San Juan la Laguna	12	San Juan la Laguna	3	Marzo	2023-08-03T00:00:00	2024-11-08T01:00:00	5	Humedad	81
40829	7	Sololá	717	San Juan la Laguna	12	San Juan la Laguna	3	Marzo	2023-08-03T00:00:00	2024-11-08T01:00:00	6	Velocidad del viento	3.2
40830	7	Sololá	717	San Juan la Laguna	12	San Juan la Laguna	3	Marzo	2023-08-03T00:00:00	2024-11-08T01:00:00	7	Dirección del viento	3.22
40831	7	Sololá	717	San Juan la Laguna	12	San Juan la Laguna	3	Marzo	2023-08-03T00:00:00	2024-11-08T01:00:00	1	Precipitación	0
40832	7	Sololá	717	San Juan la Laguna	12	San Juan la Laguna	3	Marzo	2023-08-03T00:00:00	2024-11-08T01:00:00	8	Radiación solar	0
40833	7	Sololá	717	San Juan la Laguna	12	San Juan la Laguna	3	Marzo	2023-08-03T00:00:00	2024-11-08T02:00:00	2	Temperatura media	16.8
40834	7	Sololá	717	San Juan la Laguna	12	San Juan la Laguna	3	Marzo	2023-08-03T00:00:00	2024-11-08T02:00:00	4	Temperatura máxima	17
40835	7	Sololá	717	San Juan la Laguna	12	San Juan la Laguna	3	Marzo	2023-08-03T00:00:00	2024-11-08T02:00:00	3	Temperatura mínima	16.4
40836	7	Sololá	717	San Juan la Laguna	12	San Juan la Laguna	3	Marzo	2023-08-03T00:00:00	2024-11-08T02:00:00	5	Humedad	83
40837	7	Sololá	717	San Juan la Laguna	12	San Juan la Laguna	3	Marzo	2023-08-03T00:00:00	2024-11-08T02:00:00	6	Velocidad del viento	1.6
40838	7	Sololá	717	San Juan la Laguna	12	San Juan la Laguna	3	Marzo	2023-08-03T00:00:00	2024-11-08T02:00:00	7	Dirección del viento	1.61
40839	7	Sololá	717	San Juan la Laguna	12	San Juan la Laguna	3	Marzo	2023-08-03T00:00:00	2024-11-08T02:00:00	1	Precipitación	0
40840	7	Sololá	717	San Juan la Laguna	12	San Juan la Laguna	3	Marzo	2023-08-03T00:00:00	2024-11-08T02:00:00	8	Radiación solar	0
40841	7	Sololá	717	San Juan la Laguna	12	San Juan la Laguna	3	Marzo	2023-08-03T00:00:00	2024-11-08T03:00:00	2	Temperatura media	16.4
40842	7	Sololá	717	San Juan la Laguna	12	San Juan la Laguna	3	Marzo	2023-08-03T00:00:00	2024-11-08T03:00:00	4	Temperatura máxima	17.4
40843	7	Sololá	717	San Juan la Laguna	12	San Juan la Laguna	3	Marzo	2023-08-03T00:00:00	2024-11-08T03:00:00	3	Temperatura mínima	16.4
40844	7	Sololá	717	San Juan la Laguna	12	San Juan la Laguna	3	Marzo	2023-08-03T00:00:00	2024-11-08T03:00:00	5	Humedad	82
40845	7	Sololá	717	San Juan la Laguna	12	San Juan la Laguna	3	Marzo	2023-08-03T00:00:00	2024-11-08T03:00:00	6	Velocidad del viento	3.2
40846	7	Sololá	717	San Juan la Laguna	12	San Juan la Laguna	3	Marzo	2023-08-03T00:00:00	2024-11-08T03:00:00	7	Dirección del viento	3.22
40847	7	Sololá	717	San Juan la Laguna	12	San Juan la Laguna	3	Marzo	2023-08-03T00:00:00	2024-11-08T03:00:00	1	Precipitación	0
40848	7	Sololá	717	San Juan la Laguna	12	San Juan la Laguna	3	Marzo	2023-08-03T00:00:00	2024-11-08T03:00:00	8	Radiación solar	0
40849	7	Sololá	717	San Juan la Laguna	12	San Juan la Laguna	3	Marzo	2023-08-03T00:00:00	2024-11-08T04:00:00	2	Temperatura media	15.2
40850	7	Sololá	717	San Juan la Laguna	12	San Juan la Laguna	3	Marzo	2023-08-03T00:00:00	2024-11-08T04:00:00	4	Temperatura máxima	16.3
40851	7	Sololá	717	San Juan la Laguna	12	San Juan la Laguna	3	Marzo	2023-08-03T00:00:00	2024-11-08T04:00:00	3	Temperatura mínima	15.2
40852	7	Sololá	717	San Juan la Laguna	12	San Juan la Laguna	3	Marzo	2023-08-03T00:00:00	2024-11-08T04:00:00	5	Humedad	85
40853	7	Sololá	717	San Juan la Laguna	12	San Juan la Laguna	3	Marzo	2023-08-03T00:00:00	2024-11-08T04:00:00	6	Velocidad del viento	0
40854	7	Sololá	717	San Juan la Laguna	12	San Juan la Laguna	3	Marzo	2023-08-03T00:00:00	2024-11-08T04:00:00	7	Dirección del viento	0
40855	7	Sololá	717	San Juan la Laguna	12	San Juan la Laguna	3	Marzo	2023-08-03T00:00:00	2024-11-08T04:00:00	1	Precipitación	0
40856	7	Sololá	717	San Juan la Laguna	12	San Juan la Laguna	3	Marzo	2023-08-03T00:00:00	2024-11-08T04:00:00	8	Radiación solar	0
40857	7	Sololá	717	San Juan la Laguna	12	San Juan la Laguna	3	Marzo	2023-08-03T00:00:00	2024-11-08T05:00:00	2	Temperatura media	15.4
40858	7	Sololá	717	San Juan la Laguna	12	San Juan la Laguna	3	Marzo	2023-08-03T00:00:00	2024-11-08T05:00:00	4	Temperatura máxima	15.4
40859	7	Sololá	717	San Juan la Laguna	12	San Juan la Laguna	3	Marzo	2023-08-03T00:00:00	2024-11-08T05:00:00	3	Temperatura mínima	14.9
40860	7	Sololá	717	San Juan la Laguna	12	San Juan la Laguna	3	Marzo	2023-08-03T00:00:00	2024-11-08T05:00:00	5	Humedad	84
40861	7	Sololá	717	San Juan la Laguna	12	San Juan la Laguna	3	Marzo	2023-08-03T00:00:00	2024-11-08T05:00:00	6	Velocidad del viento	1.6
40862	7	Sololá	717	San Juan la Laguna	12	San Juan la Laguna	3	Marzo	2023-08-03T00:00:00	2024-11-08T05:00:00	7	Dirección del viento	1.61
40863	7	Sololá	717	San Juan la Laguna	12	San Juan la Laguna	3	Marzo	2023-08-03T00:00:00	2024-11-08T05:00:00	1	Precipitación	0
40864	7	Sololá	717	San Juan la Laguna	12	San Juan la Laguna	3	Marzo	2023-08-03T00:00:00	2024-11-08T05:00:00	8	Radiación solar	0
40865	7	Sololá	717	San Juan la Laguna	12	San Juan la Laguna	3	Marzo	2023-08-03T00:00:00	2024-11-08T06:00:00	2	Temperatura media	15.6
40866	7	Sololá	717	San Juan la Laguna	12	San Juan la Laguna	3	Marzo	2023-08-03T00:00:00	2024-11-08T06:00:00	4	Temperatura máxima	15.7
40867	7	Sololá	717	San Juan la Laguna	12	San Juan la Laguna	3	Marzo	2023-08-03T00:00:00	2024-11-08T06:00:00	3	Temperatura mínima	15.4
40868	7	Sololá	717	San Juan la Laguna	12	San Juan la Laguna	3	Marzo	2023-08-03T00:00:00	2024-11-08T06:00:00	5	Humedad	84
40869	7	Sololá	717	San Juan la Laguna	12	San Juan la Laguna	3	Marzo	2023-08-03T00:00:00	2024-11-08T06:00:00	6	Velocidad del viento	1.6
40870	7	Sololá	717	San Juan la Laguna	12	San Juan la Laguna	3	Marzo	2023-08-03T00:00:00	2024-11-08T06:00:00	7	Dirección del viento	1.61
40871	7	Sololá	717	San Juan la Laguna	12	San Juan la Laguna	3	Marzo	2023-08-03T00:00:00	2024-11-08T06:00:00	1	Precipitación	0
40872	7	Sololá	717	San Juan la Laguna	12	San Juan la Laguna	3	Marzo	2023-08-03T00:00:00	2024-11-08T06:00:00	8	Radiación solar	0
40873	7	Sololá	717	San Juan la Laguna	12	San Juan la Laguna	3	Marzo	2023-08-03T00:00:00	2024-11-08T07:00:00	2	Temperatura media	15.6
40874	7	Sololá	717	San Juan la Laguna	12	San Juan la Laguna	3	Marzo	2023-08-03T00:00:00	2024-11-08T07:00:00	4	Temperatura máxima	15.6
40875	7	Sololá	717	San Juan la Laguna	12	San Juan la Laguna	3	Marzo	2023-08-03T00:00:00	2024-11-08T07:00:00	3	Temperatura mínima	15.2
40876	7	Sololá	717	San Juan la Laguna	12	San Juan la Laguna	3	Marzo	2023-08-03T00:00:00	2024-11-08T07:00:00	5	Humedad	85
40877	7	Sololá	717	San Juan la Laguna	12	San Juan la Laguna	3	Marzo	2023-08-03T00:00:00	2024-11-08T07:00:00	6	Velocidad del viento	1.6
40878	7	Sololá	717	San Juan la Laguna	12	San Juan la Laguna	3	Marzo	2023-08-03T00:00:00	2024-11-08T07:00:00	7	Dirección del viento	1.61
40879	7	Sololá	717	San Juan la Laguna	12	San Juan la Laguna	3	Marzo	2023-08-03T00:00:00	2024-11-08T07:00:00	1	Precipitación	0
40880	7	Sololá	717	San Juan la Laguna	12	San Juan la Laguna	3	Marzo	2023-08-03T00:00:00	2024-11-08T07:00:00	8	Radiación solar	7
40881	7	Sololá	717	San Juan la Laguna	12	San Juan la Laguna	3	Marzo	2023-08-03T00:00:00	2024-11-08T08:00:00	2	Temperatura media	17.6
40882	7	Sololá	717	San Juan la Laguna	12	San Juan la Laguna	3	Marzo	2023-08-03T00:00:00	2024-11-08T08:00:00	4	Temperatura máxima	17.6
40883	7	Sololá	717	San Juan la Laguna	12	San Juan la Laguna	3	Marzo	2023-08-03T00:00:00	2024-11-08T08:00:00	3	Temperatura mínima	15.6
40884	7	Sololá	717	San Juan la Laguna	12	San Juan la Laguna	3	Marzo	2023-08-03T00:00:00	2024-11-08T08:00:00	5	Humedad	82
40885	7	Sololá	717	San Juan la Laguna	12	San Juan la Laguna	3	Marzo	2023-08-03T00:00:00	2024-11-08T08:00:00	6	Velocidad del viento	0
40886	7	Sololá	717	San Juan la Laguna	12	San Juan la Laguna	3	Marzo	2023-08-03T00:00:00	2024-11-08T08:00:00	7	Dirección del viento	0
40887	7	Sololá	717	San Juan la Laguna	12	San Juan la Laguna	3	Marzo	2023-08-03T00:00:00	2024-11-08T08:00:00	1	Precipitación	0
40888	7	Sololá	717	San Juan la Laguna	12	San Juan la Laguna	3	Marzo	2023-08-03T00:00:00	2024-11-08T08:00:00	8	Radiación solar	118
40889	7	Sololá	717	San Juan la Laguna	12	San Juan la Laguna	3	Marzo	2023-08-03T00:00:00	2024-11-08T09:00:00	2	Temperatura media	19.5
40890	7	Sololá	717	San Juan la Laguna	12	San Juan la Laguna	3	Marzo	2023-08-03T00:00:00	2024-11-08T09:00:00	4	Temperatura máxima	19.6
40891	7	Sololá	717	San Juan la Laguna	12	San Juan la Laguna	3	Marzo	2023-08-03T00:00:00	2024-11-08T09:00:00	3	Temperatura mínima	17.6
40892	7	Sololá	717	San Juan la Laguna	12	San Juan la Laguna	3	Marzo	2023-08-03T00:00:00	2024-11-08T09:00:00	5	Humedad	76
40893	7	Sololá	717	San Juan la Laguna	12	San Juan la Laguna	3	Marzo	2023-08-03T00:00:00	2024-11-08T09:00:00	6	Velocidad del viento	1.6
40894	7	Sololá	717	San Juan la Laguna	12	San Juan la Laguna	3	Marzo	2023-08-03T00:00:00	2024-11-08T09:00:00	7	Dirección del viento	1.61
40895	7	Sololá	717	San Juan la Laguna	12	San Juan la Laguna	3	Marzo	2023-08-03T00:00:00	2024-11-08T09:00:00	1	Precipitación	0
40896	7	Sololá	717	San Juan la Laguna	12	San Juan la Laguna	3	Marzo	2023-08-03T00:00:00	2024-11-08T09:00:00	8	Radiación solar	329
40897	7	Sololá	717	San Juan la Laguna	12	San Juan la Laguna	3	Marzo	2023-08-03T00:00:00	2024-11-08T10:00:00	2	Temperatura media	20.8
40898	7	Sololá	717	San Juan la Laguna	12	San Juan la Laguna	3	Marzo	2023-08-03T00:00:00	2024-11-08T10:00:00	4	Temperatura máxima	20.8
40899	7	Sololá	717	San Juan la Laguna	12	San Juan la Laguna	3	Marzo	2023-08-03T00:00:00	2024-11-08T10:00:00	3	Temperatura mínima	19.4
40900	7	Sololá	717	San Juan la Laguna	12	San Juan la Laguna	3	Marzo	2023-08-03T00:00:00	2024-11-08T10:00:00	5	Humedad	70
40901	7	Sololá	717	San Juan la Laguna	12	San Juan la Laguna	3	Marzo	2023-08-03T00:00:00	2024-11-08T10:00:00	6	Velocidad del viento	3.2
40902	7	Sololá	717	San Juan la Laguna	12	San Juan la Laguna	3	Marzo	2023-08-03T00:00:00	2024-11-08T10:00:00	7	Dirección del viento	3.22
40903	7	Sololá	717	San Juan la Laguna	12	San Juan la Laguna	3	Marzo	2023-08-03T00:00:00	2024-11-08T10:00:00	1	Precipitación	0
40904	7	Sololá	717	San Juan la Laguna	12	San Juan la Laguna	3	Marzo	2023-08-03T00:00:00	2024-11-08T10:00:00	8	Radiación solar	628
40905	7	Sololá	717	San Juan la Laguna	12	San Juan la Laguna	3	Marzo	2023-08-03T00:00:00	2024-11-08T11:00:00	2	Temperatura media	21.4
40906	7	Sololá	717	San Juan la Laguna	12	San Juan la Laguna	3	Marzo	2023-08-03T00:00:00	2024-11-08T11:00:00	4	Temperatura máxima	21.4
40907	7	Sololá	717	San Juan la Laguna	12	San Juan la Laguna	3	Marzo	2023-08-03T00:00:00	2024-11-08T11:00:00	3	Temperatura mínima	20.3
40908	7	Sololá	717	San Juan la Laguna	12	San Juan la Laguna	3	Marzo	2023-08-03T00:00:00	2024-11-08T11:00:00	5	Humedad	67
40909	7	Sololá	717	San Juan la Laguna	12	San Juan la Laguna	3	Marzo	2023-08-03T00:00:00	2024-11-08T11:00:00	6	Velocidad del viento	3.2
40910	7	Sololá	717	San Juan la Laguna	12	San Juan la Laguna	3	Marzo	2023-08-03T00:00:00	2024-11-08T11:00:00	7	Dirección del viento	3.22
40911	7	Sololá	717	San Juan la Laguna	12	San Juan la Laguna	3	Marzo	2023-08-03T00:00:00	2024-11-08T11:00:00	1	Precipitación	0
40912	7	Sololá	717	San Juan la Laguna	12	San Juan la Laguna	3	Marzo	2023-08-03T00:00:00	2024-11-08T11:00:00	8	Radiación solar	739
40913	7	Sololá	717	San Juan la Laguna	12	San Juan la Laguna	3	Marzo	2023-08-03T00:00:00	2024-11-08T12:00:00	2	Temperatura media	19.9
40914	7	Sololá	717	San Juan la Laguna	12	San Juan la Laguna	3	Marzo	2023-08-03T00:00:00	2024-11-08T12:00:00	4	Temperatura máxima	21.4
40915	7	Sololá	717	San Juan la Laguna	12	San Juan la Laguna	3	Marzo	2023-08-03T00:00:00	2024-11-08T12:00:00	3	Temperatura mínima	19.9
40916	7	Sololá	717	San Juan la Laguna	12	San Juan la Laguna	3	Marzo	2023-08-03T00:00:00	2024-11-08T12:00:00	5	Humedad	72
40917	7	Sololá	717	San Juan la Laguna	12	San Juan la Laguna	3	Marzo	2023-08-03T00:00:00	2024-11-08T12:00:00	6	Velocidad del viento	4.8
40918	7	Sololá	717	San Juan la Laguna	12	San Juan la Laguna	3	Marzo	2023-08-03T00:00:00	2024-11-08T12:00:00	7	Dirección del viento	4.83
40919	7	Sololá	717	San Juan la Laguna	12	San Juan la Laguna	3	Marzo	2023-08-03T00:00:00	2024-11-08T12:00:00	1	Precipitación	0
40920	7	Sololá	717	San Juan la Laguna	12	San Juan la Laguna	3	Marzo	2023-08-03T00:00:00	2024-11-08T12:00:00	8	Radiación solar	358
40921	7	Sololá	717	San Juan la Laguna	12	San Juan la Laguna	3	Marzo	2023-08-03T00:00:00	2024-11-08T13:00:00	2	Temperatura media	21.3
40922	7	Sololá	717	San Juan la Laguna	12	San Juan la Laguna	3	Marzo	2023-08-03T00:00:00	2024-11-08T13:00:00	4	Temperatura máxima	21.6
40923	7	Sololá	717	San Juan la Laguna	12	San Juan la Laguna	3	Marzo	2023-08-03T00:00:00	2024-11-08T13:00:00	3	Temperatura mínima	19.3
40924	7	Sololá	717	San Juan la Laguna	12	San Juan la Laguna	3	Marzo	2023-08-03T00:00:00	2024-11-08T13:00:00	5	Humedad	68
40925	7	Sololá	717	San Juan la Laguna	12	San Juan la Laguna	3	Marzo	2023-08-03T00:00:00	2024-11-08T13:00:00	6	Velocidad del viento	8
40926	7	Sololá	717	San Juan la Laguna	12	San Juan la Laguna	3	Marzo	2023-08-03T00:00:00	2024-11-08T13:00:00	7	Dirección del viento	8.05
40927	7	Sololá	717	San Juan la Laguna	12	San Juan la Laguna	3	Marzo	2023-08-03T00:00:00	2024-11-08T13:00:00	1	Precipitación	0
40928	7	Sololá	717	San Juan la Laguna	12	San Juan la Laguna	3	Marzo	2023-08-03T00:00:00	2024-11-08T13:00:00	8	Radiación solar	577
40929	7	Sololá	717	San Juan la Laguna	12	San Juan la Laguna	3	Marzo	2023-08-03T00:00:00	2024-11-08T14:00:00	2	Temperatura media	21.4
40930	7	Sololá	717	San Juan la Laguna	12	San Juan la Laguna	3	Marzo	2023-08-03T00:00:00	2024-11-08T14:00:00	4	Temperatura máxima	21.6
40931	7	Sololá	717	San Juan la Laguna	12	San Juan la Laguna	3	Marzo	2023-08-03T00:00:00	2024-11-08T14:00:00	3	Temperatura mínima	20.7
40932	7	Sololá	717	San Juan la Laguna	12	San Juan la Laguna	3	Marzo	2023-08-03T00:00:00	2024-11-08T14:00:00	5	Humedad	68
40933	7	Sololá	717	San Juan la Laguna	12	San Juan la Laguna	3	Marzo	2023-08-03T00:00:00	2024-11-08T14:00:00	6	Velocidad del viento	9.7
40934	7	Sololá	717	San Juan la Laguna	12	San Juan la Laguna	3	Marzo	2023-08-03T00:00:00	2024-11-08T14:00:00	7	Dirección del viento	9.66
40935	7	Sololá	717	San Juan la Laguna	12	San Juan la Laguna	3	Marzo	2023-08-03T00:00:00	2024-11-08T14:00:00	1	Precipitación	0
40936	7	Sololá	717	San Juan la Laguna	12	San Juan la Laguna	3	Marzo	2023-08-03T00:00:00	2024-11-08T14:00:00	8	Radiación solar	719
40937	7	Sololá	717	San Juan la Laguna	12	San Juan la Laguna	3	Marzo	2023-08-03T00:00:00	2024-11-08T15:00:00	2	Temperatura media	19.5
40938	7	Sololá	717	San Juan la Laguna	12	San Juan la Laguna	3	Marzo	2023-08-03T00:00:00	2024-11-08T15:00:00	4	Temperatura máxima	21.5
40939	7	Sololá	717	San Juan la Laguna	12	San Juan la Laguna	3	Marzo	2023-08-03T00:00:00	2024-11-08T15:00:00	3	Temperatura mínima	19.5
40940	7	Sololá	717	San Juan la Laguna	12	San Juan la Laguna	3	Marzo	2023-08-03T00:00:00	2024-11-08T15:00:00	5	Humedad	76
40941	7	Sololá	717	San Juan la Laguna	12	San Juan la Laguna	3	Marzo	2023-08-03T00:00:00	2024-11-08T15:00:00	6	Velocidad del viento	8
40942	7	Sololá	717	San Juan la Laguna	12	San Juan la Laguna	3	Marzo	2023-08-03T00:00:00	2024-11-08T15:00:00	7	Dirección del viento	8.05
40943	7	Sololá	717	San Juan la Laguna	12	San Juan la Laguna	3	Marzo	2023-08-03T00:00:00	2024-11-08T15:00:00	1	Precipitación	0
40944	7	Sololá	717	San Juan la Laguna	12	San Juan la Laguna	3	Marzo	2023-08-03T00:00:00	2024-11-08T15:00:00	8	Radiación solar	494
40945	7	Sololá	717	San Juan la Laguna	12	San Juan la Laguna	3	Marzo	2023-08-03T00:00:00	2024-11-08T16:00:00	2	Temperatura media	20.7
40946	7	Sololá	717	San Juan la Laguna	12	San Juan la Laguna	3	Marzo	2023-08-03T00:00:00	2024-11-08T16:00:00	4	Temperatura máxima	20.8
40947	7	Sololá	717	San Juan la Laguna	12	San Juan la Laguna	3	Marzo	2023-08-03T00:00:00	2024-11-08T16:00:00	3	Temperatura mínima	19.4
40948	7	Sololá	717	San Juan la Laguna	12	San Juan la Laguna	3	Marzo	2023-08-03T00:00:00	2024-11-08T16:00:00	5	Humedad	71
40949	7	Sololá	717	San Juan la Laguna	12	San Juan la Laguna	3	Marzo	2023-08-03T00:00:00	2024-11-08T16:00:00	6	Velocidad del viento	6.4
40950	7	Sololá	717	San Juan la Laguna	12	San Juan la Laguna	3	Marzo	2023-08-03T00:00:00	2024-11-08T16:00:00	7	Dirección del viento	6.44
40951	7	Sololá	717	San Juan la Laguna	12	San Juan la Laguna	3	Marzo	2023-08-03T00:00:00	2024-11-08T16:00:00	1	Precipitación	0
40952	7	Sololá	717	San Juan la Laguna	12	San Juan la Laguna	3	Marzo	2023-08-03T00:00:00	2024-11-08T16:00:00	8	Radiación solar	383
40953	7	Sololá	717	San Juan la Laguna	12	San Juan la Laguna	3	Marzo	2023-08-03T00:00:00	2024-11-08T17:00:00	2	Temperatura media	19.8
40954	7	Sololá	717	San Juan la Laguna	12	San Juan la Laguna	3	Marzo	2023-08-03T00:00:00	2024-11-08T17:00:00	4	Temperatura máxima	21
40955	7	Sololá	717	San Juan la Laguna	12	San Juan la Laguna	3	Marzo	2023-08-03T00:00:00	2024-11-08T17:00:00	3	Temperatura mínima	19.7
40956	7	Sololá	717	San Juan la Laguna	12	San Juan la Laguna	3	Marzo	2023-08-03T00:00:00	2024-11-08T17:00:00	5	Humedad	76
40957	7	Sololá	717	San Juan la Laguna	12	San Juan la Laguna	3	Marzo	2023-08-03T00:00:00	2024-11-08T17:00:00	6	Velocidad del viento	1.6
40958	7	Sololá	717	San Juan la Laguna	12	San Juan la Laguna	3	Marzo	2023-08-03T00:00:00	2024-11-08T17:00:00	7	Dirección del viento	1.61
40959	7	Sololá	717	San Juan la Laguna	12	San Juan la Laguna	3	Marzo	2023-08-03T00:00:00	2024-11-08T17:00:00	1	Precipitación	0
40960	7	Sololá	717	San Juan la Laguna	12	San Juan la Laguna	3	Marzo	2023-08-03T00:00:00	2024-11-08T17:00:00	8	Radiación solar	123
40961	7	Sololá	717	San Juan la Laguna	12	San Juan la Laguna	3	Marzo	2023-08-03T00:00:00	2024-11-08T18:00:00	2	Temperatura media	19.1
40962	7	Sololá	717	San Juan la Laguna	12	San Juan la Laguna	3	Marzo	2023-08-03T00:00:00	2024-11-08T18:00:00	4	Temperatura máxima	19.8
40963	7	Sololá	717	San Juan la Laguna	12	San Juan la Laguna	3	Marzo	2023-08-03T00:00:00	2024-11-08T18:00:00	3	Temperatura mínima	19.1
40964	7	Sololá	717	San Juan la Laguna	12	San Juan la Laguna	3	Marzo	2023-08-03T00:00:00	2024-11-08T18:00:00	5	Humedad	79
40965	7	Sololá	717	San Juan la Laguna	12	San Juan la Laguna	3	Marzo	2023-08-03T00:00:00	2024-11-08T18:00:00	6	Velocidad del viento	1.6
40966	7	Sololá	717	San Juan la Laguna	12	San Juan la Laguna	3	Marzo	2023-08-03T00:00:00	2024-11-08T18:00:00	7	Dirección del viento	1.61
40967	7	Sololá	717	San Juan la Laguna	12	San Juan la Laguna	3	Marzo	2023-08-03T00:00:00	2024-11-08T18:00:00	1	Precipitación	0
40968	7	Sololá	717	San Juan la Laguna	12	San Juan la Laguna	3	Marzo	2023-08-03T00:00:00	2024-11-08T18:00:00	8	Radiación solar	43
40969	7	Sololá	717	San Juan la Laguna	12	San Juan la Laguna	3	Marzo	2023-08-03T00:00:00	2024-11-08T19:00:00	2	Temperatura media	18.6
40970	7	Sololá	717	San Juan la Laguna	12	San Juan la Laguna	3	Marzo	2023-08-03T00:00:00	2024-11-08T19:00:00	4	Temperatura máxima	19.1
40971	7	Sololá	717	San Juan la Laguna	12	San Juan la Laguna	3	Marzo	2023-08-03T00:00:00	2024-11-08T19:00:00	3	Temperatura mínima	18.6
40972	7	Sololá	717	San Juan la Laguna	12	San Juan la Laguna	3	Marzo	2023-08-03T00:00:00	2024-11-08T19:00:00	5	Humedad	82
40973	7	Sololá	717	San Juan la Laguna	12	San Juan la Laguna	3	Marzo	2023-08-03T00:00:00	2024-11-08T19:00:00	6	Velocidad del viento	1.6
40974	7	Sololá	717	San Juan la Laguna	12	San Juan la Laguna	3	Marzo	2023-08-03T00:00:00	2024-11-08T19:00:00	7	Dirección del viento	1.61
40975	7	Sololá	717	San Juan la Laguna	12	San Juan la Laguna	3	Marzo	2023-08-03T00:00:00	2024-11-08T19:00:00	1	Precipitación	0
40976	7	Sololá	717	San Juan la Laguna	12	San Juan la Laguna	3	Marzo	2023-08-03T00:00:00	2024-11-08T19:00:00	8	Radiación solar	0
40977	7	Sololá	717	San Juan la Laguna	12	San Juan la Laguna	3	Marzo	2023-08-03T00:00:00	2024-11-08T20:00:00	2	Temperatura media	18.1
40978	7	Sololá	717	San Juan la Laguna	12	San Juan la Laguna	3	Marzo	2023-08-03T00:00:00	2024-11-08T20:00:00	4	Temperatura máxima	18.6
40979	7	Sololá	717	San Juan la Laguna	12	San Juan la Laguna	3	Marzo	2023-08-03T00:00:00	2024-11-08T20:00:00	3	Temperatura mínima	18.1
40980	7	Sololá	717	San Juan la Laguna	12	San Juan la Laguna	3	Marzo	2023-08-03T00:00:00	2024-11-08T20:00:00	5	Humedad	85
40981	7	Sololá	717	San Juan la Laguna	12	San Juan la Laguna	3	Marzo	2023-08-03T00:00:00	2024-11-08T20:00:00	6	Velocidad del viento	0
40982	7	Sololá	717	San Juan la Laguna	12	San Juan la Laguna	3	Marzo	2023-08-03T00:00:00	2024-11-08T20:00:00	7	Dirección del viento	0
40983	7	Sololá	717	San Juan la Laguna	12	San Juan la Laguna	3	Marzo	2023-08-03T00:00:00	2024-11-08T20:00:00	1	Precipitación	0
40984	7	Sololá	717	San Juan la Laguna	12	San Juan la Laguna	3	Marzo	2023-08-03T00:00:00	2024-11-08T20:00:00	8	Radiación solar	0
40985	7	Sololá	717	San Juan la Laguna	12	San Juan la Laguna	3	Marzo	2023-08-03T00:00:00	2024-11-08T21:00:00	2	Temperatura media	17.5
40986	7	Sololá	717	San Juan la Laguna	12	San Juan la Laguna	3	Marzo	2023-08-03T00:00:00	2024-11-08T21:00:00	4	Temperatura máxima	18.1
40987	7	Sololá	717	San Juan la Laguna	12	San Juan la Laguna	3	Marzo	2023-08-03T00:00:00	2024-11-08T21:00:00	3	Temperatura mínima	17.5
40988	7	Sololá	717	San Juan la Laguna	12	San Juan la Laguna	3	Marzo	2023-08-03T00:00:00	2024-11-08T21:00:00	5	Humedad	85
40989	7	Sololá	717	San Juan la Laguna	12	San Juan la Laguna	3	Marzo	2023-08-03T00:00:00	2024-11-08T21:00:00	6	Velocidad del viento	0
40990	7	Sololá	717	San Juan la Laguna	12	San Juan la Laguna	3	Marzo	2023-08-03T00:00:00	2024-11-08T21:00:00	7	Dirección del viento	0
40991	7	Sololá	717	San Juan la Laguna	12	San Juan la Laguna	3	Marzo	2023-08-03T00:00:00	2024-11-08T21:00:00	1	Precipitación	0
40992	7	Sololá	717	San Juan la Laguna	12	San Juan la Laguna	3	Marzo	2023-08-03T00:00:00	2024-11-08T21:00:00	8	Radiación solar	0
40993	7	Sololá	717	San Juan la Laguna	12	San Juan la Laguna	3	Marzo	2023-08-03T00:00:00	2024-11-08T22:00:00	2	Temperatura media	17
40994	7	Sololá	717	San Juan la Laguna	12	San Juan la Laguna	3	Marzo	2023-08-03T00:00:00	2024-11-08T22:00:00	4	Temperatura máxima	17.6
40995	7	Sololá	717	San Juan la Laguna	12	San Juan la Laguna	3	Marzo	2023-08-03T00:00:00	2024-11-08T22:00:00	3	Temperatura mínima	16.9
40996	7	Sololá	717	San Juan la Laguna	12	San Juan la Laguna	3	Marzo	2023-08-03T00:00:00	2024-11-08T22:00:00	5	Humedad	86
40997	7	Sololá	717	San Juan la Laguna	12	San Juan la Laguna	3	Marzo	2023-08-03T00:00:00	2024-11-08T22:00:00	6	Velocidad del viento	0
40998	7	Sololá	717	San Juan la Laguna	12	San Juan la Laguna	3	Marzo	2023-08-03T00:00:00	2024-11-08T22:00:00	7	Dirección del viento	0
40999	7	Sololá	717	San Juan la Laguna	12	San Juan la Laguna	3	Marzo	2023-08-03T00:00:00	2024-11-08T22:00:00	1	Precipitación	0
41000	7	Sololá	717	San Juan la Laguna	12	San Juan la Laguna	3	Marzo	2023-08-03T00:00:00	2024-11-08T22:00:00	8	Radiación solar	0
41001	7	Sololá	717	San Juan la Laguna	12	San Juan la Laguna	3	Marzo	2023-08-03T00:00:00	2024-11-08T23:00:00	2	Temperatura media	16.8
41002	7	Sololá	717	San Juan la Laguna	12	San Juan la Laguna	3	Marzo	2023-08-03T00:00:00	2024-11-08T23:00:00	4	Temperatura máxima	17.4
41003	7	Sololá	717	San Juan la Laguna	12	San Juan la Laguna	3	Marzo	2023-08-03T00:00:00	2024-11-08T23:00:00	3	Temperatura mínima	16.8
41004	7	Sololá	717	San Juan la Laguna	12	San Juan la Laguna	3	Marzo	2023-08-03T00:00:00	2024-11-08T23:00:00	5	Humedad	88
41005	7	Sololá	717	San Juan la Laguna	12	San Juan la Laguna	3	Marzo	2023-08-03T00:00:00	2024-11-08T23:00:00	6	Velocidad del viento	0
41006	7	Sololá	717	San Juan la Laguna	12	San Juan la Laguna	3	Marzo	2023-08-03T00:00:00	2024-11-08T23:00:00	7	Dirección del viento	0
41007	7	Sololá	717	San Juan la Laguna	12	San Juan la Laguna	3	Marzo	2023-08-03T00:00:00	2024-11-08T23:00:00	1	Precipitación	0
41008	7	Sololá	717	San Juan la Laguna	12	San Juan la Laguna	3	Marzo	2023-08-03T00:00:00	2024-11-08T23:00:00	8	Radiación solar	0
41009	7	Sololá	717	San Juan la Laguna	12	San Juan la Laguna	3	Marzo	2023-09-03T00:00:00	2024-11-08T00:00:00	2	Temperatura media	16.1
41010	7	Sololá	717	San Juan la Laguna	12	San Juan la Laguna	3	Marzo	2023-09-03T00:00:00	2024-11-08T00:00:00	4	Temperatura máxima	16.9
41011	7	Sololá	717	San Juan la Laguna	12	San Juan la Laguna	3	Marzo	2023-09-03T00:00:00	2024-11-08T00:00:00	3	Temperatura mínima	16
41012	7	Sololá	717	San Juan la Laguna	12	San Juan la Laguna	3	Marzo	2023-09-03T00:00:00	2024-11-08T00:00:00	5	Humedad	87
41013	7	Sololá	717	San Juan la Laguna	12	San Juan la Laguna	3	Marzo	2023-09-03T00:00:00	2024-11-08T00:00:00	6	Velocidad del viento	0
41014	7	Sololá	717	San Juan la Laguna	12	San Juan la Laguna	3	Marzo	2023-09-03T00:00:00	2024-11-08T00:00:00	7	Dirección del viento	0
41015	7	Sololá	717	San Juan la Laguna	12	San Juan la Laguna	3	Marzo	2023-09-03T00:00:00	2024-11-08T00:00:00	1	Precipitación	0
41016	7	Sololá	717	San Juan la Laguna	12	San Juan la Laguna	3	Marzo	2023-09-03T00:00:00	2024-11-08T00:00:00	8	Radiación solar	0
41017	7	Sololá	717	San Juan la Laguna	12	San Juan la Laguna	3	Marzo	2023-09-03T00:00:00	2024-11-08T01:00:00	2	Temperatura media	15.1
41018	7	Sololá	717	San Juan la Laguna	12	San Juan la Laguna	3	Marzo	2023-09-03T00:00:00	2024-11-08T01:00:00	4	Temperatura máxima	16.2
41019	7	Sololá	717	San Juan la Laguna	12	San Juan la Laguna	3	Marzo	2023-09-03T00:00:00	2024-11-08T01:00:00	3	Temperatura mínima	15.1
41020	7	Sololá	717	San Juan la Laguna	12	San Juan la Laguna	3	Marzo	2023-09-03T00:00:00	2024-11-08T01:00:00	5	Humedad	85
41021	7	Sololá	717	San Juan la Laguna	12	San Juan la Laguna	3	Marzo	2023-09-03T00:00:00	2024-11-08T01:00:00	6	Velocidad del viento	0
41022	7	Sololá	717	San Juan la Laguna	12	San Juan la Laguna	3	Marzo	2023-09-03T00:00:00	2024-11-08T01:00:00	7	Dirección del viento	0
41023	7	Sololá	717	San Juan la Laguna	12	San Juan la Laguna	3	Marzo	2023-09-03T00:00:00	2024-11-08T01:00:00	1	Precipitación	0
41024	7	Sololá	717	San Juan la Laguna	12	San Juan la Laguna	3	Marzo	2023-09-03T00:00:00	2024-11-08T01:00:00	8	Radiación solar	0
41025	7	Sololá	717	San Juan la Laguna	12	San Juan la Laguna	3	Marzo	2023-09-03T00:00:00	2024-11-08T02:00:00	2	Temperatura media	14.3
41026	7	Sololá	717	San Juan la Laguna	12	San Juan la Laguna	3	Marzo	2023-09-03T00:00:00	2024-11-08T02:00:00	4	Temperatura máxima	15.1
41027	7	Sololá	717	San Juan la Laguna	12	San Juan la Laguna	3	Marzo	2023-09-03T00:00:00	2024-11-08T02:00:00	3	Temperatura mínima	14.3
41028	7	Sololá	717	San Juan la Laguna	12	San Juan la Laguna	3	Marzo	2023-09-03T00:00:00	2024-11-08T02:00:00	5	Humedad	81
41029	7	Sololá	717	San Juan la Laguna	12	San Juan la Laguna	3	Marzo	2023-09-03T00:00:00	2024-11-08T02:00:00	6	Velocidad del viento	1.6
41030	7	Sololá	717	San Juan la Laguna	12	San Juan la Laguna	3	Marzo	2023-09-03T00:00:00	2024-11-08T02:00:00	7	Dirección del viento	1.61
41031	7	Sololá	717	San Juan la Laguna	12	San Juan la Laguna	3	Marzo	2023-09-03T00:00:00	2024-11-08T02:00:00	1	Precipitación	0
41032	7	Sololá	717	San Juan la Laguna	12	San Juan la Laguna	3	Marzo	2023-09-03T00:00:00	2024-11-08T02:00:00	8	Radiación solar	0
41033	7	Sololá	717	San Juan la Laguna	12	San Juan la Laguna	3	Marzo	2023-09-03T00:00:00	2024-11-08T03:00:00	2	Temperatura media	14.8
41034	7	Sololá	717	San Juan la Laguna	12	San Juan la Laguna	3	Marzo	2023-09-03T00:00:00	2024-11-08T03:00:00	4	Temperatura máxima	14.9
41035	7	Sololá	717	San Juan la Laguna	12	San Juan la Laguna	3	Marzo	2023-09-03T00:00:00	2024-11-08T03:00:00	3	Temperatura mínima	14.3
41036	7	Sololá	717	San Juan la Laguna	12	San Juan la Laguna	3	Marzo	2023-09-03T00:00:00	2024-11-08T03:00:00	5	Humedad	80
41037	7	Sololá	717	San Juan la Laguna	12	San Juan la Laguna	3	Marzo	2023-09-03T00:00:00	2024-11-08T03:00:00	6	Velocidad del viento	3.2
41038	7	Sololá	717	San Juan la Laguna	12	San Juan la Laguna	3	Marzo	2023-09-03T00:00:00	2024-11-08T03:00:00	7	Dirección del viento	3.22
41039	7	Sololá	717	San Juan la Laguna	12	San Juan la Laguna	3	Marzo	2023-09-03T00:00:00	2024-11-08T03:00:00	1	Precipitación	0
41040	7	Sololá	717	San Juan la Laguna	12	San Juan la Laguna	3	Marzo	2023-09-03T00:00:00	2024-11-08T03:00:00	8	Radiación solar	0
41041	7	Sololá	717	San Juan la Laguna	12	San Juan la Laguna	3	Marzo	2023-09-03T00:00:00	2024-11-08T04:00:00	2	Temperatura media	14.6
41042	7	Sololá	717	San Juan la Laguna	12	San Juan la Laguna	3	Marzo	2023-09-03T00:00:00	2024-11-08T04:00:00	4	Temperatura máxima	14.9
41043	7	Sololá	717	San Juan la Laguna	12	San Juan la Laguna	3	Marzo	2023-09-03T00:00:00	2024-11-08T04:00:00	3	Temperatura mínima	14.6
41044	7	Sololá	717	San Juan la Laguna	12	San Juan la Laguna	3	Marzo	2023-09-03T00:00:00	2024-11-08T04:00:00	5	Humedad	83
41045	7	Sololá	717	San Juan la Laguna	12	San Juan la Laguna	3	Marzo	2023-09-03T00:00:00	2024-11-08T04:00:00	6	Velocidad del viento	0
41046	7	Sololá	717	San Juan la Laguna	12	San Juan la Laguna	3	Marzo	2023-09-03T00:00:00	2024-11-08T04:00:00	7	Dirección del viento	0
41047	7	Sololá	717	San Juan la Laguna	12	San Juan la Laguna	3	Marzo	2023-09-03T00:00:00	2024-11-08T04:00:00	1	Precipitación	0
41048	7	Sololá	717	San Juan la Laguna	12	San Juan la Laguna	3	Marzo	2023-09-03T00:00:00	2024-11-08T04:00:00	8	Radiación solar	0
41049	7	Sololá	717	San Juan la Laguna	12	San Juan la Laguna	3	Marzo	2023-09-03T00:00:00	2024-11-08T05:00:00	2	Temperatura media	13.7
41050	7	Sololá	717	San Juan la Laguna	12	San Juan la Laguna	3	Marzo	2023-09-03T00:00:00	2024-11-08T05:00:00	4	Temperatura máxima	14.6
41051	7	Sololá	717	San Juan la Laguna	12	San Juan la Laguna	3	Marzo	2023-09-03T00:00:00	2024-11-08T05:00:00	3	Temperatura mínima	13.7
41052	7	Sololá	717	San Juan la Laguna	12	San Juan la Laguna	3	Marzo	2023-09-03T00:00:00	2024-11-08T05:00:00	5	Humedad	85
41053	7	Sololá	717	San Juan la Laguna	12	San Juan la Laguna	3	Marzo	2023-09-03T00:00:00	2024-11-08T05:00:00	6	Velocidad del viento	1.6
41054	7	Sololá	717	San Juan la Laguna	12	San Juan la Laguna	3	Marzo	2023-09-03T00:00:00	2024-11-08T05:00:00	7	Dirección del viento	1.61
41055	7	Sololá	717	San Juan la Laguna	12	San Juan la Laguna	3	Marzo	2023-09-03T00:00:00	2024-11-08T05:00:00	1	Precipitación	0
41056	7	Sololá	717	San Juan la Laguna	12	San Juan la Laguna	3	Marzo	2023-09-03T00:00:00	2024-11-08T05:00:00	8	Radiación solar	0
41057	7	Sololá	717	San Juan la Laguna	12	San Juan la Laguna	3	Marzo	2023-09-03T00:00:00	2024-11-08T06:00:00	2	Temperatura media	13.8
41058	7	Sololá	717	San Juan la Laguna	12	San Juan la Laguna	3	Marzo	2023-09-03T00:00:00	2024-11-08T06:00:00	4	Temperatura máxima	13.9
41059	7	Sololá	717	San Juan la Laguna	12	San Juan la Laguna	3	Marzo	2023-09-03T00:00:00	2024-11-08T06:00:00	3	Temperatura mínima	13.7
41060	7	Sololá	717	San Juan la Laguna	12	San Juan la Laguna	3	Marzo	2023-09-03T00:00:00	2024-11-08T06:00:00	5	Humedad	85
41061	7	Sololá	717	San Juan la Laguna	12	San Juan la Laguna	3	Marzo	2023-09-03T00:00:00	2024-11-08T06:00:00	6	Velocidad del viento	0
41062	7	Sololá	717	San Juan la Laguna	12	San Juan la Laguna	3	Marzo	2023-09-03T00:00:00	2024-11-08T06:00:00	7	Dirección del viento	0
41063	7	Sololá	717	San Juan la Laguna	12	San Juan la Laguna	3	Marzo	2023-09-03T00:00:00	2024-11-08T06:00:00	1	Precipitación	0
41064	7	Sololá	717	San Juan la Laguna	12	San Juan la Laguna	3	Marzo	2023-09-03T00:00:00	2024-11-08T06:00:00	8	Radiación solar	0
41065	7	Sololá	717	San Juan la Laguna	12	San Juan la Laguna	3	Marzo	2023-09-03T00:00:00	2024-11-08T07:00:00	2	Temperatura media	14.3
41066	7	Sololá	717	San Juan la Laguna	12	San Juan la Laguna	3	Marzo	2023-09-03T00:00:00	2024-11-08T07:00:00	4	Temperatura máxima	14.3
41067	7	Sololá	717	San Juan la Laguna	12	San Juan la Laguna	3	Marzo	2023-09-03T00:00:00	2024-11-08T07:00:00	3	Temperatura mínima	13.7
41068	7	Sololá	717	San Juan la Laguna	12	San Juan la Laguna	3	Marzo	2023-09-03T00:00:00	2024-11-08T07:00:00	5	Humedad	85
41069	7	Sololá	717	San Juan la Laguna	12	San Juan la Laguna	3	Marzo	2023-09-03T00:00:00	2024-11-08T07:00:00	6	Velocidad del viento	1.6
41070	7	Sololá	717	San Juan la Laguna	12	San Juan la Laguna	3	Marzo	2023-09-03T00:00:00	2024-11-08T07:00:00	7	Dirección del viento	1.61
41071	7	Sololá	717	San Juan la Laguna	12	San Juan la Laguna	3	Marzo	2023-09-03T00:00:00	2024-11-08T07:00:00	1	Precipitación	0
41072	7	Sololá	717	San Juan la Laguna	12	San Juan la Laguna	3	Marzo	2023-09-03T00:00:00	2024-11-08T07:00:00	8	Radiación solar	18
41073	7	Sololá	717	San Juan la Laguna	12	San Juan la Laguna	3	Marzo	2023-09-03T00:00:00	2024-11-08T08:00:00	2	Temperatura media	16.4
41074	7	Sololá	717	San Juan la Laguna	12	San Juan la Laguna	3	Marzo	2023-09-03T00:00:00	2024-11-08T08:00:00	4	Temperatura máxima	16.4
41075	7	Sololá	717	San Juan la Laguna	12	San Juan la Laguna	3	Marzo	2023-09-03T00:00:00	2024-11-08T08:00:00	3	Temperatura mínima	14.3
41076	7	Sololá	717	San Juan la Laguna	12	San Juan la Laguna	3	Marzo	2023-09-03T00:00:00	2024-11-08T08:00:00	5	Humedad	80
41077	7	Sololá	717	San Juan la Laguna	12	San Juan la Laguna	3	Marzo	2023-09-03T00:00:00	2024-11-08T08:00:00	6	Velocidad del viento	0
41078	7	Sololá	717	San Juan la Laguna	12	San Juan la Laguna	3	Marzo	2023-09-03T00:00:00	2024-11-08T08:00:00	7	Dirección del viento	0
41079	7	Sololá	717	San Juan la Laguna	12	San Juan la Laguna	3	Marzo	2023-09-03T00:00:00	2024-11-08T08:00:00	1	Precipitación	0
41080	7	Sololá	717	San Juan la Laguna	12	San Juan la Laguna	3	Marzo	2023-09-03T00:00:00	2024-11-08T08:00:00	8	Radiación solar	114
41081	7	Sololá	717	San Juan la Laguna	12	San Juan la Laguna	3	Marzo	2023-09-03T00:00:00	2024-11-08T09:00:00	2	Temperatura media	19.3
41082	7	Sololá	717	San Juan la Laguna	12	San Juan la Laguna	3	Marzo	2023-09-03T00:00:00	2024-11-08T09:00:00	4	Temperatura máxima	19.8
41083	7	Sololá	717	San Juan la Laguna	12	San Juan la Laguna	3	Marzo	2023-09-03T00:00:00	2024-11-08T09:00:00	3	Temperatura mínima	16.4
41084	7	Sololá	717	San Juan la Laguna	12	San Juan la Laguna	3	Marzo	2023-09-03T00:00:00	2024-11-08T09:00:00	5	Humedad	72
41085	7	Sololá	717	San Juan la Laguna	12	San Juan la Laguna	3	Marzo	2023-09-03T00:00:00	2024-11-08T09:00:00	6	Velocidad del viento	0
41086	7	Sololá	717	San Juan la Laguna	12	San Juan la Laguna	3	Marzo	2023-09-03T00:00:00	2024-11-08T09:00:00	7	Dirección del viento	0
41087	7	Sololá	717	San Juan la Laguna	12	San Juan la Laguna	3	Marzo	2023-09-03T00:00:00	2024-11-08T09:00:00	1	Precipitación	0
41088	7	Sololá	717	San Juan la Laguna	12	San Juan la Laguna	3	Marzo	2023-09-03T00:00:00	2024-11-08T09:00:00	8	Radiación solar	345
41089	7	Sololá	717	San Juan la Laguna	12	San Juan la Laguna	3	Marzo	2023-09-03T00:00:00	2024-11-08T10:00:00	2	Temperatura media	19.4
41090	7	Sololá	717	San Juan la Laguna	12	San Juan la Laguna	3	Marzo	2023-09-03T00:00:00	2024-11-08T10:00:00	4	Temperatura máxima	19.5
41091	7	Sololá	717	San Juan la Laguna	12	San Juan la Laguna	3	Marzo	2023-09-03T00:00:00	2024-11-08T10:00:00	3	Temperatura mínima	18.9
41092	7	Sololá	717	San Juan la Laguna	12	San Juan la Laguna	3	Marzo	2023-09-03T00:00:00	2024-11-08T10:00:00	5	Humedad	69
41093	7	Sololá	717	San Juan la Laguna	12	San Juan la Laguna	3	Marzo	2023-09-03T00:00:00	2024-11-08T10:00:00	6	Velocidad del viento	3.2
41094	7	Sololá	717	San Juan la Laguna	12	San Juan la Laguna	3	Marzo	2023-09-03T00:00:00	2024-11-08T10:00:00	7	Dirección del viento	3.22
41095	7	Sololá	717	San Juan la Laguna	12	San Juan la Laguna	3	Marzo	2023-09-03T00:00:00	2024-11-08T10:00:00	1	Precipitación	0
41096	7	Sololá	717	San Juan la Laguna	12	San Juan la Laguna	3	Marzo	2023-09-03T00:00:00	2024-11-08T10:00:00	8	Radiación solar	530
41097	7	Sololá	717	San Juan la Laguna	12	San Juan la Laguna	3	Marzo	2023-09-03T00:00:00	2024-11-08T11:00:00	2	Temperatura media	21.3
41098	7	Sololá	717	San Juan la Laguna	12	San Juan la Laguna	3	Marzo	2023-09-03T00:00:00	2024-11-08T11:00:00	4	Temperatura máxima	21.4
41099	7	Sololá	717	San Juan la Laguna	12	San Juan la Laguna	3	Marzo	2023-09-03T00:00:00	2024-11-08T11:00:00	3	Temperatura mínima	19.4
41100	7	Sololá	717	San Juan la Laguna	12	San Juan la Laguna	3	Marzo	2023-09-03T00:00:00	2024-11-08T11:00:00	5	Humedad	63
41101	7	Sololá	717	San Juan la Laguna	12	San Juan la Laguna	3	Marzo	2023-09-03T00:00:00	2024-11-08T11:00:00	6	Velocidad del viento	3.2
41102	7	Sololá	717	San Juan la Laguna	12	San Juan la Laguna	3	Marzo	2023-09-03T00:00:00	2024-11-08T11:00:00	7	Dirección del viento	3.22
41103	7	Sololá	717	San Juan la Laguna	12	San Juan la Laguna	3	Marzo	2023-09-03T00:00:00	2024-11-08T11:00:00	1	Precipitación	0
41104	7	Sololá	717	San Juan la Laguna	12	San Juan la Laguna	3	Marzo	2023-09-03T00:00:00	2024-11-08T11:00:00	8	Radiación solar	734
41105	7	Sololá	717	San Juan la Laguna	12	San Juan la Laguna	3	Marzo	2023-09-03T00:00:00	2024-11-08T12:00:00	2	Temperatura media	21.8
41106	7	Sololá	717	San Juan la Laguna	12	San Juan la Laguna	3	Marzo	2023-09-03T00:00:00	2024-11-08T12:00:00	4	Temperatura máxima	21.8
41107	7	Sololá	717	San Juan la Laguna	12	San Juan la Laguna	3	Marzo	2023-09-03T00:00:00	2024-11-08T12:00:00	3	Temperatura mínima	20.7
41108	7	Sololá	717	San Juan la Laguna	12	San Juan la Laguna	3	Marzo	2023-09-03T00:00:00	2024-11-08T12:00:00	5	Humedad	65
41109	7	Sololá	717	San Juan la Laguna	12	San Juan la Laguna	3	Marzo	2023-09-03T00:00:00	2024-11-08T12:00:00	6	Velocidad del viento	4.8
41110	7	Sololá	717	San Juan la Laguna	12	San Juan la Laguna	3	Marzo	2023-09-03T00:00:00	2024-11-08T12:00:00	7	Dirección del viento	4.83
41111	7	Sololá	717	San Juan la Laguna	12	San Juan la Laguna	3	Marzo	2023-09-03T00:00:00	2024-11-08T12:00:00	1	Precipitación	0
41112	7	Sololá	717	San Juan la Laguna	12	San Juan la Laguna	3	Marzo	2023-09-03T00:00:00	2024-11-08T12:00:00	8	Radiación solar	805
41113	7	Sololá	717	San Juan la Laguna	12	San Juan la Laguna	3	Marzo	2023-09-03T00:00:00	2024-11-08T13:00:00	2	Temperatura media	22.5
41114	7	Sololá	717	San Juan la Laguna	12	San Juan la Laguna	3	Marzo	2023-09-03T00:00:00	2024-11-08T13:00:00	4	Temperatura máxima	22.5
41115	7	Sololá	717	San Juan la Laguna	12	San Juan la Laguna	3	Marzo	2023-09-03T00:00:00	2024-11-08T13:00:00	3	Temperatura mínima	21.1
41116	7	Sololá	717	San Juan la Laguna	12	San Juan la Laguna	3	Marzo	2023-09-03T00:00:00	2024-11-08T13:00:00	5	Humedad	65
41117	7	Sololá	717	San Juan la Laguna	12	San Juan la Laguna	3	Marzo	2023-09-03T00:00:00	2024-11-08T13:00:00	6	Velocidad del viento	6.4
41118	7	Sololá	717	San Juan la Laguna	12	San Juan la Laguna	3	Marzo	2023-09-03T00:00:00	2024-11-08T13:00:00	7	Dirección del viento	6.44
41119	7	Sololá	717	San Juan la Laguna	12	San Juan la Laguna	3	Marzo	2023-09-03T00:00:00	2024-11-08T13:00:00	1	Precipitación	0
41120	7	Sololá	717	San Juan la Laguna	12	San Juan la Laguna	3	Marzo	2023-09-03T00:00:00	2024-11-08T13:00:00	8	Radiación solar	727
41121	7	Sololá	717	San Juan la Laguna	12	San Juan la Laguna	3	Marzo	2023-09-03T00:00:00	2024-11-08T14:00:00	2	Temperatura media	21.2
41122	7	Sololá	717	San Juan la Laguna	12	San Juan la Laguna	3	Marzo	2023-09-03T00:00:00	2024-11-08T14:00:00	4	Temperatura máxima	22.5
41123	7	Sololá	717	San Juan la Laguna	12	San Juan la Laguna	3	Marzo	2023-09-03T00:00:00	2024-11-08T14:00:00	3	Temperatura mínima	20.8
41124	7	Sololá	717	San Juan la Laguna	12	San Juan la Laguna	3	Marzo	2023-09-03T00:00:00	2024-11-08T14:00:00	5	Humedad	72
41125	7	Sololá	717	San Juan la Laguna	12	San Juan la Laguna	3	Marzo	2023-09-03T00:00:00	2024-11-08T14:00:00	6	Velocidad del viento	4.8
41126	7	Sololá	717	San Juan la Laguna	12	San Juan la Laguna	3	Marzo	2023-09-03T00:00:00	2024-11-08T14:00:00	7	Dirección del viento	4.83
41127	7	Sololá	717	San Juan la Laguna	12	San Juan la Laguna	3	Marzo	2023-09-03T00:00:00	2024-11-08T14:00:00	1	Precipitación	0
41128	7	Sololá	717	San Juan la Laguna	12	San Juan la Laguna	3	Marzo	2023-09-03T00:00:00	2024-11-08T14:00:00	8	Radiación solar	383
41129	7	Sololá	717	San Juan la Laguna	12	San Juan la Laguna	3	Marzo	2023-09-03T00:00:00	2024-11-08T15:00:00	2	Temperatura media	20.9
41130	7	Sololá	717	San Juan la Laguna	12	San Juan la Laguna	3	Marzo	2023-09-03T00:00:00	2024-11-08T15:00:00	4	Temperatura máxima	22.7
41131	7	Sololá	717	San Juan la Laguna	12	San Juan la Laguna	3	Marzo	2023-09-03T00:00:00	2024-11-08T15:00:00	3	Temperatura mínima	20.9
41132	7	Sololá	717	San Juan la Laguna	12	San Juan la Laguna	3	Marzo	2023-09-03T00:00:00	2024-11-08T15:00:00	5	Humedad	72
41133	7	Sololá	717	San Juan la Laguna	12	San Juan la Laguna	3	Marzo	2023-09-03T00:00:00	2024-11-08T15:00:00	6	Velocidad del viento	3.2
41134	7	Sololá	717	San Juan la Laguna	12	San Juan la Laguna	3	Marzo	2023-09-03T00:00:00	2024-11-08T15:00:00	7	Dirección del viento	3.22
41135	7	Sololá	717	San Juan la Laguna	12	San Juan la Laguna	3	Marzo	2023-09-03T00:00:00	2024-11-08T15:00:00	1	Precipitación	0
41136	7	Sololá	717	San Juan la Laguna	12	San Juan la Laguna	3	Marzo	2023-09-03T00:00:00	2024-11-08T15:00:00	8	Radiación solar	409
41137	7	Sololá	717	San Juan la Laguna	12	San Juan la Laguna	3	Marzo	2023-09-03T00:00:00	2024-11-08T16:00:00	2	Temperatura media	21.3
41138	7	Sololá	717	San Juan la Laguna	12	San Juan la Laguna	3	Marzo	2023-09-03T00:00:00	2024-11-08T16:00:00	4	Temperatura máxima	21.7
41139	7	Sololá	717	San Juan la Laguna	12	San Juan la Laguna	3	Marzo	2023-09-03T00:00:00	2024-11-08T16:00:00	3	Temperatura mínima	20.9
41140	7	Sololá	717	San Juan la Laguna	12	San Juan la Laguna	3	Marzo	2023-09-03T00:00:00	2024-11-08T16:00:00	5	Humedad	70
41141	7	Sololá	717	San Juan la Laguna	12	San Juan la Laguna	3	Marzo	2023-09-03T00:00:00	2024-11-08T16:00:00	6	Velocidad del viento	3.2
41142	7	Sololá	717	San Juan la Laguna	12	San Juan la Laguna	3	Marzo	2023-09-03T00:00:00	2024-11-08T16:00:00	7	Dirección del viento	3.22
41143	7	Sololá	717	San Juan la Laguna	12	San Juan la Laguna	3	Marzo	2023-09-03T00:00:00	2024-11-08T16:00:00	1	Precipitación	0
41144	7	Sololá	717	San Juan la Laguna	12	San Juan la Laguna	3	Marzo	2023-09-03T00:00:00	2024-11-08T16:00:00	8	Radiación solar	310
41145	7	Sololá	717	San Juan la Laguna	12	San Juan la Laguna	3	Marzo	2023-09-03T00:00:00	2024-11-08T17:00:00	2	Temperatura media	20.1
41146	7	Sololá	717	San Juan la Laguna	12	San Juan la Laguna	3	Marzo	2023-09-03T00:00:00	2024-11-08T17:00:00	4	Temperatura máxima	21.6
41147	7	Sololá	717	San Juan la Laguna	12	San Juan la Laguna	3	Marzo	2023-09-03T00:00:00	2024-11-08T17:00:00	3	Temperatura mínima	20.1
41148	7	Sololá	717	San Juan la Laguna	12	San Juan la Laguna	3	Marzo	2023-09-03T00:00:00	2024-11-08T17:00:00	5	Humedad	75
41149	7	Sololá	717	San Juan la Laguna	12	San Juan la Laguna	3	Marzo	2023-09-03T00:00:00	2024-11-08T17:00:00	6	Velocidad del viento	3.2
41150	7	Sololá	717	San Juan la Laguna	12	San Juan la Laguna	3	Marzo	2023-09-03T00:00:00	2024-11-08T17:00:00	7	Dirección del viento	3.22
41151	7	Sololá	717	San Juan la Laguna	12	San Juan la Laguna	3	Marzo	2023-09-03T00:00:00	2024-11-08T17:00:00	1	Precipitación	0
41152	7	Sololá	717	San Juan la Laguna	12	San Juan la Laguna	3	Marzo	2023-09-03T00:00:00	2024-11-08T17:00:00	8	Radiación solar	160
41153	7	Sololá	717	San Juan la Laguna	12	San Juan la Laguna	3	Marzo	2023-09-03T00:00:00	2024-11-08T18:00:00	2	Temperatura media	19.4
41154	7	Sololá	717	San Juan la Laguna	12	San Juan la Laguna	3	Marzo	2023-09-03T00:00:00	2024-11-08T18:00:00	4	Temperatura máxima	20.1
41155	7	Sololá	717	San Juan la Laguna	12	San Juan la Laguna	3	Marzo	2023-09-03T00:00:00	2024-11-08T18:00:00	3	Temperatura mínima	19.2
41156	7	Sololá	717	San Juan la Laguna	12	San Juan la Laguna	3	Marzo	2023-09-03T00:00:00	2024-11-08T18:00:00	5	Humedad	78
41157	7	Sololá	717	San Juan la Laguna	12	San Juan la Laguna	3	Marzo	2023-09-03T00:00:00	2024-11-08T18:00:00	6	Velocidad del viento	3.2
41158	7	Sololá	717	San Juan la Laguna	12	San Juan la Laguna	3	Marzo	2023-09-03T00:00:00	2024-11-08T18:00:00	7	Dirección del viento	3.22
41159	7	Sololá	717	San Juan la Laguna	12	San Juan la Laguna	3	Marzo	2023-09-03T00:00:00	2024-11-08T18:00:00	1	Precipitación	0
41160	7	Sololá	717	San Juan la Laguna	12	San Juan la Laguna	3	Marzo	2023-09-03T00:00:00	2024-11-08T18:00:00	8	Radiación solar	52
41161	7	Sololá	717	San Juan la Laguna	12	San Juan la Laguna	3	Marzo	2023-09-03T00:00:00	2024-11-08T19:00:00	2	Temperatura media	19
41162	7	Sololá	717	San Juan la Laguna	12	San Juan la Laguna	3	Marzo	2023-09-03T00:00:00	2024-11-08T19:00:00	4	Temperatura máxima	19.4
41163	7	Sololá	717	San Juan la Laguna	12	San Juan la Laguna	3	Marzo	2023-09-03T00:00:00	2024-11-08T19:00:00	3	Temperatura mínima	19
41164	7	Sololá	717	San Juan la Laguna	12	San Juan la Laguna	3	Marzo	2023-09-03T00:00:00	2024-11-08T19:00:00	5	Humedad	79
41165	7	Sololá	717	San Juan la Laguna	12	San Juan la Laguna	3	Marzo	2023-09-03T00:00:00	2024-11-08T19:00:00	6	Velocidad del viento	1.6
41166	7	Sololá	717	San Juan la Laguna	12	San Juan la Laguna	3	Marzo	2023-09-03T00:00:00	2024-11-08T19:00:00	7	Dirección del viento	1.61
41167	7	Sololá	717	San Juan la Laguna	12	San Juan la Laguna	3	Marzo	2023-09-03T00:00:00	2024-11-08T19:00:00	1	Precipitación	0
41168	7	Sololá	717	San Juan la Laguna	12	San Juan la Laguna	3	Marzo	2023-09-03T00:00:00	2024-11-08T19:00:00	8	Radiación solar	0
41169	7	Sololá	717	San Juan la Laguna	12	San Juan la Laguna	3	Marzo	2023-09-03T00:00:00	2024-11-08T20:00:00	2	Temperatura media	18.7
41170	7	Sololá	717	San Juan la Laguna	12	San Juan la Laguna	3	Marzo	2023-09-03T00:00:00	2024-11-08T20:00:00	4	Temperatura máxima	19
41171	7	Sololá	717	San Juan la Laguna	12	San Juan la Laguna	3	Marzo	2023-09-03T00:00:00	2024-11-08T20:00:00	3	Temperatura mínima	18.7
41172	7	Sololá	717	San Juan la Laguna	12	San Juan la Laguna	3	Marzo	2023-09-03T00:00:00	2024-11-08T20:00:00	5	Humedad	81
41173	7	Sololá	717	San Juan la Laguna	12	San Juan la Laguna	3	Marzo	2023-09-03T00:00:00	2024-11-08T20:00:00	6	Velocidad del viento	0
41174	7	Sololá	717	San Juan la Laguna	12	San Juan la Laguna	3	Marzo	2023-09-03T00:00:00	2024-11-08T20:00:00	7	Dirección del viento	0
41175	7	Sololá	717	San Juan la Laguna	12	San Juan la Laguna	3	Marzo	2023-09-03T00:00:00	2024-11-08T20:00:00	1	Precipitación	0
41176	7	Sololá	717	San Juan la Laguna	12	San Juan la Laguna	3	Marzo	2023-09-03T00:00:00	2024-11-08T20:00:00	8	Radiación solar	0
41177	7	Sololá	717	San Juan la Laguna	12	San Juan la Laguna	3	Marzo	2023-09-03T00:00:00	2024-11-08T21:00:00	2	Temperatura media	18.6
41178	7	Sololá	717	San Juan la Laguna	12	San Juan la Laguna	3	Marzo	2023-09-03T00:00:00	2024-11-08T21:00:00	4	Temperatura máxima	18.8
41179	7	Sololá	717	San Juan la Laguna	12	San Juan la Laguna	3	Marzo	2023-09-03T00:00:00	2024-11-08T21:00:00	3	Temperatura mínima	18.6
41180	7	Sololá	717	San Juan la Laguna	12	San Juan la Laguna	3	Marzo	2023-09-03T00:00:00	2024-11-08T21:00:00	5	Humedad	87
41181	7	Sololá	717	San Juan la Laguna	12	San Juan la Laguna	3	Marzo	2023-09-03T00:00:00	2024-11-08T21:00:00	6	Velocidad del viento	0
41182	7	Sololá	717	San Juan la Laguna	12	San Juan la Laguna	3	Marzo	2023-09-03T00:00:00	2024-11-08T21:00:00	7	Dirección del viento	0
41183	7	Sololá	717	San Juan la Laguna	12	San Juan la Laguna	3	Marzo	2023-09-03T00:00:00	2024-11-08T21:00:00	1	Precipitación	0
41184	7	Sololá	717	San Juan la Laguna	12	San Juan la Laguna	3	Marzo	2023-09-03T00:00:00	2024-11-08T21:00:00	8	Radiación solar	0
41185	7	Sololá	717	San Juan la Laguna	12	San Juan la Laguna	3	Marzo	2023-09-03T00:00:00	2024-11-08T22:00:00	2	Temperatura media	18
41186	7	Sololá	717	San Juan la Laguna	12	San Juan la Laguna	3	Marzo	2023-09-03T00:00:00	2024-11-08T22:00:00	4	Temperatura máxima	18.6
41187	7	Sololá	717	San Juan la Laguna	12	San Juan la Laguna	3	Marzo	2023-09-03T00:00:00	2024-11-08T22:00:00	3	Temperatura mínima	18
41188	7	Sololá	717	San Juan la Laguna	12	San Juan la Laguna	3	Marzo	2023-09-03T00:00:00	2024-11-08T22:00:00	5	Humedad	87
41189	7	Sololá	717	San Juan la Laguna	12	San Juan la Laguna	3	Marzo	2023-09-03T00:00:00	2024-11-08T22:00:00	6	Velocidad del viento	0
41190	7	Sololá	717	San Juan la Laguna	12	San Juan la Laguna	3	Marzo	2023-09-03T00:00:00	2024-11-08T22:00:00	7	Dirección del viento	0
41191	7	Sololá	717	San Juan la Laguna	12	San Juan la Laguna	3	Marzo	2023-09-03T00:00:00	2024-11-08T22:00:00	1	Precipitación	0
41192	7	Sololá	717	San Juan la Laguna	12	San Juan la Laguna	3	Marzo	2023-09-03T00:00:00	2024-11-08T22:00:00	8	Radiación solar	0
41193	7	Sololá	717	San Juan la Laguna	12	San Juan la Laguna	3	Marzo	2023-09-03T00:00:00	2024-11-08T23:00:00	2	Temperatura media	17.4
41194	7	Sololá	717	San Juan la Laguna	12	San Juan la Laguna	3	Marzo	2023-09-03T00:00:00	2024-11-08T23:00:00	4	Temperatura máxima	18
41195	7	Sololá	717	San Juan la Laguna	12	San Juan la Laguna	3	Marzo	2023-09-03T00:00:00	2024-11-08T23:00:00	3	Temperatura mínima	17.4
41196	7	Sololá	717	San Juan la Laguna	12	San Juan la Laguna	3	Marzo	2023-09-03T00:00:00	2024-11-08T23:00:00	5	Humedad	87
41197	7	Sololá	717	San Juan la Laguna	12	San Juan la Laguna	3	Marzo	2023-09-03T00:00:00	2024-11-08T23:00:00	6	Velocidad del viento	0
41198	7	Sololá	717	San Juan la Laguna	12	San Juan la Laguna	3	Marzo	2023-09-03T00:00:00	2024-11-08T23:00:00	7	Dirección del viento	0
41199	7	Sololá	717	San Juan la Laguna	12	San Juan la Laguna	3	Marzo	2023-09-03T00:00:00	2024-11-08T23:00:00	1	Precipitación	0
41200	7	Sololá	717	San Juan la Laguna	12	San Juan la Laguna	3	Marzo	2023-09-03T00:00:00	2024-11-08T23:00:00	8	Radiación solar	0
41201	7	Sololá	717	San Juan la Laguna	12	San Juan la Laguna	3	Marzo	2023-10-03T00:00:00	2024-11-08T00:00:00	2	Temperatura media	16.3
41202	7	Sololá	717	San Juan la Laguna	12	San Juan la Laguna	3	Marzo	2023-10-03T00:00:00	2024-11-08T00:00:00	4	Temperatura máxima	17.4
41203	7	Sololá	717	San Juan la Laguna	12	San Juan la Laguna	3	Marzo	2023-10-03T00:00:00	2024-11-08T00:00:00	3	Temperatura mínima	16.3
41204	7	Sololá	717	San Juan la Laguna	12	San Juan la Laguna	3	Marzo	2023-10-03T00:00:00	2024-11-08T00:00:00	5	Humedad	90
41205	7	Sololá	717	San Juan la Laguna	12	San Juan la Laguna	3	Marzo	2023-10-03T00:00:00	2024-11-08T00:00:00	6	Velocidad del viento	0
41206	7	Sololá	717	San Juan la Laguna	12	San Juan la Laguna	3	Marzo	2023-10-03T00:00:00	2024-11-08T00:00:00	7	Dirección del viento	0
41207	7	Sololá	717	San Juan la Laguna	12	San Juan la Laguna	3	Marzo	2023-10-03T00:00:00	2024-11-08T00:00:00	1	Precipitación	0
41208	7	Sololá	717	San Juan la Laguna	12	San Juan la Laguna	3	Marzo	2023-10-03T00:00:00	2024-11-08T00:00:00	8	Radiación solar	0
41209	7	Sololá	717	San Juan la Laguna	12	San Juan la Laguna	3	Marzo	2023-10-03T00:00:00	2024-11-08T01:00:00	2	Temperatura media	15.5
41210	7	Sololá	717	San Juan la Laguna	12	San Juan la Laguna	3	Marzo	2023-10-03T00:00:00	2024-11-08T01:00:00	4	Temperatura máxima	16.3
41211	7	Sololá	717	San Juan la Laguna	12	San Juan la Laguna	3	Marzo	2023-10-03T00:00:00	2024-11-08T01:00:00	3	Temperatura mínima	15.4
41212	7	Sololá	717	San Juan la Laguna	12	San Juan la Laguna	3	Marzo	2023-10-03T00:00:00	2024-11-08T01:00:00	5	Humedad	86
41213	7	Sololá	717	San Juan la Laguna	12	San Juan la Laguna	3	Marzo	2023-10-03T00:00:00	2024-11-08T01:00:00	6	Velocidad del viento	0
41214	7	Sololá	717	San Juan la Laguna	12	San Juan la Laguna	3	Marzo	2023-10-03T00:00:00	2024-11-08T01:00:00	7	Dirección del viento	0
41215	7	Sololá	717	San Juan la Laguna	12	San Juan la Laguna	3	Marzo	2023-10-03T00:00:00	2024-11-08T01:00:00	1	Precipitación	0
41216	7	Sololá	717	San Juan la Laguna	12	San Juan la Laguna	3	Marzo	2023-10-03T00:00:00	2024-11-08T01:00:00	8	Radiación solar	0
41217	7	Sololá	717	San Juan la Laguna	12	San Juan la Laguna	3	Marzo	2023-10-03T00:00:00	2024-11-08T02:00:00	2	Temperatura media	15.5
41218	7	Sololá	717	San Juan la Laguna	12	San Juan la Laguna	3	Marzo	2023-10-03T00:00:00	2024-11-08T02:00:00	4	Temperatura máxima	15.5
41219	7	Sololá	717	San Juan la Laguna	12	San Juan la Laguna	3	Marzo	2023-10-03T00:00:00	2024-11-08T02:00:00	3	Temperatura mínima	15.2
41220	7	Sololá	717	San Juan la Laguna	12	San Juan la Laguna	3	Marzo	2023-10-03T00:00:00	2024-11-08T02:00:00	5	Humedad	85
41221	7	Sololá	717	San Juan la Laguna	12	San Juan la Laguna	3	Marzo	2023-10-03T00:00:00	2024-11-08T02:00:00	6	Velocidad del viento	1.6
41222	7	Sololá	717	San Juan la Laguna	12	San Juan la Laguna	3	Marzo	2023-10-03T00:00:00	2024-11-08T02:00:00	7	Dirección del viento	1.61
41223	7	Sololá	717	San Juan la Laguna	12	San Juan la Laguna	3	Marzo	2023-10-03T00:00:00	2024-11-08T02:00:00	1	Precipitación	0
41224	7	Sololá	717	San Juan la Laguna	12	San Juan la Laguna	3	Marzo	2023-10-03T00:00:00	2024-11-08T02:00:00	8	Radiación solar	0
41225	7	Sololá	717	San Juan la Laguna	12	San Juan la Laguna	3	Marzo	2023-10-03T00:00:00	2024-11-08T03:00:00	2	Temperatura media	15.7
41226	7	Sololá	717	San Juan la Laguna	12	San Juan la Laguna	3	Marzo	2023-10-03T00:00:00	2024-11-08T03:00:00	4	Temperatura máxima	15.7
41227	7	Sololá	717	San Juan la Laguna	12	San Juan la Laguna	3	Marzo	2023-10-03T00:00:00	2024-11-08T03:00:00	3	Temperatura mínima	15.4
41228	7	Sololá	717	San Juan la Laguna	12	San Juan la Laguna	3	Marzo	2023-10-03T00:00:00	2024-11-08T03:00:00	5	Humedad	85
41229	7	Sololá	717	San Juan la Laguna	12	San Juan la Laguna	3	Marzo	2023-10-03T00:00:00	2024-11-08T03:00:00	6	Velocidad del viento	0
41230	7	Sololá	717	San Juan la Laguna	12	San Juan la Laguna	3	Marzo	2023-10-03T00:00:00	2024-11-08T03:00:00	7	Dirección del viento	0
41231	7	Sololá	717	San Juan la Laguna	12	San Juan la Laguna	3	Marzo	2023-10-03T00:00:00	2024-11-08T03:00:00	1	Precipitación	0
41232	7	Sololá	717	San Juan la Laguna	12	San Juan la Laguna	3	Marzo	2023-10-03T00:00:00	2024-11-08T03:00:00	8	Radiación solar	0
41233	7	Sololá	717	San Juan la Laguna	12	San Juan la Laguna	3	Marzo	2023-10-03T00:00:00	2024-11-08T04:00:00	2	Temperatura media	15.8
41234	7	Sololá	717	San Juan la Laguna	12	San Juan la Laguna	3	Marzo	2023-10-03T00:00:00	2024-11-08T04:00:00	4	Temperatura máxima	15.8
41235	7	Sololá	717	San Juan la Laguna	12	San Juan la Laguna	3	Marzo	2023-10-03T00:00:00	2024-11-08T04:00:00	3	Temperatura mínima	15.7
41236	7	Sololá	717	San Juan la Laguna	12	San Juan la Laguna	3	Marzo	2023-10-03T00:00:00	2024-11-08T04:00:00	5	Humedad	86
41237	7	Sololá	717	San Juan la Laguna	12	San Juan la Laguna	3	Marzo	2023-10-03T00:00:00	2024-11-08T04:00:00	6	Velocidad del viento	0
41238	7	Sololá	717	San Juan la Laguna	12	San Juan la Laguna	3	Marzo	2023-10-03T00:00:00	2024-11-08T04:00:00	7	Dirección del viento	0
41239	7	Sololá	717	San Juan la Laguna	12	San Juan la Laguna	3	Marzo	2023-10-03T00:00:00	2024-11-08T04:00:00	1	Precipitación	0
41240	7	Sololá	717	San Juan la Laguna	12	San Juan la Laguna	3	Marzo	2023-10-03T00:00:00	2024-11-08T04:00:00	8	Radiación solar	0
41241	7	Sololá	717	San Juan la Laguna	12	San Juan la Laguna	3	Marzo	2023-10-03T00:00:00	2024-11-08T05:00:00	2	Temperatura media	15.7
41242	7	Sololá	717	San Juan la Laguna	12	San Juan la Laguna	3	Marzo	2023-10-03T00:00:00	2024-11-08T05:00:00	4	Temperatura máxima	15.8
41243	7	Sololá	717	San Juan la Laguna	12	San Juan la Laguna	3	Marzo	2023-10-03T00:00:00	2024-11-08T05:00:00	3	Temperatura mínima	15.6
41244	7	Sololá	717	San Juan la Laguna	12	San Juan la Laguna	3	Marzo	2023-10-03T00:00:00	2024-11-08T05:00:00	5	Humedad	85
41245	7	Sololá	717	San Juan la Laguna	12	San Juan la Laguna	3	Marzo	2023-10-03T00:00:00	2024-11-08T05:00:00	6	Velocidad del viento	0
41246	7	Sololá	717	San Juan la Laguna	12	San Juan la Laguna	3	Marzo	2023-10-03T00:00:00	2024-11-08T05:00:00	7	Dirección del viento	0
41247	7	Sololá	717	San Juan la Laguna	12	San Juan la Laguna	3	Marzo	2023-10-03T00:00:00	2024-11-08T05:00:00	1	Precipitación	0
41248	7	Sololá	717	San Juan la Laguna	12	San Juan la Laguna	3	Marzo	2023-10-03T00:00:00	2024-11-08T05:00:00	8	Radiación solar	0
41249	7	Sololá	717	San Juan la Laguna	12	San Juan la Laguna	3	Marzo	2023-10-03T00:00:00	2024-11-08T06:00:00	2	Temperatura media	15.7
41250	7	Sololá	717	San Juan la Laguna	12	San Juan la Laguna	3	Marzo	2023-10-03T00:00:00	2024-11-08T06:00:00	4	Temperatura máxima	15.8
41251	7	Sololá	717	San Juan la Laguna	12	San Juan la Laguna	3	Marzo	2023-10-03T00:00:00	2024-11-08T06:00:00	3	Temperatura mínima	15.6
41252	7	Sololá	717	San Juan la Laguna	12	San Juan la Laguna	3	Marzo	2023-10-03T00:00:00	2024-11-08T06:00:00	5	Humedad	86
41253	7	Sololá	717	San Juan la Laguna	12	San Juan la Laguna	3	Marzo	2023-10-03T00:00:00	2024-11-08T06:00:00	6	Velocidad del viento	0
41254	7	Sololá	717	San Juan la Laguna	12	San Juan la Laguna	3	Marzo	2023-10-03T00:00:00	2024-11-08T06:00:00	7	Dirección del viento	0
41255	7	Sololá	717	San Juan la Laguna	12	San Juan la Laguna	3	Marzo	2023-10-03T00:00:00	2024-11-08T06:00:00	1	Precipitación	0
41256	7	Sololá	717	San Juan la Laguna	12	San Juan la Laguna	3	Marzo	2023-10-03T00:00:00	2024-11-08T06:00:00	8	Radiación solar	0
41257	7	Sololá	717	San Juan la Laguna	12	San Juan la Laguna	3	Marzo	2023-10-03T00:00:00	2024-11-08T07:00:00	2	Temperatura media	16
41258	7	Sololá	717	San Juan la Laguna	12	San Juan la Laguna	3	Marzo	2023-10-03T00:00:00	2024-11-08T07:00:00	4	Temperatura máxima	16
41259	7	Sololá	717	San Juan la Laguna	12	San Juan la Laguna	3	Marzo	2023-10-03T00:00:00	2024-11-08T07:00:00	3	Temperatura mínima	15.7
41260	7	Sololá	717	San Juan la Laguna	12	San Juan la Laguna	3	Marzo	2023-10-03T00:00:00	2024-11-08T07:00:00	5	Humedad	86
41261	7	Sololá	717	San Juan la Laguna	12	San Juan la Laguna	3	Marzo	2023-10-03T00:00:00	2024-11-08T07:00:00	6	Velocidad del viento	0
41262	7	Sololá	717	San Juan la Laguna	12	San Juan la Laguna	3	Marzo	2023-10-03T00:00:00	2024-11-08T07:00:00	7	Dirección del viento	0
41263	7	Sololá	717	San Juan la Laguna	12	San Juan la Laguna	3	Marzo	2023-10-03T00:00:00	2024-11-08T07:00:00	1	Precipitación	0
41264	7	Sololá	717	San Juan la Laguna	12	San Juan la Laguna	3	Marzo	2023-10-03T00:00:00	2024-11-08T07:00:00	8	Radiación solar	2
41265	7	Sololá	717	San Juan la Laguna	12	San Juan la Laguna	3	Marzo	2023-10-03T00:00:00	2024-11-08T08:00:00	2	Temperatura media	16.3
41266	7	Sololá	717	San Juan la Laguna	12	San Juan la Laguna	3	Marzo	2023-10-03T00:00:00	2024-11-08T08:00:00	4	Temperatura máxima	16.3
41267	7	Sololá	717	San Juan la Laguna	12	San Juan la Laguna	3	Marzo	2023-10-03T00:00:00	2024-11-08T08:00:00	3	Temperatura mínima	16
41268	7	Sololá	717	San Juan la Laguna	12	San Juan la Laguna	3	Marzo	2023-10-03T00:00:00	2024-11-08T08:00:00	5	Humedad	84
41269	7	Sololá	717	San Juan la Laguna	12	San Juan la Laguna	3	Marzo	2023-10-03T00:00:00	2024-11-08T08:00:00	6	Velocidad del viento	0
41270	7	Sololá	717	San Juan la Laguna	12	San Juan la Laguna	3	Marzo	2023-10-03T00:00:00	2024-11-08T08:00:00	7	Dirección del viento	0
41271	7	Sololá	717	San Juan la Laguna	12	San Juan la Laguna	3	Marzo	2023-10-03T00:00:00	2024-11-08T08:00:00	1	Precipitación	0
41272	7	Sololá	717	San Juan la Laguna	12	San Juan la Laguna	3	Marzo	2023-10-03T00:00:00	2024-11-08T08:00:00	8	Radiación solar	22
41273	7	Sololá	717	San Juan la Laguna	12	San Juan la Laguna	3	Marzo	2023-10-03T00:00:00	2024-11-08T09:00:00	2	Temperatura media	17.7
41274	7	Sololá	717	San Juan la Laguna	12	San Juan la Laguna	3	Marzo	2023-10-03T00:00:00	2024-11-08T09:00:00	4	Temperatura máxima	17.7
41275	7	Sololá	717	San Juan la Laguna	12	San Juan la Laguna	3	Marzo	2023-10-03T00:00:00	2024-11-08T09:00:00	3	Temperatura mínima	16.3
41276	7	Sololá	717	San Juan la Laguna	12	San Juan la Laguna	3	Marzo	2023-10-03T00:00:00	2024-11-08T09:00:00	5	Humedad	78
41277	7	Sololá	717	San Juan la Laguna	12	San Juan la Laguna	3	Marzo	2023-10-03T00:00:00	2024-11-08T09:00:00	6	Velocidad del viento	3.2
41278	7	Sololá	717	San Juan la Laguna	12	San Juan la Laguna	3	Marzo	2023-10-03T00:00:00	2024-11-08T09:00:00	7	Dirección del viento	3.22
41279	7	Sololá	717	San Juan la Laguna	12	San Juan la Laguna	3	Marzo	2023-10-03T00:00:00	2024-11-08T09:00:00	1	Precipitación	0
41280	7	Sololá	717	San Juan la Laguna	12	San Juan la Laguna	3	Marzo	2023-10-03T00:00:00	2024-11-08T09:00:00	8	Radiación solar	126
41281	7	Sololá	717	San Juan la Laguna	12	San Juan la Laguna	3	Marzo	2023-10-03T00:00:00	2024-11-08T10:00:00	2	Temperatura media	19.4
41282	7	Sololá	717	San Juan la Laguna	12	San Juan la Laguna	3	Marzo	2023-10-03T00:00:00	2024-11-08T10:00:00	4	Temperatura máxima	19.5
41283	7	Sololá	717	San Juan la Laguna	12	San Juan la Laguna	3	Marzo	2023-10-03T00:00:00	2024-11-08T10:00:00	3	Temperatura mínima	17.7
41284	7	Sololá	717	San Juan la Laguna	12	San Juan la Laguna	3	Marzo	2023-10-03T00:00:00	2024-11-08T10:00:00	5	Humedad	72
41285	7	Sololá	717	San Juan la Laguna	12	San Juan la Laguna	3	Marzo	2023-10-03T00:00:00	2024-11-08T10:00:00	6	Velocidad del viento	1.6
41286	7	Sololá	717	San Juan la Laguna	12	San Juan la Laguna	3	Marzo	2023-10-03T00:00:00	2024-11-08T10:00:00	7	Dirección del viento	1.61
41287	7	Sololá	717	San Juan la Laguna	12	San Juan la Laguna	3	Marzo	2023-10-03T00:00:00	2024-11-08T10:00:00	1	Precipitación	0
41288	7	Sololá	717	San Juan la Laguna	12	San Juan la Laguna	3	Marzo	2023-10-03T00:00:00	2024-11-08T10:00:00	8	Radiación solar	274
41289	7	Sololá	717	San Juan la Laguna	12	San Juan la Laguna	3	Marzo	2023-10-03T00:00:00	2024-11-08T11:00:00	2	Temperatura media	18.8
41290	7	Sololá	717	San Juan la Laguna	12	San Juan la Laguna	3	Marzo	2023-10-03T00:00:00	2024-11-08T11:00:00	4	Temperatura máxima	19.4
41291	7	Sololá	717	San Juan la Laguna	12	San Juan la Laguna	3	Marzo	2023-10-03T00:00:00	2024-11-08T11:00:00	3	Temperatura mínima	18.8
41292	7	Sololá	717	San Juan la Laguna	12	San Juan la Laguna	3	Marzo	2023-10-03T00:00:00	2024-11-08T11:00:00	5	Humedad	74
41293	7	Sololá	717	San Juan la Laguna	12	San Juan la Laguna	3	Marzo	2023-10-03T00:00:00	2024-11-08T11:00:00	6	Velocidad del viento	1.6
41294	7	Sololá	717	San Juan la Laguna	12	San Juan la Laguna	3	Marzo	2023-10-03T00:00:00	2024-11-08T11:00:00	7	Dirección del viento	1.61
41295	7	Sololá	717	San Juan la Laguna	12	San Juan la Laguna	3	Marzo	2023-10-03T00:00:00	2024-11-08T11:00:00	1	Precipitación	0
41296	7	Sololá	717	San Juan la Laguna	12	San Juan la Laguna	3	Marzo	2023-10-03T00:00:00	2024-11-08T11:00:00	8	Radiación solar	222
41297	7	Sololá	717	San Juan la Laguna	12	San Juan la Laguna	3	Marzo	2023-10-03T00:00:00	2024-11-08T12:00:00	2	Temperatura media	18.6
41298	7	Sololá	717	San Juan la Laguna	12	San Juan la Laguna	3	Marzo	2023-10-03T00:00:00	2024-11-08T12:00:00	4	Temperatura máxima	18.8
41299	7	Sololá	717	San Juan la Laguna	12	San Juan la Laguna	3	Marzo	2023-10-03T00:00:00	2024-11-08T12:00:00	3	Temperatura mínima	18.3
41300	7	Sololá	717	San Juan la Laguna	12	San Juan la Laguna	3	Marzo	2023-10-03T00:00:00	2024-11-08T12:00:00	5	Humedad	74
41301	7	Sololá	717	San Juan la Laguna	12	San Juan la Laguna	3	Marzo	2023-10-03T00:00:00	2024-11-08T12:00:00	6	Velocidad del viento	3.2
41302	7	Sololá	717	San Juan la Laguna	12	San Juan la Laguna	3	Marzo	2023-10-03T00:00:00	2024-11-08T12:00:00	7	Dirección del viento	3.22
41303	7	Sololá	717	San Juan la Laguna	12	San Juan la Laguna	3	Marzo	2023-10-03T00:00:00	2024-11-08T12:00:00	1	Precipitación	0
41304	7	Sololá	717	San Juan la Laguna	12	San Juan la Laguna	3	Marzo	2023-10-03T00:00:00	2024-11-08T12:00:00	8	Radiación solar	141
41305	7	Sololá	717	San Juan la Laguna	12	San Juan la Laguna	3	Marzo	2023-10-03T00:00:00	2024-11-08T13:00:00	2	Temperatura media	19.8
41306	7	Sololá	717	San Juan la Laguna	12	San Juan la Laguna	3	Marzo	2023-10-03T00:00:00	2024-11-08T13:00:00	4	Temperatura máxima	20.4
41307	7	Sololá	717	San Juan la Laguna	12	San Juan la Laguna	3	Marzo	2023-10-03T00:00:00	2024-11-08T13:00:00	3	Temperatura mínima	18.5
41308	7	Sololá	717	San Juan la Laguna	12	San Juan la Laguna	3	Marzo	2023-10-03T00:00:00	2024-11-08T13:00:00	5	Humedad	71
41309	7	Sololá	717	San Juan la Laguna	12	San Juan la Laguna	3	Marzo	2023-10-03T00:00:00	2024-11-08T13:00:00	6	Velocidad del viento	1.6
41310	7	Sololá	717	San Juan la Laguna	12	San Juan la Laguna	3	Marzo	2023-10-03T00:00:00	2024-11-08T13:00:00	7	Dirección del viento	1.61
41311	7	Sololá	717	San Juan la Laguna	12	San Juan la Laguna	3	Marzo	2023-10-03T00:00:00	2024-11-08T13:00:00	1	Precipitación	0
41312	7	Sololá	717	San Juan la Laguna	12	San Juan la Laguna	3	Marzo	2023-10-03T00:00:00	2024-11-08T13:00:00	8	Radiación solar	387
41313	7	Sololá	717	San Juan la Laguna	12	San Juan la Laguna	3	Marzo	2023-10-03T00:00:00	2024-11-08T14:00:00	2	Temperatura media	20.1
41314	7	Sololá	717	San Juan la Laguna	12	San Juan la Laguna	3	Marzo	2023-10-03T00:00:00	2024-11-08T14:00:00	4	Temperatura máxima	20.2
41315	7	Sololá	717	San Juan la Laguna	12	San Juan la Laguna	3	Marzo	2023-10-03T00:00:00	2024-11-08T14:00:00	3	Temperatura mínima	19.6
41316	7	Sololá	717	San Juan la Laguna	12	San Juan la Laguna	3	Marzo	2023-10-03T00:00:00	2024-11-08T14:00:00	5	Humedad	71
41317	7	Sololá	717	San Juan la Laguna	12	San Juan la Laguna	3	Marzo	2023-10-03T00:00:00	2024-11-08T14:00:00	6	Velocidad del viento	3.2
41318	7	Sololá	717	San Juan la Laguna	12	San Juan la Laguna	3	Marzo	2023-10-03T00:00:00	2024-11-08T14:00:00	7	Dirección del viento	3.22
41319	7	Sololá	717	San Juan la Laguna	12	San Juan la Laguna	3	Marzo	2023-10-03T00:00:00	2024-11-08T14:00:00	1	Precipitación	0
41320	7	Sololá	717	San Juan la Laguna	12	San Juan la Laguna	3	Marzo	2023-10-03T00:00:00	2024-11-08T14:00:00	8	Radiación solar	252
41321	7	Sololá	717	San Juan la Laguna	12	San Juan la Laguna	3	Marzo	2023-10-03T00:00:00	2024-11-08T15:00:00	2	Temperatura media	20.6
41322	7	Sololá	717	San Juan la Laguna	12	San Juan la Laguna	3	Marzo	2023-10-03T00:00:00	2024-11-08T15:00:00	4	Temperatura máxima	20.9
41323	7	Sololá	717	San Juan la Laguna	12	San Juan la Laguna	3	Marzo	2023-10-03T00:00:00	2024-11-08T15:00:00	3	Temperatura mínima	20.1
41324	7	Sololá	717	San Juan la Laguna	12	San Juan la Laguna	3	Marzo	2023-10-03T00:00:00	2024-11-08T15:00:00	5	Humedad	69
41325	7	Sololá	717	San Juan la Laguna	12	San Juan la Laguna	3	Marzo	2023-10-03T00:00:00	2024-11-08T15:00:00	6	Velocidad del viento	4.8
41326	7	Sololá	717	San Juan la Laguna	12	San Juan la Laguna	3	Marzo	2023-10-03T00:00:00	2024-11-08T15:00:00	7	Dirección del viento	4.83
41327	7	Sololá	717	San Juan la Laguna	12	San Juan la Laguna	3	Marzo	2023-10-03T00:00:00	2024-11-08T15:00:00	1	Precipitación	0
41328	7	Sololá	717	San Juan la Laguna	12	San Juan la Laguna	3	Marzo	2023-10-03T00:00:00	2024-11-08T15:00:00	8	Radiación solar	488
41329	7	Sololá	717	San Juan la Laguna	12	San Juan la Laguna	3	Marzo	2023-10-03T00:00:00	2024-11-08T16:00:00	2	Temperatura media	20.1
41330	7	Sololá	717	San Juan la Laguna	12	San Juan la Laguna	3	Marzo	2023-10-03T00:00:00	2024-11-08T16:00:00	4	Temperatura máxima	21.1
41331	7	Sololá	717	San Juan la Laguna	12	San Juan la Laguna	3	Marzo	2023-10-03T00:00:00	2024-11-08T16:00:00	3	Temperatura mínima	20.1
41332	7	Sololá	717	San Juan la Laguna	12	San Juan la Laguna	3	Marzo	2023-10-03T00:00:00	2024-11-08T16:00:00	5	Humedad	73
41333	7	Sololá	717	San Juan la Laguna	12	San Juan la Laguna	3	Marzo	2023-10-03T00:00:00	2024-11-08T16:00:00	6	Velocidad del viento	3.2
41334	7	Sololá	717	San Juan la Laguna	12	San Juan la Laguna	3	Marzo	2023-10-03T00:00:00	2024-11-08T16:00:00	7	Dirección del viento	3.22
41335	7	Sololá	717	San Juan la Laguna	12	San Juan la Laguna	3	Marzo	2023-10-03T00:00:00	2024-11-08T16:00:00	1	Precipitación	0
41336	7	Sololá	717	San Juan la Laguna	12	San Juan la Laguna	3	Marzo	2023-10-03T00:00:00	2024-11-08T16:00:00	8	Radiación solar	333
41337	7	Sololá	717	San Juan la Laguna	12	San Juan la Laguna	3	Marzo	2023-10-03T00:00:00	2024-11-08T17:00:00	2	Temperatura media	18.9
41338	7	Sololá	717	San Juan la Laguna	12	San Juan la Laguna	3	Marzo	2023-10-03T00:00:00	2024-11-08T17:00:00	4	Temperatura máxima	20.1
41339	7	Sololá	717	San Juan la Laguna	12	San Juan la Laguna	3	Marzo	2023-10-03T00:00:00	2024-11-08T17:00:00	3	Temperatura mínima	18.9
41340	7	Sololá	717	San Juan la Laguna	12	San Juan la Laguna	3	Marzo	2023-10-03T00:00:00	2024-11-08T17:00:00	5	Humedad	78
41341	7	Sololá	717	San Juan la Laguna	12	San Juan la Laguna	3	Marzo	2023-10-03T00:00:00	2024-11-08T17:00:00	6	Velocidad del viento	4.8
41342	7	Sololá	717	San Juan la Laguna	12	San Juan la Laguna	3	Marzo	2023-10-03T00:00:00	2024-11-08T17:00:00	7	Dirección del viento	4.83
41343	7	Sololá	717	San Juan la Laguna	12	San Juan la Laguna	3	Marzo	2023-10-03T00:00:00	2024-11-08T17:00:00	1	Precipitación	0
41344	7	Sololá	717	San Juan la Laguna	12	San Juan la Laguna	3	Marzo	2023-10-03T00:00:00	2024-11-08T17:00:00	8	Radiación solar	102
41345	7	Sololá	717	San Juan la Laguna	12	San Juan la Laguna	3	Marzo	2023-10-03T00:00:00	2024-11-08T18:00:00	2	Temperatura media	18.2
41346	7	Sololá	717	San Juan la Laguna	12	San Juan la Laguna	3	Marzo	2023-10-03T00:00:00	2024-11-08T18:00:00	4	Temperatura máxima	18.9
41347	7	Sololá	717	San Juan la Laguna	12	San Juan la Laguna	3	Marzo	2023-10-03T00:00:00	2024-11-08T18:00:00	3	Temperatura mínima	18.1
41348	7	Sololá	717	San Juan la Laguna	12	San Juan la Laguna	3	Marzo	2023-10-03T00:00:00	2024-11-08T18:00:00	5	Humedad	81
41349	7	Sololá	717	San Juan la Laguna	12	San Juan la Laguna	3	Marzo	2023-10-03T00:00:00	2024-11-08T18:00:00	6	Velocidad del viento	4.8
41350	7	Sololá	717	San Juan la Laguna	12	San Juan la Laguna	3	Marzo	2023-10-03T00:00:00	2024-11-08T18:00:00	7	Dirección del viento	4.83
41351	7	Sololá	717	San Juan la Laguna	12	San Juan la Laguna	3	Marzo	2023-10-03T00:00:00	2024-11-08T18:00:00	1	Precipitación	0
41352	7	Sololá	717	San Juan la Laguna	12	San Juan la Laguna	3	Marzo	2023-10-03T00:00:00	2024-11-08T18:00:00	8	Radiación solar	39
41353	7	Sololá	717	San Juan la Laguna	12	San Juan la Laguna	3	Marzo	2023-10-03T00:00:00	2024-11-08T19:00:00	2	Temperatura media	17
41354	7	Sololá	717	San Juan la Laguna	12	San Juan la Laguna	3	Marzo	2023-10-03T00:00:00	2024-11-08T19:00:00	4	Temperatura máxima	18.2
41355	7	Sololá	717	San Juan la Laguna	12	San Juan la Laguna	3	Marzo	2023-10-03T00:00:00	2024-11-08T19:00:00	3	Temperatura mínima	17
41356	7	Sololá	717	San Juan la Laguna	12	San Juan la Laguna	3	Marzo	2023-10-03T00:00:00	2024-11-08T19:00:00	5	Humedad	84
41357	7	Sololá	717	San Juan la Laguna	12	San Juan la Laguna	3	Marzo	2023-10-03T00:00:00	2024-11-08T19:00:00	6	Velocidad del viento	1.6
41358	7	Sololá	717	San Juan la Laguna	12	San Juan la Laguna	3	Marzo	2023-10-03T00:00:00	2024-11-08T19:00:00	7	Dirección del viento	1.61
41359	7	Sololá	717	San Juan la Laguna	12	San Juan la Laguna	3	Marzo	2023-10-03T00:00:00	2024-11-08T19:00:00	1	Precipitación	0
41360	7	Sololá	717	San Juan la Laguna	12	San Juan la Laguna	3	Marzo	2023-10-03T00:00:00	2024-11-08T19:00:00	8	Radiación solar	0
41361	7	Sololá	717	San Juan la Laguna	12	San Juan la Laguna	3	Marzo	2023-10-03T00:00:00	2024-11-08T20:00:00	2	Temperatura media	16.6
41362	7	Sololá	717	San Juan la Laguna	12	San Juan la Laguna	3	Marzo	2023-10-03T00:00:00	2024-11-08T20:00:00	4	Temperatura máxima	17
41363	7	Sololá	717	San Juan la Laguna	12	San Juan la Laguna	3	Marzo	2023-10-03T00:00:00	2024-11-08T20:00:00	3	Temperatura mínima	16.6
41364	7	Sololá	717	San Juan la Laguna	12	San Juan la Laguna	3	Marzo	2023-10-03T00:00:00	2024-11-08T20:00:00	5	Humedad	84
41365	7	Sololá	717	San Juan la Laguna	12	San Juan la Laguna	3	Marzo	2023-10-03T00:00:00	2024-11-08T20:00:00	6	Velocidad del viento	1.6
41366	7	Sololá	717	San Juan la Laguna	12	San Juan la Laguna	3	Marzo	2023-10-03T00:00:00	2024-11-08T20:00:00	7	Dirección del viento	1.61
41367	7	Sololá	717	San Juan la Laguna	12	San Juan la Laguna	3	Marzo	2023-10-03T00:00:00	2024-11-08T20:00:00	1	Precipitación	0
41368	7	Sololá	717	San Juan la Laguna	12	San Juan la Laguna	3	Marzo	2023-10-03T00:00:00	2024-11-08T20:00:00	8	Radiación solar	0
41369	7	Sololá	717	San Juan la Laguna	12	San Juan la Laguna	3	Marzo	2023-10-03T00:00:00	2024-11-08T21:00:00	2	Temperatura media	16.9
41370	7	Sololá	717	San Juan la Laguna	12	San Juan la Laguna	3	Marzo	2023-10-03T00:00:00	2024-11-08T21:00:00	4	Temperatura máxima	16.9
41371	7	Sololá	717	San Juan la Laguna	12	San Juan la Laguna	3	Marzo	2023-10-03T00:00:00	2024-11-08T21:00:00	3	Temperatura mínima	16.5
41372	7	Sololá	717	San Juan la Laguna	12	San Juan la Laguna	3	Marzo	2023-10-03T00:00:00	2024-11-08T21:00:00	5	Humedad	84
41373	7	Sololá	717	San Juan la Laguna	12	San Juan la Laguna	3	Marzo	2023-10-03T00:00:00	2024-11-08T21:00:00	6	Velocidad del viento	1.6
41374	7	Sololá	717	San Juan la Laguna	12	San Juan la Laguna	3	Marzo	2023-10-03T00:00:00	2024-11-08T21:00:00	7	Dirección del viento	1.61
41375	7	Sololá	717	San Juan la Laguna	12	San Juan la Laguna	3	Marzo	2023-10-03T00:00:00	2024-11-08T21:00:00	1	Precipitación	0
41376	7	Sololá	717	San Juan la Laguna	12	San Juan la Laguna	3	Marzo	2023-10-03T00:00:00	2024-11-08T21:00:00	8	Radiación solar	0
41377	7	Sololá	717	San Juan la Laguna	12	San Juan la Laguna	3	Marzo	2023-10-03T00:00:00	2024-11-08T22:00:00	2	Temperatura media	16.8
41378	7	Sololá	717	San Juan la Laguna	12	San Juan la Laguna	3	Marzo	2023-10-03T00:00:00	2024-11-08T22:00:00	4	Temperatura máxima	17.6
41379	7	Sololá	717	San Juan la Laguna	12	San Juan la Laguna	3	Marzo	2023-10-03T00:00:00	2024-11-08T22:00:00	3	Temperatura mínima	16.8
41380	7	Sololá	717	San Juan la Laguna	12	San Juan la Laguna	3	Marzo	2023-10-03T00:00:00	2024-11-08T22:00:00	5	Humedad	85
41381	7	Sololá	717	San Juan la Laguna	12	San Juan la Laguna	3	Marzo	2023-10-03T00:00:00	2024-11-08T22:00:00	6	Velocidad del viento	0
41382	7	Sololá	717	San Juan la Laguna	12	San Juan la Laguna	3	Marzo	2023-10-03T00:00:00	2024-11-08T22:00:00	7	Dirección del viento	0
41383	7	Sololá	717	San Juan la Laguna	12	San Juan la Laguna	3	Marzo	2023-10-03T00:00:00	2024-11-08T22:00:00	1	Precipitación	0
41384	7	Sololá	717	San Juan la Laguna	12	San Juan la Laguna	3	Marzo	2023-10-03T00:00:00	2024-11-08T22:00:00	8	Radiación solar	0
41385	7	Sololá	717	San Juan la Laguna	12	San Juan la Laguna	3	Marzo	2023-10-03T00:00:00	2024-11-08T23:00:00	2	Temperatura media	16.6
41386	7	Sololá	717	San Juan la Laguna	12	San Juan la Laguna	3	Marzo	2023-10-03T00:00:00	2024-11-08T23:00:00	4	Temperatura máxima	16.9
41387	7	Sololá	717	San Juan la Laguna	12	San Juan la Laguna	3	Marzo	2023-10-03T00:00:00	2024-11-08T23:00:00	3	Temperatura mínima	16.4
41388	7	Sololá	717	San Juan la Laguna	12	San Juan la Laguna	3	Marzo	2023-10-03T00:00:00	2024-11-08T23:00:00	5	Humedad	87
41389	7	Sololá	717	San Juan la Laguna	12	San Juan la Laguna	3	Marzo	2023-10-03T00:00:00	2024-11-08T23:00:00	6	Velocidad del viento	0
41390	7	Sololá	717	San Juan la Laguna	12	San Juan la Laguna	3	Marzo	2023-10-03T00:00:00	2024-11-08T23:00:00	7	Dirección del viento	0
41391	7	Sololá	717	San Juan la Laguna	12	San Juan la Laguna	3	Marzo	2023-10-03T00:00:00	2024-11-08T23:00:00	1	Precipitación	0
41392	7	Sololá	717	San Juan la Laguna	12	San Juan la Laguna	3	Marzo	2023-10-03T00:00:00	2024-11-08T23:00:00	8	Radiación solar	0
41393	7	Sololá	717	San Juan la Laguna	12	San Juan la Laguna	3	Marzo	2023-11-03T00:00:00	2024-11-08T00:00:00	2	Temperatura media	16.8
41394	7	Sololá	717	San Juan la Laguna	12	San Juan la Laguna	3	Marzo	2023-11-03T00:00:00	2024-11-08T00:00:00	4	Temperatura máxima	16.9
41395	7	Sololá	717	San Juan la Laguna	12	San Juan la Laguna	3	Marzo	2023-11-03T00:00:00	2024-11-08T00:00:00	3	Temperatura mínima	16.6
41396	7	Sololá	717	San Juan la Laguna	12	San Juan la Laguna	3	Marzo	2023-11-03T00:00:00	2024-11-08T00:00:00	5	Humedad	87
41397	7	Sololá	717	San Juan la Laguna	12	San Juan la Laguna	3	Marzo	2023-11-03T00:00:00	2024-11-08T00:00:00	6	Velocidad del viento	0
41398	7	Sololá	717	San Juan la Laguna	12	San Juan la Laguna	3	Marzo	2023-11-03T00:00:00	2024-11-08T00:00:00	7	Dirección del viento	0
41399	7	Sololá	717	San Juan la Laguna	12	San Juan la Laguna	3	Marzo	2023-11-03T00:00:00	2024-11-08T00:00:00	1	Precipitación	0
41400	7	Sololá	717	San Juan la Laguna	12	San Juan la Laguna	3	Marzo	2023-11-03T00:00:00	2024-11-08T00:00:00	8	Radiación solar	0
41401	7	Sololá	717	San Juan la Laguna	12	San Juan la Laguna	3	Marzo	2023-11-03T00:00:00	2024-11-08T01:00:00	2	Temperatura media	15.7
41402	7	Sololá	717	San Juan la Laguna	12	San Juan la Laguna	3	Marzo	2023-11-03T00:00:00	2024-11-08T01:00:00	4	Temperatura máxima	16.8
41403	7	Sololá	717	San Juan la Laguna	12	San Juan la Laguna	3	Marzo	2023-11-03T00:00:00	2024-11-08T01:00:00	3	Temperatura mínima	15.7
41404	7	Sololá	717	San Juan la Laguna	12	San Juan la Laguna	3	Marzo	2023-11-03T00:00:00	2024-11-08T01:00:00	5	Humedad	89
41405	7	Sololá	717	San Juan la Laguna	12	San Juan la Laguna	3	Marzo	2023-11-03T00:00:00	2024-11-08T01:00:00	6	Velocidad del viento	0
41406	7	Sololá	717	San Juan la Laguna	12	San Juan la Laguna	3	Marzo	2023-11-03T00:00:00	2024-11-08T01:00:00	7	Dirección del viento	0
41407	7	Sololá	717	San Juan la Laguna	12	San Juan la Laguna	3	Marzo	2023-11-03T00:00:00	2024-11-08T01:00:00	1	Precipitación	0
41408	7	Sololá	717	San Juan la Laguna	12	San Juan la Laguna	3	Marzo	2023-11-03T00:00:00	2024-11-08T01:00:00	8	Radiación solar	0
41409	7	Sololá	717	San Juan la Laguna	12	San Juan la Laguna	3	Marzo	2023-11-03T00:00:00	2024-11-08T02:00:00	2	Temperatura media	15.2
41410	7	Sololá	717	San Juan la Laguna	12	San Juan la Laguna	3	Marzo	2023-11-03T00:00:00	2024-11-08T02:00:00	4	Temperatura máxima	15.7
41411	7	Sololá	717	San Juan la Laguna	12	San Juan la Laguna	3	Marzo	2023-11-03T00:00:00	2024-11-08T02:00:00	3	Temperatura mínima	15.1
41412	7	Sololá	717	San Juan la Laguna	12	San Juan la Laguna	3	Marzo	2023-11-03T00:00:00	2024-11-08T02:00:00	5	Humedad	89
41413	7	Sololá	717	San Juan la Laguna	12	San Juan la Laguna	3	Marzo	2023-11-03T00:00:00	2024-11-08T02:00:00	6	Velocidad del viento	0
41414	7	Sololá	717	San Juan la Laguna	12	San Juan la Laguna	3	Marzo	2023-11-03T00:00:00	2024-11-08T02:00:00	7	Dirección del viento	0
41415	7	Sololá	717	San Juan la Laguna	12	San Juan la Laguna	3	Marzo	2023-11-03T00:00:00	2024-11-08T02:00:00	1	Precipitación	0
41416	7	Sololá	717	San Juan la Laguna	12	San Juan la Laguna	3	Marzo	2023-11-03T00:00:00	2024-11-08T02:00:00	8	Radiación solar	0
41417	7	Sololá	717	San Juan la Laguna	12	San Juan la Laguna	3	Marzo	2023-11-03T00:00:00	2024-11-08T03:00:00	2	Temperatura media	15.4
41418	7	Sololá	717	San Juan la Laguna	12	San Juan la Laguna	3	Marzo	2023-11-03T00:00:00	2024-11-08T03:00:00	4	Temperatura máxima	15.5
41419	7	Sololá	717	San Juan la Laguna	12	San Juan la Laguna	3	Marzo	2023-11-03T00:00:00	2024-11-08T03:00:00	3	Temperatura mínima	15.2
41420	7	Sololá	717	San Juan la Laguna	12	San Juan la Laguna	3	Marzo	2023-11-03T00:00:00	2024-11-08T03:00:00	5	Humedad	85
41421	7	Sololá	717	San Juan la Laguna	12	San Juan la Laguna	3	Marzo	2023-11-03T00:00:00	2024-11-08T03:00:00	6	Velocidad del viento	3.2
41422	7	Sololá	717	San Juan la Laguna	12	San Juan la Laguna	3	Marzo	2023-11-03T00:00:00	2024-11-08T03:00:00	7	Dirección del viento	3.22
41423	7	Sololá	717	San Juan la Laguna	12	San Juan la Laguna	3	Marzo	2023-11-03T00:00:00	2024-11-08T03:00:00	1	Precipitación	0
41424	7	Sololá	717	San Juan la Laguna	12	San Juan la Laguna	3	Marzo	2023-11-03T00:00:00	2024-11-08T03:00:00	8	Radiación solar	0
41425	7	Sololá	717	San Juan la Laguna	12	San Juan la Laguna	3	Marzo	2023-11-03T00:00:00	2024-11-08T04:00:00	2	Temperatura media	14.6
41426	7	Sololá	717	San Juan la Laguna	12	San Juan la Laguna	3	Marzo	2023-11-03T00:00:00	2024-11-08T04:00:00	4	Temperatura máxima	15.4
41427	7	Sololá	717	San Juan la Laguna	12	San Juan la Laguna	3	Marzo	2023-11-03T00:00:00	2024-11-08T04:00:00	3	Temperatura mínima	14.4
41428	7	Sololá	717	San Juan la Laguna	12	San Juan la Laguna	3	Marzo	2023-11-03T00:00:00	2024-11-08T04:00:00	5	Humedad	87
41429	7	Sololá	717	San Juan la Laguna	12	San Juan la Laguna	3	Marzo	2023-11-03T00:00:00	2024-11-08T04:00:00	6	Velocidad del viento	1.6
41430	7	Sololá	717	San Juan la Laguna	12	San Juan la Laguna	3	Marzo	2023-11-03T00:00:00	2024-11-08T04:00:00	7	Dirección del viento	1.61
41431	7	Sololá	717	San Juan la Laguna	12	San Juan la Laguna	3	Marzo	2023-11-03T00:00:00	2024-11-08T04:00:00	1	Precipitación	0
41432	7	Sololá	717	San Juan la Laguna	12	San Juan la Laguna	3	Marzo	2023-11-03T00:00:00	2024-11-08T04:00:00	8	Radiación solar	0
41433	7	Sololá	717	San Juan la Laguna	12	San Juan la Laguna	3	Marzo	2023-11-03T00:00:00	2024-11-08T05:00:00	2	Temperatura media	14.7
41434	7	Sololá	717	San Juan la Laguna	12	San Juan la Laguna	3	Marzo	2023-11-03T00:00:00	2024-11-08T05:00:00	4	Temperatura máxima	14.8
41435	7	Sololá	717	San Juan la Laguna	12	San Juan la Laguna	3	Marzo	2023-11-03T00:00:00	2024-11-08T05:00:00	3	Temperatura mínima	14.5
41436	7	Sololá	717	San Juan la Laguna	12	San Juan la Laguna	3	Marzo	2023-11-03T00:00:00	2024-11-08T05:00:00	5	Humedad	86
41437	7	Sololá	717	San Juan la Laguna	12	San Juan la Laguna	3	Marzo	2023-11-03T00:00:00	2024-11-08T05:00:00	6	Velocidad del viento	1.6
41438	7	Sololá	717	San Juan la Laguna	12	San Juan la Laguna	3	Marzo	2023-11-03T00:00:00	2024-11-08T05:00:00	7	Dirección del viento	1.61
41439	7	Sololá	717	San Juan la Laguna	12	San Juan la Laguna	3	Marzo	2023-11-03T00:00:00	2024-11-08T05:00:00	1	Precipitación	0
41440	7	Sololá	717	San Juan la Laguna	12	San Juan la Laguna	3	Marzo	2023-11-03T00:00:00	2024-11-08T05:00:00	8	Radiación solar	0
41441	7	Sololá	717	San Juan la Laguna	12	San Juan la Laguna	3	Marzo	2023-11-03T00:00:00	2024-11-08T06:00:00	2	Temperatura media	14.4
41442	7	Sololá	717	San Juan la Laguna	12	San Juan la Laguna	3	Marzo	2023-11-03T00:00:00	2024-11-08T06:00:00	4	Temperatura máxima	14.9
41443	7	Sololá	717	San Juan la Laguna	12	San Juan la Laguna	3	Marzo	2023-11-03T00:00:00	2024-11-08T06:00:00	3	Temperatura mínima	14.4
41444	7	Sololá	717	San Juan la Laguna	12	San Juan la Laguna	3	Marzo	2023-11-03T00:00:00	2024-11-08T06:00:00	5	Humedad	87
41445	7	Sololá	717	San Juan la Laguna	12	San Juan la Laguna	3	Marzo	2023-11-03T00:00:00	2024-11-08T06:00:00	6	Velocidad del viento	1.6
41446	7	Sololá	717	San Juan la Laguna	12	San Juan la Laguna	3	Marzo	2023-11-03T00:00:00	2024-11-08T06:00:00	7	Dirección del viento	1.61
41447	7	Sololá	717	San Juan la Laguna	12	San Juan la Laguna	3	Marzo	2023-11-03T00:00:00	2024-11-08T06:00:00	1	Precipitación	0
41448	7	Sololá	717	San Juan la Laguna	12	San Juan la Laguna	3	Marzo	2023-11-03T00:00:00	2024-11-08T06:00:00	8	Radiación solar	0
41449	7	Sololá	717	San Juan la Laguna	12	San Juan la Laguna	3	Marzo	2023-11-03T00:00:00	2024-11-08T07:00:00	2	Temperatura media	15.2
41450	7	Sololá	717	San Juan la Laguna	12	San Juan la Laguna	3	Marzo	2023-11-03T00:00:00	2024-11-08T07:00:00	4	Temperatura máxima	15.2
41451	7	Sololá	717	San Juan la Laguna	12	San Juan la Laguna	3	Marzo	2023-11-03T00:00:00	2024-11-08T07:00:00	3	Temperatura mínima	14.2
41452	7	Sololá	717	San Juan la Laguna	12	San Juan la Laguna	3	Marzo	2023-11-03T00:00:00	2024-11-08T07:00:00	5	Humedad	86
41453	7	Sololá	717	San Juan la Laguna	12	San Juan la Laguna	3	Marzo	2023-11-03T00:00:00	2024-11-08T07:00:00	6	Velocidad del viento	1.6
41454	7	Sololá	717	San Juan la Laguna	12	San Juan la Laguna	3	Marzo	2023-11-03T00:00:00	2024-11-08T07:00:00	7	Dirección del viento	1.61
41455	7	Sololá	717	San Juan la Laguna	12	San Juan la Laguna	3	Marzo	2023-11-03T00:00:00	2024-11-08T07:00:00	1	Precipitación	0
41456	7	Sololá	717	San Juan la Laguna	12	San Juan la Laguna	3	Marzo	2023-11-03T00:00:00	2024-11-08T07:00:00	8	Radiación solar	19
41457	7	Sololá	717	San Juan la Laguna	12	San Juan la Laguna	3	Marzo	2023-11-03T00:00:00	2024-11-08T08:00:00	2	Temperatura media	17.3
41458	7	Sololá	717	San Juan la Laguna	12	San Juan la Laguna	3	Marzo	2023-11-03T00:00:00	2024-11-08T08:00:00	4	Temperatura máxima	17.4
41459	7	Sololá	717	San Juan la Laguna	12	San Juan la Laguna	3	Marzo	2023-11-03T00:00:00	2024-11-08T08:00:00	3	Temperatura mínima	15.2
41460	7	Sololá	717	San Juan la Laguna	12	San Juan la Laguna	3	Marzo	2023-11-03T00:00:00	2024-11-08T08:00:00	5	Humedad	83
41461	7	Sololá	717	San Juan la Laguna	12	San Juan la Laguna	3	Marzo	2023-11-03T00:00:00	2024-11-08T08:00:00	6	Velocidad del viento	0
41462	7	Sololá	717	San Juan la Laguna	12	San Juan la Laguna	3	Marzo	2023-11-03T00:00:00	2024-11-08T08:00:00	7	Dirección del viento	0
41463	7	Sololá	717	San Juan la Laguna	12	San Juan la Laguna	3	Marzo	2023-11-03T00:00:00	2024-11-08T08:00:00	1	Precipitación	0
41464	7	Sololá	717	San Juan la Laguna	12	San Juan la Laguna	3	Marzo	2023-11-03T00:00:00	2024-11-08T08:00:00	8	Radiación solar	108
41465	7	Sololá	717	San Juan la Laguna	12	San Juan la Laguna	3	Marzo	2023-11-03T00:00:00	2024-11-08T09:00:00	2	Temperatura media	17.8
41466	7	Sololá	717	San Juan la Laguna	12	San Juan la Laguna	3	Marzo	2023-11-03T00:00:00	2024-11-08T09:00:00	4	Temperatura máxima	17.9
41467	7	Sololá	717	San Juan la Laguna	12	San Juan la Laguna	3	Marzo	2023-11-03T00:00:00	2024-11-08T09:00:00	3	Temperatura mínima	17.3
41468	7	Sololá	717	San Juan la Laguna	12	San Juan la Laguna	3	Marzo	2023-11-03T00:00:00	2024-11-08T09:00:00	5	Humedad	81
41469	7	Sololá	717	San Juan la Laguna	12	San Juan la Laguna	3	Marzo	2023-11-03T00:00:00	2024-11-08T09:00:00	6	Velocidad del viento	0
41470	7	Sololá	717	San Juan la Laguna	12	San Juan la Laguna	3	Marzo	2023-11-03T00:00:00	2024-11-08T09:00:00	7	Dirección del viento	0
41471	7	Sololá	717	San Juan la Laguna	12	San Juan la Laguna	3	Marzo	2023-11-03T00:00:00	2024-11-08T09:00:00	1	Precipitación	0
41472	7	Sololá	717	San Juan la Laguna	12	San Juan la Laguna	3	Marzo	2023-11-03T00:00:00	2024-11-08T09:00:00	8	Radiación solar	109
41473	7	Sololá	717	San Juan la Laguna	12	San Juan la Laguna	3	Marzo	2023-11-03T00:00:00	2024-11-08T10:00:00	2	Temperatura media	19.8
41474	7	Sololá	717	San Juan la Laguna	12	San Juan la Laguna	3	Marzo	2023-11-03T00:00:00	2024-11-08T10:00:00	4	Temperatura máxima	20.2
41475	7	Sololá	717	San Juan la Laguna	12	San Juan la Laguna	3	Marzo	2023-11-03T00:00:00	2024-11-08T10:00:00	3	Temperatura mínima	17.8
41476	7	Sololá	717	San Juan la Laguna	12	San Juan la Laguna	3	Marzo	2023-11-03T00:00:00	2024-11-08T10:00:00	5	Humedad	75
41477	7	Sololá	717	San Juan la Laguna	12	San Juan la Laguna	3	Marzo	2023-11-03T00:00:00	2024-11-08T10:00:00	6	Velocidad del viento	1.6
41478	7	Sololá	717	San Juan la Laguna	12	San Juan la Laguna	3	Marzo	2023-11-03T00:00:00	2024-11-08T10:00:00	7	Dirección del viento	1.61
41479	7	Sololá	717	San Juan la Laguna	12	San Juan la Laguna	3	Marzo	2023-11-03T00:00:00	2024-11-08T10:00:00	1	Precipitación	0
41480	7	Sololá	717	San Juan la Laguna	12	San Juan la Laguna	3	Marzo	2023-11-03T00:00:00	2024-11-08T10:00:00	8	Radiación solar	465
41481	7	Sololá	717	San Juan la Laguna	12	San Juan la Laguna	3	Marzo	2023-11-03T00:00:00	2024-11-08T11:00:00	2	Temperatura media	20.4
41482	7	Sololá	717	San Juan la Laguna	12	San Juan la Laguna	3	Marzo	2023-11-03T00:00:00	2024-11-08T11:00:00	4	Temperatura máxima	20.8
41483	7	Sololá	717	San Juan la Laguna	12	San Juan la Laguna	3	Marzo	2023-11-03T00:00:00	2024-11-08T11:00:00	3	Temperatura mínima	19
41484	7	Sololá	717	San Juan la Laguna	12	San Juan la Laguna	3	Marzo	2023-11-03T00:00:00	2024-11-08T11:00:00	5	Humedad	73
41485	7	Sololá	717	San Juan la Laguna	12	San Juan la Laguna	3	Marzo	2023-11-03T00:00:00	2024-11-08T11:00:00	6	Velocidad del viento	3.2
41486	7	Sololá	717	San Juan la Laguna	12	San Juan la Laguna	3	Marzo	2023-11-03T00:00:00	2024-11-08T11:00:00	7	Dirección del viento	3.22
41487	7	Sololá	717	San Juan la Laguna	12	San Juan la Laguna	3	Marzo	2023-11-03T00:00:00	2024-11-08T11:00:00	1	Precipitación	0
41488	7	Sololá	717	San Juan la Laguna	12	San Juan la Laguna	3	Marzo	2023-11-03T00:00:00	2024-11-08T11:00:00	8	Radiación solar	501
41489	7	Sololá	717	San Juan la Laguna	12	San Juan la Laguna	3	Marzo	2023-11-03T00:00:00	2024-11-08T12:00:00	2	Temperatura media	20.1
41490	7	Sololá	717	San Juan la Laguna	12	San Juan la Laguna	3	Marzo	2023-11-03T00:00:00	2024-11-08T12:00:00	4	Temperatura máxima	20.8
41491	7	Sololá	717	San Juan la Laguna	12	San Juan la Laguna	3	Marzo	2023-11-03T00:00:00	2024-11-08T12:00:00	3	Temperatura mínima	19.6
41492	7	Sololá	717	San Juan la Laguna	12	San Juan la Laguna	3	Marzo	2023-11-03T00:00:00	2024-11-08T12:00:00	5	Humedad	73
41493	7	Sololá	717	San Juan la Laguna	12	San Juan la Laguna	3	Marzo	2023-11-03T00:00:00	2024-11-08T12:00:00	6	Velocidad del viento	3.2
41494	7	Sololá	717	San Juan la Laguna	12	San Juan la Laguna	3	Marzo	2023-11-03T00:00:00	2024-11-08T12:00:00	7	Dirección del viento	3.22
41495	7	Sololá	717	San Juan la Laguna	12	San Juan la Laguna	3	Marzo	2023-11-03T00:00:00	2024-11-08T12:00:00	1	Precipitación	0
41496	7	Sololá	717	San Juan la Laguna	12	San Juan la Laguna	3	Marzo	2023-11-03T00:00:00	2024-11-08T12:00:00	8	Radiación solar	334
41497	7	Sololá	717	San Juan la Laguna	12	San Juan la Laguna	3	Marzo	2023-11-03T00:00:00	2024-11-08T13:00:00	2	Temperatura media	19.5
41498	7	Sololá	717	San Juan la Laguna	12	San Juan la Laguna	3	Marzo	2023-11-03T00:00:00	2024-11-08T13:00:00	4	Temperatura máxima	21.6
41499	7	Sololá	717	San Juan la Laguna	12	San Juan la Laguna	3	Marzo	2023-11-03T00:00:00	2024-11-08T13:00:00	3	Temperatura mínima	19
41500	7	Sololá	717	San Juan la Laguna	12	San Juan la Laguna	3	Marzo	2023-11-03T00:00:00	2024-11-08T13:00:00	5	Humedad	78
41501	7	Sololá	717	San Juan la Laguna	12	San Juan la Laguna	3	Marzo	2023-11-03T00:00:00	2024-11-08T13:00:00	6	Velocidad del viento	6.4
41502	7	Sololá	717	San Juan la Laguna	12	San Juan la Laguna	3	Marzo	2023-11-03T00:00:00	2024-11-08T13:00:00	7	Dirección del viento	6.44
41503	7	Sololá	717	San Juan la Laguna	12	San Juan la Laguna	3	Marzo	2023-11-03T00:00:00	2024-11-08T13:00:00	1	Precipitación	0
41504	7	Sololá	717	San Juan la Laguna	12	San Juan la Laguna	3	Marzo	2023-11-03T00:00:00	2024-11-08T13:00:00	8	Radiación solar	491
41505	7	Sololá	717	San Juan la Laguna	12	San Juan la Laguna	3	Marzo	2023-11-03T00:00:00	2024-11-08T14:00:00	2	Temperatura media	18.6
41506	7	Sololá	717	San Juan la Laguna	12	San Juan la Laguna	3	Marzo	2023-11-03T00:00:00	2024-11-08T14:00:00	4	Temperatura máxima	19.8
41507	7	Sololá	717	San Juan la Laguna	12	San Juan la Laguna	3	Marzo	2023-11-03T00:00:00	2024-11-08T14:00:00	3	Temperatura mínima	18.6
41508	7	Sololá	717	San Juan la Laguna	12	San Juan la Laguna	3	Marzo	2023-11-03T00:00:00	2024-11-08T14:00:00	5	Humedad	81
41509	7	Sololá	717	San Juan la Laguna	12	San Juan la Laguna	3	Marzo	2023-11-03T00:00:00	2024-11-08T14:00:00	6	Velocidad del viento	8
41510	7	Sololá	717	San Juan la Laguna	12	San Juan la Laguna	3	Marzo	2023-11-03T00:00:00	2024-11-08T14:00:00	7	Dirección del viento	8.05
41511	7	Sololá	717	San Juan la Laguna	12	San Juan la Laguna	3	Marzo	2023-11-03T00:00:00	2024-11-08T14:00:00	1	Precipitación	0
41512	7	Sololá	717	San Juan la Laguna	12	San Juan la Laguna	3	Marzo	2023-11-03T00:00:00	2024-11-08T14:00:00	8	Radiación solar	288
41513	7	Sololá	717	San Juan la Laguna	12	San Juan la Laguna	3	Marzo	2023-11-03T00:00:00	2024-11-08T15:00:00	2	Temperatura media	18.2
41514	7	Sololá	717	San Juan la Laguna	12	San Juan la Laguna	3	Marzo	2023-11-03T00:00:00	2024-11-08T15:00:00	4	Temperatura máxima	18.7
41515	7	Sololá	717	San Juan la Laguna	12	San Juan la Laguna	3	Marzo	2023-11-03T00:00:00	2024-11-08T15:00:00	3	Temperatura mínima	18.2
41516	7	Sololá	717	San Juan la Laguna	12	San Juan la Laguna	3	Marzo	2023-11-03T00:00:00	2024-11-08T15:00:00	5	Humedad	82
41517	7	Sololá	717	San Juan la Laguna	12	San Juan la Laguna	3	Marzo	2023-11-03T00:00:00	2024-11-08T15:00:00	6	Velocidad del viento	6.4
41518	7	Sololá	717	San Juan la Laguna	12	San Juan la Laguna	3	Marzo	2023-11-03T00:00:00	2024-11-08T15:00:00	7	Dirección del viento	6.44
41519	7	Sololá	717	San Juan la Laguna	12	San Juan la Laguna	3	Marzo	2023-11-03T00:00:00	2024-11-08T15:00:00	1	Precipitación	0
41520	7	Sololá	717	San Juan la Laguna	12	San Juan la Laguna	3	Marzo	2023-11-03T00:00:00	2024-11-08T15:00:00	8	Radiación solar	169
41521	7	Sololá	717	San Juan la Laguna	12	San Juan la Laguna	3	Marzo	2023-11-03T00:00:00	2024-11-08T16:00:00	2	Temperatura media	19.7
41522	7	Sololá	717	San Juan la Laguna	12	San Juan la Laguna	3	Marzo	2023-11-03T00:00:00	2024-11-08T16:00:00	4	Temperatura máxima	19.8
41523	7	Sololá	717	San Juan la Laguna	12	San Juan la Laguna	3	Marzo	2023-11-03T00:00:00	2024-11-08T16:00:00	3	Temperatura mínima	18.2
41524	7	Sololá	717	San Juan la Laguna	12	San Juan la Laguna	3	Marzo	2023-11-03T00:00:00	2024-11-08T16:00:00	5	Humedad	76
41525	7	Sololá	717	San Juan la Laguna	12	San Juan la Laguna	3	Marzo	2023-11-03T00:00:00	2024-11-08T16:00:00	6	Velocidad del viento	6.4
41526	7	Sololá	717	San Juan la Laguna	12	San Juan la Laguna	3	Marzo	2023-11-03T00:00:00	2024-11-08T16:00:00	7	Dirección del viento	6.44
41527	7	Sololá	717	San Juan la Laguna	12	San Juan la Laguna	3	Marzo	2023-11-03T00:00:00	2024-11-08T16:00:00	1	Precipitación	0
41528	7	Sololá	717	San Juan la Laguna	12	San Juan la Laguna	3	Marzo	2023-11-03T00:00:00	2024-11-08T16:00:00	8	Radiación solar	292
41529	7	Sololá	717	San Juan la Laguna	12	San Juan la Laguna	3	Marzo	2023-11-03T00:00:00	2024-11-08T17:00:00	2	Temperatura media	19.3
41530	7	Sololá	717	San Juan la Laguna	12	San Juan la Laguna	3	Marzo	2023-11-03T00:00:00	2024-11-08T17:00:00	4	Temperatura máxima	20.1
41531	7	Sololá	717	San Juan la Laguna	12	San Juan la Laguna	3	Marzo	2023-11-03T00:00:00	2024-11-08T17:00:00	3	Temperatura mínima	19.3
41532	7	Sololá	717	San Juan la Laguna	12	San Juan la Laguna	3	Marzo	2023-11-03T00:00:00	2024-11-08T17:00:00	5	Humedad	79
41533	7	Sololá	717	San Juan la Laguna	12	San Juan la Laguna	3	Marzo	2023-11-03T00:00:00	2024-11-08T17:00:00	6	Velocidad del viento	1.6
41534	7	Sololá	717	San Juan la Laguna	12	San Juan la Laguna	3	Marzo	2023-11-03T00:00:00	2024-11-08T17:00:00	7	Dirección del viento	1.61
41535	7	Sololá	717	San Juan la Laguna	12	San Juan la Laguna	3	Marzo	2023-11-03T00:00:00	2024-11-08T17:00:00	1	Precipitación	0
41536	7	Sololá	717	San Juan la Laguna	12	San Juan la Laguna	3	Marzo	2023-11-03T00:00:00	2024-11-08T17:00:00	8	Radiación solar	119
41537	7	Sololá	717	San Juan la Laguna	12	San Juan la Laguna	3	Marzo	2023-11-03T00:00:00	2024-11-08T18:00:00	2	Temperatura media	18.6
41538	7	Sololá	717	San Juan la Laguna	12	San Juan la Laguna	3	Marzo	2023-11-03T00:00:00	2024-11-08T18:00:00	4	Temperatura máxima	19.3
41539	7	Sololá	717	San Juan la Laguna	12	San Juan la Laguna	3	Marzo	2023-11-03T00:00:00	2024-11-08T18:00:00	3	Temperatura mínima	18.6
41540	7	Sololá	717	San Juan la Laguna	12	San Juan la Laguna	3	Marzo	2023-11-03T00:00:00	2024-11-08T18:00:00	5	Humedad	81
41541	7	Sololá	717	San Juan la Laguna	12	San Juan la Laguna	3	Marzo	2023-11-03T00:00:00	2024-11-08T18:00:00	6	Velocidad del viento	0
41542	7	Sololá	717	San Juan la Laguna	12	San Juan la Laguna	3	Marzo	2023-11-03T00:00:00	2024-11-08T18:00:00	7	Dirección del viento	0
41543	7	Sololá	717	San Juan la Laguna	12	San Juan la Laguna	3	Marzo	2023-11-03T00:00:00	2024-11-08T18:00:00	1	Precipitación	0
41544	7	Sololá	717	San Juan la Laguna	12	San Juan la Laguna	3	Marzo	2023-11-03T00:00:00	2024-11-08T18:00:00	8	Radiación solar	36
41545	7	Sololá	717	San Juan la Laguna	12	San Juan la Laguna	3	Marzo	2023-11-03T00:00:00	2024-11-08T19:00:00	2	Temperatura media	18.3
41546	7	Sololá	717	San Juan la Laguna	12	San Juan la Laguna	3	Marzo	2023-11-03T00:00:00	2024-11-08T19:00:00	4	Temperatura máxima	18.6
41547	7	Sololá	717	San Juan la Laguna	12	San Juan la Laguna	3	Marzo	2023-11-03T00:00:00	2024-11-08T19:00:00	3	Temperatura mínima	18.3
41548	7	Sololá	717	San Juan la Laguna	12	San Juan la Laguna	3	Marzo	2023-11-03T00:00:00	2024-11-08T19:00:00	5	Humedad	83
41549	7	Sololá	717	San Juan la Laguna	12	San Juan la Laguna	3	Marzo	2023-11-03T00:00:00	2024-11-08T19:00:00	6	Velocidad del viento	0
41550	7	Sololá	717	San Juan la Laguna	12	San Juan la Laguna	3	Marzo	2023-11-03T00:00:00	2024-11-08T19:00:00	7	Dirección del viento	0
41551	7	Sololá	717	San Juan la Laguna	12	San Juan la Laguna	3	Marzo	2023-11-03T00:00:00	2024-11-08T19:00:00	1	Precipitación	0
41552	7	Sololá	717	San Juan la Laguna	12	San Juan la Laguna	3	Marzo	2023-11-03T00:00:00	2024-11-08T19:00:00	8	Radiación solar	0
41553	7	Sololá	717	San Juan la Laguna	12	San Juan la Laguna	3	Marzo	2023-11-03T00:00:00	2024-11-08T20:00:00	2	Temperatura media	18.1
41554	7	Sololá	717	San Juan la Laguna	12	San Juan la Laguna	3	Marzo	2023-11-03T00:00:00	2024-11-08T20:00:00	4	Temperatura máxima	18.4
41555	7	Sololá	717	San Juan la Laguna	12	San Juan la Laguna	3	Marzo	2023-11-03T00:00:00	2024-11-08T20:00:00	3	Temperatura mínima	18.1
41556	7	Sololá	717	San Juan la Laguna	12	San Juan la Laguna	3	Marzo	2023-11-03T00:00:00	2024-11-08T20:00:00	5	Humedad	84
41557	7	Sololá	717	San Juan la Laguna	12	San Juan la Laguna	3	Marzo	2023-11-03T00:00:00	2024-11-08T20:00:00	6	Velocidad del viento	0
41558	7	Sololá	717	San Juan la Laguna	12	San Juan la Laguna	3	Marzo	2023-11-03T00:00:00	2024-11-08T20:00:00	7	Dirección del viento	0
41559	7	Sololá	717	San Juan la Laguna	12	San Juan la Laguna	3	Marzo	2023-11-03T00:00:00	2024-11-08T20:00:00	1	Precipitación	0
41560	7	Sololá	717	San Juan la Laguna	12	San Juan la Laguna	3	Marzo	2023-11-03T00:00:00	2024-11-08T20:00:00	8	Radiación solar	0
41561	7	Sololá	717	San Juan la Laguna	12	San Juan la Laguna	3	Marzo	2023-11-03T00:00:00	2024-11-08T21:00:00	2	Temperatura media	16.4
41562	7	Sololá	717	San Juan la Laguna	12	San Juan la Laguna	3	Marzo	2023-11-03T00:00:00	2024-11-08T21:00:00	4	Temperatura máxima	18.1
41563	7	Sololá	717	San Juan la Laguna	12	San Juan la Laguna	3	Marzo	2023-11-03T00:00:00	2024-11-08T21:00:00	3	Temperatura mínima	16.4
41564	7	Sololá	717	San Juan la Laguna	12	San Juan la Laguna	3	Marzo	2023-11-03T00:00:00	2024-11-08T21:00:00	5	Humedad	90
41565	7	Sololá	717	San Juan la Laguna	12	San Juan la Laguna	3	Marzo	2023-11-03T00:00:00	2024-11-08T21:00:00	6	Velocidad del viento	3.2
41566	7	Sololá	717	San Juan la Laguna	12	San Juan la Laguna	3	Marzo	2023-11-03T00:00:00	2024-11-08T21:00:00	7	Dirección del viento	3.22
41567	7	Sololá	717	San Juan la Laguna	12	San Juan la Laguna	3	Marzo	2023-11-03T00:00:00	2024-11-08T21:00:00	1	Precipitación	0
41568	7	Sololá	717	San Juan la Laguna	12	San Juan la Laguna	3	Marzo	2023-11-03T00:00:00	2024-11-08T21:00:00	8	Radiación solar	0
41569	7	Sololá	717	San Juan la Laguna	12	San Juan la Laguna	3	Marzo	2023-11-03T00:00:00	2024-11-08T22:00:00	2	Temperatura media	16.4
41570	7	Sololá	717	San Juan la Laguna	12	San Juan la Laguna	3	Marzo	2023-11-03T00:00:00	2024-11-08T22:00:00	4	Temperatura máxima	16.8
41571	7	Sololá	717	San Juan la Laguna	12	San Juan la Laguna	3	Marzo	2023-11-03T00:00:00	2024-11-08T22:00:00	3	Temperatura mínima	16.4
41572	7	Sololá	717	San Juan la Laguna	12	San Juan la Laguna	3	Marzo	2023-11-03T00:00:00	2024-11-08T22:00:00	5	Humedad	89
41573	7	Sololá	717	San Juan la Laguna	12	San Juan la Laguna	3	Marzo	2023-11-03T00:00:00	2024-11-08T22:00:00	6	Velocidad del viento	1.6
41574	7	Sololá	717	San Juan la Laguna	12	San Juan la Laguna	3	Marzo	2023-11-03T00:00:00	2024-11-08T22:00:00	7	Dirección del viento	1.61
41575	7	Sololá	717	San Juan la Laguna	12	San Juan la Laguna	3	Marzo	2023-11-03T00:00:00	2024-11-08T22:00:00	1	Precipitación	0
41576	7	Sololá	717	San Juan la Laguna	12	San Juan la Laguna	3	Marzo	2023-11-03T00:00:00	2024-11-08T22:00:00	8	Radiación solar	0
41577	7	Sololá	717	San Juan la Laguna	12	San Juan la Laguna	3	Marzo	2023-11-03T00:00:00	2024-11-08T23:00:00	2	Temperatura media	16.4
41578	7	Sololá	717	San Juan la Laguna	12	San Juan la Laguna	3	Marzo	2023-11-03T00:00:00	2024-11-08T23:00:00	4	Temperatura máxima	16.5
41579	7	Sololá	717	San Juan la Laguna	12	San Juan la Laguna	3	Marzo	2023-11-03T00:00:00	2024-11-08T23:00:00	3	Temperatura mínima	16.3
41580	7	Sololá	717	San Juan la Laguna	12	San Juan la Laguna	3	Marzo	2023-11-03T00:00:00	2024-11-08T23:00:00	5	Humedad	86
41581	7	Sololá	717	San Juan la Laguna	12	San Juan la Laguna	3	Marzo	2023-11-03T00:00:00	2024-11-08T23:00:00	6	Velocidad del viento	0
41582	7	Sololá	717	San Juan la Laguna	12	San Juan la Laguna	3	Marzo	2023-11-03T00:00:00	2024-11-08T23:00:00	7	Dirección del viento	0
41583	7	Sololá	717	San Juan la Laguna	12	San Juan la Laguna	3	Marzo	2023-11-03T00:00:00	2024-11-08T23:00:00	1	Precipitación	0
41584	7	Sololá	717	San Juan la Laguna	12	San Juan la Laguna	3	Marzo	2023-11-03T00:00:00	2024-11-08T23:00:00	8	Radiación solar	0
41585	7	Sololá	717	San Juan la Laguna	12	San Juan la Laguna	3	Marzo	2023-12-03T00:00:00	2024-11-08T00:00:00	2	Temperatura media	16.4
41586	7	Sololá	717	San Juan la Laguna	12	San Juan la Laguna	3	Marzo	2023-12-03T00:00:00	2024-11-08T00:00:00	4	Temperatura máxima	16.4
41587	7	Sololá	717	San Juan la Laguna	12	San Juan la Laguna	3	Marzo	2023-12-03T00:00:00	2024-11-08T00:00:00	3	Temperatura mínima	16.1
41588	7	Sololá	717	San Juan la Laguna	12	San Juan la Laguna	3	Marzo	2023-12-03T00:00:00	2024-11-08T00:00:00	5	Humedad	86
41589	7	Sololá	717	San Juan la Laguna	12	San Juan la Laguna	3	Marzo	2023-12-03T00:00:00	2024-11-08T00:00:00	6	Velocidad del viento	0
41590	7	Sololá	717	San Juan la Laguna	12	San Juan la Laguna	3	Marzo	2023-12-03T00:00:00	2024-11-08T00:00:00	7	Dirección del viento	0
41591	7	Sololá	717	San Juan la Laguna	12	San Juan la Laguna	3	Marzo	2023-12-03T00:00:00	2024-11-08T00:00:00	1	Precipitación	0
41592	7	Sololá	717	San Juan la Laguna	12	San Juan la Laguna	3	Marzo	2023-12-03T00:00:00	2024-11-08T00:00:00	8	Radiación solar	0
41593	7	Sololá	717	San Juan la Laguna	12	San Juan la Laguna	3	Marzo	2023-12-03T00:00:00	2024-11-08T01:00:00	2	Temperatura media	16.4
41594	7	Sololá	717	San Juan la Laguna	12	San Juan la Laguna	3	Marzo	2023-12-03T00:00:00	2024-11-08T01:00:00	4	Temperatura máxima	16.6
41595	7	Sololá	717	San Juan la Laguna	12	San Juan la Laguna	3	Marzo	2023-12-03T00:00:00	2024-11-08T01:00:00	3	Temperatura mínima	16.3
41596	7	Sololá	717	San Juan la Laguna	12	San Juan la Laguna	3	Marzo	2023-12-03T00:00:00	2024-11-08T01:00:00	5	Humedad	85
41597	7	Sololá	717	San Juan la Laguna	12	San Juan la Laguna	3	Marzo	2023-12-03T00:00:00	2024-11-08T01:00:00	6	Velocidad del viento	0
41598	7	Sololá	717	San Juan la Laguna	12	San Juan la Laguna	3	Marzo	2023-12-03T00:00:00	2024-11-08T01:00:00	7	Dirección del viento	0
41599	7	Sololá	717	San Juan la Laguna	12	San Juan la Laguna	3	Marzo	2023-12-03T00:00:00	2024-11-08T01:00:00	1	Precipitación	0
41600	7	Sololá	717	San Juan la Laguna	12	San Juan la Laguna	3	Marzo	2023-12-03T00:00:00	2024-11-08T01:00:00	8	Radiación solar	0
41601	7	Sololá	717	San Juan la Laguna	12	San Juan la Laguna	3	Marzo	2023-12-03T00:00:00	2024-11-08T02:00:00	2	Temperatura media	16.2
41602	7	Sololá	717	San Juan la Laguna	12	San Juan la Laguna	3	Marzo	2023-12-03T00:00:00	2024-11-08T02:00:00	4	Temperatura máxima	16.5
41603	7	Sololá	717	San Juan la Laguna	12	San Juan la Laguna	3	Marzo	2023-12-03T00:00:00	2024-11-08T02:00:00	3	Temperatura mínima	16.2
41604	7	Sololá	717	San Juan la Laguna	12	San Juan la Laguna	3	Marzo	2023-12-03T00:00:00	2024-11-08T02:00:00	5	Humedad	87
41605	7	Sololá	717	San Juan la Laguna	12	San Juan la Laguna	3	Marzo	2023-12-03T00:00:00	2024-11-08T02:00:00	6	Velocidad del viento	0
41606	7	Sololá	717	San Juan la Laguna	12	San Juan la Laguna	3	Marzo	2023-12-03T00:00:00	2024-11-08T02:00:00	7	Dirección del viento	0
41607	7	Sololá	717	San Juan la Laguna	12	San Juan la Laguna	3	Marzo	2023-12-03T00:00:00	2024-11-08T02:00:00	1	Precipitación	0
41608	7	Sololá	717	San Juan la Laguna	12	San Juan la Laguna	3	Marzo	2023-12-03T00:00:00	2024-11-08T02:00:00	8	Radiación solar	0
41609	7	Sololá	717	San Juan la Laguna	12	San Juan la Laguna	3	Marzo	2023-12-03T00:00:00	2024-11-08T03:00:00	2	Temperatura media	16.3
41610	7	Sololá	717	San Juan la Laguna	12	San Juan la Laguna	3	Marzo	2023-12-03T00:00:00	2024-11-08T03:00:00	4	Temperatura máxima	16.3
41611	7	Sololá	717	San Juan la Laguna	12	San Juan la Laguna	3	Marzo	2023-12-03T00:00:00	2024-11-08T03:00:00	3	Temperatura mínima	16.1
41612	7	Sololá	717	San Juan la Laguna	12	San Juan la Laguna	3	Marzo	2023-12-03T00:00:00	2024-11-08T03:00:00	5	Humedad	86
41613	7	Sololá	717	San Juan la Laguna	12	San Juan la Laguna	3	Marzo	2023-12-03T00:00:00	2024-11-08T03:00:00	6	Velocidad del viento	0
41614	7	Sololá	717	San Juan la Laguna	12	San Juan la Laguna	3	Marzo	2023-12-03T00:00:00	2024-11-08T03:00:00	7	Dirección del viento	0
41615	7	Sololá	717	San Juan la Laguna	12	San Juan la Laguna	3	Marzo	2023-12-03T00:00:00	2024-11-08T03:00:00	1	Precipitación	0
41616	7	Sololá	717	San Juan la Laguna	12	San Juan la Laguna	3	Marzo	2023-12-03T00:00:00	2024-11-08T03:00:00	8	Radiación solar	0
41617	7	Sololá	717	San Juan la Laguna	12	San Juan la Laguna	3	Marzo	2023-12-03T00:00:00	2024-11-08T04:00:00	2	Temperatura media	16.5
41618	7	Sololá	717	San Juan la Laguna	12	San Juan la Laguna	3	Marzo	2023-12-03T00:00:00	2024-11-08T04:00:00	4	Temperatura máxima	16.6
41619	7	Sololá	717	San Juan la Laguna	12	San Juan la Laguna	3	Marzo	2023-12-03T00:00:00	2024-11-08T04:00:00	3	Temperatura mínima	16.3
41620	7	Sololá	717	San Juan la Laguna	12	San Juan la Laguna	3	Marzo	2023-12-03T00:00:00	2024-11-08T04:00:00	5	Humedad	87
41621	7	Sololá	717	San Juan la Laguna	12	San Juan la Laguna	3	Marzo	2023-12-03T00:00:00	2024-11-08T04:00:00	6	Velocidad del viento	0
41622	7	Sololá	717	San Juan la Laguna	12	San Juan la Laguna	3	Marzo	2023-12-03T00:00:00	2024-11-08T04:00:00	7	Dirección del viento	0
41623	7	Sololá	717	San Juan la Laguna	12	San Juan la Laguna	3	Marzo	2023-12-03T00:00:00	2024-11-08T04:00:00	1	Precipitación	0
41624	7	Sololá	717	San Juan la Laguna	12	San Juan la Laguna	3	Marzo	2023-12-03T00:00:00	2024-11-08T04:00:00	8	Radiación solar	0
41625	7	Sololá	717	San Juan la Laguna	12	San Juan la Laguna	3	Marzo	2023-12-03T00:00:00	2024-11-08T05:00:00	2	Temperatura media	16.4
41626	7	Sololá	717	San Juan la Laguna	12	San Juan la Laguna	3	Marzo	2023-12-03T00:00:00	2024-11-08T05:00:00	4	Temperatura máxima	16.5
41627	7	Sololá	717	San Juan la Laguna	12	San Juan la Laguna	3	Marzo	2023-12-03T00:00:00	2024-11-08T05:00:00	3	Temperatura mínima	16.4
41628	7	Sololá	717	San Juan la Laguna	12	San Juan la Laguna	3	Marzo	2023-12-03T00:00:00	2024-11-08T05:00:00	5	Humedad	87
41629	7	Sololá	717	San Juan la Laguna	12	San Juan la Laguna	3	Marzo	2023-12-03T00:00:00	2024-11-08T05:00:00	6	Velocidad del viento	0
41630	7	Sololá	717	San Juan la Laguna	12	San Juan la Laguna	3	Marzo	2023-12-03T00:00:00	2024-11-08T05:00:00	7	Dirección del viento	0
41631	7	Sololá	717	San Juan la Laguna	12	San Juan la Laguna	3	Marzo	2023-12-03T00:00:00	2024-11-08T05:00:00	1	Precipitación	0
41632	7	Sololá	717	San Juan la Laguna	12	San Juan la Laguna	3	Marzo	2023-12-03T00:00:00	2024-11-08T05:00:00	8	Radiación solar	0
41633	7	Sololá	717	San Juan la Laguna	12	San Juan la Laguna	3	Marzo	2023-12-03T00:00:00	2024-11-08T06:00:00	2	Temperatura media	16.3
41634	7	Sololá	717	San Juan la Laguna	12	San Juan la Laguna	3	Marzo	2023-12-03T00:00:00	2024-11-08T06:00:00	4	Temperatura máxima	16.7
41635	7	Sololá	717	San Juan la Laguna	12	San Juan la Laguna	3	Marzo	2023-12-03T00:00:00	2024-11-08T06:00:00	3	Temperatura mínima	16.3
41636	7	Sololá	717	San Juan la Laguna	12	San Juan la Laguna	3	Marzo	2023-12-03T00:00:00	2024-11-08T06:00:00	5	Humedad	85
41637	7	Sololá	717	San Juan la Laguna	12	San Juan la Laguna	3	Marzo	2023-12-03T00:00:00	2024-11-08T06:00:00	6	Velocidad del viento	6.4
41638	7	Sololá	717	San Juan la Laguna	12	San Juan la Laguna	3	Marzo	2023-12-03T00:00:00	2024-11-08T06:00:00	7	Dirección del viento	6.44
41639	7	Sololá	717	San Juan la Laguna	12	San Juan la Laguna	3	Marzo	2023-12-03T00:00:00	2024-11-08T06:00:00	1	Precipitación	0
41640	7	Sololá	717	San Juan la Laguna	12	San Juan la Laguna	3	Marzo	2023-12-03T00:00:00	2024-11-08T06:00:00	8	Radiación solar	0
41641	7	Sololá	717	San Juan la Laguna	12	San Juan la Laguna	3	Marzo	2023-12-03T00:00:00	2024-11-08T07:00:00	2	Temperatura media	16.7
41642	7	Sololá	717	San Juan la Laguna	12	San Juan la Laguna	3	Marzo	2023-12-03T00:00:00	2024-11-08T07:00:00	4	Temperatura máxima	16.7
41643	7	Sololá	717	San Juan la Laguna	12	San Juan la Laguna	3	Marzo	2023-12-03T00:00:00	2024-11-08T07:00:00	3	Temperatura mínima	16.3
41644	7	Sololá	717	San Juan la Laguna	12	San Juan la Laguna	3	Marzo	2023-12-03T00:00:00	2024-11-08T07:00:00	5	Humedad	81
41645	7	Sololá	717	San Juan la Laguna	12	San Juan la Laguna	3	Marzo	2023-12-03T00:00:00	2024-11-08T07:00:00	6	Velocidad del viento	4.8
41646	7	Sololá	717	San Juan la Laguna	12	San Juan la Laguna	3	Marzo	2023-12-03T00:00:00	2024-11-08T07:00:00	7	Dirección del viento	4.83
41647	7	Sololá	717	San Juan la Laguna	12	San Juan la Laguna	3	Marzo	2023-12-03T00:00:00	2024-11-08T07:00:00	1	Precipitación	0
41648	7	Sololá	717	San Juan la Laguna	12	San Juan la Laguna	3	Marzo	2023-12-03T00:00:00	2024-11-08T07:00:00	8	Radiación solar	8
41649	7	Sololá	717	San Juan la Laguna	12	San Juan la Laguna	3	Marzo	2023-12-03T00:00:00	2024-11-08T08:00:00	2	Temperatura media	17.1
41650	7	Sololá	717	San Juan la Laguna	12	San Juan la Laguna	3	Marzo	2023-12-03T00:00:00	2024-11-08T08:00:00	4	Temperatura máxima	17.1
41651	7	Sololá	717	San Juan la Laguna	12	San Juan la Laguna	3	Marzo	2023-12-03T00:00:00	2024-11-08T08:00:00	3	Temperatura mínima	16.7
41652	7	Sololá	717	San Juan la Laguna	12	San Juan la Laguna	3	Marzo	2023-12-03T00:00:00	2024-11-08T08:00:00	5	Humedad	82
41653	7	Sololá	717	San Juan la Laguna	12	San Juan la Laguna	3	Marzo	2023-12-03T00:00:00	2024-11-08T08:00:00	6	Velocidad del viento	4.8
41654	7	Sololá	717	San Juan la Laguna	12	San Juan la Laguna	3	Marzo	2023-12-03T00:00:00	2024-11-08T08:00:00	7	Dirección del viento	4.83
41655	7	Sololá	717	San Juan la Laguna	12	San Juan la Laguna	3	Marzo	2023-12-03T00:00:00	2024-11-08T08:00:00	1	Precipitación	0
41656	7	Sololá	717	San Juan la Laguna	12	San Juan la Laguna	3	Marzo	2023-12-03T00:00:00	2024-11-08T08:00:00	8	Radiación solar	39
41657	7	Sololá	717	San Juan la Laguna	12	San Juan la Laguna	3	Marzo	2023-12-03T00:00:00	2024-11-08T09:00:00	2	Temperatura media	17.5
41658	7	Sololá	717	San Juan la Laguna	12	San Juan la Laguna	3	Marzo	2023-12-03T00:00:00	2024-11-08T09:00:00	4	Temperatura máxima	17.5
41659	7	Sololá	717	San Juan la Laguna	12	San Juan la Laguna	3	Marzo	2023-12-03T00:00:00	2024-11-08T09:00:00	3	Temperatura mínima	17.1
41660	7	Sololá	717	San Juan la Laguna	12	San Juan la Laguna	3	Marzo	2023-12-03T00:00:00	2024-11-08T09:00:00	5	Humedad	79
41661	7	Sololá	717	San Juan la Laguna	12	San Juan la Laguna	3	Marzo	2023-12-03T00:00:00	2024-11-08T09:00:00	6	Velocidad del viento	4.8
41662	7	Sololá	717	San Juan la Laguna	12	San Juan la Laguna	3	Marzo	2023-12-03T00:00:00	2024-11-08T09:00:00	7	Dirección del viento	4.83
41663	7	Sololá	717	San Juan la Laguna	12	San Juan la Laguna	3	Marzo	2023-12-03T00:00:00	2024-11-08T09:00:00	1	Precipitación	0
41664	7	Sololá	717	San Juan la Laguna	12	San Juan la Laguna	3	Marzo	2023-12-03T00:00:00	2024-11-08T09:00:00	8	Radiación solar	84
41665	7	Sololá	717	San Juan la Laguna	12	San Juan la Laguna	3	Marzo	2023-12-03T00:00:00	2024-11-08T10:00:00	2	Temperatura media	18.9
41666	7	Sololá	717	San Juan la Laguna	12	San Juan la Laguna	3	Marzo	2023-12-03T00:00:00	2024-11-08T10:00:00	4	Temperatura máxima	18.9
41667	7	Sololá	717	San Juan la Laguna	12	San Juan la Laguna	3	Marzo	2023-12-03T00:00:00	2024-11-08T10:00:00	3	Temperatura mínima	17.5
41668	7	Sololá	717	San Juan la Laguna	12	San Juan la Laguna	3	Marzo	2023-12-03T00:00:00	2024-11-08T10:00:00	5	Humedad	76
41669	7	Sololá	717	San Juan la Laguna	12	San Juan la Laguna	3	Marzo	2023-12-03T00:00:00	2024-11-08T10:00:00	6	Velocidad del viento	3.2
41670	7	Sololá	717	San Juan la Laguna	12	San Juan la Laguna	3	Marzo	2023-12-03T00:00:00	2024-11-08T10:00:00	7	Dirección del viento	3.22
41671	7	Sololá	717	San Juan la Laguna	12	San Juan la Laguna	3	Marzo	2023-12-03T00:00:00	2024-11-08T10:00:00	1	Precipitación	0
41672	7	Sololá	717	San Juan la Laguna	12	San Juan la Laguna	3	Marzo	2023-12-03T00:00:00	2024-11-08T10:00:00	8	Radiación solar	174
41673	7	Sololá	717	San Juan la Laguna	12	San Juan la Laguna	3	Marzo	2023-12-03T00:00:00	2024-11-08T11:00:00	2	Temperatura media	20.4
41674	7	Sololá	717	San Juan la Laguna	12	San Juan la Laguna	3	Marzo	2023-12-03T00:00:00	2024-11-08T11:00:00	4	Temperatura máxima	20.4
41675	7	Sololá	717	San Juan la Laguna	12	San Juan la Laguna	3	Marzo	2023-12-03T00:00:00	2024-11-08T11:00:00	3	Temperatura mínima	18.9
41676	7	Sololá	717	San Juan la Laguna	12	San Juan la Laguna	3	Marzo	2023-12-03T00:00:00	2024-11-08T11:00:00	5	Humedad	72
41677	7	Sololá	717	San Juan la Laguna	12	San Juan la Laguna	3	Marzo	2023-12-03T00:00:00	2024-11-08T11:00:00	6	Velocidad del viento	1.6
41678	7	Sololá	717	San Juan la Laguna	12	San Juan la Laguna	3	Marzo	2023-12-03T00:00:00	2024-11-08T11:00:00	7	Dirección del viento	1.61
41679	7	Sololá	717	San Juan la Laguna	12	San Juan la Laguna	3	Marzo	2023-12-03T00:00:00	2024-11-08T11:00:00	1	Precipitación	0
41680	7	Sololá	717	San Juan la Laguna	12	San Juan la Laguna	3	Marzo	2023-12-03T00:00:00	2024-11-08T11:00:00	8	Radiación solar	359
41681	7	Sololá	717	San Juan la Laguna	12	San Juan la Laguna	3	Marzo	2023-12-03T00:00:00	2024-11-08T12:00:00	2	Temperatura media	20.2
41682	7	Sololá	717	San Juan la Laguna	12	San Juan la Laguna	3	Marzo	2023-12-03T00:00:00	2024-11-08T12:00:00	4	Temperatura máxima	20.6
41683	7	Sololá	717	San Juan la Laguna	12	San Juan la Laguna	3	Marzo	2023-12-03T00:00:00	2024-11-08T12:00:00	3	Temperatura mínima	19.8
41684	7	Sololá	717	San Juan la Laguna	12	San Juan la Laguna	3	Marzo	2023-12-03T00:00:00	2024-11-08T12:00:00	5	Humedad	71
41685	7	Sololá	717	San Juan la Laguna	12	San Juan la Laguna	3	Marzo	2023-12-03T00:00:00	2024-11-08T12:00:00	6	Velocidad del viento	6.4
41686	7	Sololá	717	San Juan la Laguna	12	San Juan la Laguna	3	Marzo	2023-12-03T00:00:00	2024-11-08T12:00:00	7	Dirección del viento	6.44
41687	7	Sololá	717	San Juan la Laguna	12	San Juan la Laguna	3	Marzo	2023-12-03T00:00:00	2024-11-08T12:00:00	1	Precipitación	0
41688	7	Sololá	717	San Juan la Laguna	12	San Juan la Laguna	3	Marzo	2023-12-03T00:00:00	2024-11-08T12:00:00	8	Radiación solar	462
41689	7	Sololá	717	San Juan la Laguna	12	San Juan la Laguna	3	Marzo	2023-12-03T00:00:00	2024-11-08T13:00:00	2	Temperatura media	19.7
41690	7	Sololá	717	San Juan la Laguna	12	San Juan la Laguna	3	Marzo	2023-12-03T00:00:00	2024-11-08T13:00:00	4	Temperatura máxima	20.3
41691	7	Sololá	717	San Juan la Laguna	12	San Juan la Laguna	3	Marzo	2023-12-03T00:00:00	2024-11-08T13:00:00	3	Temperatura mínima	19.7
41692	7	Sololá	717	San Juan la Laguna	12	San Juan la Laguna	3	Marzo	2023-12-03T00:00:00	2024-11-08T13:00:00	5	Humedad	73
41693	7	Sololá	717	San Juan la Laguna	12	San Juan la Laguna	3	Marzo	2023-12-03T00:00:00	2024-11-08T13:00:00	6	Velocidad del viento	8
41694	7	Sololá	717	San Juan la Laguna	12	San Juan la Laguna	3	Marzo	2023-12-03T00:00:00	2024-11-08T13:00:00	7	Dirección del viento	8.05
41695	7	Sololá	717	San Juan la Laguna	12	San Juan la Laguna	3	Marzo	2023-12-03T00:00:00	2024-11-08T13:00:00	1	Precipitación	0
41696	7	Sololá	717	San Juan la Laguna	12	San Juan la Laguna	3	Marzo	2023-12-03T00:00:00	2024-11-08T13:00:00	8	Radiación solar	269
41697	7	Sololá	717	San Juan la Laguna	12	San Juan la Laguna	3	Marzo	2023-12-03T00:00:00	2024-11-08T14:00:00	2	Temperatura media	19.8
41698	7	Sololá	717	San Juan la Laguna	12	San Juan la Laguna	3	Marzo	2023-12-03T00:00:00	2024-11-08T14:00:00	4	Temperatura máxima	19.9
41699	7	Sololá	717	San Juan la Laguna	12	San Juan la Laguna	3	Marzo	2023-12-03T00:00:00	2024-11-08T14:00:00	3	Temperatura mínima	19
41700	7	Sololá	717	San Juan la Laguna	12	San Juan la Laguna	3	Marzo	2023-12-03T00:00:00	2024-11-08T14:00:00	5	Humedad	74
41701	7	Sololá	717	San Juan la Laguna	12	San Juan la Laguna	3	Marzo	2023-12-03T00:00:00	2024-11-08T14:00:00	6	Velocidad del viento	8
41702	7	Sololá	717	San Juan la Laguna	12	San Juan la Laguna	3	Marzo	2023-12-03T00:00:00	2024-11-08T14:00:00	7	Dirección del viento	8.05
41703	7	Sololá	717	San Juan la Laguna	12	San Juan la Laguna	3	Marzo	2023-12-03T00:00:00	2024-11-08T14:00:00	1	Precipitación	0
41704	7	Sololá	717	San Juan la Laguna	12	San Juan la Laguna	3	Marzo	2023-12-03T00:00:00	2024-11-08T14:00:00	8	Radiación solar	227
41705	7	Sololá	717	San Juan la Laguna	12	San Juan la Laguna	3	Marzo	2023-12-03T00:00:00	2024-11-08T15:00:00	2	Temperatura media	18.7
41706	7	Sololá	717	San Juan la Laguna	12	San Juan la Laguna	3	Marzo	2023-12-03T00:00:00	2024-11-08T15:00:00	4	Temperatura máxima	20
41707	7	Sololá	717	San Juan la Laguna	12	San Juan la Laguna	3	Marzo	2023-12-03T00:00:00	2024-11-08T15:00:00	3	Temperatura mínima	18.7
41708	7	Sololá	717	San Juan la Laguna	12	San Juan la Laguna	3	Marzo	2023-12-03T00:00:00	2024-11-08T15:00:00	5	Humedad	78
41709	7	Sololá	717	San Juan la Laguna	12	San Juan la Laguna	3	Marzo	2023-12-03T00:00:00	2024-11-08T15:00:00	6	Velocidad del viento	8
41710	7	Sololá	717	San Juan la Laguna	12	San Juan la Laguna	3	Marzo	2023-12-03T00:00:00	2024-11-08T15:00:00	7	Dirección del viento	8.05
41711	7	Sololá	717	San Juan la Laguna	12	San Juan la Laguna	3	Marzo	2023-12-03T00:00:00	2024-11-08T15:00:00	1	Precipitación	0
41712	7	Sololá	717	San Juan la Laguna	12	San Juan la Laguna	3	Marzo	2023-12-03T00:00:00	2024-11-08T15:00:00	8	Radiación solar	121
41713	7	Sololá	717	San Juan la Laguna	12	San Juan la Laguna	3	Marzo	2023-12-03T00:00:00	2024-11-08T16:00:00	2	Temperatura media	18.1
41714	7	Sololá	717	San Juan la Laguna	12	San Juan la Laguna	3	Marzo	2023-12-03T00:00:00	2024-11-08T16:00:00	4	Temperatura máxima	18.7
41715	7	Sololá	717	San Juan la Laguna	12	San Juan la Laguna	3	Marzo	2023-12-03T00:00:00	2024-11-08T16:00:00	3	Temperatura mínima	17.9
41716	7	Sololá	717	San Juan la Laguna	12	San Juan la Laguna	3	Marzo	2023-12-03T00:00:00	2024-11-08T16:00:00	5	Humedad	83
41717	7	Sololá	717	San Juan la Laguna	12	San Juan la Laguna	3	Marzo	2023-12-03T00:00:00	2024-11-08T16:00:00	6	Velocidad del viento	4.8
41718	7	Sololá	717	San Juan la Laguna	12	San Juan la Laguna	3	Marzo	2023-12-03T00:00:00	2024-11-08T16:00:00	7	Dirección del viento	4.83
41719	7	Sololá	717	San Juan la Laguna	12	San Juan la Laguna	3	Marzo	2023-12-03T00:00:00	2024-11-08T16:00:00	1	Precipitación	0
41720	7	Sololá	717	San Juan la Laguna	12	San Juan la Laguna	3	Marzo	2023-12-03T00:00:00	2024-11-08T16:00:00	8	Radiación solar	50
41721	7	Sololá	717	San Juan la Laguna	12	San Juan la Laguna	3	Marzo	2023-12-03T00:00:00	2024-11-08T17:00:00	2	Temperatura media	18.2
41722	7	Sololá	717	San Juan la Laguna	12	San Juan la Laguna	3	Marzo	2023-12-03T00:00:00	2024-11-08T17:00:00	4	Temperatura máxima	18.4
41723	7	Sololá	717	San Juan la Laguna	12	San Juan la Laguna	3	Marzo	2023-12-03T00:00:00	2024-11-08T17:00:00	3	Temperatura mínima	18
41724	7	Sololá	717	San Juan la Laguna	12	San Juan la Laguna	3	Marzo	2023-12-03T00:00:00	2024-11-08T17:00:00	5	Humedad	83
41725	7	Sololá	717	San Juan la Laguna	12	San Juan la Laguna	3	Marzo	2023-12-03T00:00:00	2024-11-08T17:00:00	6	Velocidad del viento	3.2
41726	7	Sololá	717	San Juan la Laguna	12	San Juan la Laguna	3	Marzo	2023-12-03T00:00:00	2024-11-08T17:00:00	7	Dirección del viento	3.22
41727	7	Sololá	717	San Juan la Laguna	12	San Juan la Laguna	3	Marzo	2023-12-03T00:00:00	2024-11-08T17:00:00	1	Precipitación	0
41728	7	Sololá	717	San Juan la Laguna	12	San Juan la Laguna	3	Marzo	2023-12-03T00:00:00	2024-11-08T17:00:00	8	Radiación solar	38
41729	7	Sololá	717	San Juan la Laguna	12	San Juan la Laguna	3	Marzo	2023-12-03T00:00:00	2024-11-08T18:00:00	2	Temperatura media	17.9
41730	7	Sololá	717	San Juan la Laguna	12	San Juan la Laguna	3	Marzo	2023-12-03T00:00:00	2024-11-08T18:00:00	4	Temperatura máxima	18.2
41731	7	Sololá	717	San Juan la Laguna	12	San Juan la Laguna	3	Marzo	2023-12-03T00:00:00	2024-11-08T18:00:00	3	Temperatura mínima	17.9
41732	7	Sololá	717	San Juan la Laguna	12	San Juan la Laguna	3	Marzo	2023-12-03T00:00:00	2024-11-08T18:00:00	5	Humedad	85
41733	7	Sololá	717	San Juan la Laguna	12	San Juan la Laguna	3	Marzo	2023-12-03T00:00:00	2024-11-08T18:00:00	6	Velocidad del viento	0
41734	7	Sololá	717	San Juan la Laguna	12	San Juan la Laguna	3	Marzo	2023-12-03T00:00:00	2024-11-08T18:00:00	7	Dirección del viento	0
41735	7	Sololá	717	San Juan la Laguna	12	San Juan la Laguna	3	Marzo	2023-12-03T00:00:00	2024-11-08T18:00:00	1	Precipitación	0
41736	7	Sololá	717	San Juan la Laguna	12	San Juan la Laguna	3	Marzo	2023-12-03T00:00:00	2024-11-08T18:00:00	8	Radiación solar	18
41737	7	Sololá	717	San Juan la Laguna	12	San Juan la Laguna	3	Marzo	2023-12-03T00:00:00	2024-11-08T19:00:00	2	Temperatura media	17.8
41738	7	Sololá	717	San Juan la Laguna	12	San Juan la Laguna	3	Marzo	2023-12-03T00:00:00	2024-11-08T19:00:00	4	Temperatura máxima	18
41739	7	Sololá	717	San Juan la Laguna	12	San Juan la Laguna	3	Marzo	2023-12-03T00:00:00	2024-11-08T19:00:00	3	Temperatura mínima	17.7
41740	7	Sololá	717	San Juan la Laguna	12	San Juan la Laguna	3	Marzo	2023-12-03T00:00:00	2024-11-08T19:00:00	5	Humedad	86
41741	7	Sololá	717	San Juan la Laguna	12	San Juan la Laguna	3	Marzo	2023-12-03T00:00:00	2024-11-08T19:00:00	6	Velocidad del viento	0
41742	7	Sololá	717	San Juan la Laguna	12	San Juan la Laguna	3	Marzo	2023-12-03T00:00:00	2024-11-08T19:00:00	7	Dirección del viento	0
41743	7	Sololá	717	San Juan la Laguna	12	San Juan la Laguna	3	Marzo	2023-12-03T00:00:00	2024-11-08T19:00:00	1	Precipitación	0
41744	7	Sololá	717	San Juan la Laguna	12	San Juan la Laguna	3	Marzo	2023-12-03T00:00:00	2024-11-08T19:00:00	8	Radiación solar	0
41745	7	Sololá	717	San Juan la Laguna	12	San Juan la Laguna	3	Marzo	2023-12-03T00:00:00	2024-11-08T20:00:00	2	Temperatura media	17.6
41746	7	Sololá	717	San Juan la Laguna	12	San Juan la Laguna	3	Marzo	2023-12-03T00:00:00	2024-11-08T20:00:00	4	Temperatura máxima	17.8
41747	7	Sololá	717	San Juan la Laguna	12	San Juan la Laguna	3	Marzo	2023-12-03T00:00:00	2024-11-08T20:00:00	3	Temperatura mínima	17.6
41748	7	Sololá	717	San Juan la Laguna	12	San Juan la Laguna	3	Marzo	2023-12-03T00:00:00	2024-11-08T20:00:00	5	Humedad	87
41749	7	Sololá	717	San Juan la Laguna	12	San Juan la Laguna	3	Marzo	2023-12-03T00:00:00	2024-11-08T20:00:00	6	Velocidad del viento	3.2
41750	7	Sololá	717	San Juan la Laguna	12	San Juan la Laguna	3	Marzo	2023-12-03T00:00:00	2024-11-08T20:00:00	7	Dirección del viento	3.22
41751	7	Sololá	717	San Juan la Laguna	12	San Juan la Laguna	3	Marzo	2023-12-03T00:00:00	2024-11-08T20:00:00	1	Precipitación	0
41752	7	Sololá	717	San Juan la Laguna	12	San Juan la Laguna	3	Marzo	2023-12-03T00:00:00	2024-11-08T20:00:00	8	Radiación solar	0
41753	7	Sololá	717	San Juan la Laguna	12	San Juan la Laguna	3	Marzo	2023-12-03T00:00:00	2024-11-08T21:00:00	2	Temperatura media	16.9
41754	7	Sololá	717	San Juan la Laguna	12	San Juan la Laguna	3	Marzo	2023-12-03T00:00:00	2024-11-08T21:00:00	4	Temperatura máxima	17.6
41755	7	Sololá	717	San Juan la Laguna	12	San Juan la Laguna	3	Marzo	2023-12-03T00:00:00	2024-11-08T21:00:00	3	Temperatura mínima	16.9
41756	7	Sololá	717	San Juan la Laguna	12	San Juan la Laguna	3	Marzo	2023-12-03T00:00:00	2024-11-08T21:00:00	5	Humedad	89
41757	7	Sololá	717	San Juan la Laguna	12	San Juan la Laguna	3	Marzo	2023-12-03T00:00:00	2024-11-08T21:00:00	6	Velocidad del viento	3.2
41758	7	Sololá	717	San Juan la Laguna	12	San Juan la Laguna	3	Marzo	2023-12-03T00:00:00	2024-11-08T21:00:00	7	Dirección del viento	3.22
41759	7	Sololá	717	San Juan la Laguna	12	San Juan la Laguna	3	Marzo	2023-12-03T00:00:00	2024-11-08T21:00:00	1	Precipitación	0
41760	7	Sololá	717	San Juan la Laguna	12	San Juan la Laguna	3	Marzo	2023-12-03T00:00:00	2024-11-08T21:00:00	8	Radiación solar	0
41761	7	Sololá	717	San Juan la Laguna	12	San Juan la Laguna	3	Marzo	2023-12-03T00:00:00	2024-11-08T22:00:00	2	Temperatura media	16.9
41762	7	Sololá	717	San Juan la Laguna	12	San Juan la Laguna	3	Marzo	2023-12-03T00:00:00	2024-11-08T22:00:00	4	Temperatura máxima	17.3
41763	7	Sololá	717	San Juan la Laguna	12	San Juan la Laguna	3	Marzo	2023-12-03T00:00:00	2024-11-08T22:00:00	3	Temperatura mínima	16.9
41764	7	Sololá	717	San Juan la Laguna	12	San Juan la Laguna	3	Marzo	2023-12-03T00:00:00	2024-11-08T22:00:00	5	Humedad	84
41765	7	Sololá	717	San Juan la Laguna	12	San Juan la Laguna	3	Marzo	2023-12-03T00:00:00	2024-11-08T22:00:00	6	Velocidad del viento	3.2
41766	7	Sololá	717	San Juan la Laguna	12	San Juan la Laguna	3	Marzo	2023-12-03T00:00:00	2024-11-08T22:00:00	7	Dirección del viento	3.22
41767	7	Sololá	717	San Juan la Laguna	12	San Juan la Laguna	3	Marzo	2023-12-03T00:00:00	2024-11-08T22:00:00	1	Precipitación	0
41768	7	Sololá	717	San Juan la Laguna	12	San Juan la Laguna	3	Marzo	2023-12-03T00:00:00	2024-11-08T22:00:00	8	Radiación solar	0
41769	7	Sololá	717	San Juan la Laguna	12	San Juan la Laguna	3	Marzo	2023-12-03T00:00:00	2024-11-08T23:00:00	2	Temperatura media	17.3
41770	7	Sololá	717	San Juan la Laguna	12	San Juan la Laguna	3	Marzo	2023-12-03T00:00:00	2024-11-08T23:00:00	4	Temperatura máxima	17.3
41771	7	Sololá	717	San Juan la Laguna	12	San Juan la Laguna	3	Marzo	2023-12-03T00:00:00	2024-11-08T23:00:00	3	Temperatura mínima	16.9
41772	7	Sololá	717	San Juan la Laguna	12	San Juan la Laguna	3	Marzo	2023-12-03T00:00:00	2024-11-08T23:00:00	5	Humedad	77
41773	7	Sololá	717	San Juan la Laguna	12	San Juan la Laguna	3	Marzo	2023-12-03T00:00:00	2024-11-08T23:00:00	6	Velocidad del viento	3.2
41774	7	Sololá	717	San Juan la Laguna	12	San Juan la Laguna	3	Marzo	2023-12-03T00:00:00	2024-11-08T23:00:00	7	Dirección del viento	3.22
41775	7	Sololá	717	San Juan la Laguna	12	San Juan la Laguna	3	Marzo	2023-12-03T00:00:00	2024-11-08T23:00:00	1	Precipitación	0
41776	7	Sololá	717	San Juan la Laguna	12	San Juan la Laguna	3	Marzo	2023-12-03T00:00:00	2024-11-08T23:00:00	8	Radiación solar	0
41777	7	Sololá	717	San Juan la Laguna	12	San Juan la Laguna	3	Marzo	2023-03-13T00:00:00	2024-11-08T00:00:00	2	Temperatura media	17.2
41778	7	Sololá	717	San Juan la Laguna	12	San Juan la Laguna	3	Marzo	2023-03-13T00:00:00	2024-11-08T00:00:00	4	Temperatura máxima	17.3
41779	7	Sololá	717	San Juan la Laguna	12	San Juan la Laguna	3	Marzo	2023-03-13T00:00:00	2024-11-08T00:00:00	3	Temperatura mínima	16.9
41780	7	Sololá	717	San Juan la Laguna	12	San Juan la Laguna	3	Marzo	2023-03-13T00:00:00	2024-11-08T00:00:00	5	Humedad	76
41781	7	Sololá	717	San Juan la Laguna	12	San Juan la Laguna	3	Marzo	2023-03-13T00:00:00	2024-11-08T00:00:00	6	Velocidad del viento	4.8
41782	7	Sololá	717	San Juan la Laguna	12	San Juan la Laguna	3	Marzo	2023-03-13T00:00:00	2024-11-08T00:00:00	7	Dirección del viento	4.83
41783	7	Sololá	717	San Juan la Laguna	12	San Juan la Laguna	3	Marzo	2023-03-13T00:00:00	2024-11-08T00:00:00	1	Precipitación	0
41784	7	Sololá	717	San Juan la Laguna	12	San Juan la Laguna	3	Marzo	2023-03-13T00:00:00	2024-11-08T00:00:00	8	Radiación solar	0
41785	7	Sololá	717	San Juan la Laguna	12	San Juan la Laguna	3	Marzo	2023-03-13T00:00:00	2024-11-08T01:00:00	2	Temperatura media	16.4
41786	7	Sololá	717	San Juan la Laguna	12	San Juan la Laguna	3	Marzo	2023-03-13T00:00:00	2024-11-08T01:00:00	4	Temperatura máxima	17.3
41787	7	Sololá	717	San Juan la Laguna	12	San Juan la Laguna	3	Marzo	2023-03-13T00:00:00	2024-11-08T01:00:00	3	Temperatura mínima	16.4
41788	7	Sololá	717	San Juan la Laguna	12	San Juan la Laguna	3	Marzo	2023-03-13T00:00:00	2024-11-08T01:00:00	5	Humedad	83
41789	7	Sololá	717	San Juan la Laguna	12	San Juan la Laguna	3	Marzo	2023-03-13T00:00:00	2024-11-08T01:00:00	6	Velocidad del viento	3.2
41790	7	Sololá	717	San Juan la Laguna	12	San Juan la Laguna	3	Marzo	2023-03-13T00:00:00	2024-11-08T01:00:00	7	Dirección del viento	3.22
41791	7	Sololá	717	San Juan la Laguna	12	San Juan la Laguna	3	Marzo	2023-03-13T00:00:00	2024-11-08T01:00:00	1	Precipitación	0
41792	7	Sololá	717	San Juan la Laguna	12	San Juan la Laguna	3	Marzo	2023-03-13T00:00:00	2024-11-08T01:00:00	8	Radiación solar	0
41793	7	Sololá	717	San Juan la Laguna	12	San Juan la Laguna	3	Marzo	2023-03-13T00:00:00	2024-11-08T02:00:00	2	Temperatura media	15.4
41794	7	Sololá	717	San Juan la Laguna	12	San Juan la Laguna	3	Marzo	2023-03-13T00:00:00	2024-11-08T02:00:00	4	Temperatura máxima	16.4
41795	7	Sololá	717	San Juan la Laguna	12	San Juan la Laguna	3	Marzo	2023-03-13T00:00:00	2024-11-08T02:00:00	3	Temperatura mínima	15.4
41796	7	Sololá	717	San Juan la Laguna	12	San Juan la Laguna	3	Marzo	2023-03-13T00:00:00	2024-11-08T02:00:00	5	Humedad	86
41797	7	Sololá	717	San Juan la Laguna	12	San Juan la Laguna	3	Marzo	2023-03-13T00:00:00	2024-11-08T02:00:00	6	Velocidad del viento	0
41798	7	Sololá	717	San Juan la Laguna	12	San Juan la Laguna	3	Marzo	2023-03-13T00:00:00	2024-11-08T02:00:00	7	Dirección del viento	0
41799	7	Sololá	717	San Juan la Laguna	12	San Juan la Laguna	3	Marzo	2023-03-13T00:00:00	2024-11-08T02:00:00	1	Precipitación	0
41800	7	Sololá	717	San Juan la Laguna	12	San Juan la Laguna	3	Marzo	2023-03-13T00:00:00	2024-11-08T02:00:00	8	Radiación solar	0
41801	7	Sololá	717	San Juan la Laguna	12	San Juan la Laguna	3	Marzo	2023-03-13T00:00:00	2024-11-08T03:00:00	2	Temperatura media	14.4
41802	7	Sololá	717	San Juan la Laguna	12	San Juan la Laguna	3	Marzo	2023-03-13T00:00:00	2024-11-08T03:00:00	4	Temperatura máxima	15.5
41803	7	Sololá	717	San Juan la Laguna	12	San Juan la Laguna	3	Marzo	2023-03-13T00:00:00	2024-11-08T03:00:00	3	Temperatura mínima	14.4
41804	7	Sololá	717	San Juan la Laguna	12	San Juan la Laguna	3	Marzo	2023-03-13T00:00:00	2024-11-08T03:00:00	5	Humedad	87
41805	7	Sololá	717	San Juan la Laguna	12	San Juan la Laguna	3	Marzo	2023-03-13T00:00:00	2024-11-08T03:00:00	6	Velocidad del viento	1.6
41806	7	Sololá	717	San Juan la Laguna	12	San Juan la Laguna	3	Marzo	2023-03-13T00:00:00	2024-11-08T03:00:00	7	Dirección del viento	1.61
41807	7	Sololá	717	San Juan la Laguna	12	San Juan la Laguna	3	Marzo	2023-03-13T00:00:00	2024-11-08T03:00:00	1	Precipitación	0
41808	7	Sololá	717	San Juan la Laguna	12	San Juan la Laguna	3	Marzo	2023-03-13T00:00:00	2024-11-08T03:00:00	8	Radiación solar	0
41809	7	Sololá	717	San Juan la Laguna	12	San Juan la Laguna	3	Marzo	2023-03-13T00:00:00	2024-11-08T04:00:00	2	Temperatura media	14.3
41810	7	Sololá	717	San Juan la Laguna	12	San Juan la Laguna	3	Marzo	2023-03-13T00:00:00	2024-11-08T04:00:00	4	Temperatura máxima	14.5
41811	7	Sololá	717	San Juan la Laguna	12	San Juan la Laguna	3	Marzo	2023-03-13T00:00:00	2024-11-08T04:00:00	3	Temperatura mínima	14.2
41812	7	Sololá	717	San Juan la Laguna	12	San Juan la Laguna	3	Marzo	2023-03-13T00:00:00	2024-11-08T04:00:00	5	Humedad	87
41813	7	Sololá	717	San Juan la Laguna	12	San Juan la Laguna	3	Marzo	2023-03-13T00:00:00	2024-11-08T04:00:00	6	Velocidad del viento	3.2
41814	7	Sololá	717	San Juan la Laguna	12	San Juan la Laguna	3	Marzo	2023-03-13T00:00:00	2024-11-08T04:00:00	7	Dirección del viento	3.22
41815	7	Sololá	717	San Juan la Laguna	12	San Juan la Laguna	3	Marzo	2023-03-13T00:00:00	2024-11-08T04:00:00	1	Precipitación	0
41816	7	Sololá	717	San Juan la Laguna	12	San Juan la Laguna	3	Marzo	2023-03-13T00:00:00	2024-11-08T04:00:00	8	Radiación solar	0
41817	7	Sololá	717	San Juan la Laguna	12	San Juan la Laguna	3	Marzo	2023-03-13T00:00:00	2024-11-08T05:00:00	2	Temperatura media	13.7
41818	7	Sololá	717	San Juan la Laguna	12	San Juan la Laguna	3	Marzo	2023-03-13T00:00:00	2024-11-08T05:00:00	4	Temperatura máxima	14.3
41819	7	Sololá	717	San Juan la Laguna	12	San Juan la Laguna	3	Marzo	2023-03-13T00:00:00	2024-11-08T05:00:00	3	Temperatura mínima	13.6
41820	7	Sololá	717	San Juan la Laguna	12	San Juan la Laguna	3	Marzo	2023-03-13T00:00:00	2024-11-08T05:00:00	5	Humedad	87
41821	7	Sololá	717	San Juan la Laguna	12	San Juan la Laguna	3	Marzo	2023-03-13T00:00:00	2024-11-08T05:00:00	6	Velocidad del viento	1.6
41822	7	Sololá	717	San Juan la Laguna	12	San Juan la Laguna	3	Marzo	2023-03-13T00:00:00	2024-11-08T05:00:00	7	Dirección del viento	1.61
41823	7	Sololá	717	San Juan la Laguna	12	San Juan la Laguna	3	Marzo	2023-03-13T00:00:00	2024-11-08T05:00:00	1	Precipitación	0
41824	7	Sololá	717	San Juan la Laguna	12	San Juan la Laguna	3	Marzo	2023-03-13T00:00:00	2024-11-08T05:00:00	8	Radiación solar	0
41825	7	Sololá	717	San Juan la Laguna	12	San Juan la Laguna	3	Marzo	2023-03-13T00:00:00	2024-11-08T06:00:00	2	Temperatura media	13.3
41826	7	Sololá	717	San Juan la Laguna	12	San Juan la Laguna	3	Marzo	2023-03-13T00:00:00	2024-11-08T06:00:00	4	Temperatura máxima	13.7
41827	7	Sololá	717	San Juan la Laguna	12	San Juan la Laguna	3	Marzo	2023-03-13T00:00:00	2024-11-08T06:00:00	3	Temperatura mínima	13.2
41828	7	Sololá	717	San Juan la Laguna	12	San Juan la Laguna	3	Marzo	2023-03-13T00:00:00	2024-11-08T06:00:00	5	Humedad	89
41829	7	Sololá	717	San Juan la Laguna	12	San Juan la Laguna	3	Marzo	2023-03-13T00:00:00	2024-11-08T06:00:00	6	Velocidad del viento	3.2
41830	7	Sololá	717	San Juan la Laguna	12	San Juan la Laguna	3	Marzo	2023-03-13T00:00:00	2024-11-08T06:00:00	7	Dirección del viento	3.22
41831	7	Sololá	717	San Juan la Laguna	12	San Juan la Laguna	3	Marzo	2023-03-13T00:00:00	2024-11-08T06:00:00	1	Precipitación	0
41832	7	Sololá	717	San Juan la Laguna	12	San Juan la Laguna	3	Marzo	2023-03-13T00:00:00	2024-11-08T06:00:00	8	Radiación solar	0
41833	7	Sololá	717	San Juan la Laguna	12	San Juan la Laguna	3	Marzo	2023-03-13T00:00:00	2024-11-08T07:00:00	2	Temperatura media	13.9
41834	7	Sololá	717	San Juan la Laguna	12	San Juan la Laguna	3	Marzo	2023-03-13T00:00:00	2024-11-08T07:00:00	4	Temperatura máxima	13.9
41835	7	Sololá	717	San Juan la Laguna	12	San Juan la Laguna	3	Marzo	2023-03-13T00:00:00	2024-11-08T07:00:00	3	Temperatura mínima	13.3
41836	7	Sololá	717	San Juan la Laguna	12	San Juan la Laguna	3	Marzo	2023-03-13T00:00:00	2024-11-08T07:00:00	5	Humedad	88
41837	7	Sololá	717	San Juan la Laguna	12	San Juan la Laguna	3	Marzo	2023-03-13T00:00:00	2024-11-08T07:00:00	6	Velocidad del viento	3.2
41838	7	Sololá	717	San Juan la Laguna	12	San Juan la Laguna	3	Marzo	2023-03-13T00:00:00	2024-11-08T07:00:00	7	Dirección del viento	3.22
41839	7	Sololá	717	San Juan la Laguna	12	San Juan la Laguna	3	Marzo	2023-03-13T00:00:00	2024-11-08T07:00:00	1	Precipitación	0
41840	7	Sololá	717	San Juan la Laguna	12	San Juan la Laguna	3	Marzo	2023-03-13T00:00:00	2024-11-08T07:00:00	8	Radiación solar	22
41841	7	Sololá	717	San Juan la Laguna	12	San Juan la Laguna	3	Marzo	2023-03-13T00:00:00	2024-11-08T08:00:00	2	Temperatura media	17.7
41842	7	Sololá	717	San Juan la Laguna	12	San Juan la Laguna	3	Marzo	2023-03-13T00:00:00	2024-11-08T08:00:00	4	Temperatura máxima	17.7
41843	7	Sololá	717	San Juan la Laguna	12	San Juan la Laguna	3	Marzo	2023-03-13T00:00:00	2024-11-08T08:00:00	3	Temperatura mínima	13.9
41844	7	Sololá	717	San Juan la Laguna	12	San Juan la Laguna	3	Marzo	2023-03-13T00:00:00	2024-11-08T08:00:00	5	Humedad	82
41845	7	Sololá	717	San Juan la Laguna	12	San Juan la Laguna	3	Marzo	2023-03-13T00:00:00	2024-11-08T08:00:00	6	Velocidad del viento	0
41846	7	Sololá	717	San Juan la Laguna	12	San Juan la Laguna	3	Marzo	2023-03-13T00:00:00	2024-11-08T08:00:00	7	Dirección del viento	0
41847	7	Sololá	717	San Juan la Laguna	12	San Juan la Laguna	3	Marzo	2023-03-13T00:00:00	2024-11-08T08:00:00	1	Precipitación	0
41848	7	Sololá	717	San Juan la Laguna	12	San Juan la Laguna	3	Marzo	2023-03-13T00:00:00	2024-11-08T08:00:00	8	Radiación solar	166
41849	7	Sololá	717	San Juan la Laguna	12	San Juan la Laguna	3	Marzo	2023-03-13T00:00:00	2024-11-08T09:00:00	2	Temperatura media	19.2
41850	7	Sololá	717	San Juan la Laguna	12	San Juan la Laguna	3	Marzo	2023-03-13T00:00:00	2024-11-08T09:00:00	4	Temperatura máxima	19.3
41851	7	Sololá	717	San Juan la Laguna	12	San Juan la Laguna	3	Marzo	2023-03-13T00:00:00	2024-11-08T09:00:00	3	Temperatura mínima	17.7
41852	7	Sololá	717	San Juan la Laguna	12	San Juan la Laguna	3	Marzo	2023-03-13T00:00:00	2024-11-08T09:00:00	5	Humedad	77
41853	7	Sololá	717	San Juan la Laguna	12	San Juan la Laguna	3	Marzo	2023-03-13T00:00:00	2024-11-08T09:00:00	6	Velocidad del viento	1.6
41854	7	Sololá	717	San Juan la Laguna	12	San Juan la Laguna	3	Marzo	2023-03-13T00:00:00	2024-11-08T09:00:00	7	Dirección del viento	1.61
41855	7	Sololá	717	San Juan la Laguna	12	San Juan la Laguna	3	Marzo	2023-03-13T00:00:00	2024-11-08T09:00:00	1	Precipitación	0
41856	7	Sololá	717	San Juan la Laguna	12	San Juan la Laguna	3	Marzo	2023-03-13T00:00:00	2024-11-08T09:00:00	8	Radiación solar	399
41857	7	Sololá	717	San Juan la Laguna	12	San Juan la Laguna	3	Marzo	2023-03-13T00:00:00	2024-11-08T10:00:00	2	Temperatura media	19.9
41858	7	Sololá	717	San Juan la Laguna	12	San Juan la Laguna	3	Marzo	2023-03-13T00:00:00	2024-11-08T10:00:00	4	Temperatura máxima	20.2
41859	7	Sololá	717	San Juan la Laguna	12	San Juan la Laguna	3	Marzo	2023-03-13T00:00:00	2024-11-08T10:00:00	3	Temperatura mínima	19.2
41860	7	Sololá	717	San Juan la Laguna	12	San Juan la Laguna	3	Marzo	2023-03-13T00:00:00	2024-11-08T10:00:00	5	Humedad	75
41861	7	Sololá	717	San Juan la Laguna	12	San Juan la Laguna	3	Marzo	2023-03-13T00:00:00	2024-11-08T10:00:00	6	Velocidad del viento	3.2
41862	7	Sololá	717	San Juan la Laguna	12	San Juan la Laguna	3	Marzo	2023-03-13T00:00:00	2024-11-08T10:00:00	7	Dirección del viento	3.22
41863	7	Sololá	717	San Juan la Laguna	12	San Juan la Laguna	3	Marzo	2023-03-13T00:00:00	2024-11-08T10:00:00	1	Precipitación	0
41864	7	Sololá	717	San Juan la Laguna	12	San Juan la Laguna	3	Marzo	2023-03-13T00:00:00	2024-11-08T10:00:00	8	Radiación solar	625
41865	7	Sololá	717	San Juan la Laguna	12	San Juan la Laguna	3	Marzo	2023-03-13T00:00:00	2024-11-08T11:00:00	2	Temperatura media	20.8
41866	7	Sololá	717	San Juan la Laguna	12	San Juan la Laguna	3	Marzo	2023-03-13T00:00:00	2024-11-08T11:00:00	4	Temperatura máxima	20.8
41867	7	Sololá	717	San Juan la Laguna	12	San Juan la Laguna	3	Marzo	2023-03-13T00:00:00	2024-11-08T11:00:00	3	Temperatura mínima	19.9
41868	7	Sololá	717	San Juan la Laguna	12	San Juan la Laguna	3	Marzo	2023-03-13T00:00:00	2024-11-08T11:00:00	5	Humedad	73
41869	7	Sololá	717	San Juan la Laguna	12	San Juan la Laguna	3	Marzo	2023-03-13T00:00:00	2024-11-08T11:00:00	6	Velocidad del viento	3.2
41870	7	Sololá	717	San Juan la Laguna	12	San Juan la Laguna	3	Marzo	2023-03-13T00:00:00	2024-11-08T11:00:00	7	Dirección del viento	3.22
41871	7	Sololá	717	San Juan la Laguna	12	San Juan la Laguna	3	Marzo	2023-03-13T00:00:00	2024-11-08T11:00:00	1	Precipitación	0
41872	7	Sololá	717	San Juan la Laguna	12	San Juan la Laguna	3	Marzo	2023-03-13T00:00:00	2024-11-08T11:00:00	8	Radiación solar	795
41873	7	Sololá	717	San Juan la Laguna	12	San Juan la Laguna	3	Marzo	2023-03-13T00:00:00	2024-11-08T12:00:00	2	Temperatura media	21.6
41874	7	Sololá	717	San Juan la Laguna	12	San Juan la Laguna	3	Marzo	2023-03-13T00:00:00	2024-11-08T12:00:00	4	Temperatura máxima	21.9
41875	7	Sololá	717	San Juan la Laguna	12	San Juan la Laguna	3	Marzo	2023-03-13T00:00:00	2024-11-08T12:00:00	3	Temperatura mínima	20.8
41876	7	Sololá	717	San Juan la Laguna	12	San Juan la Laguna	3	Marzo	2023-03-13T00:00:00	2024-11-08T12:00:00	5	Humedad	69
41877	7	Sololá	717	San Juan la Laguna	12	San Juan la Laguna	3	Marzo	2023-03-13T00:00:00	2024-11-08T12:00:00	6	Velocidad del viento	6.4
41878	7	Sololá	717	San Juan la Laguna	12	San Juan la Laguna	3	Marzo	2023-03-13T00:00:00	2024-11-08T12:00:00	7	Dirección del viento	6.44
41879	7	Sololá	717	San Juan la Laguna	12	San Juan la Laguna	3	Marzo	2023-03-13T00:00:00	2024-11-08T12:00:00	1	Precipitación	0
41880	7	Sololá	717	San Juan la Laguna	12	San Juan la Laguna	3	Marzo	2023-03-13T00:00:00	2024-11-08T12:00:00	8	Radiación solar	752
41881	7	Sololá	717	San Juan la Laguna	12	San Juan la Laguna	3	Marzo	2023-03-13T00:00:00	2024-11-08T13:00:00	2	Temperatura media	22.6
41882	7	Sololá	717	San Juan la Laguna	12	San Juan la Laguna	3	Marzo	2023-03-13T00:00:00	2024-11-08T13:00:00	4	Temperatura máxima	22.6
41883	7	Sololá	717	San Juan la Laguna	12	San Juan la Laguna	3	Marzo	2023-03-13T00:00:00	2024-11-08T13:00:00	3	Temperatura mínima	21.6
41884	7	Sololá	717	San Juan la Laguna	12	San Juan la Laguna	3	Marzo	2023-03-13T00:00:00	2024-11-08T13:00:00	5	Humedad	66
41885	7	Sololá	717	San Juan la Laguna	12	San Juan la Laguna	3	Marzo	2023-03-13T00:00:00	2024-11-08T13:00:00	6	Velocidad del viento	9.7
41886	7	Sololá	717	San Juan la Laguna	12	San Juan la Laguna	3	Marzo	2023-03-13T00:00:00	2024-11-08T13:00:00	7	Dirección del viento	9.66
41887	7	Sololá	717	San Juan la Laguna	12	San Juan la Laguna	3	Marzo	2023-03-13T00:00:00	2024-11-08T13:00:00	1	Precipitación	0
41888	7	Sololá	717	San Juan la Laguna	12	San Juan la Laguna	3	Marzo	2023-03-13T00:00:00	2024-11-08T13:00:00	8	Radiación solar	937
41889	7	Sololá	717	San Juan la Laguna	12	San Juan la Laguna	3	Marzo	2023-03-13T00:00:00	2024-11-08T14:00:00	2	Temperatura media	22.3
41890	7	Sololá	717	San Juan la Laguna	12	San Juan la Laguna	3	Marzo	2023-03-13T00:00:00	2024-11-08T14:00:00	4	Temperatura máxima	22.8
41891	7	Sololá	717	San Juan la Laguna	12	San Juan la Laguna	3	Marzo	2023-03-13T00:00:00	2024-11-08T14:00:00	3	Temperatura mínima	21.9
41892	7	Sololá	717	San Juan la Laguna	12	San Juan la Laguna	3	Marzo	2023-03-13T00:00:00	2024-11-08T14:00:00	5	Humedad	67
41893	7	Sololá	717	San Juan la Laguna	12	San Juan la Laguna	3	Marzo	2023-03-13T00:00:00	2024-11-08T14:00:00	6	Velocidad del viento	9.7
41894	7	Sololá	717	San Juan la Laguna	12	San Juan la Laguna	3	Marzo	2023-03-13T00:00:00	2024-11-08T14:00:00	7	Dirección del viento	9.66
41895	7	Sololá	717	San Juan la Laguna	12	San Juan la Laguna	3	Marzo	2023-03-13T00:00:00	2024-11-08T14:00:00	1	Precipitación	0
41896	7	Sololá	717	San Juan la Laguna	12	San Juan la Laguna	3	Marzo	2023-03-13T00:00:00	2024-11-08T14:00:00	8	Radiación solar	800
41897	7	Sololá	717	San Juan la Laguna	12	San Juan la Laguna	3	Marzo	2023-03-13T00:00:00	2024-11-08T15:00:00	2	Temperatura media	20.4
41898	7	Sololá	717	San Juan la Laguna	12	San Juan la Laguna	3	Marzo	2023-03-13T00:00:00	2024-11-08T15:00:00	4	Temperatura máxima	22.3
41899	7	Sololá	717	San Juan la Laguna	12	San Juan la Laguna	3	Marzo	2023-03-13T00:00:00	2024-11-08T15:00:00	3	Temperatura mínima	20.4
41900	7	Sololá	717	San Juan la Laguna	12	San Juan la Laguna	3	Marzo	2023-03-13T00:00:00	2024-11-08T15:00:00	5	Humedad	75
41901	7	Sololá	717	San Juan la Laguna	12	San Juan la Laguna	3	Marzo	2023-03-13T00:00:00	2024-11-08T15:00:00	6	Velocidad del viento	8
41902	7	Sololá	717	San Juan la Laguna	12	San Juan la Laguna	3	Marzo	2023-03-13T00:00:00	2024-11-08T15:00:00	7	Dirección del viento	8.05
41903	7	Sololá	717	San Juan la Laguna	12	San Juan la Laguna	3	Marzo	2023-03-13T00:00:00	2024-11-08T15:00:00	1	Precipitación	0
41904	7	Sololá	717	San Juan la Laguna	12	San Juan la Laguna	3	Marzo	2023-03-13T00:00:00	2024-11-08T15:00:00	8	Radiación solar	404
41905	7	Sololá	717	San Juan la Laguna	12	San Juan la Laguna	3	Marzo	2023-03-13T00:00:00	2024-11-08T16:00:00	2	Temperatura media	19.9
41906	7	Sololá	717	San Juan la Laguna	12	San Juan la Laguna	3	Marzo	2023-03-13T00:00:00	2024-11-08T16:00:00	4	Temperatura máxima	20.5
41907	7	Sololá	717	San Juan la Laguna	12	San Juan la Laguna	3	Marzo	2023-03-13T00:00:00	2024-11-08T16:00:00	3	Temperatura mínima	19.9
41908	7	Sololá	717	San Juan la Laguna	12	San Juan la Laguna	3	Marzo	2023-03-13T00:00:00	2024-11-08T16:00:00	5	Humedad	76
41909	7	Sololá	717	San Juan la Laguna	12	San Juan la Laguna	3	Marzo	2023-03-13T00:00:00	2024-11-08T16:00:00	6	Velocidad del viento	6.4
41910	7	Sololá	717	San Juan la Laguna	12	San Juan la Laguna	3	Marzo	2023-03-13T00:00:00	2024-11-08T16:00:00	7	Dirección del viento	6.44
41911	7	Sololá	717	San Juan la Laguna	12	San Juan la Laguna	3	Marzo	2023-03-13T00:00:00	2024-11-08T16:00:00	1	Precipitación	0
41912	7	Sololá	717	San Juan la Laguna	12	San Juan la Laguna	3	Marzo	2023-03-13T00:00:00	2024-11-08T16:00:00	8	Radiación solar	154
41913	7	Sololá	717	San Juan la Laguna	12	San Juan la Laguna	3	Marzo	2023-03-13T00:00:00	2024-11-08T17:00:00	2	Temperatura media	20
41914	7	Sololá	717	San Juan la Laguna	12	San Juan la Laguna	3	Marzo	2023-03-13T00:00:00	2024-11-08T17:00:00	4	Temperatura máxima	20.8
41915	7	Sololá	717	San Juan la Laguna	12	San Juan la Laguna	3	Marzo	2023-03-13T00:00:00	2024-11-08T17:00:00	3	Temperatura mínima	19.8
41916	7	Sololá	717	San Juan la Laguna	12	San Juan la Laguna	3	Marzo	2023-03-13T00:00:00	2024-11-08T17:00:00	5	Humedad	79
41917	7	Sololá	717	San Juan la Laguna	12	San Juan la Laguna	3	Marzo	2023-03-13T00:00:00	2024-11-08T17:00:00	6	Velocidad del viento	3.2
41918	7	Sololá	717	San Juan la Laguna	12	San Juan la Laguna	3	Marzo	2023-03-13T00:00:00	2024-11-08T17:00:00	7	Dirección del viento	3.22
41919	7	Sololá	717	San Juan la Laguna	12	San Juan la Laguna	3	Marzo	2023-03-13T00:00:00	2024-11-08T17:00:00	1	Precipitación	0
41920	7	Sololá	717	San Juan la Laguna	12	San Juan la Laguna	3	Marzo	2023-03-13T00:00:00	2024-11-08T17:00:00	8	Radiación solar	103
41921	7	Sololá	717	San Juan la Laguna	12	San Juan la Laguna	3	Marzo	2023-03-13T00:00:00	2024-11-08T18:00:00	2	Temperatura media	19.4
41922	7	Sololá	717	San Juan la Laguna	12	San Juan la Laguna	3	Marzo	2023-03-13T00:00:00	2024-11-08T18:00:00	4	Temperatura máxima	20
41923	7	Sololá	717	San Juan la Laguna	12	San Juan la Laguna	3	Marzo	2023-03-13T00:00:00	2024-11-08T18:00:00	3	Temperatura mínima	19.4
41924	7	Sololá	717	San Juan la Laguna	12	San Juan la Laguna	3	Marzo	2023-03-13T00:00:00	2024-11-08T18:00:00	5	Humedad	81
41925	7	Sololá	717	San Juan la Laguna	12	San Juan la Laguna	3	Marzo	2023-03-13T00:00:00	2024-11-08T18:00:00	6	Velocidad del viento	1.6
41926	7	Sololá	717	San Juan la Laguna	12	San Juan la Laguna	3	Marzo	2023-03-13T00:00:00	2024-11-08T18:00:00	7	Dirección del viento	1.61
41927	7	Sololá	717	San Juan la Laguna	12	San Juan la Laguna	3	Marzo	2023-03-13T00:00:00	2024-11-08T18:00:00	1	Precipitación	0
41928	7	Sololá	717	San Juan la Laguna	12	San Juan la Laguna	3	Marzo	2023-03-13T00:00:00	2024-11-08T18:00:00	8	Radiación solar	26
41929	7	Sololá	717	San Juan la Laguna	12	San Juan la Laguna	3	Marzo	2023-03-13T00:00:00	2024-11-08T19:00:00	2	Temperatura media	18.9
41930	7	Sololá	717	San Juan la Laguna	12	San Juan la Laguna	3	Marzo	2023-03-13T00:00:00	2024-11-08T19:00:00	4	Temperatura máxima	19.4
41931	7	Sololá	717	San Juan la Laguna	12	San Juan la Laguna	3	Marzo	2023-03-13T00:00:00	2024-11-08T19:00:00	3	Temperatura mínima	18.9
41932	7	Sololá	717	San Juan la Laguna	12	San Juan la Laguna	3	Marzo	2023-03-13T00:00:00	2024-11-08T19:00:00	5	Humedad	86
41933	7	Sololá	717	San Juan la Laguna	12	San Juan la Laguna	3	Marzo	2023-03-13T00:00:00	2024-11-08T19:00:00	6	Velocidad del viento	0
41934	7	Sololá	717	San Juan la Laguna	12	San Juan la Laguna	3	Marzo	2023-03-13T00:00:00	2024-11-08T19:00:00	7	Dirección del viento	0
41935	7	Sololá	717	San Juan la Laguna	12	San Juan la Laguna	3	Marzo	2023-03-13T00:00:00	2024-11-08T19:00:00	1	Precipitación	0
41936	7	Sololá	717	San Juan la Laguna	12	San Juan la Laguna	3	Marzo	2023-03-13T00:00:00	2024-11-08T19:00:00	8	Radiación solar	0
41937	7	Sololá	717	San Juan la Laguna	12	San Juan la Laguna	3	Marzo	2023-03-13T00:00:00	2024-11-08T20:00:00	2	Temperatura media	18.4
41938	7	Sololá	717	San Juan la Laguna	12	San Juan la Laguna	3	Marzo	2023-03-13T00:00:00	2024-11-08T20:00:00	4	Temperatura máxima	18.9
41939	7	Sololá	717	San Juan la Laguna	12	San Juan la Laguna	3	Marzo	2023-03-13T00:00:00	2024-11-08T20:00:00	3	Temperatura mínima	18.4
41940	7	Sololá	717	San Juan la Laguna	12	San Juan la Laguna	3	Marzo	2023-03-13T00:00:00	2024-11-08T20:00:00	5	Humedad	86
41941	7	Sololá	717	San Juan la Laguna	12	San Juan la Laguna	3	Marzo	2023-03-13T00:00:00	2024-11-08T20:00:00	6	Velocidad del viento	0
41942	7	Sololá	717	San Juan la Laguna	12	San Juan la Laguna	3	Marzo	2023-03-13T00:00:00	2024-11-08T20:00:00	7	Dirección del viento	0
41943	7	Sololá	717	San Juan la Laguna	12	San Juan la Laguna	3	Marzo	2023-03-13T00:00:00	2024-11-08T20:00:00	1	Precipitación	0
41944	7	Sololá	717	San Juan la Laguna	12	San Juan la Laguna	3	Marzo	2023-03-13T00:00:00	2024-11-08T20:00:00	8	Radiación solar	0
41945	7	Sololá	717	San Juan la Laguna	12	San Juan la Laguna	3	Marzo	2023-03-13T00:00:00	2024-11-08T21:00:00	2	Temperatura media	18.2
41946	7	Sololá	717	San Juan la Laguna	12	San Juan la Laguna	3	Marzo	2023-03-13T00:00:00	2024-11-08T21:00:00	4	Temperatura máxima	18.4
41947	7	Sololá	717	San Juan la Laguna	12	San Juan la Laguna	3	Marzo	2023-03-13T00:00:00	2024-11-08T21:00:00	3	Temperatura mínima	18.2
41948	7	Sololá	717	San Juan la Laguna	12	San Juan la Laguna	3	Marzo	2023-03-13T00:00:00	2024-11-08T21:00:00	5	Humedad	90
41949	7	Sololá	717	San Juan la Laguna	12	San Juan la Laguna	3	Marzo	2023-03-13T00:00:00	2024-11-08T21:00:00	6	Velocidad del viento	0
41950	7	Sololá	717	San Juan la Laguna	12	San Juan la Laguna	3	Marzo	2023-03-13T00:00:00	2024-11-08T21:00:00	7	Dirección del viento	0
41951	7	Sololá	717	San Juan la Laguna	12	San Juan la Laguna	3	Marzo	2023-03-13T00:00:00	2024-11-08T21:00:00	1	Precipitación	0
41952	7	Sololá	717	San Juan la Laguna	12	San Juan la Laguna	3	Marzo	2023-03-13T00:00:00	2024-11-08T21:00:00	8	Radiación solar	0
41953	7	Sololá	717	San Juan la Laguna	12	San Juan la Laguna	3	Marzo	2023-03-13T00:00:00	2024-11-08T22:00:00	2	Temperatura media	17.8
41954	7	Sololá	717	San Juan la Laguna	12	San Juan la Laguna	3	Marzo	2023-03-13T00:00:00	2024-11-08T22:00:00	4	Temperatura máxima	18.2
41955	7	Sololá	717	San Juan la Laguna	12	San Juan la Laguna	3	Marzo	2023-03-13T00:00:00	2024-11-08T22:00:00	3	Temperatura mínima	17.8
41956	7	Sololá	717	San Juan la Laguna	12	San Juan la Laguna	3	Marzo	2023-03-13T00:00:00	2024-11-08T22:00:00	5	Humedad	90
41957	7	Sololá	717	San Juan la Laguna	12	San Juan la Laguna	3	Marzo	2023-03-13T00:00:00	2024-11-08T22:00:00	6	Velocidad del viento	0
41958	7	Sololá	717	San Juan la Laguna	12	San Juan la Laguna	3	Marzo	2023-03-13T00:00:00	2024-11-08T22:00:00	7	Dirección del viento	0
41959	7	Sololá	717	San Juan la Laguna	12	San Juan la Laguna	3	Marzo	2023-03-13T00:00:00	2024-11-08T22:00:00	1	Precipitación	0
41960	7	Sololá	717	San Juan la Laguna	12	San Juan la Laguna	3	Marzo	2023-03-13T00:00:00	2024-11-08T22:00:00	8	Radiación solar	0
41961	7	Sololá	717	San Juan la Laguna	12	San Juan la Laguna	3	Marzo	2023-03-13T00:00:00	2024-11-08T23:00:00	2	Temperatura media	17.4
41962	7	Sololá	717	San Juan la Laguna	12	San Juan la Laguna	3	Marzo	2023-03-13T00:00:00	2024-11-08T23:00:00	4	Temperatura máxima	17.9
41963	7	Sololá	717	San Juan la Laguna	12	San Juan la Laguna	3	Marzo	2023-03-13T00:00:00	2024-11-08T23:00:00	3	Temperatura mínima	17.4
41964	7	Sololá	717	San Juan la Laguna	12	San Juan la Laguna	3	Marzo	2023-03-13T00:00:00	2024-11-08T23:00:00	5	Humedad	89
41965	7	Sololá	717	San Juan la Laguna	12	San Juan la Laguna	3	Marzo	2023-03-13T00:00:00	2024-11-08T23:00:00	6	Velocidad del viento	0
41966	7	Sololá	717	San Juan la Laguna	12	San Juan la Laguna	3	Marzo	2023-03-13T00:00:00	2024-11-08T23:00:00	7	Dirección del viento	0
41967	7	Sololá	717	San Juan la Laguna	12	San Juan la Laguna	3	Marzo	2023-03-13T00:00:00	2024-11-08T23:00:00	1	Precipitación	0
41968	7	Sololá	717	San Juan la Laguna	12	San Juan la Laguna	3	Marzo	2023-03-13T00:00:00	2024-11-08T23:00:00	8	Radiación solar	0
41969	7	Sololá	717	San Juan la Laguna	12	San Juan la Laguna	3	Marzo	2023-03-14T00:00:00	2024-11-08T00:00:00	2	Temperatura media	16.8
41970	7	Sololá	717	San Juan la Laguna	12	San Juan la Laguna	3	Marzo	2023-03-14T00:00:00	2024-11-08T00:00:00	4	Temperatura máxima	17.4
41971	7	Sololá	717	San Juan la Laguna	12	San Juan la Laguna	3	Marzo	2023-03-14T00:00:00	2024-11-08T00:00:00	3	Temperatura mínima	16.8
41972	7	Sololá	717	San Juan la Laguna	12	San Juan la Laguna	3	Marzo	2023-03-14T00:00:00	2024-11-08T00:00:00	5	Humedad	89
41973	7	Sololá	717	San Juan la Laguna	12	San Juan la Laguna	3	Marzo	2023-03-14T00:00:00	2024-11-08T00:00:00	6	Velocidad del viento	0
41974	7	Sololá	717	San Juan la Laguna	12	San Juan la Laguna	3	Marzo	2023-03-14T00:00:00	2024-11-08T00:00:00	7	Dirección del viento	0
41975	7	Sololá	717	San Juan la Laguna	12	San Juan la Laguna	3	Marzo	2023-03-14T00:00:00	2024-11-08T00:00:00	1	Precipitación	0
41976	7	Sololá	717	San Juan la Laguna	12	San Juan la Laguna	3	Marzo	2023-03-14T00:00:00	2024-11-08T00:00:00	8	Radiación solar	0
41977	7	Sololá	717	San Juan la Laguna	12	San Juan la Laguna	3	Marzo	2023-03-14T00:00:00	2024-11-08T01:00:00	2	Temperatura media	16.1
41978	7	Sololá	717	San Juan la Laguna	12	San Juan la Laguna	3	Marzo	2023-03-14T00:00:00	2024-11-08T01:00:00	4	Temperatura máxima	16.8
41979	7	Sololá	717	San Juan la Laguna	12	San Juan la Laguna	3	Marzo	2023-03-14T00:00:00	2024-11-08T01:00:00	3	Temperatura mínima	16
41980	7	Sololá	717	San Juan la Laguna	12	San Juan la Laguna	3	Marzo	2023-03-14T00:00:00	2024-11-08T01:00:00	5	Humedad	89
41981	7	Sololá	717	San Juan la Laguna	12	San Juan la Laguna	3	Marzo	2023-03-14T00:00:00	2024-11-08T01:00:00	6	Velocidad del viento	0
41982	7	Sololá	717	San Juan la Laguna	12	San Juan la Laguna	3	Marzo	2023-03-14T00:00:00	2024-11-08T01:00:00	7	Dirección del viento	0
41983	7	Sololá	717	San Juan la Laguna	12	San Juan la Laguna	3	Marzo	2023-03-14T00:00:00	2024-11-08T01:00:00	1	Precipitación	0
41984	7	Sololá	717	San Juan la Laguna	12	San Juan la Laguna	3	Marzo	2023-03-14T00:00:00	2024-11-08T01:00:00	8	Radiación solar	0
41985	7	Sololá	717	San Juan la Laguna	12	San Juan la Laguna	3	Marzo	2023-03-14T00:00:00	2024-11-08T02:00:00	2	Temperatura media	16.2
41986	7	Sololá	717	San Juan la Laguna	12	San Juan la Laguna	3	Marzo	2023-03-14T00:00:00	2024-11-08T02:00:00	4	Temperatura máxima	16.2
41987	7	Sololá	717	San Juan la Laguna	12	San Juan la Laguna	3	Marzo	2023-03-14T00:00:00	2024-11-08T02:00:00	3	Temperatura mínima	15.9
41988	7	Sololá	717	San Juan la Laguna	12	San Juan la Laguna	3	Marzo	2023-03-14T00:00:00	2024-11-08T02:00:00	5	Humedad	88
41989	7	Sololá	717	San Juan la Laguna	12	San Juan la Laguna	3	Marzo	2023-03-14T00:00:00	2024-11-08T02:00:00	6	Velocidad del viento	1.6
41990	7	Sololá	717	San Juan la Laguna	12	San Juan la Laguna	3	Marzo	2023-03-14T00:00:00	2024-11-08T02:00:00	7	Dirección del viento	1.61
41991	7	Sololá	717	San Juan la Laguna	12	San Juan la Laguna	3	Marzo	2023-03-14T00:00:00	2024-11-08T02:00:00	1	Precipitación	0
41992	7	Sololá	717	San Juan la Laguna	12	San Juan la Laguna	3	Marzo	2023-03-14T00:00:00	2024-11-08T02:00:00	8	Radiación solar	0
41993	7	Sololá	717	San Juan la Laguna	12	San Juan la Laguna	3	Marzo	2023-03-14T00:00:00	2024-11-08T03:00:00	2	Temperatura media	16.4
41994	7	Sololá	717	San Juan la Laguna	12	San Juan la Laguna	3	Marzo	2023-03-14T00:00:00	2024-11-08T03:00:00	4	Temperatura máxima	16.5
41995	7	Sololá	717	San Juan la Laguna	12	San Juan la Laguna	3	Marzo	2023-03-14T00:00:00	2024-11-08T03:00:00	3	Temperatura mínima	16.2
41996	7	Sololá	717	San Juan la Laguna	12	San Juan la Laguna	3	Marzo	2023-03-14T00:00:00	2024-11-08T03:00:00	5	Humedad	87
41997	7	Sololá	717	San Juan la Laguna	12	San Juan la Laguna	3	Marzo	2023-03-14T00:00:00	2024-11-08T03:00:00	6	Velocidad del viento	0
41998	7	Sololá	717	San Juan la Laguna	12	San Juan la Laguna	3	Marzo	2023-03-14T00:00:00	2024-11-08T03:00:00	7	Dirección del viento	0
41999	7	Sololá	717	San Juan la Laguna	12	San Juan la Laguna	3	Marzo	2023-03-14T00:00:00	2024-11-08T03:00:00	1	Precipitación	0
42000	7	Sololá	717	San Juan la Laguna	12	San Juan la Laguna	3	Marzo	2023-03-14T00:00:00	2024-11-08T03:00:00	8	Radiación solar	0
42001	7	Sololá	717	San Juan la Laguna	12	San Juan la Laguna	3	Marzo	2023-03-14T00:00:00	2024-11-08T04:00:00	2	Temperatura media	15.7
42002	7	Sololá	717	San Juan la Laguna	12	San Juan la Laguna	3	Marzo	2023-03-14T00:00:00	2024-11-08T04:00:00	4	Temperatura máxima	16.4
42003	7	Sololá	717	San Juan la Laguna	12	San Juan la Laguna	3	Marzo	2023-03-14T00:00:00	2024-11-08T04:00:00	3	Temperatura mínima	15.7
42004	7	Sololá	717	San Juan la Laguna	12	San Juan la Laguna	3	Marzo	2023-03-14T00:00:00	2024-11-08T04:00:00	5	Humedad	89
42005	7	Sololá	717	San Juan la Laguna	12	San Juan la Laguna	3	Marzo	2023-03-14T00:00:00	2024-11-08T04:00:00	6	Velocidad del viento	0
42006	7	Sololá	717	San Juan la Laguna	12	San Juan la Laguna	3	Marzo	2023-03-14T00:00:00	2024-11-08T04:00:00	7	Dirección del viento	0
42007	7	Sololá	717	San Juan la Laguna	12	San Juan la Laguna	3	Marzo	2023-03-14T00:00:00	2024-11-08T04:00:00	1	Precipitación	0
42008	7	Sololá	717	San Juan la Laguna	12	San Juan la Laguna	3	Marzo	2023-03-14T00:00:00	2024-11-08T04:00:00	8	Radiación solar	0
42009	7	Sololá	717	San Juan la Laguna	12	San Juan la Laguna	3	Marzo	2023-03-14T00:00:00	2024-11-08T05:00:00	2	Temperatura media	15.7
42010	7	Sololá	717	San Juan la Laguna	12	San Juan la Laguna	3	Marzo	2023-03-14T00:00:00	2024-11-08T05:00:00	4	Temperatura máxima	15.8
42011	7	Sololá	717	San Juan la Laguna	12	San Juan la Laguna	3	Marzo	2023-03-14T00:00:00	2024-11-08T05:00:00	3	Temperatura mínima	15.7
42012	7	Sololá	717	San Juan la Laguna	12	San Juan la Laguna	3	Marzo	2023-03-14T00:00:00	2024-11-08T05:00:00	5	Humedad	89
42013	7	Sololá	717	San Juan la Laguna	12	San Juan la Laguna	3	Marzo	2023-03-14T00:00:00	2024-11-08T05:00:00	6	Velocidad del viento	0
42014	7	Sololá	717	San Juan la Laguna	12	San Juan la Laguna	3	Marzo	2023-03-14T00:00:00	2024-11-08T05:00:00	7	Dirección del viento	0
42015	7	Sololá	717	San Juan la Laguna	12	San Juan la Laguna	3	Marzo	2023-03-14T00:00:00	2024-11-08T05:00:00	1	Precipitación	0
42016	7	Sololá	717	San Juan la Laguna	12	San Juan la Laguna	3	Marzo	2023-03-14T00:00:00	2024-11-08T05:00:00	8	Radiación solar	0
42017	7	Sololá	717	San Juan la Laguna	12	San Juan la Laguna	3	Marzo	2023-03-14T00:00:00	2024-11-08T06:00:00	2	Temperatura media	15.3
42018	7	Sololá	717	San Juan la Laguna	12	San Juan la Laguna	3	Marzo	2023-03-14T00:00:00	2024-11-08T06:00:00	4	Temperatura máxima	15.9
42019	7	Sololá	717	San Juan la Laguna	12	San Juan la Laguna	3	Marzo	2023-03-14T00:00:00	2024-11-08T06:00:00	3	Temperatura mínima	15.3
42020	7	Sololá	717	San Juan la Laguna	12	San Juan la Laguna	3	Marzo	2023-03-14T00:00:00	2024-11-08T06:00:00	5	Humedad	89
42021	7	Sololá	717	San Juan la Laguna	12	San Juan la Laguna	3	Marzo	2023-03-14T00:00:00	2024-11-08T06:00:00	6	Velocidad del viento	1.6
42022	7	Sololá	717	San Juan la Laguna	12	San Juan la Laguna	3	Marzo	2023-03-14T00:00:00	2024-11-08T06:00:00	7	Dirección del viento	1.61
42023	7	Sololá	717	San Juan la Laguna	12	San Juan la Laguna	3	Marzo	2023-03-14T00:00:00	2024-11-08T06:00:00	1	Precipitación	0
42024	7	Sololá	717	San Juan la Laguna	12	San Juan la Laguna	3	Marzo	2023-03-14T00:00:00	2024-11-08T06:00:00	8	Radiación solar	0
42025	7	Sololá	717	San Juan la Laguna	12	San Juan la Laguna	3	Marzo	2023-03-14T00:00:00	2024-11-08T07:00:00	2	Temperatura media	15.7
42026	7	Sololá	717	San Juan la Laguna	12	San Juan la Laguna	3	Marzo	2023-03-14T00:00:00	2024-11-08T07:00:00	4	Temperatura máxima	15.7
42027	7	Sololá	717	San Juan la Laguna	12	San Juan la Laguna	3	Marzo	2023-03-14T00:00:00	2024-11-08T07:00:00	3	Temperatura mínima	14.8
42028	7	Sololá	717	San Juan la Laguna	12	San Juan la Laguna	3	Marzo	2023-03-14T00:00:00	2024-11-08T07:00:00	5	Humedad	85
42029	7	Sololá	717	San Juan la Laguna	12	San Juan la Laguna	3	Marzo	2023-03-14T00:00:00	2024-11-08T07:00:00	6	Velocidad del viento	1.6
42030	7	Sololá	717	San Juan la Laguna	12	San Juan la Laguna	3	Marzo	2023-03-14T00:00:00	2024-11-08T07:00:00	7	Dirección del viento	1.61
42031	7	Sololá	717	San Juan la Laguna	12	San Juan la Laguna	3	Marzo	2023-03-14T00:00:00	2024-11-08T07:00:00	1	Precipitación	0
42032	7	Sololá	717	San Juan la Laguna	12	San Juan la Laguna	3	Marzo	2023-03-14T00:00:00	2024-11-08T07:00:00	8	Radiación solar	22
42033	7	Sololá	717	San Juan la Laguna	12	San Juan la Laguna	3	Marzo	2023-03-14T00:00:00	2024-11-08T08:00:00	2	Temperatura media	19.7
42034	7	Sololá	717	San Juan la Laguna	12	San Juan la Laguna	3	Marzo	2023-03-14T00:00:00	2024-11-08T08:00:00	4	Temperatura máxima	19.7
42035	7	Sololá	717	San Juan la Laguna	12	San Juan la Laguna	3	Marzo	2023-03-14T00:00:00	2024-11-08T08:00:00	3	Temperatura mínima	15.7
42036	7	Sololá	717	San Juan la Laguna	12	San Juan la Laguna	3	Marzo	2023-03-14T00:00:00	2024-11-08T08:00:00	5	Humedad	74
42037	7	Sololá	717	San Juan la Laguna	12	San Juan la Laguna	3	Marzo	2023-03-14T00:00:00	2024-11-08T08:00:00	6	Velocidad del viento	1.6
42038	7	Sololá	717	San Juan la Laguna	12	San Juan la Laguna	3	Marzo	2023-03-14T00:00:00	2024-11-08T08:00:00	7	Dirección del viento	1.61
42039	7	Sololá	717	San Juan la Laguna	12	San Juan la Laguna	3	Marzo	2023-03-14T00:00:00	2024-11-08T08:00:00	1	Precipitación	0
42040	7	Sololá	717	San Juan la Laguna	12	San Juan la Laguna	3	Marzo	2023-03-14T00:00:00	2024-11-08T08:00:00	8	Radiación solar	161
42041	7	Sololá	717	San Juan la Laguna	12	San Juan la Laguna	3	Marzo	2023-03-14T00:00:00	2024-11-08T09:00:00	2	Temperatura media	21.2
42042	7	Sololá	717	San Juan la Laguna	12	San Juan la Laguna	3	Marzo	2023-03-14T00:00:00	2024-11-08T09:00:00	4	Temperatura máxima	21.2
42043	7	Sololá	717	San Juan la Laguna	12	San Juan la Laguna	3	Marzo	2023-03-14T00:00:00	2024-11-08T09:00:00	3	Temperatura mínima	19.7
42044	7	Sololá	717	San Juan la Laguna	12	San Juan la Laguna	3	Marzo	2023-03-14T00:00:00	2024-11-08T09:00:00	5	Humedad	65
42045	7	Sololá	717	San Juan la Laguna	12	San Juan la Laguna	3	Marzo	2023-03-14T00:00:00	2024-11-08T09:00:00	6	Velocidad del viento	1.6
42046	7	Sololá	717	San Juan la Laguna	12	San Juan la Laguna	3	Marzo	2023-03-14T00:00:00	2024-11-08T09:00:00	7	Dirección del viento	1.61
42047	7	Sololá	717	San Juan la Laguna	12	San Juan la Laguna	3	Marzo	2023-03-14T00:00:00	2024-11-08T09:00:00	1	Precipitación	0
42048	7	Sololá	717	San Juan la Laguna	12	San Juan la Laguna	3	Marzo	2023-03-14T00:00:00	2024-11-08T09:00:00	8	Radiación solar	390
42049	7	Sololá	717	San Juan la Laguna	12	San Juan la Laguna	3	Marzo	2023-03-14T00:00:00	2024-11-08T10:00:00	2	Temperatura media	22.3
42050	7	Sololá	717	San Juan la Laguna	12	San Juan la Laguna	3	Marzo	2023-03-14T00:00:00	2024-11-08T10:00:00	4	Temperatura máxima	22.5
42051	7	Sololá	717	San Juan la Laguna	12	San Juan la Laguna	3	Marzo	2023-03-14T00:00:00	2024-11-08T10:00:00	3	Temperatura mínima	21.2
42052	7	Sololá	717	San Juan la Laguna	12	San Juan la Laguna	3	Marzo	2023-03-14T00:00:00	2024-11-08T10:00:00	5	Humedad	58
42053	7	Sololá	717	San Juan la Laguna	12	San Juan la Laguna	3	Marzo	2023-03-14T00:00:00	2024-11-08T10:00:00	6	Velocidad del viento	3.2
42054	7	Sololá	717	San Juan la Laguna	12	San Juan la Laguna	3	Marzo	2023-03-14T00:00:00	2024-11-08T10:00:00	7	Dirección del viento	3.22
42055	7	Sololá	717	San Juan la Laguna	12	San Juan la Laguna	3	Marzo	2023-03-14T00:00:00	2024-11-08T10:00:00	1	Precipitación	0
42056	7	Sololá	717	San Juan la Laguna	12	San Juan la Laguna	3	Marzo	2023-03-14T00:00:00	2024-11-08T10:00:00	8	Radiación solar	615
42057	7	Sololá	717	San Juan la Laguna	12	San Juan la Laguna	3	Marzo	2023-03-14T00:00:00	2024-11-08T11:00:00	2	Temperatura media	22.6
42058	7	Sololá	717	San Juan la Laguna	12	San Juan la Laguna	3	Marzo	2023-03-14T00:00:00	2024-11-08T11:00:00	4	Temperatura máxima	23.5
42059	7	Sololá	717	San Juan la Laguna	12	San Juan la Laguna	3	Marzo	2023-03-14T00:00:00	2024-11-08T11:00:00	3	Temperatura mínima	22.3
42060	7	Sololá	717	San Juan la Laguna	12	San Juan la Laguna	3	Marzo	2023-03-14T00:00:00	2024-11-08T11:00:00	5	Humedad	66
42061	7	Sololá	717	San Juan la Laguna	12	San Juan la Laguna	3	Marzo	2023-03-14T00:00:00	2024-11-08T11:00:00	6	Velocidad del viento	3.2
42062	7	Sololá	717	San Juan la Laguna	12	San Juan la Laguna	3	Marzo	2023-03-14T00:00:00	2024-11-08T11:00:00	7	Dirección del viento	3.22
42063	7	Sololá	717	San Juan la Laguna	12	San Juan la Laguna	3	Marzo	2023-03-14T00:00:00	2024-11-08T11:00:00	1	Precipitación	0
42064	7	Sololá	717	San Juan la Laguna	12	San Juan la Laguna	3	Marzo	2023-03-14T00:00:00	2024-11-08T11:00:00	8	Radiación solar	783
42065	7	Sololá	717	San Juan la Laguna	12	San Juan la Laguna	3	Marzo	2023-03-14T00:00:00	2024-11-08T12:00:00	2	Temperatura media	24.1
42066	7	Sololá	717	San Juan la Laguna	12	San Juan la Laguna	3	Marzo	2023-03-14T00:00:00	2024-11-08T12:00:00	4	Temperatura máxima	24.1
42067	7	Sololá	717	San Juan la Laguna	12	San Juan la Laguna	3	Marzo	2023-03-14T00:00:00	2024-11-08T12:00:00	3	Temperatura mínima	22.6
42068	7	Sololá	717	San Juan la Laguna	12	San Juan la Laguna	3	Marzo	2023-03-14T00:00:00	2024-11-08T12:00:00	5	Humedad	61
42069	7	Sololá	717	San Juan la Laguna	12	San Juan la Laguna	3	Marzo	2023-03-14T00:00:00	2024-11-08T12:00:00	6	Velocidad del viento	3.2
42070	7	Sololá	717	San Juan la Laguna	12	San Juan la Laguna	3	Marzo	2023-03-14T00:00:00	2024-11-08T12:00:00	7	Dirección del viento	3.22
42071	7	Sololá	717	San Juan la Laguna	12	San Juan la Laguna	3	Marzo	2023-03-14T00:00:00	2024-11-08T12:00:00	1	Precipitación	0
42072	7	Sololá	717	San Juan la Laguna	12	San Juan la Laguna	3	Marzo	2023-03-14T00:00:00	2024-11-08T12:00:00	8	Radiación solar	851
42073	7	Sololá	717	San Juan la Laguna	12	San Juan la Laguna	3	Marzo	2023-03-14T00:00:00	2024-11-08T13:00:00	2	Temperatura media	22.9
42074	7	Sololá	717	San Juan la Laguna	12	San Juan la Laguna	3	Marzo	2023-03-14T00:00:00	2024-11-08T13:00:00	4	Temperatura máxima	24.4
42075	7	Sololá	717	San Juan la Laguna	12	San Juan la Laguna	3	Marzo	2023-03-14T00:00:00	2024-11-08T13:00:00	3	Temperatura mínima	22.9
42076	7	Sololá	717	San Juan la Laguna	12	San Juan la Laguna	3	Marzo	2023-03-14T00:00:00	2024-11-08T13:00:00	5	Humedad	69
42077	7	Sololá	717	San Juan la Laguna	12	San Juan la Laguna	3	Marzo	2023-03-14T00:00:00	2024-11-08T13:00:00	6	Velocidad del viento	3.2
42078	7	Sololá	717	San Juan la Laguna	12	San Juan la Laguna	3	Marzo	2023-03-14T00:00:00	2024-11-08T13:00:00	7	Dirección del viento	3.22
42079	7	Sololá	717	San Juan la Laguna	12	San Juan la Laguna	3	Marzo	2023-03-14T00:00:00	2024-11-08T13:00:00	1	Precipitación	0
42080	7	Sololá	717	San Juan la Laguna	12	San Juan la Laguna	3	Marzo	2023-03-14T00:00:00	2024-11-08T13:00:00	8	Radiación solar	654
42081	7	Sololá	717	San Juan la Laguna	12	San Juan la Laguna	3	Marzo	2023-03-14T00:00:00	2024-11-08T14:00:00	2	Temperatura media	22.3
42082	7	Sololá	717	San Juan la Laguna	12	San Juan la Laguna	3	Marzo	2023-03-14T00:00:00	2024-11-08T14:00:00	4	Temperatura máxima	23.4
42083	7	Sololá	717	San Juan la Laguna	12	San Juan la Laguna	3	Marzo	2023-03-14T00:00:00	2024-11-08T14:00:00	3	Temperatura mínima	22.2
42084	7	Sololá	717	San Juan la Laguna	12	San Juan la Laguna	3	Marzo	2023-03-14T00:00:00	2024-11-08T14:00:00	5	Humedad	71
42085	7	Sololá	717	San Juan la Laguna	12	San Juan la Laguna	3	Marzo	2023-03-14T00:00:00	2024-11-08T14:00:00	6	Velocidad del viento	9.7
42086	7	Sololá	717	San Juan la Laguna	12	San Juan la Laguna	3	Marzo	2023-03-14T00:00:00	2024-11-08T14:00:00	7	Dirección del viento	9.66
42087	7	Sololá	717	San Juan la Laguna	12	San Juan la Laguna	3	Marzo	2023-03-14T00:00:00	2024-11-08T14:00:00	1	Precipitación	0
42088	7	Sololá	717	San Juan la Laguna	12	San Juan la Laguna	3	Marzo	2023-03-14T00:00:00	2024-11-08T14:00:00	8	Radiación solar	752
42089	7	Sololá	717	San Juan la Laguna	12	San Juan la Laguna	3	Marzo	2023-03-14T00:00:00	2024-11-08T15:00:00	2	Temperatura media	21.9
42090	7	Sololá	717	San Juan la Laguna	12	San Juan la Laguna	3	Marzo	2023-03-14T00:00:00	2024-11-08T15:00:00	4	Temperatura máxima	23.1
42091	7	Sololá	717	San Juan la Laguna	12	San Juan la Laguna	3	Marzo	2023-03-14T00:00:00	2024-11-08T15:00:00	3	Temperatura mínima	21.8
42092	7	Sololá	717	San Juan la Laguna	12	San Juan la Laguna	3	Marzo	2023-03-14T00:00:00	2024-11-08T15:00:00	5	Humedad	75
42093	7	Sololá	717	San Juan la Laguna	12	San Juan la Laguna	3	Marzo	2023-03-14T00:00:00	2024-11-08T15:00:00	6	Velocidad del viento	9.7
42094	7	Sololá	717	San Juan la Laguna	12	San Juan la Laguna	3	Marzo	2023-03-14T00:00:00	2024-11-08T15:00:00	7	Dirección del viento	9.66
42095	7	Sololá	717	San Juan la Laguna	12	San Juan la Laguna	3	Marzo	2023-03-14T00:00:00	2024-11-08T15:00:00	1	Precipitación	0
42096	7	Sololá	717	San Juan la Laguna	12	San Juan la Laguna	3	Marzo	2023-03-14T00:00:00	2024-11-08T15:00:00	8	Radiación solar	636
42097	7	Sololá	717	San Juan la Laguna	12	San Juan la Laguna	3	Marzo	2023-03-14T00:00:00	2024-11-08T16:00:00	2	Temperatura media	20.7
42098	7	Sololá	717	San Juan la Laguna	12	San Juan la Laguna	3	Marzo	2023-03-14T00:00:00	2024-11-08T16:00:00	4	Temperatura máxima	22
42099	7	Sololá	717	San Juan la Laguna	12	San Juan la Laguna	3	Marzo	2023-03-14T00:00:00	2024-11-08T16:00:00	3	Temperatura mínima	20.7
42100	7	Sololá	717	San Juan la Laguna	12	San Juan la Laguna	3	Marzo	2023-03-14T00:00:00	2024-11-08T16:00:00	5	Humedad	77
42101	7	Sololá	717	San Juan la Laguna	12	San Juan la Laguna	3	Marzo	2023-03-14T00:00:00	2024-11-08T16:00:00	6	Velocidad del viento	8
42102	7	Sololá	717	San Juan la Laguna	12	San Juan la Laguna	3	Marzo	2023-03-14T00:00:00	2024-11-08T16:00:00	7	Dirección del viento	8.05
42103	7	Sololá	717	San Juan la Laguna	12	San Juan la Laguna	3	Marzo	2023-03-14T00:00:00	2024-11-08T16:00:00	1	Precipitación	0
42104	7	Sololá	717	San Juan la Laguna	12	San Juan la Laguna	3	Marzo	2023-03-14T00:00:00	2024-11-08T16:00:00	8	Radiación solar	237
42105	7	Sololá	717	San Juan la Laguna	12	San Juan la Laguna	3	Marzo	2023-03-14T00:00:00	2024-11-08T17:00:00	2	Temperatura media	21.4
42106	7	Sololá	717	San Juan la Laguna	12	San Juan la Laguna	3	Marzo	2023-03-14T00:00:00	2024-11-08T17:00:00	4	Temperatura máxima	21.5
42107	7	Sololá	717	San Juan la Laguna	12	San Juan la Laguna	3	Marzo	2023-03-14T00:00:00	2024-11-08T17:00:00	3	Temperatura mínima	20.7
42108	7	Sololá	717	San Juan la Laguna	12	San Juan la Laguna	3	Marzo	2023-03-14T00:00:00	2024-11-08T17:00:00	5	Humedad	74
42109	7	Sololá	717	San Juan la Laguna	12	San Juan la Laguna	3	Marzo	2023-03-14T00:00:00	2024-11-08T17:00:00	6	Velocidad del viento	6.4
42110	7	Sololá	717	San Juan la Laguna	12	San Juan la Laguna	3	Marzo	2023-03-14T00:00:00	2024-11-08T17:00:00	7	Dirección del viento	6.44
42111	7	Sololá	717	San Juan la Laguna	12	San Juan la Laguna	3	Marzo	2023-03-14T00:00:00	2024-11-08T17:00:00	1	Precipitación	0
42112	7	Sololá	717	San Juan la Laguna	12	San Juan la Laguna	3	Marzo	2023-03-14T00:00:00	2024-11-08T17:00:00	8	Radiación solar	325
42113	7	Sololá	717	San Juan la Laguna	12	San Juan la Laguna	3	Marzo	2023-03-14T00:00:00	2024-11-08T18:00:00	2	Temperatura media	20.2
42114	7	Sololá	717	San Juan la Laguna	12	San Juan la Laguna	3	Marzo	2023-03-14T00:00:00	2024-11-08T18:00:00	4	Temperatura máxima	21.4
42115	7	Sololá	717	San Juan la Laguna	12	San Juan la Laguna	3	Marzo	2023-03-14T00:00:00	2024-11-08T18:00:00	3	Temperatura mínima	20.2
42116	7	Sololá	717	San Juan la Laguna	12	San Juan la Laguna	3	Marzo	2023-03-14T00:00:00	2024-11-08T18:00:00	5	Humedad	79
42117	7	Sololá	717	San Juan la Laguna	12	San Juan la Laguna	3	Marzo	2023-03-14T00:00:00	2024-11-08T18:00:00	6	Velocidad del viento	4.8
42118	7	Sololá	717	San Juan la Laguna	12	San Juan la Laguna	3	Marzo	2023-03-14T00:00:00	2024-11-08T18:00:00	7	Dirección del viento	4.83
42119	7	Sololá	717	San Juan la Laguna	12	San Juan la Laguna	3	Marzo	2023-03-14T00:00:00	2024-11-08T18:00:00	1	Precipitación	0
42120	7	Sololá	717	San Juan la Laguna	12	San Juan la Laguna	3	Marzo	2023-03-14T00:00:00	2024-11-08T18:00:00	8	Radiación solar	67
42121	7	Sololá	717	San Juan la Laguna	12	San Juan la Laguna	3	Marzo	2023-03-14T00:00:00	2024-11-08T19:00:00	2	Temperatura media	18.4
42122	7	Sololá	717	San Juan la Laguna	12	San Juan la Laguna	3	Marzo	2023-03-14T00:00:00	2024-11-08T19:00:00	4	Temperatura máxima	20.2
42123	7	Sololá	717	San Juan la Laguna	12	San Juan la Laguna	3	Marzo	2023-03-14T00:00:00	2024-11-08T19:00:00	3	Temperatura mínima	18.4
42124	7	Sololá	717	San Juan la Laguna	12	San Juan la Laguna	3	Marzo	2023-03-14T00:00:00	2024-11-08T19:00:00	5	Humedad	88
42125	7	Sololá	717	San Juan la Laguna	12	San Juan la Laguna	3	Marzo	2023-03-14T00:00:00	2024-11-08T19:00:00	6	Velocidad del viento	3.2
42126	7	Sololá	717	San Juan la Laguna	12	San Juan la Laguna	3	Marzo	2023-03-14T00:00:00	2024-11-08T19:00:00	7	Dirección del viento	3.22
42127	7	Sololá	717	San Juan la Laguna	12	San Juan la Laguna	3	Marzo	2023-03-14T00:00:00	2024-11-08T19:00:00	1	Precipitación	1
42128	7	Sololá	717	San Juan la Laguna	12	San Juan la Laguna	3	Marzo	2023-03-14T00:00:00	2024-11-08T19:00:00	8	Radiación solar	0
42129	7	Sololá	717	San Juan la Laguna	12	San Juan la Laguna	3	Marzo	2023-03-14T00:00:00	2024-11-08T20:00:00	2	Temperatura media	17.9
42130	7	Sololá	717	San Juan la Laguna	12	San Juan la Laguna	3	Marzo	2023-03-14T00:00:00	2024-11-08T20:00:00	4	Temperatura máxima	18.4
42131	7	Sololá	717	San Juan la Laguna	12	San Juan la Laguna	3	Marzo	2023-03-14T00:00:00	2024-11-08T20:00:00	3	Temperatura mínima	17.9
42132	7	Sololá	717	San Juan la Laguna	12	San Juan la Laguna	3	Marzo	2023-03-14T00:00:00	2024-11-08T20:00:00	5	Humedad	91
42133	7	Sololá	717	San Juan la Laguna	12	San Juan la Laguna	3	Marzo	2023-03-14T00:00:00	2024-11-08T20:00:00	6	Velocidad del viento	0
42134	7	Sololá	717	San Juan la Laguna	12	San Juan la Laguna	3	Marzo	2023-03-14T00:00:00	2024-11-08T20:00:00	7	Dirección del viento	0
42135	7	Sololá	717	San Juan la Laguna	12	San Juan la Laguna	3	Marzo	2023-03-14T00:00:00	2024-11-08T20:00:00	1	Precipitación	0.2
42136	7	Sololá	717	San Juan la Laguna	12	San Juan la Laguna	3	Marzo	2023-03-14T00:00:00	2024-11-08T20:00:00	8	Radiación solar	0
42137	7	Sololá	717	San Juan la Laguna	12	San Juan la Laguna	3	Marzo	2023-03-14T00:00:00	2024-11-08T21:00:00	2	Temperatura media	17.4
42138	7	Sololá	717	San Juan la Laguna	12	San Juan la Laguna	3	Marzo	2023-03-14T00:00:00	2024-11-08T21:00:00	4	Temperatura máxima	17.9
42139	7	Sololá	717	San Juan la Laguna	12	San Juan la Laguna	3	Marzo	2023-03-14T00:00:00	2024-11-08T21:00:00	3	Temperatura mínima	17.2
42140	7	Sololá	717	San Juan la Laguna	12	San Juan la Laguna	3	Marzo	2023-03-14T00:00:00	2024-11-08T21:00:00	5	Humedad	92
42141	7	Sololá	717	San Juan la Laguna	12	San Juan la Laguna	3	Marzo	2023-03-14T00:00:00	2024-11-08T21:00:00	6	Velocidad del viento	0
42142	7	Sololá	717	San Juan la Laguna	12	San Juan la Laguna	3	Marzo	2023-03-14T00:00:00	2024-11-08T21:00:00	7	Dirección del viento	0
42143	7	Sololá	717	San Juan la Laguna	12	San Juan la Laguna	3	Marzo	2023-03-14T00:00:00	2024-11-08T21:00:00	1	Precipitación	0
42144	7	Sololá	717	San Juan la Laguna	12	San Juan la Laguna	3	Marzo	2023-03-14T00:00:00	2024-11-08T21:00:00	8	Radiación solar	0
42145	7	Sololá	717	San Juan la Laguna	12	San Juan la Laguna	3	Marzo	2023-03-14T00:00:00	2024-11-08T22:00:00	2	Temperatura media	16.8
42146	7	Sololá	717	San Juan la Laguna	12	San Juan la Laguna	3	Marzo	2023-03-14T00:00:00	2024-11-08T22:00:00	4	Temperatura máxima	17.4
42147	7	Sololá	717	San Juan la Laguna	12	San Juan la Laguna	3	Marzo	2023-03-14T00:00:00	2024-11-08T22:00:00	3	Temperatura mínima	16.7
42148	7	Sololá	717	San Juan la Laguna	12	San Juan la Laguna	3	Marzo	2023-03-14T00:00:00	2024-11-08T22:00:00	5	Humedad	90
42149	7	Sololá	717	San Juan la Laguna	12	San Juan la Laguna	3	Marzo	2023-03-14T00:00:00	2024-11-08T22:00:00	6	Velocidad del viento	1.6
42150	7	Sololá	717	San Juan la Laguna	12	San Juan la Laguna	3	Marzo	2023-03-14T00:00:00	2024-11-08T22:00:00	7	Dirección del viento	1.61
42151	7	Sololá	717	San Juan la Laguna	12	San Juan la Laguna	3	Marzo	2023-03-14T00:00:00	2024-11-08T22:00:00	1	Precipitación	0
42152	7	Sololá	717	San Juan la Laguna	12	San Juan la Laguna	3	Marzo	2023-03-14T00:00:00	2024-11-08T22:00:00	8	Radiación solar	0
42153	7	Sololá	717	San Juan la Laguna	12	San Juan la Laguna	3	Marzo	2023-03-14T00:00:00	2024-11-08T23:00:00	2	Temperatura media	16.1
42154	7	Sololá	717	San Juan la Laguna	12	San Juan la Laguna	3	Marzo	2023-03-14T00:00:00	2024-11-08T23:00:00	4	Temperatura máxima	16.8
42155	7	Sololá	717	San Juan la Laguna	12	San Juan la Laguna	3	Marzo	2023-03-14T00:00:00	2024-11-08T23:00:00	3	Temperatura mínima	15.9
42156	7	Sololá	717	San Juan la Laguna	12	San Juan la Laguna	3	Marzo	2023-03-14T00:00:00	2024-11-08T23:00:00	5	Humedad	91
42157	7	Sololá	717	San Juan la Laguna	12	San Juan la Laguna	3	Marzo	2023-03-14T00:00:00	2024-11-08T23:00:00	6	Velocidad del viento	3.2
42158	7	Sololá	717	San Juan la Laguna	12	San Juan la Laguna	3	Marzo	2023-03-14T00:00:00	2024-11-08T23:00:00	7	Dirección del viento	3.22
42159	7	Sololá	717	San Juan la Laguna	12	San Juan la Laguna	3	Marzo	2023-03-14T00:00:00	2024-11-08T23:00:00	1	Precipitación	0
42160	7	Sololá	717	San Juan la Laguna	12	San Juan la Laguna	3	Marzo	2023-03-14T00:00:00	2024-11-08T23:00:00	8	Radiación solar	0
42161	7	Sololá	717	San Juan la Laguna	12	San Juan la Laguna	3	Marzo	2023-03-15T00:00:00	2024-11-08T00:00:00	2	Temperatura media	15.9
42162	7	Sololá	717	San Juan la Laguna	12	San Juan la Laguna	3	Marzo	2023-03-15T00:00:00	2024-11-08T00:00:00	4	Temperatura máxima	16.3
42163	7	Sololá	717	San Juan la Laguna	12	San Juan la Laguna	3	Marzo	2023-03-15T00:00:00	2024-11-08T00:00:00	3	Temperatura mínima	15.9
42164	7	Sololá	717	San Juan la Laguna	12	San Juan la Laguna	3	Marzo	2023-03-15T00:00:00	2024-11-08T00:00:00	5	Humedad	89
42165	7	Sololá	717	San Juan la Laguna	12	San Juan la Laguna	3	Marzo	2023-03-15T00:00:00	2024-11-08T00:00:00	6	Velocidad del viento	3.2
42166	7	Sololá	717	San Juan la Laguna	12	San Juan la Laguna	3	Marzo	2023-03-15T00:00:00	2024-11-08T00:00:00	7	Dirección del viento	3.22
42167	7	Sololá	717	San Juan la Laguna	12	San Juan la Laguna	3	Marzo	2023-03-15T00:00:00	2024-11-08T00:00:00	1	Precipitación	0.2
42168	7	Sololá	717	San Juan la Laguna	12	San Juan la Laguna	3	Marzo	2023-03-15T00:00:00	2024-11-08T00:00:00	8	Radiación solar	0
42169	7	Sololá	717	San Juan la Laguna	12	San Juan la Laguna	3	Marzo	2023-03-15T00:00:00	2024-11-08T01:00:00	2	Temperatura media	15.1
42170	7	Sololá	717	San Juan la Laguna	12	San Juan la Laguna	3	Marzo	2023-03-15T00:00:00	2024-11-08T01:00:00	4	Temperatura máxima	15.9
42171	7	Sololá	717	San Juan la Laguna	12	San Juan la Laguna	3	Marzo	2023-03-15T00:00:00	2024-11-08T01:00:00	3	Temperatura mínima	15.1
42172	7	Sololá	717	San Juan la Laguna	12	San Juan la Laguna	3	Marzo	2023-03-15T00:00:00	2024-11-08T01:00:00	5	Humedad	89
42173	7	Sololá	717	San Juan la Laguna	12	San Juan la Laguna	3	Marzo	2023-03-15T00:00:00	2024-11-08T01:00:00	6	Velocidad del viento	1.6
42174	7	Sololá	717	San Juan la Laguna	12	San Juan la Laguna	3	Marzo	2023-03-15T00:00:00	2024-11-08T01:00:00	7	Dirección del viento	1.61
42175	7	Sololá	717	San Juan la Laguna	12	San Juan la Laguna	3	Marzo	2023-03-15T00:00:00	2024-11-08T01:00:00	1	Precipitación	0
42176	7	Sololá	717	San Juan la Laguna	12	San Juan la Laguna	3	Marzo	2023-03-15T00:00:00	2024-11-08T01:00:00	8	Radiación solar	0
42177	7	Sololá	717	San Juan la Laguna	12	San Juan la Laguna	3	Marzo	2023-03-15T00:00:00	2024-11-08T02:00:00	2	Temperatura media	14.8
42178	7	Sololá	717	San Juan la Laguna	12	San Juan la Laguna	3	Marzo	2023-03-15T00:00:00	2024-11-08T02:00:00	4	Temperatura máxima	15.3
42179	7	Sololá	717	San Juan la Laguna	12	San Juan la Laguna	3	Marzo	2023-03-15T00:00:00	2024-11-08T02:00:00	3	Temperatura mínima	14.8
42180	7	Sololá	717	San Juan la Laguna	12	San Juan la Laguna	3	Marzo	2023-03-15T00:00:00	2024-11-08T02:00:00	5	Humedad	89
42181	7	Sololá	717	San Juan la Laguna	12	San Juan la Laguna	3	Marzo	2023-03-15T00:00:00	2024-11-08T02:00:00	6	Velocidad del viento	3.2
42182	7	Sololá	717	San Juan la Laguna	12	San Juan la Laguna	3	Marzo	2023-03-15T00:00:00	2024-11-08T02:00:00	7	Dirección del viento	3.22
42183	7	Sololá	717	San Juan la Laguna	12	San Juan la Laguna	3	Marzo	2023-03-15T00:00:00	2024-11-08T02:00:00	1	Precipitación	0
42184	7	Sololá	717	San Juan la Laguna	12	San Juan la Laguna	3	Marzo	2023-03-15T00:00:00	2024-11-08T02:00:00	8	Radiación solar	0
42185	7	Sololá	717	San Juan la Laguna	12	San Juan la Laguna	3	Marzo	2023-03-15T00:00:00	2024-11-08T03:00:00	2	Temperatura media	14.4
42186	7	Sololá	717	San Juan la Laguna	12	San Juan la Laguna	3	Marzo	2023-03-15T00:00:00	2024-11-08T03:00:00	4	Temperatura máxima	14.8
42187	7	Sololá	717	San Juan la Laguna	12	San Juan la Laguna	3	Marzo	2023-03-15T00:00:00	2024-11-08T03:00:00	3	Temperatura mínima	14.4
42188	7	Sololá	717	San Juan la Laguna	12	San Juan la Laguna	3	Marzo	2023-03-15T00:00:00	2024-11-08T03:00:00	5	Humedad	87
42189	7	Sololá	717	San Juan la Laguna	12	San Juan la Laguna	3	Marzo	2023-03-15T00:00:00	2024-11-08T03:00:00	6	Velocidad del viento	1.6
42190	7	Sololá	717	San Juan la Laguna	12	San Juan la Laguna	3	Marzo	2023-03-15T00:00:00	2024-11-08T03:00:00	7	Dirección del viento	1.61
42191	7	Sololá	717	San Juan la Laguna	12	San Juan la Laguna	3	Marzo	2023-03-15T00:00:00	2024-11-08T03:00:00	1	Precipitación	0
42192	7	Sololá	717	San Juan la Laguna	12	San Juan la Laguna	3	Marzo	2023-03-15T00:00:00	2024-11-08T03:00:00	8	Radiación solar	0
42193	7	Sololá	717	San Juan la Laguna	12	San Juan la Laguna	3	Marzo	2023-03-15T00:00:00	2024-11-08T04:00:00	2	Temperatura media	13.8
42194	7	Sololá	717	San Juan la Laguna	12	San Juan la Laguna	3	Marzo	2023-03-15T00:00:00	2024-11-08T04:00:00	4	Temperatura máxima	14.5
42195	7	Sololá	717	San Juan la Laguna	12	San Juan la Laguna	3	Marzo	2023-03-15T00:00:00	2024-11-08T04:00:00	3	Temperatura mínima	13.8
42196	7	Sololá	717	San Juan la Laguna	12	San Juan la Laguna	3	Marzo	2023-03-15T00:00:00	2024-11-08T04:00:00	5	Humedad	88
42197	7	Sololá	717	San Juan la Laguna	12	San Juan la Laguna	3	Marzo	2023-03-15T00:00:00	2024-11-08T04:00:00	6	Velocidad del viento	1.6
42198	7	Sololá	717	San Juan la Laguna	12	San Juan la Laguna	3	Marzo	2023-03-15T00:00:00	2024-11-08T04:00:00	7	Dirección del viento	1.61
42199	7	Sololá	717	San Juan la Laguna	12	San Juan la Laguna	3	Marzo	2023-03-15T00:00:00	2024-11-08T04:00:00	1	Precipitación	0
42200	7	Sololá	717	San Juan la Laguna	12	San Juan la Laguna	3	Marzo	2023-03-15T00:00:00	2024-11-08T04:00:00	8	Radiación solar	0
42201	7	Sololá	717	San Juan la Laguna	12	San Juan la Laguna	3	Marzo	2023-03-15T00:00:00	2024-11-08T05:00:00	2	Temperatura media	13.9
42202	7	Sololá	717	San Juan la Laguna	12	San Juan la Laguna	3	Marzo	2023-03-15T00:00:00	2024-11-08T05:00:00	4	Temperatura máxima	14
42203	7	Sololá	717	San Juan la Laguna	12	San Juan la Laguna	3	Marzo	2023-03-15T00:00:00	2024-11-08T05:00:00	3	Temperatura mínima	13.7
42204	7	Sololá	717	San Juan la Laguna	12	San Juan la Laguna	3	Marzo	2023-03-15T00:00:00	2024-11-08T05:00:00	5	Humedad	85
42205	7	Sololá	717	San Juan la Laguna	12	San Juan la Laguna	3	Marzo	2023-03-15T00:00:00	2024-11-08T05:00:00	6	Velocidad del viento	3.2
42206	7	Sololá	717	San Juan la Laguna	12	San Juan la Laguna	3	Marzo	2023-03-15T00:00:00	2024-11-08T05:00:00	7	Dirección del viento	3.22
42207	7	Sololá	717	San Juan la Laguna	12	San Juan la Laguna	3	Marzo	2023-03-15T00:00:00	2024-11-08T05:00:00	1	Precipitación	0
42208	7	Sololá	717	San Juan la Laguna	12	San Juan la Laguna	3	Marzo	2023-03-15T00:00:00	2024-11-08T05:00:00	8	Radiación solar	0
42209	7	Sololá	717	San Juan la Laguna	12	San Juan la Laguna	3	Marzo	2023-03-15T00:00:00	2024-11-08T06:00:00	2	Temperatura media	13.7
42210	7	Sololá	717	San Juan la Laguna	12	San Juan la Laguna	3	Marzo	2023-03-15T00:00:00	2024-11-08T06:00:00	4	Temperatura máxima	14.1
42211	7	Sololá	717	San Juan la Laguna	12	San Juan la Laguna	3	Marzo	2023-03-15T00:00:00	2024-11-08T06:00:00	3	Temperatura mínima	13.4
42212	7	Sololá	717	San Juan la Laguna	12	San Juan la Laguna	3	Marzo	2023-03-15T00:00:00	2024-11-08T06:00:00	5	Humedad	86
42213	7	Sololá	717	San Juan la Laguna	12	San Juan la Laguna	3	Marzo	2023-03-15T00:00:00	2024-11-08T06:00:00	6	Velocidad del viento	1.6
42214	7	Sololá	717	San Juan la Laguna	12	San Juan la Laguna	3	Marzo	2023-03-15T00:00:00	2024-11-08T06:00:00	7	Dirección del viento	1.61
42215	7	Sololá	717	San Juan la Laguna	12	San Juan la Laguna	3	Marzo	2023-03-15T00:00:00	2024-11-08T06:00:00	1	Precipitación	0
42216	7	Sololá	717	San Juan la Laguna	12	San Juan la Laguna	3	Marzo	2023-03-15T00:00:00	2024-11-08T06:00:00	8	Radiación solar	0
42217	7	Sololá	717	San Juan la Laguna	12	San Juan la Laguna	3	Marzo	2023-03-15T00:00:00	2024-11-08T07:00:00	2	Temperatura media	14.3
42218	7	Sololá	717	San Juan la Laguna	12	San Juan la Laguna	3	Marzo	2023-03-15T00:00:00	2024-11-08T07:00:00	4	Temperatura máxima	14.3
42219	7	Sololá	717	San Juan la Laguna	12	San Juan la Laguna	3	Marzo	2023-03-15T00:00:00	2024-11-08T07:00:00	3	Temperatura mínima	13.4
42220	7	Sololá	717	San Juan la Laguna	12	San Juan la Laguna	3	Marzo	2023-03-15T00:00:00	2024-11-08T07:00:00	5	Humedad	85
42221	7	Sololá	717	San Juan la Laguna	12	San Juan la Laguna	3	Marzo	2023-03-15T00:00:00	2024-11-08T07:00:00	6	Velocidad del viento	3.2
42222	7	Sololá	717	San Juan la Laguna	12	San Juan la Laguna	3	Marzo	2023-03-15T00:00:00	2024-11-08T07:00:00	7	Dirección del viento	3.22
42223	7	Sololá	717	San Juan la Laguna	12	San Juan la Laguna	3	Marzo	2023-03-15T00:00:00	2024-11-08T07:00:00	1	Precipitación	0
42224	7	Sololá	717	San Juan la Laguna	12	San Juan la Laguna	3	Marzo	2023-03-15T00:00:00	2024-11-08T07:00:00	8	Radiación solar	22
42225	7	Sololá	717	San Juan la Laguna	12	San Juan la Laguna	3	Marzo	2023-03-15T00:00:00	2024-11-08T08:00:00	2	Temperatura media	18.5
42226	7	Sololá	717	San Juan la Laguna	12	San Juan la Laguna	3	Marzo	2023-03-15T00:00:00	2024-11-08T08:00:00	4	Temperatura máxima	18.5
42227	7	Sololá	717	San Juan la Laguna	12	San Juan la Laguna	3	Marzo	2023-03-15T00:00:00	2024-11-08T08:00:00	3	Temperatura mínima	14.3
42228	7	Sololá	717	San Juan la Laguna	12	San Juan la Laguna	3	Marzo	2023-03-15T00:00:00	2024-11-08T08:00:00	5	Humedad	76
42229	7	Sololá	717	San Juan la Laguna	12	San Juan la Laguna	3	Marzo	2023-03-15T00:00:00	2024-11-08T08:00:00	6	Velocidad del viento	1.6
42230	7	Sololá	717	San Juan la Laguna	12	San Juan la Laguna	3	Marzo	2023-03-15T00:00:00	2024-11-08T08:00:00	7	Dirección del viento	1.61
42231	7	Sololá	717	San Juan la Laguna	12	San Juan la Laguna	3	Marzo	2023-03-15T00:00:00	2024-11-08T08:00:00	1	Precipitación	0
42232	7	Sololá	717	San Juan la Laguna	12	San Juan la Laguna	3	Marzo	2023-03-15T00:00:00	2024-11-08T08:00:00	8	Radiación solar	179
42233	7	Sololá	717	San Juan la Laguna	12	San Juan la Laguna	3	Marzo	2023-03-15T00:00:00	2024-11-08T09:00:00	2	Temperatura media	20.9
42234	7	Sololá	717	San Juan la Laguna	12	San Juan la Laguna	3	Marzo	2023-03-15T00:00:00	2024-11-08T09:00:00	4	Temperatura máxima	21
42235	7	Sololá	717	San Juan la Laguna	12	San Juan la Laguna	3	Marzo	2023-03-15T00:00:00	2024-11-08T09:00:00	3	Temperatura mínima	18.5
42236	7	Sololá	717	San Juan la Laguna	12	San Juan la Laguna	3	Marzo	2023-03-15T00:00:00	2024-11-08T09:00:00	5	Humedad	68
42237	7	Sololá	717	San Juan la Laguna	12	San Juan la Laguna	3	Marzo	2023-03-15T00:00:00	2024-11-08T09:00:00	6	Velocidad del viento	1.6
42238	7	Sololá	717	San Juan la Laguna	12	San Juan la Laguna	3	Marzo	2023-03-15T00:00:00	2024-11-08T09:00:00	7	Dirección del viento	1.61
42239	7	Sololá	717	San Juan la Laguna	12	San Juan la Laguna	3	Marzo	2023-03-15T00:00:00	2024-11-08T09:00:00	1	Precipitación	0
42240	7	Sololá	717	San Juan la Laguna	12	San Juan la Laguna	3	Marzo	2023-03-15T00:00:00	2024-11-08T09:00:00	8	Radiación solar	420
42241	7	Sololá	717	San Juan la Laguna	12	San Juan la Laguna	3	Marzo	2023-03-15T00:00:00	2024-11-08T10:00:00	2	Temperatura media	21.5
42242	7	Sololá	717	San Juan la Laguna	12	San Juan la Laguna	3	Marzo	2023-03-15T00:00:00	2024-11-08T10:00:00	4	Temperatura máxima	21.9
42243	7	Sololá	717	San Juan la Laguna	12	San Juan la Laguna	3	Marzo	2023-03-15T00:00:00	2024-11-08T10:00:00	3	Temperatura mínima	20.9
42244	7	Sololá	717	San Juan la Laguna	12	San Juan la Laguna	3	Marzo	2023-03-15T00:00:00	2024-11-08T10:00:00	5	Humedad	65
42245	7	Sololá	717	San Juan la Laguna	12	San Juan la Laguna	3	Marzo	2023-03-15T00:00:00	2024-11-08T10:00:00	6	Velocidad del viento	1.6
42246	7	Sololá	717	San Juan la Laguna	12	San Juan la Laguna	3	Marzo	2023-03-15T00:00:00	2024-11-08T10:00:00	7	Dirección del viento	1.61
42247	7	Sololá	717	San Juan la Laguna	12	San Juan la Laguna	3	Marzo	2023-03-15T00:00:00	2024-11-08T10:00:00	1	Precipitación	0
42248	7	Sololá	717	San Juan la Laguna	12	San Juan la Laguna	3	Marzo	2023-03-15T00:00:00	2024-11-08T10:00:00	8	Radiación solar	565
42249	7	Sololá	717	San Juan la Laguna	12	San Juan la Laguna	3	Marzo	2023-03-15T00:00:00	2024-11-08T11:00:00	2	Temperatura media	24.1
42250	7	Sololá	717	San Juan la Laguna	12	San Juan la Laguna	3	Marzo	2023-03-15T00:00:00	2024-11-08T11:00:00	4	Temperatura máxima	24.1
42251	7	Sololá	717	San Juan la Laguna	12	San Juan la Laguna	3	Marzo	2023-03-15T00:00:00	2024-11-08T11:00:00	3	Temperatura mínima	21.2
42252	7	Sololá	717	San Juan la Laguna	12	San Juan la Laguna	3	Marzo	2023-03-15T00:00:00	2024-11-08T11:00:00	5	Humedad	52
42253	7	Sololá	717	San Juan la Laguna	12	San Juan la Laguna	3	Marzo	2023-03-15T00:00:00	2024-11-08T11:00:00	6	Velocidad del viento	1.6
42254	7	Sololá	717	San Juan la Laguna	12	San Juan la Laguna	3	Marzo	2023-03-15T00:00:00	2024-11-08T11:00:00	7	Dirección del viento	1.61
42255	7	Sololá	717	San Juan la Laguna	12	San Juan la Laguna	3	Marzo	2023-03-15T00:00:00	2024-11-08T11:00:00	1	Precipitación	0
42256	7	Sololá	717	San Juan la Laguna	12	San Juan la Laguna	3	Marzo	2023-03-15T00:00:00	2024-11-08T11:00:00	8	Radiación solar	528
42257	7	Sololá	717	San Juan la Laguna	12	San Juan la Laguna	3	Marzo	2023-03-15T00:00:00	2024-11-08T12:00:00	2	Temperatura media	24.7
42258	7	Sololá	717	San Juan la Laguna	12	San Juan la Laguna	3	Marzo	2023-03-15T00:00:00	2024-11-08T12:00:00	4	Temperatura máxima	25
42259	7	Sololá	717	San Juan la Laguna	12	San Juan la Laguna	3	Marzo	2023-03-15T00:00:00	2024-11-08T12:00:00	3	Temperatura mínima	24.1
42260	7	Sololá	717	San Juan la Laguna	12	San Juan la Laguna	3	Marzo	2023-03-15T00:00:00	2024-11-08T12:00:00	5	Humedad	48
42261	7	Sololá	717	San Juan la Laguna	12	San Juan la Laguna	3	Marzo	2023-03-15T00:00:00	2024-11-08T12:00:00	6	Velocidad del viento	3.2
42262	7	Sololá	717	San Juan la Laguna	12	San Juan la Laguna	3	Marzo	2023-03-15T00:00:00	2024-11-08T12:00:00	7	Dirección del viento	3.22
42263	7	Sololá	717	San Juan la Laguna	12	San Juan la Laguna	3	Marzo	2023-03-15T00:00:00	2024-11-08T12:00:00	1	Precipitación	0
42264	7	Sololá	717	San Juan la Laguna	12	San Juan la Laguna	3	Marzo	2023-03-15T00:00:00	2024-11-08T12:00:00	8	Radiación solar	870
42265	7	Sololá	717	San Juan la Laguna	12	San Juan la Laguna	3	Marzo	2023-03-15T00:00:00	2024-11-08T13:00:00	2	Temperatura media	24.9
42266	7	Sololá	717	San Juan la Laguna	12	San Juan la Laguna	3	Marzo	2023-03-15T00:00:00	2024-11-08T13:00:00	4	Temperatura máxima	25.7
42267	7	Sololá	717	San Juan la Laguna	12	San Juan la Laguna	3	Marzo	2023-03-15T00:00:00	2024-11-08T13:00:00	3	Temperatura mínima	24.4
42268	7	Sololá	717	San Juan la Laguna	12	San Juan la Laguna	3	Marzo	2023-03-15T00:00:00	2024-11-08T13:00:00	5	Humedad	60
42269	7	Sololá	717	San Juan la Laguna	12	San Juan la Laguna	3	Marzo	2023-03-15T00:00:00	2024-11-08T13:00:00	6	Velocidad del viento	3.2
42270	7	Sololá	717	San Juan la Laguna	12	San Juan la Laguna	3	Marzo	2023-03-15T00:00:00	2024-11-08T13:00:00	7	Dirección del viento	3.22
42271	7	Sololá	717	San Juan la Laguna	12	San Juan la Laguna	3	Marzo	2023-03-15T00:00:00	2024-11-08T13:00:00	1	Precipitación	0
42272	7	Sololá	717	San Juan la Laguna	12	San Juan la Laguna	3	Marzo	2023-03-15T00:00:00	2024-11-08T13:00:00	8	Radiación solar	747
42273	7	Sololá	717	San Juan la Laguna	12	San Juan la Laguna	3	Marzo	2023-03-15T00:00:00	2024-11-08T14:00:00	2	Temperatura media	20.2
42274	7	Sololá	717	San Juan la Laguna	12	San Juan la Laguna	3	Marzo	2023-03-15T00:00:00	2024-11-08T14:00:00	4	Temperatura máxima	25
42275	7	Sololá	717	San Juan la Laguna	12	San Juan la Laguna	3	Marzo	2023-03-15T00:00:00	2024-11-08T14:00:00	3	Temperatura mínima	20.2
42276	7	Sololá	717	San Juan la Laguna	12	San Juan la Laguna	3	Marzo	2023-03-15T00:00:00	2024-11-08T14:00:00	5	Humedad	80
42277	7	Sololá	717	San Juan la Laguna	12	San Juan la Laguna	3	Marzo	2023-03-15T00:00:00	2024-11-08T14:00:00	6	Velocidad del viento	8
42278	7	Sololá	717	San Juan la Laguna	12	San Juan la Laguna	3	Marzo	2023-03-15T00:00:00	2024-11-08T14:00:00	7	Dirección del viento	8.05
42279	7	Sololá	717	San Juan la Laguna	12	San Juan la Laguna	3	Marzo	2023-03-15T00:00:00	2024-11-08T14:00:00	1	Precipitación	0
42280	7	Sololá	717	San Juan la Laguna	12	San Juan la Laguna	3	Marzo	2023-03-15T00:00:00	2024-11-08T14:00:00	8	Radiación solar	240
42281	7	Sololá	717	San Juan la Laguna	12	San Juan la Laguna	3	Marzo	2023-03-15T00:00:00	2024-11-08T15:00:00	2	Temperatura media	20.6
42282	7	Sololá	717	San Juan la Laguna	12	San Juan la Laguna	3	Marzo	2023-03-15T00:00:00	2024-11-08T15:00:00	4	Temperatura máxima	20.7
42283	7	Sololá	717	San Juan la Laguna	12	San Juan la Laguna	3	Marzo	2023-03-15T00:00:00	2024-11-08T15:00:00	3	Temperatura mínima	20.1
42284	7	Sololá	717	San Juan la Laguna	12	San Juan la Laguna	3	Marzo	2023-03-15T00:00:00	2024-11-08T15:00:00	5	Humedad	77
42285	7	Sololá	717	San Juan la Laguna	12	San Juan la Laguna	3	Marzo	2023-03-15T00:00:00	2024-11-08T15:00:00	6	Velocidad del viento	6.4
42286	7	Sololá	717	San Juan la Laguna	12	San Juan la Laguna	3	Marzo	2023-03-15T00:00:00	2024-11-08T15:00:00	7	Dirección del viento	6.44
42287	7	Sololá	717	San Juan la Laguna	12	San Juan la Laguna	3	Marzo	2023-03-15T00:00:00	2024-11-08T15:00:00	1	Precipitación	0
42288	7	Sololá	717	San Juan la Laguna	12	San Juan la Laguna	3	Marzo	2023-03-15T00:00:00	2024-11-08T15:00:00	8	Radiación solar	299
42289	7	Sololá	717	San Juan la Laguna	12	San Juan la Laguna	3	Marzo	2023-03-15T00:00:00	2024-11-08T16:00:00	2	Temperatura media	20.4
42290	7	Sololá	717	San Juan la Laguna	12	San Juan la Laguna	3	Marzo	2023-03-15T00:00:00	2024-11-08T16:00:00	4	Temperatura máxima	21.6
42291	7	Sololá	717	San Juan la Laguna	12	San Juan la Laguna	3	Marzo	2023-03-15T00:00:00	2024-11-08T16:00:00	3	Temperatura mínima	20.4
42292	7	Sololá	717	San Juan la Laguna	12	San Juan la Laguna	3	Marzo	2023-03-15T00:00:00	2024-11-08T16:00:00	5	Humedad	73
42293	7	Sololá	717	San Juan la Laguna	12	San Juan la Laguna	3	Marzo	2023-03-15T00:00:00	2024-11-08T16:00:00	6	Velocidad del viento	6.4
42294	7	Sololá	717	San Juan la Laguna	12	San Juan la Laguna	3	Marzo	2023-03-15T00:00:00	2024-11-08T16:00:00	7	Dirección del viento	6.44
42295	7	Sololá	717	San Juan la Laguna	12	San Juan la Laguna	3	Marzo	2023-03-15T00:00:00	2024-11-08T16:00:00	1	Precipitación	0
42296	7	Sololá	717	San Juan la Laguna	12	San Juan la Laguna	3	Marzo	2023-03-15T00:00:00	2024-11-08T16:00:00	8	Radiación solar	171
42297	7	Sololá	717	San Juan la Laguna	12	San Juan la Laguna	3	Marzo	2023-03-15T00:00:00	2024-11-08T17:00:00	2	Temperatura media	18.7
42298	7	Sololá	717	San Juan la Laguna	12	San Juan la Laguna	3	Marzo	2023-03-15T00:00:00	2024-11-08T17:00:00	4	Temperatura máxima	20.6
42299	7	Sololá	717	San Juan la Laguna	12	San Juan la Laguna	3	Marzo	2023-03-15T00:00:00	2024-11-08T17:00:00	3	Temperatura mínima	18.7
42300	7	Sololá	717	San Juan la Laguna	12	San Juan la Laguna	3	Marzo	2023-03-15T00:00:00	2024-11-08T17:00:00	5	Humedad	84
42301	7	Sololá	717	San Juan la Laguna	12	San Juan la Laguna	3	Marzo	2023-03-15T00:00:00	2024-11-08T17:00:00	6	Velocidad del viento	3.2
42302	7	Sololá	717	San Juan la Laguna	12	San Juan la Laguna	3	Marzo	2023-03-15T00:00:00	2024-11-08T17:00:00	7	Dirección del viento	3.22
42303	7	Sololá	717	San Juan la Laguna	12	San Juan la Laguna	3	Marzo	2023-03-15T00:00:00	2024-11-08T17:00:00	1	Precipitación	0
42304	7	Sololá	717	San Juan la Laguna	12	San Juan la Laguna	3	Marzo	2023-03-15T00:00:00	2024-11-08T17:00:00	8	Radiación solar	32
42305	7	Sololá	717	San Juan la Laguna	12	San Juan la Laguna	3	Marzo	2023-03-15T00:00:00	2024-11-08T18:00:00	2	Temperatura media	16.2
42306	7	Sololá	717	San Juan la Laguna	12	San Juan la Laguna	3	Marzo	2023-03-15T00:00:00	2024-11-08T18:00:00	4	Temperatura máxima	18.7
42307	7	Sololá	717	San Juan la Laguna	12	San Juan la Laguna	3	Marzo	2023-03-15T00:00:00	2024-11-08T18:00:00	3	Temperatura mínima	16.1
42308	7	Sololá	717	San Juan la Laguna	12	San Juan la Laguna	3	Marzo	2023-03-15T00:00:00	2024-11-08T18:00:00	5	Humedad	89
42309	7	Sololá	717	San Juan la Laguna	12	San Juan la Laguna	3	Marzo	2023-03-15T00:00:00	2024-11-08T18:00:00	6	Velocidad del viento	3.2
42310	7	Sololá	717	San Juan la Laguna	12	San Juan la Laguna	3	Marzo	2023-03-15T00:00:00	2024-11-08T18:00:00	7	Dirección del viento	3.22
42311	7	Sololá	717	San Juan la Laguna	12	San Juan la Laguna	3	Marzo	2023-03-15T00:00:00	2024-11-08T18:00:00	1	Precipitación	2.8
42312	7	Sololá	717	San Juan la Laguna	12	San Juan la Laguna	3	Marzo	2023-03-15T00:00:00	2024-11-08T18:00:00	8	Radiación solar	22
42313	7	Sololá	717	San Juan la Laguna	12	San Juan la Laguna	3	Marzo	2023-03-15T00:00:00	2024-11-08T19:00:00	2	Temperatura media	16.1
42314	7	Sololá	717	San Juan la Laguna	12	San Juan la Laguna	3	Marzo	2023-03-15T00:00:00	2024-11-08T19:00:00	4	Temperatura máxima	16.4
42315	7	Sololá	717	San Juan la Laguna	12	San Juan la Laguna	3	Marzo	2023-03-15T00:00:00	2024-11-08T19:00:00	3	Temperatura mínima	16.1
42316	7	Sololá	717	San Juan la Laguna	12	San Juan la Laguna	3	Marzo	2023-03-15T00:00:00	2024-11-08T19:00:00	5	Humedad	89
42317	7	Sololá	717	San Juan la Laguna	12	San Juan la Laguna	3	Marzo	2023-03-15T00:00:00	2024-11-08T19:00:00	6	Velocidad del viento	1.6
42318	7	Sololá	717	San Juan la Laguna	12	San Juan la Laguna	3	Marzo	2023-03-15T00:00:00	2024-11-08T19:00:00	7	Dirección del viento	1.61
42319	7	Sololá	717	San Juan la Laguna	12	San Juan la Laguna	3	Marzo	2023-03-15T00:00:00	2024-11-08T19:00:00	1	Precipitación	0.2
42320	7	Sololá	717	San Juan la Laguna	12	San Juan la Laguna	3	Marzo	2023-03-15T00:00:00	2024-11-08T19:00:00	8	Radiación solar	0
42321	7	Sololá	717	San Juan la Laguna	12	San Juan la Laguna	3	Marzo	2023-03-15T00:00:00	2024-11-08T20:00:00	2	Temperatura media	14.7
42322	7	Sololá	717	San Juan la Laguna	12	San Juan la Laguna	3	Marzo	2023-03-15T00:00:00	2024-11-08T20:00:00	4	Temperatura máxima	16.1
42323	7	Sololá	717	San Juan la Laguna	12	San Juan la Laguna	3	Marzo	2023-03-15T00:00:00	2024-11-08T20:00:00	3	Temperatura mínima	14.7
42324	7	Sololá	717	San Juan la Laguna	12	San Juan la Laguna	3	Marzo	2023-03-15T00:00:00	2024-11-08T20:00:00	5	Humedad	90
42325	7	Sololá	717	San Juan la Laguna	12	San Juan la Laguna	3	Marzo	2023-03-15T00:00:00	2024-11-08T20:00:00	6	Velocidad del viento	1.6
42326	7	Sololá	717	San Juan la Laguna	12	San Juan la Laguna	3	Marzo	2023-03-15T00:00:00	2024-11-08T20:00:00	7	Dirección del viento	1.61
42327	7	Sololá	717	San Juan la Laguna	12	San Juan la Laguna	3	Marzo	2023-03-15T00:00:00	2024-11-08T20:00:00	1	Precipitación	0
42328	7	Sololá	717	San Juan la Laguna	12	San Juan la Laguna	3	Marzo	2023-03-15T00:00:00	2024-11-08T20:00:00	8	Radiación solar	0
42329	7	Sololá	717	San Juan la Laguna	12	San Juan la Laguna	3	Marzo	2023-03-15T00:00:00	2024-11-08T21:00:00	2	Temperatura media	14.6
42330	7	Sololá	717	San Juan la Laguna	12	San Juan la Laguna	3	Marzo	2023-03-15T00:00:00	2024-11-08T21:00:00	4	Temperatura máxima	14.8
42331	7	Sololá	717	San Juan la Laguna	12	San Juan la Laguna	3	Marzo	2023-03-15T00:00:00	2024-11-08T21:00:00	3	Temperatura mínima	14.5
42332	7	Sololá	717	San Juan la Laguna	12	San Juan la Laguna	3	Marzo	2023-03-15T00:00:00	2024-11-08T21:00:00	5	Humedad	89
42333	7	Sololá	717	San Juan la Laguna	12	San Juan la Laguna	3	Marzo	2023-03-15T00:00:00	2024-11-08T21:00:00	6	Velocidad del viento	3.2
42334	7	Sololá	717	San Juan la Laguna	12	San Juan la Laguna	3	Marzo	2023-03-15T00:00:00	2024-11-08T21:00:00	7	Dirección del viento	3.22
42335	7	Sololá	717	San Juan la Laguna	12	San Juan la Laguna	3	Marzo	2023-03-15T00:00:00	2024-11-08T21:00:00	1	Precipitación	0
42336	7	Sololá	717	San Juan la Laguna	12	San Juan la Laguna	3	Marzo	2023-03-15T00:00:00	2024-11-08T21:00:00	8	Radiación solar	0
42337	7	Sololá	717	San Juan la Laguna	12	San Juan la Laguna	3	Marzo	2023-03-15T00:00:00	2024-11-08T22:00:00	2	Temperatura media	14.5
42338	7	Sololá	717	San Juan la Laguna	12	San Juan la Laguna	3	Marzo	2023-03-15T00:00:00	2024-11-08T22:00:00	4	Temperatura máxima	14.7
42339	7	Sololá	717	San Juan la Laguna	12	San Juan la Laguna	3	Marzo	2023-03-15T00:00:00	2024-11-08T22:00:00	3	Temperatura mínima	14.1
42340	7	Sololá	717	San Juan la Laguna	12	San Juan la Laguna	3	Marzo	2023-03-15T00:00:00	2024-11-08T22:00:00	5	Humedad	89
42341	7	Sololá	717	San Juan la Laguna	12	San Juan la Laguna	3	Marzo	2023-03-15T00:00:00	2024-11-08T22:00:00	6	Velocidad del viento	1.6
42342	7	Sololá	717	San Juan la Laguna	12	San Juan la Laguna	3	Marzo	2023-03-15T00:00:00	2024-11-08T22:00:00	7	Dirección del viento	1.61
42343	7	Sololá	717	San Juan la Laguna	12	San Juan la Laguna	3	Marzo	2023-03-15T00:00:00	2024-11-08T22:00:00	1	Precipitación	0
42344	7	Sololá	717	San Juan la Laguna	12	San Juan la Laguna	3	Marzo	2023-03-15T00:00:00	2024-11-08T22:00:00	8	Radiación solar	0
42345	7	Sololá	717	San Juan la Laguna	12	San Juan la Laguna	3	Marzo	2023-03-15T00:00:00	2024-11-08T23:00:00	2	Temperatura media	14.2
42346	7	Sololá	717	San Juan la Laguna	12	San Juan la Laguna	3	Marzo	2023-03-15T00:00:00	2024-11-08T23:00:00	4	Temperatura máxima	14.7
42347	7	Sololá	717	San Juan la Laguna	12	San Juan la Laguna	3	Marzo	2023-03-15T00:00:00	2024-11-08T23:00:00	3	Temperatura mínima	14.2
42348	7	Sololá	717	San Juan la Laguna	12	San Juan la Laguna	3	Marzo	2023-03-15T00:00:00	2024-11-08T23:00:00	5	Humedad	87
42349	7	Sololá	717	San Juan la Laguna	12	San Juan la Laguna	3	Marzo	2023-03-15T00:00:00	2024-11-08T23:00:00	6	Velocidad del viento	3.2
42350	7	Sololá	717	San Juan la Laguna	12	San Juan la Laguna	3	Marzo	2023-03-15T00:00:00	2024-11-08T23:00:00	7	Dirección del viento	3.22
42351	7	Sololá	717	San Juan la Laguna	12	San Juan la Laguna	3	Marzo	2023-03-15T00:00:00	2024-11-08T23:00:00	1	Precipitación	0
42352	7	Sololá	717	San Juan la Laguna	12	San Juan la Laguna	3	Marzo	2023-03-15T00:00:00	2024-11-08T23:00:00	8	Radiación solar	0
42353	7	Sololá	717	San Juan la Laguna	12	San Juan la Laguna	3	Marzo	2023-03-16T00:00:00	2024-11-08T00:00:00	2	Temperatura media	13.8
42354	7	Sololá	717	San Juan la Laguna	12	San Juan la Laguna	3	Marzo	2023-03-16T00:00:00	2024-11-08T00:00:00	4	Temperatura máxima	14.4
42355	7	Sololá	717	San Juan la Laguna	12	San Juan la Laguna	3	Marzo	2023-03-16T00:00:00	2024-11-08T00:00:00	3	Temperatura mínima	13.8
42356	7	Sololá	717	San Juan la Laguna	12	San Juan la Laguna	3	Marzo	2023-03-16T00:00:00	2024-11-08T00:00:00	5	Humedad	87
42357	7	Sololá	717	San Juan la Laguna	12	San Juan la Laguna	3	Marzo	2023-03-16T00:00:00	2024-11-08T00:00:00	6	Velocidad del viento	4.8
42358	7	Sololá	717	San Juan la Laguna	12	San Juan la Laguna	3	Marzo	2023-03-16T00:00:00	2024-11-08T00:00:00	7	Dirección del viento	4.83
42359	7	Sololá	717	San Juan la Laguna	12	San Juan la Laguna	3	Marzo	2023-03-16T00:00:00	2024-11-08T00:00:00	1	Precipitación	0
42360	7	Sololá	717	San Juan la Laguna	12	San Juan la Laguna	3	Marzo	2023-03-16T00:00:00	2024-11-08T00:00:00	8	Radiación solar	0
42361	7	Sololá	717	San Juan la Laguna	12	San Juan la Laguna	3	Marzo	2023-03-16T00:00:00	2024-11-08T01:00:00	2	Temperatura media	13.6
42362	7	Sololá	717	San Juan la Laguna	12	San Juan la Laguna	3	Marzo	2023-03-16T00:00:00	2024-11-08T01:00:00	4	Temperatura máxima	14
42363	7	Sololá	717	San Juan la Laguna	12	San Juan la Laguna	3	Marzo	2023-03-16T00:00:00	2024-11-08T01:00:00	3	Temperatura mínima	13.6
42364	7	Sololá	717	San Juan la Laguna	12	San Juan la Laguna	3	Marzo	2023-03-16T00:00:00	2024-11-08T01:00:00	5	Humedad	87
42365	7	Sololá	717	San Juan la Laguna	12	San Juan la Laguna	3	Marzo	2023-03-16T00:00:00	2024-11-08T01:00:00	6	Velocidad del viento	4.8
42366	7	Sololá	717	San Juan la Laguna	12	San Juan la Laguna	3	Marzo	2023-03-16T00:00:00	2024-11-08T01:00:00	7	Dirección del viento	4.83
42367	7	Sololá	717	San Juan la Laguna	12	San Juan la Laguna	3	Marzo	2023-03-16T00:00:00	2024-11-08T01:00:00	1	Precipitación	0
42368	7	Sololá	717	San Juan la Laguna	12	San Juan la Laguna	3	Marzo	2023-03-16T00:00:00	2024-11-08T01:00:00	8	Radiación solar	0
42369	7	Sololá	717	San Juan la Laguna	12	San Juan la Laguna	3	Marzo	2023-03-16T00:00:00	2024-11-08T02:00:00	2	Temperatura media	13.8
42370	7	Sololá	717	San Juan la Laguna	12	San Juan la Laguna	3	Marzo	2023-03-16T00:00:00	2024-11-08T02:00:00	4	Temperatura máxima	13.9
42371	7	Sololá	717	San Juan la Laguna	12	San Juan la Laguna	3	Marzo	2023-03-16T00:00:00	2024-11-08T02:00:00	3	Temperatura mínima	13.6
42372	7	Sololá	717	San Juan la Laguna	12	San Juan la Laguna	3	Marzo	2023-03-16T00:00:00	2024-11-08T02:00:00	5	Humedad	84
42373	7	Sololá	717	San Juan la Laguna	12	San Juan la Laguna	3	Marzo	2023-03-16T00:00:00	2024-11-08T02:00:00	6	Velocidad del viento	3.2
42374	7	Sololá	717	San Juan la Laguna	12	San Juan la Laguna	3	Marzo	2023-03-16T00:00:00	2024-11-08T02:00:00	7	Dirección del viento	3.22
42375	7	Sololá	717	San Juan la Laguna	12	San Juan la Laguna	3	Marzo	2023-03-16T00:00:00	2024-11-08T02:00:00	1	Precipitación	0
42376	7	Sololá	717	San Juan la Laguna	12	San Juan la Laguna	3	Marzo	2023-03-16T00:00:00	2024-11-08T02:00:00	8	Radiación solar	0
42377	7	Sololá	717	San Juan la Laguna	12	San Juan la Laguna	3	Marzo	2023-03-16T00:00:00	2024-11-08T03:00:00	2	Temperatura media	13.3
42378	7	Sololá	717	San Juan la Laguna	12	San Juan la Laguna	3	Marzo	2023-03-16T00:00:00	2024-11-08T03:00:00	4	Temperatura máxima	13.8
42379	7	Sololá	717	San Juan la Laguna	12	San Juan la Laguna	3	Marzo	2023-03-16T00:00:00	2024-11-08T03:00:00	3	Temperatura mínima	13.3
42380	7	Sololá	717	San Juan la Laguna	12	San Juan la Laguna	3	Marzo	2023-03-16T00:00:00	2024-11-08T03:00:00	5	Humedad	84
42381	7	Sololá	717	San Juan la Laguna	12	San Juan la Laguna	3	Marzo	2023-03-16T00:00:00	2024-11-08T03:00:00	6	Velocidad del viento	3.2
42382	7	Sololá	717	San Juan la Laguna	12	San Juan la Laguna	3	Marzo	2023-03-16T00:00:00	2024-11-08T03:00:00	7	Dirección del viento	3.22
42383	7	Sololá	717	San Juan la Laguna	12	San Juan la Laguna	3	Marzo	2023-03-16T00:00:00	2024-11-08T03:00:00	1	Precipitación	0
42384	7	Sololá	717	San Juan la Laguna	12	San Juan la Laguna	3	Marzo	2023-03-16T00:00:00	2024-11-08T03:00:00	8	Radiación solar	0
42385	7	Sololá	717	San Juan la Laguna	12	San Juan la Laguna	3	Marzo	2023-03-16T00:00:00	2024-11-08T04:00:00	2	Temperatura media	13.2
42386	7	Sololá	717	San Juan la Laguna	12	San Juan la Laguna	3	Marzo	2023-03-16T00:00:00	2024-11-08T04:00:00	4	Temperatura máxima	13.3
42387	7	Sololá	717	San Juan la Laguna	12	San Juan la Laguna	3	Marzo	2023-03-16T00:00:00	2024-11-08T04:00:00	3	Temperatura mínima	12.8
42388	7	Sololá	717	San Juan la Laguna	12	San Juan la Laguna	3	Marzo	2023-03-16T00:00:00	2024-11-08T04:00:00	5	Humedad	83
42389	7	Sololá	717	San Juan la Laguna	12	San Juan la Laguna	3	Marzo	2023-03-16T00:00:00	2024-11-08T04:00:00	6	Velocidad del viento	4.8
42390	7	Sololá	717	San Juan la Laguna	12	San Juan la Laguna	3	Marzo	2023-03-16T00:00:00	2024-11-08T04:00:00	7	Dirección del viento	4.83
42391	7	Sololá	717	San Juan la Laguna	12	San Juan la Laguna	3	Marzo	2023-03-16T00:00:00	2024-11-08T04:00:00	1	Precipitación	0
42392	7	Sololá	717	San Juan la Laguna	12	San Juan la Laguna	3	Marzo	2023-03-16T00:00:00	2024-11-08T04:00:00	8	Radiación solar	0
42393	7	Sololá	717	San Juan la Laguna	12	San Juan la Laguna	3	Marzo	2023-03-16T00:00:00	2024-11-08T05:00:00	2	Temperatura media	12.8
42394	7	Sololá	717	San Juan la Laguna	12	San Juan la Laguna	3	Marzo	2023-03-16T00:00:00	2024-11-08T05:00:00	4	Temperatura máxima	13.3
42395	7	Sololá	717	San Juan la Laguna	12	San Juan la Laguna	3	Marzo	2023-03-16T00:00:00	2024-11-08T05:00:00	3	Temperatura mínima	12.8
42396	7	Sololá	717	San Juan la Laguna	12	San Juan la Laguna	3	Marzo	2023-03-16T00:00:00	2024-11-08T05:00:00	5	Humedad	84
42397	7	Sololá	717	San Juan la Laguna	12	San Juan la Laguna	3	Marzo	2023-03-16T00:00:00	2024-11-08T05:00:00	6	Velocidad del viento	4.8
42398	7	Sololá	717	San Juan la Laguna	12	San Juan la Laguna	3	Marzo	2023-03-16T00:00:00	2024-11-08T05:00:00	7	Dirección del viento	4.83
42399	7	Sololá	717	San Juan la Laguna	12	San Juan la Laguna	3	Marzo	2023-03-16T00:00:00	2024-11-08T05:00:00	1	Precipitación	0
42400	7	Sololá	717	San Juan la Laguna	12	San Juan la Laguna	3	Marzo	2023-03-16T00:00:00	2024-11-08T05:00:00	8	Radiación solar	0
42401	7	Sololá	717	San Juan la Laguna	12	San Juan la Laguna	3	Marzo	2023-03-16T00:00:00	2024-11-08T06:00:00	2	Temperatura media	13
42402	7	Sololá	717	San Juan la Laguna	12	San Juan la Laguna	3	Marzo	2023-03-16T00:00:00	2024-11-08T06:00:00	4	Temperatura máxima	13.1
42403	7	Sololá	717	San Juan la Laguna	12	San Juan la Laguna	3	Marzo	2023-03-16T00:00:00	2024-11-08T06:00:00	3	Temperatura mínima	12.8
42404	7	Sololá	717	San Juan la Laguna	12	San Juan la Laguna	3	Marzo	2023-03-16T00:00:00	2024-11-08T06:00:00	5	Humedad	83
42405	7	Sololá	717	San Juan la Laguna	12	San Juan la Laguna	3	Marzo	2023-03-16T00:00:00	2024-11-08T06:00:00	6	Velocidad del viento	4.8
42406	7	Sololá	717	San Juan la Laguna	12	San Juan la Laguna	3	Marzo	2023-03-16T00:00:00	2024-11-08T06:00:00	7	Dirección del viento	4.83
42407	7	Sololá	717	San Juan la Laguna	12	San Juan la Laguna	3	Marzo	2023-03-16T00:00:00	2024-11-08T06:00:00	1	Precipitación	0
42408	7	Sololá	717	San Juan la Laguna	12	San Juan la Laguna	3	Marzo	2023-03-16T00:00:00	2024-11-08T06:00:00	8	Radiación solar	0
42409	7	Sololá	717	San Juan la Laguna	12	San Juan la Laguna	3	Marzo	2023-03-16T00:00:00	2024-11-08T07:00:00	2	Temperatura media	13.1
42410	7	Sololá	717	San Juan la Laguna	12	San Juan la Laguna	3	Marzo	2023-03-16T00:00:00	2024-11-08T07:00:00	4	Temperatura máxima	13.2
42411	7	Sololá	717	San Juan la Laguna	12	San Juan la Laguna	3	Marzo	2023-03-16T00:00:00	2024-11-08T07:00:00	3	Temperatura mínima	12.3
42412	7	Sololá	717	San Juan la Laguna	12	San Juan la Laguna	3	Marzo	2023-03-16T00:00:00	2024-11-08T07:00:00	5	Humedad	85
42413	7	Sololá	717	San Juan la Laguna	12	San Juan la Laguna	3	Marzo	2023-03-16T00:00:00	2024-11-08T07:00:00	6	Velocidad del viento	3.2
42414	7	Sololá	717	San Juan la Laguna	12	San Juan la Laguna	3	Marzo	2023-03-16T00:00:00	2024-11-08T07:00:00	7	Dirección del viento	3.22
42415	7	Sololá	717	San Juan la Laguna	12	San Juan la Laguna	3	Marzo	2023-03-16T00:00:00	2024-11-08T07:00:00	1	Precipitación	0
42416	7	Sololá	717	San Juan la Laguna	12	San Juan la Laguna	3	Marzo	2023-03-16T00:00:00	2024-11-08T07:00:00	8	Radiación solar	25
42417	7	Sololá	717	San Juan la Laguna	12	San Juan la Laguna	3	Marzo	2023-03-16T00:00:00	2024-11-08T08:00:00	2	Temperatura media	18.1
42418	7	Sololá	717	San Juan la Laguna	12	San Juan la Laguna	3	Marzo	2023-03-16T00:00:00	2024-11-08T08:00:00	4	Temperatura máxima	18.1
42419	7	Sololá	717	San Juan la Laguna	12	San Juan la Laguna	3	Marzo	2023-03-16T00:00:00	2024-11-08T08:00:00	3	Temperatura mínima	13.2
42420	7	Sololá	717	San Juan la Laguna	12	San Juan la Laguna	3	Marzo	2023-03-16T00:00:00	2024-11-08T08:00:00	5	Humedad	75
42421	7	Sololá	717	San Juan la Laguna	12	San Juan la Laguna	3	Marzo	2023-03-16T00:00:00	2024-11-08T08:00:00	6	Velocidad del viento	1.6
42422	7	Sololá	717	San Juan la Laguna	12	San Juan la Laguna	3	Marzo	2023-03-16T00:00:00	2024-11-08T08:00:00	7	Dirección del viento	1.61
42423	7	Sololá	717	San Juan la Laguna	12	San Juan la Laguna	3	Marzo	2023-03-16T00:00:00	2024-11-08T08:00:00	1	Precipitación	0
42424	7	Sololá	717	San Juan la Laguna	12	San Juan la Laguna	3	Marzo	2023-03-16T00:00:00	2024-11-08T08:00:00	8	Radiación solar	178
42425	7	Sololá	717	San Juan la Laguna	12	San Juan la Laguna	3	Marzo	2023-03-16T00:00:00	2024-11-08T09:00:00	2	Temperatura media	20.2
42426	7	Sololá	717	San Juan la Laguna	12	San Juan la Laguna	3	Marzo	2023-03-16T00:00:00	2024-11-08T09:00:00	4	Temperatura máxima	20.2
42427	7	Sololá	717	San Juan la Laguna	12	San Juan la Laguna	3	Marzo	2023-03-16T00:00:00	2024-11-08T09:00:00	3	Temperatura mínima	18.1
42428	7	Sololá	717	San Juan la Laguna	12	San Juan la Laguna	3	Marzo	2023-03-16T00:00:00	2024-11-08T09:00:00	5	Humedad	66
42429	7	Sololá	717	San Juan la Laguna	12	San Juan la Laguna	3	Marzo	2023-03-16T00:00:00	2024-11-08T09:00:00	6	Velocidad del viento	1.6
42430	7	Sololá	717	San Juan la Laguna	12	San Juan la Laguna	3	Marzo	2023-03-16T00:00:00	2024-11-08T09:00:00	7	Dirección del viento	1.61
42431	7	Sololá	717	San Juan la Laguna	12	San Juan la Laguna	3	Marzo	2023-03-16T00:00:00	2024-11-08T09:00:00	1	Precipitación	0
42432	7	Sololá	717	San Juan la Laguna	12	San Juan la Laguna	3	Marzo	2023-03-16T00:00:00	2024-11-08T09:00:00	8	Radiación solar	426
42433	7	Sololá	717	San Juan la Laguna	12	San Juan la Laguna	3	Marzo	2023-03-16T00:00:00	2024-11-08T10:00:00	2	Temperatura media	21.4
42434	7	Sololá	717	San Juan la Laguna	12	San Juan la Laguna	3	Marzo	2023-03-16T00:00:00	2024-11-08T10:00:00	4	Temperatura máxima	21.4
42435	7	Sololá	717	San Juan la Laguna	12	San Juan la Laguna	3	Marzo	2023-03-16T00:00:00	2024-11-08T10:00:00	3	Temperatura mínima	20.1
42436	7	Sololá	717	San Juan la Laguna	12	San Juan la Laguna	3	Marzo	2023-03-16T00:00:00	2024-11-08T10:00:00	5	Humedad	59
42437	7	Sololá	717	San Juan la Laguna	12	San Juan la Laguna	3	Marzo	2023-03-16T00:00:00	2024-11-08T10:00:00	6	Velocidad del viento	1.6
42438	7	Sololá	717	San Juan la Laguna	12	San Juan la Laguna	3	Marzo	2023-03-16T00:00:00	2024-11-08T10:00:00	7	Dirección del viento	1.61
42439	7	Sololá	717	San Juan la Laguna	12	San Juan la Laguna	3	Marzo	2023-03-16T00:00:00	2024-11-08T10:00:00	1	Precipitación	0
42440	7	Sololá	717	San Juan la Laguna	12	San Juan la Laguna	3	Marzo	2023-03-16T00:00:00	2024-11-08T10:00:00	8	Radiación solar	647
42441	7	Sololá	717	San Juan la Laguna	12	San Juan la Laguna	3	Marzo	2023-03-16T00:00:00	2024-11-08T11:00:00	2	Temperatura media	21.8
42442	7	Sololá	717	San Juan la Laguna	12	San Juan la Laguna	3	Marzo	2023-03-16T00:00:00	2024-11-08T11:00:00	4	Temperatura máxima	21.8
42443	7	Sololá	717	San Juan la Laguna	12	San Juan la Laguna	3	Marzo	2023-03-16T00:00:00	2024-11-08T11:00:00	3	Temperatura mínima	20.7
42444	7	Sololá	717	San Juan la Laguna	12	San Juan la Laguna	3	Marzo	2023-03-16T00:00:00	2024-11-08T11:00:00	5	Humedad	66
42445	7	Sololá	717	San Juan la Laguna	12	San Juan la Laguna	3	Marzo	2023-03-16T00:00:00	2024-11-08T11:00:00	6	Velocidad del viento	3.2
42446	7	Sololá	717	San Juan la Laguna	12	San Juan la Laguna	3	Marzo	2023-03-16T00:00:00	2024-11-08T11:00:00	7	Dirección del viento	3.22
42447	7	Sololá	717	San Juan la Laguna	12	San Juan la Laguna	3	Marzo	2023-03-16T00:00:00	2024-11-08T11:00:00	1	Precipitación	0
42448	7	Sololá	717	San Juan la Laguna	12	San Juan la Laguna	3	Marzo	2023-03-16T00:00:00	2024-11-08T11:00:00	8	Radiación solar	808
42449	7	Sololá	717	San Juan la Laguna	12	San Juan la Laguna	3	Marzo	2023-03-16T00:00:00	2024-11-08T12:00:00	2	Temperatura media	21.7
42450	7	Sololá	717	San Juan la Laguna	12	San Juan la Laguna	3	Marzo	2023-03-16T00:00:00	2024-11-08T12:00:00	4	Temperatura máxima	22.2
42451	7	Sololá	717	San Juan la Laguna	12	San Juan la Laguna	3	Marzo	2023-03-16T00:00:00	2024-11-08T12:00:00	3	Temperatura mínima	21.6
42452	7	Sololá	717	San Juan la Laguna	12	San Juan la Laguna	3	Marzo	2023-03-16T00:00:00	2024-11-08T12:00:00	5	Humedad	68
42453	7	Sololá	717	San Juan la Laguna	12	San Juan la Laguna	3	Marzo	2023-03-16T00:00:00	2024-11-08T12:00:00	6	Velocidad del viento	3.2
42454	7	Sololá	717	San Juan la Laguna	12	San Juan la Laguna	3	Marzo	2023-03-16T00:00:00	2024-11-08T12:00:00	7	Dirección del viento	3.22
42455	7	Sololá	717	San Juan la Laguna	12	San Juan la Laguna	3	Marzo	2023-03-16T00:00:00	2024-11-08T12:00:00	1	Precipitación	0
42456	7	Sololá	717	San Juan la Laguna	12	San Juan la Laguna	3	Marzo	2023-03-16T00:00:00	2024-11-08T12:00:00	8	Radiación solar	656
42457	7	Sololá	717	San Juan la Laguna	12	San Juan la Laguna	3	Marzo	2023-03-16T00:00:00	2024-11-08T13:00:00	2	Temperatura media	22.7
42458	7	Sololá	717	San Juan la Laguna	12	San Juan la Laguna	3	Marzo	2023-03-16T00:00:00	2024-11-08T13:00:00	4	Temperatura máxima	22.9
42459	7	Sololá	717	San Juan la Laguna	12	San Juan la Laguna	3	Marzo	2023-03-16T00:00:00	2024-11-08T13:00:00	3	Temperatura mínima	21.7
42460	7	Sololá	717	San Juan la Laguna	12	San Juan la Laguna	3	Marzo	2023-03-16T00:00:00	2024-11-08T13:00:00	5	Humedad	65
42461	7	Sololá	717	San Juan la Laguna	12	San Juan la Laguna	3	Marzo	2023-03-16T00:00:00	2024-11-08T13:00:00	6	Velocidad del viento	6.4
42462	7	Sololá	717	San Juan la Laguna	12	San Juan la Laguna	3	Marzo	2023-03-16T00:00:00	2024-11-08T13:00:00	7	Dirección del viento	6.44
42463	7	Sololá	717	San Juan la Laguna	12	San Juan la Laguna	3	Marzo	2023-03-16T00:00:00	2024-11-08T13:00:00	1	Precipitación	0
42464	7	Sololá	717	San Juan la Laguna	12	San Juan la Laguna	3	Marzo	2023-03-16T00:00:00	2024-11-08T13:00:00	8	Radiación solar	766
42465	7	Sololá	717	San Juan la Laguna	12	San Juan la Laguna	3	Marzo	2023-03-16T00:00:00	2024-11-08T14:00:00	2	Temperatura media	21.6
42466	7	Sololá	717	San Juan la Laguna	12	San Juan la Laguna	3	Marzo	2023-03-16T00:00:00	2024-11-08T14:00:00	4	Temperatura máxima	22.7
42467	7	Sololá	717	San Juan la Laguna	12	San Juan la Laguna	3	Marzo	2023-03-16T00:00:00	2024-11-08T14:00:00	3	Temperatura mínima	21.5
42468	7	Sololá	717	San Juan la Laguna	12	San Juan la Laguna	3	Marzo	2023-03-16T00:00:00	2024-11-08T14:00:00	5	Humedad	71
42469	7	Sololá	717	San Juan la Laguna	12	San Juan la Laguna	3	Marzo	2023-03-16T00:00:00	2024-11-08T14:00:00	6	Velocidad del viento	11.3
42470	7	Sololá	717	San Juan la Laguna	12	San Juan la Laguna	3	Marzo	2023-03-16T00:00:00	2024-11-08T14:00:00	7	Dirección del viento	11.27
42471	7	Sololá	717	San Juan la Laguna	12	San Juan la Laguna	3	Marzo	2023-03-16T00:00:00	2024-11-08T14:00:00	1	Precipitación	0
42472	7	Sololá	717	San Juan la Laguna	12	San Juan la Laguna	3	Marzo	2023-03-16T00:00:00	2024-11-08T14:00:00	8	Radiación solar	917
42473	7	Sololá	717	San Juan la Laguna	12	San Juan la Laguna	3	Marzo	2023-03-16T00:00:00	2024-11-08T15:00:00	2	Temperatura media	21.6
42474	7	Sololá	717	San Juan la Laguna	12	San Juan la Laguna	3	Marzo	2023-03-16T00:00:00	2024-11-08T15:00:00	4	Temperatura máxima	22.2
42475	7	Sololá	717	San Juan la Laguna	12	San Juan la Laguna	3	Marzo	2023-03-16T00:00:00	2024-11-08T15:00:00	3	Temperatura mínima	21.1
42476	7	Sololá	717	San Juan la Laguna	12	San Juan la Laguna	3	Marzo	2023-03-16T00:00:00	2024-11-08T15:00:00	5	Humedad	72
42477	7	Sololá	717	San Juan la Laguna	12	San Juan la Laguna	3	Marzo	2023-03-16T00:00:00	2024-11-08T15:00:00	6	Velocidad del viento	9.7
42478	7	Sololá	717	San Juan la Laguna	12	San Juan la Laguna	3	Marzo	2023-03-16T00:00:00	2024-11-08T15:00:00	7	Dirección del viento	9.66
42479	7	Sololá	717	San Juan la Laguna	12	San Juan la Laguna	3	Marzo	2023-03-16T00:00:00	2024-11-08T15:00:00	1	Precipitación	0
42480	7	Sololá	717	San Juan la Laguna	12	San Juan la Laguna	3	Marzo	2023-03-16T00:00:00	2024-11-08T15:00:00	8	Radiación solar	758
42481	7	Sololá	717	San Juan la Laguna	12	San Juan la Laguna	3	Marzo	2023-03-16T00:00:00	2024-11-08T16:00:00	2	Temperatura media	20.4
42482	7	Sololá	717	San Juan la Laguna	12	San Juan la Laguna	3	Marzo	2023-03-16T00:00:00	2024-11-08T16:00:00	4	Temperatura máxima	21.8
42483	7	Sololá	717	San Juan la Laguna	12	San Juan la Laguna	3	Marzo	2023-03-16T00:00:00	2024-11-08T16:00:00	3	Temperatura mínima	20.4
42484	7	Sololá	717	San Juan la Laguna	12	San Juan la Laguna	3	Marzo	2023-03-16T00:00:00	2024-11-08T16:00:00	5	Humedad	75
42485	7	Sololá	717	San Juan la Laguna	12	San Juan la Laguna	3	Marzo	2023-03-16T00:00:00	2024-11-08T16:00:00	6	Velocidad del viento	12.9
42486	7	Sololá	717	San Juan la Laguna	12	San Juan la Laguna	3	Marzo	2023-03-16T00:00:00	2024-11-08T16:00:00	7	Dirección del viento	12.87
42487	7	Sololá	717	San Juan la Laguna	12	San Juan la Laguna	3	Marzo	2023-03-16T00:00:00	2024-11-08T16:00:00	1	Precipitación	0
42488	7	Sololá	717	San Juan la Laguna	12	San Juan la Laguna	3	Marzo	2023-03-16T00:00:00	2024-11-08T16:00:00	8	Radiación solar	398
42489	7	Sololá	717	San Juan la Laguna	12	San Juan la Laguna	3	Marzo	2023-03-16T00:00:00	2024-11-08T17:00:00	2	Temperatura media	19.6
42490	7	Sololá	717	San Juan la Laguna	12	San Juan la Laguna	3	Marzo	2023-03-16T00:00:00	2024-11-08T17:00:00	4	Temperatura máxima	20.4
42491	7	Sololá	717	San Juan la Laguna	12	San Juan la Laguna	3	Marzo	2023-03-16T00:00:00	2024-11-08T17:00:00	3	Temperatura mínima	19.6
42492	7	Sololá	717	San Juan la Laguna	12	San Juan la Laguna	3	Marzo	2023-03-16T00:00:00	2024-11-08T17:00:00	5	Humedad	81
42493	7	Sololá	717	San Juan la Laguna	12	San Juan la Laguna	3	Marzo	2023-03-16T00:00:00	2024-11-08T17:00:00	6	Velocidad del viento	8
42494	7	Sololá	717	San Juan la Laguna	12	San Juan la Laguna	3	Marzo	2023-03-16T00:00:00	2024-11-08T17:00:00	7	Dirección del viento	8.05
42495	7	Sololá	717	San Juan la Laguna	12	San Juan la Laguna	3	Marzo	2023-03-16T00:00:00	2024-11-08T17:00:00	1	Precipitación	0
42496	7	Sololá	717	San Juan la Laguna	12	San Juan la Laguna	3	Marzo	2023-03-16T00:00:00	2024-11-08T17:00:00	8	Radiación solar	87
42497	7	Sololá	717	San Juan la Laguna	12	San Juan la Laguna	3	Marzo	2023-03-16T00:00:00	2024-11-08T18:00:00	2	Temperatura media	18.3
42498	7	Sololá	717	San Juan la Laguna	12	San Juan la Laguna	3	Marzo	2023-03-16T00:00:00	2024-11-08T18:00:00	4	Temperatura máxima	19.6
42499	7	Sololá	717	San Juan la Laguna	12	San Juan la Laguna	3	Marzo	2023-03-16T00:00:00	2024-11-08T18:00:00	3	Temperatura mínima	18.3
42500	7	Sololá	717	San Juan la Laguna	12	San Juan la Laguna	3	Marzo	2023-03-16T00:00:00	2024-11-08T18:00:00	5	Humedad	82
42501	7	Sololá	717	San Juan la Laguna	12	San Juan la Laguna	3	Marzo	2023-03-16T00:00:00	2024-11-08T18:00:00	6	Velocidad del viento	3.2
42502	7	Sololá	717	San Juan la Laguna	12	San Juan la Laguna	3	Marzo	2023-03-16T00:00:00	2024-11-08T18:00:00	7	Dirección del viento	3.22
42503	7	Sololá	717	San Juan la Laguna	12	San Juan la Laguna	3	Marzo	2023-03-16T00:00:00	2024-11-08T18:00:00	1	Precipitación	0
42504	7	Sololá	717	San Juan la Laguna	12	San Juan la Laguna	3	Marzo	2023-03-16T00:00:00	2024-11-08T18:00:00	8	Radiación solar	27
42505	7	Sololá	717	San Juan la Laguna	12	San Juan la Laguna	3	Marzo	2023-03-16T00:00:00	2024-11-08T19:00:00	2	Temperatura media	16.6
42506	7	Sololá	717	San Juan la Laguna	12	San Juan la Laguna	3	Marzo	2023-03-16T00:00:00	2024-11-08T19:00:00	4	Temperatura máxima	18.3
42507	7	Sololá	717	San Juan la Laguna	12	San Juan la Laguna	3	Marzo	2023-03-16T00:00:00	2024-11-08T19:00:00	3	Temperatura mínima	16.6
42508	7	Sololá	717	San Juan la Laguna	12	San Juan la Laguna	3	Marzo	2023-03-16T00:00:00	2024-11-08T19:00:00	5	Humedad	87
42509	7	Sololá	717	San Juan la Laguna	12	San Juan la Laguna	3	Marzo	2023-03-16T00:00:00	2024-11-08T19:00:00	6	Velocidad del viento	4.8
42510	7	Sololá	717	San Juan la Laguna	12	San Juan la Laguna	3	Marzo	2023-03-16T00:00:00	2024-11-08T19:00:00	7	Dirección del viento	4.83
42511	7	Sololá	717	San Juan la Laguna	12	San Juan la Laguna	3	Marzo	2023-03-16T00:00:00	2024-11-08T19:00:00	1	Precipitación	0.4
42512	7	Sololá	717	San Juan la Laguna	12	San Juan la Laguna	3	Marzo	2023-03-16T00:00:00	2024-11-08T19:00:00	8	Radiación solar	0
42513	7	Sololá	717	San Juan la Laguna	12	San Juan la Laguna	3	Marzo	2023-03-16T00:00:00	2024-11-08T20:00:00	2	Temperatura media	15.9
42514	7	Sololá	717	San Juan la Laguna	12	San Juan la Laguna	3	Marzo	2023-03-16T00:00:00	2024-11-08T20:00:00	4	Temperatura máxima	16.6
42515	7	Sololá	717	San Juan la Laguna	12	San Juan la Laguna	3	Marzo	2023-03-16T00:00:00	2024-11-08T20:00:00	3	Temperatura mínima	15.9
42516	7	Sololá	717	San Juan la Laguna	12	San Juan la Laguna	3	Marzo	2023-03-16T00:00:00	2024-11-08T20:00:00	5	Humedad	90
42517	7	Sololá	717	San Juan la Laguna	12	San Juan la Laguna	3	Marzo	2023-03-16T00:00:00	2024-11-08T20:00:00	6	Velocidad del viento	1.6
42518	7	Sololá	717	San Juan la Laguna	12	San Juan la Laguna	3	Marzo	2023-03-16T00:00:00	2024-11-08T20:00:00	7	Dirección del viento	1.61
42519	7	Sololá	717	San Juan la Laguna	12	San Juan la Laguna	3	Marzo	2023-03-16T00:00:00	2024-11-08T20:00:00	1	Precipitación	0
42520	7	Sololá	717	San Juan la Laguna	12	San Juan la Laguna	3	Marzo	2023-03-16T00:00:00	2024-11-08T20:00:00	8	Radiación solar	0
42521	7	Sololá	717	San Juan la Laguna	12	San Juan la Laguna	3	Marzo	2023-03-16T00:00:00	2024-11-08T21:00:00	2	Temperatura media	15.7
42522	7	Sololá	717	San Juan la Laguna	12	San Juan la Laguna	3	Marzo	2023-03-16T00:00:00	2024-11-08T21:00:00	4	Temperatura máxima	16.1
42523	7	Sololá	717	San Juan la Laguna	12	San Juan la Laguna	3	Marzo	2023-03-16T00:00:00	2024-11-08T21:00:00	3	Temperatura mínima	15.7
42524	7	Sololá	717	San Juan la Laguna	12	San Juan la Laguna	3	Marzo	2023-03-16T00:00:00	2024-11-08T21:00:00	5	Humedad	88
42525	7	Sololá	717	San Juan la Laguna	12	San Juan la Laguna	3	Marzo	2023-03-16T00:00:00	2024-11-08T21:00:00	6	Velocidad del viento	4.8
42526	7	Sololá	717	San Juan la Laguna	12	San Juan la Laguna	3	Marzo	2023-03-16T00:00:00	2024-11-08T21:00:00	7	Dirección del viento	4.83
42527	7	Sololá	717	San Juan la Laguna	12	San Juan la Laguna	3	Marzo	2023-03-16T00:00:00	2024-11-08T21:00:00	1	Precipitación	0
42528	7	Sololá	717	San Juan la Laguna	12	San Juan la Laguna	3	Marzo	2023-03-16T00:00:00	2024-11-08T21:00:00	8	Radiación solar	0
42529	7	Sololá	717	San Juan la Laguna	12	San Juan la Laguna	3	Marzo	2023-03-16T00:00:00	2024-11-08T22:00:00	2	Temperatura media	15.3
42530	7	Sololá	717	San Juan la Laguna	12	San Juan la Laguna	3	Marzo	2023-03-16T00:00:00	2024-11-08T22:00:00	4	Temperatura máxima	15.7
42531	7	Sololá	717	San Juan la Laguna	12	San Juan la Laguna	3	Marzo	2023-03-16T00:00:00	2024-11-08T22:00:00	3	Temperatura mínima	14.9
42532	7	Sololá	717	San Juan la Laguna	12	San Juan la Laguna	3	Marzo	2023-03-16T00:00:00	2024-11-08T22:00:00	5	Humedad	89
42533	7	Sololá	717	San Juan la Laguna	12	San Juan la Laguna	3	Marzo	2023-03-16T00:00:00	2024-11-08T22:00:00	6	Velocidad del viento	3.2
42534	7	Sololá	717	San Juan la Laguna	12	San Juan la Laguna	3	Marzo	2023-03-16T00:00:00	2024-11-08T22:00:00	7	Dirección del viento	3.22
42535	7	Sololá	717	San Juan la Laguna	12	San Juan la Laguna	3	Marzo	2023-03-16T00:00:00	2024-11-08T22:00:00	1	Precipitación	0
42536	7	Sololá	717	San Juan la Laguna	12	San Juan la Laguna	3	Marzo	2023-03-16T00:00:00	2024-11-08T22:00:00	8	Radiación solar	0
42537	7	Sololá	717	San Juan la Laguna	12	San Juan la Laguna	3	Marzo	2023-03-16T00:00:00	2024-11-08T23:00:00	2	Temperatura media	15.5
42538	7	Sololá	717	San Juan la Laguna	12	San Juan la Laguna	3	Marzo	2023-03-16T00:00:00	2024-11-08T23:00:00	4	Temperatura máxima	15.5
42539	7	Sololá	717	San Juan la Laguna	12	San Juan la Laguna	3	Marzo	2023-03-16T00:00:00	2024-11-08T23:00:00	3	Temperatura mínima	15.3
42540	7	Sololá	717	San Juan la Laguna	12	San Juan la Laguna	3	Marzo	2023-03-16T00:00:00	2024-11-08T23:00:00	5	Humedad	91
42541	7	Sololá	717	San Juan la Laguna	12	San Juan la Laguna	3	Marzo	2023-03-16T00:00:00	2024-11-08T23:00:00	6	Velocidad del viento	3.2
42542	7	Sololá	717	San Juan la Laguna	12	San Juan la Laguna	3	Marzo	2023-03-16T00:00:00	2024-11-08T23:00:00	7	Dirección del viento	3.22
42543	7	Sololá	717	San Juan la Laguna	12	San Juan la Laguna	3	Marzo	2023-03-16T00:00:00	2024-11-08T23:00:00	1	Precipitación	0
42544	7	Sololá	717	San Juan la Laguna	12	San Juan la Laguna	3	Marzo	2023-03-16T00:00:00	2024-11-08T23:00:00	8	Radiación solar	0
42545	7	Sololá	717	San Juan la Laguna	12	San Juan la Laguna	3	Marzo	2023-03-17T00:00:00	2024-11-08T00:00:00	2	Temperatura media	15.1
42546	7	Sololá	717	San Juan la Laguna	12	San Juan la Laguna	3	Marzo	2023-03-17T00:00:00	2024-11-08T00:00:00	4	Temperatura máxima	15.7
42547	7	Sololá	717	San Juan la Laguna	12	San Juan la Laguna	3	Marzo	2023-03-17T00:00:00	2024-11-08T00:00:00	3	Temperatura mínima	15.1
42548	7	Sololá	717	San Juan la Laguna	12	San Juan la Laguna	3	Marzo	2023-03-17T00:00:00	2024-11-08T00:00:00	5	Humedad	90
42549	7	Sololá	717	San Juan la Laguna	12	San Juan la Laguna	3	Marzo	2023-03-17T00:00:00	2024-11-08T00:00:00	6	Velocidad del viento	3.2
42550	7	Sololá	717	San Juan la Laguna	12	San Juan la Laguna	3	Marzo	2023-03-17T00:00:00	2024-11-08T00:00:00	7	Dirección del viento	3.22
42551	7	Sololá	717	San Juan la Laguna	12	San Juan la Laguna	3	Marzo	2023-03-17T00:00:00	2024-11-08T00:00:00	1	Precipitación	0
42552	7	Sololá	717	San Juan la Laguna	12	San Juan la Laguna	3	Marzo	2023-03-17T00:00:00	2024-11-08T00:00:00	8	Radiación solar	0
42553	7	Sololá	717	San Juan la Laguna	12	San Juan la Laguna	3	Marzo	2023-03-17T00:00:00	2024-11-08T01:00:00	2	Temperatura media	15.3
42554	7	Sololá	717	San Juan la Laguna	12	San Juan la Laguna	3	Marzo	2023-03-17T00:00:00	2024-11-08T01:00:00	4	Temperatura máxima	15.4
42555	7	Sololá	717	San Juan la Laguna	12	San Juan la Laguna	3	Marzo	2023-03-17T00:00:00	2024-11-08T01:00:00	3	Temperatura mínima	15.1
42556	7	Sololá	717	San Juan la Laguna	12	San Juan la Laguna	3	Marzo	2023-03-17T00:00:00	2024-11-08T01:00:00	5	Humedad	89
42557	7	Sololá	717	San Juan la Laguna	12	San Juan la Laguna	3	Marzo	2023-03-17T00:00:00	2024-11-08T01:00:00	6	Velocidad del viento	4.8
42558	7	Sololá	717	San Juan la Laguna	12	San Juan la Laguna	3	Marzo	2023-03-17T00:00:00	2024-11-08T01:00:00	7	Dirección del viento	4.83
42559	7	Sololá	717	San Juan la Laguna	12	San Juan la Laguna	3	Marzo	2023-03-17T00:00:00	2024-11-08T01:00:00	1	Precipitación	0
42560	7	Sololá	717	San Juan la Laguna	12	San Juan la Laguna	3	Marzo	2023-03-17T00:00:00	2024-11-08T01:00:00	8	Radiación solar	0
42561	7	Sololá	717	San Juan la Laguna	12	San Juan la Laguna	3	Marzo	2023-03-17T00:00:00	2024-11-08T02:00:00	2	Temperatura media	14.9
42562	7	Sololá	717	San Juan la Laguna	12	San Juan la Laguna	3	Marzo	2023-03-17T00:00:00	2024-11-08T02:00:00	4	Temperatura máxima	15.4
42563	7	Sololá	717	San Juan la Laguna	12	San Juan la Laguna	3	Marzo	2023-03-17T00:00:00	2024-11-08T02:00:00	3	Temperatura mínima	14.9
42564	7	Sololá	717	San Juan la Laguna	12	San Juan la Laguna	3	Marzo	2023-03-17T00:00:00	2024-11-08T02:00:00	5	Humedad	90
42565	7	Sololá	717	San Juan la Laguna	12	San Juan la Laguna	3	Marzo	2023-03-17T00:00:00	2024-11-08T02:00:00	6	Velocidad del viento	3.2
42566	7	Sololá	717	San Juan la Laguna	12	San Juan la Laguna	3	Marzo	2023-03-17T00:00:00	2024-11-08T02:00:00	7	Dirección del viento	3.22
42567	7	Sololá	717	San Juan la Laguna	12	San Juan la Laguna	3	Marzo	2023-03-17T00:00:00	2024-11-08T02:00:00	1	Precipitación	0.2
42568	7	Sololá	717	San Juan la Laguna	12	San Juan la Laguna	3	Marzo	2023-03-17T00:00:00	2024-11-08T02:00:00	8	Radiación solar	0
42569	7	Sololá	717	San Juan la Laguna	12	San Juan la Laguna	3	Marzo	2023-03-17T00:00:00	2024-11-08T03:00:00	2	Temperatura media	15.1
42570	7	Sololá	717	San Juan la Laguna	12	San Juan la Laguna	3	Marzo	2023-03-17T00:00:00	2024-11-08T03:00:00	4	Temperatura máxima	15.2
42571	7	Sololá	717	San Juan la Laguna	12	San Juan la Laguna	3	Marzo	2023-03-17T00:00:00	2024-11-08T03:00:00	3	Temperatura mínima	14.9
42572	7	Sololá	717	San Juan la Laguna	12	San Juan la Laguna	3	Marzo	2023-03-17T00:00:00	2024-11-08T03:00:00	5	Humedad	89
42573	7	Sololá	717	San Juan la Laguna	12	San Juan la Laguna	3	Marzo	2023-03-17T00:00:00	2024-11-08T03:00:00	6	Velocidad del viento	1.6
42574	7	Sololá	717	San Juan la Laguna	12	San Juan la Laguna	3	Marzo	2023-03-17T00:00:00	2024-11-08T03:00:00	7	Dirección del viento	1.61
42575	7	Sololá	717	San Juan la Laguna	12	San Juan la Laguna	3	Marzo	2023-03-17T00:00:00	2024-11-08T03:00:00	1	Precipitación	0
42576	7	Sololá	717	San Juan la Laguna	12	San Juan la Laguna	3	Marzo	2023-03-17T00:00:00	2024-11-08T03:00:00	8	Radiación solar	0
42577	7	Sololá	717	San Juan la Laguna	12	San Juan la Laguna	3	Marzo	2023-03-17T00:00:00	2024-11-08T04:00:00	2	Temperatura media	14.6
42578	7	Sololá	717	San Juan la Laguna	12	San Juan la Laguna	3	Marzo	2023-03-17T00:00:00	2024-11-08T04:00:00	4	Temperatura máxima	15.1
42579	7	Sololá	717	San Juan la Laguna	12	San Juan la Laguna	3	Marzo	2023-03-17T00:00:00	2024-11-08T04:00:00	3	Temperatura mínima	14.6
42580	7	Sololá	717	San Juan la Laguna	12	San Juan la Laguna	3	Marzo	2023-03-17T00:00:00	2024-11-08T04:00:00	5	Humedad	90
42581	7	Sololá	717	San Juan la Laguna	12	San Juan la Laguna	3	Marzo	2023-03-17T00:00:00	2024-11-08T04:00:00	6	Velocidad del viento	3.2
42582	7	Sololá	717	San Juan la Laguna	12	San Juan la Laguna	3	Marzo	2023-03-17T00:00:00	2024-11-08T04:00:00	7	Dirección del viento	3.22
42583	7	Sololá	717	San Juan la Laguna	12	San Juan la Laguna	3	Marzo	2023-03-17T00:00:00	2024-11-08T04:00:00	1	Precipitación	0
42584	7	Sololá	717	San Juan la Laguna	12	San Juan la Laguna	3	Marzo	2023-03-17T00:00:00	2024-11-08T04:00:00	8	Radiación solar	0
42585	7	Sololá	717	San Juan la Laguna	12	San Juan la Laguna	3	Marzo	2023-03-17T00:00:00	2024-11-08T05:00:00	2	Temperatura media	14.3
42586	7	Sololá	717	San Juan la Laguna	12	San Juan la Laguna	3	Marzo	2023-03-17T00:00:00	2024-11-08T05:00:00	4	Temperatura máxima	14.6
42587	7	Sololá	717	San Juan la Laguna	12	San Juan la Laguna	3	Marzo	2023-03-17T00:00:00	2024-11-08T05:00:00	3	Temperatura mínima	14.1
42588	7	Sololá	717	San Juan la Laguna	12	San Juan la Laguna	3	Marzo	2023-03-17T00:00:00	2024-11-08T05:00:00	5	Humedad	91
42589	7	Sololá	717	San Juan la Laguna	12	San Juan la Laguna	3	Marzo	2023-03-17T00:00:00	2024-11-08T05:00:00	6	Velocidad del viento	3.2
42590	7	Sololá	717	San Juan la Laguna	12	San Juan la Laguna	3	Marzo	2023-03-17T00:00:00	2024-11-08T05:00:00	7	Dirección del viento	3.22
42591	7	Sololá	717	San Juan la Laguna	12	San Juan la Laguna	3	Marzo	2023-03-17T00:00:00	2024-11-08T05:00:00	1	Precipitación	0
42592	7	Sololá	717	San Juan la Laguna	12	San Juan la Laguna	3	Marzo	2023-03-17T00:00:00	2024-11-08T05:00:00	8	Radiación solar	0
42593	7	Sololá	717	San Juan la Laguna	12	San Juan la Laguna	3	Marzo	2023-03-17T00:00:00	2024-11-08T06:00:00	2	Temperatura media	14.6
42594	7	Sololá	717	San Juan la Laguna	12	San Juan la Laguna	3	Marzo	2023-03-17T00:00:00	2024-11-08T06:00:00	4	Temperatura máxima	14.6
42595	7	Sololá	717	San Juan la Laguna	12	San Juan la Laguna	3	Marzo	2023-03-17T00:00:00	2024-11-08T06:00:00	3	Temperatura mínima	14.2
42596	7	Sololá	717	San Juan la Laguna	12	San Juan la Laguna	3	Marzo	2023-03-17T00:00:00	2024-11-08T06:00:00	5	Humedad	91
42597	7	Sololá	717	San Juan la Laguna	12	San Juan la Laguna	3	Marzo	2023-03-17T00:00:00	2024-11-08T06:00:00	6	Velocidad del viento	3.2
42598	7	Sololá	717	San Juan la Laguna	12	San Juan la Laguna	3	Marzo	2023-03-17T00:00:00	2024-11-08T06:00:00	7	Dirección del viento	3.22
42599	7	Sololá	717	San Juan la Laguna	12	San Juan la Laguna	3	Marzo	2023-03-17T00:00:00	2024-11-08T06:00:00	1	Precipitación	0
42600	7	Sololá	717	San Juan la Laguna	12	San Juan la Laguna	3	Marzo	2023-03-17T00:00:00	2024-11-08T06:00:00	8	Radiación solar	0
42601	7	Sololá	717	San Juan la Laguna	12	San Juan la Laguna	3	Marzo	2023-03-17T00:00:00	2024-11-08T07:00:00	2	Temperatura media	14.8
42602	7	Sololá	717	San Juan la Laguna	12	San Juan la Laguna	3	Marzo	2023-03-17T00:00:00	2024-11-08T07:00:00	4	Temperatura máxima	14.8
42603	7	Sololá	717	San Juan la Laguna	12	San Juan la Laguna	3	Marzo	2023-03-17T00:00:00	2024-11-08T07:00:00	3	Temperatura mínima	14.6
42604	7	Sololá	717	San Juan la Laguna	12	San Juan la Laguna	3	Marzo	2023-03-17T00:00:00	2024-11-08T07:00:00	5	Humedad	91
42605	7	Sololá	717	San Juan la Laguna	12	San Juan la Laguna	3	Marzo	2023-03-17T00:00:00	2024-11-08T07:00:00	6	Velocidad del viento	3.2
42606	7	Sololá	717	San Juan la Laguna	12	San Juan la Laguna	3	Marzo	2023-03-17T00:00:00	2024-11-08T07:00:00	7	Dirección del viento	3.22
42607	7	Sololá	717	San Juan la Laguna	12	San Juan la Laguna	3	Marzo	2023-03-17T00:00:00	2024-11-08T07:00:00	1	Precipitación	0
42608	7	Sololá	717	San Juan la Laguna	12	San Juan la Laguna	3	Marzo	2023-03-17T00:00:00	2024-11-08T07:00:00	8	Radiación solar	19
42609	7	Sololá	717	San Juan la Laguna	12	San Juan la Laguna	3	Marzo	2023-03-17T00:00:00	2024-11-08T08:00:00	2	Temperatura media	18.3
42610	7	Sololá	717	San Juan la Laguna	12	San Juan la Laguna	3	Marzo	2023-03-17T00:00:00	2024-11-08T08:00:00	4	Temperatura máxima	18.4
42611	7	Sololá	717	San Juan la Laguna	12	San Juan la Laguna	3	Marzo	2023-03-17T00:00:00	2024-11-08T08:00:00	3	Temperatura mínima	14.8
42612	7	Sololá	717	San Juan la Laguna	12	San Juan la Laguna	3	Marzo	2023-03-17T00:00:00	2024-11-08T08:00:00	5	Humedad	81
42613	7	Sololá	717	San Juan la Laguna	12	San Juan la Laguna	3	Marzo	2023-03-17T00:00:00	2024-11-08T08:00:00	6	Velocidad del viento	1.6
42614	7	Sololá	717	San Juan la Laguna	12	San Juan la Laguna	3	Marzo	2023-03-17T00:00:00	2024-11-08T08:00:00	7	Dirección del viento	1.61
42615	7	Sololá	717	San Juan la Laguna	12	San Juan la Laguna	3	Marzo	2023-03-17T00:00:00	2024-11-08T08:00:00	1	Precipitación	0
42616	7	Sololá	717	San Juan la Laguna	12	San Juan la Laguna	3	Marzo	2023-03-17T00:00:00	2024-11-08T08:00:00	8	Radiación solar	210
42617	7	Sololá	717	San Juan la Laguna	12	San Juan la Laguna	3	Marzo	2023-03-17T00:00:00	2024-11-08T09:00:00	2	Temperatura media	19.9
42618	7	Sololá	717	San Juan la Laguna	12	San Juan la Laguna	3	Marzo	2023-03-17T00:00:00	2024-11-08T09:00:00	4	Temperatura máxima	20.3
42619	7	Sololá	717	San Juan la Laguna	12	San Juan la Laguna	3	Marzo	2023-03-17T00:00:00	2024-11-08T09:00:00	3	Temperatura mínima	18.3
42620	7	Sololá	717	San Juan la Laguna	12	San Juan la Laguna	3	Marzo	2023-03-17T00:00:00	2024-11-08T09:00:00	5	Humedad	75
42621	7	Sololá	717	San Juan la Laguna	12	San Juan la Laguna	3	Marzo	2023-03-17T00:00:00	2024-11-08T09:00:00	6	Velocidad del viento	1.6
42622	7	Sololá	717	San Juan la Laguna	12	San Juan la Laguna	3	Marzo	2023-03-17T00:00:00	2024-11-08T09:00:00	7	Dirección del viento	1.61
42623	7	Sololá	717	San Juan la Laguna	12	San Juan la Laguna	3	Marzo	2023-03-17T00:00:00	2024-11-08T09:00:00	1	Precipitación	0
42624	7	Sololá	717	San Juan la Laguna	12	San Juan la Laguna	3	Marzo	2023-03-17T00:00:00	2024-11-08T09:00:00	8	Radiación solar	344
42625	7	Sololá	717	San Juan la Laguna	12	San Juan la Laguna	3	Marzo	2023-03-17T00:00:00	2024-11-08T10:00:00	2	Temperatura media	20.4
42626	7	Sololá	717	San Juan la Laguna	12	San Juan la Laguna	3	Marzo	2023-03-17T00:00:00	2024-11-08T10:00:00	4	Temperatura máxima	20.9
42627	7	Sololá	717	San Juan la Laguna	12	San Juan la Laguna	3	Marzo	2023-03-17T00:00:00	2024-11-08T10:00:00	3	Temperatura mínima	19.8
42628	7	Sololá	717	San Juan la Laguna	12	San Juan la Laguna	3	Marzo	2023-03-17T00:00:00	2024-11-08T10:00:00	5	Humedad	74
42629	7	Sololá	717	San Juan la Laguna	12	San Juan la Laguna	3	Marzo	2023-03-17T00:00:00	2024-11-08T10:00:00	6	Velocidad del viento	1.6
42630	7	Sololá	717	San Juan la Laguna	12	San Juan la Laguna	3	Marzo	2023-03-17T00:00:00	2024-11-08T10:00:00	7	Dirección del viento	1.61
42631	7	Sololá	717	San Juan la Laguna	12	San Juan la Laguna	3	Marzo	2023-03-17T00:00:00	2024-11-08T10:00:00	1	Precipitación	0
42632	7	Sololá	717	San Juan la Laguna	12	San Juan la Laguna	3	Marzo	2023-03-17T00:00:00	2024-11-08T10:00:00	8	Radiación solar	677
42633	7	Sololá	717	San Juan la Laguna	12	San Juan la Laguna	3	Marzo	2023-03-17T00:00:00	2024-11-08T11:00:00	2	Temperatura media	21.4
42634	7	Sololá	717	San Juan la Laguna	12	San Juan la Laguna	3	Marzo	2023-03-17T00:00:00	2024-11-08T11:00:00	4	Temperatura máxima	21.7
42635	7	Sololá	717	San Juan la Laguna	12	San Juan la Laguna	3	Marzo	2023-03-17T00:00:00	2024-11-08T11:00:00	3	Temperatura mínima	20.4
42636	7	Sololá	717	San Juan la Laguna	12	San Juan la Laguna	3	Marzo	2023-03-17T00:00:00	2024-11-08T11:00:00	5	Humedad	72
42637	7	Sololá	717	San Juan la Laguna	12	San Juan la Laguna	3	Marzo	2023-03-17T00:00:00	2024-11-08T11:00:00	6	Velocidad del viento	1.6
42638	7	Sololá	717	San Juan la Laguna	12	San Juan la Laguna	3	Marzo	2023-03-17T00:00:00	2024-11-08T11:00:00	7	Dirección del viento	1.61
42639	7	Sololá	717	San Juan la Laguna	12	San Juan la Laguna	3	Marzo	2023-03-17T00:00:00	2024-11-08T11:00:00	1	Precipitación	0
42640	7	Sololá	717	San Juan la Laguna	12	San Juan la Laguna	3	Marzo	2023-03-17T00:00:00	2024-11-08T11:00:00	8	Radiación solar	812
42641	7	Sololá	717	San Juan la Laguna	12	San Juan la Laguna	3	Marzo	2023-03-17T00:00:00	2024-11-08T12:00:00	2	Temperatura media	22.7
42642	7	Sololá	717	San Juan la Laguna	12	San Juan la Laguna	3	Marzo	2023-03-17T00:00:00	2024-11-08T12:00:00	4	Temperatura máxima	22.7
42643	7	Sololá	717	San Juan la Laguna	12	San Juan la Laguna	3	Marzo	2023-03-17T00:00:00	2024-11-08T12:00:00	3	Temperatura mínima	21.2
42644	7	Sololá	717	San Juan la Laguna	12	San Juan la Laguna	3	Marzo	2023-03-17T00:00:00	2024-11-08T12:00:00	5	Humedad	62
42645	7	Sololá	717	San Juan la Laguna	12	San Juan la Laguna	3	Marzo	2023-03-17T00:00:00	2024-11-08T12:00:00	6	Velocidad del viento	1.6
42646	7	Sololá	717	San Juan la Laguna	12	San Juan la Laguna	3	Marzo	2023-03-17T00:00:00	2024-11-08T12:00:00	7	Dirección del viento	1.61
42647	7	Sololá	717	San Juan la Laguna	12	San Juan la Laguna	3	Marzo	2023-03-17T00:00:00	2024-11-08T12:00:00	1	Precipitación	0
42648	7	Sololá	717	San Juan la Laguna	12	San Juan la Laguna	3	Marzo	2023-03-17T00:00:00	2024-11-08T12:00:00	8	Radiación solar	794
42649	7	Sololá	717	San Juan la Laguna	12	San Juan la Laguna	3	Marzo	2023-03-17T00:00:00	2024-11-08T13:00:00	2	Temperatura media	22.3
42650	7	Sololá	717	San Juan la Laguna	12	San Juan la Laguna	3	Marzo	2023-03-17T00:00:00	2024-11-08T13:00:00	4	Temperatura máxima	24
42651	7	Sololá	717	San Juan la Laguna	12	San Juan la Laguna	3	Marzo	2023-03-17T00:00:00	2024-11-08T13:00:00	3	Temperatura mínima	22.2
42652	7	Sololá	717	San Juan la Laguna	12	San Juan la Laguna	3	Marzo	2023-03-17T00:00:00	2024-11-08T13:00:00	5	Humedad	65
42653	7	Sololá	717	San Juan la Laguna	12	San Juan la Laguna	3	Marzo	2023-03-17T00:00:00	2024-11-08T13:00:00	6	Velocidad del viento	4.8
42654	7	Sololá	717	San Juan la Laguna	12	San Juan la Laguna	3	Marzo	2023-03-17T00:00:00	2024-11-08T13:00:00	7	Dirección del viento	4.83
42655	7	Sololá	717	San Juan la Laguna	12	San Juan la Laguna	3	Marzo	2023-03-17T00:00:00	2024-11-08T13:00:00	1	Precipitación	0
42656	7	Sololá	717	San Juan la Laguna	12	San Juan la Laguna	3	Marzo	2023-03-17T00:00:00	2024-11-08T13:00:00	8	Radiación solar	944
42657	7	Sololá	717	San Juan la Laguna	12	San Juan la Laguna	3	Marzo	2023-03-17T00:00:00	2024-11-08T14:00:00	2	Temperatura media	18.6
42658	7	Sololá	717	San Juan la Laguna	12	San Juan la Laguna	3	Marzo	2023-03-17T00:00:00	2024-11-08T14:00:00	4	Temperatura máxima	22.3
42659	7	Sololá	717	San Juan la Laguna	12	San Juan la Laguna	3	Marzo	2023-03-17T00:00:00	2024-11-08T14:00:00	3	Temperatura mínima	18.6
42660	7	Sololá	717	San Juan la Laguna	12	San Juan la Laguna	3	Marzo	2023-03-17T00:00:00	2024-11-08T14:00:00	5	Humedad	85
42661	7	Sololá	717	San Juan la Laguna	12	San Juan la Laguna	3	Marzo	2023-03-17T00:00:00	2024-11-08T14:00:00	6	Velocidad del viento	12.9
42662	7	Sololá	717	San Juan la Laguna	12	San Juan la Laguna	3	Marzo	2023-03-17T00:00:00	2024-11-08T14:00:00	7	Dirección del viento	12.87
42663	7	Sololá	717	San Juan la Laguna	12	San Juan la Laguna	3	Marzo	2023-03-17T00:00:00	2024-11-08T14:00:00	1	Precipitación	1.4
42664	7	Sololá	717	San Juan la Laguna	12	San Juan la Laguna	3	Marzo	2023-03-17T00:00:00	2024-11-08T14:00:00	8	Radiación solar	178
42665	7	Sololá	717	San Juan la Laguna	12	San Juan la Laguna	3	Marzo	2023-03-17T00:00:00	2024-11-08T15:00:00	2	Temperatura media	16.7
42666	7	Sololá	717	San Juan la Laguna	12	San Juan la Laguna	3	Marzo	2023-03-17T00:00:00	2024-11-08T15:00:00	4	Temperatura máxima	18.5
42667	7	Sololá	717	San Juan la Laguna	12	San Juan la Laguna	3	Marzo	2023-03-17T00:00:00	2024-11-08T15:00:00	3	Temperatura mínima	16.2
42668	7	Sololá	717	San Juan la Laguna	12	San Juan la Laguna	3	Marzo	2023-03-17T00:00:00	2024-11-08T15:00:00	5	Humedad	79
42669	7	Sololá	717	San Juan la Laguna	12	San Juan la Laguna	3	Marzo	2023-03-17T00:00:00	2024-11-08T15:00:00	6	Velocidad del viento	8
42670	7	Sololá	717	San Juan la Laguna	12	San Juan la Laguna	3	Marzo	2023-03-17T00:00:00	2024-11-08T15:00:00	7	Dirección del viento	8.05
42671	7	Sololá	717	San Juan la Laguna	12	San Juan la Laguna	3	Marzo	2023-03-17T00:00:00	2024-11-08T15:00:00	1	Precipitación	2.4
42672	7	Sololá	717	San Juan la Laguna	12	San Juan la Laguna	3	Marzo	2023-03-17T00:00:00	2024-11-08T15:00:00	8	Radiación solar	111
42673	7	Sololá	717	San Juan la Laguna	12	San Juan la Laguna	3	Marzo	2023-03-17T00:00:00	2024-11-08T16:00:00	2	Temperatura media	18.5
42674	7	Sololá	717	San Juan la Laguna	12	San Juan la Laguna	3	Marzo	2023-03-17T00:00:00	2024-11-08T16:00:00	4	Temperatura máxima	19.7
42675	7	Sololá	717	San Juan la Laguna	12	San Juan la Laguna	3	Marzo	2023-03-17T00:00:00	2024-11-08T16:00:00	3	Temperatura mínima	16.7
42676	7	Sololá	717	San Juan la Laguna	12	San Juan la Laguna	3	Marzo	2023-03-17T00:00:00	2024-11-08T16:00:00	5	Humedad	78
42677	7	Sololá	717	San Juan la Laguna	12	San Juan la Laguna	3	Marzo	2023-03-17T00:00:00	2024-11-08T16:00:00	6	Velocidad del viento	8
42678	7	Sololá	717	San Juan la Laguna	12	San Juan la Laguna	3	Marzo	2023-03-17T00:00:00	2024-11-08T16:00:00	7	Dirección del viento	8.05
42679	7	Sololá	717	San Juan la Laguna	12	San Juan la Laguna	3	Marzo	2023-03-17T00:00:00	2024-11-08T16:00:00	1	Precipitación	0
42680	7	Sololá	717	San Juan la Laguna	12	San Juan la Laguna	3	Marzo	2023-03-17T00:00:00	2024-11-08T16:00:00	8	Radiación solar	251
42681	7	Sololá	717	San Juan la Laguna	12	San Juan la Laguna	3	Marzo	2023-03-17T00:00:00	2024-11-08T17:00:00	2	Temperatura media	18.6
42682	7	Sololá	717	San Juan la Laguna	12	San Juan la Laguna	3	Marzo	2023-03-17T00:00:00	2024-11-08T17:00:00	4	Temperatura máxima	19.1
42683	7	Sololá	717	San Juan la Laguna	12	San Juan la Laguna	3	Marzo	2023-03-17T00:00:00	2024-11-08T17:00:00	3	Temperatura mínima	18.4
42684	7	Sololá	717	San Juan la Laguna	12	San Juan la Laguna	3	Marzo	2023-03-17T00:00:00	2024-11-08T17:00:00	5	Humedad	82
42685	7	Sololá	717	San Juan la Laguna	12	San Juan la Laguna	3	Marzo	2023-03-17T00:00:00	2024-11-08T17:00:00	6	Velocidad del viento	3.2
42686	7	Sololá	717	San Juan la Laguna	12	San Juan la Laguna	3	Marzo	2023-03-17T00:00:00	2024-11-08T17:00:00	7	Dirección del viento	3.22
42687	7	Sololá	717	San Juan la Laguna	12	San Juan la Laguna	3	Marzo	2023-03-17T00:00:00	2024-11-08T17:00:00	1	Precipitación	0
42688	7	Sololá	717	San Juan la Laguna	12	San Juan la Laguna	3	Marzo	2023-03-17T00:00:00	2024-11-08T17:00:00	8	Radiación solar	72
42689	7	Sololá	717	San Juan la Laguna	12	San Juan la Laguna	3	Marzo	2023-03-17T00:00:00	2024-11-08T18:00:00	2	Temperatura media	17.8
42690	7	Sololá	717	San Juan la Laguna	12	San Juan la Laguna	3	Marzo	2023-03-17T00:00:00	2024-11-08T18:00:00	4	Temperatura máxima	18.6
42691	7	Sololá	717	San Juan la Laguna	12	San Juan la Laguna	3	Marzo	2023-03-17T00:00:00	2024-11-08T18:00:00	3	Temperatura mínima	17.8
42692	7	Sololá	717	San Juan la Laguna	12	San Juan la Laguna	3	Marzo	2023-03-17T00:00:00	2024-11-08T18:00:00	5	Humedad	86
42693	7	Sololá	717	San Juan la Laguna	12	San Juan la Laguna	3	Marzo	2023-03-17T00:00:00	2024-11-08T18:00:00	6	Velocidad del viento	0
42694	7	Sololá	717	San Juan la Laguna	12	San Juan la Laguna	3	Marzo	2023-03-17T00:00:00	2024-11-08T18:00:00	7	Dirección del viento	0
42695	7	Sololá	717	San Juan la Laguna	12	San Juan la Laguna	3	Marzo	2023-03-17T00:00:00	2024-11-08T18:00:00	1	Precipitación	0.2
42696	7	Sololá	717	San Juan la Laguna	12	San Juan la Laguna	3	Marzo	2023-03-17T00:00:00	2024-11-08T18:00:00	8	Radiación solar	25
42697	7	Sololá	717	San Juan la Laguna	12	San Juan la Laguna	3	Marzo	2023-03-17T00:00:00	2024-11-08T19:00:00	2	Temperatura media	17.2
42698	7	Sololá	717	San Juan la Laguna	12	San Juan la Laguna	3	Marzo	2023-03-17T00:00:00	2024-11-08T19:00:00	4	Temperatura máxima	17.9
42699	7	Sololá	717	San Juan la Laguna	12	San Juan la Laguna	3	Marzo	2023-03-17T00:00:00	2024-11-08T19:00:00	3	Temperatura mínima	17.2
42700	7	Sololá	717	San Juan la Laguna	12	San Juan la Laguna	3	Marzo	2023-03-17T00:00:00	2024-11-08T19:00:00	5	Humedad	89
42701	7	Sololá	717	San Juan la Laguna	12	San Juan la Laguna	3	Marzo	2023-03-17T00:00:00	2024-11-08T19:00:00	6	Velocidad del viento	1.6
42702	7	Sololá	717	San Juan la Laguna	12	San Juan la Laguna	3	Marzo	2023-03-17T00:00:00	2024-11-08T19:00:00	7	Dirección del viento	1.61
42703	7	Sololá	717	San Juan la Laguna	12	San Juan la Laguna	3	Marzo	2023-03-17T00:00:00	2024-11-08T19:00:00	1	Precipitación	0.2
42704	7	Sololá	717	San Juan la Laguna	12	San Juan la Laguna	3	Marzo	2023-03-17T00:00:00	2024-11-08T19:00:00	8	Radiación solar	0
42705	7	Sololá	717	San Juan la Laguna	12	San Juan la Laguna	3	Marzo	2023-03-17T00:00:00	2024-11-08T20:00:00	2	Temperatura media	17.3
42706	7	Sololá	717	San Juan la Laguna	12	San Juan la Laguna	3	Marzo	2023-03-17T00:00:00	2024-11-08T20:00:00	4	Temperatura máxima	17.3
42707	7	Sololá	717	San Juan la Laguna	12	San Juan la Laguna	3	Marzo	2023-03-17T00:00:00	2024-11-08T20:00:00	3	Temperatura mínima	17.2
42708	7	Sololá	717	San Juan la Laguna	12	San Juan la Laguna	3	Marzo	2023-03-17T00:00:00	2024-11-08T20:00:00	5	Humedad	86
42709	7	Sololá	717	San Juan la Laguna	12	San Juan la Laguna	3	Marzo	2023-03-17T00:00:00	2024-11-08T20:00:00	6	Velocidad del viento	3.2
42710	7	Sololá	717	San Juan la Laguna	12	San Juan la Laguna	3	Marzo	2023-03-17T00:00:00	2024-11-08T20:00:00	7	Dirección del viento	3.22
42711	7	Sololá	717	San Juan la Laguna	12	San Juan la Laguna	3	Marzo	2023-03-17T00:00:00	2024-11-08T20:00:00	1	Precipitación	0.2
42712	7	Sololá	717	San Juan la Laguna	12	San Juan la Laguna	3	Marzo	2023-03-17T00:00:00	2024-11-08T20:00:00	8	Radiación solar	0
42713	7	Sololá	717	San Juan la Laguna	12	San Juan la Laguna	3	Marzo	2023-03-17T00:00:00	2024-11-08T21:00:00	2	Temperatura media	15.7
42714	7	Sololá	717	San Juan la Laguna	12	San Juan la Laguna	3	Marzo	2023-03-17T00:00:00	2024-11-08T21:00:00	4	Temperatura máxima	17.3
42715	7	Sololá	717	San Juan la Laguna	12	San Juan la Laguna	3	Marzo	2023-03-17T00:00:00	2024-11-08T21:00:00	3	Temperatura mínima	15.7
42716	7	Sololá	717	San Juan la Laguna	12	San Juan la Laguna	3	Marzo	2023-03-17T00:00:00	2024-11-08T21:00:00	5	Humedad	90
42717	7	Sololá	717	San Juan la Laguna	12	San Juan la Laguna	3	Marzo	2023-03-17T00:00:00	2024-11-08T21:00:00	6	Velocidad del viento	4.8
42718	7	Sololá	717	San Juan la Laguna	12	San Juan la Laguna	3	Marzo	2023-03-17T00:00:00	2024-11-08T21:00:00	7	Dirección del viento	4.83
42719	7	Sololá	717	San Juan la Laguna	12	San Juan la Laguna	3	Marzo	2023-03-17T00:00:00	2024-11-08T21:00:00	1	Precipitación	0
42720	7	Sololá	717	San Juan la Laguna	12	San Juan la Laguna	3	Marzo	2023-03-17T00:00:00	2024-11-08T21:00:00	8	Radiación solar	0
42721	7	Sololá	717	San Juan la Laguna	12	San Juan la Laguna	3	Marzo	2023-03-17T00:00:00	2024-11-08T22:00:00	2	Temperatura media	15.3
42722	7	Sololá	717	San Juan la Laguna	12	San Juan la Laguna	3	Marzo	2023-03-17T00:00:00	2024-11-08T22:00:00	4	Temperatura máxima	15.7
42723	7	Sololá	717	San Juan la Laguna	12	San Juan la Laguna	3	Marzo	2023-03-17T00:00:00	2024-11-08T22:00:00	3	Temperatura mínima	14.9
42724	7	Sololá	717	San Juan la Laguna	12	San Juan la Laguna	3	Marzo	2023-03-17T00:00:00	2024-11-08T22:00:00	5	Humedad	90
42725	7	Sololá	717	San Juan la Laguna	12	San Juan la Laguna	3	Marzo	2023-03-17T00:00:00	2024-11-08T22:00:00	6	Velocidad del viento	3.2
42726	7	Sololá	717	San Juan la Laguna	12	San Juan la Laguna	3	Marzo	2023-03-17T00:00:00	2024-11-08T22:00:00	7	Dirección del viento	3.22
42727	7	Sololá	717	San Juan la Laguna	12	San Juan la Laguna	3	Marzo	2023-03-17T00:00:00	2024-11-08T22:00:00	1	Precipitación	0
42728	7	Sololá	717	San Juan la Laguna	12	San Juan la Laguna	3	Marzo	2023-03-17T00:00:00	2024-11-08T22:00:00	8	Radiación solar	0
42729	7	Sololá	717	San Juan la Laguna	12	San Juan la Laguna	3	Marzo	2023-03-17T00:00:00	2024-11-08T23:00:00	2	Temperatura media	14.4
42730	7	Sololá	717	San Juan la Laguna	12	San Juan la Laguna	3	Marzo	2023-03-17T00:00:00	2024-11-08T23:00:00	4	Temperatura máxima	15.3
42731	7	Sololá	717	San Juan la Laguna	12	San Juan la Laguna	3	Marzo	2023-03-17T00:00:00	2024-11-08T23:00:00	3	Temperatura mínima	14.4
42732	7	Sololá	717	San Juan la Laguna	12	San Juan la Laguna	3	Marzo	2023-03-17T00:00:00	2024-11-08T23:00:00	5	Humedad	91
42733	7	Sololá	717	San Juan la Laguna	12	San Juan la Laguna	3	Marzo	2023-03-17T00:00:00	2024-11-08T23:00:00	6	Velocidad del viento	3.2
42734	7	Sololá	717	San Juan la Laguna	12	San Juan la Laguna	3	Marzo	2023-03-17T00:00:00	2024-11-08T23:00:00	7	Dirección del viento	3.22
42735	7	Sololá	717	San Juan la Laguna	12	San Juan la Laguna	3	Marzo	2023-03-17T00:00:00	2024-11-08T23:00:00	1	Precipitación	0
42736	7	Sololá	717	San Juan la Laguna	12	San Juan la Laguna	3	Marzo	2023-03-17T00:00:00	2024-11-08T23:00:00	8	Radiación solar	0
42737	7	Sololá	717	San Juan la Laguna	12	San Juan la Laguna	3	Marzo	2023-03-18T00:00:00	2024-11-08T00:00:00	2	Temperatura media	14.8
42738	7	Sololá	717	San Juan la Laguna	12	San Juan la Laguna	3	Marzo	2023-03-18T00:00:00	2024-11-08T00:00:00	4	Temperatura máxima	14.8
42739	7	Sololá	717	San Juan la Laguna	12	San Juan la Laguna	3	Marzo	2023-03-18T00:00:00	2024-11-08T00:00:00	3	Temperatura mínima	14.4
42740	7	Sololá	717	San Juan la Laguna	12	San Juan la Laguna	3	Marzo	2023-03-18T00:00:00	2024-11-08T00:00:00	5	Humedad	88
42741	7	Sololá	717	San Juan la Laguna	12	San Juan la Laguna	3	Marzo	2023-03-18T00:00:00	2024-11-08T00:00:00	6	Velocidad del viento	6.4
42742	7	Sololá	717	San Juan la Laguna	12	San Juan la Laguna	3	Marzo	2023-03-18T00:00:00	2024-11-08T00:00:00	7	Dirección del viento	6.44
42743	7	Sololá	717	San Juan la Laguna	12	San Juan la Laguna	3	Marzo	2023-03-18T00:00:00	2024-11-08T00:00:00	1	Precipitación	0
42744	7	Sololá	717	San Juan la Laguna	12	San Juan la Laguna	3	Marzo	2023-03-18T00:00:00	2024-11-08T00:00:00	8	Radiación solar	0
42745	7	Sololá	717	San Juan la Laguna	12	San Juan la Laguna	3	Marzo	2023-03-18T00:00:00	2024-11-08T01:00:00	2	Temperatura media	13.9
42746	7	Sololá	717	San Juan la Laguna	12	San Juan la Laguna	3	Marzo	2023-03-18T00:00:00	2024-11-08T01:00:00	4	Temperatura máxima	14.8
42747	7	Sololá	717	San Juan la Laguna	12	San Juan la Laguna	3	Marzo	2023-03-18T00:00:00	2024-11-08T01:00:00	3	Temperatura mínima	13.9
42748	7	Sololá	717	San Juan la Laguna	12	San Juan la Laguna	3	Marzo	2023-03-18T00:00:00	2024-11-08T01:00:00	5	Humedad	92
42749	7	Sololá	717	San Juan la Laguna	12	San Juan la Laguna	3	Marzo	2023-03-18T00:00:00	2024-11-08T01:00:00	6	Velocidad del viento	3.2
42750	7	Sololá	717	San Juan la Laguna	12	San Juan la Laguna	3	Marzo	2023-03-18T00:00:00	2024-11-08T01:00:00	7	Dirección del viento	3.22
42751	7	Sololá	717	San Juan la Laguna	12	San Juan la Laguna	3	Marzo	2023-03-18T00:00:00	2024-11-08T01:00:00	1	Precipitación	0
42752	7	Sololá	717	San Juan la Laguna	12	San Juan la Laguna	3	Marzo	2023-03-18T00:00:00	2024-11-08T01:00:00	8	Radiación solar	0
42753	7	Sololá	717	San Juan la Laguna	12	San Juan la Laguna	3	Marzo	2023-03-18T00:00:00	2024-11-08T02:00:00	2	Temperatura media	14.8
42754	7	Sololá	717	San Juan la Laguna	12	San Juan la Laguna	3	Marzo	2023-03-18T00:00:00	2024-11-08T02:00:00	4	Temperatura máxima	14.8
42755	7	Sololá	717	San Juan la Laguna	12	San Juan la Laguna	3	Marzo	2023-03-18T00:00:00	2024-11-08T02:00:00	3	Temperatura mínima	14
42756	7	Sololá	717	San Juan la Laguna	12	San Juan la Laguna	3	Marzo	2023-03-18T00:00:00	2024-11-08T02:00:00	5	Humedad	89
42757	7	Sololá	717	San Juan la Laguna	12	San Juan la Laguna	3	Marzo	2023-03-18T00:00:00	2024-11-08T02:00:00	6	Velocidad del viento	4.8
42758	7	Sololá	717	San Juan la Laguna	12	San Juan la Laguna	3	Marzo	2023-03-18T00:00:00	2024-11-08T02:00:00	7	Dirección del viento	4.83
42759	7	Sololá	717	San Juan la Laguna	12	San Juan la Laguna	3	Marzo	2023-03-18T00:00:00	2024-11-08T02:00:00	1	Precipitación	0
42760	7	Sololá	717	San Juan la Laguna	12	San Juan la Laguna	3	Marzo	2023-03-18T00:00:00	2024-11-08T02:00:00	8	Radiación solar	0
42761	7	Sololá	717	San Juan la Laguna	12	San Juan la Laguna	3	Marzo	2023-03-18T00:00:00	2024-11-08T03:00:00	2	Temperatura media	14.7
42762	7	Sololá	717	San Juan la Laguna	12	San Juan la Laguna	3	Marzo	2023-03-18T00:00:00	2024-11-08T03:00:00	4	Temperatura máxima	15.1
42763	7	Sololá	717	San Juan la Laguna	12	San Juan la Laguna	3	Marzo	2023-03-18T00:00:00	2024-11-08T03:00:00	3	Temperatura mínima	14.7
42764	7	Sololá	717	San Juan la Laguna	12	San Juan la Laguna	3	Marzo	2023-03-18T00:00:00	2024-11-08T03:00:00	5	Humedad	89
42765	7	Sololá	717	San Juan la Laguna	12	San Juan la Laguna	3	Marzo	2023-03-18T00:00:00	2024-11-08T03:00:00	6	Velocidad del viento	3.2
42766	7	Sololá	717	San Juan la Laguna	12	San Juan la Laguna	3	Marzo	2023-03-18T00:00:00	2024-11-08T03:00:00	7	Dirección del viento	3.22
42767	7	Sololá	717	San Juan la Laguna	12	San Juan la Laguna	3	Marzo	2023-03-18T00:00:00	2024-11-08T03:00:00	1	Precipitación	0
42768	7	Sololá	717	San Juan la Laguna	12	San Juan la Laguna	3	Marzo	2023-03-18T00:00:00	2024-11-08T03:00:00	8	Radiación solar	0
42769	7	Sololá	717	San Juan la Laguna	12	San Juan la Laguna	3	Marzo	2023-03-18T00:00:00	2024-11-08T04:00:00	2	Temperatura media	13.8
42770	7	Sololá	717	San Juan la Laguna	12	San Juan la Laguna	3	Marzo	2023-03-18T00:00:00	2024-11-08T04:00:00	4	Temperatura máxima	14.7
42771	7	Sololá	717	San Juan la Laguna	12	San Juan la Laguna	3	Marzo	2023-03-18T00:00:00	2024-11-08T04:00:00	3	Temperatura mínima	13.8
42772	7	Sololá	717	San Juan la Laguna	12	San Juan la Laguna	3	Marzo	2023-03-18T00:00:00	2024-11-08T04:00:00	5	Humedad	89
42773	7	Sololá	717	San Juan la Laguna	12	San Juan la Laguna	3	Marzo	2023-03-18T00:00:00	2024-11-08T04:00:00	6	Velocidad del viento	1.6
42774	7	Sololá	717	San Juan la Laguna	12	San Juan la Laguna	3	Marzo	2023-03-18T00:00:00	2024-11-08T04:00:00	7	Dirección del viento	1.61
42775	7	Sololá	717	San Juan la Laguna	12	San Juan la Laguna	3	Marzo	2023-03-18T00:00:00	2024-11-08T04:00:00	1	Precipitación	0
42776	7	Sololá	717	San Juan la Laguna	12	San Juan la Laguna	3	Marzo	2023-03-18T00:00:00	2024-11-08T04:00:00	8	Radiación solar	0
42777	7	Sololá	717	San Juan la Laguna	12	San Juan la Laguna	3	Marzo	2023-03-18T00:00:00	2024-11-08T05:00:00	2	Temperatura media	13.3
42778	7	Sololá	717	San Juan la Laguna	12	San Juan la Laguna	3	Marzo	2023-03-18T00:00:00	2024-11-08T05:00:00	4	Temperatura máxima	13.8
42779	7	Sololá	717	San Juan la Laguna	12	San Juan la Laguna	3	Marzo	2023-03-18T00:00:00	2024-11-08T05:00:00	3	Temperatura mínima	13.2
42780	7	Sololá	717	San Juan la Laguna	12	San Juan la Laguna	3	Marzo	2023-03-18T00:00:00	2024-11-08T05:00:00	5	Humedad	90
42781	7	Sololá	717	San Juan la Laguna	12	San Juan la Laguna	3	Marzo	2023-03-18T00:00:00	2024-11-08T05:00:00	6	Velocidad del viento	1.6
42782	7	Sololá	717	San Juan la Laguna	12	San Juan la Laguna	3	Marzo	2023-03-18T00:00:00	2024-11-08T05:00:00	7	Dirección del viento	1.61
42783	7	Sololá	717	San Juan la Laguna	12	San Juan la Laguna	3	Marzo	2023-03-18T00:00:00	2024-11-08T05:00:00	1	Precipitación	0
42784	7	Sololá	717	San Juan la Laguna	12	San Juan la Laguna	3	Marzo	2023-03-18T00:00:00	2024-11-08T05:00:00	8	Radiación solar	0
42785	7	Sololá	717	San Juan la Laguna	12	San Juan la Laguna	3	Marzo	2023-03-18T00:00:00	2024-11-08T06:00:00	2	Temperatura media	13.2
42786	7	Sololá	717	San Juan la Laguna	12	San Juan la Laguna	3	Marzo	2023-03-18T00:00:00	2024-11-08T06:00:00	4	Temperatura máxima	13.5
42787	7	Sololá	717	San Juan la Laguna	12	San Juan la Laguna	3	Marzo	2023-03-18T00:00:00	2024-11-08T06:00:00	3	Temperatura mínima	13.2
42788	7	Sololá	717	San Juan la Laguna	12	San Juan la Laguna	3	Marzo	2023-03-18T00:00:00	2024-11-08T06:00:00	5	Humedad	88
42789	7	Sololá	717	San Juan la Laguna	12	San Juan la Laguna	3	Marzo	2023-03-18T00:00:00	2024-11-08T06:00:00	6	Velocidad del viento	4.8
42790	7	Sololá	717	San Juan la Laguna	12	San Juan la Laguna	3	Marzo	2023-03-18T00:00:00	2024-11-08T06:00:00	7	Dirección del viento	4.83
42791	7	Sololá	717	San Juan la Laguna	12	San Juan la Laguna	3	Marzo	2023-03-18T00:00:00	2024-11-08T06:00:00	1	Precipitación	0
42792	7	Sololá	717	San Juan la Laguna	12	San Juan la Laguna	3	Marzo	2023-03-18T00:00:00	2024-11-08T06:00:00	8	Radiación solar	0
42793	7	Sololá	717	San Juan la Laguna	12	San Juan la Laguna	3	Marzo	2023-03-18T00:00:00	2024-11-08T07:00:00	2	Temperatura media	13.4
42794	7	Sololá	717	San Juan la Laguna	12	San Juan la Laguna	3	Marzo	2023-03-18T00:00:00	2024-11-08T07:00:00	4	Temperatura máxima	13.4
42795	7	Sololá	717	San Juan la Laguna	12	San Juan la Laguna	3	Marzo	2023-03-18T00:00:00	2024-11-08T07:00:00	3	Temperatura mínima	12.9
42796	7	Sololá	717	San Juan la Laguna	12	San Juan la Laguna	3	Marzo	2023-03-18T00:00:00	2024-11-08T07:00:00	5	Humedad	86
42797	7	Sololá	717	San Juan la Laguna	12	San Juan la Laguna	3	Marzo	2023-03-18T00:00:00	2024-11-08T07:00:00	6	Velocidad del viento	4.8
42798	7	Sololá	717	San Juan la Laguna	12	San Juan la Laguna	3	Marzo	2023-03-18T00:00:00	2024-11-08T07:00:00	7	Dirección del viento	4.83
42799	7	Sololá	717	San Juan la Laguna	12	San Juan la Laguna	3	Marzo	2023-03-18T00:00:00	2024-11-08T07:00:00	1	Precipitación	0
42800	7	Sololá	717	San Juan la Laguna	12	San Juan la Laguna	3	Marzo	2023-03-18T00:00:00	2024-11-08T07:00:00	8	Radiación solar	25
42801	7	Sololá	717	San Juan la Laguna	12	San Juan la Laguna	3	Marzo	2023-03-18T00:00:00	2024-11-08T08:00:00	2	Temperatura media	17
42802	7	Sololá	717	San Juan la Laguna	12	San Juan la Laguna	3	Marzo	2023-03-18T00:00:00	2024-11-08T08:00:00	4	Temperatura máxima	17
42803	7	Sololá	717	San Juan la Laguna	12	San Juan la Laguna	3	Marzo	2023-03-18T00:00:00	2024-11-08T08:00:00	3	Temperatura mínima	13.5
42804	7	Sololá	717	San Juan la Laguna	12	San Juan la Laguna	3	Marzo	2023-03-18T00:00:00	2024-11-08T08:00:00	5	Humedad	80
42805	7	Sololá	717	San Juan la Laguna	12	San Juan la Laguna	3	Marzo	2023-03-18T00:00:00	2024-11-08T08:00:00	6	Velocidad del viento	3.2
42806	7	Sololá	717	San Juan la Laguna	12	San Juan la Laguna	3	Marzo	2023-03-18T00:00:00	2024-11-08T08:00:00	7	Dirección del viento	3.22
42807	7	Sololá	717	San Juan la Laguna	12	San Juan la Laguna	3	Marzo	2023-03-18T00:00:00	2024-11-08T08:00:00	1	Precipitación	0
42808	7	Sololá	717	San Juan la Laguna	12	San Juan la Laguna	3	Marzo	2023-03-18T00:00:00	2024-11-08T08:00:00	8	Radiación solar	185
42809	7	Sololá	717	San Juan la Laguna	12	San Juan la Laguna	3	Marzo	2023-03-18T00:00:00	2024-11-08T09:00:00	2	Temperatura media	18.7
42810	7	Sololá	717	San Juan la Laguna	12	San Juan la Laguna	3	Marzo	2023-03-18T00:00:00	2024-11-08T09:00:00	4	Temperatura máxima	19.4
42811	7	Sololá	717	San Juan la Laguna	12	San Juan la Laguna	3	Marzo	2023-03-18T00:00:00	2024-11-08T09:00:00	3	Temperatura mínima	17
42812	7	Sololá	717	San Juan la Laguna	12	San Juan la Laguna	3	Marzo	2023-03-18T00:00:00	2024-11-08T09:00:00	5	Humedad	78
42813	7	Sololá	717	San Juan la Laguna	12	San Juan la Laguna	3	Marzo	2023-03-18T00:00:00	2024-11-08T09:00:00	6	Velocidad del viento	3.2
42814	7	Sololá	717	San Juan la Laguna	12	San Juan la Laguna	3	Marzo	2023-03-18T00:00:00	2024-11-08T09:00:00	7	Dirección del viento	3.22
42815	7	Sololá	717	San Juan la Laguna	12	San Juan la Laguna	3	Marzo	2023-03-18T00:00:00	2024-11-08T09:00:00	1	Precipitación	0
42816	7	Sololá	717	San Juan la Laguna	12	San Juan la Laguna	3	Marzo	2023-03-18T00:00:00	2024-11-08T09:00:00	8	Radiación solar	442
42817	7	Sololá	717	San Juan la Laguna	12	San Juan la Laguna	3	Marzo	2023-03-18T00:00:00	2024-11-08T10:00:00	2	Temperatura media	20.9
42818	7	Sololá	717	San Juan la Laguna	12	San Juan la Laguna	3	Marzo	2023-03-18T00:00:00	2024-11-08T10:00:00	4	Temperatura máxima	21.1
42819	7	Sololá	717	San Juan la Laguna	12	San Juan la Laguna	3	Marzo	2023-03-18T00:00:00	2024-11-08T10:00:00	3	Temperatura mínima	18.7
42820	7	Sololá	717	San Juan la Laguna	12	San Juan la Laguna	3	Marzo	2023-03-18T00:00:00	2024-11-08T10:00:00	5	Humedad	59
42821	7	Sololá	717	San Juan la Laguna	12	San Juan la Laguna	3	Marzo	2023-03-18T00:00:00	2024-11-08T10:00:00	6	Velocidad del viento	4.8
42822	7	Sololá	717	San Juan la Laguna	12	San Juan la Laguna	3	Marzo	2023-03-18T00:00:00	2024-11-08T10:00:00	7	Dirección del viento	4.83
42823	7	Sololá	717	San Juan la Laguna	12	San Juan la Laguna	3	Marzo	2023-03-18T00:00:00	2024-11-08T10:00:00	1	Precipitación	0
42824	7	Sololá	717	San Juan la Laguna	12	San Juan la Laguna	3	Marzo	2023-03-18T00:00:00	2024-11-08T10:00:00	8	Radiación solar	667
42825	7	Sololá	717	San Juan la Laguna	12	San Juan la Laguna	3	Marzo	2023-03-18T00:00:00	2024-11-08T11:00:00	2	Temperatura media	21.2
42826	7	Sololá	717	San Juan la Laguna	12	San Juan la Laguna	3	Marzo	2023-03-18T00:00:00	2024-11-08T11:00:00	4	Temperatura máxima	21.9
42827	7	Sololá	717	San Juan la Laguna	12	San Juan la Laguna	3	Marzo	2023-03-18T00:00:00	2024-11-08T11:00:00	3	Temperatura mínima	20.9
42828	7	Sololá	717	San Juan la Laguna	12	San Juan la Laguna	3	Marzo	2023-03-18T00:00:00	2024-11-08T11:00:00	5	Humedad	68
42829	7	Sololá	717	San Juan la Laguna	12	San Juan la Laguna	3	Marzo	2023-03-18T00:00:00	2024-11-08T11:00:00	6	Velocidad del viento	1.6
42830	7	Sololá	717	San Juan la Laguna	12	San Juan la Laguna	3	Marzo	2023-03-18T00:00:00	2024-11-08T11:00:00	7	Dirección del viento	1.61
42831	7	Sololá	717	San Juan la Laguna	12	San Juan la Laguna	3	Marzo	2023-03-18T00:00:00	2024-11-08T11:00:00	1	Precipitación	0
42832	7	Sololá	717	San Juan la Laguna	12	San Juan la Laguna	3	Marzo	2023-03-18T00:00:00	2024-11-08T11:00:00	8	Radiación solar	841
42833	7	Sololá	717	San Juan la Laguna	12	San Juan la Laguna	3	Marzo	2023-03-18T00:00:00	2024-11-08T12:00:00	2	Temperatura media	22.7
42834	7	Sololá	717	San Juan la Laguna	12	San Juan la Laguna	3	Marzo	2023-03-18T00:00:00	2024-11-08T12:00:00	4	Temperatura máxima	22.8
42835	7	Sololá	717	San Juan la Laguna	12	San Juan la Laguna	3	Marzo	2023-03-18T00:00:00	2024-11-08T12:00:00	3	Temperatura mínima	21.2
42836	7	Sololá	717	San Juan la Laguna	12	San Juan la Laguna	3	Marzo	2023-03-18T00:00:00	2024-11-08T12:00:00	5	Humedad	66
42837	7	Sololá	717	San Juan la Laguna	12	San Juan la Laguna	3	Marzo	2023-03-18T00:00:00	2024-11-08T12:00:00	6	Velocidad del viento	3.2
42838	7	Sololá	717	San Juan la Laguna	12	San Juan la Laguna	3	Marzo	2023-03-18T00:00:00	2024-11-08T12:00:00	7	Dirección del viento	3.22
42839	7	Sololá	717	San Juan la Laguna	12	San Juan la Laguna	3	Marzo	2023-03-18T00:00:00	2024-11-08T12:00:00	1	Precipitación	0
42840	7	Sololá	717	San Juan la Laguna	12	San Juan la Laguna	3	Marzo	2023-03-18T00:00:00	2024-11-08T12:00:00	8	Radiación solar	921
42841	7	Sololá	717	San Juan la Laguna	12	San Juan la Laguna	3	Marzo	2023-03-18T00:00:00	2024-11-08T13:00:00	2	Temperatura media	22
42842	7	Sololá	717	San Juan la Laguna	12	San Juan la Laguna	3	Marzo	2023-03-18T00:00:00	2024-11-08T13:00:00	4	Temperatura máxima	22.8
42843	7	Sololá	717	San Juan la Laguna	12	San Juan la Laguna	3	Marzo	2023-03-18T00:00:00	2024-11-08T13:00:00	3	Temperatura mínima	21.9
42844	7	Sololá	717	San Juan la Laguna	12	San Juan la Laguna	3	Marzo	2023-03-18T00:00:00	2024-11-08T13:00:00	5	Humedad	69
42845	7	Sololá	717	San Juan la Laguna	12	San Juan la Laguna	3	Marzo	2023-03-18T00:00:00	2024-11-08T13:00:00	6	Velocidad del viento	9.7
42846	7	Sololá	717	San Juan la Laguna	12	San Juan la Laguna	3	Marzo	2023-03-18T00:00:00	2024-11-08T13:00:00	7	Dirección del viento	9.66
42847	7	Sololá	717	San Juan la Laguna	12	San Juan la Laguna	3	Marzo	2023-03-18T00:00:00	2024-11-08T13:00:00	1	Precipitación	0
42848	7	Sololá	717	San Juan la Laguna	12	San Juan la Laguna	3	Marzo	2023-03-18T00:00:00	2024-11-08T13:00:00	8	Radiación solar	946
42849	7	Sololá	717	San Juan la Laguna	12	San Juan la Laguna	3	Marzo	2023-03-18T00:00:00	2024-11-08T14:00:00	2	Temperatura media	22.1
42850	7	Sololá	717	San Juan la Laguna	12	San Juan la Laguna	3	Marzo	2023-03-18T00:00:00	2024-11-08T14:00:00	4	Temperatura máxima	22.8
42851	7	Sololá	717	San Juan la Laguna	12	San Juan la Laguna	3	Marzo	2023-03-18T00:00:00	2024-11-08T14:00:00	3	Temperatura mínima	21.7
42852	7	Sololá	717	San Juan la Laguna	12	San Juan la Laguna	3	Marzo	2023-03-18T00:00:00	2024-11-08T14:00:00	5	Humedad	67
42853	7	Sololá	717	San Juan la Laguna	12	San Juan la Laguna	3	Marzo	2023-03-18T00:00:00	2024-11-08T14:00:00	6	Velocidad del viento	9.7
42854	7	Sololá	717	San Juan la Laguna	12	San Juan la Laguna	3	Marzo	2023-03-18T00:00:00	2024-11-08T14:00:00	7	Dirección del viento	9.66
42855	7	Sololá	717	San Juan la Laguna	12	San Juan la Laguna	3	Marzo	2023-03-18T00:00:00	2024-11-08T14:00:00	1	Precipitación	0
42856	7	Sololá	717	San Juan la Laguna	12	San Juan la Laguna	3	Marzo	2023-03-18T00:00:00	2024-11-08T14:00:00	8	Radiación solar	814
42857	7	Sololá	717	San Juan la Laguna	12	San Juan la Laguna	3	Marzo	2023-03-18T00:00:00	2024-11-08T15:00:00	2	Temperatura media	19.3
42858	7	Sololá	717	San Juan la Laguna	12	San Juan la Laguna	3	Marzo	2023-03-18T00:00:00	2024-11-08T15:00:00	4	Temperatura máxima	22.2
42859	7	Sololá	717	San Juan la Laguna	12	San Juan la Laguna	3	Marzo	2023-03-18T00:00:00	2024-11-08T15:00:00	3	Temperatura mínima	19.2
42860	7	Sololá	717	San Juan la Laguna	12	San Juan la Laguna	3	Marzo	2023-03-18T00:00:00	2024-11-08T15:00:00	5	Humedad	82
42861	7	Sololá	717	San Juan la Laguna	12	San Juan la Laguna	3	Marzo	2023-03-18T00:00:00	2024-11-08T15:00:00	6	Velocidad del viento	12.9
42862	7	Sololá	717	San Juan la Laguna	12	San Juan la Laguna	3	Marzo	2023-03-18T00:00:00	2024-11-08T15:00:00	7	Dirección del viento	12.87
42863	7	Sololá	717	San Juan la Laguna	12	San Juan la Laguna	3	Marzo	2023-03-18T00:00:00	2024-11-08T15:00:00	1	Precipitación	0.8
42864	7	Sololá	717	San Juan la Laguna	12	San Juan la Laguna	3	Marzo	2023-03-18T00:00:00	2024-11-08T15:00:00	8	Radiación solar	228
42865	7	Sololá	717	San Juan la Laguna	12	San Juan la Laguna	3	Marzo	2023-03-18T00:00:00	2024-11-08T16:00:00	2	Temperatura media	19.7
42866	7	Sololá	717	San Juan la Laguna	12	San Juan la Laguna	3	Marzo	2023-03-18T00:00:00	2024-11-08T16:00:00	4	Temperatura máxima	20.1
42867	7	Sololá	717	San Juan la Laguna	12	San Juan la Laguna	3	Marzo	2023-03-18T00:00:00	2024-11-08T16:00:00	3	Temperatura mínima	19.4
42868	7	Sololá	717	San Juan la Laguna	12	San Juan la Laguna	3	Marzo	2023-03-18T00:00:00	2024-11-08T16:00:00	5	Humedad	81
42869	7	Sololá	717	San Juan la Laguna	12	San Juan la Laguna	3	Marzo	2023-03-18T00:00:00	2024-11-08T16:00:00	6	Velocidad del viento	6.4
42870	7	Sololá	717	San Juan la Laguna	12	San Juan la Laguna	3	Marzo	2023-03-18T00:00:00	2024-11-08T16:00:00	7	Dirección del viento	6.44
42871	7	Sololá	717	San Juan la Laguna	12	San Juan la Laguna	3	Marzo	2023-03-18T00:00:00	2024-11-08T16:00:00	1	Precipitación	0
42872	7	Sololá	717	San Juan la Laguna	12	San Juan la Laguna	3	Marzo	2023-03-18T00:00:00	2024-11-08T16:00:00	8	Radiación solar	178
42873	7	Sololá	717	San Juan la Laguna	12	San Juan la Laguna	3	Marzo	2023-03-18T00:00:00	2024-11-08T17:00:00	2	Temperatura media	15.1
42874	7	Sololá	717	San Juan la Laguna	12	San Juan la Laguna	3	Marzo	2023-03-18T00:00:00	2024-11-08T17:00:00	4	Temperatura máxima	19.7
42875	7	Sololá	717	San Juan la Laguna	12	San Juan la Laguna	3	Marzo	2023-03-18T00:00:00	2024-11-08T17:00:00	3	Temperatura mínima	15.1
42876	7	Sololá	717	San Juan la Laguna	12	San Juan la Laguna	3	Marzo	2023-03-18T00:00:00	2024-11-08T17:00:00	5	Humedad	88
42877	7	Sololá	717	San Juan la Laguna	12	San Juan la Laguna	3	Marzo	2023-03-18T00:00:00	2024-11-08T17:00:00	6	Velocidad del viento	9.7
42878	7	Sololá	717	San Juan la Laguna	12	San Juan la Laguna	3	Marzo	2023-03-18T00:00:00	2024-11-08T17:00:00	7	Dirección del viento	9.66
42879	7	Sololá	717	San Juan la Laguna	12	San Juan la Laguna	3	Marzo	2023-03-18T00:00:00	2024-11-08T17:00:00	1	Precipitación	10.4
42880	7	Sololá	717	San Juan la Laguna	12	San Juan la Laguna	3	Marzo	2023-03-18T00:00:00	2024-11-08T17:00:00	8	Radiación solar	32
42881	7	Sololá	717	San Juan la Laguna	12	San Juan la Laguna	3	Marzo	2023-03-18T00:00:00	2024-11-08T18:00:00	2	Temperatura media	15.1
42882	7	Sololá	717	San Juan la Laguna	12	San Juan la Laguna	3	Marzo	2023-03-18T00:00:00	2024-11-08T18:00:00	4	Temperatura máxima	15.1
42883	7	Sololá	717	San Juan la Laguna	12	San Juan la Laguna	3	Marzo	2023-03-18T00:00:00	2024-11-08T18:00:00	3	Temperatura mínima	14.6
42884	7	Sololá	717	San Juan la Laguna	12	San Juan la Laguna	3	Marzo	2023-03-18T00:00:00	2024-11-08T18:00:00	5	Humedad	90
42885	7	Sololá	717	San Juan la Laguna	12	San Juan la Laguna	3	Marzo	2023-03-18T00:00:00	2024-11-08T18:00:00	6	Velocidad del viento	8
42886	7	Sololá	717	San Juan la Laguna	12	San Juan la Laguna	3	Marzo	2023-03-18T00:00:00	2024-11-08T18:00:00	7	Dirección del viento	8.05
42887	7	Sololá	717	San Juan la Laguna	12	San Juan la Laguna	3	Marzo	2023-03-18T00:00:00	2024-11-08T18:00:00	1	Precipitación	5.8
42888	7	Sololá	717	San Juan la Laguna	12	San Juan la Laguna	3	Marzo	2023-03-18T00:00:00	2024-11-08T18:00:00	8	Radiación solar	38
42889	7	Sololá	717	San Juan la Laguna	12	San Juan la Laguna	3	Marzo	2023-03-18T00:00:00	2024-11-08T19:00:00	2	Temperatura media	14.9
42890	7	Sololá	717	San Juan la Laguna	12	San Juan la Laguna	3	Marzo	2023-03-18T00:00:00	2024-11-08T19:00:00	4	Temperatura máxima	15.1
42891	7	Sololá	717	San Juan la Laguna	12	San Juan la Laguna	3	Marzo	2023-03-18T00:00:00	2024-11-08T19:00:00	3	Temperatura mínima	14.9
42892	7	Sololá	717	San Juan la Laguna	12	San Juan la Laguna	3	Marzo	2023-03-18T00:00:00	2024-11-08T19:00:00	5	Humedad	91
42893	7	Sololá	717	San Juan la Laguna	12	San Juan la Laguna	3	Marzo	2023-03-18T00:00:00	2024-11-08T19:00:00	6	Velocidad del viento	3.2
42894	7	Sololá	717	San Juan la Laguna	12	San Juan la Laguna	3	Marzo	2023-03-18T00:00:00	2024-11-08T19:00:00	7	Dirección del viento	3.22
42895	7	Sololá	717	San Juan la Laguna	12	San Juan la Laguna	3	Marzo	2023-03-18T00:00:00	2024-11-08T19:00:00	1	Precipitación	0
42896	7	Sololá	717	San Juan la Laguna	12	San Juan la Laguna	3	Marzo	2023-03-18T00:00:00	2024-11-08T19:00:00	8	Radiación solar	0
42897	7	Sololá	717	San Juan la Laguna	12	San Juan la Laguna	3	Marzo	2023-03-18T00:00:00	2024-11-08T20:00:00	2	Temperatura media	14.6
42898	7	Sololá	717	San Juan la Laguna	12	San Juan la Laguna	3	Marzo	2023-03-18T00:00:00	2024-11-08T20:00:00	4	Temperatura máxima	15.1
42899	7	Sololá	717	San Juan la Laguna	12	San Juan la Laguna	3	Marzo	2023-03-18T00:00:00	2024-11-08T20:00:00	3	Temperatura mínima	14.5
42900	7	Sololá	717	San Juan la Laguna	12	San Juan la Laguna	3	Marzo	2023-03-18T00:00:00	2024-11-08T20:00:00	5	Humedad	91
42901	7	Sololá	717	San Juan la Laguna	12	San Juan la Laguna	3	Marzo	2023-03-18T00:00:00	2024-11-08T20:00:00	6	Velocidad del viento	1.6
42902	7	Sololá	717	San Juan la Laguna	12	San Juan la Laguna	3	Marzo	2023-03-18T00:00:00	2024-11-08T20:00:00	7	Dirección del viento	1.61
42903	7	Sololá	717	San Juan la Laguna	12	San Juan la Laguna	3	Marzo	2023-03-18T00:00:00	2024-11-08T20:00:00	1	Precipitación	0
42904	7	Sololá	717	San Juan la Laguna	12	San Juan la Laguna	3	Marzo	2023-03-18T00:00:00	2024-11-08T20:00:00	8	Radiación solar	0
42905	7	Sololá	717	San Juan la Laguna	12	San Juan la Laguna	3	Marzo	2023-03-18T00:00:00	2024-11-08T21:00:00	2	Temperatura media	14.4
42906	7	Sololá	717	San Juan la Laguna	12	San Juan la Laguna	3	Marzo	2023-03-18T00:00:00	2024-11-08T21:00:00	4	Temperatura máxima	14.7
42907	7	Sololá	717	San Juan la Laguna	12	San Juan la Laguna	3	Marzo	2023-03-18T00:00:00	2024-11-08T21:00:00	3	Temperatura mínima	14.4
42908	7	Sololá	717	San Juan la Laguna	12	San Juan la Laguna	3	Marzo	2023-03-18T00:00:00	2024-11-08T21:00:00	5	Humedad	92
42909	7	Sololá	717	San Juan la Laguna	12	San Juan la Laguna	3	Marzo	2023-03-18T00:00:00	2024-11-08T21:00:00	6	Velocidad del viento	4.8
42910	7	Sololá	717	San Juan la Laguna	12	San Juan la Laguna	3	Marzo	2023-03-18T00:00:00	2024-11-08T21:00:00	7	Dirección del viento	4.83
42911	7	Sololá	717	San Juan la Laguna	12	San Juan la Laguna	3	Marzo	2023-03-18T00:00:00	2024-11-08T21:00:00	1	Precipitación	0
42912	7	Sololá	717	San Juan la Laguna	12	San Juan la Laguna	3	Marzo	2023-03-18T00:00:00	2024-11-08T21:00:00	8	Radiación solar	0
42913	7	Sololá	717	San Juan la Laguna	12	San Juan la Laguna	3	Marzo	2023-03-18T00:00:00	2024-11-08T22:00:00	2	Temperatura media	14.3
42914	7	Sololá	717	San Juan la Laguna	12	San Juan la Laguna	3	Marzo	2023-03-18T00:00:00	2024-11-08T22:00:00	4	Temperatura máxima	14.4
42915	7	Sololá	717	San Juan la Laguna	12	San Juan la Laguna	3	Marzo	2023-03-18T00:00:00	2024-11-08T22:00:00	3	Temperatura mínima	14.1
42916	7	Sololá	717	San Juan la Laguna	12	San Juan la Laguna	3	Marzo	2023-03-18T00:00:00	2024-11-08T22:00:00	5	Humedad	92
42917	7	Sololá	717	San Juan la Laguna	12	San Juan la Laguna	3	Marzo	2023-03-18T00:00:00	2024-11-08T22:00:00	6	Velocidad del viento	4.8
42918	7	Sololá	717	San Juan la Laguna	12	San Juan la Laguna	3	Marzo	2023-03-18T00:00:00	2024-11-08T22:00:00	7	Dirección del viento	4.83
42919	7	Sololá	717	San Juan la Laguna	12	San Juan la Laguna	3	Marzo	2023-03-18T00:00:00	2024-11-08T22:00:00	1	Precipitación	0
42920	7	Sololá	717	San Juan la Laguna	12	San Juan la Laguna	3	Marzo	2023-03-18T00:00:00	2024-11-08T22:00:00	8	Radiación solar	0
42921	7	Sololá	717	San Juan la Laguna	12	San Juan la Laguna	3	Marzo	2023-03-18T00:00:00	2024-11-08T23:00:00	2	Temperatura media	14.4
42922	7	Sololá	717	San Juan la Laguna	12	San Juan la Laguna	3	Marzo	2023-03-18T00:00:00	2024-11-08T23:00:00	4	Temperatura máxima	14.4
42923	7	Sololá	717	San Juan la Laguna	12	San Juan la Laguna	3	Marzo	2023-03-18T00:00:00	2024-11-08T23:00:00	3	Temperatura mínima	14.2
42924	7	Sololá	717	San Juan la Laguna	12	San Juan la Laguna	3	Marzo	2023-03-18T00:00:00	2024-11-08T23:00:00	5	Humedad	92
42925	7	Sololá	717	San Juan la Laguna	12	San Juan la Laguna	3	Marzo	2023-03-18T00:00:00	2024-11-08T23:00:00	6	Velocidad del viento	3.2
42926	7	Sololá	717	San Juan la Laguna	12	San Juan la Laguna	3	Marzo	2023-03-18T00:00:00	2024-11-08T23:00:00	7	Dirección del viento	3.22
42927	7	Sololá	717	San Juan la Laguna	12	San Juan la Laguna	3	Marzo	2023-03-18T00:00:00	2024-11-08T23:00:00	1	Precipitación	0
42928	7	Sololá	717	San Juan la Laguna	12	San Juan la Laguna	3	Marzo	2023-03-18T00:00:00	2024-11-08T23:00:00	8	Radiación solar	0
42929	7	Sololá	717	San Juan la Laguna	12	San Juan la Laguna	3	Marzo	2023-03-19T00:00:00	2024-11-08T00:00:00	2	Temperatura media	14.2
42930	7	Sololá	717	San Juan la Laguna	12	San Juan la Laguna	3	Marzo	2023-03-19T00:00:00	2024-11-08T00:00:00	4	Temperatura máxima	14.6
42931	7	Sololá	717	San Juan la Laguna	12	San Juan la Laguna	3	Marzo	2023-03-19T00:00:00	2024-11-08T00:00:00	3	Temperatura mínima	14.2
42932	7	Sololá	717	San Juan la Laguna	12	San Juan la Laguna	3	Marzo	2023-03-19T00:00:00	2024-11-08T00:00:00	5	Humedad	92
42933	7	Sololá	717	San Juan la Laguna	12	San Juan la Laguna	3	Marzo	2023-03-19T00:00:00	2024-11-08T00:00:00	6	Velocidad del viento	4.8
42934	7	Sololá	717	San Juan la Laguna	12	San Juan la Laguna	3	Marzo	2023-03-19T00:00:00	2024-11-08T00:00:00	7	Dirección del viento	4.83
42935	7	Sololá	717	San Juan la Laguna	12	San Juan la Laguna	3	Marzo	2023-03-19T00:00:00	2024-11-08T00:00:00	1	Precipitación	0
42936	7	Sololá	717	San Juan la Laguna	12	San Juan la Laguna	3	Marzo	2023-03-19T00:00:00	2024-11-08T00:00:00	8	Radiación solar	0
42937	7	Sololá	717	San Juan la Laguna	12	San Juan la Laguna	3	Marzo	2023-03-19T00:00:00	2024-11-08T01:00:00	2	Temperatura media	14.1
42938	7	Sololá	717	San Juan la Laguna	12	San Juan la Laguna	3	Marzo	2023-03-19T00:00:00	2024-11-08T01:00:00	4	Temperatura máxima	14.2
42939	7	Sololá	717	San Juan la Laguna	12	San Juan la Laguna	3	Marzo	2023-03-19T00:00:00	2024-11-08T01:00:00	3	Temperatura mínima	13.8
42940	7	Sololá	717	San Juan la Laguna	12	San Juan la Laguna	3	Marzo	2023-03-19T00:00:00	2024-11-08T01:00:00	5	Humedad	93
42941	7	Sololá	717	San Juan la Laguna	12	San Juan la Laguna	3	Marzo	2023-03-19T00:00:00	2024-11-08T01:00:00	6	Velocidad del viento	3.2
42942	7	Sololá	717	San Juan la Laguna	12	San Juan la Laguna	3	Marzo	2023-03-19T00:00:00	2024-11-08T01:00:00	7	Dirección del viento	3.22
42943	7	Sololá	717	San Juan la Laguna	12	San Juan la Laguna	3	Marzo	2023-03-19T00:00:00	2024-11-08T01:00:00	1	Precipitación	0
42944	7	Sololá	717	San Juan la Laguna	12	San Juan la Laguna	3	Marzo	2023-03-19T00:00:00	2024-11-08T01:00:00	8	Radiación solar	0
42945	7	Sololá	717	San Juan la Laguna	12	San Juan la Laguna	3	Marzo	2023-03-19T00:00:00	2024-11-08T02:00:00	2	Temperatura media	14.8
42946	7	Sololá	717	San Juan la Laguna	12	San Juan la Laguna	3	Marzo	2023-03-19T00:00:00	2024-11-08T02:00:00	4	Temperatura máxima	14.8
42947	7	Sololá	717	San Juan la Laguna	12	San Juan la Laguna	3	Marzo	2023-03-19T00:00:00	2024-11-08T02:00:00	3	Temperatura mínima	14.1
42948	7	Sololá	717	San Juan la Laguna	12	San Juan la Laguna	3	Marzo	2023-03-19T00:00:00	2024-11-08T02:00:00	5	Humedad	92
42949	7	Sololá	717	San Juan la Laguna	12	San Juan la Laguna	3	Marzo	2023-03-19T00:00:00	2024-11-08T02:00:00	6	Velocidad del viento	3.2
42950	7	Sololá	717	San Juan la Laguna	12	San Juan la Laguna	3	Marzo	2023-03-19T00:00:00	2024-11-08T02:00:00	7	Dirección del viento	3.22
42951	7	Sololá	717	San Juan la Laguna	12	San Juan la Laguna	3	Marzo	2023-03-19T00:00:00	2024-11-08T02:00:00	1	Precipitación	0
42952	7	Sololá	717	San Juan la Laguna	12	San Juan la Laguna	3	Marzo	2023-03-19T00:00:00	2024-11-08T02:00:00	8	Radiación solar	0
42953	7	Sololá	717	San Juan la Laguna	12	San Juan la Laguna	3	Marzo	2023-03-19T00:00:00	2024-11-08T03:00:00	2	Temperatura media	15.1
42954	7	Sololá	717	San Juan la Laguna	12	San Juan la Laguna	3	Marzo	2023-03-19T00:00:00	2024-11-08T03:00:00	4	Temperatura máxima	15.1
42955	7	Sololá	717	San Juan la Laguna	12	San Juan la Laguna	3	Marzo	2023-03-19T00:00:00	2024-11-08T03:00:00	3	Temperatura mínima	14.8
42956	7	Sololá	717	San Juan la Laguna	12	San Juan la Laguna	3	Marzo	2023-03-19T00:00:00	2024-11-08T03:00:00	5	Humedad	92
42957	7	Sololá	717	San Juan la Laguna	12	San Juan la Laguna	3	Marzo	2023-03-19T00:00:00	2024-11-08T03:00:00	6	Velocidad del viento	3.2
42958	7	Sololá	717	San Juan la Laguna	12	San Juan la Laguna	3	Marzo	2023-03-19T00:00:00	2024-11-08T03:00:00	7	Dirección del viento	3.22
42959	7	Sololá	717	San Juan la Laguna	12	San Juan la Laguna	3	Marzo	2023-03-19T00:00:00	2024-11-08T03:00:00	1	Precipitación	0
42960	7	Sololá	717	San Juan la Laguna	12	San Juan la Laguna	3	Marzo	2023-03-19T00:00:00	2024-11-08T03:00:00	8	Radiación solar	0
42961	7	Sololá	717	San Juan la Laguna	12	San Juan la Laguna	3	Marzo	2023-03-19T00:00:00	2024-11-08T04:00:00	2	Temperatura media	14.7
42962	7	Sololá	717	San Juan la Laguna	12	San Juan la Laguna	3	Marzo	2023-03-19T00:00:00	2024-11-08T04:00:00	4	Temperatura máxima	15.1
42963	7	Sololá	717	San Juan la Laguna	12	San Juan la Laguna	3	Marzo	2023-03-19T00:00:00	2024-11-08T04:00:00	3	Temperatura mínima	14.6
42964	7	Sololá	717	San Juan la Laguna	12	San Juan la Laguna	3	Marzo	2023-03-19T00:00:00	2024-11-08T04:00:00	5	Humedad	93
42965	7	Sololá	717	San Juan la Laguna	12	San Juan la Laguna	3	Marzo	2023-03-19T00:00:00	2024-11-08T04:00:00	6	Velocidad del viento	3.2
42966	7	Sololá	717	San Juan la Laguna	12	San Juan la Laguna	3	Marzo	2023-03-19T00:00:00	2024-11-08T04:00:00	7	Dirección del viento	3.22
42967	7	Sololá	717	San Juan la Laguna	12	San Juan la Laguna	3	Marzo	2023-03-19T00:00:00	2024-11-08T04:00:00	1	Precipitación	0
42968	7	Sololá	717	San Juan la Laguna	12	San Juan la Laguna	3	Marzo	2023-03-19T00:00:00	2024-11-08T04:00:00	8	Radiación solar	0
42969	7	Sololá	717	San Juan la Laguna	12	San Juan la Laguna	3	Marzo	2023-03-19T00:00:00	2024-11-08T05:00:00	2	Temperatura media	14.7
42970	7	Sololá	717	San Juan la Laguna	12	San Juan la Laguna	3	Marzo	2023-03-19T00:00:00	2024-11-08T05:00:00	4	Temperatura máxima	14.8
42971	7	Sololá	717	San Juan la Laguna	12	San Juan la Laguna	3	Marzo	2023-03-19T00:00:00	2024-11-08T05:00:00	3	Temperatura mínima	14.6
42972	7	Sololá	717	San Juan la Laguna	12	San Juan la Laguna	3	Marzo	2023-03-19T00:00:00	2024-11-08T05:00:00	5	Humedad	91
42973	7	Sololá	717	San Juan la Laguna	12	San Juan la Laguna	3	Marzo	2023-03-19T00:00:00	2024-11-08T05:00:00	6	Velocidad del viento	4.8
42974	7	Sololá	717	San Juan la Laguna	12	San Juan la Laguna	3	Marzo	2023-03-19T00:00:00	2024-11-08T05:00:00	7	Dirección del viento	4.83
42975	7	Sololá	717	San Juan la Laguna	12	San Juan la Laguna	3	Marzo	2023-03-19T00:00:00	2024-11-08T05:00:00	1	Precipitación	0
42976	7	Sololá	717	San Juan la Laguna	12	San Juan la Laguna	3	Marzo	2023-03-19T00:00:00	2024-11-08T05:00:00	8	Radiación solar	0
42977	7	Sololá	717	San Juan la Laguna	12	San Juan la Laguna	3	Marzo	2023-03-19T00:00:00	2024-11-08T06:00:00	2	Temperatura media	13.9
42978	7	Sololá	717	San Juan la Laguna	12	San Juan la Laguna	3	Marzo	2023-03-19T00:00:00	2024-11-08T06:00:00	4	Temperatura máxima	14.7
42979	7	Sololá	717	San Juan la Laguna	12	San Juan la Laguna	3	Marzo	2023-03-19T00:00:00	2024-11-08T06:00:00	3	Temperatura mínima	13.8
42980	7	Sololá	717	San Juan la Laguna	12	San Juan la Laguna	3	Marzo	2023-03-19T00:00:00	2024-11-08T06:00:00	5	Humedad	92
42981	7	Sololá	717	San Juan la Laguna	12	San Juan la Laguna	3	Marzo	2023-03-19T00:00:00	2024-11-08T06:00:00	6	Velocidad del viento	3.2
42982	7	Sololá	717	San Juan la Laguna	12	San Juan la Laguna	3	Marzo	2023-03-19T00:00:00	2024-11-08T06:00:00	7	Dirección del viento	3.22
42983	7	Sololá	717	San Juan la Laguna	12	San Juan la Laguna	3	Marzo	2023-03-19T00:00:00	2024-11-08T06:00:00	1	Precipitación	0
42984	7	Sololá	717	San Juan la Laguna	12	San Juan la Laguna	3	Marzo	2023-03-19T00:00:00	2024-11-08T06:00:00	8	Radiación solar	0
42985	7	Sololá	717	San Juan la Laguna	12	San Juan la Laguna	3	Marzo	2023-03-19T00:00:00	2024-11-08T07:00:00	2	Temperatura media	14.4
42986	7	Sololá	717	San Juan la Laguna	12	San Juan la Laguna	3	Marzo	2023-03-19T00:00:00	2024-11-08T07:00:00	4	Temperatura máxima	14.4
42987	7	Sololá	717	San Juan la Laguna	12	San Juan la Laguna	3	Marzo	2023-03-19T00:00:00	2024-11-08T07:00:00	3	Temperatura mínima	13.8
42988	7	Sololá	717	San Juan la Laguna	12	San Juan la Laguna	3	Marzo	2023-03-19T00:00:00	2024-11-08T07:00:00	5	Humedad	91
42989	7	Sololá	717	San Juan la Laguna	12	San Juan la Laguna	3	Marzo	2023-03-19T00:00:00	2024-11-08T07:00:00	6	Velocidad del viento	4.8
42990	7	Sololá	717	San Juan la Laguna	12	San Juan la Laguna	3	Marzo	2023-03-19T00:00:00	2024-11-08T07:00:00	7	Dirección del viento	4.83
42991	7	Sololá	717	San Juan la Laguna	12	San Juan la Laguna	3	Marzo	2023-03-19T00:00:00	2024-11-08T07:00:00	1	Precipitación	0
42992	7	Sololá	717	San Juan la Laguna	12	San Juan la Laguna	3	Marzo	2023-03-19T00:00:00	2024-11-08T07:00:00	8	Radiación solar	33
42993	7	Sololá	717	San Juan la Laguna	12	San Juan la Laguna	3	Marzo	2023-03-19T00:00:00	2024-11-08T08:00:00	2	Temperatura media	17.9
42994	7	Sololá	717	San Juan la Laguna	12	San Juan la Laguna	3	Marzo	2023-03-19T00:00:00	2024-11-08T08:00:00	4	Temperatura máxima	17.9
42995	7	Sololá	717	San Juan la Laguna	12	San Juan la Laguna	3	Marzo	2023-03-19T00:00:00	2024-11-08T08:00:00	3	Temperatura mínima	14.4
42996	7	Sololá	717	San Juan la Laguna	12	San Juan la Laguna	3	Marzo	2023-03-19T00:00:00	2024-11-08T08:00:00	5	Humedad	82
42997	7	Sololá	717	San Juan la Laguna	12	San Juan la Laguna	3	Marzo	2023-03-19T00:00:00	2024-11-08T08:00:00	6	Velocidad del viento	3.2
42998	7	Sololá	717	San Juan la Laguna	12	San Juan la Laguna	3	Marzo	2023-03-19T00:00:00	2024-11-08T08:00:00	7	Dirección del viento	3.22
42999	7	Sololá	717	San Juan la Laguna	12	San Juan la Laguna	3	Marzo	2023-03-19T00:00:00	2024-11-08T08:00:00	1	Precipitación	0
43000	7	Sololá	717	San Juan la Laguna	12	San Juan la Laguna	3	Marzo	2023-03-19T00:00:00	2024-11-08T08:00:00	8	Radiación solar	179
43001	7	Sololá	717	San Juan la Laguna	12	San Juan la Laguna	3	Marzo	2023-03-19T00:00:00	2024-11-08T09:00:00	2	Temperatura media	20.2
43002	7	Sololá	717	San Juan la Laguna	12	San Juan la Laguna	3	Marzo	2023-03-19T00:00:00	2024-11-08T09:00:00	4	Temperatura máxima	20.3
43003	7	Sololá	717	San Juan la Laguna	12	San Juan la Laguna	3	Marzo	2023-03-19T00:00:00	2024-11-08T09:00:00	3	Temperatura mínima	17.9
43004	7	Sololá	717	San Juan la Laguna	12	San Juan la Laguna	3	Marzo	2023-03-19T00:00:00	2024-11-08T09:00:00	5	Humedad	75
43005	7	Sololá	717	San Juan la Laguna	12	San Juan la Laguna	3	Marzo	2023-03-19T00:00:00	2024-11-08T09:00:00	6	Velocidad del viento	3.2
43006	7	Sololá	717	San Juan la Laguna	12	San Juan la Laguna	3	Marzo	2023-03-19T00:00:00	2024-11-08T09:00:00	7	Dirección del viento	3.22
43007	7	Sololá	717	San Juan la Laguna	12	San Juan la Laguna	3	Marzo	2023-03-19T00:00:00	2024-11-08T09:00:00	1	Precipitación	0
43008	7	Sololá	717	San Juan la Laguna	12	San Juan la Laguna	3	Marzo	2023-03-19T00:00:00	2024-11-08T09:00:00	8	Radiación solar	413
43009	7	Sololá	717	San Juan la Laguna	12	San Juan la Laguna	3	Marzo	2023-03-19T00:00:00	2024-11-08T10:00:00	2	Temperatura media	21.8
43010	7	Sololá	717	San Juan la Laguna	12	San Juan la Laguna	3	Marzo	2023-03-19T00:00:00	2024-11-08T10:00:00	4	Temperatura máxima	22.2
43011	7	Sololá	717	San Juan la Laguna	12	San Juan la Laguna	3	Marzo	2023-03-19T00:00:00	2024-11-08T10:00:00	3	Temperatura mínima	20.1
43012	7	Sololá	717	San Juan la Laguna	12	San Juan la Laguna	3	Marzo	2023-03-19T00:00:00	2024-11-08T10:00:00	5	Humedad	61
43013	7	Sololá	717	San Juan la Laguna	12	San Juan la Laguna	3	Marzo	2023-03-19T00:00:00	2024-11-08T10:00:00	6	Velocidad del viento	4.8
43014	7	Sololá	717	San Juan la Laguna	12	San Juan la Laguna	3	Marzo	2023-03-19T00:00:00	2024-11-08T10:00:00	7	Dirección del viento	4.83
43015	7	Sololá	717	San Juan la Laguna	12	San Juan la Laguna	3	Marzo	2023-03-19T00:00:00	2024-11-08T10:00:00	1	Precipitación	0
43016	7	Sololá	717	San Juan la Laguna	12	San Juan la Laguna	3	Marzo	2023-03-19T00:00:00	2024-11-08T10:00:00	8	Radiación solar	661
43017	7	Sololá	717	San Juan la Laguna	12	San Juan la Laguna	3	Marzo	2023-03-19T00:00:00	2024-11-08T11:00:00	2	Temperatura media	23.2
43018	7	Sololá	717	San Juan la Laguna	12	San Juan la Laguna	3	Marzo	2023-03-19T00:00:00	2024-11-08T11:00:00	4	Temperatura máxima	23.6
43019	7	Sololá	717	San Juan la Laguna	12	San Juan la Laguna	3	Marzo	2023-03-19T00:00:00	2024-11-08T11:00:00	3	Temperatura mínima	21.6
43020	7	Sololá	717	San Juan la Laguna	12	San Juan la Laguna	3	Marzo	2023-03-19T00:00:00	2024-11-08T11:00:00	5	Humedad	63
43021	7	Sololá	717	San Juan la Laguna	12	San Juan la Laguna	3	Marzo	2023-03-19T00:00:00	2024-11-08T11:00:00	6	Velocidad del viento	1.6
43022	7	Sololá	717	San Juan la Laguna	12	San Juan la Laguna	3	Marzo	2023-03-19T00:00:00	2024-11-08T11:00:00	7	Dirección del viento	1.61
43023	7	Sololá	717	San Juan la Laguna	12	San Juan la Laguna	3	Marzo	2023-03-19T00:00:00	2024-11-08T11:00:00	1	Precipitación	0
43024	7	Sololá	717	San Juan la Laguna	12	San Juan la Laguna	3	Marzo	2023-03-19T00:00:00	2024-11-08T11:00:00	8	Radiación solar	834
43025	7	Sololá	717	San Juan la Laguna	12	San Juan la Laguna	3	Marzo	2023-03-19T00:00:00	2024-11-08T12:00:00	2	Temperatura media	23.3
43026	7	Sololá	717	San Juan la Laguna	12	San Juan la Laguna	3	Marzo	2023-03-19T00:00:00	2024-11-08T12:00:00	4	Temperatura máxima	23.4
43027	7	Sololá	717	San Juan la Laguna	12	San Juan la Laguna	3	Marzo	2023-03-19T00:00:00	2024-11-08T12:00:00	3	Temperatura mínima	22.4
43028	7	Sololá	717	San Juan la Laguna	12	San Juan la Laguna	3	Marzo	2023-03-19T00:00:00	2024-11-08T12:00:00	5	Humedad	63
43029	7	Sololá	717	San Juan la Laguna	12	San Juan la Laguna	3	Marzo	2023-03-19T00:00:00	2024-11-08T12:00:00	6	Velocidad del viento	1.6
43030	7	Sololá	717	San Juan la Laguna	12	San Juan la Laguna	3	Marzo	2023-03-19T00:00:00	2024-11-08T12:00:00	7	Dirección del viento	1.61
43031	7	Sololá	717	San Juan la Laguna	12	San Juan la Laguna	3	Marzo	2023-03-19T00:00:00	2024-11-08T12:00:00	1	Precipitación	0
43032	7	Sololá	717	San Juan la Laguna	12	San Juan la Laguna	3	Marzo	2023-03-19T00:00:00	2024-11-08T12:00:00	8	Radiación solar	966
43033	7	Sololá	717	San Juan la Laguna	12	San Juan la Laguna	3	Marzo	2023-03-19T00:00:00	2024-11-08T13:00:00	2	Temperatura media	20.8
43034	7	Sololá	717	San Juan la Laguna	12	San Juan la Laguna	3	Marzo	2023-03-19T00:00:00	2024-11-08T13:00:00	4	Temperatura máxima	23.3
43035	7	Sololá	717	San Juan la Laguna	12	San Juan la Laguna	3	Marzo	2023-03-19T00:00:00	2024-11-08T13:00:00	3	Temperatura mínima	20.8
43036	7	Sololá	717	San Juan la Laguna	12	San Juan la Laguna	3	Marzo	2023-03-19T00:00:00	2024-11-08T13:00:00	5	Humedad	76
43037	7	Sololá	717	San Juan la Laguna	12	San Juan la Laguna	3	Marzo	2023-03-19T00:00:00	2024-11-08T13:00:00	6	Velocidad del viento	4.8
43038	7	Sololá	717	San Juan la Laguna	12	San Juan la Laguna	3	Marzo	2023-03-19T00:00:00	2024-11-08T13:00:00	7	Dirección del viento	4.83
43039	7	Sololá	717	San Juan la Laguna	12	San Juan la Laguna	3	Marzo	2023-03-19T00:00:00	2024-11-08T13:00:00	1	Precipitación	0.2
43040	7	Sololá	717	San Juan la Laguna	12	San Juan la Laguna	3	Marzo	2023-03-19T00:00:00	2024-11-08T13:00:00	8	Radiación solar	313
43041	7	Sololá	717	San Juan la Laguna	12	San Juan la Laguna	3	Marzo	2023-03-19T00:00:00	2024-11-08T14:00:00	2	Temperatura media	19.5
43042	7	Sololá	717	San Juan la Laguna	12	San Juan la Laguna	3	Marzo	2023-03-19T00:00:00	2024-11-08T14:00:00	4	Temperatura máxima	20.8
43043	7	Sololá	717	San Juan la Laguna	12	San Juan la Laguna	3	Marzo	2023-03-19T00:00:00	2024-11-08T14:00:00	3	Temperatura mínima	19.3
43044	7	Sololá	717	San Juan la Laguna	12	San Juan la Laguna	3	Marzo	2023-03-19T00:00:00	2024-11-08T14:00:00	5	Humedad	81
43045	7	Sololá	717	San Juan la Laguna	12	San Juan la Laguna	3	Marzo	2023-03-19T00:00:00	2024-11-08T14:00:00	6	Velocidad del viento	9.7
43046	7	Sololá	717	San Juan la Laguna	12	San Juan la Laguna	3	Marzo	2023-03-19T00:00:00	2024-11-08T14:00:00	7	Dirección del viento	9.66
43047	7	Sololá	717	San Juan la Laguna	12	San Juan la Laguna	3	Marzo	2023-03-19T00:00:00	2024-11-08T14:00:00	1	Precipitación	0
43048	7	Sololá	717	San Juan la Laguna	12	San Juan la Laguna	3	Marzo	2023-03-19T00:00:00	2024-11-08T14:00:00	8	Radiación solar	220
43049	7	Sololá	717	San Juan la Laguna	12	San Juan la Laguna	3	Marzo	2023-03-19T00:00:00	2024-11-08T15:00:00	2	Temperatura media	19.7
43050	7	Sololá	717	San Juan la Laguna	12	San Juan la Laguna	3	Marzo	2023-03-19T00:00:00	2024-11-08T15:00:00	4	Temperatura máxima	20
43051	7	Sololá	717	San Juan la Laguna	12	San Juan la Laguna	3	Marzo	2023-03-19T00:00:00	2024-11-08T15:00:00	3	Temperatura mínima	19.5
43052	7	Sololá	717	San Juan la Laguna	12	San Juan la Laguna	3	Marzo	2023-03-19T00:00:00	2024-11-08T15:00:00	5	Humedad	76
43053	7	Sololá	717	San Juan la Laguna	12	San Juan la Laguna	3	Marzo	2023-03-19T00:00:00	2024-11-08T15:00:00	6	Velocidad del viento	9.7
43054	7	Sololá	717	San Juan la Laguna	12	San Juan la Laguna	3	Marzo	2023-03-19T00:00:00	2024-11-08T15:00:00	7	Dirección del viento	9.66
43055	7	Sololá	717	San Juan la Laguna	12	San Juan la Laguna	3	Marzo	2023-03-19T00:00:00	2024-11-08T15:00:00	1	Precipitación	0
43056	7	Sololá	717	San Juan la Laguna	12	San Juan la Laguna	3	Marzo	2023-03-19T00:00:00	2024-11-08T15:00:00	8	Radiación solar	283
43057	7	Sololá	717	San Juan la Laguna	12	San Juan la Laguna	3	Marzo	2023-03-19T00:00:00	2024-11-08T16:00:00	2	Temperatura media	18.1
43058	7	Sololá	717	San Juan la Laguna	12	San Juan la Laguna	3	Marzo	2023-03-19T00:00:00	2024-11-08T16:00:00	4	Temperatura máxima	19.7
43059	7	Sololá	717	San Juan la Laguna	12	San Juan la Laguna	3	Marzo	2023-03-19T00:00:00	2024-11-08T16:00:00	3	Temperatura mínima	18.1
43060	7	Sololá	717	San Juan la Laguna	12	San Juan la Laguna	3	Marzo	2023-03-19T00:00:00	2024-11-08T16:00:00	5	Humedad	87
43061	7	Sololá	717	San Juan la Laguna	12	San Juan la Laguna	3	Marzo	2023-03-19T00:00:00	2024-11-08T16:00:00	6	Velocidad del viento	4.8
43062	7	Sololá	717	San Juan la Laguna	12	San Juan la Laguna	3	Marzo	2023-03-19T00:00:00	2024-11-08T16:00:00	7	Dirección del viento	4.83
43063	7	Sololá	717	San Juan la Laguna	12	San Juan la Laguna	3	Marzo	2023-03-19T00:00:00	2024-11-08T16:00:00	1	Precipitación	0.2
43064	7	Sololá	717	San Juan la Laguna	12	San Juan la Laguna	3	Marzo	2023-03-19T00:00:00	2024-11-08T16:00:00	8	Radiación solar	47
43065	7	Sololá	717	San Juan la Laguna	12	San Juan la Laguna	3	Marzo	2023-03-19T00:00:00	2024-11-08T17:00:00	2	Temperatura media	18.7
43066	7	Sololá	717	San Juan la Laguna	12	San Juan la Laguna	3	Marzo	2023-03-19T00:00:00	2024-11-08T17:00:00	4	Temperatura máxima	18.8
43067	7	Sololá	717	San Juan la Laguna	12	San Juan la Laguna	3	Marzo	2023-03-19T00:00:00	2024-11-08T17:00:00	3	Temperatura mínima	18
43068	7	Sololá	717	San Juan la Laguna	12	San Juan la Laguna	3	Marzo	2023-03-19T00:00:00	2024-11-08T17:00:00	5	Humedad	88
43069	7	Sololá	717	San Juan la Laguna	12	San Juan la Laguna	3	Marzo	2023-03-19T00:00:00	2024-11-08T17:00:00	6	Velocidad del viento	0
43070	7	Sololá	717	San Juan la Laguna	12	San Juan la Laguna	3	Marzo	2023-03-19T00:00:00	2024-11-08T17:00:00	7	Dirección del viento	0
43071	7	Sololá	717	San Juan la Laguna	12	San Juan la Laguna	3	Marzo	2023-03-19T00:00:00	2024-11-08T17:00:00	1	Precipitación	0.4
43072	7	Sololá	717	San Juan la Laguna	12	San Juan la Laguna	3	Marzo	2023-03-19T00:00:00	2024-11-08T17:00:00	8	Radiación solar	105
43073	7	Sololá	717	San Juan la Laguna	12	San Juan la Laguna	3	Marzo	2023-03-19T00:00:00	2024-11-08T18:00:00	2	Temperatura media	18.1
43074	7	Sololá	717	San Juan la Laguna	12	San Juan la Laguna	3	Marzo	2023-03-19T00:00:00	2024-11-08T18:00:00	4	Temperatura máxima	18.8
43075	7	Sololá	717	San Juan la Laguna	12	San Juan la Laguna	3	Marzo	2023-03-19T00:00:00	2024-11-08T18:00:00	3	Temperatura mínima	18.1
43076	7	Sololá	717	San Juan la Laguna	12	San Juan la Laguna	3	Marzo	2023-03-19T00:00:00	2024-11-08T18:00:00	5	Humedad	91
43077	7	Sololá	717	San Juan la Laguna	12	San Juan la Laguna	3	Marzo	2023-03-19T00:00:00	2024-11-08T18:00:00	6	Velocidad del viento	0
43078	7	Sololá	717	San Juan la Laguna	12	San Juan la Laguna	3	Marzo	2023-03-19T00:00:00	2024-11-08T18:00:00	7	Dirección del viento	0
43079	7	Sololá	717	San Juan la Laguna	12	San Juan la Laguna	3	Marzo	2023-03-19T00:00:00	2024-11-08T18:00:00	1	Precipitación	0
43080	7	Sololá	717	San Juan la Laguna	12	San Juan la Laguna	3	Marzo	2023-03-19T00:00:00	2024-11-08T18:00:00	8	Radiación solar	16
43081	7	Sololá	717	San Juan la Laguna	12	San Juan la Laguna	3	Marzo	2023-03-19T00:00:00	2024-11-08T19:00:00	2	Temperatura media	17.5
43082	7	Sololá	717	San Juan la Laguna	12	San Juan la Laguna	3	Marzo	2023-03-19T00:00:00	2024-11-08T19:00:00	4	Temperatura máxima	18.1
43083	7	Sololá	717	San Juan la Laguna	12	San Juan la Laguna	3	Marzo	2023-03-19T00:00:00	2024-11-08T19:00:00	3	Temperatura mínima	17.5
43084	7	Sololá	717	San Juan la Laguna	12	San Juan la Laguna	3	Marzo	2023-03-19T00:00:00	2024-11-08T19:00:00	5	Humedad	92
43085	7	Sololá	717	San Juan la Laguna	12	San Juan la Laguna	3	Marzo	2023-03-19T00:00:00	2024-11-08T19:00:00	6	Velocidad del viento	1.6
43086	7	Sololá	717	San Juan la Laguna	12	San Juan la Laguna	3	Marzo	2023-03-19T00:00:00	2024-11-08T19:00:00	7	Dirección del viento	1.61
43087	7	Sololá	717	San Juan la Laguna	12	San Juan la Laguna	3	Marzo	2023-03-19T00:00:00	2024-11-08T19:00:00	1	Precipitación	0
43088	7	Sololá	717	San Juan la Laguna	12	San Juan la Laguna	3	Marzo	2023-03-19T00:00:00	2024-11-08T19:00:00	8	Radiación solar	0
43089	7	Sololá	717	San Juan la Laguna	12	San Juan la Laguna	3	Marzo	2023-03-19T00:00:00	2024-11-08T20:00:00	2	Temperatura media	16.9
43090	7	Sololá	717	San Juan la Laguna	12	San Juan la Laguna	3	Marzo	2023-03-19T00:00:00	2024-11-08T20:00:00	4	Temperatura máxima	17.5
43091	7	Sololá	717	San Juan la Laguna	12	San Juan la Laguna	3	Marzo	2023-03-19T00:00:00	2024-11-08T20:00:00	3	Temperatura mínima	16.9
43092	7	Sololá	717	San Juan la Laguna	12	San Juan la Laguna	3	Marzo	2023-03-19T00:00:00	2024-11-08T20:00:00	5	Humedad	93
43093	7	Sololá	717	San Juan la Laguna	12	San Juan la Laguna	3	Marzo	2023-03-19T00:00:00	2024-11-08T20:00:00	6	Velocidad del viento	0
43094	7	Sololá	717	San Juan la Laguna	12	San Juan la Laguna	3	Marzo	2023-03-19T00:00:00	2024-11-08T20:00:00	7	Dirección del viento	0
43095	7	Sololá	717	San Juan la Laguna	12	San Juan la Laguna	3	Marzo	2023-03-19T00:00:00	2024-11-08T20:00:00	1	Precipitación	0
43096	7	Sololá	717	San Juan la Laguna	12	San Juan la Laguna	3	Marzo	2023-03-19T00:00:00	2024-11-08T20:00:00	8	Radiación solar	0
43097	7	Sololá	717	San Juan la Laguna	12	San Juan la Laguna	3	Marzo	2023-03-19T00:00:00	2024-11-08T21:00:00	2	Temperatura media	15.8
43098	7	Sololá	717	San Juan la Laguna	12	San Juan la Laguna	3	Marzo	2023-03-19T00:00:00	2024-11-08T21:00:00	4	Temperatura máxima	16.9
43099	7	Sololá	717	San Juan la Laguna	12	San Juan la Laguna	3	Marzo	2023-03-19T00:00:00	2024-11-08T21:00:00	3	Temperatura mínima	15.8
43100	7	Sololá	717	San Juan la Laguna	12	San Juan la Laguna	3	Marzo	2023-03-19T00:00:00	2024-11-08T21:00:00	5	Humedad	93
43101	7	Sololá	717	San Juan la Laguna	12	San Juan la Laguna	3	Marzo	2023-03-19T00:00:00	2024-11-08T21:00:00	6	Velocidad del viento	1.6
43102	7	Sololá	717	San Juan la Laguna	12	San Juan la Laguna	3	Marzo	2023-03-19T00:00:00	2024-11-08T21:00:00	7	Dirección del viento	1.61
43103	7	Sololá	717	San Juan la Laguna	12	San Juan la Laguna	3	Marzo	2023-03-19T00:00:00	2024-11-08T21:00:00	1	Precipitación	0
43104	7	Sololá	717	San Juan la Laguna	12	San Juan la Laguna	3	Marzo	2023-03-19T00:00:00	2024-11-08T21:00:00	8	Radiación solar	0
43105	7	Sololá	717	San Juan la Laguna	12	San Juan la Laguna	3	Marzo	2023-03-19T00:00:00	2024-11-08T22:00:00	2	Temperatura media	15.4
43106	7	Sololá	717	San Juan la Laguna	12	San Juan la Laguna	3	Marzo	2023-03-19T00:00:00	2024-11-08T22:00:00	4	Temperatura máxima	15.8
43107	7	Sololá	717	San Juan la Laguna	12	San Juan la Laguna	3	Marzo	2023-03-19T00:00:00	2024-11-08T22:00:00	3	Temperatura mínima	15.4
43108	7	Sololá	717	San Juan la Laguna	12	San Juan la Laguna	3	Marzo	2023-03-19T00:00:00	2024-11-08T22:00:00	5	Humedad	91
43109	7	Sololá	717	San Juan la Laguna	12	San Juan la Laguna	3	Marzo	2023-03-19T00:00:00	2024-11-08T22:00:00	6	Velocidad del viento	1.6
43110	7	Sololá	717	San Juan la Laguna	12	San Juan la Laguna	3	Marzo	2023-03-19T00:00:00	2024-11-08T22:00:00	7	Dirección del viento	1.61
43111	7	Sololá	717	San Juan la Laguna	12	San Juan la Laguna	3	Marzo	2023-03-19T00:00:00	2024-11-08T22:00:00	1	Precipitación	0.2
43112	7	Sololá	717	San Juan la Laguna	12	San Juan la Laguna	3	Marzo	2023-03-19T00:00:00	2024-11-08T22:00:00	8	Radiación solar	0
43113	7	Sololá	717	San Juan la Laguna	12	San Juan la Laguna	3	Marzo	2023-03-19T00:00:00	2024-11-08T23:00:00	2	Temperatura media	15.2
43114	7	Sololá	717	San Juan la Laguna	12	San Juan la Laguna	3	Marzo	2023-03-19T00:00:00	2024-11-08T23:00:00	4	Temperatura máxima	15.4
43115	7	Sololá	717	San Juan la Laguna	12	San Juan la Laguna	3	Marzo	2023-03-19T00:00:00	2024-11-08T23:00:00	3	Temperatura mínima	15.1
43116	7	Sololá	717	San Juan la Laguna	12	San Juan la Laguna	3	Marzo	2023-03-19T00:00:00	2024-11-08T23:00:00	5	Humedad	90
43117	7	Sololá	717	San Juan la Laguna	12	San Juan la Laguna	3	Marzo	2023-03-19T00:00:00	2024-11-08T23:00:00	6	Velocidad del viento	3.2
43118	7	Sololá	717	San Juan la Laguna	12	San Juan la Laguna	3	Marzo	2023-03-19T00:00:00	2024-11-08T23:00:00	7	Dirección del viento	3.22
43119	7	Sololá	717	San Juan la Laguna	12	San Juan la Laguna	3	Marzo	2023-03-19T00:00:00	2024-11-08T23:00:00	1	Precipitación	0
43120	7	Sololá	717	San Juan la Laguna	12	San Juan la Laguna	3	Marzo	2023-03-19T00:00:00	2024-11-08T23:00:00	8	Radiación solar	0
43121	7	Sololá	717	San Juan la Laguna	12	San Juan la Laguna	3	Marzo	2023-03-20T00:00:00	2024-11-08T00:00:00	2	Temperatura media	15.1
43122	7	Sololá	717	San Juan la Laguna	12	San Juan la Laguna	3	Marzo	2023-03-20T00:00:00	2024-11-08T00:00:00	4	Temperatura máxima	15.3
43123	7	Sololá	717	San Juan la Laguna	12	San Juan la Laguna	3	Marzo	2023-03-20T00:00:00	2024-11-08T00:00:00	3	Temperatura mínima	14.9
43124	7	Sololá	717	San Juan la Laguna	12	San Juan la Laguna	3	Marzo	2023-03-20T00:00:00	2024-11-08T00:00:00	5	Humedad	88
43125	7	Sololá	717	San Juan la Laguna	12	San Juan la Laguna	3	Marzo	2023-03-20T00:00:00	2024-11-08T00:00:00	6	Velocidad del viento	8
43126	7	Sololá	717	San Juan la Laguna	12	San Juan la Laguna	3	Marzo	2023-03-20T00:00:00	2024-11-08T00:00:00	7	Dirección del viento	8.05
43127	7	Sololá	717	San Juan la Laguna	12	San Juan la Laguna	3	Marzo	2023-03-20T00:00:00	2024-11-08T00:00:00	1	Precipitación	0
43128	7	Sololá	717	San Juan la Laguna	12	San Juan la Laguna	3	Marzo	2023-03-20T00:00:00	2024-11-08T00:00:00	8	Radiación solar	0
43129	7	Sololá	717	San Juan la Laguna	12	San Juan la Laguna	3	Marzo	2023-03-20T00:00:00	2024-11-08T01:00:00	2	Temperatura media	14.8
43130	7	Sololá	717	San Juan la Laguna	12	San Juan la Laguna	3	Marzo	2023-03-20T00:00:00	2024-11-08T01:00:00	4	Temperatura máxima	15.1
43131	7	Sololá	717	San Juan la Laguna	12	San Juan la Laguna	3	Marzo	2023-03-20T00:00:00	2024-11-08T01:00:00	3	Temperatura mínima	14.7
43132	7	Sololá	717	San Juan la Laguna	12	San Juan la Laguna	3	Marzo	2023-03-20T00:00:00	2024-11-08T01:00:00	5	Humedad	87
43133	7	Sololá	717	San Juan la Laguna	12	San Juan la Laguna	3	Marzo	2023-03-20T00:00:00	2024-11-08T01:00:00	6	Velocidad del viento	6.4
43134	7	Sololá	717	San Juan la Laguna	12	San Juan la Laguna	3	Marzo	2023-03-20T00:00:00	2024-11-08T01:00:00	7	Dirección del viento	6.44
43135	7	Sololá	717	San Juan la Laguna	12	San Juan la Laguna	3	Marzo	2023-03-20T00:00:00	2024-11-08T01:00:00	1	Precipitación	0
43136	7	Sololá	717	San Juan la Laguna	12	San Juan la Laguna	3	Marzo	2023-03-20T00:00:00	2024-11-08T01:00:00	8	Radiación solar	0
43137	7	Sololá	717	San Juan la Laguna	12	San Juan la Laguna	3	Marzo	2023-03-20T00:00:00	2024-11-08T02:00:00	2	Temperatura media	14.2
43138	7	Sololá	717	San Juan la Laguna	12	San Juan la Laguna	3	Marzo	2023-03-20T00:00:00	2024-11-08T02:00:00	4	Temperatura máxima	14.8
43139	7	Sololá	717	San Juan la Laguna	12	San Juan la Laguna	3	Marzo	2023-03-20T00:00:00	2024-11-08T02:00:00	3	Temperatura mínima	14.2
43140	7	Sololá	717	San Juan la Laguna	12	San Juan la Laguna	3	Marzo	2023-03-20T00:00:00	2024-11-08T02:00:00	5	Humedad	89
43141	7	Sololá	717	San Juan la Laguna	12	San Juan la Laguna	3	Marzo	2023-03-20T00:00:00	2024-11-08T02:00:00	6	Velocidad del viento	6.4
43142	7	Sololá	717	San Juan la Laguna	12	San Juan la Laguna	3	Marzo	2023-03-20T00:00:00	2024-11-08T02:00:00	7	Dirección del viento	6.44
43143	7	Sololá	717	San Juan la Laguna	12	San Juan la Laguna	3	Marzo	2023-03-20T00:00:00	2024-11-08T02:00:00	1	Precipitación	0
43144	7	Sololá	717	San Juan la Laguna	12	San Juan la Laguna	3	Marzo	2023-03-20T00:00:00	2024-11-08T02:00:00	8	Radiación solar	0
43145	7	Sololá	717	San Juan la Laguna	12	San Juan la Laguna	3	Marzo	2023-03-20T00:00:00	2024-11-08T03:00:00	2	Temperatura media	13.9
43146	7	Sololá	717	San Juan la Laguna	12	San Juan la Laguna	3	Marzo	2023-03-20T00:00:00	2024-11-08T03:00:00	4	Temperatura máxima	14.4
43147	7	Sololá	717	San Juan la Laguna	12	San Juan la Laguna	3	Marzo	2023-03-20T00:00:00	2024-11-08T03:00:00	3	Temperatura mínima	13.9
43148	7	Sololá	717	San Juan la Laguna	12	San Juan la Laguna	3	Marzo	2023-03-20T00:00:00	2024-11-08T03:00:00	5	Humedad	89
43149	7	Sololá	717	San Juan la Laguna	12	San Juan la Laguna	3	Marzo	2023-03-20T00:00:00	2024-11-08T03:00:00	6	Velocidad del viento	6.4
43150	7	Sololá	717	San Juan la Laguna	12	San Juan la Laguna	3	Marzo	2023-03-20T00:00:00	2024-11-08T03:00:00	7	Dirección del viento	6.44
43151	7	Sololá	717	San Juan la Laguna	12	San Juan la Laguna	3	Marzo	2023-03-20T00:00:00	2024-11-08T03:00:00	1	Precipitación	0
43152	7	Sololá	717	San Juan la Laguna	12	San Juan la Laguna	3	Marzo	2023-03-20T00:00:00	2024-11-08T03:00:00	8	Radiación solar	0
43153	7	Sololá	717	San Juan la Laguna	12	San Juan la Laguna	3	Marzo	2023-03-20T00:00:00	2024-11-08T04:00:00	2	Temperatura media	14.2
43154	7	Sololá	717	San Juan la Laguna	12	San Juan la Laguna	3	Marzo	2023-03-20T00:00:00	2024-11-08T04:00:00	4	Temperatura máxima	14.2
43155	7	Sololá	717	San Juan la Laguna	12	San Juan la Laguna	3	Marzo	2023-03-20T00:00:00	2024-11-08T04:00:00	3	Temperatura mínima	13.9
43156	7	Sololá	717	San Juan la Laguna	12	San Juan la Laguna	3	Marzo	2023-03-20T00:00:00	2024-11-08T04:00:00	5	Humedad	87
43157	7	Sololá	717	San Juan la Laguna	12	San Juan la Laguna	3	Marzo	2023-03-20T00:00:00	2024-11-08T04:00:00	6	Velocidad del viento	6.4
43158	7	Sololá	717	San Juan la Laguna	12	San Juan la Laguna	3	Marzo	2023-03-20T00:00:00	2024-11-08T04:00:00	7	Dirección del viento	6.44
43159	7	Sololá	717	San Juan la Laguna	12	San Juan la Laguna	3	Marzo	2023-03-20T00:00:00	2024-11-08T04:00:00	1	Precipitación	0
43160	7	Sololá	717	San Juan la Laguna	12	San Juan la Laguna	3	Marzo	2023-03-20T00:00:00	2024-11-08T04:00:00	8	Radiación solar	0
43161	7	Sololá	717	San Juan la Laguna	12	San Juan la Laguna	3	Marzo	2023-03-20T00:00:00	2024-11-08T05:00:00	2	Temperatura media	13.7
43162	7	Sololá	717	San Juan la Laguna	12	San Juan la Laguna	3	Marzo	2023-03-20T00:00:00	2024-11-08T05:00:00	4	Temperatura máxima	14.2
43163	7	Sololá	717	San Juan la Laguna	12	San Juan la Laguna	3	Marzo	2023-03-20T00:00:00	2024-11-08T05:00:00	3	Temperatura mínima	13.6
43164	7	Sololá	717	San Juan la Laguna	12	San Juan la Laguna	3	Marzo	2023-03-20T00:00:00	2024-11-08T05:00:00	5	Humedad	89
43165	7	Sololá	717	San Juan la Laguna	12	San Juan la Laguna	3	Marzo	2023-03-20T00:00:00	2024-11-08T05:00:00	6	Velocidad del viento	4.8
43166	7	Sololá	717	San Juan la Laguna	12	San Juan la Laguna	3	Marzo	2023-03-20T00:00:00	2024-11-08T05:00:00	7	Dirección del viento	4.83
43167	7	Sololá	717	San Juan la Laguna	12	San Juan la Laguna	3	Marzo	2023-03-20T00:00:00	2024-11-08T05:00:00	1	Precipitación	0
43168	7	Sololá	717	San Juan la Laguna	12	San Juan la Laguna	3	Marzo	2023-03-20T00:00:00	2024-11-08T05:00:00	8	Radiación solar	0
43169	7	Sololá	717	San Juan la Laguna	12	San Juan la Laguna	3	Marzo	2023-03-20T00:00:00	2024-11-08T06:00:00	2	Temperatura media	13.7
43170	7	Sololá	717	San Juan la Laguna	12	San Juan la Laguna	3	Marzo	2023-03-20T00:00:00	2024-11-08T06:00:00	4	Temperatura máxima	14.1
43171	7	Sololá	717	San Juan la Laguna	12	San Juan la Laguna	3	Marzo	2023-03-20T00:00:00	2024-11-08T06:00:00	3	Temperatura mínima	13.7
43172	7	Sololá	717	San Juan la Laguna	12	San Juan la Laguna	3	Marzo	2023-03-20T00:00:00	2024-11-08T06:00:00	5	Humedad	88
43173	7	Sololá	717	San Juan la Laguna	12	San Juan la Laguna	3	Marzo	2023-03-20T00:00:00	2024-11-08T06:00:00	6	Velocidad del viento	6.4
43174	7	Sololá	717	San Juan la Laguna	12	San Juan la Laguna	3	Marzo	2023-03-20T00:00:00	2024-11-08T06:00:00	7	Dirección del viento	6.44
43175	7	Sololá	717	San Juan la Laguna	12	San Juan la Laguna	3	Marzo	2023-03-20T00:00:00	2024-11-08T06:00:00	1	Precipitación	0
43176	7	Sololá	717	San Juan la Laguna	12	San Juan la Laguna	3	Marzo	2023-03-20T00:00:00	2024-11-08T06:00:00	8	Radiación solar	0
43177	7	Sololá	717	San Juan la Laguna	12	San Juan la Laguna	3	Marzo	2023-03-20T00:00:00	2024-11-08T07:00:00	2	Temperatura media	15.1
43178	7	Sololá	717	San Juan la Laguna	12	San Juan la Laguna	3	Marzo	2023-03-20T00:00:00	2024-11-08T07:00:00	4	Temperatura máxima	15.1
43179	7	Sololá	717	San Juan la Laguna	12	San Juan la Laguna	3	Marzo	2023-03-20T00:00:00	2024-11-08T07:00:00	3	Temperatura mínima	13.7
43180	7	Sololá	717	San Juan la Laguna	12	San Juan la Laguna	3	Marzo	2023-03-20T00:00:00	2024-11-08T07:00:00	5	Humedad	83
43181	7	Sololá	717	San Juan la Laguna	12	San Juan la Laguna	3	Marzo	2023-03-20T00:00:00	2024-11-08T07:00:00	6	Velocidad del viento	6.4
43182	7	Sololá	717	San Juan la Laguna	12	San Juan la Laguna	3	Marzo	2023-03-20T00:00:00	2024-11-08T07:00:00	7	Dirección del viento	6.44
43183	7	Sololá	717	San Juan la Laguna	12	San Juan la Laguna	3	Marzo	2023-03-20T00:00:00	2024-11-08T07:00:00	1	Precipitación	0
43184	7	Sololá	717	San Juan la Laguna	12	San Juan la Laguna	3	Marzo	2023-03-20T00:00:00	2024-11-08T07:00:00	8	Radiación solar	27
43185	7	Sololá	717	San Juan la Laguna	12	San Juan la Laguna	3	Marzo	2023-03-20T00:00:00	2024-11-08T08:00:00	2	Temperatura media	19
43186	7	Sololá	717	San Juan la Laguna	12	San Juan la Laguna	3	Marzo	2023-03-20T00:00:00	2024-11-08T08:00:00	4	Temperatura máxima	19
43187	7	Sololá	717	San Juan la Laguna	12	San Juan la Laguna	3	Marzo	2023-03-20T00:00:00	2024-11-08T08:00:00	3	Temperatura mínima	15.1
43188	7	Sololá	717	San Juan la Laguna	12	San Juan la Laguna	3	Marzo	2023-03-20T00:00:00	2024-11-08T08:00:00	5	Humedad	73
43189	7	Sololá	717	San Juan la Laguna	12	San Juan la Laguna	3	Marzo	2023-03-20T00:00:00	2024-11-08T08:00:00	6	Velocidad del viento	1.6
43190	7	Sololá	717	San Juan la Laguna	12	San Juan la Laguna	3	Marzo	2023-03-20T00:00:00	2024-11-08T08:00:00	7	Dirección del viento	1.61
43191	7	Sololá	717	San Juan la Laguna	12	San Juan la Laguna	3	Marzo	2023-03-20T00:00:00	2024-11-08T08:00:00	1	Precipitación	0
43192	7	Sololá	717	San Juan la Laguna	12	San Juan la Laguna	3	Marzo	2023-03-20T00:00:00	2024-11-08T08:00:00	8	Radiación solar	187
43193	7	Sololá	717	San Juan la Laguna	12	San Juan la Laguna	3	Marzo	2023-03-20T00:00:00	2024-11-08T09:00:00	2	Temperatura media	21.5
43194	7	Sololá	717	San Juan la Laguna	12	San Juan la Laguna	3	Marzo	2023-03-20T00:00:00	2024-11-08T09:00:00	4	Temperatura máxima	21.5
43195	7	Sololá	717	San Juan la Laguna	12	San Juan la Laguna	3	Marzo	2023-03-20T00:00:00	2024-11-08T09:00:00	3	Temperatura mínima	19
43196	7	Sololá	717	San Juan la Laguna	12	San Juan la Laguna	3	Marzo	2023-03-20T00:00:00	2024-11-08T09:00:00	5	Humedad	62
43197	7	Sololá	717	San Juan la Laguna	12	San Juan la Laguna	3	Marzo	2023-03-20T00:00:00	2024-11-08T09:00:00	6	Velocidad del viento	1.6
43198	7	Sololá	717	San Juan la Laguna	12	San Juan la Laguna	3	Marzo	2023-03-20T00:00:00	2024-11-08T09:00:00	7	Dirección del viento	1.61
43199	7	Sololá	717	San Juan la Laguna	12	San Juan la Laguna	3	Marzo	2023-03-20T00:00:00	2024-11-08T09:00:00	1	Precipitación	0
43200	7	Sololá	717	San Juan la Laguna	12	San Juan la Laguna	3	Marzo	2023-03-20T00:00:00	2024-11-08T09:00:00	8	Radiación solar	453
43201	7	Sololá	717	San Juan la Laguna	12	San Juan la Laguna	3	Marzo	2023-03-20T00:00:00	2024-11-08T10:00:00	2	Temperatura media	23.3
43202	7	Sololá	717	San Juan la Laguna	12	San Juan la Laguna	3	Marzo	2023-03-20T00:00:00	2024-11-08T10:00:00	4	Temperatura máxima	23.3
43203	7	Sololá	717	San Juan la Laguna	12	San Juan la Laguna	3	Marzo	2023-03-20T00:00:00	2024-11-08T10:00:00	3	Temperatura mínima	21.5
43204	7	Sololá	717	San Juan la Laguna	12	San Juan la Laguna	3	Marzo	2023-03-20T00:00:00	2024-11-08T10:00:00	5	Humedad	55
43205	7	Sololá	717	San Juan la Laguna	12	San Juan la Laguna	3	Marzo	2023-03-20T00:00:00	2024-11-08T10:00:00	6	Velocidad del viento	1.6
43206	7	Sololá	717	San Juan la Laguna	12	San Juan la Laguna	3	Marzo	2023-03-20T00:00:00	2024-11-08T10:00:00	7	Dirección del viento	1.61
43207	7	Sololá	717	San Juan la Laguna	12	San Juan la Laguna	3	Marzo	2023-03-20T00:00:00	2024-11-08T10:00:00	1	Precipitación	0
43208	7	Sololá	717	San Juan la Laguna	12	San Juan la Laguna	3	Marzo	2023-03-20T00:00:00	2024-11-08T10:00:00	8	Radiación solar	682
43209	7	Sololá	717	San Juan la Laguna	12	San Juan la Laguna	3	Marzo	2023-03-20T00:00:00	2024-11-08T11:00:00	2	Temperatura media	22.7
43210	7	Sololá	717	San Juan la Laguna	12	San Juan la Laguna	3	Marzo	2023-03-20T00:00:00	2024-11-08T11:00:00	4	Temperatura máxima	23.7
43211	7	Sololá	717	San Juan la Laguna	12	San Juan la Laguna	3	Marzo	2023-03-20T00:00:00	2024-11-08T11:00:00	3	Temperatura mínima	22.6
43212	7	Sololá	717	San Juan la Laguna	12	San Juan la Laguna	3	Marzo	2023-03-20T00:00:00	2024-11-08T11:00:00	5	Humedad	58
43213	7	Sololá	717	San Juan la Laguna	12	San Juan la Laguna	3	Marzo	2023-03-20T00:00:00	2024-11-08T11:00:00	6	Velocidad del viento	6.4
43214	7	Sololá	717	San Juan la Laguna	12	San Juan la Laguna	3	Marzo	2023-03-20T00:00:00	2024-11-08T11:00:00	7	Dirección del viento	6.44
43215	7	Sololá	717	San Juan la Laguna	12	San Juan la Laguna	3	Marzo	2023-03-20T00:00:00	2024-11-08T11:00:00	1	Precipitación	0
43216	7	Sololá	717	San Juan la Laguna	12	San Juan la Laguna	3	Marzo	2023-03-20T00:00:00	2024-11-08T11:00:00	8	Radiación solar	845
43217	7	Sololá	717	San Juan la Laguna	12	San Juan la Laguna	3	Marzo	2023-03-20T00:00:00	2024-11-08T12:00:00	2	Temperatura media	24.2
43218	7	Sololá	717	San Juan la Laguna	12	San Juan la Laguna	3	Marzo	2023-03-20T00:00:00	2024-11-08T12:00:00	4	Temperatura máxima	24.3
43219	7	Sololá	717	San Juan la Laguna	12	San Juan la Laguna	3	Marzo	2023-03-20T00:00:00	2024-11-08T12:00:00	3	Temperatura mínima	22.8
43220	7	Sololá	717	San Juan la Laguna	12	San Juan la Laguna	3	Marzo	2023-03-20T00:00:00	2024-11-08T12:00:00	5	Humedad	52
43221	7	Sololá	717	San Juan la Laguna	12	San Juan la Laguna	3	Marzo	2023-03-20T00:00:00	2024-11-08T12:00:00	6	Velocidad del viento	9.7
43222	7	Sololá	717	San Juan la Laguna	12	San Juan la Laguna	3	Marzo	2023-03-20T00:00:00	2024-11-08T12:00:00	7	Dirección del viento	9.66
43223	7	Sololá	717	San Juan la Laguna	12	San Juan la Laguna	3	Marzo	2023-03-20T00:00:00	2024-11-08T12:00:00	1	Precipitación	0
43224	7	Sololá	717	San Juan la Laguna	12	San Juan la Laguna	3	Marzo	2023-03-20T00:00:00	2024-11-08T12:00:00	8	Radiación solar	966
43225	7	Sololá	717	San Juan la Laguna	12	San Juan la Laguna	3	Marzo	2023-03-20T00:00:00	2024-11-08T13:00:00	2	Temperatura media	24.1
43226	7	Sololá	717	San Juan la Laguna	12	San Juan la Laguna	3	Marzo	2023-03-20T00:00:00	2024-11-08T13:00:00	4	Temperatura máxima	24.9
43227	7	Sololá	717	San Juan la Laguna	12	San Juan la Laguna	3	Marzo	2023-03-20T00:00:00	2024-11-08T13:00:00	3	Temperatura mínima	23.7
43228	7	Sololá	717	San Juan la Laguna	12	San Juan la Laguna	3	Marzo	2023-03-20T00:00:00	2024-11-08T13:00:00	5	Humedad	51
43229	7	Sololá	717	San Juan la Laguna	12	San Juan la Laguna	3	Marzo	2023-03-20T00:00:00	2024-11-08T13:00:00	6	Velocidad del viento	6.4
43230	7	Sololá	717	San Juan la Laguna	12	San Juan la Laguna	3	Marzo	2023-03-20T00:00:00	2024-11-08T13:00:00	7	Dirección del viento	6.44
43231	7	Sololá	717	San Juan la Laguna	12	San Juan la Laguna	3	Marzo	2023-03-20T00:00:00	2024-11-08T13:00:00	1	Precipitación	0
43232	7	Sololá	717	San Juan la Laguna	12	San Juan la Laguna	3	Marzo	2023-03-20T00:00:00	2024-11-08T13:00:00	8	Radiación solar	721
43233	7	Sololá	717	San Juan la Laguna	12	San Juan la Laguna	3	Marzo	2023-03-20T00:00:00	2024-11-08T14:00:00	2	Temperatura media	24.4
43234	7	Sololá	717	San Juan la Laguna	12	San Juan la Laguna	3	Marzo	2023-03-20T00:00:00	2024-11-08T14:00:00	4	Temperatura máxima	24.4
43235	7	Sololá	717	San Juan la Laguna	12	San Juan la Laguna	3	Marzo	2023-03-20T00:00:00	2024-11-08T14:00:00	3	Temperatura mínima	23.9
43236	7	Sololá	717	San Juan la Laguna	12	San Juan la Laguna	3	Marzo	2023-03-20T00:00:00	2024-11-08T14:00:00	5	Humedad	53
43237	7	Sololá	717	San Juan la Laguna	12	San Juan la Laguna	3	Marzo	2023-03-20T00:00:00	2024-11-08T14:00:00	6	Velocidad del viento	3.2
43238	7	Sololá	717	San Juan la Laguna	12	San Juan la Laguna	3	Marzo	2023-03-20T00:00:00	2024-11-08T14:00:00	7	Dirección del viento	3.22
43239	7	Sololá	717	San Juan la Laguna	12	San Juan la Laguna	3	Marzo	2023-03-20T00:00:00	2024-11-08T14:00:00	1	Precipitación	0
43240	7	Sololá	717	San Juan la Laguna	12	San Juan la Laguna	3	Marzo	2023-03-20T00:00:00	2024-11-08T14:00:00	8	Radiación solar	380
43241	7	Sololá	717	San Juan la Laguna	12	San Juan la Laguna	3	Marzo	2023-03-20T00:00:00	2024-11-08T15:00:00	2	Temperatura media	24.6
43242	7	Sololá	717	San Juan la Laguna	12	San Juan la Laguna	3	Marzo	2023-03-20T00:00:00	2024-11-08T15:00:00	4	Temperatura máxima	25.2
43243	7	Sololá	717	San Juan la Laguna	12	San Juan la Laguna	3	Marzo	2023-03-20T00:00:00	2024-11-08T15:00:00	3	Temperatura mínima	24.4
43244	7	Sololá	717	San Juan la Laguna	12	San Juan la Laguna	3	Marzo	2023-03-20T00:00:00	2024-11-08T15:00:00	5	Humedad	58
43245	7	Sololá	717	San Juan la Laguna	12	San Juan la Laguna	3	Marzo	2023-03-20T00:00:00	2024-11-08T15:00:00	6	Velocidad del viento	3.2
43246	7	Sololá	717	San Juan la Laguna	12	San Juan la Laguna	3	Marzo	2023-03-20T00:00:00	2024-11-08T15:00:00	7	Dirección del viento	3.22
43247	7	Sololá	717	San Juan la Laguna	12	San Juan la Laguna	3	Marzo	2023-03-20T00:00:00	2024-11-08T15:00:00	1	Precipitación	0
43248	7	Sololá	717	San Juan la Laguna	12	San Juan la Laguna	3	Marzo	2023-03-20T00:00:00	2024-11-08T15:00:00	8	Radiación solar	534
43249	7	Sololá	717	San Juan la Laguna	12	San Juan la Laguna	3	Marzo	2023-03-20T00:00:00	2024-11-08T16:00:00	2	Temperatura media	21.3
43250	7	Sololá	717	San Juan la Laguna	12	San Juan la Laguna	3	Marzo	2023-03-20T00:00:00	2024-11-08T16:00:00	4	Temperatura máxima	24.6
43251	7	Sololá	717	San Juan la Laguna	12	San Juan la Laguna	3	Marzo	2023-03-20T00:00:00	2024-11-08T16:00:00	3	Temperatura mínima	21.3
43252	7	Sololá	717	San Juan la Laguna	12	San Juan la Laguna	3	Marzo	2023-03-20T00:00:00	2024-11-08T16:00:00	5	Humedad	73
43253	7	Sololá	717	San Juan la Laguna	12	San Juan la Laguna	3	Marzo	2023-03-20T00:00:00	2024-11-08T16:00:00	6	Velocidad del viento	3.2
43254	7	Sololá	717	San Juan la Laguna	12	San Juan la Laguna	3	Marzo	2023-03-20T00:00:00	2024-11-08T16:00:00	7	Dirección del viento	3.22
43255	7	Sololá	717	San Juan la Laguna	12	San Juan la Laguna	3	Marzo	2023-03-20T00:00:00	2024-11-08T16:00:00	1	Precipitación	0
43256	7	Sololá	717	San Juan la Laguna	12	San Juan la Laguna	3	Marzo	2023-03-20T00:00:00	2024-11-08T16:00:00	8	Radiación solar	85
43257	7	Sololá	717	San Juan la Laguna	12	San Juan la Laguna	3	Marzo	2023-03-20T00:00:00	2024-11-08T17:00:00	2	Temperatura media	21.3
43258	7	Sololá	717	San Juan la Laguna	12	San Juan la Laguna	3	Marzo	2023-03-20T00:00:00	2024-11-08T17:00:00	4	Temperatura máxima	21.4
43259	7	Sololá	717	San Juan la Laguna	12	San Juan la Laguna	3	Marzo	2023-03-20T00:00:00	2024-11-08T17:00:00	3	Temperatura mínima	21.2
43260	7	Sololá	717	San Juan la Laguna	12	San Juan la Laguna	3	Marzo	2023-03-20T00:00:00	2024-11-08T17:00:00	5	Humedad	65
43261	7	Sololá	717	San Juan la Laguna	12	San Juan la Laguna	3	Marzo	2023-03-20T00:00:00	2024-11-08T17:00:00	6	Velocidad del viento	3.2
43262	7	Sololá	717	San Juan la Laguna	12	San Juan la Laguna	3	Marzo	2023-03-20T00:00:00	2024-11-08T17:00:00	7	Dirección del viento	3.22
43263	7	Sololá	717	San Juan la Laguna	12	San Juan la Laguna	3	Marzo	2023-03-20T00:00:00	2024-11-08T17:00:00	1	Precipitación	0
43264	7	Sololá	717	San Juan la Laguna	12	San Juan la Laguna	3	Marzo	2023-03-20T00:00:00	2024-11-08T17:00:00	8	Radiación solar	28
43265	7	Sololá	717	San Juan la Laguna	12	San Juan la Laguna	3	Marzo	2023-03-20T00:00:00	2024-11-08T18:00:00	2	Temperatura media	20.8
43266	7	Sololá	717	San Juan la Laguna	12	San Juan la Laguna	3	Marzo	2023-03-20T00:00:00	2024-11-08T18:00:00	4	Temperatura máxima	21.4
43267	7	Sololá	717	San Juan la Laguna	12	San Juan la Laguna	3	Marzo	2023-03-20T00:00:00	2024-11-08T18:00:00	3	Temperatura mínima	20.8
43268	7	Sololá	717	San Juan la Laguna	12	San Juan la Laguna	3	Marzo	2023-03-20T00:00:00	2024-11-08T18:00:00	5	Humedad	65
43269	7	Sololá	717	San Juan la Laguna	12	San Juan la Laguna	3	Marzo	2023-03-20T00:00:00	2024-11-08T18:00:00	6	Velocidad del viento	3.2
43270	7	Sololá	717	San Juan la Laguna	12	San Juan la Laguna	3	Marzo	2023-03-20T00:00:00	2024-11-08T18:00:00	7	Dirección del viento	3.22
43271	7	Sololá	717	San Juan la Laguna	12	San Juan la Laguna	3	Marzo	2023-03-20T00:00:00	2024-11-08T18:00:00	1	Precipitación	0
43272	7	Sololá	717	San Juan la Laguna	12	San Juan la Laguna	3	Marzo	2023-03-20T00:00:00	2024-11-08T18:00:00	8	Radiación solar	29
43273	7	Sololá	717	San Juan la Laguna	12	San Juan la Laguna	3	Marzo	2023-03-20T00:00:00	2024-11-08T19:00:00	2	Temperatura media	19.9
43274	7	Sololá	717	San Juan la Laguna	12	San Juan la Laguna	3	Marzo	2023-03-20T00:00:00	2024-11-08T19:00:00	4	Temperatura máxima	20.8
43275	7	Sololá	717	San Juan la Laguna	12	San Juan la Laguna	3	Marzo	2023-03-20T00:00:00	2024-11-08T19:00:00	3	Temperatura mínima	19.9
43276	7	Sololá	717	San Juan la Laguna	12	San Juan la Laguna	3	Marzo	2023-03-20T00:00:00	2024-11-08T19:00:00	5	Humedad	65
43277	7	Sololá	717	San Juan la Laguna	12	San Juan la Laguna	3	Marzo	2023-03-20T00:00:00	2024-11-08T19:00:00	6	Velocidad del viento	4.8
43278	7	Sololá	717	San Juan la Laguna	12	San Juan la Laguna	3	Marzo	2023-03-20T00:00:00	2024-11-08T19:00:00	7	Dirección del viento	4.83
43279	7	Sololá	717	San Juan la Laguna	12	San Juan la Laguna	3	Marzo	2023-03-20T00:00:00	2024-11-08T19:00:00	1	Precipitación	0
43280	7	Sololá	717	San Juan la Laguna	12	San Juan la Laguna	3	Marzo	2023-03-20T00:00:00	2024-11-08T19:00:00	8	Radiación solar	0
43281	7	Sololá	717	San Juan la Laguna	12	San Juan la Laguna	3	Marzo	2023-03-20T00:00:00	2024-11-08T20:00:00	2	Temperatura media	19.4
43282	7	Sololá	717	San Juan la Laguna	12	San Juan la Laguna	3	Marzo	2023-03-20T00:00:00	2024-11-08T20:00:00	4	Temperatura máxima	19.9
43283	7	Sololá	717	San Juan la Laguna	12	San Juan la Laguna	3	Marzo	2023-03-20T00:00:00	2024-11-08T20:00:00	3	Temperatura mínima	19.4
43284	7	Sololá	717	San Juan la Laguna	12	San Juan la Laguna	3	Marzo	2023-03-20T00:00:00	2024-11-08T20:00:00	5	Humedad	68
43285	7	Sololá	717	San Juan la Laguna	12	San Juan la Laguna	3	Marzo	2023-03-20T00:00:00	2024-11-08T20:00:00	6	Velocidad del viento	6.4
43286	7	Sololá	717	San Juan la Laguna	12	San Juan la Laguna	3	Marzo	2023-03-20T00:00:00	2024-11-08T20:00:00	7	Dirección del viento	6.44
43287	7	Sololá	717	San Juan la Laguna	12	San Juan la Laguna	3	Marzo	2023-03-20T00:00:00	2024-11-08T20:00:00	1	Precipitación	0
43288	7	Sololá	717	San Juan la Laguna	12	San Juan la Laguna	3	Marzo	2023-03-20T00:00:00	2024-11-08T20:00:00	8	Radiación solar	0
43289	7	Sololá	717	San Juan la Laguna	12	San Juan la Laguna	3	Marzo	2023-03-20T00:00:00	2024-11-08T21:00:00	2	Temperatura media	19.4
43290	7	Sololá	717	San Juan la Laguna	12	San Juan la Laguna	3	Marzo	2023-03-20T00:00:00	2024-11-08T21:00:00	4	Temperatura máxima	19.6
43291	7	Sololá	717	San Juan la Laguna	12	San Juan la Laguna	3	Marzo	2023-03-20T00:00:00	2024-11-08T21:00:00	3	Temperatura mínima	18.7
43292	7	Sololá	717	San Juan la Laguna	12	San Juan la Laguna	3	Marzo	2023-03-20T00:00:00	2024-11-08T21:00:00	5	Humedad	66
43293	7	Sololá	717	San Juan la Laguna	12	San Juan la Laguna	3	Marzo	2023-03-20T00:00:00	2024-11-08T21:00:00	6	Velocidad del viento	3.2
43294	7	Sololá	717	San Juan la Laguna	12	San Juan la Laguna	3	Marzo	2023-03-20T00:00:00	2024-11-08T21:00:00	7	Dirección del viento	3.22
43295	7	Sololá	717	San Juan la Laguna	12	San Juan la Laguna	3	Marzo	2023-03-20T00:00:00	2024-11-08T21:00:00	1	Precipitación	0
43296	7	Sololá	717	San Juan la Laguna	12	San Juan la Laguna	3	Marzo	2023-03-20T00:00:00	2024-11-08T21:00:00	8	Radiación solar	0
43297	7	Sololá	717	San Juan la Laguna	12	San Juan la Laguna	3	Marzo	2023-03-20T00:00:00	2024-11-08T22:00:00	2	Temperatura media	19.4
43298	7	Sololá	717	San Juan la Laguna	12	San Juan la Laguna	3	Marzo	2023-03-20T00:00:00	2024-11-08T22:00:00	4	Temperatura máxima	19.7
43299	7	Sololá	717	San Juan la Laguna	12	San Juan la Laguna	3	Marzo	2023-03-20T00:00:00	2024-11-08T22:00:00	3	Temperatura mínima	19.3
43300	7	Sololá	717	San Juan la Laguna	12	San Juan la Laguna	3	Marzo	2023-03-20T00:00:00	2024-11-08T22:00:00	5	Humedad	65
43301	7	Sololá	717	San Juan la Laguna	12	San Juan la Laguna	3	Marzo	2023-03-20T00:00:00	2024-11-08T22:00:00	6	Velocidad del viento	6.4
43302	7	Sololá	717	San Juan la Laguna	12	San Juan la Laguna	3	Marzo	2023-03-20T00:00:00	2024-11-08T22:00:00	7	Dirección del viento	6.44
43303	7	Sololá	717	San Juan la Laguna	12	San Juan la Laguna	3	Marzo	2023-03-20T00:00:00	2024-11-08T22:00:00	1	Precipitación	0
43304	7	Sololá	717	San Juan la Laguna	12	San Juan la Laguna	3	Marzo	2023-03-20T00:00:00	2024-11-08T22:00:00	8	Radiación solar	0
43305	7	Sololá	717	San Juan la Laguna	12	San Juan la Laguna	3	Marzo	2023-03-20T00:00:00	2024-11-08T23:00:00	2	Temperatura media	19.1
43306	7	Sololá	717	San Juan la Laguna	12	San Juan la Laguna	3	Marzo	2023-03-20T00:00:00	2024-11-08T23:00:00	4	Temperatura máxima	19.5
43307	7	Sololá	717	San Juan la Laguna	12	San Juan la Laguna	3	Marzo	2023-03-20T00:00:00	2024-11-08T23:00:00	3	Temperatura mínima	19.1
43308	7	Sololá	717	San Juan la Laguna	12	San Juan la Laguna	3	Marzo	2023-03-20T00:00:00	2024-11-08T23:00:00	5	Humedad	66
43309	7	Sololá	717	San Juan la Laguna	12	San Juan la Laguna	3	Marzo	2023-03-20T00:00:00	2024-11-08T23:00:00	6	Velocidad del viento	6.4
43310	7	Sololá	717	San Juan la Laguna	12	San Juan la Laguna	3	Marzo	2023-03-20T00:00:00	2024-11-08T23:00:00	7	Dirección del viento	6.44
43311	7	Sololá	717	San Juan la Laguna	12	San Juan la Laguna	3	Marzo	2023-03-20T00:00:00	2024-11-08T23:00:00	1	Precipitación	0
43312	7	Sololá	717	San Juan la Laguna	12	San Juan la Laguna	3	Marzo	2023-03-20T00:00:00	2024-11-08T23:00:00	8	Radiación solar	0
43313	7	Sololá	717	San Juan la Laguna	12	San Juan la Laguna	3	Marzo	2023-03-21T00:00:00	2024-11-08T00:00:00	2	Temperatura media	19.4
43314	7	Sololá	717	San Juan la Laguna	12	San Juan la Laguna	3	Marzo	2023-03-21T00:00:00	2024-11-08T00:00:00	4	Temperatura máxima	19.4
43315	7	Sololá	717	San Juan la Laguna	12	San Juan la Laguna	3	Marzo	2023-03-21T00:00:00	2024-11-08T00:00:00	3	Temperatura mínima	19.1
43316	7	Sololá	717	San Juan la Laguna	12	San Juan la Laguna	3	Marzo	2023-03-21T00:00:00	2024-11-08T00:00:00	5	Humedad	65
43317	7	Sololá	717	San Juan la Laguna	12	San Juan la Laguna	3	Marzo	2023-03-21T00:00:00	2024-11-08T00:00:00	6	Velocidad del viento	8
43318	7	Sololá	717	San Juan la Laguna	12	San Juan la Laguna	3	Marzo	2023-03-21T00:00:00	2024-11-08T00:00:00	7	Dirección del viento	8.05
43319	7	Sololá	717	San Juan la Laguna	12	San Juan la Laguna	3	Marzo	2023-03-21T00:00:00	2024-11-08T00:00:00	1	Precipitación	0
43320	7	Sololá	717	San Juan la Laguna	12	San Juan la Laguna	3	Marzo	2023-03-21T00:00:00	2024-11-08T00:00:00	8	Radiación solar	0
43321	7	Sololá	717	San Juan la Laguna	12	San Juan la Laguna	3	Marzo	2023-03-21T00:00:00	2024-11-08T01:00:00	2	Temperatura media	19
43322	7	Sololá	717	San Juan la Laguna	12	San Juan la Laguna	3	Marzo	2023-03-21T00:00:00	2024-11-08T01:00:00	4	Temperatura máxima	19.4
43323	7	Sololá	717	San Juan la Laguna	12	San Juan la Laguna	3	Marzo	2023-03-21T00:00:00	2024-11-08T01:00:00	3	Temperatura mínima	19
43324	7	Sololá	717	San Juan la Laguna	12	San Juan la Laguna	3	Marzo	2023-03-21T00:00:00	2024-11-08T01:00:00	5	Humedad	67
43325	7	Sololá	717	San Juan la Laguna	12	San Juan la Laguna	3	Marzo	2023-03-21T00:00:00	2024-11-08T01:00:00	6	Velocidad del viento	6.4
43326	7	Sololá	717	San Juan la Laguna	12	San Juan la Laguna	3	Marzo	2023-03-21T00:00:00	2024-11-08T01:00:00	7	Dirección del viento	6.44
43327	7	Sololá	717	San Juan la Laguna	12	San Juan la Laguna	3	Marzo	2023-03-21T00:00:00	2024-11-08T01:00:00	1	Precipitación	0
43328	7	Sololá	717	San Juan la Laguna	12	San Juan la Laguna	3	Marzo	2023-03-21T00:00:00	2024-11-08T01:00:00	8	Radiación solar	0
43329	7	Sololá	717	San Juan la Laguna	12	San Juan la Laguna	3	Marzo	2023-03-21T00:00:00	2024-11-08T02:00:00	2	Temperatura media	18.6
43330	7	Sololá	717	San Juan la Laguna	12	San Juan la Laguna	3	Marzo	2023-03-21T00:00:00	2024-11-08T02:00:00	4	Temperatura máxima	19
43331	7	Sololá	717	San Juan la Laguna	12	San Juan la Laguna	3	Marzo	2023-03-21T00:00:00	2024-11-08T02:00:00	3	Temperatura mínima	18.5
43332	7	Sololá	717	San Juan la Laguna	12	San Juan la Laguna	3	Marzo	2023-03-21T00:00:00	2024-11-08T02:00:00	5	Humedad	73
43333	7	Sololá	717	San Juan la Laguna	12	San Juan la Laguna	3	Marzo	2023-03-21T00:00:00	2024-11-08T02:00:00	6	Velocidad del viento	3.2
43334	7	Sololá	717	San Juan la Laguna	12	San Juan la Laguna	3	Marzo	2023-03-21T00:00:00	2024-11-08T02:00:00	7	Dirección del viento	3.22
43335	7	Sololá	717	San Juan la Laguna	12	San Juan la Laguna	3	Marzo	2023-03-21T00:00:00	2024-11-08T02:00:00	1	Precipitación	0
43336	7	Sololá	717	San Juan la Laguna	12	San Juan la Laguna	3	Marzo	2023-03-21T00:00:00	2024-11-08T02:00:00	8	Radiación solar	0
43337	7	Sololá	717	San Juan la Laguna	12	San Juan la Laguna	3	Marzo	2023-03-21T00:00:00	2024-11-08T03:00:00	2	Temperatura media	17.8
43338	7	Sololá	717	San Juan la Laguna	12	San Juan la Laguna	3	Marzo	2023-03-21T00:00:00	2024-11-08T03:00:00	4	Temperatura máxima	18.7
43339	7	Sololá	717	San Juan la Laguna	12	San Juan la Laguna	3	Marzo	2023-03-21T00:00:00	2024-11-08T03:00:00	3	Temperatura mínima	17.8
43340	7	Sololá	717	San Juan la Laguna	12	San Juan la Laguna	3	Marzo	2023-03-21T00:00:00	2024-11-08T03:00:00	5	Humedad	74
43341	7	Sololá	717	San Juan la Laguna	12	San Juan la Laguna	3	Marzo	2023-03-21T00:00:00	2024-11-08T03:00:00	6	Velocidad del viento	3.2
43342	7	Sololá	717	San Juan la Laguna	12	San Juan la Laguna	3	Marzo	2023-03-21T00:00:00	2024-11-08T03:00:00	7	Dirección del viento	3.22
43343	7	Sololá	717	San Juan la Laguna	12	San Juan la Laguna	3	Marzo	2023-03-21T00:00:00	2024-11-08T03:00:00	1	Precipitación	0
43344	7	Sololá	717	San Juan la Laguna	12	San Juan la Laguna	3	Marzo	2023-03-21T00:00:00	2024-11-08T03:00:00	8	Radiación solar	0
43345	7	Sololá	717	San Juan la Laguna	12	San Juan la Laguna	3	Marzo	2023-03-21T00:00:00	2024-11-08T04:00:00	2	Temperatura media	17.1
43346	7	Sololá	717	San Juan la Laguna	12	San Juan la Laguna	3	Marzo	2023-03-21T00:00:00	2024-11-08T04:00:00	4	Temperatura máxima	17.8
43347	7	Sololá	717	San Juan la Laguna	12	San Juan la Laguna	3	Marzo	2023-03-21T00:00:00	2024-11-08T04:00:00	3	Temperatura mínima	17.1
43348	7	Sololá	717	San Juan la Laguna	12	San Juan la Laguna	3	Marzo	2023-03-21T00:00:00	2024-11-08T04:00:00	5	Humedad	76
43349	7	Sololá	717	San Juan la Laguna	12	San Juan la Laguna	3	Marzo	2023-03-21T00:00:00	2024-11-08T04:00:00	6	Velocidad del viento	1.6
43350	7	Sololá	717	San Juan la Laguna	12	San Juan la Laguna	3	Marzo	2023-03-21T00:00:00	2024-11-08T04:00:00	7	Dirección del viento	1.61
43351	7	Sololá	717	San Juan la Laguna	12	San Juan la Laguna	3	Marzo	2023-03-21T00:00:00	2024-11-08T04:00:00	1	Precipitación	0
43352	7	Sololá	717	San Juan la Laguna	12	San Juan la Laguna	3	Marzo	2023-03-21T00:00:00	2024-11-08T04:00:00	8	Radiación solar	0
43353	7	Sololá	717	San Juan la Laguna	12	San Juan la Laguna	3	Marzo	2023-03-21T00:00:00	2024-11-08T05:00:00	2	Temperatura media	16.7
43354	7	Sololá	717	San Juan la Laguna	12	San Juan la Laguna	3	Marzo	2023-03-21T00:00:00	2024-11-08T05:00:00	4	Temperatura máxima	17.7
43355	7	Sololá	717	San Juan la Laguna	12	San Juan la Laguna	3	Marzo	2023-03-21T00:00:00	2024-11-08T05:00:00	3	Temperatura mínima	16.7
43356	7	Sololá	717	San Juan la Laguna	12	San Juan la Laguna	3	Marzo	2023-03-21T00:00:00	2024-11-08T05:00:00	5	Humedad	77
43357	7	Sololá	717	San Juan la Laguna	12	San Juan la Laguna	3	Marzo	2023-03-21T00:00:00	2024-11-08T05:00:00	6	Velocidad del viento	1.6
43358	7	Sololá	717	San Juan la Laguna	12	San Juan la Laguna	3	Marzo	2023-03-21T00:00:00	2024-11-08T05:00:00	7	Dirección del viento	1.61
43359	7	Sololá	717	San Juan la Laguna	12	San Juan la Laguna	3	Marzo	2023-03-21T00:00:00	2024-11-08T05:00:00	1	Precipitación	0
43360	7	Sololá	717	San Juan la Laguna	12	San Juan la Laguna	3	Marzo	2023-03-21T00:00:00	2024-11-08T05:00:00	8	Radiación solar	0
43361	7	Sololá	717	San Juan la Laguna	12	San Juan la Laguna	3	Marzo	2023-03-21T00:00:00	2024-11-08T06:00:00	2	Temperatura media	17.4
43362	7	Sololá	717	San Juan la Laguna	12	San Juan la Laguna	3	Marzo	2023-03-21T00:00:00	2024-11-08T06:00:00	4	Temperatura máxima	17.5
43363	7	Sololá	717	San Juan la Laguna	12	San Juan la Laguna	3	Marzo	2023-03-21T00:00:00	2024-11-08T06:00:00	3	Temperatura mínima	16.4
43364	7	Sololá	717	San Juan la Laguna	12	San Juan la Laguna	3	Marzo	2023-03-21T00:00:00	2024-11-08T06:00:00	5	Humedad	72
43365	7	Sololá	717	San Juan la Laguna	12	San Juan la Laguna	3	Marzo	2023-03-21T00:00:00	2024-11-08T06:00:00	6	Velocidad del viento	1.6
43366	7	Sololá	717	San Juan la Laguna	12	San Juan la Laguna	3	Marzo	2023-03-21T00:00:00	2024-11-08T06:00:00	7	Dirección del viento	1.61
43367	7	Sololá	717	San Juan la Laguna	12	San Juan la Laguna	3	Marzo	2023-03-21T00:00:00	2024-11-08T06:00:00	1	Precipitación	0
43368	7	Sololá	717	San Juan la Laguna	12	San Juan la Laguna	3	Marzo	2023-03-21T00:00:00	2024-11-08T06:00:00	8	Radiación solar	0
43369	7	Sololá	717	San Juan la Laguna	12	San Juan la Laguna	3	Marzo	2023-03-21T00:00:00	2024-11-08T07:00:00	2	Temperatura media	18.6
43370	7	Sololá	717	San Juan la Laguna	12	San Juan la Laguna	3	Marzo	2023-03-21T00:00:00	2024-11-08T07:00:00	4	Temperatura máxima	18.6
43371	7	Sololá	717	San Juan la Laguna	12	San Juan la Laguna	3	Marzo	2023-03-21T00:00:00	2024-11-08T07:00:00	3	Temperatura mínima	16.3
43372	7	Sololá	717	San Juan la Laguna	12	San Juan la Laguna	3	Marzo	2023-03-21T00:00:00	2024-11-08T07:00:00	5	Humedad	70
43373	7	Sololá	717	San Juan la Laguna	12	San Juan la Laguna	3	Marzo	2023-03-21T00:00:00	2024-11-08T07:00:00	6	Velocidad del viento	1.6
43374	7	Sololá	717	San Juan la Laguna	12	San Juan la Laguna	3	Marzo	2023-03-21T00:00:00	2024-11-08T07:00:00	7	Dirección del viento	1.61
43375	7	Sololá	717	San Juan la Laguna	12	San Juan la Laguna	3	Marzo	2023-03-21T00:00:00	2024-11-08T07:00:00	1	Precipitación	0
43376	7	Sololá	717	San Juan la Laguna	12	San Juan la Laguna	3	Marzo	2023-03-21T00:00:00	2024-11-08T07:00:00	8	Radiación solar	29
43377	7	Sololá	717	San Juan la Laguna	12	San Juan la Laguna	3	Marzo	2023-03-21T00:00:00	2024-11-08T08:00:00	2	Temperatura media	20.9
43378	7	Sololá	717	San Juan la Laguna	12	San Juan la Laguna	3	Marzo	2023-03-21T00:00:00	2024-11-08T08:00:00	4	Temperatura máxima	21
43379	7	Sololá	717	San Juan la Laguna	12	San Juan la Laguna	3	Marzo	2023-03-21T00:00:00	2024-11-08T08:00:00	3	Temperatura mínima	18.6
43380	7	Sololá	717	San Juan la Laguna	12	San Juan la Laguna	3	Marzo	2023-03-21T00:00:00	2024-11-08T08:00:00	5	Humedad	61
43381	7	Sololá	717	San Juan la Laguna	12	San Juan la Laguna	3	Marzo	2023-03-21T00:00:00	2024-11-08T08:00:00	6	Velocidad del viento	3.2
43382	7	Sololá	717	San Juan la Laguna	12	San Juan la Laguna	3	Marzo	2023-03-21T00:00:00	2024-11-08T08:00:00	7	Dirección del viento	3.22
43383	7	Sololá	717	San Juan la Laguna	12	San Juan la Laguna	3	Marzo	2023-03-21T00:00:00	2024-11-08T08:00:00	1	Precipitación	0
43384	7	Sololá	717	San Juan la Laguna	12	San Juan la Laguna	3	Marzo	2023-03-21T00:00:00	2024-11-08T08:00:00	8	Radiación solar	187
43385	7	Sololá	717	San Juan la Laguna	12	San Juan la Laguna	3	Marzo	2023-03-21T00:00:00	2024-11-08T09:00:00	2	Temperatura media	21.9
43386	7	Sololá	717	San Juan la Laguna	12	San Juan la Laguna	3	Marzo	2023-03-21T00:00:00	2024-11-08T09:00:00	4	Temperatura máxima	21.9
43387	7	Sololá	717	San Juan la Laguna	12	San Juan la Laguna	3	Marzo	2023-03-21T00:00:00	2024-11-08T09:00:00	3	Temperatura mínima	20.9
43388	7	Sololá	717	San Juan la Laguna	12	San Juan la Laguna	3	Marzo	2023-03-21T00:00:00	2024-11-08T09:00:00	5	Humedad	59
43389	7	Sololá	717	San Juan la Laguna	12	San Juan la Laguna	3	Marzo	2023-03-21T00:00:00	2024-11-08T09:00:00	6	Velocidad del viento	6.4
43390	7	Sololá	717	San Juan la Laguna	12	San Juan la Laguna	3	Marzo	2023-03-21T00:00:00	2024-11-08T09:00:00	7	Dirección del viento	6.44
43391	7	Sololá	717	San Juan la Laguna	12	San Juan la Laguna	3	Marzo	2023-03-21T00:00:00	2024-11-08T09:00:00	1	Precipitación	0
43392	7	Sololá	717	San Juan la Laguna	12	San Juan la Laguna	3	Marzo	2023-03-21T00:00:00	2024-11-08T09:00:00	8	Radiación solar	446
43393	7	Sololá	717	San Juan la Laguna	12	San Juan la Laguna	3	Marzo	2023-03-21T00:00:00	2024-11-08T10:00:00	2	Temperatura media	22.4
43394	7	Sololá	717	San Juan la Laguna	12	San Juan la Laguna	3	Marzo	2023-03-21T00:00:00	2024-11-08T10:00:00	4	Temperatura máxima	22.4
43395	7	Sololá	717	San Juan la Laguna	12	San Juan la Laguna	3	Marzo	2023-03-21T00:00:00	2024-11-08T10:00:00	3	Temperatura mínima	21.5
43396	7	Sololá	717	San Juan la Laguna	12	San Juan la Laguna	3	Marzo	2023-03-21T00:00:00	2024-11-08T10:00:00	5	Humedad	58
43397	7	Sololá	717	San Juan la Laguna	12	San Juan la Laguna	3	Marzo	2023-03-21T00:00:00	2024-11-08T10:00:00	6	Velocidad del viento	6.4
43398	7	Sololá	717	San Juan la Laguna	12	San Juan la Laguna	3	Marzo	2023-03-21T00:00:00	2024-11-08T10:00:00	7	Dirección del viento	6.44
43399	7	Sololá	717	San Juan la Laguna	12	San Juan la Laguna	3	Marzo	2023-03-21T00:00:00	2024-11-08T10:00:00	1	Precipitación	0
43400	7	Sololá	717	San Juan la Laguna	12	San Juan la Laguna	3	Marzo	2023-03-21T00:00:00	2024-11-08T10:00:00	8	Radiación solar	567
43401	7	Sololá	717	San Juan la Laguna	12	San Juan la Laguna	3	Marzo	2023-03-21T00:00:00	2024-11-08T11:00:00	2	Temperatura media	22.7
43402	7	Sololá	717	San Juan la Laguna	12	San Juan la Laguna	3	Marzo	2023-03-21T00:00:00	2024-11-08T11:00:00	4	Temperatura máxima	23.7
43403	7	Sololá	717	San Juan la Laguna	12	San Juan la Laguna	3	Marzo	2023-03-21T00:00:00	2024-11-08T11:00:00	3	Temperatura mínima	22.3
43404	7	Sololá	717	San Juan la Laguna	12	San Juan la Laguna	3	Marzo	2023-03-21T00:00:00	2024-11-08T11:00:00	5	Humedad	57
43405	7	Sololá	717	San Juan la Laguna	12	San Juan la Laguna	3	Marzo	2023-03-21T00:00:00	2024-11-08T11:00:00	6	Velocidad del viento	6.4
43406	7	Sololá	717	San Juan la Laguna	12	San Juan la Laguna	3	Marzo	2023-03-21T00:00:00	2024-11-08T11:00:00	7	Dirección del viento	6.44
43407	7	Sololá	717	San Juan la Laguna	12	San Juan la Laguna	3	Marzo	2023-03-21T00:00:00	2024-11-08T11:00:00	1	Precipitación	0
43408	7	Sololá	717	San Juan la Laguna	12	San Juan la Laguna	3	Marzo	2023-03-21T00:00:00	2024-11-08T11:00:00	8	Radiación solar	695
43409	7	Sololá	717	San Juan la Laguna	12	San Juan la Laguna	3	Marzo	2023-03-21T00:00:00	2024-11-08T12:00:00	2	Temperatura media	24.5
43410	7	Sololá	717	San Juan la Laguna	12	San Juan la Laguna	3	Marzo	2023-03-21T00:00:00	2024-11-08T12:00:00	4	Temperatura máxima	24.8
43411	7	Sololá	717	San Juan la Laguna	12	San Juan la Laguna	3	Marzo	2023-03-21T00:00:00	2024-11-08T12:00:00	3	Temperatura mínima	22.7
43412	7	Sololá	717	San Juan la Laguna	12	San Juan la Laguna	3	Marzo	2023-03-21T00:00:00	2024-11-08T12:00:00	5	Humedad	52
43413	7	Sololá	717	San Juan la Laguna	12	San Juan la Laguna	3	Marzo	2023-03-21T00:00:00	2024-11-08T12:00:00	6	Velocidad del viento	4.8
43414	7	Sololá	717	San Juan la Laguna	12	San Juan la Laguna	3	Marzo	2023-03-21T00:00:00	2024-11-08T12:00:00	7	Dirección del viento	4.83
43415	7	Sololá	717	San Juan la Laguna	12	San Juan la Laguna	3	Marzo	2023-03-21T00:00:00	2024-11-08T12:00:00	1	Precipitación	0
43416	7	Sololá	717	San Juan la Laguna	12	San Juan la Laguna	3	Marzo	2023-03-21T00:00:00	2024-11-08T12:00:00	8	Radiación solar	983
43417	7	Sololá	717	San Juan la Laguna	12	San Juan la Laguna	3	Marzo	2023-03-21T00:00:00	2024-11-08T13:00:00	2	Temperatura media	25.2
43418	7	Sololá	717	San Juan la Laguna	12	San Juan la Laguna	3	Marzo	2023-03-21T00:00:00	2024-11-08T13:00:00	4	Temperatura máxima	25.2
43419	7	Sololá	717	San Juan la Laguna	12	San Juan la Laguna	3	Marzo	2023-03-21T00:00:00	2024-11-08T13:00:00	3	Temperatura mínima	23.8
43420	7	Sololá	717	San Juan la Laguna	12	San Juan la Laguna	3	Marzo	2023-03-21T00:00:00	2024-11-08T13:00:00	5	Humedad	47
43421	7	Sololá	717	San Juan la Laguna	12	San Juan la Laguna	3	Marzo	2023-03-21T00:00:00	2024-11-08T13:00:00	6	Velocidad del viento	4.8
43422	7	Sololá	717	San Juan la Laguna	12	San Juan la Laguna	3	Marzo	2023-03-21T00:00:00	2024-11-08T13:00:00	7	Dirección del viento	4.83
43423	7	Sololá	717	San Juan la Laguna	12	San Juan la Laguna	3	Marzo	2023-03-21T00:00:00	2024-11-08T13:00:00	1	Precipitación	0
43424	7	Sololá	717	San Juan la Laguna	12	San Juan la Laguna	3	Marzo	2023-03-21T00:00:00	2024-11-08T13:00:00	8	Radiación solar	859
43425	7	Sololá	717	San Juan la Laguna	12	San Juan la Laguna	3	Marzo	2023-03-21T00:00:00	2024-11-08T14:00:00	2	Temperatura media	24.5
43426	7	Sololá	717	San Juan la Laguna	12	San Juan la Laguna	3	Marzo	2023-03-21T00:00:00	2024-11-08T14:00:00	4	Temperatura máxima	25.8
43427	7	Sololá	717	San Juan la Laguna	12	San Juan la Laguna	3	Marzo	2023-03-21T00:00:00	2024-11-08T14:00:00	3	Temperatura mínima	24.1
43428	7	Sololá	717	San Juan la Laguna	12	San Juan la Laguna	3	Marzo	2023-03-21T00:00:00	2024-11-08T14:00:00	5	Humedad	48
43429	7	Sololá	717	San Juan la Laguna	12	San Juan la Laguna	3	Marzo	2023-03-21T00:00:00	2024-11-08T14:00:00	6	Velocidad del viento	6.4
43430	7	Sololá	717	San Juan la Laguna	12	San Juan la Laguna	3	Marzo	2023-03-21T00:00:00	2024-11-08T14:00:00	7	Dirección del viento	6.44
43431	7	Sololá	717	San Juan la Laguna	12	San Juan la Laguna	3	Marzo	2023-03-21T00:00:00	2024-11-08T14:00:00	1	Precipitación	0
43432	7	Sololá	717	San Juan la Laguna	12	San Juan la Laguna	3	Marzo	2023-03-21T00:00:00	2024-11-08T14:00:00	8	Radiación solar	612
43433	7	Sololá	717	San Juan la Laguna	12	San Juan la Laguna	3	Marzo	2023-03-21T00:00:00	2024-11-08T15:00:00	2	Temperatura media	24.2
43434	7	Sololá	717	San Juan la Laguna	12	San Juan la Laguna	3	Marzo	2023-03-21T00:00:00	2024-11-08T15:00:00	4	Temperatura máxima	24.8
43435	7	Sololá	717	San Juan la Laguna	12	San Juan la Laguna	3	Marzo	2023-03-21T00:00:00	2024-11-08T15:00:00	3	Temperatura mínima	24.1
43436	7	Sololá	717	San Juan la Laguna	12	San Juan la Laguna	3	Marzo	2023-03-21T00:00:00	2024-11-08T15:00:00	5	Humedad	49
43437	7	Sololá	717	San Juan la Laguna	12	San Juan la Laguna	3	Marzo	2023-03-21T00:00:00	2024-11-08T15:00:00	6	Velocidad del viento	4.8
43438	7	Sololá	717	San Juan la Laguna	12	San Juan la Laguna	3	Marzo	2023-03-21T00:00:00	2024-11-08T15:00:00	7	Dirección del viento	4.83
43439	7	Sololá	717	San Juan la Laguna	12	San Juan la Laguna	3	Marzo	2023-03-21T00:00:00	2024-11-08T15:00:00	1	Precipitación	0
43440	7	Sololá	717	San Juan la Laguna	12	San Juan la Laguna	3	Marzo	2023-03-21T00:00:00	2024-11-08T15:00:00	8	Radiación solar	316
43441	7	Sololá	717	San Juan la Laguna	12	San Juan la Laguna	3	Marzo	2023-03-21T00:00:00	2024-11-08T16:00:00	2	Temperatura media	24.8
43442	7	Sololá	717	San Juan la Laguna	12	San Juan la Laguna	3	Marzo	2023-03-21T00:00:00	2024-11-08T16:00:00	4	Temperatura máxima	25.8
43443	7	Sololá	717	San Juan la Laguna	12	San Juan la Laguna	3	Marzo	2023-03-21T00:00:00	2024-11-08T16:00:00	3	Temperatura mínima	23.9
43444	7	Sololá	717	San Juan la Laguna	12	San Juan la Laguna	3	Marzo	2023-03-21T00:00:00	2024-11-08T16:00:00	5	Humedad	48
43445	7	Sololá	717	San Juan la Laguna	12	San Juan la Laguna	3	Marzo	2023-03-21T00:00:00	2024-11-08T16:00:00	6	Velocidad del viento	3.2
43446	7	Sololá	717	San Juan la Laguna	12	San Juan la Laguna	3	Marzo	2023-03-21T00:00:00	2024-11-08T16:00:00	7	Dirección del viento	3.22
43447	7	Sololá	717	San Juan la Laguna	12	San Juan la Laguna	3	Marzo	2023-03-21T00:00:00	2024-11-08T16:00:00	1	Precipitación	0
43448	7	Sololá	717	San Juan la Laguna	12	San Juan la Laguna	3	Marzo	2023-03-21T00:00:00	2024-11-08T16:00:00	8	Radiación solar	534
43449	7	Sololá	717	San Juan la Laguna	12	San Juan la Laguna	3	Marzo	2023-03-21T00:00:00	2024-11-08T17:00:00	2	Temperatura media	23.9
43450	7	Sololá	717	San Juan la Laguna	12	San Juan la Laguna	3	Marzo	2023-03-21T00:00:00	2024-11-08T17:00:00	4	Temperatura máxima	24.9
43451	7	Sololá	717	San Juan la Laguna	12	San Juan la Laguna	3	Marzo	2023-03-21T00:00:00	2024-11-08T17:00:00	3	Temperatura mínima	23.6
43452	7	Sololá	717	San Juan la Laguna	12	San Juan la Laguna	3	Marzo	2023-03-21T00:00:00	2024-11-08T17:00:00	5	Humedad	49
43453	7	Sololá	717	San Juan la Laguna	12	San Juan la Laguna	3	Marzo	2023-03-21T00:00:00	2024-11-08T17:00:00	6	Velocidad del viento	4.8
43454	7	Sololá	717	San Juan la Laguna	12	San Juan la Laguna	3	Marzo	2023-03-21T00:00:00	2024-11-08T17:00:00	7	Dirección del viento	4.83
43455	7	Sololá	717	San Juan la Laguna	12	San Juan la Laguna	3	Marzo	2023-03-21T00:00:00	2024-11-08T17:00:00	1	Precipitación	0
43456	7	Sololá	717	San Juan la Laguna	12	San Juan la Laguna	3	Marzo	2023-03-21T00:00:00	2024-11-08T17:00:00	8	Radiación solar	401
43457	7	Sololá	717	San Juan la Laguna	12	San Juan la Laguna	3	Marzo	2023-03-21T00:00:00	2024-11-08T18:00:00	2	Temperatura media	22.6
43458	7	Sololá	717	San Juan la Laguna	12	San Juan la Laguna	3	Marzo	2023-03-21T00:00:00	2024-11-08T18:00:00	4	Temperatura máxima	24.2
43459	7	Sololá	717	San Juan la Laguna	12	San Juan la Laguna	3	Marzo	2023-03-21T00:00:00	2024-11-08T18:00:00	3	Temperatura mínima	22.6
43460	7	Sololá	717	San Juan la Laguna	12	San Juan la Laguna	3	Marzo	2023-03-21T00:00:00	2024-11-08T18:00:00	5	Humedad	58
43461	7	Sololá	717	San Juan la Laguna	12	San Juan la Laguna	3	Marzo	2023-03-21T00:00:00	2024-11-08T18:00:00	6	Velocidad del viento	3.2
43462	7	Sololá	717	San Juan la Laguna	12	San Juan la Laguna	3	Marzo	2023-03-21T00:00:00	2024-11-08T18:00:00	7	Dirección del viento	3.22
43463	7	Sololá	717	San Juan la Laguna	12	San Juan la Laguna	3	Marzo	2023-03-21T00:00:00	2024-11-08T18:00:00	1	Precipitación	0
43464	7	Sololá	717	San Juan la Laguna	12	San Juan la Laguna	3	Marzo	2023-03-21T00:00:00	2024-11-08T18:00:00	8	Radiación solar	111
43465	7	Sololá	717	San Juan la Laguna	12	San Juan la Laguna	3	Marzo	2023-03-21T00:00:00	2024-11-08T19:00:00	2	Temperatura media	21.1
43466	7	Sololá	717	San Juan la Laguna	12	San Juan la Laguna	3	Marzo	2023-03-21T00:00:00	2024-11-08T19:00:00	4	Temperatura máxima	22.6
43467	7	Sololá	717	San Juan la Laguna	12	San Juan la Laguna	3	Marzo	2023-03-21T00:00:00	2024-11-08T19:00:00	3	Temperatura mínima	21.1
43468	7	Sololá	717	San Juan la Laguna	12	San Juan la Laguna	3	Marzo	2023-03-21T00:00:00	2024-11-08T19:00:00	5	Humedad	66
43469	7	Sololá	717	San Juan la Laguna	12	San Juan la Laguna	3	Marzo	2023-03-21T00:00:00	2024-11-08T19:00:00	6	Velocidad del viento	4.8
43470	7	Sololá	717	San Juan la Laguna	12	San Juan la Laguna	3	Marzo	2023-03-21T00:00:00	2024-11-08T19:00:00	7	Dirección del viento	4.83
43471	7	Sololá	717	San Juan la Laguna	12	San Juan la Laguna	3	Marzo	2023-03-21T00:00:00	2024-11-08T19:00:00	1	Precipitación	0
43472	7	Sololá	717	San Juan la Laguna	12	San Juan la Laguna	3	Marzo	2023-03-21T00:00:00	2024-11-08T19:00:00	8	Radiación solar	0
43473	7	Sololá	717	San Juan la Laguna	12	San Juan la Laguna	3	Marzo	2023-03-21T00:00:00	2024-11-08T20:00:00	2	Temperatura media	20.4
43474	7	Sololá	717	San Juan la Laguna	12	San Juan la Laguna	3	Marzo	2023-03-21T00:00:00	2024-11-08T20:00:00	4	Temperatura máxima	21.1
43475	7	Sololá	717	San Juan la Laguna	12	San Juan la Laguna	3	Marzo	2023-03-21T00:00:00	2024-11-08T20:00:00	3	Temperatura mínima	20.4
43476	7	Sololá	717	San Juan la Laguna	12	San Juan la Laguna	3	Marzo	2023-03-21T00:00:00	2024-11-08T20:00:00	5	Humedad	69
43477	7	Sololá	717	San Juan la Laguna	12	San Juan la Laguna	3	Marzo	2023-03-21T00:00:00	2024-11-08T20:00:00	6	Velocidad del viento	6.4
43478	7	Sololá	717	San Juan la Laguna	12	San Juan la Laguna	3	Marzo	2023-03-21T00:00:00	2024-11-08T20:00:00	7	Dirección del viento	6.44
43479	7	Sololá	717	San Juan la Laguna	12	San Juan la Laguna	3	Marzo	2023-03-21T00:00:00	2024-11-08T20:00:00	1	Precipitación	0
43480	7	Sololá	717	San Juan la Laguna	12	San Juan la Laguna	3	Marzo	2023-03-21T00:00:00	2024-11-08T20:00:00	8	Radiación solar	0
43481	7	Sololá	717	San Juan la Laguna	12	San Juan la Laguna	3	Marzo	2023-03-21T00:00:00	2024-11-08T21:00:00	2	Temperatura media	20.4
43482	7	Sololá	717	San Juan la Laguna	12	San Juan la Laguna	3	Marzo	2023-03-21T00:00:00	2024-11-08T21:00:00	4	Temperatura máxima	20.4
43483	7	Sololá	717	San Juan la Laguna	12	San Juan la Laguna	3	Marzo	2023-03-21T00:00:00	2024-11-08T21:00:00	3	Temperatura mínima	20.3
43484	7	Sololá	717	San Juan la Laguna	12	San Juan la Laguna	3	Marzo	2023-03-21T00:00:00	2024-11-08T21:00:00	5	Humedad	66
43485	7	Sololá	717	San Juan la Laguna	12	San Juan la Laguna	3	Marzo	2023-03-21T00:00:00	2024-11-08T21:00:00	6	Velocidad del viento	4.8
43486	7	Sololá	717	San Juan la Laguna	12	San Juan la Laguna	3	Marzo	2023-03-21T00:00:00	2024-11-08T21:00:00	7	Dirección del viento	4.83
43487	7	Sololá	717	San Juan la Laguna	12	San Juan la Laguna	3	Marzo	2023-03-21T00:00:00	2024-11-08T21:00:00	1	Precipitación	0
43488	7	Sololá	717	San Juan la Laguna	12	San Juan la Laguna	3	Marzo	2023-03-21T00:00:00	2024-11-08T21:00:00	8	Radiación solar	0
43489	7	Sololá	717	San Juan la Laguna	12	San Juan la Laguna	3	Marzo	2023-03-21T00:00:00	2024-11-08T22:00:00	2	Temperatura media	20.3
43490	7	Sololá	717	San Juan la Laguna	12	San Juan la Laguna	3	Marzo	2023-03-21T00:00:00	2024-11-08T22:00:00	4	Temperatura máxima	20.4
43491	7	Sololá	717	San Juan la Laguna	12	San Juan la Laguna	3	Marzo	2023-03-21T00:00:00	2024-11-08T22:00:00	3	Temperatura mínima	20.3
43492	7	Sololá	717	San Juan la Laguna	12	San Juan la Laguna	3	Marzo	2023-03-21T00:00:00	2024-11-08T22:00:00	5	Humedad	64
43493	7	Sololá	717	San Juan la Laguna	12	San Juan la Laguna	3	Marzo	2023-03-21T00:00:00	2024-11-08T22:00:00	6	Velocidad del viento	4.8
43494	7	Sololá	717	San Juan la Laguna	12	San Juan la Laguna	3	Marzo	2023-03-21T00:00:00	2024-11-08T22:00:00	7	Dirección del viento	4.83
43495	7	Sololá	717	San Juan la Laguna	12	San Juan la Laguna	3	Marzo	2023-03-21T00:00:00	2024-11-08T22:00:00	1	Precipitación	0
43496	7	Sololá	717	San Juan la Laguna	12	San Juan la Laguna	3	Marzo	2023-03-21T00:00:00	2024-11-08T22:00:00	8	Radiación solar	0
43497	7	Sololá	717	San Juan la Laguna	12	San Juan la Laguna	3	Marzo	2023-03-21T00:00:00	2024-11-08T23:00:00	2	Temperatura media	19.9
43498	7	Sololá	717	San Juan la Laguna	12	San Juan la Laguna	3	Marzo	2023-03-21T00:00:00	2024-11-08T23:00:00	4	Temperatura máxima	20.3
43499	7	Sololá	717	San Juan la Laguna	12	San Juan la Laguna	3	Marzo	2023-03-21T00:00:00	2024-11-08T23:00:00	3	Temperatura mínima	19.9
43500	7	Sololá	717	San Juan la Laguna	12	San Juan la Laguna	3	Marzo	2023-03-21T00:00:00	2024-11-08T23:00:00	5	Humedad	65
43501	7	Sololá	717	San Juan la Laguna	12	San Juan la Laguna	3	Marzo	2023-03-21T00:00:00	2024-11-08T23:00:00	6	Velocidad del viento	9.7
43502	7	Sololá	717	San Juan la Laguna	12	San Juan la Laguna	3	Marzo	2023-03-21T00:00:00	2024-11-08T23:00:00	7	Dirección del viento	9.66
43503	7	Sololá	717	San Juan la Laguna	12	San Juan la Laguna	3	Marzo	2023-03-21T00:00:00	2024-11-08T23:00:00	1	Precipitación	0
43504	7	Sololá	717	San Juan la Laguna	12	San Juan la Laguna	3	Marzo	2023-03-21T00:00:00	2024-11-08T23:00:00	8	Radiación solar	0
43505	7	Sololá	717	San Juan la Laguna	12	San Juan la Laguna	3	Marzo	2023-03-22T00:00:00	2024-11-08T00:00:00	2	Temperatura media	19.9
43506	7	Sololá	717	San Juan la Laguna	12	San Juan la Laguna	3	Marzo	2023-03-22T00:00:00	2024-11-08T00:00:00	4	Temperatura máxima	20.1
43507	7	Sololá	717	San Juan la Laguna	12	San Juan la Laguna	3	Marzo	2023-03-22T00:00:00	2024-11-08T00:00:00	3	Temperatura mínima	19.7
43508	7	Sololá	717	San Juan la Laguna	12	San Juan la Laguna	3	Marzo	2023-03-22T00:00:00	2024-11-08T00:00:00	5	Humedad	65
43509	7	Sololá	717	San Juan la Laguna	12	San Juan la Laguna	3	Marzo	2023-03-22T00:00:00	2024-11-08T00:00:00	6	Velocidad del viento	6.4
43510	7	Sololá	717	San Juan la Laguna	12	San Juan la Laguna	3	Marzo	2023-03-22T00:00:00	2024-11-08T00:00:00	7	Dirección del viento	6.44
43511	7	Sololá	717	San Juan la Laguna	12	San Juan la Laguna	3	Marzo	2023-03-22T00:00:00	2024-11-08T00:00:00	1	Precipitación	0
43512	7	Sololá	717	San Juan la Laguna	12	San Juan la Laguna	3	Marzo	2023-03-22T00:00:00	2024-11-08T00:00:00	8	Radiación solar	0
43513	7	Sololá	717	San Juan la Laguna	12	San Juan la Laguna	3	Marzo	2023-03-22T00:00:00	2024-11-08T01:00:00	2	Temperatura media	19.7
43514	7	Sololá	717	San Juan la Laguna	12	San Juan la Laguna	3	Marzo	2023-03-22T00:00:00	2024-11-08T01:00:00	4	Temperatura máxima	19.9
43515	7	Sololá	717	San Juan la Laguna	12	San Juan la Laguna	3	Marzo	2023-03-22T00:00:00	2024-11-08T01:00:00	3	Temperatura mínima	19.7
43516	7	Sololá	717	San Juan la Laguna	12	San Juan la Laguna	3	Marzo	2023-03-22T00:00:00	2024-11-08T01:00:00	5	Humedad	66
43517	7	Sololá	717	San Juan la Laguna	12	San Juan la Laguna	3	Marzo	2023-03-22T00:00:00	2024-11-08T01:00:00	6	Velocidad del viento	4.8
43518	7	Sololá	717	San Juan la Laguna	12	San Juan la Laguna	3	Marzo	2023-03-22T00:00:00	2024-11-08T01:00:00	7	Dirección del viento	4.83
43519	7	Sololá	717	San Juan la Laguna	12	San Juan la Laguna	3	Marzo	2023-03-22T00:00:00	2024-11-08T01:00:00	1	Precipitación	0
43520	7	Sololá	717	San Juan la Laguna	12	San Juan la Laguna	3	Marzo	2023-03-22T00:00:00	2024-11-08T01:00:00	8	Radiación solar	0
43521	7	Sololá	717	San Juan la Laguna	12	San Juan la Laguna	3	Marzo	2023-03-22T00:00:00	2024-11-08T02:00:00	2	Temperatura media	19.6
43522	7	Sololá	717	San Juan la Laguna	12	San Juan la Laguna	3	Marzo	2023-03-22T00:00:00	2024-11-08T02:00:00	4	Temperatura máxima	19.7
43523	7	Sololá	717	San Juan la Laguna	12	San Juan la Laguna	3	Marzo	2023-03-22T00:00:00	2024-11-08T02:00:00	3	Temperatura mínima	19.4
43524	7	Sololá	717	San Juan la Laguna	12	San Juan la Laguna	3	Marzo	2023-03-22T00:00:00	2024-11-08T02:00:00	5	Humedad	67
43525	7	Sololá	717	San Juan la Laguna	12	San Juan la Laguna	3	Marzo	2023-03-22T00:00:00	2024-11-08T02:00:00	6	Velocidad del viento	3.2
43526	7	Sololá	717	San Juan la Laguna	12	San Juan la Laguna	3	Marzo	2023-03-22T00:00:00	2024-11-08T02:00:00	7	Dirección del viento	3.22
43527	7	Sololá	717	San Juan la Laguna	12	San Juan la Laguna	3	Marzo	2023-03-22T00:00:00	2024-11-08T02:00:00	1	Precipitación	0
43528	7	Sololá	717	San Juan la Laguna	12	San Juan la Laguna	3	Marzo	2023-03-22T00:00:00	2024-11-08T02:00:00	8	Radiación solar	0
43529	7	Sololá	717	San Juan la Laguna	12	San Juan la Laguna	3	Marzo	2023-03-22T00:00:00	2024-11-08T03:00:00	2	Temperatura media	19.5
43530	7	Sololá	717	San Juan la Laguna	12	San Juan la Laguna	3	Marzo	2023-03-22T00:00:00	2024-11-08T03:00:00	4	Temperatura máxima	19.9
43531	7	Sololá	717	San Juan la Laguna	12	San Juan la Laguna	3	Marzo	2023-03-22T00:00:00	2024-11-08T03:00:00	3	Temperatura mínima	19.5
43532	7	Sololá	717	San Juan la Laguna	12	San Juan la Laguna	3	Marzo	2023-03-22T00:00:00	2024-11-08T03:00:00	5	Humedad	69
43533	7	Sololá	717	San Juan la Laguna	12	San Juan la Laguna	3	Marzo	2023-03-22T00:00:00	2024-11-08T03:00:00	6	Velocidad del viento	3.2
43534	7	Sololá	717	San Juan la Laguna	12	San Juan la Laguna	3	Marzo	2023-03-22T00:00:00	2024-11-08T03:00:00	7	Dirección del viento	3.22
43535	7	Sololá	717	San Juan la Laguna	12	San Juan la Laguna	3	Marzo	2023-03-22T00:00:00	2024-11-08T03:00:00	1	Precipitación	0
43536	7	Sololá	717	San Juan la Laguna	12	San Juan la Laguna	3	Marzo	2023-03-22T00:00:00	2024-11-08T03:00:00	8	Radiación solar	0
43537	7	Sololá	717	San Juan la Laguna	12	San Juan la Laguna	3	Marzo	2023-03-22T00:00:00	2024-11-08T04:00:00	2	Temperatura media	19.4
43538	7	Sololá	717	San Juan la Laguna	12	San Juan la Laguna	3	Marzo	2023-03-22T00:00:00	2024-11-08T04:00:00	4	Temperatura máxima	19.5
43539	7	Sololá	717	San Juan la Laguna	12	San Juan la Laguna	3	Marzo	2023-03-22T00:00:00	2024-11-08T04:00:00	3	Temperatura mínima	19.4
43540	7	Sololá	717	San Juan la Laguna	12	San Juan la Laguna	3	Marzo	2023-03-22T00:00:00	2024-11-08T04:00:00	5	Humedad	68
43541	7	Sololá	717	San Juan la Laguna	12	San Juan la Laguna	3	Marzo	2023-03-22T00:00:00	2024-11-08T04:00:00	6	Velocidad del viento	1.6
43542	7	Sololá	717	San Juan la Laguna	12	San Juan la Laguna	3	Marzo	2023-03-22T00:00:00	2024-11-08T04:00:00	7	Dirección del viento	1.61
43543	7	Sololá	717	San Juan la Laguna	12	San Juan la Laguna	3	Marzo	2023-03-22T00:00:00	2024-11-08T04:00:00	1	Precipitación	0
43544	7	Sololá	717	San Juan la Laguna	12	San Juan la Laguna	3	Marzo	2023-03-22T00:00:00	2024-11-08T04:00:00	8	Radiación solar	0
43545	7	Sololá	717	San Juan la Laguna	12	San Juan la Laguna	3	Marzo	2023-03-22T00:00:00	2024-11-08T05:00:00	2	Temperatura media	19.7
43546	7	Sololá	717	San Juan la Laguna	12	San Juan la Laguna	3	Marzo	2023-03-22T00:00:00	2024-11-08T05:00:00	4	Temperatura máxima	19.9
43547	7	Sololá	717	San Juan la Laguna	12	San Juan la Laguna	3	Marzo	2023-03-22T00:00:00	2024-11-08T05:00:00	3	Temperatura mínima	19.4
43548	7	Sololá	717	San Juan la Laguna	12	San Juan la Laguna	3	Marzo	2023-03-22T00:00:00	2024-11-08T05:00:00	5	Humedad	69
43549	7	Sololá	717	San Juan la Laguna	12	San Juan la Laguna	3	Marzo	2023-03-22T00:00:00	2024-11-08T05:00:00	6	Velocidad del viento	1.6
43550	7	Sololá	717	San Juan la Laguna	12	San Juan la Laguna	3	Marzo	2023-03-22T00:00:00	2024-11-08T05:00:00	7	Dirección del viento	1.61
43551	7	Sololá	717	San Juan la Laguna	12	San Juan la Laguna	3	Marzo	2023-03-22T00:00:00	2024-11-08T05:00:00	1	Precipitación	0
43552	7	Sololá	717	San Juan la Laguna	12	San Juan la Laguna	3	Marzo	2023-03-22T00:00:00	2024-11-08T05:00:00	8	Radiación solar	0
43553	7	Sololá	717	San Juan la Laguna	12	San Juan la Laguna	3	Marzo	2023-03-22T00:00:00	2024-11-08T06:00:00	2	Temperatura media	19.5
43554	7	Sololá	717	San Juan la Laguna	12	San Juan la Laguna	3	Marzo	2023-03-22T00:00:00	2024-11-08T06:00:00	4	Temperatura máxima	19.7
43555	7	Sololá	717	San Juan la Laguna	12	San Juan la Laguna	3	Marzo	2023-03-22T00:00:00	2024-11-08T06:00:00	3	Temperatura mínima	19.4
43556	7	Sololá	717	San Juan la Laguna	12	San Juan la Laguna	3	Marzo	2023-03-22T00:00:00	2024-11-08T06:00:00	5	Humedad	69
43557	7	Sololá	717	San Juan la Laguna	12	San Juan la Laguna	3	Marzo	2023-03-22T00:00:00	2024-11-08T06:00:00	6	Velocidad del viento	1.6
43558	7	Sololá	717	San Juan la Laguna	12	San Juan la Laguna	3	Marzo	2023-03-22T00:00:00	2024-11-08T06:00:00	7	Dirección del viento	1.61
43559	7	Sololá	717	San Juan la Laguna	12	San Juan la Laguna	3	Marzo	2023-03-22T00:00:00	2024-11-08T06:00:00	1	Precipitación	0
43560	7	Sololá	717	San Juan la Laguna	12	San Juan la Laguna	3	Marzo	2023-03-22T00:00:00	2024-11-08T06:00:00	8	Radiación solar	0
43561	7	Sololá	717	San Juan la Laguna	12	San Juan la Laguna	3	Marzo	2023-03-22T00:00:00	2024-11-08T07:00:00	2	Temperatura media	19.6
43562	7	Sololá	717	San Juan la Laguna	12	San Juan la Laguna	3	Marzo	2023-03-22T00:00:00	2024-11-08T07:00:00	4	Temperatura máxima	19.6
43563	7	Sololá	717	San Juan la Laguna	12	San Juan la Laguna	3	Marzo	2023-03-22T00:00:00	2024-11-08T07:00:00	3	Temperatura mínima	19.4
43564	7	Sololá	717	San Juan la Laguna	12	San Juan la Laguna	3	Marzo	2023-03-22T00:00:00	2024-11-08T07:00:00	5	Humedad	69
43565	7	Sololá	717	San Juan la Laguna	12	San Juan la Laguna	3	Marzo	2023-03-22T00:00:00	2024-11-08T07:00:00	6	Velocidad del viento	3.2
43566	7	Sololá	717	San Juan la Laguna	12	San Juan la Laguna	3	Marzo	2023-03-22T00:00:00	2024-11-08T07:00:00	7	Dirección del viento	3.22
43567	7	Sololá	717	San Juan la Laguna	12	San Juan la Laguna	3	Marzo	2023-03-22T00:00:00	2024-11-08T07:00:00	1	Precipitación	0
43568	7	Sololá	717	San Juan la Laguna	12	San Juan la Laguna	3	Marzo	2023-03-22T00:00:00	2024-11-08T07:00:00	8	Radiación solar	23
43569	7	Sololá	717	San Juan la Laguna	12	San Juan la Laguna	3	Marzo	2023-03-22T00:00:00	2024-11-08T08:00:00	2	Temperatura media	19.7
43570	7	Sololá	717	San Juan la Laguna	12	San Juan la Laguna	3	Marzo	2023-03-22T00:00:00	2024-11-08T08:00:00	4	Temperatura máxima	19.7
43571	7	Sololá	717	San Juan la Laguna	12	San Juan la Laguna	3	Marzo	2023-03-22T00:00:00	2024-11-08T08:00:00	3	Temperatura mínima	19.4
43572	7	Sololá	717	San Juan la Laguna	12	San Juan la Laguna	3	Marzo	2023-03-22T00:00:00	2024-11-08T08:00:00	5	Humedad	68
43573	7	Sololá	717	San Juan la Laguna	12	San Juan la Laguna	3	Marzo	2023-03-22T00:00:00	2024-11-08T08:00:00	6	Velocidad del viento	1.6
43574	7	Sololá	717	San Juan la Laguna	12	San Juan la Laguna	3	Marzo	2023-03-22T00:00:00	2024-11-08T08:00:00	7	Dirección del viento	1.61
43575	7	Sololá	717	San Juan la Laguna	12	San Juan la Laguna	3	Marzo	2023-03-22T00:00:00	2024-11-08T08:00:00	1	Precipitación	0
43576	7	Sololá	717	San Juan la Laguna	12	San Juan la Laguna	3	Marzo	2023-03-22T00:00:00	2024-11-08T08:00:00	8	Radiación solar	82
43577	7	Sololá	717	San Juan la Laguna	12	San Juan la Laguna	3	Marzo	2023-03-22T00:00:00	2024-11-08T09:00:00	2	Temperatura media	20.8
43578	7	Sololá	717	San Juan la Laguna	12	San Juan la Laguna	3	Marzo	2023-03-22T00:00:00	2024-11-08T09:00:00	4	Temperatura máxima	20.8
43579	7	Sololá	717	San Juan la Laguna	12	San Juan la Laguna	3	Marzo	2023-03-22T00:00:00	2024-11-08T09:00:00	3	Temperatura mínima	19.7
43580	7	Sololá	717	San Juan la Laguna	12	San Juan la Laguna	3	Marzo	2023-03-22T00:00:00	2024-11-08T09:00:00	5	Humedad	65
43581	7	Sololá	717	San Juan la Laguna	12	San Juan la Laguna	3	Marzo	2023-03-22T00:00:00	2024-11-08T09:00:00	6	Velocidad del viento	3.2
43582	7	Sololá	717	San Juan la Laguna	12	San Juan la Laguna	3	Marzo	2023-03-22T00:00:00	2024-11-08T09:00:00	7	Dirección del viento	3.22
43583	7	Sololá	717	San Juan la Laguna	12	San Juan la Laguna	3	Marzo	2023-03-22T00:00:00	2024-11-08T09:00:00	1	Precipitación	0
43584	7	Sololá	717	San Juan la Laguna	12	San Juan la Laguna	3	Marzo	2023-03-22T00:00:00	2024-11-08T09:00:00	8	Radiación solar	196
43585	7	Sololá	717	San Juan la Laguna	12	San Juan la Laguna	3	Marzo	2023-03-22T00:00:00	2024-11-08T10:00:00	2	Temperatura media	24.1
43586	7	Sololá	717	San Juan la Laguna	12	San Juan la Laguna	3	Marzo	2023-03-22T00:00:00	2024-11-08T10:00:00	4	Temperatura máxima	24.1
43587	7	Sololá	717	San Juan la Laguna	12	San Juan la Laguna	3	Marzo	2023-03-22T00:00:00	2024-11-08T10:00:00	3	Temperatura mínima	20.8
43588	7	Sololá	717	San Juan la Laguna	12	San Juan la Laguna	3	Marzo	2023-03-22T00:00:00	2024-11-08T10:00:00	5	Humedad	54
43589	7	Sololá	717	San Juan la Laguna	12	San Juan la Laguna	3	Marzo	2023-03-22T00:00:00	2024-11-08T10:00:00	6	Velocidad del viento	3.2
43590	7	Sololá	717	San Juan la Laguna	12	San Juan la Laguna	3	Marzo	2023-03-22T00:00:00	2024-11-08T10:00:00	7	Dirección del viento	3.22
43591	7	Sololá	717	San Juan la Laguna	12	San Juan la Laguna	3	Marzo	2023-03-22T00:00:00	2024-11-08T10:00:00	1	Precipitación	0
43592	7	Sololá	717	San Juan la Laguna	12	San Juan la Laguna	3	Marzo	2023-03-22T00:00:00	2024-11-08T10:00:00	8	Radiación solar	625
43593	7	Sololá	717	San Juan la Laguna	12	San Juan la Laguna	3	Marzo	2023-03-22T00:00:00	2024-11-08T11:00:00	2	Temperatura media	24.6
43594	7	Sololá	717	San Juan la Laguna	12	San Juan la Laguna	3	Marzo	2023-03-22T00:00:00	2024-11-08T11:00:00	4	Temperatura máxima	25.2
43595	7	Sololá	717	San Juan la Laguna	12	San Juan la Laguna	3	Marzo	2023-03-22T00:00:00	2024-11-08T11:00:00	3	Temperatura mínima	23.4
43596	7	Sololá	717	San Juan la Laguna	12	San Juan la Laguna	3	Marzo	2023-03-22T00:00:00	2024-11-08T11:00:00	5	Humedad	52
43597	7	Sololá	717	San Juan la Laguna	12	San Juan la Laguna	3	Marzo	2023-03-22T00:00:00	2024-11-08T11:00:00	6	Velocidad del viento	3.2
43598	7	Sololá	717	San Juan la Laguna	12	San Juan la Laguna	3	Marzo	2023-03-22T00:00:00	2024-11-08T11:00:00	7	Dirección del viento	3.22
43599	7	Sololá	717	San Juan la Laguna	12	San Juan la Laguna	3	Marzo	2023-03-22T00:00:00	2024-11-08T11:00:00	1	Precipitación	0
43600	7	Sololá	717	San Juan la Laguna	12	San Juan la Laguna	3	Marzo	2023-03-22T00:00:00	2024-11-08T11:00:00	8	Radiación solar	687
43601	7	Sololá	717	San Juan la Laguna	12	San Juan la Laguna	3	Marzo	2023-03-22T00:00:00	2024-11-08T12:00:00	2	Temperatura media	24.6
43602	7	Sololá	717	San Juan la Laguna	12	San Juan la Laguna	3	Marzo	2023-03-22T00:00:00	2024-11-08T12:00:00	4	Temperatura máxima	25.4
43603	7	Sololá	717	San Juan la Laguna	12	San Juan la Laguna	3	Marzo	2023-03-22T00:00:00	2024-11-08T12:00:00	3	Temperatura mínima	24
43604	7	Sololá	717	San Juan la Laguna	12	San Juan la Laguna	3	Marzo	2023-03-22T00:00:00	2024-11-08T12:00:00	5	Humedad	52
43605	7	Sololá	717	San Juan la Laguna	12	San Juan la Laguna	3	Marzo	2023-03-22T00:00:00	2024-11-08T12:00:00	6	Velocidad del viento	3.2
43606	7	Sololá	717	San Juan la Laguna	12	San Juan la Laguna	3	Marzo	2023-03-22T00:00:00	2024-11-08T12:00:00	7	Dirección del viento	3.22
43607	7	Sololá	717	San Juan la Laguna	12	San Juan la Laguna	3	Marzo	2023-03-22T00:00:00	2024-11-08T12:00:00	1	Precipitación	0
43608	7	Sololá	717	San Juan la Laguna	12	San Juan la Laguna	3	Marzo	2023-03-22T00:00:00	2024-11-08T12:00:00	8	Radiación solar	567
43609	7	Sololá	717	San Juan la Laguna	12	San Juan la Laguna	3	Marzo	2023-03-22T00:00:00	2024-11-08T13:00:00	2	Temperatura media	25
43610	7	Sololá	717	San Juan la Laguna	12	San Juan la Laguna	3	Marzo	2023-03-22T00:00:00	2024-11-08T13:00:00	4	Temperatura máxima	25.1
43611	7	Sololá	717	San Juan la Laguna	12	San Juan la Laguna	3	Marzo	2023-03-22T00:00:00	2024-11-08T13:00:00	3	Temperatura mínima	24.3
43612	7	Sololá	717	San Juan la Laguna	12	San Juan la Laguna	3	Marzo	2023-03-22T00:00:00	2024-11-08T13:00:00	5	Humedad	52
43613	7	Sololá	717	San Juan la Laguna	12	San Juan la Laguna	3	Marzo	2023-03-22T00:00:00	2024-11-08T13:00:00	6	Velocidad del viento	3.2
43614	7	Sololá	717	San Juan la Laguna	12	San Juan la Laguna	3	Marzo	2023-03-22T00:00:00	2024-11-08T13:00:00	7	Dirección del viento	3.22
43615	7	Sololá	717	San Juan la Laguna	12	San Juan la Laguna	3	Marzo	2023-03-22T00:00:00	2024-11-08T13:00:00	1	Precipitación	0
43616	7	Sololá	717	San Juan la Laguna	12	San Juan la Laguna	3	Marzo	2023-03-22T00:00:00	2024-11-08T13:00:00	8	Radiación solar	409
43617	7	Sololá	717	San Juan la Laguna	12	San Juan la Laguna	3	Marzo	2023-03-22T00:00:00	2024-11-08T14:00:00	2	Temperatura media	25.9
43618	7	Sololá	717	San Juan la Laguna	12	San Juan la Laguna	3	Marzo	2023-03-22T00:00:00	2024-11-08T14:00:00	4	Temperatura máxima	26.1
43619	7	Sololá	717	San Juan la Laguna	12	San Juan la Laguna	3	Marzo	2023-03-22T00:00:00	2024-11-08T14:00:00	3	Temperatura mínima	24.6
43620	7	Sololá	717	San Juan la Laguna	12	San Juan la Laguna	3	Marzo	2023-03-22T00:00:00	2024-11-08T14:00:00	5	Humedad	47
43621	7	Sololá	717	San Juan la Laguna	12	San Juan la Laguna	3	Marzo	2023-03-22T00:00:00	2024-11-08T14:00:00	6	Velocidad del viento	1.6
43622	7	Sololá	717	San Juan la Laguna	12	San Juan la Laguna	3	Marzo	2023-03-22T00:00:00	2024-11-08T14:00:00	7	Dirección del viento	1.61
43623	7	Sololá	717	San Juan la Laguna	12	San Juan la Laguna	3	Marzo	2023-03-22T00:00:00	2024-11-08T14:00:00	1	Precipitación	0
43624	7	Sololá	717	San Juan la Laguna	12	San Juan la Laguna	3	Marzo	2023-03-22T00:00:00	2024-11-08T14:00:00	8	Radiación solar	572
43625	7	Sololá	717	San Juan la Laguna	12	San Juan la Laguna	3	Marzo	2023-03-22T00:00:00	2024-11-08T15:00:00	2	Temperatura media	25.3
43626	7	Sololá	717	San Juan la Laguna	12	San Juan la Laguna	3	Marzo	2023-03-22T00:00:00	2024-11-08T15:00:00	4	Temperatura máxima	25.8
43627	7	Sololá	717	San Juan la Laguna	12	San Juan la Laguna	3	Marzo	2023-03-22T00:00:00	2024-11-08T15:00:00	3	Temperatura mínima	25.2
43628	7	Sololá	717	San Juan la Laguna	12	San Juan la Laguna	3	Marzo	2023-03-22T00:00:00	2024-11-08T15:00:00	5	Humedad	48
43629	7	Sololá	717	San Juan la Laguna	12	San Juan la Laguna	3	Marzo	2023-03-22T00:00:00	2024-11-08T15:00:00	6	Velocidad del viento	3.2
43630	7	Sololá	717	San Juan la Laguna	12	San Juan la Laguna	3	Marzo	2023-03-22T00:00:00	2024-11-08T15:00:00	7	Dirección del viento	3.22
43631	7	Sololá	717	San Juan la Laguna	12	San Juan la Laguna	3	Marzo	2023-03-22T00:00:00	2024-11-08T15:00:00	1	Precipitación	0
43632	7	Sololá	717	San Juan la Laguna	12	San Juan la Laguna	3	Marzo	2023-03-22T00:00:00	2024-11-08T15:00:00	8	Radiación solar	681
43633	7	Sololá	717	San Juan la Laguna	12	San Juan la Laguna	3	Marzo	2023-03-22T00:00:00	2024-11-08T16:00:00	2	Temperatura media	24.9
43634	7	Sololá	717	San Juan la Laguna	12	San Juan la Laguna	3	Marzo	2023-03-22T00:00:00	2024-11-08T16:00:00	4	Temperatura máxima	25.9
43635	7	Sololá	717	San Juan la Laguna	12	San Juan la Laguna	3	Marzo	2023-03-22T00:00:00	2024-11-08T16:00:00	3	Temperatura mínima	24.8
43636	7	Sololá	717	San Juan la Laguna	12	San Juan la Laguna	3	Marzo	2023-03-22T00:00:00	2024-11-08T16:00:00	5	Humedad	48
43637	7	Sololá	717	San Juan la Laguna	12	San Juan la Laguna	3	Marzo	2023-03-22T00:00:00	2024-11-08T16:00:00	6	Velocidad del viento	3.2
43638	7	Sololá	717	San Juan la Laguna	12	San Juan la Laguna	3	Marzo	2023-03-22T00:00:00	2024-11-08T16:00:00	7	Dirección del viento	3.22
43639	7	Sololá	717	San Juan la Laguna	12	San Juan la Laguna	3	Marzo	2023-03-22T00:00:00	2024-11-08T16:00:00	1	Precipitación	0
43640	7	Sololá	717	San Juan la Laguna	12	San Juan la Laguna	3	Marzo	2023-03-22T00:00:00	2024-11-08T16:00:00	8	Radiación solar	426
43641	7	Sololá	717	San Juan la Laguna	12	San Juan la Laguna	3	Marzo	2023-03-22T00:00:00	2024-11-08T17:00:00	2	Temperatura media	24.2
43642	7	Sololá	717	San Juan la Laguna	12	San Juan la Laguna	3	Marzo	2023-03-22T00:00:00	2024-11-08T17:00:00	4	Temperatura máxima	25.1
43643	7	Sololá	717	San Juan la Laguna	12	San Juan la Laguna	3	Marzo	2023-03-22T00:00:00	2024-11-08T17:00:00	3	Temperatura mínima	24.2
43644	7	Sololá	717	San Juan la Laguna	12	San Juan la Laguna	3	Marzo	2023-03-22T00:00:00	2024-11-08T17:00:00	5	Humedad	47
43645	7	Sololá	717	San Juan la Laguna	12	San Juan la Laguna	3	Marzo	2023-03-22T00:00:00	2024-11-08T17:00:00	6	Velocidad del viento	1.6
43646	7	Sololá	717	San Juan la Laguna	12	San Juan la Laguna	3	Marzo	2023-03-22T00:00:00	2024-11-08T17:00:00	7	Dirección del viento	1.61
43647	7	Sololá	717	San Juan la Laguna	12	San Juan la Laguna	3	Marzo	2023-03-22T00:00:00	2024-11-08T17:00:00	1	Precipitación	0
43648	7	Sololá	717	San Juan la Laguna	12	San Juan la Laguna	3	Marzo	2023-03-22T00:00:00	2024-11-08T17:00:00	8	Radiación solar	239
43649	7	Sololá	717	San Juan la Laguna	12	San Juan la Laguna	3	Marzo	2023-03-22T00:00:00	2024-11-08T18:00:00	2	Temperatura media	21.3
43650	7	Sololá	717	San Juan la Laguna	12	San Juan la Laguna	3	Marzo	2023-03-22T00:00:00	2024-11-08T18:00:00	4	Temperatura máxima	24.2
43651	7	Sololá	717	San Juan la Laguna	12	San Juan la Laguna	3	Marzo	2023-03-22T00:00:00	2024-11-08T18:00:00	3	Temperatura mínima	21
43652	7	Sololá	717	San Juan la Laguna	12	San Juan la Laguna	3	Marzo	2023-03-22T00:00:00	2024-11-08T18:00:00	5	Humedad	69
43653	7	Sololá	717	San Juan la Laguna	12	San Juan la Laguna	3	Marzo	2023-03-22T00:00:00	2024-11-08T18:00:00	6	Velocidad del viento	3.2
43654	7	Sololá	717	San Juan la Laguna	12	San Juan la Laguna	3	Marzo	2023-03-22T00:00:00	2024-11-08T18:00:00	7	Dirección del viento	3.22
43655	7	Sololá	717	San Juan la Laguna	12	San Juan la Laguna	3	Marzo	2023-03-22T00:00:00	2024-11-08T18:00:00	1	Precipitación	0
43656	7	Sololá	717	San Juan la Laguna	12	San Juan la Laguna	3	Marzo	2023-03-22T00:00:00	2024-11-08T18:00:00	8	Radiación solar	74
43657	7	Sololá	717	San Juan la Laguna	12	San Juan la Laguna	3	Marzo	2023-03-22T00:00:00	2024-11-08T19:00:00	2	Temperatura media	21.6
43658	7	Sololá	717	San Juan la Laguna	12	San Juan la Laguna	3	Marzo	2023-03-22T00:00:00	2024-11-08T19:00:00	4	Temperatura máxima	21.6
43659	7	Sololá	717	San Juan la Laguna	12	San Juan la Laguna	3	Marzo	2023-03-22T00:00:00	2024-11-08T19:00:00	3	Temperatura mínima	20.7
43660	7	Sololá	717	San Juan la Laguna	12	San Juan la Laguna	3	Marzo	2023-03-22T00:00:00	2024-11-08T19:00:00	5	Humedad	61
43661	7	Sololá	717	San Juan la Laguna	12	San Juan la Laguna	3	Marzo	2023-03-22T00:00:00	2024-11-08T19:00:00	6	Velocidad del viento	1.6
43662	7	Sololá	717	San Juan la Laguna	12	San Juan la Laguna	3	Marzo	2023-03-22T00:00:00	2024-11-08T19:00:00	7	Dirección del viento	1.61
43663	7	Sololá	717	San Juan la Laguna	12	San Juan la Laguna	3	Marzo	2023-03-22T00:00:00	2024-11-08T19:00:00	1	Precipitación	0
43664	7	Sololá	717	San Juan la Laguna	12	San Juan la Laguna	3	Marzo	2023-03-22T00:00:00	2024-11-08T19:00:00	8	Radiación solar	0
43665	7	Sololá	717	San Juan la Laguna	12	San Juan la Laguna	3	Marzo	2023-03-22T00:00:00	2024-11-08T20:00:00	2	Temperatura media	20.7
43666	7	Sololá	717	San Juan la Laguna	12	San Juan la Laguna	3	Marzo	2023-03-22T00:00:00	2024-11-08T20:00:00	4	Temperatura máxima	21.6
43667	7	Sololá	717	San Juan la Laguna	12	San Juan la Laguna	3	Marzo	2023-03-22T00:00:00	2024-11-08T20:00:00	3	Temperatura mínima	20.7
43668	7	Sololá	717	San Juan la Laguna	12	San Juan la Laguna	3	Marzo	2023-03-22T00:00:00	2024-11-08T20:00:00	5	Humedad	62
43669	7	Sololá	717	San Juan la Laguna	12	San Juan la Laguna	3	Marzo	2023-03-22T00:00:00	2024-11-08T20:00:00	6	Velocidad del viento	1.6
43670	7	Sololá	717	San Juan la Laguna	12	San Juan la Laguna	3	Marzo	2023-03-22T00:00:00	2024-11-08T20:00:00	7	Dirección del viento	1.61
43671	7	Sololá	717	San Juan la Laguna	12	San Juan la Laguna	3	Marzo	2023-03-22T00:00:00	2024-11-08T20:00:00	1	Precipitación	0
43672	7	Sololá	717	San Juan la Laguna	12	San Juan la Laguna	3	Marzo	2023-03-22T00:00:00	2024-11-08T20:00:00	8	Radiación solar	0
43673	7	Sololá	717	San Juan la Laguna	12	San Juan la Laguna	3	Marzo	2023-03-22T00:00:00	2024-11-08T21:00:00	2	Temperatura media	19.9
43674	7	Sololá	717	San Juan la Laguna	12	San Juan la Laguna	3	Marzo	2023-03-22T00:00:00	2024-11-08T21:00:00	4	Temperatura máxima	20.7
43675	7	Sololá	717	San Juan la Laguna	12	San Juan la Laguna	3	Marzo	2023-03-22T00:00:00	2024-11-08T21:00:00	3	Temperatura mínima	19.9
43676	7	Sololá	717	San Juan la Laguna	12	San Juan la Laguna	3	Marzo	2023-03-22T00:00:00	2024-11-08T21:00:00	5	Humedad	64
43677	7	Sololá	717	San Juan la Laguna	12	San Juan la Laguna	3	Marzo	2023-03-22T00:00:00	2024-11-08T21:00:00	6	Velocidad del viento	1.6
43678	7	Sololá	717	San Juan la Laguna	12	San Juan la Laguna	3	Marzo	2023-03-22T00:00:00	2024-11-08T21:00:00	7	Dirección del viento	1.61
43679	7	Sololá	717	San Juan la Laguna	12	San Juan la Laguna	3	Marzo	2023-03-22T00:00:00	2024-11-08T21:00:00	1	Precipitación	0
43680	7	Sololá	717	San Juan la Laguna	12	San Juan la Laguna	3	Marzo	2023-03-22T00:00:00	2024-11-08T21:00:00	8	Radiación solar	0
43681	7	Sololá	717	San Juan la Laguna	12	San Juan la Laguna	3	Marzo	2023-03-22T00:00:00	2024-11-08T22:00:00	2	Temperatura media	19.1
43682	7	Sololá	717	San Juan la Laguna	12	San Juan la Laguna	3	Marzo	2023-03-22T00:00:00	2024-11-08T22:00:00	4	Temperatura máxima	19.9
43683	7	Sololá	717	San Juan la Laguna	12	San Juan la Laguna	3	Marzo	2023-03-22T00:00:00	2024-11-08T22:00:00	3	Temperatura mínima	19.1
43684	7	Sololá	717	San Juan la Laguna	12	San Juan la Laguna	3	Marzo	2023-03-22T00:00:00	2024-11-08T22:00:00	5	Humedad	67
43685	7	Sololá	717	San Juan la Laguna	12	San Juan la Laguna	3	Marzo	2023-03-22T00:00:00	2024-11-08T22:00:00	6	Velocidad del viento	0
43686	7	Sololá	717	San Juan la Laguna	12	San Juan la Laguna	3	Marzo	2023-03-22T00:00:00	2024-11-08T22:00:00	7	Dirección del viento	0
43687	7	Sololá	717	San Juan la Laguna	12	San Juan la Laguna	3	Marzo	2023-03-22T00:00:00	2024-11-08T22:00:00	1	Precipitación	0
43688	7	Sololá	717	San Juan la Laguna	12	San Juan la Laguna	3	Marzo	2023-03-22T00:00:00	2024-11-08T22:00:00	8	Radiación solar	0
43689	7	Sololá	717	San Juan la Laguna	12	San Juan la Laguna	3	Marzo	2023-03-22T00:00:00	2024-11-08T23:00:00	2	Temperatura media	19
43690	7	Sololá	717	San Juan la Laguna	12	San Juan la Laguna	3	Marzo	2023-03-22T00:00:00	2024-11-08T23:00:00	4	Temperatura máxima	19.1
43691	7	Sololá	717	San Juan la Laguna	12	San Juan la Laguna	3	Marzo	2023-03-22T00:00:00	2024-11-08T23:00:00	3	Temperatura mínima	18.2
43692	7	Sololá	717	San Juan la Laguna	12	San Juan la Laguna	3	Marzo	2023-03-22T00:00:00	2024-11-08T23:00:00	5	Humedad	65
43693	7	Sololá	717	San Juan la Laguna	12	San Juan la Laguna	3	Marzo	2023-03-22T00:00:00	2024-11-08T23:00:00	6	Velocidad del viento	1.6
43694	7	Sololá	717	San Juan la Laguna	12	San Juan la Laguna	3	Marzo	2023-03-22T00:00:00	2024-11-08T23:00:00	7	Dirección del viento	1.61
43695	7	Sololá	717	San Juan la Laguna	12	San Juan la Laguna	3	Marzo	2023-03-22T00:00:00	2024-11-08T23:00:00	1	Precipitación	0
43696	7	Sololá	717	San Juan la Laguna	12	San Juan la Laguna	3	Marzo	2023-03-22T00:00:00	2024-11-08T23:00:00	8	Radiación solar	0
43697	7	Sololá	717	San Juan la Laguna	12	San Juan la Laguna	3	Marzo	2023-03-23T00:00:00	2024-11-08T00:00:00	2	Temperatura media	17.7
43698	7	Sololá	717	San Juan la Laguna	12	San Juan la Laguna	3	Marzo	2023-03-23T00:00:00	2024-11-08T00:00:00	4	Temperatura máxima	19
43699	7	Sololá	717	San Juan la Laguna	12	San Juan la Laguna	3	Marzo	2023-03-23T00:00:00	2024-11-08T00:00:00	3	Temperatura mínima	17.7
43700	7	Sololá	717	San Juan la Laguna	12	San Juan la Laguna	3	Marzo	2023-03-23T00:00:00	2024-11-08T00:00:00	5	Humedad	68
43701	7	Sololá	717	San Juan la Laguna	12	San Juan la Laguna	3	Marzo	2023-03-23T00:00:00	2024-11-08T00:00:00	6	Velocidad del viento	1.6
43702	7	Sololá	717	San Juan la Laguna	12	San Juan la Laguna	3	Marzo	2023-03-23T00:00:00	2024-11-08T00:00:00	7	Dirección del viento	1.61
43703	7	Sololá	717	San Juan la Laguna	12	San Juan la Laguna	3	Marzo	2023-03-23T00:00:00	2024-11-08T00:00:00	1	Precipitación	0
43704	7	Sololá	717	San Juan la Laguna	12	San Juan la Laguna	3	Marzo	2023-03-23T00:00:00	2024-11-08T00:00:00	8	Radiación solar	0
43705	7	Sololá	717	San Juan la Laguna	12	San Juan la Laguna	3	Marzo	2023-03-23T00:00:00	2024-11-08T01:00:00	2	Temperatura media	14.9
43706	7	Sololá	717	San Juan la Laguna	12	San Juan la Laguna	3	Marzo	2023-03-23T00:00:00	2024-11-08T01:00:00	4	Temperatura máxima	17.7
43707	7	Sololá	717	San Juan la Laguna	12	San Juan la Laguna	3	Marzo	2023-03-23T00:00:00	2024-11-08T01:00:00	3	Temperatura mínima	14.9
43708	7	Sololá	717	San Juan la Laguna	12	San Juan la Laguna	3	Marzo	2023-03-23T00:00:00	2024-11-08T01:00:00	5	Humedad	76
43709	7	Sololá	717	San Juan la Laguna	12	San Juan la Laguna	3	Marzo	2023-03-23T00:00:00	2024-11-08T01:00:00	6	Velocidad del viento	1.6
43710	7	Sololá	717	San Juan la Laguna	12	San Juan la Laguna	3	Marzo	2023-03-23T00:00:00	2024-11-08T01:00:00	7	Dirección del viento	1.61
43711	7	Sololá	717	San Juan la Laguna	12	San Juan la Laguna	3	Marzo	2023-03-23T00:00:00	2024-11-08T01:00:00	1	Precipitación	0
43712	7	Sololá	717	San Juan la Laguna	12	San Juan la Laguna	3	Marzo	2023-03-23T00:00:00	2024-11-08T01:00:00	8	Radiación solar	0
43713	7	Sololá	717	San Juan la Laguna	12	San Juan la Laguna	3	Marzo	2023-03-23T00:00:00	2024-11-08T02:00:00	2	Temperatura media	14.5
43714	7	Sololá	717	San Juan la Laguna	12	San Juan la Laguna	3	Marzo	2023-03-23T00:00:00	2024-11-08T02:00:00	4	Temperatura máxima	14.9
43715	7	Sololá	717	San Juan la Laguna	12	San Juan la Laguna	3	Marzo	2023-03-23T00:00:00	2024-11-08T02:00:00	3	Temperatura mínima	14.4
43716	7	Sololá	717	San Juan la Laguna	12	San Juan la Laguna	3	Marzo	2023-03-23T00:00:00	2024-11-08T02:00:00	5	Humedad	77
43717	7	Sololá	717	San Juan la Laguna	12	San Juan la Laguna	3	Marzo	2023-03-23T00:00:00	2024-11-08T02:00:00	6	Velocidad del viento	0
43718	7	Sololá	717	San Juan la Laguna	12	San Juan la Laguna	3	Marzo	2023-03-23T00:00:00	2024-11-08T02:00:00	7	Dirección del viento	0
43719	7	Sololá	717	San Juan la Laguna	12	San Juan la Laguna	3	Marzo	2023-03-23T00:00:00	2024-11-08T02:00:00	1	Precipitación	0
43720	7	Sololá	717	San Juan la Laguna	12	San Juan la Laguna	3	Marzo	2023-03-23T00:00:00	2024-11-08T02:00:00	8	Radiación solar	0
43721	7	Sololá	717	San Juan la Laguna	12	San Juan la Laguna	3	Marzo	2023-03-23T00:00:00	2024-11-08T03:00:00	2	Temperatura media	13.8
43722	7	Sololá	717	San Juan la Laguna	12	San Juan la Laguna	3	Marzo	2023-03-23T00:00:00	2024-11-08T03:00:00	4	Temperatura máxima	14.5
43723	7	Sololá	717	San Juan la Laguna	12	San Juan la Laguna	3	Marzo	2023-03-23T00:00:00	2024-11-08T03:00:00	3	Temperatura mínima	13.8
43724	7	Sololá	717	San Juan la Laguna	12	San Juan la Laguna	3	Marzo	2023-03-23T00:00:00	2024-11-08T03:00:00	5	Humedad	79
43725	7	Sololá	717	San Juan la Laguna	12	San Juan la Laguna	3	Marzo	2023-03-23T00:00:00	2024-11-08T03:00:00	6	Velocidad del viento	0
43726	7	Sololá	717	San Juan la Laguna	12	San Juan la Laguna	3	Marzo	2023-03-23T00:00:00	2024-11-08T03:00:00	7	Dirección del viento	0
43727	7	Sololá	717	San Juan la Laguna	12	San Juan la Laguna	3	Marzo	2023-03-23T00:00:00	2024-11-08T03:00:00	1	Precipitación	0
43728	7	Sololá	717	San Juan la Laguna	12	San Juan la Laguna	3	Marzo	2023-03-23T00:00:00	2024-11-08T03:00:00	8	Radiación solar	0
43729	7	Sololá	717	San Juan la Laguna	12	San Juan la Laguna	3	Marzo	2023-03-23T00:00:00	2024-11-08T04:00:00	2	Temperatura media	13.4
43730	7	Sololá	717	San Juan la Laguna	12	San Juan la Laguna	3	Marzo	2023-03-23T00:00:00	2024-11-08T04:00:00	4	Temperatura máxima	13.8
43731	7	Sololá	717	San Juan la Laguna	12	San Juan la Laguna	3	Marzo	2023-03-23T00:00:00	2024-11-08T04:00:00	3	Temperatura mínima	13.3
43732	7	Sololá	717	San Juan la Laguna	12	San Juan la Laguna	3	Marzo	2023-03-23T00:00:00	2024-11-08T04:00:00	5	Humedad	81
43733	7	Sololá	717	San Juan la Laguna	12	San Juan la Laguna	3	Marzo	2023-03-23T00:00:00	2024-11-08T04:00:00	6	Velocidad del viento	1.6
43734	7	Sololá	717	San Juan la Laguna	12	San Juan la Laguna	3	Marzo	2023-03-23T00:00:00	2024-11-08T04:00:00	7	Dirección del viento	1.61
43735	7	Sololá	717	San Juan la Laguna	12	San Juan la Laguna	3	Marzo	2023-03-23T00:00:00	2024-11-08T04:00:00	1	Precipitación	0
43736	7	Sololá	717	San Juan la Laguna	12	San Juan la Laguna	3	Marzo	2023-03-23T00:00:00	2024-11-08T04:00:00	8	Radiación solar	0
43737	7	Sololá	717	San Juan la Laguna	12	San Juan la Laguna	3	Marzo	2023-03-23T00:00:00	2024-11-08T05:00:00	2	Temperatura media	13.6
43738	7	Sololá	717	San Juan la Laguna	12	San Juan la Laguna	3	Marzo	2023-03-23T00:00:00	2024-11-08T05:00:00	4	Temperatura máxima	13.7
43739	7	Sololá	717	San Juan la Laguna	12	San Juan la Laguna	3	Marzo	2023-03-23T00:00:00	2024-11-08T05:00:00	3	Temperatura mínima	13.4
43740	7	Sololá	717	San Juan la Laguna	12	San Juan la Laguna	3	Marzo	2023-03-23T00:00:00	2024-11-08T05:00:00	5	Humedad	81
43741	7	Sololá	717	San Juan la Laguna	12	San Juan la Laguna	3	Marzo	2023-03-23T00:00:00	2024-11-08T05:00:00	6	Velocidad del viento	1.6
43742	7	Sololá	717	San Juan la Laguna	12	San Juan la Laguna	3	Marzo	2023-03-23T00:00:00	2024-11-08T05:00:00	7	Dirección del viento	1.61
43743	7	Sololá	717	San Juan la Laguna	12	San Juan la Laguna	3	Marzo	2023-03-23T00:00:00	2024-11-08T05:00:00	1	Precipitación	0
43744	7	Sololá	717	San Juan la Laguna	12	San Juan la Laguna	3	Marzo	2023-03-23T00:00:00	2024-11-08T05:00:00	8	Radiación solar	0
43745	7	Sololá	717	San Juan la Laguna	12	San Juan la Laguna	3	Marzo	2023-03-23T00:00:00	2024-11-08T06:00:00	2	Temperatura media	13.9
43746	7	Sololá	717	San Juan la Laguna	12	San Juan la Laguna	3	Marzo	2023-03-23T00:00:00	2024-11-08T06:00:00	4	Temperatura máxima	14.4
43747	7	Sololá	717	San Juan la Laguna	12	San Juan la Laguna	3	Marzo	2023-03-23T00:00:00	2024-11-08T06:00:00	3	Temperatura mínima	13.4
43748	7	Sololá	717	San Juan la Laguna	12	San Juan la Laguna	3	Marzo	2023-03-23T00:00:00	2024-11-08T06:00:00	5	Humedad	79
43749	7	Sololá	717	San Juan la Laguna	12	San Juan la Laguna	3	Marzo	2023-03-23T00:00:00	2024-11-08T06:00:00	6	Velocidad del viento	3.2
43750	7	Sololá	717	San Juan la Laguna	12	San Juan la Laguna	3	Marzo	2023-03-23T00:00:00	2024-11-08T06:00:00	7	Dirección del viento	3.22
43751	7	Sololá	717	San Juan la Laguna	12	San Juan la Laguna	3	Marzo	2023-03-23T00:00:00	2024-11-08T06:00:00	1	Precipitación	0
43752	7	Sololá	717	San Juan la Laguna	12	San Juan la Laguna	3	Marzo	2023-03-23T00:00:00	2024-11-08T06:00:00	8	Radiación solar	0
43753	7	Sololá	717	San Juan la Laguna	12	San Juan la Laguna	3	Marzo	2023-03-23T00:00:00	2024-11-08T07:00:00	2	Temperatura media	14.5
43754	7	Sololá	717	San Juan la Laguna	12	San Juan la Laguna	3	Marzo	2023-03-23T00:00:00	2024-11-08T07:00:00	4	Temperatura máxima	14.5
43755	7	Sololá	717	San Juan la Laguna	12	San Juan la Laguna	3	Marzo	2023-03-23T00:00:00	2024-11-08T07:00:00	3	Temperatura mínima	13.8
43756	7	Sololá	717	San Juan la Laguna	12	San Juan la Laguna	3	Marzo	2023-03-23T00:00:00	2024-11-08T07:00:00	5	Humedad	79
43757	7	Sololá	717	San Juan la Laguna	12	San Juan la Laguna	3	Marzo	2023-03-23T00:00:00	2024-11-08T07:00:00	6	Velocidad del viento	0
43758	7	Sololá	717	San Juan la Laguna	12	San Juan la Laguna	3	Marzo	2023-03-23T00:00:00	2024-11-08T07:00:00	7	Dirección del viento	0
43759	7	Sololá	717	San Juan la Laguna	12	San Juan la Laguna	3	Marzo	2023-03-23T00:00:00	2024-11-08T07:00:00	1	Precipitación	0
43760	7	Sololá	717	San Juan la Laguna	12	San Juan la Laguna	3	Marzo	2023-03-23T00:00:00	2024-11-08T07:00:00	8	Radiación solar	31
43761	7	Sololá	717	San Juan la Laguna	12	San Juan la Laguna	3	Marzo	2023-03-23T00:00:00	2024-11-08T08:00:00	2	Temperatura media	19
43762	7	Sololá	717	San Juan la Laguna	12	San Juan la Laguna	3	Marzo	2023-03-23T00:00:00	2024-11-08T08:00:00	4	Temperatura máxima	19.1
43763	7	Sololá	717	San Juan la Laguna	12	San Juan la Laguna	3	Marzo	2023-03-23T00:00:00	2024-11-08T08:00:00	3	Temperatura mínima	14.5
43764	7	Sololá	717	San Juan la Laguna	12	San Juan la Laguna	3	Marzo	2023-03-23T00:00:00	2024-11-08T08:00:00	5	Humedad	68
43765	7	Sololá	717	San Juan la Laguna	12	San Juan la Laguna	3	Marzo	2023-03-23T00:00:00	2024-11-08T08:00:00	6	Velocidad del viento	0
43766	7	Sololá	717	San Juan la Laguna	12	San Juan la Laguna	3	Marzo	2023-03-23T00:00:00	2024-11-08T08:00:00	7	Dirección del viento	0
43767	7	Sololá	717	San Juan la Laguna	12	San Juan la Laguna	3	Marzo	2023-03-23T00:00:00	2024-11-08T08:00:00	1	Precipitación	0
43768	7	Sololá	717	San Juan la Laguna	12	San Juan la Laguna	3	Marzo	2023-03-23T00:00:00	2024-11-08T08:00:00	8	Radiación solar	183
43769	7	Sololá	717	San Juan la Laguna	12	San Juan la Laguna	3	Marzo	2023-03-23T00:00:00	2024-11-08T09:00:00	2	Temperatura media	20.7
43770	7	Sololá	717	San Juan la Laguna	12	San Juan la Laguna	3	Marzo	2023-03-23T00:00:00	2024-11-08T09:00:00	4	Temperatura máxima	20.7
43771	7	Sololá	717	San Juan la Laguna	12	San Juan la Laguna	3	Marzo	2023-03-23T00:00:00	2024-11-08T09:00:00	3	Temperatura mínima	19
43772	7	Sololá	717	San Juan la Laguna	12	San Juan la Laguna	3	Marzo	2023-03-23T00:00:00	2024-11-08T09:00:00	5	Humedad	64
43773	7	Sololá	717	San Juan la Laguna	12	San Juan la Laguna	3	Marzo	2023-03-23T00:00:00	2024-11-08T09:00:00	6	Velocidad del viento	1.6
43774	7	Sololá	717	San Juan la Laguna	12	San Juan la Laguna	3	Marzo	2023-03-23T00:00:00	2024-11-08T09:00:00	7	Dirección del viento	1.61
43775	7	Sololá	717	San Juan la Laguna	12	San Juan la Laguna	3	Marzo	2023-03-23T00:00:00	2024-11-08T09:00:00	1	Precipitación	0
43776	7	Sololá	717	San Juan la Laguna	12	San Juan la Laguna	3	Marzo	2023-03-23T00:00:00	2024-11-08T09:00:00	8	Radiación solar	439
43777	7	Sololá	717	San Juan la Laguna	12	San Juan la Laguna	3	Marzo	2023-03-23T00:00:00	2024-11-08T10:00:00	2	Temperatura media	22.9
43778	7	Sololá	717	San Juan la Laguna	12	San Juan la Laguna	3	Marzo	2023-03-23T00:00:00	2024-11-08T10:00:00	4	Temperatura máxima	22.9
43779	7	Sololá	717	San Juan la Laguna	12	San Juan la Laguna	3	Marzo	2023-03-23T00:00:00	2024-11-08T10:00:00	3	Temperatura mínima	20.7
43780	7	Sololá	717	San Juan la Laguna	12	San Juan la Laguna	3	Marzo	2023-03-23T00:00:00	2024-11-08T10:00:00	5	Humedad	55
43781	7	Sololá	717	San Juan la Laguna	12	San Juan la Laguna	3	Marzo	2023-03-23T00:00:00	2024-11-08T10:00:00	6	Velocidad del viento	1.6
43782	7	Sololá	717	San Juan la Laguna	12	San Juan la Laguna	3	Marzo	2023-03-23T00:00:00	2024-11-08T10:00:00	7	Dirección del viento	1.61
43783	7	Sololá	717	San Juan la Laguna	12	San Juan la Laguna	3	Marzo	2023-03-23T00:00:00	2024-11-08T10:00:00	1	Precipitación	0
43784	7	Sololá	717	San Juan la Laguna	12	San Juan la Laguna	3	Marzo	2023-03-23T00:00:00	2024-11-08T10:00:00	8	Radiación solar	693
43785	7	Sololá	717	San Juan la Laguna	12	San Juan la Laguna	3	Marzo	2023-03-23T00:00:00	2024-11-08T11:00:00	2	Temperatura media	24.7
43786	7	Sololá	717	San Juan la Laguna	12	San Juan la Laguna	3	Marzo	2023-03-23T00:00:00	2024-11-08T11:00:00	4	Temperatura máxima	24.7
43787	7	Sololá	717	San Juan la Laguna	12	San Juan la Laguna	3	Marzo	2023-03-23T00:00:00	2024-11-08T11:00:00	3	Temperatura mínima	22.9
43788	7	Sololá	717	San Juan la Laguna	12	San Juan la Laguna	3	Marzo	2023-03-23T00:00:00	2024-11-08T11:00:00	5	Humedad	49
43789	7	Sololá	717	San Juan la Laguna	12	San Juan la Laguna	3	Marzo	2023-03-23T00:00:00	2024-11-08T11:00:00	6	Velocidad del viento	1.6
43790	7	Sololá	717	San Juan la Laguna	12	San Juan la Laguna	3	Marzo	2023-03-23T00:00:00	2024-11-08T11:00:00	7	Dirección del viento	1.61
43791	7	Sololá	717	San Juan la Laguna	12	San Juan la Laguna	3	Marzo	2023-03-23T00:00:00	2024-11-08T11:00:00	1	Precipitación	0
43792	7	Sololá	717	San Juan la Laguna	12	San Juan la Laguna	3	Marzo	2023-03-23T00:00:00	2024-11-08T11:00:00	8	Radiación solar	851
43793	7	Sololá	717	San Juan la Laguna	12	San Juan la Laguna	3	Marzo	2023-03-23T00:00:00	2024-11-08T12:00:00	2	Temperatura media	25.3
43794	7	Sololá	717	San Juan la Laguna	12	San Juan la Laguna	3	Marzo	2023-03-23T00:00:00	2024-11-08T12:00:00	4	Temperatura máxima	25.3
43795	7	Sololá	717	San Juan la Laguna	12	San Juan la Laguna	3	Marzo	2023-03-23T00:00:00	2024-11-08T12:00:00	3	Temperatura mínima	24.6
43796	7	Sololá	717	San Juan la Laguna	12	San Juan la Laguna	3	Marzo	2023-03-23T00:00:00	2024-11-08T12:00:00	5	Humedad	46
43797	7	Sololá	717	San Juan la Laguna	12	San Juan la Laguna	3	Marzo	2023-03-23T00:00:00	2024-11-08T12:00:00	6	Velocidad del viento	3.2
43798	7	Sololá	717	San Juan la Laguna	12	San Juan la Laguna	3	Marzo	2023-03-23T00:00:00	2024-11-08T12:00:00	7	Dirección del viento	3.22
43799	7	Sololá	717	San Juan la Laguna	12	San Juan la Laguna	3	Marzo	2023-03-23T00:00:00	2024-11-08T12:00:00	1	Precipitación	0
43800	7	Sololá	717	San Juan la Laguna	12	San Juan la Laguna	3	Marzo	2023-03-23T00:00:00	2024-11-08T12:00:00	8	Radiación solar	980
43801	7	Sololá	717	San Juan la Laguna	12	San Juan la Laguna	3	Marzo	2023-03-23T00:00:00	2024-11-08T13:00:00	2	Temperatura media	25.9
43802	7	Sololá	717	San Juan la Laguna	12	San Juan la Laguna	3	Marzo	2023-03-23T00:00:00	2024-11-08T13:00:00	4	Temperatura máxima	26.1
43803	7	Sololá	717	San Juan la Laguna	12	San Juan la Laguna	3	Marzo	2023-03-23T00:00:00	2024-11-08T13:00:00	3	Temperatura mínima	24.9
43804	7	Sololá	717	San Juan la Laguna	12	San Juan la Laguna	3	Marzo	2023-03-23T00:00:00	2024-11-08T13:00:00	5	Humedad	44
43805	7	Sololá	717	San Juan la Laguna	12	San Juan la Laguna	3	Marzo	2023-03-23T00:00:00	2024-11-08T13:00:00	6	Velocidad del viento	3.2
43806	7	Sololá	717	San Juan la Laguna	12	San Juan la Laguna	3	Marzo	2023-03-23T00:00:00	2024-11-08T13:00:00	7	Dirección del viento	3.22
43807	7	Sololá	717	San Juan la Laguna	12	San Juan la Laguna	3	Marzo	2023-03-23T00:00:00	2024-11-08T13:00:00	1	Precipitación	0
43808	7	Sololá	717	San Juan la Laguna	12	San Juan la Laguna	3	Marzo	2023-03-23T00:00:00	2024-11-08T13:00:00	8	Radiación solar	975
43809	7	Sololá	717	San Juan la Laguna	12	San Juan la Laguna	3	Marzo	2023-03-23T00:00:00	2024-11-08T14:00:00	2	Temperatura media	25.1
43810	7	Sololá	717	San Juan la Laguna	12	San Juan la Laguna	3	Marzo	2023-03-23T00:00:00	2024-11-08T14:00:00	4	Temperatura máxima	26.1
43811	7	Sololá	717	San Juan la Laguna	12	San Juan la Laguna	3	Marzo	2023-03-23T00:00:00	2024-11-08T14:00:00	3	Temperatura mínima	23.8
43812	7	Sololá	717	San Juan la Laguna	12	San Juan la Laguna	3	Marzo	2023-03-23T00:00:00	2024-11-08T14:00:00	5	Humedad	58
43813	7	Sololá	717	San Juan la Laguna	12	San Juan la Laguna	3	Marzo	2023-03-23T00:00:00	2024-11-08T14:00:00	6	Velocidad del viento	1.6
43814	7	Sololá	717	San Juan la Laguna	12	San Juan la Laguna	3	Marzo	2023-03-23T00:00:00	2024-11-08T14:00:00	7	Dirección del viento	1.61
43815	7	Sololá	717	San Juan la Laguna	12	San Juan la Laguna	3	Marzo	2023-03-23T00:00:00	2024-11-08T14:00:00	1	Precipitación	0
43816	7	Sololá	717	San Juan la Laguna	12	San Juan la Laguna	3	Marzo	2023-03-23T00:00:00	2024-11-08T14:00:00	8	Radiación solar	794
43817	7	Sololá	717	San Juan la Laguna	12	San Juan la Laguna	3	Marzo	2023-03-23T00:00:00	2024-11-08T15:00:00	2	Temperatura media	23.8
43818	7	Sololá	717	San Juan la Laguna	12	San Juan la Laguna	3	Marzo	2023-03-23T00:00:00	2024-11-08T15:00:00	4	Temperatura máxima	25.8
43819	7	Sololá	717	San Juan la Laguna	12	San Juan la Laguna	3	Marzo	2023-03-23T00:00:00	2024-11-08T15:00:00	3	Temperatura mínima	23.8
43820	7	Sololá	717	San Juan la Laguna	12	San Juan la Laguna	3	Marzo	2023-03-23T00:00:00	2024-11-08T15:00:00	5	Humedad	64
43821	7	Sololá	717	San Juan la Laguna	12	San Juan la Laguna	3	Marzo	2023-03-23T00:00:00	2024-11-08T15:00:00	6	Velocidad del viento	1.6
43822	7	Sololá	717	San Juan la Laguna	12	San Juan la Laguna	3	Marzo	2023-03-23T00:00:00	2024-11-08T15:00:00	7	Dirección del viento	1.61
43823	7	Sololá	717	San Juan la Laguna	12	San Juan la Laguna	3	Marzo	2023-03-23T00:00:00	2024-11-08T15:00:00	1	Precipitación	0
43824	7	Sololá	717	San Juan la Laguna	12	San Juan la Laguna	3	Marzo	2023-03-23T00:00:00	2024-11-08T15:00:00	8	Radiación solar	665
43825	7	Sololá	717	San Juan la Laguna	12	San Juan la Laguna	3	Marzo	2023-03-23T00:00:00	2024-11-08T16:00:00	2	Temperatura media	24.7
43826	7	Sololá	717	San Juan la Laguna	12	San Juan la Laguna	3	Marzo	2023-03-23T00:00:00	2024-11-08T16:00:00	4	Temperatura máxima	25.8
43827	7	Sololá	717	San Juan la Laguna	12	San Juan la Laguna	3	Marzo	2023-03-23T00:00:00	2024-11-08T16:00:00	3	Temperatura mínima	23.7
43828	7	Sololá	717	San Juan la Laguna	12	San Juan la Laguna	3	Marzo	2023-03-23T00:00:00	2024-11-08T16:00:00	5	Humedad	60
43829	7	Sololá	717	San Juan la Laguna	12	San Juan la Laguna	3	Marzo	2023-03-23T00:00:00	2024-11-08T16:00:00	6	Velocidad del viento	1.6
43830	7	Sololá	717	San Juan la Laguna	12	San Juan la Laguna	3	Marzo	2023-03-23T00:00:00	2024-11-08T16:00:00	7	Dirección del viento	1.61
43831	7	Sololá	717	San Juan la Laguna	12	San Juan la Laguna	3	Marzo	2023-03-23T00:00:00	2024-11-08T16:00:00	1	Precipitación	0
43832	7	Sololá	717	San Juan la Laguna	12	San Juan la Laguna	3	Marzo	2023-03-23T00:00:00	2024-11-08T16:00:00	8	Radiación solar	593
43833	7	Sololá	717	San Juan la Laguna	12	San Juan la Laguna	3	Marzo	2023-03-23T00:00:00	2024-11-08T17:00:00	2	Temperatura media	22.9
43834	7	Sololá	717	San Juan la Laguna	12	San Juan la Laguna	3	Marzo	2023-03-23T00:00:00	2024-11-08T17:00:00	4	Temperatura máxima	24.7
43835	7	Sololá	717	San Juan la Laguna	12	San Juan la Laguna	3	Marzo	2023-03-23T00:00:00	2024-11-08T17:00:00	3	Temperatura mínima	22.2
43836	7	Sololá	717	San Juan la Laguna	12	San Juan la Laguna	3	Marzo	2023-03-23T00:00:00	2024-11-08T17:00:00	5	Humedad	68
43837	7	Sololá	717	San Juan la Laguna	12	San Juan la Laguna	3	Marzo	2023-03-23T00:00:00	2024-11-08T17:00:00	6	Velocidad del viento	3.2
43838	7	Sololá	717	San Juan la Laguna	12	San Juan la Laguna	3	Marzo	2023-03-23T00:00:00	2024-11-08T17:00:00	7	Dirección del viento	3.22
43839	7	Sololá	717	San Juan la Laguna	12	San Juan la Laguna	3	Marzo	2023-03-23T00:00:00	2024-11-08T17:00:00	1	Precipitación	0
43840	7	Sololá	717	San Juan la Laguna	12	San Juan la Laguna	3	Marzo	2023-03-23T00:00:00	2024-11-08T17:00:00	8	Radiación solar	215
43841	7	Sololá	717	San Juan la Laguna	12	San Juan la Laguna	3	Marzo	2023-03-23T00:00:00	2024-11-08T18:00:00	2	Temperatura media	21.4
43842	7	Sololá	717	San Juan la Laguna	12	San Juan la Laguna	3	Marzo	2023-03-23T00:00:00	2024-11-08T18:00:00	4	Temperatura máxima	23.1
43843	7	Sololá	717	San Juan la Laguna	12	San Juan la Laguna	3	Marzo	2023-03-23T00:00:00	2024-11-08T18:00:00	3	Temperatura mínima	21.4
43844	7	Sololá	717	San Juan la Laguna	12	San Juan la Laguna	3	Marzo	2023-03-23T00:00:00	2024-11-08T18:00:00	5	Humedad	73
43845	7	Sololá	717	San Juan la Laguna	12	San Juan la Laguna	3	Marzo	2023-03-23T00:00:00	2024-11-08T18:00:00	6	Velocidad del viento	1.6
43846	7	Sololá	717	San Juan la Laguna	12	San Juan la Laguna	3	Marzo	2023-03-23T00:00:00	2024-11-08T18:00:00	7	Dirección del viento	1.61
43847	7	Sololá	717	San Juan la Laguna	12	San Juan la Laguna	3	Marzo	2023-03-23T00:00:00	2024-11-08T18:00:00	1	Precipitación	0
43848	7	Sololá	717	San Juan la Laguna	12	San Juan la Laguna	3	Marzo	2023-03-23T00:00:00	2024-11-08T18:00:00	8	Radiación solar	54
43849	7	Sololá	717	San Juan la Laguna	12	San Juan la Laguna	3	Marzo	2023-03-23T00:00:00	2024-11-08T19:00:00	2	Temperatura media	19.6
43850	7	Sololá	717	San Juan la Laguna	12	San Juan la Laguna	3	Marzo	2023-03-23T00:00:00	2024-11-08T19:00:00	4	Temperatura máxima	21.4
43851	7	Sololá	717	San Juan la Laguna	12	San Juan la Laguna	3	Marzo	2023-03-23T00:00:00	2024-11-08T19:00:00	3	Temperatura mínima	19.6
43852	7	Sololá	717	San Juan la Laguna	12	San Juan la Laguna	3	Marzo	2023-03-23T00:00:00	2024-11-08T19:00:00	5	Humedad	80
43853	7	Sololá	717	San Juan la Laguna	12	San Juan la Laguna	3	Marzo	2023-03-23T00:00:00	2024-11-08T19:00:00	6	Velocidad del viento	0
43854	7	Sololá	717	San Juan la Laguna	12	San Juan la Laguna	3	Marzo	2023-03-23T00:00:00	2024-11-08T19:00:00	7	Dirección del viento	0
43855	7	Sololá	717	San Juan la Laguna	12	San Juan la Laguna	3	Marzo	2023-03-23T00:00:00	2024-11-08T19:00:00	1	Precipitación	0
43856	7	Sololá	717	San Juan la Laguna	12	San Juan la Laguna	3	Marzo	2023-03-23T00:00:00	2024-11-08T19:00:00	8	Radiación solar	0
43857	7	Sololá	717	San Juan la Laguna	12	San Juan la Laguna	3	Marzo	2023-03-23T00:00:00	2024-11-08T20:00:00	2	Temperatura media	20.6
43858	7	Sololá	717	San Juan la Laguna	12	San Juan la Laguna	3	Marzo	2023-03-23T00:00:00	2024-11-08T20:00:00	4	Temperatura máxima	20.6
43859	7	Sololá	717	San Juan la Laguna	12	San Juan la Laguna	3	Marzo	2023-03-23T00:00:00	2024-11-08T20:00:00	3	Temperatura mínima	19.3
43860	7	Sololá	717	San Juan la Laguna	12	San Juan la Laguna	3	Marzo	2023-03-23T00:00:00	2024-11-08T20:00:00	5	Humedad	65
43861	7	Sololá	717	San Juan la Laguna	12	San Juan la Laguna	3	Marzo	2023-03-23T00:00:00	2024-11-08T20:00:00	6	Velocidad del viento	1.6
43862	7	Sololá	717	San Juan la Laguna	12	San Juan la Laguna	3	Marzo	2023-03-23T00:00:00	2024-11-08T20:00:00	7	Dirección del viento	1.61
43863	7	Sololá	717	San Juan la Laguna	12	San Juan la Laguna	3	Marzo	2023-03-23T00:00:00	2024-11-08T20:00:00	1	Precipitación	0
43864	7	Sololá	717	San Juan la Laguna	12	San Juan la Laguna	3	Marzo	2023-03-23T00:00:00	2024-11-08T20:00:00	8	Radiación solar	0
43865	7	Sololá	717	San Juan la Laguna	12	San Juan la Laguna	3	Marzo	2023-03-23T00:00:00	2024-11-08T21:00:00	2	Temperatura media	20.3
43866	7	Sololá	717	San Juan la Laguna	12	San Juan la Laguna	3	Marzo	2023-03-23T00:00:00	2024-11-08T21:00:00	4	Temperatura máxima	20.7
43867	7	Sololá	717	San Juan la Laguna	12	San Juan la Laguna	3	Marzo	2023-03-23T00:00:00	2024-11-08T21:00:00	3	Temperatura mínima	20.1
43868	7	Sololá	717	San Juan la Laguna	12	San Juan la Laguna	3	Marzo	2023-03-23T00:00:00	2024-11-08T21:00:00	5	Humedad	65
43869	7	Sololá	717	San Juan la Laguna	12	San Juan la Laguna	3	Marzo	2023-03-23T00:00:00	2024-11-08T21:00:00	6	Velocidad del viento	1.6
43870	7	Sololá	717	San Juan la Laguna	12	San Juan la Laguna	3	Marzo	2023-03-23T00:00:00	2024-11-08T21:00:00	7	Dirección del viento	1.61
43871	7	Sololá	717	San Juan la Laguna	12	San Juan la Laguna	3	Marzo	2023-03-23T00:00:00	2024-11-08T21:00:00	1	Precipitación	0
43872	7	Sololá	717	San Juan la Laguna	12	San Juan la Laguna	3	Marzo	2023-03-23T00:00:00	2024-11-08T21:00:00	8	Radiación solar	0
43873	7	Sololá	717	San Juan la Laguna	12	San Juan la Laguna	3	Marzo	2023-03-23T00:00:00	2024-11-08T22:00:00	2	Temperatura media	19.7
43874	7	Sololá	717	San Juan la Laguna	12	San Juan la Laguna	3	Marzo	2023-03-23T00:00:00	2024-11-08T22:00:00	4	Temperatura máxima	20.3
43875	7	Sololá	717	San Juan la Laguna	12	San Juan la Laguna	3	Marzo	2023-03-23T00:00:00	2024-11-08T22:00:00	3	Temperatura mínima	19.7
43876	7	Sololá	717	San Juan la Laguna	12	San Juan la Laguna	3	Marzo	2023-03-23T00:00:00	2024-11-08T22:00:00	5	Humedad	65
43877	7	Sololá	717	San Juan la Laguna	12	San Juan la Laguna	3	Marzo	2023-03-23T00:00:00	2024-11-08T22:00:00	6	Velocidad del viento	1.6
43878	7	Sololá	717	San Juan la Laguna	12	San Juan la Laguna	3	Marzo	2023-03-23T00:00:00	2024-11-08T22:00:00	7	Dirección del viento	1.61
43879	7	Sololá	717	San Juan la Laguna	12	San Juan la Laguna	3	Marzo	2023-03-23T00:00:00	2024-11-08T22:00:00	1	Precipitación	0
43880	7	Sololá	717	San Juan la Laguna	12	San Juan la Laguna	3	Marzo	2023-03-23T00:00:00	2024-11-08T22:00:00	8	Radiación solar	0
43881	7	Sololá	717	San Juan la Laguna	12	San Juan la Laguna	3	Marzo	2023-03-23T00:00:00	2024-11-08T23:00:00	2	Temperatura media	18.8
43882	7	Sololá	717	San Juan la Laguna	12	San Juan la Laguna	3	Marzo	2023-03-23T00:00:00	2024-11-08T23:00:00	4	Temperatura máxima	19.7
43883	7	Sololá	717	San Juan la Laguna	12	San Juan la Laguna	3	Marzo	2023-03-23T00:00:00	2024-11-08T23:00:00	3	Temperatura mínima	18.8
43884	7	Sololá	717	San Juan la Laguna	12	San Juan la Laguna	3	Marzo	2023-03-23T00:00:00	2024-11-08T23:00:00	5	Humedad	67
43885	7	Sololá	717	San Juan la Laguna	12	San Juan la Laguna	3	Marzo	2023-03-23T00:00:00	2024-11-08T23:00:00	6	Velocidad del viento	1.6
43886	7	Sololá	717	San Juan la Laguna	12	San Juan la Laguna	3	Marzo	2023-03-23T00:00:00	2024-11-08T23:00:00	7	Dirección del viento	1.61
43887	7	Sololá	717	San Juan la Laguna	12	San Juan la Laguna	3	Marzo	2023-03-23T00:00:00	2024-11-08T23:00:00	1	Precipitación	0
43888	7	Sololá	717	San Juan la Laguna	12	San Juan la Laguna	3	Marzo	2023-03-23T00:00:00	2024-11-08T23:00:00	8	Radiación solar	0
43889	7	Sololá	717	San Juan la Laguna	12	San Juan la Laguna	3	Marzo	2023-03-24T00:00:00	2024-11-08T00:00:00	2	Temperatura media	15.8
43890	7	Sololá	717	San Juan la Laguna	12	San Juan la Laguna	3	Marzo	2023-03-24T00:00:00	2024-11-08T00:00:00	4	Temperatura máxima	18.8
43891	7	Sololá	717	San Juan la Laguna	12	San Juan la Laguna	3	Marzo	2023-03-24T00:00:00	2024-11-08T00:00:00	3	Temperatura mínima	15.8
43892	7	Sololá	717	San Juan la Laguna	12	San Juan la Laguna	3	Marzo	2023-03-24T00:00:00	2024-11-08T00:00:00	5	Humedad	77
43893	7	Sololá	717	San Juan la Laguna	12	San Juan la Laguna	3	Marzo	2023-03-24T00:00:00	2024-11-08T00:00:00	6	Velocidad del viento	0
43894	7	Sololá	717	San Juan la Laguna	12	San Juan la Laguna	3	Marzo	2023-03-24T00:00:00	2024-11-08T00:00:00	7	Dirección del viento	0
43895	7	Sololá	717	San Juan la Laguna	12	San Juan la Laguna	3	Marzo	2023-03-24T00:00:00	2024-11-08T00:00:00	1	Precipitación	0
43896	7	Sololá	717	San Juan la Laguna	12	San Juan la Laguna	3	Marzo	2023-03-24T00:00:00	2024-11-08T00:00:00	8	Radiación solar	0
43897	7	Sololá	717	San Juan la Laguna	12	San Juan la Laguna	3	Marzo	2023-03-24T00:00:00	2024-11-08T01:00:00	2	Temperatura media	14.7
43898	7	Sololá	717	San Juan la Laguna	12	San Juan la Laguna	3	Marzo	2023-03-24T00:00:00	2024-11-08T01:00:00	4	Temperatura máxima	15.8
43899	7	Sololá	717	San Juan la Laguna	12	San Juan la Laguna	3	Marzo	2023-03-24T00:00:00	2024-11-08T01:00:00	3	Temperatura mínima	14.6
43900	7	Sololá	717	San Juan la Laguna	12	San Juan la Laguna	3	Marzo	2023-03-24T00:00:00	2024-11-08T01:00:00	5	Humedad	78
43901	7	Sololá	717	San Juan la Laguna	12	San Juan la Laguna	3	Marzo	2023-03-24T00:00:00	2024-11-08T01:00:00	6	Velocidad del viento	1.6
43902	7	Sololá	717	San Juan la Laguna	12	San Juan la Laguna	3	Marzo	2023-03-24T00:00:00	2024-11-08T01:00:00	7	Dirección del viento	1.61
43903	7	Sololá	717	San Juan la Laguna	12	San Juan la Laguna	3	Marzo	2023-03-24T00:00:00	2024-11-08T01:00:00	1	Precipitación	0
43904	7	Sololá	717	San Juan la Laguna	12	San Juan la Laguna	3	Marzo	2023-03-24T00:00:00	2024-11-08T01:00:00	8	Radiación solar	0
43905	7	Sololá	717	San Juan la Laguna	12	San Juan la Laguna	3	Marzo	2023-03-24T00:00:00	2024-11-08T02:00:00	2	Temperatura media	14.6
43906	7	Sololá	717	San Juan la Laguna	12	San Juan la Laguna	3	Marzo	2023-03-24T00:00:00	2024-11-08T02:00:00	4	Temperatura máxima	14.8
43907	7	Sololá	717	San Juan la Laguna	12	San Juan la Laguna	3	Marzo	2023-03-24T00:00:00	2024-11-08T02:00:00	3	Temperatura mínima	14.4
43908	7	Sololá	717	San Juan la Laguna	12	San Juan la Laguna	3	Marzo	2023-03-24T00:00:00	2024-11-08T02:00:00	5	Humedad	77
43909	7	Sololá	717	San Juan la Laguna	12	San Juan la Laguna	3	Marzo	2023-03-24T00:00:00	2024-11-08T02:00:00	6	Velocidad del viento	3.2
43910	7	Sololá	717	San Juan la Laguna	12	San Juan la Laguna	3	Marzo	2023-03-24T00:00:00	2024-11-08T02:00:00	7	Dirección del viento	3.22
43911	7	Sololá	717	San Juan la Laguna	12	San Juan la Laguna	3	Marzo	2023-03-24T00:00:00	2024-11-08T02:00:00	1	Precipitación	0
43912	7	Sololá	717	San Juan la Laguna	12	San Juan la Laguna	3	Marzo	2023-03-24T00:00:00	2024-11-08T02:00:00	8	Radiación solar	0
43913	7	Sololá	717	San Juan la Laguna	12	San Juan la Laguna	3	Marzo	2023-03-24T00:00:00	2024-11-08T03:00:00	2	Temperatura media	14
43914	7	Sololá	717	San Juan la Laguna	12	San Juan la Laguna	3	Marzo	2023-03-24T00:00:00	2024-11-08T03:00:00	4	Temperatura máxima	14.6
43915	7	Sololá	717	San Juan la Laguna	12	San Juan la Laguna	3	Marzo	2023-03-24T00:00:00	2024-11-08T03:00:00	3	Temperatura mínima	14
43916	7	Sololá	717	San Juan la Laguna	12	San Juan la Laguna	3	Marzo	2023-03-24T00:00:00	2024-11-08T03:00:00	5	Humedad	75
43917	7	Sololá	717	San Juan la Laguna	12	San Juan la Laguna	3	Marzo	2023-03-24T00:00:00	2024-11-08T03:00:00	6	Velocidad del viento	1.6
43918	7	Sololá	717	San Juan la Laguna	12	San Juan la Laguna	3	Marzo	2023-03-24T00:00:00	2024-11-08T03:00:00	7	Dirección del viento	1.61
43919	7	Sololá	717	San Juan la Laguna	12	San Juan la Laguna	3	Marzo	2023-03-24T00:00:00	2024-11-08T03:00:00	1	Precipitación	0
43920	7	Sololá	717	San Juan la Laguna	12	San Juan la Laguna	3	Marzo	2023-03-24T00:00:00	2024-11-08T03:00:00	8	Radiación solar	0
43921	7	Sololá	717	San Juan la Laguna	12	San Juan la Laguna	3	Marzo	2023-03-24T00:00:00	2024-11-08T04:00:00	2	Temperatura media	13.8
43922	7	Sololá	717	San Juan la Laguna	12	San Juan la Laguna	3	Marzo	2023-03-24T00:00:00	2024-11-08T04:00:00	4	Temperatura máxima	14
43923	7	Sololá	717	San Juan la Laguna	12	San Juan la Laguna	3	Marzo	2023-03-24T00:00:00	2024-11-08T04:00:00	3	Temperatura mínima	13.8
43924	7	Sololá	717	San Juan la Laguna	12	San Juan la Laguna	3	Marzo	2023-03-24T00:00:00	2024-11-08T04:00:00	5	Humedad	77
43925	7	Sololá	717	San Juan la Laguna	12	San Juan la Laguna	3	Marzo	2023-03-24T00:00:00	2024-11-08T04:00:00	6	Velocidad del viento	1.6
43926	7	Sololá	717	San Juan la Laguna	12	San Juan la Laguna	3	Marzo	2023-03-24T00:00:00	2024-11-08T04:00:00	7	Dirección del viento	1.61
43927	7	Sololá	717	San Juan la Laguna	12	San Juan la Laguna	3	Marzo	2023-03-24T00:00:00	2024-11-08T04:00:00	1	Precipitación	0
43928	7	Sololá	717	San Juan la Laguna	12	San Juan la Laguna	3	Marzo	2023-03-24T00:00:00	2024-11-08T04:00:00	8	Radiación solar	0
43929	7	Sololá	717	San Juan la Laguna	12	San Juan la Laguna	3	Marzo	2023-03-24T00:00:00	2024-11-08T05:00:00	2	Temperatura media	13.5
43930	7	Sololá	717	San Juan la Laguna	12	San Juan la Laguna	3	Marzo	2023-03-24T00:00:00	2024-11-08T05:00:00	4	Temperatura máxima	13.8
43931	7	Sololá	717	San Juan la Laguna	12	San Juan la Laguna	3	Marzo	2023-03-24T00:00:00	2024-11-08T05:00:00	3	Temperatura mínima	13.3
43932	7	Sololá	717	San Juan la Laguna	12	San Juan la Laguna	3	Marzo	2023-03-24T00:00:00	2024-11-08T05:00:00	5	Humedad	78
43933	7	Sololá	717	San Juan la Laguna	12	San Juan la Laguna	3	Marzo	2023-03-24T00:00:00	2024-11-08T05:00:00	6	Velocidad del viento	3.2
43934	7	Sololá	717	San Juan la Laguna	12	San Juan la Laguna	3	Marzo	2023-03-24T00:00:00	2024-11-08T05:00:00	7	Dirección del viento	3.22
43935	7	Sololá	717	San Juan la Laguna	12	San Juan la Laguna	3	Marzo	2023-03-24T00:00:00	2024-11-08T05:00:00	1	Precipitación	0
43936	7	Sololá	717	San Juan la Laguna	12	San Juan la Laguna	3	Marzo	2023-03-24T00:00:00	2024-11-08T05:00:00	8	Radiación solar	0
43937	7	Sololá	717	San Juan la Laguna	12	San Juan la Laguna	3	Marzo	2023-03-24T00:00:00	2024-11-08T06:00:00	2	Temperatura media	13.1
43938	7	Sololá	717	San Juan la Laguna	12	San Juan la Laguna	3	Marzo	2023-03-24T00:00:00	2024-11-08T06:00:00	4	Temperatura máxima	13.5
43939	7	Sololá	717	San Juan la Laguna	12	San Juan la Laguna	3	Marzo	2023-03-24T00:00:00	2024-11-08T06:00:00	3	Temperatura mínima	12.7
43940	7	Sololá	717	San Juan la Laguna	12	San Juan la Laguna	3	Marzo	2023-03-24T00:00:00	2024-11-08T06:00:00	5	Humedad	80
43941	7	Sololá	717	San Juan la Laguna	12	San Juan la Laguna	3	Marzo	2023-03-24T00:00:00	2024-11-08T06:00:00	6	Velocidad del viento	1.6
43942	7	Sololá	717	San Juan la Laguna	12	San Juan la Laguna	3	Marzo	2023-03-24T00:00:00	2024-11-08T06:00:00	7	Dirección del viento	1.61
43943	7	Sololá	717	San Juan la Laguna	12	San Juan la Laguna	3	Marzo	2023-03-24T00:00:00	2024-11-08T06:00:00	1	Precipitación	0
43944	7	Sololá	717	San Juan la Laguna	12	San Juan la Laguna	3	Marzo	2023-03-24T00:00:00	2024-11-08T06:00:00	8	Radiación solar	0
43945	7	Sololá	717	San Juan la Laguna	12	San Juan la Laguna	3	Marzo	2023-03-24T00:00:00	2024-11-08T07:00:00	2	Temperatura media	14.4
43946	7	Sololá	717	San Juan la Laguna	12	San Juan la Laguna	3	Marzo	2023-03-24T00:00:00	2024-11-08T07:00:00	4	Temperatura máxima	14.4
43947	7	Sololá	717	San Juan la Laguna	12	San Juan la Laguna	3	Marzo	2023-03-24T00:00:00	2024-11-08T07:00:00	3	Temperatura mínima	12.8
43948	7	Sololá	717	San Juan la Laguna	12	San Juan la Laguna	3	Marzo	2023-03-24T00:00:00	2024-11-08T07:00:00	5	Humedad	80
43949	7	Sololá	717	San Juan la Laguna	12	San Juan la Laguna	3	Marzo	2023-03-24T00:00:00	2024-11-08T07:00:00	6	Velocidad del viento	1.6
43950	7	Sololá	717	San Juan la Laguna	12	San Juan la Laguna	3	Marzo	2023-03-24T00:00:00	2024-11-08T07:00:00	7	Dirección del viento	1.61
43951	7	Sololá	717	San Juan la Laguna	12	San Juan la Laguna	3	Marzo	2023-03-24T00:00:00	2024-11-08T07:00:00	1	Precipitación	0
43952	7	Sololá	717	San Juan la Laguna	12	San Juan la Laguna	3	Marzo	2023-03-24T00:00:00	2024-11-08T07:00:00	8	Radiación solar	35
43953	7	Sololá	717	San Juan la Laguna	12	San Juan la Laguna	3	Marzo	2023-03-24T00:00:00	2024-11-08T08:00:00	2	Temperatura media	18.5
43954	7	Sololá	717	San Juan la Laguna	12	San Juan la Laguna	3	Marzo	2023-03-24T00:00:00	2024-11-08T08:00:00	4	Temperatura máxima	18.5
43955	7	Sololá	717	San Juan la Laguna	12	San Juan la Laguna	3	Marzo	2023-03-24T00:00:00	2024-11-08T08:00:00	3	Temperatura mínima	14.4
43956	7	Sololá	717	San Juan la Laguna	12	San Juan la Laguna	3	Marzo	2023-03-24T00:00:00	2024-11-08T08:00:00	5	Humedad	71
43957	7	Sololá	717	San Juan la Laguna	12	San Juan la Laguna	3	Marzo	2023-03-24T00:00:00	2024-11-08T08:00:00	6	Velocidad del viento	0
43958	7	Sololá	717	San Juan la Laguna	12	San Juan la Laguna	3	Marzo	2023-03-24T00:00:00	2024-11-08T08:00:00	7	Dirección del viento	0
43959	7	Sololá	717	San Juan la Laguna	12	San Juan la Laguna	3	Marzo	2023-03-24T00:00:00	2024-11-08T08:00:00	1	Precipitación	0
43960	7	Sololá	717	San Juan la Laguna	12	San Juan la Laguna	3	Marzo	2023-03-24T00:00:00	2024-11-08T08:00:00	8	Radiación solar	192
43961	7	Sololá	717	San Juan la Laguna	12	San Juan la Laguna	3	Marzo	2023-03-24T00:00:00	2024-11-08T09:00:00	2	Temperatura media	19.4
43962	7	Sololá	717	San Juan la Laguna	12	San Juan la Laguna	3	Marzo	2023-03-24T00:00:00	2024-11-08T09:00:00	4	Temperatura máxima	19.6
43963	7	Sololá	717	San Juan la Laguna	12	San Juan la Laguna	3	Marzo	2023-03-24T00:00:00	2024-11-08T09:00:00	3	Temperatura mínima	18.5
43964	7	Sololá	717	San Juan la Laguna	12	San Juan la Laguna	3	Marzo	2023-03-24T00:00:00	2024-11-08T09:00:00	5	Humedad	69
43965	7	Sololá	717	San Juan la Laguna	12	San Juan la Laguna	3	Marzo	2023-03-24T00:00:00	2024-11-08T09:00:00	6	Velocidad del viento	0
43966	7	Sololá	717	San Juan la Laguna	12	San Juan la Laguna	3	Marzo	2023-03-24T00:00:00	2024-11-08T09:00:00	7	Dirección del viento	0
43967	7	Sololá	717	San Juan la Laguna	12	San Juan la Laguna	3	Marzo	2023-03-24T00:00:00	2024-11-08T09:00:00	1	Precipitación	0
43968	7	Sololá	717	San Juan la Laguna	12	San Juan la Laguna	3	Marzo	2023-03-24T00:00:00	2024-11-08T09:00:00	8	Radiación solar	439
43969	7	Sololá	717	San Juan la Laguna	12	San Juan la Laguna	3	Marzo	2023-03-24T00:00:00	2024-11-08T10:00:00	2	Temperatura media	20.4
43970	7	Sololá	717	San Juan la Laguna	12	San Juan la Laguna	3	Marzo	2023-03-24T00:00:00	2024-11-08T10:00:00	4	Temperatura máxima	20.4
43971	7	Sololá	717	San Juan la Laguna	12	San Juan la Laguna	3	Marzo	2023-03-24T00:00:00	2024-11-08T10:00:00	3	Temperatura mínima	19.3
43972	7	Sololá	717	San Juan la Laguna	12	San Juan la Laguna	3	Marzo	2023-03-24T00:00:00	2024-11-08T10:00:00	5	Humedad	64
43973	7	Sololá	717	San Juan la Laguna	12	San Juan la Laguna	3	Marzo	2023-03-24T00:00:00	2024-11-08T10:00:00	6	Velocidad del viento	1.6
43974	7	Sololá	717	San Juan la Laguna	12	San Juan la Laguna	3	Marzo	2023-03-24T00:00:00	2024-11-08T10:00:00	7	Dirección del viento	1.61
43975	7	Sololá	717	San Juan la Laguna	12	San Juan la Laguna	3	Marzo	2023-03-24T00:00:00	2024-11-08T10:00:00	1	Precipitación	0
43976	7	Sololá	717	San Juan la Laguna	12	San Juan la Laguna	3	Marzo	2023-03-24T00:00:00	2024-11-08T10:00:00	8	Radiación solar	691
43977	7	Sololá	717	San Juan la Laguna	12	San Juan la Laguna	3	Marzo	2023-03-24T00:00:00	2024-11-08T11:00:00	2	Temperatura media	21.8
43978	7	Sololá	717	San Juan la Laguna	12	San Juan la Laguna	3	Marzo	2023-03-24T00:00:00	2024-11-08T11:00:00	4	Temperatura máxima	21.9
43979	7	Sololá	717	San Juan la Laguna	12	San Juan la Laguna	3	Marzo	2023-03-24T00:00:00	2024-11-08T11:00:00	3	Temperatura mínima	20.4
43980	7	Sololá	717	San Juan la Laguna	12	San Juan la Laguna	3	Marzo	2023-03-24T00:00:00	2024-11-08T11:00:00	5	Humedad	58
43981	7	Sololá	717	San Juan la Laguna	12	San Juan la Laguna	3	Marzo	2023-03-24T00:00:00	2024-11-08T11:00:00	6	Velocidad del viento	1.6
43982	7	Sololá	717	San Juan la Laguna	12	San Juan la Laguna	3	Marzo	2023-03-24T00:00:00	2024-11-08T11:00:00	7	Dirección del viento	1.61
43983	7	Sololá	717	San Juan la Laguna	12	San Juan la Laguna	3	Marzo	2023-03-24T00:00:00	2024-11-08T11:00:00	1	Precipitación	0
43984	7	Sololá	717	San Juan la Laguna	12	San Juan la Laguna	3	Marzo	2023-03-24T00:00:00	2024-11-08T11:00:00	8	Radiación solar	857
43985	7	Sololá	717	San Juan la Laguna	12	San Juan la Laguna	3	Marzo	2023-03-24T00:00:00	2024-11-08T12:00:00	2	Temperatura media	22.8
43986	7	Sololá	717	San Juan la Laguna	12	San Juan la Laguna	3	Marzo	2023-03-24T00:00:00	2024-11-08T12:00:00	4	Temperatura máxima	23.4
43987	7	Sololá	717	San Juan la Laguna	12	San Juan la Laguna	3	Marzo	2023-03-24T00:00:00	2024-11-08T12:00:00	3	Temperatura mínima	21.8
43988	7	Sololá	717	San Juan la Laguna	12	San Juan la Laguna	3	Marzo	2023-03-24T00:00:00	2024-11-08T12:00:00	5	Humedad	66
43989	7	Sololá	717	San Juan la Laguna	12	San Juan la Laguna	3	Marzo	2023-03-24T00:00:00	2024-11-08T12:00:00	6	Velocidad del viento	4.8
43990	7	Sololá	717	San Juan la Laguna	12	San Juan la Laguna	3	Marzo	2023-03-24T00:00:00	2024-11-08T12:00:00	7	Dirección del viento	4.83
43991	7	Sololá	717	San Juan la Laguna	12	San Juan la Laguna	3	Marzo	2023-03-24T00:00:00	2024-11-08T12:00:00	1	Precipitación	0
43992	7	Sololá	717	San Juan la Laguna	12	San Juan la Laguna	3	Marzo	2023-03-24T00:00:00	2024-11-08T12:00:00	8	Radiación solar	845
43993	7	Sololá	717	San Juan la Laguna	12	San Juan la Laguna	3	Marzo	2023-03-24T00:00:00	2024-11-08T13:00:00	2	Temperatura media	23.6
43994	7	Sololá	717	San Juan la Laguna	12	San Juan la Laguna	3	Marzo	2023-03-24T00:00:00	2024-11-08T13:00:00	4	Temperatura máxima	23.6
43995	7	Sololá	717	San Juan la Laguna	12	San Juan la Laguna	3	Marzo	2023-03-24T00:00:00	2024-11-08T13:00:00	3	Temperatura mínima	22.7
43996	7	Sololá	717	San Juan la Laguna	12	San Juan la Laguna	3	Marzo	2023-03-24T00:00:00	2024-11-08T13:00:00	5	Humedad	61
43997	7	Sololá	717	San Juan la Laguna	12	San Juan la Laguna	3	Marzo	2023-03-24T00:00:00	2024-11-08T13:00:00	6	Velocidad del viento	6.4
43998	7	Sololá	717	San Juan la Laguna	12	San Juan la Laguna	3	Marzo	2023-03-24T00:00:00	2024-11-08T13:00:00	7	Dirección del viento	6.44
43999	7	Sololá	717	San Juan la Laguna	12	San Juan la Laguna	3	Marzo	2023-03-24T00:00:00	2024-11-08T13:00:00	1	Precipitación	0
44000	7	Sololá	717	San Juan la Laguna	12	San Juan la Laguna	3	Marzo	2023-03-24T00:00:00	2024-11-08T13:00:00	8	Radiación solar	1020
44001	7	Sololá	717	San Juan la Laguna	12	San Juan la Laguna	3	Marzo	2023-03-24T00:00:00	2024-11-08T14:00:00	2	Temperatura media	23.2
44002	7	Sololá	717	San Juan la Laguna	12	San Juan la Laguna	3	Marzo	2023-03-24T00:00:00	2024-11-08T14:00:00	4	Temperatura máxima	23.8
44003	7	Sololá	717	San Juan la Laguna	12	San Juan la Laguna	3	Marzo	2023-03-24T00:00:00	2024-11-08T14:00:00	3	Temperatura mínima	22.9
44004	7	Sololá	717	San Juan la Laguna	12	San Juan la Laguna	3	Marzo	2023-03-24T00:00:00	2024-11-08T14:00:00	5	Humedad	63
44005	7	Sololá	717	San Juan la Laguna	12	San Juan la Laguna	3	Marzo	2023-03-24T00:00:00	2024-11-08T14:00:00	6	Velocidad del viento	6.4
44006	7	Sololá	717	San Juan la Laguna	12	San Juan la Laguna	3	Marzo	2023-03-24T00:00:00	2024-11-08T14:00:00	7	Dirección del viento	6.44
44007	7	Sololá	717	San Juan la Laguna	12	San Juan la Laguna	3	Marzo	2023-03-24T00:00:00	2024-11-08T14:00:00	1	Precipitación	0
44008	7	Sololá	717	San Juan la Laguna	12	San Juan la Laguna	3	Marzo	2023-03-24T00:00:00	2024-11-08T14:00:00	8	Radiación solar	960
44009	7	Sololá	717	San Juan la Laguna	12	San Juan la Laguna	3	Marzo	2023-03-24T00:00:00	2024-11-08T15:00:00	2	Temperatura media	22.8
44010	7	Sololá	717	San Juan la Laguna	12	San Juan la Laguna	3	Marzo	2023-03-24T00:00:00	2024-11-08T15:00:00	4	Temperatura máxima	24.2
44011	7	Sololá	717	San Juan la Laguna	12	San Juan la Laguna	3	Marzo	2023-03-24T00:00:00	2024-11-08T15:00:00	3	Temperatura mínima	22.6
44012	7	Sololá	717	San Juan la Laguna	12	San Juan la Laguna	3	Marzo	2023-03-24T00:00:00	2024-11-08T15:00:00	5	Humedad	68
44013	7	Sololá	717	San Juan la Laguna	12	San Juan la Laguna	3	Marzo	2023-03-24T00:00:00	2024-11-08T15:00:00	6	Velocidad del viento	6.4
44014	7	Sololá	717	San Juan la Laguna	12	San Juan la Laguna	3	Marzo	2023-03-24T00:00:00	2024-11-08T15:00:00	7	Dirección del viento	6.44
44015	7	Sololá	717	San Juan la Laguna	12	San Juan la Laguna	3	Marzo	2023-03-24T00:00:00	2024-11-08T15:00:00	1	Precipitación	0
44016	7	Sololá	717	San Juan la Laguna	12	San Juan la Laguna	3	Marzo	2023-03-24T00:00:00	2024-11-08T15:00:00	8	Radiación solar	807
44017	7	Sololá	717	San Juan la Laguna	12	San Juan la Laguna	3	Marzo	2023-03-24T00:00:00	2024-11-08T16:00:00	2	Temperatura media	23.1
44018	7	Sololá	717	San Juan la Laguna	12	San Juan la Laguna	3	Marzo	2023-03-24T00:00:00	2024-11-08T16:00:00	4	Temperatura máxima	23.7
44019	7	Sololá	717	San Juan la Laguna	12	San Juan la Laguna	3	Marzo	2023-03-24T00:00:00	2024-11-08T16:00:00	3	Temperatura mínima	22.3
44020	7	Sololá	717	San Juan la Laguna	12	San Juan la Laguna	3	Marzo	2023-03-24T00:00:00	2024-11-08T16:00:00	5	Humedad	64
44021	7	Sololá	717	San Juan la Laguna	12	San Juan la Laguna	3	Marzo	2023-03-24T00:00:00	2024-11-08T16:00:00	6	Velocidad del viento	3.2
44022	7	Sololá	717	San Juan la Laguna	12	San Juan la Laguna	3	Marzo	2023-03-24T00:00:00	2024-11-08T16:00:00	7	Dirección del viento	3.22
44023	7	Sololá	717	San Juan la Laguna	12	San Juan la Laguna	3	Marzo	2023-03-24T00:00:00	2024-11-08T16:00:00	1	Precipitación	0
44024	7	Sololá	717	San Juan la Laguna	12	San Juan la Laguna	3	Marzo	2023-03-24T00:00:00	2024-11-08T16:00:00	8	Radiación solar	522
44025	7	Sololá	717	San Juan la Laguna	12	San Juan la Laguna	3	Marzo	2023-03-24T00:00:00	2024-11-08T17:00:00	2	Temperatura media	20.3
44026	7	Sololá	717	San Juan la Laguna	12	San Juan la Laguna	3	Marzo	2023-03-24T00:00:00	2024-11-08T17:00:00	4	Temperatura máxima	23
44027	7	Sololá	717	San Juan la Laguna	12	San Juan la Laguna	3	Marzo	2023-03-24T00:00:00	2024-11-08T17:00:00	3	Temperatura mínima	20.3
44028	7	Sololá	717	San Juan la Laguna	12	San Juan la Laguna	3	Marzo	2023-03-24T00:00:00	2024-11-08T17:00:00	5	Humedad	78
44029	7	Sololá	717	San Juan la Laguna	12	San Juan la Laguna	3	Marzo	2023-03-24T00:00:00	2024-11-08T17:00:00	6	Velocidad del viento	3.2
44030	7	Sololá	717	San Juan la Laguna	12	San Juan la Laguna	3	Marzo	2023-03-24T00:00:00	2024-11-08T17:00:00	7	Dirección del viento	3.22
44031	7	Sololá	717	San Juan la Laguna	12	San Juan la Laguna	3	Marzo	2023-03-24T00:00:00	2024-11-08T17:00:00	1	Precipitación	0
44032	7	Sololá	717	San Juan la Laguna	12	San Juan la Laguna	3	Marzo	2023-03-24T00:00:00	2024-11-08T17:00:00	8	Radiación solar	94
44033	7	Sololá	717	San Juan la Laguna	12	San Juan la Laguna	3	Marzo	2023-03-24T00:00:00	2024-11-08T18:00:00	2	Temperatura media	19.6
44034	7	Sololá	717	San Juan la Laguna	12	San Juan la Laguna	3	Marzo	2023-03-24T00:00:00	2024-11-08T18:00:00	4	Temperatura máxima	20.3
44035	7	Sololá	717	San Juan la Laguna	12	San Juan la Laguna	3	Marzo	2023-03-24T00:00:00	2024-11-08T18:00:00	3	Temperatura mínima	19.3
44036	7	Sololá	717	San Juan la Laguna	12	San Juan la Laguna	3	Marzo	2023-03-24T00:00:00	2024-11-08T18:00:00	5	Humedad	81
44037	7	Sololá	717	San Juan la Laguna	12	San Juan la Laguna	3	Marzo	2023-03-24T00:00:00	2024-11-08T18:00:00	6	Velocidad del viento	3.2
44038	7	Sololá	717	San Juan la Laguna	12	San Juan la Laguna	3	Marzo	2023-03-24T00:00:00	2024-11-08T18:00:00	7	Dirección del viento	3.22
44039	7	Sololá	717	San Juan la Laguna	12	San Juan la Laguna	3	Marzo	2023-03-24T00:00:00	2024-11-08T18:00:00	1	Precipitación	0
44040	7	Sololá	717	San Juan la Laguna	12	San Juan la Laguna	3	Marzo	2023-03-24T00:00:00	2024-11-08T18:00:00	8	Radiación solar	37
44041	7	Sololá	717	San Juan la Laguna	12	San Juan la Laguna	3	Marzo	2023-03-24T00:00:00	2024-11-08T19:00:00	2	Temperatura media	19.4
44042	7	Sololá	717	San Juan la Laguna	12	San Juan la Laguna	3	Marzo	2023-03-24T00:00:00	2024-11-08T19:00:00	4	Temperatura máxima	19.6
44043	7	Sololá	717	San Juan la Laguna	12	San Juan la Laguna	3	Marzo	2023-03-24T00:00:00	2024-11-08T19:00:00	3	Temperatura mínima	19.2
44044	7	Sololá	717	San Juan la Laguna	12	San Juan la Laguna	3	Marzo	2023-03-24T00:00:00	2024-11-08T19:00:00	5	Humedad	82
44045	7	Sololá	717	San Juan la Laguna	12	San Juan la Laguna	3	Marzo	2023-03-24T00:00:00	2024-11-08T19:00:00	6	Velocidad del viento	3.2
44046	7	Sololá	717	San Juan la Laguna	12	San Juan la Laguna	3	Marzo	2023-03-24T00:00:00	2024-11-08T19:00:00	7	Dirección del viento	3.22
44047	7	Sololá	717	San Juan la Laguna	12	San Juan la Laguna	3	Marzo	2023-03-24T00:00:00	2024-11-08T19:00:00	1	Precipitación	0
44048	7	Sololá	717	San Juan la Laguna	12	San Juan la Laguna	3	Marzo	2023-03-24T00:00:00	2024-11-08T19:00:00	8	Radiación solar	0
44049	7	Sololá	717	San Juan la Laguna	12	San Juan la Laguna	3	Marzo	2023-03-24T00:00:00	2024-11-08T20:00:00	2	Temperatura media	19.1
44050	7	Sololá	717	San Juan la Laguna	12	San Juan la Laguna	3	Marzo	2023-03-24T00:00:00	2024-11-08T20:00:00	4	Temperatura máxima	19.5
44051	7	Sololá	717	San Juan la Laguna	12	San Juan la Laguna	3	Marzo	2023-03-24T00:00:00	2024-11-08T20:00:00	3	Temperatura mínima	19.1
44052	7	Sololá	717	San Juan la Laguna	12	San Juan la Laguna	3	Marzo	2023-03-24T00:00:00	2024-11-08T20:00:00	5	Humedad	85
44053	7	Sololá	717	San Juan la Laguna	12	San Juan la Laguna	3	Marzo	2023-03-24T00:00:00	2024-11-08T20:00:00	6	Velocidad del viento	0
44054	7	Sololá	717	San Juan la Laguna	12	San Juan la Laguna	3	Marzo	2023-03-24T00:00:00	2024-11-08T20:00:00	7	Dirección del viento	0
44055	7	Sololá	717	San Juan la Laguna	12	San Juan la Laguna	3	Marzo	2023-03-24T00:00:00	2024-11-08T20:00:00	1	Precipitación	0
44056	7	Sololá	717	San Juan la Laguna	12	San Juan la Laguna	3	Marzo	2023-03-24T00:00:00	2024-11-08T20:00:00	8	Radiación solar	0
44057	7	Sololá	717	San Juan la Laguna	12	San Juan la Laguna	3	Marzo	2023-03-24T00:00:00	2024-11-08T21:00:00	2	Temperatura media	18.9
44058	7	Sololá	717	San Juan la Laguna	12	San Juan la Laguna	3	Marzo	2023-03-24T00:00:00	2024-11-08T21:00:00	4	Temperatura máxima	19.1
44059	7	Sololá	717	San Juan la Laguna	12	San Juan la Laguna	3	Marzo	2023-03-24T00:00:00	2024-11-08T21:00:00	3	Temperatura mínima	18.8
44060	7	Sololá	717	San Juan la Laguna	12	San Juan la Laguna	3	Marzo	2023-03-24T00:00:00	2024-11-08T21:00:00	5	Humedad	86
44061	7	Sololá	717	San Juan la Laguna	12	San Juan la Laguna	3	Marzo	2023-03-24T00:00:00	2024-11-08T21:00:00	6	Velocidad del viento	1.6
44062	7	Sololá	717	San Juan la Laguna	12	San Juan la Laguna	3	Marzo	2023-03-24T00:00:00	2024-11-08T21:00:00	7	Dirección del viento	1.61
44063	7	Sololá	717	San Juan la Laguna	12	San Juan la Laguna	3	Marzo	2023-03-24T00:00:00	2024-11-08T21:00:00	1	Precipitación	0
44064	7	Sololá	717	San Juan la Laguna	12	San Juan la Laguna	3	Marzo	2023-03-24T00:00:00	2024-11-08T21:00:00	8	Radiación solar	0
44065	7	Sololá	717	San Juan la Laguna	12	San Juan la Laguna	3	Marzo	2023-03-24T00:00:00	2024-11-08T22:00:00	2	Temperatura media	18.9
44066	7	Sololá	717	San Juan la Laguna	12	San Juan la Laguna	3	Marzo	2023-03-24T00:00:00	2024-11-08T22:00:00	4	Temperatura máxima	18.9
44067	7	Sololá	717	San Juan la Laguna	12	San Juan la Laguna	3	Marzo	2023-03-24T00:00:00	2024-11-08T22:00:00	3	Temperatura mínima	18.8
44068	7	Sololá	717	San Juan la Laguna	12	San Juan la Laguna	3	Marzo	2023-03-24T00:00:00	2024-11-08T22:00:00	5	Humedad	85
44069	7	Sololá	717	San Juan la Laguna	12	San Juan la Laguna	3	Marzo	2023-03-24T00:00:00	2024-11-08T22:00:00	6	Velocidad del viento	1.6
44070	7	Sololá	717	San Juan la Laguna	12	San Juan la Laguna	3	Marzo	2023-03-24T00:00:00	2024-11-08T22:00:00	7	Dirección del viento	1.61
44071	7	Sololá	717	San Juan la Laguna	12	San Juan la Laguna	3	Marzo	2023-03-24T00:00:00	2024-11-08T22:00:00	1	Precipitación	0
44072	7	Sololá	717	San Juan la Laguna	12	San Juan la Laguna	3	Marzo	2023-03-24T00:00:00	2024-11-08T22:00:00	8	Radiación solar	0
44073	7	Sololá	717	San Juan la Laguna	12	San Juan la Laguna	3	Marzo	2023-03-24T00:00:00	2024-11-08T23:00:00	2	Temperatura media	18.8
44074	7	Sololá	717	San Juan la Laguna	12	San Juan la Laguna	3	Marzo	2023-03-24T00:00:00	2024-11-08T23:00:00	4	Temperatura máxima	18.9
44075	7	Sololá	717	San Juan la Laguna	12	San Juan la Laguna	3	Marzo	2023-03-24T00:00:00	2024-11-08T23:00:00	3	Temperatura mínima	18.8
44076	7	Sololá	717	San Juan la Laguna	12	San Juan la Laguna	3	Marzo	2023-03-24T00:00:00	2024-11-08T23:00:00	5	Humedad	86
44077	7	Sololá	717	San Juan la Laguna	12	San Juan la Laguna	3	Marzo	2023-03-24T00:00:00	2024-11-08T23:00:00	6	Velocidad del viento	0
44078	7	Sololá	717	San Juan la Laguna	12	San Juan la Laguna	3	Marzo	2023-03-24T00:00:00	2024-11-08T23:00:00	7	Dirección del viento	0
44079	7	Sololá	717	San Juan la Laguna	12	San Juan la Laguna	3	Marzo	2023-03-24T00:00:00	2024-11-08T23:00:00	1	Precipitación	0
44080	7	Sololá	717	San Juan la Laguna	12	San Juan la Laguna	3	Marzo	2023-03-24T00:00:00	2024-11-08T23:00:00	8	Radiación solar	0
44081	7	Sololá	717	San Juan la Laguna	12	San Juan la Laguna	3	Marzo	2023-03-25T00:00:00	2024-11-08T00:00:00	2	Temperatura media	18.3
44082	7	Sololá	717	San Juan la Laguna	12	San Juan la Laguna	3	Marzo	2023-03-25T00:00:00	2024-11-08T00:00:00	4	Temperatura máxima	18.9
44083	7	Sololá	717	San Juan la Laguna	12	San Juan la Laguna	3	Marzo	2023-03-25T00:00:00	2024-11-08T00:00:00	3	Temperatura mínima	18.3
44084	7	Sololá	717	San Juan la Laguna	12	San Juan la Laguna	3	Marzo	2023-03-25T00:00:00	2024-11-08T00:00:00	5	Humedad	78
44085	7	Sololá	717	San Juan la Laguna	12	San Juan la Laguna	3	Marzo	2023-03-25T00:00:00	2024-11-08T00:00:00	6	Velocidad del viento	0
44086	7	Sololá	717	San Juan la Laguna	12	San Juan la Laguna	3	Marzo	2023-03-25T00:00:00	2024-11-08T00:00:00	7	Dirección del viento	0
44087	7	Sololá	717	San Juan la Laguna	12	San Juan la Laguna	3	Marzo	2023-03-25T00:00:00	2024-11-08T00:00:00	1	Precipitación	0
44088	7	Sololá	717	San Juan la Laguna	12	San Juan la Laguna	3	Marzo	2023-03-25T00:00:00	2024-11-08T00:00:00	8	Radiación solar	0
44089	7	Sololá	717	San Juan la Laguna	12	San Juan la Laguna	3	Marzo	2023-03-25T00:00:00	2024-11-08T01:00:00	2	Temperatura media	18.2
44090	7	Sololá	717	San Juan la Laguna	12	San Juan la Laguna	3	Marzo	2023-03-25T00:00:00	2024-11-08T01:00:00	4	Temperatura máxima	18.4
44091	7	Sololá	717	San Juan la Laguna	12	San Juan la Laguna	3	Marzo	2023-03-25T00:00:00	2024-11-08T01:00:00	3	Temperatura mínima	17.9
44092	7	Sololá	717	San Juan la Laguna	12	San Juan la Laguna	3	Marzo	2023-03-25T00:00:00	2024-11-08T01:00:00	5	Humedad	78
44093	7	Sololá	717	San Juan la Laguna	12	San Juan la Laguna	3	Marzo	2023-03-25T00:00:00	2024-11-08T01:00:00	6	Velocidad del viento	1.6
44094	7	Sololá	717	San Juan la Laguna	12	San Juan la Laguna	3	Marzo	2023-03-25T00:00:00	2024-11-08T01:00:00	7	Dirección del viento	1.61
44095	7	Sololá	717	San Juan la Laguna	12	San Juan la Laguna	3	Marzo	2023-03-25T00:00:00	2024-11-08T01:00:00	1	Precipitación	0
44096	7	Sololá	717	San Juan la Laguna	12	San Juan la Laguna	3	Marzo	2023-03-25T00:00:00	2024-11-08T01:00:00	8	Radiación solar	0
44097	7	Sololá	717	San Juan la Laguna	12	San Juan la Laguna	3	Marzo	2023-03-25T00:00:00	2024-11-08T02:00:00	2	Temperatura media	17.8
44098	7	Sololá	717	San Juan la Laguna	12	San Juan la Laguna	3	Marzo	2023-03-25T00:00:00	2024-11-08T02:00:00	4	Temperatura máxima	18.3
44099	7	Sololá	717	San Juan la Laguna	12	San Juan la Laguna	3	Marzo	2023-03-25T00:00:00	2024-11-08T02:00:00	3	Temperatura mínima	17.7
44100	7	Sololá	717	San Juan la Laguna	12	San Juan la Laguna	3	Marzo	2023-03-25T00:00:00	2024-11-08T02:00:00	5	Humedad	81
44101	7	Sololá	717	San Juan la Laguna	12	San Juan la Laguna	3	Marzo	2023-03-25T00:00:00	2024-11-08T02:00:00	6	Velocidad del viento	3.2
44102	7	Sololá	717	San Juan la Laguna	12	San Juan la Laguna	3	Marzo	2023-03-25T00:00:00	2024-11-08T02:00:00	7	Dirección del viento	3.22
44103	7	Sololá	717	San Juan la Laguna	12	San Juan la Laguna	3	Marzo	2023-03-25T00:00:00	2024-11-08T02:00:00	1	Precipitación	0
44104	7	Sololá	717	San Juan la Laguna	12	San Juan la Laguna	3	Marzo	2023-03-25T00:00:00	2024-11-08T02:00:00	8	Radiación solar	0
44105	7	Sololá	717	San Juan la Laguna	12	San Juan la Laguna	3	Marzo	2023-03-25T00:00:00	2024-11-08T03:00:00	2	Temperatura media	17.5
44106	7	Sololá	717	San Juan la Laguna	12	San Juan la Laguna	3	Marzo	2023-03-25T00:00:00	2024-11-08T03:00:00	4	Temperatura máxima	17.9
44107	7	Sololá	717	San Juan la Laguna	12	San Juan la Laguna	3	Marzo	2023-03-25T00:00:00	2024-11-08T03:00:00	3	Temperatura mínima	17.5
44108	7	Sololá	717	San Juan la Laguna	12	San Juan la Laguna	3	Marzo	2023-03-25T00:00:00	2024-11-08T03:00:00	5	Humedad	79
44109	7	Sololá	717	San Juan la Laguna	12	San Juan la Laguna	3	Marzo	2023-03-25T00:00:00	2024-11-08T03:00:00	6	Velocidad del viento	0
44110	7	Sololá	717	San Juan la Laguna	12	San Juan la Laguna	3	Marzo	2023-03-25T00:00:00	2024-11-08T03:00:00	7	Dirección del viento	0
44111	7	Sololá	717	San Juan la Laguna	12	San Juan la Laguna	3	Marzo	2023-03-25T00:00:00	2024-11-08T03:00:00	1	Precipitación	0
44112	7	Sololá	717	San Juan la Laguna	12	San Juan la Laguna	3	Marzo	2023-03-25T00:00:00	2024-11-08T03:00:00	8	Radiación solar	0
44113	7	Sololá	717	San Juan la Laguna	12	San Juan la Laguna	3	Marzo	2023-03-25T00:00:00	2024-11-08T04:00:00	2	Temperatura media	17.2
44114	7	Sololá	717	San Juan la Laguna	12	San Juan la Laguna	3	Marzo	2023-03-25T00:00:00	2024-11-08T04:00:00	4	Temperatura máxima	17.6
44115	7	Sololá	717	San Juan la Laguna	12	San Juan la Laguna	3	Marzo	2023-03-25T00:00:00	2024-11-08T04:00:00	3	Temperatura mínima	17.1
44116	7	Sololá	717	San Juan la Laguna	12	San Juan la Laguna	3	Marzo	2023-03-25T00:00:00	2024-11-08T04:00:00	5	Humedad	76
44117	7	Sololá	717	San Juan la Laguna	12	San Juan la Laguna	3	Marzo	2023-03-25T00:00:00	2024-11-08T04:00:00	6	Velocidad del viento	0
44118	7	Sololá	717	San Juan la Laguna	12	San Juan la Laguna	3	Marzo	2023-03-25T00:00:00	2024-11-08T04:00:00	7	Dirección del viento	0
44119	7	Sololá	717	San Juan la Laguna	12	San Juan la Laguna	3	Marzo	2023-03-25T00:00:00	2024-11-08T04:00:00	1	Precipitación	0
44120	7	Sololá	717	San Juan la Laguna	12	San Juan la Laguna	3	Marzo	2023-03-25T00:00:00	2024-11-08T04:00:00	8	Radiación solar	0
44121	7	Sololá	717	San Juan la Laguna	12	San Juan la Laguna	3	Marzo	2023-03-25T00:00:00	2024-11-08T05:00:00	2	Temperatura media	17.4
44122	7	Sololá	717	San Juan la Laguna	12	San Juan la Laguna	3	Marzo	2023-03-25T00:00:00	2024-11-08T05:00:00	4	Temperatura máxima	17.6
44123	7	Sololá	717	San Juan la Laguna	12	San Juan la Laguna	3	Marzo	2023-03-25T00:00:00	2024-11-08T05:00:00	3	Temperatura mínima	17.2
44124	7	Sololá	717	San Juan la Laguna	12	San Juan la Laguna	3	Marzo	2023-03-25T00:00:00	2024-11-08T05:00:00	5	Humedad	82
44125	7	Sololá	717	San Juan la Laguna	12	San Juan la Laguna	3	Marzo	2023-03-25T00:00:00	2024-11-08T05:00:00	6	Velocidad del viento	1.6
44126	7	Sololá	717	San Juan la Laguna	12	San Juan la Laguna	3	Marzo	2023-03-25T00:00:00	2024-11-08T05:00:00	7	Dirección del viento	1.61
44127	7	Sololá	717	San Juan la Laguna	12	San Juan la Laguna	3	Marzo	2023-03-25T00:00:00	2024-11-08T05:00:00	1	Precipitación	0
44128	7	Sololá	717	San Juan la Laguna	12	San Juan la Laguna	3	Marzo	2023-03-25T00:00:00	2024-11-08T05:00:00	8	Radiación solar	0
44129	7	Sololá	717	San Juan la Laguna	12	San Juan la Laguna	3	Marzo	2023-03-25T00:00:00	2024-11-08T06:00:00	2	Temperatura media	17.5
44130	7	Sololá	717	San Juan la Laguna	12	San Juan la Laguna	3	Marzo	2023-03-25T00:00:00	2024-11-08T06:00:00	4	Temperatura máxima	17.5
44131	7	Sololá	717	San Juan la Laguna	12	San Juan la Laguna	3	Marzo	2023-03-25T00:00:00	2024-11-08T06:00:00	3	Temperatura mínima	17.3
44132	7	Sololá	717	San Juan la Laguna	12	San Juan la Laguna	3	Marzo	2023-03-25T00:00:00	2024-11-08T06:00:00	5	Humedad	81
44133	7	Sololá	717	San Juan la Laguna	12	San Juan la Laguna	3	Marzo	2023-03-25T00:00:00	2024-11-08T06:00:00	6	Velocidad del viento	0
44134	7	Sololá	717	San Juan la Laguna	12	San Juan la Laguna	3	Marzo	2023-03-25T00:00:00	2024-11-08T06:00:00	7	Dirección del viento	0
44135	7	Sololá	717	San Juan la Laguna	12	San Juan la Laguna	3	Marzo	2023-03-25T00:00:00	2024-11-08T06:00:00	1	Precipitación	0
44136	7	Sololá	717	San Juan la Laguna	12	San Juan la Laguna	3	Marzo	2023-03-25T00:00:00	2024-11-08T06:00:00	8	Radiación solar	0
44137	7	Sololá	717	San Juan la Laguna	12	San Juan la Laguna	3	Marzo	2023-03-25T00:00:00	2024-11-08T07:00:00	2	Temperatura media	17.6
44138	7	Sololá	717	San Juan la Laguna	12	San Juan la Laguna	3	Marzo	2023-03-25T00:00:00	2024-11-08T07:00:00	4	Temperatura máxima	17.6
44139	7	Sololá	717	San Juan la Laguna	12	San Juan la Laguna	3	Marzo	2023-03-25T00:00:00	2024-11-08T07:00:00	3	Temperatura mínima	17.3
44140	7	Sololá	717	San Juan la Laguna	12	San Juan la Laguna	3	Marzo	2023-03-25T00:00:00	2024-11-08T07:00:00	5	Humedad	82
44141	7	Sololá	717	San Juan la Laguna	12	San Juan la Laguna	3	Marzo	2023-03-25T00:00:00	2024-11-08T07:00:00	6	Velocidad del viento	0
44142	7	Sololá	717	San Juan la Laguna	12	San Juan la Laguna	3	Marzo	2023-03-25T00:00:00	2024-11-08T07:00:00	7	Dirección del viento	0
44143	7	Sololá	717	San Juan la Laguna	12	San Juan la Laguna	3	Marzo	2023-03-25T00:00:00	2024-11-08T07:00:00	1	Precipitación	0
44144	7	Sololá	717	San Juan la Laguna	12	San Juan la Laguna	3	Marzo	2023-03-25T00:00:00	2024-11-08T07:00:00	8	Radiación solar	15
44145	7	Sololá	717	San Juan la Laguna	12	San Juan la Laguna	3	Marzo	2023-03-25T00:00:00	2024-11-08T08:00:00	2	Temperatura media	19.4
44146	7	Sololá	717	San Juan la Laguna	12	San Juan la Laguna	3	Marzo	2023-03-25T00:00:00	2024-11-08T08:00:00	4	Temperatura máxima	19.4
44147	7	Sololá	717	San Juan la Laguna	12	San Juan la Laguna	3	Marzo	2023-03-25T00:00:00	2024-11-08T08:00:00	3	Temperatura mínima	17.6
44148	7	Sololá	717	San Juan la Laguna	12	San Juan la Laguna	3	Marzo	2023-03-25T00:00:00	2024-11-08T08:00:00	5	Humedad	76
44149	7	Sololá	717	San Juan la Laguna	12	San Juan la Laguna	3	Marzo	2023-03-25T00:00:00	2024-11-08T08:00:00	6	Velocidad del viento	0
44150	7	Sololá	717	San Juan la Laguna	12	San Juan la Laguna	3	Marzo	2023-03-25T00:00:00	2024-11-08T08:00:00	7	Dirección del viento	0
44151	7	Sololá	717	San Juan la Laguna	12	San Juan la Laguna	3	Marzo	2023-03-25T00:00:00	2024-11-08T08:00:00	1	Precipitación	0
44152	7	Sololá	717	San Juan la Laguna	12	San Juan la Laguna	3	Marzo	2023-03-25T00:00:00	2024-11-08T08:00:00	8	Radiación solar	175
44153	7	Sololá	717	San Juan la Laguna	12	San Juan la Laguna	3	Marzo	2023-03-25T00:00:00	2024-11-08T09:00:00	2	Temperatura media	19.2
44154	7	Sololá	717	San Juan la Laguna	12	San Juan la Laguna	3	Marzo	2023-03-25T00:00:00	2024-11-08T09:00:00	4	Temperatura máxima	20.1
44155	7	Sololá	717	San Juan la Laguna	12	San Juan la Laguna	3	Marzo	2023-03-25T00:00:00	2024-11-08T09:00:00	3	Temperatura mínima	19.1
44156	7	Sololá	717	San Juan la Laguna	12	San Juan la Laguna	3	Marzo	2023-03-25T00:00:00	2024-11-08T09:00:00	5	Humedad	74
44157	7	Sololá	717	San Juan la Laguna	12	San Juan la Laguna	3	Marzo	2023-03-25T00:00:00	2024-11-08T09:00:00	6	Velocidad del viento	0
44158	7	Sololá	717	San Juan la Laguna	12	San Juan la Laguna	3	Marzo	2023-03-25T00:00:00	2024-11-08T09:00:00	7	Dirección del viento	0
44159	7	Sololá	717	San Juan la Laguna	12	San Juan la Laguna	3	Marzo	2023-03-25T00:00:00	2024-11-08T09:00:00	1	Precipitación	0
44160	7	Sololá	717	San Juan la Laguna	12	San Juan la Laguna	3	Marzo	2023-03-25T00:00:00	2024-11-08T09:00:00	8	Radiación solar	194
44161	7	Sololá	717	San Juan la Laguna	12	San Juan la Laguna	3	Marzo	2023-03-25T00:00:00	2024-11-08T10:00:00	2	Temperatura media	21.7
44162	7	Sololá	717	San Juan la Laguna	12	San Juan la Laguna	3	Marzo	2023-03-25T00:00:00	2024-11-08T10:00:00	4	Temperatura máxima	21.7
44163	7	Sololá	717	San Juan la Laguna	12	San Juan la Laguna	3	Marzo	2023-03-25T00:00:00	2024-11-08T10:00:00	3	Temperatura mínima	19.2
44164	7	Sololá	717	San Juan la Laguna	12	San Juan la Laguna	3	Marzo	2023-03-25T00:00:00	2024-11-08T10:00:00	5	Humedad	67
44165	7	Sololá	717	San Juan la Laguna	12	San Juan la Laguna	3	Marzo	2023-03-25T00:00:00	2024-11-08T10:00:00	6	Velocidad del viento	1.6
44166	7	Sololá	717	San Juan la Laguna	12	San Juan la Laguna	3	Marzo	2023-03-25T00:00:00	2024-11-08T10:00:00	7	Dirección del viento	1.61
44167	7	Sololá	717	San Juan la Laguna	12	San Juan la Laguna	3	Marzo	2023-03-25T00:00:00	2024-11-08T10:00:00	1	Precipitación	0
44168	7	Sololá	717	San Juan la Laguna	12	San Juan la Laguna	3	Marzo	2023-03-25T00:00:00	2024-11-08T10:00:00	8	Radiación solar	486
44169	7	Sololá	717	San Juan la Laguna	12	San Juan la Laguna	3	Marzo	2023-03-25T00:00:00	2024-11-08T11:00:00	2	Temperatura media	21.9
44170	7	Sololá	717	San Juan la Laguna	12	San Juan la Laguna	3	Marzo	2023-03-25T00:00:00	2024-11-08T11:00:00	4	Temperatura máxima	22.2
44171	7	Sololá	717	San Juan la Laguna	12	San Juan la Laguna	3	Marzo	2023-03-25T00:00:00	2024-11-08T11:00:00	3	Temperatura mínima	21.4
44172	7	Sololá	717	San Juan la Laguna	12	San Juan la Laguna	3	Marzo	2023-03-25T00:00:00	2024-11-08T11:00:00	5	Humedad	65
44173	7	Sololá	717	San Juan la Laguna	12	San Juan la Laguna	3	Marzo	2023-03-25T00:00:00	2024-11-08T11:00:00	6	Velocidad del viento	1.6
44174	7	Sololá	717	San Juan la Laguna	12	San Juan la Laguna	3	Marzo	2023-03-25T00:00:00	2024-11-08T11:00:00	7	Dirección del viento	1.61
44175	7	Sololá	717	San Juan la Laguna	12	San Juan la Laguna	3	Marzo	2023-03-25T00:00:00	2024-11-08T11:00:00	1	Precipitación	0
44176	7	Sololá	717	San Juan la Laguna	12	San Juan la Laguna	3	Marzo	2023-03-25T00:00:00	2024-11-08T11:00:00	8	Radiación solar	961
44177	7	Sololá	717	San Juan la Laguna	12	San Juan la Laguna	3	Marzo	2023-03-25T00:00:00	2024-11-08T12:00:00	2	Temperatura media	21.8
44178	7	Sololá	717	San Juan la Laguna	12	San Juan la Laguna	3	Marzo	2023-03-25T00:00:00	2024-11-08T12:00:00	4	Temperatura máxima	22.9
44179	7	Sololá	717	San Juan la Laguna	12	San Juan la Laguna	3	Marzo	2023-03-25T00:00:00	2024-11-08T12:00:00	3	Temperatura mínima	21.3
44180	7	Sololá	717	San Juan la Laguna	12	San Juan la Laguna	3	Marzo	2023-03-25T00:00:00	2024-11-08T12:00:00	5	Humedad	65
44181	7	Sololá	717	San Juan la Laguna	12	San Juan la Laguna	3	Marzo	2023-03-25T00:00:00	2024-11-08T12:00:00	6	Velocidad del viento	1.6
44182	7	Sololá	717	San Juan la Laguna	12	San Juan la Laguna	3	Marzo	2023-03-25T00:00:00	2024-11-08T12:00:00	7	Dirección del viento	1.61
44183	7	Sololá	717	San Juan la Laguna	12	San Juan la Laguna	3	Marzo	2023-03-25T00:00:00	2024-11-08T12:00:00	1	Precipitación	0
44184	7	Sololá	717	San Juan la Laguna	12	San Juan la Laguna	3	Marzo	2023-03-25T00:00:00	2024-11-08T12:00:00	8	Radiación solar	821
44185	7	Sololá	717	San Juan la Laguna	12	San Juan la Laguna	3	Marzo	2023-03-25T00:00:00	2024-11-08T13:00:00	2	Temperatura media	21.7
44186	7	Sololá	717	San Juan la Laguna	12	San Juan la Laguna	3	Marzo	2023-03-25T00:00:00	2024-11-08T13:00:00	4	Temperatura máxima	22.3
44187	7	Sololá	717	San Juan la Laguna	12	San Juan la Laguna	3	Marzo	2023-03-25T00:00:00	2024-11-08T13:00:00	3	Temperatura mínima	21.7
44188	7	Sololá	717	San Juan la Laguna	12	San Juan la Laguna	3	Marzo	2023-03-25T00:00:00	2024-11-08T13:00:00	5	Humedad	67
44189	7	Sololá	717	San Juan la Laguna	12	San Juan la Laguna	3	Marzo	2023-03-25T00:00:00	2024-11-08T13:00:00	6	Velocidad del viento	1.6
44190	7	Sololá	717	San Juan la Laguna	12	San Juan la Laguna	3	Marzo	2023-03-25T00:00:00	2024-11-08T13:00:00	7	Dirección del viento	1.61
44191	7	Sololá	717	San Juan la Laguna	12	San Juan la Laguna	3	Marzo	2023-03-25T00:00:00	2024-11-08T13:00:00	1	Precipitación	0
44192	7	Sololá	717	San Juan la Laguna	12	San Juan la Laguna	3	Marzo	2023-03-25T00:00:00	2024-11-08T13:00:00	8	Radiación solar	330
44193	7	Sololá	717	San Juan la Laguna	12	San Juan la Laguna	3	Marzo	2023-03-25T00:00:00	2024-11-08T14:00:00	2	Temperatura media	21.9
44194	7	Sololá	717	San Juan la Laguna	12	San Juan la Laguna	3	Marzo	2023-03-25T00:00:00	2024-11-08T14:00:00	4	Temperatura máxima	21.9
44195	7	Sololá	717	San Juan la Laguna	12	San Juan la Laguna	3	Marzo	2023-03-25T00:00:00	2024-11-08T14:00:00	3	Temperatura mínima	21.4
44196	7	Sololá	717	San Juan la Laguna	12	San Juan la Laguna	3	Marzo	2023-03-25T00:00:00	2024-11-08T14:00:00	5	Humedad	69
44197	7	Sololá	717	San Juan la Laguna	12	San Juan la Laguna	3	Marzo	2023-03-25T00:00:00	2024-11-08T14:00:00	6	Velocidad del viento	6.4
44198	7	Sololá	717	San Juan la Laguna	12	San Juan la Laguna	3	Marzo	2023-03-25T00:00:00	2024-11-08T14:00:00	7	Dirección del viento	6.44
44199	7	Sololá	717	San Juan la Laguna	12	San Juan la Laguna	3	Marzo	2023-03-25T00:00:00	2024-11-08T14:00:00	1	Precipitación	0
44200	7	Sololá	717	San Juan la Laguna	12	San Juan la Laguna	3	Marzo	2023-03-25T00:00:00	2024-11-08T14:00:00	8	Radiación solar	453
44201	7	Sololá	717	San Juan la Laguna	12	San Juan la Laguna	3	Marzo	2023-03-25T00:00:00	2024-11-08T15:00:00	2	Temperatura media	20.6
44202	7	Sololá	717	San Juan la Laguna	12	San Juan la Laguna	3	Marzo	2023-03-25T00:00:00	2024-11-08T15:00:00	4	Temperatura máxima	22.1
44203	7	Sololá	717	San Juan la Laguna	12	San Juan la Laguna	3	Marzo	2023-03-25T00:00:00	2024-11-08T15:00:00	3	Temperatura mínima	20.3
44204	7	Sololá	717	San Juan la Laguna	12	San Juan la Laguna	3	Marzo	2023-03-25T00:00:00	2024-11-08T15:00:00	5	Humedad	73
44205	7	Sololá	717	San Juan la Laguna	12	San Juan la Laguna	3	Marzo	2023-03-25T00:00:00	2024-11-08T15:00:00	6	Velocidad del viento	6.4
44206	7	Sololá	717	San Juan la Laguna	12	San Juan la Laguna	3	Marzo	2023-03-25T00:00:00	2024-11-08T15:00:00	7	Dirección del viento	6.44
44207	7	Sololá	717	San Juan la Laguna	12	San Juan la Laguna	3	Marzo	2023-03-25T00:00:00	2024-11-08T15:00:00	1	Precipitación	0
44208	7	Sololá	717	San Juan la Laguna	12	San Juan la Laguna	3	Marzo	2023-03-25T00:00:00	2024-11-08T15:00:00	8	Radiación solar	400
44209	7	Sololá	717	San Juan la Laguna	12	San Juan la Laguna	3	Marzo	2023-03-25T00:00:00	2024-11-08T16:00:00	2	Temperatura media	20.3
44210	7	Sololá	717	San Juan la Laguna	12	San Juan la Laguna	3	Marzo	2023-03-25T00:00:00	2024-11-08T16:00:00	4	Temperatura máxima	20.7
44211	7	Sololá	717	San Juan la Laguna	12	San Juan la Laguna	3	Marzo	2023-03-25T00:00:00	2024-11-08T16:00:00	3	Temperatura mínima	19.8
44212	7	Sololá	717	San Juan la Laguna	12	San Juan la Laguna	3	Marzo	2023-03-25T00:00:00	2024-11-08T16:00:00	5	Humedad	73
44213	7	Sololá	717	San Juan la Laguna	12	San Juan la Laguna	3	Marzo	2023-03-25T00:00:00	2024-11-08T16:00:00	6	Velocidad del viento	6.4
44214	7	Sololá	717	San Juan la Laguna	12	San Juan la Laguna	3	Marzo	2023-03-25T00:00:00	2024-11-08T16:00:00	7	Dirección del viento	6.44
44215	7	Sololá	717	San Juan la Laguna	12	San Juan la Laguna	3	Marzo	2023-03-25T00:00:00	2024-11-08T16:00:00	1	Precipitación	0
44216	7	Sololá	717	San Juan la Laguna	12	San Juan la Laguna	3	Marzo	2023-03-25T00:00:00	2024-11-08T16:00:00	8	Radiación solar	238
44217	7	Sololá	717	San Juan la Laguna	12	San Juan la Laguna	3	Marzo	2023-03-25T00:00:00	2024-11-08T17:00:00	2	Temperatura media	20.4
44218	7	Sololá	717	San Juan la Laguna	12	San Juan la Laguna	3	Marzo	2023-03-25T00:00:00	2024-11-08T17:00:00	4	Temperatura máxima	20.5
44219	7	Sololá	717	San Juan la Laguna	12	San Juan la Laguna	3	Marzo	2023-03-25T00:00:00	2024-11-08T17:00:00	3	Temperatura mínima	20.1
44220	7	Sololá	717	San Juan la Laguna	12	San Juan la Laguna	3	Marzo	2023-03-25T00:00:00	2024-11-08T17:00:00	5	Humedad	73
44221	7	Sololá	717	San Juan la Laguna	12	San Juan la Laguna	3	Marzo	2023-03-25T00:00:00	2024-11-08T17:00:00	6	Velocidad del viento	4.8
44222	7	Sololá	717	San Juan la Laguna	12	San Juan la Laguna	3	Marzo	2023-03-25T00:00:00	2024-11-08T17:00:00	7	Dirección del viento	4.83
44223	7	Sololá	717	San Juan la Laguna	12	San Juan la Laguna	3	Marzo	2023-03-25T00:00:00	2024-11-08T17:00:00	1	Precipitación	0
44224	7	Sololá	717	San Juan la Laguna	12	San Juan la Laguna	3	Marzo	2023-03-25T00:00:00	2024-11-08T17:00:00	8	Radiación solar	188
44225	7	Sololá	717	San Juan la Laguna	12	San Juan la Laguna	3	Marzo	2023-03-25T00:00:00	2024-11-08T18:00:00	2	Temperatura media	19.9
44226	7	Sololá	717	San Juan la Laguna	12	San Juan la Laguna	3	Marzo	2023-03-25T00:00:00	2024-11-08T18:00:00	4	Temperatura máxima	20.8
44227	7	Sololá	717	San Juan la Laguna	12	San Juan la Laguna	3	Marzo	2023-03-25T00:00:00	2024-11-08T18:00:00	3	Temperatura mínima	19.9
44228	7	Sololá	717	San Juan la Laguna	12	San Juan la Laguna	3	Marzo	2023-03-25T00:00:00	2024-11-08T18:00:00	5	Humedad	76
44229	7	Sololá	717	San Juan la Laguna	12	San Juan la Laguna	3	Marzo	2023-03-25T00:00:00	2024-11-08T18:00:00	6	Velocidad del viento	0
44230	7	Sololá	717	San Juan la Laguna	12	San Juan la Laguna	3	Marzo	2023-03-25T00:00:00	2024-11-08T18:00:00	7	Dirección del viento	0
44231	7	Sololá	717	San Juan la Laguna	12	San Juan la Laguna	3	Marzo	2023-03-25T00:00:00	2024-11-08T18:00:00	1	Precipitación	0
44232	7	Sololá	717	San Juan la Laguna	12	San Juan la Laguna	3	Marzo	2023-03-25T00:00:00	2024-11-08T18:00:00	8	Radiación solar	74
44233	7	Sololá	717	San Juan la Laguna	12	San Juan la Laguna	3	Marzo	2023-03-25T00:00:00	2024-11-08T19:00:00	2	Temperatura media	17.9
44234	7	Sololá	717	San Juan la Laguna	12	San Juan la Laguna	3	Marzo	2023-03-25T00:00:00	2024-11-08T19:00:00	4	Temperatura máxima	19.9
44235	7	Sololá	717	San Juan la Laguna	12	San Juan la Laguna	3	Marzo	2023-03-25T00:00:00	2024-11-08T19:00:00	3	Temperatura mínima	17.9
44236	7	Sololá	717	San Juan la Laguna	12	San Juan la Laguna	3	Marzo	2023-03-25T00:00:00	2024-11-08T19:00:00	5	Humedad	83
44237	7	Sololá	717	San Juan la Laguna	12	San Juan la Laguna	3	Marzo	2023-03-25T00:00:00	2024-11-08T19:00:00	6	Velocidad del viento	0
44238	7	Sololá	717	San Juan la Laguna	12	San Juan la Laguna	3	Marzo	2023-03-25T00:00:00	2024-11-08T19:00:00	7	Dirección del viento	0
44239	7	Sololá	717	San Juan la Laguna	12	San Juan la Laguna	3	Marzo	2023-03-25T00:00:00	2024-11-08T19:00:00	1	Precipitación	0
44240	7	Sololá	717	San Juan la Laguna	12	San Juan la Laguna	3	Marzo	2023-03-25T00:00:00	2024-11-08T19:00:00	8	Radiación solar	0
44241	7	Sololá	717	San Juan la Laguna	12	San Juan la Laguna	3	Marzo	2023-03-25T00:00:00	2024-11-08T20:00:00	2	Temperatura media	17.2
44242	7	Sololá	717	San Juan la Laguna	12	San Juan la Laguna	3	Marzo	2023-03-25T00:00:00	2024-11-08T20:00:00	4	Temperatura máxima	17.9
44243	7	Sololá	717	San Juan la Laguna	12	San Juan la Laguna	3	Marzo	2023-03-25T00:00:00	2024-11-08T20:00:00	3	Temperatura mínima	17.2
44244	7	Sololá	717	San Juan la Laguna	12	San Juan la Laguna	3	Marzo	2023-03-25T00:00:00	2024-11-08T20:00:00	5	Humedad	84
44245	7	Sololá	717	San Juan la Laguna	12	San Juan la Laguna	3	Marzo	2023-03-25T00:00:00	2024-11-08T20:00:00	6	Velocidad del viento	1.6
44246	7	Sololá	717	San Juan la Laguna	12	San Juan la Laguna	3	Marzo	2023-03-25T00:00:00	2024-11-08T20:00:00	7	Dirección del viento	1.61
44247	7	Sololá	717	San Juan la Laguna	12	San Juan la Laguna	3	Marzo	2023-03-25T00:00:00	2024-11-08T20:00:00	1	Precipitación	0
44248	7	Sololá	717	San Juan la Laguna	12	San Juan la Laguna	3	Marzo	2023-03-25T00:00:00	2024-11-08T20:00:00	8	Radiación solar	0
44249	7	Sololá	717	San Juan la Laguna	12	San Juan la Laguna	3	Marzo	2023-03-25T00:00:00	2024-11-08T21:00:00	2	Temperatura media	16.7
44250	7	Sololá	717	San Juan la Laguna	12	San Juan la Laguna	3	Marzo	2023-03-25T00:00:00	2024-11-08T21:00:00	4	Temperatura máxima	17.2
44251	7	Sololá	717	San Juan la Laguna	12	San Juan la Laguna	3	Marzo	2023-03-25T00:00:00	2024-11-08T21:00:00	3	Temperatura mínima	16.7
44252	7	Sololá	717	San Juan la Laguna	12	San Juan la Laguna	3	Marzo	2023-03-25T00:00:00	2024-11-08T21:00:00	5	Humedad	85
44253	7	Sololá	717	San Juan la Laguna	12	San Juan la Laguna	3	Marzo	2023-03-25T00:00:00	2024-11-08T21:00:00	6	Velocidad del viento	3.2
44254	7	Sololá	717	San Juan la Laguna	12	San Juan la Laguna	3	Marzo	2023-03-25T00:00:00	2024-11-08T21:00:00	7	Dirección del viento	3.22
44255	7	Sololá	717	San Juan la Laguna	12	San Juan la Laguna	3	Marzo	2023-03-25T00:00:00	2024-11-08T21:00:00	1	Precipitación	0
44256	7	Sololá	717	San Juan la Laguna	12	San Juan la Laguna	3	Marzo	2023-03-25T00:00:00	2024-11-08T21:00:00	8	Radiación solar	0
44257	7	Sololá	717	San Juan la Laguna	12	San Juan la Laguna	3	Marzo	2023-03-25T00:00:00	2024-11-08T22:00:00	2	Temperatura media	16.4
44258	7	Sololá	717	San Juan la Laguna	12	San Juan la Laguna	3	Marzo	2023-03-25T00:00:00	2024-11-08T22:00:00	4	Temperatura máxima	16.7
44259	7	Sololá	717	San Juan la Laguna	12	San Juan la Laguna	3	Marzo	2023-03-25T00:00:00	2024-11-08T22:00:00	3	Temperatura mínima	16.4
44260	7	Sololá	717	San Juan la Laguna	12	San Juan la Laguna	3	Marzo	2023-03-25T00:00:00	2024-11-08T22:00:00	5	Humedad	85
44261	7	Sololá	717	San Juan la Laguna	12	San Juan la Laguna	3	Marzo	2023-03-25T00:00:00	2024-11-08T22:00:00	6	Velocidad del viento	3.2
44262	7	Sololá	717	San Juan la Laguna	12	San Juan la Laguna	3	Marzo	2023-03-25T00:00:00	2024-11-08T22:00:00	7	Dirección del viento	3.22
44263	7	Sololá	717	San Juan la Laguna	12	San Juan la Laguna	3	Marzo	2023-03-25T00:00:00	2024-11-08T22:00:00	1	Precipitación	0
44264	7	Sololá	717	San Juan la Laguna	12	San Juan la Laguna	3	Marzo	2023-03-25T00:00:00	2024-11-08T22:00:00	8	Radiación solar	0
44265	7	Sololá	717	San Juan la Laguna	12	San Juan la Laguna	3	Marzo	2023-03-25T00:00:00	2024-11-08T23:00:00	2	Temperatura media	16.4
44266	7	Sololá	717	San Juan la Laguna	12	San Juan la Laguna	3	Marzo	2023-03-25T00:00:00	2024-11-08T23:00:00	4	Temperatura máxima	17.3
44267	7	Sololá	717	San Juan la Laguna	12	San Juan la Laguna	3	Marzo	2023-03-25T00:00:00	2024-11-08T23:00:00	3	Temperatura mínima	16.4
44268	7	Sololá	717	San Juan la Laguna	12	San Juan la Laguna	3	Marzo	2023-03-25T00:00:00	2024-11-08T23:00:00	5	Humedad	86
44269	7	Sololá	717	San Juan la Laguna	12	San Juan la Laguna	3	Marzo	2023-03-25T00:00:00	2024-11-08T23:00:00	6	Velocidad del viento	1.6
44270	7	Sololá	717	San Juan la Laguna	12	San Juan la Laguna	3	Marzo	2023-03-25T00:00:00	2024-11-08T23:00:00	7	Dirección del viento	1.61
44271	7	Sololá	717	San Juan la Laguna	12	San Juan la Laguna	3	Marzo	2023-03-25T00:00:00	2024-11-08T23:00:00	1	Precipitación	0
44272	7	Sololá	717	San Juan la Laguna	12	San Juan la Laguna	3	Marzo	2023-03-25T00:00:00	2024-11-08T23:00:00	8	Radiación solar	0
44273	7	Sololá	717	San Juan la Laguna	12	San Juan la Laguna	3	Marzo	2023-03-26T00:00:00	2024-11-08T00:00:00	2	Temperatura media	17.2
44274	7	Sololá	717	San Juan la Laguna	12	San Juan la Laguna	3	Marzo	2023-03-26T00:00:00	2024-11-08T00:00:00	4	Temperatura máxima	17.2
44275	7	Sololá	717	San Juan la Laguna	12	San Juan la Laguna	3	Marzo	2023-03-26T00:00:00	2024-11-08T00:00:00	3	Temperatura mínima	16.4
44276	7	Sololá	717	San Juan la Laguna	12	San Juan la Laguna	3	Marzo	2023-03-26T00:00:00	2024-11-08T00:00:00	5	Humedad	85
44277	7	Sololá	717	San Juan la Laguna	12	San Juan la Laguna	3	Marzo	2023-03-26T00:00:00	2024-11-08T00:00:00	6	Velocidad del viento	0
44278	7	Sololá	717	San Juan la Laguna	12	San Juan la Laguna	3	Marzo	2023-03-26T00:00:00	2024-11-08T00:00:00	7	Dirección del viento	0
44279	7	Sololá	717	San Juan la Laguna	12	San Juan la Laguna	3	Marzo	2023-03-26T00:00:00	2024-11-08T00:00:00	1	Precipitación	0
44280	7	Sololá	717	San Juan la Laguna	12	San Juan la Laguna	3	Marzo	2023-03-26T00:00:00	2024-11-08T00:00:00	8	Radiación solar	0
44281	7	Sololá	717	San Juan la Laguna	12	San Juan la Laguna	3	Marzo	2023-03-26T00:00:00	2024-11-08T01:00:00	2	Temperatura media	16.7
44282	7	Sololá	717	San Juan la Laguna	12	San Juan la Laguna	3	Marzo	2023-03-26T00:00:00	2024-11-08T01:00:00	4	Temperatura máxima	17.3
44283	7	Sololá	717	San Juan la Laguna	12	San Juan la Laguna	3	Marzo	2023-03-26T00:00:00	2024-11-08T01:00:00	3	Temperatura mínima	16.6
44284	7	Sololá	717	San Juan la Laguna	12	San Juan la Laguna	3	Marzo	2023-03-26T00:00:00	2024-11-08T01:00:00	5	Humedad	88
44285	7	Sololá	717	San Juan la Laguna	12	San Juan la Laguna	3	Marzo	2023-03-26T00:00:00	2024-11-08T01:00:00	6	Velocidad del viento	0
44286	7	Sololá	717	San Juan la Laguna	12	San Juan la Laguna	3	Marzo	2023-03-26T00:00:00	2024-11-08T01:00:00	7	Dirección del viento	0
44287	7	Sololá	717	San Juan la Laguna	12	San Juan la Laguna	3	Marzo	2023-03-26T00:00:00	2024-11-08T01:00:00	1	Precipitación	0
44288	7	Sololá	717	San Juan la Laguna	12	San Juan la Laguna	3	Marzo	2023-03-26T00:00:00	2024-11-08T01:00:00	8	Radiación solar	0
44289	7	Sololá	717	San Juan la Laguna	12	San Juan la Laguna	3	Marzo	2023-03-26T00:00:00	2024-11-08T02:00:00	2	Temperatura media	16.9
44290	7	Sololá	717	San Juan la Laguna	12	San Juan la Laguna	3	Marzo	2023-03-26T00:00:00	2024-11-08T02:00:00	4	Temperatura máxima	17
44291	7	Sololá	717	San Juan la Laguna	12	San Juan la Laguna	3	Marzo	2023-03-26T00:00:00	2024-11-08T02:00:00	3	Temperatura mínima	16.7
44292	7	Sololá	717	San Juan la Laguna	12	San Juan la Laguna	3	Marzo	2023-03-26T00:00:00	2024-11-08T02:00:00	5	Humedad	87
44293	7	Sololá	717	San Juan la Laguna	12	San Juan la Laguna	3	Marzo	2023-03-26T00:00:00	2024-11-08T02:00:00	6	Velocidad del viento	0
44294	7	Sololá	717	San Juan la Laguna	12	San Juan la Laguna	3	Marzo	2023-03-26T00:00:00	2024-11-08T02:00:00	7	Dirección del viento	0
44295	7	Sololá	717	San Juan la Laguna	12	San Juan la Laguna	3	Marzo	2023-03-26T00:00:00	2024-11-08T02:00:00	1	Precipitación	0
44296	7	Sololá	717	San Juan la Laguna	12	San Juan la Laguna	3	Marzo	2023-03-26T00:00:00	2024-11-08T02:00:00	8	Radiación solar	0
44297	7	Sololá	717	San Juan la Laguna	12	San Juan la Laguna	3	Marzo	2023-03-26T00:00:00	2024-11-08T03:00:00	2	Temperatura media	17.1
44298	7	Sololá	717	San Juan la Laguna	12	San Juan la Laguna	3	Marzo	2023-03-26T00:00:00	2024-11-08T03:00:00	4	Temperatura máxima	17.1
44299	7	Sololá	717	San Juan la Laguna	12	San Juan la Laguna	3	Marzo	2023-03-26T00:00:00	2024-11-08T03:00:00	3	Temperatura mínima	16.8
44300	7	Sololá	717	San Juan la Laguna	12	San Juan la Laguna	3	Marzo	2023-03-26T00:00:00	2024-11-08T03:00:00	5	Humedad	88
44301	7	Sololá	717	San Juan la Laguna	12	San Juan la Laguna	3	Marzo	2023-03-26T00:00:00	2024-11-08T03:00:00	6	Velocidad del viento	0
44302	7	Sololá	717	San Juan la Laguna	12	San Juan la Laguna	3	Marzo	2023-03-26T00:00:00	2024-11-08T03:00:00	7	Dirección del viento	0
44303	7	Sololá	717	San Juan la Laguna	12	San Juan la Laguna	3	Marzo	2023-03-26T00:00:00	2024-11-08T03:00:00	1	Precipitación	0
44304	7	Sololá	717	San Juan la Laguna	12	San Juan la Laguna	3	Marzo	2023-03-26T00:00:00	2024-11-08T03:00:00	8	Radiación solar	0
44305	7	Sololá	717	San Juan la Laguna	12	San Juan la Laguna	3	Marzo	2023-03-26T00:00:00	2024-11-08T04:00:00	2	Temperatura media	17.6
44306	7	Sololá	717	San Juan la Laguna	12	San Juan la Laguna	3	Marzo	2023-03-26T00:00:00	2024-11-08T04:00:00	4	Temperatura máxima	17.6
44307	7	Sololá	717	San Juan la Laguna	12	San Juan la Laguna	3	Marzo	2023-03-26T00:00:00	2024-11-08T04:00:00	3	Temperatura mínima	17.1
44308	7	Sololá	717	San Juan la Laguna	12	San Juan la Laguna	3	Marzo	2023-03-26T00:00:00	2024-11-08T04:00:00	5	Humedad	86
44309	7	Sololá	717	San Juan la Laguna	12	San Juan la Laguna	3	Marzo	2023-03-26T00:00:00	2024-11-08T04:00:00	6	Velocidad del viento	0
44310	7	Sololá	717	San Juan la Laguna	12	San Juan la Laguna	3	Marzo	2023-03-26T00:00:00	2024-11-08T04:00:00	7	Dirección del viento	0
44311	7	Sololá	717	San Juan la Laguna	12	San Juan la Laguna	3	Marzo	2023-03-26T00:00:00	2024-11-08T04:00:00	1	Precipitación	0
44312	7	Sololá	717	San Juan la Laguna	12	San Juan la Laguna	3	Marzo	2023-03-26T00:00:00	2024-11-08T04:00:00	8	Radiación solar	0
44313	7	Sololá	717	San Juan la Laguna	12	San Juan la Laguna	3	Marzo	2023-03-26T00:00:00	2024-11-08T05:00:00	2	Temperatura media	17.3
44314	7	Sololá	717	San Juan la Laguna	12	San Juan la Laguna	3	Marzo	2023-03-26T00:00:00	2024-11-08T05:00:00	4	Temperatura máxima	17.7
44315	7	Sololá	717	San Juan la Laguna	12	San Juan la Laguna	3	Marzo	2023-03-26T00:00:00	2024-11-08T05:00:00	3	Temperatura mínima	17.2
44316	7	Sololá	717	San Juan la Laguna	12	San Juan la Laguna	3	Marzo	2023-03-26T00:00:00	2024-11-08T05:00:00	5	Humedad	86
44317	7	Sololá	717	San Juan la Laguna	12	San Juan la Laguna	3	Marzo	2023-03-26T00:00:00	2024-11-08T05:00:00	6	Velocidad del viento	0
44318	7	Sololá	717	San Juan la Laguna	12	San Juan la Laguna	3	Marzo	2023-03-26T00:00:00	2024-11-08T05:00:00	7	Dirección del viento	0
44319	7	Sololá	717	San Juan la Laguna	12	San Juan la Laguna	3	Marzo	2023-03-26T00:00:00	2024-11-08T05:00:00	1	Precipitación	0
44320	7	Sololá	717	San Juan la Laguna	12	San Juan la Laguna	3	Marzo	2023-03-26T00:00:00	2024-11-08T05:00:00	8	Radiación solar	0
44321	7	Sololá	717	San Juan la Laguna	12	San Juan la Laguna	3	Marzo	2023-03-26T00:00:00	2024-11-08T06:00:00	2	Temperatura media	17.1
44322	7	Sololá	717	San Juan la Laguna	12	San Juan la Laguna	3	Marzo	2023-03-26T00:00:00	2024-11-08T06:00:00	4	Temperatura máxima	17.5
44323	7	Sololá	717	San Juan la Laguna	12	San Juan la Laguna	3	Marzo	2023-03-26T00:00:00	2024-11-08T06:00:00	3	Temperatura mínima	17.1
44324	7	Sololá	717	San Juan la Laguna	12	San Juan la Laguna	3	Marzo	2023-03-26T00:00:00	2024-11-08T06:00:00	5	Humedad	83
44325	7	Sololá	717	San Juan la Laguna	12	San Juan la Laguna	3	Marzo	2023-03-26T00:00:00	2024-11-08T06:00:00	6	Velocidad del viento	1.6
44326	7	Sololá	717	San Juan la Laguna	12	San Juan la Laguna	3	Marzo	2023-03-26T00:00:00	2024-11-08T06:00:00	7	Dirección del viento	1.61
44327	7	Sololá	717	San Juan la Laguna	12	San Juan la Laguna	3	Marzo	2023-03-26T00:00:00	2024-11-08T06:00:00	1	Precipitación	0
44328	7	Sololá	717	San Juan la Laguna	12	San Juan la Laguna	3	Marzo	2023-03-26T00:00:00	2024-11-08T06:00:00	8	Radiación solar	0
44329	7	Sololá	717	San Juan la Laguna	12	San Juan la Laguna	3	Marzo	2023-03-26T00:00:00	2024-11-08T07:00:00	2	Temperatura media	17.6
44330	7	Sololá	717	San Juan la Laguna	12	San Juan la Laguna	3	Marzo	2023-03-26T00:00:00	2024-11-08T07:00:00	4	Temperatura máxima	17.7
44331	7	Sololá	717	San Juan la Laguna	12	San Juan la Laguna	3	Marzo	2023-03-26T00:00:00	2024-11-08T07:00:00	3	Temperatura mínima	17.1
44332	7	Sololá	717	San Juan la Laguna	12	San Juan la Laguna	3	Marzo	2023-03-26T00:00:00	2024-11-08T07:00:00	5	Humedad	80
44333	7	Sololá	717	San Juan la Laguna	12	San Juan la Laguna	3	Marzo	2023-03-26T00:00:00	2024-11-08T07:00:00	6	Velocidad del viento	1.6
44334	7	Sololá	717	San Juan la Laguna	12	San Juan la Laguna	3	Marzo	2023-03-26T00:00:00	2024-11-08T07:00:00	7	Dirección del viento	1.61
44335	7	Sololá	717	San Juan la Laguna	12	San Juan la Laguna	3	Marzo	2023-03-26T00:00:00	2024-11-08T07:00:00	1	Precipitación	0
44336	7	Sololá	717	San Juan la Laguna	12	San Juan la Laguna	3	Marzo	2023-03-26T00:00:00	2024-11-08T07:00:00	8	Radiación solar	36
44337	7	Sololá	717	San Juan la Laguna	12	San Juan la Laguna	3	Marzo	2023-03-26T00:00:00	2024-11-08T08:00:00	2	Temperatura media	17.9
44338	7	Sololá	717	San Juan la Laguna	12	San Juan la Laguna	3	Marzo	2023-03-26T00:00:00	2024-11-08T08:00:00	4	Temperatura máxima	17.9
44339	7	Sololá	717	San Juan la Laguna	12	San Juan la Laguna	3	Marzo	2023-03-26T00:00:00	2024-11-08T08:00:00	3	Temperatura mínima	17.4
44340	7	Sololá	717	San Juan la Laguna	12	San Juan la Laguna	3	Marzo	2023-03-26T00:00:00	2024-11-08T08:00:00	5	Humedad	80
44341	7	Sololá	717	San Juan la Laguna	12	San Juan la Laguna	3	Marzo	2023-03-26T00:00:00	2024-11-08T08:00:00	6	Velocidad del viento	1.6
44342	7	Sololá	717	San Juan la Laguna	12	San Juan la Laguna	3	Marzo	2023-03-26T00:00:00	2024-11-08T08:00:00	7	Dirección del viento	1.61
44343	7	Sololá	717	San Juan la Laguna	12	San Juan la Laguna	3	Marzo	2023-03-26T00:00:00	2024-11-08T08:00:00	1	Precipitación	0
44344	7	Sololá	717	San Juan la Laguna	12	San Juan la Laguna	3	Marzo	2023-03-26T00:00:00	2024-11-08T08:00:00	8	Radiación solar	88
44345	7	Sololá	717	San Juan la Laguna	12	San Juan la Laguna	3	Marzo	2023-03-26T00:00:00	2024-11-08T09:00:00	2	Temperatura media	18.2
44346	7	Sololá	717	San Juan la Laguna	12	San Juan la Laguna	3	Marzo	2023-03-26T00:00:00	2024-11-08T09:00:00	4	Temperatura máxima	18.3
44347	7	Sololá	717	San Juan la Laguna	12	San Juan la Laguna	3	Marzo	2023-03-26T00:00:00	2024-11-08T09:00:00	3	Temperatura mínima	17.8
44348	7	Sololá	717	San Juan la Laguna	12	San Juan la Laguna	3	Marzo	2023-03-26T00:00:00	2024-11-08T09:00:00	5	Humedad	78
44349	7	Sololá	717	San Juan la Laguna	12	San Juan la Laguna	3	Marzo	2023-03-26T00:00:00	2024-11-08T09:00:00	6	Velocidad del viento	0
44350	7	Sololá	717	San Juan la Laguna	12	San Juan la Laguna	3	Marzo	2023-03-26T00:00:00	2024-11-08T09:00:00	7	Dirección del viento	0
44351	7	Sololá	717	San Juan la Laguna	12	San Juan la Laguna	3	Marzo	2023-03-26T00:00:00	2024-11-08T09:00:00	1	Precipitación	0
44352	7	Sololá	717	San Juan la Laguna	12	San Juan la Laguna	3	Marzo	2023-03-26T00:00:00	2024-11-08T09:00:00	8	Radiación solar	228
44353	7	Sololá	717	San Juan la Laguna	12	San Juan la Laguna	3	Marzo	2023-03-26T00:00:00	2024-11-08T10:00:00	2	Temperatura media	19.8
44354	7	Sololá	717	San Juan la Laguna	12	San Juan la Laguna	3	Marzo	2023-03-26T00:00:00	2024-11-08T10:00:00	4	Temperatura máxima	19.9
44355	7	Sololá	717	San Juan la Laguna	12	San Juan la Laguna	3	Marzo	2023-03-26T00:00:00	2024-11-08T10:00:00	3	Temperatura mínima	18.2
44356	7	Sololá	717	San Juan la Laguna	12	San Juan la Laguna	3	Marzo	2023-03-26T00:00:00	2024-11-08T10:00:00	5	Humedad	73
44357	7	Sololá	717	San Juan la Laguna	12	San Juan la Laguna	3	Marzo	2023-03-26T00:00:00	2024-11-08T10:00:00	6	Velocidad del viento	0
44358	7	Sololá	717	San Juan la Laguna	12	San Juan la Laguna	3	Marzo	2023-03-26T00:00:00	2024-11-08T10:00:00	7	Dirección del viento	0
44359	7	Sololá	717	San Juan la Laguna	12	San Juan la Laguna	3	Marzo	2023-03-26T00:00:00	2024-11-08T10:00:00	1	Precipitación	0
44360	7	Sololá	717	San Juan la Laguna	12	San Juan la Laguna	3	Marzo	2023-03-26T00:00:00	2024-11-08T10:00:00	8	Radiación solar	451
44361	7	Sololá	717	San Juan la Laguna	12	San Juan la Laguna	3	Marzo	2023-03-26T00:00:00	2024-11-08T11:00:00	2	Temperatura media	22.9
44362	7	Sololá	717	San Juan la Laguna	12	San Juan la Laguna	3	Marzo	2023-03-26T00:00:00	2024-11-08T11:00:00	4	Temperatura máxima	22.9
44363	7	Sololá	717	San Juan la Laguna	12	San Juan la Laguna	3	Marzo	2023-03-26T00:00:00	2024-11-08T11:00:00	3	Temperatura mínima	19.7
44364	7	Sololá	717	San Juan la Laguna	12	San Juan la Laguna	3	Marzo	2023-03-26T00:00:00	2024-11-08T11:00:00	5	Humedad	62
44365	7	Sololá	717	San Juan la Laguna	12	San Juan la Laguna	3	Marzo	2023-03-26T00:00:00	2024-11-08T11:00:00	6	Velocidad del viento	1.6
44366	7	Sololá	717	San Juan la Laguna	12	San Juan la Laguna	3	Marzo	2023-03-26T00:00:00	2024-11-08T11:00:00	7	Dirección del viento	1.61
44367	7	Sololá	717	San Juan la Laguna	12	San Juan la Laguna	3	Marzo	2023-03-26T00:00:00	2024-11-08T11:00:00	1	Precipitación	0
44368	7	Sololá	717	San Juan la Laguna	12	San Juan la Laguna	3	Marzo	2023-03-26T00:00:00	2024-11-08T11:00:00	8	Radiación solar	899
44369	7	Sololá	717	San Juan la Laguna	12	San Juan la Laguna	3	Marzo	2023-03-26T00:00:00	2024-11-08T12:00:00	2	Temperatura media	21.1
44370	7	Sololá	717	San Juan la Laguna	12	San Juan la Laguna	3	Marzo	2023-03-26T00:00:00	2024-11-08T12:00:00	4	Temperatura máxima	22.9
44371	7	Sololá	717	San Juan la Laguna	12	San Juan la Laguna	3	Marzo	2023-03-26T00:00:00	2024-11-08T12:00:00	3	Temperatura mínima	20.9
44372	7	Sololá	717	San Juan la Laguna	12	San Juan la Laguna	3	Marzo	2023-03-26T00:00:00	2024-11-08T12:00:00	5	Humedad	69
44373	7	Sololá	717	San Juan la Laguna	12	San Juan la Laguna	3	Marzo	2023-03-26T00:00:00	2024-11-08T12:00:00	6	Velocidad del viento	3.2
44374	7	Sololá	717	San Juan la Laguna	12	San Juan la Laguna	3	Marzo	2023-03-26T00:00:00	2024-11-08T12:00:00	7	Dirección del viento	3.22
44375	7	Sololá	717	San Juan la Laguna	12	San Juan la Laguna	3	Marzo	2023-03-26T00:00:00	2024-11-08T12:00:00	1	Precipitación	0
44376	7	Sololá	717	San Juan la Laguna	12	San Juan la Laguna	3	Marzo	2023-03-26T00:00:00	2024-11-08T12:00:00	8	Radiación solar	853
44377	7	Sololá	717	San Juan la Laguna	12	San Juan la Laguna	3	Marzo	2023-03-26T00:00:00	2024-11-08T13:00:00	2	Temperatura media	21.6
44378	7	Sololá	717	San Juan la Laguna	12	San Juan la Laguna	3	Marzo	2023-03-26T00:00:00	2024-11-08T13:00:00	4	Temperatura máxima	22.1
44379	7	Sololá	717	San Juan la Laguna	12	San Juan la Laguna	3	Marzo	2023-03-26T00:00:00	2024-11-08T13:00:00	3	Temperatura mínima	21.1
44380	7	Sololá	717	San Juan la Laguna	12	San Juan la Laguna	3	Marzo	2023-03-26T00:00:00	2024-11-08T13:00:00	5	Humedad	71
44381	7	Sololá	717	San Juan la Laguna	12	San Juan la Laguna	3	Marzo	2023-03-26T00:00:00	2024-11-08T13:00:00	6	Velocidad del viento	1.6
44382	7	Sololá	717	San Juan la Laguna	12	San Juan la Laguna	3	Marzo	2023-03-26T00:00:00	2024-11-08T13:00:00	7	Dirección del viento	1.61
44383	7	Sololá	717	San Juan la Laguna	12	San Juan la Laguna	3	Marzo	2023-03-26T00:00:00	2024-11-08T13:00:00	1	Precipitación	0
44384	7	Sololá	717	San Juan la Laguna	12	San Juan la Laguna	3	Marzo	2023-03-26T00:00:00	2024-11-08T13:00:00	8	Radiación solar	817
44385	7	Sololá	717	San Juan la Laguna	12	San Juan la Laguna	3	Marzo	2023-03-26T00:00:00	2024-11-08T14:00:00	2	Temperatura media	21.3
44386	7	Sololá	717	San Juan la Laguna	12	San Juan la Laguna	3	Marzo	2023-03-26T00:00:00	2024-11-08T14:00:00	4	Temperatura máxima	22.1
44387	7	Sololá	717	San Juan la Laguna	12	San Juan la Laguna	3	Marzo	2023-03-26T00:00:00	2024-11-08T14:00:00	3	Temperatura mínima	20.9
44388	7	Sololá	717	San Juan la Laguna	12	San Juan la Laguna	3	Marzo	2023-03-26T00:00:00	2024-11-08T14:00:00	5	Humedad	72
44389	7	Sololá	717	San Juan la Laguna	12	San Juan la Laguna	3	Marzo	2023-03-26T00:00:00	2024-11-08T14:00:00	6	Velocidad del viento	1.6
44390	7	Sololá	717	San Juan la Laguna	12	San Juan la Laguna	3	Marzo	2023-03-26T00:00:00	2024-11-08T14:00:00	7	Dirección del viento	1.61
44391	7	Sololá	717	San Juan la Laguna	12	San Juan la Laguna	3	Marzo	2023-03-26T00:00:00	2024-11-08T14:00:00	1	Precipitación	0
44392	7	Sololá	717	San Juan la Laguna	12	San Juan la Laguna	3	Marzo	2023-03-26T00:00:00	2024-11-08T14:00:00	8	Radiación solar	607
44393	7	Sololá	717	San Juan la Laguna	12	San Juan la Laguna	3	Marzo	2023-03-26T00:00:00	2024-11-08T15:00:00	2	Temperatura media	21.1
44394	7	Sololá	717	San Juan la Laguna	12	San Juan la Laguna	3	Marzo	2023-03-26T00:00:00	2024-11-08T15:00:00	4	Temperatura máxima	21.4
44395	7	Sololá	717	San Juan la Laguna	12	San Juan la Laguna	3	Marzo	2023-03-26T00:00:00	2024-11-08T15:00:00	3	Temperatura mínima	20.7
44396	7	Sololá	717	San Juan la Laguna	12	San Juan la Laguna	3	Marzo	2023-03-26T00:00:00	2024-11-08T15:00:00	5	Humedad	71
44397	7	Sololá	717	San Juan la Laguna	12	San Juan la Laguna	3	Marzo	2023-03-26T00:00:00	2024-11-08T15:00:00	6	Velocidad del viento	3.2
44398	7	Sololá	717	San Juan la Laguna	12	San Juan la Laguna	3	Marzo	2023-03-26T00:00:00	2024-11-08T15:00:00	7	Dirección del viento	3.22
44399	7	Sololá	717	San Juan la Laguna	12	San Juan la Laguna	3	Marzo	2023-03-26T00:00:00	2024-11-08T15:00:00	1	Precipitación	0
44400	7	Sololá	717	San Juan la Laguna	12	San Juan la Laguna	3	Marzo	2023-03-26T00:00:00	2024-11-08T15:00:00	8	Radiación solar	325
44401	7	Sololá	717	San Juan la Laguna	12	San Juan la Laguna	3	Marzo	2023-03-26T00:00:00	2024-11-08T16:00:00	2	Temperatura media	20.7
44402	7	Sololá	717	San Juan la Laguna	12	San Juan la Laguna	3	Marzo	2023-03-26T00:00:00	2024-11-08T16:00:00	4	Temperatura máxima	21.3
44403	7	Sololá	717	San Juan la Laguna	12	San Juan la Laguna	3	Marzo	2023-03-26T00:00:00	2024-11-08T16:00:00	3	Temperatura mínima	20.7
44404	7	Sololá	717	San Juan la Laguna	12	San Juan la Laguna	3	Marzo	2023-03-26T00:00:00	2024-11-08T16:00:00	5	Humedad	75
44405	7	Sololá	717	San Juan la Laguna	12	San Juan la Laguna	3	Marzo	2023-03-26T00:00:00	2024-11-08T16:00:00	6	Velocidad del viento	1.6
44406	7	Sololá	717	San Juan la Laguna	12	San Juan la Laguna	3	Marzo	2023-03-26T00:00:00	2024-11-08T16:00:00	7	Dirección del viento	1.61
44407	7	Sololá	717	San Juan la Laguna	12	San Juan la Laguna	3	Marzo	2023-03-26T00:00:00	2024-11-08T16:00:00	1	Precipitación	0
44408	7	Sololá	717	San Juan la Laguna	12	San Juan la Laguna	3	Marzo	2023-03-26T00:00:00	2024-11-08T16:00:00	8	Radiación solar	244
44409	7	Sololá	717	San Juan la Laguna	12	San Juan la Laguna	3	Marzo	2023-03-26T00:00:00	2024-11-08T17:00:00	2	Temperatura media	20.1
44410	7	Sololá	717	San Juan la Laguna	12	San Juan la Laguna	3	Marzo	2023-03-26T00:00:00	2024-11-08T17:00:00	4	Temperatura máxima	20.7
44411	7	Sololá	717	San Juan la Laguna	12	San Juan la Laguna	3	Marzo	2023-03-26T00:00:00	2024-11-08T17:00:00	3	Temperatura mínima	20.1
44412	7	Sololá	717	San Juan la Laguna	12	San Juan la Laguna	3	Marzo	2023-03-26T00:00:00	2024-11-08T17:00:00	5	Humedad	77
44413	7	Sololá	717	San Juan la Laguna	12	San Juan la Laguna	3	Marzo	2023-03-26T00:00:00	2024-11-08T17:00:00	6	Velocidad del viento	1.6
44414	7	Sololá	717	San Juan la Laguna	12	San Juan la Laguna	3	Marzo	2023-03-26T00:00:00	2024-11-08T17:00:00	7	Dirección del viento	1.61
44415	7	Sololá	717	San Juan la Laguna	12	San Juan la Laguna	3	Marzo	2023-03-26T00:00:00	2024-11-08T17:00:00	1	Precipitación	0
44416	7	Sololá	717	San Juan la Laguna	12	San Juan la Laguna	3	Marzo	2023-03-26T00:00:00	2024-11-08T17:00:00	8	Radiación solar	187
44417	7	Sololá	717	San Juan la Laguna	12	San Juan la Laguna	3	Marzo	2023-03-26T00:00:00	2024-11-08T18:00:00	2	Temperatura media	19.6
44418	7	Sololá	717	San Juan la Laguna	12	San Juan la Laguna	3	Marzo	2023-03-26T00:00:00	2024-11-08T18:00:00	4	Temperatura máxima	20.1
44419	7	Sololá	717	San Juan la Laguna	12	San Juan la Laguna	3	Marzo	2023-03-26T00:00:00	2024-11-08T18:00:00	3	Temperatura mínima	19.6
44420	7	Sololá	717	San Juan la Laguna	12	San Juan la Laguna	3	Marzo	2023-03-26T00:00:00	2024-11-08T18:00:00	5	Humedad	80
44421	7	Sololá	717	San Juan la Laguna	12	San Juan la Laguna	3	Marzo	2023-03-26T00:00:00	2024-11-08T18:00:00	6	Velocidad del viento	0
44422	7	Sololá	717	San Juan la Laguna	12	San Juan la Laguna	3	Marzo	2023-03-26T00:00:00	2024-11-08T18:00:00	7	Dirección del viento	0
44423	7	Sololá	717	San Juan la Laguna	12	San Juan la Laguna	3	Marzo	2023-03-26T00:00:00	2024-11-08T18:00:00	1	Precipitación	0
44424	7	Sololá	717	San Juan la Laguna	12	San Juan la Laguna	3	Marzo	2023-03-26T00:00:00	2024-11-08T18:00:00	8	Radiación solar	65
44425	7	Sololá	717	San Juan la Laguna	12	San Juan la Laguna	3	Marzo	2023-03-26T00:00:00	2024-11-08T19:00:00	2	Temperatura media	18.6
44426	7	Sololá	717	San Juan la Laguna	12	San Juan la Laguna	3	Marzo	2023-03-26T00:00:00	2024-11-08T19:00:00	4	Temperatura máxima	19.6
44427	7	Sololá	717	San Juan la Laguna	12	San Juan la Laguna	3	Marzo	2023-03-26T00:00:00	2024-11-08T19:00:00	3	Temperatura mínima	18.6
44428	7	Sololá	717	San Juan la Laguna	12	San Juan la Laguna	3	Marzo	2023-03-26T00:00:00	2024-11-08T19:00:00	5	Humedad	83
44429	7	Sololá	717	San Juan la Laguna	12	San Juan la Laguna	3	Marzo	2023-03-26T00:00:00	2024-11-08T19:00:00	6	Velocidad del viento	0
44430	7	Sololá	717	San Juan la Laguna	12	San Juan la Laguna	3	Marzo	2023-03-26T00:00:00	2024-11-08T19:00:00	7	Dirección del viento	0
44431	7	Sololá	717	San Juan la Laguna	12	San Juan la Laguna	3	Marzo	2023-03-26T00:00:00	2024-11-08T19:00:00	1	Precipitación	0
44432	7	Sololá	717	San Juan la Laguna	12	San Juan la Laguna	3	Marzo	2023-03-26T00:00:00	2024-11-08T19:00:00	8	Radiación solar	0
44433	7	Sololá	717	San Juan la Laguna	12	San Juan la Laguna	3	Marzo	2023-03-26T00:00:00	2024-11-08T20:00:00	2	Temperatura media	17.6
44434	7	Sololá	717	San Juan la Laguna	12	San Juan la Laguna	3	Marzo	2023-03-26T00:00:00	2024-11-08T20:00:00	4	Temperatura máxima	18.7
44435	7	Sololá	717	San Juan la Laguna	12	San Juan la Laguna	3	Marzo	2023-03-26T00:00:00	2024-11-08T20:00:00	3	Temperatura mínima	17.6
44436	7	Sololá	717	San Juan la Laguna	12	San Juan la Laguna	3	Marzo	2023-03-26T00:00:00	2024-11-08T20:00:00	5	Humedad	85
44437	7	Sololá	717	San Juan la Laguna	12	San Juan la Laguna	3	Marzo	2023-03-26T00:00:00	2024-11-08T20:00:00	6	Velocidad del viento	0
44438	7	Sololá	717	San Juan la Laguna	12	San Juan la Laguna	3	Marzo	2023-03-26T00:00:00	2024-11-08T20:00:00	7	Dirección del viento	0
44439	7	Sololá	717	San Juan la Laguna	12	San Juan la Laguna	3	Marzo	2023-03-26T00:00:00	2024-11-08T20:00:00	1	Precipitación	0
44440	7	Sololá	717	San Juan la Laguna	12	San Juan la Laguna	3	Marzo	2023-03-26T00:00:00	2024-11-08T20:00:00	8	Radiación solar	0
44441	7	Sololá	717	San Juan la Laguna	12	San Juan la Laguna	3	Marzo	2023-03-26T00:00:00	2024-11-08T21:00:00	2	Temperatura media	17.6
44442	7	Sololá	717	San Juan la Laguna	12	San Juan la Laguna	3	Marzo	2023-03-26T00:00:00	2024-11-08T21:00:00	4	Temperatura máxima	17.6
44443	7	Sololá	717	San Juan la Laguna	12	San Juan la Laguna	3	Marzo	2023-03-26T00:00:00	2024-11-08T21:00:00	3	Temperatura mínima	17.3
44444	7	Sololá	717	San Juan la Laguna	12	San Juan la Laguna	3	Marzo	2023-03-26T00:00:00	2024-11-08T21:00:00	5	Humedad	84
44445	7	Sololá	717	San Juan la Laguna	12	San Juan la Laguna	3	Marzo	2023-03-26T00:00:00	2024-11-08T21:00:00	6	Velocidad del viento	0
44446	7	Sololá	717	San Juan la Laguna	12	San Juan la Laguna	3	Marzo	2023-03-26T00:00:00	2024-11-08T21:00:00	7	Dirección del viento	0
44447	7	Sololá	717	San Juan la Laguna	12	San Juan la Laguna	3	Marzo	2023-03-26T00:00:00	2024-11-08T21:00:00	1	Precipitación	0
44448	7	Sololá	717	San Juan la Laguna	12	San Juan la Laguna	3	Marzo	2023-03-26T00:00:00	2024-11-08T21:00:00	8	Radiación solar	0
44449	7	Sololá	717	San Juan la Laguna	12	San Juan la Laguna	3	Marzo	2023-03-26T00:00:00	2024-11-08T22:00:00	2	Temperatura media	17.5
44450	7	Sololá	717	San Juan la Laguna	12	San Juan la Laguna	3	Marzo	2023-03-26T00:00:00	2024-11-08T22:00:00	4	Temperatura máxima	17.9
44451	7	Sololá	717	San Juan la Laguna	12	San Juan la Laguna	3	Marzo	2023-03-26T00:00:00	2024-11-08T22:00:00	3	Temperatura mínima	17.5
44452	7	Sololá	717	San Juan la Laguna	12	San Juan la Laguna	3	Marzo	2023-03-26T00:00:00	2024-11-08T22:00:00	5	Humedad	82
44453	7	Sololá	717	San Juan la Laguna	12	San Juan la Laguna	3	Marzo	2023-03-26T00:00:00	2024-11-08T22:00:00	6	Velocidad del viento	0
44454	7	Sololá	717	San Juan la Laguna	12	San Juan la Laguna	3	Marzo	2023-03-26T00:00:00	2024-11-08T22:00:00	7	Dirección del viento	0
44455	7	Sololá	717	San Juan la Laguna	12	San Juan la Laguna	3	Marzo	2023-03-26T00:00:00	2024-11-08T22:00:00	1	Precipitación	0
44456	7	Sololá	717	San Juan la Laguna	12	San Juan la Laguna	3	Marzo	2023-03-26T00:00:00	2024-11-08T22:00:00	8	Radiación solar	0
44457	7	Sololá	717	San Juan la Laguna	12	San Juan la Laguna	3	Marzo	2023-03-26T00:00:00	2024-11-08T23:00:00	2	Temperatura media	17.1
44458	7	Sololá	717	San Juan la Laguna	12	San Juan la Laguna	3	Marzo	2023-03-26T00:00:00	2024-11-08T23:00:00	4	Temperatura máxima	17.5
44459	7	Sololá	717	San Juan la Laguna	12	San Juan la Laguna	3	Marzo	2023-03-26T00:00:00	2024-11-08T23:00:00	3	Temperatura mínima	17
44460	7	Sololá	717	San Juan la Laguna	12	San Juan la Laguna	3	Marzo	2023-03-26T00:00:00	2024-11-08T23:00:00	5	Humedad	85
44461	7	Sololá	717	San Juan la Laguna	12	San Juan la Laguna	3	Marzo	2023-03-26T00:00:00	2024-11-08T23:00:00	6	Velocidad del viento	1.6
44462	7	Sololá	717	San Juan la Laguna	12	San Juan la Laguna	3	Marzo	2023-03-26T00:00:00	2024-11-08T23:00:00	7	Dirección del viento	1.61
44463	7	Sololá	717	San Juan la Laguna	12	San Juan la Laguna	3	Marzo	2023-03-26T00:00:00	2024-11-08T23:00:00	1	Precipitación	0
44464	7	Sololá	717	San Juan la Laguna	12	San Juan la Laguna	3	Marzo	2023-03-26T00:00:00	2024-11-08T23:00:00	8	Radiación solar	0
44465	7	Sololá	717	San Juan la Laguna	12	San Juan la Laguna	3	Marzo	2023-03-27T00:00:00	2024-11-08T00:00:00	2	Temperatura media	16.9
44466	7	Sololá	717	San Juan la Laguna	12	San Juan la Laguna	3	Marzo	2023-03-27T00:00:00	2024-11-08T00:00:00	4	Temperatura máxima	17.5
44467	7	Sololá	717	San Juan la Laguna	12	San Juan la Laguna	3	Marzo	2023-03-27T00:00:00	2024-11-08T00:00:00	3	Temperatura mínima	16.9
44468	7	Sololá	717	San Juan la Laguna	12	San Juan la Laguna	3	Marzo	2023-03-27T00:00:00	2024-11-08T00:00:00	5	Humedad	84
44469	7	Sololá	717	San Juan la Laguna	12	San Juan la Laguna	3	Marzo	2023-03-27T00:00:00	2024-11-08T00:00:00	6	Velocidad del viento	1.6
44470	7	Sololá	717	San Juan la Laguna	12	San Juan la Laguna	3	Marzo	2023-03-27T00:00:00	2024-11-08T00:00:00	7	Dirección del viento	1.61
44471	7	Sololá	717	San Juan la Laguna	12	San Juan la Laguna	3	Marzo	2023-03-27T00:00:00	2024-11-08T00:00:00	1	Precipitación	0
44472	7	Sololá	717	San Juan la Laguna	12	San Juan la Laguna	3	Marzo	2023-03-27T00:00:00	2024-11-08T00:00:00	8	Radiación solar	0
44473	7	Sololá	717	San Juan la Laguna	12	San Juan la Laguna	3	Marzo	2023-03-27T00:00:00	2024-11-08T01:00:00	2	Temperatura media	16.2
44474	7	Sololá	717	San Juan la Laguna	12	San Juan la Laguna	3	Marzo	2023-03-27T00:00:00	2024-11-08T01:00:00	4	Temperatura máxima	16.9
44475	7	Sololá	717	San Juan la Laguna	12	San Juan la Laguna	3	Marzo	2023-03-27T00:00:00	2024-11-08T01:00:00	3	Temperatura mínima	16.1
44476	7	Sololá	717	San Juan la Laguna	12	San Juan la Laguna	3	Marzo	2023-03-27T00:00:00	2024-11-08T01:00:00	5	Humedad	87
44477	7	Sololá	717	San Juan la Laguna	12	San Juan la Laguna	3	Marzo	2023-03-27T00:00:00	2024-11-08T01:00:00	6	Velocidad del viento	1.6
44478	7	Sololá	717	San Juan la Laguna	12	San Juan la Laguna	3	Marzo	2023-03-27T00:00:00	2024-11-08T01:00:00	7	Dirección del viento	1.61
44479	7	Sololá	717	San Juan la Laguna	12	San Juan la Laguna	3	Marzo	2023-03-27T00:00:00	2024-11-08T01:00:00	1	Precipitación	0
44480	7	Sololá	717	San Juan la Laguna	12	San Juan la Laguna	3	Marzo	2023-03-27T00:00:00	2024-11-08T01:00:00	8	Radiación solar	0
44481	7	Sololá	717	San Juan la Laguna	12	San Juan la Laguna	3	Marzo	2023-03-27T00:00:00	2024-11-08T02:00:00	2	Temperatura media	15.9
44482	7	Sololá	717	San Juan la Laguna	12	San Juan la Laguna	3	Marzo	2023-03-27T00:00:00	2024-11-08T02:00:00	4	Temperatura máxima	16.2
44483	7	Sololá	717	San Juan la Laguna	12	San Juan la Laguna	3	Marzo	2023-03-27T00:00:00	2024-11-08T02:00:00	3	Temperatura mínima	15.9
44484	7	Sololá	717	San Juan la Laguna	12	San Juan la Laguna	3	Marzo	2023-03-27T00:00:00	2024-11-08T02:00:00	5	Humedad	85
44485	7	Sololá	717	San Juan la Laguna	12	San Juan la Laguna	3	Marzo	2023-03-27T00:00:00	2024-11-08T02:00:00	6	Velocidad del viento	0
44486	7	Sololá	717	San Juan la Laguna	12	San Juan la Laguna	3	Marzo	2023-03-27T00:00:00	2024-11-08T02:00:00	7	Dirección del viento	0
44487	7	Sololá	717	San Juan la Laguna	12	San Juan la Laguna	3	Marzo	2023-03-27T00:00:00	2024-11-08T02:00:00	1	Precipitación	0
44488	7	Sololá	717	San Juan la Laguna	12	San Juan la Laguna	3	Marzo	2023-03-27T00:00:00	2024-11-08T02:00:00	8	Radiación solar	0
44489	7	Sololá	717	San Juan la Laguna	12	San Juan la Laguna	3	Marzo	2023-03-27T00:00:00	2024-11-08T03:00:00	2	Temperatura media	16.1
44490	7	Sololá	717	San Juan la Laguna	12	San Juan la Laguna	3	Marzo	2023-03-27T00:00:00	2024-11-08T03:00:00	4	Temperatura máxima	16.2
44491	7	Sololá	717	San Juan la Laguna	12	San Juan la Laguna	3	Marzo	2023-03-27T00:00:00	2024-11-08T03:00:00	3	Temperatura mínima	15.8
44492	7	Sololá	717	San Juan la Laguna	12	San Juan la Laguna	3	Marzo	2023-03-27T00:00:00	2024-11-08T03:00:00	5	Humedad	83
44493	7	Sololá	717	San Juan la Laguna	12	San Juan la Laguna	3	Marzo	2023-03-27T00:00:00	2024-11-08T03:00:00	6	Velocidad del viento	1.6
44494	7	Sololá	717	San Juan la Laguna	12	San Juan la Laguna	3	Marzo	2023-03-27T00:00:00	2024-11-08T03:00:00	7	Dirección del viento	1.61
44495	7	Sololá	717	San Juan la Laguna	12	San Juan la Laguna	3	Marzo	2023-03-27T00:00:00	2024-11-08T03:00:00	1	Precipitación	0
44496	7	Sololá	717	San Juan la Laguna	12	San Juan la Laguna	3	Marzo	2023-03-27T00:00:00	2024-11-08T03:00:00	8	Radiación solar	0
44497	7	Sololá	717	San Juan la Laguna	12	San Juan la Laguna	3	Marzo	2023-03-27T00:00:00	2024-11-08T04:00:00	2	Temperatura media	15.9
44498	7	Sololá	717	San Juan la Laguna	12	San Juan la Laguna	3	Marzo	2023-03-27T00:00:00	2024-11-08T04:00:00	4	Temperatura máxima	16.3
44499	7	Sololá	717	San Juan la Laguna	12	San Juan la Laguna	3	Marzo	2023-03-27T00:00:00	2024-11-08T04:00:00	3	Temperatura mínima	15.9
44500	7	Sololá	717	San Juan la Laguna	12	San Juan la Laguna	3	Marzo	2023-03-27T00:00:00	2024-11-08T04:00:00	5	Humedad	84
44501	7	Sololá	717	San Juan la Laguna	12	San Juan la Laguna	3	Marzo	2023-03-27T00:00:00	2024-11-08T04:00:00	6	Velocidad del viento	1.6
44502	7	Sololá	717	San Juan la Laguna	12	San Juan la Laguna	3	Marzo	2023-03-27T00:00:00	2024-11-08T04:00:00	7	Dirección del viento	1.61
44503	7	Sololá	717	San Juan la Laguna	12	San Juan la Laguna	3	Marzo	2023-03-27T00:00:00	2024-11-08T04:00:00	1	Precipitación	0
44504	7	Sololá	717	San Juan la Laguna	12	San Juan la Laguna	3	Marzo	2023-03-27T00:00:00	2024-11-08T04:00:00	8	Radiación solar	0
44505	7	Sololá	717	San Juan la Laguna	12	San Juan la Laguna	3	Marzo	2023-03-27T00:00:00	2024-11-08T05:00:00	2	Temperatura media	15.9
44506	7	Sololá	717	San Juan la Laguna	12	San Juan la Laguna	3	Marzo	2023-03-27T00:00:00	2024-11-08T05:00:00	4	Temperatura máxima	15.9
44507	7	Sololá	717	San Juan la Laguna	12	San Juan la Laguna	3	Marzo	2023-03-27T00:00:00	2024-11-08T05:00:00	3	Temperatura mínima	15.6
44508	7	Sololá	717	San Juan la Laguna	12	San Juan la Laguna	3	Marzo	2023-03-27T00:00:00	2024-11-08T05:00:00	5	Humedad	85
44509	7	Sololá	717	San Juan la Laguna	12	San Juan la Laguna	3	Marzo	2023-03-27T00:00:00	2024-11-08T05:00:00	6	Velocidad del viento	1.6
44510	7	Sololá	717	San Juan la Laguna	12	San Juan la Laguna	3	Marzo	2023-03-27T00:00:00	2024-11-08T05:00:00	7	Dirección del viento	1.61
44511	7	Sololá	717	San Juan la Laguna	12	San Juan la Laguna	3	Marzo	2023-03-27T00:00:00	2024-11-08T05:00:00	1	Precipitación	0
44512	7	Sololá	717	San Juan la Laguna	12	San Juan la Laguna	3	Marzo	2023-03-27T00:00:00	2024-11-08T05:00:00	8	Radiación solar	0
44513	7	Sololá	717	San Juan la Laguna	12	San Juan la Laguna	3	Marzo	2023-03-27T00:00:00	2024-11-08T06:00:00	2	Temperatura media	15.9
44514	7	Sololá	717	San Juan la Laguna	12	San Juan la Laguna	3	Marzo	2023-03-27T00:00:00	2024-11-08T06:00:00	4	Temperatura máxima	16.3
44515	7	Sololá	717	San Juan la Laguna	12	San Juan la Laguna	3	Marzo	2023-03-27T00:00:00	2024-11-08T06:00:00	3	Temperatura mínima	15.9
44516	7	Sololá	717	San Juan la Laguna	12	San Juan la Laguna	3	Marzo	2023-03-27T00:00:00	2024-11-08T06:00:00	5	Humedad	86
44517	7	Sololá	717	San Juan la Laguna	12	San Juan la Laguna	3	Marzo	2023-03-27T00:00:00	2024-11-08T06:00:00	6	Velocidad del viento	0
44518	7	Sololá	717	San Juan la Laguna	12	San Juan la Laguna	3	Marzo	2023-03-27T00:00:00	2024-11-08T06:00:00	7	Dirección del viento	0
44519	7	Sololá	717	San Juan la Laguna	12	San Juan la Laguna	3	Marzo	2023-03-27T00:00:00	2024-11-08T06:00:00	1	Precipitación	0
44520	7	Sololá	717	San Juan la Laguna	12	San Juan la Laguna	3	Marzo	2023-03-27T00:00:00	2024-11-08T06:00:00	8	Radiación solar	0
44521	7	Sololá	717	San Juan la Laguna	12	San Juan la Laguna	3	Marzo	2023-03-27T00:00:00	2024-11-08T07:00:00	2	Temperatura media	15.4
44522	7	Sololá	717	San Juan la Laguna	12	San Juan la Laguna	3	Marzo	2023-03-27T00:00:00	2024-11-08T07:00:00	4	Temperatura máxima	15.9
44523	7	Sololá	717	San Juan la Laguna	12	San Juan la Laguna	3	Marzo	2023-03-27T00:00:00	2024-11-08T07:00:00	3	Temperatura mínima	15.1
44524	7	Sololá	717	San Juan la Laguna	12	San Juan la Laguna	3	Marzo	2023-03-27T00:00:00	2024-11-08T07:00:00	5	Humedad	84
44525	7	Sololá	717	San Juan la Laguna	12	San Juan la Laguna	3	Marzo	2023-03-27T00:00:00	2024-11-08T07:00:00	6	Velocidad del viento	3.2
44526	7	Sololá	717	San Juan la Laguna	12	San Juan la Laguna	3	Marzo	2023-03-27T00:00:00	2024-11-08T07:00:00	7	Dirección del viento	3.22
44527	7	Sololá	717	San Juan la Laguna	12	San Juan la Laguna	3	Marzo	2023-03-27T00:00:00	2024-11-08T07:00:00	1	Precipitación	0
44528	7	Sololá	717	San Juan la Laguna	12	San Juan la Laguna	3	Marzo	2023-03-27T00:00:00	2024-11-08T07:00:00	8	Radiación solar	32
44529	7	Sololá	717	San Juan la Laguna	12	San Juan la Laguna	3	Marzo	2023-03-27T00:00:00	2024-11-08T08:00:00	2	Temperatura media	19.5
44530	7	Sololá	717	San Juan la Laguna	12	San Juan la Laguna	3	Marzo	2023-03-27T00:00:00	2024-11-08T08:00:00	4	Temperatura máxima	19.5
44531	7	Sololá	717	San Juan la Laguna	12	San Juan la Laguna	3	Marzo	2023-03-27T00:00:00	2024-11-08T08:00:00	3	Temperatura mínima	15.4
44532	7	Sololá	717	San Juan la Laguna	12	San Juan la Laguna	3	Marzo	2023-03-27T00:00:00	2024-11-08T08:00:00	5	Humedad	73
44533	7	Sololá	717	San Juan la Laguna	12	San Juan la Laguna	3	Marzo	2023-03-27T00:00:00	2024-11-08T08:00:00	6	Velocidad del viento	0
44534	7	Sololá	717	San Juan la Laguna	12	San Juan la Laguna	3	Marzo	2023-03-27T00:00:00	2024-11-08T08:00:00	7	Dirección del viento	0
44535	7	Sololá	717	San Juan la Laguna	12	San Juan la Laguna	3	Marzo	2023-03-27T00:00:00	2024-11-08T08:00:00	1	Precipitación	0
44536	7	Sololá	717	San Juan la Laguna	12	San Juan la Laguna	3	Marzo	2023-03-27T00:00:00	2024-11-08T08:00:00	8	Radiación solar	214
44537	7	Sololá	717	San Juan la Laguna	12	San Juan la Laguna	3	Marzo	2023-03-27T00:00:00	2024-11-08T09:00:00	2	Temperatura media	20.2
44538	7	Sololá	717	San Juan la Laguna	12	San Juan la Laguna	3	Marzo	2023-03-27T00:00:00	2024-11-08T09:00:00	4	Temperatura máxima	20.4
44539	7	Sololá	717	San Juan la Laguna	12	San Juan la Laguna	3	Marzo	2023-03-27T00:00:00	2024-11-08T09:00:00	3	Temperatura mínima	19.6
44540	7	Sololá	717	San Juan la Laguna	12	San Juan la Laguna	3	Marzo	2023-03-27T00:00:00	2024-11-08T09:00:00	5	Humedad	70
44541	7	Sololá	717	San Juan la Laguna	12	San Juan la Laguna	3	Marzo	2023-03-27T00:00:00	2024-11-08T09:00:00	6	Velocidad del viento	1.6
44542	7	Sololá	717	San Juan la Laguna	12	San Juan la Laguna	3	Marzo	2023-03-27T00:00:00	2024-11-08T09:00:00	7	Dirección del viento	1.61
44543	7	Sololá	717	San Juan la Laguna	12	San Juan la Laguna	3	Marzo	2023-03-27T00:00:00	2024-11-08T09:00:00	1	Precipitación	0
44544	7	Sololá	717	San Juan la Laguna	12	San Juan la Laguna	3	Marzo	2023-03-27T00:00:00	2024-11-08T09:00:00	8	Radiación solar	441
44545	7	Sololá	717	San Juan la Laguna	12	San Juan la Laguna	3	Marzo	2023-03-27T00:00:00	2024-11-08T10:00:00	2	Temperatura media	21.1
44546	7	Sololá	717	San Juan la Laguna	12	San Juan la Laguna	3	Marzo	2023-03-27T00:00:00	2024-11-08T10:00:00	4	Temperatura máxima	21.1
44547	7	Sololá	717	San Juan la Laguna	12	San Juan la Laguna	3	Marzo	2023-03-27T00:00:00	2024-11-08T10:00:00	3	Temperatura mínima	20.2
44548	7	Sololá	717	San Juan la Laguna	12	San Juan la Laguna	3	Marzo	2023-03-27T00:00:00	2024-11-08T10:00:00	5	Humedad	66
44549	7	Sololá	717	San Juan la Laguna	12	San Juan la Laguna	3	Marzo	2023-03-27T00:00:00	2024-11-08T10:00:00	6	Velocidad del viento	1.6
44550	7	Sololá	717	San Juan la Laguna	12	San Juan la Laguna	3	Marzo	2023-03-27T00:00:00	2024-11-08T10:00:00	7	Dirección del viento	1.61
44551	7	Sololá	717	San Juan la Laguna	12	San Juan la Laguna	3	Marzo	2023-03-27T00:00:00	2024-11-08T10:00:00	1	Precipitación	0
44552	7	Sololá	717	San Juan la Laguna	12	San Juan la Laguna	3	Marzo	2023-03-27T00:00:00	2024-11-08T10:00:00	8	Radiación solar	701
44553	7	Sololá	717	San Juan la Laguna	12	San Juan la Laguna	3	Marzo	2023-03-27T00:00:00	2024-11-08T11:00:00	2	Temperatura media	22.7
44554	7	Sololá	717	San Juan la Laguna	12	San Juan la Laguna	3	Marzo	2023-03-27T00:00:00	2024-11-08T11:00:00	4	Temperatura máxima	22.7
44555	7	Sololá	717	San Juan la Laguna	12	San Juan la Laguna	3	Marzo	2023-03-27T00:00:00	2024-11-08T11:00:00	3	Temperatura mínima	21
44556	7	Sololá	717	San Juan la Laguna	12	San Juan la Laguna	3	Marzo	2023-03-27T00:00:00	2024-11-08T11:00:00	5	Humedad	58
44557	7	Sololá	717	San Juan la Laguna	12	San Juan la Laguna	3	Marzo	2023-03-27T00:00:00	2024-11-08T11:00:00	6	Velocidad del viento	1.6
44558	7	Sololá	717	San Juan la Laguna	12	San Juan la Laguna	3	Marzo	2023-03-27T00:00:00	2024-11-08T11:00:00	7	Dirección del viento	1.61
44559	7	Sololá	717	San Juan la Laguna	12	San Juan la Laguna	3	Marzo	2023-03-27T00:00:00	2024-11-08T11:00:00	1	Precipitación	0
44560	7	Sololá	717	San Juan la Laguna	12	San Juan la Laguna	3	Marzo	2023-03-27T00:00:00	2024-11-08T11:00:00	8	Radiación solar	851
44561	7	Sololá	717	San Juan la Laguna	12	San Juan la Laguna	3	Marzo	2023-03-27T00:00:00	2024-11-08T12:00:00	2	Temperatura media	22.8
44562	7	Sololá	717	San Juan la Laguna	12	San Juan la Laguna	3	Marzo	2023-03-27T00:00:00	2024-11-08T12:00:00	4	Temperatura máxima	23.4
44563	7	Sololá	717	San Juan la Laguna	12	San Juan la Laguna	3	Marzo	2023-03-27T00:00:00	2024-11-08T12:00:00	3	Temperatura mínima	22.1
44564	7	Sololá	717	San Juan la Laguna	12	San Juan la Laguna	3	Marzo	2023-03-27T00:00:00	2024-11-08T12:00:00	5	Humedad	63
44565	7	Sololá	717	San Juan la Laguna	12	San Juan la Laguna	3	Marzo	2023-03-27T00:00:00	2024-11-08T12:00:00	6	Velocidad del viento	1.6
44566	7	Sololá	717	San Juan la Laguna	12	San Juan la Laguna	3	Marzo	2023-03-27T00:00:00	2024-11-08T12:00:00	7	Dirección del viento	1.61
44567	7	Sololá	717	San Juan la Laguna	12	San Juan la Laguna	3	Marzo	2023-03-27T00:00:00	2024-11-08T12:00:00	1	Precipitación	0
44568	7	Sololá	717	San Juan la Laguna	12	San Juan la Laguna	3	Marzo	2023-03-27T00:00:00	2024-11-08T12:00:00	8	Radiación solar	965
44569	7	Sololá	717	San Juan la Laguna	12	San Juan la Laguna	3	Marzo	2023-03-27T00:00:00	2024-11-08T13:00:00	2	Temperatura media	22.9
44570	7	Sololá	717	San Juan la Laguna	12	San Juan la Laguna	3	Marzo	2023-03-27T00:00:00	2024-11-08T13:00:00	4	Temperatura máxima	24
44571	7	Sololá	717	San Juan la Laguna	12	San Juan la Laguna	3	Marzo	2023-03-27T00:00:00	2024-11-08T13:00:00	3	Temperatura mínima	22.2
44572	7	Sololá	717	San Juan la Laguna	12	San Juan la Laguna	3	Marzo	2023-03-27T00:00:00	2024-11-08T13:00:00	5	Humedad	66
44573	7	Sololá	717	San Juan la Laguna	12	San Juan la Laguna	3	Marzo	2023-03-27T00:00:00	2024-11-08T13:00:00	6	Velocidad del viento	3.2
44574	7	Sololá	717	San Juan la Laguna	12	San Juan la Laguna	3	Marzo	2023-03-27T00:00:00	2024-11-08T13:00:00	7	Dirección del viento	3.22
44575	7	Sololá	717	San Juan la Laguna	12	San Juan la Laguna	3	Marzo	2023-03-27T00:00:00	2024-11-08T13:00:00	1	Precipitación	0
44576	7	Sololá	717	San Juan la Laguna	12	San Juan la Laguna	3	Marzo	2023-03-27T00:00:00	2024-11-08T13:00:00	8	Radiación solar	959
44577	7	Sololá	717	San Juan la Laguna	12	San Juan la Laguna	3	Marzo	2023-03-27T00:00:00	2024-11-08T14:00:00	2	Temperatura media	22.7
44578	7	Sololá	717	San Juan la Laguna	12	San Juan la Laguna	3	Marzo	2023-03-27T00:00:00	2024-11-08T14:00:00	4	Temperatura máxima	23.1
44579	7	Sololá	717	San Juan la Laguna	12	San Juan la Laguna	3	Marzo	2023-03-27T00:00:00	2024-11-08T14:00:00	3	Temperatura mínima	22.3
44580	7	Sololá	717	San Juan la Laguna	12	San Juan la Laguna	3	Marzo	2023-03-27T00:00:00	2024-11-08T14:00:00	5	Humedad	67
44581	7	Sololá	717	San Juan la Laguna	12	San Juan la Laguna	3	Marzo	2023-03-27T00:00:00	2024-11-08T14:00:00	6	Velocidad del viento	8
44582	7	Sololá	717	San Juan la Laguna	12	San Juan la Laguna	3	Marzo	2023-03-27T00:00:00	2024-11-08T14:00:00	7	Dirección del viento	8.05
44583	7	Sololá	717	San Juan la Laguna	12	San Juan la Laguna	3	Marzo	2023-03-27T00:00:00	2024-11-08T14:00:00	1	Precipitación	0
44584	7	Sololá	717	San Juan la Laguna	12	San Juan la Laguna	3	Marzo	2023-03-27T00:00:00	2024-11-08T14:00:00	8	Radiación solar	966
44585	7	Sololá	717	San Juan la Laguna	12	San Juan la Laguna	3	Marzo	2023-03-27T00:00:00	2024-11-08T15:00:00	2	Temperatura media	22.1
44586	7	Sololá	717	San Juan la Laguna	12	San Juan la Laguna	3	Marzo	2023-03-27T00:00:00	2024-11-08T15:00:00	4	Temperatura máxima	22.8
44587	7	Sololá	717	San Juan la Laguna	12	San Juan la Laguna	3	Marzo	2023-03-27T00:00:00	2024-11-08T15:00:00	3	Temperatura mínima	22.1
44588	7	Sololá	717	San Juan la Laguna	12	San Juan la Laguna	3	Marzo	2023-03-27T00:00:00	2024-11-08T15:00:00	5	Humedad	70
44589	7	Sololá	717	San Juan la Laguna	12	San Juan la Laguna	3	Marzo	2023-03-27T00:00:00	2024-11-08T15:00:00	6	Velocidad del viento	6.4
44590	7	Sololá	717	San Juan la Laguna	12	San Juan la Laguna	3	Marzo	2023-03-27T00:00:00	2024-11-08T15:00:00	7	Dirección del viento	6.44
44591	7	Sololá	717	San Juan la Laguna	12	San Juan la Laguna	3	Marzo	2023-03-27T00:00:00	2024-11-08T15:00:00	1	Precipitación	0
44592	7	Sololá	717	San Juan la Laguna	12	San Juan la Laguna	3	Marzo	2023-03-27T00:00:00	2024-11-08T15:00:00	8	Radiación solar	790
44593	7	Sololá	717	San Juan la Laguna	12	San Juan la Laguna	3	Marzo	2023-03-27T00:00:00	2024-11-08T16:00:00	2	Temperatura media	22.6
44594	7	Sololá	717	San Juan la Laguna	12	San Juan la Laguna	3	Marzo	2023-03-27T00:00:00	2024-11-08T16:00:00	4	Temperatura máxima	22.6
44595	7	Sololá	717	San Juan la Laguna	12	San Juan la Laguna	3	Marzo	2023-03-27T00:00:00	2024-11-08T16:00:00	3	Temperatura mínima	21.9
44596	7	Sololá	717	San Juan la Laguna	12	San Juan la Laguna	3	Marzo	2023-03-27T00:00:00	2024-11-08T16:00:00	5	Humedad	67
44597	7	Sololá	717	San Juan la Laguna	12	San Juan la Laguna	3	Marzo	2023-03-27T00:00:00	2024-11-08T16:00:00	6	Velocidad del viento	4.8
44598	7	Sololá	717	San Juan la Laguna	12	San Juan la Laguna	3	Marzo	2023-03-27T00:00:00	2024-11-08T16:00:00	7	Dirección del viento	4.83
44599	7	Sololá	717	San Juan la Laguna	12	San Juan la Laguna	3	Marzo	2023-03-27T00:00:00	2024-11-08T16:00:00	1	Precipitación	0
44600	7	Sololá	717	San Juan la Laguna	12	San Juan la Laguna	3	Marzo	2023-03-27T00:00:00	2024-11-08T16:00:00	8	Radiación solar	581
44601	7	Sololá	717	San Juan la Laguna	12	San Juan la Laguna	3	Marzo	2023-03-27T00:00:00	2024-11-08T17:00:00	2	Temperatura media	21.3
44602	7	Sololá	717	San Juan la Laguna	12	San Juan la Laguna	3	Marzo	2023-03-27T00:00:00	2024-11-08T17:00:00	4	Temperatura máxima	23.2
44603	7	Sololá	717	San Juan la Laguna	12	San Juan la Laguna	3	Marzo	2023-03-27T00:00:00	2024-11-08T17:00:00	3	Temperatura mínima	21.3
44604	7	Sololá	717	San Juan la Laguna	12	San Juan la Laguna	3	Marzo	2023-03-27T00:00:00	2024-11-08T17:00:00	5	Humedad	73
44605	7	Sololá	717	San Juan la Laguna	12	San Juan la Laguna	3	Marzo	2023-03-27T00:00:00	2024-11-08T17:00:00	6	Velocidad del viento	3.2
44606	7	Sololá	717	San Juan la Laguna	12	San Juan la Laguna	3	Marzo	2023-03-27T00:00:00	2024-11-08T17:00:00	7	Dirección del viento	3.22
44607	7	Sololá	717	San Juan la Laguna	12	San Juan la Laguna	3	Marzo	2023-03-27T00:00:00	2024-11-08T17:00:00	1	Precipitación	0
44608	7	Sololá	717	San Juan la Laguna	12	San Juan la Laguna	3	Marzo	2023-03-27T00:00:00	2024-11-08T17:00:00	8	Radiación solar	323
44609	7	Sololá	717	San Juan la Laguna	12	San Juan la Laguna	3	Marzo	2023-03-27T00:00:00	2024-11-08T18:00:00	2	Temperatura media	20.7
44610	7	Sololá	717	San Juan la Laguna	12	San Juan la Laguna	3	Marzo	2023-03-27T00:00:00	2024-11-08T18:00:00	4	Temperatura máxima	21.3
44611	7	Sololá	717	San Juan la Laguna	12	San Juan la Laguna	3	Marzo	2023-03-27T00:00:00	2024-11-08T18:00:00	3	Temperatura mínima	20.7
44612	7	Sololá	717	San Juan la Laguna	12	San Juan la Laguna	3	Marzo	2023-03-27T00:00:00	2024-11-08T18:00:00	5	Humedad	76
44613	7	Sololá	717	San Juan la Laguna	12	San Juan la Laguna	3	Marzo	2023-03-27T00:00:00	2024-11-08T18:00:00	6	Velocidad del viento	0
44614	7	Sololá	717	San Juan la Laguna	12	San Juan la Laguna	3	Marzo	2023-03-27T00:00:00	2024-11-08T18:00:00	7	Dirección del viento	0
44615	7	Sololá	717	San Juan la Laguna	12	San Juan la Laguna	3	Marzo	2023-03-27T00:00:00	2024-11-08T18:00:00	1	Precipitación	0
44616	7	Sololá	717	San Juan la Laguna	12	San Juan la Laguna	3	Marzo	2023-03-27T00:00:00	2024-11-08T18:00:00	8	Radiación solar	60
44617	7	Sololá	717	San Juan la Laguna	12	San Juan la Laguna	3	Marzo	2023-03-27T00:00:00	2024-11-08T19:00:00	2	Temperatura media	19.6
44618	7	Sololá	717	San Juan la Laguna	12	San Juan la Laguna	3	Marzo	2023-03-27T00:00:00	2024-11-08T19:00:00	4	Temperatura máxima	20.7
44619	7	Sololá	717	San Juan la Laguna	12	San Juan la Laguna	3	Marzo	2023-03-27T00:00:00	2024-11-08T19:00:00	3	Temperatura mínima	19.6
44620	7	Sololá	717	San Juan la Laguna	12	San Juan la Laguna	3	Marzo	2023-03-27T00:00:00	2024-11-08T19:00:00	5	Humedad	81
44621	7	Sololá	717	San Juan la Laguna	12	San Juan la Laguna	3	Marzo	2023-03-27T00:00:00	2024-11-08T19:00:00	6	Velocidad del viento	0
44622	7	Sololá	717	San Juan la Laguna	12	San Juan la Laguna	3	Marzo	2023-03-27T00:00:00	2024-11-08T19:00:00	7	Dirección del viento	0
44623	7	Sololá	717	San Juan la Laguna	12	San Juan la Laguna	3	Marzo	2023-03-27T00:00:00	2024-11-08T19:00:00	1	Precipitación	0
44624	7	Sololá	717	San Juan la Laguna	12	San Juan la Laguna	3	Marzo	2023-03-27T00:00:00	2024-11-08T19:00:00	8	Radiación solar	0
44625	7	Sololá	717	San Juan la Laguna	12	San Juan la Laguna	3	Marzo	2023-03-27T00:00:00	2024-11-08T20:00:00	2	Temperatura media	19.2
44626	7	Sololá	717	San Juan la Laguna	12	San Juan la Laguna	3	Marzo	2023-03-27T00:00:00	2024-11-08T20:00:00	4	Temperatura máxima	19.6
44627	7	Sololá	717	San Juan la Laguna	12	San Juan la Laguna	3	Marzo	2023-03-27T00:00:00	2024-11-08T20:00:00	3	Temperatura mínima	19.1
44628	7	Sololá	717	San Juan la Laguna	12	San Juan la Laguna	3	Marzo	2023-03-27T00:00:00	2024-11-08T20:00:00	5	Humedad	83
44629	7	Sololá	717	San Juan la Laguna	12	San Juan la Laguna	3	Marzo	2023-03-27T00:00:00	2024-11-08T20:00:00	6	Velocidad del viento	0
44630	7	Sololá	717	San Juan la Laguna	12	San Juan la Laguna	3	Marzo	2023-03-27T00:00:00	2024-11-08T20:00:00	7	Dirección del viento	0
44631	7	Sololá	717	San Juan la Laguna	12	San Juan la Laguna	3	Marzo	2023-03-27T00:00:00	2024-11-08T20:00:00	1	Precipitación	0
44632	7	Sololá	717	San Juan la Laguna	12	San Juan la Laguna	3	Marzo	2023-03-27T00:00:00	2024-11-08T20:00:00	8	Radiación solar	0
44633	7	Sololá	717	San Juan la Laguna	12	San Juan la Laguna	3	Marzo	2023-03-27T00:00:00	2024-11-08T21:00:00	2	Temperatura media	19.2
44634	7	Sololá	717	San Juan la Laguna	12	San Juan la Laguna	3	Marzo	2023-03-27T00:00:00	2024-11-08T21:00:00	4	Temperatura máxima	19.3
44635	7	Sololá	717	San Juan la Laguna	12	San Juan la Laguna	3	Marzo	2023-03-27T00:00:00	2024-11-08T21:00:00	3	Temperatura mínima	19.1
44636	7	Sololá	717	San Juan la Laguna	12	San Juan la Laguna	3	Marzo	2023-03-27T00:00:00	2024-11-08T21:00:00	5	Humedad	83
44637	7	Sololá	717	San Juan la Laguna	12	San Juan la Laguna	3	Marzo	2023-03-27T00:00:00	2024-11-08T21:00:00	6	Velocidad del viento	0
44638	7	Sololá	717	San Juan la Laguna	12	San Juan la Laguna	3	Marzo	2023-03-27T00:00:00	2024-11-08T21:00:00	7	Dirección del viento	0
44639	7	Sololá	717	San Juan la Laguna	12	San Juan la Laguna	3	Marzo	2023-03-27T00:00:00	2024-11-08T21:00:00	1	Precipitación	0
44640	7	Sololá	717	San Juan la Laguna	12	San Juan la Laguna	3	Marzo	2023-03-27T00:00:00	2024-11-08T21:00:00	8	Radiación solar	0
44641	7	Sololá	717	San Juan la Laguna	12	San Juan la Laguna	3	Marzo	2023-03-27T00:00:00	2024-11-08T22:00:00	2	Temperatura media	18.2
44642	7	Sololá	717	San Juan la Laguna	12	San Juan la Laguna	3	Marzo	2023-03-27T00:00:00	2024-11-08T22:00:00	4	Temperatura máxima	19.2
44643	7	Sololá	717	San Juan la Laguna	12	San Juan la Laguna	3	Marzo	2023-03-27T00:00:00	2024-11-08T22:00:00	3	Temperatura mínima	18.2
44644	7	Sololá	717	San Juan la Laguna	12	San Juan la Laguna	3	Marzo	2023-03-27T00:00:00	2024-11-08T22:00:00	5	Humedad	86
44645	7	Sololá	717	San Juan la Laguna	12	San Juan la Laguna	3	Marzo	2023-03-27T00:00:00	2024-11-08T22:00:00	6	Velocidad del viento	0
44646	7	Sololá	717	San Juan la Laguna	12	San Juan la Laguna	3	Marzo	2023-03-27T00:00:00	2024-11-08T22:00:00	7	Dirección del viento	0
44647	7	Sololá	717	San Juan la Laguna	12	San Juan la Laguna	3	Marzo	2023-03-27T00:00:00	2024-11-08T22:00:00	1	Precipitación	0
44648	7	Sololá	717	San Juan la Laguna	12	San Juan la Laguna	3	Marzo	2023-03-27T00:00:00	2024-11-08T22:00:00	8	Radiación solar	0
44649	7	Sololá	717	San Juan la Laguna	12	San Juan la Laguna	3	Marzo	2023-03-27T00:00:00	2024-11-08T23:00:00	2	Temperatura media	18
44650	7	Sololá	717	San Juan la Laguna	12	San Juan la Laguna	3	Marzo	2023-03-27T00:00:00	2024-11-08T23:00:00	4	Temperatura máxima	18.2
44651	7	Sololá	717	San Juan la Laguna	12	San Juan la Laguna	3	Marzo	2023-03-27T00:00:00	2024-11-08T23:00:00	3	Temperatura mínima	17.9
44652	7	Sololá	717	San Juan la Laguna	12	San Juan la Laguna	3	Marzo	2023-03-27T00:00:00	2024-11-08T23:00:00	5	Humedad	86
44653	7	Sololá	717	San Juan la Laguna	12	San Juan la Laguna	3	Marzo	2023-03-27T00:00:00	2024-11-08T23:00:00	6	Velocidad del viento	0
44654	7	Sololá	717	San Juan la Laguna	12	San Juan la Laguna	3	Marzo	2023-03-27T00:00:00	2024-11-08T23:00:00	7	Dirección del viento	0
44655	7	Sololá	717	San Juan la Laguna	12	San Juan la Laguna	3	Marzo	2023-03-27T00:00:00	2024-11-08T23:00:00	1	Precipitación	0
44656	7	Sololá	717	San Juan la Laguna	12	San Juan la Laguna	3	Marzo	2023-03-27T00:00:00	2024-11-08T23:00:00	8	Radiación solar	0
44657	7	Sololá	717	San Juan la Laguna	12	San Juan la Laguna	3	Marzo	2023-03-28T00:00:00	2024-11-08T00:00:00	2	Temperatura media	16.7
44658	7	Sololá	717	San Juan la Laguna	12	San Juan la Laguna	3	Marzo	2023-03-28T00:00:00	2024-11-08T00:00:00	4	Temperatura máxima	18.2
44659	7	Sololá	717	San Juan la Laguna	12	San Juan la Laguna	3	Marzo	2023-03-28T00:00:00	2024-11-08T00:00:00	3	Temperatura mínima	16.7
44660	7	Sololá	717	San Juan la Laguna	12	San Juan la Laguna	3	Marzo	2023-03-28T00:00:00	2024-11-08T00:00:00	5	Humedad	88
44661	7	Sololá	717	San Juan la Laguna	12	San Juan la Laguna	3	Marzo	2023-03-28T00:00:00	2024-11-08T00:00:00	6	Velocidad del viento	1.6
44662	7	Sololá	717	San Juan la Laguna	12	San Juan la Laguna	3	Marzo	2023-03-28T00:00:00	2024-11-08T00:00:00	7	Dirección del viento	1.61
44663	7	Sololá	717	San Juan la Laguna	12	San Juan la Laguna	3	Marzo	2023-03-28T00:00:00	2024-11-08T00:00:00	1	Precipitación	0
44664	7	Sololá	717	San Juan la Laguna	12	San Juan la Laguna	3	Marzo	2023-03-28T00:00:00	2024-11-08T00:00:00	8	Radiación solar	0
44665	7	Sololá	717	San Juan la Laguna	12	San Juan la Laguna	3	Marzo	2023-03-28T00:00:00	2024-11-08T01:00:00	2	Temperatura media	16.8
44666	7	Sololá	717	San Juan la Laguna	12	San Juan la Laguna	3	Marzo	2023-03-28T00:00:00	2024-11-08T01:00:00	4	Temperatura máxima	17
44667	7	Sololá	717	San Juan la Laguna	12	San Juan la Laguna	3	Marzo	2023-03-28T00:00:00	2024-11-08T01:00:00	3	Temperatura mínima	16.4
44668	7	Sololá	717	San Juan la Laguna	12	San Juan la Laguna	3	Marzo	2023-03-28T00:00:00	2024-11-08T01:00:00	5	Humedad	86
44669	7	Sololá	717	San Juan la Laguna	12	San Juan la Laguna	3	Marzo	2023-03-28T00:00:00	2024-11-08T01:00:00	6	Velocidad del viento	1.6
44670	7	Sololá	717	San Juan la Laguna	12	San Juan la Laguna	3	Marzo	2023-03-28T00:00:00	2024-11-08T01:00:00	7	Dirección del viento	1.61
44671	7	Sololá	717	San Juan la Laguna	12	San Juan la Laguna	3	Marzo	2023-03-28T00:00:00	2024-11-08T01:00:00	1	Precipitación	0
44672	7	Sololá	717	San Juan la Laguna	12	San Juan la Laguna	3	Marzo	2023-03-28T00:00:00	2024-11-08T01:00:00	8	Radiación solar	0
44673	7	Sololá	717	San Juan la Laguna	12	San Juan la Laguna	3	Marzo	2023-03-28T00:00:00	2024-11-08T02:00:00	2	Temperatura media	16.4
44674	7	Sololá	717	San Juan la Laguna	12	San Juan la Laguna	3	Marzo	2023-03-28T00:00:00	2024-11-08T02:00:00	4	Temperatura máxima	16.8
44675	7	Sololá	717	San Juan la Laguna	12	San Juan la Laguna	3	Marzo	2023-03-28T00:00:00	2024-11-08T02:00:00	3	Temperatura mínima	16.4
44676	7	Sololá	717	San Juan la Laguna	12	San Juan la Laguna	3	Marzo	2023-03-28T00:00:00	2024-11-08T02:00:00	5	Humedad	85
44677	7	Sololá	717	San Juan la Laguna	12	San Juan la Laguna	3	Marzo	2023-03-28T00:00:00	2024-11-08T02:00:00	6	Velocidad del viento	1.6
44678	7	Sololá	717	San Juan la Laguna	12	San Juan la Laguna	3	Marzo	2023-03-28T00:00:00	2024-11-08T02:00:00	7	Dirección del viento	1.61
44679	7	Sololá	717	San Juan la Laguna	12	San Juan la Laguna	3	Marzo	2023-03-28T00:00:00	2024-11-08T02:00:00	1	Precipitación	0
44680	7	Sololá	717	San Juan la Laguna	12	San Juan la Laguna	3	Marzo	2023-03-28T00:00:00	2024-11-08T02:00:00	8	Radiación solar	0
44681	7	Sololá	717	San Juan la Laguna	12	San Juan la Laguna	3	Marzo	2023-03-28T00:00:00	2024-11-08T03:00:00	2	Temperatura media	15.9
44682	7	Sololá	717	San Juan la Laguna	12	San Juan la Laguna	3	Marzo	2023-03-28T00:00:00	2024-11-08T03:00:00	4	Temperatura máxima	16.4
44683	7	Sololá	717	San Juan la Laguna	12	San Juan la Laguna	3	Marzo	2023-03-28T00:00:00	2024-11-08T03:00:00	3	Temperatura mínima	15.9
44684	7	Sololá	717	San Juan la Laguna	12	San Juan la Laguna	3	Marzo	2023-03-28T00:00:00	2024-11-08T03:00:00	5	Humedad	84
44685	7	Sololá	717	San Juan la Laguna	12	San Juan la Laguna	3	Marzo	2023-03-28T00:00:00	2024-11-08T03:00:00	6	Velocidad del viento	1.6
44686	7	Sololá	717	San Juan la Laguna	12	San Juan la Laguna	3	Marzo	2023-03-28T00:00:00	2024-11-08T03:00:00	7	Dirección del viento	1.61
44687	7	Sololá	717	San Juan la Laguna	12	San Juan la Laguna	3	Marzo	2023-03-28T00:00:00	2024-11-08T03:00:00	1	Precipitación	0
44688	7	Sololá	717	San Juan la Laguna	12	San Juan la Laguna	3	Marzo	2023-03-28T00:00:00	2024-11-08T03:00:00	8	Radiación solar	0
44689	7	Sololá	717	San Juan la Laguna	12	San Juan la Laguna	3	Marzo	2023-03-28T00:00:00	2024-11-08T04:00:00	2	Temperatura media	15.8
44690	7	Sololá	717	San Juan la Laguna	12	San Juan la Laguna	3	Marzo	2023-03-28T00:00:00	2024-11-08T04:00:00	4	Temperatura máxima	16.3
44691	7	Sololá	717	San Juan la Laguna	12	San Juan la Laguna	3	Marzo	2023-03-28T00:00:00	2024-11-08T04:00:00	3	Temperatura mínima	15.7
44692	7	Sololá	717	San Juan la Laguna	12	San Juan la Laguna	3	Marzo	2023-03-28T00:00:00	2024-11-08T04:00:00	5	Humedad	84
44693	7	Sololá	717	San Juan la Laguna	12	San Juan la Laguna	3	Marzo	2023-03-28T00:00:00	2024-11-08T04:00:00	6	Velocidad del viento	1.6
44694	7	Sololá	717	San Juan la Laguna	12	San Juan la Laguna	3	Marzo	2023-03-28T00:00:00	2024-11-08T04:00:00	7	Dirección del viento	1.61
44695	7	Sololá	717	San Juan la Laguna	12	San Juan la Laguna	3	Marzo	2023-03-28T00:00:00	2024-11-08T04:00:00	1	Precipitación	0
44696	7	Sololá	717	San Juan la Laguna	12	San Juan la Laguna	3	Marzo	2023-03-28T00:00:00	2024-11-08T04:00:00	8	Radiación solar	0
44697	7	Sololá	717	San Juan la Laguna	12	San Juan la Laguna	3	Marzo	2023-03-28T00:00:00	2024-11-08T05:00:00	2	Temperatura media	15.2
44698	7	Sololá	717	San Juan la Laguna	12	San Juan la Laguna	3	Marzo	2023-03-28T00:00:00	2024-11-08T05:00:00	4	Temperatura máxima	15.8
44699	7	Sololá	717	San Juan la Laguna	12	San Juan la Laguna	3	Marzo	2023-03-28T00:00:00	2024-11-08T05:00:00	3	Temperatura mínima	14.9
44700	7	Sololá	717	San Juan la Laguna	12	San Juan la Laguna	3	Marzo	2023-03-28T00:00:00	2024-11-08T05:00:00	5	Humedad	84
44701	7	Sololá	717	San Juan la Laguna	12	San Juan la Laguna	3	Marzo	2023-03-28T00:00:00	2024-11-08T05:00:00	6	Velocidad del viento	1.6
44702	7	Sololá	717	San Juan la Laguna	12	San Juan la Laguna	3	Marzo	2023-03-28T00:00:00	2024-11-08T05:00:00	7	Dirección del viento	1.61
44703	7	Sololá	717	San Juan la Laguna	12	San Juan la Laguna	3	Marzo	2023-03-28T00:00:00	2024-11-08T05:00:00	1	Precipitación	0
44704	7	Sololá	717	San Juan la Laguna	12	San Juan la Laguna	3	Marzo	2023-03-28T00:00:00	2024-11-08T05:00:00	8	Radiación solar	0
44705	7	Sololá	717	San Juan la Laguna	12	San Juan la Laguna	3	Marzo	2023-03-28T00:00:00	2024-11-08T06:00:00	2	Temperatura media	15
44706	7	Sololá	717	San Juan la Laguna	12	San Juan la Laguna	3	Marzo	2023-03-28T00:00:00	2024-11-08T06:00:00	4	Temperatura máxima	15.2
44707	7	Sololá	717	San Juan la Laguna	12	San Juan la Laguna	3	Marzo	2023-03-28T00:00:00	2024-11-08T06:00:00	3	Temperatura mínima	14.9
44708	7	Sololá	717	San Juan la Laguna	12	San Juan la Laguna	3	Marzo	2023-03-28T00:00:00	2024-11-08T06:00:00	5	Humedad	84
44709	7	Sololá	717	San Juan la Laguna	12	San Juan la Laguna	3	Marzo	2023-03-28T00:00:00	2024-11-08T06:00:00	6	Velocidad del viento	1.6
44710	7	Sololá	717	San Juan la Laguna	12	San Juan la Laguna	3	Marzo	2023-03-28T00:00:00	2024-11-08T06:00:00	7	Dirección del viento	1.61
44711	7	Sololá	717	San Juan la Laguna	12	San Juan la Laguna	3	Marzo	2023-03-28T00:00:00	2024-11-08T06:00:00	1	Precipitación	0
44712	7	Sololá	717	San Juan la Laguna	12	San Juan la Laguna	3	Marzo	2023-03-28T00:00:00	2024-11-08T06:00:00	8	Radiación solar	0
44713	7	Sololá	717	San Juan la Laguna	12	San Juan la Laguna	3	Marzo	2023-03-28T00:00:00	2024-11-08T07:00:00	2	Temperatura media	15.5
44714	7	Sololá	717	San Juan la Laguna	12	San Juan la Laguna	3	Marzo	2023-03-28T00:00:00	2024-11-08T07:00:00	4	Temperatura máxima	15.5
44715	7	Sololá	717	San Juan la Laguna	12	San Juan la Laguna	3	Marzo	2023-03-28T00:00:00	2024-11-08T07:00:00	3	Temperatura mínima	14.9
44716	7	Sololá	717	San Juan la Laguna	12	San Juan la Laguna	3	Marzo	2023-03-28T00:00:00	2024-11-08T07:00:00	5	Humedad	85
44717	7	Sololá	717	San Juan la Laguna	12	San Juan la Laguna	3	Marzo	2023-03-28T00:00:00	2024-11-08T07:00:00	6	Velocidad del viento	1.6
44718	7	Sololá	717	San Juan la Laguna	12	San Juan la Laguna	3	Marzo	2023-03-28T00:00:00	2024-11-08T07:00:00	7	Dirección del viento	1.61
44719	7	Sololá	717	San Juan la Laguna	12	San Juan la Laguna	3	Marzo	2023-03-28T00:00:00	2024-11-08T07:00:00	1	Precipitación	0
44720	7	Sololá	717	San Juan la Laguna	12	San Juan la Laguna	3	Marzo	2023-03-28T00:00:00	2024-11-08T07:00:00	8	Radiación solar	21
44721	7	Sololá	717	San Juan la Laguna	12	San Juan la Laguna	3	Marzo	2023-03-28T00:00:00	2024-11-08T08:00:00	2	Temperatura media	18.2
44722	7	Sololá	717	San Juan la Laguna	12	San Juan la Laguna	3	Marzo	2023-03-28T00:00:00	2024-11-08T08:00:00	4	Temperatura máxima	18.2
44723	7	Sololá	717	San Juan la Laguna	12	San Juan la Laguna	3	Marzo	2023-03-28T00:00:00	2024-11-08T08:00:00	3	Temperatura mínima	15.4
44724	7	Sololá	717	San Juan la Laguna	12	San Juan la Laguna	3	Marzo	2023-03-28T00:00:00	2024-11-08T08:00:00	5	Humedad	80
44725	7	Sololá	717	San Juan la Laguna	12	San Juan la Laguna	3	Marzo	2023-03-28T00:00:00	2024-11-08T08:00:00	6	Velocidad del viento	1.6
44726	7	Sololá	717	San Juan la Laguna	12	San Juan la Laguna	3	Marzo	2023-03-28T00:00:00	2024-11-08T08:00:00	7	Dirección del viento	1.61
44727	7	Sololá	717	San Juan la Laguna	12	San Juan la Laguna	3	Marzo	2023-03-28T00:00:00	2024-11-08T08:00:00	1	Precipitación	0
44728	7	Sololá	717	San Juan la Laguna	12	San Juan la Laguna	3	Marzo	2023-03-28T00:00:00	2024-11-08T08:00:00	8	Radiación solar	134
44729	7	Sololá	717	San Juan la Laguna	12	San Juan la Laguna	3	Marzo	2023-03-28T00:00:00	2024-11-08T09:00:00	2	Temperatura media	21.2
44730	7	Sololá	717	San Juan la Laguna	12	San Juan la Laguna	3	Marzo	2023-03-28T00:00:00	2024-11-08T09:00:00	4	Temperatura máxima	21.5
44731	7	Sololá	717	San Juan la Laguna	12	San Juan la Laguna	3	Marzo	2023-03-28T00:00:00	2024-11-08T09:00:00	3	Temperatura mínima	18.3
44732	7	Sololá	717	San Juan la Laguna	12	San Juan la Laguna	3	Marzo	2023-03-28T00:00:00	2024-11-08T09:00:00	5	Humedad	72
44733	7	Sololá	717	San Juan la Laguna	12	San Juan la Laguna	3	Marzo	2023-03-28T00:00:00	2024-11-08T09:00:00	6	Velocidad del viento	1.6
44734	7	Sololá	717	San Juan la Laguna	12	San Juan la Laguna	3	Marzo	2023-03-28T00:00:00	2024-11-08T09:00:00	7	Dirección del viento	1.61
44735	7	Sololá	717	San Juan la Laguna	12	San Juan la Laguna	3	Marzo	2023-03-28T00:00:00	2024-11-08T09:00:00	1	Precipitación	0
44736	7	Sololá	717	San Juan la Laguna	12	San Juan la Laguna	3	Marzo	2023-03-28T00:00:00	2024-11-08T09:00:00	8	Radiación solar	410
44737	7	Sololá	717	San Juan la Laguna	12	San Juan la Laguna	3	Marzo	2023-03-28T00:00:00	2024-11-08T10:00:00	2	Temperatura media	21.6
44738	7	Sololá	717	San Juan la Laguna	12	San Juan la Laguna	3	Marzo	2023-03-28T00:00:00	2024-11-08T10:00:00	4	Temperatura máxima	21.6
44739	7	Sololá	717	San Juan la Laguna	12	San Juan la Laguna	3	Marzo	2023-03-28T00:00:00	2024-11-08T10:00:00	3	Temperatura mínima	20.9
44740	7	Sololá	717	San Juan la Laguna	12	San Juan la Laguna	3	Marzo	2023-03-28T00:00:00	2024-11-08T10:00:00	5	Humedad	70
44741	7	Sololá	717	San Juan la Laguna	12	San Juan la Laguna	3	Marzo	2023-03-28T00:00:00	2024-11-08T10:00:00	6	Velocidad del viento	1.6
44742	7	Sololá	717	San Juan la Laguna	12	San Juan la Laguna	3	Marzo	2023-03-28T00:00:00	2024-11-08T10:00:00	7	Dirección del viento	1.61
44743	7	Sololá	717	San Juan la Laguna	12	San Juan la Laguna	3	Marzo	2023-03-28T00:00:00	2024-11-08T10:00:00	1	Precipitación	0
44744	7	Sololá	717	San Juan la Laguna	12	San Juan la Laguna	3	Marzo	2023-03-28T00:00:00	2024-11-08T10:00:00	8	Radiación solar	692
44745	7	Sololá	717	San Juan la Laguna	12	San Juan la Laguna	3	Marzo	2023-03-28T00:00:00	2024-11-08T11:00:00	2	Temperatura media	22.4
44746	7	Sololá	717	San Juan la Laguna	12	San Juan la Laguna	3	Marzo	2023-03-28T00:00:00	2024-11-08T11:00:00	4	Temperatura máxima	22.6
44747	7	Sololá	717	San Juan la Laguna	12	San Juan la Laguna	3	Marzo	2023-03-28T00:00:00	2024-11-08T11:00:00	3	Temperatura mínima	21.4
44748	7	Sololá	717	San Juan la Laguna	12	San Juan la Laguna	3	Marzo	2023-03-28T00:00:00	2024-11-08T11:00:00	5	Humedad	67
44749	7	Sololá	717	San Juan la Laguna	12	San Juan la Laguna	3	Marzo	2023-03-28T00:00:00	2024-11-08T11:00:00	6	Velocidad del viento	1.6
44750	7	Sololá	717	San Juan la Laguna	12	San Juan la Laguna	3	Marzo	2023-03-28T00:00:00	2024-11-08T11:00:00	7	Dirección del viento	1.61
44751	7	Sololá	717	San Juan la Laguna	12	San Juan la Laguna	3	Marzo	2023-03-28T00:00:00	2024-11-08T11:00:00	1	Precipitación	0
44752	7	Sololá	717	San Juan la Laguna	12	San Juan la Laguna	3	Marzo	2023-03-28T00:00:00	2024-11-08T11:00:00	8	Radiación solar	860
44753	7	Sololá	717	San Juan la Laguna	12	San Juan la Laguna	3	Marzo	2023-03-28T00:00:00	2024-11-08T12:00:00	2	Temperatura media	23.6
44754	7	Sololá	717	San Juan la Laguna	12	San Juan la Laguna	3	Marzo	2023-03-28T00:00:00	2024-11-08T12:00:00	4	Temperatura máxima	23.6
44755	7	Sololá	717	San Juan la Laguna	12	San Juan la Laguna	3	Marzo	2023-03-28T00:00:00	2024-11-08T12:00:00	3	Temperatura mínima	22.4
44756	7	Sololá	717	San Juan la Laguna	12	San Juan la Laguna	3	Marzo	2023-03-28T00:00:00	2024-11-08T12:00:00	5	Humedad	64
44757	7	Sololá	717	San Juan la Laguna	12	San Juan la Laguna	3	Marzo	2023-03-28T00:00:00	2024-11-08T12:00:00	6	Velocidad del viento	1.6
44758	7	Sololá	717	San Juan la Laguna	12	San Juan la Laguna	3	Marzo	2023-03-28T00:00:00	2024-11-08T12:00:00	7	Dirección del viento	1.61
44759	7	Sololá	717	San Juan la Laguna	12	San Juan la Laguna	3	Marzo	2023-03-28T00:00:00	2024-11-08T12:00:00	1	Precipitación	0
44760	7	Sololá	717	San Juan la Laguna	12	San Juan la Laguna	3	Marzo	2023-03-28T00:00:00	2024-11-08T12:00:00	8	Radiación solar	950
44761	7	Sololá	717	San Juan la Laguna	12	San Juan la Laguna	3	Marzo	2023-03-28T00:00:00	2024-11-08T13:00:00	2	Temperatura media	22.7
44762	7	Sololá	717	San Juan la Laguna	12	San Juan la Laguna	3	Marzo	2023-03-28T00:00:00	2024-11-08T13:00:00	4	Temperatura máxima	24.3
44763	7	Sololá	717	San Juan la Laguna	12	San Juan la Laguna	3	Marzo	2023-03-28T00:00:00	2024-11-08T13:00:00	3	Temperatura mínima	22.6
44764	7	Sololá	717	San Juan la Laguna	12	San Juan la Laguna	3	Marzo	2023-03-28T00:00:00	2024-11-08T13:00:00	5	Humedad	69
44765	7	Sololá	717	San Juan la Laguna	12	San Juan la Laguna	3	Marzo	2023-03-28T00:00:00	2024-11-08T13:00:00	6	Velocidad del viento	4.8
44766	7	Sololá	717	San Juan la Laguna	12	San Juan la Laguna	3	Marzo	2023-03-28T00:00:00	2024-11-08T13:00:00	7	Dirección del viento	4.83
44767	7	Sololá	717	San Juan la Laguna	12	San Juan la Laguna	3	Marzo	2023-03-28T00:00:00	2024-11-08T13:00:00	1	Precipitación	0
44768	7	Sololá	717	San Juan la Laguna	12	San Juan la Laguna	3	Marzo	2023-03-28T00:00:00	2024-11-08T13:00:00	8	Radiación solar	807
44769	7	Sololá	717	San Juan la Laguna	12	San Juan la Laguna	3	Marzo	2023-03-28T00:00:00	2024-11-08T14:00:00	2	Temperatura media	23.1
44770	7	Sololá	717	San Juan la Laguna	12	San Juan la Laguna	3	Marzo	2023-03-28T00:00:00	2024-11-08T14:00:00	4	Temperatura máxima	23.5
44771	7	Sololá	717	San Juan la Laguna	12	San Juan la Laguna	3	Marzo	2023-03-28T00:00:00	2024-11-08T14:00:00	3	Temperatura mínima	22.4
44772	7	Sololá	717	San Juan la Laguna	12	San Juan la Laguna	3	Marzo	2023-03-28T00:00:00	2024-11-08T14:00:00	5	Humedad	68
44773	7	Sololá	717	San Juan la Laguna	12	San Juan la Laguna	3	Marzo	2023-03-28T00:00:00	2024-11-08T14:00:00	6	Velocidad del viento	6.4
44774	7	Sololá	717	San Juan la Laguna	12	San Juan la Laguna	3	Marzo	2023-03-28T00:00:00	2024-11-08T14:00:00	7	Dirección del viento	6.44
44775	7	Sololá	717	San Juan la Laguna	12	San Juan la Laguna	3	Marzo	2023-03-28T00:00:00	2024-11-08T14:00:00	1	Precipitación	0
44776	7	Sololá	717	San Juan la Laguna	12	San Juan la Laguna	3	Marzo	2023-03-28T00:00:00	2024-11-08T14:00:00	8	Radiación solar	915
44777	7	Sololá	717	San Juan la Laguna	12	San Juan la Laguna	3	Marzo	2023-03-28T00:00:00	2024-11-08T15:00:00	2	Temperatura media	23.2
44778	7	Sololá	717	San Juan la Laguna	12	San Juan la Laguna	3	Marzo	2023-03-28T00:00:00	2024-11-08T15:00:00	4	Temperatura máxima	23.4
44779	7	Sololá	717	San Juan la Laguna	12	San Juan la Laguna	3	Marzo	2023-03-28T00:00:00	2024-11-08T15:00:00	3	Temperatura mínima	22.7
44780	7	Sololá	717	San Juan la Laguna	12	San Juan la Laguna	3	Marzo	2023-03-28T00:00:00	2024-11-08T15:00:00	5	Humedad	66
44781	7	Sololá	717	San Juan la Laguna	12	San Juan la Laguna	3	Marzo	2023-03-28T00:00:00	2024-11-08T15:00:00	6	Velocidad del viento	6.4
44782	7	Sololá	717	San Juan la Laguna	12	San Juan la Laguna	3	Marzo	2023-03-28T00:00:00	2024-11-08T15:00:00	7	Dirección del viento	6.44
44783	7	Sololá	717	San Juan la Laguna	12	San Juan la Laguna	3	Marzo	2023-03-28T00:00:00	2024-11-08T15:00:00	1	Precipitación	0
44784	7	Sololá	717	San Juan la Laguna	12	San Juan la Laguna	3	Marzo	2023-03-28T00:00:00	2024-11-08T15:00:00	8	Radiación solar	806
44785	7	Sololá	717	San Juan la Laguna	12	San Juan la Laguna	3	Marzo	2023-03-28T00:00:00	2024-11-08T16:00:00	2	Temperatura media	22.6
44786	7	Sololá	717	San Juan la Laguna	12	San Juan la Laguna	3	Marzo	2023-03-28T00:00:00	2024-11-08T16:00:00	4	Temperatura máxima	23.4
44787	7	Sololá	717	San Juan la Laguna	12	San Juan la Laguna	3	Marzo	2023-03-28T00:00:00	2024-11-08T16:00:00	3	Temperatura mínima	22.3
44788	7	Sololá	717	San Juan la Laguna	12	San Juan la Laguna	3	Marzo	2023-03-28T00:00:00	2024-11-08T16:00:00	5	Humedad	70
44789	7	Sololá	717	San Juan la Laguna	12	San Juan la Laguna	3	Marzo	2023-03-28T00:00:00	2024-11-08T16:00:00	6	Velocidad del viento	6.4
44790	7	Sololá	717	San Juan la Laguna	12	San Juan la Laguna	3	Marzo	2023-03-28T00:00:00	2024-11-08T16:00:00	7	Dirección del viento	6.44
44791	7	Sololá	717	San Juan la Laguna	12	San Juan la Laguna	3	Marzo	2023-03-28T00:00:00	2024-11-08T16:00:00	1	Precipitación	0
44792	7	Sololá	717	San Juan la Laguna	12	San Juan la Laguna	3	Marzo	2023-03-28T00:00:00	2024-11-08T16:00:00	8	Radiación solar	571
44793	7	Sololá	717	San Juan la Laguna	12	San Juan la Laguna	3	Marzo	2023-03-28T00:00:00	2024-11-08T17:00:00	2	Temperatura media	22.1
44794	7	Sololá	717	San Juan la Laguna	12	San Juan la Laguna	3	Marzo	2023-03-28T00:00:00	2024-11-08T17:00:00	4	Temperatura máxima	22.8
44795	7	Sololá	717	San Juan la Laguna	12	San Juan la Laguna	3	Marzo	2023-03-28T00:00:00	2024-11-08T17:00:00	3	Temperatura mínima	21.8
44796	7	Sololá	717	San Juan la Laguna	12	San Juan la Laguna	3	Marzo	2023-03-28T00:00:00	2024-11-08T17:00:00	5	Humedad	72
44797	7	Sololá	717	San Juan la Laguna	12	San Juan la Laguna	3	Marzo	2023-03-28T00:00:00	2024-11-08T17:00:00	6	Velocidad del viento	4.8
44798	7	Sololá	717	San Juan la Laguna	12	San Juan la Laguna	3	Marzo	2023-03-28T00:00:00	2024-11-08T17:00:00	7	Dirección del viento	4.83
44799	7	Sololá	717	San Juan la Laguna	12	San Juan la Laguna	3	Marzo	2023-03-28T00:00:00	2024-11-08T17:00:00	1	Precipitación	0
44800	7	Sololá	717	San Juan la Laguna	12	San Juan la Laguna	3	Marzo	2023-03-28T00:00:00	2024-11-08T17:00:00	8	Radiación solar	325
44801	7	Sololá	717	San Juan la Laguna	12	San Juan la Laguna	3	Marzo	2023-03-28T00:00:00	2024-11-08T18:00:00	2	Temperatura media	21.2
44802	7	Sololá	717	San Juan la Laguna	12	San Juan la Laguna	3	Marzo	2023-03-28T00:00:00	2024-11-08T18:00:00	4	Temperatura máxima	22.1
44803	7	Sololá	717	San Juan la Laguna	12	San Juan la Laguna	3	Marzo	2023-03-28T00:00:00	2024-11-08T18:00:00	3	Temperatura mínima	21.2
44804	7	Sololá	717	San Juan la Laguna	12	San Juan la Laguna	3	Marzo	2023-03-28T00:00:00	2024-11-08T18:00:00	5	Humedad	76
44805	7	Sololá	717	San Juan la Laguna	12	San Juan la Laguna	3	Marzo	2023-03-28T00:00:00	2024-11-08T18:00:00	6	Velocidad del viento	1.6
44806	7	Sololá	717	San Juan la Laguna	12	San Juan la Laguna	3	Marzo	2023-03-28T00:00:00	2024-11-08T18:00:00	7	Dirección del viento	1.61
44807	7	Sololá	717	San Juan la Laguna	12	San Juan la Laguna	3	Marzo	2023-03-28T00:00:00	2024-11-08T18:00:00	1	Precipitación	0
44808	7	Sololá	717	San Juan la Laguna	12	San Juan la Laguna	3	Marzo	2023-03-28T00:00:00	2024-11-08T18:00:00	8	Radiación solar	65
44809	7	Sololá	717	San Juan la Laguna	12	San Juan la Laguna	3	Marzo	2023-03-28T00:00:00	2024-11-08T19:00:00	2	Temperatura media	20.2
44810	7	Sololá	717	San Juan la Laguna	12	San Juan la Laguna	3	Marzo	2023-03-28T00:00:00	2024-11-08T19:00:00	4	Temperatura máxima	21.2
44811	7	Sololá	717	San Juan la Laguna	12	San Juan la Laguna	3	Marzo	2023-03-28T00:00:00	2024-11-08T19:00:00	3	Temperatura mínima	20.2
44812	7	Sololá	717	San Juan la Laguna	12	San Juan la Laguna	3	Marzo	2023-03-28T00:00:00	2024-11-08T19:00:00	5	Humedad	80
44813	7	Sololá	717	San Juan la Laguna	12	San Juan la Laguna	3	Marzo	2023-03-28T00:00:00	2024-11-08T19:00:00	6	Velocidad del viento	0
44814	7	Sololá	717	San Juan la Laguna	12	San Juan la Laguna	3	Marzo	2023-03-28T00:00:00	2024-11-08T19:00:00	7	Dirección del viento	0
44815	7	Sololá	717	San Juan la Laguna	12	San Juan la Laguna	3	Marzo	2023-03-28T00:00:00	2024-11-08T19:00:00	1	Precipitación	0
44816	7	Sololá	717	San Juan la Laguna	12	San Juan la Laguna	3	Marzo	2023-03-28T00:00:00	2024-11-08T19:00:00	8	Radiación solar	0
44817	7	Sololá	717	San Juan la Laguna	12	San Juan la Laguna	3	Marzo	2023-03-28T00:00:00	2024-11-08T20:00:00	2	Temperatura media	20.2
44818	7	Sololá	717	San Juan la Laguna	12	San Juan la Laguna	3	Marzo	2023-03-28T00:00:00	2024-11-08T20:00:00	4	Temperatura máxima	20.2
44819	7	Sololá	717	San Juan la Laguna	12	San Juan la Laguna	3	Marzo	2023-03-28T00:00:00	2024-11-08T20:00:00	3	Temperatura mínima	19.8
44820	7	Sololá	717	San Juan la Laguna	12	San Juan la Laguna	3	Marzo	2023-03-28T00:00:00	2024-11-08T20:00:00	5	Humedad	82
44821	7	Sololá	717	San Juan la Laguna	12	San Juan la Laguna	3	Marzo	2023-03-28T00:00:00	2024-11-08T20:00:00	6	Velocidad del viento	0
44822	7	Sololá	717	San Juan la Laguna	12	San Juan la Laguna	3	Marzo	2023-03-28T00:00:00	2024-11-08T20:00:00	7	Dirección del viento	0
44823	7	Sololá	717	San Juan la Laguna	12	San Juan la Laguna	3	Marzo	2023-03-28T00:00:00	2024-11-08T20:00:00	1	Precipitación	0
44824	7	Sololá	717	San Juan la Laguna	12	San Juan la Laguna	3	Marzo	2023-03-28T00:00:00	2024-11-08T20:00:00	8	Radiación solar	0
44825	7	Sololá	717	San Juan la Laguna	12	San Juan la Laguna	3	Marzo	2023-03-28T00:00:00	2024-11-08T21:00:00	2	Temperatura media	19.7
44826	7	Sololá	717	San Juan la Laguna	12	San Juan la Laguna	3	Marzo	2023-03-28T00:00:00	2024-11-08T21:00:00	4	Temperatura máxima	20.3
44827	7	Sololá	717	San Juan la Laguna	12	San Juan la Laguna	3	Marzo	2023-03-28T00:00:00	2024-11-08T21:00:00	3	Temperatura mínima	19.7
44828	7	Sololá	717	San Juan la Laguna	12	San Juan la Laguna	3	Marzo	2023-03-28T00:00:00	2024-11-08T21:00:00	5	Humedad	84
44829	7	Sololá	717	San Juan la Laguna	12	San Juan la Laguna	3	Marzo	2023-03-28T00:00:00	2024-11-08T21:00:00	6	Velocidad del viento	0
44830	7	Sololá	717	San Juan la Laguna	12	San Juan la Laguna	3	Marzo	2023-03-28T00:00:00	2024-11-08T21:00:00	7	Dirección del viento	0
44831	7	Sololá	717	San Juan la Laguna	12	San Juan la Laguna	3	Marzo	2023-03-28T00:00:00	2024-11-08T21:00:00	1	Precipitación	0
44832	7	Sololá	717	San Juan la Laguna	12	San Juan la Laguna	3	Marzo	2023-03-28T00:00:00	2024-11-08T21:00:00	8	Radiación solar	0
44833	7	Sololá	717	San Juan la Laguna	12	San Juan la Laguna	3	Marzo	2023-03-28T00:00:00	2024-11-08T22:00:00	2	Temperatura media	17.9
44834	7	Sololá	717	San Juan la Laguna	12	San Juan la Laguna	3	Marzo	2023-03-28T00:00:00	2024-11-08T22:00:00	4	Temperatura máxima	19.7
44835	7	Sololá	717	San Juan la Laguna	12	San Juan la Laguna	3	Marzo	2023-03-28T00:00:00	2024-11-08T22:00:00	3	Temperatura mínima	17.9
44836	7	Sololá	717	San Juan la Laguna	12	San Juan la Laguna	3	Marzo	2023-03-28T00:00:00	2024-11-08T22:00:00	5	Humedad	88
44837	7	Sololá	717	San Juan la Laguna	12	San Juan la Laguna	3	Marzo	2023-03-28T00:00:00	2024-11-08T22:00:00	6	Velocidad del viento	0
44838	7	Sololá	717	San Juan la Laguna	12	San Juan la Laguna	3	Marzo	2023-03-28T00:00:00	2024-11-08T22:00:00	7	Dirección del viento	0
44839	7	Sololá	717	San Juan la Laguna	12	San Juan la Laguna	3	Marzo	2023-03-28T00:00:00	2024-11-08T22:00:00	1	Precipitación	0
44840	7	Sololá	717	San Juan la Laguna	12	San Juan la Laguna	3	Marzo	2023-03-28T00:00:00	2024-11-08T22:00:00	8	Radiación solar	0
44841	7	Sololá	717	San Juan la Laguna	12	San Juan la Laguna	3	Marzo	2023-03-28T00:00:00	2024-11-08T23:00:00	2	Temperatura media	16.8
44842	7	Sololá	717	San Juan la Laguna	12	San Juan la Laguna	3	Marzo	2023-03-28T00:00:00	2024-11-08T23:00:00	4	Temperatura máxima	17.8
44843	7	Sololá	717	San Juan la Laguna	12	San Juan la Laguna	3	Marzo	2023-03-28T00:00:00	2024-11-08T23:00:00	3	Temperatura mínima	16.8
44844	7	Sololá	717	San Juan la Laguna	12	San Juan la Laguna	3	Marzo	2023-03-28T00:00:00	2024-11-08T23:00:00	5	Humedad	85
44845	7	Sololá	717	San Juan la Laguna	12	San Juan la Laguna	3	Marzo	2023-03-28T00:00:00	2024-11-08T23:00:00	6	Velocidad del viento	1.6
44846	7	Sololá	717	San Juan la Laguna	12	San Juan la Laguna	3	Marzo	2023-03-28T00:00:00	2024-11-08T23:00:00	7	Dirección del viento	1.61
44847	7	Sololá	717	San Juan la Laguna	12	San Juan la Laguna	3	Marzo	2023-03-28T00:00:00	2024-11-08T23:00:00	1	Precipitación	0
44848	7	Sololá	717	San Juan la Laguna	12	San Juan la Laguna	3	Marzo	2023-03-28T00:00:00	2024-11-08T23:00:00	8	Radiación solar	0
44849	7	Sololá	717	San Juan la Laguna	12	San Juan la Laguna	3	Marzo	2023-03-29T00:00:00	2024-11-08T00:00:00	2	Temperatura media	16.1
44850	7	Sololá	717	San Juan la Laguna	12	San Juan la Laguna	3	Marzo	2023-03-29T00:00:00	2024-11-08T00:00:00	4	Temperatura máxima	16.8
44851	7	Sololá	717	San Juan la Laguna	12	San Juan la Laguna	3	Marzo	2023-03-29T00:00:00	2024-11-08T00:00:00	3	Temperatura mínima	16.1
44852	7	Sololá	717	San Juan la Laguna	12	San Juan la Laguna	3	Marzo	2023-03-29T00:00:00	2024-11-08T00:00:00	5	Humedad	85
44853	7	Sololá	717	San Juan la Laguna	12	San Juan la Laguna	3	Marzo	2023-03-29T00:00:00	2024-11-08T00:00:00	6	Velocidad del viento	3.2
44854	7	Sololá	717	San Juan la Laguna	12	San Juan la Laguna	3	Marzo	2023-03-29T00:00:00	2024-11-08T00:00:00	7	Dirección del viento	3.22
44855	7	Sololá	717	San Juan la Laguna	12	San Juan la Laguna	3	Marzo	2023-03-29T00:00:00	2024-11-08T00:00:00	1	Precipitación	0
44856	7	Sololá	717	San Juan la Laguna	12	San Juan la Laguna	3	Marzo	2023-03-29T00:00:00	2024-11-08T00:00:00	8	Radiación solar	0
44857	7	Sololá	717	San Juan la Laguna	12	San Juan la Laguna	3	Marzo	2023-03-29T00:00:00	2024-11-08T01:00:00	2	Temperatura media	15.7
44858	7	Sololá	717	San Juan la Laguna	12	San Juan la Laguna	3	Marzo	2023-03-29T00:00:00	2024-11-08T01:00:00	4	Temperatura máxima	16.1
44859	7	Sololá	717	San Juan la Laguna	12	San Juan la Laguna	3	Marzo	2023-03-29T00:00:00	2024-11-08T01:00:00	3	Temperatura mínima	15.7
44860	7	Sololá	717	San Juan la Laguna	12	San Juan la Laguna	3	Marzo	2023-03-29T00:00:00	2024-11-08T01:00:00	5	Humedad	81
44861	7	Sololá	717	San Juan la Laguna	12	San Juan la Laguna	3	Marzo	2023-03-29T00:00:00	2024-11-08T01:00:00	6	Velocidad del viento	1.6
44862	7	Sololá	717	San Juan la Laguna	12	San Juan la Laguna	3	Marzo	2023-03-29T00:00:00	2024-11-08T01:00:00	7	Dirección del viento	1.61
44863	7	Sololá	717	San Juan la Laguna	12	San Juan la Laguna	3	Marzo	2023-03-29T00:00:00	2024-11-08T01:00:00	1	Precipitación	0
44864	7	Sololá	717	San Juan la Laguna	12	San Juan la Laguna	3	Marzo	2023-03-29T00:00:00	2024-11-08T01:00:00	8	Radiación solar	0
44865	7	Sololá	717	San Juan la Laguna	12	San Juan la Laguna	3	Marzo	2023-03-29T00:00:00	2024-11-08T02:00:00	2	Temperatura media	15.6
44866	7	Sololá	717	San Juan la Laguna	12	San Juan la Laguna	3	Marzo	2023-03-29T00:00:00	2024-11-08T02:00:00	4	Temperatura máxima	15.9
44867	7	Sololá	717	San Juan la Laguna	12	San Juan la Laguna	3	Marzo	2023-03-29T00:00:00	2024-11-08T02:00:00	3	Temperatura mínima	15.3
44868	7	Sololá	717	San Juan la Laguna	12	San Juan la Laguna	3	Marzo	2023-03-29T00:00:00	2024-11-08T02:00:00	5	Humedad	80
44869	7	Sololá	717	San Juan la Laguna	12	San Juan la Laguna	3	Marzo	2023-03-29T00:00:00	2024-11-08T02:00:00	6	Velocidad del viento	4.8
44870	7	Sololá	717	San Juan la Laguna	12	San Juan la Laguna	3	Marzo	2023-03-29T00:00:00	2024-11-08T02:00:00	7	Dirección del viento	4.83
44871	7	Sololá	717	San Juan la Laguna	12	San Juan la Laguna	3	Marzo	2023-03-29T00:00:00	2024-11-08T02:00:00	1	Precipitación	0
44872	7	Sololá	717	San Juan la Laguna	12	San Juan la Laguna	3	Marzo	2023-03-29T00:00:00	2024-11-08T02:00:00	8	Radiación solar	0
44873	7	Sololá	717	San Juan la Laguna	12	San Juan la Laguna	3	Marzo	2023-03-29T00:00:00	2024-11-08T03:00:00	2	Temperatura media	14.7
44874	7	Sololá	717	San Juan la Laguna	12	San Juan la Laguna	3	Marzo	2023-03-29T00:00:00	2024-11-08T03:00:00	4	Temperatura máxima	15.6
44875	7	Sololá	717	San Juan la Laguna	12	San Juan la Laguna	3	Marzo	2023-03-29T00:00:00	2024-11-08T03:00:00	3	Temperatura mínima	14.7
44876	7	Sololá	717	San Juan la Laguna	12	San Juan la Laguna	3	Marzo	2023-03-29T00:00:00	2024-11-08T03:00:00	5	Humedad	83
44877	7	Sololá	717	San Juan la Laguna	12	San Juan la Laguna	3	Marzo	2023-03-29T00:00:00	2024-11-08T03:00:00	6	Velocidad del viento	3.2
44878	7	Sololá	717	San Juan la Laguna	12	San Juan la Laguna	3	Marzo	2023-03-29T00:00:00	2024-11-08T03:00:00	7	Dirección del viento	3.22
44879	7	Sololá	717	San Juan la Laguna	12	San Juan la Laguna	3	Marzo	2023-03-29T00:00:00	2024-11-08T03:00:00	1	Precipitación	0
44880	7	Sololá	717	San Juan la Laguna	12	San Juan la Laguna	3	Marzo	2023-03-29T00:00:00	2024-11-08T03:00:00	8	Radiación solar	0
44881	7	Sololá	717	San Juan la Laguna	12	San Juan la Laguna	3	Marzo	2023-03-29T00:00:00	2024-11-08T04:00:00	2	Temperatura media	14.4
44882	7	Sololá	717	San Juan la Laguna	12	San Juan la Laguna	3	Marzo	2023-03-29T00:00:00	2024-11-08T04:00:00	4	Temperatura máxima	14.7
44883	7	Sololá	717	San Juan la Laguna	12	San Juan la Laguna	3	Marzo	2023-03-29T00:00:00	2024-11-08T04:00:00	3	Temperatura mínima	14.3
44884	7	Sololá	717	San Juan la Laguna	12	San Juan la Laguna	3	Marzo	2023-03-29T00:00:00	2024-11-08T04:00:00	5	Humedad	84
44885	7	Sololá	717	San Juan la Laguna	12	San Juan la Laguna	3	Marzo	2023-03-29T00:00:00	2024-11-08T04:00:00	6	Velocidad del viento	3.2
44886	7	Sololá	717	San Juan la Laguna	12	San Juan la Laguna	3	Marzo	2023-03-29T00:00:00	2024-11-08T04:00:00	7	Dirección del viento	3.22
44887	7	Sololá	717	San Juan la Laguna	12	San Juan la Laguna	3	Marzo	2023-03-29T00:00:00	2024-11-08T04:00:00	1	Precipitación	0
44888	7	Sololá	717	San Juan la Laguna	12	San Juan la Laguna	3	Marzo	2023-03-29T00:00:00	2024-11-08T04:00:00	8	Radiación solar	0
44889	7	Sololá	717	San Juan la Laguna	12	San Juan la Laguna	3	Marzo	2023-03-29T00:00:00	2024-11-08T05:00:00	2	Temperatura media	14.2
44890	7	Sololá	717	San Juan la Laguna	12	San Juan la Laguna	3	Marzo	2023-03-29T00:00:00	2024-11-08T05:00:00	4	Temperatura máxima	14.4
44891	7	Sololá	717	San Juan la Laguna	12	San Juan la Laguna	3	Marzo	2023-03-29T00:00:00	2024-11-08T05:00:00	3	Temperatura mínima	14.2
44892	7	Sololá	717	San Juan la Laguna	12	San Juan la Laguna	3	Marzo	2023-03-29T00:00:00	2024-11-08T05:00:00	5	Humedad	83
44893	7	Sololá	717	San Juan la Laguna	12	San Juan la Laguna	3	Marzo	2023-03-29T00:00:00	2024-11-08T05:00:00	6	Velocidad del viento	4.8
44894	7	Sololá	717	San Juan la Laguna	12	San Juan la Laguna	3	Marzo	2023-03-29T00:00:00	2024-11-08T05:00:00	7	Dirección del viento	4.83
44895	7	Sololá	717	San Juan la Laguna	12	San Juan la Laguna	3	Marzo	2023-03-29T00:00:00	2024-11-08T05:00:00	1	Precipitación	0
44896	7	Sololá	717	San Juan la Laguna	12	San Juan la Laguna	3	Marzo	2023-03-29T00:00:00	2024-11-08T05:00:00	8	Radiación solar	0
44897	7	Sololá	717	San Juan la Laguna	12	San Juan la Laguna	3	Marzo	2023-03-29T00:00:00	2024-11-08T06:00:00	2	Temperatura media	13.8
44898	7	Sololá	717	San Juan la Laguna	12	San Juan la Laguna	3	Marzo	2023-03-29T00:00:00	2024-11-08T06:00:00	4	Temperatura máxima	14.2
44899	7	Sololá	717	San Juan la Laguna	12	San Juan la Laguna	3	Marzo	2023-03-29T00:00:00	2024-11-08T06:00:00	3	Temperatura mínima	13.8
44900	7	Sololá	717	San Juan la Laguna	12	San Juan la Laguna	3	Marzo	2023-03-29T00:00:00	2024-11-08T06:00:00	5	Humedad	81
44901	7	Sololá	717	San Juan la Laguna	12	San Juan la Laguna	3	Marzo	2023-03-29T00:00:00	2024-11-08T06:00:00	6	Velocidad del viento	3.2
44902	7	Sololá	717	San Juan la Laguna	12	San Juan la Laguna	3	Marzo	2023-03-29T00:00:00	2024-11-08T06:00:00	7	Dirección del viento	3.22
44903	7	Sololá	717	San Juan la Laguna	12	San Juan la Laguna	3	Marzo	2023-03-29T00:00:00	2024-11-08T06:00:00	1	Precipitación	0
44904	7	Sololá	717	San Juan la Laguna	12	San Juan la Laguna	3	Marzo	2023-03-29T00:00:00	2024-11-08T06:00:00	8	Radiación solar	0
44905	7	Sololá	717	San Juan la Laguna	12	San Juan la Laguna	3	Marzo	2023-03-29T00:00:00	2024-11-08T07:00:00	2	Temperatura media	14.9
44906	7	Sololá	717	San Juan la Laguna	12	San Juan la Laguna	3	Marzo	2023-03-29T00:00:00	2024-11-08T07:00:00	4	Temperatura máxima	14.9
44907	7	Sololá	717	San Juan la Laguna	12	San Juan la Laguna	3	Marzo	2023-03-29T00:00:00	2024-11-08T07:00:00	3	Temperatura mínima	13.6
44908	7	Sololá	717	San Juan la Laguna	12	San Juan la Laguna	3	Marzo	2023-03-29T00:00:00	2024-11-08T07:00:00	5	Humedad	81
44909	7	Sololá	717	San Juan la Laguna	12	San Juan la Laguna	3	Marzo	2023-03-29T00:00:00	2024-11-08T07:00:00	6	Velocidad del viento	3.2
44910	7	Sololá	717	San Juan la Laguna	12	San Juan la Laguna	3	Marzo	2023-03-29T00:00:00	2024-11-08T07:00:00	7	Dirección del viento	3.22
44911	7	Sololá	717	San Juan la Laguna	12	San Juan la Laguna	3	Marzo	2023-03-29T00:00:00	2024-11-08T07:00:00	1	Precipitación	0
44912	7	Sololá	717	San Juan la Laguna	12	San Juan la Laguna	3	Marzo	2023-03-29T00:00:00	2024-11-08T07:00:00	8	Radiación solar	39
44913	7	Sololá	717	San Juan la Laguna	12	San Juan la Laguna	3	Marzo	2023-03-29T00:00:00	2024-11-08T08:00:00	2	Temperatura media	19.7
44914	7	Sololá	717	San Juan la Laguna	12	San Juan la Laguna	3	Marzo	2023-03-29T00:00:00	2024-11-08T08:00:00	4	Temperatura máxima	19.7
44915	7	Sololá	717	San Juan la Laguna	12	San Juan la Laguna	3	Marzo	2023-03-29T00:00:00	2024-11-08T08:00:00	3	Temperatura mínima	14.9
44916	7	Sololá	717	San Juan la Laguna	12	San Juan la Laguna	3	Marzo	2023-03-29T00:00:00	2024-11-08T08:00:00	5	Humedad	69
44917	7	Sololá	717	San Juan la Laguna	12	San Juan la Laguna	3	Marzo	2023-03-29T00:00:00	2024-11-08T08:00:00	6	Velocidad del viento	0
44918	7	Sololá	717	San Juan la Laguna	12	San Juan la Laguna	3	Marzo	2023-03-29T00:00:00	2024-11-08T08:00:00	7	Dirección del viento	0
44919	7	Sololá	717	San Juan la Laguna	12	San Juan la Laguna	3	Marzo	2023-03-29T00:00:00	2024-11-08T08:00:00	1	Precipitación	0
44920	7	Sololá	717	San Juan la Laguna	12	San Juan la Laguna	3	Marzo	2023-03-29T00:00:00	2024-11-08T08:00:00	8	Radiación solar	191
44921	7	Sololá	717	San Juan la Laguna	12	San Juan la Laguna	3	Marzo	2023-03-29T00:00:00	2024-11-08T09:00:00	2	Temperatura media	22.2
44922	7	Sololá	717	San Juan la Laguna	12	San Juan la Laguna	3	Marzo	2023-03-29T00:00:00	2024-11-08T09:00:00	4	Temperatura máxima	22.2
44923	7	Sololá	717	San Juan la Laguna	12	San Juan la Laguna	3	Marzo	2023-03-29T00:00:00	2024-11-08T09:00:00	3	Temperatura mínima	19.7
44924	7	Sololá	717	San Juan la Laguna	12	San Juan la Laguna	3	Marzo	2023-03-29T00:00:00	2024-11-08T09:00:00	5	Humedad	57
44925	7	Sololá	717	San Juan la Laguna	12	San Juan la Laguna	3	Marzo	2023-03-29T00:00:00	2024-11-08T09:00:00	6	Velocidad del viento	1.6
44926	7	Sololá	717	San Juan la Laguna	12	San Juan la Laguna	3	Marzo	2023-03-29T00:00:00	2024-11-08T09:00:00	7	Dirección del viento	1.61
44927	7	Sololá	717	San Juan la Laguna	12	San Juan la Laguna	3	Marzo	2023-03-29T00:00:00	2024-11-08T09:00:00	1	Precipitación	0
44928	7	Sololá	717	San Juan la Laguna	12	San Juan la Laguna	3	Marzo	2023-03-29T00:00:00	2024-11-08T09:00:00	8	Radiación solar	391
44929	7	Sololá	717	San Juan la Laguna	12	San Juan la Laguna	3	Marzo	2023-03-29T00:00:00	2024-11-08T10:00:00	2	Temperatura media	22.8
44930	7	Sololá	717	San Juan la Laguna	12	San Juan la Laguna	3	Marzo	2023-03-29T00:00:00	2024-11-08T10:00:00	4	Temperatura máxima	22.9
44931	7	Sololá	717	San Juan la Laguna	12	San Juan la Laguna	3	Marzo	2023-03-29T00:00:00	2024-11-08T10:00:00	3	Temperatura mínima	22.2
44932	7	Sololá	717	San Juan la Laguna	12	San Juan la Laguna	3	Marzo	2023-03-29T00:00:00	2024-11-08T10:00:00	5	Humedad	55
44933	7	Sololá	717	San Juan la Laguna	12	San Juan la Laguna	3	Marzo	2023-03-29T00:00:00	2024-11-08T10:00:00	6	Velocidad del viento	6.4
44934	7	Sololá	717	San Juan la Laguna	12	San Juan la Laguna	3	Marzo	2023-03-29T00:00:00	2024-11-08T10:00:00	7	Dirección del viento	6.44
44935	7	Sololá	717	San Juan la Laguna	12	San Juan la Laguna	3	Marzo	2023-03-29T00:00:00	2024-11-08T10:00:00	1	Precipitación	0
44936	7	Sololá	717	San Juan la Laguna	12	San Juan la Laguna	3	Marzo	2023-03-29T00:00:00	2024-11-08T10:00:00	8	Radiación solar	678
44937	7	Sololá	717	San Juan la Laguna	12	San Juan la Laguna	3	Marzo	2023-03-29T00:00:00	2024-11-08T11:00:00	2	Temperatura media	24.3
44938	7	Sololá	717	San Juan la Laguna	12	San Juan la Laguna	3	Marzo	2023-03-29T00:00:00	2024-11-08T11:00:00	4	Temperatura máxima	24.3
44939	7	Sololá	717	San Juan la Laguna	12	San Juan la Laguna	3	Marzo	2023-03-29T00:00:00	2024-11-08T11:00:00	3	Temperatura mínima	22.8
44940	7	Sololá	717	San Juan la Laguna	12	San Juan la Laguna	3	Marzo	2023-03-29T00:00:00	2024-11-08T11:00:00	5	Humedad	47
44941	7	Sololá	717	San Juan la Laguna	12	San Juan la Laguna	3	Marzo	2023-03-29T00:00:00	2024-11-08T11:00:00	6	Velocidad del viento	6.4
44942	7	Sololá	717	San Juan la Laguna	12	San Juan la Laguna	3	Marzo	2023-03-29T00:00:00	2024-11-08T11:00:00	7	Dirección del viento	6.44
44943	7	Sololá	717	San Juan la Laguna	12	San Juan la Laguna	3	Marzo	2023-03-29T00:00:00	2024-11-08T11:00:00	1	Precipitación	0
44944	7	Sololá	717	San Juan la Laguna	12	San Juan la Laguna	3	Marzo	2023-03-29T00:00:00	2024-11-08T11:00:00	8	Radiación solar	851
44945	7	Sololá	717	San Juan la Laguna	12	San Juan la Laguna	3	Marzo	2023-03-29T00:00:00	2024-11-08T12:00:00	2	Temperatura media	25.4
44946	7	Sololá	717	San Juan la Laguna	12	San Juan la Laguna	3	Marzo	2023-03-29T00:00:00	2024-11-08T12:00:00	4	Temperatura máxima	25.4
44947	7	Sololá	717	San Juan la Laguna	12	San Juan la Laguna	3	Marzo	2023-03-29T00:00:00	2024-11-08T12:00:00	3	Temperatura mínima	24.3
44948	7	Sololá	717	San Juan la Laguna	12	San Juan la Laguna	3	Marzo	2023-03-29T00:00:00	2024-11-08T12:00:00	5	Humedad	43
44949	7	Sololá	717	San Juan la Laguna	12	San Juan la Laguna	3	Marzo	2023-03-29T00:00:00	2024-11-08T12:00:00	6	Velocidad del viento	6.4
44950	7	Sololá	717	San Juan la Laguna	12	San Juan la Laguna	3	Marzo	2023-03-29T00:00:00	2024-11-08T12:00:00	7	Dirección del viento	6.44
44951	7	Sololá	717	San Juan la Laguna	12	San Juan la Laguna	3	Marzo	2023-03-29T00:00:00	2024-11-08T12:00:00	1	Precipitación	0
44952	7	Sololá	717	San Juan la Laguna	12	San Juan la Laguna	3	Marzo	2023-03-29T00:00:00	2024-11-08T12:00:00	8	Radiación solar	945
44953	7	Sololá	717	San Juan la Laguna	12	San Juan la Laguna	3	Marzo	2023-03-29T00:00:00	2024-11-08T13:00:00	2	Temperatura media	26.6
44954	7	Sololá	717	San Juan la Laguna	12	San Juan la Laguna	3	Marzo	2023-03-29T00:00:00	2024-11-08T13:00:00	4	Temperatura máxima	26.6
44955	7	Sololá	717	San Juan la Laguna	12	San Juan la Laguna	3	Marzo	2023-03-29T00:00:00	2024-11-08T13:00:00	3	Temperatura mínima	25.4
44956	7	Sololá	717	San Juan la Laguna	12	San Juan la Laguna	3	Marzo	2023-03-29T00:00:00	2024-11-08T13:00:00	5	Humedad	39
44957	7	Sololá	717	San Juan la Laguna	12	San Juan la Laguna	3	Marzo	2023-03-29T00:00:00	2024-11-08T13:00:00	6	Velocidad del viento	8
44958	7	Sololá	717	San Juan la Laguna	12	San Juan la Laguna	3	Marzo	2023-03-29T00:00:00	2024-11-08T13:00:00	7	Dirección del viento	8.05
44959	7	Sololá	717	San Juan la Laguna	12	San Juan la Laguna	3	Marzo	2023-03-29T00:00:00	2024-11-08T13:00:00	1	Precipitación	0
44960	7	Sololá	717	San Juan la Laguna	12	San Juan la Laguna	3	Marzo	2023-03-29T00:00:00	2024-11-08T13:00:00	8	Radiación solar	969
44961	7	Sololá	717	San Juan la Laguna	12	San Juan la Laguna	3	Marzo	2023-03-29T00:00:00	2024-11-08T14:00:00	2	Temperatura media	26.5
44962	7	Sololá	717	San Juan la Laguna	12	San Juan la Laguna	3	Marzo	2023-03-29T00:00:00	2024-11-08T14:00:00	4	Temperatura máxima	27.5
44963	7	Sololá	717	San Juan la Laguna	12	San Juan la Laguna	3	Marzo	2023-03-29T00:00:00	2024-11-08T14:00:00	3	Temperatura mínima	26.5
44964	7	Sololá	717	San Juan la Laguna	12	San Juan la Laguna	3	Marzo	2023-03-29T00:00:00	2024-11-08T14:00:00	5	Humedad	39
44965	7	Sololá	717	San Juan la Laguna	12	San Juan la Laguna	3	Marzo	2023-03-29T00:00:00	2024-11-08T14:00:00	6	Velocidad del viento	4.8
44966	7	Sololá	717	San Juan la Laguna	12	San Juan la Laguna	3	Marzo	2023-03-29T00:00:00	2024-11-08T14:00:00	7	Dirección del viento	4.83
44967	7	Sololá	717	San Juan la Laguna	12	San Juan la Laguna	3	Marzo	2023-03-29T00:00:00	2024-11-08T14:00:00	1	Precipitación	0
44968	7	Sololá	717	San Juan la Laguna	12	San Juan la Laguna	3	Marzo	2023-03-29T00:00:00	2024-11-08T14:00:00	8	Radiación solar	920
44969	7	Sololá	717	San Juan la Laguna	12	San Juan la Laguna	3	Marzo	2023-03-29T00:00:00	2024-11-08T15:00:00	2	Temperatura media	26.6
44970	7	Sololá	717	San Juan la Laguna	12	San Juan la Laguna	3	Marzo	2023-03-29T00:00:00	2024-11-08T15:00:00	4	Temperatura máxima	26.9
44971	7	Sololá	717	San Juan la Laguna	12	San Juan la Laguna	3	Marzo	2023-03-29T00:00:00	2024-11-08T15:00:00	3	Temperatura mínima	26.2
44972	7	Sololá	717	San Juan la Laguna	12	San Juan la Laguna	3	Marzo	2023-03-29T00:00:00	2024-11-08T15:00:00	5	Humedad	40
44973	7	Sololá	717	San Juan la Laguna	12	San Juan la Laguna	3	Marzo	2023-03-29T00:00:00	2024-11-08T15:00:00	6	Velocidad del viento	3.2
44974	7	Sololá	717	San Juan la Laguna	12	San Juan la Laguna	3	Marzo	2023-03-29T00:00:00	2024-11-08T15:00:00	7	Dirección del viento	3.22
44975	7	Sololá	717	San Juan la Laguna	12	San Juan la Laguna	3	Marzo	2023-03-29T00:00:00	2024-11-08T15:00:00	1	Precipitación	0
44976	7	Sololá	717	San Juan la Laguna	12	San Juan la Laguna	3	Marzo	2023-03-29T00:00:00	2024-11-08T15:00:00	8	Radiación solar	810
44977	7	Sololá	717	San Juan la Laguna	12	San Juan la Laguna	3	Marzo	2023-03-29T00:00:00	2024-11-08T16:00:00	2	Temperatura media	26.3
44978	7	Sololá	717	San Juan la Laguna	12	San Juan la Laguna	3	Marzo	2023-03-29T00:00:00	2024-11-08T16:00:00	4	Temperatura máxima	26.8
44979	7	Sololá	717	San Juan la Laguna	12	San Juan la Laguna	3	Marzo	2023-03-29T00:00:00	2024-11-08T16:00:00	3	Temperatura mínima	25.8
44980	7	Sololá	717	San Juan la Laguna	12	San Juan la Laguna	3	Marzo	2023-03-29T00:00:00	2024-11-08T16:00:00	5	Humedad	42
44981	7	Sololá	717	San Juan la Laguna	12	San Juan la Laguna	3	Marzo	2023-03-29T00:00:00	2024-11-08T16:00:00	6	Velocidad del viento	1.6
44982	7	Sololá	717	San Juan la Laguna	12	San Juan la Laguna	3	Marzo	2023-03-29T00:00:00	2024-11-08T16:00:00	7	Dirección del viento	1.61
44983	7	Sololá	717	San Juan la Laguna	12	San Juan la Laguna	3	Marzo	2023-03-29T00:00:00	2024-11-08T16:00:00	1	Precipitación	0
44984	7	Sololá	717	San Juan la Laguna	12	San Juan la Laguna	3	Marzo	2023-03-29T00:00:00	2024-11-08T16:00:00	8	Radiación solar	590
44985	7	Sololá	717	San Juan la Laguna	12	San Juan la Laguna	3	Marzo	2023-03-29T00:00:00	2024-11-08T17:00:00	2	Temperatura media	24.8
44986	7	Sololá	717	San Juan la Laguna	12	San Juan la Laguna	3	Marzo	2023-03-29T00:00:00	2024-11-08T17:00:00	4	Temperatura máxima	26.4
44987	7	Sololá	717	San Juan la Laguna	12	San Juan la Laguna	3	Marzo	2023-03-29T00:00:00	2024-11-08T17:00:00	3	Temperatura mínima	24.7
44988	7	Sololá	717	San Juan la Laguna	12	San Juan la Laguna	3	Marzo	2023-03-29T00:00:00	2024-11-08T17:00:00	5	Humedad	44
44989	7	Sololá	717	San Juan la Laguna	12	San Juan la Laguna	3	Marzo	2023-03-29T00:00:00	2024-11-08T17:00:00	6	Velocidad del viento	1.6
44990	7	Sololá	717	San Juan la Laguna	12	San Juan la Laguna	3	Marzo	2023-03-29T00:00:00	2024-11-08T17:00:00	7	Dirección del viento	1.61
44991	7	Sololá	717	San Juan la Laguna	12	San Juan la Laguna	3	Marzo	2023-03-29T00:00:00	2024-11-08T17:00:00	1	Precipitación	0
44992	7	Sololá	717	San Juan la Laguna	12	San Juan la Laguna	3	Marzo	2023-03-29T00:00:00	2024-11-08T17:00:00	8	Radiación solar	363
44993	7	Sololá	717	San Juan la Laguna	12	San Juan la Laguna	3	Marzo	2023-03-29T00:00:00	2024-11-08T18:00:00	2	Temperatura media	23
44994	7	Sololá	717	San Juan la Laguna	12	San Juan la Laguna	3	Marzo	2023-03-29T00:00:00	2024-11-08T18:00:00	4	Temperatura máxima	24.8
44995	7	Sololá	717	San Juan la Laguna	12	San Juan la Laguna	3	Marzo	2023-03-29T00:00:00	2024-11-08T18:00:00	3	Temperatura mínima	22.7
44996	7	Sololá	717	San Juan la Laguna	12	San Juan la Laguna	3	Marzo	2023-03-29T00:00:00	2024-11-08T18:00:00	5	Humedad	48
44997	7	Sololá	717	San Juan la Laguna	12	San Juan la Laguna	3	Marzo	2023-03-29T00:00:00	2024-11-08T18:00:00	6	Velocidad del viento	3.2
44998	7	Sololá	717	San Juan la Laguna	12	San Juan la Laguna	3	Marzo	2023-03-29T00:00:00	2024-11-08T18:00:00	7	Dirección del viento	3.22
44999	7	Sololá	717	San Juan la Laguna	12	San Juan la Laguna	3	Marzo	2023-03-29T00:00:00	2024-11-08T18:00:00	1	Precipitación	0
45000	7	Sololá	717	San Juan la Laguna	12	San Juan la Laguna	3	Marzo	2023-03-29T00:00:00	2024-11-08T18:00:00	8	Radiación solar	89
45001	7	Sololá	717	San Juan la Laguna	12	San Juan la Laguna	3	Marzo	2023-03-29T00:00:00	2024-11-08T19:00:00	2	Temperatura media	21.6
45002	7	Sololá	717	San Juan la Laguna	12	San Juan la Laguna	3	Marzo	2023-03-29T00:00:00	2024-11-08T19:00:00	4	Temperatura máxima	23
45003	7	Sololá	717	San Juan la Laguna	12	San Juan la Laguna	3	Marzo	2023-03-29T00:00:00	2024-11-08T19:00:00	3	Temperatura mínima	21.6
45004	7	Sololá	717	San Juan la Laguna	12	San Juan la Laguna	3	Marzo	2023-03-29T00:00:00	2024-11-08T19:00:00	5	Humedad	52
45005	7	Sololá	717	San Juan la Laguna	12	San Juan la Laguna	3	Marzo	2023-03-29T00:00:00	2024-11-08T19:00:00	6	Velocidad del viento	6.4
45006	7	Sololá	717	San Juan la Laguna	12	San Juan la Laguna	3	Marzo	2023-03-29T00:00:00	2024-11-08T19:00:00	7	Dirección del viento	6.44
45007	7	Sololá	717	San Juan la Laguna	12	San Juan la Laguna	3	Marzo	2023-03-29T00:00:00	2024-11-08T19:00:00	1	Precipitación	0
45008	7	Sololá	717	San Juan la Laguna	12	San Juan la Laguna	3	Marzo	2023-03-29T00:00:00	2024-11-08T19:00:00	8	Radiación solar	0
45009	7	Sololá	717	San Juan la Laguna	12	San Juan la Laguna	3	Marzo	2023-03-29T00:00:00	2024-11-08T20:00:00	2	Temperatura media	20.6
45010	7	Sololá	717	San Juan la Laguna	12	San Juan la Laguna	3	Marzo	2023-03-29T00:00:00	2024-11-08T20:00:00	4	Temperatura máxima	21.6
45011	7	Sololá	717	San Juan la Laguna	12	San Juan la Laguna	3	Marzo	2023-03-29T00:00:00	2024-11-08T20:00:00	3	Temperatura mínima	20.6
45012	7	Sololá	717	San Juan la Laguna	12	San Juan la Laguna	3	Marzo	2023-03-29T00:00:00	2024-11-08T20:00:00	5	Humedad	55
45013	7	Sololá	717	San Juan la Laguna	12	San Juan la Laguna	3	Marzo	2023-03-29T00:00:00	2024-11-08T20:00:00	6	Velocidad del viento	4.8
45014	7	Sololá	717	San Juan la Laguna	12	San Juan la Laguna	3	Marzo	2023-03-29T00:00:00	2024-11-08T20:00:00	7	Dirección del viento	4.83
45015	7	Sololá	717	San Juan la Laguna	12	San Juan la Laguna	3	Marzo	2023-03-29T00:00:00	2024-11-08T20:00:00	1	Precipitación	0
45016	7	Sololá	717	San Juan la Laguna	12	San Juan la Laguna	3	Marzo	2023-03-29T00:00:00	2024-11-08T20:00:00	8	Radiación solar	0
45017	7	Sololá	717	San Juan la Laguna	12	San Juan la Laguna	3	Marzo	2023-03-29T00:00:00	2024-11-08T21:00:00	2	Temperatura media	19.4
45018	7	Sololá	717	San Juan la Laguna	12	San Juan la Laguna	3	Marzo	2023-03-29T00:00:00	2024-11-08T21:00:00	4	Temperatura máxima	20.6
45019	7	Sololá	717	San Juan la Laguna	12	San Juan la Laguna	3	Marzo	2023-03-29T00:00:00	2024-11-08T21:00:00	3	Temperatura mínima	19.4
45020	7	Sololá	717	San Juan la Laguna	12	San Juan la Laguna	3	Marzo	2023-03-29T00:00:00	2024-11-08T21:00:00	5	Humedad	59
45021	7	Sololá	717	San Juan la Laguna	12	San Juan la Laguna	3	Marzo	2023-03-29T00:00:00	2024-11-08T21:00:00	6	Velocidad del viento	6.4
45022	7	Sololá	717	San Juan la Laguna	12	San Juan la Laguna	3	Marzo	2023-03-29T00:00:00	2024-11-08T21:00:00	7	Dirección del viento	6.44
45023	7	Sololá	717	San Juan la Laguna	12	San Juan la Laguna	3	Marzo	2023-03-29T00:00:00	2024-11-08T21:00:00	1	Precipitación	0
45024	7	Sololá	717	San Juan la Laguna	12	San Juan la Laguna	3	Marzo	2023-03-29T00:00:00	2024-11-08T21:00:00	8	Radiación solar	0
45025	7	Sololá	717	San Juan la Laguna	12	San Juan la Laguna	3	Marzo	2023-03-29T00:00:00	2024-11-08T22:00:00	2	Temperatura media	18.8
45026	7	Sololá	717	San Juan la Laguna	12	San Juan la Laguna	3	Marzo	2023-03-29T00:00:00	2024-11-08T22:00:00	4	Temperatura máxima	19.5
45027	7	Sololá	717	San Juan la Laguna	12	San Juan la Laguna	3	Marzo	2023-03-29T00:00:00	2024-11-08T22:00:00	3	Temperatura mínima	18.8
45028	7	Sololá	717	San Juan la Laguna	12	San Juan la Laguna	3	Marzo	2023-03-29T00:00:00	2024-11-08T22:00:00	5	Humedad	56
45029	7	Sololá	717	San Juan la Laguna	12	San Juan la Laguna	3	Marzo	2023-03-29T00:00:00	2024-11-08T22:00:00	6	Velocidad del viento	4.8
45030	7	Sololá	717	San Juan la Laguna	12	San Juan la Laguna	3	Marzo	2023-03-29T00:00:00	2024-11-08T22:00:00	7	Dirección del viento	4.83
45031	7	Sololá	717	San Juan la Laguna	12	San Juan la Laguna	3	Marzo	2023-03-29T00:00:00	2024-11-08T22:00:00	1	Precipitación	0
45032	7	Sololá	717	San Juan la Laguna	12	San Juan la Laguna	3	Marzo	2023-03-29T00:00:00	2024-11-08T22:00:00	8	Radiación solar	0
45033	7	Sololá	717	San Juan la Laguna	12	San Juan la Laguna	3	Marzo	2023-03-29T00:00:00	2024-11-08T23:00:00	2	Temperatura media	18.6
45034	7	Sololá	717	San Juan la Laguna	12	San Juan la Laguna	3	Marzo	2023-03-29T00:00:00	2024-11-08T23:00:00	4	Temperatura máxima	18.9
45035	7	Sololá	717	San Juan la Laguna	12	San Juan la Laguna	3	Marzo	2023-03-29T00:00:00	2024-11-08T23:00:00	3	Temperatura mínima	18.6
45036	7	Sololá	717	San Juan la Laguna	12	San Juan la Laguna	3	Marzo	2023-03-29T00:00:00	2024-11-08T23:00:00	5	Humedad	57
45037	7	Sololá	717	San Juan la Laguna	12	San Juan la Laguna	3	Marzo	2023-03-29T00:00:00	2024-11-08T23:00:00	6	Velocidad del viento	3.2
45038	7	Sololá	717	San Juan la Laguna	12	San Juan la Laguna	3	Marzo	2023-03-29T00:00:00	2024-11-08T23:00:00	7	Dirección del viento	3.22
45039	7	Sololá	717	San Juan la Laguna	12	San Juan la Laguna	3	Marzo	2023-03-29T00:00:00	2024-11-08T23:00:00	1	Precipitación	0
45040	7	Sololá	717	San Juan la Laguna	12	San Juan la Laguna	3	Marzo	2023-03-29T00:00:00	2024-11-08T23:00:00	8	Radiación solar	0
45041	7	Sololá	717	San Juan la Laguna	12	San Juan la Laguna	3	Marzo	2023-03-30T00:00:00	2024-11-08T00:00:00	2	Temperatura media	18.2
45042	7	Sololá	717	San Juan la Laguna	12	San Juan la Laguna	3	Marzo	2023-03-30T00:00:00	2024-11-08T00:00:00	4	Temperatura máxima	18.8
45043	7	Sololá	717	San Juan la Laguna	12	San Juan la Laguna	3	Marzo	2023-03-30T00:00:00	2024-11-08T00:00:00	3	Temperatura mínima	18.2
45044	7	Sololá	717	San Juan la Laguna	12	San Juan la Laguna	3	Marzo	2023-03-30T00:00:00	2024-11-08T00:00:00	5	Humedad	60
45045	7	Sololá	717	San Juan la Laguna	12	San Juan la Laguna	3	Marzo	2023-03-30T00:00:00	2024-11-08T00:00:00	6	Velocidad del viento	3.2
45046	7	Sololá	717	San Juan la Laguna	12	San Juan la Laguna	3	Marzo	2023-03-30T00:00:00	2024-11-08T00:00:00	7	Dirección del viento	3.22
45047	7	Sololá	717	San Juan la Laguna	12	San Juan la Laguna	3	Marzo	2023-03-30T00:00:00	2024-11-08T00:00:00	1	Precipitación	0
45048	7	Sololá	717	San Juan la Laguna	12	San Juan la Laguna	3	Marzo	2023-03-30T00:00:00	2024-11-08T00:00:00	8	Radiación solar	0
45049	7	Sololá	717	San Juan la Laguna	12	San Juan la Laguna	3	Marzo	2023-03-30T00:00:00	2024-11-08T01:00:00	2	Temperatura media	17.7
45050	7	Sololá	717	San Juan la Laguna	12	San Juan la Laguna	3	Marzo	2023-03-30T00:00:00	2024-11-08T01:00:00	4	Temperatura máxima	18.3
45051	7	Sololá	717	San Juan la Laguna	12	San Juan la Laguna	3	Marzo	2023-03-30T00:00:00	2024-11-08T01:00:00	3	Temperatura mínima	17.7
45052	7	Sololá	717	San Juan la Laguna	12	San Juan la Laguna	3	Marzo	2023-03-30T00:00:00	2024-11-08T01:00:00	5	Humedad	62
45053	7	Sololá	717	San Juan la Laguna	12	San Juan la Laguna	3	Marzo	2023-03-30T00:00:00	2024-11-08T01:00:00	6	Velocidad del viento	3.2
45054	7	Sololá	717	San Juan la Laguna	12	San Juan la Laguna	3	Marzo	2023-03-30T00:00:00	2024-11-08T01:00:00	7	Dirección del viento	3.22
45055	7	Sololá	717	San Juan la Laguna	12	San Juan la Laguna	3	Marzo	2023-03-30T00:00:00	2024-11-08T01:00:00	1	Precipitación	0
45056	7	Sololá	717	San Juan la Laguna	12	San Juan la Laguna	3	Marzo	2023-03-30T00:00:00	2024-11-08T01:00:00	8	Radiación solar	0
45057	7	Sololá	717	San Juan la Laguna	12	San Juan la Laguna	3	Marzo	2023-03-30T00:00:00	2024-11-08T02:00:00	2	Temperatura media	16.5
45058	7	Sololá	717	San Juan la Laguna	12	San Juan la Laguna	3	Marzo	2023-03-30T00:00:00	2024-11-08T02:00:00	4	Temperatura máxima	17.8
45059	7	Sololá	717	San Juan la Laguna	12	San Juan la Laguna	3	Marzo	2023-03-30T00:00:00	2024-11-08T02:00:00	3	Temperatura mínima	16.4
45060	7	Sololá	717	San Juan la Laguna	12	San Juan la Laguna	3	Marzo	2023-03-30T00:00:00	2024-11-08T02:00:00	5	Humedad	63
45061	7	Sololá	717	San Juan la Laguna	12	San Juan la Laguna	3	Marzo	2023-03-30T00:00:00	2024-11-08T02:00:00	6	Velocidad del viento	0
45062	7	Sololá	717	San Juan la Laguna	12	San Juan la Laguna	3	Marzo	2023-03-30T00:00:00	2024-11-08T02:00:00	7	Dirección del viento	0
45063	7	Sololá	717	San Juan la Laguna	12	San Juan la Laguna	3	Marzo	2023-03-30T00:00:00	2024-11-08T02:00:00	1	Precipitación	0
45064	7	Sololá	717	San Juan la Laguna	12	San Juan la Laguna	3	Marzo	2023-03-30T00:00:00	2024-11-08T02:00:00	8	Radiación solar	0
45065	7	Sololá	717	San Juan la Laguna	12	San Juan la Laguna	3	Marzo	2023-03-30T00:00:00	2024-11-08T03:00:00	2	Temperatura media	14
45066	7	Sololá	717	San Juan la Laguna	12	San Juan la Laguna	3	Marzo	2023-03-30T00:00:00	2024-11-08T03:00:00	4	Temperatura máxima	16.5
45067	7	Sololá	717	San Juan la Laguna	12	San Juan la Laguna	3	Marzo	2023-03-30T00:00:00	2024-11-08T03:00:00	3	Temperatura mínima	14
45068	7	Sololá	717	San Juan la Laguna	12	San Juan la Laguna	3	Marzo	2023-03-30T00:00:00	2024-11-08T03:00:00	5	Humedad	67
45069	7	Sololá	717	San Juan la Laguna	12	San Juan la Laguna	3	Marzo	2023-03-30T00:00:00	2024-11-08T03:00:00	6	Velocidad del viento	1.6
45070	7	Sololá	717	San Juan la Laguna	12	San Juan la Laguna	3	Marzo	2023-03-30T00:00:00	2024-11-08T03:00:00	7	Dirección del viento	1.61
45071	7	Sololá	717	San Juan la Laguna	12	San Juan la Laguna	3	Marzo	2023-03-30T00:00:00	2024-11-08T03:00:00	1	Precipitación	0
45072	7	Sololá	717	San Juan la Laguna	12	San Juan la Laguna	3	Marzo	2023-03-30T00:00:00	2024-11-08T03:00:00	8	Radiación solar	0
45073	7	Sololá	717	San Juan la Laguna	12	San Juan la Laguna	3	Marzo	2023-03-30T00:00:00	2024-11-08T04:00:00	2	Temperatura media	13.2
45074	7	Sololá	717	San Juan la Laguna	12	San Juan la Laguna	3	Marzo	2023-03-30T00:00:00	2024-11-08T04:00:00	4	Temperatura máxima	14
45075	7	Sololá	717	San Juan la Laguna	12	San Juan la Laguna	3	Marzo	2023-03-30T00:00:00	2024-11-08T04:00:00	3	Temperatura mínima	13.1
45076	7	Sololá	717	San Juan la Laguna	12	San Juan la Laguna	3	Marzo	2023-03-30T00:00:00	2024-11-08T04:00:00	5	Humedad	68
45077	7	Sololá	717	San Juan la Laguna	12	San Juan la Laguna	3	Marzo	2023-03-30T00:00:00	2024-11-08T04:00:00	6	Velocidad del viento	0
45078	7	Sololá	717	San Juan la Laguna	12	San Juan la Laguna	3	Marzo	2023-03-30T00:00:00	2024-11-08T04:00:00	7	Dirección del viento	0
45079	7	Sololá	717	San Juan la Laguna	12	San Juan la Laguna	3	Marzo	2023-03-30T00:00:00	2024-11-08T04:00:00	1	Precipitación	0
45080	7	Sololá	717	San Juan la Laguna	12	San Juan la Laguna	3	Marzo	2023-03-30T00:00:00	2024-11-08T04:00:00	8	Radiación solar	0
45081	7	Sololá	717	San Juan la Laguna	12	San Juan la Laguna	3	Marzo	2023-03-30T00:00:00	2024-11-08T05:00:00	2	Temperatura media	12.2
45082	7	Sololá	717	San Juan la Laguna	12	San Juan la Laguna	3	Marzo	2023-03-30T00:00:00	2024-11-08T05:00:00	4	Temperatura máxima	13.2
45083	7	Sololá	717	San Juan la Laguna	12	San Juan la Laguna	3	Marzo	2023-03-30T00:00:00	2024-11-08T05:00:00	3	Temperatura mínima	12.2
45084	7	Sololá	717	San Juan la Laguna	12	San Juan la Laguna	3	Marzo	2023-03-30T00:00:00	2024-11-08T05:00:00	5	Humedad	71
45085	7	Sololá	717	San Juan la Laguna	12	San Juan la Laguna	3	Marzo	2023-03-30T00:00:00	2024-11-08T05:00:00	6	Velocidad del viento	0
45086	7	Sololá	717	San Juan la Laguna	12	San Juan la Laguna	3	Marzo	2023-03-30T00:00:00	2024-11-08T05:00:00	7	Dirección del viento	0
45087	7	Sololá	717	San Juan la Laguna	12	San Juan la Laguna	3	Marzo	2023-03-30T00:00:00	2024-11-08T05:00:00	1	Precipitación	0
45088	7	Sololá	717	San Juan la Laguna	12	San Juan la Laguna	3	Marzo	2023-03-30T00:00:00	2024-11-08T05:00:00	8	Radiación solar	0
45089	7	Sololá	717	San Juan la Laguna	12	San Juan la Laguna	3	Marzo	2023-03-30T00:00:00	2024-11-08T06:00:00	2	Temperatura media	12.2
45090	7	Sololá	717	San Juan la Laguna	12	San Juan la Laguna	3	Marzo	2023-03-30T00:00:00	2024-11-08T06:00:00	4	Temperatura máxima	12.6
45091	7	Sololá	717	San Juan la Laguna	12	San Juan la Laguna	3	Marzo	2023-03-30T00:00:00	2024-11-08T06:00:00	3	Temperatura mínima	12
45092	7	Sololá	717	San Juan la Laguna	12	San Juan la Laguna	3	Marzo	2023-03-30T00:00:00	2024-11-08T06:00:00	5	Humedad	71
45093	7	Sololá	717	San Juan la Laguna	12	San Juan la Laguna	3	Marzo	2023-03-30T00:00:00	2024-11-08T06:00:00	6	Velocidad del viento	0
45094	7	Sololá	717	San Juan la Laguna	12	San Juan la Laguna	3	Marzo	2023-03-30T00:00:00	2024-11-08T06:00:00	7	Dirección del viento	0
45095	7	Sololá	717	San Juan la Laguna	12	San Juan la Laguna	3	Marzo	2023-03-30T00:00:00	2024-11-08T06:00:00	1	Precipitación	0
45096	7	Sololá	717	San Juan la Laguna	12	San Juan la Laguna	3	Marzo	2023-03-30T00:00:00	2024-11-08T06:00:00	8	Radiación solar	0
45097	7	Sololá	717	San Juan la Laguna	12	San Juan la Laguna	3	Marzo	2023-03-30T00:00:00	2024-11-08T07:00:00	2	Temperatura media	14.8
45098	7	Sololá	717	San Juan la Laguna	12	San Juan la Laguna	3	Marzo	2023-03-30T00:00:00	2024-11-08T07:00:00	4	Temperatura máxima	14.8
45099	7	Sololá	717	San Juan la Laguna	12	San Juan la Laguna	3	Marzo	2023-03-30T00:00:00	2024-11-08T07:00:00	3	Temperatura mínima	12
45100	7	Sololá	717	San Juan la Laguna	12	San Juan la Laguna	3	Marzo	2023-03-30T00:00:00	2024-11-08T07:00:00	5	Humedad	66
45101	7	Sololá	717	San Juan la Laguna	12	San Juan la Laguna	3	Marzo	2023-03-30T00:00:00	2024-11-08T07:00:00	6	Velocidad del viento	0
45102	7	Sololá	717	San Juan la Laguna	12	San Juan la Laguna	3	Marzo	2023-03-30T00:00:00	2024-11-08T07:00:00	7	Dirección del viento	0
45103	7	Sololá	717	San Juan la Laguna	12	San Juan la Laguna	3	Marzo	2023-03-30T00:00:00	2024-11-08T07:00:00	1	Precipitación	0
45104	7	Sololá	717	San Juan la Laguna	12	San Juan la Laguna	3	Marzo	2023-03-30T00:00:00	2024-11-08T07:00:00	8	Radiación solar	41
45105	7	Sololá	717	San Juan la Laguna	12	San Juan la Laguna	3	Marzo	2023-03-30T00:00:00	2024-11-08T08:00:00	2	Temperatura media	19.3
45106	7	Sololá	717	San Juan la Laguna	12	San Juan la Laguna	3	Marzo	2023-03-30T00:00:00	2024-11-08T08:00:00	4	Temperatura máxima	19.3
45107	7	Sololá	717	San Juan la Laguna	12	San Juan la Laguna	3	Marzo	2023-03-30T00:00:00	2024-11-08T08:00:00	3	Temperatura mínima	14.9
45108	7	Sololá	717	San Juan la Laguna	12	San Juan la Laguna	3	Marzo	2023-03-30T00:00:00	2024-11-08T08:00:00	5	Humedad	57
45109	7	Sololá	717	San Juan la Laguna	12	San Juan la Laguna	3	Marzo	2023-03-30T00:00:00	2024-11-08T08:00:00	6	Velocidad del viento	0
45110	7	Sololá	717	San Juan la Laguna	12	San Juan la Laguna	3	Marzo	2023-03-30T00:00:00	2024-11-08T08:00:00	7	Dirección del viento	0
45111	7	Sololá	717	San Juan la Laguna	12	San Juan la Laguna	3	Marzo	2023-03-30T00:00:00	2024-11-08T08:00:00	1	Precipitación	0
45112	7	Sololá	717	San Juan la Laguna	12	San Juan la Laguna	3	Marzo	2023-03-30T00:00:00	2024-11-08T08:00:00	8	Radiación solar	210
45113	7	Sololá	717	San Juan la Laguna	12	San Juan la Laguna	3	Marzo	2023-03-30T00:00:00	2024-11-08T09:00:00	2	Temperatura media	21.1
45114	7	Sololá	717	San Juan la Laguna	12	San Juan la Laguna	3	Marzo	2023-03-30T00:00:00	2024-11-08T09:00:00	4	Temperatura máxima	21.1
45115	7	Sololá	717	San Juan la Laguna	12	San Juan la Laguna	3	Marzo	2023-03-30T00:00:00	2024-11-08T09:00:00	3	Temperatura mínima	19.3
45116	7	Sololá	717	San Juan la Laguna	12	San Juan la Laguna	3	Marzo	2023-03-30T00:00:00	2024-11-08T09:00:00	5	Humedad	47
45117	7	Sololá	717	San Juan la Laguna	12	San Juan la Laguna	3	Marzo	2023-03-30T00:00:00	2024-11-08T09:00:00	6	Velocidad del viento	3.2
45118	7	Sololá	717	San Juan la Laguna	12	San Juan la Laguna	3	Marzo	2023-03-30T00:00:00	2024-11-08T09:00:00	7	Dirección del viento	3.22
45119	7	Sololá	717	San Juan la Laguna	12	San Juan la Laguna	3	Marzo	2023-03-30T00:00:00	2024-11-08T09:00:00	1	Precipitación	0
45120	7	Sololá	717	San Juan la Laguna	12	San Juan la Laguna	3	Marzo	2023-03-30T00:00:00	2024-11-08T09:00:00	8	Radiación solar	391
45121	7	Sololá	717	San Juan la Laguna	12	San Juan la Laguna	3	Marzo	2023-03-30T00:00:00	2024-11-08T10:00:00	2	Temperatura media	23.2
45122	7	Sololá	717	San Juan la Laguna	12	San Juan la Laguna	3	Marzo	2023-03-30T00:00:00	2024-11-08T10:00:00	4	Temperatura máxima	23.2
45123	7	Sololá	717	San Juan la Laguna	12	San Juan la Laguna	3	Marzo	2023-03-30T00:00:00	2024-11-08T10:00:00	3	Temperatura mínima	21.1
45124	7	Sololá	717	San Juan la Laguna	12	San Juan la Laguna	3	Marzo	2023-03-30T00:00:00	2024-11-08T10:00:00	5	Humedad	42
45125	7	Sololá	717	San Juan la Laguna	12	San Juan la Laguna	3	Marzo	2023-03-30T00:00:00	2024-11-08T10:00:00	6	Velocidad del viento	3.2
45126	7	Sololá	717	San Juan la Laguna	12	San Juan la Laguna	3	Marzo	2023-03-30T00:00:00	2024-11-08T10:00:00	7	Dirección del viento	3.22
45127	7	Sololá	717	San Juan la Laguna	12	San Juan la Laguna	3	Marzo	2023-03-30T00:00:00	2024-11-08T10:00:00	1	Precipitación	0
45128	7	Sololá	717	San Juan la Laguna	12	San Juan la Laguna	3	Marzo	2023-03-30T00:00:00	2024-11-08T10:00:00	8	Radiación solar	693
45129	7	Sololá	717	San Juan la Laguna	12	San Juan la Laguna	3	Marzo	2023-03-30T00:00:00	2024-11-08T11:00:00	2	Temperatura media	24.1
45130	7	Sololá	717	San Juan la Laguna	12	San Juan la Laguna	3	Marzo	2023-03-30T00:00:00	2024-11-08T11:00:00	4	Temperatura máxima	24.4
45131	7	Sololá	717	San Juan la Laguna	12	San Juan la Laguna	3	Marzo	2023-03-30T00:00:00	2024-11-08T11:00:00	3	Temperatura mínima	23.2
45132	7	Sololá	717	San Juan la Laguna	12	San Juan la Laguna	3	Marzo	2023-03-30T00:00:00	2024-11-08T11:00:00	5	Humedad	42
45133	7	Sololá	717	San Juan la Laguna	12	San Juan la Laguna	3	Marzo	2023-03-30T00:00:00	2024-11-08T11:00:00	6	Velocidad del viento	3.2
45134	7	Sololá	717	San Juan la Laguna	12	San Juan la Laguna	3	Marzo	2023-03-30T00:00:00	2024-11-08T11:00:00	7	Dirección del viento	3.22
45135	7	Sololá	717	San Juan la Laguna	12	San Juan la Laguna	3	Marzo	2023-03-30T00:00:00	2024-11-08T11:00:00	1	Precipitación	0
45136	7	Sololá	717	San Juan la Laguna	12	San Juan la Laguna	3	Marzo	2023-03-30T00:00:00	2024-11-08T11:00:00	8	Radiación solar	864
45137	7	Sololá	717	San Juan la Laguna	12	San Juan la Laguna	3	Marzo	2023-03-30T00:00:00	2024-11-08T12:00:00	2	Temperatura media	24.6
45138	7	Sololá	717	San Juan la Laguna	12	San Juan la Laguna	3	Marzo	2023-03-30T00:00:00	2024-11-08T12:00:00	4	Temperatura máxima	25.2
45139	7	Sololá	717	San Juan la Laguna	12	San Juan la Laguna	3	Marzo	2023-03-30T00:00:00	2024-11-08T12:00:00	3	Temperatura mínima	24.1
45140	7	Sololá	717	San Juan la Laguna	12	San Juan la Laguna	3	Marzo	2023-03-30T00:00:00	2024-11-08T12:00:00	5	Humedad	39
45141	7	Sololá	717	San Juan la Laguna	12	San Juan la Laguna	3	Marzo	2023-03-30T00:00:00	2024-11-08T12:00:00	6	Velocidad del viento	3.2
45142	7	Sololá	717	San Juan la Laguna	12	San Juan la Laguna	3	Marzo	2023-03-30T00:00:00	2024-11-08T12:00:00	7	Dirección del viento	3.22
45143	7	Sololá	717	San Juan la Laguna	12	San Juan la Laguna	3	Marzo	2023-03-30T00:00:00	2024-11-08T12:00:00	1	Precipitación	0
45144	7	Sololá	717	San Juan la Laguna	12	San Juan la Laguna	3	Marzo	2023-03-30T00:00:00	2024-11-08T12:00:00	8	Radiación solar	950
45145	7	Sololá	717	San Juan la Laguna	12	San Juan la Laguna	3	Marzo	2023-03-30T00:00:00	2024-11-08T13:00:00	2	Temperatura media	25.9
45146	7	Sololá	717	San Juan la Laguna	12	San Juan la Laguna	3	Marzo	2023-03-30T00:00:00	2024-11-08T13:00:00	4	Temperatura máxima	26
45147	7	Sololá	717	San Juan la Laguna	12	San Juan la Laguna	3	Marzo	2023-03-30T00:00:00	2024-11-08T13:00:00	3	Temperatura mínima	24.6
45148	7	Sololá	717	San Juan la Laguna	12	San Juan la Laguna	3	Marzo	2023-03-30T00:00:00	2024-11-08T13:00:00	5	Humedad	36
45149	7	Sololá	717	San Juan la Laguna	12	San Juan la Laguna	3	Marzo	2023-03-30T00:00:00	2024-11-08T13:00:00	6	Velocidad del viento	3.2
45150	7	Sololá	717	San Juan la Laguna	12	San Juan la Laguna	3	Marzo	2023-03-30T00:00:00	2024-11-08T13:00:00	7	Dirección del viento	3.22
45151	7	Sololá	717	San Juan la Laguna	12	San Juan la Laguna	3	Marzo	2023-03-30T00:00:00	2024-11-08T13:00:00	1	Precipitación	0
45152	7	Sololá	717	San Juan la Laguna	12	San Juan la Laguna	3	Marzo	2023-03-30T00:00:00	2024-11-08T13:00:00	8	Radiación solar	970
45153	7	Sololá	717	San Juan la Laguna	12	San Juan la Laguna	3	Marzo	2023-03-30T00:00:00	2024-11-08T14:00:00	2	Temperatura media	26.2
45154	7	Sololá	717	San Juan la Laguna	12	San Juan la Laguna	3	Marzo	2023-03-30T00:00:00	2024-11-08T14:00:00	4	Temperatura máxima	26.5
45155	7	Sololá	717	San Juan la Laguna	12	San Juan la Laguna	3	Marzo	2023-03-30T00:00:00	2024-11-08T14:00:00	3	Temperatura mínima	25.9
45156	7	Sololá	717	San Juan la Laguna	12	San Juan la Laguna	3	Marzo	2023-03-30T00:00:00	2024-11-08T14:00:00	5	Humedad	38
45157	7	Sololá	717	San Juan la Laguna	12	San Juan la Laguna	3	Marzo	2023-03-30T00:00:00	2024-11-08T14:00:00	6	Velocidad del viento	3.2
45158	7	Sololá	717	San Juan la Laguna	12	San Juan la Laguna	3	Marzo	2023-03-30T00:00:00	2024-11-08T14:00:00	7	Dirección del viento	3.22
45159	7	Sololá	717	San Juan la Laguna	12	San Juan la Laguna	3	Marzo	2023-03-30T00:00:00	2024-11-08T14:00:00	1	Precipitación	0
45160	7	Sololá	717	San Juan la Laguna	12	San Juan la Laguna	3	Marzo	2023-03-30T00:00:00	2024-11-08T14:00:00	8	Radiación solar	911
45161	7	Sololá	717	San Juan la Laguna	12	San Juan la Laguna	3	Marzo	2023-03-30T00:00:00	2024-11-08T15:00:00	2	Temperatura media	22.8
45162	7	Sololá	717	San Juan la Laguna	12	San Juan la Laguna	3	Marzo	2023-03-30T00:00:00	2024-11-08T15:00:00	4	Temperatura máxima	26.6
45163	7	Sololá	717	San Juan la Laguna	12	San Juan la Laguna	3	Marzo	2023-03-30T00:00:00	2024-11-08T15:00:00	3	Temperatura mínima	22.8
45164	7	Sololá	717	San Juan la Laguna	12	San Juan la Laguna	3	Marzo	2023-03-30T00:00:00	2024-11-08T15:00:00	5	Humedad	64
45165	7	Sololá	717	San Juan la Laguna	12	San Juan la Laguna	3	Marzo	2023-03-30T00:00:00	2024-11-08T15:00:00	6	Velocidad del viento	3.2
45166	7	Sololá	717	San Juan la Laguna	12	San Juan la Laguna	3	Marzo	2023-03-30T00:00:00	2024-11-08T15:00:00	7	Dirección del viento	3.22
45167	7	Sololá	717	San Juan la Laguna	12	San Juan la Laguna	3	Marzo	2023-03-30T00:00:00	2024-11-08T15:00:00	1	Precipitación	0
45168	7	Sololá	717	San Juan la Laguna	12	San Juan la Laguna	3	Marzo	2023-03-30T00:00:00	2024-11-08T15:00:00	8	Radiación solar	772
45169	7	Sololá	717	San Juan la Laguna	12	San Juan la Laguna	3	Marzo	2023-03-30T00:00:00	2024-11-08T16:00:00	2	Temperatura media	22.2
45170	7	Sololá	717	San Juan la Laguna	12	San Juan la Laguna	3	Marzo	2023-03-30T00:00:00	2024-11-08T16:00:00	4	Temperatura máxima	23
45171	7	Sololá	717	San Juan la Laguna	12	San Juan la Laguna	3	Marzo	2023-03-30T00:00:00	2024-11-08T16:00:00	3	Temperatura mínima	22.2
45172	7	Sololá	717	San Juan la Laguna	12	San Juan la Laguna	3	Marzo	2023-03-30T00:00:00	2024-11-08T16:00:00	5	Humedad	67
45173	7	Sololá	717	San Juan la Laguna	12	San Juan la Laguna	3	Marzo	2023-03-30T00:00:00	2024-11-08T16:00:00	6	Velocidad del viento	6.4
45174	7	Sololá	717	San Juan la Laguna	12	San Juan la Laguna	3	Marzo	2023-03-30T00:00:00	2024-11-08T16:00:00	7	Dirección del viento	6.44
45175	7	Sololá	717	San Juan la Laguna	12	San Juan la Laguna	3	Marzo	2023-03-30T00:00:00	2024-11-08T16:00:00	1	Precipitación	0
45176	7	Sololá	717	San Juan la Laguna	12	San Juan la Laguna	3	Marzo	2023-03-30T00:00:00	2024-11-08T16:00:00	8	Radiación solar	573
45177	7	Sololá	717	San Juan la Laguna	12	San Juan la Laguna	3	Marzo	2023-03-30T00:00:00	2024-11-08T17:00:00	2	Temperatura media	21.8
45178	7	Sololá	717	San Juan la Laguna	12	San Juan la Laguna	3	Marzo	2023-03-30T00:00:00	2024-11-08T17:00:00	4	Temperatura máxima	22.2
45179	7	Sololá	717	San Juan la Laguna	12	San Juan la Laguna	3	Marzo	2023-03-30T00:00:00	2024-11-08T17:00:00	3	Temperatura mínima	21.7
45180	7	Sololá	717	San Juan la Laguna	12	San Juan la Laguna	3	Marzo	2023-03-30T00:00:00	2024-11-08T17:00:00	5	Humedad	70
45181	7	Sololá	717	San Juan la Laguna	12	San Juan la Laguna	3	Marzo	2023-03-30T00:00:00	2024-11-08T17:00:00	6	Velocidad del viento	4.8
45182	7	Sololá	717	San Juan la Laguna	12	San Juan la Laguna	3	Marzo	2023-03-30T00:00:00	2024-11-08T17:00:00	7	Dirección del viento	4.83
45183	7	Sololá	717	San Juan la Laguna	12	San Juan la Laguna	3	Marzo	2023-03-30T00:00:00	2024-11-08T17:00:00	1	Precipitación	0
45184	7	Sololá	717	San Juan la Laguna	12	San Juan la Laguna	3	Marzo	2023-03-30T00:00:00	2024-11-08T17:00:00	8	Radiación solar	333
45185	7	Sololá	717	San Juan la Laguna	12	San Juan la Laguna	3	Marzo	2023-03-30T00:00:00	2024-11-08T18:00:00	2	Temperatura media	19.5
45186	7	Sololá	717	San Juan la Laguna	12	San Juan la Laguna	3	Marzo	2023-03-30T00:00:00	2024-11-08T18:00:00	4	Temperatura máxima	21.8
45187	7	Sololá	717	San Juan la Laguna	12	San Juan la Laguna	3	Marzo	2023-03-30T00:00:00	2024-11-08T18:00:00	3	Temperatura mínima	19.5
45188	7	Sololá	717	San Juan la Laguna	12	San Juan la Laguna	3	Marzo	2023-03-30T00:00:00	2024-11-08T18:00:00	5	Humedad	78
45189	7	Sololá	717	San Juan la Laguna	12	San Juan la Laguna	3	Marzo	2023-03-30T00:00:00	2024-11-08T18:00:00	6	Velocidad del viento	4.8
45190	7	Sololá	717	San Juan la Laguna	12	San Juan la Laguna	3	Marzo	2023-03-30T00:00:00	2024-11-08T18:00:00	7	Dirección del viento	4.83
45191	7	Sololá	717	San Juan la Laguna	12	San Juan la Laguna	3	Marzo	2023-03-30T00:00:00	2024-11-08T18:00:00	1	Precipitación	0
45192	7	Sololá	717	San Juan la Laguna	12	San Juan la Laguna	3	Marzo	2023-03-30T00:00:00	2024-11-08T18:00:00	8	Radiación solar	51
45193	7	Sololá	717	San Juan la Laguna	12	San Juan la Laguna	3	Marzo	2023-03-30T00:00:00	2024-11-08T19:00:00	2	Temperatura media	18.6
45194	7	Sololá	717	San Juan la Laguna	12	San Juan la Laguna	3	Marzo	2023-03-30T00:00:00	2024-11-08T19:00:00	4	Temperatura máxima	19.6
45195	7	Sololá	717	San Juan la Laguna	12	San Juan la Laguna	3	Marzo	2023-03-30T00:00:00	2024-11-08T19:00:00	3	Temperatura mínima	18.6
45196	7	Sololá	717	San Juan la Laguna	12	San Juan la Laguna	3	Marzo	2023-03-30T00:00:00	2024-11-08T19:00:00	5	Humedad	81
45197	7	Sololá	717	San Juan la Laguna	12	San Juan la Laguna	3	Marzo	2023-03-30T00:00:00	2024-11-08T19:00:00	6	Velocidad del viento	4.8
45198	7	Sololá	717	San Juan la Laguna	12	San Juan la Laguna	3	Marzo	2023-03-30T00:00:00	2024-11-08T19:00:00	7	Dirección del viento	4.83
45199	7	Sololá	717	San Juan la Laguna	12	San Juan la Laguna	3	Marzo	2023-03-30T00:00:00	2024-11-08T19:00:00	1	Precipitación	0
45200	7	Sololá	717	San Juan la Laguna	12	San Juan la Laguna	3	Marzo	2023-03-30T00:00:00	2024-11-08T19:00:00	8	Radiación solar	0
45201	7	Sololá	717	San Juan la Laguna	12	San Juan la Laguna	3	Marzo	2023-03-30T00:00:00	2024-11-08T20:00:00	2	Temperatura media	17.7
45202	7	Sololá	717	San Juan la Laguna	12	San Juan la Laguna	3	Marzo	2023-03-30T00:00:00	2024-11-08T20:00:00	4	Temperatura máxima	18.6
45203	7	Sololá	717	San Juan la Laguna	12	San Juan la Laguna	3	Marzo	2023-03-30T00:00:00	2024-11-08T20:00:00	3	Temperatura mínima	17.7
45204	7	Sololá	717	San Juan la Laguna	12	San Juan la Laguna	3	Marzo	2023-03-30T00:00:00	2024-11-08T20:00:00	5	Humedad	83
45205	7	Sololá	717	San Juan la Laguna	12	San Juan la Laguna	3	Marzo	2023-03-30T00:00:00	2024-11-08T20:00:00	6	Velocidad del viento	0
45206	7	Sololá	717	San Juan la Laguna	12	San Juan la Laguna	3	Marzo	2023-03-30T00:00:00	2024-11-08T20:00:00	7	Dirección del viento	0
45207	7	Sololá	717	San Juan la Laguna	12	San Juan la Laguna	3	Marzo	2023-03-30T00:00:00	2024-11-08T20:00:00	1	Precipitación	0
45208	7	Sololá	717	San Juan la Laguna	12	San Juan la Laguna	3	Marzo	2023-03-30T00:00:00	2024-11-08T20:00:00	8	Radiación solar	0
45209	7	Sololá	717	San Juan la Laguna	12	San Juan la Laguna	3	Marzo	2023-03-30T00:00:00	2024-11-08T21:00:00	2	Temperatura media	16.6
45210	7	Sololá	717	San Juan la Laguna	12	San Juan la Laguna	3	Marzo	2023-03-30T00:00:00	2024-11-08T21:00:00	4	Temperatura máxima	17.7
45211	7	Sololá	717	San Juan la Laguna	12	San Juan la Laguna	3	Marzo	2023-03-30T00:00:00	2024-11-08T21:00:00	3	Temperatura mínima	16.5
45212	7	Sololá	717	San Juan la Laguna	12	San Juan la Laguna	3	Marzo	2023-03-30T00:00:00	2024-11-08T21:00:00	5	Humedad	87
45213	7	Sololá	717	San Juan la Laguna	12	San Juan la Laguna	3	Marzo	2023-03-30T00:00:00	2024-11-08T21:00:00	6	Velocidad del viento	1.6
45214	7	Sololá	717	San Juan la Laguna	12	San Juan la Laguna	3	Marzo	2023-03-30T00:00:00	2024-11-08T21:00:00	7	Dirección del viento	1.61
45215	7	Sololá	717	San Juan la Laguna	12	San Juan la Laguna	3	Marzo	2023-03-30T00:00:00	2024-11-08T21:00:00	1	Precipitación	0
45216	7	Sololá	717	San Juan la Laguna	12	San Juan la Laguna	3	Marzo	2023-03-30T00:00:00	2024-11-08T21:00:00	8	Radiación solar	0
45217	7	Sololá	717	San Juan la Laguna	12	San Juan la Laguna	3	Marzo	2023-03-30T00:00:00	2024-11-08T22:00:00	2	Temperatura media	16.4
45218	7	Sololá	717	San Juan la Laguna	12	San Juan la Laguna	3	Marzo	2023-03-30T00:00:00	2024-11-08T22:00:00	4	Temperatura máxima	16.7
45219	7	Sololá	717	San Juan la Laguna	12	San Juan la Laguna	3	Marzo	2023-03-30T00:00:00	2024-11-08T22:00:00	3	Temperatura mínima	16.3
45220	7	Sololá	717	San Juan la Laguna	12	San Juan la Laguna	3	Marzo	2023-03-30T00:00:00	2024-11-08T22:00:00	5	Humedad	83
45221	7	Sololá	717	San Juan la Laguna	12	San Juan la Laguna	3	Marzo	2023-03-30T00:00:00	2024-11-08T22:00:00	6	Velocidad del viento	1.6
45222	7	Sololá	717	San Juan la Laguna	12	San Juan la Laguna	3	Marzo	2023-03-30T00:00:00	2024-11-08T22:00:00	7	Dirección del viento	1.61
45223	7	Sololá	717	San Juan la Laguna	12	San Juan la Laguna	3	Marzo	2023-03-30T00:00:00	2024-11-08T22:00:00	1	Precipitación	0
45224	7	Sololá	717	San Juan la Laguna	12	San Juan la Laguna	3	Marzo	2023-03-30T00:00:00	2024-11-08T22:00:00	8	Radiación solar	0
45225	7	Sololá	717	San Juan la Laguna	12	San Juan la Laguna	3	Marzo	2023-03-30T00:00:00	2024-11-08T23:00:00	2	Temperatura media	17.7
45226	7	Sololá	717	San Juan la Laguna	12	San Juan la Laguna	3	Marzo	2023-03-30T00:00:00	2024-11-08T23:00:00	4	Temperatura máxima	17.7
45227	7	Sololá	717	San Juan la Laguna	12	San Juan la Laguna	3	Marzo	2023-03-30T00:00:00	2024-11-08T23:00:00	3	Temperatura mínima	16.1
45228	7	Sololá	717	San Juan la Laguna	12	San Juan la Laguna	3	Marzo	2023-03-30T00:00:00	2024-11-08T23:00:00	5	Humedad	74
45229	7	Sololá	717	San Juan la Laguna	12	San Juan la Laguna	3	Marzo	2023-03-30T00:00:00	2024-11-08T23:00:00	6	Velocidad del viento	1.6
45230	7	Sololá	717	San Juan la Laguna	12	San Juan la Laguna	3	Marzo	2023-03-30T00:00:00	2024-11-08T23:00:00	7	Dirección del viento	1.61
45231	7	Sololá	717	San Juan la Laguna	12	San Juan la Laguna	3	Marzo	2023-03-30T00:00:00	2024-11-08T23:00:00	1	Precipitación	0
45232	7	Sololá	717	San Juan la Laguna	12	San Juan la Laguna	3	Marzo	2023-03-30T00:00:00	2024-11-08T23:00:00	8	Radiación solar	0
45233	7	Sololá	717	San Juan la Laguna	12	San Juan la Laguna	3	Marzo	2023-03-31T00:00:00	2024-11-08T00:00:00	2	Temperatura media	17.7
45234	7	Sololá	717	San Juan la Laguna	12	San Juan la Laguna	3	Marzo	2023-03-31T00:00:00	2024-11-08T00:00:00	4	Temperatura máxima	17.9
45235	7	Sololá	717	San Juan la Laguna	12	San Juan la Laguna	3	Marzo	2023-03-31T00:00:00	2024-11-08T00:00:00	3	Temperatura mínima	16.9
45236	7	Sololá	717	San Juan la Laguna	12	San Juan la Laguna	3	Marzo	2023-03-31T00:00:00	2024-11-08T00:00:00	5	Humedad	70
45237	7	Sololá	717	San Juan la Laguna	12	San Juan la Laguna	3	Marzo	2023-03-31T00:00:00	2024-11-08T00:00:00	6	Velocidad del viento	1.6
45238	7	Sololá	717	San Juan la Laguna	12	San Juan la Laguna	3	Marzo	2023-03-31T00:00:00	2024-11-08T00:00:00	7	Dirección del viento	1.61
45239	7	Sololá	717	San Juan la Laguna	12	San Juan la Laguna	3	Marzo	2023-03-31T00:00:00	2024-11-08T00:00:00	1	Precipitación	0
45240	7	Sololá	717	San Juan la Laguna	12	San Juan la Laguna	3	Marzo	2023-03-31T00:00:00	2024-11-08T00:00:00	8	Radiación solar	0
45241	7	Sololá	717	San Juan la Laguna	12	San Juan la Laguna	3	Marzo	2023-03-31T00:00:00	2024-11-08T01:00:00	2	Temperatura media	15.1
45242	7	Sololá	717	San Juan la Laguna	12	San Juan la Laguna	3	Marzo	2023-03-31T00:00:00	2024-11-08T01:00:00	4	Temperatura máxima	18.2
45243	7	Sololá	717	San Juan la Laguna	12	San Juan la Laguna	3	Marzo	2023-03-31T00:00:00	2024-11-08T01:00:00	3	Temperatura mínima	15.1
45244	7	Sololá	717	San Juan la Laguna	12	San Juan la Laguna	3	Marzo	2023-03-31T00:00:00	2024-11-08T01:00:00	5	Humedad	75
45245	7	Sololá	717	San Juan la Laguna	12	San Juan la Laguna	3	Marzo	2023-03-31T00:00:00	2024-11-08T01:00:00	6	Velocidad del viento	3.2
45246	7	Sololá	717	San Juan la Laguna	12	San Juan la Laguna	3	Marzo	2023-03-31T00:00:00	2024-11-08T01:00:00	7	Dirección del viento	3.22
45247	7	Sololá	717	San Juan la Laguna	12	San Juan la Laguna	3	Marzo	2023-03-31T00:00:00	2024-11-08T01:00:00	1	Precipitación	0
45248	7	Sololá	717	San Juan la Laguna	12	San Juan la Laguna	3	Marzo	2023-03-31T00:00:00	2024-11-08T01:00:00	8	Radiación solar	0
45249	7	Sololá	717	San Juan la Laguna	12	San Juan la Laguna	3	Marzo	2023-03-31T00:00:00	2024-11-08T02:00:00	2	Temperatura media	14.3
45250	7	Sololá	717	San Juan la Laguna	12	San Juan la Laguna	3	Marzo	2023-03-31T00:00:00	2024-11-08T02:00:00	4	Temperatura máxima	15.2
45251	7	Sololá	717	San Juan la Laguna	12	San Juan la Laguna	3	Marzo	2023-03-31T00:00:00	2024-11-08T02:00:00	3	Temperatura mínima	14.3
45252	7	Sololá	717	San Juan la Laguna	12	San Juan la Laguna	3	Marzo	2023-03-31T00:00:00	2024-11-08T02:00:00	5	Humedad	74
45253	7	Sololá	717	San Juan la Laguna	12	San Juan la Laguna	3	Marzo	2023-03-31T00:00:00	2024-11-08T02:00:00	6	Velocidad del viento	3.2
45254	7	Sololá	717	San Juan la Laguna	12	San Juan la Laguna	3	Marzo	2023-03-31T00:00:00	2024-11-08T02:00:00	7	Dirección del viento	3.22
45255	7	Sololá	717	San Juan la Laguna	12	San Juan la Laguna	3	Marzo	2023-03-31T00:00:00	2024-11-08T02:00:00	1	Precipitación	0
45256	7	Sololá	717	San Juan la Laguna	12	San Juan la Laguna	3	Marzo	2023-03-31T00:00:00	2024-11-08T02:00:00	8	Radiación solar	0
45257	7	Sololá	717	San Juan la Laguna	12	San Juan la Laguna	3	Marzo	2023-03-31T00:00:00	2024-11-08T03:00:00	2	Temperatura media	13.4
45258	7	Sololá	717	San Juan la Laguna	12	San Juan la Laguna	3	Marzo	2023-03-31T00:00:00	2024-11-08T03:00:00	4	Temperatura máxima	14.3
45259	7	Sololá	717	San Juan la Laguna	12	San Juan la Laguna	3	Marzo	2023-03-31T00:00:00	2024-11-08T03:00:00	3	Temperatura mínima	13.4
45260	7	Sololá	717	San Juan la Laguna	12	San Juan la Laguna	3	Marzo	2023-03-31T00:00:00	2024-11-08T03:00:00	5	Humedad	77
45261	7	Sololá	717	San Juan la Laguna	12	San Juan la Laguna	3	Marzo	2023-03-31T00:00:00	2024-11-08T03:00:00	6	Velocidad del viento	1.6
45262	7	Sololá	717	San Juan la Laguna	12	San Juan la Laguna	3	Marzo	2023-03-31T00:00:00	2024-11-08T03:00:00	7	Dirección del viento	1.61
45263	7	Sololá	717	San Juan la Laguna	12	San Juan la Laguna	3	Marzo	2023-03-31T00:00:00	2024-11-08T03:00:00	1	Precipitación	0
45264	7	Sololá	717	San Juan la Laguna	12	San Juan la Laguna	3	Marzo	2023-03-31T00:00:00	2024-11-08T03:00:00	8	Radiación solar	0
45265	7	Sololá	717	San Juan la Laguna	12	San Juan la Laguna	3	Marzo	2023-03-31T00:00:00	2024-11-08T04:00:00	2	Temperatura media	13.6
45266	7	Sololá	717	San Juan la Laguna	12	San Juan la Laguna	3	Marzo	2023-03-31T00:00:00	2024-11-08T04:00:00	4	Temperatura máxima	13.9
45267	7	Sololá	717	San Juan la Laguna	12	San Juan la Laguna	3	Marzo	2023-03-31T00:00:00	2024-11-08T04:00:00	3	Temperatura mínima	13.4
45268	7	Sololá	717	San Juan la Laguna	12	San Juan la Laguna	3	Marzo	2023-03-31T00:00:00	2024-11-08T04:00:00	5	Humedad	77
45269	7	Sololá	717	San Juan la Laguna	12	San Juan la Laguna	3	Marzo	2023-03-31T00:00:00	2024-11-08T04:00:00	6	Velocidad del viento	1.6
45270	7	Sololá	717	San Juan la Laguna	12	San Juan la Laguna	3	Marzo	2023-03-31T00:00:00	2024-11-08T04:00:00	7	Dirección del viento	1.61
45271	7	Sololá	717	San Juan la Laguna	12	San Juan la Laguna	3	Marzo	2023-03-31T00:00:00	2024-11-08T04:00:00	1	Precipitación	0
45272	7	Sololá	717	San Juan la Laguna	12	San Juan la Laguna	3	Marzo	2023-03-31T00:00:00	2024-11-08T04:00:00	8	Radiación solar	0
45273	7	Sololá	717	San Juan la Laguna	12	San Juan la Laguna	3	Marzo	2023-03-31T00:00:00	2024-11-08T05:00:00	2	Temperatura media	13
45274	7	Sololá	717	San Juan la Laguna	12	San Juan la Laguna	3	Marzo	2023-03-31T00:00:00	2024-11-08T05:00:00	4	Temperatura máxima	13.6
45275	7	Sololá	717	San Juan la Laguna	12	San Juan la Laguna	3	Marzo	2023-03-31T00:00:00	2024-11-08T05:00:00	3	Temperatura mínima	12.8
45276	7	Sololá	717	San Juan la Laguna	12	San Juan la Laguna	3	Marzo	2023-03-31T00:00:00	2024-11-08T05:00:00	5	Humedad	79
45277	7	Sololá	717	San Juan la Laguna	12	San Juan la Laguna	3	Marzo	2023-03-31T00:00:00	2024-11-08T05:00:00	6	Velocidad del viento	1.6
45278	7	Sololá	717	San Juan la Laguna	12	San Juan la Laguna	3	Marzo	2023-03-31T00:00:00	2024-11-08T05:00:00	7	Dirección del viento	1.61
45279	7	Sololá	717	San Juan la Laguna	12	San Juan la Laguna	3	Marzo	2023-03-31T00:00:00	2024-11-08T05:00:00	1	Precipitación	0
45280	7	Sololá	717	San Juan la Laguna	12	San Juan la Laguna	3	Marzo	2023-03-31T00:00:00	2024-11-08T05:00:00	8	Radiación solar	0
45281	7	Sololá	717	San Juan la Laguna	12	San Juan la Laguna	3	Marzo	2023-03-31T00:00:00	2024-11-08T06:00:00	2	Temperatura media	13.8
45282	7	Sololá	717	San Juan la Laguna	12	San Juan la Laguna	3	Marzo	2023-03-31T00:00:00	2024-11-08T06:00:00	4	Temperatura máxima	13.8
45283	7	Sololá	717	San Juan la Laguna	12	San Juan la Laguna	3	Marzo	2023-03-31T00:00:00	2024-11-08T06:00:00	3	Temperatura mínima	13
45284	7	Sololá	717	San Juan la Laguna	12	San Juan la Laguna	3	Marzo	2023-03-31T00:00:00	2024-11-08T06:00:00	5	Humedad	75
45285	7	Sololá	717	San Juan la Laguna	12	San Juan la Laguna	3	Marzo	2023-03-31T00:00:00	2024-11-08T06:00:00	6	Velocidad del viento	1.6
45286	7	Sololá	717	San Juan la Laguna	12	San Juan la Laguna	3	Marzo	2023-03-31T00:00:00	2024-11-08T06:00:00	7	Dirección del viento	1.61
45287	7	Sololá	717	San Juan la Laguna	12	San Juan la Laguna	3	Marzo	2023-03-31T00:00:00	2024-11-08T06:00:00	1	Precipitación	0
45288	7	Sololá	717	San Juan la Laguna	12	San Juan la Laguna	3	Marzo	2023-03-31T00:00:00	2024-11-08T06:00:00	8	Radiación solar	0
45289	7	Sololá	717	San Juan la Laguna	12	San Juan la Laguna	3	Marzo	2023-03-31T00:00:00	2024-11-08T07:00:00	2	Temperatura media	14.8
45290	7	Sololá	717	San Juan la Laguna	12	San Juan la Laguna	3	Marzo	2023-03-31T00:00:00	2024-11-08T07:00:00	4	Temperatura máxima	14.8
45291	7	Sololá	717	San Juan la Laguna	12	San Juan la Laguna	3	Marzo	2023-03-31T00:00:00	2024-11-08T07:00:00	3	Temperatura mínima	13.4
45292	7	Sololá	717	San Juan la Laguna	12	San Juan la Laguna	3	Marzo	2023-03-31T00:00:00	2024-11-08T07:00:00	5	Humedad	77
45293	7	Sololá	717	San Juan la Laguna	12	San Juan la Laguna	3	Marzo	2023-03-31T00:00:00	2024-11-08T07:00:00	6	Velocidad del viento	0
45294	7	Sololá	717	San Juan la Laguna	12	San Juan la Laguna	3	Marzo	2023-03-31T00:00:00	2024-11-08T07:00:00	7	Dirección del viento	0
45295	7	Sololá	717	San Juan la Laguna	12	San Juan la Laguna	3	Marzo	2023-03-31T00:00:00	2024-11-08T07:00:00	1	Precipitación	0
45296	7	Sololá	717	San Juan la Laguna	12	San Juan la Laguna	3	Marzo	2023-03-31T00:00:00	2024-11-08T07:00:00	8	Radiación solar	42
45297	7	Sololá	717	San Juan la Laguna	12	San Juan la Laguna	3	Marzo	2023-03-31T00:00:00	2024-11-08T08:00:00	2	Temperatura media	19.6
45298	7	Sololá	717	San Juan la Laguna	12	San Juan la Laguna	3	Marzo	2023-03-31T00:00:00	2024-11-08T08:00:00	4	Temperatura máxima	19.6
45299	7	Sololá	717	San Juan la Laguna	12	San Juan la Laguna	3	Marzo	2023-03-31T00:00:00	2024-11-08T08:00:00	3	Temperatura mínima	14.8
45300	7	Sololá	717	San Juan la Laguna	12	San Juan la Laguna	3	Marzo	2023-03-31T00:00:00	2024-11-08T08:00:00	5	Humedad	64
45301	7	Sololá	717	San Juan la Laguna	12	San Juan la Laguna	3	Marzo	2023-03-31T00:00:00	2024-11-08T08:00:00	6	Velocidad del viento	0
45302	7	Sololá	717	San Juan la Laguna	12	San Juan la Laguna	3	Marzo	2023-03-31T00:00:00	2024-11-08T08:00:00	7	Dirección del viento	0
45303	7	Sololá	717	San Juan la Laguna	12	San Juan la Laguna	3	Marzo	2023-03-31T00:00:00	2024-11-08T08:00:00	1	Precipitación	0
45304	7	Sololá	717	San Juan la Laguna	12	San Juan la Laguna	3	Marzo	2023-03-31T00:00:00	2024-11-08T08:00:00	8	Radiación solar	212
45305	7	Sololá	717	San Juan la Laguna	12	San Juan la Laguna	3	Marzo	2023-03-31T00:00:00	2024-11-08T09:00:00	2	Temperatura media	21.8
45306	7	Sololá	717	San Juan la Laguna	12	San Juan la Laguna	3	Marzo	2023-03-31T00:00:00	2024-11-08T09:00:00	4	Temperatura máxima	21.8
45307	7	Sololá	717	San Juan la Laguna	12	San Juan la Laguna	3	Marzo	2023-03-31T00:00:00	2024-11-08T09:00:00	3	Temperatura mínima	19.6
45308	7	Sololá	717	San Juan la Laguna	12	San Juan la Laguna	3	Marzo	2023-03-31T00:00:00	2024-11-08T09:00:00	5	Humedad	53
45309	7	Sololá	717	San Juan la Laguna	12	San Juan la Laguna	3	Marzo	2023-03-31T00:00:00	2024-11-08T09:00:00	6	Velocidad del viento	1.6
45310	7	Sololá	717	San Juan la Laguna	12	San Juan la Laguna	3	Marzo	2023-03-31T00:00:00	2024-11-08T09:00:00	7	Dirección del viento	1.61
45311	7	Sololá	717	San Juan la Laguna	12	San Juan la Laguna	3	Marzo	2023-03-31T00:00:00	2024-11-08T09:00:00	1	Precipitación	0
45312	7	Sololá	717	San Juan la Laguna	12	San Juan la Laguna	3	Marzo	2023-03-31T00:00:00	2024-11-08T09:00:00	8	Radiación solar	388
45313	7	Sololá	717	San Juan la Laguna	12	San Juan la Laguna	3	Marzo	2023-03-31T00:00:00	2024-11-08T10:00:00	2	Temperatura media	23.6
45314	7	Sololá	717	San Juan la Laguna	12	San Juan la Laguna	3	Marzo	2023-03-31T00:00:00	2024-11-08T10:00:00	4	Temperatura máxima	23.7
45315	7	Sololá	717	San Juan la Laguna	12	San Juan la Laguna	3	Marzo	2023-03-31T00:00:00	2024-11-08T10:00:00	3	Temperatura mínima	21.8
45316	7	Sololá	717	San Juan la Laguna	12	San Juan la Laguna	3	Marzo	2023-03-31T00:00:00	2024-11-08T10:00:00	5	Humedad	47
45317	7	Sololá	717	San Juan la Laguna	12	San Juan la Laguna	3	Marzo	2023-03-31T00:00:00	2024-11-08T10:00:00	6	Velocidad del viento	3.2
45318	7	Sololá	717	San Juan la Laguna	12	San Juan la Laguna	3	Marzo	2023-03-31T00:00:00	2024-11-08T10:00:00	7	Dirección del viento	3.22
45319	7	Sololá	717	San Juan la Laguna	12	San Juan la Laguna	3	Marzo	2023-03-31T00:00:00	2024-11-08T10:00:00	1	Precipitación	0
45320	7	Sololá	717	San Juan la Laguna	12	San Juan la Laguna	3	Marzo	2023-03-31T00:00:00	2024-11-08T10:00:00	8	Radiación solar	690
45321	7	Sololá	717	San Juan la Laguna	12	San Juan la Laguna	3	Marzo	2023-03-31T00:00:00	2024-11-08T11:00:00	2	Temperatura media	23.5
45322	7	Sololá	717	San Juan la Laguna	12	San Juan la Laguna	3	Marzo	2023-03-31T00:00:00	2024-11-08T11:00:00	4	Temperatura máxima	23.8
45323	7	Sololá	717	San Juan la Laguna	12	San Juan la Laguna	3	Marzo	2023-03-31T00:00:00	2024-11-08T11:00:00	3	Temperatura mínima	23.1
45324	7	Sololá	717	San Juan la Laguna	12	San Juan la Laguna	3	Marzo	2023-03-31T00:00:00	2024-11-08T11:00:00	5	Humedad	48
45325	7	Sololá	717	San Juan la Laguna	12	San Juan la Laguna	3	Marzo	2023-03-31T00:00:00	2024-11-08T11:00:00	6	Velocidad del viento	1.6
45326	7	Sololá	717	San Juan la Laguna	12	San Juan la Laguna	3	Marzo	2023-03-31T00:00:00	2024-11-08T11:00:00	7	Dirección del viento	1.61
45327	7	Sololá	717	San Juan la Laguna	12	San Juan la Laguna	3	Marzo	2023-03-31T00:00:00	2024-11-08T11:00:00	1	Precipitación	0
45328	7	Sololá	717	San Juan la Laguna	12	San Juan la Laguna	3	Marzo	2023-03-31T00:00:00	2024-11-08T11:00:00	8	Radiación solar	868
45329	7	Sololá	717	San Juan la Laguna	12	San Juan la Laguna	3	Marzo	2023-03-31T00:00:00	2024-11-08T12:00:00	2	Temperatura media	24.3
45330	7	Sololá	717	San Juan la Laguna	12	San Juan la Laguna	3	Marzo	2023-03-31T00:00:00	2024-11-08T12:00:00	4	Temperatura máxima	24.3
45331	7	Sololá	717	San Juan la Laguna	12	San Juan la Laguna	3	Marzo	2023-03-31T00:00:00	2024-11-08T12:00:00	3	Temperatura mínima	23.4
45332	7	Sololá	717	San Juan la Laguna	12	San Juan la Laguna	3	Marzo	2023-03-31T00:00:00	2024-11-08T12:00:00	5	Humedad	43
45333	7	Sololá	717	San Juan la Laguna	12	San Juan la Laguna	3	Marzo	2023-03-31T00:00:00	2024-11-08T12:00:00	6	Velocidad del viento	1.6
45334	7	Sololá	717	San Juan la Laguna	12	San Juan la Laguna	3	Marzo	2023-03-31T00:00:00	2024-11-08T12:00:00	7	Dirección del viento	1.61
45335	7	Sololá	717	San Juan la Laguna	12	San Juan la Laguna	3	Marzo	2023-03-31T00:00:00	2024-11-08T12:00:00	1	Precipitación	0
45336	7	Sololá	717	San Juan la Laguna	12	San Juan la Laguna	3	Marzo	2023-03-31T00:00:00	2024-11-08T12:00:00	8	Radiación solar	961
45337	7	Sololá	717	San Juan la Laguna	12	San Juan la Laguna	3	Marzo	2023-03-31T00:00:00	2024-11-08T13:00:00	2	Temperatura media	24.5
45338	7	Sololá	717	San Juan la Laguna	12	San Juan la Laguna	3	Marzo	2023-03-31T00:00:00	2024-11-08T13:00:00	4	Temperatura máxima	25.2
45339	7	Sololá	717	San Juan la Laguna	12	San Juan la Laguna	3	Marzo	2023-03-31T00:00:00	2024-11-08T13:00:00	3	Temperatura mínima	24.3
45340	7	Sololá	717	San Juan la Laguna	12	San Juan la Laguna	3	Marzo	2023-03-31T00:00:00	2024-11-08T13:00:00	5	Humedad	55
45341	7	Sololá	717	San Juan la Laguna	12	San Juan la Laguna	3	Marzo	2023-03-31T00:00:00	2024-11-08T13:00:00	6	Velocidad del viento	1.6
45342	7	Sololá	717	San Juan la Laguna	12	San Juan la Laguna	3	Marzo	2023-03-31T00:00:00	2024-11-08T13:00:00	7	Dirección del viento	1.61
45343	7	Sololá	717	San Juan la Laguna	12	San Juan la Laguna	3	Marzo	2023-03-31T00:00:00	2024-11-08T13:00:00	1	Precipitación	0
45344	7	Sololá	717	San Juan la Laguna	12	San Juan la Laguna	3	Marzo	2023-03-31T00:00:00	2024-11-08T13:00:00	8	Radiación solar	967
45345	7	Sololá	717	San Juan la Laguna	12	San Juan la Laguna	3	Marzo	2023-03-31T00:00:00	2024-11-08T14:00:00	2	Temperatura media	22.6
45346	7	Sololá	717	San Juan la Laguna	12	San Juan la Laguna	3	Marzo	2023-03-31T00:00:00	2024-11-08T14:00:00	4	Temperatura máxima	24.6
45347	7	Sololá	717	San Juan la Laguna	12	San Juan la Laguna	3	Marzo	2023-03-31T00:00:00	2024-11-08T14:00:00	3	Temperatura mínima	22.6
45348	7	Sololá	717	San Juan la Laguna	12	San Juan la Laguna	3	Marzo	2023-03-31T00:00:00	2024-11-08T14:00:00	5	Humedad	67
45349	7	Sololá	717	San Juan la Laguna	12	San Juan la Laguna	3	Marzo	2023-03-31T00:00:00	2024-11-08T14:00:00	6	Velocidad del viento	6.4
45350	7	Sololá	717	San Juan la Laguna	12	San Juan la Laguna	3	Marzo	2023-03-31T00:00:00	2024-11-08T14:00:00	7	Dirección del viento	6.44
45351	7	Sololá	717	San Juan la Laguna	12	San Juan la Laguna	3	Marzo	2023-03-31T00:00:00	2024-11-08T14:00:00	1	Precipitación	0
45352	7	Sololá	717	San Juan la Laguna	12	San Juan la Laguna	3	Marzo	2023-03-31T00:00:00	2024-11-08T14:00:00	8	Radiación solar	842
45353	7	Sololá	717	San Juan la Laguna	12	San Juan la Laguna	3	Marzo	2023-03-31T00:00:00	2024-11-08T15:00:00	2	Temperatura media	21.5
45354	7	Sololá	717	San Juan la Laguna	12	San Juan la Laguna	3	Marzo	2023-03-31T00:00:00	2024-11-08T15:00:00	4	Temperatura máxima	22.8
45355	7	Sololá	717	San Juan la Laguna	12	San Juan la Laguna	3	Marzo	2023-03-31T00:00:00	2024-11-08T15:00:00	3	Temperatura mínima	21.5
45356	7	Sololá	717	San Juan la Laguna	12	San Juan la Laguna	3	Marzo	2023-03-31T00:00:00	2024-11-08T15:00:00	5	Humedad	72
45357	7	Sololá	717	San Juan la Laguna	12	San Juan la Laguna	3	Marzo	2023-03-31T00:00:00	2024-11-08T15:00:00	6	Velocidad del viento	8
45358	7	Sololá	717	San Juan la Laguna	12	San Juan la Laguna	3	Marzo	2023-03-31T00:00:00	2024-11-08T15:00:00	7	Dirección del viento	8.05
45359	7	Sololá	717	San Juan la Laguna	12	San Juan la Laguna	3	Marzo	2023-03-31T00:00:00	2024-11-08T15:00:00	1	Precipitación	0
45360	7	Sololá	717	San Juan la Laguna	12	San Juan la Laguna	3	Marzo	2023-03-31T00:00:00	2024-11-08T15:00:00	8	Radiación solar	706
45361	7	Sololá	717	San Juan la Laguna	12	San Juan la Laguna	3	Marzo	2023-03-31T00:00:00	2024-11-08T16:00:00	2	Temperatura media	21.7
45362	7	Sololá	717	San Juan la Laguna	12	San Juan la Laguna	3	Marzo	2023-03-31T00:00:00	2024-11-08T16:00:00	4	Temperatura máxima	21.9
45363	7	Sololá	717	San Juan la Laguna	12	San Juan la Laguna	3	Marzo	2023-03-31T00:00:00	2024-11-08T16:00:00	3	Temperatura mínima	20.8
45364	7	Sololá	717	San Juan la Laguna	12	San Juan la Laguna	3	Marzo	2023-03-31T00:00:00	2024-11-08T16:00:00	5	Humedad	71
45365	7	Sololá	717	San Juan la Laguna	12	San Juan la Laguna	3	Marzo	2023-03-31T00:00:00	2024-11-08T16:00:00	6	Velocidad del viento	6.4
45366	7	Sololá	717	San Juan la Laguna	12	San Juan la Laguna	3	Marzo	2023-03-31T00:00:00	2024-11-08T16:00:00	7	Dirección del viento	6.44
45367	7	Sololá	717	San Juan la Laguna	12	San Juan la Laguna	3	Marzo	2023-03-31T00:00:00	2024-11-08T16:00:00	1	Precipitación	0
45368	7	Sololá	717	San Juan la Laguna	12	San Juan la Laguna	3	Marzo	2023-03-31T00:00:00	2024-11-08T16:00:00	8	Radiación solar	325
45369	7	Sololá	717	San Juan la Laguna	12	San Juan la Laguna	3	Marzo	2023-03-31T00:00:00	2024-11-08T17:00:00	2	Temperatura media	21.9
45370	7	Sololá	717	San Juan la Laguna	12	San Juan la Laguna	3	Marzo	2023-03-31T00:00:00	2024-11-08T17:00:00	4	Temperatura máxima	22.2
45371	7	Sololá	717	San Juan la Laguna	12	San Juan la Laguna	3	Marzo	2023-03-31T00:00:00	2024-11-08T17:00:00	3	Temperatura mínima	21.4
45372	7	Sololá	717	San Juan la Laguna	12	San Juan la Laguna	3	Marzo	2023-03-31T00:00:00	2024-11-08T17:00:00	5	Humedad	72
45373	7	Sololá	717	San Juan la Laguna	12	San Juan la Laguna	3	Marzo	2023-03-31T00:00:00	2024-11-08T17:00:00	6	Velocidad del viento	3.2
45374	7	Sololá	717	San Juan la Laguna	12	San Juan la Laguna	3	Marzo	2023-03-31T00:00:00	2024-11-08T17:00:00	7	Dirección del viento	3.22
45375	7	Sololá	717	San Juan la Laguna	12	San Juan la Laguna	3	Marzo	2023-03-31T00:00:00	2024-11-08T17:00:00	1	Precipitación	0
45376	7	Sololá	717	San Juan la Laguna	12	San Juan la Laguna	3	Marzo	2023-03-31T00:00:00	2024-11-08T17:00:00	8	Radiación solar	262
45377	7	Sololá	717	San Juan la Laguna	12	San Juan la Laguna	3	Marzo	2023-03-31T00:00:00	2024-11-08T18:00:00	2	Temperatura media	20.6
45378	7	Sololá	717	San Juan la Laguna	12	San Juan la Laguna	3	Marzo	2023-03-31T00:00:00	2024-11-08T18:00:00	4	Temperatura máxima	21.9
45379	7	Sololá	717	San Juan la Laguna	12	San Juan la Laguna	3	Marzo	2023-03-31T00:00:00	2024-11-08T18:00:00	3	Temperatura mínima	20.6
45380	7	Sololá	717	San Juan la Laguna	12	San Juan la Laguna	3	Marzo	2023-03-31T00:00:00	2024-11-08T18:00:00	5	Humedad	77
45381	7	Sololá	717	San Juan la Laguna	12	San Juan la Laguna	3	Marzo	2023-03-31T00:00:00	2024-11-08T18:00:00	6	Velocidad del viento	1.6
45382	7	Sololá	717	San Juan la Laguna	12	San Juan la Laguna	3	Marzo	2023-03-31T00:00:00	2024-11-08T18:00:00	7	Dirección del viento	1.61
45383	7	Sololá	717	San Juan la Laguna	12	San Juan la Laguna	3	Marzo	2023-03-31T00:00:00	2024-11-08T18:00:00	1	Precipitación	0
45384	7	Sololá	717	San Juan la Laguna	12	San Juan la Laguna	3	Marzo	2023-03-31T00:00:00	2024-11-08T18:00:00	8	Radiación solar	75
45385	7	Sololá	717	San Juan la Laguna	12	San Juan la Laguna	3	Marzo	2023-03-31T00:00:00	2024-11-08T19:00:00	2	Temperatura media	19.6
45386	7	Sololá	717	San Juan la Laguna	12	San Juan la Laguna	3	Marzo	2023-03-31T00:00:00	2024-11-08T19:00:00	4	Temperatura máxima	20.6
45387	7	Sololá	717	San Juan la Laguna	12	San Juan la Laguna	3	Marzo	2023-03-31T00:00:00	2024-11-08T19:00:00	3	Temperatura mínima	19.6
45388	7	Sololá	717	San Juan la Laguna	12	San Juan la Laguna	3	Marzo	2023-03-31T00:00:00	2024-11-08T19:00:00	5	Humedad	81
45389	7	Sololá	717	San Juan la Laguna	12	San Juan la Laguna	3	Marzo	2023-03-31T00:00:00	2024-11-08T19:00:00	6	Velocidad del viento	1.6
45390	7	Sololá	717	San Juan la Laguna	12	San Juan la Laguna	3	Marzo	2023-03-31T00:00:00	2024-11-08T19:00:00	7	Dirección del viento	1.61
45391	7	Sololá	717	San Juan la Laguna	12	San Juan la Laguna	3	Marzo	2023-03-31T00:00:00	2024-11-08T19:00:00	1	Precipitación	0
45392	7	Sololá	717	San Juan la Laguna	12	San Juan la Laguna	3	Marzo	2023-03-31T00:00:00	2024-11-08T19:00:00	8	Radiación solar	0
45393	7	Sololá	717	San Juan la Laguna	12	San Juan la Laguna	3	Marzo	2023-03-31T00:00:00	2024-11-08T20:00:00	2	Temperatura media	18.8
45394	7	Sololá	717	San Juan la Laguna	12	San Juan la Laguna	3	Marzo	2023-03-31T00:00:00	2024-11-08T20:00:00	4	Temperatura máxima	19.7
45395	7	Sololá	717	San Juan la Laguna	12	San Juan la Laguna	3	Marzo	2023-03-31T00:00:00	2024-11-08T20:00:00	3	Temperatura mínima	18.8
45396	7	Sololá	717	San Juan la Laguna	12	San Juan la Laguna	3	Marzo	2023-03-31T00:00:00	2024-11-08T20:00:00	5	Humedad	84
45397	7	Sololá	717	San Juan la Laguna	12	San Juan la Laguna	3	Marzo	2023-03-31T00:00:00	2024-11-08T20:00:00	6	Velocidad del viento	0
45398	7	Sololá	717	San Juan la Laguna	12	San Juan la Laguna	3	Marzo	2023-03-31T00:00:00	2024-11-08T20:00:00	7	Dirección del viento	0
45399	7	Sololá	717	San Juan la Laguna	12	San Juan la Laguna	3	Marzo	2023-03-31T00:00:00	2024-11-08T20:00:00	1	Precipitación	0
45400	7	Sololá	717	San Juan la Laguna	12	San Juan la Laguna	3	Marzo	2023-03-31T00:00:00	2024-11-08T20:00:00	8	Radiación solar	0
45401	7	Sololá	717	San Juan la Laguna	12	San Juan la Laguna	3	Marzo	2023-03-31T00:00:00	2024-11-08T21:00:00	2	Temperatura media	18.5
45402	7	Sololá	717	San Juan la Laguna	12	San Juan la Laguna	3	Marzo	2023-03-31T00:00:00	2024-11-08T21:00:00	4	Temperatura máxima	18.9
45403	7	Sololá	717	San Juan la Laguna	12	San Juan la Laguna	3	Marzo	2023-03-31T00:00:00	2024-11-08T21:00:00	3	Temperatura mínima	18.5
45404	7	Sololá	717	San Juan la Laguna	12	San Juan la Laguna	3	Marzo	2023-03-31T00:00:00	2024-11-08T21:00:00	5	Humedad	84
45405	7	Sololá	717	San Juan la Laguna	12	San Juan la Laguna	3	Marzo	2023-03-31T00:00:00	2024-11-08T21:00:00	6	Velocidad del viento	0
45406	7	Sololá	717	San Juan la Laguna	12	San Juan la Laguna	3	Marzo	2023-03-31T00:00:00	2024-11-08T21:00:00	7	Dirección del viento	0
45407	7	Sololá	717	San Juan la Laguna	12	San Juan la Laguna	3	Marzo	2023-03-31T00:00:00	2024-11-08T21:00:00	1	Precipitación	0
45408	7	Sololá	717	San Juan la Laguna	12	San Juan la Laguna	3	Marzo	2023-03-31T00:00:00	2024-11-08T21:00:00	8	Radiación solar	0
45409	7	Sololá	717	San Juan la Laguna	12	San Juan la Laguna	3	Marzo	2023-03-31T00:00:00	2024-11-08T22:00:00	2	Temperatura media	17.6
45410	7	Sololá	717	San Juan la Laguna	12	San Juan la Laguna	3	Marzo	2023-03-31T00:00:00	2024-11-08T22:00:00	4	Temperatura máxima	18.5
45411	7	Sololá	717	San Juan la Laguna	12	San Juan la Laguna	3	Marzo	2023-03-31T00:00:00	2024-11-08T22:00:00	3	Temperatura mínima	17.6
45412	7	Sololá	717	San Juan la Laguna	12	San Juan la Laguna	3	Marzo	2023-03-31T00:00:00	2024-11-08T22:00:00	5	Humedad	84
45413	7	Sololá	717	San Juan la Laguna	12	San Juan la Laguna	3	Marzo	2023-03-31T00:00:00	2024-11-08T22:00:00	6	Velocidad del viento	1.6
45414	7	Sololá	717	San Juan la Laguna	12	San Juan la Laguna	3	Marzo	2023-03-31T00:00:00	2024-11-08T22:00:00	7	Dirección del viento	1.61
45415	7	Sololá	717	San Juan la Laguna	12	San Juan la Laguna	3	Marzo	2023-03-31T00:00:00	2024-11-08T22:00:00	1	Precipitación	0
45416	7	Sololá	717	San Juan la Laguna	12	San Juan la Laguna	3	Marzo	2023-03-31T00:00:00	2024-11-08T22:00:00	8	Radiación solar	0
45417	7	Sololá	717	San Juan la Laguna	12	San Juan la Laguna	3	Marzo	2023-03-31T00:00:00	2024-11-08T23:00:00	2	Temperatura media	16.5
45418	7	Sololá	717	San Juan la Laguna	12	San Juan la Laguna	3	Marzo	2023-03-31T00:00:00	2024-11-08T23:00:00	4	Temperatura máxima	17.6
45419	7	Sololá	717	San Juan la Laguna	12	San Juan la Laguna	3	Marzo	2023-03-31T00:00:00	2024-11-08T23:00:00	3	Temperatura mínima	16.4
45420	7	Sololá	717	San Juan la Laguna	12	San Juan la Laguna	3	Marzo	2023-03-31T00:00:00	2024-11-08T23:00:00	5	Humedad	86
45421	7	Sololá	717	San Juan la Laguna	12	San Juan la Laguna	3	Marzo	2023-03-31T00:00:00	2024-11-08T23:00:00	6	Velocidad del viento	3.2
45422	7	Sololá	717	San Juan la Laguna	12	San Juan la Laguna	3	Marzo	2023-03-31T00:00:00	2024-11-08T23:00:00	7	Dirección del viento	3.22
45423	7	Sololá	717	San Juan la Laguna	12	San Juan la Laguna	3	Marzo	2023-03-31T00:00:00	2024-11-08T23:00:00	1	Precipitación	0
45424	7	Sololá	717	San Juan la Laguna	12	San Juan la Laguna	3	Marzo	2023-03-31T00:00:00	2024-11-08T23:00:00	8	Radiación solar	0
45425	7	Sololá	717	San Juan la Laguna	12	San Juan la Laguna	4	Abril	2023-01-04T00:00:00	2024-11-08T00:00:00	2	Temperatura media	15.6
45426	7	Sololá	717	San Juan la Laguna	12	San Juan la Laguna	4	Abril	2023-01-04T00:00:00	2024-11-08T00:00:00	4	Temperatura máxima	16.5
45427	7	Sololá	717	San Juan la Laguna	12	San Juan la Laguna	4	Abril	2023-01-04T00:00:00	2024-11-08T00:00:00	3	Temperatura mínima	15.6
45428	7	Sololá	717	San Juan la Laguna	12	San Juan la Laguna	4	Abril	2023-01-04T00:00:00	2024-11-08T00:00:00	5	Humedad	82
45429	7	Sololá	717	San Juan la Laguna	12	San Juan la Laguna	4	Abril	2023-01-04T00:00:00	2024-11-08T00:00:00	6	Velocidad del viento	3.2
45430	7	Sololá	717	San Juan la Laguna	12	San Juan la Laguna	4	Abril	2023-01-04T00:00:00	2024-11-08T00:00:00	7	Dirección del viento	3.22
45431	7	Sololá	717	San Juan la Laguna	12	San Juan la Laguna	4	Abril	2023-01-04T00:00:00	2024-11-08T00:00:00	1	Precipitación	0
45432	7	Sololá	717	San Juan la Laguna	12	San Juan la Laguna	4	Abril	2023-01-04T00:00:00	2024-11-08T00:00:00	8	Radiación solar	0
45433	7	Sololá	717	San Juan la Laguna	12	San Juan la Laguna	4	Abril	2023-01-04T00:00:00	2024-11-08T01:00:00	2	Temperatura media	15
45434	7	Sololá	717	San Juan la Laguna	12	San Juan la Laguna	4	Abril	2023-01-04T00:00:00	2024-11-08T01:00:00	4	Temperatura máxima	15.6
45435	7	Sololá	717	San Juan la Laguna	12	San Juan la Laguna	4	Abril	2023-01-04T00:00:00	2024-11-08T01:00:00	3	Temperatura mínima	15
45436	7	Sololá	717	San Juan la Laguna	12	San Juan la Laguna	4	Abril	2023-01-04T00:00:00	2024-11-08T01:00:00	5	Humedad	83
45437	7	Sololá	717	San Juan la Laguna	12	San Juan la Laguna	4	Abril	2023-01-04T00:00:00	2024-11-08T01:00:00	6	Velocidad del viento	3.2
45438	7	Sololá	717	San Juan la Laguna	12	San Juan la Laguna	4	Abril	2023-01-04T00:00:00	2024-11-08T01:00:00	7	Dirección del viento	3.22
45439	7	Sololá	717	San Juan la Laguna	12	San Juan la Laguna	4	Abril	2023-01-04T00:00:00	2024-11-08T01:00:00	1	Precipitación	0
45440	7	Sololá	717	San Juan la Laguna	12	San Juan la Laguna	4	Abril	2023-01-04T00:00:00	2024-11-08T01:00:00	8	Radiación solar	0
45441	7	Sololá	717	San Juan la Laguna	12	San Juan la Laguna	4	Abril	2023-01-04T00:00:00	2024-11-08T02:00:00	2	Temperatura media	14.5
45442	7	Sololá	717	San Juan la Laguna	12	San Juan la Laguna	4	Abril	2023-01-04T00:00:00	2024-11-08T02:00:00	4	Temperatura máxima	15
45443	7	Sololá	717	San Juan la Laguna	12	San Juan la Laguna	4	Abril	2023-01-04T00:00:00	2024-11-08T02:00:00	3	Temperatura mínima	14.3
45444	7	Sololá	717	San Juan la Laguna	12	San Juan la Laguna	4	Abril	2023-01-04T00:00:00	2024-11-08T02:00:00	5	Humedad	82
45445	7	Sololá	717	San Juan la Laguna	12	San Juan la Laguna	4	Abril	2023-01-04T00:00:00	2024-11-08T02:00:00	6	Velocidad del viento	3.2
45446	7	Sololá	717	San Juan la Laguna	12	San Juan la Laguna	4	Abril	2023-01-04T00:00:00	2024-11-08T02:00:00	7	Dirección del viento	3.22
45447	7	Sololá	717	San Juan la Laguna	12	San Juan la Laguna	4	Abril	2023-01-04T00:00:00	2024-11-08T02:00:00	1	Precipitación	0
45448	7	Sololá	717	San Juan la Laguna	12	San Juan la Laguna	4	Abril	2023-01-04T00:00:00	2024-11-08T02:00:00	8	Radiación solar	0
45449	7	Sololá	717	San Juan la Laguna	12	San Juan la Laguna	4	Abril	2023-01-04T00:00:00	2024-11-08T03:00:00	2	Temperatura media	13.9
45450	7	Sololá	717	San Juan la Laguna	12	San Juan la Laguna	4	Abril	2023-01-04T00:00:00	2024-11-08T03:00:00	4	Temperatura máxima	14.5
45451	7	Sololá	717	San Juan la Laguna	12	San Juan la Laguna	4	Abril	2023-01-04T00:00:00	2024-11-08T03:00:00	3	Temperatura mínima	13.9
45452	7	Sololá	717	San Juan la Laguna	12	San Juan la Laguna	4	Abril	2023-01-04T00:00:00	2024-11-08T03:00:00	5	Humedad	83
45453	7	Sololá	717	San Juan la Laguna	12	San Juan la Laguna	4	Abril	2023-01-04T00:00:00	2024-11-08T03:00:00	6	Velocidad del viento	3.2
45454	7	Sololá	717	San Juan la Laguna	12	San Juan la Laguna	4	Abril	2023-01-04T00:00:00	2024-11-08T03:00:00	7	Dirección del viento	3.22
45455	7	Sololá	717	San Juan la Laguna	12	San Juan la Laguna	4	Abril	2023-01-04T00:00:00	2024-11-08T03:00:00	1	Precipitación	0
45456	7	Sololá	717	San Juan la Laguna	12	San Juan la Laguna	4	Abril	2023-01-04T00:00:00	2024-11-08T03:00:00	8	Radiación solar	0
45457	7	Sololá	717	San Juan la Laguna	12	San Juan la Laguna	4	Abril	2023-01-04T00:00:00	2024-11-08T04:00:00	2	Temperatura media	13.9
45458	7	Sololá	717	San Juan la Laguna	12	San Juan la Laguna	4	Abril	2023-01-04T00:00:00	2024-11-08T04:00:00	4	Temperatura máxima	14.1
45459	7	Sololá	717	San Juan la Laguna	12	San Juan la Laguna	4	Abril	2023-01-04T00:00:00	2024-11-08T04:00:00	3	Temperatura mínima	13.9
45460	7	Sololá	717	San Juan la Laguna	12	San Juan la Laguna	4	Abril	2023-01-04T00:00:00	2024-11-08T04:00:00	5	Humedad	83
45461	7	Sololá	717	San Juan la Laguna	12	San Juan la Laguna	4	Abril	2023-01-04T00:00:00	2024-11-08T04:00:00	6	Velocidad del viento	3.2
45462	7	Sololá	717	San Juan la Laguna	12	San Juan la Laguna	4	Abril	2023-01-04T00:00:00	2024-11-08T04:00:00	7	Dirección del viento	3.22
45463	7	Sololá	717	San Juan la Laguna	12	San Juan la Laguna	4	Abril	2023-01-04T00:00:00	2024-11-08T04:00:00	1	Precipitación	0
45464	7	Sololá	717	San Juan la Laguna	12	San Juan la Laguna	4	Abril	2023-01-04T00:00:00	2024-11-08T04:00:00	8	Radiación solar	0
45465	7	Sololá	717	San Juan la Laguna	12	San Juan la Laguna	4	Abril	2023-01-04T00:00:00	2024-11-08T05:00:00	2	Temperatura media	13.6
45466	7	Sololá	717	San Juan la Laguna	12	San Juan la Laguna	4	Abril	2023-01-04T00:00:00	2024-11-08T05:00:00	4	Temperatura máxima	13.9
45467	7	Sololá	717	San Juan la Laguna	12	San Juan la Laguna	4	Abril	2023-01-04T00:00:00	2024-11-08T05:00:00	3	Temperatura mínima	13.5
45468	7	Sololá	717	San Juan la Laguna	12	San Juan la Laguna	4	Abril	2023-01-04T00:00:00	2024-11-08T05:00:00	5	Humedad	84
45469	7	Sololá	717	San Juan la Laguna	12	San Juan la Laguna	4	Abril	2023-01-04T00:00:00	2024-11-08T05:00:00	6	Velocidad del viento	1.6
45470	7	Sololá	717	San Juan la Laguna	12	San Juan la Laguna	4	Abril	2023-01-04T00:00:00	2024-11-08T05:00:00	7	Dirección del viento	1.61
45471	7	Sololá	717	San Juan la Laguna	12	San Juan la Laguna	4	Abril	2023-01-04T00:00:00	2024-11-08T05:00:00	1	Precipitación	0
45472	7	Sololá	717	San Juan la Laguna	12	San Juan la Laguna	4	Abril	2023-01-04T00:00:00	2024-11-08T05:00:00	8	Radiación solar	0
45473	7	Sololá	717	San Juan la Laguna	12	San Juan la Laguna	4	Abril	2023-01-04T00:00:00	2024-11-08T06:00:00	2	Temperatura media	13.1
45474	7	Sololá	717	San Juan la Laguna	12	San Juan la Laguna	4	Abril	2023-01-04T00:00:00	2024-11-08T06:00:00	4	Temperatura máxima	13.6
45475	7	Sololá	717	San Juan la Laguna	12	San Juan la Laguna	4	Abril	2023-01-04T00:00:00	2024-11-08T06:00:00	3	Temperatura mínima	12.9
45476	7	Sololá	717	San Juan la Laguna	12	San Juan la Laguna	4	Abril	2023-01-04T00:00:00	2024-11-08T06:00:00	5	Humedad	85
45477	7	Sololá	717	San Juan la Laguna	12	San Juan la Laguna	4	Abril	2023-01-04T00:00:00	2024-11-08T06:00:00	6	Velocidad del viento	1.6
45478	7	Sololá	717	San Juan la Laguna	12	San Juan la Laguna	4	Abril	2023-01-04T00:00:00	2024-11-08T06:00:00	7	Dirección del viento	1.61
45479	7	Sololá	717	San Juan la Laguna	12	San Juan la Laguna	4	Abril	2023-01-04T00:00:00	2024-11-08T06:00:00	1	Precipitación	0
45480	7	Sololá	717	San Juan la Laguna	12	San Juan la Laguna	4	Abril	2023-01-04T00:00:00	2024-11-08T06:00:00	8	Radiación solar	0
45481	7	Sololá	717	San Juan la Laguna	12	San Juan la Laguna	4	Abril	2023-01-04T00:00:00	2024-11-08T07:00:00	2	Temperatura media	14.7
45482	7	Sololá	717	San Juan la Laguna	12	San Juan la Laguna	4	Abril	2023-01-04T00:00:00	2024-11-08T07:00:00	4	Temperatura máxima	14.7
45483	7	Sololá	717	San Juan la Laguna	12	San Juan la Laguna	4	Abril	2023-01-04T00:00:00	2024-11-08T07:00:00	3	Temperatura mínima	13
45484	7	Sololá	717	San Juan la Laguna	12	San Juan la Laguna	4	Abril	2023-01-04T00:00:00	2024-11-08T07:00:00	5	Humedad	84
45485	7	Sololá	717	San Juan la Laguna	12	San Juan la Laguna	4	Abril	2023-01-04T00:00:00	2024-11-08T07:00:00	6	Velocidad del viento	1.6
45486	7	Sololá	717	San Juan la Laguna	12	San Juan la Laguna	4	Abril	2023-01-04T00:00:00	2024-11-08T07:00:00	7	Dirección del viento	1.61
45487	7	Sololá	717	San Juan la Laguna	12	San Juan la Laguna	4	Abril	2023-01-04T00:00:00	2024-11-08T07:00:00	1	Precipitación	0
45488	7	Sololá	717	San Juan la Laguna	12	San Juan la Laguna	4	Abril	2023-01-04T00:00:00	2024-11-08T07:00:00	8	Radiación solar	45
45489	7	Sololá	717	San Juan la Laguna	12	San Juan la Laguna	4	Abril	2023-01-04T00:00:00	2024-11-08T08:00:00	2	Temperatura media	18.8
45490	7	Sololá	717	San Juan la Laguna	12	San Juan la Laguna	4	Abril	2023-01-04T00:00:00	2024-11-08T08:00:00	4	Temperatura máxima	18.8
45491	7	Sololá	717	San Juan la Laguna	12	San Juan la Laguna	4	Abril	2023-01-04T00:00:00	2024-11-08T08:00:00	3	Temperatura mínima	14.7
45492	7	Sololá	717	San Juan la Laguna	12	San Juan la Laguna	4	Abril	2023-01-04T00:00:00	2024-11-08T08:00:00	5	Humedad	72
45493	7	Sololá	717	San Juan la Laguna	12	San Juan la Laguna	4	Abril	2023-01-04T00:00:00	2024-11-08T08:00:00	6	Velocidad del viento	0
45494	7	Sololá	717	San Juan la Laguna	12	San Juan la Laguna	4	Abril	2023-01-04T00:00:00	2024-11-08T08:00:00	7	Dirección del viento	0
45495	7	Sololá	717	San Juan la Laguna	12	San Juan la Laguna	4	Abril	2023-01-04T00:00:00	2024-11-08T08:00:00	1	Precipitación	0
45496	7	Sololá	717	San Juan la Laguna	12	San Juan la Laguna	4	Abril	2023-01-04T00:00:00	2024-11-08T08:00:00	8	Radiación solar	210
45497	7	Sololá	717	San Juan la Laguna	12	San Juan la Laguna	4	Abril	2023-01-04T00:00:00	2024-11-08T09:00:00	2	Temperatura media	19.8
45498	7	Sololá	717	San Juan la Laguna	12	San Juan la Laguna	4	Abril	2023-01-04T00:00:00	2024-11-08T09:00:00	4	Temperatura máxima	19.9
45499	7	Sololá	717	San Juan la Laguna	12	San Juan la Laguna	4	Abril	2023-01-04T00:00:00	2024-11-08T09:00:00	3	Temperatura mínima	18.7
45500	7	Sololá	717	San Juan la Laguna	12	San Juan la Laguna	4	Abril	2023-01-04T00:00:00	2024-11-08T09:00:00	5	Humedad	71
45501	7	Sololá	717	San Juan la Laguna	12	San Juan la Laguna	4	Abril	2023-01-04T00:00:00	2024-11-08T09:00:00	6	Velocidad del viento	1.6
45502	7	Sololá	717	San Juan la Laguna	12	San Juan la Laguna	4	Abril	2023-01-04T00:00:00	2024-11-08T09:00:00	7	Dirección del viento	1.61
45503	7	Sololá	717	San Juan la Laguna	12	San Juan la Laguna	4	Abril	2023-01-04T00:00:00	2024-11-08T09:00:00	1	Precipitación	0
45504	7	Sololá	717	San Juan la Laguna	12	San Juan la Laguna	4	Abril	2023-01-04T00:00:00	2024-11-08T09:00:00	8	Radiación solar	393
45505	7	Sololá	717	San Juan la Laguna	12	San Juan la Laguna	4	Abril	2023-01-04T00:00:00	2024-11-08T10:00:00	2	Temperatura media	20.6
45506	7	Sololá	717	San Juan la Laguna	12	San Juan la Laguna	4	Abril	2023-01-04T00:00:00	2024-11-08T10:00:00	4	Temperatura máxima	20.6
45507	7	Sololá	717	San Juan la Laguna	12	San Juan la Laguna	4	Abril	2023-01-04T00:00:00	2024-11-08T10:00:00	3	Temperatura mínima	19.7
45508	7	Sololá	717	San Juan la Laguna	12	San Juan la Laguna	4	Abril	2023-01-04T00:00:00	2024-11-08T10:00:00	5	Humedad	68
45509	7	Sololá	717	San Juan la Laguna	12	San Juan la Laguna	4	Abril	2023-01-04T00:00:00	2024-11-08T10:00:00	6	Velocidad del viento	1.6
45510	7	Sololá	717	San Juan la Laguna	12	San Juan la Laguna	4	Abril	2023-01-04T00:00:00	2024-11-08T10:00:00	7	Dirección del viento	1.61
45511	7	Sololá	717	San Juan la Laguna	12	San Juan la Laguna	4	Abril	2023-01-04T00:00:00	2024-11-08T10:00:00	1	Precipitación	0
45512	7	Sololá	717	San Juan la Laguna	12	San Juan la Laguna	4	Abril	2023-01-04T00:00:00	2024-11-08T10:00:00	8	Radiación solar	681
45513	7	Sololá	717	San Juan la Laguna	12	San Juan la Laguna	4	Abril	2023-01-04T00:00:00	2024-11-08T11:00:00	2	Temperatura media	23.2
45514	7	Sololá	717	San Juan la Laguna	12	San Juan la Laguna	4	Abril	2023-01-04T00:00:00	2024-11-08T11:00:00	4	Temperatura máxima	23.2
45515	7	Sololá	717	San Juan la Laguna	12	San Juan la Laguna	4	Abril	2023-01-04T00:00:00	2024-11-08T11:00:00	3	Temperatura mínima	20.4
45516	7	Sololá	717	San Juan la Laguna	12	San Juan la Laguna	4	Abril	2023-01-04T00:00:00	2024-11-08T11:00:00	5	Humedad	54
45517	7	Sololá	717	San Juan la Laguna	12	San Juan la Laguna	4	Abril	2023-01-04T00:00:00	2024-11-08T11:00:00	6	Velocidad del viento	1.6
45518	7	Sololá	717	San Juan la Laguna	12	San Juan la Laguna	4	Abril	2023-01-04T00:00:00	2024-11-08T11:00:00	7	Dirección del viento	1.61
45519	7	Sololá	717	San Juan la Laguna	12	San Juan la Laguna	4	Abril	2023-01-04T00:00:00	2024-11-08T11:00:00	1	Precipitación	0
45520	7	Sololá	717	San Juan la Laguna	12	San Juan la Laguna	4	Abril	2023-01-04T00:00:00	2024-11-08T11:00:00	8	Radiación solar	861
45521	7	Sololá	717	San Juan la Laguna	12	San Juan la Laguna	4	Abril	2023-01-04T00:00:00	2024-11-08T12:00:00	2	Temperatura media	22.6
45522	7	Sololá	717	San Juan la Laguna	12	San Juan la Laguna	4	Abril	2023-01-04T00:00:00	2024-11-08T12:00:00	4	Temperatura máxima	23.5
45523	7	Sololá	717	San Juan la Laguna	12	San Juan la Laguna	4	Abril	2023-01-04T00:00:00	2024-11-08T12:00:00	3	Temperatura mínima	22.4
45524	7	Sololá	717	San Juan la Laguna	12	San Juan la Laguna	4	Abril	2023-01-04T00:00:00	2024-11-08T12:00:00	5	Humedad	66
45525	7	Sololá	717	San Juan la Laguna	12	San Juan la Laguna	4	Abril	2023-01-04T00:00:00	2024-11-08T12:00:00	6	Velocidad del viento	1.6
45526	7	Sololá	717	San Juan la Laguna	12	San Juan la Laguna	4	Abril	2023-01-04T00:00:00	2024-11-08T12:00:00	7	Dirección del viento	1.61
45527	7	Sololá	717	San Juan la Laguna	12	San Juan la Laguna	4	Abril	2023-01-04T00:00:00	2024-11-08T12:00:00	1	Precipitación	0
45528	7	Sololá	717	San Juan la Laguna	12	San Juan la Laguna	4	Abril	2023-01-04T00:00:00	2024-11-08T12:00:00	8	Radiación solar	942
45529	7	Sololá	717	San Juan la Laguna	12	San Juan la Laguna	4	Abril	2023-01-04T00:00:00	2024-11-08T13:00:00	2	Temperatura media	24
45530	7	Sololá	717	San Juan la Laguna	12	San Juan la Laguna	4	Abril	2023-01-04T00:00:00	2024-11-08T13:00:00	4	Temperatura máxima	24.4
45531	7	Sololá	717	San Juan la Laguna	12	San Juan la Laguna	4	Abril	2023-01-04T00:00:00	2024-11-08T13:00:00	3	Temperatura mínima	22.6
45532	7	Sololá	717	San Juan la Laguna	12	San Juan la Laguna	4	Abril	2023-01-04T00:00:00	2024-11-08T13:00:00	5	Humedad	64
45533	7	Sololá	717	San Juan la Laguna	12	San Juan la Laguna	4	Abril	2023-01-04T00:00:00	2024-11-08T13:00:00	6	Velocidad del viento	3.2
45534	7	Sololá	717	San Juan la Laguna	12	San Juan la Laguna	4	Abril	2023-01-04T00:00:00	2024-11-08T13:00:00	7	Dirección del viento	3.22
45535	7	Sololá	717	San Juan la Laguna	12	San Juan la Laguna	4	Abril	2023-01-04T00:00:00	2024-11-08T13:00:00	1	Precipitación	0
45536	7	Sololá	717	San Juan la Laguna	12	San Juan la Laguna	4	Abril	2023-01-04T00:00:00	2024-11-08T13:00:00	8	Radiación solar	985
45537	7	Sololá	717	San Juan la Laguna	12	San Juan la Laguna	4	Abril	2023-01-04T00:00:00	2024-11-08T14:00:00	2	Temperatura media	22.9
45538	7	Sololá	717	San Juan la Laguna	12	San Juan la Laguna	4	Abril	2023-01-04T00:00:00	2024-11-08T14:00:00	4	Temperatura máxima	24
45539	7	Sololá	717	San Juan la Laguna	12	San Juan la Laguna	4	Abril	2023-01-04T00:00:00	2024-11-08T14:00:00	3	Temperatura mínima	22.9
45540	7	Sololá	717	San Juan la Laguna	12	San Juan la Laguna	4	Abril	2023-01-04T00:00:00	2024-11-08T14:00:00	5	Humedad	68
45541	7	Sololá	717	San Juan la Laguna	12	San Juan la Laguna	4	Abril	2023-01-04T00:00:00	2024-11-08T14:00:00	6	Velocidad del viento	6.4
45542	7	Sololá	717	San Juan la Laguna	12	San Juan la Laguna	4	Abril	2023-01-04T00:00:00	2024-11-08T14:00:00	7	Dirección del viento	6.44
45543	7	Sololá	717	San Juan la Laguna	12	San Juan la Laguna	4	Abril	2023-01-04T00:00:00	2024-11-08T14:00:00	1	Precipitación	0
45544	7	Sololá	717	San Juan la Laguna	12	San Juan la Laguna	4	Abril	2023-01-04T00:00:00	2024-11-08T14:00:00	8	Radiación solar	946
45545	7	Sololá	717	San Juan la Laguna	12	San Juan la Laguna	4	Abril	2023-01-04T00:00:00	2024-11-08T15:00:00	2	Temperatura media	23.8
45546	7	Sololá	717	San Juan la Laguna	12	San Juan la Laguna	4	Abril	2023-01-04T00:00:00	2024-11-08T15:00:00	4	Temperatura máxima	23.9
45547	7	Sololá	717	San Juan la Laguna	12	San Juan la Laguna	4	Abril	2023-01-04T00:00:00	2024-11-08T15:00:00	3	Temperatura mínima	22.9
45548	7	Sololá	717	San Juan la Laguna	12	San Juan la Laguna	4	Abril	2023-01-04T00:00:00	2024-11-08T15:00:00	5	Humedad	67
45549	7	Sololá	717	San Juan la Laguna	12	San Juan la Laguna	4	Abril	2023-01-04T00:00:00	2024-11-08T15:00:00	6	Velocidad del viento	4.8
45550	7	Sololá	717	San Juan la Laguna	12	San Juan la Laguna	4	Abril	2023-01-04T00:00:00	2024-11-08T15:00:00	7	Dirección del viento	4.83
45551	7	Sololá	717	San Juan la Laguna	12	San Juan la Laguna	4	Abril	2023-01-04T00:00:00	2024-11-08T15:00:00	1	Precipitación	0
45552	7	Sololá	717	San Juan la Laguna	12	San Juan la Laguna	4	Abril	2023-01-04T00:00:00	2024-11-08T15:00:00	8	Radiación solar	813
45553	7	Sololá	717	San Juan la Laguna	12	San Juan la Laguna	4	Abril	2023-01-04T00:00:00	2024-11-08T16:00:00	2	Temperatura media	22.3
45554	7	Sololá	717	San Juan la Laguna	12	San Juan la Laguna	4	Abril	2023-01-04T00:00:00	2024-11-08T16:00:00	4	Temperatura máxima	23.7
45555	7	Sololá	717	San Juan la Laguna	12	San Juan la Laguna	4	Abril	2023-01-04T00:00:00	2024-11-08T16:00:00	3	Temperatura mínima	22.2
45556	7	Sololá	717	San Juan la Laguna	12	San Juan la Laguna	4	Abril	2023-01-04T00:00:00	2024-11-08T16:00:00	5	Humedad	73
45557	7	Sololá	717	San Juan la Laguna	12	San Juan la Laguna	4	Abril	2023-01-04T00:00:00	2024-11-08T16:00:00	6	Velocidad del viento	1.6
45558	7	Sololá	717	San Juan la Laguna	12	San Juan la Laguna	4	Abril	2023-01-04T00:00:00	2024-11-08T16:00:00	7	Dirección del viento	1.61
45559	7	Sololá	717	San Juan la Laguna	12	San Juan la Laguna	4	Abril	2023-01-04T00:00:00	2024-11-08T16:00:00	1	Precipitación	0
45560	7	Sololá	717	San Juan la Laguna	12	San Juan la Laguna	4	Abril	2023-01-04T00:00:00	2024-11-08T16:00:00	8	Radiación solar	455
45561	7	Sololá	717	San Juan la Laguna	12	San Juan la Laguna	4	Abril	2023-01-04T00:00:00	2024-11-08T17:00:00	2	Temperatura media	21.4
45562	7	Sololá	717	San Juan la Laguna	12	San Juan la Laguna	4	Abril	2023-01-04T00:00:00	2024-11-08T17:00:00	4	Temperatura máxima	22.6
45563	7	Sololá	717	San Juan la Laguna	12	San Juan la Laguna	4	Abril	2023-01-04T00:00:00	2024-11-08T17:00:00	3	Temperatura mínima	21.4
45564	7	Sololá	717	San Juan la Laguna	12	San Juan la Laguna	4	Abril	2023-01-04T00:00:00	2024-11-08T17:00:00	5	Humedad	75
45565	7	Sololá	717	San Juan la Laguna	12	San Juan la Laguna	4	Abril	2023-01-04T00:00:00	2024-11-08T17:00:00	6	Velocidad del viento	1.6
45566	7	Sololá	717	San Juan la Laguna	12	San Juan la Laguna	4	Abril	2023-01-04T00:00:00	2024-11-08T17:00:00	7	Dirección del viento	1.61
45567	7	Sololá	717	San Juan la Laguna	12	San Juan la Laguna	4	Abril	2023-01-04T00:00:00	2024-11-08T17:00:00	1	Precipitación	0
45568	7	Sololá	717	San Juan la Laguna	12	San Juan la Laguna	4	Abril	2023-01-04T00:00:00	2024-11-08T17:00:00	8	Radiación solar	259
45569	7	Sololá	717	San Juan la Laguna	12	San Juan la Laguna	4	Abril	2023-01-04T00:00:00	2024-11-08T18:00:00	2	Temperatura media	20.6
45570	7	Sololá	717	San Juan la Laguna	12	San Juan la Laguna	4	Abril	2023-01-04T00:00:00	2024-11-08T18:00:00	4	Temperatura máxima	21.4
45571	7	Sololá	717	San Juan la Laguna	12	San Juan la Laguna	4	Abril	2023-01-04T00:00:00	2024-11-08T18:00:00	3	Temperatura mínima	20.5
45572	7	Sololá	717	San Juan la Laguna	12	San Juan la Laguna	4	Abril	2023-01-04T00:00:00	2024-11-08T18:00:00	5	Humedad	81
45573	7	Sololá	717	San Juan la Laguna	12	San Juan la Laguna	4	Abril	2023-01-04T00:00:00	2024-11-08T18:00:00	6	Velocidad del viento	0
45574	7	Sololá	717	San Juan la Laguna	12	San Juan la Laguna	4	Abril	2023-01-04T00:00:00	2024-11-08T18:00:00	7	Dirección del viento	0
45575	7	Sololá	717	San Juan la Laguna	12	San Juan la Laguna	4	Abril	2023-01-04T00:00:00	2024-11-08T18:00:00	1	Precipitación	0
45576	7	Sololá	717	San Juan la Laguna	12	San Juan la Laguna	4	Abril	2023-01-04T00:00:00	2024-11-08T18:00:00	8	Radiación solar	41
45577	7	Sololá	717	San Juan la Laguna	12	San Juan la Laguna	4	Abril	2023-01-04T00:00:00	2024-11-08T19:00:00	2	Temperatura media	19.9
45578	7	Sololá	717	San Juan la Laguna	12	San Juan la Laguna	4	Abril	2023-01-04T00:00:00	2024-11-08T19:00:00	4	Temperatura máxima	20.6
45579	7	Sololá	717	San Juan la Laguna	12	San Juan la Laguna	4	Abril	2023-01-04T00:00:00	2024-11-08T19:00:00	3	Temperatura mínima	19.9
45580	7	Sololá	717	San Juan la Laguna	12	San Juan la Laguna	4	Abril	2023-01-04T00:00:00	2024-11-08T19:00:00	5	Humedad	85
45581	7	Sololá	717	San Juan la Laguna	12	San Juan la Laguna	4	Abril	2023-01-04T00:00:00	2024-11-08T19:00:00	6	Velocidad del viento	0
45582	7	Sololá	717	San Juan la Laguna	12	San Juan la Laguna	4	Abril	2023-01-04T00:00:00	2024-11-08T19:00:00	7	Dirección del viento	0
45583	7	Sololá	717	San Juan la Laguna	12	San Juan la Laguna	4	Abril	2023-01-04T00:00:00	2024-11-08T19:00:00	1	Precipitación	0
45584	7	Sololá	717	San Juan la Laguna	12	San Juan la Laguna	4	Abril	2023-01-04T00:00:00	2024-11-08T19:00:00	8	Radiación solar	0
45585	7	Sololá	717	San Juan la Laguna	12	San Juan la Laguna	4	Abril	2023-01-04T00:00:00	2024-11-08T20:00:00	2	Temperatura media	19.6
45586	7	Sololá	717	San Juan la Laguna	12	San Juan la Laguna	4	Abril	2023-01-04T00:00:00	2024-11-08T20:00:00	4	Temperatura máxima	19.9
45587	7	Sololá	717	San Juan la Laguna	12	San Juan la Laguna	4	Abril	2023-01-04T00:00:00	2024-11-08T20:00:00	3	Temperatura mínima	19.6
45588	7	Sololá	717	San Juan la Laguna	12	San Juan la Laguna	4	Abril	2023-01-04T00:00:00	2024-11-08T20:00:00	5	Humedad	86
45589	7	Sololá	717	San Juan la Laguna	12	San Juan la Laguna	4	Abril	2023-01-04T00:00:00	2024-11-08T20:00:00	6	Velocidad del viento	0
45590	7	Sololá	717	San Juan la Laguna	12	San Juan la Laguna	4	Abril	2023-01-04T00:00:00	2024-11-08T20:00:00	7	Dirección del viento	0
45591	7	Sololá	717	San Juan la Laguna	12	San Juan la Laguna	4	Abril	2023-01-04T00:00:00	2024-11-08T20:00:00	1	Precipitación	0
45592	7	Sololá	717	San Juan la Laguna	12	San Juan la Laguna	4	Abril	2023-01-04T00:00:00	2024-11-08T20:00:00	8	Radiación solar	0
45593	7	Sololá	717	San Juan la Laguna	12	San Juan la Laguna	4	Abril	2023-01-04T00:00:00	2024-11-08T21:00:00	2	Temperatura media	19.4
45594	7	Sololá	717	San Juan la Laguna	12	San Juan la Laguna	4	Abril	2023-01-04T00:00:00	2024-11-08T21:00:00	4	Temperatura máxima	19.7
45595	7	Sololá	717	San Juan la Laguna	12	San Juan la Laguna	4	Abril	2023-01-04T00:00:00	2024-11-08T21:00:00	3	Temperatura mínima	19.4
45596	7	Sololá	717	San Juan la Laguna	12	San Juan la Laguna	4	Abril	2023-01-04T00:00:00	2024-11-08T21:00:00	5	Humedad	85
45597	7	Sololá	717	San Juan la Laguna	12	San Juan la Laguna	4	Abril	2023-01-04T00:00:00	2024-11-08T21:00:00	6	Velocidad del viento	0
45598	7	Sololá	717	San Juan la Laguna	12	San Juan la Laguna	4	Abril	2023-01-04T00:00:00	2024-11-08T21:00:00	7	Dirección del viento	0
45599	7	Sololá	717	San Juan la Laguna	12	San Juan la Laguna	4	Abril	2023-01-04T00:00:00	2024-11-08T21:00:00	1	Precipitación	0
45600	7	Sololá	717	San Juan la Laguna	12	San Juan la Laguna	4	Abril	2023-01-04T00:00:00	2024-11-08T21:00:00	8	Radiación solar	0
45601	7	Sololá	717	San Juan la Laguna	12	San Juan la Laguna	4	Abril	2023-01-04T00:00:00	2024-11-08T22:00:00	2	Temperatura media	17.7
45602	7	Sololá	717	San Juan la Laguna	12	San Juan la Laguna	4	Abril	2023-01-04T00:00:00	2024-11-08T22:00:00	4	Temperatura máxima	19.4
45603	7	Sololá	717	San Juan la Laguna	12	San Juan la Laguna	4	Abril	2023-01-04T00:00:00	2024-11-08T22:00:00	3	Temperatura mínima	17.7
45604	7	Sololá	717	San Juan la Laguna	12	San Juan la Laguna	4	Abril	2023-01-04T00:00:00	2024-11-08T22:00:00	5	Humedad	84
45605	7	Sololá	717	San Juan la Laguna	12	San Juan la Laguna	4	Abril	2023-01-04T00:00:00	2024-11-08T22:00:00	6	Velocidad del viento	0
45606	7	Sololá	717	San Juan la Laguna	12	San Juan la Laguna	4	Abril	2023-01-04T00:00:00	2024-11-08T22:00:00	7	Dirección del viento	0
45607	7	Sololá	717	San Juan la Laguna	12	San Juan la Laguna	4	Abril	2023-01-04T00:00:00	2024-11-08T22:00:00	1	Precipitación	0
45608	7	Sololá	717	San Juan la Laguna	12	San Juan la Laguna	4	Abril	2023-01-04T00:00:00	2024-11-08T22:00:00	8	Radiación solar	0
45609	7	Sololá	717	San Juan la Laguna	12	San Juan la Laguna	4	Abril	2023-01-04T00:00:00	2024-11-08T23:00:00	2	Temperatura media	16.8
45610	7	Sololá	717	San Juan la Laguna	12	San Juan la Laguna	4	Abril	2023-01-04T00:00:00	2024-11-08T23:00:00	4	Temperatura máxima	17.8
45611	7	Sololá	717	San Juan la Laguna	12	San Juan la Laguna	4	Abril	2023-01-04T00:00:00	2024-11-08T23:00:00	3	Temperatura mínima	16.8
45612	7	Sololá	717	San Juan la Laguna	12	San Juan la Laguna	4	Abril	2023-01-04T00:00:00	2024-11-08T23:00:00	5	Humedad	81
45613	7	Sololá	717	San Juan la Laguna	12	San Juan la Laguna	4	Abril	2023-01-04T00:00:00	2024-11-08T23:00:00	6	Velocidad del viento	0
45614	7	Sololá	717	San Juan la Laguna	12	San Juan la Laguna	4	Abril	2023-01-04T00:00:00	2024-11-08T23:00:00	7	Dirección del viento	0
45615	7	Sololá	717	San Juan la Laguna	12	San Juan la Laguna	4	Abril	2023-01-04T00:00:00	2024-11-08T23:00:00	1	Precipitación	0
45616	7	Sololá	717	San Juan la Laguna	12	San Juan la Laguna	4	Abril	2023-01-04T00:00:00	2024-11-08T23:00:00	8	Radiación solar	0
45617	7	Sololá	717	San Juan la Laguna	12	San Juan la Laguna	4	Abril	2023-02-04T00:00:00	2024-11-08T00:00:00	2	Temperatura media	17.9
45618	7	Sololá	717	San Juan la Laguna	12	San Juan la Laguna	4	Abril	2023-02-04T00:00:00	2024-11-08T00:00:00	4	Temperatura máxima	19.1
45619	7	Sololá	717	San Juan la Laguna	12	San Juan la Laguna	4	Abril	2023-02-04T00:00:00	2024-11-08T00:00:00	3	Temperatura mínima	16.8
45620	7	Sololá	717	San Juan la Laguna	12	San Juan la Laguna	4	Abril	2023-02-04T00:00:00	2024-11-08T00:00:00	5	Humedad	71
45621	7	Sololá	717	San Juan la Laguna	12	San Juan la Laguna	4	Abril	2023-02-04T00:00:00	2024-11-08T00:00:00	6	Velocidad del viento	1.6
45622	7	Sololá	717	San Juan la Laguna	12	San Juan la Laguna	4	Abril	2023-02-04T00:00:00	2024-11-08T00:00:00	7	Dirección del viento	1.61
45623	7	Sololá	717	San Juan la Laguna	12	San Juan la Laguna	4	Abril	2023-02-04T00:00:00	2024-11-08T00:00:00	1	Precipitación	0
45624	7	Sololá	717	San Juan la Laguna	12	San Juan la Laguna	4	Abril	2023-02-04T00:00:00	2024-11-08T00:00:00	8	Radiación solar	0
45625	7	Sololá	717	San Juan la Laguna	12	San Juan la Laguna	4	Abril	2023-02-04T00:00:00	2024-11-08T01:00:00	2	Temperatura media	15.7
45626	7	Sololá	717	San Juan la Laguna	12	San Juan la Laguna	4	Abril	2023-02-04T00:00:00	2024-11-08T01:00:00	4	Temperatura máxima	17.9
45627	7	Sololá	717	San Juan la Laguna	12	San Juan la Laguna	4	Abril	2023-02-04T00:00:00	2024-11-08T01:00:00	3	Temperatura mínima	15.7
45628	7	Sololá	717	San Juan la Laguna	12	San Juan la Laguna	4	Abril	2023-02-04T00:00:00	2024-11-08T01:00:00	5	Humedad	75
45629	7	Sololá	717	San Juan la Laguna	12	San Juan la Laguna	4	Abril	2023-02-04T00:00:00	2024-11-08T01:00:00	6	Velocidad del viento	0
45630	7	Sololá	717	San Juan la Laguna	12	San Juan la Laguna	4	Abril	2023-02-04T00:00:00	2024-11-08T01:00:00	7	Dirección del viento	0
45631	7	Sololá	717	San Juan la Laguna	12	San Juan la Laguna	4	Abril	2023-02-04T00:00:00	2024-11-08T01:00:00	1	Precipitación	0
45632	7	Sololá	717	San Juan la Laguna	12	San Juan la Laguna	4	Abril	2023-02-04T00:00:00	2024-11-08T01:00:00	8	Radiación solar	0
45633	7	Sololá	717	San Juan la Laguna	12	San Juan la Laguna	4	Abril	2023-02-04T00:00:00	2024-11-08T02:00:00	2	Temperatura media	14.4
45634	7	Sololá	717	San Juan la Laguna	12	San Juan la Laguna	4	Abril	2023-02-04T00:00:00	2024-11-08T02:00:00	4	Temperatura máxima	15.8
45635	7	Sololá	717	San Juan la Laguna	12	San Juan la Laguna	4	Abril	2023-02-04T00:00:00	2024-11-08T02:00:00	3	Temperatura mínima	14.2
45636	7	Sololá	717	San Juan la Laguna	12	San Juan la Laguna	4	Abril	2023-02-04T00:00:00	2024-11-08T02:00:00	5	Humedad	71
45637	7	Sololá	717	San Juan la Laguna	12	San Juan la Laguna	4	Abril	2023-02-04T00:00:00	2024-11-08T02:00:00	6	Velocidad del viento	1.6
45638	7	Sololá	717	San Juan la Laguna	12	San Juan la Laguna	4	Abril	2023-02-04T00:00:00	2024-11-08T02:00:00	7	Dirección del viento	1.61
45639	7	Sololá	717	San Juan la Laguna	12	San Juan la Laguna	4	Abril	2023-02-04T00:00:00	2024-11-08T02:00:00	1	Precipitación	0
45640	7	Sololá	717	San Juan la Laguna	12	San Juan la Laguna	4	Abril	2023-02-04T00:00:00	2024-11-08T02:00:00	8	Radiación solar	0
45641	7	Sololá	717	San Juan la Laguna	12	San Juan la Laguna	4	Abril	2023-02-04T00:00:00	2024-11-08T03:00:00	2	Temperatura media	13.8
45642	7	Sololá	717	San Juan la Laguna	12	San Juan la Laguna	4	Abril	2023-02-04T00:00:00	2024-11-08T03:00:00	4	Temperatura máxima	14.4
45643	7	Sololá	717	San Juan la Laguna	12	San Juan la Laguna	4	Abril	2023-02-04T00:00:00	2024-11-08T03:00:00	3	Temperatura mínima	13.8
45644	7	Sololá	717	San Juan la Laguna	12	San Juan la Laguna	4	Abril	2023-02-04T00:00:00	2024-11-08T03:00:00	5	Humedad	67
45645	7	Sololá	717	San Juan la Laguna	12	San Juan la Laguna	4	Abril	2023-02-04T00:00:00	2024-11-08T03:00:00	6	Velocidad del viento	0
45646	7	Sololá	717	San Juan la Laguna	12	San Juan la Laguna	4	Abril	2023-02-04T00:00:00	2024-11-08T03:00:00	7	Dirección del viento	0
45647	7	Sololá	717	San Juan la Laguna	12	San Juan la Laguna	4	Abril	2023-02-04T00:00:00	2024-11-08T03:00:00	1	Precipitación	0
45648	7	Sololá	717	San Juan la Laguna	12	San Juan la Laguna	4	Abril	2023-02-04T00:00:00	2024-11-08T03:00:00	8	Radiación solar	0
45649	7	Sololá	717	San Juan la Laguna	12	San Juan la Laguna	4	Abril	2023-02-04T00:00:00	2024-11-08T04:00:00	2	Temperatura media	13.2
45650	7	Sololá	717	San Juan la Laguna	12	San Juan la Laguna	4	Abril	2023-02-04T00:00:00	2024-11-08T04:00:00	4	Temperatura máxima	13.8
45651	7	Sololá	717	San Juan la Laguna	12	San Juan la Laguna	4	Abril	2023-02-04T00:00:00	2024-11-08T04:00:00	3	Temperatura mínima	13.2
45652	7	Sololá	717	San Juan la Laguna	12	San Juan la Laguna	4	Abril	2023-02-04T00:00:00	2024-11-08T04:00:00	5	Humedad	68
45653	7	Sololá	717	San Juan la Laguna	12	San Juan la Laguna	4	Abril	2023-02-04T00:00:00	2024-11-08T04:00:00	6	Velocidad del viento	0
45654	7	Sololá	717	San Juan la Laguna	12	San Juan la Laguna	4	Abril	2023-02-04T00:00:00	2024-11-08T04:00:00	7	Dirección del viento	0
45655	7	Sololá	717	San Juan la Laguna	12	San Juan la Laguna	4	Abril	2023-02-04T00:00:00	2024-11-08T04:00:00	1	Precipitación	0
45656	7	Sololá	717	San Juan la Laguna	12	San Juan la Laguna	4	Abril	2023-02-04T00:00:00	2024-11-08T04:00:00	8	Radiación solar	0
45657	7	Sololá	717	San Juan la Laguna	12	San Juan la Laguna	4	Abril	2023-02-04T00:00:00	2024-11-08T05:00:00	2	Temperatura media	12.8
45658	7	Sololá	717	San Juan la Laguna	12	San Juan la Laguna	4	Abril	2023-02-04T00:00:00	2024-11-08T05:00:00	4	Temperatura máxima	13.3
45659	7	Sololá	717	San Juan la Laguna	12	San Juan la Laguna	4	Abril	2023-02-04T00:00:00	2024-11-08T05:00:00	3	Temperatura mínima	12.8
45660	7	Sololá	717	San Juan la Laguna	12	San Juan la Laguna	4	Abril	2023-02-04T00:00:00	2024-11-08T05:00:00	5	Humedad	68
45661	7	Sololá	717	San Juan la Laguna	12	San Juan la Laguna	4	Abril	2023-02-04T00:00:00	2024-11-08T05:00:00	6	Velocidad del viento	0
45662	7	Sololá	717	San Juan la Laguna	12	San Juan la Laguna	4	Abril	2023-02-04T00:00:00	2024-11-08T05:00:00	7	Dirección del viento	0
45663	7	Sololá	717	San Juan la Laguna	12	San Juan la Laguna	4	Abril	2023-02-04T00:00:00	2024-11-08T05:00:00	1	Precipitación	0
45664	7	Sololá	717	San Juan la Laguna	12	San Juan la Laguna	4	Abril	2023-02-04T00:00:00	2024-11-08T05:00:00	8	Radiación solar	0
45665	7	Sololá	717	San Juan la Laguna	12	San Juan la Laguna	4	Abril	2023-02-04T00:00:00	2024-11-08T06:00:00	2	Temperatura media	12.6
45666	7	Sololá	717	San Juan la Laguna	12	San Juan la Laguna	4	Abril	2023-02-04T00:00:00	2024-11-08T06:00:00	4	Temperatura máxima	12.8
45667	7	Sololá	717	San Juan la Laguna	12	San Juan la Laguna	4	Abril	2023-02-04T00:00:00	2024-11-08T06:00:00	3	Temperatura mínima	12.6
45668	7	Sololá	717	San Juan la Laguna	12	San Juan la Laguna	4	Abril	2023-02-04T00:00:00	2024-11-08T06:00:00	5	Humedad	68
45669	7	Sololá	717	San Juan la Laguna	12	San Juan la Laguna	4	Abril	2023-02-04T00:00:00	2024-11-08T06:00:00	6	Velocidad del viento	0
45670	7	Sololá	717	San Juan la Laguna	12	San Juan la Laguna	4	Abril	2023-02-04T00:00:00	2024-11-08T06:00:00	7	Dirección del viento	0
45671	7	Sololá	717	San Juan la Laguna	12	San Juan la Laguna	4	Abril	2023-02-04T00:00:00	2024-11-08T06:00:00	1	Precipitación	0
45672	7	Sololá	717	San Juan la Laguna	12	San Juan la Laguna	4	Abril	2023-02-04T00:00:00	2024-11-08T06:00:00	8	Radiación solar	0
45673	7	Sololá	717	San Juan la Laguna	12	San Juan la Laguna	4	Abril	2023-02-04T00:00:00	2024-11-08T07:00:00	2	Temperatura media	13.9
45674	7	Sololá	717	San Juan la Laguna	12	San Juan la Laguna	4	Abril	2023-02-04T00:00:00	2024-11-08T07:00:00	4	Temperatura máxima	13.9
45675	7	Sololá	717	San Juan la Laguna	12	San Juan la Laguna	4	Abril	2023-02-04T00:00:00	2024-11-08T07:00:00	3	Temperatura mínima	12.5
45676	7	Sololá	717	San Juan la Laguna	12	San Juan la Laguna	4	Abril	2023-02-04T00:00:00	2024-11-08T07:00:00	5	Humedad	67
45677	7	Sololá	717	San Juan la Laguna	12	San Juan la Laguna	4	Abril	2023-02-04T00:00:00	2024-11-08T07:00:00	6	Velocidad del viento	0
45678	7	Sololá	717	San Juan la Laguna	12	San Juan la Laguna	4	Abril	2023-02-04T00:00:00	2024-11-08T07:00:00	7	Dirección del viento	0
45679	7	Sololá	717	San Juan la Laguna	12	San Juan la Laguna	4	Abril	2023-02-04T00:00:00	2024-11-08T07:00:00	1	Precipitación	0
45680	7	Sololá	717	San Juan la Laguna	12	San Juan la Laguna	4	Abril	2023-02-04T00:00:00	2024-11-08T07:00:00	8	Radiación solar	49
45681	7	Sololá	717	San Juan la Laguna	12	San Juan la Laguna	4	Abril	2023-02-04T00:00:00	2024-11-08T08:00:00	2	Temperatura media	18
45682	7	Sololá	717	San Juan la Laguna	12	San Juan la Laguna	4	Abril	2023-02-04T00:00:00	2024-11-08T08:00:00	4	Temperatura máxima	18
45683	7	Sololá	717	San Juan la Laguna	12	San Juan la Laguna	4	Abril	2023-02-04T00:00:00	2024-11-08T08:00:00	3	Temperatura mínima	13.9
45684	7	Sololá	717	San Juan la Laguna	12	San Juan la Laguna	4	Abril	2023-02-04T00:00:00	2024-11-08T08:00:00	5	Humedad	60
45685	7	Sololá	717	San Juan la Laguna	12	San Juan la Laguna	4	Abril	2023-02-04T00:00:00	2024-11-08T08:00:00	6	Velocidad del viento	0
45686	7	Sololá	717	San Juan la Laguna	12	San Juan la Laguna	4	Abril	2023-02-04T00:00:00	2024-11-08T08:00:00	7	Dirección del viento	0
45687	7	Sololá	717	San Juan la Laguna	12	San Juan la Laguna	4	Abril	2023-02-04T00:00:00	2024-11-08T08:00:00	1	Precipitación	0
45688	7	Sololá	717	San Juan la Laguna	12	San Juan la Laguna	4	Abril	2023-02-04T00:00:00	2024-11-08T08:00:00	8	Radiación solar	223
45689	7	Sololá	717	San Juan la Laguna	12	San Juan la Laguna	4	Abril	2023-02-04T00:00:00	2024-11-08T09:00:00	2	Temperatura media	20.2
45690	7	Sololá	717	San Juan la Laguna	12	San Juan la Laguna	4	Abril	2023-02-04T00:00:00	2024-11-08T09:00:00	4	Temperatura máxima	21.1
45691	7	Sololá	717	San Juan la Laguna	12	San Juan la Laguna	4	Abril	2023-02-04T00:00:00	2024-11-08T09:00:00	3	Temperatura mínima	18
45692	7	Sololá	717	San Juan la Laguna	12	San Juan la Laguna	4	Abril	2023-02-04T00:00:00	2024-11-08T09:00:00	5	Humedad	53
45693	7	Sololá	717	San Juan la Laguna	12	San Juan la Laguna	4	Abril	2023-02-04T00:00:00	2024-11-08T09:00:00	6	Velocidad del viento	1.6
45694	7	Sololá	717	San Juan la Laguna	12	San Juan la Laguna	4	Abril	2023-02-04T00:00:00	2024-11-08T09:00:00	7	Dirección del viento	1.61
45695	7	Sololá	717	San Juan la Laguna	12	San Juan la Laguna	4	Abril	2023-02-04T00:00:00	2024-11-08T09:00:00	1	Precipitación	0
45696	7	Sololá	717	San Juan la Laguna	12	San Juan la Laguna	4	Abril	2023-02-04T00:00:00	2024-11-08T09:00:00	8	Radiación solar	411
45697	7	Sololá	717	San Juan la Laguna	12	San Juan la Laguna	4	Abril	2023-02-04T00:00:00	2024-11-08T10:00:00	2	Temperatura media	22.4
45698	7	Sololá	717	San Juan la Laguna	12	San Juan la Laguna	4	Abril	2023-02-04T00:00:00	2024-11-08T10:00:00	4	Temperatura máxima	22.4
45699	7	Sololá	717	San Juan la Laguna	12	San Juan la Laguna	4	Abril	2023-02-04T00:00:00	2024-11-08T10:00:00	3	Temperatura mínima	20.2
45700	7	Sololá	717	San Juan la Laguna	12	San Juan la Laguna	4	Abril	2023-02-04T00:00:00	2024-11-08T10:00:00	5	Humedad	47
45701	7	Sololá	717	San Juan la Laguna	12	San Juan la Laguna	4	Abril	2023-02-04T00:00:00	2024-11-08T10:00:00	6	Velocidad del viento	1.6
45702	7	Sololá	717	San Juan la Laguna	12	San Juan la Laguna	4	Abril	2023-02-04T00:00:00	2024-11-08T10:00:00	7	Dirección del viento	1.61
45703	7	Sololá	717	San Juan la Laguna	12	San Juan la Laguna	4	Abril	2023-02-04T00:00:00	2024-11-08T10:00:00	1	Precipitación	0
45704	7	Sololá	717	San Juan la Laguna	12	San Juan la Laguna	4	Abril	2023-02-04T00:00:00	2024-11-08T10:00:00	8	Radiación solar	683
45705	7	Sololá	717	San Juan la Laguna	12	San Juan la Laguna	4	Abril	2023-02-04T00:00:00	2024-11-08T11:00:00	2	Temperatura media	22.9
45706	7	Sololá	717	San Juan la Laguna	12	San Juan la Laguna	4	Abril	2023-02-04T00:00:00	2024-11-08T11:00:00	4	Temperatura máxima	24.6
45707	7	Sololá	717	San Juan la Laguna	12	San Juan la Laguna	4	Abril	2023-02-04T00:00:00	2024-11-08T11:00:00	3	Temperatura mínima	22.4
45708	7	Sololá	717	San Juan la Laguna	12	San Juan la Laguna	4	Abril	2023-02-04T00:00:00	2024-11-08T11:00:00	5	Humedad	51
45709	7	Sololá	717	San Juan la Laguna	12	San Juan la Laguna	4	Abril	2023-02-04T00:00:00	2024-11-08T11:00:00	6	Velocidad del viento	1.6
45710	7	Sololá	717	San Juan la Laguna	12	San Juan la Laguna	4	Abril	2023-02-04T00:00:00	2024-11-08T11:00:00	7	Dirección del viento	1.61
45711	7	Sololá	717	San Juan la Laguna	12	San Juan la Laguna	4	Abril	2023-02-04T00:00:00	2024-11-08T11:00:00	1	Precipitación	0
45712	7	Sololá	717	San Juan la Laguna	12	San Juan la Laguna	4	Abril	2023-02-04T00:00:00	2024-11-08T11:00:00	8	Radiación solar	868
45713	7	Sololá	717	San Juan la Laguna	12	San Juan la Laguna	4	Abril	2023-02-04T00:00:00	2024-11-08T12:00:00	2	Temperatura media	24.4
45714	7	Sololá	717	San Juan la Laguna	12	San Juan la Laguna	4	Abril	2023-02-04T00:00:00	2024-11-08T12:00:00	4	Temperatura máxima	24.7
45715	7	Sololá	717	San Juan la Laguna	12	San Juan la Laguna	4	Abril	2023-02-04T00:00:00	2024-11-08T12:00:00	3	Temperatura mínima	22.7
45716	7	Sololá	717	San Juan la Laguna	12	San Juan la Laguna	4	Abril	2023-02-04T00:00:00	2024-11-08T12:00:00	5	Humedad	51
45717	7	Sololá	717	San Juan la Laguna	12	San Juan la Laguna	4	Abril	2023-02-04T00:00:00	2024-11-08T12:00:00	6	Velocidad del viento	1.6
45718	7	Sololá	717	San Juan la Laguna	12	San Juan la Laguna	4	Abril	2023-02-04T00:00:00	2024-11-08T12:00:00	7	Dirección del viento	1.61
45719	7	Sololá	717	San Juan la Laguna	12	San Juan la Laguna	4	Abril	2023-02-04T00:00:00	2024-11-08T12:00:00	1	Precipitación	0
45720	7	Sololá	717	San Juan la Laguna	12	San Juan la Laguna	4	Abril	2023-02-04T00:00:00	2024-11-08T12:00:00	8	Radiación solar	955
45721	7	Sololá	717	San Juan la Laguna	12	San Juan la Laguna	4	Abril	2023-02-04T00:00:00	2024-11-08T13:00:00	2	Temperatura media	25.3
45722	7	Sololá	717	San Juan la Laguna	12	San Juan la Laguna	4	Abril	2023-02-04T00:00:00	2024-11-08T13:00:00	4	Temperatura máxima	25.6
45723	7	Sololá	717	San Juan la Laguna	12	San Juan la Laguna	4	Abril	2023-02-04T00:00:00	2024-11-08T13:00:00	3	Temperatura mínima	24.3
45724	7	Sololá	717	San Juan la Laguna	12	San Juan la Laguna	4	Abril	2023-02-04T00:00:00	2024-11-08T13:00:00	5	Humedad	45
45725	7	Sololá	717	San Juan la Laguna	12	San Juan la Laguna	4	Abril	2023-02-04T00:00:00	2024-11-08T13:00:00	6	Velocidad del viento	3.2
45726	7	Sololá	717	San Juan la Laguna	12	San Juan la Laguna	4	Abril	2023-02-04T00:00:00	2024-11-08T13:00:00	7	Dirección del viento	3.22
45727	7	Sololá	717	San Juan la Laguna	12	San Juan la Laguna	4	Abril	2023-02-04T00:00:00	2024-11-08T13:00:00	1	Precipitación	0
45728	7	Sololá	717	San Juan la Laguna	12	San Juan la Laguna	4	Abril	2023-02-04T00:00:00	2024-11-08T13:00:00	8	Radiación solar	957
45729	7	Sololá	717	San Juan la Laguna	12	San Juan la Laguna	4	Abril	2023-02-04T00:00:00	2024-11-08T14:00:00	2	Temperatura media	25.6
45730	7	Sololá	717	San Juan la Laguna	12	San Juan la Laguna	4	Abril	2023-02-04T00:00:00	2024-11-08T14:00:00	4	Temperatura máxima	25.6
45731	7	Sololá	717	San Juan la Laguna	12	San Juan la Laguna	4	Abril	2023-02-04T00:00:00	2024-11-08T14:00:00	3	Temperatura mínima	24.9
45732	7	Sololá	717	San Juan la Laguna	12	San Juan la Laguna	4	Abril	2023-02-04T00:00:00	2024-11-08T14:00:00	5	Humedad	57
45733	7	Sololá	717	San Juan la Laguna	12	San Juan la Laguna	4	Abril	2023-02-04T00:00:00	2024-11-08T14:00:00	6	Velocidad del viento	3.2
45734	7	Sololá	717	San Juan la Laguna	12	San Juan la Laguna	4	Abril	2023-02-04T00:00:00	2024-11-08T14:00:00	7	Dirección del viento	3.22
45735	7	Sololá	717	San Juan la Laguna	12	San Juan la Laguna	4	Abril	2023-02-04T00:00:00	2024-11-08T14:00:00	1	Precipitación	0
45736	7	Sololá	717	San Juan la Laguna	12	San Juan la Laguna	4	Abril	2023-02-04T00:00:00	2024-11-08T14:00:00	8	Radiación solar	893
45737	7	Sololá	717	San Juan la Laguna	12	San Juan la Laguna	4	Abril	2023-02-04T00:00:00	2024-11-08T15:00:00	2	Temperatura media	24.5
45738	7	Sololá	717	San Juan la Laguna	12	San Juan la Laguna	4	Abril	2023-02-04T00:00:00	2024-11-08T15:00:00	4	Temperatura máxima	26
45739	7	Sololá	717	San Juan la Laguna	12	San Juan la Laguna	4	Abril	2023-02-04T00:00:00	2024-11-08T15:00:00	3	Temperatura mínima	24.5
45740	7	Sololá	717	San Juan la Laguna	12	San Juan la Laguna	4	Abril	2023-02-04T00:00:00	2024-11-08T15:00:00	5	Humedad	61
45741	7	Sololá	717	San Juan la Laguna	12	San Juan la Laguna	4	Abril	2023-02-04T00:00:00	2024-11-08T15:00:00	6	Velocidad del viento	3.2
45742	7	Sololá	717	San Juan la Laguna	12	San Juan la Laguna	4	Abril	2023-02-04T00:00:00	2024-11-08T15:00:00	7	Dirección del viento	3.22
45743	7	Sololá	717	San Juan la Laguna	12	San Juan la Laguna	4	Abril	2023-02-04T00:00:00	2024-11-08T15:00:00	1	Precipitación	0
45744	7	Sololá	717	San Juan la Laguna	12	San Juan la Laguna	4	Abril	2023-02-04T00:00:00	2024-11-08T15:00:00	8	Radiación solar	758
45745	7	Sololá	717	San Juan la Laguna	12	San Juan la Laguna	4	Abril	2023-02-04T00:00:00	2024-11-08T16:00:00	2	Temperatura media	22.6
45746	7	Sololá	717	San Juan la Laguna	12	San Juan la Laguna	4	Abril	2023-02-04T00:00:00	2024-11-08T16:00:00	4	Temperatura máxima	24.7
45747	7	Sololá	717	San Juan la Laguna	12	San Juan la Laguna	4	Abril	2023-02-04T00:00:00	2024-11-08T16:00:00	3	Temperatura mínima	22.4
45748	7	Sololá	717	San Juan la Laguna	12	San Juan la Laguna	4	Abril	2023-02-04T00:00:00	2024-11-08T16:00:00	5	Humedad	69
45749	7	Sololá	717	San Juan la Laguna	12	San Juan la Laguna	4	Abril	2023-02-04T00:00:00	2024-11-08T16:00:00	6	Velocidad del viento	6.4
45750	7	Sololá	717	San Juan la Laguna	12	San Juan la Laguna	4	Abril	2023-02-04T00:00:00	2024-11-08T16:00:00	7	Dirección del viento	6.44
45751	7	Sololá	717	San Juan la Laguna	12	San Juan la Laguna	4	Abril	2023-02-04T00:00:00	2024-11-08T16:00:00	1	Precipitación	0
45752	7	Sololá	717	San Juan la Laguna	12	San Juan la Laguna	4	Abril	2023-02-04T00:00:00	2024-11-08T16:00:00	8	Radiación solar	570
45753	7	Sololá	717	San Juan la Laguna	12	San Juan la Laguna	4	Abril	2023-02-04T00:00:00	2024-11-08T17:00:00	2	Temperatura media	21.7
45754	7	Sololá	717	San Juan la Laguna	12	San Juan la Laguna	4	Abril	2023-02-04T00:00:00	2024-11-08T17:00:00	4	Temperatura máxima	22.7
45755	7	Sololá	717	San Juan la Laguna	12	San Juan la Laguna	4	Abril	2023-02-04T00:00:00	2024-11-08T17:00:00	3	Temperatura mínima	21.7
45756	7	Sololá	717	San Juan la Laguna	12	San Juan la Laguna	4	Abril	2023-02-04T00:00:00	2024-11-08T17:00:00	5	Humedad	72
45757	7	Sololá	717	San Juan la Laguna	12	San Juan la Laguna	4	Abril	2023-02-04T00:00:00	2024-11-08T17:00:00	6	Velocidad del viento	4.8
45758	7	Sololá	717	San Juan la Laguna	12	San Juan la Laguna	4	Abril	2023-02-04T00:00:00	2024-11-08T17:00:00	7	Dirección del viento	4.83
45759	7	Sololá	717	San Juan la Laguna	12	San Juan la Laguna	4	Abril	2023-02-04T00:00:00	2024-11-08T17:00:00	1	Precipitación	0
45760	7	Sololá	717	San Juan la Laguna	12	San Juan la Laguna	4	Abril	2023-02-04T00:00:00	2024-11-08T17:00:00	8	Radiación solar	328
45761	7	Sololá	717	San Juan la Laguna	12	San Juan la Laguna	4	Abril	2023-02-04T00:00:00	2024-11-08T18:00:00	2	Temperatura media	20.2
45762	7	Sololá	717	San Juan la Laguna	12	San Juan la Laguna	4	Abril	2023-02-04T00:00:00	2024-11-08T18:00:00	4	Temperatura máxima	21.7
45763	7	Sololá	717	San Juan la Laguna	12	San Juan la Laguna	4	Abril	2023-02-04T00:00:00	2024-11-08T18:00:00	3	Temperatura mínima	20.2
45764	7	Sololá	717	San Juan la Laguna	12	San Juan la Laguna	4	Abril	2023-02-04T00:00:00	2024-11-08T18:00:00	5	Humedad	78
45765	7	Sololá	717	San Juan la Laguna	12	San Juan la Laguna	4	Abril	2023-02-04T00:00:00	2024-11-08T18:00:00	6	Velocidad del viento	3.2
45766	7	Sololá	717	San Juan la Laguna	12	San Juan la Laguna	4	Abril	2023-02-04T00:00:00	2024-11-08T18:00:00	7	Dirección del viento	3.22
45767	7	Sololá	717	San Juan la Laguna	12	San Juan la Laguna	4	Abril	2023-02-04T00:00:00	2024-11-08T18:00:00	1	Precipitación	0
45768	7	Sololá	717	San Juan la Laguna	12	San Juan la Laguna	4	Abril	2023-02-04T00:00:00	2024-11-08T18:00:00	8	Radiación solar	68
45769	7	Sololá	717	San Juan la Laguna	12	San Juan la Laguna	4	Abril	2023-02-04T00:00:00	2024-11-08T19:00:00	2	Temperatura media	19.8
45770	7	Sololá	717	San Juan la Laguna	12	San Juan la Laguna	4	Abril	2023-02-04T00:00:00	2024-11-08T19:00:00	4	Temperatura máxima	20.2
45771	7	Sololá	717	San Juan la Laguna	12	San Juan la Laguna	4	Abril	2023-02-04T00:00:00	2024-11-08T19:00:00	3	Temperatura mínima	19.8
45772	7	Sololá	717	San Juan la Laguna	12	San Juan la Laguna	4	Abril	2023-02-04T00:00:00	2024-11-08T19:00:00	5	Humedad	80
45773	7	Sololá	717	San Juan la Laguna	12	San Juan la Laguna	4	Abril	2023-02-04T00:00:00	2024-11-08T19:00:00	6	Velocidad del viento	1.6
45774	7	Sololá	717	San Juan la Laguna	12	San Juan la Laguna	4	Abril	2023-02-04T00:00:00	2024-11-08T19:00:00	7	Dirección del viento	1.61
45775	7	Sololá	717	San Juan la Laguna	12	San Juan la Laguna	4	Abril	2023-02-04T00:00:00	2024-11-08T19:00:00	1	Precipitación	0
45776	7	Sololá	717	San Juan la Laguna	12	San Juan la Laguna	4	Abril	2023-02-04T00:00:00	2024-11-08T19:00:00	8	Radiación solar	0
45777	7	Sololá	717	San Juan la Laguna	12	San Juan la Laguna	4	Abril	2023-02-04T00:00:00	2024-11-08T20:00:00	2	Temperatura media	19.3
45778	7	Sololá	717	San Juan la Laguna	12	San Juan la Laguna	4	Abril	2023-02-04T00:00:00	2024-11-08T20:00:00	4	Temperatura máxima	19.8
45779	7	Sololá	717	San Juan la Laguna	12	San Juan la Laguna	4	Abril	2023-02-04T00:00:00	2024-11-08T20:00:00	3	Temperatura mínima	19.3
45780	7	Sololá	717	San Juan la Laguna	12	San Juan la Laguna	4	Abril	2023-02-04T00:00:00	2024-11-08T20:00:00	5	Humedad	81
45781	7	Sololá	717	San Juan la Laguna	12	San Juan la Laguna	4	Abril	2023-02-04T00:00:00	2024-11-08T20:00:00	6	Velocidad del viento	1.6
45782	7	Sololá	717	San Juan la Laguna	12	San Juan la Laguna	4	Abril	2023-02-04T00:00:00	2024-11-08T20:00:00	7	Dirección del viento	1.61
45783	7	Sololá	717	San Juan la Laguna	12	San Juan la Laguna	4	Abril	2023-02-04T00:00:00	2024-11-08T20:00:00	1	Precipitación	0
45784	7	Sololá	717	San Juan la Laguna	12	San Juan la Laguna	4	Abril	2023-02-04T00:00:00	2024-11-08T20:00:00	8	Radiación solar	0
45785	7	Sololá	717	San Juan la Laguna	12	San Juan la Laguna	4	Abril	2023-02-04T00:00:00	2024-11-08T21:00:00	2	Temperatura media	17.6
45786	7	Sololá	717	San Juan la Laguna	12	San Juan la Laguna	4	Abril	2023-02-04T00:00:00	2024-11-08T21:00:00	4	Temperatura máxima	19.4
45787	7	Sololá	717	San Juan la Laguna	12	San Juan la Laguna	4	Abril	2023-02-04T00:00:00	2024-11-08T21:00:00	3	Temperatura mínima	17.5
45788	7	Sololá	717	San Juan la Laguna	12	San Juan la Laguna	4	Abril	2023-02-04T00:00:00	2024-11-08T21:00:00	5	Humedad	86
45789	7	Sololá	717	San Juan la Laguna	12	San Juan la Laguna	4	Abril	2023-02-04T00:00:00	2024-11-08T21:00:00	6	Velocidad del viento	1.6
45790	7	Sololá	717	San Juan la Laguna	12	San Juan la Laguna	4	Abril	2023-02-04T00:00:00	2024-11-08T21:00:00	7	Dirección del viento	1.61
45791	7	Sololá	717	San Juan la Laguna	12	San Juan la Laguna	4	Abril	2023-02-04T00:00:00	2024-11-08T21:00:00	1	Precipitación	0
45792	7	Sololá	717	San Juan la Laguna	12	San Juan la Laguna	4	Abril	2023-02-04T00:00:00	2024-11-08T21:00:00	8	Radiación solar	0
45793	7	Sololá	717	San Juan la Laguna	12	San Juan la Laguna	4	Abril	2023-02-04T00:00:00	2024-11-08T22:00:00	2	Temperatura media	16.8
45794	7	Sololá	717	San Juan la Laguna	12	San Juan la Laguna	4	Abril	2023-02-04T00:00:00	2024-11-08T22:00:00	4	Temperatura máxima	17.7
45795	7	Sololá	717	San Juan la Laguna	12	San Juan la Laguna	4	Abril	2023-02-04T00:00:00	2024-11-08T22:00:00	3	Temperatura mínima	16.8
45796	7	Sololá	717	San Juan la Laguna	12	San Juan la Laguna	4	Abril	2023-02-04T00:00:00	2024-11-08T22:00:00	5	Humedad	85
45797	7	Sololá	717	San Juan la Laguna	12	San Juan la Laguna	4	Abril	2023-02-04T00:00:00	2024-11-08T22:00:00	6	Velocidad del viento	0
45798	7	Sololá	717	San Juan la Laguna	12	San Juan la Laguna	4	Abril	2023-02-04T00:00:00	2024-11-08T22:00:00	7	Dirección del viento	0
45799	7	Sololá	717	San Juan la Laguna	12	San Juan la Laguna	4	Abril	2023-02-04T00:00:00	2024-11-08T22:00:00	1	Precipitación	0
45800	7	Sololá	717	San Juan la Laguna	12	San Juan la Laguna	4	Abril	2023-02-04T00:00:00	2024-11-08T22:00:00	8	Radiación solar	0
45801	7	Sololá	717	San Juan la Laguna	12	San Juan la Laguna	4	Abril	2023-02-04T00:00:00	2024-11-08T23:00:00	2	Temperatura media	15.6
45802	7	Sololá	717	San Juan la Laguna	12	San Juan la Laguna	4	Abril	2023-02-04T00:00:00	2024-11-08T23:00:00	4	Temperatura máxima	16.8
45803	7	Sololá	717	San Juan la Laguna	12	San Juan la Laguna	4	Abril	2023-02-04T00:00:00	2024-11-08T23:00:00	3	Temperatura mínima	15.6
45804	7	Sololá	717	San Juan la Laguna	12	San Juan la Laguna	4	Abril	2023-02-04T00:00:00	2024-11-08T23:00:00	5	Humedad	86
45805	7	Sololá	717	San Juan la Laguna	12	San Juan la Laguna	4	Abril	2023-02-04T00:00:00	2024-11-08T23:00:00	6	Velocidad del viento	1.6
45806	7	Sololá	717	San Juan la Laguna	12	San Juan la Laguna	4	Abril	2023-02-04T00:00:00	2024-11-08T23:00:00	7	Dirección del viento	1.61
45807	7	Sololá	717	San Juan la Laguna	12	San Juan la Laguna	4	Abril	2023-02-04T00:00:00	2024-11-08T23:00:00	1	Precipitación	0
45808	7	Sololá	717	San Juan la Laguna	12	San Juan la Laguna	4	Abril	2023-02-04T00:00:00	2024-11-08T23:00:00	8	Radiación solar	0
45809	7	Sololá	717	San Juan la Laguna	12	San Juan la Laguna	4	Abril	2023-03-04T00:00:00	2024-11-08T00:00:00	2	Temperatura media	15.1
45810	7	Sololá	717	San Juan la Laguna	12	San Juan la Laguna	4	Abril	2023-03-04T00:00:00	2024-11-08T00:00:00	4	Temperatura máxima	15.6
45811	7	Sololá	717	San Juan la Laguna	12	San Juan la Laguna	4	Abril	2023-03-04T00:00:00	2024-11-08T00:00:00	3	Temperatura mínima	15.1
45812	7	Sololá	717	San Juan la Laguna	12	San Juan la Laguna	4	Abril	2023-03-04T00:00:00	2024-11-08T00:00:00	5	Humedad	77
45813	7	Sololá	717	San Juan la Laguna	12	San Juan la Laguna	4	Abril	2023-03-04T00:00:00	2024-11-08T00:00:00	6	Velocidad del viento	3.2
45814	7	Sololá	717	San Juan la Laguna	12	San Juan la Laguna	4	Abril	2023-03-04T00:00:00	2024-11-08T00:00:00	7	Dirección del viento	3.22
45815	7	Sololá	717	San Juan la Laguna	12	San Juan la Laguna	4	Abril	2023-03-04T00:00:00	2024-11-08T00:00:00	1	Precipitación	0
45816	7	Sololá	717	San Juan la Laguna	12	San Juan la Laguna	4	Abril	2023-03-04T00:00:00	2024-11-08T00:00:00	8	Radiación solar	0
45817	7	Sololá	717	San Juan la Laguna	12	San Juan la Laguna	4	Abril	2023-03-04T00:00:00	2024-11-08T01:00:00	2	Temperatura media	14.8
45818	7	Sololá	717	San Juan la Laguna	12	San Juan la Laguna	4	Abril	2023-03-04T00:00:00	2024-11-08T01:00:00	4	Temperatura máxima	15.2
45819	7	Sololá	717	San Juan la Laguna	12	San Juan la Laguna	4	Abril	2023-03-04T00:00:00	2024-11-08T01:00:00	3	Temperatura mínima	14.7
45820	7	Sololá	717	San Juan la Laguna	12	San Juan la Laguna	4	Abril	2023-03-04T00:00:00	2024-11-08T01:00:00	5	Humedad	76
45821	7	Sololá	717	San Juan la Laguna	12	San Juan la Laguna	4	Abril	2023-03-04T00:00:00	2024-11-08T01:00:00	6	Velocidad del viento	3.2
45822	7	Sololá	717	San Juan la Laguna	12	San Juan la Laguna	4	Abril	2023-03-04T00:00:00	2024-11-08T01:00:00	7	Dirección del viento	3.22
45823	7	Sololá	717	San Juan la Laguna	12	San Juan la Laguna	4	Abril	2023-03-04T00:00:00	2024-11-08T01:00:00	1	Precipitación	0
45824	7	Sololá	717	San Juan la Laguna	12	San Juan la Laguna	4	Abril	2023-03-04T00:00:00	2024-11-08T01:00:00	8	Radiación solar	0
45825	7	Sololá	717	San Juan la Laguna	12	San Juan la Laguna	4	Abril	2023-03-04T00:00:00	2024-11-08T02:00:00	2	Temperatura media	14.4
45826	7	Sololá	717	San Juan la Laguna	12	San Juan la Laguna	4	Abril	2023-03-04T00:00:00	2024-11-08T02:00:00	4	Temperatura máxima	14.8
45827	7	Sololá	717	San Juan la Laguna	12	San Juan la Laguna	4	Abril	2023-03-04T00:00:00	2024-11-08T02:00:00	3	Temperatura mínima	14.4
45828	7	Sololá	717	San Juan la Laguna	12	San Juan la Laguna	4	Abril	2023-03-04T00:00:00	2024-11-08T02:00:00	5	Humedad	73
45829	7	Sololá	717	San Juan la Laguna	12	San Juan la Laguna	4	Abril	2023-03-04T00:00:00	2024-11-08T02:00:00	6	Velocidad del viento	3.2
45830	7	Sololá	717	San Juan la Laguna	12	San Juan la Laguna	4	Abril	2023-03-04T00:00:00	2024-11-08T02:00:00	7	Dirección del viento	3.22
45831	7	Sololá	717	San Juan la Laguna	12	San Juan la Laguna	4	Abril	2023-03-04T00:00:00	2024-11-08T02:00:00	1	Precipitación	0
45832	7	Sololá	717	San Juan la Laguna	12	San Juan la Laguna	4	Abril	2023-03-04T00:00:00	2024-11-08T02:00:00	8	Radiación solar	0
45833	7	Sololá	717	San Juan la Laguna	12	San Juan la Laguna	4	Abril	2023-03-04T00:00:00	2024-11-08T03:00:00	2	Temperatura media	13.7
45834	7	Sololá	717	San Juan la Laguna	12	San Juan la Laguna	4	Abril	2023-03-04T00:00:00	2024-11-08T03:00:00	4	Temperatura máxima	14.4
45835	7	Sololá	717	San Juan la Laguna	12	San Juan la Laguna	4	Abril	2023-03-04T00:00:00	2024-11-08T03:00:00	3	Temperatura mínima	13.7
45836	7	Sololá	717	San Juan la Laguna	12	San Juan la Laguna	4	Abril	2023-03-04T00:00:00	2024-11-08T03:00:00	5	Humedad	75
45837	7	Sololá	717	San Juan la Laguna	12	San Juan la Laguna	4	Abril	2023-03-04T00:00:00	2024-11-08T03:00:00	6	Velocidad del viento	1.6
45838	7	Sololá	717	San Juan la Laguna	12	San Juan la Laguna	4	Abril	2023-03-04T00:00:00	2024-11-08T03:00:00	7	Dirección del viento	1.61
45839	7	Sololá	717	San Juan la Laguna	12	San Juan la Laguna	4	Abril	2023-03-04T00:00:00	2024-11-08T03:00:00	1	Precipitación	0
45840	7	Sololá	717	San Juan la Laguna	12	San Juan la Laguna	4	Abril	2023-03-04T00:00:00	2024-11-08T03:00:00	8	Radiación solar	0
45841	7	Sololá	717	San Juan la Laguna	12	San Juan la Laguna	4	Abril	2023-03-04T00:00:00	2024-11-08T04:00:00	2	Temperatura media	13.3
45842	7	Sololá	717	San Juan la Laguna	12	San Juan la Laguna	4	Abril	2023-03-04T00:00:00	2024-11-08T04:00:00	4	Temperatura máxima	13.9
45843	7	Sololá	717	San Juan la Laguna	12	San Juan la Laguna	4	Abril	2023-03-04T00:00:00	2024-11-08T04:00:00	3	Temperatura mínima	13.3
45844	7	Sololá	717	San Juan la Laguna	12	San Juan la Laguna	4	Abril	2023-03-04T00:00:00	2024-11-08T04:00:00	5	Humedad	79
45845	7	Sololá	717	San Juan la Laguna	12	San Juan la Laguna	4	Abril	2023-03-04T00:00:00	2024-11-08T04:00:00	6	Velocidad del viento	1.6
45846	7	Sololá	717	San Juan la Laguna	12	San Juan la Laguna	4	Abril	2023-03-04T00:00:00	2024-11-08T04:00:00	7	Dirección del viento	1.61
45847	7	Sololá	717	San Juan la Laguna	12	San Juan la Laguna	4	Abril	2023-03-04T00:00:00	2024-11-08T04:00:00	1	Precipitación	0
45848	7	Sololá	717	San Juan la Laguna	12	San Juan la Laguna	4	Abril	2023-03-04T00:00:00	2024-11-08T04:00:00	8	Radiación solar	0
45849	7	Sololá	717	San Juan la Laguna	12	San Juan la Laguna	4	Abril	2023-03-04T00:00:00	2024-11-08T05:00:00	2	Temperatura media	12.9
45850	7	Sololá	717	San Juan la Laguna	12	San Juan la Laguna	4	Abril	2023-03-04T00:00:00	2024-11-08T05:00:00	4	Temperatura máxima	13.4
45851	7	Sololá	717	San Juan la Laguna	12	San Juan la Laguna	4	Abril	2023-03-04T00:00:00	2024-11-08T05:00:00	3	Temperatura mínima	12.9
45852	7	Sololá	717	San Juan la Laguna	12	San Juan la Laguna	4	Abril	2023-03-04T00:00:00	2024-11-08T05:00:00	5	Humedad	84
45853	7	Sololá	717	San Juan la Laguna	12	San Juan la Laguna	4	Abril	2023-03-04T00:00:00	2024-11-08T05:00:00	6	Velocidad del viento	0
45854	7	Sololá	717	San Juan la Laguna	12	San Juan la Laguna	4	Abril	2023-03-04T00:00:00	2024-11-08T05:00:00	7	Dirección del viento	0
45855	7	Sololá	717	San Juan la Laguna	12	San Juan la Laguna	4	Abril	2023-03-04T00:00:00	2024-11-08T05:00:00	1	Precipitación	0
45856	7	Sololá	717	San Juan la Laguna	12	San Juan la Laguna	4	Abril	2023-03-04T00:00:00	2024-11-08T05:00:00	8	Radiación solar	0
45857	7	Sololá	717	San Juan la Laguna	12	San Juan la Laguna	4	Abril	2023-03-04T00:00:00	2024-11-08T06:00:00	2	Temperatura media	12.8
45858	7	Sololá	717	San Juan la Laguna	12	San Juan la Laguna	4	Abril	2023-03-04T00:00:00	2024-11-08T06:00:00	4	Temperatura máxima	13.1
45859	7	Sololá	717	San Juan la Laguna	12	San Juan la Laguna	4	Abril	2023-03-04T00:00:00	2024-11-08T06:00:00	3	Temperatura mínima	12.7
45860	7	Sololá	717	San Juan la Laguna	12	San Juan la Laguna	4	Abril	2023-03-04T00:00:00	2024-11-08T06:00:00	5	Humedad	87
45861	7	Sololá	717	San Juan la Laguna	12	San Juan la Laguna	4	Abril	2023-03-04T00:00:00	2024-11-08T06:00:00	6	Velocidad del viento	1.6
45862	7	Sololá	717	San Juan la Laguna	12	San Juan la Laguna	4	Abril	2023-03-04T00:00:00	2024-11-08T06:00:00	7	Dirección del viento	1.61
45863	7	Sololá	717	San Juan la Laguna	12	San Juan la Laguna	4	Abril	2023-03-04T00:00:00	2024-11-08T06:00:00	1	Precipitación	0
45864	7	Sololá	717	San Juan la Laguna	12	San Juan la Laguna	4	Abril	2023-03-04T00:00:00	2024-11-08T06:00:00	8	Radiación solar	0
45865	7	Sololá	717	San Juan la Laguna	12	San Juan la Laguna	4	Abril	2023-03-04T00:00:00	2024-11-08T07:00:00	2	Temperatura media	14.2
45866	7	Sololá	717	San Juan la Laguna	12	San Juan la Laguna	4	Abril	2023-03-04T00:00:00	2024-11-08T07:00:00	4	Temperatura máxima	14.2
45867	7	Sololá	717	San Juan la Laguna	12	San Juan la Laguna	4	Abril	2023-03-04T00:00:00	2024-11-08T07:00:00	3	Temperatura mínima	12.7
45868	7	Sololá	717	San Juan la Laguna	12	San Juan la Laguna	4	Abril	2023-03-04T00:00:00	2024-11-08T07:00:00	5	Humedad	85
45869	7	Sololá	717	San Juan la Laguna	12	San Juan la Laguna	4	Abril	2023-03-04T00:00:00	2024-11-08T07:00:00	6	Velocidad del viento	0
45870	7	Sololá	717	San Juan la Laguna	12	San Juan la Laguna	4	Abril	2023-03-04T00:00:00	2024-11-08T07:00:00	7	Dirección del viento	0
45871	7	Sololá	717	San Juan la Laguna	12	San Juan la Laguna	4	Abril	2023-03-04T00:00:00	2024-11-08T07:00:00	1	Precipitación	0
45872	7	Sololá	717	San Juan la Laguna	12	San Juan la Laguna	4	Abril	2023-03-04T00:00:00	2024-11-08T07:00:00	8	Radiación solar	46
45873	7	Sololá	717	San Juan la Laguna	12	San Juan la Laguna	4	Abril	2023-03-04T00:00:00	2024-11-08T08:00:00	2	Temperatura media	18.8
45874	7	Sololá	717	San Juan la Laguna	12	San Juan la Laguna	4	Abril	2023-03-04T00:00:00	2024-11-08T08:00:00	4	Temperatura máxima	18.8
45875	7	Sololá	717	San Juan la Laguna	12	San Juan la Laguna	4	Abril	2023-03-04T00:00:00	2024-11-08T08:00:00	3	Temperatura mínima	14.2
45876	7	Sololá	717	San Juan la Laguna	12	San Juan la Laguna	4	Abril	2023-03-04T00:00:00	2024-11-08T08:00:00	5	Humedad	69
45877	7	Sololá	717	San Juan la Laguna	12	San Juan la Laguna	4	Abril	2023-03-04T00:00:00	2024-11-08T08:00:00	6	Velocidad del viento	0
45878	7	Sololá	717	San Juan la Laguna	12	San Juan la Laguna	4	Abril	2023-03-04T00:00:00	2024-11-08T08:00:00	7	Dirección del viento	0
45879	7	Sololá	717	San Juan la Laguna	12	San Juan la Laguna	4	Abril	2023-03-04T00:00:00	2024-11-08T08:00:00	1	Precipitación	0
45880	7	Sololá	717	San Juan la Laguna	12	San Juan la Laguna	4	Abril	2023-03-04T00:00:00	2024-11-08T08:00:00	8	Radiación solar	200
45881	7	Sololá	717	San Juan la Laguna	12	San Juan la Laguna	4	Abril	2023-03-04T00:00:00	2024-11-08T09:00:00	2	Temperatura media	19.7
45882	7	Sololá	717	San Juan la Laguna	12	San Juan la Laguna	4	Abril	2023-03-04T00:00:00	2024-11-08T09:00:00	4	Temperatura máxima	19.7
45883	7	Sololá	717	San Juan la Laguna	12	San Juan la Laguna	4	Abril	2023-03-04T00:00:00	2024-11-08T09:00:00	3	Temperatura mínima	18.8
45884	7	Sololá	717	San Juan la Laguna	12	San Juan la Laguna	4	Abril	2023-03-04T00:00:00	2024-11-08T09:00:00	5	Humedad	70
45885	7	Sololá	717	San Juan la Laguna	12	San Juan la Laguna	4	Abril	2023-03-04T00:00:00	2024-11-08T09:00:00	6	Velocidad del viento	1.6
45886	7	Sololá	717	San Juan la Laguna	12	San Juan la Laguna	4	Abril	2023-03-04T00:00:00	2024-11-08T09:00:00	7	Dirección del viento	1.61
45887	7	Sololá	717	San Juan la Laguna	12	San Juan la Laguna	4	Abril	2023-03-04T00:00:00	2024-11-08T09:00:00	1	Precipitación	0
45888	7	Sololá	717	San Juan la Laguna	12	San Juan la Laguna	4	Abril	2023-03-04T00:00:00	2024-11-08T09:00:00	8	Radiación solar	399
45889	7	Sololá	717	San Juan la Laguna	12	San Juan la Laguna	4	Abril	2023-03-04T00:00:00	2024-11-08T10:00:00	2	Temperatura media	21
45890	7	Sololá	717	San Juan la Laguna	12	San Juan la Laguna	4	Abril	2023-03-04T00:00:00	2024-11-08T10:00:00	4	Temperatura máxima	21
45891	7	Sololá	717	San Juan la Laguna	12	San Juan la Laguna	4	Abril	2023-03-04T00:00:00	2024-11-08T10:00:00	3	Temperatura mínima	19.7
45892	7	Sololá	717	San Juan la Laguna	12	San Juan la Laguna	4	Abril	2023-03-04T00:00:00	2024-11-08T10:00:00	5	Humedad	63
45893	7	Sololá	717	San Juan la Laguna	12	San Juan la Laguna	4	Abril	2023-03-04T00:00:00	2024-11-08T10:00:00	6	Velocidad del viento	1.6
45894	7	Sololá	717	San Juan la Laguna	12	San Juan la Laguna	4	Abril	2023-03-04T00:00:00	2024-11-08T10:00:00	7	Dirección del viento	1.61
45895	7	Sololá	717	San Juan la Laguna	12	San Juan la Laguna	4	Abril	2023-03-04T00:00:00	2024-11-08T10:00:00	1	Precipitación	0
45896	7	Sololá	717	San Juan la Laguna	12	San Juan la Laguna	4	Abril	2023-03-04T00:00:00	2024-11-08T10:00:00	8	Radiación solar	670
45897	7	Sololá	717	San Juan la Laguna	12	San Juan la Laguna	4	Abril	2023-03-04T00:00:00	2024-11-08T11:00:00	2	Temperatura media	21.9
45898	7	Sololá	717	San Juan la Laguna	12	San Juan la Laguna	4	Abril	2023-03-04T00:00:00	2024-11-08T11:00:00	4	Temperatura máxima	22.2
45899	7	Sololá	717	San Juan la Laguna	12	San Juan la Laguna	4	Abril	2023-03-04T00:00:00	2024-11-08T11:00:00	3	Temperatura mínima	21
45900	7	Sololá	717	San Juan la Laguna	12	San Juan la Laguna	4	Abril	2023-03-04T00:00:00	2024-11-08T11:00:00	5	Humedad	64
45901	7	Sololá	717	San Juan la Laguna	12	San Juan la Laguna	4	Abril	2023-03-04T00:00:00	2024-11-08T11:00:00	6	Velocidad del viento	1.6
45902	7	Sololá	717	San Juan la Laguna	12	San Juan la Laguna	4	Abril	2023-03-04T00:00:00	2024-11-08T11:00:00	7	Dirección del viento	1.61
45903	7	Sololá	717	San Juan la Laguna	12	San Juan la Laguna	4	Abril	2023-03-04T00:00:00	2024-11-08T11:00:00	1	Precipitación	0
45904	7	Sololá	717	San Juan la Laguna	12	San Juan la Laguna	4	Abril	2023-03-04T00:00:00	2024-11-08T11:00:00	8	Radiación solar	865
45905	7	Sololá	717	San Juan la Laguna	12	San Juan la Laguna	4	Abril	2023-03-04T00:00:00	2024-11-08T12:00:00	2	Temperatura media	23.3
45906	7	Sololá	717	San Juan la Laguna	12	San Juan la Laguna	4	Abril	2023-03-04T00:00:00	2024-11-08T12:00:00	4	Temperatura máxima	23.8
45907	7	Sololá	717	San Juan la Laguna	12	San Juan la Laguna	4	Abril	2023-03-04T00:00:00	2024-11-08T12:00:00	3	Temperatura mínima	21.8
45908	7	Sololá	717	San Juan la Laguna	12	San Juan la Laguna	4	Abril	2023-03-04T00:00:00	2024-11-08T12:00:00	5	Humedad	58
45909	7	Sololá	717	San Juan la Laguna	12	San Juan la Laguna	4	Abril	2023-03-04T00:00:00	2024-11-08T12:00:00	6	Velocidad del viento	1.6
45910	7	Sololá	717	San Juan la Laguna	12	San Juan la Laguna	4	Abril	2023-03-04T00:00:00	2024-11-08T12:00:00	7	Dirección del viento	1.61
45911	7	Sololá	717	San Juan la Laguna	12	San Juan la Laguna	4	Abril	2023-03-04T00:00:00	2024-11-08T12:00:00	1	Precipitación	0
45912	7	Sololá	717	San Juan la Laguna	12	San Juan la Laguna	4	Abril	2023-03-04T00:00:00	2024-11-08T12:00:00	8	Radiación solar	956
45913	7	Sololá	717	San Juan la Laguna	12	San Juan la Laguna	4	Abril	2023-03-04T00:00:00	2024-11-08T13:00:00	2	Temperatura media	22.3
45914	7	Sololá	717	San Juan la Laguna	12	San Juan la Laguna	4	Abril	2023-03-04T00:00:00	2024-11-08T13:00:00	4	Temperatura máxima	23.4
45915	7	Sololá	717	San Juan la Laguna	12	San Juan la Laguna	4	Abril	2023-03-04T00:00:00	2024-11-08T13:00:00	3	Temperatura mínima	22.2
45916	7	Sololá	717	San Juan la Laguna	12	San Juan la Laguna	4	Abril	2023-03-04T00:00:00	2024-11-08T13:00:00	5	Humedad	69
45917	7	Sololá	717	San Juan la Laguna	12	San Juan la Laguna	4	Abril	2023-03-04T00:00:00	2024-11-08T13:00:00	6	Velocidad del viento	3.2
45918	7	Sololá	717	San Juan la Laguna	12	San Juan la Laguna	4	Abril	2023-03-04T00:00:00	2024-11-08T13:00:00	7	Dirección del viento	3.22
45919	7	Sololá	717	San Juan la Laguna	12	San Juan la Laguna	4	Abril	2023-03-04T00:00:00	2024-11-08T13:00:00	1	Precipitación	0
45920	7	Sololá	717	San Juan la Laguna	12	San Juan la Laguna	4	Abril	2023-03-04T00:00:00	2024-11-08T13:00:00	8	Radiación solar	671
45921	7	Sololá	717	San Juan la Laguna	12	San Juan la Laguna	4	Abril	2023-03-04T00:00:00	2024-11-08T14:00:00	2	Temperatura media	22
45922	7	Sololá	717	San Juan la Laguna	12	San Juan la Laguna	4	Abril	2023-03-04T00:00:00	2024-11-08T14:00:00	4	Temperatura máxima	22.3
45923	7	Sololá	717	San Juan la Laguna	12	San Juan la Laguna	4	Abril	2023-03-04T00:00:00	2024-11-08T14:00:00	3	Temperatura mínima	20.9
45924	7	Sololá	717	San Juan la Laguna	12	San Juan la Laguna	4	Abril	2023-03-04T00:00:00	2024-11-08T14:00:00	5	Humedad	71
45925	7	Sololá	717	San Juan la Laguna	12	San Juan la Laguna	4	Abril	2023-03-04T00:00:00	2024-11-08T14:00:00	6	Velocidad del viento	6.4
45926	7	Sololá	717	San Juan la Laguna	12	San Juan la Laguna	4	Abril	2023-03-04T00:00:00	2024-11-08T14:00:00	7	Dirección del viento	6.44
45927	7	Sololá	717	San Juan la Laguna	12	San Juan la Laguna	4	Abril	2023-03-04T00:00:00	2024-11-08T14:00:00	1	Precipitación	0
45928	7	Sololá	717	San Juan la Laguna	12	San Juan la Laguna	4	Abril	2023-03-04T00:00:00	2024-11-08T14:00:00	8	Radiación solar	642
45929	7	Sololá	717	San Juan la Laguna	12	San Juan la Laguna	4	Abril	2023-03-04T00:00:00	2024-11-08T15:00:00	2	Temperatura media	21.8
45930	7	Sololá	717	San Juan la Laguna	12	San Juan la Laguna	4	Abril	2023-03-04T00:00:00	2024-11-08T15:00:00	4	Temperatura máxima	22.3
45931	7	Sololá	717	San Juan la Laguna	12	San Juan la Laguna	4	Abril	2023-03-04T00:00:00	2024-11-08T15:00:00	3	Temperatura mínima	21.4
45932	7	Sololá	717	San Juan la Laguna	12	San Juan la Laguna	4	Abril	2023-03-04T00:00:00	2024-11-08T15:00:00	5	Humedad	71
45933	7	Sololá	717	San Juan la Laguna	12	San Juan la Laguna	4	Abril	2023-03-04T00:00:00	2024-11-08T15:00:00	6	Velocidad del viento	4.8
45934	7	Sololá	717	San Juan la Laguna	12	San Juan la Laguna	4	Abril	2023-03-04T00:00:00	2024-11-08T15:00:00	7	Dirección del viento	4.83
45935	7	Sololá	717	San Juan la Laguna	12	San Juan la Laguna	4	Abril	2023-03-04T00:00:00	2024-11-08T15:00:00	1	Precipitación	0
45936	7	Sololá	717	San Juan la Laguna	12	San Juan la Laguna	4	Abril	2023-03-04T00:00:00	2024-11-08T15:00:00	8	Radiación solar	798
45937	7	Sololá	717	San Juan la Laguna	12	San Juan la Laguna	4	Abril	2023-03-04T00:00:00	2024-11-08T16:00:00	2	Temperatura media	21.7
45938	7	Sololá	717	San Juan la Laguna	12	San Juan la Laguna	4	Abril	2023-03-04T00:00:00	2024-11-08T16:00:00	4	Temperatura máxima	22
45939	7	Sololá	717	San Juan la Laguna	12	San Juan la Laguna	4	Abril	2023-03-04T00:00:00	2024-11-08T16:00:00	3	Temperatura mínima	21.3
45940	7	Sololá	717	San Juan la Laguna	12	San Juan la Laguna	4	Abril	2023-03-04T00:00:00	2024-11-08T16:00:00	5	Humedad	71
45941	7	Sololá	717	San Juan la Laguna	12	San Juan la Laguna	4	Abril	2023-03-04T00:00:00	2024-11-08T16:00:00	6	Velocidad del viento	4.8
45942	7	Sololá	717	San Juan la Laguna	12	San Juan la Laguna	4	Abril	2023-03-04T00:00:00	2024-11-08T16:00:00	7	Dirección del viento	4.83
45943	7	Sololá	717	San Juan la Laguna	12	San Juan la Laguna	4	Abril	2023-03-04T00:00:00	2024-11-08T16:00:00	1	Precipitación	0
45944	7	Sololá	717	San Juan la Laguna	12	San Juan la Laguna	4	Abril	2023-03-04T00:00:00	2024-11-08T16:00:00	8	Radiación solar	596
45945	7	Sololá	717	San Juan la Laguna	12	San Juan la Laguna	4	Abril	2023-03-04T00:00:00	2024-11-08T17:00:00	2	Temperatura media	20.6
45946	7	Sololá	717	San Juan la Laguna	12	San Juan la Laguna	4	Abril	2023-03-04T00:00:00	2024-11-08T17:00:00	4	Temperatura máxima	21.7
45947	7	Sololá	717	San Juan la Laguna	12	San Juan la Laguna	4	Abril	2023-03-04T00:00:00	2024-11-08T17:00:00	3	Temperatura mínima	20.6
45948	7	Sololá	717	San Juan la Laguna	12	San Juan la Laguna	4	Abril	2023-03-04T00:00:00	2024-11-08T17:00:00	5	Humedad	73
45949	7	Sololá	717	San Juan la Laguna	12	San Juan la Laguna	4	Abril	2023-03-04T00:00:00	2024-11-08T17:00:00	6	Velocidad del viento	4.8
45950	7	Sololá	717	San Juan la Laguna	12	San Juan la Laguna	4	Abril	2023-03-04T00:00:00	2024-11-08T17:00:00	7	Dirección del viento	4.83
45951	7	Sololá	717	San Juan la Laguna	12	San Juan la Laguna	4	Abril	2023-03-04T00:00:00	2024-11-08T17:00:00	1	Precipitación	0
45952	7	Sololá	717	San Juan la Laguna	12	San Juan la Laguna	4	Abril	2023-03-04T00:00:00	2024-11-08T17:00:00	8	Radiación solar	259
45953	7	Sololá	717	San Juan la Laguna	12	San Juan la Laguna	4	Abril	2023-03-04T00:00:00	2024-11-08T18:00:00	2	Temperatura media	20.2
45954	7	Sololá	717	San Juan la Laguna	12	San Juan la Laguna	4	Abril	2023-03-04T00:00:00	2024-11-08T18:00:00	4	Temperatura máxima	20.6
45955	7	Sololá	717	San Juan la Laguna	12	San Juan la Laguna	4	Abril	2023-03-04T00:00:00	2024-11-08T18:00:00	3	Temperatura mínima	20.1
45956	7	Sololá	717	San Juan la Laguna	12	San Juan la Laguna	4	Abril	2023-03-04T00:00:00	2024-11-08T18:00:00	5	Humedad	76
45957	7	Sololá	717	San Juan la Laguna	12	San Juan la Laguna	4	Abril	2023-03-04T00:00:00	2024-11-08T18:00:00	6	Velocidad del viento	1.6
45958	7	Sololá	717	San Juan la Laguna	12	San Juan la Laguna	4	Abril	2023-03-04T00:00:00	2024-11-08T18:00:00	7	Dirección del viento	1.61
45959	7	Sololá	717	San Juan la Laguna	12	San Juan la Laguna	4	Abril	2023-03-04T00:00:00	2024-11-08T18:00:00	1	Precipitación	0
45960	7	Sololá	717	San Juan la Laguna	12	San Juan la Laguna	4	Abril	2023-03-04T00:00:00	2024-11-08T18:00:00	8	Radiación solar	43
45961	7	Sololá	717	San Juan la Laguna	12	San Juan la Laguna	4	Abril	2023-03-04T00:00:00	2024-11-08T19:00:00	2	Temperatura media	19.6
45962	7	Sololá	717	San Juan la Laguna	12	San Juan la Laguna	4	Abril	2023-03-04T00:00:00	2024-11-08T19:00:00	4	Temperatura máxima	20.2
45963	7	Sololá	717	San Juan la Laguna	12	San Juan la Laguna	4	Abril	2023-03-04T00:00:00	2024-11-08T19:00:00	3	Temperatura mínima	19.6
45964	7	Sololá	717	San Juan la Laguna	12	San Juan la Laguna	4	Abril	2023-03-04T00:00:00	2024-11-08T19:00:00	5	Humedad	80
45965	7	Sololá	717	San Juan la Laguna	12	San Juan la Laguna	4	Abril	2023-03-04T00:00:00	2024-11-08T19:00:00	6	Velocidad del viento	0
45966	7	Sololá	717	San Juan la Laguna	12	San Juan la Laguna	4	Abril	2023-03-04T00:00:00	2024-11-08T19:00:00	7	Dirección del viento	0
45967	7	Sololá	717	San Juan la Laguna	12	San Juan la Laguna	4	Abril	2023-03-04T00:00:00	2024-11-08T19:00:00	1	Precipitación	0
45968	7	Sololá	717	San Juan la Laguna	12	San Juan la Laguna	4	Abril	2023-03-04T00:00:00	2024-11-08T19:00:00	8	Radiación solar	0
45969	7	Sololá	717	San Juan la Laguna	12	San Juan la Laguna	4	Abril	2023-03-04T00:00:00	2024-11-08T20:00:00	2	Temperatura media	18.8
45970	7	Sololá	717	San Juan la Laguna	12	San Juan la Laguna	4	Abril	2023-03-04T00:00:00	2024-11-08T20:00:00	4	Temperatura máxima	19.6
45971	7	Sololá	717	San Juan la Laguna	12	San Juan la Laguna	4	Abril	2023-03-04T00:00:00	2024-11-08T20:00:00	3	Temperatura mínima	18.7
45972	7	Sololá	717	San Juan la Laguna	12	San Juan la Laguna	4	Abril	2023-03-04T00:00:00	2024-11-08T20:00:00	5	Humedad	83
45973	7	Sololá	717	San Juan la Laguna	12	San Juan la Laguna	4	Abril	2023-03-04T00:00:00	2024-11-08T20:00:00	6	Velocidad del viento	0
45974	7	Sololá	717	San Juan la Laguna	12	San Juan la Laguna	4	Abril	2023-03-04T00:00:00	2024-11-08T20:00:00	7	Dirección del viento	0
45975	7	Sololá	717	San Juan la Laguna	12	San Juan la Laguna	4	Abril	2023-03-04T00:00:00	2024-11-08T20:00:00	1	Precipitación	0
45976	7	Sololá	717	San Juan la Laguna	12	San Juan la Laguna	4	Abril	2023-03-04T00:00:00	2024-11-08T20:00:00	8	Radiación solar	0
45977	7	Sololá	717	San Juan la Laguna	12	San Juan la Laguna	4	Abril	2023-03-04T00:00:00	2024-11-08T21:00:00	2	Temperatura media	18
45978	7	Sololá	717	San Juan la Laguna	12	San Juan la Laguna	4	Abril	2023-03-04T00:00:00	2024-11-08T21:00:00	4	Temperatura máxima	18.8
45979	7	Sololá	717	San Juan la Laguna	12	San Juan la Laguna	4	Abril	2023-03-04T00:00:00	2024-11-08T21:00:00	3	Temperatura mínima	18
45980	7	Sololá	717	San Juan la Laguna	12	San Juan la Laguna	4	Abril	2023-03-04T00:00:00	2024-11-08T21:00:00	5	Humedad	86
45981	7	Sololá	717	San Juan la Laguna	12	San Juan la Laguna	4	Abril	2023-03-04T00:00:00	2024-11-08T21:00:00	6	Velocidad del viento	0
45982	7	Sololá	717	San Juan la Laguna	12	San Juan la Laguna	4	Abril	2023-03-04T00:00:00	2024-11-08T21:00:00	7	Dirección del viento	0
45983	7	Sololá	717	San Juan la Laguna	12	San Juan la Laguna	4	Abril	2023-03-04T00:00:00	2024-11-08T21:00:00	1	Precipitación	0
45984	7	Sololá	717	San Juan la Laguna	12	San Juan la Laguna	4	Abril	2023-03-04T00:00:00	2024-11-08T21:00:00	8	Radiación solar	0
45985	7	Sololá	717	San Juan la Laguna	12	San Juan la Laguna	4	Abril	2023-03-04T00:00:00	2024-11-08T22:00:00	2	Temperatura media	17.2
45986	7	Sololá	717	San Juan la Laguna	12	San Juan la Laguna	4	Abril	2023-03-04T00:00:00	2024-11-08T22:00:00	4	Temperatura máxima	18
45987	7	Sololá	717	San Juan la Laguna	12	San Juan la Laguna	4	Abril	2023-03-04T00:00:00	2024-11-08T22:00:00	3	Temperatura mínima	17.1
45988	7	Sololá	717	San Juan la Laguna	12	San Juan la Laguna	4	Abril	2023-03-04T00:00:00	2024-11-08T22:00:00	5	Humedad	89
45989	7	Sololá	717	San Juan la Laguna	12	San Juan la Laguna	4	Abril	2023-03-04T00:00:00	2024-11-08T22:00:00	6	Velocidad del viento	0
45990	7	Sololá	717	San Juan la Laguna	12	San Juan la Laguna	4	Abril	2023-03-04T00:00:00	2024-11-08T22:00:00	7	Dirección del viento	0
45991	7	Sololá	717	San Juan la Laguna	12	San Juan la Laguna	4	Abril	2023-03-04T00:00:00	2024-11-08T22:00:00	1	Precipitación	0
45992	7	Sololá	717	San Juan la Laguna	12	San Juan la Laguna	4	Abril	2023-03-04T00:00:00	2024-11-08T22:00:00	8	Radiación solar	0
45993	7	Sololá	717	San Juan la Laguna	12	San Juan la Laguna	4	Abril	2023-03-04T00:00:00	2024-11-08T23:00:00	2	Temperatura media	16.8
45994	7	Sololá	717	San Juan la Laguna	12	San Juan la Laguna	4	Abril	2023-03-04T00:00:00	2024-11-08T23:00:00	4	Temperatura máxima	17.7
45995	7	Sololá	717	San Juan la Laguna	12	San Juan la Laguna	4	Abril	2023-03-04T00:00:00	2024-11-08T23:00:00	3	Temperatura mínima	16.8
45996	7	Sololá	717	San Juan la Laguna	12	San Juan la Laguna	4	Abril	2023-03-04T00:00:00	2024-11-08T23:00:00	5	Humedad	84
45997	7	Sololá	717	San Juan la Laguna	12	San Juan la Laguna	4	Abril	2023-03-04T00:00:00	2024-11-08T23:00:00	6	Velocidad del viento	1.6
45998	7	Sololá	717	San Juan la Laguna	12	San Juan la Laguna	4	Abril	2023-03-04T00:00:00	2024-11-08T23:00:00	7	Dirección del viento	1.61
45999	7	Sololá	717	San Juan la Laguna	12	San Juan la Laguna	4	Abril	2023-03-04T00:00:00	2024-11-08T23:00:00	1	Precipitación	0
46000	7	Sololá	717	San Juan la Laguna	12	San Juan la Laguna	4	Abril	2023-03-04T00:00:00	2024-11-08T23:00:00	8	Radiación solar	0
46001	7	Sololá	717	San Juan la Laguna	12	San Juan la Laguna	4	Abril	2023-04-04T00:00:00	2024-11-08T00:00:00	2	Temperatura media	15.8
46002	7	Sololá	717	San Juan la Laguna	12	San Juan la Laguna	4	Abril	2023-04-04T00:00:00	2024-11-08T00:00:00	4	Temperatura máxima	16.8
46003	7	Sololá	717	San Juan la Laguna	12	San Juan la Laguna	4	Abril	2023-04-04T00:00:00	2024-11-08T00:00:00	3	Temperatura mínima	15.8
46004	7	Sololá	717	San Juan la Laguna	12	San Juan la Laguna	4	Abril	2023-04-04T00:00:00	2024-11-08T00:00:00	5	Humedad	83
46005	7	Sololá	717	San Juan la Laguna	12	San Juan la Laguna	4	Abril	2023-04-04T00:00:00	2024-11-08T00:00:00	6	Velocidad del viento	3.2
46006	7	Sololá	717	San Juan la Laguna	12	San Juan la Laguna	4	Abril	2023-04-04T00:00:00	2024-11-08T00:00:00	7	Dirección del viento	3.22
46007	7	Sololá	717	San Juan la Laguna	12	San Juan la Laguna	4	Abril	2023-04-04T00:00:00	2024-11-08T00:00:00	1	Precipitación	0
46008	7	Sololá	717	San Juan la Laguna	12	San Juan la Laguna	4	Abril	2023-04-04T00:00:00	2024-11-08T00:00:00	8	Radiación solar	0
46009	7	Sololá	717	San Juan la Laguna	12	San Juan la Laguna	4	Abril	2023-04-04T00:00:00	2024-11-08T01:00:00	2	Temperatura media	15.1
46010	7	Sololá	717	San Juan la Laguna	12	San Juan la Laguna	4	Abril	2023-04-04T00:00:00	2024-11-08T01:00:00	4	Temperatura máxima	15.8
46011	7	Sololá	717	San Juan la Laguna	12	San Juan la Laguna	4	Abril	2023-04-04T00:00:00	2024-11-08T01:00:00	3	Temperatura mínima	15.1
46012	7	Sololá	717	San Juan la Laguna	12	San Juan la Laguna	4	Abril	2023-04-04T00:00:00	2024-11-08T01:00:00	5	Humedad	81
46013	7	Sololá	717	San Juan la Laguna	12	San Juan la Laguna	4	Abril	2023-04-04T00:00:00	2024-11-08T01:00:00	6	Velocidad del viento	1.6
46014	7	Sololá	717	San Juan la Laguna	12	San Juan la Laguna	4	Abril	2023-04-04T00:00:00	2024-11-08T01:00:00	7	Dirección del viento	1.61
46015	7	Sololá	717	San Juan la Laguna	12	San Juan la Laguna	4	Abril	2023-04-04T00:00:00	2024-11-08T01:00:00	1	Precipitación	0
46016	7	Sololá	717	San Juan la Laguna	12	San Juan la Laguna	4	Abril	2023-04-04T00:00:00	2024-11-08T01:00:00	8	Radiación solar	0
46017	7	Sololá	717	San Juan la Laguna	12	San Juan la Laguna	4	Abril	2023-04-04T00:00:00	2024-11-08T02:00:00	2	Temperatura media	14.7
46018	7	Sololá	717	San Juan la Laguna	12	San Juan la Laguna	4	Abril	2023-04-04T00:00:00	2024-11-08T02:00:00	4	Temperatura máxima	15.1
46019	7	Sololá	717	San Juan la Laguna	12	San Juan la Laguna	4	Abril	2023-04-04T00:00:00	2024-11-08T02:00:00	3	Temperatura mínima	14.6
46020	7	Sololá	717	San Juan la Laguna	12	San Juan la Laguna	4	Abril	2023-04-04T00:00:00	2024-11-08T02:00:00	5	Humedad	80
46021	7	Sololá	717	San Juan la Laguna	12	San Juan la Laguna	4	Abril	2023-04-04T00:00:00	2024-11-08T02:00:00	6	Velocidad del viento	1.6
46022	7	Sololá	717	San Juan la Laguna	12	San Juan la Laguna	4	Abril	2023-04-04T00:00:00	2024-11-08T02:00:00	7	Dirección del viento	1.61
46023	7	Sololá	717	San Juan la Laguna	12	San Juan la Laguna	4	Abril	2023-04-04T00:00:00	2024-11-08T02:00:00	1	Precipitación	0
46024	7	Sololá	717	San Juan la Laguna	12	San Juan la Laguna	4	Abril	2023-04-04T00:00:00	2024-11-08T02:00:00	8	Radiación solar	0
46025	7	Sololá	717	San Juan la Laguna	12	San Juan la Laguna	4	Abril	2023-04-04T00:00:00	2024-11-08T03:00:00	2	Temperatura media	14.1
46026	7	Sololá	717	San Juan la Laguna	12	San Juan la Laguna	4	Abril	2023-04-04T00:00:00	2024-11-08T03:00:00	4	Temperatura máxima	14.8
46027	7	Sololá	717	San Juan la Laguna	12	San Juan la Laguna	4	Abril	2023-04-04T00:00:00	2024-11-08T03:00:00	3	Temperatura mínima	14.1
46028	7	Sololá	717	San Juan la Laguna	12	San Juan la Laguna	4	Abril	2023-04-04T00:00:00	2024-11-08T03:00:00	5	Humedad	76
46029	7	Sololá	717	San Juan la Laguna	12	San Juan la Laguna	4	Abril	2023-04-04T00:00:00	2024-11-08T03:00:00	6	Velocidad del viento	1.6
46030	7	Sololá	717	San Juan la Laguna	12	San Juan la Laguna	4	Abril	2023-04-04T00:00:00	2024-11-08T03:00:00	7	Dirección del viento	1.61
46031	7	Sololá	717	San Juan la Laguna	12	San Juan la Laguna	4	Abril	2023-04-04T00:00:00	2024-11-08T03:00:00	1	Precipitación	0
46032	7	Sololá	717	San Juan la Laguna	12	San Juan la Laguna	4	Abril	2023-04-04T00:00:00	2024-11-08T03:00:00	8	Radiación solar	0
46033	7	Sololá	717	San Juan la Laguna	12	San Juan la Laguna	4	Abril	2023-04-04T00:00:00	2024-11-08T04:00:00	2	Temperatura media	13.7
46034	7	Sololá	717	San Juan la Laguna	12	San Juan la Laguna	4	Abril	2023-04-04T00:00:00	2024-11-08T04:00:00	4	Temperatura máxima	14.1
46035	7	Sololá	717	San Juan la Laguna	12	San Juan la Laguna	4	Abril	2023-04-04T00:00:00	2024-11-08T04:00:00	3	Temperatura mínima	13.4
46036	7	Sololá	717	San Juan la Laguna	12	San Juan la Laguna	4	Abril	2023-04-04T00:00:00	2024-11-08T04:00:00	5	Humedad	76
46037	7	Sololá	717	San Juan la Laguna	12	San Juan la Laguna	4	Abril	2023-04-04T00:00:00	2024-11-08T04:00:00	6	Velocidad del viento	1.6
46038	7	Sololá	717	San Juan la Laguna	12	San Juan la Laguna	4	Abril	2023-04-04T00:00:00	2024-11-08T04:00:00	7	Dirección del viento	1.61
46039	7	Sololá	717	San Juan la Laguna	12	San Juan la Laguna	4	Abril	2023-04-04T00:00:00	2024-11-08T04:00:00	1	Precipitación	0
46040	7	Sololá	717	San Juan la Laguna	12	San Juan la Laguna	4	Abril	2023-04-04T00:00:00	2024-11-08T04:00:00	8	Radiación solar	0
46041	7	Sololá	717	San Juan la Laguna	12	San Juan la Laguna	4	Abril	2023-04-04T00:00:00	2024-11-08T05:00:00	2	Temperatura media	13.3
46042	7	Sololá	717	San Juan la Laguna	12	San Juan la Laguna	4	Abril	2023-04-04T00:00:00	2024-11-08T05:00:00	4	Temperatura máxima	13.7
46043	7	Sololá	717	San Juan la Laguna	12	San Juan la Laguna	4	Abril	2023-04-04T00:00:00	2024-11-08T05:00:00	3	Temperatura mínima	13.1
46044	7	Sololá	717	San Juan la Laguna	12	San Juan la Laguna	4	Abril	2023-04-04T00:00:00	2024-11-08T05:00:00	5	Humedad	77
46045	7	Sololá	717	San Juan la Laguna	12	San Juan la Laguna	4	Abril	2023-04-04T00:00:00	2024-11-08T05:00:00	6	Velocidad del viento	1.6
46046	7	Sololá	717	San Juan la Laguna	12	San Juan la Laguna	4	Abril	2023-04-04T00:00:00	2024-11-08T05:00:00	7	Dirección del viento	1.61
46047	7	Sololá	717	San Juan la Laguna	12	San Juan la Laguna	4	Abril	2023-04-04T00:00:00	2024-11-08T05:00:00	1	Precipitación	0
46048	7	Sololá	717	San Juan la Laguna	12	San Juan la Laguna	4	Abril	2023-04-04T00:00:00	2024-11-08T05:00:00	8	Radiación solar	0
46049	7	Sololá	717	San Juan la Laguna	12	San Juan la Laguna	4	Abril	2023-04-04T00:00:00	2024-11-08T06:00:00	2	Temperatura media	12.7
46050	7	Sololá	717	San Juan la Laguna	12	San Juan la Laguna	4	Abril	2023-04-04T00:00:00	2024-11-08T06:00:00	4	Temperatura máxima	13.3
46051	7	Sololá	717	San Juan la Laguna	12	San Juan la Laguna	4	Abril	2023-04-04T00:00:00	2024-11-08T06:00:00	3	Temperatura mínima	12.7
46052	7	Sololá	717	San Juan la Laguna	12	San Juan la Laguna	4	Abril	2023-04-04T00:00:00	2024-11-08T06:00:00	5	Humedad	80
46053	7	Sololá	717	San Juan la Laguna	12	San Juan la Laguna	4	Abril	2023-04-04T00:00:00	2024-11-08T06:00:00	6	Velocidad del viento	0
46054	7	Sololá	717	San Juan la Laguna	12	San Juan la Laguna	4	Abril	2023-04-04T00:00:00	2024-11-08T06:00:00	7	Dirección del viento	0
46055	7	Sololá	717	San Juan la Laguna	12	San Juan la Laguna	4	Abril	2023-04-04T00:00:00	2024-11-08T06:00:00	1	Precipitación	0
46056	7	Sololá	717	San Juan la Laguna	12	San Juan la Laguna	4	Abril	2023-04-04T00:00:00	2024-11-08T06:00:00	8	Radiación solar	0
46057	7	Sololá	717	San Juan la Laguna	12	San Juan la Laguna	4	Abril	2023-04-04T00:00:00	2024-11-08T07:00:00	2	Temperatura media	13.9
46058	7	Sololá	717	San Juan la Laguna	12	San Juan la Laguna	4	Abril	2023-04-04T00:00:00	2024-11-08T07:00:00	4	Temperatura máxima	13.9
46059	7	Sololá	717	San Juan la Laguna	12	San Juan la Laguna	4	Abril	2023-04-04T00:00:00	2024-11-08T07:00:00	3	Temperatura mínima	12.6
46060	7	Sololá	717	San Juan la Laguna	12	San Juan la Laguna	4	Abril	2023-04-04T00:00:00	2024-11-08T07:00:00	5	Humedad	82
46061	7	Sololá	717	San Juan la Laguna	12	San Juan la Laguna	4	Abril	2023-04-04T00:00:00	2024-11-08T07:00:00	6	Velocidad del viento	0
46062	7	Sololá	717	San Juan la Laguna	12	San Juan la Laguna	4	Abril	2023-04-04T00:00:00	2024-11-08T07:00:00	7	Dirección del viento	0
46063	7	Sololá	717	San Juan la Laguna	12	San Juan la Laguna	4	Abril	2023-04-04T00:00:00	2024-11-08T07:00:00	1	Precipitación	0
46064	7	Sololá	717	San Juan la Laguna	12	San Juan la Laguna	4	Abril	2023-04-04T00:00:00	2024-11-08T07:00:00	8	Radiación solar	46
46065	7	Sololá	717	San Juan la Laguna	12	San Juan la Laguna	4	Abril	2023-04-04T00:00:00	2024-11-08T08:00:00	2	Temperatura media	18.2
46066	7	Sololá	717	San Juan la Laguna	12	San Juan la Laguna	4	Abril	2023-04-04T00:00:00	2024-11-08T08:00:00	4	Temperatura máxima	18.5
46067	7	Sololá	717	San Juan la Laguna	12	San Juan la Laguna	4	Abril	2023-04-04T00:00:00	2024-11-08T08:00:00	3	Temperatura mínima	14
46068	7	Sololá	717	San Juan la Laguna	12	San Juan la Laguna	4	Abril	2023-04-04T00:00:00	2024-11-08T08:00:00	5	Humedad	72
46069	7	Sololá	717	San Juan la Laguna	12	San Juan la Laguna	4	Abril	2023-04-04T00:00:00	2024-11-08T08:00:00	6	Velocidad del viento	0
46070	7	Sololá	717	San Juan la Laguna	12	San Juan la Laguna	4	Abril	2023-04-04T00:00:00	2024-11-08T08:00:00	7	Dirección del viento	0
46071	7	Sololá	717	San Juan la Laguna	12	San Juan la Laguna	4	Abril	2023-04-04T00:00:00	2024-11-08T08:00:00	1	Precipitación	0
46072	7	Sololá	717	San Juan la Laguna	12	San Juan la Laguna	4	Abril	2023-04-04T00:00:00	2024-11-08T08:00:00	8	Radiación solar	208
46073	7	Sololá	717	San Juan la Laguna	12	San Juan la Laguna	4	Abril	2023-04-04T00:00:00	2024-11-08T09:00:00	2	Temperatura media	19.4
46074	7	Sololá	717	San Juan la Laguna	12	San Juan la Laguna	4	Abril	2023-04-04T00:00:00	2024-11-08T09:00:00	4	Temperatura máxima	19.6
46075	7	Sololá	717	San Juan la Laguna	12	San Juan la Laguna	4	Abril	2023-04-04T00:00:00	2024-11-08T09:00:00	3	Temperatura mínima	18.2
46076	7	Sololá	717	San Juan la Laguna	12	San Juan la Laguna	4	Abril	2023-04-04T00:00:00	2024-11-08T09:00:00	5	Humedad	74
46077	7	Sololá	717	San Juan la Laguna	12	San Juan la Laguna	4	Abril	2023-04-04T00:00:00	2024-11-08T09:00:00	6	Velocidad del viento	1.6
46078	7	Sololá	717	San Juan la Laguna	12	San Juan la Laguna	4	Abril	2023-04-04T00:00:00	2024-11-08T09:00:00	7	Dirección del viento	1.61
46079	7	Sololá	717	San Juan la Laguna	12	San Juan la Laguna	4	Abril	2023-04-04T00:00:00	2024-11-08T09:00:00	1	Precipitación	0
46080	7	Sololá	717	San Juan la Laguna	12	San Juan la Laguna	4	Abril	2023-04-04T00:00:00	2024-11-08T09:00:00	8	Radiación solar	425
46081	7	Sololá	717	San Juan la Laguna	12	San Juan la Laguna	4	Abril	2023-04-04T00:00:00	2024-11-08T10:00:00	2	Temperatura media	20.7
46082	7	Sololá	717	San Juan la Laguna	12	San Juan la Laguna	4	Abril	2023-04-04T00:00:00	2024-11-08T10:00:00	4	Temperatura máxima	20.7
46083	7	Sololá	717	San Juan la Laguna	12	San Juan la Laguna	4	Abril	2023-04-04T00:00:00	2024-11-08T10:00:00	3	Temperatura mínima	19.3
46084	7	Sololá	717	San Juan la Laguna	12	San Juan la Laguna	4	Abril	2023-04-04T00:00:00	2024-11-08T10:00:00	5	Humedad	67
46085	7	Sololá	717	San Juan la Laguna	12	San Juan la Laguna	4	Abril	2023-04-04T00:00:00	2024-11-08T10:00:00	6	Velocidad del viento	1.6
46086	7	Sololá	717	San Juan la Laguna	12	San Juan la Laguna	4	Abril	2023-04-04T00:00:00	2024-11-08T10:00:00	7	Dirección del viento	1.61
46087	7	Sololá	717	San Juan la Laguna	12	San Juan la Laguna	4	Abril	2023-04-04T00:00:00	2024-11-08T10:00:00	1	Precipitación	0
46088	7	Sololá	717	San Juan la Laguna	12	San Juan la Laguna	4	Abril	2023-04-04T00:00:00	2024-11-08T10:00:00	8	Radiación solar	702
46089	7	Sololá	717	San Juan la Laguna	12	San Juan la Laguna	4	Abril	2023-04-04T00:00:00	2024-11-08T11:00:00	2	Temperatura media	22.3
46090	7	Sololá	717	San Juan la Laguna	12	San Juan la Laguna	4	Abril	2023-04-04T00:00:00	2024-11-08T11:00:00	4	Temperatura máxima	22.4
46091	7	Sololá	717	San Juan la Laguna	12	San Juan la Laguna	4	Abril	2023-04-04T00:00:00	2024-11-08T11:00:00	3	Temperatura mínima	20.7
46092	7	Sololá	717	San Juan la Laguna	12	San Juan la Laguna	4	Abril	2023-04-04T00:00:00	2024-11-08T11:00:00	5	Humedad	60
46093	7	Sololá	717	San Juan la Laguna	12	San Juan la Laguna	4	Abril	2023-04-04T00:00:00	2024-11-08T11:00:00	6	Velocidad del viento	1.6
46094	7	Sololá	717	San Juan la Laguna	12	San Juan la Laguna	4	Abril	2023-04-04T00:00:00	2024-11-08T11:00:00	7	Dirección del viento	1.61
46095	7	Sololá	717	San Juan la Laguna	12	San Juan la Laguna	4	Abril	2023-04-04T00:00:00	2024-11-08T11:00:00	1	Precipitación	0
46096	7	Sololá	717	San Juan la Laguna	12	San Juan la Laguna	4	Abril	2023-04-04T00:00:00	2024-11-08T11:00:00	8	Radiación solar	925
46097	7	Sololá	717	San Juan la Laguna	12	San Juan la Laguna	4	Abril	2023-04-04T00:00:00	2024-11-08T12:00:00	2	Temperatura media	23.3
46098	7	Sololá	717	San Juan la Laguna	12	San Juan la Laguna	4	Abril	2023-04-04T00:00:00	2024-11-08T12:00:00	4	Temperatura máxima	23.3
46099	7	Sololá	717	San Juan la Laguna	12	San Juan la Laguna	4	Abril	2023-04-04T00:00:00	2024-11-08T12:00:00	3	Temperatura mínima	21.8
46100	7	Sololá	717	San Juan la Laguna	12	San Juan la Laguna	4	Abril	2023-04-04T00:00:00	2024-11-08T12:00:00	5	Humedad	63
46101	7	Sololá	717	San Juan la Laguna	12	San Juan la Laguna	4	Abril	2023-04-04T00:00:00	2024-11-08T12:00:00	6	Velocidad del viento	1.6
46102	7	Sololá	717	San Juan la Laguna	12	San Juan la Laguna	4	Abril	2023-04-04T00:00:00	2024-11-08T12:00:00	7	Dirección del viento	1.61
46103	7	Sololá	717	San Juan la Laguna	12	San Juan la Laguna	4	Abril	2023-04-04T00:00:00	2024-11-08T12:00:00	1	Precipitación	0
46104	7	Sololá	717	San Juan la Laguna	12	San Juan la Laguna	4	Abril	2023-04-04T00:00:00	2024-11-08T12:00:00	8	Radiación solar	1054
46105	7	Sololá	717	San Juan la Laguna	12	San Juan la Laguna	4	Abril	2023-04-04T00:00:00	2024-11-08T13:00:00	2	Temperatura media	22.8
46106	7	Sololá	717	San Juan la Laguna	12	San Juan la Laguna	4	Abril	2023-04-04T00:00:00	2024-11-08T13:00:00	4	Temperatura máxima	23.4
46107	7	Sololá	717	San Juan la Laguna	12	San Juan la Laguna	4	Abril	2023-04-04T00:00:00	2024-11-08T13:00:00	3	Temperatura mínima	21.6
46108	7	Sololá	717	San Juan la Laguna	12	San Juan la Laguna	4	Abril	2023-04-04T00:00:00	2024-11-08T13:00:00	5	Humedad	66
46109	7	Sololá	717	San Juan la Laguna	12	San Juan la Laguna	4	Abril	2023-04-04T00:00:00	2024-11-08T13:00:00	6	Velocidad del viento	6.4
46110	7	Sololá	717	San Juan la Laguna	12	San Juan la Laguna	4	Abril	2023-04-04T00:00:00	2024-11-08T13:00:00	7	Dirección del viento	6.44
46111	7	Sololá	717	San Juan la Laguna	12	San Juan la Laguna	4	Abril	2023-04-04T00:00:00	2024-11-08T13:00:00	1	Precipitación	0
46112	7	Sololá	717	San Juan la Laguna	12	San Juan la Laguna	4	Abril	2023-04-04T00:00:00	2024-11-08T13:00:00	8	Radiación solar	673
46113	7	Sololá	717	San Juan la Laguna	12	San Juan la Laguna	4	Abril	2023-04-04T00:00:00	2024-11-08T14:00:00	2	Temperatura media	22.6
46114	7	Sololá	717	San Juan la Laguna	12	San Juan la Laguna	4	Abril	2023-04-04T00:00:00	2024-11-08T14:00:00	4	Temperatura máxima	23.1
46115	7	Sololá	717	San Juan la Laguna	12	San Juan la Laguna	4	Abril	2023-04-04T00:00:00	2024-11-08T14:00:00	3	Temperatura mínima	22.5
46116	7	Sololá	717	San Juan la Laguna	12	San Juan la Laguna	4	Abril	2023-04-04T00:00:00	2024-11-08T14:00:00	5	Humedad	67
46117	7	Sololá	717	San Juan la Laguna	12	San Juan la Laguna	4	Abril	2023-04-04T00:00:00	2024-11-08T14:00:00	6	Velocidad del viento	8
46118	7	Sololá	717	San Juan la Laguna	12	San Juan la Laguna	4	Abril	2023-04-04T00:00:00	2024-11-08T14:00:00	7	Dirección del viento	8.05
46119	7	Sololá	717	San Juan la Laguna	12	San Juan la Laguna	4	Abril	2023-04-04T00:00:00	2024-11-08T14:00:00	1	Precipitación	0
46120	7	Sololá	717	San Juan la Laguna	12	San Juan la Laguna	4	Abril	2023-04-04T00:00:00	2024-11-08T14:00:00	8	Radiación solar	934
46121	7	Sololá	717	San Juan la Laguna	12	San Juan la Laguna	4	Abril	2023-04-04T00:00:00	2024-11-08T15:00:00	2	Temperatura media	21.7
46122	7	Sololá	717	San Juan la Laguna	12	San Juan la Laguna	4	Abril	2023-04-04T00:00:00	2024-11-08T15:00:00	4	Temperatura máxima	22.6
46123	7	Sololá	717	San Juan la Laguna	12	San Juan la Laguna	4	Abril	2023-04-04T00:00:00	2024-11-08T15:00:00	3	Temperatura mínima	21.7
46124	7	Sololá	717	San Juan la Laguna	12	San Juan la Laguna	4	Abril	2023-04-04T00:00:00	2024-11-08T15:00:00	5	Humedad	70
46125	7	Sololá	717	San Juan la Laguna	12	San Juan la Laguna	4	Abril	2023-04-04T00:00:00	2024-11-08T15:00:00	6	Velocidad del viento	6.4
46126	7	Sololá	717	San Juan la Laguna	12	San Juan la Laguna	4	Abril	2023-04-04T00:00:00	2024-11-08T15:00:00	7	Dirección del viento	6.44
46127	7	Sololá	717	San Juan la Laguna	12	San Juan la Laguna	4	Abril	2023-04-04T00:00:00	2024-11-08T15:00:00	1	Precipitación	0
46128	7	Sololá	717	San Juan la Laguna	12	San Juan la Laguna	4	Abril	2023-04-04T00:00:00	2024-11-08T15:00:00	8	Radiación solar	780
46129	7	Sololá	717	San Juan la Laguna	12	San Juan la Laguna	4	Abril	2023-04-04T00:00:00	2024-11-08T16:00:00	2	Temperatura media	20.6
46130	7	Sololá	717	San Juan la Laguna	12	San Juan la Laguna	4	Abril	2023-04-04T00:00:00	2024-11-08T16:00:00	4	Temperatura máxima	21.7
46131	7	Sololá	717	San Juan la Laguna	12	San Juan la Laguna	4	Abril	2023-04-04T00:00:00	2024-11-08T16:00:00	3	Temperatura mínima	20.6
46132	7	Sololá	717	San Juan la Laguna	12	San Juan la Laguna	4	Abril	2023-04-04T00:00:00	2024-11-08T16:00:00	5	Humedad	73
46133	7	Sololá	717	San Juan la Laguna	12	San Juan la Laguna	4	Abril	2023-04-04T00:00:00	2024-11-08T16:00:00	6	Velocidad del viento	6.4
46134	7	Sololá	717	San Juan la Laguna	12	San Juan la Laguna	4	Abril	2023-04-04T00:00:00	2024-11-08T16:00:00	7	Dirección del viento	6.44
46135	7	Sololá	717	San Juan la Laguna	12	San Juan la Laguna	4	Abril	2023-04-04T00:00:00	2024-11-08T16:00:00	1	Precipitación	0
46136	7	Sololá	717	San Juan la Laguna	12	San Juan la Laguna	4	Abril	2023-04-04T00:00:00	2024-11-08T16:00:00	8	Radiación solar	217
46137	7	Sololá	717	San Juan la Laguna	12	San Juan la Laguna	4	Abril	2023-04-04T00:00:00	2024-11-08T17:00:00	2	Temperatura media	20.6
46138	7	Sololá	717	San Juan la Laguna	12	San Juan la Laguna	4	Abril	2023-04-04T00:00:00	2024-11-08T17:00:00	4	Temperatura máxima	20.7
46139	7	Sololá	717	San Juan la Laguna	12	San Juan la Laguna	4	Abril	2023-04-04T00:00:00	2024-11-08T17:00:00	3	Temperatura mínima	20.4
46140	7	Sololá	717	San Juan la Laguna	12	San Juan la Laguna	4	Abril	2023-04-04T00:00:00	2024-11-08T17:00:00	5	Humedad	74
46141	7	Sololá	717	San Juan la Laguna	12	San Juan la Laguna	4	Abril	2023-04-04T00:00:00	2024-11-08T17:00:00	6	Velocidad del viento	4.8
46142	7	Sololá	717	San Juan la Laguna	12	San Juan la Laguna	4	Abril	2023-04-04T00:00:00	2024-11-08T17:00:00	7	Dirección del viento	4.83
46143	7	Sololá	717	San Juan la Laguna	12	San Juan la Laguna	4	Abril	2023-04-04T00:00:00	2024-11-08T17:00:00	1	Precipitación	0
46144	7	Sololá	717	San Juan la Laguna	12	San Juan la Laguna	4	Abril	2023-04-04T00:00:00	2024-11-08T17:00:00	8	Radiación solar	120
46145	7	Sololá	717	San Juan la Laguna	12	San Juan la Laguna	4	Abril	2023-04-04T00:00:00	2024-11-08T18:00:00	2	Temperatura media	20.1
46146	7	Sololá	717	San Juan la Laguna	12	San Juan la Laguna	4	Abril	2023-04-04T00:00:00	2024-11-08T18:00:00	4	Temperatura máxima	20.6
46147	7	Sololá	717	San Juan la Laguna	12	San Juan la Laguna	4	Abril	2023-04-04T00:00:00	2024-11-08T18:00:00	3	Temperatura mínima	20.1
46148	7	Sololá	717	San Juan la Laguna	12	San Juan la Laguna	4	Abril	2023-04-04T00:00:00	2024-11-08T18:00:00	5	Humedad	75
46149	7	Sololá	717	San Juan la Laguna	12	San Juan la Laguna	4	Abril	2023-04-04T00:00:00	2024-11-08T18:00:00	6	Velocidad del viento	3.2
46150	7	Sololá	717	San Juan la Laguna	12	San Juan la Laguna	4	Abril	2023-04-04T00:00:00	2024-11-08T18:00:00	7	Dirección del viento	3.22
46151	7	Sololá	717	San Juan la Laguna	12	San Juan la Laguna	4	Abril	2023-04-04T00:00:00	2024-11-08T18:00:00	1	Precipitación	0
46152	7	Sololá	717	San Juan la Laguna	12	San Juan la Laguna	4	Abril	2023-04-04T00:00:00	2024-11-08T18:00:00	8	Radiación solar	34
46153	7	Sololá	717	San Juan la Laguna	12	San Juan la Laguna	4	Abril	2023-04-04T00:00:00	2024-11-08T19:00:00	2	Temperatura media	19.9
46154	7	Sololá	717	San Juan la Laguna	12	San Juan la Laguna	4	Abril	2023-04-04T00:00:00	2024-11-08T19:00:00	4	Temperatura máxima	20.2
46155	7	Sololá	717	San Juan la Laguna	12	San Juan la Laguna	4	Abril	2023-04-04T00:00:00	2024-11-08T19:00:00	3	Temperatura mínima	19.8
46156	7	Sololá	717	San Juan la Laguna	12	San Juan la Laguna	4	Abril	2023-04-04T00:00:00	2024-11-08T19:00:00	5	Humedad	76
46157	7	Sololá	717	San Juan la Laguna	12	San Juan la Laguna	4	Abril	2023-04-04T00:00:00	2024-11-08T19:00:00	6	Velocidad del viento	0
46158	7	Sololá	717	San Juan la Laguna	12	San Juan la Laguna	4	Abril	2023-04-04T00:00:00	2024-11-08T19:00:00	7	Dirección del viento	0
46159	7	Sololá	717	San Juan la Laguna	12	San Juan la Laguna	4	Abril	2023-04-04T00:00:00	2024-11-08T19:00:00	1	Precipitación	0
46160	7	Sololá	717	San Juan la Laguna	12	San Juan la Laguna	4	Abril	2023-04-04T00:00:00	2024-11-08T19:00:00	8	Radiación solar	0
46161	7	Sololá	717	San Juan la Laguna	12	San Juan la Laguna	4	Abril	2023-04-04T00:00:00	2024-11-08T20:00:00	2	Temperatura media	19.5
46162	7	Sololá	717	San Juan la Laguna	12	San Juan la Laguna	4	Abril	2023-04-04T00:00:00	2024-11-08T20:00:00	4	Temperatura máxima	20
46163	7	Sololá	717	San Juan la Laguna	12	San Juan la Laguna	4	Abril	2023-04-04T00:00:00	2024-11-08T20:00:00	3	Temperatura mínima	19.5
46164	7	Sololá	717	San Juan la Laguna	12	San Juan la Laguna	4	Abril	2023-04-04T00:00:00	2024-11-08T20:00:00	5	Humedad	78
46165	7	Sololá	717	San Juan la Laguna	12	San Juan la Laguna	4	Abril	2023-04-04T00:00:00	2024-11-08T20:00:00	6	Velocidad del viento	0
46166	7	Sololá	717	San Juan la Laguna	12	San Juan la Laguna	4	Abril	2023-04-04T00:00:00	2024-11-08T20:00:00	7	Dirección del viento	0
46167	7	Sololá	717	San Juan la Laguna	12	San Juan la Laguna	4	Abril	2023-04-04T00:00:00	2024-11-08T20:00:00	1	Precipitación	0
46168	7	Sololá	717	San Juan la Laguna	12	San Juan la Laguna	4	Abril	2023-04-04T00:00:00	2024-11-08T20:00:00	8	Radiación solar	0
46169	7	Sololá	717	San Juan la Laguna	12	San Juan la Laguna	4	Abril	2023-04-04T00:00:00	2024-11-08T21:00:00	2	Temperatura media	17.8
46170	7	Sololá	717	San Juan la Laguna	12	San Juan la Laguna	4	Abril	2023-04-04T00:00:00	2024-11-08T21:00:00	4	Temperatura máxima	19.5
46171	7	Sololá	717	San Juan la Laguna	12	San Juan la Laguna	4	Abril	2023-04-04T00:00:00	2024-11-08T21:00:00	3	Temperatura mínima	17.8
46172	7	Sololá	717	San Juan la Laguna	12	San Juan la Laguna	4	Abril	2023-04-04T00:00:00	2024-11-08T21:00:00	5	Humedad	83
46173	7	Sololá	717	San Juan la Laguna	12	San Juan la Laguna	4	Abril	2023-04-04T00:00:00	2024-11-08T21:00:00	6	Velocidad del viento	0
46174	7	Sololá	717	San Juan la Laguna	12	San Juan la Laguna	4	Abril	2023-04-04T00:00:00	2024-11-08T21:00:00	7	Dirección del viento	0
46175	7	Sololá	717	San Juan la Laguna	12	San Juan la Laguna	4	Abril	2023-04-04T00:00:00	2024-11-08T21:00:00	1	Precipitación	0
46176	7	Sololá	717	San Juan la Laguna	12	San Juan la Laguna	4	Abril	2023-04-04T00:00:00	2024-11-08T21:00:00	8	Radiación solar	0
46177	7	Sololá	717	San Juan la Laguna	12	San Juan la Laguna	4	Abril	2023-04-04T00:00:00	2024-11-08T22:00:00	2	Temperatura media	16.9
46178	7	Sololá	717	San Juan la Laguna	12	San Juan la Laguna	4	Abril	2023-04-04T00:00:00	2024-11-08T22:00:00	4	Temperatura máxima	17.8
46179	7	Sololá	717	San Juan la Laguna	12	San Juan la Laguna	4	Abril	2023-04-04T00:00:00	2024-11-08T22:00:00	3	Temperatura mínima	16.9
46180	7	Sololá	717	San Juan la Laguna	12	San Juan la Laguna	4	Abril	2023-04-04T00:00:00	2024-11-08T22:00:00	5	Humedad	85
46181	7	Sololá	717	San Juan la Laguna	12	San Juan la Laguna	4	Abril	2023-04-04T00:00:00	2024-11-08T22:00:00	6	Velocidad del viento	3.2
46182	7	Sololá	717	San Juan la Laguna	12	San Juan la Laguna	4	Abril	2023-04-04T00:00:00	2024-11-08T22:00:00	7	Dirección del viento	3.22
46183	7	Sololá	717	San Juan la Laguna	12	San Juan la Laguna	4	Abril	2023-04-04T00:00:00	2024-11-08T22:00:00	1	Precipitación	0
46184	7	Sololá	717	San Juan la Laguna	12	San Juan la Laguna	4	Abril	2023-04-04T00:00:00	2024-11-08T22:00:00	8	Radiación solar	0
46185	7	Sololá	717	San Juan la Laguna	12	San Juan la Laguna	4	Abril	2023-04-04T00:00:00	2024-11-08T23:00:00	2	Temperatura media	16.7
46186	7	Sololá	717	San Juan la Laguna	12	San Juan la Laguna	4	Abril	2023-04-04T00:00:00	2024-11-08T23:00:00	4	Temperatura máxima	16.9
46187	7	Sololá	717	San Juan la Laguna	12	San Juan la Laguna	4	Abril	2023-04-04T00:00:00	2024-11-08T23:00:00	3	Temperatura mínima	16.6
46188	7	Sololá	717	San Juan la Laguna	12	San Juan la Laguna	4	Abril	2023-04-04T00:00:00	2024-11-08T23:00:00	5	Humedad	84
46189	7	Sololá	717	San Juan la Laguna	12	San Juan la Laguna	4	Abril	2023-04-04T00:00:00	2024-11-08T23:00:00	6	Velocidad del viento	1.6
46190	7	Sololá	717	San Juan la Laguna	12	San Juan la Laguna	4	Abril	2023-04-04T00:00:00	2024-11-08T23:00:00	7	Dirección del viento	1.61
46191	7	Sololá	717	San Juan la Laguna	12	San Juan la Laguna	4	Abril	2023-04-04T00:00:00	2024-11-08T23:00:00	1	Precipitación	0
46192	7	Sololá	717	San Juan la Laguna	12	San Juan la Laguna	4	Abril	2023-04-04T00:00:00	2024-11-08T23:00:00	8	Radiación solar	0
46193	7	Sololá	717	San Juan la Laguna	12	San Juan la Laguna	4	Abril	2023-05-04T00:00:00	2024-11-08T00:00:00	2	Temperatura media	15.9
46194	7	Sololá	717	San Juan la Laguna	12	San Juan la Laguna	4	Abril	2023-05-04T00:00:00	2024-11-08T00:00:00	4	Temperatura máxima	16.7
46195	7	Sololá	717	San Juan la Laguna	12	San Juan la Laguna	4	Abril	2023-05-04T00:00:00	2024-11-08T00:00:00	3	Temperatura mínima	15.9
46196	7	Sololá	717	San Juan la Laguna	12	San Juan la Laguna	4	Abril	2023-05-04T00:00:00	2024-11-08T00:00:00	5	Humedad	86
46197	7	Sololá	717	San Juan la Laguna	12	San Juan la Laguna	4	Abril	2023-05-04T00:00:00	2024-11-08T00:00:00	6	Velocidad del viento	1.6
46198	7	Sololá	717	San Juan la Laguna	12	San Juan la Laguna	4	Abril	2023-05-04T00:00:00	2024-11-08T00:00:00	7	Dirección del viento	1.61
46199	7	Sololá	717	San Juan la Laguna	12	San Juan la Laguna	4	Abril	2023-05-04T00:00:00	2024-11-08T00:00:00	1	Precipitación	0
46200	7	Sololá	717	San Juan la Laguna	12	San Juan la Laguna	4	Abril	2023-05-04T00:00:00	2024-11-08T00:00:00	8	Radiación solar	0
46201	7	Sololá	717	San Juan la Laguna	12	San Juan la Laguna	4	Abril	2023-05-04T00:00:00	2024-11-08T01:00:00	2	Temperatura media	15.7
46202	7	Sololá	717	San Juan la Laguna	12	San Juan la Laguna	4	Abril	2023-05-04T00:00:00	2024-11-08T01:00:00	4	Temperatura máxima	15.9
46203	7	Sololá	717	San Juan la Laguna	12	San Juan la Laguna	4	Abril	2023-05-04T00:00:00	2024-11-08T01:00:00	3	Temperatura mínima	15.6
46204	7	Sololá	717	San Juan la Laguna	12	San Juan la Laguna	4	Abril	2023-05-04T00:00:00	2024-11-08T01:00:00	5	Humedad	84
46205	7	Sololá	717	San Juan la Laguna	12	San Juan la Laguna	4	Abril	2023-05-04T00:00:00	2024-11-08T01:00:00	6	Velocidad del viento	1.6
46206	7	Sololá	717	San Juan la Laguna	12	San Juan la Laguna	4	Abril	2023-05-04T00:00:00	2024-11-08T01:00:00	7	Dirección del viento	1.61
46207	7	Sololá	717	San Juan la Laguna	12	San Juan la Laguna	4	Abril	2023-05-04T00:00:00	2024-11-08T01:00:00	1	Precipitación	0
46208	7	Sololá	717	San Juan la Laguna	12	San Juan la Laguna	4	Abril	2023-05-04T00:00:00	2024-11-08T01:00:00	8	Radiación solar	0
46209	7	Sololá	717	San Juan la Laguna	12	San Juan la Laguna	4	Abril	2023-05-04T00:00:00	2024-11-08T02:00:00	2	Temperatura media	15.1
46210	7	Sololá	717	San Juan la Laguna	12	San Juan la Laguna	4	Abril	2023-05-04T00:00:00	2024-11-08T02:00:00	4	Temperatura máxima	15.7
46211	7	Sololá	717	San Juan la Laguna	12	San Juan la Laguna	4	Abril	2023-05-04T00:00:00	2024-11-08T02:00:00	3	Temperatura mínima	14.8
46212	7	Sololá	717	San Juan la Laguna	12	San Juan la Laguna	4	Abril	2023-05-04T00:00:00	2024-11-08T02:00:00	5	Humedad	84
46213	7	Sololá	717	San Juan la Laguna	12	San Juan la Laguna	4	Abril	2023-05-04T00:00:00	2024-11-08T02:00:00	6	Velocidad del viento	0
46214	7	Sololá	717	San Juan la Laguna	12	San Juan la Laguna	4	Abril	2023-05-04T00:00:00	2024-11-08T02:00:00	7	Dirección del viento	0
46215	7	Sololá	717	San Juan la Laguna	12	San Juan la Laguna	4	Abril	2023-05-04T00:00:00	2024-11-08T02:00:00	1	Precipitación	0
46216	7	Sololá	717	San Juan la Laguna	12	San Juan la Laguna	4	Abril	2023-05-04T00:00:00	2024-11-08T02:00:00	8	Radiación solar	0
46217	7	Sololá	717	San Juan la Laguna	12	San Juan la Laguna	4	Abril	2023-05-04T00:00:00	2024-11-08T03:00:00	2	Temperatura media	15
46218	7	Sololá	717	San Juan la Laguna	12	San Juan la Laguna	4	Abril	2023-05-04T00:00:00	2024-11-08T03:00:00	4	Temperatura máxima	15.2
46219	7	Sololá	717	San Juan la Laguna	12	San Juan la Laguna	4	Abril	2023-05-04T00:00:00	2024-11-08T03:00:00	3	Temperatura mínima	14.9
46220	7	Sololá	717	San Juan la Laguna	12	San Juan la Laguna	4	Abril	2023-05-04T00:00:00	2024-11-08T03:00:00	5	Humedad	83
46221	7	Sololá	717	San Juan la Laguna	12	San Juan la Laguna	4	Abril	2023-05-04T00:00:00	2024-11-08T03:00:00	6	Velocidad del viento	1.6
46222	7	Sololá	717	San Juan la Laguna	12	San Juan la Laguna	4	Abril	2023-05-04T00:00:00	2024-11-08T03:00:00	7	Dirección del viento	1.61
46223	7	Sololá	717	San Juan la Laguna	12	San Juan la Laguna	4	Abril	2023-05-04T00:00:00	2024-11-08T03:00:00	1	Precipitación	0
46224	7	Sololá	717	San Juan la Laguna	12	San Juan la Laguna	4	Abril	2023-05-04T00:00:00	2024-11-08T03:00:00	8	Radiación solar	0
46225	7	Sololá	717	San Juan la Laguna	12	San Juan la Laguna	4	Abril	2023-05-04T00:00:00	2024-11-08T04:00:00	2	Temperatura media	14.3
46226	7	Sololá	717	San Juan la Laguna	12	San Juan la Laguna	4	Abril	2023-05-04T00:00:00	2024-11-08T04:00:00	4	Temperatura máxima	15
46227	7	Sololá	717	San Juan la Laguna	12	San Juan la Laguna	4	Abril	2023-05-04T00:00:00	2024-11-08T04:00:00	3	Temperatura mínima	14.3
46228	7	Sololá	717	San Juan la Laguna	12	San Juan la Laguna	4	Abril	2023-05-04T00:00:00	2024-11-08T04:00:00	5	Humedad	83
46229	7	Sololá	717	San Juan la Laguna	12	San Juan la Laguna	4	Abril	2023-05-04T00:00:00	2024-11-08T04:00:00	6	Velocidad del viento	3.2
46230	7	Sololá	717	San Juan la Laguna	12	San Juan la Laguna	4	Abril	2023-05-04T00:00:00	2024-11-08T04:00:00	7	Dirección del viento	3.22
46231	7	Sololá	717	San Juan la Laguna	12	San Juan la Laguna	4	Abril	2023-05-04T00:00:00	2024-11-08T04:00:00	1	Precipitación	0
46232	7	Sololá	717	San Juan la Laguna	12	San Juan la Laguna	4	Abril	2023-05-04T00:00:00	2024-11-08T04:00:00	8	Radiación solar	0
46233	7	Sololá	717	San Juan la Laguna	12	San Juan la Laguna	4	Abril	2023-05-04T00:00:00	2024-11-08T05:00:00	2	Temperatura media	13.9
46234	7	Sololá	717	San Juan la Laguna	12	San Juan la Laguna	4	Abril	2023-05-04T00:00:00	2024-11-08T05:00:00	4	Temperatura máxima	14.3
46235	7	Sololá	717	San Juan la Laguna	12	San Juan la Laguna	4	Abril	2023-05-04T00:00:00	2024-11-08T05:00:00	3	Temperatura mínima	13.9
46236	7	Sololá	717	San Juan la Laguna	12	San Juan la Laguna	4	Abril	2023-05-04T00:00:00	2024-11-08T05:00:00	5	Humedad	82
46237	7	Sololá	717	San Juan la Laguna	12	San Juan la Laguna	4	Abril	2023-05-04T00:00:00	2024-11-08T05:00:00	6	Velocidad del viento	3.2
46238	7	Sololá	717	San Juan la Laguna	12	San Juan la Laguna	4	Abril	2023-05-04T00:00:00	2024-11-08T05:00:00	7	Dirección del viento	3.22
46239	7	Sololá	717	San Juan la Laguna	12	San Juan la Laguna	4	Abril	2023-05-04T00:00:00	2024-11-08T05:00:00	1	Precipitación	0
46240	7	Sololá	717	San Juan la Laguna	12	San Juan la Laguna	4	Abril	2023-05-04T00:00:00	2024-11-08T05:00:00	8	Radiación solar	0
46241	7	Sololá	717	San Juan la Laguna	12	San Juan la Laguna	4	Abril	2023-05-04T00:00:00	2024-11-08T06:00:00	2	Temperatura media	13.7
46242	7	Sololá	717	San Juan la Laguna	12	San Juan la Laguna	4	Abril	2023-05-04T00:00:00	2024-11-08T06:00:00	4	Temperatura máxima	13.9
46243	7	Sololá	717	San Juan la Laguna	12	San Juan la Laguna	4	Abril	2023-05-04T00:00:00	2024-11-08T06:00:00	3	Temperatura mínima	13.6
46244	7	Sololá	717	San Juan la Laguna	12	San Juan la Laguna	4	Abril	2023-05-04T00:00:00	2024-11-08T06:00:00	5	Humedad	83
46245	7	Sololá	717	San Juan la Laguna	12	San Juan la Laguna	4	Abril	2023-05-04T00:00:00	2024-11-08T06:00:00	6	Velocidad del viento	1.6
46246	7	Sololá	717	San Juan la Laguna	12	San Juan la Laguna	4	Abril	2023-05-04T00:00:00	2024-11-08T06:00:00	7	Dirección del viento	1.61
46247	7	Sololá	717	San Juan la Laguna	12	San Juan la Laguna	4	Abril	2023-05-04T00:00:00	2024-11-08T06:00:00	1	Precipitación	0
46248	7	Sololá	717	San Juan la Laguna	12	San Juan la Laguna	4	Abril	2023-05-04T00:00:00	2024-11-08T06:00:00	8	Radiación solar	0
46249	7	Sololá	717	San Juan la Laguna	12	San Juan la Laguna	4	Abril	2023-05-04T00:00:00	2024-11-08T07:00:00	2	Temperatura media	15.1
46250	7	Sololá	717	San Juan la Laguna	12	San Juan la Laguna	4	Abril	2023-05-04T00:00:00	2024-11-08T07:00:00	4	Temperatura máxima	15.1
46251	7	Sololá	717	San Juan la Laguna	12	San Juan la Laguna	4	Abril	2023-05-04T00:00:00	2024-11-08T07:00:00	3	Temperatura mínima	13.6
46252	7	Sololá	717	San Juan la Laguna	12	San Juan la Laguna	4	Abril	2023-05-04T00:00:00	2024-11-08T07:00:00	5	Humedad	78
46253	7	Sololá	717	San Juan la Laguna	12	San Juan la Laguna	4	Abril	2023-05-04T00:00:00	2024-11-08T07:00:00	6	Velocidad del viento	1.6
46254	7	Sololá	717	San Juan la Laguna	12	San Juan la Laguna	4	Abril	2023-05-04T00:00:00	2024-11-08T07:00:00	7	Dirección del viento	1.61
46255	7	Sololá	717	San Juan la Laguna	12	San Juan la Laguna	4	Abril	2023-05-04T00:00:00	2024-11-08T07:00:00	1	Precipitación	0
46256	7	Sololá	717	San Juan la Laguna	12	San Juan la Laguna	4	Abril	2023-05-04T00:00:00	2024-11-08T07:00:00	8	Radiación solar	39
46257	7	Sololá	717	San Juan la Laguna	12	San Juan la Laguna	4	Abril	2023-05-04T00:00:00	2024-11-08T08:00:00	2	Temperatura media	18.4
46258	7	Sololá	717	San Juan la Laguna	12	San Juan la Laguna	4	Abril	2023-05-04T00:00:00	2024-11-08T08:00:00	4	Temperatura máxima	18.4
46259	7	Sololá	717	San Juan la Laguna	12	San Juan la Laguna	4	Abril	2023-05-04T00:00:00	2024-11-08T08:00:00	3	Temperatura mínima	15.1
46260	7	Sololá	717	San Juan la Laguna	12	San Juan la Laguna	4	Abril	2023-05-04T00:00:00	2024-11-08T08:00:00	5	Humedad	80
46261	7	Sololá	717	San Juan la Laguna	12	San Juan la Laguna	4	Abril	2023-05-04T00:00:00	2024-11-08T08:00:00	6	Velocidad del viento	0
46262	7	Sololá	717	San Juan la Laguna	12	San Juan la Laguna	4	Abril	2023-05-04T00:00:00	2024-11-08T08:00:00	7	Dirección del viento	0
46263	7	Sololá	717	San Juan la Laguna	12	San Juan la Laguna	4	Abril	2023-05-04T00:00:00	2024-11-08T08:00:00	1	Precipitación	0
46264	7	Sololá	717	San Juan la Laguna	12	San Juan la Laguna	4	Abril	2023-05-04T00:00:00	2024-11-08T08:00:00	8	Radiación solar	187
46265	7	Sololá	717	San Juan la Laguna	12	San Juan la Laguna	4	Abril	2023-05-04T00:00:00	2024-11-08T09:00:00	2	Temperatura media	20.4
46266	7	Sololá	717	San Juan la Laguna	12	San Juan la Laguna	4	Abril	2023-05-04T00:00:00	2024-11-08T09:00:00	4	Temperatura máxima	20.4
46267	7	Sololá	717	San Juan la Laguna	12	San Juan la Laguna	4	Abril	2023-05-04T00:00:00	2024-11-08T09:00:00	3	Temperatura mínima	18.4
46268	7	Sololá	717	San Juan la Laguna	12	San Juan la Laguna	4	Abril	2023-05-04T00:00:00	2024-11-08T09:00:00	5	Humedad	74
46269	7	Sololá	717	San Juan la Laguna	12	San Juan la Laguna	4	Abril	2023-05-04T00:00:00	2024-11-08T09:00:00	6	Velocidad del viento	0
46270	7	Sololá	717	San Juan la Laguna	12	San Juan la Laguna	4	Abril	2023-05-04T00:00:00	2024-11-08T09:00:00	7	Dirección del viento	0
46271	7	Sololá	717	San Juan la Laguna	12	San Juan la Laguna	4	Abril	2023-05-04T00:00:00	2024-11-08T09:00:00	1	Precipitación	0
46272	7	Sololá	717	San Juan la Laguna	12	San Juan la Laguna	4	Abril	2023-05-04T00:00:00	2024-11-08T09:00:00	8	Radiación solar	400
46273	7	Sololá	717	San Juan la Laguna	12	San Juan la Laguna	4	Abril	2023-05-04T00:00:00	2024-11-08T10:00:00	2	Temperatura media	21.6
46274	7	Sololá	717	San Juan la Laguna	12	San Juan la Laguna	4	Abril	2023-05-04T00:00:00	2024-11-08T10:00:00	4	Temperatura máxima	21.7
46275	7	Sololá	717	San Juan la Laguna	12	San Juan la Laguna	4	Abril	2023-05-04T00:00:00	2024-11-08T10:00:00	3	Temperatura mínima	20.3
46276	7	Sololá	717	San Juan la Laguna	12	San Juan la Laguna	4	Abril	2023-05-04T00:00:00	2024-11-08T10:00:00	5	Humedad	64
46277	7	Sololá	717	San Juan la Laguna	12	San Juan la Laguna	4	Abril	2023-05-04T00:00:00	2024-11-08T10:00:00	6	Velocidad del viento	1.6
46278	7	Sololá	717	San Juan la Laguna	12	San Juan la Laguna	4	Abril	2023-05-04T00:00:00	2024-11-08T10:00:00	7	Dirección del viento	1.61
46279	7	Sololá	717	San Juan la Laguna	12	San Juan la Laguna	4	Abril	2023-05-04T00:00:00	2024-11-08T10:00:00	1	Precipitación	0
46280	7	Sololá	717	San Juan la Laguna	12	San Juan la Laguna	4	Abril	2023-05-04T00:00:00	2024-11-08T10:00:00	8	Radiación solar	652
46281	7	Sololá	717	San Juan la Laguna	12	San Juan la Laguna	4	Abril	2023-05-04T00:00:00	2024-11-08T11:00:00	2	Temperatura media	22.7
46282	7	Sololá	717	San Juan la Laguna	12	San Juan la Laguna	4	Abril	2023-05-04T00:00:00	2024-11-08T11:00:00	4	Temperatura máxima	22.7
46283	7	Sololá	717	San Juan la Laguna	12	San Juan la Laguna	4	Abril	2023-05-04T00:00:00	2024-11-08T11:00:00	3	Temperatura mínima	21.6
46284	7	Sololá	717	San Juan la Laguna	12	San Juan la Laguna	4	Abril	2023-05-04T00:00:00	2024-11-08T11:00:00	5	Humedad	62
46285	7	Sololá	717	San Juan la Laguna	12	San Juan la Laguna	4	Abril	2023-05-04T00:00:00	2024-11-08T11:00:00	6	Velocidad del viento	1.6
46286	7	Sololá	717	San Juan la Laguna	12	San Juan la Laguna	4	Abril	2023-05-04T00:00:00	2024-11-08T11:00:00	7	Dirección del viento	1.61
46287	7	Sololá	717	San Juan la Laguna	12	San Juan la Laguna	4	Abril	2023-05-04T00:00:00	2024-11-08T11:00:00	1	Precipitación	0
46288	7	Sololá	717	San Juan la Laguna	12	San Juan la Laguna	4	Abril	2023-05-04T00:00:00	2024-11-08T11:00:00	8	Radiación solar	853
46289	7	Sololá	717	San Juan la Laguna	12	San Juan la Laguna	4	Abril	2023-05-04T00:00:00	2024-11-08T12:00:00	2	Temperatura media	23.9
46290	7	Sololá	717	San Juan la Laguna	12	San Juan la Laguna	4	Abril	2023-05-04T00:00:00	2024-11-08T12:00:00	4	Temperatura máxima	24.3
46291	7	Sololá	717	San Juan la Laguna	12	San Juan la Laguna	4	Abril	2023-05-04T00:00:00	2024-11-08T12:00:00	3	Temperatura mínima	22.7
46292	7	Sololá	717	San Juan la Laguna	12	San Juan la Laguna	4	Abril	2023-05-04T00:00:00	2024-11-08T12:00:00	5	Humedad	59
46293	7	Sololá	717	San Juan la Laguna	12	San Juan la Laguna	4	Abril	2023-05-04T00:00:00	2024-11-08T12:00:00	6	Velocidad del viento	1.6
46294	7	Sololá	717	San Juan la Laguna	12	San Juan la Laguna	4	Abril	2023-05-04T00:00:00	2024-11-08T12:00:00	7	Dirección del viento	1.61
46295	7	Sololá	717	San Juan la Laguna	12	San Juan la Laguna	4	Abril	2023-05-04T00:00:00	2024-11-08T12:00:00	1	Precipitación	0
46296	7	Sololá	717	San Juan la Laguna	12	San Juan la Laguna	4	Abril	2023-05-04T00:00:00	2024-11-08T12:00:00	8	Radiación solar	969
46297	7	Sololá	717	San Juan la Laguna	12	San Juan la Laguna	4	Abril	2023-05-04T00:00:00	2024-11-08T13:00:00	2	Temperatura media	23.8
46298	7	Sololá	717	San Juan la Laguna	12	San Juan la Laguna	4	Abril	2023-05-04T00:00:00	2024-11-08T13:00:00	4	Temperatura máxima	24.6
46299	7	Sololá	717	San Juan la Laguna	12	San Juan la Laguna	4	Abril	2023-05-04T00:00:00	2024-11-08T13:00:00	3	Temperatura mínima	23.2
46300	7	Sololá	717	San Juan la Laguna	12	San Juan la Laguna	4	Abril	2023-05-04T00:00:00	2024-11-08T13:00:00	5	Humedad	63
46301	7	Sololá	717	San Juan la Laguna	12	San Juan la Laguna	4	Abril	2023-05-04T00:00:00	2024-11-08T13:00:00	6	Velocidad del viento	1.6
46302	7	Sololá	717	San Juan la Laguna	12	San Juan la Laguna	4	Abril	2023-05-04T00:00:00	2024-11-08T13:00:00	7	Dirección del viento	1.61
46303	7	Sololá	717	San Juan la Laguna	12	San Juan la Laguna	4	Abril	2023-05-04T00:00:00	2024-11-08T13:00:00	1	Precipitación	0
46304	7	Sololá	717	San Juan la Laguna	12	San Juan la Laguna	4	Abril	2023-05-04T00:00:00	2024-11-08T13:00:00	8	Radiación solar	668
46305	7	Sololá	717	San Juan la Laguna	12	San Juan la Laguna	4	Abril	2023-05-04T00:00:00	2024-11-08T14:00:00	2	Temperatura media	23.6
46306	7	Sololá	717	San Juan la Laguna	12	San Juan la Laguna	4	Abril	2023-05-04T00:00:00	2024-11-08T14:00:00	4	Temperatura máxima	24
46307	7	Sololá	717	San Juan la Laguna	12	San Juan la Laguna	4	Abril	2023-05-04T00:00:00	2024-11-08T14:00:00	3	Temperatura mínima	23.4
46308	7	Sololá	717	San Juan la Laguna	12	San Juan la Laguna	4	Abril	2023-05-04T00:00:00	2024-11-08T14:00:00	5	Humedad	65
46309	7	Sololá	717	San Juan la Laguna	12	San Juan la Laguna	4	Abril	2023-05-04T00:00:00	2024-11-08T14:00:00	6	Velocidad del viento	1.6
46310	7	Sololá	717	San Juan la Laguna	12	San Juan la Laguna	4	Abril	2023-05-04T00:00:00	2024-11-08T14:00:00	7	Dirección del viento	1.61
46311	7	Sololá	717	San Juan la Laguna	12	San Juan la Laguna	4	Abril	2023-05-04T00:00:00	2024-11-08T14:00:00	1	Precipitación	0
46312	7	Sololá	717	San Juan la Laguna	12	San Juan la Laguna	4	Abril	2023-05-04T00:00:00	2024-11-08T14:00:00	8	Radiación solar	361
46313	7	Sololá	717	San Juan la Laguna	12	San Juan la Laguna	4	Abril	2023-05-04T00:00:00	2024-11-08T15:00:00	2	Temperatura media	23.6
46314	7	Sololá	717	San Juan la Laguna	12	San Juan la Laguna	4	Abril	2023-05-04T00:00:00	2024-11-08T15:00:00	4	Temperatura máxima	23.9
46315	7	Sololá	717	San Juan la Laguna	12	San Juan la Laguna	4	Abril	2023-05-04T00:00:00	2024-11-08T15:00:00	3	Temperatura mínima	23.3
46316	7	Sololá	717	San Juan la Laguna	12	San Juan la Laguna	4	Abril	2023-05-04T00:00:00	2024-11-08T15:00:00	5	Humedad	68
46317	7	Sololá	717	San Juan la Laguna	12	San Juan la Laguna	4	Abril	2023-05-04T00:00:00	2024-11-08T15:00:00	6	Velocidad del viento	1.6
46318	7	Sololá	717	San Juan la Laguna	12	San Juan la Laguna	4	Abril	2023-05-04T00:00:00	2024-11-08T15:00:00	7	Dirección del viento	1.61
46319	7	Sololá	717	San Juan la Laguna	12	San Juan la Laguna	4	Abril	2023-05-04T00:00:00	2024-11-08T15:00:00	1	Precipitación	0
46320	7	Sololá	717	San Juan la Laguna	12	San Juan la Laguna	4	Abril	2023-05-04T00:00:00	2024-11-08T15:00:00	8	Radiación solar	445
46321	7	Sololá	717	San Juan la Laguna	12	San Juan la Laguna	4	Abril	2023-05-04T00:00:00	2024-11-08T16:00:00	2	Temperatura media	21.9
46322	7	Sololá	717	San Juan la Laguna	12	San Juan la Laguna	4	Abril	2023-05-04T00:00:00	2024-11-08T16:00:00	4	Temperatura máxima	24
46323	7	Sololá	717	San Juan la Laguna	12	San Juan la Laguna	4	Abril	2023-05-04T00:00:00	2024-11-08T16:00:00	3	Temperatura mínima	21.9
46324	7	Sololá	717	San Juan la Laguna	12	San Juan la Laguna	4	Abril	2023-05-04T00:00:00	2024-11-08T16:00:00	5	Humedad	74
46325	7	Sololá	717	San Juan la Laguna	12	San Juan la Laguna	4	Abril	2023-05-04T00:00:00	2024-11-08T16:00:00	6	Velocidad del viento	4.8
46326	7	Sololá	717	San Juan la Laguna	12	San Juan la Laguna	4	Abril	2023-05-04T00:00:00	2024-11-08T16:00:00	7	Dirección del viento	4.83
46327	7	Sololá	717	San Juan la Laguna	12	San Juan la Laguna	4	Abril	2023-05-04T00:00:00	2024-11-08T16:00:00	1	Precipitación	0
46328	7	Sololá	717	San Juan la Laguna	12	San Juan la Laguna	4	Abril	2023-05-04T00:00:00	2024-11-08T16:00:00	8	Radiación solar	495
46329	7	Sololá	717	San Juan la Laguna	12	San Juan la Laguna	4	Abril	2023-05-04T00:00:00	2024-11-08T17:00:00	2	Temperatura media	20.8
46330	7	Sololá	717	San Juan la Laguna	12	San Juan la Laguna	4	Abril	2023-05-04T00:00:00	2024-11-08T17:00:00	4	Temperatura máxima	22.2
46331	7	Sololá	717	San Juan la Laguna	12	San Juan la Laguna	4	Abril	2023-05-04T00:00:00	2024-11-08T17:00:00	3	Temperatura mínima	20.8
46332	7	Sololá	717	San Juan la Laguna	12	San Juan la Laguna	4	Abril	2023-05-04T00:00:00	2024-11-08T17:00:00	5	Humedad	77
46333	7	Sololá	717	San Juan la Laguna	12	San Juan la Laguna	4	Abril	2023-05-04T00:00:00	2024-11-08T17:00:00	6	Velocidad del viento	3.2
46334	7	Sololá	717	San Juan la Laguna	12	San Juan la Laguna	4	Abril	2023-05-04T00:00:00	2024-11-08T17:00:00	7	Dirección del viento	3.22
46335	7	Sololá	717	San Juan la Laguna	12	San Juan la Laguna	4	Abril	2023-05-04T00:00:00	2024-11-08T17:00:00	1	Precipitación	0
46336	7	Sololá	717	San Juan la Laguna	12	San Juan la Laguna	4	Abril	2023-05-04T00:00:00	2024-11-08T17:00:00	8	Radiación solar	199
46337	7	Sololá	717	San Juan la Laguna	12	San Juan la Laguna	4	Abril	2023-05-04T00:00:00	2024-11-08T18:00:00	2	Temperatura media	20.6
46338	7	Sololá	717	San Juan la Laguna	12	San Juan la Laguna	4	Abril	2023-05-04T00:00:00	2024-11-08T18:00:00	4	Temperatura máxima	20.8
46339	7	Sololá	717	San Juan la Laguna	12	San Juan la Laguna	4	Abril	2023-05-04T00:00:00	2024-11-08T18:00:00	3	Temperatura mínima	20.6
46340	7	Sololá	717	San Juan la Laguna	12	San Juan la Laguna	4	Abril	2023-05-04T00:00:00	2024-11-08T18:00:00	5	Humedad	78
46341	7	Sololá	717	San Juan la Laguna	12	San Juan la Laguna	4	Abril	2023-05-04T00:00:00	2024-11-08T18:00:00	6	Velocidad del viento	3.2
46342	7	Sololá	717	San Juan la Laguna	12	San Juan la Laguna	4	Abril	2023-05-04T00:00:00	2024-11-08T18:00:00	7	Dirección del viento	3.22
46343	7	Sololá	717	San Juan la Laguna	12	San Juan la Laguna	4	Abril	2023-05-04T00:00:00	2024-11-08T18:00:00	1	Precipitación	0
46344	7	Sololá	717	San Juan la Laguna	12	San Juan la Laguna	4	Abril	2023-05-04T00:00:00	2024-11-08T18:00:00	8	Radiación solar	39
46345	7	Sololá	717	San Juan la Laguna	12	San Juan la Laguna	4	Abril	2023-05-04T00:00:00	2024-11-08T19:00:00	2	Temperatura media	20.4
46346	7	Sololá	717	San Juan la Laguna	12	San Juan la Laguna	4	Abril	2023-05-04T00:00:00	2024-11-08T19:00:00	4	Temperatura máxima	20.7
46347	7	Sololá	717	San Juan la Laguna	12	San Juan la Laguna	4	Abril	2023-05-04T00:00:00	2024-11-08T19:00:00	3	Temperatura mínima	20.4
46348	7	Sololá	717	San Juan la Laguna	12	San Juan la Laguna	4	Abril	2023-05-04T00:00:00	2024-11-08T19:00:00	5	Humedad	82
46349	7	Sololá	717	San Juan la Laguna	12	San Juan la Laguna	4	Abril	2023-05-04T00:00:00	2024-11-08T19:00:00	6	Velocidad del viento	0
46350	7	Sololá	717	San Juan la Laguna	12	San Juan la Laguna	4	Abril	2023-05-04T00:00:00	2024-11-08T19:00:00	7	Dirección del viento	0
46351	7	Sololá	717	San Juan la Laguna	12	San Juan la Laguna	4	Abril	2023-05-04T00:00:00	2024-11-08T19:00:00	1	Precipitación	0
46352	7	Sololá	717	San Juan la Laguna	12	San Juan la Laguna	4	Abril	2023-05-04T00:00:00	2024-11-08T19:00:00	8	Radiación solar	0
46353	7	Sololá	717	San Juan la Laguna	12	San Juan la Laguna	4	Abril	2023-05-04T00:00:00	2024-11-08T20:00:00	2	Temperatura media	20.3
46354	7	Sololá	717	San Juan la Laguna	12	San Juan la Laguna	4	Abril	2023-05-04T00:00:00	2024-11-08T20:00:00	4	Temperatura máxima	20.4
46355	7	Sololá	717	San Juan la Laguna	12	San Juan la Laguna	4	Abril	2023-05-04T00:00:00	2024-11-08T20:00:00	3	Temperatura mínima	20.3
46356	7	Sololá	717	San Juan la Laguna	12	San Juan la Laguna	4	Abril	2023-05-04T00:00:00	2024-11-08T20:00:00	5	Humedad	83
46357	7	Sololá	717	San Juan la Laguna	12	San Juan la Laguna	4	Abril	2023-05-04T00:00:00	2024-11-08T20:00:00	6	Velocidad del viento	0
46358	7	Sololá	717	San Juan la Laguna	12	San Juan la Laguna	4	Abril	2023-05-04T00:00:00	2024-11-08T20:00:00	7	Dirección del viento	0
46359	7	Sololá	717	San Juan la Laguna	12	San Juan la Laguna	4	Abril	2023-05-04T00:00:00	2024-11-08T20:00:00	1	Precipitación	0
46360	7	Sololá	717	San Juan la Laguna	12	San Juan la Laguna	4	Abril	2023-05-04T00:00:00	2024-11-08T20:00:00	8	Radiación solar	0
46361	7	Sololá	717	San Juan la Laguna	12	San Juan la Laguna	4	Abril	2023-05-04T00:00:00	2024-11-08T21:00:00	2	Temperatura media	20.3
46362	7	Sololá	717	San Juan la Laguna	12	San Juan la Laguna	4	Abril	2023-05-04T00:00:00	2024-11-08T21:00:00	4	Temperatura máxima	20.4
46363	7	Sololá	717	San Juan la Laguna	12	San Juan la Laguna	4	Abril	2023-05-04T00:00:00	2024-11-08T21:00:00	3	Temperatura mínima	20.3
46364	7	Sololá	717	San Juan la Laguna	12	San Juan la Laguna	4	Abril	2023-05-04T00:00:00	2024-11-08T21:00:00	5	Humedad	85
46365	7	Sololá	717	San Juan la Laguna	12	San Juan la Laguna	4	Abril	2023-05-04T00:00:00	2024-11-08T21:00:00	6	Velocidad del viento	0
46366	7	Sololá	717	San Juan la Laguna	12	San Juan la Laguna	4	Abril	2023-05-04T00:00:00	2024-11-08T21:00:00	7	Dirección del viento	0
46367	7	Sololá	717	San Juan la Laguna	12	San Juan la Laguna	4	Abril	2023-05-04T00:00:00	2024-11-08T21:00:00	1	Precipitación	0
46368	7	Sololá	717	San Juan la Laguna	12	San Juan la Laguna	4	Abril	2023-05-04T00:00:00	2024-11-08T21:00:00	8	Radiación solar	0
46369	7	Sololá	717	San Juan la Laguna	12	San Juan la Laguna	4	Abril	2023-05-04T00:00:00	2024-11-08T22:00:00	2	Temperatura media	19.6
46370	7	Sololá	717	San Juan la Laguna	12	San Juan la Laguna	4	Abril	2023-05-04T00:00:00	2024-11-08T22:00:00	4	Temperatura máxima	20.3
46371	7	Sololá	717	San Juan la Laguna	12	San Juan la Laguna	4	Abril	2023-05-04T00:00:00	2024-11-08T22:00:00	3	Temperatura mínima	19.6
46372	7	Sololá	717	San Juan la Laguna	12	San Juan la Laguna	4	Abril	2023-05-04T00:00:00	2024-11-08T22:00:00	5	Humedad	88
46373	7	Sololá	717	San Juan la Laguna	12	San Juan la Laguna	4	Abril	2023-05-04T00:00:00	2024-11-08T22:00:00	6	Velocidad del viento	0
46374	7	Sololá	717	San Juan la Laguna	12	San Juan la Laguna	4	Abril	2023-05-04T00:00:00	2024-11-08T22:00:00	7	Dirección del viento	0
46375	7	Sololá	717	San Juan la Laguna	12	San Juan la Laguna	4	Abril	2023-05-04T00:00:00	2024-11-08T22:00:00	1	Precipitación	0
46376	7	Sololá	717	San Juan la Laguna	12	San Juan la Laguna	4	Abril	2023-05-04T00:00:00	2024-11-08T22:00:00	8	Radiación solar	0
46377	7	Sololá	717	San Juan la Laguna	12	San Juan la Laguna	4	Abril	2023-05-04T00:00:00	2024-11-08T23:00:00	2	Temperatura media	19.3
46378	7	Sololá	717	San Juan la Laguna	12	San Juan la Laguna	4	Abril	2023-05-04T00:00:00	2024-11-08T23:00:00	4	Temperatura máxima	19.6
46379	7	Sololá	717	San Juan la Laguna	12	San Juan la Laguna	4	Abril	2023-05-04T00:00:00	2024-11-08T23:00:00	3	Temperatura mínima	19.2
46380	7	Sololá	717	San Juan la Laguna	12	San Juan la Laguna	4	Abril	2023-05-04T00:00:00	2024-11-08T23:00:00	5	Humedad	88
46381	7	Sololá	717	San Juan la Laguna	12	San Juan la Laguna	4	Abril	2023-05-04T00:00:00	2024-11-08T23:00:00	6	Velocidad del viento	0
46382	7	Sololá	717	San Juan la Laguna	12	San Juan la Laguna	4	Abril	2023-05-04T00:00:00	2024-11-08T23:00:00	7	Dirección del viento	0
46383	7	Sololá	717	San Juan la Laguna	12	San Juan la Laguna	4	Abril	2023-05-04T00:00:00	2024-11-08T23:00:00	1	Precipitación	0
46384	7	Sololá	717	San Juan la Laguna	12	San Juan la Laguna	4	Abril	2023-05-04T00:00:00	2024-11-08T23:00:00	8	Radiación solar	0
46385	7	Sololá	717	San Juan la Laguna	12	San Juan la Laguna	4	Abril	2023-06-04T00:00:00	2024-11-08T00:00:00	2	Temperatura media	18.9
46386	7	Sololá	717	San Juan la Laguna	12	San Juan la Laguna	4	Abril	2023-06-04T00:00:00	2024-11-08T00:00:00	4	Temperatura máxima	19.3
46387	7	Sololá	717	San Juan la Laguna	12	San Juan la Laguna	4	Abril	2023-06-04T00:00:00	2024-11-08T00:00:00	3	Temperatura mínima	18.8
46388	7	Sololá	717	San Juan la Laguna	12	San Juan la Laguna	4	Abril	2023-06-04T00:00:00	2024-11-08T00:00:00	5	Humedad	89
46389	7	Sololá	717	San Juan la Laguna	12	San Juan la Laguna	4	Abril	2023-06-04T00:00:00	2024-11-08T00:00:00	6	Velocidad del viento	0
46390	7	Sololá	717	San Juan la Laguna	12	San Juan la Laguna	4	Abril	2023-06-04T00:00:00	2024-11-08T00:00:00	7	Dirección del viento	0
46391	7	Sololá	717	San Juan la Laguna	12	San Juan la Laguna	4	Abril	2023-06-04T00:00:00	2024-11-08T00:00:00	1	Precipitación	0
46392	7	Sololá	717	San Juan la Laguna	12	San Juan la Laguna	4	Abril	2023-06-04T00:00:00	2024-11-08T00:00:00	8	Radiación solar	0
46393	7	Sololá	717	San Juan la Laguna	12	San Juan la Laguna	4	Abril	2023-06-04T00:00:00	2024-11-08T01:00:00	2	Temperatura media	18.8
46394	7	Sololá	717	San Juan la Laguna	12	San Juan la Laguna	4	Abril	2023-06-04T00:00:00	2024-11-08T01:00:00	4	Temperatura máxima	19.1
46395	7	Sololá	717	San Juan la Laguna	12	San Juan la Laguna	4	Abril	2023-06-04T00:00:00	2024-11-08T01:00:00	3	Temperatura mínima	18.8
46396	7	Sololá	717	San Juan la Laguna	12	San Juan la Laguna	4	Abril	2023-06-04T00:00:00	2024-11-08T01:00:00	5	Humedad	88
46397	7	Sololá	717	San Juan la Laguna	12	San Juan la Laguna	4	Abril	2023-06-04T00:00:00	2024-11-08T01:00:00	6	Velocidad del viento	0
46398	7	Sololá	717	San Juan la Laguna	12	San Juan la Laguna	4	Abril	2023-06-04T00:00:00	2024-11-08T01:00:00	7	Dirección del viento	0
46399	7	Sololá	717	San Juan la Laguna	12	San Juan la Laguna	4	Abril	2023-06-04T00:00:00	2024-11-08T01:00:00	1	Precipitación	0
46400	7	Sololá	717	San Juan la Laguna	12	San Juan la Laguna	4	Abril	2023-06-04T00:00:00	2024-11-08T01:00:00	8	Radiación solar	0
46401	7	Sololá	717	San Juan la Laguna	12	San Juan la Laguna	4	Abril	2023-06-04T00:00:00	2024-11-08T02:00:00	2	Temperatura media	18.3
46402	7	Sololá	717	San Juan la Laguna	12	San Juan la Laguna	4	Abril	2023-06-04T00:00:00	2024-11-08T02:00:00	4	Temperatura máxima	18.8
46403	7	Sololá	717	San Juan la Laguna	12	San Juan la Laguna	4	Abril	2023-06-04T00:00:00	2024-11-08T02:00:00	3	Temperatura mínima	18.1
46404	7	Sololá	717	San Juan la Laguna	12	San Juan la Laguna	4	Abril	2023-06-04T00:00:00	2024-11-08T02:00:00	5	Humedad	89
46405	7	Sololá	717	San Juan la Laguna	12	San Juan la Laguna	4	Abril	2023-06-04T00:00:00	2024-11-08T02:00:00	6	Velocidad del viento	0
46406	7	Sololá	717	San Juan la Laguna	12	San Juan la Laguna	4	Abril	2023-06-04T00:00:00	2024-11-08T02:00:00	7	Dirección del viento	0
46407	7	Sololá	717	San Juan la Laguna	12	San Juan la Laguna	4	Abril	2023-06-04T00:00:00	2024-11-08T02:00:00	1	Precipitación	0
46408	7	Sololá	717	San Juan la Laguna	12	San Juan la Laguna	4	Abril	2023-06-04T00:00:00	2024-11-08T02:00:00	8	Radiación solar	0
46409	7	Sololá	717	San Juan la Laguna	12	San Juan la Laguna	4	Abril	2023-06-04T00:00:00	2024-11-08T03:00:00	2	Temperatura media	17.7
46410	7	Sololá	717	San Juan la Laguna	12	San Juan la Laguna	4	Abril	2023-06-04T00:00:00	2024-11-08T03:00:00	4	Temperatura máxima	18.3
46411	7	Sololá	717	San Juan la Laguna	12	San Juan la Laguna	4	Abril	2023-06-04T00:00:00	2024-11-08T03:00:00	3	Temperatura mínima	17.6
46412	7	Sololá	717	San Juan la Laguna	12	San Juan la Laguna	4	Abril	2023-06-04T00:00:00	2024-11-08T03:00:00	5	Humedad	84
46413	7	Sololá	717	San Juan la Laguna	12	San Juan la Laguna	4	Abril	2023-06-04T00:00:00	2024-11-08T03:00:00	6	Velocidad del viento	1.6
46414	7	Sololá	717	San Juan la Laguna	12	San Juan la Laguna	4	Abril	2023-06-04T00:00:00	2024-11-08T03:00:00	7	Dirección del viento	1.61
46415	7	Sololá	717	San Juan la Laguna	12	San Juan la Laguna	4	Abril	2023-06-04T00:00:00	2024-11-08T03:00:00	1	Precipitación	0
46416	7	Sololá	717	San Juan la Laguna	12	San Juan la Laguna	4	Abril	2023-06-04T00:00:00	2024-11-08T03:00:00	8	Radiación solar	0
46417	7	Sololá	717	San Juan la Laguna	12	San Juan la Laguna	4	Abril	2023-06-04T00:00:00	2024-11-08T04:00:00	2	Temperatura media	17.4
46418	7	Sololá	717	San Juan la Laguna	12	San Juan la Laguna	4	Abril	2023-06-04T00:00:00	2024-11-08T04:00:00	4	Temperatura máxima	17.8
46419	7	Sololá	717	San Juan la Laguna	12	San Juan la Laguna	4	Abril	2023-06-04T00:00:00	2024-11-08T04:00:00	3	Temperatura mínima	17.4
46420	7	Sololá	717	San Juan la Laguna	12	San Juan la Laguna	4	Abril	2023-06-04T00:00:00	2024-11-08T04:00:00	5	Humedad	85
46421	7	Sololá	717	San Juan la Laguna	12	San Juan la Laguna	4	Abril	2023-06-04T00:00:00	2024-11-08T04:00:00	6	Velocidad del viento	1.6
46422	7	Sololá	717	San Juan la Laguna	12	San Juan la Laguna	4	Abril	2023-06-04T00:00:00	2024-11-08T04:00:00	7	Dirección del viento	1.61
46423	7	Sololá	717	San Juan la Laguna	12	San Juan la Laguna	4	Abril	2023-06-04T00:00:00	2024-11-08T04:00:00	1	Precipitación	0
46424	7	Sololá	717	San Juan la Laguna	12	San Juan la Laguna	4	Abril	2023-06-04T00:00:00	2024-11-08T04:00:00	8	Radiación solar	0
46425	7	Sololá	717	San Juan la Laguna	12	San Juan la Laguna	4	Abril	2023-06-04T00:00:00	2024-11-08T05:00:00	2	Temperatura media	16.8
46426	7	Sololá	717	San Juan la Laguna	12	San Juan la Laguna	4	Abril	2023-06-04T00:00:00	2024-11-08T05:00:00	4	Temperatura máxima	17.4
46427	7	Sololá	717	San Juan la Laguna	12	San Juan la Laguna	4	Abril	2023-06-04T00:00:00	2024-11-08T05:00:00	3	Temperatura mínima	16.8
46428	7	Sololá	717	San Juan la Laguna	12	San Juan la Laguna	4	Abril	2023-06-04T00:00:00	2024-11-08T05:00:00	5	Humedad	86
46429	7	Sololá	717	San Juan la Laguna	12	San Juan la Laguna	4	Abril	2023-06-04T00:00:00	2024-11-08T05:00:00	6	Velocidad del viento	1.6
46430	7	Sololá	717	San Juan la Laguna	12	San Juan la Laguna	4	Abril	2023-06-04T00:00:00	2024-11-08T05:00:00	7	Dirección del viento	1.61
46431	7	Sololá	717	San Juan la Laguna	12	San Juan la Laguna	4	Abril	2023-06-04T00:00:00	2024-11-08T05:00:00	1	Precipitación	0
46432	7	Sololá	717	San Juan la Laguna	12	San Juan la Laguna	4	Abril	2023-06-04T00:00:00	2024-11-08T05:00:00	8	Radiación solar	0
46433	7	Sololá	717	San Juan la Laguna	12	San Juan la Laguna	4	Abril	2023-06-04T00:00:00	2024-11-08T06:00:00	2	Temperatura media	16.2
46434	7	Sololá	717	San Juan la Laguna	12	San Juan la Laguna	4	Abril	2023-06-04T00:00:00	2024-11-08T06:00:00	4	Temperatura máxima	16.8
46435	7	Sololá	717	San Juan la Laguna	12	San Juan la Laguna	4	Abril	2023-06-04T00:00:00	2024-11-08T06:00:00	3	Temperatura mínima	16.2
46436	7	Sololá	717	San Juan la Laguna	12	San Juan la Laguna	4	Abril	2023-06-04T00:00:00	2024-11-08T06:00:00	5	Humedad	86
46437	7	Sololá	717	San Juan la Laguna	12	San Juan la Laguna	4	Abril	2023-06-04T00:00:00	2024-11-08T06:00:00	6	Velocidad del viento	1.6
46438	7	Sololá	717	San Juan la Laguna	12	San Juan la Laguna	4	Abril	2023-06-04T00:00:00	2024-11-08T06:00:00	7	Dirección del viento	1.61
46439	7	Sololá	717	San Juan la Laguna	12	San Juan la Laguna	4	Abril	2023-06-04T00:00:00	2024-11-08T06:00:00	1	Precipitación	0
46440	7	Sololá	717	San Juan la Laguna	12	San Juan la Laguna	4	Abril	2023-06-04T00:00:00	2024-11-08T06:00:00	8	Radiación solar	0
46441	7	Sololá	717	San Juan la Laguna	12	San Juan la Laguna	4	Abril	2023-06-04T00:00:00	2024-11-08T07:00:00	2	Temperatura media	16.3
46442	7	Sololá	717	San Juan la Laguna	12	San Juan la Laguna	4	Abril	2023-06-04T00:00:00	2024-11-08T07:00:00	4	Temperatura máxima	16.6
46443	7	Sololá	717	San Juan la Laguna	12	San Juan la Laguna	4	Abril	2023-06-04T00:00:00	2024-11-08T07:00:00	3	Temperatura mínima	16.2
46444	7	Sololá	717	San Juan la Laguna	12	San Juan la Laguna	4	Abril	2023-06-04T00:00:00	2024-11-08T07:00:00	5	Humedad	86
46445	7	Sololá	717	San Juan la Laguna	12	San Juan la Laguna	4	Abril	2023-06-04T00:00:00	2024-11-08T07:00:00	6	Velocidad del viento	1.6
46446	7	Sololá	717	San Juan la Laguna	12	San Juan la Laguna	4	Abril	2023-06-04T00:00:00	2024-11-08T07:00:00	7	Dirección del viento	1.61
46447	7	Sololá	717	San Juan la Laguna	12	San Juan la Laguna	4	Abril	2023-06-04T00:00:00	2024-11-08T07:00:00	1	Precipitación	0
46448	7	Sololá	717	San Juan la Laguna	12	San Juan la Laguna	4	Abril	2023-06-04T00:00:00	2024-11-08T07:00:00	8	Radiación solar	15
46449	7	Sololá	717	San Juan la Laguna	12	San Juan la Laguna	4	Abril	2023-06-04T00:00:00	2024-11-08T08:00:00	2	Temperatura media	19.9
46450	7	Sololá	717	San Juan la Laguna	12	San Juan la Laguna	4	Abril	2023-06-04T00:00:00	2024-11-08T08:00:00	4	Temperatura máxima	19.9
46451	7	Sololá	717	San Juan la Laguna	12	San Juan la Laguna	4	Abril	2023-06-04T00:00:00	2024-11-08T08:00:00	3	Temperatura mínima	16.2
46452	7	Sololá	717	San Juan la Laguna	12	San Juan la Laguna	4	Abril	2023-06-04T00:00:00	2024-11-08T08:00:00	5	Humedad	79
46453	7	Sololá	717	San Juan la Laguna	12	San Juan la Laguna	4	Abril	2023-06-04T00:00:00	2024-11-08T08:00:00	6	Velocidad del viento	0
46454	7	Sololá	717	San Juan la Laguna	12	San Juan la Laguna	4	Abril	2023-06-04T00:00:00	2024-11-08T08:00:00	7	Dirección del viento	0
46455	7	Sololá	717	San Juan la Laguna	12	San Juan la Laguna	4	Abril	2023-06-04T00:00:00	2024-11-08T08:00:00	1	Precipitación	0
46456	7	Sololá	717	San Juan la Laguna	12	San Juan la Laguna	4	Abril	2023-06-04T00:00:00	2024-11-08T08:00:00	8	Radiación solar	175
46457	7	Sololá	717	San Juan la Laguna	12	San Juan la Laguna	4	Abril	2023-06-04T00:00:00	2024-11-08T09:00:00	2	Temperatura media	21.2
46458	7	Sololá	717	San Juan la Laguna	12	San Juan la Laguna	4	Abril	2023-06-04T00:00:00	2024-11-08T09:00:00	4	Temperatura máxima	21.2
46459	7	Sololá	717	San Juan la Laguna	12	San Juan la Laguna	4	Abril	2023-06-04T00:00:00	2024-11-08T09:00:00	3	Temperatura mínima	19.9
46460	7	Sololá	717	San Juan la Laguna	12	San Juan la Laguna	4	Abril	2023-06-04T00:00:00	2024-11-08T09:00:00	5	Humedad	75
46461	7	Sololá	717	San Juan la Laguna	12	San Juan la Laguna	4	Abril	2023-06-04T00:00:00	2024-11-08T09:00:00	6	Velocidad del viento	1.6
46462	7	Sololá	717	San Juan la Laguna	12	San Juan la Laguna	4	Abril	2023-06-04T00:00:00	2024-11-08T09:00:00	7	Dirección del viento	1.61
46463	7	Sololá	717	San Juan la Laguna	12	San Juan la Laguna	4	Abril	2023-06-04T00:00:00	2024-11-08T09:00:00	1	Precipitación	0
46464	7	Sololá	717	San Juan la Laguna	12	San Juan la Laguna	4	Abril	2023-06-04T00:00:00	2024-11-08T09:00:00	8	Radiación solar	478
46465	7	Sololá	717	San Juan la Laguna	12	San Juan la Laguna	4	Abril	2023-06-04T00:00:00	2024-11-08T10:00:00	2	Temperatura media	22.3
46466	7	Sololá	717	San Juan la Laguna	12	San Juan la Laguna	4	Abril	2023-06-04T00:00:00	2024-11-08T10:00:00	4	Temperatura máxima	22.6
46467	7	Sololá	717	San Juan la Laguna	12	San Juan la Laguna	4	Abril	2023-06-04T00:00:00	2024-11-08T10:00:00	3	Temperatura mínima	21.1
46468	7	Sololá	717	San Juan la Laguna	12	San Juan la Laguna	4	Abril	2023-06-04T00:00:00	2024-11-08T10:00:00	5	Humedad	69
46469	7	Sololá	717	San Juan la Laguna	12	San Juan la Laguna	4	Abril	2023-06-04T00:00:00	2024-11-08T10:00:00	6	Velocidad del viento	1.6
46470	7	Sololá	717	San Juan la Laguna	12	San Juan la Laguna	4	Abril	2023-06-04T00:00:00	2024-11-08T10:00:00	7	Dirección del viento	1.61
46471	7	Sololá	717	San Juan la Laguna	12	San Juan la Laguna	4	Abril	2023-06-04T00:00:00	2024-11-08T10:00:00	1	Precipitación	0
46472	7	Sololá	717	San Juan la Laguna	12	San Juan la Laguna	4	Abril	2023-06-04T00:00:00	2024-11-08T10:00:00	8	Radiación solar	662
46473	7	Sololá	717	San Juan la Laguna	12	San Juan la Laguna	4	Abril	2023-06-04T00:00:00	2024-11-08T11:00:00	2	Temperatura media	22.7
46474	7	Sololá	717	San Juan la Laguna	12	San Juan la Laguna	4	Abril	2023-06-04T00:00:00	2024-11-08T11:00:00	4	Temperatura máxima	22.9
46475	7	Sololá	717	San Juan la Laguna	12	San Juan la Laguna	4	Abril	2023-06-04T00:00:00	2024-11-08T11:00:00	3	Temperatura mínima	22.1
46476	7	Sololá	717	San Juan la Laguna	12	San Juan la Laguna	4	Abril	2023-06-04T00:00:00	2024-11-08T11:00:00	5	Humedad	67
46477	7	Sololá	717	San Juan la Laguna	12	San Juan la Laguna	4	Abril	2023-06-04T00:00:00	2024-11-08T11:00:00	6	Velocidad del viento	1.6
46478	7	Sololá	717	San Juan la Laguna	12	San Juan la Laguna	4	Abril	2023-06-04T00:00:00	2024-11-08T11:00:00	7	Dirección del viento	1.61
46479	7	Sololá	717	San Juan la Laguna	12	San Juan la Laguna	4	Abril	2023-06-04T00:00:00	2024-11-08T11:00:00	1	Precipitación	0
46480	7	Sololá	717	San Juan la Laguna	12	San Juan la Laguna	4	Abril	2023-06-04T00:00:00	2024-11-08T11:00:00	8	Radiación solar	920
46481	7	Sololá	717	San Juan la Laguna	12	San Juan la Laguna	4	Abril	2023-06-04T00:00:00	2024-11-08T12:00:00	2	Temperatura media	23
46482	7	Sololá	717	San Juan la Laguna	12	San Juan la Laguna	4	Abril	2023-06-04T00:00:00	2024-11-08T12:00:00	4	Temperatura máxima	23.3
46483	7	Sololá	717	San Juan la Laguna	12	San Juan la Laguna	4	Abril	2023-06-04T00:00:00	2024-11-08T12:00:00	3	Temperatura mínima	22.5
46484	7	Sololá	717	San Juan la Laguna	12	San Juan la Laguna	4	Abril	2023-06-04T00:00:00	2024-11-08T12:00:00	5	Humedad	68
46485	7	Sololá	717	San Juan la Laguna	12	San Juan la Laguna	4	Abril	2023-06-04T00:00:00	2024-11-08T12:00:00	6	Velocidad del viento	1.6
46486	7	Sololá	717	San Juan la Laguna	12	San Juan la Laguna	4	Abril	2023-06-04T00:00:00	2024-11-08T12:00:00	7	Dirección del viento	1.61
46487	7	Sololá	717	San Juan la Laguna	12	San Juan la Laguna	4	Abril	2023-06-04T00:00:00	2024-11-08T12:00:00	1	Precipitación	0
46488	7	Sololá	717	San Juan la Laguna	12	San Juan la Laguna	4	Abril	2023-06-04T00:00:00	2024-11-08T12:00:00	8	Radiación solar	849
46489	7	Sololá	717	San Juan la Laguna	12	San Juan la Laguna	4	Abril	2023-06-04T00:00:00	2024-11-08T13:00:00	2	Temperatura media	22.2
46490	7	Sololá	717	San Juan la Laguna	12	San Juan la Laguna	4	Abril	2023-06-04T00:00:00	2024-11-08T13:00:00	4	Temperatura máxima	23.1
46491	7	Sololá	717	San Juan la Laguna	12	San Juan la Laguna	4	Abril	2023-06-04T00:00:00	2024-11-08T13:00:00	3	Temperatura mínima	22.2
46492	7	Sololá	717	San Juan la Laguna	12	San Juan la Laguna	4	Abril	2023-06-04T00:00:00	2024-11-08T13:00:00	5	Humedad	74
46493	7	Sololá	717	San Juan la Laguna	12	San Juan la Laguna	4	Abril	2023-06-04T00:00:00	2024-11-08T13:00:00	6	Velocidad del viento	4.8
46494	7	Sololá	717	San Juan la Laguna	12	San Juan la Laguna	4	Abril	2023-06-04T00:00:00	2024-11-08T13:00:00	7	Dirección del viento	4.83
46495	7	Sololá	717	San Juan la Laguna	12	San Juan la Laguna	4	Abril	2023-06-04T00:00:00	2024-11-08T13:00:00	1	Precipitación	0
46496	7	Sololá	717	San Juan la Laguna	12	San Juan la Laguna	4	Abril	2023-06-04T00:00:00	2024-11-08T13:00:00	8	Radiación solar	502
46497	7	Sololá	717	San Juan la Laguna	12	San Juan la Laguna	4	Abril	2023-06-04T00:00:00	2024-11-08T14:00:00	2	Temperatura media	21.7
46498	7	Sololá	717	San Juan la Laguna	12	San Juan la Laguna	4	Abril	2023-06-04T00:00:00	2024-11-08T14:00:00	4	Temperatura máxima	22.3
46499	7	Sololá	717	San Juan la Laguna	12	San Juan la Laguna	4	Abril	2023-06-04T00:00:00	2024-11-08T14:00:00	3	Temperatura mínima	21.2
46500	7	Sololá	717	San Juan la Laguna	12	San Juan la Laguna	4	Abril	2023-06-04T00:00:00	2024-11-08T14:00:00	5	Humedad	76
46501	7	Sololá	717	San Juan la Laguna	12	San Juan la Laguna	4	Abril	2023-06-04T00:00:00	2024-11-08T14:00:00	6	Velocidad del viento	4.8
46502	7	Sololá	717	San Juan la Laguna	12	San Juan la Laguna	4	Abril	2023-06-04T00:00:00	2024-11-08T14:00:00	7	Dirección del viento	4.83
46503	7	Sololá	717	San Juan la Laguna	12	San Juan la Laguna	4	Abril	2023-06-04T00:00:00	2024-11-08T14:00:00	1	Precipitación	0
46504	7	Sololá	717	San Juan la Laguna	12	San Juan la Laguna	4	Abril	2023-06-04T00:00:00	2024-11-08T14:00:00	8	Radiación solar	607
46505	7	Sololá	717	San Juan la Laguna	12	San Juan la Laguna	4	Abril	2023-06-04T00:00:00	2024-11-08T15:00:00	2	Temperatura media	21.9
46506	7	Sololá	717	San Juan la Laguna	12	San Juan la Laguna	4	Abril	2023-06-04T00:00:00	2024-11-08T15:00:00	4	Temperatura máxima	22.1
46507	7	Sololá	717	San Juan la Laguna	12	San Juan la Laguna	4	Abril	2023-06-04T00:00:00	2024-11-08T15:00:00	3	Temperatura mínima	21.3
46508	7	Sololá	717	San Juan la Laguna	12	San Juan la Laguna	4	Abril	2023-06-04T00:00:00	2024-11-08T15:00:00	5	Humedad	75
46509	7	Sololá	717	San Juan la Laguna	12	San Juan la Laguna	4	Abril	2023-06-04T00:00:00	2024-11-08T15:00:00	6	Velocidad del viento	4.8
46510	7	Sololá	717	San Juan la Laguna	12	San Juan la Laguna	4	Abril	2023-06-04T00:00:00	2024-11-08T15:00:00	7	Dirección del viento	4.83
46511	7	Sololá	717	San Juan la Laguna	12	San Juan la Laguna	4	Abril	2023-06-04T00:00:00	2024-11-08T15:00:00	1	Precipitación	0
46512	7	Sololá	717	San Juan la Laguna	12	San Juan la Laguna	4	Abril	2023-06-04T00:00:00	2024-11-08T15:00:00	8	Radiación solar	459
46513	7	Sololá	717	San Juan la Laguna	12	San Juan la Laguna	4	Abril	2023-06-04T00:00:00	2024-11-08T16:00:00	2	Temperatura media	21.6
46514	7	Sololá	717	San Juan la Laguna	12	San Juan la Laguna	4	Abril	2023-06-04T00:00:00	2024-11-08T16:00:00	4	Temperatura máxima	22.8
46515	7	Sololá	717	San Juan la Laguna	12	San Juan la Laguna	4	Abril	2023-06-04T00:00:00	2024-11-08T16:00:00	3	Temperatura mínima	21.6
46516	7	Sololá	717	San Juan la Laguna	12	San Juan la Laguna	4	Abril	2023-06-04T00:00:00	2024-11-08T16:00:00	5	Humedad	77
46517	7	Sololá	717	San Juan la Laguna	12	San Juan la Laguna	4	Abril	2023-06-04T00:00:00	2024-11-08T16:00:00	6	Velocidad del viento	1.6
46518	7	Sololá	717	San Juan la Laguna	12	San Juan la Laguna	4	Abril	2023-06-04T00:00:00	2024-11-08T16:00:00	7	Dirección del viento	1.61
46519	7	Sololá	717	San Juan la Laguna	12	San Juan la Laguna	4	Abril	2023-06-04T00:00:00	2024-11-08T16:00:00	1	Precipitación	0
46520	7	Sololá	717	San Juan la Laguna	12	San Juan la Laguna	4	Abril	2023-06-04T00:00:00	2024-11-08T16:00:00	8	Radiación solar	329
46521	7	Sololá	717	San Juan la Laguna	12	San Juan la Laguna	4	Abril	2023-06-04T00:00:00	2024-11-08T17:00:00	2	Temperatura media	21.1
46522	7	Sololá	717	San Juan la Laguna	12	San Juan la Laguna	4	Abril	2023-06-04T00:00:00	2024-11-08T17:00:00	4	Temperatura máxima	21.6
46523	7	Sololá	717	San Juan la Laguna	12	San Juan la Laguna	4	Abril	2023-06-04T00:00:00	2024-11-08T17:00:00	3	Temperatura mínima	20.9
46524	7	Sololá	717	San Juan la Laguna	12	San Juan la Laguna	4	Abril	2023-06-04T00:00:00	2024-11-08T17:00:00	5	Humedad	79
46525	7	Sololá	717	San Juan la Laguna	12	San Juan la Laguna	4	Abril	2023-06-04T00:00:00	2024-11-08T17:00:00	6	Velocidad del viento	0
46526	7	Sololá	717	San Juan la Laguna	12	San Juan la Laguna	4	Abril	2023-06-04T00:00:00	2024-11-08T17:00:00	7	Dirección del viento	0
46527	7	Sololá	717	San Juan la Laguna	12	San Juan la Laguna	4	Abril	2023-06-04T00:00:00	2024-11-08T17:00:00	1	Precipitación	0
46528	7	Sololá	717	San Juan la Laguna	12	San Juan la Laguna	4	Abril	2023-06-04T00:00:00	2024-11-08T17:00:00	8	Radiación solar	192
46529	7	Sololá	717	San Juan la Laguna	12	San Juan la Laguna	4	Abril	2023-06-04T00:00:00	2024-11-08T18:00:00	2	Temperatura media	20.1
46530	7	Sololá	717	San Juan la Laguna	12	San Juan la Laguna	4	Abril	2023-06-04T00:00:00	2024-11-08T18:00:00	4	Temperatura máxima	21.1
46531	7	Sololá	717	San Juan la Laguna	12	San Juan la Laguna	4	Abril	2023-06-04T00:00:00	2024-11-08T18:00:00	3	Temperatura mínima	20.1
46532	7	Sololá	717	San Juan la Laguna	12	San Juan la Laguna	4	Abril	2023-06-04T00:00:00	2024-11-08T18:00:00	5	Humedad	82
46533	7	Sololá	717	San Juan la Laguna	12	San Juan la Laguna	4	Abril	2023-06-04T00:00:00	2024-11-08T18:00:00	6	Velocidad del viento	0
46534	7	Sololá	717	San Juan la Laguna	12	San Juan la Laguna	4	Abril	2023-06-04T00:00:00	2024-11-08T18:00:00	7	Dirección del viento	0
46535	7	Sololá	717	San Juan la Laguna	12	San Juan la Laguna	4	Abril	2023-06-04T00:00:00	2024-11-08T18:00:00	1	Precipitación	0
46536	7	Sololá	717	San Juan la Laguna	12	San Juan la Laguna	4	Abril	2023-06-04T00:00:00	2024-11-08T18:00:00	8	Radiación solar	34
46537	7	Sololá	717	San Juan la Laguna	12	San Juan la Laguna	4	Abril	2023-06-04T00:00:00	2024-11-08T19:00:00	2	Temperatura media	19.7
46538	7	Sololá	717	San Juan la Laguna	12	San Juan la Laguna	4	Abril	2023-06-04T00:00:00	2024-11-08T19:00:00	4	Temperatura máxima	20.1
46539	7	Sololá	717	San Juan la Laguna	12	San Juan la Laguna	4	Abril	2023-06-04T00:00:00	2024-11-08T19:00:00	3	Temperatura mínima	19.7
46540	7	Sololá	717	San Juan la Laguna	12	San Juan la Laguna	4	Abril	2023-06-04T00:00:00	2024-11-08T19:00:00	5	Humedad	82
46541	7	Sololá	717	San Juan la Laguna	12	San Juan la Laguna	4	Abril	2023-06-04T00:00:00	2024-11-08T19:00:00	6	Velocidad del viento	0
46542	7	Sololá	717	San Juan la Laguna	12	San Juan la Laguna	4	Abril	2023-06-04T00:00:00	2024-11-08T19:00:00	7	Dirección del viento	0
46543	7	Sololá	717	San Juan la Laguna	12	San Juan la Laguna	4	Abril	2023-06-04T00:00:00	2024-11-08T19:00:00	1	Precipitación	0
46544	7	Sololá	717	San Juan la Laguna	12	San Juan la Laguna	4	Abril	2023-06-04T00:00:00	2024-11-08T19:00:00	8	Radiación solar	0
46545	7	Sololá	717	San Juan la Laguna	12	San Juan la Laguna	4	Abril	2023-06-04T00:00:00	2024-11-08T20:00:00	2	Temperatura media	19.7
46546	7	Sololá	717	San Juan la Laguna	12	San Juan la Laguna	4	Abril	2023-06-04T00:00:00	2024-11-08T20:00:00	4	Temperatura máxima	19.8
46547	7	Sololá	717	San Juan la Laguna	12	San Juan la Laguna	4	Abril	2023-06-04T00:00:00	2024-11-08T20:00:00	3	Temperatura mínima	19.7
46548	7	Sololá	717	San Juan la Laguna	12	San Juan la Laguna	4	Abril	2023-06-04T00:00:00	2024-11-08T20:00:00	5	Humedad	84
46549	7	Sololá	717	San Juan la Laguna	12	San Juan la Laguna	4	Abril	2023-06-04T00:00:00	2024-11-08T20:00:00	6	Velocidad del viento	0
46550	7	Sololá	717	San Juan la Laguna	12	San Juan la Laguna	4	Abril	2023-06-04T00:00:00	2024-11-08T20:00:00	7	Dirección del viento	0
46551	7	Sololá	717	San Juan la Laguna	12	San Juan la Laguna	4	Abril	2023-06-04T00:00:00	2024-11-08T20:00:00	1	Precipitación	0
46552	7	Sololá	717	San Juan la Laguna	12	San Juan la Laguna	4	Abril	2023-06-04T00:00:00	2024-11-08T20:00:00	8	Radiación solar	0
46553	7	Sololá	717	San Juan la Laguna	12	San Juan la Laguna	4	Abril	2023-06-04T00:00:00	2024-11-08T21:00:00	2	Temperatura media	19.2
46554	7	Sololá	717	San Juan la Laguna	12	San Juan la Laguna	4	Abril	2023-06-04T00:00:00	2024-11-08T21:00:00	4	Temperatura máxima	19.7
46555	7	Sololá	717	San Juan la Laguna	12	San Juan la Laguna	4	Abril	2023-06-04T00:00:00	2024-11-08T21:00:00	3	Temperatura mínima	19.2
46556	7	Sololá	717	San Juan la Laguna	12	San Juan la Laguna	4	Abril	2023-06-04T00:00:00	2024-11-08T21:00:00	5	Humedad	84
46557	7	Sololá	717	San Juan la Laguna	12	San Juan la Laguna	4	Abril	2023-06-04T00:00:00	2024-11-08T21:00:00	6	Velocidad del viento	0
46558	7	Sololá	717	San Juan la Laguna	12	San Juan la Laguna	4	Abril	2023-06-04T00:00:00	2024-11-08T21:00:00	7	Dirección del viento	0
46559	7	Sololá	717	San Juan la Laguna	12	San Juan la Laguna	4	Abril	2023-06-04T00:00:00	2024-11-08T21:00:00	1	Precipitación	0
46560	7	Sololá	717	San Juan la Laguna	12	San Juan la Laguna	4	Abril	2023-06-04T00:00:00	2024-11-08T21:00:00	8	Radiación solar	0
46561	7	Sololá	717	San Juan la Laguna	12	San Juan la Laguna	4	Abril	2023-06-04T00:00:00	2024-11-08T22:00:00	2	Temperatura media	17.9
46562	7	Sololá	717	San Juan la Laguna	12	San Juan la Laguna	4	Abril	2023-06-04T00:00:00	2024-11-08T22:00:00	4	Temperatura máxima	19.2
46563	7	Sololá	717	San Juan la Laguna	12	San Juan la Laguna	4	Abril	2023-06-04T00:00:00	2024-11-08T22:00:00	3	Temperatura mínima	17.9
46564	7	Sololá	717	San Juan la Laguna	12	San Juan la Laguna	4	Abril	2023-06-04T00:00:00	2024-11-08T22:00:00	5	Humedad	88
46565	7	Sololá	717	San Juan la Laguna	12	San Juan la Laguna	4	Abril	2023-06-04T00:00:00	2024-11-08T22:00:00	6	Velocidad del viento	0
46566	7	Sololá	717	San Juan la Laguna	12	San Juan la Laguna	4	Abril	2023-06-04T00:00:00	2024-11-08T22:00:00	7	Dirección del viento	0
46567	7	Sololá	717	San Juan la Laguna	12	San Juan la Laguna	4	Abril	2023-06-04T00:00:00	2024-11-08T22:00:00	1	Precipitación	0
46568	7	Sololá	717	San Juan la Laguna	12	San Juan la Laguna	4	Abril	2023-06-04T00:00:00	2024-11-08T22:00:00	8	Radiación solar	0
46569	7	Sololá	717	San Juan la Laguna	12	San Juan la Laguna	4	Abril	2023-06-04T00:00:00	2024-11-08T23:00:00	2	Temperatura media	17.7
46570	7	Sololá	717	San Juan la Laguna	12	San Juan la Laguna	4	Abril	2023-06-04T00:00:00	2024-11-08T23:00:00	4	Temperatura máxima	17.9
46571	7	Sololá	717	San Juan la Laguna	12	San Juan la Laguna	4	Abril	2023-06-04T00:00:00	2024-11-08T23:00:00	3	Temperatura mínima	17.4
46572	7	Sololá	717	San Juan la Laguna	12	San Juan la Laguna	4	Abril	2023-06-04T00:00:00	2024-11-08T23:00:00	5	Humedad	85
46573	7	Sololá	717	San Juan la Laguna	12	San Juan la Laguna	4	Abril	2023-06-04T00:00:00	2024-11-08T23:00:00	6	Velocidad del viento	1.6
46574	7	Sololá	717	San Juan la Laguna	12	San Juan la Laguna	4	Abril	2023-06-04T00:00:00	2024-11-08T23:00:00	7	Dirección del viento	1.61
46575	7	Sololá	717	San Juan la Laguna	12	San Juan la Laguna	4	Abril	2023-06-04T00:00:00	2024-11-08T23:00:00	1	Precipitación	0
46576	7	Sololá	717	San Juan la Laguna	12	San Juan la Laguna	4	Abril	2023-06-04T00:00:00	2024-11-08T23:00:00	8	Radiación solar	0
46577	7	Sololá	717	San Juan la Laguna	12	San Juan la Laguna	4	Abril	2023-07-04T00:00:00	2024-11-08T00:00:00	2	Temperatura media	16.6
46578	7	Sololá	717	San Juan la Laguna	12	San Juan la Laguna	4	Abril	2023-07-04T00:00:00	2024-11-08T00:00:00	4	Temperatura máxima	17.7
46579	7	Sololá	717	San Juan la Laguna	12	San Juan la Laguna	4	Abril	2023-07-04T00:00:00	2024-11-08T00:00:00	3	Temperatura mínima	16.4
46580	7	Sololá	717	San Juan la Laguna	12	San Juan la Laguna	4	Abril	2023-07-04T00:00:00	2024-11-08T00:00:00	5	Humedad	86
46581	7	Sololá	717	San Juan la Laguna	12	San Juan la Laguna	4	Abril	2023-07-04T00:00:00	2024-11-08T00:00:00	6	Velocidad del viento	1.6
46582	7	Sololá	717	San Juan la Laguna	12	San Juan la Laguna	4	Abril	2023-07-04T00:00:00	2024-11-08T00:00:00	7	Dirección del viento	1.61
46583	7	Sololá	717	San Juan la Laguna	12	San Juan la Laguna	4	Abril	2023-07-04T00:00:00	2024-11-08T00:00:00	1	Precipitación	0
46584	7	Sololá	717	San Juan la Laguna	12	San Juan la Laguna	4	Abril	2023-07-04T00:00:00	2024-11-08T00:00:00	8	Radiación solar	0
46585	7	Sololá	717	San Juan la Laguna	12	San Juan la Laguna	4	Abril	2023-07-04T00:00:00	2024-11-08T01:00:00	2	Temperatura media	16.6
46586	7	Sololá	717	San Juan la Laguna	12	San Juan la Laguna	4	Abril	2023-07-04T00:00:00	2024-11-08T01:00:00	4	Temperatura máxima	17.2
46587	7	Sololá	717	San Juan la Laguna	12	San Juan la Laguna	4	Abril	2023-07-04T00:00:00	2024-11-08T01:00:00	3	Temperatura mínima	16.4
46588	7	Sololá	717	San Juan la Laguna	12	San Juan la Laguna	4	Abril	2023-07-04T00:00:00	2024-11-08T01:00:00	5	Humedad	86
46589	7	Sololá	717	San Juan la Laguna	12	San Juan la Laguna	4	Abril	2023-07-04T00:00:00	2024-11-08T01:00:00	6	Velocidad del viento	1.6
46590	7	Sololá	717	San Juan la Laguna	12	San Juan la Laguna	4	Abril	2023-07-04T00:00:00	2024-11-08T01:00:00	7	Dirección del viento	1.61
46591	7	Sololá	717	San Juan la Laguna	12	San Juan la Laguna	4	Abril	2023-07-04T00:00:00	2024-11-08T01:00:00	1	Precipitación	0
46592	7	Sololá	717	San Juan la Laguna	12	San Juan la Laguna	4	Abril	2023-07-04T00:00:00	2024-11-08T01:00:00	8	Radiación solar	0
46593	7	Sololá	717	San Juan la Laguna	12	San Juan la Laguna	4	Abril	2023-07-04T00:00:00	2024-11-08T02:00:00	2	Temperatura media	16.7
46594	7	Sololá	717	San Juan la Laguna	12	San Juan la Laguna	4	Abril	2023-07-04T00:00:00	2024-11-08T02:00:00	4	Temperatura máxima	16.7
46595	7	Sololá	717	San Juan la Laguna	12	San Juan la Laguna	4	Abril	2023-07-04T00:00:00	2024-11-08T02:00:00	3	Temperatura mínima	16.3
46596	7	Sololá	717	San Juan la Laguna	12	San Juan la Laguna	4	Abril	2023-07-04T00:00:00	2024-11-08T02:00:00	5	Humedad	88
46597	7	Sololá	717	San Juan la Laguna	12	San Juan la Laguna	4	Abril	2023-07-04T00:00:00	2024-11-08T02:00:00	6	Velocidad del viento	0
46598	7	Sololá	717	San Juan la Laguna	12	San Juan la Laguna	4	Abril	2023-07-04T00:00:00	2024-11-08T02:00:00	7	Dirección del viento	0
46599	7	Sololá	717	San Juan la Laguna	12	San Juan la Laguna	4	Abril	2023-07-04T00:00:00	2024-11-08T02:00:00	1	Precipitación	0
46600	7	Sololá	717	San Juan la Laguna	12	San Juan la Laguna	4	Abril	2023-07-04T00:00:00	2024-11-08T02:00:00	8	Radiación solar	0
46601	7	Sololá	717	San Juan la Laguna	12	San Juan la Laguna	4	Abril	2023-07-04T00:00:00	2024-11-08T03:00:00	2	Temperatura media	15.6
46602	7	Sololá	717	San Juan la Laguna	12	San Juan la Laguna	4	Abril	2023-07-04T00:00:00	2024-11-08T03:00:00	4	Temperatura máxima	16.7
46603	7	Sololá	717	San Juan la Laguna	12	San Juan la Laguna	4	Abril	2023-07-04T00:00:00	2024-11-08T03:00:00	3	Temperatura mínima	15.6
46604	7	Sololá	717	San Juan la Laguna	12	San Juan la Laguna	4	Abril	2023-07-04T00:00:00	2024-11-08T03:00:00	5	Humedad	88
46605	7	Sololá	717	San Juan la Laguna	12	San Juan la Laguna	4	Abril	2023-07-04T00:00:00	2024-11-08T03:00:00	6	Velocidad del viento	0
46606	7	Sololá	717	San Juan la Laguna	12	San Juan la Laguna	4	Abril	2023-07-04T00:00:00	2024-11-08T03:00:00	7	Dirección del viento	0
46607	7	Sololá	717	San Juan la Laguna	12	San Juan la Laguna	4	Abril	2023-07-04T00:00:00	2024-11-08T03:00:00	1	Precipitación	0
46608	7	Sololá	717	San Juan la Laguna	12	San Juan la Laguna	4	Abril	2023-07-04T00:00:00	2024-11-08T03:00:00	8	Radiación solar	0
46609	7	Sololá	717	San Juan la Laguna	12	San Juan la Laguna	4	Abril	2023-07-04T00:00:00	2024-11-08T04:00:00	2	Temperatura media	15.8
46610	7	Sololá	717	San Juan la Laguna	12	San Juan la Laguna	4	Abril	2023-07-04T00:00:00	2024-11-08T04:00:00	4	Temperatura máxima	15.8
46611	7	Sololá	717	San Juan la Laguna	12	San Juan la Laguna	4	Abril	2023-07-04T00:00:00	2024-11-08T04:00:00	3	Temperatura mínima	15.5
46612	7	Sololá	717	San Juan la Laguna	12	San Juan la Laguna	4	Abril	2023-07-04T00:00:00	2024-11-08T04:00:00	5	Humedad	88
46613	7	Sololá	717	San Juan la Laguna	12	San Juan la Laguna	4	Abril	2023-07-04T00:00:00	2024-11-08T04:00:00	6	Velocidad del viento	1.6
46614	7	Sololá	717	San Juan la Laguna	12	San Juan la Laguna	4	Abril	2023-07-04T00:00:00	2024-11-08T04:00:00	7	Dirección del viento	1.61
46615	7	Sololá	717	San Juan la Laguna	12	San Juan la Laguna	4	Abril	2023-07-04T00:00:00	2024-11-08T04:00:00	1	Precipitación	0
46616	7	Sololá	717	San Juan la Laguna	12	San Juan la Laguna	4	Abril	2023-07-04T00:00:00	2024-11-08T04:00:00	8	Radiación solar	0
46617	7	Sololá	717	San Juan la Laguna	12	San Juan la Laguna	4	Abril	2023-07-04T00:00:00	2024-11-08T05:00:00	2	Temperatura media	15.6
46618	7	Sololá	717	San Juan la Laguna	12	San Juan la Laguna	4	Abril	2023-07-04T00:00:00	2024-11-08T05:00:00	4	Temperatura máxima	15.9
46619	7	Sololá	717	San Juan la Laguna	12	San Juan la Laguna	4	Abril	2023-07-04T00:00:00	2024-11-08T05:00:00	3	Temperatura mínima	15.6
46620	7	Sololá	717	San Juan la Laguna	12	San Juan la Laguna	4	Abril	2023-07-04T00:00:00	2024-11-08T05:00:00	5	Humedad	86
46621	7	Sololá	717	San Juan la Laguna	12	San Juan la Laguna	4	Abril	2023-07-04T00:00:00	2024-11-08T05:00:00	6	Velocidad del viento	0
46622	7	Sololá	717	San Juan la Laguna	12	San Juan la Laguna	4	Abril	2023-07-04T00:00:00	2024-11-08T05:00:00	7	Dirección del viento	0
46623	7	Sololá	717	San Juan la Laguna	12	San Juan la Laguna	4	Abril	2023-07-04T00:00:00	2024-11-08T05:00:00	1	Precipitación	0
46624	7	Sololá	717	San Juan la Laguna	12	San Juan la Laguna	4	Abril	2023-07-04T00:00:00	2024-11-08T05:00:00	8	Radiación solar	0
46625	7	Sololá	717	San Juan la Laguna	12	San Juan la Laguna	4	Abril	2023-07-04T00:00:00	2024-11-08T06:00:00	2	Temperatura media	15.4
46626	7	Sololá	717	San Juan la Laguna	12	San Juan la Laguna	4	Abril	2023-07-04T00:00:00	2024-11-08T06:00:00	4	Temperatura máxima	15.6
46627	7	Sololá	717	San Juan la Laguna	12	San Juan la Laguna	4	Abril	2023-07-04T00:00:00	2024-11-08T06:00:00	3	Temperatura mínima	15.4
46628	7	Sololá	717	San Juan la Laguna	12	San Juan la Laguna	4	Abril	2023-07-04T00:00:00	2024-11-08T06:00:00	5	Humedad	82
46629	7	Sololá	717	San Juan la Laguna	12	San Juan la Laguna	4	Abril	2023-07-04T00:00:00	2024-11-08T06:00:00	6	Velocidad del viento	3.2
46630	7	Sololá	717	San Juan la Laguna	12	San Juan la Laguna	4	Abril	2023-07-04T00:00:00	2024-11-08T06:00:00	7	Dirección del viento	3.22
46631	7	Sololá	717	San Juan la Laguna	12	San Juan la Laguna	4	Abril	2023-07-04T00:00:00	2024-11-08T06:00:00	1	Precipitación	0
46632	7	Sololá	717	San Juan la Laguna	12	San Juan la Laguna	4	Abril	2023-07-04T00:00:00	2024-11-08T06:00:00	8	Radiación solar	0
46633	7	Sololá	717	San Juan la Laguna	12	San Juan la Laguna	4	Abril	2023-07-04T00:00:00	2024-11-08T07:00:00	2	Temperatura media	17.2
46634	7	Sololá	717	San Juan la Laguna	12	San Juan la Laguna	4	Abril	2023-07-04T00:00:00	2024-11-08T07:00:00	4	Temperatura máxima	17.2
46635	7	Sololá	717	San Juan la Laguna	12	San Juan la Laguna	4	Abril	2023-07-04T00:00:00	2024-11-08T07:00:00	3	Temperatura mínima	15.2
46636	7	Sololá	717	San Juan la Laguna	12	San Juan la Laguna	4	Abril	2023-07-04T00:00:00	2024-11-08T07:00:00	5	Humedad	78
46637	7	Sololá	717	San Juan la Laguna	12	San Juan la Laguna	4	Abril	2023-07-04T00:00:00	2024-11-08T07:00:00	6	Velocidad del viento	1.6
46638	7	Sololá	717	San Juan la Laguna	12	San Juan la Laguna	4	Abril	2023-07-04T00:00:00	2024-11-08T07:00:00	7	Dirección del viento	1.61
46639	7	Sololá	717	San Juan la Laguna	12	San Juan la Laguna	4	Abril	2023-07-04T00:00:00	2024-11-08T07:00:00	1	Precipitación	0
46640	7	Sololá	717	San Juan la Laguna	12	San Juan la Laguna	4	Abril	2023-07-04T00:00:00	2024-11-08T07:00:00	8	Radiación solar	71
46641	7	Sololá	717	San Juan la Laguna	12	San Juan la Laguna	4	Abril	2023-07-04T00:00:00	2024-11-08T08:00:00	2	Temperatura media	19.8
46642	7	Sololá	717	San Juan la Laguna	12	San Juan la Laguna	4	Abril	2023-07-04T00:00:00	2024-11-08T08:00:00	4	Temperatura máxima	19.8
46643	7	Sololá	717	San Juan la Laguna	12	San Juan la Laguna	4	Abril	2023-07-04T00:00:00	2024-11-08T08:00:00	3	Temperatura mínima	17.2
46644	7	Sololá	717	San Juan la Laguna	12	San Juan la Laguna	4	Abril	2023-07-04T00:00:00	2024-11-08T08:00:00	5	Humedad	71
46645	7	Sololá	717	San Juan la Laguna	12	San Juan la Laguna	4	Abril	2023-07-04T00:00:00	2024-11-08T08:00:00	6	Velocidad del viento	0
46646	7	Sololá	717	San Juan la Laguna	12	San Juan la Laguna	4	Abril	2023-07-04T00:00:00	2024-11-08T08:00:00	7	Dirección del viento	0
46647	7	Sololá	717	San Juan la Laguna	12	San Juan la Laguna	4	Abril	2023-07-04T00:00:00	2024-11-08T08:00:00	1	Precipitación	0
46648	7	Sololá	717	San Juan la Laguna	12	San Juan la Laguna	4	Abril	2023-07-04T00:00:00	2024-11-08T08:00:00	8	Radiación solar	198
46649	7	Sololá	717	San Juan la Laguna	12	San Juan la Laguna	4	Abril	2023-07-04T00:00:00	2024-11-08T09:00:00	2	Temperatura media	20.7
46650	7	Sololá	717	San Juan la Laguna	12	San Juan la Laguna	4	Abril	2023-07-04T00:00:00	2024-11-08T09:00:00	4	Temperatura máxima	20.9
46651	7	Sololá	717	San Juan la Laguna	12	San Juan la Laguna	4	Abril	2023-07-04T00:00:00	2024-11-08T09:00:00	3	Temperatura mínima	19.8
46652	7	Sololá	717	San Juan la Laguna	12	San Juan la Laguna	4	Abril	2023-07-04T00:00:00	2024-11-08T09:00:00	5	Humedad	70
46653	7	Sololá	717	San Juan la Laguna	12	San Juan la Laguna	4	Abril	2023-07-04T00:00:00	2024-11-08T09:00:00	6	Velocidad del viento	1.6
46654	7	Sololá	717	San Juan la Laguna	12	San Juan la Laguna	4	Abril	2023-07-04T00:00:00	2024-11-08T09:00:00	7	Dirección del viento	1.61
46655	7	Sololá	717	San Juan la Laguna	12	San Juan la Laguna	4	Abril	2023-07-04T00:00:00	2024-11-08T09:00:00	1	Precipitación	0
46656	7	Sololá	717	San Juan la Laguna	12	San Juan la Laguna	4	Abril	2023-07-04T00:00:00	2024-11-08T09:00:00	8	Radiación solar	411
46657	7	Sololá	717	San Juan la Laguna	12	San Juan la Laguna	4	Abril	2023-07-04T00:00:00	2024-11-08T10:00:00	2	Temperatura media	21.6
46658	7	Sololá	717	San Juan la Laguna	12	San Juan la Laguna	4	Abril	2023-07-04T00:00:00	2024-11-08T10:00:00	4	Temperatura máxima	21.8
46659	7	Sololá	717	San Juan la Laguna	12	San Juan la Laguna	4	Abril	2023-07-04T00:00:00	2024-11-08T10:00:00	3	Temperatura mínima	20.6
46660	7	Sololá	717	San Juan la Laguna	12	San Juan la Laguna	4	Abril	2023-07-04T00:00:00	2024-11-08T10:00:00	5	Humedad	60
46661	7	Sololá	717	San Juan la Laguna	12	San Juan la Laguna	4	Abril	2023-07-04T00:00:00	2024-11-08T10:00:00	6	Velocidad del viento	1.6
46662	7	Sololá	717	San Juan la Laguna	12	San Juan la Laguna	4	Abril	2023-07-04T00:00:00	2024-11-08T10:00:00	7	Dirección del viento	1.61
46663	7	Sololá	717	San Juan la Laguna	12	San Juan la Laguna	4	Abril	2023-07-04T00:00:00	2024-11-08T10:00:00	1	Precipitación	0
46664	7	Sololá	717	San Juan la Laguna	12	San Juan la Laguna	4	Abril	2023-07-04T00:00:00	2024-11-08T10:00:00	8	Radiación solar	525
46665	7	Sololá	717	San Juan la Laguna	12	San Juan la Laguna	4	Abril	2023-07-04T00:00:00	2024-11-08T11:00:00	2	Temperatura media	23.6
46666	7	Sololá	717	San Juan la Laguna	12	San Juan la Laguna	4	Abril	2023-07-04T00:00:00	2024-11-08T11:00:00	4	Temperatura máxima	23.9
46667	7	Sololá	717	San Juan la Laguna	12	San Juan la Laguna	4	Abril	2023-07-04T00:00:00	2024-11-08T11:00:00	3	Temperatura mínima	21.6
46668	7	Sololá	717	San Juan la Laguna	12	San Juan la Laguna	4	Abril	2023-07-04T00:00:00	2024-11-08T11:00:00	5	Humedad	55
46669	7	Sololá	717	San Juan la Laguna	12	San Juan la Laguna	4	Abril	2023-07-04T00:00:00	2024-11-08T11:00:00	6	Velocidad del viento	1.6
46670	7	Sololá	717	San Juan la Laguna	12	San Juan la Laguna	4	Abril	2023-07-04T00:00:00	2024-11-08T11:00:00	7	Dirección del viento	1.61
46671	7	Sololá	717	San Juan la Laguna	12	San Juan la Laguna	4	Abril	2023-07-04T00:00:00	2024-11-08T11:00:00	1	Precipitación	0
46672	7	Sololá	717	San Juan la Laguna	12	San Juan la Laguna	4	Abril	2023-07-04T00:00:00	2024-11-08T11:00:00	8	Radiación solar	844
46673	7	Sololá	717	San Juan la Laguna	12	San Juan la Laguna	4	Abril	2023-07-04T00:00:00	2024-11-08T12:00:00	2	Temperatura media	23.1
46674	7	Sololá	717	San Juan la Laguna	12	San Juan la Laguna	4	Abril	2023-07-04T00:00:00	2024-11-08T12:00:00	4	Temperatura máxima	23.8
46675	7	Sololá	717	San Juan la Laguna	12	San Juan la Laguna	4	Abril	2023-07-04T00:00:00	2024-11-08T12:00:00	3	Temperatura mínima	22.9
46676	7	Sololá	717	San Juan la Laguna	12	San Juan la Laguna	4	Abril	2023-07-04T00:00:00	2024-11-08T12:00:00	5	Humedad	65
46677	7	Sololá	717	San Juan la Laguna	12	San Juan la Laguna	4	Abril	2023-07-04T00:00:00	2024-11-08T12:00:00	6	Velocidad del viento	1.6
46678	7	Sololá	717	San Juan la Laguna	12	San Juan la Laguna	4	Abril	2023-07-04T00:00:00	2024-11-08T12:00:00	7	Dirección del viento	1.61
46679	7	Sololá	717	San Juan la Laguna	12	San Juan la Laguna	4	Abril	2023-07-04T00:00:00	2024-11-08T12:00:00	1	Precipitación	0
46680	7	Sololá	717	San Juan la Laguna	12	San Juan la Laguna	4	Abril	2023-07-04T00:00:00	2024-11-08T12:00:00	8	Radiación solar	931
46681	7	Sololá	717	San Juan la Laguna	12	San Juan la Laguna	4	Abril	2023-07-04T00:00:00	2024-11-08T13:00:00	2	Temperatura media	22.6
46682	7	Sololá	717	San Juan la Laguna	12	San Juan la Laguna	4	Abril	2023-07-04T00:00:00	2024-11-08T13:00:00	4	Temperatura máxima	23.8
46683	7	Sololá	717	San Juan la Laguna	12	San Juan la Laguna	4	Abril	2023-07-04T00:00:00	2024-11-08T13:00:00	3	Temperatura mínima	22.1
46684	7	Sololá	717	San Juan la Laguna	12	San Juan la Laguna	4	Abril	2023-07-04T00:00:00	2024-11-08T13:00:00	5	Humedad	67
46685	7	Sololá	717	San Juan la Laguna	12	San Juan la Laguna	4	Abril	2023-07-04T00:00:00	2024-11-08T13:00:00	6	Velocidad del viento	6.4
46686	7	Sololá	717	San Juan la Laguna	12	San Juan la Laguna	4	Abril	2023-07-04T00:00:00	2024-11-08T13:00:00	7	Dirección del viento	6.44
46687	7	Sololá	717	San Juan la Laguna	12	San Juan la Laguna	4	Abril	2023-07-04T00:00:00	2024-11-08T13:00:00	1	Precipitación	0
46688	7	Sololá	717	San Juan la Laguna	12	San Juan la Laguna	4	Abril	2023-07-04T00:00:00	2024-11-08T13:00:00	8	Radiación solar	929
46689	7	Sololá	717	San Juan la Laguna	12	San Juan la Laguna	4	Abril	2023-07-04T00:00:00	2024-11-08T14:00:00	2	Temperatura media	21.9
46690	7	Sololá	717	San Juan la Laguna	12	San Juan la Laguna	4	Abril	2023-07-04T00:00:00	2024-11-08T14:00:00	4	Temperatura máxima	22.8
46691	7	Sololá	717	San Juan la Laguna	12	San Juan la Laguna	4	Abril	2023-07-04T00:00:00	2024-11-08T14:00:00	3	Temperatura mínima	21.9
46692	7	Sololá	717	San Juan la Laguna	12	San Juan la Laguna	4	Abril	2023-07-04T00:00:00	2024-11-08T14:00:00	5	Humedad	68
46693	7	Sololá	717	San Juan la Laguna	12	San Juan la Laguna	4	Abril	2023-07-04T00:00:00	2024-11-08T14:00:00	6	Velocidad del viento	8
46694	7	Sololá	717	San Juan la Laguna	12	San Juan la Laguna	4	Abril	2023-07-04T00:00:00	2024-11-08T14:00:00	7	Dirección del viento	8.05
46695	7	Sololá	717	San Juan la Laguna	12	San Juan la Laguna	4	Abril	2023-07-04T00:00:00	2024-11-08T14:00:00	1	Precipitación	0
46696	7	Sololá	717	San Juan la Laguna	12	San Juan la Laguna	4	Abril	2023-07-04T00:00:00	2024-11-08T14:00:00	8	Radiación solar	829
46697	7	Sololá	717	San Juan la Laguna	12	San Juan la Laguna	4	Abril	2023-07-04T00:00:00	2024-11-08T15:00:00	2	Temperatura media	21.6
46698	7	Sololá	717	San Juan la Laguna	12	San Juan la Laguna	4	Abril	2023-07-04T00:00:00	2024-11-08T15:00:00	4	Temperatura máxima	22.5
46699	7	Sololá	717	San Juan la Laguna	12	San Juan la Laguna	4	Abril	2023-07-04T00:00:00	2024-11-08T15:00:00	3	Temperatura mínima	21.6
46700	7	Sololá	717	San Juan la Laguna	12	San Juan la Laguna	4	Abril	2023-07-04T00:00:00	2024-11-08T15:00:00	5	Humedad	70
46701	7	Sololá	717	San Juan la Laguna	12	San Juan la Laguna	4	Abril	2023-07-04T00:00:00	2024-11-08T15:00:00	6	Velocidad del viento	6.4
46702	7	Sololá	717	San Juan la Laguna	12	San Juan la Laguna	4	Abril	2023-07-04T00:00:00	2024-11-08T15:00:00	7	Dirección del viento	6.44
46703	7	Sololá	717	San Juan la Laguna	12	San Juan la Laguna	4	Abril	2023-07-04T00:00:00	2024-11-08T15:00:00	1	Precipitación	0
46704	7	Sololá	717	San Juan la Laguna	12	San Juan la Laguna	4	Abril	2023-07-04T00:00:00	2024-11-08T15:00:00	8	Radiación solar	529
46705	7	Sololá	717	San Juan la Laguna	12	San Juan la Laguna	4	Abril	2023-07-04T00:00:00	2024-11-08T16:00:00	2	Temperatura media	21.8
46706	7	Sololá	717	San Juan la Laguna	12	San Juan la Laguna	4	Abril	2023-07-04T00:00:00	2024-11-08T16:00:00	4	Temperatura máxima	22.1
46707	7	Sololá	717	San Juan la Laguna	12	San Juan la Laguna	4	Abril	2023-07-04T00:00:00	2024-11-08T16:00:00	3	Temperatura mínima	21.4
46708	7	Sololá	717	San Juan la Laguna	12	San Juan la Laguna	4	Abril	2023-07-04T00:00:00	2024-11-08T16:00:00	5	Humedad	69
46709	7	Sololá	717	San Juan la Laguna	12	San Juan la Laguna	4	Abril	2023-07-04T00:00:00	2024-11-08T16:00:00	6	Velocidad del viento	6.4
46710	7	Sololá	717	San Juan la Laguna	12	San Juan la Laguna	4	Abril	2023-07-04T00:00:00	2024-11-08T16:00:00	7	Dirección del viento	6.44
46711	7	Sololá	717	San Juan la Laguna	12	San Juan la Laguna	4	Abril	2023-07-04T00:00:00	2024-11-08T16:00:00	1	Precipitación	0
46712	7	Sololá	717	San Juan la Laguna	12	San Juan la Laguna	4	Abril	2023-07-04T00:00:00	2024-11-08T16:00:00	8	Radiación solar	452
46713	7	Sololá	717	San Juan la Laguna	12	San Juan la Laguna	4	Abril	2023-07-04T00:00:00	2024-11-08T17:00:00	2	Temperatura media	21
46714	7	Sololá	717	San Juan la Laguna	12	San Juan la Laguna	4	Abril	2023-07-04T00:00:00	2024-11-08T17:00:00	4	Temperatura máxima	21.8
46715	7	Sololá	717	San Juan la Laguna	12	San Juan la Laguna	4	Abril	2023-07-04T00:00:00	2024-11-08T17:00:00	3	Temperatura mínima	21
46716	7	Sololá	717	San Juan la Laguna	12	San Juan la Laguna	4	Abril	2023-07-04T00:00:00	2024-11-08T17:00:00	5	Humedad	72
46717	7	Sololá	717	San Juan la Laguna	12	San Juan la Laguna	4	Abril	2023-07-04T00:00:00	2024-11-08T17:00:00	6	Velocidad del viento	4.8
46718	7	Sololá	717	San Juan la Laguna	12	San Juan la Laguna	4	Abril	2023-07-04T00:00:00	2024-11-08T17:00:00	7	Dirección del viento	4.83
46719	7	Sololá	717	San Juan la Laguna	12	San Juan la Laguna	4	Abril	2023-07-04T00:00:00	2024-11-08T17:00:00	1	Precipitación	0
46720	7	Sololá	717	San Juan la Laguna	12	San Juan la Laguna	4	Abril	2023-07-04T00:00:00	2024-11-08T17:00:00	8	Radiación solar	201
46721	7	Sololá	717	San Juan la Laguna	12	San Juan la Laguna	4	Abril	2023-07-04T00:00:00	2024-11-08T18:00:00	2	Temperatura media	20.8
46722	7	Sololá	717	San Juan la Laguna	12	San Juan la Laguna	4	Abril	2023-07-04T00:00:00	2024-11-08T18:00:00	4	Temperatura máxima	21.1
46723	7	Sololá	717	San Juan la Laguna	12	San Juan la Laguna	4	Abril	2023-07-04T00:00:00	2024-11-08T18:00:00	3	Temperatura mínima	20.8
46724	7	Sololá	717	San Juan la Laguna	12	San Juan la Laguna	4	Abril	2023-07-04T00:00:00	2024-11-08T18:00:00	5	Humedad	77
46725	7	Sololá	717	San Juan la Laguna	12	San Juan la Laguna	4	Abril	2023-07-04T00:00:00	2024-11-08T18:00:00	6	Velocidad del viento	1.6
46726	7	Sololá	717	San Juan la Laguna	12	San Juan la Laguna	4	Abril	2023-07-04T00:00:00	2024-11-08T18:00:00	7	Dirección del viento	1.61
46727	7	Sololá	717	San Juan la Laguna	12	San Juan la Laguna	4	Abril	2023-07-04T00:00:00	2024-11-08T18:00:00	1	Precipitación	0
46728	7	Sololá	717	San Juan la Laguna	12	San Juan la Laguna	4	Abril	2023-07-04T00:00:00	2024-11-08T18:00:00	8	Radiación solar	56
46729	7	Sololá	717	San Juan la Laguna	12	San Juan la Laguna	4	Abril	2023-07-04T00:00:00	2024-11-08T19:00:00	2	Temperatura media	20.1
46730	7	Sololá	717	San Juan la Laguna	12	San Juan la Laguna	4	Abril	2023-07-04T00:00:00	2024-11-08T19:00:00	4	Temperatura máxima	20.9
46731	7	Sololá	717	San Juan la Laguna	12	San Juan la Laguna	4	Abril	2023-07-04T00:00:00	2024-11-08T19:00:00	3	Temperatura mínima	20
46732	7	Sololá	717	San Juan la Laguna	12	San Juan la Laguna	4	Abril	2023-07-04T00:00:00	2024-11-08T19:00:00	5	Humedad	82
46733	7	Sololá	717	San Juan la Laguna	12	San Juan la Laguna	4	Abril	2023-07-04T00:00:00	2024-11-08T19:00:00	6	Velocidad del viento	0
46734	7	Sololá	717	San Juan la Laguna	12	San Juan la Laguna	4	Abril	2023-07-04T00:00:00	2024-11-08T19:00:00	7	Dirección del viento	0
46735	7	Sololá	717	San Juan la Laguna	12	San Juan la Laguna	4	Abril	2023-07-04T00:00:00	2024-11-08T19:00:00	1	Precipitación	0
46736	7	Sololá	717	San Juan la Laguna	12	San Juan la Laguna	4	Abril	2023-07-04T00:00:00	2024-11-08T19:00:00	8	Radiación solar	0
46737	7	Sololá	717	San Juan la Laguna	12	San Juan la Laguna	4	Abril	2023-07-04T00:00:00	2024-11-08T20:00:00	2	Temperatura media	19.8
46738	7	Sololá	717	San Juan la Laguna	12	San Juan la Laguna	4	Abril	2023-07-04T00:00:00	2024-11-08T20:00:00	4	Temperatura máxima	20
46739	7	Sololá	717	San Juan la Laguna	12	San Juan la Laguna	4	Abril	2023-07-04T00:00:00	2024-11-08T20:00:00	3	Temperatura mínima	19.8
46740	7	Sololá	717	San Juan la Laguna	12	San Juan la Laguna	4	Abril	2023-07-04T00:00:00	2024-11-08T20:00:00	5	Humedad	83
46741	7	Sololá	717	San Juan la Laguna	12	San Juan la Laguna	4	Abril	2023-07-04T00:00:00	2024-11-08T20:00:00	6	Velocidad del viento	0
46742	7	Sololá	717	San Juan la Laguna	12	San Juan la Laguna	4	Abril	2023-07-04T00:00:00	2024-11-08T20:00:00	7	Dirección del viento	0
46743	7	Sololá	717	San Juan la Laguna	12	San Juan la Laguna	4	Abril	2023-07-04T00:00:00	2024-11-08T20:00:00	1	Precipitación	0
46744	7	Sololá	717	San Juan la Laguna	12	San Juan la Laguna	4	Abril	2023-07-04T00:00:00	2024-11-08T20:00:00	8	Radiación solar	0
46745	7	Sololá	717	San Juan la Laguna	12	San Juan la Laguna	4	Abril	2023-07-04T00:00:00	2024-11-08T21:00:00	2	Temperatura media	17.9
46746	7	Sololá	717	San Juan la Laguna	12	San Juan la Laguna	4	Abril	2023-07-04T00:00:00	2024-11-08T21:00:00	4	Temperatura máxima	19.7
46747	7	Sololá	717	San Juan la Laguna	12	San Juan la Laguna	4	Abril	2023-07-04T00:00:00	2024-11-08T21:00:00	3	Temperatura mínima	17.9
46748	7	Sololá	717	San Juan la Laguna	12	San Juan la Laguna	4	Abril	2023-07-04T00:00:00	2024-11-08T21:00:00	5	Humedad	86
46749	7	Sololá	717	San Juan la Laguna	12	San Juan la Laguna	4	Abril	2023-07-04T00:00:00	2024-11-08T21:00:00	6	Velocidad del viento	0
46750	7	Sololá	717	San Juan la Laguna	12	San Juan la Laguna	4	Abril	2023-07-04T00:00:00	2024-11-08T21:00:00	7	Dirección del viento	0
46751	7	Sololá	717	San Juan la Laguna	12	San Juan la Laguna	4	Abril	2023-07-04T00:00:00	2024-11-08T21:00:00	1	Precipitación	0
46752	7	Sololá	717	San Juan la Laguna	12	San Juan la Laguna	4	Abril	2023-07-04T00:00:00	2024-11-08T21:00:00	8	Radiación solar	0
46753	7	Sololá	717	San Juan la Laguna	12	San Juan la Laguna	4	Abril	2023-07-04T00:00:00	2024-11-08T22:00:00	2	Temperatura media	18.2
46754	7	Sololá	717	San Juan la Laguna	12	San Juan la Laguna	4	Abril	2023-07-04T00:00:00	2024-11-08T22:00:00	4	Temperatura máxima	18.7
46755	7	Sololá	717	San Juan la Laguna	12	San Juan la Laguna	4	Abril	2023-07-04T00:00:00	2024-11-08T22:00:00	3	Temperatura mínima	17.9
46756	7	Sololá	717	San Juan la Laguna	12	San Juan la Laguna	4	Abril	2023-07-04T00:00:00	2024-11-08T22:00:00	5	Humedad	78
46757	7	Sololá	717	San Juan la Laguna	12	San Juan la Laguna	4	Abril	2023-07-04T00:00:00	2024-11-08T22:00:00	6	Velocidad del viento	0
46758	7	Sololá	717	San Juan la Laguna	12	San Juan la Laguna	4	Abril	2023-07-04T00:00:00	2024-11-08T22:00:00	7	Dirección del viento	0
46759	7	Sololá	717	San Juan la Laguna	12	San Juan la Laguna	4	Abril	2023-07-04T00:00:00	2024-11-08T22:00:00	1	Precipitación	0
46760	7	Sololá	717	San Juan la Laguna	12	San Juan la Laguna	4	Abril	2023-07-04T00:00:00	2024-11-08T22:00:00	8	Radiación solar	0
46761	7	Sololá	717	San Juan la Laguna	12	San Juan la Laguna	4	Abril	2023-07-04T00:00:00	2024-11-08T23:00:00	2	Temperatura media	16.3
46762	7	Sololá	717	San Juan la Laguna	12	San Juan la Laguna	4	Abril	2023-07-04T00:00:00	2024-11-08T23:00:00	4	Temperatura máxima	18.2
46763	7	Sololá	717	San Juan la Laguna	12	San Juan la Laguna	4	Abril	2023-07-04T00:00:00	2024-11-08T23:00:00	3	Temperatura mínima	16.3
46764	7	Sololá	717	San Juan la Laguna	12	San Juan la Laguna	4	Abril	2023-07-04T00:00:00	2024-11-08T23:00:00	5	Humedad	82
46765	7	Sololá	717	San Juan la Laguna	12	San Juan la Laguna	4	Abril	2023-07-04T00:00:00	2024-11-08T23:00:00	6	Velocidad del viento	1.6
46766	7	Sololá	717	San Juan la Laguna	12	San Juan la Laguna	4	Abril	2023-07-04T00:00:00	2024-11-08T23:00:00	7	Dirección del viento	1.61
46767	7	Sololá	717	San Juan la Laguna	12	San Juan la Laguna	4	Abril	2023-07-04T00:00:00	2024-11-08T23:00:00	1	Precipitación	0
46768	7	Sololá	717	San Juan la Laguna	12	San Juan la Laguna	4	Abril	2023-07-04T00:00:00	2024-11-08T23:00:00	8	Radiación solar	0
46769	7	Sololá	717	San Juan la Laguna	12	San Juan la Laguna	4	Abril	2023-08-04T00:00:00	2024-11-08T00:00:00	2	Temperatura media	16.3
46770	7	Sololá	717	San Juan la Laguna	12	San Juan la Laguna	4	Abril	2023-08-04T00:00:00	2024-11-08T00:00:00	4	Temperatura máxima	16.4
46771	7	Sololá	717	San Juan la Laguna	12	San Juan la Laguna	4	Abril	2023-08-04T00:00:00	2024-11-08T00:00:00	3	Temperatura mínima	15.9
46772	7	Sololá	717	San Juan la Laguna	12	San Juan la Laguna	4	Abril	2023-08-04T00:00:00	2024-11-08T00:00:00	5	Humedad	80
46773	7	Sololá	717	San Juan la Laguna	12	San Juan la Laguna	4	Abril	2023-08-04T00:00:00	2024-11-08T00:00:00	6	Velocidad del viento	1.6
46774	7	Sololá	717	San Juan la Laguna	12	San Juan la Laguna	4	Abril	2023-08-04T00:00:00	2024-11-08T00:00:00	7	Dirección del viento	1.61
46775	7	Sololá	717	San Juan la Laguna	12	San Juan la Laguna	4	Abril	2023-08-04T00:00:00	2024-11-08T00:00:00	1	Precipitación	0
46776	7	Sololá	717	San Juan la Laguna	12	San Juan la Laguna	4	Abril	2023-08-04T00:00:00	2024-11-08T00:00:00	8	Radiación solar	0
46777	7	Sololá	717	San Juan la Laguna	12	San Juan la Laguna	4	Abril	2023-08-04T00:00:00	2024-11-08T01:00:00	2	Temperatura media	15.6
46778	7	Sololá	717	San Juan la Laguna	12	San Juan la Laguna	4	Abril	2023-08-04T00:00:00	2024-11-08T01:00:00	4	Temperatura máxima	16.5
46779	7	Sololá	717	San Juan la Laguna	12	San Juan la Laguna	4	Abril	2023-08-04T00:00:00	2024-11-08T01:00:00	3	Temperatura mínima	15.6
46780	7	Sololá	717	San Juan la Laguna	12	San Juan la Laguna	4	Abril	2023-08-04T00:00:00	2024-11-08T01:00:00	5	Humedad	82
46781	7	Sololá	717	San Juan la Laguna	12	San Juan la Laguna	4	Abril	2023-08-04T00:00:00	2024-11-08T01:00:00	6	Velocidad del viento	1.6
46782	7	Sololá	717	San Juan la Laguna	12	San Juan la Laguna	4	Abril	2023-08-04T00:00:00	2024-11-08T01:00:00	7	Dirección del viento	1.61
46783	7	Sololá	717	San Juan la Laguna	12	San Juan la Laguna	4	Abril	2023-08-04T00:00:00	2024-11-08T01:00:00	1	Precipitación	0
46784	7	Sololá	717	San Juan la Laguna	12	San Juan la Laguna	4	Abril	2023-08-04T00:00:00	2024-11-08T01:00:00	8	Radiación solar	0
46785	7	Sololá	717	San Juan la Laguna	12	San Juan la Laguna	4	Abril	2023-08-04T00:00:00	2024-11-08T02:00:00	2	Temperatura media	15
46786	7	Sololá	717	San Juan la Laguna	12	San Juan la Laguna	4	Abril	2023-08-04T00:00:00	2024-11-08T02:00:00	4	Temperatura máxima	15.6
46787	7	Sololá	717	San Juan la Laguna	12	San Juan la Laguna	4	Abril	2023-08-04T00:00:00	2024-11-08T02:00:00	3	Temperatura mínima	15
46788	7	Sololá	717	San Juan la Laguna	12	San Juan la Laguna	4	Abril	2023-08-04T00:00:00	2024-11-08T02:00:00	5	Humedad	85
46789	7	Sololá	717	San Juan la Laguna	12	San Juan la Laguna	4	Abril	2023-08-04T00:00:00	2024-11-08T02:00:00	6	Velocidad del viento	1.6
46790	7	Sololá	717	San Juan la Laguna	12	San Juan la Laguna	4	Abril	2023-08-04T00:00:00	2024-11-08T02:00:00	7	Dirección del viento	1.61
46791	7	Sololá	717	San Juan la Laguna	12	San Juan la Laguna	4	Abril	2023-08-04T00:00:00	2024-11-08T02:00:00	1	Precipitación	0
46792	7	Sololá	717	San Juan la Laguna	12	San Juan la Laguna	4	Abril	2023-08-04T00:00:00	2024-11-08T02:00:00	8	Radiación solar	0
46793	7	Sololá	717	San Juan la Laguna	12	San Juan la Laguna	4	Abril	2023-08-04T00:00:00	2024-11-08T03:00:00	2	Temperatura media	14.3
46794	7	Sololá	717	San Juan la Laguna	12	San Juan la Laguna	4	Abril	2023-08-04T00:00:00	2024-11-08T03:00:00	4	Temperatura máxima	15
46795	7	Sololá	717	San Juan la Laguna	12	San Juan la Laguna	4	Abril	2023-08-04T00:00:00	2024-11-08T03:00:00	3	Temperatura mínima	14.3
46796	7	Sololá	717	San Juan la Laguna	12	San Juan la Laguna	4	Abril	2023-08-04T00:00:00	2024-11-08T03:00:00	5	Humedad	86
46797	7	Sololá	717	San Juan la Laguna	12	San Juan la Laguna	4	Abril	2023-08-04T00:00:00	2024-11-08T03:00:00	6	Velocidad del viento	1.6
46798	7	Sololá	717	San Juan la Laguna	12	San Juan la Laguna	4	Abril	2023-08-04T00:00:00	2024-11-08T03:00:00	7	Dirección del viento	1.61
46799	7	Sololá	717	San Juan la Laguna	12	San Juan la Laguna	4	Abril	2023-08-04T00:00:00	2024-11-08T03:00:00	1	Precipitación	0
46800	7	Sololá	717	San Juan la Laguna	12	San Juan la Laguna	4	Abril	2023-08-04T00:00:00	2024-11-08T03:00:00	8	Radiación solar	0
46801	7	Sololá	717	San Juan la Laguna	12	San Juan la Laguna	4	Abril	2023-08-04T00:00:00	2024-11-08T04:00:00	2	Temperatura media	14.4
46802	7	Sololá	717	San Juan la Laguna	12	San Juan la Laguna	4	Abril	2023-08-04T00:00:00	2024-11-08T04:00:00	4	Temperatura máxima	14.4
46803	7	Sololá	717	San Juan la Laguna	12	San Juan la Laguna	4	Abril	2023-08-04T00:00:00	2024-11-08T04:00:00	3	Temperatura mínima	14.2
46804	7	Sololá	717	San Juan la Laguna	12	San Juan la Laguna	4	Abril	2023-08-04T00:00:00	2024-11-08T04:00:00	5	Humedad	84
46805	7	Sololá	717	San Juan la Laguna	12	San Juan la Laguna	4	Abril	2023-08-04T00:00:00	2024-11-08T04:00:00	6	Velocidad del viento	3.2
46806	7	Sololá	717	San Juan la Laguna	12	San Juan la Laguna	4	Abril	2023-08-04T00:00:00	2024-11-08T04:00:00	7	Dirección del viento	3.22
46807	7	Sololá	717	San Juan la Laguna	12	San Juan la Laguna	4	Abril	2023-08-04T00:00:00	2024-11-08T04:00:00	1	Precipitación	0
46808	7	Sololá	717	San Juan la Laguna	12	San Juan la Laguna	4	Abril	2023-08-04T00:00:00	2024-11-08T04:00:00	8	Radiación solar	0
46809	7	Sololá	717	San Juan la Laguna	12	San Juan la Laguna	4	Abril	2023-08-04T00:00:00	2024-11-08T05:00:00	2	Temperatura media	14.2
46810	7	Sololá	717	San Juan la Laguna	12	San Juan la Laguna	4	Abril	2023-08-04T00:00:00	2024-11-08T05:00:00	4	Temperatura máxima	14.4
46811	7	Sololá	717	San Juan la Laguna	12	San Juan la Laguna	4	Abril	2023-08-04T00:00:00	2024-11-08T05:00:00	3	Temperatura mínima	14.1
46812	7	Sololá	717	San Juan la Laguna	12	San Juan la Laguna	4	Abril	2023-08-04T00:00:00	2024-11-08T05:00:00	5	Humedad	82
46813	7	Sololá	717	San Juan la Laguna	12	San Juan la Laguna	4	Abril	2023-08-04T00:00:00	2024-11-08T05:00:00	6	Velocidad del viento	3.2
46814	7	Sololá	717	San Juan la Laguna	12	San Juan la Laguna	4	Abril	2023-08-04T00:00:00	2024-11-08T05:00:00	7	Dirección del viento	3.22
46815	7	Sololá	717	San Juan la Laguna	12	San Juan la Laguna	4	Abril	2023-08-04T00:00:00	2024-11-08T05:00:00	1	Precipitación	0
46816	7	Sololá	717	San Juan la Laguna	12	San Juan la Laguna	4	Abril	2023-08-04T00:00:00	2024-11-08T05:00:00	8	Radiación solar	0
46817	7	Sololá	717	San Juan la Laguna	12	San Juan la Laguna	4	Abril	2023-08-04T00:00:00	2024-11-08T06:00:00	2	Temperatura media	14.2
46818	7	Sololá	717	San Juan la Laguna	12	San Juan la Laguna	4	Abril	2023-08-04T00:00:00	2024-11-08T06:00:00	4	Temperatura máxima	14.2
46819	7	Sololá	717	San Juan la Laguna	12	San Juan la Laguna	4	Abril	2023-08-04T00:00:00	2024-11-08T06:00:00	3	Temperatura mínima	14.1
46820	7	Sololá	717	San Juan la Laguna	12	San Juan la Laguna	4	Abril	2023-08-04T00:00:00	2024-11-08T06:00:00	5	Humedad	81
46821	7	Sololá	717	San Juan la Laguna	12	San Juan la Laguna	4	Abril	2023-08-04T00:00:00	2024-11-08T06:00:00	6	Velocidad del viento	4.8
46822	7	Sololá	717	San Juan la Laguna	12	San Juan la Laguna	4	Abril	2023-08-04T00:00:00	2024-11-08T06:00:00	7	Dirección del viento	4.83
46823	7	Sololá	717	San Juan la Laguna	12	San Juan la Laguna	4	Abril	2023-08-04T00:00:00	2024-11-08T06:00:00	1	Precipitación	0
46824	7	Sololá	717	San Juan la Laguna	12	San Juan la Laguna	4	Abril	2023-08-04T00:00:00	2024-11-08T06:00:00	8	Radiación solar	0
46825	7	Sololá	717	San Juan la Laguna	12	San Juan la Laguna	4	Abril	2023-08-04T00:00:00	2024-11-08T07:00:00	2	Temperatura media	15.8
46826	7	Sololá	717	San Juan la Laguna	12	San Juan la Laguna	4	Abril	2023-08-04T00:00:00	2024-11-08T07:00:00	4	Temperatura máxima	15.8
46827	7	Sololá	717	San Juan la Laguna	12	San Juan la Laguna	4	Abril	2023-08-04T00:00:00	2024-11-08T07:00:00	3	Temperatura mínima	14.2
46828	7	Sololá	717	San Juan la Laguna	12	San Juan la Laguna	4	Abril	2023-08-04T00:00:00	2024-11-08T07:00:00	5	Humedad	78
46829	7	Sololá	717	San Juan la Laguna	12	San Juan la Laguna	4	Abril	2023-08-04T00:00:00	2024-11-08T07:00:00	6	Velocidad del viento	1.6
46830	7	Sololá	717	San Juan la Laguna	12	San Juan la Laguna	4	Abril	2023-08-04T00:00:00	2024-11-08T07:00:00	7	Dirección del viento	1.61
46831	7	Sololá	717	San Juan la Laguna	12	San Juan la Laguna	4	Abril	2023-08-04T00:00:00	2024-11-08T07:00:00	1	Precipitación	0
46832	7	Sololá	717	San Juan la Laguna	12	San Juan la Laguna	4	Abril	2023-08-04T00:00:00	2024-11-08T07:00:00	8	Radiación solar	57
46833	7	Sololá	717	San Juan la Laguna	12	San Juan la Laguna	4	Abril	2023-08-04T00:00:00	2024-11-08T08:00:00	2	Temperatura media	19.3
46834	7	Sololá	717	San Juan la Laguna	12	San Juan la Laguna	4	Abril	2023-08-04T00:00:00	2024-11-08T08:00:00	4	Temperatura máxima	19.3
46835	7	Sololá	717	San Juan la Laguna	12	San Juan la Laguna	4	Abril	2023-08-04T00:00:00	2024-11-08T08:00:00	3	Temperatura mínima	15.8
46836	7	Sololá	717	San Juan la Laguna	12	San Juan la Laguna	4	Abril	2023-08-04T00:00:00	2024-11-08T08:00:00	5	Humedad	68
46837	7	Sololá	717	San Juan la Laguna	12	San Juan la Laguna	4	Abril	2023-08-04T00:00:00	2024-11-08T08:00:00	6	Velocidad del viento	0
46838	7	Sololá	717	San Juan la Laguna	12	San Juan la Laguna	4	Abril	2023-08-04T00:00:00	2024-11-08T08:00:00	7	Dirección del viento	0
46839	7	Sololá	717	San Juan la Laguna	12	San Juan la Laguna	4	Abril	2023-08-04T00:00:00	2024-11-08T08:00:00	1	Precipitación	0
46840	7	Sololá	717	San Juan la Laguna	12	San Juan la Laguna	4	Abril	2023-08-04T00:00:00	2024-11-08T08:00:00	8	Radiación solar	220
46841	7	Sololá	717	San Juan la Laguna	12	San Juan la Laguna	4	Abril	2023-08-04T00:00:00	2024-11-08T09:00:00	2	Temperatura media	20.7
46842	7	Sololá	717	San Juan la Laguna	12	San Juan la Laguna	4	Abril	2023-08-04T00:00:00	2024-11-08T09:00:00	4	Temperatura máxima	20.7
46843	7	Sololá	717	San Juan la Laguna	12	San Juan la Laguna	4	Abril	2023-08-04T00:00:00	2024-11-08T09:00:00	3	Temperatura mínima	19.3
46844	7	Sololá	717	San Juan la Laguna	12	San Juan la Laguna	4	Abril	2023-08-04T00:00:00	2024-11-08T09:00:00	5	Humedad	69
46845	7	Sololá	717	San Juan la Laguna	12	San Juan la Laguna	4	Abril	2023-08-04T00:00:00	2024-11-08T09:00:00	6	Velocidad del viento	1.6
46846	7	Sololá	717	San Juan la Laguna	12	San Juan la Laguna	4	Abril	2023-08-04T00:00:00	2024-11-08T09:00:00	7	Dirección del viento	1.61
46847	7	Sololá	717	San Juan la Laguna	12	San Juan la Laguna	4	Abril	2023-08-04T00:00:00	2024-11-08T09:00:00	1	Precipitación	0
46848	7	Sololá	717	San Juan la Laguna	12	San Juan la Laguna	4	Abril	2023-08-04T00:00:00	2024-11-08T09:00:00	8	Radiación solar	419
46849	7	Sololá	717	San Juan la Laguna	12	San Juan la Laguna	4	Abril	2023-08-04T00:00:00	2024-11-08T10:00:00	2	Temperatura media	22
46850	7	Sololá	717	San Juan la Laguna	12	San Juan la Laguna	4	Abril	2023-08-04T00:00:00	2024-11-08T10:00:00	4	Temperatura máxima	22
46851	7	Sololá	717	San Juan la Laguna	12	San Juan la Laguna	4	Abril	2023-08-04T00:00:00	2024-11-08T10:00:00	3	Temperatura mínima	20.6
46852	7	Sololá	717	San Juan la Laguna	12	San Juan la Laguna	4	Abril	2023-08-04T00:00:00	2024-11-08T10:00:00	5	Humedad	60
46853	7	Sololá	717	San Juan la Laguna	12	San Juan la Laguna	4	Abril	2023-08-04T00:00:00	2024-11-08T10:00:00	6	Velocidad del viento	1.6
46854	7	Sololá	717	San Juan la Laguna	12	San Juan la Laguna	4	Abril	2023-08-04T00:00:00	2024-11-08T10:00:00	7	Dirección del viento	1.61
46855	7	Sololá	717	San Juan la Laguna	12	San Juan la Laguna	4	Abril	2023-08-04T00:00:00	2024-11-08T10:00:00	1	Precipitación	0
46856	7	Sololá	717	San Juan la Laguna	12	San Juan la Laguna	4	Abril	2023-08-04T00:00:00	2024-11-08T10:00:00	8	Radiación solar	653
46857	7	Sololá	717	San Juan la Laguna	12	San Juan la Laguna	4	Abril	2023-08-04T00:00:00	2024-11-08T11:00:00	2	Temperatura media	23.9
46858	7	Sololá	717	San Juan la Laguna	12	San Juan la Laguna	4	Abril	2023-08-04T00:00:00	2024-11-08T11:00:00	4	Temperatura máxima	24
46859	7	Sololá	717	San Juan la Laguna	12	San Juan la Laguna	4	Abril	2023-08-04T00:00:00	2024-11-08T11:00:00	3	Temperatura mínima	21.9
46860	7	Sololá	717	San Juan la Laguna	12	San Juan la Laguna	4	Abril	2023-08-04T00:00:00	2024-11-08T11:00:00	5	Humedad	56
46861	7	Sololá	717	San Juan la Laguna	12	San Juan la Laguna	4	Abril	2023-08-04T00:00:00	2024-11-08T11:00:00	6	Velocidad del viento	1.6
46862	7	Sololá	717	San Juan la Laguna	12	San Juan la Laguna	4	Abril	2023-08-04T00:00:00	2024-11-08T11:00:00	7	Dirección del viento	1.61
46863	7	Sololá	717	San Juan la Laguna	12	San Juan la Laguna	4	Abril	2023-08-04T00:00:00	2024-11-08T11:00:00	1	Precipitación	0
46864	7	Sololá	717	San Juan la Laguna	12	San Juan la Laguna	4	Abril	2023-08-04T00:00:00	2024-11-08T11:00:00	8	Radiación solar	876
46865	7	Sololá	717	San Juan la Laguna	12	San Juan la Laguna	4	Abril	2023-08-04T00:00:00	2024-11-08T12:00:00	2	Temperatura media	22.8
46866	7	Sololá	717	San Juan la Laguna	12	San Juan la Laguna	4	Abril	2023-08-04T00:00:00	2024-11-08T12:00:00	4	Temperatura máxima	24.2
46867	7	Sololá	717	San Juan la Laguna	12	San Juan la Laguna	4	Abril	2023-08-04T00:00:00	2024-11-08T12:00:00	3	Temperatura mínima	22.1
46868	7	Sololá	717	San Juan la Laguna	12	San Juan la Laguna	4	Abril	2023-08-04T00:00:00	2024-11-08T12:00:00	5	Humedad	65
46869	7	Sololá	717	San Juan la Laguna	12	San Juan la Laguna	4	Abril	2023-08-04T00:00:00	2024-11-08T12:00:00	6	Velocidad del viento	4.8
46870	7	Sololá	717	San Juan la Laguna	12	San Juan la Laguna	4	Abril	2023-08-04T00:00:00	2024-11-08T12:00:00	7	Dirección del viento	4.83
46871	7	Sololá	717	San Juan la Laguna	12	San Juan la Laguna	4	Abril	2023-08-04T00:00:00	2024-11-08T12:00:00	1	Precipitación	0
46872	7	Sololá	717	San Juan la Laguna	12	San Juan la Laguna	4	Abril	2023-08-04T00:00:00	2024-11-08T12:00:00	8	Radiación solar	816
46873	7	Sololá	717	San Juan la Laguna	12	San Juan la Laguna	4	Abril	2023-08-04T00:00:00	2024-11-08T13:00:00	2	Temperatura media	22.6
46874	7	Sololá	717	San Juan la Laguna	12	San Juan la Laguna	4	Abril	2023-08-04T00:00:00	2024-11-08T13:00:00	4	Temperatura máxima	23.1
46875	7	Sololá	717	San Juan la Laguna	12	San Juan la Laguna	4	Abril	2023-08-04T00:00:00	2024-11-08T13:00:00	3	Temperatura mínima	22.6
46876	7	Sololá	717	San Juan la Laguna	12	San Juan la Laguna	4	Abril	2023-08-04T00:00:00	2024-11-08T13:00:00	5	Humedad	67
46877	7	Sololá	717	San Juan la Laguna	12	San Juan la Laguna	4	Abril	2023-08-04T00:00:00	2024-11-08T13:00:00	6	Velocidad del viento	8
46878	7	Sololá	717	San Juan la Laguna	12	San Juan la Laguna	4	Abril	2023-08-04T00:00:00	2024-11-08T13:00:00	7	Dirección del viento	8.05
46879	7	Sololá	717	San Juan la Laguna	12	San Juan la Laguna	4	Abril	2023-08-04T00:00:00	2024-11-08T13:00:00	1	Precipitación	0
46880	7	Sololá	717	San Juan la Laguna	12	San Juan la Laguna	4	Abril	2023-08-04T00:00:00	2024-11-08T13:00:00	8	Radiación solar	961
46881	7	Sololá	717	San Juan la Laguna	12	San Juan la Laguna	4	Abril	2023-08-04T00:00:00	2024-11-08T14:00:00	2	Temperatura media	23.1
46882	7	Sololá	717	San Juan la Laguna	12	San Juan la Laguna	4	Abril	2023-08-04T00:00:00	2024-11-08T14:00:00	4	Temperatura máxima	23.7
46883	7	Sololá	717	San Juan la Laguna	12	San Juan la Laguna	4	Abril	2023-08-04T00:00:00	2024-11-08T14:00:00	3	Temperatura mínima	22.4
46884	7	Sololá	717	San Juan la Laguna	12	San Juan la Laguna	4	Abril	2023-08-04T00:00:00	2024-11-08T14:00:00	5	Humedad	66
46885	7	Sololá	717	San Juan la Laguna	12	San Juan la Laguna	4	Abril	2023-08-04T00:00:00	2024-11-08T14:00:00	6	Velocidad del viento	8
46886	7	Sololá	717	San Juan la Laguna	12	San Juan la Laguna	4	Abril	2023-08-04T00:00:00	2024-11-08T14:00:00	7	Dirección del viento	8.05
46887	7	Sololá	717	San Juan la Laguna	12	San Juan la Laguna	4	Abril	2023-08-04T00:00:00	2024-11-08T14:00:00	1	Precipitación	0
46888	7	Sololá	717	San Juan la Laguna	12	San Juan la Laguna	4	Abril	2023-08-04T00:00:00	2024-11-08T14:00:00	8	Radiación solar	908
46889	7	Sololá	717	San Juan la Laguna	12	San Juan la Laguna	4	Abril	2023-08-04T00:00:00	2024-11-08T15:00:00	2	Temperatura media	22.8
46890	7	Sololá	717	San Juan la Laguna	12	San Juan la Laguna	4	Abril	2023-08-04T00:00:00	2024-11-08T15:00:00	4	Temperatura máxima	23.3
46891	7	Sololá	717	San Juan la Laguna	12	San Juan la Laguna	4	Abril	2023-08-04T00:00:00	2024-11-08T15:00:00	3	Temperatura mínima	22.2
46892	7	Sololá	717	San Juan la Laguna	12	San Juan la Laguna	4	Abril	2023-08-04T00:00:00	2024-11-08T15:00:00	5	Humedad	67
46893	7	Sololá	717	San Juan la Laguna	12	San Juan la Laguna	4	Abril	2023-08-04T00:00:00	2024-11-08T15:00:00	6	Velocidad del viento	6.4
46894	7	Sololá	717	San Juan la Laguna	12	San Juan la Laguna	4	Abril	2023-08-04T00:00:00	2024-11-08T15:00:00	7	Dirección del viento	6.44
46895	7	Sololá	717	San Juan la Laguna	12	San Juan la Laguna	4	Abril	2023-08-04T00:00:00	2024-11-08T15:00:00	1	Precipitación	0
46896	7	Sololá	717	San Juan la Laguna	12	San Juan la Laguna	4	Abril	2023-08-04T00:00:00	2024-11-08T15:00:00	8	Radiación solar	776
46897	7	Sololá	717	San Juan la Laguna	12	San Juan la Laguna	4	Abril	2023-08-04T00:00:00	2024-11-08T16:00:00	2	Temperatura media	22.9
46898	7	Sololá	717	San Juan la Laguna	12	San Juan la Laguna	4	Abril	2023-08-04T00:00:00	2024-11-08T16:00:00	4	Temperatura máxima	23.3
46899	7	Sololá	717	San Juan la Laguna	12	San Juan la Laguna	4	Abril	2023-08-04T00:00:00	2024-11-08T16:00:00	3	Temperatura mínima	22.4
46900	7	Sololá	717	San Juan la Laguna	12	San Juan la Laguna	4	Abril	2023-08-04T00:00:00	2024-11-08T16:00:00	5	Humedad	68
46901	7	Sololá	717	San Juan la Laguna	12	San Juan la Laguna	4	Abril	2023-08-04T00:00:00	2024-11-08T16:00:00	6	Velocidad del viento	6.4
46902	7	Sololá	717	San Juan la Laguna	12	San Juan la Laguna	4	Abril	2023-08-04T00:00:00	2024-11-08T16:00:00	7	Dirección del viento	6.44
46903	7	Sololá	717	San Juan la Laguna	12	San Juan la Laguna	4	Abril	2023-08-04T00:00:00	2024-11-08T16:00:00	1	Precipitación	0
46904	7	Sololá	717	San Juan la Laguna	12	San Juan la Laguna	4	Abril	2023-08-04T00:00:00	2024-11-08T16:00:00	8	Radiación solar	577
46905	7	Sololá	717	San Juan la Laguna	12	San Juan la Laguna	4	Abril	2023-08-04T00:00:00	2024-11-08T17:00:00	2	Temperatura media	21.2
46906	7	Sololá	717	San Juan la Laguna	12	San Juan la Laguna	4	Abril	2023-08-04T00:00:00	2024-11-08T17:00:00	4	Temperatura máxima	22.9
46907	7	Sololá	717	San Juan la Laguna	12	San Juan la Laguna	4	Abril	2023-08-04T00:00:00	2024-11-08T17:00:00	3	Temperatura mínima	21.2
46908	7	Sololá	717	San Juan la Laguna	12	San Juan la Laguna	4	Abril	2023-08-04T00:00:00	2024-11-08T17:00:00	5	Humedad	76
46909	7	Sololá	717	San Juan la Laguna	12	San Juan la Laguna	4	Abril	2023-08-04T00:00:00	2024-11-08T17:00:00	6	Velocidad del viento	3.2
46910	7	Sololá	717	San Juan la Laguna	12	San Juan la Laguna	4	Abril	2023-08-04T00:00:00	2024-11-08T17:00:00	7	Dirección del viento	3.22
46911	7	Sololá	717	San Juan la Laguna	12	San Juan la Laguna	4	Abril	2023-08-04T00:00:00	2024-11-08T17:00:00	1	Precipitación	0
46912	7	Sololá	717	San Juan la Laguna	12	San Juan la Laguna	4	Abril	2023-08-04T00:00:00	2024-11-08T17:00:00	8	Radiación solar	311
46913	7	Sololá	717	San Juan la Laguna	12	San Juan la Laguna	4	Abril	2023-08-04T00:00:00	2024-11-08T18:00:00	2	Temperatura media	20.6
46914	7	Sololá	717	San Juan la Laguna	12	San Juan la Laguna	4	Abril	2023-08-04T00:00:00	2024-11-08T18:00:00	4	Temperatura máxima	21.3
46915	7	Sololá	717	San Juan la Laguna	12	San Juan la Laguna	4	Abril	2023-08-04T00:00:00	2024-11-08T18:00:00	3	Temperatura mínima	20.6
46916	7	Sololá	717	San Juan la Laguna	12	San Juan la Laguna	4	Abril	2023-08-04T00:00:00	2024-11-08T18:00:00	5	Humedad	79
46917	7	Sololá	717	San Juan la Laguna	12	San Juan la Laguna	4	Abril	2023-08-04T00:00:00	2024-11-08T18:00:00	6	Velocidad del viento	0
46918	7	Sololá	717	San Juan la Laguna	12	San Juan la Laguna	4	Abril	2023-08-04T00:00:00	2024-11-08T18:00:00	7	Dirección del viento	0
46919	7	Sololá	717	San Juan la Laguna	12	San Juan la Laguna	4	Abril	2023-08-04T00:00:00	2024-11-08T18:00:00	1	Precipitación	0
46920	7	Sololá	717	San Juan la Laguna	12	San Juan la Laguna	4	Abril	2023-08-04T00:00:00	2024-11-08T18:00:00	8	Radiación solar	61
46921	7	Sololá	717	San Juan la Laguna	12	San Juan la Laguna	4	Abril	2023-08-04T00:00:00	2024-11-08T19:00:00	2	Temperatura media	19.8
46922	7	Sololá	717	San Juan la Laguna	12	San Juan la Laguna	4	Abril	2023-08-04T00:00:00	2024-11-08T19:00:00	4	Temperatura máxima	20.6
46923	7	Sololá	717	San Juan la Laguna	12	San Juan la Laguna	4	Abril	2023-08-04T00:00:00	2024-11-08T19:00:00	3	Temperatura mínima	19.8
46924	7	Sololá	717	San Juan la Laguna	12	San Juan la Laguna	4	Abril	2023-08-04T00:00:00	2024-11-08T19:00:00	5	Humedad	83
46925	7	Sololá	717	San Juan la Laguna	12	San Juan la Laguna	4	Abril	2023-08-04T00:00:00	2024-11-08T19:00:00	6	Velocidad del viento	0
46926	7	Sololá	717	San Juan la Laguna	12	San Juan la Laguna	4	Abril	2023-08-04T00:00:00	2024-11-08T19:00:00	7	Dirección del viento	0
46927	7	Sololá	717	San Juan la Laguna	12	San Juan la Laguna	4	Abril	2023-08-04T00:00:00	2024-11-08T19:00:00	1	Precipitación	0
46928	7	Sololá	717	San Juan la Laguna	12	San Juan la Laguna	4	Abril	2023-08-04T00:00:00	2024-11-08T19:00:00	8	Radiación solar	0
46929	7	Sololá	717	San Juan la Laguna	12	San Juan la Laguna	4	Abril	2023-08-04T00:00:00	2024-11-08T20:00:00	2	Temperatura media	20.2
46930	7	Sololá	717	San Juan la Laguna	12	San Juan la Laguna	4	Abril	2023-08-04T00:00:00	2024-11-08T20:00:00	4	Temperatura máxima	20.2
46931	7	Sololá	717	San Juan la Laguna	12	San Juan la Laguna	4	Abril	2023-08-04T00:00:00	2024-11-08T20:00:00	3	Temperatura mínima	19.7
46932	7	Sololá	717	San Juan la Laguna	12	San Juan la Laguna	4	Abril	2023-08-04T00:00:00	2024-11-08T20:00:00	5	Humedad	58
46933	7	Sololá	717	San Juan la Laguna	12	San Juan la Laguna	4	Abril	2023-08-04T00:00:00	2024-11-08T20:00:00	6	Velocidad del viento	1.6
46934	7	Sololá	717	San Juan la Laguna	12	San Juan la Laguna	4	Abril	2023-08-04T00:00:00	2024-11-08T20:00:00	7	Dirección del viento	1.61
46935	7	Sololá	717	San Juan la Laguna	12	San Juan la Laguna	4	Abril	2023-08-04T00:00:00	2024-11-08T20:00:00	1	Precipitación	0
46936	7	Sololá	717	San Juan la Laguna	12	San Juan la Laguna	4	Abril	2023-08-04T00:00:00	2024-11-08T20:00:00	8	Radiación solar	0
46937	7	Sololá	717	San Juan la Laguna	12	San Juan la Laguna	4	Abril	2023-08-04T00:00:00	2024-11-08T21:00:00	2	Temperatura media	18.9
46938	7	Sololá	717	San Juan la Laguna	12	San Juan la Laguna	4	Abril	2023-08-04T00:00:00	2024-11-08T21:00:00	4	Temperatura máxima	20.2
46939	7	Sololá	717	San Juan la Laguna	12	San Juan la Laguna	4	Abril	2023-08-04T00:00:00	2024-11-08T21:00:00	3	Temperatura mínima	18.9
46940	7	Sololá	717	San Juan la Laguna	12	San Juan la Laguna	4	Abril	2023-08-04T00:00:00	2024-11-08T21:00:00	5	Humedad	62
46941	7	Sololá	717	San Juan la Laguna	12	San Juan la Laguna	4	Abril	2023-08-04T00:00:00	2024-11-08T21:00:00	6	Velocidad del viento	1.6
46942	7	Sololá	717	San Juan la Laguna	12	San Juan la Laguna	4	Abril	2023-08-04T00:00:00	2024-11-08T21:00:00	7	Dirección del viento	1.61
46943	7	Sololá	717	San Juan la Laguna	12	San Juan la Laguna	4	Abril	2023-08-04T00:00:00	2024-11-08T21:00:00	1	Precipitación	0
46944	7	Sololá	717	San Juan la Laguna	12	San Juan la Laguna	4	Abril	2023-08-04T00:00:00	2024-11-08T21:00:00	8	Radiación solar	0
46945	7	Sololá	717	San Juan la Laguna	12	San Juan la Laguna	4	Abril	2023-08-04T00:00:00	2024-11-08T22:00:00	2	Temperatura media	18.3
46946	7	Sololá	717	San Juan la Laguna	12	San Juan la Laguna	4	Abril	2023-08-04T00:00:00	2024-11-08T22:00:00	4	Temperatura máxima	18.9
46947	7	Sololá	717	San Juan la Laguna	12	San Juan la Laguna	4	Abril	2023-08-04T00:00:00	2024-11-08T22:00:00	3	Temperatura mínima	18.3
46948	7	Sololá	717	San Juan la Laguna	12	San Juan la Laguna	4	Abril	2023-08-04T00:00:00	2024-11-08T22:00:00	5	Humedad	63
46949	7	Sololá	717	San Juan la Laguna	12	San Juan la Laguna	4	Abril	2023-08-04T00:00:00	2024-11-08T22:00:00	6	Velocidad del viento	3.2
46950	7	Sololá	717	San Juan la Laguna	12	San Juan la Laguna	4	Abril	2023-08-04T00:00:00	2024-11-08T22:00:00	7	Dirección del viento	3.22
46951	7	Sololá	717	San Juan la Laguna	12	San Juan la Laguna	4	Abril	2023-08-04T00:00:00	2024-11-08T22:00:00	1	Precipitación	0
46952	7	Sololá	717	San Juan la Laguna	12	San Juan la Laguna	4	Abril	2023-08-04T00:00:00	2024-11-08T22:00:00	8	Radiación solar	0
46953	7	Sololá	717	San Juan la Laguna	12	San Juan la Laguna	4	Abril	2023-08-04T00:00:00	2024-11-08T23:00:00	2	Temperatura media	17.6
46954	7	Sololá	717	San Juan la Laguna	12	San Juan la Laguna	4	Abril	2023-08-04T00:00:00	2024-11-08T23:00:00	4	Temperatura máxima	18.2
46955	7	Sololá	717	San Juan la Laguna	12	San Juan la Laguna	4	Abril	2023-08-04T00:00:00	2024-11-08T23:00:00	3	Temperatura mínima	17.6
46956	7	Sololá	717	San Juan la Laguna	12	San Juan la Laguna	4	Abril	2023-08-04T00:00:00	2024-11-08T23:00:00	5	Humedad	63
46957	7	Sololá	717	San Juan la Laguna	12	San Juan la Laguna	4	Abril	2023-08-04T00:00:00	2024-11-08T23:00:00	6	Velocidad del viento	0
46958	7	Sololá	717	San Juan la Laguna	12	San Juan la Laguna	4	Abril	2023-08-04T00:00:00	2024-11-08T23:00:00	7	Dirección del viento	0
46959	7	Sololá	717	San Juan la Laguna	12	San Juan la Laguna	4	Abril	2023-08-04T00:00:00	2024-11-08T23:00:00	1	Precipitación	0
46960	7	Sololá	717	San Juan la Laguna	12	San Juan la Laguna	4	Abril	2023-08-04T00:00:00	2024-11-08T23:00:00	8	Radiación solar	0
46961	7	Sololá	717	San Juan la Laguna	12	San Juan la Laguna	4	Abril	2023-09-04T00:00:00	2024-11-08T00:00:00	2	Temperatura media	16.6
46962	7	Sololá	717	San Juan la Laguna	12	San Juan la Laguna	4	Abril	2023-09-04T00:00:00	2024-11-08T00:00:00	4	Temperatura máxima	17.7
46963	7	Sololá	717	San Juan la Laguna	12	San Juan la Laguna	4	Abril	2023-09-04T00:00:00	2024-11-08T00:00:00	3	Temperatura mínima	16.3
46964	7	Sololá	717	San Juan la Laguna	12	San Juan la Laguna	4	Abril	2023-09-04T00:00:00	2024-11-08T00:00:00	5	Humedad	64
46965	7	Sololá	717	San Juan la Laguna	12	San Juan la Laguna	4	Abril	2023-09-04T00:00:00	2024-11-08T00:00:00	6	Velocidad del viento	0
46966	7	Sololá	717	San Juan la Laguna	12	San Juan la Laguna	4	Abril	2023-09-04T00:00:00	2024-11-08T00:00:00	7	Dirección del viento	0
46967	7	Sololá	717	San Juan la Laguna	12	San Juan la Laguna	4	Abril	2023-09-04T00:00:00	2024-11-08T00:00:00	1	Precipitación	0
46968	7	Sololá	717	San Juan la Laguna	12	San Juan la Laguna	4	Abril	2023-09-04T00:00:00	2024-11-08T00:00:00	8	Radiación solar	0
46969	7	Sololá	717	San Juan la Laguna	12	San Juan la Laguna	4	Abril	2023-09-04T00:00:00	2024-11-08T01:00:00	2	Temperatura media	14.3
46970	7	Sololá	717	San Juan la Laguna	12	San Juan la Laguna	4	Abril	2023-09-04T00:00:00	2024-11-08T01:00:00	4	Temperatura máxima	16.8
46971	7	Sololá	717	San Juan la Laguna	12	San Juan la Laguna	4	Abril	2023-09-04T00:00:00	2024-11-08T01:00:00	3	Temperatura mínima	14.3
46972	7	Sololá	717	San Juan la Laguna	12	San Juan la Laguna	4	Abril	2023-09-04T00:00:00	2024-11-08T01:00:00	5	Humedad	69
46973	7	Sololá	717	San Juan la Laguna	12	San Juan la Laguna	4	Abril	2023-09-04T00:00:00	2024-11-08T01:00:00	6	Velocidad del viento	0
46974	7	Sololá	717	San Juan la Laguna	12	San Juan la Laguna	4	Abril	2023-09-04T00:00:00	2024-11-08T01:00:00	7	Dirección del viento	0
46975	7	Sololá	717	San Juan la Laguna	12	San Juan la Laguna	4	Abril	2023-09-04T00:00:00	2024-11-08T01:00:00	1	Precipitación	0
46976	7	Sololá	717	San Juan la Laguna	12	San Juan la Laguna	4	Abril	2023-09-04T00:00:00	2024-11-08T01:00:00	8	Radiación solar	0
46977	7	Sololá	717	San Juan la Laguna	12	San Juan la Laguna	4	Abril	2023-09-04T00:00:00	2024-11-08T02:00:00	2	Temperatura media	13.3
46978	7	Sololá	717	San Juan la Laguna	12	San Juan la Laguna	4	Abril	2023-09-04T00:00:00	2024-11-08T02:00:00	4	Temperatura máxima	14.3
46979	7	Sololá	717	San Juan la Laguna	12	San Juan la Laguna	4	Abril	2023-09-04T00:00:00	2024-11-08T02:00:00	3	Temperatura mínima	13.2
46980	7	Sololá	717	San Juan la Laguna	12	San Juan la Laguna	4	Abril	2023-09-04T00:00:00	2024-11-08T02:00:00	5	Humedad	73
46981	7	Sololá	717	San Juan la Laguna	12	San Juan la Laguna	4	Abril	2023-09-04T00:00:00	2024-11-08T02:00:00	6	Velocidad del viento	0
46982	7	Sololá	717	San Juan la Laguna	12	San Juan la Laguna	4	Abril	2023-09-04T00:00:00	2024-11-08T02:00:00	7	Dirección del viento	0
46983	7	Sololá	717	San Juan la Laguna	12	San Juan la Laguna	4	Abril	2023-09-04T00:00:00	2024-11-08T02:00:00	1	Precipitación	0
46984	7	Sololá	717	San Juan la Laguna	12	San Juan la Laguna	4	Abril	2023-09-04T00:00:00	2024-11-08T02:00:00	8	Radiación solar	0
46985	7	Sololá	717	San Juan la Laguna	12	San Juan la Laguna	4	Abril	2023-09-04T00:00:00	2024-11-08T03:00:00	2	Temperatura media	14.9
46986	7	Sololá	717	San Juan la Laguna	12	San Juan la Laguna	4	Abril	2023-09-04T00:00:00	2024-11-08T03:00:00	4	Temperatura máxima	14.9
46987	7	Sololá	717	San Juan la Laguna	12	San Juan la Laguna	4	Abril	2023-09-04T00:00:00	2024-11-08T03:00:00	3	Temperatura mínima	13.3
46988	7	Sololá	717	San Juan la Laguna	12	San Juan la Laguna	4	Abril	2023-09-04T00:00:00	2024-11-08T03:00:00	5	Humedad	70
46989	7	Sololá	717	San Juan la Laguna	12	San Juan la Laguna	4	Abril	2023-09-04T00:00:00	2024-11-08T03:00:00	6	Velocidad del viento	0
46990	7	Sololá	717	San Juan la Laguna	12	San Juan la Laguna	4	Abril	2023-09-04T00:00:00	2024-11-08T03:00:00	7	Dirección del viento	0
46991	7	Sololá	717	San Juan la Laguna	12	San Juan la Laguna	4	Abril	2023-09-04T00:00:00	2024-11-08T03:00:00	1	Precipitación	0
46992	7	Sololá	717	San Juan la Laguna	12	San Juan la Laguna	4	Abril	2023-09-04T00:00:00	2024-11-08T03:00:00	8	Radiación solar	0
46993	7	Sololá	717	San Juan la Laguna	12	San Juan la Laguna	4	Abril	2023-09-04T00:00:00	2024-11-08T04:00:00	2	Temperatura media	14.2
46994	7	Sololá	717	San Juan la Laguna	12	San Juan la Laguna	4	Abril	2023-09-04T00:00:00	2024-11-08T04:00:00	4	Temperatura máxima	15.2
46995	7	Sololá	717	San Juan la Laguna	12	San Juan la Laguna	4	Abril	2023-09-04T00:00:00	2024-11-08T04:00:00	3	Temperatura mínima	14.2
46996	7	Sololá	717	San Juan la Laguna	12	San Juan la Laguna	4	Abril	2023-09-04T00:00:00	2024-11-08T04:00:00	5	Humedad	69
46997	7	Sololá	717	San Juan la Laguna	12	San Juan la Laguna	4	Abril	2023-09-04T00:00:00	2024-11-08T04:00:00	6	Velocidad del viento	0
46998	7	Sololá	717	San Juan la Laguna	12	San Juan la Laguna	4	Abril	2023-09-04T00:00:00	2024-11-08T04:00:00	7	Dirección del viento	0
46999	7	Sololá	717	San Juan la Laguna	12	San Juan la Laguna	4	Abril	2023-09-04T00:00:00	2024-11-08T04:00:00	1	Precipitación	0
47000	7	Sololá	717	San Juan la Laguna	12	San Juan la Laguna	4	Abril	2023-09-04T00:00:00	2024-11-08T04:00:00	8	Radiación solar	0
47001	7	Sololá	717	San Juan la Laguna	12	San Juan la Laguna	4	Abril	2023-09-04T00:00:00	2024-11-08T05:00:00	2	Temperatura media	12.7
47002	7	Sololá	717	San Juan la Laguna	12	San Juan la Laguna	4	Abril	2023-09-04T00:00:00	2024-11-08T05:00:00	4	Temperatura máxima	14.2
47003	7	Sololá	717	San Juan la Laguna	12	San Juan la Laguna	4	Abril	2023-09-04T00:00:00	2024-11-08T05:00:00	3	Temperatura mínima	12.7
47004	7	Sololá	717	San Juan la Laguna	12	San Juan la Laguna	4	Abril	2023-09-04T00:00:00	2024-11-08T05:00:00	5	Humedad	74
47005	7	Sololá	717	San Juan la Laguna	12	San Juan la Laguna	4	Abril	2023-09-04T00:00:00	2024-11-08T05:00:00	6	Velocidad del viento	0
47006	7	Sololá	717	San Juan la Laguna	12	San Juan la Laguna	4	Abril	2023-09-04T00:00:00	2024-11-08T05:00:00	7	Dirección del viento	0
47007	7	Sololá	717	San Juan la Laguna	12	San Juan la Laguna	4	Abril	2023-09-04T00:00:00	2024-11-08T05:00:00	1	Precipitación	0
47008	7	Sololá	717	San Juan la Laguna	12	San Juan la Laguna	4	Abril	2023-09-04T00:00:00	2024-11-08T05:00:00	8	Radiación solar	0
47009	7	Sololá	717	San Juan la Laguna	12	San Juan la Laguna	4	Abril	2023-09-04T00:00:00	2024-11-08T06:00:00	2	Temperatura media	12.8
47010	7	Sololá	717	San Juan la Laguna	12	San Juan la Laguna	4	Abril	2023-09-04T00:00:00	2024-11-08T06:00:00	4	Temperatura máxima	12.8
47011	7	Sololá	717	San Juan la Laguna	12	San Juan la Laguna	4	Abril	2023-09-04T00:00:00	2024-11-08T06:00:00	3	Temperatura mínima	12.2
47012	7	Sololá	717	San Juan la Laguna	12	San Juan la Laguna	4	Abril	2023-09-04T00:00:00	2024-11-08T06:00:00	5	Humedad	76
47013	7	Sololá	717	San Juan la Laguna	12	San Juan la Laguna	4	Abril	2023-09-04T00:00:00	2024-11-08T06:00:00	6	Velocidad del viento	0
47014	7	Sololá	717	San Juan la Laguna	12	San Juan la Laguna	4	Abril	2023-09-04T00:00:00	2024-11-08T06:00:00	7	Dirección del viento	0
47015	7	Sololá	717	San Juan la Laguna	12	San Juan la Laguna	4	Abril	2023-09-04T00:00:00	2024-11-08T06:00:00	1	Precipitación	0
47016	7	Sololá	717	San Juan la Laguna	12	San Juan la Laguna	4	Abril	2023-09-04T00:00:00	2024-11-08T06:00:00	8	Radiación solar	0
47017	7	Sololá	717	San Juan la Laguna	12	San Juan la Laguna	4	Abril	2023-09-04T00:00:00	2024-11-08T07:00:00	2	Temperatura media	15.2
47018	7	Sololá	717	San Juan la Laguna	12	San Juan la Laguna	4	Abril	2023-09-04T00:00:00	2024-11-08T07:00:00	4	Temperatura máxima	15.2
47019	7	Sololá	717	San Juan la Laguna	12	San Juan la Laguna	4	Abril	2023-09-04T00:00:00	2024-11-08T07:00:00	3	Temperatura mínima	12.7
47020	7	Sololá	717	San Juan la Laguna	12	San Juan la Laguna	4	Abril	2023-09-04T00:00:00	2024-11-08T07:00:00	5	Humedad	70
47021	7	Sololá	717	San Juan la Laguna	12	San Juan la Laguna	4	Abril	2023-09-04T00:00:00	2024-11-08T07:00:00	6	Velocidad del viento	0
47022	7	Sololá	717	San Juan la Laguna	12	San Juan la Laguna	4	Abril	2023-09-04T00:00:00	2024-11-08T07:00:00	7	Dirección del viento	0
47023	7	Sololá	717	San Juan la Laguna	12	San Juan la Laguna	4	Abril	2023-09-04T00:00:00	2024-11-08T07:00:00	1	Precipitación	0
47024	7	Sololá	717	San Juan la Laguna	12	San Juan la Laguna	4	Abril	2023-09-04T00:00:00	2024-11-08T07:00:00	8	Radiación solar	62
47025	7	Sololá	717	San Juan la Laguna	12	San Juan la Laguna	4	Abril	2023-09-04T00:00:00	2024-11-08T08:00:00	2	Temperatura media	20.7
47026	7	Sololá	717	San Juan la Laguna	12	San Juan la Laguna	4	Abril	2023-09-04T00:00:00	2024-11-08T08:00:00	4	Temperatura máxima	20.7
47027	7	Sololá	717	San Juan la Laguna	12	San Juan la Laguna	4	Abril	2023-09-04T00:00:00	2024-11-08T08:00:00	3	Temperatura mínima	15.2
47028	7	Sololá	717	San Juan la Laguna	12	San Juan la Laguna	4	Abril	2023-09-04T00:00:00	2024-11-08T08:00:00	5	Humedad	48
47029	7	Sololá	717	San Juan la Laguna	12	San Juan la Laguna	4	Abril	2023-09-04T00:00:00	2024-11-08T08:00:00	6	Velocidad del viento	0
47030	7	Sololá	717	San Juan la Laguna	12	San Juan la Laguna	4	Abril	2023-09-04T00:00:00	2024-11-08T08:00:00	7	Dirección del viento	0
47031	7	Sololá	717	San Juan la Laguna	12	San Juan la Laguna	4	Abril	2023-09-04T00:00:00	2024-11-08T08:00:00	1	Precipitación	0
47032	7	Sololá	717	San Juan la Laguna	12	San Juan la Laguna	4	Abril	2023-09-04T00:00:00	2024-11-08T08:00:00	8	Radiación solar	234
47033	7	Sololá	717	San Juan la Laguna	12	San Juan la Laguna	4	Abril	2023-09-04T00:00:00	2024-11-08T09:00:00	2	Temperatura media	22.4
47034	7	Sololá	717	San Juan la Laguna	12	San Juan la Laguna	4	Abril	2023-09-04T00:00:00	2024-11-08T09:00:00	4	Temperatura máxima	22.4
47035	7	Sololá	717	San Juan la Laguna	12	San Juan la Laguna	4	Abril	2023-09-04T00:00:00	2024-11-08T09:00:00	3	Temperatura mínima	20.7
47036	7	Sololá	717	San Juan la Laguna	12	San Juan la Laguna	4	Abril	2023-09-04T00:00:00	2024-11-08T09:00:00	5	Humedad	44
47037	7	Sololá	717	San Juan la Laguna	12	San Juan la Laguna	4	Abril	2023-09-04T00:00:00	2024-11-08T09:00:00	6	Velocidad del viento	1.6
47038	7	Sololá	717	San Juan la Laguna	12	San Juan la Laguna	4	Abril	2023-09-04T00:00:00	2024-11-08T09:00:00	7	Dirección del viento	1.61
47039	7	Sololá	717	San Juan la Laguna	12	San Juan la Laguna	4	Abril	2023-09-04T00:00:00	2024-11-08T09:00:00	1	Precipitación	0
47040	7	Sololá	717	San Juan la Laguna	12	San Juan la Laguna	4	Abril	2023-09-04T00:00:00	2024-11-08T09:00:00	8	Radiación solar	415
47041	7	Sololá	717	San Juan la Laguna	12	San Juan la Laguna	4	Abril	2023-09-04T00:00:00	2024-11-08T10:00:00	2	Temperatura media	23.4
47042	7	Sololá	717	San Juan la Laguna	12	San Juan la Laguna	4	Abril	2023-09-04T00:00:00	2024-11-08T10:00:00	4	Temperatura máxima	23.5
47043	7	Sololá	717	San Juan la Laguna	12	San Juan la Laguna	4	Abril	2023-09-04T00:00:00	2024-11-08T10:00:00	3	Temperatura mínima	22.4
47044	7	Sololá	717	San Juan la Laguna	12	San Juan la Laguna	4	Abril	2023-09-04T00:00:00	2024-11-08T10:00:00	5	Humedad	43
47045	7	Sololá	717	San Juan la Laguna	12	San Juan la Laguna	4	Abril	2023-09-04T00:00:00	2024-11-08T10:00:00	6	Velocidad del viento	3.2
47046	7	Sololá	717	San Juan la Laguna	12	San Juan la Laguna	4	Abril	2023-09-04T00:00:00	2024-11-08T10:00:00	7	Dirección del viento	3.22
47047	7	Sololá	717	San Juan la Laguna	12	San Juan la Laguna	4	Abril	2023-09-04T00:00:00	2024-11-08T10:00:00	1	Precipitación	0
47048	7	Sololá	717	San Juan la Laguna	12	San Juan la Laguna	4	Abril	2023-09-04T00:00:00	2024-11-08T10:00:00	8	Radiación solar	611
47049	7	Sololá	717	San Juan la Laguna	12	San Juan la Laguna	4	Abril	2023-09-04T00:00:00	2024-11-08T11:00:00	2	Temperatura media	23.9
47050	7	Sololá	717	San Juan la Laguna	12	San Juan la Laguna	4	Abril	2023-09-04T00:00:00	2024-11-08T11:00:00	4	Temperatura máxima	24.1
47051	7	Sololá	717	San Juan la Laguna	12	San Juan la Laguna	4	Abril	2023-09-04T00:00:00	2024-11-08T11:00:00	3	Temperatura mínima	23.3
47052	7	Sololá	717	San Juan la Laguna	12	San Juan la Laguna	4	Abril	2023-09-04T00:00:00	2024-11-08T11:00:00	5	Humedad	44
47053	7	Sololá	717	San Juan la Laguna	12	San Juan la Laguna	4	Abril	2023-09-04T00:00:00	2024-11-08T11:00:00	6	Velocidad del viento	4.8
47054	7	Sololá	717	San Juan la Laguna	12	San Juan la Laguna	4	Abril	2023-09-04T00:00:00	2024-11-08T11:00:00	7	Dirección del viento	4.83
47055	7	Sololá	717	San Juan la Laguna	12	San Juan la Laguna	4	Abril	2023-09-04T00:00:00	2024-11-08T11:00:00	1	Precipitación	0
47056	7	Sololá	717	San Juan la Laguna	12	San Juan la Laguna	4	Abril	2023-09-04T00:00:00	2024-11-08T11:00:00	8	Radiación solar	863
47057	7	Sololá	717	San Juan la Laguna	12	San Juan la Laguna	4	Abril	2023-09-04T00:00:00	2024-11-08T12:00:00	2	Temperatura media	25.7
47058	7	Sololá	717	San Juan la Laguna	12	San Juan la Laguna	4	Abril	2023-09-04T00:00:00	2024-11-08T12:00:00	4	Temperatura máxima	25.8
47059	7	Sololá	717	San Juan la Laguna	12	San Juan la Laguna	4	Abril	2023-09-04T00:00:00	2024-11-08T12:00:00	3	Temperatura mínima	23.9
47060	7	Sololá	717	San Juan la Laguna	12	San Juan la Laguna	4	Abril	2023-09-04T00:00:00	2024-11-08T12:00:00	5	Humedad	35
47061	7	Sololá	717	San Juan la Laguna	12	San Juan la Laguna	4	Abril	2023-09-04T00:00:00	2024-11-08T12:00:00	6	Velocidad del viento	3.2
47062	7	Sololá	717	San Juan la Laguna	12	San Juan la Laguna	4	Abril	2023-09-04T00:00:00	2024-11-08T12:00:00	7	Dirección del viento	3.22
47063	7	Sololá	717	San Juan la Laguna	12	San Juan la Laguna	4	Abril	2023-09-04T00:00:00	2024-11-08T12:00:00	1	Precipitación	0
47064	7	Sololá	717	San Juan la Laguna	12	San Juan la Laguna	4	Abril	2023-09-04T00:00:00	2024-11-08T12:00:00	8	Radiación solar	950
47065	7	Sololá	717	San Juan la Laguna	12	San Juan la Laguna	4	Abril	2023-09-04T00:00:00	2024-11-08T13:00:00	2	Temperatura media	24.1
47066	7	Sololá	717	San Juan la Laguna	12	San Juan la Laguna	4	Abril	2023-09-04T00:00:00	2024-11-08T13:00:00	4	Temperatura máxima	25.8
47067	7	Sololá	717	San Juan la Laguna	12	San Juan la Laguna	4	Abril	2023-09-04T00:00:00	2024-11-08T13:00:00	3	Temperatura mínima	23.8
47068	7	Sololá	717	San Juan la Laguna	12	San Juan la Laguna	4	Abril	2023-09-04T00:00:00	2024-11-08T13:00:00	5	Humedad	55
47069	7	Sololá	717	San Juan la Laguna	12	San Juan la Laguna	4	Abril	2023-09-04T00:00:00	2024-11-08T13:00:00	6	Velocidad del viento	4.8
47070	7	Sololá	717	San Juan la Laguna	12	San Juan la Laguna	4	Abril	2023-09-04T00:00:00	2024-11-08T13:00:00	7	Dirección del viento	4.83
47071	7	Sololá	717	San Juan la Laguna	12	San Juan la Laguna	4	Abril	2023-09-04T00:00:00	2024-11-08T13:00:00	1	Precipitación	0
47072	7	Sololá	717	San Juan la Laguna	12	San Juan la Laguna	4	Abril	2023-09-04T00:00:00	2024-11-08T13:00:00	8	Radiación solar	963
47073	7	Sololá	717	San Juan la Laguna	12	San Juan la Laguna	4	Abril	2023-09-04T00:00:00	2024-11-08T14:00:00	2	Temperatura media	23.9
47074	7	Sololá	717	San Juan la Laguna	12	San Juan la Laguna	4	Abril	2023-09-04T00:00:00	2024-11-08T14:00:00	4	Temperatura máxima	24.7
47075	7	Sololá	717	San Juan la Laguna	12	San Juan la Laguna	4	Abril	2023-09-04T00:00:00	2024-11-08T14:00:00	3	Temperatura mínima	23.6
47076	7	Sololá	717	San Juan la Laguna	12	San Juan la Laguna	4	Abril	2023-09-04T00:00:00	2024-11-08T14:00:00	5	Humedad	61
47077	7	Sololá	717	San Juan la Laguna	12	San Juan la Laguna	4	Abril	2023-09-04T00:00:00	2024-11-08T14:00:00	6	Velocidad del viento	6.4
47078	7	Sololá	717	San Juan la Laguna	12	San Juan la Laguna	4	Abril	2023-09-04T00:00:00	2024-11-08T14:00:00	7	Dirección del viento	6.44
47079	7	Sololá	717	San Juan la Laguna	12	San Juan la Laguna	4	Abril	2023-09-04T00:00:00	2024-11-08T14:00:00	1	Precipitación	0
47080	7	Sololá	717	San Juan la Laguna	12	San Juan la Laguna	4	Abril	2023-09-04T00:00:00	2024-11-08T14:00:00	8	Radiación solar	895
47081	7	Sololá	717	San Juan la Laguna	12	San Juan la Laguna	4	Abril	2023-09-04T00:00:00	2024-11-08T15:00:00	2	Temperatura media	22.6
47082	7	Sololá	717	San Juan la Laguna	12	San Juan la Laguna	4	Abril	2023-09-04T00:00:00	2024-11-08T15:00:00	4	Temperatura máxima	24
47083	7	Sololá	717	San Juan la Laguna	12	San Juan la Laguna	4	Abril	2023-09-04T00:00:00	2024-11-08T15:00:00	3	Temperatura mínima	22.5
47084	7	Sololá	717	San Juan la Laguna	12	San Juan la Laguna	4	Abril	2023-09-04T00:00:00	2024-11-08T15:00:00	5	Humedad	65
47085	7	Sololá	717	San Juan la Laguna	12	San Juan la Laguna	4	Abril	2023-09-04T00:00:00	2024-11-08T15:00:00	6	Velocidad del viento	8
47086	7	Sololá	717	San Juan la Laguna	12	San Juan la Laguna	4	Abril	2023-09-04T00:00:00	2024-11-08T15:00:00	7	Dirección del viento	8.05
47087	7	Sololá	717	San Juan la Laguna	12	San Juan la Laguna	4	Abril	2023-09-04T00:00:00	2024-11-08T15:00:00	1	Precipitación	0
47088	7	Sololá	717	San Juan la Laguna	12	San Juan la Laguna	4	Abril	2023-09-04T00:00:00	2024-11-08T15:00:00	8	Radiación solar	769
47089	7	Sololá	717	San Juan la Laguna	12	San Juan la Laguna	4	Abril	2023-09-04T00:00:00	2024-11-08T16:00:00	2	Temperatura media	22.2
47090	7	Sololá	717	San Juan la Laguna	12	San Juan la Laguna	4	Abril	2023-09-04T00:00:00	2024-11-08T16:00:00	4	Temperatura máxima	23.2
47091	7	Sololá	717	San Juan la Laguna	12	San Juan la Laguna	4	Abril	2023-09-04T00:00:00	2024-11-08T16:00:00	3	Temperatura mínima	22.2
47092	7	Sololá	717	San Juan la Laguna	12	San Juan la Laguna	4	Abril	2023-09-04T00:00:00	2024-11-08T16:00:00	5	Humedad	68
47093	7	Sololá	717	San Juan la Laguna	12	San Juan la Laguna	4	Abril	2023-09-04T00:00:00	2024-11-08T16:00:00	6	Velocidad del viento	6.4
47094	7	Sololá	717	San Juan la Laguna	12	San Juan la Laguna	4	Abril	2023-09-04T00:00:00	2024-11-08T16:00:00	7	Dirección del viento	6.44
47095	7	Sololá	717	San Juan la Laguna	12	San Juan la Laguna	4	Abril	2023-09-04T00:00:00	2024-11-08T16:00:00	1	Precipitación	0
47096	7	Sololá	717	San Juan la Laguna	12	San Juan la Laguna	4	Abril	2023-09-04T00:00:00	2024-11-08T16:00:00	8	Radiación solar	572
47097	7	Sololá	717	San Juan la Laguna	12	San Juan la Laguna	4	Abril	2023-09-04T00:00:00	2024-11-08T17:00:00	2	Temperatura media	21.6
47098	7	Sololá	717	San Juan la Laguna	12	San Juan la Laguna	4	Abril	2023-09-04T00:00:00	2024-11-08T17:00:00	4	Temperatura máxima	22.2
47099	7	Sololá	717	San Juan la Laguna	12	San Juan la Laguna	4	Abril	2023-09-04T00:00:00	2024-11-08T17:00:00	3	Temperatura mínima	21.3
47100	7	Sololá	717	San Juan la Laguna	12	San Juan la Laguna	4	Abril	2023-09-04T00:00:00	2024-11-08T17:00:00	5	Humedad	69
47101	7	Sololá	717	San Juan la Laguna	12	San Juan la Laguna	4	Abril	2023-09-04T00:00:00	2024-11-08T17:00:00	6	Velocidad del viento	4.8
47102	7	Sololá	717	San Juan la Laguna	12	San Juan la Laguna	4	Abril	2023-09-04T00:00:00	2024-11-08T17:00:00	7	Dirección del viento	4.83
47103	7	Sololá	717	San Juan la Laguna	12	San Juan la Laguna	4	Abril	2023-09-04T00:00:00	2024-11-08T17:00:00	1	Precipitación	0
47104	7	Sololá	717	San Juan la Laguna	12	San Juan la Laguna	4	Abril	2023-09-04T00:00:00	2024-11-08T17:00:00	8	Radiación solar	242
47105	7	Sololá	717	San Juan la Laguna	12	San Juan la Laguna	4	Abril	2023-09-04T00:00:00	2024-11-08T18:00:00	2	Temperatura media	20.8
47106	7	Sololá	717	San Juan la Laguna	12	San Juan la Laguna	4	Abril	2023-09-04T00:00:00	2024-11-08T18:00:00	4	Temperatura máxima	21.7
47107	7	Sololá	717	San Juan la Laguna	12	San Juan la Laguna	4	Abril	2023-09-04T00:00:00	2024-11-08T18:00:00	3	Temperatura mínima	20.8
47108	7	Sololá	717	San Juan la Laguna	12	San Juan la Laguna	4	Abril	2023-09-04T00:00:00	2024-11-08T18:00:00	5	Humedad	73
47109	7	Sololá	717	San Juan la Laguna	12	San Juan la Laguna	4	Abril	2023-09-04T00:00:00	2024-11-08T18:00:00	6	Velocidad del viento	0
47110	7	Sololá	717	San Juan la Laguna	12	San Juan la Laguna	4	Abril	2023-09-04T00:00:00	2024-11-08T18:00:00	7	Dirección del viento	0
47111	7	Sololá	717	San Juan la Laguna	12	San Juan la Laguna	4	Abril	2023-09-04T00:00:00	2024-11-08T18:00:00	1	Precipitación	0
47112	7	Sololá	717	San Juan la Laguna	12	San Juan la Laguna	4	Abril	2023-09-04T00:00:00	2024-11-08T18:00:00	8	Radiación solar	58
47113	7	Sololá	717	San Juan la Laguna	12	San Juan la Laguna	4	Abril	2023-09-04T00:00:00	2024-11-08T19:00:00	2	Temperatura media	19.4
47114	7	Sololá	717	San Juan la Laguna	12	San Juan la Laguna	4	Abril	2023-09-04T00:00:00	2024-11-08T19:00:00	4	Temperatura máxima	20.8
47115	7	Sololá	717	San Juan la Laguna	12	San Juan la Laguna	4	Abril	2023-09-04T00:00:00	2024-11-08T19:00:00	3	Temperatura mínima	19.4
47116	7	Sololá	717	San Juan la Laguna	12	San Juan la Laguna	4	Abril	2023-09-04T00:00:00	2024-11-08T19:00:00	5	Humedad	79
47117	7	Sololá	717	San Juan la Laguna	12	San Juan la Laguna	4	Abril	2023-09-04T00:00:00	2024-11-08T19:00:00	6	Velocidad del viento	0
47118	7	Sololá	717	San Juan la Laguna	12	San Juan la Laguna	4	Abril	2023-09-04T00:00:00	2024-11-08T19:00:00	7	Dirección del viento	0
47119	7	Sololá	717	San Juan la Laguna	12	San Juan la Laguna	4	Abril	2023-09-04T00:00:00	2024-11-08T19:00:00	1	Precipitación	0
47120	7	Sololá	717	San Juan la Laguna	12	San Juan la Laguna	4	Abril	2023-09-04T00:00:00	2024-11-08T19:00:00	8	Radiación solar	0
47121	7	Sololá	717	San Juan la Laguna	12	San Juan la Laguna	4	Abril	2023-09-04T00:00:00	2024-11-08T20:00:00	2	Temperatura media	19.9
47122	7	Sololá	717	San Juan la Laguna	12	San Juan la Laguna	4	Abril	2023-09-04T00:00:00	2024-11-08T20:00:00	4	Temperatura máxima	20.1
47123	7	Sololá	717	San Juan la Laguna	12	San Juan la Laguna	4	Abril	2023-09-04T00:00:00	2024-11-08T20:00:00	3	Temperatura mínima	19.3
47124	7	Sololá	717	San Juan la Laguna	12	San Juan la Laguna	4	Abril	2023-09-04T00:00:00	2024-11-08T20:00:00	5	Humedad	52
47125	7	Sololá	717	San Juan la Laguna	12	San Juan la Laguna	4	Abril	2023-09-04T00:00:00	2024-11-08T20:00:00	6	Velocidad del viento	3.2
47126	7	Sololá	717	San Juan la Laguna	12	San Juan la Laguna	4	Abril	2023-09-04T00:00:00	2024-11-08T20:00:00	7	Dirección del viento	3.22
47127	7	Sololá	717	San Juan la Laguna	12	San Juan la Laguna	4	Abril	2023-09-04T00:00:00	2024-11-08T20:00:00	1	Precipitación	0
47128	7	Sololá	717	San Juan la Laguna	12	San Juan la Laguna	4	Abril	2023-09-04T00:00:00	2024-11-08T20:00:00	8	Radiación solar	0
47129	7	Sololá	717	San Juan la Laguna	12	San Juan la Laguna	4	Abril	2023-09-04T00:00:00	2024-11-08T21:00:00	2	Temperatura media	19.4
47130	7	Sololá	717	San Juan la Laguna	12	San Juan la Laguna	4	Abril	2023-09-04T00:00:00	2024-11-08T21:00:00	4	Temperatura máxima	19.9
47131	7	Sololá	717	San Juan la Laguna	12	San Juan la Laguna	4	Abril	2023-09-04T00:00:00	2024-11-08T21:00:00	3	Temperatura mínima	19.4
47132	7	Sololá	717	San Juan la Laguna	12	San Juan la Laguna	4	Abril	2023-09-04T00:00:00	2024-11-08T21:00:00	5	Humedad	50
47133	7	Sololá	717	San Juan la Laguna	12	San Juan la Laguna	4	Abril	2023-09-04T00:00:00	2024-11-08T21:00:00	6	Velocidad del viento	4.8
47134	7	Sololá	717	San Juan la Laguna	12	San Juan la Laguna	4	Abril	2023-09-04T00:00:00	2024-11-08T21:00:00	7	Dirección del viento	4.83
47135	7	Sololá	717	San Juan la Laguna	12	San Juan la Laguna	4	Abril	2023-09-04T00:00:00	2024-11-08T21:00:00	1	Precipitación	0
47136	7	Sololá	717	San Juan la Laguna	12	San Juan la Laguna	4	Abril	2023-09-04T00:00:00	2024-11-08T21:00:00	8	Radiación solar	0
47137	7	Sololá	717	San Juan la Laguna	12	San Juan la Laguna	4	Abril	2023-09-04T00:00:00	2024-11-08T22:00:00	2	Temperatura media	17.8
47138	7	Sololá	717	San Juan la Laguna	12	San Juan la Laguna	4	Abril	2023-09-04T00:00:00	2024-11-08T22:00:00	4	Temperatura máxima	19.4
47139	7	Sololá	717	San Juan la Laguna	12	San Juan la Laguna	4	Abril	2023-09-04T00:00:00	2024-11-08T22:00:00	3	Temperatura mínima	17.8
47140	7	Sololá	717	San Juan la Laguna	12	San Juan la Laguna	4	Abril	2023-09-04T00:00:00	2024-11-08T22:00:00	5	Humedad	58
47141	7	Sololá	717	San Juan la Laguna	12	San Juan la Laguna	4	Abril	2023-09-04T00:00:00	2024-11-08T22:00:00	6	Velocidad del viento	3.2
47142	7	Sololá	717	San Juan la Laguna	12	San Juan la Laguna	4	Abril	2023-09-04T00:00:00	2024-11-08T22:00:00	7	Dirección del viento	3.22
47143	7	Sololá	717	San Juan la Laguna	12	San Juan la Laguna	4	Abril	2023-09-04T00:00:00	2024-11-08T22:00:00	1	Precipitación	0
47144	7	Sololá	717	San Juan la Laguna	12	San Juan la Laguna	4	Abril	2023-09-04T00:00:00	2024-11-08T22:00:00	8	Radiación solar	0
47145	7	Sololá	717	San Juan la Laguna	12	San Juan la Laguna	4	Abril	2023-09-04T00:00:00	2024-11-08T23:00:00	2	Temperatura media	16.9
47146	7	Sololá	717	San Juan la Laguna	12	San Juan la Laguna	4	Abril	2023-09-04T00:00:00	2024-11-08T23:00:00	4	Temperatura máxima	17.8
47147	7	Sololá	717	San Juan la Laguna	12	San Juan la Laguna	4	Abril	2023-09-04T00:00:00	2024-11-08T23:00:00	3	Temperatura mínima	16.6
47148	7	Sololá	717	San Juan la Laguna	12	San Juan la Laguna	4	Abril	2023-09-04T00:00:00	2024-11-08T23:00:00	5	Humedad	63
47149	7	Sololá	717	San Juan la Laguna	12	San Juan la Laguna	4	Abril	2023-09-04T00:00:00	2024-11-08T23:00:00	6	Velocidad del viento	0
47150	7	Sololá	717	San Juan la Laguna	12	San Juan la Laguna	4	Abril	2023-09-04T00:00:00	2024-11-08T23:00:00	7	Dirección del viento	0
47151	7	Sololá	717	San Juan la Laguna	12	San Juan la Laguna	4	Abril	2023-09-04T00:00:00	2024-11-08T23:00:00	1	Precipitación	0
47152	7	Sololá	717	San Juan la Laguna	12	San Juan la Laguna	4	Abril	2023-09-04T00:00:00	2024-11-08T23:00:00	8	Radiación solar	0
47153	7	Sololá	717	San Juan la Laguna	12	San Juan la Laguna	4	Abril	2023-10-04T00:00:00	2024-11-08T00:00:00	2	Temperatura media	16.3
47154	7	Sololá	717	San Juan la Laguna	12	San Juan la Laguna	4	Abril	2023-10-04T00:00:00	2024-11-08T00:00:00	4	Temperatura máxima	16.9
47155	7	Sololá	717	San Juan la Laguna	12	San Juan la Laguna	4	Abril	2023-10-04T00:00:00	2024-11-08T00:00:00	3	Temperatura mínima	16.2
47156	7	Sololá	717	San Juan la Laguna	12	San Juan la Laguna	4	Abril	2023-10-04T00:00:00	2024-11-08T00:00:00	5	Humedad	59
47157	7	Sololá	717	San Juan la Laguna	12	San Juan la Laguna	4	Abril	2023-10-04T00:00:00	2024-11-08T00:00:00	6	Velocidad del viento	0
47158	7	Sololá	717	San Juan la Laguna	12	San Juan la Laguna	4	Abril	2023-10-04T00:00:00	2024-11-08T00:00:00	7	Dirección del viento	0
47159	7	Sololá	717	San Juan la Laguna	12	San Juan la Laguna	4	Abril	2023-10-04T00:00:00	2024-11-08T00:00:00	1	Precipitación	0
47160	7	Sololá	717	San Juan la Laguna	12	San Juan la Laguna	4	Abril	2023-10-04T00:00:00	2024-11-08T00:00:00	8	Radiación solar	0
47161	7	Sololá	717	San Juan la Laguna	12	San Juan la Laguna	4	Abril	2023-10-04T00:00:00	2024-11-08T01:00:00	2	Temperatura media	14.2
47162	7	Sololá	717	San Juan la Laguna	12	San Juan la Laguna	4	Abril	2023-10-04T00:00:00	2024-11-08T01:00:00	4	Temperatura máxima	16.3
47163	7	Sololá	717	San Juan la Laguna	12	San Juan la Laguna	4	Abril	2023-10-04T00:00:00	2024-11-08T01:00:00	3	Temperatura mínima	14.1
47164	7	Sololá	717	San Juan la Laguna	12	San Juan la Laguna	4	Abril	2023-10-04T00:00:00	2024-11-08T01:00:00	5	Humedad	64
47165	7	Sololá	717	San Juan la Laguna	12	San Juan la Laguna	4	Abril	2023-10-04T00:00:00	2024-11-08T01:00:00	6	Velocidad del viento	0
47166	7	Sololá	717	San Juan la Laguna	12	San Juan la Laguna	4	Abril	2023-10-04T00:00:00	2024-11-08T01:00:00	7	Dirección del viento	0
47167	7	Sololá	717	San Juan la Laguna	12	San Juan la Laguna	4	Abril	2023-10-04T00:00:00	2024-11-08T01:00:00	1	Precipitación	0
47168	7	Sololá	717	San Juan la Laguna	12	San Juan la Laguna	4	Abril	2023-10-04T00:00:00	2024-11-08T01:00:00	8	Radiación solar	0
47169	7	Sololá	717	San Juan la Laguna	12	San Juan la Laguna	4	Abril	2023-10-04T00:00:00	2024-11-08T02:00:00	2	Temperatura media	13.8
47170	7	Sololá	717	San Juan la Laguna	12	San Juan la Laguna	4	Abril	2023-10-04T00:00:00	2024-11-08T02:00:00	4	Temperatura máxima	14.2
47171	7	Sololá	717	San Juan la Laguna	12	San Juan la Laguna	4	Abril	2023-10-04T00:00:00	2024-11-08T02:00:00	3	Temperatura mínima	13.7
47172	7	Sololá	717	San Juan la Laguna	12	San Juan la Laguna	4	Abril	2023-10-04T00:00:00	2024-11-08T02:00:00	5	Humedad	67
47173	7	Sololá	717	San Juan la Laguna	12	San Juan la Laguna	4	Abril	2023-10-04T00:00:00	2024-11-08T02:00:00	6	Velocidad del viento	0
47174	7	Sololá	717	San Juan la Laguna	12	San Juan la Laguna	4	Abril	2023-10-04T00:00:00	2024-11-08T02:00:00	7	Dirección del viento	0
47175	7	Sololá	717	San Juan la Laguna	12	San Juan la Laguna	4	Abril	2023-10-04T00:00:00	2024-11-08T02:00:00	1	Precipitación	0
47176	7	Sololá	717	San Juan la Laguna	12	San Juan la Laguna	4	Abril	2023-10-04T00:00:00	2024-11-08T02:00:00	8	Radiación solar	0
47177	7	Sololá	717	San Juan la Laguna	12	San Juan la Laguna	4	Abril	2023-10-04T00:00:00	2024-11-08T03:00:00	2	Temperatura media	13.7
47178	7	Sololá	717	San Juan la Laguna	12	San Juan la Laguna	4	Abril	2023-10-04T00:00:00	2024-11-08T03:00:00	4	Temperatura máxima	14.6
47179	7	Sololá	717	San Juan la Laguna	12	San Juan la Laguna	4	Abril	2023-10-04T00:00:00	2024-11-08T03:00:00	3	Temperatura mínima	13.7
47180	7	Sololá	717	San Juan la Laguna	12	San Juan la Laguna	4	Abril	2023-10-04T00:00:00	2024-11-08T03:00:00	5	Humedad	66
47181	7	Sololá	717	San Juan la Laguna	12	San Juan la Laguna	4	Abril	2023-10-04T00:00:00	2024-11-08T03:00:00	6	Velocidad del viento	1.6
47182	7	Sololá	717	San Juan la Laguna	12	San Juan la Laguna	4	Abril	2023-10-04T00:00:00	2024-11-08T03:00:00	7	Dirección del viento	1.61
47183	7	Sololá	717	San Juan la Laguna	12	San Juan la Laguna	4	Abril	2023-10-04T00:00:00	2024-11-08T03:00:00	1	Precipitación	0
47184	7	Sololá	717	San Juan la Laguna	12	San Juan la Laguna	4	Abril	2023-10-04T00:00:00	2024-11-08T03:00:00	8	Radiación solar	0
47185	7	Sololá	717	San Juan la Laguna	12	San Juan la Laguna	4	Abril	2023-10-04T00:00:00	2024-11-08T04:00:00	2	Temperatura media	13.6
47186	7	Sololá	717	San Juan la Laguna	12	San Juan la Laguna	4	Abril	2023-10-04T00:00:00	2024-11-08T04:00:00	4	Temperatura máxima	14.2
47187	7	Sololá	717	San Juan la Laguna	12	San Juan la Laguna	4	Abril	2023-10-04T00:00:00	2024-11-08T04:00:00	3	Temperatura mínima	13.6
47188	7	Sololá	717	San Juan la Laguna	12	San Juan la Laguna	4	Abril	2023-10-04T00:00:00	2024-11-08T04:00:00	5	Humedad	65
47189	7	Sololá	717	San Juan la Laguna	12	San Juan la Laguna	4	Abril	2023-10-04T00:00:00	2024-11-08T04:00:00	6	Velocidad del viento	1.6
47190	7	Sololá	717	San Juan la Laguna	12	San Juan la Laguna	4	Abril	2023-10-04T00:00:00	2024-11-08T04:00:00	7	Dirección del viento	1.61
47191	7	Sololá	717	San Juan la Laguna	12	San Juan la Laguna	4	Abril	2023-10-04T00:00:00	2024-11-08T04:00:00	1	Precipitación	0
47192	7	Sololá	717	San Juan la Laguna	12	San Juan la Laguna	4	Abril	2023-10-04T00:00:00	2024-11-08T04:00:00	8	Radiación solar	0
47193	7	Sololá	717	San Juan la Laguna	12	San Juan la Laguna	4	Abril	2023-10-04T00:00:00	2024-11-08T05:00:00	2	Temperatura media	13.4
47194	7	Sololá	717	San Juan la Laguna	12	San Juan la Laguna	4	Abril	2023-10-04T00:00:00	2024-11-08T05:00:00	4	Temperatura máxima	13.8
47195	7	Sololá	717	San Juan la Laguna	12	San Juan la Laguna	4	Abril	2023-10-04T00:00:00	2024-11-08T05:00:00	3	Temperatura mínima	13.3
47196	7	Sololá	717	San Juan la Laguna	12	San Juan la Laguna	4	Abril	2023-10-04T00:00:00	2024-11-08T05:00:00	5	Humedad	64
47197	7	Sololá	717	San Juan la Laguna	12	San Juan la Laguna	4	Abril	2023-10-04T00:00:00	2024-11-08T05:00:00	6	Velocidad del viento	1.6
47198	7	Sololá	717	San Juan la Laguna	12	San Juan la Laguna	4	Abril	2023-10-04T00:00:00	2024-11-08T05:00:00	7	Dirección del viento	1.61
47199	7	Sololá	717	San Juan la Laguna	12	San Juan la Laguna	4	Abril	2023-10-04T00:00:00	2024-11-08T05:00:00	1	Precipitación	0
47200	7	Sololá	717	San Juan la Laguna	12	San Juan la Laguna	4	Abril	2023-10-04T00:00:00	2024-11-08T05:00:00	8	Radiación solar	0
47201	7	Sololá	717	San Juan la Laguna	12	San Juan la Laguna	4	Abril	2023-10-04T00:00:00	2024-11-08T06:00:00	2	Temperatura media	12.9
47202	7	Sololá	717	San Juan la Laguna	12	San Juan la Laguna	4	Abril	2023-10-04T00:00:00	2024-11-08T06:00:00	4	Temperatura máxima	13.4
47203	7	Sololá	717	San Juan la Laguna	12	San Juan la Laguna	4	Abril	2023-10-04T00:00:00	2024-11-08T06:00:00	3	Temperatura mínima	12.8
47204	7	Sololá	717	San Juan la Laguna	12	San Juan la Laguna	4	Abril	2023-10-04T00:00:00	2024-11-08T06:00:00	5	Humedad	65
47205	7	Sololá	717	San Juan la Laguna	12	San Juan la Laguna	4	Abril	2023-10-04T00:00:00	2024-11-08T06:00:00	6	Velocidad del viento	0
47206	7	Sololá	717	San Juan la Laguna	12	San Juan la Laguna	4	Abril	2023-10-04T00:00:00	2024-11-08T06:00:00	7	Dirección del viento	0
47207	7	Sololá	717	San Juan la Laguna	12	San Juan la Laguna	4	Abril	2023-10-04T00:00:00	2024-11-08T06:00:00	1	Precipitación	0
47208	7	Sololá	717	San Juan la Laguna	12	San Juan la Laguna	4	Abril	2023-10-04T00:00:00	2024-11-08T06:00:00	8	Radiación solar	0
47209	7	Sololá	717	San Juan la Laguna	12	San Juan la Laguna	4	Abril	2023-10-04T00:00:00	2024-11-08T07:00:00	2	Temperatura media	15.2
47210	7	Sololá	717	San Juan la Laguna	12	San Juan la Laguna	4	Abril	2023-10-04T00:00:00	2024-11-08T07:00:00	4	Temperatura máxima	15.2
47211	7	Sololá	717	San Juan la Laguna	12	San Juan la Laguna	4	Abril	2023-10-04T00:00:00	2024-11-08T07:00:00	3	Temperatura mínima	12.9
47212	7	Sololá	717	San Juan la Laguna	12	San Juan la Laguna	4	Abril	2023-10-04T00:00:00	2024-11-08T07:00:00	5	Humedad	60
47213	7	Sololá	717	San Juan la Laguna	12	San Juan la Laguna	4	Abril	2023-10-04T00:00:00	2024-11-08T07:00:00	6	Velocidad del viento	0
47214	7	Sololá	717	San Juan la Laguna	12	San Juan la Laguna	4	Abril	2023-10-04T00:00:00	2024-11-08T07:00:00	7	Dirección del viento	0
47215	7	Sololá	717	San Juan la Laguna	12	San Juan la Laguna	4	Abril	2023-10-04T00:00:00	2024-11-08T07:00:00	1	Precipitación	0
47216	7	Sololá	717	San Juan la Laguna	12	San Juan la Laguna	4	Abril	2023-10-04T00:00:00	2024-11-08T07:00:00	8	Radiación solar	65
47217	7	Sololá	717	San Juan la Laguna	12	San Juan la Laguna	4	Abril	2023-10-04T00:00:00	2024-11-08T08:00:00	2	Temperatura media	19.6
47218	7	Sololá	717	San Juan la Laguna	12	San Juan la Laguna	4	Abril	2023-10-04T00:00:00	2024-11-08T08:00:00	4	Temperatura máxima	19.6
47219	7	Sololá	717	San Juan la Laguna	12	San Juan la Laguna	4	Abril	2023-10-04T00:00:00	2024-11-08T08:00:00	3	Temperatura mínima	15.2
47220	7	Sololá	717	San Juan la Laguna	12	San Juan la Laguna	4	Abril	2023-10-04T00:00:00	2024-11-08T08:00:00	5	Humedad	51
47221	7	Sololá	717	San Juan la Laguna	12	San Juan la Laguna	4	Abril	2023-10-04T00:00:00	2024-11-08T08:00:00	6	Velocidad del viento	0
47222	7	Sololá	717	San Juan la Laguna	12	San Juan la Laguna	4	Abril	2023-10-04T00:00:00	2024-11-08T08:00:00	7	Dirección del viento	0
47223	7	Sololá	717	San Juan la Laguna	12	San Juan la Laguna	4	Abril	2023-10-04T00:00:00	2024-11-08T08:00:00	1	Precipitación	0
47224	7	Sololá	717	San Juan la Laguna	12	San Juan la Laguna	4	Abril	2023-10-04T00:00:00	2024-11-08T08:00:00	8	Radiación solar	235
47225	7	Sololá	717	San Juan la Laguna	12	San Juan la Laguna	4	Abril	2023-10-04T00:00:00	2024-11-08T09:00:00	2	Temperatura media	21.2
47226	7	Sololá	717	San Juan la Laguna	12	San Juan la Laguna	4	Abril	2023-10-04T00:00:00	2024-11-08T09:00:00	4	Temperatura máxima	21.2
47227	7	Sololá	717	San Juan la Laguna	12	San Juan la Laguna	4	Abril	2023-10-04T00:00:00	2024-11-08T09:00:00	3	Temperatura mínima	19.6
47228	7	Sololá	717	San Juan la Laguna	12	San Juan la Laguna	4	Abril	2023-10-04T00:00:00	2024-11-08T09:00:00	5	Humedad	47
47229	7	Sololá	717	San Juan la Laguna	12	San Juan la Laguna	4	Abril	2023-10-04T00:00:00	2024-11-08T09:00:00	6	Velocidad del viento	1.6
47230	7	Sololá	717	San Juan la Laguna	12	San Juan la Laguna	4	Abril	2023-10-04T00:00:00	2024-11-08T09:00:00	7	Dirección del viento	1.61
47231	7	Sololá	717	San Juan la Laguna	12	San Juan la Laguna	4	Abril	2023-10-04T00:00:00	2024-11-08T09:00:00	1	Precipitación	0
47232	7	Sololá	717	San Juan la Laguna	12	San Juan la Laguna	4	Abril	2023-10-04T00:00:00	2024-11-08T09:00:00	8	Radiación solar	415
47233	7	Sololá	717	San Juan la Laguna	12	San Juan la Laguna	4	Abril	2023-10-04T00:00:00	2024-11-08T10:00:00	2	Temperatura media	23.2
47234	7	Sololá	717	San Juan la Laguna	12	San Juan la Laguna	4	Abril	2023-10-04T00:00:00	2024-11-08T10:00:00	4	Temperatura máxima	23.2
47235	7	Sololá	717	San Juan la Laguna	12	San Juan la Laguna	4	Abril	2023-10-04T00:00:00	2024-11-08T10:00:00	3	Temperatura mínima	21.2
47236	7	Sololá	717	San Juan la Laguna	12	San Juan la Laguna	4	Abril	2023-10-04T00:00:00	2024-11-08T10:00:00	5	Humedad	46
47237	7	Sololá	717	San Juan la Laguna	12	San Juan la Laguna	4	Abril	2023-10-04T00:00:00	2024-11-08T10:00:00	6	Velocidad del viento	1.6
47238	7	Sololá	717	San Juan la Laguna	12	San Juan la Laguna	4	Abril	2023-10-04T00:00:00	2024-11-08T10:00:00	7	Dirección del viento	1.61
47239	7	Sololá	717	San Juan la Laguna	12	San Juan la Laguna	4	Abril	2023-10-04T00:00:00	2024-11-08T10:00:00	1	Precipitación	0
47240	7	Sololá	717	San Juan la Laguna	12	San Juan la Laguna	4	Abril	2023-10-04T00:00:00	2024-11-08T10:00:00	8	Radiación solar	603
47241	7	Sololá	717	San Juan la Laguna	12	San Juan la Laguna	4	Abril	2023-10-04T00:00:00	2024-11-08T11:00:00	2	Temperatura media	23.8
47242	7	Sololá	717	San Juan la Laguna	12	San Juan la Laguna	4	Abril	2023-10-04T00:00:00	2024-11-08T11:00:00	4	Temperatura máxima	23.8
47243	7	Sololá	717	San Juan la Laguna	12	San Juan la Laguna	4	Abril	2023-10-04T00:00:00	2024-11-08T11:00:00	3	Temperatura mínima	23.2
47244	7	Sololá	717	San Juan la Laguna	12	San Juan la Laguna	4	Abril	2023-10-04T00:00:00	2024-11-08T11:00:00	5	Humedad	42
47245	7	Sololá	717	San Juan la Laguna	12	San Juan la Laguna	4	Abril	2023-10-04T00:00:00	2024-11-08T11:00:00	6	Velocidad del viento	3.2
47246	7	Sololá	717	San Juan la Laguna	12	San Juan la Laguna	4	Abril	2023-10-04T00:00:00	2024-11-08T11:00:00	7	Dirección del viento	3.22
47247	7	Sololá	717	San Juan la Laguna	12	San Juan la Laguna	4	Abril	2023-10-04T00:00:00	2024-11-08T11:00:00	1	Precipitación	0
47248	7	Sololá	717	San Juan la Laguna	12	San Juan la Laguna	4	Abril	2023-10-04T00:00:00	2024-11-08T11:00:00	8	Radiación solar	863
47249	7	Sololá	717	San Juan la Laguna	12	San Juan la Laguna	4	Abril	2023-10-04T00:00:00	2024-11-08T12:00:00	2	Temperatura media	25
47250	7	Sololá	717	San Juan la Laguna	12	San Juan la Laguna	4	Abril	2023-10-04T00:00:00	2024-11-08T12:00:00	4	Temperatura máxima	25
47251	7	Sololá	717	San Juan la Laguna	12	San Juan la Laguna	4	Abril	2023-10-04T00:00:00	2024-11-08T12:00:00	3	Temperatura mínima	23.8
47252	7	Sololá	717	San Juan la Laguna	12	San Juan la Laguna	4	Abril	2023-10-04T00:00:00	2024-11-08T12:00:00	5	Humedad	37
47253	7	Sololá	717	San Juan la Laguna	12	San Juan la Laguna	4	Abril	2023-10-04T00:00:00	2024-11-08T12:00:00	6	Velocidad del viento	1.6
47254	7	Sololá	717	San Juan la Laguna	12	San Juan la Laguna	4	Abril	2023-10-04T00:00:00	2024-11-08T12:00:00	7	Dirección del viento	1.61
47255	7	Sololá	717	San Juan la Laguna	12	San Juan la Laguna	4	Abril	2023-10-04T00:00:00	2024-11-08T12:00:00	1	Precipitación	0
47256	7	Sololá	717	San Juan la Laguna	12	San Juan la Laguna	4	Abril	2023-10-04T00:00:00	2024-11-08T12:00:00	8	Radiación solar	950
47257	7	Sololá	717	San Juan la Laguna	12	San Juan la Laguna	4	Abril	2023-10-04T00:00:00	2024-11-08T13:00:00	2	Temperatura media	25.7
47258	7	Sololá	717	San Juan la Laguna	12	San Juan la Laguna	4	Abril	2023-10-04T00:00:00	2024-11-08T13:00:00	4	Temperatura máxima	25.8
47259	7	Sololá	717	San Juan la Laguna	12	San Juan la Laguna	4	Abril	2023-10-04T00:00:00	2024-11-08T13:00:00	3	Temperatura mínima	24.7
47260	7	Sololá	717	San Juan la Laguna	12	San Juan la Laguna	4	Abril	2023-10-04T00:00:00	2024-11-08T13:00:00	5	Humedad	38
47261	7	Sololá	717	San Juan la Laguna	12	San Juan la Laguna	4	Abril	2023-10-04T00:00:00	2024-11-08T13:00:00	6	Velocidad del viento	1.6
47262	7	Sololá	717	San Juan la Laguna	12	San Juan la Laguna	4	Abril	2023-10-04T00:00:00	2024-11-08T13:00:00	7	Dirección del viento	1.61
47263	7	Sololá	717	San Juan la Laguna	12	San Juan la Laguna	4	Abril	2023-10-04T00:00:00	2024-11-08T13:00:00	1	Precipitación	0
47264	7	Sololá	717	San Juan la Laguna	12	San Juan la Laguna	4	Abril	2023-10-04T00:00:00	2024-11-08T13:00:00	8	Radiación solar	957
47265	7	Sololá	717	San Juan la Laguna	12	San Juan la Laguna	4	Abril	2023-10-04T00:00:00	2024-11-08T14:00:00	2	Temperatura media	24.6
47266	7	Sololá	717	San Juan la Laguna	12	San Juan la Laguna	4	Abril	2023-10-04T00:00:00	2024-11-08T14:00:00	4	Temperatura máxima	25.8
47267	7	Sololá	717	San Juan la Laguna	12	San Juan la Laguna	4	Abril	2023-10-04T00:00:00	2024-11-08T14:00:00	3	Temperatura mínima	23.7
47268	7	Sololá	717	San Juan la Laguna	12	San Juan la Laguna	4	Abril	2023-10-04T00:00:00	2024-11-08T14:00:00	5	Humedad	49
47269	7	Sololá	717	San Juan la Laguna	12	San Juan la Laguna	4	Abril	2023-10-04T00:00:00	2024-11-08T14:00:00	6	Velocidad del viento	8
47270	7	Sololá	717	San Juan la Laguna	12	San Juan la Laguna	4	Abril	2023-10-04T00:00:00	2024-11-08T14:00:00	7	Dirección del viento	8.05
47271	7	Sololá	717	San Juan la Laguna	12	San Juan la Laguna	4	Abril	2023-10-04T00:00:00	2024-11-08T14:00:00	1	Precipitación	0
47272	7	Sololá	717	San Juan la Laguna	12	San Juan la Laguna	4	Abril	2023-10-04T00:00:00	2024-11-08T14:00:00	8	Radiación solar	892
47273	7	Sololá	717	San Juan la Laguna	12	San Juan la Laguna	4	Abril	2023-10-04T00:00:00	2024-11-08T15:00:00	2	Temperatura media	24
47274	7	Sololá	717	San Juan la Laguna	12	San Juan la Laguna	4	Abril	2023-10-04T00:00:00	2024-11-08T15:00:00	4	Temperatura máxima	24.6
47275	7	Sololá	717	San Juan la Laguna	12	San Juan la Laguna	4	Abril	2023-10-04T00:00:00	2024-11-08T15:00:00	3	Temperatura mínima	23.9
47276	7	Sololá	717	San Juan la Laguna	12	San Juan la Laguna	4	Abril	2023-10-04T00:00:00	2024-11-08T15:00:00	5	Humedad	52
47277	7	Sololá	717	San Juan la Laguna	12	San Juan la Laguna	4	Abril	2023-10-04T00:00:00	2024-11-08T15:00:00	6	Velocidad del viento	6.4
47278	7	Sololá	717	San Juan la Laguna	12	San Juan la Laguna	4	Abril	2023-10-04T00:00:00	2024-11-08T15:00:00	7	Dirección del viento	6.44
47279	7	Sololá	717	San Juan la Laguna	12	San Juan la Laguna	4	Abril	2023-10-04T00:00:00	2024-11-08T15:00:00	1	Precipitación	0
47280	7	Sololá	717	San Juan la Laguna	12	San Juan la Laguna	4	Abril	2023-10-04T00:00:00	2024-11-08T15:00:00	8	Radiación solar	764
47281	7	Sololá	717	San Juan la Laguna	12	San Juan la Laguna	4	Abril	2023-10-04T00:00:00	2024-11-08T16:00:00	2	Temperatura media	23.4
47282	7	Sololá	717	San Juan la Laguna	12	San Juan la Laguna	4	Abril	2023-10-04T00:00:00	2024-11-08T16:00:00	4	Temperatura máxima	24.1
47283	7	Sololá	717	San Juan la Laguna	12	San Juan la Laguna	4	Abril	2023-10-04T00:00:00	2024-11-08T16:00:00	3	Temperatura mínima	23.4
47284	7	Sololá	717	San Juan la Laguna	12	San Juan la Laguna	4	Abril	2023-10-04T00:00:00	2024-11-08T16:00:00	5	Humedad	56
47285	7	Sololá	717	San Juan la Laguna	12	San Juan la Laguna	4	Abril	2023-10-04T00:00:00	2024-11-08T16:00:00	6	Velocidad del viento	6.4
47286	7	Sololá	717	San Juan la Laguna	12	San Juan la Laguna	4	Abril	2023-10-04T00:00:00	2024-11-08T16:00:00	7	Dirección del viento	6.44
47287	7	Sololá	717	San Juan la Laguna	12	San Juan la Laguna	4	Abril	2023-10-04T00:00:00	2024-11-08T16:00:00	1	Precipitación	0
47288	7	Sololá	717	San Juan la Laguna	12	San Juan la Laguna	4	Abril	2023-10-04T00:00:00	2024-11-08T16:00:00	8	Radiación solar	570
47289	7	Sololá	717	San Juan la Laguna	12	San Juan la Laguna	4	Abril	2023-10-04T00:00:00	2024-11-08T17:00:00	2	Temperatura media	22.2
47290	7	Sololá	717	San Juan la Laguna	12	San Juan la Laguna	4	Abril	2023-10-04T00:00:00	2024-11-08T17:00:00	4	Temperatura máxima	23.4
47291	7	Sololá	717	San Juan la Laguna	12	San Juan la Laguna	4	Abril	2023-10-04T00:00:00	2024-11-08T17:00:00	3	Temperatura mínima	22.2
47292	7	Sololá	717	San Juan la Laguna	12	San Juan la Laguna	4	Abril	2023-10-04T00:00:00	2024-11-08T17:00:00	5	Humedad	67
47293	7	Sololá	717	San Juan la Laguna	12	San Juan la Laguna	4	Abril	2023-10-04T00:00:00	2024-11-08T17:00:00	6	Velocidad del viento	3.2
47294	7	Sololá	717	San Juan la Laguna	12	San Juan la Laguna	4	Abril	2023-10-04T00:00:00	2024-11-08T17:00:00	7	Dirección del viento	3.22
47295	7	Sololá	717	San Juan la Laguna	12	San Juan la Laguna	4	Abril	2023-10-04T00:00:00	2024-11-08T17:00:00	1	Precipitación	0
47296	7	Sololá	717	San Juan la Laguna	12	San Juan la Laguna	4	Abril	2023-10-04T00:00:00	2024-11-08T17:00:00	8	Radiación solar	349
47297	7	Sololá	717	San Juan la Laguna	12	San Juan la Laguna	4	Abril	2023-10-04T00:00:00	2024-11-08T18:00:00	2	Temperatura media	21.3
47298	7	Sololá	717	San Juan la Laguna	12	San Juan la Laguna	4	Abril	2023-10-04T00:00:00	2024-11-08T18:00:00	4	Temperatura máxima	22.3
47299	7	Sololá	717	San Juan la Laguna	12	San Juan la Laguna	4	Abril	2023-10-04T00:00:00	2024-11-08T18:00:00	3	Temperatura mínima	21.3
47300	7	Sololá	717	San Juan la Laguna	12	San Juan la Laguna	4	Abril	2023-10-04T00:00:00	2024-11-08T18:00:00	5	Humedad	64
47301	7	Sololá	717	San Juan la Laguna	12	San Juan la Laguna	4	Abril	2023-10-04T00:00:00	2024-11-08T18:00:00	6	Velocidad del viento	1.6
47302	7	Sololá	717	San Juan la Laguna	12	San Juan la Laguna	4	Abril	2023-10-04T00:00:00	2024-11-08T18:00:00	7	Dirección del viento	1.61
47303	7	Sololá	717	San Juan la Laguna	12	San Juan la Laguna	4	Abril	2023-10-04T00:00:00	2024-11-08T18:00:00	1	Precipitación	0
47304	7	Sololá	717	San Juan la Laguna	12	San Juan la Laguna	4	Abril	2023-10-04T00:00:00	2024-11-08T18:00:00	8	Radiación solar	55
47305	7	Sololá	717	San Juan la Laguna	12	San Juan la Laguna	4	Abril	2023-10-04T00:00:00	2024-11-08T19:00:00	2	Temperatura media	20.8
47306	7	Sololá	717	San Juan la Laguna	12	San Juan la Laguna	4	Abril	2023-10-04T00:00:00	2024-11-08T19:00:00	4	Temperatura máxima	21.5
47307	7	Sololá	717	San Juan la Laguna	12	San Juan la Laguna	4	Abril	2023-10-04T00:00:00	2024-11-08T19:00:00	3	Temperatura mínima	20.8
47308	7	Sololá	717	San Juan la Laguna	12	San Juan la Laguna	4	Abril	2023-10-04T00:00:00	2024-11-08T19:00:00	5	Humedad	51
47309	7	Sololá	717	San Juan la Laguna	12	San Juan la Laguna	4	Abril	2023-10-04T00:00:00	2024-11-08T19:00:00	6	Velocidad del viento	3.2
47310	7	Sololá	717	San Juan la Laguna	12	San Juan la Laguna	4	Abril	2023-10-04T00:00:00	2024-11-08T19:00:00	7	Dirección del viento	3.22
47311	7	Sololá	717	San Juan la Laguna	12	San Juan la Laguna	4	Abril	2023-10-04T00:00:00	2024-11-08T19:00:00	1	Precipitación	0
47312	7	Sololá	717	San Juan la Laguna	12	San Juan la Laguna	4	Abril	2023-10-04T00:00:00	2024-11-08T19:00:00	8	Radiación solar	0
47313	7	Sololá	717	San Juan la Laguna	12	San Juan la Laguna	4	Abril	2023-10-04T00:00:00	2024-11-08T20:00:00	2	Temperatura media	19.7
47314	7	Sololá	717	San Juan la Laguna	12	San Juan la Laguna	4	Abril	2023-10-04T00:00:00	2024-11-08T20:00:00	4	Temperatura máxima	20.8
47315	7	Sololá	717	San Juan la Laguna	12	San Juan la Laguna	4	Abril	2023-10-04T00:00:00	2024-11-08T20:00:00	3	Temperatura mínima	19.7
47316	7	Sololá	717	San Juan la Laguna	12	San Juan la Laguna	4	Abril	2023-10-04T00:00:00	2024-11-08T20:00:00	5	Humedad	57
47317	7	Sololá	717	San Juan la Laguna	12	San Juan la Laguna	4	Abril	2023-10-04T00:00:00	2024-11-08T20:00:00	6	Velocidad del viento	4.8
47318	7	Sololá	717	San Juan la Laguna	12	San Juan la Laguna	4	Abril	2023-10-04T00:00:00	2024-11-08T20:00:00	7	Dirección del viento	4.83
47319	7	Sololá	717	San Juan la Laguna	12	San Juan la Laguna	4	Abril	2023-10-04T00:00:00	2024-11-08T20:00:00	1	Precipitación	0
47320	7	Sololá	717	San Juan la Laguna	12	San Juan la Laguna	4	Abril	2023-10-04T00:00:00	2024-11-08T20:00:00	8	Radiación solar	0
47321	7	Sololá	717	San Juan la Laguna	12	San Juan la Laguna	4	Abril	2023-10-04T00:00:00	2024-11-08T21:00:00	2	Temperatura media	19
47322	7	Sololá	717	San Juan la Laguna	12	San Juan la Laguna	4	Abril	2023-10-04T00:00:00	2024-11-08T21:00:00	4	Temperatura máxima	19.7
47323	7	Sololá	717	San Juan la Laguna	12	San Juan la Laguna	4	Abril	2023-10-04T00:00:00	2024-11-08T21:00:00	3	Temperatura mínima	19
47324	7	Sololá	717	San Juan la Laguna	12	San Juan la Laguna	4	Abril	2023-10-04T00:00:00	2024-11-08T21:00:00	5	Humedad	60
47325	7	Sololá	717	San Juan la Laguna	12	San Juan la Laguna	4	Abril	2023-10-04T00:00:00	2024-11-08T21:00:00	6	Velocidad del viento	3.2
47326	7	Sololá	717	San Juan la Laguna	12	San Juan la Laguna	4	Abril	2023-10-04T00:00:00	2024-11-08T21:00:00	7	Dirección del viento	3.22
47327	7	Sololá	717	San Juan la Laguna	12	San Juan la Laguna	4	Abril	2023-10-04T00:00:00	2024-11-08T21:00:00	1	Precipitación	0
47328	7	Sololá	717	San Juan la Laguna	12	San Juan la Laguna	4	Abril	2023-10-04T00:00:00	2024-11-08T21:00:00	8	Radiación solar	0
47329	7	Sololá	717	San Juan la Laguna	12	San Juan la Laguna	4	Abril	2023-10-04T00:00:00	2024-11-08T22:00:00	2	Temperatura media	18.7
47330	7	Sololá	717	San Juan la Laguna	12	San Juan la Laguna	4	Abril	2023-10-04T00:00:00	2024-11-08T22:00:00	4	Temperatura máxima	19.1
47331	7	Sololá	717	San Juan la Laguna	12	San Juan la Laguna	4	Abril	2023-10-04T00:00:00	2024-11-08T22:00:00	3	Temperatura mínima	18.3
47332	7	Sololá	717	San Juan la Laguna	12	San Juan la Laguna	4	Abril	2023-10-04T00:00:00	2024-11-08T22:00:00	5	Humedad	56
47333	7	Sololá	717	San Juan la Laguna	12	San Juan la Laguna	4	Abril	2023-10-04T00:00:00	2024-11-08T22:00:00	6	Velocidad del viento	1.6
47334	7	Sololá	717	San Juan la Laguna	12	San Juan la Laguna	4	Abril	2023-10-04T00:00:00	2024-11-08T22:00:00	7	Dirección del viento	1.61
47335	7	Sololá	717	San Juan la Laguna	12	San Juan la Laguna	4	Abril	2023-10-04T00:00:00	2024-11-08T22:00:00	1	Precipitación	0
47336	7	Sololá	717	San Juan la Laguna	12	San Juan la Laguna	4	Abril	2023-10-04T00:00:00	2024-11-08T22:00:00	8	Radiación solar	0
47337	7	Sololá	717	San Juan la Laguna	12	San Juan la Laguna	4	Abril	2023-10-04T00:00:00	2024-11-08T23:00:00	2	Temperatura media	17.6
47338	7	Sololá	717	San Juan la Laguna	12	San Juan la Laguna	4	Abril	2023-10-04T00:00:00	2024-11-08T23:00:00	4	Temperatura máxima	18.7
47339	7	Sololá	717	San Juan la Laguna	12	San Juan la Laguna	4	Abril	2023-10-04T00:00:00	2024-11-08T23:00:00	3	Temperatura mínima	16.6
47340	7	Sololá	717	San Juan la Laguna	12	San Juan la Laguna	4	Abril	2023-10-04T00:00:00	2024-11-08T23:00:00	5	Humedad	60
47341	7	Sololá	717	San Juan la Laguna	12	San Juan la Laguna	4	Abril	2023-10-04T00:00:00	2024-11-08T23:00:00	6	Velocidad del viento	0
47342	7	Sololá	717	San Juan la Laguna	12	San Juan la Laguna	4	Abril	2023-10-04T00:00:00	2024-11-08T23:00:00	7	Dirección del viento	0
47343	7	Sololá	717	San Juan la Laguna	12	San Juan la Laguna	4	Abril	2023-10-04T00:00:00	2024-11-08T23:00:00	1	Precipitación	0
47344	7	Sololá	717	San Juan la Laguna	12	San Juan la Laguna	4	Abril	2023-10-04T00:00:00	2024-11-08T23:00:00	8	Radiación solar	0
47345	7	Sololá	717	San Juan la Laguna	12	San Juan la Laguna	4	Abril	2023-11-04T00:00:00	2024-11-08T00:00:00	2	Temperatura media	16.1
47346	7	Sololá	717	San Juan la Laguna	12	San Juan la Laguna	4	Abril	2023-11-04T00:00:00	2024-11-08T00:00:00	4	Temperatura máxima	18.1
47347	7	Sololá	717	San Juan la Laguna	12	San Juan la Laguna	4	Abril	2023-11-04T00:00:00	2024-11-08T00:00:00	3	Temperatura mínima	15.9
47348	7	Sololá	717	San Juan la Laguna	12	San Juan la Laguna	4	Abril	2023-11-04T00:00:00	2024-11-08T00:00:00	5	Humedad	64
47349	7	Sololá	717	San Juan la Laguna	12	San Juan la Laguna	4	Abril	2023-11-04T00:00:00	2024-11-08T00:00:00	6	Velocidad del viento	0
47350	7	Sololá	717	San Juan la Laguna	12	San Juan la Laguna	4	Abril	2023-11-04T00:00:00	2024-11-08T00:00:00	7	Dirección del viento	0
47351	7	Sololá	717	San Juan la Laguna	12	San Juan la Laguna	4	Abril	2023-11-04T00:00:00	2024-11-08T00:00:00	1	Precipitación	0
47352	7	Sololá	717	San Juan la Laguna	12	San Juan la Laguna	4	Abril	2023-11-04T00:00:00	2024-11-08T00:00:00	8	Radiación solar	0
47353	7	Sololá	717	San Juan la Laguna	12	San Juan la Laguna	4	Abril	2023-11-04T00:00:00	2024-11-08T01:00:00	2	Temperatura media	15
47354	7	Sololá	717	San Juan la Laguna	12	San Juan la Laguna	4	Abril	2023-11-04T00:00:00	2024-11-08T01:00:00	4	Temperatura máxima	16.1
47355	7	Sololá	717	San Juan la Laguna	12	San Juan la Laguna	4	Abril	2023-11-04T00:00:00	2024-11-08T01:00:00	3	Temperatura mínima	14.9
47356	7	Sololá	717	San Juan la Laguna	12	San Juan la Laguna	4	Abril	2023-11-04T00:00:00	2024-11-08T01:00:00	5	Humedad	67
47357	7	Sololá	717	San Juan la Laguna	12	San Juan la Laguna	4	Abril	2023-11-04T00:00:00	2024-11-08T01:00:00	6	Velocidad del viento	0
47358	7	Sololá	717	San Juan la Laguna	12	San Juan la Laguna	4	Abril	2023-11-04T00:00:00	2024-11-08T01:00:00	7	Dirección del viento	0
47359	7	Sololá	717	San Juan la Laguna	12	San Juan la Laguna	4	Abril	2023-11-04T00:00:00	2024-11-08T01:00:00	1	Precipitación	0
47360	7	Sololá	717	San Juan la Laguna	12	San Juan la Laguna	4	Abril	2023-11-04T00:00:00	2024-11-08T01:00:00	8	Radiación solar	0
47361	7	Sololá	717	San Juan la Laguna	12	San Juan la Laguna	4	Abril	2023-11-04T00:00:00	2024-11-08T02:00:00	2	Temperatura media	14.8
47362	7	Sololá	717	San Juan la Laguna	12	San Juan la Laguna	4	Abril	2023-11-04T00:00:00	2024-11-08T02:00:00	4	Temperatura máxima	15.9
47363	7	Sololá	717	San Juan la Laguna	12	San Juan la Laguna	4	Abril	2023-11-04T00:00:00	2024-11-08T02:00:00	3	Temperatura mínima	14.8
47364	7	Sololá	717	San Juan la Laguna	12	San Juan la Laguna	4	Abril	2023-11-04T00:00:00	2024-11-08T02:00:00	5	Humedad	67
47365	7	Sololá	717	San Juan la Laguna	12	San Juan la Laguna	4	Abril	2023-11-04T00:00:00	2024-11-08T02:00:00	6	Velocidad del viento	0
47366	7	Sololá	717	San Juan la Laguna	12	San Juan la Laguna	4	Abril	2023-11-04T00:00:00	2024-11-08T02:00:00	7	Dirección del viento	0
47367	7	Sololá	717	San Juan la Laguna	12	San Juan la Laguna	4	Abril	2023-11-04T00:00:00	2024-11-08T02:00:00	1	Precipitación	0
47368	7	Sololá	717	San Juan la Laguna	12	San Juan la Laguna	4	Abril	2023-11-04T00:00:00	2024-11-08T02:00:00	8	Radiación solar	0
47369	7	Sololá	717	San Juan la Laguna	12	San Juan la Laguna	4	Abril	2023-11-04T00:00:00	2024-11-08T03:00:00	2	Temperatura media	15.2
47370	7	Sololá	717	San Juan la Laguna	12	San Juan la Laguna	4	Abril	2023-11-04T00:00:00	2024-11-08T03:00:00	4	Temperatura máxima	15.7
47371	7	Sololá	717	San Juan la Laguna	12	San Juan la Laguna	4	Abril	2023-11-04T00:00:00	2024-11-08T03:00:00	3	Temperatura mínima	14.6
47372	7	Sololá	717	San Juan la Laguna	12	San Juan la Laguna	4	Abril	2023-11-04T00:00:00	2024-11-08T03:00:00	5	Humedad	68
47373	7	Sololá	717	San Juan la Laguna	12	San Juan la Laguna	4	Abril	2023-11-04T00:00:00	2024-11-08T03:00:00	6	Velocidad del viento	0
47374	7	Sololá	717	San Juan la Laguna	12	San Juan la Laguna	4	Abril	2023-11-04T00:00:00	2024-11-08T03:00:00	7	Dirección del viento	0
47375	7	Sololá	717	San Juan la Laguna	12	San Juan la Laguna	4	Abril	2023-11-04T00:00:00	2024-11-08T03:00:00	1	Precipitación	0
47376	7	Sololá	717	San Juan la Laguna	12	San Juan la Laguna	4	Abril	2023-11-04T00:00:00	2024-11-08T03:00:00	8	Radiación solar	0
47377	7	Sololá	717	San Juan la Laguna	12	San Juan la Laguna	4	Abril	2023-11-04T00:00:00	2024-11-08T04:00:00	2	Temperatura media	15.2
47378	7	Sololá	717	San Juan la Laguna	12	San Juan la Laguna	4	Abril	2023-11-04T00:00:00	2024-11-08T04:00:00	4	Temperatura máxima	16.4
47379	7	Sololá	717	San Juan la Laguna	12	San Juan la Laguna	4	Abril	2023-11-04T00:00:00	2024-11-08T04:00:00	3	Temperatura mínima	15
47380	7	Sololá	717	San Juan la Laguna	12	San Juan la Laguna	4	Abril	2023-11-04T00:00:00	2024-11-08T04:00:00	5	Humedad	68
47381	7	Sololá	717	San Juan la Laguna	12	San Juan la Laguna	4	Abril	2023-11-04T00:00:00	2024-11-08T04:00:00	6	Velocidad del viento	0
47382	7	Sololá	717	San Juan la Laguna	12	San Juan la Laguna	4	Abril	2023-11-04T00:00:00	2024-11-08T04:00:00	7	Dirección del viento	0
47383	7	Sololá	717	San Juan la Laguna	12	San Juan la Laguna	4	Abril	2023-11-04T00:00:00	2024-11-08T04:00:00	1	Precipitación	0
47384	7	Sololá	717	San Juan la Laguna	12	San Juan la Laguna	4	Abril	2023-11-04T00:00:00	2024-11-08T04:00:00	8	Radiación solar	0
47385	7	Sololá	717	San Juan la Laguna	12	San Juan la Laguna	4	Abril	2023-11-04T00:00:00	2024-11-08T05:00:00	2	Temperatura media	13.7
47386	7	Sololá	717	San Juan la Laguna	12	San Juan la Laguna	4	Abril	2023-11-04T00:00:00	2024-11-08T05:00:00	4	Temperatura máxima	16.1
47387	7	Sololá	717	San Juan la Laguna	12	San Juan la Laguna	4	Abril	2023-11-04T00:00:00	2024-11-08T05:00:00	3	Temperatura mínima	13.7
47388	7	Sololá	717	San Juan la Laguna	12	San Juan la Laguna	4	Abril	2023-11-04T00:00:00	2024-11-08T05:00:00	5	Humedad	72
47389	7	Sololá	717	San Juan la Laguna	12	San Juan la Laguna	4	Abril	2023-11-04T00:00:00	2024-11-08T05:00:00	6	Velocidad del viento	0
47390	7	Sololá	717	San Juan la Laguna	12	San Juan la Laguna	4	Abril	2023-11-04T00:00:00	2024-11-08T05:00:00	7	Dirección del viento	0
47391	7	Sololá	717	San Juan la Laguna	12	San Juan la Laguna	4	Abril	2023-11-04T00:00:00	2024-11-08T05:00:00	1	Precipitación	0
47392	7	Sololá	717	San Juan la Laguna	12	San Juan la Laguna	4	Abril	2023-11-04T00:00:00	2024-11-08T05:00:00	8	Radiación solar	0
47393	7	Sololá	717	San Juan la Laguna	12	San Juan la Laguna	4	Abril	2023-11-04T00:00:00	2024-11-08T06:00:00	2	Temperatura media	16.8
47394	7	Sololá	717	San Juan la Laguna	12	San Juan la Laguna	4	Abril	2023-11-04T00:00:00	2024-11-08T06:00:00	4	Temperatura máxima	16.8
47395	7	Sololá	717	San Juan la Laguna	12	San Juan la Laguna	4	Abril	2023-11-04T00:00:00	2024-11-08T06:00:00	3	Temperatura mínima	13.3
47396	7	Sololá	717	San Juan la Laguna	12	San Juan la Laguna	4	Abril	2023-11-04T00:00:00	2024-11-08T06:00:00	5	Humedad	66
47397	7	Sololá	717	San Juan la Laguna	12	San Juan la Laguna	4	Abril	2023-11-04T00:00:00	2024-11-08T06:00:00	6	Velocidad del viento	0
47398	7	Sololá	717	San Juan la Laguna	12	San Juan la Laguna	4	Abril	2023-11-04T00:00:00	2024-11-08T06:00:00	7	Dirección del viento	0
47399	7	Sololá	717	San Juan la Laguna	12	San Juan la Laguna	4	Abril	2023-11-04T00:00:00	2024-11-08T06:00:00	1	Precipitación	0
47400	7	Sololá	717	San Juan la Laguna	12	San Juan la Laguna	4	Abril	2023-11-04T00:00:00	2024-11-08T06:00:00	8	Radiación solar	0
47401	7	Sololá	717	San Juan la Laguna	12	San Juan la Laguna	4	Abril	2023-11-04T00:00:00	2024-11-08T07:00:00	2	Temperatura media	18.8
47402	7	Sololá	717	San Juan la Laguna	12	San Juan la Laguna	4	Abril	2023-11-04T00:00:00	2024-11-08T07:00:00	4	Temperatura máxima	18.8
47403	7	Sololá	717	San Juan la Laguna	12	San Juan la Laguna	4	Abril	2023-11-04T00:00:00	2024-11-08T07:00:00	3	Temperatura mínima	16.4
47404	7	Sololá	717	San Juan la Laguna	12	San Juan la Laguna	4	Abril	2023-11-04T00:00:00	2024-11-08T07:00:00	5	Humedad	57
47405	7	Sololá	717	San Juan la Laguna	12	San Juan la Laguna	4	Abril	2023-11-04T00:00:00	2024-11-08T07:00:00	6	Velocidad del viento	1.6
47406	7	Sololá	717	San Juan la Laguna	12	San Juan la Laguna	4	Abril	2023-11-04T00:00:00	2024-11-08T07:00:00	7	Dirección del viento	1.61
47407	7	Sololá	717	San Juan la Laguna	12	San Juan la Laguna	4	Abril	2023-11-04T00:00:00	2024-11-08T07:00:00	1	Precipitación	0
47408	7	Sololá	717	San Juan la Laguna	12	San Juan la Laguna	4	Abril	2023-11-04T00:00:00	2024-11-08T07:00:00	8	Radiación solar	63
47409	7	Sololá	717	San Juan la Laguna	12	San Juan la Laguna	4	Abril	2023-11-04T00:00:00	2024-11-08T08:00:00	2	Temperatura media	20.3
47410	7	Sololá	717	San Juan la Laguna	12	San Juan la Laguna	4	Abril	2023-11-04T00:00:00	2024-11-08T08:00:00	4	Temperatura máxima	20.3
47411	7	Sololá	717	San Juan la Laguna	12	San Juan la Laguna	4	Abril	2023-11-04T00:00:00	2024-11-08T08:00:00	3	Temperatura mínima	18.8
47412	7	Sololá	717	San Juan la Laguna	12	San Juan la Laguna	4	Abril	2023-11-04T00:00:00	2024-11-08T08:00:00	5	Humedad	52
47413	7	Sololá	717	San Juan la Laguna	12	San Juan la Laguna	4	Abril	2023-11-04T00:00:00	2024-11-08T08:00:00	6	Velocidad del viento	3.2
47414	7	Sololá	717	San Juan la Laguna	12	San Juan la Laguna	4	Abril	2023-11-04T00:00:00	2024-11-08T08:00:00	7	Dirección del viento	3.22
47415	7	Sololá	717	San Juan la Laguna	12	San Juan la Laguna	4	Abril	2023-11-04T00:00:00	2024-11-08T08:00:00	1	Precipitación	0
47416	7	Sololá	717	San Juan la Laguna	12	San Juan la Laguna	4	Abril	2023-11-04T00:00:00	2024-11-08T08:00:00	8	Radiación solar	236
47417	7	Sololá	717	San Juan la Laguna	12	San Juan la Laguna	4	Abril	2023-11-04T00:00:00	2024-11-08T09:00:00	2	Temperatura media	22.1
47418	7	Sololá	717	San Juan la Laguna	12	San Juan la Laguna	4	Abril	2023-11-04T00:00:00	2024-11-08T09:00:00	4	Temperatura máxima	22.1
47419	7	Sololá	717	San Juan la Laguna	12	San Juan la Laguna	4	Abril	2023-11-04T00:00:00	2024-11-08T09:00:00	3	Temperatura mínima	20.3
47420	7	Sololá	717	San Juan la Laguna	12	San Juan la Laguna	4	Abril	2023-11-04T00:00:00	2024-11-08T09:00:00	5	Humedad	50
47421	7	Sololá	717	San Juan la Laguna	12	San Juan la Laguna	4	Abril	2023-11-04T00:00:00	2024-11-08T09:00:00	6	Velocidad del viento	3.2
47422	7	Sololá	717	San Juan la Laguna	12	San Juan la Laguna	4	Abril	2023-11-04T00:00:00	2024-11-08T09:00:00	7	Dirección del viento	3.22
47423	7	Sololá	717	San Juan la Laguna	12	San Juan la Laguna	4	Abril	2023-11-04T00:00:00	2024-11-08T09:00:00	1	Precipitación	0
47424	7	Sololá	717	San Juan la Laguna	12	San Juan la Laguna	4	Abril	2023-11-04T00:00:00	2024-11-08T09:00:00	8	Radiación solar	404
47425	7	Sololá	717	San Juan la Laguna	12	San Juan la Laguna	4	Abril	2023-11-04T00:00:00	2024-11-08T10:00:00	2	Temperatura media	23.7
47426	7	Sololá	717	San Juan la Laguna	12	San Juan la Laguna	4	Abril	2023-11-04T00:00:00	2024-11-08T10:00:00	4	Temperatura máxima	23.9
47427	7	Sololá	717	San Juan la Laguna	12	San Juan la Laguna	4	Abril	2023-11-04T00:00:00	2024-11-08T10:00:00	3	Temperatura mínima	21.9
47428	7	Sololá	717	San Juan la Laguna	12	San Juan la Laguna	4	Abril	2023-11-04T00:00:00	2024-11-08T10:00:00	5	Humedad	43
47429	7	Sololá	717	San Juan la Laguna	12	San Juan la Laguna	4	Abril	2023-11-04T00:00:00	2024-11-08T10:00:00	6	Velocidad del viento	1.6
47430	7	Sololá	717	San Juan la Laguna	12	San Juan la Laguna	4	Abril	2023-11-04T00:00:00	2024-11-08T10:00:00	7	Dirección del viento	1.61
47431	7	Sololá	717	San Juan la Laguna	12	San Juan la Laguna	4	Abril	2023-11-04T00:00:00	2024-11-08T10:00:00	1	Precipitación	0
47432	7	Sololá	717	San Juan la Laguna	12	San Juan la Laguna	4	Abril	2023-11-04T00:00:00	2024-11-08T10:00:00	8	Radiación solar	584
47433	7	Sololá	717	San Juan la Laguna	12	San Juan la Laguna	4	Abril	2023-11-04T00:00:00	2024-11-08T11:00:00	2	Temperatura media	25.1
47434	7	Sololá	717	San Juan la Laguna	12	San Juan la Laguna	4	Abril	2023-11-04T00:00:00	2024-11-08T11:00:00	4	Temperatura máxima	25.1
47435	7	Sololá	717	San Juan la Laguna	12	San Juan la Laguna	4	Abril	2023-11-04T00:00:00	2024-11-08T11:00:00	3	Temperatura mínima	23.4
47436	7	Sololá	717	San Juan la Laguna	12	San Juan la Laguna	4	Abril	2023-11-04T00:00:00	2024-11-08T11:00:00	5	Humedad	39
47437	7	Sololá	717	San Juan la Laguna	12	San Juan la Laguna	4	Abril	2023-11-04T00:00:00	2024-11-08T11:00:00	6	Velocidad del viento	1.6
47438	7	Sololá	717	San Juan la Laguna	12	San Juan la Laguna	4	Abril	2023-11-04T00:00:00	2024-11-08T11:00:00	7	Dirección del viento	1.61
47439	7	Sololá	717	San Juan la Laguna	12	San Juan la Laguna	4	Abril	2023-11-04T00:00:00	2024-11-08T11:00:00	1	Precipitación	0
47440	7	Sololá	717	San Juan la Laguna	12	San Juan la Laguna	4	Abril	2023-11-04T00:00:00	2024-11-08T11:00:00	8	Radiación solar	854
47441	7	Sololá	717	San Juan la Laguna	12	San Juan la Laguna	4	Abril	2023-11-04T00:00:00	2024-11-08T12:00:00	2	Temperatura media	25.8
47442	7	Sololá	717	San Juan la Laguna	12	San Juan la Laguna	4	Abril	2023-11-04T00:00:00	2024-11-08T12:00:00	4	Temperatura máxima	26.1
47443	7	Sololá	717	San Juan la Laguna	12	San Juan la Laguna	4	Abril	2023-11-04T00:00:00	2024-11-08T12:00:00	3	Temperatura mínima	24.7
47444	7	Sololá	717	San Juan la Laguna	12	San Juan la Laguna	4	Abril	2023-11-04T00:00:00	2024-11-08T12:00:00	5	Humedad	37
47445	7	Sololá	717	San Juan la Laguna	12	San Juan la Laguna	4	Abril	2023-11-04T00:00:00	2024-11-08T12:00:00	6	Velocidad del viento	3.2
47446	7	Sololá	717	San Juan la Laguna	12	San Juan la Laguna	4	Abril	2023-11-04T00:00:00	2024-11-08T12:00:00	7	Dirección del viento	3.22
47447	7	Sololá	717	San Juan la Laguna	12	San Juan la Laguna	4	Abril	2023-11-04T00:00:00	2024-11-08T12:00:00	1	Precipitación	0
47448	7	Sololá	717	San Juan la Laguna	12	San Juan la Laguna	4	Abril	2023-11-04T00:00:00	2024-11-08T12:00:00	8	Radiación solar	946
47449	7	Sololá	717	San Juan la Laguna	12	San Juan la Laguna	4	Abril	2023-11-04T00:00:00	2024-11-08T13:00:00	2	Temperatura media	24.1
47450	7	Sololá	717	San Juan la Laguna	12	San Juan la Laguna	4	Abril	2023-11-04T00:00:00	2024-11-08T13:00:00	4	Temperatura máxima	26
47451	7	Sololá	717	San Juan la Laguna	12	San Juan la Laguna	4	Abril	2023-11-04T00:00:00	2024-11-08T13:00:00	3	Temperatura mínima	24.1
47452	7	Sololá	717	San Juan la Laguna	12	San Juan la Laguna	4	Abril	2023-11-04T00:00:00	2024-11-08T13:00:00	5	Humedad	55
47453	7	Sololá	717	San Juan la Laguna	12	San Juan la Laguna	4	Abril	2023-11-04T00:00:00	2024-11-08T13:00:00	6	Velocidad del viento	6.4
47454	7	Sololá	717	San Juan la Laguna	12	San Juan la Laguna	4	Abril	2023-11-04T00:00:00	2024-11-08T13:00:00	7	Dirección del viento	6.44
47455	7	Sololá	717	San Juan la Laguna	12	San Juan la Laguna	4	Abril	2023-11-04T00:00:00	2024-11-08T13:00:00	1	Precipitación	0
47456	7	Sololá	717	San Juan la Laguna	12	San Juan la Laguna	4	Abril	2023-11-04T00:00:00	2024-11-08T13:00:00	8	Radiación solar	953
47457	7	Sololá	717	San Juan la Laguna	12	San Juan la Laguna	4	Abril	2023-11-04T00:00:00	2024-11-08T14:00:00	2	Temperatura media	23.6
47458	7	Sololá	717	San Juan la Laguna	12	San Juan la Laguna	4	Abril	2023-11-04T00:00:00	2024-11-08T14:00:00	4	Temperatura máxima	24.2
47459	7	Sololá	717	San Juan la Laguna	12	San Juan la Laguna	4	Abril	2023-11-04T00:00:00	2024-11-08T14:00:00	3	Temperatura mínima	23.1
47460	7	Sololá	717	San Juan la Laguna	12	San Juan la Laguna	4	Abril	2023-11-04T00:00:00	2024-11-08T14:00:00	5	Humedad	55
47461	7	Sololá	717	San Juan la Laguna	12	San Juan la Laguna	4	Abril	2023-11-04T00:00:00	2024-11-08T14:00:00	6	Velocidad del viento	11.3
47462	7	Sololá	717	San Juan la Laguna	12	San Juan la Laguna	4	Abril	2023-11-04T00:00:00	2024-11-08T14:00:00	7	Dirección del viento	11.27
47463	7	Sololá	717	San Juan la Laguna	12	San Juan la Laguna	4	Abril	2023-11-04T00:00:00	2024-11-08T14:00:00	1	Precipitación	0
47464	7	Sololá	717	San Juan la Laguna	12	San Juan la Laguna	4	Abril	2023-11-04T00:00:00	2024-11-08T14:00:00	8	Radiación solar	887
47465	7	Sololá	717	San Juan la Laguna	12	San Juan la Laguna	4	Abril	2023-11-04T00:00:00	2024-11-08T15:00:00	2	Temperatura media	23.3
47466	7	Sololá	717	San Juan la Laguna	12	San Juan la Laguna	4	Abril	2023-11-04T00:00:00	2024-11-08T15:00:00	4	Temperatura máxima	23.9
47467	7	Sololá	717	San Juan la Laguna	12	San Juan la Laguna	4	Abril	2023-11-04T00:00:00	2024-11-08T15:00:00	3	Temperatura mínima	23
47468	7	Sololá	717	San Juan la Laguna	12	San Juan la Laguna	4	Abril	2023-11-04T00:00:00	2024-11-08T15:00:00	5	Humedad	56
47469	7	Sololá	717	San Juan la Laguna	12	San Juan la Laguna	4	Abril	2023-11-04T00:00:00	2024-11-08T15:00:00	6	Velocidad del viento	8
47470	7	Sololá	717	San Juan la Laguna	12	San Juan la Laguna	4	Abril	2023-11-04T00:00:00	2024-11-08T15:00:00	7	Dirección del viento	8.05
47471	7	Sololá	717	San Juan la Laguna	12	San Juan la Laguna	4	Abril	2023-11-04T00:00:00	2024-11-08T15:00:00	1	Precipitación	0
47472	7	Sololá	717	San Juan la Laguna	12	San Juan la Laguna	4	Abril	2023-11-04T00:00:00	2024-11-08T15:00:00	8	Radiación solar	747
47473	7	Sololá	717	San Juan la Laguna	12	San Juan la Laguna	4	Abril	2023-11-04T00:00:00	2024-11-08T16:00:00	2	Temperatura media	22.7
47474	7	Sololá	717	San Juan la Laguna	12	San Juan la Laguna	4	Abril	2023-11-04T00:00:00	2024-11-08T16:00:00	4	Temperatura máxima	23.3
47475	7	Sololá	717	San Juan la Laguna	12	San Juan la Laguna	4	Abril	2023-11-04T00:00:00	2024-11-08T16:00:00	3	Temperatura mínima	22.7
47476	7	Sololá	717	San Juan la Laguna	12	San Juan la Laguna	4	Abril	2023-11-04T00:00:00	2024-11-08T16:00:00	5	Humedad	63
47477	7	Sololá	717	San Juan la Laguna	12	San Juan la Laguna	4	Abril	2023-11-04T00:00:00	2024-11-08T16:00:00	6	Velocidad del viento	6.4
47478	7	Sololá	717	San Juan la Laguna	12	San Juan la Laguna	4	Abril	2023-11-04T00:00:00	2024-11-08T16:00:00	7	Dirección del viento	6.44
47479	7	Sololá	717	San Juan la Laguna	12	San Juan la Laguna	4	Abril	2023-11-04T00:00:00	2024-11-08T16:00:00	1	Precipitación	0
47480	7	Sololá	717	San Juan la Laguna	12	San Juan la Laguna	4	Abril	2023-11-04T00:00:00	2024-11-08T16:00:00	8	Radiación solar	549
47481	7	Sololá	717	San Juan la Laguna	12	San Juan la Laguna	4	Abril	2023-11-04T00:00:00	2024-11-08T17:00:00	2	Temperatura media	21.8
47482	7	Sololá	717	San Juan la Laguna	12	San Juan la Laguna	4	Abril	2023-11-04T00:00:00	2024-11-08T17:00:00	4	Temperatura máxima	22.7
47483	7	Sololá	717	San Juan la Laguna	12	San Juan la Laguna	4	Abril	2023-11-04T00:00:00	2024-11-08T17:00:00	3	Temperatura mínima	21.6
47484	7	Sololá	717	San Juan la Laguna	12	San Juan la Laguna	4	Abril	2023-11-04T00:00:00	2024-11-08T17:00:00	5	Humedad	70
47485	7	Sololá	717	San Juan la Laguna	12	San Juan la Laguna	4	Abril	2023-11-04T00:00:00	2024-11-08T17:00:00	6	Velocidad del viento	4.8
47486	7	Sololá	717	San Juan la Laguna	12	San Juan la Laguna	4	Abril	2023-11-04T00:00:00	2024-11-08T17:00:00	7	Dirección del viento	4.83
47487	7	Sololá	717	San Juan la Laguna	12	San Juan la Laguna	4	Abril	2023-11-04T00:00:00	2024-11-08T17:00:00	1	Precipitación	0
47488	7	Sololá	717	San Juan la Laguna	12	San Juan la Laguna	4	Abril	2023-11-04T00:00:00	2024-11-08T17:00:00	8	Radiación solar	321
47489	7	Sololá	717	San Juan la Laguna	12	San Juan la Laguna	4	Abril	2023-11-04T00:00:00	2024-11-08T18:00:00	2	Temperatura media	20.3
47490	7	Sololá	717	San Juan la Laguna	12	San Juan la Laguna	4	Abril	2023-11-04T00:00:00	2024-11-08T18:00:00	4	Temperatura máxima	21.8
47491	7	Sololá	717	San Juan la Laguna	12	San Juan la Laguna	4	Abril	2023-11-04T00:00:00	2024-11-08T18:00:00	3	Temperatura mínima	20.3
47492	7	Sololá	717	San Juan la Laguna	12	San Juan la Laguna	4	Abril	2023-11-04T00:00:00	2024-11-08T18:00:00	5	Humedad	75
47493	7	Sololá	717	San Juan la Laguna	12	San Juan la Laguna	4	Abril	2023-11-04T00:00:00	2024-11-08T18:00:00	6	Velocidad del viento	4.8
47494	7	Sololá	717	San Juan la Laguna	12	San Juan la Laguna	4	Abril	2023-11-04T00:00:00	2024-11-08T18:00:00	7	Dirección del viento	4.83
47495	7	Sololá	717	San Juan la Laguna	12	San Juan la Laguna	4	Abril	2023-11-04T00:00:00	2024-11-08T18:00:00	1	Precipitación	0
47496	7	Sololá	717	San Juan la Laguna	12	San Juan la Laguna	4	Abril	2023-11-04T00:00:00	2024-11-08T18:00:00	8	Radiación solar	70
47497	7	Sololá	717	San Juan la Laguna	12	San Juan la Laguna	4	Abril	2023-11-04T00:00:00	2024-11-08T19:00:00	2	Temperatura media	19.6
47498	7	Sololá	717	San Juan la Laguna	12	San Juan la Laguna	4	Abril	2023-11-04T00:00:00	2024-11-08T19:00:00	4	Temperatura máxima	20.3
47499	7	Sololá	717	San Juan la Laguna	12	San Juan la Laguna	4	Abril	2023-11-04T00:00:00	2024-11-08T19:00:00	3	Temperatura mínima	19.5
47500	7	Sololá	717	San Juan la Laguna	12	San Juan la Laguna	4	Abril	2023-11-04T00:00:00	2024-11-08T19:00:00	5	Humedad	78
47501	7	Sololá	717	San Juan la Laguna	12	San Juan la Laguna	4	Abril	2023-11-04T00:00:00	2024-11-08T19:00:00	6	Velocidad del viento	1.6
47502	7	Sololá	717	San Juan la Laguna	12	San Juan la Laguna	4	Abril	2023-11-04T00:00:00	2024-11-08T19:00:00	7	Dirección del viento	1.61
47503	7	Sololá	717	San Juan la Laguna	12	San Juan la Laguna	4	Abril	2023-11-04T00:00:00	2024-11-08T19:00:00	1	Precipitación	0
47504	7	Sololá	717	San Juan la Laguna	12	San Juan la Laguna	4	Abril	2023-11-04T00:00:00	2024-11-08T19:00:00	8	Radiación solar	0
47505	7	Sololá	717	San Juan la Laguna	12	San Juan la Laguna	4	Abril	2023-11-04T00:00:00	2024-11-08T20:00:00	2	Temperatura media	18.5
47506	7	Sololá	717	San Juan la Laguna	12	San Juan la Laguna	4	Abril	2023-11-04T00:00:00	2024-11-08T20:00:00	4	Temperatura máxima	19.6
47507	7	Sololá	717	San Juan la Laguna	12	San Juan la Laguna	4	Abril	2023-11-04T00:00:00	2024-11-08T20:00:00	3	Temperatura mínima	18.5
47508	7	Sololá	717	San Juan la Laguna	12	San Juan la Laguna	4	Abril	2023-11-04T00:00:00	2024-11-08T20:00:00	5	Humedad	82
47509	7	Sololá	717	San Juan la Laguna	12	San Juan la Laguna	4	Abril	2023-11-04T00:00:00	2024-11-08T20:00:00	6	Velocidad del viento	0
47510	7	Sololá	717	San Juan la Laguna	12	San Juan la Laguna	4	Abril	2023-11-04T00:00:00	2024-11-08T20:00:00	7	Dirección del viento	0
47511	7	Sololá	717	San Juan la Laguna	12	San Juan la Laguna	4	Abril	2023-11-04T00:00:00	2024-11-08T20:00:00	1	Precipitación	0
47512	7	Sololá	717	San Juan la Laguna	12	San Juan la Laguna	4	Abril	2023-11-04T00:00:00	2024-11-08T20:00:00	8	Radiación solar	0
47513	7	Sololá	717	San Juan la Laguna	12	San Juan la Laguna	4	Abril	2023-11-04T00:00:00	2024-11-08T21:00:00	2	Temperatura media	18.1
47514	7	Sololá	717	San Juan la Laguna	12	San Juan la Laguna	4	Abril	2023-11-04T00:00:00	2024-11-08T21:00:00	4	Temperatura máxima	18.5
47515	7	Sololá	717	San Juan la Laguna	12	San Juan la Laguna	4	Abril	2023-11-04T00:00:00	2024-11-08T21:00:00	3	Temperatura mínima	17.6
47516	7	Sololá	717	San Juan la Laguna	12	San Juan la Laguna	4	Abril	2023-11-04T00:00:00	2024-11-08T21:00:00	5	Humedad	74
47517	7	Sololá	717	San Juan la Laguna	12	San Juan la Laguna	4	Abril	2023-11-04T00:00:00	2024-11-08T21:00:00	6	Velocidad del viento	0
47518	7	Sololá	717	San Juan la Laguna	12	San Juan la Laguna	4	Abril	2023-11-04T00:00:00	2024-11-08T21:00:00	7	Dirección del viento	0
47519	7	Sololá	717	San Juan la Laguna	12	San Juan la Laguna	4	Abril	2023-11-04T00:00:00	2024-11-08T21:00:00	1	Precipitación	0
47520	7	Sololá	717	San Juan la Laguna	12	San Juan la Laguna	4	Abril	2023-11-04T00:00:00	2024-11-08T21:00:00	8	Radiación solar	0
47521	7	Sololá	717	San Juan la Laguna	12	San Juan la Laguna	4	Abril	2023-11-04T00:00:00	2024-11-08T22:00:00	2	Temperatura media	19.7
47522	7	Sololá	717	San Juan la Laguna	12	San Juan la Laguna	4	Abril	2023-11-04T00:00:00	2024-11-08T22:00:00	4	Temperatura máxima	19.9
47523	7	Sololá	717	San Juan la Laguna	12	San Juan la Laguna	4	Abril	2023-11-04T00:00:00	2024-11-08T22:00:00	3	Temperatura mínima	18.2
47524	7	Sololá	717	San Juan la Laguna	12	San Juan la Laguna	4	Abril	2023-11-04T00:00:00	2024-11-08T22:00:00	5	Humedad	58
47525	7	Sololá	717	San Juan la Laguna	12	San Juan la Laguna	4	Abril	2023-11-04T00:00:00	2024-11-08T22:00:00	6	Velocidad del viento	1.6
47526	7	Sololá	717	San Juan la Laguna	12	San Juan la Laguna	4	Abril	2023-11-04T00:00:00	2024-11-08T22:00:00	7	Dirección del viento	1.61
47527	7	Sololá	717	San Juan la Laguna	12	San Juan la Laguna	4	Abril	2023-11-04T00:00:00	2024-11-08T22:00:00	1	Precipitación	0
47528	7	Sololá	717	San Juan la Laguna	12	San Juan la Laguna	4	Abril	2023-11-04T00:00:00	2024-11-08T22:00:00	8	Radiación solar	0
47529	7	Sololá	717	San Juan la Laguna	12	San Juan la Laguna	4	Abril	2023-11-04T00:00:00	2024-11-08T23:00:00	2	Temperatura media	17.3
47530	7	Sololá	717	San Juan la Laguna	12	San Juan la Laguna	4	Abril	2023-11-04T00:00:00	2024-11-08T23:00:00	4	Temperatura máxima	19.7
47531	7	Sololá	717	San Juan la Laguna	12	San Juan la Laguna	4	Abril	2023-11-04T00:00:00	2024-11-08T23:00:00	3	Temperatura mínima	17.3
47532	7	Sololá	717	San Juan la Laguna	12	San Juan la Laguna	4	Abril	2023-11-04T00:00:00	2024-11-08T23:00:00	5	Humedad	67
47533	7	Sololá	717	San Juan la Laguna	12	San Juan la Laguna	4	Abril	2023-11-04T00:00:00	2024-11-08T23:00:00	6	Velocidad del viento	1.6
47534	7	Sololá	717	San Juan la Laguna	12	San Juan la Laguna	4	Abril	2023-11-04T00:00:00	2024-11-08T23:00:00	7	Dirección del viento	1.61
47535	7	Sololá	717	San Juan la Laguna	12	San Juan la Laguna	4	Abril	2023-11-04T00:00:00	2024-11-08T23:00:00	1	Precipitación	0
47536	7	Sololá	717	San Juan la Laguna	12	San Juan la Laguna	4	Abril	2023-11-04T00:00:00	2024-11-08T23:00:00	8	Radiación solar	0
47537	7	Sololá	717	San Juan la Laguna	12	San Juan la Laguna	4	Abril	2023-12-04T00:00:00	2024-11-08T00:00:00	2	Temperatura media	16.1
47538	7	Sololá	717	San Juan la Laguna	12	San Juan la Laguna	4	Abril	2023-12-04T00:00:00	2024-11-08T00:00:00	4	Temperatura máxima	17.3
47539	7	Sololá	717	San Juan la Laguna	12	San Juan la Laguna	4	Abril	2023-12-04T00:00:00	2024-11-08T00:00:00	3	Temperatura mínima	15.8
47540	7	Sololá	717	San Juan la Laguna	12	San Juan la Laguna	4	Abril	2023-12-04T00:00:00	2024-11-08T00:00:00	5	Humedad	72
47541	7	Sololá	717	San Juan la Laguna	12	San Juan la Laguna	4	Abril	2023-12-04T00:00:00	2024-11-08T00:00:00	6	Velocidad del viento	1.6
47542	7	Sololá	717	San Juan la Laguna	12	San Juan la Laguna	4	Abril	2023-12-04T00:00:00	2024-11-08T00:00:00	7	Dirección del viento	1.61
47543	7	Sololá	717	San Juan la Laguna	12	San Juan la Laguna	4	Abril	2023-12-04T00:00:00	2024-11-08T00:00:00	1	Precipitación	0
47544	7	Sololá	717	San Juan la Laguna	12	San Juan la Laguna	4	Abril	2023-12-04T00:00:00	2024-11-08T00:00:00	8	Radiación solar	0
47545	7	Sololá	717	San Juan la Laguna	12	San Juan la Laguna	4	Abril	2023-12-04T00:00:00	2024-11-08T01:00:00	2	Temperatura media	15
47546	7	Sololá	717	San Juan la Laguna	12	San Juan la Laguna	4	Abril	2023-12-04T00:00:00	2024-11-08T01:00:00	4	Temperatura máxima	16.1
47547	7	Sololá	717	San Juan la Laguna	12	San Juan la Laguna	4	Abril	2023-12-04T00:00:00	2024-11-08T01:00:00	3	Temperatura mínima	14.9
47548	7	Sololá	717	San Juan la Laguna	12	San Juan la Laguna	4	Abril	2023-12-04T00:00:00	2024-11-08T01:00:00	5	Humedad	74
47549	7	Sololá	717	San Juan la Laguna	12	San Juan la Laguna	4	Abril	2023-12-04T00:00:00	2024-11-08T01:00:00	6	Velocidad del viento	0
47550	7	Sololá	717	San Juan la Laguna	12	San Juan la Laguna	4	Abril	2023-12-04T00:00:00	2024-11-08T01:00:00	7	Dirección del viento	0
47551	7	Sololá	717	San Juan la Laguna	12	San Juan la Laguna	4	Abril	2023-12-04T00:00:00	2024-11-08T01:00:00	1	Precipitación	0
47552	7	Sololá	717	San Juan la Laguna	12	San Juan la Laguna	4	Abril	2023-12-04T00:00:00	2024-11-08T01:00:00	8	Radiación solar	0
47553	7	Sololá	717	San Juan la Laguna	12	San Juan la Laguna	4	Abril	2023-12-04T00:00:00	2024-11-08T02:00:00	2	Temperatura media	14.6
47554	7	Sololá	717	San Juan la Laguna	12	San Juan la Laguna	4	Abril	2023-12-04T00:00:00	2024-11-08T02:00:00	4	Temperatura máxima	15.1
47555	7	Sololá	717	San Juan la Laguna	12	San Juan la Laguna	4	Abril	2023-12-04T00:00:00	2024-11-08T02:00:00	3	Temperatura mínima	13.9
47556	7	Sololá	717	San Juan la Laguna	12	San Juan la Laguna	4	Abril	2023-12-04T00:00:00	2024-11-08T02:00:00	5	Humedad	73
47557	7	Sololá	717	San Juan la Laguna	12	San Juan la Laguna	4	Abril	2023-12-04T00:00:00	2024-11-08T02:00:00	6	Velocidad del viento	1.6
47558	7	Sololá	717	San Juan la Laguna	12	San Juan la Laguna	4	Abril	2023-12-04T00:00:00	2024-11-08T02:00:00	7	Dirección del viento	1.61
47559	7	Sololá	717	San Juan la Laguna	12	San Juan la Laguna	4	Abril	2023-12-04T00:00:00	2024-11-08T02:00:00	1	Precipitación	0
47560	7	Sololá	717	San Juan la Laguna	12	San Juan la Laguna	4	Abril	2023-12-04T00:00:00	2024-11-08T02:00:00	8	Radiación solar	0
47561	7	Sololá	717	San Juan la Laguna	12	San Juan la Laguna	4	Abril	2023-12-04T00:00:00	2024-11-08T03:00:00	2	Temperatura media	13.9
47562	7	Sololá	717	San Juan la Laguna	12	San Juan la Laguna	4	Abril	2023-12-04T00:00:00	2024-11-08T03:00:00	4	Temperatura máxima	14.9
47563	7	Sololá	717	San Juan la Laguna	12	San Juan la Laguna	4	Abril	2023-12-04T00:00:00	2024-11-08T03:00:00	3	Temperatura mínima	13.8
47564	7	Sololá	717	San Juan la Laguna	12	San Juan la Laguna	4	Abril	2023-12-04T00:00:00	2024-11-08T03:00:00	5	Humedad	70
47565	7	Sololá	717	San Juan la Laguna	12	San Juan la Laguna	4	Abril	2023-12-04T00:00:00	2024-11-08T03:00:00	6	Velocidad del viento	1.6
47566	7	Sololá	717	San Juan la Laguna	12	San Juan la Laguna	4	Abril	2023-12-04T00:00:00	2024-11-08T03:00:00	7	Dirección del viento	1.61
47567	7	Sololá	717	San Juan la Laguna	12	San Juan la Laguna	4	Abril	2023-12-04T00:00:00	2024-11-08T03:00:00	1	Precipitación	0
47568	7	Sololá	717	San Juan la Laguna	12	San Juan la Laguna	4	Abril	2023-12-04T00:00:00	2024-11-08T03:00:00	8	Radiación solar	0
47569	7	Sololá	717	San Juan la Laguna	12	San Juan la Laguna	4	Abril	2023-12-04T00:00:00	2024-11-08T04:00:00	2	Temperatura media	13.7
47570	7	Sololá	717	San Juan la Laguna	12	San Juan la Laguna	4	Abril	2023-12-04T00:00:00	2024-11-08T04:00:00	4	Temperatura máxima	13.9
47571	7	Sololá	717	San Juan la Laguna	12	San Juan la Laguna	4	Abril	2023-12-04T00:00:00	2024-11-08T04:00:00	3	Temperatura mínima	13.4
47572	7	Sololá	717	San Juan la Laguna	12	San Juan la Laguna	4	Abril	2023-12-04T00:00:00	2024-11-08T04:00:00	5	Humedad	68
47573	7	Sololá	717	San Juan la Laguna	12	San Juan la Laguna	4	Abril	2023-12-04T00:00:00	2024-11-08T04:00:00	6	Velocidad del viento	1.6
47574	7	Sololá	717	San Juan la Laguna	12	San Juan la Laguna	4	Abril	2023-12-04T00:00:00	2024-11-08T04:00:00	7	Dirección del viento	1.61
47575	7	Sololá	717	San Juan la Laguna	12	San Juan la Laguna	4	Abril	2023-12-04T00:00:00	2024-11-08T04:00:00	1	Precipitación	0
47576	7	Sololá	717	San Juan la Laguna	12	San Juan la Laguna	4	Abril	2023-12-04T00:00:00	2024-11-08T04:00:00	8	Radiación solar	0
47577	7	Sololá	717	San Juan la Laguna	12	San Juan la Laguna	4	Abril	2023-12-04T00:00:00	2024-11-08T05:00:00	2	Temperatura media	13.3
47578	7	Sololá	717	San Juan la Laguna	12	San Juan la Laguna	4	Abril	2023-12-04T00:00:00	2024-11-08T05:00:00	4	Temperatura máxima	13.9
47579	7	Sololá	717	San Juan la Laguna	12	San Juan la Laguna	4	Abril	2023-12-04T00:00:00	2024-11-08T05:00:00	3	Temperatura mínima	13.3
47580	7	Sololá	717	San Juan la Laguna	12	San Juan la Laguna	4	Abril	2023-12-04T00:00:00	2024-11-08T05:00:00	5	Humedad	68
47581	7	Sololá	717	San Juan la Laguna	12	San Juan la Laguna	4	Abril	2023-12-04T00:00:00	2024-11-08T05:00:00	6	Velocidad del viento	0
47582	7	Sololá	717	San Juan la Laguna	12	San Juan la Laguna	4	Abril	2023-12-04T00:00:00	2024-11-08T05:00:00	7	Dirección del viento	0
47583	7	Sololá	717	San Juan la Laguna	12	San Juan la Laguna	4	Abril	2023-12-04T00:00:00	2024-11-08T05:00:00	1	Precipitación	0
47584	7	Sololá	717	San Juan la Laguna	12	San Juan la Laguna	4	Abril	2023-12-04T00:00:00	2024-11-08T05:00:00	8	Radiación solar	0
47585	7	Sololá	717	San Juan la Laguna	12	San Juan la Laguna	4	Abril	2023-12-04T00:00:00	2024-11-08T06:00:00	2	Temperatura media	13.1
47586	7	Sololá	717	San Juan la Laguna	12	San Juan la Laguna	4	Abril	2023-12-04T00:00:00	2024-11-08T06:00:00	4	Temperatura máxima	13.3
47587	7	Sololá	717	San Juan la Laguna	12	San Juan la Laguna	4	Abril	2023-12-04T00:00:00	2024-11-08T06:00:00	3	Temperatura mínima	13.1
47588	7	Sololá	717	San Juan la Laguna	12	San Juan la Laguna	4	Abril	2023-12-04T00:00:00	2024-11-08T06:00:00	5	Humedad	70
47589	7	Sololá	717	San Juan la Laguna	12	San Juan la Laguna	4	Abril	2023-12-04T00:00:00	2024-11-08T06:00:00	6	Velocidad del viento	0
47590	7	Sololá	717	San Juan la Laguna	12	San Juan la Laguna	4	Abril	2023-12-04T00:00:00	2024-11-08T06:00:00	7	Dirección del viento	0
47591	7	Sololá	717	San Juan la Laguna	12	San Juan la Laguna	4	Abril	2023-12-04T00:00:00	2024-11-08T06:00:00	1	Precipitación	0
47592	7	Sololá	717	San Juan la Laguna	12	San Juan la Laguna	4	Abril	2023-12-04T00:00:00	2024-11-08T06:00:00	8	Radiación solar	0
47593	7	Sololá	717	San Juan la Laguna	12	San Juan la Laguna	4	Abril	2023-12-04T00:00:00	2024-11-08T07:00:00	2	Temperatura media	14.7
47594	7	Sololá	717	San Juan la Laguna	12	San Juan la Laguna	4	Abril	2023-12-04T00:00:00	2024-11-08T07:00:00	4	Temperatura máxima	14.7
47595	7	Sololá	717	San Juan la Laguna	12	San Juan la Laguna	4	Abril	2023-12-04T00:00:00	2024-11-08T07:00:00	3	Temperatura mínima	13.1
47596	7	Sololá	717	San Juan la Laguna	12	San Juan la Laguna	4	Abril	2023-12-04T00:00:00	2024-11-08T07:00:00	5	Humedad	67
47597	7	Sololá	717	San Juan la Laguna	12	San Juan la Laguna	4	Abril	2023-12-04T00:00:00	2024-11-08T07:00:00	6	Velocidad del viento	0
47598	7	Sololá	717	San Juan la Laguna	12	San Juan la Laguna	4	Abril	2023-12-04T00:00:00	2024-11-08T07:00:00	7	Dirección del viento	0
47599	7	Sololá	717	San Juan la Laguna	12	San Juan la Laguna	4	Abril	2023-12-04T00:00:00	2024-11-08T07:00:00	1	Precipitación	0
47600	7	Sololá	717	San Juan la Laguna	12	San Juan la Laguna	4	Abril	2023-12-04T00:00:00	2024-11-08T07:00:00	8	Radiación solar	53
47601	7	Sololá	717	San Juan la Laguna	12	San Juan la Laguna	4	Abril	2023-12-04T00:00:00	2024-11-08T08:00:00	2	Temperatura media	18.4
47602	7	Sololá	717	San Juan la Laguna	12	San Juan la Laguna	4	Abril	2023-12-04T00:00:00	2024-11-08T08:00:00	4	Temperatura máxima	18.4
47603	7	Sololá	717	San Juan la Laguna	12	San Juan la Laguna	4	Abril	2023-12-04T00:00:00	2024-11-08T08:00:00	3	Temperatura mínima	14.7
47604	7	Sololá	717	San Juan la Laguna	12	San Juan la Laguna	4	Abril	2023-12-04T00:00:00	2024-11-08T08:00:00	5	Humedad	63
47605	7	Sololá	717	San Juan la Laguna	12	San Juan la Laguna	4	Abril	2023-12-04T00:00:00	2024-11-08T08:00:00	6	Velocidad del viento	0
47606	7	Sololá	717	San Juan la Laguna	12	San Juan la Laguna	4	Abril	2023-12-04T00:00:00	2024-11-08T08:00:00	7	Dirección del viento	0
47607	7	Sololá	717	San Juan la Laguna	12	San Juan la Laguna	4	Abril	2023-12-04T00:00:00	2024-11-08T08:00:00	1	Precipitación	0
47608	7	Sololá	717	San Juan la Laguna	12	San Juan la Laguna	4	Abril	2023-12-04T00:00:00	2024-11-08T08:00:00	8	Radiación solar	231
47609	7	Sololá	717	San Juan la Laguna	12	San Juan la Laguna	4	Abril	2023-12-04T00:00:00	2024-11-08T09:00:00	2	Temperatura media	21.4
47610	7	Sololá	717	San Juan la Laguna	12	San Juan la Laguna	4	Abril	2023-12-04T00:00:00	2024-11-08T09:00:00	4	Temperatura máxima	21.4
47611	7	Sololá	717	San Juan la Laguna	12	San Juan la Laguna	4	Abril	2023-12-04T00:00:00	2024-11-08T09:00:00	3	Temperatura mínima	18.4
47612	7	Sololá	717	San Juan la Laguna	12	San Juan la Laguna	4	Abril	2023-12-04T00:00:00	2024-11-08T09:00:00	5	Humedad	51
47613	7	Sololá	717	San Juan la Laguna	12	San Juan la Laguna	4	Abril	2023-12-04T00:00:00	2024-11-08T09:00:00	6	Velocidad del viento	0
47614	7	Sololá	717	San Juan la Laguna	12	San Juan la Laguna	4	Abril	2023-12-04T00:00:00	2024-11-08T09:00:00	7	Dirección del viento	0
47615	7	Sololá	717	San Juan la Laguna	12	San Juan la Laguna	4	Abril	2023-12-04T00:00:00	2024-11-08T09:00:00	1	Precipitación	0
47616	7	Sololá	717	San Juan la Laguna	12	San Juan la Laguna	4	Abril	2023-12-04T00:00:00	2024-11-08T09:00:00	8	Radiación solar	402
47617	7	Sololá	717	San Juan la Laguna	12	San Juan la Laguna	4	Abril	2023-12-04T00:00:00	2024-11-08T10:00:00	2	Temperatura media	21.9
47618	7	Sololá	717	San Juan la Laguna	12	San Juan la Laguna	4	Abril	2023-12-04T00:00:00	2024-11-08T10:00:00	4	Temperatura máxima	22.6
47619	7	Sololá	717	San Juan la Laguna	12	San Juan la Laguna	4	Abril	2023-12-04T00:00:00	2024-11-08T10:00:00	3	Temperatura mínima	21.4
47620	7	Sololá	717	San Juan la Laguna	12	San Juan la Laguna	4	Abril	2023-12-04T00:00:00	2024-11-08T10:00:00	5	Humedad	47
47621	7	Sololá	717	San Juan la Laguna	12	San Juan la Laguna	4	Abril	2023-12-04T00:00:00	2024-11-08T10:00:00	6	Velocidad del viento	1.6
47622	7	Sololá	717	San Juan la Laguna	12	San Juan la Laguna	4	Abril	2023-12-04T00:00:00	2024-11-08T10:00:00	7	Dirección del viento	1.61
47623	7	Sololá	717	San Juan la Laguna	12	San Juan la Laguna	4	Abril	2023-12-04T00:00:00	2024-11-08T10:00:00	1	Precipitación	0
47624	7	Sololá	717	San Juan la Laguna	12	San Juan la Laguna	4	Abril	2023-12-04T00:00:00	2024-11-08T10:00:00	8	Radiación solar	605
47625	7	Sololá	717	San Juan la Laguna	12	San Juan la Laguna	4	Abril	2023-12-04T00:00:00	2024-11-08T11:00:00	2	Temperatura media	22.7
47626	7	Sololá	717	San Juan la Laguna	12	San Juan la Laguna	4	Abril	2023-12-04T00:00:00	2024-11-08T11:00:00	4	Temperatura máxima	22.9
47627	7	Sololá	717	San Juan la Laguna	12	San Juan la Laguna	4	Abril	2023-12-04T00:00:00	2024-11-08T11:00:00	3	Temperatura mínima	21.9
47628	7	Sololá	717	San Juan la Laguna	12	San Juan la Laguna	4	Abril	2023-12-04T00:00:00	2024-11-08T11:00:00	5	Humedad	52
47629	7	Sololá	717	San Juan la Laguna	12	San Juan la Laguna	4	Abril	2023-12-04T00:00:00	2024-11-08T11:00:00	6	Velocidad del viento	1.6
47630	7	Sololá	717	San Juan la Laguna	12	San Juan la Laguna	4	Abril	2023-12-04T00:00:00	2024-11-08T11:00:00	7	Dirección del viento	1.61
47631	7	Sololá	717	San Juan la Laguna	12	San Juan la Laguna	4	Abril	2023-12-04T00:00:00	2024-11-08T11:00:00	1	Precipitación	0
47632	7	Sololá	717	San Juan la Laguna	12	San Juan la Laguna	4	Abril	2023-12-04T00:00:00	2024-11-08T11:00:00	8	Radiación solar	799
47633	7	Sololá	717	San Juan la Laguna	12	San Juan la Laguna	4	Abril	2023-12-04T00:00:00	2024-11-08T12:00:00	2	Temperatura media	23.8
47634	7	Sololá	717	San Juan la Laguna	12	San Juan la Laguna	4	Abril	2023-12-04T00:00:00	2024-11-08T12:00:00	4	Temperatura máxima	23.8
47635	7	Sololá	717	San Juan la Laguna	12	San Juan la Laguna	4	Abril	2023-12-04T00:00:00	2024-11-08T12:00:00	3	Temperatura mínima	22.7
47636	7	Sololá	717	San Juan la Laguna	12	San Juan la Laguna	4	Abril	2023-12-04T00:00:00	2024-11-08T12:00:00	5	Humedad	50
47637	7	Sololá	717	San Juan la Laguna	12	San Juan la Laguna	4	Abril	2023-12-04T00:00:00	2024-11-08T12:00:00	6	Velocidad del viento	1.6
47638	7	Sololá	717	San Juan la Laguna	12	San Juan la Laguna	4	Abril	2023-12-04T00:00:00	2024-11-08T12:00:00	7	Dirección del viento	1.61
47639	7	Sololá	717	San Juan la Laguna	12	San Juan la Laguna	4	Abril	2023-12-04T00:00:00	2024-11-08T12:00:00	1	Precipitación	0
47640	7	Sololá	717	San Juan la Laguna	12	San Juan la Laguna	4	Abril	2023-12-04T00:00:00	2024-11-08T12:00:00	8	Radiación solar	984
47641	7	Sololá	717	San Juan la Laguna	12	San Juan la Laguna	4	Abril	2023-12-04T00:00:00	2024-11-08T13:00:00	2	Temperatura media	23.6
47642	7	Sololá	717	San Juan la Laguna	12	San Juan la Laguna	4	Abril	2023-12-04T00:00:00	2024-11-08T13:00:00	4	Temperatura máxima	24.2
47643	7	Sololá	717	San Juan la Laguna	12	San Juan la Laguna	4	Abril	2023-12-04T00:00:00	2024-11-08T13:00:00	3	Temperatura mínima	23
47644	7	Sololá	717	San Juan la Laguna	12	San Juan la Laguna	4	Abril	2023-12-04T00:00:00	2024-11-08T13:00:00	5	Humedad	55
47645	7	Sololá	717	San Juan la Laguna	12	San Juan la Laguna	4	Abril	2023-12-04T00:00:00	2024-11-08T13:00:00	6	Velocidad del viento	4.8
47646	7	Sololá	717	San Juan la Laguna	12	San Juan la Laguna	4	Abril	2023-12-04T00:00:00	2024-11-08T13:00:00	7	Dirección del viento	4.83
47647	7	Sololá	717	San Juan la Laguna	12	San Juan la Laguna	4	Abril	2023-12-04T00:00:00	2024-11-08T13:00:00	1	Precipitación	0
47648	7	Sololá	717	San Juan la Laguna	12	San Juan la Laguna	4	Abril	2023-12-04T00:00:00	2024-11-08T13:00:00	8	Radiación solar	1004
47649	7	Sololá	717	San Juan la Laguna	12	San Juan la Laguna	4	Abril	2023-12-04T00:00:00	2024-11-08T14:00:00	2	Temperatura media	21.9
47650	7	Sololá	717	San Juan la Laguna	12	San Juan la Laguna	4	Abril	2023-12-04T00:00:00	2024-11-08T14:00:00	4	Temperatura máxima	23.6
47651	7	Sololá	717	San Juan la Laguna	12	San Juan la Laguna	4	Abril	2023-12-04T00:00:00	2024-11-08T14:00:00	3	Temperatura mínima	21.9
47652	7	Sololá	717	San Juan la Laguna	12	San Juan la Laguna	4	Abril	2023-12-04T00:00:00	2024-11-08T14:00:00	5	Humedad	66
47653	7	Sololá	717	San Juan la Laguna	12	San Juan la Laguna	4	Abril	2023-12-04T00:00:00	2024-11-08T14:00:00	6	Velocidad del viento	6.4
47654	7	Sololá	717	San Juan la Laguna	12	San Juan la Laguna	4	Abril	2023-12-04T00:00:00	2024-11-08T14:00:00	7	Dirección del viento	6.44
47655	7	Sololá	717	San Juan la Laguna	12	San Juan la Laguna	4	Abril	2023-12-04T00:00:00	2024-11-08T14:00:00	1	Precipitación	0
47656	7	Sololá	717	San Juan la Laguna	12	San Juan la Laguna	4	Abril	2023-12-04T00:00:00	2024-11-08T14:00:00	8	Radiación solar	698
47657	7	Sololá	717	San Juan la Laguna	12	San Juan la Laguna	4	Abril	2023-12-04T00:00:00	2024-11-08T15:00:00	2	Temperatura media	21.9
47658	7	Sololá	717	San Juan la Laguna	12	San Juan la Laguna	4	Abril	2023-12-04T00:00:00	2024-11-08T15:00:00	4	Temperatura máxima	22.2
47659	7	Sololá	717	San Juan la Laguna	12	San Juan la Laguna	4	Abril	2023-12-04T00:00:00	2024-11-08T15:00:00	3	Temperatura mínima	21.3
47660	7	Sololá	717	San Juan la Laguna	12	San Juan la Laguna	4	Abril	2023-12-04T00:00:00	2024-11-08T15:00:00	5	Humedad	67
47661	7	Sololá	717	San Juan la Laguna	12	San Juan la Laguna	4	Abril	2023-12-04T00:00:00	2024-11-08T15:00:00	6	Velocidad del viento	4.8
47662	7	Sololá	717	San Juan la Laguna	12	San Juan la Laguna	4	Abril	2023-12-04T00:00:00	2024-11-08T15:00:00	7	Dirección del viento	4.83
47663	7	Sololá	717	San Juan la Laguna	12	San Juan la Laguna	4	Abril	2023-12-04T00:00:00	2024-11-08T15:00:00	1	Precipitación	0
47664	7	Sololá	717	San Juan la Laguna	12	San Juan la Laguna	4	Abril	2023-12-04T00:00:00	2024-11-08T15:00:00	8	Radiación solar	449
47665	7	Sololá	717	San Juan la Laguna	12	San Juan la Laguna	4	Abril	2023-12-04T00:00:00	2024-11-08T16:00:00	2	Temperatura media	21.1
47666	7	Sololá	717	San Juan la Laguna	12	San Juan la Laguna	4	Abril	2023-12-04T00:00:00	2024-11-08T16:00:00	4	Temperatura máxima	21.9
47667	7	Sololá	717	San Juan la Laguna	12	San Juan la Laguna	4	Abril	2023-12-04T00:00:00	2024-11-08T16:00:00	3	Temperatura mínima	21.1
47668	7	Sololá	717	San Juan la Laguna	12	San Juan la Laguna	4	Abril	2023-12-04T00:00:00	2024-11-08T16:00:00	5	Humedad	68
47669	7	Sololá	717	San Juan la Laguna	12	San Juan la Laguna	4	Abril	2023-12-04T00:00:00	2024-11-08T16:00:00	6	Velocidad del viento	3.2
47670	7	Sololá	717	San Juan la Laguna	12	San Juan la Laguna	4	Abril	2023-12-04T00:00:00	2024-11-08T16:00:00	7	Dirección del viento	3.22
47671	7	Sololá	717	San Juan la Laguna	12	San Juan la Laguna	4	Abril	2023-12-04T00:00:00	2024-11-08T16:00:00	1	Precipitación	0
47672	7	Sololá	717	San Juan la Laguna	12	San Juan la Laguna	4	Abril	2023-12-04T00:00:00	2024-11-08T16:00:00	8	Radiación solar	121
47673	7	Sololá	717	San Juan la Laguna	12	San Juan la Laguna	4	Abril	2023-12-04T00:00:00	2024-11-08T17:00:00	2	Temperatura media	21.5
47674	7	Sololá	717	San Juan la Laguna	12	San Juan la Laguna	4	Abril	2023-12-04T00:00:00	2024-11-08T17:00:00	4	Temperatura máxima	22.7
47675	7	Sololá	717	San Juan la Laguna	12	San Juan la Laguna	4	Abril	2023-12-04T00:00:00	2024-11-08T17:00:00	3	Temperatura mínima	20.9
47676	7	Sololá	717	San Juan la Laguna	12	San Juan la Laguna	4	Abril	2023-12-04T00:00:00	2024-11-08T17:00:00	5	Humedad	67
47677	7	Sololá	717	San Juan la Laguna	12	San Juan la Laguna	4	Abril	2023-12-04T00:00:00	2024-11-08T17:00:00	6	Velocidad del viento	1.6
47678	7	Sololá	717	San Juan la Laguna	12	San Juan la Laguna	4	Abril	2023-12-04T00:00:00	2024-11-08T17:00:00	7	Dirección del viento	1.61
47679	7	Sololá	717	San Juan la Laguna	12	San Juan la Laguna	4	Abril	2023-12-04T00:00:00	2024-11-08T17:00:00	1	Precipitación	0
47680	7	Sololá	717	San Juan la Laguna	12	San Juan la Laguna	4	Abril	2023-12-04T00:00:00	2024-11-08T17:00:00	8	Radiación solar	236
47681	7	Sololá	717	San Juan la Laguna	12	San Juan la Laguna	4	Abril	2023-12-04T00:00:00	2024-11-08T18:00:00	2	Temperatura media	20.5
47682	7	Sololá	717	San Juan la Laguna	12	San Juan la Laguna	4	Abril	2023-12-04T00:00:00	2024-11-08T18:00:00	4	Temperatura máxima	21.5
47683	7	Sololá	717	San Juan la Laguna	12	San Juan la Laguna	4	Abril	2023-12-04T00:00:00	2024-11-08T18:00:00	3	Temperatura mínima	20.5
47684	7	Sololá	717	San Juan la Laguna	12	San Juan la Laguna	4	Abril	2023-12-04T00:00:00	2024-11-08T18:00:00	5	Humedad	73
47685	7	Sololá	717	San Juan la Laguna	12	San Juan la Laguna	4	Abril	2023-12-04T00:00:00	2024-11-08T18:00:00	6	Velocidad del viento	0
47686	7	Sololá	717	San Juan la Laguna	12	San Juan la Laguna	4	Abril	2023-12-04T00:00:00	2024-11-08T18:00:00	7	Dirección del viento	0
47687	7	Sololá	717	San Juan la Laguna	12	San Juan la Laguna	4	Abril	2023-12-04T00:00:00	2024-11-08T18:00:00	1	Precipitación	0
47688	7	Sololá	717	San Juan la Laguna	12	San Juan la Laguna	4	Abril	2023-12-04T00:00:00	2024-11-08T18:00:00	8	Radiación solar	67
47689	7	Sololá	717	San Juan la Laguna	12	San Juan la Laguna	4	Abril	2023-12-04T00:00:00	2024-11-08T19:00:00	2	Temperatura media	19.3
47690	7	Sololá	717	San Juan la Laguna	12	San Juan la Laguna	4	Abril	2023-12-04T00:00:00	2024-11-08T19:00:00	4	Temperatura máxima	20.5
47691	7	Sololá	717	San Juan la Laguna	12	San Juan la Laguna	4	Abril	2023-12-04T00:00:00	2024-11-08T19:00:00	3	Temperatura mínima	19.3
47692	7	Sololá	717	San Juan la Laguna	12	San Juan la Laguna	4	Abril	2023-12-04T00:00:00	2024-11-08T19:00:00	5	Humedad	77
47693	7	Sololá	717	San Juan la Laguna	12	San Juan la Laguna	4	Abril	2023-12-04T00:00:00	2024-11-08T19:00:00	6	Velocidad del viento	0
47694	7	Sololá	717	San Juan la Laguna	12	San Juan la Laguna	4	Abril	2023-12-04T00:00:00	2024-11-08T19:00:00	7	Dirección del viento	0
47695	7	Sololá	717	San Juan la Laguna	12	San Juan la Laguna	4	Abril	2023-12-04T00:00:00	2024-11-08T19:00:00	1	Precipitación	0
47696	7	Sololá	717	San Juan la Laguna	12	San Juan la Laguna	4	Abril	2023-12-04T00:00:00	2024-11-08T19:00:00	8	Radiación solar	0
47697	7	Sololá	717	San Juan la Laguna	12	San Juan la Laguna	4	Abril	2023-12-04T00:00:00	2024-11-08T20:00:00	2	Temperatura media	18.2
47698	7	Sololá	717	San Juan la Laguna	12	San Juan la Laguna	4	Abril	2023-12-04T00:00:00	2024-11-08T20:00:00	4	Temperatura máxima	19.4
47699	7	Sololá	717	San Juan la Laguna	12	San Juan la Laguna	4	Abril	2023-12-04T00:00:00	2024-11-08T20:00:00	3	Temperatura mínima	18.2
47700	7	Sololá	717	San Juan la Laguna	12	San Juan la Laguna	4	Abril	2023-12-04T00:00:00	2024-11-08T20:00:00	5	Humedad	80
47701	7	Sololá	717	San Juan la Laguna	12	San Juan la Laguna	4	Abril	2023-12-04T00:00:00	2024-11-08T20:00:00	6	Velocidad del viento	0
47702	7	Sololá	717	San Juan la Laguna	12	San Juan la Laguna	4	Abril	2023-12-04T00:00:00	2024-11-08T20:00:00	7	Dirección del viento	0
47703	7	Sololá	717	San Juan la Laguna	12	San Juan la Laguna	4	Abril	2023-12-04T00:00:00	2024-11-08T20:00:00	1	Precipitación	0
47704	7	Sololá	717	San Juan la Laguna	12	San Juan la Laguna	4	Abril	2023-12-04T00:00:00	2024-11-08T20:00:00	8	Radiación solar	0
47705	7	Sololá	717	San Juan la Laguna	12	San Juan la Laguna	4	Abril	2023-12-04T00:00:00	2024-11-08T21:00:00	2	Temperatura media	18.2
47706	7	Sololá	717	San Juan la Laguna	12	San Juan la Laguna	4	Abril	2023-12-04T00:00:00	2024-11-08T21:00:00	4	Temperatura máxima	18.2
47707	7	Sololá	717	San Juan la Laguna	12	San Juan la Laguna	4	Abril	2023-12-04T00:00:00	2024-11-08T21:00:00	3	Temperatura mínima	17.9
47708	7	Sololá	717	San Juan la Laguna	12	San Juan la Laguna	4	Abril	2023-12-04T00:00:00	2024-11-08T21:00:00	5	Humedad	81
47709	7	Sololá	717	San Juan la Laguna	12	San Juan la Laguna	4	Abril	2023-12-04T00:00:00	2024-11-08T21:00:00	6	Velocidad del viento	1.6
47710	7	Sololá	717	San Juan la Laguna	12	San Juan la Laguna	4	Abril	2023-12-04T00:00:00	2024-11-08T21:00:00	7	Dirección del viento	1.61
47711	7	Sololá	717	San Juan la Laguna	12	San Juan la Laguna	4	Abril	2023-12-04T00:00:00	2024-11-08T21:00:00	1	Precipitación	0
47712	7	Sololá	717	San Juan la Laguna	12	San Juan la Laguna	4	Abril	2023-12-04T00:00:00	2024-11-08T21:00:00	8	Radiación solar	0
47713	7	Sololá	717	San Juan la Laguna	12	San Juan la Laguna	4	Abril	2023-12-04T00:00:00	2024-11-08T22:00:00	2	Temperatura media	18
47714	7	Sololá	717	San Juan la Laguna	12	San Juan la Laguna	4	Abril	2023-12-04T00:00:00	2024-11-08T22:00:00	4	Temperatura máxima	18.4
47715	7	Sololá	717	San Juan la Laguna	12	San Juan la Laguna	4	Abril	2023-12-04T00:00:00	2024-11-08T22:00:00	3	Temperatura mínima	17.9
47716	7	Sololá	717	San Juan la Laguna	12	San Juan la Laguna	4	Abril	2023-12-04T00:00:00	2024-11-08T22:00:00	5	Humedad	81
47717	7	Sololá	717	San Juan la Laguna	12	San Juan la Laguna	4	Abril	2023-12-04T00:00:00	2024-11-08T22:00:00	6	Velocidad del viento	0
47718	7	Sololá	717	San Juan la Laguna	12	San Juan la Laguna	4	Abril	2023-12-04T00:00:00	2024-11-08T22:00:00	7	Dirección del viento	0
47719	7	Sololá	717	San Juan la Laguna	12	San Juan la Laguna	4	Abril	2023-12-04T00:00:00	2024-11-08T22:00:00	1	Precipitación	0
47720	7	Sololá	717	San Juan la Laguna	12	San Juan la Laguna	4	Abril	2023-12-04T00:00:00	2024-11-08T22:00:00	8	Radiación solar	0
47721	7	Sololá	717	San Juan la Laguna	12	San Juan la Laguna	4	Abril	2023-12-04T00:00:00	2024-11-08T23:00:00	2	Temperatura media	17.3
47722	7	Sololá	717	San Juan la Laguna	12	San Juan la Laguna	4	Abril	2023-12-04T00:00:00	2024-11-08T23:00:00	4	Temperatura máxima	18.2
47723	7	Sololá	717	San Juan la Laguna	12	San Juan la Laguna	4	Abril	2023-12-04T00:00:00	2024-11-08T23:00:00	3	Temperatura mínima	17.3
47724	7	Sololá	717	San Juan la Laguna	12	San Juan la Laguna	4	Abril	2023-12-04T00:00:00	2024-11-08T23:00:00	5	Humedad	81
47725	7	Sololá	717	San Juan la Laguna	12	San Juan la Laguna	4	Abril	2023-12-04T00:00:00	2024-11-08T23:00:00	6	Velocidad del viento	1.6
47726	7	Sololá	717	San Juan la Laguna	12	San Juan la Laguna	4	Abril	2023-12-04T00:00:00	2024-11-08T23:00:00	7	Dirección del viento	1.61
47727	7	Sololá	717	San Juan la Laguna	12	San Juan la Laguna	4	Abril	2023-12-04T00:00:00	2024-11-08T23:00:00	1	Precipitación	0
47728	7	Sololá	717	San Juan la Laguna	12	San Juan la Laguna	4	Abril	2023-12-04T00:00:00	2024-11-08T23:00:00	8	Radiación solar	0
47729	7	Sololá	717	San Juan la Laguna	12	San Juan la Laguna	4	Abril	2023-04-13T00:00:00	2024-11-08T00:00:00	2	Temperatura media	15.9
47730	7	Sololá	717	San Juan la Laguna	12	San Juan la Laguna	4	Abril	2023-04-13T00:00:00	2024-11-08T00:00:00	4	Temperatura máxima	17.3
47731	7	Sololá	717	San Juan la Laguna	12	San Juan la Laguna	4	Abril	2023-04-13T00:00:00	2024-11-08T00:00:00	3	Temperatura mínima	15.8
47732	7	Sololá	717	San Juan la Laguna	12	San Juan la Laguna	4	Abril	2023-04-13T00:00:00	2024-11-08T00:00:00	5	Humedad	84
47733	7	Sololá	717	San Juan la Laguna	12	San Juan la Laguna	4	Abril	2023-04-13T00:00:00	2024-11-08T00:00:00	6	Velocidad del viento	1.6
47734	7	Sololá	717	San Juan la Laguna	12	San Juan la Laguna	4	Abril	2023-04-13T00:00:00	2024-11-08T00:00:00	7	Dirección del viento	1.61
47735	7	Sololá	717	San Juan la Laguna	12	San Juan la Laguna	4	Abril	2023-04-13T00:00:00	2024-11-08T00:00:00	1	Precipitación	0
47736	7	Sololá	717	San Juan la Laguna	12	San Juan la Laguna	4	Abril	2023-04-13T00:00:00	2024-11-08T00:00:00	8	Radiación solar	0
47737	7	Sololá	717	San Juan la Laguna	12	San Juan la Laguna	4	Abril	2023-04-13T00:00:00	2024-11-08T01:00:00	2	Temperatura media	16.4
47738	7	Sololá	717	San Juan la Laguna	12	San Juan la Laguna	4	Abril	2023-04-13T00:00:00	2024-11-08T01:00:00	4	Temperatura máxima	16.4
47739	7	Sololá	717	San Juan la Laguna	12	San Juan la Laguna	4	Abril	2023-04-13T00:00:00	2024-11-08T01:00:00	3	Temperatura mínima	15.6
47740	7	Sololá	717	San Juan la Laguna	12	San Juan la Laguna	4	Abril	2023-04-13T00:00:00	2024-11-08T01:00:00	5	Humedad	80
47741	7	Sololá	717	San Juan la Laguna	12	San Juan la Laguna	4	Abril	2023-04-13T00:00:00	2024-11-08T01:00:00	6	Velocidad del viento	1.6
47742	7	Sololá	717	San Juan la Laguna	12	San Juan la Laguna	4	Abril	2023-04-13T00:00:00	2024-11-08T01:00:00	7	Dirección del viento	1.61
47743	7	Sololá	717	San Juan la Laguna	12	San Juan la Laguna	4	Abril	2023-04-13T00:00:00	2024-11-08T01:00:00	1	Precipitación	0
47744	7	Sololá	717	San Juan la Laguna	12	San Juan la Laguna	4	Abril	2023-04-13T00:00:00	2024-11-08T01:00:00	8	Radiación solar	0
47745	7	Sololá	717	San Juan la Laguna	12	San Juan la Laguna	4	Abril	2023-04-13T00:00:00	2024-11-08T02:00:00	2	Temperatura media	16.2
47746	7	Sololá	717	San Juan la Laguna	12	San Juan la Laguna	4	Abril	2023-04-13T00:00:00	2024-11-08T02:00:00	4	Temperatura máxima	16.9
47747	7	Sololá	717	San Juan la Laguna	12	San Juan la Laguna	4	Abril	2023-04-13T00:00:00	2024-11-08T02:00:00	3	Temperatura mínima	16.2
47748	7	Sololá	717	San Juan la Laguna	12	San Juan la Laguna	4	Abril	2023-04-13T00:00:00	2024-11-08T02:00:00	5	Humedad	80
47749	7	Sololá	717	San Juan la Laguna	12	San Juan la Laguna	4	Abril	2023-04-13T00:00:00	2024-11-08T02:00:00	6	Velocidad del viento	1.6
47750	7	Sololá	717	San Juan la Laguna	12	San Juan la Laguna	4	Abril	2023-04-13T00:00:00	2024-11-08T02:00:00	7	Dirección del viento	1.61
47751	7	Sololá	717	San Juan la Laguna	12	San Juan la Laguna	4	Abril	2023-04-13T00:00:00	2024-11-08T02:00:00	1	Precipitación	0
47752	7	Sololá	717	San Juan la Laguna	12	San Juan la Laguna	4	Abril	2023-04-13T00:00:00	2024-11-08T02:00:00	8	Radiación solar	0
47753	7	Sololá	717	San Juan la Laguna	12	San Juan la Laguna	4	Abril	2023-04-13T00:00:00	2024-11-08T03:00:00	2	Temperatura media	15.8
47754	7	Sololá	717	San Juan la Laguna	12	San Juan la Laguna	4	Abril	2023-04-13T00:00:00	2024-11-08T03:00:00	4	Temperatura máxima	16.2
47755	7	Sololá	717	San Juan la Laguna	12	San Juan la Laguna	4	Abril	2023-04-13T00:00:00	2024-11-08T03:00:00	3	Temperatura mínima	15.8
47756	7	Sololá	717	San Juan la Laguna	12	San Juan la Laguna	4	Abril	2023-04-13T00:00:00	2024-11-08T03:00:00	5	Humedad	80
47757	7	Sololá	717	San Juan la Laguna	12	San Juan la Laguna	4	Abril	2023-04-13T00:00:00	2024-11-08T03:00:00	6	Velocidad del viento	1.6
47758	7	Sololá	717	San Juan la Laguna	12	San Juan la Laguna	4	Abril	2023-04-13T00:00:00	2024-11-08T03:00:00	7	Dirección del viento	1.61
47759	7	Sololá	717	San Juan la Laguna	12	San Juan la Laguna	4	Abril	2023-04-13T00:00:00	2024-11-08T03:00:00	1	Precipitación	0
47760	7	Sololá	717	San Juan la Laguna	12	San Juan la Laguna	4	Abril	2023-04-13T00:00:00	2024-11-08T03:00:00	8	Radiación solar	0
47761	7	Sololá	717	San Juan la Laguna	12	San Juan la Laguna	4	Abril	2023-04-13T00:00:00	2024-11-08T04:00:00	2	Temperatura media	15.3
47762	7	Sololá	717	San Juan la Laguna	12	San Juan la Laguna	4	Abril	2023-04-13T00:00:00	2024-11-08T04:00:00	4	Temperatura máxima	15.8
47763	7	Sololá	717	San Juan la Laguna	12	San Juan la Laguna	4	Abril	2023-04-13T00:00:00	2024-11-08T04:00:00	3	Temperatura mínima	15.2
47764	7	Sololá	717	San Juan la Laguna	12	San Juan la Laguna	4	Abril	2023-04-13T00:00:00	2024-11-08T04:00:00	5	Humedad	81
47765	7	Sololá	717	San Juan la Laguna	12	San Juan la Laguna	4	Abril	2023-04-13T00:00:00	2024-11-08T04:00:00	6	Velocidad del viento	1.6
47766	7	Sololá	717	San Juan la Laguna	12	San Juan la Laguna	4	Abril	2023-04-13T00:00:00	2024-11-08T04:00:00	7	Dirección del viento	1.61
47767	7	Sololá	717	San Juan la Laguna	12	San Juan la Laguna	4	Abril	2023-04-13T00:00:00	2024-11-08T04:00:00	1	Precipitación	0
47768	7	Sololá	717	San Juan la Laguna	12	San Juan la Laguna	4	Abril	2023-04-13T00:00:00	2024-11-08T04:00:00	8	Radiación solar	0
47769	7	Sololá	717	San Juan la Laguna	12	San Juan la Laguna	4	Abril	2023-04-13T00:00:00	2024-11-08T05:00:00	2	Temperatura media	14.9
47770	7	Sololá	717	San Juan la Laguna	12	San Juan la Laguna	4	Abril	2023-04-13T00:00:00	2024-11-08T05:00:00	4	Temperatura máxima	15.4
47771	7	Sololá	717	San Juan la Laguna	12	San Juan la Laguna	4	Abril	2023-04-13T00:00:00	2024-11-08T05:00:00	3	Temperatura mínima	14.9
47772	7	Sololá	717	San Juan la Laguna	12	San Juan la Laguna	4	Abril	2023-04-13T00:00:00	2024-11-08T05:00:00	5	Humedad	81
47773	7	Sololá	717	San Juan la Laguna	12	San Juan la Laguna	4	Abril	2023-04-13T00:00:00	2024-11-08T05:00:00	6	Velocidad del viento	0
47774	7	Sololá	717	San Juan la Laguna	12	San Juan la Laguna	4	Abril	2023-04-13T00:00:00	2024-11-08T05:00:00	7	Dirección del viento	0
47775	7	Sololá	717	San Juan la Laguna	12	San Juan la Laguna	4	Abril	2023-04-13T00:00:00	2024-11-08T05:00:00	1	Precipitación	0
47776	7	Sololá	717	San Juan la Laguna	12	San Juan la Laguna	4	Abril	2023-04-13T00:00:00	2024-11-08T05:00:00	8	Radiación solar	0
47777	7	Sololá	717	San Juan la Laguna	12	San Juan la Laguna	4	Abril	2023-04-13T00:00:00	2024-11-08T06:00:00	2	Temperatura media	14.7
47778	7	Sololá	717	San Juan la Laguna	12	San Juan la Laguna	4	Abril	2023-04-13T00:00:00	2024-11-08T06:00:00	4	Temperatura máxima	15
47779	7	Sololá	717	San Juan la Laguna	12	San Juan la Laguna	4	Abril	2023-04-13T00:00:00	2024-11-08T06:00:00	3	Temperatura mínima	14.6
47780	7	Sololá	717	San Juan la Laguna	12	San Juan la Laguna	4	Abril	2023-04-13T00:00:00	2024-11-08T06:00:00	5	Humedad	82
47781	7	Sololá	717	San Juan la Laguna	12	San Juan la Laguna	4	Abril	2023-04-13T00:00:00	2024-11-08T06:00:00	6	Velocidad del viento	1.6
47782	7	Sololá	717	San Juan la Laguna	12	San Juan la Laguna	4	Abril	2023-04-13T00:00:00	2024-11-08T06:00:00	7	Dirección del viento	1.61
47783	7	Sololá	717	San Juan la Laguna	12	San Juan la Laguna	4	Abril	2023-04-13T00:00:00	2024-11-08T06:00:00	1	Precipitación	0
47784	7	Sololá	717	San Juan la Laguna	12	San Juan la Laguna	4	Abril	2023-04-13T00:00:00	2024-11-08T06:00:00	8	Radiación solar	0
47785	7	Sololá	717	San Juan la Laguna	12	San Juan la Laguna	4	Abril	2023-04-13T00:00:00	2024-11-08T07:00:00	2	Temperatura media	16
47786	7	Sololá	717	San Juan la Laguna	12	San Juan la Laguna	4	Abril	2023-04-13T00:00:00	2024-11-08T07:00:00	4	Temperatura máxima	16
47787	7	Sololá	717	San Juan la Laguna	12	San Juan la Laguna	4	Abril	2023-04-13T00:00:00	2024-11-08T07:00:00	3	Temperatura mínima	14.7
47788	7	Sololá	717	San Juan la Laguna	12	San Juan la Laguna	4	Abril	2023-04-13T00:00:00	2024-11-08T07:00:00	5	Humedad	79
47789	7	Sololá	717	San Juan la Laguna	12	San Juan la Laguna	4	Abril	2023-04-13T00:00:00	2024-11-08T07:00:00	6	Velocidad del viento	1.6
47790	7	Sololá	717	San Juan la Laguna	12	San Juan la Laguna	4	Abril	2023-04-13T00:00:00	2024-11-08T07:00:00	7	Dirección del viento	1.61
47791	7	Sololá	717	San Juan la Laguna	12	San Juan la Laguna	4	Abril	2023-04-13T00:00:00	2024-11-08T07:00:00	1	Precipitación	0
47792	7	Sololá	717	San Juan la Laguna	12	San Juan la Laguna	4	Abril	2023-04-13T00:00:00	2024-11-08T07:00:00	8	Radiación solar	59
47793	7	Sololá	717	San Juan la Laguna	12	San Juan la Laguna	4	Abril	2023-04-13T00:00:00	2024-11-08T08:00:00	2	Temperatura media	19.6
47794	7	Sololá	717	San Juan la Laguna	12	San Juan la Laguna	4	Abril	2023-04-13T00:00:00	2024-11-08T08:00:00	4	Temperatura máxima	19.7
47795	7	Sololá	717	San Juan la Laguna	12	San Juan la Laguna	4	Abril	2023-04-13T00:00:00	2024-11-08T08:00:00	3	Temperatura mínima	16
47796	7	Sololá	717	San Juan la Laguna	12	San Juan la Laguna	4	Abril	2023-04-13T00:00:00	2024-11-08T08:00:00	5	Humedad	70
47797	7	Sololá	717	San Juan la Laguna	12	San Juan la Laguna	4	Abril	2023-04-13T00:00:00	2024-11-08T08:00:00	6	Velocidad del viento	0
47798	7	Sololá	717	San Juan la Laguna	12	San Juan la Laguna	4	Abril	2023-04-13T00:00:00	2024-11-08T08:00:00	7	Dirección del viento	0
47799	7	Sololá	717	San Juan la Laguna	12	San Juan la Laguna	4	Abril	2023-04-13T00:00:00	2024-11-08T08:00:00	1	Precipitación	0
47800	7	Sololá	717	San Juan la Laguna	12	San Juan la Laguna	4	Abril	2023-04-13T00:00:00	2024-11-08T08:00:00	8	Radiación solar	237
47801	7	Sololá	717	San Juan la Laguna	12	San Juan la Laguna	4	Abril	2023-04-13T00:00:00	2024-11-08T09:00:00	2	Temperatura media	20.7
47802	7	Sololá	717	San Juan la Laguna	12	San Juan la Laguna	4	Abril	2023-04-13T00:00:00	2024-11-08T09:00:00	4	Temperatura máxima	20.7
47803	7	Sololá	717	San Juan la Laguna	12	San Juan la Laguna	4	Abril	2023-04-13T00:00:00	2024-11-08T09:00:00	3	Temperatura mínima	19.3
47804	7	Sololá	717	San Juan la Laguna	12	San Juan la Laguna	4	Abril	2023-04-13T00:00:00	2024-11-08T09:00:00	5	Humedad	70
47805	7	Sololá	717	San Juan la Laguna	12	San Juan la Laguna	4	Abril	2023-04-13T00:00:00	2024-11-08T09:00:00	6	Velocidad del viento	0
47806	7	Sololá	717	San Juan la Laguna	12	San Juan la Laguna	4	Abril	2023-04-13T00:00:00	2024-11-08T09:00:00	7	Dirección del viento	0
47807	7	Sololá	717	San Juan la Laguna	12	San Juan la Laguna	4	Abril	2023-04-13T00:00:00	2024-11-08T09:00:00	1	Precipitación	0
47808	7	Sololá	717	San Juan la Laguna	12	San Juan la Laguna	4	Abril	2023-04-13T00:00:00	2024-11-08T09:00:00	8	Radiación solar	402
47809	7	Sololá	717	San Juan la Laguna	12	San Juan la Laguna	4	Abril	2023-04-13T00:00:00	2024-11-08T10:00:00	2	Temperatura media	21.5
47810	7	Sololá	717	San Juan la Laguna	12	San Juan la Laguna	4	Abril	2023-04-13T00:00:00	2024-11-08T10:00:00	4	Temperatura máxima	21.9
47811	7	Sololá	717	San Juan la Laguna	12	San Juan la Laguna	4	Abril	2023-04-13T00:00:00	2024-11-08T10:00:00	3	Temperatura mínima	20.7
47812	7	Sololá	717	San Juan la Laguna	12	San Juan la Laguna	4	Abril	2023-04-13T00:00:00	2024-11-08T10:00:00	5	Humedad	64
47813	7	Sololá	717	San Juan la Laguna	12	San Juan la Laguna	4	Abril	2023-04-13T00:00:00	2024-11-08T10:00:00	6	Velocidad del viento	1.6
47814	7	Sololá	717	San Juan la Laguna	12	San Juan la Laguna	4	Abril	2023-04-13T00:00:00	2024-11-08T10:00:00	7	Dirección del viento	1.61
47815	7	Sololá	717	San Juan la Laguna	12	San Juan la Laguna	4	Abril	2023-04-13T00:00:00	2024-11-08T10:00:00	1	Precipitación	0
47816	7	Sololá	717	San Juan la Laguna	12	San Juan la Laguna	4	Abril	2023-04-13T00:00:00	2024-11-08T10:00:00	8	Radiación solar	655
47817	7	Sololá	717	San Juan la Laguna	12	San Juan la Laguna	4	Abril	2023-04-13T00:00:00	2024-11-08T11:00:00	2	Temperatura media	23.8
47818	7	Sololá	717	San Juan la Laguna	12	San Juan la Laguna	4	Abril	2023-04-13T00:00:00	2024-11-08T11:00:00	4	Temperatura máxima	23.8
47819	7	Sololá	717	San Juan la Laguna	12	San Juan la Laguna	4	Abril	2023-04-13T00:00:00	2024-11-08T11:00:00	3	Temperatura mínima	21.6
47820	7	Sololá	717	San Juan la Laguna	12	San Juan la Laguna	4	Abril	2023-04-13T00:00:00	2024-11-08T11:00:00	5	Humedad	61
47821	7	Sololá	717	San Juan la Laguna	12	San Juan la Laguna	4	Abril	2023-04-13T00:00:00	2024-11-08T11:00:00	6	Velocidad del viento	1.6
47822	7	Sololá	717	San Juan la Laguna	12	San Juan la Laguna	4	Abril	2023-04-13T00:00:00	2024-11-08T11:00:00	7	Dirección del viento	1.61
47823	7	Sololá	717	San Juan la Laguna	12	San Juan la Laguna	4	Abril	2023-04-13T00:00:00	2024-11-08T11:00:00	1	Precipitación	0
47824	7	Sololá	717	San Juan la Laguna	12	San Juan la Laguna	4	Abril	2023-04-13T00:00:00	2024-11-08T11:00:00	8	Radiación solar	895
47825	7	Sololá	717	San Juan la Laguna	12	San Juan la Laguna	4	Abril	2023-04-13T00:00:00	2024-11-08T12:00:00	2	Temperatura media	23.9
47826	7	Sololá	717	San Juan la Laguna	12	San Juan la Laguna	4	Abril	2023-04-13T00:00:00	2024-11-08T12:00:00	4	Temperatura máxima	24
47827	7	Sololá	717	San Juan la Laguna	12	San Juan la Laguna	4	Abril	2023-04-13T00:00:00	2024-11-08T12:00:00	3	Temperatura mínima	22.4
47828	7	Sololá	717	San Juan la Laguna	12	San Juan la Laguna	4	Abril	2023-04-13T00:00:00	2024-11-08T12:00:00	5	Humedad	62
47829	7	Sololá	717	San Juan la Laguna	12	San Juan la Laguna	4	Abril	2023-04-13T00:00:00	2024-11-08T12:00:00	6	Velocidad del viento	1.6
47830	7	Sololá	717	San Juan la Laguna	12	San Juan la Laguna	4	Abril	2023-04-13T00:00:00	2024-11-08T12:00:00	7	Dirección del viento	1.61
47831	7	Sololá	717	San Juan la Laguna	12	San Juan la Laguna	4	Abril	2023-04-13T00:00:00	2024-11-08T12:00:00	1	Precipitación	0
47832	7	Sololá	717	San Juan la Laguna	12	San Juan la Laguna	4	Abril	2023-04-13T00:00:00	2024-11-08T12:00:00	8	Radiación solar	663
47833	7	Sololá	717	San Juan la Laguna	12	San Juan la Laguna	4	Abril	2023-04-13T00:00:00	2024-11-08T13:00:00	2	Temperatura media	23
47834	7	Sololá	717	San Juan la Laguna	12	San Juan la Laguna	4	Abril	2023-04-13T00:00:00	2024-11-08T13:00:00	4	Temperatura máxima	23.9
47835	7	Sololá	717	San Juan la Laguna	12	San Juan la Laguna	4	Abril	2023-04-13T00:00:00	2024-11-08T13:00:00	3	Temperatura mínima	22.1
47836	7	Sololá	717	San Juan la Laguna	12	San Juan la Laguna	4	Abril	2023-04-13T00:00:00	2024-11-08T13:00:00	5	Humedad	67
47837	7	Sololá	717	San Juan la Laguna	12	San Juan la Laguna	4	Abril	2023-04-13T00:00:00	2024-11-08T13:00:00	6	Velocidad del viento	4.8
47838	7	Sololá	717	San Juan la Laguna	12	San Juan la Laguna	4	Abril	2023-04-13T00:00:00	2024-11-08T13:00:00	7	Dirección del viento	4.83
47839	7	Sololá	717	San Juan la Laguna	12	San Juan la Laguna	4	Abril	2023-04-13T00:00:00	2024-11-08T13:00:00	1	Precipitación	0
47840	7	Sololá	717	San Juan la Laguna	12	San Juan la Laguna	4	Abril	2023-04-13T00:00:00	2024-11-08T13:00:00	8	Radiación solar	613
47841	7	Sololá	717	San Juan la Laguna	12	San Juan la Laguna	4	Abril	2023-04-13T00:00:00	2024-11-08T14:00:00	2	Temperatura media	22.2
47842	7	Sololá	717	San Juan la Laguna	12	San Juan la Laguna	4	Abril	2023-04-13T00:00:00	2024-11-08T14:00:00	4	Temperatura máxima	22.9
47843	7	Sololá	717	San Juan la Laguna	12	San Juan la Laguna	4	Abril	2023-04-13T00:00:00	2024-11-08T14:00:00	3	Temperatura mínima	21.9
47844	7	Sololá	717	San Juan la Laguna	12	San Juan la Laguna	4	Abril	2023-04-13T00:00:00	2024-11-08T14:00:00	5	Humedad	68
47845	7	Sololá	717	San Juan la Laguna	12	San Juan la Laguna	4	Abril	2023-04-13T00:00:00	2024-11-08T14:00:00	6	Velocidad del viento	6.4
47846	7	Sololá	717	San Juan la Laguna	12	San Juan la Laguna	4	Abril	2023-04-13T00:00:00	2024-11-08T14:00:00	7	Dirección del viento	6.44
47847	7	Sololá	717	San Juan la Laguna	12	San Juan la Laguna	4	Abril	2023-04-13T00:00:00	2024-11-08T14:00:00	1	Precipitación	0
47848	7	Sololá	717	San Juan la Laguna	12	San Juan la Laguna	4	Abril	2023-04-13T00:00:00	2024-11-08T14:00:00	8	Radiación solar	805
47849	7	Sololá	717	San Juan la Laguna	12	San Juan la Laguna	4	Abril	2023-04-13T00:00:00	2024-11-08T15:00:00	2	Temperatura media	21.7
47850	7	Sololá	717	San Juan la Laguna	12	San Juan la Laguna	4	Abril	2023-04-13T00:00:00	2024-11-08T15:00:00	4	Temperatura máxima	23.4
47851	7	Sololá	717	San Juan la Laguna	12	San Juan la Laguna	4	Abril	2023-04-13T00:00:00	2024-11-08T15:00:00	3	Temperatura mínima	21.7
47852	7	Sololá	717	San Juan la Laguna	12	San Juan la Laguna	4	Abril	2023-04-13T00:00:00	2024-11-08T15:00:00	5	Humedad	72
47853	7	Sololá	717	San Juan la Laguna	12	San Juan la Laguna	4	Abril	2023-04-13T00:00:00	2024-11-08T15:00:00	6	Velocidad del viento	4.8
47854	7	Sololá	717	San Juan la Laguna	12	San Juan la Laguna	4	Abril	2023-04-13T00:00:00	2024-11-08T15:00:00	7	Dirección del viento	4.83
47855	7	Sololá	717	San Juan la Laguna	12	San Juan la Laguna	4	Abril	2023-04-13T00:00:00	2024-11-08T15:00:00	1	Precipitación	0
47856	7	Sololá	717	San Juan la Laguna	12	San Juan la Laguna	4	Abril	2023-04-13T00:00:00	2024-11-08T15:00:00	8	Radiación solar	517
47857	7	Sololá	717	San Juan la Laguna	12	San Juan la Laguna	4	Abril	2023-04-13T00:00:00	2024-11-08T16:00:00	2	Temperatura media	20.7
47858	7	Sololá	717	San Juan la Laguna	12	San Juan la Laguna	4	Abril	2023-04-13T00:00:00	2024-11-08T16:00:00	4	Temperatura máxima	21.7
47859	7	Sololá	717	San Juan la Laguna	12	San Juan la Laguna	4	Abril	2023-04-13T00:00:00	2024-11-08T16:00:00	3	Temperatura mínima	20.7
47860	7	Sololá	717	San Juan la Laguna	12	San Juan la Laguna	4	Abril	2023-04-13T00:00:00	2024-11-08T16:00:00	5	Humedad	76
47861	7	Sololá	717	San Juan la Laguna	12	San Juan la Laguna	4	Abril	2023-04-13T00:00:00	2024-11-08T16:00:00	6	Velocidad del viento	4.8
47862	7	Sololá	717	San Juan la Laguna	12	San Juan la Laguna	4	Abril	2023-04-13T00:00:00	2024-11-08T16:00:00	7	Dirección del viento	4.83
47863	7	Sololá	717	San Juan la Laguna	12	San Juan la Laguna	4	Abril	2023-04-13T00:00:00	2024-11-08T16:00:00	1	Precipitación	0
47864	7	Sololá	717	San Juan la Laguna	12	San Juan la Laguna	4	Abril	2023-04-13T00:00:00	2024-11-08T16:00:00	8	Radiación solar	176
47865	7	Sololá	717	San Juan la Laguna	12	San Juan la Laguna	4	Abril	2023-04-13T00:00:00	2024-11-08T17:00:00	2	Temperatura media	20.8
47866	7	Sololá	717	San Juan la Laguna	12	San Juan la Laguna	4	Abril	2023-04-13T00:00:00	2024-11-08T17:00:00	4	Temperatura máxima	20.8
47867	7	Sololá	717	San Juan la Laguna	12	San Juan la Laguna	4	Abril	2023-04-13T00:00:00	2024-11-08T17:00:00	3	Temperatura mínima	20.6
47868	7	Sololá	717	San Juan la Laguna	12	San Juan la Laguna	4	Abril	2023-04-13T00:00:00	2024-11-08T17:00:00	5	Humedad	75
47869	7	Sololá	717	San Juan la Laguna	12	San Juan la Laguna	4	Abril	2023-04-13T00:00:00	2024-11-08T17:00:00	6	Velocidad del viento	3.2
47870	7	Sololá	717	San Juan la Laguna	12	San Juan la Laguna	4	Abril	2023-04-13T00:00:00	2024-11-08T17:00:00	7	Dirección del viento	3.22
47871	7	Sololá	717	San Juan la Laguna	12	San Juan la Laguna	4	Abril	2023-04-13T00:00:00	2024-11-08T17:00:00	1	Precipitación	0
47872	7	Sololá	717	San Juan la Laguna	12	San Juan la Laguna	4	Abril	2023-04-13T00:00:00	2024-11-08T17:00:00	8	Radiación solar	170
47873	7	Sololá	717	San Juan la Laguna	12	San Juan la Laguna	4	Abril	2023-04-13T00:00:00	2024-11-08T18:00:00	2	Temperatura media	20.2
47874	7	Sololá	717	San Juan la Laguna	12	San Juan la Laguna	4	Abril	2023-04-13T00:00:00	2024-11-08T18:00:00	4	Temperatura máxima	20.9
47875	7	Sololá	717	San Juan la Laguna	12	San Juan la Laguna	4	Abril	2023-04-13T00:00:00	2024-11-08T18:00:00	3	Temperatura mínima	20.2
47876	7	Sololá	717	San Juan la Laguna	12	San Juan la Laguna	4	Abril	2023-04-13T00:00:00	2024-11-08T18:00:00	5	Humedad	77
47877	7	Sololá	717	San Juan la Laguna	12	San Juan la Laguna	4	Abril	2023-04-13T00:00:00	2024-11-08T18:00:00	6	Velocidad del viento	3.2
47878	7	Sololá	717	San Juan la Laguna	12	San Juan la Laguna	4	Abril	2023-04-13T00:00:00	2024-11-08T18:00:00	7	Dirección del viento	3.22
47879	7	Sololá	717	San Juan la Laguna	12	San Juan la Laguna	4	Abril	2023-04-13T00:00:00	2024-11-08T18:00:00	1	Precipitación	0
47880	7	Sololá	717	San Juan la Laguna	12	San Juan la Laguna	4	Abril	2023-04-13T00:00:00	2024-11-08T18:00:00	8	Radiación solar	93
47881	7	Sololá	717	San Juan la Laguna	12	San Juan la Laguna	4	Abril	2023-04-13T00:00:00	2024-11-08T19:00:00	2	Temperatura media	19.6
47882	7	Sololá	717	San Juan la Laguna	12	San Juan la Laguna	4	Abril	2023-04-13T00:00:00	2024-11-08T19:00:00	4	Temperatura máxima	20.2
47883	7	Sololá	717	San Juan la Laguna	12	San Juan la Laguna	4	Abril	2023-04-13T00:00:00	2024-11-08T19:00:00	3	Temperatura mínima	19.5
47884	7	Sololá	717	San Juan la Laguna	12	San Juan la Laguna	4	Abril	2023-04-13T00:00:00	2024-11-08T19:00:00	5	Humedad	80
47885	7	Sololá	717	San Juan la Laguna	12	San Juan la Laguna	4	Abril	2023-04-13T00:00:00	2024-11-08T19:00:00	6	Velocidad del viento	1.6
47886	7	Sololá	717	San Juan la Laguna	12	San Juan la Laguna	4	Abril	2023-04-13T00:00:00	2024-11-08T19:00:00	7	Dirección del viento	1.61
47887	7	Sololá	717	San Juan la Laguna	12	San Juan la Laguna	4	Abril	2023-04-13T00:00:00	2024-11-08T19:00:00	1	Precipitación	0
47888	7	Sololá	717	San Juan la Laguna	12	San Juan la Laguna	4	Abril	2023-04-13T00:00:00	2024-11-08T19:00:00	8	Radiación solar	0
47889	7	Sololá	717	San Juan la Laguna	12	San Juan la Laguna	4	Abril	2023-04-13T00:00:00	2024-11-08T20:00:00	2	Temperatura media	18.8
47890	7	Sololá	717	San Juan la Laguna	12	San Juan la Laguna	4	Abril	2023-04-13T00:00:00	2024-11-08T20:00:00	4	Temperatura máxima	19.6
47891	7	Sololá	717	San Juan la Laguna	12	San Juan la Laguna	4	Abril	2023-04-13T00:00:00	2024-11-08T20:00:00	3	Temperatura mínima	18.8
47892	7	Sololá	717	San Juan la Laguna	12	San Juan la Laguna	4	Abril	2023-04-13T00:00:00	2024-11-08T20:00:00	5	Humedad	82
47893	7	Sololá	717	San Juan la Laguna	12	San Juan la Laguna	4	Abril	2023-04-13T00:00:00	2024-11-08T20:00:00	6	Velocidad del viento	1.6
47894	7	Sololá	717	San Juan la Laguna	12	San Juan la Laguna	4	Abril	2023-04-13T00:00:00	2024-11-08T20:00:00	7	Dirección del viento	1.61
47895	7	Sololá	717	San Juan la Laguna	12	San Juan la Laguna	4	Abril	2023-04-13T00:00:00	2024-11-08T20:00:00	1	Precipitación	0
47896	7	Sololá	717	San Juan la Laguna	12	San Juan la Laguna	4	Abril	2023-04-13T00:00:00	2024-11-08T20:00:00	8	Radiación solar	0
47897	7	Sololá	717	San Juan la Laguna	12	San Juan la Laguna	4	Abril	2023-04-13T00:00:00	2024-11-08T21:00:00	2	Temperatura media	18.8
47898	7	Sololá	717	San Juan la Laguna	12	San Juan la Laguna	4	Abril	2023-04-13T00:00:00	2024-11-08T21:00:00	4	Temperatura máxima	19.3
47899	7	Sololá	717	San Juan la Laguna	12	San Juan la Laguna	4	Abril	2023-04-13T00:00:00	2024-11-08T21:00:00	3	Temperatura mínima	18.8
47900	7	Sololá	717	San Juan la Laguna	12	San Juan la Laguna	4	Abril	2023-04-13T00:00:00	2024-11-08T21:00:00	5	Humedad	81
47901	7	Sololá	717	San Juan la Laguna	12	San Juan la Laguna	4	Abril	2023-04-13T00:00:00	2024-11-08T21:00:00	6	Velocidad del viento	1.6
47902	7	Sololá	717	San Juan la Laguna	12	San Juan la Laguna	4	Abril	2023-04-13T00:00:00	2024-11-08T21:00:00	7	Dirección del viento	1.61
47903	7	Sololá	717	San Juan la Laguna	12	San Juan la Laguna	4	Abril	2023-04-13T00:00:00	2024-11-08T21:00:00	1	Precipitación	0
47904	7	Sololá	717	San Juan la Laguna	12	San Juan la Laguna	4	Abril	2023-04-13T00:00:00	2024-11-08T21:00:00	8	Radiación solar	0
47905	7	Sololá	717	San Juan la Laguna	12	San Juan la Laguna	4	Abril	2023-04-13T00:00:00	2024-11-08T22:00:00	2	Temperatura media	18.6
47906	7	Sololá	717	San Juan la Laguna	12	San Juan la Laguna	4	Abril	2023-04-13T00:00:00	2024-11-08T22:00:00	4	Temperatura máxima	19
47907	7	Sololá	717	San Juan la Laguna	12	San Juan la Laguna	4	Abril	2023-04-13T00:00:00	2024-11-08T22:00:00	3	Temperatura mínima	18.4
47908	7	Sololá	717	San Juan la Laguna	12	San Juan la Laguna	4	Abril	2023-04-13T00:00:00	2024-11-08T22:00:00	5	Humedad	85
47909	7	Sololá	717	San Juan la Laguna	12	San Juan la Laguna	4	Abril	2023-04-13T00:00:00	2024-11-08T22:00:00	6	Velocidad del viento	0
47910	7	Sololá	717	San Juan la Laguna	12	San Juan la Laguna	4	Abril	2023-04-13T00:00:00	2024-11-08T22:00:00	7	Dirección del viento	0
47911	7	Sololá	717	San Juan la Laguna	12	San Juan la Laguna	4	Abril	2023-04-13T00:00:00	2024-11-08T22:00:00	1	Precipitación	0
47912	7	Sololá	717	San Juan la Laguna	12	San Juan la Laguna	4	Abril	2023-04-13T00:00:00	2024-11-08T22:00:00	8	Radiación solar	0
47913	7	Sololá	717	San Juan la Laguna	12	San Juan la Laguna	4	Abril	2023-04-13T00:00:00	2024-11-08T23:00:00	2	Temperatura media	18.1
47914	7	Sololá	717	San Juan la Laguna	12	San Juan la Laguna	4	Abril	2023-04-13T00:00:00	2024-11-08T23:00:00	4	Temperatura máxima	18.6
47915	7	Sololá	717	San Juan la Laguna	12	San Juan la Laguna	4	Abril	2023-04-13T00:00:00	2024-11-08T23:00:00	3	Temperatura mínima	18.1
47916	7	Sololá	717	San Juan la Laguna	12	San Juan la Laguna	4	Abril	2023-04-13T00:00:00	2024-11-08T23:00:00	5	Humedad	84
47917	7	Sololá	717	San Juan la Laguna	12	San Juan la Laguna	4	Abril	2023-04-13T00:00:00	2024-11-08T23:00:00	6	Velocidad del viento	0
47918	7	Sololá	717	San Juan la Laguna	12	San Juan la Laguna	4	Abril	2023-04-13T00:00:00	2024-11-08T23:00:00	7	Dirección del viento	0
47919	7	Sololá	717	San Juan la Laguna	12	San Juan la Laguna	4	Abril	2023-04-13T00:00:00	2024-11-08T23:00:00	1	Precipitación	0
47920	7	Sololá	717	San Juan la Laguna	12	San Juan la Laguna	4	Abril	2023-04-13T00:00:00	2024-11-08T23:00:00	8	Radiación solar	0
47921	7	Sololá	717	San Juan la Laguna	12	San Juan la Laguna	4	Abril	2023-04-14T00:00:00	2024-11-08T00:00:00	2	Temperatura media	17.3
47922	7	Sololá	717	San Juan la Laguna	12	San Juan la Laguna	4	Abril	2023-04-14T00:00:00	2024-11-08T00:00:00	4	Temperatura máxima	18.1
47923	7	Sololá	717	San Juan la Laguna	12	San Juan la Laguna	4	Abril	2023-04-14T00:00:00	2024-11-08T00:00:00	3	Temperatura mínima	17.3
47924	7	Sololá	717	San Juan la Laguna	12	San Juan la Laguna	4	Abril	2023-04-14T00:00:00	2024-11-08T00:00:00	5	Humedad	84
47925	7	Sololá	717	San Juan la Laguna	12	San Juan la Laguna	4	Abril	2023-04-14T00:00:00	2024-11-08T00:00:00	6	Velocidad del viento	1.6
47926	7	Sololá	717	San Juan la Laguna	12	San Juan la Laguna	4	Abril	2023-04-14T00:00:00	2024-11-08T00:00:00	7	Dirección del viento	1.61
47927	7	Sololá	717	San Juan la Laguna	12	San Juan la Laguna	4	Abril	2023-04-14T00:00:00	2024-11-08T00:00:00	1	Precipitación	0
47928	7	Sololá	717	San Juan la Laguna	12	San Juan la Laguna	4	Abril	2023-04-14T00:00:00	2024-11-08T00:00:00	8	Radiación solar	0
47929	7	Sololá	717	San Juan la Laguna	12	San Juan la Laguna	4	Abril	2023-04-14T00:00:00	2024-11-08T01:00:00	2	Temperatura media	16.6
47930	7	Sololá	717	San Juan la Laguna	12	San Juan la Laguna	4	Abril	2023-04-14T00:00:00	2024-11-08T01:00:00	4	Temperatura máxima	17.3
47931	7	Sololá	717	San Juan la Laguna	12	San Juan la Laguna	4	Abril	2023-04-14T00:00:00	2024-11-08T01:00:00	3	Temperatura mínima	16.6
47932	7	Sololá	717	San Juan la Laguna	12	San Juan la Laguna	4	Abril	2023-04-14T00:00:00	2024-11-08T01:00:00	5	Humedad	86
47933	7	Sololá	717	San Juan la Laguna	12	San Juan la Laguna	4	Abril	2023-04-14T00:00:00	2024-11-08T01:00:00	6	Velocidad del viento	0
47934	7	Sololá	717	San Juan la Laguna	12	San Juan la Laguna	4	Abril	2023-04-14T00:00:00	2024-11-08T01:00:00	7	Dirección del viento	0
47935	7	Sololá	717	San Juan la Laguna	12	San Juan la Laguna	4	Abril	2023-04-14T00:00:00	2024-11-08T01:00:00	1	Precipitación	0
47936	7	Sololá	717	San Juan la Laguna	12	San Juan la Laguna	4	Abril	2023-04-14T00:00:00	2024-11-08T01:00:00	8	Radiación solar	0
47937	7	Sololá	717	San Juan la Laguna	12	San Juan la Laguna	4	Abril	2023-04-14T00:00:00	2024-11-08T02:00:00	2	Temperatura media	15.5
47938	7	Sololá	717	San Juan la Laguna	12	San Juan la Laguna	4	Abril	2023-04-14T00:00:00	2024-11-08T02:00:00	4	Temperatura máxima	16.6
47939	7	Sololá	717	San Juan la Laguna	12	San Juan la Laguna	4	Abril	2023-04-14T00:00:00	2024-11-08T02:00:00	3	Temperatura mínima	15.5
47940	7	Sololá	717	San Juan la Laguna	12	San Juan la Laguna	4	Abril	2023-04-14T00:00:00	2024-11-08T02:00:00	5	Humedad	81
47941	7	Sololá	717	San Juan la Laguna	12	San Juan la Laguna	4	Abril	2023-04-14T00:00:00	2024-11-08T02:00:00	6	Velocidad del viento	1.6
47942	7	Sololá	717	San Juan la Laguna	12	San Juan la Laguna	4	Abril	2023-04-14T00:00:00	2024-11-08T02:00:00	7	Dirección del viento	1.61
47943	7	Sololá	717	San Juan la Laguna	12	San Juan la Laguna	4	Abril	2023-04-14T00:00:00	2024-11-08T02:00:00	1	Precipitación	0
47944	7	Sololá	717	San Juan la Laguna	12	San Juan la Laguna	4	Abril	2023-04-14T00:00:00	2024-11-08T02:00:00	8	Radiación solar	0
47945	7	Sololá	717	San Juan la Laguna	12	San Juan la Laguna	4	Abril	2023-04-14T00:00:00	2024-11-08T03:00:00	2	Temperatura media	14.9
47946	7	Sololá	717	San Juan la Laguna	12	San Juan la Laguna	4	Abril	2023-04-14T00:00:00	2024-11-08T03:00:00	4	Temperatura máxima	15.5
47947	7	Sololá	717	San Juan la Laguna	12	San Juan la Laguna	4	Abril	2023-04-14T00:00:00	2024-11-08T03:00:00	3	Temperatura mínima	14.9
47948	7	Sololá	717	San Juan la Laguna	12	San Juan la Laguna	4	Abril	2023-04-14T00:00:00	2024-11-08T03:00:00	5	Humedad	78
47949	7	Sololá	717	San Juan la Laguna	12	San Juan la Laguna	4	Abril	2023-04-14T00:00:00	2024-11-08T03:00:00	6	Velocidad del viento	3.2
47950	7	Sololá	717	San Juan la Laguna	12	San Juan la Laguna	4	Abril	2023-04-14T00:00:00	2024-11-08T03:00:00	7	Dirección del viento	3.22
47951	7	Sololá	717	San Juan la Laguna	12	San Juan la Laguna	4	Abril	2023-04-14T00:00:00	2024-11-08T03:00:00	1	Precipitación	0
47952	7	Sololá	717	San Juan la Laguna	12	San Juan la Laguna	4	Abril	2023-04-14T00:00:00	2024-11-08T03:00:00	8	Radiación solar	0
47953	7	Sololá	717	San Juan la Laguna	12	San Juan la Laguna	4	Abril	2023-04-14T00:00:00	2024-11-08T04:00:00	2	Temperatura media	14.7
47954	7	Sololá	717	San Juan la Laguna	12	San Juan la Laguna	4	Abril	2023-04-14T00:00:00	2024-11-08T04:00:00	4	Temperatura máxima	14.9
47955	7	Sololá	717	San Juan la Laguna	12	San Juan la Laguna	4	Abril	2023-04-14T00:00:00	2024-11-08T04:00:00	3	Temperatura mínima	14.4
47956	7	Sololá	717	San Juan la Laguna	12	San Juan la Laguna	4	Abril	2023-04-14T00:00:00	2024-11-08T04:00:00	5	Humedad	78
47957	7	Sololá	717	San Juan la Laguna	12	San Juan la Laguna	4	Abril	2023-04-14T00:00:00	2024-11-08T04:00:00	6	Velocidad del viento	1.6
47958	7	Sololá	717	San Juan la Laguna	12	San Juan la Laguna	4	Abril	2023-04-14T00:00:00	2024-11-08T04:00:00	7	Dirección del viento	1.61
47959	7	Sololá	717	San Juan la Laguna	12	San Juan la Laguna	4	Abril	2023-04-14T00:00:00	2024-11-08T04:00:00	1	Precipitación	0
47960	7	Sololá	717	San Juan la Laguna	12	San Juan la Laguna	4	Abril	2023-04-14T00:00:00	2024-11-08T04:00:00	8	Radiación solar	0
47961	7	Sololá	717	San Juan la Laguna	12	San Juan la Laguna	4	Abril	2023-04-14T00:00:00	2024-11-08T05:00:00	2	Temperatura media	14.2
47962	7	Sololá	717	San Juan la Laguna	12	San Juan la Laguna	4	Abril	2023-04-14T00:00:00	2024-11-08T05:00:00	4	Temperatura máxima	14.7
47963	7	Sololá	717	San Juan la Laguna	12	San Juan la Laguna	4	Abril	2023-04-14T00:00:00	2024-11-08T05:00:00	3	Temperatura mínima	13.8
47964	7	Sololá	717	San Juan la Laguna	12	San Juan la Laguna	4	Abril	2023-04-14T00:00:00	2024-11-08T05:00:00	5	Humedad	82
47965	7	Sololá	717	San Juan la Laguna	12	San Juan la Laguna	4	Abril	2023-04-14T00:00:00	2024-11-08T05:00:00	6	Velocidad del viento	1.6
47966	7	Sololá	717	San Juan la Laguna	12	San Juan la Laguna	4	Abril	2023-04-14T00:00:00	2024-11-08T05:00:00	7	Dirección del viento	1.61
47967	7	Sololá	717	San Juan la Laguna	12	San Juan la Laguna	4	Abril	2023-04-14T00:00:00	2024-11-08T05:00:00	1	Precipitación	0
47968	7	Sololá	717	San Juan la Laguna	12	San Juan la Laguna	4	Abril	2023-04-14T00:00:00	2024-11-08T05:00:00	8	Radiación solar	0
47969	7	Sololá	717	San Juan la Laguna	12	San Juan la Laguna	4	Abril	2023-04-14T00:00:00	2024-11-08T06:00:00	2	Temperatura media	13.8
47970	7	Sololá	717	San Juan la Laguna	12	San Juan la Laguna	4	Abril	2023-04-14T00:00:00	2024-11-08T06:00:00	4	Temperatura máxima	14.2
47971	7	Sololá	717	San Juan la Laguna	12	San Juan la Laguna	4	Abril	2023-04-14T00:00:00	2024-11-08T06:00:00	3	Temperatura mínima	13.8
47972	7	Sololá	717	San Juan la Laguna	12	San Juan la Laguna	4	Abril	2023-04-14T00:00:00	2024-11-08T06:00:00	5	Humedad	83
47973	7	Sololá	717	San Juan la Laguna	12	San Juan la Laguna	4	Abril	2023-04-14T00:00:00	2024-11-08T06:00:00	6	Velocidad del viento	3.2
47974	7	Sololá	717	San Juan la Laguna	12	San Juan la Laguna	4	Abril	2023-04-14T00:00:00	2024-11-08T06:00:00	7	Dirección del viento	3.22
47975	7	Sololá	717	San Juan la Laguna	12	San Juan la Laguna	4	Abril	2023-04-14T00:00:00	2024-11-08T06:00:00	1	Precipitación	0
47976	7	Sololá	717	San Juan la Laguna	12	San Juan la Laguna	4	Abril	2023-04-14T00:00:00	2024-11-08T06:00:00	8	Radiación solar	0
47977	7	Sololá	717	San Juan la Laguna	12	San Juan la Laguna	4	Abril	2023-04-14T00:00:00	2024-11-08T07:00:00	2	Temperatura media	15.6
47978	7	Sololá	717	San Juan la Laguna	12	San Juan la Laguna	4	Abril	2023-04-14T00:00:00	2024-11-08T07:00:00	4	Temperatura máxima	15.6
47979	7	Sololá	717	San Juan la Laguna	12	San Juan la Laguna	4	Abril	2023-04-14T00:00:00	2024-11-08T07:00:00	3	Temperatura mínima	13.8
47980	7	Sololá	717	San Juan la Laguna	12	San Juan la Laguna	4	Abril	2023-04-14T00:00:00	2024-11-08T07:00:00	5	Humedad	78
47981	7	Sololá	717	San Juan la Laguna	12	San Juan la Laguna	4	Abril	2023-04-14T00:00:00	2024-11-08T07:00:00	6	Velocidad del viento	1.6
47982	7	Sololá	717	San Juan la Laguna	12	San Juan la Laguna	4	Abril	2023-04-14T00:00:00	2024-11-08T07:00:00	7	Dirección del viento	1.61
47983	7	Sololá	717	San Juan la Laguna	12	San Juan la Laguna	4	Abril	2023-04-14T00:00:00	2024-11-08T07:00:00	1	Precipitación	0
47984	7	Sololá	717	San Juan la Laguna	12	San Juan la Laguna	4	Abril	2023-04-14T00:00:00	2024-11-08T07:00:00	8	Radiación solar	67
47985	7	Sololá	717	San Juan la Laguna	12	San Juan la Laguna	4	Abril	2023-04-14T00:00:00	2024-11-08T08:00:00	2	Temperatura media	20.3
47986	7	Sololá	717	San Juan la Laguna	12	San Juan la Laguna	4	Abril	2023-04-14T00:00:00	2024-11-08T08:00:00	4	Temperatura máxima	20.3
47987	7	Sololá	717	San Juan la Laguna	12	San Juan la Laguna	4	Abril	2023-04-14T00:00:00	2024-11-08T08:00:00	3	Temperatura mínima	15.6
47988	7	Sololá	717	San Juan la Laguna	12	San Juan la Laguna	4	Abril	2023-04-14T00:00:00	2024-11-08T08:00:00	5	Humedad	71
47989	7	Sololá	717	San Juan la Laguna	12	San Juan la Laguna	4	Abril	2023-04-14T00:00:00	2024-11-08T08:00:00	6	Velocidad del viento	0
47990	7	Sololá	717	San Juan la Laguna	12	San Juan la Laguna	4	Abril	2023-04-14T00:00:00	2024-11-08T08:00:00	7	Dirección del viento	0
47991	7	Sololá	717	San Juan la Laguna	12	San Juan la Laguna	4	Abril	2023-04-14T00:00:00	2024-11-08T08:00:00	1	Precipitación	0
47992	7	Sololá	717	San Juan la Laguna	12	San Juan la Laguna	4	Abril	2023-04-14T00:00:00	2024-11-08T08:00:00	8	Radiación solar	239
47993	7	Sololá	717	San Juan la Laguna	12	San Juan la Laguna	4	Abril	2023-04-14T00:00:00	2024-11-08T09:00:00	2	Temperatura media	21.8
47994	7	Sololá	717	San Juan la Laguna	12	San Juan la Laguna	4	Abril	2023-04-14T00:00:00	2024-11-08T09:00:00	4	Temperatura máxima	21.8
47995	7	Sololá	717	San Juan la Laguna	12	San Juan la Laguna	4	Abril	2023-04-14T00:00:00	2024-11-08T09:00:00	3	Temperatura mínima	20.3
47996	7	Sololá	717	San Juan la Laguna	12	San Juan la Laguna	4	Abril	2023-04-14T00:00:00	2024-11-08T09:00:00	5	Humedad	58
47997	7	Sololá	717	San Juan la Laguna	12	San Juan la Laguna	4	Abril	2023-04-14T00:00:00	2024-11-08T09:00:00	6	Velocidad del viento	0
47998	7	Sololá	717	San Juan la Laguna	12	San Juan la Laguna	4	Abril	2023-04-14T00:00:00	2024-11-08T09:00:00	7	Dirección del viento	0
47999	7	Sololá	717	San Juan la Laguna	12	San Juan la Laguna	4	Abril	2023-04-14T00:00:00	2024-11-08T09:00:00	1	Precipitación	0
48000	7	Sololá	717	San Juan la Laguna	12	San Juan la Laguna	4	Abril	2023-04-14T00:00:00	2024-11-08T09:00:00	8	Radiación solar	394
48001	7	Sololá	717	San Juan la Laguna	12	San Juan la Laguna	4	Abril	2023-04-14T00:00:00	2024-11-08T10:00:00	2	Temperatura media	23
48002	7	Sololá	717	San Juan la Laguna	12	San Juan la Laguna	4	Abril	2023-04-14T00:00:00	2024-11-08T10:00:00	4	Temperatura máxima	23.2
48003	7	Sololá	717	San Juan la Laguna	12	San Juan la Laguna	4	Abril	2023-04-14T00:00:00	2024-11-08T10:00:00	3	Temperatura mínima	21.8
48004	7	Sololá	717	San Juan la Laguna	12	San Juan la Laguna	4	Abril	2023-04-14T00:00:00	2024-11-08T10:00:00	5	Humedad	44
48005	7	Sololá	717	San Juan la Laguna	12	San Juan la Laguna	4	Abril	2023-04-14T00:00:00	2024-11-08T10:00:00	6	Velocidad del viento	1.6
48006	7	Sololá	717	San Juan la Laguna	12	San Juan la Laguna	4	Abril	2023-04-14T00:00:00	2024-11-08T10:00:00	7	Dirección del viento	1.61
48007	7	Sololá	717	San Juan la Laguna	12	San Juan la Laguna	4	Abril	2023-04-14T00:00:00	2024-11-08T10:00:00	1	Precipitación	0
48008	7	Sololá	717	San Juan la Laguna	12	San Juan la Laguna	4	Abril	2023-04-14T00:00:00	2024-11-08T10:00:00	8	Radiación solar	577
48009	7	Sololá	717	San Juan la Laguna	12	San Juan la Laguna	4	Abril	2023-04-14T00:00:00	2024-11-08T11:00:00	2	Temperatura media	23.2
48010	7	Sololá	717	San Juan la Laguna	12	San Juan la Laguna	4	Abril	2023-04-14T00:00:00	2024-11-08T11:00:00	4	Temperatura máxima	24.2
48011	7	Sololá	717	San Juan la Laguna	12	San Juan la Laguna	4	Abril	2023-04-14T00:00:00	2024-11-08T11:00:00	3	Temperatura mínima	22.9
48012	7	Sololá	717	San Juan la Laguna	12	San Juan la Laguna	4	Abril	2023-04-14T00:00:00	2024-11-08T11:00:00	5	Humedad	54
48013	7	Sololá	717	San Juan la Laguna	12	San Juan la Laguna	4	Abril	2023-04-14T00:00:00	2024-11-08T11:00:00	6	Velocidad del viento	1.6
48014	7	Sololá	717	San Juan la Laguna	12	San Juan la Laguna	4	Abril	2023-04-14T00:00:00	2024-11-08T11:00:00	7	Dirección del viento	1.61
48015	7	Sololá	717	San Juan la Laguna	12	San Juan la Laguna	4	Abril	2023-04-14T00:00:00	2024-11-08T11:00:00	1	Precipitación	0
48016	7	Sololá	717	San Juan la Laguna	12	San Juan la Laguna	4	Abril	2023-04-14T00:00:00	2024-11-08T11:00:00	8	Radiación solar	850
48017	7	Sololá	717	San Juan la Laguna	12	San Juan la Laguna	4	Abril	2023-04-14T00:00:00	2024-11-08T12:00:00	2	Temperatura media	23.8
48018	7	Sololá	717	San Juan la Laguna	12	San Juan la Laguna	4	Abril	2023-04-14T00:00:00	2024-11-08T12:00:00	4	Temperatura máxima	24.7
48019	7	Sololá	717	San Juan la Laguna	12	San Juan la Laguna	4	Abril	2023-04-14T00:00:00	2024-11-08T12:00:00	3	Temperatura mínima	23.2
48020	7	Sololá	717	San Juan la Laguna	12	San Juan la Laguna	4	Abril	2023-04-14T00:00:00	2024-11-08T12:00:00	5	Humedad	60
48021	7	Sololá	717	San Juan la Laguna	12	San Juan la Laguna	4	Abril	2023-04-14T00:00:00	2024-11-08T12:00:00	6	Velocidad del viento	1.6
48022	7	Sololá	717	San Juan la Laguna	12	San Juan la Laguna	4	Abril	2023-04-14T00:00:00	2024-11-08T12:00:00	7	Dirección del viento	1.61
48023	7	Sololá	717	San Juan la Laguna	12	San Juan la Laguna	4	Abril	2023-04-14T00:00:00	2024-11-08T12:00:00	1	Precipitación	0
48024	7	Sololá	717	San Juan la Laguna	12	San Juan la Laguna	4	Abril	2023-04-14T00:00:00	2024-11-08T12:00:00	8	Radiación solar	944
48025	7	Sololá	717	San Juan la Laguna	12	San Juan la Laguna	4	Abril	2023-04-14T00:00:00	2024-11-08T13:00:00	2	Temperatura media	23.4
48026	7	Sololá	717	San Juan la Laguna	12	San Juan la Laguna	4	Abril	2023-04-14T00:00:00	2024-11-08T13:00:00	4	Temperatura máxima	23.9
48027	7	Sololá	717	San Juan la Laguna	12	San Juan la Laguna	4	Abril	2023-04-14T00:00:00	2024-11-08T13:00:00	3	Temperatura mínima	23.3
48028	7	Sololá	717	San Juan la Laguna	12	San Juan la Laguna	4	Abril	2023-04-14T00:00:00	2024-11-08T13:00:00	5	Humedad	65
48029	7	Sololá	717	San Juan la Laguna	12	San Juan la Laguna	4	Abril	2023-04-14T00:00:00	2024-11-08T13:00:00	6	Velocidad del viento	8
48030	7	Sololá	717	San Juan la Laguna	12	San Juan la Laguna	4	Abril	2023-04-14T00:00:00	2024-11-08T13:00:00	7	Dirección del viento	8.05
48031	7	Sololá	717	San Juan la Laguna	12	San Juan la Laguna	4	Abril	2023-04-14T00:00:00	2024-11-08T13:00:00	1	Precipitación	0
48032	7	Sololá	717	San Juan la Laguna	12	San Juan la Laguna	4	Abril	2023-04-14T00:00:00	2024-11-08T13:00:00	8	Radiación solar	954
48033	7	Sololá	717	San Juan la Laguna	12	San Juan la Laguna	4	Abril	2023-04-14T00:00:00	2024-11-08T14:00:00	2	Temperatura media	24
48034	7	Sololá	717	San Juan la Laguna	12	San Juan la Laguna	4	Abril	2023-04-14T00:00:00	2024-11-08T14:00:00	4	Temperatura máxima	24.1
48035	7	Sololá	717	San Juan la Laguna	12	San Juan la Laguna	4	Abril	2023-04-14T00:00:00	2024-11-08T14:00:00	3	Temperatura mínima	23.3
48036	7	Sololá	717	San Juan la Laguna	12	San Juan la Laguna	4	Abril	2023-04-14T00:00:00	2024-11-08T14:00:00	5	Humedad	64
48037	7	Sololá	717	San Juan la Laguna	12	San Juan la Laguna	4	Abril	2023-04-14T00:00:00	2024-11-08T14:00:00	6	Velocidad del viento	6.4
48038	7	Sololá	717	San Juan la Laguna	12	San Juan la Laguna	4	Abril	2023-04-14T00:00:00	2024-11-08T14:00:00	7	Dirección del viento	6.44
48039	7	Sololá	717	San Juan la Laguna	12	San Juan la Laguna	4	Abril	2023-04-14T00:00:00	2024-11-08T14:00:00	1	Precipitación	0
48040	7	Sololá	717	San Juan la Laguna	12	San Juan la Laguna	4	Abril	2023-04-14T00:00:00	2024-11-08T14:00:00	8	Radiación solar	892
48041	7	Sololá	717	San Juan la Laguna	12	San Juan la Laguna	4	Abril	2023-04-14T00:00:00	2024-11-08T15:00:00	2	Temperatura media	24.2
48042	7	Sololá	717	San Juan la Laguna	12	San Juan la Laguna	4	Abril	2023-04-14T00:00:00	2024-11-08T15:00:00	4	Temperatura máxima	24.2
48043	7	Sololá	717	San Juan la Laguna	12	San Juan la Laguna	4	Abril	2023-04-14T00:00:00	2024-11-08T15:00:00	3	Temperatura mínima	23.4
48044	7	Sololá	717	San Juan la Laguna	12	San Juan la Laguna	4	Abril	2023-04-14T00:00:00	2024-11-08T15:00:00	5	Humedad	63
48045	7	Sololá	717	San Juan la Laguna	12	San Juan la Laguna	4	Abril	2023-04-14T00:00:00	2024-11-08T15:00:00	6	Velocidad del viento	6.4
48046	7	Sololá	717	San Juan la Laguna	12	San Juan la Laguna	4	Abril	2023-04-14T00:00:00	2024-11-08T15:00:00	7	Dirección del viento	6.44
48047	7	Sololá	717	San Juan la Laguna	12	San Juan la Laguna	4	Abril	2023-04-14T00:00:00	2024-11-08T15:00:00	1	Precipitación	0
48048	7	Sololá	717	San Juan la Laguna	12	San Juan la Laguna	4	Abril	2023-04-14T00:00:00	2024-11-08T15:00:00	8	Radiación solar	759
48049	7	Sololá	717	San Juan la Laguna	12	San Juan la Laguna	4	Abril	2023-04-14T00:00:00	2024-11-08T16:00:00	2	Temperatura media	22.8
48050	7	Sololá	717	San Juan la Laguna	12	San Juan la Laguna	4	Abril	2023-04-14T00:00:00	2024-11-08T16:00:00	4	Temperatura máxima	24.2
48051	7	Sololá	717	San Juan la Laguna	12	San Juan la Laguna	4	Abril	2023-04-14T00:00:00	2024-11-08T16:00:00	3	Temperatura mínima	22.7
48052	7	Sololá	717	San Juan la Laguna	12	San Juan la Laguna	4	Abril	2023-04-14T00:00:00	2024-11-08T16:00:00	5	Humedad	70
48053	7	Sololá	717	San Juan la Laguna	12	San Juan la Laguna	4	Abril	2023-04-14T00:00:00	2024-11-08T16:00:00	6	Velocidad del viento	4.8
48054	7	Sololá	717	San Juan la Laguna	12	San Juan la Laguna	4	Abril	2023-04-14T00:00:00	2024-11-08T16:00:00	7	Dirección del viento	4.83
48055	7	Sololá	717	San Juan la Laguna	12	San Juan la Laguna	4	Abril	2023-04-14T00:00:00	2024-11-08T16:00:00	1	Precipitación	0
48056	7	Sololá	717	San Juan la Laguna	12	San Juan la Laguna	4	Abril	2023-04-14T00:00:00	2024-11-08T16:00:00	8	Radiación solar	568
48057	7	Sololá	717	San Juan la Laguna	12	San Juan la Laguna	4	Abril	2023-04-14T00:00:00	2024-11-08T17:00:00	2	Temperatura media	21.6
48058	7	Sololá	717	San Juan la Laguna	12	San Juan la Laguna	4	Abril	2023-04-14T00:00:00	2024-11-08T17:00:00	4	Temperatura máxima	22.8
48059	7	Sololá	717	San Juan la Laguna	12	San Juan la Laguna	4	Abril	2023-04-14T00:00:00	2024-11-08T17:00:00	3	Temperatura mínima	21.5
48060	7	Sololá	717	San Juan la Laguna	12	San Juan la Laguna	4	Abril	2023-04-14T00:00:00	2024-11-08T17:00:00	5	Humedad	73
48061	7	Sololá	717	San Juan la Laguna	12	San Juan la Laguna	4	Abril	2023-04-14T00:00:00	2024-11-08T17:00:00	6	Velocidad del viento	4.8
48062	7	Sololá	717	San Juan la Laguna	12	San Juan la Laguna	4	Abril	2023-04-14T00:00:00	2024-11-08T17:00:00	7	Dirección del viento	4.83
48063	7	Sololá	717	San Juan la Laguna	12	San Juan la Laguna	4	Abril	2023-04-14T00:00:00	2024-11-08T17:00:00	1	Precipitación	0
48064	7	Sololá	717	San Juan la Laguna	12	San Juan la Laguna	4	Abril	2023-04-14T00:00:00	2024-11-08T17:00:00	8	Radiación solar	272
48065	7	Sololá	717	San Juan la Laguna	12	San Juan la Laguna	4	Abril	2023-04-14T00:00:00	2024-11-08T18:00:00	2	Temperatura media	21.1
48066	7	Sololá	717	San Juan la Laguna	12	San Juan la Laguna	4	Abril	2023-04-14T00:00:00	2024-11-08T18:00:00	4	Temperatura máxima	21.6
48067	7	Sololá	717	San Juan la Laguna	12	San Juan la Laguna	4	Abril	2023-04-14T00:00:00	2024-11-08T18:00:00	3	Temperatura mínima	21.1
48068	7	Sololá	717	San Juan la Laguna	12	San Juan la Laguna	4	Abril	2023-04-14T00:00:00	2024-11-08T18:00:00	5	Humedad	74
48069	7	Sololá	717	San Juan la Laguna	12	San Juan la Laguna	4	Abril	2023-04-14T00:00:00	2024-11-08T18:00:00	6	Velocidad del viento	3.2
48070	7	Sololá	717	San Juan la Laguna	12	San Juan la Laguna	4	Abril	2023-04-14T00:00:00	2024-11-08T18:00:00	7	Dirección del viento	3.22
48071	7	Sololá	717	San Juan la Laguna	12	San Juan la Laguna	4	Abril	2023-04-14T00:00:00	2024-11-08T18:00:00	1	Precipitación	0
48072	7	Sololá	717	San Juan la Laguna	12	San Juan la Laguna	4	Abril	2023-04-14T00:00:00	2024-11-08T18:00:00	8	Radiación solar	73
48073	7	Sololá	717	San Juan la Laguna	12	San Juan la Laguna	4	Abril	2023-04-14T00:00:00	2024-11-08T19:00:00	2	Temperatura media	20.8
48074	7	Sololá	717	San Juan la Laguna	12	San Juan la Laguna	4	Abril	2023-04-14T00:00:00	2024-11-08T19:00:00	4	Temperatura máxima	21.1
48075	7	Sololá	717	San Juan la Laguna	12	San Juan la Laguna	4	Abril	2023-04-14T00:00:00	2024-11-08T19:00:00	3	Temperatura mínima	20.8
48076	7	Sololá	717	San Juan la Laguna	12	San Juan la Laguna	4	Abril	2023-04-14T00:00:00	2024-11-08T19:00:00	5	Humedad	77
48077	7	Sololá	717	San Juan la Laguna	12	San Juan la Laguna	4	Abril	2023-04-14T00:00:00	2024-11-08T19:00:00	6	Velocidad del viento	0
48078	7	Sololá	717	San Juan la Laguna	12	San Juan la Laguna	4	Abril	2023-04-14T00:00:00	2024-11-08T19:00:00	7	Dirección del viento	0
48079	7	Sololá	717	San Juan la Laguna	12	San Juan la Laguna	4	Abril	2023-04-14T00:00:00	2024-11-08T19:00:00	1	Precipitación	0
48080	7	Sololá	717	San Juan la Laguna	12	San Juan la Laguna	4	Abril	2023-04-14T00:00:00	2024-11-08T19:00:00	8	Radiación solar	0
48081	7	Sololá	717	San Juan la Laguna	12	San Juan la Laguna	4	Abril	2023-04-14T00:00:00	2024-11-08T20:00:00	2	Temperatura media	20.3
48082	7	Sololá	717	San Juan la Laguna	12	San Juan la Laguna	4	Abril	2023-04-14T00:00:00	2024-11-08T20:00:00	4	Temperatura máxima	20.8
48083	7	Sololá	717	San Juan la Laguna	12	San Juan la Laguna	4	Abril	2023-04-14T00:00:00	2024-11-08T20:00:00	3	Temperatura mínima	20.3
48084	7	Sololá	717	San Juan la Laguna	12	San Juan la Laguna	4	Abril	2023-04-14T00:00:00	2024-11-08T20:00:00	5	Humedad	80
48085	7	Sololá	717	San Juan la Laguna	12	San Juan la Laguna	4	Abril	2023-04-14T00:00:00	2024-11-08T20:00:00	6	Velocidad del viento	0
48086	7	Sololá	717	San Juan la Laguna	12	San Juan la Laguna	4	Abril	2023-04-14T00:00:00	2024-11-08T20:00:00	7	Dirección del viento	0
48087	7	Sololá	717	San Juan la Laguna	12	San Juan la Laguna	4	Abril	2023-04-14T00:00:00	2024-11-08T20:00:00	1	Precipitación	0
48088	7	Sololá	717	San Juan la Laguna	12	San Juan la Laguna	4	Abril	2023-04-14T00:00:00	2024-11-08T20:00:00	8	Radiación solar	0
48089	7	Sololá	717	San Juan la Laguna	12	San Juan la Laguna	4	Abril	2023-04-14T00:00:00	2024-11-08T21:00:00	2	Temperatura media	19.2
48090	7	Sololá	717	San Juan la Laguna	12	San Juan la Laguna	4	Abril	2023-04-14T00:00:00	2024-11-08T21:00:00	4	Temperatura máxima	20.3
48091	7	Sololá	717	San Juan la Laguna	12	San Juan la Laguna	4	Abril	2023-04-14T00:00:00	2024-11-08T21:00:00	3	Temperatura mínima	19.2
48092	7	Sololá	717	San Juan la Laguna	12	San Juan la Laguna	4	Abril	2023-04-14T00:00:00	2024-11-08T21:00:00	5	Humedad	82
48093	7	Sololá	717	San Juan la Laguna	12	San Juan la Laguna	4	Abril	2023-04-14T00:00:00	2024-11-08T21:00:00	6	Velocidad del viento	0
48094	7	Sololá	717	San Juan la Laguna	12	San Juan la Laguna	4	Abril	2023-04-14T00:00:00	2024-11-08T21:00:00	7	Dirección del viento	0
48095	7	Sololá	717	San Juan la Laguna	12	San Juan la Laguna	4	Abril	2023-04-14T00:00:00	2024-11-08T21:00:00	1	Precipitación	0
48096	7	Sololá	717	San Juan la Laguna	12	San Juan la Laguna	4	Abril	2023-04-14T00:00:00	2024-11-08T21:00:00	8	Radiación solar	0
48097	7	Sololá	717	San Juan la Laguna	12	San Juan la Laguna	4	Abril	2023-04-14T00:00:00	2024-11-08T22:00:00	2	Temperatura media	18.9
48098	7	Sololá	717	San Juan la Laguna	12	San Juan la Laguna	4	Abril	2023-04-14T00:00:00	2024-11-08T22:00:00	4	Temperatura máxima	19.2
48099	7	Sololá	717	San Juan la Laguna	12	San Juan la Laguna	4	Abril	2023-04-14T00:00:00	2024-11-08T22:00:00	3	Temperatura mínima	18.9
48100	7	Sololá	717	San Juan la Laguna	12	San Juan la Laguna	4	Abril	2023-04-14T00:00:00	2024-11-08T22:00:00	5	Humedad	83
48101	7	Sololá	717	San Juan la Laguna	12	San Juan la Laguna	4	Abril	2023-04-14T00:00:00	2024-11-08T22:00:00	6	Velocidad del viento	1.6
48102	7	Sololá	717	San Juan la Laguna	12	San Juan la Laguna	4	Abril	2023-04-14T00:00:00	2024-11-08T22:00:00	7	Dirección del viento	1.61
48103	7	Sololá	717	San Juan la Laguna	12	San Juan la Laguna	4	Abril	2023-04-14T00:00:00	2024-11-08T22:00:00	1	Precipitación	0
48104	7	Sololá	717	San Juan la Laguna	12	San Juan la Laguna	4	Abril	2023-04-14T00:00:00	2024-11-08T22:00:00	8	Radiación solar	0
48105	7	Sololá	717	San Juan la Laguna	12	San Juan la Laguna	4	Abril	2023-04-14T00:00:00	2024-11-08T23:00:00	2	Temperatura media	18.6
48106	7	Sololá	717	San Juan la Laguna	12	San Juan la Laguna	4	Abril	2023-04-14T00:00:00	2024-11-08T23:00:00	4	Temperatura máxima	18.9
48107	7	Sololá	717	San Juan la Laguna	12	San Juan la Laguna	4	Abril	2023-04-14T00:00:00	2024-11-08T23:00:00	3	Temperatura mínima	18.6
48108	7	Sololá	717	San Juan la Laguna	12	San Juan la Laguna	4	Abril	2023-04-14T00:00:00	2024-11-08T23:00:00	5	Humedad	84
48109	7	Sololá	717	San Juan la Laguna	12	San Juan la Laguna	4	Abril	2023-04-14T00:00:00	2024-11-08T23:00:00	6	Velocidad del viento	3.2
48110	7	Sololá	717	San Juan la Laguna	12	San Juan la Laguna	4	Abril	2023-04-14T00:00:00	2024-11-08T23:00:00	7	Dirección del viento	3.22
48111	7	Sololá	717	San Juan la Laguna	12	San Juan la Laguna	4	Abril	2023-04-14T00:00:00	2024-11-08T23:00:00	1	Precipitación	0
48112	7	Sololá	717	San Juan la Laguna	12	San Juan la Laguna	4	Abril	2023-04-14T00:00:00	2024-11-08T23:00:00	8	Radiación solar	0
48113	7	Sololá	717	San Juan la Laguna	12	San Juan la Laguna	4	Abril	2023-04-15T00:00:00	2024-11-08T00:00:00	2	Temperatura media	18.5
48114	7	Sololá	717	San Juan la Laguna	12	San Juan la Laguna	4	Abril	2023-04-15T00:00:00	2024-11-08T00:00:00	4	Temperatura máxima	18.7
48115	7	Sololá	717	San Juan la Laguna	12	San Juan la Laguna	4	Abril	2023-04-15T00:00:00	2024-11-08T00:00:00	3	Temperatura mínima	18.2
48116	7	Sololá	717	San Juan la Laguna	12	San Juan la Laguna	4	Abril	2023-04-15T00:00:00	2024-11-08T00:00:00	5	Humedad	83
48117	7	Sololá	717	San Juan la Laguna	12	San Juan la Laguna	4	Abril	2023-04-15T00:00:00	2024-11-08T00:00:00	6	Velocidad del viento	1.6
48118	7	Sololá	717	San Juan la Laguna	12	San Juan la Laguna	4	Abril	2023-04-15T00:00:00	2024-11-08T00:00:00	7	Dirección del viento	1.61
48119	7	Sololá	717	San Juan la Laguna	12	San Juan la Laguna	4	Abril	2023-04-15T00:00:00	2024-11-08T00:00:00	1	Precipitación	0
48120	7	Sololá	717	San Juan la Laguna	12	San Juan la Laguna	4	Abril	2023-04-15T00:00:00	2024-11-08T00:00:00	8	Radiación solar	0
48121	7	Sololá	717	San Juan la Laguna	12	San Juan la Laguna	4	Abril	2023-04-15T00:00:00	2024-11-08T01:00:00	2	Temperatura media	18.4
48122	7	Sololá	717	San Juan la Laguna	12	San Juan la Laguna	4	Abril	2023-04-15T00:00:00	2024-11-08T01:00:00	4	Temperatura máxima	18.6
48123	7	Sololá	717	San Juan la Laguna	12	San Juan la Laguna	4	Abril	2023-04-15T00:00:00	2024-11-08T01:00:00	3	Temperatura mínima	18.4
48124	7	Sololá	717	San Juan la Laguna	12	San Juan la Laguna	4	Abril	2023-04-15T00:00:00	2024-11-08T01:00:00	5	Humedad	83
48125	7	Sololá	717	San Juan la Laguna	12	San Juan la Laguna	4	Abril	2023-04-15T00:00:00	2024-11-08T01:00:00	6	Velocidad del viento	3.2
48126	7	Sololá	717	San Juan la Laguna	12	San Juan la Laguna	4	Abril	2023-04-15T00:00:00	2024-11-08T01:00:00	7	Dirección del viento	3.22
48127	7	Sololá	717	San Juan la Laguna	12	San Juan la Laguna	4	Abril	2023-04-15T00:00:00	2024-11-08T01:00:00	1	Precipitación	0
48128	7	Sololá	717	San Juan la Laguna	12	San Juan la Laguna	4	Abril	2023-04-15T00:00:00	2024-11-08T01:00:00	8	Radiación solar	0
48129	7	Sololá	717	San Juan la Laguna	12	San Juan la Laguna	4	Abril	2023-04-15T00:00:00	2024-11-08T02:00:00	2	Temperatura media	18
48130	7	Sololá	717	San Juan la Laguna	12	San Juan la Laguna	4	Abril	2023-04-15T00:00:00	2024-11-08T02:00:00	4	Temperatura máxima	18.4
48131	7	Sololá	717	San Juan la Laguna	12	San Juan la Laguna	4	Abril	2023-04-15T00:00:00	2024-11-08T02:00:00	3	Temperatura mínima	18
48132	7	Sololá	717	San Juan la Laguna	12	San Juan la Laguna	4	Abril	2023-04-15T00:00:00	2024-11-08T02:00:00	5	Humedad	85
48133	7	Sololá	717	San Juan la Laguna	12	San Juan la Laguna	4	Abril	2023-04-15T00:00:00	2024-11-08T02:00:00	6	Velocidad del viento	3.2
48134	7	Sololá	717	San Juan la Laguna	12	San Juan la Laguna	4	Abril	2023-04-15T00:00:00	2024-11-08T02:00:00	7	Dirección del viento	3.22
48135	7	Sololá	717	San Juan la Laguna	12	San Juan la Laguna	4	Abril	2023-04-15T00:00:00	2024-11-08T02:00:00	1	Precipitación	0
48136	7	Sololá	717	San Juan la Laguna	12	San Juan la Laguna	4	Abril	2023-04-15T00:00:00	2024-11-08T02:00:00	8	Radiación solar	0
48137	7	Sololá	717	San Juan la Laguna	12	San Juan la Laguna	4	Abril	2023-04-15T00:00:00	2024-11-08T03:00:00	2	Temperatura media	17.6
48138	7	Sololá	717	San Juan la Laguna	12	San Juan la Laguna	4	Abril	2023-04-15T00:00:00	2024-11-08T03:00:00	4	Temperatura máxima	18.1
48139	7	Sololá	717	San Juan la Laguna	12	San Juan la Laguna	4	Abril	2023-04-15T00:00:00	2024-11-08T03:00:00	3	Temperatura mínima	17.3
48140	7	Sololá	717	San Juan la Laguna	12	San Juan la Laguna	4	Abril	2023-04-15T00:00:00	2024-11-08T03:00:00	5	Humedad	84
48141	7	Sololá	717	San Juan la Laguna	12	San Juan la Laguna	4	Abril	2023-04-15T00:00:00	2024-11-08T03:00:00	6	Velocidad del viento	3.2
48142	7	Sololá	717	San Juan la Laguna	12	San Juan la Laguna	4	Abril	2023-04-15T00:00:00	2024-11-08T03:00:00	7	Dirección del viento	3.22
48143	7	Sololá	717	San Juan la Laguna	12	San Juan la Laguna	4	Abril	2023-04-15T00:00:00	2024-11-08T03:00:00	1	Precipitación	0
48144	7	Sololá	717	San Juan la Laguna	12	San Juan la Laguna	4	Abril	2023-04-15T00:00:00	2024-11-08T03:00:00	8	Radiación solar	0
48145	7	Sololá	717	San Juan la Laguna	12	San Juan la Laguna	4	Abril	2023-04-15T00:00:00	2024-11-08T04:00:00	2	Temperatura media	16.2
48146	7	Sololá	717	San Juan la Laguna	12	San Juan la Laguna	4	Abril	2023-04-15T00:00:00	2024-11-08T04:00:00	4	Temperatura máxima	17.6
48147	7	Sololá	717	San Juan la Laguna	12	San Juan la Laguna	4	Abril	2023-04-15T00:00:00	2024-11-08T04:00:00	3	Temperatura mínima	16.1
48148	7	Sololá	717	San Juan la Laguna	12	San Juan la Laguna	4	Abril	2023-04-15T00:00:00	2024-11-08T04:00:00	5	Humedad	85
48149	7	Sololá	717	San Juan la Laguna	12	San Juan la Laguna	4	Abril	2023-04-15T00:00:00	2024-11-08T04:00:00	6	Velocidad del viento	1.6
48150	7	Sololá	717	San Juan la Laguna	12	San Juan la Laguna	4	Abril	2023-04-15T00:00:00	2024-11-08T04:00:00	7	Dirección del viento	1.61
48151	7	Sololá	717	San Juan la Laguna	12	San Juan la Laguna	4	Abril	2023-04-15T00:00:00	2024-11-08T04:00:00	1	Precipitación	0
48152	7	Sololá	717	San Juan la Laguna	12	San Juan la Laguna	4	Abril	2023-04-15T00:00:00	2024-11-08T04:00:00	8	Radiación solar	0
48153	7	Sololá	717	San Juan la Laguna	12	San Juan la Laguna	4	Abril	2023-04-15T00:00:00	2024-11-08T05:00:00	2	Temperatura media	16.1
48154	7	Sololá	717	San Juan la Laguna	12	San Juan la Laguna	4	Abril	2023-04-15T00:00:00	2024-11-08T05:00:00	4	Temperatura máxima	16.5
48155	7	Sololá	717	San Juan la Laguna	12	San Juan la Laguna	4	Abril	2023-04-15T00:00:00	2024-11-08T05:00:00	3	Temperatura mínima	16
48156	7	Sololá	717	San Juan la Laguna	12	San Juan la Laguna	4	Abril	2023-04-15T00:00:00	2024-11-08T05:00:00	5	Humedad	85
48157	7	Sololá	717	San Juan la Laguna	12	San Juan la Laguna	4	Abril	2023-04-15T00:00:00	2024-11-08T05:00:00	6	Velocidad del viento	1.6
48158	7	Sololá	717	San Juan la Laguna	12	San Juan la Laguna	4	Abril	2023-04-15T00:00:00	2024-11-08T05:00:00	7	Dirección del viento	1.61
48159	7	Sololá	717	San Juan la Laguna	12	San Juan la Laguna	4	Abril	2023-04-15T00:00:00	2024-11-08T05:00:00	1	Precipitación	0
48160	7	Sololá	717	San Juan la Laguna	12	San Juan la Laguna	4	Abril	2023-04-15T00:00:00	2024-11-08T05:00:00	8	Radiación solar	0
48161	7	Sololá	717	San Juan la Laguna	12	San Juan la Laguna	4	Abril	2023-04-15T00:00:00	2024-11-08T06:00:00	2	Temperatura media	15.2
48162	7	Sololá	717	San Juan la Laguna	12	San Juan la Laguna	4	Abril	2023-04-15T00:00:00	2024-11-08T06:00:00	4	Temperatura máxima	16.2
48163	7	Sololá	717	San Juan la Laguna	12	San Juan la Laguna	4	Abril	2023-04-15T00:00:00	2024-11-08T06:00:00	3	Temperatura mínima	15.2
48164	7	Sololá	717	San Juan la Laguna	12	San Juan la Laguna	4	Abril	2023-04-15T00:00:00	2024-11-08T06:00:00	5	Humedad	86
48165	7	Sololá	717	San Juan la Laguna	12	San Juan la Laguna	4	Abril	2023-04-15T00:00:00	2024-11-08T06:00:00	6	Velocidad del viento	1.6
48166	7	Sololá	717	San Juan la Laguna	12	San Juan la Laguna	4	Abril	2023-04-15T00:00:00	2024-11-08T06:00:00	7	Dirección del viento	1.61
48167	7	Sololá	717	San Juan la Laguna	12	San Juan la Laguna	4	Abril	2023-04-15T00:00:00	2024-11-08T06:00:00	1	Precipitación	0
48168	7	Sololá	717	San Juan la Laguna	12	San Juan la Laguna	4	Abril	2023-04-15T00:00:00	2024-11-08T06:00:00	8	Radiación solar	0
48169	7	Sololá	717	San Juan la Laguna	12	San Juan la Laguna	4	Abril	2023-04-15T00:00:00	2024-11-08T07:00:00	2	Temperatura media	16.7
48170	7	Sololá	717	San Juan la Laguna	12	San Juan la Laguna	4	Abril	2023-04-15T00:00:00	2024-11-08T07:00:00	4	Temperatura máxima	16.7
48171	7	Sololá	717	San Juan la Laguna	12	San Juan la Laguna	4	Abril	2023-04-15T00:00:00	2024-11-08T07:00:00	3	Temperatura mínima	15.2
48172	7	Sololá	717	San Juan la Laguna	12	San Juan la Laguna	4	Abril	2023-04-15T00:00:00	2024-11-08T07:00:00	5	Humedad	86
48173	7	Sololá	717	San Juan la Laguna	12	San Juan la Laguna	4	Abril	2023-04-15T00:00:00	2024-11-08T07:00:00	6	Velocidad del viento	0
48174	7	Sololá	717	San Juan la Laguna	12	San Juan la Laguna	4	Abril	2023-04-15T00:00:00	2024-11-08T07:00:00	7	Dirección del viento	0
48175	7	Sololá	717	San Juan la Laguna	12	San Juan la Laguna	4	Abril	2023-04-15T00:00:00	2024-11-08T07:00:00	1	Precipitación	0
48176	7	Sololá	717	San Juan la Laguna	12	San Juan la Laguna	4	Abril	2023-04-15T00:00:00	2024-11-08T07:00:00	8	Radiación solar	59
48177	7	Sololá	717	San Juan la Laguna	12	San Juan la Laguna	4	Abril	2023-04-15T00:00:00	2024-11-08T08:00:00	2	Temperatura media	19.8
48178	7	Sololá	717	San Juan la Laguna	12	San Juan la Laguna	4	Abril	2023-04-15T00:00:00	2024-11-08T08:00:00	4	Temperatura máxima	19.8
48179	7	Sololá	717	San Juan la Laguna	12	San Juan la Laguna	4	Abril	2023-04-15T00:00:00	2024-11-08T08:00:00	3	Temperatura mínima	16.7
48180	7	Sololá	717	San Juan la Laguna	12	San Juan la Laguna	4	Abril	2023-04-15T00:00:00	2024-11-08T08:00:00	5	Humedad	78
48181	7	Sololá	717	San Juan la Laguna	12	San Juan la Laguna	4	Abril	2023-04-15T00:00:00	2024-11-08T08:00:00	6	Velocidad del viento	0
48182	7	Sololá	717	San Juan la Laguna	12	San Juan la Laguna	4	Abril	2023-04-15T00:00:00	2024-11-08T08:00:00	7	Dirección del viento	0
48183	7	Sololá	717	San Juan la Laguna	12	San Juan la Laguna	4	Abril	2023-04-15T00:00:00	2024-11-08T08:00:00	1	Precipitación	0
48184	7	Sololá	717	San Juan la Laguna	12	San Juan la Laguna	4	Abril	2023-04-15T00:00:00	2024-11-08T08:00:00	8	Radiación solar	223
48185	7	Sololá	717	San Juan la Laguna	12	San Juan la Laguna	4	Abril	2023-04-15T00:00:00	2024-11-08T09:00:00	2	Temperatura media	20.9
48186	7	Sololá	717	San Juan la Laguna	12	San Juan la Laguna	4	Abril	2023-04-15T00:00:00	2024-11-08T09:00:00	4	Temperatura máxima	21.4
48187	7	Sololá	717	San Juan la Laguna	12	San Juan la Laguna	4	Abril	2023-04-15T00:00:00	2024-11-08T09:00:00	3	Temperatura mínima	19.8
48188	7	Sololá	717	San Juan la Laguna	12	San Juan la Laguna	4	Abril	2023-04-15T00:00:00	2024-11-08T09:00:00	5	Humedad	75
48189	7	Sololá	717	San Juan la Laguna	12	San Juan la Laguna	4	Abril	2023-04-15T00:00:00	2024-11-08T09:00:00	6	Velocidad del viento	1.6
48190	7	Sololá	717	San Juan la Laguna	12	San Juan la Laguna	4	Abril	2023-04-15T00:00:00	2024-11-08T09:00:00	7	Dirección del viento	1.61
48191	7	Sololá	717	San Juan la Laguna	12	San Juan la Laguna	4	Abril	2023-04-15T00:00:00	2024-11-08T09:00:00	1	Precipitación	0
48192	7	Sololá	717	San Juan la Laguna	12	San Juan la Laguna	4	Abril	2023-04-15T00:00:00	2024-11-08T09:00:00	8	Radiación solar	408
48193	7	Sololá	717	San Juan la Laguna	12	San Juan la Laguna	4	Abril	2023-04-15T00:00:00	2024-11-08T10:00:00	2	Temperatura media	22.1
48194	7	Sololá	717	San Juan la Laguna	12	San Juan la Laguna	4	Abril	2023-04-15T00:00:00	2024-11-08T10:00:00	4	Temperatura máxima	22.1
48195	7	Sololá	717	San Juan la Laguna	12	San Juan la Laguna	4	Abril	2023-04-15T00:00:00	2024-11-08T10:00:00	3	Temperatura mínima	20.9
48196	7	Sololá	717	San Juan la Laguna	12	San Juan la Laguna	4	Abril	2023-04-15T00:00:00	2024-11-08T10:00:00	5	Humedad	72
48197	7	Sololá	717	San Juan la Laguna	12	San Juan la Laguna	4	Abril	2023-04-15T00:00:00	2024-11-08T10:00:00	6	Velocidad del viento	1.6
48198	7	Sololá	717	San Juan la Laguna	12	San Juan la Laguna	4	Abril	2023-04-15T00:00:00	2024-11-08T10:00:00	7	Dirección del viento	1.61
48199	7	Sololá	717	San Juan la Laguna	12	San Juan la Laguna	4	Abril	2023-04-15T00:00:00	2024-11-08T10:00:00	1	Precipitación	0
48200	7	Sololá	717	San Juan la Laguna	12	San Juan la Laguna	4	Abril	2023-04-15T00:00:00	2024-11-08T10:00:00	8	Radiación solar	585
48201	7	Sololá	717	San Juan la Laguna	12	San Juan la Laguna	4	Abril	2023-04-15T00:00:00	2024-11-08T11:00:00	2	Temperatura media	23.2
48202	7	Sololá	717	San Juan la Laguna	12	San Juan la Laguna	4	Abril	2023-04-15T00:00:00	2024-11-08T11:00:00	4	Temperatura máxima	23.2
48203	7	Sololá	717	San Juan la Laguna	12	San Juan la Laguna	4	Abril	2023-04-15T00:00:00	2024-11-08T11:00:00	3	Temperatura mínima	21.8
48204	7	Sololá	717	San Juan la Laguna	12	San Juan la Laguna	4	Abril	2023-04-15T00:00:00	2024-11-08T11:00:00	5	Humedad	66
48205	7	Sololá	717	San Juan la Laguna	12	San Juan la Laguna	4	Abril	2023-04-15T00:00:00	2024-11-08T11:00:00	6	Velocidad del viento	1.6
48206	7	Sololá	717	San Juan la Laguna	12	San Juan la Laguna	4	Abril	2023-04-15T00:00:00	2024-11-08T11:00:00	7	Dirección del viento	1.61
48207	7	Sololá	717	San Juan la Laguna	12	San Juan la Laguna	4	Abril	2023-04-15T00:00:00	2024-11-08T11:00:00	1	Precipitación	0
48208	7	Sololá	717	San Juan la Laguna	12	San Juan la Laguna	4	Abril	2023-04-15T00:00:00	2024-11-08T11:00:00	8	Radiación solar	845
48209	7	Sololá	717	San Juan la Laguna	12	San Juan la Laguna	4	Abril	2023-04-15T00:00:00	2024-11-08T12:00:00	2	Temperatura media	24.1
48210	7	Sololá	717	San Juan la Laguna	12	San Juan la Laguna	4	Abril	2023-04-15T00:00:00	2024-11-08T12:00:00	4	Temperatura máxima	24.5
48211	7	Sololá	717	San Juan la Laguna	12	San Juan la Laguna	4	Abril	2023-04-15T00:00:00	2024-11-08T12:00:00	3	Temperatura mínima	23.3
48212	7	Sololá	717	San Juan la Laguna	12	San Juan la Laguna	4	Abril	2023-04-15T00:00:00	2024-11-08T12:00:00	5	Humedad	64
48213	7	Sololá	717	San Juan la Laguna	12	San Juan la Laguna	4	Abril	2023-04-15T00:00:00	2024-11-08T12:00:00	6	Velocidad del viento	1.6
48214	7	Sololá	717	San Juan la Laguna	12	San Juan la Laguna	4	Abril	2023-04-15T00:00:00	2024-11-08T12:00:00	7	Dirección del viento	1.61
48215	7	Sololá	717	San Juan la Laguna	12	San Juan la Laguna	4	Abril	2023-04-15T00:00:00	2024-11-08T12:00:00	1	Precipitación	0
48216	7	Sololá	717	San Juan la Laguna	12	San Juan la Laguna	4	Abril	2023-04-15T00:00:00	2024-11-08T12:00:00	8	Radiación solar	835
48217	7	Sololá	717	San Juan la Laguna	12	San Juan la Laguna	4	Abril	2023-04-15T00:00:00	2024-11-08T13:00:00	2	Temperatura media	24.1
48218	7	Sololá	717	San Juan la Laguna	12	San Juan la Laguna	4	Abril	2023-04-15T00:00:00	2024-11-08T13:00:00	4	Temperatura máxima	24.2
48219	7	Sololá	717	San Juan la Laguna	12	San Juan la Laguna	4	Abril	2023-04-15T00:00:00	2024-11-08T13:00:00	3	Temperatura mínima	23.4
48220	7	Sololá	717	San Juan la Laguna	12	San Juan la Laguna	4	Abril	2023-04-15T00:00:00	2024-11-08T13:00:00	5	Humedad	66
48221	7	Sololá	717	San Juan la Laguna	12	San Juan la Laguna	4	Abril	2023-04-15T00:00:00	2024-11-08T13:00:00	6	Velocidad del viento	3.2
48222	7	Sololá	717	San Juan la Laguna	12	San Juan la Laguna	4	Abril	2023-04-15T00:00:00	2024-11-08T13:00:00	7	Dirección del viento	3.22
48223	7	Sololá	717	San Juan la Laguna	12	San Juan la Laguna	4	Abril	2023-04-15T00:00:00	2024-11-08T13:00:00	1	Precipitación	0
48224	7	Sololá	717	San Juan la Laguna	12	San Juan la Laguna	4	Abril	2023-04-15T00:00:00	2024-11-08T13:00:00	8	Radiación solar	474
48225	7	Sololá	717	San Juan la Laguna	12	San Juan la Laguna	4	Abril	2023-04-15T00:00:00	2024-11-08T14:00:00	2	Temperatura media	24.3
48226	7	Sololá	717	San Juan la Laguna	12	San Juan la Laguna	4	Abril	2023-04-15T00:00:00	2024-11-08T14:00:00	4	Temperatura máxima	24.7
48227	7	Sololá	717	San Juan la Laguna	12	San Juan la Laguna	4	Abril	2023-04-15T00:00:00	2024-11-08T14:00:00	3	Temperatura mínima	23.7
48228	7	Sololá	717	San Juan la Laguna	12	San Juan la Laguna	4	Abril	2023-04-15T00:00:00	2024-11-08T14:00:00	5	Humedad	67
48229	7	Sololá	717	San Juan la Laguna	12	San Juan la Laguna	4	Abril	2023-04-15T00:00:00	2024-11-08T14:00:00	6	Velocidad del viento	3.2
48230	7	Sololá	717	San Juan la Laguna	12	San Juan la Laguna	4	Abril	2023-04-15T00:00:00	2024-11-08T14:00:00	7	Dirección del viento	3.22
48231	7	Sololá	717	San Juan la Laguna	12	San Juan la Laguna	4	Abril	2023-04-15T00:00:00	2024-11-08T14:00:00	1	Precipitación	0
48232	7	Sololá	717	San Juan la Laguna	12	San Juan la Laguna	4	Abril	2023-04-15T00:00:00	2024-11-08T14:00:00	8	Radiación solar	593
48233	7	Sololá	717	San Juan la Laguna	12	San Juan la Laguna	4	Abril	2023-04-15T00:00:00	2024-11-08T15:00:00	2	Temperatura media	23
48234	7	Sololá	717	San Juan la Laguna	12	San Juan la Laguna	4	Abril	2023-04-15T00:00:00	2024-11-08T15:00:00	4	Temperatura máxima	24.3
48235	7	Sololá	717	San Juan la Laguna	12	San Juan la Laguna	4	Abril	2023-04-15T00:00:00	2024-11-08T15:00:00	3	Temperatura mínima	22.9
48236	7	Sololá	717	San Juan la Laguna	12	San Juan la Laguna	4	Abril	2023-04-15T00:00:00	2024-11-08T15:00:00	5	Humedad	72
48237	7	Sololá	717	San Juan la Laguna	12	San Juan la Laguna	4	Abril	2023-04-15T00:00:00	2024-11-08T15:00:00	6	Velocidad del viento	6.4
48238	7	Sololá	717	San Juan la Laguna	12	San Juan la Laguna	4	Abril	2023-04-15T00:00:00	2024-11-08T15:00:00	7	Dirección del viento	6.44
48239	7	Sololá	717	San Juan la Laguna	12	San Juan la Laguna	4	Abril	2023-04-15T00:00:00	2024-11-08T15:00:00	1	Precipitación	0
48240	7	Sololá	717	San Juan la Laguna	12	San Juan la Laguna	4	Abril	2023-04-15T00:00:00	2024-11-08T15:00:00	8	Radiación solar	629
48241	7	Sololá	717	San Juan la Laguna	12	San Juan la Laguna	4	Abril	2023-04-15T00:00:00	2024-11-08T16:00:00	2	Temperatura media	22.4
48242	7	Sololá	717	San Juan la Laguna	12	San Juan la Laguna	4	Abril	2023-04-15T00:00:00	2024-11-08T16:00:00	4	Temperatura máxima	23.3
48243	7	Sololá	717	San Juan la Laguna	12	San Juan la Laguna	4	Abril	2023-04-15T00:00:00	2024-11-08T16:00:00	3	Temperatura mínima	22.3
48244	7	Sololá	717	San Juan la Laguna	12	San Juan la Laguna	4	Abril	2023-04-15T00:00:00	2024-11-08T16:00:00	5	Humedad	73
48245	7	Sololá	717	San Juan la Laguna	12	San Juan la Laguna	4	Abril	2023-04-15T00:00:00	2024-11-08T16:00:00	6	Velocidad del viento	4.8
48246	7	Sololá	717	San Juan la Laguna	12	San Juan la Laguna	4	Abril	2023-04-15T00:00:00	2024-11-08T16:00:00	7	Dirección del viento	4.83
48247	7	Sololá	717	San Juan la Laguna	12	San Juan la Laguna	4	Abril	2023-04-15T00:00:00	2024-11-08T16:00:00	1	Precipitación	0
48248	7	Sololá	717	San Juan la Laguna	12	San Juan la Laguna	4	Abril	2023-04-15T00:00:00	2024-11-08T16:00:00	8	Radiación solar	444
48249	7	Sololá	717	San Juan la Laguna	12	San Juan la Laguna	4	Abril	2023-04-15T00:00:00	2024-11-08T17:00:00	2	Temperatura media	21.1
48250	7	Sololá	717	San Juan la Laguna	12	San Juan la Laguna	4	Abril	2023-04-15T00:00:00	2024-11-08T17:00:00	4	Temperatura máxima	22.4
48251	7	Sololá	717	San Juan la Laguna	12	San Juan la Laguna	4	Abril	2023-04-15T00:00:00	2024-11-08T17:00:00	3	Temperatura mínima	21.1
48252	7	Sololá	717	San Juan la Laguna	12	San Juan la Laguna	4	Abril	2023-04-15T00:00:00	2024-11-08T17:00:00	5	Humedad	77
48253	7	Sololá	717	San Juan la Laguna	12	San Juan la Laguna	4	Abril	2023-04-15T00:00:00	2024-11-08T17:00:00	6	Velocidad del viento	3.2
48254	7	Sololá	717	San Juan la Laguna	12	San Juan la Laguna	4	Abril	2023-04-15T00:00:00	2024-11-08T17:00:00	7	Dirección del viento	3.22
48255	7	Sololá	717	San Juan la Laguna	12	San Juan la Laguna	4	Abril	2023-04-15T00:00:00	2024-11-08T17:00:00	1	Precipitación	0
48256	7	Sololá	717	San Juan la Laguna	12	San Juan la Laguna	4	Abril	2023-04-15T00:00:00	2024-11-08T17:00:00	8	Radiación solar	140
48257	7	Sololá	717	San Juan la Laguna	12	San Juan la Laguna	4	Abril	2023-04-15T00:00:00	2024-11-08T18:00:00	2	Temperatura media	20.6
48258	7	Sololá	717	San Juan la Laguna	12	San Juan la Laguna	4	Abril	2023-04-15T00:00:00	2024-11-08T18:00:00	4	Temperatura máxima	21.1
48259	7	Sololá	717	San Juan la Laguna	12	San Juan la Laguna	4	Abril	2023-04-15T00:00:00	2024-11-08T18:00:00	3	Temperatura mínima	20.6
48260	7	Sololá	717	San Juan la Laguna	12	San Juan la Laguna	4	Abril	2023-04-15T00:00:00	2024-11-08T18:00:00	5	Humedad	80
48261	7	Sololá	717	San Juan la Laguna	12	San Juan la Laguna	4	Abril	2023-04-15T00:00:00	2024-11-08T18:00:00	6	Velocidad del viento	1.6
48262	7	Sololá	717	San Juan la Laguna	12	San Juan la Laguna	4	Abril	2023-04-15T00:00:00	2024-11-08T18:00:00	7	Dirección del viento	1.61
48263	7	Sololá	717	San Juan la Laguna	12	San Juan la Laguna	4	Abril	2023-04-15T00:00:00	2024-11-08T18:00:00	1	Precipitación	0
48264	7	Sololá	717	San Juan la Laguna	12	San Juan la Laguna	4	Abril	2023-04-15T00:00:00	2024-11-08T18:00:00	8	Radiación solar	11
48265	7	Sololá	717	San Juan la Laguna	12	San Juan la Laguna	4	Abril	2023-04-15T00:00:00	2024-11-08T19:00:00	2	Temperatura media	20.6
48266	7	Sololá	717	San Juan la Laguna	12	San Juan la Laguna	4	Abril	2023-04-15T00:00:00	2024-11-08T19:00:00	4	Temperatura máxima	20.7
48267	7	Sololá	717	San Juan la Laguna	12	San Juan la Laguna	4	Abril	2023-04-15T00:00:00	2024-11-08T19:00:00	3	Temperatura mínima	20.4
48268	7	Sololá	717	San Juan la Laguna	12	San Juan la Laguna	4	Abril	2023-04-15T00:00:00	2024-11-08T19:00:00	5	Humedad	79
48269	7	Sololá	717	San Juan la Laguna	12	San Juan la Laguna	4	Abril	2023-04-15T00:00:00	2024-11-08T19:00:00	6	Velocidad del viento	1.6
48270	7	Sololá	717	San Juan la Laguna	12	San Juan la Laguna	4	Abril	2023-04-15T00:00:00	2024-11-08T19:00:00	7	Dirección del viento	1.61
48271	7	Sololá	717	San Juan la Laguna	12	San Juan la Laguna	4	Abril	2023-04-15T00:00:00	2024-11-08T19:00:00	1	Precipitación	0
48272	7	Sololá	717	San Juan la Laguna	12	San Juan la Laguna	4	Abril	2023-04-15T00:00:00	2024-11-08T19:00:00	8	Radiación solar	0
48273	7	Sololá	717	San Juan la Laguna	12	San Juan la Laguna	4	Abril	2023-04-15T00:00:00	2024-11-08T20:00:00	2	Temperatura media	20.2
48274	7	Sololá	717	San Juan la Laguna	12	San Juan la Laguna	4	Abril	2023-04-15T00:00:00	2024-11-08T20:00:00	4	Temperatura máxima	20.7
48275	7	Sololá	717	San Juan la Laguna	12	San Juan la Laguna	4	Abril	2023-04-15T00:00:00	2024-11-08T20:00:00	3	Temperatura mínima	20.2
48276	7	Sololá	717	San Juan la Laguna	12	San Juan la Laguna	4	Abril	2023-04-15T00:00:00	2024-11-08T20:00:00	5	Humedad	83
48277	7	Sololá	717	San Juan la Laguna	12	San Juan la Laguna	4	Abril	2023-04-15T00:00:00	2024-11-08T20:00:00	6	Velocidad del viento	0
48278	7	Sololá	717	San Juan la Laguna	12	San Juan la Laguna	4	Abril	2023-04-15T00:00:00	2024-11-08T20:00:00	7	Dirección del viento	0
48279	7	Sololá	717	San Juan la Laguna	12	San Juan la Laguna	4	Abril	2023-04-15T00:00:00	2024-11-08T20:00:00	1	Precipitación	0
48280	7	Sololá	717	San Juan la Laguna	12	San Juan la Laguna	4	Abril	2023-04-15T00:00:00	2024-11-08T20:00:00	8	Radiación solar	0
48281	7	Sololá	717	San Juan la Laguna	12	San Juan la Laguna	4	Abril	2023-04-15T00:00:00	2024-11-08T21:00:00	2	Temperatura media	19.8
48282	7	Sololá	717	San Juan la Laguna	12	San Juan la Laguna	4	Abril	2023-04-15T00:00:00	2024-11-08T21:00:00	4	Temperatura máxima	20.3
48283	7	Sololá	717	San Juan la Laguna	12	San Juan la Laguna	4	Abril	2023-04-15T00:00:00	2024-11-08T21:00:00	3	Temperatura mínima	19.8
48284	7	Sololá	717	San Juan la Laguna	12	San Juan la Laguna	4	Abril	2023-04-15T00:00:00	2024-11-08T21:00:00	5	Humedad	83
48285	7	Sololá	717	San Juan la Laguna	12	San Juan la Laguna	4	Abril	2023-04-15T00:00:00	2024-11-08T21:00:00	6	Velocidad del viento	0
48286	7	Sololá	717	San Juan la Laguna	12	San Juan la Laguna	4	Abril	2023-04-15T00:00:00	2024-11-08T21:00:00	7	Dirección del viento	0
48287	7	Sololá	717	San Juan la Laguna	12	San Juan la Laguna	4	Abril	2023-04-15T00:00:00	2024-11-08T21:00:00	1	Precipitación	0
48288	7	Sololá	717	San Juan la Laguna	12	San Juan la Laguna	4	Abril	2023-04-15T00:00:00	2024-11-08T21:00:00	8	Radiación solar	0
48289	7	Sololá	717	San Juan la Laguna	12	San Juan la Laguna	4	Abril	2023-04-15T00:00:00	2024-11-08T22:00:00	2	Temperatura media	18.6
48290	7	Sololá	717	San Juan la Laguna	12	San Juan la Laguna	4	Abril	2023-04-15T00:00:00	2024-11-08T22:00:00	4	Temperatura máxima	19.8
48291	7	Sololá	717	San Juan la Laguna	12	San Juan la Laguna	4	Abril	2023-04-15T00:00:00	2024-11-08T22:00:00	3	Temperatura mínima	18.6
48292	7	Sololá	717	San Juan la Laguna	12	San Juan la Laguna	4	Abril	2023-04-15T00:00:00	2024-11-08T22:00:00	5	Humedad	85
48293	7	Sololá	717	San Juan la Laguna	12	San Juan la Laguna	4	Abril	2023-04-15T00:00:00	2024-11-08T22:00:00	6	Velocidad del viento	0
48294	7	Sololá	717	San Juan la Laguna	12	San Juan la Laguna	4	Abril	2023-04-15T00:00:00	2024-11-08T22:00:00	7	Dirección del viento	0
48295	7	Sololá	717	San Juan la Laguna	12	San Juan la Laguna	4	Abril	2023-04-15T00:00:00	2024-11-08T22:00:00	1	Precipitación	0
48296	7	Sololá	717	San Juan la Laguna	12	San Juan la Laguna	4	Abril	2023-04-15T00:00:00	2024-11-08T22:00:00	8	Radiación solar	0
48297	7	Sololá	717	San Juan la Laguna	12	San Juan la Laguna	4	Abril	2023-04-15T00:00:00	2024-11-08T23:00:00	2	Temperatura media	18.5
48298	7	Sololá	717	San Juan la Laguna	12	San Juan la Laguna	4	Abril	2023-04-15T00:00:00	2024-11-08T23:00:00	4	Temperatura máxima	18.6
48299	7	Sololá	717	San Juan la Laguna	12	San Juan la Laguna	4	Abril	2023-04-15T00:00:00	2024-11-08T23:00:00	3	Temperatura mínima	18.4
48300	7	Sololá	717	San Juan la Laguna	12	San Juan la Laguna	4	Abril	2023-04-15T00:00:00	2024-11-08T23:00:00	5	Humedad	84
48301	7	Sololá	717	San Juan la Laguna	12	San Juan la Laguna	4	Abril	2023-04-15T00:00:00	2024-11-08T23:00:00	6	Velocidad del viento	1.6
48302	7	Sololá	717	San Juan la Laguna	12	San Juan la Laguna	4	Abril	2023-04-15T00:00:00	2024-11-08T23:00:00	7	Dirección del viento	1.61
48303	7	Sololá	717	San Juan la Laguna	12	San Juan la Laguna	4	Abril	2023-04-15T00:00:00	2024-11-08T23:00:00	1	Precipitación	0
48304	7	Sololá	717	San Juan la Laguna	12	San Juan la Laguna	4	Abril	2023-04-15T00:00:00	2024-11-08T23:00:00	8	Radiación solar	0
48305	7	Sololá	717	San Juan la Laguna	12	San Juan la Laguna	4	Abril	2023-04-16T00:00:00	2024-11-08T00:00:00	2	Temperatura media	17.4
48306	7	Sololá	717	San Juan la Laguna	12	San Juan la Laguna	4	Abril	2023-04-16T00:00:00	2024-11-08T00:00:00	4	Temperatura máxima	18.5
48307	7	Sololá	717	San Juan la Laguna	12	San Juan la Laguna	4	Abril	2023-04-16T00:00:00	2024-11-08T00:00:00	3	Temperatura mínima	17.3
48308	7	Sololá	717	San Juan la Laguna	12	San Juan la Laguna	4	Abril	2023-04-16T00:00:00	2024-11-08T00:00:00	5	Humedad	86
48309	7	Sololá	717	San Juan la Laguna	12	San Juan la Laguna	4	Abril	2023-04-16T00:00:00	2024-11-08T00:00:00	6	Velocidad del viento	1.6
48310	7	Sololá	717	San Juan la Laguna	12	San Juan la Laguna	4	Abril	2023-04-16T00:00:00	2024-11-08T00:00:00	7	Dirección del viento	1.61
48311	7	Sololá	717	San Juan la Laguna	12	San Juan la Laguna	4	Abril	2023-04-16T00:00:00	2024-11-08T00:00:00	1	Precipitación	0
48312	7	Sololá	717	San Juan la Laguna	12	San Juan la Laguna	4	Abril	2023-04-16T00:00:00	2024-11-08T00:00:00	8	Radiación solar	0
48313	7	Sololá	717	San Juan la Laguna	12	San Juan la Laguna	4	Abril	2023-04-16T00:00:00	2024-11-08T01:00:00	2	Temperatura media	17.1
48314	7	Sololá	717	San Juan la Laguna	12	San Juan la Laguna	4	Abril	2023-04-16T00:00:00	2024-11-08T01:00:00	4	Temperatura máxima	17.6
48315	7	Sololá	717	San Juan la Laguna	12	San Juan la Laguna	4	Abril	2023-04-16T00:00:00	2024-11-08T01:00:00	3	Temperatura mínima	17
48316	7	Sololá	717	San Juan la Laguna	12	San Juan la Laguna	4	Abril	2023-04-16T00:00:00	2024-11-08T01:00:00	5	Humedad	87
48317	7	Sololá	717	San Juan la Laguna	12	San Juan la Laguna	4	Abril	2023-04-16T00:00:00	2024-11-08T01:00:00	6	Velocidad del viento	1.6
48318	7	Sololá	717	San Juan la Laguna	12	San Juan la Laguna	4	Abril	2023-04-16T00:00:00	2024-11-08T01:00:00	7	Dirección del viento	1.61
48319	7	Sololá	717	San Juan la Laguna	12	San Juan la Laguna	4	Abril	2023-04-16T00:00:00	2024-11-08T01:00:00	1	Precipitación	0
48320	7	Sololá	717	San Juan la Laguna	12	San Juan la Laguna	4	Abril	2023-04-16T00:00:00	2024-11-08T01:00:00	8	Radiación solar	0
48321	7	Sololá	717	San Juan la Laguna	12	San Juan la Laguna	4	Abril	2023-04-16T00:00:00	2024-11-08T02:00:00	2	Temperatura media	17.2
48322	7	Sololá	717	San Juan la Laguna	12	San Juan la Laguna	4	Abril	2023-04-16T00:00:00	2024-11-08T02:00:00	4	Temperatura máxima	17.3
48323	7	Sololá	717	San Juan la Laguna	12	San Juan la Laguna	4	Abril	2023-04-16T00:00:00	2024-11-08T02:00:00	3	Temperatura mínima	16.9
48324	7	Sololá	717	San Juan la Laguna	12	San Juan la Laguna	4	Abril	2023-04-16T00:00:00	2024-11-08T02:00:00	5	Humedad	88
48325	7	Sololá	717	San Juan la Laguna	12	San Juan la Laguna	4	Abril	2023-04-16T00:00:00	2024-11-08T02:00:00	6	Velocidad del viento	0
48326	7	Sololá	717	San Juan la Laguna	12	San Juan la Laguna	4	Abril	2023-04-16T00:00:00	2024-11-08T02:00:00	7	Dirección del viento	0
48327	7	Sololá	717	San Juan la Laguna	12	San Juan la Laguna	4	Abril	2023-04-16T00:00:00	2024-11-08T02:00:00	1	Precipitación	0
48328	7	Sololá	717	San Juan la Laguna	12	San Juan la Laguna	4	Abril	2023-04-16T00:00:00	2024-11-08T02:00:00	8	Radiación solar	0
48329	7	Sololá	717	San Juan la Laguna	12	San Juan la Laguna	4	Abril	2023-04-16T00:00:00	2024-11-08T03:00:00	2	Temperatura media	16.5
48330	7	Sololá	717	San Juan la Laguna	12	San Juan la Laguna	4	Abril	2023-04-16T00:00:00	2024-11-08T03:00:00	4	Temperatura máxima	17.3
48331	7	Sololá	717	San Juan la Laguna	12	San Juan la Laguna	4	Abril	2023-04-16T00:00:00	2024-11-08T03:00:00	3	Temperatura mínima	16.5
48332	7	Sololá	717	San Juan la Laguna	12	San Juan la Laguna	4	Abril	2023-04-16T00:00:00	2024-11-08T03:00:00	5	Humedad	88
48333	7	Sololá	717	San Juan la Laguna	12	San Juan la Laguna	4	Abril	2023-04-16T00:00:00	2024-11-08T03:00:00	6	Velocidad del viento	0
48334	7	Sololá	717	San Juan la Laguna	12	San Juan la Laguna	4	Abril	2023-04-16T00:00:00	2024-11-08T03:00:00	7	Dirección del viento	0
48335	7	Sololá	717	San Juan la Laguna	12	San Juan la Laguna	4	Abril	2023-04-16T00:00:00	2024-11-08T03:00:00	1	Precipitación	0
48336	7	Sololá	717	San Juan la Laguna	12	San Juan la Laguna	4	Abril	2023-04-16T00:00:00	2024-11-08T03:00:00	8	Radiación solar	0
48337	7	Sololá	717	San Juan la Laguna	12	San Juan la Laguna	4	Abril	2023-04-16T00:00:00	2024-11-08T04:00:00	2	Temperatura media	16.2
48338	7	Sololá	717	San Juan la Laguna	12	San Juan la Laguna	4	Abril	2023-04-16T00:00:00	2024-11-08T04:00:00	4	Temperatura máxima	16.5
48339	7	Sololá	717	San Juan la Laguna	12	San Juan la Laguna	4	Abril	2023-04-16T00:00:00	2024-11-08T04:00:00	3	Temperatura mínima	16.1
48340	7	Sololá	717	San Juan la Laguna	12	San Juan la Laguna	4	Abril	2023-04-16T00:00:00	2024-11-08T04:00:00	5	Humedad	87
48341	7	Sololá	717	San Juan la Laguna	12	San Juan la Laguna	4	Abril	2023-04-16T00:00:00	2024-11-08T04:00:00	6	Velocidad del viento	1.6
48342	7	Sololá	717	San Juan la Laguna	12	San Juan la Laguna	4	Abril	2023-04-16T00:00:00	2024-11-08T04:00:00	7	Dirección del viento	1.61
48343	7	Sololá	717	San Juan la Laguna	12	San Juan la Laguna	4	Abril	2023-04-16T00:00:00	2024-11-08T04:00:00	1	Precipitación	0
48344	7	Sololá	717	San Juan la Laguna	12	San Juan la Laguna	4	Abril	2023-04-16T00:00:00	2024-11-08T04:00:00	8	Radiación solar	0
48345	7	Sololá	717	San Juan la Laguna	12	San Juan la Laguna	4	Abril	2023-04-16T00:00:00	2024-11-08T05:00:00	2	Temperatura media	16
48346	7	Sololá	717	San Juan la Laguna	12	San Juan la Laguna	4	Abril	2023-04-16T00:00:00	2024-11-08T05:00:00	4	Temperatura máxima	16.3
48347	7	Sololá	717	San Juan la Laguna	12	San Juan la Laguna	4	Abril	2023-04-16T00:00:00	2024-11-08T05:00:00	3	Temperatura mínima	16
48348	7	Sololá	717	San Juan la Laguna	12	San Juan la Laguna	4	Abril	2023-04-16T00:00:00	2024-11-08T05:00:00	5	Humedad	85
48349	7	Sololá	717	San Juan la Laguna	12	San Juan la Laguna	4	Abril	2023-04-16T00:00:00	2024-11-08T05:00:00	6	Velocidad del viento	1.6
48350	7	Sololá	717	San Juan la Laguna	12	San Juan la Laguna	4	Abril	2023-04-16T00:00:00	2024-11-08T05:00:00	7	Dirección del viento	1.61
48351	7	Sololá	717	San Juan la Laguna	12	San Juan la Laguna	4	Abril	2023-04-16T00:00:00	2024-11-08T05:00:00	1	Precipitación	0
48352	7	Sololá	717	San Juan la Laguna	12	San Juan la Laguna	4	Abril	2023-04-16T00:00:00	2024-11-08T05:00:00	8	Radiación solar	0
48353	7	Sololá	717	San Juan la Laguna	12	San Juan la Laguna	4	Abril	2023-04-16T00:00:00	2024-11-08T06:00:00	2	Temperatura media	16
48354	7	Sololá	717	San Juan la Laguna	12	San Juan la Laguna	4	Abril	2023-04-16T00:00:00	2024-11-08T06:00:00	4	Temperatura máxima	16.1
48355	7	Sololá	717	San Juan la Laguna	12	San Juan la Laguna	4	Abril	2023-04-16T00:00:00	2024-11-08T06:00:00	3	Temperatura mínima	15.8
48356	7	Sololá	717	San Juan la Laguna	12	San Juan la Laguna	4	Abril	2023-04-16T00:00:00	2024-11-08T06:00:00	5	Humedad	84
48357	7	Sololá	717	San Juan la Laguna	12	San Juan la Laguna	4	Abril	2023-04-16T00:00:00	2024-11-08T06:00:00	6	Velocidad del viento	1.6
48358	7	Sololá	717	San Juan la Laguna	12	San Juan la Laguna	4	Abril	2023-04-16T00:00:00	2024-11-08T06:00:00	7	Dirección del viento	1.61
48359	7	Sololá	717	San Juan la Laguna	12	San Juan la Laguna	4	Abril	2023-04-16T00:00:00	2024-11-08T06:00:00	1	Precipitación	0
48360	7	Sololá	717	San Juan la Laguna	12	San Juan la Laguna	4	Abril	2023-04-16T00:00:00	2024-11-08T06:00:00	8	Radiación solar	0
48361	7	Sololá	717	San Juan la Laguna	12	San Juan la Laguna	4	Abril	2023-04-16T00:00:00	2024-11-08T07:00:00	2	Temperatura media	17
48362	7	Sololá	717	San Juan la Laguna	12	San Juan la Laguna	4	Abril	2023-04-16T00:00:00	2024-11-08T07:00:00	4	Temperatura máxima	17
48363	7	Sololá	717	San Juan la Laguna	12	San Juan la Laguna	4	Abril	2023-04-16T00:00:00	2024-11-08T07:00:00	3	Temperatura mínima	15.8
48364	7	Sololá	717	San Juan la Laguna	12	San Juan la Laguna	4	Abril	2023-04-16T00:00:00	2024-11-08T07:00:00	5	Humedad	83
48365	7	Sololá	717	San Juan la Laguna	12	San Juan la Laguna	4	Abril	2023-04-16T00:00:00	2024-11-08T07:00:00	6	Velocidad del viento	1.6
48366	7	Sololá	717	San Juan la Laguna	12	San Juan la Laguna	4	Abril	2023-04-16T00:00:00	2024-11-08T07:00:00	7	Dirección del viento	1.61
48367	7	Sololá	717	San Juan la Laguna	12	San Juan la Laguna	4	Abril	2023-04-16T00:00:00	2024-11-08T07:00:00	1	Precipitación	0
48368	7	Sololá	717	San Juan la Laguna	12	San Juan la Laguna	4	Abril	2023-04-16T00:00:00	2024-11-08T07:00:00	8	Radiación solar	57
48369	7	Sololá	717	San Juan la Laguna	12	San Juan la Laguna	4	Abril	2023-04-16T00:00:00	2024-11-08T08:00:00	2	Temperatura media	20.3
48370	7	Sololá	717	San Juan la Laguna	12	San Juan la Laguna	4	Abril	2023-04-16T00:00:00	2024-11-08T08:00:00	4	Temperatura máxima	20.3
48371	7	Sololá	717	San Juan la Laguna	12	San Juan la Laguna	4	Abril	2023-04-16T00:00:00	2024-11-08T08:00:00	3	Temperatura mínima	17
48372	7	Sololá	717	San Juan la Laguna	12	San Juan la Laguna	4	Abril	2023-04-16T00:00:00	2024-11-08T08:00:00	5	Humedad	80
48373	7	Sololá	717	San Juan la Laguna	12	San Juan la Laguna	4	Abril	2023-04-16T00:00:00	2024-11-08T08:00:00	6	Velocidad del viento	0
48374	7	Sololá	717	San Juan la Laguna	12	San Juan la Laguna	4	Abril	2023-04-16T00:00:00	2024-11-08T08:00:00	7	Dirección del viento	0
48375	7	Sololá	717	San Juan la Laguna	12	San Juan la Laguna	4	Abril	2023-04-16T00:00:00	2024-11-08T08:00:00	1	Precipitación	0
48376	7	Sololá	717	San Juan la Laguna	12	San Juan la Laguna	4	Abril	2023-04-16T00:00:00	2024-11-08T08:00:00	8	Radiación solar	222
48377	7	Sololá	717	San Juan la Laguna	12	San Juan la Laguna	4	Abril	2023-04-16T00:00:00	2024-11-08T09:00:00	2	Temperatura media	21.9
48378	7	Sololá	717	San Juan la Laguna	12	San Juan la Laguna	4	Abril	2023-04-16T00:00:00	2024-11-08T09:00:00	4	Temperatura máxima	21.9
48379	7	Sololá	717	San Juan la Laguna	12	San Juan la Laguna	4	Abril	2023-04-16T00:00:00	2024-11-08T09:00:00	3	Temperatura mínima	20.3
48380	7	Sololá	717	San Juan la Laguna	12	San Juan la Laguna	4	Abril	2023-04-16T00:00:00	2024-11-08T09:00:00	5	Humedad	73
48381	7	Sololá	717	San Juan la Laguna	12	San Juan la Laguna	4	Abril	2023-04-16T00:00:00	2024-11-08T09:00:00	6	Velocidad del viento	1.6
48382	7	Sololá	717	San Juan la Laguna	12	San Juan la Laguna	4	Abril	2023-04-16T00:00:00	2024-11-08T09:00:00	7	Dirección del viento	1.61
48383	7	Sololá	717	San Juan la Laguna	12	San Juan la Laguna	4	Abril	2023-04-16T00:00:00	2024-11-08T09:00:00	1	Precipitación	0
48384	7	Sololá	717	San Juan la Laguna	12	San Juan la Laguna	4	Abril	2023-04-16T00:00:00	2024-11-08T09:00:00	8	Radiación solar	375
48385	7	Sololá	717	San Juan la Laguna	12	San Juan la Laguna	4	Abril	2023-04-16T00:00:00	2024-11-08T10:00:00	2	Temperatura media	22.6
48386	7	Sololá	717	San Juan la Laguna	12	San Juan la Laguna	4	Abril	2023-04-16T00:00:00	2024-11-08T10:00:00	4	Temperatura máxima	22.8
48387	7	Sololá	717	San Juan la Laguna	12	San Juan la Laguna	4	Abril	2023-04-16T00:00:00	2024-11-08T10:00:00	3	Temperatura mínima	21.9
48388	7	Sololá	717	San Juan la Laguna	12	San Juan la Laguna	4	Abril	2023-04-16T00:00:00	2024-11-08T10:00:00	5	Humedad	69
48389	7	Sololá	717	San Juan la Laguna	12	San Juan la Laguna	4	Abril	2023-04-16T00:00:00	2024-11-08T10:00:00	6	Velocidad del viento	1.6
48390	7	Sololá	717	San Juan la Laguna	12	San Juan la Laguna	4	Abril	2023-04-16T00:00:00	2024-11-08T10:00:00	7	Dirección del viento	1.61
48391	7	Sololá	717	San Juan la Laguna	12	San Juan la Laguna	4	Abril	2023-04-16T00:00:00	2024-11-08T10:00:00	1	Precipitación	0
48392	7	Sololá	717	San Juan la Laguna	12	San Juan la Laguna	4	Abril	2023-04-16T00:00:00	2024-11-08T10:00:00	8	Radiación solar	557
48393	7	Sololá	717	San Juan la Laguna	12	San Juan la Laguna	4	Abril	2023-04-16T00:00:00	2024-11-08T11:00:00	2	Temperatura media	23.7
48394	7	Sololá	717	San Juan la Laguna	12	San Juan la Laguna	4	Abril	2023-04-16T00:00:00	2024-11-08T11:00:00	4	Temperatura máxima	23.8
48395	7	Sololá	717	San Juan la Laguna	12	San Juan la Laguna	4	Abril	2023-04-16T00:00:00	2024-11-08T11:00:00	3	Temperatura mínima	22.4
48396	7	Sololá	717	San Juan la Laguna	12	San Juan la Laguna	4	Abril	2023-04-16T00:00:00	2024-11-08T11:00:00	5	Humedad	69
48397	7	Sololá	717	San Juan la Laguna	12	San Juan la Laguna	4	Abril	2023-04-16T00:00:00	2024-11-08T11:00:00	6	Velocidad del viento	1.6
48398	7	Sololá	717	San Juan la Laguna	12	San Juan la Laguna	4	Abril	2023-04-16T00:00:00	2024-11-08T11:00:00	7	Dirección del viento	1.61
48399	7	Sololá	717	San Juan la Laguna	12	San Juan la Laguna	4	Abril	2023-04-16T00:00:00	2024-11-08T11:00:00	1	Precipitación	0
48400	7	Sololá	717	San Juan la Laguna	12	San Juan la Laguna	4	Abril	2023-04-16T00:00:00	2024-11-08T11:00:00	8	Radiación solar	809
48401	7	Sololá	717	San Juan la Laguna	12	San Juan la Laguna	4	Abril	2023-04-16T00:00:00	2024-11-08T12:00:00	2	Temperatura media	24.1
48402	7	Sololá	717	San Juan la Laguna	12	San Juan la Laguna	4	Abril	2023-04-16T00:00:00	2024-11-08T12:00:00	4	Temperatura máxima	24.4
48403	7	Sololá	717	San Juan la Laguna	12	San Juan la Laguna	4	Abril	2023-04-16T00:00:00	2024-11-08T12:00:00	3	Temperatura mínima	23.2
48404	7	Sololá	717	San Juan la Laguna	12	San Juan la Laguna	4	Abril	2023-04-16T00:00:00	2024-11-08T12:00:00	5	Humedad	67
48405	7	Sololá	717	San Juan la Laguna	12	San Juan la Laguna	4	Abril	2023-04-16T00:00:00	2024-11-08T12:00:00	6	Velocidad del viento	1.6
48406	7	Sololá	717	San Juan la Laguna	12	San Juan la Laguna	4	Abril	2023-04-16T00:00:00	2024-11-08T12:00:00	7	Dirección del viento	1.61
48407	7	Sololá	717	San Juan la Laguna	12	San Juan la Laguna	4	Abril	2023-04-16T00:00:00	2024-11-08T12:00:00	1	Precipitación	0
48408	7	Sololá	717	San Juan la Laguna	12	San Juan la Laguna	4	Abril	2023-04-16T00:00:00	2024-11-08T12:00:00	8	Radiación solar	928
48409	7	Sololá	717	San Juan la Laguna	12	San Juan la Laguna	4	Abril	2023-04-16T00:00:00	2024-11-08T13:00:00	2	Temperatura media	24.9
48410	7	Sololá	717	San Juan la Laguna	12	San Juan la Laguna	4	Abril	2023-04-16T00:00:00	2024-11-08T13:00:00	4	Temperatura máxima	24.9
48411	7	Sololá	717	San Juan la Laguna	12	San Juan la Laguna	4	Abril	2023-04-16T00:00:00	2024-11-08T13:00:00	3	Temperatura mínima	23.9
48412	7	Sololá	717	San Juan la Laguna	12	San Juan la Laguna	4	Abril	2023-04-16T00:00:00	2024-11-08T13:00:00	5	Humedad	66
48413	7	Sololá	717	San Juan la Laguna	12	San Juan la Laguna	4	Abril	2023-04-16T00:00:00	2024-11-08T13:00:00	6	Velocidad del viento	1.6
48414	7	Sololá	717	San Juan la Laguna	12	San Juan la Laguna	4	Abril	2023-04-16T00:00:00	2024-11-08T13:00:00	7	Dirección del viento	1.61
48415	7	Sololá	717	San Juan la Laguna	12	San Juan la Laguna	4	Abril	2023-04-16T00:00:00	2024-11-08T13:00:00	1	Precipitación	0
48416	7	Sololá	717	San Juan la Laguna	12	San Juan la Laguna	4	Abril	2023-04-16T00:00:00	2024-11-08T13:00:00	8	Radiación solar	778
48417	7	Sololá	717	San Juan la Laguna	12	San Juan la Laguna	4	Abril	2023-04-16T00:00:00	2024-11-08T14:00:00	2	Temperatura media	22.7
48418	7	Sololá	717	San Juan la Laguna	12	San Juan la Laguna	4	Abril	2023-04-16T00:00:00	2024-11-08T14:00:00	4	Temperatura máxima	25
48419	7	Sololá	717	San Juan la Laguna	12	San Juan la Laguna	4	Abril	2023-04-16T00:00:00	2024-11-08T14:00:00	3	Temperatura mínima	22.7
48420	7	Sololá	717	San Juan la Laguna	12	San Juan la Laguna	4	Abril	2023-04-16T00:00:00	2024-11-08T14:00:00	5	Humedad	71
48421	7	Sololá	717	San Juan la Laguna	12	San Juan la Laguna	4	Abril	2023-04-16T00:00:00	2024-11-08T14:00:00	6	Velocidad del viento	4.8
48422	7	Sololá	717	San Juan la Laguna	12	San Juan la Laguna	4	Abril	2023-04-16T00:00:00	2024-11-08T14:00:00	7	Dirección del viento	4.83
48423	7	Sololá	717	San Juan la Laguna	12	San Juan la Laguna	4	Abril	2023-04-16T00:00:00	2024-11-08T14:00:00	1	Precipitación	0
48424	7	Sololá	717	San Juan la Laguna	12	San Juan la Laguna	4	Abril	2023-04-16T00:00:00	2024-11-08T14:00:00	8	Radiación solar	382
48425	7	Sololá	717	San Juan la Laguna	12	San Juan la Laguna	4	Abril	2023-04-16T00:00:00	2024-11-08T15:00:00	2	Temperatura media	23.3
48426	7	Sololá	717	San Juan la Laguna	12	San Juan la Laguna	4	Abril	2023-04-16T00:00:00	2024-11-08T15:00:00	4	Temperatura máxima	24.1
48427	7	Sololá	717	San Juan la Laguna	12	San Juan la Laguna	4	Abril	2023-04-16T00:00:00	2024-11-08T15:00:00	3	Temperatura mínima	22.3
48428	7	Sololá	717	San Juan la Laguna	12	San Juan la Laguna	4	Abril	2023-04-16T00:00:00	2024-11-08T15:00:00	5	Humedad	69
48429	7	Sololá	717	San Juan la Laguna	12	San Juan la Laguna	4	Abril	2023-04-16T00:00:00	2024-11-08T15:00:00	6	Velocidad del viento	4.8
48430	7	Sololá	717	San Juan la Laguna	12	San Juan la Laguna	4	Abril	2023-04-16T00:00:00	2024-11-08T15:00:00	7	Dirección del viento	4.83
48431	7	Sololá	717	San Juan la Laguna	12	San Juan la Laguna	4	Abril	2023-04-16T00:00:00	2024-11-08T15:00:00	1	Precipitación	0
48432	7	Sololá	717	San Juan la Laguna	12	San Juan la Laguna	4	Abril	2023-04-16T00:00:00	2024-11-08T15:00:00	8	Radiación solar	453
48433	7	Sololá	717	San Juan la Laguna	12	San Juan la Laguna	4	Abril	2023-04-16T00:00:00	2024-11-08T16:00:00	2	Temperatura media	23.3
48434	7	Sololá	717	San Juan la Laguna	12	San Juan la Laguna	4	Abril	2023-04-16T00:00:00	2024-11-08T16:00:00	4	Temperatura máxima	23.3
48435	7	Sololá	717	San Juan la Laguna	12	San Juan la Laguna	4	Abril	2023-04-16T00:00:00	2024-11-08T16:00:00	3	Temperatura mínima	22.7
48436	7	Sololá	717	San Juan la Laguna	12	San Juan la Laguna	4	Abril	2023-04-16T00:00:00	2024-11-08T16:00:00	5	Humedad	69
48437	7	Sololá	717	San Juan la Laguna	12	San Juan la Laguna	4	Abril	2023-04-16T00:00:00	2024-11-08T16:00:00	6	Velocidad del viento	4.8
48438	7	Sololá	717	San Juan la Laguna	12	San Juan la Laguna	4	Abril	2023-04-16T00:00:00	2024-11-08T16:00:00	7	Dirección del viento	4.83
48439	7	Sololá	717	San Juan la Laguna	12	San Juan la Laguna	4	Abril	2023-04-16T00:00:00	2024-11-08T16:00:00	1	Precipitación	0
48440	7	Sololá	717	San Juan la Laguna	12	San Juan la Laguna	4	Abril	2023-04-16T00:00:00	2024-11-08T16:00:00	8	Radiación solar	358
48441	7	Sololá	717	San Juan la Laguna	12	San Juan la Laguna	4	Abril	2023-04-16T00:00:00	2024-11-08T17:00:00	2	Temperatura media	20.9
48442	7	Sololá	717	San Juan la Laguna	12	San Juan la Laguna	4	Abril	2023-04-16T00:00:00	2024-11-08T17:00:00	4	Temperatura máxima	23.3
48443	7	Sololá	717	San Juan la Laguna	12	San Juan la Laguna	4	Abril	2023-04-16T00:00:00	2024-11-08T17:00:00	3	Temperatura mínima	20.9
48444	7	Sololá	717	San Juan la Laguna	12	San Juan la Laguna	4	Abril	2023-04-16T00:00:00	2024-11-08T17:00:00	5	Humedad	78
48445	7	Sololá	717	San Juan la Laguna	12	San Juan la Laguna	4	Abril	2023-04-16T00:00:00	2024-11-08T17:00:00	6	Velocidad del viento	4.8
48446	7	Sololá	717	San Juan la Laguna	12	San Juan la Laguna	4	Abril	2023-04-16T00:00:00	2024-11-08T17:00:00	7	Dirección del viento	4.83
48447	7	Sololá	717	San Juan la Laguna	12	San Juan la Laguna	4	Abril	2023-04-16T00:00:00	2024-11-08T17:00:00	1	Precipitación	0
48448	7	Sololá	717	San Juan la Laguna	12	San Juan la Laguna	4	Abril	2023-04-16T00:00:00	2024-11-08T17:00:00	8	Radiación solar	67
48449	7	Sololá	717	San Juan la Laguna	12	San Juan la Laguna	4	Abril	2023-04-16T00:00:00	2024-11-08T18:00:00	2	Temperatura media	20.5
48450	7	Sololá	717	San Juan la Laguna	12	San Juan la Laguna	4	Abril	2023-04-16T00:00:00	2024-11-08T18:00:00	4	Temperatura máxima	20.9
48451	7	Sololá	717	San Juan la Laguna	12	San Juan la Laguna	4	Abril	2023-04-16T00:00:00	2024-11-08T18:00:00	3	Temperatura mínima	20.4
48452	7	Sololá	717	San Juan la Laguna	12	San Juan la Laguna	4	Abril	2023-04-16T00:00:00	2024-11-08T18:00:00	5	Humedad	81
48453	7	Sololá	717	San Juan la Laguna	12	San Juan la Laguna	4	Abril	2023-04-16T00:00:00	2024-11-08T18:00:00	6	Velocidad del viento	1.6
48454	7	Sololá	717	San Juan la Laguna	12	San Juan la Laguna	4	Abril	2023-04-16T00:00:00	2024-11-08T18:00:00	7	Dirección del viento	1.61
48455	7	Sololá	717	San Juan la Laguna	12	San Juan la Laguna	4	Abril	2023-04-16T00:00:00	2024-11-08T18:00:00	1	Precipitación	0
48456	7	Sololá	717	San Juan la Laguna	12	San Juan la Laguna	4	Abril	2023-04-16T00:00:00	2024-11-08T18:00:00	8	Radiación solar	11
48457	7	Sololá	717	San Juan la Laguna	12	San Juan la Laguna	4	Abril	2023-04-16T00:00:00	2024-11-08T19:00:00	2	Temperatura media	20.1
48458	7	Sololá	717	San Juan la Laguna	12	San Juan la Laguna	4	Abril	2023-04-16T00:00:00	2024-11-08T19:00:00	4	Temperatura máxima	20.9
48459	7	Sololá	717	San Juan la Laguna	12	San Juan la Laguna	4	Abril	2023-04-16T00:00:00	2024-11-08T19:00:00	3	Temperatura mínima	20.1
48460	7	Sololá	717	San Juan la Laguna	12	San Juan la Laguna	4	Abril	2023-04-16T00:00:00	2024-11-08T19:00:00	5	Humedad	77
48461	7	Sololá	717	San Juan la Laguna	12	San Juan la Laguna	4	Abril	2023-04-16T00:00:00	2024-11-08T19:00:00	6	Velocidad del viento	1.6
48462	7	Sololá	717	San Juan la Laguna	12	San Juan la Laguna	4	Abril	2023-04-16T00:00:00	2024-11-08T19:00:00	7	Dirección del viento	1.61
48463	7	Sololá	717	San Juan la Laguna	12	San Juan la Laguna	4	Abril	2023-04-16T00:00:00	2024-11-08T19:00:00	1	Precipitación	0
48464	7	Sololá	717	San Juan la Laguna	12	San Juan la Laguna	4	Abril	2023-04-16T00:00:00	2024-11-08T19:00:00	8	Radiación solar	0
48465	7	Sololá	717	San Juan la Laguna	12	San Juan la Laguna	4	Abril	2023-04-16T00:00:00	2024-11-08T20:00:00	2	Temperatura media	18.3
48466	7	Sololá	717	San Juan la Laguna	12	San Juan la Laguna	4	Abril	2023-04-16T00:00:00	2024-11-08T20:00:00	4	Temperatura máxima	20.1
48467	7	Sololá	717	San Juan la Laguna	12	San Juan la Laguna	4	Abril	2023-04-16T00:00:00	2024-11-08T20:00:00	3	Temperatura mínima	18.3
48468	7	Sololá	717	San Juan la Laguna	12	San Juan la Laguna	4	Abril	2023-04-16T00:00:00	2024-11-08T20:00:00	5	Humedad	80
48469	7	Sololá	717	San Juan la Laguna	12	San Juan la Laguna	4	Abril	2023-04-16T00:00:00	2024-11-08T20:00:00	6	Velocidad del viento	0
48470	7	Sololá	717	San Juan la Laguna	12	San Juan la Laguna	4	Abril	2023-04-16T00:00:00	2024-11-08T20:00:00	7	Dirección del viento	0
48471	7	Sololá	717	San Juan la Laguna	12	San Juan la Laguna	4	Abril	2023-04-16T00:00:00	2024-11-08T20:00:00	1	Precipitación	0
48472	7	Sololá	717	San Juan la Laguna	12	San Juan la Laguna	4	Abril	2023-04-16T00:00:00	2024-11-08T20:00:00	8	Radiación solar	0
48473	7	Sololá	717	San Juan la Laguna	12	San Juan la Laguna	4	Abril	2023-04-16T00:00:00	2024-11-08T21:00:00	2	Temperatura media	17.9
48474	7	Sololá	717	San Juan la Laguna	12	San Juan la Laguna	4	Abril	2023-04-16T00:00:00	2024-11-08T21:00:00	4	Temperatura máxima	18.3
48475	7	Sololá	717	San Juan la Laguna	12	San Juan la Laguna	4	Abril	2023-04-16T00:00:00	2024-11-08T21:00:00	3	Temperatura mínima	17.9
48476	7	Sololá	717	San Juan la Laguna	12	San Juan la Laguna	4	Abril	2023-04-16T00:00:00	2024-11-08T21:00:00	5	Humedad	80
48477	7	Sololá	717	San Juan la Laguna	12	San Juan la Laguna	4	Abril	2023-04-16T00:00:00	2024-11-08T21:00:00	6	Velocidad del viento	3.2
48478	7	Sololá	717	San Juan la Laguna	12	San Juan la Laguna	4	Abril	2023-04-16T00:00:00	2024-11-08T21:00:00	7	Dirección del viento	3.22
48479	7	Sololá	717	San Juan la Laguna	12	San Juan la Laguna	4	Abril	2023-04-16T00:00:00	2024-11-08T21:00:00	1	Precipitación	0
48480	7	Sololá	717	San Juan la Laguna	12	San Juan la Laguna	4	Abril	2023-04-16T00:00:00	2024-11-08T21:00:00	8	Radiación solar	0
48481	7	Sololá	717	San Juan la Laguna	12	San Juan la Laguna	4	Abril	2023-04-16T00:00:00	2024-11-08T22:00:00	2	Temperatura media	17.3
48482	7	Sololá	717	San Juan la Laguna	12	San Juan la Laguna	4	Abril	2023-04-16T00:00:00	2024-11-08T22:00:00	4	Temperatura máxima	17.9
48483	7	Sololá	717	San Juan la Laguna	12	San Juan la Laguna	4	Abril	2023-04-16T00:00:00	2024-11-08T22:00:00	3	Temperatura mínima	17.3
48484	7	Sololá	717	San Juan la Laguna	12	San Juan la Laguna	4	Abril	2023-04-16T00:00:00	2024-11-08T22:00:00	5	Humedad	78
48485	7	Sololá	717	San Juan la Laguna	12	San Juan la Laguna	4	Abril	2023-04-16T00:00:00	2024-11-08T22:00:00	6	Velocidad del viento	3.2
48486	7	Sololá	717	San Juan la Laguna	12	San Juan la Laguna	4	Abril	2023-04-16T00:00:00	2024-11-08T22:00:00	7	Dirección del viento	3.22
48487	7	Sololá	717	San Juan la Laguna	12	San Juan la Laguna	4	Abril	2023-04-16T00:00:00	2024-11-08T22:00:00	1	Precipitación	0
48488	7	Sololá	717	San Juan la Laguna	12	San Juan la Laguna	4	Abril	2023-04-16T00:00:00	2024-11-08T22:00:00	8	Radiación solar	0
48489	7	Sololá	717	San Juan la Laguna	12	San Juan la Laguna	4	Abril	2023-04-16T00:00:00	2024-11-08T23:00:00	2	Temperatura media	16.8
48490	7	Sololá	717	San Juan la Laguna	12	San Juan la Laguna	4	Abril	2023-04-16T00:00:00	2024-11-08T23:00:00	4	Temperatura máxima	17.3
48491	7	Sololá	717	San Juan la Laguna	12	San Juan la Laguna	4	Abril	2023-04-16T00:00:00	2024-11-08T23:00:00	3	Temperatura mínima	16.6
48492	7	Sololá	717	San Juan la Laguna	12	San Juan la Laguna	4	Abril	2023-04-16T00:00:00	2024-11-08T23:00:00	5	Humedad	77
48493	7	Sololá	717	San Juan la Laguna	12	San Juan la Laguna	4	Abril	2023-04-16T00:00:00	2024-11-08T23:00:00	6	Velocidad del viento	1.6
48494	7	Sololá	717	San Juan la Laguna	12	San Juan la Laguna	4	Abril	2023-04-16T00:00:00	2024-11-08T23:00:00	7	Dirección del viento	1.61
48495	7	Sololá	717	San Juan la Laguna	12	San Juan la Laguna	4	Abril	2023-04-16T00:00:00	2024-11-08T23:00:00	1	Precipitación	0
48496	7	Sololá	717	San Juan la Laguna	12	San Juan la Laguna	4	Abril	2023-04-16T00:00:00	2024-11-08T23:00:00	8	Radiación solar	0
48497	7	Sololá	717	San Juan la Laguna	12	San Juan la Laguna	4	Abril	2023-04-17T00:00:00	2024-11-08T00:00:00	2	Temperatura media	15.7
48498	7	Sololá	717	San Juan la Laguna	12	San Juan la Laguna	4	Abril	2023-04-17T00:00:00	2024-11-08T00:00:00	4	Temperatura máxima	16.8
48499	7	Sololá	717	San Juan la Laguna	12	San Juan la Laguna	4	Abril	2023-04-17T00:00:00	2024-11-08T00:00:00	3	Temperatura mínima	15.7
48500	7	Sololá	717	San Juan la Laguna	12	San Juan la Laguna	4	Abril	2023-04-17T00:00:00	2024-11-08T00:00:00	5	Humedad	82
48501	7	Sololá	717	San Juan la Laguna	12	San Juan la Laguna	4	Abril	2023-04-17T00:00:00	2024-11-08T00:00:00	6	Velocidad del viento	0
48502	7	Sololá	717	San Juan la Laguna	12	San Juan la Laguna	4	Abril	2023-04-17T00:00:00	2024-11-08T00:00:00	7	Dirección del viento	0
48503	7	Sololá	717	San Juan la Laguna	12	San Juan la Laguna	4	Abril	2023-04-17T00:00:00	2024-11-08T00:00:00	1	Precipitación	0
48504	7	Sololá	717	San Juan la Laguna	12	San Juan la Laguna	4	Abril	2023-04-17T00:00:00	2024-11-08T00:00:00	8	Radiación solar	0
48505	7	Sololá	717	San Juan la Laguna	12	San Juan la Laguna	4	Abril	2023-04-17T00:00:00	2024-11-08T01:00:00	2	Temperatura media	16
48506	7	Sololá	717	San Juan la Laguna	12	San Juan la Laguna	4	Abril	2023-04-17T00:00:00	2024-11-08T01:00:00	4	Temperatura máxima	16.2
48507	7	Sololá	717	San Juan la Laguna	12	San Juan la Laguna	4	Abril	2023-04-17T00:00:00	2024-11-08T01:00:00	3	Temperatura mínima	15.6
48508	7	Sololá	717	San Juan la Laguna	12	San Juan la Laguna	4	Abril	2023-04-17T00:00:00	2024-11-08T01:00:00	5	Humedad	78
48509	7	Sololá	717	San Juan la Laguna	12	San Juan la Laguna	4	Abril	2023-04-17T00:00:00	2024-11-08T01:00:00	6	Velocidad del viento	1.6
48510	7	Sololá	717	San Juan la Laguna	12	San Juan la Laguna	4	Abril	2023-04-17T00:00:00	2024-11-08T01:00:00	7	Dirección del viento	1.61
48511	7	Sololá	717	San Juan la Laguna	12	San Juan la Laguna	4	Abril	2023-04-17T00:00:00	2024-11-08T01:00:00	1	Precipitación	0
48512	7	Sololá	717	San Juan la Laguna	12	San Juan la Laguna	4	Abril	2023-04-17T00:00:00	2024-11-08T01:00:00	8	Radiación solar	0
48513	7	Sololá	717	San Juan la Laguna	12	San Juan la Laguna	4	Abril	2023-04-17T00:00:00	2024-11-08T02:00:00	2	Temperatura media	15.8
48514	7	Sololá	717	San Juan la Laguna	12	San Juan la Laguna	4	Abril	2023-04-17T00:00:00	2024-11-08T02:00:00	4	Temperatura máxima	16.2
48515	7	Sololá	717	San Juan la Laguna	12	San Juan la Laguna	4	Abril	2023-04-17T00:00:00	2024-11-08T02:00:00	3	Temperatura mínima	15.7
48516	7	Sololá	717	San Juan la Laguna	12	San Juan la Laguna	4	Abril	2023-04-17T00:00:00	2024-11-08T02:00:00	5	Humedad	82
48517	7	Sololá	717	San Juan la Laguna	12	San Juan la Laguna	4	Abril	2023-04-17T00:00:00	2024-11-08T02:00:00	6	Velocidad del viento	1.6
48518	7	Sololá	717	San Juan la Laguna	12	San Juan la Laguna	4	Abril	2023-04-17T00:00:00	2024-11-08T02:00:00	7	Dirección del viento	1.61
48519	7	Sololá	717	San Juan la Laguna	12	San Juan la Laguna	4	Abril	2023-04-17T00:00:00	2024-11-08T02:00:00	1	Precipitación	0
48520	7	Sololá	717	San Juan la Laguna	12	San Juan la Laguna	4	Abril	2023-04-17T00:00:00	2024-11-08T02:00:00	8	Radiación solar	0
48521	7	Sololá	717	San Juan la Laguna	12	San Juan la Laguna	4	Abril	2023-04-17T00:00:00	2024-11-08T03:00:00	2	Temperatura media	14.8
48522	7	Sololá	717	San Juan la Laguna	12	San Juan la Laguna	4	Abril	2023-04-17T00:00:00	2024-11-08T03:00:00	4	Temperatura máxima	15.8
48523	7	Sololá	717	San Juan la Laguna	12	San Juan la Laguna	4	Abril	2023-04-17T00:00:00	2024-11-08T03:00:00	3	Temperatura mínima	14.8
48524	7	Sololá	717	San Juan la Laguna	12	San Juan la Laguna	4	Abril	2023-04-17T00:00:00	2024-11-08T03:00:00	5	Humedad	85
48525	7	Sololá	717	San Juan la Laguna	12	San Juan la Laguna	4	Abril	2023-04-17T00:00:00	2024-11-08T03:00:00	6	Velocidad del viento	1.6
48526	7	Sololá	717	San Juan la Laguna	12	San Juan la Laguna	4	Abril	2023-04-17T00:00:00	2024-11-08T03:00:00	7	Dirección del viento	1.61
48527	7	Sololá	717	San Juan la Laguna	12	San Juan la Laguna	4	Abril	2023-04-17T00:00:00	2024-11-08T03:00:00	1	Precipitación	0
48528	7	Sololá	717	San Juan la Laguna	12	San Juan la Laguna	4	Abril	2023-04-17T00:00:00	2024-11-08T03:00:00	8	Radiación solar	0
48529	7	Sololá	717	San Juan la Laguna	12	San Juan la Laguna	4	Abril	2023-04-17T00:00:00	2024-11-08T04:00:00	2	Temperatura media	14.9
48530	7	Sololá	717	San Juan la Laguna	12	San Juan la Laguna	4	Abril	2023-04-17T00:00:00	2024-11-08T04:00:00	4	Temperatura máxima	15.2
48531	7	Sololá	717	San Juan la Laguna	12	San Juan la Laguna	4	Abril	2023-04-17T00:00:00	2024-11-08T04:00:00	3	Temperatura mínima	14.7
48532	7	Sololá	717	San Juan la Laguna	12	San Juan la Laguna	4	Abril	2023-04-17T00:00:00	2024-11-08T04:00:00	5	Humedad	81
48533	7	Sololá	717	San Juan la Laguna	12	San Juan la Laguna	4	Abril	2023-04-17T00:00:00	2024-11-08T04:00:00	6	Velocidad del viento	3.2
48534	7	Sololá	717	San Juan la Laguna	12	San Juan la Laguna	4	Abril	2023-04-17T00:00:00	2024-11-08T04:00:00	7	Dirección del viento	3.22
48535	7	Sololá	717	San Juan la Laguna	12	San Juan la Laguna	4	Abril	2023-04-17T00:00:00	2024-11-08T04:00:00	1	Precipitación	0
48536	7	Sololá	717	San Juan la Laguna	12	San Juan la Laguna	4	Abril	2023-04-17T00:00:00	2024-11-08T04:00:00	8	Radiación solar	0
48537	7	Sololá	717	San Juan la Laguna	12	San Juan la Laguna	4	Abril	2023-04-17T00:00:00	2024-11-08T05:00:00	2	Temperatura media	14.7
48538	7	Sololá	717	San Juan la Laguna	12	San Juan la Laguna	4	Abril	2023-04-17T00:00:00	2024-11-08T05:00:00	4	Temperatura máxima	15.2
48539	7	Sololá	717	San Juan la Laguna	12	San Juan la Laguna	4	Abril	2023-04-17T00:00:00	2024-11-08T05:00:00	3	Temperatura mínima	14.6
48540	7	Sololá	717	San Juan la Laguna	12	San Juan la Laguna	4	Abril	2023-04-17T00:00:00	2024-11-08T05:00:00	5	Humedad	81
48541	7	Sololá	717	San Juan la Laguna	12	San Juan la Laguna	4	Abril	2023-04-17T00:00:00	2024-11-08T05:00:00	6	Velocidad del viento	1.6
48542	7	Sololá	717	San Juan la Laguna	12	San Juan la Laguna	4	Abril	2023-04-17T00:00:00	2024-11-08T05:00:00	7	Dirección del viento	1.61
48543	7	Sololá	717	San Juan la Laguna	12	San Juan la Laguna	4	Abril	2023-04-17T00:00:00	2024-11-08T05:00:00	1	Precipitación	0
48544	7	Sololá	717	San Juan la Laguna	12	San Juan la Laguna	4	Abril	2023-04-17T00:00:00	2024-11-08T05:00:00	8	Radiación solar	0
48545	7	Sololá	717	San Juan la Laguna	12	San Juan la Laguna	4	Abril	2023-04-17T00:00:00	2024-11-08T06:00:00	2	Temperatura media	14.5
48546	7	Sololá	717	San Juan la Laguna	12	San Juan la Laguna	4	Abril	2023-04-17T00:00:00	2024-11-08T06:00:00	4	Temperatura máxima	14.7
48547	7	Sololá	717	San Juan la Laguna	12	San Juan la Laguna	4	Abril	2023-04-17T00:00:00	2024-11-08T06:00:00	3	Temperatura mínima	14.2
48548	7	Sololá	717	San Juan la Laguna	12	San Juan la Laguna	4	Abril	2023-04-17T00:00:00	2024-11-08T06:00:00	5	Humedad	83
48549	7	Sololá	717	San Juan la Laguna	12	San Juan la Laguna	4	Abril	2023-04-17T00:00:00	2024-11-08T06:00:00	6	Velocidad del viento	1.6
48550	7	Sololá	717	San Juan la Laguna	12	San Juan la Laguna	4	Abril	2023-04-17T00:00:00	2024-11-08T06:00:00	7	Dirección del viento	1.61
48551	7	Sololá	717	San Juan la Laguna	12	San Juan la Laguna	4	Abril	2023-04-17T00:00:00	2024-11-08T06:00:00	1	Precipitación	0
48552	7	Sololá	717	San Juan la Laguna	12	San Juan la Laguna	4	Abril	2023-04-17T00:00:00	2024-11-08T06:00:00	8	Radiación solar	0
48553	7	Sololá	717	San Juan la Laguna	12	San Juan la Laguna	4	Abril	2023-04-17T00:00:00	2024-11-08T07:00:00	2	Temperatura media	16.4
48554	7	Sololá	717	San Juan la Laguna	12	San Juan la Laguna	4	Abril	2023-04-17T00:00:00	2024-11-08T07:00:00	4	Temperatura máxima	16.4
48555	7	Sololá	717	San Juan la Laguna	12	San Juan la Laguna	4	Abril	2023-04-17T00:00:00	2024-11-08T07:00:00	3	Temperatura mínima	14.1
48556	7	Sololá	717	San Juan la Laguna	12	San Juan la Laguna	4	Abril	2023-04-17T00:00:00	2024-11-08T07:00:00	5	Humedad	80
48557	7	Sololá	717	San Juan la Laguna	12	San Juan la Laguna	4	Abril	2023-04-17T00:00:00	2024-11-08T07:00:00	6	Velocidad del viento	1.6
48558	7	Sololá	717	San Juan la Laguna	12	San Juan la Laguna	4	Abril	2023-04-17T00:00:00	2024-11-08T07:00:00	7	Dirección del viento	1.61
48559	7	Sololá	717	San Juan la Laguna	12	San Juan la Laguna	4	Abril	2023-04-17T00:00:00	2024-11-08T07:00:00	1	Precipitación	0
48560	7	Sololá	717	San Juan la Laguna	12	San Juan la Laguna	4	Abril	2023-04-17T00:00:00	2024-11-08T07:00:00	8	Radiación solar	68
48561	7	Sololá	717	San Juan la Laguna	12	San Juan la Laguna	4	Abril	2023-04-17T00:00:00	2024-11-08T08:00:00	2	Temperatura media	20.9
48562	7	Sololá	717	San Juan la Laguna	12	San Juan la Laguna	4	Abril	2023-04-17T00:00:00	2024-11-08T08:00:00	4	Temperatura máxima	20.9
48563	7	Sololá	717	San Juan la Laguna	12	San Juan la Laguna	4	Abril	2023-04-17T00:00:00	2024-11-08T08:00:00	3	Temperatura mínima	16.4
48564	7	Sololá	717	San Juan la Laguna	12	San Juan la Laguna	4	Abril	2023-04-17T00:00:00	2024-11-08T08:00:00	5	Humedad	66
48565	7	Sololá	717	San Juan la Laguna	12	San Juan la Laguna	4	Abril	2023-04-17T00:00:00	2024-11-08T08:00:00	6	Velocidad del viento	0
48566	7	Sololá	717	San Juan la Laguna	12	San Juan la Laguna	4	Abril	2023-04-17T00:00:00	2024-11-08T08:00:00	7	Dirección del viento	0
48567	7	Sololá	717	San Juan la Laguna	12	San Juan la Laguna	4	Abril	2023-04-17T00:00:00	2024-11-08T08:00:00	1	Precipitación	0
48568	7	Sololá	717	San Juan la Laguna	12	San Juan la Laguna	4	Abril	2023-04-17T00:00:00	2024-11-08T08:00:00	8	Radiación solar	246
48569	7	Sololá	717	San Juan la Laguna	12	San Juan la Laguna	4	Abril	2023-04-17T00:00:00	2024-11-08T09:00:00	2	Temperatura media	22.5
48570	7	Sololá	717	San Juan la Laguna	12	San Juan la Laguna	4	Abril	2023-04-17T00:00:00	2024-11-08T09:00:00	4	Temperatura máxima	22.5
48571	7	Sololá	717	San Juan la Laguna	12	San Juan la Laguna	4	Abril	2023-04-17T00:00:00	2024-11-08T09:00:00	3	Temperatura mínima	20.9
48572	7	Sololá	717	San Juan la Laguna	12	San Juan la Laguna	4	Abril	2023-04-17T00:00:00	2024-11-08T09:00:00	5	Humedad	60
48573	7	Sololá	717	San Juan la Laguna	12	San Juan la Laguna	4	Abril	2023-04-17T00:00:00	2024-11-08T09:00:00	6	Velocidad del viento	1.6
48574	7	Sololá	717	San Juan la Laguna	12	San Juan la Laguna	4	Abril	2023-04-17T00:00:00	2024-11-08T09:00:00	7	Dirección del viento	1.61
48575	7	Sololá	717	San Juan la Laguna	12	San Juan la Laguna	4	Abril	2023-04-17T00:00:00	2024-11-08T09:00:00	1	Precipitación	0
48576	7	Sololá	717	San Juan la Laguna	12	San Juan la Laguna	4	Abril	2023-04-17T00:00:00	2024-11-08T09:00:00	8	Radiación solar	383
48577	7	Sololá	717	San Juan la Laguna	12	San Juan la Laguna	4	Abril	2023-04-17T00:00:00	2024-11-08T10:00:00	2	Temperatura media	22.8
48578	7	Sololá	717	San Juan la Laguna	12	San Juan la Laguna	4	Abril	2023-04-17T00:00:00	2024-11-08T10:00:00	4	Temperatura máxima	23.3
48579	7	Sololá	717	San Juan la Laguna	12	San Juan la Laguna	4	Abril	2023-04-17T00:00:00	2024-11-08T10:00:00	3	Temperatura mínima	22.1
48580	7	Sololá	717	San Juan la Laguna	12	San Juan la Laguna	4	Abril	2023-04-17T00:00:00	2024-11-08T10:00:00	5	Humedad	59
48581	7	Sololá	717	San Juan la Laguna	12	San Juan la Laguna	4	Abril	2023-04-17T00:00:00	2024-11-08T10:00:00	6	Velocidad del viento	4.8
48582	7	Sololá	717	San Juan la Laguna	12	San Juan la Laguna	4	Abril	2023-04-17T00:00:00	2024-11-08T10:00:00	7	Dirección del viento	4.83
48583	7	Sololá	717	San Juan la Laguna	12	San Juan la Laguna	4	Abril	2023-04-17T00:00:00	2024-11-08T10:00:00	1	Precipitación	0
48584	7	Sololá	717	San Juan la Laguna	12	San Juan la Laguna	4	Abril	2023-04-17T00:00:00	2024-11-08T10:00:00	8	Radiación solar	569
48585	7	Sololá	717	San Juan la Laguna	12	San Juan la Laguna	4	Abril	2023-04-17T00:00:00	2024-11-08T11:00:00	2	Temperatura media	24.3
48586	7	Sololá	717	San Juan la Laguna	12	San Juan la Laguna	4	Abril	2023-04-17T00:00:00	2024-11-08T11:00:00	4	Temperatura máxima	24.7
48587	7	Sololá	717	San Juan la Laguna	12	San Juan la Laguna	4	Abril	2023-04-17T00:00:00	2024-11-08T11:00:00	3	Temperatura mínima	22.8
48588	7	Sololá	717	San Juan la Laguna	12	San Juan la Laguna	4	Abril	2023-04-17T00:00:00	2024-11-08T11:00:00	5	Humedad	52
48589	7	Sololá	717	San Juan la Laguna	12	San Juan la Laguna	4	Abril	2023-04-17T00:00:00	2024-11-08T11:00:00	6	Velocidad del viento	3.2
48590	7	Sololá	717	San Juan la Laguna	12	San Juan la Laguna	4	Abril	2023-04-17T00:00:00	2024-11-08T11:00:00	7	Dirección del viento	3.22
48591	7	Sololá	717	San Juan la Laguna	12	San Juan la Laguna	4	Abril	2023-04-17T00:00:00	2024-11-08T11:00:00	1	Precipitación	0
48592	7	Sololá	717	San Juan la Laguna	12	San Juan la Laguna	4	Abril	2023-04-17T00:00:00	2024-11-08T11:00:00	8	Radiación solar	829
48593	7	Sololá	717	San Juan la Laguna	12	San Juan la Laguna	4	Abril	2023-04-17T00:00:00	2024-11-08T12:00:00	2	Temperatura media	25
48594	7	Sololá	717	San Juan la Laguna	12	San Juan la Laguna	4	Abril	2023-04-17T00:00:00	2024-11-08T12:00:00	4	Temperatura máxima	25.2
48595	7	Sololá	717	San Juan la Laguna	12	San Juan la Laguna	4	Abril	2023-04-17T00:00:00	2024-11-08T12:00:00	3	Temperatura mínima	24.1
48596	7	Sololá	717	San Juan la Laguna	12	San Juan la Laguna	4	Abril	2023-04-17T00:00:00	2024-11-08T12:00:00	5	Humedad	51
48597	7	Sololá	717	San Juan la Laguna	12	San Juan la Laguna	4	Abril	2023-04-17T00:00:00	2024-11-08T12:00:00	6	Velocidad del viento	1.6
48598	7	Sololá	717	San Juan la Laguna	12	San Juan la Laguna	4	Abril	2023-04-17T00:00:00	2024-11-08T12:00:00	7	Dirección del viento	1.61
48599	7	Sololá	717	San Juan la Laguna	12	San Juan la Laguna	4	Abril	2023-04-17T00:00:00	2024-11-08T12:00:00	1	Precipitación	0
48600	7	Sololá	717	San Juan la Laguna	12	San Juan la Laguna	4	Abril	2023-04-17T00:00:00	2024-11-08T12:00:00	8	Radiación solar	930
48601	7	Sololá	717	San Juan la Laguna	12	San Juan la Laguna	4	Abril	2023-04-17T00:00:00	2024-11-08T13:00:00	2	Temperatura media	24.7
48602	7	Sololá	717	San Juan la Laguna	12	San Juan la Laguna	4	Abril	2023-04-17T00:00:00	2024-11-08T13:00:00	4	Temperatura máxima	25.7
48603	7	Sololá	717	San Juan la Laguna	12	San Juan la Laguna	4	Abril	2023-04-17T00:00:00	2024-11-08T13:00:00	3	Temperatura mínima	24.6
48604	7	Sololá	717	San Juan la Laguna	12	San Juan la Laguna	4	Abril	2023-04-17T00:00:00	2024-11-08T13:00:00	5	Humedad	63
48605	7	Sololá	717	San Juan la Laguna	12	San Juan la Laguna	4	Abril	2023-04-17T00:00:00	2024-11-08T13:00:00	6	Velocidad del viento	4.8
48606	7	Sololá	717	San Juan la Laguna	12	San Juan la Laguna	4	Abril	2023-04-17T00:00:00	2024-11-08T13:00:00	7	Dirección del viento	4.83
48607	7	Sololá	717	San Juan la Laguna	12	San Juan la Laguna	4	Abril	2023-04-17T00:00:00	2024-11-08T13:00:00	1	Precipitación	0
48608	7	Sololá	717	San Juan la Laguna	12	San Juan la Laguna	4	Abril	2023-04-17T00:00:00	2024-11-08T13:00:00	8	Radiación solar	943
48609	7	Sololá	717	San Juan la Laguna	12	San Juan la Laguna	4	Abril	2023-04-17T00:00:00	2024-11-08T14:00:00	2	Temperatura media	20.9
48610	7	Sololá	717	San Juan la Laguna	12	San Juan la Laguna	4	Abril	2023-04-17T00:00:00	2024-11-08T14:00:00	4	Temperatura máxima	24.7
48611	7	Sololá	717	San Juan la Laguna	12	San Juan la Laguna	4	Abril	2023-04-17T00:00:00	2024-11-08T14:00:00	3	Temperatura mínima	20.9
48612	7	Sololá	717	San Juan la Laguna	12	San Juan la Laguna	4	Abril	2023-04-17T00:00:00	2024-11-08T14:00:00	5	Humedad	75
48613	7	Sololá	717	San Juan la Laguna	12	San Juan la Laguna	4	Abril	2023-04-17T00:00:00	2024-11-08T14:00:00	6	Velocidad del viento	9.7
48614	7	Sololá	717	San Juan la Laguna	12	San Juan la Laguna	4	Abril	2023-04-17T00:00:00	2024-11-08T14:00:00	7	Dirección del viento	9.66
48615	7	Sololá	717	San Juan la Laguna	12	San Juan la Laguna	4	Abril	2023-04-17T00:00:00	2024-11-08T14:00:00	1	Precipitación	0
48616	7	Sololá	717	San Juan la Laguna	12	San Juan la Laguna	4	Abril	2023-04-17T00:00:00	2024-11-08T14:00:00	8	Radiación solar	555
48617	7	Sololá	717	San Juan la Laguna	12	San Juan la Laguna	4	Abril	2023-04-17T00:00:00	2024-11-08T15:00:00	2	Temperatura media	19.5
48618	7	Sololá	717	San Juan la Laguna	12	San Juan la Laguna	4	Abril	2023-04-17T00:00:00	2024-11-08T15:00:00	4	Temperatura máxima	20.9
48619	7	Sololá	717	San Juan la Laguna	12	San Juan la Laguna	4	Abril	2023-04-17T00:00:00	2024-11-08T15:00:00	3	Temperatura mínima	19.5
48620	7	Sololá	717	San Juan la Laguna	12	San Juan la Laguna	4	Abril	2023-04-17T00:00:00	2024-11-08T15:00:00	5	Humedad	84
48621	7	Sololá	717	San Juan la Laguna	12	San Juan la Laguna	4	Abril	2023-04-17T00:00:00	2024-11-08T15:00:00	6	Velocidad del viento	6.4
48622	7	Sololá	717	San Juan la Laguna	12	San Juan la Laguna	4	Abril	2023-04-17T00:00:00	2024-11-08T15:00:00	7	Dirección del viento	6.44
48623	7	Sololá	717	San Juan la Laguna	12	San Juan la Laguna	4	Abril	2023-04-17T00:00:00	2024-11-08T15:00:00	1	Precipitación	0.2
48624	7	Sololá	717	San Juan la Laguna	12	San Juan la Laguna	4	Abril	2023-04-17T00:00:00	2024-11-08T15:00:00	8	Radiación solar	156
48625	7	Sololá	717	San Juan la Laguna	12	San Juan la Laguna	4	Abril	2023-04-17T00:00:00	2024-11-08T16:00:00	2	Temperatura media	18.2
48626	7	Sololá	717	San Juan la Laguna	12	San Juan la Laguna	4	Abril	2023-04-17T00:00:00	2024-11-08T16:00:00	4	Temperatura máxima	19.6
48627	7	Sololá	717	San Juan la Laguna	12	San Juan la Laguna	4	Abril	2023-04-17T00:00:00	2024-11-08T16:00:00	3	Temperatura mínima	18.2
48628	7	Sololá	717	San Juan la Laguna	12	San Juan la Laguna	4	Abril	2023-04-17T00:00:00	2024-11-08T16:00:00	5	Humedad	87
48629	7	Sololá	717	San Juan la Laguna	12	San Juan la Laguna	4	Abril	2023-04-17T00:00:00	2024-11-08T16:00:00	6	Velocidad del viento	3.2
48630	7	Sololá	717	San Juan la Laguna	12	San Juan la Laguna	4	Abril	2023-04-17T00:00:00	2024-11-08T16:00:00	7	Dirección del viento	3.22
48631	7	Sololá	717	San Juan la Laguna	12	San Juan la Laguna	4	Abril	2023-04-17T00:00:00	2024-11-08T16:00:00	1	Precipitación	1.4
48632	7	Sololá	717	San Juan la Laguna	12	San Juan la Laguna	4	Abril	2023-04-17T00:00:00	2024-11-08T16:00:00	8	Radiación solar	121
48633	7	Sololá	717	San Juan la Laguna	12	San Juan la Laguna	4	Abril	2023-04-17T00:00:00	2024-11-08T17:00:00	2	Temperatura media	19
48634	7	Sololá	717	San Juan la Laguna	12	San Juan la Laguna	4	Abril	2023-04-17T00:00:00	2024-11-08T17:00:00	4	Temperatura máxima	19
48635	7	Sololá	717	San Juan la Laguna	12	San Juan la Laguna	4	Abril	2023-04-17T00:00:00	2024-11-08T17:00:00	3	Temperatura mínima	18.2
48636	7	Sololá	717	San Juan la Laguna	12	San Juan la Laguna	4	Abril	2023-04-17T00:00:00	2024-11-08T17:00:00	5	Humedad	82
48637	7	Sololá	717	San Juan la Laguna	12	San Juan la Laguna	4	Abril	2023-04-17T00:00:00	2024-11-08T17:00:00	6	Velocidad del viento	1.6
48638	7	Sololá	717	San Juan la Laguna	12	San Juan la Laguna	4	Abril	2023-04-17T00:00:00	2024-11-08T17:00:00	7	Dirección del viento	1.61
48639	7	Sololá	717	San Juan la Laguna	12	San Juan la Laguna	4	Abril	2023-04-17T00:00:00	2024-11-08T17:00:00	1	Precipitación	0
48640	7	Sololá	717	San Juan la Laguna	12	San Juan la Laguna	4	Abril	2023-04-17T00:00:00	2024-11-08T17:00:00	8	Radiación solar	155
48641	7	Sololá	717	San Juan la Laguna	12	San Juan la Laguna	4	Abril	2023-04-17T00:00:00	2024-11-08T18:00:00	2	Temperatura media	17.8
48642	7	Sololá	717	San Juan la Laguna	12	San Juan la Laguna	4	Abril	2023-04-17T00:00:00	2024-11-08T18:00:00	4	Temperatura máxima	19.2
48643	7	Sololá	717	San Juan la Laguna	12	San Juan la Laguna	4	Abril	2023-04-17T00:00:00	2024-11-08T18:00:00	3	Temperatura mínima	17.8
48644	7	Sololá	717	San Juan la Laguna	12	San Juan la Laguna	4	Abril	2023-04-17T00:00:00	2024-11-08T18:00:00	5	Humedad	86
48645	7	Sololá	717	San Juan la Laguna	12	San Juan la Laguna	4	Abril	2023-04-17T00:00:00	2024-11-08T18:00:00	6	Velocidad del viento	1.6
48646	7	Sololá	717	San Juan la Laguna	12	San Juan la Laguna	4	Abril	2023-04-17T00:00:00	2024-11-08T18:00:00	7	Dirección del viento	1.61
48647	7	Sololá	717	San Juan la Laguna	12	San Juan la Laguna	4	Abril	2023-04-17T00:00:00	2024-11-08T18:00:00	1	Precipitación	0
48648	7	Sololá	717	San Juan la Laguna	12	San Juan la Laguna	4	Abril	2023-04-17T00:00:00	2024-11-08T18:00:00	8	Radiación solar	81
48649	7	Sololá	717	San Juan la Laguna	12	San Juan la Laguna	4	Abril	2023-04-17T00:00:00	2024-11-08T19:00:00	2	Temperatura media	17.5
48650	7	Sololá	717	San Juan la Laguna	12	San Juan la Laguna	4	Abril	2023-04-17T00:00:00	2024-11-08T19:00:00	4	Temperatura máxima	17.8
48651	7	Sololá	717	San Juan la Laguna	12	San Juan la Laguna	4	Abril	2023-04-17T00:00:00	2024-11-08T19:00:00	3	Temperatura mínima	17.5
48652	7	Sololá	717	San Juan la Laguna	12	San Juan la Laguna	4	Abril	2023-04-17T00:00:00	2024-11-08T19:00:00	5	Humedad	89
48653	7	Sololá	717	San Juan la Laguna	12	San Juan la Laguna	4	Abril	2023-04-17T00:00:00	2024-11-08T19:00:00	6	Velocidad del viento	0
48654	7	Sololá	717	San Juan la Laguna	12	San Juan la Laguna	4	Abril	2023-04-17T00:00:00	2024-11-08T19:00:00	7	Dirección del viento	0
48655	7	Sololá	717	San Juan la Laguna	12	San Juan la Laguna	4	Abril	2023-04-17T00:00:00	2024-11-08T19:00:00	1	Precipitación	0
48656	7	Sololá	717	San Juan la Laguna	12	San Juan la Laguna	4	Abril	2023-04-17T00:00:00	2024-11-08T19:00:00	8	Radiación solar	0
48657	7	Sololá	717	San Juan la Laguna	12	San Juan la Laguna	4	Abril	2023-04-17T00:00:00	2024-11-08T20:00:00	2	Temperatura media	17.1
48658	7	Sololá	717	San Juan la Laguna	12	San Juan la Laguna	4	Abril	2023-04-17T00:00:00	2024-11-08T20:00:00	4	Temperatura máxima	17.7
48659	7	Sololá	717	San Juan la Laguna	12	San Juan la Laguna	4	Abril	2023-04-17T00:00:00	2024-11-08T20:00:00	3	Temperatura mínima	17.1
48660	7	Sololá	717	San Juan la Laguna	12	San Juan la Laguna	4	Abril	2023-04-17T00:00:00	2024-11-08T20:00:00	5	Humedad	90
48661	7	Sololá	717	San Juan la Laguna	12	San Juan la Laguna	4	Abril	2023-04-17T00:00:00	2024-11-08T20:00:00	6	Velocidad del viento	0
48662	7	Sololá	717	San Juan la Laguna	12	San Juan la Laguna	4	Abril	2023-04-17T00:00:00	2024-11-08T20:00:00	7	Dirección del viento	0
48663	7	Sololá	717	San Juan la Laguna	12	San Juan la Laguna	4	Abril	2023-04-17T00:00:00	2024-11-08T20:00:00	1	Precipitación	0
48664	7	Sololá	717	San Juan la Laguna	12	San Juan la Laguna	4	Abril	2023-04-17T00:00:00	2024-11-08T20:00:00	8	Radiación solar	0
48665	7	Sololá	717	San Juan la Laguna	12	San Juan la Laguna	4	Abril	2023-04-17T00:00:00	2024-11-08T21:00:00	2	Temperatura media	16.4
48666	7	Sololá	717	San Juan la Laguna	12	San Juan la Laguna	4	Abril	2023-04-17T00:00:00	2024-11-08T21:00:00	4	Temperatura máxima	17.2
48667	7	Sololá	717	San Juan la Laguna	12	San Juan la Laguna	4	Abril	2023-04-17T00:00:00	2024-11-08T21:00:00	3	Temperatura mínima	16.4
48668	7	Sololá	717	San Juan la Laguna	12	San Juan la Laguna	4	Abril	2023-04-17T00:00:00	2024-11-08T21:00:00	5	Humedad	86
48669	7	Sololá	717	San Juan la Laguna	12	San Juan la Laguna	4	Abril	2023-04-17T00:00:00	2024-11-08T21:00:00	6	Velocidad del viento	1.6
48670	7	Sololá	717	San Juan la Laguna	12	San Juan la Laguna	4	Abril	2023-04-17T00:00:00	2024-11-08T21:00:00	7	Dirección del viento	1.61
48671	7	Sololá	717	San Juan la Laguna	12	San Juan la Laguna	4	Abril	2023-04-17T00:00:00	2024-11-08T21:00:00	1	Precipitación	0
48672	7	Sololá	717	San Juan la Laguna	12	San Juan la Laguna	4	Abril	2023-04-17T00:00:00	2024-11-08T21:00:00	8	Radiación solar	0
48673	7	Sololá	717	San Juan la Laguna	12	San Juan la Laguna	4	Abril	2023-04-17T00:00:00	2024-11-08T22:00:00	2	Temperatura media	16.1
48674	7	Sololá	717	San Juan la Laguna	12	San Juan la Laguna	4	Abril	2023-04-17T00:00:00	2024-11-08T22:00:00	4	Temperatura máxima	16.4
48675	7	Sololá	717	San Juan la Laguna	12	San Juan la Laguna	4	Abril	2023-04-17T00:00:00	2024-11-08T22:00:00	3	Temperatura mínima	15.2
48676	7	Sololá	717	San Juan la Laguna	12	San Juan la Laguna	4	Abril	2023-04-17T00:00:00	2024-11-08T22:00:00	5	Humedad	83
48677	7	Sololá	717	San Juan la Laguna	12	San Juan la Laguna	4	Abril	2023-04-17T00:00:00	2024-11-08T22:00:00	6	Velocidad del viento	1.6
48678	7	Sololá	717	San Juan la Laguna	12	San Juan la Laguna	4	Abril	2023-04-17T00:00:00	2024-11-08T22:00:00	7	Dirección del viento	1.61
48679	7	Sololá	717	San Juan la Laguna	12	San Juan la Laguna	4	Abril	2023-04-17T00:00:00	2024-11-08T22:00:00	1	Precipitación	0
48680	7	Sololá	717	San Juan la Laguna	12	San Juan la Laguna	4	Abril	2023-04-17T00:00:00	2024-11-08T22:00:00	8	Radiación solar	0
48681	7	Sololá	717	San Juan la Laguna	12	San Juan la Laguna	4	Abril	2023-04-17T00:00:00	2024-11-08T23:00:00	2	Temperatura media	16.6
48682	7	Sololá	717	San Juan la Laguna	12	San Juan la Laguna	4	Abril	2023-04-17T00:00:00	2024-11-08T23:00:00	4	Temperatura máxima	17.3
48683	7	Sololá	717	San Juan la Laguna	12	San Juan la Laguna	4	Abril	2023-04-17T00:00:00	2024-11-08T23:00:00	3	Temperatura mínima	16.1
48684	7	Sololá	717	San Juan la Laguna	12	San Juan la Laguna	4	Abril	2023-04-17T00:00:00	2024-11-08T23:00:00	5	Humedad	79
48685	7	Sololá	717	San Juan la Laguna	12	San Juan la Laguna	4	Abril	2023-04-17T00:00:00	2024-11-08T23:00:00	6	Velocidad del viento	1.6
48686	7	Sololá	717	San Juan la Laguna	12	San Juan la Laguna	4	Abril	2023-04-17T00:00:00	2024-11-08T23:00:00	7	Dirección del viento	1.61
48687	7	Sololá	717	San Juan la Laguna	12	San Juan la Laguna	4	Abril	2023-04-17T00:00:00	2024-11-08T23:00:00	1	Precipitación	0
48688	7	Sololá	717	San Juan la Laguna	12	San Juan la Laguna	4	Abril	2023-04-17T00:00:00	2024-11-08T23:00:00	8	Radiación solar	0
48689	7	Sololá	717	San Juan la Laguna	12	San Juan la Laguna	4	Abril	2023-04-18T00:00:00	2024-11-08T00:00:00	2	Temperatura media	15.4
48690	7	Sololá	717	San Juan la Laguna	12	San Juan la Laguna	4	Abril	2023-04-18T00:00:00	2024-11-08T00:00:00	4	Temperatura máxima	17.1
48691	7	Sololá	717	San Juan la Laguna	12	San Juan la Laguna	4	Abril	2023-04-18T00:00:00	2024-11-08T00:00:00	3	Temperatura mínima	15.3
48692	7	Sololá	717	San Juan la Laguna	12	San Juan la Laguna	4	Abril	2023-04-18T00:00:00	2024-11-08T00:00:00	5	Humedad	84
48693	7	Sololá	717	San Juan la Laguna	12	San Juan la Laguna	4	Abril	2023-04-18T00:00:00	2024-11-08T00:00:00	6	Velocidad del viento	1.6
48694	7	Sololá	717	San Juan la Laguna	12	San Juan la Laguna	4	Abril	2023-04-18T00:00:00	2024-11-08T00:00:00	7	Dirección del viento	1.61
48695	7	Sololá	717	San Juan la Laguna	12	San Juan la Laguna	4	Abril	2023-04-18T00:00:00	2024-11-08T00:00:00	1	Precipitación	0
48696	7	Sololá	717	San Juan la Laguna	12	San Juan la Laguna	4	Abril	2023-04-18T00:00:00	2024-11-08T00:00:00	8	Radiación solar	0
48697	7	Sololá	717	San Juan la Laguna	12	San Juan la Laguna	4	Abril	2023-04-18T00:00:00	2024-11-08T01:00:00	2	Temperatura media	15.8
48698	7	Sololá	717	San Juan la Laguna	12	San Juan la Laguna	4	Abril	2023-04-18T00:00:00	2024-11-08T01:00:00	4	Temperatura máxima	15.8
48699	7	Sololá	717	San Juan la Laguna	12	San Juan la Laguna	4	Abril	2023-04-18T00:00:00	2024-11-08T01:00:00	3	Temperatura mínima	15.1
48700	7	Sololá	717	San Juan la Laguna	12	San Juan la Laguna	4	Abril	2023-04-18T00:00:00	2024-11-08T01:00:00	5	Humedad	84
48701	7	Sololá	717	San Juan la Laguna	12	San Juan la Laguna	4	Abril	2023-04-18T00:00:00	2024-11-08T01:00:00	6	Velocidad del viento	3.2
48702	7	Sololá	717	San Juan la Laguna	12	San Juan la Laguna	4	Abril	2023-04-18T00:00:00	2024-11-08T01:00:00	7	Dirección del viento	3.22
48703	7	Sololá	717	San Juan la Laguna	12	San Juan la Laguna	4	Abril	2023-04-18T00:00:00	2024-11-08T01:00:00	1	Precipitación	0
48704	7	Sololá	717	San Juan la Laguna	12	San Juan la Laguna	4	Abril	2023-04-18T00:00:00	2024-11-08T01:00:00	8	Radiación solar	0
48705	7	Sololá	717	San Juan la Laguna	12	San Juan la Laguna	4	Abril	2023-04-18T00:00:00	2024-11-08T02:00:00	2	Temperatura media	15.8
48706	7	Sololá	717	San Juan la Laguna	12	San Juan la Laguna	4	Abril	2023-04-18T00:00:00	2024-11-08T02:00:00	4	Temperatura máxima	15.8
48707	7	Sololá	717	San Juan la Laguna	12	San Juan la Laguna	4	Abril	2023-04-18T00:00:00	2024-11-08T02:00:00	3	Temperatura mínima	15.1
48708	7	Sololá	717	San Juan la Laguna	12	San Juan la Laguna	4	Abril	2023-04-18T00:00:00	2024-11-08T02:00:00	5	Humedad	85
48709	7	Sololá	717	San Juan la Laguna	12	San Juan la Laguna	4	Abril	2023-04-18T00:00:00	2024-11-08T02:00:00	6	Velocidad del viento	1.6
48710	7	Sololá	717	San Juan la Laguna	12	San Juan la Laguna	4	Abril	2023-04-18T00:00:00	2024-11-08T02:00:00	7	Dirección del viento	1.61
48711	7	Sololá	717	San Juan la Laguna	12	San Juan la Laguna	4	Abril	2023-04-18T00:00:00	2024-11-08T02:00:00	1	Precipitación	0
48712	7	Sololá	717	San Juan la Laguna	12	San Juan la Laguna	4	Abril	2023-04-18T00:00:00	2024-11-08T02:00:00	8	Radiación solar	0
48713	7	Sololá	717	San Juan la Laguna	12	San Juan la Laguna	4	Abril	2023-04-18T00:00:00	2024-11-08T03:00:00	2	Temperatura media	15.3
48714	7	Sololá	717	San Juan la Laguna	12	San Juan la Laguna	4	Abril	2023-04-18T00:00:00	2024-11-08T03:00:00	4	Temperatura máxima	15.9
48715	7	Sololá	717	San Juan la Laguna	12	San Juan la Laguna	4	Abril	2023-04-18T00:00:00	2024-11-08T03:00:00	3	Temperatura mínima	15.1
48716	7	Sololá	717	San Juan la Laguna	12	San Juan la Laguna	4	Abril	2023-04-18T00:00:00	2024-11-08T03:00:00	5	Humedad	85
48717	7	Sololá	717	San Juan la Laguna	12	San Juan la Laguna	4	Abril	2023-04-18T00:00:00	2024-11-08T03:00:00	6	Velocidad del viento	1.6
48718	7	Sololá	717	San Juan la Laguna	12	San Juan la Laguna	4	Abril	2023-04-18T00:00:00	2024-11-08T03:00:00	7	Dirección del viento	1.61
48719	7	Sololá	717	San Juan la Laguna	12	San Juan la Laguna	4	Abril	2023-04-18T00:00:00	2024-11-08T03:00:00	1	Precipitación	0
48720	7	Sololá	717	San Juan la Laguna	12	San Juan la Laguna	4	Abril	2023-04-18T00:00:00	2024-11-08T03:00:00	8	Radiación solar	0
48721	7	Sololá	717	San Juan la Laguna	12	San Juan la Laguna	4	Abril	2023-04-18T00:00:00	2024-11-08T04:00:00	2	Temperatura media	15.3
48722	7	Sololá	717	San Juan la Laguna	12	San Juan la Laguna	4	Abril	2023-04-18T00:00:00	2024-11-08T04:00:00	4	Temperatura máxima	15.6
48723	7	Sololá	717	San Juan la Laguna	12	San Juan la Laguna	4	Abril	2023-04-18T00:00:00	2024-11-08T04:00:00	3	Temperatura mínima	14.9
48724	7	Sololá	717	San Juan la Laguna	12	San Juan la Laguna	4	Abril	2023-04-18T00:00:00	2024-11-08T04:00:00	5	Humedad	83
48725	7	Sololá	717	San Juan la Laguna	12	San Juan la Laguna	4	Abril	2023-04-18T00:00:00	2024-11-08T04:00:00	6	Velocidad del viento	1.6
48726	7	Sololá	717	San Juan la Laguna	12	San Juan la Laguna	4	Abril	2023-04-18T00:00:00	2024-11-08T04:00:00	7	Dirección del viento	1.61
48727	7	Sololá	717	San Juan la Laguna	12	San Juan la Laguna	4	Abril	2023-04-18T00:00:00	2024-11-08T04:00:00	1	Precipitación	0
48728	7	Sololá	717	San Juan la Laguna	12	San Juan la Laguna	4	Abril	2023-04-18T00:00:00	2024-11-08T04:00:00	8	Radiación solar	0
48729	7	Sololá	717	San Juan la Laguna	12	San Juan la Laguna	4	Abril	2023-04-18T00:00:00	2024-11-08T05:00:00	2	Temperatura media	15.5
48730	7	Sololá	717	San Juan la Laguna	12	San Juan la Laguna	4	Abril	2023-04-18T00:00:00	2024-11-08T05:00:00	4	Temperatura máxima	15.5
48731	7	Sololá	717	San Juan la Laguna	12	San Juan la Laguna	4	Abril	2023-04-18T00:00:00	2024-11-08T05:00:00	3	Temperatura mínima	14.7
48732	7	Sololá	717	San Juan la Laguna	12	San Juan la Laguna	4	Abril	2023-04-18T00:00:00	2024-11-08T05:00:00	5	Humedad	81
48733	7	Sololá	717	San Juan la Laguna	12	San Juan la Laguna	4	Abril	2023-04-18T00:00:00	2024-11-08T05:00:00	6	Velocidad del viento	1.6
48734	7	Sololá	717	San Juan la Laguna	12	San Juan la Laguna	4	Abril	2023-04-18T00:00:00	2024-11-08T05:00:00	7	Dirección del viento	1.61
48735	7	Sololá	717	San Juan la Laguna	12	San Juan la Laguna	4	Abril	2023-04-18T00:00:00	2024-11-08T05:00:00	1	Precipitación	0
48736	7	Sololá	717	San Juan la Laguna	12	San Juan la Laguna	4	Abril	2023-04-18T00:00:00	2024-11-08T05:00:00	8	Radiación solar	0
48737	7	Sololá	717	San Juan la Laguna	12	San Juan la Laguna	4	Abril	2023-04-18T00:00:00	2024-11-08T06:00:00	2	Temperatura media	14.3
48738	7	Sololá	717	San Juan la Laguna	12	San Juan la Laguna	4	Abril	2023-04-18T00:00:00	2024-11-08T06:00:00	4	Temperatura máxima	15.5
48739	7	Sololá	717	San Juan la Laguna	12	San Juan la Laguna	4	Abril	2023-04-18T00:00:00	2024-11-08T06:00:00	3	Temperatura mínima	14.1
48740	7	Sololá	717	San Juan la Laguna	12	San Juan la Laguna	4	Abril	2023-04-18T00:00:00	2024-11-08T06:00:00	5	Humedad	83
48741	7	Sololá	717	San Juan la Laguna	12	San Juan la Laguna	4	Abril	2023-04-18T00:00:00	2024-11-08T06:00:00	6	Velocidad del viento	3.2
48742	7	Sololá	717	San Juan la Laguna	12	San Juan la Laguna	4	Abril	2023-04-18T00:00:00	2024-11-08T06:00:00	7	Dirección del viento	3.22
48743	7	Sololá	717	San Juan la Laguna	12	San Juan la Laguna	4	Abril	2023-04-18T00:00:00	2024-11-08T06:00:00	1	Precipitación	0
48744	7	Sololá	717	San Juan la Laguna	12	San Juan la Laguna	4	Abril	2023-04-18T00:00:00	2024-11-08T06:00:00	8	Radiación solar	1
48745	7	Sololá	717	San Juan la Laguna	12	San Juan la Laguna	4	Abril	2023-04-18T00:00:00	2024-11-08T07:00:00	2	Temperatura media	16.3
48746	7	Sololá	717	San Juan la Laguna	12	San Juan la Laguna	4	Abril	2023-04-18T00:00:00	2024-11-08T07:00:00	4	Temperatura máxima	16.3
48747	7	Sololá	717	San Juan la Laguna	12	San Juan la Laguna	4	Abril	2023-04-18T00:00:00	2024-11-08T07:00:00	3	Temperatura mínima	14.3
48748	7	Sololá	717	San Juan la Laguna	12	San Juan la Laguna	4	Abril	2023-04-18T00:00:00	2024-11-08T07:00:00	5	Humedad	78
48749	7	Sololá	717	San Juan la Laguna	12	San Juan la Laguna	4	Abril	2023-04-18T00:00:00	2024-11-08T07:00:00	6	Velocidad del viento	1.6
48750	7	Sololá	717	San Juan la Laguna	12	San Juan la Laguna	4	Abril	2023-04-18T00:00:00	2024-11-08T07:00:00	7	Dirección del viento	1.61
48751	7	Sololá	717	San Juan la Laguna	12	San Juan la Laguna	4	Abril	2023-04-18T00:00:00	2024-11-08T07:00:00	1	Precipitación	0
48752	7	Sololá	717	San Juan la Laguna	12	San Juan la Laguna	4	Abril	2023-04-18T00:00:00	2024-11-08T07:00:00	8	Radiación solar	81
48753	7	Sololá	717	San Juan la Laguna	12	San Juan la Laguna	4	Abril	2023-04-18T00:00:00	2024-11-08T08:00:00	2	Temperatura media	20.6
48754	7	Sololá	717	San Juan la Laguna	12	San Juan la Laguna	4	Abril	2023-04-18T00:00:00	2024-11-08T08:00:00	4	Temperatura máxima	20.6
48755	7	Sololá	717	San Juan la Laguna	12	San Juan la Laguna	4	Abril	2023-04-18T00:00:00	2024-11-08T08:00:00	3	Temperatura mínima	16.3
48756	7	Sololá	717	San Juan la Laguna	12	San Juan la Laguna	4	Abril	2023-04-18T00:00:00	2024-11-08T08:00:00	5	Humedad	67
48757	7	Sololá	717	San Juan la Laguna	12	San Juan la Laguna	4	Abril	2023-04-18T00:00:00	2024-11-08T08:00:00	6	Velocidad del viento	0
48758	7	Sololá	717	San Juan la Laguna	12	San Juan la Laguna	4	Abril	2023-04-18T00:00:00	2024-11-08T08:00:00	7	Dirección del viento	0
48759	7	Sololá	717	San Juan la Laguna	12	San Juan la Laguna	4	Abril	2023-04-18T00:00:00	2024-11-08T08:00:00	1	Precipitación	0
48760	7	Sololá	717	San Juan la Laguna	12	San Juan la Laguna	4	Abril	2023-04-18T00:00:00	2024-11-08T08:00:00	8	Radiación solar	282
48761	7	Sololá	717	San Juan la Laguna	12	San Juan la Laguna	4	Abril	2023-04-18T00:00:00	2024-11-08T09:00:00	2	Temperatura media	21.1
48762	7	Sololá	717	San Juan la Laguna	12	San Juan la Laguna	4	Abril	2023-04-18T00:00:00	2024-11-08T09:00:00	4	Temperatura máxima	21.2
48763	7	Sololá	717	San Juan la Laguna	12	San Juan la Laguna	4	Abril	2023-04-18T00:00:00	2024-11-08T09:00:00	3	Temperatura mínima	20.6
48764	7	Sololá	717	San Juan la Laguna	12	San Juan la Laguna	4	Abril	2023-04-18T00:00:00	2024-11-08T09:00:00	5	Humedad	65
48765	7	Sololá	717	San Juan la Laguna	12	San Juan la Laguna	4	Abril	2023-04-18T00:00:00	2024-11-08T09:00:00	6	Velocidad del viento	1.6
48766	7	Sololá	717	San Juan la Laguna	12	San Juan la Laguna	4	Abril	2023-04-18T00:00:00	2024-11-08T09:00:00	7	Dirección del viento	1.61
48767	7	Sololá	717	San Juan la Laguna	12	San Juan la Laguna	4	Abril	2023-04-18T00:00:00	2024-11-08T09:00:00	1	Precipitación	0
48768	7	Sololá	717	San Juan la Laguna	12	San Juan la Laguna	4	Abril	2023-04-18T00:00:00	2024-11-08T09:00:00	8	Radiación solar	403
48769	7	Sololá	717	San Juan la Laguna	12	San Juan la Laguna	4	Abril	2023-04-18T00:00:00	2024-11-08T10:00:00	2	Temperatura media	21.8
48770	7	Sololá	717	San Juan la Laguna	12	San Juan la Laguna	4	Abril	2023-04-18T00:00:00	2024-11-08T10:00:00	4	Temperatura máxima	22.2
48771	7	Sololá	717	San Juan la Laguna	12	San Juan la Laguna	4	Abril	2023-04-18T00:00:00	2024-11-08T10:00:00	3	Temperatura mínima	21.1
48772	7	Sololá	717	San Juan la Laguna	12	San Juan la Laguna	4	Abril	2023-04-18T00:00:00	2024-11-08T10:00:00	5	Humedad	63
48773	7	Sololá	717	San Juan la Laguna	12	San Juan la Laguna	4	Abril	2023-04-18T00:00:00	2024-11-08T10:00:00	6	Velocidad del viento	1.6
48774	7	Sololá	717	San Juan la Laguna	12	San Juan la Laguna	4	Abril	2023-04-18T00:00:00	2024-11-08T10:00:00	7	Dirección del viento	1.61
48775	7	Sololá	717	San Juan la Laguna	12	San Juan la Laguna	4	Abril	2023-04-18T00:00:00	2024-11-08T10:00:00	1	Precipitación	0
48776	7	Sololá	717	San Juan la Laguna	12	San Juan la Laguna	4	Abril	2023-04-18T00:00:00	2024-11-08T10:00:00	8	Radiación solar	588
48777	7	Sololá	717	San Juan la Laguna	12	San Juan la Laguna	4	Abril	2023-04-18T00:00:00	2024-11-08T11:00:00	2	Temperatura media	23.4
48778	7	Sololá	717	San Juan la Laguna	12	San Juan la Laguna	4	Abril	2023-04-18T00:00:00	2024-11-08T11:00:00	4	Temperatura máxima	23.4
48779	7	Sololá	717	San Juan la Laguna	12	San Juan la Laguna	4	Abril	2023-04-18T00:00:00	2024-11-08T11:00:00	3	Temperatura mínima	21.8
48780	7	Sololá	717	San Juan la Laguna	12	San Juan la Laguna	4	Abril	2023-04-18T00:00:00	2024-11-08T11:00:00	5	Humedad	57
48781	7	Sololá	717	San Juan la Laguna	12	San Juan la Laguna	4	Abril	2023-04-18T00:00:00	2024-11-08T11:00:00	6	Velocidad del viento	1.6
48782	7	Sololá	717	San Juan la Laguna	12	San Juan la Laguna	4	Abril	2023-04-18T00:00:00	2024-11-08T11:00:00	7	Dirección del viento	1.61
48783	7	Sololá	717	San Juan la Laguna	12	San Juan la Laguna	4	Abril	2023-04-18T00:00:00	2024-11-08T11:00:00	1	Precipitación	0
48784	7	Sololá	717	San Juan la Laguna	12	San Juan la Laguna	4	Abril	2023-04-18T00:00:00	2024-11-08T11:00:00	8	Radiación solar	863
48785	7	Sololá	717	San Juan la Laguna	12	San Juan la Laguna	4	Abril	2023-04-18T00:00:00	2024-11-08T12:00:00	2	Temperatura media	22.4
48786	7	Sololá	717	San Juan la Laguna	12	San Juan la Laguna	4	Abril	2023-04-18T00:00:00	2024-11-08T12:00:00	4	Temperatura máxima	23.7
48787	7	Sololá	717	San Juan la Laguna	12	San Juan la Laguna	4	Abril	2023-04-18T00:00:00	2024-11-08T12:00:00	3	Temperatura mínima	22.2
48788	7	Sololá	717	San Juan la Laguna	12	San Juan la Laguna	4	Abril	2023-04-18T00:00:00	2024-11-08T12:00:00	5	Humedad	65
48789	7	Sololá	717	San Juan la Laguna	12	San Juan la Laguna	4	Abril	2023-04-18T00:00:00	2024-11-08T12:00:00	6	Velocidad del viento	6.4
48790	7	Sololá	717	San Juan la Laguna	12	San Juan la Laguna	4	Abril	2023-04-18T00:00:00	2024-11-08T12:00:00	7	Dirección del viento	6.44
48791	7	Sololá	717	San Juan la Laguna	12	San Juan la Laguna	4	Abril	2023-04-18T00:00:00	2024-11-08T12:00:00	1	Precipitación	0
48792	7	Sololá	717	San Juan la Laguna	12	San Juan la Laguna	4	Abril	2023-04-18T00:00:00	2024-11-08T12:00:00	8	Radiación solar	602
48793	7	Sololá	717	San Juan la Laguna	12	San Juan la Laguna	4	Abril	2023-04-18T00:00:00	2024-11-08T13:00:00	2	Temperatura media	21.9
48794	7	Sololá	717	San Juan la Laguna	12	San Juan la Laguna	4	Abril	2023-04-18T00:00:00	2024-11-08T13:00:00	4	Temperatura máxima	22.5
48795	7	Sololá	717	San Juan la Laguna	12	San Juan la Laguna	4	Abril	2023-04-18T00:00:00	2024-11-08T13:00:00	3	Temperatura mínima	21.6
48796	7	Sololá	717	San Juan la Laguna	12	San Juan la Laguna	4	Abril	2023-04-18T00:00:00	2024-11-08T13:00:00	5	Humedad	64
48797	7	Sololá	717	San Juan la Laguna	12	San Juan la Laguna	4	Abril	2023-04-18T00:00:00	2024-11-08T13:00:00	6	Velocidad del viento	6.4
48798	7	Sololá	717	San Juan la Laguna	12	San Juan la Laguna	4	Abril	2023-04-18T00:00:00	2024-11-08T13:00:00	7	Dirección del viento	6.44
48799	7	Sololá	717	San Juan la Laguna	12	San Juan la Laguna	4	Abril	2023-04-18T00:00:00	2024-11-08T13:00:00	1	Precipitación	0
48800	7	Sololá	717	San Juan la Laguna	12	San Juan la Laguna	4	Abril	2023-04-18T00:00:00	2024-11-08T13:00:00	8	Radiación solar	411
48801	7	Sololá	717	San Juan la Laguna	12	San Juan la Laguna	4	Abril	2023-04-18T00:00:00	2024-11-08T14:00:00	2	Temperatura media	22.4
48802	7	Sololá	717	San Juan la Laguna	12	San Juan la Laguna	4	Abril	2023-04-18T00:00:00	2024-11-08T14:00:00	4	Temperatura máxima	22.8
48803	7	Sololá	717	San Juan la Laguna	12	San Juan la Laguna	4	Abril	2023-04-18T00:00:00	2024-11-08T14:00:00	3	Temperatura mínima	21.9
48804	7	Sololá	717	San Juan la Laguna	12	San Juan la Laguna	4	Abril	2023-04-18T00:00:00	2024-11-08T14:00:00	5	Humedad	64
48805	7	Sololá	717	San Juan la Laguna	12	San Juan la Laguna	4	Abril	2023-04-18T00:00:00	2024-11-08T14:00:00	6	Velocidad del viento	6.4
48806	7	Sololá	717	San Juan la Laguna	12	San Juan la Laguna	4	Abril	2023-04-18T00:00:00	2024-11-08T14:00:00	7	Dirección del viento	6.44
48807	7	Sololá	717	San Juan la Laguna	12	San Juan la Laguna	4	Abril	2023-04-18T00:00:00	2024-11-08T14:00:00	1	Precipitación	0
48808	7	Sololá	717	San Juan la Laguna	12	San Juan la Laguna	4	Abril	2023-04-18T00:00:00	2024-11-08T14:00:00	8	Radiación solar	579
48809	7	Sololá	717	San Juan la Laguna	12	San Juan la Laguna	4	Abril	2023-04-18T00:00:00	2024-11-08T15:00:00	2	Temperatura media	22.3
48810	7	Sololá	717	San Juan la Laguna	12	San Juan la Laguna	4	Abril	2023-04-18T00:00:00	2024-11-08T15:00:00	4	Temperatura máxima	22.7
48811	7	Sololá	717	San Juan la Laguna	12	San Juan la Laguna	4	Abril	2023-04-18T00:00:00	2024-11-08T15:00:00	3	Temperatura mínima	21.2
48812	7	Sololá	717	San Juan la Laguna	12	San Juan la Laguna	4	Abril	2023-04-18T00:00:00	2024-11-08T15:00:00	5	Humedad	66
48813	7	Sololá	717	San Juan la Laguna	12	San Juan la Laguna	4	Abril	2023-04-18T00:00:00	2024-11-08T15:00:00	6	Velocidad del viento	6.4
48814	7	Sololá	717	San Juan la Laguna	12	San Juan la Laguna	4	Abril	2023-04-18T00:00:00	2024-11-08T15:00:00	7	Dirección del viento	6.44
48815	7	Sololá	717	San Juan la Laguna	12	San Juan la Laguna	4	Abril	2023-04-18T00:00:00	2024-11-08T15:00:00	1	Precipitación	0
48816	7	Sololá	717	San Juan la Laguna	12	San Juan la Laguna	4	Abril	2023-04-18T00:00:00	2024-11-08T15:00:00	8	Radiación solar	427
48817	7	Sololá	717	San Juan la Laguna	12	San Juan la Laguna	4	Abril	2023-04-18T00:00:00	2024-11-08T16:00:00	2	Temperatura media	22
48818	7	Sololá	717	San Juan la Laguna	12	San Juan la Laguna	4	Abril	2023-04-18T00:00:00	2024-11-08T16:00:00	4	Temperatura máxima	22.8
48819	7	Sololá	717	San Juan la Laguna	12	San Juan la Laguna	4	Abril	2023-04-18T00:00:00	2024-11-08T16:00:00	3	Temperatura mínima	22
48820	7	Sololá	717	San Juan la Laguna	12	San Juan la Laguna	4	Abril	2023-04-18T00:00:00	2024-11-08T16:00:00	5	Humedad	69
48821	7	Sololá	717	San Juan la Laguna	12	San Juan la Laguna	4	Abril	2023-04-18T00:00:00	2024-11-08T16:00:00	6	Velocidad del viento	4.8
48822	7	Sololá	717	San Juan la Laguna	12	San Juan la Laguna	4	Abril	2023-04-18T00:00:00	2024-11-08T16:00:00	7	Dirección del viento	4.83
48823	7	Sololá	717	San Juan la Laguna	12	San Juan la Laguna	4	Abril	2023-04-18T00:00:00	2024-11-08T16:00:00	1	Precipitación	0
48824	7	Sololá	717	San Juan la Laguna	12	San Juan la Laguna	4	Abril	2023-04-18T00:00:00	2024-11-08T16:00:00	8	Radiación solar	416
48825	7	Sololá	717	San Juan la Laguna	12	San Juan la Laguna	4	Abril	2023-04-18T00:00:00	2024-11-08T17:00:00	2	Temperatura media	20.8
48826	7	Sololá	717	San Juan la Laguna	12	San Juan la Laguna	4	Abril	2023-04-18T00:00:00	2024-11-08T17:00:00	4	Temperatura máxima	22.1
48827	7	Sololá	717	San Juan la Laguna	12	San Juan la Laguna	4	Abril	2023-04-18T00:00:00	2024-11-08T17:00:00	3	Temperatura mínima	20.8
48828	7	Sololá	717	San Juan la Laguna	12	San Juan la Laguna	4	Abril	2023-04-18T00:00:00	2024-11-08T17:00:00	5	Humedad	73
48829	7	Sololá	717	San Juan la Laguna	12	San Juan la Laguna	4	Abril	2023-04-18T00:00:00	2024-11-08T17:00:00	6	Velocidad del viento	1.6
48830	7	Sololá	717	San Juan la Laguna	12	San Juan la Laguna	4	Abril	2023-04-18T00:00:00	2024-11-08T17:00:00	7	Dirección del viento	1.61
48831	7	Sololá	717	San Juan la Laguna	12	San Juan la Laguna	4	Abril	2023-04-18T00:00:00	2024-11-08T17:00:00	1	Precipitación	0
48832	7	Sololá	717	San Juan la Laguna	12	San Juan la Laguna	4	Abril	2023-04-18T00:00:00	2024-11-08T17:00:00	8	Radiación solar	91
48833	7	Sololá	717	San Juan la Laguna	12	San Juan la Laguna	4	Abril	2023-04-18T00:00:00	2024-11-08T18:00:00	2	Temperatura media	20.2
48834	7	Sololá	717	San Juan la Laguna	12	San Juan la Laguna	4	Abril	2023-04-18T00:00:00	2024-11-08T18:00:00	4	Temperatura máxima	20.8
48835	7	Sololá	717	San Juan la Laguna	12	San Juan la Laguna	4	Abril	2023-04-18T00:00:00	2024-11-08T18:00:00	3	Temperatura mínima	20.2
48836	7	Sololá	717	San Juan la Laguna	12	San Juan la Laguna	4	Abril	2023-04-18T00:00:00	2024-11-08T18:00:00	5	Humedad	78
48837	7	Sololá	717	San Juan la Laguna	12	San Juan la Laguna	4	Abril	2023-04-18T00:00:00	2024-11-08T18:00:00	6	Velocidad del viento	0
48838	7	Sololá	717	San Juan la Laguna	12	San Juan la Laguna	4	Abril	2023-04-18T00:00:00	2024-11-08T18:00:00	7	Dirección del viento	0
48839	7	Sololá	717	San Juan la Laguna	12	San Juan la Laguna	4	Abril	2023-04-18T00:00:00	2024-11-08T18:00:00	1	Precipitación	0
48840	7	Sololá	717	San Juan la Laguna	12	San Juan la Laguna	4	Abril	2023-04-18T00:00:00	2024-11-08T18:00:00	8	Radiación solar	28
48841	7	Sololá	717	San Juan la Laguna	12	San Juan la Laguna	4	Abril	2023-04-18T00:00:00	2024-11-08T19:00:00	2	Temperatura media	19.8
48842	7	Sololá	717	San Juan la Laguna	12	San Juan la Laguna	4	Abril	2023-04-18T00:00:00	2024-11-08T19:00:00	4	Temperatura máxima	20.2
48843	7	Sololá	717	San Juan la Laguna	12	San Juan la Laguna	4	Abril	2023-04-18T00:00:00	2024-11-08T19:00:00	3	Temperatura mínima	19.8
48844	7	Sololá	717	San Juan la Laguna	12	San Juan la Laguna	4	Abril	2023-04-18T00:00:00	2024-11-08T19:00:00	5	Humedad	82
48845	7	Sololá	717	San Juan la Laguna	12	San Juan la Laguna	4	Abril	2023-04-18T00:00:00	2024-11-08T19:00:00	6	Velocidad del viento	0
48846	7	Sololá	717	San Juan la Laguna	12	San Juan la Laguna	4	Abril	2023-04-18T00:00:00	2024-11-08T19:00:00	7	Dirección del viento	0
48847	7	Sololá	717	San Juan la Laguna	12	San Juan la Laguna	4	Abril	2023-04-18T00:00:00	2024-11-08T19:00:00	1	Precipitación	0
48848	7	Sololá	717	San Juan la Laguna	12	San Juan la Laguna	4	Abril	2023-04-18T00:00:00	2024-11-08T19:00:00	8	Radiación solar	0
48849	7	Sololá	717	San Juan la Laguna	12	San Juan la Laguna	4	Abril	2023-04-18T00:00:00	2024-11-08T20:00:00	2	Temperatura media	19.6
48850	7	Sololá	717	San Juan la Laguna	12	San Juan la Laguna	4	Abril	2023-04-18T00:00:00	2024-11-08T20:00:00	4	Temperatura máxima	19.9
48851	7	Sololá	717	San Juan la Laguna	12	San Juan la Laguna	4	Abril	2023-04-18T00:00:00	2024-11-08T20:00:00	3	Temperatura mínima	19.6
48852	7	Sololá	717	San Juan la Laguna	12	San Juan la Laguna	4	Abril	2023-04-18T00:00:00	2024-11-08T20:00:00	5	Humedad	81
48853	7	Sololá	717	San Juan la Laguna	12	San Juan la Laguna	4	Abril	2023-04-18T00:00:00	2024-11-08T20:00:00	6	Velocidad del viento	0
48854	7	Sololá	717	San Juan la Laguna	12	San Juan la Laguna	4	Abril	2023-04-18T00:00:00	2024-11-08T20:00:00	7	Dirección del viento	0
48855	7	Sololá	717	San Juan la Laguna	12	San Juan la Laguna	4	Abril	2023-04-18T00:00:00	2024-11-08T20:00:00	1	Precipitación	0
48856	7	Sololá	717	San Juan la Laguna	12	San Juan la Laguna	4	Abril	2023-04-18T00:00:00	2024-11-08T20:00:00	8	Radiación solar	0
48857	7	Sololá	717	San Juan la Laguna	12	San Juan la Laguna	4	Abril	2023-04-18T00:00:00	2024-11-08T21:00:00	2	Temperatura media	18.8
48858	7	Sololá	717	San Juan la Laguna	12	San Juan la Laguna	4	Abril	2023-04-18T00:00:00	2024-11-08T21:00:00	4	Temperatura máxima	19.6
48859	7	Sololá	717	San Juan la Laguna	12	San Juan la Laguna	4	Abril	2023-04-18T00:00:00	2024-11-08T21:00:00	3	Temperatura mínima	18.8
48860	7	Sololá	717	San Juan la Laguna	12	San Juan la Laguna	4	Abril	2023-04-18T00:00:00	2024-11-08T21:00:00	5	Humedad	83
48861	7	Sololá	717	San Juan la Laguna	12	San Juan la Laguna	4	Abril	2023-04-18T00:00:00	2024-11-08T21:00:00	6	Velocidad del viento	0
48862	7	Sololá	717	San Juan la Laguna	12	San Juan la Laguna	4	Abril	2023-04-18T00:00:00	2024-11-08T21:00:00	7	Dirección del viento	0
48863	7	Sololá	717	San Juan la Laguna	12	San Juan la Laguna	4	Abril	2023-04-18T00:00:00	2024-11-08T21:00:00	1	Precipitación	0
48864	7	Sololá	717	San Juan la Laguna	12	San Juan la Laguna	4	Abril	2023-04-18T00:00:00	2024-11-08T21:00:00	8	Radiación solar	0
48865	7	Sololá	717	San Juan la Laguna	12	San Juan la Laguna	4	Abril	2023-04-18T00:00:00	2024-11-08T22:00:00	2	Temperatura media	18.5
48866	7	Sololá	717	San Juan la Laguna	12	San Juan la Laguna	4	Abril	2023-04-18T00:00:00	2024-11-08T22:00:00	4	Temperatura máxima	18.8
48867	7	Sololá	717	San Juan la Laguna	12	San Juan la Laguna	4	Abril	2023-04-18T00:00:00	2024-11-08T22:00:00	3	Temperatura mínima	18.4
48868	7	Sololá	717	San Juan la Laguna	12	San Juan la Laguna	4	Abril	2023-04-18T00:00:00	2024-11-08T22:00:00	5	Humedad	85
48869	7	Sololá	717	San Juan la Laguna	12	San Juan la Laguna	4	Abril	2023-04-18T00:00:00	2024-11-08T22:00:00	6	Velocidad del viento	0
48870	7	Sololá	717	San Juan la Laguna	12	San Juan la Laguna	4	Abril	2023-04-18T00:00:00	2024-11-08T22:00:00	7	Dirección del viento	0
48871	7	Sololá	717	San Juan la Laguna	12	San Juan la Laguna	4	Abril	2023-04-18T00:00:00	2024-11-08T22:00:00	1	Precipitación	0
48872	7	Sololá	717	San Juan la Laguna	12	San Juan la Laguna	4	Abril	2023-04-18T00:00:00	2024-11-08T22:00:00	8	Radiación solar	0
48873	7	Sololá	717	San Juan la Laguna	12	San Juan la Laguna	4	Abril	2023-04-18T00:00:00	2024-11-08T23:00:00	2	Temperatura media	17.3
48874	7	Sololá	717	San Juan la Laguna	12	San Juan la Laguna	4	Abril	2023-04-18T00:00:00	2024-11-08T23:00:00	4	Temperatura máxima	18.5
48875	7	Sololá	717	San Juan la Laguna	12	San Juan la Laguna	4	Abril	2023-04-18T00:00:00	2024-11-08T23:00:00	3	Temperatura mínima	17.3
48876	7	Sololá	717	San Juan la Laguna	12	San Juan la Laguna	4	Abril	2023-04-18T00:00:00	2024-11-08T23:00:00	5	Humedad	89
48877	7	Sololá	717	San Juan la Laguna	12	San Juan la Laguna	4	Abril	2023-04-18T00:00:00	2024-11-08T23:00:00	6	Velocidad del viento	0
48878	7	Sololá	717	San Juan la Laguna	12	San Juan la Laguna	4	Abril	2023-04-18T00:00:00	2024-11-08T23:00:00	7	Dirección del viento	0
48879	7	Sololá	717	San Juan la Laguna	12	San Juan la Laguna	4	Abril	2023-04-18T00:00:00	2024-11-08T23:00:00	1	Precipitación	0
48880	7	Sololá	717	San Juan la Laguna	12	San Juan la Laguna	4	Abril	2023-04-18T00:00:00	2024-11-08T23:00:00	8	Radiación solar	0
48881	7	Sololá	717	San Juan la Laguna	12	San Juan la Laguna	4	Abril	2023-04-19T00:00:00	2024-11-08T00:00:00	2	Temperatura media	16.3
48882	7	Sololá	717	San Juan la Laguna	12	San Juan la Laguna	4	Abril	2023-04-19T00:00:00	2024-11-08T00:00:00	4	Temperatura máxima	17.3
48883	7	Sololá	717	San Juan la Laguna	12	San Juan la Laguna	4	Abril	2023-04-19T00:00:00	2024-11-08T00:00:00	3	Temperatura mínima	16.3
48884	7	Sololá	717	San Juan la Laguna	12	San Juan la Laguna	4	Abril	2023-04-19T00:00:00	2024-11-08T00:00:00	5	Humedad	90
48885	7	Sololá	717	San Juan la Laguna	12	San Juan la Laguna	4	Abril	2023-04-19T00:00:00	2024-11-08T00:00:00	6	Velocidad del viento	0
48886	7	Sololá	717	San Juan la Laguna	12	San Juan la Laguna	4	Abril	2023-04-19T00:00:00	2024-11-08T00:00:00	7	Dirección del viento	0
48887	7	Sololá	717	San Juan la Laguna	12	San Juan la Laguna	4	Abril	2023-04-19T00:00:00	2024-11-08T00:00:00	1	Precipitación	0
48888	7	Sololá	717	San Juan la Laguna	12	San Juan la Laguna	4	Abril	2023-04-19T00:00:00	2024-11-08T00:00:00	8	Radiación solar	0
48889	7	Sololá	717	San Juan la Laguna	12	San Juan la Laguna	4	Abril	2023-04-19T00:00:00	2024-11-08T01:00:00	2	Temperatura media	16.7
48890	7	Sololá	717	San Juan la Laguna	12	San Juan la Laguna	4	Abril	2023-04-19T00:00:00	2024-11-08T01:00:00	4	Temperatura máxima	16.7
48891	7	Sololá	717	San Juan la Laguna	12	San Juan la Laguna	4	Abril	2023-04-19T00:00:00	2024-11-08T01:00:00	3	Temperatura mínima	16.2
48892	7	Sololá	717	San Juan la Laguna	12	San Juan la Laguna	4	Abril	2023-04-19T00:00:00	2024-11-08T01:00:00	5	Humedad	79
48893	7	Sololá	717	San Juan la Laguna	12	San Juan la Laguna	4	Abril	2023-04-19T00:00:00	2024-11-08T01:00:00	6	Velocidad del viento	1.6
48894	7	Sololá	717	San Juan la Laguna	12	San Juan la Laguna	4	Abril	2023-04-19T00:00:00	2024-11-08T01:00:00	7	Dirección del viento	1.61
48895	7	Sololá	717	San Juan la Laguna	12	San Juan la Laguna	4	Abril	2023-04-19T00:00:00	2024-11-08T01:00:00	1	Precipitación	0
48896	7	Sololá	717	San Juan la Laguna	12	San Juan la Laguna	4	Abril	2023-04-19T00:00:00	2024-11-08T01:00:00	8	Radiación solar	0
48897	7	Sololá	717	San Juan la Laguna	12	San Juan la Laguna	4	Abril	2023-04-19T00:00:00	2024-11-08T02:00:00	2	Temperatura media	15.2
48898	7	Sololá	717	San Juan la Laguna	12	San Juan la Laguna	4	Abril	2023-04-19T00:00:00	2024-11-08T02:00:00	4	Temperatura máxima	16.7
48899	7	Sololá	717	San Juan la Laguna	12	San Juan la Laguna	4	Abril	2023-04-19T00:00:00	2024-11-08T02:00:00	3	Temperatura mínima	15.2
48900	7	Sololá	717	San Juan la Laguna	12	San Juan la Laguna	4	Abril	2023-04-19T00:00:00	2024-11-08T02:00:00	5	Humedad	81
48901	7	Sololá	717	San Juan la Laguna	12	San Juan la Laguna	4	Abril	2023-04-19T00:00:00	2024-11-08T02:00:00	6	Velocidad del viento	0
48902	7	Sololá	717	San Juan la Laguna	12	San Juan la Laguna	4	Abril	2023-04-19T00:00:00	2024-11-08T02:00:00	7	Dirección del viento	0
48903	7	Sololá	717	San Juan la Laguna	12	San Juan la Laguna	4	Abril	2023-04-19T00:00:00	2024-11-08T02:00:00	1	Precipitación	0
48904	7	Sololá	717	San Juan la Laguna	12	San Juan la Laguna	4	Abril	2023-04-19T00:00:00	2024-11-08T02:00:00	8	Radiación solar	0
48905	7	Sololá	717	San Juan la Laguna	12	San Juan la Laguna	4	Abril	2023-04-19T00:00:00	2024-11-08T03:00:00	2	Temperatura media	15.3
48906	7	Sololá	717	San Juan la Laguna	12	San Juan la Laguna	4	Abril	2023-04-19T00:00:00	2024-11-08T03:00:00	4	Temperatura máxima	15.3
48907	7	Sololá	717	San Juan la Laguna	12	San Juan la Laguna	4	Abril	2023-04-19T00:00:00	2024-11-08T03:00:00	3	Temperatura mínima	15
48908	7	Sololá	717	San Juan la Laguna	12	San Juan la Laguna	4	Abril	2023-04-19T00:00:00	2024-11-08T03:00:00	5	Humedad	74
48909	7	Sololá	717	San Juan la Laguna	12	San Juan la Laguna	4	Abril	2023-04-19T00:00:00	2024-11-08T03:00:00	6	Velocidad del viento	3.2
48910	7	Sololá	717	San Juan la Laguna	12	San Juan la Laguna	4	Abril	2023-04-19T00:00:00	2024-11-08T03:00:00	7	Dirección del viento	3.22
48911	7	Sololá	717	San Juan la Laguna	12	San Juan la Laguna	4	Abril	2023-04-19T00:00:00	2024-11-08T03:00:00	1	Precipitación	0
48912	7	Sololá	717	San Juan la Laguna	12	San Juan la Laguna	4	Abril	2023-04-19T00:00:00	2024-11-08T03:00:00	8	Radiación solar	0
48913	7	Sololá	717	San Juan la Laguna	12	San Juan la Laguna	4	Abril	2023-04-19T00:00:00	2024-11-08T04:00:00	2	Temperatura media	14.5
48914	7	Sololá	717	San Juan la Laguna	12	San Juan la Laguna	4	Abril	2023-04-19T00:00:00	2024-11-08T04:00:00	4	Temperatura máxima	15.4
48915	7	Sololá	717	San Juan la Laguna	12	San Juan la Laguna	4	Abril	2023-04-19T00:00:00	2024-11-08T04:00:00	3	Temperatura mínima	14.3
48916	7	Sololá	717	San Juan la Laguna	12	San Juan la Laguna	4	Abril	2023-04-19T00:00:00	2024-11-08T04:00:00	5	Humedad	74
48917	7	Sololá	717	San Juan la Laguna	12	San Juan la Laguna	4	Abril	2023-04-19T00:00:00	2024-11-08T04:00:00	6	Velocidad del viento	1.6
48918	7	Sololá	717	San Juan la Laguna	12	San Juan la Laguna	4	Abril	2023-04-19T00:00:00	2024-11-08T04:00:00	7	Dirección del viento	1.61
48919	7	Sololá	717	San Juan la Laguna	12	San Juan la Laguna	4	Abril	2023-04-19T00:00:00	2024-11-08T04:00:00	1	Precipitación	0
48920	7	Sololá	717	San Juan la Laguna	12	San Juan la Laguna	4	Abril	2023-04-19T00:00:00	2024-11-08T04:00:00	8	Radiación solar	0
48921	7	Sololá	717	San Juan la Laguna	12	San Juan la Laguna	4	Abril	2023-04-19T00:00:00	2024-11-08T05:00:00	2	Temperatura media	13.8
48922	7	Sololá	717	San Juan la Laguna	12	San Juan la Laguna	4	Abril	2023-04-19T00:00:00	2024-11-08T05:00:00	4	Temperatura máxima	14.5
48923	7	Sololá	717	San Juan la Laguna	12	San Juan la Laguna	4	Abril	2023-04-19T00:00:00	2024-11-08T05:00:00	3	Temperatura mínima	13.8
48924	7	Sololá	717	San Juan la Laguna	12	San Juan la Laguna	4	Abril	2023-04-19T00:00:00	2024-11-08T05:00:00	5	Humedad	76
48925	7	Sololá	717	San Juan la Laguna	12	San Juan la Laguna	4	Abril	2023-04-19T00:00:00	2024-11-08T05:00:00	6	Velocidad del viento	1.6
48926	7	Sololá	717	San Juan la Laguna	12	San Juan la Laguna	4	Abril	2023-04-19T00:00:00	2024-11-08T05:00:00	7	Dirección del viento	1.61
48927	7	Sololá	717	San Juan la Laguna	12	San Juan la Laguna	4	Abril	2023-04-19T00:00:00	2024-11-08T05:00:00	1	Precipitación	0
48928	7	Sololá	717	San Juan la Laguna	12	San Juan la Laguna	4	Abril	2023-04-19T00:00:00	2024-11-08T05:00:00	8	Radiación solar	0
48929	7	Sololá	717	San Juan la Laguna	12	San Juan la Laguna	4	Abril	2023-04-19T00:00:00	2024-11-08T06:00:00	2	Temperatura media	13.8
48930	7	Sololá	717	San Juan la Laguna	12	San Juan la Laguna	4	Abril	2023-04-19T00:00:00	2024-11-08T06:00:00	4	Temperatura máxima	13.8
48931	7	Sololá	717	San Juan la Laguna	12	San Juan la Laguna	4	Abril	2023-04-19T00:00:00	2024-11-08T06:00:00	3	Temperatura mínima	13.4
48932	7	Sololá	717	San Juan la Laguna	12	San Juan la Laguna	4	Abril	2023-04-19T00:00:00	2024-11-08T06:00:00	5	Humedad	71
48933	7	Sololá	717	San Juan la Laguna	12	San Juan la Laguna	4	Abril	2023-04-19T00:00:00	2024-11-08T06:00:00	6	Velocidad del viento	3.2
48934	7	Sololá	717	San Juan la Laguna	12	San Juan la Laguna	4	Abril	2023-04-19T00:00:00	2024-11-08T06:00:00	7	Dirección del viento	3.22
48935	7	Sololá	717	San Juan la Laguna	12	San Juan la Laguna	4	Abril	2023-04-19T00:00:00	2024-11-08T06:00:00	1	Precipitación	0
48936	7	Sololá	717	San Juan la Laguna	12	San Juan la Laguna	4	Abril	2023-04-19T00:00:00	2024-11-08T06:00:00	8	Radiación solar	1
48937	7	Sololá	717	San Juan la Laguna	12	San Juan la Laguna	4	Abril	2023-04-19T00:00:00	2024-11-08T07:00:00	2	Temperatura media	15.9
48938	7	Sololá	717	San Juan la Laguna	12	San Juan la Laguna	4	Abril	2023-04-19T00:00:00	2024-11-08T07:00:00	4	Temperatura máxima	15.9
48939	7	Sololá	717	San Juan la Laguna	12	San Juan la Laguna	4	Abril	2023-04-19T00:00:00	2024-11-08T07:00:00	3	Temperatura mínima	13.8
48940	7	Sololá	717	San Juan la Laguna	12	San Juan la Laguna	4	Abril	2023-04-19T00:00:00	2024-11-08T07:00:00	5	Humedad	68
48941	7	Sololá	717	San Juan la Laguna	12	San Juan la Laguna	4	Abril	2023-04-19T00:00:00	2024-11-08T07:00:00	6	Velocidad del viento	0
48942	7	Sololá	717	San Juan la Laguna	12	San Juan la Laguna	4	Abril	2023-04-19T00:00:00	2024-11-08T07:00:00	7	Dirección del viento	0
48943	7	Sololá	717	San Juan la Laguna	12	San Juan la Laguna	4	Abril	2023-04-19T00:00:00	2024-11-08T07:00:00	1	Precipitación	0
48944	7	Sololá	717	San Juan la Laguna	12	San Juan la Laguna	4	Abril	2023-04-19T00:00:00	2024-11-08T07:00:00	8	Radiación solar	85
48945	7	Sololá	717	San Juan la Laguna	12	San Juan la Laguna	4	Abril	2023-04-19T00:00:00	2024-11-08T08:00:00	2	Temperatura media	20.6
48946	7	Sololá	717	San Juan la Laguna	12	San Juan la Laguna	4	Abril	2023-04-19T00:00:00	2024-11-08T08:00:00	4	Temperatura máxima	20.6
48947	7	Sololá	717	San Juan la Laguna	12	San Juan la Laguna	4	Abril	2023-04-19T00:00:00	2024-11-08T08:00:00	3	Temperatura mínima	15.9
48948	7	Sololá	717	San Juan la Laguna	12	San Juan la Laguna	4	Abril	2023-04-19T00:00:00	2024-11-08T08:00:00	5	Humedad	63
48949	7	Sololá	717	San Juan la Laguna	12	San Juan la Laguna	4	Abril	2023-04-19T00:00:00	2024-11-08T08:00:00	6	Velocidad del viento	0
48950	7	Sololá	717	San Juan la Laguna	12	San Juan la Laguna	4	Abril	2023-04-19T00:00:00	2024-11-08T08:00:00	7	Dirección del viento	0
48951	7	Sololá	717	San Juan la Laguna	12	San Juan la Laguna	4	Abril	2023-04-19T00:00:00	2024-11-08T08:00:00	1	Precipitación	0
48952	7	Sololá	717	San Juan la Laguna	12	San Juan la Laguna	4	Abril	2023-04-19T00:00:00	2024-11-08T08:00:00	8	Radiación solar	298
48953	7	Sololá	717	San Juan la Laguna	12	San Juan la Laguna	4	Abril	2023-04-19T00:00:00	2024-11-08T09:00:00	2	Temperatura media	20.8
48954	7	Sololá	717	San Juan la Laguna	12	San Juan la Laguna	4	Abril	2023-04-19T00:00:00	2024-11-08T09:00:00	4	Temperatura máxima	20.8
48955	7	Sololá	717	San Juan la Laguna	12	San Juan la Laguna	4	Abril	2023-04-19T00:00:00	2024-11-08T09:00:00	3	Temperatura mínima	20.1
48956	7	Sololá	717	San Juan la Laguna	12	San Juan la Laguna	4	Abril	2023-04-19T00:00:00	2024-11-08T09:00:00	5	Humedad	64
48957	7	Sololá	717	San Juan la Laguna	12	San Juan la Laguna	4	Abril	2023-04-19T00:00:00	2024-11-08T09:00:00	6	Velocidad del viento	1.6
48958	7	Sololá	717	San Juan la Laguna	12	San Juan la Laguna	4	Abril	2023-04-19T00:00:00	2024-11-08T09:00:00	7	Dirección del viento	1.61
48959	7	Sololá	717	San Juan la Laguna	12	San Juan la Laguna	4	Abril	2023-04-19T00:00:00	2024-11-08T09:00:00	1	Precipitación	0
48960	7	Sololá	717	San Juan la Laguna	12	San Juan la Laguna	4	Abril	2023-04-19T00:00:00	2024-11-08T09:00:00	8	Radiación solar	416
48961	7	Sololá	717	San Juan la Laguna	12	San Juan la Laguna	4	Abril	2023-04-19T00:00:00	2024-11-08T10:00:00	2	Temperatura media	23.4
48962	7	Sololá	717	San Juan la Laguna	12	San Juan la Laguna	4	Abril	2023-04-19T00:00:00	2024-11-08T10:00:00	4	Temperatura máxima	23.4
48963	7	Sololá	717	San Juan la Laguna	12	San Juan la Laguna	4	Abril	2023-04-19T00:00:00	2024-11-08T10:00:00	3	Temperatura mínima	20.7
48964	7	Sololá	717	San Juan la Laguna	12	San Juan la Laguna	4	Abril	2023-04-19T00:00:00	2024-11-08T10:00:00	5	Humedad	49
48965	7	Sololá	717	San Juan la Laguna	12	San Juan la Laguna	4	Abril	2023-04-19T00:00:00	2024-11-08T10:00:00	6	Velocidad del viento	1.6
48966	7	Sololá	717	San Juan la Laguna	12	San Juan la Laguna	4	Abril	2023-04-19T00:00:00	2024-11-08T10:00:00	7	Dirección del viento	1.61
48967	7	Sololá	717	San Juan la Laguna	12	San Juan la Laguna	4	Abril	2023-04-19T00:00:00	2024-11-08T10:00:00	1	Precipitación	0
48968	7	Sololá	717	San Juan la Laguna	12	San Juan la Laguna	4	Abril	2023-04-19T00:00:00	2024-11-08T10:00:00	8	Radiación solar	597
48969	7	Sololá	717	San Juan la Laguna	12	San Juan la Laguna	4	Abril	2023-04-19T00:00:00	2024-11-08T11:00:00	2	Temperatura media	23.5
48970	7	Sololá	717	San Juan la Laguna	12	San Juan la Laguna	4	Abril	2023-04-19T00:00:00	2024-11-08T11:00:00	4	Temperatura máxima	24.2
48971	7	Sololá	717	San Juan la Laguna	12	San Juan la Laguna	4	Abril	2023-04-19T00:00:00	2024-11-08T11:00:00	3	Temperatura mínima	23.3
48972	7	Sololá	717	San Juan la Laguna	12	San Juan la Laguna	4	Abril	2023-04-19T00:00:00	2024-11-08T11:00:00	5	Humedad	57
48973	7	Sololá	717	San Juan la Laguna	12	San Juan la Laguna	4	Abril	2023-04-19T00:00:00	2024-11-08T11:00:00	6	Velocidad del viento	1.6
48974	7	Sololá	717	San Juan la Laguna	12	San Juan la Laguna	4	Abril	2023-04-19T00:00:00	2024-11-08T11:00:00	7	Dirección del viento	1.61
48975	7	Sololá	717	San Juan la Laguna	12	San Juan la Laguna	4	Abril	2023-04-19T00:00:00	2024-11-08T11:00:00	1	Precipitación	0
48976	7	Sololá	717	San Juan la Laguna	12	San Juan la Laguna	4	Abril	2023-04-19T00:00:00	2024-11-08T11:00:00	8	Radiación solar	859
48977	7	Sololá	717	San Juan la Laguna	12	San Juan la Laguna	4	Abril	2023-04-19T00:00:00	2024-11-08T12:00:00	2	Temperatura media	24.4
48978	7	Sololá	717	San Juan la Laguna	12	San Juan la Laguna	4	Abril	2023-04-19T00:00:00	2024-11-08T12:00:00	4	Temperatura máxima	24.4
48979	7	Sololá	717	San Juan la Laguna	12	San Juan la Laguna	4	Abril	2023-04-19T00:00:00	2024-11-08T12:00:00	3	Temperatura mínima	23.5
48980	7	Sololá	717	San Juan la Laguna	12	San Juan la Laguna	4	Abril	2023-04-19T00:00:00	2024-11-08T12:00:00	5	Humedad	59
48981	7	Sololá	717	San Juan la Laguna	12	San Juan la Laguna	4	Abril	2023-04-19T00:00:00	2024-11-08T12:00:00	6	Velocidad del viento	1.6
48982	7	Sololá	717	San Juan la Laguna	12	San Juan la Laguna	4	Abril	2023-04-19T00:00:00	2024-11-08T12:00:00	7	Dirección del viento	1.61
48983	7	Sololá	717	San Juan la Laguna	12	San Juan la Laguna	4	Abril	2023-04-19T00:00:00	2024-11-08T12:00:00	1	Precipitación	0
48984	7	Sololá	717	San Juan la Laguna	12	San Juan la Laguna	4	Abril	2023-04-19T00:00:00	2024-11-08T12:00:00	8	Radiación solar	952
48985	7	Sololá	717	San Juan la Laguna	12	San Juan la Laguna	4	Abril	2023-04-19T00:00:00	2024-11-08T13:00:00	2	Temperatura media	23.7
48986	7	Sololá	717	San Juan la Laguna	12	San Juan la Laguna	4	Abril	2023-04-19T00:00:00	2024-11-08T13:00:00	4	Temperatura máxima	24.9
48987	7	Sololá	717	San Juan la Laguna	12	San Juan la Laguna	4	Abril	2023-04-19T00:00:00	2024-11-08T13:00:00	3	Temperatura mínima	23.7
48988	7	Sololá	717	San Juan la Laguna	12	San Juan la Laguna	4	Abril	2023-04-19T00:00:00	2024-11-08T13:00:00	5	Humedad	63
48989	7	Sololá	717	San Juan la Laguna	12	San Juan la Laguna	4	Abril	2023-04-19T00:00:00	2024-11-08T13:00:00	6	Velocidad del viento	4.8
48990	7	Sololá	717	San Juan la Laguna	12	San Juan la Laguna	4	Abril	2023-04-19T00:00:00	2024-11-08T13:00:00	7	Dirección del viento	4.83
48991	7	Sololá	717	San Juan la Laguna	12	San Juan la Laguna	4	Abril	2023-04-19T00:00:00	2024-11-08T13:00:00	1	Precipitación	0
48992	7	Sololá	717	San Juan la Laguna	12	San Juan la Laguna	4	Abril	2023-04-19T00:00:00	2024-11-08T13:00:00	8	Radiación solar	990
48993	7	Sololá	717	San Juan la Laguna	12	San Juan la Laguna	4	Abril	2023-04-19T00:00:00	2024-11-08T14:00:00	2	Temperatura media	24.4
48994	7	Sololá	717	San Juan la Laguna	12	San Juan la Laguna	4	Abril	2023-04-19T00:00:00	2024-11-08T14:00:00	4	Temperatura máxima	24.6
48995	7	Sololá	717	San Juan la Laguna	12	San Juan la Laguna	4	Abril	2023-04-19T00:00:00	2024-11-08T14:00:00	3	Temperatura mínima	23.6
48996	7	Sololá	717	San Juan la Laguna	12	San Juan la Laguna	4	Abril	2023-04-19T00:00:00	2024-11-08T14:00:00	5	Humedad	63
48997	7	Sololá	717	San Juan la Laguna	12	San Juan la Laguna	4	Abril	2023-04-19T00:00:00	2024-11-08T14:00:00	6	Velocidad del viento	6.4
48998	7	Sololá	717	San Juan la Laguna	12	San Juan la Laguna	4	Abril	2023-04-19T00:00:00	2024-11-08T14:00:00	7	Dirección del viento	6.44
48999	7	Sololá	717	San Juan la Laguna	12	San Juan la Laguna	4	Abril	2023-04-19T00:00:00	2024-11-08T14:00:00	1	Precipitación	0
49000	7	Sololá	717	San Juan la Laguna	12	San Juan la Laguna	4	Abril	2023-04-19T00:00:00	2024-11-08T14:00:00	8	Radiación solar	896
49001	7	Sololá	717	San Juan la Laguna	12	San Juan la Laguna	4	Abril	2023-04-19T00:00:00	2024-11-08T15:00:00	2	Temperatura media	23.1
49002	7	Sololá	717	San Juan la Laguna	12	San Juan la Laguna	4	Abril	2023-04-19T00:00:00	2024-11-08T15:00:00	4	Temperatura máxima	24.4
49003	7	Sololá	717	San Juan la Laguna	12	San Juan la Laguna	4	Abril	2023-04-19T00:00:00	2024-11-08T15:00:00	3	Temperatura mínima	22.8
49004	7	Sololá	717	San Juan la Laguna	12	San Juan la Laguna	4	Abril	2023-04-19T00:00:00	2024-11-08T15:00:00	5	Humedad	70
49005	7	Sololá	717	San Juan la Laguna	12	San Juan la Laguna	4	Abril	2023-04-19T00:00:00	2024-11-08T15:00:00	6	Velocidad del viento	8
49006	7	Sololá	717	San Juan la Laguna	12	San Juan la Laguna	4	Abril	2023-04-19T00:00:00	2024-11-08T15:00:00	7	Dirección del viento	8.05
49007	7	Sololá	717	San Juan la Laguna	12	San Juan la Laguna	4	Abril	2023-04-19T00:00:00	2024-11-08T15:00:00	1	Precipitación	0
49008	7	Sololá	717	San Juan la Laguna	12	San Juan la Laguna	4	Abril	2023-04-19T00:00:00	2024-11-08T15:00:00	8	Radiación solar	772
49009	7	Sololá	717	San Juan la Laguna	12	San Juan la Laguna	4	Abril	2023-04-19T00:00:00	2024-11-08T16:00:00	2	Temperatura media	22.8
49010	7	Sololá	717	San Juan la Laguna	12	San Juan la Laguna	4	Abril	2023-04-19T00:00:00	2024-11-08T16:00:00	4	Temperatura máxima	23.3
49011	7	Sololá	717	San Juan la Laguna	12	San Juan la Laguna	4	Abril	2023-04-19T00:00:00	2024-11-08T16:00:00	3	Temperatura mínima	22.1
49012	7	Sololá	717	San Juan la Laguna	12	San Juan la Laguna	4	Abril	2023-04-19T00:00:00	2024-11-08T16:00:00	5	Humedad	69
49013	7	Sololá	717	San Juan la Laguna	12	San Juan la Laguna	4	Abril	2023-04-19T00:00:00	2024-11-08T16:00:00	6	Velocidad del viento	6.4
49014	7	Sololá	717	San Juan la Laguna	12	San Juan la Laguna	4	Abril	2023-04-19T00:00:00	2024-11-08T16:00:00	7	Dirección del viento	6.44
49015	7	Sololá	717	San Juan la Laguna	12	San Juan la Laguna	4	Abril	2023-04-19T00:00:00	2024-11-08T16:00:00	1	Precipitación	0
49016	7	Sololá	717	San Juan la Laguna	12	San Juan la Laguna	4	Abril	2023-04-19T00:00:00	2024-11-08T16:00:00	8	Radiación solar	522
49017	7	Sololá	717	San Juan la Laguna	12	San Juan la Laguna	4	Abril	2023-04-19T00:00:00	2024-11-08T17:00:00	2	Temperatura media	21.9
49018	7	Sololá	717	San Juan la Laguna	12	San Juan la Laguna	4	Abril	2023-04-19T00:00:00	2024-11-08T17:00:00	4	Temperatura máxima	23.4
49019	7	Sololá	717	San Juan la Laguna	12	San Juan la Laguna	4	Abril	2023-04-19T00:00:00	2024-11-08T17:00:00	3	Temperatura mínima	21.9
49020	7	Sololá	717	San Juan la Laguna	12	San Juan la Laguna	4	Abril	2023-04-19T00:00:00	2024-11-08T17:00:00	5	Humedad	74
49021	7	Sololá	717	San Juan la Laguna	12	San Juan la Laguna	4	Abril	2023-04-19T00:00:00	2024-11-08T17:00:00	6	Velocidad del viento	1.6
49022	7	Sololá	717	San Juan la Laguna	12	San Juan la Laguna	4	Abril	2023-04-19T00:00:00	2024-11-08T17:00:00	7	Dirección del viento	1.61
49023	7	Sololá	717	San Juan la Laguna	12	San Juan la Laguna	4	Abril	2023-04-19T00:00:00	2024-11-08T17:00:00	1	Precipitación	0
49024	7	Sololá	717	San Juan la Laguna	12	San Juan la Laguna	4	Abril	2023-04-19T00:00:00	2024-11-08T17:00:00	8	Radiación solar	230
49025	7	Sololá	717	San Juan la Laguna	12	San Juan la Laguna	4	Abril	2023-04-19T00:00:00	2024-11-08T18:00:00	2	Temperatura media	21.4
49026	7	Sololá	717	San Juan la Laguna	12	San Juan la Laguna	4	Abril	2023-04-19T00:00:00	2024-11-08T18:00:00	4	Temperatura máxima	21.9
49027	7	Sololá	717	San Juan la Laguna	12	San Juan la Laguna	4	Abril	2023-04-19T00:00:00	2024-11-08T18:00:00	3	Temperatura mínima	21.4
49028	7	Sololá	717	San Juan la Laguna	12	San Juan la Laguna	4	Abril	2023-04-19T00:00:00	2024-11-08T18:00:00	5	Humedad	75
49029	7	Sololá	717	San Juan la Laguna	12	San Juan la Laguna	4	Abril	2023-04-19T00:00:00	2024-11-08T18:00:00	6	Velocidad del viento	0
49030	7	Sololá	717	San Juan la Laguna	12	San Juan la Laguna	4	Abril	2023-04-19T00:00:00	2024-11-08T18:00:00	7	Dirección del viento	0
49031	7	Sololá	717	San Juan la Laguna	12	San Juan la Laguna	4	Abril	2023-04-19T00:00:00	2024-11-08T18:00:00	1	Precipitación	0
49032	7	Sololá	717	San Juan la Laguna	12	San Juan la Laguna	4	Abril	2023-04-19T00:00:00	2024-11-08T18:00:00	8	Radiación solar	43
49033	7	Sololá	717	San Juan la Laguna	12	San Juan la Laguna	4	Abril	2023-04-19T00:00:00	2024-11-08T19:00:00	2	Temperatura media	19.7
49034	7	Sololá	717	San Juan la Laguna	12	San Juan la Laguna	4	Abril	2023-04-19T00:00:00	2024-11-08T19:00:00	4	Temperatura máxima	21.4
49035	7	Sololá	717	San Juan la Laguna	12	San Juan la Laguna	4	Abril	2023-04-19T00:00:00	2024-11-08T19:00:00	3	Temperatura mínima	19.6
49036	7	Sololá	717	San Juan la Laguna	12	San Juan la Laguna	4	Abril	2023-04-19T00:00:00	2024-11-08T19:00:00	5	Humedad	84
49037	7	Sololá	717	San Juan la Laguna	12	San Juan la Laguna	4	Abril	2023-04-19T00:00:00	2024-11-08T19:00:00	6	Velocidad del viento	3.2
49038	7	Sololá	717	San Juan la Laguna	12	San Juan la Laguna	4	Abril	2023-04-19T00:00:00	2024-11-08T19:00:00	7	Dirección del viento	3.22
49039	7	Sololá	717	San Juan la Laguna	12	San Juan la Laguna	4	Abril	2023-04-19T00:00:00	2024-11-08T19:00:00	1	Precipitación	0
49040	7	Sololá	717	San Juan la Laguna	12	San Juan la Laguna	4	Abril	2023-04-19T00:00:00	2024-11-08T19:00:00	8	Radiación solar	0
49041	7	Sololá	717	San Juan la Laguna	12	San Juan la Laguna	4	Abril	2023-04-19T00:00:00	2024-11-08T20:00:00	2	Temperatura media	20
49042	7	Sololá	717	San Juan la Laguna	12	San Juan la Laguna	4	Abril	2023-04-19T00:00:00	2024-11-08T20:00:00	4	Temperatura máxima	20
49043	7	Sololá	717	San Juan la Laguna	12	San Juan la Laguna	4	Abril	2023-04-19T00:00:00	2024-11-08T20:00:00	3	Temperatura mínima	19.7
49044	7	Sololá	717	San Juan la Laguna	12	San Juan la Laguna	4	Abril	2023-04-19T00:00:00	2024-11-08T20:00:00	5	Humedad	82
49045	7	Sololá	717	San Juan la Laguna	12	San Juan la Laguna	4	Abril	2023-04-19T00:00:00	2024-11-08T20:00:00	6	Velocidad del viento	1.6
49046	7	Sololá	717	San Juan la Laguna	12	San Juan la Laguna	4	Abril	2023-04-19T00:00:00	2024-11-08T20:00:00	7	Dirección del viento	1.61
49047	7	Sololá	717	San Juan la Laguna	12	San Juan la Laguna	4	Abril	2023-04-19T00:00:00	2024-11-08T20:00:00	1	Precipitación	0
49048	7	Sololá	717	San Juan la Laguna	12	San Juan la Laguna	4	Abril	2023-04-19T00:00:00	2024-11-08T20:00:00	8	Radiación solar	0
49049	7	Sololá	717	San Juan la Laguna	12	San Juan la Laguna	4	Abril	2023-04-19T00:00:00	2024-11-08T21:00:00	2	Temperatura media	19.8
49050	7	Sololá	717	San Juan la Laguna	12	San Juan la Laguna	4	Abril	2023-04-19T00:00:00	2024-11-08T21:00:00	4	Temperatura máxima	20.1
49051	7	Sololá	717	San Juan la Laguna	12	San Juan la Laguna	4	Abril	2023-04-19T00:00:00	2024-11-08T21:00:00	3	Temperatura mínima	19.8
49052	7	Sololá	717	San Juan la Laguna	12	San Juan la Laguna	4	Abril	2023-04-19T00:00:00	2024-11-08T21:00:00	5	Humedad	86
49053	7	Sololá	717	San Juan la Laguna	12	San Juan la Laguna	4	Abril	2023-04-19T00:00:00	2024-11-08T21:00:00	6	Velocidad del viento	0
49054	7	Sololá	717	San Juan la Laguna	12	San Juan la Laguna	4	Abril	2023-04-19T00:00:00	2024-11-08T21:00:00	7	Dirección del viento	0
49055	7	Sololá	717	San Juan la Laguna	12	San Juan la Laguna	4	Abril	2023-04-19T00:00:00	2024-11-08T21:00:00	1	Precipitación	0
49056	7	Sololá	717	San Juan la Laguna	12	San Juan la Laguna	4	Abril	2023-04-19T00:00:00	2024-11-08T21:00:00	8	Radiación solar	0
49057	7	Sololá	717	San Juan la Laguna	12	San Juan la Laguna	4	Abril	2023-04-19T00:00:00	2024-11-08T22:00:00	2	Temperatura media	19.6
49058	7	Sololá	717	San Juan la Laguna	12	San Juan la Laguna	4	Abril	2023-04-19T00:00:00	2024-11-08T22:00:00	4	Temperatura máxima	19.8
49059	7	Sololá	717	San Juan la Laguna	12	San Juan la Laguna	4	Abril	2023-04-19T00:00:00	2024-11-08T22:00:00	3	Temperatura mínima	19.6
49060	7	Sololá	717	San Juan la Laguna	12	San Juan la Laguna	4	Abril	2023-04-19T00:00:00	2024-11-08T22:00:00	5	Humedad	86
49061	7	Sololá	717	San Juan la Laguna	12	San Juan la Laguna	4	Abril	2023-04-19T00:00:00	2024-11-08T22:00:00	6	Velocidad del viento	0
49062	7	Sololá	717	San Juan la Laguna	12	San Juan la Laguna	4	Abril	2023-04-19T00:00:00	2024-11-08T22:00:00	7	Dirección del viento	0
49063	7	Sololá	717	San Juan la Laguna	12	San Juan la Laguna	4	Abril	2023-04-19T00:00:00	2024-11-08T22:00:00	1	Precipitación	0
49064	7	Sololá	717	San Juan la Laguna	12	San Juan la Laguna	4	Abril	2023-04-19T00:00:00	2024-11-08T22:00:00	8	Radiación solar	0
49065	7	Sololá	717	San Juan la Laguna	12	San Juan la Laguna	4	Abril	2023-04-19T00:00:00	2024-11-08T23:00:00	2	Temperatura media	19.3
49066	7	Sololá	717	San Juan la Laguna	12	San Juan la Laguna	4	Abril	2023-04-19T00:00:00	2024-11-08T23:00:00	4	Temperatura máxima	19.6
49067	7	Sololá	717	San Juan la Laguna	12	San Juan la Laguna	4	Abril	2023-04-19T00:00:00	2024-11-08T23:00:00	3	Temperatura mínima	19.2
49068	7	Sololá	717	San Juan la Laguna	12	San Juan la Laguna	4	Abril	2023-04-19T00:00:00	2024-11-08T23:00:00	5	Humedad	86
49069	7	Sololá	717	San Juan la Laguna	12	San Juan la Laguna	4	Abril	2023-04-19T00:00:00	2024-11-08T23:00:00	6	Velocidad del viento	0
49070	7	Sololá	717	San Juan la Laguna	12	San Juan la Laguna	4	Abril	2023-04-19T00:00:00	2024-11-08T23:00:00	7	Dirección del viento	0
49071	7	Sololá	717	San Juan la Laguna	12	San Juan la Laguna	4	Abril	2023-04-19T00:00:00	2024-11-08T23:00:00	1	Precipitación	0
49072	7	Sololá	717	San Juan la Laguna	12	San Juan la Laguna	4	Abril	2023-04-19T00:00:00	2024-11-08T23:00:00	8	Radiación solar	0
49073	7	Sololá	717	San Juan la Laguna	12	San Juan la Laguna	4	Abril	2023-04-20T00:00:00	2024-11-08T00:00:00	2	Temperatura media	18.4
49074	7	Sololá	717	San Juan la Laguna	12	San Juan la Laguna	4	Abril	2023-04-20T00:00:00	2024-11-08T00:00:00	4	Temperatura máxima	19.3
49075	7	Sololá	717	San Juan la Laguna	12	San Juan la Laguna	4	Abril	2023-04-20T00:00:00	2024-11-08T00:00:00	3	Temperatura mínima	18.4
49076	7	Sololá	717	San Juan la Laguna	12	San Juan la Laguna	4	Abril	2023-04-20T00:00:00	2024-11-08T00:00:00	5	Humedad	89
49077	7	Sololá	717	San Juan la Laguna	12	San Juan la Laguna	4	Abril	2023-04-20T00:00:00	2024-11-08T00:00:00	6	Velocidad del viento	0
49078	7	Sololá	717	San Juan la Laguna	12	San Juan la Laguna	4	Abril	2023-04-20T00:00:00	2024-11-08T00:00:00	7	Dirección del viento	0
49079	7	Sololá	717	San Juan la Laguna	12	San Juan la Laguna	4	Abril	2023-04-20T00:00:00	2024-11-08T00:00:00	1	Precipitación	0
49080	7	Sololá	717	San Juan la Laguna	12	San Juan la Laguna	4	Abril	2023-04-20T00:00:00	2024-11-08T00:00:00	8	Radiación solar	0
49081	7	Sololá	717	San Juan la Laguna	12	San Juan la Laguna	4	Abril	2023-04-20T00:00:00	2024-11-08T01:00:00	2	Temperatura media	17.6
49082	7	Sololá	717	San Juan la Laguna	12	San Juan la Laguna	4	Abril	2023-04-20T00:00:00	2024-11-08T01:00:00	4	Temperatura máxima	18.4
49083	7	Sololá	717	San Juan la Laguna	12	San Juan la Laguna	4	Abril	2023-04-20T00:00:00	2024-11-08T01:00:00	3	Temperatura mínima	17.6
49084	7	Sololá	717	San Juan la Laguna	12	San Juan la Laguna	4	Abril	2023-04-20T00:00:00	2024-11-08T01:00:00	5	Humedad	89
49085	7	Sololá	717	San Juan la Laguna	12	San Juan la Laguna	4	Abril	2023-04-20T00:00:00	2024-11-08T01:00:00	6	Velocidad del viento	0
49086	7	Sololá	717	San Juan la Laguna	12	San Juan la Laguna	4	Abril	2023-04-20T00:00:00	2024-11-08T01:00:00	7	Dirección del viento	0
49087	7	Sololá	717	San Juan la Laguna	12	San Juan la Laguna	4	Abril	2023-04-20T00:00:00	2024-11-08T01:00:00	1	Precipitación	0
49088	7	Sololá	717	San Juan la Laguna	12	San Juan la Laguna	4	Abril	2023-04-20T00:00:00	2024-11-08T01:00:00	8	Radiación solar	0
49089	7	Sololá	717	San Juan la Laguna	12	San Juan la Laguna	4	Abril	2023-04-20T00:00:00	2024-11-08T02:00:00	2	Temperatura media	17.6
49090	7	Sololá	717	San Juan la Laguna	12	San Juan la Laguna	4	Abril	2023-04-20T00:00:00	2024-11-08T02:00:00	4	Temperatura máxima	17.9
49091	7	Sololá	717	San Juan la Laguna	12	San Juan la Laguna	4	Abril	2023-04-20T00:00:00	2024-11-08T02:00:00	3	Temperatura mínima	17.4
49092	7	Sololá	717	San Juan la Laguna	12	San Juan la Laguna	4	Abril	2023-04-20T00:00:00	2024-11-08T02:00:00	5	Humedad	85
49093	7	Sololá	717	San Juan la Laguna	12	San Juan la Laguna	4	Abril	2023-04-20T00:00:00	2024-11-08T02:00:00	6	Velocidad del viento	0
49094	7	Sololá	717	San Juan la Laguna	12	San Juan la Laguna	4	Abril	2023-04-20T00:00:00	2024-11-08T02:00:00	7	Dirección del viento	0
49095	7	Sololá	717	San Juan la Laguna	12	San Juan la Laguna	4	Abril	2023-04-20T00:00:00	2024-11-08T02:00:00	1	Precipitación	0
49096	7	Sololá	717	San Juan la Laguna	12	San Juan la Laguna	4	Abril	2023-04-20T00:00:00	2024-11-08T02:00:00	8	Radiación solar	0
49097	7	Sololá	717	San Juan la Laguna	12	San Juan la Laguna	4	Abril	2023-04-20T00:00:00	2024-11-08T03:00:00	2	Temperatura media	16.9
49098	7	Sololá	717	San Juan la Laguna	12	San Juan la Laguna	4	Abril	2023-04-20T00:00:00	2024-11-08T03:00:00	4	Temperatura máxima	17.7
49099	7	Sololá	717	San Juan la Laguna	12	San Juan la Laguna	4	Abril	2023-04-20T00:00:00	2024-11-08T03:00:00	3	Temperatura mínima	16.9
49100	7	Sololá	717	San Juan la Laguna	12	San Juan la Laguna	4	Abril	2023-04-20T00:00:00	2024-11-08T03:00:00	5	Humedad	88
49101	7	Sololá	717	San Juan la Laguna	12	San Juan la Laguna	4	Abril	2023-04-20T00:00:00	2024-11-08T03:00:00	6	Velocidad del viento	0
49102	7	Sololá	717	San Juan la Laguna	12	San Juan la Laguna	4	Abril	2023-04-20T00:00:00	2024-11-08T03:00:00	7	Dirección del viento	0
49103	7	Sololá	717	San Juan la Laguna	12	San Juan la Laguna	4	Abril	2023-04-20T00:00:00	2024-11-08T03:00:00	1	Precipitación	0
49104	7	Sololá	717	San Juan la Laguna	12	San Juan la Laguna	4	Abril	2023-04-20T00:00:00	2024-11-08T03:00:00	8	Radiación solar	0
49105	7	Sololá	717	San Juan la Laguna	12	San Juan la Laguna	4	Abril	2023-04-20T00:00:00	2024-11-08T04:00:00	2	Temperatura media	15.9
49106	7	Sololá	717	San Juan la Laguna	12	San Juan la Laguna	4	Abril	2023-04-20T00:00:00	2024-11-08T04:00:00	4	Temperatura máxima	16.9
49107	7	Sololá	717	San Juan la Laguna	12	San Juan la Laguna	4	Abril	2023-04-20T00:00:00	2024-11-08T04:00:00	3	Temperatura mínima	15.9
49108	7	Sololá	717	San Juan la Laguna	12	San Juan la Laguna	4	Abril	2023-04-20T00:00:00	2024-11-08T04:00:00	5	Humedad	89
49109	7	Sololá	717	San Juan la Laguna	12	San Juan la Laguna	4	Abril	2023-04-20T00:00:00	2024-11-08T04:00:00	6	Velocidad del viento	0
49110	7	Sololá	717	San Juan la Laguna	12	San Juan la Laguna	4	Abril	2023-04-20T00:00:00	2024-11-08T04:00:00	7	Dirección del viento	0
49111	7	Sololá	717	San Juan la Laguna	12	San Juan la Laguna	4	Abril	2023-04-20T00:00:00	2024-11-08T04:00:00	1	Precipitación	0
49112	7	Sololá	717	San Juan la Laguna	12	San Juan la Laguna	4	Abril	2023-04-20T00:00:00	2024-11-08T04:00:00	8	Radiación solar	0
49113	7	Sololá	717	San Juan la Laguna	12	San Juan la Laguna	4	Abril	2023-04-20T00:00:00	2024-11-08T05:00:00	2	Temperatura media	15.9
49114	7	Sololá	717	San Juan la Laguna	12	San Juan la Laguna	4	Abril	2023-04-20T00:00:00	2024-11-08T05:00:00	4	Temperatura máxima	15.9
49115	7	Sololá	717	San Juan la Laguna	12	San Juan la Laguna	4	Abril	2023-04-20T00:00:00	2024-11-08T05:00:00	3	Temperatura mínima	15.7
49116	7	Sololá	717	San Juan la Laguna	12	San Juan la Laguna	4	Abril	2023-04-20T00:00:00	2024-11-08T05:00:00	5	Humedad	84
49117	7	Sololá	717	San Juan la Laguna	12	San Juan la Laguna	4	Abril	2023-04-20T00:00:00	2024-11-08T05:00:00	6	Velocidad del viento	1.6
49118	7	Sololá	717	San Juan la Laguna	12	San Juan la Laguna	4	Abril	2023-04-20T00:00:00	2024-11-08T05:00:00	7	Dirección del viento	1.61
49119	7	Sololá	717	San Juan la Laguna	12	San Juan la Laguna	4	Abril	2023-04-20T00:00:00	2024-11-08T05:00:00	1	Precipitación	0
49120	7	Sololá	717	San Juan la Laguna	12	San Juan la Laguna	4	Abril	2023-04-20T00:00:00	2024-11-08T05:00:00	8	Radiación solar	0
49121	7	Sololá	717	San Juan la Laguna	12	San Juan la Laguna	4	Abril	2023-04-20T00:00:00	2024-11-08T06:00:00	2	Temperatura media	15.2
49122	7	Sololá	717	San Juan la Laguna	12	San Juan la Laguna	4	Abril	2023-04-20T00:00:00	2024-11-08T06:00:00	4	Temperatura máxima	15.9
49123	7	Sololá	717	San Juan la Laguna	12	San Juan la Laguna	4	Abril	2023-04-20T00:00:00	2024-11-08T06:00:00	3	Temperatura mínima	15.2
49124	7	Sololá	717	San Juan la Laguna	12	San Juan la Laguna	4	Abril	2023-04-20T00:00:00	2024-11-08T06:00:00	5	Humedad	79
49125	7	Sololá	717	San Juan la Laguna	12	San Juan la Laguna	4	Abril	2023-04-20T00:00:00	2024-11-08T06:00:00	6	Velocidad del viento	3.2
49126	7	Sololá	717	San Juan la Laguna	12	San Juan la Laguna	4	Abril	2023-04-20T00:00:00	2024-11-08T06:00:00	7	Dirección del viento	3.22
49127	7	Sololá	717	San Juan la Laguna	12	San Juan la Laguna	4	Abril	2023-04-20T00:00:00	2024-11-08T06:00:00	1	Precipitación	0
49128	7	Sololá	717	San Juan la Laguna	12	San Juan la Laguna	4	Abril	2023-04-20T00:00:00	2024-11-08T06:00:00	8	Radiación solar	0
49129	7	Sololá	717	San Juan la Laguna	12	San Juan la Laguna	4	Abril	2023-04-20T00:00:00	2024-11-08T07:00:00	2	Temperatura media	15.9
49130	7	Sololá	717	San Juan la Laguna	12	San Juan la Laguna	4	Abril	2023-04-20T00:00:00	2024-11-08T07:00:00	4	Temperatura máxima	15.9
49131	7	Sololá	717	San Juan la Laguna	12	San Juan la Laguna	4	Abril	2023-04-20T00:00:00	2024-11-08T07:00:00	3	Temperatura mínima	15
49132	7	Sololá	717	San Juan la Laguna	12	San Juan la Laguna	4	Abril	2023-04-20T00:00:00	2024-11-08T07:00:00	5	Humedad	75
49133	7	Sololá	717	San Juan la Laguna	12	San Juan la Laguna	4	Abril	2023-04-20T00:00:00	2024-11-08T07:00:00	6	Velocidad del viento	1.6
49134	7	Sololá	717	San Juan la Laguna	12	San Juan la Laguna	4	Abril	2023-04-20T00:00:00	2024-11-08T07:00:00	7	Dirección del viento	1.61
49135	7	Sololá	717	San Juan la Laguna	12	San Juan la Laguna	4	Abril	2023-04-20T00:00:00	2024-11-08T07:00:00	1	Precipitación	0
49136	7	Sololá	717	San Juan la Laguna	12	San Juan la Laguna	4	Abril	2023-04-20T00:00:00	2024-11-08T07:00:00	8	Radiación solar	52
49137	7	Sololá	717	San Juan la Laguna	12	San Juan la Laguna	4	Abril	2023-04-20T00:00:00	2024-11-08T08:00:00	2	Temperatura media	18.3
49138	7	Sololá	717	San Juan la Laguna	12	San Juan la Laguna	4	Abril	2023-04-20T00:00:00	2024-11-08T08:00:00	4	Temperatura máxima	18.3
49139	7	Sololá	717	San Juan la Laguna	12	San Juan la Laguna	4	Abril	2023-04-20T00:00:00	2024-11-08T08:00:00	3	Temperatura mínima	15.9
49140	7	Sololá	717	San Juan la Laguna	12	San Juan la Laguna	4	Abril	2023-04-20T00:00:00	2024-11-08T08:00:00	5	Humedad	72
49141	7	Sololá	717	San Juan la Laguna	12	San Juan la Laguna	4	Abril	2023-04-20T00:00:00	2024-11-08T08:00:00	6	Velocidad del viento	0
49142	7	Sololá	717	San Juan la Laguna	12	San Juan la Laguna	4	Abril	2023-04-20T00:00:00	2024-11-08T08:00:00	7	Dirección del viento	0
49143	7	Sololá	717	San Juan la Laguna	12	San Juan la Laguna	4	Abril	2023-04-20T00:00:00	2024-11-08T08:00:00	1	Precipitación	0
49144	7	Sololá	717	San Juan la Laguna	12	San Juan la Laguna	4	Abril	2023-04-20T00:00:00	2024-11-08T08:00:00	8	Radiación solar	187
49145	7	Sololá	717	San Juan la Laguna	12	San Juan la Laguna	4	Abril	2023-04-20T00:00:00	2024-11-08T09:00:00	2	Temperatura media	20.3
49146	7	Sololá	717	San Juan la Laguna	12	San Juan la Laguna	4	Abril	2023-04-20T00:00:00	2024-11-08T09:00:00	4	Temperatura máxima	20.3
49147	7	Sololá	717	San Juan la Laguna	12	San Juan la Laguna	4	Abril	2023-04-20T00:00:00	2024-11-08T09:00:00	3	Temperatura mínima	18.3
49148	7	Sololá	717	San Juan la Laguna	12	San Juan la Laguna	4	Abril	2023-04-20T00:00:00	2024-11-08T09:00:00	5	Humedad	66
49149	7	Sololá	717	San Juan la Laguna	12	San Juan la Laguna	4	Abril	2023-04-20T00:00:00	2024-11-08T09:00:00	6	Velocidad del viento	0
49150	7	Sololá	717	San Juan la Laguna	12	San Juan la Laguna	4	Abril	2023-04-20T00:00:00	2024-11-08T09:00:00	7	Dirección del viento	0
49151	7	Sololá	717	San Juan la Laguna	12	San Juan la Laguna	4	Abril	2023-04-20T00:00:00	2024-11-08T09:00:00	1	Precipitación	0
49152	7	Sololá	717	San Juan la Laguna	12	San Juan la Laguna	4	Abril	2023-04-20T00:00:00	2024-11-08T09:00:00	8	Radiación solar	345
49153	7	Sololá	717	San Juan la Laguna	12	San Juan la Laguna	4	Abril	2023-04-20T00:00:00	2024-11-08T10:00:00	2	Temperatura media	21.1
49154	7	Sololá	717	San Juan la Laguna	12	San Juan la Laguna	4	Abril	2023-04-20T00:00:00	2024-11-08T10:00:00	4	Temperatura máxima	21.2
49155	7	Sololá	717	San Juan la Laguna	12	San Juan la Laguna	4	Abril	2023-04-20T00:00:00	2024-11-08T10:00:00	3	Temperatura mínima	20.2
49156	7	Sololá	717	San Juan la Laguna	12	San Juan la Laguna	4	Abril	2023-04-20T00:00:00	2024-11-08T10:00:00	5	Humedad	65
49157	7	Sololá	717	San Juan la Laguna	12	San Juan la Laguna	4	Abril	2023-04-20T00:00:00	2024-11-08T10:00:00	6	Velocidad del viento	1.6
49158	7	Sololá	717	San Juan la Laguna	12	San Juan la Laguna	4	Abril	2023-04-20T00:00:00	2024-11-08T10:00:00	7	Dirección del viento	1.61
49159	7	Sololá	717	San Juan la Laguna	12	San Juan la Laguna	4	Abril	2023-04-20T00:00:00	2024-11-08T10:00:00	1	Precipitación	0
49160	7	Sololá	717	San Juan la Laguna	12	San Juan la Laguna	4	Abril	2023-04-20T00:00:00	2024-11-08T10:00:00	8	Radiación solar	512
49161	7	Sololá	717	San Juan la Laguna	12	San Juan la Laguna	4	Abril	2023-04-20T00:00:00	2024-11-08T11:00:00	2	Temperatura media	21.4
49162	7	Sololá	717	San Juan la Laguna	12	San Juan la Laguna	4	Abril	2023-04-20T00:00:00	2024-11-08T11:00:00	4	Temperatura máxima	21.7
49163	7	Sololá	717	San Juan la Laguna	12	San Juan la Laguna	4	Abril	2023-04-20T00:00:00	2024-11-08T11:00:00	3	Temperatura mínima	20.9
49164	7	Sololá	717	San Juan la Laguna	12	San Juan la Laguna	4	Abril	2023-04-20T00:00:00	2024-11-08T11:00:00	5	Humedad	60
49165	7	Sololá	717	San Juan la Laguna	12	San Juan la Laguna	4	Abril	2023-04-20T00:00:00	2024-11-08T11:00:00	6	Velocidad del viento	1.6
49166	7	Sololá	717	San Juan la Laguna	12	San Juan la Laguna	4	Abril	2023-04-20T00:00:00	2024-11-08T11:00:00	7	Dirección del viento	1.61
49167	7	Sololá	717	San Juan la Laguna	12	San Juan la Laguna	4	Abril	2023-04-20T00:00:00	2024-11-08T11:00:00	1	Precipitación	0
49168	7	Sololá	717	San Juan la Laguna	12	San Juan la Laguna	4	Abril	2023-04-20T00:00:00	2024-11-08T11:00:00	8	Radiación solar	550
49169	7	Sololá	717	San Juan la Laguna	12	San Juan la Laguna	4	Abril	2023-04-20T00:00:00	2024-11-08T12:00:00	2	Temperatura media	21.6
49170	7	Sololá	717	San Juan la Laguna	12	San Juan la Laguna	4	Abril	2023-04-20T00:00:00	2024-11-08T12:00:00	4	Temperatura máxima	21.8
49171	7	Sololá	717	San Juan la Laguna	12	San Juan la Laguna	4	Abril	2023-04-20T00:00:00	2024-11-08T12:00:00	3	Temperatura mínima	21.2
49172	7	Sololá	717	San Juan la Laguna	12	San Juan la Laguna	4	Abril	2023-04-20T00:00:00	2024-11-08T12:00:00	5	Humedad	65
49173	7	Sololá	717	San Juan la Laguna	12	San Juan la Laguna	4	Abril	2023-04-20T00:00:00	2024-11-08T12:00:00	6	Velocidad del viento	1.6
49174	7	Sololá	717	San Juan la Laguna	12	San Juan la Laguna	4	Abril	2023-04-20T00:00:00	2024-11-08T12:00:00	7	Dirección del viento	1.61
49175	7	Sololá	717	San Juan la Laguna	12	San Juan la Laguna	4	Abril	2023-04-20T00:00:00	2024-11-08T12:00:00	1	Precipitación	0
49176	7	Sololá	717	San Juan la Laguna	12	San Juan la Laguna	4	Abril	2023-04-20T00:00:00	2024-11-08T12:00:00	8	Radiación solar	540
49177	7	Sololá	717	San Juan la Laguna	12	San Juan la Laguna	4	Abril	2023-04-20T00:00:00	2024-11-08T13:00:00	2	Temperatura media	23.2
49178	7	Sololá	717	San Juan la Laguna	12	San Juan la Laguna	4	Abril	2023-04-20T00:00:00	2024-11-08T13:00:00	4	Temperatura máxima	23.5
49179	7	Sololá	717	San Juan la Laguna	12	San Juan la Laguna	4	Abril	2023-04-20T00:00:00	2024-11-08T13:00:00	3	Temperatura mínima	21.6
49180	7	Sololá	717	San Juan la Laguna	12	San Juan la Laguna	4	Abril	2023-04-20T00:00:00	2024-11-08T13:00:00	5	Humedad	61
49181	7	Sololá	717	San Juan la Laguna	12	San Juan la Laguna	4	Abril	2023-04-20T00:00:00	2024-11-08T13:00:00	6	Velocidad del viento	1.6
49182	7	Sololá	717	San Juan la Laguna	12	San Juan la Laguna	4	Abril	2023-04-20T00:00:00	2024-11-08T13:00:00	7	Dirección del viento	1.61
49183	7	Sololá	717	San Juan la Laguna	12	San Juan la Laguna	4	Abril	2023-04-20T00:00:00	2024-11-08T13:00:00	1	Precipitación	0
49184	7	Sololá	717	San Juan la Laguna	12	San Juan la Laguna	4	Abril	2023-04-20T00:00:00	2024-11-08T13:00:00	8	Radiación solar	720
49185	7	Sololá	717	San Juan la Laguna	12	San Juan la Laguna	4	Abril	2023-04-20T00:00:00	2024-11-08T14:00:00	2	Temperatura media	23.2
49186	7	Sololá	717	San Juan la Laguna	12	San Juan la Laguna	4	Abril	2023-04-20T00:00:00	2024-11-08T14:00:00	4	Temperatura máxima	23.6
49187	7	Sololá	717	San Juan la Laguna	12	San Juan la Laguna	4	Abril	2023-04-20T00:00:00	2024-11-08T14:00:00	3	Temperatura mínima	22.9
49188	7	Sololá	717	San Juan la Laguna	12	San Juan la Laguna	4	Abril	2023-04-20T00:00:00	2024-11-08T14:00:00	5	Humedad	65
49189	7	Sololá	717	San Juan la Laguna	12	San Juan la Laguna	4	Abril	2023-04-20T00:00:00	2024-11-08T14:00:00	6	Velocidad del viento	1.6
49190	7	Sololá	717	San Juan la Laguna	12	San Juan la Laguna	4	Abril	2023-04-20T00:00:00	2024-11-08T14:00:00	7	Dirección del viento	1.61
49191	7	Sololá	717	San Juan la Laguna	12	San Juan la Laguna	4	Abril	2023-04-20T00:00:00	2024-11-08T14:00:00	1	Precipitación	0
49192	7	Sololá	717	San Juan la Laguna	12	San Juan la Laguna	4	Abril	2023-04-20T00:00:00	2024-11-08T14:00:00	8	Radiación solar	722
49193	7	Sololá	717	San Juan la Laguna	12	San Juan la Laguna	4	Abril	2023-04-20T00:00:00	2024-11-08T15:00:00	2	Temperatura media	23.3
49194	7	Sololá	717	San Juan la Laguna	12	San Juan la Laguna	4	Abril	2023-04-20T00:00:00	2024-11-08T15:00:00	4	Temperatura máxima	23.9
49195	7	Sololá	717	San Juan la Laguna	12	San Juan la Laguna	4	Abril	2023-04-20T00:00:00	2024-11-08T15:00:00	3	Temperatura mínima	23
49196	7	Sololá	717	San Juan la Laguna	12	San Juan la Laguna	4	Abril	2023-04-20T00:00:00	2024-11-08T15:00:00	5	Humedad	68
49197	7	Sololá	717	San Juan la Laguna	12	San Juan la Laguna	4	Abril	2023-04-20T00:00:00	2024-11-08T15:00:00	6	Velocidad del viento	3.2
49198	7	Sololá	717	San Juan la Laguna	12	San Juan la Laguna	4	Abril	2023-04-20T00:00:00	2024-11-08T15:00:00	7	Dirección del viento	3.22
49199	7	Sololá	717	San Juan la Laguna	12	San Juan la Laguna	4	Abril	2023-04-20T00:00:00	2024-11-08T15:00:00	1	Precipitación	0
49200	7	Sololá	717	San Juan la Laguna	12	San Juan la Laguna	4	Abril	2023-04-20T00:00:00	2024-11-08T15:00:00	8	Radiación solar	616
49201	7	Sololá	717	San Juan la Laguna	12	San Juan la Laguna	4	Abril	2023-04-20T00:00:00	2024-11-08T16:00:00	2	Temperatura media	22.7
49202	7	Sololá	717	San Juan la Laguna	12	San Juan la Laguna	4	Abril	2023-04-20T00:00:00	2024-11-08T16:00:00	4	Temperatura máxima	23.3
49203	7	Sololá	717	San Juan la Laguna	12	San Juan la Laguna	4	Abril	2023-04-20T00:00:00	2024-11-08T16:00:00	3	Temperatura mínima	22.4
49204	7	Sololá	717	San Juan la Laguna	12	San Juan la Laguna	4	Abril	2023-04-20T00:00:00	2024-11-08T16:00:00	5	Humedad	70
49205	7	Sololá	717	San Juan la Laguna	12	San Juan la Laguna	4	Abril	2023-04-20T00:00:00	2024-11-08T16:00:00	6	Velocidad del viento	6.4
49206	7	Sololá	717	San Juan la Laguna	12	San Juan la Laguna	4	Abril	2023-04-20T00:00:00	2024-11-08T16:00:00	7	Dirección del viento	6.44
49207	7	Sololá	717	San Juan la Laguna	12	San Juan la Laguna	4	Abril	2023-04-20T00:00:00	2024-11-08T16:00:00	1	Precipitación	0
49208	7	Sololá	717	San Juan la Laguna	12	San Juan la Laguna	4	Abril	2023-04-20T00:00:00	2024-11-08T16:00:00	8	Radiación solar	514
49209	7	Sololá	717	San Juan la Laguna	12	San Juan la Laguna	4	Abril	2023-04-20T00:00:00	2024-11-08T17:00:00	2	Temperatura media	21.2
49210	7	Sololá	717	San Juan la Laguna	12	San Juan la Laguna	4	Abril	2023-04-20T00:00:00	2024-11-08T17:00:00	4	Temperatura máxima	22.8
49211	7	Sololá	717	San Juan la Laguna	12	San Juan la Laguna	4	Abril	2023-04-20T00:00:00	2024-11-08T17:00:00	3	Temperatura mínima	21.2
49212	7	Sololá	717	San Juan la Laguna	12	San Juan la Laguna	4	Abril	2023-04-20T00:00:00	2024-11-08T17:00:00	5	Humedad	75
49213	7	Sololá	717	San Juan la Laguna	12	San Juan la Laguna	4	Abril	2023-04-20T00:00:00	2024-11-08T17:00:00	6	Velocidad del viento	4.8
49214	7	Sololá	717	San Juan la Laguna	12	San Juan la Laguna	4	Abril	2023-04-20T00:00:00	2024-11-08T17:00:00	7	Dirección del viento	4.83
49215	7	Sololá	717	San Juan la Laguna	12	San Juan la Laguna	4	Abril	2023-04-20T00:00:00	2024-11-08T17:00:00	1	Precipitación	0
49216	7	Sololá	717	San Juan la Laguna	12	San Juan la Laguna	4	Abril	2023-04-20T00:00:00	2024-11-08T17:00:00	8	Radiación solar	290
49217	7	Sololá	717	San Juan la Laguna	12	San Juan la Laguna	4	Abril	2023-04-20T00:00:00	2024-11-08T18:00:00	2	Temperatura media	20.2
49218	7	Sololá	717	San Juan la Laguna	12	San Juan la Laguna	4	Abril	2023-04-20T00:00:00	2024-11-08T18:00:00	4	Temperatura máxima	21.2
49219	7	Sololá	717	San Juan la Laguna	12	San Juan la Laguna	4	Abril	2023-04-20T00:00:00	2024-11-08T18:00:00	3	Temperatura mínima	20.2
49220	7	Sololá	717	San Juan la Laguna	12	San Juan la Laguna	4	Abril	2023-04-20T00:00:00	2024-11-08T18:00:00	5	Humedad	78
49221	7	Sololá	717	San Juan la Laguna	12	San Juan la Laguna	4	Abril	2023-04-20T00:00:00	2024-11-08T18:00:00	6	Velocidad del viento	3.2
49222	7	Sololá	717	San Juan la Laguna	12	San Juan la Laguna	4	Abril	2023-04-20T00:00:00	2024-11-08T18:00:00	7	Dirección del viento	3.22
49223	7	Sololá	717	San Juan la Laguna	12	San Juan la Laguna	4	Abril	2023-04-20T00:00:00	2024-11-08T18:00:00	1	Precipitación	0
49224	7	Sololá	717	San Juan la Laguna	12	San Juan la Laguna	4	Abril	2023-04-20T00:00:00	2024-11-08T18:00:00	8	Radiación solar	70
49225	7	Sololá	717	San Juan la Laguna	12	San Juan la Laguna	4	Abril	2023-04-20T00:00:00	2024-11-08T19:00:00	2	Temperatura media	19.3
49226	7	Sololá	717	San Juan la Laguna	12	San Juan la Laguna	4	Abril	2023-04-20T00:00:00	2024-11-08T19:00:00	4	Temperatura máxima	20.3
49227	7	Sololá	717	San Juan la Laguna	12	San Juan la Laguna	4	Abril	2023-04-20T00:00:00	2024-11-08T19:00:00	3	Temperatura mínima	19.3
49228	7	Sololá	717	San Juan la Laguna	12	San Juan la Laguna	4	Abril	2023-04-20T00:00:00	2024-11-08T19:00:00	5	Humedad	80
49229	7	Sololá	717	San Juan la Laguna	12	San Juan la Laguna	4	Abril	2023-04-20T00:00:00	2024-11-08T19:00:00	6	Velocidad del viento	1.6
49230	7	Sololá	717	San Juan la Laguna	12	San Juan la Laguna	4	Abril	2023-04-20T00:00:00	2024-11-08T19:00:00	7	Dirección del viento	1.61
49231	7	Sololá	717	San Juan la Laguna	12	San Juan la Laguna	4	Abril	2023-04-20T00:00:00	2024-11-08T19:00:00	1	Precipitación	0
49232	7	Sololá	717	San Juan la Laguna	12	San Juan la Laguna	4	Abril	2023-04-20T00:00:00	2024-11-08T19:00:00	8	Radiación solar	0
49233	7	Sololá	717	San Juan la Laguna	12	San Juan la Laguna	4	Abril	2023-04-20T00:00:00	2024-11-08T20:00:00	2	Temperatura media	18.4
49234	7	Sololá	717	San Juan la Laguna	12	San Juan la Laguna	4	Abril	2023-04-20T00:00:00	2024-11-08T20:00:00	4	Temperatura máxima	19.3
49235	7	Sololá	717	San Juan la Laguna	12	San Juan la Laguna	4	Abril	2023-04-20T00:00:00	2024-11-08T20:00:00	3	Temperatura mínima	18.3
49236	7	Sololá	717	San Juan la Laguna	12	San Juan la Laguna	4	Abril	2023-04-20T00:00:00	2024-11-08T20:00:00	5	Humedad	82
49237	7	Sololá	717	San Juan la Laguna	12	San Juan la Laguna	4	Abril	2023-04-20T00:00:00	2024-11-08T20:00:00	6	Velocidad del viento	1.6
49238	7	Sololá	717	San Juan la Laguna	12	San Juan la Laguna	4	Abril	2023-04-20T00:00:00	2024-11-08T20:00:00	7	Dirección del viento	1.61
49239	7	Sololá	717	San Juan la Laguna	12	San Juan la Laguna	4	Abril	2023-04-20T00:00:00	2024-11-08T20:00:00	1	Precipitación	0
49240	7	Sololá	717	San Juan la Laguna	12	San Juan la Laguna	4	Abril	2023-04-20T00:00:00	2024-11-08T20:00:00	8	Radiación solar	0
49241	7	Sololá	717	San Juan la Laguna	12	San Juan la Laguna	4	Abril	2023-04-20T00:00:00	2024-11-08T21:00:00	2	Temperatura media	18.8
49242	7	Sololá	717	San Juan la Laguna	12	San Juan la Laguna	4	Abril	2023-04-20T00:00:00	2024-11-08T21:00:00	4	Temperatura máxima	19.1
49243	7	Sololá	717	San Juan la Laguna	12	San Juan la Laguna	4	Abril	2023-04-20T00:00:00	2024-11-08T21:00:00	3	Temperatura mínima	18.4
49244	7	Sololá	717	San Juan la Laguna	12	San Juan la Laguna	4	Abril	2023-04-20T00:00:00	2024-11-08T21:00:00	5	Humedad	81
49245	7	Sololá	717	San Juan la Laguna	12	San Juan la Laguna	4	Abril	2023-04-20T00:00:00	2024-11-08T21:00:00	6	Velocidad del viento	1.6
49246	7	Sololá	717	San Juan la Laguna	12	San Juan la Laguna	4	Abril	2023-04-20T00:00:00	2024-11-08T21:00:00	7	Dirección del viento	1.61
49247	7	Sololá	717	San Juan la Laguna	12	San Juan la Laguna	4	Abril	2023-04-20T00:00:00	2024-11-08T21:00:00	1	Precipitación	0
49248	7	Sololá	717	San Juan la Laguna	12	San Juan la Laguna	4	Abril	2023-04-20T00:00:00	2024-11-08T21:00:00	8	Radiación solar	0
49249	7	Sololá	717	San Juan la Laguna	12	San Juan la Laguna	4	Abril	2023-04-20T00:00:00	2024-11-08T22:00:00	2	Temperatura media	18.2
49250	7	Sololá	717	San Juan la Laguna	12	San Juan la Laguna	4	Abril	2023-04-20T00:00:00	2024-11-08T22:00:00	4	Temperatura máxima	18.8
49251	7	Sololá	717	San Juan la Laguna	12	San Juan la Laguna	4	Abril	2023-04-20T00:00:00	2024-11-08T22:00:00	3	Temperatura mínima	18.2
49252	7	Sololá	717	San Juan la Laguna	12	San Juan la Laguna	4	Abril	2023-04-20T00:00:00	2024-11-08T22:00:00	5	Humedad	83
49253	7	Sololá	717	San Juan la Laguna	12	San Juan la Laguna	4	Abril	2023-04-20T00:00:00	2024-11-08T22:00:00	6	Velocidad del viento	1.6
49254	7	Sololá	717	San Juan la Laguna	12	San Juan la Laguna	4	Abril	2023-04-20T00:00:00	2024-11-08T22:00:00	7	Dirección del viento	1.61
49255	7	Sololá	717	San Juan la Laguna	12	San Juan la Laguna	4	Abril	2023-04-20T00:00:00	2024-11-08T22:00:00	1	Precipitación	0
49256	7	Sololá	717	San Juan la Laguna	12	San Juan la Laguna	4	Abril	2023-04-20T00:00:00	2024-11-08T22:00:00	8	Radiación solar	0
49257	7	Sololá	717	San Juan la Laguna	12	San Juan la Laguna	4	Abril	2023-04-20T00:00:00	2024-11-08T23:00:00	2	Temperatura media	17.1
49258	7	Sololá	717	San Juan la Laguna	12	San Juan la Laguna	4	Abril	2023-04-20T00:00:00	2024-11-08T23:00:00	4	Temperatura máxima	18.2
49259	7	Sololá	717	San Juan la Laguna	12	San Juan la Laguna	4	Abril	2023-04-20T00:00:00	2024-11-08T23:00:00	3	Temperatura mínima	17.1
49260	7	Sololá	717	San Juan la Laguna	12	San Juan la Laguna	4	Abril	2023-04-20T00:00:00	2024-11-08T23:00:00	5	Humedad	86
49261	7	Sololá	717	San Juan la Laguna	12	San Juan la Laguna	4	Abril	2023-04-20T00:00:00	2024-11-08T23:00:00	6	Velocidad del viento	3.2
49262	7	Sololá	717	San Juan la Laguna	12	San Juan la Laguna	4	Abril	2023-04-20T00:00:00	2024-11-08T23:00:00	7	Dirección del viento	3.22
49263	7	Sololá	717	San Juan la Laguna	12	San Juan la Laguna	4	Abril	2023-04-20T00:00:00	2024-11-08T23:00:00	1	Precipitación	0
49264	7	Sololá	717	San Juan la Laguna	12	San Juan la Laguna	4	Abril	2023-04-20T00:00:00	2024-11-08T23:00:00	8	Radiación solar	0
49265	7	Sololá	717	San Juan la Laguna	12	San Juan la Laguna	4	Abril	2023-04-21T00:00:00	2024-11-08T00:00:00	2	Temperatura media	16.6
49266	7	Sololá	717	San Juan la Laguna	12	San Juan la Laguna	4	Abril	2023-04-21T00:00:00	2024-11-08T00:00:00	4	Temperatura máxima	17.1
49267	7	Sololá	717	San Juan la Laguna	12	San Juan la Laguna	4	Abril	2023-04-21T00:00:00	2024-11-08T00:00:00	3	Temperatura mínima	16.5
49268	7	Sololá	717	San Juan la Laguna	12	San Juan la Laguna	4	Abril	2023-04-21T00:00:00	2024-11-08T00:00:00	5	Humedad	87
49269	7	Sololá	717	San Juan la Laguna	12	San Juan la Laguna	4	Abril	2023-04-21T00:00:00	2024-11-08T00:00:00	6	Velocidad del viento	1.6
49270	7	Sololá	717	San Juan la Laguna	12	San Juan la Laguna	4	Abril	2023-04-21T00:00:00	2024-11-08T00:00:00	7	Dirección del viento	1.61
49271	7	Sololá	717	San Juan la Laguna	12	San Juan la Laguna	4	Abril	2023-04-21T00:00:00	2024-11-08T00:00:00	1	Precipitación	0
49272	7	Sololá	717	San Juan la Laguna	12	San Juan la Laguna	4	Abril	2023-04-21T00:00:00	2024-11-08T00:00:00	8	Radiación solar	0
49273	7	Sololá	717	San Juan la Laguna	12	San Juan la Laguna	4	Abril	2023-04-21T00:00:00	2024-11-08T01:00:00	2	Temperatura media	16.7
49274	7	Sololá	717	San Juan la Laguna	12	San Juan la Laguna	4	Abril	2023-04-21T00:00:00	2024-11-08T01:00:00	4	Temperatura máxima	17.3
49275	7	Sololá	717	San Juan la Laguna	12	San Juan la Laguna	4	Abril	2023-04-21T00:00:00	2024-11-08T01:00:00	3	Temperatura mínima	16.6
49276	7	Sololá	717	San Juan la Laguna	12	San Juan la Laguna	4	Abril	2023-04-21T00:00:00	2024-11-08T01:00:00	5	Humedad	85
49277	7	Sololá	717	San Juan la Laguna	12	San Juan la Laguna	4	Abril	2023-04-21T00:00:00	2024-11-08T01:00:00	6	Velocidad del viento	1.6
49278	7	Sololá	717	San Juan la Laguna	12	San Juan la Laguna	4	Abril	2023-04-21T00:00:00	2024-11-08T01:00:00	7	Dirección del viento	1.61
49279	7	Sololá	717	San Juan la Laguna	12	San Juan la Laguna	4	Abril	2023-04-21T00:00:00	2024-11-08T01:00:00	1	Precipitación	0
49280	7	Sololá	717	San Juan la Laguna	12	San Juan la Laguna	4	Abril	2023-04-21T00:00:00	2024-11-08T01:00:00	8	Radiación solar	0
49281	7	Sololá	717	San Juan la Laguna	12	San Juan la Laguna	4	Abril	2023-04-21T00:00:00	2024-11-08T02:00:00	2	Temperatura media	16.3
49282	7	Sololá	717	San Juan la Laguna	12	San Juan la Laguna	4	Abril	2023-04-21T00:00:00	2024-11-08T02:00:00	4	Temperatura máxima	16.7
49283	7	Sololá	717	San Juan la Laguna	12	San Juan la Laguna	4	Abril	2023-04-21T00:00:00	2024-11-08T02:00:00	3	Temperatura mínima	16.2
49284	7	Sololá	717	San Juan la Laguna	12	San Juan la Laguna	4	Abril	2023-04-21T00:00:00	2024-11-08T02:00:00	5	Humedad	82
49285	7	Sololá	717	San Juan la Laguna	12	San Juan la Laguna	4	Abril	2023-04-21T00:00:00	2024-11-08T02:00:00	6	Velocidad del viento	3.2
49286	7	Sololá	717	San Juan la Laguna	12	San Juan la Laguna	4	Abril	2023-04-21T00:00:00	2024-11-08T02:00:00	7	Dirección del viento	3.22
49287	7	Sololá	717	San Juan la Laguna	12	San Juan la Laguna	4	Abril	2023-04-21T00:00:00	2024-11-08T02:00:00	1	Precipitación	0
49288	7	Sololá	717	San Juan la Laguna	12	San Juan la Laguna	4	Abril	2023-04-21T00:00:00	2024-11-08T02:00:00	8	Radiación solar	0
49289	7	Sololá	717	San Juan la Laguna	12	San Juan la Laguna	4	Abril	2023-04-21T00:00:00	2024-11-08T03:00:00	2	Temperatura media	15.3
49290	7	Sololá	717	San Juan la Laguna	12	San Juan la Laguna	4	Abril	2023-04-21T00:00:00	2024-11-08T03:00:00	4	Temperatura máxima	16.3
49291	7	Sololá	717	San Juan la Laguna	12	San Juan la Laguna	4	Abril	2023-04-21T00:00:00	2024-11-08T03:00:00	3	Temperatura mínima	15.2
49292	7	Sololá	717	San Juan la Laguna	12	San Juan la Laguna	4	Abril	2023-04-21T00:00:00	2024-11-08T03:00:00	5	Humedad	84
49293	7	Sololá	717	San Juan la Laguna	12	San Juan la Laguna	4	Abril	2023-04-21T00:00:00	2024-11-08T03:00:00	6	Velocidad del viento	1.6
49294	7	Sololá	717	San Juan la Laguna	12	San Juan la Laguna	4	Abril	2023-04-21T00:00:00	2024-11-08T03:00:00	7	Dirección del viento	1.61
49295	7	Sololá	717	San Juan la Laguna	12	San Juan la Laguna	4	Abril	2023-04-21T00:00:00	2024-11-08T03:00:00	1	Precipitación	0
49296	7	Sololá	717	San Juan la Laguna	12	San Juan la Laguna	4	Abril	2023-04-21T00:00:00	2024-11-08T03:00:00	8	Radiación solar	0
49297	7	Sololá	717	San Juan la Laguna	12	San Juan la Laguna	4	Abril	2023-04-21T00:00:00	2024-11-08T04:00:00	2	Temperatura media	14.8
49298	7	Sololá	717	San Juan la Laguna	12	San Juan la Laguna	4	Abril	2023-04-21T00:00:00	2024-11-08T04:00:00	4	Temperatura máxima	15.2
49299	7	Sololá	717	San Juan la Laguna	12	San Juan la Laguna	4	Abril	2023-04-21T00:00:00	2024-11-08T04:00:00	3	Temperatura mínima	14.8
49300	7	Sololá	717	San Juan la Laguna	12	San Juan la Laguna	4	Abril	2023-04-21T00:00:00	2024-11-08T04:00:00	5	Humedad	86
49301	7	Sololá	717	San Juan la Laguna	12	San Juan la Laguna	4	Abril	2023-04-21T00:00:00	2024-11-08T04:00:00	6	Velocidad del viento	1.6
49302	7	Sololá	717	San Juan la Laguna	12	San Juan la Laguna	4	Abril	2023-04-21T00:00:00	2024-11-08T04:00:00	7	Dirección del viento	1.61
49303	7	Sololá	717	San Juan la Laguna	12	San Juan la Laguna	4	Abril	2023-04-21T00:00:00	2024-11-08T04:00:00	1	Precipitación	0
49304	7	Sololá	717	San Juan la Laguna	12	San Juan la Laguna	4	Abril	2023-04-21T00:00:00	2024-11-08T04:00:00	8	Radiación solar	0
49305	7	Sololá	717	San Juan la Laguna	12	San Juan la Laguna	4	Abril	2023-04-21T00:00:00	2024-11-08T05:00:00	2	Temperatura media	14.8
49306	7	Sololá	717	San Juan la Laguna	12	San Juan la Laguna	4	Abril	2023-04-21T00:00:00	2024-11-08T05:00:00	4	Temperatura máxima	15.1
49307	7	Sololá	717	San Juan la Laguna	12	San Juan la Laguna	4	Abril	2023-04-21T00:00:00	2024-11-08T05:00:00	3	Temperatura mínima	14.8
49308	7	Sololá	717	San Juan la Laguna	12	San Juan la Laguna	4	Abril	2023-04-21T00:00:00	2024-11-08T05:00:00	5	Humedad	86
49309	7	Sololá	717	San Juan la Laguna	12	San Juan la Laguna	4	Abril	2023-04-21T00:00:00	2024-11-08T05:00:00	6	Velocidad del viento	3.2
49310	7	Sololá	717	San Juan la Laguna	12	San Juan la Laguna	4	Abril	2023-04-21T00:00:00	2024-11-08T05:00:00	7	Dirección del viento	3.22
49311	7	Sololá	717	San Juan la Laguna	12	San Juan la Laguna	4	Abril	2023-04-21T00:00:00	2024-11-08T05:00:00	1	Precipitación	0
49312	7	Sololá	717	San Juan la Laguna	12	San Juan la Laguna	4	Abril	2023-04-21T00:00:00	2024-11-08T05:00:00	8	Radiación solar	0
49313	7	Sololá	717	San Juan la Laguna	12	San Juan la Laguna	4	Abril	2023-04-21T00:00:00	2024-11-08T06:00:00	2	Temperatura media	14.4
49314	7	Sololá	717	San Juan la Laguna	12	San Juan la Laguna	4	Abril	2023-04-21T00:00:00	2024-11-08T06:00:00	4	Temperatura máxima	14.8
49315	7	Sololá	717	San Juan la Laguna	12	San Juan la Laguna	4	Abril	2023-04-21T00:00:00	2024-11-08T06:00:00	3	Temperatura mínima	14.4
49316	7	Sololá	717	San Juan la Laguna	12	San Juan la Laguna	4	Abril	2023-04-21T00:00:00	2024-11-08T06:00:00	5	Humedad	87
49317	7	Sololá	717	San Juan la Laguna	12	San Juan la Laguna	4	Abril	2023-04-21T00:00:00	2024-11-08T06:00:00	6	Velocidad del viento	3.2
49318	7	Sololá	717	San Juan la Laguna	12	San Juan la Laguna	4	Abril	2023-04-21T00:00:00	2024-11-08T06:00:00	7	Dirección del viento	3.22
49319	7	Sololá	717	San Juan la Laguna	12	San Juan la Laguna	4	Abril	2023-04-21T00:00:00	2024-11-08T06:00:00	1	Precipitación	0
49320	7	Sololá	717	San Juan la Laguna	12	San Juan la Laguna	4	Abril	2023-04-21T00:00:00	2024-11-08T06:00:00	8	Radiación solar	1
49321	7	Sololá	717	San Juan la Laguna	12	San Juan la Laguna	4	Abril	2023-04-21T00:00:00	2024-11-08T07:00:00	2	Temperatura media	16.3
49322	7	Sololá	717	San Juan la Laguna	12	San Juan la Laguna	4	Abril	2023-04-21T00:00:00	2024-11-08T07:00:00	4	Temperatura máxima	16.3
49323	7	Sololá	717	San Juan la Laguna	12	San Juan la Laguna	4	Abril	2023-04-21T00:00:00	2024-11-08T07:00:00	3	Temperatura mínima	14.3
49324	7	Sololá	717	San Juan la Laguna	12	San Juan la Laguna	4	Abril	2023-04-21T00:00:00	2024-11-08T07:00:00	5	Humedad	84
49325	7	Sololá	717	San Juan la Laguna	12	San Juan la Laguna	4	Abril	2023-04-21T00:00:00	2024-11-08T07:00:00	6	Velocidad del viento	1.6
49326	7	Sololá	717	San Juan la Laguna	12	San Juan la Laguna	4	Abril	2023-04-21T00:00:00	2024-11-08T07:00:00	7	Dirección del viento	1.61
49327	7	Sololá	717	San Juan la Laguna	12	San Juan la Laguna	4	Abril	2023-04-21T00:00:00	2024-11-08T07:00:00	1	Precipitación	0
49328	7	Sololá	717	San Juan la Laguna	12	San Juan la Laguna	4	Abril	2023-04-21T00:00:00	2024-11-08T07:00:00	8	Radiación solar	73
49329	7	Sololá	717	San Juan la Laguna	12	San Juan la Laguna	4	Abril	2023-04-21T00:00:00	2024-11-08T08:00:00	2	Temperatura media	19.7
49330	7	Sololá	717	San Juan la Laguna	12	San Juan la Laguna	4	Abril	2023-04-21T00:00:00	2024-11-08T08:00:00	4	Temperatura máxima	19.7
49331	7	Sololá	717	San Juan la Laguna	12	San Juan la Laguna	4	Abril	2023-04-21T00:00:00	2024-11-08T08:00:00	3	Temperatura mínima	16.3
49332	7	Sololá	717	San Juan la Laguna	12	San Juan la Laguna	4	Abril	2023-04-21T00:00:00	2024-11-08T08:00:00	5	Humedad	77
49333	7	Sololá	717	San Juan la Laguna	12	San Juan la Laguna	4	Abril	2023-04-21T00:00:00	2024-11-08T08:00:00	6	Velocidad del viento	0
49334	7	Sololá	717	San Juan la Laguna	12	San Juan la Laguna	4	Abril	2023-04-21T00:00:00	2024-11-08T08:00:00	7	Dirección del viento	0
49335	7	Sololá	717	San Juan la Laguna	12	San Juan la Laguna	4	Abril	2023-04-21T00:00:00	2024-11-08T08:00:00	1	Precipitación	0
49336	7	Sololá	717	San Juan la Laguna	12	San Juan la Laguna	4	Abril	2023-04-21T00:00:00	2024-11-08T08:00:00	8	Radiación solar	270
49337	7	Sololá	717	San Juan la Laguna	12	San Juan la Laguna	4	Abril	2023-04-21T00:00:00	2024-11-08T09:00:00	2	Temperatura media	20.6
49338	7	Sololá	717	San Juan la Laguna	12	San Juan la Laguna	4	Abril	2023-04-21T00:00:00	2024-11-08T09:00:00	4	Temperatura máxima	20.6
49339	7	Sololá	717	San Juan la Laguna	12	San Juan la Laguna	4	Abril	2023-04-21T00:00:00	2024-11-08T09:00:00	3	Temperatura mínima	19.7
49340	7	Sololá	717	San Juan la Laguna	12	San Juan la Laguna	4	Abril	2023-04-21T00:00:00	2024-11-08T09:00:00	5	Humedad	75
49341	7	Sololá	717	San Juan la Laguna	12	San Juan la Laguna	4	Abril	2023-04-21T00:00:00	2024-11-08T09:00:00	6	Velocidad del viento	1.6
49342	7	Sololá	717	San Juan la Laguna	12	San Juan la Laguna	4	Abril	2023-04-21T00:00:00	2024-11-08T09:00:00	7	Dirección del viento	1.61
49343	7	Sololá	717	San Juan la Laguna	12	San Juan la Laguna	4	Abril	2023-04-21T00:00:00	2024-11-08T09:00:00	1	Precipitación	0
49344	7	Sololá	717	San Juan la Laguna	12	San Juan la Laguna	4	Abril	2023-04-21T00:00:00	2024-11-08T09:00:00	8	Radiación solar	401
49345	7	Sololá	717	San Juan la Laguna	12	San Juan la Laguna	4	Abril	2023-04-21T00:00:00	2024-11-08T10:00:00	2	Temperatura media	21.8
49346	7	Sololá	717	San Juan la Laguna	12	San Juan la Laguna	4	Abril	2023-04-21T00:00:00	2024-11-08T10:00:00	4	Temperatura máxima	21.9
49347	7	Sololá	717	San Juan la Laguna	12	San Juan la Laguna	4	Abril	2023-04-21T00:00:00	2024-11-08T10:00:00	3	Temperatura mínima	20.6
49348	7	Sololá	717	San Juan la Laguna	12	San Juan la Laguna	4	Abril	2023-04-21T00:00:00	2024-11-08T10:00:00	5	Humedad	71
49349	7	Sololá	717	San Juan la Laguna	12	San Juan la Laguna	4	Abril	2023-04-21T00:00:00	2024-11-08T10:00:00	6	Velocidad del viento	1.6
49350	7	Sololá	717	San Juan la Laguna	12	San Juan la Laguna	4	Abril	2023-04-21T00:00:00	2024-11-08T10:00:00	7	Dirección del viento	1.61
49351	7	Sololá	717	San Juan la Laguna	12	San Juan la Laguna	4	Abril	2023-04-21T00:00:00	2024-11-08T10:00:00	1	Precipitación	0
49352	7	Sololá	717	San Juan la Laguna	12	San Juan la Laguna	4	Abril	2023-04-21T00:00:00	2024-11-08T10:00:00	8	Radiación solar	595
49353	7	Sololá	717	San Juan la Laguna	12	San Juan la Laguna	4	Abril	2023-04-21T00:00:00	2024-11-08T11:00:00	2	Temperatura media	23.8
49354	7	Sololá	717	San Juan la Laguna	12	San Juan la Laguna	4	Abril	2023-04-21T00:00:00	2024-11-08T11:00:00	4	Temperatura máxima	23.8
49355	7	Sololá	717	San Juan la Laguna	12	San Juan la Laguna	4	Abril	2023-04-21T00:00:00	2024-11-08T11:00:00	3	Temperatura mínima	21.8
49356	7	Sololá	717	San Juan la Laguna	12	San Juan la Laguna	4	Abril	2023-04-21T00:00:00	2024-11-08T11:00:00	5	Humedad	63
49357	7	Sololá	717	San Juan la Laguna	12	San Juan la Laguna	4	Abril	2023-04-21T00:00:00	2024-11-08T11:00:00	6	Velocidad del viento	1.6
49358	7	Sololá	717	San Juan la Laguna	12	San Juan la Laguna	4	Abril	2023-04-21T00:00:00	2024-11-08T11:00:00	7	Dirección del viento	1.61
49359	7	Sololá	717	San Juan la Laguna	12	San Juan la Laguna	4	Abril	2023-04-21T00:00:00	2024-11-08T11:00:00	1	Precipitación	0
49360	7	Sololá	717	San Juan la Laguna	12	San Juan la Laguna	4	Abril	2023-04-21T00:00:00	2024-11-08T11:00:00	8	Radiación solar	820
49361	7	Sololá	717	San Juan la Laguna	12	San Juan la Laguna	4	Abril	2023-04-21T00:00:00	2024-11-08T12:00:00	2	Temperatura media	23.9
49362	7	Sololá	717	San Juan la Laguna	12	San Juan la Laguna	4	Abril	2023-04-21T00:00:00	2024-11-08T12:00:00	4	Temperatura máxima	24.1
49363	7	Sololá	717	San Juan la Laguna	12	San Juan la Laguna	4	Abril	2023-04-21T00:00:00	2024-11-08T12:00:00	3	Temperatura mínima	23.3
49364	7	Sololá	717	San Juan la Laguna	12	San Juan la Laguna	4	Abril	2023-04-21T00:00:00	2024-11-08T12:00:00	5	Humedad	63
49365	7	Sololá	717	San Juan la Laguna	12	San Juan la Laguna	4	Abril	2023-04-21T00:00:00	2024-11-08T12:00:00	6	Velocidad del viento	6.4
49366	7	Sololá	717	San Juan la Laguna	12	San Juan la Laguna	4	Abril	2023-04-21T00:00:00	2024-11-08T12:00:00	7	Dirección del viento	6.44
49367	7	Sololá	717	San Juan la Laguna	12	San Juan la Laguna	4	Abril	2023-04-21T00:00:00	2024-11-08T12:00:00	1	Precipitación	0
49368	7	Sololá	717	San Juan la Laguna	12	San Juan la Laguna	4	Abril	2023-04-21T00:00:00	2024-11-08T12:00:00	8	Radiación solar	914
49369	7	Sololá	717	San Juan la Laguna	12	San Juan la Laguna	4	Abril	2023-04-21T00:00:00	2024-11-08T13:00:00	2	Temperatura media	23.1
49370	7	Sololá	717	San Juan la Laguna	12	San Juan la Laguna	4	Abril	2023-04-21T00:00:00	2024-11-08T13:00:00	4	Temperatura máxima	24.3
49371	7	Sololá	717	San Juan la Laguna	12	San Juan la Laguna	4	Abril	2023-04-21T00:00:00	2024-11-08T13:00:00	3	Temperatura mínima	22.4
49372	7	Sololá	717	San Juan la Laguna	12	San Juan la Laguna	4	Abril	2023-04-21T00:00:00	2024-11-08T13:00:00	5	Humedad	67
49373	7	Sololá	717	San Juan la Laguna	12	San Juan la Laguna	4	Abril	2023-04-21T00:00:00	2024-11-08T13:00:00	6	Velocidad del viento	6.4
49374	7	Sololá	717	San Juan la Laguna	12	San Juan la Laguna	4	Abril	2023-04-21T00:00:00	2024-11-08T13:00:00	7	Dirección del viento	6.44
49375	7	Sololá	717	San Juan la Laguna	12	San Juan la Laguna	4	Abril	2023-04-21T00:00:00	2024-11-08T13:00:00	1	Precipitación	0
49376	7	Sololá	717	San Juan la Laguna	12	San Juan la Laguna	4	Abril	2023-04-21T00:00:00	2024-11-08T13:00:00	8	Radiación solar	719
49377	7	Sololá	717	San Juan la Laguna	12	San Juan la Laguna	4	Abril	2023-04-21T00:00:00	2024-11-08T14:00:00	2	Temperatura media	22.1
49378	7	Sololá	717	San Juan la Laguna	12	San Juan la Laguna	4	Abril	2023-04-21T00:00:00	2024-11-08T14:00:00	4	Temperatura máxima	24.1
49379	7	Sololá	717	San Juan la Laguna	12	San Juan la Laguna	4	Abril	2023-04-21T00:00:00	2024-11-08T14:00:00	3	Temperatura mínima	21.6
49380	7	Sololá	717	San Juan la Laguna	12	San Juan la Laguna	4	Abril	2023-04-21T00:00:00	2024-11-08T14:00:00	5	Humedad	73
49381	7	Sololá	717	San Juan la Laguna	12	San Juan la Laguna	4	Abril	2023-04-21T00:00:00	2024-11-08T14:00:00	6	Velocidad del viento	8
49382	7	Sololá	717	San Juan la Laguna	12	San Juan la Laguna	4	Abril	2023-04-21T00:00:00	2024-11-08T14:00:00	7	Dirección del viento	8.05
49383	7	Sololá	717	San Juan la Laguna	12	San Juan la Laguna	4	Abril	2023-04-21T00:00:00	2024-11-08T14:00:00	1	Precipitación	0
49384	7	Sololá	717	San Juan la Laguna	12	San Juan la Laguna	4	Abril	2023-04-21T00:00:00	2024-11-08T14:00:00	8	Radiación solar	837
49385	7	Sololá	717	San Juan la Laguna	12	San Juan la Laguna	4	Abril	2023-04-21T00:00:00	2024-11-08T15:00:00	2	Temperatura media	21.4
49386	7	Sololá	717	San Juan la Laguna	12	San Juan la Laguna	4	Abril	2023-04-21T00:00:00	2024-11-08T15:00:00	4	Temperatura máxima	22.2
49387	7	Sololá	717	San Juan la Laguna	12	San Juan la Laguna	4	Abril	2023-04-21T00:00:00	2024-11-08T15:00:00	3	Temperatura mínima	21.4
49388	7	Sololá	717	San Juan la Laguna	12	San Juan la Laguna	4	Abril	2023-04-21T00:00:00	2024-11-08T15:00:00	5	Humedad	75
49389	7	Sololá	717	San Juan la Laguna	12	San Juan la Laguna	4	Abril	2023-04-21T00:00:00	2024-11-08T15:00:00	6	Velocidad del viento	8
49390	7	Sololá	717	San Juan la Laguna	12	San Juan la Laguna	4	Abril	2023-04-21T00:00:00	2024-11-08T15:00:00	7	Dirección del viento	8.05
49391	7	Sololá	717	San Juan la Laguna	12	San Juan la Laguna	4	Abril	2023-04-21T00:00:00	2024-11-08T15:00:00	1	Precipitación	0
49392	7	Sololá	717	San Juan la Laguna	12	San Juan la Laguna	4	Abril	2023-04-21T00:00:00	2024-11-08T15:00:00	8	Radiación solar	598
49393	7	Sololá	717	San Juan la Laguna	12	San Juan la Laguna	4	Abril	2023-04-21T00:00:00	2024-11-08T16:00:00	2	Temperatura media	21.8
49394	7	Sololá	717	San Juan la Laguna	12	San Juan la Laguna	4	Abril	2023-04-21T00:00:00	2024-11-08T16:00:00	4	Temperatura máxima	22.3
49395	7	Sololá	717	San Juan la Laguna	12	San Juan la Laguna	4	Abril	2023-04-21T00:00:00	2024-11-08T16:00:00	3	Temperatura mínima	21.3
49396	7	Sololá	717	San Juan la Laguna	12	San Juan la Laguna	4	Abril	2023-04-21T00:00:00	2024-11-08T16:00:00	5	Humedad	73
49397	7	Sololá	717	San Juan la Laguna	12	San Juan la Laguna	4	Abril	2023-04-21T00:00:00	2024-11-08T16:00:00	6	Velocidad del viento	6.4
49398	7	Sololá	717	San Juan la Laguna	12	San Juan la Laguna	4	Abril	2023-04-21T00:00:00	2024-11-08T16:00:00	7	Dirección del viento	6.44
49399	7	Sololá	717	San Juan la Laguna	12	San Juan la Laguna	4	Abril	2023-04-21T00:00:00	2024-11-08T16:00:00	1	Precipitación	0
49400	7	Sololá	717	San Juan la Laguna	12	San Juan la Laguna	4	Abril	2023-04-21T00:00:00	2024-11-08T16:00:00	8	Radiación solar	414
49401	7	Sololá	717	San Juan la Laguna	12	San Juan la Laguna	4	Abril	2023-04-21T00:00:00	2024-11-08T17:00:00	2	Temperatura media	21.2
49402	7	Sololá	717	San Juan la Laguna	12	San Juan la Laguna	4	Abril	2023-04-21T00:00:00	2024-11-08T17:00:00	4	Temperatura máxima	21.8
49403	7	Sololá	717	San Juan la Laguna	12	San Juan la Laguna	4	Abril	2023-04-21T00:00:00	2024-11-08T17:00:00	3	Temperatura mínima	21.2
49404	7	Sololá	717	San Juan la Laguna	12	San Juan la Laguna	4	Abril	2023-04-21T00:00:00	2024-11-08T17:00:00	5	Humedad	76
49405	7	Sololá	717	San Juan la Laguna	12	San Juan la Laguna	4	Abril	2023-04-21T00:00:00	2024-11-08T17:00:00	6	Velocidad del viento	3.2
49406	7	Sololá	717	San Juan la Laguna	12	San Juan la Laguna	4	Abril	2023-04-21T00:00:00	2024-11-08T17:00:00	7	Dirección del viento	3.22
49407	7	Sololá	717	San Juan la Laguna	12	San Juan la Laguna	4	Abril	2023-04-21T00:00:00	2024-11-08T17:00:00	1	Precipitación	0
49408	7	Sololá	717	San Juan la Laguna	12	San Juan la Laguna	4	Abril	2023-04-21T00:00:00	2024-11-08T17:00:00	8	Radiación solar	90
49409	7	Sololá	717	San Juan la Laguna	12	San Juan la Laguna	4	Abril	2023-04-21T00:00:00	2024-11-08T18:00:00	2	Temperatura media	20.5
49410	7	Sololá	717	San Juan la Laguna	12	San Juan la Laguna	4	Abril	2023-04-21T00:00:00	2024-11-08T18:00:00	4	Temperatura máxima	21.2
49411	7	Sololá	717	San Juan la Laguna	12	San Juan la Laguna	4	Abril	2023-04-21T00:00:00	2024-11-08T18:00:00	3	Temperatura mínima	20.5
49412	7	Sololá	717	San Juan la Laguna	12	San Juan la Laguna	4	Abril	2023-04-21T00:00:00	2024-11-08T18:00:00	5	Humedad	79
49413	7	Sololá	717	San Juan la Laguna	12	San Juan la Laguna	4	Abril	2023-04-21T00:00:00	2024-11-08T18:00:00	6	Velocidad del viento	3.2
49414	7	Sololá	717	San Juan la Laguna	12	San Juan la Laguna	4	Abril	2023-04-21T00:00:00	2024-11-08T18:00:00	7	Dirección del viento	3.22
49415	7	Sololá	717	San Juan la Laguna	12	San Juan la Laguna	4	Abril	2023-04-21T00:00:00	2024-11-08T18:00:00	1	Precipitación	0
49416	7	Sololá	717	San Juan la Laguna	12	San Juan la Laguna	4	Abril	2023-04-21T00:00:00	2024-11-08T18:00:00	8	Radiación solar	42
49417	7	Sololá	717	San Juan la Laguna	12	San Juan la Laguna	4	Abril	2023-04-21T00:00:00	2024-11-08T19:00:00	2	Temperatura media	19.8
49418	7	Sololá	717	San Juan la Laguna	12	San Juan la Laguna	4	Abril	2023-04-21T00:00:00	2024-11-08T19:00:00	4	Temperatura máxima	20.5
49419	7	Sololá	717	San Juan la Laguna	12	San Juan la Laguna	4	Abril	2023-04-21T00:00:00	2024-11-08T19:00:00	3	Temperatura mínima	19.8
49420	7	Sololá	717	San Juan la Laguna	12	San Juan la Laguna	4	Abril	2023-04-21T00:00:00	2024-11-08T19:00:00	5	Humedad	81
49421	7	Sololá	717	San Juan la Laguna	12	San Juan la Laguna	4	Abril	2023-04-21T00:00:00	2024-11-08T19:00:00	6	Velocidad del viento	1.6
49422	7	Sololá	717	San Juan la Laguna	12	San Juan la Laguna	4	Abril	2023-04-21T00:00:00	2024-11-08T19:00:00	7	Dirección del viento	1.61
49423	7	Sololá	717	San Juan la Laguna	12	San Juan la Laguna	4	Abril	2023-04-21T00:00:00	2024-11-08T19:00:00	1	Precipitación	0
49424	7	Sololá	717	San Juan la Laguna	12	San Juan la Laguna	4	Abril	2023-04-21T00:00:00	2024-11-08T19:00:00	8	Radiación solar	0
49425	7	Sololá	717	San Juan la Laguna	12	San Juan la Laguna	4	Abril	2023-04-21T00:00:00	2024-11-08T20:00:00	2	Temperatura media	19.7
49426	7	Sololá	717	San Juan la Laguna	12	San Juan la Laguna	4	Abril	2023-04-21T00:00:00	2024-11-08T20:00:00	4	Temperatura máxima	19.8
49427	7	Sololá	717	San Juan la Laguna	12	San Juan la Laguna	4	Abril	2023-04-21T00:00:00	2024-11-08T20:00:00	3	Temperatura mínima	19.5
49428	7	Sololá	717	San Juan la Laguna	12	San Juan la Laguna	4	Abril	2023-04-21T00:00:00	2024-11-08T20:00:00	5	Humedad	81
49429	7	Sololá	717	San Juan la Laguna	12	San Juan la Laguna	4	Abril	2023-04-21T00:00:00	2024-11-08T20:00:00	6	Velocidad del viento	0
49430	7	Sololá	717	San Juan la Laguna	12	San Juan la Laguna	4	Abril	2023-04-21T00:00:00	2024-11-08T20:00:00	7	Dirección del viento	0
49431	7	Sololá	717	San Juan la Laguna	12	San Juan la Laguna	4	Abril	2023-04-21T00:00:00	2024-11-08T20:00:00	1	Precipitación	0
49432	7	Sololá	717	San Juan la Laguna	12	San Juan la Laguna	4	Abril	2023-04-21T00:00:00	2024-11-08T20:00:00	8	Radiación solar	0
49433	7	Sololá	717	San Juan la Laguna	12	San Juan la Laguna	4	Abril	2023-04-21T00:00:00	2024-11-08T21:00:00	2	Temperatura media	18.3
49434	7	Sololá	717	San Juan la Laguna	12	San Juan la Laguna	4	Abril	2023-04-21T00:00:00	2024-11-08T21:00:00	4	Temperatura máxima	19.7
49435	7	Sololá	717	San Juan la Laguna	12	San Juan la Laguna	4	Abril	2023-04-21T00:00:00	2024-11-08T21:00:00	3	Temperatura mínima	18.3
49436	7	Sololá	717	San Juan la Laguna	12	San Juan la Laguna	4	Abril	2023-04-21T00:00:00	2024-11-08T21:00:00	5	Humedad	83
49437	7	Sololá	717	San Juan la Laguna	12	San Juan la Laguna	4	Abril	2023-04-21T00:00:00	2024-11-08T21:00:00	6	Velocidad del viento	1.6
49438	7	Sololá	717	San Juan la Laguna	12	San Juan la Laguna	4	Abril	2023-04-21T00:00:00	2024-11-08T21:00:00	7	Dirección del viento	1.61
49439	7	Sololá	717	San Juan la Laguna	12	San Juan la Laguna	4	Abril	2023-04-21T00:00:00	2024-11-08T21:00:00	1	Precipitación	0
49440	7	Sololá	717	San Juan la Laguna	12	San Juan la Laguna	4	Abril	2023-04-21T00:00:00	2024-11-08T21:00:00	8	Radiación solar	0
49441	7	Sololá	717	San Juan la Laguna	12	San Juan la Laguna	4	Abril	2023-04-21T00:00:00	2024-11-08T22:00:00	2	Temperatura media	17.4
49442	7	Sololá	717	San Juan la Laguna	12	San Juan la Laguna	4	Abril	2023-04-21T00:00:00	2024-11-08T22:00:00	4	Temperatura máxima	18.4
49443	7	Sololá	717	San Juan la Laguna	12	San Juan la Laguna	4	Abril	2023-04-21T00:00:00	2024-11-08T22:00:00	3	Temperatura mínima	17.4
49444	7	Sololá	717	San Juan la Laguna	12	San Juan la Laguna	4	Abril	2023-04-21T00:00:00	2024-11-08T22:00:00	5	Humedad	85
49445	7	Sololá	717	San Juan la Laguna	12	San Juan la Laguna	4	Abril	2023-04-21T00:00:00	2024-11-08T22:00:00	6	Velocidad del viento	1.6
49446	7	Sololá	717	San Juan la Laguna	12	San Juan la Laguna	4	Abril	2023-04-21T00:00:00	2024-11-08T22:00:00	7	Dirección del viento	1.61
49447	7	Sololá	717	San Juan la Laguna	12	San Juan la Laguna	4	Abril	2023-04-21T00:00:00	2024-11-08T22:00:00	1	Precipitación	0
49448	7	Sololá	717	San Juan la Laguna	12	San Juan la Laguna	4	Abril	2023-04-21T00:00:00	2024-11-08T22:00:00	8	Radiación solar	0
49449	7	Sololá	717	San Juan la Laguna	12	San Juan la Laguna	4	Abril	2023-04-21T00:00:00	2024-11-08T23:00:00	2	Temperatura media	16.9
49450	7	Sololá	717	San Juan la Laguna	12	San Juan la Laguna	4	Abril	2023-04-21T00:00:00	2024-11-08T23:00:00	4	Temperatura máxima	17.4
49451	7	Sololá	717	San Juan la Laguna	12	San Juan la Laguna	4	Abril	2023-04-21T00:00:00	2024-11-08T23:00:00	3	Temperatura mínima	16.8
49452	7	Sololá	717	San Juan la Laguna	12	San Juan la Laguna	4	Abril	2023-04-21T00:00:00	2024-11-08T23:00:00	5	Humedad	88
49453	7	Sololá	717	San Juan la Laguna	12	San Juan la Laguna	4	Abril	2023-04-21T00:00:00	2024-11-08T23:00:00	6	Velocidad del viento	1.6
49454	7	Sololá	717	San Juan la Laguna	12	San Juan la Laguna	4	Abril	2023-04-21T00:00:00	2024-11-08T23:00:00	7	Dirección del viento	1.61
49455	7	Sololá	717	San Juan la Laguna	12	San Juan la Laguna	4	Abril	2023-04-21T00:00:00	2024-11-08T23:00:00	1	Precipitación	0
49456	7	Sololá	717	San Juan la Laguna	12	San Juan la Laguna	4	Abril	2023-04-21T00:00:00	2024-11-08T23:00:00	8	Radiación solar	0
49457	7	Sololá	717	San Juan la Laguna	12	San Juan la Laguna	4	Abril	2023-04-22T00:00:00	2024-11-08T00:00:00	2	Temperatura media	16.4
49458	7	Sololá	717	San Juan la Laguna	12	San Juan la Laguna	4	Abril	2023-04-22T00:00:00	2024-11-08T00:00:00	4	Temperatura máxima	16.9
49459	7	Sololá	717	San Juan la Laguna	12	San Juan la Laguna	4	Abril	2023-04-22T00:00:00	2024-11-08T00:00:00	3	Temperatura mínima	16.2
49460	7	Sololá	717	San Juan la Laguna	12	San Juan la Laguna	4	Abril	2023-04-22T00:00:00	2024-11-08T00:00:00	5	Humedad	87
49461	7	Sololá	717	San Juan la Laguna	12	San Juan la Laguna	4	Abril	2023-04-22T00:00:00	2024-11-08T00:00:00	6	Velocidad del viento	1.6
49462	7	Sololá	717	San Juan la Laguna	12	San Juan la Laguna	4	Abril	2023-04-22T00:00:00	2024-11-08T00:00:00	7	Dirección del viento	1.61
49463	7	Sololá	717	San Juan la Laguna	12	San Juan la Laguna	4	Abril	2023-04-22T00:00:00	2024-11-08T00:00:00	1	Precipitación	0
49464	7	Sololá	717	San Juan la Laguna	12	San Juan la Laguna	4	Abril	2023-04-22T00:00:00	2024-11-08T00:00:00	8	Radiación solar	0
49465	7	Sololá	717	San Juan la Laguna	12	San Juan la Laguna	4	Abril	2023-04-22T00:00:00	2024-11-08T01:00:00	2	Temperatura media	15.9
49466	7	Sololá	717	San Juan la Laguna	12	San Juan la Laguna	4	Abril	2023-04-22T00:00:00	2024-11-08T01:00:00	4	Temperatura máxima	16.4
49467	7	Sololá	717	San Juan la Laguna	12	San Juan la Laguna	4	Abril	2023-04-22T00:00:00	2024-11-08T01:00:00	3	Temperatura mínima	15.8
49468	7	Sololá	717	San Juan la Laguna	12	San Juan la Laguna	4	Abril	2023-04-22T00:00:00	2024-11-08T01:00:00	5	Humedad	86
49469	7	Sololá	717	San Juan la Laguna	12	San Juan la Laguna	4	Abril	2023-04-22T00:00:00	2024-11-08T01:00:00	6	Velocidad del viento	1.6
49470	7	Sololá	717	San Juan la Laguna	12	San Juan la Laguna	4	Abril	2023-04-22T00:00:00	2024-11-08T01:00:00	7	Dirección del viento	1.61
49471	7	Sololá	717	San Juan la Laguna	12	San Juan la Laguna	4	Abril	2023-04-22T00:00:00	2024-11-08T01:00:00	1	Precipitación	0
49472	7	Sololá	717	San Juan la Laguna	12	San Juan la Laguna	4	Abril	2023-04-22T00:00:00	2024-11-08T01:00:00	8	Radiación solar	0
49473	7	Sololá	717	San Juan la Laguna	12	San Juan la Laguna	4	Abril	2023-04-22T00:00:00	2024-11-08T02:00:00	2	Temperatura media	15.8
49474	7	Sololá	717	San Juan la Laguna	12	San Juan la Laguna	4	Abril	2023-04-22T00:00:00	2024-11-08T02:00:00	4	Temperatura máxima	16
49475	7	Sololá	717	San Juan la Laguna	12	San Juan la Laguna	4	Abril	2023-04-22T00:00:00	2024-11-08T02:00:00	3	Temperatura mínima	15.7
49476	7	Sololá	717	San Juan la Laguna	12	San Juan la Laguna	4	Abril	2023-04-22T00:00:00	2024-11-08T02:00:00	5	Humedad	84
49477	7	Sololá	717	San Juan la Laguna	12	San Juan la Laguna	4	Abril	2023-04-22T00:00:00	2024-11-08T02:00:00	6	Velocidad del viento	1.6
49478	7	Sololá	717	San Juan la Laguna	12	San Juan la Laguna	4	Abril	2023-04-22T00:00:00	2024-11-08T02:00:00	7	Dirección del viento	1.61
49479	7	Sololá	717	San Juan la Laguna	12	San Juan la Laguna	4	Abril	2023-04-22T00:00:00	2024-11-08T02:00:00	1	Precipitación	0
49480	7	Sololá	717	San Juan la Laguna	12	San Juan la Laguna	4	Abril	2023-04-22T00:00:00	2024-11-08T02:00:00	8	Radiación solar	0
49481	7	Sololá	717	San Juan la Laguna	12	San Juan la Laguna	4	Abril	2023-04-22T00:00:00	2024-11-08T03:00:00	2	Temperatura media	15.2
49482	7	Sololá	717	San Juan la Laguna	12	San Juan la Laguna	4	Abril	2023-04-22T00:00:00	2024-11-08T03:00:00	4	Temperatura máxima	15.9
49483	7	Sololá	717	San Juan la Laguna	12	San Juan la Laguna	4	Abril	2023-04-22T00:00:00	2024-11-08T03:00:00	3	Temperatura mínima	15.1
49484	7	Sololá	717	San Juan la Laguna	12	San Juan la Laguna	4	Abril	2023-04-22T00:00:00	2024-11-08T03:00:00	5	Humedad	85
49485	7	Sololá	717	San Juan la Laguna	12	San Juan la Laguna	4	Abril	2023-04-22T00:00:00	2024-11-08T03:00:00	6	Velocidad del viento	1.6
49486	7	Sololá	717	San Juan la Laguna	12	San Juan la Laguna	4	Abril	2023-04-22T00:00:00	2024-11-08T03:00:00	7	Dirección del viento	1.61
49487	7	Sololá	717	San Juan la Laguna	12	San Juan la Laguna	4	Abril	2023-04-22T00:00:00	2024-11-08T03:00:00	1	Precipitación	0
49488	7	Sololá	717	San Juan la Laguna	12	San Juan la Laguna	4	Abril	2023-04-22T00:00:00	2024-11-08T03:00:00	8	Radiación solar	0
49489	7	Sololá	717	San Juan la Laguna	12	San Juan la Laguna	4	Abril	2023-04-22T00:00:00	2024-11-08T04:00:00	2	Temperatura media	15.1
49490	7	Sololá	717	San Juan la Laguna	12	San Juan la Laguna	4	Abril	2023-04-22T00:00:00	2024-11-08T04:00:00	4	Temperatura máxima	15.3
49491	7	Sololá	717	San Juan la Laguna	12	San Juan la Laguna	4	Abril	2023-04-22T00:00:00	2024-11-08T04:00:00	3	Temperatura mínima	15.1
49492	7	Sololá	717	San Juan la Laguna	12	San Juan la Laguna	4	Abril	2023-04-22T00:00:00	2024-11-08T04:00:00	5	Humedad	85
49493	7	Sololá	717	San Juan la Laguna	12	San Juan la Laguna	4	Abril	2023-04-22T00:00:00	2024-11-08T04:00:00	6	Velocidad del viento	1.6
49494	7	Sololá	717	San Juan la Laguna	12	San Juan la Laguna	4	Abril	2023-04-22T00:00:00	2024-11-08T04:00:00	7	Dirección del viento	1.61
49495	7	Sololá	717	San Juan la Laguna	12	San Juan la Laguna	4	Abril	2023-04-22T00:00:00	2024-11-08T04:00:00	1	Precipitación	0
49496	7	Sololá	717	San Juan la Laguna	12	San Juan la Laguna	4	Abril	2023-04-22T00:00:00	2024-11-08T04:00:00	8	Radiación solar	0
49497	7	Sololá	717	San Juan la Laguna	12	San Juan la Laguna	4	Abril	2023-04-22T00:00:00	2024-11-08T05:00:00	2	Temperatura media	15.1
49498	7	Sololá	717	San Juan la Laguna	12	San Juan la Laguna	4	Abril	2023-04-22T00:00:00	2024-11-08T05:00:00	4	Temperatura máxima	15.1
49499	7	Sololá	717	San Juan la Laguna	12	San Juan la Laguna	4	Abril	2023-04-22T00:00:00	2024-11-08T05:00:00	3	Temperatura mínima	14.8
49500	7	Sololá	717	San Juan la Laguna	12	San Juan la Laguna	4	Abril	2023-04-22T00:00:00	2024-11-08T05:00:00	5	Humedad	85
49501	7	Sololá	717	San Juan la Laguna	12	San Juan la Laguna	4	Abril	2023-04-22T00:00:00	2024-11-08T05:00:00	6	Velocidad del viento	1.6
49502	7	Sololá	717	San Juan la Laguna	12	San Juan la Laguna	4	Abril	2023-04-22T00:00:00	2024-11-08T05:00:00	7	Dirección del viento	1.61
49503	7	Sololá	717	San Juan la Laguna	12	San Juan la Laguna	4	Abril	2023-04-22T00:00:00	2024-11-08T05:00:00	1	Precipitación	0
49504	7	Sololá	717	San Juan la Laguna	12	San Juan la Laguna	4	Abril	2023-04-22T00:00:00	2024-11-08T05:00:00	8	Radiación solar	0
49505	7	Sololá	717	San Juan la Laguna	12	San Juan la Laguna	4	Abril	2023-04-22T00:00:00	2024-11-08T06:00:00	2	Temperatura media	14.3
49506	7	Sololá	717	San Juan la Laguna	12	San Juan la Laguna	4	Abril	2023-04-22T00:00:00	2024-11-08T06:00:00	4	Temperatura máxima	15.2
49507	7	Sololá	717	San Juan la Laguna	12	San Juan la Laguna	4	Abril	2023-04-22T00:00:00	2024-11-08T06:00:00	3	Temperatura mínima	14.3
49508	7	Sololá	717	San Juan la Laguna	12	San Juan la Laguna	4	Abril	2023-04-22T00:00:00	2024-11-08T06:00:00	5	Humedad	86
49509	7	Sololá	717	San Juan la Laguna	12	San Juan la Laguna	4	Abril	2023-04-22T00:00:00	2024-11-08T06:00:00	6	Velocidad del viento	1.6
49510	7	Sololá	717	San Juan la Laguna	12	San Juan la Laguna	4	Abril	2023-04-22T00:00:00	2024-11-08T06:00:00	7	Dirección del viento	1.61
49511	7	Sololá	717	San Juan la Laguna	12	San Juan la Laguna	4	Abril	2023-04-22T00:00:00	2024-11-08T06:00:00	1	Precipitación	0
49512	7	Sololá	717	San Juan la Laguna	12	San Juan la Laguna	4	Abril	2023-04-22T00:00:00	2024-11-08T06:00:00	8	Radiación solar	2
49513	7	Sololá	717	San Juan la Laguna	12	San Juan la Laguna	4	Abril	2023-04-22T00:00:00	2024-11-08T07:00:00	2	Temperatura media	16.3
49514	7	Sololá	717	San Juan la Laguna	12	San Juan la Laguna	4	Abril	2023-04-22T00:00:00	2024-11-08T07:00:00	4	Temperatura máxima	16.3
49515	7	Sololá	717	San Juan la Laguna	12	San Juan la Laguna	4	Abril	2023-04-22T00:00:00	2024-11-08T07:00:00	3	Temperatura mínima	14.2
49516	7	Sololá	717	San Juan la Laguna	12	San Juan la Laguna	4	Abril	2023-04-22T00:00:00	2024-11-08T07:00:00	5	Humedad	80
49517	7	Sololá	717	San Juan la Laguna	12	San Juan la Laguna	4	Abril	2023-04-22T00:00:00	2024-11-08T07:00:00	6	Velocidad del viento	1.6
49518	7	Sololá	717	San Juan la Laguna	12	San Juan la Laguna	4	Abril	2023-04-22T00:00:00	2024-11-08T07:00:00	7	Dirección del viento	1.61
49519	7	Sololá	717	San Juan la Laguna	12	San Juan la Laguna	4	Abril	2023-04-22T00:00:00	2024-11-08T07:00:00	1	Precipitación	0
49520	7	Sololá	717	San Juan la Laguna	12	San Juan la Laguna	4	Abril	2023-04-22T00:00:00	2024-11-08T07:00:00	8	Radiación solar	77
49521	7	Sololá	717	San Juan la Laguna	12	San Juan la Laguna	4	Abril	2023-04-22T00:00:00	2024-11-08T08:00:00	2	Temperatura media	20.3
49522	7	Sololá	717	San Juan la Laguna	12	San Juan la Laguna	4	Abril	2023-04-22T00:00:00	2024-11-08T08:00:00	4	Temperatura máxima	20.5
49523	7	Sololá	717	San Juan la Laguna	12	San Juan la Laguna	4	Abril	2023-04-22T00:00:00	2024-11-08T08:00:00	3	Temperatura mínima	16.4
49524	7	Sololá	717	San Juan la Laguna	12	San Juan la Laguna	4	Abril	2023-04-22T00:00:00	2024-11-08T08:00:00	5	Humedad	77
49525	7	Sololá	717	San Juan la Laguna	12	San Juan la Laguna	4	Abril	2023-04-22T00:00:00	2024-11-08T08:00:00	6	Velocidad del viento	0
49526	7	Sololá	717	San Juan la Laguna	12	San Juan la Laguna	4	Abril	2023-04-22T00:00:00	2024-11-08T08:00:00	7	Dirección del viento	0
49527	7	Sololá	717	San Juan la Laguna	12	San Juan la Laguna	4	Abril	2023-04-22T00:00:00	2024-11-08T08:00:00	1	Precipitación	0
49528	7	Sololá	717	San Juan la Laguna	12	San Juan la Laguna	4	Abril	2023-04-22T00:00:00	2024-11-08T08:00:00	8	Radiación solar	286
49529	7	Sololá	717	San Juan la Laguna	12	San Juan la Laguna	4	Abril	2023-04-22T00:00:00	2024-11-08T09:00:00	2	Temperatura media	20.4
49530	7	Sololá	717	San Juan la Laguna	12	San Juan la Laguna	4	Abril	2023-04-22T00:00:00	2024-11-08T09:00:00	4	Temperatura máxima	21.2
49531	7	Sololá	717	San Juan la Laguna	12	San Juan la Laguna	4	Abril	2023-04-22T00:00:00	2024-11-08T09:00:00	3	Temperatura mínima	20.2
49532	7	Sololá	717	San Juan la Laguna	12	San Juan la Laguna	4	Abril	2023-04-22T00:00:00	2024-11-08T09:00:00	5	Humedad	77
49533	7	Sololá	717	San Juan la Laguna	12	San Juan la Laguna	4	Abril	2023-04-22T00:00:00	2024-11-08T09:00:00	6	Velocidad del viento	1.6
49534	7	Sololá	717	San Juan la Laguna	12	San Juan la Laguna	4	Abril	2023-04-22T00:00:00	2024-11-08T09:00:00	7	Dirección del viento	1.61
49535	7	Sololá	717	San Juan la Laguna	12	San Juan la Laguna	4	Abril	2023-04-22T00:00:00	2024-11-08T09:00:00	1	Precipitación	0
49536	7	Sololá	717	San Juan la Laguna	12	San Juan la Laguna	4	Abril	2023-04-22T00:00:00	2024-11-08T09:00:00	8	Radiación solar	440
49537	7	Sololá	717	San Juan la Laguna	12	San Juan la Laguna	4	Abril	2023-04-22T00:00:00	2024-11-08T10:00:00	2	Temperatura media	23.5
49538	7	Sololá	717	San Juan la Laguna	12	San Juan la Laguna	4	Abril	2023-04-22T00:00:00	2024-11-08T10:00:00	4	Temperatura máxima	23.5
49539	7	Sololá	717	San Juan la Laguna	12	San Juan la Laguna	4	Abril	2023-04-22T00:00:00	2024-11-08T10:00:00	3	Temperatura mínima	20.4
49540	7	Sololá	717	San Juan la Laguna	12	San Juan la Laguna	4	Abril	2023-04-22T00:00:00	2024-11-08T10:00:00	5	Humedad	67
49541	7	Sololá	717	San Juan la Laguna	12	San Juan la Laguna	4	Abril	2023-04-22T00:00:00	2024-11-08T10:00:00	6	Velocidad del viento	1.6
49542	7	Sololá	717	San Juan la Laguna	12	San Juan la Laguna	4	Abril	2023-04-22T00:00:00	2024-11-08T10:00:00	7	Dirección del viento	1.61
49543	7	Sololá	717	San Juan la Laguna	12	San Juan la Laguna	4	Abril	2023-04-22T00:00:00	2024-11-08T10:00:00	1	Precipitación	0
49544	7	Sololá	717	San Juan la Laguna	12	San Juan la Laguna	4	Abril	2023-04-22T00:00:00	2024-11-08T10:00:00	8	Radiación solar	612
49545	7	Sololá	717	San Juan la Laguna	12	San Juan la Laguna	4	Abril	2023-04-22T00:00:00	2024-11-08T11:00:00	2	Temperatura media	24.4
49546	7	Sololá	717	San Juan la Laguna	12	San Juan la Laguna	4	Abril	2023-04-22T00:00:00	2024-11-08T11:00:00	4	Temperatura máxima	25.4
49547	7	Sololá	717	San Juan la Laguna	12	San Juan la Laguna	4	Abril	2023-04-22T00:00:00	2024-11-08T11:00:00	3	Temperatura mínima	23.6
49548	7	Sololá	717	San Juan la Laguna	12	San Juan la Laguna	4	Abril	2023-04-22T00:00:00	2024-11-08T11:00:00	5	Humedad	61
49549	7	Sololá	717	San Juan la Laguna	12	San Juan la Laguna	4	Abril	2023-04-22T00:00:00	2024-11-08T11:00:00	6	Velocidad del viento	1.6
49550	7	Sololá	717	San Juan la Laguna	12	San Juan la Laguna	4	Abril	2023-04-22T00:00:00	2024-11-08T11:00:00	7	Dirección del viento	1.61
49551	7	Sololá	717	San Juan la Laguna	12	San Juan la Laguna	4	Abril	2023-04-22T00:00:00	2024-11-08T11:00:00	1	Precipitación	0
49552	7	Sololá	717	San Juan la Laguna	12	San Juan la Laguna	4	Abril	2023-04-22T00:00:00	2024-11-08T11:00:00	8	Radiación solar	837
49553	7	Sololá	717	San Juan la Laguna	12	San Juan la Laguna	4	Abril	2023-04-22T00:00:00	2024-11-08T12:00:00	2	Temperatura media	26.4
49554	7	Sololá	717	San Juan la Laguna	12	San Juan la Laguna	4	Abril	2023-04-22T00:00:00	2024-11-08T12:00:00	4	Temperatura máxima	26.4
49555	7	Sololá	717	San Juan la Laguna	12	San Juan la Laguna	4	Abril	2023-04-22T00:00:00	2024-11-08T12:00:00	3	Temperatura mínima	24.4
49556	7	Sololá	717	San Juan la Laguna	12	San Juan la Laguna	4	Abril	2023-04-22T00:00:00	2024-11-08T12:00:00	5	Humedad	52
49557	7	Sololá	717	San Juan la Laguna	12	San Juan la Laguna	4	Abril	2023-04-22T00:00:00	2024-11-08T12:00:00	6	Velocidad del viento	1.6
49558	7	Sololá	717	San Juan la Laguna	12	San Juan la Laguna	4	Abril	2023-04-22T00:00:00	2024-11-08T12:00:00	7	Dirección del viento	1.61
49559	7	Sololá	717	San Juan la Laguna	12	San Juan la Laguna	4	Abril	2023-04-22T00:00:00	2024-11-08T12:00:00	1	Precipitación	0
49560	7	Sololá	717	San Juan la Laguna	12	San Juan la Laguna	4	Abril	2023-04-22T00:00:00	2024-11-08T12:00:00	8	Radiación solar	919
49561	7	Sololá	717	San Juan la Laguna	12	San Juan la Laguna	4	Abril	2023-04-22T00:00:00	2024-11-08T13:00:00	2	Temperatura media	25.3
49562	7	Sololá	717	San Juan la Laguna	12	San Juan la Laguna	4	Abril	2023-04-22T00:00:00	2024-11-08T13:00:00	4	Temperatura máxima	26.8
49563	7	Sololá	717	San Juan la Laguna	12	San Juan la Laguna	4	Abril	2023-04-22T00:00:00	2024-11-08T13:00:00	3	Temperatura mínima	25.2
49564	7	Sololá	717	San Juan la Laguna	12	San Juan la Laguna	4	Abril	2023-04-22T00:00:00	2024-11-08T13:00:00	5	Humedad	64
49565	7	Sololá	717	San Juan la Laguna	12	San Juan la Laguna	4	Abril	2023-04-22T00:00:00	2024-11-08T13:00:00	6	Velocidad del viento	3.2
49566	7	Sololá	717	San Juan la Laguna	12	San Juan la Laguna	4	Abril	2023-04-22T00:00:00	2024-11-08T13:00:00	7	Dirección del viento	3.22
49567	7	Sololá	717	San Juan la Laguna	12	San Juan la Laguna	4	Abril	2023-04-22T00:00:00	2024-11-08T13:00:00	1	Precipitación	0
49568	7	Sololá	717	San Juan la Laguna	12	San Juan la Laguna	4	Abril	2023-04-22T00:00:00	2024-11-08T13:00:00	8	Radiación solar	899
49569	7	Sololá	717	San Juan la Laguna	12	San Juan la Laguna	4	Abril	2023-04-22T00:00:00	2024-11-08T14:00:00	2	Temperatura media	24.1
49570	7	Sololá	717	San Juan la Laguna	12	San Juan la Laguna	4	Abril	2023-04-22T00:00:00	2024-11-08T14:00:00	4	Temperatura máxima	25.4
49571	7	Sololá	717	San Juan la Laguna	12	San Juan la Laguna	4	Abril	2023-04-22T00:00:00	2024-11-08T14:00:00	3	Temperatura mínima	23.4
49572	7	Sololá	717	San Juan la Laguna	12	San Juan la Laguna	4	Abril	2023-04-22T00:00:00	2024-11-08T14:00:00	5	Humedad	69
49573	7	Sololá	717	San Juan la Laguna	12	San Juan la Laguna	4	Abril	2023-04-22T00:00:00	2024-11-08T14:00:00	6	Velocidad del viento	8
49574	7	Sololá	717	San Juan la Laguna	12	San Juan la Laguna	4	Abril	2023-04-22T00:00:00	2024-11-08T14:00:00	7	Dirección del viento	8.05
49575	7	Sololá	717	San Juan la Laguna	12	San Juan la Laguna	4	Abril	2023-04-22T00:00:00	2024-11-08T14:00:00	1	Precipitación	0
49576	7	Sololá	717	San Juan la Laguna	12	San Juan la Laguna	4	Abril	2023-04-22T00:00:00	2024-11-08T14:00:00	8	Radiación solar	880
49577	7	Sololá	717	San Juan la Laguna	12	San Juan la Laguna	4	Abril	2023-04-22T00:00:00	2024-11-08T15:00:00	2	Temperatura media	24.2
49578	7	Sololá	717	San Juan la Laguna	12	San Juan la Laguna	4	Abril	2023-04-22T00:00:00	2024-11-08T15:00:00	4	Temperatura máxima	24.4
49579	7	Sololá	717	San Juan la Laguna	12	San Juan la Laguna	4	Abril	2023-04-22T00:00:00	2024-11-08T15:00:00	3	Temperatura mínima	23.6
49580	7	Sololá	717	San Juan la Laguna	12	San Juan la Laguna	4	Abril	2023-04-22T00:00:00	2024-11-08T15:00:00	5	Humedad	67
49581	7	Sololá	717	San Juan la Laguna	12	San Juan la Laguna	4	Abril	2023-04-22T00:00:00	2024-11-08T15:00:00	6	Velocidad del viento	8
49582	7	Sololá	717	San Juan la Laguna	12	San Juan la Laguna	4	Abril	2023-04-22T00:00:00	2024-11-08T15:00:00	7	Dirección del viento	8.05
49583	7	Sololá	717	San Juan la Laguna	12	San Juan la Laguna	4	Abril	2023-04-22T00:00:00	2024-11-08T15:00:00	1	Precipitación	0
49584	7	Sololá	717	San Juan la Laguna	12	San Juan la Laguna	4	Abril	2023-04-22T00:00:00	2024-11-08T15:00:00	8	Radiación solar	708
49585	7	Sololá	717	San Juan la Laguna	12	San Juan la Laguna	4	Abril	2023-04-22T00:00:00	2024-11-08T16:00:00	2	Temperatura media	22.3
49586	7	Sololá	717	San Juan la Laguna	12	San Juan la Laguna	4	Abril	2023-04-22T00:00:00	2024-11-08T16:00:00	4	Temperatura máxima	24.4
49587	7	Sololá	717	San Juan la Laguna	12	San Juan la Laguna	4	Abril	2023-04-22T00:00:00	2024-11-08T16:00:00	3	Temperatura mínima	22.3
49588	7	Sololá	717	San Juan la Laguna	12	San Juan la Laguna	4	Abril	2023-04-22T00:00:00	2024-11-08T16:00:00	5	Humedad	75
49589	7	Sololá	717	San Juan la Laguna	12	San Juan la Laguna	4	Abril	2023-04-22T00:00:00	2024-11-08T16:00:00	6	Velocidad del viento	6.4
49590	7	Sololá	717	San Juan la Laguna	12	San Juan la Laguna	4	Abril	2023-04-22T00:00:00	2024-11-08T16:00:00	7	Dirección del viento	6.44
49591	7	Sololá	717	San Juan la Laguna	12	San Juan la Laguna	4	Abril	2023-04-22T00:00:00	2024-11-08T16:00:00	1	Precipitación	0
49592	7	Sololá	717	San Juan la Laguna	12	San Juan la Laguna	4	Abril	2023-04-22T00:00:00	2024-11-08T16:00:00	8	Radiación solar	448
49593	7	Sololá	717	San Juan la Laguna	12	San Juan la Laguna	4	Abril	2023-04-22T00:00:00	2024-11-08T17:00:00	2	Temperatura media	22.4
49594	7	Sololá	717	San Juan la Laguna	12	San Juan la Laguna	4	Abril	2023-04-22T00:00:00	2024-11-08T17:00:00	4	Temperatura máxima	22.6
49595	7	Sololá	717	San Juan la Laguna	12	San Juan la Laguna	4	Abril	2023-04-22T00:00:00	2024-11-08T17:00:00	3	Temperatura mínima	22.2
49596	7	Sololá	717	San Juan la Laguna	12	San Juan la Laguna	4	Abril	2023-04-22T00:00:00	2024-11-08T17:00:00	5	Humedad	77
49597	7	Sololá	717	San Juan la Laguna	12	San Juan la Laguna	4	Abril	2023-04-22T00:00:00	2024-11-08T17:00:00	6	Velocidad del viento	3.2
49598	7	Sololá	717	San Juan la Laguna	12	San Juan la Laguna	4	Abril	2023-04-22T00:00:00	2024-11-08T17:00:00	7	Dirección del viento	3.22
49599	7	Sololá	717	San Juan la Laguna	12	San Juan la Laguna	4	Abril	2023-04-22T00:00:00	2024-11-08T17:00:00	1	Precipitación	0
49600	7	Sololá	717	San Juan la Laguna	12	San Juan la Laguna	4	Abril	2023-04-22T00:00:00	2024-11-08T17:00:00	8	Radiación solar	141
49601	7	Sololá	717	San Juan la Laguna	12	San Juan la Laguna	4	Abril	2023-04-22T00:00:00	2024-11-08T18:00:00	2	Temperatura media	21.7
49602	7	Sololá	717	San Juan la Laguna	12	San Juan la Laguna	4	Abril	2023-04-22T00:00:00	2024-11-08T18:00:00	4	Temperatura máxima	22.4
49603	7	Sololá	717	San Juan la Laguna	12	San Juan la Laguna	4	Abril	2023-04-22T00:00:00	2024-11-08T18:00:00	3	Temperatura mínima	21.7
49604	7	Sololá	717	San Juan la Laguna	12	San Juan la Laguna	4	Abril	2023-04-22T00:00:00	2024-11-08T18:00:00	5	Humedad	79
49605	7	Sololá	717	San Juan la Laguna	12	San Juan la Laguna	4	Abril	2023-04-22T00:00:00	2024-11-08T18:00:00	6	Velocidad del viento	1.6
49606	7	Sololá	717	San Juan la Laguna	12	San Juan la Laguna	4	Abril	2023-04-22T00:00:00	2024-11-08T18:00:00	7	Dirección del viento	1.61
49607	7	Sololá	717	San Juan la Laguna	12	San Juan la Laguna	4	Abril	2023-04-22T00:00:00	2024-11-08T18:00:00	1	Precipitación	0
49608	7	Sololá	717	San Juan la Laguna	12	San Juan la Laguna	4	Abril	2023-04-22T00:00:00	2024-11-08T18:00:00	8	Radiación solar	39
49609	7	Sololá	717	San Juan la Laguna	12	San Juan la Laguna	4	Abril	2023-04-22T00:00:00	2024-11-08T19:00:00	2	Temperatura media	21.3
49610	7	Sololá	717	San Juan la Laguna	12	San Juan la Laguna	4	Abril	2023-04-22T00:00:00	2024-11-08T19:00:00	4	Temperatura máxima	21.7
49611	7	Sololá	717	San Juan la Laguna	12	San Juan la Laguna	4	Abril	2023-04-22T00:00:00	2024-11-08T19:00:00	3	Temperatura mínima	21.3
49612	7	Sololá	717	San Juan la Laguna	12	San Juan la Laguna	4	Abril	2023-04-22T00:00:00	2024-11-08T19:00:00	5	Humedad	81
49613	7	Sololá	717	San Juan la Laguna	12	San Juan la Laguna	4	Abril	2023-04-22T00:00:00	2024-11-08T19:00:00	6	Velocidad del viento	0
49614	7	Sololá	717	San Juan la Laguna	12	San Juan la Laguna	4	Abril	2023-04-22T00:00:00	2024-11-08T19:00:00	7	Dirección del viento	0
49615	7	Sololá	717	San Juan la Laguna	12	San Juan la Laguna	4	Abril	2023-04-22T00:00:00	2024-11-08T19:00:00	1	Precipitación	0
49616	7	Sololá	717	San Juan la Laguna	12	San Juan la Laguna	4	Abril	2023-04-22T00:00:00	2024-11-08T19:00:00	8	Radiación solar	0
49617	7	Sololá	717	San Juan la Laguna	12	San Juan la Laguna	4	Abril	2023-04-22T00:00:00	2024-11-08T20:00:00	2	Temperatura media	20.4
49618	7	Sololá	717	San Juan la Laguna	12	San Juan la Laguna	4	Abril	2023-04-22T00:00:00	2024-11-08T20:00:00	4	Temperatura máxima	21.3
49619	7	Sololá	717	San Juan la Laguna	12	San Juan la Laguna	4	Abril	2023-04-22T00:00:00	2024-11-08T20:00:00	3	Temperatura mínima	20.4
49620	7	Sololá	717	San Juan la Laguna	12	San Juan la Laguna	4	Abril	2023-04-22T00:00:00	2024-11-08T20:00:00	5	Humedad	83
49621	7	Sololá	717	San Juan la Laguna	12	San Juan la Laguna	4	Abril	2023-04-22T00:00:00	2024-11-08T20:00:00	6	Velocidad del viento	0
49622	7	Sololá	717	San Juan la Laguna	12	San Juan la Laguna	4	Abril	2023-04-22T00:00:00	2024-11-08T20:00:00	7	Dirección del viento	0
49623	7	Sololá	717	San Juan la Laguna	12	San Juan la Laguna	4	Abril	2023-04-22T00:00:00	2024-11-08T20:00:00	1	Precipitación	0
49624	7	Sololá	717	San Juan la Laguna	12	San Juan la Laguna	4	Abril	2023-04-22T00:00:00	2024-11-08T20:00:00	8	Radiación solar	0
49625	7	Sololá	717	San Juan la Laguna	12	San Juan la Laguna	4	Abril	2023-04-22T00:00:00	2024-11-08T21:00:00	2	Temperatura media	19.2
49626	7	Sololá	717	San Juan la Laguna	12	San Juan la Laguna	4	Abril	2023-04-22T00:00:00	2024-11-08T21:00:00	4	Temperatura máxima	20.4
49627	7	Sololá	717	San Juan la Laguna	12	San Juan la Laguna	4	Abril	2023-04-22T00:00:00	2024-11-08T21:00:00	3	Temperatura mínima	19.2
49628	7	Sololá	717	San Juan la Laguna	12	San Juan la Laguna	4	Abril	2023-04-22T00:00:00	2024-11-08T21:00:00	5	Humedad	84
49629	7	Sololá	717	San Juan la Laguna	12	San Juan la Laguna	4	Abril	2023-04-22T00:00:00	2024-11-08T21:00:00	6	Velocidad del viento	1.6
49630	7	Sololá	717	San Juan la Laguna	12	San Juan la Laguna	4	Abril	2023-04-22T00:00:00	2024-11-08T21:00:00	7	Dirección del viento	1.61
49631	7	Sololá	717	San Juan la Laguna	12	San Juan la Laguna	4	Abril	2023-04-22T00:00:00	2024-11-08T21:00:00	1	Precipitación	0
49632	7	Sololá	717	San Juan la Laguna	12	San Juan la Laguna	4	Abril	2023-04-22T00:00:00	2024-11-08T21:00:00	8	Radiación solar	0
49633	7	Sololá	717	San Juan la Laguna	12	San Juan la Laguna	4	Abril	2023-04-22T00:00:00	2024-11-08T22:00:00	2	Temperatura media	19.6
49634	7	Sololá	717	San Juan la Laguna	12	San Juan la Laguna	4	Abril	2023-04-22T00:00:00	2024-11-08T22:00:00	4	Temperatura máxima	19.6
49635	7	Sololá	717	San Juan la Laguna	12	San Juan la Laguna	4	Abril	2023-04-22T00:00:00	2024-11-08T22:00:00	3	Temperatura mínima	19.2
49636	7	Sololá	717	San Juan la Laguna	12	San Juan la Laguna	4	Abril	2023-04-22T00:00:00	2024-11-08T22:00:00	5	Humedad	84
49637	7	Sololá	717	San Juan la Laguna	12	San Juan la Laguna	4	Abril	2023-04-22T00:00:00	2024-11-08T22:00:00	6	Velocidad del viento	1.6
49638	7	Sololá	717	San Juan la Laguna	12	San Juan la Laguna	4	Abril	2023-04-22T00:00:00	2024-11-08T22:00:00	7	Dirección del viento	1.61
49639	7	Sololá	717	San Juan la Laguna	12	San Juan la Laguna	4	Abril	2023-04-22T00:00:00	2024-11-08T22:00:00	1	Precipitación	0
49640	7	Sololá	717	San Juan la Laguna	12	San Juan la Laguna	4	Abril	2023-04-22T00:00:00	2024-11-08T22:00:00	8	Radiación solar	0
49641	7	Sololá	717	San Juan la Laguna	12	San Juan la Laguna	4	Abril	2023-04-22T00:00:00	2024-11-08T23:00:00	2	Temperatura media	19.9
49642	7	Sololá	717	San Juan la Laguna	12	San Juan la Laguna	4	Abril	2023-04-22T00:00:00	2024-11-08T23:00:00	4	Temperatura máxima	20.1
49643	7	Sololá	717	San Juan la Laguna	12	San Juan la Laguna	4	Abril	2023-04-22T00:00:00	2024-11-08T23:00:00	3	Temperatura mínima	19.6
49644	7	Sololá	717	San Juan la Laguna	12	San Juan la Laguna	4	Abril	2023-04-22T00:00:00	2024-11-08T23:00:00	5	Humedad	85
49645	7	Sololá	717	San Juan la Laguna	12	San Juan la Laguna	4	Abril	2023-04-22T00:00:00	2024-11-08T23:00:00	6	Velocidad del viento	0
49646	7	Sololá	717	San Juan la Laguna	12	San Juan la Laguna	4	Abril	2023-04-22T00:00:00	2024-11-08T23:00:00	7	Dirección del viento	0
49647	7	Sololá	717	San Juan la Laguna	12	San Juan la Laguna	4	Abril	2023-04-22T00:00:00	2024-11-08T23:00:00	1	Precipitación	0
49648	7	Sololá	717	San Juan la Laguna	12	San Juan la Laguna	4	Abril	2023-04-22T00:00:00	2024-11-08T23:00:00	8	Radiación solar	0
49649	7	Sololá	717	San Juan la Laguna	12	San Juan la Laguna	4	Abril	2023-04-23T00:00:00	2024-11-08T00:00:00	2	Temperatura media	18.9
49650	7	Sololá	717	San Juan la Laguna	12	San Juan la Laguna	4	Abril	2023-04-23T00:00:00	2024-11-08T00:00:00	4	Temperatura máxima	20
49651	7	Sololá	717	San Juan la Laguna	12	San Juan la Laguna	4	Abril	2023-04-23T00:00:00	2024-11-08T00:00:00	3	Temperatura mínima	18.9
49652	7	Sololá	717	San Juan la Laguna	12	San Juan la Laguna	4	Abril	2023-04-23T00:00:00	2024-11-08T00:00:00	5	Humedad	89
49653	7	Sololá	717	San Juan la Laguna	12	San Juan la Laguna	4	Abril	2023-04-23T00:00:00	2024-11-08T00:00:00	6	Velocidad del viento	0
49654	7	Sololá	717	San Juan la Laguna	12	San Juan la Laguna	4	Abril	2023-04-23T00:00:00	2024-11-08T00:00:00	7	Dirección del viento	0
49655	7	Sololá	717	San Juan la Laguna	12	San Juan la Laguna	4	Abril	2023-04-23T00:00:00	2024-11-08T00:00:00	1	Precipitación	0
49656	7	Sololá	717	San Juan la Laguna	12	San Juan la Laguna	4	Abril	2023-04-23T00:00:00	2024-11-08T00:00:00	8	Radiación solar	0
49657	7	Sololá	717	San Juan la Laguna	12	San Juan la Laguna	4	Abril	2023-04-23T00:00:00	2024-11-08T01:00:00	2	Temperatura media	18.3
49658	7	Sololá	717	San Juan la Laguna	12	San Juan la Laguna	4	Abril	2023-04-23T00:00:00	2024-11-08T01:00:00	4	Temperatura máxima	19.1
49659	7	Sololá	717	San Juan la Laguna	12	San Juan la Laguna	4	Abril	2023-04-23T00:00:00	2024-11-08T01:00:00	3	Temperatura mínima	18.3
49660	7	Sololá	717	San Juan la Laguna	12	San Juan la Laguna	4	Abril	2023-04-23T00:00:00	2024-11-08T01:00:00	5	Humedad	81
49661	7	Sololá	717	San Juan la Laguna	12	San Juan la Laguna	4	Abril	2023-04-23T00:00:00	2024-11-08T01:00:00	6	Velocidad del viento	1.6
49662	7	Sololá	717	San Juan la Laguna	12	San Juan la Laguna	4	Abril	2023-04-23T00:00:00	2024-11-08T01:00:00	7	Dirección del viento	1.61
49663	7	Sololá	717	San Juan la Laguna	12	San Juan la Laguna	4	Abril	2023-04-23T00:00:00	2024-11-08T01:00:00	1	Precipitación	0
49664	7	Sololá	717	San Juan la Laguna	12	San Juan la Laguna	4	Abril	2023-04-23T00:00:00	2024-11-08T01:00:00	8	Radiación solar	0
49665	7	Sololá	717	San Juan la Laguna	12	San Juan la Laguna	4	Abril	2023-04-23T00:00:00	2024-11-08T02:00:00	2	Temperatura media	17.1
49666	7	Sololá	717	San Juan la Laguna	12	San Juan la Laguna	4	Abril	2023-04-23T00:00:00	2024-11-08T02:00:00	4	Temperatura máxima	18.3
49667	7	Sololá	717	San Juan la Laguna	12	San Juan la Laguna	4	Abril	2023-04-23T00:00:00	2024-11-08T02:00:00	3	Temperatura mínima	17
49668	7	Sololá	717	San Juan la Laguna	12	San Juan la Laguna	4	Abril	2023-04-23T00:00:00	2024-11-08T02:00:00	5	Humedad	83
49669	7	Sololá	717	San Juan la Laguna	12	San Juan la Laguna	4	Abril	2023-04-23T00:00:00	2024-11-08T02:00:00	6	Velocidad del viento	1.6
49670	7	Sololá	717	San Juan la Laguna	12	San Juan la Laguna	4	Abril	2023-04-23T00:00:00	2024-11-08T02:00:00	7	Dirección del viento	1.61
49671	7	Sololá	717	San Juan la Laguna	12	San Juan la Laguna	4	Abril	2023-04-23T00:00:00	2024-11-08T02:00:00	1	Precipitación	0
49672	7	Sololá	717	San Juan la Laguna	12	San Juan la Laguna	4	Abril	2023-04-23T00:00:00	2024-11-08T02:00:00	8	Radiación solar	0
49673	7	Sololá	717	San Juan la Laguna	12	San Juan la Laguna	4	Abril	2023-04-23T00:00:00	2024-11-08T03:00:00	2	Temperatura media	16.6
49674	7	Sololá	717	San Juan la Laguna	12	San Juan la Laguna	4	Abril	2023-04-23T00:00:00	2024-11-08T03:00:00	4	Temperatura máxima	17.1
49675	7	Sololá	717	San Juan la Laguna	12	San Juan la Laguna	4	Abril	2023-04-23T00:00:00	2024-11-08T03:00:00	3	Temperatura mínima	16.3
49676	7	Sololá	717	San Juan la Laguna	12	San Juan la Laguna	4	Abril	2023-04-23T00:00:00	2024-11-08T03:00:00	5	Humedad	83
49677	7	Sololá	717	San Juan la Laguna	12	San Juan la Laguna	4	Abril	2023-04-23T00:00:00	2024-11-08T03:00:00	6	Velocidad del viento	3.2
49678	7	Sololá	717	San Juan la Laguna	12	San Juan la Laguna	4	Abril	2023-04-23T00:00:00	2024-11-08T03:00:00	7	Dirección del viento	3.22
49679	7	Sololá	717	San Juan la Laguna	12	San Juan la Laguna	4	Abril	2023-04-23T00:00:00	2024-11-08T03:00:00	1	Precipitación	0
49680	7	Sololá	717	San Juan la Laguna	12	San Juan la Laguna	4	Abril	2023-04-23T00:00:00	2024-11-08T03:00:00	8	Radiación solar	0
49681	7	Sololá	717	San Juan la Laguna	12	San Juan la Laguna	4	Abril	2023-04-23T00:00:00	2024-11-08T04:00:00	2	Temperatura media	16.1
49682	7	Sololá	717	San Juan la Laguna	12	San Juan la Laguna	4	Abril	2023-04-23T00:00:00	2024-11-08T04:00:00	4	Temperatura máxima	16.8
49683	7	Sololá	717	San Juan la Laguna	12	San Juan la Laguna	4	Abril	2023-04-23T00:00:00	2024-11-08T04:00:00	3	Temperatura mínima	16.1
49684	7	Sololá	717	San Juan la Laguna	12	San Juan la Laguna	4	Abril	2023-04-23T00:00:00	2024-11-08T04:00:00	5	Humedad	83
49685	7	Sololá	717	San Juan la Laguna	12	San Juan la Laguna	4	Abril	2023-04-23T00:00:00	2024-11-08T04:00:00	6	Velocidad del viento	1.6
49686	7	Sololá	717	San Juan la Laguna	12	San Juan la Laguna	4	Abril	2023-04-23T00:00:00	2024-11-08T04:00:00	7	Dirección del viento	1.61
49687	7	Sololá	717	San Juan la Laguna	12	San Juan la Laguna	4	Abril	2023-04-23T00:00:00	2024-11-08T04:00:00	1	Precipitación	0
49688	7	Sololá	717	San Juan la Laguna	12	San Juan la Laguna	4	Abril	2023-04-23T00:00:00	2024-11-08T04:00:00	8	Radiación solar	0
49689	7	Sololá	717	San Juan la Laguna	12	San Juan la Laguna	4	Abril	2023-04-23T00:00:00	2024-11-08T05:00:00	2	Temperatura media	15.9
49690	7	Sololá	717	San Juan la Laguna	12	San Juan la Laguna	4	Abril	2023-04-23T00:00:00	2024-11-08T05:00:00	4	Temperatura máxima	16.2
49691	7	Sololá	717	San Juan la Laguna	12	San Juan la Laguna	4	Abril	2023-04-23T00:00:00	2024-11-08T05:00:00	3	Temperatura mínima	15.9
49692	7	Sololá	717	San Juan la Laguna	12	San Juan la Laguna	4	Abril	2023-04-23T00:00:00	2024-11-08T05:00:00	5	Humedad	81
49693	7	Sololá	717	San Juan la Laguna	12	San Juan la Laguna	4	Abril	2023-04-23T00:00:00	2024-11-08T05:00:00	6	Velocidad del viento	1.6
49694	7	Sololá	717	San Juan la Laguna	12	San Juan la Laguna	4	Abril	2023-04-23T00:00:00	2024-11-08T05:00:00	7	Dirección del viento	1.61
49695	7	Sololá	717	San Juan la Laguna	12	San Juan la Laguna	4	Abril	2023-04-23T00:00:00	2024-11-08T05:00:00	1	Precipitación	0
49696	7	Sololá	717	San Juan la Laguna	12	San Juan la Laguna	4	Abril	2023-04-23T00:00:00	2024-11-08T05:00:00	8	Radiación solar	0
49697	7	Sololá	717	San Juan la Laguna	12	San Juan la Laguna	4	Abril	2023-04-23T00:00:00	2024-11-08T06:00:00	2	Temperatura media	15.7
49698	7	Sololá	717	San Juan la Laguna	12	San Juan la Laguna	4	Abril	2023-04-23T00:00:00	2024-11-08T06:00:00	4	Temperatura máxima	16.1
49699	7	Sololá	717	San Juan la Laguna	12	San Juan la Laguna	4	Abril	2023-04-23T00:00:00	2024-11-08T06:00:00	3	Temperatura mínima	15.7
49700	7	Sololá	717	San Juan la Laguna	12	San Juan la Laguna	4	Abril	2023-04-23T00:00:00	2024-11-08T06:00:00	5	Humedad	81
49701	7	Sololá	717	San Juan la Laguna	12	San Juan la Laguna	4	Abril	2023-04-23T00:00:00	2024-11-08T06:00:00	6	Velocidad del viento	1.6
49702	7	Sololá	717	San Juan la Laguna	12	San Juan la Laguna	4	Abril	2023-04-23T00:00:00	2024-11-08T06:00:00	7	Dirección del viento	1.61
49703	7	Sololá	717	San Juan la Laguna	12	San Juan la Laguna	4	Abril	2023-04-23T00:00:00	2024-11-08T06:00:00	1	Precipitación	0
49704	7	Sololá	717	San Juan la Laguna	12	San Juan la Laguna	4	Abril	2023-04-23T00:00:00	2024-11-08T06:00:00	8	Radiación solar	1
49705	7	Sololá	717	San Juan la Laguna	12	San Juan la Laguna	4	Abril	2023-04-23T00:00:00	2024-11-08T07:00:00	2	Temperatura media	17.3
49706	7	Sololá	717	San Juan la Laguna	12	San Juan la Laguna	4	Abril	2023-04-23T00:00:00	2024-11-08T07:00:00	4	Temperatura máxima	17.3
49707	7	Sololá	717	San Juan la Laguna	12	San Juan la Laguna	4	Abril	2023-04-23T00:00:00	2024-11-08T07:00:00	3	Temperatura mínima	15.3
49708	7	Sololá	717	San Juan la Laguna	12	San Juan la Laguna	4	Abril	2023-04-23T00:00:00	2024-11-08T07:00:00	5	Humedad	78
49709	7	Sololá	717	San Juan la Laguna	12	San Juan la Laguna	4	Abril	2023-04-23T00:00:00	2024-11-08T07:00:00	6	Velocidad del viento	1.6
49710	7	Sololá	717	San Juan la Laguna	12	San Juan la Laguna	4	Abril	2023-04-23T00:00:00	2024-11-08T07:00:00	7	Dirección del viento	1.61
49711	7	Sololá	717	San Juan la Laguna	12	San Juan la Laguna	4	Abril	2023-04-23T00:00:00	2024-11-08T07:00:00	1	Precipitación	0
49712	7	Sololá	717	San Juan la Laguna	12	San Juan la Laguna	4	Abril	2023-04-23T00:00:00	2024-11-08T07:00:00	8	Radiación solar	75
49713	7	Sololá	717	San Juan la Laguna	12	San Juan la Laguna	4	Abril	2023-04-23T00:00:00	2024-11-08T08:00:00	2	Temperatura media	20.2
49714	7	Sololá	717	San Juan la Laguna	12	San Juan la Laguna	4	Abril	2023-04-23T00:00:00	2024-11-08T08:00:00	4	Temperatura máxima	20.2
49715	7	Sololá	717	San Juan la Laguna	12	San Juan la Laguna	4	Abril	2023-04-23T00:00:00	2024-11-08T08:00:00	3	Temperatura mínima	17.4
49716	7	Sololá	717	San Juan la Laguna	12	San Juan la Laguna	4	Abril	2023-04-23T00:00:00	2024-11-08T08:00:00	5	Humedad	75
49717	7	Sololá	717	San Juan la Laguna	12	San Juan la Laguna	4	Abril	2023-04-23T00:00:00	2024-11-08T08:00:00	6	Velocidad del viento	0
49718	7	Sololá	717	San Juan la Laguna	12	San Juan la Laguna	4	Abril	2023-04-23T00:00:00	2024-11-08T08:00:00	7	Dirección del viento	0
49719	7	Sololá	717	San Juan la Laguna	12	San Juan la Laguna	4	Abril	2023-04-23T00:00:00	2024-11-08T08:00:00	1	Precipitación	0
49720	7	Sololá	717	San Juan la Laguna	12	San Juan la Laguna	4	Abril	2023-04-23T00:00:00	2024-11-08T08:00:00	8	Radiación solar	271
49721	7	Sololá	717	San Juan la Laguna	12	San Juan la Laguna	4	Abril	2023-04-23T00:00:00	2024-11-08T09:00:00	2	Temperatura media	21.6
49722	7	Sololá	717	San Juan la Laguna	12	San Juan la Laguna	4	Abril	2023-04-23T00:00:00	2024-11-08T09:00:00	4	Temperatura máxima	21.7
49723	7	Sololá	717	San Juan la Laguna	12	San Juan la Laguna	4	Abril	2023-04-23T00:00:00	2024-11-08T09:00:00	3	Temperatura mínima	20.1
49724	7	Sololá	717	San Juan la Laguna	12	San Juan la Laguna	4	Abril	2023-04-23T00:00:00	2024-11-08T09:00:00	5	Humedad	71
49725	7	Sololá	717	San Juan la Laguna	12	San Juan la Laguna	4	Abril	2023-04-23T00:00:00	2024-11-08T09:00:00	6	Velocidad del viento	1.6
49726	7	Sololá	717	San Juan la Laguna	12	San Juan la Laguna	4	Abril	2023-04-23T00:00:00	2024-11-08T09:00:00	7	Dirección del viento	1.61
49727	7	Sololá	717	San Juan la Laguna	12	San Juan la Laguna	4	Abril	2023-04-23T00:00:00	2024-11-08T09:00:00	1	Precipitación	0
49728	7	Sololá	717	San Juan la Laguna	12	San Juan la Laguna	4	Abril	2023-04-23T00:00:00	2024-11-08T09:00:00	8	Radiación solar	421
49729	7	Sololá	717	San Juan la Laguna	12	San Juan la Laguna	4	Abril	2023-04-23T00:00:00	2024-11-08T10:00:00	2	Temperatura media	22.1
49730	7	Sololá	717	San Juan la Laguna	12	San Juan la Laguna	4	Abril	2023-04-23T00:00:00	2024-11-08T10:00:00	4	Temperatura máxima	22.5
49731	7	Sololá	717	San Juan la Laguna	12	San Juan la Laguna	4	Abril	2023-04-23T00:00:00	2024-11-08T10:00:00	3	Temperatura mínima	21.3
49732	7	Sololá	717	San Juan la Laguna	12	San Juan la Laguna	4	Abril	2023-04-23T00:00:00	2024-11-08T10:00:00	5	Humedad	71
49733	7	Sololá	717	San Juan la Laguna	12	San Juan la Laguna	4	Abril	2023-04-23T00:00:00	2024-11-08T10:00:00	6	Velocidad del viento	1.6
49734	7	Sololá	717	San Juan la Laguna	12	San Juan la Laguna	4	Abril	2023-04-23T00:00:00	2024-11-08T10:00:00	7	Dirección del viento	1.61
49735	7	Sololá	717	San Juan la Laguna	12	San Juan la Laguna	4	Abril	2023-04-23T00:00:00	2024-11-08T10:00:00	1	Precipitación	0
49736	7	Sololá	717	San Juan la Laguna	12	San Juan la Laguna	4	Abril	2023-04-23T00:00:00	2024-11-08T10:00:00	8	Radiación solar	621
49737	7	Sololá	717	San Juan la Laguna	12	San Juan la Laguna	4	Abril	2023-04-23T00:00:00	2024-11-08T11:00:00	2	Temperatura media	23.4
49738	7	Sololá	717	San Juan la Laguna	12	San Juan la Laguna	4	Abril	2023-04-23T00:00:00	2024-11-08T11:00:00	4	Temperatura máxima	23.6
49739	7	Sololá	717	San Juan la Laguna	12	San Juan la Laguna	4	Abril	2023-04-23T00:00:00	2024-11-08T11:00:00	3	Temperatura mínima	22.1
49740	7	Sololá	717	San Juan la Laguna	12	San Juan la Laguna	4	Abril	2023-04-23T00:00:00	2024-11-08T11:00:00	5	Humedad	70
49741	7	Sololá	717	San Juan la Laguna	12	San Juan la Laguna	4	Abril	2023-04-23T00:00:00	2024-11-08T11:00:00	6	Velocidad del viento	1.6
49742	7	Sololá	717	San Juan la Laguna	12	San Juan la Laguna	4	Abril	2023-04-23T00:00:00	2024-11-08T11:00:00	7	Dirección del viento	1.61
49743	7	Sololá	717	San Juan la Laguna	12	San Juan la Laguna	4	Abril	2023-04-23T00:00:00	2024-11-08T11:00:00	1	Precipitación	0
49744	7	Sololá	717	San Juan la Laguna	12	San Juan la Laguna	4	Abril	2023-04-23T00:00:00	2024-11-08T11:00:00	8	Radiación solar	813
49745	7	Sololá	717	San Juan la Laguna	12	San Juan la Laguna	4	Abril	2023-04-23T00:00:00	2024-11-08T12:00:00	2	Temperatura media	24.8
49746	7	Sololá	717	San Juan la Laguna	12	San Juan la Laguna	4	Abril	2023-04-23T00:00:00	2024-11-08T12:00:00	4	Temperatura máxima	25.2
49747	7	Sololá	717	San Juan la Laguna	12	San Juan la Laguna	4	Abril	2023-04-23T00:00:00	2024-11-08T12:00:00	3	Temperatura mínima	23.4
49748	7	Sololá	717	San Juan la Laguna	12	San Juan la Laguna	4	Abril	2023-04-23T00:00:00	2024-11-08T12:00:00	5	Humedad	59
49749	7	Sololá	717	San Juan la Laguna	12	San Juan la Laguna	4	Abril	2023-04-23T00:00:00	2024-11-08T12:00:00	6	Velocidad del viento	4.8
49750	7	Sololá	717	San Juan la Laguna	12	San Juan la Laguna	4	Abril	2023-04-23T00:00:00	2024-11-08T12:00:00	7	Dirección del viento	4.83
49751	7	Sololá	717	San Juan la Laguna	12	San Juan la Laguna	4	Abril	2023-04-23T00:00:00	2024-11-08T12:00:00	1	Precipitación	0
49752	7	Sololá	717	San Juan la Laguna	12	San Juan la Laguna	4	Abril	2023-04-23T00:00:00	2024-11-08T12:00:00	8	Radiación solar	827
49753	7	Sololá	717	San Juan la Laguna	12	San Juan la Laguna	4	Abril	2023-04-23T00:00:00	2024-11-08T13:00:00	2	Temperatura media	23.7
49754	7	Sololá	717	San Juan la Laguna	12	San Juan la Laguna	4	Abril	2023-04-23T00:00:00	2024-11-08T13:00:00	4	Temperatura máxima	25.6
49755	7	Sololá	717	San Juan la Laguna	12	San Juan la Laguna	4	Abril	2023-04-23T00:00:00	2024-11-08T13:00:00	3	Temperatura mínima	23.7
49756	7	Sololá	717	San Juan la Laguna	12	San Juan la Laguna	4	Abril	2023-04-23T00:00:00	2024-11-08T13:00:00	5	Humedad	70
49757	7	Sololá	717	San Juan la Laguna	12	San Juan la Laguna	4	Abril	2023-04-23T00:00:00	2024-11-08T13:00:00	6	Velocidad del viento	6.4
49758	7	Sololá	717	San Juan la Laguna	12	San Juan la Laguna	4	Abril	2023-04-23T00:00:00	2024-11-08T13:00:00	7	Dirección del viento	6.44
49759	7	Sololá	717	San Juan la Laguna	12	San Juan la Laguna	4	Abril	2023-04-23T00:00:00	2024-11-08T13:00:00	1	Precipitación	0
49760	7	Sololá	717	San Juan la Laguna	12	San Juan la Laguna	4	Abril	2023-04-23T00:00:00	2024-11-08T13:00:00	8	Radiación solar	775
49761	7	Sololá	717	San Juan la Laguna	12	San Juan la Laguna	4	Abril	2023-04-23T00:00:00	2024-11-08T14:00:00	2	Temperatura media	22
49762	7	Sololá	717	San Juan la Laguna	12	San Juan la Laguna	4	Abril	2023-04-23T00:00:00	2024-11-08T14:00:00	4	Temperatura máxima	23.9
49763	7	Sololá	717	San Juan la Laguna	12	San Juan la Laguna	4	Abril	2023-04-23T00:00:00	2024-11-08T14:00:00	3	Temperatura mínima	21.7
49764	7	Sololá	717	San Juan la Laguna	12	San Juan la Laguna	4	Abril	2023-04-23T00:00:00	2024-11-08T14:00:00	5	Humedad	73
49765	7	Sololá	717	San Juan la Laguna	12	San Juan la Laguna	4	Abril	2023-04-23T00:00:00	2024-11-08T14:00:00	6	Velocidad del viento	8
49766	7	Sololá	717	San Juan la Laguna	12	San Juan la Laguna	4	Abril	2023-04-23T00:00:00	2024-11-08T14:00:00	7	Dirección del viento	8.05
49767	7	Sololá	717	San Juan la Laguna	12	San Juan la Laguna	4	Abril	2023-04-23T00:00:00	2024-11-08T14:00:00	1	Precipitación	0
49768	7	Sololá	717	San Juan la Laguna	12	San Juan la Laguna	4	Abril	2023-04-23T00:00:00	2024-11-08T14:00:00	8	Radiación solar	390
49769	7	Sololá	717	San Juan la Laguna	12	San Juan la Laguna	4	Abril	2023-04-23T00:00:00	2024-11-08T15:00:00	2	Temperatura media	21.2
49770	7	Sololá	717	San Juan la Laguna	12	San Juan la Laguna	4	Abril	2023-04-23T00:00:00	2024-11-08T15:00:00	4	Temperatura máxima	22.7
49771	7	Sololá	717	San Juan la Laguna	12	San Juan la Laguna	4	Abril	2023-04-23T00:00:00	2024-11-08T15:00:00	3	Temperatura mínima	21.2
49772	7	Sololá	717	San Juan la Laguna	12	San Juan la Laguna	4	Abril	2023-04-23T00:00:00	2024-11-08T15:00:00	5	Humedad	77
49773	7	Sololá	717	San Juan la Laguna	12	San Juan la Laguna	4	Abril	2023-04-23T00:00:00	2024-11-08T15:00:00	6	Velocidad del viento	6.4
49774	7	Sololá	717	San Juan la Laguna	12	San Juan la Laguna	4	Abril	2023-04-23T00:00:00	2024-11-08T15:00:00	7	Dirección del viento	6.44
49775	7	Sololá	717	San Juan la Laguna	12	San Juan la Laguna	4	Abril	2023-04-23T00:00:00	2024-11-08T15:00:00	1	Precipitación	0
49776	7	Sololá	717	San Juan la Laguna	12	San Juan la Laguna	4	Abril	2023-04-23T00:00:00	2024-11-08T15:00:00	8	Radiación solar	453
49777	7	Sololá	717	San Juan la Laguna	12	San Juan la Laguna	4	Abril	2023-04-23T00:00:00	2024-11-08T16:00:00	2	Temperatura media	21.2
49778	7	Sololá	717	San Juan la Laguna	12	San Juan la Laguna	4	Abril	2023-04-23T00:00:00	2024-11-08T16:00:00	4	Temperatura máxima	21.2
49779	7	Sololá	717	San Juan la Laguna	12	San Juan la Laguna	4	Abril	2023-04-23T00:00:00	2024-11-08T16:00:00	3	Temperatura mínima	20.4
49780	7	Sololá	717	San Juan la Laguna	12	San Juan la Laguna	4	Abril	2023-04-23T00:00:00	2024-11-08T16:00:00	5	Humedad	77
49781	7	Sololá	717	San Juan la Laguna	12	San Juan la Laguna	4	Abril	2023-04-23T00:00:00	2024-11-08T16:00:00	6	Velocidad del viento	6.4
49782	7	Sololá	717	San Juan la Laguna	12	San Juan la Laguna	4	Abril	2023-04-23T00:00:00	2024-11-08T16:00:00	7	Dirección del viento	6.44
49783	7	Sololá	717	San Juan la Laguna	12	San Juan la Laguna	4	Abril	2023-04-23T00:00:00	2024-11-08T16:00:00	1	Precipitación	0
49784	7	Sololá	717	San Juan la Laguna	12	San Juan la Laguna	4	Abril	2023-04-23T00:00:00	2024-11-08T16:00:00	8	Radiación solar	262
49785	7	Sololá	717	San Juan la Laguna	12	San Juan la Laguna	4	Abril	2023-04-23T00:00:00	2024-11-08T17:00:00	2	Temperatura media	20.3
49786	7	Sololá	717	San Juan la Laguna	12	San Juan la Laguna	4	Abril	2023-04-23T00:00:00	2024-11-08T17:00:00	4	Temperatura máxima	21.2
49787	7	Sololá	717	San Juan la Laguna	12	San Juan la Laguna	4	Abril	2023-04-23T00:00:00	2024-11-08T17:00:00	3	Temperatura mínima	20.3
49788	7	Sololá	717	San Juan la Laguna	12	San Juan la Laguna	4	Abril	2023-04-23T00:00:00	2024-11-08T17:00:00	5	Humedad	79
49789	7	Sololá	717	San Juan la Laguna	12	San Juan la Laguna	4	Abril	2023-04-23T00:00:00	2024-11-08T17:00:00	6	Velocidad del viento	4.8
49790	7	Sololá	717	San Juan la Laguna	12	San Juan la Laguna	4	Abril	2023-04-23T00:00:00	2024-11-08T17:00:00	7	Dirección del viento	4.83
49791	7	Sololá	717	San Juan la Laguna	12	San Juan la Laguna	4	Abril	2023-04-23T00:00:00	2024-11-08T17:00:00	1	Precipitación	0
49792	7	Sololá	717	San Juan la Laguna	12	San Juan la Laguna	4	Abril	2023-04-23T00:00:00	2024-11-08T17:00:00	8	Radiación solar	84
49793	7	Sololá	717	San Juan la Laguna	12	San Juan la Laguna	4	Abril	2023-04-23T00:00:00	2024-11-08T18:00:00	2	Temperatura media	19.5
49794	7	Sololá	717	San Juan la Laguna	12	San Juan la Laguna	4	Abril	2023-04-23T00:00:00	2024-11-08T18:00:00	4	Temperatura máxima	20.3
49795	7	Sololá	717	San Juan la Laguna	12	San Juan la Laguna	4	Abril	2023-04-23T00:00:00	2024-11-08T18:00:00	3	Temperatura mínima	19.5
49796	7	Sololá	717	San Juan la Laguna	12	San Juan la Laguna	4	Abril	2023-04-23T00:00:00	2024-11-08T18:00:00	5	Humedad	84
49797	7	Sololá	717	San Juan la Laguna	12	San Juan la Laguna	4	Abril	2023-04-23T00:00:00	2024-11-08T18:00:00	6	Velocidad del viento	4.8
49798	7	Sololá	717	San Juan la Laguna	12	San Juan la Laguna	4	Abril	2023-04-23T00:00:00	2024-11-08T18:00:00	7	Dirección del viento	4.83
49799	7	Sololá	717	San Juan la Laguna	12	San Juan la Laguna	4	Abril	2023-04-23T00:00:00	2024-11-08T18:00:00	1	Precipitación	0
49800	7	Sololá	717	San Juan la Laguna	12	San Juan la Laguna	4	Abril	2023-04-23T00:00:00	2024-11-08T18:00:00	8	Radiación solar	10
49801	7	Sololá	717	San Juan la Laguna	12	San Juan la Laguna	4	Abril	2023-04-23T00:00:00	2024-11-08T19:00:00	2	Temperatura media	19.3
49802	7	Sololá	717	San Juan la Laguna	12	San Juan la Laguna	4	Abril	2023-04-23T00:00:00	2024-11-08T19:00:00	4	Temperatura máxima	19.5
49803	7	Sololá	717	San Juan la Laguna	12	San Juan la Laguna	4	Abril	2023-04-23T00:00:00	2024-11-08T19:00:00	3	Temperatura mínima	19.1
49804	7	Sololá	717	San Juan la Laguna	12	San Juan la Laguna	4	Abril	2023-04-23T00:00:00	2024-11-08T19:00:00	5	Humedad	86
49805	7	Sololá	717	San Juan la Laguna	12	San Juan la Laguna	4	Abril	2023-04-23T00:00:00	2024-11-08T19:00:00	6	Velocidad del viento	1.6
49806	7	Sololá	717	San Juan la Laguna	12	San Juan la Laguna	4	Abril	2023-04-23T00:00:00	2024-11-08T19:00:00	7	Dirección del viento	1.61
49807	7	Sololá	717	San Juan la Laguna	12	San Juan la Laguna	4	Abril	2023-04-23T00:00:00	2024-11-08T19:00:00	1	Precipitación	0
49808	7	Sololá	717	San Juan la Laguna	12	San Juan la Laguna	4	Abril	2023-04-23T00:00:00	2024-11-08T19:00:00	8	Radiación solar	0
49809	7	Sololá	717	San Juan la Laguna	12	San Juan la Laguna	4	Abril	2023-04-23T00:00:00	2024-11-08T20:00:00	2	Temperatura media	18.8
49810	7	Sololá	717	San Juan la Laguna	12	San Juan la Laguna	4	Abril	2023-04-23T00:00:00	2024-11-08T20:00:00	4	Temperatura máxima	19.3
49811	7	Sololá	717	San Juan la Laguna	12	San Juan la Laguna	4	Abril	2023-04-23T00:00:00	2024-11-08T20:00:00	3	Temperatura mínima	18.8
49812	7	Sololá	717	San Juan la Laguna	12	San Juan la Laguna	4	Abril	2023-04-23T00:00:00	2024-11-08T20:00:00	5	Humedad	87
49813	7	Sololá	717	San Juan la Laguna	12	San Juan la Laguna	4	Abril	2023-04-23T00:00:00	2024-11-08T20:00:00	6	Velocidad del viento	0
49814	7	Sololá	717	San Juan la Laguna	12	San Juan la Laguna	4	Abril	2023-04-23T00:00:00	2024-11-08T20:00:00	7	Dirección del viento	0
49815	7	Sololá	717	San Juan la Laguna	12	San Juan la Laguna	4	Abril	2023-04-23T00:00:00	2024-11-08T20:00:00	1	Precipitación	0
49816	7	Sololá	717	San Juan la Laguna	12	San Juan la Laguna	4	Abril	2023-04-23T00:00:00	2024-11-08T20:00:00	8	Radiación solar	0
49817	7	Sololá	717	San Juan la Laguna	12	San Juan la Laguna	4	Abril	2023-04-23T00:00:00	2024-11-08T21:00:00	2	Temperatura media	19.2
49818	7	Sololá	717	San Juan la Laguna	12	San Juan la Laguna	4	Abril	2023-04-23T00:00:00	2024-11-08T21:00:00	4	Temperatura máxima	19.2
49819	7	Sololá	717	San Juan la Laguna	12	San Juan la Laguna	4	Abril	2023-04-23T00:00:00	2024-11-08T21:00:00	3	Temperatura mínima	18.7
49820	7	Sololá	717	San Juan la Laguna	12	San Juan la Laguna	4	Abril	2023-04-23T00:00:00	2024-11-08T21:00:00	5	Humedad	84
49821	7	Sololá	717	San Juan la Laguna	12	San Juan la Laguna	4	Abril	2023-04-23T00:00:00	2024-11-08T21:00:00	6	Velocidad del viento	0
49822	7	Sololá	717	San Juan la Laguna	12	San Juan la Laguna	4	Abril	2023-04-23T00:00:00	2024-11-08T21:00:00	7	Dirección del viento	0
49823	7	Sololá	717	San Juan la Laguna	12	San Juan la Laguna	4	Abril	2023-04-23T00:00:00	2024-11-08T21:00:00	1	Precipitación	0
49824	7	Sololá	717	San Juan la Laguna	12	San Juan la Laguna	4	Abril	2023-04-23T00:00:00	2024-11-08T21:00:00	8	Radiación solar	0
49825	7	Sololá	717	San Juan la Laguna	12	San Juan la Laguna	4	Abril	2023-04-23T00:00:00	2024-11-08T22:00:00	2	Temperatura media	19.1
49826	7	Sololá	717	San Juan la Laguna	12	San Juan la Laguna	4	Abril	2023-04-23T00:00:00	2024-11-08T22:00:00	4	Temperatura máxima	19.3
49827	7	Sololá	717	San Juan la Laguna	12	San Juan la Laguna	4	Abril	2023-04-23T00:00:00	2024-11-08T22:00:00	3	Temperatura mínima	19.1
49828	7	Sololá	717	San Juan la Laguna	12	San Juan la Laguna	4	Abril	2023-04-23T00:00:00	2024-11-08T22:00:00	5	Humedad	82
49829	7	Sololá	717	San Juan la Laguna	12	San Juan la Laguna	4	Abril	2023-04-23T00:00:00	2024-11-08T22:00:00	6	Velocidad del viento	1.6
49830	7	Sololá	717	San Juan la Laguna	12	San Juan la Laguna	4	Abril	2023-04-23T00:00:00	2024-11-08T22:00:00	7	Dirección del viento	1.61
49831	7	Sololá	717	San Juan la Laguna	12	San Juan la Laguna	4	Abril	2023-04-23T00:00:00	2024-11-08T22:00:00	1	Precipitación	0
49832	7	Sololá	717	San Juan la Laguna	12	San Juan la Laguna	4	Abril	2023-04-23T00:00:00	2024-11-08T22:00:00	8	Radiación solar	0
49833	7	Sololá	717	San Juan la Laguna	12	San Juan la Laguna	4	Abril	2023-04-23T00:00:00	2024-11-08T23:00:00	2	Temperatura media	18.2
49834	7	Sololá	717	San Juan la Laguna	12	San Juan la Laguna	4	Abril	2023-04-23T00:00:00	2024-11-08T23:00:00	4	Temperatura máxima	19.1
49835	7	Sololá	717	San Juan la Laguna	12	San Juan la Laguna	4	Abril	2023-04-23T00:00:00	2024-11-08T23:00:00	3	Temperatura mínima	18.2
49836	7	Sololá	717	San Juan la Laguna	12	San Juan la Laguna	4	Abril	2023-04-23T00:00:00	2024-11-08T23:00:00	5	Humedad	83
49837	7	Sololá	717	San Juan la Laguna	12	San Juan la Laguna	4	Abril	2023-04-23T00:00:00	2024-11-08T23:00:00	6	Velocidad del viento	0
49838	7	Sololá	717	San Juan la Laguna	12	San Juan la Laguna	4	Abril	2023-04-23T00:00:00	2024-11-08T23:00:00	7	Dirección del viento	0
49839	7	Sololá	717	San Juan la Laguna	12	San Juan la Laguna	4	Abril	2023-04-23T00:00:00	2024-11-08T23:00:00	1	Precipitación	0
49840	7	Sololá	717	San Juan la Laguna	12	San Juan la Laguna	4	Abril	2023-04-23T00:00:00	2024-11-08T23:00:00	8	Radiación solar	0
49841	7	Sololá	717	San Juan la Laguna	12	San Juan la Laguna	4	Abril	2023-04-24T00:00:00	2024-11-08T00:00:00	2	Temperatura media	17.8
49842	7	Sololá	717	San Juan la Laguna	12	San Juan la Laguna	4	Abril	2023-04-24T00:00:00	2024-11-08T00:00:00	4	Temperatura máxima	18.2
49843	7	Sololá	717	San Juan la Laguna	12	San Juan la Laguna	4	Abril	2023-04-24T00:00:00	2024-11-08T00:00:00	3	Temperatura mínima	17.7
49844	7	Sololá	717	San Juan la Laguna	12	San Juan la Laguna	4	Abril	2023-04-24T00:00:00	2024-11-08T00:00:00	5	Humedad	85
49845	7	Sololá	717	San Juan la Laguna	12	San Juan la Laguna	4	Abril	2023-04-24T00:00:00	2024-11-08T00:00:00	6	Velocidad del viento	0
49846	7	Sololá	717	San Juan la Laguna	12	San Juan la Laguna	4	Abril	2023-04-24T00:00:00	2024-11-08T00:00:00	7	Dirección del viento	0
49847	7	Sololá	717	San Juan la Laguna	12	San Juan la Laguna	4	Abril	2023-04-24T00:00:00	2024-11-08T00:00:00	1	Precipitación	0
49848	7	Sololá	717	San Juan la Laguna	12	San Juan la Laguna	4	Abril	2023-04-24T00:00:00	2024-11-08T00:00:00	8	Radiación solar	0
49849	7	Sololá	717	San Juan la Laguna	12	San Juan la Laguna	4	Abril	2023-04-24T00:00:00	2024-11-08T01:00:00	2	Temperatura media	17.4
49850	7	Sololá	717	San Juan la Laguna	12	San Juan la Laguna	4	Abril	2023-04-24T00:00:00	2024-11-08T01:00:00	4	Temperatura máxima	17.8
49851	7	Sololá	717	San Juan la Laguna	12	San Juan la Laguna	4	Abril	2023-04-24T00:00:00	2024-11-08T01:00:00	3	Temperatura mínima	17
49852	7	Sololá	717	San Juan la Laguna	12	San Juan la Laguna	4	Abril	2023-04-24T00:00:00	2024-11-08T01:00:00	5	Humedad	86
49853	7	Sololá	717	San Juan la Laguna	12	San Juan la Laguna	4	Abril	2023-04-24T00:00:00	2024-11-08T01:00:00	6	Velocidad del viento	0
49854	7	Sololá	717	San Juan la Laguna	12	San Juan la Laguna	4	Abril	2023-04-24T00:00:00	2024-11-08T01:00:00	7	Dirección del viento	0
49855	7	Sololá	717	San Juan la Laguna	12	San Juan la Laguna	4	Abril	2023-04-24T00:00:00	2024-11-08T01:00:00	1	Precipitación	0
49856	7	Sololá	717	San Juan la Laguna	12	San Juan la Laguna	4	Abril	2023-04-24T00:00:00	2024-11-08T01:00:00	8	Radiación solar	0
49857	7	Sololá	717	San Juan la Laguna	12	San Juan la Laguna	4	Abril	2023-04-24T00:00:00	2024-11-08T02:00:00	2	Temperatura media	17.3
49858	7	Sololá	717	San Juan la Laguna	12	San Juan la Laguna	4	Abril	2023-04-24T00:00:00	2024-11-08T02:00:00	4	Temperatura máxima	17.6
49859	7	Sololá	717	San Juan la Laguna	12	San Juan la Laguna	4	Abril	2023-04-24T00:00:00	2024-11-08T02:00:00	3	Temperatura mínima	16.8
49860	7	Sololá	717	San Juan la Laguna	12	San Juan la Laguna	4	Abril	2023-04-24T00:00:00	2024-11-08T02:00:00	5	Humedad	85
49861	7	Sololá	717	San Juan la Laguna	12	San Juan la Laguna	4	Abril	2023-04-24T00:00:00	2024-11-08T02:00:00	6	Velocidad del viento	3.2
49862	7	Sololá	717	San Juan la Laguna	12	San Juan la Laguna	4	Abril	2023-04-24T00:00:00	2024-11-08T02:00:00	7	Dirección del viento	3.22
49863	7	Sololá	717	San Juan la Laguna	12	San Juan la Laguna	4	Abril	2023-04-24T00:00:00	2024-11-08T02:00:00	1	Precipitación	0
49864	7	Sololá	717	San Juan la Laguna	12	San Juan la Laguna	4	Abril	2023-04-24T00:00:00	2024-11-08T02:00:00	8	Radiación solar	0
49865	7	Sololá	717	San Juan la Laguna	12	San Juan la Laguna	4	Abril	2023-04-24T00:00:00	2024-11-08T03:00:00	2	Temperatura media	16.2
49866	7	Sololá	717	San Juan la Laguna	12	San Juan la Laguna	4	Abril	2023-04-24T00:00:00	2024-11-08T03:00:00	4	Temperatura máxima	17.7
49867	7	Sololá	717	San Juan la Laguna	12	San Juan la Laguna	4	Abril	2023-04-24T00:00:00	2024-11-08T03:00:00	3	Temperatura mínima	16.2
49868	7	Sololá	717	San Juan la Laguna	12	San Juan la Laguna	4	Abril	2023-04-24T00:00:00	2024-11-08T03:00:00	5	Humedad	87
49869	7	Sololá	717	San Juan la Laguna	12	San Juan la Laguna	4	Abril	2023-04-24T00:00:00	2024-11-08T03:00:00	6	Velocidad del viento	1.6
49870	7	Sololá	717	San Juan la Laguna	12	San Juan la Laguna	4	Abril	2023-04-24T00:00:00	2024-11-08T03:00:00	7	Dirección del viento	1.61
49871	7	Sololá	717	San Juan la Laguna	12	San Juan la Laguna	4	Abril	2023-04-24T00:00:00	2024-11-08T03:00:00	1	Precipitación	0
49872	7	Sololá	717	San Juan la Laguna	12	San Juan la Laguna	4	Abril	2023-04-24T00:00:00	2024-11-08T03:00:00	8	Radiación solar	0
49873	7	Sololá	717	San Juan la Laguna	12	San Juan la Laguna	4	Abril	2023-04-24T00:00:00	2024-11-08T04:00:00	2	Temperatura media	16
49874	7	Sololá	717	San Juan la Laguna	12	San Juan la Laguna	4	Abril	2023-04-24T00:00:00	2024-11-08T04:00:00	4	Temperatura máxima	16.2
49875	7	Sololá	717	San Juan la Laguna	12	San Juan la Laguna	4	Abril	2023-04-24T00:00:00	2024-11-08T04:00:00	3	Temperatura mínima	15.8
49876	7	Sololá	717	San Juan la Laguna	12	San Juan la Laguna	4	Abril	2023-04-24T00:00:00	2024-11-08T04:00:00	5	Humedad	86
49877	7	Sololá	717	San Juan la Laguna	12	San Juan la Laguna	4	Abril	2023-04-24T00:00:00	2024-11-08T04:00:00	6	Velocidad del viento	3.2
49878	7	Sololá	717	San Juan la Laguna	12	San Juan la Laguna	4	Abril	2023-04-24T00:00:00	2024-11-08T04:00:00	7	Dirección del viento	3.22
49879	7	Sololá	717	San Juan la Laguna	12	San Juan la Laguna	4	Abril	2023-04-24T00:00:00	2024-11-08T04:00:00	1	Precipitación	0
49880	7	Sololá	717	San Juan la Laguna	12	San Juan la Laguna	4	Abril	2023-04-24T00:00:00	2024-11-08T04:00:00	8	Radiación solar	0
49881	7	Sololá	717	San Juan la Laguna	12	San Juan la Laguna	4	Abril	2023-04-24T00:00:00	2024-11-08T05:00:00	2	Temperatura media	15.3
49882	7	Sololá	717	San Juan la Laguna	12	San Juan la Laguna	4	Abril	2023-04-24T00:00:00	2024-11-08T05:00:00	4	Temperatura máxima	16.1
49883	7	Sololá	717	San Juan la Laguna	12	San Juan la Laguna	4	Abril	2023-04-24T00:00:00	2024-11-08T05:00:00	3	Temperatura mínima	15.2
49884	7	Sololá	717	San Juan la Laguna	12	San Juan la Laguna	4	Abril	2023-04-24T00:00:00	2024-11-08T05:00:00	5	Humedad	88
49885	7	Sololá	717	San Juan la Laguna	12	San Juan la Laguna	4	Abril	2023-04-24T00:00:00	2024-11-08T05:00:00	6	Velocidad del viento	1.6
49886	7	Sololá	717	San Juan la Laguna	12	San Juan la Laguna	4	Abril	2023-04-24T00:00:00	2024-11-08T05:00:00	7	Dirección del viento	1.61
49887	7	Sololá	717	San Juan la Laguna	12	San Juan la Laguna	4	Abril	2023-04-24T00:00:00	2024-11-08T05:00:00	1	Precipitación	0
49888	7	Sololá	717	San Juan la Laguna	12	San Juan la Laguna	4	Abril	2023-04-24T00:00:00	2024-11-08T05:00:00	8	Radiación solar	0
49889	7	Sololá	717	San Juan la Laguna	12	San Juan la Laguna	4	Abril	2023-04-24T00:00:00	2024-11-08T06:00:00	2	Temperatura media	15.1
49890	7	Sololá	717	San Juan la Laguna	12	San Juan la Laguna	4	Abril	2023-04-24T00:00:00	2024-11-08T06:00:00	4	Temperatura máxima	15.3
49891	7	Sololá	717	San Juan la Laguna	12	San Juan la Laguna	4	Abril	2023-04-24T00:00:00	2024-11-08T06:00:00	3	Temperatura mínima	14.9
49892	7	Sololá	717	San Juan la Laguna	12	San Juan la Laguna	4	Abril	2023-04-24T00:00:00	2024-11-08T06:00:00	5	Humedad	88
49893	7	Sololá	717	San Juan la Laguna	12	San Juan la Laguna	4	Abril	2023-04-24T00:00:00	2024-11-08T06:00:00	6	Velocidad del viento	0
49894	7	Sololá	717	San Juan la Laguna	12	San Juan la Laguna	4	Abril	2023-04-24T00:00:00	2024-11-08T06:00:00	7	Dirección del viento	0
49895	7	Sololá	717	San Juan la Laguna	12	San Juan la Laguna	4	Abril	2023-04-24T00:00:00	2024-11-08T06:00:00	1	Precipitación	0
49896	7	Sololá	717	San Juan la Laguna	12	San Juan la Laguna	4	Abril	2023-04-24T00:00:00	2024-11-08T06:00:00	8	Radiación solar	2
49897	7	Sololá	717	San Juan la Laguna	12	San Juan la Laguna	4	Abril	2023-04-24T00:00:00	2024-11-08T07:00:00	2	Temperatura media	16.8
49898	7	Sololá	717	San Juan la Laguna	12	San Juan la Laguna	4	Abril	2023-04-24T00:00:00	2024-11-08T07:00:00	4	Temperatura máxima	16.8
49899	7	Sololá	717	San Juan la Laguna	12	San Juan la Laguna	4	Abril	2023-04-24T00:00:00	2024-11-08T07:00:00	3	Temperatura mínima	15.1
49900	7	Sololá	717	San Juan la Laguna	12	San Juan la Laguna	4	Abril	2023-04-24T00:00:00	2024-11-08T07:00:00	5	Humedad	84
49901	7	Sololá	717	San Juan la Laguna	12	San Juan la Laguna	4	Abril	2023-04-24T00:00:00	2024-11-08T07:00:00	6	Velocidad del viento	1.6
49902	7	Sololá	717	San Juan la Laguna	12	San Juan la Laguna	4	Abril	2023-04-24T00:00:00	2024-11-08T07:00:00	7	Dirección del viento	1.61
49903	7	Sololá	717	San Juan la Laguna	12	San Juan la Laguna	4	Abril	2023-04-24T00:00:00	2024-11-08T07:00:00	1	Precipitación	0
49904	7	Sololá	717	San Juan la Laguna	12	San Juan la Laguna	4	Abril	2023-04-24T00:00:00	2024-11-08T07:00:00	8	Radiación solar	73
49905	7	Sololá	717	San Juan la Laguna	12	San Juan la Laguna	4	Abril	2023-04-24T00:00:00	2024-11-08T08:00:00	2	Temperatura media	20.8
49906	7	Sololá	717	San Juan la Laguna	12	San Juan la Laguna	4	Abril	2023-04-24T00:00:00	2024-11-08T08:00:00	4	Temperatura máxima	20.8
49907	7	Sololá	717	San Juan la Laguna	12	San Juan la Laguna	4	Abril	2023-04-24T00:00:00	2024-11-08T08:00:00	3	Temperatura mínima	16.8
49908	7	Sololá	717	San Juan la Laguna	12	San Juan la Laguna	4	Abril	2023-04-24T00:00:00	2024-11-08T08:00:00	5	Humedad	71
49909	7	Sololá	717	San Juan la Laguna	12	San Juan la Laguna	4	Abril	2023-04-24T00:00:00	2024-11-08T08:00:00	6	Velocidad del viento	0
49910	7	Sololá	717	San Juan la Laguna	12	San Juan la Laguna	4	Abril	2023-04-24T00:00:00	2024-11-08T08:00:00	7	Dirección del viento	0
49911	7	Sololá	717	San Juan la Laguna	12	San Juan la Laguna	4	Abril	2023-04-24T00:00:00	2024-11-08T08:00:00	1	Precipitación	0
49912	7	Sololá	717	San Juan la Laguna	12	San Juan la Laguna	4	Abril	2023-04-24T00:00:00	2024-11-08T08:00:00	8	Radiación solar	265
49913	7	Sololá	717	San Juan la Laguna	12	San Juan la Laguna	4	Abril	2023-04-24T00:00:00	2024-11-08T09:00:00	2	Temperatura media	20.8
49914	7	Sololá	717	San Juan la Laguna	12	San Juan la Laguna	4	Abril	2023-04-24T00:00:00	2024-11-08T09:00:00	4	Temperatura máxima	21.1
49915	7	Sololá	717	San Juan la Laguna	12	San Juan la Laguna	4	Abril	2023-04-24T00:00:00	2024-11-08T09:00:00	3	Temperatura mínima	20.5
49916	7	Sololá	717	San Juan la Laguna	12	San Juan la Laguna	4	Abril	2023-04-24T00:00:00	2024-11-08T09:00:00	5	Humedad	73
49917	7	Sololá	717	San Juan la Laguna	12	San Juan la Laguna	4	Abril	2023-04-24T00:00:00	2024-11-08T09:00:00	6	Velocidad del viento	1.6
49918	7	Sololá	717	San Juan la Laguna	12	San Juan la Laguna	4	Abril	2023-04-24T00:00:00	2024-11-08T09:00:00	7	Dirección del viento	1.61
49919	7	Sololá	717	San Juan la Laguna	12	San Juan la Laguna	4	Abril	2023-04-24T00:00:00	2024-11-08T09:00:00	1	Precipitación	0
49920	7	Sololá	717	San Juan la Laguna	12	San Juan la Laguna	4	Abril	2023-04-24T00:00:00	2024-11-08T09:00:00	8	Radiación solar	267
49921	7	Sololá	717	San Juan la Laguna	12	San Juan la Laguna	4	Abril	2023-04-24T00:00:00	2024-11-08T10:00:00	2	Temperatura media	21.8
49922	7	Sololá	717	San Juan la Laguna	12	San Juan la Laguna	4	Abril	2023-04-24T00:00:00	2024-11-08T10:00:00	4	Temperatura máxima	21.8
49923	7	Sololá	717	San Juan la Laguna	12	San Juan la Laguna	4	Abril	2023-04-24T00:00:00	2024-11-08T10:00:00	3	Temperatura mínima	20.8
49924	7	Sololá	717	San Juan la Laguna	12	San Juan la Laguna	4	Abril	2023-04-24T00:00:00	2024-11-08T10:00:00	5	Humedad	70
49925	7	Sololá	717	San Juan la Laguna	12	San Juan la Laguna	4	Abril	2023-04-24T00:00:00	2024-11-08T10:00:00	6	Velocidad del viento	3.2
49926	7	Sololá	717	San Juan la Laguna	12	San Juan la Laguna	4	Abril	2023-04-24T00:00:00	2024-11-08T10:00:00	7	Dirección del viento	3.22
49927	7	Sololá	717	San Juan la Laguna	12	San Juan la Laguna	4	Abril	2023-04-24T00:00:00	2024-11-08T10:00:00	1	Precipitación	0
49928	7	Sololá	717	San Juan la Laguna	12	San Juan la Laguna	4	Abril	2023-04-24T00:00:00	2024-11-08T10:00:00	8	Radiación solar	337
49929	7	Sololá	717	San Juan la Laguna	12	San Juan la Laguna	4	Abril	2023-04-24T00:00:00	2024-11-08T11:00:00	2	Temperatura media	21.8
49930	7	Sololá	717	San Juan la Laguna	12	San Juan la Laguna	4	Abril	2023-04-24T00:00:00	2024-11-08T11:00:00	4	Temperatura máxima	22.2
49931	7	Sololá	717	San Juan la Laguna	12	San Juan la Laguna	4	Abril	2023-04-24T00:00:00	2024-11-08T11:00:00	3	Temperatura mínima	21.5
49932	7	Sololá	717	San Juan la Laguna	12	San Juan la Laguna	4	Abril	2023-04-24T00:00:00	2024-11-08T11:00:00	5	Humedad	70
49933	7	Sololá	717	San Juan la Laguna	12	San Juan la Laguna	4	Abril	2023-04-24T00:00:00	2024-11-08T11:00:00	6	Velocidad del viento	1.6
49934	7	Sololá	717	San Juan la Laguna	12	San Juan la Laguna	4	Abril	2023-04-24T00:00:00	2024-11-08T11:00:00	7	Dirección del viento	1.61
49935	7	Sololá	717	San Juan la Laguna	12	San Juan la Laguna	4	Abril	2023-04-24T00:00:00	2024-11-08T11:00:00	1	Precipitación	0
49936	7	Sololá	717	San Juan la Laguna	12	San Juan la Laguna	4	Abril	2023-04-24T00:00:00	2024-11-08T11:00:00	8	Radiación solar	350
49937	7	Sololá	717	San Juan la Laguna	12	San Juan la Laguna	4	Abril	2023-04-24T00:00:00	2024-11-08T12:00:00	2	Temperatura media	24
49938	7	Sololá	717	San Juan la Laguna	12	San Juan la Laguna	4	Abril	2023-04-24T00:00:00	2024-11-08T12:00:00	4	Temperatura máxima	24
49939	7	Sololá	717	San Juan la Laguna	12	San Juan la Laguna	4	Abril	2023-04-24T00:00:00	2024-11-08T12:00:00	3	Temperatura mínima	21.8
49940	7	Sololá	717	San Juan la Laguna	12	San Juan la Laguna	4	Abril	2023-04-24T00:00:00	2024-11-08T12:00:00	5	Humedad	64
49941	7	Sololá	717	San Juan la Laguna	12	San Juan la Laguna	4	Abril	2023-04-24T00:00:00	2024-11-08T12:00:00	6	Velocidad del viento	3.2
49942	7	Sololá	717	San Juan la Laguna	12	San Juan la Laguna	4	Abril	2023-04-24T00:00:00	2024-11-08T12:00:00	7	Dirección del viento	3.22
49943	7	Sololá	717	San Juan la Laguna	12	San Juan la Laguna	4	Abril	2023-04-24T00:00:00	2024-11-08T12:00:00	1	Precipitación	0
49944	7	Sololá	717	San Juan la Laguna	12	San Juan la Laguna	4	Abril	2023-04-24T00:00:00	2024-11-08T12:00:00	8	Radiación solar	735
49945	7	Sololá	717	San Juan la Laguna	12	San Juan la Laguna	4	Abril	2023-04-24T00:00:00	2024-11-08T13:00:00	2	Temperatura media	23.2
49946	7	Sololá	717	San Juan la Laguna	12	San Juan la Laguna	4	Abril	2023-04-24T00:00:00	2024-11-08T13:00:00	4	Temperatura máxima	24.1
49947	7	Sololá	717	San Juan la Laguna	12	San Juan la Laguna	4	Abril	2023-04-24T00:00:00	2024-11-08T13:00:00	3	Temperatura mínima	22.7
49948	7	Sololá	717	San Juan la Laguna	12	San Juan la Laguna	4	Abril	2023-04-24T00:00:00	2024-11-08T13:00:00	5	Humedad	68
49949	7	Sololá	717	San Juan la Laguna	12	San Juan la Laguna	4	Abril	2023-04-24T00:00:00	2024-11-08T13:00:00	6	Velocidad del viento	4.8
49950	7	Sololá	717	San Juan la Laguna	12	San Juan la Laguna	4	Abril	2023-04-24T00:00:00	2024-11-08T13:00:00	7	Dirección del viento	4.83
49951	7	Sololá	717	San Juan la Laguna	12	San Juan la Laguna	4	Abril	2023-04-24T00:00:00	2024-11-08T13:00:00	1	Precipitación	0
49952	7	Sololá	717	San Juan la Laguna	12	San Juan la Laguna	4	Abril	2023-04-24T00:00:00	2024-11-08T13:00:00	8	Radiación solar	568
49953	7	Sololá	717	San Juan la Laguna	12	San Juan la Laguna	4	Abril	2023-04-24T00:00:00	2024-11-08T14:00:00	2	Temperatura media	22.3
49954	7	Sololá	717	San Juan la Laguna	12	San Juan la Laguna	4	Abril	2023-04-24T00:00:00	2024-11-08T14:00:00	4	Temperatura máxima	23.4
49955	7	Sololá	717	San Juan la Laguna	12	San Juan la Laguna	4	Abril	2023-04-24T00:00:00	2024-11-08T14:00:00	3	Temperatura mínima	22
49956	7	Sololá	717	San Juan la Laguna	12	San Juan la Laguna	4	Abril	2023-04-24T00:00:00	2024-11-08T14:00:00	5	Humedad	71
49957	7	Sololá	717	San Juan la Laguna	12	San Juan la Laguna	4	Abril	2023-04-24T00:00:00	2024-11-08T14:00:00	6	Velocidad del viento	6.4
49958	7	Sololá	717	San Juan la Laguna	12	San Juan la Laguna	4	Abril	2023-04-24T00:00:00	2024-11-08T14:00:00	7	Dirección del viento	6.44
49959	7	Sololá	717	San Juan la Laguna	12	San Juan la Laguna	4	Abril	2023-04-24T00:00:00	2024-11-08T14:00:00	1	Precipitación	0
49960	7	Sololá	717	San Juan la Laguna	12	San Juan la Laguna	4	Abril	2023-04-24T00:00:00	2024-11-08T14:00:00	8	Radiación solar	567
49961	7	Sololá	717	San Juan la Laguna	12	San Juan la Laguna	4	Abril	2023-04-24T00:00:00	2024-11-08T15:00:00	2	Temperatura media	20.4
49962	7	Sololá	717	San Juan la Laguna	12	San Juan la Laguna	4	Abril	2023-04-24T00:00:00	2024-11-08T15:00:00	4	Temperatura máxima	22.6
49963	7	Sololá	717	San Juan la Laguna	12	San Juan la Laguna	4	Abril	2023-04-24T00:00:00	2024-11-08T15:00:00	3	Temperatura mínima	20.1
49964	7	Sololá	717	San Juan la Laguna	12	San Juan la Laguna	4	Abril	2023-04-24T00:00:00	2024-11-08T15:00:00	5	Humedad	75
49965	7	Sololá	717	San Juan la Laguna	12	San Juan la Laguna	4	Abril	2023-04-24T00:00:00	2024-11-08T15:00:00	6	Velocidad del viento	9.7
49966	7	Sololá	717	San Juan la Laguna	12	San Juan la Laguna	4	Abril	2023-04-24T00:00:00	2024-11-08T15:00:00	7	Dirección del viento	9.66
49967	7	Sololá	717	San Juan la Laguna	12	San Juan la Laguna	4	Abril	2023-04-24T00:00:00	2024-11-08T15:00:00	1	Precipitación	0
49968	7	Sololá	717	San Juan la Laguna	12	San Juan la Laguna	4	Abril	2023-04-24T00:00:00	2024-11-08T15:00:00	8	Radiación solar	368
49969	7	Sololá	717	San Juan la Laguna	12	San Juan la Laguna	4	Abril	2023-04-24T00:00:00	2024-11-08T16:00:00	2	Temperatura media	19.6
49970	7	Sololá	717	San Juan la Laguna	12	San Juan la Laguna	4	Abril	2023-04-24T00:00:00	2024-11-08T16:00:00	4	Temperatura máxima	20.6
49971	7	Sololá	717	San Juan la Laguna	12	San Juan la Laguna	4	Abril	2023-04-24T00:00:00	2024-11-08T16:00:00	3	Temperatura mínima	19.6
49972	7	Sololá	717	San Juan la Laguna	12	San Juan la Laguna	4	Abril	2023-04-24T00:00:00	2024-11-08T16:00:00	5	Humedad	78
49973	7	Sololá	717	San Juan la Laguna	12	San Juan la Laguna	4	Abril	2023-04-24T00:00:00	2024-11-08T16:00:00	6	Velocidad del viento	8
49974	7	Sololá	717	San Juan la Laguna	12	San Juan la Laguna	4	Abril	2023-04-24T00:00:00	2024-11-08T16:00:00	7	Dirección del viento	8.05
49975	7	Sololá	717	San Juan la Laguna	12	San Juan la Laguna	4	Abril	2023-04-24T00:00:00	2024-11-08T16:00:00	1	Precipitación	0
49976	7	Sololá	717	San Juan la Laguna	12	San Juan la Laguna	4	Abril	2023-04-24T00:00:00	2024-11-08T16:00:00	8	Radiación solar	152
49977	7	Sololá	717	San Juan la Laguna	12	San Juan la Laguna	4	Abril	2023-04-24T00:00:00	2024-11-08T17:00:00	2	Temperatura media	18.6
49978	7	Sololá	717	San Juan la Laguna	12	San Juan la Laguna	4	Abril	2023-04-24T00:00:00	2024-11-08T17:00:00	4	Temperatura máxima	19.7
49979	7	Sololá	717	San Juan la Laguna	12	San Juan la Laguna	4	Abril	2023-04-24T00:00:00	2024-11-08T17:00:00	3	Temperatura mínima	18.6
49980	7	Sololá	717	San Juan la Laguna	12	San Juan la Laguna	4	Abril	2023-04-24T00:00:00	2024-11-08T17:00:00	5	Humedad	85
49981	7	Sololá	717	San Juan la Laguna	12	San Juan la Laguna	4	Abril	2023-04-24T00:00:00	2024-11-08T17:00:00	6	Velocidad del viento	1.6
49982	7	Sololá	717	San Juan la Laguna	12	San Juan la Laguna	4	Abril	2023-04-24T00:00:00	2024-11-08T17:00:00	7	Dirección del viento	1.61
49983	7	Sololá	717	San Juan la Laguna	12	San Juan la Laguna	4	Abril	2023-04-24T00:00:00	2024-11-08T17:00:00	1	Precipitación	0.6
49984	7	Sololá	717	San Juan la Laguna	12	San Juan la Laguna	4	Abril	2023-04-24T00:00:00	2024-11-08T17:00:00	8	Radiación solar	14
49985	7	Sololá	717	San Juan la Laguna	12	San Juan la Laguna	4	Abril	2023-04-24T00:00:00	2024-11-08T18:00:00	2	Temperatura media	17.1
49986	7	Sololá	717	San Juan la Laguna	12	San Juan la Laguna	4	Abril	2023-04-24T00:00:00	2024-11-08T18:00:00	4	Temperatura máxima	18.6
49987	7	Sololá	717	San Juan la Laguna	12	San Juan la Laguna	4	Abril	2023-04-24T00:00:00	2024-11-08T18:00:00	3	Temperatura mínima	17.1
49988	7	Sololá	717	San Juan la Laguna	12	San Juan la Laguna	4	Abril	2023-04-24T00:00:00	2024-11-08T18:00:00	5	Humedad	90
49989	7	Sololá	717	San Juan la Laguna	12	San Juan la Laguna	4	Abril	2023-04-24T00:00:00	2024-11-08T18:00:00	6	Velocidad del viento	0
49990	7	Sololá	717	San Juan la Laguna	12	San Juan la Laguna	4	Abril	2023-04-24T00:00:00	2024-11-08T18:00:00	7	Dirección del viento	0
49991	7	Sololá	717	San Juan la Laguna	12	San Juan la Laguna	4	Abril	2023-04-24T00:00:00	2024-11-08T18:00:00	1	Precipitación	4.2
49992	7	Sololá	717	San Juan la Laguna	12	San Juan la Laguna	4	Abril	2023-04-24T00:00:00	2024-11-08T18:00:00	8	Radiación solar	12
49993	7	Sololá	717	San Juan la Laguna	12	San Juan la Laguna	4	Abril	2023-04-24T00:00:00	2024-11-08T19:00:00	2	Temperatura media	16.8
49994	7	Sololá	717	San Juan la Laguna	12	San Juan la Laguna	4	Abril	2023-04-24T00:00:00	2024-11-08T19:00:00	4	Temperatura máxima	17.1
49995	7	Sololá	717	San Juan la Laguna	12	San Juan la Laguna	4	Abril	2023-04-24T00:00:00	2024-11-08T19:00:00	3	Temperatura mínima	16.8
49996	7	Sololá	717	San Juan la Laguna	12	San Juan la Laguna	4	Abril	2023-04-24T00:00:00	2024-11-08T19:00:00	5	Humedad	92
49997	7	Sololá	717	San Juan la Laguna	12	San Juan la Laguna	4	Abril	2023-04-24T00:00:00	2024-11-08T19:00:00	6	Velocidad del viento	1.6
49998	7	Sololá	717	San Juan la Laguna	12	San Juan la Laguna	4	Abril	2023-04-24T00:00:00	2024-11-08T19:00:00	7	Dirección del viento	1.61
49999	7	Sololá	717	San Juan la Laguna	12	San Juan la Laguna	4	Abril	2023-04-24T00:00:00	2024-11-08T19:00:00	1	Precipitación	1.6
50000	7	Sololá	717	San Juan la Laguna	12	San Juan la Laguna	4	Abril	2023-04-24T00:00:00	2024-11-08T19:00:00	8	Radiación solar	0
50001	7	Sololá	717	San Juan la Laguna	12	San Juan la Laguna	4	Abril	2023-04-24T00:00:00	2024-11-08T20:00:00	2	Temperatura media	16.6
50002	7	Sololá	717	San Juan la Laguna	12	San Juan la Laguna	4	Abril	2023-04-24T00:00:00	2024-11-08T20:00:00	4	Temperatura máxima	16.8
50003	7	Sololá	717	San Juan la Laguna	12	San Juan la Laguna	4	Abril	2023-04-24T00:00:00	2024-11-08T20:00:00	3	Temperatura mínima	16.5
50004	7	Sololá	717	San Juan la Laguna	12	San Juan la Laguna	4	Abril	2023-04-24T00:00:00	2024-11-08T20:00:00	5	Humedad	91
50005	7	Sololá	717	San Juan la Laguna	12	San Juan la Laguna	4	Abril	2023-04-24T00:00:00	2024-11-08T20:00:00	6	Velocidad del viento	1.6
50006	7	Sololá	717	San Juan la Laguna	12	San Juan la Laguna	4	Abril	2023-04-24T00:00:00	2024-11-08T20:00:00	7	Dirección del viento	1.61
50007	7	Sololá	717	San Juan la Laguna	12	San Juan la Laguna	4	Abril	2023-04-24T00:00:00	2024-11-08T20:00:00	1	Precipitación	0.2
50008	7	Sololá	717	San Juan la Laguna	12	San Juan la Laguna	4	Abril	2023-04-24T00:00:00	2024-11-08T20:00:00	8	Radiación solar	0
50009	7	Sololá	717	San Juan la Laguna	12	San Juan la Laguna	4	Abril	2023-04-24T00:00:00	2024-11-08T21:00:00	2	Temperatura media	16.4
50010	7	Sololá	717	San Juan la Laguna	12	San Juan la Laguna	4	Abril	2023-04-24T00:00:00	2024-11-08T21:00:00	4	Temperatura máxima	16.6
50011	7	Sololá	717	San Juan la Laguna	12	San Juan la Laguna	4	Abril	2023-04-24T00:00:00	2024-11-08T21:00:00	3	Temperatura mínima	16.4
50012	7	Sololá	717	San Juan la Laguna	12	San Juan la Laguna	4	Abril	2023-04-24T00:00:00	2024-11-08T21:00:00	5	Humedad	91
50013	7	Sololá	717	San Juan la Laguna	12	San Juan la Laguna	4	Abril	2023-04-24T00:00:00	2024-11-08T21:00:00	6	Velocidad del viento	1.6
50014	7	Sololá	717	San Juan la Laguna	12	San Juan la Laguna	4	Abril	2023-04-24T00:00:00	2024-11-08T21:00:00	7	Dirección del viento	1.61
50015	7	Sololá	717	San Juan la Laguna	12	San Juan la Laguna	4	Abril	2023-04-24T00:00:00	2024-11-08T21:00:00	1	Precipitación	0
50016	7	Sololá	717	San Juan la Laguna	12	San Juan la Laguna	4	Abril	2023-04-24T00:00:00	2024-11-08T21:00:00	8	Radiación solar	0
50017	7	Sololá	717	San Juan la Laguna	12	San Juan la Laguna	4	Abril	2023-04-24T00:00:00	2024-11-08T22:00:00	2	Temperatura media	16.3
50018	7	Sololá	717	San Juan la Laguna	12	San Juan la Laguna	4	Abril	2023-04-24T00:00:00	2024-11-08T22:00:00	4	Temperatura máxima	16.6
50019	7	Sololá	717	San Juan la Laguna	12	San Juan la Laguna	4	Abril	2023-04-24T00:00:00	2024-11-08T22:00:00	3	Temperatura mínima	16.3
50020	7	Sololá	717	San Juan la Laguna	12	San Juan la Laguna	4	Abril	2023-04-24T00:00:00	2024-11-08T22:00:00	5	Humedad	91
50021	7	Sololá	717	San Juan la Laguna	12	San Juan la Laguna	4	Abril	2023-04-24T00:00:00	2024-11-08T22:00:00	6	Velocidad del viento	0
50022	7	Sololá	717	San Juan la Laguna	12	San Juan la Laguna	4	Abril	2023-04-24T00:00:00	2024-11-08T22:00:00	7	Dirección del viento	0
50023	7	Sololá	717	San Juan la Laguna	12	San Juan la Laguna	4	Abril	2023-04-24T00:00:00	2024-11-08T22:00:00	1	Precipitación	0
50024	7	Sololá	717	San Juan la Laguna	12	San Juan la Laguna	4	Abril	2023-04-24T00:00:00	2024-11-08T22:00:00	8	Radiación solar	0
50025	7	Sololá	717	San Juan la Laguna	12	San Juan la Laguna	4	Abril	2023-04-24T00:00:00	2024-11-08T23:00:00	2	Temperatura media	15.9
50026	7	Sololá	717	San Juan la Laguna	12	San Juan la Laguna	4	Abril	2023-04-24T00:00:00	2024-11-08T23:00:00	4	Temperatura máxima	16.3
50027	7	Sololá	717	San Juan la Laguna	12	San Juan la Laguna	4	Abril	2023-04-24T00:00:00	2024-11-08T23:00:00	3	Temperatura mínima	15.9
50028	7	Sololá	717	San Juan la Laguna	12	San Juan la Laguna	4	Abril	2023-04-24T00:00:00	2024-11-08T23:00:00	5	Humedad	92
50029	7	Sololá	717	San Juan la Laguna	12	San Juan la Laguna	4	Abril	2023-04-24T00:00:00	2024-11-08T23:00:00	6	Velocidad del viento	1.6
50030	7	Sololá	717	San Juan la Laguna	12	San Juan la Laguna	4	Abril	2023-04-24T00:00:00	2024-11-08T23:00:00	7	Dirección del viento	1.61
50031	7	Sololá	717	San Juan la Laguna	12	San Juan la Laguna	4	Abril	2023-04-24T00:00:00	2024-11-08T23:00:00	1	Precipitación	0
50032	7	Sololá	717	San Juan la Laguna	12	San Juan la Laguna	4	Abril	2023-04-24T00:00:00	2024-11-08T23:00:00	8	Radiación solar	0
50033	7	Sololá	717	San Juan la Laguna	12	San Juan la Laguna	4	Abril	2023-04-25T00:00:00	2024-11-08T00:00:00	2	Temperatura media	15.6
50034	7	Sololá	717	San Juan la Laguna	12	San Juan la Laguna	4	Abril	2023-04-25T00:00:00	2024-11-08T00:00:00	4	Temperatura máxima	16.1
50035	7	Sololá	717	San Juan la Laguna	12	San Juan la Laguna	4	Abril	2023-04-25T00:00:00	2024-11-08T00:00:00	3	Temperatura mínima	15.6
50036	7	Sololá	717	San Juan la Laguna	12	San Juan la Laguna	4	Abril	2023-04-25T00:00:00	2024-11-08T00:00:00	5	Humedad	91
50037	7	Sololá	717	San Juan la Laguna	12	San Juan la Laguna	4	Abril	2023-04-25T00:00:00	2024-11-08T00:00:00	6	Velocidad del viento	3.2
50038	7	Sololá	717	San Juan la Laguna	12	San Juan la Laguna	4	Abril	2023-04-25T00:00:00	2024-11-08T00:00:00	7	Dirección del viento	3.22
50039	7	Sololá	717	San Juan la Laguna	12	San Juan la Laguna	4	Abril	2023-04-25T00:00:00	2024-11-08T00:00:00	1	Precipitación	0
50040	7	Sololá	717	San Juan la Laguna	12	San Juan la Laguna	4	Abril	2023-04-25T00:00:00	2024-11-08T00:00:00	8	Radiación solar	0
50041	7	Sololá	717	San Juan la Laguna	12	San Juan la Laguna	4	Abril	2023-04-25T00:00:00	2024-11-08T01:00:00	2	Temperatura media	15.1
50042	7	Sololá	717	San Juan la Laguna	12	San Juan la Laguna	4	Abril	2023-04-25T00:00:00	2024-11-08T01:00:00	4	Temperatura máxima	15.7
50043	7	Sololá	717	San Juan la Laguna	12	San Juan la Laguna	4	Abril	2023-04-25T00:00:00	2024-11-08T01:00:00	3	Temperatura mínima	15.1
50044	7	Sololá	717	San Juan la Laguna	12	San Juan la Laguna	4	Abril	2023-04-25T00:00:00	2024-11-08T01:00:00	5	Humedad	91
50045	7	Sololá	717	San Juan la Laguna	12	San Juan la Laguna	4	Abril	2023-04-25T00:00:00	2024-11-08T01:00:00	6	Velocidad del viento	1.6
50046	7	Sololá	717	San Juan la Laguna	12	San Juan la Laguna	4	Abril	2023-04-25T00:00:00	2024-11-08T01:00:00	7	Dirección del viento	1.61
50047	7	Sololá	717	San Juan la Laguna	12	San Juan la Laguna	4	Abril	2023-04-25T00:00:00	2024-11-08T01:00:00	1	Precipitación	0
50048	7	Sololá	717	San Juan la Laguna	12	San Juan la Laguna	4	Abril	2023-04-25T00:00:00	2024-11-08T01:00:00	8	Radiación solar	0
50049	7	Sololá	717	San Juan la Laguna	12	San Juan la Laguna	4	Abril	2023-04-25T00:00:00	2024-11-08T02:00:00	2	Temperatura media	14.9
50050	7	Sololá	717	San Juan la Laguna	12	San Juan la Laguna	4	Abril	2023-04-25T00:00:00	2024-11-08T02:00:00	4	Temperatura máxima	15.1
50051	7	Sololá	717	San Juan la Laguna	12	San Juan la Laguna	4	Abril	2023-04-25T00:00:00	2024-11-08T02:00:00	3	Temperatura mínima	14.8
50052	7	Sololá	717	San Juan la Laguna	12	San Juan la Laguna	4	Abril	2023-04-25T00:00:00	2024-11-08T02:00:00	5	Humedad	90
50053	7	Sololá	717	San Juan la Laguna	12	San Juan la Laguna	4	Abril	2023-04-25T00:00:00	2024-11-08T02:00:00	6	Velocidad del viento	1.6
50054	7	Sololá	717	San Juan la Laguna	12	San Juan la Laguna	4	Abril	2023-04-25T00:00:00	2024-11-08T02:00:00	7	Dirección del viento	1.61
50055	7	Sololá	717	San Juan la Laguna	12	San Juan la Laguna	4	Abril	2023-04-25T00:00:00	2024-11-08T02:00:00	1	Precipitación	0
50056	7	Sololá	717	San Juan la Laguna	12	San Juan la Laguna	4	Abril	2023-04-25T00:00:00	2024-11-08T02:00:00	8	Radiación solar	0
50057	7	Sololá	717	San Juan la Laguna	12	San Juan la Laguna	4	Abril	2023-04-25T00:00:00	2024-11-08T03:00:00	2	Temperatura media	14.5
50058	7	Sololá	717	San Juan la Laguna	12	San Juan la Laguna	4	Abril	2023-04-25T00:00:00	2024-11-08T03:00:00	4	Temperatura máxima	15.1
50059	7	Sololá	717	San Juan la Laguna	12	San Juan la Laguna	4	Abril	2023-04-25T00:00:00	2024-11-08T03:00:00	3	Temperatura mínima	14.5
50060	7	Sololá	717	San Juan la Laguna	12	San Juan la Laguna	4	Abril	2023-04-25T00:00:00	2024-11-08T03:00:00	5	Humedad	92
50061	7	Sololá	717	San Juan la Laguna	12	San Juan la Laguna	4	Abril	2023-04-25T00:00:00	2024-11-08T03:00:00	6	Velocidad del viento	1.6
50062	7	Sololá	717	San Juan la Laguna	12	San Juan la Laguna	4	Abril	2023-04-25T00:00:00	2024-11-08T03:00:00	7	Dirección del viento	1.61
50063	7	Sololá	717	San Juan la Laguna	12	San Juan la Laguna	4	Abril	2023-04-25T00:00:00	2024-11-08T03:00:00	1	Precipitación	0
50064	7	Sololá	717	San Juan la Laguna	12	San Juan la Laguna	4	Abril	2023-04-25T00:00:00	2024-11-08T03:00:00	8	Radiación solar	0
50065	7	Sololá	717	San Juan la Laguna	12	San Juan la Laguna	4	Abril	2023-04-25T00:00:00	2024-11-08T04:00:00	2	Temperatura media	14.4
50066	7	Sololá	717	San Juan la Laguna	12	San Juan la Laguna	4	Abril	2023-04-25T00:00:00	2024-11-08T04:00:00	4	Temperatura máxima	14.5
50067	7	Sololá	717	San Juan la Laguna	12	San Juan la Laguna	4	Abril	2023-04-25T00:00:00	2024-11-08T04:00:00	3	Temperatura mínima	14.3
50068	7	Sololá	717	San Juan la Laguna	12	San Juan la Laguna	4	Abril	2023-04-25T00:00:00	2024-11-08T04:00:00	5	Humedad	91
50069	7	Sololá	717	San Juan la Laguna	12	San Juan la Laguna	4	Abril	2023-04-25T00:00:00	2024-11-08T04:00:00	6	Velocidad del viento	3.2
50070	7	Sololá	717	San Juan la Laguna	12	San Juan la Laguna	4	Abril	2023-04-25T00:00:00	2024-11-08T04:00:00	7	Dirección del viento	3.22
50071	7	Sololá	717	San Juan la Laguna	12	San Juan la Laguna	4	Abril	2023-04-25T00:00:00	2024-11-08T04:00:00	1	Precipitación	0
50072	7	Sololá	717	San Juan la Laguna	12	San Juan la Laguna	4	Abril	2023-04-25T00:00:00	2024-11-08T04:00:00	8	Radiación solar	0
50073	7	Sololá	717	San Juan la Laguna	12	San Juan la Laguna	4	Abril	2023-04-25T00:00:00	2024-11-08T05:00:00	2	Temperatura media	14.2
50074	7	Sololá	717	San Juan la Laguna	12	San Juan la Laguna	4	Abril	2023-04-25T00:00:00	2024-11-08T05:00:00	4	Temperatura máxima	14.4
50075	7	Sololá	717	San Juan la Laguna	12	San Juan la Laguna	4	Abril	2023-04-25T00:00:00	2024-11-08T05:00:00	3	Temperatura mínima	14
50076	7	Sololá	717	San Juan la Laguna	12	San Juan la Laguna	4	Abril	2023-04-25T00:00:00	2024-11-08T05:00:00	5	Humedad	91
50077	7	Sololá	717	San Juan la Laguna	12	San Juan la Laguna	4	Abril	2023-04-25T00:00:00	2024-11-08T05:00:00	6	Velocidad del viento	1.6
50078	7	Sololá	717	San Juan la Laguna	12	San Juan la Laguna	4	Abril	2023-04-25T00:00:00	2024-11-08T05:00:00	7	Dirección del viento	1.61
50079	7	Sololá	717	San Juan la Laguna	12	San Juan la Laguna	4	Abril	2023-04-25T00:00:00	2024-11-08T05:00:00	1	Precipitación	0
50080	7	Sololá	717	San Juan la Laguna	12	San Juan la Laguna	4	Abril	2023-04-25T00:00:00	2024-11-08T05:00:00	8	Radiación solar	0
50081	7	Sololá	717	San Juan la Laguna	12	San Juan la Laguna	4	Abril	2023-04-25T00:00:00	2024-11-08T06:00:00	2	Temperatura media	14.8
50082	7	Sololá	717	San Juan la Laguna	12	San Juan la Laguna	4	Abril	2023-04-25T00:00:00	2024-11-08T06:00:00	4	Temperatura máxima	14.9
50083	7	Sololá	717	San Juan la Laguna	12	San Juan la Laguna	4	Abril	2023-04-25T00:00:00	2024-11-08T06:00:00	3	Temperatura mínima	14
50084	7	Sololá	717	San Juan la Laguna	12	San Juan la Laguna	4	Abril	2023-04-25T00:00:00	2024-11-08T06:00:00	5	Humedad	88
50085	7	Sololá	717	San Juan la Laguna	12	San Juan la Laguna	4	Abril	2023-04-25T00:00:00	2024-11-08T06:00:00	6	Velocidad del viento	4.8
50086	7	Sololá	717	San Juan la Laguna	12	San Juan la Laguna	4	Abril	2023-04-25T00:00:00	2024-11-08T06:00:00	7	Dirección del viento	4.83
50087	7	Sololá	717	San Juan la Laguna	12	San Juan la Laguna	4	Abril	2023-04-25T00:00:00	2024-11-08T06:00:00	1	Precipitación	0
50088	7	Sololá	717	San Juan la Laguna	12	San Juan la Laguna	4	Abril	2023-04-25T00:00:00	2024-11-08T06:00:00	8	Radiación solar	2
50089	7	Sololá	717	San Juan la Laguna	12	San Juan la Laguna	4	Abril	2023-04-25T00:00:00	2024-11-08T07:00:00	2	Temperatura media	15.7
50090	7	Sololá	717	San Juan la Laguna	12	San Juan la Laguna	4	Abril	2023-04-25T00:00:00	2024-11-08T07:00:00	4	Temperatura máxima	15.7
50091	7	Sololá	717	San Juan la Laguna	12	San Juan la Laguna	4	Abril	2023-04-25T00:00:00	2024-11-08T07:00:00	3	Temperatura mínima	14.6
50092	7	Sololá	717	San Juan la Laguna	12	San Juan la Laguna	4	Abril	2023-04-25T00:00:00	2024-11-08T07:00:00	5	Humedad	89
50093	7	Sololá	717	San Juan la Laguna	12	San Juan la Laguna	4	Abril	2023-04-25T00:00:00	2024-11-08T07:00:00	6	Velocidad del viento	1.6
50094	7	Sololá	717	San Juan la Laguna	12	San Juan la Laguna	4	Abril	2023-04-25T00:00:00	2024-11-08T07:00:00	7	Dirección del viento	1.61
50095	7	Sololá	717	San Juan la Laguna	12	San Juan la Laguna	4	Abril	2023-04-25T00:00:00	2024-11-08T07:00:00	1	Precipitación	0
50096	7	Sololá	717	San Juan la Laguna	12	San Juan la Laguna	4	Abril	2023-04-25T00:00:00	2024-11-08T07:00:00	8	Radiación solar	69
50097	7	Sololá	717	San Juan la Laguna	12	San Juan la Laguna	4	Abril	2023-04-25T00:00:00	2024-11-08T08:00:00	2	Temperatura media	19.2
50098	7	Sololá	717	San Juan la Laguna	12	San Juan la Laguna	4	Abril	2023-04-25T00:00:00	2024-11-08T08:00:00	4	Temperatura máxima	19.2
50099	7	Sololá	717	San Juan la Laguna	12	San Juan la Laguna	4	Abril	2023-04-25T00:00:00	2024-11-08T08:00:00	3	Temperatura mínima	15.7
50100	7	Sololá	717	San Juan la Laguna	12	San Juan la Laguna	4	Abril	2023-04-25T00:00:00	2024-11-08T08:00:00	5	Humedad	81
50101	7	Sololá	717	San Juan la Laguna	12	San Juan la Laguna	4	Abril	2023-04-25T00:00:00	2024-11-08T08:00:00	6	Velocidad del viento	0
50102	7	Sololá	717	San Juan la Laguna	12	San Juan la Laguna	4	Abril	2023-04-25T00:00:00	2024-11-08T08:00:00	7	Dirección del viento	0
50103	7	Sololá	717	San Juan la Laguna	12	San Juan la Laguna	4	Abril	2023-04-25T00:00:00	2024-11-08T08:00:00	1	Precipitación	0
50104	7	Sololá	717	San Juan la Laguna	12	San Juan la Laguna	4	Abril	2023-04-25T00:00:00	2024-11-08T08:00:00	8	Radiación solar	253
50105	7	Sololá	717	San Juan la Laguna	12	San Juan la Laguna	4	Abril	2023-04-25T00:00:00	2024-11-08T09:00:00	2	Temperatura media	21
50106	7	Sololá	717	San Juan la Laguna	12	San Juan la Laguna	4	Abril	2023-04-25T00:00:00	2024-11-08T09:00:00	4	Temperatura máxima	21
50107	7	Sololá	717	San Juan la Laguna	12	San Juan la Laguna	4	Abril	2023-04-25T00:00:00	2024-11-08T09:00:00	3	Temperatura mínima	19.2
50108	7	Sololá	717	San Juan la Laguna	12	San Juan la Laguna	4	Abril	2023-04-25T00:00:00	2024-11-08T09:00:00	5	Humedad	77
50109	7	Sololá	717	San Juan la Laguna	12	San Juan la Laguna	4	Abril	2023-04-25T00:00:00	2024-11-08T09:00:00	6	Velocidad del viento	1.6
50110	7	Sololá	717	San Juan la Laguna	12	San Juan la Laguna	4	Abril	2023-04-25T00:00:00	2024-11-08T09:00:00	7	Dirección del viento	1.61
50111	7	Sololá	717	San Juan la Laguna	12	San Juan la Laguna	4	Abril	2023-04-25T00:00:00	2024-11-08T09:00:00	1	Precipitación	0
50112	7	Sololá	717	San Juan la Laguna	12	San Juan la Laguna	4	Abril	2023-04-25T00:00:00	2024-11-08T09:00:00	8	Radiación solar	456
50113	7	Sololá	717	San Juan la Laguna	12	San Juan la Laguna	4	Abril	2023-04-25T00:00:00	2024-11-08T10:00:00	2	Temperatura media	21.7
50114	7	Sololá	717	San Juan la Laguna	12	San Juan la Laguna	4	Abril	2023-04-25T00:00:00	2024-11-08T10:00:00	4	Temperatura máxima	21.9
50115	7	Sololá	717	San Juan la Laguna	12	San Juan la Laguna	4	Abril	2023-04-25T00:00:00	2024-11-08T10:00:00	3	Temperatura mínima	20.9
50116	7	Sololá	717	San Juan la Laguna	12	San Juan la Laguna	4	Abril	2023-04-25T00:00:00	2024-11-08T10:00:00	5	Humedad	71
50117	7	Sololá	717	San Juan la Laguna	12	San Juan la Laguna	4	Abril	2023-04-25T00:00:00	2024-11-08T10:00:00	6	Velocidad del viento	1.6
50118	7	Sololá	717	San Juan la Laguna	12	San Juan la Laguna	4	Abril	2023-04-25T00:00:00	2024-11-08T10:00:00	7	Dirección del viento	1.61
50119	7	Sololá	717	San Juan la Laguna	12	San Juan la Laguna	4	Abril	2023-04-25T00:00:00	2024-11-08T10:00:00	1	Precipitación	0
50120	7	Sololá	717	San Juan la Laguna	12	San Juan la Laguna	4	Abril	2023-04-25T00:00:00	2024-11-08T10:00:00	8	Radiación solar	637
50121	7	Sololá	717	San Juan la Laguna	12	San Juan la Laguna	4	Abril	2023-04-25T00:00:00	2024-11-08T11:00:00	2	Temperatura media	22.7
50122	7	Sololá	717	San Juan la Laguna	12	San Juan la Laguna	4	Abril	2023-04-25T00:00:00	2024-11-08T11:00:00	4	Temperatura máxima	23.8
50123	7	Sololá	717	San Juan la Laguna	12	San Juan la Laguna	4	Abril	2023-04-25T00:00:00	2024-11-08T11:00:00	3	Temperatura mínima	21.6
50124	7	Sololá	717	San Juan la Laguna	12	San Juan la Laguna	4	Abril	2023-04-25T00:00:00	2024-11-08T11:00:00	5	Humedad	66
50125	7	Sololá	717	San Juan la Laguna	12	San Juan la Laguna	4	Abril	2023-04-25T00:00:00	2024-11-08T11:00:00	6	Velocidad del viento	1.6
50126	7	Sololá	717	San Juan la Laguna	12	San Juan la Laguna	4	Abril	2023-04-25T00:00:00	2024-11-08T11:00:00	7	Dirección del viento	1.61
50127	7	Sololá	717	San Juan la Laguna	12	San Juan la Laguna	4	Abril	2023-04-25T00:00:00	2024-11-08T11:00:00	1	Precipitación	0
50128	7	Sololá	717	San Juan la Laguna	12	San Juan la Laguna	4	Abril	2023-04-25T00:00:00	2024-11-08T11:00:00	8	Radiación solar	822
50129	7	Sololá	717	San Juan la Laguna	12	San Juan la Laguna	4	Abril	2023-04-25T00:00:00	2024-11-08T12:00:00	2	Temperatura media	24.2
50130	7	Sololá	717	San Juan la Laguna	12	San Juan la Laguna	4	Abril	2023-04-25T00:00:00	2024-11-08T12:00:00	4	Temperatura máxima	24.2
50131	7	Sololá	717	San Juan la Laguna	12	San Juan la Laguna	4	Abril	2023-04-25T00:00:00	2024-11-08T12:00:00	3	Temperatura mínima	22.7
50132	7	Sololá	717	San Juan la Laguna	12	San Juan la Laguna	4	Abril	2023-04-25T00:00:00	2024-11-08T12:00:00	5	Humedad	63
50133	7	Sololá	717	San Juan la Laguna	12	San Juan la Laguna	4	Abril	2023-04-25T00:00:00	2024-11-08T12:00:00	6	Velocidad del viento	1.6
50134	7	Sololá	717	San Juan la Laguna	12	San Juan la Laguna	4	Abril	2023-04-25T00:00:00	2024-11-08T12:00:00	7	Dirección del viento	1.61
50135	7	Sololá	717	San Juan la Laguna	12	San Juan la Laguna	4	Abril	2023-04-25T00:00:00	2024-11-08T12:00:00	1	Precipitación	0
50136	7	Sololá	717	San Juan la Laguna	12	San Juan la Laguna	4	Abril	2023-04-25T00:00:00	2024-11-08T12:00:00	8	Radiación solar	907
50137	7	Sololá	717	San Juan la Laguna	12	San Juan la Laguna	4	Abril	2023-04-25T00:00:00	2024-11-08T13:00:00	2	Temperatura media	23.8
50138	7	Sololá	717	San Juan la Laguna	12	San Juan la Laguna	4	Abril	2023-04-25T00:00:00	2024-11-08T13:00:00	4	Temperatura máxima	24.8
50139	7	Sololá	717	San Juan la Laguna	12	San Juan la Laguna	4	Abril	2023-04-25T00:00:00	2024-11-08T13:00:00	3	Temperatura mínima	23.8
50140	7	Sololá	717	San Juan la Laguna	12	San Juan la Laguna	4	Abril	2023-04-25T00:00:00	2024-11-08T13:00:00	5	Humedad	68
50141	7	Sololá	717	San Juan la Laguna	12	San Juan la Laguna	4	Abril	2023-04-25T00:00:00	2024-11-08T13:00:00	6	Velocidad del viento	1.6
50142	7	Sololá	717	San Juan la Laguna	12	San Juan la Laguna	4	Abril	2023-04-25T00:00:00	2024-11-08T13:00:00	7	Dirección del viento	1.61
50143	7	Sololá	717	San Juan la Laguna	12	San Juan la Laguna	4	Abril	2023-04-25T00:00:00	2024-11-08T13:00:00	1	Precipitación	0
50144	7	Sololá	717	San Juan la Laguna	12	San Juan la Laguna	4	Abril	2023-04-25T00:00:00	2024-11-08T13:00:00	8	Radiación solar	708
50145	7	Sololá	717	San Juan la Laguna	12	San Juan la Laguna	4	Abril	2023-04-25T00:00:00	2024-11-08T14:00:00	2	Temperatura media	22.4
50146	7	Sololá	717	San Juan la Laguna	12	San Juan la Laguna	4	Abril	2023-04-25T00:00:00	2024-11-08T14:00:00	4	Temperatura máxima	23.8
50147	7	Sololá	717	San Juan la Laguna	12	San Juan la Laguna	4	Abril	2023-04-25T00:00:00	2024-11-08T14:00:00	3	Temperatura mínima	22.4
50148	7	Sololá	717	San Juan la Laguna	12	San Juan la Laguna	4	Abril	2023-04-25T00:00:00	2024-11-08T14:00:00	5	Humedad	75
50149	7	Sololá	717	San Juan la Laguna	12	San Juan la Laguna	4	Abril	2023-04-25T00:00:00	2024-11-08T14:00:00	6	Velocidad del viento	3.2
50150	7	Sololá	717	San Juan la Laguna	12	San Juan la Laguna	4	Abril	2023-04-25T00:00:00	2024-11-08T14:00:00	7	Dirección del viento	3.22
50151	7	Sololá	717	San Juan la Laguna	12	San Juan la Laguna	4	Abril	2023-04-25T00:00:00	2024-11-08T14:00:00	1	Precipitación	0
50152	7	Sololá	717	San Juan la Laguna	12	San Juan la Laguna	4	Abril	2023-04-25T00:00:00	2024-11-08T14:00:00	8	Radiación solar	238
50153	7	Sololá	717	San Juan la Laguna	12	San Juan la Laguna	4	Abril	2023-04-25T00:00:00	2024-11-08T15:00:00	2	Temperatura media	19.4
50154	7	Sololá	717	San Juan la Laguna	12	San Juan la Laguna	4	Abril	2023-04-25T00:00:00	2024-11-08T15:00:00	4	Temperatura máxima	22.4
50155	7	Sololá	717	San Juan la Laguna	12	San Juan la Laguna	4	Abril	2023-04-25T00:00:00	2024-11-08T15:00:00	3	Temperatura mínima	19.2
50156	7	Sololá	717	San Juan la Laguna	12	San Juan la Laguna	4	Abril	2023-04-25T00:00:00	2024-11-08T15:00:00	5	Humedad	91
50157	7	Sololá	717	San Juan la Laguna	12	San Juan la Laguna	4	Abril	2023-04-25T00:00:00	2024-11-08T15:00:00	6	Velocidad del viento	3.2
50158	7	Sololá	717	San Juan la Laguna	12	San Juan la Laguna	4	Abril	2023-04-25T00:00:00	2024-11-08T15:00:00	7	Dirección del viento	3.22
50159	7	Sololá	717	San Juan la Laguna	12	San Juan la Laguna	4	Abril	2023-04-25T00:00:00	2024-11-08T15:00:00	1	Precipitación	8
50160	7	Sololá	717	San Juan la Laguna	12	San Juan la Laguna	4	Abril	2023-04-25T00:00:00	2024-11-08T15:00:00	8	Radiación solar	104
50161	7	Sololá	717	San Juan la Laguna	12	San Juan la Laguna	4	Abril	2023-04-25T00:00:00	2024-11-08T16:00:00	2	Temperatura media	20.7
50162	7	Sololá	717	San Juan la Laguna	12	San Juan la Laguna	4	Abril	2023-04-25T00:00:00	2024-11-08T16:00:00	4	Temperatura máxima	20.8
50163	7	Sololá	717	San Juan la Laguna	12	San Juan la Laguna	4	Abril	2023-04-25T00:00:00	2024-11-08T16:00:00	3	Temperatura mínima	19.4
50164	7	Sololá	717	San Juan la Laguna	12	San Juan la Laguna	4	Abril	2023-04-25T00:00:00	2024-11-08T16:00:00	5	Humedad	83
50165	7	Sololá	717	San Juan la Laguna	12	San Juan la Laguna	4	Abril	2023-04-25T00:00:00	2024-11-08T16:00:00	6	Velocidad del viento	4.8
50166	7	Sololá	717	San Juan la Laguna	12	San Juan la Laguna	4	Abril	2023-04-25T00:00:00	2024-11-08T16:00:00	7	Dirección del viento	4.83
50167	7	Sololá	717	San Juan la Laguna	12	San Juan la Laguna	4	Abril	2023-04-25T00:00:00	2024-11-08T16:00:00	1	Precipitación	0.2
50168	7	Sololá	717	San Juan la Laguna	12	San Juan la Laguna	4	Abril	2023-04-25T00:00:00	2024-11-08T16:00:00	8	Radiación solar	214
50169	7	Sololá	717	San Juan la Laguna	12	San Juan la Laguna	4	Abril	2023-04-25T00:00:00	2024-11-08T17:00:00	2	Temperatura media	20.1
50170	7	Sololá	717	San Juan la Laguna	12	San Juan la Laguna	4	Abril	2023-04-25T00:00:00	2024-11-08T17:00:00	4	Temperatura máxima	20.7
50171	7	Sololá	717	San Juan la Laguna	12	San Juan la Laguna	4	Abril	2023-04-25T00:00:00	2024-11-08T17:00:00	3	Temperatura mínima	20.1
50172	7	Sololá	717	San Juan la Laguna	12	San Juan la Laguna	4	Abril	2023-04-25T00:00:00	2024-11-08T17:00:00	5	Humedad	83
50173	7	Sololá	717	San Juan la Laguna	12	San Juan la Laguna	4	Abril	2023-04-25T00:00:00	2024-11-08T17:00:00	6	Velocidad del viento	4.8
50174	7	Sololá	717	San Juan la Laguna	12	San Juan la Laguna	4	Abril	2023-04-25T00:00:00	2024-11-08T17:00:00	7	Dirección del viento	4.83
50175	7	Sololá	717	San Juan la Laguna	12	San Juan la Laguna	4	Abril	2023-04-25T00:00:00	2024-11-08T17:00:00	1	Precipitación	0
50176	7	Sololá	717	San Juan la Laguna	12	San Juan la Laguna	4	Abril	2023-04-25T00:00:00	2024-11-08T17:00:00	8	Radiación solar	129
50177	7	Sololá	717	San Juan la Laguna	12	San Juan la Laguna	4	Abril	2023-04-25T00:00:00	2024-11-08T18:00:00	2	Temperatura media	20
50178	7	Sololá	717	San Juan la Laguna	12	San Juan la Laguna	4	Abril	2023-04-25T00:00:00	2024-11-08T18:00:00	4	Temperatura máxima	20.2
50179	7	Sololá	717	San Juan la Laguna	12	San Juan la Laguna	4	Abril	2023-04-25T00:00:00	2024-11-08T18:00:00	3	Temperatura mínima	20
50180	7	Sololá	717	San Juan la Laguna	12	San Juan la Laguna	4	Abril	2023-04-25T00:00:00	2024-11-08T18:00:00	5	Humedad	83
50181	7	Sololá	717	San Juan la Laguna	12	San Juan la Laguna	4	Abril	2023-04-25T00:00:00	2024-11-08T18:00:00	6	Velocidad del viento	3.2
50182	7	Sololá	717	San Juan la Laguna	12	San Juan la Laguna	4	Abril	2023-04-25T00:00:00	2024-11-08T18:00:00	7	Dirección del viento	3.22
50183	7	Sololá	717	San Juan la Laguna	12	San Juan la Laguna	4	Abril	2023-04-25T00:00:00	2024-11-08T18:00:00	1	Precipitación	0
50184	7	Sololá	717	San Juan la Laguna	12	San Juan la Laguna	4	Abril	2023-04-25T00:00:00	2024-11-08T18:00:00	8	Radiación solar	49
50185	7	Sololá	717	San Juan la Laguna	12	San Juan la Laguna	4	Abril	2023-04-25T00:00:00	2024-11-08T19:00:00	2	Temperatura media	18.9
50186	7	Sololá	717	San Juan la Laguna	12	San Juan la Laguna	4	Abril	2023-04-25T00:00:00	2024-11-08T19:00:00	4	Temperatura máxima	19.9
50187	7	Sololá	717	San Juan la Laguna	12	San Juan la Laguna	4	Abril	2023-04-25T00:00:00	2024-11-08T19:00:00	3	Temperatura mínima	18.9
50188	7	Sololá	717	San Juan la Laguna	12	San Juan la Laguna	4	Abril	2023-04-25T00:00:00	2024-11-08T19:00:00	5	Humedad	85
50189	7	Sololá	717	San Juan la Laguna	12	San Juan la Laguna	4	Abril	2023-04-25T00:00:00	2024-11-08T19:00:00	6	Velocidad del viento	3.2
50190	7	Sololá	717	San Juan la Laguna	12	San Juan la Laguna	4	Abril	2023-04-25T00:00:00	2024-11-08T19:00:00	7	Dirección del viento	3.22
50191	7	Sololá	717	San Juan la Laguna	12	San Juan la Laguna	4	Abril	2023-04-25T00:00:00	2024-11-08T19:00:00	1	Precipitación	0
50192	7	Sololá	717	San Juan la Laguna	12	San Juan la Laguna	4	Abril	2023-04-25T00:00:00	2024-11-08T19:00:00	8	Radiación solar	0
50193	7	Sololá	717	San Juan la Laguna	12	San Juan la Laguna	4	Abril	2023-04-25T00:00:00	2024-11-08T20:00:00	2	Temperatura media	18.6
50194	7	Sololá	717	San Juan la Laguna	12	San Juan la Laguna	4	Abril	2023-04-25T00:00:00	2024-11-08T20:00:00	4	Temperatura máxima	18.9
50195	7	Sololá	717	San Juan la Laguna	12	San Juan la Laguna	4	Abril	2023-04-25T00:00:00	2024-11-08T20:00:00	3	Temperatura mínima	18.3
50196	7	Sololá	717	San Juan la Laguna	12	San Juan la Laguna	4	Abril	2023-04-25T00:00:00	2024-11-08T20:00:00	5	Humedad	85
50197	7	Sololá	717	San Juan la Laguna	12	San Juan la Laguna	4	Abril	2023-04-25T00:00:00	2024-11-08T20:00:00	6	Velocidad del viento	3.2
50198	7	Sololá	717	San Juan la Laguna	12	San Juan la Laguna	4	Abril	2023-04-25T00:00:00	2024-11-08T20:00:00	7	Dirección del viento	3.22
50199	7	Sololá	717	San Juan la Laguna	12	San Juan la Laguna	4	Abril	2023-04-25T00:00:00	2024-11-08T20:00:00	1	Precipitación	0
50200	7	Sololá	717	San Juan la Laguna	12	San Juan la Laguna	4	Abril	2023-04-25T00:00:00	2024-11-08T20:00:00	8	Radiación solar	0
50201	7	Sololá	717	San Juan la Laguna	12	San Juan la Laguna	4	Abril	2023-04-25T00:00:00	2024-11-08T21:00:00	2	Temperatura media	17.9
50202	7	Sololá	717	San Juan la Laguna	12	San Juan la Laguna	4	Abril	2023-04-25T00:00:00	2024-11-08T21:00:00	4	Temperatura máxima	18.6
50203	7	Sololá	717	San Juan la Laguna	12	San Juan la Laguna	4	Abril	2023-04-25T00:00:00	2024-11-08T21:00:00	3	Temperatura mínima	17.9
50204	7	Sololá	717	San Juan la Laguna	12	San Juan la Laguna	4	Abril	2023-04-25T00:00:00	2024-11-08T21:00:00	5	Humedad	87
50205	7	Sololá	717	San Juan la Laguna	12	San Juan la Laguna	4	Abril	2023-04-25T00:00:00	2024-11-08T21:00:00	6	Velocidad del viento	1.6
50206	7	Sololá	717	San Juan la Laguna	12	San Juan la Laguna	4	Abril	2023-04-25T00:00:00	2024-11-08T21:00:00	7	Dirección del viento	1.61
50207	7	Sololá	717	San Juan la Laguna	12	San Juan la Laguna	4	Abril	2023-04-25T00:00:00	2024-11-08T21:00:00	1	Precipitación	0
50208	7	Sololá	717	San Juan la Laguna	12	San Juan la Laguna	4	Abril	2023-04-25T00:00:00	2024-11-08T21:00:00	8	Radiación solar	0
50209	7	Sololá	717	San Juan la Laguna	12	San Juan la Laguna	4	Abril	2023-04-25T00:00:00	2024-11-08T22:00:00	2	Temperatura media	17.7
50210	7	Sololá	717	San Juan la Laguna	12	San Juan la Laguna	4	Abril	2023-04-25T00:00:00	2024-11-08T22:00:00	4	Temperatura máxima	17.9
50211	7	Sololá	717	San Juan la Laguna	12	San Juan la Laguna	4	Abril	2023-04-25T00:00:00	2024-11-08T22:00:00	3	Temperatura mínima	17.5
50212	7	Sololá	717	San Juan la Laguna	12	San Juan la Laguna	4	Abril	2023-04-25T00:00:00	2024-11-08T22:00:00	5	Humedad	86
50213	7	Sololá	717	San Juan la Laguna	12	San Juan la Laguna	4	Abril	2023-04-25T00:00:00	2024-11-08T22:00:00	6	Velocidad del viento	4.8
50214	7	Sololá	717	San Juan la Laguna	12	San Juan la Laguna	4	Abril	2023-04-25T00:00:00	2024-11-08T22:00:00	7	Dirección del viento	4.83
50215	7	Sololá	717	San Juan la Laguna	12	San Juan la Laguna	4	Abril	2023-04-25T00:00:00	2024-11-08T22:00:00	1	Precipitación	0
50216	7	Sololá	717	San Juan la Laguna	12	San Juan la Laguna	4	Abril	2023-04-25T00:00:00	2024-11-08T22:00:00	8	Radiación solar	0
50217	7	Sololá	717	San Juan la Laguna	12	San Juan la Laguna	4	Abril	2023-04-25T00:00:00	2024-11-08T23:00:00	2	Temperatura media	18.1
50218	7	Sololá	717	San Juan la Laguna	12	San Juan la Laguna	4	Abril	2023-04-25T00:00:00	2024-11-08T23:00:00	4	Temperatura máxima	18.2
50219	7	Sololá	717	San Juan la Laguna	12	San Juan la Laguna	4	Abril	2023-04-25T00:00:00	2024-11-08T23:00:00	3	Temperatura mínima	17.7
50220	7	Sololá	717	San Juan la Laguna	12	San Juan la Laguna	4	Abril	2023-04-25T00:00:00	2024-11-08T23:00:00	5	Humedad	85
50221	7	Sololá	717	San Juan la Laguna	12	San Juan la Laguna	4	Abril	2023-04-25T00:00:00	2024-11-08T23:00:00	6	Velocidad del viento	1.6
50222	7	Sololá	717	San Juan la Laguna	12	San Juan la Laguna	4	Abril	2023-04-25T00:00:00	2024-11-08T23:00:00	7	Dirección del viento	1.61
50223	7	Sololá	717	San Juan la Laguna	12	San Juan la Laguna	4	Abril	2023-04-25T00:00:00	2024-11-08T23:00:00	1	Precipitación	0
50224	7	Sololá	717	San Juan la Laguna	12	San Juan la Laguna	4	Abril	2023-04-25T00:00:00	2024-11-08T23:00:00	8	Radiación solar	0
50225	7	Sololá	717	San Juan la Laguna	12	San Juan la Laguna	4	Abril	2023-04-26T00:00:00	2024-11-08T00:00:00	2	Temperatura media	18.1
50226	7	Sololá	717	San Juan la Laguna	12	San Juan la Laguna	4	Abril	2023-04-26T00:00:00	2024-11-08T00:00:00	4	Temperatura máxima	18.1
50227	7	Sololá	717	San Juan la Laguna	12	San Juan la Laguna	4	Abril	2023-04-26T00:00:00	2024-11-08T00:00:00	3	Temperatura mínima	17.9
50228	7	Sololá	717	San Juan la Laguna	12	San Juan la Laguna	4	Abril	2023-04-26T00:00:00	2024-11-08T00:00:00	5	Humedad	85
50229	7	Sololá	717	San Juan la Laguna	12	San Juan la Laguna	4	Abril	2023-04-26T00:00:00	2024-11-08T00:00:00	6	Velocidad del viento	0
50230	7	Sololá	717	San Juan la Laguna	12	San Juan la Laguna	4	Abril	2023-04-26T00:00:00	2024-11-08T00:00:00	7	Dirección del viento	0
50231	7	Sololá	717	San Juan la Laguna	12	San Juan la Laguna	4	Abril	2023-04-26T00:00:00	2024-11-08T00:00:00	1	Precipitación	0
50232	7	Sololá	717	San Juan la Laguna	12	San Juan la Laguna	4	Abril	2023-04-26T00:00:00	2024-11-08T00:00:00	8	Radiación solar	0
50233	7	Sololá	717	San Juan la Laguna	12	San Juan la Laguna	4	Abril	2023-04-26T00:00:00	2024-11-08T01:00:00	2	Temperatura media	18.2
50234	7	Sololá	717	San Juan la Laguna	12	San Juan la Laguna	4	Abril	2023-04-26T00:00:00	2024-11-08T01:00:00	4	Temperatura máxima	18.3
50235	7	Sololá	717	San Juan la Laguna	12	San Juan la Laguna	4	Abril	2023-04-26T00:00:00	2024-11-08T01:00:00	3	Temperatura mínima	18
50236	7	Sololá	717	San Juan la Laguna	12	San Juan la Laguna	4	Abril	2023-04-26T00:00:00	2024-11-08T01:00:00	5	Humedad	83
50237	7	Sololá	717	San Juan la Laguna	12	San Juan la Laguna	4	Abril	2023-04-26T00:00:00	2024-11-08T01:00:00	6	Velocidad del viento	1.6
50238	7	Sololá	717	San Juan la Laguna	12	San Juan la Laguna	4	Abril	2023-04-26T00:00:00	2024-11-08T01:00:00	7	Dirección del viento	1.61
50239	7	Sololá	717	San Juan la Laguna	12	San Juan la Laguna	4	Abril	2023-04-26T00:00:00	2024-11-08T01:00:00	1	Precipitación	0
50240	7	Sololá	717	San Juan la Laguna	12	San Juan la Laguna	4	Abril	2023-04-26T00:00:00	2024-11-08T01:00:00	8	Radiación solar	0
50241	7	Sololá	717	San Juan la Laguna	12	San Juan la Laguna	4	Abril	2023-04-26T00:00:00	2024-11-08T02:00:00	2	Temperatura media	18
50242	7	Sololá	717	San Juan la Laguna	12	San Juan la Laguna	4	Abril	2023-04-26T00:00:00	2024-11-08T02:00:00	4	Temperatura máxima	18.2
50243	7	Sololá	717	San Juan la Laguna	12	San Juan la Laguna	4	Abril	2023-04-26T00:00:00	2024-11-08T02:00:00	3	Temperatura mínima	17.9
50244	7	Sololá	717	San Juan la Laguna	12	San Juan la Laguna	4	Abril	2023-04-26T00:00:00	2024-11-08T02:00:00	5	Humedad	84
50245	7	Sololá	717	San Juan la Laguna	12	San Juan la Laguna	4	Abril	2023-04-26T00:00:00	2024-11-08T02:00:00	6	Velocidad del viento	1.6
50246	7	Sololá	717	San Juan la Laguna	12	San Juan la Laguna	4	Abril	2023-04-26T00:00:00	2024-11-08T02:00:00	7	Dirección del viento	1.61
50247	7	Sololá	717	San Juan la Laguna	12	San Juan la Laguna	4	Abril	2023-04-26T00:00:00	2024-11-08T02:00:00	1	Precipitación	0
50248	7	Sololá	717	San Juan la Laguna	12	San Juan la Laguna	4	Abril	2023-04-26T00:00:00	2024-11-08T02:00:00	8	Radiación solar	0
50249	7	Sololá	717	San Juan la Laguna	12	San Juan la Laguna	4	Abril	2023-04-26T00:00:00	2024-11-08T03:00:00	2	Temperatura media	17.3
50250	7	Sololá	717	San Juan la Laguna	12	San Juan la Laguna	4	Abril	2023-04-26T00:00:00	2024-11-08T03:00:00	4	Temperatura máxima	18
50251	7	Sololá	717	San Juan la Laguna	12	San Juan la Laguna	4	Abril	2023-04-26T00:00:00	2024-11-08T03:00:00	3	Temperatura mínima	17.3
50252	7	Sololá	717	San Juan la Laguna	12	San Juan la Laguna	4	Abril	2023-04-26T00:00:00	2024-11-08T03:00:00	5	Humedad	86
50253	7	Sololá	717	San Juan la Laguna	12	San Juan la Laguna	4	Abril	2023-04-26T00:00:00	2024-11-08T03:00:00	6	Velocidad del viento	1.6
50254	7	Sololá	717	San Juan la Laguna	12	San Juan la Laguna	4	Abril	2023-04-26T00:00:00	2024-11-08T03:00:00	7	Dirección del viento	1.61
50255	7	Sololá	717	San Juan la Laguna	12	San Juan la Laguna	4	Abril	2023-04-26T00:00:00	2024-11-08T03:00:00	1	Precipitación	0
50256	7	Sololá	717	San Juan la Laguna	12	San Juan la Laguna	4	Abril	2023-04-26T00:00:00	2024-11-08T03:00:00	8	Radiación solar	0
50257	7	Sololá	717	San Juan la Laguna	12	San Juan la Laguna	4	Abril	2023-04-26T00:00:00	2024-11-08T04:00:00	2	Temperatura media	17.3
50258	7	Sololá	717	San Juan la Laguna	12	San Juan la Laguna	4	Abril	2023-04-26T00:00:00	2024-11-08T04:00:00	4	Temperatura máxima	17.4
50259	7	Sololá	717	San Juan la Laguna	12	San Juan la Laguna	4	Abril	2023-04-26T00:00:00	2024-11-08T04:00:00	3	Temperatura mínima	17.3
50260	7	Sololá	717	San Juan la Laguna	12	San Juan la Laguna	4	Abril	2023-04-26T00:00:00	2024-11-08T04:00:00	5	Humedad	85
50261	7	Sololá	717	San Juan la Laguna	12	San Juan la Laguna	4	Abril	2023-04-26T00:00:00	2024-11-08T04:00:00	6	Velocidad del viento	1.6
50262	7	Sololá	717	San Juan la Laguna	12	San Juan la Laguna	4	Abril	2023-04-26T00:00:00	2024-11-08T04:00:00	7	Dirección del viento	1.61
50263	7	Sololá	717	San Juan la Laguna	12	San Juan la Laguna	4	Abril	2023-04-26T00:00:00	2024-11-08T04:00:00	1	Precipitación	0
50264	7	Sololá	717	San Juan la Laguna	12	San Juan la Laguna	4	Abril	2023-04-26T00:00:00	2024-11-08T04:00:00	8	Radiación solar	0
50265	7	Sololá	717	San Juan la Laguna	12	San Juan la Laguna	4	Abril	2023-04-26T00:00:00	2024-11-08T05:00:00	2	Temperatura media	17.3
50266	7	Sololá	717	San Juan la Laguna	12	San Juan la Laguna	4	Abril	2023-04-26T00:00:00	2024-11-08T05:00:00	4	Temperatura máxima	17.3
50267	7	Sololá	717	San Juan la Laguna	12	San Juan la Laguna	4	Abril	2023-04-26T00:00:00	2024-11-08T05:00:00	3	Temperatura mínima	17.3
50268	7	Sololá	717	San Juan la Laguna	12	San Juan la Laguna	4	Abril	2023-04-26T00:00:00	2024-11-08T05:00:00	5	Humedad	86
50269	7	Sololá	717	San Juan la Laguna	12	San Juan la Laguna	4	Abril	2023-04-26T00:00:00	2024-11-08T05:00:00	6	Velocidad del viento	1.6
50270	7	Sololá	717	San Juan la Laguna	12	San Juan la Laguna	4	Abril	2023-04-26T00:00:00	2024-11-08T05:00:00	7	Dirección del viento	1.61
50271	7	Sololá	717	San Juan la Laguna	12	San Juan la Laguna	4	Abril	2023-04-26T00:00:00	2024-11-08T05:00:00	1	Precipitación	0
50272	7	Sololá	717	San Juan la Laguna	12	San Juan la Laguna	4	Abril	2023-04-26T00:00:00	2024-11-08T05:00:00	8	Radiación solar	0
50273	7	Sololá	717	San Juan la Laguna	12	San Juan la Laguna	4	Abril	2023-04-26T00:00:00	2024-11-08T06:00:00	2	Temperatura media	16.7
50274	7	Sololá	717	San Juan la Laguna	12	San Juan la Laguna	4	Abril	2023-04-26T00:00:00	2024-11-08T06:00:00	4	Temperatura máxima	17.3
50275	7	Sololá	717	San Juan la Laguna	12	San Juan la Laguna	4	Abril	2023-04-26T00:00:00	2024-11-08T06:00:00	3	Temperatura mínima	16.7
50276	7	Sololá	717	San Juan la Laguna	12	San Juan la Laguna	4	Abril	2023-04-26T00:00:00	2024-11-08T06:00:00	5	Humedad	87
50277	7	Sololá	717	San Juan la Laguna	12	San Juan la Laguna	4	Abril	2023-04-26T00:00:00	2024-11-08T06:00:00	6	Velocidad del viento	1.6
50278	7	Sololá	717	San Juan la Laguna	12	San Juan la Laguna	4	Abril	2023-04-26T00:00:00	2024-11-08T06:00:00	7	Dirección del viento	1.61
50279	7	Sololá	717	San Juan la Laguna	12	San Juan la Laguna	4	Abril	2023-04-26T00:00:00	2024-11-08T06:00:00	1	Precipitación	0
50280	7	Sololá	717	San Juan la Laguna	12	San Juan la Laguna	4	Abril	2023-04-26T00:00:00	2024-11-08T06:00:00	8	Radiación solar	2
50281	7	Sololá	717	San Juan la Laguna	12	San Juan la Laguna	4	Abril	2023-04-26T00:00:00	2024-11-08T07:00:00	2	Temperatura media	18.2
50282	7	Sololá	717	San Juan la Laguna	12	San Juan la Laguna	4	Abril	2023-04-26T00:00:00	2024-11-08T07:00:00	4	Temperatura máxima	18.2
50283	7	Sololá	717	San Juan la Laguna	12	San Juan la Laguna	4	Abril	2023-04-26T00:00:00	2024-11-08T07:00:00	3	Temperatura mínima	16.7
50284	7	Sololá	717	San Juan la Laguna	12	San Juan la Laguna	4	Abril	2023-04-26T00:00:00	2024-11-08T07:00:00	5	Humedad	84
50285	7	Sololá	717	San Juan la Laguna	12	San Juan la Laguna	4	Abril	2023-04-26T00:00:00	2024-11-08T07:00:00	6	Velocidad del viento	3.2
50286	7	Sololá	717	San Juan la Laguna	12	San Juan la Laguna	4	Abril	2023-04-26T00:00:00	2024-11-08T07:00:00	7	Dirección del viento	3.22
50287	7	Sololá	717	San Juan la Laguna	12	San Juan la Laguna	4	Abril	2023-04-26T00:00:00	2024-11-08T07:00:00	1	Precipitación	0
50288	7	Sololá	717	San Juan la Laguna	12	San Juan la Laguna	4	Abril	2023-04-26T00:00:00	2024-11-08T07:00:00	8	Radiación solar	80
50289	7	Sololá	717	San Juan la Laguna	12	San Juan la Laguna	4	Abril	2023-04-26T00:00:00	2024-11-08T08:00:00	2	Temperatura media	21.1
50290	7	Sololá	717	San Juan la Laguna	12	San Juan la Laguna	4	Abril	2023-04-26T00:00:00	2024-11-08T08:00:00	4	Temperatura máxima	21.2
50291	7	Sololá	717	San Juan la Laguna	12	San Juan la Laguna	4	Abril	2023-04-26T00:00:00	2024-11-08T08:00:00	3	Temperatura mínima	18.2
50292	7	Sololá	717	San Juan la Laguna	12	San Juan la Laguna	4	Abril	2023-04-26T00:00:00	2024-11-08T08:00:00	5	Humedad	78
50293	7	Sololá	717	San Juan la Laguna	12	San Juan la Laguna	4	Abril	2023-04-26T00:00:00	2024-11-08T08:00:00	6	Velocidad del viento	1.6
50294	7	Sololá	717	San Juan la Laguna	12	San Juan la Laguna	4	Abril	2023-04-26T00:00:00	2024-11-08T08:00:00	7	Dirección del viento	1.61
50295	7	Sololá	717	San Juan la Laguna	12	San Juan la Laguna	4	Abril	2023-04-26T00:00:00	2024-11-08T08:00:00	1	Precipitación	0
50296	7	Sololá	717	San Juan la Laguna	12	San Juan la Laguna	4	Abril	2023-04-26T00:00:00	2024-11-08T08:00:00	8	Radiación solar	264
50297	7	Sololá	717	San Juan la Laguna	12	San Juan la Laguna	4	Abril	2023-04-26T00:00:00	2024-11-08T09:00:00	2	Temperatura media	22
50298	7	Sololá	717	San Juan la Laguna	12	San Juan la Laguna	4	Abril	2023-04-26T00:00:00	2024-11-08T09:00:00	4	Temperatura máxima	22
50299	7	Sololá	717	San Juan la Laguna	12	San Juan la Laguna	4	Abril	2023-04-26T00:00:00	2024-11-08T09:00:00	3	Temperatura mínima	21.1
50300	7	Sololá	717	San Juan la Laguna	12	San Juan la Laguna	4	Abril	2023-04-26T00:00:00	2024-11-08T09:00:00	5	Humedad	75
50301	7	Sololá	717	San Juan la Laguna	12	San Juan la Laguna	4	Abril	2023-04-26T00:00:00	2024-11-08T09:00:00	6	Velocidad del viento	1.6
50302	7	Sololá	717	San Juan la Laguna	12	San Juan la Laguna	4	Abril	2023-04-26T00:00:00	2024-11-08T09:00:00	7	Dirección del viento	1.61
50303	7	Sololá	717	San Juan la Laguna	12	San Juan la Laguna	4	Abril	2023-04-26T00:00:00	2024-11-08T09:00:00	1	Precipitación	0
50304	7	Sololá	717	San Juan la Laguna	12	San Juan la Laguna	4	Abril	2023-04-26T00:00:00	2024-11-08T09:00:00	8	Radiación solar	498
50305	7	Sololá	717	San Juan la Laguna	12	San Juan la Laguna	4	Abril	2023-04-26T00:00:00	2024-11-08T10:00:00	2	Temperatura media	22.4
50306	7	Sololá	717	San Juan la Laguna	12	San Juan la Laguna	4	Abril	2023-04-26T00:00:00	2024-11-08T10:00:00	4	Temperatura máxima	22.6
50307	7	Sololá	717	San Juan la Laguna	12	San Juan la Laguna	4	Abril	2023-04-26T00:00:00	2024-11-08T10:00:00	3	Temperatura mínima	21.8
50308	7	Sololá	717	San Juan la Laguna	12	San Juan la Laguna	4	Abril	2023-04-26T00:00:00	2024-11-08T10:00:00	5	Humedad	72
50309	7	Sololá	717	San Juan la Laguna	12	San Juan la Laguna	4	Abril	2023-04-26T00:00:00	2024-11-08T10:00:00	6	Velocidad del viento	1.6
50310	7	Sololá	717	San Juan la Laguna	12	San Juan la Laguna	4	Abril	2023-04-26T00:00:00	2024-11-08T10:00:00	7	Dirección del viento	1.61
50311	7	Sololá	717	San Juan la Laguna	12	San Juan la Laguna	4	Abril	2023-04-26T00:00:00	2024-11-08T10:00:00	1	Precipitación	0
50312	7	Sololá	717	San Juan la Laguna	12	San Juan la Laguna	4	Abril	2023-04-26T00:00:00	2024-11-08T10:00:00	8	Radiación solar	667
50313	7	Sololá	717	San Juan la Laguna	12	San Juan la Laguna	4	Abril	2023-04-26T00:00:00	2024-11-08T11:00:00	2	Temperatura media	23.7
50314	7	Sololá	717	San Juan la Laguna	12	San Juan la Laguna	4	Abril	2023-04-26T00:00:00	2024-11-08T11:00:00	4	Temperatura máxima	23.7
50315	7	Sololá	717	San Juan la Laguna	12	San Juan la Laguna	4	Abril	2023-04-26T00:00:00	2024-11-08T11:00:00	3	Temperatura mínima	22.3
50316	7	Sololá	717	San Juan la Laguna	12	San Juan la Laguna	4	Abril	2023-04-26T00:00:00	2024-11-08T11:00:00	5	Humedad	68
50317	7	Sololá	717	San Juan la Laguna	12	San Juan la Laguna	4	Abril	2023-04-26T00:00:00	2024-11-08T11:00:00	6	Velocidad del viento	1.6
50318	7	Sololá	717	San Juan la Laguna	12	San Juan la Laguna	4	Abril	2023-04-26T00:00:00	2024-11-08T11:00:00	7	Dirección del viento	1.61
50319	7	Sololá	717	San Juan la Laguna	12	San Juan la Laguna	4	Abril	2023-04-26T00:00:00	2024-11-08T11:00:00	1	Precipitación	0
50320	7	Sololá	717	San Juan la Laguna	12	San Juan la Laguna	4	Abril	2023-04-26T00:00:00	2024-11-08T11:00:00	8	Radiación solar	861
50321	7	Sololá	717	San Juan la Laguna	12	San Juan la Laguna	4	Abril	2023-04-26T00:00:00	2024-11-08T12:00:00	2	Temperatura media	24.1
50322	7	Sololá	717	San Juan la Laguna	12	San Juan la Laguna	4	Abril	2023-04-26T00:00:00	2024-11-08T12:00:00	4	Temperatura máxima	24.7
50323	7	Sololá	717	San Juan la Laguna	12	San Juan la Laguna	4	Abril	2023-04-26T00:00:00	2024-11-08T12:00:00	3	Temperatura mínima	23.6
50324	7	Sololá	717	San Juan la Laguna	12	San Juan la Laguna	4	Abril	2023-04-26T00:00:00	2024-11-08T12:00:00	5	Humedad	65
50325	7	Sololá	717	San Juan la Laguna	12	San Juan la Laguna	4	Abril	2023-04-26T00:00:00	2024-11-08T12:00:00	6	Velocidad del viento	1.6
50326	7	Sololá	717	San Juan la Laguna	12	San Juan la Laguna	4	Abril	2023-04-26T00:00:00	2024-11-08T12:00:00	7	Dirección del viento	1.61
50327	7	Sololá	717	San Juan la Laguna	12	San Juan la Laguna	4	Abril	2023-04-26T00:00:00	2024-11-08T12:00:00	1	Precipitación	0
50328	7	Sololá	717	San Juan la Laguna	12	San Juan la Laguna	4	Abril	2023-04-26T00:00:00	2024-11-08T12:00:00	8	Radiación solar	755
50329	7	Sololá	717	San Juan la Laguna	12	San Juan la Laguna	4	Abril	2023-04-26T00:00:00	2024-11-08T13:00:00	2	Temperatura media	22.6
50330	7	Sololá	717	San Juan la Laguna	12	San Juan la Laguna	4	Abril	2023-04-26T00:00:00	2024-11-08T13:00:00	4	Temperatura máxima	24.1
50331	7	Sololá	717	San Juan la Laguna	12	San Juan la Laguna	4	Abril	2023-04-26T00:00:00	2024-11-08T13:00:00	3	Temperatura mínima	22.2
50332	7	Sololá	717	San Juan la Laguna	12	San Juan la Laguna	4	Abril	2023-04-26T00:00:00	2024-11-08T13:00:00	5	Humedad	73
50333	7	Sololá	717	San Juan la Laguna	12	San Juan la Laguna	4	Abril	2023-04-26T00:00:00	2024-11-08T13:00:00	6	Velocidad del viento	4.8
50334	7	Sololá	717	San Juan la Laguna	12	San Juan la Laguna	4	Abril	2023-04-26T00:00:00	2024-11-08T13:00:00	7	Dirección del viento	4.83
50335	7	Sololá	717	San Juan la Laguna	12	San Juan la Laguna	4	Abril	2023-04-26T00:00:00	2024-11-08T13:00:00	1	Precipitación	0
50336	7	Sololá	717	San Juan la Laguna	12	San Juan la Laguna	4	Abril	2023-04-26T00:00:00	2024-11-08T13:00:00	8	Radiación solar	333
50337	7	Sololá	717	San Juan la Laguna	12	San Juan la Laguna	4	Abril	2023-04-26T00:00:00	2024-11-08T14:00:00	2	Temperatura media	21.1
50338	7	Sololá	717	San Juan la Laguna	12	San Juan la Laguna	4	Abril	2023-04-26T00:00:00	2024-11-08T14:00:00	4	Temperatura máxima	22.6
50339	7	Sololá	717	San Juan la Laguna	12	San Juan la Laguna	4	Abril	2023-04-26T00:00:00	2024-11-08T14:00:00	3	Temperatura mínima	21.1
50340	7	Sololá	717	San Juan la Laguna	12	San Juan la Laguna	4	Abril	2023-04-26T00:00:00	2024-11-08T14:00:00	5	Humedad	75
50341	7	Sololá	717	San Juan la Laguna	12	San Juan la Laguna	4	Abril	2023-04-26T00:00:00	2024-11-08T14:00:00	6	Velocidad del viento	6.4
50342	7	Sololá	717	San Juan la Laguna	12	San Juan la Laguna	4	Abril	2023-04-26T00:00:00	2024-11-08T14:00:00	7	Dirección del viento	6.44
50343	7	Sololá	717	San Juan la Laguna	12	San Juan la Laguna	4	Abril	2023-04-26T00:00:00	2024-11-08T14:00:00	1	Precipitación	0
50344	7	Sololá	717	San Juan la Laguna	12	San Juan la Laguna	4	Abril	2023-04-26T00:00:00	2024-11-08T14:00:00	8	Radiación solar	290
50345	7	Sololá	717	San Juan la Laguna	12	San Juan la Laguna	4	Abril	2023-04-26T00:00:00	2024-11-08T15:00:00	2	Temperatura media	22.1
50346	7	Sololá	717	San Juan la Laguna	12	San Juan la Laguna	4	Abril	2023-04-26T00:00:00	2024-11-08T15:00:00	4	Temperatura máxima	22.2
50347	7	Sololá	717	San Juan la Laguna	12	San Juan la Laguna	4	Abril	2023-04-26T00:00:00	2024-11-08T15:00:00	3	Temperatura mínima	21
50348	7	Sololá	717	San Juan la Laguna	12	San Juan la Laguna	4	Abril	2023-04-26T00:00:00	2024-11-08T15:00:00	5	Humedad	73
50349	7	Sololá	717	San Juan la Laguna	12	San Juan la Laguna	4	Abril	2023-04-26T00:00:00	2024-11-08T15:00:00	6	Velocidad del viento	4.8
50350	7	Sololá	717	San Juan la Laguna	12	San Juan la Laguna	4	Abril	2023-04-26T00:00:00	2024-11-08T15:00:00	7	Dirección del viento	4.83
50351	7	Sololá	717	San Juan la Laguna	12	San Juan la Laguna	4	Abril	2023-04-26T00:00:00	2024-11-08T15:00:00	1	Precipitación	0
50352	7	Sololá	717	San Juan la Laguna	12	San Juan la Laguna	4	Abril	2023-04-26T00:00:00	2024-11-08T15:00:00	8	Radiación solar	257
50353	7	Sololá	717	San Juan la Laguna	12	San Juan la Laguna	4	Abril	2023-04-26T00:00:00	2024-11-08T16:00:00	2	Temperatura media	22.4
50354	7	Sololá	717	San Juan la Laguna	12	San Juan la Laguna	4	Abril	2023-04-26T00:00:00	2024-11-08T16:00:00	4	Temperatura máxima	23.3
50355	7	Sololá	717	San Juan la Laguna	12	San Juan la Laguna	4	Abril	2023-04-26T00:00:00	2024-11-08T16:00:00	3	Temperatura mínima	21.8
50356	7	Sololá	717	San Juan la Laguna	12	San Juan la Laguna	4	Abril	2023-04-26T00:00:00	2024-11-08T16:00:00	5	Humedad	76
50357	7	Sololá	717	San Juan la Laguna	12	San Juan la Laguna	4	Abril	2023-04-26T00:00:00	2024-11-08T16:00:00	6	Velocidad del viento	3.2
50358	7	Sololá	717	San Juan la Laguna	12	San Juan la Laguna	4	Abril	2023-04-26T00:00:00	2024-11-08T16:00:00	7	Dirección del viento	3.22
50359	7	Sololá	717	San Juan la Laguna	12	San Juan la Laguna	4	Abril	2023-04-26T00:00:00	2024-11-08T16:00:00	1	Precipitación	0
50360	7	Sololá	717	San Juan la Laguna	12	San Juan la Laguna	4	Abril	2023-04-26T00:00:00	2024-11-08T16:00:00	8	Radiación solar	371
50361	7	Sololá	717	San Juan la Laguna	12	San Juan la Laguna	4	Abril	2023-04-26T00:00:00	2024-11-08T17:00:00	2	Temperatura media	21.1
50362	7	Sololá	717	San Juan la Laguna	12	San Juan la Laguna	4	Abril	2023-04-26T00:00:00	2024-11-08T17:00:00	4	Temperatura máxima	22.4
50363	7	Sololá	717	San Juan la Laguna	12	San Juan la Laguna	4	Abril	2023-04-26T00:00:00	2024-11-08T17:00:00	3	Temperatura mínima	21.1
50364	7	Sololá	717	San Juan la Laguna	12	San Juan la Laguna	4	Abril	2023-04-26T00:00:00	2024-11-08T17:00:00	5	Humedad	78
50365	7	Sololá	717	San Juan la Laguna	12	San Juan la Laguna	4	Abril	2023-04-26T00:00:00	2024-11-08T17:00:00	6	Velocidad del viento	1.6
50366	7	Sololá	717	San Juan la Laguna	12	San Juan la Laguna	4	Abril	2023-04-26T00:00:00	2024-11-08T17:00:00	7	Dirección del viento	1.61
50367	7	Sololá	717	San Juan la Laguna	12	San Juan la Laguna	4	Abril	2023-04-26T00:00:00	2024-11-08T17:00:00	1	Precipitación	0
50368	7	Sololá	717	San Juan la Laguna	12	San Juan la Laguna	4	Abril	2023-04-26T00:00:00	2024-11-08T17:00:00	8	Radiación solar	78
50369	7	Sololá	717	San Juan la Laguna	12	San Juan la Laguna	4	Abril	2023-04-26T00:00:00	2024-11-08T18:00:00	2	Temperatura media	20.3
50370	7	Sololá	717	San Juan la Laguna	12	San Juan la Laguna	4	Abril	2023-04-26T00:00:00	2024-11-08T18:00:00	4	Temperatura máxima	21.1
50371	7	Sololá	717	San Juan la Laguna	12	San Juan la Laguna	4	Abril	2023-04-26T00:00:00	2024-11-08T18:00:00	3	Temperatura mínima	20.3
50372	7	Sololá	717	San Juan la Laguna	12	San Juan la Laguna	4	Abril	2023-04-26T00:00:00	2024-11-08T18:00:00	5	Humedad	81
50373	7	Sololá	717	San Juan la Laguna	12	San Juan la Laguna	4	Abril	2023-04-26T00:00:00	2024-11-08T18:00:00	6	Velocidad del viento	3.2
50374	7	Sololá	717	San Juan la Laguna	12	San Juan la Laguna	4	Abril	2023-04-26T00:00:00	2024-11-08T18:00:00	7	Dirección del viento	3.22
50375	7	Sololá	717	San Juan la Laguna	12	San Juan la Laguna	4	Abril	2023-04-26T00:00:00	2024-11-08T18:00:00	1	Precipitación	0
50376	7	Sololá	717	San Juan la Laguna	12	San Juan la Laguna	4	Abril	2023-04-26T00:00:00	2024-11-08T18:00:00	8	Radiación solar	29
50377	7	Sololá	717	San Juan la Laguna	12	San Juan la Laguna	4	Abril	2023-04-26T00:00:00	2024-11-08T19:00:00	2	Temperatura media	18.8
50378	7	Sololá	717	San Juan la Laguna	12	San Juan la Laguna	4	Abril	2023-04-26T00:00:00	2024-11-08T19:00:00	4	Temperatura máxima	20.3
50379	7	Sololá	717	San Juan la Laguna	12	San Juan la Laguna	4	Abril	2023-04-26T00:00:00	2024-11-08T19:00:00	3	Temperatura mínima	18.8
50380	7	Sololá	717	San Juan la Laguna	12	San Juan la Laguna	4	Abril	2023-04-26T00:00:00	2024-11-08T19:00:00	5	Humedad	85
50381	7	Sololá	717	San Juan la Laguna	12	San Juan la Laguna	4	Abril	2023-04-26T00:00:00	2024-11-08T19:00:00	6	Velocidad del viento	1.6
50382	7	Sololá	717	San Juan la Laguna	12	San Juan la Laguna	4	Abril	2023-04-26T00:00:00	2024-11-08T19:00:00	7	Dirección del viento	1.61
50383	7	Sololá	717	San Juan la Laguna	12	San Juan la Laguna	4	Abril	2023-04-26T00:00:00	2024-11-08T19:00:00	1	Precipitación	0
50384	7	Sololá	717	San Juan la Laguna	12	San Juan la Laguna	4	Abril	2023-04-26T00:00:00	2024-11-08T19:00:00	8	Radiación solar	0
50385	7	Sololá	717	San Juan la Laguna	12	San Juan la Laguna	4	Abril	2023-04-26T00:00:00	2024-11-08T20:00:00	2	Temperatura media	18.3
50386	7	Sololá	717	San Juan la Laguna	12	San Juan la Laguna	4	Abril	2023-04-26T00:00:00	2024-11-08T20:00:00	4	Temperatura máxima	18.8
50387	7	Sololá	717	San Juan la Laguna	12	San Juan la Laguna	4	Abril	2023-04-26T00:00:00	2024-11-08T20:00:00	3	Temperatura mínima	18.3
50388	7	Sololá	717	San Juan la Laguna	12	San Juan la Laguna	4	Abril	2023-04-26T00:00:00	2024-11-08T20:00:00	5	Humedad	86
50389	7	Sololá	717	San Juan la Laguna	12	San Juan la Laguna	4	Abril	2023-04-26T00:00:00	2024-11-08T20:00:00	6	Velocidad del viento	3.2
50390	7	Sololá	717	San Juan la Laguna	12	San Juan la Laguna	4	Abril	2023-04-26T00:00:00	2024-11-08T20:00:00	7	Dirección del viento	3.22
50391	7	Sololá	717	San Juan la Laguna	12	San Juan la Laguna	4	Abril	2023-04-26T00:00:00	2024-11-08T20:00:00	1	Precipitación	0
50392	7	Sololá	717	San Juan la Laguna	12	San Juan la Laguna	4	Abril	2023-04-26T00:00:00	2024-11-08T20:00:00	8	Radiación solar	0
50393	7	Sololá	717	San Juan la Laguna	12	San Juan la Laguna	4	Abril	2023-04-26T00:00:00	2024-11-08T21:00:00	2	Temperatura media	17.8
50394	7	Sololá	717	San Juan la Laguna	12	San Juan la Laguna	4	Abril	2023-04-26T00:00:00	2024-11-08T21:00:00	4	Temperatura máxima	18.3
50395	7	Sololá	717	San Juan la Laguna	12	San Juan la Laguna	4	Abril	2023-04-26T00:00:00	2024-11-08T21:00:00	3	Temperatura mínima	17.8
50396	7	Sololá	717	San Juan la Laguna	12	San Juan la Laguna	4	Abril	2023-04-26T00:00:00	2024-11-08T21:00:00	5	Humedad	85
50397	7	Sololá	717	San Juan la Laguna	12	San Juan la Laguna	4	Abril	2023-04-26T00:00:00	2024-11-08T21:00:00	6	Velocidad del viento	3.2
50398	7	Sololá	717	San Juan la Laguna	12	San Juan la Laguna	4	Abril	2023-04-26T00:00:00	2024-11-08T21:00:00	7	Dirección del viento	3.22
50399	7	Sololá	717	San Juan la Laguna	12	San Juan la Laguna	4	Abril	2023-04-26T00:00:00	2024-11-08T21:00:00	1	Precipitación	0
50400	7	Sololá	717	San Juan la Laguna	12	San Juan la Laguna	4	Abril	2023-04-26T00:00:00	2024-11-08T21:00:00	8	Radiación solar	0
50401	7	Sololá	717	San Juan la Laguna	12	San Juan la Laguna	4	Abril	2023-04-26T00:00:00	2024-11-08T22:00:00	2	Temperatura media	17.3
50402	7	Sololá	717	San Juan la Laguna	12	San Juan la Laguna	4	Abril	2023-04-26T00:00:00	2024-11-08T22:00:00	4	Temperatura máxima	17.8
50403	7	Sololá	717	San Juan la Laguna	12	San Juan la Laguna	4	Abril	2023-04-26T00:00:00	2024-11-08T22:00:00	3	Temperatura mínima	17.3
50404	7	Sololá	717	San Juan la Laguna	12	San Juan la Laguna	4	Abril	2023-04-26T00:00:00	2024-11-08T22:00:00	5	Humedad	85
50405	7	Sololá	717	San Juan la Laguna	12	San Juan la Laguna	4	Abril	2023-04-26T00:00:00	2024-11-08T22:00:00	6	Velocidad del viento	3.2
50406	7	Sololá	717	San Juan la Laguna	12	San Juan la Laguna	4	Abril	2023-04-26T00:00:00	2024-11-08T22:00:00	7	Dirección del viento	3.22
50407	7	Sololá	717	San Juan la Laguna	12	San Juan la Laguna	4	Abril	2023-04-26T00:00:00	2024-11-08T22:00:00	1	Precipitación	0
50408	7	Sololá	717	San Juan la Laguna	12	San Juan la Laguna	4	Abril	2023-04-26T00:00:00	2024-11-08T22:00:00	8	Radiación solar	0
50409	7	Sololá	717	San Juan la Laguna	12	San Juan la Laguna	4	Abril	2023-04-26T00:00:00	2024-11-08T23:00:00	2	Temperatura media	16.9
50410	7	Sololá	717	San Juan la Laguna	12	San Juan la Laguna	4	Abril	2023-04-26T00:00:00	2024-11-08T23:00:00	4	Temperatura máxima	17.3
50411	7	Sololá	717	San Juan la Laguna	12	San Juan la Laguna	4	Abril	2023-04-26T00:00:00	2024-11-08T23:00:00	3	Temperatura mínima	16.8
50412	7	Sololá	717	San Juan la Laguna	12	San Juan la Laguna	4	Abril	2023-04-26T00:00:00	2024-11-08T23:00:00	5	Humedad	86
50413	7	Sololá	717	San Juan la Laguna	12	San Juan la Laguna	4	Abril	2023-04-26T00:00:00	2024-11-08T23:00:00	6	Velocidad del viento	3.2
50414	7	Sololá	717	San Juan la Laguna	12	San Juan la Laguna	4	Abril	2023-04-26T00:00:00	2024-11-08T23:00:00	7	Dirección del viento	3.22
50415	7	Sololá	717	San Juan la Laguna	12	San Juan la Laguna	4	Abril	2023-04-26T00:00:00	2024-11-08T23:00:00	1	Precipitación	0
50416	7	Sololá	717	San Juan la Laguna	12	San Juan la Laguna	4	Abril	2023-04-26T00:00:00	2024-11-08T23:00:00	8	Radiación solar	0
50417	7	Sololá	717	San Juan la Laguna	12	San Juan la Laguna	4	Abril	2023-04-27T00:00:00	2024-11-08T00:00:00	2	Temperatura media	16.5
50418	7	Sololá	717	San Juan la Laguna	12	San Juan la Laguna	4	Abril	2023-04-27T00:00:00	2024-11-08T00:00:00	4	Temperatura máxima	16.9
50419	7	Sololá	717	San Juan la Laguna	12	San Juan la Laguna	4	Abril	2023-04-27T00:00:00	2024-11-08T00:00:00	3	Temperatura mínima	16.4
50420	7	Sololá	717	San Juan la Laguna	12	San Juan la Laguna	4	Abril	2023-04-27T00:00:00	2024-11-08T00:00:00	5	Humedad	86
50421	7	Sololá	717	San Juan la Laguna	12	San Juan la Laguna	4	Abril	2023-04-27T00:00:00	2024-11-08T00:00:00	6	Velocidad del viento	3.2
50422	7	Sololá	717	San Juan la Laguna	12	San Juan la Laguna	4	Abril	2023-04-27T00:00:00	2024-11-08T00:00:00	7	Dirección del viento	3.22
50423	7	Sololá	717	San Juan la Laguna	12	San Juan la Laguna	4	Abril	2023-04-27T00:00:00	2024-11-08T00:00:00	1	Precipitación	0
50424	7	Sololá	717	San Juan la Laguna	12	San Juan la Laguna	4	Abril	2023-04-27T00:00:00	2024-11-08T00:00:00	8	Radiación solar	0
50425	7	Sololá	717	San Juan la Laguna	12	San Juan la Laguna	4	Abril	2023-04-27T00:00:00	2024-11-08T01:00:00	2	Temperatura media	16
50426	7	Sololá	717	San Juan la Laguna	12	San Juan la Laguna	4	Abril	2023-04-27T00:00:00	2024-11-08T01:00:00	4	Temperatura máxima	16.5
50427	7	Sololá	717	San Juan la Laguna	12	San Juan la Laguna	4	Abril	2023-04-27T00:00:00	2024-11-08T01:00:00	3	Temperatura mínima	15.9
50428	7	Sololá	717	San Juan la Laguna	12	San Juan la Laguna	4	Abril	2023-04-27T00:00:00	2024-11-08T01:00:00	5	Humedad	88
50429	7	Sololá	717	San Juan la Laguna	12	San Juan la Laguna	4	Abril	2023-04-27T00:00:00	2024-11-08T01:00:00	6	Velocidad del viento	3.2
50430	7	Sololá	717	San Juan la Laguna	12	San Juan la Laguna	4	Abril	2023-04-27T00:00:00	2024-11-08T01:00:00	7	Dirección del viento	3.22
50431	7	Sololá	717	San Juan la Laguna	12	San Juan la Laguna	4	Abril	2023-04-27T00:00:00	2024-11-08T01:00:00	1	Precipitación	0
50432	7	Sololá	717	San Juan la Laguna	12	San Juan la Laguna	4	Abril	2023-04-27T00:00:00	2024-11-08T01:00:00	8	Radiación solar	0
50433	7	Sololá	717	San Juan la Laguna	12	San Juan la Laguna	4	Abril	2023-04-27T00:00:00	2024-11-08T02:00:00	2	Temperatura media	16.1
50434	7	Sololá	717	San Juan la Laguna	12	San Juan la Laguna	4	Abril	2023-04-27T00:00:00	2024-11-08T02:00:00	4	Temperatura máxima	16.1
50435	7	Sololá	717	San Juan la Laguna	12	San Juan la Laguna	4	Abril	2023-04-27T00:00:00	2024-11-08T02:00:00	3	Temperatura mínima	15.9
50436	7	Sololá	717	San Juan la Laguna	12	San Juan la Laguna	4	Abril	2023-04-27T00:00:00	2024-11-08T02:00:00	5	Humedad	88
50437	7	Sololá	717	San Juan la Laguna	12	San Juan la Laguna	4	Abril	2023-04-27T00:00:00	2024-11-08T02:00:00	6	Velocidad del viento	4.8
50438	7	Sololá	717	San Juan la Laguna	12	San Juan la Laguna	4	Abril	2023-04-27T00:00:00	2024-11-08T02:00:00	7	Dirección del viento	4.83
50439	7	Sololá	717	San Juan la Laguna	12	San Juan la Laguna	4	Abril	2023-04-27T00:00:00	2024-11-08T02:00:00	1	Precipitación	0
50440	7	Sololá	717	San Juan la Laguna	12	San Juan la Laguna	4	Abril	2023-04-27T00:00:00	2024-11-08T02:00:00	8	Radiación solar	0
50441	7	Sololá	717	San Juan la Laguna	12	San Juan la Laguna	4	Abril	2023-04-27T00:00:00	2024-11-08T03:00:00	2	Temperatura media	15.8
50442	7	Sololá	717	San Juan la Laguna	12	San Juan la Laguna	4	Abril	2023-04-27T00:00:00	2024-11-08T03:00:00	4	Temperatura máxima	16.2
50443	7	Sololá	717	San Juan la Laguna	12	San Juan la Laguna	4	Abril	2023-04-27T00:00:00	2024-11-08T03:00:00	3	Temperatura mínima	15.8
50444	7	Sololá	717	San Juan la Laguna	12	San Juan la Laguna	4	Abril	2023-04-27T00:00:00	2024-11-08T03:00:00	5	Humedad	87
50445	7	Sololá	717	San Juan la Laguna	12	San Juan la Laguna	4	Abril	2023-04-27T00:00:00	2024-11-08T03:00:00	6	Velocidad del viento	4.8
50446	7	Sololá	717	San Juan la Laguna	12	San Juan la Laguna	4	Abril	2023-04-27T00:00:00	2024-11-08T03:00:00	7	Dirección del viento	4.83
50447	7	Sololá	717	San Juan la Laguna	12	San Juan la Laguna	4	Abril	2023-04-27T00:00:00	2024-11-08T03:00:00	1	Precipitación	0
50448	7	Sololá	717	San Juan la Laguna	12	San Juan la Laguna	4	Abril	2023-04-27T00:00:00	2024-11-08T03:00:00	8	Radiación solar	0
50449	7	Sololá	717	San Juan la Laguna	12	San Juan la Laguna	4	Abril	2023-04-27T00:00:00	2024-11-08T04:00:00	2	Temperatura media	15.3
50450	7	Sololá	717	San Juan la Laguna	12	San Juan la Laguna	4	Abril	2023-04-27T00:00:00	2024-11-08T04:00:00	4	Temperatura máxima	15.8
50451	7	Sololá	717	San Juan la Laguna	12	San Juan la Laguna	4	Abril	2023-04-27T00:00:00	2024-11-08T04:00:00	3	Temperatura mínima	15.3
50452	7	Sololá	717	San Juan la Laguna	12	San Juan la Laguna	4	Abril	2023-04-27T00:00:00	2024-11-08T04:00:00	5	Humedad	88
50453	7	Sololá	717	San Juan la Laguna	12	San Juan la Laguna	4	Abril	2023-04-27T00:00:00	2024-11-08T04:00:00	6	Velocidad del viento	3.2
50454	7	Sololá	717	San Juan la Laguna	12	San Juan la Laguna	4	Abril	2023-04-27T00:00:00	2024-11-08T04:00:00	7	Dirección del viento	3.22
50455	7	Sololá	717	San Juan la Laguna	12	San Juan la Laguna	4	Abril	2023-04-27T00:00:00	2024-11-08T04:00:00	1	Precipitación	0
50456	7	Sololá	717	San Juan la Laguna	12	San Juan la Laguna	4	Abril	2023-04-27T00:00:00	2024-11-08T04:00:00	8	Radiación solar	0
50457	7	Sololá	717	San Juan la Laguna	12	San Juan la Laguna	4	Abril	2023-04-27T00:00:00	2024-11-08T05:00:00	2	Temperatura media	15.3
50458	7	Sololá	717	San Juan la Laguna	12	San Juan la Laguna	4	Abril	2023-04-27T00:00:00	2024-11-08T05:00:00	4	Temperatura máxima	15.3
50459	7	Sololá	717	San Juan la Laguna	12	San Juan la Laguna	4	Abril	2023-04-27T00:00:00	2024-11-08T05:00:00	3	Temperatura mínima	15.1
50460	7	Sololá	717	San Juan la Laguna	12	San Juan la Laguna	4	Abril	2023-04-27T00:00:00	2024-11-08T05:00:00	5	Humedad	89
50461	7	Sololá	717	San Juan la Laguna	12	San Juan la Laguna	4	Abril	2023-04-27T00:00:00	2024-11-08T05:00:00	6	Velocidad del viento	4.8
50462	7	Sololá	717	San Juan la Laguna	12	San Juan la Laguna	4	Abril	2023-04-27T00:00:00	2024-11-08T05:00:00	7	Dirección del viento	4.83
50463	7	Sololá	717	San Juan la Laguna	12	San Juan la Laguna	4	Abril	2023-04-27T00:00:00	2024-11-08T05:00:00	1	Precipitación	0
50464	7	Sololá	717	San Juan la Laguna	12	San Juan la Laguna	4	Abril	2023-04-27T00:00:00	2024-11-08T05:00:00	8	Radiación solar	0
50465	7	Sololá	717	San Juan la Laguna	12	San Juan la Laguna	4	Abril	2023-04-27T00:00:00	2024-11-08T06:00:00	2	Temperatura media	14.8
50466	7	Sololá	717	San Juan la Laguna	12	San Juan la Laguna	4	Abril	2023-04-27T00:00:00	2024-11-08T06:00:00	4	Temperatura máxima	15.6
50467	7	Sololá	717	San Juan la Laguna	12	San Juan la Laguna	4	Abril	2023-04-27T00:00:00	2024-11-08T06:00:00	3	Temperatura mínima	14.8
50468	7	Sololá	717	San Juan la Laguna	12	San Juan la Laguna	4	Abril	2023-04-27T00:00:00	2024-11-08T06:00:00	5	Humedad	89
50469	7	Sololá	717	San Juan la Laguna	12	San Juan la Laguna	4	Abril	2023-04-27T00:00:00	2024-11-08T06:00:00	6	Velocidad del viento	3.2
50470	7	Sololá	717	San Juan la Laguna	12	San Juan la Laguna	4	Abril	2023-04-27T00:00:00	2024-11-08T06:00:00	7	Dirección del viento	3.22
50471	7	Sololá	717	San Juan la Laguna	12	San Juan la Laguna	4	Abril	2023-04-27T00:00:00	2024-11-08T06:00:00	1	Precipitación	0
50472	7	Sololá	717	San Juan la Laguna	12	San Juan la Laguna	4	Abril	2023-04-27T00:00:00	2024-11-08T06:00:00	8	Radiación solar	1
50473	7	Sololá	717	San Juan la Laguna	12	San Juan la Laguna	4	Abril	2023-04-27T00:00:00	2024-11-08T07:00:00	2	Temperatura media	16.6
50474	7	Sololá	717	San Juan la Laguna	12	San Juan la Laguna	4	Abril	2023-04-27T00:00:00	2024-11-08T07:00:00	4	Temperatura máxima	16.6
50475	7	Sololá	717	San Juan la Laguna	12	San Juan la Laguna	4	Abril	2023-04-27T00:00:00	2024-11-08T07:00:00	3	Temperatura mínima	14.4
50476	7	Sololá	717	San Juan la Laguna	12	San Juan la Laguna	4	Abril	2023-04-27T00:00:00	2024-11-08T07:00:00	5	Humedad	86
50477	7	Sololá	717	San Juan la Laguna	12	San Juan la Laguna	4	Abril	2023-04-27T00:00:00	2024-11-08T07:00:00	6	Velocidad del viento	1.6
50478	7	Sololá	717	San Juan la Laguna	12	San Juan la Laguna	4	Abril	2023-04-27T00:00:00	2024-11-08T07:00:00	7	Dirección del viento	1.61
50479	7	Sololá	717	San Juan la Laguna	12	San Juan la Laguna	4	Abril	2023-04-27T00:00:00	2024-11-08T07:00:00	1	Precipitación	0
50480	7	Sololá	717	San Juan la Laguna	12	San Juan la Laguna	4	Abril	2023-04-27T00:00:00	2024-11-08T07:00:00	8	Radiación solar	71
50481	7	Sololá	717	San Juan la Laguna	12	San Juan la Laguna	4	Abril	2023-04-27T00:00:00	2024-11-08T08:00:00	2	Temperatura media	19.6
50482	7	Sololá	717	San Juan la Laguna	12	San Juan la Laguna	4	Abril	2023-04-27T00:00:00	2024-11-08T08:00:00	4	Temperatura máxima	19.6
50483	7	Sololá	717	San Juan la Laguna	12	San Juan la Laguna	4	Abril	2023-04-27T00:00:00	2024-11-08T08:00:00	3	Temperatura mínima	16.6
50484	7	Sololá	717	San Juan la Laguna	12	San Juan la Laguna	4	Abril	2023-04-27T00:00:00	2024-11-08T08:00:00	5	Humedad	79
50485	7	Sololá	717	San Juan la Laguna	12	San Juan la Laguna	4	Abril	2023-04-27T00:00:00	2024-11-08T08:00:00	6	Velocidad del viento	0
50486	7	Sololá	717	San Juan la Laguna	12	San Juan la Laguna	4	Abril	2023-04-27T00:00:00	2024-11-08T08:00:00	7	Dirección del viento	0
50487	7	Sololá	717	San Juan la Laguna	12	San Juan la Laguna	4	Abril	2023-04-27T00:00:00	2024-11-08T08:00:00	1	Precipitación	0
50488	7	Sololá	717	San Juan la Laguna	12	San Juan la Laguna	4	Abril	2023-04-27T00:00:00	2024-11-08T08:00:00	8	Radiación solar	260
50489	7	Sololá	717	San Juan la Laguna	12	San Juan la Laguna	4	Abril	2023-04-27T00:00:00	2024-11-08T09:00:00	2	Temperatura media	21.4
50490	7	Sololá	717	San Juan la Laguna	12	San Juan la Laguna	4	Abril	2023-04-27T00:00:00	2024-11-08T09:00:00	4	Temperatura máxima	21.4
50491	7	Sololá	717	San Juan la Laguna	12	San Juan la Laguna	4	Abril	2023-04-27T00:00:00	2024-11-08T09:00:00	3	Temperatura mínima	19.7
50492	7	Sololá	717	San Juan la Laguna	12	San Juan la Laguna	4	Abril	2023-04-27T00:00:00	2024-11-08T09:00:00	5	Humedad	74
50493	7	Sololá	717	San Juan la Laguna	12	San Juan la Laguna	4	Abril	2023-04-27T00:00:00	2024-11-08T09:00:00	6	Velocidad del viento	1.6
50494	7	Sololá	717	San Juan la Laguna	12	San Juan la Laguna	4	Abril	2023-04-27T00:00:00	2024-11-08T09:00:00	7	Dirección del viento	1.61
50495	7	Sololá	717	San Juan la Laguna	12	San Juan la Laguna	4	Abril	2023-04-27T00:00:00	2024-11-08T09:00:00	1	Precipitación	0
50496	7	Sololá	717	San Juan la Laguna	12	San Juan la Laguna	4	Abril	2023-04-27T00:00:00	2024-11-08T09:00:00	8	Radiación solar	484
50497	7	Sololá	717	San Juan la Laguna	12	San Juan la Laguna	4	Abril	2023-04-27T00:00:00	2024-11-08T10:00:00	2	Temperatura media	21.9
50498	7	Sololá	717	San Juan la Laguna	12	San Juan la Laguna	4	Abril	2023-04-27T00:00:00	2024-11-08T10:00:00	4	Temperatura máxima	21.9
50499	7	Sololá	717	San Juan la Laguna	12	San Juan la Laguna	4	Abril	2023-04-27T00:00:00	2024-11-08T10:00:00	3	Temperatura mínima	21
50500	7	Sololá	717	San Juan la Laguna	12	San Juan la Laguna	4	Abril	2023-04-27T00:00:00	2024-11-08T10:00:00	5	Humedad	74
50501	7	Sololá	717	San Juan la Laguna	12	San Juan la Laguna	4	Abril	2023-04-27T00:00:00	2024-11-08T10:00:00	6	Velocidad del viento	1.6
50502	7	Sololá	717	San Juan la Laguna	12	San Juan la Laguna	4	Abril	2023-04-27T00:00:00	2024-11-08T10:00:00	7	Dirección del viento	1.61
50503	7	Sololá	717	San Juan la Laguna	12	San Juan la Laguna	4	Abril	2023-04-27T00:00:00	2024-11-08T10:00:00	1	Precipitación	0
50504	7	Sololá	717	San Juan la Laguna	12	San Juan la Laguna	4	Abril	2023-04-27T00:00:00	2024-11-08T10:00:00	8	Radiación solar	659
50505	7	Sololá	717	San Juan la Laguna	12	San Juan la Laguna	4	Abril	2023-04-27T00:00:00	2024-11-08T11:00:00	2	Temperatura media	22.9
50506	7	Sololá	717	San Juan la Laguna	12	San Juan la Laguna	4	Abril	2023-04-27T00:00:00	2024-11-08T11:00:00	4	Temperatura máxima	23
50507	7	Sololá	717	San Juan la Laguna	12	San Juan la Laguna	4	Abril	2023-04-27T00:00:00	2024-11-08T11:00:00	3	Temperatura mínima	21.3
50508	7	Sololá	717	San Juan la Laguna	12	San Juan la Laguna	4	Abril	2023-04-27T00:00:00	2024-11-08T11:00:00	5	Humedad	69
50509	7	Sololá	717	San Juan la Laguna	12	San Juan la Laguna	4	Abril	2023-04-27T00:00:00	2024-11-08T11:00:00	6	Velocidad del viento	1.6
50510	7	Sololá	717	San Juan la Laguna	12	San Juan la Laguna	4	Abril	2023-04-27T00:00:00	2024-11-08T11:00:00	7	Dirección del viento	1.61
50511	7	Sololá	717	San Juan la Laguna	12	San Juan la Laguna	4	Abril	2023-04-27T00:00:00	2024-11-08T11:00:00	1	Precipitación	0
50512	7	Sololá	717	San Juan la Laguna	12	San Juan la Laguna	4	Abril	2023-04-27T00:00:00	2024-11-08T11:00:00	8	Radiación solar	838
50513	7	Sololá	717	San Juan la Laguna	12	San Juan la Laguna	4	Abril	2023-04-27T00:00:00	2024-11-08T12:00:00	2	Temperatura media	24.8
50514	7	Sololá	717	San Juan la Laguna	12	San Juan la Laguna	4	Abril	2023-04-27T00:00:00	2024-11-08T12:00:00	4	Temperatura máxima	25
50515	7	Sololá	717	San Juan la Laguna	12	San Juan la Laguna	4	Abril	2023-04-27T00:00:00	2024-11-08T12:00:00	3	Temperatura mínima	22.7
50516	7	Sololá	717	San Juan la Laguna	12	San Juan la Laguna	4	Abril	2023-04-27T00:00:00	2024-11-08T12:00:00	5	Humedad	62
50517	7	Sololá	717	San Juan la Laguna	12	San Juan la Laguna	4	Abril	2023-04-27T00:00:00	2024-11-08T12:00:00	6	Velocidad del viento	3.2
50518	7	Sololá	717	San Juan la Laguna	12	San Juan la Laguna	4	Abril	2023-04-27T00:00:00	2024-11-08T12:00:00	7	Dirección del viento	3.22
50519	7	Sololá	717	San Juan la Laguna	12	San Juan la Laguna	4	Abril	2023-04-27T00:00:00	2024-11-08T12:00:00	1	Precipitación	0
50520	7	Sololá	717	San Juan la Laguna	12	San Juan la Laguna	4	Abril	2023-04-27T00:00:00	2024-11-08T12:00:00	8	Radiación solar	941
50521	7	Sololá	717	San Juan la Laguna	12	San Juan la Laguna	4	Abril	2023-04-27T00:00:00	2024-11-08T13:00:00	2	Temperatura media	24.9
50522	7	Sololá	717	San Juan la Laguna	12	San Juan la Laguna	4	Abril	2023-04-27T00:00:00	2024-11-08T13:00:00	4	Temperatura máxima	24.9
50523	7	Sololá	717	San Juan la Laguna	12	San Juan la Laguna	4	Abril	2023-04-27T00:00:00	2024-11-08T13:00:00	3	Temperatura mínima	24.1
50524	7	Sololá	717	San Juan la Laguna	12	San Juan la Laguna	4	Abril	2023-04-27T00:00:00	2024-11-08T13:00:00	5	Humedad	64
50525	7	Sololá	717	San Juan la Laguna	12	San Juan la Laguna	4	Abril	2023-04-27T00:00:00	2024-11-08T13:00:00	6	Velocidad del viento	6.4
50526	7	Sololá	717	San Juan la Laguna	12	San Juan la Laguna	4	Abril	2023-04-27T00:00:00	2024-11-08T13:00:00	7	Dirección del viento	6.44
50527	7	Sololá	717	San Juan la Laguna	12	San Juan la Laguna	4	Abril	2023-04-27T00:00:00	2024-11-08T13:00:00	1	Precipitación	0
50528	7	Sololá	717	San Juan la Laguna	12	San Juan la Laguna	4	Abril	2023-04-27T00:00:00	2024-11-08T13:00:00	8	Radiación solar	968
50529	7	Sololá	717	San Juan la Laguna	12	San Juan la Laguna	4	Abril	2023-04-27T00:00:00	2024-11-08T14:00:00	2	Temperatura media	24.1
50530	7	Sololá	717	San Juan la Laguna	12	San Juan la Laguna	4	Abril	2023-04-27T00:00:00	2024-11-08T14:00:00	4	Temperatura máxima	25.2
50531	7	Sololá	717	San Juan la Laguna	12	San Juan la Laguna	4	Abril	2023-04-27T00:00:00	2024-11-08T14:00:00	3	Temperatura mínima	23.8
50532	7	Sololá	717	San Juan la Laguna	12	San Juan la Laguna	4	Abril	2023-04-27T00:00:00	2024-11-08T14:00:00	5	Humedad	68
50533	7	Sololá	717	San Juan la Laguna	12	San Juan la Laguna	4	Abril	2023-04-27T00:00:00	2024-11-08T14:00:00	6	Velocidad del viento	6.4
50534	7	Sololá	717	San Juan la Laguna	12	San Juan la Laguna	4	Abril	2023-04-27T00:00:00	2024-11-08T14:00:00	7	Dirección del viento	6.44
50535	7	Sololá	717	San Juan la Laguna	12	San Juan la Laguna	4	Abril	2023-04-27T00:00:00	2024-11-08T14:00:00	1	Precipitación	0
50536	7	Sololá	717	San Juan la Laguna	12	San Juan la Laguna	4	Abril	2023-04-27T00:00:00	2024-11-08T14:00:00	8	Radiación solar	919
50537	7	Sololá	717	San Juan la Laguna	12	San Juan la Laguna	4	Abril	2023-04-27T00:00:00	2024-11-08T15:00:00	2	Temperatura media	22.8
50538	7	Sololá	717	San Juan la Laguna	12	San Juan la Laguna	4	Abril	2023-04-27T00:00:00	2024-11-08T15:00:00	4	Temperatura máxima	24.2
50539	7	Sololá	717	San Juan la Laguna	12	San Juan la Laguna	4	Abril	2023-04-27T00:00:00	2024-11-08T15:00:00	3	Temperatura mínima	22.8
50540	7	Sololá	717	San Juan la Laguna	12	San Juan la Laguna	4	Abril	2023-04-27T00:00:00	2024-11-08T15:00:00	5	Humedad	72
50541	7	Sololá	717	San Juan la Laguna	12	San Juan la Laguna	4	Abril	2023-04-27T00:00:00	2024-11-08T15:00:00	6	Velocidad del viento	9.7
50542	7	Sololá	717	San Juan la Laguna	12	San Juan la Laguna	4	Abril	2023-04-27T00:00:00	2024-11-08T15:00:00	7	Dirección del viento	9.66
50543	7	Sololá	717	San Juan la Laguna	12	San Juan la Laguna	4	Abril	2023-04-27T00:00:00	2024-11-08T15:00:00	1	Precipitación	0
50544	7	Sololá	717	San Juan la Laguna	12	San Juan la Laguna	4	Abril	2023-04-27T00:00:00	2024-11-08T15:00:00	8	Radiación solar	788
50545	7	Sololá	717	San Juan la Laguna	12	San Juan la Laguna	4	Abril	2023-04-27T00:00:00	2024-11-08T16:00:00	2	Temperatura media	21.6
50546	7	Sololá	717	San Juan la Laguna	12	San Juan la Laguna	4	Abril	2023-04-27T00:00:00	2024-11-08T16:00:00	4	Temperatura máxima	22.9
50547	7	Sololá	717	San Juan la Laguna	12	San Juan la Laguna	4	Abril	2023-04-27T00:00:00	2024-11-08T16:00:00	3	Temperatura mínima	21.6
50548	7	Sololá	717	San Juan la Laguna	12	San Juan la Laguna	4	Abril	2023-04-27T00:00:00	2024-11-08T16:00:00	5	Humedad	76
50549	7	Sololá	717	San Juan la Laguna	12	San Juan la Laguna	4	Abril	2023-04-27T00:00:00	2024-11-08T16:00:00	6	Velocidad del viento	6.4
50550	7	Sololá	717	San Juan la Laguna	12	San Juan la Laguna	4	Abril	2023-04-27T00:00:00	2024-11-08T16:00:00	7	Dirección del viento	6.44
50551	7	Sololá	717	San Juan la Laguna	12	San Juan la Laguna	4	Abril	2023-04-27T00:00:00	2024-11-08T16:00:00	1	Precipitación	0
50552	7	Sololá	717	San Juan la Laguna	12	San Juan la Laguna	4	Abril	2023-04-27T00:00:00	2024-11-08T16:00:00	8	Radiación solar	296
50553	7	Sololá	717	San Juan la Laguna	12	San Juan la Laguna	4	Abril	2023-04-27T00:00:00	2024-11-08T17:00:00	2	Temperatura media	21.2
50554	7	Sololá	717	San Juan la Laguna	12	San Juan la Laguna	4	Abril	2023-04-27T00:00:00	2024-11-08T17:00:00	4	Temperatura máxima	21.6
50555	7	Sololá	717	San Juan la Laguna	12	San Juan la Laguna	4	Abril	2023-04-27T00:00:00	2024-11-08T17:00:00	3	Temperatura mínima	21.2
50556	7	Sololá	717	San Juan la Laguna	12	San Juan la Laguna	4	Abril	2023-04-27T00:00:00	2024-11-08T17:00:00	5	Humedad	79
50557	7	Sololá	717	San Juan la Laguna	12	San Juan la Laguna	4	Abril	2023-04-27T00:00:00	2024-11-08T17:00:00	6	Velocidad del viento	3.2
50558	7	Sololá	717	San Juan la Laguna	12	San Juan la Laguna	4	Abril	2023-04-27T00:00:00	2024-11-08T17:00:00	7	Dirección del viento	3.22
50559	7	Sololá	717	San Juan la Laguna	12	San Juan la Laguna	4	Abril	2023-04-27T00:00:00	2024-11-08T17:00:00	1	Precipitación	0
50560	7	Sololá	717	San Juan la Laguna	12	San Juan la Laguna	4	Abril	2023-04-27T00:00:00	2024-11-08T17:00:00	8	Radiación solar	81
50561	7	Sololá	717	San Juan la Laguna	12	San Juan la Laguna	4	Abril	2023-04-27T00:00:00	2024-11-08T18:00:00	2	Temperatura media	19.8
50562	7	Sololá	717	San Juan la Laguna	12	San Juan la Laguna	4	Abril	2023-04-27T00:00:00	2024-11-08T18:00:00	4	Temperatura máxima	21.2
50563	7	Sololá	717	San Juan la Laguna	12	San Juan la Laguna	4	Abril	2023-04-27T00:00:00	2024-11-08T18:00:00	3	Temperatura mínima	19.8
50564	7	Sololá	717	San Juan la Laguna	12	San Juan la Laguna	4	Abril	2023-04-27T00:00:00	2024-11-08T18:00:00	5	Humedad	85
50565	7	Sololá	717	San Juan la Laguna	12	San Juan la Laguna	4	Abril	2023-04-27T00:00:00	2024-11-08T18:00:00	6	Velocidad del viento	3.2
50566	7	Sololá	717	San Juan la Laguna	12	San Juan la Laguna	4	Abril	2023-04-27T00:00:00	2024-11-08T18:00:00	7	Dirección del viento	3.22
50567	7	Sololá	717	San Juan la Laguna	12	San Juan la Laguna	4	Abril	2023-04-27T00:00:00	2024-11-08T18:00:00	1	Precipitación	0
50568	7	Sololá	717	San Juan la Laguna	12	San Juan la Laguna	4	Abril	2023-04-27T00:00:00	2024-11-08T18:00:00	8	Radiación solar	12
50569	7	Sololá	717	San Juan la Laguna	12	San Juan la Laguna	4	Abril	2023-04-27T00:00:00	2024-11-08T19:00:00	2	Temperatura media	19.3
50570	7	Sololá	717	San Juan la Laguna	12	San Juan la Laguna	4	Abril	2023-04-27T00:00:00	2024-11-08T19:00:00	4	Temperatura máxima	19.8
50571	7	Sololá	717	San Juan la Laguna	12	San Juan la Laguna	4	Abril	2023-04-27T00:00:00	2024-11-08T19:00:00	3	Temperatura mínima	19.3
50572	7	Sololá	717	San Juan la Laguna	12	San Juan la Laguna	4	Abril	2023-04-27T00:00:00	2024-11-08T19:00:00	5	Humedad	88
50573	7	Sololá	717	San Juan la Laguna	12	San Juan la Laguna	4	Abril	2023-04-27T00:00:00	2024-11-08T19:00:00	6	Velocidad del viento	4.8
50574	7	Sololá	717	San Juan la Laguna	12	San Juan la Laguna	4	Abril	2023-04-27T00:00:00	2024-11-08T19:00:00	7	Dirección del viento	4.83
50575	7	Sololá	717	San Juan la Laguna	12	San Juan la Laguna	4	Abril	2023-04-27T00:00:00	2024-11-08T19:00:00	1	Precipitación	0
50576	7	Sololá	717	San Juan la Laguna	12	San Juan la Laguna	4	Abril	2023-04-27T00:00:00	2024-11-08T19:00:00	8	Radiación solar	0
50577	7	Sololá	717	San Juan la Laguna	12	San Juan la Laguna	4	Abril	2023-04-27T00:00:00	2024-11-08T20:00:00	2	Temperatura media	19.3
50578	7	Sololá	717	San Juan la Laguna	12	San Juan la Laguna	4	Abril	2023-04-27T00:00:00	2024-11-08T20:00:00	4	Temperatura máxima	19.3
50579	7	Sololá	717	San Juan la Laguna	12	San Juan la Laguna	4	Abril	2023-04-27T00:00:00	2024-11-08T20:00:00	3	Temperatura mínima	19.2
50580	7	Sololá	717	San Juan la Laguna	12	San Juan la Laguna	4	Abril	2023-04-27T00:00:00	2024-11-08T20:00:00	5	Humedad	86
50581	7	Sololá	717	San Juan la Laguna	12	San Juan la Laguna	4	Abril	2023-04-27T00:00:00	2024-11-08T20:00:00	6	Velocidad del viento	1.6
50582	7	Sololá	717	San Juan la Laguna	12	San Juan la Laguna	4	Abril	2023-04-27T00:00:00	2024-11-08T20:00:00	7	Dirección del viento	1.61
50583	7	Sololá	717	San Juan la Laguna	12	San Juan la Laguna	4	Abril	2023-04-27T00:00:00	2024-11-08T20:00:00	1	Precipitación	0
50584	7	Sololá	717	San Juan la Laguna	12	San Juan la Laguna	4	Abril	2023-04-27T00:00:00	2024-11-08T20:00:00	8	Radiación solar	0
50585	7	Sololá	717	San Juan la Laguna	12	San Juan la Laguna	4	Abril	2023-04-27T00:00:00	2024-11-08T21:00:00	2	Temperatura media	18.9
50586	7	Sololá	717	San Juan la Laguna	12	San Juan la Laguna	4	Abril	2023-04-27T00:00:00	2024-11-08T21:00:00	4	Temperatura máxima	19.4
50587	7	Sololá	717	San Juan la Laguna	12	San Juan la Laguna	4	Abril	2023-04-27T00:00:00	2024-11-08T21:00:00	3	Temperatura mínima	18.9
50588	7	Sololá	717	San Juan la Laguna	12	San Juan la Laguna	4	Abril	2023-04-27T00:00:00	2024-11-08T21:00:00	5	Humedad	87
50589	7	Sololá	717	San Juan la Laguna	12	San Juan la Laguna	4	Abril	2023-04-27T00:00:00	2024-11-08T21:00:00	6	Velocidad del viento	1.6
50590	7	Sololá	717	San Juan la Laguna	12	San Juan la Laguna	4	Abril	2023-04-27T00:00:00	2024-11-08T21:00:00	7	Dirección del viento	1.61
50591	7	Sololá	717	San Juan la Laguna	12	San Juan la Laguna	4	Abril	2023-04-27T00:00:00	2024-11-08T21:00:00	1	Precipitación	0
50592	7	Sololá	717	San Juan la Laguna	12	San Juan la Laguna	4	Abril	2023-04-27T00:00:00	2024-11-08T21:00:00	8	Radiación solar	0
50593	7	Sololá	717	San Juan la Laguna	12	San Juan la Laguna	4	Abril	2023-04-27T00:00:00	2024-11-08T22:00:00	2	Temperatura media	18.9
50594	7	Sololá	717	San Juan la Laguna	12	San Juan la Laguna	4	Abril	2023-04-27T00:00:00	2024-11-08T22:00:00	4	Temperatura máxima	19
50595	7	Sololá	717	San Juan la Laguna	12	San Juan la Laguna	4	Abril	2023-04-27T00:00:00	2024-11-08T22:00:00	3	Temperatura mínima	18.8
50596	7	Sololá	717	San Juan la Laguna	12	San Juan la Laguna	4	Abril	2023-04-27T00:00:00	2024-11-08T22:00:00	5	Humedad	87
50597	7	Sololá	717	San Juan la Laguna	12	San Juan la Laguna	4	Abril	2023-04-27T00:00:00	2024-11-08T22:00:00	6	Velocidad del viento	1.6
50598	7	Sololá	717	San Juan la Laguna	12	San Juan la Laguna	4	Abril	2023-04-27T00:00:00	2024-11-08T22:00:00	7	Dirección del viento	1.61
50599	7	Sololá	717	San Juan la Laguna	12	San Juan la Laguna	4	Abril	2023-04-27T00:00:00	2024-11-08T22:00:00	1	Precipitación	0
50600	7	Sololá	717	San Juan la Laguna	12	San Juan la Laguna	4	Abril	2023-04-27T00:00:00	2024-11-08T22:00:00	8	Radiación solar	0
50601	7	Sololá	717	San Juan la Laguna	12	San Juan la Laguna	4	Abril	2023-04-27T00:00:00	2024-11-08T23:00:00	2	Temperatura media	17.7
50602	7	Sololá	717	San Juan la Laguna	12	San Juan la Laguna	4	Abril	2023-04-27T00:00:00	2024-11-08T23:00:00	4	Temperatura máxima	18.9
50603	7	Sololá	717	San Juan la Laguna	12	San Juan la Laguna	4	Abril	2023-04-27T00:00:00	2024-11-08T23:00:00	3	Temperatura mínima	17.7
50604	7	Sololá	717	San Juan la Laguna	12	San Juan la Laguna	4	Abril	2023-04-27T00:00:00	2024-11-08T23:00:00	5	Humedad	89
50605	7	Sololá	717	San Juan la Laguna	12	San Juan la Laguna	4	Abril	2023-04-27T00:00:00	2024-11-08T23:00:00	6	Velocidad del viento	3.2
50606	7	Sololá	717	San Juan la Laguna	12	San Juan la Laguna	4	Abril	2023-04-27T00:00:00	2024-11-08T23:00:00	7	Dirección del viento	3.22
50607	7	Sololá	717	San Juan la Laguna	12	San Juan la Laguna	4	Abril	2023-04-27T00:00:00	2024-11-08T23:00:00	1	Precipitación	0
50608	7	Sololá	717	San Juan la Laguna	12	San Juan la Laguna	4	Abril	2023-04-27T00:00:00	2024-11-08T23:00:00	8	Radiación solar	0
50609	7	Sololá	717	San Juan la Laguna	12	San Juan la Laguna	4	Abril	2023-04-28T00:00:00	2024-11-08T00:00:00	2	Temperatura media	17.7
50610	7	Sololá	717	San Juan la Laguna	12	San Juan la Laguna	4	Abril	2023-04-28T00:00:00	2024-11-08T00:00:00	4	Temperatura máxima	17.7
50611	7	Sololá	717	San Juan la Laguna	12	San Juan la Laguna	4	Abril	2023-04-28T00:00:00	2024-11-08T00:00:00	3	Temperatura mínima	17.4
50612	7	Sololá	717	San Juan la Laguna	12	San Juan la Laguna	4	Abril	2023-04-28T00:00:00	2024-11-08T00:00:00	5	Humedad	88
50613	7	Sololá	717	San Juan la Laguna	12	San Juan la Laguna	4	Abril	2023-04-28T00:00:00	2024-11-08T00:00:00	6	Velocidad del viento	4.8
50614	7	Sololá	717	San Juan la Laguna	12	San Juan la Laguna	4	Abril	2023-04-28T00:00:00	2024-11-08T00:00:00	7	Dirección del viento	4.83
50615	7	Sololá	717	San Juan la Laguna	12	San Juan la Laguna	4	Abril	2023-04-28T00:00:00	2024-11-08T00:00:00	1	Precipitación	0
50616	7	Sololá	717	San Juan la Laguna	12	San Juan la Laguna	4	Abril	2023-04-28T00:00:00	2024-11-08T00:00:00	8	Radiación solar	0
50617	7	Sololá	717	San Juan la Laguna	12	San Juan la Laguna	4	Abril	2023-04-28T00:00:00	2024-11-08T01:00:00	2	Temperatura media	18.3
50618	7	Sololá	717	San Juan la Laguna	12	San Juan la Laguna	4	Abril	2023-04-28T00:00:00	2024-11-08T01:00:00	4	Temperatura máxima	18.3
50619	7	Sololá	717	San Juan la Laguna	12	San Juan la Laguna	4	Abril	2023-04-28T00:00:00	2024-11-08T01:00:00	3	Temperatura mínima	17.7
50620	7	Sololá	717	San Juan la Laguna	12	San Juan la Laguna	4	Abril	2023-04-28T00:00:00	2024-11-08T01:00:00	5	Humedad	87
50621	7	Sololá	717	San Juan la Laguna	12	San Juan la Laguna	4	Abril	2023-04-28T00:00:00	2024-11-08T01:00:00	6	Velocidad del viento	3.2
50622	7	Sololá	717	San Juan la Laguna	12	San Juan la Laguna	4	Abril	2023-04-28T00:00:00	2024-11-08T01:00:00	7	Dirección del viento	3.22
50623	7	Sololá	717	San Juan la Laguna	12	San Juan la Laguna	4	Abril	2023-04-28T00:00:00	2024-11-08T01:00:00	1	Precipitación	0
50624	7	Sololá	717	San Juan la Laguna	12	San Juan la Laguna	4	Abril	2023-04-28T00:00:00	2024-11-08T01:00:00	8	Radiación solar	0
50625	7	Sololá	717	San Juan la Laguna	12	San Juan la Laguna	4	Abril	2023-04-28T00:00:00	2024-11-08T02:00:00	2	Temperatura media	17.2
50626	7	Sololá	717	San Juan la Laguna	12	San Juan la Laguna	4	Abril	2023-04-28T00:00:00	2024-11-08T02:00:00	4	Temperatura máxima	18.3
50627	7	Sololá	717	San Juan la Laguna	12	San Juan la Laguna	4	Abril	2023-04-28T00:00:00	2024-11-08T02:00:00	3	Temperatura mínima	17.2
50628	7	Sololá	717	San Juan la Laguna	12	San Juan la Laguna	4	Abril	2023-04-28T00:00:00	2024-11-08T02:00:00	5	Humedad	88
50629	7	Sololá	717	San Juan la Laguna	12	San Juan la Laguna	4	Abril	2023-04-28T00:00:00	2024-11-08T02:00:00	6	Velocidad del viento	3.2
50630	7	Sololá	717	San Juan la Laguna	12	San Juan la Laguna	4	Abril	2023-04-28T00:00:00	2024-11-08T02:00:00	7	Dirección del viento	3.22
50631	7	Sololá	717	San Juan la Laguna	12	San Juan la Laguna	4	Abril	2023-04-28T00:00:00	2024-11-08T02:00:00	1	Precipitación	0
50632	7	Sololá	717	San Juan la Laguna	12	San Juan la Laguna	4	Abril	2023-04-28T00:00:00	2024-11-08T02:00:00	8	Radiación solar	0
50633	7	Sololá	717	San Juan la Laguna	12	San Juan la Laguna	4	Abril	2023-04-28T00:00:00	2024-11-08T03:00:00	2	Temperatura media	16.7
50634	7	Sololá	717	San Juan la Laguna	12	San Juan la Laguna	4	Abril	2023-04-28T00:00:00	2024-11-08T03:00:00	4	Temperatura máxima	17.2
50635	7	Sololá	717	San Juan la Laguna	12	San Juan la Laguna	4	Abril	2023-04-28T00:00:00	2024-11-08T03:00:00	3	Temperatura mínima	16.7
50636	7	Sololá	717	San Juan la Laguna	12	San Juan la Laguna	4	Abril	2023-04-28T00:00:00	2024-11-08T03:00:00	5	Humedad	87
50637	7	Sololá	717	San Juan la Laguna	12	San Juan la Laguna	4	Abril	2023-04-28T00:00:00	2024-11-08T03:00:00	6	Velocidad del viento	3.2
50638	7	Sololá	717	San Juan la Laguna	12	San Juan la Laguna	4	Abril	2023-04-28T00:00:00	2024-11-08T03:00:00	7	Dirección del viento	3.22
50639	7	Sololá	717	San Juan la Laguna	12	San Juan la Laguna	4	Abril	2023-04-28T00:00:00	2024-11-08T03:00:00	1	Precipitación	0
50640	7	Sololá	717	San Juan la Laguna	12	San Juan la Laguna	4	Abril	2023-04-28T00:00:00	2024-11-08T03:00:00	8	Radiación solar	0
50641	7	Sololá	717	San Juan la Laguna	12	San Juan la Laguna	4	Abril	2023-04-28T00:00:00	2024-11-08T04:00:00	2	Temperatura media	16.4
50642	7	Sololá	717	San Juan la Laguna	12	San Juan la Laguna	4	Abril	2023-04-28T00:00:00	2024-11-08T04:00:00	4	Temperatura máxima	16.8
50643	7	Sololá	717	San Juan la Laguna	12	San Juan la Laguna	4	Abril	2023-04-28T00:00:00	2024-11-08T04:00:00	3	Temperatura mínima	16.2
50644	7	Sololá	717	San Juan la Laguna	12	San Juan la Laguna	4	Abril	2023-04-28T00:00:00	2024-11-08T04:00:00	5	Humedad	88
50645	7	Sololá	717	San Juan la Laguna	12	San Juan la Laguna	4	Abril	2023-04-28T00:00:00	2024-11-08T04:00:00	6	Velocidad del viento	3.2
50646	7	Sololá	717	San Juan la Laguna	12	San Juan la Laguna	4	Abril	2023-04-28T00:00:00	2024-11-08T04:00:00	7	Dirección del viento	3.22
50647	7	Sololá	717	San Juan la Laguna	12	San Juan la Laguna	4	Abril	2023-04-28T00:00:00	2024-11-08T04:00:00	1	Precipitación	0
50648	7	Sololá	717	San Juan la Laguna	12	San Juan la Laguna	4	Abril	2023-04-28T00:00:00	2024-11-08T04:00:00	8	Radiación solar	0
50649	7	Sololá	717	San Juan la Laguna	12	San Juan la Laguna	4	Abril	2023-04-28T00:00:00	2024-11-08T05:00:00	2	Temperatura media	16.1
50650	7	Sololá	717	San Juan la Laguna	12	San Juan la Laguna	4	Abril	2023-04-28T00:00:00	2024-11-08T05:00:00	4	Temperatura máxima	16.8
50651	7	Sololá	717	San Juan la Laguna	12	San Juan la Laguna	4	Abril	2023-04-28T00:00:00	2024-11-08T05:00:00	3	Temperatura mínima	15.8
50652	7	Sololá	717	San Juan la Laguna	12	San Juan la Laguna	4	Abril	2023-04-28T00:00:00	2024-11-08T05:00:00	5	Humedad	89
50653	7	Sololá	717	San Juan la Laguna	12	San Juan la Laguna	4	Abril	2023-04-28T00:00:00	2024-11-08T05:00:00	6	Velocidad del viento	1.6
50654	7	Sololá	717	San Juan la Laguna	12	San Juan la Laguna	4	Abril	2023-04-28T00:00:00	2024-11-08T05:00:00	7	Dirección del viento	1.61
50655	7	Sololá	717	San Juan la Laguna	12	San Juan la Laguna	4	Abril	2023-04-28T00:00:00	2024-11-08T05:00:00	1	Precipitación	0
50656	7	Sololá	717	San Juan la Laguna	12	San Juan la Laguna	4	Abril	2023-04-28T00:00:00	2024-11-08T05:00:00	8	Radiación solar	0
50657	7	Sololá	717	San Juan la Laguna	12	San Juan la Laguna	4	Abril	2023-04-28T00:00:00	2024-11-08T06:00:00	2	Temperatura media	16.3
50658	7	Sololá	717	San Juan la Laguna	12	San Juan la Laguna	4	Abril	2023-04-28T00:00:00	2024-11-08T06:00:00	4	Temperatura máxima	16.8
50659	7	Sololá	717	San Juan la Laguna	12	San Juan la Laguna	4	Abril	2023-04-28T00:00:00	2024-11-08T06:00:00	3	Temperatura mínima	16.1
50660	7	Sololá	717	San Juan la Laguna	12	San Juan la Laguna	4	Abril	2023-04-28T00:00:00	2024-11-08T06:00:00	5	Humedad	89
50661	7	Sololá	717	San Juan la Laguna	12	San Juan la Laguna	4	Abril	2023-04-28T00:00:00	2024-11-08T06:00:00	6	Velocidad del viento	3.2
50662	7	Sololá	717	San Juan la Laguna	12	San Juan la Laguna	4	Abril	2023-04-28T00:00:00	2024-11-08T06:00:00	7	Dirección del viento	3.22
50663	7	Sololá	717	San Juan la Laguna	12	San Juan la Laguna	4	Abril	2023-04-28T00:00:00	2024-11-08T06:00:00	1	Precipitación	0
50664	7	Sololá	717	San Juan la Laguna	12	San Juan la Laguna	4	Abril	2023-04-28T00:00:00	2024-11-08T06:00:00	8	Radiación solar	1
50665	7	Sololá	717	San Juan la Laguna	12	San Juan la Laguna	4	Abril	2023-04-28T00:00:00	2024-11-08T07:00:00	2	Temperatura media	18.2
50666	7	Sololá	717	San Juan la Laguna	12	San Juan la Laguna	4	Abril	2023-04-28T00:00:00	2024-11-08T07:00:00	4	Temperatura máxima	18.2
50667	7	Sololá	717	San Juan la Laguna	12	San Juan la Laguna	4	Abril	2023-04-28T00:00:00	2024-11-08T07:00:00	3	Temperatura mínima	16.3
50668	7	Sololá	717	San Juan la Laguna	12	San Juan la Laguna	4	Abril	2023-04-28T00:00:00	2024-11-08T07:00:00	5	Humedad	84
50669	7	Sololá	717	San Juan la Laguna	12	San Juan la Laguna	4	Abril	2023-04-28T00:00:00	2024-11-08T07:00:00	6	Velocidad del viento	1.6
50670	7	Sololá	717	San Juan la Laguna	12	San Juan la Laguna	4	Abril	2023-04-28T00:00:00	2024-11-08T07:00:00	7	Dirección del viento	1.61
50671	7	Sololá	717	San Juan la Laguna	12	San Juan la Laguna	4	Abril	2023-04-28T00:00:00	2024-11-08T07:00:00	1	Precipitación	0
50672	7	Sololá	717	San Juan la Laguna	12	San Juan la Laguna	4	Abril	2023-04-28T00:00:00	2024-11-08T07:00:00	8	Radiación solar	75
50673	7	Sololá	717	San Juan la Laguna	12	San Juan la Laguna	4	Abril	2023-04-28T00:00:00	2024-11-08T08:00:00	2	Temperatura media	20.8
50674	7	Sololá	717	San Juan la Laguna	12	San Juan la Laguna	4	Abril	2023-04-28T00:00:00	2024-11-08T08:00:00	4	Temperatura máxima	20.8
50675	7	Sololá	717	San Juan la Laguna	12	San Juan la Laguna	4	Abril	2023-04-28T00:00:00	2024-11-08T08:00:00	3	Temperatura mínima	18.2
50676	7	Sololá	717	San Juan la Laguna	12	San Juan la Laguna	4	Abril	2023-04-28T00:00:00	2024-11-08T08:00:00	5	Humedad	77
50677	7	Sololá	717	San Juan la Laguna	12	San Juan la Laguna	4	Abril	2023-04-28T00:00:00	2024-11-08T08:00:00	6	Velocidad del viento	1.6
50678	7	Sololá	717	San Juan la Laguna	12	San Juan la Laguna	4	Abril	2023-04-28T00:00:00	2024-11-08T08:00:00	7	Dirección del viento	1.61
50679	7	Sololá	717	San Juan la Laguna	12	San Juan la Laguna	4	Abril	2023-04-28T00:00:00	2024-11-08T08:00:00	1	Precipitación	0
50680	7	Sololá	717	San Juan la Laguna	12	San Juan la Laguna	4	Abril	2023-04-28T00:00:00	2024-11-08T08:00:00	8	Radiación solar	264
50681	7	Sololá	717	San Juan la Laguna	12	San Juan la Laguna	4	Abril	2023-04-28T00:00:00	2024-11-08T09:00:00	2	Temperatura media	21.5
50682	7	Sololá	717	San Juan la Laguna	12	San Juan la Laguna	4	Abril	2023-04-28T00:00:00	2024-11-08T09:00:00	4	Temperatura máxima	21.6
50683	7	Sololá	717	San Juan la Laguna	12	San Juan la Laguna	4	Abril	2023-04-28T00:00:00	2024-11-08T09:00:00	3	Temperatura mínima	20.6
50684	7	Sololá	717	San Juan la Laguna	12	San Juan la Laguna	4	Abril	2023-04-28T00:00:00	2024-11-08T09:00:00	5	Humedad	75
50685	7	Sololá	717	San Juan la Laguna	12	San Juan la Laguna	4	Abril	2023-04-28T00:00:00	2024-11-08T09:00:00	6	Velocidad del viento	1.6
50686	7	Sololá	717	San Juan la Laguna	12	San Juan la Laguna	4	Abril	2023-04-28T00:00:00	2024-11-08T09:00:00	7	Dirección del viento	1.61
50687	7	Sololá	717	San Juan la Laguna	12	San Juan la Laguna	4	Abril	2023-04-28T00:00:00	2024-11-08T09:00:00	1	Precipitación	0
50688	7	Sololá	717	San Juan la Laguna	12	San Juan la Laguna	4	Abril	2023-04-28T00:00:00	2024-11-08T09:00:00	8	Radiación solar	480
50689	7	Sololá	717	San Juan la Laguna	12	San Juan la Laguna	4	Abril	2023-04-28T00:00:00	2024-11-08T10:00:00	2	Temperatura media	22.1
50690	7	Sololá	717	San Juan la Laguna	12	San Juan la Laguna	4	Abril	2023-04-28T00:00:00	2024-11-08T10:00:00	4	Temperatura máxima	22.2
50691	7	Sololá	717	San Juan la Laguna	12	San Juan la Laguna	4	Abril	2023-04-28T00:00:00	2024-11-08T10:00:00	3	Temperatura mínima	21.3
50692	7	Sololá	717	San Juan la Laguna	12	San Juan la Laguna	4	Abril	2023-04-28T00:00:00	2024-11-08T10:00:00	5	Humedad	74
50693	7	Sololá	717	San Juan la Laguna	12	San Juan la Laguna	4	Abril	2023-04-28T00:00:00	2024-11-08T10:00:00	6	Velocidad del viento	1.6
50694	7	Sololá	717	San Juan la Laguna	12	San Juan la Laguna	4	Abril	2023-04-28T00:00:00	2024-11-08T10:00:00	7	Dirección del viento	1.61
50695	7	Sololá	717	San Juan la Laguna	12	San Juan la Laguna	4	Abril	2023-04-28T00:00:00	2024-11-08T10:00:00	1	Precipitación	0
50696	7	Sololá	717	San Juan la Laguna	12	San Juan la Laguna	4	Abril	2023-04-28T00:00:00	2024-11-08T10:00:00	8	Radiación solar	660
50697	7	Sololá	717	San Juan la Laguna	12	San Juan la Laguna	4	Abril	2023-04-28T00:00:00	2024-11-08T11:00:00	2	Temperatura media	23.3
50698	7	Sololá	717	San Juan la Laguna	12	San Juan la Laguna	4	Abril	2023-04-28T00:00:00	2024-11-08T11:00:00	4	Temperatura máxima	23.3
50699	7	Sololá	717	San Juan la Laguna	12	San Juan la Laguna	4	Abril	2023-04-28T00:00:00	2024-11-08T11:00:00	3	Temperatura mínima	22.1
50700	7	Sololá	717	San Juan la Laguna	12	San Juan la Laguna	4	Abril	2023-04-28T00:00:00	2024-11-08T11:00:00	5	Humedad	72
50701	7	Sololá	717	San Juan la Laguna	12	San Juan la Laguna	4	Abril	2023-04-28T00:00:00	2024-11-08T11:00:00	6	Velocidad del viento	1.6
50702	7	Sololá	717	San Juan la Laguna	12	San Juan la Laguna	4	Abril	2023-04-28T00:00:00	2024-11-08T11:00:00	7	Dirección del viento	1.61
50703	7	Sololá	717	San Juan la Laguna	12	San Juan la Laguna	4	Abril	2023-04-28T00:00:00	2024-11-08T11:00:00	1	Precipitación	0
50704	7	Sololá	717	San Juan la Laguna	12	San Juan la Laguna	4	Abril	2023-04-28T00:00:00	2024-11-08T11:00:00	8	Radiación solar	814
50705	7	Sololá	717	San Juan la Laguna	12	San Juan la Laguna	4	Abril	2023-04-28T00:00:00	2024-11-08T12:00:00	2	Temperatura media	23.7
50706	7	Sololá	717	San Juan la Laguna	12	San Juan la Laguna	4	Abril	2023-04-28T00:00:00	2024-11-08T12:00:00	4	Temperatura máxima	24.6
50707	7	Sololá	717	San Juan la Laguna	12	San Juan la Laguna	4	Abril	2023-04-28T00:00:00	2024-11-08T12:00:00	3	Temperatura mínima	23.2
50708	7	Sololá	717	San Juan la Laguna	12	San Juan la Laguna	4	Abril	2023-04-28T00:00:00	2024-11-08T12:00:00	5	Humedad	70
50709	7	Sololá	717	San Juan la Laguna	12	San Juan la Laguna	4	Abril	2023-04-28T00:00:00	2024-11-08T12:00:00	6	Velocidad del viento	3.2
50710	7	Sololá	717	San Juan la Laguna	12	San Juan la Laguna	4	Abril	2023-04-28T00:00:00	2024-11-08T12:00:00	7	Dirección del viento	3.22
50711	7	Sololá	717	San Juan la Laguna	12	San Juan la Laguna	4	Abril	2023-04-28T00:00:00	2024-11-08T12:00:00	1	Precipitación	0
50712	7	Sololá	717	San Juan la Laguna	12	San Juan la Laguna	4	Abril	2023-04-28T00:00:00	2024-11-08T12:00:00	8	Radiación solar	901
50713	7	Sololá	717	San Juan la Laguna	12	San Juan la Laguna	4	Abril	2023-04-28T00:00:00	2024-11-08T13:00:00	2	Temperatura media	23.1
50714	7	Sololá	717	San Juan la Laguna	12	San Juan la Laguna	4	Abril	2023-04-28T00:00:00	2024-11-08T13:00:00	4	Temperatura máxima	23.9
50715	7	Sololá	717	San Juan la Laguna	12	San Juan la Laguna	4	Abril	2023-04-28T00:00:00	2024-11-08T13:00:00	3	Temperatura mínima	22.9
50716	7	Sololá	717	San Juan la Laguna	12	San Juan la Laguna	4	Abril	2023-04-28T00:00:00	2024-11-08T13:00:00	5	Humedad	73
50717	7	Sololá	717	San Juan la Laguna	12	San Juan la Laguna	4	Abril	2023-04-28T00:00:00	2024-11-08T13:00:00	6	Velocidad del viento	3.2
50718	7	Sololá	717	San Juan la Laguna	12	San Juan la Laguna	4	Abril	2023-04-28T00:00:00	2024-11-08T13:00:00	7	Dirección del viento	3.22
50719	7	Sololá	717	San Juan la Laguna	12	San Juan la Laguna	4	Abril	2023-04-28T00:00:00	2024-11-08T13:00:00	1	Precipitación	0
50720	7	Sololá	717	San Juan la Laguna	12	San Juan la Laguna	4	Abril	2023-04-28T00:00:00	2024-11-08T13:00:00	8	Radiación solar	392
50721	7	Sololá	717	San Juan la Laguna	12	San Juan la Laguna	4	Abril	2023-04-28T00:00:00	2024-11-08T14:00:00	2	Temperatura media	22.4
50722	7	Sololá	717	San Juan la Laguna	12	San Juan la Laguna	4	Abril	2023-04-28T00:00:00	2024-11-08T14:00:00	4	Temperatura máxima	23.1
50723	7	Sololá	717	San Juan la Laguna	12	San Juan la Laguna	4	Abril	2023-04-28T00:00:00	2024-11-08T14:00:00	3	Temperatura mínima	22.1
50724	7	Sololá	717	San Juan la Laguna	12	San Juan la Laguna	4	Abril	2023-04-28T00:00:00	2024-11-08T14:00:00	5	Humedad	75
50725	7	Sololá	717	San Juan la Laguna	12	San Juan la Laguna	4	Abril	2023-04-28T00:00:00	2024-11-08T14:00:00	6	Velocidad del viento	6.4
50726	7	Sololá	717	San Juan la Laguna	12	San Juan la Laguna	4	Abril	2023-04-28T00:00:00	2024-11-08T14:00:00	7	Dirección del viento	6.44
50727	7	Sololá	717	San Juan la Laguna	12	San Juan la Laguna	4	Abril	2023-04-28T00:00:00	2024-11-08T14:00:00	1	Precipitación	0
50728	7	Sololá	717	San Juan la Laguna	12	San Juan la Laguna	4	Abril	2023-04-28T00:00:00	2024-11-08T14:00:00	8	Radiación solar	385
50729	7	Sololá	717	San Juan la Laguna	12	San Juan la Laguna	4	Abril	2023-04-28T00:00:00	2024-11-08T15:00:00	2	Temperatura media	20.7
50730	7	Sololá	717	San Juan la Laguna	12	San Juan la Laguna	4	Abril	2023-04-28T00:00:00	2024-11-08T15:00:00	4	Temperatura máxima	22.4
50731	7	Sololá	717	San Juan la Laguna	12	San Juan la Laguna	4	Abril	2023-04-28T00:00:00	2024-11-08T15:00:00	3	Temperatura mínima	20.4
50732	7	Sololá	717	San Juan la Laguna	12	San Juan la Laguna	4	Abril	2023-04-28T00:00:00	2024-11-08T15:00:00	5	Humedad	81
50733	7	Sololá	717	San Juan la Laguna	12	San Juan la Laguna	4	Abril	2023-04-28T00:00:00	2024-11-08T15:00:00	6	Velocidad del viento	8
50734	7	Sololá	717	San Juan la Laguna	12	San Juan la Laguna	4	Abril	2023-04-28T00:00:00	2024-11-08T15:00:00	7	Dirección del viento	8.05
50735	7	Sololá	717	San Juan la Laguna	12	San Juan la Laguna	4	Abril	2023-04-28T00:00:00	2024-11-08T15:00:00	1	Precipitación	0
50736	7	Sololá	717	San Juan la Laguna	12	San Juan la Laguna	4	Abril	2023-04-28T00:00:00	2024-11-08T15:00:00	8	Radiación solar	299
50737	7	Sololá	717	San Juan la Laguna	12	San Juan la Laguna	4	Abril	2023-04-28T00:00:00	2024-11-08T16:00:00	2	Temperatura media	20.2
50738	7	Sololá	717	San Juan la Laguna	12	San Juan la Laguna	4	Abril	2023-04-28T00:00:00	2024-11-08T16:00:00	4	Temperatura máxima	20.7
50739	7	Sololá	717	San Juan la Laguna	12	San Juan la Laguna	4	Abril	2023-04-28T00:00:00	2024-11-08T16:00:00	3	Temperatura mínima	19.9
50740	7	Sololá	717	San Juan la Laguna	12	San Juan la Laguna	4	Abril	2023-04-28T00:00:00	2024-11-08T16:00:00	5	Humedad	81
50741	7	Sololá	717	San Juan la Laguna	12	San Juan la Laguna	4	Abril	2023-04-28T00:00:00	2024-11-08T16:00:00	6	Velocidad del viento	6.4
50742	7	Sololá	717	San Juan la Laguna	12	San Juan la Laguna	4	Abril	2023-04-28T00:00:00	2024-11-08T16:00:00	7	Dirección del viento	6.44
50743	7	Sololá	717	San Juan la Laguna	12	San Juan la Laguna	4	Abril	2023-04-28T00:00:00	2024-11-08T16:00:00	1	Precipitación	0
50744	7	Sololá	717	San Juan la Laguna	12	San Juan la Laguna	4	Abril	2023-04-28T00:00:00	2024-11-08T16:00:00	8	Radiación solar	131
50745	7	Sololá	717	San Juan la Laguna	12	San Juan la Laguna	4	Abril	2023-04-28T00:00:00	2024-11-08T17:00:00	2	Temperatura media	20.2
50746	7	Sololá	717	San Juan la Laguna	12	San Juan la Laguna	4	Abril	2023-04-28T00:00:00	2024-11-08T17:00:00	4	Temperatura máxima	20.6
50747	7	Sololá	717	San Juan la Laguna	12	San Juan la Laguna	4	Abril	2023-04-28T00:00:00	2024-11-08T17:00:00	3	Temperatura mínima	19.9
50748	7	Sololá	717	San Juan la Laguna	12	San Juan la Laguna	4	Abril	2023-04-28T00:00:00	2024-11-08T17:00:00	5	Humedad	82
50749	7	Sololá	717	San Juan la Laguna	12	San Juan la Laguna	4	Abril	2023-04-28T00:00:00	2024-11-08T17:00:00	6	Velocidad del viento	4.8
50750	7	Sololá	717	San Juan la Laguna	12	San Juan la Laguna	4	Abril	2023-04-28T00:00:00	2024-11-08T17:00:00	7	Dirección del viento	4.83
50751	7	Sololá	717	San Juan la Laguna	12	San Juan la Laguna	4	Abril	2023-04-28T00:00:00	2024-11-08T17:00:00	1	Precipitación	0
50752	7	Sololá	717	San Juan la Laguna	12	San Juan la Laguna	4	Abril	2023-04-28T00:00:00	2024-11-08T17:00:00	8	Radiación solar	76
50753	7	Sololá	717	San Juan la Laguna	12	San Juan la Laguna	4	Abril	2023-04-28T00:00:00	2024-11-08T18:00:00	2	Temperatura media	20.4
50754	7	Sololá	717	San Juan la Laguna	12	San Juan la Laguna	4	Abril	2023-04-28T00:00:00	2024-11-08T18:00:00	4	Temperatura máxima	20.4
50755	7	Sololá	717	San Juan la Laguna	12	San Juan la Laguna	4	Abril	2023-04-28T00:00:00	2024-11-08T18:00:00	3	Temperatura mínima	20.1
50756	7	Sololá	717	San Juan la Laguna	12	San Juan la Laguna	4	Abril	2023-04-28T00:00:00	2024-11-08T18:00:00	5	Humedad	82
50757	7	Sololá	717	San Juan la Laguna	12	San Juan la Laguna	4	Abril	2023-04-28T00:00:00	2024-11-08T18:00:00	6	Velocidad del viento	0
50758	7	Sololá	717	San Juan la Laguna	12	San Juan la Laguna	4	Abril	2023-04-28T00:00:00	2024-11-08T18:00:00	7	Dirección del viento	0
50759	7	Sololá	717	San Juan la Laguna	12	San Juan la Laguna	4	Abril	2023-04-28T00:00:00	2024-11-08T18:00:00	1	Precipitación	0
50760	7	Sololá	717	San Juan la Laguna	12	San Juan la Laguna	4	Abril	2023-04-28T00:00:00	2024-11-08T18:00:00	8	Radiación solar	67
50761	7	Sololá	717	San Juan la Laguna	12	San Juan la Laguna	4	Abril	2023-04-28T00:00:00	2024-11-08T19:00:00	2	Temperatura media	19.3
50762	7	Sololá	717	San Juan la Laguna	12	San Juan la Laguna	4	Abril	2023-04-28T00:00:00	2024-11-08T19:00:00	4	Temperatura máxima	20.4
50763	7	Sololá	717	San Juan la Laguna	12	San Juan la Laguna	4	Abril	2023-04-28T00:00:00	2024-11-08T19:00:00	3	Temperatura mínima	19.3
50764	7	Sololá	717	San Juan la Laguna	12	San Juan la Laguna	4	Abril	2023-04-28T00:00:00	2024-11-08T19:00:00	5	Humedad	87
50765	7	Sololá	717	San Juan la Laguna	12	San Juan la Laguna	4	Abril	2023-04-28T00:00:00	2024-11-08T19:00:00	6	Velocidad del viento	3.2
50766	7	Sololá	717	San Juan la Laguna	12	San Juan la Laguna	4	Abril	2023-04-28T00:00:00	2024-11-08T19:00:00	7	Dirección del viento	3.22
50767	7	Sololá	717	San Juan la Laguna	12	San Juan la Laguna	4	Abril	2023-04-28T00:00:00	2024-11-08T19:00:00	1	Precipitación	0
50768	7	Sololá	717	San Juan la Laguna	12	San Juan la Laguna	4	Abril	2023-04-28T00:00:00	2024-11-08T19:00:00	8	Radiación solar	0
50769	7	Sololá	717	San Juan la Laguna	12	San Juan la Laguna	4	Abril	2023-04-28T00:00:00	2024-11-08T20:00:00	2	Temperatura media	19.4
50770	7	Sololá	717	San Juan la Laguna	12	San Juan la Laguna	4	Abril	2023-04-28T00:00:00	2024-11-08T20:00:00	4	Temperatura máxima	19.4
50771	7	Sololá	717	San Juan la Laguna	12	San Juan la Laguna	4	Abril	2023-04-28T00:00:00	2024-11-08T20:00:00	3	Temperatura mínima	19.3
50772	7	Sololá	717	San Juan la Laguna	12	San Juan la Laguna	4	Abril	2023-04-28T00:00:00	2024-11-08T20:00:00	5	Humedad	88
50773	7	Sololá	717	San Juan la Laguna	12	San Juan la Laguna	4	Abril	2023-04-28T00:00:00	2024-11-08T20:00:00	6	Velocidad del viento	1.6
50774	7	Sololá	717	San Juan la Laguna	12	San Juan la Laguna	4	Abril	2023-04-28T00:00:00	2024-11-08T20:00:00	7	Dirección del viento	1.61
50775	7	Sololá	717	San Juan la Laguna	12	San Juan la Laguna	4	Abril	2023-04-28T00:00:00	2024-11-08T20:00:00	1	Precipitación	0.2
50776	7	Sololá	717	San Juan la Laguna	12	San Juan la Laguna	4	Abril	2023-04-28T00:00:00	2024-11-08T20:00:00	8	Radiación solar	0
50777	7	Sololá	717	San Juan la Laguna	12	San Juan la Laguna	4	Abril	2023-04-28T00:00:00	2024-11-08T21:00:00	2	Temperatura media	18.6
50778	7	Sololá	717	San Juan la Laguna	12	San Juan la Laguna	4	Abril	2023-04-28T00:00:00	2024-11-08T21:00:00	4	Temperatura máxima	19.4
50779	7	Sololá	717	San Juan la Laguna	12	San Juan la Laguna	4	Abril	2023-04-28T00:00:00	2024-11-08T21:00:00	3	Temperatura mínima	18.5
50780	7	Sololá	717	San Juan la Laguna	12	San Juan la Laguna	4	Abril	2023-04-28T00:00:00	2024-11-08T21:00:00	5	Humedad	91
50781	7	Sololá	717	San Juan la Laguna	12	San Juan la Laguna	4	Abril	2023-04-28T00:00:00	2024-11-08T21:00:00	6	Velocidad del viento	0
50782	7	Sololá	717	San Juan la Laguna	12	San Juan la Laguna	4	Abril	2023-04-28T00:00:00	2024-11-08T21:00:00	7	Dirección del viento	0
50783	7	Sololá	717	San Juan la Laguna	12	San Juan la Laguna	4	Abril	2023-04-28T00:00:00	2024-11-08T21:00:00	1	Precipitación	2.8
50784	7	Sololá	717	San Juan la Laguna	12	San Juan la Laguna	4	Abril	2023-04-28T00:00:00	2024-11-08T21:00:00	8	Radiación solar	0
50785	7	Sololá	717	San Juan la Laguna	12	San Juan la Laguna	4	Abril	2023-04-28T00:00:00	2024-11-08T22:00:00	2	Temperatura media	17.8
50786	7	Sololá	717	San Juan la Laguna	12	San Juan la Laguna	4	Abril	2023-04-28T00:00:00	2024-11-08T22:00:00	4	Temperatura máxima	18.6
50787	7	Sololá	717	San Juan la Laguna	12	San Juan la Laguna	4	Abril	2023-04-28T00:00:00	2024-11-08T22:00:00	3	Temperatura mínima	17.6
50788	7	Sololá	717	San Juan la Laguna	12	San Juan la Laguna	4	Abril	2023-04-28T00:00:00	2024-11-08T22:00:00	5	Humedad	89
50789	7	Sololá	717	San Juan la Laguna	12	San Juan la Laguna	4	Abril	2023-04-28T00:00:00	2024-11-08T22:00:00	6	Velocidad del viento	1.6
50790	7	Sololá	717	San Juan la Laguna	12	San Juan la Laguna	4	Abril	2023-04-28T00:00:00	2024-11-08T22:00:00	7	Dirección del viento	1.61
50791	7	Sololá	717	San Juan la Laguna	12	San Juan la Laguna	4	Abril	2023-04-28T00:00:00	2024-11-08T22:00:00	1	Precipitación	2.8
50792	7	Sololá	717	San Juan la Laguna	12	San Juan la Laguna	4	Abril	2023-04-28T00:00:00	2024-11-08T22:00:00	8	Radiación solar	0
50793	7	Sololá	717	San Juan la Laguna	12	San Juan la Laguna	4	Abril	2023-04-28T00:00:00	2024-11-08T23:00:00	2	Temperatura media	17.8
50794	7	Sololá	717	San Juan la Laguna	12	San Juan la Laguna	4	Abril	2023-04-28T00:00:00	2024-11-08T23:00:00	4	Temperatura máxima	17.9
50795	7	Sololá	717	San Juan la Laguna	12	San Juan la Laguna	4	Abril	2023-04-28T00:00:00	2024-11-08T23:00:00	3	Temperatura mínima	17.7
50796	7	Sololá	717	San Juan la Laguna	12	San Juan la Laguna	4	Abril	2023-04-28T00:00:00	2024-11-08T23:00:00	5	Humedad	88
50797	7	Sololá	717	San Juan la Laguna	12	San Juan la Laguna	4	Abril	2023-04-28T00:00:00	2024-11-08T23:00:00	6	Velocidad del viento	3.2
50798	7	Sololá	717	San Juan la Laguna	12	San Juan la Laguna	4	Abril	2023-04-28T00:00:00	2024-11-08T23:00:00	7	Dirección del viento	3.22
50799	7	Sololá	717	San Juan la Laguna	12	San Juan la Laguna	4	Abril	2023-04-28T00:00:00	2024-11-08T23:00:00	1	Precipitación	0
50800	7	Sololá	717	San Juan la Laguna	12	San Juan la Laguna	4	Abril	2023-04-28T00:00:00	2024-11-08T23:00:00	8	Radiación solar	0
50801	7	Sololá	717	San Juan la Laguna	12	San Juan la Laguna	4	Abril	2023-04-29T00:00:00	2024-11-08T00:00:00	2	Temperatura media	17.3
50802	7	Sololá	717	San Juan la Laguna	12	San Juan la Laguna	4	Abril	2023-04-29T00:00:00	2024-11-08T00:00:00	4	Temperatura máxima	18
50803	7	Sololá	717	San Juan la Laguna	12	San Juan la Laguna	4	Abril	2023-04-29T00:00:00	2024-11-08T00:00:00	3	Temperatura mínima	17.3
50804	7	Sololá	717	San Juan la Laguna	12	San Juan la Laguna	4	Abril	2023-04-29T00:00:00	2024-11-08T00:00:00	5	Humedad	90
50805	7	Sololá	717	San Juan la Laguna	12	San Juan la Laguna	4	Abril	2023-04-29T00:00:00	2024-11-08T00:00:00	6	Velocidad del viento	1.6
50806	7	Sololá	717	San Juan la Laguna	12	San Juan la Laguna	4	Abril	2023-04-29T00:00:00	2024-11-08T00:00:00	7	Dirección del viento	1.61
50807	7	Sololá	717	San Juan la Laguna	12	San Juan la Laguna	4	Abril	2023-04-29T00:00:00	2024-11-08T00:00:00	1	Precipitación	0
50808	7	Sololá	717	San Juan la Laguna	12	San Juan la Laguna	4	Abril	2023-04-29T00:00:00	2024-11-08T00:00:00	8	Radiación solar	0
50809	7	Sololá	717	San Juan la Laguna	12	San Juan la Laguna	4	Abril	2023-04-29T00:00:00	2024-11-08T01:00:00	2	Temperatura media	16.9
50810	7	Sololá	717	San Juan la Laguna	12	San Juan la Laguna	4	Abril	2023-04-29T00:00:00	2024-11-08T01:00:00	4	Temperatura máxima	17.4
50811	7	Sololá	717	San Juan la Laguna	12	San Juan la Laguna	4	Abril	2023-04-29T00:00:00	2024-11-08T01:00:00	3	Temperatura mínima	16.9
50812	7	Sololá	717	San Juan la Laguna	12	San Juan la Laguna	4	Abril	2023-04-29T00:00:00	2024-11-08T01:00:00	5	Humedad	91
50813	7	Sololá	717	San Juan la Laguna	12	San Juan la Laguna	4	Abril	2023-04-29T00:00:00	2024-11-08T01:00:00	6	Velocidad del viento	1.6
50814	7	Sololá	717	San Juan la Laguna	12	San Juan la Laguna	4	Abril	2023-04-29T00:00:00	2024-11-08T01:00:00	7	Dirección del viento	1.61
50815	7	Sololá	717	San Juan la Laguna	12	San Juan la Laguna	4	Abril	2023-04-29T00:00:00	2024-11-08T01:00:00	1	Precipitación	0
50816	7	Sololá	717	San Juan la Laguna	12	San Juan la Laguna	4	Abril	2023-04-29T00:00:00	2024-11-08T01:00:00	8	Radiación solar	0
50817	7	Sololá	717	San Juan la Laguna	12	San Juan la Laguna	4	Abril	2023-04-29T00:00:00	2024-11-08T02:00:00	2	Temperatura media	16.3
50818	7	Sololá	717	San Juan la Laguna	12	San Juan la Laguna	4	Abril	2023-04-29T00:00:00	2024-11-08T02:00:00	4	Temperatura máxima	17
50819	7	Sololá	717	San Juan la Laguna	12	San Juan la Laguna	4	Abril	2023-04-29T00:00:00	2024-11-08T02:00:00	3	Temperatura mínima	16.3
50820	7	Sololá	717	San Juan la Laguna	12	San Juan la Laguna	4	Abril	2023-04-29T00:00:00	2024-11-08T02:00:00	5	Humedad	91
50821	7	Sololá	717	San Juan la Laguna	12	San Juan la Laguna	4	Abril	2023-04-29T00:00:00	2024-11-08T02:00:00	6	Velocidad del viento	1.6
50822	7	Sololá	717	San Juan la Laguna	12	San Juan la Laguna	4	Abril	2023-04-29T00:00:00	2024-11-08T02:00:00	7	Dirección del viento	1.61
50823	7	Sololá	717	San Juan la Laguna	12	San Juan la Laguna	4	Abril	2023-04-29T00:00:00	2024-11-08T02:00:00	1	Precipitación	0
50824	7	Sololá	717	San Juan la Laguna	12	San Juan la Laguna	4	Abril	2023-04-29T00:00:00	2024-11-08T02:00:00	8	Radiación solar	0
50825	7	Sololá	717	San Juan la Laguna	12	San Juan la Laguna	4	Abril	2023-04-29T00:00:00	2024-11-08T03:00:00	2	Temperatura media	16.9
50826	7	Sololá	717	San Juan la Laguna	12	San Juan la Laguna	4	Abril	2023-04-29T00:00:00	2024-11-08T03:00:00	4	Temperatura máxima	16.9
50827	7	Sololá	717	San Juan la Laguna	12	San Juan la Laguna	4	Abril	2023-04-29T00:00:00	2024-11-08T03:00:00	3	Temperatura mínima	16.2
50828	7	Sololá	717	San Juan la Laguna	12	San Juan la Laguna	4	Abril	2023-04-29T00:00:00	2024-11-08T03:00:00	5	Humedad	88
50829	7	Sololá	717	San Juan la Laguna	12	San Juan la Laguna	4	Abril	2023-04-29T00:00:00	2024-11-08T03:00:00	6	Velocidad del viento	3.2
50830	7	Sololá	717	San Juan la Laguna	12	San Juan la Laguna	4	Abril	2023-04-29T00:00:00	2024-11-08T03:00:00	7	Dirección del viento	3.22
50831	7	Sololá	717	San Juan la Laguna	12	San Juan la Laguna	4	Abril	2023-04-29T00:00:00	2024-11-08T03:00:00	1	Precipitación	0
50832	7	Sololá	717	San Juan la Laguna	12	San Juan la Laguna	4	Abril	2023-04-29T00:00:00	2024-11-08T03:00:00	8	Radiación solar	0
50833	7	Sololá	717	San Juan la Laguna	12	San Juan la Laguna	4	Abril	2023-04-29T00:00:00	2024-11-08T04:00:00	2	Temperatura media	17.1
50834	7	Sololá	717	San Juan la Laguna	12	San Juan la Laguna	4	Abril	2023-04-29T00:00:00	2024-11-08T04:00:00	4	Temperatura máxima	17.4
50835	7	Sololá	717	San Juan la Laguna	12	San Juan la Laguna	4	Abril	2023-04-29T00:00:00	2024-11-08T04:00:00	3	Temperatura mínima	16.9
50836	7	Sololá	717	San Juan la Laguna	12	San Juan la Laguna	4	Abril	2023-04-29T00:00:00	2024-11-08T04:00:00	5	Humedad	87
50837	7	Sololá	717	San Juan la Laguna	12	San Juan la Laguna	4	Abril	2023-04-29T00:00:00	2024-11-08T04:00:00	6	Velocidad del viento	3.2
50838	7	Sololá	717	San Juan la Laguna	12	San Juan la Laguna	4	Abril	2023-04-29T00:00:00	2024-11-08T04:00:00	7	Dirección del viento	3.22
50839	7	Sololá	717	San Juan la Laguna	12	San Juan la Laguna	4	Abril	2023-04-29T00:00:00	2024-11-08T04:00:00	1	Precipitación	0
50840	7	Sololá	717	San Juan la Laguna	12	San Juan la Laguna	4	Abril	2023-04-29T00:00:00	2024-11-08T04:00:00	8	Radiación solar	0
50841	7	Sololá	717	San Juan la Laguna	12	San Juan la Laguna	4	Abril	2023-04-29T00:00:00	2024-11-08T05:00:00	2	Temperatura media	15.2
50842	7	Sololá	717	San Juan la Laguna	12	San Juan la Laguna	4	Abril	2023-04-29T00:00:00	2024-11-08T05:00:00	4	Temperatura máxima	17.1
50843	7	Sololá	717	San Juan la Laguna	12	San Juan la Laguna	4	Abril	2023-04-29T00:00:00	2024-11-08T05:00:00	3	Temperatura mínima	15.2
50844	7	Sololá	717	San Juan la Laguna	12	San Juan la Laguna	4	Abril	2023-04-29T00:00:00	2024-11-08T05:00:00	5	Humedad	91
50845	7	Sololá	717	San Juan la Laguna	12	San Juan la Laguna	4	Abril	2023-04-29T00:00:00	2024-11-08T05:00:00	6	Velocidad del viento	3.2
50846	7	Sololá	717	San Juan la Laguna	12	San Juan la Laguna	4	Abril	2023-04-29T00:00:00	2024-11-08T05:00:00	7	Dirección del viento	3.22
50847	7	Sololá	717	San Juan la Laguna	12	San Juan la Laguna	4	Abril	2023-04-29T00:00:00	2024-11-08T05:00:00	1	Precipitación	0
50848	7	Sololá	717	San Juan la Laguna	12	San Juan la Laguna	4	Abril	2023-04-29T00:00:00	2024-11-08T05:00:00	8	Radiación solar	0
50849	7	Sololá	717	San Juan la Laguna	12	San Juan la Laguna	4	Abril	2023-04-29T00:00:00	2024-11-08T06:00:00	2	Temperatura media	14.9
50850	7	Sololá	717	San Juan la Laguna	12	San Juan la Laguna	4	Abril	2023-04-29T00:00:00	2024-11-08T06:00:00	4	Temperatura máxima	15.2
50851	7	Sololá	717	San Juan la Laguna	12	San Juan la Laguna	4	Abril	2023-04-29T00:00:00	2024-11-08T06:00:00	3	Temperatura mínima	14.8
50852	7	Sololá	717	San Juan la Laguna	12	San Juan la Laguna	4	Abril	2023-04-29T00:00:00	2024-11-08T06:00:00	5	Humedad	91
50853	7	Sololá	717	San Juan la Laguna	12	San Juan la Laguna	4	Abril	2023-04-29T00:00:00	2024-11-08T06:00:00	6	Velocidad del viento	1.6
50854	7	Sololá	717	San Juan la Laguna	12	San Juan la Laguna	4	Abril	2023-04-29T00:00:00	2024-11-08T06:00:00	7	Dirección del viento	1.61
50855	7	Sololá	717	San Juan la Laguna	12	San Juan la Laguna	4	Abril	2023-04-29T00:00:00	2024-11-08T06:00:00	1	Precipitación	0
50856	7	Sololá	717	San Juan la Laguna	12	San Juan la Laguna	4	Abril	2023-04-29T00:00:00	2024-11-08T06:00:00	8	Radiación solar	2
50857	7	Sololá	717	San Juan la Laguna	12	San Juan la Laguna	4	Abril	2023-04-29T00:00:00	2024-11-08T07:00:00	2	Temperatura media	16.1
50858	7	Sololá	717	San Juan la Laguna	12	San Juan la Laguna	4	Abril	2023-04-29T00:00:00	2024-11-08T07:00:00	4	Temperatura máxima	16.1
50859	7	Sololá	717	San Juan la Laguna	12	San Juan la Laguna	4	Abril	2023-04-29T00:00:00	2024-11-08T07:00:00	3	Temperatura mínima	14.9
50860	7	Sololá	717	San Juan la Laguna	12	San Juan la Laguna	4	Abril	2023-04-29T00:00:00	2024-11-08T07:00:00	5	Humedad	89
50861	7	Sololá	717	San Juan la Laguna	12	San Juan la Laguna	4	Abril	2023-04-29T00:00:00	2024-11-08T07:00:00	6	Velocidad del viento	3.2
50862	7	Sololá	717	San Juan la Laguna	12	San Juan la Laguna	4	Abril	2023-04-29T00:00:00	2024-11-08T07:00:00	7	Dirección del viento	3.22
50863	7	Sololá	717	San Juan la Laguna	12	San Juan la Laguna	4	Abril	2023-04-29T00:00:00	2024-11-08T07:00:00	1	Precipitación	0
50864	7	Sololá	717	San Juan la Laguna	12	San Juan la Laguna	4	Abril	2023-04-29T00:00:00	2024-11-08T07:00:00	8	Radiación solar	59
50865	7	Sololá	717	San Juan la Laguna	12	San Juan la Laguna	4	Abril	2023-04-29T00:00:00	2024-11-08T08:00:00	2	Temperatura media	19.4
50866	7	Sololá	717	San Juan la Laguna	12	San Juan la Laguna	4	Abril	2023-04-29T00:00:00	2024-11-08T08:00:00	4	Temperatura máxima	19.4
50867	7	Sololá	717	San Juan la Laguna	12	San Juan la Laguna	4	Abril	2023-04-29T00:00:00	2024-11-08T08:00:00	3	Temperatura mínima	16.1
50868	7	Sololá	717	San Juan la Laguna	12	San Juan la Laguna	4	Abril	2023-04-29T00:00:00	2024-11-08T08:00:00	5	Humedad	78
50869	7	Sololá	717	San Juan la Laguna	12	San Juan la Laguna	4	Abril	2023-04-29T00:00:00	2024-11-08T08:00:00	6	Velocidad del viento	1.6
50870	7	Sololá	717	San Juan la Laguna	12	San Juan la Laguna	4	Abril	2023-04-29T00:00:00	2024-11-08T08:00:00	7	Dirección del viento	1.61
50871	7	Sololá	717	San Juan la Laguna	12	San Juan la Laguna	4	Abril	2023-04-29T00:00:00	2024-11-08T08:00:00	1	Precipitación	0
50872	7	Sololá	717	San Juan la Laguna	12	San Juan la Laguna	4	Abril	2023-04-29T00:00:00	2024-11-08T08:00:00	8	Radiación solar	273
50873	7	Sololá	717	San Juan la Laguna	12	San Juan la Laguna	4	Abril	2023-04-29T00:00:00	2024-11-08T09:00:00	2	Temperatura media	20.6
50874	7	Sololá	717	San Juan la Laguna	12	San Juan la Laguna	4	Abril	2023-04-29T00:00:00	2024-11-08T09:00:00	4	Temperatura máxima	21.7
50875	7	Sololá	717	San Juan la Laguna	12	San Juan la Laguna	4	Abril	2023-04-29T00:00:00	2024-11-08T09:00:00	3	Temperatura mínima	19.4
50876	7	Sololá	717	San Juan la Laguna	12	San Juan la Laguna	4	Abril	2023-04-29T00:00:00	2024-11-08T09:00:00	5	Humedad	76
50877	7	Sololá	717	San Juan la Laguna	12	San Juan la Laguna	4	Abril	2023-04-29T00:00:00	2024-11-08T09:00:00	6	Velocidad del viento	1.6
50878	7	Sololá	717	San Juan la Laguna	12	San Juan la Laguna	4	Abril	2023-04-29T00:00:00	2024-11-08T09:00:00	7	Dirección del viento	1.61
50879	7	Sololá	717	San Juan la Laguna	12	San Juan la Laguna	4	Abril	2023-04-29T00:00:00	2024-11-08T09:00:00	1	Precipitación	0
50880	7	Sololá	717	San Juan la Laguna	12	San Juan la Laguna	4	Abril	2023-04-29T00:00:00	2024-11-08T09:00:00	8	Radiación solar	491
50881	7	Sololá	717	San Juan la Laguna	12	San Juan la Laguna	4	Abril	2023-04-29T00:00:00	2024-11-08T10:00:00	2	Temperatura media	22.1
50882	7	Sololá	717	San Juan la Laguna	12	San Juan la Laguna	4	Abril	2023-04-29T00:00:00	2024-11-08T10:00:00	4	Temperatura máxima	22.2
50883	7	Sololá	717	San Juan la Laguna	12	San Juan la Laguna	4	Abril	2023-04-29T00:00:00	2024-11-08T10:00:00	3	Temperatura mínima	20.6
50884	7	Sololá	717	San Juan la Laguna	12	San Juan la Laguna	4	Abril	2023-04-29T00:00:00	2024-11-08T10:00:00	5	Humedad	71
50885	7	Sololá	717	San Juan la Laguna	12	San Juan la Laguna	4	Abril	2023-04-29T00:00:00	2024-11-08T10:00:00	6	Velocidad del viento	1.6
50886	7	Sololá	717	San Juan la Laguna	12	San Juan la Laguna	4	Abril	2023-04-29T00:00:00	2024-11-08T10:00:00	7	Dirección del viento	1.61
50887	7	Sololá	717	San Juan la Laguna	12	San Juan la Laguna	4	Abril	2023-04-29T00:00:00	2024-11-08T10:00:00	1	Precipitación	0
50888	7	Sololá	717	San Juan la Laguna	12	San Juan la Laguna	4	Abril	2023-04-29T00:00:00	2024-11-08T10:00:00	8	Radiación solar	592
50889	7	Sololá	717	San Juan la Laguna	12	San Juan la Laguna	4	Abril	2023-04-29T00:00:00	2024-11-08T11:00:00	2	Temperatura media	23.6
50890	7	Sololá	717	San Juan la Laguna	12	San Juan la Laguna	4	Abril	2023-04-29T00:00:00	2024-11-08T11:00:00	4	Temperatura máxima	23.6
50891	7	Sololá	717	San Juan la Laguna	12	San Juan la Laguna	4	Abril	2023-04-29T00:00:00	2024-11-08T11:00:00	3	Temperatura mínima	21.9
50892	7	Sololá	717	San Juan la Laguna	12	San Juan la Laguna	4	Abril	2023-04-29T00:00:00	2024-11-08T11:00:00	5	Humedad	68
50893	7	Sololá	717	San Juan la Laguna	12	San Juan la Laguna	4	Abril	2023-04-29T00:00:00	2024-11-08T11:00:00	6	Velocidad del viento	1.6
50894	7	Sololá	717	San Juan la Laguna	12	San Juan la Laguna	4	Abril	2023-04-29T00:00:00	2024-11-08T11:00:00	7	Dirección del viento	1.61
50895	7	Sololá	717	San Juan la Laguna	12	San Juan la Laguna	4	Abril	2023-04-29T00:00:00	2024-11-08T11:00:00	1	Precipitación	0
50896	7	Sololá	717	San Juan la Laguna	12	San Juan la Laguna	4	Abril	2023-04-29T00:00:00	2024-11-08T11:00:00	8	Radiación solar	821
50897	7	Sololá	717	San Juan la Laguna	12	San Juan la Laguna	4	Abril	2023-04-29T00:00:00	2024-11-08T12:00:00	2	Temperatura media	24.4
50898	7	Sololá	717	San Juan la Laguna	12	San Juan la Laguna	4	Abril	2023-04-29T00:00:00	2024-11-08T12:00:00	4	Temperatura máxima	24.6
50899	7	Sololá	717	San Juan la Laguna	12	San Juan la Laguna	4	Abril	2023-04-29T00:00:00	2024-11-08T12:00:00	3	Temperatura mínima	23.6
50900	7	Sololá	717	San Juan la Laguna	12	San Juan la Laguna	4	Abril	2023-04-29T00:00:00	2024-11-08T12:00:00	5	Humedad	65
50901	7	Sololá	717	San Juan la Laguna	12	San Juan la Laguna	4	Abril	2023-04-29T00:00:00	2024-11-08T12:00:00	6	Velocidad del viento	3.2
50902	7	Sololá	717	San Juan la Laguna	12	San Juan la Laguna	4	Abril	2023-04-29T00:00:00	2024-11-08T12:00:00	7	Dirección del viento	3.22
50903	7	Sololá	717	San Juan la Laguna	12	San Juan la Laguna	4	Abril	2023-04-29T00:00:00	2024-11-08T12:00:00	1	Precipitación	0
50904	7	Sololá	717	San Juan la Laguna	12	San Juan la Laguna	4	Abril	2023-04-29T00:00:00	2024-11-08T12:00:00	8	Radiación solar	931
50905	7	Sololá	717	San Juan la Laguna	12	San Juan la Laguna	4	Abril	2023-04-29T00:00:00	2024-11-08T13:00:00	2	Temperatura media	23.3
50906	7	Sololá	717	San Juan la Laguna	12	San Juan la Laguna	4	Abril	2023-04-29T00:00:00	2024-11-08T13:00:00	4	Temperatura máxima	24.4
50907	7	Sololá	717	San Juan la Laguna	12	San Juan la Laguna	4	Abril	2023-04-29T00:00:00	2024-11-08T13:00:00	3	Temperatura mínima	23.3
50908	7	Sololá	717	San Juan la Laguna	12	San Juan la Laguna	4	Abril	2023-04-29T00:00:00	2024-11-08T13:00:00	5	Humedad	66
50909	7	Sololá	717	San Juan la Laguna	12	San Juan la Laguna	4	Abril	2023-04-29T00:00:00	2024-11-08T13:00:00	6	Velocidad del viento	4.8
50910	7	Sololá	717	San Juan la Laguna	12	San Juan la Laguna	4	Abril	2023-04-29T00:00:00	2024-11-08T13:00:00	7	Dirección del viento	4.83
50911	7	Sololá	717	San Juan la Laguna	12	San Juan la Laguna	4	Abril	2023-04-29T00:00:00	2024-11-08T13:00:00	1	Precipitación	0.2
50912	7	Sololá	717	San Juan la Laguna	12	San Juan la Laguna	4	Abril	2023-04-29T00:00:00	2024-11-08T13:00:00	8	Radiación solar	880
50913	7	Sololá	717	San Juan la Laguna	12	San Juan la Laguna	4	Abril	2023-04-29T00:00:00	2024-11-08T14:00:00	2	Temperatura media	21.8
50914	7	Sololá	717	San Juan la Laguna	12	San Juan la Laguna	4	Abril	2023-04-29T00:00:00	2024-11-08T14:00:00	4	Temperatura máxima	23.7
50915	7	Sololá	717	San Juan la Laguna	12	San Juan la Laguna	4	Abril	2023-04-29T00:00:00	2024-11-08T14:00:00	3	Temperatura mínima	21.8
50916	7	Sololá	717	San Juan la Laguna	12	San Juan la Laguna	4	Abril	2023-04-29T00:00:00	2024-11-08T14:00:00	5	Humedad	75
50917	7	Sololá	717	San Juan la Laguna	12	San Juan la Laguna	4	Abril	2023-04-29T00:00:00	2024-11-08T14:00:00	6	Velocidad del viento	6.4
50918	7	Sololá	717	San Juan la Laguna	12	San Juan la Laguna	4	Abril	2023-04-29T00:00:00	2024-11-08T14:00:00	7	Dirección del viento	6.44
50919	7	Sololá	717	San Juan la Laguna	12	San Juan la Laguna	4	Abril	2023-04-29T00:00:00	2024-11-08T14:00:00	1	Precipitación	0
50920	7	Sololá	717	San Juan la Laguna	12	San Juan la Laguna	4	Abril	2023-04-29T00:00:00	2024-11-08T14:00:00	8	Radiación solar	747
50921	7	Sololá	717	San Juan la Laguna	12	San Juan la Laguna	4	Abril	2023-04-29T00:00:00	2024-11-08T15:00:00	2	Temperatura media	21.2
50922	7	Sololá	717	San Juan la Laguna	12	San Juan la Laguna	4	Abril	2023-04-29T00:00:00	2024-11-08T15:00:00	4	Temperatura máxima	21.9
50923	7	Sololá	717	San Juan la Laguna	12	San Juan la Laguna	4	Abril	2023-04-29T00:00:00	2024-11-08T15:00:00	3	Temperatura mínima	21.2
50924	7	Sololá	717	San Juan la Laguna	12	San Juan la Laguna	4	Abril	2023-04-29T00:00:00	2024-11-08T15:00:00	5	Humedad	76
50925	7	Sololá	717	San Juan la Laguna	12	San Juan la Laguna	4	Abril	2023-04-29T00:00:00	2024-11-08T15:00:00	6	Velocidad del viento	8
50926	7	Sololá	717	San Juan la Laguna	12	San Juan la Laguna	4	Abril	2023-04-29T00:00:00	2024-11-08T15:00:00	7	Dirección del viento	8.05
50927	7	Sololá	717	San Juan la Laguna	12	San Juan la Laguna	4	Abril	2023-04-29T00:00:00	2024-11-08T15:00:00	1	Precipitación	0
50928	7	Sololá	717	San Juan la Laguna	12	San Juan la Laguna	4	Abril	2023-04-29T00:00:00	2024-11-08T15:00:00	8	Radiación solar	469
50929	7	Sololá	717	San Juan la Laguna	12	San Juan la Laguna	4	Abril	2023-04-29T00:00:00	2024-11-08T16:00:00	2	Temperatura media	20.8
50930	7	Sololá	717	San Juan la Laguna	12	San Juan la Laguna	4	Abril	2023-04-29T00:00:00	2024-11-08T16:00:00	4	Temperatura máxima	21.2
50931	7	Sololá	717	San Juan la Laguna	12	San Juan la Laguna	4	Abril	2023-04-29T00:00:00	2024-11-08T16:00:00	3	Temperatura mínima	20.7
50932	7	Sololá	717	San Juan la Laguna	12	San Juan la Laguna	4	Abril	2023-04-29T00:00:00	2024-11-08T16:00:00	5	Humedad	78
50933	7	Sololá	717	San Juan la Laguna	12	San Juan la Laguna	4	Abril	2023-04-29T00:00:00	2024-11-08T16:00:00	6	Velocidad del viento	4.8
50934	7	Sololá	717	San Juan la Laguna	12	San Juan la Laguna	4	Abril	2023-04-29T00:00:00	2024-11-08T16:00:00	7	Dirección del viento	4.83
50935	7	Sololá	717	San Juan la Laguna	12	San Juan la Laguna	4	Abril	2023-04-29T00:00:00	2024-11-08T16:00:00	1	Precipitación	0
50936	7	Sololá	717	San Juan la Laguna	12	San Juan la Laguna	4	Abril	2023-04-29T00:00:00	2024-11-08T16:00:00	8	Radiación solar	282
50937	7	Sololá	717	San Juan la Laguna	12	San Juan la Laguna	4	Abril	2023-04-29T00:00:00	2024-11-08T17:00:00	2	Temperatura media	20.4
50938	7	Sololá	717	San Juan la Laguna	12	San Juan la Laguna	4	Abril	2023-04-29T00:00:00	2024-11-08T17:00:00	4	Temperatura máxima	20.8
50939	7	Sololá	717	San Juan la Laguna	12	San Juan la Laguna	4	Abril	2023-04-29T00:00:00	2024-11-08T17:00:00	3	Temperatura mínima	20.4
50940	7	Sololá	717	San Juan la Laguna	12	San Juan la Laguna	4	Abril	2023-04-29T00:00:00	2024-11-08T17:00:00	5	Humedad	77
50941	7	Sololá	717	San Juan la Laguna	12	San Juan la Laguna	4	Abril	2023-04-29T00:00:00	2024-11-08T17:00:00	6	Velocidad del viento	4.8
50942	7	Sololá	717	San Juan la Laguna	12	San Juan la Laguna	4	Abril	2023-04-29T00:00:00	2024-11-08T17:00:00	7	Dirección del viento	4.83
50943	7	Sololá	717	San Juan la Laguna	12	San Juan la Laguna	4	Abril	2023-04-29T00:00:00	2024-11-08T17:00:00	1	Precipitación	0
50944	7	Sololá	717	San Juan la Laguna	12	San Juan la Laguna	4	Abril	2023-04-29T00:00:00	2024-11-08T17:00:00	8	Radiación solar	97
50945	7	Sololá	717	San Juan la Laguna	12	San Juan la Laguna	4	Abril	2023-04-29T00:00:00	2024-11-08T18:00:00	2	Temperatura media	20.2
50946	7	Sololá	717	San Juan la Laguna	12	San Juan la Laguna	4	Abril	2023-04-29T00:00:00	2024-11-08T18:00:00	4	Temperatura máxima	20.5
50947	7	Sololá	717	San Juan la Laguna	12	San Juan la Laguna	4	Abril	2023-04-29T00:00:00	2024-11-08T18:00:00	3	Temperatura mínima	20.2
50948	7	Sololá	717	San Juan la Laguna	12	San Juan la Laguna	4	Abril	2023-04-29T00:00:00	2024-11-08T18:00:00	5	Humedad	80
50949	7	Sololá	717	San Juan la Laguna	12	San Juan la Laguna	4	Abril	2023-04-29T00:00:00	2024-11-08T18:00:00	6	Velocidad del viento	4.8
50950	7	Sololá	717	San Juan la Laguna	12	San Juan la Laguna	4	Abril	2023-04-29T00:00:00	2024-11-08T18:00:00	7	Dirección del viento	4.83
50951	7	Sololá	717	San Juan la Laguna	12	San Juan la Laguna	4	Abril	2023-04-29T00:00:00	2024-11-08T18:00:00	1	Precipitación	0
50952	7	Sololá	717	San Juan la Laguna	12	San Juan la Laguna	4	Abril	2023-04-29T00:00:00	2024-11-08T18:00:00	8	Radiación solar	63
50953	7	Sololá	717	San Juan la Laguna	12	San Juan la Laguna	4	Abril	2023-04-29T00:00:00	2024-11-08T19:00:00	2	Temperatura media	19.9
50954	7	Sololá	717	San Juan la Laguna	12	San Juan la Laguna	4	Abril	2023-04-29T00:00:00	2024-11-08T19:00:00	4	Temperatura máxima	20.2
50955	7	Sololá	717	San Juan la Laguna	12	San Juan la Laguna	4	Abril	2023-04-29T00:00:00	2024-11-08T19:00:00	3	Temperatura mínima	19.9
50956	7	Sololá	717	San Juan la Laguna	12	San Juan la Laguna	4	Abril	2023-04-29T00:00:00	2024-11-08T19:00:00	5	Humedad	81
50957	7	Sololá	717	San Juan la Laguna	12	San Juan la Laguna	4	Abril	2023-04-29T00:00:00	2024-11-08T19:00:00	6	Velocidad del viento	1.6
50958	7	Sololá	717	San Juan la Laguna	12	San Juan la Laguna	4	Abril	2023-04-29T00:00:00	2024-11-08T19:00:00	7	Dirección del viento	1.61
50959	7	Sololá	717	San Juan la Laguna	12	San Juan la Laguna	4	Abril	2023-04-29T00:00:00	2024-11-08T19:00:00	1	Precipitación	0
50960	7	Sololá	717	San Juan la Laguna	12	San Juan la Laguna	4	Abril	2023-04-29T00:00:00	2024-11-08T19:00:00	8	Radiación solar	0
50961	7	Sololá	717	San Juan la Laguna	12	San Juan la Laguna	4	Abril	2023-04-29T00:00:00	2024-11-08T20:00:00	2	Temperatura media	19.6
50962	7	Sololá	717	San Juan la Laguna	12	San Juan la Laguna	4	Abril	2023-04-29T00:00:00	2024-11-08T20:00:00	4	Temperatura máxima	20.1
50963	7	Sololá	717	San Juan la Laguna	12	San Juan la Laguna	4	Abril	2023-04-29T00:00:00	2024-11-08T20:00:00	3	Temperatura mínima	19.6
50964	7	Sololá	717	San Juan la Laguna	12	San Juan la Laguna	4	Abril	2023-04-29T00:00:00	2024-11-08T20:00:00	5	Humedad	83
50965	7	Sololá	717	San Juan la Laguna	12	San Juan la Laguna	4	Abril	2023-04-29T00:00:00	2024-11-08T20:00:00	6	Velocidad del viento	0
50966	7	Sololá	717	San Juan la Laguna	12	San Juan la Laguna	4	Abril	2023-04-29T00:00:00	2024-11-08T20:00:00	7	Dirección del viento	0
50967	7	Sololá	717	San Juan la Laguna	12	San Juan la Laguna	4	Abril	2023-04-29T00:00:00	2024-11-08T20:00:00	1	Precipitación	0
50968	7	Sololá	717	San Juan la Laguna	12	San Juan la Laguna	4	Abril	2023-04-29T00:00:00	2024-11-08T20:00:00	8	Radiación solar	0
50969	7	Sololá	717	San Juan la Laguna	12	San Juan la Laguna	4	Abril	2023-04-29T00:00:00	2024-11-08T21:00:00	2	Temperatura media	18.5
50970	7	Sololá	717	San Juan la Laguna	12	San Juan la Laguna	4	Abril	2023-04-29T00:00:00	2024-11-08T21:00:00	4	Temperatura máxima	19.6
50971	7	Sololá	717	San Juan la Laguna	12	San Juan la Laguna	4	Abril	2023-04-29T00:00:00	2024-11-08T21:00:00	3	Temperatura mínima	18.5
50972	7	Sololá	717	San Juan la Laguna	12	San Juan la Laguna	4	Abril	2023-04-29T00:00:00	2024-11-08T21:00:00	5	Humedad	87
50973	7	Sololá	717	San Juan la Laguna	12	San Juan la Laguna	4	Abril	2023-04-29T00:00:00	2024-11-08T21:00:00	6	Velocidad del viento	0
50974	7	Sololá	717	San Juan la Laguna	12	San Juan la Laguna	4	Abril	2023-04-29T00:00:00	2024-11-08T21:00:00	7	Dirección del viento	0
50975	7	Sololá	717	San Juan la Laguna	12	San Juan la Laguna	4	Abril	2023-04-29T00:00:00	2024-11-08T21:00:00	1	Precipitación	0
50976	7	Sololá	717	San Juan la Laguna	12	San Juan la Laguna	4	Abril	2023-04-29T00:00:00	2024-11-08T21:00:00	8	Radiación solar	0
50977	7	Sololá	717	San Juan la Laguna	12	San Juan la Laguna	4	Abril	2023-04-29T00:00:00	2024-11-08T22:00:00	2	Temperatura media	17.8
50978	7	Sololá	717	San Juan la Laguna	12	San Juan la Laguna	4	Abril	2023-04-29T00:00:00	2024-11-08T22:00:00	4	Temperatura máxima	18.5
50979	7	Sololá	717	San Juan la Laguna	12	San Juan la Laguna	4	Abril	2023-04-29T00:00:00	2024-11-08T22:00:00	3	Temperatura mínima	17.8
50980	7	Sololá	717	San Juan la Laguna	12	San Juan la Laguna	4	Abril	2023-04-29T00:00:00	2024-11-08T22:00:00	5	Humedad	86
50981	7	Sololá	717	San Juan la Laguna	12	San Juan la Laguna	4	Abril	2023-04-29T00:00:00	2024-11-08T22:00:00	6	Velocidad del viento	0
50982	7	Sololá	717	San Juan la Laguna	12	San Juan la Laguna	4	Abril	2023-04-29T00:00:00	2024-11-08T22:00:00	7	Dirección del viento	0
50983	7	Sololá	717	San Juan la Laguna	12	San Juan la Laguna	4	Abril	2023-04-29T00:00:00	2024-11-08T22:00:00	1	Precipitación	0
50984	7	Sololá	717	San Juan la Laguna	12	San Juan la Laguna	4	Abril	2023-04-29T00:00:00	2024-11-08T22:00:00	8	Radiación solar	0
50985	7	Sololá	717	San Juan la Laguna	12	San Juan la Laguna	4	Abril	2023-04-29T00:00:00	2024-11-08T23:00:00	2	Temperatura media	17.3
50986	7	Sololá	717	San Juan la Laguna	12	San Juan la Laguna	4	Abril	2023-04-29T00:00:00	2024-11-08T23:00:00	4	Temperatura máxima	17.8
50987	7	Sololá	717	San Juan la Laguna	12	San Juan la Laguna	4	Abril	2023-04-29T00:00:00	2024-11-08T23:00:00	3	Temperatura mínima	17.2
50988	7	Sololá	717	San Juan la Laguna	12	San Juan la Laguna	4	Abril	2023-04-29T00:00:00	2024-11-08T23:00:00	5	Humedad	86
50989	7	Sololá	717	San Juan la Laguna	12	San Juan la Laguna	4	Abril	2023-04-29T00:00:00	2024-11-08T23:00:00	6	Velocidad del viento	0
50990	7	Sololá	717	San Juan la Laguna	12	San Juan la Laguna	4	Abril	2023-04-29T00:00:00	2024-11-08T23:00:00	7	Dirección del viento	0
50991	7	Sololá	717	San Juan la Laguna	12	San Juan la Laguna	4	Abril	2023-04-29T00:00:00	2024-11-08T23:00:00	1	Precipitación	0
50992	7	Sololá	717	San Juan la Laguna	12	San Juan la Laguna	4	Abril	2023-04-29T00:00:00	2024-11-08T23:00:00	8	Radiación solar	0
50993	7	Sololá	717	San Juan la Laguna	12	San Juan la Laguna	4	Abril	2023-04-30T00:00:00	2024-11-08T00:00:00	2	Temperatura media	16.8
50994	7	Sololá	717	San Juan la Laguna	12	San Juan la Laguna	4	Abril	2023-04-30T00:00:00	2024-11-08T00:00:00	4	Temperatura máxima	17.4
50995	7	Sololá	717	San Juan la Laguna	12	San Juan la Laguna	4	Abril	2023-04-30T00:00:00	2024-11-08T00:00:00	3	Temperatura mínima	16.8
50996	7	Sololá	717	San Juan la Laguna	12	San Juan la Laguna	4	Abril	2023-04-30T00:00:00	2024-11-08T00:00:00	5	Humedad	87
50997	7	Sololá	717	San Juan la Laguna	12	San Juan la Laguna	4	Abril	2023-04-30T00:00:00	2024-11-08T00:00:00	6	Velocidad del viento	0
50998	7	Sololá	717	San Juan la Laguna	12	San Juan la Laguna	4	Abril	2023-04-30T00:00:00	2024-11-08T00:00:00	7	Dirección del viento	0
50999	7	Sololá	717	San Juan la Laguna	12	San Juan la Laguna	4	Abril	2023-04-30T00:00:00	2024-11-08T00:00:00	1	Precipitación	0
51000	7	Sololá	717	San Juan la Laguna	12	San Juan la Laguna	4	Abril	2023-04-30T00:00:00	2024-11-08T00:00:00	8	Radiación solar	0
51001	7	Sololá	717	San Juan la Laguna	12	San Juan la Laguna	4	Abril	2023-04-30T00:00:00	2024-11-08T01:00:00	2	Temperatura media	16.6
51002	7	Sololá	717	San Juan la Laguna	12	San Juan la Laguna	4	Abril	2023-04-30T00:00:00	2024-11-08T01:00:00	4	Temperatura máxima	17.1
51003	7	Sololá	717	San Juan la Laguna	12	San Juan la Laguna	4	Abril	2023-04-30T00:00:00	2024-11-08T01:00:00	3	Temperatura mínima	16.6
51004	7	Sololá	717	San Juan la Laguna	12	San Juan la Laguna	4	Abril	2023-04-30T00:00:00	2024-11-08T01:00:00	5	Humedad	89
51005	7	Sololá	717	San Juan la Laguna	12	San Juan la Laguna	4	Abril	2023-04-30T00:00:00	2024-11-08T01:00:00	6	Velocidad del viento	0
51006	7	Sololá	717	San Juan la Laguna	12	San Juan la Laguna	4	Abril	2023-04-30T00:00:00	2024-11-08T01:00:00	7	Dirección del viento	0
51007	7	Sololá	717	San Juan la Laguna	12	San Juan la Laguna	4	Abril	2023-04-30T00:00:00	2024-11-08T01:00:00	1	Precipitación	0
51008	7	Sololá	717	San Juan la Laguna	12	San Juan la Laguna	4	Abril	2023-04-30T00:00:00	2024-11-08T01:00:00	8	Radiación solar	0
51009	7	Sololá	717	San Juan la Laguna	12	San Juan la Laguna	4	Abril	2023-04-30T00:00:00	2024-11-08T02:00:00	2	Temperatura media	16.3
51010	7	Sololá	717	San Juan la Laguna	12	San Juan la Laguna	4	Abril	2023-04-30T00:00:00	2024-11-08T02:00:00	4	Temperatura máxima	16.6
51011	7	Sololá	717	San Juan la Laguna	12	San Juan la Laguna	4	Abril	2023-04-30T00:00:00	2024-11-08T02:00:00	3	Temperatura mínima	16.2
51012	7	Sololá	717	San Juan la Laguna	12	San Juan la Laguna	4	Abril	2023-04-30T00:00:00	2024-11-08T02:00:00	5	Humedad	89
51013	7	Sololá	717	San Juan la Laguna	12	San Juan la Laguna	4	Abril	2023-04-30T00:00:00	2024-11-08T02:00:00	6	Velocidad del viento	0
51014	7	Sololá	717	San Juan la Laguna	12	San Juan la Laguna	4	Abril	2023-04-30T00:00:00	2024-11-08T02:00:00	7	Dirección del viento	0
51015	7	Sololá	717	San Juan la Laguna	12	San Juan la Laguna	4	Abril	2023-04-30T00:00:00	2024-11-08T02:00:00	1	Precipitación	0
51016	7	Sololá	717	San Juan la Laguna	12	San Juan la Laguna	4	Abril	2023-04-30T00:00:00	2024-11-08T02:00:00	8	Radiación solar	0
51017	7	Sololá	717	San Juan la Laguna	12	San Juan la Laguna	4	Abril	2023-04-30T00:00:00	2024-11-08T03:00:00	2	Temperatura media	17.4
51018	7	Sololá	717	San Juan la Laguna	12	San Juan la Laguna	4	Abril	2023-04-30T00:00:00	2024-11-08T03:00:00	4	Temperatura máxima	17.8
51019	7	Sololá	717	San Juan la Laguna	12	San Juan la Laguna	4	Abril	2023-04-30T00:00:00	2024-11-08T03:00:00	3	Temperatura mínima	16.3
51020	7	Sololá	717	San Juan la Laguna	12	San Juan la Laguna	4	Abril	2023-04-30T00:00:00	2024-11-08T03:00:00	5	Humedad	82
51021	7	Sololá	717	San Juan la Laguna	12	San Juan la Laguna	4	Abril	2023-04-30T00:00:00	2024-11-08T03:00:00	6	Velocidad del viento	1.6
51022	7	Sololá	717	San Juan la Laguna	12	San Juan la Laguna	4	Abril	2023-04-30T00:00:00	2024-11-08T03:00:00	7	Dirección del viento	1.61
51023	7	Sololá	717	San Juan la Laguna	12	San Juan la Laguna	4	Abril	2023-04-30T00:00:00	2024-11-08T03:00:00	1	Precipitación	0
51024	7	Sololá	717	San Juan la Laguna	12	San Juan la Laguna	4	Abril	2023-04-30T00:00:00	2024-11-08T03:00:00	8	Radiación solar	0
51025	7	Sololá	717	San Juan la Laguna	12	San Juan la Laguna	4	Abril	2023-04-30T00:00:00	2024-11-08T04:00:00	2	Temperatura media	16.6
51026	7	Sololá	717	San Juan la Laguna	12	San Juan la Laguna	4	Abril	2023-04-30T00:00:00	2024-11-08T04:00:00	4	Temperatura máxima	17.4
51027	7	Sololá	717	San Juan la Laguna	12	San Juan la Laguna	4	Abril	2023-04-30T00:00:00	2024-11-08T04:00:00	3	Temperatura mínima	16.4
51028	7	Sololá	717	San Juan la Laguna	12	San Juan la Laguna	4	Abril	2023-04-30T00:00:00	2024-11-08T04:00:00	5	Humedad	82
51029	7	Sololá	717	San Juan la Laguna	12	San Juan la Laguna	4	Abril	2023-04-30T00:00:00	2024-11-08T04:00:00	6	Velocidad del viento	3.2
51030	7	Sololá	717	San Juan la Laguna	12	San Juan la Laguna	4	Abril	2023-04-30T00:00:00	2024-11-08T04:00:00	7	Dirección del viento	3.22
51031	7	Sololá	717	San Juan la Laguna	12	San Juan la Laguna	4	Abril	2023-04-30T00:00:00	2024-11-08T04:00:00	1	Precipitación	0
51032	7	Sololá	717	San Juan la Laguna	12	San Juan la Laguna	4	Abril	2023-04-30T00:00:00	2024-11-08T04:00:00	8	Radiación solar	0
51033	7	Sololá	717	San Juan la Laguna	12	San Juan la Laguna	4	Abril	2023-04-30T00:00:00	2024-11-08T05:00:00	2	Temperatura media	16.1
51034	7	Sololá	717	San Juan la Laguna	12	San Juan la Laguna	4	Abril	2023-04-30T00:00:00	2024-11-08T05:00:00	4	Temperatura máxima	16.6
51035	7	Sololá	717	San Juan la Laguna	12	San Juan la Laguna	4	Abril	2023-04-30T00:00:00	2024-11-08T05:00:00	3	Temperatura mínima	15.8
51036	7	Sololá	717	San Juan la Laguna	12	San Juan la Laguna	4	Abril	2023-04-30T00:00:00	2024-11-08T05:00:00	5	Humedad	85
51037	7	Sololá	717	San Juan la Laguna	12	San Juan la Laguna	4	Abril	2023-04-30T00:00:00	2024-11-08T05:00:00	6	Velocidad del viento	3.2
51038	7	Sololá	717	San Juan la Laguna	12	San Juan la Laguna	4	Abril	2023-04-30T00:00:00	2024-11-08T05:00:00	7	Dirección del viento	3.22
51039	7	Sololá	717	San Juan la Laguna	12	San Juan la Laguna	4	Abril	2023-04-30T00:00:00	2024-11-08T05:00:00	1	Precipitación	0
51040	7	Sololá	717	San Juan la Laguna	12	San Juan la Laguna	4	Abril	2023-04-30T00:00:00	2024-11-08T05:00:00	8	Radiación solar	0
51041	7	Sololá	717	San Juan la Laguna	12	San Juan la Laguna	4	Abril	2023-04-30T00:00:00	2024-11-08T06:00:00	2	Temperatura media	16.1
51042	7	Sololá	717	San Juan la Laguna	12	San Juan la Laguna	4	Abril	2023-04-30T00:00:00	2024-11-08T06:00:00	4	Temperatura máxima	16.9
51043	7	Sololá	717	San Juan la Laguna	12	San Juan la Laguna	4	Abril	2023-04-30T00:00:00	2024-11-08T06:00:00	3	Temperatura mínima	15.7
51044	7	Sololá	717	San Juan la Laguna	12	San Juan la Laguna	4	Abril	2023-04-30T00:00:00	2024-11-08T06:00:00	5	Humedad	85
51045	7	Sololá	717	San Juan la Laguna	12	San Juan la Laguna	4	Abril	2023-04-30T00:00:00	2024-11-08T06:00:00	6	Velocidad del viento	1.6
51046	7	Sololá	717	San Juan la Laguna	12	San Juan la Laguna	4	Abril	2023-04-30T00:00:00	2024-11-08T06:00:00	7	Dirección del viento	1.61
51047	7	Sololá	717	San Juan la Laguna	12	San Juan la Laguna	4	Abril	2023-04-30T00:00:00	2024-11-08T06:00:00	1	Precipitación	0
51048	7	Sololá	717	San Juan la Laguna	12	San Juan la Laguna	4	Abril	2023-04-30T00:00:00	2024-11-08T06:00:00	8	Radiación solar	2
51049	7	Sololá	717	San Juan la Laguna	12	San Juan la Laguna	4	Abril	2023-04-30T00:00:00	2024-11-08T07:00:00	2	Temperatura media	18.7
51050	7	Sololá	717	San Juan la Laguna	12	San Juan la Laguna	4	Abril	2023-04-30T00:00:00	2024-11-08T07:00:00	4	Temperatura máxima	18.7
51051	7	Sololá	717	San Juan la Laguna	12	San Juan la Laguna	4	Abril	2023-04-30T00:00:00	2024-11-08T07:00:00	3	Temperatura mínima	16
51052	7	Sololá	717	San Juan la Laguna	12	San Juan la Laguna	4	Abril	2023-04-30T00:00:00	2024-11-08T07:00:00	5	Humedad	79
51053	7	Sololá	717	San Juan la Laguna	12	San Juan la Laguna	4	Abril	2023-04-30T00:00:00	2024-11-08T07:00:00	6	Velocidad del viento	0
51054	7	Sololá	717	San Juan la Laguna	12	San Juan la Laguna	4	Abril	2023-04-30T00:00:00	2024-11-08T07:00:00	7	Dirección del viento	0
51055	7	Sololá	717	San Juan la Laguna	12	San Juan la Laguna	4	Abril	2023-04-30T00:00:00	2024-11-08T07:00:00	1	Precipitación	0
51056	7	Sololá	717	San Juan la Laguna	12	San Juan la Laguna	4	Abril	2023-04-30T00:00:00	2024-11-08T07:00:00	8	Radiación solar	97
51057	7	Sololá	717	San Juan la Laguna	12	San Juan la Laguna	4	Abril	2023-04-30T00:00:00	2024-11-08T08:00:00	2	Temperatura media	21.6
51058	7	Sololá	717	San Juan la Laguna	12	San Juan la Laguna	4	Abril	2023-04-30T00:00:00	2024-11-08T08:00:00	4	Temperatura máxima	21.6
51059	7	Sololá	717	San Juan la Laguna	12	San Juan la Laguna	4	Abril	2023-04-30T00:00:00	2024-11-08T08:00:00	3	Temperatura mínima	18.7
51060	7	Sololá	717	San Juan la Laguna	12	San Juan la Laguna	4	Abril	2023-04-30T00:00:00	2024-11-08T08:00:00	5	Humedad	67
51061	7	Sololá	717	San Juan la Laguna	12	San Juan la Laguna	4	Abril	2023-04-30T00:00:00	2024-11-08T08:00:00	6	Velocidad del viento	0
51062	7	Sololá	717	San Juan la Laguna	12	San Juan la Laguna	4	Abril	2023-04-30T00:00:00	2024-11-08T08:00:00	7	Dirección del viento	0
51063	7	Sololá	717	San Juan la Laguna	12	San Juan la Laguna	4	Abril	2023-04-30T00:00:00	2024-11-08T08:00:00	1	Precipitación	0
51064	7	Sololá	717	San Juan la Laguna	12	San Juan la Laguna	4	Abril	2023-04-30T00:00:00	2024-11-08T08:00:00	8	Radiación solar	295
51065	7	Sololá	717	San Juan la Laguna	12	San Juan la Laguna	4	Abril	2023-04-30T00:00:00	2024-11-08T09:00:00	2	Temperatura media	22.9
51066	7	Sololá	717	San Juan la Laguna	12	San Juan la Laguna	4	Abril	2023-04-30T00:00:00	2024-11-08T09:00:00	4	Temperatura máxima	23.1
51067	7	Sololá	717	San Juan la Laguna	12	San Juan la Laguna	4	Abril	2023-04-30T00:00:00	2024-11-08T09:00:00	3	Temperatura mínima	21.6
51068	7	Sololá	717	San Juan la Laguna	12	San Juan la Laguna	4	Abril	2023-04-30T00:00:00	2024-11-08T09:00:00	5	Humedad	61
51069	7	Sololá	717	San Juan la Laguna	12	San Juan la Laguna	4	Abril	2023-04-30T00:00:00	2024-11-08T09:00:00	6	Velocidad del viento	1.6
51070	7	Sololá	717	San Juan la Laguna	12	San Juan la Laguna	4	Abril	2023-04-30T00:00:00	2024-11-08T09:00:00	7	Dirección del viento	1.61
51071	7	Sololá	717	San Juan la Laguna	12	San Juan la Laguna	4	Abril	2023-04-30T00:00:00	2024-11-08T09:00:00	1	Precipitación	0
51072	7	Sololá	717	San Juan la Laguna	12	San Juan la Laguna	4	Abril	2023-04-30T00:00:00	2024-11-08T09:00:00	8	Radiación solar	539
51073	7	Sololá	717	San Juan la Laguna	12	San Juan la Laguna	4	Abril	2023-04-30T00:00:00	2024-11-08T10:00:00	2	Temperatura media	24.2
51074	7	Sololá	717	San Juan la Laguna	12	San Juan la Laguna	4	Abril	2023-04-30T00:00:00	2024-11-08T10:00:00	4	Temperatura máxima	24.3
51075	7	Sololá	717	San Juan la Laguna	12	San Juan la Laguna	4	Abril	2023-04-30T00:00:00	2024-11-08T10:00:00	3	Temperatura mínima	22.8
51076	7	Sololá	717	San Juan la Laguna	12	San Juan la Laguna	4	Abril	2023-04-30T00:00:00	2024-11-08T10:00:00	5	Humedad	54
51077	7	Sololá	717	San Juan la Laguna	12	San Juan la Laguna	4	Abril	2023-04-30T00:00:00	2024-11-08T10:00:00	6	Velocidad del viento	1.6
51078	7	Sololá	717	San Juan la Laguna	12	San Juan la Laguna	4	Abril	2023-04-30T00:00:00	2024-11-08T10:00:00	7	Dirección del viento	1.61
51079	7	Sololá	717	San Juan la Laguna	12	San Juan la Laguna	4	Abril	2023-04-30T00:00:00	2024-11-08T10:00:00	1	Precipitación	0
51080	7	Sololá	717	San Juan la Laguna	12	San Juan la Laguna	4	Abril	2023-04-30T00:00:00	2024-11-08T10:00:00	8	Radiación solar	666
51081	7	Sololá	717	San Juan la Laguna	12	San Juan la Laguna	4	Abril	2023-04-30T00:00:00	2024-11-08T11:00:00	2	Temperatura media	25.9
51082	7	Sololá	717	San Juan la Laguna	12	San Juan la Laguna	4	Abril	2023-04-30T00:00:00	2024-11-08T11:00:00	4	Temperatura máxima	26.3
51083	7	Sololá	717	San Juan la Laguna	12	San Juan la Laguna	4	Abril	2023-04-30T00:00:00	2024-11-08T11:00:00	3	Temperatura mínima	24.1
51084	7	Sololá	717	San Juan la Laguna	12	San Juan la Laguna	4	Abril	2023-04-30T00:00:00	2024-11-08T11:00:00	5	Humedad	48
51085	7	Sololá	717	San Juan la Laguna	12	San Juan la Laguna	4	Abril	2023-04-30T00:00:00	2024-11-08T11:00:00	6	Velocidad del viento	1.6
51086	7	Sololá	717	San Juan la Laguna	12	San Juan la Laguna	4	Abril	2023-04-30T00:00:00	2024-11-08T11:00:00	7	Dirección del viento	1.61
51087	7	Sololá	717	San Juan la Laguna	12	San Juan la Laguna	4	Abril	2023-04-30T00:00:00	2024-11-08T11:00:00	1	Precipitación	0
51088	7	Sololá	717	San Juan la Laguna	12	San Juan la Laguna	4	Abril	2023-04-30T00:00:00	2024-11-08T11:00:00	8	Radiación solar	784
51089	7	Sololá	717	San Juan la Laguna	12	San Juan la Laguna	4	Abril	2023-04-30T00:00:00	2024-11-08T12:00:00	2	Temperatura media	25.3
51090	7	Sololá	717	San Juan la Laguna	12	San Juan la Laguna	4	Abril	2023-04-30T00:00:00	2024-11-08T12:00:00	4	Temperatura máxima	25.9
51091	7	Sololá	717	San Juan la Laguna	12	San Juan la Laguna	4	Abril	2023-04-30T00:00:00	2024-11-08T12:00:00	3	Temperatura mínima	24.4
51092	7	Sololá	717	San Juan la Laguna	12	San Juan la Laguna	4	Abril	2023-04-30T00:00:00	2024-11-08T12:00:00	5	Humedad	59
51093	7	Sololá	717	San Juan la Laguna	12	San Juan la Laguna	4	Abril	2023-04-30T00:00:00	2024-11-08T12:00:00	6	Velocidad del viento	1.6
51094	7	Sololá	717	San Juan la Laguna	12	San Juan la Laguna	4	Abril	2023-04-30T00:00:00	2024-11-08T12:00:00	7	Dirección del viento	1.61
51095	7	Sololá	717	San Juan la Laguna	12	San Juan la Laguna	4	Abril	2023-04-30T00:00:00	2024-11-08T12:00:00	1	Precipitación	0
51096	7	Sololá	717	San Juan la Laguna	12	San Juan la Laguna	4	Abril	2023-04-30T00:00:00	2024-11-08T12:00:00	8	Radiación solar	923
51097	7	Sololá	717	San Juan la Laguna	12	San Juan la Laguna	4	Abril	2023-04-30T00:00:00	2024-11-08T13:00:00	2	Temperatura media	24.8
51098	7	Sololá	717	San Juan la Laguna	12	San Juan la Laguna	4	Abril	2023-04-30T00:00:00	2024-11-08T13:00:00	4	Temperatura máxima	25.7
51099	7	Sololá	717	San Juan la Laguna	12	San Juan la Laguna	4	Abril	2023-04-30T00:00:00	2024-11-08T13:00:00	3	Temperatura mínima	24.7
51100	7	Sololá	717	San Juan la Laguna	12	San Juan la Laguna	4	Abril	2023-04-30T00:00:00	2024-11-08T13:00:00	5	Humedad	67
51101	7	Sololá	717	San Juan la Laguna	12	San Juan la Laguna	4	Abril	2023-04-30T00:00:00	2024-11-08T13:00:00	6	Velocidad del viento	3.2
51102	7	Sololá	717	San Juan la Laguna	12	San Juan la Laguna	4	Abril	2023-04-30T00:00:00	2024-11-08T13:00:00	7	Dirección del viento	3.22
51103	7	Sololá	717	San Juan la Laguna	12	San Juan la Laguna	4	Abril	2023-04-30T00:00:00	2024-11-08T13:00:00	1	Precipitación	0
51104	7	Sololá	717	San Juan la Laguna	12	San Juan la Laguna	4	Abril	2023-04-30T00:00:00	2024-11-08T13:00:00	8	Radiación solar	947
51105	7	Sololá	717	San Juan la Laguna	12	San Juan la Laguna	4	Abril	2023-04-30T00:00:00	2024-11-08T14:00:00	2	Temperatura media	23.2
51106	7	Sololá	717	San Juan la Laguna	12	San Juan la Laguna	4	Abril	2023-04-30T00:00:00	2024-11-08T14:00:00	4	Temperatura máxima	24.8
51107	7	Sololá	717	San Juan la Laguna	12	San Juan la Laguna	4	Abril	2023-04-30T00:00:00	2024-11-08T14:00:00	3	Temperatura mínima	23.1
51108	7	Sololá	717	San Juan la Laguna	12	San Juan la Laguna	4	Abril	2023-04-30T00:00:00	2024-11-08T14:00:00	5	Humedad	70
51109	7	Sololá	717	San Juan la Laguna	12	San Juan la Laguna	4	Abril	2023-04-30T00:00:00	2024-11-08T14:00:00	6	Velocidad del viento	6.4
51110	7	Sololá	717	San Juan la Laguna	12	San Juan la Laguna	4	Abril	2023-04-30T00:00:00	2024-11-08T14:00:00	7	Dirección del viento	6.44
51111	7	Sololá	717	San Juan la Laguna	12	San Juan la Laguna	4	Abril	2023-04-30T00:00:00	2024-11-08T14:00:00	1	Precipitación	0
51112	7	Sololá	717	San Juan la Laguna	12	San Juan la Laguna	4	Abril	2023-04-30T00:00:00	2024-11-08T14:00:00	8	Radiación solar	814
51113	7	Sololá	717	San Juan la Laguna	12	San Juan la Laguna	4	Abril	2023-04-30T00:00:00	2024-11-08T15:00:00	2	Temperatura media	23
51114	7	Sololá	717	San Juan la Laguna	12	San Juan la Laguna	4	Abril	2023-04-30T00:00:00	2024-11-08T15:00:00	4	Temperatura máxima	23.6
51115	7	Sololá	717	San Juan la Laguna	12	San Juan la Laguna	4	Abril	2023-04-30T00:00:00	2024-11-08T15:00:00	3	Temperatura mínima	22.8
51116	7	Sololá	717	San Juan la Laguna	12	San Juan la Laguna	4	Abril	2023-04-30T00:00:00	2024-11-08T15:00:00	5	Humedad	72
51117	7	Sololá	717	San Juan la Laguna	12	San Juan la Laguna	4	Abril	2023-04-30T00:00:00	2024-11-08T15:00:00	6	Velocidad del viento	8
51118	7	Sololá	717	San Juan la Laguna	12	San Juan la Laguna	4	Abril	2023-04-30T00:00:00	2024-11-08T15:00:00	7	Dirección del viento	8.05
51119	7	Sololá	717	San Juan la Laguna	12	San Juan la Laguna	4	Abril	2023-04-30T00:00:00	2024-11-08T15:00:00	1	Precipitación	0
51120	7	Sololá	717	San Juan la Laguna	12	San Juan la Laguna	4	Abril	2023-04-30T00:00:00	2024-11-08T15:00:00	8	Radiación solar	740
51121	7	Sololá	717	San Juan la Laguna	12	San Juan la Laguna	4	Abril	2023-04-30T00:00:00	2024-11-08T16:00:00	2	Temperatura media	22.4
51122	7	Sololá	717	San Juan la Laguna	12	San Juan la Laguna	4	Abril	2023-04-30T00:00:00	2024-11-08T16:00:00	4	Temperatura máxima	23.4
51123	7	Sololá	717	San Juan la Laguna	12	San Juan la Laguna	4	Abril	2023-04-30T00:00:00	2024-11-08T16:00:00	3	Temperatura mínima	22.4
51124	7	Sololá	717	San Juan la Laguna	12	San Juan la Laguna	4	Abril	2023-04-30T00:00:00	2024-11-08T16:00:00	5	Humedad	72
51125	7	Sololá	717	San Juan la Laguna	12	San Juan la Laguna	4	Abril	2023-04-30T00:00:00	2024-11-08T16:00:00	6	Velocidad del viento	6.4
51126	7	Sololá	717	San Juan la Laguna	12	San Juan la Laguna	4	Abril	2023-04-30T00:00:00	2024-11-08T16:00:00	7	Dirección del viento	6.44
51127	7	Sololá	717	San Juan la Laguna	12	San Juan la Laguna	4	Abril	2023-04-30T00:00:00	2024-11-08T16:00:00	1	Precipitación	0
51128	7	Sololá	717	San Juan la Laguna	12	San Juan la Laguna	4	Abril	2023-04-30T00:00:00	2024-11-08T16:00:00	8	Radiación solar	479
51129	7	Sololá	717	San Juan la Laguna	12	San Juan la Laguna	4	Abril	2023-04-30T00:00:00	2024-11-08T17:00:00	2	Temperatura media	21.7
51130	7	Sololá	717	San Juan la Laguna	12	San Juan la Laguna	4	Abril	2023-04-30T00:00:00	2024-11-08T17:00:00	4	Temperatura máxima	22.4
51131	7	Sololá	717	San Juan la Laguna	12	San Juan la Laguna	4	Abril	2023-04-30T00:00:00	2024-11-08T17:00:00	3	Temperatura mínima	21.7
51132	7	Sololá	717	San Juan la Laguna	12	San Juan la Laguna	4	Abril	2023-04-30T00:00:00	2024-11-08T17:00:00	5	Humedad	75
51133	7	Sololá	717	San Juan la Laguna	12	San Juan la Laguna	4	Abril	2023-04-30T00:00:00	2024-11-08T17:00:00	6	Velocidad del viento	4.8
51134	7	Sololá	717	San Juan la Laguna	12	San Juan la Laguna	4	Abril	2023-04-30T00:00:00	2024-11-08T17:00:00	7	Dirección del viento	4.83
51135	7	Sololá	717	San Juan la Laguna	12	San Juan la Laguna	4	Abril	2023-04-30T00:00:00	2024-11-08T17:00:00	1	Precipitación	0
51136	7	Sololá	717	San Juan la Laguna	12	San Juan la Laguna	4	Abril	2023-04-30T00:00:00	2024-11-08T17:00:00	8	Radiación solar	180
51137	7	Sololá	717	San Juan la Laguna	12	San Juan la Laguna	4	Abril	2023-04-30T00:00:00	2024-11-08T18:00:00	2	Temperatura media	20.9
51138	7	Sololá	717	San Juan la Laguna	12	San Juan la Laguna	4	Abril	2023-04-30T00:00:00	2024-11-08T18:00:00	4	Temperatura máxima	21.7
51139	7	Sololá	717	San Juan la Laguna	12	San Juan la Laguna	4	Abril	2023-04-30T00:00:00	2024-11-08T18:00:00	3	Temperatura mínima	20.9
51140	7	Sololá	717	San Juan la Laguna	12	San Juan la Laguna	4	Abril	2023-04-30T00:00:00	2024-11-08T18:00:00	5	Humedad	78
51141	7	Sololá	717	San Juan la Laguna	12	San Juan la Laguna	4	Abril	2023-04-30T00:00:00	2024-11-08T18:00:00	6	Velocidad del viento	4.8
51142	7	Sololá	717	San Juan la Laguna	12	San Juan la Laguna	4	Abril	2023-04-30T00:00:00	2024-11-08T18:00:00	7	Dirección del viento	4.83
51143	7	Sololá	717	San Juan la Laguna	12	San Juan la Laguna	4	Abril	2023-04-30T00:00:00	2024-11-08T18:00:00	1	Precipitación	0
51144	7	Sololá	717	San Juan la Laguna	12	San Juan la Laguna	4	Abril	2023-04-30T00:00:00	2024-11-08T18:00:00	8	Radiación solar	39
51145	7	Sololá	717	San Juan la Laguna	12	San Juan la Laguna	4	Abril	2023-04-30T00:00:00	2024-11-08T19:00:00	2	Temperatura media	19.6
51146	7	Sololá	717	San Juan la Laguna	12	San Juan la Laguna	4	Abril	2023-04-30T00:00:00	2024-11-08T19:00:00	4	Temperatura máxima	20.9
51147	7	Sololá	717	San Juan la Laguna	12	San Juan la Laguna	4	Abril	2023-04-30T00:00:00	2024-11-08T19:00:00	3	Temperatura mínima	19.5
51148	7	Sololá	717	San Juan la Laguna	12	San Juan la Laguna	4	Abril	2023-04-30T00:00:00	2024-11-08T19:00:00	5	Humedad	83
51149	7	Sololá	717	San Juan la Laguna	12	San Juan la Laguna	4	Abril	2023-04-30T00:00:00	2024-11-08T19:00:00	6	Velocidad del viento	0
51150	7	Sololá	717	San Juan la Laguna	12	San Juan la Laguna	4	Abril	2023-04-30T00:00:00	2024-11-08T19:00:00	7	Dirección del viento	0
51151	7	Sololá	717	San Juan la Laguna	12	San Juan la Laguna	4	Abril	2023-04-30T00:00:00	2024-11-08T19:00:00	1	Precipitación	0
51152	7	Sololá	717	San Juan la Laguna	12	San Juan la Laguna	4	Abril	2023-04-30T00:00:00	2024-11-08T19:00:00	8	Radiación solar	0
51153	7	Sololá	717	San Juan la Laguna	12	San Juan la Laguna	4	Abril	2023-04-30T00:00:00	2024-11-08T20:00:00	2	Temperatura media	18.8
51154	7	Sololá	717	San Juan la Laguna	12	San Juan la Laguna	4	Abril	2023-04-30T00:00:00	2024-11-08T20:00:00	4	Temperatura máxima	19.6
51155	7	Sololá	717	San Juan la Laguna	12	San Juan la Laguna	4	Abril	2023-04-30T00:00:00	2024-11-08T20:00:00	3	Temperatura mínima	18.8
51156	7	Sololá	717	San Juan la Laguna	12	San Juan la Laguna	4	Abril	2023-04-30T00:00:00	2024-11-08T20:00:00	5	Humedad	86
51157	7	Sololá	717	San Juan la Laguna	12	San Juan la Laguna	4	Abril	2023-04-30T00:00:00	2024-11-08T20:00:00	6	Velocidad del viento	0
51158	7	Sololá	717	San Juan la Laguna	12	San Juan la Laguna	4	Abril	2023-04-30T00:00:00	2024-11-08T20:00:00	7	Dirección del viento	0
51159	7	Sololá	717	San Juan la Laguna	12	San Juan la Laguna	4	Abril	2023-04-30T00:00:00	2024-11-08T20:00:00	1	Precipitación	0
51160	7	Sololá	717	San Juan la Laguna	12	San Juan la Laguna	4	Abril	2023-04-30T00:00:00	2024-11-08T20:00:00	8	Radiación solar	0
51161	7	Sololá	717	San Juan la Laguna	12	San Juan la Laguna	4	Abril	2023-04-30T00:00:00	2024-11-08T21:00:00	2	Temperatura media	19.3
51162	7	Sololá	717	San Juan la Laguna	12	San Juan la Laguna	4	Abril	2023-04-30T00:00:00	2024-11-08T21:00:00	4	Temperatura máxima	19.3
51163	7	Sololá	717	San Juan la Laguna	12	San Juan la Laguna	4	Abril	2023-04-30T00:00:00	2024-11-08T21:00:00	3	Temperatura mínima	18.5
51164	7	Sololá	717	San Juan la Laguna	12	San Juan la Laguna	4	Abril	2023-04-30T00:00:00	2024-11-08T21:00:00	5	Humedad	81
51165	7	Sololá	717	San Juan la Laguna	12	San Juan la Laguna	4	Abril	2023-04-30T00:00:00	2024-11-08T21:00:00	6	Velocidad del viento	0
51166	7	Sololá	717	San Juan la Laguna	12	San Juan la Laguna	4	Abril	2023-04-30T00:00:00	2024-11-08T21:00:00	7	Dirección del viento	0
51167	7	Sololá	717	San Juan la Laguna	12	San Juan la Laguna	4	Abril	2023-04-30T00:00:00	2024-11-08T21:00:00	1	Precipitación	0
51168	7	Sololá	717	San Juan la Laguna	12	San Juan la Laguna	4	Abril	2023-04-30T00:00:00	2024-11-08T21:00:00	8	Radiación solar	0
51169	7	Sololá	717	San Juan la Laguna	12	San Juan la Laguna	4	Abril	2023-04-30T00:00:00	2024-11-08T22:00:00	2	Temperatura media	18.7
51170	7	Sololá	717	San Juan la Laguna	12	San Juan la Laguna	4	Abril	2023-04-30T00:00:00	2024-11-08T22:00:00	4	Temperatura máxima	19.4
51171	7	Sololá	717	San Juan la Laguna	12	San Juan la Laguna	4	Abril	2023-04-30T00:00:00	2024-11-08T22:00:00	3	Temperatura mínima	18.7
51172	7	Sololá	717	San Juan la Laguna	12	San Juan la Laguna	4	Abril	2023-04-30T00:00:00	2024-11-08T22:00:00	5	Humedad	80
51173	7	Sololá	717	San Juan la Laguna	12	San Juan la Laguna	4	Abril	2023-04-30T00:00:00	2024-11-08T22:00:00	6	Velocidad del viento	0
51174	7	Sololá	717	San Juan la Laguna	12	San Juan la Laguna	4	Abril	2023-04-30T00:00:00	2024-11-08T22:00:00	7	Dirección del viento	0
51175	7	Sololá	717	San Juan la Laguna	12	San Juan la Laguna	4	Abril	2023-04-30T00:00:00	2024-11-08T22:00:00	1	Precipitación	0
51176	7	Sololá	717	San Juan la Laguna	12	San Juan la Laguna	4	Abril	2023-04-30T00:00:00	2024-11-08T22:00:00	8	Radiación solar	0
51177	7	Sololá	717	San Juan la Laguna	12	San Juan la Laguna	4	Abril	2023-04-30T00:00:00	2024-11-08T23:00:00	2	Temperatura media	18.2
51178	7	Sololá	717	San Juan la Laguna	12	San Juan la Laguna	4	Abril	2023-04-30T00:00:00	2024-11-08T23:00:00	4	Temperatura máxima	18.7
51179	7	Sololá	717	San Juan la Laguna	12	San Juan la Laguna	4	Abril	2023-04-30T00:00:00	2024-11-08T23:00:00	3	Temperatura mínima	18.1
51180	7	Sololá	717	San Juan la Laguna	12	San Juan la Laguna	4	Abril	2023-04-30T00:00:00	2024-11-08T23:00:00	5	Humedad	79
51181	7	Sololá	717	San Juan la Laguna	12	San Juan la Laguna	4	Abril	2023-04-30T00:00:00	2024-11-08T23:00:00	6	Velocidad del viento	0
51182	7	Sololá	717	San Juan la Laguna	12	San Juan la Laguna	4	Abril	2023-04-30T00:00:00	2024-11-08T23:00:00	7	Dirección del viento	0
51183	7	Sololá	717	San Juan la Laguna	12	San Juan la Laguna	4	Abril	2023-04-30T00:00:00	2024-11-08T23:00:00	1	Precipitación	0
51184	7	Sololá	717	San Juan la Laguna	12	San Juan la Laguna	4	Abril	2023-04-30T00:00:00	2024-11-08T23:00:00	8	Radiación solar	0
51185	7	Sololá	717	San Juan la Laguna	12	San Juan la Laguna	5	Mayo	2023-01-05T00:00:00	2024-11-08T00:00:00	2	Temperatura media	19.5
51186	7	Sololá	717	San Juan la Laguna	12	San Juan la Laguna	5	Mayo	2023-01-05T00:00:00	2024-11-08T00:00:00	4	Temperatura máxima	19.7
51187	7	Sololá	717	San Juan la Laguna	12	San Juan la Laguna	5	Mayo	2023-01-05T00:00:00	2024-11-08T00:00:00	3	Temperatura mínima	18
51188	7	Sololá	717	San Juan la Laguna	12	San Juan la Laguna	5	Mayo	2023-01-05T00:00:00	2024-11-08T00:00:00	5	Humedad	72
51189	7	Sololá	717	San Juan la Laguna	12	San Juan la Laguna	5	Mayo	2023-01-05T00:00:00	2024-11-08T00:00:00	6	Velocidad del viento	0
51190	7	Sololá	717	San Juan la Laguna	12	San Juan la Laguna	5	Mayo	2023-01-05T00:00:00	2024-11-08T00:00:00	7	Dirección del viento	0
51191	7	Sololá	717	San Juan la Laguna	12	San Juan la Laguna	5	Mayo	2023-01-05T00:00:00	2024-11-08T00:00:00	1	Precipitación	0
51192	7	Sololá	717	San Juan la Laguna	12	San Juan la Laguna	5	Mayo	2023-01-05T00:00:00	2024-11-08T00:00:00	8	Radiación solar	0
51193	7	Sololá	717	San Juan la Laguna	12	San Juan la Laguna	5	Mayo	2023-01-05T00:00:00	2024-11-08T01:00:00	2	Temperatura media	17.8
51194	7	Sololá	717	San Juan la Laguna	12	San Juan la Laguna	5	Mayo	2023-01-05T00:00:00	2024-11-08T01:00:00	4	Temperatura máxima	19.7
51195	7	Sololá	717	San Juan la Laguna	12	San Juan la Laguna	5	Mayo	2023-01-05T00:00:00	2024-11-08T01:00:00	3	Temperatura mínima	17.8
51196	7	Sololá	717	San Juan la Laguna	12	San Juan la Laguna	5	Mayo	2023-01-05T00:00:00	2024-11-08T01:00:00	5	Humedad	76
51197	7	Sololá	717	San Juan la Laguna	12	San Juan la Laguna	5	Mayo	2023-01-05T00:00:00	2024-11-08T01:00:00	6	Velocidad del viento	0
51198	7	Sololá	717	San Juan la Laguna	12	San Juan la Laguna	5	Mayo	2023-01-05T00:00:00	2024-11-08T01:00:00	7	Dirección del viento	0
51199	7	Sololá	717	San Juan la Laguna	12	San Juan la Laguna	5	Mayo	2023-01-05T00:00:00	2024-11-08T01:00:00	1	Precipitación	0
51200	7	Sololá	717	San Juan la Laguna	12	San Juan la Laguna	5	Mayo	2023-01-05T00:00:00	2024-11-08T01:00:00	8	Radiación solar	0
51201	7	Sololá	717	San Juan la Laguna	12	San Juan la Laguna	5	Mayo	2023-01-05T00:00:00	2024-11-08T02:00:00	2	Temperatura media	16.8
51202	7	Sololá	717	San Juan la Laguna	12	San Juan la Laguna	5	Mayo	2023-01-05T00:00:00	2024-11-08T02:00:00	4	Temperatura máxima	17.8
51203	7	Sololá	717	San Juan la Laguna	12	San Juan la Laguna	5	Mayo	2023-01-05T00:00:00	2024-11-08T02:00:00	3	Temperatura mínima	16.8
51204	7	Sololá	717	San Juan la Laguna	12	San Juan la Laguna	5	Mayo	2023-01-05T00:00:00	2024-11-08T02:00:00	5	Humedad	79
51205	7	Sololá	717	San Juan la Laguna	12	San Juan la Laguna	5	Mayo	2023-01-05T00:00:00	2024-11-08T02:00:00	6	Velocidad del viento	1.6
51206	7	Sololá	717	San Juan la Laguna	12	San Juan la Laguna	5	Mayo	2023-01-05T00:00:00	2024-11-08T02:00:00	7	Dirección del viento	1.61
51207	7	Sololá	717	San Juan la Laguna	12	San Juan la Laguna	5	Mayo	2023-01-05T00:00:00	2024-11-08T02:00:00	1	Precipitación	0
51208	7	Sololá	717	San Juan la Laguna	12	San Juan la Laguna	5	Mayo	2023-01-05T00:00:00	2024-11-08T02:00:00	8	Radiación solar	0
51209	7	Sololá	717	San Juan la Laguna	12	San Juan la Laguna	5	Mayo	2023-01-05T00:00:00	2024-11-08T03:00:00	2	Temperatura media	16.2
51210	7	Sololá	717	San Juan la Laguna	12	San Juan la Laguna	5	Mayo	2023-01-05T00:00:00	2024-11-08T03:00:00	4	Temperatura máxima	16.8
51211	7	Sololá	717	San Juan la Laguna	12	San Juan la Laguna	5	Mayo	2023-01-05T00:00:00	2024-11-08T03:00:00	3	Temperatura mínima	16
51212	7	Sololá	717	San Juan la Laguna	12	San Juan la Laguna	5	Mayo	2023-01-05T00:00:00	2024-11-08T03:00:00	5	Humedad	80
51213	7	Sololá	717	San Juan la Laguna	12	San Juan la Laguna	5	Mayo	2023-01-05T00:00:00	2024-11-08T03:00:00	6	Velocidad del viento	1.6
51214	7	Sololá	717	San Juan la Laguna	12	San Juan la Laguna	5	Mayo	2023-01-05T00:00:00	2024-11-08T03:00:00	7	Dirección del viento	1.61
51215	7	Sololá	717	San Juan la Laguna	12	San Juan la Laguna	5	Mayo	2023-01-05T00:00:00	2024-11-08T03:00:00	1	Precipitación	0
51216	7	Sololá	717	San Juan la Laguna	12	San Juan la Laguna	5	Mayo	2023-01-05T00:00:00	2024-11-08T03:00:00	8	Radiación solar	0
51217	7	Sololá	717	San Juan la Laguna	12	San Juan la Laguna	5	Mayo	2023-01-05T00:00:00	2024-11-08T04:00:00	2	Temperatura media	15.5
51218	7	Sololá	717	San Juan la Laguna	12	San Juan la Laguna	5	Mayo	2023-01-05T00:00:00	2024-11-08T04:00:00	4	Temperatura máxima	16.3
51219	7	Sololá	717	San Juan la Laguna	12	San Juan la Laguna	5	Mayo	2023-01-05T00:00:00	2024-11-08T04:00:00	3	Temperatura mínima	15.5
51220	7	Sololá	717	San Juan la Laguna	12	San Juan la Laguna	5	Mayo	2023-01-05T00:00:00	2024-11-08T04:00:00	5	Humedad	82
51221	7	Sololá	717	San Juan la Laguna	12	San Juan la Laguna	5	Mayo	2023-01-05T00:00:00	2024-11-08T04:00:00	6	Velocidad del viento	0
51222	7	Sololá	717	San Juan la Laguna	12	San Juan la Laguna	5	Mayo	2023-01-05T00:00:00	2024-11-08T04:00:00	7	Dirección del viento	0
51223	7	Sololá	717	San Juan la Laguna	12	San Juan la Laguna	5	Mayo	2023-01-05T00:00:00	2024-11-08T04:00:00	1	Precipitación	0
51224	7	Sololá	717	San Juan la Laguna	12	San Juan la Laguna	5	Mayo	2023-01-05T00:00:00	2024-11-08T04:00:00	8	Radiación solar	0
51225	7	Sololá	717	San Juan la Laguna	12	San Juan la Laguna	5	Mayo	2023-01-05T00:00:00	2024-11-08T05:00:00	2	Temperatura media	15.4
51226	7	Sololá	717	San Juan la Laguna	12	San Juan la Laguna	5	Mayo	2023-01-05T00:00:00	2024-11-08T05:00:00	4	Temperatura máxima	15.6
51227	7	Sololá	717	San Juan la Laguna	12	San Juan la Laguna	5	Mayo	2023-01-05T00:00:00	2024-11-08T05:00:00	3	Temperatura mínima	15.4
51228	7	Sololá	717	San Juan la Laguna	12	San Juan la Laguna	5	Mayo	2023-01-05T00:00:00	2024-11-08T05:00:00	5	Humedad	82
51229	7	Sololá	717	San Juan la Laguna	12	San Juan la Laguna	5	Mayo	2023-01-05T00:00:00	2024-11-08T05:00:00	6	Velocidad del viento	1.6
51230	7	Sololá	717	San Juan la Laguna	12	San Juan la Laguna	5	Mayo	2023-01-05T00:00:00	2024-11-08T05:00:00	7	Dirección del viento	1.61
51231	7	Sololá	717	San Juan la Laguna	12	San Juan la Laguna	5	Mayo	2023-01-05T00:00:00	2024-11-08T05:00:00	1	Precipitación	0
51232	7	Sololá	717	San Juan la Laguna	12	San Juan la Laguna	5	Mayo	2023-01-05T00:00:00	2024-11-08T05:00:00	8	Radiación solar	0
51233	7	Sololá	717	San Juan la Laguna	12	San Juan la Laguna	5	Mayo	2023-01-05T00:00:00	2024-11-08T06:00:00	2	Temperatura media	14.9
51234	7	Sololá	717	San Juan la Laguna	12	San Juan la Laguna	5	Mayo	2023-01-05T00:00:00	2024-11-08T06:00:00	4	Temperatura máxima	15.4
51235	7	Sololá	717	San Juan la Laguna	12	San Juan la Laguna	5	Mayo	2023-01-05T00:00:00	2024-11-08T06:00:00	3	Temperatura mínima	14.9
51236	7	Sololá	717	San Juan la Laguna	12	San Juan la Laguna	5	Mayo	2023-01-05T00:00:00	2024-11-08T06:00:00	5	Humedad	84
51237	7	Sololá	717	San Juan la Laguna	12	San Juan la Laguna	5	Mayo	2023-01-05T00:00:00	2024-11-08T06:00:00	6	Velocidad del viento	0
51238	7	Sololá	717	San Juan la Laguna	12	San Juan la Laguna	5	Mayo	2023-01-05T00:00:00	2024-11-08T06:00:00	7	Dirección del viento	0
51239	7	Sololá	717	San Juan la Laguna	12	San Juan la Laguna	5	Mayo	2023-01-05T00:00:00	2024-11-08T06:00:00	1	Precipitación	0
51240	7	Sololá	717	San Juan la Laguna	12	San Juan la Laguna	5	Mayo	2023-01-05T00:00:00	2024-11-08T06:00:00	8	Radiación solar	2
51241	7	Sololá	717	San Juan la Laguna	12	San Juan la Laguna	5	Mayo	2023-01-05T00:00:00	2024-11-08T07:00:00	2	Temperatura media	17.4
51242	7	Sololá	717	San Juan la Laguna	12	San Juan la Laguna	5	Mayo	2023-01-05T00:00:00	2024-11-08T07:00:00	4	Temperatura máxima	17.4
51243	7	Sololá	717	San Juan la Laguna	12	San Juan la Laguna	5	Mayo	2023-01-05T00:00:00	2024-11-08T07:00:00	3	Temperatura mínima	14.9
51244	7	Sololá	717	San Juan la Laguna	12	San Juan la Laguna	5	Mayo	2023-01-05T00:00:00	2024-11-08T07:00:00	5	Humedad	79
51245	7	Sololá	717	San Juan la Laguna	12	San Juan la Laguna	5	Mayo	2023-01-05T00:00:00	2024-11-08T07:00:00	6	Velocidad del viento	0
51246	7	Sololá	717	San Juan la Laguna	12	San Juan la Laguna	5	Mayo	2023-01-05T00:00:00	2024-11-08T07:00:00	7	Dirección del viento	0
51247	7	Sololá	717	San Juan la Laguna	12	San Juan la Laguna	5	Mayo	2023-01-05T00:00:00	2024-11-08T07:00:00	1	Precipitación	0
51248	7	Sololá	717	San Juan la Laguna	12	San Juan la Laguna	5	Mayo	2023-01-05T00:00:00	2024-11-08T07:00:00	8	Radiación solar	93
51249	7	Sololá	717	San Juan la Laguna	12	San Juan la Laguna	5	Mayo	2023-01-05T00:00:00	2024-11-08T08:00:00	2	Temperatura media	20.7
51250	7	Sololá	717	San Juan la Laguna	12	San Juan la Laguna	5	Mayo	2023-01-05T00:00:00	2024-11-08T08:00:00	4	Temperatura máxima	20.7
51251	7	Sololá	717	San Juan la Laguna	12	San Juan la Laguna	5	Mayo	2023-01-05T00:00:00	2024-11-08T08:00:00	3	Temperatura mínima	17.4
51252	7	Sololá	717	San Juan la Laguna	12	San Juan la Laguna	5	Mayo	2023-01-05T00:00:00	2024-11-08T08:00:00	5	Humedad	70
51253	7	Sololá	717	San Juan la Laguna	12	San Juan la Laguna	5	Mayo	2023-01-05T00:00:00	2024-11-08T08:00:00	6	Velocidad del viento	0
51254	7	Sololá	717	San Juan la Laguna	12	San Juan la Laguna	5	Mayo	2023-01-05T00:00:00	2024-11-08T08:00:00	7	Dirección del viento	0
51255	7	Sololá	717	San Juan la Laguna	12	San Juan la Laguna	5	Mayo	2023-01-05T00:00:00	2024-11-08T08:00:00	1	Precipitación	0
51256	7	Sololá	717	San Juan la Laguna	12	San Juan la Laguna	5	Mayo	2023-01-05T00:00:00	2024-11-08T08:00:00	8	Radiación solar	295
51257	7	Sololá	717	San Juan la Laguna	12	San Juan la Laguna	5	Mayo	2023-01-05T00:00:00	2024-11-08T09:00:00	2	Temperatura media	21.8
51258	7	Sololá	717	San Juan la Laguna	12	San Juan la Laguna	5	Mayo	2023-01-05T00:00:00	2024-11-08T09:00:00	4	Temperatura máxima	21.9
51259	7	Sololá	717	San Juan la Laguna	12	San Juan la Laguna	5	Mayo	2023-01-05T00:00:00	2024-11-08T09:00:00	3	Temperatura mínima	20.5
51260	7	Sololá	717	San Juan la Laguna	12	San Juan la Laguna	5	Mayo	2023-01-05T00:00:00	2024-11-08T09:00:00	5	Humedad	68
51261	7	Sololá	717	San Juan la Laguna	12	San Juan la Laguna	5	Mayo	2023-01-05T00:00:00	2024-11-08T09:00:00	6	Velocidad del viento	1.6
51262	7	Sololá	717	San Juan la Laguna	12	San Juan la Laguna	5	Mayo	2023-01-05T00:00:00	2024-11-08T09:00:00	7	Dirección del viento	1.61
51263	7	Sololá	717	San Juan la Laguna	12	San Juan la Laguna	5	Mayo	2023-01-05T00:00:00	2024-11-08T09:00:00	1	Precipitación	0
51264	7	Sololá	717	San Juan la Laguna	12	San Juan la Laguna	5	Mayo	2023-01-05T00:00:00	2024-11-08T09:00:00	8	Radiación solar	521
51265	7	Sololá	717	San Juan la Laguna	12	San Juan la Laguna	5	Mayo	2023-01-05T00:00:00	2024-11-08T10:00:00	2	Temperatura media	22.9
51266	7	Sololá	717	San Juan la Laguna	12	San Juan la Laguna	5	Mayo	2023-01-05T00:00:00	2024-11-08T10:00:00	4	Temperatura máxima	22.9
51267	7	Sololá	717	San Juan la Laguna	12	San Juan la Laguna	5	Mayo	2023-01-05T00:00:00	2024-11-08T10:00:00	3	Temperatura mínima	21.8
51268	7	Sololá	717	San Juan la Laguna	12	San Juan la Laguna	5	Mayo	2023-01-05T00:00:00	2024-11-08T10:00:00	5	Humedad	62
51269	7	Sololá	717	San Juan la Laguna	12	San Juan la Laguna	5	Mayo	2023-01-05T00:00:00	2024-11-08T10:00:00	6	Velocidad del viento	1.6
51270	7	Sololá	717	San Juan la Laguna	12	San Juan la Laguna	5	Mayo	2023-01-05T00:00:00	2024-11-08T10:00:00	7	Dirección del viento	1.61
51271	7	Sololá	717	San Juan la Laguna	12	San Juan la Laguna	5	Mayo	2023-01-05T00:00:00	2024-11-08T10:00:00	1	Precipitación	0
51272	7	Sololá	717	San Juan la Laguna	12	San Juan la Laguna	5	Mayo	2023-01-05T00:00:00	2024-11-08T10:00:00	8	Radiación solar	722
51273	7	Sololá	717	San Juan la Laguna	12	San Juan la Laguna	5	Mayo	2023-01-05T00:00:00	2024-11-08T11:00:00	2	Temperatura media	23.8
51274	7	Sololá	717	San Juan la Laguna	12	San Juan la Laguna	5	Mayo	2023-01-05T00:00:00	2024-11-08T11:00:00	4	Temperatura máxima	24
51275	7	Sololá	717	San Juan la Laguna	12	San Juan la Laguna	5	Mayo	2023-01-05T00:00:00	2024-11-08T11:00:00	3	Temperatura mínima	22.6
51276	7	Sololá	717	San Juan la Laguna	12	San Juan la Laguna	5	Mayo	2023-01-05T00:00:00	2024-11-08T11:00:00	5	Humedad	62
51277	7	Sololá	717	San Juan la Laguna	12	San Juan la Laguna	5	Mayo	2023-01-05T00:00:00	2024-11-08T11:00:00	6	Velocidad del viento	1.6
51278	7	Sololá	717	San Juan la Laguna	12	San Juan la Laguna	5	Mayo	2023-01-05T00:00:00	2024-11-08T11:00:00	7	Dirección del viento	1.61
51279	7	Sololá	717	San Juan la Laguna	12	San Juan la Laguna	5	Mayo	2023-01-05T00:00:00	2024-11-08T11:00:00	1	Precipitación	0
51280	7	Sololá	717	San Juan la Laguna	12	San Juan la Laguna	5	Mayo	2023-01-05T00:00:00	2024-11-08T11:00:00	8	Radiación solar	855
51281	7	Sololá	717	San Juan la Laguna	12	San Juan la Laguna	5	Mayo	2023-01-05T00:00:00	2024-11-08T12:00:00	2	Temperatura media	24.8
51282	7	Sololá	717	San Juan la Laguna	12	San Juan la Laguna	5	Mayo	2023-01-05T00:00:00	2024-11-08T12:00:00	4	Temperatura máxima	25.3
51283	7	Sololá	717	San Juan la Laguna	12	San Juan la Laguna	5	Mayo	2023-01-05T00:00:00	2024-11-08T12:00:00	3	Temperatura mínima	23.8
51284	7	Sololá	717	San Juan la Laguna	12	San Juan la Laguna	5	Mayo	2023-01-05T00:00:00	2024-11-08T12:00:00	5	Humedad	63
51285	7	Sololá	717	San Juan la Laguna	12	San Juan la Laguna	5	Mayo	2023-01-05T00:00:00	2024-11-08T12:00:00	6	Velocidad del viento	3.2
51286	7	Sololá	717	San Juan la Laguna	12	San Juan la Laguna	5	Mayo	2023-01-05T00:00:00	2024-11-08T12:00:00	7	Dirección del viento	3.22
51287	7	Sololá	717	San Juan la Laguna	12	San Juan la Laguna	5	Mayo	2023-01-05T00:00:00	2024-11-08T12:00:00	1	Precipitación	0
51288	7	Sololá	717	San Juan la Laguna	12	San Juan la Laguna	5	Mayo	2023-01-05T00:00:00	2024-11-08T12:00:00	8	Radiación solar	911
51289	7	Sololá	717	San Juan la Laguna	12	San Juan la Laguna	5	Mayo	2023-01-05T00:00:00	2024-11-08T13:00:00	2	Temperatura media	24.8
51290	7	Sololá	717	San Juan la Laguna	12	San Juan la Laguna	5	Mayo	2023-01-05T00:00:00	2024-11-08T13:00:00	4	Temperatura máxima	24.8
51291	7	Sololá	717	San Juan la Laguna	12	San Juan la Laguna	5	Mayo	2023-01-05T00:00:00	2024-11-08T13:00:00	3	Temperatura mínima	24.1
51292	7	Sololá	717	San Juan la Laguna	12	San Juan la Laguna	5	Mayo	2023-01-05T00:00:00	2024-11-08T13:00:00	5	Humedad	66
51293	7	Sololá	717	San Juan la Laguna	12	San Juan la Laguna	5	Mayo	2023-01-05T00:00:00	2024-11-08T13:00:00	6	Velocidad del viento	8
51294	7	Sololá	717	San Juan la Laguna	12	San Juan la Laguna	5	Mayo	2023-01-05T00:00:00	2024-11-08T13:00:00	7	Dirección del viento	8.05
51295	7	Sololá	717	San Juan la Laguna	12	San Juan la Laguna	5	Mayo	2023-01-05T00:00:00	2024-11-08T13:00:00	1	Precipitación	0
51296	7	Sololá	717	San Juan la Laguna	12	San Juan la Laguna	5	Mayo	2023-01-05T00:00:00	2024-11-08T13:00:00	8	Radiación solar	936
51297	7	Sololá	717	San Juan la Laguna	12	San Juan la Laguna	5	Mayo	2023-01-05T00:00:00	2024-11-08T14:00:00	2	Temperatura media	24.1
51298	7	Sololá	717	San Juan la Laguna	12	San Juan la Laguna	5	Mayo	2023-01-05T00:00:00	2024-11-08T14:00:00	4	Temperatura máxima	25
51299	7	Sololá	717	San Juan la Laguna	12	San Juan la Laguna	5	Mayo	2023-01-05T00:00:00	2024-11-08T14:00:00	3	Temperatura mínima	24.1
51300	7	Sololá	717	San Juan la Laguna	12	San Juan la Laguna	5	Mayo	2023-01-05T00:00:00	2024-11-08T14:00:00	5	Humedad	70
51301	7	Sololá	717	San Juan la Laguna	12	San Juan la Laguna	5	Mayo	2023-01-05T00:00:00	2024-11-08T14:00:00	6	Velocidad del viento	8
51302	7	Sololá	717	San Juan la Laguna	12	San Juan la Laguna	5	Mayo	2023-01-05T00:00:00	2024-11-08T14:00:00	7	Dirección del viento	8.05
51303	7	Sololá	717	San Juan la Laguna	12	San Juan la Laguna	5	Mayo	2023-01-05T00:00:00	2024-11-08T14:00:00	1	Precipitación	0
51304	7	Sololá	717	San Juan la Laguna	12	San Juan la Laguna	5	Mayo	2023-01-05T00:00:00	2024-11-08T14:00:00	8	Radiación solar	886
51305	7	Sololá	717	San Juan la Laguna	12	San Juan la Laguna	5	Mayo	2023-01-05T00:00:00	2024-11-08T15:00:00	2	Temperatura media	23.1
51306	7	Sololá	717	San Juan la Laguna	12	San Juan la Laguna	5	Mayo	2023-01-05T00:00:00	2024-11-08T15:00:00	4	Temperatura máxima	24.4
51307	7	Sololá	717	San Juan la Laguna	12	San Juan la Laguna	5	Mayo	2023-01-05T00:00:00	2024-11-08T15:00:00	3	Temperatura mínima	23.1
51308	7	Sololá	717	San Juan la Laguna	12	San Juan la Laguna	5	Mayo	2023-01-05T00:00:00	2024-11-08T15:00:00	5	Humedad	74
51309	7	Sololá	717	San Juan la Laguna	12	San Juan la Laguna	5	Mayo	2023-01-05T00:00:00	2024-11-08T15:00:00	6	Velocidad del viento	8
51310	7	Sololá	717	San Juan la Laguna	12	San Juan la Laguna	5	Mayo	2023-01-05T00:00:00	2024-11-08T15:00:00	7	Dirección del viento	8.05
51311	7	Sololá	717	San Juan la Laguna	12	San Juan la Laguna	5	Mayo	2023-01-05T00:00:00	2024-11-08T15:00:00	1	Precipitación	0
51312	7	Sololá	717	San Juan la Laguna	12	San Juan la Laguna	5	Mayo	2023-01-05T00:00:00	2024-11-08T15:00:00	8	Radiación solar	737
51313	7	Sololá	717	San Juan la Laguna	12	San Juan la Laguna	5	Mayo	2023-01-05T00:00:00	2024-11-08T16:00:00	2	Temperatura media	22.4
51314	7	Sololá	717	San Juan la Laguna	12	San Juan la Laguna	5	Mayo	2023-01-05T00:00:00	2024-11-08T16:00:00	4	Temperatura máxima	23
51315	7	Sololá	717	San Juan la Laguna	12	San Juan la Laguna	5	Mayo	2023-01-05T00:00:00	2024-11-08T16:00:00	3	Temperatura mínima	22.4
51316	7	Sololá	717	San Juan la Laguna	12	San Juan la Laguna	5	Mayo	2023-01-05T00:00:00	2024-11-08T16:00:00	5	Humedad	75
51317	7	Sololá	717	San Juan la Laguna	12	San Juan la Laguna	5	Mayo	2023-01-05T00:00:00	2024-11-08T16:00:00	6	Velocidad del viento	6.4
51318	7	Sololá	717	San Juan la Laguna	12	San Juan la Laguna	5	Mayo	2023-01-05T00:00:00	2024-11-08T16:00:00	7	Dirección del viento	6.44
51319	7	Sololá	717	San Juan la Laguna	12	San Juan la Laguna	5	Mayo	2023-01-05T00:00:00	2024-11-08T16:00:00	1	Precipitación	0
51320	7	Sololá	717	San Juan la Laguna	12	San Juan la Laguna	5	Mayo	2023-01-05T00:00:00	2024-11-08T16:00:00	8	Radiación solar	483
51321	7	Sololá	717	San Juan la Laguna	12	San Juan la Laguna	5	Mayo	2023-01-05T00:00:00	2024-11-08T17:00:00	2	Temperatura media	22.3
51322	7	Sololá	717	San Juan la Laguna	12	San Juan la Laguna	5	Mayo	2023-01-05T00:00:00	2024-11-08T17:00:00	4	Temperatura máxima	22.9
51323	7	Sololá	717	San Juan la Laguna	12	San Juan la Laguna	5	Mayo	2023-01-05T00:00:00	2024-11-08T17:00:00	3	Temperatura mínima	22.3
51324	7	Sololá	717	San Juan la Laguna	12	San Juan la Laguna	5	Mayo	2023-01-05T00:00:00	2024-11-08T17:00:00	5	Humedad	74
51325	7	Sololá	717	San Juan la Laguna	12	San Juan la Laguna	5	Mayo	2023-01-05T00:00:00	2024-11-08T17:00:00	6	Velocidad del viento	4.8
51326	7	Sololá	717	San Juan la Laguna	12	San Juan la Laguna	5	Mayo	2023-01-05T00:00:00	2024-11-08T17:00:00	7	Dirección del viento	4.83
51327	7	Sololá	717	San Juan la Laguna	12	San Juan la Laguna	5	Mayo	2023-01-05T00:00:00	2024-11-08T17:00:00	1	Precipitación	0
51328	7	Sololá	717	San Juan la Laguna	12	San Juan la Laguna	5	Mayo	2023-01-05T00:00:00	2024-11-08T17:00:00	8	Radiación solar	339
51329	7	Sololá	717	San Juan la Laguna	12	San Juan la Laguna	5	Mayo	2023-01-05T00:00:00	2024-11-08T18:00:00	2	Temperatura media	21.3
51330	7	Sololá	717	San Juan la Laguna	12	San Juan la Laguna	5	Mayo	2023-01-05T00:00:00	2024-11-08T18:00:00	4	Temperatura máxima	22.3
51331	7	Sololá	717	San Juan la Laguna	12	San Juan la Laguna	5	Mayo	2023-01-05T00:00:00	2024-11-08T18:00:00	3	Temperatura mínima	21.3
51332	7	Sololá	717	San Juan la Laguna	12	San Juan la Laguna	5	Mayo	2023-01-05T00:00:00	2024-11-08T18:00:00	5	Humedad	80
51333	7	Sololá	717	San Juan la Laguna	12	San Juan la Laguna	5	Mayo	2023-01-05T00:00:00	2024-11-08T18:00:00	6	Velocidad del viento	4.8
51334	7	Sololá	717	San Juan la Laguna	12	San Juan la Laguna	5	Mayo	2023-01-05T00:00:00	2024-11-08T18:00:00	7	Dirección del viento	4.83
51335	7	Sololá	717	San Juan la Laguna	12	San Juan la Laguna	5	Mayo	2023-01-05T00:00:00	2024-11-08T18:00:00	1	Precipitación	0
51336	7	Sololá	717	San Juan la Laguna	12	San Juan la Laguna	5	Mayo	2023-01-05T00:00:00	2024-11-08T18:00:00	8	Radiación solar	41
51337	7	Sololá	717	San Juan la Laguna	12	San Juan la Laguna	5	Mayo	2023-01-05T00:00:00	2024-11-08T19:00:00	2	Temperatura media	20.2
51338	7	Sololá	717	San Juan la Laguna	12	San Juan la Laguna	5	Mayo	2023-01-05T00:00:00	2024-11-08T19:00:00	4	Temperatura máxima	21.3
51339	7	Sololá	717	San Juan la Laguna	12	San Juan la Laguna	5	Mayo	2023-01-05T00:00:00	2024-11-08T19:00:00	3	Temperatura mínima	19.9
51340	7	Sololá	717	San Juan la Laguna	12	San Juan la Laguna	5	Mayo	2023-01-05T00:00:00	2024-11-08T19:00:00	5	Humedad	85
51341	7	Sololá	717	San Juan la Laguna	12	San Juan la Laguna	5	Mayo	2023-01-05T00:00:00	2024-11-08T19:00:00	6	Velocidad del viento	3.2
51342	7	Sololá	717	San Juan la Laguna	12	San Juan la Laguna	5	Mayo	2023-01-05T00:00:00	2024-11-08T19:00:00	7	Dirección del viento	3.22
51343	7	Sololá	717	San Juan la Laguna	12	San Juan la Laguna	5	Mayo	2023-01-05T00:00:00	2024-11-08T19:00:00	1	Precipitación	0
51344	7	Sololá	717	San Juan la Laguna	12	San Juan la Laguna	5	Mayo	2023-01-05T00:00:00	2024-11-08T19:00:00	8	Radiación solar	0
51345	7	Sololá	717	San Juan la Laguna	12	San Juan la Laguna	5	Mayo	2023-01-05T00:00:00	2024-11-08T20:00:00	2	Temperatura media	20.4
51346	7	Sololá	717	San Juan la Laguna	12	San Juan la Laguna	5	Mayo	2023-01-05T00:00:00	2024-11-08T20:00:00	4	Temperatura máxima	20.6
51347	7	Sololá	717	San Juan la Laguna	12	San Juan la Laguna	5	Mayo	2023-01-05T00:00:00	2024-11-08T20:00:00	3	Temperatura mínima	20.2
51348	7	Sololá	717	San Juan la Laguna	12	San Juan la Laguna	5	Mayo	2023-01-05T00:00:00	2024-11-08T20:00:00	5	Humedad	83
51349	7	Sololá	717	San Juan la Laguna	12	San Juan la Laguna	5	Mayo	2023-01-05T00:00:00	2024-11-08T20:00:00	6	Velocidad del viento	0
51350	7	Sololá	717	San Juan la Laguna	12	San Juan la Laguna	5	Mayo	2023-01-05T00:00:00	2024-11-08T20:00:00	7	Dirección del viento	0
51351	7	Sololá	717	San Juan la Laguna	12	San Juan la Laguna	5	Mayo	2023-01-05T00:00:00	2024-11-08T20:00:00	1	Precipitación	0
51352	7	Sololá	717	San Juan la Laguna	12	San Juan la Laguna	5	Mayo	2023-01-05T00:00:00	2024-11-08T20:00:00	8	Radiación solar	0
51353	7	Sololá	717	San Juan la Laguna	12	San Juan la Laguna	5	Mayo	2023-01-05T00:00:00	2024-11-08T21:00:00	2	Temperatura media	20.3
51354	7	Sololá	717	San Juan la Laguna	12	San Juan la Laguna	5	Mayo	2023-01-05T00:00:00	2024-11-08T21:00:00	4	Temperatura máxima	20.4
51355	7	Sololá	717	San Juan la Laguna	12	San Juan la Laguna	5	Mayo	2023-01-05T00:00:00	2024-11-08T21:00:00	3	Temperatura mínima	20.3
51356	7	Sololá	717	San Juan la Laguna	12	San Juan la Laguna	5	Mayo	2023-01-05T00:00:00	2024-11-08T21:00:00	5	Humedad	84
51357	7	Sololá	717	San Juan la Laguna	12	San Juan la Laguna	5	Mayo	2023-01-05T00:00:00	2024-11-08T21:00:00	6	Velocidad del viento	0
51358	7	Sololá	717	San Juan la Laguna	12	San Juan la Laguna	5	Mayo	2023-01-05T00:00:00	2024-11-08T21:00:00	7	Dirección del viento	0
51359	7	Sololá	717	San Juan la Laguna	12	San Juan la Laguna	5	Mayo	2023-01-05T00:00:00	2024-11-08T21:00:00	1	Precipitación	0
51360	7	Sololá	717	San Juan la Laguna	12	San Juan la Laguna	5	Mayo	2023-01-05T00:00:00	2024-11-08T21:00:00	8	Radiación solar	0
51361	7	Sololá	717	San Juan la Laguna	12	San Juan la Laguna	5	Mayo	2023-01-05T00:00:00	2024-11-08T22:00:00	2	Temperatura media	16.8
51362	7	Sololá	717	San Juan la Laguna	12	San Juan la Laguna	5	Mayo	2023-01-05T00:00:00	2024-11-08T22:00:00	4	Temperatura máxima	20.3
51363	7	Sololá	717	San Juan la Laguna	12	San Juan la Laguna	5	Mayo	2023-01-05T00:00:00	2024-11-08T22:00:00	3	Temperatura mínima	16.8
51364	7	Sololá	717	San Juan la Laguna	12	San Juan la Laguna	5	Mayo	2023-01-05T00:00:00	2024-11-08T22:00:00	5	Humedad	86
51365	7	Sololá	717	San Juan la Laguna	12	San Juan la Laguna	5	Mayo	2023-01-05T00:00:00	2024-11-08T22:00:00	6	Velocidad del viento	3.2
51366	7	Sololá	717	San Juan la Laguna	12	San Juan la Laguna	5	Mayo	2023-01-05T00:00:00	2024-11-08T22:00:00	7	Dirección del viento	3.22
51367	7	Sololá	717	San Juan la Laguna	12	San Juan la Laguna	5	Mayo	2023-01-05T00:00:00	2024-11-08T22:00:00	1	Precipitación	1.2
51368	7	Sololá	717	San Juan la Laguna	12	San Juan la Laguna	5	Mayo	2023-01-05T00:00:00	2024-11-08T22:00:00	8	Radiación solar	0
51369	7	Sololá	717	San Juan la Laguna	12	San Juan la Laguna	5	Mayo	2023-01-05T00:00:00	2024-11-08T23:00:00	2	Temperatura media	16.4
51370	7	Sololá	717	San Juan la Laguna	12	San Juan la Laguna	5	Mayo	2023-01-05T00:00:00	2024-11-08T23:00:00	4	Temperatura máxima	17.1
51371	7	Sololá	717	San Juan la Laguna	12	San Juan la Laguna	5	Mayo	2023-01-05T00:00:00	2024-11-08T23:00:00	3	Temperatura mínima	16.4
51372	7	Sololá	717	San Juan la Laguna	12	San Juan la Laguna	5	Mayo	2023-01-05T00:00:00	2024-11-08T23:00:00	5	Humedad	89
51373	7	Sololá	717	San Juan la Laguna	12	San Juan la Laguna	5	Mayo	2023-01-05T00:00:00	2024-11-08T23:00:00	6	Velocidad del viento	1.6
51374	7	Sololá	717	San Juan la Laguna	12	San Juan la Laguna	5	Mayo	2023-01-05T00:00:00	2024-11-08T23:00:00	7	Dirección del viento	1.61
51375	7	Sololá	717	San Juan la Laguna	12	San Juan la Laguna	5	Mayo	2023-01-05T00:00:00	2024-11-08T23:00:00	1	Precipitación	0
51376	7	Sololá	717	San Juan la Laguna	12	San Juan la Laguna	5	Mayo	2023-01-05T00:00:00	2024-11-08T23:00:00	8	Radiación solar	0
51377	7	Sololá	717	San Juan la Laguna	12	San Juan la Laguna	5	Mayo	2023-02-05T00:00:00	2024-11-08T00:00:00	2	Temperatura media	17.2
51378	7	Sololá	717	San Juan la Laguna	12	San Juan la Laguna	5	Mayo	2023-02-05T00:00:00	2024-11-08T00:00:00	4	Temperatura máxima	17.2
51379	7	Sololá	717	San Juan la Laguna	12	San Juan la Laguna	5	Mayo	2023-02-05T00:00:00	2024-11-08T00:00:00	3	Temperatura mínima	16.4
51380	7	Sololá	717	San Juan la Laguna	12	San Juan la Laguna	5	Mayo	2023-02-05T00:00:00	2024-11-08T00:00:00	5	Humedad	88
51381	7	Sololá	717	San Juan la Laguna	12	San Juan la Laguna	5	Mayo	2023-02-05T00:00:00	2024-11-08T00:00:00	6	Velocidad del viento	0
51382	7	Sololá	717	San Juan la Laguna	12	San Juan la Laguna	5	Mayo	2023-02-05T00:00:00	2024-11-08T00:00:00	7	Dirección del viento	0
51383	7	Sololá	717	San Juan la Laguna	12	San Juan la Laguna	5	Mayo	2023-02-05T00:00:00	2024-11-08T00:00:00	1	Precipitación	0
51384	7	Sololá	717	San Juan la Laguna	12	San Juan la Laguna	5	Mayo	2023-02-05T00:00:00	2024-11-08T00:00:00	8	Radiación solar	0
51385	7	Sololá	717	San Juan la Laguna	12	San Juan la Laguna	5	Mayo	2023-02-05T00:00:00	2024-11-08T01:00:00	2	Temperatura media	17.3
51386	7	Sololá	717	San Juan la Laguna	12	San Juan la Laguna	5	Mayo	2023-02-05T00:00:00	2024-11-08T01:00:00	4	Temperatura máxima	17.3
51387	7	Sololá	717	San Juan la Laguna	12	San Juan la Laguna	5	Mayo	2023-02-05T00:00:00	2024-11-08T01:00:00	3	Temperatura mínima	17.2
51388	7	Sololá	717	San Juan la Laguna	12	San Juan la Laguna	5	Mayo	2023-02-05T00:00:00	2024-11-08T01:00:00	5	Humedad	87
51389	7	Sololá	717	San Juan la Laguna	12	San Juan la Laguna	5	Mayo	2023-02-05T00:00:00	2024-11-08T01:00:00	6	Velocidad del viento	1.6
51390	7	Sololá	717	San Juan la Laguna	12	San Juan la Laguna	5	Mayo	2023-02-05T00:00:00	2024-11-08T01:00:00	7	Dirección del viento	1.61
51391	7	Sololá	717	San Juan la Laguna	12	San Juan la Laguna	5	Mayo	2023-02-05T00:00:00	2024-11-08T01:00:00	1	Precipitación	0
51392	7	Sololá	717	San Juan la Laguna	12	San Juan la Laguna	5	Mayo	2023-02-05T00:00:00	2024-11-08T01:00:00	8	Radiación solar	0
51393	7	Sololá	717	San Juan la Laguna	12	San Juan la Laguna	5	Mayo	2023-02-05T00:00:00	2024-11-08T02:00:00	2	Temperatura media	16.6
51394	7	Sololá	717	San Juan la Laguna	12	San Juan la Laguna	5	Mayo	2023-02-05T00:00:00	2024-11-08T02:00:00	4	Temperatura máxima	17.3
51395	7	Sololá	717	San Juan la Laguna	12	San Juan la Laguna	5	Mayo	2023-02-05T00:00:00	2024-11-08T02:00:00	3	Temperatura mínima	16.6
51396	7	Sololá	717	San Juan la Laguna	12	San Juan la Laguna	5	Mayo	2023-02-05T00:00:00	2024-11-08T02:00:00	5	Humedad	90
51397	7	Sololá	717	San Juan la Laguna	12	San Juan la Laguna	5	Mayo	2023-02-05T00:00:00	2024-11-08T02:00:00	6	Velocidad del viento	0
51398	7	Sololá	717	San Juan la Laguna	12	San Juan la Laguna	5	Mayo	2023-02-05T00:00:00	2024-11-08T02:00:00	7	Dirección del viento	0
51399	7	Sololá	717	San Juan la Laguna	12	San Juan la Laguna	5	Mayo	2023-02-05T00:00:00	2024-11-08T02:00:00	1	Precipitación	0
51400	7	Sololá	717	San Juan la Laguna	12	San Juan la Laguna	5	Mayo	2023-02-05T00:00:00	2024-11-08T02:00:00	8	Radiación solar	0
51401	7	Sololá	717	San Juan la Laguna	12	San Juan la Laguna	5	Mayo	2023-02-05T00:00:00	2024-11-08T03:00:00	2	Temperatura media	16.3
51402	7	Sololá	717	San Juan la Laguna	12	San Juan la Laguna	5	Mayo	2023-02-05T00:00:00	2024-11-08T03:00:00	4	Temperatura máxima	16.7
51403	7	Sololá	717	San Juan la Laguna	12	San Juan la Laguna	5	Mayo	2023-02-05T00:00:00	2024-11-08T03:00:00	3	Temperatura mínima	16.2
51404	7	Sololá	717	San Juan la Laguna	12	San Juan la Laguna	5	Mayo	2023-02-05T00:00:00	2024-11-08T03:00:00	5	Humedad	91
51405	7	Sololá	717	San Juan la Laguna	12	San Juan la Laguna	5	Mayo	2023-02-05T00:00:00	2024-11-08T03:00:00	6	Velocidad del viento	1.6
51406	7	Sololá	717	San Juan la Laguna	12	San Juan la Laguna	5	Mayo	2023-02-05T00:00:00	2024-11-08T03:00:00	7	Dirección del viento	1.61
51407	7	Sololá	717	San Juan la Laguna	12	San Juan la Laguna	5	Mayo	2023-02-05T00:00:00	2024-11-08T03:00:00	1	Precipitación	0
51408	7	Sololá	717	San Juan la Laguna	12	San Juan la Laguna	5	Mayo	2023-02-05T00:00:00	2024-11-08T03:00:00	8	Radiación solar	0
51409	7	Sololá	717	San Juan la Laguna	12	San Juan la Laguna	5	Mayo	2023-02-05T00:00:00	2024-11-08T04:00:00	2	Temperatura media	16.1
51410	7	Sololá	717	San Juan la Laguna	12	San Juan la Laguna	5	Mayo	2023-02-05T00:00:00	2024-11-08T04:00:00	4	Temperatura máxima	16.3
51411	7	Sololá	717	San Juan la Laguna	12	San Juan la Laguna	5	Mayo	2023-02-05T00:00:00	2024-11-08T04:00:00	3	Temperatura mínima	15.9
51412	7	Sololá	717	San Juan la Laguna	12	San Juan la Laguna	5	Mayo	2023-02-05T00:00:00	2024-11-08T04:00:00	5	Humedad	89
51413	7	Sololá	717	San Juan la Laguna	12	San Juan la Laguna	5	Mayo	2023-02-05T00:00:00	2024-11-08T04:00:00	6	Velocidad del viento	1.6
51414	7	Sololá	717	San Juan la Laguna	12	San Juan la Laguna	5	Mayo	2023-02-05T00:00:00	2024-11-08T04:00:00	7	Dirección del viento	1.61
51415	7	Sololá	717	San Juan la Laguna	12	San Juan la Laguna	5	Mayo	2023-02-05T00:00:00	2024-11-08T04:00:00	1	Precipitación	0
51416	7	Sololá	717	San Juan la Laguna	12	San Juan la Laguna	5	Mayo	2023-02-05T00:00:00	2024-11-08T04:00:00	8	Radiación solar	0
51417	7	Sololá	717	San Juan la Laguna	12	San Juan la Laguna	5	Mayo	2023-02-05T00:00:00	2024-11-08T05:00:00	2	Temperatura media	15.9
51418	7	Sololá	717	San Juan la Laguna	12	San Juan la Laguna	5	Mayo	2023-02-05T00:00:00	2024-11-08T05:00:00	4	Temperatura máxima	16.1
51419	7	Sololá	717	San Juan la Laguna	12	San Juan la Laguna	5	Mayo	2023-02-05T00:00:00	2024-11-08T05:00:00	3	Temperatura mínima	15.9
51420	7	Sololá	717	San Juan la Laguna	12	San Juan la Laguna	5	Mayo	2023-02-05T00:00:00	2024-11-08T05:00:00	5	Humedad	90
51421	7	Sololá	717	San Juan la Laguna	12	San Juan la Laguna	5	Mayo	2023-02-05T00:00:00	2024-11-08T05:00:00	6	Velocidad del viento	1.6
51422	7	Sololá	717	San Juan la Laguna	12	San Juan la Laguna	5	Mayo	2023-02-05T00:00:00	2024-11-08T05:00:00	7	Dirección del viento	1.61
51423	7	Sololá	717	San Juan la Laguna	12	San Juan la Laguna	5	Mayo	2023-02-05T00:00:00	2024-11-08T05:00:00	1	Precipitación	0
51424	7	Sololá	717	San Juan la Laguna	12	San Juan la Laguna	5	Mayo	2023-02-05T00:00:00	2024-11-08T05:00:00	8	Radiación solar	0
51425	7	Sololá	717	San Juan la Laguna	12	San Juan la Laguna	5	Mayo	2023-02-05T00:00:00	2024-11-08T06:00:00	2	Temperatura media	15.7
51426	7	Sololá	717	San Juan la Laguna	12	San Juan la Laguna	5	Mayo	2023-02-05T00:00:00	2024-11-08T06:00:00	4	Temperatura máxima	15.9
51427	7	Sololá	717	San Juan la Laguna	12	San Juan la Laguna	5	Mayo	2023-02-05T00:00:00	2024-11-08T06:00:00	3	Temperatura mínima	15.6
51428	7	Sololá	717	San Juan la Laguna	12	San Juan la Laguna	5	Mayo	2023-02-05T00:00:00	2024-11-08T06:00:00	5	Humedad	90
51429	7	Sololá	717	San Juan la Laguna	12	San Juan la Laguna	5	Mayo	2023-02-05T00:00:00	2024-11-08T06:00:00	6	Velocidad del viento	1.6
51430	7	Sololá	717	San Juan la Laguna	12	San Juan la Laguna	5	Mayo	2023-02-05T00:00:00	2024-11-08T06:00:00	7	Dirección del viento	1.61
51431	7	Sololá	717	San Juan la Laguna	12	San Juan la Laguna	5	Mayo	2023-02-05T00:00:00	2024-11-08T06:00:00	1	Precipitación	0
51432	7	Sololá	717	San Juan la Laguna	12	San Juan la Laguna	5	Mayo	2023-02-05T00:00:00	2024-11-08T06:00:00	8	Radiación solar	3
51433	7	Sololá	717	San Juan la Laguna	12	San Juan la Laguna	5	Mayo	2023-02-05T00:00:00	2024-11-08T07:00:00	2	Temperatura media	17.3
51434	7	Sololá	717	San Juan la Laguna	12	San Juan la Laguna	5	Mayo	2023-02-05T00:00:00	2024-11-08T07:00:00	4	Temperatura máxima	17.3
51435	7	Sololá	717	San Juan la Laguna	12	San Juan la Laguna	5	Mayo	2023-02-05T00:00:00	2024-11-08T07:00:00	3	Temperatura mínima	15.7
51436	7	Sololá	717	San Juan la Laguna	12	San Juan la Laguna	5	Mayo	2023-02-05T00:00:00	2024-11-08T07:00:00	5	Humedad	87
51437	7	Sololá	717	San Juan la Laguna	12	San Juan la Laguna	5	Mayo	2023-02-05T00:00:00	2024-11-08T07:00:00	6	Velocidad del viento	1.6
51438	7	Sololá	717	San Juan la Laguna	12	San Juan la Laguna	5	Mayo	2023-02-05T00:00:00	2024-11-08T07:00:00	7	Dirección del viento	1.61
51439	7	Sololá	717	San Juan la Laguna	12	San Juan la Laguna	5	Mayo	2023-02-05T00:00:00	2024-11-08T07:00:00	1	Precipitación	0
51440	7	Sololá	717	San Juan la Laguna	12	San Juan la Laguna	5	Mayo	2023-02-05T00:00:00	2024-11-08T07:00:00	8	Radiación solar	82
51441	7	Sololá	717	San Juan la Laguna	12	San Juan la Laguna	5	Mayo	2023-02-05T00:00:00	2024-11-08T08:00:00	2	Temperatura media	20.4
51442	7	Sololá	717	San Juan la Laguna	12	San Juan la Laguna	5	Mayo	2023-02-05T00:00:00	2024-11-08T08:00:00	4	Temperatura máxima	20.4
51443	7	Sololá	717	San Juan la Laguna	12	San Juan la Laguna	5	Mayo	2023-02-05T00:00:00	2024-11-08T08:00:00	3	Temperatura mínima	17.3
51444	7	Sololá	717	San Juan la Laguna	12	San Juan la Laguna	5	Mayo	2023-02-05T00:00:00	2024-11-08T08:00:00	5	Humedad	79
51445	7	Sololá	717	San Juan la Laguna	12	San Juan la Laguna	5	Mayo	2023-02-05T00:00:00	2024-11-08T08:00:00	6	Velocidad del viento	0
51446	7	Sololá	717	San Juan la Laguna	12	San Juan la Laguna	5	Mayo	2023-02-05T00:00:00	2024-11-08T08:00:00	7	Dirección del viento	0
51447	7	Sololá	717	San Juan la Laguna	12	San Juan la Laguna	5	Mayo	2023-02-05T00:00:00	2024-11-08T08:00:00	1	Precipitación	0
51448	7	Sololá	717	San Juan la Laguna	12	San Juan la Laguna	5	Mayo	2023-02-05T00:00:00	2024-11-08T08:00:00	8	Radiación solar	278
51449	7	Sololá	717	San Juan la Laguna	12	San Juan la Laguna	5	Mayo	2023-02-05T00:00:00	2024-11-08T09:00:00	2	Temperatura media	22.1
51450	7	Sololá	717	San Juan la Laguna	12	San Juan la Laguna	5	Mayo	2023-02-05T00:00:00	2024-11-08T09:00:00	4	Temperatura máxima	22.3
51451	7	Sololá	717	San Juan la Laguna	12	San Juan la Laguna	5	Mayo	2023-02-05T00:00:00	2024-11-08T09:00:00	3	Temperatura mínima	20.3
51452	7	Sololá	717	San Juan la Laguna	12	San Juan la Laguna	5	Mayo	2023-02-05T00:00:00	2024-11-08T09:00:00	5	Humedad	71
51453	7	Sololá	717	San Juan la Laguna	12	San Juan la Laguna	5	Mayo	2023-02-05T00:00:00	2024-11-08T09:00:00	6	Velocidad del viento	1.6
51454	7	Sololá	717	San Juan la Laguna	12	San Juan la Laguna	5	Mayo	2023-02-05T00:00:00	2024-11-08T09:00:00	7	Dirección del viento	1.61
51455	7	Sololá	717	San Juan la Laguna	12	San Juan la Laguna	5	Mayo	2023-02-05T00:00:00	2024-11-08T09:00:00	1	Precipitación	0
51456	7	Sololá	717	San Juan la Laguna	12	San Juan la Laguna	5	Mayo	2023-02-05T00:00:00	2024-11-08T09:00:00	8	Radiación solar	471
51457	7	Sololá	717	San Juan la Laguna	12	San Juan la Laguna	5	Mayo	2023-02-05T00:00:00	2024-11-08T10:00:00	2	Temperatura media	23.1
51458	7	Sololá	717	San Juan la Laguna	12	San Juan la Laguna	5	Mayo	2023-02-05T00:00:00	2024-11-08T10:00:00	4	Temperatura máxima	23.1
51459	7	Sololá	717	San Juan la Laguna	12	San Juan la Laguna	5	Mayo	2023-02-05T00:00:00	2024-11-08T10:00:00	3	Temperatura mínima	21.9
51460	7	Sololá	717	San Juan la Laguna	12	San Juan la Laguna	5	Mayo	2023-02-05T00:00:00	2024-11-08T10:00:00	5	Humedad	65
51461	7	Sololá	717	San Juan la Laguna	12	San Juan la Laguna	5	Mayo	2023-02-05T00:00:00	2024-11-08T10:00:00	6	Velocidad del viento	1.6
51462	7	Sololá	717	San Juan la Laguna	12	San Juan la Laguna	5	Mayo	2023-02-05T00:00:00	2024-11-08T10:00:00	7	Dirección del viento	1.61
51463	7	Sololá	717	San Juan la Laguna	12	San Juan la Laguna	5	Mayo	2023-02-05T00:00:00	2024-11-08T10:00:00	1	Precipitación	0
51464	7	Sololá	717	San Juan la Laguna	12	San Juan la Laguna	5	Mayo	2023-02-05T00:00:00	2024-11-08T10:00:00	8	Radiación solar	707
51465	7	Sololá	717	San Juan la Laguna	12	San Juan la Laguna	5	Mayo	2023-02-05T00:00:00	2024-11-08T11:00:00	2	Temperatura media	23.8
51466	7	Sololá	717	San Juan la Laguna	12	San Juan la Laguna	5	Mayo	2023-02-05T00:00:00	2024-11-08T11:00:00	4	Temperatura máxima	24.1
51467	7	Sololá	717	San Juan la Laguna	12	San Juan la Laguna	5	Mayo	2023-02-05T00:00:00	2024-11-08T11:00:00	3	Temperatura mínima	23.1
51468	7	Sololá	717	San Juan la Laguna	12	San Juan la Laguna	5	Mayo	2023-02-05T00:00:00	2024-11-08T11:00:00	5	Humedad	67
51469	7	Sololá	717	San Juan la Laguna	12	San Juan la Laguna	5	Mayo	2023-02-05T00:00:00	2024-11-08T11:00:00	6	Velocidad del viento	1.6
51470	7	Sololá	717	San Juan la Laguna	12	San Juan la Laguna	5	Mayo	2023-02-05T00:00:00	2024-11-08T11:00:00	7	Dirección del viento	1.61
51471	7	Sololá	717	San Juan la Laguna	12	San Juan la Laguna	5	Mayo	2023-02-05T00:00:00	2024-11-08T11:00:00	1	Precipitación	0
51472	7	Sololá	717	San Juan la Laguna	12	San Juan la Laguna	5	Mayo	2023-02-05T00:00:00	2024-11-08T11:00:00	8	Radiación solar	835
51473	7	Sololá	717	San Juan la Laguna	12	San Juan la Laguna	5	Mayo	2023-02-05T00:00:00	2024-11-08T12:00:00	2	Temperatura media	22.5
51474	7	Sololá	717	San Juan la Laguna	12	San Juan la Laguna	5	Mayo	2023-02-05T00:00:00	2024-11-08T12:00:00	4	Temperatura máxima	24.1
51475	7	Sololá	717	San Juan la Laguna	12	San Juan la Laguna	5	Mayo	2023-02-05T00:00:00	2024-11-08T12:00:00	3	Temperatura mínima	22.4
51476	7	Sololá	717	San Juan la Laguna	12	San Juan la Laguna	5	Mayo	2023-02-05T00:00:00	2024-11-08T12:00:00	5	Humedad	73
51477	7	Sololá	717	San Juan la Laguna	12	San Juan la Laguna	5	Mayo	2023-02-05T00:00:00	2024-11-08T12:00:00	6	Velocidad del viento	3.2
51478	7	Sololá	717	San Juan la Laguna	12	San Juan la Laguna	5	Mayo	2023-02-05T00:00:00	2024-11-08T12:00:00	7	Dirección del viento	3.22
51479	7	Sololá	717	San Juan la Laguna	12	San Juan la Laguna	5	Mayo	2023-02-05T00:00:00	2024-11-08T12:00:00	1	Precipitación	0
51480	7	Sololá	717	San Juan la Laguna	12	San Juan la Laguna	5	Mayo	2023-02-05T00:00:00	2024-11-08T12:00:00	8	Radiación solar	387
51481	7	Sololá	717	San Juan la Laguna	12	San Juan la Laguna	5	Mayo	2023-02-05T00:00:00	2024-11-08T13:00:00	2	Temperatura media	24.2
51482	7	Sololá	717	San Juan la Laguna	12	San Juan la Laguna	5	Mayo	2023-02-05T00:00:00	2024-11-08T13:00:00	4	Temperatura máxima	24.2
51483	7	Sololá	717	San Juan la Laguna	12	San Juan la Laguna	5	Mayo	2023-02-05T00:00:00	2024-11-08T13:00:00	3	Temperatura mínima	22.5
51484	7	Sololá	717	San Juan la Laguna	12	San Juan la Laguna	5	Mayo	2023-02-05T00:00:00	2024-11-08T13:00:00	5	Humedad	67
51485	7	Sololá	717	San Juan la Laguna	12	San Juan la Laguna	5	Mayo	2023-02-05T00:00:00	2024-11-08T13:00:00	6	Velocidad del viento	4.8
51486	7	Sololá	717	San Juan la Laguna	12	San Juan la Laguna	5	Mayo	2023-02-05T00:00:00	2024-11-08T13:00:00	7	Dirección del viento	4.83
51487	7	Sololá	717	San Juan la Laguna	12	San Juan la Laguna	5	Mayo	2023-02-05T00:00:00	2024-11-08T13:00:00	1	Precipitación	0
51488	7	Sololá	717	San Juan la Laguna	12	San Juan la Laguna	5	Mayo	2023-02-05T00:00:00	2024-11-08T13:00:00	8	Radiación solar	914
51489	7	Sololá	717	San Juan la Laguna	12	San Juan la Laguna	5	Mayo	2023-02-05T00:00:00	2024-11-08T14:00:00	2	Temperatura media	23.1
51490	7	Sololá	717	San Juan la Laguna	12	San Juan la Laguna	5	Mayo	2023-02-05T00:00:00	2024-11-08T14:00:00	4	Temperatura máxima	25
51491	7	Sololá	717	San Juan la Laguna	12	San Juan la Laguna	5	Mayo	2023-02-05T00:00:00	2024-11-08T14:00:00	3	Temperatura mínima	23.1
51492	7	Sololá	717	San Juan la Laguna	12	San Juan la Laguna	5	Mayo	2023-02-05T00:00:00	2024-11-08T14:00:00	5	Humedad	72
51493	7	Sololá	717	San Juan la Laguna	12	San Juan la Laguna	5	Mayo	2023-02-05T00:00:00	2024-11-08T14:00:00	6	Velocidad del viento	4.8
51494	7	Sololá	717	San Juan la Laguna	12	San Juan la Laguna	5	Mayo	2023-02-05T00:00:00	2024-11-08T14:00:00	7	Dirección del viento	4.83
51495	7	Sololá	717	San Juan la Laguna	12	San Juan la Laguna	5	Mayo	2023-02-05T00:00:00	2024-11-08T14:00:00	1	Precipitación	0
51496	7	Sololá	717	San Juan la Laguna	12	San Juan la Laguna	5	Mayo	2023-02-05T00:00:00	2024-11-08T14:00:00	8	Radiación solar	727
51497	7	Sololá	717	San Juan la Laguna	12	San Juan la Laguna	5	Mayo	2023-02-05T00:00:00	2024-11-08T15:00:00	2	Temperatura media	21.6
51498	7	Sololá	717	San Juan la Laguna	12	San Juan la Laguna	5	Mayo	2023-02-05T00:00:00	2024-11-08T15:00:00	4	Temperatura máxima	24
51499	7	Sololá	717	San Juan la Laguna	12	San Juan la Laguna	5	Mayo	2023-02-05T00:00:00	2024-11-08T15:00:00	3	Temperatura mínima	21.5
51500	7	Sololá	717	San Juan la Laguna	12	San Juan la Laguna	5	Mayo	2023-02-05T00:00:00	2024-11-08T15:00:00	5	Humedad	79
51501	7	Sololá	717	San Juan la Laguna	12	San Juan la Laguna	5	Mayo	2023-02-05T00:00:00	2024-11-08T15:00:00	6	Velocidad del viento	4.8
51502	7	Sololá	717	San Juan la Laguna	12	San Juan la Laguna	5	Mayo	2023-02-05T00:00:00	2024-11-08T15:00:00	7	Dirección del viento	4.83
51503	7	Sololá	717	San Juan la Laguna	12	San Juan la Laguna	5	Mayo	2023-02-05T00:00:00	2024-11-08T15:00:00	1	Precipitación	0
51504	7	Sololá	717	San Juan la Laguna	12	San Juan la Laguna	5	Mayo	2023-02-05T00:00:00	2024-11-08T15:00:00	8	Radiación solar	299
51505	7	Sololá	717	San Juan la Laguna	12	San Juan la Laguna	5	Mayo	2023-02-05T00:00:00	2024-11-08T16:00:00	2	Temperatura media	19.2
51506	7	Sololá	717	San Juan la Laguna	12	San Juan la Laguna	5	Mayo	2023-02-05T00:00:00	2024-11-08T16:00:00	4	Temperatura máxima	21.6
51507	7	Sololá	717	San Juan la Laguna	12	San Juan la Laguna	5	Mayo	2023-02-05T00:00:00	2024-11-08T16:00:00	3	Temperatura mínima	19.2
51508	7	Sololá	717	San Juan la Laguna	12	San Juan la Laguna	5	Mayo	2023-02-05T00:00:00	2024-11-08T16:00:00	5	Humedad	86
51509	7	Sololá	717	San Juan la Laguna	12	San Juan la Laguna	5	Mayo	2023-02-05T00:00:00	2024-11-08T16:00:00	6	Velocidad del viento	6.4
51510	7	Sololá	717	San Juan la Laguna	12	San Juan la Laguna	5	Mayo	2023-02-05T00:00:00	2024-11-08T16:00:00	7	Dirección del viento	6.44
51511	7	Sololá	717	San Juan la Laguna	12	San Juan la Laguna	5	Mayo	2023-02-05T00:00:00	2024-11-08T16:00:00	1	Precipitación	0.2
51512	7	Sololá	717	San Juan la Laguna	12	San Juan la Laguna	5	Mayo	2023-02-05T00:00:00	2024-11-08T16:00:00	8	Radiación solar	32
51513	7	Sololá	717	San Juan la Laguna	12	San Juan la Laguna	5	Mayo	2023-02-05T00:00:00	2024-11-08T17:00:00	2	Temperatura media	17.5
51514	7	Sololá	717	San Juan la Laguna	12	San Juan la Laguna	5	Mayo	2023-02-05T00:00:00	2024-11-08T17:00:00	4	Temperatura máxima	19.2
51515	7	Sololá	717	San Juan la Laguna	12	San Juan la Laguna	5	Mayo	2023-02-05T00:00:00	2024-11-08T17:00:00	3	Temperatura mínima	17.2
51516	7	Sololá	717	San Juan la Laguna	12	San Juan la Laguna	5	Mayo	2023-02-05T00:00:00	2024-11-08T17:00:00	5	Humedad	91
51517	7	Sololá	717	San Juan la Laguna	12	San Juan la Laguna	5	Mayo	2023-02-05T00:00:00	2024-11-08T17:00:00	6	Velocidad del viento	3.2
51518	7	Sololá	717	San Juan la Laguna	12	San Juan la Laguna	5	Mayo	2023-02-05T00:00:00	2024-11-08T17:00:00	7	Dirección del viento	3.22
51519	7	Sololá	717	San Juan la Laguna	12	San Juan la Laguna	5	Mayo	2023-02-05T00:00:00	2024-11-08T17:00:00	1	Precipitación	9.4
51520	7	Sololá	717	San Juan la Laguna	12	San Juan la Laguna	5	Mayo	2023-02-05T00:00:00	2024-11-08T17:00:00	8	Radiación solar	5
51521	7	Sololá	717	San Juan la Laguna	12	San Juan la Laguna	5	Mayo	2023-02-05T00:00:00	2024-11-08T18:00:00	2	Temperatura media	16.8
51522	7	Sololá	717	San Juan la Laguna	12	San Juan la Laguna	5	Mayo	2023-02-05T00:00:00	2024-11-08T18:00:00	4	Temperatura máxima	17.4
51523	7	Sololá	717	San Juan la Laguna	12	San Juan la Laguna	5	Mayo	2023-02-05T00:00:00	2024-11-08T18:00:00	3	Temperatura mínima	16.8
51524	7	Sololá	717	San Juan la Laguna	12	San Juan la Laguna	5	Mayo	2023-02-05T00:00:00	2024-11-08T18:00:00	5	Humedad	92
51525	7	Sololá	717	San Juan la Laguna	12	San Juan la Laguna	5	Mayo	2023-02-05T00:00:00	2024-11-08T18:00:00	6	Velocidad del viento	1.6
51526	7	Sololá	717	San Juan la Laguna	12	San Juan la Laguna	5	Mayo	2023-02-05T00:00:00	2024-11-08T18:00:00	7	Dirección del viento	1.61
51527	7	Sololá	717	San Juan la Laguna	12	San Juan la Laguna	5	Mayo	2023-02-05T00:00:00	2024-11-08T18:00:00	1	Precipitación	2.2
51528	7	Sololá	717	San Juan la Laguna	12	San Juan la Laguna	5	Mayo	2023-02-05T00:00:00	2024-11-08T18:00:00	8	Radiación solar	0
51529	7	Sololá	717	San Juan la Laguna	12	San Juan la Laguna	5	Mayo	2023-02-05T00:00:00	2024-11-08T19:00:00	2	Temperatura media	16.5
51530	7	Sololá	717	San Juan la Laguna	12	San Juan la Laguna	5	Mayo	2023-02-05T00:00:00	2024-11-08T19:00:00	4	Temperatura máxima	16.8
51531	7	Sololá	717	San Juan la Laguna	12	San Juan la Laguna	5	Mayo	2023-02-05T00:00:00	2024-11-08T19:00:00	3	Temperatura mínima	16.3
51532	7	Sololá	717	San Juan la Laguna	12	San Juan la Laguna	5	Mayo	2023-02-05T00:00:00	2024-11-08T19:00:00	5	Humedad	84
51533	7	Sololá	717	San Juan la Laguna	12	San Juan la Laguna	5	Mayo	2023-02-05T00:00:00	2024-11-08T19:00:00	6	Velocidad del viento	6.4
51534	7	Sololá	717	San Juan la Laguna	12	San Juan la Laguna	5	Mayo	2023-02-05T00:00:00	2024-11-08T19:00:00	7	Dirección del viento	6.44
51535	7	Sololá	717	San Juan la Laguna	12	San Juan la Laguna	5	Mayo	2023-02-05T00:00:00	2024-11-08T19:00:00	1	Precipitación	1.4
51536	7	Sololá	717	San Juan la Laguna	12	San Juan la Laguna	5	Mayo	2023-02-05T00:00:00	2024-11-08T19:00:00	8	Radiación solar	0
51537	7	Sololá	717	San Juan la Laguna	12	San Juan la Laguna	5	Mayo	2023-02-05T00:00:00	2024-11-08T20:00:00	2	Temperatura media	16.1
51538	7	Sololá	717	San Juan la Laguna	12	San Juan la Laguna	5	Mayo	2023-02-05T00:00:00	2024-11-08T20:00:00	4	Temperatura máxima	16.6
51539	7	Sololá	717	San Juan la Laguna	12	San Juan la Laguna	5	Mayo	2023-02-05T00:00:00	2024-11-08T20:00:00	3	Temperatura mínima	16.1
51540	7	Sololá	717	San Juan la Laguna	12	San Juan la Laguna	5	Mayo	2023-02-05T00:00:00	2024-11-08T20:00:00	5	Humedad	90
51541	7	Sololá	717	San Juan la Laguna	12	San Juan la Laguna	5	Mayo	2023-02-05T00:00:00	2024-11-08T20:00:00	6	Velocidad del viento	3.2
51542	7	Sololá	717	San Juan la Laguna	12	San Juan la Laguna	5	Mayo	2023-02-05T00:00:00	2024-11-08T20:00:00	7	Dirección del viento	3.22
51543	7	Sololá	717	San Juan la Laguna	12	San Juan la Laguna	5	Mayo	2023-02-05T00:00:00	2024-11-08T20:00:00	1	Precipitación	0
51544	7	Sololá	717	San Juan la Laguna	12	San Juan la Laguna	5	Mayo	2023-02-05T00:00:00	2024-11-08T20:00:00	8	Radiación solar	0
51545	7	Sololá	717	San Juan la Laguna	12	San Juan la Laguna	5	Mayo	2023-02-05T00:00:00	2024-11-08T21:00:00	2	Temperatura media	16.1
51546	7	Sololá	717	San Juan la Laguna	12	San Juan la Laguna	5	Mayo	2023-02-05T00:00:00	2024-11-08T21:00:00	4	Temperatura máxima	16.4
51547	7	Sololá	717	San Juan la Laguna	12	San Juan la Laguna	5	Mayo	2023-02-05T00:00:00	2024-11-08T21:00:00	3	Temperatura mínima	16.1
51548	7	Sololá	717	San Juan la Laguna	12	San Juan la Laguna	5	Mayo	2023-02-05T00:00:00	2024-11-08T21:00:00	5	Humedad	87
51549	7	Sololá	717	San Juan la Laguna	12	San Juan la Laguna	5	Mayo	2023-02-05T00:00:00	2024-11-08T21:00:00	6	Velocidad del viento	3.2
51550	7	Sololá	717	San Juan la Laguna	12	San Juan la Laguna	5	Mayo	2023-02-05T00:00:00	2024-11-08T21:00:00	7	Dirección del viento	3.22
51551	7	Sololá	717	San Juan la Laguna	12	San Juan la Laguna	5	Mayo	2023-02-05T00:00:00	2024-11-08T21:00:00	1	Precipitación	0.2
51552	7	Sololá	717	San Juan la Laguna	12	San Juan la Laguna	5	Mayo	2023-02-05T00:00:00	2024-11-08T21:00:00	8	Radiación solar	0
51553	7	Sololá	717	San Juan la Laguna	12	San Juan la Laguna	5	Mayo	2023-02-05T00:00:00	2024-11-08T22:00:00	2	Temperatura media	16.1
51554	7	Sololá	717	San Juan la Laguna	12	San Juan la Laguna	5	Mayo	2023-02-05T00:00:00	2024-11-08T22:00:00	4	Temperatura máxima	16.1
51555	7	Sololá	717	San Juan la Laguna	12	San Juan la Laguna	5	Mayo	2023-02-05T00:00:00	2024-11-08T22:00:00	3	Temperatura mínima	15.7
51556	7	Sololá	717	San Juan la Laguna	12	San Juan la Laguna	5	Mayo	2023-02-05T00:00:00	2024-11-08T22:00:00	5	Humedad	85
51557	7	Sololá	717	San Juan la Laguna	12	San Juan la Laguna	5	Mayo	2023-02-05T00:00:00	2024-11-08T22:00:00	6	Velocidad del viento	3.2
51558	7	Sololá	717	San Juan la Laguna	12	San Juan la Laguna	5	Mayo	2023-02-05T00:00:00	2024-11-08T22:00:00	7	Dirección del viento	3.22
51559	7	Sololá	717	San Juan la Laguna	12	San Juan la Laguna	5	Mayo	2023-02-05T00:00:00	2024-11-08T22:00:00	1	Precipitación	0
51560	7	Sololá	717	San Juan la Laguna	12	San Juan la Laguna	5	Mayo	2023-02-05T00:00:00	2024-11-08T22:00:00	8	Radiación solar	0
51561	7	Sololá	717	San Juan la Laguna	12	San Juan la Laguna	5	Mayo	2023-02-05T00:00:00	2024-11-08T23:00:00	2	Temperatura media	15.7
51562	7	Sololá	717	San Juan la Laguna	12	San Juan la Laguna	5	Mayo	2023-02-05T00:00:00	2024-11-08T23:00:00	4	Temperatura máxima	16.2
51563	7	Sololá	717	San Juan la Laguna	12	San Juan la Laguna	5	Mayo	2023-02-05T00:00:00	2024-11-08T23:00:00	3	Temperatura mínima	15.6
51564	7	Sololá	717	San Juan la Laguna	12	San Juan la Laguna	5	Mayo	2023-02-05T00:00:00	2024-11-08T23:00:00	5	Humedad	86
51565	7	Sololá	717	San Juan la Laguna	12	San Juan la Laguna	5	Mayo	2023-02-05T00:00:00	2024-11-08T23:00:00	6	Velocidad del viento	3.2
51566	7	Sololá	717	San Juan la Laguna	12	San Juan la Laguna	5	Mayo	2023-02-05T00:00:00	2024-11-08T23:00:00	7	Dirección del viento	3.22
51567	7	Sololá	717	San Juan la Laguna	12	San Juan la Laguna	5	Mayo	2023-02-05T00:00:00	2024-11-08T23:00:00	1	Precipitación	0
51568	7	Sololá	717	San Juan la Laguna	12	San Juan la Laguna	5	Mayo	2023-02-05T00:00:00	2024-11-08T23:00:00	8	Radiación solar	0
51569	7	Sololá	717	San Juan la Laguna	12	San Juan la Laguna	5	Mayo	2023-03-05T00:00:00	2024-11-08T00:00:00	2	Temperatura media	15.8
51570	7	Sololá	717	San Juan la Laguna	12	San Juan la Laguna	5	Mayo	2023-03-05T00:00:00	2024-11-08T00:00:00	4	Temperatura máxima	16.2
51571	7	Sololá	717	San Juan la Laguna	12	San Juan la Laguna	5	Mayo	2023-03-05T00:00:00	2024-11-08T00:00:00	3	Temperatura mínima	15.6
51572	7	Sololá	717	San Juan la Laguna	12	San Juan la Laguna	5	Mayo	2023-03-05T00:00:00	2024-11-08T00:00:00	5	Humedad	85
51573	7	Sololá	717	San Juan la Laguna	12	San Juan la Laguna	5	Mayo	2023-03-05T00:00:00	2024-11-08T00:00:00	6	Velocidad del viento	3.2
51574	7	Sololá	717	San Juan la Laguna	12	San Juan la Laguna	5	Mayo	2023-03-05T00:00:00	2024-11-08T00:00:00	7	Dirección del viento	3.22
51575	7	Sololá	717	San Juan la Laguna	12	San Juan la Laguna	5	Mayo	2023-03-05T00:00:00	2024-11-08T00:00:00	1	Precipitación	0
51576	7	Sololá	717	San Juan la Laguna	12	San Juan la Laguna	5	Mayo	2023-03-05T00:00:00	2024-11-08T00:00:00	8	Radiación solar	0
51577	7	Sololá	717	San Juan la Laguna	12	San Juan la Laguna	5	Mayo	2023-03-05T00:00:00	2024-11-08T01:00:00	2	Temperatura media	15.7
51578	7	Sololá	717	San Juan la Laguna	12	San Juan la Laguna	5	Mayo	2023-03-05T00:00:00	2024-11-08T01:00:00	4	Temperatura máxima	15.8
51579	7	Sololá	717	San Juan la Laguna	12	San Juan la Laguna	5	Mayo	2023-03-05T00:00:00	2024-11-08T01:00:00	3	Temperatura mínima	15.2
51580	7	Sololá	717	San Juan la Laguna	12	San Juan la Laguna	5	Mayo	2023-03-05T00:00:00	2024-11-08T01:00:00	5	Humedad	81
51581	7	Sololá	717	San Juan la Laguna	12	San Juan la Laguna	5	Mayo	2023-03-05T00:00:00	2024-11-08T01:00:00	6	Velocidad del viento	4.8
51582	7	Sololá	717	San Juan la Laguna	12	San Juan la Laguna	5	Mayo	2023-03-05T00:00:00	2024-11-08T01:00:00	7	Dirección del viento	4.83
51583	7	Sololá	717	San Juan la Laguna	12	San Juan la Laguna	5	Mayo	2023-03-05T00:00:00	2024-11-08T01:00:00	1	Precipitación	0
51584	7	Sololá	717	San Juan la Laguna	12	San Juan la Laguna	5	Mayo	2023-03-05T00:00:00	2024-11-08T01:00:00	8	Radiación solar	0
51585	7	Sololá	717	San Juan la Laguna	12	San Juan la Laguna	5	Mayo	2023-03-05T00:00:00	2024-11-08T02:00:00	2	Temperatura media	16.4
51586	7	Sololá	717	San Juan la Laguna	12	San Juan la Laguna	5	Mayo	2023-03-05T00:00:00	2024-11-08T02:00:00	4	Temperatura máxima	16.6
51587	7	Sololá	717	San Juan la Laguna	12	San Juan la Laguna	5	Mayo	2023-03-05T00:00:00	2024-11-08T02:00:00	3	Temperatura mínima	15.7
51588	7	Sololá	717	San Juan la Laguna	12	San Juan la Laguna	5	Mayo	2023-03-05T00:00:00	2024-11-08T02:00:00	5	Humedad	77
51589	7	Sololá	717	San Juan la Laguna	12	San Juan la Laguna	5	Mayo	2023-03-05T00:00:00	2024-11-08T02:00:00	6	Velocidad del viento	4.8
51590	7	Sololá	717	San Juan la Laguna	12	San Juan la Laguna	5	Mayo	2023-03-05T00:00:00	2024-11-08T02:00:00	7	Dirección del viento	4.83
51591	7	Sololá	717	San Juan la Laguna	12	San Juan la Laguna	5	Mayo	2023-03-05T00:00:00	2024-11-08T02:00:00	1	Precipitación	0
51592	7	Sololá	717	San Juan la Laguna	12	San Juan la Laguna	5	Mayo	2023-03-05T00:00:00	2024-11-08T02:00:00	8	Radiación solar	0
51593	7	Sololá	717	San Juan la Laguna	12	San Juan la Laguna	5	Mayo	2023-03-05T00:00:00	2024-11-08T03:00:00	2	Temperatura media	15.7
51594	7	Sololá	717	San Juan la Laguna	12	San Juan la Laguna	5	Mayo	2023-03-05T00:00:00	2024-11-08T03:00:00	4	Temperatura máxima	16.4
51595	7	Sololá	717	San Juan la Laguna	12	San Juan la Laguna	5	Mayo	2023-03-05T00:00:00	2024-11-08T03:00:00	3	Temperatura mínima	15.4
51596	7	Sololá	717	San Juan la Laguna	12	San Juan la Laguna	5	Mayo	2023-03-05T00:00:00	2024-11-08T03:00:00	5	Humedad	78
51597	7	Sololá	717	San Juan la Laguna	12	San Juan la Laguna	5	Mayo	2023-03-05T00:00:00	2024-11-08T03:00:00	6	Velocidad del viento	3.2
51598	7	Sololá	717	San Juan la Laguna	12	San Juan la Laguna	5	Mayo	2023-03-05T00:00:00	2024-11-08T03:00:00	7	Dirección del viento	3.22
51599	7	Sololá	717	San Juan la Laguna	12	San Juan la Laguna	5	Mayo	2023-03-05T00:00:00	2024-11-08T03:00:00	1	Precipitación	0
51600	7	Sololá	717	San Juan la Laguna	12	San Juan la Laguna	5	Mayo	2023-03-05T00:00:00	2024-11-08T03:00:00	8	Radiación solar	0
51601	7	Sololá	717	San Juan la Laguna	12	San Juan la Laguna	5	Mayo	2023-03-05T00:00:00	2024-11-08T04:00:00	2	Temperatura media	14.7
51602	7	Sololá	717	San Juan la Laguna	12	San Juan la Laguna	5	Mayo	2023-03-05T00:00:00	2024-11-08T04:00:00	4	Temperatura máxima	15.9
51603	7	Sololá	717	San Juan la Laguna	12	San Juan la Laguna	5	Mayo	2023-03-05T00:00:00	2024-11-08T04:00:00	3	Temperatura mínima	14.7
51604	7	Sololá	717	San Juan la Laguna	12	San Juan la Laguna	5	Mayo	2023-03-05T00:00:00	2024-11-08T04:00:00	5	Humedad	81
51605	7	Sololá	717	San Juan la Laguna	12	San Juan la Laguna	5	Mayo	2023-03-05T00:00:00	2024-11-08T04:00:00	6	Velocidad del viento	3.2
51606	7	Sololá	717	San Juan la Laguna	12	San Juan la Laguna	5	Mayo	2023-03-05T00:00:00	2024-11-08T04:00:00	7	Dirección del viento	3.22
51607	7	Sololá	717	San Juan la Laguna	12	San Juan la Laguna	5	Mayo	2023-03-05T00:00:00	2024-11-08T04:00:00	1	Precipitación	0
51608	7	Sololá	717	San Juan la Laguna	12	San Juan la Laguna	5	Mayo	2023-03-05T00:00:00	2024-11-08T04:00:00	8	Radiación solar	0
51609	7	Sololá	717	San Juan la Laguna	12	San Juan la Laguna	5	Mayo	2023-03-05T00:00:00	2024-11-08T05:00:00	2	Temperatura media	15.3
51610	7	Sololá	717	San Juan la Laguna	12	San Juan la Laguna	5	Mayo	2023-03-05T00:00:00	2024-11-08T05:00:00	4	Temperatura máxima	15.4
51611	7	Sololá	717	San Juan la Laguna	12	San Juan la Laguna	5	Mayo	2023-03-05T00:00:00	2024-11-08T05:00:00	3	Temperatura mínima	14.4
51612	7	Sololá	717	San Juan la Laguna	12	San Juan la Laguna	5	Mayo	2023-03-05T00:00:00	2024-11-08T05:00:00	5	Humedad	77
51613	7	Sololá	717	San Juan la Laguna	12	San Juan la Laguna	5	Mayo	2023-03-05T00:00:00	2024-11-08T05:00:00	6	Velocidad del viento	4.8
51614	7	Sololá	717	San Juan la Laguna	12	San Juan la Laguna	5	Mayo	2023-03-05T00:00:00	2024-11-08T05:00:00	7	Dirección del viento	4.83
51615	7	Sololá	717	San Juan la Laguna	12	San Juan la Laguna	5	Mayo	2023-03-05T00:00:00	2024-11-08T05:00:00	1	Precipitación	0
51616	7	Sololá	717	San Juan la Laguna	12	San Juan la Laguna	5	Mayo	2023-03-05T00:00:00	2024-11-08T05:00:00	8	Radiación solar	0
51617	7	Sololá	717	San Juan la Laguna	12	San Juan la Laguna	5	Mayo	2023-03-05T00:00:00	2024-11-08T06:00:00	2	Temperatura media	14.6
51618	7	Sololá	717	San Juan la Laguna	12	San Juan la Laguna	5	Mayo	2023-03-05T00:00:00	2024-11-08T06:00:00	4	Temperatura máxima	15.3
51619	7	Sololá	717	San Juan la Laguna	12	San Juan la Laguna	5	Mayo	2023-03-05T00:00:00	2024-11-08T06:00:00	3	Temperatura mínima	14.6
51620	7	Sololá	717	San Juan la Laguna	12	San Juan la Laguna	5	Mayo	2023-03-05T00:00:00	2024-11-08T06:00:00	5	Humedad	81
51621	7	Sololá	717	San Juan la Laguna	12	San Juan la Laguna	5	Mayo	2023-03-05T00:00:00	2024-11-08T06:00:00	6	Velocidad del viento	1.6
51622	7	Sololá	717	San Juan la Laguna	12	San Juan la Laguna	5	Mayo	2023-03-05T00:00:00	2024-11-08T06:00:00	7	Dirección del viento	1.61
51623	7	Sololá	717	San Juan la Laguna	12	San Juan la Laguna	5	Mayo	2023-03-05T00:00:00	2024-11-08T06:00:00	1	Precipitación	0
51624	7	Sololá	717	San Juan la Laguna	12	San Juan la Laguna	5	Mayo	2023-03-05T00:00:00	2024-11-08T06:00:00	8	Radiación solar	2
51625	7	Sololá	717	San Juan la Laguna	12	San Juan la Laguna	5	Mayo	2023-03-05T00:00:00	2024-11-08T07:00:00	2	Temperatura media	16
51626	7	Sololá	717	San Juan la Laguna	12	San Juan la Laguna	5	Mayo	2023-03-05T00:00:00	2024-11-08T07:00:00	4	Temperatura máxima	16
51627	7	Sololá	717	San Juan la Laguna	12	San Juan la Laguna	5	Mayo	2023-03-05T00:00:00	2024-11-08T07:00:00	3	Temperatura mínima	14.3
51628	7	Sololá	717	San Juan la Laguna	12	San Juan la Laguna	5	Mayo	2023-03-05T00:00:00	2024-11-08T07:00:00	5	Humedad	80
51629	7	Sololá	717	San Juan la Laguna	12	San Juan la Laguna	5	Mayo	2023-03-05T00:00:00	2024-11-08T07:00:00	6	Velocidad del viento	1.6
51630	7	Sololá	717	San Juan la Laguna	12	San Juan la Laguna	5	Mayo	2023-03-05T00:00:00	2024-11-08T07:00:00	7	Dirección del viento	1.61
51631	7	Sololá	717	San Juan la Laguna	12	San Juan la Laguna	5	Mayo	2023-03-05T00:00:00	2024-11-08T07:00:00	1	Precipitación	0
51632	7	Sololá	717	San Juan la Laguna	12	San Juan la Laguna	5	Mayo	2023-03-05T00:00:00	2024-11-08T07:00:00	8	Radiación solar	70
51633	7	Sololá	717	San Juan la Laguna	12	San Juan la Laguna	5	Mayo	2023-03-05T00:00:00	2024-11-08T08:00:00	2	Temperatura media	20.6
51634	7	Sololá	717	San Juan la Laguna	12	San Juan la Laguna	5	Mayo	2023-03-05T00:00:00	2024-11-08T08:00:00	4	Temperatura máxima	20.6
51635	7	Sololá	717	San Juan la Laguna	12	San Juan la Laguna	5	Mayo	2023-03-05T00:00:00	2024-11-08T08:00:00	3	Temperatura mínima	16
51636	7	Sololá	717	San Juan la Laguna	12	San Juan la Laguna	5	Mayo	2023-03-05T00:00:00	2024-11-08T08:00:00	5	Humedad	69
51637	7	Sololá	717	San Juan la Laguna	12	San Juan la Laguna	5	Mayo	2023-03-05T00:00:00	2024-11-08T08:00:00	6	Velocidad del viento	0
51638	7	Sololá	717	San Juan la Laguna	12	San Juan la Laguna	5	Mayo	2023-03-05T00:00:00	2024-11-08T08:00:00	7	Dirección del viento	0
51639	7	Sololá	717	San Juan la Laguna	12	San Juan la Laguna	5	Mayo	2023-03-05T00:00:00	2024-11-08T08:00:00	1	Precipitación	0
51640	7	Sololá	717	San Juan la Laguna	12	San Juan la Laguna	5	Mayo	2023-03-05T00:00:00	2024-11-08T08:00:00	8	Radiación solar	324
51641	7	Sololá	717	San Juan la Laguna	12	San Juan la Laguna	5	Mayo	2023-03-05T00:00:00	2024-11-08T09:00:00	2	Temperatura media	22.1
51642	7	Sololá	717	San Juan la Laguna	12	San Juan la Laguna	5	Mayo	2023-03-05T00:00:00	2024-11-08T09:00:00	4	Temperatura máxima	22.8
51643	7	Sololá	717	San Juan la Laguna	12	San Juan la Laguna	5	Mayo	2023-03-05T00:00:00	2024-11-08T09:00:00	3	Temperatura mínima	20.6
51644	7	Sololá	717	San Juan la Laguna	12	San Juan la Laguna	5	Mayo	2023-03-05T00:00:00	2024-11-08T09:00:00	5	Humedad	65
51645	7	Sololá	717	San Juan la Laguna	12	San Juan la Laguna	5	Mayo	2023-03-05T00:00:00	2024-11-08T09:00:00	6	Velocidad del viento	1.6
51646	7	Sololá	717	San Juan la Laguna	12	San Juan la Laguna	5	Mayo	2023-03-05T00:00:00	2024-11-08T09:00:00	7	Dirección del viento	1.61
51647	7	Sololá	717	San Juan la Laguna	12	San Juan la Laguna	5	Mayo	2023-03-05T00:00:00	2024-11-08T09:00:00	1	Precipitación	0
51648	7	Sololá	717	San Juan la Laguna	12	San Juan la Laguna	5	Mayo	2023-03-05T00:00:00	2024-11-08T09:00:00	8	Radiación solar	535
51649	7	Sololá	717	San Juan la Laguna	12	San Juan la Laguna	5	Mayo	2023-03-05T00:00:00	2024-11-08T10:00:00	2	Temperatura media	22.2
51650	7	Sololá	717	San Juan la Laguna	12	San Juan la Laguna	5	Mayo	2023-03-05T00:00:00	2024-11-08T10:00:00	4	Temperatura máxima	22.6
51651	7	Sololá	717	San Juan la Laguna	12	San Juan la Laguna	5	Mayo	2023-03-05T00:00:00	2024-11-08T10:00:00	3	Temperatura mínima	21.9
51652	7	Sololá	717	San Juan la Laguna	12	San Juan la Laguna	5	Mayo	2023-03-05T00:00:00	2024-11-08T10:00:00	5	Humedad	65
51653	7	Sololá	717	San Juan la Laguna	12	San Juan la Laguna	5	Mayo	2023-03-05T00:00:00	2024-11-08T10:00:00	6	Velocidad del viento	1.6
51654	7	Sololá	717	San Juan la Laguna	12	San Juan la Laguna	5	Mayo	2023-03-05T00:00:00	2024-11-08T10:00:00	7	Dirección del viento	1.61
51655	7	Sololá	717	San Juan la Laguna	12	San Juan la Laguna	5	Mayo	2023-03-05T00:00:00	2024-11-08T10:00:00	1	Precipitación	0
51656	7	Sololá	717	San Juan la Laguna	12	San Juan la Laguna	5	Mayo	2023-03-05T00:00:00	2024-11-08T10:00:00	8	Radiación solar	716
51657	7	Sololá	717	San Juan la Laguna	12	San Juan la Laguna	5	Mayo	2023-03-05T00:00:00	2024-11-08T11:00:00	2	Temperatura media	23.6
51658	7	Sololá	717	San Juan la Laguna	12	San Juan la Laguna	5	Mayo	2023-03-05T00:00:00	2024-11-08T11:00:00	4	Temperatura máxima	23.6
51659	7	Sololá	717	San Juan la Laguna	12	San Juan la Laguna	5	Mayo	2023-03-05T00:00:00	2024-11-08T11:00:00	3	Temperatura mínima	22.2
51660	7	Sololá	717	San Juan la Laguna	12	San Juan la Laguna	5	Mayo	2023-03-05T00:00:00	2024-11-08T11:00:00	5	Humedad	61
51661	7	Sololá	717	San Juan la Laguna	12	San Juan la Laguna	5	Mayo	2023-03-05T00:00:00	2024-11-08T11:00:00	6	Velocidad del viento	3.2
51662	7	Sololá	717	San Juan la Laguna	12	San Juan la Laguna	5	Mayo	2023-03-05T00:00:00	2024-11-08T11:00:00	7	Dirección del viento	3.22
51663	7	Sololá	717	San Juan la Laguna	12	San Juan la Laguna	5	Mayo	2023-03-05T00:00:00	2024-11-08T11:00:00	1	Precipitación	0
51664	7	Sololá	717	San Juan la Laguna	12	San Juan la Laguna	5	Mayo	2023-03-05T00:00:00	2024-11-08T11:00:00	8	Radiación solar	840
51665	7	Sololá	717	San Juan la Laguna	12	San Juan la Laguna	5	Mayo	2023-03-05T00:00:00	2024-11-08T12:00:00	2	Temperatura media	24.8
51666	7	Sololá	717	San Juan la Laguna	12	San Juan la Laguna	5	Mayo	2023-03-05T00:00:00	2024-11-08T12:00:00	4	Temperatura máxima	24.8
51667	7	Sololá	717	San Juan la Laguna	12	San Juan la Laguna	5	Mayo	2023-03-05T00:00:00	2024-11-08T12:00:00	3	Temperatura mínima	23.4
51668	7	Sololá	717	San Juan la Laguna	12	San Juan la Laguna	5	Mayo	2023-03-05T00:00:00	2024-11-08T12:00:00	5	Humedad	62
51669	7	Sololá	717	San Juan la Laguna	12	San Juan la Laguna	5	Mayo	2023-03-05T00:00:00	2024-11-08T12:00:00	6	Velocidad del viento	1.6
51670	7	Sololá	717	San Juan la Laguna	12	San Juan la Laguna	5	Mayo	2023-03-05T00:00:00	2024-11-08T12:00:00	7	Dirección del viento	1.61
51671	7	Sololá	717	San Juan la Laguna	12	San Juan la Laguna	5	Mayo	2023-03-05T00:00:00	2024-11-08T12:00:00	1	Precipitación	0
51672	7	Sololá	717	San Juan la Laguna	12	San Juan la Laguna	5	Mayo	2023-03-05T00:00:00	2024-11-08T12:00:00	8	Radiación solar	911
51673	7	Sololá	717	San Juan la Laguna	12	San Juan la Laguna	5	Mayo	2023-03-05T00:00:00	2024-11-08T13:00:00	2	Temperatura media	25.2
51674	7	Sololá	717	San Juan la Laguna	12	San Juan la Laguna	5	Mayo	2023-03-05T00:00:00	2024-11-08T13:00:00	4	Temperatura máxima	25.3
51675	7	Sololá	717	San Juan la Laguna	12	San Juan la Laguna	5	Mayo	2023-03-05T00:00:00	2024-11-08T13:00:00	3	Temperatura mínima	24.4
51676	7	Sololá	717	San Juan la Laguna	12	San Juan la Laguna	5	Mayo	2023-03-05T00:00:00	2024-11-08T13:00:00	5	Humedad	66
51677	7	Sololá	717	San Juan la Laguna	12	San Juan la Laguna	5	Mayo	2023-03-05T00:00:00	2024-11-08T13:00:00	6	Velocidad del viento	4.8
51678	7	Sololá	717	San Juan la Laguna	12	San Juan la Laguna	5	Mayo	2023-03-05T00:00:00	2024-11-08T13:00:00	7	Dirección del viento	4.83
51679	7	Sololá	717	San Juan la Laguna	12	San Juan la Laguna	5	Mayo	2023-03-05T00:00:00	2024-11-08T13:00:00	1	Precipitación	0
51680	7	Sololá	717	San Juan la Laguna	12	San Juan la Laguna	5	Mayo	2023-03-05T00:00:00	2024-11-08T13:00:00	8	Radiación solar	953
51681	7	Sololá	717	San Juan la Laguna	12	San Juan la Laguna	5	Mayo	2023-03-05T00:00:00	2024-11-08T14:00:00	2	Temperatura media	24.4
51682	7	Sololá	717	San Juan la Laguna	12	San Juan la Laguna	5	Mayo	2023-03-05T00:00:00	2024-11-08T14:00:00	4	Temperatura máxima	25.2
51683	7	Sololá	717	San Juan la Laguna	12	San Juan la Laguna	5	Mayo	2023-03-05T00:00:00	2024-11-08T14:00:00	3	Temperatura mínima	24.4
51684	7	Sololá	717	San Juan la Laguna	12	San Juan la Laguna	5	Mayo	2023-03-05T00:00:00	2024-11-08T14:00:00	5	Humedad	70
51685	7	Sololá	717	San Juan la Laguna	12	San Juan la Laguna	5	Mayo	2023-03-05T00:00:00	2024-11-08T14:00:00	6	Velocidad del viento	1.6
51686	7	Sololá	717	San Juan la Laguna	12	San Juan la Laguna	5	Mayo	2023-03-05T00:00:00	2024-11-08T14:00:00	7	Dirección del viento	1.61
51687	7	Sololá	717	San Juan la Laguna	12	San Juan la Laguna	5	Mayo	2023-03-05T00:00:00	2024-11-08T14:00:00	1	Precipitación	0
51688	7	Sololá	717	San Juan la Laguna	12	San Juan la Laguna	5	Mayo	2023-03-05T00:00:00	2024-11-08T14:00:00	8	Radiación solar	770
51689	7	Sololá	717	San Juan la Laguna	12	San Juan la Laguna	5	Mayo	2023-03-05T00:00:00	2024-11-08T15:00:00	2	Temperatura media	23.3
51690	7	Sololá	717	San Juan la Laguna	12	San Juan la Laguna	5	Mayo	2023-03-05T00:00:00	2024-11-08T15:00:00	4	Temperatura máxima	24.8
51691	7	Sololá	717	San Juan la Laguna	12	San Juan la Laguna	5	Mayo	2023-03-05T00:00:00	2024-11-08T15:00:00	3	Temperatura mínima	23.3
51692	7	Sololá	717	San Juan la Laguna	12	San Juan la Laguna	5	Mayo	2023-03-05T00:00:00	2024-11-08T15:00:00	5	Humedad	74
51693	7	Sololá	717	San Juan la Laguna	12	San Juan la Laguna	5	Mayo	2023-03-05T00:00:00	2024-11-08T15:00:00	6	Velocidad del viento	4.8
51694	7	Sololá	717	San Juan la Laguna	12	San Juan la Laguna	5	Mayo	2023-03-05T00:00:00	2024-11-08T15:00:00	7	Dirección del viento	4.83
51695	7	Sololá	717	San Juan la Laguna	12	San Juan la Laguna	5	Mayo	2023-03-05T00:00:00	2024-11-08T15:00:00	1	Precipitación	0
51696	7	Sololá	717	San Juan la Laguna	12	San Juan la Laguna	5	Mayo	2023-03-05T00:00:00	2024-11-08T15:00:00	8	Radiación solar	595
51697	7	Sololá	717	San Juan la Laguna	12	San Juan la Laguna	5	Mayo	2023-03-05T00:00:00	2024-11-08T16:00:00	2	Temperatura media	23.7
51698	7	Sololá	717	San Juan la Laguna	12	San Juan la Laguna	5	Mayo	2023-03-05T00:00:00	2024-11-08T16:00:00	4	Temperatura máxima	24.1
51699	7	Sololá	717	San Juan la Laguna	12	San Juan la Laguna	5	Mayo	2023-03-05T00:00:00	2024-11-08T16:00:00	3	Temperatura mínima	22.8
51700	7	Sololá	717	San Juan la Laguna	12	San Juan la Laguna	5	Mayo	2023-03-05T00:00:00	2024-11-08T16:00:00	5	Humedad	73
51701	7	Sololá	717	San Juan la Laguna	12	San Juan la Laguna	5	Mayo	2023-03-05T00:00:00	2024-11-08T16:00:00	6	Velocidad del viento	3.2
51702	7	Sololá	717	San Juan la Laguna	12	San Juan la Laguna	5	Mayo	2023-03-05T00:00:00	2024-11-08T16:00:00	7	Dirección del viento	3.22
51703	7	Sololá	717	San Juan la Laguna	12	San Juan la Laguna	5	Mayo	2023-03-05T00:00:00	2024-11-08T16:00:00	1	Precipitación	0
51704	7	Sololá	717	San Juan la Laguna	12	San Juan la Laguna	5	Mayo	2023-03-05T00:00:00	2024-11-08T16:00:00	8	Radiación solar	350
51705	7	Sololá	717	San Juan la Laguna	12	San Juan la Laguna	5	Mayo	2023-03-05T00:00:00	2024-11-08T17:00:00	2	Temperatura media	23.3
51706	7	Sololá	717	San Juan la Laguna	12	San Juan la Laguna	5	Mayo	2023-03-05T00:00:00	2024-11-08T17:00:00	4	Temperatura máxima	24.2
51707	7	Sololá	717	San Juan la Laguna	12	San Juan la Laguna	5	Mayo	2023-03-05T00:00:00	2024-11-08T17:00:00	3	Temperatura mínima	23.2
51708	7	Sololá	717	San Juan la Laguna	12	San Juan la Laguna	5	Mayo	2023-03-05T00:00:00	2024-11-08T17:00:00	5	Humedad	75
51709	7	Sololá	717	San Juan la Laguna	12	San Juan la Laguna	5	Mayo	2023-03-05T00:00:00	2024-11-08T17:00:00	6	Velocidad del viento	1.6
51710	7	Sololá	717	San Juan la Laguna	12	San Juan la Laguna	5	Mayo	2023-03-05T00:00:00	2024-11-08T17:00:00	7	Dirección del viento	1.61
51711	7	Sololá	717	San Juan la Laguna	12	San Juan la Laguna	5	Mayo	2023-03-05T00:00:00	2024-11-08T17:00:00	1	Precipitación	0
51712	7	Sololá	717	San Juan la Laguna	12	San Juan la Laguna	5	Mayo	2023-03-05T00:00:00	2024-11-08T17:00:00	8	Radiación solar	303
51713	7	Sololá	717	San Juan la Laguna	12	San Juan la Laguna	5	Mayo	2023-03-05T00:00:00	2024-11-08T18:00:00	2	Temperatura media	22.2
51714	7	Sololá	717	San Juan la Laguna	12	San Juan la Laguna	5	Mayo	2023-03-05T00:00:00	2024-11-08T18:00:00	4	Temperatura máxima	23.3
51715	7	Sololá	717	San Juan la Laguna	12	San Juan la Laguna	5	Mayo	2023-03-05T00:00:00	2024-11-08T18:00:00	3	Temperatura mínima	22.2
51716	7	Sololá	717	San Juan la Laguna	12	San Juan la Laguna	5	Mayo	2023-03-05T00:00:00	2024-11-08T18:00:00	5	Humedad	81
51717	7	Sololá	717	San Juan la Laguna	12	San Juan la Laguna	5	Mayo	2023-03-05T00:00:00	2024-11-08T18:00:00	6	Velocidad del viento	1.6
51718	7	Sololá	717	San Juan la Laguna	12	San Juan la Laguna	5	Mayo	2023-03-05T00:00:00	2024-11-08T18:00:00	7	Dirección del viento	1.61
51719	7	Sololá	717	San Juan la Laguna	12	San Juan la Laguna	5	Mayo	2023-03-05T00:00:00	2024-11-08T18:00:00	1	Precipitación	0
51720	7	Sololá	717	San Juan la Laguna	12	San Juan la Laguna	5	Mayo	2023-03-05T00:00:00	2024-11-08T18:00:00	8	Radiación solar	79
51721	7	Sololá	717	San Juan la Laguna	12	San Juan la Laguna	5	Mayo	2023-03-05T00:00:00	2024-11-08T19:00:00	2	Temperatura media	20.4
51722	7	Sololá	717	San Juan la Laguna	12	San Juan la Laguna	5	Mayo	2023-03-05T00:00:00	2024-11-08T19:00:00	4	Temperatura máxima	22.2
51723	7	Sololá	717	San Juan la Laguna	12	San Juan la Laguna	5	Mayo	2023-03-05T00:00:00	2024-11-08T19:00:00	3	Temperatura mínima	20.4
51724	7	Sololá	717	San Juan la Laguna	12	San Juan la Laguna	5	Mayo	2023-03-05T00:00:00	2024-11-08T19:00:00	5	Humedad	87
51725	7	Sololá	717	San Juan la Laguna	12	San Juan la Laguna	5	Mayo	2023-03-05T00:00:00	2024-11-08T19:00:00	6	Velocidad del viento	1.6
51726	7	Sololá	717	San Juan la Laguna	12	San Juan la Laguna	5	Mayo	2023-03-05T00:00:00	2024-11-08T19:00:00	7	Dirección del viento	1.61
51727	7	Sololá	717	San Juan la Laguna	12	San Juan la Laguna	5	Mayo	2023-03-05T00:00:00	2024-11-08T19:00:00	1	Precipitación	0
51728	7	Sololá	717	San Juan la Laguna	12	San Juan la Laguna	5	Mayo	2023-03-05T00:00:00	2024-11-08T19:00:00	8	Radiación solar	0
51729	7	Sololá	717	San Juan la Laguna	12	San Juan la Laguna	5	Mayo	2023-03-05T00:00:00	2024-11-08T20:00:00	2	Temperatura media	19.3
51730	7	Sololá	717	San Juan la Laguna	12	San Juan la Laguna	5	Mayo	2023-03-05T00:00:00	2024-11-08T20:00:00	4	Temperatura máxima	20.4
51731	7	Sololá	717	San Juan la Laguna	12	San Juan la Laguna	5	Mayo	2023-03-05T00:00:00	2024-11-08T20:00:00	3	Temperatura mínima	19.3
51732	7	Sololá	717	San Juan la Laguna	12	San Juan la Laguna	5	Mayo	2023-03-05T00:00:00	2024-11-08T20:00:00	5	Humedad	83
51733	7	Sololá	717	San Juan la Laguna	12	San Juan la Laguna	5	Mayo	2023-03-05T00:00:00	2024-11-08T20:00:00	6	Velocidad del viento	1.6
51734	7	Sololá	717	San Juan la Laguna	12	San Juan la Laguna	5	Mayo	2023-03-05T00:00:00	2024-11-08T20:00:00	7	Dirección del viento	1.61
51735	7	Sololá	717	San Juan la Laguna	12	San Juan la Laguna	5	Mayo	2023-03-05T00:00:00	2024-11-08T20:00:00	1	Precipitación	0
51736	7	Sololá	717	San Juan la Laguna	12	San Juan la Laguna	5	Mayo	2023-03-05T00:00:00	2024-11-08T20:00:00	8	Radiación solar	0
51737	7	Sololá	717	San Juan la Laguna	12	San Juan la Laguna	5	Mayo	2023-03-05T00:00:00	2024-11-08T21:00:00	2	Temperatura media	18.6
51738	7	Sololá	717	San Juan la Laguna	12	San Juan la Laguna	5	Mayo	2023-03-05T00:00:00	2024-11-08T21:00:00	4	Temperatura máxima	19.3
51739	7	Sololá	717	San Juan la Laguna	12	San Juan la Laguna	5	Mayo	2023-03-05T00:00:00	2024-11-08T21:00:00	3	Temperatura mínima	18.5
51740	7	Sololá	717	San Juan la Laguna	12	San Juan la Laguna	5	Mayo	2023-03-05T00:00:00	2024-11-08T21:00:00	5	Humedad	89
51741	7	Sololá	717	San Juan la Laguna	12	San Juan la Laguna	5	Mayo	2023-03-05T00:00:00	2024-11-08T21:00:00	6	Velocidad del viento	1.6
51742	7	Sololá	717	San Juan la Laguna	12	San Juan la Laguna	5	Mayo	2023-03-05T00:00:00	2024-11-08T21:00:00	7	Dirección del viento	1.61
51743	7	Sololá	717	San Juan la Laguna	12	San Juan la Laguna	5	Mayo	2023-03-05T00:00:00	2024-11-08T21:00:00	1	Precipitación	0
51744	7	Sololá	717	San Juan la Laguna	12	San Juan la Laguna	5	Mayo	2023-03-05T00:00:00	2024-11-08T21:00:00	8	Radiación solar	0
51745	7	Sololá	717	San Juan la Laguna	12	San Juan la Laguna	5	Mayo	2023-03-05T00:00:00	2024-11-08T22:00:00	2	Temperatura media	18.7
51746	7	Sololá	717	San Juan la Laguna	12	San Juan la Laguna	5	Mayo	2023-03-05T00:00:00	2024-11-08T22:00:00	4	Temperatura máxima	18.9
51747	7	Sololá	717	San Juan la Laguna	12	San Juan la Laguna	5	Mayo	2023-03-05T00:00:00	2024-11-08T22:00:00	3	Temperatura mínima	18.1
51748	7	Sololá	717	San Juan la Laguna	12	San Juan la Laguna	5	Mayo	2023-03-05T00:00:00	2024-11-08T22:00:00	5	Humedad	84
51749	7	Sololá	717	San Juan la Laguna	12	San Juan la Laguna	5	Mayo	2023-03-05T00:00:00	2024-11-08T22:00:00	6	Velocidad del viento	3.2
51750	7	Sololá	717	San Juan la Laguna	12	San Juan la Laguna	5	Mayo	2023-03-05T00:00:00	2024-11-08T22:00:00	7	Dirección del viento	3.22
51751	7	Sololá	717	San Juan la Laguna	12	San Juan la Laguna	5	Mayo	2023-03-05T00:00:00	2024-11-08T22:00:00	1	Precipitación	0
51752	7	Sololá	717	San Juan la Laguna	12	San Juan la Laguna	5	Mayo	2023-03-05T00:00:00	2024-11-08T22:00:00	8	Radiación solar	0
51753	7	Sololá	717	San Juan la Laguna	12	San Juan la Laguna	5	Mayo	2023-03-05T00:00:00	2024-11-08T23:00:00	2	Temperatura media	18.5
51754	7	Sololá	717	San Juan la Laguna	12	San Juan la Laguna	5	Mayo	2023-03-05T00:00:00	2024-11-08T23:00:00	4	Temperatura máxima	18.8
51755	7	Sololá	717	San Juan la Laguna	12	San Juan la Laguna	5	Mayo	2023-03-05T00:00:00	2024-11-08T23:00:00	3	Temperatura mínima	18.4
51756	7	Sololá	717	San Juan la Laguna	12	San Juan la Laguna	5	Mayo	2023-03-05T00:00:00	2024-11-08T23:00:00	5	Humedad	80
51757	7	Sololá	717	San Juan la Laguna	12	San Juan la Laguna	5	Mayo	2023-03-05T00:00:00	2024-11-08T23:00:00	6	Velocidad del viento	3.2
51758	7	Sololá	717	San Juan la Laguna	12	San Juan la Laguna	5	Mayo	2023-03-05T00:00:00	2024-11-08T23:00:00	7	Dirección del viento	3.22
51759	7	Sololá	717	San Juan la Laguna	12	San Juan la Laguna	5	Mayo	2023-03-05T00:00:00	2024-11-08T23:00:00	1	Precipitación	0
51760	7	Sololá	717	San Juan la Laguna	12	San Juan la Laguna	5	Mayo	2023-03-05T00:00:00	2024-11-08T23:00:00	8	Radiación solar	0
51761	7	Sololá	717	San Juan la Laguna	12	San Juan la Laguna	5	Mayo	2023-04-05T00:00:00	2024-11-08T00:00:00	2	Temperatura media	17.4
51762	7	Sololá	717	San Juan la Laguna	12	San Juan la Laguna	5	Mayo	2023-04-05T00:00:00	2024-11-08T00:00:00	4	Temperatura máxima	18.5
51763	7	Sololá	717	San Juan la Laguna	12	San Juan la Laguna	5	Mayo	2023-04-05T00:00:00	2024-11-08T00:00:00	3	Temperatura mínima	17.4
51764	7	Sololá	717	San Juan la Laguna	12	San Juan la Laguna	5	Mayo	2023-04-05T00:00:00	2024-11-08T00:00:00	5	Humedad	84
51765	7	Sololá	717	San Juan la Laguna	12	San Juan la Laguna	5	Mayo	2023-04-05T00:00:00	2024-11-08T00:00:00	6	Velocidad del viento	3.2
51766	7	Sololá	717	San Juan la Laguna	12	San Juan la Laguna	5	Mayo	2023-04-05T00:00:00	2024-11-08T00:00:00	7	Dirección del viento	3.22
51767	7	Sololá	717	San Juan la Laguna	12	San Juan la Laguna	5	Mayo	2023-04-05T00:00:00	2024-11-08T00:00:00	1	Precipitación	0
51768	7	Sololá	717	San Juan la Laguna	12	San Juan la Laguna	5	Mayo	2023-04-05T00:00:00	2024-11-08T00:00:00	8	Radiación solar	0
51769	7	Sololá	717	San Juan la Laguna	12	San Juan la Laguna	5	Mayo	2023-04-05T00:00:00	2024-11-08T01:00:00	2	Temperatura media	17.5
51770	7	Sololá	717	San Juan la Laguna	12	San Juan la Laguna	5	Mayo	2023-04-05T00:00:00	2024-11-08T01:00:00	4	Temperatura máxima	17.5
51771	7	Sololá	717	San Juan la Laguna	12	San Juan la Laguna	5	Mayo	2023-04-05T00:00:00	2024-11-08T01:00:00	3	Temperatura mínima	17.3
51772	7	Sololá	717	San Juan la Laguna	12	San Juan la Laguna	5	Mayo	2023-04-05T00:00:00	2024-11-08T01:00:00	5	Humedad	87
51773	7	Sololá	717	San Juan la Laguna	12	San Juan la Laguna	5	Mayo	2023-04-05T00:00:00	2024-11-08T01:00:00	6	Velocidad del viento	1.6
51774	7	Sololá	717	San Juan la Laguna	12	San Juan la Laguna	5	Mayo	2023-04-05T00:00:00	2024-11-08T01:00:00	7	Dirección del viento	1.61
51775	7	Sololá	717	San Juan la Laguna	12	San Juan la Laguna	5	Mayo	2023-04-05T00:00:00	2024-11-08T01:00:00	1	Precipitación	0
51776	7	Sololá	717	San Juan la Laguna	12	San Juan la Laguna	5	Mayo	2023-04-05T00:00:00	2024-11-08T01:00:00	8	Radiación solar	0
51777	7	Sololá	717	San Juan la Laguna	12	San Juan la Laguna	5	Mayo	2023-04-05T00:00:00	2024-11-08T02:00:00	2	Temperatura media	17.2
51778	7	Sololá	717	San Juan la Laguna	12	San Juan la Laguna	5	Mayo	2023-04-05T00:00:00	2024-11-08T02:00:00	4	Temperatura máxima	17.6
51779	7	Sololá	717	San Juan la Laguna	12	San Juan la Laguna	5	Mayo	2023-04-05T00:00:00	2024-11-08T02:00:00	3	Temperatura mínima	17.2
51780	7	Sololá	717	San Juan la Laguna	12	San Juan la Laguna	5	Mayo	2023-04-05T00:00:00	2024-11-08T02:00:00	5	Humedad	87
51781	7	Sololá	717	San Juan la Laguna	12	San Juan la Laguna	5	Mayo	2023-04-05T00:00:00	2024-11-08T02:00:00	6	Velocidad del viento	1.6
51782	7	Sololá	717	San Juan la Laguna	12	San Juan la Laguna	5	Mayo	2023-04-05T00:00:00	2024-11-08T02:00:00	7	Dirección del viento	1.61
51783	7	Sololá	717	San Juan la Laguna	12	San Juan la Laguna	5	Mayo	2023-04-05T00:00:00	2024-11-08T02:00:00	1	Precipitación	0
51784	7	Sololá	717	San Juan la Laguna	12	San Juan la Laguna	5	Mayo	2023-04-05T00:00:00	2024-11-08T02:00:00	8	Radiación solar	0
51785	7	Sololá	717	San Juan la Laguna	12	San Juan la Laguna	5	Mayo	2023-04-05T00:00:00	2024-11-08T03:00:00	2	Temperatura media	16.8
51786	7	Sololá	717	San Juan la Laguna	12	San Juan la Laguna	5	Mayo	2023-04-05T00:00:00	2024-11-08T03:00:00	4	Temperatura máxima	17.3
51787	7	Sololá	717	San Juan la Laguna	12	San Juan la Laguna	5	Mayo	2023-04-05T00:00:00	2024-11-08T03:00:00	3	Temperatura mínima	16.7
51788	7	Sololá	717	San Juan la Laguna	12	San Juan la Laguna	5	Mayo	2023-04-05T00:00:00	2024-11-08T03:00:00	5	Humedad	85
51789	7	Sololá	717	San Juan la Laguna	12	San Juan la Laguna	5	Mayo	2023-04-05T00:00:00	2024-11-08T03:00:00	6	Velocidad del viento	3.2
51790	7	Sololá	717	San Juan la Laguna	12	San Juan la Laguna	5	Mayo	2023-04-05T00:00:00	2024-11-08T03:00:00	7	Dirección del viento	3.22
51791	7	Sololá	717	San Juan la Laguna	12	San Juan la Laguna	5	Mayo	2023-04-05T00:00:00	2024-11-08T03:00:00	1	Precipitación	0
51792	7	Sololá	717	San Juan la Laguna	12	San Juan la Laguna	5	Mayo	2023-04-05T00:00:00	2024-11-08T03:00:00	8	Radiación solar	0
51793	7	Sololá	717	San Juan la Laguna	12	San Juan la Laguna	5	Mayo	2023-04-05T00:00:00	2024-11-08T04:00:00	2	Temperatura media	17.4
51794	7	Sololá	717	San Juan la Laguna	12	San Juan la Laguna	5	Mayo	2023-04-05T00:00:00	2024-11-08T04:00:00	4	Temperatura máxima	17.4
51795	7	Sololá	717	San Juan la Laguna	12	San Juan la Laguna	5	Mayo	2023-04-05T00:00:00	2024-11-08T04:00:00	3	Temperatura mínima	16.9
51796	7	Sololá	717	San Juan la Laguna	12	San Juan la Laguna	5	Mayo	2023-04-05T00:00:00	2024-11-08T04:00:00	5	Humedad	77
51797	7	Sololá	717	San Juan la Laguna	12	San Juan la Laguna	5	Mayo	2023-04-05T00:00:00	2024-11-08T04:00:00	6	Velocidad del viento	3.2
51798	7	Sololá	717	San Juan la Laguna	12	San Juan la Laguna	5	Mayo	2023-04-05T00:00:00	2024-11-08T04:00:00	7	Dirección del viento	3.22
51799	7	Sololá	717	San Juan la Laguna	12	San Juan la Laguna	5	Mayo	2023-04-05T00:00:00	2024-11-08T04:00:00	1	Precipitación	0
51800	7	Sololá	717	San Juan la Laguna	12	San Juan la Laguna	5	Mayo	2023-04-05T00:00:00	2024-11-08T04:00:00	8	Radiación solar	0
51801	7	Sololá	717	San Juan la Laguna	12	San Juan la Laguna	5	Mayo	2023-04-05T00:00:00	2024-11-08T05:00:00	2	Temperatura media	16.2
51802	7	Sololá	717	San Juan la Laguna	12	San Juan la Laguna	5	Mayo	2023-04-05T00:00:00	2024-11-08T05:00:00	4	Temperatura máxima	17.4
51803	7	Sololá	717	San Juan la Laguna	12	San Juan la Laguna	5	Mayo	2023-04-05T00:00:00	2024-11-08T05:00:00	3	Temperatura mínima	16.2
51804	7	Sololá	717	San Juan la Laguna	12	San Juan la Laguna	5	Mayo	2023-04-05T00:00:00	2024-11-08T05:00:00	5	Humedad	82
51805	7	Sololá	717	San Juan la Laguna	12	San Juan la Laguna	5	Mayo	2023-04-05T00:00:00	2024-11-08T05:00:00	6	Velocidad del viento	1.6
51806	7	Sololá	717	San Juan la Laguna	12	San Juan la Laguna	5	Mayo	2023-04-05T00:00:00	2024-11-08T05:00:00	7	Dirección del viento	1.61
51807	7	Sololá	717	San Juan la Laguna	12	San Juan la Laguna	5	Mayo	2023-04-05T00:00:00	2024-11-08T05:00:00	1	Precipitación	0
51808	7	Sololá	717	San Juan la Laguna	12	San Juan la Laguna	5	Mayo	2023-04-05T00:00:00	2024-11-08T05:00:00	8	Radiación solar	0
51809	7	Sololá	717	San Juan la Laguna	12	San Juan la Laguna	5	Mayo	2023-04-05T00:00:00	2024-11-08T06:00:00	2	Temperatura media	16.1
51810	7	Sololá	717	San Juan la Laguna	12	San Juan la Laguna	5	Mayo	2023-04-05T00:00:00	2024-11-08T06:00:00	4	Temperatura máxima	16.7
51811	7	Sololá	717	San Juan la Laguna	12	San Juan la Laguna	5	Mayo	2023-04-05T00:00:00	2024-11-08T06:00:00	3	Temperatura mínima	15.9
51812	7	Sololá	717	San Juan la Laguna	12	San Juan la Laguna	5	Mayo	2023-04-05T00:00:00	2024-11-08T06:00:00	5	Humedad	81
51813	7	Sololá	717	San Juan la Laguna	12	San Juan la Laguna	5	Mayo	2023-04-05T00:00:00	2024-11-08T06:00:00	6	Velocidad del viento	3.2
51814	7	Sololá	717	San Juan la Laguna	12	San Juan la Laguna	5	Mayo	2023-04-05T00:00:00	2024-11-08T06:00:00	7	Dirección del viento	3.22
51815	7	Sololá	717	San Juan la Laguna	12	San Juan la Laguna	5	Mayo	2023-04-05T00:00:00	2024-11-08T06:00:00	1	Precipitación	0
51816	7	Sololá	717	San Juan la Laguna	12	San Juan la Laguna	5	Mayo	2023-04-05T00:00:00	2024-11-08T06:00:00	8	Radiación solar	5
51817	7	Sololá	717	San Juan la Laguna	12	San Juan la Laguna	5	Mayo	2023-04-05T00:00:00	2024-11-08T07:00:00	2	Temperatura media	17.9
51818	7	Sololá	717	San Juan la Laguna	12	San Juan la Laguna	5	Mayo	2023-04-05T00:00:00	2024-11-08T07:00:00	4	Temperatura máxima	17.9
51819	7	Sololá	717	San Juan la Laguna	12	San Juan la Laguna	5	Mayo	2023-04-05T00:00:00	2024-11-08T07:00:00	3	Temperatura mínima	16.1
51820	7	Sololá	717	San Juan la Laguna	12	San Juan la Laguna	5	Mayo	2023-04-05T00:00:00	2024-11-08T07:00:00	5	Humedad	79
51821	7	Sololá	717	San Juan la Laguna	12	San Juan la Laguna	5	Mayo	2023-04-05T00:00:00	2024-11-08T07:00:00	6	Velocidad del viento	1.6
51822	7	Sololá	717	San Juan la Laguna	12	San Juan la Laguna	5	Mayo	2023-04-05T00:00:00	2024-11-08T07:00:00	7	Dirección del viento	1.61
51823	7	Sololá	717	San Juan la Laguna	12	San Juan la Laguna	5	Mayo	2023-04-05T00:00:00	2024-11-08T07:00:00	1	Precipitación	0
51824	7	Sololá	717	San Juan la Laguna	12	San Juan la Laguna	5	Mayo	2023-04-05T00:00:00	2024-11-08T07:00:00	8	Radiación solar	81
51825	7	Sololá	717	San Juan la Laguna	12	San Juan la Laguna	5	Mayo	2023-04-05T00:00:00	2024-11-08T08:00:00	2	Temperatura media	22
51826	7	Sololá	717	San Juan la Laguna	12	San Juan la Laguna	5	Mayo	2023-04-05T00:00:00	2024-11-08T08:00:00	4	Temperatura máxima	22
51827	7	Sololá	717	San Juan la Laguna	12	San Juan la Laguna	5	Mayo	2023-04-05T00:00:00	2024-11-08T08:00:00	3	Temperatura mínima	17.9
51828	7	Sololá	717	San Juan la Laguna	12	San Juan la Laguna	5	Mayo	2023-04-05T00:00:00	2024-11-08T08:00:00	5	Humedad	67
51829	7	Sololá	717	San Juan la Laguna	12	San Juan la Laguna	5	Mayo	2023-04-05T00:00:00	2024-11-08T08:00:00	6	Velocidad del viento	0
51830	7	Sololá	717	San Juan la Laguna	12	San Juan la Laguna	5	Mayo	2023-04-05T00:00:00	2024-11-08T08:00:00	7	Dirección del viento	0
51831	7	Sololá	717	San Juan la Laguna	12	San Juan la Laguna	5	Mayo	2023-04-05T00:00:00	2024-11-08T08:00:00	1	Precipitación	0
51832	7	Sololá	717	San Juan la Laguna	12	San Juan la Laguna	5	Mayo	2023-04-05T00:00:00	2024-11-08T08:00:00	8	Radiación solar	298
51833	7	Sololá	717	San Juan la Laguna	12	San Juan la Laguna	5	Mayo	2023-04-05T00:00:00	2024-11-08T09:00:00	2	Temperatura media	23.7
51834	7	Sololá	717	San Juan la Laguna	12	San Juan la Laguna	5	Mayo	2023-04-05T00:00:00	2024-11-08T09:00:00	4	Temperatura máxima	23.7
51835	7	Sololá	717	San Juan la Laguna	12	San Juan la Laguna	5	Mayo	2023-04-05T00:00:00	2024-11-08T09:00:00	3	Temperatura mínima	22
51836	7	Sololá	717	San Juan la Laguna	12	San Juan la Laguna	5	Mayo	2023-04-05T00:00:00	2024-11-08T09:00:00	5	Humedad	58
51837	7	Sololá	717	San Juan la Laguna	12	San Juan la Laguna	5	Mayo	2023-04-05T00:00:00	2024-11-08T09:00:00	6	Velocidad del viento	1.6
51838	7	Sololá	717	San Juan la Laguna	12	San Juan la Laguna	5	Mayo	2023-04-05T00:00:00	2024-11-08T09:00:00	7	Dirección del viento	1.61
51839	7	Sololá	717	San Juan la Laguna	12	San Juan la Laguna	5	Mayo	2023-04-05T00:00:00	2024-11-08T09:00:00	1	Precipitación	0
51840	7	Sololá	717	San Juan la Laguna	12	San Juan la Laguna	5	Mayo	2023-04-05T00:00:00	2024-11-08T09:00:00	8	Radiación solar	522
51841	7	Sololá	717	San Juan la Laguna	12	San Juan la Laguna	5	Mayo	2023-04-05T00:00:00	2024-11-08T10:00:00	2	Temperatura media	24.9
51842	7	Sololá	717	San Juan la Laguna	12	San Juan la Laguna	5	Mayo	2023-04-05T00:00:00	2024-11-08T10:00:00	4	Temperatura máxima	24.9
51843	7	Sololá	717	San Juan la Laguna	12	San Juan la Laguna	5	Mayo	2023-04-05T00:00:00	2024-11-08T10:00:00	3	Temperatura mínima	23.6
51844	7	Sololá	717	San Juan la Laguna	12	San Juan la Laguna	5	Mayo	2023-04-05T00:00:00	2024-11-08T10:00:00	5	Humedad	53
51845	7	Sololá	717	San Juan la Laguna	12	San Juan la Laguna	5	Mayo	2023-04-05T00:00:00	2024-11-08T10:00:00	6	Velocidad del viento	1.6
51846	7	Sololá	717	San Juan la Laguna	12	San Juan la Laguna	5	Mayo	2023-04-05T00:00:00	2024-11-08T10:00:00	7	Dirección del viento	1.61
51847	7	Sololá	717	San Juan la Laguna	12	San Juan la Laguna	5	Mayo	2023-04-05T00:00:00	2024-11-08T10:00:00	1	Precipitación	0
51848	7	Sololá	717	San Juan la Laguna	12	San Juan la Laguna	5	Mayo	2023-04-05T00:00:00	2024-11-08T10:00:00	8	Radiación solar	708
51849	7	Sololá	717	San Juan la Laguna	12	San Juan la Laguna	5	Mayo	2023-04-05T00:00:00	2024-11-08T11:00:00	2	Temperatura media	25.5
51850	7	Sololá	717	San Juan la Laguna	12	San Juan la Laguna	5	Mayo	2023-04-05T00:00:00	2024-11-08T11:00:00	4	Temperatura máxima	26.3
51851	7	Sololá	717	San Juan la Laguna	12	San Juan la Laguna	5	Mayo	2023-04-05T00:00:00	2024-11-08T11:00:00	3	Temperatura mínima	24.8
51852	7	Sololá	717	San Juan la Laguna	12	San Juan la Laguna	5	Mayo	2023-04-05T00:00:00	2024-11-08T11:00:00	5	Humedad	58
51853	7	Sololá	717	San Juan la Laguna	12	San Juan la Laguna	5	Mayo	2023-04-05T00:00:00	2024-11-08T11:00:00	6	Velocidad del viento	1.6
51854	7	Sololá	717	San Juan la Laguna	12	San Juan la Laguna	5	Mayo	2023-04-05T00:00:00	2024-11-08T11:00:00	7	Dirección del viento	1.61
51855	7	Sololá	717	San Juan la Laguna	12	San Juan la Laguna	5	Mayo	2023-04-05T00:00:00	2024-11-08T11:00:00	1	Precipitación	0
51856	7	Sololá	717	San Juan la Laguna	12	San Juan la Laguna	5	Mayo	2023-04-05T00:00:00	2024-11-08T11:00:00	8	Radiación solar	849
51857	7	Sololá	717	San Juan la Laguna	12	San Juan la Laguna	5	Mayo	2023-04-05T00:00:00	2024-11-08T12:00:00	2	Temperatura media	25.3
51858	7	Sololá	717	San Juan la Laguna	12	San Juan la Laguna	5	Mayo	2023-04-05T00:00:00	2024-11-08T12:00:00	4	Temperatura máxima	25.9
51859	7	Sololá	717	San Juan la Laguna	12	San Juan la Laguna	5	Mayo	2023-04-05T00:00:00	2024-11-08T12:00:00	3	Temperatura mínima	25.2
51860	7	Sololá	717	San Juan la Laguna	12	San Juan la Laguna	5	Mayo	2023-04-05T00:00:00	2024-11-08T12:00:00	5	Humedad	64
51861	7	Sololá	717	San Juan la Laguna	12	San Juan la Laguna	5	Mayo	2023-04-05T00:00:00	2024-11-08T12:00:00	6	Velocidad del viento	1.6
51862	7	Sololá	717	San Juan la Laguna	12	San Juan la Laguna	5	Mayo	2023-04-05T00:00:00	2024-11-08T12:00:00	7	Dirección del viento	1.61
51863	7	Sololá	717	San Juan la Laguna	12	San Juan la Laguna	5	Mayo	2023-04-05T00:00:00	2024-11-08T12:00:00	1	Precipitación	0
51864	7	Sololá	717	San Juan la Laguna	12	San Juan la Laguna	5	Mayo	2023-04-05T00:00:00	2024-11-08T12:00:00	8	Radiación solar	936
51865	7	Sololá	717	San Juan la Laguna	12	San Juan la Laguna	5	Mayo	2023-04-05T00:00:00	2024-11-08T13:00:00	2	Temperatura media	25.6
51866	7	Sololá	717	San Juan la Laguna	12	San Juan la Laguna	5	Mayo	2023-04-05T00:00:00	2024-11-08T13:00:00	4	Temperatura máxima	25.9
51867	7	Sololá	717	San Juan la Laguna	12	San Juan la Laguna	5	Mayo	2023-04-05T00:00:00	2024-11-08T13:00:00	3	Temperatura mínima	25.2
51868	7	Sololá	717	San Juan la Laguna	12	San Juan la Laguna	5	Mayo	2023-04-05T00:00:00	2024-11-08T13:00:00	5	Humedad	64
51869	7	Sololá	717	San Juan la Laguna	12	San Juan la Laguna	5	Mayo	2023-04-05T00:00:00	2024-11-08T13:00:00	6	Velocidad del viento	1.6
51870	7	Sololá	717	San Juan la Laguna	12	San Juan la Laguna	5	Mayo	2023-04-05T00:00:00	2024-11-08T13:00:00	7	Dirección del viento	1.61
51871	7	Sololá	717	San Juan la Laguna	12	San Juan la Laguna	5	Mayo	2023-04-05T00:00:00	2024-11-08T13:00:00	1	Precipitación	0
51872	7	Sololá	717	San Juan la Laguna	12	San Juan la Laguna	5	Mayo	2023-04-05T00:00:00	2024-11-08T13:00:00	8	Radiación solar	930
51873	7	Sololá	717	San Juan la Laguna	12	San Juan la Laguna	5	Mayo	2023-04-05T00:00:00	2024-11-08T14:00:00	2	Temperatura media	25.4
51874	7	Sololá	717	San Juan la Laguna	12	San Juan la Laguna	5	Mayo	2023-04-05T00:00:00	2024-11-08T14:00:00	4	Temperatura máxima	25.6
51875	7	Sololá	717	San Juan la Laguna	12	San Juan la Laguna	5	Mayo	2023-04-05T00:00:00	2024-11-08T14:00:00	3	Temperatura mínima	24.9
51876	7	Sololá	717	San Juan la Laguna	12	San Juan la Laguna	5	Mayo	2023-04-05T00:00:00	2024-11-08T14:00:00	5	Humedad	66
51877	7	Sololá	717	San Juan la Laguna	12	San Juan la Laguna	5	Mayo	2023-04-05T00:00:00	2024-11-08T14:00:00	6	Velocidad del viento	1.6
51878	7	Sololá	717	San Juan la Laguna	12	San Juan la Laguna	5	Mayo	2023-04-05T00:00:00	2024-11-08T14:00:00	7	Dirección del viento	1.61
51879	7	Sololá	717	San Juan la Laguna	12	San Juan la Laguna	5	Mayo	2023-04-05T00:00:00	2024-11-08T14:00:00	1	Precipitación	0
51880	7	Sololá	717	San Juan la Laguna	12	San Juan la Laguna	5	Mayo	2023-04-05T00:00:00	2024-11-08T14:00:00	8	Radiación solar	845
51881	7	Sololá	717	San Juan la Laguna	12	San Juan la Laguna	5	Mayo	2023-04-05T00:00:00	2024-11-08T15:00:00	2	Temperatura media	24.6
51882	7	Sololá	717	San Juan la Laguna	12	San Juan la Laguna	5	Mayo	2023-04-05T00:00:00	2024-11-08T15:00:00	4	Temperatura máxima	26
51883	7	Sololá	717	San Juan la Laguna	12	San Juan la Laguna	5	Mayo	2023-04-05T00:00:00	2024-11-08T15:00:00	3	Temperatura mínima	24.6
51884	7	Sololá	717	San Juan la Laguna	12	San Juan la Laguna	5	Mayo	2023-04-05T00:00:00	2024-11-08T15:00:00	5	Humedad	71
51885	7	Sololá	717	San Juan la Laguna	12	San Juan la Laguna	5	Mayo	2023-04-05T00:00:00	2024-11-08T15:00:00	6	Velocidad del viento	3.2
51886	7	Sololá	717	San Juan la Laguna	12	San Juan la Laguna	5	Mayo	2023-04-05T00:00:00	2024-11-08T15:00:00	7	Dirección del viento	3.22
51887	7	Sololá	717	San Juan la Laguna	12	San Juan la Laguna	5	Mayo	2023-04-05T00:00:00	2024-11-08T15:00:00	1	Precipitación	0
51888	7	Sololá	717	San Juan la Laguna	12	San Juan la Laguna	5	Mayo	2023-04-05T00:00:00	2024-11-08T15:00:00	8	Radiación solar	717
51889	7	Sololá	717	San Juan la Laguna	12	San Juan la Laguna	5	Mayo	2023-04-05T00:00:00	2024-11-08T16:00:00	2	Temperatura media	22.9
51890	7	Sololá	717	San Juan la Laguna	12	San Juan la Laguna	5	Mayo	2023-04-05T00:00:00	2024-11-08T16:00:00	4	Temperatura máxima	24.6
51891	7	Sololá	717	San Juan la Laguna	12	San Juan la Laguna	5	Mayo	2023-04-05T00:00:00	2024-11-08T16:00:00	3	Temperatura mínima	22.9
51892	7	Sololá	717	San Juan la Laguna	12	San Juan la Laguna	5	Mayo	2023-04-05T00:00:00	2024-11-08T16:00:00	5	Humedad	76
51893	7	Sololá	717	San Juan la Laguna	12	San Juan la Laguna	5	Mayo	2023-04-05T00:00:00	2024-11-08T16:00:00	6	Velocidad del viento	6.4
51894	7	Sololá	717	San Juan la Laguna	12	San Juan la Laguna	5	Mayo	2023-04-05T00:00:00	2024-11-08T16:00:00	7	Dirección del viento	6.44
51895	7	Sololá	717	San Juan la Laguna	12	San Juan la Laguna	5	Mayo	2023-04-05T00:00:00	2024-11-08T16:00:00	1	Precipitación	0
51896	7	Sololá	717	San Juan la Laguna	12	San Juan la Laguna	5	Mayo	2023-04-05T00:00:00	2024-11-08T16:00:00	8	Radiación solar	511
51897	7	Sololá	717	San Juan la Laguna	12	San Juan la Laguna	5	Mayo	2023-04-05T00:00:00	2024-11-08T17:00:00	2	Temperatura media	21
51898	7	Sololá	717	San Juan la Laguna	12	San Juan la Laguna	5	Mayo	2023-04-05T00:00:00	2024-11-08T17:00:00	4	Temperatura máxima	22.9
51899	7	Sololá	717	San Juan la Laguna	12	San Juan la Laguna	5	Mayo	2023-04-05T00:00:00	2024-11-08T17:00:00	3	Temperatura mínima	21
51900	7	Sololá	717	San Juan la Laguna	12	San Juan la Laguna	5	Mayo	2023-04-05T00:00:00	2024-11-08T17:00:00	5	Humedad	84
51901	7	Sololá	717	San Juan la Laguna	12	San Juan la Laguna	5	Mayo	2023-04-05T00:00:00	2024-11-08T17:00:00	6	Velocidad del viento	4.8
51902	7	Sololá	717	San Juan la Laguna	12	San Juan la Laguna	5	Mayo	2023-04-05T00:00:00	2024-11-08T17:00:00	7	Dirección del viento	4.83
51903	7	Sololá	717	San Juan la Laguna	12	San Juan la Laguna	5	Mayo	2023-04-05T00:00:00	2024-11-08T17:00:00	1	Precipitación	0
51904	7	Sololá	717	San Juan la Laguna	12	San Juan la Laguna	5	Mayo	2023-04-05T00:00:00	2024-11-08T17:00:00	8	Radiación solar	144
51905	7	Sololá	717	San Juan la Laguna	12	San Juan la Laguna	5	Mayo	2023-04-05T00:00:00	2024-11-08T18:00:00	2	Temperatura media	20.9
51906	7	Sololá	717	San Juan la Laguna	12	San Juan la Laguna	5	Mayo	2023-04-05T00:00:00	2024-11-08T18:00:00	4	Temperatura máxima	21.1
51907	7	Sololá	717	San Juan la Laguna	12	San Juan la Laguna	5	Mayo	2023-04-05T00:00:00	2024-11-08T18:00:00	3	Temperatura mínima	20.7
51908	7	Sololá	717	San Juan la Laguna	12	San Juan la Laguna	5	Mayo	2023-04-05T00:00:00	2024-11-08T18:00:00	5	Humedad	83
51909	7	Sololá	717	San Juan la Laguna	12	San Juan la Laguna	5	Mayo	2023-04-05T00:00:00	2024-11-08T18:00:00	6	Velocidad del viento	4.8
51910	7	Sololá	717	San Juan la Laguna	12	San Juan la Laguna	5	Mayo	2023-04-05T00:00:00	2024-11-08T18:00:00	7	Dirección del viento	4.83
51911	7	Sololá	717	San Juan la Laguna	12	San Juan la Laguna	5	Mayo	2023-04-05T00:00:00	2024-11-08T18:00:00	1	Precipitación	0
51912	7	Sololá	717	San Juan la Laguna	12	San Juan la Laguna	5	Mayo	2023-04-05T00:00:00	2024-11-08T18:00:00	8	Radiación solar	35
51913	7	Sololá	717	San Juan la Laguna	12	San Juan la Laguna	5	Mayo	2023-04-05T00:00:00	2024-11-08T19:00:00	2	Temperatura media	20.6
51914	7	Sololá	717	San Juan la Laguna	12	San Juan la Laguna	5	Mayo	2023-04-05T00:00:00	2024-11-08T19:00:00	4	Temperatura máxima	21.1
51915	7	Sololá	717	San Juan la Laguna	12	San Juan la Laguna	5	Mayo	2023-04-05T00:00:00	2024-11-08T19:00:00	3	Temperatura mínima	20.6
51916	7	Sololá	717	San Juan la Laguna	12	San Juan la Laguna	5	Mayo	2023-04-05T00:00:00	2024-11-08T19:00:00	5	Humedad	84
51917	7	Sololá	717	San Juan la Laguna	12	San Juan la Laguna	5	Mayo	2023-04-05T00:00:00	2024-11-08T19:00:00	6	Velocidad del viento	3.2
51918	7	Sololá	717	San Juan la Laguna	12	San Juan la Laguna	5	Mayo	2023-04-05T00:00:00	2024-11-08T19:00:00	7	Dirección del viento	3.22
51919	7	Sololá	717	San Juan la Laguna	12	San Juan la Laguna	5	Mayo	2023-04-05T00:00:00	2024-11-08T19:00:00	1	Precipitación	0
51920	7	Sololá	717	San Juan la Laguna	12	San Juan la Laguna	5	Mayo	2023-04-05T00:00:00	2024-11-08T19:00:00	8	Radiación solar	0
51921	7	Sololá	717	San Juan la Laguna	12	San Juan la Laguna	5	Mayo	2023-04-05T00:00:00	2024-11-08T20:00:00	2	Temperatura media	19.7
51922	7	Sololá	717	San Juan la Laguna	12	San Juan la Laguna	5	Mayo	2023-04-05T00:00:00	2024-11-08T20:00:00	4	Temperatura máxima	20.6
51923	7	Sololá	717	San Juan la Laguna	12	San Juan la Laguna	5	Mayo	2023-04-05T00:00:00	2024-11-08T20:00:00	3	Temperatura mínima	19.7
51924	7	Sololá	717	San Juan la Laguna	12	San Juan la Laguna	5	Mayo	2023-04-05T00:00:00	2024-11-08T20:00:00	5	Humedad	87
51925	7	Sololá	717	San Juan la Laguna	12	San Juan la Laguna	5	Mayo	2023-04-05T00:00:00	2024-11-08T20:00:00	6	Velocidad del viento	1.6
51926	7	Sololá	717	San Juan la Laguna	12	San Juan la Laguna	5	Mayo	2023-04-05T00:00:00	2024-11-08T20:00:00	7	Dirección del viento	1.61
51927	7	Sololá	717	San Juan la Laguna	12	San Juan la Laguna	5	Mayo	2023-04-05T00:00:00	2024-11-08T20:00:00	1	Precipitación	0
51928	7	Sololá	717	San Juan la Laguna	12	San Juan la Laguna	5	Mayo	2023-04-05T00:00:00	2024-11-08T20:00:00	8	Radiación solar	0
51929	7	Sololá	717	San Juan la Laguna	12	San Juan la Laguna	5	Mayo	2023-04-05T00:00:00	2024-11-08T21:00:00	2	Temperatura media	18.8
51930	7	Sololá	717	San Juan la Laguna	12	San Juan la Laguna	5	Mayo	2023-04-05T00:00:00	2024-11-08T21:00:00	4	Temperatura máxima	19.7
51931	7	Sololá	717	San Juan la Laguna	12	San Juan la Laguna	5	Mayo	2023-04-05T00:00:00	2024-11-08T21:00:00	3	Temperatura mínima	18.8
51932	7	Sololá	717	San Juan la Laguna	12	San Juan la Laguna	5	Mayo	2023-04-05T00:00:00	2024-11-08T21:00:00	5	Humedad	88
51933	7	Sololá	717	San Juan la Laguna	12	San Juan la Laguna	5	Mayo	2023-04-05T00:00:00	2024-11-08T21:00:00	6	Velocidad del viento	1.6
51934	7	Sololá	717	San Juan la Laguna	12	San Juan la Laguna	5	Mayo	2023-04-05T00:00:00	2024-11-08T21:00:00	7	Dirección del viento	1.61
51935	7	Sololá	717	San Juan la Laguna	12	San Juan la Laguna	5	Mayo	2023-04-05T00:00:00	2024-11-08T21:00:00	1	Precipitación	0
51936	7	Sololá	717	San Juan la Laguna	12	San Juan la Laguna	5	Mayo	2023-04-05T00:00:00	2024-11-08T21:00:00	8	Radiación solar	0
51937	7	Sololá	717	San Juan la Laguna	12	San Juan la Laguna	5	Mayo	2023-04-05T00:00:00	2024-11-08T22:00:00	2	Temperatura media	18.2
51938	7	Sololá	717	San Juan la Laguna	12	San Juan la Laguna	5	Mayo	2023-04-05T00:00:00	2024-11-08T22:00:00	4	Temperatura máxima	18.8
51939	7	Sololá	717	San Juan la Laguna	12	San Juan la Laguna	5	Mayo	2023-04-05T00:00:00	2024-11-08T22:00:00	3	Temperatura mínima	18.1
51940	7	Sololá	717	San Juan la Laguna	12	San Juan la Laguna	5	Mayo	2023-04-05T00:00:00	2024-11-08T22:00:00	5	Humedad	90
51941	7	Sololá	717	San Juan la Laguna	12	San Juan la Laguna	5	Mayo	2023-04-05T00:00:00	2024-11-08T22:00:00	6	Velocidad del viento	1.6
51942	7	Sololá	717	San Juan la Laguna	12	San Juan la Laguna	5	Mayo	2023-04-05T00:00:00	2024-11-08T22:00:00	7	Dirección del viento	1.61
51943	7	Sololá	717	San Juan la Laguna	12	San Juan la Laguna	5	Mayo	2023-04-05T00:00:00	2024-11-08T22:00:00	1	Precipitación	0
51944	7	Sololá	717	San Juan la Laguna	12	San Juan la Laguna	5	Mayo	2023-04-05T00:00:00	2024-11-08T22:00:00	8	Radiación solar	0
51945	7	Sololá	717	San Juan la Laguna	12	San Juan la Laguna	5	Mayo	2023-04-05T00:00:00	2024-11-08T23:00:00	2	Temperatura media	17.7
51946	7	Sololá	717	San Juan la Laguna	12	San Juan la Laguna	5	Mayo	2023-04-05T00:00:00	2024-11-08T23:00:00	4	Temperatura máxima	18.2
51947	7	Sololá	717	San Juan la Laguna	12	San Juan la Laguna	5	Mayo	2023-04-05T00:00:00	2024-11-08T23:00:00	3	Temperatura mínima	17.7
51948	7	Sololá	717	San Juan la Laguna	12	San Juan la Laguna	5	Mayo	2023-04-05T00:00:00	2024-11-08T23:00:00	5	Humedad	88
51949	7	Sololá	717	San Juan la Laguna	12	San Juan la Laguna	5	Mayo	2023-04-05T00:00:00	2024-11-08T23:00:00	6	Velocidad del viento	3.2
51950	7	Sololá	717	San Juan la Laguna	12	San Juan la Laguna	5	Mayo	2023-04-05T00:00:00	2024-11-08T23:00:00	7	Dirección del viento	3.22
51951	7	Sololá	717	San Juan la Laguna	12	San Juan la Laguna	5	Mayo	2023-04-05T00:00:00	2024-11-08T23:00:00	1	Precipitación	0
51952	7	Sololá	717	San Juan la Laguna	12	San Juan la Laguna	5	Mayo	2023-04-05T00:00:00	2024-11-08T23:00:00	8	Radiación solar	0
51953	7	Sololá	717	San Juan la Laguna	12	San Juan la Laguna	5	Mayo	2023-05-05T00:00:00	2024-11-08T00:00:00	2	Temperatura media	17.8
51954	7	Sololá	717	San Juan la Laguna	12	San Juan la Laguna	5	Mayo	2023-05-05T00:00:00	2024-11-08T00:00:00	4	Temperatura máxima	17.9
51955	7	Sololá	717	San Juan la Laguna	12	San Juan la Laguna	5	Mayo	2023-05-05T00:00:00	2024-11-08T00:00:00	3	Temperatura mínima	17.4
51956	7	Sololá	717	San Juan la Laguna	12	San Juan la Laguna	5	Mayo	2023-05-05T00:00:00	2024-11-08T00:00:00	5	Humedad	84
51957	7	Sololá	717	San Juan la Laguna	12	San Juan la Laguna	5	Mayo	2023-05-05T00:00:00	2024-11-08T00:00:00	6	Velocidad del viento	3.2
51958	7	Sololá	717	San Juan la Laguna	12	San Juan la Laguna	5	Mayo	2023-05-05T00:00:00	2024-11-08T00:00:00	7	Dirección del viento	3.22
51959	7	Sololá	717	San Juan la Laguna	12	San Juan la Laguna	5	Mayo	2023-05-05T00:00:00	2024-11-08T00:00:00	1	Precipitación	0
51960	7	Sololá	717	San Juan la Laguna	12	San Juan la Laguna	5	Mayo	2023-05-05T00:00:00	2024-11-08T00:00:00	8	Radiación solar	0
51961	7	Sololá	717	San Juan la Laguna	12	San Juan la Laguna	5	Mayo	2023-05-05T00:00:00	2024-11-08T01:00:00	2	Temperatura media	17
51962	7	Sololá	717	San Juan la Laguna	12	San Juan la Laguna	5	Mayo	2023-05-05T00:00:00	2024-11-08T01:00:00	4	Temperatura máxima	17.8
51963	7	Sololá	717	San Juan la Laguna	12	San Juan la Laguna	5	Mayo	2023-05-05T00:00:00	2024-11-08T01:00:00	3	Temperatura mínima	16.7
51964	7	Sololá	717	San Juan la Laguna	12	San Juan la Laguna	5	Mayo	2023-05-05T00:00:00	2024-11-08T01:00:00	5	Humedad	84
51965	7	Sololá	717	San Juan la Laguna	12	San Juan la Laguna	5	Mayo	2023-05-05T00:00:00	2024-11-08T01:00:00	6	Velocidad del viento	3.2
51966	7	Sololá	717	San Juan la Laguna	12	San Juan la Laguna	5	Mayo	2023-05-05T00:00:00	2024-11-08T01:00:00	7	Dirección del viento	3.22
51967	7	Sololá	717	San Juan la Laguna	12	San Juan la Laguna	5	Mayo	2023-05-05T00:00:00	2024-11-08T01:00:00	1	Precipitación	0
51968	7	Sololá	717	San Juan la Laguna	12	San Juan la Laguna	5	Mayo	2023-05-05T00:00:00	2024-11-08T01:00:00	8	Radiación solar	0
51969	7	Sololá	717	San Juan la Laguna	12	San Juan la Laguna	5	Mayo	2023-05-05T00:00:00	2024-11-08T02:00:00	2	Temperatura media	16.9
51970	7	Sololá	717	San Juan la Laguna	12	San Juan la Laguna	5	Mayo	2023-05-05T00:00:00	2024-11-08T02:00:00	4	Temperatura máxima	17.1
51971	7	Sololá	717	San Juan la Laguna	12	San Juan la Laguna	5	Mayo	2023-05-05T00:00:00	2024-11-08T02:00:00	3	Temperatura mínima	16.4
51972	7	Sololá	717	San Juan la Laguna	12	San Juan la Laguna	5	Mayo	2023-05-05T00:00:00	2024-11-08T02:00:00	5	Humedad	82
51973	7	Sololá	717	San Juan la Laguna	12	San Juan la Laguna	5	Mayo	2023-05-05T00:00:00	2024-11-08T02:00:00	6	Velocidad del viento	3.2
51974	7	Sololá	717	San Juan la Laguna	12	San Juan la Laguna	5	Mayo	2023-05-05T00:00:00	2024-11-08T02:00:00	7	Dirección del viento	3.22
51975	7	Sololá	717	San Juan la Laguna	12	San Juan la Laguna	5	Mayo	2023-05-05T00:00:00	2024-11-08T02:00:00	1	Precipitación	0
51976	7	Sololá	717	San Juan la Laguna	12	San Juan la Laguna	5	Mayo	2023-05-05T00:00:00	2024-11-08T02:00:00	8	Radiación solar	0
51977	7	Sololá	717	San Juan la Laguna	12	San Juan la Laguna	5	Mayo	2023-05-05T00:00:00	2024-11-08T03:00:00	2	Temperatura media	15.6
51978	7	Sololá	717	San Juan la Laguna	12	San Juan la Laguna	5	Mayo	2023-05-05T00:00:00	2024-11-08T03:00:00	4	Temperatura máxima	16.9
51979	7	Sololá	717	San Juan la Laguna	12	San Juan la Laguna	5	Mayo	2023-05-05T00:00:00	2024-11-08T03:00:00	3	Temperatura mínima	15.6
51980	7	Sololá	717	San Juan la Laguna	12	San Juan la Laguna	5	Mayo	2023-05-05T00:00:00	2024-11-08T03:00:00	5	Humedad	88
51981	7	Sololá	717	San Juan la Laguna	12	San Juan la Laguna	5	Mayo	2023-05-05T00:00:00	2024-11-08T03:00:00	6	Velocidad del viento	1.6
51982	7	Sololá	717	San Juan la Laguna	12	San Juan la Laguna	5	Mayo	2023-05-05T00:00:00	2024-11-08T03:00:00	7	Dirección del viento	1.61
51983	7	Sololá	717	San Juan la Laguna	12	San Juan la Laguna	5	Mayo	2023-05-05T00:00:00	2024-11-08T03:00:00	1	Precipitación	0
51984	7	Sololá	717	San Juan la Laguna	12	San Juan la Laguna	5	Mayo	2023-05-05T00:00:00	2024-11-08T03:00:00	8	Radiación solar	0
51985	7	Sololá	717	San Juan la Laguna	12	San Juan la Laguna	5	Mayo	2023-05-05T00:00:00	2024-11-08T04:00:00	2	Temperatura media	15.6
51986	7	Sololá	717	San Juan la Laguna	12	San Juan la Laguna	5	Mayo	2023-05-05T00:00:00	2024-11-08T04:00:00	4	Temperatura máxima	15.7
51987	7	Sololá	717	San Juan la Laguna	12	San Juan la Laguna	5	Mayo	2023-05-05T00:00:00	2024-11-08T04:00:00	3	Temperatura mínima	15.2
51988	7	Sololá	717	San Juan la Laguna	12	San Juan la Laguna	5	Mayo	2023-05-05T00:00:00	2024-11-08T04:00:00	5	Humedad	88
51989	7	Sololá	717	San Juan la Laguna	12	San Juan la Laguna	5	Mayo	2023-05-05T00:00:00	2024-11-08T04:00:00	6	Velocidad del viento	1.6
51990	7	Sololá	717	San Juan la Laguna	12	San Juan la Laguna	5	Mayo	2023-05-05T00:00:00	2024-11-08T04:00:00	7	Dirección del viento	1.61
51991	7	Sololá	717	San Juan la Laguna	12	San Juan la Laguna	5	Mayo	2023-05-05T00:00:00	2024-11-08T04:00:00	1	Precipitación	0
51992	7	Sololá	717	San Juan la Laguna	12	San Juan la Laguna	5	Mayo	2023-05-05T00:00:00	2024-11-08T04:00:00	8	Radiación solar	0
51993	7	Sololá	717	San Juan la Laguna	12	San Juan la Laguna	5	Mayo	2023-05-05T00:00:00	2024-11-08T05:00:00	2	Temperatura media	15.3
51994	7	Sololá	717	San Juan la Laguna	12	San Juan la Laguna	5	Mayo	2023-05-05T00:00:00	2024-11-08T05:00:00	4	Temperatura máxima	16.1
51995	7	Sololá	717	San Juan la Laguna	12	San Juan la Laguna	5	Mayo	2023-05-05T00:00:00	2024-11-08T05:00:00	3	Temperatura mínima	15.3
51996	7	Sololá	717	San Juan la Laguna	12	San Juan la Laguna	5	Mayo	2023-05-05T00:00:00	2024-11-08T05:00:00	5	Humedad	82
51997	7	Sololá	717	San Juan la Laguna	12	San Juan la Laguna	5	Mayo	2023-05-05T00:00:00	2024-11-08T05:00:00	6	Velocidad del viento	3.2
51998	7	Sololá	717	San Juan la Laguna	12	San Juan la Laguna	5	Mayo	2023-05-05T00:00:00	2024-11-08T05:00:00	7	Dirección del viento	3.22
51999	7	Sololá	717	San Juan la Laguna	12	San Juan la Laguna	5	Mayo	2023-05-05T00:00:00	2024-11-08T05:00:00	1	Precipitación	0
52000	7	Sololá	717	San Juan la Laguna	12	San Juan la Laguna	5	Mayo	2023-05-05T00:00:00	2024-11-08T05:00:00	8	Radiación solar	0
52001	7	Sololá	717	San Juan la Laguna	12	San Juan la Laguna	5	Mayo	2023-05-05T00:00:00	2024-11-08T06:00:00	2	Temperatura media	15.2
52002	7	Sololá	717	San Juan la Laguna	12	San Juan la Laguna	5	Mayo	2023-05-05T00:00:00	2024-11-08T06:00:00	4	Temperatura máxima	15.7
52003	7	Sololá	717	San Juan la Laguna	12	San Juan la Laguna	5	Mayo	2023-05-05T00:00:00	2024-11-08T06:00:00	3	Temperatura mínima	15.2
52004	7	Sololá	717	San Juan la Laguna	12	San Juan la Laguna	5	Mayo	2023-05-05T00:00:00	2024-11-08T06:00:00	5	Humedad	82
52005	7	Sololá	717	San Juan la Laguna	12	San Juan la Laguna	5	Mayo	2023-05-05T00:00:00	2024-11-08T06:00:00	6	Velocidad del viento	3.2
52006	7	Sololá	717	San Juan la Laguna	12	San Juan la Laguna	5	Mayo	2023-05-05T00:00:00	2024-11-08T06:00:00	7	Dirección del viento	3.22
52007	7	Sololá	717	San Juan la Laguna	12	San Juan la Laguna	5	Mayo	2023-05-05T00:00:00	2024-11-08T06:00:00	1	Precipitación	0
52008	7	Sololá	717	San Juan la Laguna	12	San Juan la Laguna	5	Mayo	2023-05-05T00:00:00	2024-11-08T06:00:00	8	Radiación solar	4
52009	7	Sololá	717	San Juan la Laguna	12	San Juan la Laguna	5	Mayo	2023-05-05T00:00:00	2024-11-08T07:00:00	2	Temperatura media	18.3
52010	7	Sololá	717	San Juan la Laguna	12	San Juan la Laguna	5	Mayo	2023-05-05T00:00:00	2024-11-08T07:00:00	4	Temperatura máxima	18.3
52011	7	Sololá	717	San Juan la Laguna	12	San Juan la Laguna	5	Mayo	2023-05-05T00:00:00	2024-11-08T07:00:00	3	Temperatura mínima	15.2
52012	7	Sololá	717	San Juan la Laguna	12	San Juan la Laguna	5	Mayo	2023-05-05T00:00:00	2024-11-08T07:00:00	5	Humedad	76
52013	7	Sololá	717	San Juan la Laguna	12	San Juan la Laguna	5	Mayo	2023-05-05T00:00:00	2024-11-08T07:00:00	6	Velocidad del viento	1.6
52014	7	Sololá	717	San Juan la Laguna	12	San Juan la Laguna	5	Mayo	2023-05-05T00:00:00	2024-11-08T07:00:00	7	Dirección del viento	1.61
52015	7	Sololá	717	San Juan la Laguna	12	San Juan la Laguna	5	Mayo	2023-05-05T00:00:00	2024-11-08T07:00:00	1	Precipitación	0
52016	7	Sololá	717	San Juan la Laguna	12	San Juan la Laguna	5	Mayo	2023-05-05T00:00:00	2024-11-08T07:00:00	8	Radiación solar	104
52017	7	Sololá	717	San Juan la Laguna	12	San Juan la Laguna	5	Mayo	2023-05-05T00:00:00	2024-11-08T08:00:00	2	Temperatura media	22.2
52018	7	Sololá	717	San Juan la Laguna	12	San Juan la Laguna	5	Mayo	2023-05-05T00:00:00	2024-11-08T08:00:00	4	Temperatura máxima	22.2
52019	7	Sololá	717	San Juan la Laguna	12	San Juan la Laguna	5	Mayo	2023-05-05T00:00:00	2024-11-08T08:00:00	3	Temperatura mínima	18.3
52020	7	Sololá	717	San Juan la Laguna	12	San Juan la Laguna	5	Mayo	2023-05-05T00:00:00	2024-11-08T08:00:00	5	Humedad	59
52021	7	Sololá	717	San Juan la Laguna	12	San Juan la Laguna	5	Mayo	2023-05-05T00:00:00	2024-11-08T08:00:00	6	Velocidad del viento	0
52022	7	Sololá	717	San Juan la Laguna	12	San Juan la Laguna	5	Mayo	2023-05-05T00:00:00	2024-11-08T08:00:00	7	Dirección del viento	0
52023	7	Sololá	717	San Juan la Laguna	12	San Juan la Laguna	5	Mayo	2023-05-05T00:00:00	2024-11-08T08:00:00	1	Precipitación	0
52024	7	Sololá	717	San Juan la Laguna	12	San Juan la Laguna	5	Mayo	2023-05-05T00:00:00	2024-11-08T08:00:00	8	Radiación solar	302
52025	7	Sololá	717	San Juan la Laguna	12	San Juan la Laguna	5	Mayo	2023-05-05T00:00:00	2024-11-08T09:00:00	2	Temperatura media	23.8
52026	7	Sololá	717	San Juan la Laguna	12	San Juan la Laguna	5	Mayo	2023-05-05T00:00:00	2024-11-08T09:00:00	4	Temperatura máxima	23.9
52027	7	Sololá	717	San Juan la Laguna	12	San Juan la Laguna	5	Mayo	2023-05-05T00:00:00	2024-11-08T09:00:00	3	Temperatura mínima	22.2
52028	7	Sololá	717	San Juan la Laguna	12	San Juan la Laguna	5	Mayo	2023-05-05T00:00:00	2024-11-08T09:00:00	5	Humedad	53
52029	7	Sololá	717	San Juan la Laguna	12	San Juan la Laguna	5	Mayo	2023-05-05T00:00:00	2024-11-08T09:00:00	6	Velocidad del viento	1.6
52030	7	Sololá	717	San Juan la Laguna	12	San Juan la Laguna	5	Mayo	2023-05-05T00:00:00	2024-11-08T09:00:00	7	Dirección del viento	1.61
52031	7	Sololá	717	San Juan la Laguna	12	San Juan la Laguna	5	Mayo	2023-05-05T00:00:00	2024-11-08T09:00:00	1	Precipitación	0
52032	7	Sololá	717	San Juan la Laguna	12	San Juan la Laguna	5	Mayo	2023-05-05T00:00:00	2024-11-08T09:00:00	8	Radiación solar	522
52033	7	Sololá	717	San Juan la Laguna	12	San Juan la Laguna	5	Mayo	2023-05-05T00:00:00	2024-11-08T10:00:00	2	Temperatura media	26.5
52034	7	Sololá	717	San Juan la Laguna	12	San Juan la Laguna	5	Mayo	2023-05-05T00:00:00	2024-11-08T10:00:00	4	Temperatura máxima	26.5
52035	7	Sololá	717	San Juan la Laguna	12	San Juan la Laguna	5	Mayo	2023-05-05T00:00:00	2024-11-08T10:00:00	3	Temperatura mínima	23.8
52036	7	Sololá	717	San Juan la Laguna	12	San Juan la Laguna	5	Mayo	2023-05-05T00:00:00	2024-11-08T10:00:00	5	Humedad	41
52037	7	Sololá	717	San Juan la Laguna	12	San Juan la Laguna	5	Mayo	2023-05-05T00:00:00	2024-11-08T10:00:00	6	Velocidad del viento	1.6
52038	7	Sololá	717	San Juan la Laguna	12	San Juan la Laguna	5	Mayo	2023-05-05T00:00:00	2024-11-08T10:00:00	7	Dirección del viento	1.61
52039	7	Sololá	717	San Juan la Laguna	12	San Juan la Laguna	5	Mayo	2023-05-05T00:00:00	2024-11-08T10:00:00	1	Precipitación	0
52040	7	Sololá	717	San Juan la Laguna	12	San Juan la Laguna	5	Mayo	2023-05-05T00:00:00	2024-11-08T10:00:00	8	Radiación solar	726
52041	7	Sololá	717	San Juan la Laguna	12	San Juan la Laguna	5	Mayo	2023-05-05T00:00:00	2024-11-08T11:00:00	2	Temperatura media	28.2
52042	7	Sololá	717	San Juan la Laguna	12	San Juan la Laguna	5	Mayo	2023-05-05T00:00:00	2024-11-08T11:00:00	4	Temperatura máxima	28.5
52043	7	Sololá	717	San Juan la Laguna	12	San Juan la Laguna	5	Mayo	2023-05-05T00:00:00	2024-11-08T11:00:00	3	Temperatura mínima	26.5
52044	7	Sololá	717	San Juan la Laguna	12	San Juan la Laguna	5	Mayo	2023-05-05T00:00:00	2024-11-08T11:00:00	5	Humedad	36
52045	7	Sololá	717	San Juan la Laguna	12	San Juan la Laguna	5	Mayo	2023-05-05T00:00:00	2024-11-08T11:00:00	6	Velocidad del viento	3.2
52046	7	Sololá	717	San Juan la Laguna	12	San Juan la Laguna	5	Mayo	2023-05-05T00:00:00	2024-11-08T11:00:00	7	Dirección del viento	3.22
52047	7	Sololá	717	San Juan la Laguna	12	San Juan la Laguna	5	Mayo	2023-05-05T00:00:00	2024-11-08T11:00:00	1	Precipitación	0
52048	7	Sololá	717	San Juan la Laguna	12	San Juan la Laguna	5	Mayo	2023-05-05T00:00:00	2024-11-08T11:00:00	8	Radiación solar	875
52049	7	Sololá	717	San Juan la Laguna	12	San Juan la Laguna	5	Mayo	2023-05-05T00:00:00	2024-11-08T12:00:00	2	Temperatura media	28.5
52050	7	Sololá	717	San Juan la Laguna	12	San Juan la Laguna	5	Mayo	2023-05-05T00:00:00	2024-11-08T12:00:00	4	Temperatura máxima	28.8
52051	7	Sololá	717	San Juan la Laguna	12	San Juan la Laguna	5	Mayo	2023-05-05T00:00:00	2024-11-08T12:00:00	3	Temperatura mínima	28.2
52052	7	Sololá	717	San Juan la Laguna	12	San Juan la Laguna	5	Mayo	2023-05-05T00:00:00	2024-11-08T12:00:00	5	Humedad	30
52053	7	Sololá	717	San Juan la Laguna	12	San Juan la Laguna	5	Mayo	2023-05-05T00:00:00	2024-11-08T12:00:00	6	Velocidad del viento	6.4
52054	7	Sololá	717	San Juan la Laguna	12	San Juan la Laguna	5	Mayo	2023-05-05T00:00:00	2024-11-08T12:00:00	7	Dirección del viento	6.44
52055	7	Sololá	717	San Juan la Laguna	12	San Juan la Laguna	5	Mayo	2023-05-05T00:00:00	2024-11-08T12:00:00	1	Precipitación	0
52056	7	Sololá	717	San Juan la Laguna	12	San Juan la Laguna	5	Mayo	2023-05-05T00:00:00	2024-11-08T12:00:00	8	Radiación solar	913
52057	7	Sololá	717	San Juan la Laguna	12	San Juan la Laguna	5	Mayo	2023-05-05T00:00:00	2024-11-08T13:00:00	2	Temperatura media	29.1
52058	7	Sololá	717	San Juan la Laguna	12	San Juan la Laguna	5	Mayo	2023-05-05T00:00:00	2024-11-08T13:00:00	4	Temperatura máxima	29.3
52059	7	Sololá	717	San Juan la Laguna	12	San Juan la Laguna	5	Mayo	2023-05-05T00:00:00	2024-11-08T13:00:00	3	Temperatura mínima	28.5
52060	7	Sololá	717	San Juan la Laguna	12	San Juan la Laguna	5	Mayo	2023-05-05T00:00:00	2024-11-08T13:00:00	5	Humedad	31
52061	7	Sololá	717	San Juan la Laguna	12	San Juan la Laguna	5	Mayo	2023-05-05T00:00:00	2024-11-08T13:00:00	6	Velocidad del viento	6.4
52062	7	Sololá	717	San Juan la Laguna	12	San Juan la Laguna	5	Mayo	2023-05-05T00:00:00	2024-11-08T13:00:00	7	Dirección del viento	6.44
52063	7	Sololá	717	San Juan la Laguna	12	San Juan la Laguna	5	Mayo	2023-05-05T00:00:00	2024-11-08T13:00:00	1	Precipitación	0
52064	7	Sololá	717	San Juan la Laguna	12	San Juan la Laguna	5	Mayo	2023-05-05T00:00:00	2024-11-08T13:00:00	8	Radiación solar	934
52065	7	Sololá	717	San Juan la Laguna	12	San Juan la Laguna	5	Mayo	2023-05-05T00:00:00	2024-11-08T14:00:00	2	Temperatura media	25.6
52066	7	Sololá	717	San Juan la Laguna	12	San Juan la Laguna	5	Mayo	2023-05-05T00:00:00	2024-11-08T14:00:00	4	Temperatura máxima	29.5
52067	7	Sololá	717	San Juan la Laguna	12	San Juan la Laguna	5	Mayo	2023-05-05T00:00:00	2024-11-08T14:00:00	3	Temperatura mínima	25.5
52068	7	Sololá	717	San Juan la Laguna	12	San Juan la Laguna	5	Mayo	2023-05-05T00:00:00	2024-11-08T14:00:00	5	Humedad	57
52069	7	Sololá	717	San Juan la Laguna	12	San Juan la Laguna	5	Mayo	2023-05-05T00:00:00	2024-11-08T14:00:00	6	Velocidad del viento	4.8
52070	7	Sololá	717	San Juan la Laguna	12	San Juan la Laguna	5	Mayo	2023-05-05T00:00:00	2024-11-08T14:00:00	7	Dirección del viento	4.83
52071	7	Sololá	717	San Juan la Laguna	12	San Juan la Laguna	5	Mayo	2023-05-05T00:00:00	2024-11-08T14:00:00	1	Precipitación	0
52072	7	Sololá	717	San Juan la Laguna	12	San Juan la Laguna	5	Mayo	2023-05-05T00:00:00	2024-11-08T14:00:00	8	Radiación solar	891
52073	7	Sololá	717	San Juan la Laguna	12	San Juan la Laguna	5	Mayo	2023-05-05T00:00:00	2024-11-08T15:00:00	2	Temperatura media	25.9
52074	7	Sololá	717	San Juan la Laguna	12	San Juan la Laguna	5	Mayo	2023-05-05T00:00:00	2024-11-08T15:00:00	4	Temperatura máxima	26.4
52075	7	Sololá	717	San Juan la Laguna	12	San Juan la Laguna	5	Mayo	2023-05-05T00:00:00	2024-11-08T15:00:00	3	Temperatura mínima	25.6
52076	7	Sololá	717	San Juan la Laguna	12	San Juan la Laguna	5	Mayo	2023-05-05T00:00:00	2024-11-08T15:00:00	5	Humedad	63
52077	7	Sololá	717	San Juan la Laguna	12	San Juan la Laguna	5	Mayo	2023-05-05T00:00:00	2024-11-08T15:00:00	6	Velocidad del viento	4.8
52078	7	Sololá	717	San Juan la Laguna	12	San Juan la Laguna	5	Mayo	2023-05-05T00:00:00	2024-11-08T15:00:00	7	Dirección del viento	4.83
52079	7	Sololá	717	San Juan la Laguna	12	San Juan la Laguna	5	Mayo	2023-05-05T00:00:00	2024-11-08T15:00:00	1	Precipitación	0
52080	7	Sololá	717	San Juan la Laguna	12	San Juan la Laguna	5	Mayo	2023-05-05T00:00:00	2024-11-08T15:00:00	8	Radiación solar	738
52081	7	Sololá	717	San Juan la Laguna	12	San Juan la Laguna	5	Mayo	2023-05-05T00:00:00	2024-11-08T16:00:00	2	Temperatura media	24.2
52082	7	Sololá	717	San Juan la Laguna	12	San Juan la Laguna	5	Mayo	2023-05-05T00:00:00	2024-11-08T16:00:00	4	Temperatura máxima	25.9
52083	7	Sololá	717	San Juan la Laguna	12	San Juan la Laguna	5	Mayo	2023-05-05T00:00:00	2024-11-08T16:00:00	3	Temperatura mínima	23.9
52084	7	Sololá	717	San Juan la Laguna	12	San Juan la Laguna	5	Mayo	2023-05-05T00:00:00	2024-11-08T16:00:00	5	Humedad	71
52085	7	Sololá	717	San Juan la Laguna	12	San Juan la Laguna	5	Mayo	2023-05-05T00:00:00	2024-11-08T16:00:00	6	Velocidad del viento	6.4
52086	7	Sololá	717	San Juan la Laguna	12	San Juan la Laguna	5	Mayo	2023-05-05T00:00:00	2024-11-08T16:00:00	7	Dirección del viento	6.44
52087	7	Sololá	717	San Juan la Laguna	12	San Juan la Laguna	5	Mayo	2023-05-05T00:00:00	2024-11-08T16:00:00	1	Precipitación	0
52088	7	Sololá	717	San Juan la Laguna	12	San Juan la Laguna	5	Mayo	2023-05-05T00:00:00	2024-11-08T16:00:00	8	Radiación solar	551
52089	7	Sololá	717	San Juan la Laguna	12	San Juan la Laguna	5	Mayo	2023-05-05T00:00:00	2024-11-08T17:00:00	2	Temperatura media	23.6
52090	7	Sololá	717	San Juan la Laguna	12	San Juan la Laguna	5	Mayo	2023-05-05T00:00:00	2024-11-08T17:00:00	4	Temperatura máxima	24.3
52091	7	Sololá	717	San Juan la Laguna	12	San Juan la Laguna	5	Mayo	2023-05-05T00:00:00	2024-11-08T17:00:00	3	Temperatura mínima	23.6
52092	7	Sololá	717	San Juan la Laguna	12	San Juan la Laguna	5	Mayo	2023-05-05T00:00:00	2024-11-08T17:00:00	5	Humedad	73
52093	7	Sololá	717	San Juan la Laguna	12	San Juan la Laguna	5	Mayo	2023-05-05T00:00:00	2024-11-08T17:00:00	6	Velocidad del viento	6.4
52094	7	Sololá	717	San Juan la Laguna	12	San Juan la Laguna	5	Mayo	2023-05-05T00:00:00	2024-11-08T17:00:00	7	Dirección del viento	6.44
52095	7	Sololá	717	San Juan la Laguna	12	San Juan la Laguna	5	Mayo	2023-05-05T00:00:00	2024-11-08T17:00:00	1	Precipitación	0
52096	7	Sololá	717	San Juan la Laguna	12	San Juan la Laguna	5	Mayo	2023-05-05T00:00:00	2024-11-08T17:00:00	8	Radiación solar	319
52097	7	Sololá	717	San Juan la Laguna	12	San Juan la Laguna	5	Mayo	2023-05-05T00:00:00	2024-11-08T18:00:00	2	Temperatura media	22.1
52098	7	Sololá	717	San Juan la Laguna	12	San Juan la Laguna	5	Mayo	2023-05-05T00:00:00	2024-11-08T18:00:00	4	Temperatura máxima	23.6
52099	7	Sololá	717	San Juan la Laguna	12	San Juan la Laguna	5	Mayo	2023-05-05T00:00:00	2024-11-08T18:00:00	3	Temperatura mínima	22.1
52100	7	Sololá	717	San Juan la Laguna	12	San Juan la Laguna	5	Mayo	2023-05-05T00:00:00	2024-11-08T18:00:00	5	Humedad	78
52101	7	Sololá	717	San Juan la Laguna	12	San Juan la Laguna	5	Mayo	2023-05-05T00:00:00	2024-11-08T18:00:00	6	Velocidad del viento	4.8
52102	7	Sololá	717	San Juan la Laguna	12	San Juan la Laguna	5	Mayo	2023-05-05T00:00:00	2024-11-08T18:00:00	7	Dirección del viento	4.83
52103	7	Sololá	717	San Juan la Laguna	12	San Juan la Laguna	5	Mayo	2023-05-05T00:00:00	2024-11-08T18:00:00	1	Precipitación	0
52104	7	Sololá	717	San Juan la Laguna	12	San Juan la Laguna	5	Mayo	2023-05-05T00:00:00	2024-11-08T18:00:00	8	Radiación solar	74
52105	7	Sololá	717	San Juan la Laguna	12	San Juan la Laguna	5	Mayo	2023-05-05T00:00:00	2024-11-08T19:00:00	2	Temperatura media	21.4
52106	7	Sololá	717	San Juan la Laguna	12	San Juan la Laguna	5	Mayo	2023-05-05T00:00:00	2024-11-08T19:00:00	4	Temperatura máxima	22.1
52107	7	Sololá	717	San Juan la Laguna	12	San Juan la Laguna	5	Mayo	2023-05-05T00:00:00	2024-11-08T19:00:00	3	Temperatura mínima	21.3
52108	7	Sololá	717	San Juan la Laguna	12	San Juan la Laguna	5	Mayo	2023-05-05T00:00:00	2024-11-08T19:00:00	5	Humedad	82
52109	7	Sololá	717	San Juan la Laguna	12	San Juan la Laguna	5	Mayo	2023-05-05T00:00:00	2024-11-08T19:00:00	6	Velocidad del viento	1.6
52110	7	Sololá	717	San Juan la Laguna	12	San Juan la Laguna	5	Mayo	2023-05-05T00:00:00	2024-11-08T19:00:00	7	Dirección del viento	1.61
52111	7	Sololá	717	San Juan la Laguna	12	San Juan la Laguna	5	Mayo	2023-05-05T00:00:00	2024-11-08T19:00:00	1	Precipitación	0
52112	7	Sololá	717	San Juan la Laguna	12	San Juan la Laguna	5	Mayo	2023-05-05T00:00:00	2024-11-08T19:00:00	8	Radiación solar	0
52113	7	Sololá	717	San Juan la Laguna	12	San Juan la Laguna	5	Mayo	2023-05-05T00:00:00	2024-11-08T20:00:00	2	Temperatura media	20.8
52114	7	Sololá	717	San Juan la Laguna	12	San Juan la Laguna	5	Mayo	2023-05-05T00:00:00	2024-11-08T20:00:00	4	Temperatura máxima	21.4
52115	7	Sololá	717	San Juan la Laguna	12	San Juan la Laguna	5	Mayo	2023-05-05T00:00:00	2024-11-08T20:00:00	3	Temperatura mínima	20.8
52116	7	Sololá	717	San Juan la Laguna	12	San Juan la Laguna	5	Mayo	2023-05-05T00:00:00	2024-11-08T20:00:00	5	Humedad	85
52117	7	Sololá	717	San Juan la Laguna	12	San Juan la Laguna	5	Mayo	2023-05-05T00:00:00	2024-11-08T20:00:00	6	Velocidad del viento	0
52118	7	Sololá	717	San Juan la Laguna	12	San Juan la Laguna	5	Mayo	2023-05-05T00:00:00	2024-11-08T20:00:00	7	Dirección del viento	0
52119	7	Sololá	717	San Juan la Laguna	12	San Juan la Laguna	5	Mayo	2023-05-05T00:00:00	2024-11-08T20:00:00	1	Precipitación	0
52120	7	Sololá	717	San Juan la Laguna	12	San Juan la Laguna	5	Mayo	2023-05-05T00:00:00	2024-11-08T20:00:00	8	Radiación solar	0
52121	7	Sololá	717	San Juan la Laguna	12	San Juan la Laguna	5	Mayo	2023-05-05T00:00:00	2024-11-08T21:00:00	2	Temperatura media	19.4
52122	7	Sololá	717	San Juan la Laguna	12	San Juan la Laguna	5	Mayo	2023-05-05T00:00:00	2024-11-08T21:00:00	4	Temperatura máxima	20.8
52123	7	Sololá	717	San Juan la Laguna	12	San Juan la Laguna	5	Mayo	2023-05-05T00:00:00	2024-11-08T21:00:00	3	Temperatura mínima	19.4
52124	7	Sololá	717	San Juan la Laguna	12	San Juan la Laguna	5	Mayo	2023-05-05T00:00:00	2024-11-08T21:00:00	5	Humedad	87
52125	7	Sololá	717	San Juan la Laguna	12	San Juan la Laguna	5	Mayo	2023-05-05T00:00:00	2024-11-08T21:00:00	6	Velocidad del viento	0
52126	7	Sololá	717	San Juan la Laguna	12	San Juan la Laguna	5	Mayo	2023-05-05T00:00:00	2024-11-08T21:00:00	7	Dirección del viento	0
52127	7	Sololá	717	San Juan la Laguna	12	San Juan la Laguna	5	Mayo	2023-05-05T00:00:00	2024-11-08T21:00:00	1	Precipitación	0
52128	7	Sololá	717	San Juan la Laguna	12	San Juan la Laguna	5	Mayo	2023-05-05T00:00:00	2024-11-08T21:00:00	8	Radiación solar	0
52129	7	Sololá	717	San Juan la Laguna	12	San Juan la Laguna	5	Mayo	2023-05-05T00:00:00	2024-11-08T22:00:00	2	Temperatura media	18.4
52130	7	Sololá	717	San Juan la Laguna	12	San Juan la Laguna	5	Mayo	2023-05-05T00:00:00	2024-11-08T22:00:00	4	Temperatura máxima	19.4
52131	7	Sololá	717	San Juan la Laguna	12	San Juan la Laguna	5	Mayo	2023-05-05T00:00:00	2024-11-08T22:00:00	3	Temperatura mínima	18.4
52132	7	Sololá	717	San Juan la Laguna	12	San Juan la Laguna	5	Mayo	2023-05-05T00:00:00	2024-11-08T22:00:00	5	Humedad	87
52133	7	Sololá	717	San Juan la Laguna	12	San Juan la Laguna	5	Mayo	2023-05-05T00:00:00	2024-11-08T22:00:00	6	Velocidad del viento	1.6
52134	7	Sololá	717	San Juan la Laguna	12	San Juan la Laguna	5	Mayo	2023-05-05T00:00:00	2024-11-08T22:00:00	7	Dirección del viento	1.61
52135	7	Sololá	717	San Juan la Laguna	12	San Juan la Laguna	5	Mayo	2023-05-05T00:00:00	2024-11-08T22:00:00	1	Precipitación	0
52136	7	Sololá	717	San Juan la Laguna	12	San Juan la Laguna	5	Mayo	2023-05-05T00:00:00	2024-11-08T22:00:00	8	Radiación solar	0
52137	7	Sololá	717	San Juan la Laguna	12	San Juan la Laguna	5	Mayo	2023-05-05T00:00:00	2024-11-08T23:00:00	2	Temperatura media	17.9
52138	7	Sololá	717	San Juan la Laguna	12	San Juan la Laguna	5	Mayo	2023-05-05T00:00:00	2024-11-08T23:00:00	4	Temperatura máxima	18.4
52139	7	Sololá	717	San Juan la Laguna	12	San Juan la Laguna	5	Mayo	2023-05-05T00:00:00	2024-11-08T23:00:00	3	Temperatura mínima	17.9
52140	7	Sololá	717	San Juan la Laguna	12	San Juan la Laguna	5	Mayo	2023-05-05T00:00:00	2024-11-08T23:00:00	5	Humedad	86
52141	7	Sololá	717	San Juan la Laguna	12	San Juan la Laguna	5	Mayo	2023-05-05T00:00:00	2024-11-08T23:00:00	6	Velocidad del viento	0
52142	7	Sololá	717	San Juan la Laguna	12	San Juan la Laguna	5	Mayo	2023-05-05T00:00:00	2024-11-08T23:00:00	7	Dirección del viento	0
52143	7	Sololá	717	San Juan la Laguna	12	San Juan la Laguna	5	Mayo	2023-05-05T00:00:00	2024-11-08T23:00:00	1	Precipitación	0
52144	7	Sololá	717	San Juan la Laguna	12	San Juan la Laguna	5	Mayo	2023-05-05T00:00:00	2024-11-08T23:00:00	8	Radiación solar	0
52145	7	Sololá	717	San Juan la Laguna	12	San Juan la Laguna	5	Mayo	2023-06-05T00:00:00	2024-11-08T00:00:00	2	Temperatura media	17.5
52146	7	Sololá	717	San Juan la Laguna	12	San Juan la Laguna	5	Mayo	2023-06-05T00:00:00	2024-11-08T00:00:00	4	Temperatura máxima	18
52147	7	Sololá	717	San Juan la Laguna	12	San Juan la Laguna	5	Mayo	2023-06-05T00:00:00	2024-11-08T00:00:00	3	Temperatura mínima	17.4
52148	7	Sololá	717	San Juan la Laguna	12	San Juan la Laguna	5	Mayo	2023-06-05T00:00:00	2024-11-08T00:00:00	5	Humedad	82
52149	7	Sololá	717	San Juan la Laguna	12	San Juan la Laguna	5	Mayo	2023-06-05T00:00:00	2024-11-08T00:00:00	6	Velocidad del viento	1.6
52150	7	Sololá	717	San Juan la Laguna	12	San Juan la Laguna	5	Mayo	2023-06-05T00:00:00	2024-11-08T00:00:00	7	Dirección del viento	1.61
52151	7	Sololá	717	San Juan la Laguna	12	San Juan la Laguna	5	Mayo	2023-06-05T00:00:00	2024-11-08T00:00:00	1	Precipitación	0
52152	7	Sololá	717	San Juan la Laguna	12	San Juan la Laguna	5	Mayo	2023-06-05T00:00:00	2024-11-08T00:00:00	8	Radiación solar	0
52153	7	Sololá	717	San Juan la Laguna	12	San Juan la Laguna	5	Mayo	2023-06-05T00:00:00	2024-11-08T01:00:00	2	Temperatura media	17
52154	7	Sololá	717	San Juan la Laguna	12	San Juan la Laguna	5	Mayo	2023-06-05T00:00:00	2024-11-08T01:00:00	4	Temperatura máxima	17.6
52155	7	Sololá	717	San Juan la Laguna	12	San Juan la Laguna	5	Mayo	2023-06-05T00:00:00	2024-11-08T01:00:00	3	Temperatura mínima	17
52156	7	Sololá	717	San Juan la Laguna	12	San Juan la Laguna	5	Mayo	2023-06-05T00:00:00	2024-11-08T01:00:00	5	Humedad	81
52157	7	Sololá	717	San Juan la Laguna	12	San Juan la Laguna	5	Mayo	2023-06-05T00:00:00	2024-11-08T01:00:00	6	Velocidad del viento	0
52158	7	Sololá	717	San Juan la Laguna	12	San Juan la Laguna	5	Mayo	2023-06-05T00:00:00	2024-11-08T01:00:00	7	Dirección del viento	0
52159	7	Sololá	717	San Juan la Laguna	12	San Juan la Laguna	5	Mayo	2023-06-05T00:00:00	2024-11-08T01:00:00	1	Precipitación	0
52160	7	Sololá	717	San Juan la Laguna	12	San Juan la Laguna	5	Mayo	2023-06-05T00:00:00	2024-11-08T01:00:00	8	Radiación solar	0
52161	7	Sololá	717	San Juan la Laguna	12	San Juan la Laguna	5	Mayo	2023-06-05T00:00:00	2024-11-08T02:00:00	2	Temperatura media	16.2
52162	7	Sololá	717	San Juan la Laguna	12	San Juan la Laguna	5	Mayo	2023-06-05T00:00:00	2024-11-08T02:00:00	4	Temperatura máxima	17.3
52163	7	Sololá	717	San Juan la Laguna	12	San Juan la Laguna	5	Mayo	2023-06-05T00:00:00	2024-11-08T02:00:00	3	Temperatura mínima	16.2
52164	7	Sololá	717	San Juan la Laguna	12	San Juan la Laguna	5	Mayo	2023-06-05T00:00:00	2024-11-08T02:00:00	5	Humedad	83
52165	7	Sololá	717	San Juan la Laguna	12	San Juan la Laguna	5	Mayo	2023-06-05T00:00:00	2024-11-08T02:00:00	6	Velocidad del viento	1.6
52166	7	Sololá	717	San Juan la Laguna	12	San Juan la Laguna	5	Mayo	2023-06-05T00:00:00	2024-11-08T02:00:00	7	Dirección del viento	1.61
52167	7	Sololá	717	San Juan la Laguna	12	San Juan la Laguna	5	Mayo	2023-06-05T00:00:00	2024-11-08T02:00:00	1	Precipitación	0
52168	7	Sololá	717	San Juan la Laguna	12	San Juan la Laguna	5	Mayo	2023-06-05T00:00:00	2024-11-08T02:00:00	8	Radiación solar	0
52169	7	Sololá	717	San Juan la Laguna	12	San Juan la Laguna	5	Mayo	2023-06-05T00:00:00	2024-11-08T03:00:00	2	Temperatura media	16
52170	7	Sololá	717	San Juan la Laguna	12	San Juan la Laguna	5	Mayo	2023-06-05T00:00:00	2024-11-08T03:00:00	4	Temperatura máxima	16.2
52171	7	Sololá	717	San Juan la Laguna	12	San Juan la Laguna	5	Mayo	2023-06-05T00:00:00	2024-11-08T03:00:00	3	Temperatura mínima	15.8
52172	7	Sololá	717	San Juan la Laguna	12	San Juan la Laguna	5	Mayo	2023-06-05T00:00:00	2024-11-08T03:00:00	5	Humedad	80
52173	7	Sololá	717	San Juan la Laguna	12	San Juan la Laguna	5	Mayo	2023-06-05T00:00:00	2024-11-08T03:00:00	6	Velocidad del viento	1.6
52174	7	Sololá	717	San Juan la Laguna	12	San Juan la Laguna	5	Mayo	2023-06-05T00:00:00	2024-11-08T03:00:00	7	Dirección del viento	1.61
52175	7	Sololá	717	San Juan la Laguna	12	San Juan la Laguna	5	Mayo	2023-06-05T00:00:00	2024-11-08T03:00:00	1	Precipitación	0
52176	7	Sololá	717	San Juan la Laguna	12	San Juan la Laguna	5	Mayo	2023-06-05T00:00:00	2024-11-08T03:00:00	8	Radiación solar	0
52177	7	Sololá	717	San Juan la Laguna	12	San Juan la Laguna	5	Mayo	2023-06-05T00:00:00	2024-11-08T04:00:00	2	Temperatura media	15.6
52178	7	Sololá	717	San Juan la Laguna	12	San Juan la Laguna	5	Mayo	2023-06-05T00:00:00	2024-11-08T04:00:00	4	Temperatura máxima	16.1
52179	7	Sololá	717	San Juan la Laguna	12	San Juan la Laguna	5	Mayo	2023-06-05T00:00:00	2024-11-08T04:00:00	3	Temperatura mínima	15.6
52180	7	Sololá	717	San Juan la Laguna	12	San Juan la Laguna	5	Mayo	2023-06-05T00:00:00	2024-11-08T04:00:00	5	Humedad	77
52181	7	Sololá	717	San Juan la Laguna	12	San Juan la Laguna	5	Mayo	2023-06-05T00:00:00	2024-11-08T04:00:00	6	Velocidad del viento	4.8
52182	7	Sololá	717	San Juan la Laguna	12	San Juan la Laguna	5	Mayo	2023-06-05T00:00:00	2024-11-08T04:00:00	7	Dirección del viento	4.83
52183	7	Sololá	717	San Juan la Laguna	12	San Juan la Laguna	5	Mayo	2023-06-05T00:00:00	2024-11-08T04:00:00	1	Precipitación	0
52184	7	Sololá	717	San Juan la Laguna	12	San Juan la Laguna	5	Mayo	2023-06-05T00:00:00	2024-11-08T04:00:00	8	Radiación solar	0
52185	7	Sololá	717	San Juan la Laguna	12	San Juan la Laguna	5	Mayo	2023-06-05T00:00:00	2024-11-08T05:00:00	2	Temperatura media	15.1
52186	7	Sololá	717	San Juan la Laguna	12	San Juan la Laguna	5	Mayo	2023-06-05T00:00:00	2024-11-08T05:00:00	4	Temperatura máxima	15.6
52187	7	Sololá	717	San Juan la Laguna	12	San Juan la Laguna	5	Mayo	2023-06-05T00:00:00	2024-11-08T05:00:00	3	Temperatura mínima	15.1
52188	7	Sololá	717	San Juan la Laguna	12	San Juan la Laguna	5	Mayo	2023-06-05T00:00:00	2024-11-08T05:00:00	5	Humedad	76
52189	7	Sololá	717	San Juan la Laguna	12	San Juan la Laguna	5	Mayo	2023-06-05T00:00:00	2024-11-08T05:00:00	6	Velocidad del viento	3.2
52190	7	Sololá	717	San Juan la Laguna	12	San Juan la Laguna	5	Mayo	2023-06-05T00:00:00	2024-11-08T05:00:00	7	Dirección del viento	3.22
52191	7	Sololá	717	San Juan la Laguna	12	San Juan la Laguna	5	Mayo	2023-06-05T00:00:00	2024-11-08T05:00:00	1	Precipitación	0
52192	7	Sololá	717	San Juan la Laguna	12	San Juan la Laguna	5	Mayo	2023-06-05T00:00:00	2024-11-08T05:00:00	8	Radiación solar	0
52193	7	Sololá	717	San Juan la Laguna	12	San Juan la Laguna	5	Mayo	2023-06-05T00:00:00	2024-11-08T06:00:00	2	Temperatura media	15
52194	7	Sololá	717	San Juan la Laguna	12	San Juan la Laguna	5	Mayo	2023-06-05T00:00:00	2024-11-08T06:00:00	4	Temperatura máxima	15.1
52195	7	Sololá	717	San Juan la Laguna	12	San Juan la Laguna	5	Mayo	2023-06-05T00:00:00	2024-11-08T06:00:00	3	Temperatura mínima	14.7
52196	7	Sololá	717	San Juan la Laguna	12	San Juan la Laguna	5	Mayo	2023-06-05T00:00:00	2024-11-08T06:00:00	5	Humedad	72
52197	7	Sololá	717	San Juan la Laguna	12	San Juan la Laguna	5	Mayo	2023-06-05T00:00:00	2024-11-08T06:00:00	6	Velocidad del viento	1.6
52198	7	Sololá	717	San Juan la Laguna	12	San Juan la Laguna	5	Mayo	2023-06-05T00:00:00	2024-11-08T06:00:00	7	Dirección del viento	1.61
52199	7	Sololá	717	San Juan la Laguna	12	San Juan la Laguna	5	Mayo	2023-06-05T00:00:00	2024-11-08T06:00:00	1	Precipitación	0
52200	7	Sololá	717	San Juan la Laguna	12	San Juan la Laguna	5	Mayo	2023-06-05T00:00:00	2024-11-08T06:00:00	8	Radiación solar	3
52201	7	Sololá	717	San Juan la Laguna	12	San Juan la Laguna	5	Mayo	2023-06-05T00:00:00	2024-11-08T07:00:00	2	Temperatura media	17
52202	7	Sololá	717	San Juan la Laguna	12	San Juan la Laguna	5	Mayo	2023-06-05T00:00:00	2024-11-08T07:00:00	4	Temperatura máxima	17
52203	7	Sololá	717	San Juan la Laguna	12	San Juan la Laguna	5	Mayo	2023-06-05T00:00:00	2024-11-08T07:00:00	3	Temperatura mínima	14.9
52204	7	Sololá	717	San Juan la Laguna	12	San Juan la Laguna	5	Mayo	2023-06-05T00:00:00	2024-11-08T07:00:00	5	Humedad	73
52205	7	Sololá	717	San Juan la Laguna	12	San Juan la Laguna	5	Mayo	2023-06-05T00:00:00	2024-11-08T07:00:00	6	Velocidad del viento	0
52206	7	Sololá	717	San Juan la Laguna	12	San Juan la Laguna	5	Mayo	2023-06-05T00:00:00	2024-11-08T07:00:00	7	Dirección del viento	0
52207	7	Sololá	717	San Juan la Laguna	12	San Juan la Laguna	5	Mayo	2023-06-05T00:00:00	2024-11-08T07:00:00	1	Precipitación	0
52208	7	Sololá	717	San Juan la Laguna	12	San Juan la Laguna	5	Mayo	2023-06-05T00:00:00	2024-11-08T07:00:00	8	Radiación solar	105
52209	7	Sololá	717	San Juan la Laguna	12	San Juan la Laguna	5	Mayo	2023-06-05T00:00:00	2024-11-08T08:00:00	2	Temperatura media	21.2
52210	7	Sololá	717	San Juan la Laguna	12	San Juan la Laguna	5	Mayo	2023-06-05T00:00:00	2024-11-08T08:00:00	4	Temperatura máxima	21.2
52211	7	Sololá	717	San Juan la Laguna	12	San Juan la Laguna	5	Mayo	2023-06-05T00:00:00	2024-11-08T08:00:00	3	Temperatura mínima	17
52212	7	Sololá	717	San Juan la Laguna	12	San Juan la Laguna	5	Mayo	2023-06-05T00:00:00	2024-11-08T08:00:00	5	Humedad	60
52213	7	Sololá	717	San Juan la Laguna	12	San Juan la Laguna	5	Mayo	2023-06-05T00:00:00	2024-11-08T08:00:00	6	Velocidad del viento	0
52214	7	Sololá	717	San Juan la Laguna	12	San Juan la Laguna	5	Mayo	2023-06-05T00:00:00	2024-11-08T08:00:00	7	Dirección del viento	0
52215	7	Sololá	717	San Juan la Laguna	12	San Juan la Laguna	5	Mayo	2023-06-05T00:00:00	2024-11-08T08:00:00	1	Precipitación	0
52216	7	Sololá	717	San Juan la Laguna	12	San Juan la Laguna	5	Mayo	2023-06-05T00:00:00	2024-11-08T08:00:00	8	Radiación solar	325
52217	7	Sololá	717	San Juan la Laguna	12	San Juan la Laguna	5	Mayo	2023-06-05T00:00:00	2024-11-08T09:00:00	2	Temperatura media	22.8
52218	7	Sololá	717	San Juan la Laguna	12	San Juan la Laguna	5	Mayo	2023-06-05T00:00:00	2024-11-08T09:00:00	4	Temperatura máxima	22.8
52219	7	Sololá	717	San Juan la Laguna	12	San Juan la Laguna	5	Mayo	2023-06-05T00:00:00	2024-11-08T09:00:00	3	Temperatura mínima	21.2
52220	7	Sololá	717	San Juan la Laguna	12	San Juan la Laguna	5	Mayo	2023-06-05T00:00:00	2024-11-08T09:00:00	5	Humedad	54
52221	7	Sololá	717	San Juan la Laguna	12	San Juan la Laguna	5	Mayo	2023-06-05T00:00:00	2024-11-08T09:00:00	6	Velocidad del viento	1.6
52222	7	Sololá	717	San Juan la Laguna	12	San Juan la Laguna	5	Mayo	2023-06-05T00:00:00	2024-11-08T09:00:00	7	Dirección del viento	1.61
52223	7	Sololá	717	San Juan la Laguna	12	San Juan la Laguna	5	Mayo	2023-06-05T00:00:00	2024-11-08T09:00:00	1	Precipitación	0
52224	7	Sololá	717	San Juan la Laguna	12	San Juan la Laguna	5	Mayo	2023-06-05T00:00:00	2024-11-08T09:00:00	8	Radiación solar	542
52225	7	Sololá	717	San Juan la Laguna	12	San Juan la Laguna	5	Mayo	2023-06-05T00:00:00	2024-11-08T10:00:00	2	Temperatura media	24.4
52226	7	Sololá	717	San Juan la Laguna	12	San Juan la Laguna	5	Mayo	2023-06-05T00:00:00	2024-11-08T10:00:00	4	Temperatura máxima	24.4
52227	7	Sololá	717	San Juan la Laguna	12	San Juan la Laguna	5	Mayo	2023-06-05T00:00:00	2024-11-08T10:00:00	3	Temperatura mínima	22.3
52228	7	Sololá	717	San Juan la Laguna	12	San Juan la Laguna	5	Mayo	2023-06-05T00:00:00	2024-11-08T10:00:00	5	Humedad	50
52229	7	Sololá	717	San Juan la Laguna	12	San Juan la Laguna	5	Mayo	2023-06-05T00:00:00	2024-11-08T10:00:00	6	Velocidad del viento	1.6
52230	7	Sololá	717	San Juan la Laguna	12	San Juan la Laguna	5	Mayo	2023-06-05T00:00:00	2024-11-08T10:00:00	7	Dirección del viento	1.61
52231	7	Sololá	717	San Juan la Laguna	12	San Juan la Laguna	5	Mayo	2023-06-05T00:00:00	2024-11-08T10:00:00	1	Precipitación	0
52232	7	Sololá	717	San Juan la Laguna	12	San Juan la Laguna	5	Mayo	2023-06-05T00:00:00	2024-11-08T10:00:00	8	Radiación solar	714
52233	7	Sololá	717	San Juan la Laguna	12	San Juan la Laguna	5	Mayo	2023-06-05T00:00:00	2024-11-08T11:00:00	2	Temperatura media	25.7
52234	7	Sololá	717	San Juan la Laguna	12	San Juan la Laguna	5	Mayo	2023-06-05T00:00:00	2024-11-08T11:00:00	4	Temperatura máxima	26.2
52235	7	Sololá	717	San Juan la Laguna	12	San Juan la Laguna	5	Mayo	2023-06-05T00:00:00	2024-11-08T11:00:00	3	Temperatura mínima	24.4
52236	7	Sololá	717	San Juan la Laguna	12	San Juan la Laguna	5	Mayo	2023-06-05T00:00:00	2024-11-08T11:00:00	5	Humedad	45
52237	7	Sololá	717	San Juan la Laguna	12	San Juan la Laguna	5	Mayo	2023-06-05T00:00:00	2024-11-08T11:00:00	6	Velocidad del viento	1.6
52238	7	Sololá	717	San Juan la Laguna	12	San Juan la Laguna	5	Mayo	2023-06-05T00:00:00	2024-11-08T11:00:00	7	Dirección del viento	1.61
52239	7	Sololá	717	San Juan la Laguna	12	San Juan la Laguna	5	Mayo	2023-06-05T00:00:00	2024-11-08T11:00:00	1	Precipitación	0
52240	7	Sololá	717	San Juan la Laguna	12	San Juan la Laguna	5	Mayo	2023-06-05T00:00:00	2024-11-08T11:00:00	8	Radiación solar	860
52241	7	Sololá	717	San Juan la Laguna	12	San Juan la Laguna	5	Mayo	2023-06-05T00:00:00	2024-11-08T12:00:00	2	Temperatura media	27.3
52242	7	Sololá	717	San Juan la Laguna	12	San Juan la Laguna	5	Mayo	2023-06-05T00:00:00	2024-11-08T12:00:00	4	Temperatura máxima	27.4
52243	7	Sololá	717	San Juan la Laguna	12	San Juan la Laguna	5	Mayo	2023-06-05T00:00:00	2024-11-08T12:00:00	3	Temperatura mínima	25.7
52244	7	Sololá	717	San Juan la Laguna	12	San Juan la Laguna	5	Mayo	2023-06-05T00:00:00	2024-11-08T12:00:00	5	Humedad	38
52245	7	Sololá	717	San Juan la Laguna	12	San Juan la Laguna	5	Mayo	2023-06-05T00:00:00	2024-11-08T12:00:00	6	Velocidad del viento	1.6
52246	7	Sololá	717	San Juan la Laguna	12	San Juan la Laguna	5	Mayo	2023-06-05T00:00:00	2024-11-08T12:00:00	7	Dirección del viento	1.61
52247	7	Sololá	717	San Juan la Laguna	12	San Juan la Laguna	5	Mayo	2023-06-05T00:00:00	2024-11-08T12:00:00	1	Precipitación	0
52248	7	Sololá	717	San Juan la Laguna	12	San Juan la Laguna	5	Mayo	2023-06-05T00:00:00	2024-11-08T12:00:00	8	Radiación solar	919
52249	7	Sololá	717	San Juan la Laguna	12	San Juan la Laguna	5	Mayo	2023-06-05T00:00:00	2024-11-08T13:00:00	2	Temperatura media	26.4
52250	7	Sololá	717	San Juan la Laguna	12	San Juan la Laguna	5	Mayo	2023-06-05T00:00:00	2024-11-08T13:00:00	4	Temperatura máxima	28.1
52251	7	Sololá	717	San Juan la Laguna	12	San Juan la Laguna	5	Mayo	2023-06-05T00:00:00	2024-11-08T13:00:00	3	Temperatura mínima	26.3
52252	7	Sololá	717	San Juan la Laguna	12	San Juan la Laguna	5	Mayo	2023-06-05T00:00:00	2024-11-08T13:00:00	5	Humedad	56
52253	7	Sololá	717	San Juan la Laguna	12	San Juan la Laguna	5	Mayo	2023-06-05T00:00:00	2024-11-08T13:00:00	6	Velocidad del viento	3.2
52254	7	Sololá	717	San Juan la Laguna	12	San Juan la Laguna	5	Mayo	2023-06-05T00:00:00	2024-11-08T13:00:00	7	Dirección del viento	3.22
52255	7	Sololá	717	San Juan la Laguna	12	San Juan la Laguna	5	Mayo	2023-06-05T00:00:00	2024-11-08T13:00:00	1	Precipitación	0
52256	7	Sololá	717	San Juan la Laguna	12	San Juan la Laguna	5	Mayo	2023-06-05T00:00:00	2024-11-08T13:00:00	8	Radiación solar	879
52257	7	Sololá	717	San Juan la Laguna	12	San Juan la Laguna	5	Mayo	2023-06-05T00:00:00	2024-11-08T14:00:00	2	Temperatura media	26.4
52258	7	Sololá	717	San Juan la Laguna	12	San Juan la Laguna	5	Mayo	2023-06-05T00:00:00	2024-11-08T14:00:00	4	Temperatura máxima	26.9
52259	7	Sololá	717	San Juan la Laguna	12	San Juan la Laguna	5	Mayo	2023-06-05T00:00:00	2024-11-08T14:00:00	3	Temperatura mínima	26.1
52260	7	Sololá	717	San Juan la Laguna	12	San Juan la Laguna	5	Mayo	2023-06-05T00:00:00	2024-11-08T14:00:00	5	Humedad	57
52261	7	Sololá	717	San Juan la Laguna	12	San Juan la Laguna	5	Mayo	2023-06-05T00:00:00	2024-11-08T14:00:00	6	Velocidad del viento	4.8
52262	7	Sololá	717	San Juan la Laguna	12	San Juan la Laguna	5	Mayo	2023-06-05T00:00:00	2024-11-08T14:00:00	7	Dirección del viento	4.83
52263	7	Sololá	717	San Juan la Laguna	12	San Juan la Laguna	5	Mayo	2023-06-05T00:00:00	2024-11-08T14:00:00	1	Precipitación	0
52264	7	Sololá	717	San Juan la Laguna	12	San Juan la Laguna	5	Mayo	2023-06-05T00:00:00	2024-11-08T14:00:00	8	Radiación solar	812
52265	7	Sololá	717	San Juan la Laguna	12	San Juan la Laguna	5	Mayo	2023-06-05T00:00:00	2024-11-08T15:00:00	2	Temperatura media	25.4
52266	7	Sololá	717	San Juan la Laguna	12	San Juan la Laguna	5	Mayo	2023-06-05T00:00:00	2024-11-08T15:00:00	4	Temperatura máxima	26.5
52267	7	Sololá	717	San Juan la Laguna	12	San Juan la Laguna	5	Mayo	2023-06-05T00:00:00	2024-11-08T15:00:00	3	Temperatura mínima	25.1
52268	7	Sololá	717	San Juan la Laguna	12	San Juan la Laguna	5	Mayo	2023-06-05T00:00:00	2024-11-08T15:00:00	5	Humedad	64
52269	7	Sololá	717	San Juan la Laguna	12	San Juan la Laguna	5	Mayo	2023-06-05T00:00:00	2024-11-08T15:00:00	6	Velocidad del viento	6.4
52270	7	Sololá	717	San Juan la Laguna	12	San Juan la Laguna	5	Mayo	2023-06-05T00:00:00	2024-11-08T15:00:00	7	Dirección del viento	6.44
52271	7	Sololá	717	San Juan la Laguna	12	San Juan la Laguna	5	Mayo	2023-06-05T00:00:00	2024-11-08T15:00:00	1	Precipitación	0
52272	7	Sololá	717	San Juan la Laguna	12	San Juan la Laguna	5	Mayo	2023-06-05T00:00:00	2024-11-08T15:00:00	8	Radiación solar	658
52273	7	Sololá	717	San Juan la Laguna	12	San Juan la Laguna	5	Mayo	2023-06-05T00:00:00	2024-11-08T16:00:00	2	Temperatura media	24.9
52274	7	Sololá	717	San Juan la Laguna	12	San Juan la Laguna	5	Mayo	2023-06-05T00:00:00	2024-11-08T16:00:00	4	Temperatura máxima	25.8
52275	7	Sololá	717	San Juan la Laguna	12	San Juan la Laguna	5	Mayo	2023-06-05T00:00:00	2024-11-08T16:00:00	3	Temperatura mínima	24.9
52276	7	Sololá	717	San Juan la Laguna	12	San Juan la Laguna	5	Mayo	2023-06-05T00:00:00	2024-11-08T16:00:00	5	Humedad	66
52277	7	Sololá	717	San Juan la Laguna	12	San Juan la Laguna	5	Mayo	2023-06-05T00:00:00	2024-11-08T16:00:00	6	Velocidad del viento	6.4
52278	7	Sololá	717	San Juan la Laguna	12	San Juan la Laguna	5	Mayo	2023-06-05T00:00:00	2024-11-08T16:00:00	7	Dirección del viento	6.44
52279	7	Sololá	717	San Juan la Laguna	12	San Juan la Laguna	5	Mayo	2023-06-05T00:00:00	2024-11-08T16:00:00	1	Precipitación	0
52280	7	Sololá	717	San Juan la Laguna	12	San Juan la Laguna	5	Mayo	2023-06-05T00:00:00	2024-11-08T16:00:00	8	Radiación solar	533
52281	7	Sololá	717	San Juan la Laguna	12	San Juan la Laguna	5	Mayo	2023-06-05T00:00:00	2024-11-08T17:00:00	2	Temperatura media	24.6
52282	7	Sololá	717	San Juan la Laguna	12	San Juan la Laguna	5	Mayo	2023-06-05T00:00:00	2024-11-08T17:00:00	4	Temperatura máxima	25.4
52283	7	Sololá	717	San Juan la Laguna	12	San Juan la Laguna	5	Mayo	2023-06-05T00:00:00	2024-11-08T17:00:00	3	Temperatura mínima	24.6
52284	7	Sololá	717	San Juan la Laguna	12	San Juan la Laguna	5	Mayo	2023-06-05T00:00:00	2024-11-08T17:00:00	5	Humedad	66
52285	7	Sololá	717	San Juan la Laguna	12	San Juan la Laguna	5	Mayo	2023-06-05T00:00:00	2024-11-08T17:00:00	6	Velocidad del viento	3.2
52286	7	Sololá	717	San Juan la Laguna	12	San Juan la Laguna	5	Mayo	2023-06-05T00:00:00	2024-11-08T17:00:00	7	Dirección del viento	3.22
52287	7	Sololá	717	San Juan la Laguna	12	San Juan la Laguna	5	Mayo	2023-06-05T00:00:00	2024-11-08T17:00:00	1	Precipitación	0
52288	7	Sololá	717	San Juan la Laguna	12	San Juan la Laguna	5	Mayo	2023-06-05T00:00:00	2024-11-08T17:00:00	8	Radiación solar	310
52289	7	Sololá	717	San Juan la Laguna	12	San Juan la Laguna	5	Mayo	2023-06-05T00:00:00	2024-11-08T18:00:00	2	Temperatura media	23.1
52290	7	Sololá	717	San Juan la Laguna	12	San Juan la Laguna	5	Mayo	2023-06-05T00:00:00	2024-11-08T18:00:00	4	Temperatura máxima	24.6
52291	7	Sololá	717	San Juan la Laguna	12	San Juan la Laguna	5	Mayo	2023-06-05T00:00:00	2024-11-08T18:00:00	3	Temperatura mínima	23.1
52292	7	Sololá	717	San Juan la Laguna	12	San Juan la Laguna	5	Mayo	2023-06-05T00:00:00	2024-11-08T18:00:00	5	Humedad	74
52293	7	Sololá	717	San Juan la Laguna	12	San Juan la Laguna	5	Mayo	2023-06-05T00:00:00	2024-11-08T18:00:00	6	Velocidad del viento	1.6
52294	7	Sololá	717	San Juan la Laguna	12	San Juan la Laguna	5	Mayo	2023-06-05T00:00:00	2024-11-08T18:00:00	7	Dirección del viento	1.61
52295	7	Sololá	717	San Juan la Laguna	12	San Juan la Laguna	5	Mayo	2023-06-05T00:00:00	2024-11-08T18:00:00	1	Precipitación	0
52296	7	Sololá	717	San Juan la Laguna	12	San Juan la Laguna	5	Mayo	2023-06-05T00:00:00	2024-11-08T18:00:00	8	Radiación solar	92
52297	7	Sololá	717	San Juan la Laguna	12	San Juan la Laguna	5	Mayo	2023-06-05T00:00:00	2024-11-08T19:00:00	2	Temperatura media	21.3
52298	7	Sololá	717	San Juan la Laguna	12	San Juan la Laguna	5	Mayo	2023-06-05T00:00:00	2024-11-08T19:00:00	4	Temperatura máxima	23.1
52299	7	Sololá	717	San Juan la Laguna	12	San Juan la Laguna	5	Mayo	2023-06-05T00:00:00	2024-11-08T19:00:00	3	Temperatura mínima	21.3
52300	7	Sololá	717	San Juan la Laguna	12	San Juan la Laguna	5	Mayo	2023-06-05T00:00:00	2024-11-08T19:00:00	5	Humedad	80
52301	7	Sololá	717	San Juan la Laguna	12	San Juan la Laguna	5	Mayo	2023-06-05T00:00:00	2024-11-08T19:00:00	6	Velocidad del viento	0
52302	7	Sololá	717	San Juan la Laguna	12	San Juan la Laguna	5	Mayo	2023-06-05T00:00:00	2024-11-08T19:00:00	7	Dirección del viento	0
52303	7	Sololá	717	San Juan la Laguna	12	San Juan la Laguna	5	Mayo	2023-06-05T00:00:00	2024-11-08T19:00:00	1	Precipitación	0
52304	7	Sololá	717	San Juan la Laguna	12	San Juan la Laguna	5	Mayo	2023-06-05T00:00:00	2024-11-08T19:00:00	8	Radiación solar	0
52305	7	Sololá	717	San Juan la Laguna	12	San Juan la Laguna	5	Mayo	2023-06-05T00:00:00	2024-11-08T20:00:00	2	Temperatura media	19.6
52306	7	Sololá	717	San Juan la Laguna	12	San Juan la Laguna	5	Mayo	2023-06-05T00:00:00	2024-11-08T20:00:00	4	Temperatura máxima	21.3
52307	7	Sololá	717	San Juan la Laguna	12	San Juan la Laguna	5	Mayo	2023-06-05T00:00:00	2024-11-08T20:00:00	3	Temperatura mínima	19.6
52308	7	Sololá	717	San Juan la Laguna	12	San Juan la Laguna	5	Mayo	2023-06-05T00:00:00	2024-11-08T20:00:00	5	Humedad	84
52309	7	Sololá	717	San Juan la Laguna	12	San Juan la Laguna	5	Mayo	2023-06-05T00:00:00	2024-11-08T20:00:00	6	Velocidad del viento	1.6
52310	7	Sololá	717	San Juan la Laguna	12	San Juan la Laguna	5	Mayo	2023-06-05T00:00:00	2024-11-08T20:00:00	7	Dirección del viento	1.61
52311	7	Sololá	717	San Juan la Laguna	12	San Juan la Laguna	5	Mayo	2023-06-05T00:00:00	2024-11-08T20:00:00	1	Precipitación	0
52312	7	Sololá	717	San Juan la Laguna	12	San Juan la Laguna	5	Mayo	2023-06-05T00:00:00	2024-11-08T20:00:00	8	Radiación solar	0
52313	7	Sololá	717	San Juan la Laguna	12	San Juan la Laguna	5	Mayo	2023-06-05T00:00:00	2024-11-08T21:00:00	2	Temperatura media	19.8
52314	7	Sololá	717	San Juan la Laguna	12	San Juan la Laguna	5	Mayo	2023-06-05T00:00:00	2024-11-08T21:00:00	4	Temperatura máxima	20.6
52315	7	Sololá	717	San Juan la Laguna	12	San Juan la Laguna	5	Mayo	2023-06-05T00:00:00	2024-11-08T21:00:00	3	Temperatura mínima	19.4
52316	7	Sololá	717	San Juan la Laguna	12	San Juan la Laguna	5	Mayo	2023-06-05T00:00:00	2024-11-08T21:00:00	5	Humedad	66
52317	7	Sololá	717	San Juan la Laguna	12	San Juan la Laguna	5	Mayo	2023-06-05T00:00:00	2024-11-08T21:00:00	6	Velocidad del viento	1.6
52318	7	Sololá	717	San Juan la Laguna	12	San Juan la Laguna	5	Mayo	2023-06-05T00:00:00	2024-11-08T21:00:00	7	Dirección del viento	1.61
52319	7	Sololá	717	San Juan la Laguna	12	San Juan la Laguna	5	Mayo	2023-06-05T00:00:00	2024-11-08T21:00:00	1	Precipitación	0
52320	7	Sololá	717	San Juan la Laguna	12	San Juan la Laguna	5	Mayo	2023-06-05T00:00:00	2024-11-08T21:00:00	8	Radiación solar	0
52321	7	Sololá	717	San Juan la Laguna	12	San Juan la Laguna	5	Mayo	2023-06-05T00:00:00	2024-11-08T22:00:00	2	Temperatura media	20.8
52322	7	Sololá	717	San Juan la Laguna	12	San Juan la Laguna	5	Mayo	2023-06-05T00:00:00	2024-11-08T22:00:00	4	Temperatura máxima	20.8
52323	7	Sololá	717	San Juan la Laguna	12	San Juan la Laguna	5	Mayo	2023-06-05T00:00:00	2024-11-08T22:00:00	3	Temperatura mínima	19.6
52324	7	Sololá	717	San Juan la Laguna	12	San Juan la Laguna	5	Mayo	2023-06-05T00:00:00	2024-11-08T22:00:00	5	Humedad	61
52325	7	Sololá	717	San Juan la Laguna	12	San Juan la Laguna	5	Mayo	2023-06-05T00:00:00	2024-11-08T22:00:00	6	Velocidad del viento	1.6
52326	7	Sololá	717	San Juan la Laguna	12	San Juan la Laguna	5	Mayo	2023-06-05T00:00:00	2024-11-08T22:00:00	7	Dirección del viento	1.61
52327	7	Sololá	717	San Juan la Laguna	12	San Juan la Laguna	5	Mayo	2023-06-05T00:00:00	2024-11-08T22:00:00	1	Precipitación	0
52328	7	Sololá	717	San Juan la Laguna	12	San Juan la Laguna	5	Mayo	2023-06-05T00:00:00	2024-11-08T22:00:00	8	Radiación solar	0
52329	7	Sololá	717	San Juan la Laguna	12	San Juan la Laguna	5	Mayo	2023-06-05T00:00:00	2024-11-08T23:00:00	2	Temperatura media	19.3
52330	7	Sololá	717	San Juan la Laguna	12	San Juan la Laguna	5	Mayo	2023-06-05T00:00:00	2024-11-08T23:00:00	4	Temperatura máxima	21.4
52331	7	Sololá	717	San Juan la Laguna	12	San Juan la Laguna	5	Mayo	2023-06-05T00:00:00	2024-11-08T23:00:00	3	Temperatura mínima	19.3
52332	7	Sololá	717	San Juan la Laguna	12	San Juan la Laguna	5	Mayo	2023-06-05T00:00:00	2024-11-08T23:00:00	5	Humedad	69
52333	7	Sololá	717	San Juan la Laguna	12	San Juan la Laguna	5	Mayo	2023-06-05T00:00:00	2024-11-08T23:00:00	6	Velocidad del viento	1.6
52334	7	Sololá	717	San Juan la Laguna	12	San Juan la Laguna	5	Mayo	2023-06-05T00:00:00	2024-11-08T23:00:00	7	Dirección del viento	1.61
52335	7	Sololá	717	San Juan la Laguna	12	San Juan la Laguna	5	Mayo	2023-06-05T00:00:00	2024-11-08T23:00:00	1	Precipitación	0
52336	7	Sololá	717	San Juan la Laguna	12	San Juan la Laguna	5	Mayo	2023-06-05T00:00:00	2024-11-08T23:00:00	8	Radiación solar	0
52337	7	Sololá	717	San Juan la Laguna	12	San Juan la Laguna	5	Mayo	2023-07-05T00:00:00	2024-11-08T00:00:00	2	Temperatura media	16.7
52338	7	Sololá	717	San Juan la Laguna	12	San Juan la Laguna	5	Mayo	2023-07-05T00:00:00	2024-11-08T00:00:00	4	Temperatura máxima	19.3
52339	7	Sololá	717	San Juan la Laguna	12	San Juan la Laguna	5	Mayo	2023-07-05T00:00:00	2024-11-08T00:00:00	3	Temperatura mínima	16.7
52340	7	Sololá	717	San Juan la Laguna	12	San Juan la Laguna	5	Mayo	2023-07-05T00:00:00	2024-11-08T00:00:00	5	Humedad	71
52341	7	Sololá	717	San Juan la Laguna	12	San Juan la Laguna	5	Mayo	2023-07-05T00:00:00	2024-11-08T00:00:00	6	Velocidad del viento	3.2
52342	7	Sololá	717	San Juan la Laguna	12	San Juan la Laguna	5	Mayo	2023-07-05T00:00:00	2024-11-08T00:00:00	7	Dirección del viento	3.22
52343	7	Sololá	717	San Juan la Laguna	12	San Juan la Laguna	5	Mayo	2023-07-05T00:00:00	2024-11-08T00:00:00	1	Precipitación	0
52344	7	Sololá	717	San Juan la Laguna	12	San Juan la Laguna	5	Mayo	2023-07-05T00:00:00	2024-11-08T00:00:00	8	Radiación solar	0
52345	7	Sololá	717	San Juan la Laguna	12	San Juan la Laguna	5	Mayo	2023-07-05T00:00:00	2024-11-08T01:00:00	2	Temperatura media	16.1
52346	7	Sololá	717	San Juan la Laguna	12	San Juan la Laguna	5	Mayo	2023-07-05T00:00:00	2024-11-08T01:00:00	4	Temperatura máxima	16.9
52347	7	Sololá	717	San Juan la Laguna	12	San Juan la Laguna	5	Mayo	2023-07-05T00:00:00	2024-11-08T01:00:00	3	Temperatura mínima	16.1
52348	7	Sololá	717	San Juan la Laguna	12	San Juan la Laguna	5	Mayo	2023-07-05T00:00:00	2024-11-08T01:00:00	5	Humedad	70
52349	7	Sololá	717	San Juan la Laguna	12	San Juan la Laguna	5	Mayo	2023-07-05T00:00:00	2024-11-08T01:00:00	6	Velocidad del viento	3.2
52350	7	Sololá	717	San Juan la Laguna	12	San Juan la Laguna	5	Mayo	2023-07-05T00:00:00	2024-11-08T01:00:00	7	Dirección del viento	3.22
52351	7	Sololá	717	San Juan la Laguna	12	San Juan la Laguna	5	Mayo	2023-07-05T00:00:00	2024-11-08T01:00:00	1	Precipitación	0
52352	7	Sololá	717	San Juan la Laguna	12	San Juan la Laguna	5	Mayo	2023-07-05T00:00:00	2024-11-08T01:00:00	8	Radiación solar	0
52353	7	Sololá	717	San Juan la Laguna	12	San Juan la Laguna	5	Mayo	2023-07-05T00:00:00	2024-11-08T02:00:00	2	Temperatura media	15.8
52354	7	Sololá	717	San Juan la Laguna	12	San Juan la Laguna	5	Mayo	2023-07-05T00:00:00	2024-11-08T02:00:00	4	Temperatura máxima	16.3
52355	7	Sololá	717	San Juan la Laguna	12	San Juan la Laguna	5	Mayo	2023-07-05T00:00:00	2024-11-08T02:00:00	3	Temperatura mínima	15.8
52356	7	Sololá	717	San Juan la Laguna	12	San Juan la Laguna	5	Mayo	2023-07-05T00:00:00	2024-11-08T02:00:00	5	Humedad	66
52357	7	Sololá	717	San Juan la Laguna	12	San Juan la Laguna	5	Mayo	2023-07-05T00:00:00	2024-11-08T02:00:00	6	Velocidad del viento	3.2
52358	7	Sololá	717	San Juan la Laguna	12	San Juan la Laguna	5	Mayo	2023-07-05T00:00:00	2024-11-08T02:00:00	7	Dirección del viento	3.22
52359	7	Sololá	717	San Juan la Laguna	12	San Juan la Laguna	5	Mayo	2023-07-05T00:00:00	2024-11-08T02:00:00	1	Precipitación	0
52360	7	Sololá	717	San Juan la Laguna	12	San Juan la Laguna	5	Mayo	2023-07-05T00:00:00	2024-11-08T02:00:00	8	Radiación solar	0
52361	7	Sololá	717	San Juan la Laguna	12	San Juan la Laguna	5	Mayo	2023-07-05T00:00:00	2024-11-08T03:00:00	2	Temperatura media	15.6
52362	7	Sololá	717	San Juan la Laguna	12	San Juan la Laguna	5	Mayo	2023-07-05T00:00:00	2024-11-08T03:00:00	4	Temperatura máxima	15.8
52363	7	Sololá	717	San Juan la Laguna	12	San Juan la Laguna	5	Mayo	2023-07-05T00:00:00	2024-11-08T03:00:00	3	Temperatura mínima	15.3
52364	7	Sololá	717	San Juan la Laguna	12	San Juan la Laguna	5	Mayo	2023-07-05T00:00:00	2024-11-08T03:00:00	5	Humedad	65
52365	7	Sololá	717	San Juan la Laguna	12	San Juan la Laguna	5	Mayo	2023-07-05T00:00:00	2024-11-08T03:00:00	6	Velocidad del viento	3.2
52366	7	Sololá	717	San Juan la Laguna	12	San Juan la Laguna	5	Mayo	2023-07-05T00:00:00	2024-11-08T03:00:00	7	Dirección del viento	3.22
52367	7	Sololá	717	San Juan la Laguna	12	San Juan la Laguna	5	Mayo	2023-07-05T00:00:00	2024-11-08T03:00:00	1	Precipitación	0
52368	7	Sololá	717	San Juan la Laguna	12	San Juan la Laguna	5	Mayo	2023-07-05T00:00:00	2024-11-08T03:00:00	8	Radiación solar	0
52369	7	Sololá	717	San Juan la Laguna	12	San Juan la Laguna	5	Mayo	2023-07-05T00:00:00	2024-11-08T04:00:00	2	Temperatura media	14.9
52370	7	Sololá	717	San Juan la Laguna	12	San Juan la Laguna	5	Mayo	2023-07-05T00:00:00	2024-11-08T04:00:00	4	Temperatura máxima	15.6
52371	7	Sololá	717	San Juan la Laguna	12	San Juan la Laguna	5	Mayo	2023-07-05T00:00:00	2024-11-08T04:00:00	3	Temperatura mínima	14.8
52372	7	Sololá	717	San Juan la Laguna	12	San Juan la Laguna	5	Mayo	2023-07-05T00:00:00	2024-11-08T04:00:00	5	Humedad	64
52373	7	Sololá	717	San Juan la Laguna	12	San Juan la Laguna	5	Mayo	2023-07-05T00:00:00	2024-11-08T04:00:00	6	Velocidad del viento	1.6
52374	7	Sololá	717	San Juan la Laguna	12	San Juan la Laguna	5	Mayo	2023-07-05T00:00:00	2024-11-08T04:00:00	7	Dirección del viento	1.61
52375	7	Sololá	717	San Juan la Laguna	12	San Juan la Laguna	5	Mayo	2023-07-05T00:00:00	2024-11-08T04:00:00	1	Precipitación	0
52376	7	Sololá	717	San Juan la Laguna	12	San Juan la Laguna	5	Mayo	2023-07-05T00:00:00	2024-11-08T04:00:00	8	Radiación solar	0
52377	7	Sololá	717	San Juan la Laguna	12	San Juan la Laguna	5	Mayo	2023-07-05T00:00:00	2024-11-08T05:00:00	2	Temperatura media	14.3
52378	7	Sololá	717	San Juan la Laguna	12	San Juan la Laguna	5	Mayo	2023-07-05T00:00:00	2024-11-08T05:00:00	4	Temperatura máxima	14.9
52379	7	Sololá	717	San Juan la Laguna	12	San Juan la Laguna	5	Mayo	2023-07-05T00:00:00	2024-11-08T05:00:00	3	Temperatura mínima	14.2
52380	7	Sololá	717	San Juan la Laguna	12	San Juan la Laguna	5	Mayo	2023-07-05T00:00:00	2024-11-08T05:00:00	5	Humedad	65
52381	7	Sololá	717	San Juan la Laguna	12	San Juan la Laguna	5	Mayo	2023-07-05T00:00:00	2024-11-08T05:00:00	6	Velocidad del viento	0
52382	7	Sololá	717	San Juan la Laguna	12	San Juan la Laguna	5	Mayo	2023-07-05T00:00:00	2024-11-08T05:00:00	7	Dirección del viento	0
52383	7	Sololá	717	San Juan la Laguna	12	San Juan la Laguna	5	Mayo	2023-07-05T00:00:00	2024-11-08T05:00:00	1	Precipitación	0
52384	7	Sololá	717	San Juan la Laguna	12	San Juan la Laguna	5	Mayo	2023-07-05T00:00:00	2024-11-08T05:00:00	8	Radiación solar	0
52385	7	Sololá	717	San Juan la Laguna	12	San Juan la Laguna	5	Mayo	2023-07-05T00:00:00	2024-11-08T06:00:00	2	Temperatura media	13.8
52386	7	Sololá	717	San Juan la Laguna	12	San Juan la Laguna	5	Mayo	2023-07-05T00:00:00	2024-11-08T06:00:00	4	Temperatura máxima	14.5
52387	7	Sololá	717	San Juan la Laguna	12	San Juan la Laguna	5	Mayo	2023-07-05T00:00:00	2024-11-08T06:00:00	3	Temperatura mínima	13.8
52388	7	Sololá	717	San Juan la Laguna	12	San Juan la Laguna	5	Mayo	2023-07-05T00:00:00	2024-11-08T06:00:00	5	Humedad	66
52389	7	Sololá	717	San Juan la Laguna	12	San Juan la Laguna	5	Mayo	2023-07-05T00:00:00	2024-11-08T06:00:00	6	Velocidad del viento	0
52390	7	Sololá	717	San Juan la Laguna	12	San Juan la Laguna	5	Mayo	2023-07-05T00:00:00	2024-11-08T06:00:00	7	Dirección del viento	0
52391	7	Sololá	717	San Juan la Laguna	12	San Juan la Laguna	5	Mayo	2023-07-05T00:00:00	2024-11-08T06:00:00	1	Precipitación	0
52392	7	Sololá	717	San Juan la Laguna	12	San Juan la Laguna	5	Mayo	2023-07-05T00:00:00	2024-11-08T06:00:00	8	Radiación solar	3
52393	7	Sololá	717	San Juan la Laguna	12	San Juan la Laguna	5	Mayo	2023-07-05T00:00:00	2024-11-08T07:00:00	2	Temperatura media	15.9
52394	7	Sololá	717	San Juan la Laguna	12	San Juan la Laguna	5	Mayo	2023-07-05T00:00:00	2024-11-08T07:00:00	4	Temperatura máxima	15.9
52395	7	Sololá	717	San Juan la Laguna	12	San Juan la Laguna	5	Mayo	2023-07-05T00:00:00	2024-11-08T07:00:00	3	Temperatura mínima	13.8
52396	7	Sololá	717	San Juan la Laguna	12	San Juan la Laguna	5	Mayo	2023-07-05T00:00:00	2024-11-08T07:00:00	5	Humedad	62
52397	7	Sololá	717	San Juan la Laguna	12	San Juan la Laguna	5	Mayo	2023-07-05T00:00:00	2024-11-08T07:00:00	6	Velocidad del viento	0
52398	7	Sololá	717	San Juan la Laguna	12	San Juan la Laguna	5	Mayo	2023-07-05T00:00:00	2024-11-08T07:00:00	7	Dirección del viento	0
52399	7	Sololá	717	San Juan la Laguna	12	San Juan la Laguna	5	Mayo	2023-07-05T00:00:00	2024-11-08T07:00:00	1	Precipitación	0
52400	7	Sololá	717	San Juan la Laguna	12	San Juan la Laguna	5	Mayo	2023-07-05T00:00:00	2024-11-08T07:00:00	8	Radiación solar	82
52401	7	Sololá	717	San Juan la Laguna	12	San Juan la Laguna	5	Mayo	2023-07-05T00:00:00	2024-11-08T08:00:00	2	Temperatura media	21.5
52402	7	Sololá	717	San Juan la Laguna	12	San Juan la Laguna	5	Mayo	2023-07-05T00:00:00	2024-11-08T08:00:00	4	Temperatura máxima	21.5
52403	7	Sololá	717	San Juan la Laguna	12	San Juan la Laguna	5	Mayo	2023-07-05T00:00:00	2024-11-08T08:00:00	3	Temperatura mínima	15.9
52404	7	Sololá	717	San Juan la Laguna	12	San Juan la Laguna	5	Mayo	2023-07-05T00:00:00	2024-11-08T08:00:00	5	Humedad	51
52405	7	Sololá	717	San Juan la Laguna	12	San Juan la Laguna	5	Mayo	2023-07-05T00:00:00	2024-11-08T08:00:00	6	Velocidad del viento	0
52406	7	Sololá	717	San Juan la Laguna	12	San Juan la Laguna	5	Mayo	2023-07-05T00:00:00	2024-11-08T08:00:00	7	Dirección del viento	0
52407	7	Sololá	717	San Juan la Laguna	12	San Juan la Laguna	5	Mayo	2023-07-05T00:00:00	2024-11-08T08:00:00	1	Precipitación	0
52408	7	Sololá	717	San Juan la Laguna	12	San Juan la Laguna	5	Mayo	2023-07-05T00:00:00	2024-11-08T08:00:00	8	Radiación solar	303
52409	7	Sololá	717	San Juan la Laguna	12	San Juan la Laguna	5	Mayo	2023-07-05T00:00:00	2024-11-08T09:00:00	2	Temperatura media	23.3
52410	7	Sololá	717	San Juan la Laguna	12	San Juan la Laguna	5	Mayo	2023-07-05T00:00:00	2024-11-08T09:00:00	4	Temperatura máxima	23.4
52411	7	Sololá	717	San Juan la Laguna	12	San Juan la Laguna	5	Mayo	2023-07-05T00:00:00	2024-11-08T09:00:00	3	Temperatura mínima	21.4
52412	7	Sololá	717	San Juan la Laguna	12	San Juan la Laguna	5	Mayo	2023-07-05T00:00:00	2024-11-08T09:00:00	5	Humedad	46
52413	7	Sololá	717	San Juan la Laguna	12	San Juan la Laguna	5	Mayo	2023-07-05T00:00:00	2024-11-08T09:00:00	6	Velocidad del viento	0
52414	7	Sololá	717	San Juan la Laguna	12	San Juan la Laguna	5	Mayo	2023-07-05T00:00:00	2024-11-08T09:00:00	7	Dirección del viento	0
52415	7	Sololá	717	San Juan la Laguna	12	San Juan la Laguna	5	Mayo	2023-07-05T00:00:00	2024-11-08T09:00:00	1	Precipitación	0
52416	7	Sololá	717	San Juan la Laguna	12	San Juan la Laguna	5	Mayo	2023-07-05T00:00:00	2024-11-08T09:00:00	8	Radiación solar	538
52417	7	Sololá	717	San Juan la Laguna	12	San Juan la Laguna	5	Mayo	2023-07-05T00:00:00	2024-11-08T10:00:00	2	Temperatura media	25.2
52418	7	Sololá	717	San Juan la Laguna	12	San Juan la Laguna	5	Mayo	2023-07-05T00:00:00	2024-11-08T10:00:00	4	Temperatura máxima	25.2
52419	7	Sololá	717	San Juan la Laguna	12	San Juan la Laguna	5	Mayo	2023-07-05T00:00:00	2024-11-08T10:00:00	3	Temperatura mínima	23.3
52420	7	Sololá	717	San Juan la Laguna	12	San Juan la Laguna	5	Mayo	2023-07-05T00:00:00	2024-11-08T10:00:00	5	Humedad	34
52421	7	Sololá	717	San Juan la Laguna	12	San Juan la Laguna	5	Mayo	2023-07-05T00:00:00	2024-11-08T10:00:00	6	Velocidad del viento	1.6
52422	7	Sololá	717	San Juan la Laguna	12	San Juan la Laguna	5	Mayo	2023-07-05T00:00:00	2024-11-08T10:00:00	7	Dirección del viento	1.61
52423	7	Sololá	717	San Juan la Laguna	12	San Juan la Laguna	5	Mayo	2023-07-05T00:00:00	2024-11-08T10:00:00	1	Precipitación	0
52424	7	Sololá	717	San Juan la Laguna	12	San Juan la Laguna	5	Mayo	2023-07-05T00:00:00	2024-11-08T10:00:00	8	Radiación solar	742
52425	7	Sololá	717	San Juan la Laguna	12	San Juan la Laguna	5	Mayo	2023-07-05T00:00:00	2024-11-08T11:00:00	2	Temperatura media	26.4
52426	7	Sololá	717	San Juan la Laguna	12	San Juan la Laguna	5	Mayo	2023-07-05T00:00:00	2024-11-08T11:00:00	4	Temperatura máxima	26.6
52427	7	Sololá	717	San Juan la Laguna	12	San Juan la Laguna	5	Mayo	2023-07-05T00:00:00	2024-11-08T11:00:00	3	Temperatura mínima	25.2
52428	7	Sololá	717	San Juan la Laguna	12	San Juan la Laguna	5	Mayo	2023-07-05T00:00:00	2024-11-08T11:00:00	5	Humedad	32
52429	7	Sololá	717	San Juan la Laguna	12	San Juan la Laguna	5	Mayo	2023-07-05T00:00:00	2024-11-08T11:00:00	6	Velocidad del viento	1.6
52430	7	Sololá	717	San Juan la Laguna	12	San Juan la Laguna	5	Mayo	2023-07-05T00:00:00	2024-11-08T11:00:00	7	Dirección del viento	1.61
52431	7	Sololá	717	San Juan la Laguna	12	San Juan la Laguna	5	Mayo	2023-07-05T00:00:00	2024-11-08T11:00:00	1	Precipitación	0
52432	7	Sololá	717	San Juan la Laguna	12	San Juan la Laguna	5	Mayo	2023-07-05T00:00:00	2024-11-08T11:00:00	8	Radiación solar	859
52433	7	Sololá	717	San Juan la Laguna	12	San Juan la Laguna	5	Mayo	2023-07-05T00:00:00	2024-11-08T12:00:00	2	Temperatura media	27.8
52434	7	Sololá	717	San Juan la Laguna	12	San Juan la Laguna	5	Mayo	2023-07-05T00:00:00	2024-11-08T12:00:00	4	Temperatura máxima	28.3
52435	7	Sololá	717	San Juan la Laguna	12	San Juan la Laguna	5	Mayo	2023-07-05T00:00:00	2024-11-08T12:00:00	3	Temperatura mínima	26.4
52436	7	Sololá	717	San Juan la Laguna	12	San Juan la Laguna	5	Mayo	2023-07-05T00:00:00	2024-11-08T12:00:00	5	Humedad	29
52437	7	Sololá	717	San Juan la Laguna	12	San Juan la Laguna	5	Mayo	2023-07-05T00:00:00	2024-11-08T12:00:00	6	Velocidad del viento	3.2
52438	7	Sololá	717	San Juan la Laguna	12	San Juan la Laguna	5	Mayo	2023-07-05T00:00:00	2024-11-08T12:00:00	7	Dirección del viento	3.22
52439	7	Sololá	717	San Juan la Laguna	12	San Juan la Laguna	5	Mayo	2023-07-05T00:00:00	2024-11-08T12:00:00	1	Precipitación	0
52440	7	Sololá	717	San Juan la Laguna	12	San Juan la Laguna	5	Mayo	2023-07-05T00:00:00	2024-11-08T12:00:00	8	Radiación solar	942
52441	7	Sololá	717	San Juan la Laguna	12	San Juan la Laguna	5	Mayo	2023-07-05T00:00:00	2024-11-08T13:00:00	2	Temperatura media	27.2
52442	7	Sololá	717	San Juan la Laguna	12	San Juan la Laguna	5	Mayo	2023-07-05T00:00:00	2024-11-08T13:00:00	4	Temperatura máxima	28.3
52443	7	Sololá	717	San Juan la Laguna	12	San Juan la Laguna	5	Mayo	2023-07-05T00:00:00	2024-11-08T13:00:00	3	Temperatura mínima	27.2
52444	7	Sololá	717	San Juan la Laguna	12	San Juan la Laguna	5	Mayo	2023-07-05T00:00:00	2024-11-08T13:00:00	5	Humedad	44
52445	7	Sololá	717	San Juan la Laguna	12	San Juan la Laguna	5	Mayo	2023-07-05T00:00:00	2024-11-08T13:00:00	6	Velocidad del viento	3.2
52446	7	Sololá	717	San Juan la Laguna	12	San Juan la Laguna	5	Mayo	2023-07-05T00:00:00	2024-11-08T13:00:00	7	Dirección del viento	3.22
52447	7	Sololá	717	San Juan la Laguna	12	San Juan la Laguna	5	Mayo	2023-07-05T00:00:00	2024-11-08T13:00:00	1	Precipitación	0
52448	7	Sololá	717	San Juan la Laguna	12	San Juan la Laguna	5	Mayo	2023-07-05T00:00:00	2024-11-08T13:00:00	8	Radiación solar	936
52449	7	Sololá	717	San Juan la Laguna	12	San Juan la Laguna	5	Mayo	2023-07-05T00:00:00	2024-11-08T14:00:00	2	Temperatura media	28
52450	7	Sololá	717	San Juan la Laguna	12	San Juan la Laguna	5	Mayo	2023-07-05T00:00:00	2024-11-08T14:00:00	4	Temperatura máxima	28.3
52451	7	Sololá	717	San Juan la Laguna	12	San Juan la Laguna	5	Mayo	2023-07-05T00:00:00	2024-11-08T14:00:00	3	Temperatura mínima	27.2
52452	7	Sololá	717	San Juan la Laguna	12	San Juan la Laguna	5	Mayo	2023-07-05T00:00:00	2024-11-08T14:00:00	5	Humedad	37
52453	7	Sololá	717	San Juan la Laguna	12	San Juan la Laguna	5	Mayo	2023-07-05T00:00:00	2024-11-08T14:00:00	6	Velocidad del viento	1.6
52454	7	Sololá	717	San Juan la Laguna	12	San Juan la Laguna	5	Mayo	2023-07-05T00:00:00	2024-11-08T14:00:00	7	Dirección del viento	1.61
52455	7	Sololá	717	San Juan la Laguna	12	San Juan la Laguna	5	Mayo	2023-07-05T00:00:00	2024-11-08T14:00:00	1	Precipitación	0
52456	7	Sololá	717	San Juan la Laguna	12	San Juan la Laguna	5	Mayo	2023-07-05T00:00:00	2024-11-08T14:00:00	8	Radiación solar	870
52457	7	Sololá	717	San Juan la Laguna	12	San Juan la Laguna	5	Mayo	2023-07-05T00:00:00	2024-11-08T15:00:00	2	Temperatura media	26.9
52458	7	Sololá	717	San Juan la Laguna	12	San Juan la Laguna	5	Mayo	2023-07-05T00:00:00	2024-11-08T15:00:00	4	Temperatura máxima	28.6
52459	7	Sololá	717	San Juan la Laguna	12	San Juan la Laguna	5	Mayo	2023-07-05T00:00:00	2024-11-08T15:00:00	3	Temperatura mínima	26.6
52460	7	Sololá	717	San Juan la Laguna	12	San Juan la Laguna	5	Mayo	2023-07-05T00:00:00	2024-11-08T15:00:00	5	Humedad	59
52461	7	Sololá	717	San Juan la Laguna	12	San Juan la Laguna	5	Mayo	2023-07-05T00:00:00	2024-11-08T15:00:00	6	Velocidad del viento	3.2
52462	7	Sololá	717	San Juan la Laguna	12	San Juan la Laguna	5	Mayo	2023-07-05T00:00:00	2024-11-08T15:00:00	7	Dirección del viento	3.22
52463	7	Sololá	717	San Juan la Laguna	12	San Juan la Laguna	5	Mayo	2023-07-05T00:00:00	2024-11-08T15:00:00	1	Precipitación	0
52464	7	Sololá	717	San Juan la Laguna	12	San Juan la Laguna	5	Mayo	2023-07-05T00:00:00	2024-11-08T15:00:00	8	Radiación solar	723
52465	7	Sololá	717	San Juan la Laguna	12	San Juan la Laguna	5	Mayo	2023-07-05T00:00:00	2024-11-08T16:00:00	2	Temperatura media	25.6
52466	7	Sololá	717	San Juan la Laguna	12	San Juan la Laguna	5	Mayo	2023-07-05T00:00:00	2024-11-08T16:00:00	4	Temperatura máxima	27.1
52467	7	Sololá	717	San Juan la Laguna	12	San Juan la Laguna	5	Mayo	2023-07-05T00:00:00	2024-11-08T16:00:00	3	Temperatura mínima	25.6
52468	7	Sololá	717	San Juan la Laguna	12	San Juan la Laguna	5	Mayo	2023-07-05T00:00:00	2024-11-08T16:00:00	5	Humedad	65
52469	7	Sololá	717	San Juan la Laguna	12	San Juan la Laguna	5	Mayo	2023-07-05T00:00:00	2024-11-08T16:00:00	6	Velocidad del viento	4.8
52470	7	Sololá	717	San Juan la Laguna	12	San Juan la Laguna	5	Mayo	2023-07-05T00:00:00	2024-11-08T16:00:00	7	Dirección del viento	4.83
52471	7	Sololá	717	San Juan la Laguna	12	San Juan la Laguna	5	Mayo	2023-07-05T00:00:00	2024-11-08T16:00:00	1	Precipitación	0
52472	7	Sololá	717	San Juan la Laguna	12	San Juan la Laguna	5	Mayo	2023-07-05T00:00:00	2024-11-08T16:00:00	8	Radiación solar	540
52473	7	Sololá	717	San Juan la Laguna	12	San Juan la Laguna	5	Mayo	2023-07-05T00:00:00	2024-11-08T17:00:00	2	Temperatura media	24.3
52474	7	Sololá	717	San Juan la Laguna	12	San Juan la Laguna	5	Mayo	2023-07-05T00:00:00	2024-11-08T17:00:00	4	Temperatura máxima	25.6
52475	7	Sololá	717	San Juan la Laguna	12	San Juan la Laguna	5	Mayo	2023-07-05T00:00:00	2024-11-08T17:00:00	3	Temperatura mínima	24.3
52476	7	Sololá	717	San Juan la Laguna	12	San Juan la Laguna	5	Mayo	2023-07-05T00:00:00	2024-11-08T17:00:00	5	Humedad	71
52477	7	Sololá	717	San Juan la Laguna	12	San Juan la Laguna	5	Mayo	2023-07-05T00:00:00	2024-11-08T17:00:00	6	Velocidad del viento	4.8
52478	7	Sololá	717	San Juan la Laguna	12	San Juan la Laguna	5	Mayo	2023-07-05T00:00:00	2024-11-08T17:00:00	7	Dirección del viento	4.83
52479	7	Sololá	717	San Juan la Laguna	12	San Juan la Laguna	5	Mayo	2023-07-05T00:00:00	2024-11-08T17:00:00	1	Precipitación	0
52480	7	Sololá	717	San Juan la Laguna	12	San Juan la Laguna	5	Mayo	2023-07-05T00:00:00	2024-11-08T17:00:00	8	Radiación solar	327
52481	7	Sololá	717	San Juan la Laguna	12	San Juan la Laguna	5	Mayo	2023-07-05T00:00:00	2024-11-08T18:00:00	2	Temperatura media	23
52482	7	Sololá	717	San Juan la Laguna	12	San Juan la Laguna	5	Mayo	2023-07-05T00:00:00	2024-11-08T18:00:00	4	Temperatura máxima	24.3
52483	7	Sololá	717	San Juan la Laguna	12	San Juan la Laguna	5	Mayo	2023-07-05T00:00:00	2024-11-08T18:00:00	3	Temperatura mínima	23
52484	7	Sololá	717	San Juan la Laguna	12	San Juan la Laguna	5	Mayo	2023-07-05T00:00:00	2024-11-08T18:00:00	5	Humedad	75
52485	7	Sololá	717	San Juan la Laguna	12	San Juan la Laguna	5	Mayo	2023-07-05T00:00:00	2024-11-08T18:00:00	6	Velocidad del viento	3.2
52486	7	Sololá	717	San Juan la Laguna	12	San Juan la Laguna	5	Mayo	2023-07-05T00:00:00	2024-11-08T18:00:00	7	Dirección del viento	3.22
52487	7	Sololá	717	San Juan la Laguna	12	San Juan la Laguna	5	Mayo	2023-07-05T00:00:00	2024-11-08T18:00:00	1	Precipitación	0
52488	7	Sololá	717	San Juan la Laguna	12	San Juan la Laguna	5	Mayo	2023-07-05T00:00:00	2024-11-08T18:00:00	8	Radiación solar	90
52489	7	Sololá	717	San Juan la Laguna	12	San Juan la Laguna	5	Mayo	2023-07-05T00:00:00	2024-11-08T19:00:00	2	Temperatura media	21.1
52490	7	Sololá	717	San Juan la Laguna	12	San Juan la Laguna	5	Mayo	2023-07-05T00:00:00	2024-11-08T19:00:00	4	Temperatura máxima	23
52491	7	Sololá	717	San Juan la Laguna	12	San Juan la Laguna	5	Mayo	2023-07-05T00:00:00	2024-11-08T19:00:00	3	Temperatura mínima	21.1
52492	7	Sololá	717	San Juan la Laguna	12	San Juan la Laguna	5	Mayo	2023-07-05T00:00:00	2024-11-08T19:00:00	5	Humedad	80
52493	7	Sololá	717	San Juan la Laguna	12	San Juan la Laguna	5	Mayo	2023-07-05T00:00:00	2024-11-08T19:00:00	6	Velocidad del viento	0
52494	7	Sololá	717	San Juan la Laguna	12	San Juan la Laguna	5	Mayo	2023-07-05T00:00:00	2024-11-08T19:00:00	7	Dirección del viento	0
52495	7	Sololá	717	San Juan la Laguna	12	San Juan la Laguna	5	Mayo	2023-07-05T00:00:00	2024-11-08T19:00:00	1	Precipitación	0
52496	7	Sololá	717	San Juan la Laguna	12	San Juan la Laguna	5	Mayo	2023-07-05T00:00:00	2024-11-08T19:00:00	8	Radiación solar	0
52497	7	Sololá	717	San Juan la Laguna	12	San Juan la Laguna	5	Mayo	2023-07-05T00:00:00	2024-11-08T20:00:00	2	Temperatura media	19.8
52498	7	Sololá	717	San Juan la Laguna	12	San Juan la Laguna	5	Mayo	2023-07-05T00:00:00	2024-11-08T20:00:00	4	Temperatura máxima	21.1
52499	7	Sololá	717	San Juan la Laguna	12	San Juan la Laguna	5	Mayo	2023-07-05T00:00:00	2024-11-08T20:00:00	3	Temperatura mínima	19.8
52500	7	Sololá	717	San Juan la Laguna	12	San Juan la Laguna	5	Mayo	2023-07-05T00:00:00	2024-11-08T20:00:00	5	Humedad	84
52501	7	Sololá	717	San Juan la Laguna	12	San Juan la Laguna	5	Mayo	2023-07-05T00:00:00	2024-11-08T20:00:00	6	Velocidad del viento	1.6
52502	7	Sololá	717	San Juan la Laguna	12	San Juan la Laguna	5	Mayo	2023-07-05T00:00:00	2024-11-08T20:00:00	7	Dirección del viento	1.61
52503	7	Sololá	717	San Juan la Laguna	12	San Juan la Laguna	5	Mayo	2023-07-05T00:00:00	2024-11-08T20:00:00	1	Precipitación	0
52504	7	Sololá	717	San Juan la Laguna	12	San Juan la Laguna	5	Mayo	2023-07-05T00:00:00	2024-11-08T20:00:00	8	Radiación solar	0
52505	7	Sololá	717	San Juan la Laguna	12	San Juan la Laguna	5	Mayo	2023-07-05T00:00:00	2024-11-08T21:00:00	2	Temperatura media	18.9
52506	7	Sololá	717	San Juan la Laguna	12	San Juan la Laguna	5	Mayo	2023-07-05T00:00:00	2024-11-08T21:00:00	4	Temperatura máxima	19.8
52507	7	Sololá	717	San Juan la Laguna	12	San Juan la Laguna	5	Mayo	2023-07-05T00:00:00	2024-11-08T21:00:00	3	Temperatura mínima	18.8
52508	7	Sololá	717	San Juan la Laguna	12	San Juan la Laguna	5	Mayo	2023-07-05T00:00:00	2024-11-08T21:00:00	5	Humedad	87
52509	7	Sololá	717	San Juan la Laguna	12	San Juan la Laguna	5	Mayo	2023-07-05T00:00:00	2024-11-08T21:00:00	6	Velocidad del viento	0
52510	7	Sololá	717	San Juan la Laguna	12	San Juan la Laguna	5	Mayo	2023-07-05T00:00:00	2024-11-08T21:00:00	7	Dirección del viento	0
52511	7	Sololá	717	San Juan la Laguna	12	San Juan la Laguna	5	Mayo	2023-07-05T00:00:00	2024-11-08T21:00:00	1	Precipitación	0
52512	7	Sololá	717	San Juan la Laguna	12	San Juan la Laguna	5	Mayo	2023-07-05T00:00:00	2024-11-08T21:00:00	8	Radiación solar	0
52513	7	Sololá	717	San Juan la Laguna	12	San Juan la Laguna	5	Mayo	2023-07-05T00:00:00	2024-11-08T22:00:00	2	Temperatura media	18.2
52514	7	Sololá	717	San Juan la Laguna	12	San Juan la Laguna	5	Mayo	2023-07-05T00:00:00	2024-11-08T22:00:00	4	Temperatura máxima	18.9
52515	7	Sololá	717	San Juan la Laguna	12	San Juan la Laguna	5	Mayo	2023-07-05T00:00:00	2024-11-08T22:00:00	3	Temperatura mínima	18.2
52516	7	Sololá	717	San Juan la Laguna	12	San Juan la Laguna	5	Mayo	2023-07-05T00:00:00	2024-11-08T22:00:00	5	Humedad	88
52517	7	Sololá	717	San Juan la Laguna	12	San Juan la Laguna	5	Mayo	2023-07-05T00:00:00	2024-11-08T22:00:00	6	Velocidad del viento	0
52518	7	Sololá	717	San Juan la Laguna	12	San Juan la Laguna	5	Mayo	2023-07-05T00:00:00	2024-11-08T22:00:00	7	Dirección del viento	0
52519	7	Sololá	717	San Juan la Laguna	12	San Juan la Laguna	5	Mayo	2023-07-05T00:00:00	2024-11-08T22:00:00	1	Precipitación	0
52520	7	Sololá	717	San Juan la Laguna	12	San Juan la Laguna	5	Mayo	2023-07-05T00:00:00	2024-11-08T22:00:00	8	Radiación solar	0
52521	7	Sololá	717	San Juan la Laguna	12	San Juan la Laguna	5	Mayo	2023-07-05T00:00:00	2024-11-08T23:00:00	2	Temperatura media	17.9
52522	7	Sololá	717	San Juan la Laguna	12	San Juan la Laguna	5	Mayo	2023-07-05T00:00:00	2024-11-08T23:00:00	4	Temperatura máxima	18.2
52523	7	Sololá	717	San Juan la Laguna	12	San Juan la Laguna	5	Mayo	2023-07-05T00:00:00	2024-11-08T23:00:00	3	Temperatura mínima	17.8
52524	7	Sololá	717	San Juan la Laguna	12	San Juan la Laguna	5	Mayo	2023-07-05T00:00:00	2024-11-08T23:00:00	5	Humedad	85
52525	7	Sololá	717	San Juan la Laguna	12	San Juan la Laguna	5	Mayo	2023-07-05T00:00:00	2024-11-08T23:00:00	6	Velocidad del viento	0
52526	7	Sololá	717	San Juan la Laguna	12	San Juan la Laguna	5	Mayo	2023-07-05T00:00:00	2024-11-08T23:00:00	7	Dirección del viento	0
52527	7	Sololá	717	San Juan la Laguna	12	San Juan la Laguna	5	Mayo	2023-07-05T00:00:00	2024-11-08T23:00:00	1	Precipitación	0
52528	7	Sololá	717	San Juan la Laguna	12	San Juan la Laguna	5	Mayo	2023-07-05T00:00:00	2024-11-08T23:00:00	8	Radiación solar	0
52529	7	Sololá	717	San Juan la Laguna	12	San Juan la Laguna	5	Mayo	2023-08-05T00:00:00	2024-11-08T00:00:00	2	Temperatura media	17.2
52530	7	Sololá	717	San Juan la Laguna	12	San Juan la Laguna	5	Mayo	2023-08-05T00:00:00	2024-11-08T00:00:00	4	Temperatura máxima	17.9
52531	7	Sololá	717	San Juan la Laguna	12	San Juan la Laguna	5	Mayo	2023-08-05T00:00:00	2024-11-08T00:00:00	3	Temperatura mínima	17.1
52532	7	Sololá	717	San Juan la Laguna	12	San Juan la Laguna	5	Mayo	2023-08-05T00:00:00	2024-11-08T00:00:00	5	Humedad	83
52533	7	Sololá	717	San Juan la Laguna	12	San Juan la Laguna	5	Mayo	2023-08-05T00:00:00	2024-11-08T00:00:00	6	Velocidad del viento	1.6
52534	7	Sololá	717	San Juan la Laguna	12	San Juan la Laguna	5	Mayo	2023-08-05T00:00:00	2024-11-08T00:00:00	7	Dirección del viento	1.61
52535	7	Sololá	717	San Juan la Laguna	12	San Juan la Laguna	5	Mayo	2023-08-05T00:00:00	2024-11-08T00:00:00	1	Precipitación	0
52536	7	Sololá	717	San Juan la Laguna	12	San Juan la Laguna	5	Mayo	2023-08-05T00:00:00	2024-11-08T00:00:00	8	Radiación solar	0
52537	7	Sololá	717	San Juan la Laguna	12	San Juan la Laguna	5	Mayo	2023-08-05T00:00:00	2024-11-08T01:00:00	2	Temperatura media	16.8
52538	7	Sololá	717	San Juan la Laguna	12	San Juan la Laguna	5	Mayo	2023-08-05T00:00:00	2024-11-08T01:00:00	4	Temperatura máxima	17.1
52539	7	Sololá	717	San Juan la Laguna	12	San Juan la Laguna	5	Mayo	2023-08-05T00:00:00	2024-11-08T01:00:00	3	Temperatura mínima	16.7
52540	7	Sololá	717	San Juan la Laguna	12	San Juan la Laguna	5	Mayo	2023-08-05T00:00:00	2024-11-08T01:00:00	5	Humedad	80
52541	7	Sololá	717	San Juan la Laguna	12	San Juan la Laguna	5	Mayo	2023-08-05T00:00:00	2024-11-08T01:00:00	6	Velocidad del viento	3.2
52542	7	Sololá	717	San Juan la Laguna	12	San Juan la Laguna	5	Mayo	2023-08-05T00:00:00	2024-11-08T01:00:00	7	Dirección del viento	3.22
52543	7	Sololá	717	San Juan la Laguna	12	San Juan la Laguna	5	Mayo	2023-08-05T00:00:00	2024-11-08T01:00:00	1	Precipitación	0
52544	7	Sololá	717	San Juan la Laguna	12	San Juan la Laguna	5	Mayo	2023-08-05T00:00:00	2024-11-08T01:00:00	8	Radiación solar	0
52545	7	Sololá	717	San Juan la Laguna	12	San Juan la Laguna	5	Mayo	2023-08-05T00:00:00	2024-11-08T02:00:00	2	Temperatura media	16.7
52546	7	Sololá	717	San Juan la Laguna	12	San Juan la Laguna	5	Mayo	2023-08-05T00:00:00	2024-11-08T02:00:00	4	Temperatura máxima	17.8
52547	7	Sololá	717	San Juan la Laguna	12	San Juan la Laguna	5	Mayo	2023-08-05T00:00:00	2024-11-08T02:00:00	3	Temperatura mínima	16.7
52548	7	Sololá	717	San Juan la Laguna	12	San Juan la Laguna	5	Mayo	2023-08-05T00:00:00	2024-11-08T02:00:00	5	Humedad	77
52549	7	Sololá	717	San Juan la Laguna	12	San Juan la Laguna	5	Mayo	2023-08-05T00:00:00	2024-11-08T02:00:00	6	Velocidad del viento	1.6
52550	7	Sololá	717	San Juan la Laguna	12	San Juan la Laguna	5	Mayo	2023-08-05T00:00:00	2024-11-08T02:00:00	7	Dirección del viento	1.61
52551	7	Sololá	717	San Juan la Laguna	12	San Juan la Laguna	5	Mayo	2023-08-05T00:00:00	2024-11-08T02:00:00	1	Precipitación	0
52552	7	Sololá	717	San Juan la Laguna	12	San Juan la Laguna	5	Mayo	2023-08-05T00:00:00	2024-11-08T02:00:00	8	Radiación solar	0
52553	7	Sololá	717	San Juan la Laguna	12	San Juan la Laguna	5	Mayo	2023-08-05T00:00:00	2024-11-08T03:00:00	2	Temperatura media	15.6
52554	7	Sololá	717	San Juan la Laguna	12	San Juan la Laguna	5	Mayo	2023-08-05T00:00:00	2024-11-08T03:00:00	4	Temperatura máxima	16.7
52555	7	Sololá	717	San Juan la Laguna	12	San Juan la Laguna	5	Mayo	2023-08-05T00:00:00	2024-11-08T03:00:00	3	Temperatura mínima	15.5
52556	7	Sololá	717	San Juan la Laguna	12	San Juan la Laguna	5	Mayo	2023-08-05T00:00:00	2024-11-08T03:00:00	5	Humedad	78
52557	7	Sololá	717	San Juan la Laguna	12	San Juan la Laguna	5	Mayo	2023-08-05T00:00:00	2024-11-08T03:00:00	6	Velocidad del viento	1.6
52558	7	Sololá	717	San Juan la Laguna	12	San Juan la Laguna	5	Mayo	2023-08-05T00:00:00	2024-11-08T03:00:00	7	Dirección del viento	1.61
52559	7	Sololá	717	San Juan la Laguna	12	San Juan la Laguna	5	Mayo	2023-08-05T00:00:00	2024-11-08T03:00:00	1	Precipitación	0
52560	7	Sololá	717	San Juan la Laguna	12	San Juan la Laguna	5	Mayo	2023-08-05T00:00:00	2024-11-08T03:00:00	8	Radiación solar	0
52561	7	Sololá	717	San Juan la Laguna	12	San Juan la Laguna	5	Mayo	2023-08-05T00:00:00	2024-11-08T04:00:00	2	Temperatura media	15.4
52562	7	Sololá	717	San Juan la Laguna	12	San Juan la Laguna	5	Mayo	2023-08-05T00:00:00	2024-11-08T04:00:00	4	Temperatura máxima	15.7
52563	7	Sololá	717	San Juan la Laguna	12	San Juan la Laguna	5	Mayo	2023-08-05T00:00:00	2024-11-08T04:00:00	3	Temperatura mínima	15.3
52564	7	Sololá	717	San Juan la Laguna	12	San Juan la Laguna	5	Mayo	2023-08-05T00:00:00	2024-11-08T04:00:00	5	Humedad	74
52565	7	Sololá	717	San Juan la Laguna	12	San Juan la Laguna	5	Mayo	2023-08-05T00:00:00	2024-11-08T04:00:00	6	Velocidad del viento	1.6
52566	7	Sololá	717	San Juan la Laguna	12	San Juan la Laguna	5	Mayo	2023-08-05T00:00:00	2024-11-08T04:00:00	7	Dirección del viento	1.61
52567	7	Sololá	717	San Juan la Laguna	12	San Juan la Laguna	5	Mayo	2023-08-05T00:00:00	2024-11-08T04:00:00	1	Precipitación	0
52568	7	Sololá	717	San Juan la Laguna	12	San Juan la Laguna	5	Mayo	2023-08-05T00:00:00	2024-11-08T04:00:00	8	Radiación solar	0
52569	7	Sololá	717	San Juan la Laguna	12	San Juan la Laguna	5	Mayo	2023-08-05T00:00:00	2024-11-08T05:00:00	2	Temperatura media	14.7
52570	7	Sololá	717	San Juan la Laguna	12	San Juan la Laguna	5	Mayo	2023-08-05T00:00:00	2024-11-08T05:00:00	4	Temperatura máxima	15.4
52571	7	Sololá	717	San Juan la Laguna	12	San Juan la Laguna	5	Mayo	2023-08-05T00:00:00	2024-11-08T05:00:00	3	Temperatura mínima	14.7
52572	7	Sololá	717	San Juan la Laguna	12	San Juan la Laguna	5	Mayo	2023-08-05T00:00:00	2024-11-08T05:00:00	5	Humedad	75
52573	7	Sololá	717	San Juan la Laguna	12	San Juan la Laguna	5	Mayo	2023-08-05T00:00:00	2024-11-08T05:00:00	6	Velocidad del viento	0
52574	7	Sololá	717	San Juan la Laguna	12	San Juan la Laguna	5	Mayo	2023-08-05T00:00:00	2024-11-08T05:00:00	7	Dirección del viento	0
52575	7	Sololá	717	San Juan la Laguna	12	San Juan la Laguna	5	Mayo	2023-08-05T00:00:00	2024-11-08T05:00:00	1	Precipitación	0
52576	7	Sololá	717	San Juan la Laguna	12	San Juan la Laguna	5	Mayo	2023-08-05T00:00:00	2024-11-08T05:00:00	8	Radiación solar	0
52577	7	Sololá	717	San Juan la Laguna	12	San Juan la Laguna	5	Mayo	2023-08-05T00:00:00	2024-11-08T06:00:00	2	Temperatura media	14.9
52578	7	Sololá	717	San Juan la Laguna	12	San Juan la Laguna	5	Mayo	2023-08-05T00:00:00	2024-11-08T06:00:00	4	Temperatura máxima	14.9
52579	7	Sololá	717	San Juan la Laguna	12	San Juan la Laguna	5	Mayo	2023-08-05T00:00:00	2024-11-08T06:00:00	3	Temperatura mínima	14.5
52580	7	Sololá	717	San Juan la Laguna	12	San Juan la Laguna	5	Mayo	2023-08-05T00:00:00	2024-11-08T06:00:00	5	Humedad	73
52581	7	Sololá	717	San Juan la Laguna	12	San Juan la Laguna	5	Mayo	2023-08-05T00:00:00	2024-11-08T06:00:00	6	Velocidad del viento	1.6
52582	7	Sololá	717	San Juan la Laguna	12	San Juan la Laguna	5	Mayo	2023-08-05T00:00:00	2024-11-08T06:00:00	7	Dirección del viento	1.61
52583	7	Sololá	717	San Juan la Laguna	12	San Juan la Laguna	5	Mayo	2023-08-05T00:00:00	2024-11-08T06:00:00	1	Precipitación	0
52584	7	Sololá	717	San Juan la Laguna	12	San Juan la Laguna	5	Mayo	2023-08-05T00:00:00	2024-11-08T06:00:00	8	Radiación solar	6
52585	7	Sololá	717	San Juan la Laguna	12	San Juan la Laguna	5	Mayo	2023-08-05T00:00:00	2024-11-08T07:00:00	2	Temperatura media	16.4
52586	7	Sololá	717	San Juan la Laguna	12	San Juan la Laguna	5	Mayo	2023-08-05T00:00:00	2024-11-08T07:00:00	4	Temperatura máxima	16.4
52587	7	Sololá	717	San Juan la Laguna	12	San Juan la Laguna	5	Mayo	2023-08-05T00:00:00	2024-11-08T07:00:00	3	Temperatura mínima	14.9
52588	7	Sololá	717	San Juan la Laguna	12	San Juan la Laguna	5	Mayo	2023-08-05T00:00:00	2024-11-08T07:00:00	5	Humedad	71
52589	7	Sololá	717	San Juan la Laguna	12	San Juan la Laguna	5	Mayo	2023-08-05T00:00:00	2024-11-08T07:00:00	6	Velocidad del viento	0
52590	7	Sololá	717	San Juan la Laguna	12	San Juan la Laguna	5	Mayo	2023-08-05T00:00:00	2024-11-08T07:00:00	7	Dirección del viento	0
52591	7	Sololá	717	San Juan la Laguna	12	San Juan la Laguna	5	Mayo	2023-08-05T00:00:00	2024-11-08T07:00:00	1	Precipitación	0
52592	7	Sololá	717	San Juan la Laguna	12	San Juan la Laguna	5	Mayo	2023-08-05T00:00:00	2024-11-08T07:00:00	8	Radiación solar	95
52593	7	Sololá	717	San Juan la Laguna	12	San Juan la Laguna	5	Mayo	2023-08-05T00:00:00	2024-11-08T08:00:00	2	Temperatura media	20.7
52594	7	Sololá	717	San Juan la Laguna	12	San Juan la Laguna	5	Mayo	2023-08-05T00:00:00	2024-11-08T08:00:00	4	Temperatura máxima	20.7
52595	7	Sololá	717	San Juan la Laguna	12	San Juan la Laguna	5	Mayo	2023-08-05T00:00:00	2024-11-08T08:00:00	3	Temperatura mínima	16.4
52596	7	Sololá	717	San Juan la Laguna	12	San Juan la Laguna	5	Mayo	2023-08-05T00:00:00	2024-11-08T08:00:00	5	Humedad	66
52597	7	Sololá	717	San Juan la Laguna	12	San Juan la Laguna	5	Mayo	2023-08-05T00:00:00	2024-11-08T08:00:00	6	Velocidad del viento	0
52598	7	Sololá	717	San Juan la Laguna	12	San Juan la Laguna	5	Mayo	2023-08-05T00:00:00	2024-11-08T08:00:00	7	Dirección del viento	0
52599	7	Sololá	717	San Juan la Laguna	12	San Juan la Laguna	5	Mayo	2023-08-05T00:00:00	2024-11-08T08:00:00	1	Precipitación	0
52600	7	Sololá	717	San Juan la Laguna	12	San Juan la Laguna	5	Mayo	2023-08-05T00:00:00	2024-11-08T08:00:00	8	Radiación solar	316
52601	7	Sololá	717	San Juan la Laguna	12	San Juan la Laguna	5	Mayo	2023-08-05T00:00:00	2024-11-08T09:00:00	2	Temperatura media	22.1
52602	7	Sololá	717	San Juan la Laguna	12	San Juan la Laguna	5	Mayo	2023-08-05T00:00:00	2024-11-08T09:00:00	4	Temperatura máxima	22.7
52603	7	Sololá	717	San Juan la Laguna	12	San Juan la Laguna	5	Mayo	2023-08-05T00:00:00	2024-11-08T09:00:00	3	Temperatura mínima	20.7
52604	7	Sololá	717	San Juan la Laguna	12	San Juan la Laguna	5	Mayo	2023-08-05T00:00:00	2024-11-08T09:00:00	5	Humedad	64
52605	7	Sololá	717	San Juan la Laguna	12	San Juan la Laguna	5	Mayo	2023-08-05T00:00:00	2024-11-08T09:00:00	6	Velocidad del viento	0
52606	7	Sololá	717	San Juan la Laguna	12	San Juan la Laguna	5	Mayo	2023-08-05T00:00:00	2024-11-08T09:00:00	7	Dirección del viento	0
52607	7	Sololá	717	San Juan la Laguna	12	San Juan la Laguna	5	Mayo	2023-08-05T00:00:00	2024-11-08T09:00:00	1	Precipitación	0
52608	7	Sololá	717	San Juan la Laguna	12	San Juan la Laguna	5	Mayo	2023-08-05T00:00:00	2024-11-08T09:00:00	8	Radiación solar	502
52609	7	Sololá	717	San Juan la Laguna	12	San Juan la Laguna	5	Mayo	2023-08-05T00:00:00	2024-11-08T10:00:00	2	Temperatura media	24
52610	7	Sololá	717	San Juan la Laguna	12	San Juan la Laguna	5	Mayo	2023-08-05T00:00:00	2024-11-08T10:00:00	4	Temperatura máxima	24.2
52611	7	Sololá	717	San Juan la Laguna	12	San Juan la Laguna	5	Mayo	2023-08-05T00:00:00	2024-11-08T10:00:00	3	Temperatura mínima	22
52612	7	Sololá	717	San Juan la Laguna	12	San Juan la Laguna	5	Mayo	2023-08-05T00:00:00	2024-11-08T10:00:00	5	Humedad	48
52613	7	Sololá	717	San Juan la Laguna	12	San Juan la Laguna	5	Mayo	2023-08-05T00:00:00	2024-11-08T10:00:00	6	Velocidad del viento	1.6
52614	7	Sololá	717	San Juan la Laguna	12	San Juan la Laguna	5	Mayo	2023-08-05T00:00:00	2024-11-08T10:00:00	7	Dirección del viento	1.61
52615	7	Sololá	717	San Juan la Laguna	12	San Juan la Laguna	5	Mayo	2023-08-05T00:00:00	2024-11-08T10:00:00	1	Precipitación	0
52616	7	Sololá	717	San Juan la Laguna	12	San Juan la Laguna	5	Mayo	2023-08-05T00:00:00	2024-11-08T10:00:00	8	Radiación solar	716
52617	7	Sololá	717	San Juan la Laguna	12	San Juan la Laguna	5	Mayo	2023-08-05T00:00:00	2024-11-08T11:00:00	2	Temperatura media	24.3
52618	7	Sololá	717	San Juan la Laguna	12	San Juan la Laguna	5	Mayo	2023-08-05T00:00:00	2024-11-08T11:00:00	4	Temperatura máxima	24.5
52619	7	Sololá	717	San Juan la Laguna	12	San Juan la Laguna	5	Mayo	2023-08-05T00:00:00	2024-11-08T11:00:00	3	Temperatura mínima	23.8
52620	7	Sololá	717	San Juan la Laguna	12	San Juan la Laguna	5	Mayo	2023-08-05T00:00:00	2024-11-08T11:00:00	5	Humedad	57
52621	7	Sololá	717	San Juan la Laguna	12	San Juan la Laguna	5	Mayo	2023-08-05T00:00:00	2024-11-08T11:00:00	6	Velocidad del viento	3.2
52622	7	Sololá	717	San Juan la Laguna	12	San Juan la Laguna	5	Mayo	2023-08-05T00:00:00	2024-11-08T11:00:00	7	Dirección del viento	3.22
52623	7	Sololá	717	San Juan la Laguna	12	San Juan la Laguna	5	Mayo	2023-08-05T00:00:00	2024-11-08T11:00:00	1	Precipitación	0
52624	7	Sololá	717	San Juan la Laguna	12	San Juan la Laguna	5	Mayo	2023-08-05T00:00:00	2024-11-08T11:00:00	8	Radiación solar	846
52625	7	Sololá	717	San Juan la Laguna	12	San Juan la Laguna	5	Mayo	2023-08-05T00:00:00	2024-11-08T12:00:00	2	Temperatura media	25.9
52626	7	Sololá	717	San Juan la Laguna	12	San Juan la Laguna	5	Mayo	2023-08-05T00:00:00	2024-11-08T12:00:00	4	Temperatura máxima	25.9
52627	7	Sololá	717	San Juan la Laguna	12	San Juan la Laguna	5	Mayo	2023-08-05T00:00:00	2024-11-08T12:00:00	3	Temperatura mínima	24.2
52628	7	Sololá	717	San Juan la Laguna	12	San Juan la Laguna	5	Mayo	2023-08-05T00:00:00	2024-11-08T12:00:00	5	Humedad	48
52629	7	Sololá	717	San Juan la Laguna	12	San Juan la Laguna	5	Mayo	2023-08-05T00:00:00	2024-11-08T12:00:00	6	Velocidad del viento	1.6
52630	7	Sololá	717	San Juan la Laguna	12	San Juan la Laguna	5	Mayo	2023-08-05T00:00:00	2024-11-08T12:00:00	7	Dirección del viento	1.61
52631	7	Sololá	717	San Juan la Laguna	12	San Juan la Laguna	5	Mayo	2023-08-05T00:00:00	2024-11-08T12:00:00	1	Precipitación	0
52632	7	Sololá	717	San Juan la Laguna	12	San Juan la Laguna	5	Mayo	2023-08-05T00:00:00	2024-11-08T12:00:00	8	Radiación solar	912
52633	7	Sololá	717	San Juan la Laguna	12	San Juan la Laguna	5	Mayo	2023-08-05T00:00:00	2024-11-08T13:00:00	2	Temperatura media	26.3
52634	7	Sololá	717	San Juan la Laguna	12	San Juan la Laguna	5	Mayo	2023-08-05T00:00:00	2024-11-08T13:00:00	4	Temperatura máxima	26.6
52635	7	Sololá	717	San Juan la Laguna	12	San Juan la Laguna	5	Mayo	2023-08-05T00:00:00	2024-11-08T13:00:00	3	Temperatura mínima	25.8
52636	7	Sololá	717	San Juan la Laguna	12	San Juan la Laguna	5	Mayo	2023-08-05T00:00:00	2024-11-08T13:00:00	5	Humedad	53
52637	7	Sololá	717	San Juan la Laguna	12	San Juan la Laguna	5	Mayo	2023-08-05T00:00:00	2024-11-08T13:00:00	6	Velocidad del viento	1.6
52638	7	Sololá	717	San Juan la Laguna	12	San Juan la Laguna	5	Mayo	2023-08-05T00:00:00	2024-11-08T13:00:00	7	Dirección del viento	1.61
52639	7	Sololá	717	San Juan la Laguna	12	San Juan la Laguna	5	Mayo	2023-08-05T00:00:00	2024-11-08T13:00:00	1	Precipitación	0
52640	7	Sololá	717	San Juan la Laguna	12	San Juan la Laguna	5	Mayo	2023-08-05T00:00:00	2024-11-08T13:00:00	8	Radiación solar	906
52641	7	Sololá	717	San Juan la Laguna	12	San Juan la Laguna	5	Mayo	2023-08-05T00:00:00	2024-11-08T14:00:00	2	Temperatura media	25.8
52642	7	Sololá	717	San Juan la Laguna	12	San Juan la Laguna	5	Mayo	2023-08-05T00:00:00	2024-11-08T14:00:00	4	Temperatura máxima	26.7
52643	7	Sololá	717	San Juan la Laguna	12	San Juan la Laguna	5	Mayo	2023-08-05T00:00:00	2024-11-08T14:00:00	3	Temperatura mínima	25.7
52644	7	Sololá	717	San Juan la Laguna	12	San Juan la Laguna	5	Mayo	2023-08-05T00:00:00	2024-11-08T14:00:00	5	Humedad	61
52645	7	Sololá	717	San Juan la Laguna	12	San Juan la Laguna	5	Mayo	2023-08-05T00:00:00	2024-11-08T14:00:00	6	Velocidad del viento	4.8
52646	7	Sololá	717	San Juan la Laguna	12	San Juan la Laguna	5	Mayo	2023-08-05T00:00:00	2024-11-08T14:00:00	7	Dirección del viento	4.83
52647	7	Sololá	717	San Juan la Laguna	12	San Juan la Laguna	5	Mayo	2023-08-05T00:00:00	2024-11-08T14:00:00	1	Precipitación	0
52648	7	Sololá	717	San Juan la Laguna	12	San Juan la Laguna	5	Mayo	2023-08-05T00:00:00	2024-11-08T14:00:00	8	Radiación solar	836
52649	7	Sololá	717	San Juan la Laguna	12	San Juan la Laguna	5	Mayo	2023-08-05T00:00:00	2024-11-08T15:00:00	2	Temperatura media	25.2
52650	7	Sololá	717	San Juan la Laguna	12	San Juan la Laguna	5	Mayo	2023-08-05T00:00:00	2024-11-08T15:00:00	4	Temperatura máxima	25.8
52651	7	Sololá	717	San Juan la Laguna	12	San Juan la Laguna	5	Mayo	2023-08-05T00:00:00	2024-11-08T15:00:00	3	Temperatura mínima	25.1
52652	7	Sololá	717	San Juan la Laguna	12	San Juan la Laguna	5	Mayo	2023-08-05T00:00:00	2024-11-08T15:00:00	5	Humedad	66
52653	7	Sololá	717	San Juan la Laguna	12	San Juan la Laguna	5	Mayo	2023-08-05T00:00:00	2024-11-08T15:00:00	6	Velocidad del viento	6.4
52654	7	Sololá	717	San Juan la Laguna	12	San Juan la Laguna	5	Mayo	2023-08-05T00:00:00	2024-11-08T15:00:00	7	Dirección del viento	6.44
52655	7	Sololá	717	San Juan la Laguna	12	San Juan la Laguna	5	Mayo	2023-08-05T00:00:00	2024-11-08T15:00:00	1	Precipitación	0
52656	7	Sololá	717	San Juan la Laguna	12	San Juan la Laguna	5	Mayo	2023-08-05T00:00:00	2024-11-08T15:00:00	8	Radiación solar	695
52657	7	Sololá	717	San Juan la Laguna	12	San Juan la Laguna	5	Mayo	2023-08-05T00:00:00	2024-11-08T16:00:00	2	Temperatura media	23.7
52658	7	Sololá	717	San Juan la Laguna	12	San Juan la Laguna	5	Mayo	2023-08-05T00:00:00	2024-11-08T16:00:00	4	Temperatura máxima	25.2
52659	7	Sololá	717	San Juan la Laguna	12	San Juan la Laguna	5	Mayo	2023-08-05T00:00:00	2024-11-08T16:00:00	3	Temperatura mínima	23.5
52660	7	Sololá	717	San Juan la Laguna	12	San Juan la Laguna	5	Mayo	2023-08-05T00:00:00	2024-11-08T16:00:00	5	Humedad	73
52661	7	Sololá	717	San Juan la Laguna	12	San Juan la Laguna	5	Mayo	2023-08-05T00:00:00	2024-11-08T16:00:00	6	Velocidad del viento	6.4
52662	7	Sololá	717	San Juan la Laguna	12	San Juan la Laguna	5	Mayo	2023-08-05T00:00:00	2024-11-08T16:00:00	7	Dirección del viento	6.44
52663	7	Sololá	717	San Juan la Laguna	12	San Juan la Laguna	5	Mayo	2023-08-05T00:00:00	2024-11-08T16:00:00	1	Precipitación	0
52664	7	Sololá	717	San Juan la Laguna	12	San Juan la Laguna	5	Mayo	2023-08-05T00:00:00	2024-11-08T16:00:00	8	Radiación solar	503
52665	7	Sololá	717	San Juan la Laguna	12	San Juan la Laguna	5	Mayo	2023-08-05T00:00:00	2024-11-08T17:00:00	2	Temperatura media	22.6
52666	7	Sololá	717	San Juan la Laguna	12	San Juan la Laguna	5	Mayo	2023-08-05T00:00:00	2024-11-08T17:00:00	4	Temperatura máxima	23.7
52667	7	Sololá	717	San Juan la Laguna	12	San Juan la Laguna	5	Mayo	2023-08-05T00:00:00	2024-11-08T17:00:00	3	Temperatura mínima	22.1
52668	7	Sololá	717	San Juan la Laguna	12	San Juan la Laguna	5	Mayo	2023-08-05T00:00:00	2024-11-08T17:00:00	5	Humedad	76
52669	7	Sololá	717	San Juan la Laguna	12	San Juan la Laguna	5	Mayo	2023-08-05T00:00:00	2024-11-08T17:00:00	6	Velocidad del viento	4.8
52670	7	Sololá	717	San Juan la Laguna	12	San Juan la Laguna	5	Mayo	2023-08-05T00:00:00	2024-11-08T17:00:00	7	Dirección del viento	4.83
52671	7	Sololá	717	San Juan la Laguna	12	San Juan la Laguna	5	Mayo	2023-08-05T00:00:00	2024-11-08T17:00:00	1	Precipitación	0
52672	7	Sololá	717	San Juan la Laguna	12	San Juan la Laguna	5	Mayo	2023-08-05T00:00:00	2024-11-08T17:00:00	8	Radiación solar	175
52673	7	Sololá	717	San Juan la Laguna	12	San Juan la Laguna	5	Mayo	2023-08-05T00:00:00	2024-11-08T18:00:00	2	Temperatura media	22.5
52674	7	Sololá	717	San Juan la Laguna	12	San Juan la Laguna	5	Mayo	2023-08-05T00:00:00	2024-11-08T18:00:00	4	Temperatura máxima	22.7
52675	7	Sololá	717	San Juan la Laguna	12	San Juan la Laguna	5	Mayo	2023-08-05T00:00:00	2024-11-08T18:00:00	3	Temperatura mínima	22.5
52676	7	Sololá	717	San Juan la Laguna	12	San Juan la Laguna	5	Mayo	2023-08-05T00:00:00	2024-11-08T18:00:00	5	Humedad	77
52677	7	Sololá	717	San Juan la Laguna	12	San Juan la Laguna	5	Mayo	2023-08-05T00:00:00	2024-11-08T18:00:00	6	Velocidad del viento	1.6
52678	7	Sololá	717	San Juan la Laguna	12	San Juan la Laguna	5	Mayo	2023-08-05T00:00:00	2024-11-08T18:00:00	7	Dirección del viento	1.61
52679	7	Sololá	717	San Juan la Laguna	12	San Juan la Laguna	5	Mayo	2023-08-05T00:00:00	2024-11-08T18:00:00	1	Precipitación	0
52680	7	Sololá	717	San Juan la Laguna	12	San Juan la Laguna	5	Mayo	2023-08-05T00:00:00	2024-11-08T18:00:00	8	Radiación solar	17
52681	7	Sololá	717	San Juan la Laguna	12	San Juan la Laguna	5	Mayo	2023-08-05T00:00:00	2024-11-08T19:00:00	2	Temperatura media	21.9
52682	7	Sololá	717	San Juan la Laguna	12	San Juan la Laguna	5	Mayo	2023-08-05T00:00:00	2024-11-08T19:00:00	4	Temperatura máxima	22.5
52683	7	Sololá	717	San Juan la Laguna	12	San Juan la Laguna	5	Mayo	2023-08-05T00:00:00	2024-11-08T19:00:00	3	Temperatura mínima	21.9
52684	7	Sololá	717	San Juan la Laguna	12	San Juan la Laguna	5	Mayo	2023-08-05T00:00:00	2024-11-08T19:00:00	5	Humedad	80
52685	7	Sololá	717	San Juan la Laguna	12	San Juan la Laguna	5	Mayo	2023-08-05T00:00:00	2024-11-08T19:00:00	6	Velocidad del viento	0
52686	7	Sololá	717	San Juan la Laguna	12	San Juan la Laguna	5	Mayo	2023-08-05T00:00:00	2024-11-08T19:00:00	7	Dirección del viento	0
52687	7	Sololá	717	San Juan la Laguna	12	San Juan la Laguna	5	Mayo	2023-08-05T00:00:00	2024-11-08T19:00:00	1	Precipitación	0
52688	7	Sololá	717	San Juan la Laguna	12	San Juan la Laguna	5	Mayo	2023-08-05T00:00:00	2024-11-08T19:00:00	8	Radiación solar	0
52689	7	Sololá	717	San Juan la Laguna	12	San Juan la Laguna	5	Mayo	2023-08-05T00:00:00	2024-11-08T20:00:00	2	Temperatura media	20.9
52690	7	Sololá	717	San Juan la Laguna	12	San Juan la Laguna	5	Mayo	2023-08-05T00:00:00	2024-11-08T20:00:00	4	Temperatura máxima	22
52691	7	Sololá	717	San Juan la Laguna	12	San Juan la Laguna	5	Mayo	2023-08-05T00:00:00	2024-11-08T20:00:00	3	Temperatura mínima	20.9
52692	7	Sololá	717	San Juan la Laguna	12	San Juan la Laguna	5	Mayo	2023-08-05T00:00:00	2024-11-08T20:00:00	5	Humedad	82
52693	7	Sololá	717	San Juan la Laguna	12	San Juan la Laguna	5	Mayo	2023-08-05T00:00:00	2024-11-08T20:00:00	6	Velocidad del viento	0
52694	7	Sololá	717	San Juan la Laguna	12	San Juan la Laguna	5	Mayo	2023-08-05T00:00:00	2024-11-08T20:00:00	7	Dirección del viento	0
52695	7	Sololá	717	San Juan la Laguna	12	San Juan la Laguna	5	Mayo	2023-08-05T00:00:00	2024-11-08T20:00:00	1	Precipitación	0
52696	7	Sololá	717	San Juan la Laguna	12	San Juan la Laguna	5	Mayo	2023-08-05T00:00:00	2024-11-08T20:00:00	8	Radiación solar	0
52697	7	Sololá	717	San Juan la Laguna	12	San Juan la Laguna	5	Mayo	2023-08-05T00:00:00	2024-11-08T21:00:00	2	Temperatura media	20.3
52698	7	Sololá	717	San Juan la Laguna	12	San Juan la Laguna	5	Mayo	2023-08-05T00:00:00	2024-11-08T21:00:00	4	Temperatura máxima	20.9
52699	7	Sololá	717	San Juan la Laguna	12	San Juan la Laguna	5	Mayo	2023-08-05T00:00:00	2024-11-08T21:00:00	3	Temperatura mínima	20.3
52700	7	Sololá	717	San Juan la Laguna	12	San Juan la Laguna	5	Mayo	2023-08-05T00:00:00	2024-11-08T21:00:00	5	Humedad	85
52701	7	Sololá	717	San Juan la Laguna	12	San Juan la Laguna	5	Mayo	2023-08-05T00:00:00	2024-11-08T21:00:00	6	Velocidad del viento	0
52702	7	Sololá	717	San Juan la Laguna	12	San Juan la Laguna	5	Mayo	2023-08-05T00:00:00	2024-11-08T21:00:00	7	Dirección del viento	0
52703	7	Sololá	717	San Juan la Laguna	12	San Juan la Laguna	5	Mayo	2023-08-05T00:00:00	2024-11-08T21:00:00	1	Precipitación	0
52704	7	Sololá	717	San Juan la Laguna	12	San Juan la Laguna	5	Mayo	2023-08-05T00:00:00	2024-11-08T21:00:00	8	Radiación solar	0
52705	7	Sololá	717	San Juan la Laguna	12	San Juan la Laguna	5	Mayo	2023-08-05T00:00:00	2024-11-08T22:00:00	2	Temperatura media	19.6
52706	7	Sololá	717	San Juan la Laguna	12	San Juan la Laguna	5	Mayo	2023-08-05T00:00:00	2024-11-08T22:00:00	4	Temperatura máxima	20.4
52707	7	Sololá	717	San Juan la Laguna	12	San Juan la Laguna	5	Mayo	2023-08-05T00:00:00	2024-11-08T22:00:00	3	Temperatura mínima	19.6
52708	7	Sololá	717	San Juan la Laguna	12	San Juan la Laguna	5	Mayo	2023-08-05T00:00:00	2024-11-08T22:00:00	5	Humedad	87
52709	7	Sololá	717	San Juan la Laguna	12	San Juan la Laguna	5	Mayo	2023-08-05T00:00:00	2024-11-08T22:00:00	6	Velocidad del viento	0
52710	7	Sololá	717	San Juan la Laguna	12	San Juan la Laguna	5	Mayo	2023-08-05T00:00:00	2024-11-08T22:00:00	7	Dirección del viento	0
52711	7	Sololá	717	San Juan la Laguna	12	San Juan la Laguna	5	Mayo	2023-08-05T00:00:00	2024-11-08T22:00:00	1	Precipitación	0
52712	7	Sololá	717	San Juan la Laguna	12	San Juan la Laguna	5	Mayo	2023-08-05T00:00:00	2024-11-08T22:00:00	8	Radiación solar	0
52713	7	Sololá	717	San Juan la Laguna	12	San Juan la Laguna	5	Mayo	2023-08-05T00:00:00	2024-11-08T23:00:00	2	Temperatura media	18.4
52714	7	Sololá	717	San Juan la Laguna	12	San Juan la Laguna	5	Mayo	2023-08-05T00:00:00	2024-11-08T23:00:00	4	Temperatura máxima	19.6
52715	7	Sololá	717	San Juan la Laguna	12	San Juan la Laguna	5	Mayo	2023-08-05T00:00:00	2024-11-08T23:00:00	3	Temperatura mínima	18.4
52716	7	Sololá	717	San Juan la Laguna	12	San Juan la Laguna	5	Mayo	2023-08-05T00:00:00	2024-11-08T23:00:00	5	Humedad	85
52717	7	Sololá	717	San Juan la Laguna	12	San Juan la Laguna	5	Mayo	2023-08-05T00:00:00	2024-11-08T23:00:00	6	Velocidad del viento	0
52718	7	Sololá	717	San Juan la Laguna	12	San Juan la Laguna	5	Mayo	2023-08-05T00:00:00	2024-11-08T23:00:00	7	Dirección del viento	0
52719	7	Sololá	717	San Juan la Laguna	12	San Juan la Laguna	5	Mayo	2023-08-05T00:00:00	2024-11-08T23:00:00	1	Precipitación	0
52720	7	Sololá	717	San Juan la Laguna	12	San Juan la Laguna	5	Mayo	2023-08-05T00:00:00	2024-11-08T23:00:00	8	Radiación solar	0
52721	7	Sololá	717	San Juan la Laguna	12	San Juan la Laguna	5	Mayo	2023-09-05T00:00:00	2024-11-08T00:00:00	2	Temperatura media	17.3
52722	7	Sololá	717	San Juan la Laguna	12	San Juan la Laguna	5	Mayo	2023-09-05T00:00:00	2024-11-08T00:00:00	4	Temperatura máxima	18.4
52723	7	Sololá	717	San Juan la Laguna	12	San Juan la Laguna	5	Mayo	2023-09-05T00:00:00	2024-11-08T00:00:00	3	Temperatura mínima	17.3
52724	7	Sololá	717	San Juan la Laguna	12	San Juan la Laguna	5	Mayo	2023-09-05T00:00:00	2024-11-08T00:00:00	5	Humedad	87
52725	7	Sololá	717	San Juan la Laguna	12	San Juan la Laguna	5	Mayo	2023-09-05T00:00:00	2024-11-08T00:00:00	6	Velocidad del viento	1.6
52726	7	Sololá	717	San Juan la Laguna	12	San Juan la Laguna	5	Mayo	2023-09-05T00:00:00	2024-11-08T00:00:00	7	Dirección del viento	1.61
52727	7	Sololá	717	San Juan la Laguna	12	San Juan la Laguna	5	Mayo	2023-09-05T00:00:00	2024-11-08T00:00:00	1	Precipitación	0
52728	7	Sololá	717	San Juan la Laguna	12	San Juan la Laguna	5	Mayo	2023-09-05T00:00:00	2024-11-08T00:00:00	8	Radiación solar	0
52729	7	Sololá	717	San Juan la Laguna	12	San Juan la Laguna	5	Mayo	2023-09-05T00:00:00	2024-11-08T01:00:00	2	Temperatura media	17.1
52730	7	Sololá	717	San Juan la Laguna	12	San Juan la Laguna	5	Mayo	2023-09-05T00:00:00	2024-11-08T01:00:00	4	Temperatura máxima	17.3
52731	7	Sololá	717	San Juan la Laguna	12	San Juan la Laguna	5	Mayo	2023-09-05T00:00:00	2024-11-08T01:00:00	3	Temperatura mínima	16.8
52732	7	Sololá	717	San Juan la Laguna	12	San Juan la Laguna	5	Mayo	2023-09-05T00:00:00	2024-11-08T01:00:00	5	Humedad	76
52733	7	Sololá	717	San Juan la Laguna	12	San Juan la Laguna	5	Mayo	2023-09-05T00:00:00	2024-11-08T01:00:00	6	Velocidad del viento	1.6
52734	7	Sololá	717	San Juan la Laguna	12	San Juan la Laguna	5	Mayo	2023-09-05T00:00:00	2024-11-08T01:00:00	7	Dirección del viento	1.61
52735	7	Sololá	717	San Juan la Laguna	12	San Juan la Laguna	5	Mayo	2023-09-05T00:00:00	2024-11-08T01:00:00	1	Precipitación	0
52736	7	Sololá	717	San Juan la Laguna	12	San Juan la Laguna	5	Mayo	2023-09-05T00:00:00	2024-11-08T01:00:00	8	Radiación solar	0
52737	7	Sololá	717	San Juan la Laguna	12	San Juan la Laguna	5	Mayo	2023-09-05T00:00:00	2024-11-08T02:00:00	2	Temperatura media	17.3
52738	7	Sololá	717	San Juan la Laguna	12	San Juan la Laguna	5	Mayo	2023-09-05T00:00:00	2024-11-08T02:00:00	4	Temperatura máxima	17.4
52739	7	Sololá	717	San Juan la Laguna	12	San Juan la Laguna	5	Mayo	2023-09-05T00:00:00	2024-11-08T02:00:00	3	Temperatura mínima	16.9
52740	7	Sololá	717	San Juan la Laguna	12	San Juan la Laguna	5	Mayo	2023-09-05T00:00:00	2024-11-08T02:00:00	5	Humedad	71
52741	7	Sololá	717	San Juan la Laguna	12	San Juan la Laguna	5	Mayo	2023-09-05T00:00:00	2024-11-08T02:00:00	6	Velocidad del viento	1.6
52742	7	Sololá	717	San Juan la Laguna	12	San Juan la Laguna	5	Mayo	2023-09-05T00:00:00	2024-11-08T02:00:00	7	Dirección del viento	1.61
52743	7	Sololá	717	San Juan la Laguna	12	San Juan la Laguna	5	Mayo	2023-09-05T00:00:00	2024-11-08T02:00:00	1	Precipitación	0
52744	7	Sololá	717	San Juan la Laguna	12	San Juan la Laguna	5	Mayo	2023-09-05T00:00:00	2024-11-08T02:00:00	8	Radiación solar	0
52745	7	Sololá	717	San Juan la Laguna	12	San Juan la Laguna	5	Mayo	2023-09-05T00:00:00	2024-11-08T03:00:00	2	Temperatura media	16.6
52746	7	Sololá	717	San Juan la Laguna	12	San Juan la Laguna	5	Mayo	2023-09-05T00:00:00	2024-11-08T03:00:00	4	Temperatura máxima	17.6
52747	7	Sololá	717	San Juan la Laguna	12	San Juan la Laguna	5	Mayo	2023-09-05T00:00:00	2024-11-08T03:00:00	3	Temperatura mínima	16.6
52748	7	Sololá	717	San Juan la Laguna	12	San Juan la Laguna	5	Mayo	2023-09-05T00:00:00	2024-11-08T03:00:00	5	Humedad	71
52749	7	Sololá	717	San Juan la Laguna	12	San Juan la Laguna	5	Mayo	2023-09-05T00:00:00	2024-11-08T03:00:00	6	Velocidad del viento	1.6
52750	7	Sololá	717	San Juan la Laguna	12	San Juan la Laguna	5	Mayo	2023-09-05T00:00:00	2024-11-08T03:00:00	7	Dirección del viento	1.61
52751	7	Sololá	717	San Juan la Laguna	12	San Juan la Laguna	5	Mayo	2023-09-05T00:00:00	2024-11-08T03:00:00	1	Precipitación	0
52752	7	Sololá	717	San Juan la Laguna	12	San Juan la Laguna	5	Mayo	2023-09-05T00:00:00	2024-11-08T03:00:00	8	Radiación solar	0
52753	7	Sololá	717	San Juan la Laguna	12	San Juan la Laguna	5	Mayo	2023-09-05T00:00:00	2024-11-08T04:00:00	2	Temperatura media	16.8
52754	7	Sololá	717	San Juan la Laguna	12	San Juan la Laguna	5	Mayo	2023-09-05T00:00:00	2024-11-08T04:00:00	4	Temperatura máxima	16.9
52755	7	Sololá	717	San Juan la Laguna	12	San Juan la Laguna	5	Mayo	2023-09-05T00:00:00	2024-11-08T04:00:00	3	Temperatura mínima	16.4
52756	7	Sololá	717	San Juan la Laguna	12	San Juan la Laguna	5	Mayo	2023-09-05T00:00:00	2024-11-08T04:00:00	5	Humedad	67
52757	7	Sololá	717	San Juan la Laguna	12	San Juan la Laguna	5	Mayo	2023-09-05T00:00:00	2024-11-08T04:00:00	6	Velocidad del viento	1.6
52758	7	Sololá	717	San Juan la Laguna	12	San Juan la Laguna	5	Mayo	2023-09-05T00:00:00	2024-11-08T04:00:00	7	Dirección del viento	1.61
52759	7	Sololá	717	San Juan la Laguna	12	San Juan la Laguna	5	Mayo	2023-09-05T00:00:00	2024-11-08T04:00:00	1	Precipitación	0
52760	7	Sololá	717	San Juan la Laguna	12	San Juan la Laguna	5	Mayo	2023-09-05T00:00:00	2024-11-08T04:00:00	8	Radiación solar	0
52761	7	Sololá	717	San Juan la Laguna	12	San Juan la Laguna	5	Mayo	2023-09-05T00:00:00	2024-11-08T05:00:00	2	Temperatura media	15.1
52762	7	Sololá	717	San Juan la Laguna	12	San Juan la Laguna	5	Mayo	2023-09-05T00:00:00	2024-11-08T05:00:00	4	Temperatura máxima	16.8
52763	7	Sololá	717	San Juan la Laguna	12	San Juan la Laguna	5	Mayo	2023-09-05T00:00:00	2024-11-08T05:00:00	3	Temperatura mínima	15.1
52764	7	Sololá	717	San Juan la Laguna	12	San Juan la Laguna	5	Mayo	2023-09-05T00:00:00	2024-11-08T05:00:00	5	Humedad	71
52765	7	Sololá	717	San Juan la Laguna	12	San Juan la Laguna	5	Mayo	2023-09-05T00:00:00	2024-11-08T05:00:00	6	Velocidad del viento	0
52766	7	Sololá	717	San Juan la Laguna	12	San Juan la Laguna	5	Mayo	2023-09-05T00:00:00	2024-11-08T05:00:00	7	Dirección del viento	0
52767	7	Sololá	717	San Juan la Laguna	12	San Juan la Laguna	5	Mayo	2023-09-05T00:00:00	2024-11-08T05:00:00	1	Precipitación	0
52768	7	Sololá	717	San Juan la Laguna	12	San Juan la Laguna	5	Mayo	2023-09-05T00:00:00	2024-11-08T05:00:00	8	Radiación solar	0
52769	7	Sololá	717	San Juan la Laguna	12	San Juan la Laguna	5	Mayo	2023-09-05T00:00:00	2024-11-08T06:00:00	2	Temperatura media	15.3
52770	7	Sololá	717	San Juan la Laguna	12	San Juan la Laguna	5	Mayo	2023-09-05T00:00:00	2024-11-08T06:00:00	4	Temperatura máxima	15.3
52771	7	Sololá	717	San Juan la Laguna	12	San Juan la Laguna	5	Mayo	2023-09-05T00:00:00	2024-11-08T06:00:00	3	Temperatura mínima	14.7
52772	7	Sololá	717	San Juan la Laguna	12	San Juan la Laguna	5	Mayo	2023-09-05T00:00:00	2024-11-08T06:00:00	5	Humedad	74
52773	7	Sololá	717	San Juan la Laguna	12	San Juan la Laguna	5	Mayo	2023-09-05T00:00:00	2024-11-08T06:00:00	6	Velocidad del viento	0
52774	7	Sololá	717	San Juan la Laguna	12	San Juan la Laguna	5	Mayo	2023-09-05T00:00:00	2024-11-08T06:00:00	7	Dirección del viento	0
52775	7	Sololá	717	San Juan la Laguna	12	San Juan la Laguna	5	Mayo	2023-09-05T00:00:00	2024-11-08T06:00:00	1	Precipitación	0
52776	7	Sololá	717	San Juan la Laguna	12	San Juan la Laguna	5	Mayo	2023-09-05T00:00:00	2024-11-08T06:00:00	8	Radiación solar	5
52777	7	Sololá	717	San Juan la Laguna	12	San Juan la Laguna	5	Mayo	2023-09-05T00:00:00	2024-11-08T07:00:00	2	Temperatura media	17.4
52778	7	Sololá	717	San Juan la Laguna	12	San Juan la Laguna	5	Mayo	2023-09-05T00:00:00	2024-11-08T07:00:00	4	Temperatura máxima	17.4
52779	7	Sololá	717	San Juan la Laguna	12	San Juan la Laguna	5	Mayo	2023-09-05T00:00:00	2024-11-08T07:00:00	3	Temperatura mínima	15.3
52780	7	Sololá	717	San Juan la Laguna	12	San Juan la Laguna	5	Mayo	2023-09-05T00:00:00	2024-11-08T07:00:00	5	Humedad	72
52781	7	Sololá	717	San Juan la Laguna	12	San Juan la Laguna	5	Mayo	2023-09-05T00:00:00	2024-11-08T07:00:00	6	Velocidad del viento	0
52782	7	Sololá	717	San Juan la Laguna	12	San Juan la Laguna	5	Mayo	2023-09-05T00:00:00	2024-11-08T07:00:00	7	Dirección del viento	0
52783	7	Sololá	717	San Juan la Laguna	12	San Juan la Laguna	5	Mayo	2023-09-05T00:00:00	2024-11-08T07:00:00	1	Precipitación	0
52784	7	Sololá	717	San Juan la Laguna	12	San Juan la Laguna	5	Mayo	2023-09-05T00:00:00	2024-11-08T07:00:00	8	Radiación solar	100
52785	7	Sololá	717	San Juan la Laguna	12	San Juan la Laguna	5	Mayo	2023-09-05T00:00:00	2024-11-08T08:00:00	2	Temperatura media	20.5
52786	7	Sololá	717	San Juan la Laguna	12	San Juan la Laguna	5	Mayo	2023-09-05T00:00:00	2024-11-08T08:00:00	4	Temperatura máxima	20.5
52787	7	Sololá	717	San Juan la Laguna	12	San Juan la Laguna	5	Mayo	2023-09-05T00:00:00	2024-11-08T08:00:00	3	Temperatura mínima	17.5
52788	7	Sololá	717	San Juan la Laguna	12	San Juan la Laguna	5	Mayo	2023-09-05T00:00:00	2024-11-08T08:00:00	5	Humedad	65
52789	7	Sololá	717	San Juan la Laguna	12	San Juan la Laguna	5	Mayo	2023-09-05T00:00:00	2024-11-08T08:00:00	6	Velocidad del viento	0
52790	7	Sololá	717	San Juan la Laguna	12	San Juan la Laguna	5	Mayo	2023-09-05T00:00:00	2024-11-08T08:00:00	7	Dirección del viento	0
52791	7	Sololá	717	San Juan la Laguna	12	San Juan la Laguna	5	Mayo	2023-09-05T00:00:00	2024-11-08T08:00:00	1	Precipitación	0
52792	7	Sololá	717	San Juan la Laguna	12	San Juan la Laguna	5	Mayo	2023-09-05T00:00:00	2024-11-08T08:00:00	8	Radiación solar	268
52793	7	Sololá	717	San Juan la Laguna	12	San Juan la Laguna	5	Mayo	2023-09-05T00:00:00	2024-11-08T09:00:00	2	Temperatura media	21.9
52794	7	Sololá	717	San Juan la Laguna	12	San Juan la Laguna	5	Mayo	2023-09-05T00:00:00	2024-11-08T09:00:00	4	Temperatura máxima	21.9
52795	7	Sololá	717	San Juan la Laguna	12	San Juan la Laguna	5	Mayo	2023-09-05T00:00:00	2024-11-08T09:00:00	3	Temperatura mínima	20.6
52796	7	Sololá	717	San Juan la Laguna	12	San Juan la Laguna	5	Mayo	2023-09-05T00:00:00	2024-11-08T09:00:00	5	Humedad	62
52797	7	Sololá	717	San Juan la Laguna	12	San Juan la Laguna	5	Mayo	2023-09-05T00:00:00	2024-11-08T09:00:00	6	Velocidad del viento	0
52798	7	Sololá	717	San Juan la Laguna	12	San Juan la Laguna	5	Mayo	2023-09-05T00:00:00	2024-11-08T09:00:00	7	Dirección del viento	0
52799	7	Sololá	717	San Juan la Laguna	12	San Juan la Laguna	5	Mayo	2023-09-05T00:00:00	2024-11-08T09:00:00	1	Precipitación	0
52800	7	Sololá	717	San Juan la Laguna	12	San Juan la Laguna	5	Mayo	2023-09-05T00:00:00	2024-11-08T09:00:00	8	Radiación solar	496
52801	7	Sololá	717	San Juan la Laguna	12	San Juan la Laguna	5	Mayo	2023-09-05T00:00:00	2024-11-08T10:00:00	2	Temperatura media	22.7
52802	7	Sololá	717	San Juan la Laguna	12	San Juan la Laguna	5	Mayo	2023-09-05T00:00:00	2024-11-08T10:00:00	4	Temperatura máxima	23.3
52803	7	Sololá	717	San Juan la Laguna	12	San Juan la Laguna	5	Mayo	2023-09-05T00:00:00	2024-11-08T10:00:00	3	Temperatura mínima	21.9
52804	7	Sololá	717	San Juan la Laguna	12	San Juan la Laguna	5	Mayo	2023-09-05T00:00:00	2024-11-08T10:00:00	5	Humedad	63
52805	7	Sololá	717	San Juan la Laguna	12	San Juan la Laguna	5	Mayo	2023-09-05T00:00:00	2024-11-08T10:00:00	6	Velocidad del viento	1.6
52806	7	Sololá	717	San Juan la Laguna	12	San Juan la Laguna	5	Mayo	2023-09-05T00:00:00	2024-11-08T10:00:00	7	Dirección del viento	1.61
52807	7	Sololá	717	San Juan la Laguna	12	San Juan la Laguna	5	Mayo	2023-09-05T00:00:00	2024-11-08T10:00:00	1	Precipitación	0
52808	7	Sololá	717	San Juan la Laguna	12	San Juan la Laguna	5	Mayo	2023-09-05T00:00:00	2024-11-08T10:00:00	8	Radiación solar	715
52809	7	Sololá	717	San Juan la Laguna	12	San Juan la Laguna	5	Mayo	2023-09-05T00:00:00	2024-11-08T11:00:00	2	Temperatura media	24.7
52810	7	Sololá	717	San Juan la Laguna	12	San Juan la Laguna	5	Mayo	2023-09-05T00:00:00	2024-11-08T11:00:00	4	Temperatura máxima	24.7
52811	7	Sololá	717	San Juan la Laguna	12	San Juan la Laguna	5	Mayo	2023-09-05T00:00:00	2024-11-08T11:00:00	3	Temperatura mínima	22.7
52812	7	Sololá	717	San Juan la Laguna	12	San Juan la Laguna	5	Mayo	2023-09-05T00:00:00	2024-11-08T11:00:00	5	Humedad	57
52813	7	Sololá	717	San Juan la Laguna	12	San Juan la Laguna	5	Mayo	2023-09-05T00:00:00	2024-11-08T11:00:00	6	Velocidad del viento	1.6
52814	7	Sololá	717	San Juan la Laguna	12	San Juan la Laguna	5	Mayo	2023-09-05T00:00:00	2024-11-08T11:00:00	7	Dirección del viento	1.61
52815	7	Sololá	717	San Juan la Laguna	12	San Juan la Laguna	5	Mayo	2023-09-05T00:00:00	2024-11-08T11:00:00	1	Precipitación	0
52816	7	Sololá	717	San Juan la Laguna	12	San Juan la Laguna	5	Mayo	2023-09-05T00:00:00	2024-11-08T11:00:00	8	Radiación solar	843
52817	7	Sololá	717	San Juan la Laguna	12	San Juan la Laguna	5	Mayo	2023-09-05T00:00:00	2024-11-08T12:00:00	2	Temperatura media	24.8
52818	7	Sololá	717	San Juan la Laguna	12	San Juan la Laguna	5	Mayo	2023-09-05T00:00:00	2024-11-08T12:00:00	4	Temperatura máxima	25.5
52819	7	Sololá	717	San Juan la Laguna	12	San Juan la Laguna	5	Mayo	2023-09-05T00:00:00	2024-11-08T12:00:00	3	Temperatura mínima	24.6
52820	7	Sololá	717	San Juan la Laguna	12	San Juan la Laguna	5	Mayo	2023-09-05T00:00:00	2024-11-08T12:00:00	5	Humedad	60
52821	7	Sololá	717	San Juan la Laguna	12	San Juan la Laguna	5	Mayo	2023-09-05T00:00:00	2024-11-08T12:00:00	6	Velocidad del viento	4.8
52822	7	Sololá	717	San Juan la Laguna	12	San Juan la Laguna	5	Mayo	2023-09-05T00:00:00	2024-11-08T12:00:00	7	Dirección del viento	4.83
52823	7	Sololá	717	San Juan la Laguna	12	San Juan la Laguna	5	Mayo	2023-09-05T00:00:00	2024-11-08T12:00:00	1	Precipitación	0
52824	7	Sololá	717	San Juan la Laguna	12	San Juan la Laguna	5	Mayo	2023-09-05T00:00:00	2024-11-08T12:00:00	8	Radiación solar	913
52825	7	Sololá	717	San Juan la Laguna	12	San Juan la Laguna	5	Mayo	2023-09-05T00:00:00	2024-11-08T13:00:00	2	Temperatura media	24.9
52826	7	Sololá	717	San Juan la Laguna	12	San Juan la Laguna	5	Mayo	2023-09-05T00:00:00	2024-11-08T13:00:00	4	Temperatura máxima	25.3
52827	7	Sololá	717	San Juan la Laguna	12	San Juan la Laguna	5	Mayo	2023-09-05T00:00:00	2024-11-08T13:00:00	3	Temperatura mínima	24.4
52828	7	Sololá	717	San Juan la Laguna	12	San Juan la Laguna	5	Mayo	2023-09-05T00:00:00	2024-11-08T13:00:00	5	Humedad	62
52829	7	Sololá	717	San Juan la Laguna	12	San Juan la Laguna	5	Mayo	2023-09-05T00:00:00	2024-11-08T13:00:00	6	Velocidad del viento	8
52830	7	Sololá	717	San Juan la Laguna	12	San Juan la Laguna	5	Mayo	2023-09-05T00:00:00	2024-11-08T13:00:00	7	Dirección del viento	8.05
52831	7	Sololá	717	San Juan la Laguna	12	San Juan la Laguna	5	Mayo	2023-09-05T00:00:00	2024-11-08T13:00:00	1	Precipitación	0
52832	7	Sololá	717	San Juan la Laguna	12	San Juan la Laguna	5	Mayo	2023-09-05T00:00:00	2024-11-08T13:00:00	8	Radiación solar	936
52833	7	Sololá	717	San Juan la Laguna	12	San Juan la Laguna	5	Mayo	2023-09-05T00:00:00	2024-11-08T14:00:00	2	Temperatura media	24.2
52834	7	Sololá	717	San Juan la Laguna	12	San Juan la Laguna	5	Mayo	2023-09-05T00:00:00	2024-11-08T14:00:00	4	Temperatura máxima	25.7
52835	7	Sololá	717	San Juan la Laguna	12	San Juan la Laguna	5	Mayo	2023-09-05T00:00:00	2024-11-08T14:00:00	3	Temperatura mínima	24.2
52836	7	Sololá	717	San Juan la Laguna	12	San Juan la Laguna	5	Mayo	2023-09-05T00:00:00	2024-11-08T14:00:00	5	Humedad	68
52837	7	Sololá	717	San Juan la Laguna	12	San Juan la Laguna	5	Mayo	2023-09-05T00:00:00	2024-11-08T14:00:00	6	Velocidad del viento	6.4
52838	7	Sololá	717	San Juan la Laguna	12	San Juan la Laguna	5	Mayo	2023-09-05T00:00:00	2024-11-08T14:00:00	7	Dirección del viento	6.44
52839	7	Sololá	717	San Juan la Laguna	12	San Juan la Laguna	5	Mayo	2023-09-05T00:00:00	2024-11-08T14:00:00	1	Precipitación	0
52840	7	Sololá	717	San Juan la Laguna	12	San Juan la Laguna	5	Mayo	2023-09-05T00:00:00	2024-11-08T14:00:00	8	Radiación solar	813
52841	7	Sololá	717	San Juan la Laguna	12	San Juan la Laguna	5	Mayo	2023-09-05T00:00:00	2024-11-08T15:00:00	2	Temperatura media	25.3
52842	7	Sololá	717	San Juan la Laguna	12	San Juan la Laguna	5	Mayo	2023-09-05T00:00:00	2024-11-08T15:00:00	4	Temperatura máxima	25.3
52843	7	Sololá	717	San Juan la Laguna	12	San Juan la Laguna	5	Mayo	2023-09-05T00:00:00	2024-11-08T15:00:00	3	Temperatura mínima	23.6
52844	7	Sololá	717	San Juan la Laguna	12	San Juan la Laguna	5	Mayo	2023-09-05T00:00:00	2024-11-08T15:00:00	5	Humedad	62
52845	7	Sololá	717	San Juan la Laguna	12	San Juan la Laguna	5	Mayo	2023-09-05T00:00:00	2024-11-08T15:00:00	6	Velocidad del viento	4.8
52846	7	Sololá	717	San Juan la Laguna	12	San Juan la Laguna	5	Mayo	2023-09-05T00:00:00	2024-11-08T15:00:00	7	Dirección del viento	4.83
52847	7	Sololá	717	San Juan la Laguna	12	San Juan la Laguna	5	Mayo	2023-09-05T00:00:00	2024-11-08T15:00:00	1	Precipitación	0
52848	7	Sololá	717	San Juan la Laguna	12	San Juan la Laguna	5	Mayo	2023-09-05T00:00:00	2024-11-08T15:00:00	8	Radiación solar	604
52849	7	Sololá	717	San Juan la Laguna	12	San Juan la Laguna	5	Mayo	2023-09-05T00:00:00	2024-11-08T16:00:00	2	Temperatura media	23.8
52850	7	Sololá	717	San Juan la Laguna	12	San Juan la Laguna	5	Mayo	2023-09-05T00:00:00	2024-11-08T16:00:00	4	Temperatura máxima	25.4
52851	7	Sololá	717	San Juan la Laguna	12	San Juan la Laguna	5	Mayo	2023-09-05T00:00:00	2024-11-08T16:00:00	3	Temperatura mínima	23.8
52852	7	Sololá	717	San Juan la Laguna	12	San Juan la Laguna	5	Mayo	2023-09-05T00:00:00	2024-11-08T16:00:00	5	Humedad	70
52853	7	Sololá	717	San Juan la Laguna	12	San Juan la Laguna	5	Mayo	2023-09-05T00:00:00	2024-11-08T16:00:00	6	Velocidad del viento	3.2
52854	7	Sololá	717	San Juan la Laguna	12	San Juan la Laguna	5	Mayo	2023-09-05T00:00:00	2024-11-08T16:00:00	7	Dirección del viento	3.22
52855	7	Sololá	717	San Juan la Laguna	12	San Juan la Laguna	5	Mayo	2023-09-05T00:00:00	2024-11-08T16:00:00	1	Precipitación	0
52856	7	Sololá	717	San Juan la Laguna	12	San Juan la Laguna	5	Mayo	2023-09-05T00:00:00	2024-11-08T16:00:00	8	Radiación solar	297
52857	7	Sololá	717	San Juan la Laguna	12	San Juan la Laguna	5	Mayo	2023-09-05T00:00:00	2024-11-08T17:00:00	2	Temperatura media	21.8
52858	7	Sololá	717	San Juan la Laguna	12	San Juan la Laguna	5	Mayo	2023-09-05T00:00:00	2024-11-08T17:00:00	4	Temperatura máxima	23.8
52859	7	Sololá	717	San Juan la Laguna	12	San Juan la Laguna	5	Mayo	2023-09-05T00:00:00	2024-11-08T17:00:00	3	Temperatura mínima	21.8
52860	7	Sololá	717	San Juan la Laguna	12	San Juan la Laguna	5	Mayo	2023-09-05T00:00:00	2024-11-08T17:00:00	5	Humedad	77
52861	7	Sololá	717	San Juan la Laguna	12	San Juan la Laguna	5	Mayo	2023-09-05T00:00:00	2024-11-08T17:00:00	6	Velocidad del viento	3.2
52862	7	Sololá	717	San Juan la Laguna	12	San Juan la Laguna	5	Mayo	2023-09-05T00:00:00	2024-11-08T17:00:00	7	Dirección del viento	3.22
52863	7	Sololá	717	San Juan la Laguna	12	San Juan la Laguna	5	Mayo	2023-09-05T00:00:00	2024-11-08T17:00:00	1	Precipitación	0
52864	7	Sololá	717	San Juan la Laguna	12	San Juan la Laguna	5	Mayo	2023-09-05T00:00:00	2024-11-08T17:00:00	8	Radiación solar	69
52865	7	Sololá	717	San Juan la Laguna	12	San Juan la Laguna	5	Mayo	2023-09-05T00:00:00	2024-11-08T18:00:00	2	Temperatura media	21.1
52866	7	Sololá	717	San Juan la Laguna	12	San Juan la Laguna	5	Mayo	2023-09-05T00:00:00	2024-11-08T18:00:00	4	Temperatura máxima	21.8
52867	7	Sololá	717	San Juan la Laguna	12	San Juan la Laguna	5	Mayo	2023-09-05T00:00:00	2024-11-08T18:00:00	3	Temperatura mínima	21
52868	7	Sololá	717	San Juan la Laguna	12	San Juan la Laguna	5	Mayo	2023-09-05T00:00:00	2024-11-08T18:00:00	5	Humedad	80
52869	7	Sololá	717	San Juan la Laguna	12	San Juan la Laguna	5	Mayo	2023-09-05T00:00:00	2024-11-08T18:00:00	6	Velocidad del viento	3.2
52870	7	Sololá	717	San Juan la Laguna	12	San Juan la Laguna	5	Mayo	2023-09-05T00:00:00	2024-11-08T18:00:00	7	Dirección del viento	3.22
52871	7	Sololá	717	San Juan la Laguna	12	San Juan la Laguna	5	Mayo	2023-09-05T00:00:00	2024-11-08T18:00:00	1	Precipitación	0
52872	7	Sololá	717	San Juan la Laguna	12	San Juan la Laguna	5	Mayo	2023-09-05T00:00:00	2024-11-08T18:00:00	8	Radiación solar	9
52873	7	Sololá	717	San Juan la Laguna	12	San Juan la Laguna	5	Mayo	2023-09-05T00:00:00	2024-11-08T19:00:00	2	Temperatura media	21
52874	7	Sololá	717	San Juan la Laguna	12	San Juan la Laguna	5	Mayo	2023-09-05T00:00:00	2024-11-08T19:00:00	4	Temperatura máxima	21.1
52875	7	Sololá	717	San Juan la Laguna	12	San Juan la Laguna	5	Mayo	2023-09-05T00:00:00	2024-11-08T19:00:00	3	Temperatura mínima	20.9
52876	7	Sololá	717	San Juan la Laguna	12	San Juan la Laguna	5	Mayo	2023-09-05T00:00:00	2024-11-08T19:00:00	5	Humedad	81
52877	7	Sololá	717	San Juan la Laguna	12	San Juan la Laguna	5	Mayo	2023-09-05T00:00:00	2024-11-08T19:00:00	6	Velocidad del viento	1.6
52878	7	Sololá	717	San Juan la Laguna	12	San Juan la Laguna	5	Mayo	2023-09-05T00:00:00	2024-11-08T19:00:00	7	Dirección del viento	1.61
52879	7	Sololá	717	San Juan la Laguna	12	San Juan la Laguna	5	Mayo	2023-09-05T00:00:00	2024-11-08T19:00:00	1	Precipitación	0
52880	7	Sololá	717	San Juan la Laguna	12	San Juan la Laguna	5	Mayo	2023-09-05T00:00:00	2024-11-08T19:00:00	8	Radiación solar	0
52881	7	Sololá	717	San Juan la Laguna	12	San Juan la Laguna	5	Mayo	2023-09-05T00:00:00	2024-11-08T20:00:00	2	Temperatura media	21
52882	7	Sololá	717	San Juan la Laguna	12	San Juan la Laguna	5	Mayo	2023-09-05T00:00:00	2024-11-08T20:00:00	4	Temperatura máxima	21
52883	7	Sololá	717	San Juan la Laguna	12	San Juan la Laguna	5	Mayo	2023-09-05T00:00:00	2024-11-08T20:00:00	3	Temperatura mínima	20.8
52884	7	Sololá	717	San Juan la Laguna	12	San Juan la Laguna	5	Mayo	2023-09-05T00:00:00	2024-11-08T20:00:00	5	Humedad	82
52885	7	Sololá	717	San Juan la Laguna	12	San Juan la Laguna	5	Mayo	2023-09-05T00:00:00	2024-11-08T20:00:00	6	Velocidad del viento	1.6
52886	7	Sololá	717	San Juan la Laguna	12	San Juan la Laguna	5	Mayo	2023-09-05T00:00:00	2024-11-08T20:00:00	7	Dirección del viento	1.61
52887	7	Sololá	717	San Juan la Laguna	12	San Juan la Laguna	5	Mayo	2023-09-05T00:00:00	2024-11-08T20:00:00	1	Precipitación	0
52888	7	Sololá	717	San Juan la Laguna	12	San Juan la Laguna	5	Mayo	2023-09-05T00:00:00	2024-11-08T20:00:00	8	Radiación solar	0
52889	7	Sololá	717	San Juan la Laguna	12	San Juan la Laguna	5	Mayo	2023-09-05T00:00:00	2024-11-08T21:00:00	2	Temperatura media	20.7
52890	7	Sololá	717	San Juan la Laguna	12	San Juan la Laguna	5	Mayo	2023-09-05T00:00:00	2024-11-08T21:00:00	4	Temperatura máxima	21
52891	7	Sololá	717	San Juan la Laguna	12	San Juan la Laguna	5	Mayo	2023-09-05T00:00:00	2024-11-08T21:00:00	3	Temperatura mínima	20.7
52892	7	Sololá	717	San Juan la Laguna	12	San Juan la Laguna	5	Mayo	2023-09-05T00:00:00	2024-11-08T21:00:00	5	Humedad	84
52893	7	Sololá	717	San Juan la Laguna	12	San Juan la Laguna	5	Mayo	2023-09-05T00:00:00	2024-11-08T21:00:00	6	Velocidad del viento	0
52894	7	Sololá	717	San Juan la Laguna	12	San Juan la Laguna	5	Mayo	2023-09-05T00:00:00	2024-11-08T21:00:00	7	Dirección del viento	0
52895	7	Sololá	717	San Juan la Laguna	12	San Juan la Laguna	5	Mayo	2023-09-05T00:00:00	2024-11-08T21:00:00	1	Precipitación	0
52896	7	Sololá	717	San Juan la Laguna	12	San Juan la Laguna	5	Mayo	2023-09-05T00:00:00	2024-11-08T21:00:00	8	Radiación solar	0
52897	7	Sololá	717	San Juan la Laguna	12	San Juan la Laguna	5	Mayo	2023-09-05T00:00:00	2024-11-08T22:00:00	2	Temperatura media	20.3
52898	7	Sololá	717	San Juan la Laguna	12	San Juan la Laguna	5	Mayo	2023-09-05T00:00:00	2024-11-08T22:00:00	4	Temperatura máxima	20.7
52899	7	Sololá	717	San Juan la Laguna	12	San Juan la Laguna	5	Mayo	2023-09-05T00:00:00	2024-11-08T22:00:00	3	Temperatura mínima	20.3
52900	7	Sololá	717	San Juan la Laguna	12	San Juan la Laguna	5	Mayo	2023-09-05T00:00:00	2024-11-08T22:00:00	5	Humedad	84
52901	7	Sololá	717	San Juan la Laguna	12	San Juan la Laguna	5	Mayo	2023-09-05T00:00:00	2024-11-08T22:00:00	6	Velocidad del viento	0
52902	7	Sololá	717	San Juan la Laguna	12	San Juan la Laguna	5	Mayo	2023-09-05T00:00:00	2024-11-08T22:00:00	7	Dirección del viento	0
52903	7	Sololá	717	San Juan la Laguna	12	San Juan la Laguna	5	Mayo	2023-09-05T00:00:00	2024-11-08T22:00:00	1	Precipitación	0
52904	7	Sololá	717	San Juan la Laguna	12	San Juan la Laguna	5	Mayo	2023-09-05T00:00:00	2024-11-08T22:00:00	8	Radiación solar	0
52905	7	Sololá	717	San Juan la Laguna	12	San Juan la Laguna	5	Mayo	2023-09-05T00:00:00	2024-11-08T23:00:00	2	Temperatura media	19.8
52906	7	Sololá	717	San Juan la Laguna	12	San Juan la Laguna	5	Mayo	2023-09-05T00:00:00	2024-11-08T23:00:00	4	Temperatura máxima	20.3
52907	7	Sololá	717	San Juan la Laguna	12	San Juan la Laguna	5	Mayo	2023-09-05T00:00:00	2024-11-08T23:00:00	3	Temperatura mínima	19.7
52908	7	Sololá	717	San Juan la Laguna	12	San Juan la Laguna	5	Mayo	2023-09-05T00:00:00	2024-11-08T23:00:00	5	Humedad	84
52909	7	Sololá	717	San Juan la Laguna	12	San Juan la Laguna	5	Mayo	2023-09-05T00:00:00	2024-11-08T23:00:00	6	Velocidad del viento	1.6
52910	7	Sololá	717	San Juan la Laguna	12	San Juan la Laguna	5	Mayo	2023-09-05T00:00:00	2024-11-08T23:00:00	7	Dirección del viento	1.61
52911	7	Sololá	717	San Juan la Laguna	12	San Juan la Laguna	5	Mayo	2023-09-05T00:00:00	2024-11-08T23:00:00	1	Precipitación	0
52912	7	Sololá	717	San Juan la Laguna	12	San Juan la Laguna	5	Mayo	2023-09-05T00:00:00	2024-11-08T23:00:00	8	Radiación solar	0
52913	7	Sololá	717	San Juan la Laguna	12	San Juan la Laguna	5	Mayo	2023-10-05T00:00:00	2024-11-08T00:00:00	2	Temperatura media	19.8
52914	7	Sololá	717	San Juan la Laguna	12	San Juan la Laguna	5	Mayo	2023-10-05T00:00:00	2024-11-08T00:00:00	4	Temperatura máxima	19.9
52915	7	Sololá	717	San Juan la Laguna	12	San Juan la Laguna	5	Mayo	2023-10-05T00:00:00	2024-11-08T00:00:00	3	Temperatura mínima	19.8
52916	7	Sololá	717	San Juan la Laguna	12	San Juan la Laguna	5	Mayo	2023-10-05T00:00:00	2024-11-08T00:00:00	5	Humedad	85
52917	7	Sololá	717	San Juan la Laguna	12	San Juan la Laguna	5	Mayo	2023-10-05T00:00:00	2024-11-08T00:00:00	6	Velocidad del viento	3.2
52918	7	Sololá	717	San Juan la Laguna	12	San Juan la Laguna	5	Mayo	2023-10-05T00:00:00	2024-11-08T00:00:00	7	Dirección del viento	3.22
52919	7	Sololá	717	San Juan la Laguna	12	San Juan la Laguna	5	Mayo	2023-10-05T00:00:00	2024-11-08T00:00:00	1	Precipitación	0
52920	7	Sololá	717	San Juan la Laguna	12	San Juan la Laguna	5	Mayo	2023-10-05T00:00:00	2024-11-08T00:00:00	8	Radiación solar	0
52921	7	Sololá	717	San Juan la Laguna	12	San Juan la Laguna	5	Mayo	2023-10-05T00:00:00	2024-11-08T01:00:00	2	Temperatura media	19.8
52922	7	Sololá	717	San Juan la Laguna	12	San Juan la Laguna	5	Mayo	2023-10-05T00:00:00	2024-11-08T01:00:00	4	Temperatura máxima	19.9
52923	7	Sololá	717	San Juan la Laguna	12	San Juan la Laguna	5	Mayo	2023-10-05T00:00:00	2024-11-08T01:00:00	3	Temperatura mínima	19.7
52924	7	Sololá	717	San Juan la Laguna	12	San Juan la Laguna	5	Mayo	2023-10-05T00:00:00	2024-11-08T01:00:00	5	Humedad	85
52925	7	Sololá	717	San Juan la Laguna	12	San Juan la Laguna	5	Mayo	2023-10-05T00:00:00	2024-11-08T01:00:00	6	Velocidad del viento	1.6
52926	7	Sololá	717	San Juan la Laguna	12	San Juan la Laguna	5	Mayo	2023-10-05T00:00:00	2024-11-08T01:00:00	7	Dirección del viento	1.61
52927	7	Sololá	717	San Juan la Laguna	12	San Juan la Laguna	5	Mayo	2023-10-05T00:00:00	2024-11-08T01:00:00	1	Precipitación	0
52928	7	Sololá	717	San Juan la Laguna	12	San Juan la Laguna	5	Mayo	2023-10-05T00:00:00	2024-11-08T01:00:00	8	Radiación solar	0
52929	7	Sololá	717	San Juan la Laguna	12	San Juan la Laguna	5	Mayo	2023-10-05T00:00:00	2024-11-08T02:00:00	2	Temperatura media	19.6
52930	7	Sololá	717	San Juan la Laguna	12	San Juan la Laguna	5	Mayo	2023-10-05T00:00:00	2024-11-08T02:00:00	4	Temperatura máxima	19.9
52931	7	Sololá	717	San Juan la Laguna	12	San Juan la Laguna	5	Mayo	2023-10-05T00:00:00	2024-11-08T02:00:00	3	Temperatura mínima	19.6
52932	7	Sololá	717	San Juan la Laguna	12	San Juan la Laguna	5	Mayo	2023-10-05T00:00:00	2024-11-08T02:00:00	5	Humedad	85
52933	7	Sololá	717	San Juan la Laguna	12	San Juan la Laguna	5	Mayo	2023-10-05T00:00:00	2024-11-08T02:00:00	6	Velocidad del viento	0
52934	7	Sololá	717	San Juan la Laguna	12	San Juan la Laguna	5	Mayo	2023-10-05T00:00:00	2024-11-08T02:00:00	7	Dirección del viento	0
52935	7	Sololá	717	San Juan la Laguna	12	San Juan la Laguna	5	Mayo	2023-10-05T00:00:00	2024-11-08T02:00:00	1	Precipitación	0
52936	7	Sololá	717	San Juan la Laguna	12	San Juan la Laguna	5	Mayo	2023-10-05T00:00:00	2024-11-08T02:00:00	8	Radiación solar	0
52937	7	Sololá	717	San Juan la Laguna	12	San Juan la Laguna	5	Mayo	2023-10-05T00:00:00	2024-11-08T03:00:00	2	Temperatura media	19.2
52938	7	Sololá	717	San Juan la Laguna	12	San Juan la Laguna	5	Mayo	2023-10-05T00:00:00	2024-11-08T03:00:00	4	Temperatura máxima	19.6
52939	7	Sololá	717	San Juan la Laguna	12	San Juan la Laguna	5	Mayo	2023-10-05T00:00:00	2024-11-08T03:00:00	3	Temperatura mínima	19.2
52940	7	Sololá	717	San Juan la Laguna	12	San Juan la Laguna	5	Mayo	2023-10-05T00:00:00	2024-11-08T03:00:00	5	Humedad	85
52941	7	Sololá	717	San Juan la Laguna	12	San Juan la Laguna	5	Mayo	2023-10-05T00:00:00	2024-11-08T03:00:00	6	Velocidad del viento	0
52942	7	Sololá	717	San Juan la Laguna	12	San Juan la Laguna	5	Mayo	2023-10-05T00:00:00	2024-11-08T03:00:00	7	Dirección del viento	0
52943	7	Sololá	717	San Juan la Laguna	12	San Juan la Laguna	5	Mayo	2023-10-05T00:00:00	2024-11-08T03:00:00	1	Precipitación	0
52944	7	Sololá	717	San Juan la Laguna	12	San Juan la Laguna	5	Mayo	2023-10-05T00:00:00	2024-11-08T03:00:00	8	Radiación solar	0
52945	7	Sololá	717	San Juan la Laguna	12	San Juan la Laguna	5	Mayo	2023-10-05T00:00:00	2024-11-08T04:00:00	2	Temperatura media	18
52946	7	Sololá	717	San Juan la Laguna	12	San Juan la Laguna	5	Mayo	2023-10-05T00:00:00	2024-11-08T04:00:00	4	Temperatura máxima	19.2
52947	7	Sololá	717	San Juan la Laguna	12	San Juan la Laguna	5	Mayo	2023-10-05T00:00:00	2024-11-08T04:00:00	3	Temperatura mínima	18
52948	7	Sololá	717	San Juan la Laguna	12	San Juan la Laguna	5	Mayo	2023-10-05T00:00:00	2024-11-08T04:00:00	5	Humedad	87
52949	7	Sololá	717	San Juan la Laguna	12	San Juan la Laguna	5	Mayo	2023-10-05T00:00:00	2024-11-08T04:00:00	6	Velocidad del viento	0
52950	7	Sololá	717	San Juan la Laguna	12	San Juan la Laguna	5	Mayo	2023-10-05T00:00:00	2024-11-08T04:00:00	7	Dirección del viento	0
52951	7	Sololá	717	San Juan la Laguna	12	San Juan la Laguna	5	Mayo	2023-10-05T00:00:00	2024-11-08T04:00:00	1	Precipitación	0
52952	7	Sololá	717	San Juan la Laguna	12	San Juan la Laguna	5	Mayo	2023-10-05T00:00:00	2024-11-08T04:00:00	8	Radiación solar	0
52953	7	Sololá	717	San Juan la Laguna	12	San Juan la Laguna	5	Mayo	2023-10-05T00:00:00	2024-11-08T05:00:00	2	Temperatura media	17.7
52954	7	Sololá	717	San Juan la Laguna	12	San Juan la Laguna	5	Mayo	2023-10-05T00:00:00	2024-11-08T05:00:00	4	Temperatura máxima	18
52955	7	Sololá	717	San Juan la Laguna	12	San Juan la Laguna	5	Mayo	2023-10-05T00:00:00	2024-11-08T05:00:00	3	Temperatura mínima	17.4
52956	7	Sololá	717	San Juan la Laguna	12	San Juan la Laguna	5	Mayo	2023-10-05T00:00:00	2024-11-08T05:00:00	5	Humedad	86
52957	7	Sololá	717	San Juan la Laguna	12	San Juan la Laguna	5	Mayo	2023-10-05T00:00:00	2024-11-08T05:00:00	6	Velocidad del viento	0
52958	7	Sololá	717	San Juan la Laguna	12	San Juan la Laguna	5	Mayo	2023-10-05T00:00:00	2024-11-08T05:00:00	7	Dirección del viento	0
52959	7	Sololá	717	San Juan la Laguna	12	San Juan la Laguna	5	Mayo	2023-10-05T00:00:00	2024-11-08T05:00:00	1	Precipitación	0
52960	7	Sololá	717	San Juan la Laguna	12	San Juan la Laguna	5	Mayo	2023-10-05T00:00:00	2024-11-08T05:00:00	8	Radiación solar	0
52961	7	Sololá	717	San Juan la Laguna	12	San Juan la Laguna	5	Mayo	2023-10-05T00:00:00	2024-11-08T06:00:00	2	Temperatura media	17.9
52962	7	Sololá	717	San Juan la Laguna	12	San Juan la Laguna	5	Mayo	2023-10-05T00:00:00	2024-11-08T06:00:00	4	Temperatura máxima	18.1
52963	7	Sololá	717	San Juan la Laguna	12	San Juan la Laguna	5	Mayo	2023-10-05T00:00:00	2024-11-08T06:00:00	3	Temperatura mínima	17.7
52964	7	Sololá	717	San Juan la Laguna	12	San Juan la Laguna	5	Mayo	2023-10-05T00:00:00	2024-11-08T06:00:00	5	Humedad	86
52965	7	Sololá	717	San Juan la Laguna	12	San Juan la Laguna	5	Mayo	2023-10-05T00:00:00	2024-11-08T06:00:00	6	Velocidad del viento	0
52966	7	Sololá	717	San Juan la Laguna	12	San Juan la Laguna	5	Mayo	2023-10-05T00:00:00	2024-11-08T06:00:00	7	Dirección del viento	0
52967	7	Sololá	717	San Juan la Laguna	12	San Juan la Laguna	5	Mayo	2023-10-05T00:00:00	2024-11-08T06:00:00	1	Precipitación	0
52968	7	Sololá	717	San Juan la Laguna	12	San Juan la Laguna	5	Mayo	2023-10-05T00:00:00	2024-11-08T06:00:00	8	Radiación solar	3
52969	7	Sololá	717	San Juan la Laguna	12	San Juan la Laguna	5	Mayo	2023-10-05T00:00:00	2024-11-08T07:00:00	2	Temperatura media	19
52970	7	Sololá	717	San Juan la Laguna	12	San Juan la Laguna	5	Mayo	2023-10-05T00:00:00	2024-11-08T07:00:00	4	Temperatura máxima	19
52971	7	Sololá	717	San Juan la Laguna	12	San Juan la Laguna	5	Mayo	2023-10-05T00:00:00	2024-11-08T07:00:00	3	Temperatura mínima	17.7
52972	7	Sololá	717	San Juan la Laguna	12	San Juan la Laguna	5	Mayo	2023-10-05T00:00:00	2024-11-08T07:00:00	5	Humedad	83
52973	7	Sololá	717	San Juan la Laguna	12	San Juan la Laguna	5	Mayo	2023-10-05T00:00:00	2024-11-08T07:00:00	6	Velocidad del viento	0
52974	7	Sololá	717	San Juan la Laguna	12	San Juan la Laguna	5	Mayo	2023-10-05T00:00:00	2024-11-08T07:00:00	7	Dirección del viento	0
52975	7	Sololá	717	San Juan la Laguna	12	San Juan la Laguna	5	Mayo	2023-10-05T00:00:00	2024-11-08T07:00:00	1	Precipitación	0
52976	7	Sololá	717	San Juan la Laguna	12	San Juan la Laguna	5	Mayo	2023-10-05T00:00:00	2024-11-08T07:00:00	8	Radiación solar	51
52977	7	Sololá	717	San Juan la Laguna	12	San Juan la Laguna	5	Mayo	2023-10-05T00:00:00	2024-11-08T08:00:00	2	Temperatura media	21.3
52978	7	Sololá	717	San Juan la Laguna	12	San Juan la Laguna	5	Mayo	2023-10-05T00:00:00	2024-11-08T08:00:00	4	Temperatura máxima	21.3
52979	7	Sololá	717	San Juan la Laguna	12	San Juan la Laguna	5	Mayo	2023-10-05T00:00:00	2024-11-08T08:00:00	3	Temperatura mínima	19
52980	7	Sololá	717	San Juan la Laguna	12	San Juan la Laguna	5	Mayo	2023-10-05T00:00:00	2024-11-08T08:00:00	5	Humedad	80
52981	7	Sololá	717	San Juan la Laguna	12	San Juan la Laguna	5	Mayo	2023-10-05T00:00:00	2024-11-08T08:00:00	6	Velocidad del viento	0
52982	7	Sololá	717	San Juan la Laguna	12	San Juan la Laguna	5	Mayo	2023-10-05T00:00:00	2024-11-08T08:00:00	7	Dirección del viento	0
52983	7	Sololá	717	San Juan la Laguna	12	San Juan la Laguna	5	Mayo	2023-10-05T00:00:00	2024-11-08T08:00:00	1	Precipitación	0
52984	7	Sololá	717	San Juan la Laguna	12	San Juan la Laguna	5	Mayo	2023-10-05T00:00:00	2024-11-08T08:00:00	8	Radiación solar	217
52985	7	Sololá	717	San Juan la Laguna	12	San Juan la Laguna	5	Mayo	2023-10-05T00:00:00	2024-11-08T09:00:00	2	Temperatura media	22.6
52986	7	Sololá	717	San Juan la Laguna	12	San Juan la Laguna	5	Mayo	2023-10-05T00:00:00	2024-11-08T09:00:00	4	Temperatura máxima	22.7
52987	7	Sololá	717	San Juan la Laguna	12	San Juan la Laguna	5	Mayo	2023-10-05T00:00:00	2024-11-08T09:00:00	3	Temperatura mínima	21.3
52988	7	Sololá	717	San Juan la Laguna	12	San Juan la Laguna	5	Mayo	2023-10-05T00:00:00	2024-11-08T09:00:00	5	Humedad	73
52989	7	Sololá	717	San Juan la Laguna	12	San Juan la Laguna	5	Mayo	2023-10-05T00:00:00	2024-11-08T09:00:00	6	Velocidad del viento	1.6
52990	7	Sololá	717	San Juan la Laguna	12	San Juan la Laguna	5	Mayo	2023-10-05T00:00:00	2024-11-08T09:00:00	7	Dirección del viento	1.61
52991	7	Sololá	717	San Juan la Laguna	12	San Juan la Laguna	5	Mayo	2023-10-05T00:00:00	2024-11-08T09:00:00	1	Precipitación	0
52992	7	Sololá	717	San Juan la Laguna	12	San Juan la Laguna	5	Mayo	2023-10-05T00:00:00	2024-11-08T09:00:00	8	Radiación solar	577
52993	7	Sololá	717	San Juan la Laguna	12	San Juan la Laguna	5	Mayo	2023-10-05T00:00:00	2024-11-08T10:00:00	2	Temperatura media	23.6
52994	7	Sololá	717	San Juan la Laguna	12	San Juan la Laguna	5	Mayo	2023-10-05T00:00:00	2024-11-08T10:00:00	4	Temperatura máxima	23.8
52995	7	Sololá	717	San Juan la Laguna	12	San Juan la Laguna	5	Mayo	2023-10-05T00:00:00	2024-11-08T10:00:00	3	Temperatura mínima	22.6
52996	7	Sololá	717	San Juan la Laguna	12	San Juan la Laguna	5	Mayo	2023-10-05T00:00:00	2024-11-08T10:00:00	5	Humedad	71
52997	7	Sololá	717	San Juan la Laguna	12	San Juan la Laguna	5	Mayo	2023-10-05T00:00:00	2024-11-08T10:00:00	6	Velocidad del viento	1.6
52998	7	Sololá	717	San Juan la Laguna	12	San Juan la Laguna	5	Mayo	2023-10-05T00:00:00	2024-11-08T10:00:00	7	Dirección del viento	1.61
52999	7	Sololá	717	San Juan la Laguna	12	San Juan la Laguna	5	Mayo	2023-10-05T00:00:00	2024-11-08T10:00:00	1	Precipitación	0
53000	7	Sololá	717	San Juan la Laguna	12	San Juan la Laguna	5	Mayo	2023-10-05T00:00:00	2024-11-08T10:00:00	8	Radiación solar	758
53001	7	Sololá	717	San Juan la Laguna	12	San Juan la Laguna	5	Mayo	2023-10-05T00:00:00	2024-11-08T11:00:00	2	Temperatura media	24.8
53002	7	Sololá	717	San Juan la Laguna	12	San Juan la Laguna	5	Mayo	2023-10-05T00:00:00	2024-11-08T11:00:00	4	Temperatura máxima	24.8
53003	7	Sololá	717	San Juan la Laguna	12	San Juan la Laguna	5	Mayo	2023-10-05T00:00:00	2024-11-08T11:00:00	3	Temperatura mínima	23.4
53004	7	Sololá	717	San Juan la Laguna	12	San Juan la Laguna	5	Mayo	2023-10-05T00:00:00	2024-11-08T11:00:00	5	Humedad	65
53005	7	Sololá	717	San Juan la Laguna	12	San Juan la Laguna	5	Mayo	2023-10-05T00:00:00	2024-11-08T11:00:00	6	Velocidad del viento	3.2
53006	7	Sololá	717	San Juan la Laguna	12	San Juan la Laguna	5	Mayo	2023-10-05T00:00:00	2024-11-08T11:00:00	7	Dirección del viento	3.22
53007	7	Sololá	717	San Juan la Laguna	12	San Juan la Laguna	5	Mayo	2023-10-05T00:00:00	2024-11-08T11:00:00	1	Precipitación	0
53008	7	Sololá	717	San Juan la Laguna	12	San Juan la Laguna	5	Mayo	2023-10-05T00:00:00	2024-11-08T11:00:00	8	Radiación solar	885
53009	7	Sololá	717	San Juan la Laguna	12	San Juan la Laguna	5	Mayo	2023-10-05T00:00:00	2024-11-08T12:00:00	2	Temperatura media	24.2
53010	7	Sololá	717	San Juan la Laguna	12	San Juan la Laguna	5	Mayo	2023-10-05T00:00:00	2024-11-08T12:00:00	4	Temperatura máxima	24.9
53011	7	Sololá	717	San Juan la Laguna	12	San Juan la Laguna	5	Mayo	2023-10-05T00:00:00	2024-11-08T12:00:00	3	Temperatura mínima	23.3
53012	7	Sololá	717	San Juan la Laguna	12	San Juan la Laguna	5	Mayo	2023-10-05T00:00:00	2024-11-08T12:00:00	5	Humedad	67
53013	7	Sololá	717	San Juan la Laguna	12	San Juan la Laguna	5	Mayo	2023-10-05T00:00:00	2024-11-08T12:00:00	6	Velocidad del viento	4.8
53014	7	Sololá	717	San Juan la Laguna	12	San Juan la Laguna	5	Mayo	2023-10-05T00:00:00	2024-11-08T12:00:00	7	Dirección del viento	4.83
53015	7	Sololá	717	San Juan la Laguna	12	San Juan la Laguna	5	Mayo	2023-10-05T00:00:00	2024-11-08T12:00:00	1	Precipitación	0
53016	7	Sololá	717	San Juan la Laguna	12	San Juan la Laguna	5	Mayo	2023-10-05T00:00:00	2024-11-08T12:00:00	8	Radiación solar	547
53017	7	Sololá	717	San Juan la Laguna	12	San Juan la Laguna	5	Mayo	2023-10-05T00:00:00	2024-11-08T13:00:00	2	Temperatura media	21.9
53018	7	Sololá	717	San Juan la Laguna	12	San Juan la Laguna	5	Mayo	2023-10-05T00:00:00	2024-11-08T13:00:00	4	Temperatura máxima	24.2
53019	7	Sololá	717	San Juan la Laguna	12	San Juan la Laguna	5	Mayo	2023-10-05T00:00:00	2024-11-08T13:00:00	3	Temperatura mínima	21.9
53020	7	Sololá	717	San Juan la Laguna	12	San Juan la Laguna	5	Mayo	2023-10-05T00:00:00	2024-11-08T13:00:00	5	Humedad	76
53021	7	Sololá	717	San Juan la Laguna	12	San Juan la Laguna	5	Mayo	2023-10-05T00:00:00	2024-11-08T13:00:00	6	Velocidad del viento	6.4
53022	7	Sololá	717	San Juan la Laguna	12	San Juan la Laguna	5	Mayo	2023-10-05T00:00:00	2024-11-08T13:00:00	7	Dirección del viento	6.44
53023	7	Sololá	717	San Juan la Laguna	12	San Juan la Laguna	5	Mayo	2023-10-05T00:00:00	2024-11-08T13:00:00	1	Precipitación	0
53024	7	Sololá	717	San Juan la Laguna	12	San Juan la Laguna	5	Mayo	2023-10-05T00:00:00	2024-11-08T13:00:00	8	Radiación solar	366
53025	7	Sololá	717	San Juan la Laguna	12	San Juan la Laguna	5	Mayo	2023-10-05T00:00:00	2024-11-08T14:00:00	2	Temperatura media	21.4
53026	7	Sololá	717	San Juan la Laguna	12	San Juan la Laguna	5	Mayo	2023-10-05T00:00:00	2024-11-08T14:00:00	4	Temperatura máxima	22.2
53027	7	Sololá	717	San Juan la Laguna	12	San Juan la Laguna	5	Mayo	2023-10-05T00:00:00	2024-11-08T14:00:00	3	Temperatura mínima	21.2
53028	7	Sololá	717	San Juan la Laguna	12	San Juan la Laguna	5	Mayo	2023-10-05T00:00:00	2024-11-08T14:00:00	5	Humedad	80
53029	7	Sololá	717	San Juan la Laguna	12	San Juan la Laguna	5	Mayo	2023-10-05T00:00:00	2024-11-08T14:00:00	6	Velocidad del viento	6.4
53030	7	Sololá	717	San Juan la Laguna	12	San Juan la Laguna	5	Mayo	2023-10-05T00:00:00	2024-11-08T14:00:00	7	Dirección del viento	6.44
53031	7	Sololá	717	San Juan la Laguna	12	San Juan la Laguna	5	Mayo	2023-10-05T00:00:00	2024-11-08T14:00:00	1	Precipitación	0
53032	7	Sololá	717	San Juan la Laguna	12	San Juan la Laguna	5	Mayo	2023-10-05T00:00:00	2024-11-08T14:00:00	8	Radiación solar	212
53033	7	Sololá	717	San Juan la Laguna	12	San Juan la Laguna	5	Mayo	2023-10-05T00:00:00	2024-11-08T15:00:00	2	Temperatura media	20.8
53034	7	Sololá	717	San Juan la Laguna	12	San Juan la Laguna	5	Mayo	2023-10-05T00:00:00	2024-11-08T15:00:00	4	Temperatura máxima	21.4
53035	7	Sololá	717	San Juan la Laguna	12	San Juan la Laguna	5	Mayo	2023-10-05T00:00:00	2024-11-08T15:00:00	3	Temperatura mínima	20.8
53036	7	Sololá	717	San Juan la Laguna	12	San Juan la Laguna	5	Mayo	2023-10-05T00:00:00	2024-11-08T15:00:00	5	Humedad	80
53037	7	Sololá	717	San Juan la Laguna	12	San Juan la Laguna	5	Mayo	2023-10-05T00:00:00	2024-11-08T15:00:00	6	Velocidad del viento	4.8
53038	7	Sololá	717	San Juan la Laguna	12	San Juan la Laguna	5	Mayo	2023-10-05T00:00:00	2024-11-08T15:00:00	7	Dirección del viento	4.83
53039	7	Sololá	717	San Juan la Laguna	12	San Juan la Laguna	5	Mayo	2023-10-05T00:00:00	2024-11-08T15:00:00	1	Precipitación	0
53040	7	Sololá	717	San Juan la Laguna	12	San Juan la Laguna	5	Mayo	2023-10-05T00:00:00	2024-11-08T15:00:00	8	Radiación solar	113
53041	7	Sololá	717	San Juan la Laguna	12	San Juan la Laguna	5	Mayo	2023-10-05T00:00:00	2024-11-08T16:00:00	2	Temperatura media	20.6
53042	7	Sololá	717	San Juan la Laguna	12	San Juan la Laguna	5	Mayo	2023-10-05T00:00:00	2024-11-08T16:00:00	4	Temperatura máxima	20.8
53043	7	Sololá	717	San Juan la Laguna	12	San Juan la Laguna	5	Mayo	2023-10-05T00:00:00	2024-11-08T16:00:00	3	Temperatura mínima	20.5
53044	7	Sololá	717	San Juan la Laguna	12	San Juan la Laguna	5	Mayo	2023-10-05T00:00:00	2024-11-08T16:00:00	5	Humedad	80
53045	7	Sololá	717	San Juan la Laguna	12	San Juan la Laguna	5	Mayo	2023-10-05T00:00:00	2024-11-08T16:00:00	6	Velocidad del viento	4.8
53046	7	Sololá	717	San Juan la Laguna	12	San Juan la Laguna	5	Mayo	2023-10-05T00:00:00	2024-11-08T16:00:00	7	Dirección del viento	4.83
53047	7	Sololá	717	San Juan la Laguna	12	San Juan la Laguna	5	Mayo	2023-10-05T00:00:00	2024-11-08T16:00:00	1	Precipitación	0
53048	7	Sololá	717	San Juan la Laguna	12	San Juan la Laguna	5	Mayo	2023-10-05T00:00:00	2024-11-08T16:00:00	8	Radiación solar	38
53049	7	Sololá	717	San Juan la Laguna	12	San Juan la Laguna	5	Mayo	2023-10-05T00:00:00	2024-11-08T17:00:00	2	Temperatura media	20.9
53050	7	Sololá	717	San Juan la Laguna	12	San Juan la Laguna	5	Mayo	2023-10-05T00:00:00	2024-11-08T17:00:00	4	Temperatura máxima	21.2
53051	7	Sololá	717	San Juan la Laguna	12	San Juan la Laguna	5	Mayo	2023-10-05T00:00:00	2024-11-08T17:00:00	3	Temperatura mínima	20.6
53052	7	Sololá	717	San Juan la Laguna	12	San Juan la Laguna	5	Mayo	2023-10-05T00:00:00	2024-11-08T17:00:00	5	Humedad	78
53053	7	Sololá	717	San Juan la Laguna	12	San Juan la Laguna	5	Mayo	2023-10-05T00:00:00	2024-11-08T17:00:00	6	Velocidad del viento	1.6
53054	7	Sololá	717	San Juan la Laguna	12	San Juan la Laguna	5	Mayo	2023-10-05T00:00:00	2024-11-08T17:00:00	7	Dirección del viento	1.61
53055	7	Sololá	717	San Juan la Laguna	12	San Juan la Laguna	5	Mayo	2023-10-05T00:00:00	2024-11-08T17:00:00	1	Precipitación	0
53056	7	Sololá	717	San Juan la Laguna	12	San Juan la Laguna	5	Mayo	2023-10-05T00:00:00	2024-11-08T17:00:00	8	Radiación solar	56
53057	7	Sololá	717	San Juan la Laguna	12	San Juan la Laguna	5	Mayo	2023-10-05T00:00:00	2024-11-08T18:00:00	2	Temperatura media	19.4
53058	7	Sololá	717	San Juan la Laguna	12	San Juan la Laguna	5	Mayo	2023-10-05T00:00:00	2024-11-08T18:00:00	4	Temperatura máxima	20.9
53059	7	Sololá	717	San Juan la Laguna	12	San Juan la Laguna	5	Mayo	2023-10-05T00:00:00	2024-11-08T18:00:00	3	Temperatura mínima	19.4
53060	7	Sololá	717	San Juan la Laguna	12	San Juan la Laguna	5	Mayo	2023-10-05T00:00:00	2024-11-08T18:00:00	5	Humedad	86
53061	7	Sololá	717	San Juan la Laguna	12	San Juan la Laguna	5	Mayo	2023-10-05T00:00:00	2024-11-08T18:00:00	6	Velocidad del viento	3.2
53062	7	Sololá	717	San Juan la Laguna	12	San Juan la Laguna	5	Mayo	2023-10-05T00:00:00	2024-11-08T18:00:00	7	Dirección del viento	3.22
53063	7	Sololá	717	San Juan la Laguna	12	San Juan la Laguna	5	Mayo	2023-10-05T00:00:00	2024-11-08T18:00:00	1	Precipitación	0.2
53064	7	Sololá	717	San Juan la Laguna	12	San Juan la Laguna	5	Mayo	2023-10-05T00:00:00	2024-11-08T18:00:00	8	Radiación solar	24
53065	7	Sololá	717	San Juan la Laguna	12	San Juan la Laguna	5	Mayo	2023-10-05T00:00:00	2024-11-08T19:00:00	2	Temperatura media	18.8
53066	7	Sololá	717	San Juan la Laguna	12	San Juan la Laguna	5	Mayo	2023-10-05T00:00:00	2024-11-08T19:00:00	4	Temperatura máxima	19.4
53067	7	Sololá	717	San Juan la Laguna	12	San Juan la Laguna	5	Mayo	2023-10-05T00:00:00	2024-11-08T19:00:00	3	Temperatura mínima	18.8
53068	7	Sololá	717	San Juan la Laguna	12	San Juan la Laguna	5	Mayo	2023-10-05T00:00:00	2024-11-08T19:00:00	5	Humedad	87
53069	7	Sololá	717	San Juan la Laguna	12	San Juan la Laguna	5	Mayo	2023-10-05T00:00:00	2024-11-08T19:00:00	6	Velocidad del viento	4.8
53070	7	Sololá	717	San Juan la Laguna	12	San Juan la Laguna	5	Mayo	2023-10-05T00:00:00	2024-11-08T19:00:00	7	Dirección del viento	4.83
53071	7	Sololá	717	San Juan la Laguna	12	San Juan la Laguna	5	Mayo	2023-10-05T00:00:00	2024-11-08T19:00:00	1	Precipitación	1.4
53072	7	Sololá	717	San Juan la Laguna	12	San Juan la Laguna	5	Mayo	2023-10-05T00:00:00	2024-11-08T19:00:00	8	Radiación solar	0
53073	7	Sololá	717	San Juan la Laguna	12	San Juan la Laguna	5	Mayo	2023-10-05T00:00:00	2024-11-08T20:00:00	2	Temperatura media	14.8
53074	7	Sololá	717	San Juan la Laguna	12	San Juan la Laguna	5	Mayo	2023-10-05T00:00:00	2024-11-08T20:00:00	4	Temperatura máxima	18.8
53075	7	Sololá	717	San Juan la Laguna	12	San Juan la Laguna	5	Mayo	2023-10-05T00:00:00	2024-11-08T20:00:00	3	Temperatura mínima	14.7
53076	7	Sololá	717	San Juan la Laguna	12	San Juan la Laguna	5	Mayo	2023-10-05T00:00:00	2024-11-08T20:00:00	5	Humedad	92
53077	7	Sololá	717	San Juan la Laguna	12	San Juan la Laguna	5	Mayo	2023-10-05T00:00:00	2024-11-08T20:00:00	6	Velocidad del viento	4.8
53078	7	Sololá	717	San Juan la Laguna	12	San Juan la Laguna	5	Mayo	2023-10-05T00:00:00	2024-11-08T20:00:00	7	Dirección del viento	4.83
53079	7	Sololá	717	San Juan la Laguna	12	San Juan la Laguna	5	Mayo	2023-10-05T00:00:00	2024-11-08T20:00:00	1	Precipitación	39.6
53080	7	Sololá	717	San Juan la Laguna	12	San Juan la Laguna	5	Mayo	2023-10-05T00:00:00	2024-11-08T20:00:00	8	Radiación solar	0
53081	7	Sololá	717	San Juan la Laguna	12	San Juan la Laguna	5	Mayo	2023-10-05T00:00:00	2024-11-08T21:00:00	2	Temperatura media	14.5
53082	7	Sololá	717	San Juan la Laguna	12	San Juan la Laguna	5	Mayo	2023-10-05T00:00:00	2024-11-08T21:00:00	4	Temperatura máxima	14.8
53083	7	Sololá	717	San Juan la Laguna	12	San Juan la Laguna	5	Mayo	2023-10-05T00:00:00	2024-11-08T21:00:00	3	Temperatura mínima	14.5
53084	7	Sololá	717	San Juan la Laguna	12	San Juan la Laguna	5	Mayo	2023-10-05T00:00:00	2024-11-08T21:00:00	5	Humedad	93
53085	7	Sololá	717	San Juan la Laguna	12	San Juan la Laguna	5	Mayo	2023-10-05T00:00:00	2024-11-08T21:00:00	6	Velocidad del viento	1.6
53086	7	Sololá	717	San Juan la Laguna	12	San Juan la Laguna	5	Mayo	2023-10-05T00:00:00	2024-11-08T21:00:00	7	Dirección del viento	1.61
53087	7	Sololá	717	San Juan la Laguna	12	San Juan la Laguna	5	Mayo	2023-10-05T00:00:00	2024-11-08T21:00:00	1	Precipitación	4
53088	7	Sololá	717	San Juan la Laguna	12	San Juan la Laguna	5	Mayo	2023-10-05T00:00:00	2024-11-08T21:00:00	8	Radiación solar	0
53089	7	Sololá	717	San Juan la Laguna	12	San Juan la Laguna	5	Mayo	2023-10-05T00:00:00	2024-11-08T22:00:00	2	Temperatura media	14.6
53090	7	Sololá	717	San Juan la Laguna	12	San Juan la Laguna	5	Mayo	2023-10-05T00:00:00	2024-11-08T22:00:00	4	Temperatura máxima	14.6
53091	7	Sololá	717	San Juan la Laguna	12	San Juan la Laguna	5	Mayo	2023-10-05T00:00:00	2024-11-08T22:00:00	3	Temperatura mínima	14.4
53092	7	Sololá	717	San Juan la Laguna	12	San Juan la Laguna	5	Mayo	2023-10-05T00:00:00	2024-11-08T22:00:00	5	Humedad	93
53093	7	Sololá	717	San Juan la Laguna	12	San Juan la Laguna	5	Mayo	2023-10-05T00:00:00	2024-11-08T22:00:00	6	Velocidad del viento	1.6
53094	7	Sololá	717	San Juan la Laguna	12	San Juan la Laguna	5	Mayo	2023-10-05T00:00:00	2024-11-08T22:00:00	7	Dirección del viento	1.61
53095	7	Sololá	717	San Juan la Laguna	12	San Juan la Laguna	5	Mayo	2023-10-05T00:00:00	2024-11-08T22:00:00	1	Precipitación	0
53096	7	Sololá	717	San Juan la Laguna	12	San Juan la Laguna	5	Mayo	2023-10-05T00:00:00	2024-11-08T22:00:00	8	Radiación solar	0
53097	7	Sololá	717	San Juan la Laguna	12	San Juan la Laguna	5	Mayo	2023-10-05T00:00:00	2024-11-08T23:00:00	2	Temperatura media	14.8
53098	7	Sololá	717	San Juan la Laguna	12	San Juan la Laguna	5	Mayo	2023-10-05T00:00:00	2024-11-08T23:00:00	4	Temperatura máxima	15.2
53099	7	Sololá	717	San Juan la Laguna	12	San Juan la Laguna	5	Mayo	2023-10-05T00:00:00	2024-11-08T23:00:00	3	Temperatura mínima	14.2
53100	7	Sololá	717	San Juan la Laguna	12	San Juan la Laguna	5	Mayo	2023-10-05T00:00:00	2024-11-08T23:00:00	5	Humedad	87
53101	7	Sololá	717	San Juan la Laguna	12	San Juan la Laguna	5	Mayo	2023-10-05T00:00:00	2024-11-08T23:00:00	6	Velocidad del viento	4.8
53102	7	Sololá	717	San Juan la Laguna	12	San Juan la Laguna	5	Mayo	2023-10-05T00:00:00	2024-11-08T23:00:00	7	Dirección del viento	4.83
53103	7	Sololá	717	San Juan la Laguna	12	San Juan la Laguna	5	Mayo	2023-10-05T00:00:00	2024-11-08T23:00:00	1	Precipitación	0
53104	7	Sololá	717	San Juan la Laguna	12	San Juan la Laguna	5	Mayo	2023-10-05T00:00:00	2024-11-08T23:00:00	8	Radiación solar	0
53105	7	Sololá	717	San Juan la Laguna	12	San Juan la Laguna	5	Mayo	2023-11-05T00:00:00	2024-11-08T00:00:00	2	Temperatura media	14
53106	7	Sololá	717	San Juan la Laguna	12	San Juan la Laguna	5	Mayo	2023-11-05T00:00:00	2024-11-08T00:00:00	4	Temperatura máxima	14.8
53107	7	Sololá	717	San Juan la Laguna	12	San Juan la Laguna	5	Mayo	2023-11-05T00:00:00	2024-11-08T00:00:00	3	Temperatura mínima	13.6
53108	7	Sololá	717	San Juan la Laguna	12	San Juan la Laguna	5	Mayo	2023-11-05T00:00:00	2024-11-08T00:00:00	5	Humedad	91
53109	7	Sololá	717	San Juan la Laguna	12	San Juan la Laguna	5	Mayo	2023-11-05T00:00:00	2024-11-08T00:00:00	6	Velocidad del viento	3.2
53110	7	Sololá	717	San Juan la Laguna	12	San Juan la Laguna	5	Mayo	2023-11-05T00:00:00	2024-11-08T00:00:00	7	Dirección del viento	3.22
53111	7	Sololá	717	San Juan la Laguna	12	San Juan la Laguna	5	Mayo	2023-11-05T00:00:00	2024-11-08T00:00:00	1	Precipitación	0
53112	7	Sololá	717	San Juan la Laguna	12	San Juan la Laguna	5	Mayo	2023-11-05T00:00:00	2024-11-08T00:00:00	8	Radiación solar	0
53113	7	Sololá	717	San Juan la Laguna	12	San Juan la Laguna	5	Mayo	2023-11-05T00:00:00	2024-11-08T01:00:00	2	Temperatura media	14.5
53114	7	Sololá	717	San Juan la Laguna	12	San Juan la Laguna	5	Mayo	2023-11-05T00:00:00	2024-11-08T01:00:00	4	Temperatura máxima	14.5
53115	7	Sololá	717	San Juan la Laguna	12	San Juan la Laguna	5	Mayo	2023-11-05T00:00:00	2024-11-08T01:00:00	3	Temperatura mínima	14
53116	7	Sololá	717	San Juan la Laguna	12	San Juan la Laguna	5	Mayo	2023-11-05T00:00:00	2024-11-08T01:00:00	5	Humedad	89
53117	7	Sololá	717	San Juan la Laguna	12	San Juan la Laguna	5	Mayo	2023-11-05T00:00:00	2024-11-08T01:00:00	6	Velocidad del viento	4.8
53118	7	Sololá	717	San Juan la Laguna	12	San Juan la Laguna	5	Mayo	2023-11-05T00:00:00	2024-11-08T01:00:00	7	Dirección del viento	4.83
53119	7	Sololá	717	San Juan la Laguna	12	San Juan la Laguna	5	Mayo	2023-11-05T00:00:00	2024-11-08T01:00:00	1	Precipitación	0
53120	7	Sololá	717	San Juan la Laguna	12	San Juan la Laguna	5	Mayo	2023-11-05T00:00:00	2024-11-08T01:00:00	8	Radiación solar	0
53121	7	Sololá	717	San Juan la Laguna	12	San Juan la Laguna	5	Mayo	2023-11-05T00:00:00	2024-11-08T02:00:00	2	Temperatura media	14.5
53122	7	Sololá	717	San Juan la Laguna	12	San Juan la Laguna	5	Mayo	2023-11-05T00:00:00	2024-11-08T02:00:00	4	Temperatura máxima	14.7
53123	7	Sololá	717	San Juan la Laguna	12	San Juan la Laguna	5	Mayo	2023-11-05T00:00:00	2024-11-08T02:00:00	3	Temperatura mínima	14.3
53124	7	Sololá	717	San Juan la Laguna	12	San Juan la Laguna	5	Mayo	2023-11-05T00:00:00	2024-11-08T02:00:00	5	Humedad	88
53125	7	Sololá	717	San Juan la Laguna	12	San Juan la Laguna	5	Mayo	2023-11-05T00:00:00	2024-11-08T02:00:00	6	Velocidad del viento	4.8
53126	7	Sololá	717	San Juan la Laguna	12	San Juan la Laguna	5	Mayo	2023-11-05T00:00:00	2024-11-08T02:00:00	7	Dirección del viento	4.83
53127	7	Sololá	717	San Juan la Laguna	12	San Juan la Laguna	5	Mayo	2023-11-05T00:00:00	2024-11-08T02:00:00	1	Precipitación	0
53128	7	Sololá	717	San Juan la Laguna	12	San Juan la Laguna	5	Mayo	2023-11-05T00:00:00	2024-11-08T02:00:00	8	Radiación solar	0
53129	7	Sololá	717	San Juan la Laguna	12	San Juan la Laguna	5	Mayo	2023-11-05T00:00:00	2024-11-08T03:00:00	2	Temperatura media	14.2
53130	7	Sololá	717	San Juan la Laguna	12	San Juan la Laguna	5	Mayo	2023-11-05T00:00:00	2024-11-08T03:00:00	4	Temperatura máxima	14.5
53131	7	Sololá	717	San Juan la Laguna	12	San Juan la Laguna	5	Mayo	2023-11-05T00:00:00	2024-11-08T03:00:00	3	Temperatura mínima	13.9
53132	7	Sololá	717	San Juan la Laguna	12	San Juan la Laguna	5	Mayo	2023-11-05T00:00:00	2024-11-08T03:00:00	5	Humedad	87
53133	7	Sololá	717	San Juan la Laguna	12	San Juan la Laguna	5	Mayo	2023-11-05T00:00:00	2024-11-08T03:00:00	6	Velocidad del viento	3.2
53134	7	Sololá	717	San Juan la Laguna	12	San Juan la Laguna	5	Mayo	2023-11-05T00:00:00	2024-11-08T03:00:00	7	Dirección del viento	3.22
53135	7	Sololá	717	San Juan la Laguna	12	San Juan la Laguna	5	Mayo	2023-11-05T00:00:00	2024-11-08T03:00:00	1	Precipitación	0
53136	7	Sololá	717	San Juan la Laguna	12	San Juan la Laguna	5	Mayo	2023-11-05T00:00:00	2024-11-08T03:00:00	8	Radiación solar	0
53137	7	Sololá	717	San Juan la Laguna	12	San Juan la Laguna	5	Mayo	2023-11-05T00:00:00	2024-11-08T04:00:00	2	Temperatura media	14.3
53138	7	Sololá	717	San Juan la Laguna	12	San Juan la Laguna	5	Mayo	2023-11-05T00:00:00	2024-11-08T04:00:00	4	Temperatura máxima	14.4
53139	7	Sololá	717	San Juan la Laguna	12	San Juan la Laguna	5	Mayo	2023-11-05T00:00:00	2024-11-08T04:00:00	3	Temperatura mínima	13.8
53140	7	Sololá	717	San Juan la Laguna	12	San Juan la Laguna	5	Mayo	2023-11-05T00:00:00	2024-11-08T04:00:00	5	Humedad	86
53141	7	Sololá	717	San Juan la Laguna	12	San Juan la Laguna	5	Mayo	2023-11-05T00:00:00	2024-11-08T04:00:00	6	Velocidad del viento	3.2
53142	7	Sololá	717	San Juan la Laguna	12	San Juan la Laguna	5	Mayo	2023-11-05T00:00:00	2024-11-08T04:00:00	7	Dirección del viento	3.22
53143	7	Sololá	717	San Juan la Laguna	12	San Juan la Laguna	5	Mayo	2023-11-05T00:00:00	2024-11-08T04:00:00	1	Precipitación	0
53144	7	Sololá	717	San Juan la Laguna	12	San Juan la Laguna	5	Mayo	2023-11-05T00:00:00	2024-11-08T04:00:00	8	Radiación solar	0
53145	7	Sololá	717	San Juan la Laguna	12	San Juan la Laguna	5	Mayo	2023-11-05T00:00:00	2024-11-08T05:00:00	2	Temperatura media	13.7
53146	7	Sololá	717	San Juan la Laguna	12	San Juan la Laguna	5	Mayo	2023-11-05T00:00:00	2024-11-08T05:00:00	4	Temperatura máxima	14.3
53147	7	Sololá	717	San Juan la Laguna	12	San Juan la Laguna	5	Mayo	2023-11-05T00:00:00	2024-11-08T05:00:00	3	Temperatura mínima	13.7
53148	7	Sololá	717	San Juan la Laguna	12	San Juan la Laguna	5	Mayo	2023-11-05T00:00:00	2024-11-08T05:00:00	5	Humedad	88
53149	7	Sololá	717	San Juan la Laguna	12	San Juan la Laguna	5	Mayo	2023-11-05T00:00:00	2024-11-08T05:00:00	6	Velocidad del viento	1.6
53150	7	Sololá	717	San Juan la Laguna	12	San Juan la Laguna	5	Mayo	2023-11-05T00:00:00	2024-11-08T05:00:00	7	Dirección del viento	1.61
53151	7	Sololá	717	San Juan la Laguna	12	San Juan la Laguna	5	Mayo	2023-11-05T00:00:00	2024-11-08T05:00:00	1	Precipitación	0
53152	7	Sololá	717	San Juan la Laguna	12	San Juan la Laguna	5	Mayo	2023-11-05T00:00:00	2024-11-08T05:00:00	8	Radiación solar	0
53153	7	Sololá	717	San Juan la Laguna	12	San Juan la Laguna	5	Mayo	2023-11-05T00:00:00	2024-11-08T06:00:00	2	Temperatura media	13.8
53154	7	Sololá	717	San Juan la Laguna	12	San Juan la Laguna	5	Mayo	2023-11-05T00:00:00	2024-11-08T06:00:00	4	Temperatura máxima	13.9
53155	7	Sololá	717	San Juan la Laguna	12	San Juan la Laguna	5	Mayo	2023-11-05T00:00:00	2024-11-08T06:00:00	3	Temperatura mínima	13.6
53156	7	Sololá	717	San Juan la Laguna	12	San Juan la Laguna	5	Mayo	2023-11-05T00:00:00	2024-11-08T06:00:00	5	Humedad	86
53157	7	Sololá	717	San Juan la Laguna	12	San Juan la Laguna	5	Mayo	2023-11-05T00:00:00	2024-11-08T06:00:00	6	Velocidad del viento	4.8
53158	7	Sololá	717	San Juan la Laguna	12	San Juan la Laguna	5	Mayo	2023-11-05T00:00:00	2024-11-08T06:00:00	7	Dirección del viento	4.83
53159	7	Sololá	717	San Juan la Laguna	12	San Juan la Laguna	5	Mayo	2023-11-05T00:00:00	2024-11-08T06:00:00	1	Precipitación	0
53160	7	Sololá	717	San Juan la Laguna	12	San Juan la Laguna	5	Mayo	2023-11-05T00:00:00	2024-11-08T06:00:00	8	Radiación solar	4
53161	7	Sololá	717	San Juan la Laguna	12	San Juan la Laguna	5	Mayo	2023-11-05T00:00:00	2024-11-08T07:00:00	2	Temperatura media	15.9
53162	7	Sololá	717	San Juan la Laguna	12	San Juan la Laguna	5	Mayo	2023-11-05T00:00:00	2024-11-08T07:00:00	4	Temperatura máxima	15.9
53163	7	Sololá	717	San Juan la Laguna	12	San Juan la Laguna	5	Mayo	2023-11-05T00:00:00	2024-11-08T07:00:00	3	Temperatura mínima	13.8
53164	7	Sololá	717	San Juan la Laguna	12	San Juan la Laguna	5	Mayo	2023-11-05T00:00:00	2024-11-08T07:00:00	5	Humedad	84
53165	7	Sololá	717	San Juan la Laguna	12	San Juan la Laguna	5	Mayo	2023-11-05T00:00:00	2024-11-08T07:00:00	6	Velocidad del viento	1.6
53166	7	Sololá	717	San Juan la Laguna	12	San Juan la Laguna	5	Mayo	2023-11-05T00:00:00	2024-11-08T07:00:00	7	Dirección del viento	1.61
53167	7	Sololá	717	San Juan la Laguna	12	San Juan la Laguna	5	Mayo	2023-11-05T00:00:00	2024-11-08T07:00:00	1	Precipitación	0
53168	7	Sololá	717	San Juan la Laguna	12	San Juan la Laguna	5	Mayo	2023-11-05T00:00:00	2024-11-08T07:00:00	8	Radiación solar	110
53169	7	Sololá	717	San Juan la Laguna	12	San Juan la Laguna	5	Mayo	2023-11-05T00:00:00	2024-11-08T08:00:00	2	Temperatura media	20.2
53170	7	Sololá	717	San Juan la Laguna	12	San Juan la Laguna	5	Mayo	2023-11-05T00:00:00	2024-11-08T08:00:00	4	Temperatura máxima	20.2
53171	7	Sololá	717	San Juan la Laguna	12	San Juan la Laguna	5	Mayo	2023-11-05T00:00:00	2024-11-08T08:00:00	3	Temperatura mínima	16
53172	7	Sololá	717	San Juan la Laguna	12	San Juan la Laguna	5	Mayo	2023-11-05T00:00:00	2024-11-08T08:00:00	5	Humedad	73
53173	7	Sololá	717	San Juan la Laguna	12	San Juan la Laguna	5	Mayo	2023-11-05T00:00:00	2024-11-08T08:00:00	6	Velocidad del viento	0
53174	7	Sololá	717	San Juan la Laguna	12	San Juan la Laguna	5	Mayo	2023-11-05T00:00:00	2024-11-08T08:00:00	7	Dirección del viento	0
53175	7	Sololá	717	San Juan la Laguna	12	San Juan la Laguna	5	Mayo	2023-11-05T00:00:00	2024-11-08T08:00:00	1	Precipitación	0
53176	7	Sololá	717	San Juan la Laguna	12	San Juan la Laguna	5	Mayo	2023-11-05T00:00:00	2024-11-08T08:00:00	8	Radiación solar	313
53177	7	Sololá	717	San Juan la Laguna	12	San Juan la Laguna	5	Mayo	2023-11-05T00:00:00	2024-11-08T09:00:00	2	Temperatura media	20.6
53178	7	Sololá	717	San Juan la Laguna	12	San Juan la Laguna	5	Mayo	2023-11-05T00:00:00	2024-11-08T09:00:00	4	Temperatura máxima	20.7
53179	7	Sololá	717	San Juan la Laguna	12	San Juan la Laguna	5	Mayo	2023-11-05T00:00:00	2024-11-08T09:00:00	3	Temperatura mínima	19.9
53180	7	Sololá	717	San Juan la Laguna	12	San Juan la Laguna	5	Mayo	2023-11-05T00:00:00	2024-11-08T09:00:00	5	Humedad	74
53181	7	Sololá	717	San Juan la Laguna	12	San Juan la Laguna	5	Mayo	2023-11-05T00:00:00	2024-11-08T09:00:00	6	Velocidad del viento	1.6
53182	7	Sololá	717	San Juan la Laguna	12	San Juan la Laguna	5	Mayo	2023-11-05T00:00:00	2024-11-08T09:00:00	7	Dirección del viento	1.61
53183	7	Sololá	717	San Juan la Laguna	12	San Juan la Laguna	5	Mayo	2023-11-05T00:00:00	2024-11-08T09:00:00	1	Precipitación	0
53184	7	Sololá	717	San Juan la Laguna	12	San Juan la Laguna	5	Mayo	2023-11-05T00:00:00	2024-11-08T09:00:00	8	Radiación solar	534
53185	7	Sololá	717	San Juan la Laguna	12	San Juan la Laguna	5	Mayo	2023-11-05T00:00:00	2024-11-08T10:00:00	2	Temperatura media	22
53186	7	Sololá	717	San Juan la Laguna	12	San Juan la Laguna	5	Mayo	2023-11-05T00:00:00	2024-11-08T10:00:00	4	Temperatura máxima	22.3
53187	7	Sololá	717	San Juan la Laguna	12	San Juan la Laguna	5	Mayo	2023-11-05T00:00:00	2024-11-08T10:00:00	3	Temperatura mínima	20.6
53188	7	Sololá	717	San Juan la Laguna	12	San Juan la Laguna	5	Mayo	2023-11-05T00:00:00	2024-11-08T10:00:00	5	Humedad	67
53189	7	Sololá	717	San Juan la Laguna	12	San Juan la Laguna	5	Mayo	2023-11-05T00:00:00	2024-11-08T10:00:00	6	Velocidad del viento	1.6
53190	7	Sololá	717	San Juan la Laguna	12	San Juan la Laguna	5	Mayo	2023-11-05T00:00:00	2024-11-08T10:00:00	7	Dirección del viento	1.61
53191	7	Sololá	717	San Juan la Laguna	12	San Juan la Laguna	5	Mayo	2023-11-05T00:00:00	2024-11-08T10:00:00	1	Precipitación	0
53192	7	Sololá	717	San Juan la Laguna	12	San Juan la Laguna	5	Mayo	2023-11-05T00:00:00	2024-11-08T10:00:00	8	Radiación solar	706
53193	7	Sololá	717	San Juan la Laguna	12	San Juan la Laguna	5	Mayo	2023-11-05T00:00:00	2024-11-08T11:00:00	2	Temperatura media	23.3
53194	7	Sololá	717	San Juan la Laguna	12	San Juan la Laguna	5	Mayo	2023-11-05T00:00:00	2024-11-08T11:00:00	4	Temperatura máxima	23.3
53195	7	Sololá	717	San Juan la Laguna	12	San Juan la Laguna	5	Mayo	2023-11-05T00:00:00	2024-11-08T11:00:00	3	Temperatura mínima	22
53196	7	Sololá	717	San Juan la Laguna	12	San Juan la Laguna	5	Mayo	2023-11-05T00:00:00	2024-11-08T11:00:00	5	Humedad	64
53197	7	Sololá	717	San Juan la Laguna	12	San Juan la Laguna	5	Mayo	2023-11-05T00:00:00	2024-11-08T11:00:00	6	Velocidad del viento	1.6
53198	7	Sololá	717	San Juan la Laguna	12	San Juan la Laguna	5	Mayo	2023-11-05T00:00:00	2024-11-08T11:00:00	7	Dirección del viento	1.61
53199	7	Sololá	717	San Juan la Laguna	12	San Juan la Laguna	5	Mayo	2023-11-05T00:00:00	2024-11-08T11:00:00	1	Precipitación	0
53200	7	Sololá	717	San Juan la Laguna	12	San Juan la Laguna	5	Mayo	2023-11-05T00:00:00	2024-11-08T11:00:00	8	Radiación solar	857
53201	7	Sololá	717	San Juan la Laguna	12	San Juan la Laguna	5	Mayo	2023-11-05T00:00:00	2024-11-08T12:00:00	2	Temperatura media	23.9
53202	7	Sololá	717	San Juan la Laguna	12	San Juan la Laguna	5	Mayo	2023-11-05T00:00:00	2024-11-08T12:00:00	4	Temperatura máxima	23.9
53203	7	Sololá	717	San Juan la Laguna	12	San Juan la Laguna	5	Mayo	2023-11-05T00:00:00	2024-11-08T12:00:00	3	Temperatura mínima	23
53204	7	Sololá	717	San Juan la Laguna	12	San Juan la Laguna	5	Mayo	2023-11-05T00:00:00	2024-11-08T12:00:00	5	Humedad	66
53205	7	Sololá	717	San Juan la Laguna	12	San Juan la Laguna	5	Mayo	2023-11-05T00:00:00	2024-11-08T12:00:00	6	Velocidad del viento	3.2
53206	7	Sololá	717	San Juan la Laguna	12	San Juan la Laguna	5	Mayo	2023-11-05T00:00:00	2024-11-08T12:00:00	7	Dirección del viento	3.22
53207	7	Sololá	717	San Juan la Laguna	12	San Juan la Laguna	5	Mayo	2023-11-05T00:00:00	2024-11-08T12:00:00	1	Precipitación	0
53208	7	Sololá	717	San Juan la Laguna	12	San Juan la Laguna	5	Mayo	2023-11-05T00:00:00	2024-11-08T12:00:00	8	Radiación solar	976
53209	7	Sololá	717	San Juan la Laguna	12	San Juan la Laguna	5	Mayo	2023-11-05T00:00:00	2024-11-08T13:00:00	2	Temperatura media	22.7
53210	7	Sololá	717	San Juan la Laguna	12	San Juan la Laguna	5	Mayo	2023-11-05T00:00:00	2024-11-08T13:00:00	4	Temperatura máxima	24.1
53211	7	Sololá	717	San Juan la Laguna	12	San Juan la Laguna	5	Mayo	2023-11-05T00:00:00	2024-11-08T13:00:00	3	Temperatura mínima	22.6
53212	7	Sololá	717	San Juan la Laguna	12	San Juan la Laguna	5	Mayo	2023-11-05T00:00:00	2024-11-08T13:00:00	5	Humedad	68
53213	7	Sololá	717	San Juan la Laguna	12	San Juan la Laguna	5	Mayo	2023-11-05T00:00:00	2024-11-08T13:00:00	6	Velocidad del viento	3.2
53214	7	Sololá	717	San Juan la Laguna	12	San Juan la Laguna	5	Mayo	2023-11-05T00:00:00	2024-11-08T13:00:00	7	Dirección del viento	3.22
53215	7	Sololá	717	San Juan la Laguna	12	San Juan la Laguna	5	Mayo	2023-11-05T00:00:00	2024-11-08T13:00:00	1	Precipitación	0
53216	7	Sololá	717	San Juan la Laguna	12	San Juan la Laguna	5	Mayo	2023-11-05T00:00:00	2024-11-08T13:00:00	8	Radiación solar	347
53217	7	Sololá	717	San Juan la Laguna	12	San Juan la Laguna	5	Mayo	2023-11-05T00:00:00	2024-11-08T14:00:00	2	Temperatura media	23.8
53218	7	Sololá	717	San Juan la Laguna	12	San Juan la Laguna	5	Mayo	2023-11-05T00:00:00	2024-11-08T14:00:00	4	Temperatura máxima	24.3
53219	7	Sololá	717	San Juan la Laguna	12	San Juan la Laguna	5	Mayo	2023-11-05T00:00:00	2024-11-08T14:00:00	3	Temperatura mínima	22.7
53220	7	Sololá	717	San Juan la Laguna	12	San Juan la Laguna	5	Mayo	2023-11-05T00:00:00	2024-11-08T14:00:00	5	Humedad	66
53221	7	Sololá	717	San Juan la Laguna	12	San Juan la Laguna	5	Mayo	2023-11-05T00:00:00	2024-11-08T14:00:00	6	Velocidad del viento	6.4
53222	7	Sololá	717	San Juan la Laguna	12	San Juan la Laguna	5	Mayo	2023-11-05T00:00:00	2024-11-08T14:00:00	7	Dirección del viento	6.44
53223	7	Sololá	717	San Juan la Laguna	12	San Juan la Laguna	5	Mayo	2023-11-05T00:00:00	2024-11-08T14:00:00	1	Precipitación	0
53224	7	Sololá	717	San Juan la Laguna	12	San Juan la Laguna	5	Mayo	2023-11-05T00:00:00	2024-11-08T14:00:00	8	Radiación solar	820
53225	7	Sololá	717	San Juan la Laguna	12	San Juan la Laguna	5	Mayo	2023-11-05T00:00:00	2024-11-08T15:00:00	2	Temperatura media	20.9
53226	7	Sololá	717	San Juan la Laguna	12	San Juan la Laguna	5	Mayo	2023-11-05T00:00:00	2024-11-08T15:00:00	4	Temperatura máxima	23.8
53227	7	Sololá	717	San Juan la Laguna	12	San Juan la Laguna	5	Mayo	2023-11-05T00:00:00	2024-11-08T15:00:00	3	Temperatura mínima	20.9
53228	7	Sololá	717	San Juan la Laguna	12	San Juan la Laguna	5	Mayo	2023-11-05T00:00:00	2024-11-08T15:00:00	5	Humedad	79
53229	7	Sololá	717	San Juan la Laguna	12	San Juan la Laguna	5	Mayo	2023-11-05T00:00:00	2024-11-08T15:00:00	6	Velocidad del viento	4.8
53230	7	Sololá	717	San Juan la Laguna	12	San Juan la Laguna	5	Mayo	2023-11-05T00:00:00	2024-11-08T15:00:00	7	Dirección del viento	4.83
53231	7	Sololá	717	San Juan la Laguna	12	San Juan la Laguna	5	Mayo	2023-11-05T00:00:00	2024-11-08T15:00:00	1	Precipitación	0
53232	7	Sololá	717	San Juan la Laguna	12	San Juan la Laguna	5	Mayo	2023-11-05T00:00:00	2024-11-08T15:00:00	8	Radiación solar	344
53233	7	Sololá	717	San Juan la Laguna	12	San Juan la Laguna	5	Mayo	2023-11-05T00:00:00	2024-11-08T16:00:00	2	Temperatura media	19.6
53234	7	Sololá	717	San Juan la Laguna	12	San Juan la Laguna	5	Mayo	2023-11-05T00:00:00	2024-11-08T16:00:00	4	Temperatura máxima	20.9
53235	7	Sololá	717	San Juan la Laguna	12	San Juan la Laguna	5	Mayo	2023-11-05T00:00:00	2024-11-08T16:00:00	3	Temperatura mínima	19.3
53236	7	Sololá	717	San Juan la Laguna	12	San Juan la Laguna	5	Mayo	2023-11-05T00:00:00	2024-11-08T16:00:00	5	Humedad	86
53237	7	Sololá	717	San Juan la Laguna	12	San Juan la Laguna	5	Mayo	2023-11-05T00:00:00	2024-11-08T16:00:00	6	Velocidad del viento	3.2
53238	7	Sololá	717	San Juan la Laguna	12	San Juan la Laguna	5	Mayo	2023-11-05T00:00:00	2024-11-08T16:00:00	7	Dirección del viento	3.22
53239	7	Sololá	717	San Juan la Laguna	12	San Juan la Laguna	5	Mayo	2023-11-05T00:00:00	2024-11-08T16:00:00	1	Precipitación	2
53240	7	Sololá	717	San Juan la Laguna	12	San Juan la Laguna	5	Mayo	2023-11-05T00:00:00	2024-11-08T16:00:00	8	Radiación solar	122
53241	7	Sololá	717	San Juan la Laguna	12	San Juan la Laguna	5	Mayo	2023-11-05T00:00:00	2024-11-08T17:00:00	2	Temperatura media	20.2
53242	7	Sololá	717	San Juan la Laguna	12	San Juan la Laguna	5	Mayo	2023-11-05T00:00:00	2024-11-08T17:00:00	4	Temperatura máxima	20.2
53243	7	Sololá	717	San Juan la Laguna	12	San Juan la Laguna	5	Mayo	2023-11-05T00:00:00	2024-11-08T17:00:00	3	Temperatura mínima	19.6
53244	7	Sololá	717	San Juan la Laguna	12	San Juan la Laguna	5	Mayo	2023-11-05T00:00:00	2024-11-08T17:00:00	5	Humedad	81
53245	7	Sololá	717	San Juan la Laguna	12	San Juan la Laguna	5	Mayo	2023-11-05T00:00:00	2024-11-08T17:00:00	6	Velocidad del viento	3.2
53246	7	Sololá	717	San Juan la Laguna	12	San Juan la Laguna	5	Mayo	2023-11-05T00:00:00	2024-11-08T17:00:00	7	Dirección del viento	3.22
53247	7	Sololá	717	San Juan la Laguna	12	San Juan la Laguna	5	Mayo	2023-11-05T00:00:00	2024-11-08T17:00:00	1	Precipitación	0
53248	7	Sololá	717	San Juan la Laguna	12	San Juan la Laguna	5	Mayo	2023-11-05T00:00:00	2024-11-08T17:00:00	8	Radiación solar	125
53249	7	Sololá	717	San Juan la Laguna	12	San Juan la Laguna	5	Mayo	2023-11-05T00:00:00	2024-11-08T18:00:00	2	Temperatura media	19.6
53250	7	Sololá	717	San Juan la Laguna	12	San Juan la Laguna	5	Mayo	2023-11-05T00:00:00	2024-11-08T18:00:00	4	Temperatura máxima	20.2
53251	7	Sololá	717	San Juan la Laguna	12	San Juan la Laguna	5	Mayo	2023-11-05T00:00:00	2024-11-08T18:00:00	3	Temperatura mínima	19.6
53252	7	Sololá	717	San Juan la Laguna	12	San Juan la Laguna	5	Mayo	2023-11-05T00:00:00	2024-11-08T18:00:00	5	Humedad	81
53253	7	Sololá	717	San Juan la Laguna	12	San Juan la Laguna	5	Mayo	2023-11-05T00:00:00	2024-11-08T18:00:00	6	Velocidad del viento	3.2
53254	7	Sololá	717	San Juan la Laguna	12	San Juan la Laguna	5	Mayo	2023-11-05T00:00:00	2024-11-08T18:00:00	7	Dirección del viento	3.22
53255	7	Sololá	717	San Juan la Laguna	12	San Juan la Laguna	5	Mayo	2023-11-05T00:00:00	2024-11-08T18:00:00	1	Precipitación	0
53256	7	Sololá	717	San Juan la Laguna	12	San Juan la Laguna	5	Mayo	2023-11-05T00:00:00	2024-11-08T18:00:00	8	Radiación solar	56
53257	7	Sololá	717	San Juan la Laguna	12	San Juan la Laguna	5	Mayo	2023-11-05T00:00:00	2024-11-08T19:00:00	2	Temperatura media	17.7
53258	7	Sololá	717	San Juan la Laguna	12	San Juan la Laguna	5	Mayo	2023-11-05T00:00:00	2024-11-08T19:00:00	4	Temperatura máxima	19.6
53259	7	Sololá	717	San Juan la Laguna	12	San Juan la Laguna	5	Mayo	2023-11-05T00:00:00	2024-11-08T19:00:00	3	Temperatura mínima	17.7
53260	7	Sololá	717	San Juan la Laguna	12	San Juan la Laguna	5	Mayo	2023-11-05T00:00:00	2024-11-08T19:00:00	5	Humedad	88
53261	7	Sololá	717	San Juan la Laguna	12	San Juan la Laguna	5	Mayo	2023-11-05T00:00:00	2024-11-08T19:00:00	6	Velocidad del viento	1.6
53262	7	Sololá	717	San Juan la Laguna	12	San Juan la Laguna	5	Mayo	2023-11-05T00:00:00	2024-11-08T19:00:00	7	Dirección del viento	1.61
53263	7	Sololá	717	San Juan la Laguna	12	San Juan la Laguna	5	Mayo	2023-11-05T00:00:00	2024-11-08T19:00:00	1	Precipitación	0
53264	7	Sololá	717	San Juan la Laguna	12	San Juan la Laguna	5	Mayo	2023-11-05T00:00:00	2024-11-08T19:00:00	8	Radiación solar	0
53265	7	Sololá	717	San Juan la Laguna	12	San Juan la Laguna	5	Mayo	2023-11-05T00:00:00	2024-11-08T20:00:00	2	Temperatura media	18.1
53266	7	Sololá	717	San Juan la Laguna	12	San Juan la Laguna	5	Mayo	2023-11-05T00:00:00	2024-11-08T20:00:00	4	Temperatura máxima	18.1
53267	7	Sololá	717	San Juan la Laguna	12	San Juan la Laguna	5	Mayo	2023-11-05T00:00:00	2024-11-08T20:00:00	3	Temperatura mínima	17.7
53268	7	Sololá	717	San Juan la Laguna	12	San Juan la Laguna	5	Mayo	2023-11-05T00:00:00	2024-11-08T20:00:00	5	Humedad	85
53269	7	Sololá	717	San Juan la Laguna	12	San Juan la Laguna	5	Mayo	2023-11-05T00:00:00	2024-11-08T20:00:00	6	Velocidad del viento	3.2
53270	7	Sololá	717	San Juan la Laguna	12	San Juan la Laguna	5	Mayo	2023-11-05T00:00:00	2024-11-08T20:00:00	7	Dirección del viento	3.22
53271	7	Sololá	717	San Juan la Laguna	12	San Juan la Laguna	5	Mayo	2023-11-05T00:00:00	2024-11-08T20:00:00	1	Precipitación	0
53272	7	Sololá	717	San Juan la Laguna	12	San Juan la Laguna	5	Mayo	2023-11-05T00:00:00	2024-11-08T20:00:00	8	Radiación solar	0
53273	7	Sololá	717	San Juan la Laguna	12	San Juan la Laguna	5	Mayo	2023-11-05T00:00:00	2024-11-08T21:00:00	2	Temperatura media	18.2
53274	7	Sololá	717	San Juan la Laguna	12	San Juan la Laguna	5	Mayo	2023-11-05T00:00:00	2024-11-08T21:00:00	4	Temperatura máxima	18.3
53275	7	Sololá	717	San Juan la Laguna	12	San Juan la Laguna	5	Mayo	2023-11-05T00:00:00	2024-11-08T21:00:00	3	Temperatura mínima	17.7
53276	7	Sololá	717	San Juan la Laguna	12	San Juan la Laguna	5	Mayo	2023-11-05T00:00:00	2024-11-08T21:00:00	5	Humedad	83
53277	7	Sololá	717	San Juan la Laguna	12	San Juan la Laguna	5	Mayo	2023-11-05T00:00:00	2024-11-08T21:00:00	6	Velocidad del viento	1.6
53278	7	Sololá	717	San Juan la Laguna	12	San Juan la Laguna	5	Mayo	2023-11-05T00:00:00	2024-11-08T21:00:00	7	Dirección del viento	1.61
53279	7	Sololá	717	San Juan la Laguna	12	San Juan la Laguna	5	Mayo	2023-11-05T00:00:00	2024-11-08T21:00:00	1	Precipitación	0
53280	7	Sololá	717	San Juan la Laguna	12	San Juan la Laguna	5	Mayo	2023-11-05T00:00:00	2024-11-08T21:00:00	8	Radiación solar	0
53281	7	Sololá	717	San Juan la Laguna	12	San Juan la Laguna	5	Mayo	2023-11-05T00:00:00	2024-11-08T22:00:00	2	Temperatura media	17.8
53282	7	Sololá	717	San Juan la Laguna	12	San Juan la Laguna	5	Mayo	2023-11-05T00:00:00	2024-11-08T22:00:00	4	Temperatura máxima	18.2
53283	7	Sololá	717	San Juan la Laguna	12	San Juan la Laguna	5	Mayo	2023-11-05T00:00:00	2024-11-08T22:00:00	3	Temperatura mínima	17.8
53284	7	Sololá	717	San Juan la Laguna	12	San Juan la Laguna	5	Mayo	2023-11-05T00:00:00	2024-11-08T22:00:00	5	Humedad	85
53285	7	Sololá	717	San Juan la Laguna	12	San Juan la Laguna	5	Mayo	2023-11-05T00:00:00	2024-11-08T22:00:00	6	Velocidad del viento	3.2
53286	7	Sololá	717	San Juan la Laguna	12	San Juan la Laguna	5	Mayo	2023-11-05T00:00:00	2024-11-08T22:00:00	7	Dirección del viento	3.22
53287	7	Sololá	717	San Juan la Laguna	12	San Juan la Laguna	5	Mayo	2023-11-05T00:00:00	2024-11-08T22:00:00	1	Precipitación	0
53288	7	Sololá	717	San Juan la Laguna	12	San Juan la Laguna	5	Mayo	2023-11-05T00:00:00	2024-11-08T22:00:00	8	Radiación solar	0
53289	7	Sololá	717	San Juan la Laguna	12	San Juan la Laguna	5	Mayo	2023-11-05T00:00:00	2024-11-08T23:00:00	2	Temperatura media	17.9
53290	7	Sololá	717	San Juan la Laguna	12	San Juan la Laguna	5	Mayo	2023-11-05T00:00:00	2024-11-08T23:00:00	4	Temperatura máxima	18.3
53291	7	Sololá	717	San Juan la Laguna	12	San Juan la Laguna	5	Mayo	2023-11-05T00:00:00	2024-11-08T23:00:00	3	Temperatura mínima	17.8
53292	7	Sololá	717	San Juan la Laguna	12	San Juan la Laguna	5	Mayo	2023-11-05T00:00:00	2024-11-08T23:00:00	5	Humedad	86
53293	7	Sololá	717	San Juan la Laguna	12	San Juan la Laguna	5	Mayo	2023-11-05T00:00:00	2024-11-08T23:00:00	6	Velocidad del viento	1.6
53294	7	Sololá	717	San Juan la Laguna	12	San Juan la Laguna	5	Mayo	2023-11-05T00:00:00	2024-11-08T23:00:00	7	Dirección del viento	1.61
53295	7	Sololá	717	San Juan la Laguna	12	San Juan la Laguna	5	Mayo	2023-11-05T00:00:00	2024-11-08T23:00:00	1	Precipitación	0
53296	7	Sololá	717	San Juan la Laguna	12	San Juan la Laguna	5	Mayo	2023-11-05T00:00:00	2024-11-08T23:00:00	8	Radiación solar	0
53297	7	Sololá	717	San Juan la Laguna	12	San Juan la Laguna	5	Mayo	2023-12-05T00:00:00	2024-11-08T00:00:00	2	Temperatura media	17.6
53298	7	Sololá	717	San Juan la Laguna	12	San Juan la Laguna	5	Mayo	2023-12-05T00:00:00	2024-11-08T00:00:00	4	Temperatura máxima	17.9
53299	7	Sololá	717	San Juan la Laguna	12	San Juan la Laguna	5	Mayo	2023-12-05T00:00:00	2024-11-08T00:00:00	3	Temperatura mínima	17.4
53300	7	Sololá	717	San Juan la Laguna	12	San Juan la Laguna	5	Mayo	2023-12-05T00:00:00	2024-11-08T00:00:00	5	Humedad	87
53301	7	Sololá	717	San Juan la Laguna	12	San Juan la Laguna	5	Mayo	2023-12-05T00:00:00	2024-11-08T00:00:00	6	Velocidad del viento	1.6
53302	7	Sololá	717	San Juan la Laguna	12	San Juan la Laguna	5	Mayo	2023-12-05T00:00:00	2024-11-08T00:00:00	7	Dirección del viento	1.61
53303	7	Sololá	717	San Juan la Laguna	12	San Juan la Laguna	5	Mayo	2023-12-05T00:00:00	2024-11-08T00:00:00	1	Precipitación	0
53304	7	Sololá	717	San Juan la Laguna	12	San Juan la Laguna	5	Mayo	2023-12-05T00:00:00	2024-11-08T00:00:00	8	Radiación solar	0
53305	7	Sololá	717	San Juan la Laguna	12	San Juan la Laguna	5	Mayo	2023-12-05T00:00:00	2024-11-08T01:00:00	2	Temperatura media	17.7
53306	7	Sololá	717	San Juan la Laguna	12	San Juan la Laguna	5	Mayo	2023-12-05T00:00:00	2024-11-08T01:00:00	4	Temperatura máxima	18
53307	7	Sololá	717	San Juan la Laguna	12	San Juan la Laguna	5	Mayo	2023-12-05T00:00:00	2024-11-08T01:00:00	3	Temperatura mínima	17.4
53308	7	Sololá	717	San Juan la Laguna	12	San Juan la Laguna	5	Mayo	2023-12-05T00:00:00	2024-11-08T01:00:00	5	Humedad	85
53309	7	Sololá	717	San Juan la Laguna	12	San Juan la Laguna	5	Mayo	2023-12-05T00:00:00	2024-11-08T01:00:00	6	Velocidad del viento	4.8
53310	7	Sololá	717	San Juan la Laguna	12	San Juan la Laguna	5	Mayo	2023-12-05T00:00:00	2024-11-08T01:00:00	7	Dirección del viento	4.83
53311	7	Sololá	717	San Juan la Laguna	12	San Juan la Laguna	5	Mayo	2023-12-05T00:00:00	2024-11-08T01:00:00	1	Precipitación	0
53312	7	Sololá	717	San Juan la Laguna	12	San Juan la Laguna	5	Mayo	2023-12-05T00:00:00	2024-11-08T01:00:00	8	Radiación solar	0
53313	7	Sololá	717	San Juan la Laguna	12	San Juan la Laguna	5	Mayo	2023-12-05T00:00:00	2024-11-08T02:00:00	2	Temperatura media	16.2
53314	7	Sololá	717	San Juan la Laguna	12	San Juan la Laguna	5	Mayo	2023-12-05T00:00:00	2024-11-08T02:00:00	4	Temperatura máxima	18
53315	7	Sololá	717	San Juan la Laguna	12	San Juan la Laguna	5	Mayo	2023-12-05T00:00:00	2024-11-08T02:00:00	3	Temperatura mínima	16.2
53316	7	Sololá	717	San Juan la Laguna	12	San Juan la Laguna	5	Mayo	2023-12-05T00:00:00	2024-11-08T02:00:00	5	Humedad	88
53317	7	Sololá	717	San Juan la Laguna	12	San Juan la Laguna	5	Mayo	2023-12-05T00:00:00	2024-11-08T02:00:00	6	Velocidad del viento	1.6
53318	7	Sololá	717	San Juan la Laguna	12	San Juan la Laguna	5	Mayo	2023-12-05T00:00:00	2024-11-08T02:00:00	7	Dirección del viento	1.61
53319	7	Sololá	717	San Juan la Laguna	12	San Juan la Laguna	5	Mayo	2023-12-05T00:00:00	2024-11-08T02:00:00	1	Precipitación	0
53320	7	Sololá	717	San Juan la Laguna	12	San Juan la Laguna	5	Mayo	2023-12-05T00:00:00	2024-11-08T02:00:00	8	Radiación solar	0
53321	7	Sololá	717	San Juan la Laguna	12	San Juan la Laguna	5	Mayo	2023-12-05T00:00:00	2024-11-08T03:00:00	2	Temperatura media	16.8
53322	7	Sololá	717	San Juan la Laguna	12	San Juan la Laguna	5	Mayo	2023-12-05T00:00:00	2024-11-08T03:00:00	4	Temperatura máxima	16.8
53323	7	Sololá	717	San Juan la Laguna	12	San Juan la Laguna	5	Mayo	2023-12-05T00:00:00	2024-11-08T03:00:00	3	Temperatura mínima	16
53324	7	Sololá	717	San Juan la Laguna	12	San Juan la Laguna	5	Mayo	2023-12-05T00:00:00	2024-11-08T03:00:00	5	Humedad	87
53325	7	Sololá	717	San Juan la Laguna	12	San Juan la Laguna	5	Mayo	2023-12-05T00:00:00	2024-11-08T03:00:00	6	Velocidad del viento	3.2
53326	7	Sololá	717	San Juan la Laguna	12	San Juan la Laguna	5	Mayo	2023-12-05T00:00:00	2024-11-08T03:00:00	7	Dirección del viento	3.22
53327	7	Sololá	717	San Juan la Laguna	12	San Juan la Laguna	5	Mayo	2023-12-05T00:00:00	2024-11-08T03:00:00	1	Precipitación	0
53328	7	Sololá	717	San Juan la Laguna	12	San Juan la Laguna	5	Mayo	2023-12-05T00:00:00	2024-11-08T03:00:00	8	Radiación solar	0
53329	7	Sololá	717	San Juan la Laguna	12	San Juan la Laguna	5	Mayo	2023-12-05T00:00:00	2024-11-08T04:00:00	2	Temperatura media	16.4
53330	7	Sololá	717	San Juan la Laguna	12	San Juan la Laguna	5	Mayo	2023-12-05T00:00:00	2024-11-08T04:00:00	4	Temperatura máxima	16.8
53331	7	Sololá	717	San Juan la Laguna	12	San Juan la Laguna	5	Mayo	2023-12-05T00:00:00	2024-11-08T04:00:00	3	Temperatura mínima	16.3
53332	7	Sololá	717	San Juan la Laguna	12	San Juan la Laguna	5	Mayo	2023-12-05T00:00:00	2024-11-08T04:00:00	5	Humedad	89
53333	7	Sololá	717	San Juan la Laguna	12	San Juan la Laguna	5	Mayo	2023-12-05T00:00:00	2024-11-08T04:00:00	6	Velocidad del viento	3.2
53334	7	Sololá	717	San Juan la Laguna	12	San Juan la Laguna	5	Mayo	2023-12-05T00:00:00	2024-11-08T04:00:00	7	Dirección del viento	3.22
53335	7	Sololá	717	San Juan la Laguna	12	San Juan la Laguna	5	Mayo	2023-12-05T00:00:00	2024-11-08T04:00:00	1	Precipitación	0
53336	7	Sololá	717	San Juan la Laguna	12	San Juan la Laguna	5	Mayo	2023-12-05T00:00:00	2024-11-08T04:00:00	8	Radiación solar	0
53337	7	Sololá	717	San Juan la Laguna	12	San Juan la Laguna	5	Mayo	2023-12-05T00:00:00	2024-11-08T05:00:00	2	Temperatura media	16.1
53338	7	Sololá	717	San Juan la Laguna	12	San Juan la Laguna	5	Mayo	2023-12-05T00:00:00	2024-11-08T05:00:00	4	Temperatura máxima	16.4
53339	7	Sololá	717	San Juan la Laguna	12	San Juan la Laguna	5	Mayo	2023-12-05T00:00:00	2024-11-08T05:00:00	3	Temperatura mínima	16
53340	7	Sololá	717	San Juan la Laguna	12	San Juan la Laguna	5	Mayo	2023-12-05T00:00:00	2024-11-08T05:00:00	5	Humedad	88
53341	7	Sololá	717	San Juan la Laguna	12	San Juan la Laguna	5	Mayo	2023-12-05T00:00:00	2024-11-08T05:00:00	6	Velocidad del viento	3.2
53342	7	Sololá	717	San Juan la Laguna	12	San Juan la Laguna	5	Mayo	2023-12-05T00:00:00	2024-11-08T05:00:00	7	Dirección del viento	3.22
53343	7	Sololá	717	San Juan la Laguna	12	San Juan la Laguna	5	Mayo	2023-12-05T00:00:00	2024-11-08T05:00:00	1	Precipitación	0
53344	7	Sololá	717	San Juan la Laguna	12	San Juan la Laguna	5	Mayo	2023-12-05T00:00:00	2024-11-08T05:00:00	8	Radiación solar	0
53345	7	Sololá	717	San Juan la Laguna	12	San Juan la Laguna	5	Mayo	2023-12-05T00:00:00	2024-11-08T06:00:00	2	Temperatura media	16
53346	7	Sololá	717	San Juan la Laguna	12	San Juan la Laguna	5	Mayo	2023-12-05T00:00:00	2024-11-08T06:00:00	4	Temperatura máxima	16.1
53347	7	Sololá	717	San Juan la Laguna	12	San Juan la Laguna	5	Mayo	2023-12-05T00:00:00	2024-11-08T06:00:00	3	Temperatura mínima	15.7
53348	7	Sololá	717	San Juan la Laguna	12	San Juan la Laguna	5	Mayo	2023-12-05T00:00:00	2024-11-08T06:00:00	5	Humedad	88
53349	7	Sololá	717	San Juan la Laguna	12	San Juan la Laguna	5	Mayo	2023-12-05T00:00:00	2024-11-08T06:00:00	6	Velocidad del viento	3.2
53350	7	Sololá	717	San Juan la Laguna	12	San Juan la Laguna	5	Mayo	2023-12-05T00:00:00	2024-11-08T06:00:00	7	Dirección del viento	3.22
53351	7	Sololá	717	San Juan la Laguna	12	San Juan la Laguna	5	Mayo	2023-12-05T00:00:00	2024-11-08T06:00:00	1	Precipitación	0
53352	7	Sololá	717	San Juan la Laguna	12	San Juan la Laguna	5	Mayo	2023-12-05T00:00:00	2024-11-08T06:00:00	8	Radiación solar	5
53353	7	Sololá	717	San Juan la Laguna	12	San Juan la Laguna	5	Mayo	2023-12-05T00:00:00	2024-11-08T07:00:00	2	Temperatura media	17.5
53354	7	Sololá	717	San Juan la Laguna	12	San Juan la Laguna	5	Mayo	2023-12-05T00:00:00	2024-11-08T07:00:00	4	Temperatura máxima	17.5
53355	7	Sololá	717	San Juan la Laguna	12	San Juan la Laguna	5	Mayo	2023-12-05T00:00:00	2024-11-08T07:00:00	3	Temperatura mínima	15.9
53356	7	Sololá	717	San Juan la Laguna	12	San Juan la Laguna	5	Mayo	2023-12-05T00:00:00	2024-11-08T07:00:00	5	Humedad	86
53357	7	Sololá	717	San Juan la Laguna	12	San Juan la Laguna	5	Mayo	2023-12-05T00:00:00	2024-11-08T07:00:00	6	Velocidad del viento	3.2
53358	7	Sololá	717	San Juan la Laguna	12	San Juan la Laguna	5	Mayo	2023-12-05T00:00:00	2024-11-08T07:00:00	7	Dirección del viento	3.22
53359	7	Sololá	717	San Juan la Laguna	12	San Juan la Laguna	5	Mayo	2023-12-05T00:00:00	2024-11-08T07:00:00	1	Precipitación	0
53360	7	Sololá	717	San Juan la Laguna	12	San Juan la Laguna	5	Mayo	2023-12-05T00:00:00	2024-11-08T07:00:00	8	Radiación solar	92
53361	7	Sololá	717	San Juan la Laguna	12	San Juan la Laguna	5	Mayo	2023-12-05T00:00:00	2024-11-08T08:00:00	2	Temperatura media	20
53362	7	Sololá	717	San Juan la Laguna	12	San Juan la Laguna	5	Mayo	2023-12-05T00:00:00	2024-11-08T08:00:00	4	Temperatura máxima	20.1
53363	7	Sololá	717	San Juan la Laguna	12	San Juan la Laguna	5	Mayo	2023-12-05T00:00:00	2024-11-08T08:00:00	3	Temperatura mínima	17.5
53364	7	Sololá	717	San Juan la Laguna	12	San Juan la Laguna	5	Mayo	2023-12-05T00:00:00	2024-11-08T08:00:00	5	Humedad	79
53365	7	Sololá	717	San Juan la Laguna	12	San Juan la Laguna	5	Mayo	2023-12-05T00:00:00	2024-11-08T08:00:00	6	Velocidad del viento	1.6
53366	7	Sololá	717	San Juan la Laguna	12	San Juan la Laguna	5	Mayo	2023-12-05T00:00:00	2024-11-08T08:00:00	7	Dirección del viento	1.61
53367	7	Sololá	717	San Juan la Laguna	12	San Juan la Laguna	5	Mayo	2023-12-05T00:00:00	2024-11-08T08:00:00	1	Precipitación	0
53368	7	Sololá	717	San Juan la Laguna	12	San Juan la Laguna	5	Mayo	2023-12-05T00:00:00	2024-11-08T08:00:00	8	Radiación solar	232
53369	7	Sololá	717	San Juan la Laguna	12	San Juan la Laguna	5	Mayo	2023-12-05T00:00:00	2024-11-08T09:00:00	2	Temperatura media	20.8
53370	7	Sololá	717	San Juan la Laguna	12	San Juan la Laguna	5	Mayo	2023-12-05T00:00:00	2024-11-08T09:00:00	4	Temperatura máxima	20.8
53371	7	Sololá	717	San Juan la Laguna	12	San Juan la Laguna	5	Mayo	2023-12-05T00:00:00	2024-11-08T09:00:00	3	Temperatura mínima	19.7
53372	7	Sololá	717	San Juan la Laguna	12	San Juan la Laguna	5	Mayo	2023-12-05T00:00:00	2024-11-08T09:00:00	5	Humedad	76
53373	7	Sololá	717	San Juan la Laguna	12	San Juan la Laguna	5	Mayo	2023-12-05T00:00:00	2024-11-08T09:00:00	6	Velocidad del viento	1.6
53374	7	Sololá	717	San Juan la Laguna	12	San Juan la Laguna	5	Mayo	2023-12-05T00:00:00	2024-11-08T09:00:00	7	Dirección del viento	1.61
53375	7	Sololá	717	San Juan la Laguna	12	San Juan la Laguna	5	Mayo	2023-12-05T00:00:00	2024-11-08T09:00:00	1	Precipitación	0
53376	7	Sololá	717	San Juan la Laguna	12	San Juan la Laguna	5	Mayo	2023-12-05T00:00:00	2024-11-08T09:00:00	8	Radiación solar	310
53377	7	Sololá	717	San Juan la Laguna	12	San Juan la Laguna	5	Mayo	2023-12-05T00:00:00	2024-11-08T10:00:00	2	Temperatura media	22.7
53378	7	Sololá	717	San Juan la Laguna	12	San Juan la Laguna	5	Mayo	2023-12-05T00:00:00	2024-11-08T10:00:00	4	Temperatura máxima	23.3
53379	7	Sololá	717	San Juan la Laguna	12	San Juan la Laguna	5	Mayo	2023-12-05T00:00:00	2024-11-08T10:00:00	3	Temperatura mínima	20.8
53380	7	Sololá	717	San Juan la Laguna	12	San Juan la Laguna	5	Mayo	2023-12-05T00:00:00	2024-11-08T10:00:00	5	Humedad	68
53381	7	Sololá	717	San Juan la Laguna	12	San Juan la Laguna	5	Mayo	2023-12-05T00:00:00	2024-11-08T10:00:00	6	Velocidad del viento	1.6
53382	7	Sololá	717	San Juan la Laguna	12	San Juan la Laguna	5	Mayo	2023-12-05T00:00:00	2024-11-08T10:00:00	7	Dirección del viento	1.61
53383	7	Sololá	717	San Juan la Laguna	12	San Juan la Laguna	5	Mayo	2023-12-05T00:00:00	2024-11-08T10:00:00	1	Precipitación	0
53384	7	Sololá	717	San Juan la Laguna	12	San Juan la Laguna	5	Mayo	2023-12-05T00:00:00	2024-11-08T10:00:00	8	Radiación solar	681
53385	7	Sololá	717	San Juan la Laguna	12	San Juan la Laguna	5	Mayo	2023-12-05T00:00:00	2024-11-08T11:00:00	2	Temperatura media	23.4
53386	7	Sololá	717	San Juan la Laguna	12	San Juan la Laguna	5	Mayo	2023-12-05T00:00:00	2024-11-08T11:00:00	4	Temperatura máxima	23.4
53387	7	Sololá	717	San Juan la Laguna	12	San Juan la Laguna	5	Mayo	2023-12-05T00:00:00	2024-11-08T11:00:00	3	Temperatura mínima	22.6
53388	7	Sololá	717	San Juan la Laguna	12	San Juan la Laguna	5	Mayo	2023-12-05T00:00:00	2024-11-08T11:00:00	5	Humedad	66
53389	7	Sololá	717	San Juan la Laguna	12	San Juan la Laguna	5	Mayo	2023-12-05T00:00:00	2024-11-08T11:00:00	6	Velocidad del viento	3.2
53390	7	Sololá	717	San Juan la Laguna	12	San Juan la Laguna	5	Mayo	2023-12-05T00:00:00	2024-11-08T11:00:00	7	Dirección del viento	3.22
53391	7	Sololá	717	San Juan la Laguna	12	San Juan la Laguna	5	Mayo	2023-12-05T00:00:00	2024-11-08T11:00:00	1	Precipitación	0
53392	7	Sololá	717	San Juan la Laguna	12	San Juan la Laguna	5	Mayo	2023-12-05T00:00:00	2024-11-08T11:00:00	8	Radiación solar	866
53393	7	Sololá	717	San Juan la Laguna	12	San Juan la Laguna	5	Mayo	2023-12-05T00:00:00	2024-11-08T12:00:00	2	Temperatura media	24.1
53394	7	Sololá	717	San Juan la Laguna	12	San Juan la Laguna	5	Mayo	2023-12-05T00:00:00	2024-11-08T12:00:00	4	Temperatura máxima	24.3
53395	7	Sololá	717	San Juan la Laguna	12	San Juan la Laguna	5	Mayo	2023-12-05T00:00:00	2024-11-08T12:00:00	3	Temperatura mínima	23.4
53396	7	Sololá	717	San Juan la Laguna	12	San Juan la Laguna	5	Mayo	2023-12-05T00:00:00	2024-11-08T12:00:00	5	Humedad	68
53397	7	Sololá	717	San Juan la Laguna	12	San Juan la Laguna	5	Mayo	2023-12-05T00:00:00	2024-11-08T12:00:00	6	Velocidad del viento	3.2
53398	7	Sololá	717	San Juan la Laguna	12	San Juan la Laguna	5	Mayo	2023-12-05T00:00:00	2024-11-08T12:00:00	7	Dirección del viento	3.22
53399	7	Sololá	717	San Juan la Laguna	12	San Juan la Laguna	5	Mayo	2023-12-05T00:00:00	2024-11-08T12:00:00	1	Precipitación	0
53400	7	Sololá	717	San Juan la Laguna	12	San Juan la Laguna	5	Mayo	2023-12-05T00:00:00	2024-11-08T12:00:00	8	Radiación solar	901
53401	7	Sololá	717	San Juan la Laguna	12	San Juan la Laguna	5	Mayo	2023-12-05T00:00:00	2024-11-08T13:00:00	2	Temperatura media	23.1
53402	7	Sololá	717	San Juan la Laguna	12	San Juan la Laguna	5	Mayo	2023-12-05T00:00:00	2024-11-08T13:00:00	4	Temperatura máxima	24.6
53403	7	Sololá	717	San Juan la Laguna	12	San Juan la Laguna	5	Mayo	2023-12-05T00:00:00	2024-11-08T13:00:00	3	Temperatura mínima	23.1
53404	7	Sololá	717	San Juan la Laguna	12	San Juan la Laguna	5	Mayo	2023-12-05T00:00:00	2024-11-08T13:00:00	5	Humedad	73
53405	7	Sololá	717	San Juan la Laguna	12	San Juan la Laguna	5	Mayo	2023-12-05T00:00:00	2024-11-08T13:00:00	6	Velocidad del viento	4.8
53406	7	Sololá	717	San Juan la Laguna	12	San Juan la Laguna	5	Mayo	2023-12-05T00:00:00	2024-11-08T13:00:00	7	Dirección del viento	4.83
53407	7	Sololá	717	San Juan la Laguna	12	San Juan la Laguna	5	Mayo	2023-12-05T00:00:00	2024-11-08T13:00:00	1	Precipitación	0
53408	7	Sololá	717	San Juan la Laguna	12	San Juan la Laguna	5	Mayo	2023-12-05T00:00:00	2024-11-08T13:00:00	8	Radiación solar	856
53409	7	Sololá	717	San Juan la Laguna	12	San Juan la Laguna	5	Mayo	2023-12-05T00:00:00	2024-11-08T14:00:00	2	Temperatura media	22.9
53410	7	Sololá	717	San Juan la Laguna	12	San Juan la Laguna	5	Mayo	2023-12-05T00:00:00	2024-11-08T14:00:00	4	Temperatura máxima	24.5
53411	7	Sololá	717	San Juan la Laguna	12	San Juan la Laguna	5	Mayo	2023-12-05T00:00:00	2024-11-08T14:00:00	3	Temperatura mínima	22.5
53412	7	Sololá	717	San Juan la Laguna	12	San Juan la Laguna	5	Mayo	2023-12-05T00:00:00	2024-11-08T14:00:00	5	Humedad	74
53413	7	Sololá	717	San Juan la Laguna	12	San Juan la Laguna	5	Mayo	2023-12-05T00:00:00	2024-11-08T14:00:00	6	Velocidad del viento	4.8
53414	7	Sololá	717	San Juan la Laguna	12	San Juan la Laguna	5	Mayo	2023-12-05T00:00:00	2024-11-08T14:00:00	7	Dirección del viento	4.83
53415	7	Sololá	717	San Juan la Laguna	12	San Juan la Laguna	5	Mayo	2023-12-05T00:00:00	2024-11-08T14:00:00	1	Precipitación	0
53416	7	Sololá	717	San Juan la Laguna	12	San Juan la Laguna	5	Mayo	2023-12-05T00:00:00	2024-11-08T14:00:00	8	Radiación solar	486
53417	7	Sololá	717	San Juan la Laguna	12	San Juan la Laguna	5	Mayo	2023-12-05T00:00:00	2024-11-08T15:00:00	2	Temperatura media	21.3
53418	7	Sololá	717	San Juan la Laguna	12	San Juan la Laguna	5	Mayo	2023-12-05T00:00:00	2024-11-08T15:00:00	4	Temperatura máxima	23.5
53419	7	Sololá	717	San Juan la Laguna	12	San Juan la Laguna	5	Mayo	2023-12-05T00:00:00	2024-11-08T15:00:00	3	Temperatura mínima	21.3
53420	7	Sololá	717	San Juan la Laguna	12	San Juan la Laguna	5	Mayo	2023-12-05T00:00:00	2024-11-08T15:00:00	5	Humedad	80
53421	7	Sololá	717	San Juan la Laguna	12	San Juan la Laguna	5	Mayo	2023-12-05T00:00:00	2024-11-08T15:00:00	6	Velocidad del viento	4.8
53422	7	Sololá	717	San Juan la Laguna	12	San Juan la Laguna	5	Mayo	2023-12-05T00:00:00	2024-11-08T15:00:00	7	Dirección del viento	4.83
53423	7	Sololá	717	San Juan la Laguna	12	San Juan la Laguna	5	Mayo	2023-12-05T00:00:00	2024-11-08T15:00:00	1	Precipitación	0
53424	7	Sololá	717	San Juan la Laguna	12	San Juan la Laguna	5	Mayo	2023-12-05T00:00:00	2024-11-08T15:00:00	8	Radiación solar	242
53425	7	Sololá	717	San Juan la Laguna	12	San Juan la Laguna	5	Mayo	2023-12-05T00:00:00	2024-11-08T16:00:00	2	Temperatura media	20.8
53426	7	Sololá	717	San Juan la Laguna	12	San Juan la Laguna	5	Mayo	2023-12-05T00:00:00	2024-11-08T16:00:00	4	Temperatura máxima	21.3
53427	7	Sololá	717	San Juan la Laguna	12	San Juan la Laguna	5	Mayo	2023-12-05T00:00:00	2024-11-08T16:00:00	3	Temperatura mínima	20.6
53428	7	Sololá	717	San Juan la Laguna	12	San Juan la Laguna	5	Mayo	2023-12-05T00:00:00	2024-11-08T16:00:00	5	Humedad	80
53429	7	Sololá	717	San Juan la Laguna	12	San Juan la Laguna	5	Mayo	2023-12-05T00:00:00	2024-11-08T16:00:00	6	Velocidad del viento	4.8
53430	7	Sololá	717	San Juan la Laguna	12	San Juan la Laguna	5	Mayo	2023-12-05T00:00:00	2024-11-08T16:00:00	7	Dirección del viento	4.83
53431	7	Sololá	717	San Juan la Laguna	12	San Juan la Laguna	5	Mayo	2023-12-05T00:00:00	2024-11-08T16:00:00	1	Precipitación	0
53432	7	Sololá	717	San Juan la Laguna	12	San Juan la Laguna	5	Mayo	2023-12-05T00:00:00	2024-11-08T16:00:00	8	Radiación solar	97
53433	7	Sololá	717	San Juan la Laguna	12	San Juan la Laguna	5	Mayo	2023-12-05T00:00:00	2024-11-08T17:00:00	2	Temperatura media	21.4
53434	7	Sololá	717	San Juan la Laguna	12	San Juan la Laguna	5	Mayo	2023-12-05T00:00:00	2024-11-08T17:00:00	4	Temperatura máxima	21.4
53435	7	Sololá	717	San Juan la Laguna	12	San Juan la Laguna	5	Mayo	2023-12-05T00:00:00	2024-11-08T17:00:00	3	Temperatura mínima	20.8
53436	7	Sololá	717	San Juan la Laguna	12	San Juan la Laguna	5	Mayo	2023-12-05T00:00:00	2024-11-08T17:00:00	5	Humedad	77
53437	7	Sololá	717	San Juan la Laguna	12	San Juan la Laguna	5	Mayo	2023-12-05T00:00:00	2024-11-08T17:00:00	6	Velocidad del viento	1.6
53438	7	Sololá	717	San Juan la Laguna	12	San Juan la Laguna	5	Mayo	2023-12-05T00:00:00	2024-11-08T17:00:00	7	Dirección del viento	1.61
53439	7	Sololá	717	San Juan la Laguna	12	San Juan la Laguna	5	Mayo	2023-12-05T00:00:00	2024-11-08T17:00:00	1	Precipitación	0
53440	7	Sololá	717	San Juan la Laguna	12	San Juan la Laguna	5	Mayo	2023-12-05T00:00:00	2024-11-08T17:00:00	8	Radiación solar	79
53441	7	Sololá	717	San Juan la Laguna	12	San Juan la Laguna	5	Mayo	2023-12-05T00:00:00	2024-11-08T18:00:00	2	Temperatura media	18.2
53442	7	Sololá	717	San Juan la Laguna	12	San Juan la Laguna	5	Mayo	2023-12-05T00:00:00	2024-11-08T18:00:00	4	Temperatura máxima	21.4
53443	7	Sololá	717	San Juan la Laguna	12	San Juan la Laguna	5	Mayo	2023-12-05T00:00:00	2024-11-08T18:00:00	3	Temperatura mínima	18.2
53444	7	Sololá	717	San Juan la Laguna	12	San Juan la Laguna	5	Mayo	2023-12-05T00:00:00	2024-11-08T18:00:00	5	Humedad	91
53445	7	Sololá	717	San Juan la Laguna	12	San Juan la Laguna	5	Mayo	2023-12-05T00:00:00	2024-11-08T18:00:00	6	Velocidad del viento	1.6
53446	7	Sololá	717	San Juan la Laguna	12	San Juan la Laguna	5	Mayo	2023-12-05T00:00:00	2024-11-08T18:00:00	7	Dirección del viento	1.61
53447	7	Sololá	717	San Juan la Laguna	12	San Juan la Laguna	5	Mayo	2023-12-05T00:00:00	2024-11-08T18:00:00	1	Precipitación	7.4
53448	7	Sololá	717	San Juan la Laguna	12	San Juan la Laguna	5	Mayo	2023-12-05T00:00:00	2024-11-08T18:00:00	8	Radiación solar	2
53449	7	Sololá	717	San Juan la Laguna	12	San Juan la Laguna	5	Mayo	2023-12-05T00:00:00	2024-11-08T19:00:00	2	Temperatura media	17.9
53450	7	Sololá	717	San Juan la Laguna	12	San Juan la Laguna	5	Mayo	2023-12-05T00:00:00	2024-11-08T19:00:00	4	Temperatura máxima	18.6
53451	7	Sololá	717	San Juan la Laguna	12	San Juan la Laguna	5	Mayo	2023-12-05T00:00:00	2024-11-08T19:00:00	3	Temperatura mínima	17.8
53452	7	Sololá	717	San Juan la Laguna	12	San Juan la Laguna	5	Mayo	2023-12-05T00:00:00	2024-11-08T19:00:00	5	Humedad	92
53453	7	Sololá	717	San Juan la Laguna	12	San Juan la Laguna	5	Mayo	2023-12-05T00:00:00	2024-11-08T19:00:00	6	Velocidad del viento	3.2
53454	7	Sololá	717	San Juan la Laguna	12	San Juan la Laguna	5	Mayo	2023-12-05T00:00:00	2024-11-08T19:00:00	7	Dirección del viento	3.22
53455	7	Sololá	717	San Juan la Laguna	12	San Juan la Laguna	5	Mayo	2023-12-05T00:00:00	2024-11-08T19:00:00	1	Precipitación	5.4
53456	7	Sololá	717	San Juan la Laguna	12	San Juan la Laguna	5	Mayo	2023-12-05T00:00:00	2024-11-08T19:00:00	8	Radiación solar	0
53457	7	Sololá	717	San Juan la Laguna	12	San Juan la Laguna	5	Mayo	2023-12-05T00:00:00	2024-11-08T20:00:00	2	Temperatura media	18.2
53458	7	Sololá	717	San Juan la Laguna	12	San Juan la Laguna	5	Mayo	2023-12-05T00:00:00	2024-11-08T20:00:00	4	Temperatura máxima	18.2
53459	7	Sololá	717	San Juan la Laguna	12	San Juan la Laguna	5	Mayo	2023-12-05T00:00:00	2024-11-08T20:00:00	3	Temperatura mínima	17.8
53460	7	Sololá	717	San Juan la Laguna	12	San Juan la Laguna	5	Mayo	2023-12-05T00:00:00	2024-11-08T20:00:00	5	Humedad	91
53461	7	Sololá	717	San Juan la Laguna	12	San Juan la Laguna	5	Mayo	2023-12-05T00:00:00	2024-11-08T20:00:00	6	Velocidad del viento	4.8
53462	7	Sololá	717	San Juan la Laguna	12	San Juan la Laguna	5	Mayo	2023-12-05T00:00:00	2024-11-08T20:00:00	7	Dirección del viento	4.83
53463	7	Sololá	717	San Juan la Laguna	12	San Juan la Laguna	5	Mayo	2023-12-05T00:00:00	2024-11-08T20:00:00	1	Precipitación	0
53464	7	Sololá	717	San Juan la Laguna	12	San Juan la Laguna	5	Mayo	2023-12-05T00:00:00	2024-11-08T20:00:00	8	Radiación solar	0
53465	7	Sololá	717	San Juan la Laguna	12	San Juan la Laguna	5	Mayo	2023-12-05T00:00:00	2024-11-08T21:00:00	2	Temperatura media	17.9
53466	7	Sololá	717	San Juan la Laguna	12	San Juan la Laguna	5	Mayo	2023-12-05T00:00:00	2024-11-08T21:00:00	4	Temperatura máxima	18.2
53467	7	Sololá	717	San Juan la Laguna	12	San Juan la Laguna	5	Mayo	2023-12-05T00:00:00	2024-11-08T21:00:00	3	Temperatura mínima	17.8
53468	7	Sololá	717	San Juan la Laguna	12	San Juan la Laguna	5	Mayo	2023-12-05T00:00:00	2024-11-08T21:00:00	5	Humedad	92
53469	7	Sololá	717	San Juan la Laguna	12	San Juan la Laguna	5	Mayo	2023-12-05T00:00:00	2024-11-08T21:00:00	6	Velocidad del viento	1.6
53470	7	Sololá	717	San Juan la Laguna	12	San Juan la Laguna	5	Mayo	2023-12-05T00:00:00	2024-11-08T21:00:00	7	Dirección del viento	1.61
53471	7	Sololá	717	San Juan la Laguna	12	San Juan la Laguna	5	Mayo	2023-12-05T00:00:00	2024-11-08T21:00:00	1	Precipitación	0
53472	7	Sololá	717	San Juan la Laguna	12	San Juan la Laguna	5	Mayo	2023-12-05T00:00:00	2024-11-08T21:00:00	8	Radiación solar	0
53473	7	Sololá	717	San Juan la Laguna	12	San Juan la Laguna	5	Mayo	2023-12-05T00:00:00	2024-11-08T22:00:00	2	Temperatura media	17.4
53474	7	Sololá	717	San Juan la Laguna	12	San Juan la Laguna	5	Mayo	2023-12-05T00:00:00	2024-11-08T22:00:00	4	Temperatura máxima	17.8
53475	7	Sololá	717	San Juan la Laguna	12	San Juan la Laguna	5	Mayo	2023-12-05T00:00:00	2024-11-08T22:00:00	3	Temperatura mínima	17.4
53476	7	Sololá	717	San Juan la Laguna	12	San Juan la Laguna	5	Mayo	2023-12-05T00:00:00	2024-11-08T22:00:00	5	Humedad	92
53477	7	Sololá	717	San Juan la Laguna	12	San Juan la Laguna	5	Mayo	2023-12-05T00:00:00	2024-11-08T22:00:00	6	Velocidad del viento	1.6
53478	7	Sololá	717	San Juan la Laguna	12	San Juan la Laguna	5	Mayo	2023-12-05T00:00:00	2024-11-08T22:00:00	7	Dirección del viento	1.61
53479	7	Sololá	717	San Juan la Laguna	12	San Juan la Laguna	5	Mayo	2023-12-05T00:00:00	2024-11-08T22:00:00	1	Precipitación	0
53480	7	Sololá	717	San Juan la Laguna	12	San Juan la Laguna	5	Mayo	2023-12-05T00:00:00	2024-11-08T22:00:00	8	Radiación solar	0
53481	7	Sololá	717	San Juan la Laguna	12	San Juan la Laguna	5	Mayo	2023-12-05T00:00:00	2024-11-08T23:00:00	2	Temperatura media	17.6
53482	7	Sololá	717	San Juan la Laguna	12	San Juan la Laguna	5	Mayo	2023-12-05T00:00:00	2024-11-08T23:00:00	4	Temperatura máxima	17.6
53483	7	Sololá	717	San Juan la Laguna	12	San Juan la Laguna	5	Mayo	2023-12-05T00:00:00	2024-11-08T23:00:00	3	Temperatura mínima	17.3
53484	7	Sololá	717	San Juan la Laguna	12	San Juan la Laguna	5	Mayo	2023-12-05T00:00:00	2024-11-08T23:00:00	5	Humedad	92
53485	7	Sololá	717	San Juan la Laguna	12	San Juan la Laguna	5	Mayo	2023-12-05T00:00:00	2024-11-08T23:00:00	6	Velocidad del viento	1.6
53486	7	Sololá	717	San Juan la Laguna	12	San Juan la Laguna	5	Mayo	2023-12-05T00:00:00	2024-11-08T23:00:00	7	Dirección del viento	1.61
53487	7	Sololá	717	San Juan la Laguna	12	San Juan la Laguna	5	Mayo	2023-12-05T00:00:00	2024-11-08T23:00:00	1	Precipitación	0
53488	7	Sololá	717	San Juan la Laguna	12	San Juan la Laguna	5	Mayo	2023-12-05T00:00:00	2024-11-08T23:00:00	8	Radiación solar	0
53489	7	Sololá	717	San Juan la Laguna	12	San Juan la Laguna	5	Mayo	2023-05-13T00:00:00	2024-11-08T00:00:00	2	Temperatura media	17.9
53490	7	Sololá	717	San Juan la Laguna	12	San Juan la Laguna	5	Mayo	2023-05-13T00:00:00	2024-11-08T00:00:00	4	Temperatura máxima	18.1
53491	7	Sololá	717	San Juan la Laguna	12	San Juan la Laguna	5	Mayo	2023-05-13T00:00:00	2024-11-08T00:00:00	3	Temperatura mínima	17.6
53492	7	Sololá	717	San Juan la Laguna	12	San Juan la Laguna	5	Mayo	2023-05-13T00:00:00	2024-11-08T00:00:00	5	Humedad	91
53493	7	Sololá	717	San Juan la Laguna	12	San Juan la Laguna	5	Mayo	2023-05-13T00:00:00	2024-11-08T00:00:00	6	Velocidad del viento	3.2
53494	7	Sololá	717	San Juan la Laguna	12	San Juan la Laguna	5	Mayo	2023-05-13T00:00:00	2024-11-08T00:00:00	7	Dirección del viento	3.22
53495	7	Sololá	717	San Juan la Laguna	12	San Juan la Laguna	5	Mayo	2023-05-13T00:00:00	2024-11-08T00:00:00	1	Precipitación	0
53496	7	Sololá	717	San Juan la Laguna	12	San Juan la Laguna	5	Mayo	2023-05-13T00:00:00	2024-11-08T00:00:00	8	Radiación solar	0
53497	7	Sololá	717	San Juan la Laguna	12	San Juan la Laguna	5	Mayo	2023-05-13T00:00:00	2024-11-08T01:00:00	2	Temperatura media	18.3
53498	7	Sololá	717	San Juan la Laguna	12	San Juan la Laguna	5	Mayo	2023-05-13T00:00:00	2024-11-08T01:00:00	4	Temperatura máxima	18.4
53499	7	Sololá	717	San Juan la Laguna	12	San Juan la Laguna	5	Mayo	2023-05-13T00:00:00	2024-11-08T01:00:00	3	Temperatura mínima	17.9
53500	7	Sololá	717	San Juan la Laguna	12	San Juan la Laguna	5	Mayo	2023-05-13T00:00:00	2024-11-08T01:00:00	5	Humedad	88
53501	7	Sololá	717	San Juan la Laguna	12	San Juan la Laguna	5	Mayo	2023-05-13T00:00:00	2024-11-08T01:00:00	6	Velocidad del viento	3.2
53502	7	Sololá	717	San Juan la Laguna	12	San Juan la Laguna	5	Mayo	2023-05-13T00:00:00	2024-11-08T01:00:00	7	Dirección del viento	3.22
53503	7	Sololá	717	San Juan la Laguna	12	San Juan la Laguna	5	Mayo	2023-05-13T00:00:00	2024-11-08T01:00:00	1	Precipitación	0
53504	7	Sololá	717	San Juan la Laguna	12	San Juan la Laguna	5	Mayo	2023-05-13T00:00:00	2024-11-08T01:00:00	8	Radiación solar	0
53505	7	Sololá	717	San Juan la Laguna	12	San Juan la Laguna	5	Mayo	2023-05-13T00:00:00	2024-11-08T02:00:00	2	Temperatura media	17.6
53506	7	Sololá	717	San Juan la Laguna	12	San Juan la Laguna	5	Mayo	2023-05-13T00:00:00	2024-11-08T02:00:00	4	Temperatura máxima	18.4
53507	7	Sololá	717	San Juan la Laguna	12	San Juan la Laguna	5	Mayo	2023-05-13T00:00:00	2024-11-08T02:00:00	3	Temperatura mínima	17.6
53508	7	Sololá	717	San Juan la Laguna	12	San Juan la Laguna	5	Mayo	2023-05-13T00:00:00	2024-11-08T02:00:00	5	Humedad	92
53509	7	Sololá	717	San Juan la Laguna	12	San Juan la Laguna	5	Mayo	2023-05-13T00:00:00	2024-11-08T02:00:00	6	Velocidad del viento	1.6
53510	7	Sololá	717	San Juan la Laguna	12	San Juan la Laguna	5	Mayo	2023-05-13T00:00:00	2024-11-08T02:00:00	7	Dirección del viento	1.61
53511	7	Sololá	717	San Juan la Laguna	12	San Juan la Laguna	5	Mayo	2023-05-13T00:00:00	2024-11-08T02:00:00	1	Precipitación	0.4
53512	7	Sololá	717	San Juan la Laguna	12	San Juan la Laguna	5	Mayo	2023-05-13T00:00:00	2024-11-08T02:00:00	8	Radiación solar	0
53513	7	Sololá	717	San Juan la Laguna	12	San Juan la Laguna	5	Mayo	2023-05-13T00:00:00	2024-11-08T03:00:00	2	Temperatura media	17.2
53514	7	Sololá	717	San Juan la Laguna	12	San Juan la Laguna	5	Mayo	2023-05-13T00:00:00	2024-11-08T03:00:00	4	Temperatura máxima	17.5
53515	7	Sololá	717	San Juan la Laguna	12	San Juan la Laguna	5	Mayo	2023-05-13T00:00:00	2024-11-08T03:00:00	3	Temperatura mínima	17.2
53516	7	Sololá	717	San Juan la Laguna	12	San Juan la Laguna	5	Mayo	2023-05-13T00:00:00	2024-11-08T03:00:00	5	Humedad	92
53517	7	Sololá	717	San Juan la Laguna	12	San Juan la Laguna	5	Mayo	2023-05-13T00:00:00	2024-11-08T03:00:00	6	Velocidad del viento	1.6
53518	7	Sololá	717	San Juan la Laguna	12	San Juan la Laguna	5	Mayo	2023-05-13T00:00:00	2024-11-08T03:00:00	7	Dirección del viento	1.61
53519	7	Sololá	717	San Juan la Laguna	12	San Juan la Laguna	5	Mayo	2023-05-13T00:00:00	2024-11-08T03:00:00	1	Precipitación	0
53520	7	Sololá	717	San Juan la Laguna	12	San Juan la Laguna	5	Mayo	2023-05-13T00:00:00	2024-11-08T03:00:00	8	Radiación solar	0
53521	7	Sololá	717	San Juan la Laguna	12	San Juan la Laguna	5	Mayo	2023-05-13T00:00:00	2024-11-08T04:00:00	2	Temperatura media	16.9
53522	7	Sololá	717	San Juan la Laguna	12	San Juan la Laguna	5	Mayo	2023-05-13T00:00:00	2024-11-08T04:00:00	4	Temperatura máxima	17.2
53523	7	Sololá	717	San Juan la Laguna	12	San Juan la Laguna	5	Mayo	2023-05-13T00:00:00	2024-11-08T04:00:00	3	Temperatura mínima	16.8
53524	7	Sololá	717	San Juan la Laguna	12	San Juan la Laguna	5	Mayo	2023-05-13T00:00:00	2024-11-08T04:00:00	5	Humedad	93
53525	7	Sololá	717	San Juan la Laguna	12	San Juan la Laguna	5	Mayo	2023-05-13T00:00:00	2024-11-08T04:00:00	6	Velocidad del viento	1.6
53526	7	Sololá	717	San Juan la Laguna	12	San Juan la Laguna	5	Mayo	2023-05-13T00:00:00	2024-11-08T04:00:00	7	Dirección del viento	1.61
53527	7	Sololá	717	San Juan la Laguna	12	San Juan la Laguna	5	Mayo	2023-05-13T00:00:00	2024-11-08T04:00:00	1	Precipitación	0
53528	7	Sololá	717	San Juan la Laguna	12	San Juan la Laguna	5	Mayo	2023-05-13T00:00:00	2024-11-08T04:00:00	8	Radiación solar	0
53529	7	Sololá	717	San Juan la Laguna	12	San Juan la Laguna	5	Mayo	2023-05-13T00:00:00	2024-11-08T05:00:00	2	Temperatura media	16.4
53530	7	Sololá	717	San Juan la Laguna	12	San Juan la Laguna	5	Mayo	2023-05-13T00:00:00	2024-11-08T05:00:00	4	Temperatura máxima	16.9
53531	7	Sololá	717	San Juan la Laguna	12	San Juan la Laguna	5	Mayo	2023-05-13T00:00:00	2024-11-08T05:00:00	3	Temperatura mínima	16.4
53532	7	Sololá	717	San Juan la Laguna	12	San Juan la Laguna	5	Mayo	2023-05-13T00:00:00	2024-11-08T05:00:00	5	Humedad	93
53533	7	Sololá	717	San Juan la Laguna	12	San Juan la Laguna	5	Mayo	2023-05-13T00:00:00	2024-11-08T05:00:00	6	Velocidad del viento	1.6
53534	7	Sololá	717	San Juan la Laguna	12	San Juan la Laguna	5	Mayo	2023-05-13T00:00:00	2024-11-08T05:00:00	7	Dirección del viento	1.61
53535	7	Sololá	717	San Juan la Laguna	12	San Juan la Laguna	5	Mayo	2023-05-13T00:00:00	2024-11-08T05:00:00	1	Precipitación	0
53536	7	Sololá	717	San Juan la Laguna	12	San Juan la Laguna	5	Mayo	2023-05-13T00:00:00	2024-11-08T05:00:00	8	Radiación solar	0
53537	7	Sololá	717	San Juan la Laguna	12	San Juan la Laguna	5	Mayo	2023-05-13T00:00:00	2024-11-08T06:00:00	2	Temperatura media	16.6
53538	7	Sololá	717	San Juan la Laguna	12	San Juan la Laguna	5	Mayo	2023-05-13T00:00:00	2024-11-08T06:00:00	4	Temperatura máxima	16.6
53539	7	Sololá	717	San Juan la Laguna	12	San Juan la Laguna	5	Mayo	2023-05-13T00:00:00	2024-11-08T06:00:00	3	Temperatura mínima	16.4
53540	7	Sololá	717	San Juan la Laguna	12	San Juan la Laguna	5	Mayo	2023-05-13T00:00:00	2024-11-08T06:00:00	5	Humedad	93
53541	7	Sololá	717	San Juan la Laguna	12	San Juan la Laguna	5	Mayo	2023-05-13T00:00:00	2024-11-08T06:00:00	6	Velocidad del viento	1.6
53542	7	Sololá	717	San Juan la Laguna	12	San Juan la Laguna	5	Mayo	2023-05-13T00:00:00	2024-11-08T06:00:00	7	Dirección del viento	1.61
53543	7	Sololá	717	San Juan la Laguna	12	San Juan la Laguna	5	Mayo	2023-05-13T00:00:00	2024-11-08T06:00:00	1	Precipitación	0
53544	7	Sololá	717	San Juan la Laguna	12	San Juan la Laguna	5	Mayo	2023-05-13T00:00:00	2024-11-08T06:00:00	8	Radiación solar	4
53545	7	Sololá	717	San Juan la Laguna	12	San Juan la Laguna	5	Mayo	2023-05-13T00:00:00	2024-11-08T07:00:00	2	Temperatura media	17.7
53546	7	Sololá	717	San Juan la Laguna	12	San Juan la Laguna	5	Mayo	2023-05-13T00:00:00	2024-11-08T07:00:00	4	Temperatura máxima	17.8
53547	7	Sololá	717	San Juan la Laguna	12	San Juan la Laguna	5	Mayo	2023-05-13T00:00:00	2024-11-08T07:00:00	3	Temperatura mínima	16.5
53548	7	Sololá	717	San Juan la Laguna	12	San Juan la Laguna	5	Mayo	2023-05-13T00:00:00	2024-11-08T07:00:00	5	Humedad	90
53549	7	Sololá	717	San Juan la Laguna	12	San Juan la Laguna	5	Mayo	2023-05-13T00:00:00	2024-11-08T07:00:00	6	Velocidad del viento	3.2
53550	7	Sololá	717	San Juan la Laguna	12	San Juan la Laguna	5	Mayo	2023-05-13T00:00:00	2024-11-08T07:00:00	7	Dirección del viento	3.22
53551	7	Sololá	717	San Juan la Laguna	12	San Juan la Laguna	5	Mayo	2023-05-13T00:00:00	2024-11-08T07:00:00	1	Precipitación	0
53552	7	Sololá	717	San Juan la Laguna	12	San Juan la Laguna	5	Mayo	2023-05-13T00:00:00	2024-11-08T07:00:00	8	Radiación solar	88
53553	7	Sololá	717	San Juan la Laguna	12	San Juan la Laguna	5	Mayo	2023-05-13T00:00:00	2024-11-08T08:00:00	2	Temperatura media	20.3
53554	7	Sololá	717	San Juan la Laguna	12	San Juan la Laguna	5	Mayo	2023-05-13T00:00:00	2024-11-08T08:00:00	4	Temperatura máxima	20.3
53555	7	Sololá	717	San Juan la Laguna	12	San Juan la Laguna	5	Mayo	2023-05-13T00:00:00	2024-11-08T08:00:00	3	Temperatura mínima	17.8
53556	7	Sololá	717	San Juan la Laguna	12	San Juan la Laguna	5	Mayo	2023-05-13T00:00:00	2024-11-08T08:00:00	5	Humedad	81
53557	7	Sololá	717	San Juan la Laguna	12	San Juan la Laguna	5	Mayo	2023-05-13T00:00:00	2024-11-08T08:00:00	6	Velocidad del viento	1.6
53558	7	Sololá	717	San Juan la Laguna	12	San Juan la Laguna	5	Mayo	2023-05-13T00:00:00	2024-11-08T08:00:00	7	Dirección del viento	1.61
53559	7	Sololá	717	San Juan la Laguna	12	San Juan la Laguna	5	Mayo	2023-05-13T00:00:00	2024-11-08T08:00:00	1	Precipitación	0
53560	7	Sololá	717	San Juan la Laguna	12	San Juan la Laguna	5	Mayo	2023-05-13T00:00:00	2024-11-08T08:00:00	8	Radiación solar	283
53561	7	Sololá	717	San Juan la Laguna	12	San Juan la Laguna	5	Mayo	2023-05-13T00:00:00	2024-11-08T09:00:00	2	Temperatura media	21.8
53562	7	Sololá	717	San Juan la Laguna	12	San Juan la Laguna	5	Mayo	2023-05-13T00:00:00	2024-11-08T09:00:00	4	Temperatura máxima	22.2
53563	7	Sololá	717	San Juan la Laguna	12	San Juan la Laguna	5	Mayo	2023-05-13T00:00:00	2024-11-08T09:00:00	3	Temperatura mínima	20.3
53564	7	Sololá	717	San Juan la Laguna	12	San Juan la Laguna	5	Mayo	2023-05-13T00:00:00	2024-11-08T09:00:00	5	Humedad	76
53565	7	Sololá	717	San Juan la Laguna	12	San Juan la Laguna	5	Mayo	2023-05-13T00:00:00	2024-11-08T09:00:00	6	Velocidad del viento	1.6
53566	7	Sololá	717	San Juan la Laguna	12	San Juan la Laguna	5	Mayo	2023-05-13T00:00:00	2024-11-08T09:00:00	7	Dirección del viento	1.61
53567	7	Sololá	717	San Juan la Laguna	12	San Juan la Laguna	5	Mayo	2023-05-13T00:00:00	2024-11-08T09:00:00	1	Precipitación	0
53568	7	Sololá	717	San Juan la Laguna	12	San Juan la Laguna	5	Mayo	2023-05-13T00:00:00	2024-11-08T09:00:00	8	Radiación solar	504
53569	7	Sololá	717	San Juan la Laguna	12	San Juan la Laguna	5	Mayo	2023-05-13T00:00:00	2024-11-08T10:00:00	2	Temperatura media	22.7
53570	7	Sololá	717	San Juan la Laguna	12	San Juan la Laguna	5	Mayo	2023-05-13T00:00:00	2024-11-08T10:00:00	4	Temperatura máxima	22.8
53571	7	Sololá	717	San Juan la Laguna	12	San Juan la Laguna	5	Mayo	2023-05-13T00:00:00	2024-11-08T10:00:00	3	Temperatura mínima	21.8
53572	7	Sololá	717	San Juan la Laguna	12	San Juan la Laguna	5	Mayo	2023-05-13T00:00:00	2024-11-08T10:00:00	5	Humedad	71
53573	7	Sololá	717	San Juan la Laguna	12	San Juan la Laguna	5	Mayo	2023-05-13T00:00:00	2024-11-08T10:00:00	6	Velocidad del viento	1.6
53574	7	Sololá	717	San Juan la Laguna	12	San Juan la Laguna	5	Mayo	2023-05-13T00:00:00	2024-11-08T10:00:00	7	Dirección del viento	1.61
53575	7	Sololá	717	San Juan la Laguna	12	San Juan la Laguna	5	Mayo	2023-05-13T00:00:00	2024-11-08T10:00:00	1	Precipitación	0
53576	7	Sololá	717	San Juan la Laguna	12	San Juan la Laguna	5	Mayo	2023-05-13T00:00:00	2024-11-08T10:00:00	8	Radiación solar	711
53577	7	Sololá	717	San Juan la Laguna	12	San Juan la Laguna	5	Mayo	2023-05-13T00:00:00	2024-11-08T11:00:00	2	Temperatura media	21.8
53578	7	Sololá	717	San Juan la Laguna	12	San Juan la Laguna	5	Mayo	2023-05-13T00:00:00	2024-11-08T11:00:00	4	Temperatura máxima	23.1
53579	7	Sololá	717	San Juan la Laguna	12	San Juan la Laguna	5	Mayo	2023-05-13T00:00:00	2024-11-08T11:00:00	3	Temperatura mínima	21.8
53580	7	Sololá	717	San Juan la Laguna	12	San Juan la Laguna	5	Mayo	2023-05-13T00:00:00	2024-11-08T11:00:00	5	Humedad	75
53581	7	Sololá	717	San Juan la Laguna	12	San Juan la Laguna	5	Mayo	2023-05-13T00:00:00	2024-11-08T11:00:00	6	Velocidad del viento	3.2
53582	7	Sololá	717	San Juan la Laguna	12	San Juan la Laguna	5	Mayo	2023-05-13T00:00:00	2024-11-08T11:00:00	7	Dirección del viento	3.22
53583	7	Sololá	717	San Juan la Laguna	12	San Juan la Laguna	5	Mayo	2023-05-13T00:00:00	2024-11-08T11:00:00	1	Precipitación	0
53584	7	Sololá	717	San Juan la Laguna	12	San Juan la Laguna	5	Mayo	2023-05-13T00:00:00	2024-11-08T11:00:00	8	Radiación solar	586
53585	7	Sololá	717	San Juan la Laguna	12	San Juan la Laguna	5	Mayo	2023-05-13T00:00:00	2024-11-08T12:00:00	2	Temperatura media	23.4
53586	7	Sololá	717	San Juan la Laguna	12	San Juan la Laguna	5	Mayo	2023-05-13T00:00:00	2024-11-08T12:00:00	4	Temperatura máxima	23.7
53587	7	Sololá	717	San Juan la Laguna	12	San Juan la Laguna	5	Mayo	2023-05-13T00:00:00	2024-11-08T12:00:00	3	Temperatura mínima	21.8
53588	7	Sololá	717	San Juan la Laguna	12	San Juan la Laguna	5	Mayo	2023-05-13T00:00:00	2024-11-08T12:00:00	5	Humedad	70
53589	7	Sololá	717	San Juan la Laguna	12	San Juan la Laguna	5	Mayo	2023-05-13T00:00:00	2024-11-08T12:00:00	6	Velocidad del viento	3.2
53590	7	Sololá	717	San Juan la Laguna	12	San Juan la Laguna	5	Mayo	2023-05-13T00:00:00	2024-11-08T12:00:00	7	Dirección del viento	3.22
53591	7	Sololá	717	San Juan la Laguna	12	San Juan la Laguna	5	Mayo	2023-05-13T00:00:00	2024-11-08T12:00:00	1	Precipitación	0
53592	7	Sololá	717	San Juan la Laguna	12	San Juan la Laguna	5	Mayo	2023-05-13T00:00:00	2024-11-08T12:00:00	8	Radiación solar	779
53593	7	Sololá	717	San Juan la Laguna	12	San Juan la Laguna	5	Mayo	2023-05-13T00:00:00	2024-11-08T13:00:00	2	Temperatura media	20.9
53594	7	Sololá	717	San Juan la Laguna	12	San Juan la Laguna	5	Mayo	2023-05-13T00:00:00	2024-11-08T13:00:00	4	Temperatura máxima	23.4
53595	7	Sololá	717	San Juan la Laguna	12	San Juan la Laguna	5	Mayo	2023-05-13T00:00:00	2024-11-08T13:00:00	3	Temperatura mínima	20.9
53596	7	Sololá	717	San Juan la Laguna	12	San Juan la Laguna	5	Mayo	2023-05-13T00:00:00	2024-11-08T13:00:00	5	Humedad	79
53597	7	Sololá	717	San Juan la Laguna	12	San Juan la Laguna	5	Mayo	2023-05-13T00:00:00	2024-11-08T13:00:00	6	Velocidad del viento	4.8
53598	7	Sololá	717	San Juan la Laguna	12	San Juan la Laguna	5	Mayo	2023-05-13T00:00:00	2024-11-08T13:00:00	7	Dirección del viento	4.83
53599	7	Sololá	717	San Juan la Laguna	12	San Juan la Laguna	5	Mayo	2023-05-13T00:00:00	2024-11-08T13:00:00	1	Precipitación	0
53600	7	Sololá	717	San Juan la Laguna	12	San Juan la Laguna	5	Mayo	2023-05-13T00:00:00	2024-11-08T13:00:00	8	Radiación solar	472
53601	7	Sololá	717	San Juan la Laguna	12	San Juan la Laguna	5	Mayo	2023-05-13T00:00:00	2024-11-08T14:00:00	2	Temperatura media	20.2
53602	7	Sololá	717	San Juan la Laguna	12	San Juan la Laguna	5	Mayo	2023-05-13T00:00:00	2024-11-08T14:00:00	4	Temperatura máxima	21.4
53603	7	Sololá	717	San Juan la Laguna	12	San Juan la Laguna	5	Mayo	2023-05-13T00:00:00	2024-11-08T14:00:00	3	Temperatura mínima	20.2
53604	7	Sololá	717	San Juan la Laguna	12	San Juan la Laguna	5	Mayo	2023-05-13T00:00:00	2024-11-08T14:00:00	5	Humedad	80
53605	7	Sololá	717	San Juan la Laguna	12	San Juan la Laguna	5	Mayo	2023-05-13T00:00:00	2024-11-08T14:00:00	6	Velocidad del viento	4.8
53606	7	Sololá	717	San Juan la Laguna	12	San Juan la Laguna	5	Mayo	2023-05-13T00:00:00	2024-11-08T14:00:00	7	Dirección del viento	4.83
53607	7	Sololá	717	San Juan la Laguna	12	San Juan la Laguna	5	Mayo	2023-05-13T00:00:00	2024-11-08T14:00:00	1	Precipitación	0
53608	7	Sololá	717	San Juan la Laguna	12	San Juan la Laguna	5	Mayo	2023-05-13T00:00:00	2024-11-08T14:00:00	8	Radiación solar	212
53609	7	Sololá	717	San Juan la Laguna	12	San Juan la Laguna	5	Mayo	2023-05-13T00:00:00	2024-11-08T15:00:00	2	Temperatura media	21.3
53610	7	Sololá	717	San Juan la Laguna	12	San Juan la Laguna	5	Mayo	2023-05-13T00:00:00	2024-11-08T15:00:00	4	Temperatura máxima	21.6
53611	7	Sololá	717	San Juan la Laguna	12	San Juan la Laguna	5	Mayo	2023-05-13T00:00:00	2024-11-08T15:00:00	3	Temperatura mínima	20.2
53612	7	Sololá	717	San Juan la Laguna	12	San Juan la Laguna	5	Mayo	2023-05-13T00:00:00	2024-11-08T15:00:00	5	Humedad	75
53613	7	Sololá	717	San Juan la Laguna	12	San Juan la Laguna	5	Mayo	2023-05-13T00:00:00	2024-11-08T15:00:00	6	Velocidad del viento	4.8
53614	7	Sololá	717	San Juan la Laguna	12	San Juan la Laguna	5	Mayo	2023-05-13T00:00:00	2024-11-08T15:00:00	7	Dirección del viento	4.83
53615	7	Sololá	717	San Juan la Laguna	12	San Juan la Laguna	5	Mayo	2023-05-13T00:00:00	2024-11-08T15:00:00	1	Precipitación	0
53616	7	Sololá	717	San Juan la Laguna	12	San Juan la Laguna	5	Mayo	2023-05-13T00:00:00	2024-11-08T15:00:00	8	Radiación solar	259
53617	7	Sololá	717	San Juan la Laguna	12	San Juan la Laguna	5	Mayo	2023-05-13T00:00:00	2024-11-08T16:00:00	2	Temperatura media	20.6
53618	7	Sololá	717	San Juan la Laguna	12	San Juan la Laguna	5	Mayo	2023-05-13T00:00:00	2024-11-08T16:00:00	4	Temperatura máxima	21.3
53619	7	Sololá	717	San Juan la Laguna	12	San Juan la Laguna	5	Mayo	2023-05-13T00:00:00	2024-11-08T16:00:00	3	Temperatura mínima	20.3
53620	7	Sololá	717	San Juan la Laguna	12	San Juan la Laguna	5	Mayo	2023-05-13T00:00:00	2024-11-08T16:00:00	5	Humedad	77
53621	7	Sololá	717	San Juan la Laguna	12	San Juan la Laguna	5	Mayo	2023-05-13T00:00:00	2024-11-08T16:00:00	6	Velocidad del viento	4.8
53622	7	Sololá	717	San Juan la Laguna	12	San Juan la Laguna	5	Mayo	2023-05-13T00:00:00	2024-11-08T16:00:00	7	Dirección del viento	4.83
53623	7	Sololá	717	San Juan la Laguna	12	San Juan la Laguna	5	Mayo	2023-05-13T00:00:00	2024-11-08T16:00:00	1	Precipitación	0
53624	7	Sololá	717	San Juan la Laguna	12	San Juan la Laguna	5	Mayo	2023-05-13T00:00:00	2024-11-08T16:00:00	8	Radiación solar	169
53625	7	Sololá	717	San Juan la Laguna	12	San Juan la Laguna	5	Mayo	2023-05-13T00:00:00	2024-11-08T17:00:00	2	Temperatura media	19.5
53626	7	Sololá	717	San Juan la Laguna	12	San Juan la Laguna	5	Mayo	2023-05-13T00:00:00	2024-11-08T17:00:00	4	Temperatura máxima	20.7
53627	7	Sololá	717	San Juan la Laguna	12	San Juan la Laguna	5	Mayo	2023-05-13T00:00:00	2024-11-08T17:00:00	3	Temperatura mínima	19.5
53628	7	Sololá	717	San Juan la Laguna	12	San Juan la Laguna	5	Mayo	2023-05-13T00:00:00	2024-11-08T17:00:00	5	Humedad	85
53629	7	Sololá	717	San Juan la Laguna	12	San Juan la Laguna	5	Mayo	2023-05-13T00:00:00	2024-11-08T17:00:00	6	Velocidad del viento	3.2
53630	7	Sololá	717	San Juan la Laguna	12	San Juan la Laguna	5	Mayo	2023-05-13T00:00:00	2024-11-08T17:00:00	7	Dirección del viento	3.22
53631	7	Sololá	717	San Juan la Laguna	12	San Juan la Laguna	5	Mayo	2023-05-13T00:00:00	2024-11-08T17:00:00	1	Precipitación	0
53632	7	Sololá	717	San Juan la Laguna	12	San Juan la Laguna	5	Mayo	2023-05-13T00:00:00	2024-11-08T17:00:00	8	Radiación solar	60
53633	7	Sololá	717	San Juan la Laguna	12	San Juan la Laguna	5	Mayo	2023-05-13T00:00:00	2024-11-08T18:00:00	2	Temperatura media	18.9
53634	7	Sololá	717	San Juan la Laguna	12	San Juan la Laguna	5	Mayo	2023-05-13T00:00:00	2024-11-08T18:00:00	4	Temperatura máxima	19.6
53635	7	Sololá	717	San Juan la Laguna	12	San Juan la Laguna	5	Mayo	2023-05-13T00:00:00	2024-11-08T18:00:00	3	Temperatura mínima	18.8
53636	7	Sololá	717	San Juan la Laguna	12	San Juan la Laguna	5	Mayo	2023-05-13T00:00:00	2024-11-08T18:00:00	5	Humedad	88
53637	7	Sololá	717	San Juan la Laguna	12	San Juan la Laguna	5	Mayo	2023-05-13T00:00:00	2024-11-08T18:00:00	6	Velocidad del viento	1.6
53638	7	Sololá	717	San Juan la Laguna	12	San Juan la Laguna	5	Mayo	2023-05-13T00:00:00	2024-11-08T18:00:00	7	Dirección del viento	1.61
53639	7	Sololá	717	San Juan la Laguna	12	San Juan la Laguna	5	Mayo	2023-05-13T00:00:00	2024-11-08T18:00:00	1	Precipitación	0
53640	7	Sololá	717	San Juan la Laguna	12	San Juan la Laguna	5	Mayo	2023-05-13T00:00:00	2024-11-08T18:00:00	8	Radiación solar	13
53641	7	Sololá	717	San Juan la Laguna	12	San Juan la Laguna	5	Mayo	2023-05-13T00:00:00	2024-11-08T19:00:00	2	Temperatura media	18
53642	7	Sololá	717	San Juan la Laguna	12	San Juan la Laguna	5	Mayo	2023-05-13T00:00:00	2024-11-08T19:00:00	4	Temperatura máxima	19
53643	7	Sololá	717	San Juan la Laguna	12	San Juan la Laguna	5	Mayo	2023-05-13T00:00:00	2024-11-08T19:00:00	3	Temperatura mínima	18
53644	7	Sololá	717	San Juan la Laguna	12	San Juan la Laguna	5	Mayo	2023-05-13T00:00:00	2024-11-08T19:00:00	5	Humedad	90
53645	7	Sololá	717	San Juan la Laguna	12	San Juan la Laguna	5	Mayo	2023-05-13T00:00:00	2024-11-08T19:00:00	6	Velocidad del viento	1.6
53646	7	Sololá	717	San Juan la Laguna	12	San Juan la Laguna	5	Mayo	2023-05-13T00:00:00	2024-11-08T19:00:00	7	Dirección del viento	1.61
53647	7	Sololá	717	San Juan la Laguna	12	San Juan la Laguna	5	Mayo	2023-05-13T00:00:00	2024-11-08T19:00:00	1	Precipitación	0.4
53648	7	Sololá	717	San Juan la Laguna	12	San Juan la Laguna	5	Mayo	2023-05-13T00:00:00	2024-11-08T19:00:00	8	Radiación solar	0
53649	7	Sololá	717	San Juan la Laguna	12	San Juan la Laguna	5	Mayo	2023-05-13T00:00:00	2024-11-08T20:00:00	2	Temperatura media	17.4
53650	7	Sololá	717	San Juan la Laguna	12	San Juan la Laguna	5	Mayo	2023-05-13T00:00:00	2024-11-08T20:00:00	4	Temperatura máxima	18.1
53651	7	Sololá	717	San Juan la Laguna	12	San Juan la Laguna	5	Mayo	2023-05-13T00:00:00	2024-11-08T20:00:00	3	Temperatura mínima	17.4
53652	7	Sololá	717	San Juan la Laguna	12	San Juan la Laguna	5	Mayo	2023-05-13T00:00:00	2024-11-08T20:00:00	5	Humedad	91
53653	7	Sololá	717	San Juan la Laguna	12	San Juan la Laguna	5	Mayo	2023-05-13T00:00:00	2024-11-08T20:00:00	6	Velocidad del viento	1.6
53654	7	Sololá	717	San Juan la Laguna	12	San Juan la Laguna	5	Mayo	2023-05-13T00:00:00	2024-11-08T20:00:00	7	Dirección del viento	1.61
53655	7	Sololá	717	San Juan la Laguna	12	San Juan la Laguna	5	Mayo	2023-05-13T00:00:00	2024-11-08T20:00:00	1	Precipitación	0.2
53656	7	Sololá	717	San Juan la Laguna	12	San Juan la Laguna	5	Mayo	2023-05-13T00:00:00	2024-11-08T20:00:00	8	Radiación solar	0
53657	7	Sololá	717	San Juan la Laguna	12	San Juan la Laguna	5	Mayo	2023-05-13T00:00:00	2024-11-08T21:00:00	2	Temperatura media	17.1
53658	7	Sololá	717	San Juan la Laguna	12	San Juan la Laguna	5	Mayo	2023-05-13T00:00:00	2024-11-08T21:00:00	4	Temperatura máxima	17.3
53659	7	Sololá	717	San Juan la Laguna	12	San Juan la Laguna	5	Mayo	2023-05-13T00:00:00	2024-11-08T21:00:00	3	Temperatura mínima	17.1
53660	7	Sololá	717	San Juan la Laguna	12	San Juan la Laguna	5	Mayo	2023-05-13T00:00:00	2024-11-08T21:00:00	5	Humedad	90
53661	7	Sololá	717	San Juan la Laguna	12	San Juan la Laguna	5	Mayo	2023-05-13T00:00:00	2024-11-08T21:00:00	6	Velocidad del viento	3.2
53662	7	Sololá	717	San Juan la Laguna	12	San Juan la Laguna	5	Mayo	2023-05-13T00:00:00	2024-11-08T21:00:00	7	Dirección del viento	3.22
53663	7	Sololá	717	San Juan la Laguna	12	San Juan la Laguna	5	Mayo	2023-05-13T00:00:00	2024-11-08T21:00:00	1	Precipitación	0
53664	7	Sololá	717	San Juan la Laguna	12	San Juan la Laguna	5	Mayo	2023-05-13T00:00:00	2024-11-08T21:00:00	8	Radiación solar	0
53665	7	Sololá	717	San Juan la Laguna	12	San Juan la Laguna	5	Mayo	2023-05-13T00:00:00	2024-11-08T22:00:00	2	Temperatura media	17.3
53666	7	Sololá	717	San Juan la Laguna	12	San Juan la Laguna	5	Mayo	2023-05-13T00:00:00	2024-11-08T22:00:00	4	Temperatura máxima	17.6
53667	7	Sololá	717	San Juan la Laguna	12	San Juan la Laguna	5	Mayo	2023-05-13T00:00:00	2024-11-08T22:00:00	3	Temperatura mínima	17.1
53668	7	Sololá	717	San Juan la Laguna	12	San Juan la Laguna	5	Mayo	2023-05-13T00:00:00	2024-11-08T22:00:00	5	Humedad	89
53669	7	Sololá	717	San Juan la Laguna	12	San Juan la Laguna	5	Mayo	2023-05-13T00:00:00	2024-11-08T22:00:00	6	Velocidad del viento	4.8
53670	7	Sololá	717	San Juan la Laguna	12	San Juan la Laguna	5	Mayo	2023-05-13T00:00:00	2024-11-08T22:00:00	7	Dirección del viento	4.83
53671	7	Sololá	717	San Juan la Laguna	12	San Juan la Laguna	5	Mayo	2023-05-13T00:00:00	2024-11-08T22:00:00	1	Precipitación	0
53672	7	Sololá	717	San Juan la Laguna	12	San Juan la Laguna	5	Mayo	2023-05-13T00:00:00	2024-11-08T22:00:00	8	Radiación solar	0
53673	7	Sololá	717	San Juan la Laguna	12	San Juan la Laguna	5	Mayo	2023-05-13T00:00:00	2024-11-08T23:00:00	2	Temperatura media	17.4
53674	7	Sololá	717	San Juan la Laguna	12	San Juan la Laguna	5	Mayo	2023-05-13T00:00:00	2024-11-08T23:00:00	4	Temperatura máxima	17.6
53675	7	Sololá	717	San Juan la Laguna	12	San Juan la Laguna	5	Mayo	2023-05-13T00:00:00	2024-11-08T23:00:00	3	Temperatura mínima	17.2
53676	7	Sololá	717	San Juan la Laguna	12	San Juan la Laguna	5	Mayo	2023-05-13T00:00:00	2024-11-08T23:00:00	5	Humedad	87
53677	7	Sololá	717	San Juan la Laguna	12	San Juan la Laguna	5	Mayo	2023-05-13T00:00:00	2024-11-08T23:00:00	6	Velocidad del viento	4.8
53678	7	Sololá	717	San Juan la Laguna	12	San Juan la Laguna	5	Mayo	2023-05-13T00:00:00	2024-11-08T23:00:00	7	Dirección del viento	4.83
53679	7	Sololá	717	San Juan la Laguna	12	San Juan la Laguna	5	Mayo	2023-05-13T00:00:00	2024-11-08T23:00:00	1	Precipitación	0
53680	7	Sololá	717	San Juan la Laguna	12	San Juan la Laguna	5	Mayo	2023-05-13T00:00:00	2024-11-08T23:00:00	8	Radiación solar	0
53681	7	Sololá	717	San Juan la Laguna	12	San Juan la Laguna	5	Mayo	2023-05-14T00:00:00	2024-11-08T00:00:00	2	Temperatura media	17.4
53682	7	Sololá	717	San Juan la Laguna	12	San Juan la Laguna	5	Mayo	2023-05-14T00:00:00	2024-11-08T00:00:00	4	Temperatura máxima	17.9
53683	7	Sololá	717	San Juan la Laguna	12	San Juan la Laguna	5	Mayo	2023-05-14T00:00:00	2024-11-08T00:00:00	3	Temperatura mínima	17.4
53684	7	Sololá	717	San Juan la Laguna	12	San Juan la Laguna	5	Mayo	2023-05-14T00:00:00	2024-11-08T00:00:00	5	Humedad	86
53685	7	Sololá	717	San Juan la Laguna	12	San Juan la Laguna	5	Mayo	2023-05-14T00:00:00	2024-11-08T00:00:00	6	Velocidad del viento	3.2
53686	7	Sololá	717	San Juan la Laguna	12	San Juan la Laguna	5	Mayo	2023-05-14T00:00:00	2024-11-08T00:00:00	7	Dirección del viento	3.22
53687	7	Sololá	717	San Juan la Laguna	12	San Juan la Laguna	5	Mayo	2023-05-14T00:00:00	2024-11-08T00:00:00	1	Precipitación	0
53688	7	Sololá	717	San Juan la Laguna	12	San Juan la Laguna	5	Mayo	2023-05-14T00:00:00	2024-11-08T00:00:00	8	Radiación solar	0
53689	7	Sololá	717	San Juan la Laguna	12	San Juan la Laguna	5	Mayo	2023-05-14T00:00:00	2024-11-08T01:00:00	2	Temperatura media	16.3
53690	7	Sololá	717	San Juan la Laguna	12	San Juan la Laguna	5	Mayo	2023-05-14T00:00:00	2024-11-08T01:00:00	4	Temperatura máxima	17.4
53691	7	Sololá	717	San Juan la Laguna	12	San Juan la Laguna	5	Mayo	2023-05-14T00:00:00	2024-11-08T01:00:00	3	Temperatura mínima	16.2
53692	7	Sololá	717	San Juan la Laguna	12	San Juan la Laguna	5	Mayo	2023-05-14T00:00:00	2024-11-08T01:00:00	5	Humedad	89
53693	7	Sololá	717	San Juan la Laguna	12	San Juan la Laguna	5	Mayo	2023-05-14T00:00:00	2024-11-08T01:00:00	6	Velocidad del viento	3.2
53694	7	Sololá	717	San Juan la Laguna	12	San Juan la Laguna	5	Mayo	2023-05-14T00:00:00	2024-11-08T01:00:00	7	Dirección del viento	3.22
53695	7	Sololá	717	San Juan la Laguna	12	San Juan la Laguna	5	Mayo	2023-05-14T00:00:00	2024-11-08T01:00:00	1	Precipitación	0
53696	7	Sololá	717	San Juan la Laguna	12	San Juan la Laguna	5	Mayo	2023-05-14T00:00:00	2024-11-08T01:00:00	8	Radiación solar	0
53697	7	Sololá	717	San Juan la Laguna	12	San Juan la Laguna	5	Mayo	2023-05-14T00:00:00	2024-11-08T02:00:00	2	Temperatura media	16.5
53698	7	Sololá	717	San Juan la Laguna	12	San Juan la Laguna	5	Mayo	2023-05-14T00:00:00	2024-11-08T02:00:00	4	Temperatura máxima	16.5
53699	7	Sololá	717	San Juan la Laguna	12	San Juan la Laguna	5	Mayo	2023-05-14T00:00:00	2024-11-08T02:00:00	3	Temperatura mínima	16.3
53700	7	Sololá	717	San Juan la Laguna	12	San Juan la Laguna	5	Mayo	2023-05-14T00:00:00	2024-11-08T02:00:00	5	Humedad	91
53701	7	Sololá	717	San Juan la Laguna	12	San Juan la Laguna	5	Mayo	2023-05-14T00:00:00	2024-11-08T02:00:00	6	Velocidad del viento	1.6
53702	7	Sololá	717	San Juan la Laguna	12	San Juan la Laguna	5	Mayo	2023-05-14T00:00:00	2024-11-08T02:00:00	7	Dirección del viento	1.61
53703	7	Sololá	717	San Juan la Laguna	12	San Juan la Laguna	5	Mayo	2023-05-14T00:00:00	2024-11-08T02:00:00	1	Precipitación	0
53704	7	Sololá	717	San Juan la Laguna	12	San Juan la Laguna	5	Mayo	2023-05-14T00:00:00	2024-11-08T02:00:00	8	Radiación solar	0
53705	7	Sololá	717	San Juan la Laguna	12	San Juan la Laguna	5	Mayo	2023-05-14T00:00:00	2024-11-08T03:00:00	2	Temperatura media	16.1
53706	7	Sololá	717	San Juan la Laguna	12	San Juan la Laguna	5	Mayo	2023-05-14T00:00:00	2024-11-08T03:00:00	4	Temperatura máxima	16.6
53707	7	Sololá	717	San Juan la Laguna	12	San Juan la Laguna	5	Mayo	2023-05-14T00:00:00	2024-11-08T03:00:00	3	Temperatura mínima	16.1
53708	7	Sololá	717	San Juan la Laguna	12	San Juan la Laguna	5	Mayo	2023-05-14T00:00:00	2024-11-08T03:00:00	5	Humedad	92
53709	7	Sololá	717	San Juan la Laguna	12	San Juan la Laguna	5	Mayo	2023-05-14T00:00:00	2024-11-08T03:00:00	6	Velocidad del viento	1.6
53710	7	Sololá	717	San Juan la Laguna	12	San Juan la Laguna	5	Mayo	2023-05-14T00:00:00	2024-11-08T03:00:00	7	Dirección del viento	1.61
53711	7	Sololá	717	San Juan la Laguna	12	San Juan la Laguna	5	Mayo	2023-05-14T00:00:00	2024-11-08T03:00:00	1	Precipitación	0
53712	7	Sololá	717	San Juan la Laguna	12	San Juan la Laguna	5	Mayo	2023-05-14T00:00:00	2024-11-08T03:00:00	8	Radiación solar	0
53713	7	Sololá	717	San Juan la Laguna	12	San Juan la Laguna	5	Mayo	2023-05-14T00:00:00	2024-11-08T04:00:00	2	Temperatura media	17.4
53714	7	Sololá	717	San Juan la Laguna	12	San Juan la Laguna	5	Mayo	2023-05-14T00:00:00	2024-11-08T04:00:00	4	Temperatura máxima	17.4
53715	7	Sololá	717	San Juan la Laguna	12	San Juan la Laguna	5	Mayo	2023-05-14T00:00:00	2024-11-08T04:00:00	3	Temperatura mínima	16
53716	7	Sololá	717	San Juan la Laguna	12	San Juan la Laguna	5	Mayo	2023-05-14T00:00:00	2024-11-08T04:00:00	5	Humedad	84
53717	7	Sololá	717	San Juan la Laguna	12	San Juan la Laguna	5	Mayo	2023-05-14T00:00:00	2024-11-08T04:00:00	6	Velocidad del viento	1.6
53718	7	Sololá	717	San Juan la Laguna	12	San Juan la Laguna	5	Mayo	2023-05-14T00:00:00	2024-11-08T04:00:00	7	Dirección del viento	1.61
53719	7	Sololá	717	San Juan la Laguna	12	San Juan la Laguna	5	Mayo	2023-05-14T00:00:00	2024-11-08T04:00:00	1	Precipitación	0
53720	7	Sololá	717	San Juan la Laguna	12	San Juan la Laguna	5	Mayo	2023-05-14T00:00:00	2024-11-08T04:00:00	8	Radiación solar	0
53721	7	Sololá	717	San Juan la Laguna	12	San Juan la Laguna	5	Mayo	2023-05-14T00:00:00	2024-11-08T05:00:00	2	Temperatura media	16.9
53722	7	Sololá	717	San Juan la Laguna	12	San Juan la Laguna	5	Mayo	2023-05-14T00:00:00	2024-11-08T05:00:00	4	Temperatura máxima	17.8
53723	7	Sololá	717	San Juan la Laguna	12	San Juan la Laguna	5	Mayo	2023-05-14T00:00:00	2024-11-08T05:00:00	3	Temperatura mínima	16.9
53724	7	Sololá	717	San Juan la Laguna	12	San Juan la Laguna	5	Mayo	2023-05-14T00:00:00	2024-11-08T05:00:00	5	Humedad	86
53725	7	Sololá	717	San Juan la Laguna	12	San Juan la Laguna	5	Mayo	2023-05-14T00:00:00	2024-11-08T05:00:00	6	Velocidad del viento	1.6
53726	7	Sololá	717	San Juan la Laguna	12	San Juan la Laguna	5	Mayo	2023-05-14T00:00:00	2024-11-08T05:00:00	7	Dirección del viento	1.61
53727	7	Sololá	717	San Juan la Laguna	12	San Juan la Laguna	5	Mayo	2023-05-14T00:00:00	2024-11-08T05:00:00	1	Precipitación	3.6
53728	7	Sololá	717	San Juan la Laguna	12	San Juan la Laguna	5	Mayo	2023-05-14T00:00:00	2024-11-08T05:00:00	8	Radiación solar	0
53729	7	Sololá	717	San Juan la Laguna	12	San Juan la Laguna	5	Mayo	2023-05-14T00:00:00	2024-11-08T06:00:00	2	Temperatura media	16.4
53730	7	Sololá	717	San Juan la Laguna	12	San Juan la Laguna	5	Mayo	2023-05-14T00:00:00	2024-11-08T06:00:00	4	Temperatura máxima	17.2
53731	7	Sololá	717	San Juan la Laguna	12	San Juan la Laguna	5	Mayo	2023-05-14T00:00:00	2024-11-08T06:00:00	3	Temperatura mínima	16.3
53732	7	Sololá	717	San Juan la Laguna	12	San Juan la Laguna	5	Mayo	2023-05-14T00:00:00	2024-11-08T06:00:00	5	Humedad	83
53733	7	Sololá	717	San Juan la Laguna	12	San Juan la Laguna	5	Mayo	2023-05-14T00:00:00	2024-11-08T06:00:00	6	Velocidad del viento	1.6
53734	7	Sololá	717	San Juan la Laguna	12	San Juan la Laguna	5	Mayo	2023-05-14T00:00:00	2024-11-08T06:00:00	7	Dirección del viento	1.61
53735	7	Sololá	717	San Juan la Laguna	12	San Juan la Laguna	5	Mayo	2023-05-14T00:00:00	2024-11-08T06:00:00	1	Precipitación	0.6
53736	7	Sololá	717	San Juan la Laguna	12	San Juan la Laguna	5	Mayo	2023-05-14T00:00:00	2024-11-08T06:00:00	8	Radiación solar	1
53737	7	Sololá	717	San Juan la Laguna	12	San Juan la Laguna	5	Mayo	2023-05-14T00:00:00	2024-11-08T07:00:00	2	Temperatura media	16.1
53738	7	Sololá	717	San Juan la Laguna	12	San Juan la Laguna	5	Mayo	2023-05-14T00:00:00	2024-11-08T07:00:00	4	Temperatura máxima	16.7
53739	7	Sololá	717	San Juan la Laguna	12	San Juan la Laguna	5	Mayo	2023-05-14T00:00:00	2024-11-08T07:00:00	3	Temperatura mínima	16.1
53740	7	Sololá	717	San Juan la Laguna	12	San Juan la Laguna	5	Mayo	2023-05-14T00:00:00	2024-11-08T07:00:00	5	Humedad	86
53741	7	Sololá	717	San Juan la Laguna	12	San Juan la Laguna	5	Mayo	2023-05-14T00:00:00	2024-11-08T07:00:00	6	Velocidad del viento	4.8
53742	7	Sololá	717	San Juan la Laguna	12	San Juan la Laguna	5	Mayo	2023-05-14T00:00:00	2024-11-08T07:00:00	7	Dirección del viento	4.83
53743	7	Sololá	717	San Juan la Laguna	12	San Juan la Laguna	5	Mayo	2023-05-14T00:00:00	2024-11-08T07:00:00	1	Precipitación	0
53744	7	Sololá	717	San Juan la Laguna	12	San Juan la Laguna	5	Mayo	2023-05-14T00:00:00	2024-11-08T07:00:00	8	Radiación solar	16
53745	7	Sololá	717	San Juan la Laguna	12	San Juan la Laguna	5	Mayo	2023-05-14T00:00:00	2024-11-08T08:00:00	2	Temperatura media	17.3
53746	7	Sololá	717	San Juan la Laguna	12	San Juan la Laguna	5	Mayo	2023-05-14T00:00:00	2024-11-08T08:00:00	4	Temperatura máxima	17.3
53747	7	Sololá	717	San Juan la Laguna	12	San Juan la Laguna	5	Mayo	2023-05-14T00:00:00	2024-11-08T08:00:00	3	Temperatura mínima	16.1
53748	7	Sololá	717	San Juan la Laguna	12	San Juan la Laguna	5	Mayo	2023-05-14T00:00:00	2024-11-08T08:00:00	5	Humedad	84
53749	7	Sololá	717	San Juan la Laguna	12	San Juan la Laguna	5	Mayo	2023-05-14T00:00:00	2024-11-08T08:00:00	6	Velocidad del viento	3.2
53750	7	Sololá	717	San Juan la Laguna	12	San Juan la Laguna	5	Mayo	2023-05-14T00:00:00	2024-11-08T08:00:00	7	Dirección del viento	3.22
53751	7	Sololá	717	San Juan la Laguna	12	San Juan la Laguna	5	Mayo	2023-05-14T00:00:00	2024-11-08T08:00:00	1	Precipitación	0
53752	7	Sololá	717	San Juan la Laguna	12	San Juan la Laguna	5	Mayo	2023-05-14T00:00:00	2024-11-08T08:00:00	8	Radiación solar	109
53753	7	Sololá	717	San Juan la Laguna	12	San Juan la Laguna	5	Mayo	2023-05-14T00:00:00	2024-11-08T09:00:00	2	Temperatura media	20.9
53754	7	Sololá	717	San Juan la Laguna	12	San Juan la Laguna	5	Mayo	2023-05-14T00:00:00	2024-11-08T09:00:00	4	Temperatura máxima	20.9
53755	7	Sololá	717	San Juan la Laguna	12	San Juan la Laguna	5	Mayo	2023-05-14T00:00:00	2024-11-08T09:00:00	3	Temperatura mínima	17.3
53756	7	Sololá	717	San Juan la Laguna	12	San Juan la Laguna	5	Mayo	2023-05-14T00:00:00	2024-11-08T09:00:00	5	Humedad	68
53757	7	Sololá	717	San Juan la Laguna	12	San Juan la Laguna	5	Mayo	2023-05-14T00:00:00	2024-11-08T09:00:00	6	Velocidad del viento	1.6
53758	7	Sololá	717	San Juan la Laguna	12	San Juan la Laguna	5	Mayo	2023-05-14T00:00:00	2024-11-08T09:00:00	7	Dirección del viento	1.61
53759	7	Sololá	717	San Juan la Laguna	12	San Juan la Laguna	5	Mayo	2023-05-14T00:00:00	2024-11-08T09:00:00	1	Precipitación	0
53760	7	Sololá	717	San Juan la Laguna	12	San Juan la Laguna	5	Mayo	2023-05-14T00:00:00	2024-11-08T09:00:00	8	Radiación solar	352
53761	7	Sololá	717	San Juan la Laguna	12	San Juan la Laguna	5	Mayo	2023-05-14T00:00:00	2024-11-08T10:00:00	2	Temperatura media	21.1
53762	7	Sololá	717	San Juan la Laguna	12	San Juan la Laguna	5	Mayo	2023-05-14T00:00:00	2024-11-08T10:00:00	4	Temperatura máxima	21.6
53763	7	Sololá	717	San Juan la Laguna	12	San Juan la Laguna	5	Mayo	2023-05-14T00:00:00	2024-11-08T10:00:00	3	Temperatura mínima	20.6
53764	7	Sololá	717	San Juan la Laguna	12	San Juan la Laguna	5	Mayo	2023-05-14T00:00:00	2024-11-08T10:00:00	5	Humedad	67
53765	7	Sololá	717	San Juan la Laguna	12	San Juan la Laguna	5	Mayo	2023-05-14T00:00:00	2024-11-08T10:00:00	6	Velocidad del viento	1.6
53766	7	Sololá	717	San Juan la Laguna	12	San Juan la Laguna	5	Mayo	2023-05-14T00:00:00	2024-11-08T10:00:00	7	Dirección del viento	1.61
53767	7	Sololá	717	San Juan la Laguna	12	San Juan la Laguna	5	Mayo	2023-05-14T00:00:00	2024-11-08T10:00:00	1	Precipitación	0
53768	7	Sololá	717	San Juan la Laguna	12	San Juan la Laguna	5	Mayo	2023-05-14T00:00:00	2024-11-08T10:00:00	8	Radiación solar	260
53769	7	Sololá	717	San Juan la Laguna	12	San Juan la Laguna	5	Mayo	2023-05-14T00:00:00	2024-11-08T11:00:00	2	Temperatura media	22.6
53770	7	Sololá	717	San Juan la Laguna	12	San Juan la Laguna	5	Mayo	2023-05-14T00:00:00	2024-11-08T11:00:00	4	Temperatura máxima	22.6
53771	7	Sololá	717	San Juan la Laguna	12	San Juan la Laguna	5	Mayo	2023-05-14T00:00:00	2024-11-08T11:00:00	3	Temperatura mínima	21.1
53772	7	Sololá	717	San Juan la Laguna	12	San Juan la Laguna	5	Mayo	2023-05-14T00:00:00	2024-11-08T11:00:00	5	Humedad	58
53773	7	Sololá	717	San Juan la Laguna	12	San Juan la Laguna	5	Mayo	2023-05-14T00:00:00	2024-11-08T11:00:00	6	Velocidad del viento	1.6
53774	7	Sololá	717	San Juan la Laguna	12	San Juan la Laguna	5	Mayo	2023-05-14T00:00:00	2024-11-08T11:00:00	7	Dirección del viento	1.61
53775	7	Sololá	717	San Juan la Laguna	12	San Juan la Laguna	5	Mayo	2023-05-14T00:00:00	2024-11-08T11:00:00	1	Precipitación	0
53776	7	Sololá	717	San Juan la Laguna	12	San Juan la Laguna	5	Mayo	2023-05-14T00:00:00	2024-11-08T11:00:00	8	Radiación solar	468
53777	7	Sololá	717	San Juan la Laguna	12	San Juan la Laguna	5	Mayo	2023-05-14T00:00:00	2024-11-08T12:00:00	2	Temperatura media	23.5
53778	7	Sololá	717	San Juan la Laguna	12	San Juan la Laguna	5	Mayo	2023-05-14T00:00:00	2024-11-08T12:00:00	4	Temperatura máxima	24
53779	7	Sololá	717	San Juan la Laguna	12	San Juan la Laguna	5	Mayo	2023-05-14T00:00:00	2024-11-08T12:00:00	3	Temperatura mínima	22.4
53780	7	Sololá	717	San Juan la Laguna	12	San Juan la Laguna	5	Mayo	2023-05-14T00:00:00	2024-11-08T12:00:00	5	Humedad	56
53781	7	Sololá	717	San Juan la Laguna	12	San Juan la Laguna	5	Mayo	2023-05-14T00:00:00	2024-11-08T12:00:00	6	Velocidad del viento	1.6
53782	7	Sololá	717	San Juan la Laguna	12	San Juan la Laguna	5	Mayo	2023-05-14T00:00:00	2024-11-08T12:00:00	7	Dirección del viento	1.61
53783	7	Sololá	717	San Juan la Laguna	12	San Juan la Laguna	5	Mayo	2023-05-14T00:00:00	2024-11-08T12:00:00	1	Precipitación	0
53784	7	Sololá	717	San Juan la Laguna	12	San Juan la Laguna	5	Mayo	2023-05-14T00:00:00	2024-11-08T12:00:00	8	Radiación solar	768
53785	7	Sololá	717	San Juan la Laguna	12	San Juan la Laguna	5	Mayo	2023-05-14T00:00:00	2024-11-08T13:00:00	2	Temperatura media	24.2
53786	7	Sololá	717	San Juan la Laguna	12	San Juan la Laguna	5	Mayo	2023-05-14T00:00:00	2024-11-08T13:00:00	4	Temperatura máxima	24.3
53787	7	Sololá	717	San Juan la Laguna	12	San Juan la Laguna	5	Mayo	2023-05-14T00:00:00	2024-11-08T13:00:00	3	Temperatura mínima	23.5
53788	7	Sololá	717	San Juan la Laguna	12	San Juan la Laguna	5	Mayo	2023-05-14T00:00:00	2024-11-08T13:00:00	5	Humedad	60
53789	7	Sololá	717	San Juan la Laguna	12	San Juan la Laguna	5	Mayo	2023-05-14T00:00:00	2024-11-08T13:00:00	6	Velocidad del viento	3.2
53790	7	Sololá	717	San Juan la Laguna	12	San Juan la Laguna	5	Mayo	2023-05-14T00:00:00	2024-11-08T13:00:00	7	Dirección del viento	3.22
53791	7	Sololá	717	San Juan la Laguna	12	San Juan la Laguna	5	Mayo	2023-05-14T00:00:00	2024-11-08T13:00:00	1	Precipitación	0
53792	7	Sololá	717	San Juan la Laguna	12	San Juan la Laguna	5	Mayo	2023-05-14T00:00:00	2024-11-08T13:00:00	8	Radiación solar	950
53793	7	Sololá	717	San Juan la Laguna	12	San Juan la Laguna	5	Mayo	2023-05-14T00:00:00	2024-11-08T14:00:00	2	Temperatura media	24
53794	7	Sololá	717	San Juan la Laguna	12	San Juan la Laguna	5	Mayo	2023-05-14T00:00:00	2024-11-08T14:00:00	4	Temperatura máxima	24.3
53795	7	Sololá	717	San Juan la Laguna	12	San Juan la Laguna	5	Mayo	2023-05-14T00:00:00	2024-11-08T14:00:00	3	Temperatura mínima	23.7
53796	7	Sololá	717	San Juan la Laguna	12	San Juan la Laguna	5	Mayo	2023-05-14T00:00:00	2024-11-08T14:00:00	5	Humedad	56
53797	7	Sololá	717	San Juan la Laguna	12	San Juan la Laguna	5	Mayo	2023-05-14T00:00:00	2024-11-08T14:00:00	6	Velocidad del viento	3.2
53798	7	Sololá	717	San Juan la Laguna	12	San Juan la Laguna	5	Mayo	2023-05-14T00:00:00	2024-11-08T14:00:00	7	Dirección del viento	3.22
53799	7	Sololá	717	San Juan la Laguna	12	San Juan la Laguna	5	Mayo	2023-05-14T00:00:00	2024-11-08T14:00:00	1	Precipitación	0
53800	7	Sololá	717	San Juan la Laguna	12	San Juan la Laguna	5	Mayo	2023-05-14T00:00:00	2024-11-08T14:00:00	8	Radiación solar	666
53801	7	Sololá	717	San Juan la Laguna	12	San Juan la Laguna	5	Mayo	2023-05-14T00:00:00	2024-11-08T15:00:00	2	Temperatura media	23.9
53802	7	Sololá	717	San Juan la Laguna	12	San Juan la Laguna	5	Mayo	2023-05-14T00:00:00	2024-11-08T15:00:00	4	Temperatura máxima	24
53803	7	Sololá	717	San Juan la Laguna	12	San Juan la Laguna	5	Mayo	2023-05-14T00:00:00	2024-11-08T15:00:00	3	Temperatura mínima	23.6
53804	7	Sololá	717	San Juan la Laguna	12	San Juan la Laguna	5	Mayo	2023-05-14T00:00:00	2024-11-08T15:00:00	5	Humedad	60
53805	7	Sololá	717	San Juan la Laguna	12	San Juan la Laguna	5	Mayo	2023-05-14T00:00:00	2024-11-08T15:00:00	6	Velocidad del viento	1.6
53806	7	Sololá	717	San Juan la Laguna	12	San Juan la Laguna	5	Mayo	2023-05-14T00:00:00	2024-11-08T15:00:00	7	Dirección del viento	1.61
53807	7	Sololá	717	San Juan la Laguna	12	San Juan la Laguna	5	Mayo	2023-05-14T00:00:00	2024-11-08T15:00:00	1	Precipitación	0
53808	7	Sololá	717	San Juan la Laguna	12	San Juan la Laguna	5	Mayo	2023-05-14T00:00:00	2024-11-08T15:00:00	8	Radiación solar	719
53809	7	Sololá	717	San Juan la Laguna	12	San Juan la Laguna	5	Mayo	2023-05-14T00:00:00	2024-11-08T16:00:00	2	Temperatura media	23.7
53810	7	Sololá	717	San Juan la Laguna	12	San Juan la Laguna	5	Mayo	2023-05-14T00:00:00	2024-11-08T16:00:00	4	Temperatura máxima	23.8
53811	7	Sololá	717	San Juan la Laguna	12	San Juan la Laguna	5	Mayo	2023-05-14T00:00:00	2024-11-08T16:00:00	3	Temperatura mínima	23.4
53812	7	Sololá	717	San Juan la Laguna	12	San Juan la Laguna	5	Mayo	2023-05-14T00:00:00	2024-11-08T16:00:00	5	Humedad	67
53813	7	Sololá	717	San Juan la Laguna	12	San Juan la Laguna	5	Mayo	2023-05-14T00:00:00	2024-11-08T16:00:00	6	Velocidad del viento	0
53814	7	Sololá	717	San Juan la Laguna	12	San Juan la Laguna	5	Mayo	2023-05-14T00:00:00	2024-11-08T16:00:00	7	Dirección del viento	0
53815	7	Sololá	717	San Juan la Laguna	12	San Juan la Laguna	5	Mayo	2023-05-14T00:00:00	2024-11-08T16:00:00	1	Precipitación	0
53816	7	Sololá	717	San Juan la Laguna	12	San Juan la Laguna	5	Mayo	2023-05-14T00:00:00	2024-11-08T16:00:00	8	Radiación solar	474
53817	7	Sololá	717	San Juan la Laguna	12	San Juan la Laguna	5	Mayo	2023-05-14T00:00:00	2024-11-08T17:00:00	2	Temperatura media	22.5
53818	7	Sololá	717	San Juan la Laguna	12	San Juan la Laguna	5	Mayo	2023-05-14T00:00:00	2024-11-08T17:00:00	4	Temperatura máxima	23.8
53819	7	Sololá	717	San Juan la Laguna	12	San Juan la Laguna	5	Mayo	2023-05-14T00:00:00	2024-11-08T17:00:00	3	Temperatura mínima	22.5
53820	7	Sololá	717	San Juan la Laguna	12	San Juan la Laguna	5	Mayo	2023-05-14T00:00:00	2024-11-08T17:00:00	5	Humedad	71
53821	7	Sololá	717	San Juan la Laguna	12	San Juan la Laguna	5	Mayo	2023-05-14T00:00:00	2024-11-08T17:00:00	6	Velocidad del viento	1.6
53822	7	Sololá	717	San Juan la Laguna	12	San Juan la Laguna	5	Mayo	2023-05-14T00:00:00	2024-11-08T17:00:00	7	Dirección del viento	1.61
53823	7	Sololá	717	San Juan la Laguna	12	San Juan la Laguna	5	Mayo	2023-05-14T00:00:00	2024-11-08T17:00:00	1	Precipitación	0
53824	7	Sololá	717	San Juan la Laguna	12	San Juan la Laguna	5	Mayo	2023-05-14T00:00:00	2024-11-08T17:00:00	8	Radiación solar	242
53825	7	Sololá	717	San Juan la Laguna	12	San Juan la Laguna	5	Mayo	2023-05-14T00:00:00	2024-11-08T18:00:00	2	Temperatura media	20.8
53826	7	Sololá	717	San Juan la Laguna	12	San Juan la Laguna	5	Mayo	2023-05-14T00:00:00	2024-11-08T18:00:00	4	Temperatura máxima	22.5
53827	7	Sololá	717	San Juan la Laguna	12	San Juan la Laguna	5	Mayo	2023-05-14T00:00:00	2024-11-08T18:00:00	3	Temperatura mínima	20.8
53828	7	Sololá	717	San Juan la Laguna	12	San Juan la Laguna	5	Mayo	2023-05-14T00:00:00	2024-11-08T18:00:00	5	Humedad	82
53829	7	Sololá	717	San Juan la Laguna	12	San Juan la Laguna	5	Mayo	2023-05-14T00:00:00	2024-11-08T18:00:00	6	Velocidad del viento	3.2
53830	7	Sololá	717	San Juan la Laguna	12	San Juan la Laguna	5	Mayo	2023-05-14T00:00:00	2024-11-08T18:00:00	7	Dirección del viento	3.22
53831	7	Sololá	717	San Juan la Laguna	12	San Juan la Laguna	5	Mayo	2023-05-14T00:00:00	2024-11-08T18:00:00	1	Precipitación	0
53832	7	Sololá	717	San Juan la Laguna	12	San Juan la Laguna	5	Mayo	2023-05-14T00:00:00	2024-11-08T18:00:00	8	Radiación solar	25
53833	7	Sololá	717	San Juan la Laguna	12	San Juan la Laguna	5	Mayo	2023-05-14T00:00:00	2024-11-08T19:00:00	2	Temperatura media	19.5
53834	7	Sololá	717	San Juan la Laguna	12	San Juan la Laguna	5	Mayo	2023-05-14T00:00:00	2024-11-08T19:00:00	4	Temperatura máxima	20.8
53835	7	Sololá	717	San Juan la Laguna	12	San Juan la Laguna	5	Mayo	2023-05-14T00:00:00	2024-11-08T19:00:00	3	Temperatura mínima	19.5
53836	7	Sololá	717	San Juan la Laguna	12	San Juan la Laguna	5	Mayo	2023-05-14T00:00:00	2024-11-08T19:00:00	5	Humedad	88
53837	7	Sololá	717	San Juan la Laguna	12	San Juan la Laguna	5	Mayo	2023-05-14T00:00:00	2024-11-08T19:00:00	6	Velocidad del viento	1.6
53838	7	Sololá	717	San Juan la Laguna	12	San Juan la Laguna	5	Mayo	2023-05-14T00:00:00	2024-11-08T19:00:00	7	Dirección del viento	1.61
53839	7	Sololá	717	San Juan la Laguna	12	San Juan la Laguna	5	Mayo	2023-05-14T00:00:00	2024-11-08T19:00:00	1	Precipitación	2.6
53840	7	Sololá	717	San Juan la Laguna	12	San Juan la Laguna	5	Mayo	2023-05-14T00:00:00	2024-11-08T19:00:00	8	Radiación solar	0
53841	7	Sololá	717	San Juan la Laguna	12	San Juan la Laguna	5	Mayo	2023-05-14T00:00:00	2024-11-08T20:00:00	2	Temperatura media	18.6
53842	7	Sololá	717	San Juan la Laguna	12	San Juan la Laguna	5	Mayo	2023-05-14T00:00:00	2024-11-08T20:00:00	4	Temperatura máxima	19.5
53843	7	Sololá	717	San Juan la Laguna	12	San Juan la Laguna	5	Mayo	2023-05-14T00:00:00	2024-11-08T20:00:00	3	Temperatura mínima	18.6
53844	7	Sololá	717	San Juan la Laguna	12	San Juan la Laguna	5	Mayo	2023-05-14T00:00:00	2024-11-08T20:00:00	5	Humedad	88
53845	7	Sololá	717	San Juan la Laguna	12	San Juan la Laguna	5	Mayo	2023-05-14T00:00:00	2024-11-08T20:00:00	6	Velocidad del viento	3.2
53846	7	Sololá	717	San Juan la Laguna	12	San Juan la Laguna	5	Mayo	2023-05-14T00:00:00	2024-11-08T20:00:00	7	Dirección del viento	3.22
53847	7	Sololá	717	San Juan la Laguna	12	San Juan la Laguna	5	Mayo	2023-05-14T00:00:00	2024-11-08T20:00:00	1	Precipitación	1
53848	7	Sololá	717	San Juan la Laguna	12	San Juan la Laguna	5	Mayo	2023-05-14T00:00:00	2024-11-08T20:00:00	8	Radiación solar	0
53849	7	Sololá	717	San Juan la Laguna	12	San Juan la Laguna	5	Mayo	2023-05-14T00:00:00	2024-11-08T21:00:00	2	Temperatura media	17.8
53850	7	Sololá	717	San Juan la Laguna	12	San Juan la Laguna	5	Mayo	2023-05-14T00:00:00	2024-11-08T21:00:00	4	Temperatura máxima	18.6
53851	7	Sololá	717	San Juan la Laguna	12	San Juan la Laguna	5	Mayo	2023-05-14T00:00:00	2024-11-08T21:00:00	3	Temperatura mínima	17.8
53852	7	Sololá	717	San Juan la Laguna	12	San Juan la Laguna	5	Mayo	2023-05-14T00:00:00	2024-11-08T21:00:00	5	Humedad	90
53853	7	Sololá	717	San Juan la Laguna	12	San Juan la Laguna	5	Mayo	2023-05-14T00:00:00	2024-11-08T21:00:00	6	Velocidad del viento	1.6
53854	7	Sololá	717	San Juan la Laguna	12	San Juan la Laguna	5	Mayo	2023-05-14T00:00:00	2024-11-08T21:00:00	7	Dirección del viento	1.61
53855	7	Sololá	717	San Juan la Laguna	12	San Juan la Laguna	5	Mayo	2023-05-14T00:00:00	2024-11-08T21:00:00	1	Precipitación	0
53856	7	Sololá	717	San Juan la Laguna	12	San Juan la Laguna	5	Mayo	2023-05-14T00:00:00	2024-11-08T21:00:00	8	Radiación solar	0
53857	7	Sololá	717	San Juan la Laguna	12	San Juan la Laguna	5	Mayo	2023-05-14T00:00:00	2024-11-08T22:00:00	2	Temperatura media	17.5
53858	7	Sololá	717	San Juan la Laguna	12	San Juan la Laguna	5	Mayo	2023-05-14T00:00:00	2024-11-08T22:00:00	4	Temperatura máxima	17.8
53859	7	Sololá	717	San Juan la Laguna	12	San Juan la Laguna	5	Mayo	2023-05-14T00:00:00	2024-11-08T22:00:00	3	Temperatura mínima	17.5
53860	7	Sololá	717	San Juan la Laguna	12	San Juan la Laguna	5	Mayo	2023-05-14T00:00:00	2024-11-08T22:00:00	5	Humedad	87
53861	7	Sololá	717	San Juan la Laguna	12	San Juan la Laguna	5	Mayo	2023-05-14T00:00:00	2024-11-08T22:00:00	6	Velocidad del viento	4.8
53862	7	Sololá	717	San Juan la Laguna	12	San Juan la Laguna	5	Mayo	2023-05-14T00:00:00	2024-11-08T22:00:00	7	Dirección del viento	4.83
53863	7	Sololá	717	San Juan la Laguna	12	San Juan la Laguna	5	Mayo	2023-05-14T00:00:00	2024-11-08T22:00:00	1	Precipitación	0
53864	7	Sololá	717	San Juan la Laguna	12	San Juan la Laguna	5	Mayo	2023-05-14T00:00:00	2024-11-08T22:00:00	8	Radiación solar	0
53865	7	Sololá	717	San Juan la Laguna	12	San Juan la Laguna	5	Mayo	2023-05-14T00:00:00	2024-11-08T23:00:00	2	Temperatura media	16.9
53866	7	Sololá	717	San Juan la Laguna	12	San Juan la Laguna	5	Mayo	2023-05-14T00:00:00	2024-11-08T23:00:00	4	Temperatura máxima	17.5
53867	7	Sololá	717	San Juan la Laguna	12	San Juan la Laguna	5	Mayo	2023-05-14T00:00:00	2024-11-08T23:00:00	3	Temperatura mínima	16.9
53868	7	Sololá	717	San Juan la Laguna	12	San Juan la Laguna	5	Mayo	2023-05-14T00:00:00	2024-11-08T23:00:00	5	Humedad	90
53869	7	Sololá	717	San Juan la Laguna	12	San Juan la Laguna	5	Mayo	2023-05-14T00:00:00	2024-11-08T23:00:00	6	Velocidad del viento	3.2
53870	7	Sololá	717	San Juan la Laguna	12	San Juan la Laguna	5	Mayo	2023-05-14T00:00:00	2024-11-08T23:00:00	7	Dirección del viento	3.22
53871	7	Sololá	717	San Juan la Laguna	12	San Juan la Laguna	5	Mayo	2023-05-14T00:00:00	2024-11-08T23:00:00	1	Precipitación	0
53872	7	Sololá	717	San Juan la Laguna	12	San Juan la Laguna	5	Mayo	2023-05-14T00:00:00	2024-11-08T23:00:00	8	Radiación solar	0
53873	7	Sololá	717	San Juan la Laguna	12	San Juan la Laguna	5	Mayo	2023-05-15T00:00:00	2024-11-08T00:00:00	2	Temperatura media	16.3
53874	7	Sololá	717	San Juan la Laguna	12	San Juan la Laguna	5	Mayo	2023-05-15T00:00:00	2024-11-08T00:00:00	4	Temperatura máxima	16.9
53875	7	Sololá	717	San Juan la Laguna	12	San Juan la Laguna	5	Mayo	2023-05-15T00:00:00	2024-11-08T00:00:00	3	Temperatura mínima	16.3
53876	7	Sololá	717	San Juan la Laguna	12	San Juan la Laguna	5	Mayo	2023-05-15T00:00:00	2024-11-08T00:00:00	5	Humedad	90
53877	7	Sololá	717	San Juan la Laguna	12	San Juan la Laguna	5	Mayo	2023-05-15T00:00:00	2024-11-08T00:00:00	6	Velocidad del viento	3.2
53878	7	Sololá	717	San Juan la Laguna	12	San Juan la Laguna	5	Mayo	2023-05-15T00:00:00	2024-11-08T00:00:00	7	Dirección del viento	3.22
53879	7	Sololá	717	San Juan la Laguna	12	San Juan la Laguna	5	Mayo	2023-05-15T00:00:00	2024-11-08T00:00:00	1	Precipitación	0
53880	7	Sololá	717	San Juan la Laguna	12	San Juan la Laguna	5	Mayo	2023-05-15T00:00:00	2024-11-08T00:00:00	8	Radiación solar	0
53881	7	Sololá	717	San Juan la Laguna	12	San Juan la Laguna	5	Mayo	2023-05-15T00:00:00	2024-11-08T01:00:00	2	Temperatura media	16.1
53882	7	Sololá	717	San Juan la Laguna	12	San Juan la Laguna	5	Mayo	2023-05-15T00:00:00	2024-11-08T01:00:00	4	Temperatura máxima	16.3
53883	7	Sololá	717	San Juan la Laguna	12	San Juan la Laguna	5	Mayo	2023-05-15T00:00:00	2024-11-08T01:00:00	3	Temperatura mínima	15.9
53884	7	Sololá	717	San Juan la Laguna	12	San Juan la Laguna	5	Mayo	2023-05-15T00:00:00	2024-11-08T01:00:00	5	Humedad	88
53885	7	Sololá	717	San Juan la Laguna	12	San Juan la Laguna	5	Mayo	2023-05-15T00:00:00	2024-11-08T01:00:00	6	Velocidad del viento	3.2
53886	7	Sololá	717	San Juan la Laguna	12	San Juan la Laguna	5	Mayo	2023-05-15T00:00:00	2024-11-08T01:00:00	7	Dirección del viento	3.22
53887	7	Sololá	717	San Juan la Laguna	12	San Juan la Laguna	5	Mayo	2023-05-15T00:00:00	2024-11-08T01:00:00	1	Precipitación	0
53888	7	Sololá	717	San Juan la Laguna	12	San Juan la Laguna	5	Mayo	2023-05-15T00:00:00	2024-11-08T01:00:00	8	Radiación solar	0
53889	7	Sololá	717	San Juan la Laguna	12	San Juan la Laguna	5	Mayo	2023-05-15T00:00:00	2024-11-08T02:00:00	2	Temperatura media	16.2
53890	7	Sololá	717	San Juan la Laguna	12	San Juan la Laguna	5	Mayo	2023-05-15T00:00:00	2024-11-08T02:00:00	4	Temperatura máxima	16.2
53891	7	Sololá	717	San Juan la Laguna	12	San Juan la Laguna	5	Mayo	2023-05-15T00:00:00	2024-11-08T02:00:00	3	Temperatura mínima	15.8
53892	7	Sololá	717	San Juan la Laguna	12	San Juan la Laguna	5	Mayo	2023-05-15T00:00:00	2024-11-08T02:00:00	5	Humedad	86
53893	7	Sololá	717	San Juan la Laguna	12	San Juan la Laguna	5	Mayo	2023-05-15T00:00:00	2024-11-08T02:00:00	6	Velocidad del viento	3.2
53894	7	Sololá	717	San Juan la Laguna	12	San Juan la Laguna	5	Mayo	2023-05-15T00:00:00	2024-11-08T02:00:00	7	Dirección del viento	3.22
53895	7	Sololá	717	San Juan la Laguna	12	San Juan la Laguna	5	Mayo	2023-05-15T00:00:00	2024-11-08T02:00:00	1	Precipitación	0
53896	7	Sololá	717	San Juan la Laguna	12	San Juan la Laguna	5	Mayo	2023-05-15T00:00:00	2024-11-08T02:00:00	8	Radiación solar	0
53897	7	Sololá	717	San Juan la Laguna	12	San Juan la Laguna	5	Mayo	2023-05-15T00:00:00	2024-11-08T03:00:00	2	Temperatura media	16.1
53898	7	Sololá	717	San Juan la Laguna	12	San Juan la Laguna	5	Mayo	2023-05-15T00:00:00	2024-11-08T03:00:00	4	Temperatura máxima	16.2
53899	7	Sololá	717	San Juan la Laguna	12	San Juan la Laguna	5	Mayo	2023-05-15T00:00:00	2024-11-08T03:00:00	3	Temperatura mínima	15.9
53900	7	Sololá	717	San Juan la Laguna	12	San Juan la Laguna	5	Mayo	2023-05-15T00:00:00	2024-11-08T03:00:00	5	Humedad	85
53901	7	Sololá	717	San Juan la Laguna	12	San Juan la Laguna	5	Mayo	2023-05-15T00:00:00	2024-11-08T03:00:00	6	Velocidad del viento	4.8
53902	7	Sololá	717	San Juan la Laguna	12	San Juan la Laguna	5	Mayo	2023-05-15T00:00:00	2024-11-08T03:00:00	7	Dirección del viento	4.83
53903	7	Sololá	717	San Juan la Laguna	12	San Juan la Laguna	5	Mayo	2023-05-15T00:00:00	2024-11-08T03:00:00	1	Precipitación	0
53904	7	Sololá	717	San Juan la Laguna	12	San Juan la Laguna	5	Mayo	2023-05-15T00:00:00	2024-11-08T03:00:00	8	Radiación solar	0
53905	7	Sololá	717	San Juan la Laguna	12	San Juan la Laguna	5	Mayo	2023-05-15T00:00:00	2024-11-08T04:00:00	2	Temperatura media	16.2
53906	7	Sololá	717	San Juan la Laguna	12	San Juan la Laguna	5	Mayo	2023-05-15T00:00:00	2024-11-08T04:00:00	4	Temperatura máxima	16.3
53907	7	Sololá	717	San Juan la Laguna	12	San Juan la Laguna	5	Mayo	2023-05-15T00:00:00	2024-11-08T04:00:00	3	Temperatura mínima	16
53908	7	Sololá	717	San Juan la Laguna	12	San Juan la Laguna	5	Mayo	2023-05-15T00:00:00	2024-11-08T04:00:00	5	Humedad	87
53909	7	Sololá	717	San Juan la Laguna	12	San Juan la Laguna	5	Mayo	2023-05-15T00:00:00	2024-11-08T04:00:00	6	Velocidad del viento	3.2
53910	7	Sololá	717	San Juan la Laguna	12	San Juan la Laguna	5	Mayo	2023-05-15T00:00:00	2024-11-08T04:00:00	7	Dirección del viento	3.22
53911	7	Sololá	717	San Juan la Laguna	12	San Juan la Laguna	5	Mayo	2023-05-15T00:00:00	2024-11-08T04:00:00	1	Precipitación	0
53912	7	Sololá	717	San Juan la Laguna	12	San Juan la Laguna	5	Mayo	2023-05-15T00:00:00	2024-11-08T04:00:00	8	Radiación solar	0
53913	7	Sololá	717	San Juan la Laguna	12	San Juan la Laguna	5	Mayo	2023-05-15T00:00:00	2024-11-08T05:00:00	2	Temperatura media	15.9
53914	7	Sololá	717	San Juan la Laguna	12	San Juan la Laguna	5	Mayo	2023-05-15T00:00:00	2024-11-08T05:00:00	4	Temperatura máxima	16.2
53915	7	Sololá	717	San Juan la Laguna	12	San Juan la Laguna	5	Mayo	2023-05-15T00:00:00	2024-11-08T05:00:00	3	Temperatura mínima	15.8
53916	7	Sololá	717	San Juan la Laguna	12	San Juan la Laguna	5	Mayo	2023-05-15T00:00:00	2024-11-08T05:00:00	5	Humedad	87
53917	7	Sololá	717	San Juan la Laguna	12	San Juan la Laguna	5	Mayo	2023-05-15T00:00:00	2024-11-08T05:00:00	6	Velocidad del viento	3.2
53918	7	Sololá	717	San Juan la Laguna	12	San Juan la Laguna	5	Mayo	2023-05-15T00:00:00	2024-11-08T05:00:00	7	Dirección del viento	3.22
53919	7	Sololá	717	San Juan la Laguna	12	San Juan la Laguna	5	Mayo	2023-05-15T00:00:00	2024-11-08T05:00:00	1	Precipitación	0
53920	7	Sololá	717	San Juan la Laguna	12	San Juan la Laguna	5	Mayo	2023-05-15T00:00:00	2024-11-08T05:00:00	8	Radiación solar	0
53921	7	Sololá	717	San Juan la Laguna	12	San Juan la Laguna	5	Mayo	2023-05-15T00:00:00	2024-11-08T06:00:00	2	Temperatura media	16.3
53922	7	Sololá	717	San Juan la Laguna	12	San Juan la Laguna	5	Mayo	2023-05-15T00:00:00	2024-11-08T06:00:00	4	Temperatura máxima	16.3
53923	7	Sololá	717	San Juan la Laguna	12	San Juan la Laguna	5	Mayo	2023-05-15T00:00:00	2024-11-08T06:00:00	3	Temperatura mínima	15.9
53924	7	Sololá	717	San Juan la Laguna	12	San Juan la Laguna	5	Mayo	2023-05-15T00:00:00	2024-11-08T06:00:00	5	Humedad	85
53925	7	Sololá	717	San Juan la Laguna	12	San Juan la Laguna	5	Mayo	2023-05-15T00:00:00	2024-11-08T06:00:00	6	Velocidad del viento	3.2
53926	7	Sololá	717	San Juan la Laguna	12	San Juan la Laguna	5	Mayo	2023-05-15T00:00:00	2024-11-08T06:00:00	7	Dirección del viento	3.22
53927	7	Sololá	717	San Juan la Laguna	12	San Juan la Laguna	5	Mayo	2023-05-15T00:00:00	2024-11-08T06:00:00	1	Precipitación	0
53928	7	Sololá	717	San Juan la Laguna	12	San Juan la Laguna	5	Mayo	2023-05-15T00:00:00	2024-11-08T06:00:00	8	Radiación solar	3
53929	7	Sololá	717	San Juan la Laguna	12	San Juan la Laguna	5	Mayo	2023-05-15T00:00:00	2024-11-08T07:00:00	2	Temperatura media	17.5
53930	7	Sololá	717	San Juan la Laguna	12	San Juan la Laguna	5	Mayo	2023-05-15T00:00:00	2024-11-08T07:00:00	4	Temperatura máxima	17.5
53931	7	Sololá	717	San Juan la Laguna	12	San Juan la Laguna	5	Mayo	2023-05-15T00:00:00	2024-11-08T07:00:00	3	Temperatura mínima	16.3
53932	7	Sololá	717	San Juan la Laguna	12	San Juan la Laguna	5	Mayo	2023-05-15T00:00:00	2024-11-08T07:00:00	5	Humedad	84
53933	7	Sololá	717	San Juan la Laguna	12	San Juan la Laguna	5	Mayo	2023-05-15T00:00:00	2024-11-08T07:00:00	6	Velocidad del viento	1.6
53934	7	Sololá	717	San Juan la Laguna	12	San Juan la Laguna	5	Mayo	2023-05-15T00:00:00	2024-11-08T07:00:00	7	Dirección del viento	1.61
53935	7	Sololá	717	San Juan la Laguna	12	San Juan la Laguna	5	Mayo	2023-05-15T00:00:00	2024-11-08T07:00:00	1	Precipitación	0
53936	7	Sololá	717	San Juan la Laguna	12	San Juan la Laguna	5	Mayo	2023-05-15T00:00:00	2024-11-08T07:00:00	8	Radiación solar	61
53937	7	Sololá	717	San Juan la Laguna	12	San Juan la Laguna	5	Mayo	2023-05-15T00:00:00	2024-11-08T08:00:00	2	Temperatura media	19.4
53938	7	Sololá	717	San Juan la Laguna	12	San Juan la Laguna	5	Mayo	2023-05-15T00:00:00	2024-11-08T08:00:00	4	Temperatura máxima	19.4
53939	7	Sololá	717	San Juan la Laguna	12	San Juan la Laguna	5	Mayo	2023-05-15T00:00:00	2024-11-08T08:00:00	3	Temperatura mínima	17.5
53940	7	Sololá	717	San Juan la Laguna	12	San Juan la Laguna	5	Mayo	2023-05-15T00:00:00	2024-11-08T08:00:00	5	Humedad	79
53941	7	Sololá	717	San Juan la Laguna	12	San Juan la Laguna	5	Mayo	2023-05-15T00:00:00	2024-11-08T08:00:00	6	Velocidad del viento	0
53942	7	Sololá	717	San Juan la Laguna	12	San Juan la Laguna	5	Mayo	2023-05-15T00:00:00	2024-11-08T08:00:00	7	Dirección del viento	0
53943	7	Sololá	717	San Juan la Laguna	12	San Juan la Laguna	5	Mayo	2023-05-15T00:00:00	2024-11-08T08:00:00	1	Precipitación	0
53944	7	Sololá	717	San Juan la Laguna	12	San Juan la Laguna	5	Mayo	2023-05-15T00:00:00	2024-11-08T08:00:00	8	Radiación solar	178
53945	7	Sololá	717	San Juan la Laguna	12	San Juan la Laguna	5	Mayo	2023-05-15T00:00:00	2024-11-08T09:00:00	2	Temperatura media	22.1
53946	7	Sololá	717	San Juan la Laguna	12	San Juan la Laguna	5	Mayo	2023-05-15T00:00:00	2024-11-08T09:00:00	4	Temperatura máxima	22.1
53947	7	Sololá	717	San Juan la Laguna	12	San Juan la Laguna	5	Mayo	2023-05-15T00:00:00	2024-11-08T09:00:00	3	Temperatura mínima	19.4
53948	7	Sololá	717	San Juan la Laguna	12	San Juan la Laguna	5	Mayo	2023-05-15T00:00:00	2024-11-08T09:00:00	5	Humedad	70
53949	7	Sololá	717	San Juan la Laguna	12	San Juan la Laguna	5	Mayo	2023-05-15T00:00:00	2024-11-08T09:00:00	6	Velocidad del viento	1.6
53950	7	Sololá	717	San Juan la Laguna	12	San Juan la Laguna	5	Mayo	2023-05-15T00:00:00	2024-11-08T09:00:00	7	Dirección del viento	1.61
53951	7	Sololá	717	San Juan la Laguna	12	San Juan la Laguna	5	Mayo	2023-05-15T00:00:00	2024-11-08T09:00:00	1	Precipitación	0
53952	7	Sololá	717	San Juan la Laguna	12	San Juan la Laguna	5	Mayo	2023-05-15T00:00:00	2024-11-08T09:00:00	8	Radiación solar	364
53953	7	Sololá	717	San Juan la Laguna	12	San Juan la Laguna	5	Mayo	2023-05-15T00:00:00	2024-11-08T10:00:00	2	Temperatura media	23.1
53954	7	Sololá	717	San Juan la Laguna	12	San Juan la Laguna	5	Mayo	2023-05-15T00:00:00	2024-11-08T10:00:00	4	Temperatura máxima	23.1
53955	7	Sololá	717	San Juan la Laguna	12	San Juan la Laguna	5	Mayo	2023-05-15T00:00:00	2024-11-08T10:00:00	3	Temperatura mínima	21.3
53956	7	Sololá	717	San Juan la Laguna	12	San Juan la Laguna	5	Mayo	2023-05-15T00:00:00	2024-11-08T10:00:00	5	Humedad	62
53957	7	Sololá	717	San Juan la Laguna	12	San Juan la Laguna	5	Mayo	2023-05-15T00:00:00	2024-11-08T10:00:00	6	Velocidad del viento	1.6
53958	7	Sololá	717	San Juan la Laguna	12	San Juan la Laguna	5	Mayo	2023-05-15T00:00:00	2024-11-08T10:00:00	7	Dirección del viento	1.61
53959	7	Sololá	717	San Juan la Laguna	12	San Juan la Laguna	5	Mayo	2023-05-15T00:00:00	2024-11-08T10:00:00	1	Precipitación	0
53960	7	Sololá	717	San Juan la Laguna	12	San Juan la Laguna	5	Mayo	2023-05-15T00:00:00	2024-11-08T10:00:00	8	Radiación solar	700
53961	7	Sololá	717	San Juan la Laguna	12	San Juan la Laguna	5	Mayo	2023-05-15T00:00:00	2024-11-08T11:00:00	2	Temperatura media	22.4
53962	7	Sololá	717	San Juan la Laguna	12	San Juan la Laguna	5	Mayo	2023-05-15T00:00:00	2024-11-08T11:00:00	4	Temperatura máxima	23.8
53963	7	Sololá	717	San Juan la Laguna	12	San Juan la Laguna	5	Mayo	2023-05-15T00:00:00	2024-11-08T11:00:00	3	Temperatura mínima	22.4
53964	7	Sololá	717	San Juan la Laguna	12	San Juan la Laguna	5	Mayo	2023-05-15T00:00:00	2024-11-08T11:00:00	5	Humedad	65
53965	7	Sololá	717	San Juan la Laguna	12	San Juan la Laguna	5	Mayo	2023-05-15T00:00:00	2024-11-08T11:00:00	6	Velocidad del viento	1.6
53966	7	Sololá	717	San Juan la Laguna	12	San Juan la Laguna	5	Mayo	2023-05-15T00:00:00	2024-11-08T11:00:00	7	Dirección del viento	1.61
53967	7	Sololá	717	San Juan la Laguna	12	San Juan la Laguna	5	Mayo	2023-05-15T00:00:00	2024-11-08T11:00:00	1	Precipitación	0
53968	7	Sololá	717	San Juan la Laguna	12	San Juan la Laguna	5	Mayo	2023-05-15T00:00:00	2024-11-08T11:00:00	8	Radiación solar	626
53969	7	Sololá	717	San Juan la Laguna	12	San Juan la Laguna	5	Mayo	2023-05-15T00:00:00	2024-11-08T12:00:00	2	Temperatura media	21.8
53970	7	Sololá	717	San Juan la Laguna	12	San Juan la Laguna	5	Mayo	2023-05-15T00:00:00	2024-11-08T12:00:00	4	Temperatura máxima	22.7
53971	7	Sololá	717	San Juan la Laguna	12	San Juan la Laguna	5	Mayo	2023-05-15T00:00:00	2024-11-08T12:00:00	3	Temperatura mínima	21.8
53972	7	Sololá	717	San Juan la Laguna	12	San Juan la Laguna	5	Mayo	2023-05-15T00:00:00	2024-11-08T12:00:00	5	Humedad	74
53973	7	Sololá	717	San Juan la Laguna	12	San Juan la Laguna	5	Mayo	2023-05-15T00:00:00	2024-11-08T12:00:00	6	Velocidad del viento	3.2
53974	7	Sololá	717	San Juan la Laguna	12	San Juan la Laguna	5	Mayo	2023-05-15T00:00:00	2024-11-08T12:00:00	7	Dirección del viento	3.22
53975	7	Sololá	717	San Juan la Laguna	12	San Juan la Laguna	5	Mayo	2023-05-15T00:00:00	2024-11-08T12:00:00	1	Precipitación	0
53976	7	Sololá	717	San Juan la Laguna	12	San Juan la Laguna	5	Mayo	2023-05-15T00:00:00	2024-11-08T12:00:00	8	Radiación solar	265
53977	7	Sololá	717	San Juan la Laguna	12	San Juan la Laguna	5	Mayo	2023-05-15T00:00:00	2024-11-08T13:00:00	2	Temperatura media	23.4
53978	7	Sololá	717	San Juan la Laguna	12	San Juan la Laguna	5	Mayo	2023-05-15T00:00:00	2024-11-08T13:00:00	4	Temperatura máxima	23.6
53979	7	Sololá	717	San Juan la Laguna	12	San Juan la Laguna	5	Mayo	2023-05-15T00:00:00	2024-11-08T13:00:00	3	Temperatura mínima	21.7
53980	7	Sololá	717	San Juan la Laguna	12	San Juan la Laguna	5	Mayo	2023-05-15T00:00:00	2024-11-08T13:00:00	5	Humedad	68
53981	7	Sololá	717	San Juan la Laguna	12	San Juan la Laguna	5	Mayo	2023-05-15T00:00:00	2024-11-08T13:00:00	6	Velocidad del viento	4.8
53982	7	Sololá	717	San Juan la Laguna	12	San Juan la Laguna	5	Mayo	2023-05-15T00:00:00	2024-11-08T13:00:00	7	Dirección del viento	4.83
53983	7	Sololá	717	San Juan la Laguna	12	San Juan la Laguna	5	Mayo	2023-05-15T00:00:00	2024-11-08T13:00:00	1	Precipitación	0
53984	7	Sololá	717	San Juan la Laguna	12	San Juan la Laguna	5	Mayo	2023-05-15T00:00:00	2024-11-08T13:00:00	8	Radiación solar	852
53985	7	Sololá	717	San Juan la Laguna	12	San Juan la Laguna	5	Mayo	2023-05-15T00:00:00	2024-11-08T14:00:00	2	Temperatura media	21.9
53986	7	Sololá	717	San Juan la Laguna	12	San Juan la Laguna	5	Mayo	2023-05-15T00:00:00	2024-11-08T14:00:00	4	Temperatura máxima	23.7
53987	7	Sololá	717	San Juan la Laguna	12	San Juan la Laguna	5	Mayo	2023-05-15T00:00:00	2024-11-08T14:00:00	3	Temperatura mínima	21.4
53988	7	Sololá	717	San Juan la Laguna	12	San Juan la Laguna	5	Mayo	2023-05-15T00:00:00	2024-11-08T14:00:00	5	Humedad	76
53989	7	Sololá	717	San Juan la Laguna	12	San Juan la Laguna	5	Mayo	2023-05-15T00:00:00	2024-11-08T14:00:00	6	Velocidad del viento	4.8
53990	7	Sololá	717	San Juan la Laguna	12	San Juan la Laguna	5	Mayo	2023-05-15T00:00:00	2024-11-08T14:00:00	7	Dirección del viento	4.83
53991	7	Sololá	717	San Juan la Laguna	12	San Juan la Laguna	5	Mayo	2023-05-15T00:00:00	2024-11-08T14:00:00	1	Precipitación	0
53992	7	Sololá	717	San Juan la Laguna	12	San Juan la Laguna	5	Mayo	2023-05-15T00:00:00	2024-11-08T14:00:00	8	Radiación solar	654
53993	7	Sololá	717	San Juan la Laguna	12	San Juan la Laguna	5	Mayo	2023-05-15T00:00:00	2024-11-08T15:00:00	2	Temperatura media	22.4
53994	7	Sololá	717	San Juan la Laguna	12	San Juan la Laguna	5	Mayo	2023-05-15T00:00:00	2024-11-08T15:00:00	4	Temperatura máxima	22.8
53995	7	Sololá	717	San Juan la Laguna	12	San Juan la Laguna	5	Mayo	2023-05-15T00:00:00	2024-11-08T15:00:00	3	Temperatura mínima	21.8
53996	7	Sololá	717	San Juan la Laguna	12	San Juan la Laguna	5	Mayo	2023-05-15T00:00:00	2024-11-08T15:00:00	5	Humedad	73
53997	7	Sololá	717	San Juan la Laguna	12	San Juan la Laguna	5	Mayo	2023-05-15T00:00:00	2024-11-08T15:00:00	6	Velocidad del viento	6.4
53998	7	Sololá	717	San Juan la Laguna	12	San Juan la Laguna	5	Mayo	2023-05-15T00:00:00	2024-11-08T15:00:00	7	Dirección del viento	6.44
53999	7	Sololá	717	San Juan la Laguna	12	San Juan la Laguna	5	Mayo	2023-05-15T00:00:00	2024-11-08T15:00:00	1	Precipitación	0
54000	7	Sololá	717	San Juan la Laguna	12	San Juan la Laguna	5	Mayo	2023-05-15T00:00:00	2024-11-08T15:00:00	8	Radiación solar	591
54001	7	Sololá	717	San Juan la Laguna	12	San Juan la Laguna	5	Mayo	2023-05-15T00:00:00	2024-11-08T16:00:00	2	Temperatura media	21.3
54002	7	Sololá	717	San Juan la Laguna	12	San Juan la Laguna	5	Mayo	2023-05-15T00:00:00	2024-11-08T16:00:00	4	Temperatura máxima	22.6
54003	7	Sololá	717	San Juan la Laguna	12	San Juan la Laguna	5	Mayo	2023-05-15T00:00:00	2024-11-08T16:00:00	3	Temperatura mínima	21.3
54004	7	Sololá	717	San Juan la Laguna	12	San Juan la Laguna	5	Mayo	2023-05-15T00:00:00	2024-11-08T16:00:00	5	Humedad	78
54005	7	Sololá	717	San Juan la Laguna	12	San Juan la Laguna	5	Mayo	2023-05-15T00:00:00	2024-11-08T16:00:00	6	Velocidad del viento	6.4
54006	7	Sololá	717	San Juan la Laguna	12	San Juan la Laguna	5	Mayo	2023-05-15T00:00:00	2024-11-08T16:00:00	7	Dirección del viento	6.44
54007	7	Sololá	717	San Juan la Laguna	12	San Juan la Laguna	5	Mayo	2023-05-15T00:00:00	2024-11-08T16:00:00	1	Precipitación	0
54008	7	Sololá	717	San Juan la Laguna	12	San Juan la Laguna	5	Mayo	2023-05-15T00:00:00	2024-11-08T16:00:00	8	Radiación solar	227
54009	7	Sololá	717	San Juan la Laguna	12	San Juan la Laguna	5	Mayo	2023-05-15T00:00:00	2024-11-08T17:00:00	2	Temperatura media	20.1
54010	7	Sololá	717	San Juan la Laguna	12	San Juan la Laguna	5	Mayo	2023-05-15T00:00:00	2024-11-08T17:00:00	4	Temperatura máxima	21.3
54011	7	Sololá	717	San Juan la Laguna	12	San Juan la Laguna	5	Mayo	2023-05-15T00:00:00	2024-11-08T17:00:00	3	Temperatura mínima	20.1
54012	7	Sololá	717	San Juan la Laguna	12	San Juan la Laguna	5	Mayo	2023-05-15T00:00:00	2024-11-08T17:00:00	5	Humedad	84
54013	7	Sololá	717	San Juan la Laguna	12	San Juan la Laguna	5	Mayo	2023-05-15T00:00:00	2024-11-08T17:00:00	6	Velocidad del viento	4.8
54014	7	Sololá	717	San Juan la Laguna	12	San Juan la Laguna	5	Mayo	2023-05-15T00:00:00	2024-11-08T17:00:00	7	Dirección del viento	4.83
54015	7	Sololá	717	San Juan la Laguna	12	San Juan la Laguna	5	Mayo	2023-05-15T00:00:00	2024-11-08T17:00:00	1	Precipitación	0
54016	7	Sololá	717	San Juan la Laguna	12	San Juan la Laguna	5	Mayo	2023-05-15T00:00:00	2024-11-08T17:00:00	8	Radiación solar	57
54017	7	Sololá	717	San Juan la Laguna	12	San Juan la Laguna	5	Mayo	2023-05-15T00:00:00	2024-11-08T18:00:00	2	Temperatura media	18.5
54018	7	Sololá	717	San Juan la Laguna	12	San Juan la Laguna	5	Mayo	2023-05-15T00:00:00	2024-11-08T18:00:00	4	Temperatura máxima	20.1
54019	7	Sololá	717	San Juan la Laguna	12	San Juan la Laguna	5	Mayo	2023-05-15T00:00:00	2024-11-08T18:00:00	3	Temperatura mínima	18.3
54020	7	Sololá	717	San Juan la Laguna	12	San Juan la Laguna	5	Mayo	2023-05-15T00:00:00	2024-11-08T18:00:00	5	Humedad	78
54021	7	Sololá	717	San Juan la Laguna	12	San Juan la Laguna	5	Mayo	2023-05-15T00:00:00	2024-11-08T18:00:00	6	Velocidad del viento	6.4
54022	7	Sololá	717	San Juan la Laguna	12	San Juan la Laguna	5	Mayo	2023-05-15T00:00:00	2024-11-08T18:00:00	7	Dirección del viento	6.44
54023	7	Sololá	717	San Juan la Laguna	12	San Juan la Laguna	5	Mayo	2023-05-15T00:00:00	2024-11-08T18:00:00	1	Precipitación	1.8
54024	7	Sololá	717	San Juan la Laguna	12	San Juan la Laguna	5	Mayo	2023-05-15T00:00:00	2024-11-08T18:00:00	8	Radiación solar	9
54025	7	Sololá	717	San Juan la Laguna	12	San Juan la Laguna	5	Mayo	2023-05-15T00:00:00	2024-11-08T19:00:00	2	Temperatura media	16.8
54026	7	Sololá	717	San Juan la Laguna	12	San Juan la Laguna	5	Mayo	2023-05-15T00:00:00	2024-11-08T19:00:00	4	Temperatura máxima	18.6
54027	7	Sololá	717	San Juan la Laguna	12	San Juan la Laguna	5	Mayo	2023-05-15T00:00:00	2024-11-08T19:00:00	3	Temperatura mínima	16.8
54028	7	Sololá	717	San Juan la Laguna	12	San Juan la Laguna	5	Mayo	2023-05-15T00:00:00	2024-11-08T19:00:00	5	Humedad	86
54029	7	Sololá	717	San Juan la Laguna	12	San Juan la Laguna	5	Mayo	2023-05-15T00:00:00	2024-11-08T19:00:00	6	Velocidad del viento	4.8
54030	7	Sololá	717	San Juan la Laguna	12	San Juan la Laguna	5	Mayo	2023-05-15T00:00:00	2024-11-08T19:00:00	7	Dirección del viento	4.83
54031	7	Sololá	717	San Juan la Laguna	12	San Juan la Laguna	5	Mayo	2023-05-15T00:00:00	2024-11-08T19:00:00	1	Precipitación	0.2
54032	7	Sololá	717	San Juan la Laguna	12	San Juan la Laguna	5	Mayo	2023-05-15T00:00:00	2024-11-08T19:00:00	8	Radiación solar	0
54033	7	Sololá	717	San Juan la Laguna	12	San Juan la Laguna	5	Mayo	2023-05-15T00:00:00	2024-11-08T20:00:00	2	Temperatura media	16.3
54034	7	Sololá	717	San Juan la Laguna	12	San Juan la Laguna	5	Mayo	2023-05-15T00:00:00	2024-11-08T20:00:00	4	Temperatura máxima	16.8
54035	7	Sololá	717	San Juan la Laguna	12	San Juan la Laguna	5	Mayo	2023-05-15T00:00:00	2024-11-08T20:00:00	3	Temperatura mínima	16.1
54036	7	Sololá	717	San Juan la Laguna	12	San Juan la Laguna	5	Mayo	2023-05-15T00:00:00	2024-11-08T20:00:00	5	Humedad	89
54037	7	Sololá	717	San Juan la Laguna	12	San Juan la Laguna	5	Mayo	2023-05-15T00:00:00	2024-11-08T20:00:00	6	Velocidad del viento	1.6
54038	7	Sololá	717	San Juan la Laguna	12	San Juan la Laguna	5	Mayo	2023-05-15T00:00:00	2024-11-08T20:00:00	7	Dirección del viento	1.61
54039	7	Sololá	717	San Juan la Laguna	12	San Juan la Laguna	5	Mayo	2023-05-15T00:00:00	2024-11-08T20:00:00	1	Precipitación	0
54040	7	Sololá	717	San Juan la Laguna	12	San Juan la Laguna	5	Mayo	2023-05-15T00:00:00	2024-11-08T20:00:00	8	Radiación solar	0
54041	7	Sololá	717	San Juan la Laguna	12	San Juan la Laguna	5	Mayo	2023-05-15T00:00:00	2024-11-08T21:00:00	2	Temperatura media	17
54042	7	Sololá	717	San Juan la Laguna	12	San Juan la Laguna	5	Mayo	2023-05-15T00:00:00	2024-11-08T21:00:00	4	Temperatura máxima	17.1
54043	7	Sololá	717	San Juan la Laguna	12	San Juan la Laguna	5	Mayo	2023-05-15T00:00:00	2024-11-08T21:00:00	3	Temperatura mínima	16.3
54044	7	Sololá	717	San Juan la Laguna	12	San Juan la Laguna	5	Mayo	2023-05-15T00:00:00	2024-11-08T21:00:00	5	Humedad	86
54045	7	Sololá	717	San Juan la Laguna	12	San Juan la Laguna	5	Mayo	2023-05-15T00:00:00	2024-11-08T21:00:00	6	Velocidad del viento	1.6
54046	7	Sololá	717	San Juan la Laguna	12	San Juan la Laguna	5	Mayo	2023-05-15T00:00:00	2024-11-08T21:00:00	7	Dirección del viento	1.61
54047	7	Sololá	717	San Juan la Laguna	12	San Juan la Laguna	5	Mayo	2023-05-15T00:00:00	2024-11-08T21:00:00	1	Precipitación	0
54048	7	Sololá	717	San Juan la Laguna	12	San Juan la Laguna	5	Mayo	2023-05-15T00:00:00	2024-11-08T21:00:00	8	Radiación solar	0
54049	7	Sololá	717	San Juan la Laguna	12	San Juan la Laguna	5	Mayo	2023-05-15T00:00:00	2024-11-08T22:00:00	2	Temperatura media	15.3
54050	7	Sololá	717	San Juan la Laguna	12	San Juan la Laguna	5	Mayo	2023-05-15T00:00:00	2024-11-08T22:00:00	4	Temperatura máxima	17
54051	7	Sololá	717	San Juan la Laguna	12	San Juan la Laguna	5	Mayo	2023-05-15T00:00:00	2024-11-08T22:00:00	3	Temperatura mínima	15.3
54052	7	Sololá	717	San Juan la Laguna	12	San Juan la Laguna	5	Mayo	2023-05-15T00:00:00	2024-11-08T22:00:00	5	Humedad	89
54053	7	Sololá	717	San Juan la Laguna	12	San Juan la Laguna	5	Mayo	2023-05-15T00:00:00	2024-11-08T22:00:00	6	Velocidad del viento	3.2
54054	7	Sololá	717	San Juan la Laguna	12	San Juan la Laguna	5	Mayo	2023-05-15T00:00:00	2024-11-08T22:00:00	7	Dirección del viento	3.22
54055	7	Sololá	717	San Juan la Laguna	12	San Juan la Laguna	5	Mayo	2023-05-15T00:00:00	2024-11-08T22:00:00	1	Precipitación	0
54056	7	Sololá	717	San Juan la Laguna	12	San Juan la Laguna	5	Mayo	2023-05-15T00:00:00	2024-11-08T22:00:00	8	Radiación solar	0
54057	7	Sololá	717	San Juan la Laguna	12	San Juan la Laguna	5	Mayo	2023-05-15T00:00:00	2024-11-08T23:00:00	2	Temperatura media	15.2
54058	7	Sololá	717	San Juan la Laguna	12	San Juan la Laguna	5	Mayo	2023-05-15T00:00:00	2024-11-08T23:00:00	4	Temperatura máxima	15.4
54059	7	Sololá	717	San Juan la Laguna	12	San Juan la Laguna	5	Mayo	2023-05-15T00:00:00	2024-11-08T23:00:00	3	Temperatura mínima	15.1
54060	7	Sololá	717	San Juan la Laguna	12	San Juan la Laguna	5	Mayo	2023-05-15T00:00:00	2024-11-08T23:00:00	5	Humedad	84
54061	7	Sololá	717	San Juan la Laguna	12	San Juan la Laguna	5	Mayo	2023-05-15T00:00:00	2024-11-08T23:00:00	6	Velocidad del viento	3.2
54062	7	Sololá	717	San Juan la Laguna	12	San Juan la Laguna	5	Mayo	2023-05-15T00:00:00	2024-11-08T23:00:00	7	Dirección del viento	3.22
54063	7	Sololá	717	San Juan la Laguna	12	San Juan la Laguna	5	Mayo	2023-05-15T00:00:00	2024-11-08T23:00:00	1	Precipitación	0
54064	7	Sololá	717	San Juan la Laguna	12	San Juan la Laguna	5	Mayo	2023-05-15T00:00:00	2024-11-08T23:00:00	8	Radiación solar	0
54065	7	Sololá	717	San Juan la Laguna	12	San Juan la Laguna	5	Mayo	2023-05-16T00:00:00	2024-11-08T00:00:00	2	Temperatura media	14.9
54066	7	Sololá	717	San Juan la Laguna	12	San Juan la Laguna	5	Mayo	2023-05-16T00:00:00	2024-11-08T00:00:00	4	Temperatura máxima	15.3
54067	7	Sololá	717	San Juan la Laguna	12	San Juan la Laguna	5	Mayo	2023-05-16T00:00:00	2024-11-08T00:00:00	3	Temperatura mínima	14.8
54068	7	Sololá	717	San Juan la Laguna	12	San Juan la Laguna	5	Mayo	2023-05-16T00:00:00	2024-11-08T00:00:00	5	Humedad	82
54069	7	Sololá	717	San Juan la Laguna	12	San Juan la Laguna	5	Mayo	2023-05-16T00:00:00	2024-11-08T00:00:00	6	Velocidad del viento	3.2
54070	7	Sololá	717	San Juan la Laguna	12	San Juan la Laguna	5	Mayo	2023-05-16T00:00:00	2024-11-08T00:00:00	7	Dirección del viento	3.22
54071	7	Sololá	717	San Juan la Laguna	12	San Juan la Laguna	5	Mayo	2023-05-16T00:00:00	2024-11-08T00:00:00	1	Precipitación	0
54072	7	Sololá	717	San Juan la Laguna	12	San Juan la Laguna	5	Mayo	2023-05-16T00:00:00	2024-11-08T00:00:00	8	Radiación solar	0
54073	7	Sololá	717	San Juan la Laguna	12	San Juan la Laguna	5	Mayo	2023-05-16T00:00:00	2024-11-08T01:00:00	2	Temperatura media	14.1
54074	7	Sololá	717	San Juan la Laguna	12	San Juan la Laguna	5	Mayo	2023-05-16T00:00:00	2024-11-08T01:00:00	4	Temperatura máxima	15.3
54075	7	Sololá	717	San Juan la Laguna	12	San Juan la Laguna	5	Mayo	2023-05-16T00:00:00	2024-11-08T01:00:00	3	Temperatura mínima	14.1
54076	7	Sololá	717	San Juan la Laguna	12	San Juan la Laguna	5	Mayo	2023-05-16T00:00:00	2024-11-08T01:00:00	5	Humedad	86
54077	7	Sololá	717	San Juan la Laguna	12	San Juan la Laguna	5	Mayo	2023-05-16T00:00:00	2024-11-08T01:00:00	6	Velocidad del viento	3.2
54078	7	Sololá	717	San Juan la Laguna	12	San Juan la Laguna	5	Mayo	2023-05-16T00:00:00	2024-11-08T01:00:00	7	Dirección del viento	3.22
54079	7	Sololá	717	San Juan la Laguna	12	San Juan la Laguna	5	Mayo	2023-05-16T00:00:00	2024-11-08T01:00:00	1	Precipitación	0
54080	7	Sololá	717	San Juan la Laguna	12	San Juan la Laguna	5	Mayo	2023-05-16T00:00:00	2024-11-08T01:00:00	8	Radiación solar	0
54081	7	Sololá	717	San Juan la Laguna	12	San Juan la Laguna	5	Mayo	2023-05-16T00:00:00	2024-11-08T02:00:00	2	Temperatura media	14.4
54082	7	Sololá	717	San Juan la Laguna	12	San Juan la Laguna	5	Mayo	2023-05-16T00:00:00	2024-11-08T02:00:00	4	Temperatura máxima	14.7
54083	7	Sololá	717	San Juan la Laguna	12	San Juan la Laguna	5	Mayo	2023-05-16T00:00:00	2024-11-08T02:00:00	3	Temperatura mínima	13.9
54084	7	Sololá	717	San Juan la Laguna	12	San Juan la Laguna	5	Mayo	2023-05-16T00:00:00	2024-11-08T02:00:00	5	Humedad	83
54085	7	Sololá	717	San Juan la Laguna	12	San Juan la Laguna	5	Mayo	2023-05-16T00:00:00	2024-11-08T02:00:00	6	Velocidad del viento	3.2
54086	7	Sololá	717	San Juan la Laguna	12	San Juan la Laguna	5	Mayo	2023-05-16T00:00:00	2024-11-08T02:00:00	7	Dirección del viento	3.22
54087	7	Sololá	717	San Juan la Laguna	12	San Juan la Laguna	5	Mayo	2023-05-16T00:00:00	2024-11-08T02:00:00	1	Precipitación	0
54088	7	Sololá	717	San Juan la Laguna	12	San Juan la Laguna	5	Mayo	2023-05-16T00:00:00	2024-11-08T02:00:00	8	Radiación solar	0
54089	7	Sololá	717	San Juan la Laguna	12	San Juan la Laguna	5	Mayo	2023-05-16T00:00:00	2024-11-08T03:00:00	2	Temperatura media	14.1
54090	7	Sololá	717	San Juan la Laguna	12	San Juan la Laguna	5	Mayo	2023-05-16T00:00:00	2024-11-08T03:00:00	4	Temperatura máxima	14.4
54091	7	Sololá	717	San Juan la Laguna	12	San Juan la Laguna	5	Mayo	2023-05-16T00:00:00	2024-11-08T03:00:00	3	Temperatura mínima	14
54092	7	Sololá	717	San Juan la Laguna	12	San Juan la Laguna	5	Mayo	2023-05-16T00:00:00	2024-11-08T03:00:00	5	Humedad	86
54093	7	Sololá	717	San Juan la Laguna	12	San Juan la Laguna	5	Mayo	2023-05-16T00:00:00	2024-11-08T03:00:00	6	Velocidad del viento	4.8
54094	7	Sololá	717	San Juan la Laguna	12	San Juan la Laguna	5	Mayo	2023-05-16T00:00:00	2024-11-08T03:00:00	7	Dirección del viento	4.83
54095	7	Sololá	717	San Juan la Laguna	12	San Juan la Laguna	5	Mayo	2023-05-16T00:00:00	2024-11-08T03:00:00	1	Precipitación	0
54096	7	Sololá	717	San Juan la Laguna	12	San Juan la Laguna	5	Mayo	2023-05-16T00:00:00	2024-11-08T03:00:00	8	Radiación solar	0
54097	7	Sololá	717	San Juan la Laguna	12	San Juan la Laguna	5	Mayo	2023-05-16T00:00:00	2024-11-08T04:00:00	2	Temperatura media	13.8
54098	7	Sololá	717	San Juan la Laguna	12	San Juan la Laguna	5	Mayo	2023-05-16T00:00:00	2024-11-08T04:00:00	4	Temperatura máxima	14.4
54099	7	Sololá	717	San Juan la Laguna	12	San Juan la Laguna	5	Mayo	2023-05-16T00:00:00	2024-11-08T04:00:00	3	Temperatura mínima	13.6
54100	7	Sololá	717	San Juan la Laguna	12	San Juan la Laguna	5	Mayo	2023-05-16T00:00:00	2024-11-08T04:00:00	5	Humedad	86
54101	7	Sololá	717	San Juan la Laguna	12	San Juan la Laguna	5	Mayo	2023-05-16T00:00:00	2024-11-08T04:00:00	6	Velocidad del viento	3.2
54102	7	Sololá	717	San Juan la Laguna	12	San Juan la Laguna	5	Mayo	2023-05-16T00:00:00	2024-11-08T04:00:00	7	Dirección del viento	3.22
54103	7	Sololá	717	San Juan la Laguna	12	San Juan la Laguna	5	Mayo	2023-05-16T00:00:00	2024-11-08T04:00:00	1	Precipitación	0
54104	7	Sololá	717	San Juan la Laguna	12	San Juan la Laguna	5	Mayo	2023-05-16T00:00:00	2024-11-08T04:00:00	8	Radiación solar	0
54105	7	Sololá	717	San Juan la Laguna	12	San Juan la Laguna	5	Mayo	2023-05-16T00:00:00	2024-11-08T05:00:00	2	Temperatura media	13.7
54106	7	Sololá	717	San Juan la Laguna	12	San Juan la Laguna	5	Mayo	2023-05-16T00:00:00	2024-11-08T05:00:00	4	Temperatura máxima	14.1
54107	7	Sololá	717	San Juan la Laguna	12	San Juan la Laguna	5	Mayo	2023-05-16T00:00:00	2024-11-08T05:00:00	3	Temperatura mínima	13.7
54108	7	Sololá	717	San Juan la Laguna	12	San Juan la Laguna	5	Mayo	2023-05-16T00:00:00	2024-11-08T05:00:00	5	Humedad	85
54109	7	Sololá	717	San Juan la Laguna	12	San Juan la Laguna	5	Mayo	2023-05-16T00:00:00	2024-11-08T05:00:00	6	Velocidad del viento	3.2
54110	7	Sololá	717	San Juan la Laguna	12	San Juan la Laguna	5	Mayo	2023-05-16T00:00:00	2024-11-08T05:00:00	7	Dirección del viento	3.22
54111	7	Sololá	717	San Juan la Laguna	12	San Juan la Laguna	5	Mayo	2023-05-16T00:00:00	2024-11-08T05:00:00	1	Precipitación	0
54112	7	Sololá	717	San Juan la Laguna	12	San Juan la Laguna	5	Mayo	2023-05-16T00:00:00	2024-11-08T05:00:00	8	Radiación solar	0
54113	7	Sololá	717	San Juan la Laguna	12	San Juan la Laguna	5	Mayo	2023-05-16T00:00:00	2024-11-08T06:00:00	2	Temperatura media	13.5
54114	7	Sololá	717	San Juan la Laguna	12	San Juan la Laguna	5	Mayo	2023-05-16T00:00:00	2024-11-08T06:00:00	4	Temperatura máxima	13.7
54115	7	Sololá	717	San Juan la Laguna	12	San Juan la Laguna	5	Mayo	2023-05-16T00:00:00	2024-11-08T06:00:00	3	Temperatura mínima	13.4
54116	7	Sololá	717	San Juan la Laguna	12	San Juan la Laguna	5	Mayo	2023-05-16T00:00:00	2024-11-08T06:00:00	5	Humedad	86
54117	7	Sololá	717	San Juan la Laguna	12	San Juan la Laguna	5	Mayo	2023-05-16T00:00:00	2024-11-08T06:00:00	6	Velocidad del viento	3.2
54118	7	Sololá	717	San Juan la Laguna	12	San Juan la Laguna	5	Mayo	2023-05-16T00:00:00	2024-11-08T06:00:00	7	Dirección del viento	3.22
54119	7	Sololá	717	San Juan la Laguna	12	San Juan la Laguna	5	Mayo	2023-05-16T00:00:00	2024-11-08T06:00:00	1	Precipitación	0
54120	7	Sololá	717	San Juan la Laguna	12	San Juan la Laguna	5	Mayo	2023-05-16T00:00:00	2024-11-08T06:00:00	8	Radiación solar	3
54121	7	Sololá	717	San Juan la Laguna	12	San Juan la Laguna	5	Mayo	2023-05-16T00:00:00	2024-11-08T07:00:00	2	Temperatura media	16.9
54122	7	Sololá	717	San Juan la Laguna	12	San Juan la Laguna	5	Mayo	2023-05-16T00:00:00	2024-11-08T07:00:00	4	Temperatura máxima	16.9
54123	7	Sololá	717	San Juan la Laguna	12	San Juan la Laguna	5	Mayo	2023-05-16T00:00:00	2024-11-08T07:00:00	3	Temperatura mínima	13.5
54124	7	Sololá	717	San Juan la Laguna	12	San Juan la Laguna	5	Mayo	2023-05-16T00:00:00	2024-11-08T07:00:00	5	Humedad	81
54125	7	Sololá	717	San Juan la Laguna	12	San Juan la Laguna	5	Mayo	2023-05-16T00:00:00	2024-11-08T07:00:00	6	Velocidad del viento	1.6
54126	7	Sololá	717	San Juan la Laguna	12	San Juan la Laguna	5	Mayo	2023-05-16T00:00:00	2024-11-08T07:00:00	7	Dirección del viento	1.61
54127	7	Sololá	717	San Juan la Laguna	12	San Juan la Laguna	5	Mayo	2023-05-16T00:00:00	2024-11-08T07:00:00	1	Precipitación	0
54128	7	Sololá	717	San Juan la Laguna	12	San Juan la Laguna	5	Mayo	2023-05-16T00:00:00	2024-11-08T07:00:00	8	Radiación solar	108
54129	7	Sololá	717	San Juan la Laguna	12	San Juan la Laguna	5	Mayo	2023-05-16T00:00:00	2024-11-08T08:00:00	2	Temperatura media	19.7
54130	7	Sololá	717	San Juan la Laguna	12	San Juan la Laguna	5	Mayo	2023-05-16T00:00:00	2024-11-08T08:00:00	4	Temperatura máxima	19.8
54131	7	Sololá	717	San Juan la Laguna	12	San Juan la Laguna	5	Mayo	2023-05-16T00:00:00	2024-11-08T08:00:00	3	Temperatura mínima	16.9
54132	7	Sololá	717	San Juan la Laguna	12	San Juan la Laguna	5	Mayo	2023-05-16T00:00:00	2024-11-08T08:00:00	5	Humedad	75
54133	7	Sololá	717	San Juan la Laguna	12	San Juan la Laguna	5	Mayo	2023-05-16T00:00:00	2024-11-08T08:00:00	6	Velocidad del viento	1.6
54134	7	Sololá	717	San Juan la Laguna	12	San Juan la Laguna	5	Mayo	2023-05-16T00:00:00	2024-11-08T08:00:00	7	Dirección del viento	1.61
54135	7	Sololá	717	San Juan la Laguna	12	San Juan la Laguna	5	Mayo	2023-05-16T00:00:00	2024-11-08T08:00:00	1	Precipitación	0
54136	7	Sololá	717	San Juan la Laguna	12	San Juan la Laguna	5	Mayo	2023-05-16T00:00:00	2024-11-08T08:00:00	8	Radiación solar	320
54137	7	Sololá	717	San Juan la Laguna	12	San Juan la Laguna	5	Mayo	2023-05-16T00:00:00	2024-11-08T09:00:00	2	Temperatura media	20.8
54138	7	Sololá	717	San Juan la Laguna	12	San Juan la Laguna	5	Mayo	2023-05-16T00:00:00	2024-11-08T09:00:00	4	Temperatura máxima	20.9
54139	7	Sololá	717	San Juan la Laguna	12	San Juan la Laguna	5	Mayo	2023-05-16T00:00:00	2024-11-08T09:00:00	3	Temperatura mínima	19.6
54140	7	Sololá	717	San Juan la Laguna	12	San Juan la Laguna	5	Mayo	2023-05-16T00:00:00	2024-11-08T09:00:00	5	Humedad	73
54141	7	Sololá	717	San Juan la Laguna	12	San Juan la Laguna	5	Mayo	2023-05-16T00:00:00	2024-11-08T09:00:00	6	Velocidad del viento	1.6
54142	7	Sololá	717	San Juan la Laguna	12	San Juan la Laguna	5	Mayo	2023-05-16T00:00:00	2024-11-08T09:00:00	7	Dirección del viento	1.61
54143	7	Sololá	717	San Juan la Laguna	12	San Juan la Laguna	5	Mayo	2023-05-16T00:00:00	2024-11-08T09:00:00	1	Precipitación	0
54144	7	Sololá	717	San Juan la Laguna	12	San Juan la Laguna	5	Mayo	2023-05-16T00:00:00	2024-11-08T09:00:00	8	Radiación solar	538
54145	7	Sololá	717	San Juan la Laguna	12	San Juan la Laguna	5	Mayo	2023-05-16T00:00:00	2024-11-08T10:00:00	2	Temperatura media	23.1
54146	7	Sololá	717	San Juan la Laguna	12	San Juan la Laguna	5	Mayo	2023-05-16T00:00:00	2024-11-08T10:00:00	4	Temperatura máxima	23.1
54147	7	Sololá	717	San Juan la Laguna	12	San Juan la Laguna	5	Mayo	2023-05-16T00:00:00	2024-11-08T10:00:00	3	Temperatura mínima	20.8
54148	7	Sololá	717	San Juan la Laguna	12	San Juan la Laguna	5	Mayo	2023-05-16T00:00:00	2024-11-08T10:00:00	5	Humedad	58
54149	7	Sololá	717	San Juan la Laguna	12	San Juan la Laguna	5	Mayo	2023-05-16T00:00:00	2024-11-08T10:00:00	6	Velocidad del viento	1.6
54150	7	Sololá	717	San Juan la Laguna	12	San Juan la Laguna	5	Mayo	2023-05-16T00:00:00	2024-11-08T10:00:00	7	Dirección del viento	1.61
54151	7	Sololá	717	San Juan la Laguna	12	San Juan la Laguna	5	Mayo	2023-05-16T00:00:00	2024-11-08T10:00:00	1	Precipitación	0
54152	7	Sololá	717	San Juan la Laguna	12	San Juan la Laguna	5	Mayo	2023-05-16T00:00:00	2024-11-08T10:00:00	8	Radiación solar	739
54153	7	Sololá	717	San Juan la Laguna	12	San Juan la Laguna	5	Mayo	2023-05-16T00:00:00	2024-11-08T11:00:00	2	Temperatura media	24.6
54154	7	Sololá	717	San Juan la Laguna	12	San Juan la Laguna	5	Mayo	2023-05-16T00:00:00	2024-11-08T11:00:00	4	Temperatura máxima	24.6
54155	7	Sololá	717	San Juan la Laguna	12	San Juan la Laguna	5	Mayo	2023-05-16T00:00:00	2024-11-08T11:00:00	3	Temperatura mínima	22.9
54156	7	Sololá	717	San Juan la Laguna	12	San Juan la Laguna	5	Mayo	2023-05-16T00:00:00	2024-11-08T11:00:00	5	Humedad	53
54157	7	Sololá	717	San Juan la Laguna	12	San Juan la Laguna	5	Mayo	2023-05-16T00:00:00	2024-11-08T11:00:00	6	Velocidad del viento	1.6
54158	7	Sololá	717	San Juan la Laguna	12	San Juan la Laguna	5	Mayo	2023-05-16T00:00:00	2024-11-08T11:00:00	7	Dirección del viento	1.61
54159	7	Sololá	717	San Juan la Laguna	12	San Juan la Laguna	5	Mayo	2023-05-16T00:00:00	2024-11-08T11:00:00	1	Precipitación	0
54160	7	Sololá	717	San Juan la Laguna	12	San Juan la Laguna	5	Mayo	2023-05-16T00:00:00	2024-11-08T11:00:00	8	Radiación solar	870
54161	7	Sololá	717	San Juan la Laguna	12	San Juan la Laguna	5	Mayo	2023-05-16T00:00:00	2024-11-08T12:00:00	2	Temperatura media	24.6
54162	7	Sololá	717	San Juan la Laguna	12	San Juan la Laguna	5	Mayo	2023-05-16T00:00:00	2024-11-08T12:00:00	4	Temperatura máxima	25.4
54163	7	Sololá	717	San Juan la Laguna	12	San Juan la Laguna	5	Mayo	2023-05-16T00:00:00	2024-11-08T12:00:00	3	Temperatura mínima	23.8
54164	7	Sololá	717	San Juan la Laguna	12	San Juan la Laguna	5	Mayo	2023-05-16T00:00:00	2024-11-08T12:00:00	5	Humedad	56
54165	7	Sololá	717	San Juan la Laguna	12	San Juan la Laguna	5	Mayo	2023-05-16T00:00:00	2024-11-08T12:00:00	6	Velocidad del viento	1.6
54166	7	Sololá	717	San Juan la Laguna	12	San Juan la Laguna	5	Mayo	2023-05-16T00:00:00	2024-11-08T12:00:00	7	Dirección del viento	1.61
54167	7	Sololá	717	San Juan la Laguna	12	San Juan la Laguna	5	Mayo	2023-05-16T00:00:00	2024-11-08T12:00:00	1	Precipitación	0
54168	7	Sololá	717	San Juan la Laguna	12	San Juan la Laguna	5	Mayo	2023-05-16T00:00:00	2024-11-08T12:00:00	8	Radiación solar	975
54169	7	Sololá	717	San Juan la Laguna	12	San Juan la Laguna	5	Mayo	2023-05-16T00:00:00	2024-11-08T13:00:00	2	Temperatura media	24.1
54170	7	Sololá	717	San Juan la Laguna	12	San Juan la Laguna	5	Mayo	2023-05-16T00:00:00	2024-11-08T13:00:00	4	Temperatura máxima	24.8
54171	7	Sololá	717	San Juan la Laguna	12	San Juan la Laguna	5	Mayo	2023-05-16T00:00:00	2024-11-08T13:00:00	3	Temperatura mínima	24.1
54172	7	Sololá	717	San Juan la Laguna	12	San Juan la Laguna	5	Mayo	2023-05-16T00:00:00	2024-11-08T13:00:00	5	Humedad	66
54173	7	Sololá	717	San Juan la Laguna	12	San Juan la Laguna	5	Mayo	2023-05-16T00:00:00	2024-11-08T13:00:00	6	Velocidad del viento	3.2
54174	7	Sololá	717	San Juan la Laguna	12	San Juan la Laguna	5	Mayo	2023-05-16T00:00:00	2024-11-08T13:00:00	7	Dirección del viento	3.22
54175	7	Sololá	717	San Juan la Laguna	12	San Juan la Laguna	5	Mayo	2023-05-16T00:00:00	2024-11-08T13:00:00	1	Precipitación	0
54176	7	Sololá	717	San Juan la Laguna	12	San Juan la Laguna	5	Mayo	2023-05-16T00:00:00	2024-11-08T13:00:00	8	Radiación solar	727
54177	7	Sololá	717	San Juan la Laguna	12	San Juan la Laguna	5	Mayo	2023-05-16T00:00:00	2024-11-08T14:00:00	2	Temperatura media	22.8
54178	7	Sololá	717	San Juan la Laguna	12	San Juan la Laguna	5	Mayo	2023-05-16T00:00:00	2024-11-08T14:00:00	4	Temperatura máxima	24.1
54179	7	Sololá	717	San Juan la Laguna	12	San Juan la Laguna	5	Mayo	2023-05-16T00:00:00	2024-11-08T14:00:00	3	Temperatura mínima	22.2
54180	7	Sololá	717	San Juan la Laguna	12	San Juan la Laguna	5	Mayo	2023-05-16T00:00:00	2024-11-08T14:00:00	5	Humedad	71
54181	7	Sololá	717	San Juan la Laguna	12	San Juan la Laguna	5	Mayo	2023-05-16T00:00:00	2024-11-08T14:00:00	6	Velocidad del viento	6.4
54182	7	Sololá	717	San Juan la Laguna	12	San Juan la Laguna	5	Mayo	2023-05-16T00:00:00	2024-11-08T14:00:00	7	Dirección del viento	6.44
54183	7	Sololá	717	San Juan la Laguna	12	San Juan la Laguna	5	Mayo	2023-05-16T00:00:00	2024-11-08T14:00:00	1	Precipitación	0
54184	7	Sololá	717	San Juan la Laguna	12	San Juan la Laguna	5	Mayo	2023-05-16T00:00:00	2024-11-08T14:00:00	8	Radiación solar	454
54185	7	Sololá	717	San Juan la Laguna	12	San Juan la Laguna	5	Mayo	2023-05-16T00:00:00	2024-11-08T15:00:00	2	Temperatura media	22.7
54186	7	Sololá	717	San Juan la Laguna	12	San Juan la Laguna	5	Mayo	2023-05-16T00:00:00	2024-11-08T15:00:00	4	Temperatura máxima	22.8
54187	7	Sololá	717	San Juan la Laguna	12	San Juan la Laguna	5	Mayo	2023-05-16T00:00:00	2024-11-08T15:00:00	3	Temperatura mínima	22.3
54188	7	Sololá	717	San Juan la Laguna	12	San Juan la Laguna	5	Mayo	2023-05-16T00:00:00	2024-11-08T15:00:00	5	Humedad	73
54189	7	Sololá	717	San Juan la Laguna	12	San Juan la Laguna	5	Mayo	2023-05-16T00:00:00	2024-11-08T15:00:00	6	Velocidad del viento	8
54190	7	Sololá	717	San Juan la Laguna	12	San Juan la Laguna	5	Mayo	2023-05-16T00:00:00	2024-11-08T15:00:00	7	Dirección del viento	8.05
54191	7	Sololá	717	San Juan la Laguna	12	San Juan la Laguna	5	Mayo	2023-05-16T00:00:00	2024-11-08T15:00:00	1	Precipitación	0
54192	7	Sololá	717	San Juan la Laguna	12	San Juan la Laguna	5	Mayo	2023-05-16T00:00:00	2024-11-08T15:00:00	8	Radiación solar	518
54193	7	Sololá	717	San Juan la Laguna	12	San Juan la Laguna	5	Mayo	2023-05-16T00:00:00	2024-11-08T16:00:00	2	Temperatura media	17.9
54194	7	Sololá	717	San Juan la Laguna	12	San Juan la Laguna	5	Mayo	2023-05-16T00:00:00	2024-11-08T16:00:00	4	Temperatura máxima	22.7
54195	7	Sololá	717	San Juan la Laguna	12	San Juan la Laguna	5	Mayo	2023-05-16T00:00:00	2024-11-08T16:00:00	3	Temperatura mínima	17.9
54196	7	Sololá	717	San Juan la Laguna	12	San Juan la Laguna	5	Mayo	2023-05-16T00:00:00	2024-11-08T16:00:00	5	Humedad	89
54197	7	Sololá	717	San Juan la Laguna	12	San Juan la Laguna	5	Mayo	2023-05-16T00:00:00	2024-11-08T16:00:00	6	Velocidad del viento	6.4
54198	7	Sololá	717	San Juan la Laguna	12	San Juan la Laguna	5	Mayo	2023-05-16T00:00:00	2024-11-08T16:00:00	7	Dirección del viento	6.44
54199	7	Sololá	717	San Juan la Laguna	12	San Juan la Laguna	5	Mayo	2023-05-16T00:00:00	2024-11-08T16:00:00	1	Precipitación	10.2
54200	7	Sololá	717	San Juan la Laguna	12	San Juan la Laguna	5	Mayo	2023-05-16T00:00:00	2024-11-08T16:00:00	8	Radiación solar	88
54201	7	Sololá	717	San Juan la Laguna	12	San Juan la Laguna	5	Mayo	2023-05-16T00:00:00	2024-11-08T17:00:00	2	Temperatura media	16.6
54202	7	Sololá	717	San Juan la Laguna	12	San Juan la Laguna	5	Mayo	2023-05-16T00:00:00	2024-11-08T17:00:00	4	Temperatura máxima	17.9
54203	7	Sololá	717	San Juan la Laguna	12	San Juan la Laguna	5	Mayo	2023-05-16T00:00:00	2024-11-08T17:00:00	3	Temperatura mínima	16.2
54204	7	Sololá	717	San Juan la Laguna	12	San Juan la Laguna	5	Mayo	2023-05-16T00:00:00	2024-11-08T17:00:00	5	Humedad	90
54205	7	Sololá	717	San Juan la Laguna	12	San Juan la Laguna	5	Mayo	2023-05-16T00:00:00	2024-11-08T17:00:00	6	Velocidad del viento	3.2
54206	7	Sololá	717	San Juan la Laguna	12	San Juan la Laguna	5	Mayo	2023-05-16T00:00:00	2024-11-08T17:00:00	7	Dirección del viento	3.22
54207	7	Sololá	717	San Juan la Laguna	12	San Juan la Laguna	5	Mayo	2023-05-16T00:00:00	2024-11-08T17:00:00	1	Precipitación	10.4
54208	7	Sololá	717	San Juan la Laguna	12	San Juan la Laguna	5	Mayo	2023-05-16T00:00:00	2024-11-08T17:00:00	8	Radiación solar	41
54209	7	Sololá	717	San Juan la Laguna	12	San Juan la Laguna	5	Mayo	2023-05-16T00:00:00	2024-11-08T18:00:00	2	Temperatura media	16.9
54210	7	Sololá	717	San Juan la Laguna	12	San Juan la Laguna	5	Mayo	2023-05-16T00:00:00	2024-11-08T18:00:00	4	Temperatura máxima	17.1
54211	7	Sololá	717	San Juan la Laguna	12	San Juan la Laguna	5	Mayo	2023-05-16T00:00:00	2024-11-08T18:00:00	3	Temperatura mínima	16.6
54212	7	Sololá	717	San Juan la Laguna	12	San Juan la Laguna	5	Mayo	2023-05-16T00:00:00	2024-11-08T18:00:00	5	Humedad	91
54213	7	Sololá	717	San Juan la Laguna	12	San Juan la Laguna	5	Mayo	2023-05-16T00:00:00	2024-11-08T18:00:00	6	Velocidad del viento	4.8
54214	7	Sololá	717	San Juan la Laguna	12	San Juan la Laguna	5	Mayo	2023-05-16T00:00:00	2024-11-08T18:00:00	7	Dirección del viento	4.83
54215	7	Sololá	717	San Juan la Laguna	12	San Juan la Laguna	5	Mayo	2023-05-16T00:00:00	2024-11-08T18:00:00	1	Precipitación	4.6
54216	7	Sololá	717	San Juan la Laguna	12	San Juan la Laguna	5	Mayo	2023-05-16T00:00:00	2024-11-08T18:00:00	8	Radiación solar	16
54217	7	Sololá	717	San Juan la Laguna	12	San Juan la Laguna	5	Mayo	2023-05-16T00:00:00	2024-11-08T19:00:00	2	Temperatura media	16.3
54218	7	Sololá	717	San Juan la Laguna	12	San Juan la Laguna	5	Mayo	2023-05-16T00:00:00	2024-11-08T19:00:00	4	Temperatura máxima	17.2
54219	7	Sololá	717	San Juan la Laguna	12	San Juan la Laguna	5	Mayo	2023-05-16T00:00:00	2024-11-08T19:00:00	3	Temperatura mínima	16.3
54220	7	Sololá	717	San Juan la Laguna	12	San Juan la Laguna	5	Mayo	2023-05-16T00:00:00	2024-11-08T19:00:00	5	Humedad	89
54221	7	Sololá	717	San Juan la Laguna	12	San Juan la Laguna	5	Mayo	2023-05-16T00:00:00	2024-11-08T19:00:00	6	Velocidad del viento	3.2
54222	7	Sololá	717	San Juan la Laguna	12	San Juan la Laguna	5	Mayo	2023-05-16T00:00:00	2024-11-08T19:00:00	7	Dirección del viento	3.22
54223	7	Sololá	717	San Juan la Laguna	12	San Juan la Laguna	5	Mayo	2023-05-16T00:00:00	2024-11-08T19:00:00	1	Precipitación	0.2
54224	7	Sololá	717	San Juan la Laguna	12	San Juan la Laguna	5	Mayo	2023-05-16T00:00:00	2024-11-08T19:00:00	8	Radiación solar	0
54225	7	Sololá	717	San Juan la Laguna	12	San Juan la Laguna	5	Mayo	2023-05-16T00:00:00	2024-11-08T20:00:00	2	Temperatura media	16.6
54226	7	Sololá	717	San Juan la Laguna	12	San Juan la Laguna	5	Mayo	2023-05-16T00:00:00	2024-11-08T20:00:00	4	Temperatura máxima	16.7
54227	7	Sololá	717	San Juan la Laguna	12	San Juan la Laguna	5	Mayo	2023-05-16T00:00:00	2024-11-08T20:00:00	3	Temperatura mínima	16.2
54228	7	Sololá	717	San Juan la Laguna	12	San Juan la Laguna	5	Mayo	2023-05-16T00:00:00	2024-11-08T20:00:00	5	Humedad	89
54229	7	Sololá	717	San Juan la Laguna	12	San Juan la Laguna	5	Mayo	2023-05-16T00:00:00	2024-11-08T20:00:00	6	Velocidad del viento	3.2
54230	7	Sololá	717	San Juan la Laguna	12	San Juan la Laguna	5	Mayo	2023-05-16T00:00:00	2024-11-08T20:00:00	7	Dirección del viento	3.22
54231	7	Sololá	717	San Juan la Laguna	12	San Juan la Laguna	5	Mayo	2023-05-16T00:00:00	2024-11-08T20:00:00	1	Precipitación	0
54232	7	Sololá	717	San Juan la Laguna	12	San Juan la Laguna	5	Mayo	2023-05-16T00:00:00	2024-11-08T20:00:00	8	Radiación solar	0
54233	7	Sololá	717	San Juan la Laguna	12	San Juan la Laguna	5	Mayo	2023-05-16T00:00:00	2024-11-08T21:00:00	2	Temperatura media	15.6
54234	7	Sololá	717	San Juan la Laguna	12	San Juan la Laguna	5	Mayo	2023-05-16T00:00:00	2024-11-08T21:00:00	4	Temperatura máxima	16.6
54235	7	Sololá	717	San Juan la Laguna	12	San Juan la Laguna	5	Mayo	2023-05-16T00:00:00	2024-11-08T21:00:00	3	Temperatura mínima	15.6
54236	7	Sololá	717	San Juan la Laguna	12	San Juan la Laguna	5	Mayo	2023-05-16T00:00:00	2024-11-08T21:00:00	5	Humedad	91
54237	7	Sololá	717	San Juan la Laguna	12	San Juan la Laguna	5	Mayo	2023-05-16T00:00:00	2024-11-08T21:00:00	6	Velocidad del viento	1.6
54238	7	Sololá	717	San Juan la Laguna	12	San Juan la Laguna	5	Mayo	2023-05-16T00:00:00	2024-11-08T21:00:00	7	Dirección del viento	1.61
54239	7	Sololá	717	San Juan la Laguna	12	San Juan la Laguna	5	Mayo	2023-05-16T00:00:00	2024-11-08T21:00:00	1	Precipitación	0
54240	7	Sololá	717	San Juan la Laguna	12	San Juan la Laguna	5	Mayo	2023-05-16T00:00:00	2024-11-08T21:00:00	8	Radiación solar	0
54241	7	Sololá	717	San Juan la Laguna	12	San Juan la Laguna	5	Mayo	2023-05-16T00:00:00	2024-11-08T22:00:00	2	Temperatura media	15.9
54242	7	Sololá	717	San Juan la Laguna	12	San Juan la Laguna	5	Mayo	2023-05-16T00:00:00	2024-11-08T22:00:00	4	Temperatura máxima	15.9
54243	7	Sololá	717	San Juan la Laguna	12	San Juan la Laguna	5	Mayo	2023-05-16T00:00:00	2024-11-08T22:00:00	3	Temperatura mínima	15.4
54244	7	Sololá	717	San Juan la Laguna	12	San Juan la Laguna	5	Mayo	2023-05-16T00:00:00	2024-11-08T22:00:00	5	Humedad	89
54245	7	Sololá	717	San Juan la Laguna	12	San Juan la Laguna	5	Mayo	2023-05-16T00:00:00	2024-11-08T22:00:00	6	Velocidad del viento	1.6
54246	7	Sololá	717	San Juan la Laguna	12	San Juan la Laguna	5	Mayo	2023-05-16T00:00:00	2024-11-08T22:00:00	7	Dirección del viento	1.61
54247	7	Sololá	717	San Juan la Laguna	12	San Juan la Laguna	5	Mayo	2023-05-16T00:00:00	2024-11-08T22:00:00	1	Precipitación	0
54248	7	Sololá	717	San Juan la Laguna	12	San Juan la Laguna	5	Mayo	2023-05-16T00:00:00	2024-11-08T22:00:00	8	Radiación solar	0
54249	7	Sololá	717	San Juan la Laguna	12	San Juan la Laguna	5	Mayo	2023-05-16T00:00:00	2024-11-08T23:00:00	2	Temperatura media	16.2
54250	7	Sololá	717	San Juan la Laguna	12	San Juan la Laguna	5	Mayo	2023-05-16T00:00:00	2024-11-08T23:00:00	4	Temperatura máxima	16.3
54251	7	Sololá	717	San Juan la Laguna	12	San Juan la Laguna	5	Mayo	2023-05-16T00:00:00	2024-11-08T23:00:00	3	Temperatura mínima	15.9
54252	7	Sololá	717	San Juan la Laguna	12	San Juan la Laguna	5	Mayo	2023-05-16T00:00:00	2024-11-08T23:00:00	5	Humedad	92
54253	7	Sololá	717	San Juan la Laguna	12	San Juan la Laguna	5	Mayo	2023-05-16T00:00:00	2024-11-08T23:00:00	6	Velocidad del viento	1.6
54254	7	Sololá	717	San Juan la Laguna	12	San Juan la Laguna	5	Mayo	2023-05-16T00:00:00	2024-11-08T23:00:00	7	Dirección del viento	1.61
54255	7	Sololá	717	San Juan la Laguna	12	San Juan la Laguna	5	Mayo	2023-05-16T00:00:00	2024-11-08T23:00:00	1	Precipitación	0
54256	7	Sololá	717	San Juan la Laguna	12	San Juan la Laguna	5	Mayo	2023-05-16T00:00:00	2024-11-08T23:00:00	8	Radiación solar	0
54257	7	Sololá	717	San Juan la Laguna	12	San Juan la Laguna	5	Mayo	2023-05-17T00:00:00	2024-11-08T00:00:00	2	Temperatura media	16.4
54258	7	Sololá	717	San Juan la Laguna	12	San Juan la Laguna	5	Mayo	2023-05-17T00:00:00	2024-11-08T00:00:00	4	Temperatura máxima	16.7
54259	7	Sololá	717	San Juan la Laguna	12	San Juan la Laguna	5	Mayo	2023-05-17T00:00:00	2024-11-08T00:00:00	3	Temperatura mínima	16.2
54260	7	Sololá	717	San Juan la Laguna	12	San Juan la Laguna	5	Mayo	2023-05-17T00:00:00	2024-11-08T00:00:00	5	Humedad	90
54261	7	Sololá	717	San Juan la Laguna	12	San Juan la Laguna	5	Mayo	2023-05-17T00:00:00	2024-11-08T00:00:00	6	Velocidad del viento	1.6
54262	7	Sololá	717	San Juan la Laguna	12	San Juan la Laguna	5	Mayo	2023-05-17T00:00:00	2024-11-08T00:00:00	7	Dirección del viento	1.61
54263	7	Sololá	717	San Juan la Laguna	12	San Juan la Laguna	5	Mayo	2023-05-17T00:00:00	2024-11-08T00:00:00	1	Precipitación	0
54264	7	Sololá	717	San Juan la Laguna	12	San Juan la Laguna	5	Mayo	2023-05-17T00:00:00	2024-11-08T00:00:00	8	Radiación solar	0
54265	7	Sololá	717	San Juan la Laguna	12	San Juan la Laguna	5	Mayo	2023-05-17T00:00:00	2024-11-08T01:00:00	2	Temperatura media	15.3
54266	7	Sololá	717	San Juan la Laguna	12	San Juan la Laguna	5	Mayo	2023-05-17T00:00:00	2024-11-08T01:00:00	4	Temperatura máxima	16.4
54267	7	Sololá	717	San Juan la Laguna	12	San Juan la Laguna	5	Mayo	2023-05-17T00:00:00	2024-11-08T01:00:00	3	Temperatura mínima	15.3
54268	7	Sololá	717	San Juan la Laguna	12	San Juan la Laguna	5	Mayo	2023-05-17T00:00:00	2024-11-08T01:00:00	5	Humedad	90
54269	7	Sololá	717	San Juan la Laguna	12	San Juan la Laguna	5	Mayo	2023-05-17T00:00:00	2024-11-08T01:00:00	6	Velocidad del viento	1.6
54270	7	Sololá	717	San Juan la Laguna	12	San Juan la Laguna	5	Mayo	2023-05-17T00:00:00	2024-11-08T01:00:00	7	Dirección del viento	1.61
54271	7	Sololá	717	San Juan la Laguna	12	San Juan la Laguna	5	Mayo	2023-05-17T00:00:00	2024-11-08T01:00:00	1	Precipitación	0
54272	7	Sololá	717	San Juan la Laguna	12	San Juan la Laguna	5	Mayo	2023-05-17T00:00:00	2024-11-08T01:00:00	8	Radiación solar	0
54273	7	Sololá	717	San Juan la Laguna	12	San Juan la Laguna	5	Mayo	2023-05-17T00:00:00	2024-11-08T02:00:00	2	Temperatura media	15.3
54274	7	Sololá	717	San Juan la Laguna	12	San Juan la Laguna	5	Mayo	2023-05-17T00:00:00	2024-11-08T02:00:00	4	Temperatura máxima	15.3
54275	7	Sololá	717	San Juan la Laguna	12	San Juan la Laguna	5	Mayo	2023-05-17T00:00:00	2024-11-08T02:00:00	3	Temperatura mínima	15.1
54276	7	Sololá	717	San Juan la Laguna	12	San Juan la Laguna	5	Mayo	2023-05-17T00:00:00	2024-11-08T02:00:00	5	Humedad	87
54277	7	Sololá	717	San Juan la Laguna	12	San Juan la Laguna	5	Mayo	2023-05-17T00:00:00	2024-11-08T02:00:00	6	Velocidad del viento	1.6
54278	7	Sololá	717	San Juan la Laguna	12	San Juan la Laguna	5	Mayo	2023-05-17T00:00:00	2024-11-08T02:00:00	7	Dirección del viento	1.61
54279	7	Sololá	717	San Juan la Laguna	12	San Juan la Laguna	5	Mayo	2023-05-17T00:00:00	2024-11-08T02:00:00	1	Precipitación	0
54280	7	Sololá	717	San Juan la Laguna	12	San Juan la Laguna	5	Mayo	2023-05-17T00:00:00	2024-11-08T02:00:00	8	Radiación solar	0
54281	7	Sololá	717	San Juan la Laguna	12	San Juan la Laguna	5	Mayo	2023-05-17T00:00:00	2024-11-08T03:00:00	2	Temperatura media	14.9
54282	7	Sololá	717	San Juan la Laguna	12	San Juan la Laguna	5	Mayo	2023-05-17T00:00:00	2024-11-08T03:00:00	4	Temperatura máxima	15.4
54283	7	Sololá	717	San Juan la Laguna	12	San Juan la Laguna	5	Mayo	2023-05-17T00:00:00	2024-11-08T03:00:00	3	Temperatura mínima	14.8
54284	7	Sololá	717	San Juan la Laguna	12	San Juan la Laguna	5	Mayo	2023-05-17T00:00:00	2024-11-08T03:00:00	5	Humedad	88
54285	7	Sololá	717	San Juan la Laguna	12	San Juan la Laguna	5	Mayo	2023-05-17T00:00:00	2024-11-08T03:00:00	6	Velocidad del viento	1.6
54286	7	Sololá	717	San Juan la Laguna	12	San Juan la Laguna	5	Mayo	2023-05-17T00:00:00	2024-11-08T03:00:00	7	Dirección del viento	1.61
54287	7	Sololá	717	San Juan la Laguna	12	San Juan la Laguna	5	Mayo	2023-05-17T00:00:00	2024-11-08T03:00:00	1	Precipitación	0
54288	7	Sololá	717	San Juan la Laguna	12	San Juan la Laguna	5	Mayo	2023-05-17T00:00:00	2024-11-08T03:00:00	8	Radiación solar	0
54289	7	Sololá	717	San Juan la Laguna	12	San Juan la Laguna	5	Mayo	2023-05-17T00:00:00	2024-11-08T04:00:00	2	Temperatura media	14.7
54290	7	Sololá	717	San Juan la Laguna	12	San Juan la Laguna	5	Mayo	2023-05-17T00:00:00	2024-11-08T04:00:00	4	Temperatura máxima	15.3
54291	7	Sololá	717	San Juan la Laguna	12	San Juan la Laguna	5	Mayo	2023-05-17T00:00:00	2024-11-08T04:00:00	3	Temperatura mínima	14.7
54292	7	Sololá	717	San Juan la Laguna	12	San Juan la Laguna	5	Mayo	2023-05-17T00:00:00	2024-11-08T04:00:00	5	Humedad	88
54293	7	Sololá	717	San Juan la Laguna	12	San Juan la Laguna	5	Mayo	2023-05-17T00:00:00	2024-11-08T04:00:00	6	Velocidad del viento	3.2
54294	7	Sololá	717	San Juan la Laguna	12	San Juan la Laguna	5	Mayo	2023-05-17T00:00:00	2024-11-08T04:00:00	7	Dirección del viento	3.22
54295	7	Sololá	717	San Juan la Laguna	12	San Juan la Laguna	5	Mayo	2023-05-17T00:00:00	2024-11-08T04:00:00	1	Precipitación	0
54296	7	Sololá	717	San Juan la Laguna	12	San Juan la Laguna	5	Mayo	2023-05-17T00:00:00	2024-11-08T04:00:00	8	Radiación solar	0
54297	7	Sololá	717	San Juan la Laguna	12	San Juan la Laguna	5	Mayo	2023-05-17T00:00:00	2024-11-08T05:00:00	2	Temperatura media	14.4
54298	7	Sololá	717	San Juan la Laguna	12	San Juan la Laguna	5	Mayo	2023-05-17T00:00:00	2024-11-08T05:00:00	4	Temperatura máxima	14.7
54299	7	Sololá	717	San Juan la Laguna	12	San Juan la Laguna	5	Mayo	2023-05-17T00:00:00	2024-11-08T05:00:00	3	Temperatura mínima	13.9
54300	7	Sololá	717	San Juan la Laguna	12	San Juan la Laguna	5	Mayo	2023-05-17T00:00:00	2024-11-08T05:00:00	5	Humedad	88
54301	7	Sololá	717	San Juan la Laguna	12	San Juan la Laguna	5	Mayo	2023-05-17T00:00:00	2024-11-08T05:00:00	6	Velocidad del viento	3.2
54302	7	Sololá	717	San Juan la Laguna	12	San Juan la Laguna	5	Mayo	2023-05-17T00:00:00	2024-11-08T05:00:00	7	Dirección del viento	3.22
54303	7	Sololá	717	San Juan la Laguna	12	San Juan la Laguna	5	Mayo	2023-05-17T00:00:00	2024-11-08T05:00:00	1	Precipitación	0
54304	7	Sololá	717	San Juan la Laguna	12	San Juan la Laguna	5	Mayo	2023-05-17T00:00:00	2024-11-08T05:00:00	8	Radiación solar	0
54305	7	Sololá	717	San Juan la Laguna	12	San Juan la Laguna	5	Mayo	2023-05-17T00:00:00	2024-11-08T06:00:00	2	Temperatura media	14.6
54306	7	Sololá	717	San Juan la Laguna	12	San Juan la Laguna	5	Mayo	2023-05-17T00:00:00	2024-11-08T06:00:00	4	Temperatura máxima	14.7
54307	7	Sololá	717	San Juan la Laguna	12	San Juan la Laguna	5	Mayo	2023-05-17T00:00:00	2024-11-08T06:00:00	3	Temperatura mínima	14.2
54308	7	Sololá	717	San Juan la Laguna	12	San Juan la Laguna	5	Mayo	2023-05-17T00:00:00	2024-11-08T06:00:00	5	Humedad	87
54309	7	Sololá	717	San Juan la Laguna	12	San Juan la Laguna	5	Mayo	2023-05-17T00:00:00	2024-11-08T06:00:00	6	Velocidad del viento	3.2
54310	7	Sololá	717	San Juan la Laguna	12	San Juan la Laguna	5	Mayo	2023-05-17T00:00:00	2024-11-08T06:00:00	7	Dirección del viento	3.22
54311	7	Sololá	717	San Juan la Laguna	12	San Juan la Laguna	5	Mayo	2023-05-17T00:00:00	2024-11-08T06:00:00	1	Precipitación	0
54312	7	Sololá	717	San Juan la Laguna	12	San Juan la Laguna	5	Mayo	2023-05-17T00:00:00	2024-11-08T06:00:00	8	Radiación solar	4
54313	7	Sololá	717	San Juan la Laguna	12	San Juan la Laguna	5	Mayo	2023-05-17T00:00:00	2024-11-08T07:00:00	2	Temperatura media	16.5
54314	7	Sololá	717	San Juan la Laguna	12	San Juan la Laguna	5	Mayo	2023-05-17T00:00:00	2024-11-08T07:00:00	4	Temperatura máxima	16.5
54315	7	Sololá	717	San Juan la Laguna	12	San Juan la Laguna	5	Mayo	2023-05-17T00:00:00	2024-11-08T07:00:00	3	Temperatura mínima	14.6
54316	7	Sololá	717	San Juan la Laguna	12	San Juan la Laguna	5	Mayo	2023-05-17T00:00:00	2024-11-08T07:00:00	5	Humedad	85
54317	7	Sololá	717	San Juan la Laguna	12	San Juan la Laguna	5	Mayo	2023-05-17T00:00:00	2024-11-08T07:00:00	6	Velocidad del viento	1.6
54318	7	Sololá	717	San Juan la Laguna	12	San Juan la Laguna	5	Mayo	2023-05-17T00:00:00	2024-11-08T07:00:00	7	Dirección del viento	1.61
54319	7	Sololá	717	San Juan la Laguna	12	San Juan la Laguna	5	Mayo	2023-05-17T00:00:00	2024-11-08T07:00:00	1	Precipitación	0
54320	7	Sololá	717	San Juan la Laguna	12	San Juan la Laguna	5	Mayo	2023-05-17T00:00:00	2024-11-08T07:00:00	8	Radiación solar	104
54321	7	Sololá	717	San Juan la Laguna	12	San Juan la Laguna	5	Mayo	2023-05-17T00:00:00	2024-11-08T08:00:00	2	Temperatura media	20.3
54322	7	Sololá	717	San Juan la Laguna	12	San Juan la Laguna	5	Mayo	2023-05-17T00:00:00	2024-11-08T08:00:00	4	Temperatura máxima	20.3
54323	7	Sololá	717	San Juan la Laguna	12	San Juan la Laguna	5	Mayo	2023-05-17T00:00:00	2024-11-08T08:00:00	3	Temperatura mínima	16.5
54324	7	Sololá	717	San Juan la Laguna	12	San Juan la Laguna	5	Mayo	2023-05-17T00:00:00	2024-11-08T08:00:00	5	Humedad	78
54325	7	Sololá	717	San Juan la Laguna	12	San Juan la Laguna	5	Mayo	2023-05-17T00:00:00	2024-11-08T08:00:00	6	Velocidad del viento	0
54326	7	Sololá	717	San Juan la Laguna	12	San Juan la Laguna	5	Mayo	2023-05-17T00:00:00	2024-11-08T08:00:00	7	Dirección del viento	0
54327	7	Sololá	717	San Juan la Laguna	12	San Juan la Laguna	5	Mayo	2023-05-17T00:00:00	2024-11-08T08:00:00	1	Precipitación	0
54328	7	Sololá	717	San Juan la Laguna	12	San Juan la Laguna	5	Mayo	2023-05-17T00:00:00	2024-11-08T08:00:00	8	Radiación solar	322
54329	7	Sololá	717	San Juan la Laguna	12	San Juan la Laguna	5	Mayo	2023-05-17T00:00:00	2024-11-08T09:00:00	2	Temperatura media	21.3
54330	7	Sololá	717	San Juan la Laguna	12	San Juan la Laguna	5	Mayo	2023-05-17T00:00:00	2024-11-08T09:00:00	4	Temperatura máxima	21.4
54331	7	Sololá	717	San Juan la Laguna	12	San Juan la Laguna	5	Mayo	2023-05-17T00:00:00	2024-11-08T09:00:00	3	Temperatura mínima	20.4
54332	7	Sololá	717	San Juan la Laguna	12	San Juan la Laguna	5	Mayo	2023-05-17T00:00:00	2024-11-08T09:00:00	5	Humedad	72
54333	7	Sololá	717	San Juan la Laguna	12	San Juan la Laguna	5	Mayo	2023-05-17T00:00:00	2024-11-08T09:00:00	6	Velocidad del viento	1.6
54334	7	Sololá	717	San Juan la Laguna	12	San Juan la Laguna	5	Mayo	2023-05-17T00:00:00	2024-11-08T09:00:00	7	Dirección del viento	1.61
54335	7	Sololá	717	San Juan la Laguna	12	San Juan la Laguna	5	Mayo	2023-05-17T00:00:00	2024-11-08T09:00:00	1	Precipitación	0
54336	7	Sololá	717	San Juan la Laguna	12	San Juan la Laguna	5	Mayo	2023-05-17T00:00:00	2024-11-08T09:00:00	8	Radiación solar	549
54337	7	Sololá	717	San Juan la Laguna	12	San Juan la Laguna	5	Mayo	2023-05-17T00:00:00	2024-11-08T10:00:00	2	Temperatura media	22.6
54338	7	Sololá	717	San Juan la Laguna	12	San Juan la Laguna	5	Mayo	2023-05-17T00:00:00	2024-11-08T10:00:00	4	Temperatura máxima	22.6
54339	7	Sololá	717	San Juan la Laguna	12	San Juan la Laguna	5	Mayo	2023-05-17T00:00:00	2024-11-08T10:00:00	3	Temperatura mínima	21.3
54340	7	Sololá	717	San Juan la Laguna	12	San Juan la Laguna	5	Mayo	2023-05-17T00:00:00	2024-11-08T10:00:00	5	Humedad	67
54341	7	Sololá	717	San Juan la Laguna	12	San Juan la Laguna	5	Mayo	2023-05-17T00:00:00	2024-11-08T10:00:00	6	Velocidad del viento	1.6
54342	7	Sololá	717	San Juan la Laguna	12	San Juan la Laguna	5	Mayo	2023-05-17T00:00:00	2024-11-08T10:00:00	7	Dirección del viento	1.61
54343	7	Sololá	717	San Juan la Laguna	12	San Juan la Laguna	5	Mayo	2023-05-17T00:00:00	2024-11-08T10:00:00	1	Precipitación	0
54344	7	Sololá	717	San Juan la Laguna	12	San Juan la Laguna	5	Mayo	2023-05-17T00:00:00	2024-11-08T10:00:00	8	Radiación solar	729
54345	7	Sololá	717	San Juan la Laguna	12	San Juan la Laguna	5	Mayo	2023-05-17T00:00:00	2024-11-08T11:00:00	2	Temperatura media	24.2
54346	7	Sololá	717	San Juan la Laguna	12	San Juan la Laguna	5	Mayo	2023-05-17T00:00:00	2024-11-08T11:00:00	4	Temperatura máxima	24.2
54347	7	Sololá	717	San Juan la Laguna	12	San Juan la Laguna	5	Mayo	2023-05-17T00:00:00	2024-11-08T11:00:00	3	Temperatura mínima	22.2
54348	7	Sololá	717	San Juan la Laguna	12	San Juan la Laguna	5	Mayo	2023-05-17T00:00:00	2024-11-08T11:00:00	5	Humedad	56
54349	7	Sololá	717	San Juan la Laguna	12	San Juan la Laguna	5	Mayo	2023-05-17T00:00:00	2024-11-08T11:00:00	6	Velocidad del viento	3.2
54350	7	Sololá	717	San Juan la Laguna	12	San Juan la Laguna	5	Mayo	2023-05-17T00:00:00	2024-11-08T11:00:00	7	Dirección del viento	3.22
54351	7	Sololá	717	San Juan la Laguna	12	San Juan la Laguna	5	Mayo	2023-05-17T00:00:00	2024-11-08T11:00:00	1	Precipitación	0
54352	7	Sololá	717	San Juan la Laguna	12	San Juan la Laguna	5	Mayo	2023-05-17T00:00:00	2024-11-08T11:00:00	8	Radiación solar	854
54353	7	Sololá	717	San Juan la Laguna	12	San Juan la Laguna	5	Mayo	2023-05-17T00:00:00	2024-11-08T12:00:00	2	Temperatura media	24.9
54354	7	Sololá	717	San Juan la Laguna	12	San Juan la Laguna	5	Mayo	2023-05-17T00:00:00	2024-11-08T12:00:00	4	Temperatura máxima	25
54355	7	Sololá	717	San Juan la Laguna	12	San Juan la Laguna	5	Mayo	2023-05-17T00:00:00	2024-11-08T12:00:00	3	Temperatura mínima	23.6
54356	7	Sololá	717	San Juan la Laguna	12	San Juan la Laguna	5	Mayo	2023-05-17T00:00:00	2024-11-08T12:00:00	5	Humedad	63
54357	7	Sololá	717	San Juan la Laguna	12	San Juan la Laguna	5	Mayo	2023-05-17T00:00:00	2024-11-08T12:00:00	6	Velocidad del viento	3.2
54358	7	Sololá	717	San Juan la Laguna	12	San Juan la Laguna	5	Mayo	2023-05-17T00:00:00	2024-11-08T12:00:00	7	Dirección del viento	3.22
54359	7	Sololá	717	San Juan la Laguna	12	San Juan la Laguna	5	Mayo	2023-05-17T00:00:00	2024-11-08T12:00:00	1	Precipitación	0
54360	7	Sololá	717	San Juan la Laguna	12	San Juan la Laguna	5	Mayo	2023-05-17T00:00:00	2024-11-08T12:00:00	8	Radiación solar	937
54361	7	Sololá	717	San Juan la Laguna	12	San Juan la Laguna	5	Mayo	2023-05-17T00:00:00	2024-11-08T13:00:00	2	Temperatura media	24.9
54362	7	Sololá	717	San Juan la Laguna	12	San Juan la Laguna	5	Mayo	2023-05-17T00:00:00	2024-11-08T13:00:00	4	Temperatura máxima	25.3
54363	7	Sololá	717	San Juan la Laguna	12	San Juan la Laguna	5	Mayo	2023-05-17T00:00:00	2024-11-08T13:00:00	3	Temperatura mínima	24.8
54364	7	Sololá	717	San Juan la Laguna	12	San Juan la Laguna	5	Mayo	2023-05-17T00:00:00	2024-11-08T13:00:00	5	Humedad	63
54365	7	Sololá	717	San Juan la Laguna	12	San Juan la Laguna	5	Mayo	2023-05-17T00:00:00	2024-11-08T13:00:00	6	Velocidad del viento	4.8
54366	7	Sololá	717	San Juan la Laguna	12	San Juan la Laguna	5	Mayo	2023-05-17T00:00:00	2024-11-08T13:00:00	7	Dirección del viento	4.83
54367	7	Sololá	717	San Juan la Laguna	12	San Juan la Laguna	5	Mayo	2023-05-17T00:00:00	2024-11-08T13:00:00	1	Precipitación	0
54368	7	Sololá	717	San Juan la Laguna	12	San Juan la Laguna	5	Mayo	2023-05-17T00:00:00	2024-11-08T13:00:00	8	Radiación solar	948
54369	7	Sololá	717	San Juan la Laguna	12	San Juan la Laguna	5	Mayo	2023-05-17T00:00:00	2024-11-08T14:00:00	2	Temperatura media	24.2
54370	7	Sololá	717	San Juan la Laguna	12	San Juan la Laguna	5	Mayo	2023-05-17T00:00:00	2024-11-08T14:00:00	4	Temperatura máxima	24.9
54371	7	Sololá	717	San Juan la Laguna	12	San Juan la Laguna	5	Mayo	2023-05-17T00:00:00	2024-11-08T14:00:00	3	Temperatura mínima	24.2
54372	7	Sololá	717	San Juan la Laguna	12	San Juan la Laguna	5	Mayo	2023-05-17T00:00:00	2024-11-08T14:00:00	5	Humedad	68
54373	7	Sololá	717	San Juan la Laguna	12	San Juan la Laguna	5	Mayo	2023-05-17T00:00:00	2024-11-08T14:00:00	6	Velocidad del viento	6.4
54374	7	Sololá	717	San Juan la Laguna	12	San Juan la Laguna	5	Mayo	2023-05-17T00:00:00	2024-11-08T14:00:00	7	Dirección del viento	6.44
54375	7	Sololá	717	San Juan la Laguna	12	San Juan la Laguna	5	Mayo	2023-05-17T00:00:00	2024-11-08T14:00:00	1	Precipitación	0
54376	7	Sololá	717	San Juan la Laguna	12	San Juan la Laguna	5	Mayo	2023-05-17T00:00:00	2024-11-08T14:00:00	8	Radiación solar	900
54377	7	Sololá	717	San Juan la Laguna	12	San Juan la Laguna	5	Mayo	2023-05-17T00:00:00	2024-11-08T15:00:00	2	Temperatura media	23
54378	7	Sololá	717	San Juan la Laguna	12	San Juan la Laguna	5	Mayo	2023-05-17T00:00:00	2024-11-08T15:00:00	4	Temperatura máxima	24.4
54379	7	Sololá	717	San Juan la Laguna	12	San Juan la Laguna	5	Mayo	2023-05-17T00:00:00	2024-11-08T15:00:00	3	Temperatura mínima	22.8
54380	7	Sololá	717	San Juan la Laguna	12	San Juan la Laguna	5	Mayo	2023-05-17T00:00:00	2024-11-08T15:00:00	5	Humedad	74
54381	7	Sololá	717	San Juan la Laguna	12	San Juan la Laguna	5	Mayo	2023-05-17T00:00:00	2024-11-08T15:00:00	6	Velocidad del viento	6.4
54382	7	Sololá	717	San Juan la Laguna	12	San Juan la Laguna	5	Mayo	2023-05-17T00:00:00	2024-11-08T15:00:00	7	Dirección del viento	6.44
54383	7	Sololá	717	San Juan la Laguna	12	San Juan la Laguna	5	Mayo	2023-05-17T00:00:00	2024-11-08T15:00:00	1	Precipitación	0
54384	7	Sololá	717	San Juan la Laguna	12	San Juan la Laguna	5	Mayo	2023-05-17T00:00:00	2024-11-08T15:00:00	8	Radiación solar	681
54385	7	Sololá	717	San Juan la Laguna	12	San Juan la Laguna	5	Mayo	2023-05-17T00:00:00	2024-11-08T16:00:00	2	Temperatura media	21.7
54386	7	Sololá	717	San Juan la Laguna	12	San Juan la Laguna	5	Mayo	2023-05-17T00:00:00	2024-11-08T16:00:00	4	Temperatura máxima	23.3
54387	7	Sololá	717	San Juan la Laguna	12	San Juan la Laguna	5	Mayo	2023-05-17T00:00:00	2024-11-08T16:00:00	3	Temperatura mínima	21.6
54388	7	Sololá	717	San Juan la Laguna	12	San Juan la Laguna	5	Mayo	2023-05-17T00:00:00	2024-11-08T16:00:00	5	Humedad	79
54389	7	Sololá	717	San Juan la Laguna	12	San Juan la Laguna	5	Mayo	2023-05-17T00:00:00	2024-11-08T16:00:00	6	Velocidad del viento	4.8
54390	7	Sololá	717	San Juan la Laguna	12	San Juan la Laguna	5	Mayo	2023-05-17T00:00:00	2024-11-08T16:00:00	7	Dirección del viento	4.83
54391	7	Sololá	717	San Juan la Laguna	12	San Juan la Laguna	5	Mayo	2023-05-17T00:00:00	2024-11-08T16:00:00	1	Precipitación	0
54392	7	Sololá	717	San Juan la Laguna	12	San Juan la Laguna	5	Mayo	2023-05-17T00:00:00	2024-11-08T16:00:00	8	Radiación solar	395
54393	7	Sololá	717	San Juan la Laguna	12	San Juan la Laguna	5	Mayo	2023-05-17T00:00:00	2024-11-08T17:00:00	2	Temperatura media	20.9
54394	7	Sololá	717	San Juan la Laguna	12	San Juan la Laguna	5	Mayo	2023-05-17T00:00:00	2024-11-08T17:00:00	4	Temperatura máxima	21.7
54395	7	Sololá	717	San Juan la Laguna	12	San Juan la Laguna	5	Mayo	2023-05-17T00:00:00	2024-11-08T17:00:00	3	Temperatura mínima	20.8
54396	7	Sololá	717	San Juan la Laguna	12	San Juan la Laguna	5	Mayo	2023-05-17T00:00:00	2024-11-08T17:00:00	5	Humedad	81
54397	7	Sololá	717	San Juan la Laguna	12	San Juan la Laguna	5	Mayo	2023-05-17T00:00:00	2024-11-08T17:00:00	6	Velocidad del viento	3.2
54398	7	Sololá	717	San Juan la Laguna	12	San Juan la Laguna	5	Mayo	2023-05-17T00:00:00	2024-11-08T17:00:00	7	Dirección del viento	3.22
54399	7	Sololá	717	San Juan la Laguna	12	San Juan la Laguna	5	Mayo	2023-05-17T00:00:00	2024-11-08T17:00:00	1	Precipitación	0
54400	7	Sololá	717	San Juan la Laguna	12	San Juan la Laguna	5	Mayo	2023-05-17T00:00:00	2024-11-08T17:00:00	8	Radiación solar	37
54401	7	Sololá	717	San Juan la Laguna	12	San Juan la Laguna	5	Mayo	2023-05-17T00:00:00	2024-11-08T18:00:00	2	Temperatura media	20.2
54402	7	Sololá	717	San Juan la Laguna	12	San Juan la Laguna	5	Mayo	2023-05-17T00:00:00	2024-11-08T18:00:00	4	Temperatura máxima	20.9
54403	7	Sololá	717	San Juan la Laguna	12	San Juan la Laguna	5	Mayo	2023-05-17T00:00:00	2024-11-08T18:00:00	3	Temperatura mínima	20.2
54404	7	Sololá	717	San Juan la Laguna	12	San Juan la Laguna	5	Mayo	2023-05-17T00:00:00	2024-11-08T18:00:00	5	Humedad	88
54405	7	Sololá	717	San Juan la Laguna	12	San Juan la Laguna	5	Mayo	2023-05-17T00:00:00	2024-11-08T18:00:00	6	Velocidad del viento	1.6
54406	7	Sololá	717	San Juan la Laguna	12	San Juan la Laguna	5	Mayo	2023-05-17T00:00:00	2024-11-08T18:00:00	7	Dirección del viento	1.61
54407	7	Sololá	717	San Juan la Laguna	12	San Juan la Laguna	5	Mayo	2023-05-17T00:00:00	2024-11-08T18:00:00	1	Precipitación	0.4
54408	7	Sololá	717	San Juan la Laguna	12	San Juan la Laguna	5	Mayo	2023-05-17T00:00:00	2024-11-08T18:00:00	8	Radiación solar	69
54409	7	Sololá	717	San Juan la Laguna	12	San Juan la Laguna	5	Mayo	2023-05-17T00:00:00	2024-11-08T19:00:00	2	Temperatura media	19.4
54410	7	Sololá	717	San Juan la Laguna	12	San Juan la Laguna	5	Mayo	2023-05-17T00:00:00	2024-11-08T19:00:00	4	Temperatura máxima	20.2
54411	7	Sololá	717	San Juan la Laguna	12	San Juan la Laguna	5	Mayo	2023-05-17T00:00:00	2024-11-08T19:00:00	3	Temperatura mínima	19.4
54412	7	Sololá	717	San Juan la Laguna	12	San Juan la Laguna	5	Mayo	2023-05-17T00:00:00	2024-11-08T19:00:00	5	Humedad	90
54413	7	Sololá	717	San Juan la Laguna	12	San Juan la Laguna	5	Mayo	2023-05-17T00:00:00	2024-11-08T19:00:00	6	Velocidad del viento	1.6
54414	7	Sololá	717	San Juan la Laguna	12	San Juan la Laguna	5	Mayo	2023-05-17T00:00:00	2024-11-08T19:00:00	7	Dirección del viento	1.61
54415	7	Sololá	717	San Juan la Laguna	12	San Juan la Laguna	5	Mayo	2023-05-17T00:00:00	2024-11-08T19:00:00	1	Precipitación	0
54416	7	Sololá	717	San Juan la Laguna	12	San Juan la Laguna	5	Mayo	2023-05-17T00:00:00	2024-11-08T19:00:00	8	Radiación solar	0
54417	7	Sololá	717	San Juan la Laguna	12	San Juan la Laguna	5	Mayo	2023-05-17T00:00:00	2024-11-08T20:00:00	2	Temperatura media	19
54418	7	Sololá	717	San Juan la Laguna	12	San Juan la Laguna	5	Mayo	2023-05-17T00:00:00	2024-11-08T20:00:00	4	Temperatura máxima	19.6
54419	7	Sololá	717	San Juan la Laguna	12	San Juan la Laguna	5	Mayo	2023-05-17T00:00:00	2024-11-08T20:00:00	3	Temperatura mínima	19
54420	7	Sololá	717	San Juan la Laguna	12	San Juan la Laguna	5	Mayo	2023-05-17T00:00:00	2024-11-08T20:00:00	5	Humedad	91
54421	7	Sololá	717	San Juan la Laguna	12	San Juan la Laguna	5	Mayo	2023-05-17T00:00:00	2024-11-08T20:00:00	6	Velocidad del viento	1.6
54422	7	Sololá	717	San Juan la Laguna	12	San Juan la Laguna	5	Mayo	2023-05-17T00:00:00	2024-11-08T20:00:00	7	Dirección del viento	1.61
54423	7	Sololá	717	San Juan la Laguna	12	San Juan la Laguna	5	Mayo	2023-05-17T00:00:00	2024-11-08T20:00:00	1	Precipitación	0.2
54424	7	Sololá	717	San Juan la Laguna	12	San Juan la Laguna	5	Mayo	2023-05-17T00:00:00	2024-11-08T20:00:00	8	Radiación solar	0
54425	7	Sololá	717	San Juan la Laguna	12	San Juan la Laguna	5	Mayo	2023-05-17T00:00:00	2024-11-08T21:00:00	2	Temperatura media	18.3
54426	7	Sololá	717	San Juan la Laguna	12	San Juan la Laguna	5	Mayo	2023-05-17T00:00:00	2024-11-08T21:00:00	4	Temperatura máxima	18.9
54427	7	Sololá	717	San Juan la Laguna	12	San Juan la Laguna	5	Mayo	2023-05-17T00:00:00	2024-11-08T21:00:00	3	Temperatura mínima	18.3
54428	7	Sololá	717	San Juan la Laguna	12	San Juan la Laguna	5	Mayo	2023-05-17T00:00:00	2024-11-08T21:00:00	5	Humedad	92
54429	7	Sololá	717	San Juan la Laguna	12	San Juan la Laguna	5	Mayo	2023-05-17T00:00:00	2024-11-08T21:00:00	6	Velocidad del viento	1.6
54430	7	Sololá	717	San Juan la Laguna	12	San Juan la Laguna	5	Mayo	2023-05-17T00:00:00	2024-11-08T21:00:00	7	Dirección del viento	1.61
54431	7	Sololá	717	San Juan la Laguna	12	San Juan la Laguna	5	Mayo	2023-05-17T00:00:00	2024-11-08T21:00:00	1	Precipitación	0
54432	7	Sololá	717	San Juan la Laguna	12	San Juan la Laguna	5	Mayo	2023-05-17T00:00:00	2024-11-08T21:00:00	8	Radiación solar	0
54433	7	Sololá	717	San Juan la Laguna	12	San Juan la Laguna	5	Mayo	2023-05-17T00:00:00	2024-11-08T22:00:00	2	Temperatura media	18.3
54434	7	Sololá	717	San Juan la Laguna	12	San Juan la Laguna	5	Mayo	2023-05-17T00:00:00	2024-11-08T22:00:00	4	Temperatura máxima	18.6
54435	7	Sololá	717	San Juan la Laguna	12	San Juan la Laguna	5	Mayo	2023-05-17T00:00:00	2024-11-08T22:00:00	3	Temperatura mínima	18.3
54436	7	Sololá	717	San Juan la Laguna	12	San Juan la Laguna	5	Mayo	2023-05-17T00:00:00	2024-11-08T22:00:00	5	Humedad	91
54437	7	Sololá	717	San Juan la Laguna	12	San Juan la Laguna	5	Mayo	2023-05-17T00:00:00	2024-11-08T22:00:00	6	Velocidad del viento	1.6
54438	7	Sololá	717	San Juan la Laguna	12	San Juan la Laguna	5	Mayo	2023-05-17T00:00:00	2024-11-08T22:00:00	7	Dirección del viento	1.61
54439	7	Sololá	717	San Juan la Laguna	12	San Juan la Laguna	5	Mayo	2023-05-17T00:00:00	2024-11-08T22:00:00	1	Precipitación	0
54440	7	Sololá	717	San Juan la Laguna	12	San Juan la Laguna	5	Mayo	2023-05-17T00:00:00	2024-11-08T22:00:00	8	Radiación solar	0
54441	7	Sololá	717	San Juan la Laguna	12	San Juan la Laguna	5	Mayo	2023-05-17T00:00:00	2024-11-08T23:00:00	2	Temperatura media	18.6
54442	7	Sololá	717	San Juan la Laguna	12	San Juan la Laguna	5	Mayo	2023-05-17T00:00:00	2024-11-08T23:00:00	4	Temperatura máxima	18.7
54443	7	Sololá	717	San Juan la Laguna	12	San Juan la Laguna	5	Mayo	2023-05-17T00:00:00	2024-11-08T23:00:00	3	Temperatura mínima	18.3
54444	7	Sololá	717	San Juan la Laguna	12	San Juan la Laguna	5	Mayo	2023-05-17T00:00:00	2024-11-08T23:00:00	5	Humedad	90
54445	7	Sololá	717	San Juan la Laguna	12	San Juan la Laguna	5	Mayo	2023-05-17T00:00:00	2024-11-08T23:00:00	6	Velocidad del viento	3.2
54446	7	Sololá	717	San Juan la Laguna	12	San Juan la Laguna	5	Mayo	2023-05-17T00:00:00	2024-11-08T23:00:00	7	Dirección del viento	3.22
54447	7	Sololá	717	San Juan la Laguna	12	San Juan la Laguna	5	Mayo	2023-05-17T00:00:00	2024-11-08T23:00:00	1	Precipitación	0
54448	7	Sololá	717	San Juan la Laguna	12	San Juan la Laguna	5	Mayo	2023-05-17T00:00:00	2024-11-08T23:00:00	8	Radiación solar	0
54449	7	Sololá	717	San Juan la Laguna	12	San Juan la Laguna	5	Mayo	2023-05-18T00:00:00	2024-11-08T00:00:00	2	Temperatura media	17.7
54450	7	Sololá	717	San Juan la Laguna	12	San Juan la Laguna	5	Mayo	2023-05-18T00:00:00	2024-11-08T00:00:00	4	Temperatura máxima	18.6
54451	7	Sololá	717	San Juan la Laguna	12	San Juan la Laguna	5	Mayo	2023-05-18T00:00:00	2024-11-08T00:00:00	3	Temperatura mínima	17.7
54452	7	Sololá	717	San Juan la Laguna	12	San Juan la Laguna	5	Mayo	2023-05-18T00:00:00	2024-11-08T00:00:00	5	Humedad	92
54453	7	Sololá	717	San Juan la Laguna	12	San Juan la Laguna	5	Mayo	2023-05-18T00:00:00	2024-11-08T00:00:00	6	Velocidad del viento	1.6
54454	7	Sololá	717	San Juan la Laguna	12	San Juan la Laguna	5	Mayo	2023-05-18T00:00:00	2024-11-08T00:00:00	7	Dirección del viento	1.61
54455	7	Sololá	717	San Juan la Laguna	12	San Juan la Laguna	5	Mayo	2023-05-18T00:00:00	2024-11-08T00:00:00	1	Precipitación	0
54456	7	Sololá	717	San Juan la Laguna	12	San Juan la Laguna	5	Mayo	2023-05-18T00:00:00	2024-11-08T00:00:00	8	Radiación solar	0
54457	7	Sololá	717	San Juan la Laguna	12	San Juan la Laguna	5	Mayo	2023-05-18T00:00:00	2024-11-08T01:00:00	2	Temperatura media	17.2
54458	7	Sololá	717	San Juan la Laguna	12	San Juan la Laguna	5	Mayo	2023-05-18T00:00:00	2024-11-08T01:00:00	4	Temperatura máxima	17.7
54459	7	Sololá	717	San Juan la Laguna	12	San Juan la Laguna	5	Mayo	2023-05-18T00:00:00	2024-11-08T01:00:00	3	Temperatura mínima	17.2
54460	7	Sololá	717	San Juan la Laguna	12	San Juan la Laguna	5	Mayo	2023-05-18T00:00:00	2024-11-08T01:00:00	5	Humedad	91
54461	7	Sololá	717	San Juan la Laguna	12	San Juan la Laguna	5	Mayo	2023-05-18T00:00:00	2024-11-08T01:00:00	6	Velocidad del viento	1.6
54462	7	Sololá	717	San Juan la Laguna	12	San Juan la Laguna	5	Mayo	2023-05-18T00:00:00	2024-11-08T01:00:00	7	Dirección del viento	1.61
54463	7	Sololá	717	San Juan la Laguna	12	San Juan la Laguna	5	Mayo	2023-05-18T00:00:00	2024-11-08T01:00:00	1	Precipitación	0
54464	7	Sololá	717	San Juan la Laguna	12	San Juan la Laguna	5	Mayo	2023-05-18T00:00:00	2024-11-08T01:00:00	8	Radiación solar	0
54465	7	Sololá	717	San Juan la Laguna	12	San Juan la Laguna	5	Mayo	2023-05-18T00:00:00	2024-11-08T02:00:00	2	Temperatura media	16.6
54466	7	Sololá	717	San Juan la Laguna	12	San Juan la Laguna	5	Mayo	2023-05-18T00:00:00	2024-11-08T02:00:00	4	Temperatura máxima	17.2
54467	7	Sololá	717	San Juan la Laguna	12	San Juan la Laguna	5	Mayo	2023-05-18T00:00:00	2024-11-08T02:00:00	3	Temperatura mínima	16.6
54468	7	Sololá	717	San Juan la Laguna	12	San Juan la Laguna	5	Mayo	2023-05-18T00:00:00	2024-11-08T02:00:00	5	Humedad	91
54469	7	Sololá	717	San Juan la Laguna	12	San Juan la Laguna	5	Mayo	2023-05-18T00:00:00	2024-11-08T02:00:00	6	Velocidad del viento	1.6
54470	7	Sololá	717	San Juan la Laguna	12	San Juan la Laguna	5	Mayo	2023-05-18T00:00:00	2024-11-08T02:00:00	7	Dirección del viento	1.61
54471	7	Sololá	717	San Juan la Laguna	12	San Juan la Laguna	5	Mayo	2023-05-18T00:00:00	2024-11-08T02:00:00	1	Precipitación	0
54472	7	Sololá	717	San Juan la Laguna	12	San Juan la Laguna	5	Mayo	2023-05-18T00:00:00	2024-11-08T02:00:00	8	Radiación solar	0
54473	7	Sololá	717	San Juan la Laguna	12	San Juan la Laguna	5	Mayo	2023-05-18T00:00:00	2024-11-08T03:00:00	2	Temperatura media	16.6
54474	7	Sololá	717	San Juan la Laguna	12	San Juan la Laguna	5	Mayo	2023-05-18T00:00:00	2024-11-08T03:00:00	4	Temperatura máxima	16.6
54475	7	Sololá	717	San Juan la Laguna	12	San Juan la Laguna	5	Mayo	2023-05-18T00:00:00	2024-11-08T03:00:00	3	Temperatura mínima	16.4
54476	7	Sololá	717	San Juan la Laguna	12	San Juan la Laguna	5	Mayo	2023-05-18T00:00:00	2024-11-08T03:00:00	5	Humedad	89
54477	7	Sololá	717	San Juan la Laguna	12	San Juan la Laguna	5	Mayo	2023-05-18T00:00:00	2024-11-08T03:00:00	6	Velocidad del viento	3.2
54478	7	Sololá	717	San Juan la Laguna	12	San Juan la Laguna	5	Mayo	2023-05-18T00:00:00	2024-11-08T03:00:00	7	Dirección del viento	3.22
54479	7	Sololá	717	San Juan la Laguna	12	San Juan la Laguna	5	Mayo	2023-05-18T00:00:00	2024-11-08T03:00:00	1	Precipitación	0
54480	7	Sololá	717	San Juan la Laguna	12	San Juan la Laguna	5	Mayo	2023-05-18T00:00:00	2024-11-08T03:00:00	8	Radiación solar	0
54481	7	Sololá	717	San Juan la Laguna	12	San Juan la Laguna	5	Mayo	2023-05-18T00:00:00	2024-11-08T04:00:00	2	Temperatura media	16.2
54482	7	Sololá	717	San Juan la Laguna	12	San Juan la Laguna	5	Mayo	2023-05-18T00:00:00	2024-11-08T04:00:00	4	Temperatura máxima	16.6
54483	7	Sololá	717	San Juan la Laguna	12	San Juan la Laguna	5	Mayo	2023-05-18T00:00:00	2024-11-08T04:00:00	3	Temperatura mínima	16.1
54484	7	Sololá	717	San Juan la Laguna	12	San Juan la Laguna	5	Mayo	2023-05-18T00:00:00	2024-11-08T04:00:00	5	Humedad	90
54485	7	Sololá	717	San Juan la Laguna	12	San Juan la Laguna	5	Mayo	2023-05-18T00:00:00	2024-11-08T04:00:00	6	Velocidad del viento	3.2
54486	7	Sololá	717	San Juan la Laguna	12	San Juan la Laguna	5	Mayo	2023-05-18T00:00:00	2024-11-08T04:00:00	7	Dirección del viento	3.22
54487	7	Sololá	717	San Juan la Laguna	12	San Juan la Laguna	5	Mayo	2023-05-18T00:00:00	2024-11-08T04:00:00	1	Precipitación	0
54488	7	Sololá	717	San Juan la Laguna	12	San Juan la Laguna	5	Mayo	2023-05-18T00:00:00	2024-11-08T04:00:00	8	Radiación solar	0
54489	7	Sololá	717	San Juan la Laguna	12	San Juan la Laguna	5	Mayo	2023-05-18T00:00:00	2024-11-08T05:00:00	2	Temperatura media	16
54490	7	Sololá	717	San Juan la Laguna	12	San Juan la Laguna	5	Mayo	2023-05-18T00:00:00	2024-11-08T05:00:00	4	Temperatura máxima	16.2
54491	7	Sololá	717	San Juan la Laguna	12	San Juan la Laguna	5	Mayo	2023-05-18T00:00:00	2024-11-08T05:00:00	3	Temperatura mínima	16
54492	7	Sololá	717	San Juan la Laguna	12	San Juan la Laguna	5	Mayo	2023-05-18T00:00:00	2024-11-08T05:00:00	5	Humedad	90
54493	7	Sololá	717	San Juan la Laguna	12	San Juan la Laguna	5	Mayo	2023-05-18T00:00:00	2024-11-08T05:00:00	6	Velocidad del viento	3.2
54494	7	Sololá	717	San Juan la Laguna	12	San Juan la Laguna	5	Mayo	2023-05-18T00:00:00	2024-11-08T05:00:00	7	Dirección del viento	3.22
54495	7	Sololá	717	San Juan la Laguna	12	San Juan la Laguna	5	Mayo	2023-05-18T00:00:00	2024-11-08T05:00:00	1	Precipitación	0
54496	7	Sololá	717	San Juan la Laguna	12	San Juan la Laguna	5	Mayo	2023-05-18T00:00:00	2024-11-08T05:00:00	8	Radiación solar	0
54497	7	Sololá	717	San Juan la Laguna	12	San Juan la Laguna	5	Mayo	2023-05-18T00:00:00	2024-11-08T06:00:00	2	Temperatura media	16.2
54498	7	Sololá	717	San Juan la Laguna	12	San Juan la Laguna	5	Mayo	2023-05-18T00:00:00	2024-11-08T06:00:00	4	Temperatura máxima	16.2
54499	7	Sololá	717	San Juan la Laguna	12	San Juan la Laguna	5	Mayo	2023-05-18T00:00:00	2024-11-08T06:00:00	3	Temperatura mínima	16
54500	7	Sololá	717	San Juan la Laguna	12	San Juan la Laguna	5	Mayo	2023-05-18T00:00:00	2024-11-08T06:00:00	5	Humedad	89
54501	7	Sololá	717	San Juan la Laguna	12	San Juan la Laguna	5	Mayo	2023-05-18T00:00:00	2024-11-08T06:00:00	6	Velocidad del viento	3.2
54502	7	Sololá	717	San Juan la Laguna	12	San Juan la Laguna	5	Mayo	2023-05-18T00:00:00	2024-11-08T06:00:00	7	Dirección del viento	3.22
54503	7	Sololá	717	San Juan la Laguna	12	San Juan la Laguna	5	Mayo	2023-05-18T00:00:00	2024-11-08T06:00:00	1	Precipitación	0
54504	7	Sololá	717	San Juan la Laguna	12	San Juan la Laguna	5	Mayo	2023-05-18T00:00:00	2024-11-08T06:00:00	8	Radiación solar	6
54505	7	Sololá	717	San Juan la Laguna	12	San Juan la Laguna	5	Mayo	2023-05-18T00:00:00	2024-11-08T07:00:00	2	Temperatura media	18.2
54506	7	Sololá	717	San Juan la Laguna	12	San Juan la Laguna	5	Mayo	2023-05-18T00:00:00	2024-11-08T07:00:00	4	Temperatura máxima	18.2
54507	7	Sololá	717	San Juan la Laguna	12	San Juan la Laguna	5	Mayo	2023-05-18T00:00:00	2024-11-08T07:00:00	3	Temperatura mínima	16.2
54508	7	Sololá	717	San Juan la Laguna	12	San Juan la Laguna	5	Mayo	2023-05-18T00:00:00	2024-11-08T07:00:00	5	Humedad	86
54509	7	Sololá	717	San Juan la Laguna	12	San Juan la Laguna	5	Mayo	2023-05-18T00:00:00	2024-11-08T07:00:00	6	Velocidad del viento	0
54510	7	Sololá	717	San Juan la Laguna	12	San Juan la Laguna	5	Mayo	2023-05-18T00:00:00	2024-11-08T07:00:00	7	Dirección del viento	0
54511	7	Sololá	717	San Juan la Laguna	12	San Juan la Laguna	5	Mayo	2023-05-18T00:00:00	2024-11-08T07:00:00	1	Precipitación	0
54512	7	Sololá	717	San Juan la Laguna	12	San Juan la Laguna	5	Mayo	2023-05-18T00:00:00	2024-11-08T07:00:00	8	Radiación solar	117
54513	7	Sololá	717	San Juan la Laguna	12	San Juan la Laguna	5	Mayo	2023-05-18T00:00:00	2024-11-08T08:00:00	2	Temperatura media	20.3
54514	7	Sololá	717	San Juan la Laguna	12	San Juan la Laguna	5	Mayo	2023-05-18T00:00:00	2024-11-08T08:00:00	4	Temperatura máxima	20.3
54515	7	Sololá	717	San Juan la Laguna	12	San Juan la Laguna	5	Mayo	2023-05-18T00:00:00	2024-11-08T08:00:00	3	Temperatura mínima	18.2
54516	7	Sololá	717	San Juan la Laguna	12	San Juan la Laguna	5	Mayo	2023-05-18T00:00:00	2024-11-08T08:00:00	5	Humedad	79
54517	7	Sololá	717	San Juan la Laguna	12	San Juan la Laguna	5	Mayo	2023-05-18T00:00:00	2024-11-08T08:00:00	6	Velocidad del viento	0
54518	7	Sololá	717	San Juan la Laguna	12	San Juan la Laguna	5	Mayo	2023-05-18T00:00:00	2024-11-08T08:00:00	7	Dirección del viento	0
54519	7	Sololá	717	San Juan la Laguna	12	San Juan la Laguna	5	Mayo	2023-05-18T00:00:00	2024-11-08T08:00:00	1	Precipitación	0
54520	7	Sololá	717	San Juan la Laguna	12	San Juan la Laguna	5	Mayo	2023-05-18T00:00:00	2024-11-08T08:00:00	8	Radiación solar	234
54521	7	Sololá	717	San Juan la Laguna	12	San Juan la Laguna	5	Mayo	2023-05-18T00:00:00	2024-11-08T09:00:00	2	Temperatura media	22.1
54522	7	Sololá	717	San Juan la Laguna	12	San Juan la Laguna	5	Mayo	2023-05-18T00:00:00	2024-11-08T09:00:00	4	Temperatura máxima	22.1
54523	7	Sololá	717	San Juan la Laguna	12	San Juan la Laguna	5	Mayo	2023-05-18T00:00:00	2024-11-08T09:00:00	3	Temperatura mínima	20.3
54524	7	Sololá	717	San Juan la Laguna	12	San Juan la Laguna	5	Mayo	2023-05-18T00:00:00	2024-11-08T09:00:00	5	Humedad	70
54525	7	Sololá	717	San Juan la Laguna	12	San Juan la Laguna	5	Mayo	2023-05-18T00:00:00	2024-11-08T09:00:00	6	Velocidad del viento	1.6
54526	7	Sololá	717	San Juan la Laguna	12	San Juan la Laguna	5	Mayo	2023-05-18T00:00:00	2024-11-08T09:00:00	7	Dirección del viento	1.61
54527	7	Sololá	717	San Juan la Laguna	12	San Juan la Laguna	5	Mayo	2023-05-18T00:00:00	2024-11-08T09:00:00	1	Precipitación	0
54528	7	Sololá	717	San Juan la Laguna	12	San Juan la Laguna	5	Mayo	2023-05-18T00:00:00	2024-11-08T09:00:00	8	Radiación solar	369
54529	7	Sololá	717	San Juan la Laguna	12	San Juan la Laguna	5	Mayo	2023-05-18T00:00:00	2024-11-08T10:00:00	2	Temperatura media	23.9
54530	7	Sololá	717	San Juan la Laguna	12	San Juan la Laguna	5	Mayo	2023-05-18T00:00:00	2024-11-08T10:00:00	4	Temperatura máxima	23.9
54531	7	Sololá	717	San Juan la Laguna	12	San Juan la Laguna	5	Mayo	2023-05-18T00:00:00	2024-11-08T10:00:00	3	Temperatura mínima	22.1
54532	7	Sololá	717	San Juan la Laguna	12	San Juan la Laguna	5	Mayo	2023-05-18T00:00:00	2024-11-08T10:00:00	5	Humedad	61
54533	7	Sololá	717	San Juan la Laguna	12	San Juan la Laguna	5	Mayo	2023-05-18T00:00:00	2024-11-08T10:00:00	6	Velocidad del viento	1.6
54534	7	Sololá	717	San Juan la Laguna	12	San Juan la Laguna	5	Mayo	2023-05-18T00:00:00	2024-11-08T10:00:00	7	Dirección del viento	1.61
54535	7	Sololá	717	San Juan la Laguna	12	San Juan la Laguna	5	Mayo	2023-05-18T00:00:00	2024-11-08T10:00:00	1	Precipitación	0
54536	7	Sololá	717	San Juan la Laguna	12	San Juan la Laguna	5	Mayo	2023-05-18T00:00:00	2024-11-08T10:00:00	8	Radiación solar	686
54537	7	Sololá	717	San Juan la Laguna	12	San Juan la Laguna	5	Mayo	2023-05-18T00:00:00	2024-11-08T11:00:00	2	Temperatura media	24.8
54538	7	Sololá	717	San Juan la Laguna	12	San Juan la Laguna	5	Mayo	2023-05-18T00:00:00	2024-11-08T11:00:00	4	Temperatura máxima	25.2
54539	7	Sololá	717	San Juan la Laguna	12	San Juan la Laguna	5	Mayo	2023-05-18T00:00:00	2024-11-08T11:00:00	3	Temperatura mínima	23.9
54540	7	Sololá	717	San Juan la Laguna	12	San Juan la Laguna	5	Mayo	2023-05-18T00:00:00	2024-11-08T11:00:00	5	Humedad	56
54541	7	Sololá	717	San Juan la Laguna	12	San Juan la Laguna	5	Mayo	2023-05-18T00:00:00	2024-11-08T11:00:00	6	Velocidad del viento	1.6
54542	7	Sololá	717	San Juan la Laguna	12	San Juan la Laguna	5	Mayo	2023-05-18T00:00:00	2024-11-08T11:00:00	7	Dirección del viento	1.61
54543	7	Sololá	717	San Juan la Laguna	12	San Juan la Laguna	5	Mayo	2023-05-18T00:00:00	2024-11-08T11:00:00	1	Precipitación	0
54544	7	Sololá	717	San Juan la Laguna	12	San Juan la Laguna	5	Mayo	2023-05-18T00:00:00	2024-11-08T11:00:00	8	Radiación solar	845
54545	7	Sololá	717	San Juan la Laguna	12	San Juan la Laguna	5	Mayo	2023-05-18T00:00:00	2024-11-08T12:00:00	2	Temperatura media	25.8
54546	7	Sololá	717	San Juan la Laguna	12	San Juan la Laguna	5	Mayo	2023-05-18T00:00:00	2024-11-08T12:00:00	4	Temperatura máxima	26.1
54547	7	Sololá	717	San Juan la Laguna	12	San Juan la Laguna	5	Mayo	2023-05-18T00:00:00	2024-11-08T12:00:00	3	Temperatura mínima	24.9
54548	7	Sololá	717	San Juan la Laguna	12	San Juan la Laguna	5	Mayo	2023-05-18T00:00:00	2024-11-08T12:00:00	5	Humedad	63
54549	7	Sololá	717	San Juan la Laguna	12	San Juan la Laguna	5	Mayo	2023-05-18T00:00:00	2024-11-08T12:00:00	6	Velocidad del viento	1.6
54550	7	Sololá	717	San Juan la Laguna	12	San Juan la Laguna	5	Mayo	2023-05-18T00:00:00	2024-11-08T12:00:00	7	Dirección del viento	1.61
54551	7	Sololá	717	San Juan la Laguna	12	San Juan la Laguna	5	Mayo	2023-05-18T00:00:00	2024-11-08T12:00:00	1	Precipitación	0
54552	7	Sololá	717	San Juan la Laguna	12	San Juan la Laguna	5	Mayo	2023-05-18T00:00:00	2024-11-08T12:00:00	8	Radiación solar	943
54553	7	Sololá	717	San Juan la Laguna	12	San Juan la Laguna	5	Mayo	2023-05-18T00:00:00	2024-11-08T13:00:00	2	Temperatura media	24.7
54554	7	Sololá	717	San Juan la Laguna	12	San Juan la Laguna	5	Mayo	2023-05-18T00:00:00	2024-11-08T13:00:00	4	Temperatura máxima	25.8
54555	7	Sololá	717	San Juan la Laguna	12	San Juan la Laguna	5	Mayo	2023-05-18T00:00:00	2024-11-08T13:00:00	3	Temperatura mínima	24.7
54556	7	Sololá	717	San Juan la Laguna	12	San Juan la Laguna	5	Mayo	2023-05-18T00:00:00	2024-11-08T13:00:00	5	Humedad	66
54557	7	Sololá	717	San Juan la Laguna	12	San Juan la Laguna	5	Mayo	2023-05-18T00:00:00	2024-11-08T13:00:00	6	Velocidad del viento	3.2
54558	7	Sololá	717	San Juan la Laguna	12	San Juan la Laguna	5	Mayo	2023-05-18T00:00:00	2024-11-08T13:00:00	7	Dirección del viento	3.22
54559	7	Sololá	717	San Juan la Laguna	12	San Juan la Laguna	5	Mayo	2023-05-18T00:00:00	2024-11-08T13:00:00	1	Precipitación	0
54560	7	Sololá	717	San Juan la Laguna	12	San Juan la Laguna	5	Mayo	2023-05-18T00:00:00	2024-11-08T13:00:00	8	Radiación solar	700
54561	7	Sololá	717	San Juan la Laguna	12	San Juan la Laguna	5	Mayo	2023-05-18T00:00:00	2024-11-08T14:00:00	2	Temperatura media	24.8
54562	7	Sololá	717	San Juan la Laguna	12	San Juan la Laguna	5	Mayo	2023-05-18T00:00:00	2024-11-08T14:00:00	4	Temperatura máxima	25.3
54563	7	Sololá	717	San Juan la Laguna	12	San Juan la Laguna	5	Mayo	2023-05-18T00:00:00	2024-11-08T14:00:00	3	Temperatura mínima	24.2
54564	7	Sololá	717	San Juan la Laguna	12	San Juan la Laguna	5	Mayo	2023-05-18T00:00:00	2024-11-08T14:00:00	5	Humedad	69
54565	7	Sololá	717	San Juan la Laguna	12	San Juan la Laguna	5	Mayo	2023-05-18T00:00:00	2024-11-08T14:00:00	6	Velocidad del viento	3.2
54566	7	Sololá	717	San Juan la Laguna	12	San Juan la Laguna	5	Mayo	2023-05-18T00:00:00	2024-11-08T14:00:00	7	Dirección del viento	3.22
54567	7	Sololá	717	San Juan la Laguna	12	San Juan la Laguna	5	Mayo	2023-05-18T00:00:00	2024-11-08T14:00:00	1	Precipitación	0
54568	7	Sololá	717	San Juan la Laguna	12	San Juan la Laguna	5	Mayo	2023-05-18T00:00:00	2024-11-08T14:00:00	8	Radiación solar	694
54569	7	Sololá	717	San Juan la Laguna	12	San Juan la Laguna	5	Mayo	2023-05-18T00:00:00	2024-11-08T15:00:00	2	Temperatura media	24.6
54570	7	Sololá	717	San Juan la Laguna	12	San Juan la Laguna	5	Mayo	2023-05-18T00:00:00	2024-11-08T15:00:00	4	Temperatura máxima	24.9
54571	7	Sololá	717	San Juan la Laguna	12	San Juan la Laguna	5	Mayo	2023-05-18T00:00:00	2024-11-08T15:00:00	3	Temperatura mínima	24.3
54572	7	Sololá	717	San Juan la Laguna	12	San Juan la Laguna	5	Mayo	2023-05-18T00:00:00	2024-11-08T15:00:00	5	Humedad	69
54573	7	Sololá	717	San Juan la Laguna	12	San Juan la Laguna	5	Mayo	2023-05-18T00:00:00	2024-11-08T15:00:00	6	Velocidad del viento	3.2
54574	7	Sololá	717	San Juan la Laguna	12	San Juan la Laguna	5	Mayo	2023-05-18T00:00:00	2024-11-08T15:00:00	7	Dirección del viento	3.22
54575	7	Sololá	717	San Juan la Laguna	12	San Juan la Laguna	5	Mayo	2023-05-18T00:00:00	2024-11-08T15:00:00	1	Precipitación	0
54576	7	Sololá	717	San Juan la Laguna	12	San Juan la Laguna	5	Mayo	2023-05-18T00:00:00	2024-11-08T15:00:00	8	Radiación solar	622
54577	7	Sololá	717	San Juan la Laguna	12	San Juan la Laguna	5	Mayo	2023-05-18T00:00:00	2024-11-08T16:00:00	2	Temperatura media	24.2
54578	7	Sololá	717	San Juan la Laguna	12	San Juan la Laguna	5	Mayo	2023-05-18T00:00:00	2024-11-08T16:00:00	4	Temperatura máxima	24.9
54579	7	Sololá	717	San Juan la Laguna	12	San Juan la Laguna	5	Mayo	2023-05-18T00:00:00	2024-11-08T16:00:00	3	Temperatura mínima	24.1
54580	7	Sololá	717	San Juan la Laguna	12	San Juan la Laguna	5	Mayo	2023-05-18T00:00:00	2024-11-08T16:00:00	5	Humedad	72
54581	7	Sololá	717	San Juan la Laguna	12	San Juan la Laguna	5	Mayo	2023-05-18T00:00:00	2024-11-08T16:00:00	6	Velocidad del viento	3.2
54582	7	Sololá	717	San Juan la Laguna	12	San Juan la Laguna	5	Mayo	2023-05-18T00:00:00	2024-11-08T16:00:00	7	Dirección del viento	3.22
54583	7	Sololá	717	San Juan la Laguna	12	San Juan la Laguna	5	Mayo	2023-05-18T00:00:00	2024-11-08T16:00:00	1	Precipitación	0
54584	7	Sololá	717	San Juan la Laguna	12	San Juan la Laguna	5	Mayo	2023-05-18T00:00:00	2024-11-08T16:00:00	8	Radiación solar	448
54585	7	Sololá	717	San Juan la Laguna	12	San Juan la Laguna	5	Mayo	2023-05-18T00:00:00	2024-11-08T17:00:00	2	Temperatura media	21.8
54586	7	Sololá	717	San Juan la Laguna	12	San Juan la Laguna	5	Mayo	2023-05-18T00:00:00	2024-11-08T17:00:00	4	Temperatura máxima	24.3
54587	7	Sololá	717	San Juan la Laguna	12	San Juan la Laguna	5	Mayo	2023-05-18T00:00:00	2024-11-08T17:00:00	3	Temperatura mínima	21.8
54588	7	Sololá	717	San Juan la Laguna	12	San Juan la Laguna	5	Mayo	2023-05-18T00:00:00	2024-11-08T17:00:00	5	Humedad	80
54589	7	Sololá	717	San Juan la Laguna	12	San Juan la Laguna	5	Mayo	2023-05-18T00:00:00	2024-11-08T17:00:00	6	Velocidad del viento	4.8
54590	7	Sololá	717	San Juan la Laguna	12	San Juan la Laguna	5	Mayo	2023-05-18T00:00:00	2024-11-08T17:00:00	7	Dirección del viento	4.83
54591	7	Sololá	717	San Juan la Laguna	12	San Juan la Laguna	5	Mayo	2023-05-18T00:00:00	2024-11-08T17:00:00	1	Precipitación	0
54592	7	Sololá	717	San Juan la Laguna	12	San Juan la Laguna	5	Mayo	2023-05-18T00:00:00	2024-11-08T17:00:00	8	Radiación solar	213
54593	7	Sololá	717	San Juan la Laguna	12	San Juan la Laguna	5	Mayo	2023-05-18T00:00:00	2024-11-08T18:00:00	2	Temperatura media	21.6
54594	7	Sololá	717	San Juan la Laguna	12	San Juan la Laguna	5	Mayo	2023-05-18T00:00:00	2024-11-08T18:00:00	4	Temperatura máxima	22
54595	7	Sololá	717	San Juan la Laguna	12	San Juan la Laguna	5	Mayo	2023-05-18T00:00:00	2024-11-08T18:00:00	3	Temperatura mínima	21.6
54596	7	Sololá	717	San Juan la Laguna	12	San Juan la Laguna	5	Mayo	2023-05-18T00:00:00	2024-11-08T18:00:00	5	Humedad	81
54597	7	Sololá	717	San Juan la Laguna	12	San Juan la Laguna	5	Mayo	2023-05-18T00:00:00	2024-11-08T18:00:00	6	Velocidad del viento	1.6
54598	7	Sololá	717	San Juan la Laguna	12	San Juan la Laguna	5	Mayo	2023-05-18T00:00:00	2024-11-08T18:00:00	7	Dirección del viento	1.61
54599	7	Sololá	717	San Juan la Laguna	12	San Juan la Laguna	5	Mayo	2023-05-18T00:00:00	2024-11-08T18:00:00	1	Precipitación	0
54600	7	Sololá	717	San Juan la Laguna	12	San Juan la Laguna	5	Mayo	2023-05-18T00:00:00	2024-11-08T18:00:00	8	Radiación solar	11
54601	7	Sololá	717	San Juan la Laguna	12	San Juan la Laguna	5	Mayo	2023-05-18T00:00:00	2024-11-08T19:00:00	2	Temperatura media	21.1
54602	7	Sololá	717	San Juan la Laguna	12	San Juan la Laguna	5	Mayo	2023-05-18T00:00:00	2024-11-08T19:00:00	4	Temperatura máxima	21.7
54603	7	Sololá	717	San Juan la Laguna	12	San Juan la Laguna	5	Mayo	2023-05-18T00:00:00	2024-11-08T19:00:00	3	Temperatura mínima	21.1
54604	7	Sololá	717	San Juan la Laguna	12	San Juan la Laguna	5	Mayo	2023-05-18T00:00:00	2024-11-08T19:00:00	5	Humedad	87
54605	7	Sololá	717	San Juan la Laguna	12	San Juan la Laguna	5	Mayo	2023-05-18T00:00:00	2024-11-08T19:00:00	6	Velocidad del viento	1.6
54606	7	Sololá	717	San Juan la Laguna	12	San Juan la Laguna	5	Mayo	2023-05-18T00:00:00	2024-11-08T19:00:00	7	Dirección del viento	1.61
54607	7	Sololá	717	San Juan la Laguna	12	San Juan la Laguna	5	Mayo	2023-05-18T00:00:00	2024-11-08T19:00:00	1	Precipitación	0
54608	7	Sololá	717	San Juan la Laguna	12	San Juan la Laguna	5	Mayo	2023-05-18T00:00:00	2024-11-08T19:00:00	8	Radiación solar	0
54609	7	Sololá	717	San Juan la Laguna	12	San Juan la Laguna	5	Mayo	2023-05-18T00:00:00	2024-11-08T20:00:00	2	Temperatura media	20.2
54610	7	Sololá	717	San Juan la Laguna	12	San Juan la Laguna	5	Mayo	2023-05-18T00:00:00	2024-11-08T20:00:00	4	Temperatura máxima	21.1
54611	7	Sololá	717	San Juan la Laguna	12	San Juan la Laguna	5	Mayo	2023-05-18T00:00:00	2024-11-08T20:00:00	3	Temperatura mínima	20.2
54612	7	Sololá	717	San Juan la Laguna	12	San Juan la Laguna	5	Mayo	2023-05-18T00:00:00	2024-11-08T20:00:00	5	Humedad	88
54613	7	Sololá	717	San Juan la Laguna	12	San Juan la Laguna	5	Mayo	2023-05-18T00:00:00	2024-11-08T20:00:00	6	Velocidad del viento	0
54614	7	Sololá	717	San Juan la Laguna	12	San Juan la Laguna	5	Mayo	2023-05-18T00:00:00	2024-11-08T20:00:00	7	Dirección del viento	0
54615	7	Sololá	717	San Juan la Laguna	12	San Juan la Laguna	5	Mayo	2023-05-18T00:00:00	2024-11-08T20:00:00	1	Precipitación	0
54616	7	Sololá	717	San Juan la Laguna	12	San Juan la Laguna	5	Mayo	2023-05-18T00:00:00	2024-11-08T20:00:00	8	Radiación solar	0
54617	7	Sololá	717	San Juan la Laguna	12	San Juan la Laguna	5	Mayo	2023-05-18T00:00:00	2024-11-08T21:00:00	2	Temperatura media	19.6
54618	7	Sololá	717	San Juan la Laguna	12	San Juan la Laguna	5	Mayo	2023-05-18T00:00:00	2024-11-08T21:00:00	4	Temperatura máxima	20.2
54619	7	Sololá	717	San Juan la Laguna	12	San Juan la Laguna	5	Mayo	2023-05-18T00:00:00	2024-11-08T21:00:00	3	Temperatura mínima	19.4
54620	7	Sololá	717	San Juan la Laguna	12	San Juan la Laguna	5	Mayo	2023-05-18T00:00:00	2024-11-08T21:00:00	5	Humedad	82
54621	7	Sololá	717	San Juan la Laguna	12	San Juan la Laguna	5	Mayo	2023-05-18T00:00:00	2024-11-08T21:00:00	6	Velocidad del viento	3.2
54622	7	Sololá	717	San Juan la Laguna	12	San Juan la Laguna	5	Mayo	2023-05-18T00:00:00	2024-11-08T21:00:00	7	Dirección del viento	3.22
54623	7	Sololá	717	San Juan la Laguna	12	San Juan la Laguna	5	Mayo	2023-05-18T00:00:00	2024-11-08T21:00:00	1	Precipitación	0
54624	7	Sololá	717	San Juan la Laguna	12	San Juan la Laguna	5	Mayo	2023-05-18T00:00:00	2024-11-08T21:00:00	8	Radiación solar	0
54625	7	Sololá	717	San Juan la Laguna	12	San Juan la Laguna	5	Mayo	2023-05-18T00:00:00	2024-11-08T22:00:00	2	Temperatura media	18.7
54626	7	Sololá	717	San Juan la Laguna	12	San Juan la Laguna	5	Mayo	2023-05-18T00:00:00	2024-11-08T22:00:00	4	Temperatura máxima	19.6
54627	7	Sololá	717	San Juan la Laguna	12	San Juan la Laguna	5	Mayo	2023-05-18T00:00:00	2024-11-08T22:00:00	3	Temperatura mínima	18.7
54628	7	Sololá	717	San Juan la Laguna	12	San Juan la Laguna	5	Mayo	2023-05-18T00:00:00	2024-11-08T22:00:00	5	Humedad	85
54629	7	Sololá	717	San Juan la Laguna	12	San Juan la Laguna	5	Mayo	2023-05-18T00:00:00	2024-11-08T22:00:00	6	Velocidad del viento	3.2
54630	7	Sololá	717	San Juan la Laguna	12	San Juan la Laguna	5	Mayo	2023-05-18T00:00:00	2024-11-08T22:00:00	7	Dirección del viento	3.22
54631	7	Sololá	717	San Juan la Laguna	12	San Juan la Laguna	5	Mayo	2023-05-18T00:00:00	2024-11-08T22:00:00	1	Precipitación	0
54632	7	Sololá	717	San Juan la Laguna	12	San Juan la Laguna	5	Mayo	2023-05-18T00:00:00	2024-11-08T22:00:00	8	Radiación solar	0
54633	7	Sololá	717	San Juan la Laguna	12	San Juan la Laguna	5	Mayo	2023-05-18T00:00:00	2024-11-08T23:00:00	2	Temperatura media	18.1
54634	7	Sololá	717	San Juan la Laguna	12	San Juan la Laguna	5	Mayo	2023-05-18T00:00:00	2024-11-08T23:00:00	4	Temperatura máxima	18.7
54635	7	Sololá	717	San Juan la Laguna	12	San Juan la Laguna	5	Mayo	2023-05-18T00:00:00	2024-11-08T23:00:00	3	Temperatura mínima	17.9
54636	7	Sololá	717	San Juan la Laguna	12	San Juan la Laguna	5	Mayo	2023-05-18T00:00:00	2024-11-08T23:00:00	5	Humedad	86
54637	7	Sololá	717	San Juan la Laguna	12	San Juan la Laguna	5	Mayo	2023-05-18T00:00:00	2024-11-08T23:00:00	6	Velocidad del viento	0
54638	7	Sololá	717	San Juan la Laguna	12	San Juan la Laguna	5	Mayo	2023-05-18T00:00:00	2024-11-08T23:00:00	7	Dirección del viento	0
54639	7	Sololá	717	San Juan la Laguna	12	San Juan la Laguna	5	Mayo	2023-05-18T00:00:00	2024-11-08T23:00:00	1	Precipitación	0
54640	7	Sololá	717	San Juan la Laguna	12	San Juan la Laguna	5	Mayo	2023-05-18T00:00:00	2024-11-08T23:00:00	8	Radiación solar	0
54641	7	Sololá	717	San Juan la Laguna	12	San Juan la Laguna	5	Mayo	2023-05-19T00:00:00	2024-11-08T00:00:00	2	Temperatura media	17.3
54642	7	Sololá	717	San Juan la Laguna	12	San Juan la Laguna	5	Mayo	2023-05-19T00:00:00	2024-11-08T00:00:00	4	Temperatura máxima	18.1
54643	7	Sololá	717	San Juan la Laguna	12	San Juan la Laguna	5	Mayo	2023-05-19T00:00:00	2024-11-08T00:00:00	3	Temperatura mínima	17.3
54644	7	Sololá	717	San Juan la Laguna	12	San Juan la Laguna	5	Mayo	2023-05-19T00:00:00	2024-11-08T00:00:00	5	Humedad	89
54645	7	Sololá	717	San Juan la Laguna	12	San Juan la Laguna	5	Mayo	2023-05-19T00:00:00	2024-11-08T00:00:00	6	Velocidad del viento	0
54646	7	Sololá	717	San Juan la Laguna	12	San Juan la Laguna	5	Mayo	2023-05-19T00:00:00	2024-11-08T00:00:00	7	Dirección del viento	0
54647	7	Sololá	717	San Juan la Laguna	12	San Juan la Laguna	5	Mayo	2023-05-19T00:00:00	2024-11-08T00:00:00	1	Precipitación	0
54648	7	Sololá	717	San Juan la Laguna	12	San Juan la Laguna	5	Mayo	2023-05-19T00:00:00	2024-11-08T00:00:00	8	Radiación solar	0
54649	7	Sololá	717	San Juan la Laguna	12	San Juan la Laguna	5	Mayo	2023-05-19T00:00:00	2024-11-08T01:00:00	2	Temperatura media	17.8
54650	7	Sololá	717	San Juan la Laguna	12	San Juan la Laguna	5	Mayo	2023-05-19T00:00:00	2024-11-08T01:00:00	4	Temperatura máxima	17.8
54651	7	Sololá	717	San Juan la Laguna	12	San Juan la Laguna	5	Mayo	2023-05-19T00:00:00	2024-11-08T01:00:00	3	Temperatura mínima	17.2
54652	7	Sololá	717	San Juan la Laguna	12	San Juan la Laguna	5	Mayo	2023-05-19T00:00:00	2024-11-08T01:00:00	5	Humedad	84
54653	7	Sololá	717	San Juan la Laguna	12	San Juan la Laguna	5	Mayo	2023-05-19T00:00:00	2024-11-08T01:00:00	6	Velocidad del viento	1.6
54654	7	Sololá	717	San Juan la Laguna	12	San Juan la Laguna	5	Mayo	2023-05-19T00:00:00	2024-11-08T01:00:00	7	Dirección del viento	1.61
54655	7	Sololá	717	San Juan la Laguna	12	San Juan la Laguna	5	Mayo	2023-05-19T00:00:00	2024-11-08T01:00:00	1	Precipitación	0
54656	7	Sololá	717	San Juan la Laguna	12	San Juan la Laguna	5	Mayo	2023-05-19T00:00:00	2024-11-08T01:00:00	8	Radiación solar	0
54657	7	Sololá	717	San Juan la Laguna	12	San Juan la Laguna	5	Mayo	2023-05-19T00:00:00	2024-11-08T02:00:00	2	Temperatura media	17.8
54658	7	Sololá	717	San Juan la Laguna	12	San Juan la Laguna	5	Mayo	2023-05-19T00:00:00	2024-11-08T02:00:00	4	Temperatura máxima	18.2
54659	7	Sololá	717	San Juan la Laguna	12	San Juan la Laguna	5	Mayo	2023-05-19T00:00:00	2024-11-08T02:00:00	3	Temperatura mínima	17.5
54660	7	Sololá	717	San Juan la Laguna	12	San Juan la Laguna	5	Mayo	2023-05-19T00:00:00	2024-11-08T02:00:00	5	Humedad	86
54661	7	Sololá	717	San Juan la Laguna	12	San Juan la Laguna	5	Mayo	2023-05-19T00:00:00	2024-11-08T02:00:00	6	Velocidad del viento	3.2
54662	7	Sololá	717	San Juan la Laguna	12	San Juan la Laguna	5	Mayo	2023-05-19T00:00:00	2024-11-08T02:00:00	7	Dirección del viento	3.22
54663	7	Sololá	717	San Juan la Laguna	12	San Juan la Laguna	5	Mayo	2023-05-19T00:00:00	2024-11-08T02:00:00	1	Precipitación	0
54664	7	Sololá	717	San Juan la Laguna	12	San Juan la Laguna	5	Mayo	2023-05-19T00:00:00	2024-11-08T02:00:00	8	Radiación solar	0
54665	7	Sololá	717	San Juan la Laguna	12	San Juan la Laguna	5	Mayo	2023-05-19T00:00:00	2024-11-08T03:00:00	2	Temperatura media	18.1
54666	7	Sololá	717	San Juan la Laguna	12	San Juan la Laguna	5	Mayo	2023-05-19T00:00:00	2024-11-08T03:00:00	4	Temperatura máxima	18.1
54667	7	Sololá	717	San Juan la Laguna	12	San Juan la Laguna	5	Mayo	2023-05-19T00:00:00	2024-11-08T03:00:00	3	Temperatura mínima	17.7
54668	7	Sololá	717	San Juan la Laguna	12	San Juan la Laguna	5	Mayo	2023-05-19T00:00:00	2024-11-08T03:00:00	5	Humedad	82
54669	7	Sololá	717	San Juan la Laguna	12	San Juan la Laguna	5	Mayo	2023-05-19T00:00:00	2024-11-08T03:00:00	6	Velocidad del viento	4.8
54670	7	Sololá	717	San Juan la Laguna	12	San Juan la Laguna	5	Mayo	2023-05-19T00:00:00	2024-11-08T03:00:00	7	Dirección del viento	4.83
54671	7	Sololá	717	San Juan la Laguna	12	San Juan la Laguna	5	Mayo	2023-05-19T00:00:00	2024-11-08T03:00:00	1	Precipitación	0
54672	7	Sololá	717	San Juan la Laguna	12	San Juan la Laguna	5	Mayo	2023-05-19T00:00:00	2024-11-08T03:00:00	8	Radiación solar	0
54673	7	Sololá	717	San Juan la Laguna	12	San Juan la Laguna	5	Mayo	2023-05-19T00:00:00	2024-11-08T04:00:00	2	Temperatura media	16.8
54674	7	Sololá	717	San Juan la Laguna	12	San Juan la Laguna	5	Mayo	2023-05-19T00:00:00	2024-11-08T04:00:00	4	Temperatura máxima	18.1
54675	7	Sololá	717	San Juan la Laguna	12	San Juan la Laguna	5	Mayo	2023-05-19T00:00:00	2024-11-08T04:00:00	3	Temperatura mínima	16.8
54676	7	Sololá	717	San Juan la Laguna	12	San Juan la Laguna	5	Mayo	2023-05-19T00:00:00	2024-11-08T04:00:00	5	Humedad	87
54677	7	Sololá	717	San Juan la Laguna	12	San Juan la Laguna	5	Mayo	2023-05-19T00:00:00	2024-11-08T04:00:00	6	Velocidad del viento	1.6
54678	7	Sololá	717	San Juan la Laguna	12	San Juan la Laguna	5	Mayo	2023-05-19T00:00:00	2024-11-08T04:00:00	7	Dirección del viento	1.61
54679	7	Sololá	717	San Juan la Laguna	12	San Juan la Laguna	5	Mayo	2023-05-19T00:00:00	2024-11-08T04:00:00	1	Precipitación	0
54680	7	Sololá	717	San Juan la Laguna	12	San Juan la Laguna	5	Mayo	2023-05-19T00:00:00	2024-11-08T04:00:00	8	Radiación solar	0
54681	7	Sololá	717	San Juan la Laguna	12	San Juan la Laguna	5	Mayo	2023-05-19T00:00:00	2024-11-08T05:00:00	2	Temperatura media	16.7
54682	7	Sololá	717	San Juan la Laguna	12	San Juan la Laguna	5	Mayo	2023-05-19T00:00:00	2024-11-08T05:00:00	4	Temperatura máxima	16.9
54683	7	Sololá	717	San Juan la Laguna	12	San Juan la Laguna	5	Mayo	2023-05-19T00:00:00	2024-11-08T05:00:00	3	Temperatura mínima	16.6
54684	7	Sololá	717	San Juan la Laguna	12	San Juan la Laguna	5	Mayo	2023-05-19T00:00:00	2024-11-08T05:00:00	5	Humedad	86
54685	7	Sololá	717	San Juan la Laguna	12	San Juan la Laguna	5	Mayo	2023-05-19T00:00:00	2024-11-08T05:00:00	6	Velocidad del viento	1.6
54686	7	Sololá	717	San Juan la Laguna	12	San Juan la Laguna	5	Mayo	2023-05-19T00:00:00	2024-11-08T05:00:00	7	Dirección del viento	1.61
54687	7	Sololá	717	San Juan la Laguna	12	San Juan la Laguna	5	Mayo	2023-05-19T00:00:00	2024-11-08T05:00:00	1	Precipitación	0
54688	7	Sololá	717	San Juan la Laguna	12	San Juan la Laguna	5	Mayo	2023-05-19T00:00:00	2024-11-08T05:00:00	8	Radiación solar	0
54689	7	Sololá	717	San Juan la Laguna	12	San Juan la Laguna	5	Mayo	2023-05-19T00:00:00	2024-11-08T06:00:00	2	Temperatura media	15.8
54690	7	Sololá	717	San Juan la Laguna	12	San Juan la Laguna	5	Mayo	2023-05-19T00:00:00	2024-11-08T06:00:00	4	Temperatura máxima	16.6
54691	7	Sololá	717	San Juan la Laguna	12	San Juan la Laguna	5	Mayo	2023-05-19T00:00:00	2024-11-08T06:00:00	3	Temperatura mínima	15.8
54692	7	Sololá	717	San Juan la Laguna	12	San Juan la Laguna	5	Mayo	2023-05-19T00:00:00	2024-11-08T06:00:00	5	Humedad	89
54693	7	Sololá	717	San Juan la Laguna	12	San Juan la Laguna	5	Mayo	2023-05-19T00:00:00	2024-11-08T06:00:00	6	Velocidad del viento	1.6
54694	7	Sololá	717	San Juan la Laguna	12	San Juan la Laguna	5	Mayo	2023-05-19T00:00:00	2024-11-08T06:00:00	7	Dirección del viento	1.61
54695	7	Sololá	717	San Juan la Laguna	12	San Juan la Laguna	5	Mayo	2023-05-19T00:00:00	2024-11-08T06:00:00	1	Precipitación	0
54696	7	Sololá	717	San Juan la Laguna	12	San Juan la Laguna	5	Mayo	2023-05-19T00:00:00	2024-11-08T06:00:00	8	Radiación solar	3
54697	7	Sololá	717	San Juan la Laguna	12	San Juan la Laguna	5	Mayo	2023-05-19T00:00:00	2024-11-08T07:00:00	2	Temperatura media	19.2
54698	7	Sololá	717	San Juan la Laguna	12	San Juan la Laguna	5	Mayo	2023-05-19T00:00:00	2024-11-08T07:00:00	4	Temperatura máxima	19.2
54699	7	Sololá	717	San Juan la Laguna	12	San Juan la Laguna	5	Mayo	2023-05-19T00:00:00	2024-11-08T07:00:00	3	Temperatura mínima	15.8
54700	7	Sololá	717	San Juan la Laguna	12	San Juan la Laguna	5	Mayo	2023-05-19T00:00:00	2024-11-08T07:00:00	5	Humedad	80
54701	7	Sololá	717	San Juan la Laguna	12	San Juan la Laguna	5	Mayo	2023-05-19T00:00:00	2024-11-08T07:00:00	6	Velocidad del viento	0
54702	7	Sololá	717	San Juan la Laguna	12	San Juan la Laguna	5	Mayo	2023-05-19T00:00:00	2024-11-08T07:00:00	7	Dirección del viento	0
54703	7	Sololá	717	San Juan la Laguna	12	San Juan la Laguna	5	Mayo	2023-05-19T00:00:00	2024-11-08T07:00:00	1	Precipitación	0
54704	7	Sololá	717	San Juan la Laguna	12	San Juan la Laguna	5	Mayo	2023-05-19T00:00:00	2024-11-08T07:00:00	8	Radiación solar	102
54705	7	Sololá	717	San Juan la Laguna	12	San Juan la Laguna	5	Mayo	2023-05-19T00:00:00	2024-11-08T08:00:00	2	Temperatura media	22.8
54706	7	Sololá	717	San Juan la Laguna	12	San Juan la Laguna	5	Mayo	2023-05-19T00:00:00	2024-11-08T08:00:00	4	Temperatura máxima	22.8
54707	7	Sololá	717	San Juan la Laguna	12	San Juan la Laguna	5	Mayo	2023-05-19T00:00:00	2024-11-08T08:00:00	3	Temperatura mínima	19.2
54708	7	Sololá	717	San Juan la Laguna	12	San Juan la Laguna	5	Mayo	2023-05-19T00:00:00	2024-11-08T08:00:00	5	Humedad	67
54709	7	Sololá	717	San Juan la Laguna	12	San Juan la Laguna	5	Mayo	2023-05-19T00:00:00	2024-11-08T08:00:00	6	Velocidad del viento	1.6
54710	7	Sololá	717	San Juan la Laguna	12	San Juan la Laguna	5	Mayo	2023-05-19T00:00:00	2024-11-08T08:00:00	7	Dirección del viento	1.61
54711	7	Sololá	717	San Juan la Laguna	12	San Juan la Laguna	5	Mayo	2023-05-19T00:00:00	2024-11-08T08:00:00	1	Precipitación	0
54712	7	Sololá	717	San Juan la Laguna	12	San Juan la Laguna	5	Mayo	2023-05-19T00:00:00	2024-11-08T08:00:00	8	Radiación solar	318
54713	7	Sololá	717	San Juan la Laguna	12	San Juan la Laguna	5	Mayo	2023-05-19T00:00:00	2024-11-08T09:00:00	2	Temperatura media	24.1
54714	7	Sololá	717	San Juan la Laguna	12	San Juan la Laguna	5	Mayo	2023-05-19T00:00:00	2024-11-08T09:00:00	4	Temperatura máxima	24.1
54715	7	Sololá	717	San Juan la Laguna	12	San Juan la Laguna	5	Mayo	2023-05-19T00:00:00	2024-11-08T09:00:00	3	Temperatura mínima	22.8
54716	7	Sololá	717	San Juan la Laguna	12	San Juan la Laguna	5	Mayo	2023-05-19T00:00:00	2024-11-08T09:00:00	5	Humedad	57
54717	7	Sololá	717	San Juan la Laguna	12	San Juan la Laguna	5	Mayo	2023-05-19T00:00:00	2024-11-08T09:00:00	6	Velocidad del viento	1.6
54718	7	Sololá	717	San Juan la Laguna	12	San Juan la Laguna	5	Mayo	2023-05-19T00:00:00	2024-11-08T09:00:00	7	Dirección del viento	1.61
54719	7	Sololá	717	San Juan la Laguna	12	San Juan la Laguna	5	Mayo	2023-05-19T00:00:00	2024-11-08T09:00:00	1	Precipitación	0
54720	7	Sololá	717	San Juan la Laguna	12	San Juan la Laguna	5	Mayo	2023-05-19T00:00:00	2024-11-08T09:00:00	8	Radiación solar	535
54721	7	Sololá	717	San Juan la Laguna	12	San Juan la Laguna	5	Mayo	2023-05-19T00:00:00	2024-11-08T10:00:00	2	Temperatura media	26.3
54722	7	Sololá	717	San Juan la Laguna	12	San Juan la Laguna	5	Mayo	2023-05-19T00:00:00	2024-11-08T10:00:00	4	Temperatura máxima	26.5
54723	7	Sololá	717	San Juan la Laguna	12	San Juan la Laguna	5	Mayo	2023-05-19T00:00:00	2024-11-08T10:00:00	3	Temperatura mínima	24.1
54724	7	Sololá	717	San Juan la Laguna	12	San Juan la Laguna	5	Mayo	2023-05-19T00:00:00	2024-11-08T10:00:00	5	Humedad	48
54725	7	Sololá	717	San Juan la Laguna	12	San Juan la Laguna	5	Mayo	2023-05-19T00:00:00	2024-11-08T10:00:00	6	Velocidad del viento	1.6
54726	7	Sololá	717	San Juan la Laguna	12	San Juan la Laguna	5	Mayo	2023-05-19T00:00:00	2024-11-08T10:00:00	7	Dirección del viento	1.61
54727	7	Sololá	717	San Juan la Laguna	12	San Juan la Laguna	5	Mayo	2023-05-19T00:00:00	2024-11-08T10:00:00	1	Precipitación	0
54728	7	Sololá	717	San Juan la Laguna	12	San Juan la Laguna	5	Mayo	2023-05-19T00:00:00	2024-11-08T10:00:00	8	Radiación solar	720
54729	7	Sololá	717	San Juan la Laguna	12	San Juan la Laguna	5	Mayo	2023-05-19T00:00:00	2024-11-08T11:00:00	2	Temperatura media	27.3
54730	7	Sololá	717	San Juan la Laguna	12	San Juan la Laguna	5	Mayo	2023-05-19T00:00:00	2024-11-08T11:00:00	4	Temperatura máxima	27.3
54731	7	Sololá	717	San Juan la Laguna	12	San Juan la Laguna	5	Mayo	2023-05-19T00:00:00	2024-11-08T11:00:00	3	Temperatura mínima	26.3
54732	7	Sololá	717	San Juan la Laguna	12	San Juan la Laguna	5	Mayo	2023-05-19T00:00:00	2024-11-08T11:00:00	5	Humedad	42
54733	7	Sololá	717	San Juan la Laguna	12	San Juan la Laguna	5	Mayo	2023-05-19T00:00:00	2024-11-08T11:00:00	6	Velocidad del viento	3.2
54734	7	Sololá	717	San Juan la Laguna	12	San Juan la Laguna	5	Mayo	2023-05-19T00:00:00	2024-11-08T11:00:00	7	Dirección del viento	3.22
54735	7	Sololá	717	San Juan la Laguna	12	San Juan la Laguna	5	Mayo	2023-05-19T00:00:00	2024-11-08T11:00:00	1	Precipitación	0
54736	7	Sololá	717	San Juan la Laguna	12	San Juan la Laguna	5	Mayo	2023-05-19T00:00:00	2024-11-08T11:00:00	8	Radiación solar	835
54737	7	Sololá	717	San Juan la Laguna	12	San Juan la Laguna	5	Mayo	2023-05-19T00:00:00	2024-11-08T12:00:00	2	Temperatura media	27.2
54738	7	Sololá	717	San Juan la Laguna	12	San Juan la Laguna	5	Mayo	2023-05-19T00:00:00	2024-11-08T12:00:00	4	Temperatura máxima	27.7
54739	7	Sololá	717	San Juan la Laguna	12	San Juan la Laguna	5	Mayo	2023-05-19T00:00:00	2024-11-08T12:00:00	3	Temperatura mínima	27.1
54740	7	Sololá	717	San Juan la Laguna	12	San Juan la Laguna	5	Mayo	2023-05-19T00:00:00	2024-11-08T12:00:00	5	Humedad	43
54741	7	Sololá	717	San Juan la Laguna	12	San Juan la Laguna	5	Mayo	2023-05-19T00:00:00	2024-11-08T12:00:00	6	Velocidad del viento	4.8
54742	7	Sololá	717	San Juan la Laguna	12	San Juan la Laguna	5	Mayo	2023-05-19T00:00:00	2024-11-08T12:00:00	7	Dirección del viento	4.83
54743	7	Sololá	717	San Juan la Laguna	12	San Juan la Laguna	5	Mayo	2023-05-19T00:00:00	2024-11-08T12:00:00	1	Precipitación	0
54744	7	Sololá	717	San Juan la Laguna	12	San Juan la Laguna	5	Mayo	2023-05-19T00:00:00	2024-11-08T12:00:00	8	Radiación solar	921
54745	7	Sololá	717	San Juan la Laguna	12	San Juan la Laguna	5	Mayo	2023-05-19T00:00:00	2024-11-08T13:00:00	2	Temperatura media	28.3
54746	7	Sololá	717	San Juan la Laguna	12	San Juan la Laguna	5	Mayo	2023-05-19T00:00:00	2024-11-08T13:00:00	4	Temperatura máxima	28.3
54747	7	Sololá	717	San Juan la Laguna	12	San Juan la Laguna	5	Mayo	2023-05-19T00:00:00	2024-11-08T13:00:00	3	Temperatura mínima	27.2
54748	7	Sololá	717	San Juan la Laguna	12	San Juan la Laguna	5	Mayo	2023-05-19T00:00:00	2024-11-08T13:00:00	5	Humedad	42
54749	7	Sololá	717	San Juan la Laguna	12	San Juan la Laguna	5	Mayo	2023-05-19T00:00:00	2024-11-08T13:00:00	6	Velocidad del viento	3.2
54750	7	Sololá	717	San Juan la Laguna	12	San Juan la Laguna	5	Mayo	2023-05-19T00:00:00	2024-11-08T13:00:00	7	Dirección del viento	3.22
54751	7	Sololá	717	San Juan la Laguna	12	San Juan la Laguna	5	Mayo	2023-05-19T00:00:00	2024-11-08T13:00:00	1	Precipitación	0
54752	7	Sololá	717	San Juan la Laguna	12	San Juan la Laguna	5	Mayo	2023-05-19T00:00:00	2024-11-08T13:00:00	8	Radiación solar	952
54753	7	Sololá	717	San Juan la Laguna	12	San Juan la Laguna	5	Mayo	2023-05-19T00:00:00	2024-11-08T14:00:00	2	Temperatura media	27.9
54754	7	Sololá	717	San Juan la Laguna	12	San Juan la Laguna	5	Mayo	2023-05-19T00:00:00	2024-11-08T14:00:00	4	Temperatura máxima	28.7
54755	7	Sololá	717	San Juan la Laguna	12	San Juan la Laguna	5	Mayo	2023-05-19T00:00:00	2024-11-08T14:00:00	3	Temperatura mínima	27.9
54756	7	Sololá	717	San Juan la Laguna	12	San Juan la Laguna	5	Mayo	2023-05-19T00:00:00	2024-11-08T14:00:00	5	Humedad	45
54757	7	Sololá	717	San Juan la Laguna	12	San Juan la Laguna	5	Mayo	2023-05-19T00:00:00	2024-11-08T14:00:00	6	Velocidad del viento	3.2
54758	7	Sololá	717	San Juan la Laguna	12	San Juan la Laguna	5	Mayo	2023-05-19T00:00:00	2024-11-08T14:00:00	7	Dirección del viento	3.22
54759	7	Sololá	717	San Juan la Laguna	12	San Juan la Laguna	5	Mayo	2023-05-19T00:00:00	2024-11-08T14:00:00	1	Precipitación	0
54760	7	Sololá	717	San Juan la Laguna	12	San Juan la Laguna	5	Mayo	2023-05-19T00:00:00	2024-11-08T14:00:00	8	Radiación solar	733
54761	7	Sololá	717	San Juan la Laguna	12	San Juan la Laguna	5	Mayo	2023-05-19T00:00:00	2024-11-08T15:00:00	2	Temperatura media	27.2
54762	7	Sololá	717	San Juan la Laguna	12	San Juan la Laguna	5	Mayo	2023-05-19T00:00:00	2024-11-08T15:00:00	4	Temperatura máxima	28.9
54763	7	Sololá	717	San Juan la Laguna	12	San Juan la Laguna	5	Mayo	2023-05-19T00:00:00	2024-11-08T15:00:00	3	Temperatura mínima	27.2
54764	7	Sololá	717	San Juan la Laguna	12	San Juan la Laguna	5	Mayo	2023-05-19T00:00:00	2024-11-08T15:00:00	5	Humedad	59
54765	7	Sololá	717	San Juan la Laguna	12	San Juan la Laguna	5	Mayo	2023-05-19T00:00:00	2024-11-08T15:00:00	6	Velocidad del viento	1.6
54766	7	Sololá	717	San Juan la Laguna	12	San Juan la Laguna	5	Mayo	2023-05-19T00:00:00	2024-11-08T15:00:00	7	Dirección del viento	1.61
54767	7	Sololá	717	San Juan la Laguna	12	San Juan la Laguna	5	Mayo	2023-05-19T00:00:00	2024-11-08T15:00:00	1	Precipitación	0
54768	7	Sololá	717	San Juan la Laguna	12	San Juan la Laguna	5	Mayo	2023-05-19T00:00:00	2024-11-08T15:00:00	8	Radiación solar	709
54769	7	Sololá	717	San Juan la Laguna	12	San Juan la Laguna	5	Mayo	2023-05-19T00:00:00	2024-11-08T16:00:00	2	Temperatura media	25.8
54770	7	Sololá	717	San Juan la Laguna	12	San Juan la Laguna	5	Mayo	2023-05-19T00:00:00	2024-11-08T16:00:00	4	Temperatura máxima	27.1
54771	7	Sololá	717	San Juan la Laguna	12	San Juan la Laguna	5	Mayo	2023-05-19T00:00:00	2024-11-08T16:00:00	3	Temperatura mínima	25.6
54772	7	Sololá	717	San Juan la Laguna	12	San Juan la Laguna	5	Mayo	2023-05-19T00:00:00	2024-11-08T16:00:00	5	Humedad	64
54773	7	Sololá	717	San Juan la Laguna	12	San Juan la Laguna	5	Mayo	2023-05-19T00:00:00	2024-11-08T16:00:00	6	Velocidad del viento	3.2
54774	7	Sololá	717	San Juan la Laguna	12	San Juan la Laguna	5	Mayo	2023-05-19T00:00:00	2024-11-08T16:00:00	7	Dirección del viento	3.22
54775	7	Sololá	717	San Juan la Laguna	12	San Juan la Laguna	5	Mayo	2023-05-19T00:00:00	2024-11-08T16:00:00	1	Precipitación	0
54776	7	Sololá	717	San Juan la Laguna	12	San Juan la Laguna	5	Mayo	2023-05-19T00:00:00	2024-11-08T16:00:00	8	Radiación solar	451
54777	7	Sololá	717	San Juan la Laguna	12	San Juan la Laguna	5	Mayo	2023-05-19T00:00:00	2024-11-08T17:00:00	2	Temperatura media	22.8
54778	7	Sololá	717	San Juan la Laguna	12	San Juan la Laguna	5	Mayo	2023-05-19T00:00:00	2024-11-08T17:00:00	4	Temperatura máxima	25.9
54779	7	Sololá	717	San Juan la Laguna	12	San Juan la Laguna	5	Mayo	2023-05-19T00:00:00	2024-11-08T17:00:00	3	Temperatura mínima	22.8
54780	7	Sololá	717	San Juan la Laguna	12	San Juan la Laguna	5	Mayo	2023-05-19T00:00:00	2024-11-08T17:00:00	5	Humedad	78
54781	7	Sololá	717	San Juan la Laguna	12	San Juan la Laguna	5	Mayo	2023-05-19T00:00:00	2024-11-08T17:00:00	6	Velocidad del viento	4.8
54782	7	Sololá	717	San Juan la Laguna	12	San Juan la Laguna	5	Mayo	2023-05-19T00:00:00	2024-11-08T17:00:00	7	Dirección del viento	4.83
54783	7	Sololá	717	San Juan la Laguna	12	San Juan la Laguna	5	Mayo	2023-05-19T00:00:00	2024-11-08T17:00:00	1	Precipitación	0
54784	7	Sololá	717	San Juan la Laguna	12	San Juan la Laguna	5	Mayo	2023-05-19T00:00:00	2024-11-08T17:00:00	8	Radiación solar	69
54785	7	Sololá	717	San Juan la Laguna	12	San Juan la Laguna	5	Mayo	2023-05-19T00:00:00	2024-11-08T18:00:00	2	Temperatura media	23.3
54786	7	Sololá	717	San Juan la Laguna	12	San Juan la Laguna	5	Mayo	2023-05-19T00:00:00	2024-11-08T18:00:00	4	Temperatura máxima	23.3
54787	7	Sololá	717	San Juan la Laguna	12	San Juan la Laguna	5	Mayo	2023-05-19T00:00:00	2024-11-08T18:00:00	3	Temperatura mínima	22.8
54788	7	Sololá	717	San Juan la Laguna	12	San Juan la Laguna	5	Mayo	2023-05-19T00:00:00	2024-11-08T18:00:00	5	Humedad	77
54789	7	Sololá	717	San Juan la Laguna	12	San Juan la Laguna	5	Mayo	2023-05-19T00:00:00	2024-11-08T18:00:00	6	Velocidad del viento	1.6
54790	7	Sololá	717	San Juan la Laguna	12	San Juan la Laguna	5	Mayo	2023-05-19T00:00:00	2024-11-08T18:00:00	7	Dirección del viento	1.61
54791	7	Sololá	717	San Juan la Laguna	12	San Juan la Laguna	5	Mayo	2023-05-19T00:00:00	2024-11-08T18:00:00	1	Precipitación	0
54792	7	Sololá	717	San Juan la Laguna	12	San Juan la Laguna	5	Mayo	2023-05-19T00:00:00	2024-11-08T18:00:00	8	Radiación solar	107
54793	7	Sololá	717	San Juan la Laguna	12	San Juan la Laguna	5	Mayo	2023-05-19T00:00:00	2024-11-08T19:00:00	2	Temperatura media	22.7
54794	7	Sololá	717	San Juan la Laguna	12	San Juan la Laguna	5	Mayo	2023-05-19T00:00:00	2024-11-08T19:00:00	4	Temperatura máxima	23.4
54795	7	Sololá	717	San Juan la Laguna	12	San Juan la Laguna	5	Mayo	2023-05-19T00:00:00	2024-11-08T19:00:00	3	Temperatura mínima	22.7
54796	7	Sololá	717	San Juan la Laguna	12	San Juan la Laguna	5	Mayo	2023-05-19T00:00:00	2024-11-08T19:00:00	5	Humedad	76
54797	7	Sololá	717	San Juan la Laguna	12	San Juan la Laguna	5	Mayo	2023-05-19T00:00:00	2024-11-08T19:00:00	6	Velocidad del viento	1.6
54798	7	Sololá	717	San Juan la Laguna	12	San Juan la Laguna	5	Mayo	2023-05-19T00:00:00	2024-11-08T19:00:00	7	Dirección del viento	1.61
54799	7	Sololá	717	San Juan la Laguna	12	San Juan la Laguna	5	Mayo	2023-05-19T00:00:00	2024-11-08T19:00:00	1	Precipitación	0
54800	7	Sololá	717	San Juan la Laguna	12	San Juan la Laguna	5	Mayo	2023-05-19T00:00:00	2024-11-08T19:00:00	8	Radiación solar	0
54801	7	Sololá	717	San Juan la Laguna	12	San Juan la Laguna	5	Mayo	2023-05-19T00:00:00	2024-11-08T20:00:00	2	Temperatura media	23.3
54802	7	Sololá	717	San Juan la Laguna	12	San Juan la Laguna	5	Mayo	2023-05-19T00:00:00	2024-11-08T20:00:00	4	Temperatura máxima	23.4
54803	7	Sololá	717	San Juan la Laguna	12	San Juan la Laguna	5	Mayo	2023-05-19T00:00:00	2024-11-08T20:00:00	3	Temperatura mínima	21.9
54804	7	Sololá	717	San Juan la Laguna	12	San Juan la Laguna	5	Mayo	2023-05-19T00:00:00	2024-11-08T20:00:00	5	Humedad	67
54805	7	Sololá	717	San Juan la Laguna	12	San Juan la Laguna	5	Mayo	2023-05-19T00:00:00	2024-11-08T20:00:00	6	Velocidad del viento	1.6
54806	7	Sololá	717	San Juan la Laguna	12	San Juan la Laguna	5	Mayo	2023-05-19T00:00:00	2024-11-08T20:00:00	7	Dirección del viento	1.61
54807	7	Sololá	717	San Juan la Laguna	12	San Juan la Laguna	5	Mayo	2023-05-19T00:00:00	2024-11-08T20:00:00	1	Precipitación	0
54808	7	Sololá	717	San Juan la Laguna	12	San Juan la Laguna	5	Mayo	2023-05-19T00:00:00	2024-11-08T20:00:00	8	Radiación solar	0
54809	7	Sololá	717	San Juan la Laguna	12	San Juan la Laguna	5	Mayo	2023-05-19T00:00:00	2024-11-08T21:00:00	2	Temperatura media	22.8
54810	7	Sololá	717	San Juan la Laguna	12	San Juan la Laguna	5	Mayo	2023-05-19T00:00:00	2024-11-08T21:00:00	4	Temperatura máxima	23.3
54811	7	Sololá	717	San Juan la Laguna	12	San Juan la Laguna	5	Mayo	2023-05-19T00:00:00	2024-11-08T21:00:00	3	Temperatura mínima	22.7
54812	7	Sololá	717	San Juan la Laguna	12	San Juan la Laguna	5	Mayo	2023-05-19T00:00:00	2024-11-08T21:00:00	5	Humedad	63
54813	7	Sololá	717	San Juan la Laguna	12	San Juan la Laguna	5	Mayo	2023-05-19T00:00:00	2024-11-08T21:00:00	6	Velocidad del viento	1.6
54814	7	Sololá	717	San Juan la Laguna	12	San Juan la Laguna	5	Mayo	2023-05-19T00:00:00	2024-11-08T21:00:00	7	Dirección del viento	1.61
54815	7	Sololá	717	San Juan la Laguna	12	San Juan la Laguna	5	Mayo	2023-05-19T00:00:00	2024-11-08T21:00:00	1	Precipitación	0
54816	7	Sololá	717	San Juan la Laguna	12	San Juan la Laguna	5	Mayo	2023-05-19T00:00:00	2024-11-08T21:00:00	8	Radiación solar	0
54817	7	Sololá	717	San Juan la Laguna	12	San Juan la Laguna	5	Mayo	2023-05-19T00:00:00	2024-11-08T22:00:00	2	Temperatura media	22.2
54818	7	Sololá	717	San Juan la Laguna	12	San Juan la Laguna	5	Mayo	2023-05-19T00:00:00	2024-11-08T22:00:00	4	Temperatura máxima	22.7
54819	7	Sololá	717	San Juan la Laguna	12	San Juan la Laguna	5	Mayo	2023-05-19T00:00:00	2024-11-08T22:00:00	3	Temperatura mínima	22.2
54820	7	Sololá	717	San Juan la Laguna	12	San Juan la Laguna	5	Mayo	2023-05-19T00:00:00	2024-11-08T22:00:00	5	Humedad	64
54821	7	Sololá	717	San Juan la Laguna	12	San Juan la Laguna	5	Mayo	2023-05-19T00:00:00	2024-11-08T22:00:00	6	Velocidad del viento	1.6
54822	7	Sololá	717	San Juan la Laguna	12	San Juan la Laguna	5	Mayo	2023-05-19T00:00:00	2024-11-08T22:00:00	7	Dirección del viento	1.61
54823	7	Sololá	717	San Juan la Laguna	12	San Juan la Laguna	5	Mayo	2023-05-19T00:00:00	2024-11-08T22:00:00	1	Precipitación	0
54824	7	Sololá	717	San Juan la Laguna	12	San Juan la Laguna	5	Mayo	2023-05-19T00:00:00	2024-11-08T22:00:00	8	Radiación solar	0
54825	7	Sololá	717	San Juan la Laguna	12	San Juan la Laguna	5	Mayo	2023-05-19T00:00:00	2024-11-08T23:00:00	2	Temperatura media	19.9
54826	7	Sololá	717	San Juan la Laguna	12	San Juan la Laguna	5	Mayo	2023-05-19T00:00:00	2024-11-08T23:00:00	4	Temperatura máxima	22.2
54827	7	Sololá	717	San Juan la Laguna	12	San Juan la Laguna	5	Mayo	2023-05-19T00:00:00	2024-11-08T23:00:00	3	Temperatura mínima	19.9
54828	7	Sololá	717	San Juan la Laguna	12	San Juan la Laguna	5	Mayo	2023-05-19T00:00:00	2024-11-08T23:00:00	5	Humedad	73
54829	7	Sololá	717	San Juan la Laguna	12	San Juan la Laguna	5	Mayo	2023-05-19T00:00:00	2024-11-08T23:00:00	6	Velocidad del viento	1.6
54830	7	Sololá	717	San Juan la Laguna	12	San Juan la Laguna	5	Mayo	2023-05-19T00:00:00	2024-11-08T23:00:00	7	Dirección del viento	1.61
54831	7	Sololá	717	San Juan la Laguna	12	San Juan la Laguna	5	Mayo	2023-05-19T00:00:00	2024-11-08T23:00:00	1	Precipitación	0
54832	7	Sololá	717	San Juan la Laguna	12	San Juan la Laguna	5	Mayo	2023-05-19T00:00:00	2024-11-08T23:00:00	8	Radiación solar	0
54833	7	Sololá	717	San Juan la Laguna	12	San Juan la Laguna	5	Mayo	2023-05-20T00:00:00	2024-11-08T00:00:00	2	Temperatura media	18.1
54834	7	Sololá	717	San Juan la Laguna	12	San Juan la Laguna	5	Mayo	2023-05-20T00:00:00	2024-11-08T00:00:00	4	Temperatura máxima	19.8
54835	7	Sololá	717	San Juan la Laguna	12	San Juan la Laguna	5	Mayo	2023-05-20T00:00:00	2024-11-08T00:00:00	3	Temperatura mínima	17.9
54836	7	Sololá	717	San Juan la Laguna	12	San Juan la Laguna	5	Mayo	2023-05-20T00:00:00	2024-11-08T00:00:00	5	Humedad	78
54837	7	Sololá	717	San Juan la Laguna	12	San Juan la Laguna	5	Mayo	2023-05-20T00:00:00	2024-11-08T00:00:00	6	Velocidad del viento	1.6
54838	7	Sololá	717	San Juan la Laguna	12	San Juan la Laguna	5	Mayo	2023-05-20T00:00:00	2024-11-08T00:00:00	7	Dirección del viento	1.61
54839	7	Sololá	717	San Juan la Laguna	12	San Juan la Laguna	5	Mayo	2023-05-20T00:00:00	2024-11-08T00:00:00	1	Precipitación	0
54840	7	Sololá	717	San Juan la Laguna	12	San Juan la Laguna	5	Mayo	2023-05-20T00:00:00	2024-11-08T00:00:00	8	Radiación solar	0
54841	7	Sololá	717	San Juan la Laguna	12	San Juan la Laguna	5	Mayo	2023-05-20T00:00:00	2024-11-08T01:00:00	2	Temperatura media	17.7
54842	7	Sololá	717	San Juan la Laguna	12	San Juan la Laguna	5	Mayo	2023-05-20T00:00:00	2024-11-08T01:00:00	4	Temperatura máxima	18.2
54843	7	Sololá	717	San Juan la Laguna	12	San Juan la Laguna	5	Mayo	2023-05-20T00:00:00	2024-11-08T01:00:00	3	Temperatura mínima	17.7
54844	7	Sololá	717	San Juan la Laguna	12	San Juan la Laguna	5	Mayo	2023-05-20T00:00:00	2024-11-08T01:00:00	5	Humedad	79
54845	7	Sololá	717	San Juan la Laguna	12	San Juan la Laguna	5	Mayo	2023-05-20T00:00:00	2024-11-08T01:00:00	6	Velocidad del viento	1.6
54846	7	Sololá	717	San Juan la Laguna	12	San Juan la Laguna	5	Mayo	2023-05-20T00:00:00	2024-11-08T01:00:00	7	Dirección del viento	1.61
54847	7	Sololá	717	San Juan la Laguna	12	San Juan la Laguna	5	Mayo	2023-05-20T00:00:00	2024-11-08T01:00:00	1	Precipitación	0
54848	7	Sololá	717	San Juan la Laguna	12	San Juan la Laguna	5	Mayo	2023-05-20T00:00:00	2024-11-08T01:00:00	8	Radiación solar	0
54849	7	Sololá	717	San Juan la Laguna	12	San Juan la Laguna	5	Mayo	2023-05-20T00:00:00	2024-11-08T02:00:00	2	Temperatura media	16.8
54850	7	Sololá	717	San Juan la Laguna	12	San Juan la Laguna	5	Mayo	2023-05-20T00:00:00	2024-11-08T02:00:00	4	Temperatura máxima	17.7
54851	7	Sololá	717	San Juan la Laguna	12	San Juan la Laguna	5	Mayo	2023-05-20T00:00:00	2024-11-08T02:00:00	3	Temperatura mínima	16.8
54852	7	Sololá	717	San Juan la Laguna	12	San Juan la Laguna	5	Mayo	2023-05-20T00:00:00	2024-11-08T02:00:00	5	Humedad	81
54853	7	Sololá	717	San Juan la Laguna	12	San Juan la Laguna	5	Mayo	2023-05-20T00:00:00	2024-11-08T02:00:00	6	Velocidad del viento	0
54854	7	Sololá	717	San Juan la Laguna	12	San Juan la Laguna	5	Mayo	2023-05-20T00:00:00	2024-11-08T02:00:00	7	Dirección del viento	0
54855	7	Sololá	717	San Juan la Laguna	12	San Juan la Laguna	5	Mayo	2023-05-20T00:00:00	2024-11-08T02:00:00	1	Precipitación	0
54856	7	Sololá	717	San Juan la Laguna	12	San Juan la Laguna	5	Mayo	2023-05-20T00:00:00	2024-11-08T02:00:00	8	Radiación solar	0
54857	7	Sololá	717	San Juan la Laguna	12	San Juan la Laguna	5	Mayo	2023-05-20T00:00:00	2024-11-08T03:00:00	2	Temperatura media	16.6
54858	7	Sololá	717	San Juan la Laguna	12	San Juan la Laguna	5	Mayo	2023-05-20T00:00:00	2024-11-08T03:00:00	4	Temperatura máxima	17.2
54859	7	Sololá	717	San Juan la Laguna	12	San Juan la Laguna	5	Mayo	2023-05-20T00:00:00	2024-11-08T03:00:00	3	Temperatura mínima	16.6
54860	7	Sololá	717	San Juan la Laguna	12	San Juan la Laguna	5	Mayo	2023-05-20T00:00:00	2024-11-08T03:00:00	5	Humedad	81
54861	7	Sololá	717	San Juan la Laguna	12	San Juan la Laguna	5	Mayo	2023-05-20T00:00:00	2024-11-08T03:00:00	6	Velocidad del viento	0
54862	7	Sololá	717	San Juan la Laguna	12	San Juan la Laguna	5	Mayo	2023-05-20T00:00:00	2024-11-08T03:00:00	7	Dirección del viento	0
54863	7	Sololá	717	San Juan la Laguna	12	San Juan la Laguna	5	Mayo	2023-05-20T00:00:00	2024-11-08T03:00:00	1	Precipitación	0
54864	7	Sololá	717	San Juan la Laguna	12	San Juan la Laguna	5	Mayo	2023-05-20T00:00:00	2024-11-08T03:00:00	8	Radiación solar	0
54865	7	Sololá	717	San Juan la Laguna	12	San Juan la Laguna	5	Mayo	2023-05-20T00:00:00	2024-11-08T04:00:00	2	Temperatura media	16.4
54866	7	Sololá	717	San Juan la Laguna	12	San Juan la Laguna	5	Mayo	2023-05-20T00:00:00	2024-11-08T04:00:00	4	Temperatura máxima	16.8
54867	7	Sololá	717	San Juan la Laguna	12	San Juan la Laguna	5	Mayo	2023-05-20T00:00:00	2024-11-08T04:00:00	3	Temperatura mínima	16.3
54868	7	Sololá	717	San Juan la Laguna	12	San Juan la Laguna	5	Mayo	2023-05-20T00:00:00	2024-11-08T04:00:00	5	Humedad	79
54869	7	Sololá	717	San Juan la Laguna	12	San Juan la Laguna	5	Mayo	2023-05-20T00:00:00	2024-11-08T04:00:00	6	Velocidad del viento	1.6
54870	7	Sololá	717	San Juan la Laguna	12	San Juan la Laguna	5	Mayo	2023-05-20T00:00:00	2024-11-08T04:00:00	7	Dirección del viento	1.61
54871	7	Sololá	717	San Juan la Laguna	12	San Juan la Laguna	5	Mayo	2023-05-20T00:00:00	2024-11-08T04:00:00	1	Precipitación	0
54872	7	Sololá	717	San Juan la Laguna	12	San Juan la Laguna	5	Mayo	2023-05-20T00:00:00	2024-11-08T04:00:00	8	Radiación solar	0
54873	7	Sololá	717	San Juan la Laguna	12	San Juan la Laguna	5	Mayo	2023-05-20T00:00:00	2024-11-08T05:00:00	2	Temperatura media	15.8
54874	7	Sololá	717	San Juan la Laguna	12	San Juan la Laguna	5	Mayo	2023-05-20T00:00:00	2024-11-08T05:00:00	4	Temperatura máxima	16.4
54875	7	Sololá	717	San Juan la Laguna	12	San Juan la Laguna	5	Mayo	2023-05-20T00:00:00	2024-11-08T05:00:00	3	Temperatura mínima	15.8
54876	7	Sololá	717	San Juan la Laguna	12	San Juan la Laguna	5	Mayo	2023-05-20T00:00:00	2024-11-08T05:00:00	5	Humedad	77
54877	7	Sololá	717	San Juan la Laguna	12	San Juan la Laguna	5	Mayo	2023-05-20T00:00:00	2024-11-08T05:00:00	6	Velocidad del viento	1.6
54878	7	Sololá	717	San Juan la Laguna	12	San Juan la Laguna	5	Mayo	2023-05-20T00:00:00	2024-11-08T05:00:00	7	Dirección del viento	1.61
54879	7	Sololá	717	San Juan la Laguna	12	San Juan la Laguna	5	Mayo	2023-05-20T00:00:00	2024-11-08T05:00:00	1	Precipitación	0
54880	7	Sololá	717	San Juan la Laguna	12	San Juan la Laguna	5	Mayo	2023-05-20T00:00:00	2024-11-08T05:00:00	8	Radiación solar	0
54881	7	Sololá	717	San Juan la Laguna	12	San Juan la Laguna	5	Mayo	2023-05-20T00:00:00	2024-11-08T06:00:00	2	Temperatura media	15.4
54882	7	Sololá	717	San Juan la Laguna	12	San Juan la Laguna	5	Mayo	2023-05-20T00:00:00	2024-11-08T06:00:00	4	Temperatura máxima	16.1
54883	7	Sololá	717	San Juan la Laguna	12	San Juan la Laguna	5	Mayo	2023-05-20T00:00:00	2024-11-08T06:00:00	3	Temperatura mínima	15.4
54884	7	Sololá	717	San Juan la Laguna	12	San Juan la Laguna	5	Mayo	2023-05-20T00:00:00	2024-11-08T06:00:00	5	Humedad	74
54885	7	Sololá	717	San Juan la Laguna	12	San Juan la Laguna	5	Mayo	2023-05-20T00:00:00	2024-11-08T06:00:00	6	Velocidad del viento	1.6
54886	7	Sololá	717	San Juan la Laguna	12	San Juan la Laguna	5	Mayo	2023-05-20T00:00:00	2024-11-08T06:00:00	7	Dirección del viento	1.61
54887	7	Sololá	717	San Juan la Laguna	12	San Juan la Laguna	5	Mayo	2023-05-20T00:00:00	2024-11-08T06:00:00	1	Precipitación	0
54888	7	Sololá	717	San Juan la Laguna	12	San Juan la Laguna	5	Mayo	2023-05-20T00:00:00	2024-11-08T06:00:00	8	Radiación solar	5
54889	7	Sololá	717	San Juan la Laguna	12	San Juan la Laguna	5	Mayo	2023-05-20T00:00:00	2024-11-08T07:00:00	2	Temperatura media	18.6
54890	7	Sololá	717	San Juan la Laguna	12	San Juan la Laguna	5	Mayo	2023-05-20T00:00:00	2024-11-08T07:00:00	4	Temperatura máxima	18.6
54891	7	Sololá	717	San Juan la Laguna	12	San Juan la Laguna	5	Mayo	2023-05-20T00:00:00	2024-11-08T07:00:00	3	Temperatura mínima	15.4
54892	7	Sololá	717	San Juan la Laguna	12	San Juan la Laguna	5	Mayo	2023-05-20T00:00:00	2024-11-08T07:00:00	5	Humedad	67
54893	7	Sololá	717	San Juan la Laguna	12	San Juan la Laguna	5	Mayo	2023-05-20T00:00:00	2024-11-08T07:00:00	6	Velocidad del viento	1.6
54894	7	Sololá	717	San Juan la Laguna	12	San Juan la Laguna	5	Mayo	2023-05-20T00:00:00	2024-11-08T07:00:00	7	Dirección del viento	1.61
54895	7	Sololá	717	San Juan la Laguna	12	San Juan la Laguna	5	Mayo	2023-05-20T00:00:00	2024-11-08T07:00:00	1	Precipitación	0
54896	7	Sololá	717	San Juan la Laguna	12	San Juan la Laguna	5	Mayo	2023-05-20T00:00:00	2024-11-08T07:00:00	8	Radiación solar	96
54897	7	Sololá	717	San Juan la Laguna	12	San Juan la Laguna	5	Mayo	2023-05-20T00:00:00	2024-11-08T08:00:00	2	Temperatura media	22.5
54898	7	Sololá	717	San Juan la Laguna	12	San Juan la Laguna	5	Mayo	2023-05-20T00:00:00	2024-11-08T08:00:00	4	Temperatura máxima	22.5
54899	7	Sololá	717	San Juan la Laguna	12	San Juan la Laguna	5	Mayo	2023-05-20T00:00:00	2024-11-08T08:00:00	3	Temperatura mínima	18.6
54900	7	Sololá	717	San Juan la Laguna	12	San Juan la Laguna	5	Mayo	2023-05-20T00:00:00	2024-11-08T08:00:00	5	Humedad	58
54901	7	Sololá	717	San Juan la Laguna	12	San Juan la Laguna	5	Mayo	2023-05-20T00:00:00	2024-11-08T08:00:00	6	Velocidad del viento	0
54902	7	Sololá	717	San Juan la Laguna	12	San Juan la Laguna	5	Mayo	2023-05-20T00:00:00	2024-11-08T08:00:00	7	Dirección del viento	0
54903	7	Sololá	717	San Juan la Laguna	12	San Juan la Laguna	5	Mayo	2023-05-20T00:00:00	2024-11-08T08:00:00	1	Precipitación	0
54904	7	Sololá	717	San Juan la Laguna	12	San Juan la Laguna	5	Mayo	2023-05-20T00:00:00	2024-11-08T08:00:00	8	Radiación solar	290
54905	7	Sololá	717	San Juan la Laguna	12	San Juan la Laguna	5	Mayo	2023-05-20T00:00:00	2024-11-08T09:00:00	2	Temperatura media	23.3
54906	7	Sololá	717	San Juan la Laguna	12	San Juan la Laguna	5	Mayo	2023-05-20T00:00:00	2024-11-08T09:00:00	4	Temperatura máxima	23.6
54907	7	Sololá	717	San Juan la Laguna	12	San Juan la Laguna	5	Mayo	2023-05-20T00:00:00	2024-11-08T09:00:00	3	Temperatura mínima	22.5
54908	7	Sololá	717	San Juan la Laguna	12	San Juan la Laguna	5	Mayo	2023-05-20T00:00:00	2024-11-08T09:00:00	5	Humedad	58
54909	7	Sololá	717	San Juan la Laguna	12	San Juan la Laguna	5	Mayo	2023-05-20T00:00:00	2024-11-08T09:00:00	6	Velocidad del viento	1.6
54910	7	Sololá	717	San Juan la Laguna	12	San Juan la Laguna	5	Mayo	2023-05-20T00:00:00	2024-11-08T09:00:00	7	Dirección del viento	1.61
54911	7	Sololá	717	San Juan la Laguna	12	San Juan la Laguna	5	Mayo	2023-05-20T00:00:00	2024-11-08T09:00:00	1	Precipitación	0
54912	7	Sololá	717	San Juan la Laguna	12	San Juan la Laguna	5	Mayo	2023-05-20T00:00:00	2024-11-08T09:00:00	8	Radiación solar	535
54913	7	Sololá	717	San Juan la Laguna	12	San Juan la Laguna	5	Mayo	2023-05-20T00:00:00	2024-11-08T10:00:00	2	Temperatura media	25.1
54914	7	Sololá	717	San Juan la Laguna	12	San Juan la Laguna	5	Mayo	2023-05-20T00:00:00	2024-11-08T10:00:00	4	Temperatura máxima	25.2
54915	7	Sololá	717	San Juan la Laguna	12	San Juan la Laguna	5	Mayo	2023-05-20T00:00:00	2024-11-08T10:00:00	3	Temperatura mínima	23.1
54916	7	Sololá	717	San Juan la Laguna	12	San Juan la Laguna	5	Mayo	2023-05-20T00:00:00	2024-11-08T10:00:00	5	Humedad	50
54917	7	Sololá	717	San Juan la Laguna	12	San Juan la Laguna	5	Mayo	2023-05-20T00:00:00	2024-11-08T10:00:00	6	Velocidad del viento	1.6
54918	7	Sololá	717	San Juan la Laguna	12	San Juan la Laguna	5	Mayo	2023-05-20T00:00:00	2024-11-08T10:00:00	7	Dirección del viento	1.61
54919	7	Sololá	717	San Juan la Laguna	12	San Juan la Laguna	5	Mayo	2023-05-20T00:00:00	2024-11-08T10:00:00	1	Precipitación	0
54920	7	Sololá	717	San Juan la Laguna	12	San Juan la Laguna	5	Mayo	2023-05-20T00:00:00	2024-11-08T10:00:00	8	Radiación solar	683
54921	7	Sololá	717	San Juan la Laguna	12	San Juan la Laguna	5	Mayo	2023-05-20T00:00:00	2024-11-08T11:00:00	2	Temperatura media	26.6
54922	7	Sololá	717	San Juan la Laguna	12	San Juan la Laguna	5	Mayo	2023-05-20T00:00:00	2024-11-08T11:00:00	4	Temperatura máxima	27.3
54923	7	Sololá	717	San Juan la Laguna	12	San Juan la Laguna	5	Mayo	2023-05-20T00:00:00	2024-11-08T11:00:00	3	Temperatura mínima	25.1
54924	7	Sololá	717	San Juan la Laguna	12	San Juan la Laguna	5	Mayo	2023-05-20T00:00:00	2024-11-08T11:00:00	5	Humedad	47
54925	7	Sololá	717	San Juan la Laguna	12	San Juan la Laguna	5	Mayo	2023-05-20T00:00:00	2024-11-08T11:00:00	6	Velocidad del viento	1.6
54926	7	Sololá	717	San Juan la Laguna	12	San Juan la Laguna	5	Mayo	2023-05-20T00:00:00	2024-11-08T11:00:00	7	Dirección del viento	1.61
54927	7	Sololá	717	San Juan la Laguna	12	San Juan la Laguna	5	Mayo	2023-05-20T00:00:00	2024-11-08T11:00:00	1	Precipitación	0
54928	7	Sololá	717	San Juan la Laguna	12	San Juan la Laguna	5	Mayo	2023-05-20T00:00:00	2024-11-08T11:00:00	8	Radiación solar	809
54929	7	Sololá	717	San Juan la Laguna	12	San Juan la Laguna	5	Mayo	2023-05-20T00:00:00	2024-11-08T12:00:00	2	Temperatura media	27.5
54930	7	Sololá	717	San Juan la Laguna	12	San Juan la Laguna	5	Mayo	2023-05-20T00:00:00	2024-11-08T12:00:00	4	Temperatura máxima	27.6
54931	7	Sololá	717	San Juan la Laguna	12	San Juan la Laguna	5	Mayo	2023-05-20T00:00:00	2024-11-08T12:00:00	3	Temperatura mínima	26.4
54932	7	Sololá	717	San Juan la Laguna	12	San Juan la Laguna	5	Mayo	2023-05-20T00:00:00	2024-11-08T12:00:00	5	Humedad	43
54933	7	Sololá	717	San Juan la Laguna	12	San Juan la Laguna	5	Mayo	2023-05-20T00:00:00	2024-11-08T12:00:00	6	Velocidad del viento	3.2
54934	7	Sololá	717	San Juan la Laguna	12	San Juan la Laguna	5	Mayo	2023-05-20T00:00:00	2024-11-08T12:00:00	7	Dirección del viento	3.22
54935	7	Sololá	717	San Juan la Laguna	12	San Juan la Laguna	5	Mayo	2023-05-20T00:00:00	2024-11-08T12:00:00	1	Precipitación	0
54936	7	Sololá	717	San Juan la Laguna	12	San Juan la Laguna	5	Mayo	2023-05-20T00:00:00	2024-11-08T12:00:00	8	Radiación solar	885
54937	7	Sololá	717	San Juan la Laguna	12	San Juan la Laguna	5	Mayo	2023-05-20T00:00:00	2024-11-08T13:00:00	2	Temperatura media	27.3
54938	7	Sololá	717	San Juan la Laguna	12	San Juan la Laguna	5	Mayo	2023-05-20T00:00:00	2024-11-08T13:00:00	4	Temperatura máxima	28.4
54939	7	Sololá	717	San Juan la Laguna	12	San Juan la Laguna	5	Mayo	2023-05-20T00:00:00	2024-11-08T13:00:00	3	Temperatura mínima	27.3
54940	7	Sololá	717	San Juan la Laguna	12	San Juan la Laguna	5	Mayo	2023-05-20T00:00:00	2024-11-08T13:00:00	5	Humedad	44
54941	7	Sololá	717	San Juan la Laguna	12	San Juan la Laguna	5	Mayo	2023-05-20T00:00:00	2024-11-08T13:00:00	6	Velocidad del viento	3.2
54942	7	Sololá	717	San Juan la Laguna	12	San Juan la Laguna	5	Mayo	2023-05-20T00:00:00	2024-11-08T13:00:00	7	Dirección del viento	3.22
54943	7	Sololá	717	San Juan la Laguna	12	San Juan la Laguna	5	Mayo	2023-05-20T00:00:00	2024-11-08T13:00:00	1	Precipitación	0
54944	7	Sololá	717	San Juan la Laguna	12	San Juan la Laguna	5	Mayo	2023-05-20T00:00:00	2024-11-08T13:00:00	8	Radiación solar	903
54945	7	Sololá	717	San Juan la Laguna	12	San Juan la Laguna	5	Mayo	2023-05-20T00:00:00	2024-11-08T14:00:00	2	Temperatura media	27.3
54946	7	Sololá	717	San Juan la Laguna	12	San Juan la Laguna	5	Mayo	2023-05-20T00:00:00	2024-11-08T14:00:00	4	Temperatura máxima	28.3
54947	7	Sololá	717	San Juan la Laguna	12	San Juan la Laguna	5	Mayo	2023-05-20T00:00:00	2024-11-08T14:00:00	3	Temperatura mínima	27.3
54948	7	Sololá	717	San Juan la Laguna	12	San Juan la Laguna	5	Mayo	2023-05-20T00:00:00	2024-11-08T14:00:00	5	Humedad	49
54949	7	Sololá	717	San Juan la Laguna	12	San Juan la Laguna	5	Mayo	2023-05-20T00:00:00	2024-11-08T14:00:00	6	Velocidad del viento	3.2
54950	7	Sololá	717	San Juan la Laguna	12	San Juan la Laguna	5	Mayo	2023-05-20T00:00:00	2024-11-08T14:00:00	7	Dirección del viento	3.22
54951	7	Sololá	717	San Juan la Laguna	12	San Juan la Laguna	5	Mayo	2023-05-20T00:00:00	2024-11-08T14:00:00	1	Precipitación	0
54952	7	Sololá	717	San Juan la Laguna	12	San Juan la Laguna	5	Mayo	2023-05-20T00:00:00	2024-11-08T14:00:00	8	Radiación solar	837
54953	7	Sololá	717	San Juan la Laguna	12	San Juan la Laguna	5	Mayo	2023-05-20T00:00:00	2024-11-08T15:00:00	2	Temperatura media	25.6
54954	7	Sololá	717	San Juan la Laguna	12	San Juan la Laguna	5	Mayo	2023-05-20T00:00:00	2024-11-08T15:00:00	4	Temperatura máxima	27.4
54955	7	Sololá	717	San Juan la Laguna	12	San Juan la Laguna	5	Mayo	2023-05-20T00:00:00	2024-11-08T15:00:00	3	Temperatura mínima	25.4
54956	7	Sololá	717	San Juan la Laguna	12	San Juan la Laguna	5	Mayo	2023-05-20T00:00:00	2024-11-08T15:00:00	5	Humedad	63
54957	7	Sololá	717	San Juan la Laguna	12	San Juan la Laguna	5	Mayo	2023-05-20T00:00:00	2024-11-08T15:00:00	6	Velocidad del viento	6.4
54958	7	Sololá	717	San Juan la Laguna	12	San Juan la Laguna	5	Mayo	2023-05-20T00:00:00	2024-11-08T15:00:00	7	Dirección del viento	6.44
54959	7	Sololá	717	San Juan la Laguna	12	San Juan la Laguna	5	Mayo	2023-05-20T00:00:00	2024-11-08T15:00:00	1	Precipitación	0
54960	7	Sololá	717	San Juan la Laguna	12	San Juan la Laguna	5	Mayo	2023-05-20T00:00:00	2024-11-08T15:00:00	8	Radiación solar	733
54961	7	Sololá	717	San Juan la Laguna	12	San Juan la Laguna	5	Mayo	2023-05-20T00:00:00	2024-11-08T16:00:00	2	Temperatura media	24.8
54962	7	Sololá	717	San Juan la Laguna	12	San Juan la Laguna	5	Mayo	2023-05-20T00:00:00	2024-11-08T16:00:00	4	Temperatura máxima	25.8
54963	7	Sololá	717	San Juan la Laguna	12	San Juan la Laguna	5	Mayo	2023-05-20T00:00:00	2024-11-08T16:00:00	3	Temperatura mínima	24.7
54964	7	Sololá	717	San Juan la Laguna	12	San Juan la Laguna	5	Mayo	2023-05-20T00:00:00	2024-11-08T16:00:00	5	Humedad	71
54965	7	Sololá	717	San Juan la Laguna	12	San Juan la Laguna	5	Mayo	2023-05-20T00:00:00	2024-11-08T16:00:00	6	Velocidad del viento	6.4
54966	7	Sololá	717	San Juan la Laguna	12	San Juan la Laguna	5	Mayo	2023-05-20T00:00:00	2024-11-08T16:00:00	7	Dirección del viento	6.44
54967	7	Sololá	717	San Juan la Laguna	12	San Juan la Laguna	5	Mayo	2023-05-20T00:00:00	2024-11-08T16:00:00	1	Precipitación	0
54968	7	Sololá	717	San Juan la Laguna	12	San Juan la Laguna	5	Mayo	2023-05-20T00:00:00	2024-11-08T16:00:00	8	Radiación solar	564
54969	7	Sololá	717	San Juan la Laguna	12	San Juan la Laguna	5	Mayo	2023-05-20T00:00:00	2024-11-08T17:00:00	2	Temperatura media	24
54970	7	Sololá	717	San Juan la Laguna	12	San Juan la Laguna	5	Mayo	2023-05-20T00:00:00	2024-11-08T17:00:00	4	Temperatura máxima	24.9
54971	7	Sololá	717	San Juan la Laguna	12	San Juan la Laguna	5	Mayo	2023-05-20T00:00:00	2024-11-08T17:00:00	3	Temperatura mínima	24
54972	7	Sololá	717	San Juan la Laguna	12	San Juan la Laguna	5	Mayo	2023-05-20T00:00:00	2024-11-08T17:00:00	5	Humedad	72
54973	7	Sololá	717	San Juan la Laguna	12	San Juan la Laguna	5	Mayo	2023-05-20T00:00:00	2024-11-08T17:00:00	6	Velocidad del viento	4.8
54974	7	Sololá	717	San Juan la Laguna	12	San Juan la Laguna	5	Mayo	2023-05-20T00:00:00	2024-11-08T17:00:00	7	Dirección del viento	4.83
54975	7	Sololá	717	San Juan la Laguna	12	San Juan la Laguna	5	Mayo	2023-05-20T00:00:00	2024-11-08T17:00:00	1	Precipitación	0
54976	7	Sololá	717	San Juan la Laguna	12	San Juan la Laguna	5	Mayo	2023-05-20T00:00:00	2024-11-08T17:00:00	8	Radiación solar	322
54977	7	Sololá	717	San Juan la Laguna	12	San Juan la Laguna	5	Mayo	2023-05-20T00:00:00	2024-11-08T18:00:00	2	Temperatura media	23.6
54978	7	Sololá	717	San Juan la Laguna	12	San Juan la Laguna	5	Mayo	2023-05-20T00:00:00	2024-11-08T18:00:00	4	Temperatura máxima	24.3
54979	7	Sololá	717	San Juan la Laguna	12	San Juan la Laguna	5	Mayo	2023-05-20T00:00:00	2024-11-08T18:00:00	3	Temperatura mínima	23.6
54980	7	Sololá	717	San Juan la Laguna	12	San Juan la Laguna	5	Mayo	2023-05-20T00:00:00	2024-11-08T18:00:00	5	Humedad	71
54981	7	Sololá	717	San Juan la Laguna	12	San Juan la Laguna	5	Mayo	2023-05-20T00:00:00	2024-11-08T18:00:00	6	Velocidad del viento	1.6
54982	7	Sololá	717	San Juan la Laguna	12	San Juan la Laguna	5	Mayo	2023-05-20T00:00:00	2024-11-08T18:00:00	7	Dirección del viento	1.61
54983	7	Sololá	717	San Juan la Laguna	12	San Juan la Laguna	5	Mayo	2023-05-20T00:00:00	2024-11-08T18:00:00	1	Precipitación	0
54984	7	Sololá	717	San Juan la Laguna	12	San Juan la Laguna	5	Mayo	2023-05-20T00:00:00	2024-11-08T18:00:00	8	Radiación solar	113
54985	7	Sololá	717	San Juan la Laguna	12	San Juan la Laguna	5	Mayo	2023-05-20T00:00:00	2024-11-08T19:00:00	2	Temperatura media	23.3
54986	7	Sololá	717	San Juan la Laguna	12	San Juan la Laguna	5	Mayo	2023-05-20T00:00:00	2024-11-08T19:00:00	4	Temperatura máxima	23.6
54987	7	Sololá	717	San Juan la Laguna	12	San Juan la Laguna	5	Mayo	2023-05-20T00:00:00	2024-11-08T19:00:00	3	Temperatura mínima	22.8
54988	7	Sololá	717	San Juan la Laguna	12	San Juan la Laguna	5	Mayo	2023-05-20T00:00:00	2024-11-08T19:00:00	5	Humedad	66
54989	7	Sololá	717	San Juan la Laguna	12	San Juan la Laguna	5	Mayo	2023-05-20T00:00:00	2024-11-08T19:00:00	6	Velocidad del viento	1.6
54990	7	Sololá	717	San Juan la Laguna	12	San Juan la Laguna	5	Mayo	2023-05-20T00:00:00	2024-11-08T19:00:00	7	Dirección del viento	1.61
54991	7	Sololá	717	San Juan la Laguna	12	San Juan la Laguna	5	Mayo	2023-05-20T00:00:00	2024-11-08T19:00:00	1	Precipitación	0
54992	7	Sololá	717	San Juan la Laguna	12	San Juan la Laguna	5	Mayo	2023-05-20T00:00:00	2024-11-08T19:00:00	8	Radiación solar	0
54993	7	Sololá	717	San Juan la Laguna	12	San Juan la Laguna	5	Mayo	2023-05-20T00:00:00	2024-11-08T20:00:00	2	Temperatura media	22.6
54994	7	Sololá	717	San Juan la Laguna	12	San Juan la Laguna	5	Mayo	2023-05-20T00:00:00	2024-11-08T20:00:00	4	Temperatura máxima	23.3
54995	7	Sololá	717	San Juan la Laguna	12	San Juan la Laguna	5	Mayo	2023-05-20T00:00:00	2024-11-08T20:00:00	3	Temperatura mínima	22.6
54996	7	Sololá	717	San Juan la Laguna	12	San Juan la Laguna	5	Mayo	2023-05-20T00:00:00	2024-11-08T20:00:00	5	Humedad	63
54997	7	Sololá	717	San Juan la Laguna	12	San Juan la Laguna	5	Mayo	2023-05-20T00:00:00	2024-11-08T20:00:00	6	Velocidad del viento	3.2
54998	7	Sololá	717	San Juan la Laguna	12	San Juan la Laguna	5	Mayo	2023-05-20T00:00:00	2024-11-08T20:00:00	7	Dirección del viento	3.22
54999	7	Sololá	717	San Juan la Laguna	12	San Juan la Laguna	5	Mayo	2023-05-20T00:00:00	2024-11-08T20:00:00	1	Precipitación	0
55000	7	Sololá	717	San Juan la Laguna	12	San Juan la Laguna	5	Mayo	2023-05-20T00:00:00	2024-11-08T20:00:00	8	Radiación solar	0
55001	7	Sololá	717	San Juan la Laguna	12	San Juan la Laguna	5	Mayo	2023-05-20T00:00:00	2024-11-08T21:00:00	2	Temperatura media	22.1
55002	7	Sololá	717	San Juan la Laguna	12	San Juan la Laguna	5	Mayo	2023-05-20T00:00:00	2024-11-08T21:00:00	4	Temperatura máxima	22.7
55003	7	Sololá	717	San Juan la Laguna	12	San Juan la Laguna	5	Mayo	2023-05-20T00:00:00	2024-11-08T21:00:00	3	Temperatura mínima	22.1
55004	7	Sololá	717	San Juan la Laguna	12	San Juan la Laguna	5	Mayo	2023-05-20T00:00:00	2024-11-08T21:00:00	5	Humedad	63
55005	7	Sololá	717	San Juan la Laguna	12	San Juan la Laguna	5	Mayo	2023-05-20T00:00:00	2024-11-08T21:00:00	6	Velocidad del viento	1.6
55006	7	Sololá	717	San Juan la Laguna	12	San Juan la Laguna	5	Mayo	2023-05-20T00:00:00	2024-11-08T21:00:00	7	Dirección del viento	1.61
55007	7	Sololá	717	San Juan la Laguna	12	San Juan la Laguna	5	Mayo	2023-05-20T00:00:00	2024-11-08T21:00:00	1	Precipitación	0
55008	7	Sololá	717	San Juan la Laguna	12	San Juan la Laguna	5	Mayo	2023-05-20T00:00:00	2024-11-08T21:00:00	8	Radiación solar	0
55009	7	Sololá	717	San Juan la Laguna	12	San Juan la Laguna	5	Mayo	2023-05-20T00:00:00	2024-11-08T22:00:00	2	Temperatura media	20.8
55010	7	Sololá	717	San Juan la Laguna	12	San Juan la Laguna	5	Mayo	2023-05-20T00:00:00	2024-11-08T22:00:00	4	Temperatura máxima	22.1
55011	7	Sololá	717	San Juan la Laguna	12	San Juan la Laguna	5	Mayo	2023-05-20T00:00:00	2024-11-08T22:00:00	3	Temperatura mínima	20.8
55012	7	Sololá	717	San Juan la Laguna	12	San Juan la Laguna	5	Mayo	2023-05-20T00:00:00	2024-11-08T22:00:00	5	Humedad	66
55013	7	Sololá	717	San Juan la Laguna	12	San Juan la Laguna	5	Mayo	2023-05-20T00:00:00	2024-11-08T22:00:00	6	Velocidad del viento	1.6
55014	7	Sololá	717	San Juan la Laguna	12	San Juan la Laguna	5	Mayo	2023-05-20T00:00:00	2024-11-08T22:00:00	7	Dirección del viento	1.61
55015	7	Sololá	717	San Juan la Laguna	12	San Juan la Laguna	5	Mayo	2023-05-20T00:00:00	2024-11-08T22:00:00	1	Precipitación	0
55016	7	Sololá	717	San Juan la Laguna	12	San Juan la Laguna	5	Mayo	2023-05-20T00:00:00	2024-11-08T22:00:00	8	Radiación solar	0
55017	7	Sololá	717	San Juan la Laguna	12	San Juan la Laguna	5	Mayo	2023-05-20T00:00:00	2024-11-08T23:00:00	2	Temperatura media	20.8
55018	7	Sololá	717	San Juan la Laguna	12	San Juan la Laguna	5	Mayo	2023-05-20T00:00:00	2024-11-08T23:00:00	4	Temperatura máxima	20.8
55019	7	Sololá	717	San Juan la Laguna	12	San Juan la Laguna	5	Mayo	2023-05-20T00:00:00	2024-11-08T23:00:00	3	Temperatura mínima	20.3
55020	7	Sololá	717	San Juan la Laguna	12	San Juan la Laguna	5	Mayo	2023-05-20T00:00:00	2024-11-08T23:00:00	5	Humedad	62
55021	7	Sololá	717	San Juan la Laguna	12	San Juan la Laguna	5	Mayo	2023-05-20T00:00:00	2024-11-08T23:00:00	6	Velocidad del viento	1.6
55022	7	Sololá	717	San Juan la Laguna	12	San Juan la Laguna	5	Mayo	2023-05-20T00:00:00	2024-11-08T23:00:00	7	Dirección del viento	1.61
55023	7	Sololá	717	San Juan la Laguna	12	San Juan la Laguna	5	Mayo	2023-05-20T00:00:00	2024-11-08T23:00:00	1	Precipitación	0
55024	7	Sololá	717	San Juan la Laguna	12	San Juan la Laguna	5	Mayo	2023-05-20T00:00:00	2024-11-08T23:00:00	8	Radiación solar	0
55025	7	Sololá	717	San Juan la Laguna	12	San Juan la Laguna	5	Mayo	2023-05-21T00:00:00	2024-11-08T00:00:00	2	Temperatura media	18.6
55026	7	Sololá	717	San Juan la Laguna	12	San Juan la Laguna	5	Mayo	2023-05-21T00:00:00	2024-11-08T00:00:00	4	Temperatura máxima	20.9
55027	7	Sololá	717	San Juan la Laguna	12	San Juan la Laguna	5	Mayo	2023-05-21T00:00:00	2024-11-08T00:00:00	3	Temperatura mínima	18.6
55028	7	Sololá	717	San Juan la Laguna	12	San Juan la Laguna	5	Mayo	2023-05-21T00:00:00	2024-11-08T00:00:00	5	Humedad	69
55029	7	Sololá	717	San Juan la Laguna	12	San Juan la Laguna	5	Mayo	2023-05-21T00:00:00	2024-11-08T00:00:00	6	Velocidad del viento	1.6
55030	7	Sololá	717	San Juan la Laguna	12	San Juan la Laguna	5	Mayo	2023-05-21T00:00:00	2024-11-08T00:00:00	7	Dirección del viento	1.61
55031	7	Sololá	717	San Juan la Laguna	12	San Juan la Laguna	5	Mayo	2023-05-21T00:00:00	2024-11-08T00:00:00	1	Precipitación	0
55032	7	Sololá	717	San Juan la Laguna	12	San Juan la Laguna	5	Mayo	2023-05-21T00:00:00	2024-11-08T00:00:00	8	Radiación solar	0
55033	7	Sololá	717	San Juan la Laguna	12	San Juan la Laguna	5	Mayo	2023-05-21T00:00:00	2024-11-08T01:00:00	2	Temperatura media	17.6
55034	7	Sololá	717	San Juan la Laguna	12	San Juan la Laguna	5	Mayo	2023-05-21T00:00:00	2024-11-08T01:00:00	4	Temperatura máxima	18.6
55035	7	Sololá	717	San Juan la Laguna	12	San Juan la Laguna	5	Mayo	2023-05-21T00:00:00	2024-11-08T01:00:00	3	Temperatura mínima	17.4
55036	7	Sololá	717	San Juan la Laguna	12	San Juan la Laguna	5	Mayo	2023-05-21T00:00:00	2024-11-08T01:00:00	5	Humedad	72
55037	7	Sololá	717	San Juan la Laguna	12	San Juan la Laguna	5	Mayo	2023-05-21T00:00:00	2024-11-08T01:00:00	6	Velocidad del viento	3.2
55038	7	Sololá	717	San Juan la Laguna	12	San Juan la Laguna	5	Mayo	2023-05-21T00:00:00	2024-11-08T01:00:00	7	Dirección del viento	3.22
55039	7	Sololá	717	San Juan la Laguna	12	San Juan la Laguna	5	Mayo	2023-05-21T00:00:00	2024-11-08T01:00:00	1	Precipitación	0
55040	7	Sololá	717	San Juan la Laguna	12	San Juan la Laguna	5	Mayo	2023-05-21T00:00:00	2024-11-08T01:00:00	8	Radiación solar	0
55041	7	Sololá	717	San Juan la Laguna	12	San Juan la Laguna	5	Mayo	2023-05-21T00:00:00	2024-11-08T02:00:00	2	Temperatura media	16.8
55042	7	Sololá	717	San Juan la Laguna	12	San Juan la Laguna	5	Mayo	2023-05-21T00:00:00	2024-11-08T02:00:00	4	Temperatura máxima	17.6
55043	7	Sololá	717	San Juan la Laguna	12	San Juan la Laguna	5	Mayo	2023-05-21T00:00:00	2024-11-08T02:00:00	3	Temperatura mínima	16.8
55044	7	Sololá	717	San Juan la Laguna	12	San Juan la Laguna	5	Mayo	2023-05-21T00:00:00	2024-11-08T02:00:00	5	Humedad	75
55045	7	Sololá	717	San Juan la Laguna	12	San Juan la Laguna	5	Mayo	2023-05-21T00:00:00	2024-11-08T02:00:00	6	Velocidad del viento	3.2
55046	7	Sololá	717	San Juan la Laguna	12	San Juan la Laguna	5	Mayo	2023-05-21T00:00:00	2024-11-08T02:00:00	7	Dirección del viento	3.22
55047	7	Sololá	717	San Juan la Laguna	12	San Juan la Laguna	5	Mayo	2023-05-21T00:00:00	2024-11-08T02:00:00	1	Precipitación	0
55048	7	Sololá	717	San Juan la Laguna	12	San Juan la Laguna	5	Mayo	2023-05-21T00:00:00	2024-11-08T02:00:00	8	Radiación solar	0
55049	7	Sololá	717	San Juan la Laguna	12	San Juan la Laguna	5	Mayo	2023-05-21T00:00:00	2024-11-08T03:00:00	2	Temperatura media	16.5
55050	7	Sololá	717	San Juan la Laguna	12	San Juan la Laguna	5	Mayo	2023-05-21T00:00:00	2024-11-08T03:00:00	4	Temperatura máxima	16.8
55051	7	Sololá	717	San Juan la Laguna	12	San Juan la Laguna	5	Mayo	2023-05-21T00:00:00	2024-11-08T03:00:00	3	Temperatura mínima	16.4
55052	7	Sololá	717	San Juan la Laguna	12	San Juan la Laguna	5	Mayo	2023-05-21T00:00:00	2024-11-08T03:00:00	5	Humedad	77
55053	7	Sololá	717	San Juan la Laguna	12	San Juan la Laguna	5	Mayo	2023-05-21T00:00:00	2024-11-08T03:00:00	6	Velocidad del viento	1.6
55054	7	Sololá	717	San Juan la Laguna	12	San Juan la Laguna	5	Mayo	2023-05-21T00:00:00	2024-11-08T03:00:00	7	Dirección del viento	1.61
55055	7	Sololá	717	San Juan la Laguna	12	San Juan la Laguna	5	Mayo	2023-05-21T00:00:00	2024-11-08T03:00:00	1	Precipitación	0
55056	7	Sololá	717	San Juan la Laguna	12	San Juan la Laguna	5	Mayo	2023-05-21T00:00:00	2024-11-08T03:00:00	8	Radiación solar	0
55057	7	Sololá	717	San Juan la Laguna	12	San Juan la Laguna	5	Mayo	2023-05-21T00:00:00	2024-11-08T04:00:00	2	Temperatura media	17.1
55058	7	Sololá	717	San Juan la Laguna	12	San Juan la Laguna	5	Mayo	2023-05-21T00:00:00	2024-11-08T04:00:00	4	Temperatura máxima	17.1
55059	7	Sololá	717	San Juan la Laguna	12	San Juan la Laguna	5	Mayo	2023-05-21T00:00:00	2024-11-08T04:00:00	3	Temperatura mínima	16.4
55060	7	Sololá	717	San Juan la Laguna	12	San Juan la Laguna	5	Mayo	2023-05-21T00:00:00	2024-11-08T04:00:00	5	Humedad	73
55061	7	Sololá	717	San Juan la Laguna	12	San Juan la Laguna	5	Mayo	2023-05-21T00:00:00	2024-11-08T04:00:00	6	Velocidad del viento	1.6
55062	7	Sololá	717	San Juan la Laguna	12	San Juan la Laguna	5	Mayo	2023-05-21T00:00:00	2024-11-08T04:00:00	7	Dirección del viento	1.61
55063	7	Sololá	717	San Juan la Laguna	12	San Juan la Laguna	5	Mayo	2023-05-21T00:00:00	2024-11-08T04:00:00	1	Precipitación	0
55064	7	Sololá	717	San Juan la Laguna	12	San Juan la Laguna	5	Mayo	2023-05-21T00:00:00	2024-11-08T04:00:00	8	Radiación solar	0
55065	7	Sololá	717	San Juan la Laguna	12	San Juan la Laguna	5	Mayo	2023-05-21T00:00:00	2024-11-08T05:00:00	2	Temperatura media	16.3
55066	7	Sololá	717	San Juan la Laguna	12	San Juan la Laguna	5	Mayo	2023-05-21T00:00:00	2024-11-08T05:00:00	4	Temperatura máxima	17.1
55067	7	Sololá	717	San Juan la Laguna	12	San Juan la Laguna	5	Mayo	2023-05-21T00:00:00	2024-11-08T05:00:00	3	Temperatura mínima	15.9
55068	7	Sololá	717	San Juan la Laguna	12	San Juan la Laguna	5	Mayo	2023-05-21T00:00:00	2024-11-08T05:00:00	5	Humedad	78
55069	7	Sololá	717	San Juan la Laguna	12	San Juan la Laguna	5	Mayo	2023-05-21T00:00:00	2024-11-08T05:00:00	6	Velocidad del viento	0
55070	7	Sololá	717	San Juan la Laguna	12	San Juan la Laguna	5	Mayo	2023-05-21T00:00:00	2024-11-08T05:00:00	7	Dirección del viento	0
55071	7	Sololá	717	San Juan la Laguna	12	San Juan la Laguna	5	Mayo	2023-05-21T00:00:00	2024-11-08T05:00:00	1	Precipitación	0
55072	7	Sololá	717	San Juan la Laguna	12	San Juan la Laguna	5	Mayo	2023-05-21T00:00:00	2024-11-08T05:00:00	8	Radiación solar	0
55073	7	Sololá	717	San Juan la Laguna	12	San Juan la Laguna	5	Mayo	2023-05-21T00:00:00	2024-11-08T06:00:00	2	Temperatura media	16.9
55074	7	Sololá	717	San Juan la Laguna	12	San Juan la Laguna	5	Mayo	2023-05-21T00:00:00	2024-11-08T06:00:00	4	Temperatura máxima	16.9
55075	7	Sololá	717	San Juan la Laguna	12	San Juan la Laguna	5	Mayo	2023-05-21T00:00:00	2024-11-08T06:00:00	3	Temperatura mínima	16
55076	7	Sololá	717	San Juan la Laguna	12	San Juan la Laguna	5	Mayo	2023-05-21T00:00:00	2024-11-08T06:00:00	5	Humedad	78
55077	7	Sololá	717	San Juan la Laguna	12	San Juan la Laguna	5	Mayo	2023-05-21T00:00:00	2024-11-08T06:00:00	6	Velocidad del viento	0
55078	7	Sololá	717	San Juan la Laguna	12	San Juan la Laguna	5	Mayo	2023-05-21T00:00:00	2024-11-08T06:00:00	7	Dirección del viento	0
55079	7	Sololá	717	San Juan la Laguna	12	San Juan la Laguna	5	Mayo	2023-05-21T00:00:00	2024-11-08T06:00:00	1	Precipitación	0
55080	7	Sololá	717	San Juan la Laguna	12	San Juan la Laguna	5	Mayo	2023-05-21T00:00:00	2024-11-08T06:00:00	8	Radiación solar	2
55081	7	Sololá	717	San Juan la Laguna	12	San Juan la Laguna	5	Mayo	2023-05-21T00:00:00	2024-11-08T07:00:00	2	Temperatura media	18.5
55082	7	Sololá	717	San Juan la Laguna	12	San Juan la Laguna	5	Mayo	2023-05-21T00:00:00	2024-11-08T07:00:00	4	Temperatura máxima	18.5
55083	7	Sololá	717	San Juan la Laguna	12	San Juan la Laguna	5	Mayo	2023-05-21T00:00:00	2024-11-08T07:00:00	3	Temperatura mínima	16.9
55084	7	Sololá	717	San Juan la Laguna	12	San Juan la Laguna	5	Mayo	2023-05-21T00:00:00	2024-11-08T07:00:00	5	Humedad	77
55085	7	Sololá	717	San Juan la Laguna	12	San Juan la Laguna	5	Mayo	2023-05-21T00:00:00	2024-11-08T07:00:00	6	Velocidad del viento	0
55086	7	Sololá	717	San Juan la Laguna	12	San Juan la Laguna	5	Mayo	2023-05-21T00:00:00	2024-11-08T07:00:00	7	Dirección del viento	0
55087	7	Sololá	717	San Juan la Laguna	12	San Juan la Laguna	5	Mayo	2023-05-21T00:00:00	2024-11-08T07:00:00	1	Precipitación	0
55088	7	Sololá	717	San Juan la Laguna	12	San Juan la Laguna	5	Mayo	2023-05-21T00:00:00	2024-11-08T07:00:00	8	Radiación solar	44
55089	7	Sololá	717	San Juan la Laguna	12	San Juan la Laguna	5	Mayo	2023-05-21T00:00:00	2024-11-08T08:00:00	2	Temperatura media	20.6
55090	7	Sololá	717	San Juan la Laguna	12	San Juan la Laguna	5	Mayo	2023-05-21T00:00:00	2024-11-08T08:00:00	4	Temperatura máxima	20.6
55091	7	Sololá	717	San Juan la Laguna	12	San Juan la Laguna	5	Mayo	2023-05-21T00:00:00	2024-11-08T08:00:00	3	Temperatura mínima	18.6
55092	7	Sololá	717	San Juan la Laguna	12	San Juan la Laguna	5	Mayo	2023-05-21T00:00:00	2024-11-08T08:00:00	5	Humedad	69
55093	7	Sololá	717	San Juan la Laguna	12	San Juan la Laguna	5	Mayo	2023-05-21T00:00:00	2024-11-08T08:00:00	6	Velocidad del viento	0
55094	7	Sololá	717	San Juan la Laguna	12	San Juan la Laguna	5	Mayo	2023-05-21T00:00:00	2024-11-08T08:00:00	7	Dirección del viento	0
55095	7	Sololá	717	San Juan la Laguna	12	San Juan la Laguna	5	Mayo	2023-05-21T00:00:00	2024-11-08T08:00:00	1	Precipitación	0
55096	7	Sololá	717	San Juan la Laguna	12	San Juan la Laguna	5	Mayo	2023-05-21T00:00:00	2024-11-08T08:00:00	8	Radiación solar	105
55097	7	Sololá	717	San Juan la Laguna	12	San Juan la Laguna	5	Mayo	2023-05-21T00:00:00	2024-11-08T09:00:00	2	Temperatura media	21.8
55098	7	Sololá	717	San Juan la Laguna	12	San Juan la Laguna	5	Mayo	2023-05-21T00:00:00	2024-11-08T09:00:00	4	Temperatura máxima	21.8
55099	7	Sololá	717	San Juan la Laguna	12	San Juan la Laguna	5	Mayo	2023-05-21T00:00:00	2024-11-08T09:00:00	3	Temperatura mínima	20.6
55100	7	Sololá	717	San Juan la Laguna	12	San Juan la Laguna	5	Mayo	2023-05-21T00:00:00	2024-11-08T09:00:00	5	Humedad	65
55101	7	Sololá	717	San Juan la Laguna	12	San Juan la Laguna	5	Mayo	2023-05-21T00:00:00	2024-11-08T09:00:00	6	Velocidad del viento	0
55102	7	Sololá	717	San Juan la Laguna	12	San Juan la Laguna	5	Mayo	2023-05-21T00:00:00	2024-11-08T09:00:00	7	Dirección del viento	0
55103	7	Sololá	717	San Juan la Laguna	12	San Juan la Laguna	5	Mayo	2023-05-21T00:00:00	2024-11-08T09:00:00	1	Precipitación	0
55104	7	Sololá	717	San Juan la Laguna	12	San Juan la Laguna	5	Mayo	2023-05-21T00:00:00	2024-11-08T09:00:00	8	Radiación solar	199
55105	7	Sololá	717	San Juan la Laguna	12	San Juan la Laguna	5	Mayo	2023-05-21T00:00:00	2024-11-08T10:00:00	2	Temperatura media	24.2
55106	7	Sololá	717	San Juan la Laguna	12	San Juan la Laguna	5	Mayo	2023-05-21T00:00:00	2024-11-08T10:00:00	4	Temperatura máxima	24.3
55107	7	Sololá	717	San Juan la Laguna	12	San Juan la Laguna	5	Mayo	2023-05-21T00:00:00	2024-11-08T10:00:00	3	Temperatura mínima	21.8
55108	7	Sololá	717	San Juan la Laguna	12	San Juan la Laguna	5	Mayo	2023-05-21T00:00:00	2024-11-08T10:00:00	5	Humedad	54
55109	7	Sololá	717	San Juan la Laguna	12	San Juan la Laguna	5	Mayo	2023-05-21T00:00:00	2024-11-08T10:00:00	6	Velocidad del viento	0
55110	7	Sololá	717	San Juan la Laguna	12	San Juan la Laguna	5	Mayo	2023-05-21T00:00:00	2024-11-08T10:00:00	7	Dirección del viento	0
55111	7	Sololá	717	San Juan la Laguna	12	San Juan la Laguna	5	Mayo	2023-05-21T00:00:00	2024-11-08T10:00:00	1	Precipitación	0
55112	7	Sololá	717	San Juan la Laguna	12	San Juan la Laguna	5	Mayo	2023-05-21T00:00:00	2024-11-08T10:00:00	8	Radiación solar	366
55113	7	Sololá	717	San Juan la Laguna	12	San Juan la Laguna	5	Mayo	2023-05-21T00:00:00	2024-11-08T11:00:00	2	Temperatura media	23.1
55114	7	Sololá	717	San Juan la Laguna	12	San Juan la Laguna	5	Mayo	2023-05-21T00:00:00	2024-11-08T11:00:00	4	Temperatura máxima	24.2
55115	7	Sololá	717	San Juan la Laguna	12	San Juan la Laguna	5	Mayo	2023-05-21T00:00:00	2024-11-08T11:00:00	3	Temperatura mínima	23.1
55116	7	Sololá	717	San Juan la Laguna	12	San Juan la Laguna	5	Mayo	2023-05-21T00:00:00	2024-11-08T11:00:00	5	Humedad	60
55117	7	Sololá	717	San Juan la Laguna	12	San Juan la Laguna	5	Mayo	2023-05-21T00:00:00	2024-11-08T11:00:00	6	Velocidad del viento	1.6
55118	7	Sololá	717	San Juan la Laguna	12	San Juan la Laguna	5	Mayo	2023-05-21T00:00:00	2024-11-08T11:00:00	7	Dirección del viento	1.61
55119	7	Sololá	717	San Juan la Laguna	12	San Juan la Laguna	5	Mayo	2023-05-21T00:00:00	2024-11-08T11:00:00	1	Precipitación	0
55120	7	Sololá	717	San Juan la Laguna	12	San Juan la Laguna	5	Mayo	2023-05-21T00:00:00	2024-11-08T11:00:00	8	Radiación solar	304
55121	7	Sololá	717	San Juan la Laguna	12	San Juan la Laguna	5	Mayo	2023-05-21T00:00:00	2024-11-08T12:00:00	2	Temperatura media	22.8
55122	7	Sololá	717	San Juan la Laguna	12	San Juan la Laguna	5	Mayo	2023-05-21T00:00:00	2024-11-08T12:00:00	4	Temperatura máxima	23.4
55123	7	Sololá	717	San Juan la Laguna	12	San Juan la Laguna	5	Mayo	2023-05-21T00:00:00	2024-11-08T12:00:00	3	Temperatura mínima	22.6
55124	7	Sololá	717	San Juan la Laguna	12	San Juan la Laguna	5	Mayo	2023-05-21T00:00:00	2024-11-08T12:00:00	5	Humedad	60
55125	7	Sololá	717	San Juan la Laguna	12	San Juan la Laguna	5	Mayo	2023-05-21T00:00:00	2024-11-08T12:00:00	6	Velocidad del viento	4.8
55126	7	Sololá	717	San Juan la Laguna	12	San Juan la Laguna	5	Mayo	2023-05-21T00:00:00	2024-11-08T12:00:00	7	Dirección del viento	4.83
55127	7	Sololá	717	San Juan la Laguna	12	San Juan la Laguna	5	Mayo	2023-05-21T00:00:00	2024-11-08T12:00:00	1	Precipitación	0
55128	7	Sololá	717	San Juan la Laguna	12	San Juan la Laguna	5	Mayo	2023-05-21T00:00:00	2024-11-08T12:00:00	8	Radiación solar	332
55129	7	Sololá	717	San Juan la Laguna	12	San Juan la Laguna	5	Mayo	2023-05-21T00:00:00	2024-11-08T13:00:00	2	Temperatura media	22.6
55130	7	Sololá	717	San Juan la Laguna	12	San Juan la Laguna	5	Mayo	2023-05-21T00:00:00	2024-11-08T13:00:00	4	Temperatura máxima	23.3
55131	7	Sololá	717	San Juan la Laguna	12	San Juan la Laguna	5	Mayo	2023-05-21T00:00:00	2024-11-08T13:00:00	3	Temperatura mínima	22.5
55132	7	Sololá	717	San Juan la Laguna	12	San Juan la Laguna	5	Mayo	2023-05-21T00:00:00	2024-11-08T13:00:00	5	Humedad	63
55133	7	Sololá	717	San Juan la Laguna	12	San Juan la Laguna	5	Mayo	2023-05-21T00:00:00	2024-11-08T13:00:00	6	Velocidad del viento	4.8
55134	7	Sololá	717	San Juan la Laguna	12	San Juan la Laguna	5	Mayo	2023-05-21T00:00:00	2024-11-08T13:00:00	7	Dirección del viento	4.83
55135	7	Sololá	717	San Juan la Laguna	12	San Juan la Laguna	5	Mayo	2023-05-21T00:00:00	2024-11-08T13:00:00	1	Precipitación	0
55136	7	Sololá	717	San Juan la Laguna	12	San Juan la Laguna	5	Mayo	2023-05-21T00:00:00	2024-11-08T13:00:00	8	Radiación solar	247
55137	7	Sololá	717	San Juan la Laguna	12	San Juan la Laguna	5	Mayo	2023-05-21T00:00:00	2024-11-08T14:00:00	2	Temperatura media	22.7
55138	7	Sololá	717	San Juan la Laguna	12	San Juan la Laguna	5	Mayo	2023-05-21T00:00:00	2024-11-08T14:00:00	4	Temperatura máxima	22.7
55139	7	Sololá	717	San Juan la Laguna	12	San Juan la Laguna	5	Mayo	2023-05-21T00:00:00	2024-11-08T14:00:00	3	Temperatura mínima	22.4
55140	7	Sololá	717	San Juan la Laguna	12	San Juan la Laguna	5	Mayo	2023-05-21T00:00:00	2024-11-08T14:00:00	5	Humedad	60
55141	7	Sololá	717	San Juan la Laguna	12	San Juan la Laguna	5	Mayo	2023-05-21T00:00:00	2024-11-08T14:00:00	6	Velocidad del viento	3.2
55142	7	Sololá	717	San Juan la Laguna	12	San Juan la Laguna	5	Mayo	2023-05-21T00:00:00	2024-11-08T14:00:00	7	Dirección del viento	3.22
55143	7	Sololá	717	San Juan la Laguna	12	San Juan la Laguna	5	Mayo	2023-05-21T00:00:00	2024-11-08T14:00:00	1	Precipitación	0
55144	7	Sololá	717	San Juan la Laguna	12	San Juan la Laguna	5	Mayo	2023-05-21T00:00:00	2024-11-08T14:00:00	8	Radiación solar	188
55145	7	Sololá	717	San Juan la Laguna	12	San Juan la Laguna	5	Mayo	2023-05-21T00:00:00	2024-11-08T15:00:00	2	Temperatura media	24.4
55146	7	Sololá	717	San Juan la Laguna	12	San Juan la Laguna	5	Mayo	2023-05-21T00:00:00	2024-11-08T15:00:00	4	Temperatura máxima	24.4
55147	7	Sololá	717	San Juan la Laguna	12	San Juan la Laguna	5	Mayo	2023-05-21T00:00:00	2024-11-08T15:00:00	3	Temperatura mínima	22.7
55148	7	Sololá	717	San Juan la Laguna	12	San Juan la Laguna	5	Mayo	2023-05-21T00:00:00	2024-11-08T15:00:00	5	Humedad	59
55149	7	Sololá	717	San Juan la Laguna	12	San Juan la Laguna	5	Mayo	2023-05-21T00:00:00	2024-11-08T15:00:00	6	Velocidad del viento	1.6
55150	7	Sololá	717	San Juan la Laguna	12	San Juan la Laguna	5	Mayo	2023-05-21T00:00:00	2024-11-08T15:00:00	7	Dirección del viento	1.61
55151	7	Sololá	717	San Juan la Laguna	12	San Juan la Laguna	5	Mayo	2023-05-21T00:00:00	2024-11-08T15:00:00	1	Precipitación	0
55152	7	Sololá	717	San Juan la Laguna	12	San Juan la Laguna	5	Mayo	2023-05-21T00:00:00	2024-11-08T15:00:00	8	Radiación solar	295
55153	7	Sololá	717	San Juan la Laguna	12	San Juan la Laguna	5	Mayo	2023-05-21T00:00:00	2024-11-08T16:00:00	2	Temperatura media	22.4
55154	7	Sololá	717	San Juan la Laguna	12	San Juan la Laguna	5	Mayo	2023-05-21T00:00:00	2024-11-08T16:00:00	4	Temperatura máxima	24.6
55155	7	Sololá	717	San Juan la Laguna	12	San Juan la Laguna	5	Mayo	2023-05-21T00:00:00	2024-11-08T16:00:00	3	Temperatura mínima	22.3
55156	7	Sololá	717	San Juan la Laguna	12	San Juan la Laguna	5	Mayo	2023-05-21T00:00:00	2024-11-08T16:00:00	5	Humedad	71
55157	7	Sololá	717	San Juan la Laguna	12	San Juan la Laguna	5	Mayo	2023-05-21T00:00:00	2024-11-08T16:00:00	6	Velocidad del viento	3.2
55158	7	Sololá	717	San Juan la Laguna	12	San Juan la Laguna	5	Mayo	2023-05-21T00:00:00	2024-11-08T16:00:00	7	Dirección del viento	3.22
55159	7	Sololá	717	San Juan la Laguna	12	San Juan la Laguna	5	Mayo	2023-05-21T00:00:00	2024-11-08T16:00:00	1	Precipitación	0
55160	7	Sololá	717	San Juan la Laguna	12	San Juan la Laguna	5	Mayo	2023-05-21T00:00:00	2024-11-08T16:00:00	8	Radiación solar	280
55161	7	Sololá	717	San Juan la Laguna	12	San Juan la Laguna	5	Mayo	2023-05-21T00:00:00	2024-11-08T17:00:00	2	Temperatura media	21.2
55162	7	Sololá	717	San Juan la Laguna	12	San Juan la Laguna	5	Mayo	2023-05-21T00:00:00	2024-11-08T17:00:00	4	Temperatura máxima	22.9
55163	7	Sololá	717	San Juan la Laguna	12	San Juan la Laguna	5	Mayo	2023-05-21T00:00:00	2024-11-08T17:00:00	3	Temperatura mínima	21.2
55164	7	Sololá	717	San Juan la Laguna	12	San Juan la Laguna	5	Mayo	2023-05-21T00:00:00	2024-11-08T17:00:00	5	Humedad	78
55165	7	Sololá	717	San Juan la Laguna	12	San Juan la Laguna	5	Mayo	2023-05-21T00:00:00	2024-11-08T17:00:00	6	Velocidad del viento	3.2
55166	7	Sololá	717	San Juan la Laguna	12	San Juan la Laguna	5	Mayo	2023-05-21T00:00:00	2024-11-08T17:00:00	7	Dirección del viento	3.22
55167	7	Sololá	717	San Juan la Laguna	12	San Juan la Laguna	5	Mayo	2023-05-21T00:00:00	2024-11-08T17:00:00	1	Precipitación	0
55168	7	Sololá	717	San Juan la Laguna	12	San Juan la Laguna	5	Mayo	2023-05-21T00:00:00	2024-11-08T17:00:00	8	Radiación solar	173
55169	7	Sololá	717	San Juan la Laguna	12	San Juan la Laguna	5	Mayo	2023-05-21T00:00:00	2024-11-08T18:00:00	2	Temperatura media	20.7
55170	7	Sololá	717	San Juan la Laguna	12	San Juan la Laguna	5	Mayo	2023-05-21T00:00:00	2024-11-08T18:00:00	4	Temperatura máxima	21.3
55171	7	Sololá	717	San Juan la Laguna	12	San Juan la Laguna	5	Mayo	2023-05-21T00:00:00	2024-11-08T18:00:00	3	Temperatura mínima	20.4
55172	7	Sololá	717	San Juan la Laguna	12	San Juan la Laguna	5	Mayo	2023-05-21T00:00:00	2024-11-08T18:00:00	5	Humedad	80
55173	7	Sololá	717	San Juan la Laguna	12	San Juan la Laguna	5	Mayo	2023-05-21T00:00:00	2024-11-08T18:00:00	6	Velocidad del viento	3.2
55174	7	Sololá	717	San Juan la Laguna	12	San Juan la Laguna	5	Mayo	2023-05-21T00:00:00	2024-11-08T18:00:00	7	Dirección del viento	3.22
55175	7	Sololá	717	San Juan la Laguna	12	San Juan la Laguna	5	Mayo	2023-05-21T00:00:00	2024-11-08T18:00:00	1	Precipitación	0
55176	7	Sololá	717	San Juan la Laguna	12	San Juan la Laguna	5	Mayo	2023-05-21T00:00:00	2024-11-08T18:00:00	8	Radiación solar	56
55177	7	Sololá	717	San Juan la Laguna	12	San Juan la Laguna	5	Mayo	2023-05-21T00:00:00	2024-11-08T19:00:00	2	Temperatura media	19.4
55178	7	Sololá	717	San Juan la Laguna	12	San Juan la Laguna	5	Mayo	2023-05-21T00:00:00	2024-11-08T19:00:00	4	Temperatura máxima	20.8
55179	7	Sololá	717	San Juan la Laguna	12	San Juan la Laguna	5	Mayo	2023-05-21T00:00:00	2024-11-08T19:00:00	3	Temperatura mínima	19.4
55180	7	Sololá	717	San Juan la Laguna	12	San Juan la Laguna	5	Mayo	2023-05-21T00:00:00	2024-11-08T19:00:00	5	Humedad	84
55181	7	Sololá	717	San Juan la Laguna	12	San Juan la Laguna	5	Mayo	2023-05-21T00:00:00	2024-11-08T19:00:00	6	Velocidad del viento	0
55182	7	Sololá	717	San Juan la Laguna	12	San Juan la Laguna	5	Mayo	2023-05-21T00:00:00	2024-11-08T19:00:00	7	Dirección del viento	0
55183	7	Sololá	717	San Juan la Laguna	12	San Juan la Laguna	5	Mayo	2023-05-21T00:00:00	2024-11-08T19:00:00	1	Precipitación	0
55184	7	Sololá	717	San Juan la Laguna	12	San Juan la Laguna	5	Mayo	2023-05-21T00:00:00	2024-11-08T19:00:00	8	Radiación solar	0
55185	7	Sololá	717	San Juan la Laguna	12	San Juan la Laguna	5	Mayo	2023-05-21T00:00:00	2024-11-08T20:00:00	2	Temperatura media	19.2
55186	7	Sololá	717	San Juan la Laguna	12	San Juan la Laguna	5	Mayo	2023-05-21T00:00:00	2024-11-08T20:00:00	4	Temperatura máxima	19.4
55187	7	Sololá	717	San Juan la Laguna	12	San Juan la Laguna	5	Mayo	2023-05-21T00:00:00	2024-11-08T20:00:00	3	Temperatura mínima	19
55188	7	Sololá	717	San Juan la Laguna	12	San Juan la Laguna	5	Mayo	2023-05-21T00:00:00	2024-11-08T20:00:00	5	Humedad	86
55189	7	Sololá	717	San Juan la Laguna	12	San Juan la Laguna	5	Mayo	2023-05-21T00:00:00	2024-11-08T20:00:00	6	Velocidad del viento	0
55190	7	Sololá	717	San Juan la Laguna	12	San Juan la Laguna	5	Mayo	2023-05-21T00:00:00	2024-11-08T20:00:00	7	Dirección del viento	0
55191	7	Sololá	717	San Juan la Laguna	12	San Juan la Laguna	5	Mayo	2023-05-21T00:00:00	2024-11-08T20:00:00	1	Precipitación	0
55192	7	Sololá	717	San Juan la Laguna	12	San Juan la Laguna	5	Mayo	2023-05-21T00:00:00	2024-11-08T20:00:00	8	Radiación solar	0
55193	7	Sololá	717	San Juan la Laguna	12	San Juan la Laguna	5	Mayo	2023-05-21T00:00:00	2024-11-08T21:00:00	2	Temperatura media	18.9
55194	7	Sololá	717	San Juan la Laguna	12	San Juan la Laguna	5	Mayo	2023-05-21T00:00:00	2024-11-08T21:00:00	4	Temperatura máxima	19.3
55195	7	Sololá	717	San Juan la Laguna	12	San Juan la Laguna	5	Mayo	2023-05-21T00:00:00	2024-11-08T21:00:00	3	Temperatura mínima	18.8
55196	7	Sololá	717	San Juan la Laguna	12	San Juan la Laguna	5	Mayo	2023-05-21T00:00:00	2024-11-08T21:00:00	5	Humedad	86
55197	7	Sololá	717	San Juan la Laguna	12	San Juan la Laguna	5	Mayo	2023-05-21T00:00:00	2024-11-08T21:00:00	6	Velocidad del viento	0
55198	7	Sololá	717	San Juan la Laguna	12	San Juan la Laguna	5	Mayo	2023-05-21T00:00:00	2024-11-08T21:00:00	7	Dirección del viento	0
55199	7	Sololá	717	San Juan la Laguna	12	San Juan la Laguna	5	Mayo	2023-05-21T00:00:00	2024-11-08T21:00:00	1	Precipitación	0
55200	7	Sololá	717	San Juan la Laguna	12	San Juan la Laguna	5	Mayo	2023-05-21T00:00:00	2024-11-08T21:00:00	8	Radiación solar	0
55201	7	Sololá	717	San Juan la Laguna	12	San Juan la Laguna	5	Mayo	2023-05-21T00:00:00	2024-11-08T22:00:00	2	Temperatura media	19.1
55202	7	Sololá	717	San Juan la Laguna	12	San Juan la Laguna	5	Mayo	2023-05-21T00:00:00	2024-11-08T22:00:00	4	Temperatura máxima	19.2
55203	7	Sololá	717	San Juan la Laguna	12	San Juan la Laguna	5	Mayo	2023-05-21T00:00:00	2024-11-08T22:00:00	3	Temperatura mínima	18.9
55204	7	Sololá	717	San Juan la Laguna	12	San Juan la Laguna	5	Mayo	2023-05-21T00:00:00	2024-11-08T22:00:00	5	Humedad	82
55205	7	Sololá	717	San Juan la Laguna	12	San Juan la Laguna	5	Mayo	2023-05-21T00:00:00	2024-11-08T22:00:00	6	Velocidad del viento	1.6
55206	7	Sololá	717	San Juan la Laguna	12	San Juan la Laguna	5	Mayo	2023-05-21T00:00:00	2024-11-08T22:00:00	7	Dirección del viento	1.61
55207	7	Sololá	717	San Juan la Laguna	12	San Juan la Laguna	5	Mayo	2023-05-21T00:00:00	2024-11-08T22:00:00	1	Precipitación	0
55208	7	Sololá	717	San Juan la Laguna	12	San Juan la Laguna	5	Mayo	2023-05-21T00:00:00	2024-11-08T22:00:00	8	Radiación solar	0
55209	7	Sololá	717	San Juan la Laguna	12	San Juan la Laguna	5	Mayo	2023-05-21T00:00:00	2024-11-08T23:00:00	2	Temperatura media	17.8
55210	7	Sololá	717	San Juan la Laguna	12	San Juan la Laguna	5	Mayo	2023-05-21T00:00:00	2024-11-08T23:00:00	4	Temperatura máxima	19.2
55211	7	Sololá	717	San Juan la Laguna	12	San Juan la Laguna	5	Mayo	2023-05-21T00:00:00	2024-11-08T23:00:00	3	Temperatura mínima	17.8
55212	7	Sololá	717	San Juan la Laguna	12	San Juan la Laguna	5	Mayo	2023-05-21T00:00:00	2024-11-08T23:00:00	5	Humedad	85
55213	7	Sololá	717	San Juan la Laguna	12	San Juan la Laguna	5	Mayo	2023-05-21T00:00:00	2024-11-08T23:00:00	6	Velocidad del viento	0
55214	7	Sololá	717	San Juan la Laguna	12	San Juan la Laguna	5	Mayo	2023-05-21T00:00:00	2024-11-08T23:00:00	7	Dirección del viento	0
55215	7	Sololá	717	San Juan la Laguna	12	San Juan la Laguna	5	Mayo	2023-05-21T00:00:00	2024-11-08T23:00:00	1	Precipitación	0
55216	7	Sololá	717	San Juan la Laguna	12	San Juan la Laguna	5	Mayo	2023-05-21T00:00:00	2024-11-08T23:00:00	8	Radiación solar	0
55217	7	Sololá	717	San Juan la Laguna	12	San Juan la Laguna	5	Mayo	2023-05-22T00:00:00	2024-11-08T00:00:00	2	Temperatura media	17.8
55218	7	Sololá	717	San Juan la Laguna	12	San Juan la Laguna	5	Mayo	2023-05-22T00:00:00	2024-11-08T00:00:00	4	Temperatura máxima	18.3
55219	7	Sololá	717	San Juan la Laguna	12	San Juan la Laguna	5	Mayo	2023-05-22T00:00:00	2024-11-08T00:00:00	3	Temperatura mínima	17.8
55220	7	Sololá	717	San Juan la Laguna	12	San Juan la Laguna	5	Mayo	2023-05-22T00:00:00	2024-11-08T00:00:00	5	Humedad	83
55221	7	Sololá	717	San Juan la Laguna	12	San Juan la Laguna	5	Mayo	2023-05-22T00:00:00	2024-11-08T00:00:00	6	Velocidad del viento	0
55222	7	Sololá	717	San Juan la Laguna	12	San Juan la Laguna	5	Mayo	2023-05-22T00:00:00	2024-11-08T00:00:00	7	Dirección del viento	0
55223	7	Sololá	717	San Juan la Laguna	12	San Juan la Laguna	5	Mayo	2023-05-22T00:00:00	2024-11-08T00:00:00	1	Precipitación	0
55224	7	Sololá	717	San Juan la Laguna	12	San Juan la Laguna	5	Mayo	2023-05-22T00:00:00	2024-11-08T00:00:00	8	Radiación solar	0
55225	7	Sololá	717	San Juan la Laguna	12	San Juan la Laguna	5	Mayo	2023-05-22T00:00:00	2024-11-08T01:00:00	2	Temperatura media	17
55226	7	Sololá	717	San Juan la Laguna	12	San Juan la Laguna	5	Mayo	2023-05-22T00:00:00	2024-11-08T01:00:00	4	Temperatura máxima	17.8
55227	7	Sololá	717	San Juan la Laguna	12	San Juan la Laguna	5	Mayo	2023-05-22T00:00:00	2024-11-08T01:00:00	3	Temperatura mínima	17
55228	7	Sololá	717	San Juan la Laguna	12	San Juan la Laguna	5	Mayo	2023-05-22T00:00:00	2024-11-08T01:00:00	5	Humedad	83
55229	7	Sololá	717	San Juan la Laguna	12	San Juan la Laguna	5	Mayo	2023-05-22T00:00:00	2024-11-08T01:00:00	6	Velocidad del viento	1.6
55230	7	Sololá	717	San Juan la Laguna	12	San Juan la Laguna	5	Mayo	2023-05-22T00:00:00	2024-11-08T01:00:00	7	Dirección del viento	1.61
55231	7	Sololá	717	San Juan la Laguna	12	San Juan la Laguna	5	Mayo	2023-05-22T00:00:00	2024-11-08T01:00:00	1	Precipitación	0
55232	7	Sololá	717	San Juan la Laguna	12	San Juan la Laguna	5	Mayo	2023-05-22T00:00:00	2024-11-08T01:00:00	8	Radiación solar	0
55233	7	Sololá	717	San Juan la Laguna	12	San Juan la Laguna	5	Mayo	2023-05-22T00:00:00	2024-11-08T02:00:00	2	Temperatura media	17.4
55234	7	Sololá	717	San Juan la Laguna	12	San Juan la Laguna	5	Mayo	2023-05-22T00:00:00	2024-11-08T02:00:00	4	Temperatura máxima	17.4
55235	7	Sololá	717	San Juan la Laguna	12	San Juan la Laguna	5	Mayo	2023-05-22T00:00:00	2024-11-08T02:00:00	3	Temperatura mínima	16.9
55236	7	Sololá	717	San Juan la Laguna	12	San Juan la Laguna	5	Mayo	2023-05-22T00:00:00	2024-11-08T02:00:00	5	Humedad	82
55237	7	Sololá	717	San Juan la Laguna	12	San Juan la Laguna	5	Mayo	2023-05-22T00:00:00	2024-11-08T02:00:00	6	Velocidad del viento	1.6
55238	7	Sololá	717	San Juan la Laguna	12	San Juan la Laguna	5	Mayo	2023-05-22T00:00:00	2024-11-08T02:00:00	7	Dirección del viento	1.61
55239	7	Sololá	717	San Juan la Laguna	12	San Juan la Laguna	5	Mayo	2023-05-22T00:00:00	2024-11-08T02:00:00	1	Precipitación	0
55240	7	Sololá	717	San Juan la Laguna	12	San Juan la Laguna	5	Mayo	2023-05-22T00:00:00	2024-11-08T02:00:00	8	Radiación solar	0
55241	7	Sololá	717	San Juan la Laguna	12	San Juan la Laguna	5	Mayo	2023-05-22T00:00:00	2024-11-08T03:00:00	2	Temperatura media	17.2
55242	7	Sololá	717	San Juan la Laguna	12	San Juan la Laguna	5	Mayo	2023-05-22T00:00:00	2024-11-08T03:00:00	4	Temperatura máxima	17.4
55243	7	Sololá	717	San Juan la Laguna	12	San Juan la Laguna	5	Mayo	2023-05-22T00:00:00	2024-11-08T03:00:00	3	Temperatura mínima	16.8
55244	7	Sololá	717	San Juan la Laguna	12	San Juan la Laguna	5	Mayo	2023-05-22T00:00:00	2024-11-08T03:00:00	5	Humedad	84
55245	7	Sololá	717	San Juan la Laguna	12	San Juan la Laguna	5	Mayo	2023-05-22T00:00:00	2024-11-08T03:00:00	6	Velocidad del viento	0
55246	7	Sololá	717	San Juan la Laguna	12	San Juan la Laguna	5	Mayo	2023-05-22T00:00:00	2024-11-08T03:00:00	7	Dirección del viento	0
55247	7	Sololá	717	San Juan la Laguna	12	San Juan la Laguna	5	Mayo	2023-05-22T00:00:00	2024-11-08T03:00:00	1	Precipitación	0
55248	7	Sololá	717	San Juan la Laguna	12	San Juan la Laguna	5	Mayo	2023-05-22T00:00:00	2024-11-08T03:00:00	8	Radiación solar	0
55249	7	Sololá	717	San Juan la Laguna	12	San Juan la Laguna	5	Mayo	2023-05-22T00:00:00	2024-11-08T04:00:00	2	Temperatura media	17.6
55250	7	Sololá	717	San Juan la Laguna	12	San Juan la Laguna	5	Mayo	2023-05-22T00:00:00	2024-11-08T04:00:00	4	Temperatura máxima	17.6
55251	7	Sololá	717	San Juan la Laguna	12	San Juan la Laguna	5	Mayo	2023-05-22T00:00:00	2024-11-08T04:00:00	3	Temperatura mínima	16.9
55252	7	Sololá	717	San Juan la Laguna	12	San Juan la Laguna	5	Mayo	2023-05-22T00:00:00	2024-11-08T04:00:00	5	Humedad	83
55253	7	Sololá	717	San Juan la Laguna	12	San Juan la Laguna	5	Mayo	2023-05-22T00:00:00	2024-11-08T04:00:00	6	Velocidad del viento	0
55254	7	Sololá	717	San Juan la Laguna	12	San Juan la Laguna	5	Mayo	2023-05-22T00:00:00	2024-11-08T04:00:00	7	Dirección del viento	0
55255	7	Sololá	717	San Juan la Laguna	12	San Juan la Laguna	5	Mayo	2023-05-22T00:00:00	2024-11-08T04:00:00	1	Precipitación	0
55256	7	Sololá	717	San Juan la Laguna	12	San Juan la Laguna	5	Mayo	2023-05-22T00:00:00	2024-11-08T04:00:00	8	Radiación solar	0
55257	7	Sololá	717	San Juan la Laguna	12	San Juan la Laguna	5	Mayo	2023-05-22T00:00:00	2024-11-08T05:00:00	2	Temperatura media	17.6
55258	7	Sololá	717	San Juan la Laguna	12	San Juan la Laguna	5	Mayo	2023-05-22T00:00:00	2024-11-08T05:00:00	4	Temperatura máxima	18.1
55259	7	Sololá	717	San Juan la Laguna	12	San Juan la Laguna	5	Mayo	2023-05-22T00:00:00	2024-11-08T05:00:00	3	Temperatura mínima	17.5
55260	7	Sololá	717	San Juan la Laguna	12	San Juan la Laguna	5	Mayo	2023-05-22T00:00:00	2024-11-08T05:00:00	5	Humedad	85
55261	7	Sololá	717	San Juan la Laguna	12	San Juan la Laguna	5	Mayo	2023-05-22T00:00:00	2024-11-08T05:00:00	6	Velocidad del viento	0
55262	7	Sololá	717	San Juan la Laguna	12	San Juan la Laguna	5	Mayo	2023-05-22T00:00:00	2024-11-08T05:00:00	7	Dirección del viento	0
55263	7	Sololá	717	San Juan la Laguna	12	San Juan la Laguna	5	Mayo	2023-05-22T00:00:00	2024-11-08T05:00:00	1	Precipitación	0
55264	7	Sololá	717	San Juan la Laguna	12	San Juan la Laguna	5	Mayo	2023-05-22T00:00:00	2024-11-08T05:00:00	8	Radiación solar	0
55265	7	Sololá	717	San Juan la Laguna	12	San Juan la Laguna	5	Mayo	2023-05-22T00:00:00	2024-11-08T06:00:00	2	Temperatura media	17.4
55266	7	Sololá	717	San Juan la Laguna	12	San Juan la Laguna	5	Mayo	2023-05-22T00:00:00	2024-11-08T06:00:00	4	Temperatura máxima	17.6
55267	7	Sololá	717	San Juan la Laguna	12	San Juan la Laguna	5	Mayo	2023-05-22T00:00:00	2024-11-08T06:00:00	3	Temperatura mínima	17.3
55268	7	Sololá	717	San Juan la Laguna	12	San Juan la Laguna	5	Mayo	2023-05-22T00:00:00	2024-11-08T06:00:00	5	Humedad	87
55269	7	Sololá	717	San Juan la Laguna	12	San Juan la Laguna	5	Mayo	2023-05-22T00:00:00	2024-11-08T06:00:00	6	Velocidad del viento	0
55270	7	Sololá	717	San Juan la Laguna	12	San Juan la Laguna	5	Mayo	2023-05-22T00:00:00	2024-11-08T06:00:00	7	Dirección del viento	0
55271	7	Sololá	717	San Juan la Laguna	12	San Juan la Laguna	5	Mayo	2023-05-22T00:00:00	2024-11-08T06:00:00	1	Precipitación	0
55272	7	Sololá	717	San Juan la Laguna	12	San Juan la Laguna	5	Mayo	2023-05-22T00:00:00	2024-11-08T06:00:00	8	Radiación solar	2
55273	7	Sololá	717	San Juan la Laguna	12	San Juan la Laguna	5	Mayo	2023-05-22T00:00:00	2024-11-08T07:00:00	2	Temperatura media	18.9
55274	7	Sololá	717	San Juan la Laguna	12	San Juan la Laguna	5	Mayo	2023-05-22T00:00:00	2024-11-08T07:00:00	4	Temperatura máxima	18.9
55275	7	Sololá	717	San Juan la Laguna	12	San Juan la Laguna	5	Mayo	2023-05-22T00:00:00	2024-11-08T07:00:00	3	Temperatura mínima	17.4
55276	7	Sololá	717	San Juan la Laguna	12	San Juan la Laguna	5	Mayo	2023-05-22T00:00:00	2024-11-08T07:00:00	5	Humedad	83
55277	7	Sololá	717	San Juan la Laguna	12	San Juan la Laguna	5	Mayo	2023-05-22T00:00:00	2024-11-08T07:00:00	6	Velocidad del viento	0
55278	7	Sololá	717	San Juan la Laguna	12	San Juan la Laguna	5	Mayo	2023-05-22T00:00:00	2024-11-08T07:00:00	7	Dirección del viento	0
55279	7	Sololá	717	San Juan la Laguna	12	San Juan la Laguna	5	Mayo	2023-05-22T00:00:00	2024-11-08T07:00:00	1	Precipitación	0
55280	7	Sololá	717	San Juan la Laguna	12	San Juan la Laguna	5	Mayo	2023-05-22T00:00:00	2024-11-08T07:00:00	8	Radiación solar	68
55281	7	Sololá	717	San Juan la Laguna	12	San Juan la Laguna	5	Mayo	2023-05-22T00:00:00	2024-11-08T08:00:00	2	Temperatura media	20.3
55282	7	Sololá	717	San Juan la Laguna	12	San Juan la Laguna	5	Mayo	2023-05-22T00:00:00	2024-11-08T08:00:00	4	Temperatura máxima	20.3
55283	7	Sololá	717	San Juan la Laguna	12	San Juan la Laguna	5	Mayo	2023-05-22T00:00:00	2024-11-08T08:00:00	3	Temperatura mínima	18.9
55284	7	Sololá	717	San Juan la Laguna	12	San Juan la Laguna	5	Mayo	2023-05-22T00:00:00	2024-11-08T08:00:00	5	Humedad	78
55285	7	Sololá	717	San Juan la Laguna	12	San Juan la Laguna	5	Mayo	2023-05-22T00:00:00	2024-11-08T08:00:00	6	Velocidad del viento	0
55286	7	Sololá	717	San Juan la Laguna	12	San Juan la Laguna	5	Mayo	2023-05-22T00:00:00	2024-11-08T08:00:00	7	Dirección del viento	0
55287	7	Sololá	717	San Juan la Laguna	12	San Juan la Laguna	5	Mayo	2023-05-22T00:00:00	2024-11-08T08:00:00	1	Precipitación	0
55288	7	Sololá	717	San Juan la Laguna	12	San Juan la Laguna	5	Mayo	2023-05-22T00:00:00	2024-11-08T08:00:00	8	Radiación solar	182
55289	7	Sololá	717	San Juan la Laguna	12	San Juan la Laguna	5	Mayo	2023-05-22T00:00:00	2024-11-08T09:00:00	2	Temperatura media	21.8
55290	7	Sololá	717	San Juan la Laguna	12	San Juan la Laguna	5	Mayo	2023-05-22T00:00:00	2024-11-08T09:00:00	4	Temperatura máxima	21.8
55291	7	Sololá	717	San Juan la Laguna	12	San Juan la Laguna	5	Mayo	2023-05-22T00:00:00	2024-11-08T09:00:00	3	Temperatura mínima	20.3
55292	7	Sololá	717	San Juan la Laguna	12	San Juan la Laguna	5	Mayo	2023-05-22T00:00:00	2024-11-08T09:00:00	5	Humedad	70
55293	7	Sololá	717	San Juan la Laguna	12	San Juan la Laguna	5	Mayo	2023-05-22T00:00:00	2024-11-08T09:00:00	6	Velocidad del viento	0
55294	7	Sololá	717	San Juan la Laguna	12	San Juan la Laguna	5	Mayo	2023-05-22T00:00:00	2024-11-08T09:00:00	7	Dirección del viento	0
55295	7	Sololá	717	San Juan la Laguna	12	San Juan la Laguna	5	Mayo	2023-05-22T00:00:00	2024-11-08T09:00:00	1	Precipitación	0
55296	7	Sololá	717	San Juan la Laguna	12	San Juan la Laguna	5	Mayo	2023-05-22T00:00:00	2024-11-08T09:00:00	8	Radiación solar	321
55297	7	Sololá	717	San Juan la Laguna	12	San Juan la Laguna	5	Mayo	2023-05-22T00:00:00	2024-11-08T10:00:00	2	Temperatura media	23.7
55298	7	Sololá	717	San Juan la Laguna	12	San Juan la Laguna	5	Mayo	2023-05-22T00:00:00	2024-11-08T10:00:00	4	Temperatura máxima	23.7
55299	7	Sololá	717	San Juan la Laguna	12	San Juan la Laguna	5	Mayo	2023-05-22T00:00:00	2024-11-08T10:00:00	3	Temperatura mínima	21.7
55300	7	Sololá	717	San Juan la Laguna	12	San Juan la Laguna	5	Mayo	2023-05-22T00:00:00	2024-11-08T10:00:00	5	Humedad	62
55301	7	Sololá	717	San Juan la Laguna	12	San Juan la Laguna	5	Mayo	2023-05-22T00:00:00	2024-11-08T10:00:00	6	Velocidad del viento	1.6
55302	7	Sololá	717	San Juan la Laguna	12	San Juan la Laguna	5	Mayo	2023-05-22T00:00:00	2024-11-08T10:00:00	7	Dirección del viento	1.61
55303	7	Sololá	717	San Juan la Laguna	12	San Juan la Laguna	5	Mayo	2023-05-22T00:00:00	2024-11-08T10:00:00	1	Precipitación	0
55304	7	Sololá	717	San Juan la Laguna	12	San Juan la Laguna	5	Mayo	2023-05-22T00:00:00	2024-11-08T10:00:00	8	Radiación solar	529
55305	7	Sololá	717	San Juan la Laguna	12	San Juan la Laguna	5	Mayo	2023-05-22T00:00:00	2024-11-08T11:00:00	2	Temperatura media	24.7
55306	7	Sololá	717	San Juan la Laguna	12	San Juan la Laguna	5	Mayo	2023-05-22T00:00:00	2024-11-08T11:00:00	4	Temperatura máxima	24.7
55307	7	Sololá	717	San Juan la Laguna	12	San Juan la Laguna	5	Mayo	2023-05-22T00:00:00	2024-11-08T11:00:00	3	Temperatura mínima	23.4
55308	7	Sololá	717	San Juan la Laguna	12	San Juan la Laguna	5	Mayo	2023-05-22T00:00:00	2024-11-08T11:00:00	5	Humedad	60
55309	7	Sololá	717	San Juan la Laguna	12	San Juan la Laguna	5	Mayo	2023-05-22T00:00:00	2024-11-08T11:00:00	6	Velocidad del viento	1.6
55310	7	Sololá	717	San Juan la Laguna	12	San Juan la Laguna	5	Mayo	2023-05-22T00:00:00	2024-11-08T11:00:00	7	Dirección del viento	1.61
55311	7	Sololá	717	San Juan la Laguna	12	San Juan la Laguna	5	Mayo	2023-05-22T00:00:00	2024-11-08T11:00:00	1	Precipitación	0
55312	7	Sololá	717	San Juan la Laguna	12	San Juan la Laguna	5	Mayo	2023-05-22T00:00:00	2024-11-08T11:00:00	8	Radiación solar	889
55313	7	Sololá	717	San Juan la Laguna	12	San Juan la Laguna	5	Mayo	2023-05-22T00:00:00	2024-11-08T12:00:00	2	Temperatura media	22.7
55314	7	Sololá	717	San Juan la Laguna	12	San Juan la Laguna	5	Mayo	2023-05-22T00:00:00	2024-11-08T12:00:00	4	Temperatura máxima	25.6
55315	7	Sololá	717	San Juan la Laguna	12	San Juan la Laguna	5	Mayo	2023-05-22T00:00:00	2024-11-08T12:00:00	3	Temperatura mínima	22.7
55316	7	Sololá	717	San Juan la Laguna	12	San Juan la Laguna	5	Mayo	2023-05-22T00:00:00	2024-11-08T12:00:00	5	Humedad	74
55317	7	Sololá	717	San Juan la Laguna	12	San Juan la Laguna	5	Mayo	2023-05-22T00:00:00	2024-11-08T12:00:00	6	Velocidad del viento	4.8
55318	7	Sololá	717	San Juan la Laguna	12	San Juan la Laguna	5	Mayo	2023-05-22T00:00:00	2024-11-08T12:00:00	7	Dirección del viento	4.83
55319	7	Sololá	717	San Juan la Laguna	12	San Juan la Laguna	5	Mayo	2023-05-22T00:00:00	2024-11-08T12:00:00	1	Precipitación	0
55320	7	Sololá	717	San Juan la Laguna	12	San Juan la Laguna	5	Mayo	2023-05-22T00:00:00	2024-11-08T12:00:00	8	Radiación solar	422
55321	7	Sololá	717	San Juan la Laguna	12	San Juan la Laguna	5	Mayo	2023-05-22T00:00:00	2024-11-08T13:00:00	2	Temperatura media	24.2
55322	7	Sololá	717	San Juan la Laguna	12	San Juan la Laguna	5	Mayo	2023-05-22T00:00:00	2024-11-08T13:00:00	4	Temperatura máxima	24.3
55323	7	Sololá	717	San Juan la Laguna	12	San Juan la Laguna	5	Mayo	2023-05-22T00:00:00	2024-11-08T13:00:00	3	Temperatura mínima	21.9
55324	7	Sololá	717	San Juan la Laguna	12	San Juan la Laguna	5	Mayo	2023-05-22T00:00:00	2024-11-08T13:00:00	5	Humedad	64
55325	7	Sololá	717	San Juan la Laguna	12	San Juan la Laguna	5	Mayo	2023-05-22T00:00:00	2024-11-08T13:00:00	6	Velocidad del viento	6.4
55326	7	Sololá	717	San Juan la Laguna	12	San Juan la Laguna	5	Mayo	2023-05-22T00:00:00	2024-11-08T13:00:00	7	Dirección del viento	6.44
55327	7	Sololá	717	San Juan la Laguna	12	San Juan la Laguna	5	Mayo	2023-05-22T00:00:00	2024-11-08T13:00:00	1	Precipitación	0
55328	7	Sololá	717	San Juan la Laguna	12	San Juan la Laguna	5	Mayo	2023-05-22T00:00:00	2024-11-08T13:00:00	8	Radiación solar	565
55329	7	Sololá	717	San Juan la Laguna	12	San Juan la Laguna	5	Mayo	2023-05-22T00:00:00	2024-11-08T14:00:00	2	Temperatura media	22.5
55330	7	Sololá	717	San Juan la Laguna	12	San Juan la Laguna	5	Mayo	2023-05-22T00:00:00	2024-11-08T14:00:00	4	Temperatura máxima	24.8
55331	7	Sololá	717	San Juan la Laguna	12	San Juan la Laguna	5	Mayo	2023-05-22T00:00:00	2024-11-08T14:00:00	3	Temperatura mínima	22
55332	7	Sololá	717	San Juan la Laguna	12	San Juan la Laguna	5	Mayo	2023-05-22T00:00:00	2024-11-08T14:00:00	5	Humedad	71
55333	7	Sololá	717	San Juan la Laguna	12	San Juan la Laguna	5	Mayo	2023-05-22T00:00:00	2024-11-08T14:00:00	6	Velocidad del viento	4.8
55334	7	Sololá	717	San Juan la Laguna	12	San Juan la Laguna	5	Mayo	2023-05-22T00:00:00	2024-11-08T14:00:00	7	Dirección del viento	4.83
55335	7	Sololá	717	San Juan la Laguna	12	San Juan la Laguna	5	Mayo	2023-05-22T00:00:00	2024-11-08T14:00:00	1	Precipitación	0
55336	7	Sololá	717	San Juan la Laguna	12	San Juan la Laguna	5	Mayo	2023-05-22T00:00:00	2024-11-08T14:00:00	8	Radiación solar	356
55337	7	Sololá	717	San Juan la Laguna	12	San Juan la Laguna	5	Mayo	2023-05-22T00:00:00	2024-11-08T15:00:00	2	Temperatura media	23.1
55338	7	Sololá	717	San Juan la Laguna	12	San Juan la Laguna	5	Mayo	2023-05-22T00:00:00	2024-11-08T15:00:00	4	Temperatura máxima	23.2
55339	7	Sololá	717	San Juan la Laguna	12	San Juan la Laguna	5	Mayo	2023-05-22T00:00:00	2024-11-08T15:00:00	3	Temperatura mínima	22.5
55340	7	Sololá	717	San Juan la Laguna	12	San Juan la Laguna	5	Mayo	2023-05-22T00:00:00	2024-11-08T15:00:00	5	Humedad	69
55341	7	Sololá	717	San Juan la Laguna	12	San Juan la Laguna	5	Mayo	2023-05-22T00:00:00	2024-11-08T15:00:00	6	Velocidad del viento	6.4
55342	7	Sololá	717	San Juan la Laguna	12	San Juan la Laguna	5	Mayo	2023-05-22T00:00:00	2024-11-08T15:00:00	7	Dirección del viento	6.44
55343	7	Sololá	717	San Juan la Laguna	12	San Juan la Laguna	5	Mayo	2023-05-22T00:00:00	2024-11-08T15:00:00	1	Precipitación	0
55344	7	Sololá	717	San Juan la Laguna	12	San Juan la Laguna	5	Mayo	2023-05-22T00:00:00	2024-11-08T15:00:00	8	Radiación solar	358
55345	7	Sololá	717	San Juan la Laguna	12	San Juan la Laguna	5	Mayo	2023-05-22T00:00:00	2024-11-08T16:00:00	2	Temperatura media	22.6
55346	7	Sololá	717	San Juan la Laguna	12	San Juan la Laguna	5	Mayo	2023-05-22T00:00:00	2024-11-08T16:00:00	4	Temperatura máxima	23.3
55347	7	Sololá	717	San Juan la Laguna	12	San Juan la Laguna	5	Mayo	2023-05-22T00:00:00	2024-11-08T16:00:00	3	Temperatura mínima	22.6
55348	7	Sololá	717	San Juan la Laguna	12	San Juan la Laguna	5	Mayo	2023-05-22T00:00:00	2024-11-08T16:00:00	5	Humedad	72
55349	7	Sololá	717	San Juan la Laguna	12	San Juan la Laguna	5	Mayo	2023-05-22T00:00:00	2024-11-08T16:00:00	6	Velocidad del viento	4.8
55350	7	Sololá	717	San Juan la Laguna	12	San Juan la Laguna	5	Mayo	2023-05-22T00:00:00	2024-11-08T16:00:00	7	Dirección del viento	4.83
55351	7	Sololá	717	San Juan la Laguna	12	San Juan la Laguna	5	Mayo	2023-05-22T00:00:00	2024-11-08T16:00:00	1	Precipitación	0
55352	7	Sololá	717	San Juan la Laguna	12	San Juan la Laguna	5	Mayo	2023-05-22T00:00:00	2024-11-08T16:00:00	8	Radiación solar	306
55353	7	Sololá	717	San Juan la Laguna	12	San Juan la Laguna	5	Mayo	2023-05-22T00:00:00	2024-11-08T17:00:00	2	Temperatura media	22.7
55354	7	Sololá	717	San Juan la Laguna	12	San Juan la Laguna	5	Mayo	2023-05-22T00:00:00	2024-11-08T17:00:00	4	Temperatura máxima	23.1
55355	7	Sololá	717	San Juan la Laguna	12	San Juan la Laguna	5	Mayo	2023-05-22T00:00:00	2024-11-08T17:00:00	3	Temperatura mínima	22.6
55356	7	Sololá	717	San Juan la Laguna	12	San Juan la Laguna	5	Mayo	2023-05-22T00:00:00	2024-11-08T17:00:00	5	Humedad	72
55357	7	Sololá	717	San Juan la Laguna	12	San Juan la Laguna	5	Mayo	2023-05-22T00:00:00	2024-11-08T17:00:00	6	Velocidad del viento	1.6
55358	7	Sololá	717	San Juan la Laguna	12	San Juan la Laguna	5	Mayo	2023-05-22T00:00:00	2024-11-08T17:00:00	7	Dirección del viento	1.61
55359	7	Sololá	717	San Juan la Laguna	12	San Juan la Laguna	5	Mayo	2023-05-22T00:00:00	2024-11-08T17:00:00	1	Precipitación	0
55360	7	Sololá	717	San Juan la Laguna	12	San Juan la Laguna	5	Mayo	2023-05-22T00:00:00	2024-11-08T17:00:00	8	Radiación solar	147
55361	7	Sololá	717	San Juan la Laguna	12	San Juan la Laguna	5	Mayo	2023-05-22T00:00:00	2024-11-08T18:00:00	2	Temperatura media	22.2
55362	7	Sololá	717	San Juan la Laguna	12	San Juan la Laguna	5	Mayo	2023-05-22T00:00:00	2024-11-08T18:00:00	4	Temperatura máxima	22.8
55363	7	Sololá	717	San Juan la Laguna	12	San Juan la Laguna	5	Mayo	2023-05-22T00:00:00	2024-11-08T18:00:00	3	Temperatura mínima	22.2
55364	7	Sololá	717	San Juan la Laguna	12	San Juan la Laguna	5	Mayo	2023-05-22T00:00:00	2024-11-08T18:00:00	5	Humedad	74
55365	7	Sololá	717	San Juan la Laguna	12	San Juan la Laguna	5	Mayo	2023-05-22T00:00:00	2024-11-08T18:00:00	6	Velocidad del viento	0
55366	7	Sololá	717	San Juan la Laguna	12	San Juan la Laguna	5	Mayo	2023-05-22T00:00:00	2024-11-08T18:00:00	7	Dirección del viento	0
55367	7	Sololá	717	San Juan la Laguna	12	San Juan la Laguna	5	Mayo	2023-05-22T00:00:00	2024-11-08T18:00:00	1	Precipitación	0
55368	7	Sololá	717	San Juan la Laguna	12	San Juan la Laguna	5	Mayo	2023-05-22T00:00:00	2024-11-08T18:00:00	8	Radiación solar	71
55369	7	Sololá	717	San Juan la Laguna	12	San Juan la Laguna	5	Mayo	2023-05-22T00:00:00	2024-11-08T19:00:00	2	Temperatura media	21.1
55370	7	Sololá	717	San Juan la Laguna	12	San Juan la Laguna	5	Mayo	2023-05-22T00:00:00	2024-11-08T19:00:00	4	Temperatura máxima	22.3
55371	7	Sololá	717	San Juan la Laguna	12	San Juan la Laguna	5	Mayo	2023-05-22T00:00:00	2024-11-08T19:00:00	3	Temperatura mínima	21.1
55372	7	Sololá	717	San Juan la Laguna	12	San Juan la Laguna	5	Mayo	2023-05-22T00:00:00	2024-11-08T19:00:00	5	Humedad	82
55373	7	Sololá	717	San Juan la Laguna	12	San Juan la Laguna	5	Mayo	2023-05-22T00:00:00	2024-11-08T19:00:00	6	Velocidad del viento	0
55374	7	Sololá	717	San Juan la Laguna	12	San Juan la Laguna	5	Mayo	2023-05-22T00:00:00	2024-11-08T19:00:00	7	Dirección del viento	0
55375	7	Sololá	717	San Juan la Laguna	12	San Juan la Laguna	5	Mayo	2023-05-22T00:00:00	2024-11-08T19:00:00	1	Precipitación	0
55376	7	Sololá	717	San Juan la Laguna	12	San Juan la Laguna	5	Mayo	2023-05-22T00:00:00	2024-11-08T19:00:00	8	Radiación solar	0
55377	7	Sololá	717	San Juan la Laguna	12	San Juan la Laguna	5	Mayo	2023-05-22T00:00:00	2024-11-08T20:00:00	2	Temperatura media	20.7
55378	7	Sololá	717	San Juan la Laguna	12	San Juan la Laguna	5	Mayo	2023-05-22T00:00:00	2024-11-08T20:00:00	4	Temperatura máxima	21.1
55379	7	Sololá	717	San Juan la Laguna	12	San Juan la Laguna	5	Mayo	2023-05-22T00:00:00	2024-11-08T20:00:00	3	Temperatura mínima	20.6
55380	7	Sololá	717	San Juan la Laguna	12	San Juan la Laguna	5	Mayo	2023-05-22T00:00:00	2024-11-08T20:00:00	5	Humedad	85
55381	7	Sololá	717	San Juan la Laguna	12	San Juan la Laguna	5	Mayo	2023-05-22T00:00:00	2024-11-08T20:00:00	6	Velocidad del viento	0
55382	7	Sololá	717	San Juan la Laguna	12	San Juan la Laguna	5	Mayo	2023-05-22T00:00:00	2024-11-08T20:00:00	7	Dirección del viento	0
55383	7	Sololá	717	San Juan la Laguna	12	San Juan la Laguna	5	Mayo	2023-05-22T00:00:00	2024-11-08T20:00:00	1	Precipitación	0
55384	7	Sololá	717	San Juan la Laguna	12	San Juan la Laguna	5	Mayo	2023-05-22T00:00:00	2024-11-08T20:00:00	8	Radiación solar	0
55385	7	Sololá	717	San Juan la Laguna	12	San Juan la Laguna	5	Mayo	2023-05-22T00:00:00	2024-11-08T21:00:00	2	Temperatura media	20.3
55386	7	Sololá	717	San Juan la Laguna	12	San Juan la Laguna	5	Mayo	2023-05-22T00:00:00	2024-11-08T21:00:00	4	Temperatura máxima	20.8
55387	7	Sololá	717	San Juan la Laguna	12	San Juan la Laguna	5	Mayo	2023-05-22T00:00:00	2024-11-08T21:00:00	3	Temperatura mínima	20.3
55388	7	Sololá	717	San Juan la Laguna	12	San Juan la Laguna	5	Mayo	2023-05-22T00:00:00	2024-11-08T21:00:00	5	Humedad	84
55389	7	Sololá	717	San Juan la Laguna	12	San Juan la Laguna	5	Mayo	2023-05-22T00:00:00	2024-11-08T21:00:00	6	Velocidad del viento	0
55390	7	Sololá	717	San Juan la Laguna	12	San Juan la Laguna	5	Mayo	2023-05-22T00:00:00	2024-11-08T21:00:00	7	Dirección del viento	0
55391	7	Sololá	717	San Juan la Laguna	12	San Juan la Laguna	5	Mayo	2023-05-22T00:00:00	2024-11-08T21:00:00	1	Precipitación	0
55392	7	Sololá	717	San Juan la Laguna	12	San Juan la Laguna	5	Mayo	2023-05-22T00:00:00	2024-11-08T21:00:00	8	Radiación solar	0
55393	7	Sololá	717	San Juan la Laguna	12	San Juan la Laguna	5	Mayo	2023-05-22T00:00:00	2024-11-08T22:00:00	2	Temperatura media	19.8
55394	7	Sololá	717	San Juan la Laguna	12	San Juan la Laguna	5	Mayo	2023-05-22T00:00:00	2024-11-08T22:00:00	4	Temperatura máxima	20.3
55395	7	Sololá	717	San Juan la Laguna	12	San Juan la Laguna	5	Mayo	2023-05-22T00:00:00	2024-11-08T22:00:00	3	Temperatura mínima	19.8
55396	7	Sololá	717	San Juan la Laguna	12	San Juan la Laguna	5	Mayo	2023-05-22T00:00:00	2024-11-08T22:00:00	5	Humedad	87
55397	7	Sololá	717	San Juan la Laguna	12	San Juan la Laguna	5	Mayo	2023-05-22T00:00:00	2024-11-08T22:00:00	6	Velocidad del viento	0
55398	7	Sololá	717	San Juan la Laguna	12	San Juan la Laguna	5	Mayo	2023-05-22T00:00:00	2024-11-08T22:00:00	7	Dirección del viento	0
55399	7	Sololá	717	San Juan la Laguna	12	San Juan la Laguna	5	Mayo	2023-05-22T00:00:00	2024-11-08T22:00:00	1	Precipitación	0
55400	7	Sololá	717	San Juan la Laguna	12	San Juan la Laguna	5	Mayo	2023-05-22T00:00:00	2024-11-08T22:00:00	8	Radiación solar	0
55401	7	Sololá	717	San Juan la Laguna	12	San Juan la Laguna	5	Mayo	2023-05-22T00:00:00	2024-11-08T23:00:00	2	Temperatura media	18.8
55402	7	Sololá	717	San Juan la Laguna	12	San Juan la Laguna	5	Mayo	2023-05-22T00:00:00	2024-11-08T23:00:00	4	Temperatura máxima	19.8
55403	7	Sololá	717	San Juan la Laguna	12	San Juan la Laguna	5	Mayo	2023-05-22T00:00:00	2024-11-08T23:00:00	3	Temperatura mínima	18.8
55404	7	Sololá	717	San Juan la Laguna	12	San Juan la Laguna	5	Mayo	2023-05-22T00:00:00	2024-11-08T23:00:00	5	Humedad	90
55405	7	Sololá	717	San Juan la Laguna	12	San Juan la Laguna	5	Mayo	2023-05-22T00:00:00	2024-11-08T23:00:00	6	Velocidad del viento	0
55406	7	Sololá	717	San Juan la Laguna	12	San Juan la Laguna	5	Mayo	2023-05-22T00:00:00	2024-11-08T23:00:00	7	Dirección del viento	0
55407	7	Sololá	717	San Juan la Laguna	12	San Juan la Laguna	5	Mayo	2023-05-22T00:00:00	2024-11-08T23:00:00	1	Precipitación	0
55408	7	Sololá	717	San Juan la Laguna	12	San Juan la Laguna	5	Mayo	2023-05-22T00:00:00	2024-11-08T23:00:00	8	Radiación solar	0
55409	7	Sololá	717	San Juan la Laguna	12	San Juan la Laguna	5	Mayo	2023-05-23T00:00:00	2024-11-08T00:00:00	2	Temperatura media	18.4
55410	7	Sololá	717	San Juan la Laguna	12	San Juan la Laguna	5	Mayo	2023-05-23T00:00:00	2024-11-08T00:00:00	4	Temperatura máxima	18.8
55411	7	Sololá	717	San Juan la Laguna	12	San Juan la Laguna	5	Mayo	2023-05-23T00:00:00	2024-11-08T00:00:00	3	Temperatura mínima	18.4
55412	7	Sololá	717	San Juan la Laguna	12	San Juan la Laguna	5	Mayo	2023-05-23T00:00:00	2024-11-08T00:00:00	5	Humedad	89
55413	7	Sololá	717	San Juan la Laguna	12	San Juan la Laguna	5	Mayo	2023-05-23T00:00:00	2024-11-08T00:00:00	6	Velocidad del viento	0
55414	7	Sololá	717	San Juan la Laguna	12	San Juan la Laguna	5	Mayo	2023-05-23T00:00:00	2024-11-08T00:00:00	7	Dirección del viento	0
55415	7	Sololá	717	San Juan la Laguna	12	San Juan la Laguna	5	Mayo	2023-05-23T00:00:00	2024-11-08T00:00:00	1	Precipitación	0
55416	7	Sololá	717	San Juan la Laguna	12	San Juan la Laguna	5	Mayo	2023-05-23T00:00:00	2024-11-08T00:00:00	8	Radiación solar	0
55417	7	Sololá	717	San Juan la Laguna	12	San Juan la Laguna	5	Mayo	2023-05-23T00:00:00	2024-11-08T01:00:00	2	Temperatura media	18.1
55418	7	Sololá	717	San Juan la Laguna	12	San Juan la Laguna	5	Mayo	2023-05-23T00:00:00	2024-11-08T01:00:00	4	Temperatura máxima	18.6
55419	7	Sololá	717	San Juan la Laguna	12	San Juan la Laguna	5	Mayo	2023-05-23T00:00:00	2024-11-08T01:00:00	3	Temperatura mínima	18.1
55420	7	Sololá	717	San Juan la Laguna	12	San Juan la Laguna	5	Mayo	2023-05-23T00:00:00	2024-11-08T01:00:00	5	Humedad	87
55421	7	Sololá	717	San Juan la Laguna	12	San Juan la Laguna	5	Mayo	2023-05-23T00:00:00	2024-11-08T01:00:00	6	Velocidad del viento	0
55422	7	Sololá	717	San Juan la Laguna	12	San Juan la Laguna	5	Mayo	2023-05-23T00:00:00	2024-11-08T01:00:00	7	Dirección del viento	0
55423	7	Sololá	717	San Juan la Laguna	12	San Juan la Laguna	5	Mayo	2023-05-23T00:00:00	2024-11-08T01:00:00	1	Precipitación	0
55424	7	Sololá	717	San Juan la Laguna	12	San Juan la Laguna	5	Mayo	2023-05-23T00:00:00	2024-11-08T01:00:00	8	Radiación solar	0
55425	7	Sololá	717	San Juan la Laguna	12	San Juan la Laguna	5	Mayo	2023-05-23T00:00:00	2024-11-08T02:00:00	2	Temperatura media	17.6
55426	7	Sololá	717	San Juan la Laguna	12	San Juan la Laguna	5	Mayo	2023-05-23T00:00:00	2024-11-08T02:00:00	4	Temperatura máxima	18.1
55427	7	Sololá	717	San Juan la Laguna	12	San Juan la Laguna	5	Mayo	2023-05-23T00:00:00	2024-11-08T02:00:00	3	Temperatura mínima	17.6
55428	7	Sololá	717	San Juan la Laguna	12	San Juan la Laguna	5	Mayo	2023-05-23T00:00:00	2024-11-08T02:00:00	5	Humedad	88
55429	7	Sololá	717	San Juan la Laguna	12	San Juan la Laguna	5	Mayo	2023-05-23T00:00:00	2024-11-08T02:00:00	6	Velocidad del viento	0
55430	7	Sololá	717	San Juan la Laguna	12	San Juan la Laguna	5	Mayo	2023-05-23T00:00:00	2024-11-08T02:00:00	7	Dirección del viento	0
55431	7	Sololá	717	San Juan la Laguna	12	San Juan la Laguna	5	Mayo	2023-05-23T00:00:00	2024-11-08T02:00:00	1	Precipitación	0
55432	7	Sololá	717	San Juan la Laguna	12	San Juan la Laguna	5	Mayo	2023-05-23T00:00:00	2024-11-08T02:00:00	8	Radiación solar	0
55433	7	Sololá	717	San Juan la Laguna	12	San Juan la Laguna	5	Mayo	2023-05-23T00:00:00	2024-11-08T03:00:00	2	Temperatura media	17.3
55434	7	Sololá	717	San Juan la Laguna	12	San Juan la Laguna	5	Mayo	2023-05-23T00:00:00	2024-11-08T03:00:00	4	Temperatura máxima	18
55435	7	Sololá	717	San Juan la Laguna	12	San Juan la Laguna	5	Mayo	2023-05-23T00:00:00	2024-11-08T03:00:00	3	Temperatura mínima	17.3
55436	7	Sololá	717	San Juan la Laguna	12	San Juan la Laguna	5	Mayo	2023-05-23T00:00:00	2024-11-08T03:00:00	5	Humedad	88
55437	7	Sololá	717	San Juan la Laguna	12	San Juan la Laguna	5	Mayo	2023-05-23T00:00:00	2024-11-08T03:00:00	6	Velocidad del viento	1.6
55438	7	Sololá	717	San Juan la Laguna	12	San Juan la Laguna	5	Mayo	2023-05-23T00:00:00	2024-11-08T03:00:00	7	Dirección del viento	1.61
55439	7	Sololá	717	San Juan la Laguna	12	San Juan la Laguna	5	Mayo	2023-05-23T00:00:00	2024-11-08T03:00:00	1	Precipitación	0
55440	7	Sololá	717	San Juan la Laguna	12	San Juan la Laguna	5	Mayo	2023-05-23T00:00:00	2024-11-08T03:00:00	8	Radiación solar	0
55441	7	Sololá	717	San Juan la Laguna	12	San Juan la Laguna	5	Mayo	2023-05-23T00:00:00	2024-11-08T04:00:00	2	Temperatura media	16.7
55442	7	Sololá	717	San Juan la Laguna	12	San Juan la Laguna	5	Mayo	2023-05-23T00:00:00	2024-11-08T04:00:00	4	Temperatura máxima	17.3
55443	7	Sololá	717	San Juan la Laguna	12	San Juan la Laguna	5	Mayo	2023-05-23T00:00:00	2024-11-08T04:00:00	3	Temperatura mínima	16.7
55444	7	Sololá	717	San Juan la Laguna	12	San Juan la Laguna	5	Mayo	2023-05-23T00:00:00	2024-11-08T04:00:00	5	Humedad	90
55445	7	Sololá	717	San Juan la Laguna	12	San Juan la Laguna	5	Mayo	2023-05-23T00:00:00	2024-11-08T04:00:00	6	Velocidad del viento	1.6
55446	7	Sololá	717	San Juan la Laguna	12	San Juan la Laguna	5	Mayo	2023-05-23T00:00:00	2024-11-08T04:00:00	7	Dirección del viento	1.61
55447	7	Sololá	717	San Juan la Laguna	12	San Juan la Laguna	5	Mayo	2023-05-23T00:00:00	2024-11-08T04:00:00	1	Precipitación	0
55448	7	Sololá	717	San Juan la Laguna	12	San Juan la Laguna	5	Mayo	2023-05-23T00:00:00	2024-11-08T04:00:00	8	Radiación solar	0
55449	7	Sololá	717	San Juan la Laguna	12	San Juan la Laguna	5	Mayo	2023-05-23T00:00:00	2024-11-08T05:00:00	2	Temperatura media	16.9
55450	7	Sololá	717	San Juan la Laguna	12	San Juan la Laguna	5	Mayo	2023-05-23T00:00:00	2024-11-08T05:00:00	4	Temperatura máxima	17
55451	7	Sololá	717	San Juan la Laguna	12	San Juan la Laguna	5	Mayo	2023-05-23T00:00:00	2024-11-08T05:00:00	3	Temperatura mínima	16.7
55452	7	Sololá	717	San Juan la Laguna	12	San Juan la Laguna	5	Mayo	2023-05-23T00:00:00	2024-11-08T05:00:00	5	Humedad	89
55453	7	Sololá	717	San Juan la Laguna	12	San Juan la Laguna	5	Mayo	2023-05-23T00:00:00	2024-11-08T05:00:00	6	Velocidad del viento	1.6
55454	7	Sololá	717	San Juan la Laguna	12	San Juan la Laguna	5	Mayo	2023-05-23T00:00:00	2024-11-08T05:00:00	7	Dirección del viento	1.61
55455	7	Sololá	717	San Juan la Laguna	12	San Juan la Laguna	5	Mayo	2023-05-23T00:00:00	2024-11-08T05:00:00	1	Precipitación	0
55456	7	Sololá	717	San Juan la Laguna	12	San Juan la Laguna	5	Mayo	2023-05-23T00:00:00	2024-11-08T05:00:00	8	Radiación solar	0
55457	7	Sololá	717	San Juan la Laguna	12	San Juan la Laguna	5	Mayo	2023-05-23T00:00:00	2024-11-08T06:00:00	2	Temperatura media	16.6
55458	7	Sololá	717	San Juan la Laguna	12	San Juan la Laguna	5	Mayo	2023-05-23T00:00:00	2024-11-08T06:00:00	4	Temperatura máxima	16.9
55459	7	Sololá	717	San Juan la Laguna	12	San Juan la Laguna	5	Mayo	2023-05-23T00:00:00	2024-11-08T06:00:00	3	Temperatura mínima	16.5
55460	7	Sololá	717	San Juan la Laguna	12	San Juan la Laguna	5	Mayo	2023-05-23T00:00:00	2024-11-08T06:00:00	5	Humedad	87
55461	7	Sololá	717	San Juan la Laguna	12	San Juan la Laguna	5	Mayo	2023-05-23T00:00:00	2024-11-08T06:00:00	6	Velocidad del viento	3.2
55462	7	Sololá	717	San Juan la Laguna	12	San Juan la Laguna	5	Mayo	2023-05-23T00:00:00	2024-11-08T06:00:00	7	Dirección del viento	3.22
55463	7	Sololá	717	San Juan la Laguna	12	San Juan la Laguna	5	Mayo	2023-05-23T00:00:00	2024-11-08T06:00:00	1	Precipitación	0
55464	7	Sololá	717	San Juan la Laguna	12	San Juan la Laguna	5	Mayo	2023-05-23T00:00:00	2024-11-08T06:00:00	8	Radiación solar	7
55465	7	Sololá	717	San Juan la Laguna	12	San Juan la Laguna	5	Mayo	2023-05-23T00:00:00	2024-11-08T07:00:00	2	Temperatura media	18.1
55466	7	Sololá	717	San Juan la Laguna	12	San Juan la Laguna	5	Mayo	2023-05-23T00:00:00	2024-11-08T07:00:00	4	Temperatura máxima	18.1
55467	7	Sololá	717	San Juan la Laguna	12	San Juan la Laguna	5	Mayo	2023-05-23T00:00:00	2024-11-08T07:00:00	3	Temperatura mínima	16.6
55468	7	Sololá	717	San Juan la Laguna	12	San Juan la Laguna	5	Mayo	2023-05-23T00:00:00	2024-11-08T07:00:00	5	Humedad	85
55469	7	Sololá	717	San Juan la Laguna	12	San Juan la Laguna	5	Mayo	2023-05-23T00:00:00	2024-11-08T07:00:00	6	Velocidad del viento	1.6
55470	7	Sololá	717	San Juan la Laguna	12	San Juan la Laguna	5	Mayo	2023-05-23T00:00:00	2024-11-08T07:00:00	7	Dirección del viento	1.61
55471	7	Sololá	717	San Juan la Laguna	12	San Juan la Laguna	5	Mayo	2023-05-23T00:00:00	2024-11-08T07:00:00	1	Precipitación	0
55472	7	Sololá	717	San Juan la Laguna	12	San Juan la Laguna	5	Mayo	2023-05-23T00:00:00	2024-11-08T07:00:00	8	Radiación solar	84
55473	7	Sololá	717	San Juan la Laguna	12	San Juan la Laguna	5	Mayo	2023-05-23T00:00:00	2024-11-08T08:00:00	2	Temperatura media	21.2
55474	7	Sololá	717	San Juan la Laguna	12	San Juan la Laguna	5	Mayo	2023-05-23T00:00:00	2024-11-08T08:00:00	4	Temperatura máxima	21.2
55475	7	Sololá	717	San Juan la Laguna	12	San Juan la Laguna	5	Mayo	2023-05-23T00:00:00	2024-11-08T08:00:00	3	Temperatura mínima	18.1
55476	7	Sololá	717	San Juan la Laguna	12	San Juan la Laguna	5	Mayo	2023-05-23T00:00:00	2024-11-08T08:00:00	5	Humedad	75
55477	7	Sololá	717	San Juan la Laguna	12	San Juan la Laguna	5	Mayo	2023-05-23T00:00:00	2024-11-08T08:00:00	6	Velocidad del viento	1.6
55478	7	Sololá	717	San Juan la Laguna	12	San Juan la Laguna	5	Mayo	2023-05-23T00:00:00	2024-11-08T08:00:00	7	Dirección del viento	1.61
55479	7	Sololá	717	San Juan la Laguna	12	San Juan la Laguna	5	Mayo	2023-05-23T00:00:00	2024-11-08T08:00:00	1	Precipitación	0
55480	7	Sololá	717	San Juan la Laguna	12	San Juan la Laguna	5	Mayo	2023-05-23T00:00:00	2024-11-08T08:00:00	8	Radiación solar	299
55481	7	Sololá	717	San Juan la Laguna	12	San Juan la Laguna	5	Mayo	2023-05-23T00:00:00	2024-11-08T09:00:00	2	Temperatura media	22.9
55482	7	Sololá	717	San Juan la Laguna	12	San Juan la Laguna	5	Mayo	2023-05-23T00:00:00	2024-11-08T09:00:00	4	Temperatura máxima	22.9
55483	7	Sololá	717	San Juan la Laguna	12	San Juan la Laguna	5	Mayo	2023-05-23T00:00:00	2024-11-08T09:00:00	3	Temperatura mínima	21.2
55484	7	Sololá	717	San Juan la Laguna	12	San Juan la Laguna	5	Mayo	2023-05-23T00:00:00	2024-11-08T09:00:00	5	Humedad	67
55485	7	Sololá	717	San Juan la Laguna	12	San Juan la Laguna	5	Mayo	2023-05-23T00:00:00	2024-11-08T09:00:00	6	Velocidad del viento	1.6
55486	7	Sololá	717	San Juan la Laguna	12	San Juan la Laguna	5	Mayo	2023-05-23T00:00:00	2024-11-08T09:00:00	7	Dirección del viento	1.61
55487	7	Sololá	717	San Juan la Laguna	12	San Juan la Laguna	5	Mayo	2023-05-23T00:00:00	2024-11-08T09:00:00	1	Precipitación	0
55488	7	Sololá	717	San Juan la Laguna	12	San Juan la Laguna	5	Mayo	2023-05-23T00:00:00	2024-11-08T09:00:00	8	Radiación solar	469
55489	7	Sololá	717	San Juan la Laguna	12	San Juan la Laguna	5	Mayo	2023-05-23T00:00:00	2024-11-08T10:00:00	2	Temperatura media	24.1
55490	7	Sololá	717	San Juan la Laguna	12	San Juan la Laguna	5	Mayo	2023-05-23T00:00:00	2024-11-08T10:00:00	4	Temperatura máxima	24.1
55491	7	Sololá	717	San Juan la Laguna	12	San Juan la Laguna	5	Mayo	2023-05-23T00:00:00	2024-11-08T10:00:00	3	Temperatura mínima	22.4
55492	7	Sololá	717	San Juan la Laguna	12	San Juan la Laguna	5	Mayo	2023-05-23T00:00:00	2024-11-08T10:00:00	5	Humedad	60
55493	7	Sololá	717	San Juan la Laguna	12	San Juan la Laguna	5	Mayo	2023-05-23T00:00:00	2024-11-08T10:00:00	6	Velocidad del viento	1.6
55494	7	Sololá	717	San Juan la Laguna	12	San Juan la Laguna	5	Mayo	2023-05-23T00:00:00	2024-11-08T10:00:00	7	Dirección del viento	1.61
55495	7	Sololá	717	San Juan la Laguna	12	San Juan la Laguna	5	Mayo	2023-05-23T00:00:00	2024-11-08T10:00:00	1	Precipitación	0
55496	7	Sololá	717	San Juan la Laguna	12	San Juan la Laguna	5	Mayo	2023-05-23T00:00:00	2024-11-08T10:00:00	8	Radiación solar	681
55497	7	Sololá	717	San Juan la Laguna	12	San Juan la Laguna	5	Mayo	2023-05-23T00:00:00	2024-11-08T11:00:00	2	Temperatura media	24.4
55498	7	Sololá	717	San Juan la Laguna	12	San Juan la Laguna	5	Mayo	2023-05-23T00:00:00	2024-11-08T11:00:00	4	Temperatura máxima	25.3
55499	7	Sololá	717	San Juan la Laguna	12	San Juan la Laguna	5	Mayo	2023-05-23T00:00:00	2024-11-08T11:00:00	3	Temperatura mínima	23.8
55500	7	Sololá	717	San Juan la Laguna	12	San Juan la Laguna	5	Mayo	2023-05-23T00:00:00	2024-11-08T11:00:00	5	Humedad	63
55501	7	Sololá	717	San Juan la Laguna	12	San Juan la Laguna	5	Mayo	2023-05-23T00:00:00	2024-11-08T11:00:00	6	Velocidad del viento	4.8
55502	7	Sololá	717	San Juan la Laguna	12	San Juan la Laguna	5	Mayo	2023-05-23T00:00:00	2024-11-08T11:00:00	7	Dirección del viento	4.83
55503	7	Sololá	717	San Juan la Laguna	12	San Juan la Laguna	5	Mayo	2023-05-23T00:00:00	2024-11-08T11:00:00	1	Precipitación	0
55504	7	Sololá	717	San Juan la Laguna	12	San Juan la Laguna	5	Mayo	2023-05-23T00:00:00	2024-11-08T11:00:00	8	Radiación solar	888
55505	7	Sololá	717	San Juan la Laguna	12	San Juan la Laguna	5	Mayo	2023-05-23T00:00:00	2024-11-08T12:00:00	2	Temperatura media	24.1
55506	7	Sololá	717	San Juan la Laguna	12	San Juan la Laguna	5	Mayo	2023-05-23T00:00:00	2024-11-08T12:00:00	4	Temperatura máxima	24.9
55507	7	Sololá	717	San Juan la Laguna	12	San Juan la Laguna	5	Mayo	2023-05-23T00:00:00	2024-11-08T12:00:00	3	Temperatura mínima	23.8
55508	7	Sololá	717	San Juan la Laguna	12	San Juan la Laguna	5	Mayo	2023-05-23T00:00:00	2024-11-08T12:00:00	5	Humedad	67
55509	7	Sololá	717	San Juan la Laguna	12	San Juan la Laguna	5	Mayo	2023-05-23T00:00:00	2024-11-08T12:00:00	6	Velocidad del viento	6.4
55510	7	Sololá	717	San Juan la Laguna	12	San Juan la Laguna	5	Mayo	2023-05-23T00:00:00	2024-11-08T12:00:00	7	Dirección del viento	6.44
55511	7	Sololá	717	San Juan la Laguna	12	San Juan la Laguna	5	Mayo	2023-05-23T00:00:00	2024-11-08T12:00:00	1	Precipitación	0
55512	7	Sololá	717	San Juan la Laguna	12	San Juan la Laguna	5	Mayo	2023-05-23T00:00:00	2024-11-08T12:00:00	8	Radiación solar	823
55513	7	Sololá	717	San Juan la Laguna	12	San Juan la Laguna	5	Mayo	2023-05-23T00:00:00	2024-11-08T13:00:00	2	Temperatura media	24.2
55514	7	Sololá	717	San Juan la Laguna	12	San Juan la Laguna	5	Mayo	2023-05-23T00:00:00	2024-11-08T13:00:00	4	Temperatura máxima	24.2
55515	7	Sololá	717	San Juan la Laguna	12	San Juan la Laguna	5	Mayo	2023-05-23T00:00:00	2024-11-08T13:00:00	3	Temperatura mínima	22.9
55516	7	Sololá	717	San Juan la Laguna	12	San Juan la Laguna	5	Mayo	2023-05-23T00:00:00	2024-11-08T13:00:00	5	Humedad	69
55517	7	Sololá	717	San Juan la Laguna	12	San Juan la Laguna	5	Mayo	2023-05-23T00:00:00	2024-11-08T13:00:00	6	Velocidad del viento	4.8
55518	7	Sololá	717	San Juan la Laguna	12	San Juan la Laguna	5	Mayo	2023-05-23T00:00:00	2024-11-08T13:00:00	7	Dirección del viento	4.83
55519	7	Sololá	717	San Juan la Laguna	12	San Juan la Laguna	5	Mayo	2023-05-23T00:00:00	2024-11-08T13:00:00	1	Precipitación	0
55520	7	Sololá	717	San Juan la Laguna	12	San Juan la Laguna	5	Mayo	2023-05-23T00:00:00	2024-11-08T13:00:00	8	Radiación solar	591
55521	7	Sololá	717	San Juan la Laguna	12	San Juan la Laguna	5	Mayo	2023-05-23T00:00:00	2024-11-08T14:00:00	2	Temperatura media	22.7
55522	7	Sololá	717	San Juan la Laguna	12	San Juan la Laguna	5	Mayo	2023-05-23T00:00:00	2024-11-08T14:00:00	4	Temperatura máxima	24.7
55523	7	Sololá	717	San Juan la Laguna	12	San Juan la Laguna	5	Mayo	2023-05-23T00:00:00	2024-11-08T14:00:00	3	Temperatura mínima	22.7
55524	7	Sololá	717	San Juan la Laguna	12	San Juan la Laguna	5	Mayo	2023-05-23T00:00:00	2024-11-08T14:00:00	5	Humedad	74
55525	7	Sololá	717	San Juan la Laguna	12	San Juan la Laguna	5	Mayo	2023-05-23T00:00:00	2024-11-08T14:00:00	6	Velocidad del viento	4.8
55526	7	Sololá	717	San Juan la Laguna	12	San Juan la Laguna	5	Mayo	2023-05-23T00:00:00	2024-11-08T14:00:00	7	Dirección del viento	4.83
55527	7	Sololá	717	San Juan la Laguna	12	San Juan la Laguna	5	Mayo	2023-05-23T00:00:00	2024-11-08T14:00:00	1	Precipitación	0
55528	7	Sololá	717	San Juan la Laguna	12	San Juan la Laguna	5	Mayo	2023-05-23T00:00:00	2024-11-08T14:00:00	8	Radiación solar	460
55529	7	Sololá	717	San Juan la Laguna	12	San Juan la Laguna	5	Mayo	2023-05-23T00:00:00	2024-11-08T15:00:00	2	Temperatura media	22.3
55530	7	Sololá	717	San Juan la Laguna	12	San Juan la Laguna	5	Mayo	2023-05-23T00:00:00	2024-11-08T15:00:00	4	Temperatura máxima	22.8
55531	7	Sololá	717	San Juan la Laguna	12	San Juan la Laguna	5	Mayo	2023-05-23T00:00:00	2024-11-08T15:00:00	3	Temperatura mínima	22.1
55532	7	Sololá	717	San Juan la Laguna	12	San Juan la Laguna	5	Mayo	2023-05-23T00:00:00	2024-11-08T15:00:00	5	Humedad	76
55533	7	Sololá	717	San Juan la Laguna	12	San Juan la Laguna	5	Mayo	2023-05-23T00:00:00	2024-11-08T15:00:00	6	Velocidad del viento	4.8
55534	7	Sololá	717	San Juan la Laguna	12	San Juan la Laguna	5	Mayo	2023-05-23T00:00:00	2024-11-08T15:00:00	7	Dirección del viento	4.83
55535	7	Sololá	717	San Juan la Laguna	12	San Juan la Laguna	5	Mayo	2023-05-23T00:00:00	2024-11-08T15:00:00	1	Precipitación	0
55536	7	Sololá	717	San Juan la Laguna	12	San Juan la Laguna	5	Mayo	2023-05-23T00:00:00	2024-11-08T15:00:00	8	Radiación solar	293
55537	7	Sololá	717	San Juan la Laguna	12	San Juan la Laguna	5	Mayo	2023-05-23T00:00:00	2024-11-08T16:00:00	2	Temperatura media	21.4
55538	7	Sololá	717	San Juan la Laguna	12	San Juan la Laguna	5	Mayo	2023-05-23T00:00:00	2024-11-08T16:00:00	4	Temperatura máxima	22.9
55539	7	Sololá	717	San Juan la Laguna	12	San Juan la Laguna	5	Mayo	2023-05-23T00:00:00	2024-11-08T16:00:00	3	Temperatura mínima	21.4
55540	7	Sololá	717	San Juan la Laguna	12	San Juan la Laguna	5	Mayo	2023-05-23T00:00:00	2024-11-08T16:00:00	5	Humedad	79
55541	7	Sololá	717	San Juan la Laguna	12	San Juan la Laguna	5	Mayo	2023-05-23T00:00:00	2024-11-08T16:00:00	6	Velocidad del viento	4.8
55542	7	Sololá	717	San Juan la Laguna	12	San Juan la Laguna	5	Mayo	2023-05-23T00:00:00	2024-11-08T16:00:00	7	Dirección del viento	4.83
55543	7	Sololá	717	San Juan la Laguna	12	San Juan la Laguna	5	Mayo	2023-05-23T00:00:00	2024-11-08T16:00:00	1	Precipitación	0
55544	7	Sololá	717	San Juan la Laguna	12	San Juan la Laguna	5	Mayo	2023-05-23T00:00:00	2024-11-08T16:00:00	8	Radiación solar	283
55545	7	Sololá	717	San Juan la Laguna	12	San Juan la Laguna	5	Mayo	2023-05-23T00:00:00	2024-11-08T17:00:00	2	Temperatura media	21.6
55546	7	Sololá	717	San Juan la Laguna	12	San Juan la Laguna	5	Mayo	2023-05-23T00:00:00	2024-11-08T17:00:00	4	Temperatura máxima	21.8
55547	7	Sololá	717	San Juan la Laguna	12	San Juan la Laguna	5	Mayo	2023-05-23T00:00:00	2024-11-08T17:00:00	3	Temperatura mínima	21.4
55548	7	Sololá	717	San Juan la Laguna	12	San Juan la Laguna	5	Mayo	2023-05-23T00:00:00	2024-11-08T17:00:00	5	Humedad	77
55549	7	Sololá	717	San Juan la Laguna	12	San Juan la Laguna	5	Mayo	2023-05-23T00:00:00	2024-11-08T17:00:00	6	Velocidad del viento	4.8
55550	7	Sololá	717	San Juan la Laguna	12	San Juan la Laguna	5	Mayo	2023-05-23T00:00:00	2024-11-08T17:00:00	7	Dirección del viento	4.83
55551	7	Sololá	717	San Juan la Laguna	12	San Juan la Laguna	5	Mayo	2023-05-23T00:00:00	2024-11-08T17:00:00	1	Precipitación	0
55552	7	Sololá	717	San Juan la Laguna	12	San Juan la Laguna	5	Mayo	2023-05-23T00:00:00	2024-11-08T17:00:00	8	Radiación solar	165
55553	7	Sololá	717	San Juan la Laguna	12	San Juan la Laguna	5	Mayo	2023-05-23T00:00:00	2024-11-08T18:00:00	2	Temperatura media	21.4
55554	7	Sololá	717	San Juan la Laguna	12	San Juan la Laguna	5	Mayo	2023-05-23T00:00:00	2024-11-08T18:00:00	4	Temperatura máxima	21.8
55555	7	Sololá	717	San Juan la Laguna	12	San Juan la Laguna	5	Mayo	2023-05-23T00:00:00	2024-11-08T18:00:00	3	Temperatura mínima	21.3
55556	7	Sololá	717	San Juan la Laguna	12	San Juan la Laguna	5	Mayo	2023-05-23T00:00:00	2024-11-08T18:00:00	5	Humedad	77
55557	7	Sololá	717	San Juan la Laguna	12	San Juan la Laguna	5	Mayo	2023-05-23T00:00:00	2024-11-08T18:00:00	6	Velocidad del viento	3.2
55558	7	Sololá	717	San Juan la Laguna	12	San Juan la Laguna	5	Mayo	2023-05-23T00:00:00	2024-11-08T18:00:00	7	Dirección del viento	3.22
55559	7	Sololá	717	San Juan la Laguna	12	San Juan la Laguna	5	Mayo	2023-05-23T00:00:00	2024-11-08T18:00:00	1	Precipitación	0
55560	7	Sololá	717	San Juan la Laguna	12	San Juan la Laguna	5	Mayo	2023-05-23T00:00:00	2024-11-08T18:00:00	8	Radiación solar	51
55561	7	Sololá	717	San Juan la Laguna	12	San Juan la Laguna	5	Mayo	2023-05-23T00:00:00	2024-11-08T19:00:00	2	Temperatura media	21.4
55562	7	Sololá	717	San Juan la Laguna	12	San Juan la Laguna	5	Mayo	2023-05-23T00:00:00	2024-11-08T19:00:00	4	Temperatura máxima	21.7
55563	7	Sololá	717	San Juan la Laguna	12	San Juan la Laguna	5	Mayo	2023-05-23T00:00:00	2024-11-08T19:00:00	3	Temperatura mínima	21.4
55564	7	Sololá	717	San Juan la Laguna	12	San Juan la Laguna	5	Mayo	2023-05-23T00:00:00	2024-11-08T19:00:00	5	Humedad	81
55565	7	Sololá	717	San Juan la Laguna	12	San Juan la Laguna	5	Mayo	2023-05-23T00:00:00	2024-11-08T19:00:00	6	Velocidad del viento	0
55566	7	Sololá	717	San Juan la Laguna	12	San Juan la Laguna	5	Mayo	2023-05-23T00:00:00	2024-11-08T19:00:00	7	Dirección del viento	0
55567	7	Sololá	717	San Juan la Laguna	12	San Juan la Laguna	5	Mayo	2023-05-23T00:00:00	2024-11-08T19:00:00	1	Precipitación	0
55568	7	Sololá	717	San Juan la Laguna	12	San Juan la Laguna	5	Mayo	2023-05-23T00:00:00	2024-11-08T19:00:00	8	Radiación solar	0
55569	7	Sololá	717	San Juan la Laguna	12	San Juan la Laguna	5	Mayo	2023-05-23T00:00:00	2024-11-08T20:00:00	2	Temperatura media	20.5
55570	7	Sololá	717	San Juan la Laguna	12	San Juan la Laguna	5	Mayo	2023-05-23T00:00:00	2024-11-08T20:00:00	4	Temperatura máxima	21.4
55571	7	Sololá	717	San Juan la Laguna	12	San Juan la Laguna	5	Mayo	2023-05-23T00:00:00	2024-11-08T20:00:00	3	Temperatura mínima	20.5
55572	7	Sololá	717	San Juan la Laguna	12	San Juan la Laguna	5	Mayo	2023-05-23T00:00:00	2024-11-08T20:00:00	5	Humedad	86
55573	7	Sololá	717	San Juan la Laguna	12	San Juan la Laguna	5	Mayo	2023-05-23T00:00:00	2024-11-08T20:00:00	6	Velocidad del viento	0
55574	7	Sololá	717	San Juan la Laguna	12	San Juan la Laguna	5	Mayo	2023-05-23T00:00:00	2024-11-08T20:00:00	7	Dirección del viento	0
55575	7	Sololá	717	San Juan la Laguna	12	San Juan la Laguna	5	Mayo	2023-05-23T00:00:00	2024-11-08T20:00:00	1	Precipitación	0
55576	7	Sololá	717	San Juan la Laguna	12	San Juan la Laguna	5	Mayo	2023-05-23T00:00:00	2024-11-08T20:00:00	8	Radiación solar	0
55577	7	Sololá	717	San Juan la Laguna	12	San Juan la Laguna	5	Mayo	2023-05-23T00:00:00	2024-11-08T21:00:00	2	Temperatura media	19.8
55578	7	Sololá	717	San Juan la Laguna	12	San Juan la Laguna	5	Mayo	2023-05-23T00:00:00	2024-11-08T21:00:00	4	Temperatura máxima	20.6
55579	7	Sololá	717	San Juan la Laguna	12	San Juan la Laguna	5	Mayo	2023-05-23T00:00:00	2024-11-08T21:00:00	3	Temperatura mínima	19.8
55580	7	Sololá	717	San Juan la Laguna	12	San Juan la Laguna	5	Mayo	2023-05-23T00:00:00	2024-11-08T21:00:00	5	Humedad	87
55581	7	Sololá	717	San Juan la Laguna	12	San Juan la Laguna	5	Mayo	2023-05-23T00:00:00	2024-11-08T21:00:00	6	Velocidad del viento	0
55582	7	Sololá	717	San Juan la Laguna	12	San Juan la Laguna	5	Mayo	2023-05-23T00:00:00	2024-11-08T21:00:00	7	Dirección del viento	0
55583	7	Sololá	717	San Juan la Laguna	12	San Juan la Laguna	5	Mayo	2023-05-23T00:00:00	2024-11-08T21:00:00	1	Precipitación	0
55584	7	Sololá	717	San Juan la Laguna	12	San Juan la Laguna	5	Mayo	2023-05-23T00:00:00	2024-11-08T21:00:00	8	Radiación solar	0
55585	7	Sololá	717	San Juan la Laguna	12	San Juan la Laguna	5	Mayo	2023-05-23T00:00:00	2024-11-08T22:00:00	2	Temperatura media	18.9
55586	7	Sololá	717	San Juan la Laguna	12	San Juan la Laguna	5	Mayo	2023-05-23T00:00:00	2024-11-08T22:00:00	4	Temperatura máxima	19.8
55587	7	Sololá	717	San Juan la Laguna	12	San Juan la Laguna	5	Mayo	2023-05-23T00:00:00	2024-11-08T22:00:00	3	Temperatura mínima	18.9
55588	7	Sololá	717	San Juan la Laguna	12	San Juan la Laguna	5	Mayo	2023-05-23T00:00:00	2024-11-08T22:00:00	5	Humedad	88
55589	7	Sololá	717	San Juan la Laguna	12	San Juan la Laguna	5	Mayo	2023-05-23T00:00:00	2024-11-08T22:00:00	6	Velocidad del viento	0
55590	7	Sololá	717	San Juan la Laguna	12	San Juan la Laguna	5	Mayo	2023-05-23T00:00:00	2024-11-08T22:00:00	7	Dirección del viento	0
55591	7	Sololá	717	San Juan la Laguna	12	San Juan la Laguna	5	Mayo	2023-05-23T00:00:00	2024-11-08T22:00:00	1	Precipitación	0
55592	7	Sololá	717	San Juan la Laguna	12	San Juan la Laguna	5	Mayo	2023-05-23T00:00:00	2024-11-08T22:00:00	8	Radiación solar	0
55593	7	Sololá	717	San Juan la Laguna	12	San Juan la Laguna	5	Mayo	2023-05-23T00:00:00	2024-11-08T23:00:00	2	Temperatura media	18.3
55594	7	Sololá	717	San Juan la Laguna	12	San Juan la Laguna	5	Mayo	2023-05-23T00:00:00	2024-11-08T23:00:00	4	Temperatura máxima	18.9
55595	7	Sololá	717	San Juan la Laguna	12	San Juan la Laguna	5	Mayo	2023-05-23T00:00:00	2024-11-08T23:00:00	3	Temperatura mínima	18.2
55596	7	Sololá	717	San Juan la Laguna	12	San Juan la Laguna	5	Mayo	2023-05-23T00:00:00	2024-11-08T23:00:00	5	Humedad	88
55597	7	Sololá	717	San Juan la Laguna	12	San Juan la Laguna	5	Mayo	2023-05-23T00:00:00	2024-11-08T23:00:00	6	Velocidad del viento	0
55598	7	Sololá	717	San Juan la Laguna	12	San Juan la Laguna	5	Mayo	2023-05-23T00:00:00	2024-11-08T23:00:00	7	Dirección del viento	0
55599	7	Sololá	717	San Juan la Laguna	12	San Juan la Laguna	5	Mayo	2023-05-23T00:00:00	2024-11-08T23:00:00	1	Precipitación	0
55600	7	Sololá	717	San Juan la Laguna	12	San Juan la Laguna	5	Mayo	2023-05-23T00:00:00	2024-11-08T23:00:00	8	Radiación solar	0
55601	7	Sololá	717	San Juan la Laguna	12	San Juan la Laguna	5	Mayo	2023-05-24T00:00:00	2024-11-08T00:00:00	2	Temperatura media	17.9
55602	7	Sololá	717	San Juan la Laguna	12	San Juan la Laguna	5	Mayo	2023-05-24T00:00:00	2024-11-08T00:00:00	4	Temperatura máxima	18.7
55603	7	Sololá	717	San Juan la Laguna	12	San Juan la Laguna	5	Mayo	2023-05-24T00:00:00	2024-11-08T00:00:00	3	Temperatura mínima	17.9
55604	7	Sololá	717	San Juan la Laguna	12	San Juan la Laguna	5	Mayo	2023-05-24T00:00:00	2024-11-08T00:00:00	5	Humedad	84
55605	7	Sololá	717	San Juan la Laguna	12	San Juan la Laguna	5	Mayo	2023-05-24T00:00:00	2024-11-08T00:00:00	6	Velocidad del viento	1.6
55606	7	Sololá	717	San Juan la Laguna	12	San Juan la Laguna	5	Mayo	2023-05-24T00:00:00	2024-11-08T00:00:00	7	Dirección del viento	1.61
55607	7	Sololá	717	San Juan la Laguna	12	San Juan la Laguna	5	Mayo	2023-05-24T00:00:00	2024-11-08T00:00:00	1	Precipitación	0
55608	7	Sololá	717	San Juan la Laguna	12	San Juan la Laguna	5	Mayo	2023-05-24T00:00:00	2024-11-08T00:00:00	8	Radiación solar	0
55609	7	Sololá	717	San Juan la Laguna	12	San Juan la Laguna	5	Mayo	2023-05-24T00:00:00	2024-11-08T01:00:00	2	Temperatura media	17.2
55610	7	Sololá	717	San Juan la Laguna	12	San Juan la Laguna	5	Mayo	2023-05-24T00:00:00	2024-11-08T01:00:00	4	Temperatura máxima	17.9
55611	7	Sololá	717	San Juan la Laguna	12	San Juan la Laguna	5	Mayo	2023-05-24T00:00:00	2024-11-08T01:00:00	3	Temperatura mínima	17.2
55612	7	Sololá	717	San Juan la Laguna	12	San Juan la Laguna	5	Mayo	2023-05-24T00:00:00	2024-11-08T01:00:00	5	Humedad	87
55613	7	Sololá	717	San Juan la Laguna	12	San Juan la Laguna	5	Mayo	2023-05-24T00:00:00	2024-11-08T01:00:00	6	Velocidad del viento	0
55614	7	Sololá	717	San Juan la Laguna	12	San Juan la Laguna	5	Mayo	2023-05-24T00:00:00	2024-11-08T01:00:00	7	Dirección del viento	0
55615	7	Sololá	717	San Juan la Laguna	12	San Juan la Laguna	5	Mayo	2023-05-24T00:00:00	2024-11-08T01:00:00	1	Precipitación	0
55616	7	Sololá	717	San Juan la Laguna	12	San Juan la Laguna	5	Mayo	2023-05-24T00:00:00	2024-11-08T01:00:00	8	Radiación solar	0
55617	7	Sololá	717	San Juan la Laguna	12	San Juan la Laguna	5	Mayo	2023-05-24T00:00:00	2024-11-08T02:00:00	2	Temperatura media	16.9
55618	7	Sololá	717	San Juan la Laguna	12	San Juan la Laguna	5	Mayo	2023-05-24T00:00:00	2024-11-08T02:00:00	4	Temperatura máxima	17.2
55619	7	Sololá	717	San Juan la Laguna	12	San Juan la Laguna	5	Mayo	2023-05-24T00:00:00	2024-11-08T02:00:00	3	Temperatura mínima	16.7
55620	7	Sololá	717	San Juan la Laguna	12	San Juan la Laguna	5	Mayo	2023-05-24T00:00:00	2024-11-08T02:00:00	5	Humedad	84
55621	7	Sololá	717	San Juan la Laguna	12	San Juan la Laguna	5	Mayo	2023-05-24T00:00:00	2024-11-08T02:00:00	6	Velocidad del viento	3.2
55622	7	Sololá	717	San Juan la Laguna	12	San Juan la Laguna	5	Mayo	2023-05-24T00:00:00	2024-11-08T02:00:00	7	Dirección del viento	3.22
55623	7	Sololá	717	San Juan la Laguna	12	San Juan la Laguna	5	Mayo	2023-05-24T00:00:00	2024-11-08T02:00:00	1	Precipitación	0
55624	7	Sololá	717	San Juan la Laguna	12	San Juan la Laguna	5	Mayo	2023-05-24T00:00:00	2024-11-08T02:00:00	8	Radiación solar	0
55625	7	Sololá	717	San Juan la Laguna	12	San Juan la Laguna	5	Mayo	2023-05-24T00:00:00	2024-11-08T03:00:00	2	Temperatura media	16.3
55626	7	Sololá	717	San Juan la Laguna	12	San Juan la Laguna	5	Mayo	2023-05-24T00:00:00	2024-11-08T03:00:00	4	Temperatura máxima	16.9
55627	7	Sololá	717	San Juan la Laguna	12	San Juan la Laguna	5	Mayo	2023-05-24T00:00:00	2024-11-08T03:00:00	3	Temperatura mínima	16.2
55628	7	Sololá	717	San Juan la Laguna	12	San Juan la Laguna	5	Mayo	2023-05-24T00:00:00	2024-11-08T03:00:00	5	Humedad	87
55629	7	Sololá	717	San Juan la Laguna	12	San Juan la Laguna	5	Mayo	2023-05-24T00:00:00	2024-11-08T03:00:00	6	Velocidad del viento	1.6
55630	7	Sololá	717	San Juan la Laguna	12	San Juan la Laguna	5	Mayo	2023-05-24T00:00:00	2024-11-08T03:00:00	7	Dirección del viento	1.61
55631	7	Sololá	717	San Juan la Laguna	12	San Juan la Laguna	5	Mayo	2023-05-24T00:00:00	2024-11-08T03:00:00	1	Precipitación	0
55632	7	Sololá	717	San Juan la Laguna	12	San Juan la Laguna	5	Mayo	2023-05-24T00:00:00	2024-11-08T03:00:00	8	Radiación solar	0
55633	7	Sololá	717	San Juan la Laguna	12	San Juan la Laguna	5	Mayo	2023-05-24T00:00:00	2024-11-08T04:00:00	2	Temperatura media	16.2
55634	7	Sololá	717	San Juan la Laguna	12	San Juan la Laguna	5	Mayo	2023-05-24T00:00:00	2024-11-08T04:00:00	4	Temperatura máxima	16.3
55635	7	Sololá	717	San Juan la Laguna	12	San Juan la Laguna	5	Mayo	2023-05-24T00:00:00	2024-11-08T04:00:00	3	Temperatura mínima	16
55636	7	Sololá	717	San Juan la Laguna	12	San Juan la Laguna	5	Mayo	2023-05-24T00:00:00	2024-11-08T04:00:00	5	Humedad	87
55637	7	Sololá	717	San Juan la Laguna	12	San Juan la Laguna	5	Mayo	2023-05-24T00:00:00	2024-11-08T04:00:00	6	Velocidad del viento	1.6
55638	7	Sololá	717	San Juan la Laguna	12	San Juan la Laguna	5	Mayo	2023-05-24T00:00:00	2024-11-08T04:00:00	7	Dirección del viento	1.61
55639	7	Sololá	717	San Juan la Laguna	12	San Juan la Laguna	5	Mayo	2023-05-24T00:00:00	2024-11-08T04:00:00	1	Precipitación	0
55640	7	Sololá	717	San Juan la Laguna	12	San Juan la Laguna	5	Mayo	2023-05-24T00:00:00	2024-11-08T04:00:00	8	Radiación solar	0
55641	7	Sololá	717	San Juan la Laguna	12	San Juan la Laguna	5	Mayo	2023-05-24T00:00:00	2024-11-08T05:00:00	2	Temperatura media	15.6
55642	7	Sololá	717	San Juan la Laguna	12	San Juan la Laguna	5	Mayo	2023-05-24T00:00:00	2024-11-08T05:00:00	4	Temperatura máxima	16.2
55643	7	Sololá	717	San Juan la Laguna	12	San Juan la Laguna	5	Mayo	2023-05-24T00:00:00	2024-11-08T05:00:00	3	Temperatura mínima	15.5
55644	7	Sololá	717	San Juan la Laguna	12	San Juan la Laguna	5	Mayo	2023-05-24T00:00:00	2024-11-08T05:00:00	5	Humedad	87
55645	7	Sololá	717	San Juan la Laguna	12	San Juan la Laguna	5	Mayo	2023-05-24T00:00:00	2024-11-08T05:00:00	6	Velocidad del viento	1.6
55646	7	Sololá	717	San Juan la Laguna	12	San Juan la Laguna	5	Mayo	2023-05-24T00:00:00	2024-11-08T05:00:00	7	Dirección del viento	1.61
55647	7	Sololá	717	San Juan la Laguna	12	San Juan la Laguna	5	Mayo	2023-05-24T00:00:00	2024-11-08T05:00:00	1	Precipitación	0
55648	7	Sololá	717	San Juan la Laguna	12	San Juan la Laguna	5	Mayo	2023-05-24T00:00:00	2024-11-08T05:00:00	8	Radiación solar	0
55649	7	Sololá	717	San Juan la Laguna	12	San Juan la Laguna	5	Mayo	2023-05-24T00:00:00	2024-11-08T06:00:00	2	Temperatura media	15.4
55650	7	Sololá	717	San Juan la Laguna	12	San Juan la Laguna	5	Mayo	2023-05-24T00:00:00	2024-11-08T06:00:00	4	Temperatura máxima	15.8
55651	7	Sololá	717	San Juan la Laguna	12	San Juan la Laguna	5	Mayo	2023-05-24T00:00:00	2024-11-08T06:00:00	3	Temperatura mínima	15.4
55652	7	Sololá	717	San Juan la Laguna	12	San Juan la Laguna	5	Mayo	2023-05-24T00:00:00	2024-11-08T06:00:00	5	Humedad	87
55653	7	Sololá	717	San Juan la Laguna	12	San Juan la Laguna	5	Mayo	2023-05-24T00:00:00	2024-11-08T06:00:00	6	Velocidad del viento	3.2
55654	7	Sololá	717	San Juan la Laguna	12	San Juan la Laguna	5	Mayo	2023-05-24T00:00:00	2024-11-08T06:00:00	7	Dirección del viento	3.22
55655	7	Sololá	717	San Juan la Laguna	12	San Juan la Laguna	5	Mayo	2023-05-24T00:00:00	2024-11-08T06:00:00	1	Precipitación	0
55656	7	Sololá	717	San Juan la Laguna	12	San Juan la Laguna	5	Mayo	2023-05-24T00:00:00	2024-11-08T06:00:00	8	Radiación solar	5
55657	7	Sololá	717	San Juan la Laguna	12	San Juan la Laguna	5	Mayo	2023-05-24T00:00:00	2024-11-08T07:00:00	2	Temperatura media	17.2
55658	7	Sololá	717	San Juan la Laguna	12	San Juan la Laguna	5	Mayo	2023-05-24T00:00:00	2024-11-08T07:00:00	4	Temperatura máxima	17.2
55659	7	Sololá	717	San Juan la Laguna	12	San Juan la Laguna	5	Mayo	2023-05-24T00:00:00	2024-11-08T07:00:00	3	Temperatura mínima	15.4
55660	7	Sololá	717	San Juan la Laguna	12	San Juan la Laguna	5	Mayo	2023-05-24T00:00:00	2024-11-08T07:00:00	5	Humedad	83
55661	7	Sololá	717	San Juan la Laguna	12	San Juan la Laguna	5	Mayo	2023-05-24T00:00:00	2024-11-08T07:00:00	6	Velocidad del viento	1.6
55662	7	Sololá	717	San Juan la Laguna	12	San Juan la Laguna	5	Mayo	2023-05-24T00:00:00	2024-11-08T07:00:00	7	Dirección del viento	1.61
55663	7	Sololá	717	San Juan la Laguna	12	San Juan la Laguna	5	Mayo	2023-05-24T00:00:00	2024-11-08T07:00:00	1	Precipitación	0
55664	7	Sololá	717	San Juan la Laguna	12	San Juan la Laguna	5	Mayo	2023-05-24T00:00:00	2024-11-08T07:00:00	8	Radiación solar	74
55665	7	Sololá	717	San Juan la Laguna	12	San Juan la Laguna	5	Mayo	2023-05-24T00:00:00	2024-11-08T08:00:00	2	Temperatura media	20.4
55666	7	Sololá	717	San Juan la Laguna	12	San Juan la Laguna	5	Mayo	2023-05-24T00:00:00	2024-11-08T08:00:00	4	Temperatura máxima	20.7
55667	7	Sololá	717	San Juan la Laguna	12	San Juan la Laguna	5	Mayo	2023-05-24T00:00:00	2024-11-08T08:00:00	3	Temperatura mínima	17.2
55668	7	Sololá	717	San Juan la Laguna	12	San Juan la Laguna	5	Mayo	2023-05-24T00:00:00	2024-11-08T08:00:00	5	Humedad	78
55669	7	Sololá	717	San Juan la Laguna	12	San Juan la Laguna	5	Mayo	2023-05-24T00:00:00	2024-11-08T08:00:00	6	Velocidad del viento	0
55670	7	Sololá	717	San Juan la Laguna	12	San Juan la Laguna	5	Mayo	2023-05-24T00:00:00	2024-11-08T08:00:00	7	Dirección del viento	0
55671	7	Sololá	717	San Juan la Laguna	12	San Juan la Laguna	5	Mayo	2023-05-24T00:00:00	2024-11-08T08:00:00	1	Precipitación	0
55672	7	Sololá	717	San Juan la Laguna	12	San Juan la Laguna	5	Mayo	2023-05-24T00:00:00	2024-11-08T08:00:00	8	Radiación solar	264
55673	7	Sololá	717	San Juan la Laguna	12	San Juan la Laguna	5	Mayo	2023-05-24T00:00:00	2024-11-08T09:00:00	2	Temperatura media	21.9
55674	7	Sololá	717	San Juan la Laguna	12	San Juan la Laguna	5	Mayo	2023-05-24T00:00:00	2024-11-08T09:00:00	4	Temperatura máxima	22.2
55675	7	Sololá	717	San Juan la Laguna	12	San Juan la Laguna	5	Mayo	2023-05-24T00:00:00	2024-11-08T09:00:00	3	Temperatura mínima	20.3
55676	7	Sololá	717	San Juan la Laguna	12	San Juan la Laguna	5	Mayo	2023-05-24T00:00:00	2024-11-08T09:00:00	5	Humedad	72
55677	7	Sololá	717	San Juan la Laguna	12	San Juan la Laguna	5	Mayo	2023-05-24T00:00:00	2024-11-08T09:00:00	6	Velocidad del viento	1.6
55678	7	Sololá	717	San Juan la Laguna	12	San Juan la Laguna	5	Mayo	2023-05-24T00:00:00	2024-11-08T09:00:00	7	Dirección del viento	1.61
55679	7	Sololá	717	San Juan la Laguna	12	San Juan la Laguna	5	Mayo	2023-05-24T00:00:00	2024-11-08T09:00:00	1	Precipitación	0
55680	7	Sololá	717	San Juan la Laguna	12	San Juan la Laguna	5	Mayo	2023-05-24T00:00:00	2024-11-08T09:00:00	8	Radiación solar	547
55681	7	Sololá	717	San Juan la Laguna	12	San Juan la Laguna	5	Mayo	2023-05-24T00:00:00	2024-11-08T10:00:00	2	Temperatura media	22.3
55682	7	Sololá	717	San Juan la Laguna	12	San Juan la Laguna	5	Mayo	2023-05-24T00:00:00	2024-11-08T10:00:00	4	Temperatura máxima	22.3
55683	7	Sololá	717	San Juan la Laguna	12	San Juan la Laguna	5	Mayo	2023-05-24T00:00:00	2024-11-08T10:00:00	3	Temperatura mínima	21.7
55684	7	Sololá	717	San Juan la Laguna	12	San Juan la Laguna	5	Mayo	2023-05-24T00:00:00	2024-11-08T10:00:00	5	Humedad	69
55685	7	Sololá	717	San Juan la Laguna	12	San Juan la Laguna	5	Mayo	2023-05-24T00:00:00	2024-11-08T10:00:00	6	Velocidad del viento	3.2
55686	7	Sololá	717	San Juan la Laguna	12	San Juan la Laguna	5	Mayo	2023-05-24T00:00:00	2024-11-08T10:00:00	7	Dirección del viento	3.22
55687	7	Sololá	717	San Juan la Laguna	12	San Juan la Laguna	5	Mayo	2023-05-24T00:00:00	2024-11-08T10:00:00	1	Precipitación	0
55688	7	Sololá	717	San Juan la Laguna	12	San Juan la Laguna	5	Mayo	2023-05-24T00:00:00	2024-11-08T10:00:00	8	Radiación solar	695
55689	7	Sololá	717	San Juan la Laguna	12	San Juan la Laguna	5	Mayo	2023-05-24T00:00:00	2024-11-08T11:00:00	2	Temperatura media	23.2
55690	7	Sololá	717	San Juan la Laguna	12	San Juan la Laguna	5	Mayo	2023-05-24T00:00:00	2024-11-08T11:00:00	4	Temperatura máxima	23.5
55691	7	Sololá	717	San Juan la Laguna	12	San Juan la Laguna	5	Mayo	2023-05-24T00:00:00	2024-11-08T11:00:00	3	Temperatura mínima	22.3
55692	7	Sololá	717	San Juan la Laguna	12	San Juan la Laguna	5	Mayo	2023-05-24T00:00:00	2024-11-08T11:00:00	5	Humedad	69
55693	7	Sololá	717	San Juan la Laguna	12	San Juan la Laguna	5	Mayo	2023-05-24T00:00:00	2024-11-08T11:00:00	6	Velocidad del viento	1.6
55694	7	Sololá	717	San Juan la Laguna	12	San Juan la Laguna	5	Mayo	2023-05-24T00:00:00	2024-11-08T11:00:00	7	Dirección del viento	1.61
55695	7	Sololá	717	San Juan la Laguna	12	San Juan la Laguna	5	Mayo	2023-05-24T00:00:00	2024-11-08T11:00:00	1	Precipitación	0
55696	7	Sololá	717	San Juan la Laguna	12	San Juan la Laguna	5	Mayo	2023-05-24T00:00:00	2024-11-08T11:00:00	8	Radiación solar	864
55697	7	Sololá	717	San Juan la Laguna	12	San Juan la Laguna	5	Mayo	2023-05-24T00:00:00	2024-11-08T12:00:00	2	Temperatura media	25
55698	7	Sololá	717	San Juan la Laguna	12	San Juan la Laguna	5	Mayo	2023-05-24T00:00:00	2024-11-08T12:00:00	4	Temperatura máxima	25
55699	7	Sololá	717	San Juan la Laguna	12	San Juan la Laguna	5	Mayo	2023-05-24T00:00:00	2024-11-08T12:00:00	3	Temperatura mínima	23.2
55700	7	Sololá	717	San Juan la Laguna	12	San Juan la Laguna	5	Mayo	2023-05-24T00:00:00	2024-11-08T12:00:00	5	Humedad	53
55701	7	Sololá	717	San Juan la Laguna	12	San Juan la Laguna	5	Mayo	2023-05-24T00:00:00	2024-11-08T12:00:00	6	Velocidad del viento	1.6
55702	7	Sololá	717	San Juan la Laguna	12	San Juan la Laguna	5	Mayo	2023-05-24T00:00:00	2024-11-08T12:00:00	7	Dirección del viento	1.61
55703	7	Sololá	717	San Juan la Laguna	12	San Juan la Laguna	5	Mayo	2023-05-24T00:00:00	2024-11-08T12:00:00	1	Precipitación	0
55704	7	Sololá	717	San Juan la Laguna	12	San Juan la Laguna	5	Mayo	2023-05-24T00:00:00	2024-11-08T12:00:00	8	Radiación solar	923
55705	7	Sololá	717	San Juan la Laguna	12	San Juan la Laguna	5	Mayo	2023-05-24T00:00:00	2024-11-08T13:00:00	2	Temperatura media	24.5
55706	7	Sololá	717	San Juan la Laguna	12	San Juan la Laguna	5	Mayo	2023-05-24T00:00:00	2024-11-08T13:00:00	4	Temperatura máxima	25.6
55707	7	Sololá	717	San Juan la Laguna	12	San Juan la Laguna	5	Mayo	2023-05-24T00:00:00	2024-11-08T13:00:00	3	Temperatura mínima	24.1
55708	7	Sololá	717	San Juan la Laguna	12	San Juan la Laguna	5	Mayo	2023-05-24T00:00:00	2024-11-08T13:00:00	5	Humedad	65
55709	7	Sololá	717	San Juan la Laguna	12	San Juan la Laguna	5	Mayo	2023-05-24T00:00:00	2024-11-08T13:00:00	6	Velocidad del viento	4.8
55710	7	Sololá	717	San Juan la Laguna	12	San Juan la Laguna	5	Mayo	2023-05-24T00:00:00	2024-11-08T13:00:00	7	Dirección del viento	4.83
55711	7	Sololá	717	San Juan la Laguna	12	San Juan la Laguna	5	Mayo	2023-05-24T00:00:00	2024-11-08T13:00:00	1	Precipitación	0
55712	7	Sololá	717	San Juan la Laguna	12	San Juan la Laguna	5	Mayo	2023-05-24T00:00:00	2024-11-08T13:00:00	8	Radiación solar	955
55713	7	Sololá	717	San Juan la Laguna	12	San Juan la Laguna	5	Mayo	2023-05-24T00:00:00	2024-11-08T14:00:00	2	Temperatura media	24.8
55714	7	Sololá	717	San Juan la Laguna	12	San Juan la Laguna	5	Mayo	2023-05-24T00:00:00	2024-11-08T14:00:00	4	Temperatura máxima	25.3
55715	7	Sololá	717	San Juan la Laguna	12	San Juan la Laguna	5	Mayo	2023-05-24T00:00:00	2024-11-08T14:00:00	3	Temperatura mínima	24.5
55716	7	Sololá	717	San Juan la Laguna	12	San Juan la Laguna	5	Mayo	2023-05-24T00:00:00	2024-11-08T14:00:00	5	Humedad	66
55717	7	Sololá	717	San Juan la Laguna	12	San Juan la Laguna	5	Mayo	2023-05-24T00:00:00	2024-11-08T14:00:00	6	Velocidad del viento	6.4
55718	7	Sololá	717	San Juan la Laguna	12	San Juan la Laguna	5	Mayo	2023-05-24T00:00:00	2024-11-08T14:00:00	7	Dirección del viento	6.44
55719	7	Sololá	717	San Juan la Laguna	12	San Juan la Laguna	5	Mayo	2023-05-24T00:00:00	2024-11-08T14:00:00	1	Precipitación	0
55720	7	Sololá	717	San Juan la Laguna	12	San Juan la Laguna	5	Mayo	2023-05-24T00:00:00	2024-11-08T14:00:00	8	Radiación solar	894
55721	7	Sololá	717	San Juan la Laguna	12	San Juan la Laguna	5	Mayo	2023-05-24T00:00:00	2024-11-08T15:00:00	2	Temperatura media	24.2
55722	7	Sololá	717	San Juan la Laguna	12	San Juan la Laguna	5	Mayo	2023-05-24T00:00:00	2024-11-08T15:00:00	4	Temperatura máxima	25.3
55723	7	Sololá	717	San Juan la Laguna	12	San Juan la Laguna	5	Mayo	2023-05-24T00:00:00	2024-11-08T15:00:00	3	Temperatura mínima	23.9
55724	7	Sololá	717	San Juan la Laguna	12	San Juan la Laguna	5	Mayo	2023-05-24T00:00:00	2024-11-08T15:00:00	5	Humedad	70
55725	7	Sololá	717	San Juan la Laguna	12	San Juan la Laguna	5	Mayo	2023-05-24T00:00:00	2024-11-08T15:00:00	6	Velocidad del viento	6.4
55726	7	Sololá	717	San Juan la Laguna	12	San Juan la Laguna	5	Mayo	2023-05-24T00:00:00	2024-11-08T15:00:00	7	Dirección del viento	6.44
55727	7	Sololá	717	San Juan la Laguna	12	San Juan la Laguna	5	Mayo	2023-05-24T00:00:00	2024-11-08T15:00:00	1	Precipitación	0
55728	7	Sololá	717	San Juan la Laguna	12	San Juan la Laguna	5	Mayo	2023-05-24T00:00:00	2024-11-08T15:00:00	8	Radiación solar	767
55729	7	Sololá	717	San Juan la Laguna	12	San Juan la Laguna	5	Mayo	2023-05-24T00:00:00	2024-11-08T16:00:00	2	Temperatura media	22.7
55730	7	Sololá	717	San Juan la Laguna	12	San Juan la Laguna	5	Mayo	2023-05-24T00:00:00	2024-11-08T16:00:00	4	Temperatura máxima	24.3
55731	7	Sololá	717	San Juan la Laguna	12	San Juan la Laguna	5	Mayo	2023-05-24T00:00:00	2024-11-08T16:00:00	3	Temperatura mínima	22.7
55732	7	Sololá	717	San Juan la Laguna	12	San Juan la Laguna	5	Mayo	2023-05-24T00:00:00	2024-11-08T16:00:00	5	Humedad	74
55733	7	Sololá	717	San Juan la Laguna	12	San Juan la Laguna	5	Mayo	2023-05-24T00:00:00	2024-11-08T16:00:00	6	Velocidad del viento	6.4
55734	7	Sololá	717	San Juan la Laguna	12	San Juan la Laguna	5	Mayo	2023-05-24T00:00:00	2024-11-08T16:00:00	7	Dirección del viento	6.44
55735	7	Sololá	717	San Juan la Laguna	12	San Juan la Laguna	5	Mayo	2023-05-24T00:00:00	2024-11-08T16:00:00	1	Precipitación	0
55736	7	Sololá	717	San Juan la Laguna	12	San Juan la Laguna	5	Mayo	2023-05-24T00:00:00	2024-11-08T16:00:00	8	Radiación solar	347
55737	7	Sololá	717	San Juan la Laguna	12	San Juan la Laguna	5	Mayo	2023-05-24T00:00:00	2024-11-08T17:00:00	2	Temperatura media	23.2
55738	7	Sololá	717	San Juan la Laguna	12	San Juan la Laguna	5	Mayo	2023-05-24T00:00:00	2024-11-08T17:00:00	4	Temperatura máxima	23.2
55739	7	Sololá	717	San Juan la Laguna	12	San Juan la Laguna	5	Mayo	2023-05-24T00:00:00	2024-11-08T17:00:00	3	Temperatura mínima	22.1
55740	7	Sololá	717	San Juan la Laguna	12	San Juan la Laguna	5	Mayo	2023-05-24T00:00:00	2024-11-08T17:00:00	5	Humedad	72
55741	7	Sololá	717	San Juan la Laguna	12	San Juan la Laguna	5	Mayo	2023-05-24T00:00:00	2024-11-08T17:00:00	6	Velocidad del viento	3.2
55742	7	Sololá	717	San Juan la Laguna	12	San Juan la Laguna	5	Mayo	2023-05-24T00:00:00	2024-11-08T17:00:00	7	Dirección del viento	3.22
55743	7	Sololá	717	San Juan la Laguna	12	San Juan la Laguna	5	Mayo	2023-05-24T00:00:00	2024-11-08T17:00:00	1	Precipitación	0
55744	7	Sololá	717	San Juan la Laguna	12	San Juan la Laguna	5	Mayo	2023-05-24T00:00:00	2024-11-08T17:00:00	8	Radiación solar	146
55745	7	Sololá	717	San Juan la Laguna	12	San Juan la Laguna	5	Mayo	2023-05-24T00:00:00	2024-11-08T18:00:00	2	Temperatura media	21.7
55746	7	Sololá	717	San Juan la Laguna	12	San Juan la Laguna	5	Mayo	2023-05-24T00:00:00	2024-11-08T18:00:00	4	Temperatura máxima	23.6
55747	7	Sololá	717	San Juan la Laguna	12	San Juan la Laguna	5	Mayo	2023-05-24T00:00:00	2024-11-08T18:00:00	3	Temperatura mínima	21.7
55748	7	Sololá	717	San Juan la Laguna	12	San Juan la Laguna	5	Mayo	2023-05-24T00:00:00	2024-11-08T18:00:00	5	Humedad	80
55749	7	Sololá	717	San Juan la Laguna	12	San Juan la Laguna	5	Mayo	2023-05-24T00:00:00	2024-11-08T18:00:00	6	Velocidad del viento	1.6
55750	7	Sololá	717	San Juan la Laguna	12	San Juan la Laguna	5	Mayo	2023-05-24T00:00:00	2024-11-08T18:00:00	7	Dirección del viento	1.61
55751	7	Sololá	717	San Juan la Laguna	12	San Juan la Laguna	5	Mayo	2023-05-24T00:00:00	2024-11-08T18:00:00	1	Precipitación	0
55752	7	Sololá	717	San Juan la Laguna	12	San Juan la Laguna	5	Mayo	2023-05-24T00:00:00	2024-11-08T18:00:00	8	Radiación solar	81
55753	7	Sololá	717	San Juan la Laguna	12	San Juan la Laguna	5	Mayo	2023-05-24T00:00:00	2024-11-08T19:00:00	2	Temperatura media	21.1
55754	7	Sololá	717	San Juan la Laguna	12	San Juan la Laguna	5	Mayo	2023-05-24T00:00:00	2024-11-08T19:00:00	4	Temperatura máxima	21.6
55755	7	Sololá	717	San Juan la Laguna	12	San Juan la Laguna	5	Mayo	2023-05-24T00:00:00	2024-11-08T19:00:00	3	Temperatura mínima	21.1
55756	7	Sololá	717	San Juan la Laguna	12	San Juan la Laguna	5	Mayo	2023-05-24T00:00:00	2024-11-08T19:00:00	5	Humedad	82
55757	7	Sololá	717	San Juan la Laguna	12	San Juan la Laguna	5	Mayo	2023-05-24T00:00:00	2024-11-08T19:00:00	6	Velocidad del viento	3.2
55758	7	Sololá	717	San Juan la Laguna	12	San Juan la Laguna	5	Mayo	2023-05-24T00:00:00	2024-11-08T19:00:00	7	Dirección del viento	3.22
55759	7	Sololá	717	San Juan la Laguna	12	San Juan la Laguna	5	Mayo	2023-05-24T00:00:00	2024-11-08T19:00:00	1	Precipitación	0
55760	7	Sololá	717	San Juan la Laguna	12	San Juan la Laguna	5	Mayo	2023-05-24T00:00:00	2024-11-08T19:00:00	8	Radiación solar	0
55761	7	Sololá	717	San Juan la Laguna	12	San Juan la Laguna	5	Mayo	2023-05-24T00:00:00	2024-11-08T20:00:00	2	Temperatura media	21.2
55762	7	Sololá	717	San Juan la Laguna	12	San Juan la Laguna	5	Mayo	2023-05-24T00:00:00	2024-11-08T20:00:00	4	Temperatura máxima	21.2
55763	7	Sololá	717	San Juan la Laguna	12	San Juan la Laguna	5	Mayo	2023-05-24T00:00:00	2024-11-08T20:00:00	3	Temperatura mínima	20.9
55764	7	Sololá	717	San Juan la Laguna	12	San Juan la Laguna	5	Mayo	2023-05-24T00:00:00	2024-11-08T20:00:00	5	Humedad	81
55765	7	Sololá	717	San Juan la Laguna	12	San Juan la Laguna	5	Mayo	2023-05-24T00:00:00	2024-11-08T20:00:00	6	Velocidad del viento	3.2
55766	7	Sololá	717	San Juan la Laguna	12	San Juan la Laguna	5	Mayo	2023-05-24T00:00:00	2024-11-08T20:00:00	7	Dirección del viento	3.22
55767	7	Sololá	717	San Juan la Laguna	12	San Juan la Laguna	5	Mayo	2023-05-24T00:00:00	2024-11-08T20:00:00	1	Precipitación	0
55768	7	Sololá	717	San Juan la Laguna	12	San Juan la Laguna	5	Mayo	2023-05-24T00:00:00	2024-11-08T20:00:00	8	Radiación solar	0
55769	7	Sololá	717	San Juan la Laguna	12	San Juan la Laguna	5	Mayo	2023-05-24T00:00:00	2024-11-08T21:00:00	2	Temperatura media	21
55770	7	Sololá	717	San Juan la Laguna	12	San Juan la Laguna	5	Mayo	2023-05-24T00:00:00	2024-11-08T21:00:00	4	Temperatura máxima	21.2
55771	7	Sololá	717	San Juan la Laguna	12	San Juan la Laguna	5	Mayo	2023-05-24T00:00:00	2024-11-08T21:00:00	3	Temperatura mínima	20.9
55772	7	Sololá	717	San Juan la Laguna	12	San Juan la Laguna	5	Mayo	2023-05-24T00:00:00	2024-11-08T21:00:00	5	Humedad	81
55773	7	Sololá	717	San Juan la Laguna	12	San Juan la Laguna	5	Mayo	2023-05-24T00:00:00	2024-11-08T21:00:00	6	Velocidad del viento	1.6
55774	7	Sololá	717	San Juan la Laguna	12	San Juan la Laguna	5	Mayo	2023-05-24T00:00:00	2024-11-08T21:00:00	7	Dirección del viento	1.61
55775	7	Sololá	717	San Juan la Laguna	12	San Juan la Laguna	5	Mayo	2023-05-24T00:00:00	2024-11-08T21:00:00	1	Precipitación	0
55776	7	Sololá	717	San Juan la Laguna	12	San Juan la Laguna	5	Mayo	2023-05-24T00:00:00	2024-11-08T21:00:00	8	Radiación solar	0
55777	7	Sololá	717	San Juan la Laguna	12	San Juan la Laguna	5	Mayo	2023-05-24T00:00:00	2024-11-08T22:00:00	2	Temperatura media	20.3
55778	7	Sololá	717	San Juan la Laguna	12	San Juan la Laguna	5	Mayo	2023-05-24T00:00:00	2024-11-08T22:00:00	4	Temperatura máxima	21
55779	7	Sololá	717	San Juan la Laguna	12	San Juan la Laguna	5	Mayo	2023-05-24T00:00:00	2024-11-08T22:00:00	3	Temperatura mínima	20.2
55780	7	Sololá	717	San Juan la Laguna	12	San Juan la Laguna	5	Mayo	2023-05-24T00:00:00	2024-11-08T22:00:00	5	Humedad	84
55781	7	Sololá	717	San Juan la Laguna	12	San Juan la Laguna	5	Mayo	2023-05-24T00:00:00	2024-11-08T22:00:00	6	Velocidad del viento	1.6
55782	7	Sololá	717	San Juan la Laguna	12	San Juan la Laguna	5	Mayo	2023-05-24T00:00:00	2024-11-08T22:00:00	7	Dirección del viento	1.61
55783	7	Sololá	717	San Juan la Laguna	12	San Juan la Laguna	5	Mayo	2023-05-24T00:00:00	2024-11-08T22:00:00	1	Precipitación	0
55784	7	Sololá	717	San Juan la Laguna	12	San Juan la Laguna	5	Mayo	2023-05-24T00:00:00	2024-11-08T22:00:00	8	Radiación solar	0
55785	7	Sololá	717	San Juan la Laguna	12	San Juan la Laguna	5	Mayo	2023-05-24T00:00:00	2024-11-08T23:00:00	2	Temperatura media	20.2
55786	7	Sololá	717	San Juan la Laguna	12	San Juan la Laguna	5	Mayo	2023-05-24T00:00:00	2024-11-08T23:00:00	4	Temperatura máxima	20.4
55787	7	Sololá	717	San Juan la Laguna	12	San Juan la Laguna	5	Mayo	2023-05-24T00:00:00	2024-11-08T23:00:00	3	Temperatura mínima	20.1
55788	7	Sololá	717	San Juan la Laguna	12	San Juan la Laguna	5	Mayo	2023-05-24T00:00:00	2024-11-08T23:00:00	5	Humedad	84
55789	7	Sololá	717	San Juan la Laguna	12	San Juan la Laguna	5	Mayo	2023-05-24T00:00:00	2024-11-08T23:00:00	6	Velocidad del viento	0
55790	7	Sololá	717	San Juan la Laguna	12	San Juan la Laguna	5	Mayo	2023-05-24T00:00:00	2024-11-08T23:00:00	7	Dirección del viento	0
55791	7	Sololá	717	San Juan la Laguna	12	San Juan la Laguna	5	Mayo	2023-05-24T00:00:00	2024-11-08T23:00:00	1	Precipitación	0
55792	7	Sololá	717	San Juan la Laguna	12	San Juan la Laguna	5	Mayo	2023-05-24T00:00:00	2024-11-08T23:00:00	8	Radiación solar	0
55793	7	Sololá	717	San Juan la Laguna	12	San Juan la Laguna	5	Mayo	2023-05-25T00:00:00	2024-11-08T00:00:00	2	Temperatura media	19.9
55794	7	Sololá	717	San Juan la Laguna	12	San Juan la Laguna	5	Mayo	2023-05-25T00:00:00	2024-11-08T00:00:00	4	Temperatura máxima	20.4
55795	7	Sololá	717	San Juan la Laguna	12	San Juan la Laguna	5	Mayo	2023-05-25T00:00:00	2024-11-08T00:00:00	3	Temperatura mínima	19.9
55796	7	Sololá	717	San Juan la Laguna	12	San Juan la Laguna	5	Mayo	2023-05-25T00:00:00	2024-11-08T00:00:00	5	Humedad	85
55797	7	Sololá	717	San Juan la Laguna	12	San Juan la Laguna	5	Mayo	2023-05-25T00:00:00	2024-11-08T00:00:00	6	Velocidad del viento	0
55798	7	Sololá	717	San Juan la Laguna	12	San Juan la Laguna	5	Mayo	2023-05-25T00:00:00	2024-11-08T00:00:00	7	Dirección del viento	0
55799	7	Sololá	717	San Juan la Laguna	12	San Juan la Laguna	5	Mayo	2023-05-25T00:00:00	2024-11-08T00:00:00	1	Precipitación	0
55800	7	Sololá	717	San Juan la Laguna	12	San Juan la Laguna	5	Mayo	2023-05-25T00:00:00	2024-11-08T00:00:00	8	Radiación solar	0
55801	7	Sololá	717	San Juan la Laguna	12	San Juan la Laguna	5	Mayo	2023-05-25T00:00:00	2024-11-08T01:00:00	2	Temperatura media	19.4
55802	7	Sololá	717	San Juan la Laguna	12	San Juan la Laguna	5	Mayo	2023-05-25T00:00:00	2024-11-08T01:00:00	4	Temperatura máxima	19.9
55803	7	Sololá	717	San Juan la Laguna	12	San Juan la Laguna	5	Mayo	2023-05-25T00:00:00	2024-11-08T01:00:00	3	Temperatura mínima	19.4
55804	7	Sololá	717	San Juan la Laguna	12	San Juan la Laguna	5	Mayo	2023-05-25T00:00:00	2024-11-08T01:00:00	5	Humedad	87
55805	7	Sololá	717	San Juan la Laguna	12	San Juan la Laguna	5	Mayo	2023-05-25T00:00:00	2024-11-08T01:00:00	6	Velocidad del viento	0
55806	7	Sololá	717	San Juan la Laguna	12	San Juan la Laguna	5	Mayo	2023-05-25T00:00:00	2024-11-08T01:00:00	7	Dirección del viento	0
55807	7	Sololá	717	San Juan la Laguna	12	San Juan la Laguna	5	Mayo	2023-05-25T00:00:00	2024-11-08T01:00:00	1	Precipitación	0
55808	7	Sololá	717	San Juan la Laguna	12	San Juan la Laguna	5	Mayo	2023-05-25T00:00:00	2024-11-08T01:00:00	8	Radiación solar	0
55809	7	Sololá	717	San Juan la Laguna	12	San Juan la Laguna	5	Mayo	2023-05-25T00:00:00	2024-11-08T02:00:00	2	Temperatura media	18.3
55810	7	Sololá	717	San Juan la Laguna	12	San Juan la Laguna	5	Mayo	2023-05-25T00:00:00	2024-11-08T02:00:00	4	Temperatura máxima	19.5
55811	7	Sololá	717	San Juan la Laguna	12	San Juan la Laguna	5	Mayo	2023-05-25T00:00:00	2024-11-08T02:00:00	3	Temperatura mínima	18.3
55812	7	Sololá	717	San Juan la Laguna	12	San Juan la Laguna	5	Mayo	2023-05-25T00:00:00	2024-11-08T02:00:00	5	Humedad	90
55813	7	Sololá	717	San Juan la Laguna	12	San Juan la Laguna	5	Mayo	2023-05-25T00:00:00	2024-11-08T02:00:00	6	Velocidad del viento	0
55814	7	Sololá	717	San Juan la Laguna	12	San Juan la Laguna	5	Mayo	2023-05-25T00:00:00	2024-11-08T02:00:00	7	Dirección del viento	0
55815	7	Sololá	717	San Juan la Laguna	12	San Juan la Laguna	5	Mayo	2023-05-25T00:00:00	2024-11-08T02:00:00	1	Precipitación	0
55816	7	Sololá	717	San Juan la Laguna	12	San Juan la Laguna	5	Mayo	2023-05-25T00:00:00	2024-11-08T02:00:00	8	Radiación solar	0
55817	7	Sololá	717	San Juan la Laguna	12	San Juan la Laguna	5	Mayo	2023-05-25T00:00:00	2024-11-08T03:00:00	2	Temperatura media	17.5
55818	7	Sololá	717	San Juan la Laguna	12	San Juan la Laguna	5	Mayo	2023-05-25T00:00:00	2024-11-08T03:00:00	4	Temperatura máxima	18.3
55819	7	Sololá	717	San Juan la Laguna	12	San Juan la Laguna	5	Mayo	2023-05-25T00:00:00	2024-11-08T03:00:00	3	Temperatura mínima	17.5
55820	7	Sololá	717	San Juan la Laguna	12	San Juan la Laguna	5	Mayo	2023-05-25T00:00:00	2024-11-08T03:00:00	5	Humedad	89
55821	7	Sololá	717	San Juan la Laguna	12	San Juan la Laguna	5	Mayo	2023-05-25T00:00:00	2024-11-08T03:00:00	6	Velocidad del viento	1.6
55822	7	Sololá	717	San Juan la Laguna	12	San Juan la Laguna	5	Mayo	2023-05-25T00:00:00	2024-11-08T03:00:00	7	Dirección del viento	1.61
55823	7	Sololá	717	San Juan la Laguna	12	San Juan la Laguna	5	Mayo	2023-05-25T00:00:00	2024-11-08T03:00:00	1	Precipitación	0
55824	7	Sololá	717	San Juan la Laguna	12	San Juan la Laguna	5	Mayo	2023-05-25T00:00:00	2024-11-08T03:00:00	8	Radiación solar	0
55825	7	Sololá	717	San Juan la Laguna	12	San Juan la Laguna	5	Mayo	2023-05-25T00:00:00	2024-11-08T04:00:00	2	Temperatura media	17.3
55826	7	Sololá	717	San Juan la Laguna	12	San Juan la Laguna	5	Mayo	2023-05-25T00:00:00	2024-11-08T04:00:00	4	Temperatura máxima	17.5
55827	7	Sololá	717	San Juan la Laguna	12	San Juan la Laguna	5	Mayo	2023-05-25T00:00:00	2024-11-08T04:00:00	3	Temperatura mínima	17.2
55828	7	Sololá	717	San Juan la Laguna	12	San Juan la Laguna	5	Mayo	2023-05-25T00:00:00	2024-11-08T04:00:00	5	Humedad	86
55829	7	Sololá	717	San Juan la Laguna	12	San Juan la Laguna	5	Mayo	2023-05-25T00:00:00	2024-11-08T04:00:00	6	Velocidad del viento	3.2
55830	7	Sololá	717	San Juan la Laguna	12	San Juan la Laguna	5	Mayo	2023-05-25T00:00:00	2024-11-08T04:00:00	7	Dirección del viento	3.22
55831	7	Sololá	717	San Juan la Laguna	12	San Juan la Laguna	5	Mayo	2023-05-25T00:00:00	2024-11-08T04:00:00	1	Precipitación	0
55832	7	Sololá	717	San Juan la Laguna	12	San Juan la Laguna	5	Mayo	2023-05-25T00:00:00	2024-11-08T04:00:00	8	Radiación solar	0
55833	7	Sololá	717	San Juan la Laguna	12	San Juan la Laguna	5	Mayo	2023-05-25T00:00:00	2024-11-08T05:00:00	2	Temperatura media	16.9
55834	7	Sololá	717	San Juan la Laguna	12	San Juan la Laguna	5	Mayo	2023-05-25T00:00:00	2024-11-08T05:00:00	4	Temperatura máxima	17.4
55835	7	Sololá	717	San Juan la Laguna	12	San Juan la Laguna	5	Mayo	2023-05-25T00:00:00	2024-11-08T05:00:00	3	Temperatura mínima	16.9
55836	7	Sololá	717	San Juan la Laguna	12	San Juan la Laguna	5	Mayo	2023-05-25T00:00:00	2024-11-08T05:00:00	5	Humedad	85
55837	7	Sololá	717	San Juan la Laguna	12	San Juan la Laguna	5	Mayo	2023-05-25T00:00:00	2024-11-08T05:00:00	6	Velocidad del viento	3.2
55838	7	Sololá	717	San Juan la Laguna	12	San Juan la Laguna	5	Mayo	2023-05-25T00:00:00	2024-11-08T05:00:00	7	Dirección del viento	3.22
55839	7	Sololá	717	San Juan la Laguna	12	San Juan la Laguna	5	Mayo	2023-05-25T00:00:00	2024-11-08T05:00:00	1	Precipitación	0
55840	7	Sololá	717	San Juan la Laguna	12	San Juan la Laguna	5	Mayo	2023-05-25T00:00:00	2024-11-08T05:00:00	8	Radiación solar	0
55841	7	Sololá	717	San Juan la Laguna	12	San Juan la Laguna	5	Mayo	2023-05-25T00:00:00	2024-11-08T06:00:00	2	Temperatura media	17.1
55842	7	Sololá	717	San Juan la Laguna	12	San Juan la Laguna	5	Mayo	2023-05-25T00:00:00	2024-11-08T06:00:00	4	Temperatura máxima	17.1
55843	7	Sololá	717	San Juan la Laguna	12	San Juan la Laguna	5	Mayo	2023-05-25T00:00:00	2024-11-08T06:00:00	3	Temperatura mínima	16.9
55844	7	Sololá	717	San Juan la Laguna	12	San Juan la Laguna	5	Mayo	2023-05-25T00:00:00	2024-11-08T06:00:00	5	Humedad	85
55845	7	Sololá	717	San Juan la Laguna	12	San Juan la Laguna	5	Mayo	2023-05-25T00:00:00	2024-11-08T06:00:00	6	Velocidad del viento	3.2
55846	7	Sololá	717	San Juan la Laguna	12	San Juan la Laguna	5	Mayo	2023-05-25T00:00:00	2024-11-08T06:00:00	7	Dirección del viento	3.22
55847	7	Sololá	717	San Juan la Laguna	12	San Juan la Laguna	5	Mayo	2023-05-25T00:00:00	2024-11-08T06:00:00	1	Precipitación	0
55848	7	Sololá	717	San Juan la Laguna	12	San Juan la Laguna	5	Mayo	2023-05-25T00:00:00	2024-11-08T06:00:00	8	Radiación solar	9
55849	7	Sololá	717	San Juan la Laguna	12	San Juan la Laguna	5	Mayo	2023-05-25T00:00:00	2024-11-08T07:00:00	2	Temperatura media	18.5
55850	7	Sololá	717	San Juan la Laguna	12	San Juan la Laguna	5	Mayo	2023-05-25T00:00:00	2024-11-08T07:00:00	4	Temperatura máxima	18.5
55851	7	Sololá	717	San Juan la Laguna	12	San Juan la Laguna	5	Mayo	2023-05-25T00:00:00	2024-11-08T07:00:00	3	Temperatura mínima	17.1
55852	7	Sololá	717	San Juan la Laguna	12	San Juan la Laguna	5	Mayo	2023-05-25T00:00:00	2024-11-08T07:00:00	5	Humedad	83
55853	7	Sololá	717	San Juan la Laguna	12	San Juan la Laguna	5	Mayo	2023-05-25T00:00:00	2024-11-08T07:00:00	6	Velocidad del viento	1.6
55854	7	Sololá	717	San Juan la Laguna	12	San Juan la Laguna	5	Mayo	2023-05-25T00:00:00	2024-11-08T07:00:00	7	Dirección del viento	1.61
55855	7	Sololá	717	San Juan la Laguna	12	San Juan la Laguna	5	Mayo	2023-05-25T00:00:00	2024-11-08T07:00:00	1	Precipitación	0
55856	7	Sololá	717	San Juan la Laguna	12	San Juan la Laguna	5	Mayo	2023-05-25T00:00:00	2024-11-08T07:00:00	8	Radiación solar	94
55857	7	Sololá	717	San Juan la Laguna	12	San Juan la Laguna	5	Mayo	2023-05-25T00:00:00	2024-11-08T08:00:00	2	Temperatura media	21.3
55858	7	Sololá	717	San Juan la Laguna	12	San Juan la Laguna	5	Mayo	2023-05-25T00:00:00	2024-11-08T08:00:00	4	Temperatura máxima	21.3
55859	7	Sololá	717	San Juan la Laguna	12	San Juan la Laguna	5	Mayo	2023-05-25T00:00:00	2024-11-08T08:00:00	3	Temperatura mínima	18.5
55860	7	Sololá	717	San Juan la Laguna	12	San Juan la Laguna	5	Mayo	2023-05-25T00:00:00	2024-11-08T08:00:00	5	Humedad	77
55861	7	Sololá	717	San Juan la Laguna	12	San Juan la Laguna	5	Mayo	2023-05-25T00:00:00	2024-11-08T08:00:00	6	Velocidad del viento	0
55862	7	Sololá	717	San Juan la Laguna	12	San Juan la Laguna	5	Mayo	2023-05-25T00:00:00	2024-11-08T08:00:00	7	Dirección del viento	0
55863	7	Sololá	717	San Juan la Laguna	12	San Juan la Laguna	5	Mayo	2023-05-25T00:00:00	2024-11-08T08:00:00	1	Precipitación	0
55864	7	Sololá	717	San Juan la Laguna	12	San Juan la Laguna	5	Mayo	2023-05-25T00:00:00	2024-11-08T08:00:00	8	Radiación solar	274
55865	7	Sololá	717	San Juan la Laguna	12	San Juan la Laguna	5	Mayo	2023-05-25T00:00:00	2024-11-08T09:00:00	2	Temperatura media	22.1
55866	7	Sololá	717	San Juan la Laguna	12	San Juan la Laguna	5	Mayo	2023-05-25T00:00:00	2024-11-08T09:00:00	4	Temperatura máxima	22.3
55867	7	Sololá	717	San Juan la Laguna	12	San Juan la Laguna	5	Mayo	2023-05-25T00:00:00	2024-11-08T09:00:00	3	Temperatura mínima	21.3
55868	7	Sololá	717	San Juan la Laguna	12	San Juan la Laguna	5	Mayo	2023-05-25T00:00:00	2024-11-08T09:00:00	5	Humedad	74
55869	7	Sololá	717	San Juan la Laguna	12	San Juan la Laguna	5	Mayo	2023-05-25T00:00:00	2024-11-08T09:00:00	6	Velocidad del viento	1.6
55870	7	Sololá	717	San Juan la Laguna	12	San Juan la Laguna	5	Mayo	2023-05-25T00:00:00	2024-11-08T09:00:00	7	Dirección del viento	1.61
55871	7	Sololá	717	San Juan la Laguna	12	San Juan la Laguna	5	Mayo	2023-05-25T00:00:00	2024-11-08T09:00:00	1	Precipitación	0
55872	7	Sololá	717	San Juan la Laguna	12	San Juan la Laguna	5	Mayo	2023-05-25T00:00:00	2024-11-08T09:00:00	8	Radiación solar	523
55873	7	Sololá	717	San Juan la Laguna	12	San Juan la Laguna	5	Mayo	2023-05-25T00:00:00	2024-11-08T10:00:00	2	Temperatura media	24.6
55874	7	Sololá	717	San Juan la Laguna	12	San Juan la Laguna	5	Mayo	2023-05-25T00:00:00	2024-11-08T10:00:00	4	Temperatura máxima	24.6
55875	7	Sololá	717	San Juan la Laguna	12	San Juan la Laguna	5	Mayo	2023-05-25T00:00:00	2024-11-08T10:00:00	3	Temperatura mínima	22.1
55876	7	Sololá	717	San Juan la Laguna	12	San Juan la Laguna	5	Mayo	2023-05-25T00:00:00	2024-11-08T10:00:00	5	Humedad	55
55877	7	Sololá	717	San Juan la Laguna	12	San Juan la Laguna	5	Mayo	2023-05-25T00:00:00	2024-11-08T10:00:00	6	Velocidad del viento	1.6
55878	7	Sololá	717	San Juan la Laguna	12	San Juan la Laguna	5	Mayo	2023-05-25T00:00:00	2024-11-08T10:00:00	7	Dirección del viento	1.61
55879	7	Sololá	717	San Juan la Laguna	12	San Juan la Laguna	5	Mayo	2023-05-25T00:00:00	2024-11-08T10:00:00	1	Precipitación	0
55880	7	Sololá	717	San Juan la Laguna	12	San Juan la Laguna	5	Mayo	2023-05-25T00:00:00	2024-11-08T10:00:00	8	Radiación solar	715
55881	7	Sololá	717	San Juan la Laguna	12	San Juan la Laguna	5	Mayo	2023-05-25T00:00:00	2024-11-08T11:00:00	2	Temperatura media	24.9
55882	7	Sololá	717	San Juan la Laguna	12	San Juan la Laguna	5	Mayo	2023-05-25T00:00:00	2024-11-08T11:00:00	4	Temperatura máxima	25.2
55883	7	Sololá	717	San Juan la Laguna	12	San Juan la Laguna	5	Mayo	2023-05-25T00:00:00	2024-11-08T11:00:00	3	Temperatura mínima	24.2
55884	7	Sololá	717	San Juan la Laguna	12	San Juan la Laguna	5	Mayo	2023-05-25T00:00:00	2024-11-08T11:00:00	5	Humedad	58
55885	7	Sololá	717	San Juan la Laguna	12	San Juan la Laguna	5	Mayo	2023-05-25T00:00:00	2024-11-08T11:00:00	6	Velocidad del viento	3.2
55886	7	Sololá	717	San Juan la Laguna	12	San Juan la Laguna	5	Mayo	2023-05-25T00:00:00	2024-11-08T11:00:00	7	Dirección del viento	3.22
55887	7	Sololá	717	San Juan la Laguna	12	San Juan la Laguna	5	Mayo	2023-05-25T00:00:00	2024-11-08T11:00:00	1	Precipitación	0
55888	7	Sololá	717	San Juan la Laguna	12	San Juan la Laguna	5	Mayo	2023-05-25T00:00:00	2024-11-08T11:00:00	8	Radiación solar	837
55889	7	Sololá	717	San Juan la Laguna	12	San Juan la Laguna	5	Mayo	2023-05-25T00:00:00	2024-11-08T12:00:00	2	Temperatura media	25.2
55890	7	Sololá	717	San Juan la Laguna	12	San Juan la Laguna	5	Mayo	2023-05-25T00:00:00	2024-11-08T12:00:00	4	Temperatura máxima	25.7
55891	7	Sololá	717	San Juan la Laguna	12	San Juan la Laguna	5	Mayo	2023-05-25T00:00:00	2024-11-08T12:00:00	3	Temperatura mínima	24.6
55892	7	Sololá	717	San Juan la Laguna	12	San Juan la Laguna	5	Mayo	2023-05-25T00:00:00	2024-11-08T12:00:00	5	Humedad	59
55893	7	Sololá	717	San Juan la Laguna	12	San Juan la Laguna	5	Mayo	2023-05-25T00:00:00	2024-11-08T12:00:00	6	Velocidad del viento	3.2
55894	7	Sololá	717	San Juan la Laguna	12	San Juan la Laguna	5	Mayo	2023-05-25T00:00:00	2024-11-08T12:00:00	7	Dirección del viento	3.22
55895	7	Sololá	717	San Juan la Laguna	12	San Juan la Laguna	5	Mayo	2023-05-25T00:00:00	2024-11-08T12:00:00	1	Precipitación	0
55896	7	Sololá	717	San Juan la Laguna	12	San Juan la Laguna	5	Mayo	2023-05-25T00:00:00	2024-11-08T12:00:00	8	Radiación solar	798
55897	7	Sololá	717	San Juan la Laguna	12	San Juan la Laguna	5	Mayo	2023-05-25T00:00:00	2024-11-08T13:00:00	2	Temperatura media	24.8
55898	7	Sololá	717	San Juan la Laguna	12	San Juan la Laguna	5	Mayo	2023-05-25T00:00:00	2024-11-08T13:00:00	4	Temperatura máxima	25.8
55899	7	Sololá	717	San Juan la Laguna	12	San Juan la Laguna	5	Mayo	2023-05-25T00:00:00	2024-11-08T13:00:00	3	Temperatura mínima	24.2
55900	7	Sololá	717	San Juan la Laguna	12	San Juan la Laguna	5	Mayo	2023-05-25T00:00:00	2024-11-08T13:00:00	5	Humedad	67
55901	7	Sololá	717	San Juan la Laguna	12	San Juan la Laguna	5	Mayo	2023-05-25T00:00:00	2024-11-08T13:00:00	6	Velocidad del viento	6.4
55902	7	Sololá	717	San Juan la Laguna	12	San Juan la Laguna	5	Mayo	2023-05-25T00:00:00	2024-11-08T13:00:00	7	Dirección del viento	6.44
55903	7	Sololá	717	San Juan la Laguna	12	San Juan la Laguna	5	Mayo	2023-05-25T00:00:00	2024-11-08T13:00:00	1	Precipitación	0
55904	7	Sololá	717	San Juan la Laguna	12	San Juan la Laguna	5	Mayo	2023-05-25T00:00:00	2024-11-08T13:00:00	8	Radiación solar	921
55905	7	Sololá	717	San Juan la Laguna	12	San Juan la Laguna	5	Mayo	2023-05-25T00:00:00	2024-11-08T14:00:00	2	Temperatura media	24.7
55906	7	Sololá	717	San Juan la Laguna	12	San Juan la Laguna	5	Mayo	2023-05-25T00:00:00	2024-11-08T14:00:00	4	Temperatura máxima	24.9
55907	7	Sololá	717	San Juan la Laguna	12	San Juan la Laguna	5	Mayo	2023-05-25T00:00:00	2024-11-08T14:00:00	3	Temperatura mínima	24.3
55908	7	Sololá	717	San Juan la Laguna	12	San Juan la Laguna	5	Mayo	2023-05-25T00:00:00	2024-11-08T14:00:00	5	Humedad	67
55909	7	Sololá	717	San Juan la Laguna	12	San Juan la Laguna	5	Mayo	2023-05-25T00:00:00	2024-11-08T14:00:00	6	Velocidad del viento	6.4
55910	7	Sololá	717	San Juan la Laguna	12	San Juan la Laguna	5	Mayo	2023-05-25T00:00:00	2024-11-08T14:00:00	7	Dirección del viento	6.44
55911	7	Sololá	717	San Juan la Laguna	12	San Juan la Laguna	5	Mayo	2023-05-25T00:00:00	2024-11-08T14:00:00	1	Precipitación	0
55912	7	Sololá	717	San Juan la Laguna	12	San Juan la Laguna	5	Mayo	2023-05-25T00:00:00	2024-11-08T14:00:00	8	Radiación solar	959
55913	7	Sololá	717	San Juan la Laguna	12	San Juan la Laguna	5	Mayo	2023-05-25T00:00:00	2024-11-08T15:00:00	2	Temperatura media	24.2
55914	7	Sololá	717	San Juan la Laguna	12	San Juan la Laguna	5	Mayo	2023-05-25T00:00:00	2024-11-08T15:00:00	4	Temperatura máxima	25.3
55915	7	Sololá	717	San Juan la Laguna	12	San Juan la Laguna	5	Mayo	2023-05-25T00:00:00	2024-11-08T15:00:00	3	Temperatura mínima	23.9
55916	7	Sololá	717	San Juan la Laguna	12	San Juan la Laguna	5	Mayo	2023-05-25T00:00:00	2024-11-08T15:00:00	5	Humedad	69
55917	7	Sololá	717	San Juan la Laguna	12	San Juan la Laguna	5	Mayo	2023-05-25T00:00:00	2024-11-08T15:00:00	6	Velocidad del viento	6.4
55918	7	Sololá	717	San Juan la Laguna	12	San Juan la Laguna	5	Mayo	2023-05-25T00:00:00	2024-11-08T15:00:00	7	Dirección del viento	6.44
55919	7	Sololá	717	San Juan la Laguna	12	San Juan la Laguna	5	Mayo	2023-05-25T00:00:00	2024-11-08T15:00:00	1	Precipitación	0
55920	7	Sololá	717	San Juan la Laguna	12	San Juan la Laguna	5	Mayo	2023-05-25T00:00:00	2024-11-08T15:00:00	8	Radiación solar	620
55921	7	Sololá	717	San Juan la Laguna	12	San Juan la Laguna	5	Mayo	2023-05-25T00:00:00	2024-11-08T16:00:00	2	Temperatura media	22.4
55922	7	Sololá	717	San Juan la Laguna	12	San Juan la Laguna	5	Mayo	2023-05-25T00:00:00	2024-11-08T16:00:00	4	Temperatura máxima	24.1
55923	7	Sololá	717	San Juan la Laguna	12	San Juan la Laguna	5	Mayo	2023-05-25T00:00:00	2024-11-08T16:00:00	3	Temperatura mínima	22.3
55924	7	Sololá	717	San Juan la Laguna	12	San Juan la Laguna	5	Mayo	2023-05-25T00:00:00	2024-11-08T16:00:00	5	Humedad	73
55925	7	Sololá	717	San Juan la Laguna	12	San Juan la Laguna	5	Mayo	2023-05-25T00:00:00	2024-11-08T16:00:00	6	Velocidad del viento	4.8
55926	7	Sololá	717	San Juan la Laguna	12	San Juan la Laguna	5	Mayo	2023-05-25T00:00:00	2024-11-08T16:00:00	7	Dirección del viento	4.83
55927	7	Sololá	717	San Juan la Laguna	12	San Juan la Laguna	5	Mayo	2023-05-25T00:00:00	2024-11-08T16:00:00	1	Precipitación	0
55928	7	Sololá	717	San Juan la Laguna	12	San Juan la Laguna	5	Mayo	2023-05-25T00:00:00	2024-11-08T16:00:00	8	Radiación solar	149
55929	7	Sololá	717	San Juan la Laguna	12	San Juan la Laguna	5	Mayo	2023-05-25T00:00:00	2024-11-08T17:00:00	2	Temperatura media	21.1
55930	7	Sololá	717	San Juan la Laguna	12	San Juan la Laguna	5	Mayo	2023-05-25T00:00:00	2024-11-08T17:00:00	4	Temperatura máxima	22.4
55931	7	Sololá	717	San Juan la Laguna	12	San Juan la Laguna	5	Mayo	2023-05-25T00:00:00	2024-11-08T17:00:00	3	Temperatura mínima	21.1
55932	7	Sololá	717	San Juan la Laguna	12	San Juan la Laguna	5	Mayo	2023-05-25T00:00:00	2024-11-08T17:00:00	5	Humedad	80
55933	7	Sololá	717	San Juan la Laguna	12	San Juan la Laguna	5	Mayo	2023-05-25T00:00:00	2024-11-08T17:00:00	6	Velocidad del viento	3.2
55934	7	Sololá	717	San Juan la Laguna	12	San Juan la Laguna	5	Mayo	2023-05-25T00:00:00	2024-11-08T17:00:00	7	Dirección del viento	3.22
55935	7	Sololá	717	San Juan la Laguna	12	San Juan la Laguna	5	Mayo	2023-05-25T00:00:00	2024-11-08T17:00:00	1	Precipitación	0
55936	7	Sololá	717	San Juan la Laguna	12	San Juan la Laguna	5	Mayo	2023-05-25T00:00:00	2024-11-08T17:00:00	8	Radiación solar	32
55937	7	Sololá	717	San Juan la Laguna	12	San Juan la Laguna	5	Mayo	2023-05-25T00:00:00	2024-11-08T18:00:00	2	Temperatura media	20.8
55938	7	Sololá	717	San Juan la Laguna	12	San Juan la Laguna	5	Mayo	2023-05-25T00:00:00	2024-11-08T18:00:00	4	Temperatura máxima	21.1
55939	7	Sololá	717	San Juan la Laguna	12	San Juan la Laguna	5	Mayo	2023-05-25T00:00:00	2024-11-08T18:00:00	3	Temperatura mínima	20.1
55940	7	Sololá	717	San Juan la Laguna	12	San Juan la Laguna	5	Mayo	2023-05-25T00:00:00	2024-11-08T18:00:00	5	Humedad	80
55941	7	Sololá	717	San Juan la Laguna	12	San Juan la Laguna	5	Mayo	2023-05-25T00:00:00	2024-11-08T18:00:00	6	Velocidad del viento	3.2
55942	7	Sololá	717	San Juan la Laguna	12	San Juan la Laguna	5	Mayo	2023-05-25T00:00:00	2024-11-08T18:00:00	7	Dirección del viento	3.22
55943	7	Sololá	717	San Juan la Laguna	12	San Juan la Laguna	5	Mayo	2023-05-25T00:00:00	2024-11-08T18:00:00	1	Precipitación	0
55944	7	Sololá	717	San Juan la Laguna	12	San Juan la Laguna	5	Mayo	2023-05-25T00:00:00	2024-11-08T18:00:00	8	Radiación solar	5
55945	7	Sololá	717	San Juan la Laguna	12	San Juan la Laguna	5	Mayo	2023-05-25T00:00:00	2024-11-08T19:00:00	2	Temperatura media	19.7
55946	7	Sololá	717	San Juan la Laguna	12	San Juan la Laguna	5	Mayo	2023-05-25T00:00:00	2024-11-08T19:00:00	4	Temperatura máxima	20.9
55947	7	Sololá	717	San Juan la Laguna	12	San Juan la Laguna	5	Mayo	2023-05-25T00:00:00	2024-11-08T19:00:00	3	Temperatura mínima	19.7
55948	7	Sololá	717	San Juan la Laguna	12	San Juan la Laguna	5	Mayo	2023-05-25T00:00:00	2024-11-08T19:00:00	5	Humedad	90
55949	7	Sololá	717	San Juan la Laguna	12	San Juan la Laguna	5	Mayo	2023-05-25T00:00:00	2024-11-08T19:00:00	6	Velocidad del viento	0
55950	7	Sololá	717	San Juan la Laguna	12	San Juan la Laguna	5	Mayo	2023-05-25T00:00:00	2024-11-08T19:00:00	7	Dirección del viento	0
55951	7	Sololá	717	San Juan la Laguna	12	San Juan la Laguna	5	Mayo	2023-05-25T00:00:00	2024-11-08T19:00:00	1	Precipitación	1.6
55952	7	Sololá	717	San Juan la Laguna	12	San Juan la Laguna	5	Mayo	2023-05-25T00:00:00	2024-11-08T19:00:00	8	Radiación solar	0
55953	7	Sololá	717	San Juan la Laguna	12	San Juan la Laguna	5	Mayo	2023-05-25T00:00:00	2024-11-08T20:00:00	2	Temperatura media	19.4
55954	7	Sololá	717	San Juan la Laguna	12	San Juan la Laguna	5	Mayo	2023-05-25T00:00:00	2024-11-08T20:00:00	4	Temperatura máxima	19.7
55955	7	Sololá	717	San Juan la Laguna	12	San Juan la Laguna	5	Mayo	2023-05-25T00:00:00	2024-11-08T20:00:00	3	Temperatura mínima	19.3
55956	7	Sololá	717	San Juan la Laguna	12	San Juan la Laguna	5	Mayo	2023-05-25T00:00:00	2024-11-08T20:00:00	5	Humedad	92
55957	7	Sololá	717	San Juan la Laguna	12	San Juan la Laguna	5	Mayo	2023-05-25T00:00:00	2024-11-08T20:00:00	6	Velocidad del viento	0
55958	7	Sololá	717	San Juan la Laguna	12	San Juan la Laguna	5	Mayo	2023-05-25T00:00:00	2024-11-08T20:00:00	7	Dirección del viento	0
55959	7	Sololá	717	San Juan la Laguna	12	San Juan la Laguna	5	Mayo	2023-05-25T00:00:00	2024-11-08T20:00:00	1	Precipitación	0
55960	7	Sololá	717	San Juan la Laguna	12	San Juan la Laguna	5	Mayo	2023-05-25T00:00:00	2024-11-08T20:00:00	8	Radiación solar	0
55961	7	Sololá	717	San Juan la Laguna	12	San Juan la Laguna	5	Mayo	2023-05-25T00:00:00	2024-11-08T21:00:00	2	Temperatura media	19.2
55962	7	Sololá	717	San Juan la Laguna	12	San Juan la Laguna	5	Mayo	2023-05-25T00:00:00	2024-11-08T21:00:00	4	Temperatura máxima	19.4
55963	7	Sololá	717	San Juan la Laguna	12	San Juan la Laguna	5	Mayo	2023-05-25T00:00:00	2024-11-08T21:00:00	3	Temperatura mínima	19.1
55964	7	Sololá	717	San Juan la Laguna	12	San Juan la Laguna	5	Mayo	2023-05-25T00:00:00	2024-11-08T21:00:00	5	Humedad	91
55965	7	Sololá	717	San Juan la Laguna	12	San Juan la Laguna	5	Mayo	2023-05-25T00:00:00	2024-11-08T21:00:00	6	Velocidad del viento	0
55966	7	Sololá	717	San Juan la Laguna	12	San Juan la Laguna	5	Mayo	2023-05-25T00:00:00	2024-11-08T21:00:00	7	Dirección del viento	0
55967	7	Sololá	717	San Juan la Laguna	12	San Juan la Laguna	5	Mayo	2023-05-25T00:00:00	2024-11-08T21:00:00	1	Precipitación	0
55968	7	Sololá	717	San Juan la Laguna	12	San Juan la Laguna	5	Mayo	2023-05-25T00:00:00	2024-11-08T21:00:00	8	Radiación solar	0
55969	7	Sololá	717	San Juan la Laguna	12	San Juan la Laguna	5	Mayo	2023-05-25T00:00:00	2024-11-08T22:00:00	2	Temperatura media	19
55970	7	Sololá	717	San Juan la Laguna	12	San Juan la Laguna	5	Mayo	2023-05-25T00:00:00	2024-11-08T22:00:00	4	Temperatura máxima	19.3
55971	7	Sololá	717	San Juan la Laguna	12	San Juan la Laguna	5	Mayo	2023-05-25T00:00:00	2024-11-08T22:00:00	3	Temperatura mínima	19
55972	7	Sololá	717	San Juan la Laguna	12	San Juan la Laguna	5	Mayo	2023-05-25T00:00:00	2024-11-08T22:00:00	5	Humedad	89
55973	7	Sololá	717	San Juan la Laguna	12	San Juan la Laguna	5	Mayo	2023-05-25T00:00:00	2024-11-08T22:00:00	6	Velocidad del viento	0
55974	7	Sololá	717	San Juan la Laguna	12	San Juan la Laguna	5	Mayo	2023-05-25T00:00:00	2024-11-08T22:00:00	7	Dirección del viento	0
55975	7	Sololá	717	San Juan la Laguna	12	San Juan la Laguna	5	Mayo	2023-05-25T00:00:00	2024-11-08T22:00:00	1	Precipitación	0
55976	7	Sololá	717	San Juan la Laguna	12	San Juan la Laguna	5	Mayo	2023-05-25T00:00:00	2024-11-08T22:00:00	8	Radiación solar	0
55977	7	Sololá	717	San Juan la Laguna	12	San Juan la Laguna	5	Mayo	2023-05-25T00:00:00	2024-11-08T23:00:00	2	Temperatura media	17.9
55978	7	Sololá	717	San Juan la Laguna	12	San Juan la Laguna	5	Mayo	2023-05-25T00:00:00	2024-11-08T23:00:00	4	Temperatura máxima	19.1
55979	7	Sololá	717	San Juan la Laguna	12	San Juan la Laguna	5	Mayo	2023-05-25T00:00:00	2024-11-08T23:00:00	3	Temperatura mínima	17.9
55980	7	Sololá	717	San Juan la Laguna	12	San Juan la Laguna	5	Mayo	2023-05-25T00:00:00	2024-11-08T23:00:00	5	Humedad	91
55981	7	Sololá	717	San Juan la Laguna	12	San Juan la Laguna	5	Mayo	2023-05-25T00:00:00	2024-11-08T23:00:00	6	Velocidad del viento	1.6
55982	7	Sololá	717	San Juan la Laguna	12	San Juan la Laguna	5	Mayo	2023-05-25T00:00:00	2024-11-08T23:00:00	7	Dirección del viento	1.61
55983	7	Sololá	717	San Juan la Laguna	12	San Juan la Laguna	5	Mayo	2023-05-25T00:00:00	2024-11-08T23:00:00	1	Precipitación	0
55984	7	Sololá	717	San Juan la Laguna	12	San Juan la Laguna	5	Mayo	2023-05-25T00:00:00	2024-11-08T23:00:00	8	Radiación solar	0
55985	7	Sololá	717	San Juan la Laguna	12	San Juan la Laguna	5	Mayo	2023-05-26T00:00:00	2024-11-08T00:00:00	2	Temperatura media	17.3
55986	7	Sololá	717	San Juan la Laguna	12	San Juan la Laguna	5	Mayo	2023-05-26T00:00:00	2024-11-08T00:00:00	4	Temperatura máxima	17.9
55987	7	Sololá	717	San Juan la Laguna	12	San Juan la Laguna	5	Mayo	2023-05-26T00:00:00	2024-11-08T00:00:00	3	Temperatura mínima	17.2
55988	7	Sololá	717	San Juan la Laguna	12	San Juan la Laguna	5	Mayo	2023-05-26T00:00:00	2024-11-08T00:00:00	5	Humedad	90
55989	7	Sololá	717	San Juan la Laguna	12	San Juan la Laguna	5	Mayo	2023-05-26T00:00:00	2024-11-08T00:00:00	6	Velocidad del viento	1.6
55990	7	Sololá	717	San Juan la Laguna	12	San Juan la Laguna	5	Mayo	2023-05-26T00:00:00	2024-11-08T00:00:00	7	Dirección del viento	1.61
55991	7	Sololá	717	San Juan la Laguna	12	San Juan la Laguna	5	Mayo	2023-05-26T00:00:00	2024-11-08T00:00:00	1	Precipitación	0
55992	7	Sololá	717	San Juan la Laguna	12	San Juan la Laguna	5	Mayo	2023-05-26T00:00:00	2024-11-08T00:00:00	8	Radiación solar	0
55993	7	Sololá	717	San Juan la Laguna	12	San Juan la Laguna	5	Mayo	2023-05-26T00:00:00	2024-11-08T01:00:00	2	Temperatura media	16.9
55994	7	Sololá	717	San Juan la Laguna	12	San Juan la Laguna	5	Mayo	2023-05-26T00:00:00	2024-11-08T01:00:00	4	Temperatura máxima	17.3
55995	7	Sololá	717	San Juan la Laguna	12	San Juan la Laguna	5	Mayo	2023-05-26T00:00:00	2024-11-08T01:00:00	3	Temperatura mínima	16.8
55996	7	Sololá	717	San Juan la Laguna	12	San Juan la Laguna	5	Mayo	2023-05-26T00:00:00	2024-11-08T01:00:00	5	Humedad	89
55997	7	Sololá	717	San Juan la Laguna	12	San Juan la Laguna	5	Mayo	2023-05-26T00:00:00	2024-11-08T01:00:00	6	Velocidad del viento	3.2
55998	7	Sololá	717	San Juan la Laguna	12	San Juan la Laguna	5	Mayo	2023-05-26T00:00:00	2024-11-08T01:00:00	7	Dirección del viento	3.22
55999	7	Sololá	717	San Juan la Laguna	12	San Juan la Laguna	5	Mayo	2023-05-26T00:00:00	2024-11-08T01:00:00	1	Precipitación	0
56000	7	Sololá	717	San Juan la Laguna	12	San Juan la Laguna	5	Mayo	2023-05-26T00:00:00	2024-11-08T01:00:00	8	Radiación solar	0
56001	7	Sololá	717	San Juan la Laguna	12	San Juan la Laguna	5	Mayo	2023-05-26T00:00:00	2024-11-08T02:00:00	2	Temperatura media	16.8
56002	7	Sololá	717	San Juan la Laguna	12	San Juan la Laguna	5	Mayo	2023-05-26T00:00:00	2024-11-08T02:00:00	4	Temperatura máxima	17.1
56003	7	Sololá	717	San Juan la Laguna	12	San Juan la Laguna	5	Mayo	2023-05-26T00:00:00	2024-11-08T02:00:00	3	Temperatura mínima	16.6
56004	7	Sololá	717	San Juan la Laguna	12	San Juan la Laguna	5	Mayo	2023-05-26T00:00:00	2024-11-08T02:00:00	5	Humedad	88
56005	7	Sololá	717	San Juan la Laguna	12	San Juan la Laguna	5	Mayo	2023-05-26T00:00:00	2024-11-08T02:00:00	6	Velocidad del viento	3.2
56006	7	Sololá	717	San Juan la Laguna	12	San Juan la Laguna	5	Mayo	2023-05-26T00:00:00	2024-11-08T02:00:00	7	Dirección del viento	3.22
56007	7	Sololá	717	San Juan la Laguna	12	San Juan la Laguna	5	Mayo	2023-05-26T00:00:00	2024-11-08T02:00:00	1	Precipitación	0
56008	7	Sololá	717	San Juan la Laguna	12	San Juan la Laguna	5	Mayo	2023-05-26T00:00:00	2024-11-08T02:00:00	8	Radiación solar	0
56009	7	Sololá	717	San Juan la Laguna	12	San Juan la Laguna	5	Mayo	2023-05-26T00:00:00	2024-11-08T03:00:00	2	Temperatura media	16.7
56010	7	Sololá	717	San Juan la Laguna	12	San Juan la Laguna	5	Mayo	2023-05-26T00:00:00	2024-11-08T03:00:00	4	Temperatura máxima	17
56011	7	Sololá	717	San Juan la Laguna	12	San Juan la Laguna	5	Mayo	2023-05-26T00:00:00	2024-11-08T03:00:00	3	Temperatura mínima	16.7
56012	7	Sololá	717	San Juan la Laguna	12	San Juan la Laguna	5	Mayo	2023-05-26T00:00:00	2024-11-08T03:00:00	5	Humedad	88
56013	7	Sololá	717	San Juan la Laguna	12	San Juan la Laguna	5	Mayo	2023-05-26T00:00:00	2024-11-08T03:00:00	6	Velocidad del viento	3.2
56014	7	Sololá	717	San Juan la Laguna	12	San Juan la Laguna	5	Mayo	2023-05-26T00:00:00	2024-11-08T03:00:00	7	Dirección del viento	3.22
56015	7	Sololá	717	San Juan la Laguna	12	San Juan la Laguna	5	Mayo	2023-05-26T00:00:00	2024-11-08T03:00:00	1	Precipitación	0
56016	7	Sololá	717	San Juan la Laguna	12	San Juan la Laguna	5	Mayo	2023-05-26T00:00:00	2024-11-08T03:00:00	8	Radiación solar	0
56017	7	Sololá	717	San Juan la Laguna	12	San Juan la Laguna	5	Mayo	2023-05-26T00:00:00	2024-11-08T04:00:00	2	Temperatura media	16.6
56018	7	Sololá	717	San Juan la Laguna	12	San Juan la Laguna	5	Mayo	2023-05-26T00:00:00	2024-11-08T04:00:00	4	Temperatura máxima	17
56019	7	Sololá	717	San Juan la Laguna	12	San Juan la Laguna	5	Mayo	2023-05-26T00:00:00	2024-11-08T04:00:00	3	Temperatura mínima	16.6
56020	7	Sololá	717	San Juan la Laguna	12	San Juan la Laguna	5	Mayo	2023-05-26T00:00:00	2024-11-08T04:00:00	5	Humedad	89
56021	7	Sololá	717	San Juan la Laguna	12	San Juan la Laguna	5	Mayo	2023-05-26T00:00:00	2024-11-08T04:00:00	6	Velocidad del viento	3.2
56022	7	Sololá	717	San Juan la Laguna	12	San Juan la Laguna	5	Mayo	2023-05-26T00:00:00	2024-11-08T04:00:00	7	Dirección del viento	3.22
56023	7	Sololá	717	San Juan la Laguna	12	San Juan la Laguna	5	Mayo	2023-05-26T00:00:00	2024-11-08T04:00:00	1	Precipitación	0
56024	7	Sololá	717	San Juan la Laguna	12	San Juan la Laguna	5	Mayo	2023-05-26T00:00:00	2024-11-08T04:00:00	8	Radiación solar	0
56025	7	Sololá	717	San Juan la Laguna	12	San Juan la Laguna	5	Mayo	2023-05-26T00:00:00	2024-11-08T05:00:00	2	Temperatura media	16.1
56026	7	Sololá	717	San Juan la Laguna	12	San Juan la Laguna	5	Mayo	2023-05-26T00:00:00	2024-11-08T05:00:00	4	Temperatura máxima	16.5
56027	7	Sololá	717	San Juan la Laguna	12	San Juan la Laguna	5	Mayo	2023-05-26T00:00:00	2024-11-08T05:00:00	3	Temperatura mínima	16.1
56028	7	Sololá	717	San Juan la Laguna	12	San Juan la Laguna	5	Mayo	2023-05-26T00:00:00	2024-11-08T05:00:00	5	Humedad	90
56029	7	Sololá	717	San Juan la Laguna	12	San Juan la Laguna	5	Mayo	2023-05-26T00:00:00	2024-11-08T05:00:00	6	Velocidad del viento	1.6
56030	7	Sololá	717	San Juan la Laguna	12	San Juan la Laguna	5	Mayo	2023-05-26T00:00:00	2024-11-08T05:00:00	7	Dirección del viento	1.61
56031	7	Sololá	717	San Juan la Laguna	12	San Juan la Laguna	5	Mayo	2023-05-26T00:00:00	2024-11-08T05:00:00	1	Precipitación	0
56032	7	Sololá	717	San Juan la Laguna	12	San Juan la Laguna	5	Mayo	2023-05-26T00:00:00	2024-11-08T05:00:00	8	Radiación solar	0
56033	7	Sololá	717	San Juan la Laguna	12	San Juan la Laguna	5	Mayo	2023-05-26T00:00:00	2024-11-08T06:00:00	2	Temperatura media	16.4
56034	7	Sololá	717	San Juan la Laguna	12	San Juan la Laguna	5	Mayo	2023-05-26T00:00:00	2024-11-08T06:00:00	4	Temperatura máxima	16.4
56035	7	Sololá	717	San Juan la Laguna	12	San Juan la Laguna	5	Mayo	2023-05-26T00:00:00	2024-11-08T06:00:00	3	Temperatura mínima	16.1
56036	7	Sololá	717	San Juan la Laguna	12	San Juan la Laguna	5	Mayo	2023-05-26T00:00:00	2024-11-08T06:00:00	5	Humedad	90
56037	7	Sololá	717	San Juan la Laguna	12	San Juan la Laguna	5	Mayo	2023-05-26T00:00:00	2024-11-08T06:00:00	6	Velocidad del viento	1.6
56038	7	Sololá	717	San Juan la Laguna	12	San Juan la Laguna	5	Mayo	2023-05-26T00:00:00	2024-11-08T06:00:00	7	Dirección del viento	1.61
56039	7	Sololá	717	San Juan la Laguna	12	San Juan la Laguna	5	Mayo	2023-05-26T00:00:00	2024-11-08T06:00:00	1	Precipitación	0
56040	7	Sololá	717	San Juan la Laguna	12	San Juan la Laguna	5	Mayo	2023-05-26T00:00:00	2024-11-08T06:00:00	8	Radiación solar	4
56041	7	Sololá	717	San Juan la Laguna	12	San Juan la Laguna	5	Mayo	2023-05-26T00:00:00	2024-11-08T07:00:00	2	Temperatura media	17.4
56042	7	Sololá	717	San Juan la Laguna	12	San Juan la Laguna	5	Mayo	2023-05-26T00:00:00	2024-11-08T07:00:00	4	Temperatura máxima	17.4
56043	7	Sololá	717	San Juan la Laguna	12	San Juan la Laguna	5	Mayo	2023-05-26T00:00:00	2024-11-08T07:00:00	3	Temperatura mínima	16.4
56044	7	Sololá	717	San Juan la Laguna	12	San Juan la Laguna	5	Mayo	2023-05-26T00:00:00	2024-11-08T07:00:00	5	Humedad	89
56045	7	Sololá	717	San Juan la Laguna	12	San Juan la Laguna	5	Mayo	2023-05-26T00:00:00	2024-11-08T07:00:00	6	Velocidad del viento	1.6
56046	7	Sololá	717	San Juan la Laguna	12	San Juan la Laguna	5	Mayo	2023-05-26T00:00:00	2024-11-08T07:00:00	7	Dirección del viento	1.61
56047	7	Sololá	717	San Juan la Laguna	12	San Juan la Laguna	5	Mayo	2023-05-26T00:00:00	2024-11-08T07:00:00	1	Precipitación	0
56048	7	Sololá	717	San Juan la Laguna	12	San Juan la Laguna	5	Mayo	2023-05-26T00:00:00	2024-11-08T07:00:00	8	Radiación solar	86
56049	7	Sololá	717	San Juan la Laguna	12	San Juan la Laguna	5	Mayo	2023-05-26T00:00:00	2024-11-08T08:00:00	2	Temperatura media	19
56050	7	Sololá	717	San Juan la Laguna	12	San Juan la Laguna	5	Mayo	2023-05-26T00:00:00	2024-11-08T08:00:00	4	Temperatura máxima	19
56051	7	Sololá	717	San Juan la Laguna	12	San Juan la Laguna	5	Mayo	2023-05-26T00:00:00	2024-11-08T08:00:00	3	Temperatura mínima	17.4
56052	7	Sololá	717	San Juan la Laguna	12	San Juan la Laguna	5	Mayo	2023-05-26T00:00:00	2024-11-08T08:00:00	5	Humedad	84
56053	7	Sololá	717	San Juan la Laguna	12	San Juan la Laguna	5	Mayo	2023-05-26T00:00:00	2024-11-08T08:00:00	6	Velocidad del viento	0
56054	7	Sololá	717	San Juan la Laguna	12	San Juan la Laguna	5	Mayo	2023-05-26T00:00:00	2024-11-08T08:00:00	7	Dirección del viento	0
56055	7	Sololá	717	San Juan la Laguna	12	San Juan la Laguna	5	Mayo	2023-05-26T00:00:00	2024-11-08T08:00:00	1	Precipitación	0
56056	7	Sololá	717	San Juan la Laguna	12	San Juan la Laguna	5	Mayo	2023-05-26T00:00:00	2024-11-08T08:00:00	8	Radiación solar	154
56057	7	Sololá	717	San Juan la Laguna	12	San Juan la Laguna	5	Mayo	2023-05-26T00:00:00	2024-11-08T09:00:00	2	Temperatura media	21
56058	7	Sololá	717	San Juan la Laguna	12	San Juan la Laguna	5	Mayo	2023-05-26T00:00:00	2024-11-08T09:00:00	4	Temperatura máxima	21
56059	7	Sololá	717	San Juan la Laguna	12	San Juan la Laguna	5	Mayo	2023-05-26T00:00:00	2024-11-08T09:00:00	3	Temperatura mínima	19
56060	7	Sololá	717	San Juan la Laguna	12	San Juan la Laguna	5	Mayo	2023-05-26T00:00:00	2024-11-08T09:00:00	5	Humedad	70
56061	7	Sololá	717	San Juan la Laguna	12	San Juan la Laguna	5	Mayo	2023-05-26T00:00:00	2024-11-08T09:00:00	6	Velocidad del viento	0
56062	7	Sololá	717	San Juan la Laguna	12	San Juan la Laguna	5	Mayo	2023-05-26T00:00:00	2024-11-08T09:00:00	7	Dirección del viento	0
56063	7	Sololá	717	San Juan la Laguna	12	San Juan la Laguna	5	Mayo	2023-05-26T00:00:00	2024-11-08T09:00:00	1	Precipitación	0
56064	7	Sololá	717	San Juan la Laguna	12	San Juan la Laguna	5	Mayo	2023-05-26T00:00:00	2024-11-08T09:00:00	8	Radiación solar	334
56065	7	Sololá	717	San Juan la Laguna	12	San Juan la Laguna	5	Mayo	2023-05-26T00:00:00	2024-11-08T10:00:00	2	Temperatura media	22
56066	7	Sololá	717	San Juan la Laguna	12	San Juan la Laguna	5	Mayo	2023-05-26T00:00:00	2024-11-08T10:00:00	4	Temperatura máxima	22.1
56067	7	Sololá	717	San Juan la Laguna	12	San Juan la Laguna	5	Mayo	2023-05-26T00:00:00	2024-11-08T10:00:00	3	Temperatura mínima	21
56068	7	Sololá	717	San Juan la Laguna	12	San Juan la Laguna	5	Mayo	2023-05-26T00:00:00	2024-11-08T10:00:00	5	Humedad	63
56069	7	Sololá	717	San Juan la Laguna	12	San Juan la Laguna	5	Mayo	2023-05-26T00:00:00	2024-11-08T10:00:00	6	Velocidad del viento	1.6
56070	7	Sololá	717	San Juan la Laguna	12	San Juan la Laguna	5	Mayo	2023-05-26T00:00:00	2024-11-08T10:00:00	7	Dirección del viento	1.61
56071	7	Sololá	717	San Juan la Laguna	12	San Juan la Laguna	5	Mayo	2023-05-26T00:00:00	2024-11-08T10:00:00	1	Precipitación	0
56072	7	Sololá	717	San Juan la Laguna	12	San Juan la Laguna	5	Mayo	2023-05-26T00:00:00	2024-11-08T10:00:00	8	Radiación solar	414
56073	7	Sololá	717	San Juan la Laguna	12	San Juan la Laguna	5	Mayo	2023-05-26T00:00:00	2024-11-08T11:00:00	2	Temperatura media	22.9
56074	7	Sololá	717	San Juan la Laguna	12	San Juan la Laguna	5	Mayo	2023-05-26T00:00:00	2024-11-08T11:00:00	4	Temperatura máxima	23.1
56075	7	Sololá	717	San Juan la Laguna	12	San Juan la Laguna	5	Mayo	2023-05-26T00:00:00	2024-11-08T11:00:00	3	Temperatura mínima	22
56076	7	Sololá	717	San Juan la Laguna	12	San Juan la Laguna	5	Mayo	2023-05-26T00:00:00	2024-11-08T11:00:00	5	Humedad	65
56077	7	Sololá	717	San Juan la Laguna	12	San Juan la Laguna	5	Mayo	2023-05-26T00:00:00	2024-11-08T11:00:00	6	Velocidad del viento	1.6
56078	7	Sololá	717	San Juan la Laguna	12	San Juan la Laguna	5	Mayo	2023-05-26T00:00:00	2024-11-08T11:00:00	7	Dirección del viento	1.61
56079	7	Sololá	717	San Juan la Laguna	12	San Juan la Laguna	5	Mayo	2023-05-26T00:00:00	2024-11-08T11:00:00	1	Precipitación	0
56080	7	Sololá	717	San Juan la Laguna	12	San Juan la Laguna	5	Mayo	2023-05-26T00:00:00	2024-11-08T11:00:00	8	Radiación solar	649
56081	7	Sololá	717	San Juan la Laguna	12	San Juan la Laguna	5	Mayo	2023-05-26T00:00:00	2024-11-08T12:00:00	2	Temperatura media	23.1
56082	7	Sololá	717	San Juan la Laguna	12	San Juan la Laguna	5	Mayo	2023-05-26T00:00:00	2024-11-08T12:00:00	4	Temperatura máxima	23.5
56083	7	Sololá	717	San Juan la Laguna	12	San Juan la Laguna	5	Mayo	2023-05-26T00:00:00	2024-11-08T12:00:00	3	Temperatura mínima	22.9
56084	7	Sololá	717	San Juan la Laguna	12	San Juan la Laguna	5	Mayo	2023-05-26T00:00:00	2024-11-08T12:00:00	5	Humedad	66
56085	7	Sololá	717	San Juan la Laguna	12	San Juan la Laguna	5	Mayo	2023-05-26T00:00:00	2024-11-08T12:00:00	6	Velocidad del viento	1.6
56086	7	Sololá	717	San Juan la Laguna	12	San Juan la Laguna	5	Mayo	2023-05-26T00:00:00	2024-11-08T12:00:00	7	Dirección del viento	1.61
56087	7	Sololá	717	San Juan la Laguna	12	San Juan la Laguna	5	Mayo	2023-05-26T00:00:00	2024-11-08T12:00:00	1	Precipitación	0
56088	7	Sololá	717	San Juan la Laguna	12	San Juan la Laguna	5	Mayo	2023-05-26T00:00:00	2024-11-08T12:00:00	8	Radiación solar	772
56089	7	Sololá	717	San Juan la Laguna	12	San Juan la Laguna	5	Mayo	2023-05-26T00:00:00	2024-11-08T13:00:00	2	Temperatura media	23.6
56090	7	Sololá	717	San Juan la Laguna	12	San Juan la Laguna	5	Mayo	2023-05-26T00:00:00	2024-11-08T13:00:00	4	Temperatura máxima	23.9
56091	7	Sololá	717	San Juan la Laguna	12	San Juan la Laguna	5	Mayo	2023-05-26T00:00:00	2024-11-08T13:00:00	3	Temperatura mínima	23
56092	7	Sololá	717	San Juan la Laguna	12	San Juan la Laguna	5	Mayo	2023-05-26T00:00:00	2024-11-08T13:00:00	5	Humedad	65
56093	7	Sololá	717	San Juan la Laguna	12	San Juan la Laguna	5	Mayo	2023-05-26T00:00:00	2024-11-08T13:00:00	6	Velocidad del viento	1.6
56094	7	Sololá	717	San Juan la Laguna	12	San Juan la Laguna	5	Mayo	2023-05-26T00:00:00	2024-11-08T13:00:00	7	Dirección del viento	1.61
56095	7	Sololá	717	San Juan la Laguna	12	San Juan la Laguna	5	Mayo	2023-05-26T00:00:00	2024-11-08T13:00:00	1	Precipitación	0
56096	7	Sololá	717	San Juan la Laguna	12	San Juan la Laguna	5	Mayo	2023-05-26T00:00:00	2024-11-08T13:00:00	8	Radiación solar	889
56097	7	Sololá	717	San Juan la Laguna	12	San Juan la Laguna	5	Mayo	2023-05-26T00:00:00	2024-11-08T14:00:00	2	Temperatura media	23.4
56098	7	Sololá	717	San Juan la Laguna	12	San Juan la Laguna	5	Mayo	2023-05-26T00:00:00	2024-11-08T14:00:00	4	Temperatura máxima	24.2
56099	7	Sololá	717	San Juan la Laguna	12	San Juan la Laguna	5	Mayo	2023-05-26T00:00:00	2024-11-08T14:00:00	3	Temperatura mínima	23.3
56100	7	Sololá	717	San Juan la Laguna	12	San Juan la Laguna	5	Mayo	2023-05-26T00:00:00	2024-11-08T14:00:00	5	Humedad	68
56101	7	Sololá	717	San Juan la Laguna	12	San Juan la Laguna	5	Mayo	2023-05-26T00:00:00	2024-11-08T14:00:00	6	Velocidad del viento	1.6
56102	7	Sololá	717	San Juan la Laguna	12	San Juan la Laguna	5	Mayo	2023-05-26T00:00:00	2024-11-08T14:00:00	7	Dirección del viento	1.61
56103	7	Sololá	717	San Juan la Laguna	12	San Juan la Laguna	5	Mayo	2023-05-26T00:00:00	2024-11-08T14:00:00	1	Precipitación	0
56104	7	Sololá	717	San Juan la Laguna	12	San Juan la Laguna	5	Mayo	2023-05-26T00:00:00	2024-11-08T14:00:00	8	Radiación solar	738
56105	7	Sololá	717	San Juan la Laguna	12	San Juan la Laguna	5	Mayo	2023-05-26T00:00:00	2024-11-08T15:00:00	2	Temperatura media	24.1
56106	7	Sololá	717	San Juan la Laguna	12	San Juan la Laguna	5	Mayo	2023-05-26T00:00:00	2024-11-08T15:00:00	4	Temperatura máxima	24.2
56107	7	Sololá	717	San Juan la Laguna	12	San Juan la Laguna	5	Mayo	2023-05-26T00:00:00	2024-11-08T15:00:00	3	Temperatura mínima	23.5
56108	7	Sololá	717	San Juan la Laguna	12	San Juan la Laguna	5	Mayo	2023-05-26T00:00:00	2024-11-08T15:00:00	5	Humedad	68
56109	7	Sololá	717	San Juan la Laguna	12	San Juan la Laguna	5	Mayo	2023-05-26T00:00:00	2024-11-08T15:00:00	6	Velocidad del viento	3.2
56110	7	Sololá	717	San Juan la Laguna	12	San Juan la Laguna	5	Mayo	2023-05-26T00:00:00	2024-11-08T15:00:00	7	Dirección del viento	3.22
56111	7	Sololá	717	San Juan la Laguna	12	San Juan la Laguna	5	Mayo	2023-05-26T00:00:00	2024-11-08T15:00:00	1	Precipitación	0
56112	7	Sololá	717	San Juan la Laguna	12	San Juan la Laguna	5	Mayo	2023-05-26T00:00:00	2024-11-08T15:00:00	8	Radiación solar	742
56113	7	Sololá	717	San Juan la Laguna	12	San Juan la Laguna	5	Mayo	2023-05-26T00:00:00	2024-11-08T16:00:00	2	Temperatura media	22.3
56114	7	Sololá	717	San Juan la Laguna	12	San Juan la Laguna	5	Mayo	2023-05-26T00:00:00	2024-11-08T16:00:00	4	Temperatura máxima	24.4
56115	7	Sololá	717	San Juan la Laguna	12	San Juan la Laguna	5	Mayo	2023-05-26T00:00:00	2024-11-08T16:00:00	3	Temperatura mínima	22.3
56116	7	Sololá	717	San Juan la Laguna	12	San Juan la Laguna	5	Mayo	2023-05-26T00:00:00	2024-11-08T16:00:00	5	Humedad	75
56117	7	Sololá	717	San Juan la Laguna	12	San Juan la Laguna	5	Mayo	2023-05-26T00:00:00	2024-11-08T16:00:00	6	Velocidad del viento	4.8
56118	7	Sololá	717	San Juan la Laguna	12	San Juan la Laguna	5	Mayo	2023-05-26T00:00:00	2024-11-08T16:00:00	7	Dirección del viento	4.83
56119	7	Sololá	717	San Juan la Laguna	12	San Juan la Laguna	5	Mayo	2023-05-26T00:00:00	2024-11-08T16:00:00	1	Precipitación	0
56120	7	Sololá	717	San Juan la Laguna	12	San Juan la Laguna	5	Mayo	2023-05-26T00:00:00	2024-11-08T16:00:00	8	Radiación solar	222
56121	7	Sololá	717	San Juan la Laguna	12	San Juan la Laguna	5	Mayo	2023-05-26T00:00:00	2024-11-08T17:00:00	2	Temperatura media	21
56122	7	Sololá	717	San Juan la Laguna	12	San Juan la Laguna	5	Mayo	2023-05-26T00:00:00	2024-11-08T17:00:00	4	Temperatura máxima	22.3
56123	7	Sololá	717	San Juan la Laguna	12	San Juan la Laguna	5	Mayo	2023-05-26T00:00:00	2024-11-08T17:00:00	3	Temperatura mínima	21
56124	7	Sololá	717	San Juan la Laguna	12	San Juan la Laguna	5	Mayo	2023-05-26T00:00:00	2024-11-08T17:00:00	5	Humedad	81
56125	7	Sololá	717	San Juan la Laguna	12	San Juan la Laguna	5	Mayo	2023-05-26T00:00:00	2024-11-08T17:00:00	6	Velocidad del viento	3.2
56126	7	Sololá	717	San Juan la Laguna	12	San Juan la Laguna	5	Mayo	2023-05-26T00:00:00	2024-11-08T17:00:00	7	Dirección del viento	3.22
56127	7	Sololá	717	San Juan la Laguna	12	San Juan la Laguna	5	Mayo	2023-05-26T00:00:00	2024-11-08T17:00:00	1	Precipitación	0
56128	7	Sololá	717	San Juan la Laguna	12	San Juan la Laguna	5	Mayo	2023-05-26T00:00:00	2024-11-08T17:00:00	8	Radiación solar	46
56129	7	Sololá	717	San Juan la Laguna	12	San Juan la Laguna	5	Mayo	2023-05-26T00:00:00	2024-11-08T18:00:00	2	Temperatura media	20.8
56130	7	Sololá	717	San Juan la Laguna	12	San Juan la Laguna	5	Mayo	2023-05-26T00:00:00	2024-11-08T18:00:00	4	Temperatura máxima	21
56131	7	Sololá	717	San Juan la Laguna	12	San Juan la Laguna	5	Mayo	2023-05-26T00:00:00	2024-11-08T18:00:00	3	Temperatura mínima	20.6
56132	7	Sololá	717	San Juan la Laguna	12	San Juan la Laguna	5	Mayo	2023-05-26T00:00:00	2024-11-08T18:00:00	5	Humedad	82
56133	7	Sololá	717	San Juan la Laguna	12	San Juan la Laguna	5	Mayo	2023-05-26T00:00:00	2024-11-08T18:00:00	6	Velocidad del viento	3.2
56134	7	Sololá	717	San Juan la Laguna	12	San Juan la Laguna	5	Mayo	2023-05-26T00:00:00	2024-11-08T18:00:00	7	Dirección del viento	3.22
56135	7	Sololá	717	San Juan la Laguna	12	San Juan la Laguna	5	Mayo	2023-05-26T00:00:00	2024-11-08T18:00:00	1	Precipitación	0
56136	7	Sololá	717	San Juan la Laguna	12	San Juan la Laguna	5	Mayo	2023-05-26T00:00:00	2024-11-08T18:00:00	8	Radiación solar	26
56137	7	Sololá	717	San Juan la Laguna	12	San Juan la Laguna	5	Mayo	2023-05-26T00:00:00	2024-11-08T19:00:00	2	Temperatura media	19.9
56138	7	Sololá	717	San Juan la Laguna	12	San Juan la Laguna	5	Mayo	2023-05-26T00:00:00	2024-11-08T19:00:00	4	Temperatura máxima	20.8
56139	7	Sololá	717	San Juan la Laguna	12	San Juan la Laguna	5	Mayo	2023-05-26T00:00:00	2024-11-08T19:00:00	3	Temperatura mínima	19.7
56140	7	Sololá	717	San Juan la Laguna	12	San Juan la Laguna	5	Mayo	2023-05-26T00:00:00	2024-11-08T19:00:00	5	Humedad	85
56141	7	Sololá	717	San Juan la Laguna	12	San Juan la Laguna	5	Mayo	2023-05-26T00:00:00	2024-11-08T19:00:00	6	Velocidad del viento	3.2
56142	7	Sololá	717	San Juan la Laguna	12	San Juan la Laguna	5	Mayo	2023-05-26T00:00:00	2024-11-08T19:00:00	7	Dirección del viento	3.22
56143	7	Sololá	717	San Juan la Laguna	12	San Juan la Laguna	5	Mayo	2023-05-26T00:00:00	2024-11-08T19:00:00	1	Precipitación	0
56144	7	Sololá	717	San Juan la Laguna	12	San Juan la Laguna	5	Mayo	2023-05-26T00:00:00	2024-11-08T19:00:00	8	Radiación solar	0
56145	7	Sololá	717	San Juan la Laguna	12	San Juan la Laguna	5	Mayo	2023-05-26T00:00:00	2024-11-08T20:00:00	2	Temperatura media	19
56146	7	Sololá	717	San Juan la Laguna	12	San Juan la Laguna	5	Mayo	2023-05-26T00:00:00	2024-11-08T20:00:00	4	Temperatura máxima	20.2
56147	7	Sololá	717	San Juan la Laguna	12	San Juan la Laguna	5	Mayo	2023-05-26T00:00:00	2024-11-08T20:00:00	3	Temperatura mínima	19
56148	7	Sololá	717	San Juan la Laguna	12	San Juan la Laguna	5	Mayo	2023-05-26T00:00:00	2024-11-08T20:00:00	5	Humedad	84
56149	7	Sololá	717	San Juan la Laguna	12	San Juan la Laguna	5	Mayo	2023-05-26T00:00:00	2024-11-08T20:00:00	6	Velocidad del viento	3.2
56150	7	Sololá	717	San Juan la Laguna	12	San Juan la Laguna	5	Mayo	2023-05-26T00:00:00	2024-11-08T20:00:00	7	Dirección del viento	3.22
56151	7	Sololá	717	San Juan la Laguna	12	San Juan la Laguna	5	Mayo	2023-05-26T00:00:00	2024-11-08T20:00:00	1	Precipitación	0
56152	7	Sololá	717	San Juan la Laguna	12	San Juan la Laguna	5	Mayo	2023-05-26T00:00:00	2024-11-08T20:00:00	8	Radiación solar	0
56153	7	Sololá	717	San Juan la Laguna	12	San Juan la Laguna	5	Mayo	2023-05-26T00:00:00	2024-11-08T21:00:00	2	Temperatura media	18.4
56154	7	Sololá	717	San Juan la Laguna	12	San Juan la Laguna	5	Mayo	2023-05-26T00:00:00	2024-11-08T21:00:00	4	Temperatura máxima	18.9
56155	7	Sololá	717	San Juan la Laguna	12	San Juan la Laguna	5	Mayo	2023-05-26T00:00:00	2024-11-08T21:00:00	3	Temperatura mínima	18.3
56156	7	Sololá	717	San Juan la Laguna	12	San Juan la Laguna	5	Mayo	2023-05-26T00:00:00	2024-11-08T21:00:00	5	Humedad	86
56157	7	Sololá	717	San Juan la Laguna	12	San Juan la Laguna	5	Mayo	2023-05-26T00:00:00	2024-11-08T21:00:00	6	Velocidad del viento	1.6
56158	7	Sololá	717	San Juan la Laguna	12	San Juan la Laguna	5	Mayo	2023-05-26T00:00:00	2024-11-08T21:00:00	7	Dirección del viento	1.61
56159	7	Sololá	717	San Juan la Laguna	12	San Juan la Laguna	5	Mayo	2023-05-26T00:00:00	2024-11-08T21:00:00	1	Precipitación	0
56160	7	Sololá	717	San Juan la Laguna	12	San Juan la Laguna	5	Mayo	2023-05-26T00:00:00	2024-11-08T21:00:00	8	Radiación solar	0
56161	7	Sololá	717	San Juan la Laguna	12	San Juan la Laguna	5	Mayo	2023-05-26T00:00:00	2024-11-08T22:00:00	2	Temperatura media	18.6
56162	7	Sololá	717	San Juan la Laguna	12	San Juan la Laguna	5	Mayo	2023-05-26T00:00:00	2024-11-08T22:00:00	4	Temperatura máxima	18.7
56163	7	Sololá	717	San Juan la Laguna	12	San Juan la Laguna	5	Mayo	2023-05-26T00:00:00	2024-11-08T22:00:00	3	Temperatura mínima	18.4
56164	7	Sololá	717	San Juan la Laguna	12	San Juan la Laguna	5	Mayo	2023-05-26T00:00:00	2024-11-08T22:00:00	5	Humedad	85
56165	7	Sololá	717	San Juan la Laguna	12	San Juan la Laguna	5	Mayo	2023-05-26T00:00:00	2024-11-08T22:00:00	6	Velocidad del viento	1.6
56166	7	Sololá	717	San Juan la Laguna	12	San Juan la Laguna	5	Mayo	2023-05-26T00:00:00	2024-11-08T22:00:00	7	Dirección del viento	1.61
56167	7	Sololá	717	San Juan la Laguna	12	San Juan la Laguna	5	Mayo	2023-05-26T00:00:00	2024-11-08T22:00:00	1	Precipitación	0
56168	7	Sololá	717	San Juan la Laguna	12	San Juan la Laguna	5	Mayo	2023-05-26T00:00:00	2024-11-08T22:00:00	8	Radiación solar	0
56169	7	Sololá	717	San Juan la Laguna	12	San Juan la Laguna	5	Mayo	2023-05-26T00:00:00	2024-11-08T23:00:00	2	Temperatura media	17.7
56170	7	Sololá	717	San Juan la Laguna	12	San Juan la Laguna	5	Mayo	2023-05-26T00:00:00	2024-11-08T23:00:00	4	Temperatura máxima	18.6
56171	7	Sololá	717	San Juan la Laguna	12	San Juan la Laguna	5	Mayo	2023-05-26T00:00:00	2024-11-08T23:00:00	3	Temperatura mínima	17.6
56172	7	Sololá	717	San Juan la Laguna	12	San Juan la Laguna	5	Mayo	2023-05-26T00:00:00	2024-11-08T23:00:00	5	Humedad	89
56173	7	Sololá	717	San Juan la Laguna	12	San Juan la Laguna	5	Mayo	2023-05-26T00:00:00	2024-11-08T23:00:00	6	Velocidad del viento	1.6
56174	7	Sololá	717	San Juan la Laguna	12	San Juan la Laguna	5	Mayo	2023-05-26T00:00:00	2024-11-08T23:00:00	7	Dirección del viento	1.61
56175	7	Sololá	717	San Juan la Laguna	12	San Juan la Laguna	5	Mayo	2023-05-26T00:00:00	2024-11-08T23:00:00	1	Precipitación	0
56176	7	Sololá	717	San Juan la Laguna	12	San Juan la Laguna	5	Mayo	2023-05-26T00:00:00	2024-11-08T23:00:00	8	Radiación solar	0
56177	7	Sololá	717	San Juan la Laguna	12	San Juan la Laguna	5	Mayo	2023-05-27T00:00:00	2024-11-08T00:00:00	2	Temperatura media	17.3
56178	7	Sololá	717	San Juan la Laguna	12	San Juan la Laguna	5	Mayo	2023-05-27T00:00:00	2024-11-08T00:00:00	4	Temperatura máxima	17.8
56179	7	Sololá	717	San Juan la Laguna	12	San Juan la Laguna	5	Mayo	2023-05-27T00:00:00	2024-11-08T00:00:00	3	Temperatura mínima	17.3
56180	7	Sololá	717	San Juan la Laguna	12	San Juan la Laguna	5	Mayo	2023-05-27T00:00:00	2024-11-08T00:00:00	5	Humedad	88
56181	7	Sololá	717	San Juan la Laguna	12	San Juan la Laguna	5	Mayo	2023-05-27T00:00:00	2024-11-08T00:00:00	6	Velocidad del viento	3.2
56182	7	Sololá	717	San Juan la Laguna	12	San Juan la Laguna	5	Mayo	2023-05-27T00:00:00	2024-11-08T00:00:00	7	Dirección del viento	3.22
56183	7	Sololá	717	San Juan la Laguna	12	San Juan la Laguna	5	Mayo	2023-05-27T00:00:00	2024-11-08T00:00:00	1	Precipitación	0
56184	7	Sololá	717	San Juan la Laguna	12	San Juan la Laguna	5	Mayo	2023-05-27T00:00:00	2024-11-08T00:00:00	8	Radiación solar	0
56185	7	Sololá	717	San Juan la Laguna	12	San Juan la Laguna	5	Mayo	2023-05-27T00:00:00	2024-11-08T01:00:00	2	Temperatura media	17.3
56186	7	Sololá	717	San Juan la Laguna	12	San Juan la Laguna	5	Mayo	2023-05-27T00:00:00	2024-11-08T01:00:00	4	Temperatura máxima	17.3
56187	7	Sololá	717	San Juan la Laguna	12	San Juan la Laguna	5	Mayo	2023-05-27T00:00:00	2024-11-08T01:00:00	3	Temperatura mínima	17.1
56188	7	Sololá	717	San Juan la Laguna	12	San Juan la Laguna	5	Mayo	2023-05-27T00:00:00	2024-11-08T01:00:00	5	Humedad	85
56189	7	Sololá	717	San Juan la Laguna	12	San Juan la Laguna	5	Mayo	2023-05-27T00:00:00	2024-11-08T01:00:00	6	Velocidad del viento	3.2
56190	7	Sololá	717	San Juan la Laguna	12	San Juan la Laguna	5	Mayo	2023-05-27T00:00:00	2024-11-08T01:00:00	7	Dirección del viento	3.22
56191	7	Sololá	717	San Juan la Laguna	12	San Juan la Laguna	5	Mayo	2023-05-27T00:00:00	2024-11-08T01:00:00	1	Precipitación	0
56192	7	Sololá	717	San Juan la Laguna	12	San Juan la Laguna	5	Mayo	2023-05-27T00:00:00	2024-11-08T01:00:00	8	Radiación solar	0
56193	7	Sololá	717	San Juan la Laguna	12	San Juan la Laguna	5	Mayo	2023-05-27T00:00:00	2024-11-08T02:00:00	2	Temperatura media	16.6
56194	7	Sololá	717	San Juan la Laguna	12	San Juan la Laguna	5	Mayo	2023-05-27T00:00:00	2024-11-08T02:00:00	4	Temperatura máxima	17.3
56195	7	Sololá	717	San Juan la Laguna	12	San Juan la Laguna	5	Mayo	2023-05-27T00:00:00	2024-11-08T02:00:00	3	Temperatura mínima	16.4
56196	7	Sololá	717	San Juan la Laguna	12	San Juan la Laguna	5	Mayo	2023-05-27T00:00:00	2024-11-08T02:00:00	5	Humedad	85
56197	7	Sololá	717	San Juan la Laguna	12	San Juan la Laguna	5	Mayo	2023-05-27T00:00:00	2024-11-08T02:00:00	6	Velocidad del viento	3.2
56198	7	Sololá	717	San Juan la Laguna	12	San Juan la Laguna	5	Mayo	2023-05-27T00:00:00	2024-11-08T02:00:00	7	Dirección del viento	3.22
56199	7	Sololá	717	San Juan la Laguna	12	San Juan la Laguna	5	Mayo	2023-05-27T00:00:00	2024-11-08T02:00:00	1	Precipitación	0
56200	7	Sololá	717	San Juan la Laguna	12	San Juan la Laguna	5	Mayo	2023-05-27T00:00:00	2024-11-08T02:00:00	8	Radiación solar	0
56201	7	Sololá	717	San Juan la Laguna	12	San Juan la Laguna	5	Mayo	2023-05-27T00:00:00	2024-11-08T03:00:00	2	Temperatura media	16
56202	7	Sololá	717	San Juan la Laguna	12	San Juan la Laguna	5	Mayo	2023-05-27T00:00:00	2024-11-08T03:00:00	4	Temperatura máxima	16.6
56203	7	Sololá	717	San Juan la Laguna	12	San Juan la Laguna	5	Mayo	2023-05-27T00:00:00	2024-11-08T03:00:00	3	Temperatura mínima	15.9
56204	7	Sololá	717	San Juan la Laguna	12	San Juan la Laguna	5	Mayo	2023-05-27T00:00:00	2024-11-08T03:00:00	5	Humedad	84
56205	7	Sololá	717	San Juan la Laguna	12	San Juan la Laguna	5	Mayo	2023-05-27T00:00:00	2024-11-08T03:00:00	6	Velocidad del viento	3.2
56206	7	Sololá	717	San Juan la Laguna	12	San Juan la Laguna	5	Mayo	2023-05-27T00:00:00	2024-11-08T03:00:00	7	Dirección del viento	3.22
56207	7	Sololá	717	San Juan la Laguna	12	San Juan la Laguna	5	Mayo	2023-05-27T00:00:00	2024-11-08T03:00:00	1	Precipitación	0
56208	7	Sololá	717	San Juan la Laguna	12	San Juan la Laguna	5	Mayo	2023-05-27T00:00:00	2024-11-08T03:00:00	8	Radiación solar	0
56209	7	Sololá	717	San Juan la Laguna	12	San Juan la Laguna	5	Mayo	2023-05-27T00:00:00	2024-11-08T04:00:00	2	Temperatura media	15.9
56210	7	Sololá	717	San Juan la Laguna	12	San Juan la Laguna	5	Mayo	2023-05-27T00:00:00	2024-11-08T04:00:00	4	Temperatura máxima	16.1
56211	7	Sololá	717	San Juan la Laguna	12	San Juan la Laguna	5	Mayo	2023-05-27T00:00:00	2024-11-08T04:00:00	3	Temperatura mínima	15.5
56212	7	Sololá	717	San Juan la Laguna	12	San Juan la Laguna	5	Mayo	2023-05-27T00:00:00	2024-11-08T04:00:00	5	Humedad	83
56213	7	Sololá	717	San Juan la Laguna	12	San Juan la Laguna	5	Mayo	2023-05-27T00:00:00	2024-11-08T04:00:00	6	Velocidad del viento	3.2
56214	7	Sololá	717	San Juan la Laguna	12	San Juan la Laguna	5	Mayo	2023-05-27T00:00:00	2024-11-08T04:00:00	7	Dirección del viento	3.22
56215	7	Sololá	717	San Juan la Laguna	12	San Juan la Laguna	5	Mayo	2023-05-27T00:00:00	2024-11-08T04:00:00	1	Precipitación	0
56216	7	Sololá	717	San Juan la Laguna	12	San Juan la Laguna	5	Mayo	2023-05-27T00:00:00	2024-11-08T04:00:00	8	Radiación solar	0
56217	7	Sololá	717	San Juan la Laguna	12	San Juan la Laguna	5	Mayo	2023-05-27T00:00:00	2024-11-08T05:00:00	2	Temperatura media	15.8
56218	7	Sololá	717	San Juan la Laguna	12	San Juan la Laguna	5	Mayo	2023-05-27T00:00:00	2024-11-08T05:00:00	4	Temperatura máxima	16.4
56219	7	Sololá	717	San Juan la Laguna	12	San Juan la Laguna	5	Mayo	2023-05-27T00:00:00	2024-11-08T05:00:00	3	Temperatura mínima	15.8
56220	7	Sololá	717	San Juan la Laguna	12	San Juan la Laguna	5	Mayo	2023-05-27T00:00:00	2024-11-08T05:00:00	5	Humedad	84
56221	7	Sololá	717	San Juan la Laguna	12	San Juan la Laguna	5	Mayo	2023-05-27T00:00:00	2024-11-08T05:00:00	6	Velocidad del viento	1.6
56222	7	Sololá	717	San Juan la Laguna	12	San Juan la Laguna	5	Mayo	2023-05-27T00:00:00	2024-11-08T05:00:00	7	Dirección del viento	1.61
56223	7	Sololá	717	San Juan la Laguna	12	San Juan la Laguna	5	Mayo	2023-05-27T00:00:00	2024-11-08T05:00:00	1	Precipitación	0
56224	7	Sololá	717	San Juan la Laguna	12	San Juan la Laguna	5	Mayo	2023-05-27T00:00:00	2024-11-08T05:00:00	8	Radiación solar	0
56225	7	Sololá	717	San Juan la Laguna	12	San Juan la Laguna	5	Mayo	2023-05-27T00:00:00	2024-11-08T06:00:00	2	Temperatura media	16
56226	7	Sololá	717	San Juan la Laguna	12	San Juan la Laguna	5	Mayo	2023-05-27T00:00:00	2024-11-08T06:00:00	4	Temperatura máxima	16
56227	7	Sololá	717	San Juan la Laguna	12	San Juan la Laguna	5	Mayo	2023-05-27T00:00:00	2024-11-08T06:00:00	3	Temperatura mínima	15.6
56228	7	Sololá	717	San Juan la Laguna	12	San Juan la Laguna	5	Mayo	2023-05-27T00:00:00	2024-11-08T06:00:00	5	Humedad	82
56229	7	Sololá	717	San Juan la Laguna	12	San Juan la Laguna	5	Mayo	2023-05-27T00:00:00	2024-11-08T06:00:00	6	Velocidad del viento	3.2
56230	7	Sololá	717	San Juan la Laguna	12	San Juan la Laguna	5	Mayo	2023-05-27T00:00:00	2024-11-08T06:00:00	7	Dirección del viento	3.22
56231	7	Sololá	717	San Juan la Laguna	12	San Juan la Laguna	5	Mayo	2023-05-27T00:00:00	2024-11-08T06:00:00	1	Precipitación	0
56232	7	Sololá	717	San Juan la Laguna	12	San Juan la Laguna	5	Mayo	2023-05-27T00:00:00	2024-11-08T06:00:00	8	Radiación solar	3
56233	7	Sololá	717	San Juan la Laguna	12	San Juan la Laguna	5	Mayo	2023-05-27T00:00:00	2024-11-08T07:00:00	2	Temperatura media	17.3
56234	7	Sololá	717	San Juan la Laguna	12	San Juan la Laguna	5	Mayo	2023-05-27T00:00:00	2024-11-08T07:00:00	4	Temperatura máxima	17.3
56235	7	Sololá	717	San Juan la Laguna	12	San Juan la Laguna	5	Mayo	2023-05-27T00:00:00	2024-11-08T07:00:00	3	Temperatura mínima	15.9
56236	7	Sololá	717	San Juan la Laguna	12	San Juan la Laguna	5	Mayo	2023-05-27T00:00:00	2024-11-08T07:00:00	5	Humedad	82
56237	7	Sololá	717	San Juan la Laguna	12	San Juan la Laguna	5	Mayo	2023-05-27T00:00:00	2024-11-08T07:00:00	6	Velocidad del viento	1.6
56238	7	Sololá	717	San Juan la Laguna	12	San Juan la Laguna	5	Mayo	2023-05-27T00:00:00	2024-11-08T07:00:00	7	Dirección del viento	1.61
56239	7	Sololá	717	San Juan la Laguna	12	San Juan la Laguna	5	Mayo	2023-05-27T00:00:00	2024-11-08T07:00:00	1	Precipitación	0
56240	7	Sololá	717	San Juan la Laguna	12	San Juan la Laguna	5	Mayo	2023-05-27T00:00:00	2024-11-08T07:00:00	8	Radiación solar	55
56241	7	Sololá	717	San Juan la Laguna	12	San Juan la Laguna	5	Mayo	2023-05-27T00:00:00	2024-11-08T08:00:00	2	Temperatura media	19.6
56242	7	Sololá	717	San Juan la Laguna	12	San Juan la Laguna	5	Mayo	2023-05-27T00:00:00	2024-11-08T08:00:00	4	Temperatura máxima	19.6
56243	7	Sololá	717	San Juan la Laguna	12	San Juan la Laguna	5	Mayo	2023-05-27T00:00:00	2024-11-08T08:00:00	3	Temperatura mínima	17.4
56244	7	Sololá	717	San Juan la Laguna	12	San Juan la Laguna	5	Mayo	2023-05-27T00:00:00	2024-11-08T08:00:00	5	Humedad	75
56245	7	Sololá	717	San Juan la Laguna	12	San Juan la Laguna	5	Mayo	2023-05-27T00:00:00	2024-11-08T08:00:00	6	Velocidad del viento	1.6
56246	7	Sololá	717	San Juan la Laguna	12	San Juan la Laguna	5	Mayo	2023-05-27T00:00:00	2024-11-08T08:00:00	7	Dirección del viento	1.61
56247	7	Sololá	717	San Juan la Laguna	12	San Juan la Laguna	5	Mayo	2023-05-27T00:00:00	2024-11-08T08:00:00	1	Precipitación	0
56248	7	Sololá	717	San Juan la Laguna	12	San Juan la Laguna	5	Mayo	2023-05-27T00:00:00	2024-11-08T08:00:00	8	Radiación solar	168
56249	7	Sololá	717	San Juan la Laguna	12	San Juan la Laguna	5	Mayo	2023-05-27T00:00:00	2024-11-08T09:00:00	2	Temperatura media	20.4
56250	7	Sololá	717	San Juan la Laguna	12	San Juan la Laguna	5	Mayo	2023-05-27T00:00:00	2024-11-08T09:00:00	4	Temperatura máxima	20.7
56251	7	Sololá	717	San Juan la Laguna	12	San Juan la Laguna	5	Mayo	2023-05-27T00:00:00	2024-11-08T09:00:00	3	Temperatura mínima	19.6
56252	7	Sololá	717	San Juan la Laguna	12	San Juan la Laguna	5	Mayo	2023-05-27T00:00:00	2024-11-08T09:00:00	5	Humedad	72
56253	7	Sololá	717	San Juan la Laguna	12	San Juan la Laguna	5	Mayo	2023-05-27T00:00:00	2024-11-08T09:00:00	6	Velocidad del viento	1.6
56254	7	Sololá	717	San Juan la Laguna	12	San Juan la Laguna	5	Mayo	2023-05-27T00:00:00	2024-11-08T09:00:00	7	Dirección del viento	1.61
56255	7	Sololá	717	San Juan la Laguna	12	San Juan la Laguna	5	Mayo	2023-05-27T00:00:00	2024-11-08T09:00:00	1	Precipitación	0
56256	7	Sololá	717	San Juan la Laguna	12	San Juan la Laguna	5	Mayo	2023-05-27T00:00:00	2024-11-08T09:00:00	8	Radiación solar	276
56257	7	Sololá	717	San Juan la Laguna	12	San Juan la Laguna	5	Mayo	2023-05-27T00:00:00	2024-11-08T10:00:00	2	Temperatura media	20.6
56258	7	Sololá	717	San Juan la Laguna	12	San Juan la Laguna	5	Mayo	2023-05-27T00:00:00	2024-11-08T10:00:00	4	Temperatura máxima	21.1
56259	7	Sololá	717	San Juan la Laguna	12	San Juan la Laguna	5	Mayo	2023-05-27T00:00:00	2024-11-08T10:00:00	3	Temperatura mínima	20.2
56260	7	Sololá	717	San Juan la Laguna	12	San Juan la Laguna	5	Mayo	2023-05-27T00:00:00	2024-11-08T10:00:00	5	Humedad	71
56261	7	Sololá	717	San Juan la Laguna	12	San Juan la Laguna	5	Mayo	2023-05-27T00:00:00	2024-11-08T10:00:00	6	Velocidad del viento	1.6
56262	7	Sololá	717	San Juan la Laguna	12	San Juan la Laguna	5	Mayo	2023-05-27T00:00:00	2024-11-08T10:00:00	7	Dirección del viento	1.61
56263	7	Sololá	717	San Juan la Laguna	12	San Juan la Laguna	5	Mayo	2023-05-27T00:00:00	2024-11-08T10:00:00	1	Precipitación	0
56264	7	Sololá	717	San Juan la Laguna	12	San Juan la Laguna	5	Mayo	2023-05-27T00:00:00	2024-11-08T10:00:00	8	Radiación solar	300
56265	7	Sololá	717	San Juan la Laguna	12	San Juan la Laguna	5	Mayo	2023-05-27T00:00:00	2024-11-08T11:00:00	2	Temperatura media	22.8
56266	7	Sololá	717	San Juan la Laguna	12	San Juan la Laguna	5	Mayo	2023-05-27T00:00:00	2024-11-08T11:00:00	4	Temperatura máxima	22.8
56267	7	Sololá	717	San Juan la Laguna	12	San Juan la Laguna	5	Mayo	2023-05-27T00:00:00	2024-11-08T11:00:00	3	Temperatura mínima	20.6
56268	7	Sololá	717	San Juan la Laguna	12	San Juan la Laguna	5	Mayo	2023-05-27T00:00:00	2024-11-08T11:00:00	5	Humedad	59
56269	7	Sololá	717	San Juan la Laguna	12	San Juan la Laguna	5	Mayo	2023-05-27T00:00:00	2024-11-08T11:00:00	6	Velocidad del viento	1.6
56270	7	Sololá	717	San Juan la Laguna	12	San Juan la Laguna	5	Mayo	2023-05-27T00:00:00	2024-11-08T11:00:00	7	Dirección del viento	1.61
56271	7	Sololá	717	San Juan la Laguna	12	San Juan la Laguna	5	Mayo	2023-05-27T00:00:00	2024-11-08T11:00:00	1	Precipitación	0
56272	7	Sololá	717	San Juan la Laguna	12	San Juan la Laguna	5	Mayo	2023-05-27T00:00:00	2024-11-08T11:00:00	8	Radiación solar	440
56273	7	Sololá	717	San Juan la Laguna	12	San Juan la Laguna	5	Mayo	2023-05-27T00:00:00	2024-11-08T12:00:00	2	Temperatura media	25.2
56274	7	Sololá	717	San Juan la Laguna	12	San Juan la Laguna	5	Mayo	2023-05-27T00:00:00	2024-11-08T12:00:00	4	Temperatura máxima	25.4
56275	7	Sololá	717	San Juan la Laguna	12	San Juan la Laguna	5	Mayo	2023-05-27T00:00:00	2024-11-08T12:00:00	3	Temperatura mínima	22.8
56276	7	Sololá	717	San Juan la Laguna	12	San Juan la Laguna	5	Mayo	2023-05-27T00:00:00	2024-11-08T12:00:00	5	Humedad	52
56277	7	Sololá	717	San Juan la Laguna	12	San Juan la Laguna	5	Mayo	2023-05-27T00:00:00	2024-11-08T12:00:00	6	Velocidad del viento	1.6
56278	7	Sololá	717	San Juan la Laguna	12	San Juan la Laguna	5	Mayo	2023-05-27T00:00:00	2024-11-08T12:00:00	7	Dirección del viento	1.61
56279	7	Sololá	717	San Juan la Laguna	12	San Juan la Laguna	5	Mayo	2023-05-27T00:00:00	2024-11-08T12:00:00	1	Precipitación	0
56280	7	Sololá	717	San Juan la Laguna	12	San Juan la Laguna	5	Mayo	2023-05-27T00:00:00	2024-11-08T12:00:00	8	Radiación solar	832
56281	7	Sololá	717	San Juan la Laguna	12	San Juan la Laguna	5	Mayo	2023-05-27T00:00:00	2024-11-08T13:00:00	2	Temperatura media	23.6
56282	7	Sololá	717	San Juan la Laguna	12	San Juan la Laguna	5	Mayo	2023-05-27T00:00:00	2024-11-08T13:00:00	4	Temperatura máxima	25.2
56283	7	Sololá	717	San Juan la Laguna	12	San Juan la Laguna	5	Mayo	2023-05-27T00:00:00	2024-11-08T13:00:00	3	Temperatura mínima	23.4
56284	7	Sololá	717	San Juan la Laguna	12	San Juan la Laguna	5	Mayo	2023-05-27T00:00:00	2024-11-08T13:00:00	5	Humedad	59
56285	7	Sololá	717	San Juan la Laguna	12	San Juan la Laguna	5	Mayo	2023-05-27T00:00:00	2024-11-08T13:00:00	6	Velocidad del viento	6.4
56286	7	Sololá	717	San Juan la Laguna	12	San Juan la Laguna	5	Mayo	2023-05-27T00:00:00	2024-11-08T13:00:00	7	Dirección del viento	6.44
56287	7	Sololá	717	San Juan la Laguna	12	San Juan la Laguna	5	Mayo	2023-05-27T00:00:00	2024-11-08T13:00:00	1	Precipitación	0
56288	7	Sololá	717	San Juan la Laguna	12	San Juan la Laguna	5	Mayo	2023-05-27T00:00:00	2024-11-08T13:00:00	8	Radiación solar	900
56289	7	Sololá	717	San Juan la Laguna	12	San Juan la Laguna	5	Mayo	2023-05-27T00:00:00	2024-11-08T14:00:00	2	Temperatura media	24
56290	7	Sololá	717	San Juan la Laguna	12	San Juan la Laguna	5	Mayo	2023-05-27T00:00:00	2024-11-08T14:00:00	4	Temperatura máxima	24.2
56291	7	Sololá	717	San Juan la Laguna	12	San Juan la Laguna	5	Mayo	2023-05-27T00:00:00	2024-11-08T14:00:00	3	Temperatura mínima	23.5
56292	7	Sololá	717	San Juan la Laguna	12	San Juan la Laguna	5	Mayo	2023-05-27T00:00:00	2024-11-08T14:00:00	5	Humedad	60
56293	7	Sololá	717	San Juan la Laguna	12	San Juan la Laguna	5	Mayo	2023-05-27T00:00:00	2024-11-08T14:00:00	6	Velocidad del viento	6.4
56294	7	Sololá	717	San Juan la Laguna	12	San Juan la Laguna	5	Mayo	2023-05-27T00:00:00	2024-11-08T14:00:00	7	Dirección del viento	6.44
56295	7	Sololá	717	San Juan la Laguna	12	San Juan la Laguna	5	Mayo	2023-05-27T00:00:00	2024-11-08T14:00:00	1	Precipitación	0
56296	7	Sololá	717	San Juan la Laguna	12	San Juan la Laguna	5	Mayo	2023-05-27T00:00:00	2024-11-08T14:00:00	8	Radiación solar	785
56297	7	Sololá	717	San Juan la Laguna	12	San Juan la Laguna	5	Mayo	2023-05-27T00:00:00	2024-11-08T15:00:00	2	Temperatura media	23.7
56298	7	Sololá	717	San Juan la Laguna	12	San Juan la Laguna	5	Mayo	2023-05-27T00:00:00	2024-11-08T15:00:00	4	Temperatura máxima	24.4
56299	7	Sololá	717	San Juan la Laguna	12	San Juan la Laguna	5	Mayo	2023-05-27T00:00:00	2024-11-08T15:00:00	3	Temperatura mínima	23.7
56300	7	Sololá	717	San Juan la Laguna	12	San Juan la Laguna	5	Mayo	2023-05-27T00:00:00	2024-11-08T15:00:00	5	Humedad	63
56301	7	Sololá	717	San Juan la Laguna	12	San Juan la Laguna	5	Mayo	2023-05-27T00:00:00	2024-11-08T15:00:00	6	Velocidad del viento	4.8
56302	7	Sololá	717	San Juan la Laguna	12	San Juan la Laguna	5	Mayo	2023-05-27T00:00:00	2024-11-08T15:00:00	7	Dirección del viento	4.83
56303	7	Sololá	717	San Juan la Laguna	12	San Juan la Laguna	5	Mayo	2023-05-27T00:00:00	2024-11-08T15:00:00	1	Precipitación	0
56304	7	Sololá	717	San Juan la Laguna	12	San Juan la Laguna	5	Mayo	2023-05-27T00:00:00	2024-11-08T15:00:00	8	Radiación solar	546
56305	7	Sololá	717	San Juan la Laguna	12	San Juan la Laguna	5	Mayo	2023-05-27T00:00:00	2024-11-08T16:00:00	2	Temperatura media	23.9
56306	7	Sololá	717	San Juan la Laguna	12	San Juan la Laguna	5	Mayo	2023-05-27T00:00:00	2024-11-08T16:00:00	4	Temperatura máxima	23.9
56307	7	Sololá	717	San Juan la Laguna	12	San Juan la Laguna	5	Mayo	2023-05-27T00:00:00	2024-11-08T16:00:00	3	Temperatura mínima	22.7
56308	7	Sololá	717	San Juan la Laguna	12	San Juan la Laguna	5	Mayo	2023-05-27T00:00:00	2024-11-08T16:00:00	5	Humedad	68
56309	7	Sololá	717	San Juan la Laguna	12	San Juan la Laguna	5	Mayo	2023-05-27T00:00:00	2024-11-08T16:00:00	6	Velocidad del viento	3.2
56310	7	Sololá	717	San Juan la Laguna	12	San Juan la Laguna	5	Mayo	2023-05-27T00:00:00	2024-11-08T16:00:00	7	Dirección del viento	3.22
56311	7	Sololá	717	San Juan la Laguna	12	San Juan la Laguna	5	Mayo	2023-05-27T00:00:00	2024-11-08T16:00:00	1	Precipitación	0
56312	7	Sololá	717	San Juan la Laguna	12	San Juan la Laguna	5	Mayo	2023-05-27T00:00:00	2024-11-08T16:00:00	8	Radiación solar	391
56313	7	Sololá	717	San Juan la Laguna	12	San Juan la Laguna	5	Mayo	2023-05-27T00:00:00	2024-11-08T17:00:00	2	Temperatura media	21.7
56314	7	Sololá	717	San Juan la Laguna	12	San Juan la Laguna	5	Mayo	2023-05-27T00:00:00	2024-11-08T17:00:00	4	Temperatura máxima	23.9
56315	7	Sololá	717	San Juan la Laguna	12	San Juan la Laguna	5	Mayo	2023-05-27T00:00:00	2024-11-08T17:00:00	3	Temperatura mínima	21.7
56316	7	Sololá	717	San Juan la Laguna	12	San Juan la Laguna	5	Mayo	2023-05-27T00:00:00	2024-11-08T17:00:00	5	Humedad	75
56317	7	Sololá	717	San Juan la Laguna	12	San Juan la Laguna	5	Mayo	2023-05-27T00:00:00	2024-11-08T17:00:00	6	Velocidad del viento	4.8
56318	7	Sololá	717	San Juan la Laguna	12	San Juan la Laguna	5	Mayo	2023-05-27T00:00:00	2024-11-08T17:00:00	7	Dirección del viento	4.83
56319	7	Sololá	717	San Juan la Laguna	12	San Juan la Laguna	5	Mayo	2023-05-27T00:00:00	2024-11-08T17:00:00	1	Precipitación	0
56320	7	Sololá	717	San Juan la Laguna	12	San Juan la Laguna	5	Mayo	2023-05-27T00:00:00	2024-11-08T17:00:00	8	Radiación solar	278
56321	7	Sololá	717	San Juan la Laguna	12	San Juan la Laguna	5	Mayo	2023-05-27T00:00:00	2024-11-08T18:00:00	2	Temperatura media	21.2
56322	7	Sololá	717	San Juan la Laguna	12	San Juan la Laguna	5	Mayo	2023-05-27T00:00:00	2024-11-08T18:00:00	4	Temperatura máxima	22.1
56323	7	Sololá	717	San Juan la Laguna	12	San Juan la Laguna	5	Mayo	2023-05-27T00:00:00	2024-11-08T18:00:00	3	Temperatura mínima	21.2
56324	7	Sololá	717	San Juan la Laguna	12	San Juan la Laguna	5	Mayo	2023-05-27T00:00:00	2024-11-08T18:00:00	5	Humedad	77
56325	7	Sololá	717	San Juan la Laguna	12	San Juan la Laguna	5	Mayo	2023-05-27T00:00:00	2024-11-08T18:00:00	6	Velocidad del viento	3.2
56326	7	Sololá	717	San Juan la Laguna	12	San Juan la Laguna	5	Mayo	2023-05-27T00:00:00	2024-11-08T18:00:00	7	Dirección del viento	3.22
56327	7	Sololá	717	San Juan la Laguna	12	San Juan la Laguna	5	Mayo	2023-05-27T00:00:00	2024-11-08T18:00:00	1	Precipitación	0
56328	7	Sololá	717	San Juan la Laguna	12	San Juan la Laguna	5	Mayo	2023-05-27T00:00:00	2024-11-08T18:00:00	8	Radiación solar	114
56329	7	Sololá	717	San Juan la Laguna	12	San Juan la Laguna	5	Mayo	2023-05-27T00:00:00	2024-11-08T19:00:00	2	Temperatura media	20.3
56330	7	Sololá	717	San Juan la Laguna	12	San Juan la Laguna	5	Mayo	2023-05-27T00:00:00	2024-11-08T19:00:00	4	Temperatura máxima	21.2
56331	7	Sololá	717	San Juan la Laguna	12	San Juan la Laguna	5	Mayo	2023-05-27T00:00:00	2024-11-08T19:00:00	3	Temperatura mínima	20.2
56332	7	Sololá	717	San Juan la Laguna	12	San Juan la Laguna	5	Mayo	2023-05-27T00:00:00	2024-11-08T19:00:00	5	Humedad	81
56333	7	Sololá	717	San Juan la Laguna	12	San Juan la Laguna	5	Mayo	2023-05-27T00:00:00	2024-11-08T19:00:00	6	Velocidad del viento	3.2
56334	7	Sololá	717	San Juan la Laguna	12	San Juan la Laguna	5	Mayo	2023-05-27T00:00:00	2024-11-08T19:00:00	7	Dirección del viento	3.22
56335	7	Sololá	717	San Juan la Laguna	12	San Juan la Laguna	5	Mayo	2023-05-27T00:00:00	2024-11-08T19:00:00	1	Precipitación	0
56336	7	Sololá	717	San Juan la Laguna	12	San Juan la Laguna	5	Mayo	2023-05-27T00:00:00	2024-11-08T19:00:00	8	Radiación solar	0
56337	7	Sololá	717	San Juan la Laguna	12	San Juan la Laguna	5	Mayo	2023-05-27T00:00:00	2024-11-08T20:00:00	2	Temperatura media	20.4
56338	7	Sololá	717	San Juan la Laguna	12	San Juan la Laguna	5	Mayo	2023-05-27T00:00:00	2024-11-08T20:00:00	4	Temperatura máxima	20.6
56339	7	Sololá	717	San Juan la Laguna	12	San Juan la Laguna	5	Mayo	2023-05-27T00:00:00	2024-11-08T20:00:00	3	Temperatura mínima	20.3
56340	7	Sololá	717	San Juan la Laguna	12	San Juan la Laguna	5	Mayo	2023-05-27T00:00:00	2024-11-08T20:00:00	5	Humedad	81
56341	7	Sololá	717	San Juan la Laguna	12	San Juan la Laguna	5	Mayo	2023-05-27T00:00:00	2024-11-08T20:00:00	6	Velocidad del viento	1.6
56342	7	Sololá	717	San Juan la Laguna	12	San Juan la Laguna	5	Mayo	2023-05-27T00:00:00	2024-11-08T20:00:00	7	Dirección del viento	1.61
56343	7	Sololá	717	San Juan la Laguna	12	San Juan la Laguna	5	Mayo	2023-05-27T00:00:00	2024-11-08T20:00:00	1	Precipitación	0
56344	7	Sololá	717	San Juan la Laguna	12	San Juan la Laguna	5	Mayo	2023-05-27T00:00:00	2024-11-08T20:00:00	8	Radiación solar	0
56345	7	Sololá	717	San Juan la Laguna	12	San Juan la Laguna	5	Mayo	2023-05-27T00:00:00	2024-11-08T21:00:00	2	Temperatura media	20.3
56346	7	Sololá	717	San Juan la Laguna	12	San Juan la Laguna	5	Mayo	2023-05-27T00:00:00	2024-11-08T21:00:00	4	Temperatura máxima	20.4
56347	7	Sololá	717	San Juan la Laguna	12	San Juan la Laguna	5	Mayo	2023-05-27T00:00:00	2024-11-08T21:00:00	3	Temperatura mínima	20.2
56348	7	Sololá	717	San Juan la Laguna	12	San Juan la Laguna	5	Mayo	2023-05-27T00:00:00	2024-11-08T21:00:00	5	Humedad	82
56349	7	Sololá	717	San Juan la Laguna	12	San Juan la Laguna	5	Mayo	2023-05-27T00:00:00	2024-11-08T21:00:00	6	Velocidad del viento	0
56350	7	Sololá	717	San Juan la Laguna	12	San Juan la Laguna	5	Mayo	2023-05-27T00:00:00	2024-11-08T21:00:00	7	Dirección del viento	0
56351	7	Sololá	717	San Juan la Laguna	12	San Juan la Laguna	5	Mayo	2023-05-27T00:00:00	2024-11-08T21:00:00	1	Precipitación	0
56352	7	Sololá	717	San Juan la Laguna	12	San Juan la Laguna	5	Mayo	2023-05-27T00:00:00	2024-11-08T21:00:00	8	Radiación solar	0
56353	7	Sololá	717	San Juan la Laguna	12	San Juan la Laguna	5	Mayo	2023-05-27T00:00:00	2024-11-08T22:00:00	2	Temperatura media	18.3
56354	7	Sololá	717	San Juan la Laguna	12	San Juan la Laguna	5	Mayo	2023-05-27T00:00:00	2024-11-08T22:00:00	4	Temperatura máxima	20.4
56355	7	Sololá	717	San Juan la Laguna	12	San Juan la Laguna	5	Mayo	2023-05-27T00:00:00	2024-11-08T22:00:00	3	Temperatura mínima	18.3
56356	7	Sololá	717	San Juan la Laguna	12	San Juan la Laguna	5	Mayo	2023-05-27T00:00:00	2024-11-08T22:00:00	5	Humedad	88
56357	7	Sololá	717	San Juan la Laguna	12	San Juan la Laguna	5	Mayo	2023-05-27T00:00:00	2024-11-08T22:00:00	6	Velocidad del viento	3.2
56358	7	Sololá	717	San Juan la Laguna	12	San Juan la Laguna	5	Mayo	2023-05-27T00:00:00	2024-11-08T22:00:00	7	Dirección del viento	3.22
56359	7	Sololá	717	San Juan la Laguna	12	San Juan la Laguna	5	Mayo	2023-05-27T00:00:00	2024-11-08T22:00:00	1	Precipitación	0.4
56360	7	Sololá	717	San Juan la Laguna	12	San Juan la Laguna	5	Mayo	2023-05-27T00:00:00	2024-11-08T22:00:00	8	Radiación solar	0
56361	7	Sololá	717	San Juan la Laguna	12	San Juan la Laguna	5	Mayo	2023-05-27T00:00:00	2024-11-08T23:00:00	2	Temperatura media	17.7
56362	7	Sololá	717	San Juan la Laguna	12	San Juan la Laguna	5	Mayo	2023-05-27T00:00:00	2024-11-08T23:00:00	4	Temperatura máxima	18.3
56363	7	Sololá	717	San Juan la Laguna	12	San Juan la Laguna	5	Mayo	2023-05-27T00:00:00	2024-11-08T23:00:00	3	Temperatura mínima	17.6
56364	7	Sololá	717	San Juan la Laguna	12	San Juan la Laguna	5	Mayo	2023-05-27T00:00:00	2024-11-08T23:00:00	5	Humedad	92
56365	7	Sololá	717	San Juan la Laguna	12	San Juan la Laguna	5	Mayo	2023-05-27T00:00:00	2024-11-08T23:00:00	6	Velocidad del viento	3.2
56366	7	Sololá	717	San Juan la Laguna	12	San Juan la Laguna	5	Mayo	2023-05-27T00:00:00	2024-11-08T23:00:00	7	Dirección del viento	3.22
56367	7	Sololá	717	San Juan la Laguna	12	San Juan la Laguna	5	Mayo	2023-05-27T00:00:00	2024-11-08T23:00:00	1	Precipitación	1.2
56368	7	Sololá	717	San Juan la Laguna	12	San Juan la Laguna	5	Mayo	2023-05-27T00:00:00	2024-11-08T23:00:00	8	Radiación solar	0
56369	7	Sololá	717	San Juan la Laguna	12	San Juan la Laguna	5	Mayo	2023-05-28T00:00:00	2024-11-08T00:00:00	2	Temperatura media	17.2
56370	7	Sololá	717	San Juan la Laguna	12	San Juan la Laguna	5	Mayo	2023-05-28T00:00:00	2024-11-08T00:00:00	4	Temperatura máxima	17.7
56371	7	Sololá	717	San Juan la Laguna	12	San Juan la Laguna	5	Mayo	2023-05-28T00:00:00	2024-11-08T00:00:00	3	Temperatura mínima	17.1
56372	7	Sololá	717	San Juan la Laguna	12	San Juan la Laguna	5	Mayo	2023-05-28T00:00:00	2024-11-08T00:00:00	5	Humedad	94
56373	7	Sololá	717	San Juan la Laguna	12	San Juan la Laguna	5	Mayo	2023-05-28T00:00:00	2024-11-08T00:00:00	6	Velocidad del viento	1.6
56374	7	Sololá	717	San Juan la Laguna	12	San Juan la Laguna	5	Mayo	2023-05-28T00:00:00	2024-11-08T00:00:00	7	Dirección del viento	1.61
56375	7	Sololá	717	San Juan la Laguna	12	San Juan la Laguna	5	Mayo	2023-05-28T00:00:00	2024-11-08T00:00:00	1	Precipitación	12.8
56376	7	Sololá	717	San Juan la Laguna	12	San Juan la Laguna	5	Mayo	2023-05-28T00:00:00	2024-11-08T00:00:00	8	Radiación solar	0
56377	7	Sololá	717	San Juan la Laguna	12	San Juan la Laguna	5	Mayo	2023-05-28T00:00:00	2024-11-08T01:00:00	2	Temperatura media	16.9
56378	7	Sololá	717	San Juan la Laguna	12	San Juan la Laguna	5	Mayo	2023-05-28T00:00:00	2024-11-08T01:00:00	4	Temperatura máxima	17.2
56379	7	Sololá	717	San Juan la Laguna	12	San Juan la Laguna	5	Mayo	2023-05-28T00:00:00	2024-11-08T01:00:00	3	Temperatura mínima	16.9
56380	7	Sololá	717	San Juan la Laguna	12	San Juan la Laguna	5	Mayo	2023-05-28T00:00:00	2024-11-08T01:00:00	5	Humedad	94
56381	7	Sololá	717	San Juan la Laguna	12	San Juan la Laguna	5	Mayo	2023-05-28T00:00:00	2024-11-08T01:00:00	6	Velocidad del viento	0
56382	7	Sololá	717	San Juan la Laguna	12	San Juan la Laguna	5	Mayo	2023-05-28T00:00:00	2024-11-08T01:00:00	7	Dirección del viento	0
56383	7	Sololá	717	San Juan la Laguna	12	San Juan la Laguna	5	Mayo	2023-05-28T00:00:00	2024-11-08T01:00:00	1	Precipitación	1.8
56384	7	Sololá	717	San Juan la Laguna	12	San Juan la Laguna	5	Mayo	2023-05-28T00:00:00	2024-11-08T01:00:00	8	Radiación solar	0
56385	7	Sololá	717	San Juan la Laguna	12	San Juan la Laguna	5	Mayo	2023-05-28T00:00:00	2024-11-08T02:00:00	2	Temperatura media	16.7
56386	7	Sololá	717	San Juan la Laguna	12	San Juan la Laguna	5	Mayo	2023-05-28T00:00:00	2024-11-08T02:00:00	4	Temperatura máxima	16.9
56387	7	Sololá	717	San Juan la Laguna	12	San Juan la Laguna	5	Mayo	2023-05-28T00:00:00	2024-11-08T02:00:00	3	Temperatura mínima	16.5
56388	7	Sololá	717	San Juan la Laguna	12	San Juan la Laguna	5	Mayo	2023-05-28T00:00:00	2024-11-08T02:00:00	5	Humedad	94
56389	7	Sololá	717	San Juan la Laguna	12	San Juan la Laguna	5	Mayo	2023-05-28T00:00:00	2024-11-08T02:00:00	6	Velocidad del viento	0
56390	7	Sololá	717	San Juan la Laguna	12	San Juan la Laguna	5	Mayo	2023-05-28T00:00:00	2024-11-08T02:00:00	7	Dirección del viento	0
56391	7	Sololá	717	San Juan la Laguna	12	San Juan la Laguna	5	Mayo	2023-05-28T00:00:00	2024-11-08T02:00:00	1	Precipitación	2.8
56392	7	Sololá	717	San Juan la Laguna	12	San Juan la Laguna	5	Mayo	2023-05-28T00:00:00	2024-11-08T02:00:00	8	Radiación solar	0
56393	7	Sololá	717	San Juan la Laguna	12	San Juan la Laguna	5	Mayo	2023-05-28T00:00:00	2024-11-08T03:00:00	2	Temperatura media	16.4
56394	7	Sololá	717	San Juan la Laguna	12	San Juan la Laguna	5	Mayo	2023-05-28T00:00:00	2024-11-08T03:00:00	4	Temperatura máxima	16.7
56395	7	Sololá	717	San Juan la Laguna	12	San Juan la Laguna	5	Mayo	2023-05-28T00:00:00	2024-11-08T03:00:00	3	Temperatura mínima	16.4
56396	7	Sololá	717	San Juan la Laguna	12	San Juan la Laguna	5	Mayo	2023-05-28T00:00:00	2024-11-08T03:00:00	5	Humedad	93
56397	7	Sololá	717	San Juan la Laguna	12	San Juan la Laguna	5	Mayo	2023-05-28T00:00:00	2024-11-08T03:00:00	6	Velocidad del viento	0
56398	7	Sololá	717	San Juan la Laguna	12	San Juan la Laguna	5	Mayo	2023-05-28T00:00:00	2024-11-08T03:00:00	7	Dirección del viento	0
56399	7	Sololá	717	San Juan la Laguna	12	San Juan la Laguna	5	Mayo	2023-05-28T00:00:00	2024-11-08T03:00:00	1	Precipitación	0.6
56400	7	Sololá	717	San Juan la Laguna	12	San Juan la Laguna	5	Mayo	2023-05-28T00:00:00	2024-11-08T03:00:00	8	Radiación solar	0
56401	7	Sololá	717	San Juan la Laguna	12	San Juan la Laguna	5	Mayo	2023-05-28T00:00:00	2024-11-08T04:00:00	2	Temperatura media	16.2
56402	7	Sololá	717	San Juan la Laguna	12	San Juan la Laguna	5	Mayo	2023-05-28T00:00:00	2024-11-08T04:00:00	4	Temperatura máxima	16.4
56403	7	Sololá	717	San Juan la Laguna	12	San Juan la Laguna	5	Mayo	2023-05-28T00:00:00	2024-11-08T04:00:00	3	Temperatura mínima	16.2
56404	7	Sololá	717	San Juan la Laguna	12	San Juan la Laguna	5	Mayo	2023-05-28T00:00:00	2024-11-08T04:00:00	5	Humedad	93
56405	7	Sololá	717	San Juan la Laguna	12	San Juan la Laguna	5	Mayo	2023-05-28T00:00:00	2024-11-08T04:00:00	6	Velocidad del viento	1.6
56406	7	Sololá	717	San Juan la Laguna	12	San Juan la Laguna	5	Mayo	2023-05-28T00:00:00	2024-11-08T04:00:00	7	Dirección del viento	1.61
56407	7	Sololá	717	San Juan la Laguna	12	San Juan la Laguna	5	Mayo	2023-05-28T00:00:00	2024-11-08T04:00:00	1	Precipitación	0.6
56408	7	Sololá	717	San Juan la Laguna	12	San Juan la Laguna	5	Mayo	2023-05-28T00:00:00	2024-11-08T04:00:00	8	Radiación solar	0
56409	7	Sololá	717	San Juan la Laguna	12	San Juan la Laguna	5	Mayo	2023-05-28T00:00:00	2024-11-08T05:00:00	2	Temperatura media	16.2
56410	7	Sololá	717	San Juan la Laguna	12	San Juan la Laguna	5	Mayo	2023-05-28T00:00:00	2024-11-08T05:00:00	4	Temperatura máxima	16.4
56411	7	Sololá	717	San Juan la Laguna	12	San Juan la Laguna	5	Mayo	2023-05-28T00:00:00	2024-11-08T05:00:00	3	Temperatura mínima	16.2
56412	7	Sololá	717	San Juan la Laguna	12	San Juan la Laguna	5	Mayo	2023-05-28T00:00:00	2024-11-08T05:00:00	5	Humedad	93
56413	7	Sololá	717	San Juan la Laguna	12	San Juan la Laguna	5	Mayo	2023-05-28T00:00:00	2024-11-08T05:00:00	6	Velocidad del viento	0
56414	7	Sololá	717	San Juan la Laguna	12	San Juan la Laguna	5	Mayo	2023-05-28T00:00:00	2024-11-08T05:00:00	7	Dirección del viento	0
56415	7	Sololá	717	San Juan la Laguna	12	San Juan la Laguna	5	Mayo	2023-05-28T00:00:00	2024-11-08T05:00:00	1	Precipitación	0
56416	7	Sololá	717	San Juan la Laguna	12	San Juan la Laguna	5	Mayo	2023-05-28T00:00:00	2024-11-08T05:00:00	8	Radiación solar	0
56417	7	Sololá	717	San Juan la Laguna	12	San Juan la Laguna	5	Mayo	2023-05-28T00:00:00	2024-11-08T06:00:00	2	Temperatura media	16.3
56418	7	Sololá	717	San Juan la Laguna	12	San Juan la Laguna	5	Mayo	2023-05-28T00:00:00	2024-11-08T06:00:00	4	Temperatura máxima	16.3
56419	7	Sololá	717	San Juan la Laguna	12	San Juan la Laguna	5	Mayo	2023-05-28T00:00:00	2024-11-08T06:00:00	3	Temperatura mínima	16.1
56420	7	Sololá	717	San Juan la Laguna	12	San Juan la Laguna	5	Mayo	2023-05-28T00:00:00	2024-11-08T06:00:00	5	Humedad	93
56421	7	Sololá	717	San Juan la Laguna	12	San Juan la Laguna	5	Mayo	2023-05-28T00:00:00	2024-11-08T06:00:00	6	Velocidad del viento	1.6
56422	7	Sololá	717	San Juan la Laguna	12	San Juan la Laguna	5	Mayo	2023-05-28T00:00:00	2024-11-08T06:00:00	7	Dirección del viento	1.61
56423	7	Sololá	717	San Juan la Laguna	12	San Juan la Laguna	5	Mayo	2023-05-28T00:00:00	2024-11-08T06:00:00	1	Precipitación	0.2
56424	7	Sololá	717	San Juan la Laguna	12	San Juan la Laguna	5	Mayo	2023-05-28T00:00:00	2024-11-08T06:00:00	8	Radiación solar	0
56425	7	Sololá	717	San Juan la Laguna	12	San Juan la Laguna	5	Mayo	2023-05-28T00:00:00	2024-11-08T07:00:00	2	Temperatura media	16.9
56426	7	Sololá	717	San Juan la Laguna	12	San Juan la Laguna	5	Mayo	2023-05-28T00:00:00	2024-11-08T07:00:00	4	Temperatura máxima	16.9
56427	7	Sololá	717	San Juan la Laguna	12	San Juan la Laguna	5	Mayo	2023-05-28T00:00:00	2024-11-08T07:00:00	3	Temperatura mínima	16.3
56428	7	Sololá	717	San Juan la Laguna	12	San Juan la Laguna	5	Mayo	2023-05-28T00:00:00	2024-11-08T07:00:00	5	Humedad	92
56429	7	Sololá	717	San Juan la Laguna	12	San Juan la Laguna	5	Mayo	2023-05-28T00:00:00	2024-11-08T07:00:00	6	Velocidad del viento	1.6
56430	7	Sololá	717	San Juan la Laguna	12	San Juan la Laguna	5	Mayo	2023-05-28T00:00:00	2024-11-08T07:00:00	7	Dirección del viento	1.61
56431	7	Sololá	717	San Juan la Laguna	12	San Juan la Laguna	5	Mayo	2023-05-28T00:00:00	2024-11-08T07:00:00	1	Precipitación	0
56432	7	Sololá	717	San Juan la Laguna	12	San Juan la Laguna	5	Mayo	2023-05-28T00:00:00	2024-11-08T07:00:00	8	Radiación solar	28
56433	7	Sololá	717	San Juan la Laguna	12	San Juan la Laguna	5	Mayo	2023-05-28T00:00:00	2024-11-08T08:00:00	2	Temperatura media	19.8
56434	7	Sololá	717	San Juan la Laguna	12	San Juan la Laguna	5	Mayo	2023-05-28T00:00:00	2024-11-08T08:00:00	4	Temperatura máxima	19.8
56435	7	Sololá	717	San Juan la Laguna	12	San Juan la Laguna	5	Mayo	2023-05-28T00:00:00	2024-11-08T08:00:00	3	Temperatura mínima	16.9
56436	7	Sololá	717	San Juan la Laguna	12	San Juan la Laguna	5	Mayo	2023-05-28T00:00:00	2024-11-08T08:00:00	5	Humedad	81
56437	7	Sololá	717	San Juan la Laguna	12	San Juan la Laguna	5	Mayo	2023-05-28T00:00:00	2024-11-08T08:00:00	6	Velocidad del viento	0
56438	7	Sololá	717	San Juan la Laguna	12	San Juan la Laguna	5	Mayo	2023-05-28T00:00:00	2024-11-08T08:00:00	7	Dirección del viento	0
56439	7	Sololá	717	San Juan la Laguna	12	San Juan la Laguna	5	Mayo	2023-05-28T00:00:00	2024-11-08T08:00:00	1	Precipitación	0
56440	7	Sololá	717	San Juan la Laguna	12	San Juan la Laguna	5	Mayo	2023-05-28T00:00:00	2024-11-08T08:00:00	8	Radiación solar	226
56441	7	Sololá	717	San Juan la Laguna	12	San Juan la Laguna	5	Mayo	2023-05-28T00:00:00	2024-11-08T09:00:00	2	Temperatura media	20.4
56442	7	Sololá	717	San Juan la Laguna	12	San Juan la Laguna	5	Mayo	2023-05-28T00:00:00	2024-11-08T09:00:00	4	Temperatura máxima	20.9
56443	7	Sololá	717	San Juan la Laguna	12	San Juan la Laguna	5	Mayo	2023-05-28T00:00:00	2024-11-08T09:00:00	3	Temperatura mínima	19.6
56444	7	Sololá	717	San Juan la Laguna	12	San Juan la Laguna	5	Mayo	2023-05-28T00:00:00	2024-11-08T09:00:00	5	Humedad	75
56445	7	Sololá	717	San Juan la Laguna	12	San Juan la Laguna	5	Mayo	2023-05-28T00:00:00	2024-11-08T09:00:00	6	Velocidad del viento	1.6
56446	7	Sololá	717	San Juan la Laguna	12	San Juan la Laguna	5	Mayo	2023-05-28T00:00:00	2024-11-08T09:00:00	7	Dirección del viento	1.61
56447	7	Sololá	717	San Juan la Laguna	12	San Juan la Laguna	5	Mayo	2023-05-28T00:00:00	2024-11-08T09:00:00	1	Precipitación	0
56448	7	Sololá	717	San Juan la Laguna	12	San Juan la Laguna	5	Mayo	2023-05-28T00:00:00	2024-11-08T09:00:00	8	Radiación solar	348
56449	7	Sololá	717	San Juan la Laguna	12	San Juan la Laguna	5	Mayo	2023-05-28T00:00:00	2024-11-08T10:00:00	2	Temperatura media	20.9
56450	7	Sololá	717	San Juan la Laguna	12	San Juan la Laguna	5	Mayo	2023-05-28T00:00:00	2024-11-08T10:00:00	4	Temperatura máxima	21.6
56451	7	Sololá	717	San Juan la Laguna	12	San Juan la Laguna	5	Mayo	2023-05-28T00:00:00	2024-11-08T10:00:00	3	Temperatura mínima	20.2
56452	7	Sololá	717	San Juan la Laguna	12	San Juan la Laguna	5	Mayo	2023-05-28T00:00:00	2024-11-08T10:00:00	5	Humedad	75
56453	7	Sololá	717	San Juan la Laguna	12	San Juan la Laguna	5	Mayo	2023-05-28T00:00:00	2024-11-08T10:00:00	6	Velocidad del viento	1.6
56454	7	Sololá	717	San Juan la Laguna	12	San Juan la Laguna	5	Mayo	2023-05-28T00:00:00	2024-11-08T10:00:00	7	Dirección del viento	1.61
56455	7	Sololá	717	San Juan la Laguna	12	San Juan la Laguna	5	Mayo	2023-05-28T00:00:00	2024-11-08T10:00:00	1	Precipitación	0
56456	7	Sololá	717	San Juan la Laguna	12	San Juan la Laguna	5	Mayo	2023-05-28T00:00:00	2024-11-08T10:00:00	8	Radiación solar	368
56457	7	Sololá	717	San Juan la Laguna	12	San Juan la Laguna	5	Mayo	2023-05-28T00:00:00	2024-11-08T11:00:00	2	Temperatura media	22.9
56458	7	Sololá	717	San Juan la Laguna	12	San Juan la Laguna	5	Mayo	2023-05-28T00:00:00	2024-11-08T11:00:00	4	Temperatura máxima	22.9
56459	7	Sololá	717	San Juan la Laguna	12	San Juan la Laguna	5	Mayo	2023-05-28T00:00:00	2024-11-08T11:00:00	3	Temperatura mínima	20.9
56460	7	Sololá	717	San Juan la Laguna	12	San Juan la Laguna	5	Mayo	2023-05-28T00:00:00	2024-11-08T11:00:00	5	Humedad	70
56461	7	Sololá	717	San Juan la Laguna	12	San Juan la Laguna	5	Mayo	2023-05-28T00:00:00	2024-11-08T11:00:00	6	Velocidad del viento	3.2
56462	7	Sololá	717	San Juan la Laguna	12	San Juan la Laguna	5	Mayo	2023-05-28T00:00:00	2024-11-08T11:00:00	7	Dirección del viento	3.22
56463	7	Sololá	717	San Juan la Laguna	12	San Juan la Laguna	5	Mayo	2023-05-28T00:00:00	2024-11-08T11:00:00	1	Precipitación	0
56464	7	Sololá	717	San Juan la Laguna	12	San Juan la Laguna	5	Mayo	2023-05-28T00:00:00	2024-11-08T11:00:00	8	Radiación solar	800
56465	7	Sololá	717	San Juan la Laguna	12	San Juan la Laguna	5	Mayo	2023-05-28T00:00:00	2024-11-08T12:00:00	2	Temperatura media	23.3
56466	7	Sololá	717	San Juan la Laguna	12	San Juan la Laguna	5	Mayo	2023-05-28T00:00:00	2024-11-08T12:00:00	4	Temperatura máxima	23.3
56467	7	Sololá	717	San Juan la Laguna	12	San Juan la Laguna	5	Mayo	2023-05-28T00:00:00	2024-11-08T12:00:00	3	Temperatura mínima	22
56468	7	Sololá	717	San Juan la Laguna	12	San Juan la Laguna	5	Mayo	2023-05-28T00:00:00	2024-11-08T12:00:00	5	Humedad	67
56469	7	Sololá	717	San Juan la Laguna	12	San Juan la Laguna	5	Mayo	2023-05-28T00:00:00	2024-11-08T12:00:00	6	Velocidad del viento	4.8
56470	7	Sololá	717	San Juan la Laguna	12	San Juan la Laguna	5	Mayo	2023-05-28T00:00:00	2024-11-08T12:00:00	7	Dirección del viento	4.83
56471	7	Sololá	717	San Juan la Laguna	12	San Juan la Laguna	5	Mayo	2023-05-28T00:00:00	2024-11-08T12:00:00	1	Precipitación	0.2
56472	7	Sololá	717	San Juan la Laguna	12	San Juan la Laguna	5	Mayo	2023-05-28T00:00:00	2024-11-08T12:00:00	8	Radiación solar	825
56473	7	Sololá	717	San Juan la Laguna	12	San Juan la Laguna	5	Mayo	2023-05-28T00:00:00	2024-11-08T13:00:00	2	Temperatura media	22.6
56474	7	Sololá	717	San Juan la Laguna	12	San Juan la Laguna	5	Mayo	2023-05-28T00:00:00	2024-11-08T13:00:00	4	Temperatura máxima	23.8
56475	7	Sololá	717	San Juan la Laguna	12	San Juan la Laguna	5	Mayo	2023-05-28T00:00:00	2024-11-08T13:00:00	3	Temperatura mínima	22.1
56476	7	Sololá	717	San Juan la Laguna	12	San Juan la Laguna	5	Mayo	2023-05-28T00:00:00	2024-11-08T13:00:00	5	Humedad	73
56477	7	Sololá	717	San Juan la Laguna	12	San Juan la Laguna	5	Mayo	2023-05-28T00:00:00	2024-11-08T13:00:00	6	Velocidad del viento	3.2
56478	7	Sololá	717	San Juan la Laguna	12	San Juan la Laguna	5	Mayo	2023-05-28T00:00:00	2024-11-08T13:00:00	7	Dirección del viento	3.22
56479	7	Sololá	717	San Juan la Laguna	12	San Juan la Laguna	5	Mayo	2023-05-28T00:00:00	2024-11-08T13:00:00	1	Precipitación	0
56480	7	Sololá	717	San Juan la Laguna	12	San Juan la Laguna	5	Mayo	2023-05-28T00:00:00	2024-11-08T13:00:00	8	Radiación solar	646
56481	7	Sololá	717	San Juan la Laguna	12	San Juan la Laguna	5	Mayo	2023-05-28T00:00:00	2024-11-08T14:00:00	2	Temperatura media	22.6
56482	7	Sololá	717	San Juan la Laguna	12	San Juan la Laguna	5	Mayo	2023-05-28T00:00:00	2024-11-08T14:00:00	4	Temperatura máxima	22.7
56483	7	Sololá	717	San Juan la Laguna	12	San Juan la Laguna	5	Mayo	2023-05-28T00:00:00	2024-11-08T14:00:00	3	Temperatura mínima	21.4
56484	7	Sololá	717	San Juan la Laguna	12	San Juan la Laguna	5	Mayo	2023-05-28T00:00:00	2024-11-08T14:00:00	5	Humedad	74
56485	7	Sololá	717	San Juan la Laguna	12	San Juan la Laguna	5	Mayo	2023-05-28T00:00:00	2024-11-08T14:00:00	6	Velocidad del viento	4.8
56486	7	Sololá	717	San Juan la Laguna	12	San Juan la Laguna	5	Mayo	2023-05-28T00:00:00	2024-11-08T14:00:00	7	Dirección del viento	4.83
56487	7	Sololá	717	San Juan la Laguna	12	San Juan la Laguna	5	Mayo	2023-05-28T00:00:00	2024-11-08T14:00:00	1	Precipitación	0
56488	7	Sololá	717	San Juan la Laguna	12	San Juan la Laguna	5	Mayo	2023-05-28T00:00:00	2024-11-08T14:00:00	8	Radiación solar	599
56489	7	Sololá	717	San Juan la Laguna	12	San Juan la Laguna	5	Mayo	2023-05-28T00:00:00	2024-11-08T15:00:00	2	Temperatura media	22.6
56490	7	Sololá	717	San Juan la Laguna	12	San Juan la Laguna	5	Mayo	2023-05-28T00:00:00	2024-11-08T15:00:00	4	Temperatura máxima	23.4
56491	7	Sololá	717	San Juan la Laguna	12	San Juan la Laguna	5	Mayo	2023-05-28T00:00:00	2024-11-08T15:00:00	3	Temperatura mínima	22.3
56492	7	Sololá	717	San Juan la Laguna	12	San Juan la Laguna	5	Mayo	2023-05-28T00:00:00	2024-11-08T15:00:00	5	Humedad	73
56493	7	Sololá	717	San Juan la Laguna	12	San Juan la Laguna	5	Mayo	2023-05-28T00:00:00	2024-11-08T15:00:00	6	Velocidad del viento	6.4
56494	7	Sololá	717	San Juan la Laguna	12	San Juan la Laguna	5	Mayo	2023-05-28T00:00:00	2024-11-08T15:00:00	7	Dirección del viento	6.44
56495	7	Sololá	717	San Juan la Laguna	12	San Juan la Laguna	5	Mayo	2023-05-28T00:00:00	2024-11-08T15:00:00	1	Precipitación	0
56496	7	Sololá	717	San Juan la Laguna	12	San Juan la Laguna	5	Mayo	2023-05-28T00:00:00	2024-11-08T15:00:00	8	Radiación solar	678
56497	7	Sololá	717	San Juan la Laguna	12	San Juan la Laguna	5	Mayo	2023-05-28T00:00:00	2024-11-08T16:00:00	2	Temperatura media	20.6
56498	7	Sololá	717	San Juan la Laguna	12	San Juan la Laguna	5	Mayo	2023-05-28T00:00:00	2024-11-08T16:00:00	4	Temperatura máxima	22.7
56499	7	Sololá	717	San Juan la Laguna	12	San Juan la Laguna	5	Mayo	2023-05-28T00:00:00	2024-11-08T16:00:00	3	Temperatura mínima	20.6
56500	7	Sololá	717	San Juan la Laguna	12	San Juan la Laguna	5	Mayo	2023-05-28T00:00:00	2024-11-08T16:00:00	5	Humedad	79
56501	7	Sololá	717	San Juan la Laguna	12	San Juan la Laguna	5	Mayo	2023-05-28T00:00:00	2024-11-08T16:00:00	6	Velocidad del viento	4.8
56502	7	Sololá	717	San Juan la Laguna	12	San Juan la Laguna	5	Mayo	2023-05-28T00:00:00	2024-11-08T16:00:00	7	Dirección del viento	4.83
56503	7	Sololá	717	San Juan la Laguna	12	San Juan la Laguna	5	Mayo	2023-05-28T00:00:00	2024-11-08T16:00:00	1	Precipitación	0
56504	7	Sololá	717	San Juan la Laguna	12	San Juan la Laguna	5	Mayo	2023-05-28T00:00:00	2024-11-08T16:00:00	8	Radiación solar	143
56505	7	Sololá	717	San Juan la Laguna	12	San Juan la Laguna	5	Mayo	2023-05-28T00:00:00	2024-11-08T17:00:00	2	Temperatura media	20.2
56506	7	Sololá	717	San Juan la Laguna	12	San Juan la Laguna	5	Mayo	2023-05-28T00:00:00	2024-11-08T17:00:00	4	Temperatura máxima	20.6
56507	7	Sololá	717	San Juan la Laguna	12	San Juan la Laguna	5	Mayo	2023-05-28T00:00:00	2024-11-08T17:00:00	3	Temperatura mínima	20.1
56508	7	Sololá	717	San Juan la Laguna	12	San Juan la Laguna	5	Mayo	2023-05-28T00:00:00	2024-11-08T17:00:00	5	Humedad	80
56509	7	Sololá	717	San Juan la Laguna	12	San Juan la Laguna	5	Mayo	2023-05-28T00:00:00	2024-11-08T17:00:00	6	Velocidad del viento	4.8
56510	7	Sololá	717	San Juan la Laguna	12	San Juan la Laguna	5	Mayo	2023-05-28T00:00:00	2024-11-08T17:00:00	7	Dirección del viento	4.83
56511	7	Sololá	717	San Juan la Laguna	12	San Juan la Laguna	5	Mayo	2023-05-28T00:00:00	2024-11-08T17:00:00	1	Precipitación	0
56512	7	Sololá	717	San Juan la Laguna	12	San Juan la Laguna	5	Mayo	2023-05-28T00:00:00	2024-11-08T17:00:00	8	Radiación solar	58
56513	7	Sololá	717	San Juan la Laguna	12	San Juan la Laguna	5	Mayo	2023-05-28T00:00:00	2024-11-08T18:00:00	2	Temperatura media	19.8
56514	7	Sololá	717	San Juan la Laguna	12	San Juan la Laguna	5	Mayo	2023-05-28T00:00:00	2024-11-08T18:00:00	4	Temperatura máxima	20.2
56515	7	Sololá	717	San Juan la Laguna	12	San Juan la Laguna	5	Mayo	2023-05-28T00:00:00	2024-11-08T18:00:00	3	Temperatura mínima	19.6
56516	7	Sololá	717	San Juan la Laguna	12	San Juan la Laguna	5	Mayo	2023-05-28T00:00:00	2024-11-08T18:00:00	5	Humedad	83
56517	7	Sololá	717	San Juan la Laguna	12	San Juan la Laguna	5	Mayo	2023-05-28T00:00:00	2024-11-08T18:00:00	6	Velocidad del viento	4.8
56518	7	Sololá	717	San Juan la Laguna	12	San Juan la Laguna	5	Mayo	2023-05-28T00:00:00	2024-11-08T18:00:00	7	Dirección del viento	4.83
56519	7	Sololá	717	San Juan la Laguna	12	San Juan la Laguna	5	Mayo	2023-05-28T00:00:00	2024-11-08T18:00:00	1	Precipitación	0
56520	7	Sololá	717	San Juan la Laguna	12	San Juan la Laguna	5	Mayo	2023-05-28T00:00:00	2024-11-08T18:00:00	8	Radiación solar	32
56521	7	Sololá	717	San Juan la Laguna	12	San Juan la Laguna	5	Mayo	2023-05-28T00:00:00	2024-11-08T19:00:00	2	Temperatura media	19.9
56522	7	Sololá	717	San Juan la Laguna	12	San Juan la Laguna	5	Mayo	2023-05-28T00:00:00	2024-11-08T19:00:00	4	Temperatura máxima	19.9
56523	7	Sololá	717	San Juan la Laguna	12	San Juan la Laguna	5	Mayo	2023-05-28T00:00:00	2024-11-08T19:00:00	3	Temperatura mínima	19.8
56524	7	Sololá	717	San Juan la Laguna	12	San Juan la Laguna	5	Mayo	2023-05-28T00:00:00	2024-11-08T19:00:00	5	Humedad	83
56525	7	Sololá	717	San Juan la Laguna	12	San Juan la Laguna	5	Mayo	2023-05-28T00:00:00	2024-11-08T19:00:00	6	Velocidad del viento	1.6
56526	7	Sololá	717	San Juan la Laguna	12	San Juan la Laguna	5	Mayo	2023-05-28T00:00:00	2024-11-08T19:00:00	7	Dirección del viento	1.61
56527	7	Sololá	717	San Juan la Laguna	12	San Juan la Laguna	5	Mayo	2023-05-28T00:00:00	2024-11-08T19:00:00	1	Precipitación	0
56528	7	Sololá	717	San Juan la Laguna	12	San Juan la Laguna	5	Mayo	2023-05-28T00:00:00	2024-11-08T19:00:00	8	Radiación solar	0
56529	7	Sololá	717	San Juan la Laguna	12	San Juan la Laguna	5	Mayo	2023-05-28T00:00:00	2024-11-08T20:00:00	2	Temperatura media	19.3
56530	7	Sololá	717	San Juan la Laguna	12	San Juan la Laguna	5	Mayo	2023-05-28T00:00:00	2024-11-08T20:00:00	4	Temperatura máxima	19.9
56531	7	Sololá	717	San Juan la Laguna	12	San Juan la Laguna	5	Mayo	2023-05-28T00:00:00	2024-11-08T20:00:00	3	Temperatura mínima	19.3
56532	7	Sololá	717	San Juan la Laguna	12	San Juan la Laguna	5	Mayo	2023-05-28T00:00:00	2024-11-08T20:00:00	5	Humedad	85
56533	7	Sololá	717	San Juan la Laguna	12	San Juan la Laguna	5	Mayo	2023-05-28T00:00:00	2024-11-08T20:00:00	6	Velocidad del viento	0
56534	7	Sololá	717	San Juan la Laguna	12	San Juan la Laguna	5	Mayo	2023-05-28T00:00:00	2024-11-08T20:00:00	7	Dirección del viento	0
56535	7	Sololá	717	San Juan la Laguna	12	San Juan la Laguna	5	Mayo	2023-05-28T00:00:00	2024-11-08T20:00:00	1	Precipitación	0
56536	7	Sololá	717	San Juan la Laguna	12	San Juan la Laguna	5	Mayo	2023-05-28T00:00:00	2024-11-08T20:00:00	8	Radiación solar	0
56537	7	Sololá	717	San Juan la Laguna	12	San Juan la Laguna	5	Mayo	2023-05-28T00:00:00	2024-11-08T21:00:00	2	Temperatura media	18.9
56538	7	Sololá	717	San Juan la Laguna	12	San Juan la Laguna	5	Mayo	2023-05-28T00:00:00	2024-11-08T21:00:00	4	Temperatura máxima	19.3
56539	7	Sololá	717	San Juan la Laguna	12	San Juan la Laguna	5	Mayo	2023-05-28T00:00:00	2024-11-08T21:00:00	3	Temperatura mínima	18.9
56540	7	Sololá	717	San Juan la Laguna	12	San Juan la Laguna	5	Mayo	2023-05-28T00:00:00	2024-11-08T21:00:00	5	Humedad	87
56541	7	Sololá	717	San Juan la Laguna	12	San Juan la Laguna	5	Mayo	2023-05-28T00:00:00	2024-11-08T21:00:00	6	Velocidad del viento	3.2
56542	7	Sololá	717	San Juan la Laguna	12	San Juan la Laguna	5	Mayo	2023-05-28T00:00:00	2024-11-08T21:00:00	7	Dirección del viento	3.22
56543	7	Sololá	717	San Juan la Laguna	12	San Juan la Laguna	5	Mayo	2023-05-28T00:00:00	2024-11-08T21:00:00	1	Precipitación	0
56544	7	Sololá	717	San Juan la Laguna	12	San Juan la Laguna	5	Mayo	2023-05-28T00:00:00	2024-11-08T21:00:00	8	Radiación solar	0
56545	7	Sololá	717	San Juan la Laguna	12	San Juan la Laguna	5	Mayo	2023-05-28T00:00:00	2024-11-08T22:00:00	2	Temperatura media	19.1
56546	7	Sololá	717	San Juan la Laguna	12	San Juan la Laguna	5	Mayo	2023-05-28T00:00:00	2024-11-08T22:00:00	4	Temperatura máxima	19.2
56547	7	Sololá	717	San Juan la Laguna	12	San Juan la Laguna	5	Mayo	2023-05-28T00:00:00	2024-11-08T22:00:00	3	Temperatura mínima	18.9
56548	7	Sololá	717	San Juan la Laguna	12	San Juan la Laguna	5	Mayo	2023-05-28T00:00:00	2024-11-08T22:00:00	5	Humedad	86
56549	7	Sololá	717	San Juan la Laguna	12	San Juan la Laguna	5	Mayo	2023-05-28T00:00:00	2024-11-08T22:00:00	6	Velocidad del viento	1.6
56550	7	Sololá	717	San Juan la Laguna	12	San Juan la Laguna	5	Mayo	2023-05-28T00:00:00	2024-11-08T22:00:00	7	Dirección del viento	1.61
56551	7	Sololá	717	San Juan la Laguna	12	San Juan la Laguna	5	Mayo	2023-05-28T00:00:00	2024-11-08T22:00:00	1	Precipitación	0
56552	7	Sololá	717	San Juan la Laguna	12	San Juan la Laguna	5	Mayo	2023-05-28T00:00:00	2024-11-08T22:00:00	8	Radiación solar	0
56553	7	Sololá	717	San Juan la Laguna	12	San Juan la Laguna	5	Mayo	2023-05-28T00:00:00	2024-11-08T23:00:00	2	Temperatura media	18.8
56554	7	Sololá	717	San Juan la Laguna	12	San Juan la Laguna	5	Mayo	2023-05-28T00:00:00	2024-11-08T23:00:00	4	Temperatura máxima	19.1
56555	7	Sololá	717	San Juan la Laguna	12	San Juan la Laguna	5	Mayo	2023-05-28T00:00:00	2024-11-08T23:00:00	3	Temperatura mínima	18.8
56556	7	Sololá	717	San Juan la Laguna	12	San Juan la Laguna	5	Mayo	2023-05-28T00:00:00	2024-11-08T23:00:00	5	Humedad	87
56557	7	Sololá	717	San Juan la Laguna	12	San Juan la Laguna	5	Mayo	2023-05-28T00:00:00	2024-11-08T23:00:00	6	Velocidad del viento	3.2
56558	7	Sololá	717	San Juan la Laguna	12	San Juan la Laguna	5	Mayo	2023-05-28T00:00:00	2024-11-08T23:00:00	7	Dirección del viento	3.22
56559	7	Sololá	717	San Juan la Laguna	12	San Juan la Laguna	5	Mayo	2023-05-28T00:00:00	2024-11-08T23:00:00	1	Precipitación	0
56560	7	Sololá	717	San Juan la Laguna	12	San Juan la Laguna	5	Mayo	2023-05-28T00:00:00	2024-11-08T23:00:00	8	Radiación solar	0
56561	7	Sololá	717	San Juan la Laguna	12	San Juan la Laguna	5	Mayo	2023-05-29T00:00:00	2024-11-08T00:00:00	2	Temperatura media	19.1
56562	7	Sololá	717	San Juan la Laguna	12	San Juan la Laguna	5	Mayo	2023-05-29T00:00:00	2024-11-08T00:00:00	4	Temperatura máxima	19.2
56563	7	Sololá	717	San Juan la Laguna	12	San Juan la Laguna	5	Mayo	2023-05-29T00:00:00	2024-11-08T00:00:00	3	Temperatura mínima	18.8
56564	7	Sololá	717	San Juan la Laguna	12	San Juan la Laguna	5	Mayo	2023-05-29T00:00:00	2024-11-08T00:00:00	5	Humedad	85
56565	7	Sololá	717	San Juan la Laguna	12	San Juan la Laguna	5	Mayo	2023-05-29T00:00:00	2024-11-08T00:00:00	6	Velocidad del viento	0
56566	7	Sololá	717	San Juan la Laguna	12	San Juan la Laguna	5	Mayo	2023-05-29T00:00:00	2024-11-08T00:00:00	7	Dirección del viento	0
56567	7	Sololá	717	San Juan la Laguna	12	San Juan la Laguna	5	Mayo	2023-05-29T00:00:00	2024-11-08T00:00:00	1	Precipitación	0
56568	7	Sololá	717	San Juan la Laguna	12	San Juan la Laguna	5	Mayo	2023-05-29T00:00:00	2024-11-08T00:00:00	8	Radiación solar	0
56569	7	Sololá	717	San Juan la Laguna	12	San Juan la Laguna	5	Mayo	2023-05-29T00:00:00	2024-11-08T01:00:00	2	Temperatura media	18.4
56570	7	Sololá	717	San Juan la Laguna	12	San Juan la Laguna	5	Mayo	2023-05-29T00:00:00	2024-11-08T01:00:00	4	Temperatura máxima	19.1
56571	7	Sololá	717	San Juan la Laguna	12	San Juan la Laguna	5	Mayo	2023-05-29T00:00:00	2024-11-08T01:00:00	3	Temperatura mínima	18.4
56572	7	Sololá	717	San Juan la Laguna	12	San Juan la Laguna	5	Mayo	2023-05-29T00:00:00	2024-11-08T01:00:00	5	Humedad	87
56573	7	Sololá	717	San Juan la Laguna	12	San Juan la Laguna	5	Mayo	2023-05-29T00:00:00	2024-11-08T01:00:00	6	Velocidad del viento	0
56574	7	Sololá	717	San Juan la Laguna	12	San Juan la Laguna	5	Mayo	2023-05-29T00:00:00	2024-11-08T01:00:00	7	Dirección del viento	0
56575	7	Sololá	717	San Juan la Laguna	12	San Juan la Laguna	5	Mayo	2023-05-29T00:00:00	2024-11-08T01:00:00	1	Precipitación	1.2
56576	7	Sololá	717	San Juan la Laguna	12	San Juan la Laguna	5	Mayo	2023-05-29T00:00:00	2024-11-08T01:00:00	8	Radiación solar	0
56577	7	Sololá	717	San Juan la Laguna	12	San Juan la Laguna	5	Mayo	2023-05-29T00:00:00	2024-11-08T02:00:00	2	Temperatura media	16.8
56578	7	Sololá	717	San Juan la Laguna	12	San Juan la Laguna	5	Mayo	2023-05-29T00:00:00	2024-11-08T02:00:00	4	Temperatura máxima	18.4
56579	7	Sololá	717	San Juan la Laguna	12	San Juan la Laguna	5	Mayo	2023-05-29T00:00:00	2024-11-08T02:00:00	3	Temperatura mínima	16.8
56580	7	Sololá	717	San Juan la Laguna	12	San Juan la Laguna	5	Mayo	2023-05-29T00:00:00	2024-11-08T02:00:00	5	Humedad	90
56581	7	Sololá	717	San Juan la Laguna	12	San Juan la Laguna	5	Mayo	2023-05-29T00:00:00	2024-11-08T02:00:00	6	Velocidad del viento	1.6
56582	7	Sololá	717	San Juan la Laguna	12	San Juan la Laguna	5	Mayo	2023-05-29T00:00:00	2024-11-08T02:00:00	7	Dirección del viento	1.61
56583	7	Sololá	717	San Juan la Laguna	12	San Juan la Laguna	5	Mayo	2023-05-29T00:00:00	2024-11-08T02:00:00	1	Precipitación	7.8
56584	7	Sololá	717	San Juan la Laguna	12	San Juan la Laguna	5	Mayo	2023-05-29T00:00:00	2024-11-08T02:00:00	8	Radiación solar	0
56585	7	Sololá	717	San Juan la Laguna	12	San Juan la Laguna	5	Mayo	2023-05-29T00:00:00	2024-11-08T03:00:00	2	Temperatura media	16.2
56586	7	Sololá	717	San Juan la Laguna	12	San Juan la Laguna	5	Mayo	2023-05-29T00:00:00	2024-11-08T03:00:00	4	Temperatura máxima	16.8
56587	7	Sololá	717	San Juan la Laguna	12	San Juan la Laguna	5	Mayo	2023-05-29T00:00:00	2024-11-08T03:00:00	3	Temperatura mínima	16.2
56588	7	Sololá	717	San Juan la Laguna	12	San Juan la Laguna	5	Mayo	2023-05-29T00:00:00	2024-11-08T03:00:00	5	Humedad	93
56589	7	Sololá	717	San Juan la Laguna	12	San Juan la Laguna	5	Mayo	2023-05-29T00:00:00	2024-11-08T03:00:00	6	Velocidad del viento	0
56590	7	Sololá	717	San Juan la Laguna	12	San Juan la Laguna	5	Mayo	2023-05-29T00:00:00	2024-11-08T03:00:00	7	Dirección del viento	0
56591	7	Sololá	717	San Juan la Laguna	12	San Juan la Laguna	5	Mayo	2023-05-29T00:00:00	2024-11-08T03:00:00	1	Precipitación	3
56592	7	Sololá	717	San Juan la Laguna	12	San Juan la Laguna	5	Mayo	2023-05-29T00:00:00	2024-11-08T03:00:00	8	Radiación solar	0
56593	7	Sololá	717	San Juan la Laguna	12	San Juan la Laguna	5	Mayo	2023-05-29T00:00:00	2024-11-08T04:00:00	2	Temperatura media	16.3
56594	7	Sololá	717	San Juan la Laguna	12	San Juan la Laguna	5	Mayo	2023-05-29T00:00:00	2024-11-08T04:00:00	4	Temperatura máxima	16.4
56595	7	Sololá	717	San Juan la Laguna	12	San Juan la Laguna	5	Mayo	2023-05-29T00:00:00	2024-11-08T04:00:00	3	Temperatura mínima	16.2
56596	7	Sololá	717	San Juan la Laguna	12	San Juan la Laguna	5	Mayo	2023-05-29T00:00:00	2024-11-08T04:00:00	5	Humedad	93
56597	7	Sololá	717	San Juan la Laguna	12	San Juan la Laguna	5	Mayo	2023-05-29T00:00:00	2024-11-08T04:00:00	6	Velocidad del viento	0
56598	7	Sololá	717	San Juan la Laguna	12	San Juan la Laguna	5	Mayo	2023-05-29T00:00:00	2024-11-08T04:00:00	7	Dirección del viento	0
56599	7	Sololá	717	San Juan la Laguna	12	San Juan la Laguna	5	Mayo	2023-05-29T00:00:00	2024-11-08T04:00:00	1	Precipitación	0.8
56600	7	Sololá	717	San Juan la Laguna	12	San Juan la Laguna	5	Mayo	2023-05-29T00:00:00	2024-11-08T04:00:00	8	Radiación solar	0
56601	7	Sololá	717	San Juan la Laguna	12	San Juan la Laguna	5	Mayo	2023-05-29T00:00:00	2024-11-08T05:00:00	2	Temperatura media	16.3
56602	7	Sololá	717	San Juan la Laguna	12	San Juan la Laguna	5	Mayo	2023-05-29T00:00:00	2024-11-08T05:00:00	4	Temperatura máxima	16.4
56603	7	Sololá	717	San Juan la Laguna	12	San Juan la Laguna	5	Mayo	2023-05-29T00:00:00	2024-11-08T05:00:00	3	Temperatura mínima	16.1
56604	7	Sololá	717	San Juan la Laguna	12	San Juan la Laguna	5	Mayo	2023-05-29T00:00:00	2024-11-08T05:00:00	5	Humedad	94
56605	7	Sololá	717	San Juan la Laguna	12	San Juan la Laguna	5	Mayo	2023-05-29T00:00:00	2024-11-08T05:00:00	6	Velocidad del viento	0
56606	7	Sololá	717	San Juan la Laguna	12	San Juan la Laguna	5	Mayo	2023-05-29T00:00:00	2024-11-08T05:00:00	7	Dirección del viento	0
56607	7	Sololá	717	San Juan la Laguna	12	San Juan la Laguna	5	Mayo	2023-05-29T00:00:00	2024-11-08T05:00:00	1	Precipitación	0.2
56608	7	Sololá	717	San Juan la Laguna	12	San Juan la Laguna	5	Mayo	2023-05-29T00:00:00	2024-11-08T05:00:00	8	Radiación solar	0
56609	7	Sololá	717	San Juan la Laguna	12	San Juan la Laguna	5	Mayo	2023-05-29T00:00:00	2024-11-08T06:00:00	2	Temperatura media	16.3
56610	7	Sololá	717	San Juan la Laguna	12	San Juan la Laguna	5	Mayo	2023-05-29T00:00:00	2024-11-08T06:00:00	4	Temperatura máxima	16.4
56611	7	Sololá	717	San Juan la Laguna	12	San Juan la Laguna	5	Mayo	2023-05-29T00:00:00	2024-11-08T06:00:00	3	Temperatura mínima	16
56612	7	Sololá	717	San Juan la Laguna	12	San Juan la Laguna	5	Mayo	2023-05-29T00:00:00	2024-11-08T06:00:00	5	Humedad	94
56613	7	Sololá	717	San Juan la Laguna	12	San Juan la Laguna	5	Mayo	2023-05-29T00:00:00	2024-11-08T06:00:00	6	Velocidad del viento	0
56614	7	Sololá	717	San Juan la Laguna	12	San Juan la Laguna	5	Mayo	2023-05-29T00:00:00	2024-11-08T06:00:00	7	Dirección del viento	0
56615	7	Sololá	717	San Juan la Laguna	12	San Juan la Laguna	5	Mayo	2023-05-29T00:00:00	2024-11-08T06:00:00	1	Precipitación	0
56616	7	Sololá	717	San Juan la Laguna	12	San Juan la Laguna	5	Mayo	2023-05-29T00:00:00	2024-11-08T06:00:00	8	Radiación solar	0
56617	7	Sololá	717	San Juan la Laguna	12	San Juan la Laguna	5	Mayo	2023-05-29T00:00:00	2024-11-08T07:00:00	2	Temperatura media	16.7
56618	7	Sololá	717	San Juan la Laguna	12	San Juan la Laguna	5	Mayo	2023-05-29T00:00:00	2024-11-08T07:00:00	4	Temperatura máxima	16.7
56619	7	Sololá	717	San Juan la Laguna	12	San Juan la Laguna	5	Mayo	2023-05-29T00:00:00	2024-11-08T07:00:00	3	Temperatura mínima	16.3
56620	7	Sololá	717	San Juan la Laguna	12	San Juan la Laguna	5	Mayo	2023-05-29T00:00:00	2024-11-08T07:00:00	5	Humedad	93
56621	7	Sololá	717	San Juan la Laguna	12	San Juan la Laguna	5	Mayo	2023-05-29T00:00:00	2024-11-08T07:00:00	6	Velocidad del viento	0
56622	7	Sololá	717	San Juan la Laguna	12	San Juan la Laguna	5	Mayo	2023-05-29T00:00:00	2024-11-08T07:00:00	7	Dirección del viento	0
56623	7	Sololá	717	San Juan la Laguna	12	San Juan la Laguna	5	Mayo	2023-05-29T00:00:00	2024-11-08T07:00:00	1	Precipitación	0
56624	7	Sololá	717	San Juan la Laguna	12	San Juan la Laguna	5	Mayo	2023-05-29T00:00:00	2024-11-08T07:00:00	8	Radiación solar	20
56625	7	Sololá	717	San Juan la Laguna	12	San Juan la Laguna	5	Mayo	2023-05-29T00:00:00	2024-11-08T08:00:00	2	Temperatura media	17.3
56626	7	Sololá	717	San Juan la Laguna	12	San Juan la Laguna	5	Mayo	2023-05-29T00:00:00	2024-11-08T08:00:00	4	Temperatura máxima	17.3
56627	7	Sololá	717	San Juan la Laguna	12	San Juan la Laguna	5	Mayo	2023-05-29T00:00:00	2024-11-08T08:00:00	3	Temperatura mínima	16.7
56628	7	Sololá	717	San Juan la Laguna	12	San Juan la Laguna	5	Mayo	2023-05-29T00:00:00	2024-11-08T08:00:00	5	Humedad	93
56629	7	Sololá	717	San Juan la Laguna	12	San Juan la Laguna	5	Mayo	2023-05-29T00:00:00	2024-11-08T08:00:00	6	Velocidad del viento	0
56630	7	Sololá	717	San Juan la Laguna	12	San Juan la Laguna	5	Mayo	2023-05-29T00:00:00	2024-11-08T08:00:00	7	Dirección del viento	0
56631	7	Sololá	717	San Juan la Laguna	12	San Juan la Laguna	5	Mayo	2023-05-29T00:00:00	2024-11-08T08:00:00	1	Precipitación	0
56632	7	Sololá	717	San Juan la Laguna	12	San Juan la Laguna	5	Mayo	2023-05-29T00:00:00	2024-11-08T08:00:00	8	Radiación solar	36
56633	7	Sololá	717	San Juan la Laguna	12	San Juan la Laguna	5	Mayo	2023-05-29T00:00:00	2024-11-08T09:00:00	2	Temperatura media	17.6
56634	7	Sololá	717	San Juan la Laguna	12	San Juan la Laguna	5	Mayo	2023-05-29T00:00:00	2024-11-08T09:00:00	4	Temperatura máxima	17.6
56635	7	Sololá	717	San Juan la Laguna	12	San Juan la Laguna	5	Mayo	2023-05-29T00:00:00	2024-11-08T09:00:00	3	Temperatura mínima	17.2
56636	7	Sololá	717	San Juan la Laguna	12	San Juan la Laguna	5	Mayo	2023-05-29T00:00:00	2024-11-08T09:00:00	5	Humedad	92
56637	7	Sololá	717	San Juan la Laguna	12	San Juan la Laguna	5	Mayo	2023-05-29T00:00:00	2024-11-08T09:00:00	6	Velocidad del viento	0
56638	7	Sololá	717	San Juan la Laguna	12	San Juan la Laguna	5	Mayo	2023-05-29T00:00:00	2024-11-08T09:00:00	7	Dirección del viento	0
56639	7	Sololá	717	San Juan la Laguna	12	San Juan la Laguna	5	Mayo	2023-05-29T00:00:00	2024-11-08T09:00:00	1	Precipitación	0.4
56640	7	Sololá	717	San Juan la Laguna	12	San Juan la Laguna	5	Mayo	2023-05-29T00:00:00	2024-11-08T09:00:00	8	Radiación solar	78
56641	7	Sololá	717	San Juan la Laguna	12	San Juan la Laguna	5	Mayo	2023-05-29T00:00:00	2024-11-08T10:00:00	2	Temperatura media	19.7
56642	7	Sololá	717	San Juan la Laguna	12	San Juan la Laguna	5	Mayo	2023-05-29T00:00:00	2024-11-08T10:00:00	4	Temperatura máxima	19.7
56643	7	Sololá	717	San Juan la Laguna	12	San Juan la Laguna	5	Mayo	2023-05-29T00:00:00	2024-11-08T10:00:00	3	Temperatura mínima	17.6
56644	7	Sololá	717	San Juan la Laguna	12	San Juan la Laguna	5	Mayo	2023-05-29T00:00:00	2024-11-08T10:00:00	5	Humedad	83
56645	7	Sololá	717	San Juan la Laguna	12	San Juan la Laguna	5	Mayo	2023-05-29T00:00:00	2024-11-08T10:00:00	6	Velocidad del viento	1.6
56646	7	Sololá	717	San Juan la Laguna	12	San Juan la Laguna	5	Mayo	2023-05-29T00:00:00	2024-11-08T10:00:00	7	Dirección del viento	1.61
56647	7	Sololá	717	San Juan la Laguna	12	San Juan la Laguna	5	Mayo	2023-05-29T00:00:00	2024-11-08T10:00:00	1	Precipitación	0
56648	7	Sololá	717	San Juan la Laguna	12	San Juan la Laguna	5	Mayo	2023-05-29T00:00:00	2024-11-08T10:00:00	8	Radiación solar	255
56649	7	Sololá	717	San Juan la Laguna	12	San Juan la Laguna	5	Mayo	2023-05-29T00:00:00	2024-11-08T11:00:00	2	Temperatura media	22.1
56650	7	Sololá	717	San Juan la Laguna	12	San Juan la Laguna	5	Mayo	2023-05-29T00:00:00	2024-11-08T11:00:00	4	Temperatura máxima	22.2
56651	7	Sololá	717	San Juan la Laguna	12	San Juan la Laguna	5	Mayo	2023-05-29T00:00:00	2024-11-08T11:00:00	3	Temperatura mínima	19.7
56652	7	Sololá	717	San Juan la Laguna	12	San Juan la Laguna	5	Mayo	2023-05-29T00:00:00	2024-11-08T11:00:00	5	Humedad	73
56653	7	Sololá	717	San Juan la Laguna	12	San Juan la Laguna	5	Mayo	2023-05-29T00:00:00	2024-11-08T11:00:00	6	Velocidad del viento	1.6
56654	7	Sololá	717	San Juan la Laguna	12	San Juan la Laguna	5	Mayo	2023-05-29T00:00:00	2024-11-08T11:00:00	7	Dirección del viento	1.61
56655	7	Sololá	717	San Juan la Laguna	12	San Juan la Laguna	5	Mayo	2023-05-29T00:00:00	2024-11-08T11:00:00	1	Precipitación	0
56656	7	Sololá	717	San Juan la Laguna	12	San Juan la Laguna	5	Mayo	2023-05-29T00:00:00	2024-11-08T11:00:00	8	Radiación solar	627
56657	7	Sololá	717	San Juan la Laguna	12	San Juan la Laguna	5	Mayo	2023-05-29T00:00:00	2024-11-08T12:00:00	2	Temperatura media	23.2
56658	7	Sololá	717	San Juan la Laguna	12	San Juan la Laguna	5	Mayo	2023-05-29T00:00:00	2024-11-08T12:00:00	4	Temperatura máxima	23.4
56659	7	Sololá	717	San Juan la Laguna	12	San Juan la Laguna	5	Mayo	2023-05-29T00:00:00	2024-11-08T12:00:00	3	Temperatura mínima	21.9
56660	7	Sololá	717	San Juan la Laguna	12	San Juan la Laguna	5	Mayo	2023-05-29T00:00:00	2024-11-08T12:00:00	5	Humedad	67
56661	7	Sololá	717	San Juan la Laguna	12	San Juan la Laguna	5	Mayo	2023-05-29T00:00:00	2024-11-08T12:00:00	6	Velocidad del viento	1.6
56662	7	Sololá	717	San Juan la Laguna	12	San Juan la Laguna	5	Mayo	2023-05-29T00:00:00	2024-11-08T12:00:00	7	Dirección del viento	1.61
56663	7	Sololá	717	San Juan la Laguna	12	San Juan la Laguna	5	Mayo	2023-05-29T00:00:00	2024-11-08T12:00:00	1	Precipitación	0
56664	7	Sololá	717	San Juan la Laguna	12	San Juan la Laguna	5	Mayo	2023-05-29T00:00:00	2024-11-08T12:00:00	8	Radiación solar	754
56665	7	Sololá	717	San Juan la Laguna	12	San Juan la Laguna	5	Mayo	2023-05-29T00:00:00	2024-11-08T13:00:00	2	Temperatura media	23.2
56666	7	Sololá	717	San Juan la Laguna	12	San Juan la Laguna	5	Mayo	2023-05-29T00:00:00	2024-11-08T13:00:00	4	Temperatura máxima	23.6
56667	7	Sololá	717	San Juan la Laguna	12	San Juan la Laguna	5	Mayo	2023-05-29T00:00:00	2024-11-08T13:00:00	3	Temperatura mínima	22.7
56668	7	Sololá	717	San Juan la Laguna	12	San Juan la Laguna	5	Mayo	2023-05-29T00:00:00	2024-11-08T13:00:00	5	Humedad	66
56669	7	Sololá	717	San Juan la Laguna	12	San Juan la Laguna	5	Mayo	2023-05-29T00:00:00	2024-11-08T13:00:00	6	Velocidad del viento	1.6
56670	7	Sololá	717	San Juan la Laguna	12	San Juan la Laguna	5	Mayo	2023-05-29T00:00:00	2024-11-08T13:00:00	7	Dirección del viento	1.61
56671	7	Sololá	717	San Juan la Laguna	12	San Juan la Laguna	5	Mayo	2023-05-29T00:00:00	2024-11-08T13:00:00	1	Precipitación	0
56672	7	Sololá	717	San Juan la Laguna	12	San Juan la Laguna	5	Mayo	2023-05-29T00:00:00	2024-11-08T13:00:00	8	Radiación solar	727
56673	7	Sololá	717	San Juan la Laguna	12	San Juan la Laguna	5	Mayo	2023-05-29T00:00:00	2024-11-08T14:00:00	2	Temperatura media	24.2
56674	7	Sololá	717	San Juan la Laguna	12	San Juan la Laguna	5	Mayo	2023-05-29T00:00:00	2024-11-08T14:00:00	4	Temperatura máxima	24.3
56675	7	Sololá	717	San Juan la Laguna	12	San Juan la Laguna	5	Mayo	2023-05-29T00:00:00	2024-11-08T14:00:00	3	Temperatura mínima	23.2
56676	7	Sololá	717	San Juan la Laguna	12	San Juan la Laguna	5	Mayo	2023-05-29T00:00:00	2024-11-08T14:00:00	5	Humedad	62
56677	7	Sololá	717	San Juan la Laguna	12	San Juan la Laguna	5	Mayo	2023-05-29T00:00:00	2024-11-08T14:00:00	6	Velocidad del viento	1.6
56678	7	Sololá	717	San Juan la Laguna	12	San Juan la Laguna	5	Mayo	2023-05-29T00:00:00	2024-11-08T14:00:00	7	Dirección del viento	1.61
56679	7	Sololá	717	San Juan la Laguna	12	San Juan la Laguna	5	Mayo	2023-05-29T00:00:00	2024-11-08T14:00:00	1	Precipitación	0
56680	7	Sololá	717	San Juan la Laguna	12	San Juan la Laguna	5	Mayo	2023-05-29T00:00:00	2024-11-08T14:00:00	8	Radiación solar	637
56681	7	Sololá	717	San Juan la Laguna	12	San Juan la Laguna	5	Mayo	2023-05-29T00:00:00	2024-11-08T15:00:00	2	Temperatura media	25.1
56682	7	Sololá	717	San Juan la Laguna	12	San Juan la Laguna	5	Mayo	2023-05-29T00:00:00	2024-11-08T15:00:00	4	Temperatura máxima	25.6
56683	7	Sololá	717	San Juan la Laguna	12	San Juan la Laguna	5	Mayo	2023-05-29T00:00:00	2024-11-08T15:00:00	3	Temperatura mínima	24.2
56684	7	Sololá	717	San Juan la Laguna	12	San Juan la Laguna	5	Mayo	2023-05-29T00:00:00	2024-11-08T15:00:00	5	Humedad	68
56685	7	Sololá	717	San Juan la Laguna	12	San Juan la Laguna	5	Mayo	2023-05-29T00:00:00	2024-11-08T15:00:00	6	Velocidad del viento	1.6
56686	7	Sololá	717	San Juan la Laguna	12	San Juan la Laguna	5	Mayo	2023-05-29T00:00:00	2024-11-08T15:00:00	7	Dirección del viento	1.61
56687	7	Sololá	717	San Juan la Laguna	12	San Juan la Laguna	5	Mayo	2023-05-29T00:00:00	2024-11-08T15:00:00	1	Precipitación	0
56688	7	Sololá	717	San Juan la Laguna	12	San Juan la Laguna	5	Mayo	2023-05-29T00:00:00	2024-11-08T15:00:00	8	Radiación solar	739
56689	7	Sololá	717	San Juan la Laguna	12	San Juan la Laguna	5	Mayo	2023-05-29T00:00:00	2024-11-08T16:00:00	2	Temperatura media	20.6
56690	7	Sololá	717	San Juan la Laguna	12	San Juan la Laguna	5	Mayo	2023-05-29T00:00:00	2024-11-08T16:00:00	4	Temperatura máxima	25.2
56691	7	Sololá	717	San Juan la Laguna	12	San Juan la Laguna	5	Mayo	2023-05-29T00:00:00	2024-11-08T16:00:00	3	Temperatura mínima	20.6
56692	7	Sololá	717	San Juan la Laguna	12	San Juan la Laguna	5	Mayo	2023-05-29T00:00:00	2024-11-08T16:00:00	5	Humedad	88
56693	7	Sololá	717	San Juan la Laguna	12	San Juan la Laguna	5	Mayo	2023-05-29T00:00:00	2024-11-08T16:00:00	6	Velocidad del viento	3.2
56694	7	Sololá	717	San Juan la Laguna	12	San Juan la Laguna	5	Mayo	2023-05-29T00:00:00	2024-11-08T16:00:00	7	Dirección del viento	3.22
56695	7	Sololá	717	San Juan la Laguna	12	San Juan la Laguna	5	Mayo	2023-05-29T00:00:00	2024-11-08T16:00:00	1	Precipitación	3.2
56696	7	Sololá	717	San Juan la Laguna	12	San Juan la Laguna	5	Mayo	2023-05-29T00:00:00	2024-11-08T16:00:00	8	Radiación solar	132
56697	7	Sololá	717	San Juan la Laguna	12	San Juan la Laguna	5	Mayo	2023-05-29T00:00:00	2024-11-08T17:00:00	2	Temperatura media	18.2
56698	7	Sololá	717	San Juan la Laguna	12	San Juan la Laguna	5	Mayo	2023-05-29T00:00:00	2024-11-08T17:00:00	4	Temperatura máxima	20.7
56699	7	Sololá	717	San Juan la Laguna	12	San Juan la Laguna	5	Mayo	2023-05-29T00:00:00	2024-11-08T17:00:00	3	Temperatura mínima	18.2
56700	7	Sololá	717	San Juan la Laguna	12	San Juan la Laguna	5	Mayo	2023-05-29T00:00:00	2024-11-08T17:00:00	5	Humedad	82
56701	7	Sololá	717	San Juan la Laguna	12	San Juan la Laguna	5	Mayo	2023-05-29T00:00:00	2024-11-08T17:00:00	6	Velocidad del viento	1.6
56702	7	Sololá	717	San Juan la Laguna	12	San Juan la Laguna	5	Mayo	2023-05-29T00:00:00	2024-11-08T17:00:00	7	Dirección del viento	1.61
56703	7	Sololá	717	San Juan la Laguna	12	San Juan la Laguna	5	Mayo	2023-05-29T00:00:00	2024-11-08T17:00:00	1	Precipitación	4.4
56704	7	Sololá	717	San Juan la Laguna	12	San Juan la Laguna	5	Mayo	2023-05-29T00:00:00	2024-11-08T17:00:00	8	Radiación solar	66
56705	7	Sololá	717	San Juan la Laguna	12	San Juan la Laguna	5	Mayo	2023-05-29T00:00:00	2024-11-08T18:00:00	2	Temperatura media	17.7
56706	7	Sololá	717	San Juan la Laguna	12	San Juan la Laguna	5	Mayo	2023-05-29T00:00:00	2024-11-08T18:00:00	4	Temperatura máxima	18.1
56707	7	Sololá	717	San Juan la Laguna	12	San Juan la Laguna	5	Mayo	2023-05-29T00:00:00	2024-11-08T18:00:00	3	Temperatura mínima	17.4
56708	7	Sololá	717	San Juan la Laguna	12	San Juan la Laguna	5	Mayo	2023-05-29T00:00:00	2024-11-08T18:00:00	5	Humedad	91
56709	7	Sololá	717	San Juan la Laguna	12	San Juan la Laguna	5	Mayo	2023-05-29T00:00:00	2024-11-08T18:00:00	6	Velocidad del viento	1.6
56710	7	Sololá	717	San Juan la Laguna	12	San Juan la Laguna	5	Mayo	2023-05-29T00:00:00	2024-11-08T18:00:00	7	Dirección del viento	1.61
56711	7	Sololá	717	San Juan la Laguna	12	San Juan la Laguna	5	Mayo	2023-05-29T00:00:00	2024-11-08T18:00:00	1	Precipitación	0.8
56712	7	Sololá	717	San Juan la Laguna	12	San Juan la Laguna	5	Mayo	2023-05-29T00:00:00	2024-11-08T18:00:00	8	Radiación solar	35
56713	7	Sololá	717	San Juan la Laguna	12	San Juan la Laguna	5	Mayo	2023-05-29T00:00:00	2024-11-08T19:00:00	2	Temperatura media	17.5
56714	7	Sololá	717	San Juan la Laguna	12	San Juan la Laguna	5	Mayo	2023-05-29T00:00:00	2024-11-08T19:00:00	4	Temperatura máxima	18
56715	7	Sololá	717	San Juan la Laguna	12	San Juan la Laguna	5	Mayo	2023-05-29T00:00:00	2024-11-08T19:00:00	3	Temperatura mínima	17.5
56716	7	Sololá	717	San Juan la Laguna	12	San Juan la Laguna	5	Mayo	2023-05-29T00:00:00	2024-11-08T19:00:00	5	Humedad	90
56717	7	Sololá	717	San Juan la Laguna	12	San Juan la Laguna	5	Mayo	2023-05-29T00:00:00	2024-11-08T19:00:00	6	Velocidad del viento	3.2
56718	7	Sololá	717	San Juan la Laguna	12	San Juan la Laguna	5	Mayo	2023-05-29T00:00:00	2024-11-08T19:00:00	7	Dirección del viento	3.22
56719	7	Sololá	717	San Juan la Laguna	12	San Juan la Laguna	5	Mayo	2023-05-29T00:00:00	2024-11-08T19:00:00	1	Precipitación	0
56720	7	Sololá	717	San Juan la Laguna	12	San Juan la Laguna	5	Mayo	2023-05-29T00:00:00	2024-11-08T19:00:00	8	Radiación solar	0
56721	7	Sololá	717	San Juan la Laguna	12	San Juan la Laguna	5	Mayo	2023-05-29T00:00:00	2024-11-08T20:00:00	2	Temperatura media	16.4
56722	7	Sololá	717	San Juan la Laguna	12	San Juan la Laguna	5	Mayo	2023-05-29T00:00:00	2024-11-08T20:00:00	4	Temperatura máxima	17.6
56723	7	Sololá	717	San Juan la Laguna	12	San Juan la Laguna	5	Mayo	2023-05-29T00:00:00	2024-11-08T20:00:00	3	Temperatura mínima	16.3
56724	7	Sololá	717	San Juan la Laguna	12	San Juan la Laguna	5	Mayo	2023-05-29T00:00:00	2024-11-08T20:00:00	5	Humedad	89
56725	7	Sololá	717	San Juan la Laguna	12	San Juan la Laguna	5	Mayo	2023-05-29T00:00:00	2024-11-08T20:00:00	6	Velocidad del viento	3.2
56726	7	Sololá	717	San Juan la Laguna	12	San Juan la Laguna	5	Mayo	2023-05-29T00:00:00	2024-11-08T20:00:00	7	Dirección del viento	3.22
56727	7	Sololá	717	San Juan la Laguna	12	San Juan la Laguna	5	Mayo	2023-05-29T00:00:00	2024-11-08T20:00:00	1	Precipitación	0
56728	7	Sololá	717	San Juan la Laguna	12	San Juan la Laguna	5	Mayo	2023-05-29T00:00:00	2024-11-08T20:00:00	8	Radiación solar	0
56729	7	Sololá	717	San Juan la Laguna	12	San Juan la Laguna	5	Mayo	2023-05-29T00:00:00	2024-11-08T21:00:00	2	Temperatura media	16.4
56730	7	Sololá	717	San Juan la Laguna	12	San Juan la Laguna	5	Mayo	2023-05-29T00:00:00	2024-11-08T21:00:00	4	Temperatura máxima	16.6
56731	7	Sololá	717	San Juan la Laguna	12	San Juan la Laguna	5	Mayo	2023-05-29T00:00:00	2024-11-08T21:00:00	3	Temperatura mínima	16.2
56732	7	Sololá	717	San Juan la Laguna	12	San Juan la Laguna	5	Mayo	2023-05-29T00:00:00	2024-11-08T21:00:00	5	Humedad	88
56733	7	Sololá	717	San Juan la Laguna	12	San Juan la Laguna	5	Mayo	2023-05-29T00:00:00	2024-11-08T21:00:00	6	Velocidad del viento	1.6
56734	7	Sololá	717	San Juan la Laguna	12	San Juan la Laguna	5	Mayo	2023-05-29T00:00:00	2024-11-08T21:00:00	7	Dirección del viento	1.61
56735	7	Sololá	717	San Juan la Laguna	12	San Juan la Laguna	5	Mayo	2023-05-29T00:00:00	2024-11-08T21:00:00	1	Precipitación	0
56736	7	Sololá	717	San Juan la Laguna	12	San Juan la Laguna	5	Mayo	2023-05-29T00:00:00	2024-11-08T21:00:00	8	Radiación solar	0
56737	7	Sololá	717	San Juan la Laguna	12	San Juan la Laguna	5	Mayo	2023-05-29T00:00:00	2024-11-08T22:00:00	2	Temperatura media	15.8
56738	7	Sololá	717	San Juan la Laguna	12	San Juan la Laguna	5	Mayo	2023-05-29T00:00:00	2024-11-08T22:00:00	4	Temperatura máxima	16.4
56739	7	Sololá	717	San Juan la Laguna	12	San Juan la Laguna	5	Mayo	2023-05-29T00:00:00	2024-11-08T22:00:00	3	Temperatura mínima	15.8
56740	7	Sololá	717	San Juan la Laguna	12	San Juan la Laguna	5	Mayo	2023-05-29T00:00:00	2024-11-08T22:00:00	5	Humedad	90
56741	7	Sololá	717	San Juan la Laguna	12	San Juan la Laguna	5	Mayo	2023-05-29T00:00:00	2024-11-08T22:00:00	6	Velocidad del viento	3.2
56742	7	Sololá	717	San Juan la Laguna	12	San Juan la Laguna	5	Mayo	2023-05-29T00:00:00	2024-11-08T22:00:00	7	Dirección del viento	3.22
56743	7	Sololá	717	San Juan la Laguna	12	San Juan la Laguna	5	Mayo	2023-05-29T00:00:00	2024-11-08T22:00:00	1	Precipitación	0
56744	7	Sololá	717	San Juan la Laguna	12	San Juan la Laguna	5	Mayo	2023-05-29T00:00:00	2024-11-08T22:00:00	8	Radiación solar	0
56745	7	Sololá	717	San Juan la Laguna	12	San Juan la Laguna	5	Mayo	2023-05-29T00:00:00	2024-11-08T23:00:00	2	Temperatura media	15.7
56746	7	Sololá	717	San Juan la Laguna	12	San Juan la Laguna	5	Mayo	2023-05-29T00:00:00	2024-11-08T23:00:00	4	Temperatura máxima	16.2
56747	7	Sololá	717	San Juan la Laguna	12	San Juan la Laguna	5	Mayo	2023-05-29T00:00:00	2024-11-08T23:00:00	3	Temperatura mínima	15.6
56748	7	Sololá	717	San Juan la Laguna	12	San Juan la Laguna	5	Mayo	2023-05-29T00:00:00	2024-11-08T23:00:00	5	Humedad	90
56749	7	Sololá	717	San Juan la Laguna	12	San Juan la Laguna	5	Mayo	2023-05-29T00:00:00	2024-11-08T23:00:00	6	Velocidad del viento	3.2
56750	7	Sololá	717	San Juan la Laguna	12	San Juan la Laguna	5	Mayo	2023-05-29T00:00:00	2024-11-08T23:00:00	7	Dirección del viento	3.22
56751	7	Sololá	717	San Juan la Laguna	12	San Juan la Laguna	5	Mayo	2023-05-29T00:00:00	2024-11-08T23:00:00	1	Precipitación	0
56752	7	Sololá	717	San Juan la Laguna	12	San Juan la Laguna	5	Mayo	2023-05-29T00:00:00	2024-11-08T23:00:00	8	Radiación solar	0
56753	7	Sololá	717	San Juan la Laguna	12	San Juan la Laguna	5	Mayo	2023-05-30T00:00:00	2024-11-08T00:00:00	2	Temperatura media	16.1
56754	7	Sololá	717	San Juan la Laguna	12	San Juan la Laguna	5	Mayo	2023-05-30T00:00:00	2024-11-08T00:00:00	4	Temperatura máxima	16.1
56755	7	Sololá	717	San Juan la Laguna	12	San Juan la Laguna	5	Mayo	2023-05-30T00:00:00	2024-11-08T00:00:00	3	Temperatura mínima	15.7
56756	7	Sololá	717	San Juan la Laguna	12	San Juan la Laguna	5	Mayo	2023-05-30T00:00:00	2024-11-08T00:00:00	5	Humedad	90
56757	7	Sololá	717	San Juan la Laguna	12	San Juan la Laguna	5	Mayo	2023-05-30T00:00:00	2024-11-08T00:00:00	6	Velocidad del viento	1.6
56758	7	Sololá	717	San Juan la Laguna	12	San Juan la Laguna	5	Mayo	2023-05-30T00:00:00	2024-11-08T00:00:00	7	Dirección del viento	1.61
56759	7	Sololá	717	San Juan la Laguna	12	San Juan la Laguna	5	Mayo	2023-05-30T00:00:00	2024-11-08T00:00:00	1	Precipitación	0
56760	7	Sololá	717	San Juan la Laguna	12	San Juan la Laguna	5	Mayo	2023-05-30T00:00:00	2024-11-08T00:00:00	8	Radiación solar	0
56761	7	Sololá	717	San Juan la Laguna	12	San Juan la Laguna	5	Mayo	2023-05-30T00:00:00	2024-11-08T01:00:00	2	Temperatura media	16.3
56762	7	Sololá	717	San Juan la Laguna	12	San Juan la Laguna	5	Mayo	2023-05-30T00:00:00	2024-11-08T01:00:00	4	Temperatura máxima	16.4
56763	7	Sololá	717	San Juan la Laguna	12	San Juan la Laguna	5	Mayo	2023-05-30T00:00:00	2024-11-08T01:00:00	3	Temperatura mínima	16
56764	7	Sololá	717	San Juan la Laguna	12	San Juan la Laguna	5	Mayo	2023-05-30T00:00:00	2024-11-08T01:00:00	5	Humedad	90
56765	7	Sololá	717	San Juan la Laguna	12	San Juan la Laguna	5	Mayo	2023-05-30T00:00:00	2024-11-08T01:00:00	6	Velocidad del viento	3.2
56766	7	Sololá	717	San Juan la Laguna	12	San Juan la Laguna	5	Mayo	2023-05-30T00:00:00	2024-11-08T01:00:00	7	Dirección del viento	3.22
56767	7	Sololá	717	San Juan la Laguna	12	San Juan la Laguna	5	Mayo	2023-05-30T00:00:00	2024-11-08T01:00:00	1	Precipitación	0
56768	7	Sololá	717	San Juan la Laguna	12	San Juan la Laguna	5	Mayo	2023-05-30T00:00:00	2024-11-08T01:00:00	8	Radiación solar	0
56769	7	Sololá	717	San Juan la Laguna	12	San Juan la Laguna	5	Mayo	2023-05-30T00:00:00	2024-11-08T02:00:00	2	Temperatura media	16.7
56770	7	Sololá	717	San Juan la Laguna	12	San Juan la Laguna	5	Mayo	2023-05-30T00:00:00	2024-11-08T02:00:00	4	Temperatura máxima	16.8
56771	7	Sololá	717	San Juan la Laguna	12	San Juan la Laguna	5	Mayo	2023-05-30T00:00:00	2024-11-08T02:00:00	3	Temperatura mínima	16.2
56772	7	Sololá	717	San Juan la Laguna	12	San Juan la Laguna	5	Mayo	2023-05-30T00:00:00	2024-11-08T02:00:00	5	Humedad	89
56773	7	Sololá	717	San Juan la Laguna	12	San Juan la Laguna	5	Mayo	2023-05-30T00:00:00	2024-11-08T02:00:00	6	Velocidad del viento	3.2
56774	7	Sololá	717	San Juan la Laguna	12	San Juan la Laguna	5	Mayo	2023-05-30T00:00:00	2024-11-08T02:00:00	7	Dirección del viento	3.22
56775	7	Sololá	717	San Juan la Laguna	12	San Juan la Laguna	5	Mayo	2023-05-30T00:00:00	2024-11-08T02:00:00	1	Precipitación	0
56776	7	Sololá	717	San Juan la Laguna	12	San Juan la Laguna	5	Mayo	2023-05-30T00:00:00	2024-11-08T02:00:00	8	Radiación solar	0
56777	7	Sololá	717	San Juan la Laguna	12	San Juan la Laguna	5	Mayo	2023-05-30T00:00:00	2024-11-08T03:00:00	2	Temperatura media	16.8
56778	7	Sololá	717	San Juan la Laguna	12	San Juan la Laguna	5	Mayo	2023-05-30T00:00:00	2024-11-08T03:00:00	4	Temperatura máxima	16.9
56779	7	Sololá	717	San Juan la Laguna	12	San Juan la Laguna	5	Mayo	2023-05-30T00:00:00	2024-11-08T03:00:00	3	Temperatura mínima	16.6
56780	7	Sololá	717	San Juan la Laguna	12	San Juan la Laguna	5	Mayo	2023-05-30T00:00:00	2024-11-08T03:00:00	5	Humedad	89
56781	7	Sololá	717	San Juan la Laguna	12	San Juan la Laguna	5	Mayo	2023-05-30T00:00:00	2024-11-08T03:00:00	6	Velocidad del viento	1.6
56782	7	Sololá	717	San Juan la Laguna	12	San Juan la Laguna	5	Mayo	2023-05-30T00:00:00	2024-11-08T03:00:00	7	Dirección del viento	1.61
56783	7	Sololá	717	San Juan la Laguna	12	San Juan la Laguna	5	Mayo	2023-05-30T00:00:00	2024-11-08T03:00:00	1	Precipitación	0
56784	7	Sololá	717	San Juan la Laguna	12	San Juan la Laguna	5	Mayo	2023-05-30T00:00:00	2024-11-08T03:00:00	8	Radiación solar	0
56785	7	Sololá	717	San Juan la Laguna	12	San Juan la Laguna	5	Mayo	2023-05-30T00:00:00	2024-11-08T04:00:00	2	Temperatura media	16.1
56786	7	Sololá	717	San Juan la Laguna	12	San Juan la Laguna	5	Mayo	2023-05-30T00:00:00	2024-11-08T04:00:00	4	Temperatura máxima	16.8
56787	7	Sololá	717	San Juan la Laguna	12	San Juan la Laguna	5	Mayo	2023-05-30T00:00:00	2024-11-08T04:00:00	3	Temperatura mínima	16.1
56788	7	Sololá	717	San Juan la Laguna	12	San Juan la Laguna	5	Mayo	2023-05-30T00:00:00	2024-11-08T04:00:00	5	Humedad	90
56789	7	Sololá	717	San Juan la Laguna	12	San Juan la Laguna	5	Mayo	2023-05-30T00:00:00	2024-11-08T04:00:00	6	Velocidad del viento	1.6
56790	7	Sololá	717	San Juan la Laguna	12	San Juan la Laguna	5	Mayo	2023-05-30T00:00:00	2024-11-08T04:00:00	7	Dirección del viento	1.61
56791	7	Sololá	717	San Juan la Laguna	12	San Juan la Laguna	5	Mayo	2023-05-30T00:00:00	2024-11-08T04:00:00	1	Precipitación	0
56792	7	Sololá	717	San Juan la Laguna	12	San Juan la Laguna	5	Mayo	2023-05-30T00:00:00	2024-11-08T04:00:00	8	Radiación solar	0
56793	7	Sololá	717	San Juan la Laguna	12	San Juan la Laguna	5	Mayo	2023-05-30T00:00:00	2024-11-08T05:00:00	2	Temperatura media	16.2
56794	7	Sololá	717	San Juan la Laguna	12	San Juan la Laguna	5	Mayo	2023-05-30T00:00:00	2024-11-08T05:00:00	4	Temperatura máxima	16.2
56795	7	Sololá	717	San Juan la Laguna	12	San Juan la Laguna	5	Mayo	2023-05-30T00:00:00	2024-11-08T05:00:00	3	Temperatura mínima	15.9
56796	7	Sololá	717	San Juan la Laguna	12	San Juan la Laguna	5	Mayo	2023-05-30T00:00:00	2024-11-08T05:00:00	5	Humedad	90
56797	7	Sololá	717	San Juan la Laguna	12	San Juan la Laguna	5	Mayo	2023-05-30T00:00:00	2024-11-08T05:00:00	6	Velocidad del viento	1.6
56798	7	Sololá	717	San Juan la Laguna	12	San Juan la Laguna	5	Mayo	2023-05-30T00:00:00	2024-11-08T05:00:00	7	Dirección del viento	1.61
56799	7	Sololá	717	San Juan la Laguna	12	San Juan la Laguna	5	Mayo	2023-05-30T00:00:00	2024-11-08T05:00:00	1	Precipitación	0
56800	7	Sololá	717	San Juan la Laguna	12	San Juan la Laguna	5	Mayo	2023-05-30T00:00:00	2024-11-08T05:00:00	8	Radiación solar	0
56801	7	Sololá	717	San Juan la Laguna	12	San Juan la Laguna	5	Mayo	2023-05-30T00:00:00	2024-11-08T06:00:00	2	Temperatura media	16.7
56802	7	Sololá	717	San Juan la Laguna	12	San Juan la Laguna	5	Mayo	2023-05-30T00:00:00	2024-11-08T06:00:00	4	Temperatura máxima	16.7
56803	7	Sololá	717	San Juan la Laguna	12	San Juan la Laguna	5	Mayo	2023-05-30T00:00:00	2024-11-08T06:00:00	3	Temperatura mínima	16.1
56804	7	Sololá	717	San Juan la Laguna	12	San Juan la Laguna	5	Mayo	2023-05-30T00:00:00	2024-11-08T06:00:00	5	Humedad	87
56805	7	Sololá	717	San Juan la Laguna	12	San Juan la Laguna	5	Mayo	2023-05-30T00:00:00	2024-11-08T06:00:00	6	Velocidad del viento	4.8
56806	7	Sololá	717	San Juan la Laguna	12	San Juan la Laguna	5	Mayo	2023-05-30T00:00:00	2024-11-08T06:00:00	7	Dirección del viento	4.83
56807	7	Sololá	717	San Juan la Laguna	12	San Juan la Laguna	5	Mayo	2023-05-30T00:00:00	2024-11-08T06:00:00	1	Precipitación	0
56808	7	Sololá	717	San Juan la Laguna	12	San Juan la Laguna	5	Mayo	2023-05-30T00:00:00	2024-11-08T06:00:00	8	Radiación solar	8
56809	7	Sololá	717	San Juan la Laguna	12	San Juan la Laguna	5	Mayo	2023-05-30T00:00:00	2024-11-08T07:00:00	2	Temperatura media	18.4
56810	7	Sololá	717	San Juan la Laguna	12	San Juan la Laguna	5	Mayo	2023-05-30T00:00:00	2024-11-08T07:00:00	4	Temperatura máxima	18.4
56811	7	Sololá	717	San Juan la Laguna	12	San Juan la Laguna	5	Mayo	2023-05-30T00:00:00	2024-11-08T07:00:00	3	Temperatura mínima	16.6
56812	7	Sololá	717	San Juan la Laguna	12	San Juan la Laguna	5	Mayo	2023-05-30T00:00:00	2024-11-08T07:00:00	5	Humedad	85
56813	7	Sololá	717	San Juan la Laguna	12	San Juan la Laguna	5	Mayo	2023-05-30T00:00:00	2024-11-08T07:00:00	6	Velocidad del viento	3.2
56814	7	Sololá	717	San Juan la Laguna	12	San Juan la Laguna	5	Mayo	2023-05-30T00:00:00	2024-11-08T07:00:00	7	Dirección del viento	3.22
56815	7	Sololá	717	San Juan la Laguna	12	San Juan la Laguna	5	Mayo	2023-05-30T00:00:00	2024-11-08T07:00:00	1	Precipitación	0
56816	7	Sololá	717	San Juan la Laguna	12	San Juan la Laguna	5	Mayo	2023-05-30T00:00:00	2024-11-08T07:00:00	8	Radiación solar	105
56817	7	Sololá	717	San Juan la Laguna	12	San Juan la Laguna	5	Mayo	2023-05-30T00:00:00	2024-11-08T08:00:00	2	Temperatura media	20.2
56818	7	Sololá	717	San Juan la Laguna	12	San Juan la Laguna	5	Mayo	2023-05-30T00:00:00	2024-11-08T08:00:00	4	Temperatura máxima	20.2
56819	7	Sololá	717	San Juan la Laguna	12	San Juan la Laguna	5	Mayo	2023-05-30T00:00:00	2024-11-08T08:00:00	3	Temperatura mínima	18.4
56820	7	Sololá	717	San Juan la Laguna	12	San Juan la Laguna	5	Mayo	2023-05-30T00:00:00	2024-11-08T08:00:00	5	Humedad	79
56821	7	Sololá	717	San Juan la Laguna	12	San Juan la Laguna	5	Mayo	2023-05-30T00:00:00	2024-11-08T08:00:00	6	Velocidad del viento	3.2
56822	7	Sololá	717	San Juan la Laguna	12	San Juan la Laguna	5	Mayo	2023-05-30T00:00:00	2024-11-08T08:00:00	7	Dirección del viento	3.22
56823	7	Sololá	717	San Juan la Laguna	12	San Juan la Laguna	5	Mayo	2023-05-30T00:00:00	2024-11-08T08:00:00	1	Precipitación	0
56824	7	Sololá	717	San Juan la Laguna	12	San Juan la Laguna	5	Mayo	2023-05-30T00:00:00	2024-11-08T08:00:00	8	Radiación solar	259
56825	7	Sololá	717	San Juan la Laguna	12	San Juan la Laguna	5	Mayo	2023-05-30T00:00:00	2024-11-08T09:00:00	2	Temperatura media	21.9
56826	7	Sololá	717	San Juan la Laguna	12	San Juan la Laguna	5	Mayo	2023-05-30T00:00:00	2024-11-08T09:00:00	4	Temperatura máxima	22.3
56827	7	Sololá	717	San Juan la Laguna	12	San Juan la Laguna	5	Mayo	2023-05-30T00:00:00	2024-11-08T09:00:00	3	Temperatura mínima	20.1
56828	7	Sololá	717	San Juan la Laguna	12	San Juan la Laguna	5	Mayo	2023-05-30T00:00:00	2024-11-08T09:00:00	5	Humedad	72
56829	7	Sololá	717	San Juan la Laguna	12	San Juan la Laguna	5	Mayo	2023-05-30T00:00:00	2024-11-08T09:00:00	6	Velocidad del viento	4.8
56830	7	Sololá	717	San Juan la Laguna	12	San Juan la Laguna	5	Mayo	2023-05-30T00:00:00	2024-11-08T09:00:00	7	Dirección del viento	4.83
56831	7	Sololá	717	San Juan la Laguna	12	San Juan la Laguna	5	Mayo	2023-05-30T00:00:00	2024-11-08T09:00:00	1	Precipitación	0
56832	7	Sololá	717	San Juan la Laguna	12	San Juan la Laguna	5	Mayo	2023-05-30T00:00:00	2024-11-08T09:00:00	8	Radiación solar	534
56833	7	Sololá	717	San Juan la Laguna	12	San Juan la Laguna	5	Mayo	2023-05-30T00:00:00	2024-11-08T10:00:00	2	Temperatura media	22.4
56834	7	Sololá	717	San Juan la Laguna	12	San Juan la Laguna	5	Mayo	2023-05-30T00:00:00	2024-11-08T10:00:00	4	Temperatura máxima	22.9
56835	7	Sololá	717	San Juan la Laguna	12	San Juan la Laguna	5	Mayo	2023-05-30T00:00:00	2024-11-08T10:00:00	3	Temperatura mínima	21.8
56836	7	Sololá	717	San Juan la Laguna	12	San Juan la Laguna	5	Mayo	2023-05-30T00:00:00	2024-11-08T10:00:00	5	Humedad	66
56837	7	Sololá	717	San Juan la Laguna	12	San Juan la Laguna	5	Mayo	2023-05-30T00:00:00	2024-11-08T10:00:00	6	Velocidad del viento	4.8
56838	7	Sololá	717	San Juan la Laguna	12	San Juan la Laguna	5	Mayo	2023-05-30T00:00:00	2024-11-08T10:00:00	7	Dirección del viento	4.83
56839	7	Sololá	717	San Juan la Laguna	12	San Juan la Laguna	5	Mayo	2023-05-30T00:00:00	2024-11-08T10:00:00	1	Precipitación	0
56840	7	Sololá	717	San Juan la Laguna	12	San Juan la Laguna	5	Mayo	2023-05-30T00:00:00	2024-11-08T10:00:00	8	Radiación solar	710
56841	7	Sololá	717	San Juan la Laguna	12	San Juan la Laguna	5	Mayo	2023-05-30T00:00:00	2024-11-08T11:00:00	2	Temperatura media	23.1
56842	7	Sololá	717	San Juan la Laguna	12	San Juan la Laguna	5	Mayo	2023-05-30T00:00:00	2024-11-08T11:00:00	4	Temperatura máxima	23.6
56843	7	Sololá	717	San Juan la Laguna	12	San Juan la Laguna	5	Mayo	2023-05-30T00:00:00	2024-11-08T11:00:00	3	Temperatura mínima	22.4
56844	7	Sololá	717	San Juan la Laguna	12	San Juan la Laguna	5	Mayo	2023-05-30T00:00:00	2024-11-08T11:00:00	5	Humedad	68
56845	7	Sololá	717	San Juan la Laguna	12	San Juan la Laguna	5	Mayo	2023-05-30T00:00:00	2024-11-08T11:00:00	6	Velocidad del viento	3.2
56846	7	Sololá	717	San Juan la Laguna	12	San Juan la Laguna	5	Mayo	2023-05-30T00:00:00	2024-11-08T11:00:00	7	Dirección del viento	3.22
56847	7	Sololá	717	San Juan la Laguna	12	San Juan la Laguna	5	Mayo	2023-05-30T00:00:00	2024-11-08T11:00:00	1	Precipitación	0
56848	7	Sololá	717	San Juan la Laguna	12	San Juan la Laguna	5	Mayo	2023-05-30T00:00:00	2024-11-08T11:00:00	8	Radiación solar	844
56849	7	Sololá	717	San Juan la Laguna	12	San Juan la Laguna	5	Mayo	2023-05-30T00:00:00	2024-11-08T12:00:00	2	Temperatura media	23.2
56850	7	Sololá	717	San Juan la Laguna	12	San Juan la Laguna	5	Mayo	2023-05-30T00:00:00	2024-11-08T12:00:00	4	Temperatura máxima	24.1
56851	7	Sololá	717	San Juan la Laguna	12	San Juan la Laguna	5	Mayo	2023-05-30T00:00:00	2024-11-08T12:00:00	3	Temperatura mínima	22.8
56852	7	Sololá	717	San Juan la Laguna	12	San Juan la Laguna	5	Mayo	2023-05-30T00:00:00	2024-11-08T12:00:00	5	Humedad	70
56853	7	Sololá	717	San Juan la Laguna	12	San Juan la Laguna	5	Mayo	2023-05-30T00:00:00	2024-11-08T12:00:00	6	Velocidad del viento	3.2
56854	7	Sololá	717	San Juan la Laguna	12	San Juan la Laguna	5	Mayo	2023-05-30T00:00:00	2024-11-08T12:00:00	7	Dirección del viento	3.22
56855	7	Sololá	717	San Juan la Laguna	12	San Juan la Laguna	5	Mayo	2023-05-30T00:00:00	2024-11-08T12:00:00	1	Precipitación	0
56856	7	Sololá	717	San Juan la Laguna	12	San Juan la Laguna	5	Mayo	2023-05-30T00:00:00	2024-11-08T12:00:00	8	Radiación solar	789
56857	7	Sololá	717	San Juan la Laguna	12	San Juan la Laguna	5	Mayo	2023-05-30T00:00:00	2024-11-08T13:00:00	2	Temperatura media	20.7
56858	7	Sololá	717	San Juan la Laguna	12	San Juan la Laguna	5	Mayo	2023-05-30T00:00:00	2024-11-08T13:00:00	4	Temperatura máxima	23.2
56859	7	Sololá	717	San Juan la Laguna	12	San Juan la Laguna	5	Mayo	2023-05-30T00:00:00	2024-11-08T13:00:00	3	Temperatura mínima	20.7
56860	7	Sololá	717	San Juan la Laguna	12	San Juan la Laguna	5	Mayo	2023-05-30T00:00:00	2024-11-08T13:00:00	5	Humedad	80
56861	7	Sololá	717	San Juan la Laguna	12	San Juan la Laguna	5	Mayo	2023-05-30T00:00:00	2024-11-08T13:00:00	6	Velocidad del viento	4.8
56862	7	Sololá	717	San Juan la Laguna	12	San Juan la Laguna	5	Mayo	2023-05-30T00:00:00	2024-11-08T13:00:00	7	Dirección del viento	4.83
56863	7	Sololá	717	San Juan la Laguna	12	San Juan la Laguna	5	Mayo	2023-05-30T00:00:00	2024-11-08T13:00:00	1	Precipitación	0
56864	7	Sololá	717	San Juan la Laguna	12	San Juan la Laguna	5	Mayo	2023-05-30T00:00:00	2024-11-08T13:00:00	8	Radiación solar	236
56865	7	Sololá	717	San Juan la Laguna	12	San Juan la Laguna	5	Mayo	2023-05-30T00:00:00	2024-11-08T14:00:00	2	Temperatura media	18.2
56866	7	Sololá	717	San Juan la Laguna	12	San Juan la Laguna	5	Mayo	2023-05-30T00:00:00	2024-11-08T14:00:00	4	Temperatura máxima	20.7
56867	7	Sololá	717	San Juan la Laguna	12	San Juan la Laguna	5	Mayo	2023-05-30T00:00:00	2024-11-08T14:00:00	3	Temperatura mínima	18.2
56868	7	Sololá	717	San Juan la Laguna	12	San Juan la Laguna	5	Mayo	2023-05-30T00:00:00	2024-11-08T14:00:00	5	Humedad	87
56869	7	Sololá	717	San Juan la Laguna	12	San Juan la Laguna	5	Mayo	2023-05-30T00:00:00	2024-11-08T14:00:00	6	Velocidad del viento	3.2
56870	7	Sololá	717	San Juan la Laguna	12	San Juan la Laguna	5	Mayo	2023-05-30T00:00:00	2024-11-08T14:00:00	7	Dirección del viento	3.22
56871	7	Sololá	717	San Juan la Laguna	12	San Juan la Laguna	5	Mayo	2023-05-30T00:00:00	2024-11-08T14:00:00	1	Precipitación	2.4
56872	7	Sololá	717	San Juan la Laguna	12	San Juan la Laguna	5	Mayo	2023-05-30T00:00:00	2024-11-08T14:00:00	8	Radiación solar	93
56873	7	Sololá	717	San Juan la Laguna	12	San Juan la Laguna	5	Mayo	2023-05-30T00:00:00	2024-11-08T15:00:00	2	Temperatura media	17.8
56874	7	Sololá	717	San Juan la Laguna	12	San Juan la Laguna	5	Mayo	2023-05-30T00:00:00	2024-11-08T15:00:00	4	Temperatura máxima	18.3
56875	7	Sololá	717	San Juan la Laguna	12	San Juan la Laguna	5	Mayo	2023-05-30T00:00:00	2024-11-08T15:00:00	3	Temperatura mínima	17.8
56876	7	Sololá	717	San Juan la Laguna	12	San Juan la Laguna	5	Mayo	2023-05-30T00:00:00	2024-11-08T15:00:00	5	Humedad	88
56877	7	Sololá	717	San Juan la Laguna	12	San Juan la Laguna	5	Mayo	2023-05-30T00:00:00	2024-11-08T15:00:00	6	Velocidad del viento	3.2
56878	7	Sololá	717	San Juan la Laguna	12	San Juan la Laguna	5	Mayo	2023-05-30T00:00:00	2024-11-08T15:00:00	7	Dirección del viento	3.22
56879	7	Sololá	717	San Juan la Laguna	12	San Juan la Laguna	5	Mayo	2023-05-30T00:00:00	2024-11-08T15:00:00	1	Precipitación	0.8
56880	7	Sololá	717	San Juan la Laguna	12	San Juan la Laguna	5	Mayo	2023-05-30T00:00:00	2024-11-08T15:00:00	8	Radiación solar	45
56881	7	Sololá	717	San Juan la Laguna	12	San Juan la Laguna	5	Mayo	2023-05-30T00:00:00	2024-11-08T16:00:00	2	Temperatura media	18.3
56882	7	Sololá	717	San Juan la Laguna	12	San Juan la Laguna	5	Mayo	2023-05-30T00:00:00	2024-11-08T16:00:00	4	Temperatura máxima	18.3
56883	7	Sololá	717	San Juan la Laguna	12	San Juan la Laguna	5	Mayo	2023-05-30T00:00:00	2024-11-08T16:00:00	3	Temperatura mínima	17.6
56884	7	Sololá	717	San Juan la Laguna	12	San Juan la Laguna	5	Mayo	2023-05-30T00:00:00	2024-11-08T16:00:00	5	Humedad	88
56885	7	Sololá	717	San Juan la Laguna	12	San Juan la Laguna	5	Mayo	2023-05-30T00:00:00	2024-11-08T16:00:00	6	Velocidad del viento	1.6
56886	7	Sololá	717	San Juan la Laguna	12	San Juan la Laguna	5	Mayo	2023-05-30T00:00:00	2024-11-08T16:00:00	7	Dirección del viento	1.61
56887	7	Sololá	717	San Juan la Laguna	12	San Juan la Laguna	5	Mayo	2023-05-30T00:00:00	2024-11-08T16:00:00	1	Precipitación	0
56888	7	Sololá	717	San Juan la Laguna	12	San Juan la Laguna	5	Mayo	2023-05-30T00:00:00	2024-11-08T16:00:00	8	Radiación solar	108
56889	7	Sololá	717	San Juan la Laguna	12	San Juan la Laguna	5	Mayo	2023-05-30T00:00:00	2024-11-08T17:00:00	2	Temperatura media	17.8
56890	7	Sololá	717	San Juan la Laguna	12	San Juan la Laguna	5	Mayo	2023-05-30T00:00:00	2024-11-08T17:00:00	4	Temperatura máxima	18.3
56891	7	Sololá	717	San Juan la Laguna	12	San Juan la Laguna	5	Mayo	2023-05-30T00:00:00	2024-11-08T17:00:00	3	Temperatura mínima	17.7
56892	7	Sololá	717	San Juan la Laguna	12	San Juan la Laguna	5	Mayo	2023-05-30T00:00:00	2024-11-08T17:00:00	5	Humedad	87
56893	7	Sololá	717	San Juan la Laguna	12	San Juan la Laguna	5	Mayo	2023-05-30T00:00:00	2024-11-08T17:00:00	6	Velocidad del viento	3.2
56894	7	Sololá	717	San Juan la Laguna	12	San Juan la Laguna	5	Mayo	2023-05-30T00:00:00	2024-11-08T17:00:00	7	Dirección del viento	3.22
56895	7	Sololá	717	San Juan la Laguna	12	San Juan la Laguna	5	Mayo	2023-05-30T00:00:00	2024-11-08T17:00:00	1	Precipitación	0
56896	7	Sololá	717	San Juan la Laguna	12	San Juan la Laguna	5	Mayo	2023-05-30T00:00:00	2024-11-08T17:00:00	8	Radiación solar	23
56897	7	Sololá	717	San Juan la Laguna	12	San Juan la Laguna	5	Mayo	2023-05-30T00:00:00	2024-11-08T18:00:00	2	Temperatura media	16.7
56898	7	Sololá	717	San Juan la Laguna	12	San Juan la Laguna	5	Mayo	2023-05-30T00:00:00	2024-11-08T18:00:00	4	Temperatura máxima	17.8
56899	7	Sololá	717	San Juan la Laguna	12	San Juan la Laguna	5	Mayo	2023-05-30T00:00:00	2024-11-08T18:00:00	3	Temperatura mínima	16.7
56900	7	Sololá	717	San Juan la Laguna	12	San Juan la Laguna	5	Mayo	2023-05-30T00:00:00	2024-11-08T18:00:00	5	Humedad	91
56901	7	Sololá	717	San Juan la Laguna	12	San Juan la Laguna	5	Mayo	2023-05-30T00:00:00	2024-11-08T18:00:00	6	Velocidad del viento	3.2
56902	7	Sololá	717	San Juan la Laguna	12	San Juan la Laguna	5	Mayo	2023-05-30T00:00:00	2024-11-08T18:00:00	7	Dirección del viento	3.22
56903	7	Sololá	717	San Juan la Laguna	12	San Juan la Laguna	5	Mayo	2023-05-30T00:00:00	2024-11-08T18:00:00	1	Precipitación	2.2
56904	7	Sololá	717	San Juan la Laguna	12	San Juan la Laguna	5	Mayo	2023-05-30T00:00:00	2024-11-08T18:00:00	8	Radiación solar	6
56905	7	Sololá	717	San Juan la Laguna	12	San Juan la Laguna	5	Mayo	2023-05-30T00:00:00	2024-11-08T19:00:00	2	Temperatura media	16.9
56906	7	Sololá	717	San Juan la Laguna	12	San Juan la Laguna	5	Mayo	2023-05-30T00:00:00	2024-11-08T19:00:00	4	Temperatura máxima	17.1
56907	7	Sololá	717	San Juan la Laguna	12	San Juan la Laguna	5	Mayo	2023-05-30T00:00:00	2024-11-08T19:00:00	3	Temperatura mínima	16.7
56908	7	Sololá	717	San Juan la Laguna	12	San Juan la Laguna	5	Mayo	2023-05-30T00:00:00	2024-11-08T19:00:00	5	Humedad	92
56909	7	Sololá	717	San Juan la Laguna	12	San Juan la Laguna	5	Mayo	2023-05-30T00:00:00	2024-11-08T19:00:00	6	Velocidad del viento	3.2
56910	7	Sololá	717	San Juan la Laguna	12	San Juan la Laguna	5	Mayo	2023-05-30T00:00:00	2024-11-08T19:00:00	7	Dirección del viento	3.22
56911	7	Sololá	717	San Juan la Laguna	12	San Juan la Laguna	5	Mayo	2023-05-30T00:00:00	2024-11-08T19:00:00	1	Precipitación	0.6
56912	7	Sololá	717	San Juan la Laguna	12	San Juan la Laguna	5	Mayo	2023-05-30T00:00:00	2024-11-08T19:00:00	8	Radiación solar	0
56913	7	Sololá	717	San Juan la Laguna	12	San Juan la Laguna	5	Mayo	2023-05-30T00:00:00	2024-11-08T20:00:00	2	Temperatura media	16.1
56914	7	Sololá	717	San Juan la Laguna	12	San Juan la Laguna	5	Mayo	2023-05-30T00:00:00	2024-11-08T20:00:00	4	Temperatura máxima	16.9
56915	7	Sololá	717	San Juan la Laguna	12	San Juan la Laguna	5	Mayo	2023-05-30T00:00:00	2024-11-08T20:00:00	3	Temperatura mínima	16.1
56916	7	Sololá	717	San Juan la Laguna	12	San Juan la Laguna	5	Mayo	2023-05-30T00:00:00	2024-11-08T20:00:00	5	Humedad	90
56917	7	Sololá	717	San Juan la Laguna	12	San Juan la Laguna	5	Mayo	2023-05-30T00:00:00	2024-11-08T20:00:00	6	Velocidad del viento	3.2
56918	7	Sololá	717	San Juan la Laguna	12	San Juan la Laguna	5	Mayo	2023-05-30T00:00:00	2024-11-08T20:00:00	7	Dirección del viento	3.22
56919	7	Sololá	717	San Juan la Laguna	12	San Juan la Laguna	5	Mayo	2023-05-30T00:00:00	2024-11-08T20:00:00	1	Precipitación	0
56920	7	Sololá	717	San Juan la Laguna	12	San Juan la Laguna	5	Mayo	2023-05-30T00:00:00	2024-11-08T20:00:00	8	Radiación solar	0
56921	7	Sololá	717	San Juan la Laguna	12	San Juan la Laguna	5	Mayo	2023-05-30T00:00:00	2024-11-08T21:00:00	2	Temperatura media	16.1
56922	7	Sololá	717	San Juan la Laguna	12	San Juan la Laguna	5	Mayo	2023-05-30T00:00:00	2024-11-08T21:00:00	4	Temperatura máxima	16.3
56923	7	Sololá	717	San Juan la Laguna	12	San Juan la Laguna	5	Mayo	2023-05-30T00:00:00	2024-11-08T21:00:00	3	Temperatura mínima	15.9
56924	7	Sololá	717	San Juan la Laguna	12	San Juan la Laguna	5	Mayo	2023-05-30T00:00:00	2024-11-08T21:00:00	5	Humedad	89
56925	7	Sololá	717	San Juan la Laguna	12	San Juan la Laguna	5	Mayo	2023-05-30T00:00:00	2024-11-08T21:00:00	6	Velocidad del viento	4.8
56926	7	Sololá	717	San Juan la Laguna	12	San Juan la Laguna	5	Mayo	2023-05-30T00:00:00	2024-11-08T21:00:00	7	Dirección del viento	4.83
56927	7	Sololá	717	San Juan la Laguna	12	San Juan la Laguna	5	Mayo	2023-05-30T00:00:00	2024-11-08T21:00:00	1	Precipitación	0
56928	7	Sololá	717	San Juan la Laguna	12	San Juan la Laguna	5	Mayo	2023-05-30T00:00:00	2024-11-08T21:00:00	8	Radiación solar	0
56929	7	Sololá	717	San Juan la Laguna	12	San Juan la Laguna	5	Mayo	2023-05-30T00:00:00	2024-11-08T22:00:00	2	Temperatura media	16.6
56930	7	Sololá	717	San Juan la Laguna	12	San Juan la Laguna	5	Mayo	2023-05-30T00:00:00	2024-11-08T22:00:00	4	Temperatura máxima	16.7
56931	7	Sololá	717	San Juan la Laguna	12	San Juan la Laguna	5	Mayo	2023-05-30T00:00:00	2024-11-08T22:00:00	3	Temperatura mínima	16
56932	7	Sololá	717	San Juan la Laguna	12	San Juan la Laguna	5	Mayo	2023-05-30T00:00:00	2024-11-08T22:00:00	5	Humedad	87
56933	7	Sololá	717	San Juan la Laguna	12	San Juan la Laguna	5	Mayo	2023-05-30T00:00:00	2024-11-08T22:00:00	6	Velocidad del viento	4.8
56934	7	Sololá	717	San Juan la Laguna	12	San Juan la Laguna	5	Mayo	2023-05-30T00:00:00	2024-11-08T22:00:00	7	Dirección del viento	4.83
56935	7	Sololá	717	San Juan la Laguna	12	San Juan la Laguna	5	Mayo	2023-05-30T00:00:00	2024-11-08T22:00:00	1	Precipitación	0
56936	7	Sololá	717	San Juan la Laguna	12	San Juan la Laguna	5	Mayo	2023-05-30T00:00:00	2024-11-08T22:00:00	8	Radiación solar	0
56937	7	Sololá	717	San Juan la Laguna	12	San Juan la Laguna	5	Mayo	2023-05-30T00:00:00	2024-11-08T23:00:00	2	Temperatura media	16.7
56938	7	Sololá	717	San Juan la Laguna	12	San Juan la Laguna	5	Mayo	2023-05-30T00:00:00	2024-11-08T23:00:00	4	Temperatura máxima	16.9
56939	7	Sololá	717	San Juan la Laguna	12	San Juan la Laguna	5	Mayo	2023-05-30T00:00:00	2024-11-08T23:00:00	3	Temperatura mínima	16.6
56940	7	Sololá	717	San Juan la Laguna	12	San Juan la Laguna	5	Mayo	2023-05-30T00:00:00	2024-11-08T23:00:00	5	Humedad	87
56941	7	Sololá	717	San Juan la Laguna	12	San Juan la Laguna	5	Mayo	2023-05-30T00:00:00	2024-11-08T23:00:00	6	Velocidad del viento	3.2
56942	7	Sololá	717	San Juan la Laguna	12	San Juan la Laguna	5	Mayo	2023-05-30T00:00:00	2024-11-08T23:00:00	7	Dirección del viento	3.22
56943	7	Sololá	717	San Juan la Laguna	12	San Juan la Laguna	5	Mayo	2023-05-30T00:00:00	2024-11-08T23:00:00	1	Precipitación	0
56944	7	Sololá	717	San Juan la Laguna	12	San Juan la Laguna	5	Mayo	2023-05-30T00:00:00	2024-11-08T23:00:00	8	Radiación solar	0
56945	7	Sololá	717	San Juan la Laguna	12	San Juan la Laguna	5	Mayo	2023-05-31T00:00:00	2024-11-08T00:00:00	2	Temperatura media	16.3
56946	7	Sololá	717	San Juan la Laguna	12	San Juan la Laguna	5	Mayo	2023-05-31T00:00:00	2024-11-08T00:00:00	4	Temperatura máxima	17.1
56947	7	Sololá	717	San Juan la Laguna	12	San Juan la Laguna	5	Mayo	2023-05-31T00:00:00	2024-11-08T00:00:00	3	Temperatura mínima	16.3
56948	7	Sololá	717	San Juan la Laguna	12	San Juan la Laguna	5	Mayo	2023-05-31T00:00:00	2024-11-08T00:00:00	5	Humedad	89
56949	7	Sololá	717	San Juan la Laguna	12	San Juan la Laguna	5	Mayo	2023-05-31T00:00:00	2024-11-08T00:00:00	6	Velocidad del viento	1.6
56950	7	Sololá	717	San Juan la Laguna	12	San Juan la Laguna	5	Mayo	2023-05-31T00:00:00	2024-11-08T00:00:00	7	Dirección del viento	1.61
56951	7	Sololá	717	San Juan la Laguna	12	San Juan la Laguna	5	Mayo	2023-05-31T00:00:00	2024-11-08T00:00:00	1	Precipitación	0
56952	7	Sololá	717	San Juan la Laguna	12	San Juan la Laguna	5	Mayo	2023-05-31T00:00:00	2024-11-08T00:00:00	8	Radiación solar	0
56953	7	Sololá	717	San Juan la Laguna	12	San Juan la Laguna	5	Mayo	2023-05-31T00:00:00	2024-11-08T01:00:00	2	Temperatura media	16.4
56954	7	Sololá	717	San Juan la Laguna	12	San Juan la Laguna	5	Mayo	2023-05-31T00:00:00	2024-11-08T01:00:00	4	Temperatura máxima	16.5
56955	7	Sololá	717	San Juan la Laguna	12	San Juan la Laguna	5	Mayo	2023-05-31T00:00:00	2024-11-08T01:00:00	3	Temperatura mínima	16.1
56956	7	Sololá	717	San Juan la Laguna	12	San Juan la Laguna	5	Mayo	2023-05-31T00:00:00	2024-11-08T01:00:00	5	Humedad	87
56957	7	Sololá	717	San Juan la Laguna	12	San Juan la Laguna	5	Mayo	2023-05-31T00:00:00	2024-11-08T01:00:00	6	Velocidad del viento	3.2
56958	7	Sololá	717	San Juan la Laguna	12	San Juan la Laguna	5	Mayo	2023-05-31T00:00:00	2024-11-08T01:00:00	7	Dirección del viento	3.22
56959	7	Sololá	717	San Juan la Laguna	12	San Juan la Laguna	5	Mayo	2023-05-31T00:00:00	2024-11-08T01:00:00	1	Precipitación	0
56960	7	Sololá	717	San Juan la Laguna	12	San Juan la Laguna	5	Mayo	2023-05-31T00:00:00	2024-11-08T01:00:00	8	Radiación solar	0
56961	7	Sololá	717	San Juan la Laguna	12	San Juan la Laguna	5	Mayo	2023-05-31T00:00:00	2024-11-08T02:00:00	2	Temperatura media	16.2
56962	7	Sololá	717	San Juan la Laguna	12	San Juan la Laguna	5	Mayo	2023-05-31T00:00:00	2024-11-08T02:00:00	4	Temperatura máxima	16.6
56963	7	Sololá	717	San Juan la Laguna	12	San Juan la Laguna	5	Mayo	2023-05-31T00:00:00	2024-11-08T02:00:00	3	Temperatura mínima	16.2
56964	7	Sololá	717	San Juan la Laguna	12	San Juan la Laguna	5	Mayo	2023-05-31T00:00:00	2024-11-08T02:00:00	5	Humedad	89
56965	7	Sololá	717	San Juan la Laguna	12	San Juan la Laguna	5	Mayo	2023-05-31T00:00:00	2024-11-08T02:00:00	6	Velocidad del viento	1.6
56966	7	Sololá	717	San Juan la Laguna	12	San Juan la Laguna	5	Mayo	2023-05-31T00:00:00	2024-11-08T02:00:00	7	Dirección del viento	1.61
56967	7	Sololá	717	San Juan la Laguna	12	San Juan la Laguna	5	Mayo	2023-05-31T00:00:00	2024-11-08T02:00:00	1	Precipitación	0
56968	7	Sololá	717	San Juan la Laguna	12	San Juan la Laguna	5	Mayo	2023-05-31T00:00:00	2024-11-08T02:00:00	8	Radiación solar	0
56969	7	Sololá	717	San Juan la Laguna	12	San Juan la Laguna	5	Mayo	2023-05-31T00:00:00	2024-11-08T03:00:00	2	Temperatura media	16.3
56970	7	Sololá	717	San Juan la Laguna	12	San Juan la Laguna	5	Mayo	2023-05-31T00:00:00	2024-11-08T03:00:00	4	Temperatura máxima	16.3
56971	7	Sololá	717	San Juan la Laguna	12	San Juan la Laguna	5	Mayo	2023-05-31T00:00:00	2024-11-08T03:00:00	3	Temperatura mínima	16.1
56972	7	Sololá	717	San Juan la Laguna	12	San Juan la Laguna	5	Mayo	2023-05-31T00:00:00	2024-11-08T03:00:00	5	Humedad	88
56973	7	Sololá	717	San Juan la Laguna	12	San Juan la Laguna	5	Mayo	2023-05-31T00:00:00	2024-11-08T03:00:00	6	Velocidad del viento	1.6
56974	7	Sololá	717	San Juan la Laguna	12	San Juan la Laguna	5	Mayo	2023-05-31T00:00:00	2024-11-08T03:00:00	7	Dirección del viento	1.61
56975	7	Sololá	717	San Juan la Laguna	12	San Juan la Laguna	5	Mayo	2023-05-31T00:00:00	2024-11-08T03:00:00	1	Precipitación	0
56976	7	Sololá	717	San Juan la Laguna	12	San Juan la Laguna	5	Mayo	2023-05-31T00:00:00	2024-11-08T03:00:00	8	Radiación solar	0
56977	7	Sololá	717	San Juan la Laguna	12	San Juan la Laguna	5	Mayo	2023-05-31T00:00:00	2024-11-08T04:00:00	2	Temperatura media	15.9
56978	7	Sololá	717	San Juan la Laguna	12	San Juan la Laguna	5	Mayo	2023-05-31T00:00:00	2024-11-08T04:00:00	4	Temperatura máxima	16.3
56979	7	Sololá	717	San Juan la Laguna	12	San Juan la Laguna	5	Mayo	2023-05-31T00:00:00	2024-11-08T04:00:00	3	Temperatura mínima	15.9
56980	7	Sololá	717	San Juan la Laguna	12	San Juan la Laguna	5	Mayo	2023-05-31T00:00:00	2024-11-08T04:00:00	5	Humedad	88
56981	7	Sololá	717	San Juan la Laguna	12	San Juan la Laguna	5	Mayo	2023-05-31T00:00:00	2024-11-08T04:00:00	6	Velocidad del viento	1.6
56982	7	Sololá	717	San Juan la Laguna	12	San Juan la Laguna	5	Mayo	2023-05-31T00:00:00	2024-11-08T04:00:00	7	Dirección del viento	1.61
56983	7	Sololá	717	San Juan la Laguna	12	San Juan la Laguna	5	Mayo	2023-05-31T00:00:00	2024-11-08T04:00:00	1	Precipitación	0
56984	7	Sololá	717	San Juan la Laguna	12	San Juan la Laguna	5	Mayo	2023-05-31T00:00:00	2024-11-08T04:00:00	8	Radiación solar	0
56985	7	Sololá	717	San Juan la Laguna	12	San Juan la Laguna	5	Mayo	2023-05-31T00:00:00	2024-11-08T05:00:00	2	Temperatura media	15.3
56986	7	Sololá	717	San Juan la Laguna	12	San Juan la Laguna	5	Mayo	2023-05-31T00:00:00	2024-11-08T05:00:00	4	Temperatura máxima	15.9
56987	7	Sololá	717	San Juan la Laguna	12	San Juan la Laguna	5	Mayo	2023-05-31T00:00:00	2024-11-08T05:00:00	3	Temperatura mínima	15.3
56988	7	Sololá	717	San Juan la Laguna	12	San Juan la Laguna	5	Mayo	2023-05-31T00:00:00	2024-11-08T05:00:00	5	Humedad	89
56989	7	Sololá	717	San Juan la Laguna	12	San Juan la Laguna	5	Mayo	2023-05-31T00:00:00	2024-11-08T05:00:00	6	Velocidad del viento	3.2
56990	7	Sololá	717	San Juan la Laguna	12	San Juan la Laguna	5	Mayo	2023-05-31T00:00:00	2024-11-08T05:00:00	7	Dirección del viento	3.22
56991	7	Sololá	717	San Juan la Laguna	12	San Juan la Laguna	5	Mayo	2023-05-31T00:00:00	2024-11-08T05:00:00	1	Precipitación	0
56992	7	Sololá	717	San Juan la Laguna	12	San Juan la Laguna	5	Mayo	2023-05-31T00:00:00	2024-11-08T05:00:00	8	Radiación solar	0
56993	7	Sololá	717	San Juan la Laguna	12	San Juan la Laguna	5	Mayo	2023-05-31T00:00:00	2024-11-08T06:00:00	2	Temperatura media	15.3
56994	7	Sololá	717	San Juan la Laguna	12	San Juan la Laguna	5	Mayo	2023-05-31T00:00:00	2024-11-08T06:00:00	4	Temperatura máxima	15.4
56995	7	Sololá	717	San Juan la Laguna	12	San Juan la Laguna	5	Mayo	2023-05-31T00:00:00	2024-11-08T06:00:00	3	Temperatura mínima	15.1
56996	7	Sololá	717	San Juan la Laguna	12	San Juan la Laguna	5	Mayo	2023-05-31T00:00:00	2024-11-08T06:00:00	5	Humedad	89
56997	7	Sololá	717	San Juan la Laguna	12	San Juan la Laguna	5	Mayo	2023-05-31T00:00:00	2024-11-08T06:00:00	6	Velocidad del viento	3.2
56998	7	Sololá	717	San Juan la Laguna	12	San Juan la Laguna	5	Mayo	2023-05-31T00:00:00	2024-11-08T06:00:00	7	Dirección del viento	3.22
56999	7	Sololá	717	San Juan la Laguna	12	San Juan la Laguna	5	Mayo	2023-05-31T00:00:00	2024-11-08T06:00:00	1	Precipitación	0
57000	7	Sololá	717	San Juan la Laguna	12	San Juan la Laguna	5	Mayo	2023-05-31T00:00:00	2024-11-08T06:00:00	8	Radiación solar	5
57001	7	Sololá	717	San Juan la Laguna	12	San Juan la Laguna	5	Mayo	2023-05-31T00:00:00	2024-11-08T07:00:00	2	Temperatura media	17.2
57002	7	Sololá	717	San Juan la Laguna	12	San Juan la Laguna	5	Mayo	2023-05-31T00:00:00	2024-11-08T07:00:00	4	Temperatura máxima	17.2
57003	7	Sololá	717	San Juan la Laguna	12	San Juan la Laguna	5	Mayo	2023-05-31T00:00:00	2024-11-08T07:00:00	3	Temperatura mínima	15.3
57004	7	Sololá	717	San Juan la Laguna	12	San Juan la Laguna	5	Mayo	2023-05-31T00:00:00	2024-11-08T07:00:00	5	Humedad	85
57005	7	Sololá	717	San Juan la Laguna	12	San Juan la Laguna	5	Mayo	2023-05-31T00:00:00	2024-11-08T07:00:00	6	Velocidad del viento	1.6
57006	7	Sololá	717	San Juan la Laguna	12	San Juan la Laguna	5	Mayo	2023-05-31T00:00:00	2024-11-08T07:00:00	7	Dirección del viento	1.61
57007	7	Sololá	717	San Juan la Laguna	12	San Juan la Laguna	5	Mayo	2023-05-31T00:00:00	2024-11-08T07:00:00	1	Precipitación	0.2
57008	7	Sololá	717	San Juan la Laguna	12	San Juan la Laguna	5	Mayo	2023-05-31T00:00:00	2024-11-08T07:00:00	8	Radiación solar	88
57009	7	Sololá	717	San Juan la Laguna	12	San Juan la Laguna	5	Mayo	2023-05-31T00:00:00	2024-11-08T08:00:00	2	Temperatura media	20.6
57010	7	Sololá	717	San Juan la Laguna	12	San Juan la Laguna	5	Mayo	2023-05-31T00:00:00	2024-11-08T08:00:00	4	Temperatura máxima	20.6
57011	7	Sololá	717	San Juan la Laguna	12	San Juan la Laguna	5	Mayo	2023-05-31T00:00:00	2024-11-08T08:00:00	3	Temperatura mínima	17.2
57012	7	Sololá	717	San Juan la Laguna	12	San Juan la Laguna	5	Mayo	2023-05-31T00:00:00	2024-11-08T08:00:00	5	Humedad	77
57013	7	Sololá	717	San Juan la Laguna	12	San Juan la Laguna	5	Mayo	2023-05-31T00:00:00	2024-11-08T08:00:00	6	Velocidad del viento	1.6
57014	7	Sololá	717	San Juan la Laguna	12	San Juan la Laguna	5	Mayo	2023-05-31T00:00:00	2024-11-08T08:00:00	7	Dirección del viento	1.61
57015	7	Sololá	717	San Juan la Laguna	12	San Juan la Laguna	5	Mayo	2023-05-31T00:00:00	2024-11-08T08:00:00	1	Precipitación	0
57016	7	Sololá	717	San Juan la Laguna	12	San Juan la Laguna	5	Mayo	2023-05-31T00:00:00	2024-11-08T08:00:00	8	Radiación solar	293
57017	7	Sololá	717	San Juan la Laguna	12	San Juan la Laguna	5	Mayo	2023-05-31T00:00:00	2024-11-08T09:00:00	2	Temperatura media	21.5
57018	7	Sololá	717	San Juan la Laguna	12	San Juan la Laguna	5	Mayo	2023-05-31T00:00:00	2024-11-08T09:00:00	4	Temperatura máxima	21.5
57019	7	Sololá	717	San Juan la Laguna	12	San Juan la Laguna	5	Mayo	2023-05-31T00:00:00	2024-11-08T09:00:00	3	Temperatura mínima	20
57020	7	Sololá	717	San Juan la Laguna	12	San Juan la Laguna	5	Mayo	2023-05-31T00:00:00	2024-11-08T09:00:00	5	Humedad	74
57021	7	Sololá	717	San Juan la Laguna	12	San Juan la Laguna	5	Mayo	2023-05-31T00:00:00	2024-11-08T09:00:00	6	Velocidad del viento	1.6
57022	7	Sololá	717	San Juan la Laguna	12	San Juan la Laguna	5	Mayo	2023-05-31T00:00:00	2024-11-08T09:00:00	7	Dirección del viento	1.61
57023	7	Sololá	717	San Juan la Laguna	12	San Juan la Laguna	5	Mayo	2023-05-31T00:00:00	2024-11-08T09:00:00	1	Precipitación	0
57024	7	Sololá	717	San Juan la Laguna	12	San Juan la Laguna	5	Mayo	2023-05-31T00:00:00	2024-11-08T09:00:00	8	Radiación solar	492
57025	7	Sololá	717	San Juan la Laguna	12	San Juan la Laguna	5	Mayo	2023-05-31T00:00:00	2024-11-08T10:00:00	2	Temperatura media	22.2
57026	7	Sololá	717	San Juan la Laguna	12	San Juan la Laguna	5	Mayo	2023-05-31T00:00:00	2024-11-08T10:00:00	4	Temperatura máxima	22.4
57027	7	Sololá	717	San Juan la Laguna	12	San Juan la Laguna	5	Mayo	2023-05-31T00:00:00	2024-11-08T10:00:00	3	Temperatura mínima	21.3
57028	7	Sololá	717	San Juan la Laguna	12	San Juan la Laguna	5	Mayo	2023-05-31T00:00:00	2024-11-08T10:00:00	5	Humedad	66
57029	7	Sololá	717	San Juan la Laguna	12	San Juan la Laguna	5	Mayo	2023-05-31T00:00:00	2024-11-08T10:00:00	6	Velocidad del viento	1.6
57030	7	Sololá	717	San Juan la Laguna	12	San Juan la Laguna	5	Mayo	2023-05-31T00:00:00	2024-11-08T10:00:00	7	Dirección del viento	1.61
57031	7	Sololá	717	San Juan la Laguna	12	San Juan la Laguna	5	Mayo	2023-05-31T00:00:00	2024-11-08T10:00:00	1	Precipitación	0
57032	7	Sololá	717	San Juan la Laguna	12	San Juan la Laguna	5	Mayo	2023-05-31T00:00:00	2024-11-08T10:00:00	8	Radiación solar	629
57033	7	Sololá	717	San Juan la Laguna	12	San Juan la Laguna	5	Mayo	2023-05-31T00:00:00	2024-11-08T11:00:00	2	Temperatura media	22.3
57034	7	Sololá	717	San Juan la Laguna	12	San Juan la Laguna	5	Mayo	2023-05-31T00:00:00	2024-11-08T11:00:00	4	Temperatura máxima	22.6
57035	7	Sololá	717	San Juan la Laguna	12	San Juan la Laguna	5	Mayo	2023-05-31T00:00:00	2024-11-08T11:00:00	3	Temperatura mínima	22
57036	7	Sololá	717	San Juan la Laguna	12	San Juan la Laguna	5	Mayo	2023-05-31T00:00:00	2024-11-08T11:00:00	5	Humedad	71
57037	7	Sololá	717	San Juan la Laguna	12	San Juan la Laguna	5	Mayo	2023-05-31T00:00:00	2024-11-08T11:00:00	6	Velocidad del viento	1.6
57038	7	Sololá	717	San Juan la Laguna	12	San Juan la Laguna	5	Mayo	2023-05-31T00:00:00	2024-11-08T11:00:00	7	Dirección del viento	1.61
57039	7	Sololá	717	San Juan la Laguna	12	San Juan la Laguna	5	Mayo	2023-05-31T00:00:00	2024-11-08T11:00:00	1	Precipitación	0
57040	7	Sololá	717	San Juan la Laguna	12	San Juan la Laguna	5	Mayo	2023-05-31T00:00:00	2024-11-08T11:00:00	8	Radiación solar	533
57041	7	Sololá	717	San Juan la Laguna	12	San Juan la Laguna	5	Mayo	2023-05-31T00:00:00	2024-11-08T12:00:00	2	Temperatura media	23.2
57042	7	Sololá	717	San Juan la Laguna	12	San Juan la Laguna	5	Mayo	2023-05-31T00:00:00	2024-11-08T12:00:00	4	Temperatura máxima	23.4
57043	7	Sololá	717	San Juan la Laguna	12	San Juan la Laguna	5	Mayo	2023-05-31T00:00:00	2024-11-08T12:00:00	3	Temperatura mínima	22.2
57044	7	Sololá	717	San Juan la Laguna	12	San Juan la Laguna	5	Mayo	2023-05-31T00:00:00	2024-11-08T12:00:00	5	Humedad	68
57045	7	Sololá	717	San Juan la Laguna	12	San Juan la Laguna	5	Mayo	2023-05-31T00:00:00	2024-11-08T12:00:00	6	Velocidad del viento	3.2
57046	7	Sololá	717	San Juan la Laguna	12	San Juan la Laguna	5	Mayo	2023-05-31T00:00:00	2024-11-08T12:00:00	7	Dirección del viento	3.22
57047	7	Sololá	717	San Juan la Laguna	12	San Juan la Laguna	5	Mayo	2023-05-31T00:00:00	2024-11-08T12:00:00	1	Precipitación	0
57048	7	Sololá	717	San Juan la Laguna	12	San Juan la Laguna	5	Mayo	2023-05-31T00:00:00	2024-11-08T12:00:00	8	Radiación solar	771
57049	7	Sololá	717	San Juan la Laguna	12	San Juan la Laguna	5	Mayo	2023-05-31T00:00:00	2024-11-08T13:00:00	2	Temperatura media	23.4
57050	7	Sololá	717	San Juan la Laguna	12	San Juan la Laguna	5	Mayo	2023-05-31T00:00:00	2024-11-08T13:00:00	4	Temperatura máxima	23.8
57051	7	Sololá	717	San Juan la Laguna	12	San Juan la Laguna	5	Mayo	2023-05-31T00:00:00	2024-11-08T13:00:00	3	Temperatura mínima	22.7
57052	7	Sololá	717	San Juan la Laguna	12	San Juan la Laguna	5	Mayo	2023-05-31T00:00:00	2024-11-08T13:00:00	5	Humedad	69
57053	7	Sololá	717	San Juan la Laguna	12	San Juan la Laguna	5	Mayo	2023-05-31T00:00:00	2024-11-08T13:00:00	6	Velocidad del viento	1.6
57054	7	Sololá	717	San Juan la Laguna	12	San Juan la Laguna	5	Mayo	2023-05-31T00:00:00	2024-11-08T13:00:00	7	Dirección del viento	1.61
57055	7	Sololá	717	San Juan la Laguna	12	San Juan la Laguna	5	Mayo	2023-05-31T00:00:00	2024-11-08T13:00:00	1	Precipitación	0
57056	7	Sololá	717	San Juan la Laguna	12	San Juan la Laguna	5	Mayo	2023-05-31T00:00:00	2024-11-08T13:00:00	8	Radiación solar	661
57057	7	Sololá	717	San Juan la Laguna	12	San Juan la Laguna	5	Mayo	2023-05-31T00:00:00	2024-11-08T14:00:00	2	Temperatura media	22.6
57058	7	Sololá	717	San Juan la Laguna	12	San Juan la Laguna	5	Mayo	2023-05-31T00:00:00	2024-11-08T14:00:00	4	Temperatura máxima	23.4
57059	7	Sololá	717	San Juan la Laguna	12	San Juan la Laguna	5	Mayo	2023-05-31T00:00:00	2024-11-08T14:00:00	3	Temperatura mínima	22.3
57060	7	Sololá	717	San Juan la Laguna	12	San Juan la Laguna	5	Mayo	2023-05-31T00:00:00	2024-11-08T14:00:00	5	Humedad	74
57061	7	Sololá	717	San Juan la Laguna	12	San Juan la Laguna	5	Mayo	2023-05-31T00:00:00	2024-11-08T14:00:00	6	Velocidad del viento	3.2
57062	7	Sololá	717	San Juan la Laguna	12	San Juan la Laguna	5	Mayo	2023-05-31T00:00:00	2024-11-08T14:00:00	7	Dirección del viento	3.22
57063	7	Sololá	717	San Juan la Laguna	12	San Juan la Laguna	5	Mayo	2023-05-31T00:00:00	2024-11-08T14:00:00	1	Precipitación	0
57064	7	Sololá	717	San Juan la Laguna	12	San Juan la Laguna	5	Mayo	2023-05-31T00:00:00	2024-11-08T14:00:00	8	Radiación solar	423
57065	7	Sololá	717	San Juan la Laguna	12	San Juan la Laguna	5	Mayo	2023-05-31T00:00:00	2024-11-08T15:00:00	2	Temperatura media	21.4
57066	7	Sololá	717	San Juan la Laguna	12	San Juan la Laguna	5	Mayo	2023-05-31T00:00:00	2024-11-08T15:00:00	4	Temperatura máxima	22.9
57067	7	Sololá	717	San Juan la Laguna	12	San Juan la Laguna	5	Mayo	2023-05-31T00:00:00	2024-11-08T15:00:00	3	Temperatura mínima	21.3
57068	7	Sololá	717	San Juan la Laguna	12	San Juan la Laguna	5	Mayo	2023-05-31T00:00:00	2024-11-08T15:00:00	5	Humedad	78
57069	7	Sololá	717	San Juan la Laguna	12	San Juan la Laguna	5	Mayo	2023-05-31T00:00:00	2024-11-08T15:00:00	6	Velocidad del viento	4.8
57070	7	Sololá	717	San Juan la Laguna	12	San Juan la Laguna	5	Mayo	2023-05-31T00:00:00	2024-11-08T15:00:00	7	Dirección del viento	4.83
57071	7	Sololá	717	San Juan la Laguna	12	San Juan la Laguna	5	Mayo	2023-05-31T00:00:00	2024-11-08T15:00:00	1	Precipitación	0
57072	7	Sololá	717	San Juan la Laguna	12	San Juan la Laguna	5	Mayo	2023-05-31T00:00:00	2024-11-08T15:00:00	8	Radiación solar	290
57073	7	Sololá	717	San Juan la Laguna	12	San Juan la Laguna	5	Mayo	2023-05-31T00:00:00	2024-11-08T16:00:00	2	Temperatura media	19.7
57074	7	Sololá	717	San Juan la Laguna	12	San Juan la Laguna	5	Mayo	2023-05-31T00:00:00	2024-11-08T16:00:00	4	Temperatura máxima	21.4
57075	7	Sololá	717	San Juan la Laguna	12	San Juan la Laguna	5	Mayo	2023-05-31T00:00:00	2024-11-08T16:00:00	3	Temperatura mínima	19.7
57076	7	Sololá	717	San Juan la Laguna	12	San Juan la Laguna	5	Mayo	2023-05-31T00:00:00	2024-11-08T16:00:00	5	Humedad	86
57077	7	Sololá	717	San Juan la Laguna	12	San Juan la Laguna	5	Mayo	2023-05-31T00:00:00	2024-11-08T16:00:00	6	Velocidad del viento	4.8
57078	7	Sololá	717	San Juan la Laguna	12	San Juan la Laguna	5	Mayo	2023-05-31T00:00:00	2024-11-08T16:00:00	7	Dirección del viento	4.83
57079	7	Sololá	717	San Juan la Laguna	12	San Juan la Laguna	5	Mayo	2023-05-31T00:00:00	2024-11-08T16:00:00	1	Precipitación	0.2
57080	7	Sololá	717	San Juan la Laguna	12	San Juan la Laguna	5	Mayo	2023-05-31T00:00:00	2024-11-08T16:00:00	8	Radiación solar	82
57081	7	Sololá	717	San Juan la Laguna	12	San Juan la Laguna	5	Mayo	2023-05-31T00:00:00	2024-11-08T17:00:00	2	Temperatura media	19.3
57082	7	Sololá	717	San Juan la Laguna	12	San Juan la Laguna	5	Mayo	2023-05-31T00:00:00	2024-11-08T17:00:00	4	Temperatura máxima	19.7
57083	7	Sololá	717	San Juan la Laguna	12	San Juan la Laguna	5	Mayo	2023-05-31T00:00:00	2024-11-08T17:00:00	3	Temperatura mínima	19.2
57084	7	Sololá	717	San Juan la Laguna	12	San Juan la Laguna	5	Mayo	2023-05-31T00:00:00	2024-11-08T17:00:00	5	Humedad	87
57085	7	Sololá	717	San Juan la Laguna	12	San Juan la Laguna	5	Mayo	2023-05-31T00:00:00	2024-11-08T17:00:00	6	Velocidad del viento	3.2
57086	7	Sololá	717	San Juan la Laguna	12	San Juan la Laguna	5	Mayo	2023-05-31T00:00:00	2024-11-08T17:00:00	7	Dirección del viento	3.22
57087	7	Sololá	717	San Juan la Laguna	12	San Juan la Laguna	5	Mayo	2023-05-31T00:00:00	2024-11-08T17:00:00	1	Precipitación	0
57088	7	Sololá	717	San Juan la Laguna	12	San Juan la Laguna	5	Mayo	2023-05-31T00:00:00	2024-11-08T17:00:00	8	Radiación solar	25
57089	7	Sololá	717	San Juan la Laguna	12	San Juan la Laguna	5	Mayo	2023-05-31T00:00:00	2024-11-08T18:00:00	2	Temperatura media	18.7
57090	7	Sololá	717	San Juan la Laguna	12	San Juan la Laguna	5	Mayo	2023-05-31T00:00:00	2024-11-08T18:00:00	4	Temperatura máxima	19.6
57091	7	Sololá	717	San Juan la Laguna	12	San Juan la Laguna	5	Mayo	2023-05-31T00:00:00	2024-11-08T18:00:00	3	Temperatura mínima	18.7
57092	7	Sololá	717	San Juan la Laguna	12	San Juan la Laguna	5	Mayo	2023-05-31T00:00:00	2024-11-08T18:00:00	5	Humedad	91
57093	7	Sololá	717	San Juan la Laguna	12	San Juan la Laguna	5	Mayo	2023-05-31T00:00:00	2024-11-08T18:00:00	6	Velocidad del viento	4.8
57094	7	Sololá	717	San Juan la Laguna	12	San Juan la Laguna	5	Mayo	2023-05-31T00:00:00	2024-11-08T18:00:00	7	Dirección del viento	4.83
57095	7	Sololá	717	San Juan la Laguna	12	San Juan la Laguna	5	Mayo	2023-05-31T00:00:00	2024-11-08T18:00:00	1	Precipitación	1.4
57096	7	Sololá	717	San Juan la Laguna	12	San Juan la Laguna	5	Mayo	2023-05-31T00:00:00	2024-11-08T18:00:00	8	Radiación solar	14
57097	7	Sololá	717	San Juan la Laguna	12	San Juan la Laguna	5	Mayo	2023-05-31T00:00:00	2024-11-08T19:00:00	2	Temperatura media	18.4
57098	7	Sololá	717	San Juan la Laguna	12	San Juan la Laguna	5	Mayo	2023-05-31T00:00:00	2024-11-08T19:00:00	4	Temperatura máxima	18.8
57099	7	Sololá	717	San Juan la Laguna	12	San Juan la Laguna	5	Mayo	2023-05-31T00:00:00	2024-11-08T19:00:00	3	Temperatura mínima	18.4
57100	7	Sololá	717	San Juan la Laguna	12	San Juan la Laguna	5	Mayo	2023-05-31T00:00:00	2024-11-08T19:00:00	5	Humedad	91
57101	7	Sololá	717	San Juan la Laguna	12	San Juan la Laguna	5	Mayo	2023-05-31T00:00:00	2024-11-08T19:00:00	6	Velocidad del viento	1.6
57102	7	Sololá	717	San Juan la Laguna	12	San Juan la Laguna	5	Mayo	2023-05-31T00:00:00	2024-11-08T19:00:00	7	Dirección del viento	1.61
57103	7	Sololá	717	San Juan la Laguna	12	San Juan la Laguna	5	Mayo	2023-05-31T00:00:00	2024-11-08T19:00:00	1	Precipitación	0.2
57104	7	Sololá	717	San Juan la Laguna	12	San Juan la Laguna	5	Mayo	2023-05-31T00:00:00	2024-11-08T19:00:00	8	Radiación solar	0
57105	7	Sololá	717	San Juan la Laguna	12	San Juan la Laguna	5	Mayo	2023-05-31T00:00:00	2024-11-08T20:00:00	2	Temperatura media	17.6
57106	7	Sololá	717	San Juan la Laguna	12	San Juan la Laguna	5	Mayo	2023-05-31T00:00:00	2024-11-08T20:00:00	4	Temperatura máxima	18.4
57107	7	Sololá	717	San Juan la Laguna	12	San Juan la Laguna	5	Mayo	2023-05-31T00:00:00	2024-11-08T20:00:00	3	Temperatura mínima	17.6
57108	7	Sololá	717	San Juan la Laguna	12	San Juan la Laguna	5	Mayo	2023-05-31T00:00:00	2024-11-08T20:00:00	5	Humedad	90
57109	7	Sololá	717	San Juan la Laguna	12	San Juan la Laguna	5	Mayo	2023-05-31T00:00:00	2024-11-08T20:00:00	6	Velocidad del viento	1.6
57110	7	Sololá	717	San Juan la Laguna	12	San Juan la Laguna	5	Mayo	2023-05-31T00:00:00	2024-11-08T20:00:00	7	Dirección del viento	1.61
57111	7	Sololá	717	San Juan la Laguna	12	San Juan la Laguna	5	Mayo	2023-05-31T00:00:00	2024-11-08T20:00:00	1	Precipitación	0
57112	7	Sololá	717	San Juan la Laguna	12	San Juan la Laguna	5	Mayo	2023-05-31T00:00:00	2024-11-08T20:00:00	8	Radiación solar	0
57113	7	Sololá	717	San Juan la Laguna	12	San Juan la Laguna	5	Mayo	2023-05-31T00:00:00	2024-11-08T21:00:00	2	Temperatura media	17.3
57114	7	Sololá	717	San Juan la Laguna	12	San Juan la Laguna	5	Mayo	2023-05-31T00:00:00	2024-11-08T21:00:00	4	Temperatura máxima	17.6
57115	7	Sololá	717	San Juan la Laguna	12	San Juan la Laguna	5	Mayo	2023-05-31T00:00:00	2024-11-08T21:00:00	3	Temperatura mínima	17.3
57116	7	Sololá	717	San Juan la Laguna	12	San Juan la Laguna	5	Mayo	2023-05-31T00:00:00	2024-11-08T21:00:00	5	Humedad	89
57117	7	Sololá	717	San Juan la Laguna	12	San Juan la Laguna	5	Mayo	2023-05-31T00:00:00	2024-11-08T21:00:00	6	Velocidad del viento	4.8
57118	7	Sololá	717	San Juan la Laguna	12	San Juan la Laguna	5	Mayo	2023-05-31T00:00:00	2024-11-08T21:00:00	7	Dirección del viento	4.83
57119	7	Sololá	717	San Juan la Laguna	12	San Juan la Laguna	5	Mayo	2023-05-31T00:00:00	2024-11-08T21:00:00	1	Precipitación	0
57120	7	Sololá	717	San Juan la Laguna	12	San Juan la Laguna	5	Mayo	2023-05-31T00:00:00	2024-11-08T21:00:00	8	Radiación solar	0
57121	7	Sololá	717	San Juan la Laguna	12	San Juan la Laguna	5	Mayo	2023-05-31T00:00:00	2024-11-08T22:00:00	2	Temperatura media	17.2
57122	7	Sololá	717	San Juan la Laguna	12	San Juan la Laguna	5	Mayo	2023-05-31T00:00:00	2024-11-08T22:00:00	4	Temperatura máxima	17.3
57123	7	Sololá	717	San Juan la Laguna	12	San Juan la Laguna	5	Mayo	2023-05-31T00:00:00	2024-11-08T22:00:00	3	Temperatura mínima	17.1
57124	7	Sololá	717	San Juan la Laguna	12	San Juan la Laguna	5	Mayo	2023-05-31T00:00:00	2024-11-08T22:00:00	5	Humedad	90
57125	7	Sololá	717	San Juan la Laguna	12	San Juan la Laguna	5	Mayo	2023-05-31T00:00:00	2024-11-08T22:00:00	6	Velocidad del viento	1.6
57126	7	Sololá	717	San Juan la Laguna	12	San Juan la Laguna	5	Mayo	2023-05-31T00:00:00	2024-11-08T22:00:00	7	Dirección del viento	1.61
57127	7	Sololá	717	San Juan la Laguna	12	San Juan la Laguna	5	Mayo	2023-05-31T00:00:00	2024-11-08T22:00:00	1	Precipitación	0
57128	7	Sololá	717	San Juan la Laguna	12	San Juan la Laguna	5	Mayo	2023-05-31T00:00:00	2024-11-08T22:00:00	8	Radiación solar	0
57129	7	Sololá	717	San Juan la Laguna	12	San Juan la Laguna	5	Mayo	2023-05-31T00:00:00	2024-11-08T23:00:00	2	Temperatura media	17.7
57130	7	Sololá	717	San Juan la Laguna	12	San Juan la Laguna	5	Mayo	2023-05-31T00:00:00	2024-11-08T23:00:00	4	Temperatura máxima	17.7
57131	7	Sololá	717	San Juan la Laguna	12	San Juan la Laguna	5	Mayo	2023-05-31T00:00:00	2024-11-08T23:00:00	3	Temperatura mínima	17.2
57132	7	Sololá	717	San Juan la Laguna	12	San Juan la Laguna	5	Mayo	2023-05-31T00:00:00	2024-11-08T23:00:00	5	Humedad	90
57133	7	Sololá	717	San Juan la Laguna	12	San Juan la Laguna	5	Mayo	2023-05-31T00:00:00	2024-11-08T23:00:00	6	Velocidad del viento	1.6
57134	7	Sololá	717	San Juan la Laguna	12	San Juan la Laguna	5	Mayo	2023-05-31T00:00:00	2024-11-08T23:00:00	7	Dirección del viento	1.61
57135	7	Sololá	717	San Juan la Laguna	12	San Juan la Laguna	5	Mayo	2023-05-31T00:00:00	2024-11-08T23:00:00	1	Precipitación	0
57136	7	Sololá	717	San Juan la Laguna	12	San Juan la Laguna	5	Mayo	2023-05-31T00:00:00	2024-11-08T23:00:00	8	Radiación solar	0
57137	7	Sololá	717	San Juan la Laguna	12	San Juan la Laguna	6	Junio	2023-01-06T00:00:00	2024-11-08T00:00:00	2	Temperatura media	18.3
57138	7	Sololá	717	San Juan la Laguna	12	San Juan la Laguna	6	Junio	2023-01-06T00:00:00	2024-11-08T00:00:00	4	Temperatura máxima	18.3
57139	7	Sololá	717	San Juan la Laguna	12	San Juan la Laguna	6	Junio	2023-01-06T00:00:00	2024-11-08T00:00:00	3	Temperatura mínima	17.7
57140	7	Sololá	717	San Juan la Laguna	12	San Juan la Laguna	6	Junio	2023-01-06T00:00:00	2024-11-08T00:00:00	5	Humedad	87
57141	7	Sololá	717	San Juan la Laguna	12	San Juan la Laguna	6	Junio	2023-01-06T00:00:00	2024-11-08T00:00:00	6	Velocidad del viento	3.2
57142	7	Sololá	717	San Juan la Laguna	12	San Juan la Laguna	6	Junio	2023-01-06T00:00:00	2024-11-08T00:00:00	7	Dirección del viento	3.22
57143	7	Sololá	717	San Juan la Laguna	12	San Juan la Laguna	6	Junio	2023-01-06T00:00:00	2024-11-08T00:00:00	1	Precipitación	0
57144	7	Sololá	717	San Juan la Laguna	12	San Juan la Laguna	6	Junio	2023-01-06T00:00:00	2024-11-08T00:00:00	8	Radiación solar	0
57145	7	Sololá	717	San Juan la Laguna	12	San Juan la Laguna	6	Junio	2023-01-06T00:00:00	2024-11-08T01:00:00	2	Temperatura media	17.4
57146	7	Sololá	717	San Juan la Laguna	12	San Juan la Laguna	6	Junio	2023-01-06T00:00:00	2024-11-08T01:00:00	4	Temperatura máxima	18.3
57147	7	Sololá	717	San Juan la Laguna	12	San Juan la Laguna	6	Junio	2023-01-06T00:00:00	2024-11-08T01:00:00	3	Temperatura mínima	17.3
57148	7	Sololá	717	San Juan la Laguna	12	San Juan la Laguna	6	Junio	2023-01-06T00:00:00	2024-11-08T01:00:00	5	Humedad	90
57149	7	Sololá	717	San Juan la Laguna	12	San Juan la Laguna	6	Junio	2023-01-06T00:00:00	2024-11-08T01:00:00	6	Velocidad del viento	1.6
57150	7	Sololá	717	San Juan la Laguna	12	San Juan la Laguna	6	Junio	2023-01-06T00:00:00	2024-11-08T01:00:00	7	Dirección del viento	1.61
57151	7	Sololá	717	San Juan la Laguna	12	San Juan la Laguna	6	Junio	2023-01-06T00:00:00	2024-11-08T01:00:00	1	Precipitación	0
57152	7	Sololá	717	San Juan la Laguna	12	San Juan la Laguna	6	Junio	2023-01-06T00:00:00	2024-11-08T01:00:00	8	Radiación solar	0
57153	7	Sololá	717	San Juan la Laguna	12	San Juan la Laguna	6	Junio	2023-01-06T00:00:00	2024-11-08T02:00:00	2	Temperatura media	16.9
57154	7	Sololá	717	San Juan la Laguna	12	San Juan la Laguna	6	Junio	2023-01-06T00:00:00	2024-11-08T02:00:00	4	Temperatura máxima	17.4
57155	7	Sololá	717	San Juan la Laguna	12	San Juan la Laguna	6	Junio	2023-01-06T00:00:00	2024-11-08T02:00:00	3	Temperatura mínima	16.8
57156	7	Sololá	717	San Juan la Laguna	12	San Juan la Laguna	6	Junio	2023-01-06T00:00:00	2024-11-08T02:00:00	5	Humedad	91
57157	7	Sololá	717	San Juan la Laguna	12	San Juan la Laguna	6	Junio	2023-01-06T00:00:00	2024-11-08T02:00:00	6	Velocidad del viento	1.6
57158	7	Sololá	717	San Juan la Laguna	12	San Juan la Laguna	6	Junio	2023-01-06T00:00:00	2024-11-08T02:00:00	7	Dirección del viento	1.61
57159	7	Sololá	717	San Juan la Laguna	12	San Juan la Laguna	6	Junio	2023-01-06T00:00:00	2024-11-08T02:00:00	1	Precipitación	0
57160	7	Sololá	717	San Juan la Laguna	12	San Juan la Laguna	6	Junio	2023-01-06T00:00:00	2024-11-08T02:00:00	8	Radiación solar	0
57161	7	Sololá	717	San Juan la Laguna	12	San Juan la Laguna	6	Junio	2023-01-06T00:00:00	2024-11-08T03:00:00	2	Temperatura media	16.8
57162	7	Sololá	717	San Juan la Laguna	12	San Juan la Laguna	6	Junio	2023-01-06T00:00:00	2024-11-08T03:00:00	4	Temperatura máxima	16.9
57163	7	Sololá	717	San Juan la Laguna	12	San Juan la Laguna	6	Junio	2023-01-06T00:00:00	2024-11-08T03:00:00	3	Temperatura mínima	16.7
57164	7	Sololá	717	San Juan la Laguna	12	San Juan la Laguna	6	Junio	2023-01-06T00:00:00	2024-11-08T03:00:00	5	Humedad	91
57165	7	Sololá	717	San Juan la Laguna	12	San Juan la Laguna	6	Junio	2023-01-06T00:00:00	2024-11-08T03:00:00	6	Velocidad del viento	1.6
57166	7	Sololá	717	San Juan la Laguna	12	San Juan la Laguna	6	Junio	2023-01-06T00:00:00	2024-11-08T03:00:00	7	Dirección del viento	1.61
57167	7	Sololá	717	San Juan la Laguna	12	San Juan la Laguna	6	Junio	2023-01-06T00:00:00	2024-11-08T03:00:00	1	Precipitación	0
57168	7	Sololá	717	San Juan la Laguna	12	San Juan la Laguna	6	Junio	2023-01-06T00:00:00	2024-11-08T03:00:00	8	Radiación solar	0
57169	7	Sololá	717	San Juan la Laguna	12	San Juan la Laguna	6	Junio	2023-01-06T00:00:00	2024-11-08T04:00:00	2	Temperatura media	16.7
57170	7	Sololá	717	San Juan la Laguna	12	San Juan la Laguna	6	Junio	2023-01-06T00:00:00	2024-11-08T04:00:00	4	Temperatura máxima	16.8
57171	7	Sololá	717	San Juan la Laguna	12	San Juan la Laguna	6	Junio	2023-01-06T00:00:00	2024-11-08T04:00:00	3	Temperatura mínima	16.6
57172	7	Sololá	717	San Juan la Laguna	12	San Juan la Laguna	6	Junio	2023-01-06T00:00:00	2024-11-08T04:00:00	5	Humedad	90
57173	7	Sololá	717	San Juan la Laguna	12	San Juan la Laguna	6	Junio	2023-01-06T00:00:00	2024-11-08T04:00:00	6	Velocidad del viento	3.2
57174	7	Sololá	717	San Juan la Laguna	12	San Juan la Laguna	6	Junio	2023-01-06T00:00:00	2024-11-08T04:00:00	7	Dirección del viento	3.22
57175	7	Sololá	717	San Juan la Laguna	12	San Juan la Laguna	6	Junio	2023-01-06T00:00:00	2024-11-08T04:00:00	1	Precipitación	0
57176	7	Sololá	717	San Juan la Laguna	12	San Juan la Laguna	6	Junio	2023-01-06T00:00:00	2024-11-08T04:00:00	8	Radiación solar	0
57177	7	Sololá	717	San Juan la Laguna	12	San Juan la Laguna	6	Junio	2023-01-06T00:00:00	2024-11-08T05:00:00	2	Temperatura media	16.8
57178	7	Sololá	717	San Juan la Laguna	12	San Juan la Laguna	6	Junio	2023-01-06T00:00:00	2024-11-08T05:00:00	4	Temperatura máxima	17.5
57179	7	Sololá	717	San Juan la Laguna	12	San Juan la Laguna	6	Junio	2023-01-06T00:00:00	2024-11-08T05:00:00	3	Temperatura mínima	16.7
57180	7	Sololá	717	San Juan la Laguna	12	San Juan la Laguna	6	Junio	2023-01-06T00:00:00	2024-11-08T05:00:00	5	Humedad	89
57181	7	Sololá	717	San Juan la Laguna	12	San Juan la Laguna	6	Junio	2023-01-06T00:00:00	2024-11-08T05:00:00	6	Velocidad del viento	4.8
57182	7	Sololá	717	San Juan la Laguna	12	San Juan la Laguna	6	Junio	2023-01-06T00:00:00	2024-11-08T05:00:00	7	Dirección del viento	4.83
57183	7	Sololá	717	San Juan la Laguna	12	San Juan la Laguna	6	Junio	2023-01-06T00:00:00	2024-11-08T05:00:00	1	Precipitación	0
57184	7	Sololá	717	San Juan la Laguna	12	San Juan la Laguna	6	Junio	2023-01-06T00:00:00	2024-11-08T05:00:00	8	Radiación solar	0
57185	7	Sololá	717	San Juan la Laguna	12	San Juan la Laguna	6	Junio	2023-01-06T00:00:00	2024-11-08T06:00:00	2	Temperatura media	16.3
57186	7	Sololá	717	San Juan la Laguna	12	San Juan la Laguna	6	Junio	2023-01-06T00:00:00	2024-11-08T06:00:00	4	Temperatura máxima	16.8
57187	7	Sololá	717	San Juan la Laguna	12	San Juan la Laguna	6	Junio	2023-01-06T00:00:00	2024-11-08T06:00:00	3	Temperatura mínima	16
57188	7	Sololá	717	San Juan la Laguna	12	San Juan la Laguna	6	Junio	2023-01-06T00:00:00	2024-11-08T06:00:00	5	Humedad	91
57189	7	Sololá	717	San Juan la Laguna	12	San Juan la Laguna	6	Junio	2023-01-06T00:00:00	2024-11-08T06:00:00	6	Velocidad del viento	1.6
57190	7	Sololá	717	San Juan la Laguna	12	San Juan la Laguna	6	Junio	2023-01-06T00:00:00	2024-11-08T06:00:00	7	Dirección del viento	1.61
57191	7	Sololá	717	San Juan la Laguna	12	San Juan la Laguna	6	Junio	2023-01-06T00:00:00	2024-11-08T06:00:00	1	Precipitación	0
57192	7	Sololá	717	San Juan la Laguna	12	San Juan la Laguna	6	Junio	2023-01-06T00:00:00	2024-11-08T06:00:00	8	Radiación solar	4
57193	7	Sololá	717	San Juan la Laguna	12	San Juan la Laguna	6	Junio	2023-01-06T00:00:00	2024-11-08T07:00:00	2	Temperatura media	17.9
57194	7	Sololá	717	San Juan la Laguna	12	San Juan la Laguna	6	Junio	2023-01-06T00:00:00	2024-11-08T07:00:00	4	Temperatura máxima	17.9
57195	7	Sololá	717	San Juan la Laguna	12	San Juan la Laguna	6	Junio	2023-01-06T00:00:00	2024-11-08T07:00:00	3	Temperatura mínima	16.3
57196	7	Sololá	717	San Juan la Laguna	12	San Juan la Laguna	6	Junio	2023-01-06T00:00:00	2024-11-08T07:00:00	5	Humedad	88
57197	7	Sololá	717	San Juan la Laguna	12	San Juan la Laguna	6	Junio	2023-01-06T00:00:00	2024-11-08T07:00:00	6	Velocidad del viento	1.6
57198	7	Sololá	717	San Juan la Laguna	12	San Juan la Laguna	6	Junio	2023-01-06T00:00:00	2024-11-08T07:00:00	7	Dirección del viento	1.61
57199	7	Sololá	717	San Juan la Laguna	12	San Juan la Laguna	6	Junio	2023-01-06T00:00:00	2024-11-08T07:00:00	1	Precipitación	0
57200	7	Sololá	717	San Juan la Laguna	12	San Juan la Laguna	6	Junio	2023-01-06T00:00:00	2024-11-08T07:00:00	8	Radiación solar	70
57201	7	Sololá	717	San Juan la Laguna	12	San Juan la Laguna	6	Junio	2023-01-06T00:00:00	2024-11-08T08:00:00	2	Temperatura media	21
57202	7	Sololá	717	San Juan la Laguna	12	San Juan la Laguna	6	Junio	2023-01-06T00:00:00	2024-11-08T08:00:00	4	Temperatura máxima	21
57203	7	Sololá	717	San Juan la Laguna	12	San Juan la Laguna	6	Junio	2023-01-06T00:00:00	2024-11-08T08:00:00	3	Temperatura mínima	17.9
57204	7	Sololá	717	San Juan la Laguna	12	San Juan la Laguna	6	Junio	2023-01-06T00:00:00	2024-11-08T08:00:00	5	Humedad	79
57205	7	Sololá	717	San Juan la Laguna	12	San Juan la Laguna	6	Junio	2023-01-06T00:00:00	2024-11-08T08:00:00	6	Velocidad del viento	1.6
57206	7	Sololá	717	San Juan la Laguna	12	San Juan la Laguna	6	Junio	2023-01-06T00:00:00	2024-11-08T08:00:00	7	Dirección del viento	1.61
57207	7	Sololá	717	San Juan la Laguna	12	San Juan la Laguna	6	Junio	2023-01-06T00:00:00	2024-11-08T08:00:00	1	Precipitación	0
57208	7	Sololá	717	San Juan la Laguna	12	San Juan la Laguna	6	Junio	2023-01-06T00:00:00	2024-11-08T08:00:00	8	Radiación solar	273
57209	7	Sololá	717	San Juan la Laguna	12	San Juan la Laguna	6	Junio	2023-01-06T00:00:00	2024-11-08T09:00:00	2	Temperatura media	21.8
57210	7	Sololá	717	San Juan la Laguna	12	San Juan la Laguna	6	Junio	2023-01-06T00:00:00	2024-11-08T09:00:00	4	Temperatura máxima	22.1
57211	7	Sololá	717	San Juan la Laguna	12	San Juan la Laguna	6	Junio	2023-01-06T00:00:00	2024-11-08T09:00:00	3	Temperatura mínima	20.8
57212	7	Sololá	717	San Juan la Laguna	12	San Juan la Laguna	6	Junio	2023-01-06T00:00:00	2024-11-08T09:00:00	5	Humedad	75
57213	7	Sololá	717	San Juan la Laguna	12	San Juan la Laguna	6	Junio	2023-01-06T00:00:00	2024-11-08T09:00:00	6	Velocidad del viento	1.6
57214	7	Sololá	717	San Juan la Laguna	12	San Juan la Laguna	6	Junio	2023-01-06T00:00:00	2024-11-08T09:00:00	7	Dirección del viento	1.61
57215	7	Sololá	717	San Juan la Laguna	12	San Juan la Laguna	6	Junio	2023-01-06T00:00:00	2024-11-08T09:00:00	1	Precipitación	0
57216	7	Sololá	717	San Juan la Laguna	12	San Juan la Laguna	6	Junio	2023-01-06T00:00:00	2024-11-08T09:00:00	8	Radiación solar	533
57217	7	Sololá	717	San Juan la Laguna	12	San Juan la Laguna	6	Junio	2023-01-06T00:00:00	2024-11-08T10:00:00	2	Temperatura media	22.4
57218	7	Sololá	717	San Juan la Laguna	12	San Juan la Laguna	6	Junio	2023-01-06T00:00:00	2024-11-08T10:00:00	4	Temperatura máxima	22.4
57219	7	Sololá	717	San Juan la Laguna	12	San Juan la Laguna	6	Junio	2023-01-06T00:00:00	2024-11-08T10:00:00	3	Temperatura mínima	21.8
57220	7	Sololá	717	San Juan la Laguna	12	San Juan la Laguna	6	Junio	2023-01-06T00:00:00	2024-11-08T10:00:00	5	Humedad	72
57221	7	Sololá	717	San Juan la Laguna	12	San Juan la Laguna	6	Junio	2023-01-06T00:00:00	2024-11-08T10:00:00	6	Velocidad del viento	1.6
57222	7	Sololá	717	San Juan la Laguna	12	San Juan la Laguna	6	Junio	2023-01-06T00:00:00	2024-11-08T10:00:00	7	Dirección del viento	1.61
57223	7	Sololá	717	San Juan la Laguna	12	San Juan la Laguna	6	Junio	2023-01-06T00:00:00	2024-11-08T10:00:00	1	Precipitación	0
57224	7	Sololá	717	San Juan la Laguna	12	San Juan la Laguna	6	Junio	2023-01-06T00:00:00	2024-11-08T10:00:00	8	Radiación solar	718
57225	7	Sololá	717	San Juan la Laguna	12	San Juan la Laguna	6	Junio	2023-01-06T00:00:00	2024-11-08T11:00:00	2	Temperatura media	23.3
57226	7	Sololá	717	San Juan la Laguna	12	San Juan la Laguna	6	Junio	2023-01-06T00:00:00	2024-11-08T11:00:00	4	Temperatura máxima	23.6
57227	7	Sololá	717	San Juan la Laguna	12	San Juan la Laguna	6	Junio	2023-01-06T00:00:00	2024-11-08T11:00:00	3	Temperatura mínima	22.4
57228	7	Sololá	717	San Juan la Laguna	12	San Juan la Laguna	6	Junio	2023-01-06T00:00:00	2024-11-08T11:00:00	5	Humedad	72
57229	7	Sololá	717	San Juan la Laguna	12	San Juan la Laguna	6	Junio	2023-01-06T00:00:00	2024-11-08T11:00:00	6	Velocidad del viento	1.6
57230	7	Sololá	717	San Juan la Laguna	12	San Juan la Laguna	6	Junio	2023-01-06T00:00:00	2024-11-08T11:00:00	7	Dirección del viento	1.61
57231	7	Sololá	717	San Juan la Laguna	12	San Juan la Laguna	6	Junio	2023-01-06T00:00:00	2024-11-08T11:00:00	1	Precipitación	0
57232	7	Sololá	717	San Juan la Laguna	12	San Juan la Laguna	6	Junio	2023-01-06T00:00:00	2024-11-08T11:00:00	8	Radiación solar	862
57233	7	Sololá	717	San Juan la Laguna	12	San Juan la Laguna	6	Junio	2023-01-06T00:00:00	2024-11-08T12:00:00	2	Temperatura media	23.3
57234	7	Sololá	717	San Juan la Laguna	12	San Juan la Laguna	6	Junio	2023-01-06T00:00:00	2024-11-08T12:00:00	4	Temperatura máxima	24.2
57235	7	Sololá	717	San Juan la Laguna	12	San Juan la Laguna	6	Junio	2023-01-06T00:00:00	2024-11-08T12:00:00	3	Temperatura mínima	23.3
57236	7	Sololá	717	San Juan la Laguna	12	San Juan la Laguna	6	Junio	2023-01-06T00:00:00	2024-11-08T12:00:00	5	Humedad	71
57237	7	Sololá	717	San Juan la Laguna	12	San Juan la Laguna	6	Junio	2023-01-06T00:00:00	2024-11-08T12:00:00	6	Velocidad del viento	1.6
57238	7	Sololá	717	San Juan la Laguna	12	San Juan la Laguna	6	Junio	2023-01-06T00:00:00	2024-11-08T12:00:00	7	Dirección del viento	1.61
57239	7	Sololá	717	San Juan la Laguna	12	San Juan la Laguna	6	Junio	2023-01-06T00:00:00	2024-11-08T12:00:00	1	Precipitación	0
57240	7	Sololá	717	San Juan la Laguna	12	San Juan la Laguna	6	Junio	2023-01-06T00:00:00	2024-11-08T12:00:00	8	Radiación solar	790
57241	7	Sololá	717	San Juan la Laguna	12	San Juan la Laguna	6	Junio	2023-01-06T00:00:00	2024-11-08T13:00:00	2	Temperatura media	24
57242	7	Sololá	717	San Juan la Laguna	12	San Juan la Laguna	6	Junio	2023-01-06T00:00:00	2024-11-08T13:00:00	4	Temperatura máxima	24.3
57243	7	Sololá	717	San Juan la Laguna	12	San Juan la Laguna	6	Junio	2023-01-06T00:00:00	2024-11-08T13:00:00	3	Temperatura mínima	23.2
57244	7	Sololá	717	San Juan la Laguna	12	San Juan la Laguna	6	Junio	2023-01-06T00:00:00	2024-11-08T13:00:00	5	Humedad	68
57245	7	Sololá	717	San Juan la Laguna	12	San Juan la Laguna	6	Junio	2023-01-06T00:00:00	2024-11-08T13:00:00	6	Velocidad del viento	4.8
57246	7	Sololá	717	San Juan la Laguna	12	San Juan la Laguna	6	Junio	2023-01-06T00:00:00	2024-11-08T13:00:00	7	Dirección del viento	4.83
57247	7	Sololá	717	San Juan la Laguna	12	San Juan la Laguna	6	Junio	2023-01-06T00:00:00	2024-11-08T13:00:00	1	Precipitación	0
57248	7	Sololá	717	San Juan la Laguna	12	San Juan la Laguna	6	Junio	2023-01-06T00:00:00	2024-11-08T13:00:00	8	Radiación solar	934
57249	7	Sololá	717	San Juan la Laguna	12	San Juan la Laguna	6	Junio	2023-01-06T00:00:00	2024-11-08T14:00:00	2	Temperatura media	23.6
57250	7	Sololá	717	San Juan la Laguna	12	San Juan la Laguna	6	Junio	2023-01-06T00:00:00	2024-11-08T14:00:00	4	Temperatura máxima	24
57251	7	Sololá	717	San Juan la Laguna	12	San Juan la Laguna	6	Junio	2023-01-06T00:00:00	2024-11-08T14:00:00	3	Temperatura mínima	23
57252	7	Sololá	717	San Juan la Laguna	12	San Juan la Laguna	6	Junio	2023-01-06T00:00:00	2024-11-08T14:00:00	5	Humedad	72
57253	7	Sololá	717	San Juan la Laguna	12	San Juan la Laguna	6	Junio	2023-01-06T00:00:00	2024-11-08T14:00:00	6	Velocidad del viento	8
57254	7	Sololá	717	San Juan la Laguna	12	San Juan la Laguna	6	Junio	2023-01-06T00:00:00	2024-11-08T14:00:00	7	Dirección del viento	8.05
57255	7	Sololá	717	San Juan la Laguna	12	San Juan la Laguna	6	Junio	2023-01-06T00:00:00	2024-11-08T14:00:00	1	Precipitación	0
57256	7	Sololá	717	San Juan la Laguna	12	San Juan la Laguna	6	Junio	2023-01-06T00:00:00	2024-11-08T14:00:00	8	Radiación solar	898
57257	7	Sololá	717	San Juan la Laguna	12	San Juan la Laguna	6	Junio	2023-01-06T00:00:00	2024-11-08T15:00:00	2	Temperatura media	23.4
57258	7	Sololá	717	San Juan la Laguna	12	San Juan la Laguna	6	Junio	2023-01-06T00:00:00	2024-11-08T15:00:00	4	Temperatura máxima	23.7
57259	7	Sololá	717	San Juan la Laguna	12	San Juan la Laguna	6	Junio	2023-01-06T00:00:00	2024-11-08T15:00:00	3	Temperatura mínima	23.1
57260	7	Sololá	717	San Juan la Laguna	12	San Juan la Laguna	6	Junio	2023-01-06T00:00:00	2024-11-08T15:00:00	5	Humedad	71
57261	7	Sololá	717	San Juan la Laguna	12	San Juan la Laguna	6	Junio	2023-01-06T00:00:00	2024-11-08T15:00:00	6	Velocidad del viento	6.4
57262	7	Sololá	717	San Juan la Laguna	12	San Juan la Laguna	6	Junio	2023-01-06T00:00:00	2024-11-08T15:00:00	7	Dirección del viento	6.44
57263	7	Sololá	717	San Juan la Laguna	12	San Juan la Laguna	6	Junio	2023-01-06T00:00:00	2024-11-08T15:00:00	1	Precipitación	0
57264	7	Sololá	717	San Juan la Laguna	12	San Juan la Laguna	6	Junio	2023-01-06T00:00:00	2024-11-08T15:00:00	8	Radiación solar	733
57265	7	Sololá	717	San Juan la Laguna	12	San Juan la Laguna	6	Junio	2023-01-06T00:00:00	2024-11-08T16:00:00	2	Temperatura media	23.1
57266	7	Sololá	717	San Juan la Laguna	12	San Juan la Laguna	6	Junio	2023-01-06T00:00:00	2024-11-08T16:00:00	4	Temperatura máxima	23.6
57267	7	Sololá	717	San Juan la Laguna	12	San Juan la Laguna	6	Junio	2023-01-06T00:00:00	2024-11-08T16:00:00	3	Temperatura mínima	22.8
57268	7	Sololá	717	San Juan la Laguna	12	San Juan la Laguna	6	Junio	2023-01-06T00:00:00	2024-11-08T16:00:00	5	Humedad	73
57269	7	Sololá	717	San Juan la Laguna	12	San Juan la Laguna	6	Junio	2023-01-06T00:00:00	2024-11-08T16:00:00	6	Velocidad del viento	6.4
57270	7	Sololá	717	San Juan la Laguna	12	San Juan la Laguna	6	Junio	2023-01-06T00:00:00	2024-11-08T16:00:00	7	Dirección del viento	6.44
57271	7	Sololá	717	San Juan la Laguna	12	San Juan la Laguna	6	Junio	2023-01-06T00:00:00	2024-11-08T16:00:00	1	Precipitación	0
57272	7	Sololá	717	San Juan la Laguna	12	San Juan la Laguna	6	Junio	2023-01-06T00:00:00	2024-11-08T16:00:00	8	Radiación solar	527
57273	7	Sololá	717	San Juan la Laguna	12	San Juan la Laguna	6	Junio	2023-01-06T00:00:00	2024-11-08T17:00:00	2	Temperatura media	22.6
57274	7	Sololá	717	San Juan la Laguna	12	San Juan la Laguna	6	Junio	2023-01-06T00:00:00	2024-11-08T17:00:00	4	Temperatura máxima	23.1
57275	7	Sololá	717	San Juan la Laguna	12	San Juan la Laguna	6	Junio	2023-01-06T00:00:00	2024-11-08T17:00:00	3	Temperatura mínima	22.6
57276	7	Sololá	717	San Juan la Laguna	12	San Juan la Laguna	6	Junio	2023-01-06T00:00:00	2024-11-08T17:00:00	5	Humedad	76
57277	7	Sololá	717	San Juan la Laguna	12	San Juan la Laguna	6	Junio	2023-01-06T00:00:00	2024-11-08T17:00:00	6	Velocidad del viento	4.8
57278	7	Sololá	717	San Juan la Laguna	12	San Juan la Laguna	6	Junio	2023-01-06T00:00:00	2024-11-08T17:00:00	7	Dirección del viento	4.83
57279	7	Sololá	717	San Juan la Laguna	12	San Juan la Laguna	6	Junio	2023-01-06T00:00:00	2024-11-08T17:00:00	1	Precipitación	0
57280	7	Sololá	717	San Juan la Laguna	12	San Juan la Laguna	6	Junio	2023-01-06T00:00:00	2024-11-08T17:00:00	8	Radiación solar	315
57281	7	Sololá	717	San Juan la Laguna	12	San Juan la Laguna	6	Junio	2023-01-06T00:00:00	2024-11-08T18:00:00	2	Temperatura media	22.2
57282	7	Sololá	717	San Juan la Laguna	12	San Juan la Laguna	6	Junio	2023-01-06T00:00:00	2024-11-08T18:00:00	4	Temperatura máxima	22.6
57283	7	Sololá	717	San Juan la Laguna	12	San Juan la Laguna	6	Junio	2023-01-06T00:00:00	2024-11-08T18:00:00	3	Temperatura mínima	22
57284	7	Sololá	717	San Juan la Laguna	12	San Juan la Laguna	6	Junio	2023-01-06T00:00:00	2024-11-08T18:00:00	5	Humedad	78
57285	7	Sololá	717	San Juan la Laguna	12	San Juan la Laguna	6	Junio	2023-01-06T00:00:00	2024-11-08T18:00:00	6	Velocidad del viento	3.2
57286	7	Sololá	717	San Juan la Laguna	12	San Juan la Laguna	6	Junio	2023-01-06T00:00:00	2024-11-08T18:00:00	7	Dirección del viento	3.22
57287	7	Sololá	717	San Juan la Laguna	12	San Juan la Laguna	6	Junio	2023-01-06T00:00:00	2024-11-08T18:00:00	1	Precipitación	0
57288	7	Sololá	717	San Juan la Laguna	12	San Juan la Laguna	6	Junio	2023-01-06T00:00:00	2024-11-08T18:00:00	8	Radiación solar	112
57289	7	Sololá	717	San Juan la Laguna	12	San Juan la Laguna	6	Junio	2023-01-06T00:00:00	2024-11-08T19:00:00	2	Temperatura media	21.4
57290	7	Sololá	717	San Juan la Laguna	12	San Juan la Laguna	6	Junio	2023-01-06T00:00:00	2024-11-08T19:00:00	4	Temperatura máxima	22.2
57291	7	Sololá	717	San Juan la Laguna	12	San Juan la Laguna	6	Junio	2023-01-06T00:00:00	2024-11-08T19:00:00	3	Temperatura mínima	21.4
57292	7	Sololá	717	San Juan la Laguna	12	San Juan la Laguna	6	Junio	2023-01-06T00:00:00	2024-11-08T19:00:00	5	Humedad	83
57293	7	Sololá	717	San Juan la Laguna	12	San Juan la Laguna	6	Junio	2023-01-06T00:00:00	2024-11-08T19:00:00	6	Velocidad del viento	1.6
57294	7	Sololá	717	San Juan la Laguna	12	San Juan la Laguna	6	Junio	2023-01-06T00:00:00	2024-11-08T19:00:00	7	Dirección del viento	1.61
57295	7	Sololá	717	San Juan la Laguna	12	San Juan la Laguna	6	Junio	2023-01-06T00:00:00	2024-11-08T19:00:00	1	Precipitación	0
57296	7	Sololá	717	San Juan la Laguna	12	San Juan la Laguna	6	Junio	2023-01-06T00:00:00	2024-11-08T19:00:00	8	Radiación solar	0
57297	7	Sololá	717	San Juan la Laguna	12	San Juan la Laguna	6	Junio	2023-01-06T00:00:00	2024-11-08T20:00:00	2	Temperatura media	20.7
57298	7	Sololá	717	San Juan la Laguna	12	San Juan la Laguna	6	Junio	2023-01-06T00:00:00	2024-11-08T20:00:00	4	Temperatura máxima	21.4
57299	7	Sololá	717	San Juan la Laguna	12	San Juan la Laguna	6	Junio	2023-01-06T00:00:00	2024-11-08T20:00:00	3	Temperatura mínima	20.6
57300	7	Sololá	717	San Juan la Laguna	12	San Juan la Laguna	6	Junio	2023-01-06T00:00:00	2024-11-08T20:00:00	5	Humedad	86
57301	7	Sololá	717	San Juan la Laguna	12	San Juan la Laguna	6	Junio	2023-01-06T00:00:00	2024-11-08T20:00:00	6	Velocidad del viento	0
57302	7	Sololá	717	San Juan la Laguna	12	San Juan la Laguna	6	Junio	2023-01-06T00:00:00	2024-11-08T20:00:00	7	Dirección del viento	0
57303	7	Sololá	717	San Juan la Laguna	12	San Juan la Laguna	6	Junio	2023-01-06T00:00:00	2024-11-08T20:00:00	1	Precipitación	0
57304	7	Sololá	717	San Juan la Laguna	12	San Juan la Laguna	6	Junio	2023-01-06T00:00:00	2024-11-08T20:00:00	8	Radiación solar	0
57305	7	Sololá	717	San Juan la Laguna	12	San Juan la Laguna	6	Junio	2023-01-06T00:00:00	2024-11-08T21:00:00	2	Temperatura media	20.5
57306	7	Sololá	717	San Juan la Laguna	12	San Juan la Laguna	6	Junio	2023-01-06T00:00:00	2024-11-08T21:00:00	4	Temperatura máxima	20.7
57307	7	Sololá	717	San Juan la Laguna	12	San Juan la Laguna	6	Junio	2023-01-06T00:00:00	2024-11-08T21:00:00	3	Temperatura mínima	20.2
57308	7	Sololá	717	San Juan la Laguna	12	San Juan la Laguna	6	Junio	2023-01-06T00:00:00	2024-11-08T21:00:00	5	Humedad	87
57309	7	Sololá	717	San Juan la Laguna	12	San Juan la Laguna	6	Junio	2023-01-06T00:00:00	2024-11-08T21:00:00	6	Velocidad del viento	0
57310	7	Sololá	717	San Juan la Laguna	12	San Juan la Laguna	6	Junio	2023-01-06T00:00:00	2024-11-08T21:00:00	7	Dirección del viento	0
57311	7	Sololá	717	San Juan la Laguna	12	San Juan la Laguna	6	Junio	2023-01-06T00:00:00	2024-11-08T21:00:00	1	Precipitación	0
57312	7	Sololá	717	San Juan la Laguna	12	San Juan la Laguna	6	Junio	2023-01-06T00:00:00	2024-11-08T21:00:00	8	Radiación solar	0
57313	7	Sololá	717	San Juan la Laguna	12	San Juan la Laguna	6	Junio	2023-01-06T00:00:00	2024-11-08T22:00:00	2	Temperatura media	20.4
57314	7	Sololá	717	San Juan la Laguna	12	San Juan la Laguna	6	Junio	2023-01-06T00:00:00	2024-11-08T22:00:00	4	Temperatura máxima	20.6
57315	7	Sololá	717	San Juan la Laguna	12	San Juan la Laguna	6	Junio	2023-01-06T00:00:00	2024-11-08T22:00:00	3	Temperatura mínima	20.3
57316	7	Sololá	717	San Juan la Laguna	12	San Juan la Laguna	6	Junio	2023-01-06T00:00:00	2024-11-08T22:00:00	5	Humedad	88
57317	7	Sololá	717	San Juan la Laguna	12	San Juan la Laguna	6	Junio	2023-01-06T00:00:00	2024-11-08T22:00:00	6	Velocidad del viento	0
57318	7	Sololá	717	San Juan la Laguna	12	San Juan la Laguna	6	Junio	2023-01-06T00:00:00	2024-11-08T22:00:00	7	Dirección del viento	0
57319	7	Sololá	717	San Juan la Laguna	12	San Juan la Laguna	6	Junio	2023-01-06T00:00:00	2024-11-08T22:00:00	1	Precipitación	0
57320	7	Sololá	717	San Juan la Laguna	12	San Juan la Laguna	6	Junio	2023-01-06T00:00:00	2024-11-08T22:00:00	8	Radiación solar	0
57321	7	Sololá	717	San Juan la Laguna	12	San Juan la Laguna	6	Junio	2023-01-06T00:00:00	2024-11-08T23:00:00	2	Temperatura media	18.8
57322	7	Sololá	717	San Juan la Laguna	12	San Juan la Laguna	6	Junio	2023-01-06T00:00:00	2024-11-08T23:00:00	4	Temperatura máxima	20.4
57323	7	Sololá	717	San Juan la Laguna	12	San Juan la Laguna	6	Junio	2023-01-06T00:00:00	2024-11-08T23:00:00	3	Temperatura mínima	18.8
57324	7	Sololá	717	San Juan la Laguna	12	San Juan la Laguna	6	Junio	2023-01-06T00:00:00	2024-11-08T23:00:00	5	Humedad	92
57325	7	Sololá	717	San Juan la Laguna	12	San Juan la Laguna	6	Junio	2023-01-06T00:00:00	2024-11-08T23:00:00	6	Velocidad del viento	4.8
57326	7	Sololá	717	San Juan la Laguna	12	San Juan la Laguna	6	Junio	2023-01-06T00:00:00	2024-11-08T23:00:00	7	Dirección del viento	4.83
57327	7	Sololá	717	San Juan la Laguna	12	San Juan la Laguna	6	Junio	2023-01-06T00:00:00	2024-11-08T23:00:00	1	Precipitación	0
57328	7	Sololá	717	San Juan la Laguna	12	San Juan la Laguna	6	Junio	2023-01-06T00:00:00	2024-11-08T23:00:00	8	Radiación solar	0
57329	7	Sololá	717	San Juan la Laguna	12	San Juan la Laguna	6	Junio	2023-02-06T00:00:00	2024-11-08T00:00:00	2	Temperatura media	19.6
57330	7	Sololá	717	San Juan la Laguna	12	San Juan la Laguna	6	Junio	2023-02-06T00:00:00	2024-11-08T00:00:00	4	Temperatura máxima	19.6
57331	7	Sololá	717	San Juan la Laguna	12	San Juan la Laguna	6	Junio	2023-02-06T00:00:00	2024-11-08T00:00:00	3	Temperatura mínima	18.8
57332	7	Sololá	717	San Juan la Laguna	12	San Juan la Laguna	6	Junio	2023-02-06T00:00:00	2024-11-08T00:00:00	5	Humedad	88
57333	7	Sololá	717	San Juan la Laguna	12	San Juan la Laguna	6	Junio	2023-02-06T00:00:00	2024-11-08T00:00:00	6	Velocidad del viento	1.6
57334	7	Sololá	717	San Juan la Laguna	12	San Juan la Laguna	6	Junio	2023-02-06T00:00:00	2024-11-08T00:00:00	7	Dirección del viento	1.61
57335	7	Sololá	717	San Juan la Laguna	12	San Juan la Laguna	6	Junio	2023-02-06T00:00:00	2024-11-08T00:00:00	1	Precipitación	0
57336	7	Sololá	717	San Juan la Laguna	12	San Juan la Laguna	6	Junio	2023-02-06T00:00:00	2024-11-08T00:00:00	8	Radiación solar	0
57337	7	Sololá	717	San Juan la Laguna	12	San Juan la Laguna	6	Junio	2023-02-06T00:00:00	2024-11-08T01:00:00	2	Temperatura media	19.4
57338	7	Sololá	717	San Juan la Laguna	12	San Juan la Laguna	6	Junio	2023-02-06T00:00:00	2024-11-08T01:00:00	4	Temperatura máxima	19.6
57339	7	Sololá	717	San Juan la Laguna	12	San Juan la Laguna	6	Junio	2023-02-06T00:00:00	2024-11-08T01:00:00	3	Temperatura mínima	19.3
57340	7	Sololá	717	San Juan la Laguna	12	San Juan la Laguna	6	Junio	2023-02-06T00:00:00	2024-11-08T01:00:00	5	Humedad	88
57341	7	Sololá	717	San Juan la Laguna	12	San Juan la Laguna	6	Junio	2023-02-06T00:00:00	2024-11-08T01:00:00	6	Velocidad del viento	0
57342	7	Sololá	717	San Juan la Laguna	12	San Juan la Laguna	6	Junio	2023-02-06T00:00:00	2024-11-08T01:00:00	7	Dirección del viento	0
57343	7	Sololá	717	San Juan la Laguna	12	San Juan la Laguna	6	Junio	2023-02-06T00:00:00	2024-11-08T01:00:00	1	Precipitación	0
57344	7	Sololá	717	San Juan la Laguna	12	San Juan la Laguna	6	Junio	2023-02-06T00:00:00	2024-11-08T01:00:00	8	Radiación solar	0
57345	7	Sololá	717	San Juan la Laguna	12	San Juan la Laguna	6	Junio	2023-02-06T00:00:00	2024-11-08T02:00:00	2	Temperatura media	18.6
57346	7	Sololá	717	San Juan la Laguna	12	San Juan la Laguna	6	Junio	2023-02-06T00:00:00	2024-11-08T02:00:00	4	Temperatura máxima	19.4
57347	7	Sololá	717	San Juan la Laguna	12	San Juan la Laguna	6	Junio	2023-02-06T00:00:00	2024-11-08T02:00:00	3	Temperatura mínima	18.6
57348	7	Sololá	717	San Juan la Laguna	12	San Juan la Laguna	6	Junio	2023-02-06T00:00:00	2024-11-08T02:00:00	5	Humedad	91
57349	7	Sololá	717	San Juan la Laguna	12	San Juan la Laguna	6	Junio	2023-02-06T00:00:00	2024-11-08T02:00:00	6	Velocidad del viento	0
57350	7	Sololá	717	San Juan la Laguna	12	San Juan la Laguna	6	Junio	2023-02-06T00:00:00	2024-11-08T02:00:00	7	Dirección del viento	0
57351	7	Sololá	717	San Juan la Laguna	12	San Juan la Laguna	6	Junio	2023-02-06T00:00:00	2024-11-08T02:00:00	1	Precipitación	0
57352	7	Sololá	717	San Juan la Laguna	12	San Juan la Laguna	6	Junio	2023-02-06T00:00:00	2024-11-08T02:00:00	8	Radiación solar	0
57353	7	Sololá	717	San Juan la Laguna	12	San Juan la Laguna	6	Junio	2023-02-06T00:00:00	2024-11-08T03:00:00	2	Temperatura media	17.6
57354	7	Sololá	717	San Juan la Laguna	12	San Juan la Laguna	6	Junio	2023-02-06T00:00:00	2024-11-08T03:00:00	4	Temperatura máxima	18.6
57355	7	Sololá	717	San Juan la Laguna	12	San Juan la Laguna	6	Junio	2023-02-06T00:00:00	2024-11-08T03:00:00	3	Temperatura mínima	17.6
57356	7	Sololá	717	San Juan la Laguna	12	San Juan la Laguna	6	Junio	2023-02-06T00:00:00	2024-11-08T03:00:00	5	Humedad	89
57357	7	Sololá	717	San Juan la Laguna	12	San Juan la Laguna	6	Junio	2023-02-06T00:00:00	2024-11-08T03:00:00	6	Velocidad del viento	1.6
57358	7	Sololá	717	San Juan la Laguna	12	San Juan la Laguna	6	Junio	2023-02-06T00:00:00	2024-11-08T03:00:00	7	Dirección del viento	1.61
57359	7	Sololá	717	San Juan la Laguna	12	San Juan la Laguna	6	Junio	2023-02-06T00:00:00	2024-11-08T03:00:00	1	Precipitación	0
57360	7	Sololá	717	San Juan la Laguna	12	San Juan la Laguna	6	Junio	2023-02-06T00:00:00	2024-11-08T03:00:00	8	Radiación solar	0
57361	7	Sololá	717	San Juan la Laguna	12	San Juan la Laguna	6	Junio	2023-02-06T00:00:00	2024-11-08T04:00:00	2	Temperatura media	17.6
57362	7	Sololá	717	San Juan la Laguna	12	San Juan la Laguna	6	Junio	2023-02-06T00:00:00	2024-11-08T04:00:00	4	Temperatura máxima	17.7
57363	7	Sololá	717	San Juan la Laguna	12	San Juan la Laguna	6	Junio	2023-02-06T00:00:00	2024-11-08T04:00:00	3	Temperatura mínima	17.3
57364	7	Sololá	717	San Juan la Laguna	12	San Juan la Laguna	6	Junio	2023-02-06T00:00:00	2024-11-08T04:00:00	5	Humedad	88
57365	7	Sololá	717	San Juan la Laguna	12	San Juan la Laguna	6	Junio	2023-02-06T00:00:00	2024-11-08T04:00:00	6	Velocidad del viento	1.6
57366	7	Sololá	717	San Juan la Laguna	12	San Juan la Laguna	6	Junio	2023-02-06T00:00:00	2024-11-08T04:00:00	7	Dirección del viento	1.61
57367	7	Sololá	717	San Juan la Laguna	12	San Juan la Laguna	6	Junio	2023-02-06T00:00:00	2024-11-08T04:00:00	1	Precipitación	0
57368	7	Sololá	717	San Juan la Laguna	12	San Juan la Laguna	6	Junio	2023-02-06T00:00:00	2024-11-08T04:00:00	8	Radiación solar	0
57369	7	Sololá	717	San Juan la Laguna	12	San Juan la Laguna	6	Junio	2023-02-06T00:00:00	2024-11-08T05:00:00	2	Temperatura media	16.8
57370	7	Sololá	717	San Juan la Laguna	12	San Juan la Laguna	6	Junio	2023-02-06T00:00:00	2024-11-08T05:00:00	4	Temperatura máxima	17.6
57371	7	Sololá	717	San Juan la Laguna	12	San Juan la Laguna	6	Junio	2023-02-06T00:00:00	2024-11-08T05:00:00	3	Temperatura mínima	16.8
57372	7	Sololá	717	San Juan la Laguna	12	San Juan la Laguna	6	Junio	2023-02-06T00:00:00	2024-11-08T05:00:00	5	Humedad	87
57373	7	Sololá	717	San Juan la Laguna	12	San Juan la Laguna	6	Junio	2023-02-06T00:00:00	2024-11-08T05:00:00	6	Velocidad del viento	3.2
57374	7	Sololá	717	San Juan la Laguna	12	San Juan la Laguna	6	Junio	2023-02-06T00:00:00	2024-11-08T05:00:00	7	Dirección del viento	3.22
57375	7	Sololá	717	San Juan la Laguna	12	San Juan la Laguna	6	Junio	2023-02-06T00:00:00	2024-11-08T05:00:00	1	Precipitación	0
57376	7	Sololá	717	San Juan la Laguna	12	San Juan la Laguna	6	Junio	2023-02-06T00:00:00	2024-11-08T05:00:00	8	Radiación solar	0
57377	7	Sololá	717	San Juan la Laguna	12	San Juan la Laguna	6	Junio	2023-02-06T00:00:00	2024-11-08T06:00:00	2	Temperatura media	16.7
57378	7	Sololá	717	San Juan la Laguna	12	San Juan la Laguna	6	Junio	2023-02-06T00:00:00	2024-11-08T06:00:00	4	Temperatura máxima	16.9
57379	7	Sololá	717	San Juan la Laguna	12	San Juan la Laguna	6	Junio	2023-02-06T00:00:00	2024-11-08T06:00:00	3	Temperatura mínima	16.7
57380	7	Sololá	717	San Juan la Laguna	12	San Juan la Laguna	6	Junio	2023-02-06T00:00:00	2024-11-08T06:00:00	5	Humedad	87
57381	7	Sololá	717	San Juan la Laguna	12	San Juan la Laguna	6	Junio	2023-02-06T00:00:00	2024-11-08T06:00:00	6	Velocidad del viento	3.2
57382	7	Sololá	717	San Juan la Laguna	12	San Juan la Laguna	6	Junio	2023-02-06T00:00:00	2024-11-08T06:00:00	7	Dirección del viento	3.22
57383	7	Sololá	717	San Juan la Laguna	12	San Juan la Laguna	6	Junio	2023-02-06T00:00:00	2024-11-08T06:00:00	1	Precipitación	0
57384	7	Sololá	717	San Juan la Laguna	12	San Juan la Laguna	6	Junio	2023-02-06T00:00:00	2024-11-08T06:00:00	8	Radiación solar	4
57385	7	Sololá	717	San Juan la Laguna	12	San Juan la Laguna	6	Junio	2023-02-06T00:00:00	2024-11-08T07:00:00	2	Temperatura media	18.4
57386	7	Sololá	717	San Juan la Laguna	12	San Juan la Laguna	6	Junio	2023-02-06T00:00:00	2024-11-08T07:00:00	4	Temperatura máxima	18.4
57387	7	Sololá	717	San Juan la Laguna	12	San Juan la Laguna	6	Junio	2023-02-06T00:00:00	2024-11-08T07:00:00	3	Temperatura mínima	16.7
57388	7	Sololá	717	San Juan la Laguna	12	San Juan la Laguna	6	Junio	2023-02-06T00:00:00	2024-11-08T07:00:00	5	Humedad	85
57389	7	Sololá	717	San Juan la Laguna	12	San Juan la Laguna	6	Junio	2023-02-06T00:00:00	2024-11-08T07:00:00	6	Velocidad del viento	1.6
57390	7	Sololá	717	San Juan la Laguna	12	San Juan la Laguna	6	Junio	2023-02-06T00:00:00	2024-11-08T07:00:00	7	Dirección del viento	1.61
57391	7	Sololá	717	San Juan la Laguna	12	San Juan la Laguna	6	Junio	2023-02-06T00:00:00	2024-11-08T07:00:00	1	Precipitación	0
57392	7	Sololá	717	San Juan la Laguna	12	San Juan la Laguna	6	Junio	2023-02-06T00:00:00	2024-11-08T07:00:00	8	Radiación solar	100
57393	7	Sololá	717	San Juan la Laguna	12	San Juan la Laguna	6	Junio	2023-02-06T00:00:00	2024-11-08T08:00:00	2	Temperatura media	21.1
57394	7	Sololá	717	San Juan la Laguna	12	San Juan la Laguna	6	Junio	2023-02-06T00:00:00	2024-11-08T08:00:00	4	Temperatura máxima	21.2
57395	7	Sololá	717	San Juan la Laguna	12	San Juan la Laguna	6	Junio	2023-02-06T00:00:00	2024-11-08T08:00:00	3	Temperatura mínima	18.4
57396	7	Sololá	717	San Juan la Laguna	12	San Juan la Laguna	6	Junio	2023-02-06T00:00:00	2024-11-08T08:00:00	5	Humedad	79
57397	7	Sololá	717	San Juan la Laguna	12	San Juan la Laguna	6	Junio	2023-02-06T00:00:00	2024-11-08T08:00:00	6	Velocidad del viento	1.6
57398	7	Sololá	717	San Juan la Laguna	12	San Juan la Laguna	6	Junio	2023-02-06T00:00:00	2024-11-08T08:00:00	7	Dirección del viento	1.61
57399	7	Sololá	717	San Juan la Laguna	12	San Juan la Laguna	6	Junio	2023-02-06T00:00:00	2024-11-08T08:00:00	1	Precipitación	0
57400	7	Sololá	717	San Juan la Laguna	12	San Juan la Laguna	6	Junio	2023-02-06T00:00:00	2024-11-08T08:00:00	8	Radiación solar	302
57401	7	Sololá	717	San Juan la Laguna	12	San Juan la Laguna	6	Junio	2023-02-06T00:00:00	2024-11-08T09:00:00	2	Temperatura media	21.8
57402	7	Sololá	717	San Juan la Laguna	12	San Juan la Laguna	6	Junio	2023-02-06T00:00:00	2024-11-08T09:00:00	4	Temperatura máxima	21.9
57403	7	Sololá	717	San Juan la Laguna	12	San Juan la Laguna	6	Junio	2023-02-06T00:00:00	2024-11-08T09:00:00	3	Temperatura mínima	21.1
57404	7	Sololá	717	San Juan la Laguna	12	San Juan la Laguna	6	Junio	2023-02-06T00:00:00	2024-11-08T09:00:00	5	Humedad	77
57405	7	Sololá	717	San Juan la Laguna	12	San Juan la Laguna	6	Junio	2023-02-06T00:00:00	2024-11-08T09:00:00	6	Velocidad del viento	1.6
57406	7	Sololá	717	San Juan la Laguna	12	San Juan la Laguna	6	Junio	2023-02-06T00:00:00	2024-11-08T09:00:00	7	Dirección del viento	1.61
57407	7	Sololá	717	San Juan la Laguna	12	San Juan la Laguna	6	Junio	2023-02-06T00:00:00	2024-11-08T09:00:00	1	Precipitación	0
57408	7	Sololá	717	San Juan la Laguna	12	San Juan la Laguna	6	Junio	2023-02-06T00:00:00	2024-11-08T09:00:00	8	Radiación solar	519
57409	7	Sololá	717	San Juan la Laguna	12	San Juan la Laguna	6	Junio	2023-02-06T00:00:00	2024-11-08T10:00:00	2	Temperatura media	22.8
57410	7	Sololá	717	San Juan la Laguna	12	San Juan la Laguna	6	Junio	2023-02-06T00:00:00	2024-11-08T10:00:00	4	Temperatura máxima	23.3
57411	7	Sololá	717	San Juan la Laguna	12	San Juan la Laguna	6	Junio	2023-02-06T00:00:00	2024-11-08T10:00:00	3	Temperatura mínima	21.8
57412	7	Sololá	717	San Juan la Laguna	12	San Juan la Laguna	6	Junio	2023-02-06T00:00:00	2024-11-08T10:00:00	5	Humedad	75
57413	7	Sololá	717	San Juan la Laguna	12	San Juan la Laguna	6	Junio	2023-02-06T00:00:00	2024-11-08T10:00:00	6	Velocidad del viento	1.6
57414	7	Sololá	717	San Juan la Laguna	12	San Juan la Laguna	6	Junio	2023-02-06T00:00:00	2024-11-08T10:00:00	7	Dirección del viento	1.61
57415	7	Sololá	717	San Juan la Laguna	12	San Juan la Laguna	6	Junio	2023-02-06T00:00:00	2024-11-08T10:00:00	1	Precipitación	0
57416	7	Sololá	717	San Juan la Laguna	12	San Juan la Laguna	6	Junio	2023-02-06T00:00:00	2024-11-08T10:00:00	8	Radiación solar	707
57417	7	Sololá	717	San Juan la Laguna	12	San Juan la Laguna	6	Junio	2023-02-06T00:00:00	2024-11-08T11:00:00	2	Temperatura media	24
57418	7	Sololá	717	San Juan la Laguna	12	San Juan la Laguna	6	Junio	2023-02-06T00:00:00	2024-11-08T11:00:00	4	Temperatura máxima	24
57419	7	Sololá	717	San Juan la Laguna	12	San Juan la Laguna	6	Junio	2023-02-06T00:00:00	2024-11-08T11:00:00	3	Temperatura mínima	22.8
57420	7	Sololá	717	San Juan la Laguna	12	San Juan la Laguna	6	Junio	2023-02-06T00:00:00	2024-11-08T11:00:00	5	Humedad	70
57421	7	Sololá	717	San Juan la Laguna	12	San Juan la Laguna	6	Junio	2023-02-06T00:00:00	2024-11-08T11:00:00	6	Velocidad del viento	1.6
57422	7	Sololá	717	San Juan la Laguna	12	San Juan la Laguna	6	Junio	2023-02-06T00:00:00	2024-11-08T11:00:00	7	Dirección del viento	1.61
57423	7	Sololá	717	San Juan la Laguna	12	San Juan la Laguna	6	Junio	2023-02-06T00:00:00	2024-11-08T11:00:00	1	Precipitación	0
57424	7	Sololá	717	San Juan la Laguna	12	San Juan la Laguna	6	Junio	2023-02-06T00:00:00	2024-11-08T11:00:00	8	Radiación solar	870
57425	7	Sololá	717	San Juan la Laguna	12	San Juan la Laguna	6	Junio	2023-02-06T00:00:00	2024-11-08T12:00:00	2	Temperatura media	24.4
57426	7	Sololá	717	San Juan la Laguna	12	San Juan la Laguna	6	Junio	2023-02-06T00:00:00	2024-11-08T12:00:00	4	Temperatura máxima	25.2
57427	7	Sololá	717	San Juan la Laguna	12	San Juan la Laguna	6	Junio	2023-02-06T00:00:00	2024-11-08T12:00:00	3	Temperatura mínima	24
57428	7	Sololá	717	San Juan la Laguna	12	San Juan la Laguna	6	Junio	2023-02-06T00:00:00	2024-11-08T12:00:00	5	Humedad	68
57429	7	Sololá	717	San Juan la Laguna	12	San Juan la Laguna	6	Junio	2023-02-06T00:00:00	2024-11-08T12:00:00	6	Velocidad del viento	3.2
57430	7	Sololá	717	San Juan la Laguna	12	San Juan la Laguna	6	Junio	2023-02-06T00:00:00	2024-11-08T12:00:00	7	Dirección del viento	3.22
57431	7	Sololá	717	San Juan la Laguna	12	San Juan la Laguna	6	Junio	2023-02-06T00:00:00	2024-11-08T12:00:00	1	Precipitación	0
57432	7	Sololá	717	San Juan la Laguna	12	San Juan la Laguna	6	Junio	2023-02-06T00:00:00	2024-11-08T12:00:00	8	Radiación solar	916
57433	7	Sololá	717	San Juan la Laguna	12	San Juan la Laguna	6	Junio	2023-02-06T00:00:00	2024-11-08T13:00:00	2	Temperatura media	24.2
57434	7	Sololá	717	San Juan la Laguna	12	San Juan la Laguna	6	Junio	2023-02-06T00:00:00	2024-11-08T13:00:00	4	Temperatura máxima	24.6
57435	7	Sololá	717	San Juan la Laguna	12	San Juan la Laguna	6	Junio	2023-02-06T00:00:00	2024-11-08T13:00:00	3	Temperatura mínima	23.8
57436	7	Sololá	717	San Juan la Laguna	12	San Juan la Laguna	6	Junio	2023-02-06T00:00:00	2024-11-08T13:00:00	5	Humedad	71
57437	7	Sololá	717	San Juan la Laguna	12	San Juan la Laguna	6	Junio	2023-02-06T00:00:00	2024-11-08T13:00:00	6	Velocidad del viento	4.8
57438	7	Sololá	717	San Juan la Laguna	12	San Juan la Laguna	6	Junio	2023-02-06T00:00:00	2024-11-08T13:00:00	7	Dirección del viento	4.83
57439	7	Sololá	717	San Juan la Laguna	12	San Juan la Laguna	6	Junio	2023-02-06T00:00:00	2024-11-08T13:00:00	1	Precipitación	0
57440	7	Sololá	717	San Juan la Laguna	12	San Juan la Laguna	6	Junio	2023-02-06T00:00:00	2024-11-08T13:00:00	8	Radiación solar	833
57441	7	Sololá	717	San Juan la Laguna	12	San Juan la Laguna	6	Junio	2023-02-06T00:00:00	2024-11-08T14:00:00	2	Temperatura media	24.2
57442	7	Sololá	717	San Juan la Laguna	12	San Juan la Laguna	6	Junio	2023-02-06T00:00:00	2024-11-08T14:00:00	4	Temperatura máxima	24.2
57443	7	Sololá	717	San Juan la Laguna	12	San Juan la Laguna	6	Junio	2023-02-06T00:00:00	2024-11-08T14:00:00	3	Temperatura mínima	23.3
57444	7	Sololá	717	San Juan la Laguna	12	San Juan la Laguna	6	Junio	2023-02-06T00:00:00	2024-11-08T14:00:00	5	Humedad	72
57445	7	Sololá	717	San Juan la Laguna	12	San Juan la Laguna	6	Junio	2023-02-06T00:00:00	2024-11-08T14:00:00	6	Velocidad del viento	6.4
57446	7	Sololá	717	San Juan la Laguna	12	San Juan la Laguna	6	Junio	2023-02-06T00:00:00	2024-11-08T14:00:00	7	Dirección del viento	6.44
57447	7	Sololá	717	San Juan la Laguna	12	San Juan la Laguna	6	Junio	2023-02-06T00:00:00	2024-11-08T14:00:00	1	Precipitación	0
57448	7	Sololá	717	San Juan la Laguna	12	San Juan la Laguna	6	Junio	2023-02-06T00:00:00	2024-11-08T14:00:00	8	Radiación solar	915
57449	7	Sololá	717	San Juan la Laguna	12	San Juan la Laguna	6	Junio	2023-02-06T00:00:00	2024-11-08T15:00:00	2	Temperatura media	23.5
57450	7	Sololá	717	San Juan la Laguna	12	San Juan la Laguna	6	Junio	2023-02-06T00:00:00	2024-11-08T15:00:00	4	Temperatura máxima	24.1
57451	7	Sololá	717	San Juan la Laguna	12	San Juan la Laguna	6	Junio	2023-02-06T00:00:00	2024-11-08T15:00:00	3	Temperatura mínima	23.4
57452	7	Sololá	717	San Juan la Laguna	12	San Juan la Laguna	6	Junio	2023-02-06T00:00:00	2024-11-08T15:00:00	5	Humedad	74
57453	7	Sololá	717	San Juan la Laguna	12	San Juan la Laguna	6	Junio	2023-02-06T00:00:00	2024-11-08T15:00:00	6	Velocidad del viento	6.4
57454	7	Sololá	717	San Juan la Laguna	12	San Juan la Laguna	6	Junio	2023-02-06T00:00:00	2024-11-08T15:00:00	7	Dirección del viento	6.44
57455	7	Sololá	717	San Juan la Laguna	12	San Juan la Laguna	6	Junio	2023-02-06T00:00:00	2024-11-08T15:00:00	1	Precipitación	0
57456	7	Sololá	717	San Juan la Laguna	12	San Juan la Laguna	6	Junio	2023-02-06T00:00:00	2024-11-08T15:00:00	8	Radiación solar	691
57457	7	Sololá	717	San Juan la Laguna	12	San Juan la Laguna	6	Junio	2023-02-06T00:00:00	2024-11-08T16:00:00	2	Temperatura media	23.6
57458	7	Sololá	717	San Juan la Laguna	12	San Juan la Laguna	6	Junio	2023-02-06T00:00:00	2024-11-08T16:00:00	4	Temperatura máxima	23.8
57459	7	Sololá	717	San Juan la Laguna	12	San Juan la Laguna	6	Junio	2023-02-06T00:00:00	2024-11-08T16:00:00	3	Temperatura mínima	22.5
57460	7	Sololá	717	San Juan la Laguna	12	San Juan la Laguna	6	Junio	2023-02-06T00:00:00	2024-11-08T16:00:00	5	Humedad	73
57461	7	Sololá	717	San Juan la Laguna	12	San Juan la Laguna	6	Junio	2023-02-06T00:00:00	2024-11-08T16:00:00	6	Velocidad del viento	4.8
57462	7	Sololá	717	San Juan la Laguna	12	San Juan la Laguna	6	Junio	2023-02-06T00:00:00	2024-11-08T16:00:00	7	Dirección del viento	4.83
57463	7	Sololá	717	San Juan la Laguna	12	San Juan la Laguna	6	Junio	2023-02-06T00:00:00	2024-11-08T16:00:00	1	Precipitación	0
57464	7	Sololá	717	San Juan la Laguna	12	San Juan la Laguna	6	Junio	2023-02-06T00:00:00	2024-11-08T16:00:00	8	Radiación solar	476
57465	7	Sololá	717	San Juan la Laguna	12	San Juan la Laguna	6	Junio	2023-02-06T00:00:00	2024-11-08T17:00:00	2	Temperatura media	23.1
57466	7	Sololá	717	San Juan la Laguna	12	San Juan la Laguna	6	Junio	2023-02-06T00:00:00	2024-11-08T17:00:00	4	Temperatura máxima	23.7
57467	7	Sololá	717	San Juan la Laguna	12	San Juan la Laguna	6	Junio	2023-02-06T00:00:00	2024-11-08T17:00:00	3	Temperatura mínima	23.1
57468	7	Sololá	717	San Juan la Laguna	12	San Juan la Laguna	6	Junio	2023-02-06T00:00:00	2024-11-08T17:00:00	5	Humedad	77
57469	7	Sololá	717	San Juan la Laguna	12	San Juan la Laguna	6	Junio	2023-02-06T00:00:00	2024-11-08T17:00:00	6	Velocidad del viento	3.2
57470	7	Sololá	717	San Juan la Laguna	12	San Juan la Laguna	6	Junio	2023-02-06T00:00:00	2024-11-08T17:00:00	7	Dirección del viento	3.22
57471	7	Sololá	717	San Juan la Laguna	12	San Juan la Laguna	6	Junio	2023-02-06T00:00:00	2024-11-08T17:00:00	1	Precipitación	0
57472	7	Sololá	717	San Juan la Laguna	12	San Juan la Laguna	6	Junio	2023-02-06T00:00:00	2024-11-08T17:00:00	8	Radiación solar	201
57473	7	Sololá	717	San Juan la Laguna	12	San Juan la Laguna	6	Junio	2023-02-06T00:00:00	2024-11-08T18:00:00	2	Temperatura media	22.2
57474	7	Sololá	717	San Juan la Laguna	12	San Juan la Laguna	6	Junio	2023-02-06T00:00:00	2024-11-08T18:00:00	4	Temperatura máxima	23.1
57475	7	Sololá	717	San Juan la Laguna	12	San Juan la Laguna	6	Junio	2023-02-06T00:00:00	2024-11-08T18:00:00	3	Temperatura mínima	22.2
57476	7	Sololá	717	San Juan la Laguna	12	San Juan la Laguna	6	Junio	2023-02-06T00:00:00	2024-11-08T18:00:00	5	Humedad	81
57477	7	Sololá	717	San Juan la Laguna	12	San Juan la Laguna	6	Junio	2023-02-06T00:00:00	2024-11-08T18:00:00	6	Velocidad del viento	1.6
57478	7	Sololá	717	San Juan la Laguna	12	San Juan la Laguna	6	Junio	2023-02-06T00:00:00	2024-11-08T18:00:00	7	Dirección del viento	1.61
57479	7	Sololá	717	San Juan la Laguna	12	San Juan la Laguna	6	Junio	2023-02-06T00:00:00	2024-11-08T18:00:00	1	Precipitación	0
57480	7	Sololá	717	San Juan la Laguna	12	San Juan la Laguna	6	Junio	2023-02-06T00:00:00	2024-11-08T18:00:00	8	Radiación solar	46
57481	7	Sololá	717	San Juan la Laguna	12	San Juan la Laguna	6	Junio	2023-02-06T00:00:00	2024-11-08T19:00:00	2	Temperatura media	21.5
57482	7	Sololá	717	San Juan la Laguna	12	San Juan la Laguna	6	Junio	2023-02-06T00:00:00	2024-11-08T19:00:00	4	Temperatura máxima	22.2
57483	7	Sololá	717	San Juan la Laguna	12	San Juan la Laguna	6	Junio	2023-02-06T00:00:00	2024-11-08T19:00:00	3	Temperatura mínima	21.5
57484	7	Sololá	717	San Juan la Laguna	12	San Juan la Laguna	6	Junio	2023-02-06T00:00:00	2024-11-08T19:00:00	5	Humedad	84
57485	7	Sololá	717	San Juan la Laguna	12	San Juan la Laguna	6	Junio	2023-02-06T00:00:00	2024-11-08T19:00:00	6	Velocidad del viento	0
57486	7	Sololá	717	San Juan la Laguna	12	San Juan la Laguna	6	Junio	2023-02-06T00:00:00	2024-11-08T19:00:00	7	Dirección del viento	0
57487	7	Sololá	717	San Juan la Laguna	12	San Juan la Laguna	6	Junio	2023-02-06T00:00:00	2024-11-08T19:00:00	1	Precipitación	0
57488	7	Sololá	717	San Juan la Laguna	12	San Juan la Laguna	6	Junio	2023-02-06T00:00:00	2024-11-08T19:00:00	8	Radiación solar	0
57489	7	Sololá	717	San Juan la Laguna	12	San Juan la Laguna	6	Junio	2023-02-06T00:00:00	2024-11-08T20:00:00	2	Temperatura media	20.4
57490	7	Sololá	717	San Juan la Laguna	12	San Juan la Laguna	6	Junio	2023-02-06T00:00:00	2024-11-08T20:00:00	4	Temperatura máxima	21.5
57491	7	Sololá	717	San Juan la Laguna	12	San Juan la Laguna	6	Junio	2023-02-06T00:00:00	2024-11-08T20:00:00	3	Temperatura mínima	20.4
57492	7	Sololá	717	San Juan la Laguna	12	San Juan la Laguna	6	Junio	2023-02-06T00:00:00	2024-11-08T20:00:00	5	Humedad	87
57493	7	Sololá	717	San Juan la Laguna	12	San Juan la Laguna	6	Junio	2023-02-06T00:00:00	2024-11-08T20:00:00	6	Velocidad del viento	1.6
57494	7	Sololá	717	San Juan la Laguna	12	San Juan la Laguna	6	Junio	2023-02-06T00:00:00	2024-11-08T20:00:00	7	Dirección del viento	1.61
57495	7	Sololá	717	San Juan la Laguna	12	San Juan la Laguna	6	Junio	2023-02-06T00:00:00	2024-11-08T20:00:00	1	Precipitación	0
57496	7	Sololá	717	San Juan la Laguna	12	San Juan la Laguna	6	Junio	2023-02-06T00:00:00	2024-11-08T20:00:00	8	Radiación solar	0
57497	7	Sololá	717	San Juan la Laguna	12	San Juan la Laguna	6	Junio	2023-02-06T00:00:00	2024-11-08T21:00:00	2	Temperatura media	19.9
57498	7	Sololá	717	San Juan la Laguna	12	San Juan la Laguna	6	Junio	2023-02-06T00:00:00	2024-11-08T21:00:00	4	Temperatura máxima	20.4
57499	7	Sololá	717	San Juan la Laguna	12	San Juan la Laguna	6	Junio	2023-02-06T00:00:00	2024-11-08T21:00:00	3	Temperatura mínima	19.7
57500	7	Sololá	717	San Juan la Laguna	12	San Juan la Laguna	6	Junio	2023-02-06T00:00:00	2024-11-08T21:00:00	5	Humedad	87
57501	7	Sololá	717	San Juan la Laguna	12	San Juan la Laguna	6	Junio	2023-02-06T00:00:00	2024-11-08T21:00:00	6	Velocidad del viento	0
57502	7	Sololá	717	San Juan la Laguna	12	San Juan la Laguna	6	Junio	2023-02-06T00:00:00	2024-11-08T21:00:00	7	Dirección del viento	0
57503	7	Sololá	717	San Juan la Laguna	12	San Juan la Laguna	6	Junio	2023-02-06T00:00:00	2024-11-08T21:00:00	1	Precipitación	0
57504	7	Sololá	717	San Juan la Laguna	12	San Juan la Laguna	6	Junio	2023-02-06T00:00:00	2024-11-08T21:00:00	8	Radiación solar	0
57505	7	Sololá	717	San Juan la Laguna	12	San Juan la Laguna	6	Junio	2023-02-06T00:00:00	2024-11-08T22:00:00	2	Temperatura media	20.1
57506	7	Sololá	717	San Juan la Laguna	12	San Juan la Laguna	6	Junio	2023-02-06T00:00:00	2024-11-08T22:00:00	4	Temperatura máxima	20.2
57507	7	Sololá	717	San Juan la Laguna	12	San Juan la Laguna	6	Junio	2023-02-06T00:00:00	2024-11-08T22:00:00	3	Temperatura mínima	19.9
57508	7	Sololá	717	San Juan la Laguna	12	San Juan la Laguna	6	Junio	2023-02-06T00:00:00	2024-11-08T22:00:00	5	Humedad	86
57509	7	Sololá	717	San Juan la Laguna	12	San Juan la Laguna	6	Junio	2023-02-06T00:00:00	2024-11-08T22:00:00	6	Velocidad del viento	0
57510	7	Sololá	717	San Juan la Laguna	12	San Juan la Laguna	6	Junio	2023-02-06T00:00:00	2024-11-08T22:00:00	7	Dirección del viento	0
57511	7	Sololá	717	San Juan la Laguna	12	San Juan la Laguna	6	Junio	2023-02-06T00:00:00	2024-11-08T22:00:00	1	Precipitación	0
57512	7	Sololá	717	San Juan la Laguna	12	San Juan la Laguna	6	Junio	2023-02-06T00:00:00	2024-11-08T22:00:00	8	Radiación solar	0
57513	7	Sololá	717	San Juan la Laguna	12	San Juan la Laguna	6	Junio	2023-02-06T00:00:00	2024-11-08T23:00:00	2	Temperatura media	19.7
57514	7	Sololá	717	San Juan la Laguna	12	San Juan la Laguna	6	Junio	2023-02-06T00:00:00	2024-11-08T23:00:00	4	Temperatura máxima	20.2
57515	7	Sololá	717	San Juan la Laguna	12	San Juan la Laguna	6	Junio	2023-02-06T00:00:00	2024-11-08T23:00:00	3	Temperatura mínima	19.7
57516	7	Sololá	717	San Juan la Laguna	12	San Juan la Laguna	6	Junio	2023-02-06T00:00:00	2024-11-08T23:00:00	5	Humedad	87
57517	7	Sololá	717	San Juan la Laguna	12	San Juan la Laguna	6	Junio	2023-02-06T00:00:00	2024-11-08T23:00:00	6	Velocidad del viento	0
57518	7	Sololá	717	San Juan la Laguna	12	San Juan la Laguna	6	Junio	2023-02-06T00:00:00	2024-11-08T23:00:00	7	Dirección del viento	0
57519	7	Sololá	717	San Juan la Laguna	12	San Juan la Laguna	6	Junio	2023-02-06T00:00:00	2024-11-08T23:00:00	1	Precipitación	0
57520	7	Sololá	717	San Juan la Laguna	12	San Juan la Laguna	6	Junio	2023-02-06T00:00:00	2024-11-08T23:00:00	8	Radiación solar	0
57521	7	Sololá	717	San Juan la Laguna	12	San Juan la Laguna	6	Junio	2023-03-06T00:00:00	2024-11-08T00:00:00	2	Temperatura media	19.3
57522	7	Sololá	717	San Juan la Laguna	12	San Juan la Laguna	6	Junio	2023-03-06T00:00:00	2024-11-08T00:00:00	4	Temperatura máxima	19.7
57523	7	Sololá	717	San Juan la Laguna	12	San Juan la Laguna	6	Junio	2023-03-06T00:00:00	2024-11-08T00:00:00	3	Temperatura mínima	19.2
57524	7	Sololá	717	San Juan la Laguna	12	San Juan la Laguna	6	Junio	2023-03-06T00:00:00	2024-11-08T00:00:00	5	Humedad	88
57525	7	Sololá	717	San Juan la Laguna	12	San Juan la Laguna	6	Junio	2023-03-06T00:00:00	2024-11-08T00:00:00	6	Velocidad del viento	0
57526	7	Sololá	717	San Juan la Laguna	12	San Juan la Laguna	6	Junio	2023-03-06T00:00:00	2024-11-08T00:00:00	7	Dirección del viento	0
57527	7	Sololá	717	San Juan la Laguna	12	San Juan la Laguna	6	Junio	2023-03-06T00:00:00	2024-11-08T00:00:00	1	Precipitación	0
57528	7	Sololá	717	San Juan la Laguna	12	San Juan la Laguna	6	Junio	2023-03-06T00:00:00	2024-11-08T00:00:00	8	Radiación solar	0
57529	7	Sololá	717	San Juan la Laguna	12	San Juan la Laguna	6	Junio	2023-03-06T00:00:00	2024-11-08T01:00:00	2	Temperatura media	19.2
57530	7	Sololá	717	San Juan la Laguna	12	San Juan la Laguna	6	Junio	2023-03-06T00:00:00	2024-11-08T01:00:00	4	Temperatura máxima	19.4
57531	7	Sololá	717	San Juan la Laguna	12	San Juan la Laguna	6	Junio	2023-03-06T00:00:00	2024-11-08T01:00:00	3	Temperatura mínima	19.2
57532	7	Sololá	717	San Juan la Laguna	12	San Juan la Laguna	6	Junio	2023-03-06T00:00:00	2024-11-08T01:00:00	5	Humedad	87
57533	7	Sololá	717	San Juan la Laguna	12	San Juan la Laguna	6	Junio	2023-03-06T00:00:00	2024-11-08T01:00:00	6	Velocidad del viento	0
57534	7	Sololá	717	San Juan la Laguna	12	San Juan la Laguna	6	Junio	2023-03-06T00:00:00	2024-11-08T01:00:00	7	Dirección del viento	0
57535	7	Sololá	717	San Juan la Laguna	12	San Juan la Laguna	6	Junio	2023-03-06T00:00:00	2024-11-08T01:00:00	1	Precipitación	0
57536	7	Sololá	717	San Juan la Laguna	12	San Juan la Laguna	6	Junio	2023-03-06T00:00:00	2024-11-08T01:00:00	8	Radiación solar	0
57537	7	Sololá	717	San Juan la Laguna	12	San Juan la Laguna	6	Junio	2023-03-06T00:00:00	2024-11-08T02:00:00	2	Temperatura media	18.5
57538	7	Sololá	717	San Juan la Laguna	12	San Juan la Laguna	6	Junio	2023-03-06T00:00:00	2024-11-08T02:00:00	4	Temperatura máxima	19.2
57539	7	Sololá	717	San Juan la Laguna	12	San Juan la Laguna	6	Junio	2023-03-06T00:00:00	2024-11-08T02:00:00	3	Temperatura mínima	18.5
57540	7	Sololá	717	San Juan la Laguna	12	San Juan la Laguna	6	Junio	2023-03-06T00:00:00	2024-11-08T02:00:00	5	Humedad	89
57541	7	Sololá	717	San Juan la Laguna	12	San Juan la Laguna	6	Junio	2023-03-06T00:00:00	2024-11-08T02:00:00	6	Velocidad del viento	0
57542	7	Sololá	717	San Juan la Laguna	12	San Juan la Laguna	6	Junio	2023-03-06T00:00:00	2024-11-08T02:00:00	7	Dirección del viento	0
57543	7	Sololá	717	San Juan la Laguna	12	San Juan la Laguna	6	Junio	2023-03-06T00:00:00	2024-11-08T02:00:00	1	Precipitación	0
57544	7	Sololá	717	San Juan la Laguna	12	San Juan la Laguna	6	Junio	2023-03-06T00:00:00	2024-11-08T02:00:00	8	Radiación solar	0
57545	7	Sololá	717	San Juan la Laguna	12	San Juan la Laguna	6	Junio	2023-03-06T00:00:00	2024-11-08T03:00:00	2	Temperatura media	18.5
57546	7	Sololá	717	San Juan la Laguna	12	San Juan la Laguna	6	Junio	2023-03-06T00:00:00	2024-11-08T03:00:00	4	Temperatura máxima	18.6
57547	7	Sololá	717	San Juan la Laguna	12	San Juan la Laguna	6	Junio	2023-03-06T00:00:00	2024-11-08T03:00:00	3	Temperatura mínima	18.4
57548	7	Sololá	717	San Juan la Laguna	12	San Juan la Laguna	6	Junio	2023-03-06T00:00:00	2024-11-08T03:00:00	5	Humedad	87
57549	7	Sololá	717	San Juan la Laguna	12	San Juan la Laguna	6	Junio	2023-03-06T00:00:00	2024-11-08T03:00:00	6	Velocidad del viento	0
57550	7	Sololá	717	San Juan la Laguna	12	San Juan la Laguna	6	Junio	2023-03-06T00:00:00	2024-11-08T03:00:00	7	Dirección del viento	0
57551	7	Sololá	717	San Juan la Laguna	12	San Juan la Laguna	6	Junio	2023-03-06T00:00:00	2024-11-08T03:00:00	1	Precipitación	0
57552	7	Sololá	717	San Juan la Laguna	12	San Juan la Laguna	6	Junio	2023-03-06T00:00:00	2024-11-08T03:00:00	8	Radiación solar	0
57553	7	Sololá	717	San Juan la Laguna	12	San Juan la Laguna	6	Junio	2023-03-06T00:00:00	2024-11-08T04:00:00	2	Temperatura media	18.2
57554	7	Sololá	717	San Juan la Laguna	12	San Juan la Laguna	6	Junio	2023-03-06T00:00:00	2024-11-08T04:00:00	4	Temperatura máxima	18.6
57555	7	Sololá	717	San Juan la Laguna	12	San Juan la Laguna	6	Junio	2023-03-06T00:00:00	2024-11-08T04:00:00	3	Temperatura mínima	18.2
57556	7	Sololá	717	San Juan la Laguna	12	San Juan la Laguna	6	Junio	2023-03-06T00:00:00	2024-11-08T04:00:00	5	Humedad	87
57557	7	Sololá	717	San Juan la Laguna	12	San Juan la Laguna	6	Junio	2023-03-06T00:00:00	2024-11-08T04:00:00	6	Velocidad del viento	0
57558	7	Sololá	717	San Juan la Laguna	12	San Juan la Laguna	6	Junio	2023-03-06T00:00:00	2024-11-08T04:00:00	7	Dirección del viento	0
57559	7	Sololá	717	San Juan la Laguna	12	San Juan la Laguna	6	Junio	2023-03-06T00:00:00	2024-11-08T04:00:00	1	Precipitación	0
57560	7	Sololá	717	San Juan la Laguna	12	San Juan la Laguna	6	Junio	2023-03-06T00:00:00	2024-11-08T04:00:00	8	Radiación solar	0
57561	7	Sololá	717	San Juan la Laguna	12	San Juan la Laguna	6	Junio	2023-03-06T00:00:00	2024-11-08T05:00:00	2	Temperatura media	18.2
57562	7	Sololá	717	San Juan la Laguna	12	San Juan la Laguna	6	Junio	2023-03-06T00:00:00	2024-11-08T05:00:00	4	Temperatura máxima	18.2
57563	7	Sololá	717	San Juan la Laguna	12	San Juan la Laguna	6	Junio	2023-03-06T00:00:00	2024-11-08T05:00:00	3	Temperatura mínima	17.8
57564	7	Sololá	717	San Juan la Laguna	12	San Juan la Laguna	6	Junio	2023-03-06T00:00:00	2024-11-08T05:00:00	5	Humedad	87
57565	7	Sololá	717	San Juan la Laguna	12	San Juan la Laguna	6	Junio	2023-03-06T00:00:00	2024-11-08T05:00:00	6	Velocidad del viento	1.6
57566	7	Sololá	717	San Juan la Laguna	12	San Juan la Laguna	6	Junio	2023-03-06T00:00:00	2024-11-08T05:00:00	7	Dirección del viento	1.61
57567	7	Sololá	717	San Juan la Laguna	12	San Juan la Laguna	6	Junio	2023-03-06T00:00:00	2024-11-08T05:00:00	1	Precipitación	0
57568	7	Sololá	717	San Juan la Laguna	12	San Juan la Laguna	6	Junio	2023-03-06T00:00:00	2024-11-08T05:00:00	8	Radiación solar	0
57569	7	Sololá	717	San Juan la Laguna	12	San Juan la Laguna	6	Junio	2023-03-06T00:00:00	2024-11-08T06:00:00	2	Temperatura media	18.2
57570	7	Sololá	717	San Juan la Laguna	12	San Juan la Laguna	6	Junio	2023-03-06T00:00:00	2024-11-08T06:00:00	4	Temperatura máxima	18.4
57571	7	Sololá	717	San Juan la Laguna	12	San Juan la Laguna	6	Junio	2023-03-06T00:00:00	2024-11-08T06:00:00	3	Temperatura mínima	18.2
57572	7	Sololá	717	San Juan la Laguna	12	San Juan la Laguna	6	Junio	2023-03-06T00:00:00	2024-11-08T06:00:00	5	Humedad	87
57573	7	Sololá	717	San Juan la Laguna	12	San Juan la Laguna	6	Junio	2023-03-06T00:00:00	2024-11-08T06:00:00	6	Velocidad del viento	1.6
57574	7	Sololá	717	San Juan la Laguna	12	San Juan la Laguna	6	Junio	2023-03-06T00:00:00	2024-11-08T06:00:00	7	Dirección del viento	1.61
57575	7	Sololá	717	San Juan la Laguna	12	San Juan la Laguna	6	Junio	2023-03-06T00:00:00	2024-11-08T06:00:00	1	Precipitación	0
57576	7	Sololá	717	San Juan la Laguna	12	San Juan la Laguna	6	Junio	2023-03-06T00:00:00	2024-11-08T06:00:00	8	Radiación solar	4
57577	7	Sololá	717	San Juan la Laguna	12	San Juan la Laguna	6	Junio	2023-03-06T00:00:00	2024-11-08T07:00:00	2	Temperatura media	19.7
57578	7	Sololá	717	San Juan la Laguna	12	San Juan la Laguna	6	Junio	2023-03-06T00:00:00	2024-11-08T07:00:00	4	Temperatura máxima	19.7
57579	7	Sololá	717	San Juan la Laguna	12	San Juan la Laguna	6	Junio	2023-03-06T00:00:00	2024-11-08T07:00:00	3	Temperatura mínima	18.2
57580	7	Sololá	717	San Juan la Laguna	12	San Juan la Laguna	6	Junio	2023-03-06T00:00:00	2024-11-08T07:00:00	5	Humedad	84
57581	7	Sololá	717	San Juan la Laguna	12	San Juan la Laguna	6	Junio	2023-03-06T00:00:00	2024-11-08T07:00:00	6	Velocidad del viento	1.6
57582	7	Sololá	717	San Juan la Laguna	12	San Juan la Laguna	6	Junio	2023-03-06T00:00:00	2024-11-08T07:00:00	7	Dirección del viento	1.61
57583	7	Sololá	717	San Juan la Laguna	12	San Juan la Laguna	6	Junio	2023-03-06T00:00:00	2024-11-08T07:00:00	1	Precipitación	0
57584	7	Sololá	717	San Juan la Laguna	12	San Juan la Laguna	6	Junio	2023-03-06T00:00:00	2024-11-08T07:00:00	8	Radiación solar	100
57585	7	Sololá	717	San Juan la Laguna	12	San Juan la Laguna	6	Junio	2023-03-06T00:00:00	2024-11-08T08:00:00	2	Temperatura media	22.6
57586	7	Sololá	717	San Juan la Laguna	12	San Juan la Laguna	6	Junio	2023-03-06T00:00:00	2024-11-08T08:00:00	4	Temperatura máxima	22.6
57587	7	Sololá	717	San Juan la Laguna	12	San Juan la Laguna	6	Junio	2023-03-06T00:00:00	2024-11-08T08:00:00	3	Temperatura mínima	19.7
57588	7	Sololá	717	San Juan la Laguna	12	San Juan la Laguna	6	Junio	2023-03-06T00:00:00	2024-11-08T08:00:00	5	Humedad	75
57589	7	Sololá	717	San Juan la Laguna	12	San Juan la Laguna	6	Junio	2023-03-06T00:00:00	2024-11-08T08:00:00	6	Velocidad del viento	0
57590	7	Sololá	717	San Juan la Laguna	12	San Juan la Laguna	6	Junio	2023-03-06T00:00:00	2024-11-08T08:00:00	7	Dirección del viento	0
57591	7	Sololá	717	San Juan la Laguna	12	San Juan la Laguna	6	Junio	2023-03-06T00:00:00	2024-11-08T08:00:00	1	Precipitación	0
57592	7	Sololá	717	San Juan la Laguna	12	San Juan la Laguna	6	Junio	2023-03-06T00:00:00	2024-11-08T08:00:00	8	Radiación solar	296
57593	7	Sololá	717	San Juan la Laguna	12	San Juan la Laguna	6	Junio	2023-03-06T00:00:00	2024-11-08T09:00:00	2	Temperatura media	22
57594	7	Sololá	717	San Juan la Laguna	12	San Juan la Laguna	6	Junio	2023-03-06T00:00:00	2024-11-08T09:00:00	4	Temperatura máxima	22.7
57595	7	Sololá	717	San Juan la Laguna	12	San Juan la Laguna	6	Junio	2023-03-06T00:00:00	2024-11-08T09:00:00	3	Temperatura mínima	21.6
57596	7	Sololá	717	San Juan la Laguna	12	San Juan la Laguna	6	Junio	2023-03-06T00:00:00	2024-11-08T09:00:00	5	Humedad	78
57597	7	Sololá	717	San Juan la Laguna	12	San Juan la Laguna	6	Junio	2023-03-06T00:00:00	2024-11-08T09:00:00	6	Velocidad del viento	1.6
57598	7	Sololá	717	San Juan la Laguna	12	San Juan la Laguna	6	Junio	2023-03-06T00:00:00	2024-11-08T09:00:00	7	Dirección del viento	1.61
57599	7	Sololá	717	San Juan la Laguna	12	San Juan la Laguna	6	Junio	2023-03-06T00:00:00	2024-11-08T09:00:00	1	Precipitación	0
57600	7	Sololá	717	San Juan la Laguna	12	San Juan la Laguna	6	Junio	2023-03-06T00:00:00	2024-11-08T09:00:00	8	Radiación solar	291
57601	7	Sololá	717	San Juan la Laguna	12	San Juan la Laguna	6	Junio	2023-03-06T00:00:00	2024-11-08T10:00:00	2	Temperatura media	23.6
57602	7	Sololá	717	San Juan la Laguna	12	San Juan la Laguna	6	Junio	2023-03-06T00:00:00	2024-11-08T10:00:00	4	Temperatura máxima	23.7
57603	7	Sololá	717	San Juan la Laguna	12	San Juan la Laguna	6	Junio	2023-03-06T00:00:00	2024-11-08T10:00:00	3	Temperatura mínima	22
57604	7	Sololá	717	San Juan la Laguna	12	San Juan la Laguna	6	Junio	2023-03-06T00:00:00	2024-11-08T10:00:00	5	Humedad	70
57605	7	Sololá	717	San Juan la Laguna	12	San Juan la Laguna	6	Junio	2023-03-06T00:00:00	2024-11-08T10:00:00	6	Velocidad del viento	1.6
57606	7	Sololá	717	San Juan la Laguna	12	San Juan la Laguna	6	Junio	2023-03-06T00:00:00	2024-11-08T10:00:00	7	Dirección del viento	1.61
57607	7	Sololá	717	San Juan la Laguna	12	San Juan la Laguna	6	Junio	2023-03-06T00:00:00	2024-11-08T10:00:00	1	Precipitación	0
57608	7	Sololá	717	San Juan la Laguna	12	San Juan la Laguna	6	Junio	2023-03-06T00:00:00	2024-11-08T10:00:00	8	Radiación solar	653
57609	7	Sololá	717	San Juan la Laguna	12	San Juan la Laguna	6	Junio	2023-03-06T00:00:00	2024-11-08T11:00:00	2	Temperatura media	24.6
57610	7	Sololá	717	San Juan la Laguna	12	San Juan la Laguna	6	Junio	2023-03-06T00:00:00	2024-11-08T11:00:00	4	Temperatura máxima	24.6
57611	7	Sololá	717	San Juan la Laguna	12	San Juan la Laguna	6	Junio	2023-03-06T00:00:00	2024-11-08T11:00:00	3	Temperatura mínima	22.9
57612	7	Sololá	717	San Juan la Laguna	12	San Juan la Laguna	6	Junio	2023-03-06T00:00:00	2024-11-08T11:00:00	5	Humedad	69
57613	7	Sololá	717	San Juan la Laguna	12	San Juan la Laguna	6	Junio	2023-03-06T00:00:00	2024-11-08T11:00:00	6	Velocidad del viento	1.6
57614	7	Sololá	717	San Juan la Laguna	12	San Juan la Laguna	6	Junio	2023-03-06T00:00:00	2024-11-08T11:00:00	7	Dirección del viento	1.61
57615	7	Sololá	717	San Juan la Laguna	12	San Juan la Laguna	6	Junio	2023-03-06T00:00:00	2024-11-08T11:00:00	1	Precipitación	0
57616	7	Sololá	717	San Juan la Laguna	12	San Juan la Laguna	6	Junio	2023-03-06T00:00:00	2024-11-08T11:00:00	8	Radiación solar	759
57617	7	Sololá	717	San Juan la Laguna	12	San Juan la Laguna	6	Junio	2023-03-06T00:00:00	2024-11-08T12:00:00	2	Temperatura media	24.5
57618	7	Sololá	717	San Juan la Laguna	12	San Juan la Laguna	6	Junio	2023-03-06T00:00:00	2024-11-08T12:00:00	4	Temperatura máxima	24.9
57619	7	Sololá	717	San Juan la Laguna	12	San Juan la Laguna	6	Junio	2023-03-06T00:00:00	2024-11-08T12:00:00	3	Temperatura mínima	24
57620	7	Sololá	717	San Juan la Laguna	12	San Juan la Laguna	6	Junio	2023-03-06T00:00:00	2024-11-08T12:00:00	5	Humedad	72
57621	7	Sololá	717	San Juan la Laguna	12	San Juan la Laguna	6	Junio	2023-03-06T00:00:00	2024-11-08T12:00:00	6	Velocidad del viento	4.8
57622	7	Sololá	717	San Juan la Laguna	12	San Juan la Laguna	6	Junio	2023-03-06T00:00:00	2024-11-08T12:00:00	7	Dirección del viento	4.83
57623	7	Sololá	717	San Juan la Laguna	12	San Juan la Laguna	6	Junio	2023-03-06T00:00:00	2024-11-08T12:00:00	1	Precipitación	0
57624	7	Sololá	717	San Juan la Laguna	12	San Juan la Laguna	6	Junio	2023-03-06T00:00:00	2024-11-08T12:00:00	8	Radiación solar	664
57625	7	Sololá	717	San Juan la Laguna	12	San Juan la Laguna	6	Junio	2023-03-06T00:00:00	2024-11-08T13:00:00	2	Temperatura media	24.9
57626	7	Sololá	717	San Juan la Laguna	12	San Juan la Laguna	6	Junio	2023-03-06T00:00:00	2024-11-08T13:00:00	4	Temperatura máxima	24.9
57627	7	Sololá	717	San Juan la Laguna	12	San Juan la Laguna	6	Junio	2023-03-06T00:00:00	2024-11-08T13:00:00	3	Temperatura mínima	23.4
57628	7	Sololá	717	San Juan la Laguna	12	San Juan la Laguna	6	Junio	2023-03-06T00:00:00	2024-11-08T13:00:00	5	Humedad	71
57629	7	Sololá	717	San Juan la Laguna	12	San Juan la Laguna	6	Junio	2023-03-06T00:00:00	2024-11-08T13:00:00	6	Velocidad del viento	4.8
57630	7	Sololá	717	San Juan la Laguna	12	San Juan la Laguna	6	Junio	2023-03-06T00:00:00	2024-11-08T13:00:00	7	Dirección del viento	4.83
57631	7	Sololá	717	San Juan la Laguna	12	San Juan la Laguna	6	Junio	2023-03-06T00:00:00	2024-11-08T13:00:00	1	Precipitación	0
57632	7	Sololá	717	San Juan la Laguna	12	San Juan la Laguna	6	Junio	2023-03-06T00:00:00	2024-11-08T13:00:00	8	Radiación solar	532
57633	7	Sololá	717	San Juan la Laguna	12	San Juan la Laguna	6	Junio	2023-03-06T00:00:00	2024-11-08T14:00:00	2	Temperatura media	25.5
57634	7	Sololá	717	San Juan la Laguna	12	San Juan la Laguna	6	Junio	2023-03-06T00:00:00	2024-11-08T14:00:00	4	Temperatura máxima	26.2
57635	7	Sololá	717	San Juan la Laguna	12	San Juan la Laguna	6	Junio	2023-03-06T00:00:00	2024-11-08T14:00:00	3	Temperatura mínima	24.9
57636	7	Sololá	717	San Juan la Laguna	12	San Juan la Laguna	6	Junio	2023-03-06T00:00:00	2024-11-08T14:00:00	5	Humedad	68
57637	7	Sololá	717	San Juan la Laguna	12	San Juan la Laguna	6	Junio	2023-03-06T00:00:00	2024-11-08T14:00:00	6	Velocidad del viento	4.8
57638	7	Sololá	717	San Juan la Laguna	12	San Juan la Laguna	6	Junio	2023-03-06T00:00:00	2024-11-08T14:00:00	7	Dirección del viento	4.83
57639	7	Sololá	717	San Juan la Laguna	12	San Juan la Laguna	6	Junio	2023-03-06T00:00:00	2024-11-08T14:00:00	1	Precipitación	0
57640	7	Sololá	717	San Juan la Laguna	12	San Juan la Laguna	6	Junio	2023-03-06T00:00:00	2024-11-08T14:00:00	8	Radiación solar	882
57641	7	Sololá	717	San Juan la Laguna	12	San Juan la Laguna	6	Junio	2023-03-06T00:00:00	2024-11-08T15:00:00	2	Temperatura media	24
57642	7	Sololá	717	San Juan la Laguna	12	San Juan la Laguna	6	Junio	2023-03-06T00:00:00	2024-11-08T15:00:00	4	Temperatura máxima	25.8
57643	7	Sololá	717	San Juan la Laguna	12	San Juan la Laguna	6	Junio	2023-03-06T00:00:00	2024-11-08T15:00:00	3	Temperatura mínima	23.3
57644	7	Sololá	717	San Juan la Laguna	12	San Juan la Laguna	6	Junio	2023-03-06T00:00:00	2024-11-08T15:00:00	5	Humedad	74
57645	7	Sololá	717	San Juan la Laguna	12	San Juan la Laguna	6	Junio	2023-03-06T00:00:00	2024-11-08T15:00:00	6	Velocidad del viento	4.8
57646	7	Sololá	717	San Juan la Laguna	12	San Juan la Laguna	6	Junio	2023-03-06T00:00:00	2024-11-08T15:00:00	7	Dirección del viento	4.83
57647	7	Sololá	717	San Juan la Laguna	12	San Juan la Laguna	6	Junio	2023-03-06T00:00:00	2024-11-08T15:00:00	1	Precipitación	0
57648	7	Sololá	717	San Juan la Laguna	12	San Juan la Laguna	6	Junio	2023-03-06T00:00:00	2024-11-08T15:00:00	8	Radiación solar	379
57649	7	Sololá	717	San Juan la Laguna	12	San Juan la Laguna	6	Junio	2023-03-06T00:00:00	2024-11-08T16:00:00	2	Temperatura media	23
57650	7	Sololá	717	San Juan la Laguna	12	San Juan la Laguna	6	Junio	2023-03-06T00:00:00	2024-11-08T16:00:00	4	Temperatura máxima	24
57651	7	Sololá	717	San Juan la Laguna	12	San Juan la Laguna	6	Junio	2023-03-06T00:00:00	2024-11-08T16:00:00	3	Temperatura mínima	22.8
57652	7	Sololá	717	San Juan la Laguna	12	San Juan la Laguna	6	Junio	2023-03-06T00:00:00	2024-11-08T16:00:00	5	Humedad	77
57653	7	Sololá	717	San Juan la Laguna	12	San Juan la Laguna	6	Junio	2023-03-06T00:00:00	2024-11-08T16:00:00	6	Velocidad del viento	3.2
57654	7	Sololá	717	San Juan la Laguna	12	San Juan la Laguna	6	Junio	2023-03-06T00:00:00	2024-11-08T16:00:00	7	Dirección del viento	3.22
57655	7	Sololá	717	San Juan la Laguna	12	San Juan la Laguna	6	Junio	2023-03-06T00:00:00	2024-11-08T16:00:00	1	Precipitación	0
57656	7	Sololá	717	San Juan la Laguna	12	San Juan la Laguna	6	Junio	2023-03-06T00:00:00	2024-11-08T16:00:00	8	Radiación solar	229
57657	7	Sololá	717	San Juan la Laguna	12	San Juan la Laguna	6	Junio	2023-03-06T00:00:00	2024-11-08T17:00:00	2	Temperatura media	22.3
57658	7	Sololá	717	San Juan la Laguna	12	San Juan la Laguna	6	Junio	2023-03-06T00:00:00	2024-11-08T17:00:00	4	Temperatura máxima	23
57659	7	Sololá	717	San Juan la Laguna	12	San Juan la Laguna	6	Junio	2023-03-06T00:00:00	2024-11-08T17:00:00	3	Temperatura mínima	22.2
57660	7	Sololá	717	San Juan la Laguna	12	San Juan la Laguna	6	Junio	2023-03-06T00:00:00	2024-11-08T17:00:00	5	Humedad	80
57661	7	Sololá	717	San Juan la Laguna	12	San Juan la Laguna	6	Junio	2023-03-06T00:00:00	2024-11-08T17:00:00	6	Velocidad del viento	1.6
57662	7	Sololá	717	San Juan la Laguna	12	San Juan la Laguna	6	Junio	2023-03-06T00:00:00	2024-11-08T17:00:00	7	Dirección del viento	1.61
57663	7	Sololá	717	San Juan la Laguna	12	San Juan la Laguna	6	Junio	2023-03-06T00:00:00	2024-11-08T17:00:00	1	Precipitación	0
57664	7	Sololá	717	San Juan la Laguna	12	San Juan la Laguna	6	Junio	2023-03-06T00:00:00	2024-11-08T17:00:00	8	Radiación solar	59
57665	7	Sololá	717	San Juan la Laguna	12	San Juan la Laguna	6	Junio	2023-03-06T00:00:00	2024-11-08T18:00:00	2	Temperatura media	21.2
57666	7	Sololá	717	San Juan la Laguna	12	San Juan la Laguna	6	Junio	2023-03-06T00:00:00	2024-11-08T18:00:00	4	Temperatura máxima	22.3
57667	7	Sololá	717	San Juan la Laguna	12	San Juan la Laguna	6	Junio	2023-03-06T00:00:00	2024-11-08T18:00:00	3	Temperatura mínima	21.1
57668	7	Sololá	717	San Juan la Laguna	12	San Juan la Laguna	6	Junio	2023-03-06T00:00:00	2024-11-08T18:00:00	5	Humedad	84
57669	7	Sololá	717	San Juan la Laguna	12	San Juan la Laguna	6	Junio	2023-03-06T00:00:00	2024-11-08T18:00:00	6	Velocidad del viento	4.8
57670	7	Sololá	717	San Juan la Laguna	12	San Juan la Laguna	6	Junio	2023-03-06T00:00:00	2024-11-08T18:00:00	7	Dirección del viento	4.83
57671	7	Sololá	717	San Juan la Laguna	12	San Juan la Laguna	6	Junio	2023-03-06T00:00:00	2024-11-08T18:00:00	1	Precipitación	0
57672	7	Sololá	717	San Juan la Laguna	12	San Juan la Laguna	6	Junio	2023-03-06T00:00:00	2024-11-08T18:00:00	8	Radiación solar	20
57673	7	Sololá	717	San Juan la Laguna	12	San Juan la Laguna	6	Junio	2023-03-06T00:00:00	2024-11-08T19:00:00	2	Temperatura media	20.9
57674	7	Sololá	717	San Juan la Laguna	12	San Juan la Laguna	6	Junio	2023-03-06T00:00:00	2024-11-08T19:00:00	4	Temperatura máxima	21.4
57675	7	Sololá	717	San Juan la Laguna	12	San Juan la Laguna	6	Junio	2023-03-06T00:00:00	2024-11-08T19:00:00	3	Temperatura mínima	20.9
57676	7	Sololá	717	San Juan la Laguna	12	San Juan la Laguna	6	Junio	2023-03-06T00:00:00	2024-11-08T19:00:00	5	Humedad	85
57677	7	Sololá	717	San Juan la Laguna	12	San Juan la Laguna	6	Junio	2023-03-06T00:00:00	2024-11-08T19:00:00	6	Velocidad del viento	3.2
57678	7	Sololá	717	San Juan la Laguna	12	San Juan la Laguna	6	Junio	2023-03-06T00:00:00	2024-11-08T19:00:00	7	Dirección del viento	3.22
57679	7	Sololá	717	San Juan la Laguna	12	San Juan la Laguna	6	Junio	2023-03-06T00:00:00	2024-11-08T19:00:00	1	Precipitación	0
57680	7	Sololá	717	San Juan la Laguna	12	San Juan la Laguna	6	Junio	2023-03-06T00:00:00	2024-11-08T19:00:00	8	Radiación solar	0
57681	7	Sololá	717	San Juan la Laguna	12	San Juan la Laguna	6	Junio	2023-03-06T00:00:00	2024-11-08T20:00:00	2	Temperatura media	20.7
57682	7	Sololá	717	San Juan la Laguna	12	San Juan la Laguna	6	Junio	2023-03-06T00:00:00	2024-11-08T20:00:00	4	Temperatura máxima	20.9
57683	7	Sololá	717	San Juan la Laguna	12	San Juan la Laguna	6	Junio	2023-03-06T00:00:00	2024-11-08T20:00:00	3	Temperatura mínima	20.7
57684	7	Sololá	717	San Juan la Laguna	12	San Juan la Laguna	6	Junio	2023-03-06T00:00:00	2024-11-08T20:00:00	5	Humedad	82
57685	7	Sololá	717	San Juan la Laguna	12	San Juan la Laguna	6	Junio	2023-03-06T00:00:00	2024-11-08T20:00:00	6	Velocidad del viento	3.2
57686	7	Sololá	717	San Juan la Laguna	12	San Juan la Laguna	6	Junio	2023-03-06T00:00:00	2024-11-08T20:00:00	7	Dirección del viento	3.22
57687	7	Sololá	717	San Juan la Laguna	12	San Juan la Laguna	6	Junio	2023-03-06T00:00:00	2024-11-08T20:00:00	1	Precipitación	0
57688	7	Sololá	717	San Juan la Laguna	12	San Juan la Laguna	6	Junio	2023-03-06T00:00:00	2024-11-08T20:00:00	8	Radiación solar	0
57689	7	Sololá	717	San Juan la Laguna	12	San Juan la Laguna	6	Junio	2023-03-06T00:00:00	2024-11-08T21:00:00	2	Temperatura media	20.6
57690	7	Sololá	717	San Juan la Laguna	12	San Juan la Laguna	6	Junio	2023-03-06T00:00:00	2024-11-08T21:00:00	4	Temperatura máxima	20.8
57691	7	Sololá	717	San Juan la Laguna	12	San Juan la Laguna	6	Junio	2023-03-06T00:00:00	2024-11-08T21:00:00	3	Temperatura mínima	20.5
57692	7	Sololá	717	San Juan la Laguna	12	San Juan la Laguna	6	Junio	2023-03-06T00:00:00	2024-11-08T21:00:00	5	Humedad	82
57693	7	Sololá	717	San Juan la Laguna	12	San Juan la Laguna	6	Junio	2023-03-06T00:00:00	2024-11-08T21:00:00	6	Velocidad del viento	3.2
57694	7	Sololá	717	San Juan la Laguna	12	San Juan la Laguna	6	Junio	2023-03-06T00:00:00	2024-11-08T21:00:00	7	Dirección del viento	3.22
57695	7	Sololá	717	San Juan la Laguna	12	San Juan la Laguna	6	Junio	2023-03-06T00:00:00	2024-11-08T21:00:00	1	Precipitación	0
57696	7	Sololá	717	San Juan la Laguna	12	San Juan la Laguna	6	Junio	2023-03-06T00:00:00	2024-11-08T21:00:00	8	Radiación solar	0
57697	7	Sololá	717	San Juan la Laguna	12	San Juan la Laguna	6	Junio	2023-03-06T00:00:00	2024-11-08T22:00:00	2	Temperatura media	20.8
57698	7	Sololá	717	San Juan la Laguna	12	San Juan la Laguna	6	Junio	2023-03-06T00:00:00	2024-11-08T22:00:00	4	Temperatura máxima	20.9
57699	7	Sololá	717	San Juan la Laguna	12	San Juan la Laguna	6	Junio	2023-03-06T00:00:00	2024-11-08T22:00:00	3	Temperatura mínima	20.5
57700	7	Sololá	717	San Juan la Laguna	12	San Juan la Laguna	6	Junio	2023-03-06T00:00:00	2024-11-08T22:00:00	5	Humedad	80
57701	7	Sololá	717	San Juan la Laguna	12	San Juan la Laguna	6	Junio	2023-03-06T00:00:00	2024-11-08T22:00:00	6	Velocidad del viento	1.6
57702	7	Sololá	717	San Juan la Laguna	12	San Juan la Laguna	6	Junio	2023-03-06T00:00:00	2024-11-08T22:00:00	7	Dirección del viento	1.61
57703	7	Sololá	717	San Juan la Laguna	12	San Juan la Laguna	6	Junio	2023-03-06T00:00:00	2024-11-08T22:00:00	1	Precipitación	0
57704	7	Sololá	717	San Juan la Laguna	12	San Juan la Laguna	6	Junio	2023-03-06T00:00:00	2024-11-08T22:00:00	8	Radiación solar	0
57705	7	Sololá	717	San Juan la Laguna	12	San Juan la Laguna	6	Junio	2023-03-06T00:00:00	2024-11-08T23:00:00	2	Temperatura media	20.3
57706	7	Sololá	717	San Juan la Laguna	12	San Juan la Laguna	6	Junio	2023-03-06T00:00:00	2024-11-08T23:00:00	4	Temperatura máxima	20.8
57707	7	Sololá	717	San Juan la Laguna	12	San Juan la Laguna	6	Junio	2023-03-06T00:00:00	2024-11-08T23:00:00	3	Temperatura mínima	20.2
57708	7	Sololá	717	San Juan la Laguna	12	San Juan la Laguna	6	Junio	2023-03-06T00:00:00	2024-11-08T23:00:00	5	Humedad	82
57709	7	Sololá	717	San Juan la Laguna	12	San Juan la Laguna	6	Junio	2023-03-06T00:00:00	2024-11-08T23:00:00	6	Velocidad del viento	0
57710	7	Sololá	717	San Juan la Laguna	12	San Juan la Laguna	6	Junio	2023-03-06T00:00:00	2024-11-08T23:00:00	7	Dirección del viento	0
57711	7	Sololá	717	San Juan la Laguna	12	San Juan la Laguna	6	Junio	2023-03-06T00:00:00	2024-11-08T23:00:00	1	Precipitación	0
57712	7	Sololá	717	San Juan la Laguna	12	San Juan la Laguna	6	Junio	2023-03-06T00:00:00	2024-11-08T23:00:00	8	Radiación solar	0
57713	7	Sololá	717	San Juan la Laguna	12	San Juan la Laguna	6	Junio	2023-04-06T00:00:00	2024-11-08T00:00:00	2	Temperatura media	20
57714	7	Sololá	717	San Juan la Laguna	12	San Juan la Laguna	6	Junio	2023-04-06T00:00:00	2024-11-08T00:00:00	4	Temperatura máxima	20.3
57715	7	Sololá	717	San Juan la Laguna	12	San Juan la Laguna	6	Junio	2023-04-06T00:00:00	2024-11-08T00:00:00	3	Temperatura mínima	20
57716	7	Sololá	717	San Juan la Laguna	12	San Juan la Laguna	6	Junio	2023-04-06T00:00:00	2024-11-08T00:00:00	5	Humedad	83
57717	7	Sololá	717	San Juan la Laguna	12	San Juan la Laguna	6	Junio	2023-04-06T00:00:00	2024-11-08T00:00:00	6	Velocidad del viento	0
57718	7	Sololá	717	San Juan la Laguna	12	San Juan la Laguna	6	Junio	2023-04-06T00:00:00	2024-11-08T00:00:00	7	Dirección del viento	0
57719	7	Sololá	717	San Juan la Laguna	12	San Juan la Laguna	6	Junio	2023-04-06T00:00:00	2024-11-08T00:00:00	1	Precipitación	0
57720	7	Sololá	717	San Juan la Laguna	12	San Juan la Laguna	6	Junio	2023-04-06T00:00:00	2024-11-08T00:00:00	8	Radiación solar	0
57721	7	Sololá	717	San Juan la Laguna	12	San Juan la Laguna	6	Junio	2023-04-06T00:00:00	2024-11-08T01:00:00	2	Temperatura media	19.2
57722	7	Sololá	717	San Juan la Laguna	12	San Juan la Laguna	6	Junio	2023-04-06T00:00:00	2024-11-08T01:00:00	4	Temperatura máxima	20
57723	7	Sololá	717	San Juan la Laguna	12	San Juan la Laguna	6	Junio	2023-04-06T00:00:00	2024-11-08T01:00:00	3	Temperatura mínima	18.9
57724	7	Sololá	717	San Juan la Laguna	12	San Juan la Laguna	6	Junio	2023-04-06T00:00:00	2024-11-08T01:00:00	5	Humedad	86
57725	7	Sololá	717	San Juan la Laguna	12	San Juan la Laguna	6	Junio	2023-04-06T00:00:00	2024-11-08T01:00:00	6	Velocidad del viento	0
57726	7	Sololá	717	San Juan la Laguna	12	San Juan la Laguna	6	Junio	2023-04-06T00:00:00	2024-11-08T01:00:00	7	Dirección del viento	0
57727	7	Sololá	717	San Juan la Laguna	12	San Juan la Laguna	6	Junio	2023-04-06T00:00:00	2024-11-08T01:00:00	1	Precipitación	0
57728	7	Sololá	717	San Juan la Laguna	12	San Juan la Laguna	6	Junio	2023-04-06T00:00:00	2024-11-08T01:00:00	8	Radiación solar	0
57729	7	Sololá	717	San Juan la Laguna	12	San Juan la Laguna	6	Junio	2023-04-06T00:00:00	2024-11-08T02:00:00	2	Temperatura media	19.2
57730	7	Sololá	717	San Juan la Laguna	12	San Juan la Laguna	6	Junio	2023-04-06T00:00:00	2024-11-08T02:00:00	4	Temperatura máxima	19.5
57731	7	Sololá	717	San Juan la Laguna	12	San Juan la Laguna	6	Junio	2023-04-06T00:00:00	2024-11-08T02:00:00	3	Temperatura mínima	19.1
57732	7	Sololá	717	San Juan la Laguna	12	San Juan la Laguna	6	Junio	2023-04-06T00:00:00	2024-11-08T02:00:00	5	Humedad	86
57733	7	Sololá	717	San Juan la Laguna	12	San Juan la Laguna	6	Junio	2023-04-06T00:00:00	2024-11-08T02:00:00	6	Velocidad del viento	0
57734	7	Sololá	717	San Juan la Laguna	12	San Juan la Laguna	6	Junio	2023-04-06T00:00:00	2024-11-08T02:00:00	7	Dirección del viento	0
57735	7	Sololá	717	San Juan la Laguna	12	San Juan la Laguna	6	Junio	2023-04-06T00:00:00	2024-11-08T02:00:00	1	Precipitación	0
57736	7	Sololá	717	San Juan la Laguna	12	San Juan la Laguna	6	Junio	2023-04-06T00:00:00	2024-11-08T02:00:00	8	Radiación solar	0
57737	7	Sololá	717	San Juan la Laguna	12	San Juan la Laguna	6	Junio	2023-04-06T00:00:00	2024-11-08T03:00:00	2	Temperatura media	18.7
57738	7	Sololá	717	San Juan la Laguna	12	San Juan la Laguna	6	Junio	2023-04-06T00:00:00	2024-11-08T03:00:00	4	Temperatura máxima	19.3
57739	7	Sololá	717	San Juan la Laguna	12	San Juan la Laguna	6	Junio	2023-04-06T00:00:00	2024-11-08T03:00:00	3	Temperatura mínima	18.7
57740	7	Sololá	717	San Juan la Laguna	12	San Juan la Laguna	6	Junio	2023-04-06T00:00:00	2024-11-08T03:00:00	5	Humedad	87
57741	7	Sololá	717	San Juan la Laguna	12	San Juan la Laguna	6	Junio	2023-04-06T00:00:00	2024-11-08T03:00:00	6	Velocidad del viento	0
57742	7	Sololá	717	San Juan la Laguna	12	San Juan la Laguna	6	Junio	2023-04-06T00:00:00	2024-11-08T03:00:00	7	Dirección del viento	0
57743	7	Sololá	717	San Juan la Laguna	12	San Juan la Laguna	6	Junio	2023-04-06T00:00:00	2024-11-08T03:00:00	1	Precipitación	0
57744	7	Sololá	717	San Juan la Laguna	12	San Juan la Laguna	6	Junio	2023-04-06T00:00:00	2024-11-08T03:00:00	8	Radiación solar	0
57745	7	Sololá	717	San Juan la Laguna	12	San Juan la Laguna	6	Junio	2023-04-06T00:00:00	2024-11-08T04:00:00	2	Temperatura media	18.2
57746	7	Sololá	717	San Juan la Laguna	12	San Juan la Laguna	6	Junio	2023-04-06T00:00:00	2024-11-08T04:00:00	4	Temperatura máxima	18.8
57747	7	Sololá	717	San Juan la Laguna	12	San Juan la Laguna	6	Junio	2023-04-06T00:00:00	2024-11-08T04:00:00	3	Temperatura mínima	18.2
57748	7	Sololá	717	San Juan la Laguna	12	San Juan la Laguna	6	Junio	2023-04-06T00:00:00	2024-11-08T04:00:00	5	Humedad	88
57749	7	Sololá	717	San Juan la Laguna	12	San Juan la Laguna	6	Junio	2023-04-06T00:00:00	2024-11-08T04:00:00	6	Velocidad del viento	0
57750	7	Sololá	717	San Juan la Laguna	12	San Juan la Laguna	6	Junio	2023-04-06T00:00:00	2024-11-08T04:00:00	7	Dirección del viento	0
57751	7	Sololá	717	San Juan la Laguna	12	San Juan la Laguna	6	Junio	2023-04-06T00:00:00	2024-11-08T04:00:00	1	Precipitación	0
57752	7	Sololá	717	San Juan la Laguna	12	San Juan la Laguna	6	Junio	2023-04-06T00:00:00	2024-11-08T04:00:00	8	Radiación solar	0
57753	7	Sololá	717	San Juan la Laguna	12	San Juan la Laguna	6	Junio	2023-04-06T00:00:00	2024-11-08T05:00:00	2	Temperatura media	17.9
57754	7	Sololá	717	San Juan la Laguna	12	San Juan la Laguna	6	Junio	2023-04-06T00:00:00	2024-11-08T05:00:00	4	Temperatura máxima	18.2
57755	7	Sololá	717	San Juan la Laguna	12	San Juan la Laguna	6	Junio	2023-04-06T00:00:00	2024-11-08T05:00:00	3	Temperatura mínima	17.9
57756	7	Sololá	717	San Juan la Laguna	12	San Juan la Laguna	6	Junio	2023-04-06T00:00:00	2024-11-08T05:00:00	5	Humedad	87
57757	7	Sololá	717	San Juan la Laguna	12	San Juan la Laguna	6	Junio	2023-04-06T00:00:00	2024-11-08T05:00:00	6	Velocidad del viento	1.6
57758	7	Sololá	717	San Juan la Laguna	12	San Juan la Laguna	6	Junio	2023-04-06T00:00:00	2024-11-08T05:00:00	7	Dirección del viento	1.61
57759	7	Sololá	717	San Juan la Laguna	12	San Juan la Laguna	6	Junio	2023-04-06T00:00:00	2024-11-08T05:00:00	1	Precipitación	0
57760	7	Sololá	717	San Juan la Laguna	12	San Juan la Laguna	6	Junio	2023-04-06T00:00:00	2024-11-08T05:00:00	8	Radiación solar	0
57761	7	Sololá	717	San Juan la Laguna	12	San Juan la Laguna	6	Junio	2023-04-06T00:00:00	2024-11-08T06:00:00	2	Temperatura media	17.6
57762	7	Sololá	717	San Juan la Laguna	12	San Juan la Laguna	6	Junio	2023-04-06T00:00:00	2024-11-08T06:00:00	4	Temperatura máxima	17.9
57763	7	Sololá	717	San Juan la Laguna	12	San Juan la Laguna	6	Junio	2023-04-06T00:00:00	2024-11-08T06:00:00	3	Temperatura mínima	17.6
57764	7	Sololá	717	San Juan la Laguna	12	San Juan la Laguna	6	Junio	2023-04-06T00:00:00	2024-11-08T06:00:00	5	Humedad	88
57765	7	Sololá	717	San Juan la Laguna	12	San Juan la Laguna	6	Junio	2023-04-06T00:00:00	2024-11-08T06:00:00	6	Velocidad del viento	1.6
57766	7	Sololá	717	San Juan la Laguna	12	San Juan la Laguna	6	Junio	2023-04-06T00:00:00	2024-11-08T06:00:00	7	Dirección del viento	1.61
57767	7	Sololá	717	San Juan la Laguna	12	San Juan la Laguna	6	Junio	2023-04-06T00:00:00	2024-11-08T06:00:00	1	Precipitación	0
57768	7	Sololá	717	San Juan la Laguna	12	San Juan la Laguna	6	Junio	2023-04-06T00:00:00	2024-11-08T06:00:00	8	Radiación solar	4
57769	7	Sololá	717	San Juan la Laguna	12	San Juan la Laguna	6	Junio	2023-04-06T00:00:00	2024-11-08T07:00:00	2	Temperatura media	19.3
57770	7	Sololá	717	San Juan la Laguna	12	San Juan la Laguna	6	Junio	2023-04-06T00:00:00	2024-11-08T07:00:00	4	Temperatura máxima	19.3
57771	7	Sololá	717	San Juan la Laguna	12	San Juan la Laguna	6	Junio	2023-04-06T00:00:00	2024-11-08T07:00:00	3	Temperatura mínima	17.6
57772	7	Sololá	717	San Juan la Laguna	12	San Juan la Laguna	6	Junio	2023-04-06T00:00:00	2024-11-08T07:00:00	5	Humedad	84
57773	7	Sololá	717	San Juan la Laguna	12	San Juan la Laguna	6	Junio	2023-04-06T00:00:00	2024-11-08T07:00:00	6	Velocidad del viento	3.2
57774	7	Sololá	717	San Juan la Laguna	12	San Juan la Laguna	6	Junio	2023-04-06T00:00:00	2024-11-08T07:00:00	7	Dirección del viento	3.22
57775	7	Sololá	717	San Juan la Laguna	12	San Juan la Laguna	6	Junio	2023-04-06T00:00:00	2024-11-08T07:00:00	1	Precipitación	0
57776	7	Sololá	717	San Juan la Laguna	12	San Juan la Laguna	6	Junio	2023-04-06T00:00:00	2024-11-08T07:00:00	8	Radiación solar	77
57777	7	Sololá	717	San Juan la Laguna	12	San Juan la Laguna	6	Junio	2023-04-06T00:00:00	2024-11-08T08:00:00	2	Temperatura media	22.4
57778	7	Sololá	717	San Juan la Laguna	12	San Juan la Laguna	6	Junio	2023-04-06T00:00:00	2024-11-08T08:00:00	4	Temperatura máxima	22.6
57779	7	Sololá	717	San Juan la Laguna	12	San Juan la Laguna	6	Junio	2023-04-06T00:00:00	2024-11-08T08:00:00	3	Temperatura mínima	19.3
57780	7	Sololá	717	San Juan la Laguna	12	San Juan la Laguna	6	Junio	2023-04-06T00:00:00	2024-11-08T08:00:00	5	Humedad	78
57781	7	Sololá	717	San Juan la Laguna	12	San Juan la Laguna	6	Junio	2023-04-06T00:00:00	2024-11-08T08:00:00	6	Velocidad del viento	1.6
57782	7	Sololá	717	San Juan la Laguna	12	San Juan la Laguna	6	Junio	2023-04-06T00:00:00	2024-11-08T08:00:00	7	Dirección del viento	1.61
57783	7	Sololá	717	San Juan la Laguna	12	San Juan la Laguna	6	Junio	2023-04-06T00:00:00	2024-11-08T08:00:00	1	Precipitación	0
57784	7	Sololá	717	San Juan la Laguna	12	San Juan la Laguna	6	Junio	2023-04-06T00:00:00	2024-11-08T08:00:00	8	Radiación solar	281
57785	7	Sololá	717	San Juan la Laguna	12	San Juan la Laguna	6	Junio	2023-04-06T00:00:00	2024-11-08T09:00:00	2	Temperatura media	22.7
57786	7	Sololá	717	San Juan la Laguna	12	San Juan la Laguna	6	Junio	2023-04-06T00:00:00	2024-11-08T09:00:00	4	Temperatura máxima	22.7
57787	7	Sololá	717	San Juan la Laguna	12	San Juan la Laguna	6	Junio	2023-04-06T00:00:00	2024-11-08T09:00:00	3	Temperatura mínima	21.9
57788	7	Sololá	717	San Juan la Laguna	12	San Juan la Laguna	6	Junio	2023-04-06T00:00:00	2024-11-08T09:00:00	5	Humedad	77
57789	7	Sololá	717	San Juan la Laguna	12	San Juan la Laguna	6	Junio	2023-04-06T00:00:00	2024-11-08T09:00:00	6	Velocidad del viento	1.6
57790	7	Sololá	717	San Juan la Laguna	12	San Juan la Laguna	6	Junio	2023-04-06T00:00:00	2024-11-08T09:00:00	7	Dirección del viento	1.61
57791	7	Sololá	717	San Juan la Laguna	12	San Juan la Laguna	6	Junio	2023-04-06T00:00:00	2024-11-08T09:00:00	1	Precipitación	0
57792	7	Sololá	717	San Juan la Laguna	12	San Juan la Laguna	6	Junio	2023-04-06T00:00:00	2024-11-08T09:00:00	8	Radiación solar	481
57793	7	Sololá	717	San Juan la Laguna	12	San Juan la Laguna	6	Junio	2023-04-06T00:00:00	2024-11-08T10:00:00	2	Temperatura media	24.1
57794	7	Sololá	717	San Juan la Laguna	12	San Juan la Laguna	6	Junio	2023-04-06T00:00:00	2024-11-08T10:00:00	4	Temperatura máxima	24.1
57795	7	Sololá	717	San Juan la Laguna	12	San Juan la Laguna	6	Junio	2023-04-06T00:00:00	2024-11-08T10:00:00	3	Temperatura mínima	22.6
57796	7	Sololá	717	San Juan la Laguna	12	San Juan la Laguna	6	Junio	2023-04-06T00:00:00	2024-11-08T10:00:00	5	Humedad	65
57797	7	Sololá	717	San Juan la Laguna	12	San Juan la Laguna	6	Junio	2023-04-06T00:00:00	2024-11-08T10:00:00	6	Velocidad del viento	1.6
57798	7	Sololá	717	San Juan la Laguna	12	San Juan la Laguna	6	Junio	2023-04-06T00:00:00	2024-11-08T10:00:00	7	Dirección del viento	1.61
57799	7	Sololá	717	San Juan la Laguna	12	San Juan la Laguna	6	Junio	2023-04-06T00:00:00	2024-11-08T10:00:00	1	Precipitación	0
57800	7	Sololá	717	San Juan la Laguna	12	San Juan la Laguna	6	Junio	2023-04-06T00:00:00	2024-11-08T10:00:00	8	Radiación solar	695
57801	7	Sololá	717	San Juan la Laguna	12	San Juan la Laguna	6	Junio	2023-04-06T00:00:00	2024-11-08T11:00:00	2	Temperatura media	26
57802	7	Sololá	717	San Juan la Laguna	12	San Juan la Laguna	6	Junio	2023-04-06T00:00:00	2024-11-08T11:00:00	4	Temperatura máxima	26.3
57803	7	Sololá	717	San Juan la Laguna	12	San Juan la Laguna	6	Junio	2023-04-06T00:00:00	2024-11-08T11:00:00	3	Temperatura mínima	24.1
57804	7	Sololá	717	San Juan la Laguna	12	San Juan la Laguna	6	Junio	2023-04-06T00:00:00	2024-11-08T11:00:00	5	Humedad	66
57805	7	Sololá	717	San Juan la Laguna	12	San Juan la Laguna	6	Junio	2023-04-06T00:00:00	2024-11-08T11:00:00	6	Velocidad del viento	1.6
57806	7	Sololá	717	San Juan la Laguna	12	San Juan la Laguna	6	Junio	2023-04-06T00:00:00	2024-11-08T11:00:00	7	Dirección del viento	1.61
57807	7	Sololá	717	San Juan la Laguna	12	San Juan la Laguna	6	Junio	2023-04-06T00:00:00	2024-11-08T11:00:00	1	Precipitación	0
57808	7	Sololá	717	San Juan la Laguna	12	San Juan la Laguna	6	Junio	2023-04-06T00:00:00	2024-11-08T11:00:00	8	Radiación solar	854
57809	7	Sololá	717	San Juan la Laguna	12	San Juan la Laguna	6	Junio	2023-04-06T00:00:00	2024-11-08T12:00:00	2	Temperatura media	25.1
57810	7	Sololá	717	San Juan la Laguna	12	San Juan la Laguna	6	Junio	2023-04-06T00:00:00	2024-11-08T12:00:00	4	Temperatura máxima	26.3
57811	7	Sololá	717	San Juan la Laguna	12	San Juan la Laguna	6	Junio	2023-04-06T00:00:00	2024-11-08T12:00:00	3	Temperatura mínima	24.7
57812	7	Sololá	717	San Juan la Laguna	12	San Juan la Laguna	6	Junio	2023-04-06T00:00:00	2024-11-08T12:00:00	5	Humedad	68
57813	7	Sololá	717	San Juan la Laguna	12	San Juan la Laguna	6	Junio	2023-04-06T00:00:00	2024-11-08T12:00:00	6	Velocidad del viento	4.8
57814	7	Sololá	717	San Juan la Laguna	12	San Juan la Laguna	6	Junio	2023-04-06T00:00:00	2024-11-08T12:00:00	7	Dirección del viento	4.83
57815	7	Sololá	717	San Juan la Laguna	12	San Juan la Laguna	6	Junio	2023-04-06T00:00:00	2024-11-08T12:00:00	1	Precipitación	0
57816	7	Sololá	717	San Juan la Laguna	12	San Juan la Laguna	6	Junio	2023-04-06T00:00:00	2024-11-08T12:00:00	8	Radiación solar	734
57817	7	Sololá	717	San Juan la Laguna	12	San Juan la Laguna	6	Junio	2023-04-06T00:00:00	2024-11-08T13:00:00	2	Temperatura media	24.8
57818	7	Sololá	717	San Juan la Laguna	12	San Juan la Laguna	6	Junio	2023-04-06T00:00:00	2024-11-08T13:00:00	4	Temperatura máxima	25.6
57819	7	Sololá	717	San Juan la Laguna	12	San Juan la Laguna	6	Junio	2023-04-06T00:00:00	2024-11-08T13:00:00	3	Temperatura mínima	24.4
57820	7	Sololá	717	San Juan la Laguna	12	San Juan la Laguna	6	Junio	2023-04-06T00:00:00	2024-11-08T13:00:00	5	Humedad	70
57821	7	Sololá	717	San Juan la Laguna	12	San Juan la Laguna	6	Junio	2023-04-06T00:00:00	2024-11-08T13:00:00	6	Velocidad del viento	4.8
57822	7	Sololá	717	San Juan la Laguna	12	San Juan la Laguna	6	Junio	2023-04-06T00:00:00	2024-11-08T13:00:00	7	Dirección del viento	4.83
57823	7	Sololá	717	San Juan la Laguna	12	San Juan la Laguna	6	Junio	2023-04-06T00:00:00	2024-11-08T13:00:00	1	Precipitación	0
57824	7	Sololá	717	San Juan la Laguna	12	San Juan la Laguna	6	Junio	2023-04-06T00:00:00	2024-11-08T13:00:00	8	Radiación solar	495
57825	7	Sololá	717	San Juan la Laguna	12	San Juan la Laguna	6	Junio	2023-04-06T00:00:00	2024-11-08T14:00:00	2	Temperatura media	23.3
57826	7	Sololá	717	San Juan la Laguna	12	San Juan la Laguna	6	Junio	2023-04-06T00:00:00	2024-11-08T14:00:00	4	Temperatura máxima	25.8
57827	7	Sololá	717	San Juan la Laguna	12	San Juan la Laguna	6	Junio	2023-04-06T00:00:00	2024-11-08T14:00:00	3	Temperatura mínima	23.3
57828	7	Sololá	717	San Juan la Laguna	12	San Juan la Laguna	6	Junio	2023-04-06T00:00:00	2024-11-08T14:00:00	5	Humedad	74
57829	7	Sololá	717	San Juan la Laguna	12	San Juan la Laguna	6	Junio	2023-04-06T00:00:00	2024-11-08T14:00:00	6	Velocidad del viento	4.8
57830	7	Sololá	717	San Juan la Laguna	12	San Juan la Laguna	6	Junio	2023-04-06T00:00:00	2024-11-08T14:00:00	7	Dirección del viento	4.83
57831	7	Sololá	717	San Juan la Laguna	12	San Juan la Laguna	6	Junio	2023-04-06T00:00:00	2024-11-08T14:00:00	1	Precipitación	0
57832	7	Sololá	717	San Juan la Laguna	12	San Juan la Laguna	6	Junio	2023-04-06T00:00:00	2024-11-08T14:00:00	8	Radiación solar	531
57833	7	Sololá	717	San Juan la Laguna	12	San Juan la Laguna	6	Junio	2023-04-06T00:00:00	2024-11-08T15:00:00	2	Temperatura media	21.8
57834	7	Sololá	717	San Juan la Laguna	12	San Juan la Laguna	6	Junio	2023-04-06T00:00:00	2024-11-08T15:00:00	4	Temperatura máxima	23.3
57835	7	Sololá	717	San Juan la Laguna	12	San Juan la Laguna	6	Junio	2023-04-06T00:00:00	2024-11-08T15:00:00	3	Temperatura mínima	21.8
57836	7	Sololá	717	San Juan la Laguna	12	San Juan la Laguna	6	Junio	2023-04-06T00:00:00	2024-11-08T15:00:00	5	Humedad	81
57837	7	Sololá	717	San Juan la Laguna	12	San Juan la Laguna	6	Junio	2023-04-06T00:00:00	2024-11-08T15:00:00	6	Velocidad del viento	4.8
57838	7	Sololá	717	San Juan la Laguna	12	San Juan la Laguna	6	Junio	2023-04-06T00:00:00	2024-11-08T15:00:00	7	Dirección del viento	4.83
57839	7	Sololá	717	San Juan la Laguna	12	San Juan la Laguna	6	Junio	2023-04-06T00:00:00	2024-11-08T15:00:00	1	Precipitación	0
57840	7	Sololá	717	San Juan la Laguna	12	San Juan la Laguna	6	Junio	2023-04-06T00:00:00	2024-11-08T15:00:00	8	Radiación solar	63
57841	7	Sololá	717	San Juan la Laguna	12	San Juan la Laguna	6	Junio	2023-04-06T00:00:00	2024-11-08T16:00:00	2	Temperatura media	20.8
57842	7	Sololá	717	San Juan la Laguna	12	San Juan la Laguna	6	Junio	2023-04-06T00:00:00	2024-11-08T16:00:00	4	Temperatura máxima	21.8
57843	7	Sololá	717	San Juan la Laguna	12	San Juan la Laguna	6	Junio	2023-04-06T00:00:00	2024-11-08T16:00:00	3	Temperatura mínima	20.8
57844	7	Sololá	717	San Juan la Laguna	12	San Juan la Laguna	6	Junio	2023-04-06T00:00:00	2024-11-08T16:00:00	5	Humedad	84
57845	7	Sololá	717	San Juan la Laguna	12	San Juan la Laguna	6	Junio	2023-04-06T00:00:00	2024-11-08T16:00:00	6	Velocidad del viento	3.2
57846	7	Sololá	717	San Juan la Laguna	12	San Juan la Laguna	6	Junio	2023-04-06T00:00:00	2024-11-08T16:00:00	7	Dirección del viento	3.22
57847	7	Sololá	717	San Juan la Laguna	12	San Juan la Laguna	6	Junio	2023-04-06T00:00:00	2024-11-08T16:00:00	1	Precipitación	0
57848	7	Sololá	717	San Juan la Laguna	12	San Juan la Laguna	6	Junio	2023-04-06T00:00:00	2024-11-08T16:00:00	8	Radiación solar	8
57849	7	Sololá	717	San Juan la Laguna	12	San Juan la Laguna	6	Junio	2023-04-06T00:00:00	2024-11-08T17:00:00	2	Temperatura media	21.3
57850	7	Sololá	717	San Juan la Laguna	12	San Juan la Laguna	6	Junio	2023-04-06T00:00:00	2024-11-08T17:00:00	4	Temperatura máxima	21.3
57851	7	Sololá	717	San Juan la Laguna	12	San Juan la Laguna	6	Junio	2023-04-06T00:00:00	2024-11-08T17:00:00	3	Temperatura mínima	20.6
57852	7	Sololá	717	San Juan la Laguna	12	San Juan la Laguna	6	Junio	2023-04-06T00:00:00	2024-11-08T17:00:00	5	Humedad	85
57853	7	Sololá	717	San Juan la Laguna	12	San Juan la Laguna	6	Junio	2023-04-06T00:00:00	2024-11-08T17:00:00	6	Velocidad del viento	1.6
57854	7	Sololá	717	San Juan la Laguna	12	San Juan la Laguna	6	Junio	2023-04-06T00:00:00	2024-11-08T17:00:00	7	Dirección del viento	1.61
57855	7	Sololá	717	San Juan la Laguna	12	San Juan la Laguna	6	Junio	2023-04-06T00:00:00	2024-11-08T17:00:00	1	Precipitación	0
57856	7	Sololá	717	San Juan la Laguna	12	San Juan la Laguna	6	Junio	2023-04-06T00:00:00	2024-11-08T17:00:00	8	Radiación solar	12
57857	7	Sololá	717	San Juan la Laguna	12	San Juan la Laguna	6	Junio	2023-04-06T00:00:00	2024-11-08T18:00:00	2	Temperatura media	20.9
57858	7	Sololá	717	San Juan la Laguna	12	San Juan la Laguna	6	Junio	2023-04-06T00:00:00	2024-11-08T18:00:00	4	Temperatura máxima	21.3
57859	7	Sololá	717	San Juan la Laguna	12	San Juan la Laguna	6	Junio	2023-04-06T00:00:00	2024-11-08T18:00:00	3	Temperatura mínima	20.9
57860	7	Sololá	717	San Juan la Laguna	12	San Juan la Laguna	6	Junio	2023-04-06T00:00:00	2024-11-08T18:00:00	5	Humedad	85
57861	7	Sololá	717	San Juan la Laguna	12	San Juan la Laguna	6	Junio	2023-04-06T00:00:00	2024-11-08T18:00:00	6	Velocidad del viento	1.6
57862	7	Sololá	717	San Juan la Laguna	12	San Juan la Laguna	6	Junio	2023-04-06T00:00:00	2024-11-08T18:00:00	7	Dirección del viento	1.61
57863	7	Sololá	717	San Juan la Laguna	12	San Juan la Laguna	6	Junio	2023-04-06T00:00:00	2024-11-08T18:00:00	1	Precipitación	0
57864	7	Sololá	717	San Juan la Laguna	12	San Juan la Laguna	6	Junio	2023-04-06T00:00:00	2024-11-08T18:00:00	8	Radiación solar	5
57865	7	Sololá	717	San Juan la Laguna	12	San Juan la Laguna	6	Junio	2023-04-06T00:00:00	2024-11-08T19:00:00	2	Temperatura media	19.9
57866	7	Sololá	717	San Juan la Laguna	12	San Juan la Laguna	6	Junio	2023-04-06T00:00:00	2024-11-08T19:00:00	4	Temperatura máxima	21
57867	7	Sololá	717	San Juan la Laguna	12	San Juan la Laguna	6	Junio	2023-04-06T00:00:00	2024-11-08T19:00:00	3	Temperatura mínima	19.5
57868	7	Sololá	717	San Juan la Laguna	12	San Juan la Laguna	6	Junio	2023-04-06T00:00:00	2024-11-08T19:00:00	5	Humedad	82
57869	7	Sololá	717	San Juan la Laguna	12	San Juan la Laguna	6	Junio	2023-04-06T00:00:00	2024-11-08T19:00:00	6	Velocidad del viento	4.8
57870	7	Sololá	717	San Juan la Laguna	12	San Juan la Laguna	6	Junio	2023-04-06T00:00:00	2024-11-08T19:00:00	7	Dirección del viento	4.83
57871	7	Sololá	717	San Juan la Laguna	12	San Juan la Laguna	6	Junio	2023-04-06T00:00:00	2024-11-08T19:00:00	1	Precipitación	0
57872	7	Sololá	717	San Juan la Laguna	12	San Juan la Laguna	6	Junio	2023-04-06T00:00:00	2024-11-08T19:00:00	8	Radiación solar	0
57873	7	Sololá	717	San Juan la Laguna	12	San Juan la Laguna	6	Junio	2023-04-06T00:00:00	2024-11-08T20:00:00	2	Temperatura media	19.9
57874	7	Sololá	717	San Juan la Laguna	12	San Juan la Laguna	6	Junio	2023-04-06T00:00:00	2024-11-08T20:00:00	4	Temperatura máxima	20.8
57875	7	Sololá	717	San Juan la Laguna	12	San Juan la Laguna	6	Junio	2023-04-06T00:00:00	2024-11-08T20:00:00	3	Temperatura mínima	19.9
57876	7	Sololá	717	San Juan la Laguna	12	San Juan la Laguna	6	Junio	2023-04-06T00:00:00	2024-11-08T20:00:00	5	Humedad	80
57877	7	Sololá	717	San Juan la Laguna	12	San Juan la Laguna	6	Junio	2023-04-06T00:00:00	2024-11-08T20:00:00	6	Velocidad del viento	1.6
57878	7	Sololá	717	San Juan la Laguna	12	San Juan la Laguna	6	Junio	2023-04-06T00:00:00	2024-11-08T20:00:00	7	Dirección del viento	1.61
57879	7	Sololá	717	San Juan la Laguna	12	San Juan la Laguna	6	Junio	2023-04-06T00:00:00	2024-11-08T20:00:00	1	Precipitación	0
57880	7	Sololá	717	San Juan la Laguna	12	San Juan la Laguna	6	Junio	2023-04-06T00:00:00	2024-11-08T20:00:00	8	Radiación solar	0
57881	7	Sololá	717	San Juan la Laguna	12	San Juan la Laguna	6	Junio	2023-04-06T00:00:00	2024-11-08T21:00:00	2	Temperatura media	19.2
57882	7	Sololá	717	San Juan la Laguna	12	San Juan la Laguna	6	Junio	2023-04-06T00:00:00	2024-11-08T21:00:00	4	Temperatura máxima	19.9
57883	7	Sololá	717	San Juan la Laguna	12	San Juan la Laguna	6	Junio	2023-04-06T00:00:00	2024-11-08T21:00:00	3	Temperatura mínima	19.1
57884	7	Sololá	717	San Juan la Laguna	12	San Juan la Laguna	6	Junio	2023-04-06T00:00:00	2024-11-08T21:00:00	5	Humedad	82
57885	7	Sololá	717	San Juan la Laguna	12	San Juan la Laguna	6	Junio	2023-04-06T00:00:00	2024-11-08T21:00:00	6	Velocidad del viento	3.2
57886	7	Sololá	717	San Juan la Laguna	12	San Juan la Laguna	6	Junio	2023-04-06T00:00:00	2024-11-08T21:00:00	7	Dirección del viento	3.22
57887	7	Sololá	717	San Juan la Laguna	12	San Juan la Laguna	6	Junio	2023-04-06T00:00:00	2024-11-08T21:00:00	1	Precipitación	0
57888	7	Sololá	717	San Juan la Laguna	12	San Juan la Laguna	6	Junio	2023-04-06T00:00:00	2024-11-08T21:00:00	8	Radiación solar	0
57889	7	Sololá	717	San Juan la Laguna	12	San Juan la Laguna	6	Junio	2023-04-06T00:00:00	2024-11-08T22:00:00	2	Temperatura media	19
57890	7	Sololá	717	San Juan la Laguna	12	San Juan la Laguna	6	Junio	2023-04-06T00:00:00	2024-11-08T22:00:00	4	Temperatura máxima	19.4
57891	7	Sololá	717	San Juan la Laguna	12	San Juan la Laguna	6	Junio	2023-04-06T00:00:00	2024-11-08T22:00:00	3	Temperatura mínima	18.8
57892	7	Sololá	717	San Juan la Laguna	12	San Juan la Laguna	6	Junio	2023-04-06T00:00:00	2024-11-08T22:00:00	5	Humedad	83
57893	7	Sololá	717	San Juan la Laguna	12	San Juan la Laguna	6	Junio	2023-04-06T00:00:00	2024-11-08T22:00:00	6	Velocidad del viento	1.6
57894	7	Sololá	717	San Juan la Laguna	12	San Juan la Laguna	6	Junio	2023-04-06T00:00:00	2024-11-08T22:00:00	7	Dirección del viento	1.61
57895	7	Sololá	717	San Juan la Laguna	12	San Juan la Laguna	6	Junio	2023-04-06T00:00:00	2024-11-08T22:00:00	1	Precipitación	0
57896	7	Sololá	717	San Juan la Laguna	12	San Juan la Laguna	6	Junio	2023-04-06T00:00:00	2024-11-08T22:00:00	8	Radiación solar	0
57897	7	Sololá	717	San Juan la Laguna	12	San Juan la Laguna	6	Junio	2023-04-06T00:00:00	2024-11-08T23:00:00	2	Temperatura media	18.7
57898	7	Sololá	717	San Juan la Laguna	12	San Juan la Laguna	6	Junio	2023-04-06T00:00:00	2024-11-08T23:00:00	4	Temperatura máxima	19.1
57899	7	Sololá	717	San Juan la Laguna	12	San Juan la Laguna	6	Junio	2023-04-06T00:00:00	2024-11-08T23:00:00	3	Temperatura mínima	18.7
57900	7	Sololá	717	San Juan la Laguna	12	San Juan la Laguna	6	Junio	2023-04-06T00:00:00	2024-11-08T23:00:00	5	Humedad	86
57901	7	Sololá	717	San Juan la Laguna	12	San Juan la Laguna	6	Junio	2023-04-06T00:00:00	2024-11-08T23:00:00	6	Velocidad del viento	0
57902	7	Sololá	717	San Juan la Laguna	12	San Juan la Laguna	6	Junio	2023-04-06T00:00:00	2024-11-08T23:00:00	7	Dirección del viento	0
57903	7	Sololá	717	San Juan la Laguna	12	San Juan la Laguna	6	Junio	2023-04-06T00:00:00	2024-11-08T23:00:00	1	Precipitación	0
57904	7	Sololá	717	San Juan la Laguna	12	San Juan la Laguna	6	Junio	2023-04-06T00:00:00	2024-11-08T23:00:00	8	Radiación solar	0
57905	7	Sololá	717	San Juan la Laguna	12	San Juan la Laguna	6	Junio	2023-05-06T00:00:00	2024-11-08T00:00:00	2	Temperatura media	17.8
57906	7	Sololá	717	San Juan la Laguna	12	San Juan la Laguna	6	Junio	2023-05-06T00:00:00	2024-11-08T00:00:00	4	Temperatura máxima	18.8
57907	7	Sololá	717	San Juan la Laguna	12	San Juan la Laguna	6	Junio	2023-05-06T00:00:00	2024-11-08T00:00:00	3	Temperatura mínima	17.8
57908	7	Sololá	717	San Juan la Laguna	12	San Juan la Laguna	6	Junio	2023-05-06T00:00:00	2024-11-08T00:00:00	5	Humedad	88
57909	7	Sololá	717	San Juan la Laguna	12	San Juan la Laguna	6	Junio	2023-05-06T00:00:00	2024-11-08T00:00:00	6	Velocidad del viento	0
57910	7	Sololá	717	San Juan la Laguna	12	San Juan la Laguna	6	Junio	2023-05-06T00:00:00	2024-11-08T00:00:00	7	Dirección del viento	0
57911	7	Sololá	717	San Juan la Laguna	12	San Juan la Laguna	6	Junio	2023-05-06T00:00:00	2024-11-08T00:00:00	1	Precipitación	0
57912	7	Sololá	717	San Juan la Laguna	12	San Juan la Laguna	6	Junio	2023-05-06T00:00:00	2024-11-08T00:00:00	8	Radiación solar	0
57913	7	Sololá	717	San Juan la Laguna	12	San Juan la Laguna	6	Junio	2023-05-06T00:00:00	2024-11-08T01:00:00	2	Temperatura media	17.4
57914	7	Sololá	717	San Juan la Laguna	12	San Juan la Laguna	6	Junio	2023-05-06T00:00:00	2024-11-08T01:00:00	4	Temperatura máxima	17.8
57915	7	Sololá	717	San Juan la Laguna	12	San Juan la Laguna	6	Junio	2023-05-06T00:00:00	2024-11-08T01:00:00	3	Temperatura mínima	17.3
57916	7	Sololá	717	San Juan la Laguna	12	San Juan la Laguna	6	Junio	2023-05-06T00:00:00	2024-11-08T01:00:00	5	Humedad	86
57917	7	Sololá	717	San Juan la Laguna	12	San Juan la Laguna	6	Junio	2023-05-06T00:00:00	2024-11-08T01:00:00	6	Velocidad del viento	1.6
57918	7	Sololá	717	San Juan la Laguna	12	San Juan la Laguna	6	Junio	2023-05-06T00:00:00	2024-11-08T01:00:00	7	Dirección del viento	1.61
57919	7	Sololá	717	San Juan la Laguna	12	San Juan la Laguna	6	Junio	2023-05-06T00:00:00	2024-11-08T01:00:00	1	Precipitación	0
57920	7	Sololá	717	San Juan la Laguna	12	San Juan la Laguna	6	Junio	2023-05-06T00:00:00	2024-11-08T01:00:00	8	Radiación solar	0
57921	7	Sololá	717	San Juan la Laguna	12	San Juan la Laguna	6	Junio	2023-05-06T00:00:00	2024-11-08T02:00:00	2	Temperatura media	16.8
57922	7	Sololá	717	San Juan la Laguna	12	San Juan la Laguna	6	Junio	2023-05-06T00:00:00	2024-11-08T02:00:00	4	Temperatura máxima	17.4
57923	7	Sololá	717	San Juan la Laguna	12	San Juan la Laguna	6	Junio	2023-05-06T00:00:00	2024-11-08T02:00:00	3	Temperatura mínima	16.7
57924	7	Sololá	717	San Juan la Laguna	12	San Juan la Laguna	6	Junio	2023-05-06T00:00:00	2024-11-08T02:00:00	5	Humedad	81
57925	7	Sololá	717	San Juan la Laguna	12	San Juan la Laguna	6	Junio	2023-05-06T00:00:00	2024-11-08T02:00:00	6	Velocidad del viento	3.2
57926	7	Sololá	717	San Juan la Laguna	12	San Juan la Laguna	6	Junio	2023-05-06T00:00:00	2024-11-08T02:00:00	7	Dirección del viento	3.22
57927	7	Sololá	717	San Juan la Laguna	12	San Juan la Laguna	6	Junio	2023-05-06T00:00:00	2024-11-08T02:00:00	1	Precipitación	0
57928	7	Sololá	717	San Juan la Laguna	12	San Juan la Laguna	6	Junio	2023-05-06T00:00:00	2024-11-08T02:00:00	8	Radiación solar	0
57929	7	Sololá	717	San Juan la Laguna	12	San Juan la Laguna	6	Junio	2023-05-06T00:00:00	2024-11-08T03:00:00	2	Temperatura media	15.9
57930	7	Sololá	717	San Juan la Laguna	12	San Juan la Laguna	6	Junio	2023-05-06T00:00:00	2024-11-08T03:00:00	4	Temperatura máxima	16.9
57931	7	Sololá	717	San Juan la Laguna	12	San Juan la Laguna	6	Junio	2023-05-06T00:00:00	2024-11-08T03:00:00	3	Temperatura mínima	15.7
57932	7	Sololá	717	San Juan la Laguna	12	San Juan la Laguna	6	Junio	2023-05-06T00:00:00	2024-11-08T03:00:00	5	Humedad	84
57933	7	Sololá	717	San Juan la Laguna	12	San Juan la Laguna	6	Junio	2023-05-06T00:00:00	2024-11-08T03:00:00	6	Velocidad del viento	1.6
57934	7	Sololá	717	San Juan la Laguna	12	San Juan la Laguna	6	Junio	2023-05-06T00:00:00	2024-11-08T03:00:00	7	Dirección del viento	1.61
57935	7	Sololá	717	San Juan la Laguna	12	San Juan la Laguna	6	Junio	2023-05-06T00:00:00	2024-11-08T03:00:00	1	Precipitación	0
57936	7	Sololá	717	San Juan la Laguna	12	San Juan la Laguna	6	Junio	2023-05-06T00:00:00	2024-11-08T03:00:00	8	Radiación solar	0
57937	7	Sololá	717	San Juan la Laguna	12	San Juan la Laguna	6	Junio	2023-05-06T00:00:00	2024-11-08T04:00:00	2	Temperatura media	15.8
57938	7	Sololá	717	San Juan la Laguna	12	San Juan la Laguna	6	Junio	2023-05-06T00:00:00	2024-11-08T04:00:00	4	Temperatura máxima	16.2
57939	7	Sololá	717	San Juan la Laguna	12	San Juan la Laguna	6	Junio	2023-05-06T00:00:00	2024-11-08T04:00:00	3	Temperatura mínima	15.8
57940	7	Sololá	717	San Juan la Laguna	12	San Juan la Laguna	6	Junio	2023-05-06T00:00:00	2024-11-08T04:00:00	5	Humedad	83
57941	7	Sololá	717	San Juan la Laguna	12	San Juan la Laguna	6	Junio	2023-05-06T00:00:00	2024-11-08T04:00:00	6	Velocidad del viento	3.2
57942	7	Sololá	717	San Juan la Laguna	12	San Juan la Laguna	6	Junio	2023-05-06T00:00:00	2024-11-08T04:00:00	7	Dirección del viento	3.22
57943	7	Sololá	717	San Juan la Laguna	12	San Juan la Laguna	6	Junio	2023-05-06T00:00:00	2024-11-08T04:00:00	1	Precipitación	0
57944	7	Sololá	717	San Juan la Laguna	12	San Juan la Laguna	6	Junio	2023-05-06T00:00:00	2024-11-08T04:00:00	8	Radiación solar	0
57945	7	Sololá	717	San Juan la Laguna	12	San Juan la Laguna	6	Junio	2023-05-06T00:00:00	2024-11-08T05:00:00	2	Temperatura media	15.6
57946	7	Sololá	717	San Juan la Laguna	12	San Juan la Laguna	6	Junio	2023-05-06T00:00:00	2024-11-08T05:00:00	4	Temperatura máxima	16.1
57947	7	Sololá	717	San Juan la Laguna	12	San Juan la Laguna	6	Junio	2023-05-06T00:00:00	2024-11-08T05:00:00	3	Temperatura mínima	15.6
57948	7	Sololá	717	San Juan la Laguna	12	San Juan la Laguna	6	Junio	2023-05-06T00:00:00	2024-11-08T05:00:00	5	Humedad	86
57949	7	Sololá	717	San Juan la Laguna	12	San Juan la Laguna	6	Junio	2023-05-06T00:00:00	2024-11-08T05:00:00	6	Velocidad del viento	3.2
57950	7	Sololá	717	San Juan la Laguna	12	San Juan la Laguna	6	Junio	2023-05-06T00:00:00	2024-11-08T05:00:00	7	Dirección del viento	3.22
57951	7	Sololá	717	San Juan la Laguna	12	San Juan la Laguna	6	Junio	2023-05-06T00:00:00	2024-11-08T05:00:00	1	Precipitación	0
57952	7	Sololá	717	San Juan la Laguna	12	San Juan la Laguna	6	Junio	2023-05-06T00:00:00	2024-11-08T05:00:00	8	Radiación solar	0
57953	7	Sololá	717	San Juan la Laguna	12	San Juan la Laguna	6	Junio	2023-05-06T00:00:00	2024-11-08T06:00:00	2	Temperatura media	15.5
57954	7	Sololá	717	San Juan la Laguna	12	San Juan la Laguna	6	Junio	2023-05-06T00:00:00	2024-11-08T06:00:00	4	Temperatura máxima	15.6
57955	7	Sololá	717	San Juan la Laguna	12	San Juan la Laguna	6	Junio	2023-05-06T00:00:00	2024-11-08T06:00:00	3	Temperatura mínima	15.3
57956	7	Sololá	717	San Juan la Laguna	12	San Juan la Laguna	6	Junio	2023-05-06T00:00:00	2024-11-08T06:00:00	5	Humedad	87
57957	7	Sololá	717	San Juan la Laguna	12	San Juan la Laguna	6	Junio	2023-05-06T00:00:00	2024-11-08T06:00:00	6	Velocidad del viento	3.2
57958	7	Sololá	717	San Juan la Laguna	12	San Juan la Laguna	6	Junio	2023-05-06T00:00:00	2024-11-08T06:00:00	7	Dirección del viento	3.22
57959	7	Sololá	717	San Juan la Laguna	12	San Juan la Laguna	6	Junio	2023-05-06T00:00:00	2024-11-08T06:00:00	1	Precipitación	0
57960	7	Sololá	717	San Juan la Laguna	12	San Juan la Laguna	6	Junio	2023-05-06T00:00:00	2024-11-08T06:00:00	8	Radiación solar	4
57961	7	Sololá	717	San Juan la Laguna	12	San Juan la Laguna	6	Junio	2023-05-06T00:00:00	2024-11-08T07:00:00	2	Temperatura media	18.3
57962	7	Sololá	717	San Juan la Laguna	12	San Juan la Laguna	6	Junio	2023-05-06T00:00:00	2024-11-08T07:00:00	4	Temperatura máxima	18.3
57963	7	Sololá	717	San Juan la Laguna	12	San Juan la Laguna	6	Junio	2023-05-06T00:00:00	2024-11-08T07:00:00	3	Temperatura mínima	15.5
57964	7	Sololá	717	San Juan la Laguna	12	San Juan la Laguna	6	Junio	2023-05-06T00:00:00	2024-11-08T07:00:00	5	Humedad	82
57965	7	Sololá	717	San Juan la Laguna	12	San Juan la Laguna	6	Junio	2023-05-06T00:00:00	2024-11-08T07:00:00	6	Velocidad del viento	1.6
57966	7	Sololá	717	San Juan la Laguna	12	San Juan la Laguna	6	Junio	2023-05-06T00:00:00	2024-11-08T07:00:00	7	Dirección del viento	1.61
57967	7	Sololá	717	San Juan la Laguna	12	San Juan la Laguna	6	Junio	2023-05-06T00:00:00	2024-11-08T07:00:00	1	Precipitación	0
57968	7	Sololá	717	San Juan la Laguna	12	San Juan la Laguna	6	Junio	2023-05-06T00:00:00	2024-11-08T07:00:00	8	Radiación solar	115
57969	7	Sololá	717	San Juan la Laguna	12	San Juan la Laguna	6	Junio	2023-05-06T00:00:00	2024-11-08T08:00:00	2	Temperatura media	21.6
57970	7	Sololá	717	San Juan la Laguna	12	San Juan la Laguna	6	Junio	2023-05-06T00:00:00	2024-11-08T08:00:00	4	Temperatura máxima	21.6
57971	7	Sololá	717	San Juan la Laguna	12	San Juan la Laguna	6	Junio	2023-05-06T00:00:00	2024-11-08T08:00:00	3	Temperatura mínima	18.3
57972	7	Sololá	717	San Juan la Laguna	12	San Juan la Laguna	6	Junio	2023-05-06T00:00:00	2024-11-08T08:00:00	5	Humedad	74
57973	7	Sololá	717	San Juan la Laguna	12	San Juan la Laguna	6	Junio	2023-05-06T00:00:00	2024-11-08T08:00:00	6	Velocidad del viento	0
57974	7	Sololá	717	San Juan la Laguna	12	San Juan la Laguna	6	Junio	2023-05-06T00:00:00	2024-11-08T08:00:00	7	Dirección del viento	0
57975	7	Sololá	717	San Juan la Laguna	12	San Juan la Laguna	6	Junio	2023-05-06T00:00:00	2024-11-08T08:00:00	1	Precipitación	0
57976	7	Sololá	717	San Juan la Laguna	12	San Juan la Laguna	6	Junio	2023-05-06T00:00:00	2024-11-08T08:00:00	8	Radiación solar	333
57977	7	Sololá	717	San Juan la Laguna	12	San Juan la Laguna	6	Junio	2023-05-06T00:00:00	2024-11-08T09:00:00	2	Temperatura media	21.4
57978	7	Sololá	717	San Juan la Laguna	12	San Juan la Laguna	6	Junio	2023-05-06T00:00:00	2024-11-08T09:00:00	4	Temperatura máxima	21.9
57979	7	Sololá	717	San Juan la Laguna	12	San Juan la Laguna	6	Junio	2023-05-06T00:00:00	2024-11-08T09:00:00	3	Temperatura mínima	21.3
57980	7	Sololá	717	San Juan la Laguna	12	San Juan la Laguna	6	Junio	2023-05-06T00:00:00	2024-11-08T09:00:00	5	Humedad	74
57981	7	Sololá	717	San Juan la Laguna	12	San Juan la Laguna	6	Junio	2023-05-06T00:00:00	2024-11-08T09:00:00	6	Velocidad del viento	1.6
57982	7	Sololá	717	San Juan la Laguna	12	San Juan la Laguna	6	Junio	2023-05-06T00:00:00	2024-11-08T09:00:00	7	Dirección del viento	1.61
57983	7	Sololá	717	San Juan la Laguna	12	San Juan la Laguna	6	Junio	2023-05-06T00:00:00	2024-11-08T09:00:00	1	Precipitación	0
57984	7	Sololá	717	San Juan la Laguna	12	San Juan la Laguna	6	Junio	2023-05-06T00:00:00	2024-11-08T09:00:00	8	Radiación solar	419
57985	7	Sololá	717	San Juan la Laguna	12	San Juan la Laguna	6	Junio	2023-05-06T00:00:00	2024-11-08T10:00:00	2	Temperatura media	23.4
57986	7	Sololá	717	San Juan la Laguna	12	San Juan la Laguna	6	Junio	2023-05-06T00:00:00	2024-11-08T10:00:00	4	Temperatura máxima	23.7
57987	7	Sololá	717	San Juan la Laguna	12	San Juan la Laguna	6	Junio	2023-05-06T00:00:00	2024-11-08T10:00:00	3	Temperatura mínima	21.4
57988	7	Sololá	717	San Juan la Laguna	12	San Juan la Laguna	6	Junio	2023-05-06T00:00:00	2024-11-08T10:00:00	5	Humedad	58
57989	7	Sololá	717	San Juan la Laguna	12	San Juan la Laguna	6	Junio	2023-05-06T00:00:00	2024-11-08T10:00:00	6	Velocidad del viento	1.6
57990	7	Sololá	717	San Juan la Laguna	12	San Juan la Laguna	6	Junio	2023-05-06T00:00:00	2024-11-08T10:00:00	7	Dirección del viento	1.61
57991	7	Sololá	717	San Juan la Laguna	12	San Juan la Laguna	6	Junio	2023-05-06T00:00:00	2024-11-08T10:00:00	1	Precipitación	0
57992	7	Sololá	717	San Juan la Laguna	12	San Juan la Laguna	6	Junio	2023-05-06T00:00:00	2024-11-08T10:00:00	8	Radiación solar	558
57993	7	Sololá	717	San Juan la Laguna	12	San Juan la Laguna	6	Junio	2023-05-06T00:00:00	2024-11-08T11:00:00	2	Temperatura media	22.6
57994	7	Sololá	717	San Juan la Laguna	12	San Juan la Laguna	6	Junio	2023-05-06T00:00:00	2024-11-08T11:00:00	4	Temperatura máxima	24.3
57995	7	Sololá	717	San Juan la Laguna	12	San Juan la Laguna	6	Junio	2023-05-06T00:00:00	2024-11-08T11:00:00	3	Temperatura mínima	22.3
57996	7	Sololá	717	San Juan la Laguna	12	San Juan la Laguna	6	Junio	2023-05-06T00:00:00	2024-11-08T11:00:00	5	Humedad	69
57997	7	Sololá	717	San Juan la Laguna	12	San Juan la Laguna	6	Junio	2023-05-06T00:00:00	2024-11-08T11:00:00	6	Velocidad del viento	1.6
57998	7	Sololá	717	San Juan la Laguna	12	San Juan la Laguna	6	Junio	2023-05-06T00:00:00	2024-11-08T11:00:00	7	Dirección del viento	1.61
57999	7	Sololá	717	San Juan la Laguna	12	San Juan la Laguna	6	Junio	2023-05-06T00:00:00	2024-11-08T11:00:00	1	Precipitación	0
58000	7	Sololá	717	San Juan la Laguna	12	San Juan la Laguna	6	Junio	2023-05-06T00:00:00	2024-11-08T11:00:00	8	Radiación solar	578
58001	7	Sololá	717	San Juan la Laguna	12	San Juan la Laguna	6	Junio	2023-05-06T00:00:00	2024-11-08T12:00:00	2	Temperatura media	23.8
58002	7	Sololá	717	San Juan la Laguna	12	San Juan la Laguna	6	Junio	2023-05-06T00:00:00	2024-11-08T12:00:00	4	Temperatura máxima	23.8
58003	7	Sololá	717	San Juan la Laguna	12	San Juan la Laguna	6	Junio	2023-05-06T00:00:00	2024-11-08T12:00:00	3	Temperatura mínima	22.6
58004	7	Sololá	717	San Juan la Laguna	12	San Juan la Laguna	6	Junio	2023-05-06T00:00:00	2024-11-08T12:00:00	5	Humedad	63
58005	7	Sololá	717	San Juan la Laguna	12	San Juan la Laguna	6	Junio	2023-05-06T00:00:00	2024-11-08T12:00:00	6	Velocidad del viento	1.6
58006	7	Sololá	717	San Juan la Laguna	12	San Juan la Laguna	6	Junio	2023-05-06T00:00:00	2024-11-08T12:00:00	7	Dirección del viento	1.61
58007	7	Sololá	717	San Juan la Laguna	12	San Juan la Laguna	6	Junio	2023-05-06T00:00:00	2024-11-08T12:00:00	1	Precipitación	0
58008	7	Sololá	717	San Juan la Laguna	12	San Juan la Laguna	6	Junio	2023-05-06T00:00:00	2024-11-08T12:00:00	8	Radiación solar	728
58009	7	Sololá	717	San Juan la Laguna	12	San Juan la Laguna	6	Junio	2023-05-06T00:00:00	2024-11-08T13:00:00	2	Temperatura media	24.3
58010	7	Sololá	717	San Juan la Laguna	12	San Juan la Laguna	6	Junio	2023-05-06T00:00:00	2024-11-08T13:00:00	4	Temperatura máxima	24.3
58011	7	Sololá	717	San Juan la Laguna	12	San Juan la Laguna	6	Junio	2023-05-06T00:00:00	2024-11-08T13:00:00	3	Temperatura mínima	23.4
58012	7	Sololá	717	San Juan la Laguna	12	San Juan la Laguna	6	Junio	2023-05-06T00:00:00	2024-11-08T13:00:00	5	Humedad	64
58013	7	Sololá	717	San Juan la Laguna	12	San Juan la Laguna	6	Junio	2023-05-06T00:00:00	2024-11-08T13:00:00	6	Velocidad del viento	1.6
58014	7	Sololá	717	San Juan la Laguna	12	San Juan la Laguna	6	Junio	2023-05-06T00:00:00	2024-11-08T13:00:00	7	Dirección del viento	1.61
58015	7	Sololá	717	San Juan la Laguna	12	San Juan la Laguna	6	Junio	2023-05-06T00:00:00	2024-11-08T13:00:00	1	Precipitación	0
58016	7	Sololá	717	San Juan la Laguna	12	San Juan la Laguna	6	Junio	2023-05-06T00:00:00	2024-11-08T13:00:00	8	Radiación solar	840
58017	7	Sololá	717	San Juan la Laguna	12	San Juan la Laguna	6	Junio	2023-05-06T00:00:00	2024-11-08T14:00:00	2	Temperatura media	23.4
58018	7	Sololá	717	San Juan la Laguna	12	San Juan la Laguna	6	Junio	2023-05-06T00:00:00	2024-11-08T14:00:00	4	Temperatura máxima	24.5
58019	7	Sololá	717	San Juan la Laguna	12	San Juan la Laguna	6	Junio	2023-05-06T00:00:00	2024-11-08T14:00:00	3	Temperatura mínima	23.4
58020	7	Sololá	717	San Juan la Laguna	12	San Juan la Laguna	6	Junio	2023-05-06T00:00:00	2024-11-08T14:00:00	5	Humedad	67
58021	7	Sololá	717	San Juan la Laguna	12	San Juan la Laguna	6	Junio	2023-05-06T00:00:00	2024-11-08T14:00:00	6	Velocidad del viento	1.6
58022	7	Sololá	717	San Juan la Laguna	12	San Juan la Laguna	6	Junio	2023-05-06T00:00:00	2024-11-08T14:00:00	7	Dirección del viento	1.61
58023	7	Sololá	717	San Juan la Laguna	12	San Juan la Laguna	6	Junio	2023-05-06T00:00:00	2024-11-08T14:00:00	1	Precipitación	0
58024	7	Sololá	717	San Juan la Laguna	12	San Juan la Laguna	6	Junio	2023-05-06T00:00:00	2024-11-08T14:00:00	8	Radiación solar	734
58025	7	Sololá	717	San Juan la Laguna	12	San Juan la Laguna	6	Junio	2023-05-06T00:00:00	2024-11-08T15:00:00	2	Temperatura media	24.1
58026	7	Sololá	717	San Juan la Laguna	12	San Juan la Laguna	6	Junio	2023-05-06T00:00:00	2024-11-08T15:00:00	4	Temperatura máxima	24.1
58027	7	Sololá	717	San Juan la Laguna	12	San Juan la Laguna	6	Junio	2023-05-06T00:00:00	2024-11-08T15:00:00	3	Temperatura mínima	23.3
58028	7	Sololá	717	San Juan la Laguna	12	San Juan la Laguna	6	Junio	2023-05-06T00:00:00	2024-11-08T15:00:00	5	Humedad	69
58029	7	Sololá	717	San Juan la Laguna	12	San Juan la Laguna	6	Junio	2023-05-06T00:00:00	2024-11-08T15:00:00	6	Velocidad del viento	3.2
58030	7	Sololá	717	San Juan la Laguna	12	San Juan la Laguna	6	Junio	2023-05-06T00:00:00	2024-11-08T15:00:00	7	Dirección del viento	3.22
58031	7	Sololá	717	San Juan la Laguna	12	San Juan la Laguna	6	Junio	2023-05-06T00:00:00	2024-11-08T15:00:00	1	Precipitación	0
58032	7	Sololá	717	San Juan la Laguna	12	San Juan la Laguna	6	Junio	2023-05-06T00:00:00	2024-11-08T15:00:00	8	Radiación solar	523
58033	7	Sololá	717	San Juan la Laguna	12	San Juan la Laguna	6	Junio	2023-05-06T00:00:00	2024-11-08T16:00:00	2	Temperatura media	23.1
58034	7	Sololá	717	San Juan la Laguna	12	San Juan la Laguna	6	Junio	2023-05-06T00:00:00	2024-11-08T16:00:00	4	Temperatura máxima	24.2
58035	7	Sololá	717	San Juan la Laguna	12	San Juan la Laguna	6	Junio	2023-05-06T00:00:00	2024-11-08T16:00:00	3	Temperatura mínima	22.6
58036	7	Sololá	717	San Juan la Laguna	12	San Juan la Laguna	6	Junio	2023-05-06T00:00:00	2024-11-08T16:00:00	5	Humedad	72
58037	7	Sololá	717	San Juan la Laguna	12	San Juan la Laguna	6	Junio	2023-05-06T00:00:00	2024-11-08T16:00:00	6	Velocidad del viento	4.8
58038	7	Sololá	717	San Juan la Laguna	12	San Juan la Laguna	6	Junio	2023-05-06T00:00:00	2024-11-08T16:00:00	7	Dirección del viento	4.83
58039	7	Sololá	717	San Juan la Laguna	12	San Juan la Laguna	6	Junio	2023-05-06T00:00:00	2024-11-08T16:00:00	1	Precipitación	0
58040	7	Sololá	717	San Juan la Laguna	12	San Juan la Laguna	6	Junio	2023-05-06T00:00:00	2024-11-08T16:00:00	8	Radiación solar	369
58041	7	Sololá	717	San Juan la Laguna	12	San Juan la Laguna	6	Junio	2023-05-06T00:00:00	2024-11-08T17:00:00	2	Temperatura media	21.4
58042	7	Sololá	717	San Juan la Laguna	12	San Juan la Laguna	6	Junio	2023-05-06T00:00:00	2024-11-08T17:00:00	4	Temperatura máxima	23.1
58043	7	Sololá	717	San Juan la Laguna	12	San Juan la Laguna	6	Junio	2023-05-06T00:00:00	2024-11-08T17:00:00	3	Temperatura mínima	21.4
58044	7	Sololá	717	San Juan la Laguna	12	San Juan la Laguna	6	Junio	2023-05-06T00:00:00	2024-11-08T17:00:00	5	Humedad	76
58045	7	Sololá	717	San Juan la Laguna	12	San Juan la Laguna	6	Junio	2023-05-06T00:00:00	2024-11-08T17:00:00	6	Velocidad del viento	3.2
58046	7	Sololá	717	San Juan la Laguna	12	San Juan la Laguna	6	Junio	2023-05-06T00:00:00	2024-11-08T17:00:00	7	Dirección del viento	3.22
58047	7	Sololá	717	San Juan la Laguna	12	San Juan la Laguna	6	Junio	2023-05-06T00:00:00	2024-11-08T17:00:00	1	Precipitación	0
58048	7	Sololá	717	San Juan la Laguna	12	San Juan la Laguna	6	Junio	2023-05-06T00:00:00	2024-11-08T17:00:00	8	Radiación solar	140
58049	7	Sololá	717	San Juan la Laguna	12	San Juan la Laguna	6	Junio	2023-05-06T00:00:00	2024-11-08T18:00:00	2	Temperatura media	20.9
58050	7	Sololá	717	San Juan la Laguna	12	San Juan la Laguna	6	Junio	2023-05-06T00:00:00	2024-11-08T18:00:00	4	Temperatura máxima	21.4
58051	7	Sololá	717	San Juan la Laguna	12	San Juan la Laguna	6	Junio	2023-05-06T00:00:00	2024-11-08T18:00:00	3	Temperatura mínima	20.9
58052	7	Sololá	717	San Juan la Laguna	12	San Juan la Laguna	6	Junio	2023-05-06T00:00:00	2024-11-08T18:00:00	5	Humedad	79
58053	7	Sololá	717	San Juan la Laguna	12	San Juan la Laguna	6	Junio	2023-05-06T00:00:00	2024-11-08T18:00:00	6	Velocidad del viento	1.6
58054	7	Sololá	717	San Juan la Laguna	12	San Juan la Laguna	6	Junio	2023-05-06T00:00:00	2024-11-08T18:00:00	7	Dirección del viento	1.61
58055	7	Sololá	717	San Juan la Laguna	12	San Juan la Laguna	6	Junio	2023-05-06T00:00:00	2024-11-08T18:00:00	1	Precipitación	0
58056	7	Sololá	717	San Juan la Laguna	12	San Juan la Laguna	6	Junio	2023-05-06T00:00:00	2024-11-08T18:00:00	8	Radiación solar	78
58057	7	Sololá	717	San Juan la Laguna	12	San Juan la Laguna	6	Junio	2023-05-06T00:00:00	2024-11-08T19:00:00	2	Temperatura media	19.9
58058	7	Sololá	717	San Juan la Laguna	12	San Juan la Laguna	6	Junio	2023-05-06T00:00:00	2024-11-08T19:00:00	4	Temperatura máxima	20.9
58059	7	Sololá	717	San Juan la Laguna	12	San Juan la Laguna	6	Junio	2023-05-06T00:00:00	2024-11-08T19:00:00	3	Temperatura mínima	19.8
58060	7	Sololá	717	San Juan la Laguna	12	San Juan la Laguna	6	Junio	2023-05-06T00:00:00	2024-11-08T19:00:00	5	Humedad	82
58061	7	Sololá	717	San Juan la Laguna	12	San Juan la Laguna	6	Junio	2023-05-06T00:00:00	2024-11-08T19:00:00	6	Velocidad del viento	4.8
58062	7	Sololá	717	San Juan la Laguna	12	San Juan la Laguna	6	Junio	2023-05-06T00:00:00	2024-11-08T19:00:00	7	Dirección del viento	4.83
58063	7	Sololá	717	San Juan la Laguna	12	San Juan la Laguna	6	Junio	2023-05-06T00:00:00	2024-11-08T19:00:00	1	Precipitación	0
58064	7	Sololá	717	San Juan la Laguna	12	San Juan la Laguna	6	Junio	2023-05-06T00:00:00	2024-11-08T19:00:00	8	Radiación solar	0
58065	7	Sololá	717	San Juan la Laguna	12	San Juan la Laguna	6	Junio	2023-05-06T00:00:00	2024-11-08T20:00:00	2	Temperatura media	19.8
58066	7	Sololá	717	San Juan la Laguna	12	San Juan la Laguna	6	Junio	2023-05-06T00:00:00	2024-11-08T20:00:00	4	Temperatura máxima	20
58067	7	Sololá	717	San Juan la Laguna	12	San Juan la Laguna	6	Junio	2023-05-06T00:00:00	2024-11-08T20:00:00	3	Temperatura mínima	19.8
58068	7	Sololá	717	San Juan la Laguna	12	San Juan la Laguna	6	Junio	2023-05-06T00:00:00	2024-11-08T20:00:00	5	Humedad	84
58069	7	Sololá	717	San Juan la Laguna	12	San Juan la Laguna	6	Junio	2023-05-06T00:00:00	2024-11-08T20:00:00	6	Velocidad del viento	3.2
58070	7	Sololá	717	San Juan la Laguna	12	San Juan la Laguna	6	Junio	2023-05-06T00:00:00	2024-11-08T20:00:00	7	Dirección del viento	3.22
58071	7	Sololá	717	San Juan la Laguna	12	San Juan la Laguna	6	Junio	2023-05-06T00:00:00	2024-11-08T20:00:00	1	Precipitación	0
58072	7	Sololá	717	San Juan la Laguna	12	San Juan la Laguna	6	Junio	2023-05-06T00:00:00	2024-11-08T20:00:00	8	Radiación solar	0
58073	7	Sololá	717	San Juan la Laguna	12	San Juan la Laguna	6	Junio	2023-05-06T00:00:00	2024-11-08T21:00:00	2	Temperatura media	19.7
58074	7	Sololá	717	San Juan la Laguna	12	San Juan la Laguna	6	Junio	2023-05-06T00:00:00	2024-11-08T21:00:00	4	Temperatura máxima	19.8
58075	7	Sololá	717	San Juan la Laguna	12	San Juan la Laguna	6	Junio	2023-05-06T00:00:00	2024-11-08T21:00:00	3	Temperatura mínima	19.5
58076	7	Sololá	717	San Juan la Laguna	12	San Juan la Laguna	6	Junio	2023-05-06T00:00:00	2024-11-08T21:00:00	5	Humedad	83
58077	7	Sololá	717	San Juan la Laguna	12	San Juan la Laguna	6	Junio	2023-05-06T00:00:00	2024-11-08T21:00:00	6	Velocidad del viento	1.6
58078	7	Sololá	717	San Juan la Laguna	12	San Juan la Laguna	6	Junio	2023-05-06T00:00:00	2024-11-08T21:00:00	7	Dirección del viento	1.61
58079	7	Sololá	717	San Juan la Laguna	12	San Juan la Laguna	6	Junio	2023-05-06T00:00:00	2024-11-08T21:00:00	1	Precipitación	0
58080	7	Sololá	717	San Juan la Laguna	12	San Juan la Laguna	6	Junio	2023-05-06T00:00:00	2024-11-08T21:00:00	8	Radiación solar	0
58081	7	Sololá	717	San Juan la Laguna	12	San Juan la Laguna	6	Junio	2023-05-06T00:00:00	2024-11-08T22:00:00	2	Temperatura media	19.5
58082	7	Sololá	717	San Juan la Laguna	12	San Juan la Laguna	6	Junio	2023-05-06T00:00:00	2024-11-08T22:00:00	4	Temperatura máxima	20
58083	7	Sololá	717	San Juan la Laguna	12	San Juan la Laguna	6	Junio	2023-05-06T00:00:00	2024-11-08T22:00:00	3	Temperatura mínima	19.5
58084	7	Sololá	717	San Juan la Laguna	12	San Juan la Laguna	6	Junio	2023-05-06T00:00:00	2024-11-08T22:00:00	5	Humedad	84
58085	7	Sololá	717	San Juan la Laguna	12	San Juan la Laguna	6	Junio	2023-05-06T00:00:00	2024-11-08T22:00:00	6	Velocidad del viento	0
58086	7	Sololá	717	San Juan la Laguna	12	San Juan la Laguna	6	Junio	2023-05-06T00:00:00	2024-11-08T22:00:00	7	Dirección del viento	0
58087	7	Sololá	717	San Juan la Laguna	12	San Juan la Laguna	6	Junio	2023-05-06T00:00:00	2024-11-08T22:00:00	1	Precipitación	0
58088	7	Sololá	717	San Juan la Laguna	12	San Juan la Laguna	6	Junio	2023-05-06T00:00:00	2024-11-08T22:00:00	8	Radiación solar	0
58089	7	Sololá	717	San Juan la Laguna	12	San Juan la Laguna	6	Junio	2023-05-06T00:00:00	2024-11-08T23:00:00	2	Temperatura media	18.6
58090	7	Sololá	717	San Juan la Laguna	12	San Juan la Laguna	6	Junio	2023-05-06T00:00:00	2024-11-08T23:00:00	4	Temperatura máxima	19.5
58091	7	Sololá	717	San Juan la Laguna	12	San Juan la Laguna	6	Junio	2023-05-06T00:00:00	2024-11-08T23:00:00	3	Temperatura mínima	18.6
58092	7	Sololá	717	San Juan la Laguna	12	San Juan la Laguna	6	Junio	2023-05-06T00:00:00	2024-11-08T23:00:00	5	Humedad	86
58093	7	Sololá	717	San Juan la Laguna	12	San Juan la Laguna	6	Junio	2023-05-06T00:00:00	2024-11-08T23:00:00	6	Velocidad del viento	0
58094	7	Sololá	717	San Juan la Laguna	12	San Juan la Laguna	6	Junio	2023-05-06T00:00:00	2024-11-08T23:00:00	7	Dirección del viento	0
58095	7	Sololá	717	San Juan la Laguna	12	San Juan la Laguna	6	Junio	2023-05-06T00:00:00	2024-11-08T23:00:00	1	Precipitación	0
58096	7	Sololá	717	San Juan la Laguna	12	San Juan la Laguna	6	Junio	2023-05-06T00:00:00	2024-11-08T23:00:00	8	Radiación solar	0
58097	7	Sololá	717	San Juan la Laguna	12	San Juan la Laguna	6	Junio	2023-06-06T00:00:00	2024-11-08T00:00:00	2	Temperatura media	18.7
58098	7	Sololá	717	San Juan la Laguna	12	San Juan la Laguna	6	Junio	2023-06-06T00:00:00	2024-11-08T00:00:00	4	Temperatura máxima	18.8
58099	7	Sololá	717	San Juan la Laguna	12	San Juan la Laguna	6	Junio	2023-06-06T00:00:00	2024-11-08T00:00:00	3	Temperatura mínima	18.5
58100	7	Sololá	717	San Juan la Laguna	12	San Juan la Laguna	6	Junio	2023-06-06T00:00:00	2024-11-08T00:00:00	5	Humedad	84
58101	7	Sololá	717	San Juan la Laguna	12	San Juan la Laguna	6	Junio	2023-06-06T00:00:00	2024-11-08T00:00:00	6	Velocidad del viento	1.6
58102	7	Sololá	717	San Juan la Laguna	12	San Juan la Laguna	6	Junio	2023-06-06T00:00:00	2024-11-08T00:00:00	7	Dirección del viento	1.61
58103	7	Sololá	717	San Juan la Laguna	12	San Juan la Laguna	6	Junio	2023-06-06T00:00:00	2024-11-08T00:00:00	1	Precipitación	0
58104	7	Sololá	717	San Juan la Laguna	12	San Juan la Laguna	6	Junio	2023-06-06T00:00:00	2024-11-08T00:00:00	8	Radiación solar	0
58105	7	Sololá	717	San Juan la Laguna	12	San Juan la Laguna	6	Junio	2023-06-06T00:00:00	2024-11-08T01:00:00	2	Temperatura media	17.8
58106	7	Sololá	717	San Juan la Laguna	12	San Juan la Laguna	6	Junio	2023-06-06T00:00:00	2024-11-08T01:00:00	4	Temperatura máxima	18.7
58107	7	Sololá	717	San Juan la Laguna	12	San Juan la Laguna	6	Junio	2023-06-06T00:00:00	2024-11-08T01:00:00	3	Temperatura mínima	17.8
58108	7	Sololá	717	San Juan la Laguna	12	San Juan la Laguna	6	Junio	2023-06-06T00:00:00	2024-11-08T01:00:00	5	Humedad	84
58109	7	Sololá	717	San Juan la Laguna	12	San Juan la Laguna	6	Junio	2023-06-06T00:00:00	2024-11-08T01:00:00	6	Velocidad del viento	1.6
58110	7	Sololá	717	San Juan la Laguna	12	San Juan la Laguna	6	Junio	2023-06-06T00:00:00	2024-11-08T01:00:00	7	Dirección del viento	1.61
58111	7	Sololá	717	San Juan la Laguna	12	San Juan la Laguna	6	Junio	2023-06-06T00:00:00	2024-11-08T01:00:00	1	Precipitación	0
58112	7	Sololá	717	San Juan la Laguna	12	San Juan la Laguna	6	Junio	2023-06-06T00:00:00	2024-11-08T01:00:00	8	Radiación solar	0
58113	7	Sololá	717	San Juan la Laguna	12	San Juan la Laguna	6	Junio	2023-06-06T00:00:00	2024-11-08T02:00:00	2	Temperatura media	17.8
58114	7	Sololá	717	San Juan la Laguna	12	San Juan la Laguna	6	Junio	2023-06-06T00:00:00	2024-11-08T02:00:00	4	Temperatura máxima	18.2
58115	7	Sololá	717	San Juan la Laguna	12	San Juan la Laguna	6	Junio	2023-06-06T00:00:00	2024-11-08T02:00:00	3	Temperatura mínima	17.8
58116	7	Sololá	717	San Juan la Laguna	12	San Juan la Laguna	6	Junio	2023-06-06T00:00:00	2024-11-08T02:00:00	5	Humedad	83
58117	7	Sololá	717	San Juan la Laguna	12	San Juan la Laguna	6	Junio	2023-06-06T00:00:00	2024-11-08T02:00:00	6	Velocidad del viento	1.6
58118	7	Sololá	717	San Juan la Laguna	12	San Juan la Laguna	6	Junio	2023-06-06T00:00:00	2024-11-08T02:00:00	7	Dirección del viento	1.61
58119	7	Sololá	717	San Juan la Laguna	12	San Juan la Laguna	6	Junio	2023-06-06T00:00:00	2024-11-08T02:00:00	1	Precipitación	0
58120	7	Sololá	717	San Juan la Laguna	12	San Juan la Laguna	6	Junio	2023-06-06T00:00:00	2024-11-08T02:00:00	8	Radiación solar	0
58121	7	Sololá	717	San Juan la Laguna	12	San Juan la Laguna	6	Junio	2023-06-06T00:00:00	2024-11-08T03:00:00	2	Temperatura media	17.6
58122	7	Sololá	717	San Juan la Laguna	12	San Juan la Laguna	6	Junio	2023-06-06T00:00:00	2024-11-08T03:00:00	4	Temperatura máxima	17.8
58123	7	Sololá	717	San Juan la Laguna	12	San Juan la Laguna	6	Junio	2023-06-06T00:00:00	2024-11-08T03:00:00	3	Temperatura mínima	17.5
58124	7	Sololá	717	San Juan la Laguna	12	San Juan la Laguna	6	Junio	2023-06-06T00:00:00	2024-11-08T03:00:00	5	Humedad	82
58125	7	Sololá	717	San Juan la Laguna	12	San Juan la Laguna	6	Junio	2023-06-06T00:00:00	2024-11-08T03:00:00	6	Velocidad del viento	1.6
58126	7	Sololá	717	San Juan la Laguna	12	San Juan la Laguna	6	Junio	2023-06-06T00:00:00	2024-11-08T03:00:00	7	Dirección del viento	1.61
58127	7	Sololá	717	San Juan la Laguna	12	San Juan la Laguna	6	Junio	2023-06-06T00:00:00	2024-11-08T03:00:00	1	Precipitación	0
58128	7	Sololá	717	San Juan la Laguna	12	San Juan la Laguna	6	Junio	2023-06-06T00:00:00	2024-11-08T03:00:00	8	Radiación solar	0
58129	7	Sololá	717	San Juan la Laguna	12	San Juan la Laguna	6	Junio	2023-06-06T00:00:00	2024-11-08T04:00:00	2	Temperatura media	18.1
58130	7	Sololá	717	San Juan la Laguna	12	San Juan la Laguna	6	Junio	2023-06-06T00:00:00	2024-11-08T04:00:00	4	Temperatura máxima	18.1
58131	7	Sololá	717	San Juan la Laguna	12	San Juan la Laguna	6	Junio	2023-06-06T00:00:00	2024-11-08T04:00:00	3	Temperatura mínima	17.1
58132	7	Sololá	717	San Juan la Laguna	12	San Juan la Laguna	6	Junio	2023-06-06T00:00:00	2024-11-08T04:00:00	5	Humedad	80
58133	7	Sololá	717	San Juan la Laguna	12	San Juan la Laguna	6	Junio	2023-06-06T00:00:00	2024-11-08T04:00:00	6	Velocidad del viento	1.6
58134	7	Sololá	717	San Juan la Laguna	12	San Juan la Laguna	6	Junio	2023-06-06T00:00:00	2024-11-08T04:00:00	7	Dirección del viento	1.61
58135	7	Sololá	717	San Juan la Laguna	12	San Juan la Laguna	6	Junio	2023-06-06T00:00:00	2024-11-08T04:00:00	1	Precipitación	0
58136	7	Sololá	717	San Juan la Laguna	12	San Juan la Laguna	6	Junio	2023-06-06T00:00:00	2024-11-08T04:00:00	8	Radiación solar	0
58137	7	Sololá	717	San Juan la Laguna	12	San Juan la Laguna	6	Junio	2023-06-06T00:00:00	2024-11-08T05:00:00	2	Temperatura media	17.2
58138	7	Sololá	717	San Juan la Laguna	12	San Juan la Laguna	6	Junio	2023-06-06T00:00:00	2024-11-08T05:00:00	4	Temperatura máxima	18.1
58139	7	Sololá	717	San Juan la Laguna	12	San Juan la Laguna	6	Junio	2023-06-06T00:00:00	2024-11-08T05:00:00	3	Temperatura mínima	17.1
58140	7	Sololá	717	San Juan la Laguna	12	San Juan la Laguna	6	Junio	2023-06-06T00:00:00	2024-11-08T05:00:00	5	Humedad	81
58141	7	Sololá	717	San Juan la Laguna	12	San Juan la Laguna	6	Junio	2023-06-06T00:00:00	2024-11-08T05:00:00	6	Velocidad del viento	3.2
58142	7	Sololá	717	San Juan la Laguna	12	San Juan la Laguna	6	Junio	2023-06-06T00:00:00	2024-11-08T05:00:00	7	Dirección del viento	3.22
58143	7	Sololá	717	San Juan la Laguna	12	San Juan la Laguna	6	Junio	2023-06-06T00:00:00	2024-11-08T05:00:00	1	Precipitación	0
58144	7	Sololá	717	San Juan la Laguna	12	San Juan la Laguna	6	Junio	2023-06-06T00:00:00	2024-11-08T05:00:00	8	Radiación solar	0
58145	7	Sololá	717	San Juan la Laguna	12	San Juan la Laguna	6	Junio	2023-06-06T00:00:00	2024-11-08T06:00:00	2	Temperatura media	16.6
58146	7	Sololá	717	San Juan la Laguna	12	San Juan la Laguna	6	Junio	2023-06-06T00:00:00	2024-11-08T06:00:00	4	Temperatura máxima	17.2
58147	7	Sololá	717	San Juan la Laguna	12	San Juan la Laguna	6	Junio	2023-06-06T00:00:00	2024-11-08T06:00:00	3	Temperatura mínima	16.3
58148	7	Sololá	717	San Juan la Laguna	12	San Juan la Laguna	6	Junio	2023-06-06T00:00:00	2024-11-08T06:00:00	5	Humedad	82
58149	7	Sololá	717	San Juan la Laguna	12	San Juan la Laguna	6	Junio	2023-06-06T00:00:00	2024-11-08T06:00:00	6	Velocidad del viento	1.6
58150	7	Sololá	717	San Juan la Laguna	12	San Juan la Laguna	6	Junio	2023-06-06T00:00:00	2024-11-08T06:00:00	7	Dirección del viento	1.61
58151	7	Sololá	717	San Juan la Laguna	12	San Juan la Laguna	6	Junio	2023-06-06T00:00:00	2024-11-08T06:00:00	1	Precipitación	0
58152	7	Sololá	717	San Juan la Laguna	12	San Juan la Laguna	6	Junio	2023-06-06T00:00:00	2024-11-08T06:00:00	8	Radiación solar	5
58153	7	Sololá	717	San Juan la Laguna	12	San Juan la Laguna	6	Junio	2023-06-06T00:00:00	2024-11-08T07:00:00	2	Temperatura media	18.1
58154	7	Sololá	717	San Juan la Laguna	12	San Juan la Laguna	6	Junio	2023-06-06T00:00:00	2024-11-08T07:00:00	4	Temperatura máxima	18.1
58155	7	Sololá	717	San Juan la Laguna	12	San Juan la Laguna	6	Junio	2023-06-06T00:00:00	2024-11-08T07:00:00	3	Temperatura mínima	16.6
58156	7	Sololá	717	San Juan la Laguna	12	San Juan la Laguna	6	Junio	2023-06-06T00:00:00	2024-11-08T07:00:00	5	Humedad	80
58157	7	Sololá	717	San Juan la Laguna	12	San Juan la Laguna	6	Junio	2023-06-06T00:00:00	2024-11-08T07:00:00	6	Velocidad del viento	1.6
58158	7	Sololá	717	San Juan la Laguna	12	San Juan la Laguna	6	Junio	2023-06-06T00:00:00	2024-11-08T07:00:00	7	Dirección del viento	1.61
58159	7	Sololá	717	San Juan la Laguna	12	San Juan la Laguna	6	Junio	2023-06-06T00:00:00	2024-11-08T07:00:00	1	Precipitación	0
58160	7	Sololá	717	San Juan la Laguna	12	San Juan la Laguna	6	Junio	2023-06-06T00:00:00	2024-11-08T07:00:00	8	Radiación solar	66
58161	7	Sololá	717	San Juan la Laguna	12	San Juan la Laguna	6	Junio	2023-06-06T00:00:00	2024-11-08T08:00:00	2	Temperatura media	20.7
58162	7	Sololá	717	San Juan la Laguna	12	San Juan la Laguna	6	Junio	2023-06-06T00:00:00	2024-11-08T08:00:00	4	Temperatura máxima	20.7
58163	7	Sololá	717	San Juan la Laguna	12	San Juan la Laguna	6	Junio	2023-06-06T00:00:00	2024-11-08T08:00:00	3	Temperatura mínima	18.1
58164	7	Sololá	717	San Juan la Laguna	12	San Juan la Laguna	6	Junio	2023-06-06T00:00:00	2024-11-08T08:00:00	5	Humedad	75
58165	7	Sololá	717	San Juan la Laguna	12	San Juan la Laguna	6	Junio	2023-06-06T00:00:00	2024-11-08T08:00:00	6	Velocidad del viento	0
58166	7	Sololá	717	San Juan la Laguna	12	San Juan la Laguna	6	Junio	2023-06-06T00:00:00	2024-11-08T08:00:00	7	Dirección del viento	0
58167	7	Sololá	717	San Juan la Laguna	12	San Juan la Laguna	6	Junio	2023-06-06T00:00:00	2024-11-08T08:00:00	1	Precipitación	0
58168	7	Sololá	717	San Juan la Laguna	12	San Juan la Laguna	6	Junio	2023-06-06T00:00:00	2024-11-08T08:00:00	8	Radiación solar	240
58169	7	Sololá	717	San Juan la Laguna	12	San Juan la Laguna	6	Junio	2023-06-06T00:00:00	2024-11-08T09:00:00	2	Temperatura media	21.8
58170	7	Sololá	717	San Juan la Laguna	12	San Juan la Laguna	6	Junio	2023-06-06T00:00:00	2024-11-08T09:00:00	4	Temperatura máxima	22.4
58171	7	Sololá	717	San Juan la Laguna	12	San Juan la Laguna	6	Junio	2023-06-06T00:00:00	2024-11-08T09:00:00	3	Temperatura mínima	20.8
58172	7	Sololá	717	San Juan la Laguna	12	San Juan la Laguna	6	Junio	2023-06-06T00:00:00	2024-11-08T09:00:00	5	Humedad	70
58173	7	Sololá	717	San Juan la Laguna	12	San Juan la Laguna	6	Junio	2023-06-06T00:00:00	2024-11-08T09:00:00	6	Velocidad del viento	1.6
58174	7	Sololá	717	San Juan la Laguna	12	San Juan la Laguna	6	Junio	2023-06-06T00:00:00	2024-11-08T09:00:00	7	Dirección del viento	1.61
58175	7	Sololá	717	San Juan la Laguna	12	San Juan la Laguna	6	Junio	2023-06-06T00:00:00	2024-11-08T09:00:00	1	Precipitación	0
58176	7	Sololá	717	San Juan la Laguna	12	San Juan la Laguna	6	Junio	2023-06-06T00:00:00	2024-11-08T09:00:00	8	Radiación solar	441
58177	7	Sololá	717	San Juan la Laguna	12	San Juan la Laguna	6	Junio	2023-06-06T00:00:00	2024-11-08T10:00:00	2	Temperatura media	23.1
58178	7	Sololá	717	San Juan la Laguna	12	San Juan la Laguna	6	Junio	2023-06-06T00:00:00	2024-11-08T10:00:00	4	Temperatura máxima	23.3
58179	7	Sololá	717	San Juan la Laguna	12	San Juan la Laguna	6	Junio	2023-06-06T00:00:00	2024-11-08T10:00:00	3	Temperatura mínima	21.7
58180	7	Sololá	717	San Juan la Laguna	12	San Juan la Laguna	6	Junio	2023-06-06T00:00:00	2024-11-08T10:00:00	5	Humedad	55
58181	7	Sololá	717	San Juan la Laguna	12	San Juan la Laguna	6	Junio	2023-06-06T00:00:00	2024-11-08T10:00:00	6	Velocidad del viento	1.6
58182	7	Sololá	717	San Juan la Laguna	12	San Juan la Laguna	6	Junio	2023-06-06T00:00:00	2024-11-08T10:00:00	7	Dirección del viento	1.61
58183	7	Sololá	717	San Juan la Laguna	12	San Juan la Laguna	6	Junio	2023-06-06T00:00:00	2024-11-08T10:00:00	1	Precipitación	0
58184	7	Sololá	717	San Juan la Laguna	12	San Juan la Laguna	6	Junio	2023-06-06T00:00:00	2024-11-08T10:00:00	8	Radiación solar	509
58185	7	Sololá	717	San Juan la Laguna	12	San Juan la Laguna	6	Junio	2023-06-06T00:00:00	2024-11-08T11:00:00	2	Temperatura media	24.2
58186	7	Sololá	717	San Juan la Laguna	12	San Juan la Laguna	6	Junio	2023-06-06T00:00:00	2024-11-08T11:00:00	4	Temperatura máxima	24.3
58187	7	Sololá	717	San Juan la Laguna	12	San Juan la Laguna	6	Junio	2023-06-06T00:00:00	2024-11-08T11:00:00	3	Temperatura mínima	23.1
58188	7	Sololá	717	San Juan la Laguna	12	San Juan la Laguna	6	Junio	2023-06-06T00:00:00	2024-11-08T11:00:00	5	Humedad	52
58189	7	Sololá	717	San Juan la Laguna	12	San Juan la Laguna	6	Junio	2023-06-06T00:00:00	2024-11-08T11:00:00	6	Velocidad del viento	1.6
58190	7	Sololá	717	San Juan la Laguna	12	San Juan la Laguna	6	Junio	2023-06-06T00:00:00	2024-11-08T11:00:00	7	Dirección del viento	1.61
58191	7	Sololá	717	San Juan la Laguna	12	San Juan la Laguna	6	Junio	2023-06-06T00:00:00	2024-11-08T11:00:00	1	Precipitación	0
58192	7	Sololá	717	San Juan la Laguna	12	San Juan la Laguna	6	Junio	2023-06-06T00:00:00	2024-11-08T11:00:00	8	Radiación solar	664
58193	7	Sololá	717	San Juan la Laguna	12	San Juan la Laguna	6	Junio	2023-06-06T00:00:00	2024-11-08T12:00:00	2	Temperatura media	23.3
58194	7	Sololá	717	San Juan la Laguna	12	San Juan la Laguna	6	Junio	2023-06-06T00:00:00	2024-11-08T12:00:00	4	Temperatura máxima	24.8
58195	7	Sololá	717	San Juan la Laguna	12	San Juan la Laguna	6	Junio	2023-06-06T00:00:00	2024-11-08T12:00:00	3	Temperatura mínima	23.3
58196	7	Sololá	717	San Juan la Laguna	12	San Juan la Laguna	6	Junio	2023-06-06T00:00:00	2024-11-08T12:00:00	5	Humedad	61
58197	7	Sololá	717	San Juan la Laguna	12	San Juan la Laguna	6	Junio	2023-06-06T00:00:00	2024-11-08T12:00:00	6	Velocidad del viento	1.6
58198	7	Sololá	717	San Juan la Laguna	12	San Juan la Laguna	6	Junio	2023-06-06T00:00:00	2024-11-08T12:00:00	7	Dirección del viento	1.61
58199	7	Sololá	717	San Juan la Laguna	12	San Juan la Laguna	6	Junio	2023-06-06T00:00:00	2024-11-08T12:00:00	1	Precipitación	0
58200	7	Sololá	717	San Juan la Laguna	12	San Juan la Laguna	6	Junio	2023-06-06T00:00:00	2024-11-08T12:00:00	8	Radiación solar	704
58201	7	Sololá	717	San Juan la Laguna	12	San Juan la Laguna	6	Junio	2023-06-06T00:00:00	2024-11-08T13:00:00	2	Temperatura media	22.6
58202	7	Sololá	717	San Juan la Laguna	12	San Juan la Laguna	6	Junio	2023-06-06T00:00:00	2024-11-08T13:00:00	4	Temperatura máxima	23.9
58203	7	Sololá	717	San Juan la Laguna	12	San Juan la Laguna	6	Junio	2023-06-06T00:00:00	2024-11-08T13:00:00	3	Temperatura mínima	22.5
58204	7	Sololá	717	San Juan la Laguna	12	San Juan la Laguna	6	Junio	2023-06-06T00:00:00	2024-11-08T13:00:00	5	Humedad	66
58205	7	Sololá	717	San Juan la Laguna	12	San Juan la Laguna	6	Junio	2023-06-06T00:00:00	2024-11-08T13:00:00	6	Velocidad del viento	1.6
58206	7	Sololá	717	San Juan la Laguna	12	San Juan la Laguna	6	Junio	2023-06-06T00:00:00	2024-11-08T13:00:00	7	Dirección del viento	1.61
58207	7	Sololá	717	San Juan la Laguna	12	San Juan la Laguna	6	Junio	2023-06-06T00:00:00	2024-11-08T13:00:00	1	Precipitación	0
58208	7	Sololá	717	San Juan la Laguna	12	San Juan la Laguna	6	Junio	2023-06-06T00:00:00	2024-11-08T13:00:00	8	Radiación solar	380
58209	7	Sololá	717	San Juan la Laguna	12	San Juan la Laguna	6	Junio	2023-06-06T00:00:00	2024-11-08T14:00:00	2	Temperatura media	22.7
58210	7	Sololá	717	San Juan la Laguna	12	San Juan la Laguna	6	Junio	2023-06-06T00:00:00	2024-11-08T14:00:00	4	Temperatura máxima	22.7
58211	7	Sololá	717	San Juan la Laguna	12	San Juan la Laguna	6	Junio	2023-06-06T00:00:00	2024-11-08T14:00:00	3	Temperatura mínima	22.3
58212	7	Sololá	717	San Juan la Laguna	12	San Juan la Laguna	6	Junio	2023-06-06T00:00:00	2024-11-08T14:00:00	5	Humedad	69
58213	7	Sololá	717	San Juan la Laguna	12	San Juan la Laguna	6	Junio	2023-06-06T00:00:00	2024-11-08T14:00:00	6	Velocidad del viento	1.6
58214	7	Sololá	717	San Juan la Laguna	12	San Juan la Laguna	6	Junio	2023-06-06T00:00:00	2024-11-08T14:00:00	7	Dirección del viento	1.61
58215	7	Sololá	717	San Juan la Laguna	12	San Juan la Laguna	6	Junio	2023-06-06T00:00:00	2024-11-08T14:00:00	1	Precipitación	0
58216	7	Sololá	717	San Juan la Laguna	12	San Juan la Laguna	6	Junio	2023-06-06T00:00:00	2024-11-08T14:00:00	8	Radiación solar	344
58217	7	Sololá	717	San Juan la Laguna	12	San Juan la Laguna	6	Junio	2023-06-06T00:00:00	2024-11-08T15:00:00	2	Temperatura media	22.5
58218	7	Sololá	717	San Juan la Laguna	12	San Juan la Laguna	6	Junio	2023-06-06T00:00:00	2024-11-08T15:00:00	4	Temperatura máxima	23.2
58219	7	Sololá	717	San Juan la Laguna	12	San Juan la Laguna	6	Junio	2023-06-06T00:00:00	2024-11-08T15:00:00	3	Temperatura mínima	22.4
58220	7	Sololá	717	San Juan la Laguna	12	San Juan la Laguna	6	Junio	2023-06-06T00:00:00	2024-11-08T15:00:00	5	Humedad	73
58221	7	Sololá	717	San Juan la Laguna	12	San Juan la Laguna	6	Junio	2023-06-06T00:00:00	2024-11-08T15:00:00	6	Velocidad del viento	1.6
58222	7	Sololá	717	San Juan la Laguna	12	San Juan la Laguna	6	Junio	2023-06-06T00:00:00	2024-11-08T15:00:00	7	Dirección del viento	1.61
58223	7	Sololá	717	San Juan la Laguna	12	San Juan la Laguna	6	Junio	2023-06-06T00:00:00	2024-11-08T15:00:00	1	Precipitación	0
58224	7	Sololá	717	San Juan la Laguna	12	San Juan la Laguna	6	Junio	2023-06-06T00:00:00	2024-11-08T15:00:00	8	Radiación solar	332
58225	7	Sololá	717	San Juan la Laguna	12	San Juan la Laguna	6	Junio	2023-06-06T00:00:00	2024-11-08T16:00:00	2	Temperatura media	21.2
58226	7	Sololá	717	San Juan la Laguna	12	San Juan la Laguna	6	Junio	2023-06-06T00:00:00	2024-11-08T16:00:00	4	Temperatura máxima	22.5
58227	7	Sololá	717	San Juan la Laguna	12	San Juan la Laguna	6	Junio	2023-06-06T00:00:00	2024-11-08T16:00:00	3	Temperatura mínima	21.2
58228	7	Sololá	717	San Juan la Laguna	12	San Juan la Laguna	6	Junio	2023-06-06T00:00:00	2024-11-08T16:00:00	5	Humedad	77
58229	7	Sololá	717	San Juan la Laguna	12	San Juan la Laguna	6	Junio	2023-06-06T00:00:00	2024-11-08T16:00:00	6	Velocidad del viento	3.2
58230	7	Sololá	717	San Juan la Laguna	12	San Juan la Laguna	6	Junio	2023-06-06T00:00:00	2024-11-08T16:00:00	7	Dirección del viento	3.22
58231	7	Sololá	717	San Juan la Laguna	12	San Juan la Laguna	6	Junio	2023-06-06T00:00:00	2024-11-08T16:00:00	1	Precipitación	0
58232	7	Sololá	717	San Juan la Laguna	12	San Juan la Laguna	6	Junio	2023-06-06T00:00:00	2024-11-08T16:00:00	8	Radiación solar	115
58233	7	Sololá	717	San Juan la Laguna	12	San Juan la Laguna	6	Junio	2023-06-06T00:00:00	2024-11-08T17:00:00	2	Temperatura media	21.4
58234	7	Sololá	717	San Juan la Laguna	12	San Juan la Laguna	6	Junio	2023-06-06T00:00:00	2024-11-08T17:00:00	4	Temperatura máxima	21.8
58235	7	Sololá	717	San Juan la Laguna	12	San Juan la Laguna	6	Junio	2023-06-06T00:00:00	2024-11-08T17:00:00	3	Temperatura mínima	21.2
58236	7	Sololá	717	San Juan la Laguna	12	San Juan la Laguna	6	Junio	2023-06-06T00:00:00	2024-11-08T17:00:00	5	Humedad	79
58237	7	Sololá	717	San Juan la Laguna	12	San Juan la Laguna	6	Junio	2023-06-06T00:00:00	2024-11-08T17:00:00	6	Velocidad del viento	1.6
58238	7	Sololá	717	San Juan la Laguna	12	San Juan la Laguna	6	Junio	2023-06-06T00:00:00	2024-11-08T17:00:00	7	Dirección del viento	1.61
58239	7	Sololá	717	San Juan la Laguna	12	San Juan la Laguna	6	Junio	2023-06-06T00:00:00	2024-11-08T17:00:00	1	Precipitación	0
58240	7	Sololá	717	San Juan la Laguna	12	San Juan la Laguna	6	Junio	2023-06-06T00:00:00	2024-11-08T17:00:00	8	Radiación solar	122
58241	7	Sololá	717	San Juan la Laguna	12	San Juan la Laguna	6	Junio	2023-06-06T00:00:00	2024-11-08T18:00:00	2	Temperatura media	21.1
58242	7	Sololá	717	San Juan la Laguna	12	San Juan la Laguna	6	Junio	2023-06-06T00:00:00	2024-11-08T18:00:00	4	Temperatura máxima	21.6
58243	7	Sololá	717	San Juan la Laguna	12	San Juan la Laguna	6	Junio	2023-06-06T00:00:00	2024-11-08T18:00:00	3	Temperatura mínima	21.1
58244	7	Sololá	717	San Juan la Laguna	12	San Juan la Laguna	6	Junio	2023-06-06T00:00:00	2024-11-08T18:00:00	5	Humedad	81
58245	7	Sololá	717	San Juan la Laguna	12	San Juan la Laguna	6	Junio	2023-06-06T00:00:00	2024-11-08T18:00:00	6	Velocidad del viento	1.6
58246	7	Sololá	717	San Juan la Laguna	12	San Juan la Laguna	6	Junio	2023-06-06T00:00:00	2024-11-08T18:00:00	7	Dirección del viento	1.61
58247	7	Sololá	717	San Juan la Laguna	12	San Juan la Laguna	6	Junio	2023-06-06T00:00:00	2024-11-08T18:00:00	1	Precipitación	0
58248	7	Sololá	717	San Juan la Laguna	12	San Juan la Laguna	6	Junio	2023-06-06T00:00:00	2024-11-08T18:00:00	8	Radiación solar	53
58249	7	Sololá	717	San Juan la Laguna	12	San Juan la Laguna	6	Junio	2023-06-06T00:00:00	2024-11-08T19:00:00	2	Temperatura media	20.7
58250	7	Sololá	717	San Juan la Laguna	12	San Juan la Laguna	6	Junio	2023-06-06T00:00:00	2024-11-08T19:00:00	4	Temperatura máxima	21.1
58251	7	Sololá	717	San Juan la Laguna	12	San Juan la Laguna	6	Junio	2023-06-06T00:00:00	2024-11-08T19:00:00	3	Temperatura mínima	20.7
58252	7	Sololá	717	San Juan la Laguna	12	San Juan la Laguna	6	Junio	2023-06-06T00:00:00	2024-11-08T19:00:00	5	Humedad	84
58253	7	Sololá	717	San Juan la Laguna	12	San Juan la Laguna	6	Junio	2023-06-06T00:00:00	2024-11-08T19:00:00	6	Velocidad del viento	0
58254	7	Sololá	717	San Juan la Laguna	12	San Juan la Laguna	6	Junio	2023-06-06T00:00:00	2024-11-08T19:00:00	7	Dirección del viento	0
58255	7	Sololá	717	San Juan la Laguna	12	San Juan la Laguna	6	Junio	2023-06-06T00:00:00	2024-11-08T19:00:00	1	Precipitación	0
58256	7	Sololá	717	San Juan la Laguna	12	San Juan la Laguna	6	Junio	2023-06-06T00:00:00	2024-11-08T19:00:00	8	Radiación solar	0
58257	7	Sololá	717	San Juan la Laguna	12	San Juan la Laguna	6	Junio	2023-06-06T00:00:00	2024-11-08T20:00:00	2	Temperatura media	20.2
58258	7	Sololá	717	San Juan la Laguna	12	San Juan la Laguna	6	Junio	2023-06-06T00:00:00	2024-11-08T20:00:00	4	Temperatura máxima	20.7
58259	7	Sololá	717	San Juan la Laguna	12	San Juan la Laguna	6	Junio	2023-06-06T00:00:00	2024-11-08T20:00:00	3	Temperatura mínima	20.1
58260	7	Sololá	717	San Juan la Laguna	12	San Juan la Laguna	6	Junio	2023-06-06T00:00:00	2024-11-08T20:00:00	5	Humedad	78
58261	7	Sololá	717	San Juan la Laguna	12	San Juan la Laguna	6	Junio	2023-06-06T00:00:00	2024-11-08T20:00:00	6	Velocidad del viento	0
58262	7	Sololá	717	San Juan la Laguna	12	San Juan la Laguna	6	Junio	2023-06-06T00:00:00	2024-11-08T20:00:00	7	Dirección del viento	0
58263	7	Sololá	717	San Juan la Laguna	12	San Juan la Laguna	6	Junio	2023-06-06T00:00:00	2024-11-08T20:00:00	1	Precipitación	0
58264	7	Sololá	717	San Juan la Laguna	12	San Juan la Laguna	6	Junio	2023-06-06T00:00:00	2024-11-08T20:00:00	8	Radiación solar	0
58265	7	Sololá	717	San Juan la Laguna	12	San Juan la Laguna	6	Junio	2023-06-06T00:00:00	2024-11-08T21:00:00	2	Temperatura media	19.5
58266	7	Sololá	717	San Juan la Laguna	12	San Juan la Laguna	6	Junio	2023-06-06T00:00:00	2024-11-08T21:00:00	4	Temperatura máxima	20.6
58267	7	Sololá	717	San Juan la Laguna	12	San Juan la Laguna	6	Junio	2023-06-06T00:00:00	2024-11-08T21:00:00	3	Temperatura mínima	19.5
58268	7	Sololá	717	San Juan la Laguna	12	San Juan la Laguna	6	Junio	2023-06-06T00:00:00	2024-11-08T21:00:00	5	Humedad	80
58269	7	Sololá	717	San Juan la Laguna	12	San Juan la Laguna	6	Junio	2023-06-06T00:00:00	2024-11-08T21:00:00	6	Velocidad del viento	1.6
58270	7	Sololá	717	San Juan la Laguna	12	San Juan la Laguna	6	Junio	2023-06-06T00:00:00	2024-11-08T21:00:00	7	Dirección del viento	1.61
58271	7	Sololá	717	San Juan la Laguna	12	San Juan la Laguna	6	Junio	2023-06-06T00:00:00	2024-11-08T21:00:00	1	Precipitación	0
58272	7	Sololá	717	San Juan la Laguna	12	San Juan la Laguna	6	Junio	2023-06-06T00:00:00	2024-11-08T21:00:00	8	Radiación solar	0
58273	7	Sololá	717	San Juan la Laguna	12	San Juan la Laguna	6	Junio	2023-06-06T00:00:00	2024-11-08T22:00:00	2	Temperatura media	19.2
58274	7	Sololá	717	San Juan la Laguna	12	San Juan la Laguna	6	Junio	2023-06-06T00:00:00	2024-11-08T22:00:00	4	Temperatura máxima	19.5
58275	7	Sololá	717	San Juan la Laguna	12	San Juan la Laguna	6	Junio	2023-06-06T00:00:00	2024-11-08T22:00:00	3	Temperatura mínima	19
58276	7	Sololá	717	San Juan la Laguna	12	San Juan la Laguna	6	Junio	2023-06-06T00:00:00	2024-11-08T22:00:00	5	Humedad	81
58277	7	Sololá	717	San Juan la Laguna	12	San Juan la Laguna	6	Junio	2023-06-06T00:00:00	2024-11-08T22:00:00	6	Velocidad del viento	3.2
58278	7	Sololá	717	San Juan la Laguna	12	San Juan la Laguna	6	Junio	2023-06-06T00:00:00	2024-11-08T22:00:00	7	Dirección del viento	3.22
58279	7	Sololá	717	San Juan la Laguna	12	San Juan la Laguna	6	Junio	2023-06-06T00:00:00	2024-11-08T22:00:00	1	Precipitación	0
58280	7	Sololá	717	San Juan la Laguna	12	San Juan la Laguna	6	Junio	2023-06-06T00:00:00	2024-11-08T22:00:00	8	Radiación solar	0
58281	7	Sololá	717	San Juan la Laguna	12	San Juan la Laguna	6	Junio	2023-06-06T00:00:00	2024-11-08T23:00:00	2	Temperatura media	18.6
58282	7	Sololá	717	San Juan la Laguna	12	San Juan la Laguna	6	Junio	2023-06-06T00:00:00	2024-11-08T23:00:00	4	Temperatura máxima	19.2
58283	7	Sololá	717	San Juan la Laguna	12	San Juan la Laguna	6	Junio	2023-06-06T00:00:00	2024-11-08T23:00:00	3	Temperatura mínima	18.6
58284	7	Sololá	717	San Juan la Laguna	12	San Juan la Laguna	6	Junio	2023-06-06T00:00:00	2024-11-08T23:00:00	5	Humedad	82
58285	7	Sololá	717	San Juan la Laguna	12	San Juan la Laguna	6	Junio	2023-06-06T00:00:00	2024-11-08T23:00:00	6	Velocidad del viento	0
58286	7	Sololá	717	San Juan la Laguna	12	San Juan la Laguna	6	Junio	2023-06-06T00:00:00	2024-11-08T23:00:00	7	Dirección del viento	0
58287	7	Sololá	717	San Juan la Laguna	12	San Juan la Laguna	6	Junio	2023-06-06T00:00:00	2024-11-08T23:00:00	1	Precipitación	0
58288	7	Sololá	717	San Juan la Laguna	12	San Juan la Laguna	6	Junio	2023-06-06T00:00:00	2024-11-08T23:00:00	8	Radiación solar	0
58289	7	Sololá	717	San Juan la Laguna	12	San Juan la Laguna	6	Junio	2023-07-06T00:00:00	2024-11-08T00:00:00	2	Temperatura media	18.1
58290	7	Sololá	717	San Juan la Laguna	12	San Juan la Laguna	6	Junio	2023-07-06T00:00:00	2024-11-08T00:00:00	4	Temperatura máxima	18.7
58291	7	Sololá	717	San Juan la Laguna	12	San Juan la Laguna	6	Junio	2023-07-06T00:00:00	2024-11-08T00:00:00	3	Temperatura mínima	18.1
58292	7	Sololá	717	San Juan la Laguna	12	San Juan la Laguna	6	Junio	2023-07-06T00:00:00	2024-11-08T00:00:00	5	Humedad	85
58293	7	Sololá	717	San Juan la Laguna	12	San Juan la Laguna	6	Junio	2023-07-06T00:00:00	2024-11-08T00:00:00	6	Velocidad del viento	0
58294	7	Sololá	717	San Juan la Laguna	12	San Juan la Laguna	6	Junio	2023-07-06T00:00:00	2024-11-08T00:00:00	7	Dirección del viento	0
58295	7	Sololá	717	San Juan la Laguna	12	San Juan la Laguna	6	Junio	2023-07-06T00:00:00	2024-11-08T00:00:00	1	Precipitación	0
58296	7	Sololá	717	San Juan la Laguna	12	San Juan la Laguna	6	Junio	2023-07-06T00:00:00	2024-11-08T00:00:00	8	Radiación solar	0
58297	7	Sololá	717	San Juan la Laguna	12	San Juan la Laguna	6	Junio	2023-07-06T00:00:00	2024-11-08T01:00:00	2	Temperatura media	18.3
58298	7	Sololá	717	San Juan la Laguna	12	San Juan la Laguna	6	Junio	2023-07-06T00:00:00	2024-11-08T01:00:00	4	Temperatura máxima	18.3
58299	7	Sololá	717	San Juan la Laguna	12	San Juan la Laguna	6	Junio	2023-07-06T00:00:00	2024-11-08T01:00:00	3	Temperatura mínima	18
58300	7	Sololá	717	San Juan la Laguna	12	San Juan la Laguna	6	Junio	2023-07-06T00:00:00	2024-11-08T01:00:00	5	Humedad	85
58301	7	Sololá	717	San Juan la Laguna	12	San Juan la Laguna	6	Junio	2023-07-06T00:00:00	2024-11-08T01:00:00	6	Velocidad del viento	0
58302	7	Sololá	717	San Juan la Laguna	12	San Juan la Laguna	6	Junio	2023-07-06T00:00:00	2024-11-08T01:00:00	7	Dirección del viento	0
58303	7	Sololá	717	San Juan la Laguna	12	San Juan la Laguna	6	Junio	2023-07-06T00:00:00	2024-11-08T01:00:00	1	Precipitación	0
58304	7	Sololá	717	San Juan la Laguna	12	San Juan la Laguna	6	Junio	2023-07-06T00:00:00	2024-11-08T01:00:00	8	Radiación solar	0
58305	7	Sololá	717	San Juan la Laguna	12	San Juan la Laguna	6	Junio	2023-07-06T00:00:00	2024-11-08T02:00:00	2	Temperatura media	17.4
58306	7	Sololá	717	San Juan la Laguna	12	San Juan la Laguna	6	Junio	2023-07-06T00:00:00	2024-11-08T02:00:00	4	Temperatura máxima	18.3
58307	7	Sololá	717	San Juan la Laguna	12	San Juan la Laguna	6	Junio	2023-07-06T00:00:00	2024-11-08T02:00:00	3	Temperatura mínima	17.4
58308	7	Sololá	717	San Juan la Laguna	12	San Juan la Laguna	6	Junio	2023-07-06T00:00:00	2024-11-08T02:00:00	5	Humedad	87
58309	7	Sololá	717	San Juan la Laguna	12	San Juan la Laguna	6	Junio	2023-07-06T00:00:00	2024-11-08T02:00:00	6	Velocidad del viento	0
58310	7	Sololá	717	San Juan la Laguna	12	San Juan la Laguna	6	Junio	2023-07-06T00:00:00	2024-11-08T02:00:00	7	Dirección del viento	0
58311	7	Sololá	717	San Juan la Laguna	12	San Juan la Laguna	6	Junio	2023-07-06T00:00:00	2024-11-08T02:00:00	1	Precipitación	0
58312	7	Sololá	717	San Juan la Laguna	12	San Juan la Laguna	6	Junio	2023-07-06T00:00:00	2024-11-08T02:00:00	8	Radiación solar	0
58313	7	Sololá	717	San Juan la Laguna	12	San Juan la Laguna	6	Junio	2023-07-06T00:00:00	2024-11-08T03:00:00	2	Temperatura media	17.9
58314	7	Sololá	717	San Juan la Laguna	12	San Juan la Laguna	6	Junio	2023-07-06T00:00:00	2024-11-08T03:00:00	4	Temperatura máxima	17.9
58315	7	Sololá	717	San Juan la Laguna	12	San Juan la Laguna	6	Junio	2023-07-06T00:00:00	2024-11-08T03:00:00	3	Temperatura mínima	17.7
58316	7	Sololá	717	San Juan la Laguna	12	San Juan la Laguna	6	Junio	2023-07-06T00:00:00	2024-11-08T03:00:00	5	Humedad	82
58317	7	Sololá	717	San Juan la Laguna	12	San Juan la Laguna	6	Junio	2023-07-06T00:00:00	2024-11-08T03:00:00	6	Velocidad del viento	0
58318	7	Sololá	717	San Juan la Laguna	12	San Juan la Laguna	6	Junio	2023-07-06T00:00:00	2024-11-08T03:00:00	7	Dirección del viento	0
58319	7	Sololá	717	San Juan la Laguna	12	San Juan la Laguna	6	Junio	2023-07-06T00:00:00	2024-11-08T03:00:00	1	Precipitación	0
58320	7	Sololá	717	San Juan la Laguna	12	San Juan la Laguna	6	Junio	2023-07-06T00:00:00	2024-11-08T03:00:00	8	Radiación solar	0
58321	7	Sololá	717	San Juan la Laguna	12	San Juan la Laguna	6	Junio	2023-07-06T00:00:00	2024-11-08T04:00:00	2	Temperatura media	17.9
58322	7	Sololá	717	San Juan la Laguna	12	San Juan la Laguna	6	Junio	2023-07-06T00:00:00	2024-11-08T04:00:00	4	Temperatura máxima	18.4
58323	7	Sololá	717	San Juan la Laguna	12	San Juan la Laguna	6	Junio	2023-07-06T00:00:00	2024-11-08T04:00:00	3	Temperatura mínima	17.9
58324	7	Sololá	717	San Juan la Laguna	12	San Juan la Laguna	6	Junio	2023-07-06T00:00:00	2024-11-08T04:00:00	5	Humedad	83
58325	7	Sololá	717	San Juan la Laguna	12	San Juan la Laguna	6	Junio	2023-07-06T00:00:00	2024-11-08T04:00:00	6	Velocidad del viento	3.2
58326	7	Sololá	717	San Juan la Laguna	12	San Juan la Laguna	6	Junio	2023-07-06T00:00:00	2024-11-08T04:00:00	7	Dirección del viento	1.61
58327	7	Sololá	717	San Juan la Laguna	12	San Juan la Laguna	6	Junio	2023-07-06T00:00:00	2024-11-08T04:00:00	1	Precipitación	0
58328	7	Sololá	717	San Juan la Laguna	12	San Juan la Laguna	6	Junio	2023-07-06T00:00:00	2024-11-08T04:00:00	8	Radiación solar	0
58329	7	Sololá	717	San Juan la Laguna	12	San Juan la Laguna	6	Junio	2023-07-06T00:00:00	2024-11-08T05:00:00	2	Temperatura media	16.8
58330	7	Sololá	717	San Juan la Laguna	12	San Juan la Laguna	6	Junio	2023-07-06T00:00:00	2024-11-08T05:00:00	4	Temperatura máxima	17.2
58331	7	Sololá	717	San Juan la Laguna	12	San Juan la Laguna	6	Junio	2023-07-06T00:00:00	2024-11-08T05:00:00	3	Temperatura mínima	16.8
58332	7	Sololá	717	San Juan la Laguna	12	San Juan la Laguna	6	Junio	2023-07-06T00:00:00	2024-11-08T05:00:00	5	Humedad	84
58333	7	Sololá	717	San Juan la Laguna	12	San Juan la Laguna	6	Junio	2023-07-06T00:00:00	2024-11-08T05:00:00	6	Velocidad del viento	0
58334	7	Sololá	717	San Juan la Laguna	12	San Juan la Laguna	6	Junio	2023-07-06T00:00:00	2024-11-08T05:00:00	7	Dirección del viento	0
58335	7	Sololá	717	San Juan la Laguna	12	San Juan la Laguna	6	Junio	2023-07-06T00:00:00	2024-11-08T05:00:00	1	Precipitación	0
58336	7	Sololá	717	San Juan la Laguna	12	San Juan la Laguna	6	Junio	2023-07-06T00:00:00	2024-11-08T05:00:00	8	Radiación solar	0
58337	7	Sololá	717	San Juan la Laguna	12	San Juan la Laguna	6	Junio	2023-07-06T00:00:00	2024-11-08T06:00:00	2	Temperatura media	17
58338	7	Sololá	717	San Juan la Laguna	12	San Juan la Laguna	6	Junio	2023-07-06T00:00:00	2024-11-08T06:00:00	4	Temperatura máxima	17.1
58339	7	Sololá	717	San Juan la Laguna	12	San Juan la Laguna	6	Junio	2023-07-06T00:00:00	2024-11-08T06:00:00	3	Temperatura mínima	16.8
58340	7	Sololá	717	San Juan la Laguna	12	San Juan la Laguna	6	Junio	2023-07-06T00:00:00	2024-11-08T06:00:00	5	Humedad	82
58341	7	Sololá	717	San Juan la Laguna	12	San Juan la Laguna	6	Junio	2023-07-06T00:00:00	2024-11-08T06:00:00	6	Velocidad del viento	1.6
58342	7	Sololá	717	San Juan la Laguna	12	San Juan la Laguna	6	Junio	2023-07-06T00:00:00	2024-11-08T06:00:00	7	Dirección del viento	0.8
58343	7	Sololá	717	San Juan la Laguna	12	San Juan la Laguna	6	Junio	2023-07-06T00:00:00	2024-11-08T06:00:00	1	Precipitación	0
58344	7	Sololá	717	San Juan la Laguna	12	San Juan la Laguna	6	Junio	2023-07-06T00:00:00	2024-11-08T06:00:00	8	Radiación solar	0
58345	7	Sololá	717	San Juan la Laguna	12	San Juan la Laguna	6	Junio	2023-07-06T00:00:00	2024-11-08T07:00:00	2	Temperatura media	18.1
58346	7	Sololá	717	San Juan la Laguna	12	San Juan la Laguna	6	Junio	2023-07-06T00:00:00	2024-11-08T07:00:00	4	Temperatura máxima	18.2
58347	7	Sololá	717	San Juan la Laguna	12	San Juan la Laguna	6	Junio	2023-07-06T00:00:00	2024-11-08T07:00:00	3	Temperatura mínima	17.5
58348	7	Sololá	717	San Juan la Laguna	12	San Juan la Laguna	6	Junio	2023-07-06T00:00:00	2024-11-08T07:00:00	5	Humedad	83
58349	7	Sololá	717	San Juan la Laguna	12	San Juan la Laguna	6	Junio	2023-07-06T00:00:00	2024-11-08T07:00:00	6	Velocidad del viento	0
58350	7	Sololá	717	San Juan la Laguna	12	San Juan la Laguna	6	Junio	2023-07-06T00:00:00	2024-11-08T07:00:00	7	Dirección del viento	0
58351	7	Sololá	717	San Juan la Laguna	12	San Juan la Laguna	6	Junio	2023-07-06T00:00:00	2024-11-08T07:00:00	1	Precipitación	0
58352	7	Sololá	717	San Juan la Laguna	12	San Juan la Laguna	6	Junio	2023-07-06T00:00:00	2024-11-08T07:00:00	8	Radiación solar	127
58353	7	Sololá	717	San Juan la Laguna	12	San Juan la Laguna	6	Junio	2023-07-06T00:00:00	2024-11-08T08:00:00	2	Temperatura media	20.1
58354	7	Sololá	717	San Juan la Laguna	12	San Juan la Laguna	6	Junio	2023-07-06T00:00:00	2024-11-08T08:00:00	4	Temperatura máxima	20.1
58355	7	Sololá	717	San Juan la Laguna	12	San Juan la Laguna	6	Junio	2023-07-06T00:00:00	2024-11-08T08:00:00	3	Temperatura mínima	18.2
58356	7	Sololá	717	San Juan la Laguna	12	San Juan la Laguna	6	Junio	2023-07-06T00:00:00	2024-11-08T08:00:00	5	Humedad	80
58357	7	Sololá	717	San Juan la Laguna	12	San Juan la Laguna	6	Junio	2023-07-06T00:00:00	2024-11-08T08:00:00	6	Velocidad del viento	0
58358	7	Sololá	717	San Juan la Laguna	12	San Juan la Laguna	6	Junio	2023-07-06T00:00:00	2024-11-08T08:00:00	7	Dirección del viento	0
58359	7	Sololá	717	San Juan la Laguna	12	San Juan la Laguna	6	Junio	2023-07-06T00:00:00	2024-11-08T08:00:00	1	Precipitación	0
58360	7	Sololá	717	San Juan la Laguna	12	San Juan la Laguna	6	Junio	2023-07-06T00:00:00	2024-11-08T08:00:00	8	Radiación solar	226
58361	7	Sololá	717	San Juan la Laguna	12	San Juan la Laguna	6	Junio	2023-07-06T00:00:00	2024-11-08T09:00:00	2	Temperatura media	21.6
58362	7	Sololá	717	San Juan la Laguna	12	San Juan la Laguna	6	Junio	2023-07-06T00:00:00	2024-11-08T09:00:00	4	Temperatura máxima	21.6
58363	7	Sololá	717	San Juan la Laguna	12	San Juan la Laguna	6	Junio	2023-07-06T00:00:00	2024-11-08T09:00:00	3	Temperatura mínima	20.1
58364	7	Sololá	717	San Juan la Laguna	12	San Juan la Laguna	6	Junio	2023-07-06T00:00:00	2024-11-08T09:00:00	5	Humedad	75
58365	7	Sololá	717	San Juan la Laguna	12	San Juan la Laguna	6	Junio	2023-07-06T00:00:00	2024-11-08T09:00:00	6	Velocidad del viento	1.6
58366	7	Sololá	717	San Juan la Laguna	12	San Juan la Laguna	6	Junio	2023-07-06T00:00:00	2024-11-08T09:00:00	7	Dirección del viento	1.61
58367	7	Sololá	717	San Juan la Laguna	12	San Juan la Laguna	6	Junio	2023-07-06T00:00:00	2024-11-08T09:00:00	1	Precipitación	0
58368	7	Sololá	717	San Juan la Laguna	12	San Juan la Laguna	6	Junio	2023-07-06T00:00:00	2024-11-08T09:00:00	8	Radiación solar	389
58369	7	Sololá	717	San Juan la Laguna	12	San Juan la Laguna	6	Junio	2023-07-06T00:00:00	2024-11-08T10:00:00	2	Temperatura media	22.3
58370	7	Sololá	717	San Juan la Laguna	12	San Juan la Laguna	6	Junio	2023-07-06T00:00:00	2024-11-08T10:00:00	4	Temperatura máxima	22.4
58371	7	Sololá	717	San Juan la Laguna	12	San Juan la Laguna	6	Junio	2023-07-06T00:00:00	2024-11-08T10:00:00	3	Temperatura mínima	21.3
58372	7	Sololá	717	San Juan la Laguna	12	San Juan la Laguna	6	Junio	2023-07-06T00:00:00	2024-11-08T10:00:00	5	Humedad	69
58373	7	Sololá	717	San Juan la Laguna	12	San Juan la Laguna	6	Junio	2023-07-06T00:00:00	2024-11-08T10:00:00	6	Velocidad del viento	1.6
58374	7	Sololá	717	San Juan la Laguna	12	San Juan la Laguna	6	Junio	2023-07-06T00:00:00	2024-11-08T10:00:00	7	Dirección del viento	1.61
58375	7	Sololá	717	San Juan la Laguna	12	San Juan la Laguna	6	Junio	2023-07-06T00:00:00	2024-11-08T10:00:00	1	Precipitación	0
58376	7	Sololá	717	San Juan la Laguna	12	San Juan la Laguna	6	Junio	2023-07-06T00:00:00	2024-11-08T10:00:00	8	Radiación solar	705
58377	7	Sololá	717	San Juan la Laguna	12	San Juan la Laguna	6	Junio	2023-07-06T00:00:00	2024-11-08T11:00:00	2	Temperatura media	24.7
58378	7	Sololá	717	San Juan la Laguna	12	San Juan la Laguna	6	Junio	2023-07-06T00:00:00	2024-11-08T11:00:00	4	Temperatura máxima	24.8
58379	7	Sololá	717	San Juan la Laguna	12	San Juan la Laguna	6	Junio	2023-07-06T00:00:00	2024-11-08T11:00:00	3	Temperatura mínima	22.3
58380	7	Sololá	717	San Juan la Laguna	12	San Juan la Laguna	6	Junio	2023-07-06T00:00:00	2024-11-08T11:00:00	5	Humedad	59
58381	7	Sololá	717	San Juan la Laguna	12	San Juan la Laguna	6	Junio	2023-07-06T00:00:00	2024-11-08T11:00:00	6	Velocidad del viento	1.6
58382	7	Sololá	717	San Juan la Laguna	12	San Juan la Laguna	6	Junio	2023-07-06T00:00:00	2024-11-08T11:00:00	7	Dirección del viento	1.61
58383	7	Sololá	717	San Juan la Laguna	12	San Juan la Laguna	6	Junio	2023-07-06T00:00:00	2024-11-08T11:00:00	1	Precipitación	0
58384	7	Sololá	717	San Juan la Laguna	12	San Juan la Laguna	6	Junio	2023-07-06T00:00:00	2024-11-08T11:00:00	8	Radiación solar	848
58385	7	Sololá	717	San Juan la Laguna	12	San Juan la Laguna	6	Junio	2023-07-06T00:00:00	2024-11-08T12:00:00	2	Temperatura media	23.7
58386	7	Sololá	717	San Juan la Laguna	12	San Juan la Laguna	6	Junio	2023-07-06T00:00:00	2024-11-08T12:00:00	4	Temperatura máxima	24.7
58387	7	Sololá	717	San Juan la Laguna	12	San Juan la Laguna	6	Junio	2023-07-06T00:00:00	2024-11-08T12:00:00	3	Temperatura mínima	23.7
58388	7	Sololá	717	San Juan la Laguna	12	San Juan la Laguna	6	Junio	2023-07-06T00:00:00	2024-11-08T12:00:00	5	Humedad	70
58389	7	Sololá	717	San Juan la Laguna	12	San Juan la Laguna	6	Junio	2023-07-06T00:00:00	2024-11-08T12:00:00	6	Velocidad del viento	1.6
58390	7	Sololá	717	San Juan la Laguna	12	San Juan la Laguna	6	Junio	2023-07-06T00:00:00	2024-11-08T12:00:00	7	Dirección del viento	1.61
58391	7	Sololá	717	San Juan la Laguna	12	San Juan la Laguna	6	Junio	2023-07-06T00:00:00	2024-11-08T12:00:00	1	Precipitación	0
58392	7	Sololá	717	San Juan la Laguna	12	San Juan la Laguna	6	Junio	2023-07-06T00:00:00	2024-11-08T12:00:00	8	Radiación solar	928
58393	7	Sololá	717	San Juan la Laguna	12	San Juan la Laguna	6	Junio	2023-07-06T00:00:00	2024-11-08T13:00:00	2	Temperatura media	22.3
58394	7	Sololá	717	San Juan la Laguna	12	San Juan la Laguna	6	Junio	2023-07-06T00:00:00	2024-11-08T13:00:00	4	Temperatura máxima	23.9
58395	7	Sololá	717	San Juan la Laguna	12	San Juan la Laguna	6	Junio	2023-07-06T00:00:00	2024-11-08T13:00:00	3	Temperatura mínima	22.3
58396	7	Sololá	717	San Juan la Laguna	12	San Juan la Laguna	6	Junio	2023-07-06T00:00:00	2024-11-08T13:00:00	5	Humedad	73
58397	7	Sololá	717	San Juan la Laguna	12	San Juan la Laguna	6	Junio	2023-07-06T00:00:00	2024-11-08T13:00:00	6	Velocidad del viento	1.6
58398	7	Sololá	717	San Juan la Laguna	12	San Juan la Laguna	6	Junio	2023-07-06T00:00:00	2024-11-08T13:00:00	7	Dirección del viento	1.61
58399	7	Sololá	717	San Juan la Laguna	12	San Juan la Laguna	6	Junio	2023-07-06T00:00:00	2024-11-08T13:00:00	1	Precipitación	0
58400	7	Sololá	717	San Juan la Laguna	12	San Juan la Laguna	6	Junio	2023-07-06T00:00:00	2024-11-08T13:00:00	8	Radiación solar	551
58401	7	Sololá	717	San Juan la Laguna	12	San Juan la Laguna	6	Junio	2023-07-06T00:00:00	2024-11-08T14:00:00	2	Temperatura media	20.7
58402	7	Sololá	717	San Juan la Laguna	12	San Juan la Laguna	6	Junio	2023-07-06T00:00:00	2024-11-08T14:00:00	4	Temperatura máxima	22.3
58403	7	Sololá	717	San Juan la Laguna	12	San Juan la Laguna	6	Junio	2023-07-06T00:00:00	2024-11-08T14:00:00	3	Temperatura mínima	20.6
58404	7	Sololá	717	San Juan la Laguna	12	San Juan la Laguna	6	Junio	2023-07-06T00:00:00	2024-11-08T14:00:00	5	Humedad	85
58405	7	Sololá	717	San Juan la Laguna	12	San Juan la Laguna	6	Junio	2023-07-06T00:00:00	2024-11-08T14:00:00	6	Velocidad del viento	3.2
58406	7	Sololá	717	San Juan la Laguna	12	San Juan la Laguna	6	Junio	2023-07-06T00:00:00	2024-11-08T14:00:00	7	Dirección del viento	3.22
58407	7	Sololá	717	San Juan la Laguna	12	San Juan la Laguna	6	Junio	2023-07-06T00:00:00	2024-11-08T14:00:00	1	Precipitación	0.2
58408	7	Sololá	717	San Juan la Laguna	12	San Juan la Laguna	6	Junio	2023-07-06T00:00:00	2024-11-08T14:00:00	8	Radiación solar	173
58409	7	Sololá	717	San Juan la Laguna	12	San Juan la Laguna	6	Junio	2023-07-06T00:00:00	2024-11-08T15:00:00	2	Temperatura media	22.5
58410	7	Sololá	717	San Juan la Laguna	12	San Juan la Laguna	6	Junio	2023-07-06T00:00:00	2024-11-08T15:00:00	4	Temperatura máxima	22.5
58411	7	Sololá	717	San Juan la Laguna	12	San Juan la Laguna	6	Junio	2023-07-06T00:00:00	2024-11-08T15:00:00	3	Temperatura mínima	20.7
58412	7	Sololá	717	San Juan la Laguna	12	San Juan la Laguna	6	Junio	2023-07-06T00:00:00	2024-11-08T15:00:00	5	Humedad	76
58413	7	Sololá	717	San Juan la Laguna	12	San Juan la Laguna	6	Junio	2023-07-06T00:00:00	2024-11-08T15:00:00	6	Velocidad del viento	1.6
58414	7	Sololá	717	San Juan la Laguna	12	San Juan la Laguna	6	Junio	2023-07-06T00:00:00	2024-11-08T15:00:00	7	Dirección del viento	1.61
58415	7	Sololá	717	San Juan la Laguna	12	San Juan la Laguna	6	Junio	2023-07-06T00:00:00	2024-11-08T15:00:00	1	Precipitación	0.2
58416	7	Sololá	717	San Juan la Laguna	12	San Juan la Laguna	6	Junio	2023-07-06T00:00:00	2024-11-08T15:00:00	8	Radiación solar	411
58417	7	Sololá	717	San Juan la Laguna	12	San Juan la Laguna	6	Junio	2023-07-06T00:00:00	2024-11-08T16:00:00	2	Temperatura media	21.2
58418	7	Sololá	717	San Juan la Laguna	12	San Juan la Laguna	6	Junio	2023-07-06T00:00:00	2024-11-08T16:00:00	4	Temperatura máxima	22.7
58419	7	Sololá	717	San Juan la Laguna	12	San Juan la Laguna	6	Junio	2023-07-06T00:00:00	2024-11-08T16:00:00	3	Temperatura mínima	21.1
58420	7	Sololá	717	San Juan la Laguna	12	San Juan la Laguna	6	Junio	2023-07-06T00:00:00	2024-11-08T16:00:00	5	Humedad	79
58421	7	Sololá	717	San Juan la Laguna	12	San Juan la Laguna	6	Junio	2023-07-06T00:00:00	2024-11-08T16:00:00	6	Velocidad del viento	3.2
58422	7	Sololá	717	San Juan la Laguna	12	San Juan la Laguna	6	Junio	2023-07-06T00:00:00	2024-11-08T16:00:00	7	Dirección del viento	3.22
58423	7	Sololá	717	San Juan la Laguna	12	San Juan la Laguna	6	Junio	2023-07-06T00:00:00	2024-11-08T16:00:00	1	Precipitación	0
58424	7	Sololá	717	San Juan la Laguna	12	San Juan la Laguna	6	Junio	2023-07-06T00:00:00	2024-11-08T16:00:00	8	Radiación solar	338
58425	7	Sololá	717	San Juan la Laguna	12	San Juan la Laguna	6	Junio	2023-07-06T00:00:00	2024-11-08T17:00:00	2	Temperatura media	21.5
58426	7	Sololá	717	San Juan la Laguna	12	San Juan la Laguna	6	Junio	2023-07-06T00:00:00	2024-11-08T17:00:00	4	Temperatura máxima	22.2
58427	7	Sololá	717	San Juan la Laguna	12	San Juan la Laguna	6	Junio	2023-07-06T00:00:00	2024-11-08T17:00:00	3	Temperatura mínima	21.2
58428	7	Sololá	717	San Juan la Laguna	12	San Juan la Laguna	6	Junio	2023-07-06T00:00:00	2024-11-08T17:00:00	5	Humedad	79
58429	7	Sololá	717	San Juan la Laguna	12	San Juan la Laguna	6	Junio	2023-07-06T00:00:00	2024-11-08T17:00:00	6	Velocidad del viento	3.2
58430	7	Sololá	717	San Juan la Laguna	12	San Juan la Laguna	6	Junio	2023-07-06T00:00:00	2024-11-08T17:00:00	7	Dirección del viento	3.22
58431	7	Sololá	717	San Juan la Laguna	12	San Juan la Laguna	6	Junio	2023-07-06T00:00:00	2024-11-08T17:00:00	1	Precipitación	0
58432	7	Sololá	717	San Juan la Laguna	12	San Juan la Laguna	6	Junio	2023-07-06T00:00:00	2024-11-08T17:00:00	8	Radiación solar	243
58433	7	Sololá	717	San Juan la Laguna	12	San Juan la Laguna	6	Junio	2023-07-06T00:00:00	2024-11-08T18:00:00	2	Temperatura media	20.1
58434	7	Sololá	717	San Juan la Laguna	12	San Juan la Laguna	6	Junio	2023-07-06T00:00:00	2024-11-08T18:00:00	4	Temperatura máxima	21.5
58435	7	Sololá	717	San Juan la Laguna	12	San Juan la Laguna	6	Junio	2023-07-06T00:00:00	2024-11-08T18:00:00	3	Temperatura mínima	20.1
58436	7	Sololá	717	San Juan la Laguna	12	San Juan la Laguna	6	Junio	2023-07-06T00:00:00	2024-11-08T18:00:00	5	Humedad	83
58437	7	Sololá	717	San Juan la Laguna	12	San Juan la Laguna	6	Junio	2023-07-06T00:00:00	2024-11-08T18:00:00	6	Velocidad del viento	3.2
58438	7	Sololá	717	San Juan la Laguna	12	San Juan la Laguna	6	Junio	2023-07-06T00:00:00	2024-11-08T18:00:00	7	Dirección del viento	3.22
58439	7	Sololá	717	San Juan la Laguna	12	San Juan la Laguna	6	Junio	2023-07-06T00:00:00	2024-11-08T18:00:00	1	Precipitación	0
58440	7	Sololá	717	San Juan la Laguna	12	San Juan la Laguna	6	Junio	2023-07-06T00:00:00	2024-11-08T18:00:00	8	Radiación solar	53
58441	7	Sololá	717	San Juan la Laguna	12	San Juan la Laguna	6	Junio	2023-07-06T00:00:00	2024-11-08T19:00:00	2	Temperatura media	19.4
58442	7	Sololá	717	San Juan la Laguna	12	San Juan la Laguna	6	Junio	2023-07-06T00:00:00	2024-11-08T19:00:00	4	Temperatura máxima	20.1
58443	7	Sololá	717	San Juan la Laguna	12	San Juan la Laguna	6	Junio	2023-07-06T00:00:00	2024-11-08T19:00:00	3	Temperatura mínima	19.4
58444	7	Sololá	717	San Juan la Laguna	12	San Juan la Laguna	6	Junio	2023-07-06T00:00:00	2024-11-08T19:00:00	5	Humedad	86
58445	7	Sololá	717	San Juan la Laguna	12	San Juan la Laguna	6	Junio	2023-07-06T00:00:00	2024-11-08T19:00:00	6	Velocidad del viento	1.6
58446	7	Sololá	717	San Juan la Laguna	12	San Juan la Laguna	6	Junio	2023-07-06T00:00:00	2024-11-08T19:00:00	7	Dirección del viento	1.61
58447	7	Sololá	717	San Juan la Laguna	12	San Juan la Laguna	6	Junio	2023-07-06T00:00:00	2024-11-08T19:00:00	1	Precipitación	0.2
58448	7	Sololá	717	San Juan la Laguna	12	San Juan la Laguna	6	Junio	2023-07-06T00:00:00	2024-11-08T19:00:00	8	Radiación solar	0
58449	7	Sololá	717	San Juan la Laguna	12	San Juan la Laguna	6	Junio	2023-07-06T00:00:00	2024-11-08T20:00:00	2	Temperatura media	19.5
58450	7	Sololá	717	San Juan la Laguna	12	San Juan la Laguna	6	Junio	2023-07-06T00:00:00	2024-11-08T20:00:00	4	Temperatura máxima	19.6
58451	7	Sololá	717	San Juan la Laguna	12	San Juan la Laguna	6	Junio	2023-07-06T00:00:00	2024-11-08T20:00:00	3	Temperatura mínima	19.4
58452	7	Sololá	717	San Juan la Laguna	12	San Juan la Laguna	6	Junio	2023-07-06T00:00:00	2024-11-08T20:00:00	5	Humedad	87
58453	7	Sololá	717	San Juan la Laguna	12	San Juan la Laguna	6	Junio	2023-07-06T00:00:00	2024-11-08T20:00:00	6	Velocidad del viento	0
58454	7	Sololá	717	San Juan la Laguna	12	San Juan la Laguna	6	Junio	2023-07-06T00:00:00	2024-11-08T20:00:00	7	Dirección del viento	0
58455	7	Sololá	717	San Juan la Laguna	12	San Juan la Laguna	6	Junio	2023-07-06T00:00:00	2024-11-08T20:00:00	1	Precipitación	0
58456	7	Sololá	717	San Juan la Laguna	12	San Juan la Laguna	6	Junio	2023-07-06T00:00:00	2024-11-08T20:00:00	8	Radiación solar	0
58457	7	Sololá	717	San Juan la Laguna	12	San Juan la Laguna	6	Junio	2023-07-06T00:00:00	2024-11-08T21:00:00	2	Temperatura media	19.2
58458	7	Sololá	717	San Juan la Laguna	12	San Juan la Laguna	6	Junio	2023-07-06T00:00:00	2024-11-08T21:00:00	4	Temperatura máxima	19.5
58459	7	Sololá	717	San Juan la Laguna	12	San Juan la Laguna	6	Junio	2023-07-06T00:00:00	2024-11-08T21:00:00	3	Temperatura mínima	19.1
58460	7	Sololá	717	San Juan la Laguna	12	San Juan la Laguna	6	Junio	2023-07-06T00:00:00	2024-11-08T21:00:00	5	Humedad	88
58461	7	Sololá	717	San Juan la Laguna	12	San Juan la Laguna	6	Junio	2023-07-06T00:00:00	2024-11-08T21:00:00	6	Velocidad del viento	0
58462	7	Sololá	717	San Juan la Laguna	12	San Juan la Laguna	6	Junio	2023-07-06T00:00:00	2024-11-08T21:00:00	7	Dirección del viento	0
58463	7	Sololá	717	San Juan la Laguna	12	San Juan la Laguna	6	Junio	2023-07-06T00:00:00	2024-11-08T21:00:00	1	Precipitación	0
58464	7	Sololá	717	San Juan la Laguna	12	San Juan la Laguna	6	Junio	2023-07-06T00:00:00	2024-11-08T21:00:00	8	Radiación solar	0
58465	7	Sololá	717	San Juan la Laguna	12	San Juan la Laguna	6	Junio	2023-07-06T00:00:00	2024-11-08T22:00:00	2	Temperatura media	18.8
58466	7	Sololá	717	San Juan la Laguna	12	San Juan la Laguna	6	Junio	2023-07-06T00:00:00	2024-11-08T22:00:00	4	Temperatura máxima	19.2
58467	7	Sololá	717	San Juan la Laguna	12	San Juan la Laguna	6	Junio	2023-07-06T00:00:00	2024-11-08T22:00:00	3	Temperatura mínima	18.8
58468	7	Sololá	717	San Juan la Laguna	12	San Juan la Laguna	6	Junio	2023-07-06T00:00:00	2024-11-08T22:00:00	5	Humedad	90
58469	7	Sololá	717	San Juan la Laguna	12	San Juan la Laguna	6	Junio	2023-07-06T00:00:00	2024-11-08T22:00:00	6	Velocidad del viento	1.6
58470	7	Sololá	717	San Juan la Laguna	12	San Juan la Laguna	6	Junio	2023-07-06T00:00:00	2024-11-08T22:00:00	7	Dirección del viento	1.61
58471	7	Sololá	717	San Juan la Laguna	12	San Juan la Laguna	6	Junio	2023-07-06T00:00:00	2024-11-08T22:00:00	1	Precipitación	0
58472	7	Sololá	717	San Juan la Laguna	12	San Juan la Laguna	6	Junio	2023-07-06T00:00:00	2024-11-08T22:00:00	8	Radiación solar	0
58473	7	Sololá	717	San Juan la Laguna	12	San Juan la Laguna	6	Junio	2023-07-06T00:00:00	2024-11-08T23:00:00	2	Temperatura media	17.9
58474	7	Sololá	717	San Juan la Laguna	12	San Juan la Laguna	6	Junio	2023-07-06T00:00:00	2024-11-08T23:00:00	4	Temperatura máxima	18.8
58475	7	Sololá	717	San Juan la Laguna	12	San Juan la Laguna	6	Junio	2023-07-06T00:00:00	2024-11-08T23:00:00	3	Temperatura mínima	17.9
58476	7	Sololá	717	San Juan la Laguna	12	San Juan la Laguna	6	Junio	2023-07-06T00:00:00	2024-11-08T23:00:00	5	Humedad	93
58477	7	Sololá	717	San Juan la Laguna	12	San Juan la Laguna	6	Junio	2023-07-06T00:00:00	2024-11-08T23:00:00	6	Velocidad del viento	1.6
58478	7	Sololá	717	San Juan la Laguna	12	San Juan la Laguna	6	Junio	2023-07-06T00:00:00	2024-11-08T23:00:00	7	Dirección del viento	1.61
58479	7	Sololá	717	San Juan la Laguna	12	San Juan la Laguna	6	Junio	2023-07-06T00:00:00	2024-11-08T23:00:00	1	Precipitación	16.6
58480	7	Sololá	717	San Juan la Laguna	12	San Juan la Laguna	6	Junio	2023-07-06T00:00:00	2024-11-08T23:00:00	8	Radiación solar	0
58481	7	Sololá	717	San Juan la Laguna	12	San Juan la Laguna	6	Junio	2023-08-06T00:00:00	2024-11-08T00:00:00	2	Temperatura media	17.6
58482	7	Sololá	717	San Juan la Laguna	12	San Juan la Laguna	6	Junio	2023-08-06T00:00:00	2024-11-08T00:00:00	4	Temperatura máxima	17.9
58483	7	Sololá	717	San Juan la Laguna	12	San Juan la Laguna	6	Junio	2023-08-06T00:00:00	2024-11-08T00:00:00	3	Temperatura mínima	17.6
58484	7	Sololá	717	San Juan la Laguna	12	San Juan la Laguna	6	Junio	2023-08-06T00:00:00	2024-11-08T00:00:00	5	Humedad	94
58485	7	Sololá	717	San Juan la Laguna	12	San Juan la Laguna	6	Junio	2023-08-06T00:00:00	2024-11-08T00:00:00	6	Velocidad del viento	0
58486	7	Sololá	717	San Juan la Laguna	12	San Juan la Laguna	6	Junio	2023-08-06T00:00:00	2024-11-08T00:00:00	7	Dirección del viento	0
58487	7	Sololá	717	San Juan la Laguna	12	San Juan la Laguna	6	Junio	2023-08-06T00:00:00	2024-11-08T00:00:00	1	Precipitación	0.6
58488	7	Sololá	717	San Juan la Laguna	12	San Juan la Laguna	6	Junio	2023-08-06T00:00:00	2024-11-08T00:00:00	8	Radiación solar	0
58489	7	Sololá	717	San Juan la Laguna	12	San Juan la Laguna	6	Junio	2023-08-06T00:00:00	2024-11-08T01:00:00	2	Temperatura media	17.7
58490	7	Sololá	717	San Juan la Laguna	12	San Juan la Laguna	6	Junio	2023-08-06T00:00:00	2024-11-08T01:00:00	4	Temperatura máxima	17.8
58491	7	Sololá	717	San Juan la Laguna	12	San Juan la Laguna	6	Junio	2023-08-06T00:00:00	2024-11-08T01:00:00	3	Temperatura mínima	17.5
58492	7	Sololá	717	San Juan la Laguna	12	San Juan la Laguna	6	Junio	2023-08-06T00:00:00	2024-11-08T01:00:00	5	Humedad	93
58493	7	Sololá	717	San Juan la Laguna	12	San Juan la Laguna	6	Junio	2023-08-06T00:00:00	2024-11-08T01:00:00	6	Velocidad del viento	0
58494	7	Sololá	717	San Juan la Laguna	12	San Juan la Laguna	6	Junio	2023-08-06T00:00:00	2024-11-08T01:00:00	7	Dirección del viento	0
58495	7	Sololá	717	San Juan la Laguna	12	San Juan la Laguna	6	Junio	2023-08-06T00:00:00	2024-11-08T01:00:00	1	Precipitación	0
58496	7	Sololá	717	San Juan la Laguna	12	San Juan la Laguna	6	Junio	2023-08-06T00:00:00	2024-11-08T01:00:00	8	Radiación solar	0
58497	7	Sololá	717	San Juan la Laguna	12	San Juan la Laguna	6	Junio	2023-08-06T00:00:00	2024-11-08T02:00:00	2	Temperatura media	17.7
58498	7	Sololá	717	San Juan la Laguna	12	San Juan la Laguna	6	Junio	2023-08-06T00:00:00	2024-11-08T02:00:00	4	Temperatura máxima	17.9
58499	7	Sololá	717	San Juan la Laguna	12	San Juan la Laguna	6	Junio	2023-08-06T00:00:00	2024-11-08T02:00:00	3	Temperatura mínima	17.7
58500	7	Sololá	717	San Juan la Laguna	12	San Juan la Laguna	6	Junio	2023-08-06T00:00:00	2024-11-08T02:00:00	5	Humedad	93
58501	7	Sololá	717	San Juan la Laguna	12	San Juan la Laguna	6	Junio	2023-08-06T00:00:00	2024-11-08T02:00:00	6	Velocidad del viento	0
58502	7	Sololá	717	San Juan la Laguna	12	San Juan la Laguna	6	Junio	2023-08-06T00:00:00	2024-11-08T02:00:00	7	Dirección del viento	0
58503	7	Sololá	717	San Juan la Laguna	12	San Juan la Laguna	6	Junio	2023-08-06T00:00:00	2024-11-08T02:00:00	1	Precipitación	0
58504	7	Sololá	717	San Juan la Laguna	12	San Juan la Laguna	6	Junio	2023-08-06T00:00:00	2024-11-08T02:00:00	8	Radiación solar	0
58505	7	Sololá	717	San Juan la Laguna	12	San Juan la Laguna	6	Junio	2023-08-06T00:00:00	2024-11-08T03:00:00	2	Temperatura media	17.7
58506	7	Sololá	717	San Juan la Laguna	12	San Juan la Laguna	6	Junio	2023-08-06T00:00:00	2024-11-08T03:00:00	4	Temperatura máxima	17.8
58507	7	Sololá	717	San Juan la Laguna	12	San Juan la Laguna	6	Junio	2023-08-06T00:00:00	2024-11-08T03:00:00	3	Temperatura mínima	17.6
58508	7	Sololá	717	San Juan la Laguna	12	San Juan la Laguna	6	Junio	2023-08-06T00:00:00	2024-11-08T03:00:00	5	Humedad	93
58509	7	Sololá	717	San Juan la Laguna	12	San Juan la Laguna	6	Junio	2023-08-06T00:00:00	2024-11-08T03:00:00	6	Velocidad del viento	0
58510	7	Sololá	717	San Juan la Laguna	12	San Juan la Laguna	6	Junio	2023-08-06T00:00:00	2024-11-08T03:00:00	7	Dirección del viento	0
58511	7	Sololá	717	San Juan la Laguna	12	San Juan la Laguna	6	Junio	2023-08-06T00:00:00	2024-11-08T03:00:00	1	Precipitación	0
58512	7	Sololá	717	San Juan la Laguna	12	San Juan la Laguna	6	Junio	2023-08-06T00:00:00	2024-11-08T03:00:00	8	Radiación solar	0
58513	7	Sololá	717	San Juan la Laguna	12	San Juan la Laguna	6	Junio	2023-08-06T00:00:00	2024-11-08T04:00:00	2	Temperatura media	16.7
58514	7	Sololá	717	San Juan la Laguna	12	San Juan la Laguna	6	Junio	2023-08-06T00:00:00	2024-11-08T04:00:00	4	Temperatura máxima	17.7
58515	7	Sololá	717	San Juan la Laguna	12	San Juan la Laguna	6	Junio	2023-08-06T00:00:00	2024-11-08T04:00:00	3	Temperatura mínima	16.7
58516	7	Sololá	717	San Juan la Laguna	12	San Juan la Laguna	6	Junio	2023-08-06T00:00:00	2024-11-08T04:00:00	5	Humedad	93
58517	7	Sololá	717	San Juan la Laguna	12	San Juan la Laguna	6	Junio	2023-08-06T00:00:00	2024-11-08T04:00:00	6	Velocidad del viento	0
58518	7	Sololá	717	San Juan la Laguna	12	San Juan la Laguna	6	Junio	2023-08-06T00:00:00	2024-11-08T04:00:00	7	Dirección del viento	0
58519	7	Sololá	717	San Juan la Laguna	12	San Juan la Laguna	6	Junio	2023-08-06T00:00:00	2024-11-08T04:00:00	1	Precipitación	0
58520	7	Sololá	717	San Juan la Laguna	12	San Juan la Laguna	6	Junio	2023-08-06T00:00:00	2024-11-08T04:00:00	8	Radiación solar	0
58521	7	Sololá	717	San Juan la Laguna	12	San Juan la Laguna	6	Junio	2023-08-06T00:00:00	2024-11-08T05:00:00	2	Temperatura media	16.2
58522	7	Sololá	717	San Juan la Laguna	12	San Juan la Laguna	6	Junio	2023-08-06T00:00:00	2024-11-08T05:00:00	4	Temperatura máxima	16.7
58523	7	Sololá	717	San Juan la Laguna	12	San Juan la Laguna	6	Junio	2023-08-06T00:00:00	2024-11-08T05:00:00	3	Temperatura mínima	16.1
58524	7	Sololá	717	San Juan la Laguna	12	San Juan la Laguna	6	Junio	2023-08-06T00:00:00	2024-11-08T05:00:00	5	Humedad	93
58525	7	Sololá	717	San Juan la Laguna	12	San Juan la Laguna	6	Junio	2023-08-06T00:00:00	2024-11-08T05:00:00	6	Velocidad del viento	1.6
58526	7	Sololá	717	San Juan la Laguna	12	San Juan la Laguna	6	Junio	2023-08-06T00:00:00	2024-11-08T05:00:00	7	Dirección del viento	1.61
58527	7	Sololá	717	San Juan la Laguna	12	San Juan la Laguna	6	Junio	2023-08-06T00:00:00	2024-11-08T05:00:00	1	Precipitación	0
58528	7	Sololá	717	San Juan la Laguna	12	San Juan la Laguna	6	Junio	2023-08-06T00:00:00	2024-11-08T05:00:00	8	Radiación solar	0
58529	7	Sololá	717	San Juan la Laguna	12	San Juan la Laguna	6	Junio	2023-08-06T00:00:00	2024-11-08T06:00:00	2	Temperatura media	16.1
58530	7	Sololá	717	San Juan la Laguna	12	San Juan la Laguna	6	Junio	2023-08-06T00:00:00	2024-11-08T06:00:00	4	Temperatura máxima	16.2
58531	7	Sololá	717	San Juan la Laguna	12	San Juan la Laguna	6	Junio	2023-08-06T00:00:00	2024-11-08T06:00:00	3	Temperatura mínima	16.1
58532	7	Sololá	717	San Juan la Laguna	12	San Juan la Laguna	6	Junio	2023-08-06T00:00:00	2024-11-08T06:00:00	5	Humedad	92
58533	7	Sololá	717	San Juan la Laguna	12	San Juan la Laguna	6	Junio	2023-08-06T00:00:00	2024-11-08T06:00:00	6	Velocidad del viento	3.2
58534	7	Sololá	717	San Juan la Laguna	12	San Juan la Laguna	6	Junio	2023-08-06T00:00:00	2024-11-08T06:00:00	7	Dirección del viento	3.22
58535	7	Sololá	717	San Juan la Laguna	12	San Juan la Laguna	6	Junio	2023-08-06T00:00:00	2024-11-08T06:00:00	1	Precipitación	0
58536	7	Sololá	717	San Juan la Laguna	12	San Juan la Laguna	6	Junio	2023-08-06T00:00:00	2024-11-08T06:00:00	8	Radiación solar	4
58537	7	Sololá	717	San Juan la Laguna	12	San Juan la Laguna	6	Junio	2023-08-06T00:00:00	2024-11-08T07:00:00	2	Temperatura media	17.4
58538	7	Sololá	717	San Juan la Laguna	12	San Juan la Laguna	6	Junio	2023-08-06T00:00:00	2024-11-08T07:00:00	4	Temperatura máxima	17.4
58539	7	Sololá	717	San Juan la Laguna	12	San Juan la Laguna	6	Junio	2023-08-06T00:00:00	2024-11-08T07:00:00	3	Temperatura mínima	15.9
58540	7	Sololá	717	San Juan la Laguna	12	San Juan la Laguna	6	Junio	2023-08-06T00:00:00	2024-11-08T07:00:00	5	Humedad	90
58541	7	Sololá	717	San Juan la Laguna	12	San Juan la Laguna	6	Junio	2023-08-06T00:00:00	2024-11-08T07:00:00	6	Velocidad del viento	1.6
58542	7	Sololá	717	San Juan la Laguna	12	San Juan la Laguna	6	Junio	2023-08-06T00:00:00	2024-11-08T07:00:00	7	Dirección del viento	1.61
58543	7	Sololá	717	San Juan la Laguna	12	San Juan la Laguna	6	Junio	2023-08-06T00:00:00	2024-11-08T07:00:00	1	Precipitación	0
58544	7	Sololá	717	San Juan la Laguna	12	San Juan la Laguna	6	Junio	2023-08-06T00:00:00	2024-11-08T07:00:00	8	Radiación solar	91
58545	7	Sololá	717	San Juan la Laguna	12	San Juan la Laguna	6	Junio	2023-08-06T00:00:00	2024-11-08T08:00:00	2	Temperatura media	20.7
58546	7	Sololá	717	San Juan la Laguna	12	San Juan la Laguna	6	Junio	2023-08-06T00:00:00	2024-11-08T08:00:00	4	Temperatura máxima	20.7
58547	7	Sololá	717	San Juan la Laguna	12	San Juan la Laguna	6	Junio	2023-08-06T00:00:00	2024-11-08T08:00:00	3	Temperatura mínima	17.4
58548	7	Sololá	717	San Juan la Laguna	12	San Juan la Laguna	6	Junio	2023-08-06T00:00:00	2024-11-08T08:00:00	5	Humedad	81
58549	7	Sololá	717	San Juan la Laguna	12	San Juan la Laguna	6	Junio	2023-08-06T00:00:00	2024-11-08T08:00:00	6	Velocidad del viento	0
58550	7	Sololá	717	San Juan la Laguna	12	San Juan la Laguna	6	Junio	2023-08-06T00:00:00	2024-11-08T08:00:00	7	Dirección del viento	0
58551	7	Sololá	717	San Juan la Laguna	12	San Juan la Laguna	6	Junio	2023-08-06T00:00:00	2024-11-08T08:00:00	1	Precipitación	0
58552	7	Sololá	717	San Juan la Laguna	12	San Juan la Laguna	6	Junio	2023-08-06T00:00:00	2024-11-08T08:00:00	8	Radiación solar	283
58553	7	Sololá	717	San Juan la Laguna	12	San Juan la Laguna	6	Junio	2023-08-06T00:00:00	2024-11-08T09:00:00	2	Temperatura media	21.8
58554	7	Sololá	717	San Juan la Laguna	12	San Juan la Laguna	6	Junio	2023-08-06T00:00:00	2024-11-08T09:00:00	4	Temperatura máxima	21.8
58555	7	Sololá	717	San Juan la Laguna	12	San Juan la Laguna	6	Junio	2023-08-06T00:00:00	2024-11-08T09:00:00	3	Temperatura mínima	20.7
58556	7	Sololá	717	San Juan la Laguna	12	San Juan la Laguna	6	Junio	2023-08-06T00:00:00	2024-11-08T09:00:00	5	Humedad	76
58557	7	Sololá	717	San Juan la Laguna	12	San Juan la Laguna	6	Junio	2023-08-06T00:00:00	2024-11-08T09:00:00	6	Velocidad del viento	1.6
58558	7	Sololá	717	San Juan la Laguna	12	San Juan la Laguna	6	Junio	2023-08-06T00:00:00	2024-11-08T09:00:00	7	Dirección del viento	1.61
58559	7	Sololá	717	San Juan la Laguna	12	San Juan la Laguna	6	Junio	2023-08-06T00:00:00	2024-11-08T09:00:00	1	Precipitación	0
58560	7	Sololá	717	San Juan la Laguna	12	San Juan la Laguna	6	Junio	2023-08-06T00:00:00	2024-11-08T09:00:00	8	Radiación solar	520
58561	7	Sololá	717	San Juan la Laguna	12	San Juan la Laguna	6	Junio	2023-08-06T00:00:00	2024-11-08T10:00:00	2	Temperatura media	22.9
58562	7	Sololá	717	San Juan la Laguna	12	San Juan la Laguna	6	Junio	2023-08-06T00:00:00	2024-11-08T10:00:00	4	Temperatura máxima	23.2
58563	7	Sololá	717	San Juan la Laguna	12	San Juan la Laguna	6	Junio	2023-08-06T00:00:00	2024-11-08T10:00:00	3	Temperatura mínima	21.8
58564	7	Sololá	717	San Juan la Laguna	12	San Juan la Laguna	6	Junio	2023-08-06T00:00:00	2024-11-08T10:00:00	5	Humedad	71
58565	7	Sololá	717	San Juan la Laguna	12	San Juan la Laguna	6	Junio	2023-08-06T00:00:00	2024-11-08T10:00:00	6	Velocidad del viento	1.6
58566	7	Sololá	717	San Juan la Laguna	12	San Juan la Laguna	6	Junio	2023-08-06T00:00:00	2024-11-08T10:00:00	7	Dirección del viento	1.61
58567	7	Sololá	717	San Juan la Laguna	12	San Juan la Laguna	6	Junio	2023-08-06T00:00:00	2024-11-08T10:00:00	1	Precipitación	0
58568	7	Sololá	717	San Juan la Laguna	12	San Juan la Laguna	6	Junio	2023-08-06T00:00:00	2024-11-08T10:00:00	8	Radiación solar	704
58569	7	Sololá	717	San Juan la Laguna	12	San Juan la Laguna	6	Junio	2023-08-06T00:00:00	2024-11-08T11:00:00	2	Temperatura media	23.3
58570	7	Sololá	717	San Juan la Laguna	12	San Juan la Laguna	6	Junio	2023-08-06T00:00:00	2024-11-08T11:00:00	4	Temperatura máxima	24.1
58571	7	Sololá	717	San Juan la Laguna	12	San Juan la Laguna	6	Junio	2023-08-06T00:00:00	2024-11-08T11:00:00	3	Temperatura mínima	22.6
58572	7	Sololá	717	San Juan la Laguna	12	San Juan la Laguna	6	Junio	2023-08-06T00:00:00	2024-11-08T11:00:00	5	Humedad	69
58573	7	Sololá	717	San Juan la Laguna	12	San Juan la Laguna	6	Junio	2023-08-06T00:00:00	2024-11-08T11:00:00	6	Velocidad del viento	1.6
58574	7	Sololá	717	San Juan la Laguna	12	San Juan la Laguna	6	Junio	2023-08-06T00:00:00	2024-11-08T11:00:00	7	Dirección del viento	1.61
58575	7	Sololá	717	San Juan la Laguna	12	San Juan la Laguna	6	Junio	2023-08-06T00:00:00	2024-11-08T11:00:00	1	Precipitación	0
58576	7	Sololá	717	San Juan la Laguna	12	San Juan la Laguna	6	Junio	2023-08-06T00:00:00	2024-11-08T11:00:00	8	Radiación solar	814
58577	7	Sololá	717	San Juan la Laguna	12	San Juan la Laguna	6	Junio	2023-08-06T00:00:00	2024-11-08T12:00:00	2	Temperatura media	23.9
58578	7	Sololá	717	San Juan la Laguna	12	San Juan la Laguna	6	Junio	2023-08-06T00:00:00	2024-11-08T12:00:00	4	Temperatura máxima	26.1
58579	7	Sololá	717	San Juan la Laguna	12	San Juan la Laguna	6	Junio	2023-08-06T00:00:00	2024-11-08T12:00:00	3	Temperatura mínima	23.1
58580	7	Sololá	717	San Juan la Laguna	12	San Juan la Laguna	6	Junio	2023-08-06T00:00:00	2024-11-08T12:00:00	5	Humedad	72
58581	7	Sololá	717	San Juan la Laguna	12	San Juan la Laguna	6	Junio	2023-08-06T00:00:00	2024-11-08T12:00:00	6	Velocidad del viento	3.2
58582	7	Sololá	717	San Juan la Laguna	12	San Juan la Laguna	6	Junio	2023-08-06T00:00:00	2024-11-08T12:00:00	7	Dirección del viento	3.22
58583	7	Sololá	717	San Juan la Laguna	12	San Juan la Laguna	6	Junio	2023-08-06T00:00:00	2024-11-08T12:00:00	1	Precipitación	0
58584	7	Sololá	717	San Juan la Laguna	12	San Juan la Laguna	6	Junio	2023-08-06T00:00:00	2024-11-08T12:00:00	8	Radiación solar	887
58585	7	Sololá	717	San Juan la Laguna	12	San Juan la Laguna	6	Junio	2023-08-06T00:00:00	2024-11-08T13:00:00	2	Temperatura media	24.3
58586	7	Sololá	717	San Juan la Laguna	12	San Juan la Laguna	6	Junio	2023-08-06T00:00:00	2024-11-08T13:00:00	4	Temperatura máxima	24.9
58587	7	Sololá	717	San Juan la Laguna	12	San Juan la Laguna	6	Junio	2023-08-06T00:00:00	2024-11-08T13:00:00	3	Temperatura mínima	23.9
58588	7	Sololá	717	San Juan la Laguna	12	San Juan la Laguna	6	Junio	2023-08-06T00:00:00	2024-11-08T13:00:00	5	Humedad	70
58589	7	Sololá	717	San Juan la Laguna	12	San Juan la Laguna	6	Junio	2023-08-06T00:00:00	2024-11-08T13:00:00	6	Velocidad del viento	8
58590	7	Sololá	717	San Juan la Laguna	12	San Juan la Laguna	6	Junio	2023-08-06T00:00:00	2024-11-08T13:00:00	7	Dirección del viento	8.05
58591	7	Sololá	717	San Juan la Laguna	12	San Juan la Laguna	6	Junio	2023-08-06T00:00:00	2024-11-08T13:00:00	1	Precipitación	0
58592	7	Sololá	717	San Juan la Laguna	12	San Juan la Laguna	6	Junio	2023-08-06T00:00:00	2024-11-08T13:00:00	8	Radiación solar	864
58593	7	Sololá	717	San Juan la Laguna	12	San Juan la Laguna	6	Junio	2023-08-06T00:00:00	2024-11-08T14:00:00	2	Temperatura media	23
58594	7	Sololá	717	San Juan la Laguna	12	San Juan la Laguna	6	Junio	2023-08-06T00:00:00	2024-11-08T14:00:00	4	Temperatura máxima	24.7
58595	7	Sololá	717	San Juan la Laguna	12	San Juan la Laguna	6	Junio	2023-08-06T00:00:00	2024-11-08T14:00:00	3	Temperatura mínima	23
58596	7	Sololá	717	San Juan la Laguna	12	San Juan la Laguna	6	Junio	2023-08-06T00:00:00	2024-11-08T14:00:00	5	Humedad	76
58597	7	Sololá	717	San Juan la Laguna	12	San Juan la Laguna	6	Junio	2023-08-06T00:00:00	2024-11-08T14:00:00	6	Velocidad del viento	11.3
58598	7	Sololá	717	San Juan la Laguna	12	San Juan la Laguna	6	Junio	2023-08-06T00:00:00	2024-11-08T14:00:00	7	Dirección del viento	11.27
58599	7	Sololá	717	San Juan la Laguna	12	San Juan la Laguna	6	Junio	2023-08-06T00:00:00	2024-11-08T14:00:00	1	Precipitación	0
58600	7	Sololá	717	San Juan la Laguna	12	San Juan la Laguna	6	Junio	2023-08-06T00:00:00	2024-11-08T14:00:00	8	Radiación solar	760
58601	7	Sololá	717	San Juan la Laguna	12	San Juan la Laguna	6	Junio	2023-08-06T00:00:00	2024-11-08T15:00:00	2	Temperatura media	23.6
58602	7	Sololá	717	San Juan la Laguna	12	San Juan la Laguna	6	Junio	2023-08-06T00:00:00	2024-11-08T15:00:00	4	Temperatura máxima	24.9
58603	7	Sololá	717	San Juan la Laguna	12	San Juan la Laguna	6	Junio	2023-08-06T00:00:00	2024-11-08T15:00:00	3	Temperatura mínima	23
58604	7	Sololá	717	San Juan la Laguna	12	San Juan la Laguna	6	Junio	2023-08-06T00:00:00	2024-11-08T15:00:00	5	Humedad	73
58605	7	Sololá	717	San Juan la Laguna	12	San Juan la Laguna	6	Junio	2023-08-06T00:00:00	2024-11-08T15:00:00	6	Velocidad del viento	9.7
58606	7	Sololá	717	San Juan la Laguna	12	San Juan la Laguna	6	Junio	2023-08-06T00:00:00	2024-11-08T15:00:00	7	Dirección del viento	9.66
58607	7	Sololá	717	San Juan la Laguna	12	San Juan la Laguna	6	Junio	2023-08-06T00:00:00	2024-11-08T15:00:00	1	Precipitación	0
58608	7	Sololá	717	San Juan la Laguna	12	San Juan la Laguna	6	Junio	2023-08-06T00:00:00	2024-11-08T15:00:00	8	Radiación solar	707
58609	7	Sololá	717	San Juan la Laguna	12	San Juan la Laguna	6	Junio	2023-08-06T00:00:00	2024-11-08T16:00:00	2	Temperatura media	22.3
58610	7	Sololá	717	San Juan la Laguna	12	San Juan la Laguna	6	Junio	2023-08-06T00:00:00	2024-11-08T16:00:00	4	Temperatura máxima	23.6
58611	7	Sololá	717	San Juan la Laguna	12	San Juan la Laguna	6	Junio	2023-08-06T00:00:00	2024-11-08T16:00:00	3	Temperatura mínima	22.3
58612	7	Sololá	717	San Juan la Laguna	12	San Juan la Laguna	6	Junio	2023-08-06T00:00:00	2024-11-08T16:00:00	5	Humedad	79
58613	7	Sololá	717	San Juan la Laguna	12	San Juan la Laguna	6	Junio	2023-08-06T00:00:00	2024-11-08T16:00:00	6	Velocidad del viento	9.7
58614	7	Sololá	717	San Juan la Laguna	12	San Juan la Laguna	6	Junio	2023-08-06T00:00:00	2024-11-08T16:00:00	7	Dirección del viento	9.66
58615	7	Sololá	717	San Juan la Laguna	12	San Juan la Laguna	6	Junio	2023-08-06T00:00:00	2024-11-08T16:00:00	1	Precipitación	0
58616	7	Sololá	717	San Juan la Laguna	12	San Juan la Laguna	6	Junio	2023-08-06T00:00:00	2024-11-08T16:00:00	8	Radiación solar	292
58617	7	Sololá	717	San Juan la Laguna	12	San Juan la Laguna	6	Junio	2023-08-06T00:00:00	2024-11-08T17:00:00	2	Temperatura media	23.2
58618	7	Sololá	717	San Juan la Laguna	12	San Juan la Laguna	6	Junio	2023-08-06T00:00:00	2024-11-08T17:00:00	4	Temperatura máxima	23.6
58619	7	Sololá	717	San Juan la Laguna	12	San Juan la Laguna	6	Junio	2023-08-06T00:00:00	2024-11-08T17:00:00	3	Temperatura mínima	22.3
58620	7	Sololá	717	San Juan la Laguna	12	San Juan la Laguna	6	Junio	2023-08-06T00:00:00	2024-11-08T17:00:00	5	Humedad	77
58621	7	Sololá	717	San Juan la Laguna	12	San Juan la Laguna	6	Junio	2023-08-06T00:00:00	2024-11-08T17:00:00	6	Velocidad del viento	4.8
58622	7	Sololá	717	San Juan la Laguna	12	San Juan la Laguna	6	Junio	2023-08-06T00:00:00	2024-11-08T17:00:00	7	Dirección del viento	4.83
58623	7	Sololá	717	San Juan la Laguna	12	San Juan la Laguna	6	Junio	2023-08-06T00:00:00	2024-11-08T17:00:00	1	Precipitación	0
58624	7	Sololá	717	San Juan la Laguna	12	San Juan la Laguna	6	Junio	2023-08-06T00:00:00	2024-11-08T17:00:00	8	Radiación solar	326
58625	7	Sololá	717	San Juan la Laguna	12	San Juan la Laguna	6	Junio	2023-08-06T00:00:00	2024-11-08T18:00:00	2	Temperatura media	21.7
58626	7	Sololá	717	San Juan la Laguna	12	San Juan la Laguna	6	Junio	2023-08-06T00:00:00	2024-11-08T18:00:00	4	Temperatura máxima	23.2
58627	7	Sololá	717	San Juan la Laguna	12	San Juan la Laguna	6	Junio	2023-08-06T00:00:00	2024-11-08T18:00:00	3	Temperatura mínima	21.7
58628	7	Sololá	717	San Juan la Laguna	12	San Juan la Laguna	6	Junio	2023-08-06T00:00:00	2024-11-08T18:00:00	5	Humedad	84
58629	7	Sololá	717	San Juan la Laguna	12	San Juan la Laguna	6	Junio	2023-08-06T00:00:00	2024-11-08T18:00:00	6	Velocidad del viento	4.8
58630	7	Sololá	717	San Juan la Laguna	12	San Juan la Laguna	6	Junio	2023-08-06T00:00:00	2024-11-08T18:00:00	7	Dirección del viento	4.83
58631	7	Sololá	717	San Juan la Laguna	12	San Juan la Laguna	6	Junio	2023-08-06T00:00:00	2024-11-08T18:00:00	1	Precipitación	0
58632	7	Sololá	717	San Juan la Laguna	12	San Juan la Laguna	6	Junio	2023-08-06T00:00:00	2024-11-08T18:00:00	8	Radiación solar	53
58633	7	Sololá	717	San Juan la Laguna	12	San Juan la Laguna	6	Junio	2023-08-06T00:00:00	2024-11-08T19:00:00	2	Temperatura media	21.2
58634	7	Sololá	717	San Juan la Laguna	12	San Juan la Laguna	6	Junio	2023-08-06T00:00:00	2024-11-08T19:00:00	4	Temperatura máxima	21.7
58635	7	Sololá	717	San Juan la Laguna	12	San Juan la Laguna	6	Junio	2023-08-06T00:00:00	2024-11-08T19:00:00	3	Temperatura mínima	21
58636	7	Sololá	717	San Juan la Laguna	12	San Juan la Laguna	6	Junio	2023-08-06T00:00:00	2024-11-08T19:00:00	5	Humedad	84
58637	7	Sololá	717	San Juan la Laguna	12	San Juan la Laguna	6	Junio	2023-08-06T00:00:00	2024-11-08T19:00:00	6	Velocidad del viento	4.8
58638	7	Sololá	717	San Juan la Laguna	12	San Juan la Laguna	6	Junio	2023-08-06T00:00:00	2024-11-08T19:00:00	7	Dirección del viento	4.83
58639	7	Sololá	717	San Juan la Laguna	12	San Juan la Laguna	6	Junio	2023-08-06T00:00:00	2024-11-08T19:00:00	1	Precipitación	0
58640	7	Sololá	717	San Juan la Laguna	12	San Juan la Laguna	6	Junio	2023-08-06T00:00:00	2024-11-08T19:00:00	8	Radiación solar	0
58641	7	Sololá	717	San Juan la Laguna	12	San Juan la Laguna	6	Junio	2023-08-06T00:00:00	2024-11-08T20:00:00	2	Temperatura media	20.4
58642	7	Sololá	717	San Juan la Laguna	12	San Juan la Laguna	6	Junio	2023-08-06T00:00:00	2024-11-08T20:00:00	4	Temperatura máxima	21.2
58643	7	Sololá	717	San Juan la Laguna	12	San Juan la Laguna	6	Junio	2023-08-06T00:00:00	2024-11-08T20:00:00	3	Temperatura mínima	20.3
58644	7	Sololá	717	San Juan la Laguna	12	San Juan la Laguna	6	Junio	2023-08-06T00:00:00	2024-11-08T20:00:00	5	Humedad	89
58645	7	Sololá	717	San Juan la Laguna	12	San Juan la Laguna	6	Junio	2023-08-06T00:00:00	2024-11-08T20:00:00	6	Velocidad del viento	4.8
58646	7	Sololá	717	San Juan la Laguna	12	San Juan la Laguna	6	Junio	2023-08-06T00:00:00	2024-11-08T20:00:00	7	Dirección del viento	4.83
58647	7	Sololá	717	San Juan la Laguna	12	San Juan la Laguna	6	Junio	2023-08-06T00:00:00	2024-11-08T20:00:00	1	Precipitación	0
58648	7	Sololá	717	San Juan la Laguna	12	San Juan la Laguna	6	Junio	2023-08-06T00:00:00	2024-11-08T20:00:00	8	Radiación solar	0
58649	7	Sololá	717	San Juan la Laguna	12	San Juan la Laguna	6	Junio	2023-08-06T00:00:00	2024-11-08T21:00:00	2	Temperatura media	20.4
58650	7	Sololá	717	San Juan la Laguna	12	San Juan la Laguna	6	Junio	2023-08-06T00:00:00	2024-11-08T21:00:00	4	Temperatura máxima	20.6
58651	7	Sololá	717	San Juan la Laguna	12	San Juan la Laguna	6	Junio	2023-08-06T00:00:00	2024-11-08T21:00:00	3	Temperatura mínima	20.4
58652	7	Sololá	717	San Juan la Laguna	12	San Juan la Laguna	6	Junio	2023-08-06T00:00:00	2024-11-08T21:00:00	5	Humedad	89
58653	7	Sololá	717	San Juan la Laguna	12	San Juan la Laguna	6	Junio	2023-08-06T00:00:00	2024-11-08T21:00:00	6	Velocidad del viento	1.6
58654	7	Sololá	717	San Juan la Laguna	12	San Juan la Laguna	6	Junio	2023-08-06T00:00:00	2024-11-08T21:00:00	7	Dirección del viento	1.61
58655	7	Sololá	717	San Juan la Laguna	12	San Juan la Laguna	6	Junio	2023-08-06T00:00:00	2024-11-08T21:00:00	1	Precipitación	0
58656	7	Sololá	717	San Juan la Laguna	12	San Juan la Laguna	6	Junio	2023-08-06T00:00:00	2024-11-08T21:00:00	8	Radiación solar	0
58657	7	Sololá	717	San Juan la Laguna	12	San Juan la Laguna	6	Junio	2023-08-06T00:00:00	2024-11-08T22:00:00	2	Temperatura media	19.6
58658	7	Sololá	717	San Juan la Laguna	12	San Juan la Laguna	6	Junio	2023-08-06T00:00:00	2024-11-08T22:00:00	4	Temperatura máxima	20.4
58659	7	Sololá	717	San Juan la Laguna	12	San Juan la Laguna	6	Junio	2023-08-06T00:00:00	2024-11-08T22:00:00	3	Temperatura mínima	19.5
58660	7	Sololá	717	San Juan la Laguna	12	San Juan la Laguna	6	Junio	2023-08-06T00:00:00	2024-11-08T22:00:00	5	Humedad	89
58661	7	Sololá	717	San Juan la Laguna	12	San Juan la Laguna	6	Junio	2023-08-06T00:00:00	2024-11-08T22:00:00	6	Velocidad del viento	3.2
58662	7	Sololá	717	San Juan la Laguna	12	San Juan la Laguna	6	Junio	2023-08-06T00:00:00	2024-11-08T22:00:00	7	Dirección del viento	3.22
58663	7	Sololá	717	San Juan la Laguna	12	San Juan la Laguna	6	Junio	2023-08-06T00:00:00	2024-11-08T22:00:00	1	Precipitación	0
58664	7	Sololá	717	San Juan la Laguna	12	San Juan la Laguna	6	Junio	2023-08-06T00:00:00	2024-11-08T22:00:00	8	Radiación solar	0
58665	7	Sololá	717	San Juan la Laguna	12	San Juan la Laguna	6	Junio	2023-08-06T00:00:00	2024-11-08T23:00:00	2	Temperatura media	19.4
58666	7	Sololá	717	San Juan la Laguna	12	San Juan la Laguna	6	Junio	2023-08-06T00:00:00	2024-11-08T23:00:00	4	Temperatura máxima	19.6
58667	7	Sololá	717	San Juan la Laguna	12	San Juan la Laguna	6	Junio	2023-08-06T00:00:00	2024-11-08T23:00:00	3	Temperatura mínima	19.3
58668	7	Sololá	717	San Juan la Laguna	12	San Juan la Laguna	6	Junio	2023-08-06T00:00:00	2024-11-08T23:00:00	5	Humedad	90
58669	7	Sololá	717	San Juan la Laguna	12	San Juan la Laguna	6	Junio	2023-08-06T00:00:00	2024-11-08T23:00:00	6	Velocidad del viento	1.6
58670	7	Sololá	717	San Juan la Laguna	12	San Juan la Laguna	6	Junio	2023-08-06T00:00:00	2024-11-08T23:00:00	7	Dirección del viento	1.61
58671	7	Sololá	717	San Juan la Laguna	12	San Juan la Laguna	6	Junio	2023-08-06T00:00:00	2024-11-08T23:00:00	1	Precipitación	0
58672	7	Sololá	717	San Juan la Laguna	12	San Juan la Laguna	6	Junio	2023-08-06T00:00:00	2024-11-08T23:00:00	8	Radiación solar	0
58673	7	Sololá	717	San Juan la Laguna	12	San Juan la Laguna	6	Junio	2023-09-06T00:00:00	2024-11-08T00:00:00	2	Temperatura media	19.1
58674	7	Sololá	717	San Juan la Laguna	12	San Juan la Laguna	6	Junio	2023-09-06T00:00:00	2024-11-08T00:00:00	4	Temperatura máxima	19.4
58675	7	Sololá	717	San Juan la Laguna	12	San Juan la Laguna	6	Junio	2023-09-06T00:00:00	2024-11-08T00:00:00	3	Temperatura mínima	19.1
58676	7	Sololá	717	San Juan la Laguna	12	San Juan la Laguna	6	Junio	2023-09-06T00:00:00	2024-11-08T00:00:00	5	Humedad	91
58677	7	Sololá	717	San Juan la Laguna	12	San Juan la Laguna	6	Junio	2023-09-06T00:00:00	2024-11-08T00:00:00	6	Velocidad del viento	0
58678	7	Sololá	717	San Juan la Laguna	12	San Juan la Laguna	6	Junio	2023-09-06T00:00:00	2024-11-08T00:00:00	7	Dirección del viento	0
58679	7	Sololá	717	San Juan la Laguna	12	San Juan la Laguna	6	Junio	2023-09-06T00:00:00	2024-11-08T00:00:00	1	Precipitación	0
58680	7	Sololá	717	San Juan la Laguna	12	San Juan la Laguna	6	Junio	2023-09-06T00:00:00	2024-11-08T00:00:00	8	Radiación solar	0
58681	7	Sololá	717	San Juan la Laguna	12	San Juan la Laguna	6	Junio	2023-09-06T00:00:00	2024-11-08T01:00:00	2	Temperatura media	18.6
58682	7	Sololá	717	San Juan la Laguna	12	San Juan la Laguna	6	Junio	2023-09-06T00:00:00	2024-11-08T01:00:00	4	Temperatura máxima	19.1
58683	7	Sololá	717	San Juan la Laguna	12	San Juan la Laguna	6	Junio	2023-09-06T00:00:00	2024-11-08T01:00:00	3	Temperatura mínima	18.6
58684	7	Sololá	717	San Juan la Laguna	12	San Juan la Laguna	6	Junio	2023-09-06T00:00:00	2024-11-08T01:00:00	5	Humedad	91
58685	7	Sololá	717	San Juan la Laguna	12	San Juan la Laguna	6	Junio	2023-09-06T00:00:00	2024-11-08T01:00:00	6	Velocidad del viento	0
58686	7	Sololá	717	San Juan la Laguna	12	San Juan la Laguna	6	Junio	2023-09-06T00:00:00	2024-11-08T01:00:00	7	Dirección del viento	0
58687	7	Sololá	717	San Juan la Laguna	12	San Juan la Laguna	6	Junio	2023-09-06T00:00:00	2024-11-08T01:00:00	1	Precipitación	0
58688	7	Sololá	717	San Juan la Laguna	12	San Juan la Laguna	6	Junio	2023-09-06T00:00:00	2024-11-08T01:00:00	8	Radiación solar	0
58689	7	Sololá	717	San Juan la Laguna	12	San Juan la Laguna	6	Junio	2023-09-06T00:00:00	2024-11-08T02:00:00	2	Temperatura media	18.2
58690	7	Sololá	717	San Juan la Laguna	12	San Juan la Laguna	6	Junio	2023-09-06T00:00:00	2024-11-08T02:00:00	4	Temperatura máxima	18.6
58691	7	Sololá	717	San Juan la Laguna	12	San Juan la Laguna	6	Junio	2023-09-06T00:00:00	2024-11-08T02:00:00	3	Temperatura mínima	18.2
58692	7	Sololá	717	San Juan la Laguna	12	San Juan la Laguna	6	Junio	2023-09-06T00:00:00	2024-11-08T02:00:00	5	Humedad	90
58693	7	Sololá	717	San Juan la Laguna	12	San Juan la Laguna	6	Junio	2023-09-06T00:00:00	2024-11-08T02:00:00	6	Velocidad del viento	1.6
58694	7	Sololá	717	San Juan la Laguna	12	San Juan la Laguna	6	Junio	2023-09-06T00:00:00	2024-11-08T02:00:00	7	Dirección del viento	1.61
58695	7	Sololá	717	San Juan la Laguna	12	San Juan la Laguna	6	Junio	2023-09-06T00:00:00	2024-11-08T02:00:00	1	Precipitación	0
58696	7	Sololá	717	San Juan la Laguna	12	San Juan la Laguna	6	Junio	2023-09-06T00:00:00	2024-11-08T02:00:00	8	Radiación solar	0
58697	7	Sololá	717	San Juan la Laguna	12	San Juan la Laguna	6	Junio	2023-09-06T00:00:00	2024-11-08T03:00:00	2	Temperatura media	17.7
58698	7	Sololá	717	San Juan la Laguna	12	San Juan la Laguna	6	Junio	2023-09-06T00:00:00	2024-11-08T03:00:00	4	Temperatura máxima	18.4
58699	7	Sololá	717	San Juan la Laguna	12	San Juan la Laguna	6	Junio	2023-09-06T00:00:00	2024-11-08T03:00:00	3	Temperatura mínima	17.7
58700	7	Sololá	717	San Juan la Laguna	12	San Juan la Laguna	6	Junio	2023-09-06T00:00:00	2024-11-08T03:00:00	5	Humedad	90
58701	7	Sololá	717	San Juan la Laguna	12	San Juan la Laguna	6	Junio	2023-09-06T00:00:00	2024-11-08T03:00:00	6	Velocidad del viento	1.6
58702	7	Sololá	717	San Juan la Laguna	12	San Juan la Laguna	6	Junio	2023-09-06T00:00:00	2024-11-08T03:00:00	7	Dirección del viento	1.61
58703	7	Sololá	717	San Juan la Laguna	12	San Juan la Laguna	6	Junio	2023-09-06T00:00:00	2024-11-08T03:00:00	1	Precipitación	0
58704	7	Sololá	717	San Juan la Laguna	12	San Juan la Laguna	6	Junio	2023-09-06T00:00:00	2024-11-08T03:00:00	8	Radiación solar	0
58705	7	Sololá	717	San Juan la Laguna	12	San Juan la Laguna	6	Junio	2023-09-06T00:00:00	2024-11-08T04:00:00	2	Temperatura media	17.1
58706	7	Sololá	717	San Juan la Laguna	12	San Juan la Laguna	6	Junio	2023-09-06T00:00:00	2024-11-08T04:00:00	4	Temperatura máxima	17.7
58707	7	Sololá	717	San Juan la Laguna	12	San Juan la Laguna	6	Junio	2023-09-06T00:00:00	2024-11-08T04:00:00	3	Temperatura mínima	17.1
58708	7	Sololá	717	San Juan la Laguna	12	San Juan la Laguna	6	Junio	2023-09-06T00:00:00	2024-11-08T04:00:00	5	Humedad	89
58709	7	Sololá	717	San Juan la Laguna	12	San Juan la Laguna	6	Junio	2023-09-06T00:00:00	2024-11-08T04:00:00	6	Velocidad del viento	3.2
58710	7	Sololá	717	San Juan la Laguna	12	San Juan la Laguna	6	Junio	2023-09-06T00:00:00	2024-11-08T04:00:00	7	Dirección del viento	3.22
58711	7	Sololá	717	San Juan la Laguna	12	San Juan la Laguna	6	Junio	2023-09-06T00:00:00	2024-11-08T04:00:00	1	Precipitación	0
58712	7	Sololá	717	San Juan la Laguna	12	San Juan la Laguna	6	Junio	2023-09-06T00:00:00	2024-11-08T04:00:00	8	Radiación solar	0
58713	7	Sololá	717	San Juan la Laguna	12	San Juan la Laguna	6	Junio	2023-09-06T00:00:00	2024-11-08T05:00:00	2	Temperatura media	17.1
58714	7	Sololá	717	San Juan la Laguna	12	San Juan la Laguna	6	Junio	2023-09-06T00:00:00	2024-11-08T05:00:00	4	Temperatura máxima	17.2
58715	7	Sololá	717	San Juan la Laguna	12	San Juan la Laguna	6	Junio	2023-09-06T00:00:00	2024-11-08T05:00:00	3	Temperatura mínima	16.7
58716	7	Sololá	717	San Juan la Laguna	12	San Juan la Laguna	6	Junio	2023-09-06T00:00:00	2024-11-08T05:00:00	5	Humedad	90
58717	7	Sololá	717	San Juan la Laguna	12	San Juan la Laguna	6	Junio	2023-09-06T00:00:00	2024-11-08T05:00:00	6	Velocidad del viento	1.6
58718	7	Sololá	717	San Juan la Laguna	12	San Juan la Laguna	6	Junio	2023-09-06T00:00:00	2024-11-08T05:00:00	7	Dirección del viento	1.61
58719	7	Sololá	717	San Juan la Laguna	12	San Juan la Laguna	6	Junio	2023-09-06T00:00:00	2024-11-08T05:00:00	1	Precipitación	0
58720	7	Sololá	717	San Juan la Laguna	12	San Juan la Laguna	6	Junio	2023-09-06T00:00:00	2024-11-08T05:00:00	8	Radiación solar	0
58721	7	Sololá	717	San Juan la Laguna	12	San Juan la Laguna	6	Junio	2023-09-06T00:00:00	2024-11-08T06:00:00	2	Temperatura media	17.1
58722	7	Sololá	717	San Juan la Laguna	12	San Juan la Laguna	6	Junio	2023-09-06T00:00:00	2024-11-08T06:00:00	4	Temperatura máxima	17.2
58723	7	Sololá	717	San Juan la Laguna	12	San Juan la Laguna	6	Junio	2023-09-06T00:00:00	2024-11-08T06:00:00	3	Temperatura mínima	16.9
58724	7	Sololá	717	San Juan la Laguna	12	San Juan la Laguna	6	Junio	2023-09-06T00:00:00	2024-11-08T06:00:00	5	Humedad	91
58725	7	Sololá	717	San Juan la Laguna	12	San Juan la Laguna	6	Junio	2023-09-06T00:00:00	2024-11-08T06:00:00	6	Velocidad del viento	1.6
58726	7	Sololá	717	San Juan la Laguna	12	San Juan la Laguna	6	Junio	2023-09-06T00:00:00	2024-11-08T06:00:00	7	Dirección del viento	1.61
58727	7	Sololá	717	San Juan la Laguna	12	San Juan la Laguna	6	Junio	2023-09-06T00:00:00	2024-11-08T06:00:00	1	Precipitación	0
58728	7	Sololá	717	San Juan la Laguna	12	San Juan la Laguna	6	Junio	2023-09-06T00:00:00	2024-11-08T06:00:00	8	Radiación solar	5
58729	7	Sololá	717	San Juan la Laguna	12	San Juan la Laguna	6	Junio	2023-09-06T00:00:00	2024-11-08T07:00:00	2	Temperatura media	18.6
58730	7	Sololá	717	San Juan la Laguna	12	San Juan la Laguna	6	Junio	2023-09-06T00:00:00	2024-11-08T07:00:00	4	Temperatura máxima	18.6
58731	7	Sololá	717	San Juan la Laguna	12	San Juan la Laguna	6	Junio	2023-09-06T00:00:00	2024-11-08T07:00:00	3	Temperatura mínima	17
58732	7	Sololá	717	San Juan la Laguna	12	San Juan la Laguna	6	Junio	2023-09-06T00:00:00	2024-11-08T07:00:00	5	Humedad	87
58733	7	Sololá	717	San Juan la Laguna	12	San Juan la Laguna	6	Junio	2023-09-06T00:00:00	2024-11-08T07:00:00	6	Velocidad del viento	1.6
58734	7	Sololá	717	San Juan la Laguna	12	San Juan la Laguna	6	Junio	2023-09-06T00:00:00	2024-11-08T07:00:00	7	Dirección del viento	1.61
58735	7	Sololá	717	San Juan la Laguna	12	San Juan la Laguna	6	Junio	2023-09-06T00:00:00	2024-11-08T07:00:00	1	Precipitación	0
58736	7	Sololá	717	San Juan la Laguna	12	San Juan la Laguna	6	Junio	2023-09-06T00:00:00	2024-11-08T07:00:00	8	Radiación solar	86
58737	7	Sololá	717	San Juan la Laguna	12	San Juan la Laguna	6	Junio	2023-09-06T00:00:00	2024-11-08T08:00:00	2	Temperatura media	21.8
58738	7	Sololá	717	San Juan la Laguna	12	San Juan la Laguna	6	Junio	2023-09-06T00:00:00	2024-11-08T08:00:00	4	Temperatura máxima	21.8
58739	7	Sololá	717	San Juan la Laguna	12	San Juan la Laguna	6	Junio	2023-09-06T00:00:00	2024-11-08T08:00:00	3	Temperatura mínima	18.6
58740	7	Sololá	717	San Juan la Laguna	12	San Juan la Laguna	6	Junio	2023-09-06T00:00:00	2024-11-08T08:00:00	5	Humedad	78
58741	7	Sololá	717	San Juan la Laguna	12	San Juan la Laguna	6	Junio	2023-09-06T00:00:00	2024-11-08T08:00:00	6	Velocidad del viento	0
58742	7	Sololá	717	San Juan la Laguna	12	San Juan la Laguna	6	Junio	2023-09-06T00:00:00	2024-11-08T08:00:00	7	Dirección del viento	0
58743	7	Sololá	717	San Juan la Laguna	12	San Juan la Laguna	6	Junio	2023-09-06T00:00:00	2024-11-08T08:00:00	1	Precipitación	0
58744	7	Sololá	717	San Juan la Laguna	12	San Juan la Laguna	6	Junio	2023-09-06T00:00:00	2024-11-08T08:00:00	8	Radiación solar	287
58745	7	Sololá	717	San Juan la Laguna	12	San Juan la Laguna	6	Junio	2023-09-06T00:00:00	2024-11-08T09:00:00	2	Temperatura media	23.3
58746	7	Sololá	717	San Juan la Laguna	12	San Juan la Laguna	6	Junio	2023-09-06T00:00:00	2024-11-08T09:00:00	4	Temperatura máxima	23.3
58747	7	Sololá	717	San Juan la Laguna	12	San Juan la Laguna	6	Junio	2023-09-06T00:00:00	2024-11-08T09:00:00	3	Temperatura mínima	21.9
58748	7	Sololá	717	San Juan la Laguna	12	San Juan la Laguna	6	Junio	2023-09-06T00:00:00	2024-11-08T09:00:00	5	Humedad	65
58749	7	Sololá	717	San Juan la Laguna	12	San Juan la Laguna	6	Junio	2023-09-06T00:00:00	2024-11-08T09:00:00	6	Velocidad del viento	4.8
58750	7	Sololá	717	San Juan la Laguna	12	San Juan la Laguna	6	Junio	2023-09-06T00:00:00	2024-11-08T09:00:00	7	Dirección del viento	4.83
58751	7	Sololá	717	San Juan la Laguna	12	San Juan la Laguna	6	Junio	2023-09-06T00:00:00	2024-11-08T09:00:00	1	Precipitación	0
58752	7	Sololá	717	San Juan la Laguna	12	San Juan la Laguna	6	Junio	2023-09-06T00:00:00	2024-11-08T09:00:00	8	Radiación solar	505
58753	7	Sololá	717	San Juan la Laguna	12	San Juan la Laguna	6	Junio	2023-09-06T00:00:00	2024-11-08T10:00:00	2	Temperatura media	24.9
58754	7	Sololá	717	San Juan la Laguna	12	San Juan la Laguna	6	Junio	2023-09-06T00:00:00	2024-11-08T10:00:00	4	Temperatura máxima	24.9
58755	7	Sololá	717	San Juan la Laguna	12	San Juan la Laguna	6	Junio	2023-09-06T00:00:00	2024-11-08T10:00:00	3	Temperatura mínima	23.3
58756	7	Sololá	717	San Juan la Laguna	12	San Juan la Laguna	6	Junio	2023-09-06T00:00:00	2024-11-08T10:00:00	5	Humedad	60
58757	7	Sololá	717	San Juan la Laguna	12	San Juan la Laguna	6	Junio	2023-09-06T00:00:00	2024-11-08T10:00:00	6	Velocidad del viento	6.4
58758	7	Sololá	717	San Juan la Laguna	12	San Juan la Laguna	6	Junio	2023-09-06T00:00:00	2024-11-08T10:00:00	7	Dirección del viento	6.44
58759	7	Sololá	717	San Juan la Laguna	12	San Juan la Laguna	6	Junio	2023-09-06T00:00:00	2024-11-08T10:00:00	1	Precipitación	0
58760	7	Sololá	717	San Juan la Laguna	12	San Juan la Laguna	6	Junio	2023-09-06T00:00:00	2024-11-08T10:00:00	8	Radiación solar	705
58761	7	Sololá	717	San Juan la Laguna	12	San Juan la Laguna	6	Junio	2023-09-06T00:00:00	2024-11-08T11:00:00	2	Temperatura media	24.3
58762	7	Sololá	717	San Juan la Laguna	12	San Juan la Laguna	6	Junio	2023-09-06T00:00:00	2024-11-08T11:00:00	4	Temperatura máxima	25.1
58763	7	Sololá	717	San Juan la Laguna	12	San Juan la Laguna	6	Junio	2023-09-06T00:00:00	2024-11-08T11:00:00	3	Temperatura mínima	24.1
58764	7	Sololá	717	San Juan la Laguna	12	San Juan la Laguna	6	Junio	2023-09-06T00:00:00	2024-11-08T11:00:00	5	Humedad	68
58765	7	Sololá	717	San Juan la Laguna	12	San Juan la Laguna	6	Junio	2023-09-06T00:00:00	2024-11-08T11:00:00	6	Velocidad del viento	8
58766	7	Sololá	717	San Juan la Laguna	12	San Juan la Laguna	6	Junio	2023-09-06T00:00:00	2024-11-08T11:00:00	7	Dirección del viento	8.05
58767	7	Sololá	717	San Juan la Laguna	12	San Juan la Laguna	6	Junio	2023-09-06T00:00:00	2024-11-08T11:00:00	1	Precipitación	0
58768	7	Sololá	717	San Juan la Laguna	12	San Juan la Laguna	6	Junio	2023-09-06T00:00:00	2024-11-08T11:00:00	8	Radiación solar	822
58769	7	Sololá	717	San Juan la Laguna	12	San Juan la Laguna	6	Junio	2023-09-06T00:00:00	2024-11-08T12:00:00	2	Temperatura media	25
58770	7	Sololá	717	San Juan la Laguna	12	San Juan la Laguna	6	Junio	2023-09-06T00:00:00	2024-11-08T12:00:00	4	Temperatura máxima	25
58771	7	Sololá	717	San Juan la Laguna	12	San Juan la Laguna	6	Junio	2023-09-06T00:00:00	2024-11-08T12:00:00	3	Temperatura mínima	24.2
58772	7	Sololá	717	San Juan la Laguna	12	San Juan la Laguna	6	Junio	2023-09-06T00:00:00	2024-11-08T12:00:00	5	Humedad	70
58773	7	Sololá	717	San Juan la Laguna	12	San Juan la Laguna	6	Junio	2023-09-06T00:00:00	2024-11-08T12:00:00	6	Velocidad del viento	9.7
58774	7	Sololá	717	San Juan la Laguna	12	San Juan la Laguna	6	Junio	2023-09-06T00:00:00	2024-11-08T12:00:00	7	Dirección del viento	9.66
58775	7	Sololá	717	San Juan la Laguna	12	San Juan la Laguna	6	Junio	2023-09-06T00:00:00	2024-11-08T12:00:00	1	Precipitación	0
58776	7	Sololá	717	San Juan la Laguna	12	San Juan la Laguna	6	Junio	2023-09-06T00:00:00	2024-11-08T12:00:00	8	Radiación solar	920
58777	7	Sololá	717	San Juan la Laguna	12	San Juan la Laguna	6	Junio	2023-09-06T00:00:00	2024-11-08T13:00:00	2	Temperatura media	24.7
58778	7	Sololá	717	San Juan la Laguna	12	San Juan la Laguna	6	Junio	2023-09-06T00:00:00	2024-11-08T13:00:00	4	Temperatura máxima	25.2
58779	7	Sololá	717	San Juan la Laguna	12	San Juan la Laguna	6	Junio	2023-09-06T00:00:00	2024-11-08T13:00:00	3	Temperatura mínima	24.6
58780	7	Sololá	717	San Juan la Laguna	12	San Juan la Laguna	6	Junio	2023-09-06T00:00:00	2024-11-08T13:00:00	5	Humedad	71
58781	7	Sololá	717	San Juan la Laguna	12	San Juan la Laguna	6	Junio	2023-09-06T00:00:00	2024-11-08T13:00:00	6	Velocidad del viento	9.7
58782	7	Sololá	717	San Juan la Laguna	12	San Juan la Laguna	6	Junio	2023-09-06T00:00:00	2024-11-08T13:00:00	7	Dirección del viento	9.66
58783	7	Sololá	717	San Juan la Laguna	12	San Juan la Laguna	6	Junio	2023-09-06T00:00:00	2024-11-08T13:00:00	1	Precipitación	0
58784	7	Sololá	717	San Juan la Laguna	12	San Juan la Laguna	6	Junio	2023-09-06T00:00:00	2024-11-08T13:00:00	8	Radiación solar	906
58785	7	Sololá	717	San Juan la Laguna	12	San Juan la Laguna	6	Junio	2023-09-06T00:00:00	2024-11-08T14:00:00	2	Temperatura media	24.3
58786	7	Sololá	717	San Juan la Laguna	12	San Juan la Laguna	6	Junio	2023-09-06T00:00:00	2024-11-08T14:00:00	4	Temperatura máxima	24.8
58787	7	Sololá	717	San Juan la Laguna	12	San Juan la Laguna	6	Junio	2023-09-06T00:00:00	2024-11-08T14:00:00	3	Temperatura mínima	24.1
58788	7	Sololá	717	San Juan la Laguna	12	San Juan la Laguna	6	Junio	2023-09-06T00:00:00	2024-11-08T14:00:00	5	Humedad	72
58789	7	Sololá	717	San Juan la Laguna	12	San Juan la Laguna	6	Junio	2023-09-06T00:00:00	2024-11-08T14:00:00	6	Velocidad del viento	8
58790	7	Sololá	717	San Juan la Laguna	12	San Juan la Laguna	6	Junio	2023-09-06T00:00:00	2024-11-08T14:00:00	7	Dirección del viento	8.05
58791	7	Sololá	717	San Juan la Laguna	12	San Juan la Laguna	6	Junio	2023-09-06T00:00:00	2024-11-08T14:00:00	1	Precipitación	0
58792	7	Sololá	717	San Juan la Laguna	12	San Juan la Laguna	6	Junio	2023-09-06T00:00:00	2024-11-08T14:00:00	8	Radiación solar	464
58793	7	Sololá	717	San Juan la Laguna	12	San Juan la Laguna	6	Junio	2023-09-06T00:00:00	2024-11-08T15:00:00	2	Temperatura media	24.9
58794	7	Sololá	717	San Juan la Laguna	12	San Juan la Laguna	6	Junio	2023-09-06T00:00:00	2024-11-08T15:00:00	4	Temperatura máxima	25.2
58795	7	Sololá	717	San Juan la Laguna	12	San Juan la Laguna	6	Junio	2023-09-06T00:00:00	2024-11-08T15:00:00	3	Temperatura mínima	24.2
58796	7	Sololá	717	San Juan la Laguna	12	San Juan la Laguna	6	Junio	2023-09-06T00:00:00	2024-11-08T15:00:00	5	Humedad	69
58797	7	Sololá	717	San Juan la Laguna	12	San Juan la Laguna	6	Junio	2023-09-06T00:00:00	2024-11-08T15:00:00	6	Velocidad del viento	9.7
58798	7	Sololá	717	San Juan la Laguna	12	San Juan la Laguna	6	Junio	2023-09-06T00:00:00	2024-11-08T15:00:00	7	Dirección del viento	9.66
58799	7	Sololá	717	San Juan la Laguna	12	San Juan la Laguna	6	Junio	2023-09-06T00:00:00	2024-11-08T15:00:00	1	Precipitación	0
58800	7	Sololá	717	San Juan la Laguna	12	San Juan la Laguna	6	Junio	2023-09-06T00:00:00	2024-11-08T15:00:00	8	Radiación solar	629
58801	7	Sololá	717	San Juan la Laguna	12	San Juan la Laguna	6	Junio	2023-09-06T00:00:00	2024-11-08T16:00:00	2	Temperatura media	22.7
58802	7	Sololá	717	San Juan la Laguna	12	San Juan la Laguna	6	Junio	2023-09-06T00:00:00	2024-11-08T16:00:00	4	Temperatura máxima	24.9
58803	7	Sololá	717	San Juan la Laguna	12	San Juan la Laguna	6	Junio	2023-09-06T00:00:00	2024-11-08T16:00:00	3	Temperatura mínima	22.3
58804	7	Sololá	717	San Juan la Laguna	12	San Juan la Laguna	6	Junio	2023-09-06T00:00:00	2024-11-08T16:00:00	5	Humedad	79
58805	7	Sololá	717	San Juan la Laguna	12	San Juan la Laguna	6	Junio	2023-09-06T00:00:00	2024-11-08T16:00:00	6	Velocidad del viento	8
58806	7	Sololá	717	San Juan la Laguna	12	San Juan la Laguna	6	Junio	2023-09-06T00:00:00	2024-11-08T16:00:00	7	Dirección del viento	8.05
58807	7	Sololá	717	San Juan la Laguna	12	San Juan la Laguna	6	Junio	2023-09-06T00:00:00	2024-11-08T16:00:00	1	Precipitación	0
58808	7	Sololá	717	San Juan la Laguna	12	San Juan la Laguna	6	Junio	2023-09-06T00:00:00	2024-11-08T16:00:00	8	Radiación solar	196
58809	7	Sololá	717	San Juan la Laguna	12	San Juan la Laguna	6	Junio	2023-09-06T00:00:00	2024-11-08T17:00:00	2	Temperatura media	23.1
58810	7	Sololá	717	San Juan la Laguna	12	San Juan la Laguna	6	Junio	2023-09-06T00:00:00	2024-11-08T17:00:00	4	Temperatura máxima	23.2
58811	7	Sololá	717	San Juan la Laguna	12	San Juan la Laguna	6	Junio	2023-09-06T00:00:00	2024-11-08T17:00:00	3	Temperatura mínima	22.6
58812	7	Sololá	717	San Juan la Laguna	12	San Juan la Laguna	6	Junio	2023-09-06T00:00:00	2024-11-08T17:00:00	5	Humedad	76
58813	7	Sololá	717	San Juan la Laguna	12	San Juan la Laguna	6	Junio	2023-09-06T00:00:00	2024-11-08T17:00:00	6	Velocidad del viento	4.8
58814	7	Sololá	717	San Juan la Laguna	12	San Juan la Laguna	6	Junio	2023-09-06T00:00:00	2024-11-08T17:00:00	7	Dirección del viento	4.83
58815	7	Sololá	717	San Juan la Laguna	12	San Juan la Laguna	6	Junio	2023-09-06T00:00:00	2024-11-08T17:00:00	1	Precipitación	0
58816	7	Sololá	717	San Juan la Laguna	12	San Juan la Laguna	6	Junio	2023-09-06T00:00:00	2024-11-08T17:00:00	8	Radiación solar	176
58817	7	Sololá	717	San Juan la Laguna	12	San Juan la Laguna	6	Junio	2023-09-06T00:00:00	2024-11-08T18:00:00	2	Temperatura media	22.3
58818	7	Sololá	717	San Juan la Laguna	12	San Juan la Laguna	6	Junio	2023-09-06T00:00:00	2024-11-08T18:00:00	4	Temperatura máxima	23.2
58819	7	Sololá	717	San Juan la Laguna	12	San Juan la Laguna	6	Junio	2023-09-06T00:00:00	2024-11-08T18:00:00	3	Temperatura mínima	22.3
58820	7	Sololá	717	San Juan la Laguna	12	San Juan la Laguna	6	Junio	2023-09-06T00:00:00	2024-11-08T18:00:00	5	Humedad	82
58821	7	Sololá	717	San Juan la Laguna	12	San Juan la Laguna	6	Junio	2023-09-06T00:00:00	2024-11-08T18:00:00	6	Velocidad del viento	3.2
58822	7	Sololá	717	San Juan la Laguna	12	San Juan la Laguna	6	Junio	2023-09-06T00:00:00	2024-11-08T18:00:00	7	Dirección del viento	3.22
58823	7	Sololá	717	San Juan la Laguna	12	San Juan la Laguna	6	Junio	2023-09-06T00:00:00	2024-11-08T18:00:00	1	Precipitación	0
58824	7	Sololá	717	San Juan la Laguna	12	San Juan la Laguna	6	Junio	2023-09-06T00:00:00	2024-11-08T18:00:00	8	Radiación solar	64
58825	7	Sololá	717	San Juan la Laguna	12	San Juan la Laguna	6	Junio	2023-09-06T00:00:00	2024-11-08T19:00:00	2	Temperatura media	21.8
58826	7	Sololá	717	San Juan la Laguna	12	San Juan la Laguna	6	Junio	2023-09-06T00:00:00	2024-11-08T19:00:00	4	Temperatura máxima	22.3
58827	7	Sololá	717	San Juan la Laguna	12	San Juan la Laguna	6	Junio	2023-09-06T00:00:00	2024-11-08T19:00:00	3	Temperatura mínima	21.8
58828	7	Sololá	717	San Juan la Laguna	12	San Juan la Laguna	6	Junio	2023-09-06T00:00:00	2024-11-08T19:00:00	5	Humedad	83
58829	7	Sololá	717	San Juan la Laguna	12	San Juan la Laguna	6	Junio	2023-09-06T00:00:00	2024-11-08T19:00:00	6	Velocidad del viento	3.2
58830	7	Sololá	717	San Juan la Laguna	12	San Juan la Laguna	6	Junio	2023-09-06T00:00:00	2024-11-08T19:00:00	7	Dirección del viento	3.22
58831	7	Sololá	717	San Juan la Laguna	12	San Juan la Laguna	6	Junio	2023-09-06T00:00:00	2024-11-08T19:00:00	1	Precipitación	0
58832	7	Sololá	717	San Juan la Laguna	12	San Juan la Laguna	6	Junio	2023-09-06T00:00:00	2024-11-08T19:00:00	8	Radiación solar	0
58833	7	Sololá	717	San Juan la Laguna	12	San Juan la Laguna	6	Junio	2023-09-06T00:00:00	2024-11-08T20:00:00	2	Temperatura media	20.9
58834	7	Sololá	717	San Juan la Laguna	12	San Juan la Laguna	6	Junio	2023-09-06T00:00:00	2024-11-08T20:00:00	4	Temperatura máxima	21.8
58835	7	Sololá	717	San Juan la Laguna	12	San Juan la Laguna	6	Junio	2023-09-06T00:00:00	2024-11-08T20:00:00	3	Temperatura mínima	20.9
58836	7	Sololá	717	San Juan la Laguna	12	San Juan la Laguna	6	Junio	2023-09-06T00:00:00	2024-11-08T20:00:00	5	Humedad	87
58837	7	Sololá	717	San Juan la Laguna	12	San Juan la Laguna	6	Junio	2023-09-06T00:00:00	2024-11-08T20:00:00	6	Velocidad del viento	1.6
58838	7	Sololá	717	San Juan la Laguna	12	San Juan la Laguna	6	Junio	2023-09-06T00:00:00	2024-11-08T20:00:00	7	Dirección del viento	1.61
58839	7	Sololá	717	San Juan la Laguna	12	San Juan la Laguna	6	Junio	2023-09-06T00:00:00	2024-11-08T20:00:00	1	Precipitación	0
58840	7	Sololá	717	San Juan la Laguna	12	San Juan la Laguna	6	Junio	2023-09-06T00:00:00	2024-11-08T20:00:00	8	Radiación solar	0
58841	7	Sololá	717	San Juan la Laguna	12	San Juan la Laguna	6	Junio	2023-09-06T00:00:00	2024-11-08T21:00:00	2	Temperatura media	20.9
58842	7	Sololá	717	San Juan la Laguna	12	San Juan la Laguna	6	Junio	2023-09-06T00:00:00	2024-11-08T21:00:00	4	Temperatura máxima	21.2
58843	7	Sololá	717	San Juan la Laguna	12	San Juan la Laguna	6	Junio	2023-09-06T00:00:00	2024-11-08T21:00:00	3	Temperatura mínima	20.9
58844	7	Sololá	717	San Juan la Laguna	12	San Juan la Laguna	6	Junio	2023-09-06T00:00:00	2024-11-08T21:00:00	5	Humedad	88
58845	7	Sololá	717	San Juan la Laguna	12	San Juan la Laguna	6	Junio	2023-09-06T00:00:00	2024-11-08T21:00:00	6	Velocidad del viento	1.6
58846	7	Sololá	717	San Juan la Laguna	12	San Juan la Laguna	6	Junio	2023-09-06T00:00:00	2024-11-08T21:00:00	7	Dirección del viento	1.61
58847	7	Sololá	717	San Juan la Laguna	12	San Juan la Laguna	6	Junio	2023-09-06T00:00:00	2024-11-08T21:00:00	1	Precipitación	0
58848	7	Sololá	717	San Juan la Laguna	12	San Juan la Laguna	6	Junio	2023-09-06T00:00:00	2024-11-08T21:00:00	8	Radiación solar	0
58849	7	Sololá	717	San Juan la Laguna	12	San Juan la Laguna	6	Junio	2023-09-06T00:00:00	2024-11-08T22:00:00	2	Temperatura media	20.2
58850	7	Sololá	717	San Juan la Laguna	12	San Juan la Laguna	6	Junio	2023-09-06T00:00:00	2024-11-08T22:00:00	4	Temperatura máxima	20.9
58851	7	Sololá	717	San Juan la Laguna	12	San Juan la Laguna	6	Junio	2023-09-06T00:00:00	2024-11-08T22:00:00	3	Temperatura mínima	20.2
58852	7	Sololá	717	San Juan la Laguna	12	San Juan la Laguna	6	Junio	2023-09-06T00:00:00	2024-11-08T22:00:00	5	Humedad	87
58853	7	Sololá	717	San Juan la Laguna	12	San Juan la Laguna	6	Junio	2023-09-06T00:00:00	2024-11-08T22:00:00	6	Velocidad del viento	1.6
58854	7	Sololá	717	San Juan la Laguna	12	San Juan la Laguna	6	Junio	2023-09-06T00:00:00	2024-11-08T22:00:00	7	Dirección del viento	1.61
58855	7	Sololá	717	San Juan la Laguna	12	San Juan la Laguna	6	Junio	2023-09-06T00:00:00	2024-11-08T22:00:00	1	Precipitación	0
58856	7	Sololá	717	San Juan la Laguna	12	San Juan la Laguna	6	Junio	2023-09-06T00:00:00	2024-11-08T22:00:00	8	Radiación solar	0
58857	7	Sololá	717	San Juan la Laguna	12	San Juan la Laguna	6	Junio	2023-09-06T00:00:00	2024-11-08T23:00:00	2	Temperatura media	18.8
58858	7	Sololá	717	San Juan la Laguna	12	San Juan la Laguna	6	Junio	2023-09-06T00:00:00	2024-11-08T23:00:00	4	Temperatura máxima	20.2
58859	7	Sololá	717	San Juan la Laguna	12	San Juan la Laguna	6	Junio	2023-09-06T00:00:00	2024-11-08T23:00:00	3	Temperatura mínima	18.7
58860	7	Sololá	717	San Juan la Laguna	12	San Juan la Laguna	6	Junio	2023-09-06T00:00:00	2024-11-08T23:00:00	5	Humedad	91
58861	7	Sololá	717	San Juan la Laguna	12	San Juan la Laguna	6	Junio	2023-09-06T00:00:00	2024-11-08T23:00:00	6	Velocidad del viento	3.2
58862	7	Sololá	717	San Juan la Laguna	12	San Juan la Laguna	6	Junio	2023-09-06T00:00:00	2024-11-08T23:00:00	7	Dirección del viento	3.22
58863	7	Sololá	717	San Juan la Laguna	12	San Juan la Laguna	6	Junio	2023-09-06T00:00:00	2024-11-08T23:00:00	1	Precipitación	5.8
58864	7	Sololá	717	San Juan la Laguna	12	San Juan la Laguna	6	Junio	2023-09-06T00:00:00	2024-11-08T23:00:00	8	Radiación solar	0
58865	7	Sololá	717	San Juan la Laguna	12	San Juan la Laguna	6	Junio	2023-10-06T00:00:00	2024-11-08T00:00:00	2	Temperatura media	19.1
58866	7	Sololá	717	San Juan la Laguna	12	San Juan la Laguna	6	Junio	2023-10-06T00:00:00	2024-11-08T00:00:00	4	Temperatura máxima	19.1
58867	7	Sololá	717	San Juan la Laguna	12	San Juan la Laguna	6	Junio	2023-10-06T00:00:00	2024-11-08T00:00:00	3	Temperatura mínima	18.8
58868	7	Sololá	717	San Juan la Laguna	12	San Juan la Laguna	6	Junio	2023-10-06T00:00:00	2024-11-08T00:00:00	5	Humedad	90
58869	7	Sololá	717	San Juan la Laguna	12	San Juan la Laguna	6	Junio	2023-10-06T00:00:00	2024-11-08T00:00:00	6	Velocidad del viento	3.2
58870	7	Sololá	717	San Juan la Laguna	12	San Juan la Laguna	6	Junio	2023-10-06T00:00:00	2024-11-08T00:00:00	7	Dirección del viento	3.22
58871	7	Sololá	717	San Juan la Laguna	12	San Juan la Laguna	6	Junio	2023-10-06T00:00:00	2024-11-08T00:00:00	1	Precipitación	0
58872	7	Sololá	717	San Juan la Laguna	12	San Juan la Laguna	6	Junio	2023-10-06T00:00:00	2024-11-08T00:00:00	8	Radiación solar	0
58873	7	Sololá	717	San Juan la Laguna	12	San Juan la Laguna	6	Junio	2023-10-06T00:00:00	2024-11-08T01:00:00	2	Temperatura media	18.7
58874	7	Sololá	717	San Juan la Laguna	12	San Juan la Laguna	6	Junio	2023-10-06T00:00:00	2024-11-08T01:00:00	4	Temperatura máxima	19.1
58875	7	Sololá	717	San Juan la Laguna	12	San Juan la Laguna	6	Junio	2023-10-06T00:00:00	2024-11-08T01:00:00	3	Temperatura mínima	18.7
58876	7	Sololá	717	San Juan la Laguna	12	San Juan la Laguna	6	Junio	2023-10-06T00:00:00	2024-11-08T01:00:00	5	Humedad	92
58877	7	Sololá	717	San Juan la Laguna	12	San Juan la Laguna	6	Junio	2023-10-06T00:00:00	2024-11-08T01:00:00	6	Velocidad del viento	0
58878	7	Sololá	717	San Juan la Laguna	12	San Juan la Laguna	6	Junio	2023-10-06T00:00:00	2024-11-08T01:00:00	7	Dirección del viento	0
58879	7	Sololá	717	San Juan la Laguna	12	San Juan la Laguna	6	Junio	2023-10-06T00:00:00	2024-11-08T01:00:00	1	Precipitación	0
58880	7	Sololá	717	San Juan la Laguna	12	San Juan la Laguna	6	Junio	2023-10-06T00:00:00	2024-11-08T01:00:00	8	Radiación solar	0
58881	7	Sololá	717	San Juan la Laguna	12	San Juan la Laguna	6	Junio	2023-10-06T00:00:00	2024-11-08T02:00:00	2	Temperatura media	18.2
58882	7	Sololá	717	San Juan la Laguna	12	San Juan la Laguna	6	Junio	2023-10-06T00:00:00	2024-11-08T02:00:00	4	Temperatura máxima	18.7
58883	7	Sololá	717	San Juan la Laguna	12	San Juan la Laguna	6	Junio	2023-10-06T00:00:00	2024-11-08T02:00:00	3	Temperatura mínima	18.1
58884	7	Sololá	717	San Juan la Laguna	12	San Juan la Laguna	6	Junio	2023-10-06T00:00:00	2024-11-08T02:00:00	5	Humedad	92
58885	7	Sololá	717	San Juan la Laguna	12	San Juan la Laguna	6	Junio	2023-10-06T00:00:00	2024-11-08T02:00:00	6	Velocidad del viento	1.6
58886	7	Sololá	717	San Juan la Laguna	12	San Juan la Laguna	6	Junio	2023-10-06T00:00:00	2024-11-08T02:00:00	7	Dirección del viento	1.61
58887	7	Sololá	717	San Juan la Laguna	12	San Juan la Laguna	6	Junio	2023-10-06T00:00:00	2024-11-08T02:00:00	1	Precipitación	0
58888	7	Sololá	717	San Juan la Laguna	12	San Juan la Laguna	6	Junio	2023-10-06T00:00:00	2024-11-08T02:00:00	8	Radiación solar	0
58889	7	Sololá	717	San Juan la Laguna	12	San Juan la Laguna	6	Junio	2023-10-06T00:00:00	2024-11-08T03:00:00	2	Temperatura media	18.2
58890	7	Sololá	717	San Juan la Laguna	12	San Juan la Laguna	6	Junio	2023-10-06T00:00:00	2024-11-08T03:00:00	4	Temperatura máxima	18.5
58891	7	Sololá	717	San Juan la Laguna	12	San Juan la Laguna	6	Junio	2023-10-06T00:00:00	2024-11-08T03:00:00	3	Temperatura mínima	18.2
58892	7	Sololá	717	San Juan la Laguna	12	San Juan la Laguna	6	Junio	2023-10-06T00:00:00	2024-11-08T03:00:00	5	Humedad	90
58893	7	Sololá	717	San Juan la Laguna	12	San Juan la Laguna	6	Junio	2023-10-06T00:00:00	2024-11-08T03:00:00	6	Velocidad del viento	4.8
58894	7	Sololá	717	San Juan la Laguna	12	San Juan la Laguna	6	Junio	2023-10-06T00:00:00	2024-11-08T03:00:00	7	Dirección del viento	4.83
58895	7	Sololá	717	San Juan la Laguna	12	San Juan la Laguna	6	Junio	2023-10-06T00:00:00	2024-11-08T03:00:00	1	Precipitación	0
58896	7	Sololá	717	San Juan la Laguna	12	San Juan la Laguna	6	Junio	2023-10-06T00:00:00	2024-11-08T03:00:00	8	Radiación solar	0
58897	7	Sololá	717	San Juan la Laguna	12	San Juan la Laguna	6	Junio	2023-10-06T00:00:00	2024-11-08T04:00:00	2	Temperatura media	17.5
58898	7	Sololá	717	San Juan la Laguna	12	San Juan la Laguna	6	Junio	2023-10-06T00:00:00	2024-11-08T04:00:00	4	Temperatura máxima	18.2
58899	7	Sololá	717	San Juan la Laguna	12	San Juan la Laguna	6	Junio	2023-10-06T00:00:00	2024-11-08T04:00:00	3	Temperatura mínima	17.4
58900	7	Sololá	717	San Juan la Laguna	12	San Juan la Laguna	6	Junio	2023-10-06T00:00:00	2024-11-08T04:00:00	5	Humedad	91
58901	7	Sololá	717	San Juan la Laguna	12	San Juan la Laguna	6	Junio	2023-10-06T00:00:00	2024-11-08T04:00:00	6	Velocidad del viento	3.2
58902	7	Sololá	717	San Juan la Laguna	12	San Juan la Laguna	6	Junio	2023-10-06T00:00:00	2024-11-08T04:00:00	7	Dirección del viento	3.22
58903	7	Sololá	717	San Juan la Laguna	12	San Juan la Laguna	6	Junio	2023-10-06T00:00:00	2024-11-08T04:00:00	1	Precipitación	0
58904	7	Sololá	717	San Juan la Laguna	12	San Juan la Laguna	6	Junio	2023-10-06T00:00:00	2024-11-08T04:00:00	8	Radiación solar	0
58905	7	Sololá	717	San Juan la Laguna	12	San Juan la Laguna	6	Junio	2023-10-06T00:00:00	2024-11-08T05:00:00	2	Temperatura media	17.2
58906	7	Sololá	717	San Juan la Laguna	12	San Juan la Laguna	6	Junio	2023-10-06T00:00:00	2024-11-08T05:00:00	4	Temperatura máxima	17.5
58907	7	Sololá	717	San Juan la Laguna	12	San Juan la Laguna	6	Junio	2023-10-06T00:00:00	2024-11-08T05:00:00	3	Temperatura mínima	16.9
58908	7	Sololá	717	San Juan la Laguna	12	San Juan la Laguna	6	Junio	2023-10-06T00:00:00	2024-11-08T05:00:00	5	Humedad	89
58909	7	Sololá	717	San Juan la Laguna	12	San Juan la Laguna	6	Junio	2023-10-06T00:00:00	2024-11-08T05:00:00	6	Velocidad del viento	3.2
58910	7	Sololá	717	San Juan la Laguna	12	San Juan la Laguna	6	Junio	2023-10-06T00:00:00	2024-11-08T05:00:00	7	Dirección del viento	3.22
58911	7	Sololá	717	San Juan la Laguna	12	San Juan la Laguna	6	Junio	2023-10-06T00:00:00	2024-11-08T05:00:00	1	Precipitación	0
58912	7	Sololá	717	San Juan la Laguna	12	San Juan la Laguna	6	Junio	2023-10-06T00:00:00	2024-11-08T05:00:00	8	Radiación solar	0
58913	7	Sololá	717	San Juan la Laguna	12	San Juan la Laguna	6	Junio	2023-10-06T00:00:00	2024-11-08T06:00:00	2	Temperatura media	16.5
58914	7	Sololá	717	San Juan la Laguna	12	San Juan la Laguna	6	Junio	2023-10-06T00:00:00	2024-11-08T06:00:00	4	Temperatura máxima	17.2
58915	7	Sololá	717	San Juan la Laguna	12	San Juan la Laguna	6	Junio	2023-10-06T00:00:00	2024-11-08T06:00:00	3	Temperatura mínima	16.4
58916	7	Sololá	717	San Juan la Laguna	12	San Juan la Laguna	6	Junio	2023-10-06T00:00:00	2024-11-08T06:00:00	5	Humedad	91
58917	7	Sololá	717	San Juan la Laguna	12	San Juan la Laguna	6	Junio	2023-10-06T00:00:00	2024-11-08T06:00:00	6	Velocidad del viento	3.2
58918	7	Sololá	717	San Juan la Laguna	12	San Juan la Laguna	6	Junio	2023-10-06T00:00:00	2024-11-08T06:00:00	7	Dirección del viento	3.22
58919	7	Sololá	717	San Juan la Laguna	12	San Juan la Laguna	6	Junio	2023-10-06T00:00:00	2024-11-08T06:00:00	1	Precipitación	0
58920	7	Sololá	717	San Juan la Laguna	12	San Juan la Laguna	6	Junio	2023-10-06T00:00:00	2024-11-08T06:00:00	8	Radiación solar	7
58921	7	Sololá	717	San Juan la Laguna	12	San Juan la Laguna	6	Junio	2023-10-06T00:00:00	2024-11-08T07:00:00	2	Temperatura media	18.8
58922	7	Sololá	717	San Juan la Laguna	12	San Juan la Laguna	6	Junio	2023-10-06T00:00:00	2024-11-08T07:00:00	4	Temperatura máxima	18.8
58923	7	Sololá	717	San Juan la Laguna	12	San Juan la Laguna	6	Junio	2023-10-06T00:00:00	2024-11-08T07:00:00	3	Temperatura mínima	16.5
58924	7	Sololá	717	San Juan la Laguna	12	San Juan la Laguna	6	Junio	2023-10-06T00:00:00	2024-11-08T07:00:00	5	Humedad	89
58925	7	Sololá	717	San Juan la Laguna	12	San Juan la Laguna	6	Junio	2023-10-06T00:00:00	2024-11-08T07:00:00	6	Velocidad del viento	1.6
58926	7	Sololá	717	San Juan la Laguna	12	San Juan la Laguna	6	Junio	2023-10-06T00:00:00	2024-11-08T07:00:00	7	Dirección del viento	1.61
58927	7	Sololá	717	San Juan la Laguna	12	San Juan la Laguna	6	Junio	2023-10-06T00:00:00	2024-11-08T07:00:00	1	Precipitación	0
58928	7	Sololá	717	San Juan la Laguna	12	San Juan la Laguna	6	Junio	2023-10-06T00:00:00	2024-11-08T07:00:00	8	Radiación solar	109
58929	7	Sololá	717	San Juan la Laguna	12	San Juan la Laguna	6	Junio	2023-10-06T00:00:00	2024-11-08T08:00:00	2	Temperatura media	20.7
58930	7	Sololá	717	San Juan la Laguna	12	San Juan la Laguna	6	Junio	2023-10-06T00:00:00	2024-11-08T08:00:00	4	Temperatura máxima	20.7
58931	7	Sololá	717	San Juan la Laguna	12	San Juan la Laguna	6	Junio	2023-10-06T00:00:00	2024-11-08T08:00:00	3	Temperatura mínima	18.8
58932	7	Sololá	717	San Juan la Laguna	12	San Juan la Laguna	6	Junio	2023-10-06T00:00:00	2024-11-08T08:00:00	5	Humedad	80
58933	7	Sololá	717	San Juan la Laguna	12	San Juan la Laguna	6	Junio	2023-10-06T00:00:00	2024-11-08T08:00:00	6	Velocidad del viento	1.6
58934	7	Sololá	717	San Juan la Laguna	12	San Juan la Laguna	6	Junio	2023-10-06T00:00:00	2024-11-08T08:00:00	7	Dirección del viento	1.61
58935	7	Sololá	717	San Juan la Laguna	12	San Juan la Laguna	6	Junio	2023-10-06T00:00:00	2024-11-08T08:00:00	1	Precipitación	0
58936	7	Sololá	717	San Juan la Laguna	12	San Juan la Laguna	6	Junio	2023-10-06T00:00:00	2024-11-08T08:00:00	8	Radiación solar	237
58937	7	Sololá	717	San Juan la Laguna	12	San Juan la Laguna	6	Junio	2023-10-06T00:00:00	2024-11-08T09:00:00	2	Temperatura media	22.7
58938	7	Sololá	717	San Juan la Laguna	12	San Juan la Laguna	6	Junio	2023-10-06T00:00:00	2024-11-08T09:00:00	4	Temperatura máxima	22.7
58939	7	Sololá	717	San Juan la Laguna	12	San Juan la Laguna	6	Junio	2023-10-06T00:00:00	2024-11-08T09:00:00	3	Temperatura mínima	20.7
58940	7	Sololá	717	San Juan la Laguna	12	San Juan la Laguna	6	Junio	2023-10-06T00:00:00	2024-11-08T09:00:00	5	Humedad	73
58941	7	Sololá	717	San Juan la Laguna	12	San Juan la Laguna	6	Junio	2023-10-06T00:00:00	2024-11-08T09:00:00	6	Velocidad del viento	3.2
58942	7	Sololá	717	San Juan la Laguna	12	San Juan la Laguna	6	Junio	2023-10-06T00:00:00	2024-11-08T09:00:00	7	Dirección del viento	3.22
58943	7	Sololá	717	San Juan la Laguna	12	San Juan la Laguna	6	Junio	2023-10-06T00:00:00	2024-11-08T09:00:00	1	Precipitación	0
58944	7	Sololá	717	San Juan la Laguna	12	San Juan la Laguna	6	Junio	2023-10-06T00:00:00	2024-11-08T09:00:00	8	Radiación solar	496
58945	7	Sololá	717	San Juan la Laguna	12	San Juan la Laguna	6	Junio	2023-10-06T00:00:00	2024-11-08T10:00:00	2	Temperatura media	23.6
58946	7	Sololá	717	San Juan la Laguna	12	San Juan la Laguna	6	Junio	2023-10-06T00:00:00	2024-11-08T10:00:00	4	Temperatura máxima	23.7
58947	7	Sololá	717	San Juan la Laguna	12	San Juan la Laguna	6	Junio	2023-10-06T00:00:00	2024-11-08T10:00:00	3	Temperatura mínima	22.6
58948	7	Sololá	717	San Juan la Laguna	12	San Juan la Laguna	6	Junio	2023-10-06T00:00:00	2024-11-08T10:00:00	5	Humedad	69
58949	7	Sololá	717	San Juan la Laguna	12	San Juan la Laguna	6	Junio	2023-10-06T00:00:00	2024-11-08T10:00:00	6	Velocidad del viento	6.4
58950	7	Sololá	717	San Juan la Laguna	12	San Juan la Laguna	6	Junio	2023-10-06T00:00:00	2024-11-08T10:00:00	7	Dirección del viento	6.44
58951	7	Sololá	717	San Juan la Laguna	12	San Juan la Laguna	6	Junio	2023-10-06T00:00:00	2024-11-08T10:00:00	1	Precipitación	0
58952	7	Sololá	717	San Juan la Laguna	12	San Juan la Laguna	6	Junio	2023-10-06T00:00:00	2024-11-08T10:00:00	8	Radiación solar	698
58953	7	Sololá	717	San Juan la Laguna	12	San Juan la Laguna	6	Junio	2023-10-06T00:00:00	2024-11-08T11:00:00	2	Temperatura media	23.6
58954	7	Sololá	717	San Juan la Laguna	12	San Juan la Laguna	6	Junio	2023-10-06T00:00:00	2024-11-08T11:00:00	4	Temperatura máxima	24.6
58955	7	Sololá	717	San Juan la Laguna	12	San Juan la Laguna	6	Junio	2023-10-06T00:00:00	2024-11-08T11:00:00	3	Temperatura mínima	23.6
58956	7	Sololá	717	San Juan la Laguna	12	San Juan la Laguna	6	Junio	2023-10-06T00:00:00	2024-11-08T11:00:00	5	Humedad	70
58957	7	Sololá	717	San Juan la Laguna	12	San Juan la Laguna	6	Junio	2023-10-06T00:00:00	2024-11-08T11:00:00	6	Velocidad del viento	9.7
58958	7	Sololá	717	San Juan la Laguna	12	San Juan la Laguna	6	Junio	2023-10-06T00:00:00	2024-11-08T11:00:00	7	Dirección del viento	9.66
58959	7	Sololá	717	San Juan la Laguna	12	San Juan la Laguna	6	Junio	2023-10-06T00:00:00	2024-11-08T11:00:00	1	Precipitación	0
58960	7	Sololá	717	San Juan la Laguna	12	San Juan la Laguna	6	Junio	2023-10-06T00:00:00	2024-11-08T11:00:00	8	Radiación solar	835
58961	7	Sololá	717	San Juan la Laguna	12	San Juan la Laguna	6	Junio	2023-10-06T00:00:00	2024-11-08T12:00:00	2	Temperatura media	23.7
58962	7	Sololá	717	San Juan la Laguna	12	San Juan la Laguna	6	Junio	2023-10-06T00:00:00	2024-11-08T12:00:00	4	Temperatura máxima	24.3
58963	7	Sololá	717	San Juan la Laguna	12	San Juan la Laguna	6	Junio	2023-10-06T00:00:00	2024-11-08T12:00:00	3	Temperatura mínima	23
58964	7	Sololá	717	San Juan la Laguna	12	San Juan la Laguna	6	Junio	2023-10-06T00:00:00	2024-11-08T12:00:00	5	Humedad	71
58965	7	Sololá	717	San Juan la Laguna	12	San Juan la Laguna	6	Junio	2023-10-06T00:00:00	2024-11-08T12:00:00	6	Velocidad del viento	9.7
58966	7	Sololá	717	San Juan la Laguna	12	San Juan la Laguna	6	Junio	2023-10-06T00:00:00	2024-11-08T12:00:00	7	Dirección del viento	9.66
58967	7	Sololá	717	San Juan la Laguna	12	San Juan la Laguna	6	Junio	2023-10-06T00:00:00	2024-11-08T12:00:00	1	Precipitación	0
58968	7	Sololá	717	San Juan la Laguna	12	San Juan la Laguna	6	Junio	2023-10-06T00:00:00	2024-11-08T12:00:00	8	Radiación solar	637
58969	7	Sololá	717	San Juan la Laguna	12	San Juan la Laguna	6	Junio	2023-10-06T00:00:00	2024-11-08T13:00:00	2	Temperatura media	23.3
58970	7	Sololá	717	San Juan la Laguna	12	San Juan la Laguna	6	Junio	2023-10-06T00:00:00	2024-11-08T13:00:00	4	Temperatura máxima	23.8
58971	7	Sololá	717	San Juan la Laguna	12	San Juan la Laguna	6	Junio	2023-10-06T00:00:00	2024-11-08T13:00:00	3	Temperatura mínima	22.9
58972	7	Sololá	717	San Juan la Laguna	12	San Juan la Laguna	6	Junio	2023-10-06T00:00:00	2024-11-08T13:00:00	5	Humedad	73
58973	7	Sololá	717	San Juan la Laguna	12	San Juan la Laguna	6	Junio	2023-10-06T00:00:00	2024-11-08T13:00:00	6	Velocidad del viento	6.4
58974	7	Sololá	717	San Juan la Laguna	12	San Juan la Laguna	6	Junio	2023-10-06T00:00:00	2024-11-08T13:00:00	7	Dirección del viento	6.44
58975	7	Sololá	717	San Juan la Laguna	12	San Juan la Laguna	6	Junio	2023-10-06T00:00:00	2024-11-08T13:00:00	1	Precipitación	0
58976	7	Sololá	717	San Juan la Laguna	12	San Juan la Laguna	6	Junio	2023-10-06T00:00:00	2024-11-08T13:00:00	8	Radiación solar	321
58977	7	Sololá	717	San Juan la Laguna	12	San Juan la Laguna	6	Junio	2023-10-06T00:00:00	2024-11-08T14:00:00	2	Temperatura media	23.9
58978	7	Sololá	717	San Juan la Laguna	12	San Juan la Laguna	6	Junio	2023-10-06T00:00:00	2024-11-08T14:00:00	4	Temperatura máxima	24.8
58979	7	Sololá	717	San Juan la Laguna	12	San Juan la Laguna	6	Junio	2023-10-06T00:00:00	2024-11-08T14:00:00	3	Temperatura mínima	23.3
58980	7	Sololá	717	San Juan la Laguna	12	San Juan la Laguna	6	Junio	2023-10-06T00:00:00	2024-11-08T14:00:00	5	Humedad	70
58981	7	Sololá	717	San Juan la Laguna	12	San Juan la Laguna	6	Junio	2023-10-06T00:00:00	2024-11-08T14:00:00	6	Velocidad del viento	9.7
58982	7	Sololá	717	San Juan la Laguna	12	San Juan la Laguna	6	Junio	2023-10-06T00:00:00	2024-11-08T14:00:00	7	Dirección del viento	9.66
58983	7	Sololá	717	San Juan la Laguna	12	San Juan la Laguna	6	Junio	2023-10-06T00:00:00	2024-11-08T14:00:00	1	Precipitación	0
58984	7	Sololá	717	San Juan la Laguna	12	San Juan la Laguna	6	Junio	2023-10-06T00:00:00	2024-11-08T14:00:00	8	Radiación solar	908
58985	7	Sololá	717	San Juan la Laguna	12	San Juan la Laguna	6	Junio	2023-10-06T00:00:00	2024-11-08T15:00:00	2	Temperatura media	22.6
58986	7	Sololá	717	San Juan la Laguna	12	San Juan la Laguna	6	Junio	2023-10-06T00:00:00	2024-11-08T15:00:00	4	Temperatura máxima	23.9
58987	7	Sololá	717	San Juan la Laguna	12	San Juan la Laguna	6	Junio	2023-10-06T00:00:00	2024-11-08T15:00:00	3	Temperatura mínima	22.5
58988	7	Sololá	717	San Juan la Laguna	12	San Juan la Laguna	6	Junio	2023-10-06T00:00:00	2024-11-08T15:00:00	5	Humedad	75
58989	7	Sololá	717	San Juan la Laguna	12	San Juan la Laguna	6	Junio	2023-10-06T00:00:00	2024-11-08T15:00:00	6	Velocidad del viento	8
58990	7	Sololá	717	San Juan la Laguna	12	San Juan la Laguna	6	Junio	2023-10-06T00:00:00	2024-11-08T15:00:00	7	Dirección del viento	8.05
58991	7	Sololá	717	San Juan la Laguna	12	San Juan la Laguna	6	Junio	2023-10-06T00:00:00	2024-11-08T15:00:00	1	Precipitación	0
58992	7	Sololá	717	San Juan la Laguna	12	San Juan la Laguna	6	Junio	2023-10-06T00:00:00	2024-11-08T15:00:00	8	Radiación solar	477
58993	7	Sololá	717	San Juan la Laguna	12	San Juan la Laguna	6	Junio	2023-10-06T00:00:00	2024-11-08T16:00:00	2	Temperatura media	20.8
58994	7	Sololá	717	San Juan la Laguna	12	San Juan la Laguna	6	Junio	2023-10-06T00:00:00	2024-11-08T16:00:00	4	Temperatura máxima	22.5
58995	7	Sololá	717	San Juan la Laguna	12	San Juan la Laguna	6	Junio	2023-10-06T00:00:00	2024-11-08T16:00:00	3	Temperatura mínima	20.4
58996	7	Sololá	717	San Juan la Laguna	12	San Juan la Laguna	6	Junio	2023-10-06T00:00:00	2024-11-08T16:00:00	5	Humedad	82
58997	7	Sololá	717	San Juan la Laguna	12	San Juan la Laguna	6	Junio	2023-10-06T00:00:00	2024-11-08T16:00:00	6	Velocidad del viento	6.4
58998	7	Sololá	717	San Juan la Laguna	12	San Juan la Laguna	6	Junio	2023-10-06T00:00:00	2024-11-08T16:00:00	7	Dirección del viento	6.44
58999	7	Sololá	717	San Juan la Laguna	12	San Juan la Laguna	6	Junio	2023-10-06T00:00:00	2024-11-08T16:00:00	1	Precipitación	0
59000	7	Sololá	717	San Juan la Laguna	12	San Juan la Laguna	6	Junio	2023-10-06T00:00:00	2024-11-08T16:00:00	8	Radiación solar	72
59001	7	Sololá	717	San Juan la Laguna	12	San Juan la Laguna	6	Junio	2023-10-06T00:00:00	2024-11-08T17:00:00	2	Temperatura media	20.7
59002	7	Sololá	717	San Juan la Laguna	12	San Juan la Laguna	6	Junio	2023-10-06T00:00:00	2024-11-08T17:00:00	4	Temperatura máxima	20.8
59003	7	Sololá	717	San Juan la Laguna	12	San Juan la Laguna	6	Junio	2023-10-06T00:00:00	2024-11-08T17:00:00	3	Temperatura mínima	19.9
59004	7	Sololá	717	San Juan la Laguna	12	San Juan la Laguna	6	Junio	2023-10-06T00:00:00	2024-11-08T17:00:00	5	Humedad	83
59005	7	Sololá	717	San Juan la Laguna	12	San Juan la Laguna	6	Junio	2023-10-06T00:00:00	2024-11-08T17:00:00	6	Velocidad del viento	4.8
59006	7	Sololá	717	San Juan la Laguna	12	San Juan la Laguna	6	Junio	2023-10-06T00:00:00	2024-11-08T17:00:00	7	Dirección del viento	4.83
59007	7	Sololá	717	San Juan la Laguna	12	San Juan la Laguna	6	Junio	2023-10-06T00:00:00	2024-11-08T17:00:00	1	Precipitación	0
59008	7	Sololá	717	San Juan la Laguna	12	San Juan la Laguna	6	Junio	2023-10-06T00:00:00	2024-11-08T17:00:00	8	Radiación solar	46
59009	7	Sololá	717	San Juan la Laguna	12	San Juan la Laguna	6	Junio	2023-10-06T00:00:00	2024-11-08T18:00:00	2	Temperatura media	20.5
59010	7	Sololá	717	San Juan la Laguna	12	San Juan la Laguna	6	Junio	2023-10-06T00:00:00	2024-11-08T18:00:00	4	Temperatura máxima	20.8
59011	7	Sololá	717	San Juan la Laguna	12	San Juan la Laguna	6	Junio	2023-10-06T00:00:00	2024-11-08T18:00:00	3	Temperatura mínima	20.5
59012	7	Sololá	717	San Juan la Laguna	12	San Juan la Laguna	6	Junio	2023-10-06T00:00:00	2024-11-08T18:00:00	5	Humedad	83
59013	7	Sololá	717	San Juan la Laguna	12	San Juan la Laguna	6	Junio	2023-10-06T00:00:00	2024-11-08T18:00:00	6	Velocidad del viento	3.2
59014	7	Sololá	717	San Juan la Laguna	12	San Juan la Laguna	6	Junio	2023-10-06T00:00:00	2024-11-08T18:00:00	7	Dirección del viento	3.22
59015	7	Sololá	717	San Juan la Laguna	12	San Juan la Laguna	6	Junio	2023-10-06T00:00:00	2024-11-08T18:00:00	1	Precipitación	0
59016	7	Sololá	717	San Juan la Laguna	12	San Juan la Laguna	6	Junio	2023-10-06T00:00:00	2024-11-08T18:00:00	8	Radiación solar	33
59017	7	Sololá	717	San Juan la Laguna	12	San Juan la Laguna	6	Junio	2023-10-06T00:00:00	2024-11-08T19:00:00	2	Temperatura media	19.6
59018	7	Sololá	717	San Juan la Laguna	12	San Juan la Laguna	6	Junio	2023-10-06T00:00:00	2024-11-08T19:00:00	4	Temperatura máxima	20.6
59019	7	Sololá	717	San Juan la Laguna	12	San Juan la Laguna	6	Junio	2023-10-06T00:00:00	2024-11-08T19:00:00	3	Temperatura mínima	19.6
59020	7	Sololá	717	San Juan la Laguna	12	San Juan la Laguna	6	Junio	2023-10-06T00:00:00	2024-11-08T19:00:00	5	Humedad	87
59021	7	Sololá	717	San Juan la Laguna	12	San Juan la Laguna	6	Junio	2023-10-06T00:00:00	2024-11-08T19:00:00	6	Velocidad del viento	1.6
59022	7	Sololá	717	San Juan la Laguna	12	San Juan la Laguna	6	Junio	2023-10-06T00:00:00	2024-11-08T19:00:00	7	Dirección del viento	1.61
59023	7	Sololá	717	San Juan la Laguna	12	San Juan la Laguna	6	Junio	2023-10-06T00:00:00	2024-11-08T19:00:00	1	Precipitación	0
59024	7	Sololá	717	San Juan la Laguna	12	San Juan la Laguna	6	Junio	2023-10-06T00:00:00	2024-11-08T19:00:00	8	Radiación solar	0
59025	7	Sololá	717	San Juan la Laguna	12	San Juan la Laguna	6	Junio	2023-10-06T00:00:00	2024-11-08T20:00:00	2	Temperatura media	18.8
59026	7	Sololá	717	San Juan la Laguna	12	San Juan la Laguna	6	Junio	2023-10-06T00:00:00	2024-11-08T20:00:00	4	Temperatura máxima	19.6
59027	7	Sololá	717	San Juan la Laguna	12	San Juan la Laguna	6	Junio	2023-10-06T00:00:00	2024-11-08T20:00:00	3	Temperatura mínima	18.8
59028	7	Sololá	717	San Juan la Laguna	12	San Juan la Laguna	6	Junio	2023-10-06T00:00:00	2024-11-08T20:00:00	5	Humedad	86
59029	7	Sololá	717	San Juan la Laguna	12	San Juan la Laguna	6	Junio	2023-10-06T00:00:00	2024-11-08T20:00:00	6	Velocidad del viento	0
59030	7	Sololá	717	San Juan la Laguna	12	San Juan la Laguna	6	Junio	2023-10-06T00:00:00	2024-11-08T20:00:00	7	Dirección del viento	0
59031	7	Sololá	717	San Juan la Laguna	12	San Juan la Laguna	6	Junio	2023-10-06T00:00:00	2024-11-08T20:00:00	1	Precipitación	0
59032	7	Sololá	717	San Juan la Laguna	12	San Juan la Laguna	6	Junio	2023-10-06T00:00:00	2024-11-08T20:00:00	8	Radiación solar	0
59033	7	Sololá	717	San Juan la Laguna	12	San Juan la Laguna	6	Junio	2023-10-06T00:00:00	2024-11-08T21:00:00	2	Temperatura media	17.9
59034	7	Sololá	717	San Juan la Laguna	12	San Juan la Laguna	6	Junio	2023-10-06T00:00:00	2024-11-08T21:00:00	4	Temperatura máxima	18.8
59035	7	Sololá	717	San Juan la Laguna	12	San Juan la Laguna	6	Junio	2023-10-06T00:00:00	2024-11-08T21:00:00	3	Temperatura mínima	17.8
59036	7	Sololá	717	San Juan la Laguna	12	San Juan la Laguna	6	Junio	2023-10-06T00:00:00	2024-11-08T21:00:00	5	Humedad	88
59037	7	Sololá	717	San Juan la Laguna	12	San Juan la Laguna	6	Junio	2023-10-06T00:00:00	2024-11-08T21:00:00	6	Velocidad del viento	1.6
59038	7	Sololá	717	San Juan la Laguna	12	San Juan la Laguna	6	Junio	2023-10-06T00:00:00	2024-11-08T21:00:00	7	Dirección del viento	1.61
59039	7	Sololá	717	San Juan la Laguna	12	San Juan la Laguna	6	Junio	2023-10-06T00:00:00	2024-11-08T21:00:00	1	Precipitación	0
59040	7	Sololá	717	San Juan la Laguna	12	San Juan la Laguna	6	Junio	2023-10-06T00:00:00	2024-11-08T21:00:00	8	Radiación solar	0
59041	7	Sololá	717	San Juan la Laguna	12	San Juan la Laguna	6	Junio	2023-10-06T00:00:00	2024-11-08T22:00:00	2	Temperatura media	17.7
59042	7	Sololá	717	San Juan la Laguna	12	San Juan la Laguna	6	Junio	2023-10-06T00:00:00	2024-11-08T22:00:00	4	Temperatura máxima	18.1
59043	7	Sololá	717	San Juan la Laguna	12	San Juan la Laguna	6	Junio	2023-10-06T00:00:00	2024-11-08T22:00:00	3	Temperatura mínima	17.7
59044	7	Sololá	717	San Juan la Laguna	12	San Juan la Laguna	6	Junio	2023-10-06T00:00:00	2024-11-08T22:00:00	5	Humedad	87
59045	7	Sololá	717	San Juan la Laguna	12	San Juan la Laguna	6	Junio	2023-10-06T00:00:00	2024-11-08T22:00:00	6	Velocidad del viento	3.2
59046	7	Sololá	717	San Juan la Laguna	12	San Juan la Laguna	6	Junio	2023-10-06T00:00:00	2024-11-08T22:00:00	7	Dirección del viento	3.22
59047	7	Sololá	717	San Juan la Laguna	12	San Juan la Laguna	6	Junio	2023-10-06T00:00:00	2024-11-08T22:00:00	1	Precipitación	0
59048	7	Sololá	717	San Juan la Laguna	12	San Juan la Laguna	6	Junio	2023-10-06T00:00:00	2024-11-08T22:00:00	8	Radiación solar	0
59049	7	Sololá	717	San Juan la Laguna	12	San Juan la Laguna	6	Junio	2023-10-06T00:00:00	2024-11-08T23:00:00	2	Temperatura media	17.8
59050	7	Sololá	717	San Juan la Laguna	12	San Juan la Laguna	6	Junio	2023-10-06T00:00:00	2024-11-08T23:00:00	4	Temperatura máxima	17.8
59051	7	Sololá	717	San Juan la Laguna	12	San Juan la Laguna	6	Junio	2023-10-06T00:00:00	2024-11-08T23:00:00	3	Temperatura mínima	17.6
59052	7	Sololá	717	San Juan la Laguna	12	San Juan la Laguna	6	Junio	2023-10-06T00:00:00	2024-11-08T23:00:00	5	Humedad	87
59053	7	Sololá	717	San Juan la Laguna	12	San Juan la Laguna	6	Junio	2023-10-06T00:00:00	2024-11-08T23:00:00	6	Velocidad del viento	3.2
59054	7	Sololá	717	San Juan la Laguna	12	San Juan la Laguna	6	Junio	2023-10-06T00:00:00	2024-11-08T23:00:00	7	Dirección del viento	3.22
59055	7	Sololá	717	San Juan la Laguna	12	San Juan la Laguna	6	Junio	2023-10-06T00:00:00	2024-11-08T23:00:00	1	Precipitación	0
59056	7	Sololá	717	San Juan la Laguna	12	San Juan la Laguna	6	Junio	2023-10-06T00:00:00	2024-11-08T23:00:00	8	Radiación solar	0
59057	7	Sololá	717	San Juan la Laguna	12	San Juan la Laguna	6	Junio	2023-11-06T00:00:00	2024-11-08T00:00:00	2	Temperatura media	17.3
59058	7	Sololá	717	San Juan la Laguna	12	San Juan la Laguna	6	Junio	2023-11-06T00:00:00	2024-11-08T00:00:00	4	Temperatura máxima	17.8
59059	7	Sololá	717	San Juan la Laguna	12	San Juan la Laguna	6	Junio	2023-11-06T00:00:00	2024-11-08T00:00:00	3	Temperatura mínima	17.3
59060	7	Sololá	717	San Juan la Laguna	12	San Juan la Laguna	6	Junio	2023-11-06T00:00:00	2024-11-08T00:00:00	5	Humedad	89
59061	7	Sololá	717	San Juan la Laguna	12	San Juan la Laguna	6	Junio	2023-11-06T00:00:00	2024-11-08T00:00:00	6	Velocidad del viento	3.2
59062	7	Sololá	717	San Juan la Laguna	12	San Juan la Laguna	6	Junio	2023-11-06T00:00:00	2024-11-08T00:00:00	7	Dirección del viento	3.22
59063	7	Sololá	717	San Juan la Laguna	12	San Juan la Laguna	6	Junio	2023-11-06T00:00:00	2024-11-08T00:00:00	1	Precipitación	0
59064	7	Sololá	717	San Juan la Laguna	12	San Juan la Laguna	6	Junio	2023-11-06T00:00:00	2024-11-08T00:00:00	8	Radiación solar	0
59065	7	Sololá	717	San Juan la Laguna	12	San Juan la Laguna	6	Junio	2023-11-06T00:00:00	2024-11-08T01:00:00	2	Temperatura media	17.8
59066	7	Sololá	717	San Juan la Laguna	12	San Juan la Laguna	6	Junio	2023-11-06T00:00:00	2024-11-08T01:00:00	4	Temperatura máxima	17.8
59067	7	Sololá	717	San Juan la Laguna	12	San Juan la Laguna	6	Junio	2023-11-06T00:00:00	2024-11-08T01:00:00	3	Temperatura mínima	17.3
59068	7	Sololá	717	San Juan la Laguna	12	San Juan la Laguna	6	Junio	2023-11-06T00:00:00	2024-11-08T01:00:00	5	Humedad	86
59069	7	Sololá	717	San Juan la Laguna	12	San Juan la Laguna	6	Junio	2023-11-06T00:00:00	2024-11-08T01:00:00	6	Velocidad del viento	4.8
59070	7	Sololá	717	San Juan la Laguna	12	San Juan la Laguna	6	Junio	2023-11-06T00:00:00	2024-11-08T01:00:00	7	Dirección del viento	4.83
59071	7	Sololá	717	San Juan la Laguna	12	San Juan la Laguna	6	Junio	2023-11-06T00:00:00	2024-11-08T01:00:00	1	Precipitación	0
59072	7	Sololá	717	San Juan la Laguna	12	San Juan la Laguna	6	Junio	2023-11-06T00:00:00	2024-11-08T01:00:00	8	Radiación solar	0
59073	7	Sololá	717	San Juan la Laguna	12	San Juan la Laguna	6	Junio	2023-11-06T00:00:00	2024-11-08T02:00:00	2	Temperatura media	16.7
59074	7	Sololá	717	San Juan la Laguna	12	San Juan la Laguna	6	Junio	2023-11-06T00:00:00	2024-11-08T02:00:00	4	Temperatura máxima	18.2
59075	7	Sololá	717	San Juan la Laguna	12	San Juan la Laguna	6	Junio	2023-11-06T00:00:00	2024-11-08T02:00:00	3	Temperatura mínima	16.7
59076	7	Sololá	717	San Juan la Laguna	12	San Juan la Laguna	6	Junio	2023-11-06T00:00:00	2024-11-08T02:00:00	5	Humedad	88
59077	7	Sololá	717	San Juan la Laguna	12	San Juan la Laguna	6	Junio	2023-11-06T00:00:00	2024-11-08T02:00:00	6	Velocidad del viento	1.6
59078	7	Sololá	717	San Juan la Laguna	12	San Juan la Laguna	6	Junio	2023-11-06T00:00:00	2024-11-08T02:00:00	7	Dirección del viento	1.61
59079	7	Sololá	717	San Juan la Laguna	12	San Juan la Laguna	6	Junio	2023-11-06T00:00:00	2024-11-08T02:00:00	1	Precipitación	0
59080	7	Sololá	717	San Juan la Laguna	12	San Juan la Laguna	6	Junio	2023-11-06T00:00:00	2024-11-08T02:00:00	8	Radiación solar	0
59081	7	Sololá	717	San Juan la Laguna	12	San Juan la Laguna	6	Junio	2023-11-06T00:00:00	2024-11-08T03:00:00	2	Temperatura media	16.8
59082	7	Sololá	717	San Juan la Laguna	12	San Juan la Laguna	6	Junio	2023-11-06T00:00:00	2024-11-08T03:00:00	4	Temperatura máxima	16.9
59083	7	Sololá	717	San Juan la Laguna	12	San Juan la Laguna	6	Junio	2023-11-06T00:00:00	2024-11-08T03:00:00	3	Temperatura mínima	16.7
59084	7	Sololá	717	San Juan la Laguna	12	San Juan la Laguna	6	Junio	2023-11-06T00:00:00	2024-11-08T03:00:00	5	Humedad	84
59085	7	Sololá	717	San Juan la Laguna	12	San Juan la Laguna	6	Junio	2023-11-06T00:00:00	2024-11-08T03:00:00	6	Velocidad del viento	3.2
59086	7	Sololá	717	San Juan la Laguna	12	San Juan la Laguna	6	Junio	2023-11-06T00:00:00	2024-11-08T03:00:00	7	Dirección del viento	3.22
59087	7	Sololá	717	San Juan la Laguna	12	San Juan la Laguna	6	Junio	2023-11-06T00:00:00	2024-11-08T03:00:00	1	Precipitación	0
59088	7	Sololá	717	San Juan la Laguna	12	San Juan la Laguna	6	Junio	2023-11-06T00:00:00	2024-11-08T03:00:00	8	Radiación solar	0
59089	7	Sololá	717	San Juan la Laguna	12	San Juan la Laguna	6	Junio	2023-11-06T00:00:00	2024-11-08T04:00:00	2	Temperatura media	16.8
59090	7	Sololá	717	San Juan la Laguna	12	San Juan la Laguna	6	Junio	2023-11-06T00:00:00	2024-11-08T04:00:00	4	Temperatura máxima	16.9
59091	7	Sololá	717	San Juan la Laguna	12	San Juan la Laguna	6	Junio	2023-11-06T00:00:00	2024-11-08T04:00:00	3	Temperatura mínima	16.4
59092	7	Sololá	717	San Juan la Laguna	12	San Juan la Laguna	6	Junio	2023-11-06T00:00:00	2024-11-08T04:00:00	5	Humedad	88
59093	7	Sololá	717	San Juan la Laguna	12	San Juan la Laguna	6	Junio	2023-11-06T00:00:00	2024-11-08T04:00:00	6	Velocidad del viento	3.2
59094	7	Sololá	717	San Juan la Laguna	12	San Juan la Laguna	6	Junio	2023-11-06T00:00:00	2024-11-08T04:00:00	7	Dirección del viento	3.22
59095	7	Sololá	717	San Juan la Laguna	12	San Juan la Laguna	6	Junio	2023-11-06T00:00:00	2024-11-08T04:00:00	1	Precipitación	0
59096	7	Sololá	717	San Juan la Laguna	12	San Juan la Laguna	6	Junio	2023-11-06T00:00:00	2024-11-08T04:00:00	8	Radiación solar	0
59097	7	Sololá	717	San Juan la Laguna	12	San Juan la Laguna	6	Junio	2023-11-06T00:00:00	2024-11-08T05:00:00	2	Temperatura media	17.3
59098	7	Sololá	717	San Juan la Laguna	12	San Juan la Laguna	6	Junio	2023-11-06T00:00:00	2024-11-08T05:00:00	4	Temperatura máxima	17.3
59099	7	Sololá	717	San Juan la Laguna	12	San Juan la Laguna	6	Junio	2023-11-06T00:00:00	2024-11-08T05:00:00	3	Temperatura mínima	16.8
59100	7	Sololá	717	San Juan la Laguna	12	San Juan la Laguna	6	Junio	2023-11-06T00:00:00	2024-11-08T05:00:00	5	Humedad	87
59101	7	Sololá	717	San Juan la Laguna	12	San Juan la Laguna	6	Junio	2023-11-06T00:00:00	2024-11-08T05:00:00	6	Velocidad del viento	1.6
59102	7	Sololá	717	San Juan la Laguna	12	San Juan la Laguna	6	Junio	2023-11-06T00:00:00	2024-11-08T05:00:00	7	Dirección del viento	1.61
59103	7	Sololá	717	San Juan la Laguna	12	San Juan la Laguna	6	Junio	2023-11-06T00:00:00	2024-11-08T05:00:00	1	Precipitación	0
59104	7	Sololá	717	San Juan la Laguna	12	San Juan la Laguna	6	Junio	2023-11-06T00:00:00	2024-11-08T05:00:00	8	Radiación solar	0
59105	7	Sololá	717	San Juan la Laguna	12	San Juan la Laguna	6	Junio	2023-11-06T00:00:00	2024-11-08T06:00:00	2	Temperatura media	16.4
59106	7	Sololá	717	San Juan la Laguna	12	San Juan la Laguna	6	Junio	2023-11-06T00:00:00	2024-11-08T06:00:00	4	Temperatura máxima	17.3
59107	7	Sololá	717	San Juan la Laguna	12	San Juan la Laguna	6	Junio	2023-11-06T00:00:00	2024-11-08T06:00:00	3	Temperatura mínima	16.4
59108	7	Sololá	717	San Juan la Laguna	12	San Juan la Laguna	6	Junio	2023-11-06T00:00:00	2024-11-08T06:00:00	5	Humedad	89
59109	7	Sololá	717	San Juan la Laguna	12	San Juan la Laguna	6	Junio	2023-11-06T00:00:00	2024-11-08T06:00:00	6	Velocidad del viento	1.6
59110	7	Sololá	717	San Juan la Laguna	12	San Juan la Laguna	6	Junio	2023-11-06T00:00:00	2024-11-08T06:00:00	7	Dirección del viento	1.61
59111	7	Sololá	717	San Juan la Laguna	12	San Juan la Laguna	6	Junio	2023-11-06T00:00:00	2024-11-08T06:00:00	1	Precipitación	0
59112	7	Sololá	717	San Juan la Laguna	12	San Juan la Laguna	6	Junio	2023-11-06T00:00:00	2024-11-08T06:00:00	8	Radiación solar	5
59113	7	Sololá	717	San Juan la Laguna	12	San Juan la Laguna	6	Junio	2023-11-06T00:00:00	2024-11-08T07:00:00	2	Temperatura media	18.7
59114	7	Sololá	717	San Juan la Laguna	12	San Juan la Laguna	6	Junio	2023-11-06T00:00:00	2024-11-08T07:00:00	4	Temperatura máxima	18.7
59115	7	Sololá	717	San Juan la Laguna	12	San Juan la Laguna	6	Junio	2023-11-06T00:00:00	2024-11-08T07:00:00	3	Temperatura mínima	16.4
59116	7	Sololá	717	San Juan la Laguna	12	San Juan la Laguna	6	Junio	2023-11-06T00:00:00	2024-11-08T07:00:00	5	Humedad	85
59117	7	Sololá	717	San Juan la Laguna	12	San Juan la Laguna	6	Junio	2023-11-06T00:00:00	2024-11-08T07:00:00	6	Velocidad del viento	1.6
59118	7	Sololá	717	San Juan la Laguna	12	San Juan la Laguna	6	Junio	2023-11-06T00:00:00	2024-11-08T07:00:00	7	Dirección del viento	1.61
59119	7	Sololá	717	San Juan la Laguna	12	San Juan la Laguna	6	Junio	2023-11-06T00:00:00	2024-11-08T07:00:00	1	Precipitación	0
59120	7	Sololá	717	San Juan la Laguna	12	San Juan la Laguna	6	Junio	2023-11-06T00:00:00	2024-11-08T07:00:00	8	Radiación solar	125
59121	7	Sololá	717	San Juan la Laguna	12	San Juan la Laguna	6	Junio	2023-11-06T00:00:00	2024-11-08T08:00:00	2	Temperatura media	20.3
59122	7	Sololá	717	San Juan la Laguna	12	San Juan la Laguna	6	Junio	2023-11-06T00:00:00	2024-11-08T08:00:00	4	Temperatura máxima	20.3
59123	7	Sololá	717	San Juan la Laguna	12	San Juan la Laguna	6	Junio	2023-11-06T00:00:00	2024-11-08T08:00:00	3	Temperatura mínima	18.7
59124	7	Sololá	717	San Juan la Laguna	12	San Juan la Laguna	6	Junio	2023-11-06T00:00:00	2024-11-08T08:00:00	5	Humedad	80
59125	7	Sololá	717	San Juan la Laguna	12	San Juan la Laguna	6	Junio	2023-11-06T00:00:00	2024-11-08T08:00:00	6	Velocidad del viento	1.6
59126	7	Sololá	717	San Juan la Laguna	12	San Juan la Laguna	6	Junio	2023-11-06T00:00:00	2024-11-08T08:00:00	7	Dirección del viento	1.61
59127	7	Sololá	717	San Juan la Laguna	12	San Juan la Laguna	6	Junio	2023-11-06T00:00:00	2024-11-08T08:00:00	1	Precipitación	0
59128	7	Sololá	717	San Juan la Laguna	12	San Juan la Laguna	6	Junio	2023-11-06T00:00:00	2024-11-08T08:00:00	8	Radiación solar	262
59129	7	Sololá	717	San Juan la Laguna	12	San Juan la Laguna	6	Junio	2023-11-06T00:00:00	2024-11-08T09:00:00	2	Temperatura media	22.6
59130	7	Sololá	717	San Juan la Laguna	12	San Juan la Laguna	6	Junio	2023-11-06T00:00:00	2024-11-08T09:00:00	4	Temperatura máxima	22.6
59131	7	Sololá	717	San Juan la Laguna	12	San Juan la Laguna	6	Junio	2023-11-06T00:00:00	2024-11-08T09:00:00	3	Temperatura mínima	20.3
59132	7	Sololá	717	San Juan la Laguna	12	San Juan la Laguna	6	Junio	2023-11-06T00:00:00	2024-11-08T09:00:00	5	Humedad	70
59133	7	Sololá	717	San Juan la Laguna	12	San Juan la Laguna	6	Junio	2023-11-06T00:00:00	2024-11-08T09:00:00	6	Velocidad del viento	4.8
59134	7	Sololá	717	San Juan la Laguna	12	San Juan la Laguna	6	Junio	2023-11-06T00:00:00	2024-11-08T09:00:00	7	Dirección del viento	4.83
59135	7	Sololá	717	San Juan la Laguna	12	San Juan la Laguna	6	Junio	2023-11-06T00:00:00	2024-11-08T09:00:00	1	Precipitación	0
59136	7	Sololá	717	San Juan la Laguna	12	San Juan la Laguna	6	Junio	2023-11-06T00:00:00	2024-11-08T09:00:00	8	Radiación solar	459
59137	7	Sololá	717	San Juan la Laguna	12	San Juan la Laguna	6	Junio	2023-11-06T00:00:00	2024-11-08T10:00:00	2	Temperatura media	23.1
59138	7	Sololá	717	San Juan la Laguna	12	San Juan la Laguna	6	Junio	2023-11-06T00:00:00	2024-11-08T10:00:00	4	Temperatura máxima	23.8
59139	7	Sololá	717	San Juan la Laguna	12	San Juan la Laguna	6	Junio	2023-11-06T00:00:00	2024-11-08T10:00:00	3	Temperatura mínima	22.6
59140	7	Sololá	717	San Juan la Laguna	12	San Juan la Laguna	6	Junio	2023-11-06T00:00:00	2024-11-08T10:00:00	5	Humedad	66
59141	7	Sololá	717	San Juan la Laguna	12	San Juan la Laguna	6	Junio	2023-11-06T00:00:00	2024-11-08T10:00:00	6	Velocidad del viento	6.4
59142	7	Sololá	717	San Juan la Laguna	12	San Juan la Laguna	6	Junio	2023-11-06T00:00:00	2024-11-08T10:00:00	7	Dirección del viento	6.44
59143	7	Sololá	717	San Juan la Laguna	12	San Juan la Laguna	6	Junio	2023-11-06T00:00:00	2024-11-08T10:00:00	1	Precipitación	0
59144	7	Sololá	717	San Juan la Laguna	12	San Juan la Laguna	6	Junio	2023-11-06T00:00:00	2024-11-08T10:00:00	8	Radiación solar	697
59145	7	Sololá	717	San Juan la Laguna	12	San Juan la Laguna	6	Junio	2023-11-06T00:00:00	2024-11-08T11:00:00	2	Temperatura media	24
59146	7	Sololá	717	San Juan la Laguna	12	San Juan la Laguna	6	Junio	2023-11-06T00:00:00	2024-11-08T11:00:00	4	Temperatura máxima	24.1
59147	7	Sololá	717	San Juan la Laguna	12	San Juan la Laguna	6	Junio	2023-11-06T00:00:00	2024-11-08T11:00:00	3	Temperatura mínima	23.1
59148	7	Sololá	717	San Juan la Laguna	12	San Juan la Laguna	6	Junio	2023-11-06T00:00:00	2024-11-08T11:00:00	5	Humedad	62
59149	7	Sololá	717	San Juan la Laguna	12	San Juan la Laguna	6	Junio	2023-11-06T00:00:00	2024-11-08T11:00:00	6	Velocidad del viento	6.4
59150	7	Sololá	717	San Juan la Laguna	12	San Juan la Laguna	6	Junio	2023-11-06T00:00:00	2024-11-08T11:00:00	7	Dirección del viento	6.44
59151	7	Sololá	717	San Juan la Laguna	12	San Juan la Laguna	6	Junio	2023-11-06T00:00:00	2024-11-08T11:00:00	1	Precipitación	0
59152	7	Sololá	717	San Juan la Laguna	12	San Juan la Laguna	6	Junio	2023-11-06T00:00:00	2024-11-08T11:00:00	8	Radiación solar	718
59153	7	Sololá	717	San Juan la Laguna	12	San Juan la Laguna	6	Junio	2023-11-06T00:00:00	2024-11-08T12:00:00	2	Temperatura media	24.7
59154	7	Sololá	717	San Juan la Laguna	12	San Juan la Laguna	6	Junio	2023-11-06T00:00:00	2024-11-08T12:00:00	4	Temperatura máxima	24.9
59155	7	Sololá	717	San Juan la Laguna	12	San Juan la Laguna	6	Junio	2023-11-06T00:00:00	2024-11-08T12:00:00	3	Temperatura mínima	23.9
59156	7	Sololá	717	San Juan la Laguna	12	San Juan la Laguna	6	Junio	2023-11-06T00:00:00	2024-11-08T12:00:00	5	Humedad	65
59157	7	Sololá	717	San Juan la Laguna	12	San Juan la Laguna	6	Junio	2023-11-06T00:00:00	2024-11-08T12:00:00	6	Velocidad del viento	8
59158	7	Sololá	717	San Juan la Laguna	12	San Juan la Laguna	6	Junio	2023-11-06T00:00:00	2024-11-08T12:00:00	7	Dirección del viento	8.05
59159	7	Sololá	717	San Juan la Laguna	12	San Juan la Laguna	6	Junio	2023-11-06T00:00:00	2024-11-08T12:00:00	1	Precipitación	0
59160	7	Sololá	717	San Juan la Laguna	12	San Juan la Laguna	6	Junio	2023-11-06T00:00:00	2024-11-08T12:00:00	8	Radiación solar	995
59161	7	Sololá	717	San Juan la Laguna	12	San Juan la Laguna	6	Junio	2023-11-06T00:00:00	2024-11-08T13:00:00	2	Temperatura media	24.8
59162	7	Sololá	717	San Juan la Laguna	12	San Juan la Laguna	6	Junio	2023-11-06T00:00:00	2024-11-08T13:00:00	4	Temperatura máxima	25.1
59163	7	Sololá	717	San Juan la Laguna	12	San Juan la Laguna	6	Junio	2023-11-06T00:00:00	2024-11-08T13:00:00	3	Temperatura mínima	24.4
59164	7	Sololá	717	San Juan la Laguna	12	San Juan la Laguna	6	Junio	2023-11-06T00:00:00	2024-11-08T13:00:00	5	Humedad	66
59165	7	Sololá	717	San Juan la Laguna	12	San Juan la Laguna	6	Junio	2023-11-06T00:00:00	2024-11-08T13:00:00	6	Velocidad del viento	9.7
59166	7	Sololá	717	San Juan la Laguna	12	San Juan la Laguna	6	Junio	2023-11-06T00:00:00	2024-11-08T13:00:00	7	Dirección del viento	9.66
59167	7	Sololá	717	San Juan la Laguna	12	San Juan la Laguna	6	Junio	2023-11-06T00:00:00	2024-11-08T13:00:00	1	Precipitación	0
59168	7	Sololá	717	San Juan la Laguna	12	San Juan la Laguna	6	Junio	2023-11-06T00:00:00	2024-11-08T13:00:00	8	Radiación solar	963
59169	7	Sololá	717	San Juan la Laguna	12	San Juan la Laguna	6	Junio	2023-11-06T00:00:00	2024-11-08T14:00:00	2	Temperatura media	25.3
59170	7	Sololá	717	San Juan la Laguna	12	San Juan la Laguna	6	Junio	2023-11-06T00:00:00	2024-11-08T14:00:00	4	Temperatura máxima	25.9
59171	7	Sololá	717	San Juan la Laguna	12	San Juan la Laguna	6	Junio	2023-11-06T00:00:00	2024-11-08T14:00:00	3	Temperatura mínima	24.8
59172	7	Sololá	717	San Juan la Laguna	12	San Juan la Laguna	6	Junio	2023-11-06T00:00:00	2024-11-08T14:00:00	5	Humedad	67
59173	7	Sololá	717	San Juan la Laguna	12	San Juan la Laguna	6	Junio	2023-11-06T00:00:00	2024-11-08T14:00:00	6	Velocidad del viento	9.7
59174	7	Sololá	717	San Juan la Laguna	12	San Juan la Laguna	6	Junio	2023-11-06T00:00:00	2024-11-08T14:00:00	7	Dirección del viento	9.66
59175	7	Sololá	717	San Juan la Laguna	12	San Juan la Laguna	6	Junio	2023-11-06T00:00:00	2024-11-08T14:00:00	1	Precipitación	0
59176	7	Sololá	717	San Juan la Laguna	12	San Juan la Laguna	6	Junio	2023-11-06T00:00:00	2024-11-08T14:00:00	8	Radiación solar	895
59177	7	Sololá	717	San Juan la Laguna	12	San Juan la Laguna	6	Junio	2023-11-06T00:00:00	2024-11-08T15:00:00	2	Temperatura media	25.1
59178	7	Sololá	717	San Juan la Laguna	12	San Juan la Laguna	6	Junio	2023-11-06T00:00:00	2024-11-08T15:00:00	4	Temperatura máxima	25.4
59179	7	Sololá	717	San Juan la Laguna	12	San Juan la Laguna	6	Junio	2023-11-06T00:00:00	2024-11-08T15:00:00	3	Temperatura mínima	24.8
59180	7	Sololá	717	San Juan la Laguna	12	San Juan la Laguna	6	Junio	2023-11-06T00:00:00	2024-11-08T15:00:00	5	Humedad	70
59181	7	Sololá	717	San Juan la Laguna	12	San Juan la Laguna	6	Junio	2023-11-06T00:00:00	2024-11-08T15:00:00	6	Velocidad del viento	8
59182	7	Sololá	717	San Juan la Laguna	12	San Juan la Laguna	6	Junio	2023-11-06T00:00:00	2024-11-08T15:00:00	7	Dirección del viento	8.05
59183	7	Sololá	717	San Juan la Laguna	12	San Juan la Laguna	6	Junio	2023-11-06T00:00:00	2024-11-08T15:00:00	1	Precipitación	0
59184	7	Sololá	717	San Juan la Laguna	12	San Juan la Laguna	6	Junio	2023-11-06T00:00:00	2024-11-08T15:00:00	8	Radiación solar	783
59185	7	Sololá	717	San Juan la Laguna	12	San Juan la Laguna	6	Junio	2023-11-06T00:00:00	2024-11-08T16:00:00	2	Temperatura media	24.9
59186	7	Sololá	717	San Juan la Laguna	12	San Juan la Laguna	6	Junio	2023-11-06T00:00:00	2024-11-08T16:00:00	4	Temperatura máxima	25.8
59187	7	Sololá	717	San Juan la Laguna	12	San Juan la Laguna	6	Junio	2023-11-06T00:00:00	2024-11-08T16:00:00	3	Temperatura mínima	24.7
59188	7	Sololá	717	San Juan la Laguna	12	San Juan la Laguna	6	Junio	2023-11-06T00:00:00	2024-11-08T16:00:00	5	Humedad	71
59189	7	Sololá	717	San Juan la Laguna	12	San Juan la Laguna	6	Junio	2023-11-06T00:00:00	2024-11-08T16:00:00	6	Velocidad del viento	8
59190	7	Sololá	717	San Juan la Laguna	12	San Juan la Laguna	6	Junio	2023-11-06T00:00:00	2024-11-08T16:00:00	7	Dirección del viento	8.05
59191	7	Sololá	717	San Juan la Laguna	12	San Juan la Laguna	6	Junio	2023-11-06T00:00:00	2024-11-08T16:00:00	1	Precipitación	0
59192	7	Sololá	717	San Juan la Laguna	12	San Juan la Laguna	6	Junio	2023-11-06T00:00:00	2024-11-08T16:00:00	8	Radiación solar	625
59193	7	Sololá	717	San Juan la Laguna	12	San Juan la Laguna	6	Junio	2023-11-06T00:00:00	2024-11-08T17:00:00	2	Temperatura media	24.1
59194	7	Sololá	717	San Juan la Laguna	12	San Juan la Laguna	6	Junio	2023-11-06T00:00:00	2024-11-08T17:00:00	4	Temperatura máxima	25
59195	7	Sololá	717	San Juan la Laguna	12	San Juan la Laguna	6	Junio	2023-11-06T00:00:00	2024-11-08T17:00:00	3	Temperatura mínima	24.1
59196	7	Sololá	717	San Juan la Laguna	12	San Juan la Laguna	6	Junio	2023-11-06T00:00:00	2024-11-08T17:00:00	5	Humedad	73
59197	7	Sololá	717	San Juan la Laguna	12	San Juan la Laguna	6	Junio	2023-11-06T00:00:00	2024-11-08T17:00:00	6	Velocidad del viento	6.4
59198	7	Sololá	717	San Juan la Laguna	12	San Juan la Laguna	6	Junio	2023-11-06T00:00:00	2024-11-08T17:00:00	7	Dirección del viento	6.44
59199	7	Sololá	717	San Juan la Laguna	12	San Juan la Laguna	6	Junio	2023-11-06T00:00:00	2024-11-08T17:00:00	1	Precipitación	0
59200	7	Sololá	717	San Juan la Laguna	12	San Juan la Laguna	6	Junio	2023-11-06T00:00:00	2024-11-08T17:00:00	8	Radiación solar	297
59201	7	Sololá	717	San Juan la Laguna	12	San Juan la Laguna	6	Junio	2023-11-06T00:00:00	2024-11-08T18:00:00	2	Temperatura media	22.7
59202	7	Sololá	717	San Juan la Laguna	12	San Juan la Laguna	6	Junio	2023-11-06T00:00:00	2024-11-08T18:00:00	4	Temperatura máxima	24.2
59203	7	Sololá	717	San Juan la Laguna	12	San Juan la Laguna	6	Junio	2023-11-06T00:00:00	2024-11-08T18:00:00	3	Temperatura mínima	22.7
59204	7	Sololá	717	San Juan la Laguna	12	San Juan la Laguna	6	Junio	2023-11-06T00:00:00	2024-11-08T18:00:00	5	Humedad	78
59205	7	Sololá	717	San Juan la Laguna	12	San Juan la Laguna	6	Junio	2023-11-06T00:00:00	2024-11-08T18:00:00	6	Velocidad del viento	3.2
59206	7	Sololá	717	San Juan la Laguna	12	San Juan la Laguna	6	Junio	2023-11-06T00:00:00	2024-11-08T18:00:00	7	Dirección del viento	3.22
59207	7	Sololá	717	San Juan la Laguna	12	San Juan la Laguna	6	Junio	2023-11-06T00:00:00	2024-11-08T18:00:00	1	Precipitación	0
59208	7	Sololá	717	San Juan la Laguna	12	San Juan la Laguna	6	Junio	2023-11-06T00:00:00	2024-11-08T18:00:00	8	Radiación solar	105
59209	7	Sololá	717	San Juan la Laguna	12	San Juan la Laguna	6	Junio	2023-11-06T00:00:00	2024-11-08T19:00:00	2	Temperatura media	22.3
59210	7	Sololá	717	San Juan la Laguna	12	San Juan la Laguna	6	Junio	2023-11-06T00:00:00	2024-11-08T19:00:00	4	Temperatura máxima	22.7
59211	7	Sololá	717	San Juan la Laguna	12	San Juan la Laguna	6	Junio	2023-11-06T00:00:00	2024-11-08T19:00:00	3	Temperatura mínima	22.2
59212	7	Sololá	717	San Juan la Laguna	12	San Juan la Laguna	6	Junio	2023-11-06T00:00:00	2024-11-08T19:00:00	5	Humedad	82
59213	7	Sololá	717	San Juan la Laguna	12	San Juan la Laguna	6	Junio	2023-11-06T00:00:00	2024-11-08T19:00:00	6	Velocidad del viento	0
59214	7	Sololá	717	San Juan la Laguna	12	San Juan la Laguna	6	Junio	2023-11-06T00:00:00	2024-11-08T19:00:00	7	Dirección del viento	0
59215	7	Sololá	717	San Juan la Laguna	12	San Juan la Laguna	6	Junio	2023-11-06T00:00:00	2024-11-08T19:00:00	1	Precipitación	0
59216	7	Sololá	717	San Juan la Laguna	12	San Juan la Laguna	6	Junio	2023-11-06T00:00:00	2024-11-08T19:00:00	8	Radiación solar	0
59217	7	Sololá	717	San Juan la Laguna	12	San Juan la Laguna	6	Junio	2023-11-06T00:00:00	2024-11-08T20:00:00	2	Temperatura media	21.8
59218	7	Sololá	717	San Juan la Laguna	12	San Juan la Laguna	6	Junio	2023-11-06T00:00:00	2024-11-08T20:00:00	4	Temperatura máxima	22.2
59219	7	Sololá	717	San Juan la Laguna	12	San Juan la Laguna	6	Junio	2023-11-06T00:00:00	2024-11-08T20:00:00	3	Temperatura mínima	21.8
59220	7	Sololá	717	San Juan la Laguna	12	San Juan la Laguna	6	Junio	2023-11-06T00:00:00	2024-11-08T20:00:00	5	Humedad	85
59221	7	Sololá	717	San Juan la Laguna	12	San Juan la Laguna	6	Junio	2023-11-06T00:00:00	2024-11-08T20:00:00	6	Velocidad del viento	0
59222	7	Sololá	717	San Juan la Laguna	12	San Juan la Laguna	6	Junio	2023-11-06T00:00:00	2024-11-08T20:00:00	7	Dirección del viento	0
59223	7	Sololá	717	San Juan la Laguna	12	San Juan la Laguna	6	Junio	2023-11-06T00:00:00	2024-11-08T20:00:00	1	Precipitación	0
59224	7	Sololá	717	San Juan la Laguna	12	San Juan la Laguna	6	Junio	2023-11-06T00:00:00	2024-11-08T20:00:00	8	Radiación solar	0
59225	7	Sololá	717	San Juan la Laguna	12	San Juan la Laguna	6	Junio	2023-11-06T00:00:00	2024-11-08T21:00:00	2	Temperatura media	21.2
59226	7	Sololá	717	San Juan la Laguna	12	San Juan la Laguna	6	Junio	2023-11-06T00:00:00	2024-11-08T21:00:00	4	Temperatura máxima	21.8
59227	7	Sololá	717	San Juan la Laguna	12	San Juan la Laguna	6	Junio	2023-11-06T00:00:00	2024-11-08T21:00:00	3	Temperatura mínima	21.1
59228	7	Sololá	717	San Juan la Laguna	12	San Juan la Laguna	6	Junio	2023-11-06T00:00:00	2024-11-08T21:00:00	5	Humedad	87
59229	7	Sololá	717	San Juan la Laguna	12	San Juan la Laguna	6	Junio	2023-11-06T00:00:00	2024-11-08T21:00:00	6	Velocidad del viento	0
59230	7	Sololá	717	San Juan la Laguna	12	San Juan la Laguna	6	Junio	2023-11-06T00:00:00	2024-11-08T21:00:00	7	Dirección del viento	0
59231	7	Sololá	717	San Juan la Laguna	12	San Juan la Laguna	6	Junio	2023-11-06T00:00:00	2024-11-08T21:00:00	1	Precipitación	0
59232	7	Sololá	717	San Juan la Laguna	12	San Juan la Laguna	6	Junio	2023-11-06T00:00:00	2024-11-08T21:00:00	8	Radiación solar	0
59233	7	Sololá	717	San Juan la Laguna	12	San Juan la Laguna	6	Junio	2023-11-06T00:00:00	2024-11-08T22:00:00	2	Temperatura media	20.5
59234	7	Sololá	717	San Juan la Laguna	12	San Juan la Laguna	6	Junio	2023-11-06T00:00:00	2024-11-08T22:00:00	4	Temperatura máxima	21.2
59235	7	Sololá	717	San Juan la Laguna	12	San Juan la Laguna	6	Junio	2023-11-06T00:00:00	2024-11-08T22:00:00	3	Temperatura mínima	20.3
59236	7	Sololá	717	San Juan la Laguna	12	San Juan la Laguna	6	Junio	2023-11-06T00:00:00	2024-11-08T22:00:00	5	Humedad	89
59237	7	Sololá	717	San Juan la Laguna	12	San Juan la Laguna	6	Junio	2023-11-06T00:00:00	2024-11-08T22:00:00	6	Velocidad del viento	0
59238	7	Sololá	717	San Juan la Laguna	12	San Juan la Laguna	6	Junio	2023-11-06T00:00:00	2024-11-08T22:00:00	7	Dirección del viento	0
59239	7	Sololá	717	San Juan la Laguna	12	San Juan la Laguna	6	Junio	2023-11-06T00:00:00	2024-11-08T22:00:00	1	Precipitación	0
59240	7	Sololá	717	San Juan la Laguna	12	San Juan la Laguna	6	Junio	2023-11-06T00:00:00	2024-11-08T22:00:00	8	Radiación solar	0
59241	7	Sololá	717	San Juan la Laguna	12	San Juan la Laguna	6	Junio	2023-11-06T00:00:00	2024-11-08T23:00:00	2	Temperatura media	20.4
59242	7	Sololá	717	San Juan la Laguna	12	San Juan la Laguna	6	Junio	2023-11-06T00:00:00	2024-11-08T23:00:00	4	Temperatura máxima	20.7
59243	7	Sololá	717	San Juan la Laguna	12	San Juan la Laguna	6	Junio	2023-11-06T00:00:00	2024-11-08T23:00:00	3	Temperatura mínima	20.4
59244	7	Sololá	717	San Juan la Laguna	12	San Juan la Laguna	6	Junio	2023-11-06T00:00:00	2024-11-08T23:00:00	5	Humedad	89
59245	7	Sololá	717	San Juan la Laguna	12	San Juan la Laguna	6	Junio	2023-11-06T00:00:00	2024-11-08T23:00:00	6	Velocidad del viento	0
59246	7	Sololá	717	San Juan la Laguna	12	San Juan la Laguna	6	Junio	2023-11-06T00:00:00	2024-11-08T23:00:00	7	Dirección del viento	0
59247	7	Sololá	717	San Juan la Laguna	12	San Juan la Laguna	6	Junio	2023-11-06T00:00:00	2024-11-08T23:00:00	1	Precipitación	0
59248	7	Sololá	717	San Juan la Laguna	12	San Juan la Laguna	6	Junio	2023-11-06T00:00:00	2024-11-08T23:00:00	8	Radiación solar	0
59249	7	Sololá	717	San Juan la Laguna	12	San Juan la Laguna	6	Junio	2023-12-06T00:00:00	2024-11-08T00:00:00	2	Temperatura media	19.2
59250	7	Sololá	717	San Juan la Laguna	12	San Juan la Laguna	6	Junio	2023-12-06T00:00:00	2024-11-08T00:00:00	4	Temperatura máxima	20.4
59251	7	Sololá	717	San Juan la Laguna	12	San Juan la Laguna	6	Junio	2023-12-06T00:00:00	2024-11-08T00:00:00	3	Temperatura mínima	19.2
59252	7	Sololá	717	San Juan la Laguna	12	San Juan la Laguna	6	Junio	2023-12-06T00:00:00	2024-11-08T00:00:00	5	Humedad	88
59253	7	Sololá	717	San Juan la Laguna	12	San Juan la Laguna	6	Junio	2023-12-06T00:00:00	2024-11-08T00:00:00	6	Velocidad del viento	0
59254	7	Sololá	717	San Juan la Laguna	12	San Juan la Laguna	6	Junio	2023-12-06T00:00:00	2024-11-08T00:00:00	7	Dirección del viento	0
59255	7	Sololá	717	San Juan la Laguna	12	San Juan la Laguna	6	Junio	2023-12-06T00:00:00	2024-11-08T00:00:00	1	Precipitación	0
59256	7	Sololá	717	San Juan la Laguna	12	San Juan la Laguna	6	Junio	2023-12-06T00:00:00	2024-11-08T00:00:00	8	Radiación solar	0
59257	7	Sololá	717	San Juan la Laguna	12	San Juan la Laguna	6	Junio	2023-12-06T00:00:00	2024-11-08T01:00:00	2	Temperatura media	18.2
59258	7	Sololá	717	San Juan la Laguna	12	San Juan la Laguna	6	Junio	2023-12-06T00:00:00	2024-11-08T01:00:00	4	Temperatura máxima	19.2
59259	7	Sololá	717	San Juan la Laguna	12	San Juan la Laguna	6	Junio	2023-12-06T00:00:00	2024-11-08T01:00:00	3	Temperatura mínima	18.2
59260	7	Sololá	717	San Juan la Laguna	12	San Juan la Laguna	6	Junio	2023-12-06T00:00:00	2024-11-08T01:00:00	5	Humedad	89
59261	7	Sololá	717	San Juan la Laguna	12	San Juan la Laguna	6	Junio	2023-12-06T00:00:00	2024-11-08T01:00:00	6	Velocidad del viento	0
59262	7	Sololá	717	San Juan la Laguna	12	San Juan la Laguna	6	Junio	2023-12-06T00:00:00	2024-11-08T01:00:00	7	Dirección del viento	0
59263	7	Sololá	717	San Juan la Laguna	12	San Juan la Laguna	6	Junio	2023-12-06T00:00:00	2024-11-08T01:00:00	1	Precipitación	0
59264	7	Sololá	717	San Juan la Laguna	12	San Juan la Laguna	6	Junio	2023-12-06T00:00:00	2024-11-08T01:00:00	8	Radiación solar	0
59265	7	Sololá	717	San Juan la Laguna	12	San Juan la Laguna	6	Junio	2023-12-06T00:00:00	2024-11-08T02:00:00	2	Temperatura media	17.9
59266	7	Sololá	717	San Juan la Laguna	12	San Juan la Laguna	6	Junio	2023-12-06T00:00:00	2024-11-08T02:00:00	4	Temperatura máxima	18.5
59267	7	Sololá	717	San Juan la Laguna	12	San Juan la Laguna	6	Junio	2023-12-06T00:00:00	2024-11-08T02:00:00	3	Temperatura mínima	17.9
59268	7	Sololá	717	San Juan la Laguna	12	San Juan la Laguna	6	Junio	2023-12-06T00:00:00	2024-11-08T02:00:00	5	Humedad	85
59269	7	Sololá	717	San Juan la Laguna	12	San Juan la Laguna	6	Junio	2023-12-06T00:00:00	2024-11-08T02:00:00	6	Velocidad del viento	3.2
59270	7	Sololá	717	San Juan la Laguna	12	San Juan la Laguna	6	Junio	2023-12-06T00:00:00	2024-11-08T02:00:00	7	Dirección del viento	3.22
59271	7	Sololá	717	San Juan la Laguna	12	San Juan la Laguna	6	Junio	2023-12-06T00:00:00	2024-11-08T02:00:00	1	Precipitación	0
59272	7	Sololá	717	San Juan la Laguna	12	San Juan la Laguna	6	Junio	2023-12-06T00:00:00	2024-11-08T02:00:00	8	Radiación solar	0
59273	7	Sololá	717	San Juan la Laguna	12	San Juan la Laguna	6	Junio	2023-12-06T00:00:00	2024-11-08T03:00:00	2	Temperatura media	17.2
59274	7	Sololá	717	San Juan la Laguna	12	San Juan la Laguna	6	Junio	2023-12-06T00:00:00	2024-11-08T03:00:00	4	Temperatura máxima	17.9
59275	7	Sololá	717	San Juan la Laguna	12	San Juan la Laguna	6	Junio	2023-12-06T00:00:00	2024-11-08T03:00:00	3	Temperatura mínima	17.2
59276	7	Sololá	717	San Juan la Laguna	12	San Juan la Laguna	6	Junio	2023-12-06T00:00:00	2024-11-08T03:00:00	5	Humedad	86
59277	7	Sololá	717	San Juan la Laguna	12	San Juan la Laguna	6	Junio	2023-12-06T00:00:00	2024-11-08T03:00:00	6	Velocidad del viento	3.2
59278	7	Sololá	717	San Juan la Laguna	12	San Juan la Laguna	6	Junio	2023-12-06T00:00:00	2024-11-08T03:00:00	7	Dirección del viento	3.22
59279	7	Sololá	717	San Juan la Laguna	12	San Juan la Laguna	6	Junio	2023-12-06T00:00:00	2024-11-08T03:00:00	1	Precipitación	0
59280	7	Sololá	717	San Juan la Laguna	12	San Juan la Laguna	6	Junio	2023-12-06T00:00:00	2024-11-08T03:00:00	8	Radiación solar	0
59281	7	Sololá	717	San Juan la Laguna	12	San Juan la Laguna	6	Junio	2023-12-06T00:00:00	2024-11-08T04:00:00	2	Temperatura media	16.9
59282	7	Sololá	717	San Juan la Laguna	12	San Juan la Laguna	6	Junio	2023-12-06T00:00:00	2024-11-08T04:00:00	4	Temperatura máxima	17.3
59283	7	Sololá	717	San Juan la Laguna	12	San Juan la Laguna	6	Junio	2023-12-06T00:00:00	2024-11-08T04:00:00	3	Temperatura mínima	16.7
59284	7	Sololá	717	San Juan la Laguna	12	San Juan la Laguna	6	Junio	2023-12-06T00:00:00	2024-11-08T04:00:00	5	Humedad	85
59285	7	Sololá	717	San Juan la Laguna	12	San Juan la Laguna	6	Junio	2023-12-06T00:00:00	2024-11-08T04:00:00	6	Velocidad del viento	3.2
59286	7	Sololá	717	San Juan la Laguna	12	San Juan la Laguna	6	Junio	2023-12-06T00:00:00	2024-11-08T04:00:00	7	Dirección del viento	3.22
59287	7	Sololá	717	San Juan la Laguna	12	San Juan la Laguna	6	Junio	2023-12-06T00:00:00	2024-11-08T04:00:00	1	Precipitación	0
59288	7	Sololá	717	San Juan la Laguna	12	San Juan la Laguna	6	Junio	2023-12-06T00:00:00	2024-11-08T04:00:00	8	Radiación solar	0
59289	7	Sololá	717	San Juan la Laguna	12	San Juan la Laguna	6	Junio	2023-12-06T00:00:00	2024-11-08T05:00:00	2	Temperatura media	16.7
59290	7	Sololá	717	San Juan la Laguna	12	San Juan la Laguna	6	Junio	2023-12-06T00:00:00	2024-11-08T05:00:00	4	Temperatura máxima	16.9
59291	7	Sololá	717	San Juan la Laguna	12	San Juan la Laguna	6	Junio	2023-12-06T00:00:00	2024-11-08T05:00:00	3	Temperatura mínima	16.4
59292	7	Sololá	717	San Juan la Laguna	12	San Juan la Laguna	6	Junio	2023-12-06T00:00:00	2024-11-08T05:00:00	5	Humedad	87
59293	7	Sololá	717	San Juan la Laguna	12	San Juan la Laguna	6	Junio	2023-12-06T00:00:00	2024-11-08T05:00:00	6	Velocidad del viento	1.6
59294	7	Sololá	717	San Juan la Laguna	12	San Juan la Laguna	6	Junio	2023-12-06T00:00:00	2024-11-08T05:00:00	7	Dirección del viento	1.61
59295	7	Sololá	717	San Juan la Laguna	12	San Juan la Laguna	6	Junio	2023-12-06T00:00:00	2024-11-08T05:00:00	1	Precipitación	0
59296	7	Sololá	717	San Juan la Laguna	12	San Juan la Laguna	6	Junio	2023-12-06T00:00:00	2024-11-08T05:00:00	8	Radiación solar	0
59297	7	Sololá	717	San Juan la Laguna	12	San Juan la Laguna	6	Junio	2023-12-06T00:00:00	2024-11-08T06:00:00	2	Temperatura media	16.9
59298	7	Sololá	717	San Juan la Laguna	12	San Juan la Laguna	6	Junio	2023-12-06T00:00:00	2024-11-08T06:00:00	4	Temperatura máxima	17.1
59299	7	Sololá	717	San Juan la Laguna	12	San Juan la Laguna	6	Junio	2023-12-06T00:00:00	2024-11-08T06:00:00	3	Temperatura mínima	16.7
59300	7	Sololá	717	San Juan la Laguna	12	San Juan la Laguna	6	Junio	2023-12-06T00:00:00	2024-11-08T06:00:00	5	Humedad	89
59301	7	Sololá	717	San Juan la Laguna	12	San Juan la Laguna	6	Junio	2023-12-06T00:00:00	2024-11-08T06:00:00	6	Velocidad del viento	3.2
59302	7	Sololá	717	San Juan la Laguna	12	San Juan la Laguna	6	Junio	2023-12-06T00:00:00	2024-11-08T06:00:00	7	Dirección del viento	3.22
59303	7	Sololá	717	San Juan la Laguna	12	San Juan la Laguna	6	Junio	2023-12-06T00:00:00	2024-11-08T06:00:00	1	Precipitación	0
59304	7	Sololá	717	San Juan la Laguna	12	San Juan la Laguna	6	Junio	2023-12-06T00:00:00	2024-11-08T06:00:00	8	Radiación solar	6
59305	7	Sololá	717	San Juan la Laguna	12	San Juan la Laguna	6	Junio	2023-12-06T00:00:00	2024-11-08T07:00:00	2	Temperatura media	19.4
59306	7	Sololá	717	San Juan la Laguna	12	San Juan la Laguna	6	Junio	2023-12-06T00:00:00	2024-11-08T07:00:00	4	Temperatura máxima	19.4
59307	7	Sololá	717	San Juan la Laguna	12	San Juan la Laguna	6	Junio	2023-12-06T00:00:00	2024-11-08T07:00:00	3	Temperatura mínima	16.9
59308	7	Sololá	717	San Juan la Laguna	12	San Juan la Laguna	6	Junio	2023-12-06T00:00:00	2024-11-08T07:00:00	5	Humedad	84
59309	7	Sololá	717	San Juan la Laguna	12	San Juan la Laguna	6	Junio	2023-12-06T00:00:00	2024-11-08T07:00:00	6	Velocidad del viento	1.6
59310	7	Sololá	717	San Juan la Laguna	12	San Juan la Laguna	6	Junio	2023-12-06T00:00:00	2024-11-08T07:00:00	7	Dirección del viento	1.61
59311	7	Sololá	717	San Juan la Laguna	12	San Juan la Laguna	6	Junio	2023-12-06T00:00:00	2024-11-08T07:00:00	1	Precipitación	0
59312	7	Sololá	717	San Juan la Laguna	12	San Juan la Laguna	6	Junio	2023-12-06T00:00:00	2024-11-08T07:00:00	8	Radiación solar	128
59313	7	Sololá	717	San Juan la Laguna	12	San Juan la Laguna	6	Junio	2023-12-06T00:00:00	2024-11-08T08:00:00	2	Temperatura media	21.7
59314	7	Sololá	717	San Juan la Laguna	12	San Juan la Laguna	6	Junio	2023-12-06T00:00:00	2024-11-08T08:00:00	4	Temperatura máxima	22.1
59315	7	Sololá	717	San Juan la Laguna	12	San Juan la Laguna	6	Junio	2023-12-06T00:00:00	2024-11-08T08:00:00	3	Temperatura mínima	19.4
59316	7	Sololá	717	San Juan la Laguna	12	San Juan la Laguna	6	Junio	2023-12-06T00:00:00	2024-11-08T08:00:00	5	Humedad	78
59317	7	Sololá	717	San Juan la Laguna	12	San Juan la Laguna	6	Junio	2023-12-06T00:00:00	2024-11-08T08:00:00	6	Velocidad del viento	3.2
59318	7	Sololá	717	San Juan la Laguna	12	San Juan la Laguna	6	Junio	2023-12-06T00:00:00	2024-11-08T08:00:00	7	Dirección del viento	3.22
59319	7	Sololá	717	San Juan la Laguna	12	San Juan la Laguna	6	Junio	2023-12-06T00:00:00	2024-11-08T08:00:00	1	Precipitación	0
59320	7	Sololá	717	San Juan la Laguna	12	San Juan la Laguna	6	Junio	2023-12-06T00:00:00	2024-11-08T08:00:00	8	Radiación solar	352
59321	7	Sololá	717	San Juan la Laguna	12	San Juan la Laguna	6	Junio	2023-12-06T00:00:00	2024-11-08T09:00:00	2	Temperatura media	24.3
59322	7	Sololá	717	San Juan la Laguna	12	San Juan la Laguna	6	Junio	2023-12-06T00:00:00	2024-11-08T09:00:00	4	Temperatura máxima	24.4
59323	7	Sololá	717	San Juan la Laguna	12	San Juan la Laguna	6	Junio	2023-12-06T00:00:00	2024-11-08T09:00:00	3	Temperatura mínima	21.7
59324	7	Sololá	717	San Juan la Laguna	12	San Juan la Laguna	6	Junio	2023-12-06T00:00:00	2024-11-08T09:00:00	5	Humedad	64
59325	7	Sololá	717	San Juan la Laguna	12	San Juan la Laguna	6	Junio	2023-12-06T00:00:00	2024-11-08T09:00:00	6	Velocidad del viento	3.2
59326	7	Sololá	717	San Juan la Laguna	12	San Juan la Laguna	6	Junio	2023-12-06T00:00:00	2024-11-08T09:00:00	7	Dirección del viento	3.22
59327	7	Sololá	717	San Juan la Laguna	12	San Juan la Laguna	6	Junio	2023-12-06T00:00:00	2024-11-08T09:00:00	1	Precipitación	0
59328	7	Sololá	717	San Juan la Laguna	12	San Juan la Laguna	6	Junio	2023-12-06T00:00:00	2024-11-08T09:00:00	8	Radiación solar	542
59329	7	Sololá	717	San Juan la Laguna	12	San Juan la Laguna	6	Junio	2023-12-06T00:00:00	2024-11-08T10:00:00	2	Temperatura media	25.3
59330	7	Sololá	717	San Juan la Laguna	12	San Juan la Laguna	6	Junio	2023-12-06T00:00:00	2024-11-08T10:00:00	4	Temperatura máxima	25.3
59331	7	Sololá	717	San Juan la Laguna	12	San Juan la Laguna	6	Junio	2023-12-06T00:00:00	2024-11-08T10:00:00	3	Temperatura mínima	24.1
59332	7	Sololá	717	San Juan la Laguna	12	San Juan la Laguna	6	Junio	2023-12-06T00:00:00	2024-11-08T10:00:00	5	Humedad	57
59333	7	Sololá	717	San Juan la Laguna	12	San Juan la Laguna	6	Junio	2023-12-06T00:00:00	2024-11-08T10:00:00	6	Velocidad del viento	6.4
59334	7	Sololá	717	San Juan la Laguna	12	San Juan la Laguna	6	Junio	2023-12-06T00:00:00	2024-11-08T10:00:00	7	Dirección del viento	6.44
59335	7	Sololá	717	San Juan la Laguna	12	San Juan la Laguna	6	Junio	2023-12-06T00:00:00	2024-11-08T10:00:00	1	Precipitación	0
59336	7	Sololá	717	San Juan la Laguna	12	San Juan la Laguna	6	Junio	2023-12-06T00:00:00	2024-11-08T10:00:00	8	Radiación solar	678
59337	7	Sololá	717	San Juan la Laguna	12	San Juan la Laguna	6	Junio	2023-12-06T00:00:00	2024-11-08T11:00:00	2	Temperatura media	26.4
59338	7	Sololá	717	San Juan la Laguna	12	San Juan la Laguna	6	Junio	2023-12-06T00:00:00	2024-11-08T11:00:00	4	Temperatura máxima	26.8
59339	7	Sololá	717	San Juan la Laguna	12	San Juan la Laguna	6	Junio	2023-12-06T00:00:00	2024-11-08T11:00:00	3	Temperatura mínima	25.2
59340	7	Sololá	717	San Juan la Laguna	12	San Juan la Laguna	6	Junio	2023-12-06T00:00:00	2024-11-08T11:00:00	5	Humedad	55
59341	7	Sololá	717	San Juan la Laguna	12	San Juan la Laguna	6	Junio	2023-12-06T00:00:00	2024-11-08T11:00:00	6	Velocidad del viento	8
59342	7	Sololá	717	San Juan la Laguna	12	San Juan la Laguna	6	Junio	2023-12-06T00:00:00	2024-11-08T11:00:00	7	Dirección del viento	8.05
59343	7	Sololá	717	San Juan la Laguna	12	San Juan la Laguna	6	Junio	2023-12-06T00:00:00	2024-11-08T11:00:00	1	Precipitación	0
59344	7	Sololá	717	San Juan la Laguna	12	San Juan la Laguna	6	Junio	2023-12-06T00:00:00	2024-11-08T11:00:00	8	Radiación solar	830
59345	7	Sololá	717	San Juan la Laguna	12	San Juan la Laguna	6	Junio	2023-12-06T00:00:00	2024-11-08T12:00:00	2	Temperatura media	26.9
59346	7	Sololá	717	San Juan la Laguna	12	San Juan la Laguna	6	Junio	2023-12-06T00:00:00	2024-11-08T12:00:00	4	Temperatura máxima	27.7
59347	7	Sololá	717	San Juan la Laguna	12	San Juan la Laguna	6	Junio	2023-12-06T00:00:00	2024-11-08T12:00:00	3	Temperatura mínima	26.2
59348	7	Sololá	717	San Juan la Laguna	12	San Juan la Laguna	6	Junio	2023-12-06T00:00:00	2024-11-08T12:00:00	5	Humedad	58
59349	7	Sololá	717	San Juan la Laguna	12	San Juan la Laguna	6	Junio	2023-12-06T00:00:00	2024-11-08T12:00:00	6	Velocidad del viento	6.4
59350	7	Sololá	717	San Juan la Laguna	12	San Juan la Laguna	6	Junio	2023-12-06T00:00:00	2024-11-08T12:00:00	7	Dirección del viento	6.44
59351	7	Sololá	717	San Juan la Laguna	12	San Juan la Laguna	6	Junio	2023-12-06T00:00:00	2024-11-08T12:00:00	1	Precipitación	0
59352	7	Sololá	717	San Juan la Laguna	12	San Juan la Laguna	6	Junio	2023-12-06T00:00:00	2024-11-08T12:00:00	8	Radiación solar	905
59353	7	Sololá	717	San Juan la Laguna	12	San Juan la Laguna	6	Junio	2023-12-06T00:00:00	2024-11-08T13:00:00	2	Temperatura media	26.3
59354	7	Sololá	717	San Juan la Laguna	12	San Juan la Laguna	6	Junio	2023-12-06T00:00:00	2024-11-08T13:00:00	4	Temperatura máxima	27.3
59355	7	Sololá	717	San Juan la Laguna	12	San Juan la Laguna	6	Junio	2023-12-06T00:00:00	2024-11-08T13:00:00	3	Temperatura mínima	26.2
59356	7	Sololá	717	San Juan la Laguna	12	San Juan la Laguna	6	Junio	2023-12-06T00:00:00	2024-11-08T13:00:00	5	Humedad	64
59357	7	Sololá	717	San Juan la Laguna	12	San Juan la Laguna	6	Junio	2023-12-06T00:00:00	2024-11-08T13:00:00	6	Velocidad del viento	8
59358	7	Sololá	717	San Juan la Laguna	12	San Juan la Laguna	6	Junio	2023-12-06T00:00:00	2024-11-08T13:00:00	7	Dirección del viento	8.05
59359	7	Sololá	717	San Juan la Laguna	12	San Juan la Laguna	6	Junio	2023-12-06T00:00:00	2024-11-08T13:00:00	1	Precipitación	0
59360	7	Sololá	717	San Juan la Laguna	12	San Juan la Laguna	6	Junio	2023-12-06T00:00:00	2024-11-08T13:00:00	8	Radiación solar	920
59361	7	Sololá	717	San Juan la Laguna	12	San Juan la Laguna	6	Junio	2023-12-06T00:00:00	2024-11-08T14:00:00	2	Temperatura media	25.8
59362	7	Sololá	717	San Juan la Laguna	12	San Juan la Laguna	6	Junio	2023-12-06T00:00:00	2024-11-08T14:00:00	4	Temperatura máxima	26.8
59363	7	Sololá	717	San Juan la Laguna	12	San Juan la Laguna	6	Junio	2023-12-06T00:00:00	2024-11-08T14:00:00	3	Temperatura mínima	25.7
59364	7	Sololá	717	San Juan la Laguna	12	San Juan la Laguna	6	Junio	2023-12-06T00:00:00	2024-11-08T14:00:00	5	Humedad	69
59365	7	Sololá	717	San Juan la Laguna	12	San Juan la Laguna	6	Junio	2023-12-06T00:00:00	2024-11-08T14:00:00	6	Velocidad del viento	11.3
59366	7	Sololá	717	San Juan la Laguna	12	San Juan la Laguna	6	Junio	2023-12-06T00:00:00	2024-11-08T14:00:00	7	Dirección del viento	11.27
59367	7	Sololá	717	San Juan la Laguna	12	San Juan la Laguna	6	Junio	2023-12-06T00:00:00	2024-11-08T14:00:00	1	Precipitación	0
59368	7	Sololá	717	San Juan la Laguna	12	San Juan la Laguna	6	Junio	2023-12-06T00:00:00	2024-11-08T14:00:00	8	Radiación solar	914
59369	7	Sololá	717	San Juan la Laguna	12	San Juan la Laguna	6	Junio	2023-12-06T00:00:00	2024-11-08T15:00:00	2	Temperatura media	26.2
59370	7	Sololá	717	San Juan la Laguna	12	San Juan la Laguna	6	Junio	2023-12-06T00:00:00	2024-11-08T15:00:00	4	Temperatura máxima	26.7
59371	7	Sololá	717	San Juan la Laguna	12	San Juan la Laguna	6	Junio	2023-12-06T00:00:00	2024-11-08T15:00:00	3	Temperatura mínima	25.7
59372	7	Sololá	717	San Juan la Laguna	12	San Juan la Laguna	6	Junio	2023-12-06T00:00:00	2024-11-08T15:00:00	5	Humedad	68
59373	7	Sololá	717	San Juan la Laguna	12	San Juan la Laguna	6	Junio	2023-12-06T00:00:00	2024-11-08T15:00:00	6	Velocidad del viento	8
59374	7	Sololá	717	San Juan la Laguna	12	San Juan la Laguna	6	Junio	2023-12-06T00:00:00	2024-11-08T15:00:00	7	Dirección del viento	8.05
59375	7	Sololá	717	San Juan la Laguna	12	San Juan la Laguna	6	Junio	2023-12-06T00:00:00	2024-11-08T15:00:00	1	Precipitación	0
59376	7	Sololá	717	San Juan la Laguna	12	San Juan la Laguna	6	Junio	2023-12-06T00:00:00	2024-11-08T15:00:00	8	Radiación solar	773
59377	7	Sololá	717	San Juan la Laguna	12	San Juan la Laguna	6	Junio	2023-12-06T00:00:00	2024-11-08T16:00:00	2	Temperatura media	24.2
59378	7	Sololá	717	San Juan la Laguna	12	San Juan la Laguna	6	Junio	2023-12-06T00:00:00	2024-11-08T16:00:00	4	Temperatura máxima	26.2
59379	7	Sololá	717	San Juan la Laguna	12	San Juan la Laguna	6	Junio	2023-12-06T00:00:00	2024-11-08T16:00:00	3	Temperatura mínima	24.2
59380	7	Sololá	717	San Juan la Laguna	12	San Juan la Laguna	6	Junio	2023-12-06T00:00:00	2024-11-08T16:00:00	5	Humedad	75
59381	7	Sololá	717	San Juan la Laguna	12	San Juan la Laguna	6	Junio	2023-12-06T00:00:00	2024-11-08T16:00:00	6	Velocidad del viento	4.8
59382	7	Sololá	717	San Juan la Laguna	12	San Juan la Laguna	6	Junio	2023-12-06T00:00:00	2024-11-08T16:00:00	7	Dirección del viento	4.83
59383	7	Sololá	717	San Juan la Laguna	12	San Juan la Laguna	6	Junio	2023-12-06T00:00:00	2024-11-08T16:00:00	1	Precipitación	0
59384	7	Sololá	717	San Juan la Laguna	12	San Juan la Laguna	6	Junio	2023-12-06T00:00:00	2024-11-08T16:00:00	8	Radiación solar	311
59385	7	Sololá	717	San Juan la Laguna	12	San Juan la Laguna	6	Junio	2023-12-06T00:00:00	2024-11-08T17:00:00	2	Temperatura media	21.2
59386	7	Sololá	717	San Juan la Laguna	12	San Juan la Laguna	6	Junio	2023-12-06T00:00:00	2024-11-08T17:00:00	4	Temperatura máxima	24.2
59387	7	Sololá	717	San Juan la Laguna	12	San Juan la Laguna	6	Junio	2023-12-06T00:00:00	2024-11-08T17:00:00	3	Temperatura mínima	21.2
59388	7	Sololá	717	San Juan la Laguna	12	San Juan la Laguna	6	Junio	2023-12-06T00:00:00	2024-11-08T17:00:00	5	Humedad	86
59389	7	Sololá	717	San Juan la Laguna	12	San Juan la Laguna	6	Junio	2023-12-06T00:00:00	2024-11-08T17:00:00	6	Velocidad del viento	6.4
59390	7	Sololá	717	San Juan la Laguna	12	San Juan la Laguna	6	Junio	2023-12-06T00:00:00	2024-11-08T17:00:00	7	Dirección del viento	6.44
59391	7	Sololá	717	San Juan la Laguna	12	San Juan la Laguna	6	Junio	2023-12-06T00:00:00	2024-11-08T17:00:00	1	Precipitación	0
59392	7	Sololá	717	San Juan la Laguna	12	San Juan la Laguna	6	Junio	2023-12-06T00:00:00	2024-11-08T17:00:00	8	Radiación solar	86
59393	7	Sololá	717	San Juan la Laguna	12	San Juan la Laguna	6	Junio	2023-12-06T00:00:00	2024-11-08T18:00:00	2	Temperatura media	21.4
59394	7	Sololá	717	San Juan la Laguna	12	San Juan la Laguna	6	Junio	2023-12-06T00:00:00	2024-11-08T18:00:00	4	Temperatura máxima	22.1
59395	7	Sololá	717	San Juan la Laguna	12	San Juan la Laguna	6	Junio	2023-12-06T00:00:00	2024-11-08T18:00:00	3	Temperatura mínima	21.2
59396	7	Sololá	717	San Juan la Laguna	12	San Juan la Laguna	6	Junio	2023-12-06T00:00:00	2024-11-08T18:00:00	5	Humedad	84
59397	7	Sololá	717	San Juan la Laguna	12	San Juan la Laguna	6	Junio	2023-12-06T00:00:00	2024-11-08T18:00:00	6	Velocidad del viento	4.8
59398	7	Sololá	717	San Juan la Laguna	12	San Juan la Laguna	6	Junio	2023-12-06T00:00:00	2024-11-08T18:00:00	7	Dirección del viento	4.83
59399	7	Sololá	717	San Juan la Laguna	12	San Juan la Laguna	6	Junio	2023-12-06T00:00:00	2024-11-08T18:00:00	1	Precipitación	0
59400	7	Sololá	717	San Juan la Laguna	12	San Juan la Laguna	6	Junio	2023-12-06T00:00:00	2024-11-08T18:00:00	8	Radiación solar	40
59401	7	Sololá	717	San Juan la Laguna	12	San Juan la Laguna	6	Junio	2023-12-06T00:00:00	2024-11-08T19:00:00	2	Temperatura media	21.5
59402	7	Sololá	717	San Juan la Laguna	12	San Juan la Laguna	6	Junio	2023-12-06T00:00:00	2024-11-08T19:00:00	4	Temperatura máxima	21.6
59403	7	Sololá	717	San Juan la Laguna	12	San Juan la Laguna	6	Junio	2023-12-06T00:00:00	2024-11-08T19:00:00	3	Temperatura mínima	21.3
59404	7	Sololá	717	San Juan la Laguna	12	San Juan la Laguna	6	Junio	2023-12-06T00:00:00	2024-11-08T19:00:00	5	Humedad	84
59405	7	Sololá	717	San Juan la Laguna	12	San Juan la Laguna	6	Junio	2023-12-06T00:00:00	2024-11-08T19:00:00	6	Velocidad del viento	1.6
59406	7	Sololá	717	San Juan la Laguna	12	San Juan la Laguna	6	Junio	2023-12-06T00:00:00	2024-11-08T19:00:00	7	Dirección del viento	1.61
59407	7	Sololá	717	San Juan la Laguna	12	San Juan la Laguna	6	Junio	2023-12-06T00:00:00	2024-11-08T19:00:00	1	Precipitación	0
59408	7	Sololá	717	San Juan la Laguna	12	San Juan la Laguna	6	Junio	2023-12-06T00:00:00	2024-11-08T19:00:00	8	Radiación solar	0
59409	7	Sololá	717	San Juan la Laguna	12	San Juan la Laguna	6	Junio	2023-12-06T00:00:00	2024-11-08T20:00:00	2	Temperatura media	20.8
59410	7	Sololá	717	San Juan la Laguna	12	San Juan la Laguna	6	Junio	2023-12-06T00:00:00	2024-11-08T20:00:00	4	Temperatura máxima	21.5
59411	7	Sololá	717	San Juan la Laguna	12	San Juan la Laguna	6	Junio	2023-12-06T00:00:00	2024-11-08T20:00:00	3	Temperatura mínima	20.6
59412	7	Sololá	717	San Juan la Laguna	12	San Juan la Laguna	6	Junio	2023-12-06T00:00:00	2024-11-08T20:00:00	5	Humedad	89
59413	7	Sololá	717	San Juan la Laguna	12	San Juan la Laguna	6	Junio	2023-12-06T00:00:00	2024-11-08T20:00:00	6	Velocidad del viento	1.6
59414	7	Sololá	717	San Juan la Laguna	12	San Juan la Laguna	6	Junio	2023-12-06T00:00:00	2024-11-08T20:00:00	7	Dirección del viento	1.61
59415	7	Sololá	717	San Juan la Laguna	12	San Juan la Laguna	6	Junio	2023-12-06T00:00:00	2024-11-08T20:00:00	1	Precipitación	0.8
59416	7	Sololá	717	San Juan la Laguna	12	San Juan la Laguna	6	Junio	2023-12-06T00:00:00	2024-11-08T20:00:00	8	Radiación solar	0
59417	7	Sololá	717	San Juan la Laguna	12	San Juan la Laguna	6	Junio	2023-12-06T00:00:00	2024-11-08T21:00:00	2	Temperatura media	20.2
59418	7	Sololá	717	San Juan la Laguna	12	San Juan la Laguna	6	Junio	2023-12-06T00:00:00	2024-11-08T21:00:00	4	Temperatura máxima	20.7
59419	7	Sololá	717	San Juan la Laguna	12	San Juan la Laguna	6	Junio	2023-12-06T00:00:00	2024-11-08T21:00:00	3	Temperatura mínima	20.2
59420	7	Sololá	717	San Juan la Laguna	12	San Juan la Laguna	6	Junio	2023-12-06T00:00:00	2024-11-08T21:00:00	5	Humedad	88
59421	7	Sololá	717	San Juan la Laguna	12	San Juan la Laguna	6	Junio	2023-12-06T00:00:00	2024-11-08T21:00:00	6	Velocidad del viento	0
59422	7	Sololá	717	San Juan la Laguna	12	San Juan la Laguna	6	Junio	2023-12-06T00:00:00	2024-11-08T21:00:00	7	Dirección del viento	0
59423	7	Sololá	717	San Juan la Laguna	12	San Juan la Laguna	6	Junio	2023-12-06T00:00:00	2024-11-08T21:00:00	1	Precipitación	0
59424	7	Sololá	717	San Juan la Laguna	12	San Juan la Laguna	6	Junio	2023-12-06T00:00:00	2024-11-08T21:00:00	8	Radiación solar	0
59425	7	Sololá	717	San Juan la Laguna	12	San Juan la Laguna	6	Junio	2023-12-06T00:00:00	2024-11-08T22:00:00	2	Temperatura media	19.3
59426	7	Sololá	717	San Juan la Laguna	12	San Juan la Laguna	6	Junio	2023-12-06T00:00:00	2024-11-08T22:00:00	4	Temperatura máxima	20.2
59427	7	Sololá	717	San Juan la Laguna	12	San Juan la Laguna	6	Junio	2023-12-06T00:00:00	2024-11-08T22:00:00	3	Temperatura mínima	19.1
59428	7	Sololá	717	San Juan la Laguna	12	San Juan la Laguna	6	Junio	2023-12-06T00:00:00	2024-11-08T22:00:00	5	Humedad	90
59429	7	Sololá	717	San Juan la Laguna	12	San Juan la Laguna	6	Junio	2023-12-06T00:00:00	2024-11-08T22:00:00	6	Velocidad del viento	1.6
59430	7	Sololá	717	San Juan la Laguna	12	San Juan la Laguna	6	Junio	2023-12-06T00:00:00	2024-11-08T22:00:00	7	Dirección del viento	1.61
59431	7	Sololá	717	San Juan la Laguna	12	San Juan la Laguna	6	Junio	2023-12-06T00:00:00	2024-11-08T22:00:00	1	Precipitación	0
59432	7	Sololá	717	San Juan la Laguna	12	San Juan la Laguna	6	Junio	2023-12-06T00:00:00	2024-11-08T22:00:00	8	Radiación solar	0
59433	7	Sololá	717	San Juan la Laguna	12	San Juan la Laguna	6	Junio	2023-12-06T00:00:00	2024-11-08T23:00:00	2	Temperatura media	18.6
59434	7	Sololá	717	San Juan la Laguna	12	San Juan la Laguna	6	Junio	2023-12-06T00:00:00	2024-11-08T23:00:00	4	Temperatura máxima	19.3
59435	7	Sololá	717	San Juan la Laguna	12	San Juan la Laguna	6	Junio	2023-12-06T00:00:00	2024-11-08T23:00:00	3	Temperatura mínima	18.6
59436	7	Sololá	717	San Juan la Laguna	12	San Juan la Laguna	6	Junio	2023-12-06T00:00:00	2024-11-08T23:00:00	5	Humedad	91
59437	7	Sololá	717	San Juan la Laguna	12	San Juan la Laguna	6	Junio	2023-12-06T00:00:00	2024-11-08T23:00:00	6	Velocidad del viento	1.6
59438	7	Sololá	717	San Juan la Laguna	12	San Juan la Laguna	6	Junio	2023-12-06T00:00:00	2024-11-08T23:00:00	7	Dirección del viento	1.61
59439	7	Sololá	717	San Juan la Laguna	12	San Juan la Laguna	6	Junio	2023-12-06T00:00:00	2024-11-08T23:00:00	1	Precipitación	0
59440	7	Sololá	717	San Juan la Laguna	12	San Juan la Laguna	6	Junio	2023-12-06T00:00:00	2024-11-08T23:00:00	8	Radiación solar	0
59441	7	Sololá	717	San Juan la Laguna	12	San Juan la Laguna	6	Junio	2023-06-13T00:00:00	2024-11-08T00:00:00	2	Temperatura media	18.7
59442	7	Sololá	717	San Juan la Laguna	12	San Juan la Laguna	6	Junio	2023-06-13T00:00:00	2024-11-08T00:00:00	4	Temperatura máxima	18.8
59443	7	Sololá	717	San Juan la Laguna	12	San Juan la Laguna	6	Junio	2023-06-13T00:00:00	2024-11-08T00:00:00	3	Temperatura mínima	18.5
59444	7	Sololá	717	San Juan la Laguna	12	San Juan la Laguna	6	Junio	2023-06-13T00:00:00	2024-11-08T00:00:00	5	Humedad	91
59445	7	Sololá	717	San Juan la Laguna	12	San Juan la Laguna	6	Junio	2023-06-13T00:00:00	2024-11-08T00:00:00	6	Velocidad del viento	1.6
59446	7	Sololá	717	San Juan la Laguna	12	San Juan la Laguna	6	Junio	2023-06-13T00:00:00	2024-11-08T00:00:00	7	Dirección del viento	1.61
59447	7	Sololá	717	San Juan la Laguna	12	San Juan la Laguna	6	Junio	2023-06-13T00:00:00	2024-11-08T00:00:00	1	Precipitación	0
59448	7	Sololá	717	San Juan la Laguna	12	San Juan la Laguna	6	Junio	2023-06-13T00:00:00	2024-11-08T00:00:00	8	Radiación solar	0
59449	7	Sololá	717	San Juan la Laguna	12	San Juan la Laguna	6	Junio	2023-06-13T00:00:00	2024-11-08T01:00:00	2	Temperatura media	18.1
59450	7	Sololá	717	San Juan la Laguna	12	San Juan la Laguna	6	Junio	2023-06-13T00:00:00	2024-11-08T01:00:00	4	Temperatura máxima	18.7
59451	7	Sololá	717	San Juan la Laguna	12	San Juan la Laguna	6	Junio	2023-06-13T00:00:00	2024-11-08T01:00:00	3	Temperatura mínima	18.1
59452	7	Sololá	717	San Juan la Laguna	12	San Juan la Laguna	6	Junio	2023-06-13T00:00:00	2024-11-08T01:00:00	5	Humedad	90
59453	7	Sololá	717	San Juan la Laguna	12	San Juan la Laguna	6	Junio	2023-06-13T00:00:00	2024-11-08T01:00:00	6	Velocidad del viento	1.6
59454	7	Sololá	717	San Juan la Laguna	12	San Juan la Laguna	6	Junio	2023-06-13T00:00:00	2024-11-08T01:00:00	7	Dirección del viento	1.61
59455	7	Sololá	717	San Juan la Laguna	12	San Juan la Laguna	6	Junio	2023-06-13T00:00:00	2024-11-08T01:00:00	1	Precipitación	0
59456	7	Sololá	717	San Juan la Laguna	12	San Juan la Laguna	6	Junio	2023-06-13T00:00:00	2024-11-08T01:00:00	8	Radiación solar	0
59457	7	Sololá	717	San Juan la Laguna	12	San Juan la Laguna	6	Junio	2023-06-13T00:00:00	2024-11-08T02:00:00	2	Temperatura media	17.6
59458	7	Sololá	717	San Juan la Laguna	12	San Juan la Laguna	6	Junio	2023-06-13T00:00:00	2024-11-08T02:00:00	4	Temperatura máxima	18.1
59459	7	Sololá	717	San Juan la Laguna	12	San Juan la Laguna	6	Junio	2023-06-13T00:00:00	2024-11-08T02:00:00	3	Temperatura mínima	17.4
59460	7	Sololá	717	San Juan la Laguna	12	San Juan la Laguna	6	Junio	2023-06-13T00:00:00	2024-11-08T02:00:00	5	Humedad	91
59461	7	Sololá	717	San Juan la Laguna	12	San Juan la Laguna	6	Junio	2023-06-13T00:00:00	2024-11-08T02:00:00	6	Velocidad del viento	1.6
59462	7	Sololá	717	San Juan la Laguna	12	San Juan la Laguna	6	Junio	2023-06-13T00:00:00	2024-11-08T02:00:00	7	Dirección del viento	1.61
59463	7	Sololá	717	San Juan la Laguna	12	San Juan la Laguna	6	Junio	2023-06-13T00:00:00	2024-11-08T02:00:00	1	Precipitación	0
59464	7	Sololá	717	San Juan la Laguna	12	San Juan la Laguna	6	Junio	2023-06-13T00:00:00	2024-11-08T02:00:00	8	Radiación solar	0
59465	7	Sololá	717	San Juan la Laguna	12	San Juan la Laguna	6	Junio	2023-06-13T00:00:00	2024-11-08T03:00:00	2	Temperatura media	17.1
59466	7	Sololá	717	San Juan la Laguna	12	San Juan la Laguna	6	Junio	2023-06-13T00:00:00	2024-11-08T03:00:00	4	Temperatura máxima	17.7
59467	7	Sololá	717	San Juan la Laguna	12	San Juan la Laguna	6	Junio	2023-06-13T00:00:00	2024-11-08T03:00:00	3	Temperatura mínima	17.1
59468	7	Sololá	717	San Juan la Laguna	12	San Juan la Laguna	6	Junio	2023-06-13T00:00:00	2024-11-08T03:00:00	5	Humedad	87
59469	7	Sololá	717	San Juan la Laguna	12	San Juan la Laguna	6	Junio	2023-06-13T00:00:00	2024-11-08T03:00:00	6	Velocidad del viento	3.2
59470	7	Sololá	717	San Juan la Laguna	12	San Juan la Laguna	6	Junio	2023-06-13T00:00:00	2024-11-08T03:00:00	7	Dirección del viento	3.22
59471	7	Sololá	717	San Juan la Laguna	12	San Juan la Laguna	6	Junio	2023-06-13T00:00:00	2024-11-08T03:00:00	1	Precipitación	0
59472	7	Sololá	717	San Juan la Laguna	12	San Juan la Laguna	6	Junio	2023-06-13T00:00:00	2024-11-08T03:00:00	8	Radiación solar	0
59473	7	Sololá	717	San Juan la Laguna	12	San Juan la Laguna	6	Junio	2023-06-13T00:00:00	2024-11-08T04:00:00	2	Temperatura media	16.2
59474	7	Sololá	717	San Juan la Laguna	12	San Juan la Laguna	6	Junio	2023-06-13T00:00:00	2024-11-08T04:00:00	4	Temperatura máxima	17.1
59475	7	Sololá	717	San Juan la Laguna	12	San Juan la Laguna	6	Junio	2023-06-13T00:00:00	2024-11-08T04:00:00	3	Temperatura mínima	16.1
59476	7	Sololá	717	San Juan la Laguna	12	San Juan la Laguna	6	Junio	2023-06-13T00:00:00	2024-11-08T04:00:00	5	Humedad	86
59477	7	Sololá	717	San Juan la Laguna	12	San Juan la Laguna	6	Junio	2023-06-13T00:00:00	2024-11-08T04:00:00	6	Velocidad del viento	3.2
59478	7	Sololá	717	San Juan la Laguna	12	San Juan la Laguna	6	Junio	2023-06-13T00:00:00	2024-11-08T04:00:00	7	Dirección del viento	3.22
59479	7	Sololá	717	San Juan la Laguna	12	San Juan la Laguna	6	Junio	2023-06-13T00:00:00	2024-11-08T04:00:00	1	Precipitación	0
59480	7	Sololá	717	San Juan la Laguna	12	San Juan la Laguna	6	Junio	2023-06-13T00:00:00	2024-11-08T04:00:00	8	Radiación solar	0
59481	7	Sololá	717	San Juan la Laguna	12	San Juan la Laguna	6	Junio	2023-06-13T00:00:00	2024-11-08T05:00:00	2	Temperatura media	15.7
59482	7	Sololá	717	San Juan la Laguna	12	San Juan la Laguna	6	Junio	2023-06-13T00:00:00	2024-11-08T05:00:00	4	Temperatura máxima	16.2
59483	7	Sololá	717	San Juan la Laguna	12	San Juan la Laguna	6	Junio	2023-06-13T00:00:00	2024-11-08T05:00:00	3	Temperatura mínima	15.7
59484	7	Sololá	717	San Juan la Laguna	12	San Juan la Laguna	6	Junio	2023-06-13T00:00:00	2024-11-08T05:00:00	5	Humedad	87
59485	7	Sololá	717	San Juan la Laguna	12	San Juan la Laguna	6	Junio	2023-06-13T00:00:00	2024-11-08T05:00:00	6	Velocidad del viento	3.2
59486	7	Sololá	717	San Juan la Laguna	12	San Juan la Laguna	6	Junio	2023-06-13T00:00:00	2024-11-08T05:00:00	7	Dirección del viento	3.22
59487	7	Sololá	717	San Juan la Laguna	12	San Juan la Laguna	6	Junio	2023-06-13T00:00:00	2024-11-08T05:00:00	1	Precipitación	0
59488	7	Sololá	717	San Juan la Laguna	12	San Juan la Laguna	6	Junio	2023-06-13T00:00:00	2024-11-08T05:00:00	8	Radiación solar	0
59489	7	Sololá	717	San Juan la Laguna	12	San Juan la Laguna	6	Junio	2023-06-13T00:00:00	2024-11-08T06:00:00	2	Temperatura media	15.8
59490	7	Sololá	717	San Juan la Laguna	12	San Juan la Laguna	6	Junio	2023-06-13T00:00:00	2024-11-08T06:00:00	4	Temperatura máxima	15.9
59491	7	Sololá	717	San Juan la Laguna	12	San Juan la Laguna	6	Junio	2023-06-13T00:00:00	2024-11-08T06:00:00	3	Temperatura mínima	15.5
59492	7	Sololá	717	San Juan la Laguna	12	San Juan la Laguna	6	Junio	2023-06-13T00:00:00	2024-11-08T06:00:00	5	Humedad	81
59493	7	Sololá	717	San Juan la Laguna	12	San Juan la Laguna	6	Junio	2023-06-13T00:00:00	2024-11-08T06:00:00	6	Velocidad del viento	3.2
59494	7	Sololá	717	San Juan la Laguna	12	San Juan la Laguna	6	Junio	2023-06-13T00:00:00	2024-11-08T06:00:00	7	Dirección del viento	3.22
59495	7	Sololá	717	San Juan la Laguna	12	San Juan la Laguna	6	Junio	2023-06-13T00:00:00	2024-11-08T06:00:00	1	Precipitación	0
59496	7	Sololá	717	San Juan la Laguna	12	San Juan la Laguna	6	Junio	2023-06-13T00:00:00	2024-11-08T06:00:00	8	Radiación solar	6
59497	7	Sololá	717	San Juan la Laguna	12	San Juan la Laguna	6	Junio	2023-06-13T00:00:00	2024-11-08T07:00:00	2	Temperatura media	17.7
59498	7	Sololá	717	San Juan la Laguna	12	San Juan la Laguna	6	Junio	2023-06-13T00:00:00	2024-11-08T07:00:00	4	Temperatura máxima	17.7
59499	7	Sololá	717	San Juan la Laguna	12	San Juan la Laguna	6	Junio	2023-06-13T00:00:00	2024-11-08T07:00:00	3	Temperatura mínima	15.8
59500	7	Sololá	717	San Juan la Laguna	12	San Juan la Laguna	6	Junio	2023-06-13T00:00:00	2024-11-08T07:00:00	5	Humedad	81
59501	7	Sololá	717	San Juan la Laguna	12	San Juan la Laguna	6	Junio	2023-06-13T00:00:00	2024-11-08T07:00:00	6	Velocidad del viento	1.6
59502	7	Sololá	717	San Juan la Laguna	12	San Juan la Laguna	6	Junio	2023-06-13T00:00:00	2024-11-08T07:00:00	7	Dirección del viento	1.61
59503	7	Sololá	717	San Juan la Laguna	12	San Juan la Laguna	6	Junio	2023-06-13T00:00:00	2024-11-08T07:00:00	1	Precipitación	0
59504	7	Sololá	717	San Juan la Laguna	12	San Juan la Laguna	6	Junio	2023-06-13T00:00:00	2024-11-08T07:00:00	8	Radiación solar	89
59505	7	Sololá	717	San Juan la Laguna	12	San Juan la Laguna	6	Junio	2023-06-13T00:00:00	2024-11-08T08:00:00	2	Temperatura media	21.5
59506	7	Sololá	717	San Juan la Laguna	12	San Juan la Laguna	6	Junio	2023-06-13T00:00:00	2024-11-08T08:00:00	4	Temperatura máxima	21.5
59507	7	Sololá	717	San Juan la Laguna	12	San Juan la Laguna	6	Junio	2023-06-13T00:00:00	2024-11-08T08:00:00	3	Temperatura mínima	17.7
59508	7	Sololá	717	San Juan la Laguna	12	San Juan la Laguna	6	Junio	2023-06-13T00:00:00	2024-11-08T08:00:00	5	Humedad	75
59509	7	Sololá	717	San Juan la Laguna	12	San Juan la Laguna	6	Junio	2023-06-13T00:00:00	2024-11-08T08:00:00	6	Velocidad del viento	0
59510	7	Sololá	717	San Juan la Laguna	12	San Juan la Laguna	6	Junio	2023-06-13T00:00:00	2024-11-08T08:00:00	7	Dirección del viento	0
59511	7	Sololá	717	San Juan la Laguna	12	San Juan la Laguna	6	Junio	2023-06-13T00:00:00	2024-11-08T08:00:00	1	Precipitación	0
59512	7	Sololá	717	San Juan la Laguna	12	San Juan la Laguna	6	Junio	2023-06-13T00:00:00	2024-11-08T08:00:00	8	Radiación solar	258
59513	7	Sololá	717	San Juan la Laguna	12	San Juan la Laguna	6	Junio	2023-06-13T00:00:00	2024-11-08T09:00:00	2	Temperatura media	23.8
59514	7	Sololá	717	San Juan la Laguna	12	San Juan la Laguna	6	Junio	2023-06-13T00:00:00	2024-11-08T09:00:00	4	Temperatura máxima	23.8
59515	7	Sololá	717	San Juan la Laguna	12	San Juan la Laguna	6	Junio	2023-06-13T00:00:00	2024-11-08T09:00:00	3	Temperatura mínima	21.5
59516	7	Sololá	717	San Juan la Laguna	12	San Juan la Laguna	6	Junio	2023-06-13T00:00:00	2024-11-08T09:00:00	5	Humedad	63
59517	7	Sololá	717	San Juan la Laguna	12	San Juan la Laguna	6	Junio	2023-06-13T00:00:00	2024-11-08T09:00:00	6	Velocidad del viento	3.2
59518	7	Sololá	717	San Juan la Laguna	12	San Juan la Laguna	6	Junio	2023-06-13T00:00:00	2024-11-08T09:00:00	7	Dirección del viento	3.22
59519	7	Sololá	717	San Juan la Laguna	12	San Juan la Laguna	6	Junio	2023-06-13T00:00:00	2024-11-08T09:00:00	1	Precipitación	0
59520	7	Sololá	717	San Juan la Laguna	12	San Juan la Laguna	6	Junio	2023-06-13T00:00:00	2024-11-08T09:00:00	8	Radiación solar	499
59521	7	Sololá	717	San Juan la Laguna	12	San Juan la Laguna	6	Junio	2023-06-13T00:00:00	2024-11-08T10:00:00	2	Temperatura media	23.8
59522	7	Sololá	717	San Juan la Laguna	12	San Juan la Laguna	6	Junio	2023-06-13T00:00:00	2024-11-08T10:00:00	4	Temperatura máxima	24.7
59523	7	Sololá	717	San Juan la Laguna	12	San Juan la Laguna	6	Junio	2023-06-13T00:00:00	2024-11-08T10:00:00	3	Temperatura mínima	23.8
59524	7	Sololá	717	San Juan la Laguna	12	San Juan la Laguna	6	Junio	2023-06-13T00:00:00	2024-11-08T10:00:00	5	Humedad	69
59525	7	Sololá	717	San Juan la Laguna	12	San Juan la Laguna	6	Junio	2023-06-13T00:00:00	2024-11-08T10:00:00	6	Velocidad del viento	6.4
59526	7	Sololá	717	San Juan la Laguna	12	San Juan la Laguna	6	Junio	2023-06-13T00:00:00	2024-11-08T10:00:00	7	Dirección del viento	6.44
59527	7	Sololá	717	San Juan la Laguna	12	San Juan la Laguna	6	Junio	2023-06-13T00:00:00	2024-11-08T10:00:00	1	Precipitación	0
59528	7	Sololá	717	San Juan la Laguna	12	San Juan la Laguna	6	Junio	2023-06-13T00:00:00	2024-11-08T10:00:00	8	Radiación solar	668
59529	7	Sololá	717	San Juan la Laguna	12	San Juan la Laguna	6	Junio	2023-06-13T00:00:00	2024-11-08T11:00:00	2	Temperatura media	24.5
59530	7	Sololá	717	San Juan la Laguna	12	San Juan la Laguna	6	Junio	2023-06-13T00:00:00	2024-11-08T11:00:00	4	Temperatura máxima	24.5
59531	7	Sololá	717	San Juan la Laguna	12	San Juan la Laguna	6	Junio	2023-06-13T00:00:00	2024-11-08T11:00:00	3	Temperatura mínima	23.8
59532	7	Sololá	717	San Juan la Laguna	12	San Juan la Laguna	6	Junio	2023-06-13T00:00:00	2024-11-08T11:00:00	5	Humedad	63
59533	7	Sololá	717	San Juan la Laguna	12	San Juan la Laguna	6	Junio	2023-06-13T00:00:00	2024-11-08T11:00:00	6	Velocidad del viento	8
59534	7	Sololá	717	San Juan la Laguna	12	San Juan la Laguna	6	Junio	2023-06-13T00:00:00	2024-11-08T11:00:00	7	Dirección del viento	8.05
59535	7	Sololá	717	San Juan la Laguna	12	San Juan la Laguna	6	Junio	2023-06-13T00:00:00	2024-11-08T11:00:00	1	Precipitación	0
59536	7	Sololá	717	San Juan la Laguna	12	San Juan la Laguna	6	Junio	2023-06-13T00:00:00	2024-11-08T11:00:00	8	Radiación solar	820
59537	7	Sololá	717	San Juan la Laguna	12	San Juan la Laguna	6	Junio	2023-06-13T00:00:00	2024-11-08T12:00:00	2	Temperatura media	27.1
59538	7	Sololá	717	San Juan la Laguna	12	San Juan la Laguna	6	Junio	2023-06-13T00:00:00	2024-11-08T12:00:00	4	Temperatura máxima	27.1
59539	7	Sololá	717	San Juan la Laguna	12	San Juan la Laguna	6	Junio	2023-06-13T00:00:00	2024-11-08T12:00:00	3	Temperatura mínima	24.5
59540	7	Sololá	717	San Juan la Laguna	12	San Juan la Laguna	6	Junio	2023-06-13T00:00:00	2024-11-08T12:00:00	5	Humedad	49
59541	7	Sololá	717	San Juan la Laguna	12	San Juan la Laguna	6	Junio	2023-06-13T00:00:00	2024-11-08T12:00:00	6	Velocidad del viento	6.4
59542	7	Sololá	717	San Juan la Laguna	12	San Juan la Laguna	6	Junio	2023-06-13T00:00:00	2024-11-08T12:00:00	7	Dirección del viento	6.44
59543	7	Sololá	717	San Juan la Laguna	12	San Juan la Laguna	6	Junio	2023-06-13T00:00:00	2024-11-08T12:00:00	1	Precipitación	0
59544	7	Sololá	717	San Juan la Laguna	12	San Juan la Laguna	6	Junio	2023-06-13T00:00:00	2024-11-08T12:00:00	8	Radiación solar	867
59545	7	Sololá	717	San Juan la Laguna	12	San Juan la Laguna	6	Junio	2023-06-13T00:00:00	2024-11-08T13:00:00	2	Temperatura media	26.2
59546	7	Sololá	717	San Juan la Laguna	12	San Juan la Laguna	6	Junio	2023-06-13T00:00:00	2024-11-08T13:00:00	4	Temperatura máxima	27.9
59547	7	Sololá	717	San Juan la Laguna	12	San Juan la Laguna	6	Junio	2023-06-13T00:00:00	2024-11-08T13:00:00	3	Temperatura mínima	26.2
59548	7	Sololá	717	San Juan la Laguna	12	San Juan la Laguna	6	Junio	2023-06-13T00:00:00	2024-11-08T13:00:00	5	Humedad	62
59549	7	Sololá	717	San Juan la Laguna	12	San Juan la Laguna	6	Junio	2023-06-13T00:00:00	2024-11-08T13:00:00	6	Velocidad del viento	8
59550	7	Sololá	717	San Juan la Laguna	12	San Juan la Laguna	6	Junio	2023-06-13T00:00:00	2024-11-08T13:00:00	7	Dirección del viento	8.05
59551	7	Sololá	717	San Juan la Laguna	12	San Juan la Laguna	6	Junio	2023-06-13T00:00:00	2024-11-08T13:00:00	1	Precipitación	0
59552	7	Sololá	717	San Juan la Laguna	12	San Juan la Laguna	6	Junio	2023-06-13T00:00:00	2024-11-08T13:00:00	8	Radiación solar	933
59553	7	Sololá	717	San Juan la Laguna	12	San Juan la Laguna	6	Junio	2023-06-13T00:00:00	2024-11-08T14:00:00	2	Temperatura media	25.6
59554	7	Sololá	717	San Juan la Laguna	12	San Juan la Laguna	6	Junio	2023-06-13T00:00:00	2024-11-08T14:00:00	4	Temperatura máxima	26.3
59555	7	Sololá	717	San Juan la Laguna	12	San Juan la Laguna	6	Junio	2023-06-13T00:00:00	2024-11-08T14:00:00	3	Temperatura mínima	25.1
59556	7	Sololá	717	San Juan la Laguna	12	San Juan la Laguna	6	Junio	2023-06-13T00:00:00	2024-11-08T14:00:00	5	Humedad	68
59557	7	Sololá	717	San Juan la Laguna	12	San Juan la Laguna	6	Junio	2023-06-13T00:00:00	2024-11-08T14:00:00	6	Velocidad del viento	16.1
59558	7	Sololá	717	San Juan la Laguna	12	San Juan la Laguna	6	Junio	2023-06-13T00:00:00	2024-11-08T14:00:00	7	Dirección del viento	16.09
59559	7	Sololá	717	San Juan la Laguna	12	San Juan la Laguna	6	Junio	2023-06-13T00:00:00	2024-11-08T14:00:00	1	Precipitación	0
59560	7	Sololá	717	San Juan la Laguna	12	San Juan la Laguna	6	Junio	2023-06-13T00:00:00	2024-11-08T14:00:00	8	Radiación solar	879
59561	7	Sololá	717	San Juan la Laguna	12	San Juan la Laguna	6	Junio	2023-06-13T00:00:00	2024-11-08T15:00:00	2	Temperatura media	24.6
59562	7	Sololá	717	San Juan la Laguna	12	San Juan la Laguna	6	Junio	2023-06-13T00:00:00	2024-11-08T15:00:00	4	Temperatura máxima	25.7
59563	7	Sololá	717	San Juan la Laguna	12	San Juan la Laguna	6	Junio	2023-06-13T00:00:00	2024-11-08T15:00:00	3	Temperatura mínima	24.6
59564	7	Sololá	717	San Juan la Laguna	12	San Juan la Laguna	6	Junio	2023-06-13T00:00:00	2024-11-08T15:00:00	5	Humedad	72
59565	7	Sololá	717	San Juan la Laguna	12	San Juan la Laguna	6	Junio	2023-06-13T00:00:00	2024-11-08T15:00:00	6	Velocidad del viento	14.5
59566	7	Sololá	717	San Juan la Laguna	12	San Juan la Laguna	6	Junio	2023-06-13T00:00:00	2024-11-08T15:00:00	7	Dirección del viento	14.48
59567	7	Sololá	717	San Juan la Laguna	12	San Juan la Laguna	6	Junio	2023-06-13T00:00:00	2024-11-08T15:00:00	1	Precipitación	0
59568	7	Sololá	717	San Juan la Laguna	12	San Juan la Laguna	6	Junio	2023-06-13T00:00:00	2024-11-08T15:00:00	8	Radiación solar	742
59569	7	Sololá	717	San Juan la Laguna	12	San Juan la Laguna	6	Junio	2023-06-13T00:00:00	2024-11-08T16:00:00	2	Temperatura media	23.6
59570	7	Sololá	717	San Juan la Laguna	12	San Juan la Laguna	6	Junio	2023-06-13T00:00:00	2024-11-08T16:00:00	4	Temperatura máxima	25.2
59571	7	Sololá	717	San Juan la Laguna	12	San Juan la Laguna	6	Junio	2023-06-13T00:00:00	2024-11-08T16:00:00	3	Temperatura mínima	23.6
59572	7	Sololá	717	San Juan la Laguna	12	San Juan la Laguna	6	Junio	2023-06-13T00:00:00	2024-11-08T16:00:00	5	Humedad	74
59573	7	Sololá	717	San Juan la Laguna	12	San Juan la Laguna	6	Junio	2023-06-13T00:00:00	2024-11-08T16:00:00	6	Velocidad del viento	11.3
59574	7	Sololá	717	San Juan la Laguna	12	San Juan la Laguna	6	Junio	2023-06-13T00:00:00	2024-11-08T16:00:00	7	Dirección del viento	11.27
59575	7	Sololá	717	San Juan la Laguna	12	San Juan la Laguna	6	Junio	2023-06-13T00:00:00	2024-11-08T16:00:00	1	Precipitación	0
59576	7	Sololá	717	San Juan la Laguna	12	San Juan la Laguna	6	Junio	2023-06-13T00:00:00	2024-11-08T16:00:00	8	Radiación solar	459
59577	7	Sololá	717	San Juan la Laguna	12	San Juan la Laguna	6	Junio	2023-06-13T00:00:00	2024-11-08T17:00:00	2	Temperatura media	23.8
59578	7	Sololá	717	San Juan la Laguna	12	San Juan la Laguna	6	Junio	2023-06-13T00:00:00	2024-11-08T17:00:00	4	Temperatura máxima	24.7
59579	7	Sololá	717	San Juan la Laguna	12	San Juan la Laguna	6	Junio	2023-06-13T00:00:00	2024-11-08T17:00:00	3	Temperatura mínima	23.6
59580	7	Sololá	717	San Juan la Laguna	12	San Juan la Laguna	6	Junio	2023-06-13T00:00:00	2024-11-08T17:00:00	5	Humedad	75
59581	7	Sololá	717	San Juan la Laguna	12	San Juan la Laguna	6	Junio	2023-06-13T00:00:00	2024-11-08T17:00:00	6	Velocidad del viento	6.4
59582	7	Sololá	717	San Juan la Laguna	12	San Juan la Laguna	6	Junio	2023-06-13T00:00:00	2024-11-08T17:00:00	7	Dirección del viento	6.44
59583	7	Sololá	717	San Juan la Laguna	12	San Juan la Laguna	6	Junio	2023-06-13T00:00:00	2024-11-08T17:00:00	1	Precipitación	0
59584	7	Sololá	717	San Juan la Laguna	12	San Juan la Laguna	6	Junio	2023-06-13T00:00:00	2024-11-08T17:00:00	8	Radiación solar	249
59585	7	Sololá	717	San Juan la Laguna	12	San Juan la Laguna	6	Junio	2023-06-13T00:00:00	2024-11-08T18:00:00	2	Temperatura media	22.8
59586	7	Sololá	717	San Juan la Laguna	12	San Juan la Laguna	6	Junio	2023-06-13T00:00:00	2024-11-08T18:00:00	4	Temperatura máxima	23.8
59587	7	Sololá	717	San Juan la Laguna	12	San Juan la Laguna	6	Junio	2023-06-13T00:00:00	2024-11-08T18:00:00	3	Temperatura mínima	22.8
59588	7	Sololá	717	San Juan la Laguna	12	San Juan la Laguna	6	Junio	2023-06-13T00:00:00	2024-11-08T18:00:00	5	Humedad	78
59589	7	Sololá	717	San Juan la Laguna	12	San Juan la Laguna	6	Junio	2023-06-13T00:00:00	2024-11-08T18:00:00	6	Velocidad del viento	3.2
59590	7	Sololá	717	San Juan la Laguna	12	San Juan la Laguna	6	Junio	2023-06-13T00:00:00	2024-11-08T18:00:00	7	Dirección del viento	3.22
59591	7	Sololá	717	San Juan la Laguna	12	San Juan la Laguna	6	Junio	2023-06-13T00:00:00	2024-11-08T18:00:00	1	Precipitación	0
59592	7	Sololá	717	San Juan la Laguna	12	San Juan la Laguna	6	Junio	2023-06-13T00:00:00	2024-11-08T18:00:00	8	Radiación solar	61
59593	7	Sololá	717	San Juan la Laguna	12	San Juan la Laguna	6	Junio	2023-06-13T00:00:00	2024-11-08T19:00:00	2	Temperatura media	22.2
59594	7	Sololá	717	San Juan la Laguna	12	San Juan la Laguna	6	Junio	2023-06-13T00:00:00	2024-11-08T19:00:00	4	Temperatura máxima	22.8
59595	7	Sololá	717	San Juan la Laguna	12	San Juan la Laguna	6	Junio	2023-06-13T00:00:00	2024-11-08T19:00:00	3	Temperatura mínima	22.2
59596	7	Sololá	717	San Juan la Laguna	12	San Juan la Laguna	6	Junio	2023-06-13T00:00:00	2024-11-08T19:00:00	5	Humedad	81
59597	7	Sololá	717	San Juan la Laguna	12	San Juan la Laguna	6	Junio	2023-06-13T00:00:00	2024-11-08T19:00:00	6	Velocidad del viento	0
59598	7	Sololá	717	San Juan la Laguna	12	San Juan la Laguna	6	Junio	2023-06-13T00:00:00	2024-11-08T19:00:00	7	Dirección del viento	0
59599	7	Sololá	717	San Juan la Laguna	12	San Juan la Laguna	6	Junio	2023-06-13T00:00:00	2024-11-08T19:00:00	1	Precipitación	0
59600	7	Sololá	717	San Juan la Laguna	12	San Juan la Laguna	6	Junio	2023-06-13T00:00:00	2024-11-08T19:00:00	8	Radiación solar	0
59601	7	Sololá	717	San Juan la Laguna	12	San Juan la Laguna	6	Junio	2023-06-13T00:00:00	2024-11-08T20:00:00	2	Temperatura media	21.4
59602	7	Sololá	717	San Juan la Laguna	12	San Juan la Laguna	6	Junio	2023-06-13T00:00:00	2024-11-08T20:00:00	4	Temperatura máxima	22.2
59603	7	Sololá	717	San Juan la Laguna	12	San Juan la Laguna	6	Junio	2023-06-13T00:00:00	2024-11-08T20:00:00	3	Temperatura mínima	21.4
59604	7	Sololá	717	San Juan la Laguna	12	San Juan la Laguna	6	Junio	2023-06-13T00:00:00	2024-11-08T20:00:00	5	Humedad	86
59605	7	Sololá	717	San Juan la Laguna	12	San Juan la Laguna	6	Junio	2023-06-13T00:00:00	2024-11-08T20:00:00	6	Velocidad del viento	0
59606	7	Sololá	717	San Juan la Laguna	12	San Juan la Laguna	6	Junio	2023-06-13T00:00:00	2024-11-08T20:00:00	7	Dirección del viento	0
59607	7	Sololá	717	San Juan la Laguna	12	San Juan la Laguna	6	Junio	2023-06-13T00:00:00	2024-11-08T20:00:00	1	Precipitación	0
59608	7	Sololá	717	San Juan la Laguna	12	San Juan la Laguna	6	Junio	2023-06-13T00:00:00	2024-11-08T20:00:00	8	Radiación solar	0
59609	7	Sololá	717	San Juan la Laguna	12	San Juan la Laguna	6	Junio	2023-06-13T00:00:00	2024-11-08T21:00:00	2	Temperatura media	21
59610	7	Sololá	717	San Juan la Laguna	12	San Juan la Laguna	6	Junio	2023-06-13T00:00:00	2024-11-08T21:00:00	4	Temperatura máxima	21.4
59611	7	Sololá	717	San Juan la Laguna	12	San Juan la Laguna	6	Junio	2023-06-13T00:00:00	2024-11-08T21:00:00	3	Temperatura mínima	21
59612	7	Sololá	717	San Juan la Laguna	12	San Juan la Laguna	6	Junio	2023-06-13T00:00:00	2024-11-08T21:00:00	5	Humedad	87
59613	7	Sololá	717	San Juan la Laguna	12	San Juan la Laguna	6	Junio	2023-06-13T00:00:00	2024-11-08T21:00:00	6	Velocidad del viento	0
59614	7	Sololá	717	San Juan la Laguna	12	San Juan la Laguna	6	Junio	2023-06-13T00:00:00	2024-11-08T21:00:00	7	Dirección del viento	0
59615	7	Sololá	717	San Juan la Laguna	12	San Juan la Laguna	6	Junio	2023-06-13T00:00:00	2024-11-08T21:00:00	1	Precipitación	0
59616	7	Sololá	717	San Juan la Laguna	12	San Juan la Laguna	6	Junio	2023-06-13T00:00:00	2024-11-08T21:00:00	8	Radiación solar	0
59617	7	Sololá	717	San Juan la Laguna	12	San Juan la Laguna	6	Junio	2023-06-13T00:00:00	2024-11-08T22:00:00	2	Temperatura media	20.9
59618	7	Sololá	717	San Juan la Laguna	12	San Juan la Laguna	6	Junio	2023-06-13T00:00:00	2024-11-08T22:00:00	4	Temperatura máxima	21.1
59619	7	Sololá	717	San Juan la Laguna	12	San Juan la Laguna	6	Junio	2023-06-13T00:00:00	2024-11-08T22:00:00	3	Temperatura mínima	20.7
59620	7	Sololá	717	San Juan la Laguna	12	San Juan la Laguna	6	Junio	2023-06-13T00:00:00	2024-11-08T22:00:00	5	Humedad	87
59621	7	Sololá	717	San Juan la Laguna	12	San Juan la Laguna	6	Junio	2023-06-13T00:00:00	2024-11-08T22:00:00	6	Velocidad del viento	0
59622	7	Sololá	717	San Juan la Laguna	12	San Juan la Laguna	6	Junio	2023-06-13T00:00:00	2024-11-08T22:00:00	7	Dirección del viento	0
59623	7	Sololá	717	San Juan la Laguna	12	San Juan la Laguna	6	Junio	2023-06-13T00:00:00	2024-11-08T22:00:00	1	Precipitación	0
59624	7	Sololá	717	San Juan la Laguna	12	San Juan la Laguna	6	Junio	2023-06-13T00:00:00	2024-11-08T22:00:00	8	Radiación solar	0
59625	7	Sololá	717	San Juan la Laguna	12	San Juan la Laguna	6	Junio	2023-06-13T00:00:00	2024-11-08T23:00:00	2	Temperatura media	20.9
59626	7	Sololá	717	San Juan la Laguna	12	San Juan la Laguna	6	Junio	2023-06-13T00:00:00	2024-11-08T23:00:00	4	Temperatura máxima	21.1
59627	7	Sololá	717	San Juan la Laguna	12	San Juan la Laguna	6	Junio	2023-06-13T00:00:00	2024-11-08T23:00:00	3	Temperatura mínima	20.5
59628	7	Sololá	717	San Juan la Laguna	12	San Juan la Laguna	6	Junio	2023-06-13T00:00:00	2024-11-08T23:00:00	5	Humedad	86
59629	7	Sololá	717	San Juan la Laguna	12	San Juan la Laguna	6	Junio	2023-06-13T00:00:00	2024-11-08T23:00:00	6	Velocidad del viento	1.6
59630	7	Sololá	717	San Juan la Laguna	12	San Juan la Laguna	6	Junio	2023-06-13T00:00:00	2024-11-08T23:00:00	7	Dirección del viento	1.61
59631	7	Sololá	717	San Juan la Laguna	12	San Juan la Laguna	6	Junio	2023-06-13T00:00:00	2024-11-08T23:00:00	1	Precipitación	0
59632	7	Sololá	717	San Juan la Laguna	12	San Juan la Laguna	6	Junio	2023-06-13T00:00:00	2024-11-08T23:00:00	8	Radiación solar	0
59633	7	Sololá	717	San Juan la Laguna	12	San Juan la Laguna	6	Junio	2023-06-14T00:00:00	2024-11-08T00:00:00	2	Temperatura media	19.1
59634	7	Sololá	717	San Juan la Laguna	12	San Juan la Laguna	6	Junio	2023-06-14T00:00:00	2024-11-08T00:00:00	4	Temperatura máxima	20.9
59635	7	Sololá	717	San Juan la Laguna	12	San Juan la Laguna	6	Junio	2023-06-14T00:00:00	2024-11-08T00:00:00	3	Temperatura mínima	19.1
59636	7	Sololá	717	San Juan la Laguna	12	San Juan la Laguna	6	Junio	2023-06-14T00:00:00	2024-11-08T00:00:00	5	Humedad	88
59637	7	Sololá	717	San Juan la Laguna	12	San Juan la Laguna	6	Junio	2023-06-14T00:00:00	2024-11-08T00:00:00	6	Velocidad del viento	0
59638	7	Sololá	717	San Juan la Laguna	12	San Juan la Laguna	6	Junio	2023-06-14T00:00:00	2024-11-08T00:00:00	7	Dirección del viento	0
59639	7	Sololá	717	San Juan la Laguna	12	San Juan la Laguna	6	Junio	2023-06-14T00:00:00	2024-11-08T00:00:00	1	Precipitación	0
59640	7	Sololá	717	San Juan la Laguna	12	San Juan la Laguna	6	Junio	2023-06-14T00:00:00	2024-11-08T00:00:00	8	Radiación solar	0
59641	7	Sololá	717	San Juan la Laguna	12	San Juan la Laguna	6	Junio	2023-06-14T00:00:00	2024-11-08T01:00:00	2	Temperatura media	18.7
59642	7	Sololá	717	San Juan la Laguna	12	San Juan la Laguna	6	Junio	2023-06-14T00:00:00	2024-11-08T01:00:00	4	Temperatura máxima	19.2
59643	7	Sololá	717	San Juan la Laguna	12	San Juan la Laguna	6	Junio	2023-06-14T00:00:00	2024-11-08T01:00:00	3	Temperatura mínima	18.5
59644	7	Sololá	717	San Juan la Laguna	12	San Juan la Laguna	6	Junio	2023-06-14T00:00:00	2024-11-08T01:00:00	5	Humedad	87
59645	7	Sololá	717	San Juan la Laguna	12	San Juan la Laguna	6	Junio	2023-06-14T00:00:00	2024-11-08T01:00:00	6	Velocidad del viento	0
59646	7	Sololá	717	San Juan la Laguna	12	San Juan la Laguna	6	Junio	2023-06-14T00:00:00	2024-11-08T01:00:00	7	Dirección del viento	0
59647	7	Sololá	717	San Juan la Laguna	12	San Juan la Laguna	6	Junio	2023-06-14T00:00:00	2024-11-08T01:00:00	1	Precipitación	0
59648	7	Sololá	717	San Juan la Laguna	12	San Juan la Laguna	6	Junio	2023-06-14T00:00:00	2024-11-08T01:00:00	8	Radiación solar	0
59649	7	Sololá	717	San Juan la Laguna	12	San Juan la Laguna	6	Junio	2023-06-14T00:00:00	2024-11-08T02:00:00	2	Temperatura media	18.6
59650	7	Sololá	717	San Juan la Laguna	12	San Juan la Laguna	6	Junio	2023-06-14T00:00:00	2024-11-08T02:00:00	4	Temperatura máxima	18.7
59651	7	Sololá	717	San Juan la Laguna	12	San Juan la Laguna	6	Junio	2023-06-14T00:00:00	2024-11-08T02:00:00	3	Temperatura mínima	18.4
59652	7	Sololá	717	San Juan la Laguna	12	San Juan la Laguna	6	Junio	2023-06-14T00:00:00	2024-11-08T02:00:00	5	Humedad	85
59653	7	Sololá	717	San Juan la Laguna	12	San Juan la Laguna	6	Junio	2023-06-14T00:00:00	2024-11-08T02:00:00	6	Velocidad del viento	1.6
59654	7	Sololá	717	San Juan la Laguna	12	San Juan la Laguna	6	Junio	2023-06-14T00:00:00	2024-11-08T02:00:00	7	Dirección del viento	1.61
59655	7	Sololá	717	San Juan la Laguna	12	San Juan la Laguna	6	Junio	2023-06-14T00:00:00	2024-11-08T02:00:00	1	Precipitación	0
59656	7	Sololá	717	San Juan la Laguna	12	San Juan la Laguna	6	Junio	2023-06-14T00:00:00	2024-11-08T02:00:00	8	Radiación solar	0
59657	7	Sololá	717	San Juan la Laguna	12	San Juan la Laguna	6	Junio	2023-06-14T00:00:00	2024-11-08T03:00:00	2	Temperatura media	17.9
59658	7	Sololá	717	San Juan la Laguna	12	San Juan la Laguna	6	Junio	2023-06-14T00:00:00	2024-11-08T03:00:00	4	Temperatura máxima	18.6
59659	7	Sololá	717	San Juan la Laguna	12	San Juan la Laguna	6	Junio	2023-06-14T00:00:00	2024-11-08T03:00:00	3	Temperatura mínima	17.8
59660	7	Sololá	717	San Juan la Laguna	12	San Juan la Laguna	6	Junio	2023-06-14T00:00:00	2024-11-08T03:00:00	5	Humedad	83
59661	7	Sololá	717	San Juan la Laguna	12	San Juan la Laguna	6	Junio	2023-06-14T00:00:00	2024-11-08T03:00:00	6	Velocidad del viento	1.6
59662	7	Sololá	717	San Juan la Laguna	12	San Juan la Laguna	6	Junio	2023-06-14T00:00:00	2024-11-08T03:00:00	7	Dirección del viento	1.61
59663	7	Sololá	717	San Juan la Laguna	12	San Juan la Laguna	6	Junio	2023-06-14T00:00:00	2024-11-08T03:00:00	1	Precipitación	0
59664	7	Sololá	717	San Juan la Laguna	12	San Juan la Laguna	6	Junio	2023-06-14T00:00:00	2024-11-08T03:00:00	8	Radiación solar	0
59665	7	Sololá	717	San Juan la Laguna	12	San Juan la Laguna	6	Junio	2023-06-14T00:00:00	2024-11-08T04:00:00	2	Temperatura media	17.3
59666	7	Sololá	717	San Juan la Laguna	12	San Juan la Laguna	6	Junio	2023-06-14T00:00:00	2024-11-08T04:00:00	4	Temperatura máxima	17.9
59667	7	Sololá	717	San Juan la Laguna	12	San Juan la Laguna	6	Junio	2023-06-14T00:00:00	2024-11-08T04:00:00	3	Temperatura mínima	17.1
59668	7	Sololá	717	San Juan la Laguna	12	San Juan la Laguna	6	Junio	2023-06-14T00:00:00	2024-11-08T04:00:00	5	Humedad	85
59669	7	Sololá	717	San Juan la Laguna	12	San Juan la Laguna	6	Junio	2023-06-14T00:00:00	2024-11-08T04:00:00	6	Velocidad del viento	1.6
59670	7	Sololá	717	San Juan la Laguna	12	San Juan la Laguna	6	Junio	2023-06-14T00:00:00	2024-11-08T04:00:00	7	Dirección del viento	1.61
59671	7	Sololá	717	San Juan la Laguna	12	San Juan la Laguna	6	Junio	2023-06-14T00:00:00	2024-11-08T04:00:00	1	Precipitación	0
59672	7	Sololá	717	San Juan la Laguna	12	San Juan la Laguna	6	Junio	2023-06-14T00:00:00	2024-11-08T04:00:00	8	Radiación solar	0
59673	7	Sololá	717	San Juan la Laguna	12	San Juan la Laguna	6	Junio	2023-06-14T00:00:00	2024-11-08T05:00:00	2	Temperatura media	17.1
59674	7	Sololá	717	San Juan la Laguna	12	San Juan la Laguna	6	Junio	2023-06-14T00:00:00	2024-11-08T05:00:00	4	Temperatura máxima	17.6
59675	7	Sololá	717	San Juan la Laguna	12	San Juan la Laguna	6	Junio	2023-06-14T00:00:00	2024-11-08T05:00:00	3	Temperatura mínima	17.1
59676	7	Sololá	717	San Juan la Laguna	12	San Juan la Laguna	6	Junio	2023-06-14T00:00:00	2024-11-08T05:00:00	5	Humedad	83
59677	7	Sololá	717	San Juan la Laguna	12	San Juan la Laguna	6	Junio	2023-06-14T00:00:00	2024-11-08T05:00:00	6	Velocidad del viento	1.6
59678	7	Sololá	717	San Juan la Laguna	12	San Juan la Laguna	6	Junio	2023-06-14T00:00:00	2024-11-08T05:00:00	7	Dirección del viento	1.61
59679	7	Sololá	717	San Juan la Laguna	12	San Juan la Laguna	6	Junio	2023-06-14T00:00:00	2024-11-08T05:00:00	1	Precipitación	0
59680	7	Sololá	717	San Juan la Laguna	12	San Juan la Laguna	6	Junio	2023-06-14T00:00:00	2024-11-08T05:00:00	8	Radiación solar	0
59681	7	Sololá	717	San Juan la Laguna	12	San Juan la Laguna	6	Junio	2023-06-14T00:00:00	2024-11-08T06:00:00	2	Temperatura media	17.2
59682	7	Sololá	717	San Juan la Laguna	12	San Juan la Laguna	6	Junio	2023-06-14T00:00:00	2024-11-08T06:00:00	4	Temperatura máxima	17.2
59683	7	Sololá	717	San Juan la Laguna	12	San Juan la Laguna	6	Junio	2023-06-14T00:00:00	2024-11-08T06:00:00	3	Temperatura mínima	16.6
59684	7	Sololá	717	San Juan la Laguna	12	San Juan la Laguna	6	Junio	2023-06-14T00:00:00	2024-11-08T06:00:00	5	Humedad	83
59685	7	Sololá	717	San Juan la Laguna	12	San Juan la Laguna	6	Junio	2023-06-14T00:00:00	2024-11-08T06:00:00	6	Velocidad del viento	1.6
59686	7	Sololá	717	San Juan la Laguna	12	San Juan la Laguna	6	Junio	2023-06-14T00:00:00	2024-11-08T06:00:00	7	Dirección del viento	1.61
59687	7	Sololá	717	San Juan la Laguna	12	San Juan la Laguna	6	Junio	2023-06-14T00:00:00	2024-11-08T06:00:00	1	Precipitación	0
59688	7	Sololá	717	San Juan la Laguna	12	San Juan la Laguna	6	Junio	2023-06-14T00:00:00	2024-11-08T06:00:00	8	Radiación solar	7
59689	7	Sololá	717	San Juan la Laguna	12	San Juan la Laguna	6	Junio	2023-06-14T00:00:00	2024-11-08T07:00:00	2	Temperatura media	19.3
59690	7	Sololá	717	San Juan la Laguna	12	San Juan la Laguna	6	Junio	2023-06-14T00:00:00	2024-11-08T07:00:00	4	Temperatura máxima	19.3
59691	7	Sololá	717	San Juan la Laguna	12	San Juan la Laguna	6	Junio	2023-06-14T00:00:00	2024-11-08T07:00:00	3	Temperatura mínima	17.1
59692	7	Sololá	717	San Juan la Laguna	12	San Juan la Laguna	6	Junio	2023-06-14T00:00:00	2024-11-08T07:00:00	5	Humedad	82
59693	7	Sololá	717	San Juan la Laguna	12	San Juan la Laguna	6	Junio	2023-06-14T00:00:00	2024-11-08T07:00:00	6	Velocidad del viento	0
59694	7	Sololá	717	San Juan la Laguna	12	San Juan la Laguna	6	Junio	2023-06-14T00:00:00	2024-11-08T07:00:00	7	Dirección del viento	0
59695	7	Sololá	717	San Juan la Laguna	12	San Juan la Laguna	6	Junio	2023-06-14T00:00:00	2024-11-08T07:00:00	1	Precipitación	0
59696	7	Sololá	717	San Juan la Laguna	12	San Juan la Laguna	6	Junio	2023-06-14T00:00:00	2024-11-08T07:00:00	8	Radiación solar	101
59697	7	Sololá	717	San Juan la Laguna	12	San Juan la Laguna	6	Junio	2023-06-14T00:00:00	2024-11-08T08:00:00	2	Temperatura media	22.4
59698	7	Sololá	717	San Juan la Laguna	12	San Juan la Laguna	6	Junio	2023-06-14T00:00:00	2024-11-08T08:00:00	4	Temperatura máxima	22.4
59699	7	Sololá	717	San Juan la Laguna	12	San Juan la Laguna	6	Junio	2023-06-14T00:00:00	2024-11-08T08:00:00	3	Temperatura mínima	19.3
59700	7	Sololá	717	San Juan la Laguna	12	San Juan la Laguna	6	Junio	2023-06-14T00:00:00	2024-11-08T08:00:00	5	Humedad	72
59701	7	Sololá	717	San Juan la Laguna	12	San Juan la Laguna	6	Junio	2023-06-14T00:00:00	2024-11-08T08:00:00	6	Velocidad del viento	0
59702	7	Sololá	717	San Juan la Laguna	12	San Juan la Laguna	6	Junio	2023-06-14T00:00:00	2024-11-08T08:00:00	7	Dirección del viento	0
59703	7	Sololá	717	San Juan la Laguna	12	San Juan la Laguna	6	Junio	2023-06-14T00:00:00	2024-11-08T08:00:00	1	Precipitación	0
59704	7	Sololá	717	San Juan la Laguna	12	San Juan la Laguna	6	Junio	2023-06-14T00:00:00	2024-11-08T08:00:00	8	Radiación solar	312
59705	7	Sololá	717	San Juan la Laguna	12	San Juan la Laguna	6	Junio	2023-06-14T00:00:00	2024-11-08T09:00:00	2	Temperatura media	23.7
59706	7	Sololá	717	San Juan la Laguna	12	San Juan la Laguna	6	Junio	2023-06-14T00:00:00	2024-11-08T09:00:00	4	Temperatura máxima	23.7
59707	7	Sololá	717	San Juan la Laguna	12	San Juan la Laguna	6	Junio	2023-06-14T00:00:00	2024-11-08T09:00:00	3	Temperatura mínima	22.3
59708	7	Sololá	717	San Juan la Laguna	12	San Juan la Laguna	6	Junio	2023-06-14T00:00:00	2024-11-08T09:00:00	5	Humedad	62
59709	7	Sololá	717	San Juan la Laguna	12	San Juan la Laguna	6	Junio	2023-06-14T00:00:00	2024-11-08T09:00:00	6	Velocidad del viento	4.8
59710	7	Sololá	717	San Juan la Laguna	12	San Juan la Laguna	6	Junio	2023-06-14T00:00:00	2024-11-08T09:00:00	7	Dirección del viento	4.83
59711	7	Sololá	717	San Juan la Laguna	12	San Juan la Laguna	6	Junio	2023-06-14T00:00:00	2024-11-08T09:00:00	1	Precipitación	0
59712	7	Sololá	717	San Juan la Laguna	12	San Juan la Laguna	6	Junio	2023-06-14T00:00:00	2024-11-08T09:00:00	8	Radiación solar	519
59713	7	Sololá	717	San Juan la Laguna	12	San Juan la Laguna	6	Junio	2023-06-14T00:00:00	2024-11-08T10:00:00	2	Temperatura media	25.3
59714	7	Sololá	717	San Juan la Laguna	12	San Juan la Laguna	6	Junio	2023-06-14T00:00:00	2024-11-08T10:00:00	4	Temperatura máxima	25.6
59715	7	Sololá	717	San Juan la Laguna	12	San Juan la Laguna	6	Junio	2023-06-14T00:00:00	2024-11-08T10:00:00	3	Temperatura mínima	23.8
59716	7	Sololá	717	San Juan la Laguna	12	San Juan la Laguna	6	Junio	2023-06-14T00:00:00	2024-11-08T10:00:00	5	Humedad	53
59717	7	Sololá	717	San Juan la Laguna	12	San Juan la Laguna	6	Junio	2023-06-14T00:00:00	2024-11-08T10:00:00	6	Velocidad del viento	6.4
59718	7	Sololá	717	San Juan la Laguna	12	San Juan la Laguna	6	Junio	2023-06-14T00:00:00	2024-11-08T10:00:00	7	Dirección del viento	6.44
59719	7	Sololá	717	San Juan la Laguna	12	San Juan la Laguna	6	Junio	2023-06-14T00:00:00	2024-11-08T10:00:00	1	Precipitación	0
59720	7	Sololá	717	San Juan la Laguna	12	San Juan la Laguna	6	Junio	2023-06-14T00:00:00	2024-11-08T10:00:00	8	Radiación solar	708
59721	7	Sololá	717	San Juan la Laguna	12	San Juan la Laguna	6	Junio	2023-06-14T00:00:00	2024-11-08T11:00:00	2	Temperatura media	24.9
59722	7	Sololá	717	San Juan la Laguna	12	San Juan la Laguna	6	Junio	2023-06-14T00:00:00	2024-11-08T11:00:00	4	Temperatura máxima	25.7
59723	7	Sololá	717	San Juan la Laguna	12	San Juan la Laguna	6	Junio	2023-06-14T00:00:00	2024-11-08T11:00:00	3	Temperatura mínima	24.8
59724	7	Sololá	717	San Juan la Laguna	12	San Juan la Laguna	6	Junio	2023-06-14T00:00:00	2024-11-08T11:00:00	5	Humedad	63
59725	7	Sololá	717	San Juan la Laguna	12	San Juan la Laguna	6	Junio	2023-06-14T00:00:00	2024-11-08T11:00:00	6	Velocidad del viento	8
59726	7	Sololá	717	San Juan la Laguna	12	San Juan la Laguna	6	Junio	2023-06-14T00:00:00	2024-11-08T11:00:00	7	Dirección del viento	8.05
59727	7	Sololá	717	San Juan la Laguna	12	San Juan la Laguna	6	Junio	2023-06-14T00:00:00	2024-11-08T11:00:00	1	Precipitación	0
59728	7	Sololá	717	San Juan la Laguna	12	San Juan la Laguna	6	Junio	2023-06-14T00:00:00	2024-11-08T11:00:00	8	Radiación solar	841
59729	7	Sololá	717	San Juan la Laguna	12	San Juan la Laguna	6	Junio	2023-06-14T00:00:00	2024-11-08T12:00:00	2	Temperatura media	24.9
59730	7	Sololá	717	San Juan la Laguna	12	San Juan la Laguna	6	Junio	2023-06-14T00:00:00	2024-11-08T12:00:00	4	Temperatura máxima	25.4
59731	7	Sololá	717	San Juan la Laguna	12	San Juan la Laguna	6	Junio	2023-06-14T00:00:00	2024-11-08T12:00:00	3	Temperatura mínima	24.8
59732	7	Sololá	717	San Juan la Laguna	12	San Juan la Laguna	6	Junio	2023-06-14T00:00:00	2024-11-08T12:00:00	5	Humedad	67
59733	7	Sololá	717	San Juan la Laguna	12	San Juan la Laguna	6	Junio	2023-06-14T00:00:00	2024-11-08T12:00:00	6	Velocidad del viento	9.7
59734	7	Sololá	717	San Juan la Laguna	12	San Juan la Laguna	6	Junio	2023-06-14T00:00:00	2024-11-08T12:00:00	7	Dirección del viento	9.66
59735	7	Sololá	717	San Juan la Laguna	12	San Juan la Laguna	6	Junio	2023-06-14T00:00:00	2024-11-08T12:00:00	1	Precipitación	0
59736	7	Sololá	717	San Juan la Laguna	12	San Juan la Laguna	6	Junio	2023-06-14T00:00:00	2024-11-08T12:00:00	8	Radiación solar	952
59737	7	Sololá	717	San Juan la Laguna	12	San Juan la Laguna	6	Junio	2023-06-14T00:00:00	2024-11-08T13:00:00	2	Temperatura media	25.1
59738	7	Sololá	717	San Juan la Laguna	12	San Juan la Laguna	6	Junio	2023-06-14T00:00:00	2024-11-08T13:00:00	4	Temperatura máxima	25.4
59739	7	Sololá	717	San Juan la Laguna	12	San Juan la Laguna	6	Junio	2023-06-14T00:00:00	2024-11-08T13:00:00	3	Temperatura mínima	24.8
59740	7	Sololá	717	San Juan la Laguna	12	San Juan la Laguna	6	Junio	2023-06-14T00:00:00	2024-11-08T13:00:00	5	Humedad	68
59741	7	Sololá	717	San Juan la Laguna	12	San Juan la Laguna	6	Junio	2023-06-14T00:00:00	2024-11-08T13:00:00	6	Velocidad del viento	9.7
59742	7	Sololá	717	San Juan la Laguna	12	San Juan la Laguna	6	Junio	2023-06-14T00:00:00	2024-11-08T13:00:00	7	Dirección del viento	9.66
59743	7	Sololá	717	San Juan la Laguna	12	San Juan la Laguna	6	Junio	2023-06-14T00:00:00	2024-11-08T13:00:00	1	Precipitación	0
59744	7	Sololá	717	San Juan la Laguna	12	San Juan la Laguna	6	Junio	2023-06-14T00:00:00	2024-11-08T13:00:00	8	Radiación solar	955
59745	7	Sololá	717	San Juan la Laguna	12	San Juan la Laguna	6	Junio	2023-06-14T00:00:00	2024-11-08T14:00:00	2	Temperatura media	25.2
59746	7	Sololá	717	San Juan la Laguna	12	San Juan la Laguna	6	Junio	2023-06-14T00:00:00	2024-11-08T14:00:00	4	Temperatura máxima	25.4
59747	7	Sololá	717	San Juan la Laguna	12	San Juan la Laguna	6	Junio	2023-06-14T00:00:00	2024-11-08T14:00:00	3	Temperatura mínima	24.6
59748	7	Sololá	717	San Juan la Laguna	12	San Juan la Laguna	6	Junio	2023-06-14T00:00:00	2024-11-08T14:00:00	5	Humedad	69
59749	7	Sololá	717	San Juan la Laguna	12	San Juan la Laguna	6	Junio	2023-06-14T00:00:00	2024-11-08T14:00:00	6	Velocidad del viento	8
59750	7	Sololá	717	San Juan la Laguna	12	San Juan la Laguna	6	Junio	2023-06-14T00:00:00	2024-11-08T14:00:00	7	Dirección del viento	8.05
59751	7	Sololá	717	San Juan la Laguna	12	San Juan la Laguna	6	Junio	2023-06-14T00:00:00	2024-11-08T14:00:00	1	Precipitación	0
59752	7	Sololá	717	San Juan la Laguna	12	San Juan la Laguna	6	Junio	2023-06-14T00:00:00	2024-11-08T14:00:00	8	Radiación solar	892
59753	7	Sololá	717	San Juan la Laguna	12	San Juan la Laguna	6	Junio	2023-06-14T00:00:00	2024-11-08T15:00:00	2	Temperatura media	25.3
59754	7	Sololá	717	San Juan la Laguna	12	San Juan la Laguna	6	Junio	2023-06-14T00:00:00	2024-11-08T15:00:00	4	Temperatura máxima	25.6
59755	7	Sololá	717	San Juan la Laguna	12	San Juan la Laguna	6	Junio	2023-06-14T00:00:00	2024-11-08T15:00:00	3	Temperatura mínima	24.3
59756	7	Sololá	717	San Juan la Laguna	12	San Juan la Laguna	6	Junio	2023-06-14T00:00:00	2024-11-08T15:00:00	5	Humedad	68
59757	7	Sololá	717	San Juan la Laguna	12	San Juan la Laguna	6	Junio	2023-06-14T00:00:00	2024-11-08T15:00:00	6	Velocidad del viento	8
59758	7	Sololá	717	San Juan la Laguna	12	San Juan la Laguna	6	Junio	2023-06-14T00:00:00	2024-11-08T15:00:00	7	Dirección del viento	8.05
59759	7	Sololá	717	San Juan la Laguna	12	San Juan la Laguna	6	Junio	2023-06-14T00:00:00	2024-11-08T15:00:00	1	Precipitación	0
59760	7	Sololá	717	San Juan la Laguna	12	San Juan la Laguna	6	Junio	2023-06-14T00:00:00	2024-11-08T15:00:00	8	Radiación solar	605
59761	7	Sololá	717	San Juan la Laguna	12	San Juan la Laguna	6	Junio	2023-06-14T00:00:00	2024-11-08T16:00:00	2	Temperatura media	21.6
59762	7	Sololá	717	San Juan la Laguna	12	San Juan la Laguna	6	Junio	2023-06-14T00:00:00	2024-11-08T16:00:00	4	Temperatura máxima	25.3
59763	7	Sololá	717	San Juan la Laguna	12	San Juan la Laguna	6	Junio	2023-06-14T00:00:00	2024-11-08T16:00:00	3	Temperatura mínima	21.6
59764	7	Sololá	717	San Juan la Laguna	12	San Juan la Laguna	6	Junio	2023-06-14T00:00:00	2024-11-08T16:00:00	5	Humedad	82
59765	7	Sololá	717	San Juan la Laguna	12	San Juan la Laguna	6	Junio	2023-06-14T00:00:00	2024-11-08T16:00:00	6	Velocidad del viento	12.9
59766	7	Sololá	717	San Juan la Laguna	12	San Juan la Laguna	6	Junio	2023-06-14T00:00:00	2024-11-08T16:00:00	7	Dirección del viento	12.87
59767	7	Sololá	717	San Juan la Laguna	12	San Juan la Laguna	6	Junio	2023-06-14T00:00:00	2024-11-08T16:00:00	1	Precipitación	0
59768	7	Sololá	717	San Juan la Laguna	12	San Juan la Laguna	6	Junio	2023-06-14T00:00:00	2024-11-08T16:00:00	8	Radiación solar	515
59769	7	Sololá	717	San Juan la Laguna	12	San Juan la Laguna	6	Junio	2023-06-14T00:00:00	2024-11-08T17:00:00	2	Temperatura media	21.2
59770	7	Sololá	717	San Juan la Laguna	12	San Juan la Laguna	6	Junio	2023-06-14T00:00:00	2024-11-08T17:00:00	4	Temperatura máxima	21.5
59771	7	Sololá	717	San Juan la Laguna	12	San Juan la Laguna	6	Junio	2023-06-14T00:00:00	2024-11-08T17:00:00	3	Temperatura mínima	20.4
59772	7	Sololá	717	San Juan la Laguna	12	San Juan la Laguna	6	Junio	2023-06-14T00:00:00	2024-11-08T17:00:00	5	Humedad	83
59773	7	Sololá	717	San Juan la Laguna	12	San Juan la Laguna	6	Junio	2023-06-14T00:00:00	2024-11-08T17:00:00	6	Velocidad del viento	11.3
59774	7	Sololá	717	San Juan la Laguna	12	San Juan la Laguna	6	Junio	2023-06-14T00:00:00	2024-11-08T17:00:00	7	Dirección del viento	11.27
59775	7	Sololá	717	San Juan la Laguna	12	San Juan la Laguna	6	Junio	2023-06-14T00:00:00	2024-11-08T17:00:00	1	Precipitación	0
59776	7	Sololá	717	San Juan la Laguna	12	San Juan la Laguna	6	Junio	2023-06-14T00:00:00	2024-11-08T17:00:00	8	Radiación solar	160
59777	7	Sololá	717	San Juan la Laguna	12	San Juan la Laguna	6	Junio	2023-06-14T00:00:00	2024-11-08T18:00:00	2	Temperatura media	21.5
59778	7	Sololá	717	San Juan la Laguna	12	San Juan la Laguna	6	Junio	2023-06-14T00:00:00	2024-11-08T18:00:00	4	Temperatura máxima	21.6
59779	7	Sololá	717	San Juan la Laguna	12	San Juan la Laguna	6	Junio	2023-06-14T00:00:00	2024-11-08T18:00:00	3	Temperatura mínima	21.2
59780	7	Sololá	717	San Juan la Laguna	12	San Juan la Laguna	6	Junio	2023-06-14T00:00:00	2024-11-08T18:00:00	5	Humedad	82
59781	7	Sololá	717	San Juan la Laguna	12	San Juan la Laguna	6	Junio	2023-06-14T00:00:00	2024-11-08T18:00:00	6	Velocidad del viento	1.6
59782	7	Sololá	717	San Juan la Laguna	12	San Juan la Laguna	6	Junio	2023-06-14T00:00:00	2024-11-08T18:00:00	7	Dirección del viento	1.61
59783	7	Sololá	717	San Juan la Laguna	12	San Juan la Laguna	6	Junio	2023-06-14T00:00:00	2024-11-08T18:00:00	1	Precipitación	0
59784	7	Sololá	717	San Juan la Laguna	12	San Juan la Laguna	6	Junio	2023-06-14T00:00:00	2024-11-08T18:00:00	8	Radiación solar	70
59785	7	Sololá	717	San Juan la Laguna	12	San Juan la Laguna	6	Junio	2023-06-14T00:00:00	2024-11-08T19:00:00	2	Temperatura media	21.1
59786	7	Sololá	717	San Juan la Laguna	12	San Juan la Laguna	6	Junio	2023-06-14T00:00:00	2024-11-08T19:00:00	4	Temperatura máxima	21.5
59787	7	Sololá	717	San Juan la Laguna	12	San Juan la Laguna	6	Junio	2023-06-14T00:00:00	2024-11-08T19:00:00	3	Temperatura mínima	21.1
59788	7	Sololá	717	San Juan la Laguna	12	San Juan la Laguna	6	Junio	2023-06-14T00:00:00	2024-11-08T19:00:00	5	Humedad	85
59789	7	Sololá	717	San Juan la Laguna	12	San Juan la Laguna	6	Junio	2023-06-14T00:00:00	2024-11-08T19:00:00	6	Velocidad del viento	0
59790	7	Sololá	717	San Juan la Laguna	12	San Juan la Laguna	6	Junio	2023-06-14T00:00:00	2024-11-08T19:00:00	7	Dirección del viento	0
59791	7	Sololá	717	San Juan la Laguna	12	San Juan la Laguna	6	Junio	2023-06-14T00:00:00	2024-11-08T19:00:00	1	Precipitación	0
59792	7	Sololá	717	San Juan la Laguna	12	San Juan la Laguna	6	Junio	2023-06-14T00:00:00	2024-11-08T19:00:00	8	Radiación solar	0
59793	7	Sololá	717	San Juan la Laguna	12	San Juan la Laguna	6	Junio	2023-06-14T00:00:00	2024-11-08T20:00:00	2	Temperatura media	20.4
59794	7	Sololá	717	San Juan la Laguna	12	San Juan la Laguna	6	Junio	2023-06-14T00:00:00	2024-11-08T20:00:00	4	Temperatura máxima	21.1
59795	7	Sololá	717	San Juan la Laguna	12	San Juan la Laguna	6	Junio	2023-06-14T00:00:00	2024-11-08T20:00:00	3	Temperatura mínima	20.4
59796	7	Sololá	717	San Juan la Laguna	12	San Juan la Laguna	6	Junio	2023-06-14T00:00:00	2024-11-08T20:00:00	5	Humedad	86
59797	7	Sololá	717	San Juan la Laguna	12	San Juan la Laguna	6	Junio	2023-06-14T00:00:00	2024-11-08T20:00:00	6	Velocidad del viento	0
59798	7	Sololá	717	San Juan la Laguna	12	San Juan la Laguna	6	Junio	2023-06-14T00:00:00	2024-11-08T20:00:00	7	Dirección del viento	0
59799	7	Sololá	717	San Juan la Laguna	12	San Juan la Laguna	6	Junio	2023-06-14T00:00:00	2024-11-08T20:00:00	1	Precipitación	0
59800	7	Sololá	717	San Juan la Laguna	12	San Juan la Laguna	6	Junio	2023-06-14T00:00:00	2024-11-08T20:00:00	8	Radiación solar	0
59801	7	Sololá	717	San Juan la Laguna	12	San Juan la Laguna	6	Junio	2023-06-14T00:00:00	2024-11-08T21:00:00	2	Temperatura media	18.9
59802	7	Sololá	717	San Juan la Laguna	12	San Juan la Laguna	6	Junio	2023-06-14T00:00:00	2024-11-08T21:00:00	4	Temperatura máxima	20.4
59803	7	Sololá	717	San Juan la Laguna	12	San Juan la Laguna	6	Junio	2023-06-14T00:00:00	2024-11-08T21:00:00	3	Temperatura mínima	18.9
59804	7	Sololá	717	San Juan la Laguna	12	San Juan la Laguna	6	Junio	2023-06-14T00:00:00	2024-11-08T21:00:00	5	Humedad	85
59805	7	Sololá	717	San Juan la Laguna	12	San Juan la Laguna	6	Junio	2023-06-14T00:00:00	2024-11-08T21:00:00	6	Velocidad del viento	1.6
59806	7	Sololá	717	San Juan la Laguna	12	San Juan la Laguna	6	Junio	2023-06-14T00:00:00	2024-11-08T21:00:00	7	Dirección del viento	1.61
59807	7	Sololá	717	San Juan la Laguna	12	San Juan la Laguna	6	Junio	2023-06-14T00:00:00	2024-11-08T21:00:00	1	Precipitación	0
59808	7	Sololá	717	San Juan la Laguna	12	San Juan la Laguna	6	Junio	2023-06-14T00:00:00	2024-11-08T21:00:00	8	Radiación solar	0
59809	7	Sololá	717	San Juan la Laguna	12	San Juan la Laguna	6	Junio	2023-06-14T00:00:00	2024-11-08T22:00:00	2	Temperatura media	18.2
59810	7	Sololá	717	San Juan la Laguna	12	San Juan la Laguna	6	Junio	2023-06-14T00:00:00	2024-11-08T22:00:00	4	Temperatura máxima	18.9
59811	7	Sololá	717	San Juan la Laguna	12	San Juan la Laguna	6	Junio	2023-06-14T00:00:00	2024-11-08T22:00:00	3	Temperatura mínima	18.2
59812	7	Sololá	717	San Juan la Laguna	12	San Juan la Laguna	6	Junio	2023-06-14T00:00:00	2024-11-08T22:00:00	5	Humedad	87
59813	7	Sololá	717	San Juan la Laguna	12	San Juan la Laguna	6	Junio	2023-06-14T00:00:00	2024-11-08T22:00:00	6	Velocidad del viento	0
59814	7	Sololá	717	San Juan la Laguna	12	San Juan la Laguna	6	Junio	2023-06-14T00:00:00	2024-11-08T22:00:00	7	Dirección del viento	0
59815	7	Sololá	717	San Juan la Laguna	12	San Juan la Laguna	6	Junio	2023-06-14T00:00:00	2024-11-08T22:00:00	1	Precipitación	0
59816	7	Sololá	717	San Juan la Laguna	12	San Juan la Laguna	6	Junio	2023-06-14T00:00:00	2024-11-08T22:00:00	8	Radiación solar	0
59817	7	Sololá	717	San Juan la Laguna	12	San Juan la Laguna	6	Junio	2023-06-14T00:00:00	2024-11-08T23:00:00	2	Temperatura media	18.7
59818	7	Sololá	717	San Juan la Laguna	12	San Juan la Laguna	6	Junio	2023-06-14T00:00:00	2024-11-08T23:00:00	4	Temperatura máxima	18.8
59819	7	Sololá	717	San Juan la Laguna	12	San Juan la Laguna	6	Junio	2023-06-14T00:00:00	2024-11-08T23:00:00	3	Temperatura mínima	18.2
59820	7	Sololá	717	San Juan la Laguna	12	San Juan la Laguna	6	Junio	2023-06-14T00:00:00	2024-11-08T23:00:00	5	Humedad	87
59821	7	Sololá	717	San Juan la Laguna	12	San Juan la Laguna	6	Junio	2023-06-14T00:00:00	2024-11-08T23:00:00	6	Velocidad del viento	1.6
59822	7	Sololá	717	San Juan la Laguna	12	San Juan la Laguna	6	Junio	2023-06-14T00:00:00	2024-11-08T23:00:00	7	Dirección del viento	1.61
59823	7	Sololá	717	San Juan la Laguna	12	San Juan la Laguna	6	Junio	2023-06-14T00:00:00	2024-11-08T23:00:00	1	Precipitación	0
59824	7	Sololá	717	San Juan la Laguna	12	San Juan la Laguna	6	Junio	2023-06-14T00:00:00	2024-11-08T23:00:00	8	Radiación solar	0
59825	7	Sololá	717	San Juan la Laguna	12	San Juan la Laguna	6	Junio	2023-06-15T00:00:00	2024-11-08T00:00:00	2	Temperatura media	18.3
59826	7	Sololá	717	San Juan la Laguna	12	San Juan la Laguna	6	Junio	2023-06-15T00:00:00	2024-11-08T00:00:00	4	Temperatura máxima	18.6
59827	7	Sololá	717	San Juan la Laguna	12	San Juan la Laguna	6	Junio	2023-06-15T00:00:00	2024-11-08T00:00:00	3	Temperatura mínima	18.1
59828	7	Sololá	717	San Juan la Laguna	12	San Juan la Laguna	6	Junio	2023-06-15T00:00:00	2024-11-08T00:00:00	5	Humedad	87
59829	7	Sololá	717	San Juan la Laguna	12	San Juan la Laguna	6	Junio	2023-06-15T00:00:00	2024-11-08T00:00:00	6	Velocidad del viento	1.6
59830	7	Sololá	717	San Juan la Laguna	12	San Juan la Laguna	6	Junio	2023-06-15T00:00:00	2024-11-08T00:00:00	7	Dirección del viento	1.61
59831	7	Sololá	717	San Juan la Laguna	12	San Juan la Laguna	6	Junio	2023-06-15T00:00:00	2024-11-08T00:00:00	1	Precipitación	0
59832	7	Sololá	717	San Juan la Laguna	12	San Juan la Laguna	6	Junio	2023-06-15T00:00:00	2024-11-08T00:00:00	8	Radiación solar	0
59833	7	Sololá	717	San Juan la Laguna	12	San Juan la Laguna	6	Junio	2023-06-15T00:00:00	2024-11-08T01:00:00	2	Temperatura media	18.1
59834	7	Sololá	717	San Juan la Laguna	12	San Juan la Laguna	6	Junio	2023-06-15T00:00:00	2024-11-08T01:00:00	4	Temperatura máxima	18.3
59835	7	Sololá	717	San Juan la Laguna	12	San Juan la Laguna	6	Junio	2023-06-15T00:00:00	2024-11-08T01:00:00	3	Temperatura mínima	18
59836	7	Sololá	717	San Juan la Laguna	12	San Juan la Laguna	6	Junio	2023-06-15T00:00:00	2024-11-08T01:00:00	5	Humedad	88
59837	7	Sololá	717	San Juan la Laguna	12	San Juan la Laguna	6	Junio	2023-06-15T00:00:00	2024-11-08T01:00:00	6	Velocidad del viento	1.6
59838	7	Sololá	717	San Juan la Laguna	12	San Juan la Laguna	6	Junio	2023-06-15T00:00:00	2024-11-08T01:00:00	7	Dirección del viento	1.61
59839	7	Sololá	717	San Juan la Laguna	12	San Juan la Laguna	6	Junio	2023-06-15T00:00:00	2024-11-08T01:00:00	1	Precipitación	0
59840	7	Sololá	717	San Juan la Laguna	12	San Juan la Laguna	6	Junio	2023-06-15T00:00:00	2024-11-08T01:00:00	8	Radiación solar	0
59841	7	Sololá	717	San Juan la Laguna	12	San Juan la Laguna	6	Junio	2023-06-15T00:00:00	2024-11-08T02:00:00	2	Temperatura media	17.6
59842	7	Sololá	717	San Juan la Laguna	12	San Juan la Laguna	6	Junio	2023-06-15T00:00:00	2024-11-08T02:00:00	4	Temperatura máxima	18.1
59843	7	Sololá	717	San Juan la Laguna	12	San Juan la Laguna	6	Junio	2023-06-15T00:00:00	2024-11-08T02:00:00	3	Temperatura mínima	17.5
59844	7	Sololá	717	San Juan la Laguna	12	San Juan la Laguna	6	Junio	2023-06-15T00:00:00	2024-11-08T02:00:00	5	Humedad	90
59845	7	Sololá	717	San Juan la Laguna	12	San Juan la Laguna	6	Junio	2023-06-15T00:00:00	2024-11-08T02:00:00	6	Velocidad del viento	0
59846	7	Sololá	717	San Juan la Laguna	12	San Juan la Laguna	6	Junio	2023-06-15T00:00:00	2024-11-08T02:00:00	7	Dirección del viento	0
59847	7	Sololá	717	San Juan la Laguna	12	San Juan la Laguna	6	Junio	2023-06-15T00:00:00	2024-11-08T02:00:00	1	Precipitación	0
59848	7	Sololá	717	San Juan la Laguna	12	San Juan la Laguna	6	Junio	2023-06-15T00:00:00	2024-11-08T02:00:00	8	Radiación solar	0
59849	7	Sololá	717	San Juan la Laguna	12	San Juan la Laguna	6	Junio	2023-06-15T00:00:00	2024-11-08T03:00:00	2	Temperatura media	18.3
59850	7	Sololá	717	San Juan la Laguna	12	San Juan la Laguna	6	Junio	2023-06-15T00:00:00	2024-11-08T03:00:00	4	Temperatura máxima	18.3
59851	7	Sololá	717	San Juan la Laguna	12	San Juan la Laguna	6	Junio	2023-06-15T00:00:00	2024-11-08T03:00:00	3	Temperatura mínima	17.5
59852	7	Sololá	717	San Juan la Laguna	12	San Juan la Laguna	6	Junio	2023-06-15T00:00:00	2024-11-08T03:00:00	5	Humedad	88
59853	7	Sololá	717	San Juan la Laguna	12	San Juan la Laguna	6	Junio	2023-06-15T00:00:00	2024-11-08T03:00:00	6	Velocidad del viento	0
59854	7	Sololá	717	San Juan la Laguna	12	San Juan la Laguna	6	Junio	2023-06-15T00:00:00	2024-11-08T03:00:00	7	Dirección del viento	0
59855	7	Sololá	717	San Juan la Laguna	12	San Juan la Laguna	6	Junio	2023-06-15T00:00:00	2024-11-08T03:00:00	1	Precipitación	0
59856	7	Sololá	717	San Juan la Laguna	12	San Juan la Laguna	6	Junio	2023-06-15T00:00:00	2024-11-08T03:00:00	8	Radiación solar	0
59857	7	Sololá	717	San Juan la Laguna	12	San Juan la Laguna	6	Junio	2023-06-15T00:00:00	2024-11-08T04:00:00	2	Temperatura media	18.3
59858	7	Sololá	717	San Juan la Laguna	12	San Juan la Laguna	6	Junio	2023-06-15T00:00:00	2024-11-08T04:00:00	4	Temperatura máxima	18.4
59859	7	Sololá	717	San Juan la Laguna	12	San Juan la Laguna	6	Junio	2023-06-15T00:00:00	2024-11-08T04:00:00	3	Temperatura mínima	18.2
59860	7	Sololá	717	San Juan la Laguna	12	San Juan la Laguna	6	Junio	2023-06-15T00:00:00	2024-11-08T04:00:00	5	Humedad	86
59861	7	Sololá	717	San Juan la Laguna	12	San Juan la Laguna	6	Junio	2023-06-15T00:00:00	2024-11-08T04:00:00	6	Velocidad del viento	1.6
59862	7	Sololá	717	San Juan la Laguna	12	San Juan la Laguna	6	Junio	2023-06-15T00:00:00	2024-11-08T04:00:00	7	Dirección del viento	1.61
59863	7	Sololá	717	San Juan la Laguna	12	San Juan la Laguna	6	Junio	2023-06-15T00:00:00	2024-11-08T04:00:00	1	Precipitación	0
59864	7	Sololá	717	San Juan la Laguna	12	San Juan la Laguna	6	Junio	2023-06-15T00:00:00	2024-11-08T04:00:00	8	Radiación solar	0
59865	7	Sololá	717	San Juan la Laguna	12	San Juan la Laguna	6	Junio	2023-06-15T00:00:00	2024-11-08T05:00:00	2	Temperatura media	17.8
59866	7	Sololá	717	San Juan la Laguna	12	San Juan la Laguna	6	Junio	2023-06-15T00:00:00	2024-11-08T05:00:00	4	Temperatura máxima	18.3
59867	7	Sololá	717	San Juan la Laguna	12	San Juan la Laguna	6	Junio	2023-06-15T00:00:00	2024-11-08T05:00:00	3	Temperatura mínima	17.8
59868	7	Sololá	717	San Juan la Laguna	12	San Juan la Laguna	6	Junio	2023-06-15T00:00:00	2024-11-08T05:00:00	5	Humedad	88
59869	7	Sololá	717	San Juan la Laguna	12	San Juan la Laguna	6	Junio	2023-06-15T00:00:00	2024-11-08T05:00:00	6	Velocidad del viento	1.6
59870	7	Sololá	717	San Juan la Laguna	12	San Juan la Laguna	6	Junio	2023-06-15T00:00:00	2024-11-08T05:00:00	7	Dirección del viento	1.61
59871	7	Sololá	717	San Juan la Laguna	12	San Juan la Laguna	6	Junio	2023-06-15T00:00:00	2024-11-08T05:00:00	1	Precipitación	0
59872	7	Sololá	717	San Juan la Laguna	12	San Juan la Laguna	6	Junio	2023-06-15T00:00:00	2024-11-08T05:00:00	8	Radiación solar	0
59873	7	Sololá	717	San Juan la Laguna	12	San Juan la Laguna	6	Junio	2023-06-15T00:00:00	2024-11-08T06:00:00	2	Temperatura media	17.8
59874	7	Sololá	717	San Juan la Laguna	12	San Juan la Laguna	6	Junio	2023-06-15T00:00:00	2024-11-08T06:00:00	4	Temperatura máxima	17.8
59875	7	Sololá	717	San Juan la Laguna	12	San Juan la Laguna	6	Junio	2023-06-15T00:00:00	2024-11-08T06:00:00	3	Temperatura mínima	17.7
59876	7	Sololá	717	San Juan la Laguna	12	San Juan la Laguna	6	Junio	2023-06-15T00:00:00	2024-11-08T06:00:00	5	Humedad	89
59877	7	Sololá	717	San Juan la Laguna	12	San Juan la Laguna	6	Junio	2023-06-15T00:00:00	2024-11-08T06:00:00	6	Velocidad del viento	0
59878	7	Sololá	717	San Juan la Laguna	12	San Juan la Laguna	6	Junio	2023-06-15T00:00:00	2024-11-08T06:00:00	7	Dirección del viento	0
59879	7	Sololá	717	San Juan la Laguna	12	San Juan la Laguna	6	Junio	2023-06-15T00:00:00	2024-11-08T06:00:00	1	Precipitación	0
59880	7	Sololá	717	San Juan la Laguna	12	San Juan la Laguna	6	Junio	2023-06-15T00:00:00	2024-11-08T06:00:00	8	Radiación solar	7
59881	7	Sololá	717	San Juan la Laguna	12	San Juan la Laguna	6	Junio	2023-06-15T00:00:00	2024-11-08T07:00:00	2	Temperatura media	19.4
59882	7	Sololá	717	San Juan la Laguna	12	San Juan la Laguna	6	Junio	2023-06-15T00:00:00	2024-11-08T07:00:00	4	Temperatura máxima	19.4
59883	7	Sololá	717	San Juan la Laguna	12	San Juan la Laguna	6	Junio	2023-06-15T00:00:00	2024-11-08T07:00:00	3	Temperatura mínima	17.8
59884	7	Sololá	717	San Juan la Laguna	12	San Juan la Laguna	6	Junio	2023-06-15T00:00:00	2024-11-08T07:00:00	5	Humedad	83
59885	7	Sololá	717	San Juan la Laguna	12	San Juan la Laguna	6	Junio	2023-06-15T00:00:00	2024-11-08T07:00:00	6	Velocidad del viento	3.2
59886	7	Sololá	717	San Juan la Laguna	12	San Juan la Laguna	6	Junio	2023-06-15T00:00:00	2024-11-08T07:00:00	7	Dirección del viento	3.22
59887	7	Sololá	717	San Juan la Laguna	12	San Juan la Laguna	6	Junio	2023-06-15T00:00:00	2024-11-08T07:00:00	1	Precipitación	0
59888	7	Sololá	717	San Juan la Laguna	12	San Juan la Laguna	6	Junio	2023-06-15T00:00:00	2024-11-08T07:00:00	8	Radiación solar	100
59889	7	Sololá	717	San Juan la Laguna	12	San Juan la Laguna	6	Junio	2023-06-15T00:00:00	2024-11-08T08:00:00	2	Temperatura media	21.4
59890	7	Sololá	717	San Juan la Laguna	12	San Juan la Laguna	6	Junio	2023-06-15T00:00:00	2024-11-08T08:00:00	4	Temperatura máxima	21.6
59891	7	Sololá	717	San Juan la Laguna	12	San Juan la Laguna	6	Junio	2023-06-15T00:00:00	2024-11-08T08:00:00	3	Temperatura mínima	19.4
59892	7	Sololá	717	San Juan la Laguna	12	San Juan la Laguna	6	Junio	2023-06-15T00:00:00	2024-11-08T08:00:00	5	Humedad	76
59893	7	Sololá	717	San Juan la Laguna	12	San Juan la Laguna	6	Junio	2023-06-15T00:00:00	2024-11-08T08:00:00	6	Velocidad del viento	3.2
59894	7	Sololá	717	San Juan la Laguna	12	San Juan la Laguna	6	Junio	2023-06-15T00:00:00	2024-11-08T08:00:00	7	Dirección del viento	3.22
59895	7	Sololá	717	San Juan la Laguna	12	San Juan la Laguna	6	Junio	2023-06-15T00:00:00	2024-11-08T08:00:00	1	Precipitación	0
59896	7	Sololá	717	San Juan la Laguna	12	San Juan la Laguna	6	Junio	2023-06-15T00:00:00	2024-11-08T08:00:00	8	Radiación solar	319
59897	7	Sololá	717	San Juan la Laguna	12	San Juan la Laguna	6	Junio	2023-06-15T00:00:00	2024-11-08T09:00:00	2	Temperatura media	22.7
59898	7	Sololá	717	San Juan la Laguna	12	San Juan la Laguna	6	Junio	2023-06-15T00:00:00	2024-11-08T09:00:00	4	Temperatura máxima	22.7
59899	7	Sololá	717	San Juan la Laguna	12	San Juan la Laguna	6	Junio	2023-06-15T00:00:00	2024-11-08T09:00:00	3	Temperatura mínima	21.4
59900	7	Sololá	717	San Juan la Laguna	12	San Juan la Laguna	6	Junio	2023-06-15T00:00:00	2024-11-08T09:00:00	5	Humedad	74
59901	7	Sololá	717	San Juan la Laguna	12	San Juan la Laguna	6	Junio	2023-06-15T00:00:00	2024-11-08T09:00:00	6	Velocidad del viento	6.4
59902	7	Sololá	717	San Juan la Laguna	12	San Juan la Laguna	6	Junio	2023-06-15T00:00:00	2024-11-08T09:00:00	7	Dirección del viento	6.44
59903	7	Sololá	717	San Juan la Laguna	12	San Juan la Laguna	6	Junio	2023-06-15T00:00:00	2024-11-08T09:00:00	1	Precipitación	0
59904	7	Sololá	717	San Juan la Laguna	12	San Juan la Laguna	6	Junio	2023-06-15T00:00:00	2024-11-08T09:00:00	8	Radiación solar	535
59905	7	Sololá	717	San Juan la Laguna	12	San Juan la Laguna	6	Junio	2023-06-15T00:00:00	2024-11-08T10:00:00	2	Temperatura media	24.3
59906	7	Sololá	717	San Juan la Laguna	12	San Juan la Laguna	6	Junio	2023-06-15T00:00:00	2024-11-08T10:00:00	4	Temperatura máxima	24.3
59907	7	Sololá	717	San Juan la Laguna	12	San Juan la Laguna	6	Junio	2023-06-15T00:00:00	2024-11-08T10:00:00	3	Temperatura mínima	22.7
59908	7	Sololá	717	San Juan la Laguna	12	San Juan la Laguna	6	Junio	2023-06-15T00:00:00	2024-11-08T10:00:00	5	Humedad	62
59909	7	Sololá	717	San Juan la Laguna	12	San Juan la Laguna	6	Junio	2023-06-15T00:00:00	2024-11-08T10:00:00	6	Velocidad del viento	4.8
59910	7	Sololá	717	San Juan la Laguna	12	San Juan la Laguna	6	Junio	2023-06-15T00:00:00	2024-11-08T10:00:00	7	Dirección del viento	4.83
59911	7	Sololá	717	San Juan la Laguna	12	San Juan la Laguna	6	Junio	2023-06-15T00:00:00	2024-11-08T10:00:00	1	Precipitación	0
59912	7	Sololá	717	San Juan la Laguna	12	San Juan la Laguna	6	Junio	2023-06-15T00:00:00	2024-11-08T10:00:00	8	Radiación solar	714
59913	7	Sololá	717	San Juan la Laguna	12	San Juan la Laguna	6	Junio	2023-06-15T00:00:00	2024-11-08T11:00:00	2	Temperatura media	24.2
59914	7	Sololá	717	San Juan la Laguna	12	San Juan la Laguna	6	Junio	2023-06-15T00:00:00	2024-11-08T11:00:00	4	Temperatura máxima	25.1
59915	7	Sololá	717	San Juan la Laguna	12	San Juan la Laguna	6	Junio	2023-06-15T00:00:00	2024-11-08T11:00:00	3	Temperatura mínima	23.9
59916	7	Sololá	717	San Juan la Laguna	12	San Juan la Laguna	6	Junio	2023-06-15T00:00:00	2024-11-08T11:00:00	5	Humedad	69
59917	7	Sololá	717	San Juan la Laguna	12	San Juan la Laguna	6	Junio	2023-06-15T00:00:00	2024-11-08T11:00:00	6	Velocidad del viento	8
59918	7	Sololá	717	San Juan la Laguna	12	San Juan la Laguna	6	Junio	2023-06-15T00:00:00	2024-11-08T11:00:00	7	Dirección del viento	8.05
59919	7	Sololá	717	San Juan la Laguna	12	San Juan la Laguna	6	Junio	2023-06-15T00:00:00	2024-11-08T11:00:00	1	Precipitación	0
59920	7	Sololá	717	San Juan la Laguna	12	San Juan la Laguna	6	Junio	2023-06-15T00:00:00	2024-11-08T11:00:00	8	Radiación solar	847
59921	7	Sololá	717	San Juan la Laguna	12	San Juan la Laguna	6	Junio	2023-06-15T00:00:00	2024-11-08T12:00:00	2	Temperatura media	24.3
59922	7	Sololá	717	San Juan la Laguna	12	San Juan la Laguna	6	Junio	2023-06-15T00:00:00	2024-11-08T12:00:00	4	Temperatura máxima	24.7
59923	7	Sololá	717	San Juan la Laguna	12	San Juan la Laguna	6	Junio	2023-06-15T00:00:00	2024-11-08T12:00:00	3	Temperatura mínima	24.2
59924	7	Sololá	717	San Juan la Laguna	12	San Juan la Laguna	6	Junio	2023-06-15T00:00:00	2024-11-08T12:00:00	5	Humedad	71
59925	7	Sololá	717	San Juan la Laguna	12	San Juan la Laguna	6	Junio	2023-06-15T00:00:00	2024-11-08T12:00:00	6	Velocidad del viento	9.7
59926	7	Sololá	717	San Juan la Laguna	12	San Juan la Laguna	6	Junio	2023-06-15T00:00:00	2024-11-08T12:00:00	7	Dirección del viento	9.66
59927	7	Sololá	717	San Juan la Laguna	12	San Juan la Laguna	6	Junio	2023-06-15T00:00:00	2024-11-08T12:00:00	1	Precipitación	0
59928	7	Sololá	717	San Juan la Laguna	12	San Juan la Laguna	6	Junio	2023-06-15T00:00:00	2024-11-08T12:00:00	8	Radiación solar	970
59929	7	Sololá	717	San Juan la Laguna	12	San Juan la Laguna	6	Junio	2023-06-15T00:00:00	2024-11-08T13:00:00	2	Temperatura media	24.8
59930	7	Sololá	717	San Juan la Laguna	12	San Juan la Laguna	6	Junio	2023-06-15T00:00:00	2024-11-08T13:00:00	4	Temperatura máxima	24.9
59931	7	Sololá	717	San Juan la Laguna	12	San Juan la Laguna	6	Junio	2023-06-15T00:00:00	2024-11-08T13:00:00	3	Temperatura mínima	24.3
59932	7	Sololá	717	San Juan la Laguna	12	San Juan la Laguna	6	Junio	2023-06-15T00:00:00	2024-11-08T13:00:00	5	Humedad	70
59933	7	Sololá	717	San Juan la Laguna	12	San Juan la Laguna	6	Junio	2023-06-15T00:00:00	2024-11-08T13:00:00	6	Velocidad del viento	9.7
59934	7	Sololá	717	San Juan la Laguna	12	San Juan la Laguna	6	Junio	2023-06-15T00:00:00	2024-11-08T13:00:00	7	Dirección del viento	9.66
59935	7	Sololá	717	San Juan la Laguna	12	San Juan la Laguna	6	Junio	2023-06-15T00:00:00	2024-11-08T13:00:00	1	Precipitación	0
59936	7	Sololá	717	San Juan la Laguna	12	San Juan la Laguna	6	Junio	2023-06-15T00:00:00	2024-11-08T13:00:00	8	Radiación solar	947
59937	7	Sololá	717	San Juan la Laguna	12	San Juan la Laguna	6	Junio	2023-06-15T00:00:00	2024-11-08T14:00:00	2	Temperatura media	24.4
59938	7	Sololá	717	San Juan la Laguna	12	San Juan la Laguna	6	Junio	2023-06-15T00:00:00	2024-11-08T14:00:00	4	Temperatura máxima	24.9
59939	7	Sololá	717	San Juan la Laguna	12	San Juan la Laguna	6	Junio	2023-06-15T00:00:00	2024-11-08T14:00:00	3	Temperatura mínima	23.4
59940	7	Sololá	717	San Juan la Laguna	12	San Juan la Laguna	6	Junio	2023-06-15T00:00:00	2024-11-08T14:00:00	5	Humedad	71
59941	7	Sololá	717	San Juan la Laguna	12	San Juan la Laguna	6	Junio	2023-06-15T00:00:00	2024-11-08T14:00:00	6	Velocidad del viento	8
59942	7	Sololá	717	San Juan la Laguna	12	San Juan la Laguna	6	Junio	2023-06-15T00:00:00	2024-11-08T14:00:00	7	Dirección del viento	8.05
59943	7	Sololá	717	San Juan la Laguna	12	San Juan la Laguna	6	Junio	2023-06-15T00:00:00	2024-11-08T14:00:00	1	Precipitación	0
59944	7	Sololá	717	San Juan la Laguna	12	San Juan la Laguna	6	Junio	2023-06-15T00:00:00	2024-11-08T14:00:00	8	Radiación solar	636
59945	7	Sololá	717	San Juan la Laguna	12	San Juan la Laguna	6	Junio	2023-06-15T00:00:00	2024-11-08T15:00:00	2	Temperatura media	24.4
59946	7	Sololá	717	San Juan la Laguna	12	San Juan la Laguna	6	Junio	2023-06-15T00:00:00	2024-11-08T15:00:00	4	Temperatura máxima	24.6
59947	7	Sololá	717	San Juan la Laguna	12	San Juan la Laguna	6	Junio	2023-06-15T00:00:00	2024-11-08T15:00:00	3	Temperatura mínima	23.8
59948	7	Sololá	717	San Juan la Laguna	12	San Juan la Laguna	6	Junio	2023-06-15T00:00:00	2024-11-08T15:00:00	5	Humedad	72
59949	7	Sololá	717	San Juan la Laguna	12	San Juan la Laguna	6	Junio	2023-06-15T00:00:00	2024-11-08T15:00:00	6	Velocidad del viento	8
59950	7	Sololá	717	San Juan la Laguna	12	San Juan la Laguna	6	Junio	2023-06-15T00:00:00	2024-11-08T15:00:00	7	Dirección del viento	8.05
59951	7	Sololá	717	San Juan la Laguna	12	San Juan la Laguna	6	Junio	2023-06-15T00:00:00	2024-11-08T15:00:00	1	Precipitación	0
59952	7	Sololá	717	San Juan la Laguna	12	San Juan la Laguna	6	Junio	2023-06-15T00:00:00	2024-11-08T15:00:00	8	Radiación solar	623
59953	7	Sololá	717	San Juan la Laguna	12	San Juan la Laguna	6	Junio	2023-06-15T00:00:00	2024-11-08T16:00:00	2	Temperatura media	23.7
59954	7	Sololá	717	San Juan la Laguna	12	San Juan la Laguna	6	Junio	2023-06-15T00:00:00	2024-11-08T16:00:00	4	Temperatura máxima	24.6
59955	7	Sololá	717	San Juan la Laguna	12	San Juan la Laguna	6	Junio	2023-06-15T00:00:00	2024-11-08T16:00:00	3	Temperatura mínima	23.5
59956	7	Sololá	717	San Juan la Laguna	12	San Juan la Laguna	6	Junio	2023-06-15T00:00:00	2024-11-08T16:00:00	5	Humedad	76
59957	7	Sololá	717	San Juan la Laguna	12	San Juan la Laguna	6	Junio	2023-06-15T00:00:00	2024-11-08T16:00:00	6	Velocidad del viento	8
59958	7	Sololá	717	San Juan la Laguna	12	San Juan la Laguna	6	Junio	2023-06-15T00:00:00	2024-11-08T16:00:00	7	Dirección del viento	8.05
59959	7	Sololá	717	San Juan la Laguna	12	San Juan la Laguna	6	Junio	2023-06-15T00:00:00	2024-11-08T16:00:00	1	Precipitación	0
59960	7	Sololá	717	San Juan la Laguna	12	San Juan la Laguna	6	Junio	2023-06-15T00:00:00	2024-11-08T16:00:00	8	Radiación solar	433
59961	7	Sololá	717	San Juan la Laguna	12	San Juan la Laguna	6	Junio	2023-06-15T00:00:00	2024-11-08T17:00:00	2	Temperatura media	22.6
59962	7	Sololá	717	San Juan la Laguna	12	San Juan la Laguna	6	Junio	2023-06-15T00:00:00	2024-11-08T17:00:00	4	Temperatura máxima	23.7
59963	7	Sololá	717	San Juan la Laguna	12	San Juan la Laguna	6	Junio	2023-06-15T00:00:00	2024-11-08T17:00:00	3	Temperatura mínima	22.6
59964	7	Sololá	717	San Juan la Laguna	12	San Juan la Laguna	6	Junio	2023-06-15T00:00:00	2024-11-08T17:00:00	5	Humedad	80
59965	7	Sololá	717	San Juan la Laguna	12	San Juan la Laguna	6	Junio	2023-06-15T00:00:00	2024-11-08T17:00:00	6	Velocidad del viento	6.4
59966	7	Sololá	717	San Juan la Laguna	12	San Juan la Laguna	6	Junio	2023-06-15T00:00:00	2024-11-08T17:00:00	7	Dirección del viento	6.44
59967	7	Sololá	717	San Juan la Laguna	12	San Juan la Laguna	6	Junio	2023-06-15T00:00:00	2024-11-08T17:00:00	1	Precipitación	0
59968	7	Sololá	717	San Juan la Laguna	12	San Juan la Laguna	6	Junio	2023-06-15T00:00:00	2024-11-08T17:00:00	8	Radiación solar	103
59969	7	Sololá	717	San Juan la Laguna	12	San Juan la Laguna	6	Junio	2023-06-15T00:00:00	2024-11-08T18:00:00	2	Temperatura media	20.8
59970	7	Sololá	717	San Juan la Laguna	12	San Juan la Laguna	6	Junio	2023-06-15T00:00:00	2024-11-08T18:00:00	4	Temperatura máxima	22.6
59971	7	Sololá	717	San Juan la Laguna	12	San Juan la Laguna	6	Junio	2023-06-15T00:00:00	2024-11-08T18:00:00	3	Temperatura mínima	20.8
59972	7	Sololá	717	San Juan la Laguna	12	San Juan la Laguna	6	Junio	2023-06-15T00:00:00	2024-11-08T18:00:00	5	Humedad	86
59973	7	Sololá	717	San Juan la Laguna	12	San Juan la Laguna	6	Junio	2023-06-15T00:00:00	2024-11-08T18:00:00	6	Velocidad del viento	3.2
59974	7	Sololá	717	San Juan la Laguna	12	San Juan la Laguna	6	Junio	2023-06-15T00:00:00	2024-11-08T18:00:00	7	Dirección del viento	3.22
59975	7	Sololá	717	San Juan la Laguna	12	San Juan la Laguna	6	Junio	2023-06-15T00:00:00	2024-11-08T18:00:00	1	Precipitación	0
59976	7	Sololá	717	San Juan la Laguna	12	San Juan la Laguna	6	Junio	2023-06-15T00:00:00	2024-11-08T18:00:00	8	Radiación solar	47
59977	7	Sololá	717	San Juan la Laguna	12	San Juan la Laguna	6	Junio	2023-06-15T00:00:00	2024-11-08T19:00:00	2	Temperatura media	20.6
59978	7	Sololá	717	San Juan la Laguna	12	San Juan la Laguna	6	Junio	2023-06-15T00:00:00	2024-11-08T19:00:00	4	Temperatura máxima	20.7
59979	7	Sololá	717	San Juan la Laguna	12	San Juan la Laguna	6	Junio	2023-06-15T00:00:00	2024-11-08T19:00:00	3	Temperatura mínima	20.2
59980	7	Sololá	717	San Juan la Laguna	12	San Juan la Laguna	6	Junio	2023-06-15T00:00:00	2024-11-08T19:00:00	5	Humedad	83
59981	7	Sololá	717	San Juan la Laguna	12	San Juan la Laguna	6	Junio	2023-06-15T00:00:00	2024-11-08T19:00:00	6	Velocidad del viento	6.4
59982	7	Sololá	717	San Juan la Laguna	12	San Juan la Laguna	6	Junio	2023-06-15T00:00:00	2024-11-08T19:00:00	7	Dirección del viento	6.44
59983	7	Sololá	717	San Juan la Laguna	12	San Juan la Laguna	6	Junio	2023-06-15T00:00:00	2024-11-08T19:00:00	1	Precipitación	0
59984	7	Sololá	717	San Juan la Laguna	12	San Juan la Laguna	6	Junio	2023-06-15T00:00:00	2024-11-08T19:00:00	8	Radiación solar	0
59985	7	Sololá	717	San Juan la Laguna	12	San Juan la Laguna	6	Junio	2023-06-15T00:00:00	2024-11-08T20:00:00	2	Temperatura media	20.7
59986	7	Sololá	717	San Juan la Laguna	12	San Juan la Laguna	6	Junio	2023-06-15T00:00:00	2024-11-08T20:00:00	4	Temperatura máxima	20.9
59987	7	Sololá	717	San Juan la Laguna	12	San Juan la Laguna	6	Junio	2023-06-15T00:00:00	2024-11-08T20:00:00	3	Temperatura mínima	20.6
59988	7	Sololá	717	San Juan la Laguna	12	San Juan la Laguna	6	Junio	2023-06-15T00:00:00	2024-11-08T20:00:00	5	Humedad	83
59989	7	Sololá	717	San Juan la Laguna	12	San Juan la Laguna	6	Junio	2023-06-15T00:00:00	2024-11-08T20:00:00	6	Velocidad del viento	3.2
59990	7	Sololá	717	San Juan la Laguna	12	San Juan la Laguna	6	Junio	2023-06-15T00:00:00	2024-11-08T20:00:00	7	Dirección del viento	3.22
59991	7	Sololá	717	San Juan la Laguna	12	San Juan la Laguna	6	Junio	2023-06-15T00:00:00	2024-11-08T20:00:00	1	Precipitación	0
59992	7	Sololá	717	San Juan la Laguna	12	San Juan la Laguna	6	Junio	2023-06-15T00:00:00	2024-11-08T20:00:00	8	Radiación solar	0
59993	7	Sololá	717	San Juan la Laguna	12	San Juan la Laguna	6	Junio	2023-06-15T00:00:00	2024-11-08T21:00:00	2	Temperatura media	20.3
59994	7	Sololá	717	San Juan la Laguna	12	San Juan la Laguna	6	Junio	2023-06-15T00:00:00	2024-11-08T21:00:00	4	Temperatura máxima	20.8
59995	7	Sololá	717	San Juan la Laguna	12	San Juan la Laguna	6	Junio	2023-06-15T00:00:00	2024-11-08T21:00:00	3	Temperatura mínima	20.3
59996	7	Sololá	717	San Juan la Laguna	12	San Juan la Laguna	6	Junio	2023-06-15T00:00:00	2024-11-08T21:00:00	5	Humedad	90
59997	7	Sololá	717	San Juan la Laguna	12	San Juan la Laguna	6	Junio	2023-06-15T00:00:00	2024-11-08T21:00:00	6	Velocidad del viento	1.6
59998	7	Sololá	717	San Juan la Laguna	12	San Juan la Laguna	6	Junio	2023-06-15T00:00:00	2024-11-08T21:00:00	7	Dirección del viento	1.61
59999	7	Sololá	717	San Juan la Laguna	12	San Juan la Laguna	6	Junio	2023-06-15T00:00:00	2024-11-08T21:00:00	1	Precipitación	0
60000	7	Sololá	717	San Juan la Laguna	12	San Juan la Laguna	6	Junio	2023-06-15T00:00:00	2024-11-08T21:00:00	8	Radiación solar	0
60001	7	Sololá	717	San Juan la Laguna	12	San Juan la Laguna	6	Junio	2023-06-15T00:00:00	2024-11-08T22:00:00	2	Temperatura media	19.7
60002	7	Sololá	717	San Juan la Laguna	12	San Juan la Laguna	6	Junio	2023-06-15T00:00:00	2024-11-08T22:00:00	4	Temperatura máxima	20.3
60003	7	Sololá	717	San Juan la Laguna	12	San Juan la Laguna	6	Junio	2023-06-15T00:00:00	2024-11-08T22:00:00	3	Temperatura mínima	19.7
60004	7	Sololá	717	San Juan la Laguna	12	San Juan la Laguna	6	Junio	2023-06-15T00:00:00	2024-11-08T22:00:00	5	Humedad	92
60005	7	Sololá	717	San Juan la Laguna	12	San Juan la Laguna	6	Junio	2023-06-15T00:00:00	2024-11-08T22:00:00	6	Velocidad del viento	3.2
60006	7	Sololá	717	San Juan la Laguna	12	San Juan la Laguna	6	Junio	2023-06-15T00:00:00	2024-11-08T22:00:00	7	Dirección del viento	3.22
60007	7	Sololá	717	San Juan la Laguna	12	San Juan la Laguna	6	Junio	2023-06-15T00:00:00	2024-11-08T22:00:00	1	Precipitación	1
60008	7	Sololá	717	San Juan la Laguna	12	San Juan la Laguna	6	Junio	2023-06-15T00:00:00	2024-11-08T22:00:00	8	Radiación solar	0
60009	7	Sololá	717	San Juan la Laguna	12	San Juan la Laguna	6	Junio	2023-06-15T00:00:00	2024-11-08T23:00:00	2	Temperatura media	19
60010	7	Sololá	717	San Juan la Laguna	12	San Juan la Laguna	6	Junio	2023-06-15T00:00:00	2024-11-08T23:00:00	4	Temperatura máxima	19.7
60011	7	Sololá	717	San Juan la Laguna	12	San Juan la Laguna	6	Junio	2023-06-15T00:00:00	2024-11-08T23:00:00	3	Temperatura mínima	18.9
60012	7	Sololá	717	San Juan la Laguna	12	San Juan la Laguna	6	Junio	2023-06-15T00:00:00	2024-11-08T23:00:00	5	Humedad	92
60013	7	Sololá	717	San Juan la Laguna	12	San Juan la Laguna	6	Junio	2023-06-15T00:00:00	2024-11-08T23:00:00	6	Velocidad del viento	1.6
60014	7	Sololá	717	San Juan la Laguna	12	San Juan la Laguna	6	Junio	2023-06-15T00:00:00	2024-11-08T23:00:00	7	Dirección del viento	1.61
60015	7	Sololá	717	San Juan la Laguna	12	San Juan la Laguna	6	Junio	2023-06-15T00:00:00	2024-11-08T23:00:00	1	Precipitación	0
60016	7	Sololá	717	San Juan la Laguna	12	San Juan la Laguna	6	Junio	2023-06-15T00:00:00	2024-11-08T23:00:00	8	Radiación solar	0
60017	7	Sololá	717	San Juan la Laguna	12	San Juan la Laguna	6	Junio	2023-06-16T00:00:00	2024-11-08T00:00:00	2	Temperatura media	18.4
60018	7	Sololá	717	San Juan la Laguna	12	San Juan la Laguna	6	Junio	2023-06-16T00:00:00	2024-11-08T00:00:00	4	Temperatura máxima	19.1
60019	7	Sololá	717	San Juan la Laguna	12	San Juan la Laguna	6	Junio	2023-06-16T00:00:00	2024-11-08T00:00:00	3	Temperatura mínima	18.4
60020	7	Sololá	717	San Juan la Laguna	12	San Juan la Laguna	6	Junio	2023-06-16T00:00:00	2024-11-08T00:00:00	5	Humedad	91
60021	7	Sololá	717	San Juan la Laguna	12	San Juan la Laguna	6	Junio	2023-06-16T00:00:00	2024-11-08T00:00:00	6	Velocidad del viento	1.6
60022	7	Sololá	717	San Juan la Laguna	12	San Juan la Laguna	6	Junio	2023-06-16T00:00:00	2024-11-08T00:00:00	7	Dirección del viento	1.61
60023	7	Sololá	717	San Juan la Laguna	12	San Juan la Laguna	6	Junio	2023-06-16T00:00:00	2024-11-08T00:00:00	1	Precipitación	0.2
60024	7	Sololá	717	San Juan la Laguna	12	San Juan la Laguna	6	Junio	2023-06-16T00:00:00	2024-11-08T00:00:00	8	Radiación solar	0
60025	7	Sololá	717	San Juan la Laguna	12	San Juan la Laguna	6	Junio	2023-06-16T00:00:00	2024-11-08T01:00:00	2	Temperatura media	18.4
60026	7	Sololá	717	San Juan la Laguna	12	San Juan la Laguna	6	Junio	2023-06-16T00:00:00	2024-11-08T01:00:00	4	Temperatura máxima	18.6
60027	7	Sololá	717	San Juan la Laguna	12	San Juan la Laguna	6	Junio	2023-06-16T00:00:00	2024-11-08T01:00:00	3	Temperatura mínima	18.1
60028	7	Sololá	717	San Juan la Laguna	12	San Juan la Laguna	6	Junio	2023-06-16T00:00:00	2024-11-08T01:00:00	5	Humedad	92
60029	7	Sololá	717	San Juan la Laguna	12	San Juan la Laguna	6	Junio	2023-06-16T00:00:00	2024-11-08T01:00:00	6	Velocidad del viento	1.6
60030	7	Sololá	717	San Juan la Laguna	12	San Juan la Laguna	6	Junio	2023-06-16T00:00:00	2024-11-08T01:00:00	7	Dirección del viento	1.61
60031	7	Sololá	717	San Juan la Laguna	12	San Juan la Laguna	6	Junio	2023-06-16T00:00:00	2024-11-08T01:00:00	1	Precipitación	0
60032	7	Sololá	717	San Juan la Laguna	12	San Juan la Laguna	6	Junio	2023-06-16T00:00:00	2024-11-08T01:00:00	8	Radiación solar	0
60033	7	Sololá	717	San Juan la Laguna	12	San Juan la Laguna	6	Junio	2023-06-16T00:00:00	2024-11-08T02:00:00	2	Temperatura media	18.3
60034	7	Sololá	717	San Juan la Laguna	12	San Juan la Laguna	6	Junio	2023-06-16T00:00:00	2024-11-08T02:00:00	4	Temperatura máxima	18.5
60035	7	Sololá	717	San Juan la Laguna	12	San Juan la Laguna	6	Junio	2023-06-16T00:00:00	2024-11-08T02:00:00	3	Temperatura mínima	18.2
60036	7	Sololá	717	San Juan la Laguna	12	San Juan la Laguna	6	Junio	2023-06-16T00:00:00	2024-11-08T02:00:00	5	Humedad	90
60037	7	Sololá	717	San Juan la Laguna	12	San Juan la Laguna	6	Junio	2023-06-16T00:00:00	2024-11-08T02:00:00	6	Velocidad del viento	1.6
60038	7	Sololá	717	San Juan la Laguna	12	San Juan la Laguna	6	Junio	2023-06-16T00:00:00	2024-11-08T02:00:00	7	Dirección del viento	1.61
60039	7	Sololá	717	San Juan la Laguna	12	San Juan la Laguna	6	Junio	2023-06-16T00:00:00	2024-11-08T02:00:00	1	Precipitación	0
60040	7	Sololá	717	San Juan la Laguna	12	San Juan la Laguna	6	Junio	2023-06-16T00:00:00	2024-11-08T02:00:00	8	Radiación solar	0
60041	7	Sololá	717	San Juan la Laguna	12	San Juan la Laguna	6	Junio	2023-06-16T00:00:00	2024-11-08T03:00:00	2	Temperatura media	18.6
60042	7	Sololá	717	San Juan la Laguna	12	San Juan la Laguna	6	Junio	2023-06-16T00:00:00	2024-11-08T03:00:00	4	Temperatura máxima	18.7
60043	7	Sololá	717	San Juan la Laguna	12	San Juan la Laguna	6	Junio	2023-06-16T00:00:00	2024-11-08T03:00:00	3	Temperatura mínima	18.3
60044	7	Sololá	717	San Juan la Laguna	12	San Juan la Laguna	6	Junio	2023-06-16T00:00:00	2024-11-08T03:00:00	5	Humedad	91
60045	7	Sololá	717	San Juan la Laguna	12	San Juan la Laguna	6	Junio	2023-06-16T00:00:00	2024-11-08T03:00:00	6	Velocidad del viento	1.6
60046	7	Sololá	717	San Juan la Laguna	12	San Juan la Laguna	6	Junio	2023-06-16T00:00:00	2024-11-08T03:00:00	7	Dirección del viento	1.61
60047	7	Sololá	717	San Juan la Laguna	12	San Juan la Laguna	6	Junio	2023-06-16T00:00:00	2024-11-08T03:00:00	1	Precipitación	0
60048	7	Sololá	717	San Juan la Laguna	12	San Juan la Laguna	6	Junio	2023-06-16T00:00:00	2024-11-08T03:00:00	8	Radiación solar	0
60049	7	Sololá	717	San Juan la Laguna	12	San Juan la Laguna	6	Junio	2023-06-16T00:00:00	2024-11-08T04:00:00	2	Temperatura media	18.4
60050	7	Sololá	717	San Juan la Laguna	12	San Juan la Laguna	6	Junio	2023-06-16T00:00:00	2024-11-08T04:00:00	4	Temperatura máxima	18.6
60051	7	Sololá	717	San Juan la Laguna	12	San Juan la Laguna	6	Junio	2023-06-16T00:00:00	2024-11-08T04:00:00	3	Temperatura mínima	18.4
60052	7	Sololá	717	San Juan la Laguna	12	San Juan la Laguna	6	Junio	2023-06-16T00:00:00	2024-11-08T04:00:00	5	Humedad	91
60053	7	Sololá	717	San Juan la Laguna	12	San Juan la Laguna	6	Junio	2023-06-16T00:00:00	2024-11-08T04:00:00	6	Velocidad del viento	1.6
60054	7	Sololá	717	San Juan la Laguna	12	San Juan la Laguna	6	Junio	2023-06-16T00:00:00	2024-11-08T04:00:00	7	Dirección del viento	1.61
60055	7	Sololá	717	San Juan la Laguna	12	San Juan la Laguna	6	Junio	2023-06-16T00:00:00	2024-11-08T04:00:00	1	Precipitación	0
60056	7	Sololá	717	San Juan la Laguna	12	San Juan la Laguna	6	Junio	2023-06-16T00:00:00	2024-11-08T04:00:00	8	Radiación solar	0
60057	7	Sololá	717	San Juan la Laguna	12	San Juan la Laguna	6	Junio	2023-06-16T00:00:00	2024-11-08T05:00:00	2	Temperatura media	18.3
60058	7	Sololá	717	San Juan la Laguna	12	San Juan la Laguna	6	Junio	2023-06-16T00:00:00	2024-11-08T05:00:00	4	Temperatura máxima	18.4
60059	7	Sololá	717	San Juan la Laguna	12	San Juan la Laguna	6	Junio	2023-06-16T00:00:00	2024-11-08T05:00:00	3	Temperatura mínima	18.1
60060	7	Sololá	717	San Juan la Laguna	12	San Juan la Laguna	6	Junio	2023-06-16T00:00:00	2024-11-08T05:00:00	5	Humedad	92
60061	7	Sololá	717	San Juan la Laguna	12	San Juan la Laguna	6	Junio	2023-06-16T00:00:00	2024-11-08T05:00:00	6	Velocidad del viento	0
60062	7	Sololá	717	San Juan la Laguna	12	San Juan la Laguna	6	Junio	2023-06-16T00:00:00	2024-11-08T05:00:00	7	Dirección del viento	0
60063	7	Sololá	717	San Juan la Laguna	12	San Juan la Laguna	6	Junio	2023-06-16T00:00:00	2024-11-08T05:00:00	1	Precipitación	0
60064	7	Sololá	717	San Juan la Laguna	12	San Juan la Laguna	6	Junio	2023-06-16T00:00:00	2024-11-08T05:00:00	8	Radiación solar	0
60065	7	Sololá	717	San Juan la Laguna	12	San Juan la Laguna	6	Junio	2023-06-16T00:00:00	2024-11-08T06:00:00	2	Temperatura media	18.4
60066	7	Sololá	717	San Juan la Laguna	12	San Juan la Laguna	6	Junio	2023-06-16T00:00:00	2024-11-08T06:00:00	4	Temperatura máxima	18.4
60067	7	Sololá	717	San Juan la Laguna	12	San Juan la Laguna	6	Junio	2023-06-16T00:00:00	2024-11-08T06:00:00	3	Temperatura mínima	18.1
60068	7	Sololá	717	San Juan la Laguna	12	San Juan la Laguna	6	Junio	2023-06-16T00:00:00	2024-11-08T06:00:00	5	Humedad	89
60069	7	Sololá	717	San Juan la Laguna	12	San Juan la Laguna	6	Junio	2023-06-16T00:00:00	2024-11-08T06:00:00	6	Velocidad del viento	0
60070	7	Sololá	717	San Juan la Laguna	12	San Juan la Laguna	6	Junio	2023-06-16T00:00:00	2024-11-08T06:00:00	7	Dirección del viento	0
60071	7	Sololá	717	San Juan la Laguna	12	San Juan la Laguna	6	Junio	2023-06-16T00:00:00	2024-11-08T06:00:00	1	Precipitación	0
60072	7	Sololá	717	San Juan la Laguna	12	San Juan la Laguna	6	Junio	2023-06-16T00:00:00	2024-11-08T06:00:00	8	Radiación solar	8
60073	7	Sololá	717	San Juan la Laguna	12	San Juan la Laguna	6	Junio	2023-06-16T00:00:00	2024-11-08T07:00:00	2	Temperatura media	20.7
60074	7	Sololá	717	San Juan la Laguna	12	San Juan la Laguna	6	Junio	2023-06-16T00:00:00	2024-11-08T07:00:00	4	Temperatura máxima	20.7
60075	7	Sololá	717	San Juan la Laguna	12	San Juan la Laguna	6	Junio	2023-06-16T00:00:00	2024-11-08T07:00:00	3	Temperatura mínima	18.4
60076	7	Sololá	717	San Juan la Laguna	12	San Juan la Laguna	6	Junio	2023-06-16T00:00:00	2024-11-08T07:00:00	5	Humedad	79
60077	7	Sololá	717	San Juan la Laguna	12	San Juan la Laguna	6	Junio	2023-06-16T00:00:00	2024-11-08T07:00:00	6	Velocidad del viento	3.2
60078	7	Sololá	717	San Juan la Laguna	12	San Juan la Laguna	6	Junio	2023-06-16T00:00:00	2024-11-08T07:00:00	7	Dirección del viento	3.22
60079	7	Sololá	717	San Juan la Laguna	12	San Juan la Laguna	6	Junio	2023-06-16T00:00:00	2024-11-08T07:00:00	1	Precipitación	0
60080	7	Sololá	717	San Juan la Laguna	12	San Juan la Laguna	6	Junio	2023-06-16T00:00:00	2024-11-08T07:00:00	8	Radiación solar	156
60081	7	Sololá	717	San Juan la Laguna	12	San Juan la Laguna	6	Junio	2023-06-16T00:00:00	2024-11-08T08:00:00	2	Temperatura media	21.4
60082	7	Sololá	717	San Juan la Laguna	12	San Juan la Laguna	6	Junio	2023-06-16T00:00:00	2024-11-08T08:00:00	4	Temperatura máxima	21.4
60083	7	Sololá	717	San Juan la Laguna	12	San Juan la Laguna	6	Junio	2023-06-16T00:00:00	2024-11-08T08:00:00	3	Temperatura mínima	20.7
60084	7	Sololá	717	San Juan la Laguna	12	San Juan la Laguna	6	Junio	2023-06-16T00:00:00	2024-11-08T08:00:00	5	Humedad	77
60085	7	Sololá	717	San Juan la Laguna	12	San Juan la Laguna	6	Junio	2023-06-16T00:00:00	2024-11-08T08:00:00	6	Velocidad del viento	4.8
60086	7	Sololá	717	San Juan la Laguna	12	San Juan la Laguna	6	Junio	2023-06-16T00:00:00	2024-11-08T08:00:00	7	Dirección del viento	4.83
60087	7	Sololá	717	San Juan la Laguna	12	San Juan la Laguna	6	Junio	2023-06-16T00:00:00	2024-11-08T08:00:00	1	Precipitación	0
60088	7	Sololá	717	San Juan la Laguna	12	San Juan la Laguna	6	Junio	2023-06-16T00:00:00	2024-11-08T08:00:00	8	Radiación solar	347
60089	7	Sololá	717	San Juan la Laguna	12	San Juan la Laguna	6	Junio	2023-06-16T00:00:00	2024-11-08T09:00:00	2	Temperatura media	22.7
60090	7	Sololá	717	San Juan la Laguna	12	San Juan la Laguna	6	Junio	2023-06-16T00:00:00	2024-11-08T09:00:00	4	Temperatura máxima	22.8
60091	7	Sololá	717	San Juan la Laguna	12	San Juan la Laguna	6	Junio	2023-06-16T00:00:00	2024-11-08T09:00:00	3	Temperatura mínima	21.3
60092	7	Sololá	717	San Juan la Laguna	12	San Juan la Laguna	6	Junio	2023-06-16T00:00:00	2024-11-08T09:00:00	5	Humedad	70
60093	7	Sololá	717	San Juan la Laguna	12	San Juan la Laguna	6	Junio	2023-06-16T00:00:00	2024-11-08T09:00:00	6	Velocidad del viento	4.8
60094	7	Sololá	717	San Juan la Laguna	12	San Juan la Laguna	6	Junio	2023-06-16T00:00:00	2024-11-08T09:00:00	7	Dirección del viento	4.83
60095	7	Sololá	717	San Juan la Laguna	12	San Juan la Laguna	6	Junio	2023-06-16T00:00:00	2024-11-08T09:00:00	1	Precipitación	0
60096	7	Sololá	717	San Juan la Laguna	12	San Juan la Laguna	6	Junio	2023-06-16T00:00:00	2024-11-08T09:00:00	8	Radiación solar	541
60097	7	Sololá	717	San Juan la Laguna	12	San Juan la Laguna	6	Junio	2023-06-16T00:00:00	2024-11-08T10:00:00	2	Temperatura media	24.8
60098	7	Sololá	717	San Juan la Laguna	12	San Juan la Laguna	6	Junio	2023-06-16T00:00:00	2024-11-08T10:00:00	4	Temperatura máxima	24.8
60099	7	Sololá	717	San Juan la Laguna	12	San Juan la Laguna	6	Junio	2023-06-16T00:00:00	2024-11-08T10:00:00	3	Temperatura mínima	22.7
60100	7	Sololá	717	San Juan la Laguna	12	San Juan la Laguna	6	Junio	2023-06-16T00:00:00	2024-11-08T10:00:00	5	Humedad	60
60101	7	Sololá	717	San Juan la Laguna	12	San Juan la Laguna	6	Junio	2023-06-16T00:00:00	2024-11-08T10:00:00	6	Velocidad del viento	4.8
60102	7	Sololá	717	San Juan la Laguna	12	San Juan la Laguna	6	Junio	2023-06-16T00:00:00	2024-11-08T10:00:00	7	Dirección del viento	4.83
60103	7	Sololá	717	San Juan la Laguna	12	San Juan la Laguna	6	Junio	2023-06-16T00:00:00	2024-11-08T10:00:00	1	Precipitación	0
60104	7	Sololá	717	San Juan la Laguna	12	San Juan la Laguna	6	Junio	2023-06-16T00:00:00	2024-11-08T10:00:00	8	Radiación solar	718
60105	7	Sololá	717	San Juan la Laguna	12	San Juan la Laguna	6	Junio	2023-06-16T00:00:00	2024-11-08T11:00:00	2	Temperatura media	25.8
60106	7	Sololá	717	San Juan la Laguna	12	San Juan la Laguna	6	Junio	2023-06-16T00:00:00	2024-11-08T11:00:00	4	Temperatura máxima	25.8
60107	7	Sololá	717	San Juan la Laguna	12	San Juan la Laguna	6	Junio	2023-06-16T00:00:00	2024-11-08T11:00:00	3	Temperatura mínima	24.8
60108	7	Sololá	717	San Juan la Laguna	12	San Juan la Laguna	6	Junio	2023-06-16T00:00:00	2024-11-08T11:00:00	5	Humedad	61
60109	7	Sololá	717	San Juan la Laguna	12	San Juan la Laguna	6	Junio	2023-06-16T00:00:00	2024-11-08T11:00:00	6	Velocidad del viento	6.4
60110	7	Sololá	717	San Juan la Laguna	12	San Juan la Laguna	6	Junio	2023-06-16T00:00:00	2024-11-08T11:00:00	7	Dirección del viento	6.44
60111	7	Sololá	717	San Juan la Laguna	12	San Juan la Laguna	6	Junio	2023-06-16T00:00:00	2024-11-08T11:00:00	1	Precipitación	0
60112	7	Sololá	717	San Juan la Laguna	12	San Juan la Laguna	6	Junio	2023-06-16T00:00:00	2024-11-08T11:00:00	8	Radiación solar	857
60113	7	Sololá	717	San Juan la Laguna	12	San Juan la Laguna	6	Junio	2023-06-16T00:00:00	2024-11-08T12:00:00	2	Temperatura media	26.1
60114	7	Sololá	717	San Juan la Laguna	12	San Juan la Laguna	6	Junio	2023-06-16T00:00:00	2024-11-08T12:00:00	4	Temperatura máxima	26.4
60115	7	Sololá	717	San Juan la Laguna	12	San Juan la Laguna	6	Junio	2023-06-16T00:00:00	2024-11-08T12:00:00	3	Temperatura mínima	25.7
60116	7	Sololá	717	San Juan la Laguna	12	San Juan la Laguna	6	Junio	2023-06-16T00:00:00	2024-11-08T12:00:00	5	Humedad	61
60117	7	Sololá	717	San Juan la Laguna	12	San Juan la Laguna	6	Junio	2023-06-16T00:00:00	2024-11-08T12:00:00	6	Velocidad del viento	8
60118	7	Sololá	717	San Juan la Laguna	12	San Juan la Laguna	6	Junio	2023-06-16T00:00:00	2024-11-08T12:00:00	7	Dirección del viento	8.05
60119	7	Sololá	717	San Juan la Laguna	12	San Juan la Laguna	6	Junio	2023-06-16T00:00:00	2024-11-08T12:00:00	1	Precipitación	0
60120	7	Sololá	717	San Juan la Laguna	12	San Juan la Laguna	6	Junio	2023-06-16T00:00:00	2024-11-08T12:00:00	8	Radiación solar	956
60121	7	Sololá	717	San Juan la Laguna	12	San Juan la Laguna	6	Junio	2023-06-16T00:00:00	2024-11-08T13:00:00	2	Temperatura media	25.8
60122	7	Sololá	717	San Juan la Laguna	12	San Juan la Laguna	6	Junio	2023-06-16T00:00:00	2024-11-08T13:00:00	4	Temperatura máxima	26.1
60123	7	Sololá	717	San Juan la Laguna	12	San Juan la Laguna	6	Junio	2023-06-16T00:00:00	2024-11-08T13:00:00	3	Temperatura mínima	25.4
60124	7	Sololá	717	San Juan la Laguna	12	San Juan la Laguna	6	Junio	2023-06-16T00:00:00	2024-11-08T13:00:00	5	Humedad	65
60125	7	Sololá	717	San Juan la Laguna	12	San Juan la Laguna	6	Junio	2023-06-16T00:00:00	2024-11-08T13:00:00	6	Velocidad del viento	9.7
60126	7	Sololá	717	San Juan la Laguna	12	San Juan la Laguna	6	Junio	2023-06-16T00:00:00	2024-11-08T13:00:00	7	Dirección del viento	9.66
60127	7	Sololá	717	San Juan la Laguna	12	San Juan la Laguna	6	Junio	2023-06-16T00:00:00	2024-11-08T13:00:00	1	Precipitación	0
60128	7	Sololá	717	San Juan la Laguna	12	San Juan la Laguna	6	Junio	2023-06-16T00:00:00	2024-11-08T13:00:00	8	Radiación solar	986
60129	7	Sololá	717	San Juan la Laguna	12	San Juan la Laguna	6	Junio	2023-06-16T00:00:00	2024-11-08T14:00:00	2	Temperatura media	25.7
60130	7	Sololá	717	San Juan la Laguna	12	San Juan la Laguna	6	Junio	2023-06-16T00:00:00	2024-11-08T14:00:00	4	Temperatura máxima	26.1
60131	7	Sololá	717	San Juan la Laguna	12	San Juan la Laguna	6	Junio	2023-06-16T00:00:00	2024-11-08T14:00:00	3	Temperatura mínima	23.9
60132	7	Sololá	717	San Juan la Laguna	12	San Juan la Laguna	6	Junio	2023-06-16T00:00:00	2024-11-08T14:00:00	5	Humedad	67
60133	7	Sololá	717	San Juan la Laguna	12	San Juan la Laguna	6	Junio	2023-06-16T00:00:00	2024-11-08T14:00:00	6	Velocidad del viento	8
60134	7	Sololá	717	San Juan la Laguna	12	San Juan la Laguna	6	Junio	2023-06-16T00:00:00	2024-11-08T14:00:00	7	Dirección del viento	8.05
60135	7	Sololá	717	San Juan la Laguna	12	San Juan la Laguna	6	Junio	2023-06-16T00:00:00	2024-11-08T14:00:00	1	Precipitación	0
60136	7	Sololá	717	San Juan la Laguna	12	San Juan la Laguna	6	Junio	2023-06-16T00:00:00	2024-11-08T14:00:00	8	Radiación solar	756
60137	7	Sololá	717	San Juan la Laguna	12	San Juan la Laguna	6	Junio	2023-06-16T00:00:00	2024-11-08T15:00:00	2	Temperatura media	24.3
60138	7	Sololá	717	San Juan la Laguna	12	San Juan la Laguna	6	Junio	2023-06-16T00:00:00	2024-11-08T15:00:00	4	Temperatura máxima	25.8
60139	7	Sololá	717	San Juan la Laguna	12	San Juan la Laguna	6	Junio	2023-06-16T00:00:00	2024-11-08T15:00:00	3	Temperatura mínima	24
60140	7	Sololá	717	San Juan la Laguna	12	San Juan la Laguna	6	Junio	2023-06-16T00:00:00	2024-11-08T15:00:00	5	Humedad	70
60141	7	Sololá	717	San Juan la Laguna	12	San Juan la Laguna	6	Junio	2023-06-16T00:00:00	2024-11-08T15:00:00	6	Velocidad del viento	11.3
60142	7	Sololá	717	San Juan la Laguna	12	San Juan la Laguna	6	Junio	2023-06-16T00:00:00	2024-11-08T15:00:00	7	Dirección del viento	11.27
60143	7	Sololá	717	San Juan la Laguna	12	San Juan la Laguna	6	Junio	2023-06-16T00:00:00	2024-11-08T15:00:00	1	Precipitación	0
60144	7	Sololá	717	San Juan la Laguna	12	San Juan la Laguna	6	Junio	2023-06-16T00:00:00	2024-11-08T15:00:00	8	Radiación solar	831
60145	7	Sololá	717	San Juan la Laguna	12	San Juan la Laguna	6	Junio	2023-06-16T00:00:00	2024-11-08T16:00:00	2	Temperatura media	23.3
60146	7	Sololá	717	San Juan la Laguna	12	San Juan la Laguna	6	Junio	2023-06-16T00:00:00	2024-11-08T16:00:00	4	Temperatura máxima	25.5
60147	7	Sololá	717	San Juan la Laguna	12	San Juan la Laguna	6	Junio	2023-06-16T00:00:00	2024-11-08T16:00:00	3	Temperatura mínima	23.3
60148	7	Sololá	717	San Juan la Laguna	12	San Juan la Laguna	6	Junio	2023-06-16T00:00:00	2024-11-08T16:00:00	5	Humedad	74
60149	7	Sololá	717	San Juan la Laguna	12	San Juan la Laguna	6	Junio	2023-06-16T00:00:00	2024-11-08T16:00:00	6	Velocidad del viento	8
60150	7	Sololá	717	San Juan la Laguna	12	San Juan la Laguna	6	Junio	2023-06-16T00:00:00	2024-11-08T16:00:00	7	Dirección del viento	8.05
60151	7	Sololá	717	San Juan la Laguna	12	San Juan la Laguna	6	Junio	2023-06-16T00:00:00	2024-11-08T16:00:00	1	Precipitación	0
60152	7	Sololá	717	San Juan la Laguna	12	San Juan la Laguna	6	Junio	2023-06-16T00:00:00	2024-11-08T16:00:00	8	Radiación solar	528
60153	7	Sololá	717	San Juan la Laguna	12	San Juan la Laguna	6	Junio	2023-06-16T00:00:00	2024-11-08T17:00:00	2	Temperatura media	21.5
60154	7	Sololá	717	San Juan la Laguna	12	San Juan la Laguna	6	Junio	2023-06-16T00:00:00	2024-11-08T17:00:00	4	Temperatura máxima	23.3
60155	7	Sololá	717	San Juan la Laguna	12	San Juan la Laguna	6	Junio	2023-06-16T00:00:00	2024-11-08T17:00:00	3	Temperatura mínima	21.2
60156	7	Sololá	717	San Juan la Laguna	12	San Juan la Laguna	6	Junio	2023-06-16T00:00:00	2024-11-08T17:00:00	5	Humedad	82
60157	7	Sololá	717	San Juan la Laguna	12	San Juan la Laguna	6	Junio	2023-06-16T00:00:00	2024-11-08T17:00:00	6	Velocidad del viento	4.8
60158	7	Sololá	717	San Juan la Laguna	12	San Juan la Laguna	6	Junio	2023-06-16T00:00:00	2024-11-08T17:00:00	7	Dirección del viento	4.83
60159	7	Sololá	717	San Juan la Laguna	12	San Juan la Laguna	6	Junio	2023-06-16T00:00:00	2024-11-08T17:00:00	1	Precipitación	0.4
60160	7	Sololá	717	San Juan la Laguna	12	San Juan la Laguna	6	Junio	2023-06-16T00:00:00	2024-11-08T17:00:00	8	Radiación solar	173
60161	7	Sololá	717	San Juan la Laguna	12	San Juan la Laguna	6	Junio	2023-06-16T00:00:00	2024-11-08T18:00:00	2	Temperatura media	21.1
60162	7	Sololá	717	San Juan la Laguna	12	San Juan la Laguna	6	Junio	2023-06-16T00:00:00	2024-11-08T18:00:00	4	Temperatura máxima	21.6
60163	7	Sololá	717	San Juan la Laguna	12	San Juan la Laguna	6	Junio	2023-06-16T00:00:00	2024-11-08T18:00:00	3	Temperatura mínima	20.9
60164	7	Sololá	717	San Juan la Laguna	12	San Juan la Laguna	6	Junio	2023-06-16T00:00:00	2024-11-08T18:00:00	5	Humedad	81
60165	7	Sololá	717	San Juan la Laguna	12	San Juan la Laguna	6	Junio	2023-06-16T00:00:00	2024-11-08T18:00:00	6	Velocidad del viento	1.6
60166	7	Sololá	717	San Juan la Laguna	12	San Juan la Laguna	6	Junio	2023-06-16T00:00:00	2024-11-08T18:00:00	7	Dirección del viento	1.61
60167	7	Sololá	717	San Juan la Laguna	12	San Juan la Laguna	6	Junio	2023-06-16T00:00:00	2024-11-08T18:00:00	1	Precipitación	0
60168	7	Sololá	717	San Juan la Laguna	12	San Juan la Laguna	6	Junio	2023-06-16T00:00:00	2024-11-08T18:00:00	8	Radiación solar	78
60169	7	Sololá	717	San Juan la Laguna	12	San Juan la Laguna	6	Junio	2023-06-16T00:00:00	2024-11-08T19:00:00	2	Temperatura media	18.8
60170	7	Sololá	717	San Juan la Laguna	12	San Juan la Laguna	6	Junio	2023-06-16T00:00:00	2024-11-08T19:00:00	4	Temperatura máxima	21.1
60171	7	Sololá	717	San Juan la Laguna	12	San Juan la Laguna	6	Junio	2023-06-16T00:00:00	2024-11-08T19:00:00	3	Temperatura mínima	18.7
60172	7	Sololá	717	San Juan la Laguna	12	San Juan la Laguna	6	Junio	2023-06-16T00:00:00	2024-11-08T19:00:00	5	Humedad	90
60173	7	Sololá	717	San Juan la Laguna	12	San Juan la Laguna	6	Junio	2023-06-16T00:00:00	2024-11-08T19:00:00	6	Velocidad del viento	3.2
60174	7	Sololá	717	San Juan la Laguna	12	San Juan la Laguna	6	Junio	2023-06-16T00:00:00	2024-11-08T19:00:00	7	Dirección del viento	3.22
60175	7	Sololá	717	San Juan la Laguna	12	San Juan la Laguna	6	Junio	2023-06-16T00:00:00	2024-11-08T19:00:00	1	Precipitación	0
60176	7	Sololá	717	San Juan la Laguna	12	San Juan la Laguna	6	Junio	2023-06-16T00:00:00	2024-11-08T19:00:00	8	Radiación solar	0
60177	7	Sololá	717	San Juan la Laguna	12	San Juan la Laguna	6	Junio	2023-06-16T00:00:00	2024-11-08T20:00:00	2	Temperatura media	19.1
60178	7	Sololá	717	San Juan la Laguna	12	San Juan la Laguna	6	Junio	2023-06-16T00:00:00	2024-11-08T20:00:00	4	Temperatura máxima	19.3
60179	7	Sololá	717	San Juan la Laguna	12	San Juan la Laguna	6	Junio	2023-06-16T00:00:00	2024-11-08T20:00:00	3	Temperatura mínima	18.8
60180	7	Sololá	717	San Juan la Laguna	12	San Juan la Laguna	6	Junio	2023-06-16T00:00:00	2024-11-08T20:00:00	5	Humedad	88
60181	7	Sololá	717	San Juan la Laguna	12	San Juan la Laguna	6	Junio	2023-06-16T00:00:00	2024-11-08T20:00:00	6	Velocidad del viento	3.2
60182	7	Sololá	717	San Juan la Laguna	12	San Juan la Laguna	6	Junio	2023-06-16T00:00:00	2024-11-08T20:00:00	7	Dirección del viento	3.22
60183	7	Sololá	717	San Juan la Laguna	12	San Juan la Laguna	6	Junio	2023-06-16T00:00:00	2024-11-08T20:00:00	1	Precipitación	0
60184	7	Sololá	717	San Juan la Laguna	12	San Juan la Laguna	6	Junio	2023-06-16T00:00:00	2024-11-08T20:00:00	8	Radiación solar	0
60185	7	Sololá	717	San Juan la Laguna	12	San Juan la Laguna	6	Junio	2023-06-16T00:00:00	2024-11-08T21:00:00	2	Temperatura media	19.1
60186	7	Sololá	717	San Juan la Laguna	12	San Juan la Laguna	6	Junio	2023-06-16T00:00:00	2024-11-08T21:00:00	4	Temperatura máxima	19.2
60187	7	Sololá	717	San Juan la Laguna	12	San Juan la Laguna	6	Junio	2023-06-16T00:00:00	2024-11-08T21:00:00	3	Temperatura mínima	18.9
60188	7	Sololá	717	San Juan la Laguna	12	San Juan la Laguna	6	Junio	2023-06-16T00:00:00	2024-11-08T21:00:00	5	Humedad	88
60189	7	Sololá	717	San Juan la Laguna	12	San Juan la Laguna	6	Junio	2023-06-16T00:00:00	2024-11-08T21:00:00	6	Velocidad del viento	1.6
60190	7	Sololá	717	San Juan la Laguna	12	San Juan la Laguna	6	Junio	2023-06-16T00:00:00	2024-11-08T21:00:00	7	Dirección del viento	1.61
60191	7	Sololá	717	San Juan la Laguna	12	San Juan la Laguna	6	Junio	2023-06-16T00:00:00	2024-11-08T21:00:00	1	Precipitación	0
60192	7	Sololá	717	San Juan la Laguna	12	San Juan la Laguna	6	Junio	2023-06-16T00:00:00	2024-11-08T21:00:00	8	Radiación solar	0
60193	7	Sololá	717	San Juan la Laguna	12	San Juan la Laguna	6	Junio	2023-06-16T00:00:00	2024-11-08T22:00:00	2	Temperatura media	18.6
60194	7	Sololá	717	San Juan la Laguna	12	San Juan la Laguna	6	Junio	2023-06-16T00:00:00	2024-11-08T22:00:00	4	Temperatura máxima	19.1
60195	7	Sololá	717	San Juan la Laguna	12	San Juan la Laguna	6	Junio	2023-06-16T00:00:00	2024-11-08T22:00:00	3	Temperatura mínima	18.6
60196	7	Sololá	717	San Juan la Laguna	12	San Juan la Laguna	6	Junio	2023-06-16T00:00:00	2024-11-08T22:00:00	5	Humedad	90
60197	7	Sololá	717	San Juan la Laguna	12	San Juan la Laguna	6	Junio	2023-06-16T00:00:00	2024-11-08T22:00:00	6	Velocidad del viento	1.6
60198	7	Sololá	717	San Juan la Laguna	12	San Juan la Laguna	6	Junio	2023-06-16T00:00:00	2024-11-08T22:00:00	7	Dirección del viento	1.61
60199	7	Sololá	717	San Juan la Laguna	12	San Juan la Laguna	6	Junio	2023-06-16T00:00:00	2024-11-08T22:00:00	1	Precipitación	0.2
60200	7	Sololá	717	San Juan la Laguna	12	San Juan la Laguna	6	Junio	2023-06-16T00:00:00	2024-11-08T22:00:00	8	Radiación solar	0
60201	7	Sololá	717	San Juan la Laguna	12	San Juan la Laguna	6	Junio	2023-06-16T00:00:00	2024-11-08T23:00:00	2	Temperatura media	18.3
60202	7	Sololá	717	San Juan la Laguna	12	San Juan la Laguna	6	Junio	2023-06-16T00:00:00	2024-11-08T23:00:00	4	Temperatura máxima	18.7
60203	7	Sololá	717	San Juan la Laguna	12	San Juan la Laguna	6	Junio	2023-06-16T00:00:00	2024-11-08T23:00:00	3	Temperatura mínima	18.1
60204	7	Sololá	717	San Juan la Laguna	12	San Juan la Laguna	6	Junio	2023-06-16T00:00:00	2024-11-08T23:00:00	5	Humedad	88
60205	7	Sololá	717	San Juan la Laguna	12	San Juan la Laguna	6	Junio	2023-06-16T00:00:00	2024-11-08T23:00:00	6	Velocidad del viento	3.2
60206	7	Sololá	717	San Juan la Laguna	12	San Juan la Laguna	6	Junio	2023-06-16T00:00:00	2024-11-08T23:00:00	7	Dirección del viento	3.22
60207	7	Sololá	717	San Juan la Laguna	12	San Juan la Laguna	6	Junio	2023-06-16T00:00:00	2024-11-08T23:00:00	1	Precipitación	0
60208	7	Sololá	717	San Juan la Laguna	12	San Juan la Laguna	6	Junio	2023-06-16T00:00:00	2024-11-08T23:00:00	8	Radiación solar	0
60209	7	Sololá	717	San Juan la Laguna	12	San Juan la Laguna	6	Junio	2023-06-17T00:00:00	2024-11-08T00:00:00	2	Temperatura media	17.3
60210	7	Sololá	717	San Juan la Laguna	12	San Juan la Laguna	6	Junio	2023-06-17T00:00:00	2024-11-08T00:00:00	4	Temperatura máxima	18.3
60211	7	Sololá	717	San Juan la Laguna	12	San Juan la Laguna	6	Junio	2023-06-17T00:00:00	2024-11-08T00:00:00	3	Temperatura mínima	17.2
60212	7	Sololá	717	San Juan la Laguna	12	San Juan la Laguna	6	Junio	2023-06-17T00:00:00	2024-11-08T00:00:00	5	Humedad	87
60213	7	Sololá	717	San Juan la Laguna	12	San Juan la Laguna	6	Junio	2023-06-17T00:00:00	2024-11-08T00:00:00	6	Velocidad del viento	3.2
60214	7	Sololá	717	San Juan la Laguna	12	San Juan la Laguna	6	Junio	2023-06-17T00:00:00	2024-11-08T00:00:00	7	Dirección del viento	3.22
60215	7	Sololá	717	San Juan la Laguna	12	San Juan la Laguna	6	Junio	2023-06-17T00:00:00	2024-11-08T00:00:00	1	Precipitación	0
60216	7	Sololá	717	San Juan la Laguna	12	San Juan la Laguna	6	Junio	2023-06-17T00:00:00	2024-11-08T00:00:00	8	Radiación solar	0
60217	7	Sololá	717	San Juan la Laguna	12	San Juan la Laguna	6	Junio	2023-06-17T00:00:00	2024-11-08T01:00:00	2	Temperatura media	17.2
60218	7	Sololá	717	San Juan la Laguna	12	San Juan la Laguna	6	Junio	2023-06-17T00:00:00	2024-11-08T01:00:00	4	Temperatura máxima	17.4
60219	7	Sololá	717	San Juan la Laguna	12	San Juan la Laguna	6	Junio	2023-06-17T00:00:00	2024-11-08T01:00:00	3	Temperatura mínima	17.1
60220	7	Sololá	717	San Juan la Laguna	12	San Juan la Laguna	6	Junio	2023-06-17T00:00:00	2024-11-08T01:00:00	5	Humedad	86
60221	7	Sololá	717	San Juan la Laguna	12	San Juan la Laguna	6	Junio	2023-06-17T00:00:00	2024-11-08T01:00:00	6	Velocidad del viento	4.8
60222	7	Sololá	717	San Juan la Laguna	12	San Juan la Laguna	6	Junio	2023-06-17T00:00:00	2024-11-08T01:00:00	7	Dirección del viento	4.83
60223	7	Sololá	717	San Juan la Laguna	12	San Juan la Laguna	6	Junio	2023-06-17T00:00:00	2024-11-08T01:00:00	1	Precipitación	0
60224	7	Sololá	717	San Juan la Laguna	12	San Juan la Laguna	6	Junio	2023-06-17T00:00:00	2024-11-08T01:00:00	8	Radiación solar	0
60225	7	Sololá	717	San Juan la Laguna	12	San Juan la Laguna	6	Junio	2023-06-17T00:00:00	2024-11-08T02:00:00	2	Temperatura media	16.8
60226	7	Sololá	717	San Juan la Laguna	12	San Juan la Laguna	6	Junio	2023-06-17T00:00:00	2024-11-08T02:00:00	4	Temperatura máxima	17.3
60227	7	Sololá	717	San Juan la Laguna	12	San Juan la Laguna	6	Junio	2023-06-17T00:00:00	2024-11-08T02:00:00	3	Temperatura mínima	16.5
60228	7	Sololá	717	San Juan la Laguna	12	San Juan la Laguna	6	Junio	2023-06-17T00:00:00	2024-11-08T02:00:00	5	Humedad	87
60229	7	Sololá	717	San Juan la Laguna	12	San Juan la Laguna	6	Junio	2023-06-17T00:00:00	2024-11-08T02:00:00	6	Velocidad del viento	1.6
60230	7	Sololá	717	San Juan la Laguna	12	San Juan la Laguna	6	Junio	2023-06-17T00:00:00	2024-11-08T02:00:00	7	Dirección del viento	1.61
60231	7	Sololá	717	San Juan la Laguna	12	San Juan la Laguna	6	Junio	2023-06-17T00:00:00	2024-11-08T02:00:00	1	Precipitación	0
60232	7	Sololá	717	San Juan la Laguna	12	San Juan la Laguna	6	Junio	2023-06-17T00:00:00	2024-11-08T02:00:00	8	Radiación solar	0
60233	7	Sololá	717	San Juan la Laguna	12	San Juan la Laguna	6	Junio	2023-06-17T00:00:00	2024-11-08T03:00:00	2	Temperatura media	16.3
60234	7	Sololá	717	San Juan la Laguna	12	San Juan la Laguna	6	Junio	2023-06-17T00:00:00	2024-11-08T03:00:00	4	Temperatura máxima	16.8
60235	7	Sololá	717	San Juan la Laguna	12	San Juan la Laguna	6	Junio	2023-06-17T00:00:00	2024-11-08T03:00:00	3	Temperatura mínima	16.2
60236	7	Sololá	717	San Juan la Laguna	12	San Juan la Laguna	6	Junio	2023-06-17T00:00:00	2024-11-08T03:00:00	5	Humedad	88
60237	7	Sololá	717	San Juan la Laguna	12	San Juan la Laguna	6	Junio	2023-06-17T00:00:00	2024-11-08T03:00:00	6	Velocidad del viento	3.2
60238	7	Sololá	717	San Juan la Laguna	12	San Juan la Laguna	6	Junio	2023-06-17T00:00:00	2024-11-08T03:00:00	7	Dirección del viento	3.22
60239	7	Sololá	717	San Juan la Laguna	12	San Juan la Laguna	6	Junio	2023-06-17T00:00:00	2024-11-08T03:00:00	1	Precipitación	0
60240	7	Sololá	717	San Juan la Laguna	12	San Juan la Laguna	6	Junio	2023-06-17T00:00:00	2024-11-08T03:00:00	8	Radiación solar	0
60241	7	Sololá	717	San Juan la Laguna	12	San Juan la Laguna	6	Junio	2023-06-17T00:00:00	2024-11-08T04:00:00	2	Temperatura media	16.1
60242	7	Sololá	717	San Juan la Laguna	12	San Juan la Laguna	6	Junio	2023-06-17T00:00:00	2024-11-08T04:00:00	4	Temperatura máxima	16.6
60243	7	Sololá	717	San Juan la Laguna	12	San Juan la Laguna	6	Junio	2023-06-17T00:00:00	2024-11-08T04:00:00	3	Temperatura mínima	15.8
60244	7	Sololá	717	San Juan la Laguna	12	San Juan la Laguna	6	Junio	2023-06-17T00:00:00	2024-11-08T04:00:00	5	Humedad	88
60245	7	Sololá	717	San Juan la Laguna	12	San Juan la Laguna	6	Junio	2023-06-17T00:00:00	2024-11-08T04:00:00	6	Velocidad del viento	1.6
60246	7	Sololá	717	San Juan la Laguna	12	San Juan la Laguna	6	Junio	2023-06-17T00:00:00	2024-11-08T04:00:00	7	Dirección del viento	1.61
60247	7	Sololá	717	San Juan la Laguna	12	San Juan la Laguna	6	Junio	2023-06-17T00:00:00	2024-11-08T04:00:00	1	Precipitación	0
60248	7	Sololá	717	San Juan la Laguna	12	San Juan la Laguna	6	Junio	2023-06-17T00:00:00	2024-11-08T04:00:00	8	Radiación solar	0
60249	7	Sololá	717	San Juan la Laguna	12	San Juan la Laguna	6	Junio	2023-06-17T00:00:00	2024-11-08T05:00:00	2	Temperatura media	16.2
60250	7	Sololá	717	San Juan la Laguna	12	San Juan la Laguna	6	Junio	2023-06-17T00:00:00	2024-11-08T05:00:00	4	Temperatura máxima	16.4
60251	7	Sololá	717	San Juan la Laguna	12	San Juan la Laguna	6	Junio	2023-06-17T00:00:00	2024-11-08T05:00:00	3	Temperatura mínima	15.9
60252	7	Sololá	717	San Juan la Laguna	12	San Juan la Laguna	6	Junio	2023-06-17T00:00:00	2024-11-08T05:00:00	5	Humedad	87
60253	7	Sololá	717	San Juan la Laguna	12	San Juan la Laguna	6	Junio	2023-06-17T00:00:00	2024-11-08T05:00:00	6	Velocidad del viento	3.2
60254	7	Sololá	717	San Juan la Laguna	12	San Juan la Laguna	6	Junio	2023-06-17T00:00:00	2024-11-08T05:00:00	7	Dirección del viento	3.22
60255	7	Sololá	717	San Juan la Laguna	12	San Juan la Laguna	6	Junio	2023-06-17T00:00:00	2024-11-08T05:00:00	1	Precipitación	0
60256	7	Sololá	717	San Juan la Laguna	12	San Juan la Laguna	6	Junio	2023-06-17T00:00:00	2024-11-08T05:00:00	8	Radiación solar	0
60257	7	Sololá	717	San Juan la Laguna	12	San Juan la Laguna	6	Junio	2023-06-17T00:00:00	2024-11-08T06:00:00	2	Temperatura media	15.6
60258	7	Sololá	717	San Juan la Laguna	12	San Juan la Laguna	6	Junio	2023-06-17T00:00:00	2024-11-08T06:00:00	4	Temperatura máxima	16.2
60259	7	Sololá	717	San Juan la Laguna	12	San Juan la Laguna	6	Junio	2023-06-17T00:00:00	2024-11-08T06:00:00	3	Temperatura mínima	15.6
60260	7	Sololá	717	San Juan la Laguna	12	San Juan la Laguna	6	Junio	2023-06-17T00:00:00	2024-11-08T06:00:00	5	Humedad	90
60261	7	Sololá	717	San Juan la Laguna	12	San Juan la Laguna	6	Junio	2023-06-17T00:00:00	2024-11-08T06:00:00	6	Velocidad del viento	1.6
60262	7	Sololá	717	San Juan la Laguna	12	San Juan la Laguna	6	Junio	2023-06-17T00:00:00	2024-11-08T06:00:00	7	Dirección del viento	1.61
60263	7	Sololá	717	San Juan la Laguna	12	San Juan la Laguna	6	Junio	2023-06-17T00:00:00	2024-11-08T06:00:00	1	Precipitación	0
60264	7	Sololá	717	San Juan la Laguna	12	San Juan la Laguna	6	Junio	2023-06-17T00:00:00	2024-11-08T06:00:00	8	Radiación solar	4
60265	7	Sololá	717	San Juan la Laguna	12	San Juan la Laguna	6	Junio	2023-06-17T00:00:00	2024-11-08T07:00:00	2	Temperatura media	19.2
60266	7	Sololá	717	San Juan la Laguna	12	San Juan la Laguna	6	Junio	2023-06-17T00:00:00	2024-11-08T07:00:00	4	Temperatura máxima	19.2
60267	7	Sololá	717	San Juan la Laguna	12	San Juan la Laguna	6	Junio	2023-06-17T00:00:00	2024-11-08T07:00:00	3	Temperatura mínima	15.6
60268	7	Sololá	717	San Juan la Laguna	12	San Juan la Laguna	6	Junio	2023-06-17T00:00:00	2024-11-08T07:00:00	5	Humedad	83
60269	7	Sololá	717	San Juan la Laguna	12	San Juan la Laguna	6	Junio	2023-06-17T00:00:00	2024-11-08T07:00:00	6	Velocidad del viento	1.6
60270	7	Sololá	717	San Juan la Laguna	12	San Juan la Laguna	6	Junio	2023-06-17T00:00:00	2024-11-08T07:00:00	7	Dirección del viento	1.61
60271	7	Sololá	717	San Juan la Laguna	12	San Juan la Laguna	6	Junio	2023-06-17T00:00:00	2024-11-08T07:00:00	1	Precipitación	0
60272	7	Sololá	717	San Juan la Laguna	12	San Juan la Laguna	6	Junio	2023-06-17T00:00:00	2024-11-08T07:00:00	8	Radiación solar	114
60273	7	Sololá	717	San Juan la Laguna	12	San Juan la Laguna	6	Junio	2023-06-17T00:00:00	2024-11-08T08:00:00	2	Temperatura media	22.9
60274	7	Sololá	717	San Juan la Laguna	12	San Juan la Laguna	6	Junio	2023-06-17T00:00:00	2024-11-08T08:00:00	4	Temperatura máxima	22.9
60275	7	Sololá	717	San Juan la Laguna	12	San Juan la Laguna	6	Junio	2023-06-17T00:00:00	2024-11-08T08:00:00	3	Temperatura mínima	19.2
60276	7	Sololá	717	San Juan la Laguna	12	San Juan la Laguna	6	Junio	2023-06-17T00:00:00	2024-11-08T08:00:00	5	Humedad	63
60277	7	Sololá	717	San Juan la Laguna	12	San Juan la Laguna	6	Junio	2023-06-17T00:00:00	2024-11-08T08:00:00	6	Velocidad del viento	3.2
60278	7	Sololá	717	San Juan la Laguna	12	San Juan la Laguna	6	Junio	2023-06-17T00:00:00	2024-11-08T08:00:00	7	Dirección del viento	3.22
60279	7	Sololá	717	San Juan la Laguna	12	San Juan la Laguna	6	Junio	2023-06-17T00:00:00	2024-11-08T08:00:00	1	Precipitación	0
60280	7	Sololá	717	San Juan la Laguna	12	San Juan la Laguna	6	Junio	2023-06-17T00:00:00	2024-11-08T08:00:00	8	Radiación solar	332
60281	7	Sololá	717	San Juan la Laguna	12	San Juan la Laguna	6	Junio	2023-06-17T00:00:00	2024-11-08T09:00:00	2	Temperatura media	24.4
60282	7	Sololá	717	San Juan la Laguna	12	San Juan la Laguna	6	Junio	2023-06-17T00:00:00	2024-11-08T09:00:00	4	Temperatura máxima	24.4
60283	7	Sololá	717	San Juan la Laguna	12	San Juan la Laguna	6	Junio	2023-06-17T00:00:00	2024-11-08T09:00:00	3	Temperatura mínima	23
60284	7	Sololá	717	San Juan la Laguna	12	San Juan la Laguna	6	Junio	2023-06-17T00:00:00	2024-11-08T09:00:00	5	Humedad	61
60285	7	Sololá	717	San Juan la Laguna	12	San Juan la Laguna	6	Junio	2023-06-17T00:00:00	2024-11-08T09:00:00	6	Velocidad del viento	4.8
60286	7	Sololá	717	San Juan la Laguna	12	San Juan la Laguna	6	Junio	2023-06-17T00:00:00	2024-11-08T09:00:00	7	Dirección del viento	4.83
60287	7	Sololá	717	San Juan la Laguna	12	San Juan la Laguna	6	Junio	2023-06-17T00:00:00	2024-11-08T09:00:00	1	Precipitación	0
60288	7	Sololá	717	San Juan la Laguna	12	San Juan la Laguna	6	Junio	2023-06-17T00:00:00	2024-11-08T09:00:00	8	Radiación solar	542
60289	7	Sololá	717	San Juan la Laguna	12	San Juan la Laguna	6	Junio	2023-06-17T00:00:00	2024-11-08T10:00:00	2	Temperatura media	25.2
60290	7	Sololá	717	San Juan la Laguna	12	San Juan la Laguna	6	Junio	2023-06-17T00:00:00	2024-11-08T10:00:00	4	Temperatura máxima	25.4
60291	7	Sololá	717	San Juan la Laguna	12	San Juan la Laguna	6	Junio	2023-06-17T00:00:00	2024-11-08T10:00:00	3	Temperatura mínima	24.4
60292	7	Sololá	717	San Juan la Laguna	12	San Juan la Laguna	6	Junio	2023-06-17T00:00:00	2024-11-08T10:00:00	5	Humedad	56
60293	7	Sololá	717	San Juan la Laguna	12	San Juan la Laguna	6	Junio	2023-06-17T00:00:00	2024-11-08T10:00:00	6	Velocidad del viento	6.4
60294	7	Sololá	717	San Juan la Laguna	12	San Juan la Laguna	6	Junio	2023-06-17T00:00:00	2024-11-08T10:00:00	7	Dirección del viento	6.44
60295	7	Sololá	717	San Juan la Laguna	12	San Juan la Laguna	6	Junio	2023-06-17T00:00:00	2024-11-08T10:00:00	1	Precipitación	0
60296	7	Sololá	717	San Juan la Laguna	12	San Juan la Laguna	6	Junio	2023-06-17T00:00:00	2024-11-08T10:00:00	8	Radiación solar	725
60297	7	Sololá	717	San Juan la Laguna	12	San Juan la Laguna	6	Junio	2023-06-17T00:00:00	2024-11-08T11:00:00	2	Temperatura media	27.2
60298	7	Sololá	717	San Juan la Laguna	12	San Juan la Laguna	6	Junio	2023-06-17T00:00:00	2024-11-08T11:00:00	4	Temperatura máxima	27.2
60299	7	Sololá	717	San Juan la Laguna	12	San Juan la Laguna	6	Junio	2023-06-17T00:00:00	2024-11-08T11:00:00	3	Temperatura mínima	25.1
60300	7	Sololá	717	San Juan la Laguna	12	San Juan la Laguna	6	Junio	2023-06-17T00:00:00	2024-11-08T11:00:00	5	Humedad	47
60301	7	Sololá	717	San Juan la Laguna	12	San Juan la Laguna	6	Junio	2023-06-17T00:00:00	2024-11-08T11:00:00	6	Velocidad del viento	8
60302	7	Sololá	717	San Juan la Laguna	12	San Juan la Laguna	6	Junio	2023-06-17T00:00:00	2024-11-08T11:00:00	7	Dirección del viento	8.05
60303	7	Sololá	717	San Juan la Laguna	12	San Juan la Laguna	6	Junio	2023-06-17T00:00:00	2024-11-08T11:00:00	1	Precipitación	0
60304	7	Sololá	717	San Juan la Laguna	12	San Juan la Laguna	6	Junio	2023-06-17T00:00:00	2024-11-08T11:00:00	8	Radiación solar	851
60305	7	Sololá	717	San Juan la Laguna	12	San Juan la Laguna	6	Junio	2023-06-17T00:00:00	2024-11-08T12:00:00	2	Temperatura media	28.1
60306	7	Sololá	717	San Juan la Laguna	12	San Juan la Laguna	6	Junio	2023-06-17T00:00:00	2024-11-08T12:00:00	4	Temperatura máxima	28.4
60307	7	Sololá	717	San Juan la Laguna	12	San Juan la Laguna	6	Junio	2023-06-17T00:00:00	2024-11-08T12:00:00	3	Temperatura mínima	27.2
60308	7	Sololá	717	San Juan la Laguna	12	San Juan la Laguna	6	Junio	2023-06-17T00:00:00	2024-11-08T12:00:00	5	Humedad	44
60309	7	Sololá	717	San Juan la Laguna	12	San Juan la Laguna	6	Junio	2023-06-17T00:00:00	2024-11-08T12:00:00	6	Velocidad del viento	11.3
60310	7	Sololá	717	San Juan la Laguna	12	San Juan la Laguna	6	Junio	2023-06-17T00:00:00	2024-11-08T12:00:00	7	Dirección del viento	11.27
60311	7	Sololá	717	San Juan la Laguna	12	San Juan la Laguna	6	Junio	2023-06-17T00:00:00	2024-11-08T12:00:00	1	Precipitación	0
60312	7	Sololá	717	San Juan la Laguna	12	San Juan la Laguna	6	Junio	2023-06-17T00:00:00	2024-11-08T12:00:00	8	Radiación solar	917
60313	7	Sololá	717	San Juan la Laguna	12	San Juan la Laguna	6	Junio	2023-06-17T00:00:00	2024-11-08T13:00:00	2	Temperatura media	26.3
60314	7	Sololá	717	San Juan la Laguna	12	San Juan la Laguna	6	Junio	2023-06-17T00:00:00	2024-11-08T13:00:00	4	Temperatura máxima	28.9
60315	7	Sololá	717	San Juan la Laguna	12	San Juan la Laguna	6	Junio	2023-06-17T00:00:00	2024-11-08T13:00:00	3	Temperatura mínima	26.3
60316	7	Sololá	717	San Juan la Laguna	12	San Juan la Laguna	6	Junio	2023-06-17T00:00:00	2024-11-08T13:00:00	5	Humedad	63
60317	7	Sololá	717	San Juan la Laguna	12	San Juan la Laguna	6	Junio	2023-06-17T00:00:00	2024-11-08T13:00:00	6	Velocidad del viento	9.7
60318	7	Sololá	717	San Juan la Laguna	12	San Juan la Laguna	6	Junio	2023-06-17T00:00:00	2024-11-08T13:00:00	7	Dirección del viento	9.66
60319	7	Sololá	717	San Juan la Laguna	12	San Juan la Laguna	6	Junio	2023-06-17T00:00:00	2024-11-08T13:00:00	1	Precipitación	0
60320	7	Sololá	717	San Juan la Laguna	12	San Juan la Laguna	6	Junio	2023-06-17T00:00:00	2024-11-08T13:00:00	8	Radiación solar	937
60321	7	Sololá	717	San Juan la Laguna	12	San Juan la Laguna	6	Junio	2023-06-17T00:00:00	2024-11-08T14:00:00	2	Temperatura media	26.4
60322	7	Sololá	717	San Juan la Laguna	12	San Juan la Laguna	6	Junio	2023-06-17T00:00:00	2024-11-08T14:00:00	4	Temperatura máxima	27
60323	7	Sololá	717	San Juan la Laguna	12	San Juan la Laguna	6	Junio	2023-06-17T00:00:00	2024-11-08T14:00:00	3	Temperatura mínima	25.4
60324	7	Sololá	717	San Juan la Laguna	12	San Juan la Laguna	6	Junio	2023-06-17T00:00:00	2024-11-08T14:00:00	5	Humedad	65
60325	7	Sololá	717	San Juan la Laguna	12	San Juan la Laguna	6	Junio	2023-06-17T00:00:00	2024-11-08T14:00:00	6	Velocidad del viento	11.3
60326	7	Sololá	717	San Juan la Laguna	12	San Juan la Laguna	6	Junio	2023-06-17T00:00:00	2024-11-08T14:00:00	7	Dirección del viento	11.27
60327	7	Sololá	717	San Juan la Laguna	12	San Juan la Laguna	6	Junio	2023-06-17T00:00:00	2024-11-08T14:00:00	1	Precipitación	0
60328	7	Sololá	717	San Juan la Laguna	12	San Juan la Laguna	6	Junio	2023-06-17T00:00:00	2024-11-08T14:00:00	8	Radiación solar	879
60329	7	Sololá	717	San Juan la Laguna	12	San Juan la Laguna	6	Junio	2023-06-17T00:00:00	2024-11-08T15:00:00	2	Temperatura media	25.2
60330	7	Sololá	717	San Juan la Laguna	12	San Juan la Laguna	6	Junio	2023-06-17T00:00:00	2024-11-08T15:00:00	4	Temperatura máxima	26.4
60331	7	Sololá	717	San Juan la Laguna	12	San Juan la Laguna	6	Junio	2023-06-17T00:00:00	2024-11-08T15:00:00	3	Temperatura mínima	24.7
60332	7	Sololá	717	San Juan la Laguna	12	San Juan la Laguna	6	Junio	2023-06-17T00:00:00	2024-11-08T15:00:00	5	Humedad	68
60333	7	Sololá	717	San Juan la Laguna	12	San Juan la Laguna	6	Junio	2023-06-17T00:00:00	2024-11-08T15:00:00	6	Velocidad del viento	14.5
60334	7	Sololá	717	San Juan la Laguna	12	San Juan la Laguna	6	Junio	2023-06-17T00:00:00	2024-11-08T15:00:00	7	Dirección del viento	14.48
60335	7	Sololá	717	San Juan la Laguna	12	San Juan la Laguna	6	Junio	2023-06-17T00:00:00	2024-11-08T15:00:00	1	Precipitación	0
60336	7	Sololá	717	San Juan la Laguna	12	San Juan la Laguna	6	Junio	2023-06-17T00:00:00	2024-11-08T15:00:00	8	Radiación solar	758
60337	7	Sololá	717	San Juan la Laguna	12	San Juan la Laguna	6	Junio	2023-06-17T00:00:00	2024-11-08T16:00:00	2	Temperatura media	24.7
60338	7	Sololá	717	San Juan la Laguna	12	San Juan la Laguna	6	Junio	2023-06-17T00:00:00	2024-11-08T16:00:00	4	Temperatura máxima	25.3
60339	7	Sololá	717	San Juan la Laguna	12	San Juan la Laguna	6	Junio	2023-06-17T00:00:00	2024-11-08T16:00:00	3	Temperatura mínima	24.2
60340	7	Sololá	717	San Juan la Laguna	12	San Juan la Laguna	6	Junio	2023-06-17T00:00:00	2024-11-08T16:00:00	5	Humedad	70
60341	7	Sololá	717	San Juan la Laguna	12	San Juan la Laguna	6	Junio	2023-06-17T00:00:00	2024-11-08T16:00:00	6	Velocidad del viento	14.5
60342	7	Sololá	717	San Juan la Laguna	12	San Juan la Laguna	6	Junio	2023-06-17T00:00:00	2024-11-08T16:00:00	7	Dirección del viento	14.48
60343	7	Sololá	717	San Juan la Laguna	12	San Juan la Laguna	6	Junio	2023-06-17T00:00:00	2024-11-08T16:00:00	1	Precipitación	0
60344	7	Sololá	717	San Juan la Laguna	12	San Juan la Laguna	6	Junio	2023-06-17T00:00:00	2024-11-08T16:00:00	8	Radiación solar	617
60345	7	Sololá	717	San Juan la Laguna	12	San Juan la Laguna	6	Junio	2023-06-17T00:00:00	2024-11-08T17:00:00	2	Temperatura media	23.7
60346	7	Sololá	717	San Juan la Laguna	12	San Juan la Laguna	6	Junio	2023-06-17T00:00:00	2024-11-08T17:00:00	4	Temperatura máxima	24.7
60347	7	Sololá	717	San Juan la Laguna	12	San Juan la Laguna	6	Junio	2023-06-17T00:00:00	2024-11-08T17:00:00	3	Temperatura mínima	23.7
60348	7	Sololá	717	San Juan la Laguna	12	San Juan la Laguna	6	Junio	2023-06-17T00:00:00	2024-11-08T17:00:00	5	Humedad	74
60349	7	Sololá	717	San Juan la Laguna	12	San Juan la Laguna	6	Junio	2023-06-17T00:00:00	2024-11-08T17:00:00	6	Velocidad del viento	9.7
60350	7	Sololá	717	San Juan la Laguna	12	San Juan la Laguna	6	Junio	2023-06-17T00:00:00	2024-11-08T17:00:00	7	Dirección del viento	9.66
60351	7	Sololá	717	San Juan la Laguna	12	San Juan la Laguna	6	Junio	2023-06-17T00:00:00	2024-11-08T17:00:00	1	Precipitación	0
60352	7	Sololá	717	San Juan la Laguna	12	San Juan la Laguna	6	Junio	2023-06-17T00:00:00	2024-11-08T17:00:00	8	Radiación solar	354
60353	7	Sololá	717	San Juan la Laguna	12	San Juan la Laguna	6	Junio	2023-06-17T00:00:00	2024-11-08T18:00:00	2	Temperatura media	21.5
60354	7	Sololá	717	San Juan la Laguna	12	San Juan la Laguna	6	Junio	2023-06-17T00:00:00	2024-11-08T18:00:00	4	Temperatura máxima	23.7
60355	7	Sololá	717	San Juan la Laguna	12	San Juan la Laguna	6	Junio	2023-06-17T00:00:00	2024-11-08T18:00:00	3	Temperatura mínima	21.5
60356	7	Sololá	717	San Juan la Laguna	12	San Juan la Laguna	6	Junio	2023-06-17T00:00:00	2024-11-08T18:00:00	5	Humedad	87
60357	7	Sololá	717	San Juan la Laguna	12	San Juan la Laguna	6	Junio	2023-06-17T00:00:00	2024-11-08T18:00:00	6	Velocidad del viento	3.2
60358	7	Sololá	717	San Juan la Laguna	12	San Juan la Laguna	6	Junio	2023-06-17T00:00:00	2024-11-08T18:00:00	7	Dirección del viento	3.22
60359	7	Sololá	717	San Juan la Laguna	12	San Juan la Laguna	6	Junio	2023-06-17T00:00:00	2024-11-08T18:00:00	1	Precipitación	0.2
60360	7	Sololá	717	San Juan la Laguna	12	San Juan la Laguna	6	Junio	2023-06-17T00:00:00	2024-11-08T18:00:00	8	Radiación solar	72
60361	7	Sololá	717	San Juan la Laguna	12	San Juan la Laguna	6	Junio	2023-06-17T00:00:00	2024-11-08T19:00:00	2	Temperatura media	20.9
60362	7	Sololá	717	San Juan la Laguna	12	San Juan la Laguna	6	Junio	2023-06-17T00:00:00	2024-11-08T19:00:00	4	Temperatura máxima	21.6
60363	7	Sololá	717	San Juan la Laguna	12	San Juan la Laguna	6	Junio	2023-06-17T00:00:00	2024-11-08T19:00:00	3	Temperatura mínima	20.9
60364	7	Sololá	717	San Juan la Laguna	12	San Juan la Laguna	6	Junio	2023-06-17T00:00:00	2024-11-08T19:00:00	5	Humedad	87
60365	7	Sololá	717	San Juan la Laguna	12	San Juan la Laguna	6	Junio	2023-06-17T00:00:00	2024-11-08T19:00:00	6	Velocidad del viento	1.6
60366	7	Sololá	717	San Juan la Laguna	12	San Juan la Laguna	6	Junio	2023-06-17T00:00:00	2024-11-08T19:00:00	7	Dirección del viento	1.61
60367	7	Sololá	717	San Juan la Laguna	12	San Juan la Laguna	6	Junio	2023-06-17T00:00:00	2024-11-08T19:00:00	1	Precipitación	0
60368	7	Sololá	717	San Juan la Laguna	12	San Juan la Laguna	6	Junio	2023-06-17T00:00:00	2024-11-08T19:00:00	8	Radiación solar	0
60369	7	Sololá	717	San Juan la Laguna	12	San Juan la Laguna	6	Junio	2023-06-17T00:00:00	2024-11-08T20:00:00	2	Temperatura media	21.1
60370	7	Sololá	717	San Juan la Laguna	12	San Juan la Laguna	6	Junio	2023-06-17T00:00:00	2024-11-08T20:00:00	4	Temperatura máxima	21.6
60371	7	Sololá	717	San Juan la Laguna	12	San Juan la Laguna	6	Junio	2023-06-17T00:00:00	2024-11-08T20:00:00	3	Temperatura mínima	20.9
60372	7	Sololá	717	San Juan la Laguna	12	San Juan la Laguna	6	Junio	2023-06-17T00:00:00	2024-11-08T20:00:00	5	Humedad	77
60373	7	Sololá	717	San Juan la Laguna	12	San Juan la Laguna	6	Junio	2023-06-17T00:00:00	2024-11-08T20:00:00	6	Velocidad del viento	1.6
60374	7	Sololá	717	San Juan la Laguna	12	San Juan la Laguna	6	Junio	2023-06-17T00:00:00	2024-11-08T20:00:00	7	Dirección del viento	1.61
60375	7	Sololá	717	San Juan la Laguna	12	San Juan la Laguna	6	Junio	2023-06-17T00:00:00	2024-11-08T20:00:00	1	Precipitación	0
60376	7	Sololá	717	San Juan la Laguna	12	San Juan la Laguna	6	Junio	2023-06-17T00:00:00	2024-11-08T20:00:00	8	Radiación solar	0
60377	7	Sololá	717	San Juan la Laguna	12	San Juan la Laguna	6	Junio	2023-06-17T00:00:00	2024-11-08T21:00:00	2	Temperatura media	19.3
60378	7	Sololá	717	San Juan la Laguna	12	San Juan la Laguna	6	Junio	2023-06-17T00:00:00	2024-11-08T21:00:00	4	Temperatura máxima	21.2
60379	7	Sololá	717	San Juan la Laguna	12	San Juan la Laguna	6	Junio	2023-06-17T00:00:00	2024-11-08T21:00:00	3	Temperatura mínima	19.3
60380	7	Sololá	717	San Juan la Laguna	12	San Juan la Laguna	6	Junio	2023-06-17T00:00:00	2024-11-08T21:00:00	5	Humedad	84
60381	7	Sololá	717	San Juan la Laguna	12	San Juan la Laguna	6	Junio	2023-06-17T00:00:00	2024-11-08T21:00:00	6	Velocidad del viento	1.6
60382	7	Sololá	717	San Juan la Laguna	12	San Juan la Laguna	6	Junio	2023-06-17T00:00:00	2024-11-08T21:00:00	7	Dirección del viento	1.61
60383	7	Sololá	717	San Juan la Laguna	12	San Juan la Laguna	6	Junio	2023-06-17T00:00:00	2024-11-08T21:00:00	1	Precipitación	0
60384	7	Sololá	717	San Juan la Laguna	12	San Juan la Laguna	6	Junio	2023-06-17T00:00:00	2024-11-08T21:00:00	8	Radiación solar	0
60385	7	Sololá	717	San Juan la Laguna	12	San Juan la Laguna	6	Junio	2023-06-17T00:00:00	2024-11-08T22:00:00	2	Temperatura media	18.9
60386	7	Sololá	717	San Juan la Laguna	12	San Juan la Laguna	6	Junio	2023-06-17T00:00:00	2024-11-08T22:00:00	4	Temperatura máxima	19.3
60387	7	Sololá	717	San Juan la Laguna	12	San Juan la Laguna	6	Junio	2023-06-17T00:00:00	2024-11-08T22:00:00	3	Temperatura mínima	18.6
60388	7	Sololá	717	San Juan la Laguna	12	San Juan la Laguna	6	Junio	2023-06-17T00:00:00	2024-11-08T22:00:00	5	Humedad	83
60389	7	Sololá	717	San Juan la Laguna	12	San Juan la Laguna	6	Junio	2023-06-17T00:00:00	2024-11-08T22:00:00	6	Velocidad del viento	1.6
60390	7	Sololá	717	San Juan la Laguna	12	San Juan la Laguna	6	Junio	2023-06-17T00:00:00	2024-11-08T22:00:00	7	Dirección del viento	1.61
60391	7	Sololá	717	San Juan la Laguna	12	San Juan la Laguna	6	Junio	2023-06-17T00:00:00	2024-11-08T22:00:00	1	Precipitación	0
60392	7	Sololá	717	San Juan la Laguna	12	San Juan la Laguna	6	Junio	2023-06-17T00:00:00	2024-11-08T22:00:00	8	Radiación solar	0
60393	7	Sololá	717	San Juan la Laguna	12	San Juan la Laguna	6	Junio	2023-06-17T00:00:00	2024-11-08T23:00:00	2	Temperatura media	21.6
60394	7	Sololá	717	San Juan la Laguna	12	San Juan la Laguna	6	Junio	2023-06-17T00:00:00	2024-11-08T23:00:00	4	Temperatura máxima	21.8
60395	7	Sololá	717	San Juan la Laguna	12	San Juan la Laguna	6	Junio	2023-06-17T00:00:00	2024-11-08T23:00:00	3	Temperatura mínima	18.9
60396	7	Sololá	717	San Juan la Laguna	12	San Juan la Laguna	6	Junio	2023-06-17T00:00:00	2024-11-08T23:00:00	5	Humedad	71
60397	7	Sololá	717	San Juan la Laguna	12	San Juan la Laguna	6	Junio	2023-06-17T00:00:00	2024-11-08T23:00:00	6	Velocidad del viento	3.2
60398	7	Sololá	717	San Juan la Laguna	12	San Juan la Laguna	6	Junio	2023-06-17T00:00:00	2024-11-08T23:00:00	7	Dirección del viento	3.22
60399	7	Sololá	717	San Juan la Laguna	12	San Juan la Laguna	6	Junio	2023-06-17T00:00:00	2024-11-08T23:00:00	1	Precipitación	0
60400	7	Sololá	717	San Juan la Laguna	12	San Juan la Laguna	6	Junio	2023-06-17T00:00:00	2024-11-08T23:00:00	8	Radiación solar	0
60401	7	Sololá	717	San Juan la Laguna	12	San Juan la Laguna	6	Junio	2023-06-18T00:00:00	2024-11-08T00:00:00	2	Temperatura media	18.1
60402	7	Sololá	717	San Juan la Laguna	12	San Juan la Laguna	6	Junio	2023-06-18T00:00:00	2024-11-08T00:00:00	4	Temperatura máxima	21.6
60403	7	Sololá	717	San Juan la Laguna	12	San Juan la Laguna	6	Junio	2023-06-18T00:00:00	2024-11-08T00:00:00	3	Temperatura mínima	18.1
60404	7	Sololá	717	San Juan la Laguna	12	San Juan la Laguna	6	Junio	2023-06-18T00:00:00	2024-11-08T00:00:00	5	Humedad	82
60405	7	Sololá	717	San Juan la Laguna	12	San Juan la Laguna	6	Junio	2023-06-18T00:00:00	2024-11-08T00:00:00	6	Velocidad del viento	0
60406	7	Sololá	717	San Juan la Laguna	12	San Juan la Laguna	6	Junio	2023-06-18T00:00:00	2024-11-08T00:00:00	7	Dirección del viento	0
60407	7	Sololá	717	San Juan la Laguna	12	San Juan la Laguna	6	Junio	2023-06-18T00:00:00	2024-11-08T00:00:00	1	Precipitación	0
60408	7	Sololá	717	San Juan la Laguna	12	San Juan la Laguna	6	Junio	2023-06-18T00:00:00	2024-11-08T00:00:00	8	Radiación solar	0
60409	7	Sololá	717	San Juan la Laguna	12	San Juan la Laguna	6	Junio	2023-06-18T00:00:00	2024-11-08T01:00:00	2	Temperatura media	19.6
60410	7	Sololá	717	San Juan la Laguna	12	San Juan la Laguna	6	Junio	2023-06-18T00:00:00	2024-11-08T01:00:00	4	Temperatura máxima	20.6
60411	7	Sololá	717	San Juan la Laguna	12	San Juan la Laguna	6	Junio	2023-06-18T00:00:00	2024-11-08T01:00:00	3	Temperatura mínima	17.3
60412	7	Sololá	717	San Juan la Laguna	12	San Juan la Laguna	6	Junio	2023-06-18T00:00:00	2024-11-08T01:00:00	5	Humedad	74
60413	7	Sololá	717	San Juan la Laguna	12	San Juan la Laguna	6	Junio	2023-06-18T00:00:00	2024-11-08T01:00:00	6	Velocidad del viento	1.6
60414	7	Sololá	717	San Juan la Laguna	12	San Juan la Laguna	6	Junio	2023-06-18T00:00:00	2024-11-08T01:00:00	7	Dirección del viento	1.61
60415	7	Sololá	717	San Juan la Laguna	12	San Juan la Laguna	6	Junio	2023-06-18T00:00:00	2024-11-08T01:00:00	1	Precipitación	0
60416	7	Sololá	717	San Juan la Laguna	12	San Juan la Laguna	6	Junio	2023-06-18T00:00:00	2024-11-08T01:00:00	8	Radiación solar	0
60417	7	Sololá	717	San Juan la Laguna	12	San Juan la Laguna	6	Junio	2023-06-18T00:00:00	2024-11-08T02:00:00	2	Temperatura media	19.4
60418	7	Sololá	717	San Juan la Laguna	12	San Juan la Laguna	6	Junio	2023-06-18T00:00:00	2024-11-08T02:00:00	4	Temperatura máxima	19.8
60419	7	Sololá	717	San Juan la Laguna	12	San Juan la Laguna	6	Junio	2023-06-18T00:00:00	2024-11-08T02:00:00	3	Temperatura mínima	18.7
60420	7	Sololá	717	San Juan la Laguna	12	San Juan la Laguna	6	Junio	2023-06-18T00:00:00	2024-11-08T02:00:00	5	Humedad	74
60421	7	Sololá	717	San Juan la Laguna	12	San Juan la Laguna	6	Junio	2023-06-18T00:00:00	2024-11-08T02:00:00	6	Velocidad del viento	1.6
60422	7	Sololá	717	San Juan la Laguna	12	San Juan la Laguna	6	Junio	2023-06-18T00:00:00	2024-11-08T02:00:00	7	Dirección del viento	1.61
60423	7	Sololá	717	San Juan la Laguna	12	San Juan la Laguna	6	Junio	2023-06-18T00:00:00	2024-11-08T02:00:00	1	Precipitación	0
60424	7	Sololá	717	San Juan la Laguna	12	San Juan la Laguna	6	Junio	2023-06-18T00:00:00	2024-11-08T02:00:00	8	Radiación solar	0
60425	7	Sololá	717	San Juan la Laguna	12	San Juan la Laguna	6	Junio	2023-06-18T00:00:00	2024-11-08T03:00:00	2	Temperatura media	20.7
60426	7	Sololá	717	San Juan la Laguna	12	San Juan la Laguna	6	Junio	2023-06-18T00:00:00	2024-11-08T03:00:00	4	Temperatura máxima	20.7
60427	7	Sololá	717	San Juan la Laguna	12	San Juan la Laguna	6	Junio	2023-06-18T00:00:00	2024-11-08T03:00:00	3	Temperatura mínima	17.4
60428	7	Sololá	717	San Juan la Laguna	12	San Juan la Laguna	6	Junio	2023-06-18T00:00:00	2024-11-08T03:00:00	5	Humedad	62
60429	7	Sololá	717	San Juan la Laguna	12	San Juan la Laguna	6	Junio	2023-06-18T00:00:00	2024-11-08T03:00:00	6	Velocidad del viento	1.6
60430	7	Sololá	717	San Juan la Laguna	12	San Juan la Laguna	6	Junio	2023-06-18T00:00:00	2024-11-08T03:00:00	7	Dirección del viento	1.61
60431	7	Sololá	717	San Juan la Laguna	12	San Juan la Laguna	6	Junio	2023-06-18T00:00:00	2024-11-08T03:00:00	1	Precipitación	0
60432	7	Sololá	717	San Juan la Laguna	12	San Juan la Laguna	6	Junio	2023-06-18T00:00:00	2024-11-08T03:00:00	8	Radiación solar	0
60433	7	Sololá	717	San Juan la Laguna	12	San Juan la Laguna	6	Junio	2023-06-18T00:00:00	2024-11-08T04:00:00	2	Temperatura media	19.8
60434	7	Sololá	717	San Juan la Laguna	12	San Juan la Laguna	6	Junio	2023-06-18T00:00:00	2024-11-08T04:00:00	4	Temperatura máxima	20.8
60435	7	Sololá	717	San Juan la Laguna	12	San Juan la Laguna	6	Junio	2023-06-18T00:00:00	2024-11-08T04:00:00	3	Temperatura mínima	18.8
60436	7	Sololá	717	San Juan la Laguna	12	San Juan la Laguna	6	Junio	2023-06-18T00:00:00	2024-11-08T04:00:00	5	Humedad	63
60437	7	Sololá	717	San Juan la Laguna	12	San Juan la Laguna	6	Junio	2023-06-18T00:00:00	2024-11-08T04:00:00	6	Velocidad del viento	1.6
60438	7	Sololá	717	San Juan la Laguna	12	San Juan la Laguna	6	Junio	2023-06-18T00:00:00	2024-11-08T04:00:00	7	Dirección del viento	1.61
60439	7	Sololá	717	San Juan la Laguna	12	San Juan la Laguna	6	Junio	2023-06-18T00:00:00	2024-11-08T04:00:00	1	Precipitación	0
60440	7	Sololá	717	San Juan la Laguna	12	San Juan la Laguna	6	Junio	2023-06-18T00:00:00	2024-11-08T04:00:00	8	Radiación solar	0
60441	7	Sololá	717	San Juan la Laguna	12	San Juan la Laguna	6	Junio	2023-06-18T00:00:00	2024-11-08T05:00:00	2	Temperatura media	18.3
60442	7	Sololá	717	San Juan la Laguna	12	San Juan la Laguna	6	Junio	2023-06-18T00:00:00	2024-11-08T05:00:00	4	Temperatura máxima	20.7
60443	7	Sololá	717	San Juan la Laguna	12	San Juan la Laguna	6	Junio	2023-06-18T00:00:00	2024-11-08T05:00:00	3	Temperatura mínima	18.3
60444	7	Sololá	717	San Juan la Laguna	12	San Juan la Laguna	6	Junio	2023-06-18T00:00:00	2024-11-08T05:00:00	5	Humedad	70
60445	7	Sololá	717	San Juan la Laguna	12	San Juan la Laguna	6	Junio	2023-06-18T00:00:00	2024-11-08T05:00:00	6	Velocidad del viento	1.6
60446	7	Sololá	717	San Juan la Laguna	12	San Juan la Laguna	6	Junio	2023-06-18T00:00:00	2024-11-08T05:00:00	7	Dirección del viento	1.61
60447	7	Sololá	717	San Juan la Laguna	12	San Juan la Laguna	6	Junio	2023-06-18T00:00:00	2024-11-08T05:00:00	1	Precipitación	0
60448	7	Sololá	717	San Juan la Laguna	12	San Juan la Laguna	6	Junio	2023-06-18T00:00:00	2024-11-08T05:00:00	8	Radiación solar	0
60449	7	Sololá	717	San Juan la Laguna	12	San Juan la Laguna	6	Junio	2023-06-18T00:00:00	2024-11-08T06:00:00	2	Temperatura media	15.8
60450	7	Sololá	717	San Juan la Laguna	12	San Juan la Laguna	6	Junio	2023-06-18T00:00:00	2024-11-08T06:00:00	4	Temperatura máxima	18.3
60451	7	Sololá	717	San Juan la Laguna	12	San Juan la Laguna	6	Junio	2023-06-18T00:00:00	2024-11-08T06:00:00	3	Temperatura mínima	15.7
60452	7	Sololá	717	San Juan la Laguna	12	San Juan la Laguna	6	Junio	2023-06-18T00:00:00	2024-11-08T06:00:00	5	Humedad	78
60453	7	Sololá	717	San Juan la Laguna	12	San Juan la Laguna	6	Junio	2023-06-18T00:00:00	2024-11-08T06:00:00	6	Velocidad del viento	0
60454	7	Sololá	717	San Juan la Laguna	12	San Juan la Laguna	6	Junio	2023-06-18T00:00:00	2024-11-08T06:00:00	7	Dirección del viento	0
60455	7	Sololá	717	San Juan la Laguna	12	San Juan la Laguna	6	Junio	2023-06-18T00:00:00	2024-11-08T06:00:00	1	Precipitación	0
60456	7	Sololá	717	San Juan la Laguna	12	San Juan la Laguna	6	Junio	2023-06-18T00:00:00	2024-11-08T06:00:00	8	Radiación solar	5
60457	7	Sololá	717	San Juan la Laguna	12	San Juan la Laguna	6	Junio	2023-06-18T00:00:00	2024-11-08T07:00:00	2	Temperatura media	19.2
60458	7	Sololá	717	San Juan la Laguna	12	San Juan la Laguna	6	Junio	2023-06-18T00:00:00	2024-11-08T07:00:00	4	Temperatura máxima	19.2
60459	7	Sololá	717	San Juan la Laguna	12	San Juan la Laguna	6	Junio	2023-06-18T00:00:00	2024-11-08T07:00:00	3	Temperatura mínima	15.8
60460	7	Sololá	717	San Juan la Laguna	12	San Juan la Laguna	6	Junio	2023-06-18T00:00:00	2024-11-08T07:00:00	5	Humedad	73
60461	7	Sololá	717	San Juan la Laguna	12	San Juan la Laguna	6	Junio	2023-06-18T00:00:00	2024-11-08T07:00:00	6	Velocidad del viento	0
60462	7	Sololá	717	San Juan la Laguna	12	San Juan la Laguna	6	Junio	2023-06-18T00:00:00	2024-11-08T07:00:00	7	Dirección del viento	0
60463	7	Sololá	717	San Juan la Laguna	12	San Juan la Laguna	6	Junio	2023-06-18T00:00:00	2024-11-08T07:00:00	1	Precipitación	0
60464	7	Sololá	717	San Juan la Laguna	12	San Juan la Laguna	6	Junio	2023-06-18T00:00:00	2024-11-08T07:00:00	8	Radiación solar	120
60465	7	Sololá	717	San Juan la Laguna	12	San Juan la Laguna	6	Junio	2023-06-18T00:00:00	2024-11-08T08:00:00	2	Temperatura media	22.3
60466	7	Sololá	717	San Juan la Laguna	12	San Juan la Laguna	6	Junio	2023-06-18T00:00:00	2024-11-08T08:00:00	4	Temperatura máxima	22.4
60467	7	Sololá	717	San Juan la Laguna	12	San Juan la Laguna	6	Junio	2023-06-18T00:00:00	2024-11-08T08:00:00	3	Temperatura mínima	19.2
60468	7	Sololá	717	San Juan la Laguna	12	San Juan la Laguna	6	Junio	2023-06-18T00:00:00	2024-11-08T08:00:00	5	Humedad	61
60469	7	Sololá	717	San Juan la Laguna	12	San Juan la Laguna	6	Junio	2023-06-18T00:00:00	2024-11-08T08:00:00	6	Velocidad del viento	0
60470	7	Sololá	717	San Juan la Laguna	12	San Juan la Laguna	6	Junio	2023-06-18T00:00:00	2024-11-08T08:00:00	7	Dirección del viento	0
60471	7	Sololá	717	San Juan la Laguna	12	San Juan la Laguna	6	Junio	2023-06-18T00:00:00	2024-11-08T08:00:00	1	Precipitación	0
60472	7	Sololá	717	San Juan la Laguna	12	San Juan la Laguna	6	Junio	2023-06-18T00:00:00	2024-11-08T08:00:00	8	Radiación solar	338
60473	7	Sololá	717	San Juan la Laguna	12	San Juan la Laguna	6	Junio	2023-06-18T00:00:00	2024-11-08T09:00:00	2	Temperatura media	24.3
60474	7	Sololá	717	San Juan la Laguna	12	San Juan la Laguna	6	Junio	2023-06-18T00:00:00	2024-11-08T09:00:00	4	Temperatura máxima	24.3
60475	7	Sololá	717	San Juan la Laguna	12	San Juan la Laguna	6	Junio	2023-06-18T00:00:00	2024-11-08T09:00:00	3	Temperatura mínima	22.2
60476	7	Sololá	717	San Juan la Laguna	12	San Juan la Laguna	6	Junio	2023-06-18T00:00:00	2024-11-08T09:00:00	5	Humedad	57
60477	7	Sololá	717	San Juan la Laguna	12	San Juan la Laguna	6	Junio	2023-06-18T00:00:00	2024-11-08T09:00:00	6	Velocidad del viento	0
60478	7	Sololá	717	San Juan la Laguna	12	San Juan la Laguna	6	Junio	2023-06-18T00:00:00	2024-11-08T09:00:00	7	Dirección del viento	0
60479	7	Sololá	717	San Juan la Laguna	12	San Juan la Laguna	6	Junio	2023-06-18T00:00:00	2024-11-08T09:00:00	1	Precipitación	0
60480	7	Sololá	717	San Juan la Laguna	12	San Juan la Laguna	6	Junio	2023-06-18T00:00:00	2024-11-08T09:00:00	8	Radiación solar	548
60481	7	Sololá	717	San Juan la Laguna	12	San Juan la Laguna	6	Junio	2023-06-18T00:00:00	2024-11-08T10:00:00	2	Temperatura media	25.8
60482	7	Sololá	717	San Juan la Laguna	12	San Juan la Laguna	6	Junio	2023-06-18T00:00:00	2024-11-08T10:00:00	4	Temperatura máxima	25.8
60483	7	Sololá	717	San Juan la Laguna	12	San Juan la Laguna	6	Junio	2023-06-18T00:00:00	2024-11-08T10:00:00	3	Temperatura mínima	24.2
60484	7	Sololá	717	San Juan la Laguna	12	San Juan la Laguna	6	Junio	2023-06-18T00:00:00	2024-11-08T10:00:00	5	Humedad	48
60485	7	Sololá	717	San Juan la Laguna	12	San Juan la Laguna	6	Junio	2023-06-18T00:00:00	2024-11-08T10:00:00	6	Velocidad del viento	4.8
60486	7	Sololá	717	San Juan la Laguna	12	San Juan la Laguna	6	Junio	2023-06-18T00:00:00	2024-11-08T10:00:00	7	Dirección del viento	4.83
60487	7	Sololá	717	San Juan la Laguna	12	San Juan la Laguna	6	Junio	2023-06-18T00:00:00	2024-11-08T10:00:00	1	Precipitación	0
60488	7	Sololá	717	San Juan la Laguna	12	San Juan la Laguna	6	Junio	2023-06-18T00:00:00	2024-11-08T10:00:00	8	Radiación solar	726
60489	7	Sololá	717	San Juan la Laguna	12	San Juan la Laguna	6	Junio	2023-06-18T00:00:00	2024-11-08T11:00:00	2	Temperatura media	27.8
60490	7	Sololá	717	San Juan la Laguna	12	San Juan la Laguna	6	Junio	2023-06-18T00:00:00	2024-11-08T11:00:00	4	Temperatura máxima	27.8
60491	7	Sololá	717	San Juan la Laguna	12	San Juan la Laguna	6	Junio	2023-06-18T00:00:00	2024-11-08T11:00:00	3	Temperatura mínima	25.8
60492	7	Sololá	717	San Juan la Laguna	12	San Juan la Laguna	6	Junio	2023-06-18T00:00:00	2024-11-08T11:00:00	5	Humedad	38
60493	7	Sololá	717	San Juan la Laguna	12	San Juan la Laguna	6	Junio	2023-06-18T00:00:00	2024-11-08T11:00:00	6	Velocidad del viento	6.4
60494	7	Sololá	717	San Juan la Laguna	12	San Juan la Laguna	6	Junio	2023-06-18T00:00:00	2024-11-08T11:00:00	7	Dirección del viento	6.44
60495	7	Sololá	717	San Juan la Laguna	12	San Juan la Laguna	6	Junio	2023-06-18T00:00:00	2024-11-08T11:00:00	1	Precipitación	0
60496	7	Sololá	717	San Juan la Laguna	12	San Juan la Laguna	6	Junio	2023-06-18T00:00:00	2024-11-08T11:00:00	8	Radiación solar	856
60497	7	Sololá	717	San Juan la Laguna	12	San Juan la Laguna	6	Junio	2023-06-18T00:00:00	2024-11-08T12:00:00	2	Temperatura media	28.4
60498	7	Sololá	717	San Juan la Laguna	12	San Juan la Laguna	6	Junio	2023-06-18T00:00:00	2024-11-08T12:00:00	4	Temperatura máxima	28.7
60499	7	Sololá	717	San Juan la Laguna	12	San Juan la Laguna	6	Junio	2023-06-18T00:00:00	2024-11-08T12:00:00	3	Temperatura mínima	27.7
60500	7	Sololá	717	San Juan la Laguna	12	San Juan la Laguna	6	Junio	2023-06-18T00:00:00	2024-11-08T12:00:00	5	Humedad	39
60501	7	Sololá	717	San Juan la Laguna	12	San Juan la Laguna	6	Junio	2023-06-18T00:00:00	2024-11-08T12:00:00	6	Velocidad del viento	4.8
60502	7	Sololá	717	San Juan la Laguna	12	San Juan la Laguna	6	Junio	2023-06-18T00:00:00	2024-11-08T12:00:00	7	Dirección del viento	4.83
60503	7	Sololá	717	San Juan la Laguna	12	San Juan la Laguna	6	Junio	2023-06-18T00:00:00	2024-11-08T12:00:00	1	Precipitación	0
60504	7	Sololá	717	San Juan la Laguna	12	San Juan la Laguna	6	Junio	2023-06-18T00:00:00	2024-11-08T12:00:00	8	Radiación solar	933
60505	7	Sololá	717	San Juan la Laguna	12	San Juan la Laguna	6	Junio	2023-06-18T00:00:00	2024-11-08T13:00:00	2	Temperatura media	26.8
60506	7	Sololá	717	San Juan la Laguna	12	San Juan la Laguna	6	Junio	2023-06-18T00:00:00	2024-11-08T13:00:00	4	Temperatura máxima	28.5
60507	7	Sololá	717	San Juan la Laguna	12	San Juan la Laguna	6	Junio	2023-06-18T00:00:00	2024-11-08T13:00:00	3	Temperatura mínima	26.3
60508	7	Sololá	717	San Juan la Laguna	12	San Juan la Laguna	6	Junio	2023-06-18T00:00:00	2024-11-08T13:00:00	5	Humedad	50
60509	7	Sololá	717	San Juan la Laguna	12	San Juan la Laguna	6	Junio	2023-06-18T00:00:00	2024-11-08T13:00:00	6	Velocidad del viento	6.4
60510	7	Sololá	717	San Juan la Laguna	12	San Juan la Laguna	6	Junio	2023-06-18T00:00:00	2024-11-08T13:00:00	7	Dirección del viento	6.44
60511	7	Sololá	717	San Juan la Laguna	12	San Juan la Laguna	6	Junio	2023-06-18T00:00:00	2024-11-08T13:00:00	1	Precipitación	0
60512	7	Sololá	717	San Juan la Laguna	12	San Juan la Laguna	6	Junio	2023-06-18T00:00:00	2024-11-08T13:00:00	8	Radiación solar	947
60513	7	Sololá	717	San Juan la Laguna	12	San Juan la Laguna	6	Junio	2023-06-18T00:00:00	2024-11-08T14:00:00	2	Temperatura media	26.5
60514	7	Sololá	717	San Juan la Laguna	12	San Juan la Laguna	6	Junio	2023-06-18T00:00:00	2024-11-08T14:00:00	4	Temperatura máxima	27.2
60515	7	Sololá	717	San Juan la Laguna	12	San Juan la Laguna	6	Junio	2023-06-18T00:00:00	2024-11-08T14:00:00	3	Temperatura mínima	25.9
60516	7	Sololá	717	San Juan la Laguna	12	San Juan la Laguna	6	Junio	2023-06-18T00:00:00	2024-11-08T14:00:00	5	Humedad	59
60517	7	Sololá	717	San Juan la Laguna	12	San Juan la Laguna	6	Junio	2023-06-18T00:00:00	2024-11-08T14:00:00	6	Velocidad del viento	8
60518	7	Sololá	717	San Juan la Laguna	12	San Juan la Laguna	6	Junio	2023-06-18T00:00:00	2024-11-08T14:00:00	7	Dirección del viento	8.05
60519	7	Sololá	717	San Juan la Laguna	12	San Juan la Laguna	6	Junio	2023-06-18T00:00:00	2024-11-08T14:00:00	1	Precipitación	0
60520	7	Sololá	717	San Juan la Laguna	12	San Juan la Laguna	6	Junio	2023-06-18T00:00:00	2024-11-08T14:00:00	8	Radiación solar	904
60521	7	Sololá	717	San Juan la Laguna	12	San Juan la Laguna	6	Junio	2023-06-18T00:00:00	2024-11-08T15:00:00	2	Temperatura media	26.3
60522	7	Sololá	717	San Juan la Laguna	12	San Juan la Laguna	6	Junio	2023-06-18T00:00:00	2024-11-08T15:00:00	4	Temperatura máxima	26.9
60523	7	Sololá	717	San Juan la Laguna	12	San Juan la Laguna	6	Junio	2023-06-18T00:00:00	2024-11-08T15:00:00	3	Temperatura mínima	25.7
60524	7	Sololá	717	San Juan la Laguna	12	San Juan la Laguna	6	Junio	2023-06-18T00:00:00	2024-11-08T15:00:00	5	Humedad	64
60525	7	Sololá	717	San Juan la Laguna	12	San Juan la Laguna	6	Junio	2023-06-18T00:00:00	2024-11-08T15:00:00	6	Velocidad del viento	11.3
60526	7	Sololá	717	San Juan la Laguna	12	San Juan la Laguna	6	Junio	2023-06-18T00:00:00	2024-11-08T15:00:00	7	Dirección del viento	11.27
60527	7	Sololá	717	San Juan la Laguna	12	San Juan la Laguna	6	Junio	2023-06-18T00:00:00	2024-11-08T15:00:00	1	Precipitación	0
60528	7	Sololá	717	San Juan la Laguna	12	San Juan la Laguna	6	Junio	2023-06-18T00:00:00	2024-11-08T15:00:00	8	Radiación solar	834
60529	7	Sololá	717	San Juan la Laguna	12	San Juan la Laguna	6	Junio	2023-06-18T00:00:00	2024-11-08T16:00:00	2	Temperatura media	24.3
60530	7	Sololá	717	San Juan la Laguna	12	San Juan la Laguna	6	Junio	2023-06-18T00:00:00	2024-11-08T16:00:00	4	Temperatura máxima	26.4
60531	7	Sololá	717	San Juan la Laguna	12	San Juan la Laguna	6	Junio	2023-06-18T00:00:00	2024-11-08T16:00:00	3	Temperatura mínima	24.3
60532	7	Sololá	717	San Juan la Laguna	12	San Juan la Laguna	6	Junio	2023-06-18T00:00:00	2024-11-08T16:00:00	5	Humedad	71
60533	7	Sololá	717	San Juan la Laguna	12	San Juan la Laguna	6	Junio	2023-06-18T00:00:00	2024-11-08T16:00:00	6	Velocidad del viento	12.9
60534	7	Sololá	717	San Juan la Laguna	12	San Juan la Laguna	6	Junio	2023-06-18T00:00:00	2024-11-08T16:00:00	7	Dirección del viento	12.87
60535	7	Sololá	717	San Juan la Laguna	12	San Juan la Laguna	6	Junio	2023-06-18T00:00:00	2024-11-08T16:00:00	1	Precipitación	0
60536	7	Sololá	717	San Juan la Laguna	12	San Juan la Laguna	6	Junio	2023-06-18T00:00:00	2024-11-08T16:00:00	8	Radiación solar	633
60537	7	Sololá	717	San Juan la Laguna	12	San Juan la Laguna	6	Junio	2023-06-18T00:00:00	2024-11-08T17:00:00	2	Temperatura media	24.1
60538	7	Sololá	717	San Juan la Laguna	12	San Juan la Laguna	6	Junio	2023-06-18T00:00:00	2024-11-08T17:00:00	4	Temperatura máxima	25.2
60539	7	Sololá	717	San Juan la Laguna	12	San Juan la Laguna	6	Junio	2023-06-18T00:00:00	2024-11-08T17:00:00	3	Temperatura mínima	23.9
60540	7	Sololá	717	San Juan la Laguna	12	San Juan la Laguna	6	Junio	2023-06-18T00:00:00	2024-11-08T17:00:00	5	Humedad	72
60541	7	Sololá	717	San Juan la Laguna	12	San Juan la Laguna	6	Junio	2023-06-18T00:00:00	2024-11-08T17:00:00	6	Velocidad del viento	8
60542	7	Sololá	717	San Juan la Laguna	12	San Juan la Laguna	6	Junio	2023-06-18T00:00:00	2024-11-08T17:00:00	7	Dirección del viento	8.05
60543	7	Sololá	717	San Juan la Laguna	12	San Juan la Laguna	6	Junio	2023-06-18T00:00:00	2024-11-08T17:00:00	1	Precipitación	0
60544	7	Sololá	717	San Juan la Laguna	12	San Juan la Laguna	6	Junio	2023-06-18T00:00:00	2024-11-08T17:00:00	8	Radiación solar	366
60545	7	Sololá	717	San Juan la Laguna	12	San Juan la Laguna	6	Junio	2023-06-18T00:00:00	2024-11-08T18:00:00	2	Temperatura media	22.6
60546	7	Sololá	717	San Juan la Laguna	12	San Juan la Laguna	6	Junio	2023-06-18T00:00:00	2024-11-08T18:00:00	4	Temperatura máxima	24.1
60547	7	Sololá	717	San Juan la Laguna	12	San Juan la Laguna	6	Junio	2023-06-18T00:00:00	2024-11-08T18:00:00	3	Temperatura mínima	22.6
60548	7	Sololá	717	San Juan la Laguna	12	San Juan la Laguna	6	Junio	2023-06-18T00:00:00	2024-11-08T18:00:00	5	Humedad	78
60549	7	Sololá	717	San Juan la Laguna	12	San Juan la Laguna	6	Junio	2023-06-18T00:00:00	2024-11-08T18:00:00	6	Velocidad del viento	4.8
60550	7	Sololá	717	San Juan la Laguna	12	San Juan la Laguna	6	Junio	2023-06-18T00:00:00	2024-11-08T18:00:00	7	Dirección del viento	4.83
60551	7	Sololá	717	San Juan la Laguna	12	San Juan la Laguna	6	Junio	2023-06-18T00:00:00	2024-11-08T18:00:00	1	Precipitación	0
60552	7	Sololá	717	San Juan la Laguna	12	San Juan la Laguna	6	Junio	2023-06-18T00:00:00	2024-11-08T18:00:00	8	Radiación solar	92
60553	7	Sololá	717	San Juan la Laguna	12	San Juan la Laguna	6	Junio	2023-06-18T00:00:00	2024-11-08T19:00:00	2	Temperatura media	20.6
60554	7	Sololá	717	San Juan la Laguna	12	San Juan la Laguna	6	Junio	2023-06-18T00:00:00	2024-11-08T19:00:00	4	Temperatura máxima	22.6
60555	7	Sololá	717	San Juan la Laguna	12	San Juan la Laguna	6	Junio	2023-06-18T00:00:00	2024-11-08T19:00:00	3	Temperatura mínima	20.6
60556	7	Sololá	717	San Juan la Laguna	12	San Juan la Laguna	6	Junio	2023-06-18T00:00:00	2024-11-08T19:00:00	5	Humedad	84
60557	7	Sololá	717	San Juan la Laguna	12	San Juan la Laguna	6	Junio	2023-06-18T00:00:00	2024-11-08T19:00:00	6	Velocidad del viento	1.6
60558	7	Sololá	717	San Juan la Laguna	12	San Juan la Laguna	6	Junio	2023-06-18T00:00:00	2024-11-08T19:00:00	7	Dirección del viento	1.61
60559	7	Sololá	717	San Juan la Laguna	12	San Juan la Laguna	6	Junio	2023-06-18T00:00:00	2024-11-08T19:00:00	1	Precipitación	0
60560	7	Sololá	717	San Juan la Laguna	12	San Juan la Laguna	6	Junio	2023-06-18T00:00:00	2024-11-08T19:00:00	8	Radiación solar	0
60561	7	Sololá	717	San Juan la Laguna	12	San Juan la Laguna	6	Junio	2023-06-18T00:00:00	2024-11-08T20:00:00	2	Temperatura media	21
60562	7	Sololá	717	San Juan la Laguna	12	San Juan la Laguna	6	Junio	2023-06-18T00:00:00	2024-11-08T20:00:00	4	Temperatura máxima	21
60563	7	Sololá	717	San Juan la Laguna	12	San Juan la Laguna	6	Junio	2023-06-18T00:00:00	2024-11-08T20:00:00	3	Temperatura mínima	20.5
60564	7	Sololá	717	San Juan la Laguna	12	San Juan la Laguna	6	Junio	2023-06-18T00:00:00	2024-11-08T20:00:00	5	Humedad	85
60565	7	Sololá	717	San Juan la Laguna	12	San Juan la Laguna	6	Junio	2023-06-18T00:00:00	2024-11-08T20:00:00	6	Velocidad del viento	0
60566	7	Sololá	717	San Juan la Laguna	12	San Juan la Laguna	6	Junio	2023-06-18T00:00:00	2024-11-08T20:00:00	7	Dirección del viento	0
60567	7	Sololá	717	San Juan la Laguna	12	San Juan la Laguna	6	Junio	2023-06-18T00:00:00	2024-11-08T20:00:00	1	Precipitación	0
60568	7	Sololá	717	San Juan la Laguna	12	San Juan la Laguna	6	Junio	2023-06-18T00:00:00	2024-11-08T20:00:00	8	Radiación solar	0
60569	7	Sololá	717	San Juan la Laguna	12	San Juan la Laguna	6	Junio	2023-06-18T00:00:00	2024-11-08T21:00:00	2	Temperatura media	19.8
60570	7	Sololá	717	San Juan la Laguna	12	San Juan la Laguna	6	Junio	2023-06-18T00:00:00	2024-11-08T21:00:00	4	Temperatura máxima	21.2
60571	7	Sololá	717	San Juan la Laguna	12	San Juan la Laguna	6	Junio	2023-06-18T00:00:00	2024-11-08T21:00:00	3	Temperatura mínima	19.8
60572	7	Sololá	717	San Juan la Laguna	12	San Juan la Laguna	6	Junio	2023-06-18T00:00:00	2024-11-08T21:00:00	5	Humedad	87
60573	7	Sololá	717	San Juan la Laguna	12	San Juan la Laguna	6	Junio	2023-06-18T00:00:00	2024-11-08T21:00:00	6	Velocidad del viento	0
60574	7	Sololá	717	San Juan la Laguna	12	San Juan la Laguna	6	Junio	2023-06-18T00:00:00	2024-11-08T21:00:00	7	Dirección del viento	0
60575	7	Sololá	717	San Juan la Laguna	12	San Juan la Laguna	6	Junio	2023-06-18T00:00:00	2024-11-08T21:00:00	1	Precipitación	0
60576	7	Sololá	717	San Juan la Laguna	12	San Juan la Laguna	6	Junio	2023-06-18T00:00:00	2024-11-08T21:00:00	8	Radiación solar	0
60577	7	Sololá	717	San Juan la Laguna	12	San Juan la Laguna	6	Junio	2023-06-18T00:00:00	2024-11-08T22:00:00	2	Temperatura media	19.3
60578	7	Sololá	717	San Juan la Laguna	12	San Juan la Laguna	6	Junio	2023-06-18T00:00:00	2024-11-08T22:00:00	4	Temperatura máxima	19.9
60579	7	Sololá	717	San Juan la Laguna	12	San Juan la Laguna	6	Junio	2023-06-18T00:00:00	2024-11-08T22:00:00	3	Temperatura mínima	19.3
60580	7	Sololá	717	San Juan la Laguna	12	San Juan la Laguna	6	Junio	2023-06-18T00:00:00	2024-11-08T22:00:00	5	Humedad	81
60581	7	Sololá	717	San Juan la Laguna	12	San Juan la Laguna	6	Junio	2023-06-18T00:00:00	2024-11-08T22:00:00	6	Velocidad del viento	0
60582	7	Sololá	717	San Juan la Laguna	12	San Juan la Laguna	6	Junio	2023-06-18T00:00:00	2024-11-08T22:00:00	7	Dirección del viento	0
60583	7	Sololá	717	San Juan la Laguna	12	San Juan la Laguna	6	Junio	2023-06-18T00:00:00	2024-11-08T22:00:00	1	Precipitación	0
60584	7	Sololá	717	San Juan la Laguna	12	San Juan la Laguna	6	Junio	2023-06-18T00:00:00	2024-11-08T22:00:00	8	Radiación solar	0
60585	7	Sololá	717	San Juan la Laguna	12	San Juan la Laguna	6	Junio	2023-06-18T00:00:00	2024-11-08T23:00:00	2	Temperatura media	22.2
60586	7	Sololá	717	San Juan la Laguna	12	San Juan la Laguna	6	Junio	2023-06-18T00:00:00	2024-11-08T23:00:00	4	Temperatura máxima	22.2
60587	7	Sololá	717	San Juan la Laguna	12	San Juan la Laguna	6	Junio	2023-06-18T00:00:00	2024-11-08T23:00:00	3	Temperatura mínima	19.3
60588	7	Sololá	717	San Juan la Laguna	12	San Juan la Laguna	6	Junio	2023-06-18T00:00:00	2024-11-08T23:00:00	5	Humedad	63
60589	7	Sololá	717	San Juan la Laguna	12	San Juan la Laguna	6	Junio	2023-06-18T00:00:00	2024-11-08T23:00:00	6	Velocidad del viento	6.4
60590	7	Sololá	717	San Juan la Laguna	12	San Juan la Laguna	6	Junio	2023-06-18T00:00:00	2024-11-08T23:00:00	7	Dirección del viento	6.44
60591	7	Sololá	717	San Juan la Laguna	12	San Juan la Laguna	6	Junio	2023-06-18T00:00:00	2024-11-08T23:00:00	1	Precipitación	0
60592	7	Sololá	717	San Juan la Laguna	12	San Juan la Laguna	6	Junio	2023-06-18T00:00:00	2024-11-08T23:00:00	8	Radiación solar	0
60593	7	Sololá	717	San Juan la Laguna	12	San Juan la Laguna	6	Junio	2023-06-19T00:00:00	2024-11-08T00:00:00	2	Temperatura media	22
60594	7	Sololá	717	San Juan la Laguna	12	San Juan la Laguna	6	Junio	2023-06-19T00:00:00	2024-11-08T00:00:00	4	Temperatura máxima	22.2
60595	7	Sololá	717	San Juan la Laguna	12	San Juan la Laguna	6	Junio	2023-06-19T00:00:00	2024-11-08T00:00:00	3	Temperatura mínima	22
60596	7	Sololá	717	San Juan la Laguna	12	San Juan la Laguna	6	Junio	2023-06-19T00:00:00	2024-11-08T00:00:00	5	Humedad	63
60597	7	Sololá	717	San Juan la Laguna	12	San Juan la Laguna	6	Junio	2023-06-19T00:00:00	2024-11-08T00:00:00	6	Velocidad del viento	11.3
60598	7	Sololá	717	San Juan la Laguna	12	San Juan la Laguna	6	Junio	2023-06-19T00:00:00	2024-11-08T00:00:00	7	Dirección del viento	11.27
60599	7	Sololá	717	San Juan la Laguna	12	San Juan la Laguna	6	Junio	2023-06-19T00:00:00	2024-11-08T00:00:00	1	Precipitación	0
60600	7	Sololá	717	San Juan la Laguna	12	San Juan la Laguna	6	Junio	2023-06-19T00:00:00	2024-11-08T00:00:00	8	Radiación solar	0
60601	7	Sololá	717	San Juan la Laguna	12	San Juan la Laguna	6	Junio	2023-06-19T00:00:00	2024-11-08T01:00:00	2	Temperatura media	22
60602	7	Sololá	717	San Juan la Laguna	12	San Juan la Laguna	6	Junio	2023-06-19T00:00:00	2024-11-08T01:00:00	4	Temperatura máxima	22.1
60603	7	Sololá	717	San Juan la Laguna	12	San Juan la Laguna	6	Junio	2023-06-19T00:00:00	2024-11-08T01:00:00	3	Temperatura mínima	21.8
60604	7	Sololá	717	San Juan la Laguna	12	San Juan la Laguna	6	Junio	2023-06-19T00:00:00	2024-11-08T01:00:00	5	Humedad	60
60605	7	Sololá	717	San Juan la Laguna	12	San Juan la Laguna	6	Junio	2023-06-19T00:00:00	2024-11-08T01:00:00	6	Velocidad del viento	4.8
60606	7	Sololá	717	San Juan la Laguna	12	San Juan la Laguna	6	Junio	2023-06-19T00:00:00	2024-11-08T01:00:00	7	Dirección del viento	4.83
60607	7	Sololá	717	San Juan la Laguna	12	San Juan la Laguna	6	Junio	2023-06-19T00:00:00	2024-11-08T01:00:00	1	Precipitación	0
60608	7	Sololá	717	San Juan la Laguna	12	San Juan la Laguna	6	Junio	2023-06-19T00:00:00	2024-11-08T01:00:00	8	Radiación solar	0
60609	7	Sololá	717	San Juan la Laguna	12	San Juan la Laguna	6	Junio	2023-06-19T00:00:00	2024-11-08T02:00:00	2	Temperatura media	21.5
60610	7	Sololá	717	San Juan la Laguna	12	San Juan la Laguna	6	Junio	2023-06-19T00:00:00	2024-11-08T02:00:00	4	Temperatura máxima	22
60611	7	Sololá	717	San Juan la Laguna	12	San Juan la Laguna	6	Junio	2023-06-19T00:00:00	2024-11-08T02:00:00	3	Temperatura mínima	21.5
60612	7	Sololá	717	San Juan la Laguna	12	San Juan la Laguna	6	Junio	2023-06-19T00:00:00	2024-11-08T02:00:00	5	Humedad	63
60613	7	Sololá	717	San Juan la Laguna	12	San Juan la Laguna	6	Junio	2023-06-19T00:00:00	2024-11-08T02:00:00	6	Velocidad del viento	4.8
60614	7	Sololá	717	San Juan la Laguna	12	San Juan la Laguna	6	Junio	2023-06-19T00:00:00	2024-11-08T02:00:00	7	Dirección del viento	4.83
60615	7	Sololá	717	San Juan la Laguna	12	San Juan la Laguna	6	Junio	2023-06-19T00:00:00	2024-11-08T02:00:00	1	Precipitación	0
60616	7	Sololá	717	San Juan la Laguna	12	San Juan la Laguna	6	Junio	2023-06-19T00:00:00	2024-11-08T02:00:00	8	Radiación solar	0
60617	7	Sololá	717	San Juan la Laguna	12	San Juan la Laguna	6	Junio	2023-06-19T00:00:00	2024-11-08T03:00:00	2	Temperatura media	21.6
60618	7	Sololá	717	San Juan la Laguna	12	San Juan la Laguna	6	Junio	2023-06-19T00:00:00	2024-11-08T03:00:00	4	Temperatura máxima	21.7
60619	7	Sololá	717	San Juan la Laguna	12	San Juan la Laguna	6	Junio	2023-06-19T00:00:00	2024-11-08T03:00:00	3	Temperatura mínima	21.5
60620	7	Sololá	717	San Juan la Laguna	12	San Juan la Laguna	6	Junio	2023-06-19T00:00:00	2024-11-08T03:00:00	5	Humedad	62
60621	7	Sololá	717	San Juan la Laguna	12	San Juan la Laguna	6	Junio	2023-06-19T00:00:00	2024-11-08T03:00:00	6	Velocidad del viento	3.2
60622	7	Sololá	717	San Juan la Laguna	12	San Juan la Laguna	6	Junio	2023-06-19T00:00:00	2024-11-08T03:00:00	7	Dirección del viento	3.22
60623	7	Sololá	717	San Juan la Laguna	12	San Juan la Laguna	6	Junio	2023-06-19T00:00:00	2024-11-08T03:00:00	1	Precipitación	0
60624	7	Sololá	717	San Juan la Laguna	12	San Juan la Laguna	6	Junio	2023-06-19T00:00:00	2024-11-08T03:00:00	8	Radiación solar	0
60625	7	Sololá	717	San Juan la Laguna	12	San Juan la Laguna	6	Junio	2023-06-19T00:00:00	2024-11-08T04:00:00	2	Temperatura media	19.4
60626	7	Sololá	717	San Juan la Laguna	12	San Juan la Laguna	6	Junio	2023-06-19T00:00:00	2024-11-08T04:00:00	4	Temperatura máxima	21.6
60627	7	Sololá	717	San Juan la Laguna	12	San Juan la Laguna	6	Junio	2023-06-19T00:00:00	2024-11-08T04:00:00	3	Temperatura mínima	19.4
60628	7	Sololá	717	San Juan la Laguna	12	San Juan la Laguna	6	Junio	2023-06-19T00:00:00	2024-11-08T04:00:00	5	Humedad	71
60629	7	Sololá	717	San Juan la Laguna	12	San Juan la Laguna	6	Junio	2023-06-19T00:00:00	2024-11-08T04:00:00	6	Velocidad del viento	0
60630	7	Sololá	717	San Juan la Laguna	12	San Juan la Laguna	6	Junio	2023-06-19T00:00:00	2024-11-08T04:00:00	7	Dirección del viento	0
60631	7	Sololá	717	San Juan la Laguna	12	San Juan la Laguna	6	Junio	2023-06-19T00:00:00	2024-11-08T04:00:00	1	Precipitación	0
60632	7	Sololá	717	San Juan la Laguna	12	San Juan la Laguna	6	Junio	2023-06-19T00:00:00	2024-11-08T04:00:00	8	Radiación solar	0
60633	7	Sololá	717	San Juan la Laguna	12	San Juan la Laguna	6	Junio	2023-06-19T00:00:00	2024-11-08T05:00:00	2	Temperatura media	18.8
60634	7	Sololá	717	San Juan la Laguna	12	San Juan la Laguna	6	Junio	2023-06-19T00:00:00	2024-11-08T05:00:00	4	Temperatura máxima	19.3
60635	7	Sololá	717	San Juan la Laguna	12	San Juan la Laguna	6	Junio	2023-06-19T00:00:00	2024-11-08T05:00:00	3	Temperatura mínima	18.7
60636	7	Sololá	717	San Juan la Laguna	12	San Juan la Laguna	6	Junio	2023-06-19T00:00:00	2024-11-08T05:00:00	5	Humedad	75
60637	7	Sololá	717	San Juan la Laguna	12	San Juan la Laguna	6	Junio	2023-06-19T00:00:00	2024-11-08T05:00:00	6	Velocidad del viento	0
60638	7	Sololá	717	San Juan la Laguna	12	San Juan la Laguna	6	Junio	2023-06-19T00:00:00	2024-11-08T05:00:00	7	Dirección del viento	0
60639	7	Sololá	717	San Juan la Laguna	12	San Juan la Laguna	6	Junio	2023-06-19T00:00:00	2024-11-08T05:00:00	1	Precipitación	0
60640	7	Sololá	717	San Juan la Laguna	12	San Juan la Laguna	6	Junio	2023-06-19T00:00:00	2024-11-08T05:00:00	8	Radiación solar	0
60641	7	Sololá	717	San Juan la Laguna	12	San Juan la Laguna	6	Junio	2023-06-19T00:00:00	2024-11-08T06:00:00	2	Temperatura media	21.3
60642	7	Sololá	717	San Juan la Laguna	12	San Juan la Laguna	6	Junio	2023-06-19T00:00:00	2024-11-08T06:00:00	4	Temperatura máxima	21.3
60643	7	Sololá	717	San Juan la Laguna	12	San Juan la Laguna	6	Junio	2023-06-19T00:00:00	2024-11-08T06:00:00	3	Temperatura mínima	18.8
60644	7	Sololá	717	San Juan la Laguna	12	San Juan la Laguna	6	Junio	2023-06-19T00:00:00	2024-11-08T06:00:00	5	Humedad	66
60645	7	Sololá	717	San Juan la Laguna	12	San Juan la Laguna	6	Junio	2023-06-19T00:00:00	2024-11-08T06:00:00	6	Velocidad del viento	1.6
60646	7	Sololá	717	San Juan la Laguna	12	San Juan la Laguna	6	Junio	2023-06-19T00:00:00	2024-11-08T06:00:00	7	Dirección del viento	1.61
60647	7	Sololá	717	San Juan la Laguna	12	San Juan la Laguna	6	Junio	2023-06-19T00:00:00	2024-11-08T06:00:00	1	Precipitación	0
60648	7	Sololá	717	San Juan la Laguna	12	San Juan la Laguna	6	Junio	2023-06-19T00:00:00	2024-11-08T06:00:00	8	Radiación solar	5
60649	7	Sololá	717	San Juan la Laguna	12	San Juan la Laguna	6	Junio	2023-06-19T00:00:00	2024-11-08T07:00:00	2	Temperatura media	22.3
60650	7	Sololá	717	San Juan la Laguna	12	San Juan la Laguna	6	Junio	2023-06-19T00:00:00	2024-11-08T07:00:00	4	Temperatura máxima	22.8
60651	7	Sololá	717	San Juan la Laguna	12	San Juan la Laguna	6	Junio	2023-06-19T00:00:00	2024-11-08T07:00:00	3	Temperatura mínima	21.2
60652	7	Sololá	717	San Juan la Laguna	12	San Juan la Laguna	6	Junio	2023-06-19T00:00:00	2024-11-08T07:00:00	5	Humedad	65
60653	7	Sololá	717	San Juan la Laguna	12	San Juan la Laguna	6	Junio	2023-06-19T00:00:00	2024-11-08T07:00:00	6	Velocidad del viento	0
60654	7	Sololá	717	San Juan la Laguna	12	San Juan la Laguna	6	Junio	2023-06-19T00:00:00	2024-11-08T07:00:00	7	Dirección del viento	0
60655	7	Sololá	717	San Juan la Laguna	12	San Juan la Laguna	6	Junio	2023-06-19T00:00:00	2024-11-08T07:00:00	1	Precipitación	0
60656	7	Sololá	717	San Juan la Laguna	12	San Juan la Laguna	6	Junio	2023-06-19T00:00:00	2024-11-08T07:00:00	8	Radiación solar	156
60657	7	Sololá	717	San Juan la Laguna	12	San Juan la Laguna	6	Junio	2023-06-19T00:00:00	2024-11-08T08:00:00	2	Temperatura media	23.5
60658	7	Sololá	717	San Juan la Laguna	12	San Juan la Laguna	6	Junio	2023-06-19T00:00:00	2024-11-08T08:00:00	4	Temperatura máxima	23.6
60659	7	Sololá	717	San Juan la Laguna	12	San Juan la Laguna	6	Junio	2023-06-19T00:00:00	2024-11-08T08:00:00	3	Temperatura mínima	22.2
60660	7	Sololá	717	San Juan la Laguna	12	San Juan la Laguna	6	Junio	2023-06-19T00:00:00	2024-11-08T08:00:00	5	Humedad	62
60661	7	Sololá	717	San Juan la Laguna	12	San Juan la Laguna	6	Junio	2023-06-19T00:00:00	2024-11-08T08:00:00	6	Velocidad del viento	1.6
60662	7	Sololá	717	San Juan la Laguna	12	San Juan la Laguna	6	Junio	2023-06-19T00:00:00	2024-11-08T08:00:00	7	Dirección del viento	1.61
60663	7	Sololá	717	San Juan la Laguna	12	San Juan la Laguna	6	Junio	2023-06-19T00:00:00	2024-11-08T08:00:00	1	Precipitación	0
60664	7	Sololá	717	San Juan la Laguna	12	San Juan la Laguna	6	Junio	2023-06-19T00:00:00	2024-11-08T08:00:00	8	Radiación solar	293
60665	7	Sololá	717	San Juan la Laguna	12	San Juan la Laguna	6	Junio	2023-06-19T00:00:00	2024-11-08T09:00:00	2	Temperatura media	23.9
60666	7	Sololá	717	San Juan la Laguna	12	San Juan la Laguna	6	Junio	2023-06-19T00:00:00	2024-11-08T09:00:00	4	Temperatura máxima	23.9
60667	7	Sololá	717	San Juan la Laguna	12	San Juan la Laguna	6	Junio	2023-06-19T00:00:00	2024-11-08T09:00:00	3	Temperatura mínima	23.4
60668	7	Sololá	717	San Juan la Laguna	12	San Juan la Laguna	6	Junio	2023-06-19T00:00:00	2024-11-08T09:00:00	5	Humedad	60
60669	7	Sololá	717	San Juan la Laguna	12	San Juan la Laguna	6	Junio	2023-06-19T00:00:00	2024-11-08T09:00:00	6	Velocidad del viento	6.4
60670	7	Sololá	717	San Juan la Laguna	12	San Juan la Laguna	6	Junio	2023-06-19T00:00:00	2024-11-08T09:00:00	7	Dirección del viento	6.44
60671	7	Sololá	717	San Juan la Laguna	12	San Juan la Laguna	6	Junio	2023-06-19T00:00:00	2024-11-08T09:00:00	1	Precipitación	0
60672	7	Sololá	717	San Juan la Laguna	12	San Juan la Laguna	6	Junio	2023-06-19T00:00:00	2024-11-08T09:00:00	8	Radiación solar	552
60673	7	Sololá	717	San Juan la Laguna	12	San Juan la Laguna	6	Junio	2023-06-19T00:00:00	2024-11-08T10:00:00	2	Temperatura media	24.5
60674	7	Sololá	717	San Juan la Laguna	12	San Juan la Laguna	6	Junio	2023-06-19T00:00:00	2024-11-08T10:00:00	4	Temperatura máxima	24.6
60675	7	Sololá	717	San Juan la Laguna	12	San Juan la Laguna	6	Junio	2023-06-19T00:00:00	2024-11-08T10:00:00	3	Temperatura mínima	23.9
60676	7	Sololá	717	San Juan la Laguna	12	San Juan la Laguna	6	Junio	2023-06-19T00:00:00	2024-11-08T10:00:00	5	Humedad	60
60677	7	Sololá	717	San Juan la Laguna	12	San Juan la Laguna	6	Junio	2023-06-19T00:00:00	2024-11-08T10:00:00	6	Velocidad del viento	6.4
60678	7	Sololá	717	San Juan la Laguna	12	San Juan la Laguna	6	Junio	2023-06-19T00:00:00	2024-11-08T10:00:00	7	Dirección del viento	6.44
60679	7	Sololá	717	San Juan la Laguna	12	San Juan la Laguna	6	Junio	2023-06-19T00:00:00	2024-11-08T10:00:00	1	Precipitación	0
60680	7	Sololá	717	San Juan la Laguna	12	San Juan la Laguna	6	Junio	2023-06-19T00:00:00	2024-11-08T10:00:00	8	Radiación solar	700
60681	7	Sololá	717	San Juan la Laguna	12	San Juan la Laguna	6	Junio	2023-06-19T00:00:00	2024-11-08T11:00:00	2	Temperatura media	25
60682	7	Sololá	717	San Juan la Laguna	12	San Juan la Laguna	6	Junio	2023-06-19T00:00:00	2024-11-08T11:00:00	4	Temperatura máxima	25
60683	7	Sololá	717	San Juan la Laguna	12	San Juan la Laguna	6	Junio	2023-06-19T00:00:00	2024-11-08T11:00:00	3	Temperatura mínima	24.1
60684	7	Sololá	717	San Juan la Laguna	12	San Juan la Laguna	6	Junio	2023-06-19T00:00:00	2024-11-08T11:00:00	5	Humedad	62
60685	7	Sololá	717	San Juan la Laguna	12	San Juan la Laguna	6	Junio	2023-06-19T00:00:00	2024-11-08T11:00:00	6	Velocidad del viento	4.8
60686	7	Sololá	717	San Juan la Laguna	12	San Juan la Laguna	6	Junio	2023-06-19T00:00:00	2024-11-08T11:00:00	7	Dirección del viento	4.83
60687	7	Sololá	717	San Juan la Laguna	12	San Juan la Laguna	6	Junio	2023-06-19T00:00:00	2024-11-08T11:00:00	1	Precipitación	0
60688	7	Sololá	717	San Juan la Laguna	12	San Juan la Laguna	6	Junio	2023-06-19T00:00:00	2024-11-08T11:00:00	8	Radiación solar	762
60689	7	Sololá	717	San Juan la Laguna	12	San Juan la Laguna	6	Junio	2023-06-19T00:00:00	2024-11-08T12:00:00	2	Temperatura media	24.9
60690	7	Sololá	717	San Juan la Laguna	12	San Juan la Laguna	6	Junio	2023-06-19T00:00:00	2024-11-08T12:00:00	4	Temperatura máxima	25.6
60691	7	Sololá	717	San Juan la Laguna	12	San Juan la Laguna	6	Junio	2023-06-19T00:00:00	2024-11-08T12:00:00	3	Temperatura mínima	24
60692	7	Sololá	717	San Juan la Laguna	12	San Juan la Laguna	6	Junio	2023-06-19T00:00:00	2024-11-08T12:00:00	5	Humedad	66
60693	7	Sololá	717	San Juan la Laguna	12	San Juan la Laguna	6	Junio	2023-06-19T00:00:00	2024-11-08T12:00:00	6	Velocidad del viento	6.4
60694	7	Sololá	717	San Juan la Laguna	12	San Juan la Laguna	6	Junio	2023-06-19T00:00:00	2024-11-08T12:00:00	7	Dirección del viento	6.44
60695	7	Sololá	717	San Juan la Laguna	12	San Juan la Laguna	6	Junio	2023-06-19T00:00:00	2024-11-08T12:00:00	1	Precipitación	0
60696	7	Sololá	717	San Juan la Laguna	12	San Juan la Laguna	6	Junio	2023-06-19T00:00:00	2024-11-08T12:00:00	8	Radiación solar	654
60697	7	Sololá	717	San Juan la Laguna	12	San Juan la Laguna	6	Junio	2023-06-19T00:00:00	2024-11-08T13:00:00	2	Temperatura media	23.2
60698	7	Sololá	717	San Juan la Laguna	12	San Juan la Laguna	6	Junio	2023-06-19T00:00:00	2024-11-08T13:00:00	4	Temperatura máxima	24.9
60699	7	Sololá	717	San Juan la Laguna	12	San Juan la Laguna	6	Junio	2023-06-19T00:00:00	2024-11-08T13:00:00	3	Temperatura mínima	23.2
60700	7	Sololá	717	San Juan la Laguna	12	San Juan la Laguna	6	Junio	2023-06-19T00:00:00	2024-11-08T13:00:00	5	Humedad	72
60701	7	Sololá	717	San Juan la Laguna	12	San Juan la Laguna	6	Junio	2023-06-19T00:00:00	2024-11-08T13:00:00	6	Velocidad del viento	8
60702	7	Sololá	717	San Juan la Laguna	12	San Juan la Laguna	6	Junio	2023-06-19T00:00:00	2024-11-08T13:00:00	7	Dirección del viento	8.05
60703	7	Sololá	717	San Juan la Laguna	12	San Juan la Laguna	6	Junio	2023-06-19T00:00:00	2024-11-08T13:00:00	1	Precipitación	0
60704	7	Sololá	717	San Juan la Laguna	12	San Juan la Laguna	6	Junio	2023-06-19T00:00:00	2024-11-08T13:00:00	8	Radiación solar	413
60705	7	Sololá	717	San Juan la Laguna	12	San Juan la Laguna	6	Junio	2023-06-19T00:00:00	2024-11-08T14:00:00	2	Temperatura media	24.1
60706	7	Sololá	717	San Juan la Laguna	12	San Juan la Laguna	6	Junio	2023-06-19T00:00:00	2024-11-08T14:00:00	4	Temperatura máxima	24.6
60707	7	Sololá	717	San Juan la Laguna	12	San Juan la Laguna	6	Junio	2023-06-19T00:00:00	2024-11-08T14:00:00	3	Temperatura mínima	22.9
60708	7	Sololá	717	San Juan la Laguna	12	San Juan la Laguna	6	Junio	2023-06-19T00:00:00	2024-11-08T14:00:00	5	Humedad	72
60709	7	Sololá	717	San Juan la Laguna	12	San Juan la Laguna	6	Junio	2023-06-19T00:00:00	2024-11-08T14:00:00	6	Velocidad del viento	6.4
60710	7	Sololá	717	San Juan la Laguna	12	San Juan la Laguna	6	Junio	2023-06-19T00:00:00	2024-11-08T14:00:00	7	Dirección del viento	6.44
60711	7	Sololá	717	San Juan la Laguna	12	San Juan la Laguna	6	Junio	2023-06-19T00:00:00	2024-11-08T14:00:00	1	Precipitación	0
60712	7	Sololá	717	San Juan la Laguna	12	San Juan la Laguna	6	Junio	2023-06-19T00:00:00	2024-11-08T14:00:00	8	Radiación solar	647
60713	7	Sololá	717	San Juan la Laguna	12	San Juan la Laguna	6	Junio	2023-06-19T00:00:00	2024-11-08T15:00:00	2	Temperatura media	23.6
60714	7	Sololá	717	San Juan la Laguna	12	San Juan la Laguna	6	Junio	2023-06-19T00:00:00	2024-11-08T15:00:00	4	Temperatura máxima	24.7
60715	7	Sololá	717	San Juan la Laguna	12	San Juan la Laguna	6	Junio	2023-06-19T00:00:00	2024-11-08T15:00:00	3	Temperatura mínima	23.3
60716	7	Sololá	717	San Juan la Laguna	12	San Juan la Laguna	6	Junio	2023-06-19T00:00:00	2024-11-08T15:00:00	5	Humedad	73
60717	7	Sololá	717	San Juan la Laguna	12	San Juan la Laguna	6	Junio	2023-06-19T00:00:00	2024-11-08T15:00:00	6	Velocidad del viento	8
60718	7	Sololá	717	San Juan la Laguna	12	San Juan la Laguna	6	Junio	2023-06-19T00:00:00	2024-11-08T15:00:00	7	Dirección del viento	8.05
60719	7	Sololá	717	San Juan la Laguna	12	San Juan la Laguna	6	Junio	2023-06-19T00:00:00	2024-11-08T15:00:00	1	Precipitación	0
60720	7	Sololá	717	San Juan la Laguna	12	San Juan la Laguna	6	Junio	2023-06-19T00:00:00	2024-11-08T15:00:00	8	Radiación solar	705
60721	7	Sololá	717	San Juan la Laguna	12	San Juan la Laguna	6	Junio	2023-06-19T00:00:00	2024-11-08T16:00:00	2	Temperatura media	22.7
60722	7	Sololá	717	San Juan la Laguna	12	San Juan la Laguna	6	Junio	2023-06-19T00:00:00	2024-11-08T16:00:00	4	Temperatura máxima	24.4
60723	7	Sololá	717	San Juan la Laguna	12	San Juan la Laguna	6	Junio	2023-06-19T00:00:00	2024-11-08T16:00:00	3	Temperatura mínima	22.7
60724	7	Sololá	717	San Juan la Laguna	12	San Juan la Laguna	6	Junio	2023-06-19T00:00:00	2024-11-08T16:00:00	5	Humedad	77
60725	7	Sololá	717	San Juan la Laguna	12	San Juan la Laguna	6	Junio	2023-06-19T00:00:00	2024-11-08T16:00:00	6	Velocidad del viento	9.7
60726	7	Sololá	717	San Juan la Laguna	12	San Juan la Laguna	6	Junio	2023-06-19T00:00:00	2024-11-08T16:00:00	7	Dirección del viento	9.66
60727	7	Sololá	717	San Juan la Laguna	12	San Juan la Laguna	6	Junio	2023-06-19T00:00:00	2024-11-08T16:00:00	1	Precipitación	0
60728	7	Sololá	717	San Juan la Laguna	12	San Juan la Laguna	6	Junio	2023-06-19T00:00:00	2024-11-08T16:00:00	8	Radiación solar	591
60729	7	Sololá	717	San Juan la Laguna	12	San Juan la Laguna	6	Junio	2023-06-19T00:00:00	2024-11-08T17:00:00	2	Temperatura media	22.2
60730	7	Sololá	717	San Juan la Laguna	12	San Juan la Laguna	6	Junio	2023-06-19T00:00:00	2024-11-08T17:00:00	4	Temperatura máxima	23.7
60731	7	Sololá	717	San Juan la Laguna	12	San Juan la Laguna	6	Junio	2023-06-19T00:00:00	2024-11-08T17:00:00	3	Temperatura mínima	22.2
60732	7	Sololá	717	San Juan la Laguna	12	San Juan la Laguna	6	Junio	2023-06-19T00:00:00	2024-11-08T17:00:00	5	Humedad	77
60733	7	Sololá	717	San Juan la Laguna	12	San Juan la Laguna	6	Junio	2023-06-19T00:00:00	2024-11-08T17:00:00	6	Velocidad del viento	8
60734	7	Sololá	717	San Juan la Laguna	12	San Juan la Laguna	6	Junio	2023-06-19T00:00:00	2024-11-08T17:00:00	7	Dirección del viento	8.05
60735	7	Sololá	717	San Juan la Laguna	12	San Juan la Laguna	6	Junio	2023-06-19T00:00:00	2024-11-08T17:00:00	1	Precipitación	0
60736	7	Sololá	717	San Juan la Laguna	12	San Juan la Laguna	6	Junio	2023-06-19T00:00:00	2024-11-08T17:00:00	8	Radiación solar	228
60737	7	Sololá	717	San Juan la Laguna	12	San Juan la Laguna	6	Junio	2023-06-19T00:00:00	2024-11-08T18:00:00	2	Temperatura media	21.7
60738	7	Sololá	717	San Juan la Laguna	12	San Juan la Laguna	6	Junio	2023-06-19T00:00:00	2024-11-08T18:00:00	4	Temperatura máxima	22.3
60739	7	Sololá	717	San Juan la Laguna	12	San Juan la Laguna	6	Junio	2023-06-19T00:00:00	2024-11-08T18:00:00	3	Temperatura mínima	21.7
60740	7	Sololá	717	San Juan la Laguna	12	San Juan la Laguna	6	Junio	2023-06-19T00:00:00	2024-11-08T18:00:00	5	Humedad	82
60741	7	Sololá	717	San Juan la Laguna	12	San Juan la Laguna	6	Junio	2023-06-19T00:00:00	2024-11-08T18:00:00	6	Velocidad del viento	3.2
60742	7	Sololá	717	San Juan la Laguna	12	San Juan la Laguna	6	Junio	2023-06-19T00:00:00	2024-11-08T18:00:00	7	Dirección del viento	3.22
60743	7	Sololá	717	San Juan la Laguna	12	San Juan la Laguna	6	Junio	2023-06-19T00:00:00	2024-11-08T18:00:00	1	Precipitación	0
60744	7	Sololá	717	San Juan la Laguna	12	San Juan la Laguna	6	Junio	2023-06-19T00:00:00	2024-11-08T18:00:00	8	Radiación solar	33
60745	7	Sololá	717	San Juan la Laguna	12	San Juan la Laguna	6	Junio	2023-06-19T00:00:00	2024-11-08T19:00:00	2	Temperatura media	21
60746	7	Sololá	717	San Juan la Laguna	12	San Juan la Laguna	6	Junio	2023-06-19T00:00:00	2024-11-08T19:00:00	4	Temperatura máxima	21.7
60747	7	Sololá	717	San Juan la Laguna	12	San Juan la Laguna	6	Junio	2023-06-19T00:00:00	2024-11-08T19:00:00	3	Temperatura mínima	20.9
60748	7	Sololá	717	San Juan la Laguna	12	San Juan la Laguna	6	Junio	2023-06-19T00:00:00	2024-11-08T19:00:00	5	Humedad	84
60749	7	Sololá	717	San Juan la Laguna	12	San Juan la Laguna	6	Junio	2023-06-19T00:00:00	2024-11-08T19:00:00	6	Velocidad del viento	1.6
60750	7	Sololá	717	San Juan la Laguna	12	San Juan la Laguna	6	Junio	2023-06-19T00:00:00	2024-11-08T19:00:00	7	Dirección del viento	1.61
60751	7	Sololá	717	San Juan la Laguna	12	San Juan la Laguna	6	Junio	2023-06-19T00:00:00	2024-11-08T19:00:00	1	Precipitación	0
60752	7	Sololá	717	San Juan la Laguna	12	San Juan la Laguna	6	Junio	2023-06-19T00:00:00	2024-11-08T19:00:00	8	Radiación solar	0
60753	7	Sololá	717	San Juan la Laguna	12	San Juan la Laguna	6	Junio	2023-06-19T00:00:00	2024-11-08T20:00:00	2	Temperatura media	20.8
60754	7	Sololá	717	San Juan la Laguna	12	San Juan la Laguna	6	Junio	2023-06-19T00:00:00	2024-11-08T20:00:00	4	Temperatura máxima	21
60755	7	Sololá	717	San Juan la Laguna	12	San Juan la Laguna	6	Junio	2023-06-19T00:00:00	2024-11-08T20:00:00	3	Temperatura mínima	20.8
60756	7	Sololá	717	San Juan la Laguna	12	San Juan la Laguna	6	Junio	2023-06-19T00:00:00	2024-11-08T20:00:00	5	Humedad	84
60757	7	Sololá	717	San Juan la Laguna	12	San Juan la Laguna	6	Junio	2023-06-19T00:00:00	2024-11-08T20:00:00	6	Velocidad del viento	1.6
60758	7	Sololá	717	San Juan la Laguna	12	San Juan la Laguna	6	Junio	2023-06-19T00:00:00	2024-11-08T20:00:00	7	Dirección del viento	1.61
60759	7	Sololá	717	San Juan la Laguna	12	San Juan la Laguna	6	Junio	2023-06-19T00:00:00	2024-11-08T20:00:00	1	Precipitación	0
60760	7	Sololá	717	San Juan la Laguna	12	San Juan la Laguna	6	Junio	2023-06-19T00:00:00	2024-11-08T20:00:00	8	Radiación solar	0
60761	7	Sololá	717	San Juan la Laguna	12	San Juan la Laguna	6	Junio	2023-06-19T00:00:00	2024-11-08T21:00:00	2	Temperatura media	20.7
60762	7	Sololá	717	San Juan la Laguna	12	San Juan la Laguna	6	Junio	2023-06-19T00:00:00	2024-11-08T21:00:00	4	Temperatura máxima	20.8
60763	7	Sololá	717	San Juan la Laguna	12	San Juan la Laguna	6	Junio	2023-06-19T00:00:00	2024-11-08T21:00:00	3	Temperatura mínima	20.7
60764	7	Sololá	717	San Juan la Laguna	12	San Juan la Laguna	6	Junio	2023-06-19T00:00:00	2024-11-08T21:00:00	5	Humedad	85
60765	7	Sololá	717	San Juan la Laguna	12	San Juan la Laguna	6	Junio	2023-06-19T00:00:00	2024-11-08T21:00:00	6	Velocidad del viento	0
60766	7	Sololá	717	San Juan la Laguna	12	San Juan la Laguna	6	Junio	2023-06-19T00:00:00	2024-11-08T21:00:00	7	Dirección del viento	0
60767	7	Sololá	717	San Juan la Laguna	12	San Juan la Laguna	6	Junio	2023-06-19T00:00:00	2024-11-08T21:00:00	1	Precipitación	0
60768	7	Sololá	717	San Juan la Laguna	12	San Juan la Laguna	6	Junio	2023-06-19T00:00:00	2024-11-08T21:00:00	8	Radiación solar	0
60769	7	Sololá	717	San Juan la Laguna	12	San Juan la Laguna	6	Junio	2023-06-19T00:00:00	2024-11-08T22:00:00	2	Temperatura media	20.1
60770	7	Sololá	717	San Juan la Laguna	12	San Juan la Laguna	6	Junio	2023-06-19T00:00:00	2024-11-08T22:00:00	4	Temperatura máxima	20.7
60771	7	Sololá	717	San Juan la Laguna	12	San Juan la Laguna	6	Junio	2023-06-19T00:00:00	2024-11-08T22:00:00	3	Temperatura mínima	19.8
60772	7	Sololá	717	San Juan la Laguna	12	San Juan la Laguna	6	Junio	2023-06-19T00:00:00	2024-11-08T22:00:00	5	Humedad	86
60773	7	Sololá	717	San Juan la Laguna	12	San Juan la Laguna	6	Junio	2023-06-19T00:00:00	2024-11-08T22:00:00	6	Velocidad del viento	0
60774	7	Sololá	717	San Juan la Laguna	12	San Juan la Laguna	6	Junio	2023-06-19T00:00:00	2024-11-08T22:00:00	7	Dirección del viento	0
60775	7	Sololá	717	San Juan la Laguna	12	San Juan la Laguna	6	Junio	2023-06-19T00:00:00	2024-11-08T22:00:00	1	Precipitación	0
60776	7	Sololá	717	San Juan la Laguna	12	San Juan la Laguna	6	Junio	2023-06-19T00:00:00	2024-11-08T22:00:00	8	Radiación solar	0
60777	7	Sololá	717	San Juan la Laguna	12	San Juan la Laguna	6	Junio	2023-06-19T00:00:00	2024-11-08T23:00:00	2	Temperatura media	19.7
60778	7	Sololá	717	San Juan la Laguna	12	San Juan la Laguna	6	Junio	2023-06-19T00:00:00	2024-11-08T23:00:00	4	Temperatura máxima	20.2
60779	7	Sololá	717	San Juan la Laguna	12	San Juan la Laguna	6	Junio	2023-06-19T00:00:00	2024-11-08T23:00:00	3	Temperatura mínima	19.6
60780	7	Sololá	717	San Juan la Laguna	12	San Juan la Laguna	6	Junio	2023-06-19T00:00:00	2024-11-08T23:00:00	5	Humedad	88
60781	7	Sololá	717	San Juan la Laguna	12	San Juan la Laguna	6	Junio	2023-06-19T00:00:00	2024-11-08T23:00:00	6	Velocidad del viento	0
60782	7	Sololá	717	San Juan la Laguna	12	San Juan la Laguna	6	Junio	2023-06-19T00:00:00	2024-11-08T23:00:00	7	Dirección del viento	0
60783	7	Sololá	717	San Juan la Laguna	12	San Juan la Laguna	6	Junio	2023-06-19T00:00:00	2024-11-08T23:00:00	1	Precipitación	0
60784	7	Sololá	717	San Juan la Laguna	12	San Juan la Laguna	6	Junio	2023-06-19T00:00:00	2024-11-08T23:00:00	8	Radiación solar	0
60785	7	Sololá	717	San Juan la Laguna	12	San Juan la Laguna	6	Junio	2023-06-20T00:00:00	2024-11-08T00:00:00	2	Temperatura media	18.9
60786	7	Sololá	717	San Juan la Laguna	12	San Juan la Laguna	6	Junio	2023-06-20T00:00:00	2024-11-08T00:00:00	4	Temperatura máxima	19.9
60787	7	Sololá	717	San Juan la Laguna	12	San Juan la Laguna	6	Junio	2023-06-20T00:00:00	2024-11-08T00:00:00	3	Temperatura mínima	18.9
60788	7	Sololá	717	San Juan la Laguna	12	San Juan la Laguna	6	Junio	2023-06-20T00:00:00	2024-11-08T00:00:00	5	Humedad	93
60789	7	Sololá	717	San Juan la Laguna	12	San Juan la Laguna	6	Junio	2023-06-20T00:00:00	2024-11-08T00:00:00	6	Velocidad del viento	0
60790	7	Sololá	717	San Juan la Laguna	12	San Juan la Laguna	6	Junio	2023-06-20T00:00:00	2024-11-08T00:00:00	7	Dirección del viento	0
60791	7	Sololá	717	San Juan la Laguna	12	San Juan la Laguna	6	Junio	2023-06-20T00:00:00	2024-11-08T00:00:00	1	Precipitación	3.8
60792	7	Sololá	717	San Juan la Laguna	12	San Juan la Laguna	6	Junio	2023-06-20T00:00:00	2024-11-08T00:00:00	8	Radiación solar	0
60793	7	Sololá	717	San Juan la Laguna	12	San Juan la Laguna	6	Junio	2023-06-20T00:00:00	2024-11-08T01:00:00	2	Temperatura media	18.8
60794	7	Sololá	717	San Juan la Laguna	12	San Juan la Laguna	6	Junio	2023-06-20T00:00:00	2024-11-08T01:00:00	4	Temperatura máxima	19
60795	7	Sololá	717	San Juan la Laguna	12	San Juan la Laguna	6	Junio	2023-06-20T00:00:00	2024-11-08T01:00:00	3	Temperatura mínima	18.8
60796	7	Sololá	717	San Juan la Laguna	12	San Juan la Laguna	6	Junio	2023-06-20T00:00:00	2024-11-08T01:00:00	5	Humedad	93
60797	7	Sololá	717	San Juan la Laguna	12	San Juan la Laguna	6	Junio	2023-06-20T00:00:00	2024-11-08T01:00:00	6	Velocidad del viento	0
60798	7	Sololá	717	San Juan la Laguna	12	San Juan la Laguna	6	Junio	2023-06-20T00:00:00	2024-11-08T01:00:00	7	Dirección del viento	0
60799	7	Sololá	717	San Juan la Laguna	12	San Juan la Laguna	6	Junio	2023-06-20T00:00:00	2024-11-08T01:00:00	1	Precipitación	1
60800	7	Sololá	717	San Juan la Laguna	12	San Juan la Laguna	6	Junio	2023-06-20T00:00:00	2024-11-08T01:00:00	8	Radiación solar	0
60801	7	Sololá	717	San Juan la Laguna	12	San Juan la Laguna	6	Junio	2023-06-20T00:00:00	2024-11-08T02:00:00	2	Temperatura media	18.4
60802	7	Sololá	717	San Juan la Laguna	12	San Juan la Laguna	6	Junio	2023-06-20T00:00:00	2024-11-08T02:00:00	4	Temperatura máxima	18.9
60803	7	Sololá	717	San Juan la Laguna	12	San Juan la Laguna	6	Junio	2023-06-20T00:00:00	2024-11-08T02:00:00	3	Temperatura mínima	18.4
60804	7	Sololá	717	San Juan la Laguna	12	San Juan la Laguna	6	Junio	2023-06-20T00:00:00	2024-11-08T02:00:00	5	Humedad	92
60805	7	Sololá	717	San Juan la Laguna	12	San Juan la Laguna	6	Junio	2023-06-20T00:00:00	2024-11-08T02:00:00	6	Velocidad del viento	1.6
60806	7	Sololá	717	San Juan la Laguna	12	San Juan la Laguna	6	Junio	2023-06-20T00:00:00	2024-11-08T02:00:00	7	Dirección del viento	1.61
60807	7	Sololá	717	San Juan la Laguna	12	San Juan la Laguna	6	Junio	2023-06-20T00:00:00	2024-11-08T02:00:00	1	Precipitación	0
60808	7	Sololá	717	San Juan la Laguna	12	San Juan la Laguna	6	Junio	2023-06-20T00:00:00	2024-11-08T02:00:00	8	Radiación solar	0
60809	7	Sololá	717	San Juan la Laguna	12	San Juan la Laguna	6	Junio	2023-06-20T00:00:00	2024-11-08T03:00:00	2	Temperatura media	18.4
60810	7	Sololá	717	San Juan la Laguna	12	San Juan la Laguna	6	Junio	2023-06-20T00:00:00	2024-11-08T03:00:00	4	Temperatura máxima	18.7
60811	7	Sololá	717	San Juan la Laguna	12	San Juan la Laguna	6	Junio	2023-06-20T00:00:00	2024-11-08T03:00:00	3	Temperatura mínima	18.4
60812	7	Sololá	717	San Juan la Laguna	12	San Juan la Laguna	6	Junio	2023-06-20T00:00:00	2024-11-08T03:00:00	5	Humedad	91
60813	7	Sololá	717	San Juan la Laguna	12	San Juan la Laguna	6	Junio	2023-06-20T00:00:00	2024-11-08T03:00:00	6	Velocidad del viento	1.6
60814	7	Sololá	717	San Juan la Laguna	12	San Juan la Laguna	6	Junio	2023-06-20T00:00:00	2024-11-08T03:00:00	7	Dirección del viento	1.61
60815	7	Sololá	717	San Juan la Laguna	12	San Juan la Laguna	6	Junio	2023-06-20T00:00:00	2024-11-08T03:00:00	1	Precipitación	0
60816	7	Sololá	717	San Juan la Laguna	12	San Juan la Laguna	6	Junio	2023-06-20T00:00:00	2024-11-08T03:00:00	8	Radiación solar	0
60817	7	Sololá	717	San Juan la Laguna	12	San Juan la Laguna	6	Junio	2023-06-20T00:00:00	2024-11-08T04:00:00	2	Temperatura media	18.1
60818	7	Sololá	717	San Juan la Laguna	12	San Juan la Laguna	6	Junio	2023-06-20T00:00:00	2024-11-08T04:00:00	4	Temperatura máxima	18.4
60819	7	Sololá	717	San Juan la Laguna	12	San Juan la Laguna	6	Junio	2023-06-20T00:00:00	2024-11-08T04:00:00	3	Temperatura mínima	18.1
60820	7	Sololá	717	San Juan la Laguna	12	San Juan la Laguna	6	Junio	2023-06-20T00:00:00	2024-11-08T04:00:00	5	Humedad	93
60821	7	Sololá	717	San Juan la Laguna	12	San Juan la Laguna	6	Junio	2023-06-20T00:00:00	2024-11-08T04:00:00	6	Velocidad del viento	1.6
60822	7	Sololá	717	San Juan la Laguna	12	San Juan la Laguna	6	Junio	2023-06-20T00:00:00	2024-11-08T04:00:00	7	Dirección del viento	1.61
60823	7	Sololá	717	San Juan la Laguna	12	San Juan la Laguna	6	Junio	2023-06-20T00:00:00	2024-11-08T04:00:00	1	Precipitación	1
60824	7	Sololá	717	San Juan la Laguna	12	San Juan la Laguna	6	Junio	2023-06-20T00:00:00	2024-11-08T04:00:00	8	Radiación solar	0
60825	7	Sololá	717	San Juan la Laguna	12	San Juan la Laguna	6	Junio	2023-06-20T00:00:00	2024-11-08T05:00:00	2	Temperatura media	17.9
60826	7	Sololá	717	San Juan la Laguna	12	San Juan la Laguna	6	Junio	2023-06-20T00:00:00	2024-11-08T05:00:00	4	Temperatura máxima	18.3
60827	7	Sololá	717	San Juan la Laguna	12	San Juan la Laguna	6	Junio	2023-06-20T00:00:00	2024-11-08T05:00:00	3	Temperatura mínima	17.9
60828	7	Sololá	717	San Juan la Laguna	12	San Juan la Laguna	6	Junio	2023-06-20T00:00:00	2024-11-08T05:00:00	5	Humedad	93
60829	7	Sololá	717	San Juan la Laguna	12	San Juan la Laguna	6	Junio	2023-06-20T00:00:00	2024-11-08T05:00:00	6	Velocidad del viento	0
60830	7	Sololá	717	San Juan la Laguna	12	San Juan la Laguna	6	Junio	2023-06-20T00:00:00	2024-11-08T05:00:00	7	Dirección del viento	0
60831	7	Sololá	717	San Juan la Laguna	12	San Juan la Laguna	6	Junio	2023-06-20T00:00:00	2024-11-08T05:00:00	1	Precipitación	1.4
60832	7	Sololá	717	San Juan la Laguna	12	San Juan la Laguna	6	Junio	2023-06-20T00:00:00	2024-11-08T05:00:00	8	Radiación solar	0
60833	7	Sololá	717	San Juan la Laguna	12	San Juan la Laguna	6	Junio	2023-06-20T00:00:00	2024-11-08T06:00:00	2	Temperatura media	17.9
60834	7	Sololá	717	San Juan la Laguna	12	San Juan la Laguna	6	Junio	2023-06-20T00:00:00	2024-11-08T06:00:00	4	Temperatura máxima	17.9
60835	7	Sololá	717	San Juan la Laguna	12	San Juan la Laguna	6	Junio	2023-06-20T00:00:00	2024-11-08T06:00:00	3	Temperatura mínima	17.8
60836	7	Sololá	717	San Juan la Laguna	12	San Juan la Laguna	6	Junio	2023-06-20T00:00:00	2024-11-08T06:00:00	5	Humedad	93
60837	7	Sololá	717	San Juan la Laguna	12	San Juan la Laguna	6	Junio	2023-06-20T00:00:00	2024-11-08T06:00:00	6	Velocidad del viento	1.6
60838	7	Sololá	717	San Juan la Laguna	12	San Juan la Laguna	6	Junio	2023-06-20T00:00:00	2024-11-08T06:00:00	7	Dirección del viento	1.61
60839	7	Sololá	717	San Juan la Laguna	12	San Juan la Laguna	6	Junio	2023-06-20T00:00:00	2024-11-08T06:00:00	1	Precipitación	0
60840	7	Sololá	717	San Juan la Laguna	12	San Juan la Laguna	6	Junio	2023-06-20T00:00:00	2024-11-08T06:00:00	8	Radiación solar	1
60841	7	Sololá	717	San Juan la Laguna	12	San Juan la Laguna	6	Junio	2023-06-20T00:00:00	2024-11-08T07:00:00	2	Temperatura media	18.5
60842	7	Sololá	717	San Juan la Laguna	12	San Juan la Laguna	6	Junio	2023-06-20T00:00:00	2024-11-08T07:00:00	4	Temperatura máxima	18.5
60843	7	Sololá	717	San Juan la Laguna	12	San Juan la Laguna	6	Junio	2023-06-20T00:00:00	2024-11-08T07:00:00	3	Temperatura mínima	17.9
60844	7	Sololá	717	San Juan la Laguna	12	San Juan la Laguna	6	Junio	2023-06-20T00:00:00	2024-11-08T07:00:00	5	Humedad	92
60845	7	Sololá	717	San Juan la Laguna	12	San Juan la Laguna	6	Junio	2023-06-20T00:00:00	2024-11-08T07:00:00	6	Velocidad del viento	0
60846	7	Sololá	717	San Juan la Laguna	12	San Juan la Laguna	6	Junio	2023-06-20T00:00:00	2024-11-08T07:00:00	7	Dirección del viento	0
60847	7	Sololá	717	San Juan la Laguna	12	San Juan la Laguna	6	Junio	2023-06-20T00:00:00	2024-11-08T07:00:00	1	Precipitación	0
60848	7	Sololá	717	San Juan la Laguna	12	San Juan la Laguna	6	Junio	2023-06-20T00:00:00	2024-11-08T07:00:00	8	Radiación solar	34
60849	7	Sololá	717	San Juan la Laguna	12	San Juan la Laguna	6	Junio	2023-06-20T00:00:00	2024-11-08T08:00:00	2	Temperatura media	20.1
60850	7	Sololá	717	San Juan la Laguna	12	San Juan la Laguna	6	Junio	2023-06-20T00:00:00	2024-11-08T08:00:00	4	Temperatura máxima	20.1
60851	7	Sololá	717	San Juan la Laguna	12	San Juan la Laguna	6	Junio	2023-06-20T00:00:00	2024-11-08T08:00:00	3	Temperatura mínima	18.4
60852	7	Sololá	717	San Juan la Laguna	12	San Juan la Laguna	6	Junio	2023-06-20T00:00:00	2024-11-08T08:00:00	5	Humedad	88
60853	7	Sololá	717	San Juan la Laguna	12	San Juan la Laguna	6	Junio	2023-06-20T00:00:00	2024-11-08T08:00:00	6	Velocidad del viento	3.2
60854	7	Sololá	717	San Juan la Laguna	12	San Juan la Laguna	6	Junio	2023-06-20T00:00:00	2024-11-08T08:00:00	7	Dirección del viento	3.22
60855	7	Sololá	717	San Juan la Laguna	12	San Juan la Laguna	6	Junio	2023-06-20T00:00:00	2024-11-08T08:00:00	1	Precipitación	0
60856	7	Sololá	717	San Juan la Laguna	12	San Juan la Laguna	6	Junio	2023-06-20T00:00:00	2024-11-08T08:00:00	8	Radiación solar	152
60857	7	Sololá	717	San Juan la Laguna	12	San Juan la Laguna	6	Junio	2023-06-20T00:00:00	2024-11-08T09:00:00	2	Temperatura media	22.5
60858	7	Sololá	717	San Juan la Laguna	12	San Juan la Laguna	6	Junio	2023-06-20T00:00:00	2024-11-08T09:00:00	4	Temperatura máxima	22.6
60859	7	Sololá	717	San Juan la Laguna	12	San Juan la Laguna	6	Junio	2023-06-20T00:00:00	2024-11-08T09:00:00	3	Temperatura mínima	20.1
60860	7	Sololá	717	San Juan la Laguna	12	San Juan la Laguna	6	Junio	2023-06-20T00:00:00	2024-11-08T09:00:00	5	Humedad	75
60861	7	Sololá	717	San Juan la Laguna	12	San Juan la Laguna	6	Junio	2023-06-20T00:00:00	2024-11-08T09:00:00	6	Velocidad del viento	4.8
60862	7	Sololá	717	San Juan la Laguna	12	San Juan la Laguna	6	Junio	2023-06-20T00:00:00	2024-11-08T09:00:00	7	Dirección del viento	4.83
60863	7	Sololá	717	San Juan la Laguna	12	San Juan la Laguna	6	Junio	2023-06-20T00:00:00	2024-11-08T09:00:00	1	Precipitación	0
60864	7	Sololá	717	San Juan la Laguna	12	San Juan la Laguna	6	Junio	2023-06-20T00:00:00	2024-11-08T09:00:00	8	Radiación solar	545
60865	7	Sololá	717	San Juan la Laguna	12	San Juan la Laguna	6	Junio	2023-06-20T00:00:00	2024-11-08T10:00:00	2	Temperatura media	23.3
60866	7	Sololá	717	San Juan la Laguna	12	San Juan la Laguna	6	Junio	2023-06-20T00:00:00	2024-11-08T10:00:00	4	Temperatura máxima	23.4
60867	7	Sololá	717	San Juan la Laguna	12	San Juan la Laguna	6	Junio	2023-06-20T00:00:00	2024-11-08T10:00:00	3	Temperatura mínima	21.9
60868	7	Sololá	717	San Juan la Laguna	12	San Juan la Laguna	6	Junio	2023-06-20T00:00:00	2024-11-08T10:00:00	5	Humedad	73
60869	7	Sololá	717	San Juan la Laguna	12	San Juan la Laguna	6	Junio	2023-06-20T00:00:00	2024-11-08T10:00:00	6	Velocidad del viento	4.8
60870	7	Sololá	717	San Juan la Laguna	12	San Juan la Laguna	6	Junio	2023-06-20T00:00:00	2024-11-08T10:00:00	7	Dirección del viento	4.83
60871	7	Sololá	717	San Juan la Laguna	12	San Juan la Laguna	6	Junio	2023-06-20T00:00:00	2024-11-08T10:00:00	1	Precipitación	0
60872	7	Sololá	717	San Juan la Laguna	12	San Juan la Laguna	6	Junio	2023-06-20T00:00:00	2024-11-08T10:00:00	8	Radiación solar	400
60873	7	Sololá	717	San Juan la Laguna	12	San Juan la Laguna	6	Junio	2023-06-20T00:00:00	2024-11-08T11:00:00	2	Temperatura media	22.4
60874	7	Sololá	717	San Juan la Laguna	12	San Juan la Laguna	6	Junio	2023-06-20T00:00:00	2024-11-08T11:00:00	4	Temperatura máxima	23.3
60875	7	Sololá	717	San Juan la Laguna	12	San Juan la Laguna	6	Junio	2023-06-20T00:00:00	2024-11-08T11:00:00	3	Temperatura mínima	21.9
60876	7	Sololá	717	San Juan la Laguna	12	San Juan la Laguna	6	Junio	2023-06-20T00:00:00	2024-11-08T11:00:00	5	Humedad	77
60877	7	Sololá	717	San Juan la Laguna	12	San Juan la Laguna	6	Junio	2023-06-20T00:00:00	2024-11-08T11:00:00	6	Velocidad del viento	8
60878	7	Sololá	717	San Juan la Laguna	12	San Juan la Laguna	6	Junio	2023-06-20T00:00:00	2024-11-08T11:00:00	7	Dirección del viento	8.05
60879	7	Sololá	717	San Juan la Laguna	12	San Juan la Laguna	6	Junio	2023-06-20T00:00:00	2024-11-08T11:00:00	1	Precipitación	0
60880	7	Sololá	717	San Juan la Laguna	12	San Juan la Laguna	6	Junio	2023-06-20T00:00:00	2024-11-08T11:00:00	8	Radiación solar	319
60881	7	Sololá	717	San Juan la Laguna	12	San Juan la Laguna	6	Junio	2023-06-20T00:00:00	2024-11-08T12:00:00	2	Temperatura media	23.7
60882	7	Sololá	717	San Juan la Laguna	12	San Juan la Laguna	6	Junio	2023-06-20T00:00:00	2024-11-08T12:00:00	4	Temperatura máxima	24.3
60883	7	Sololá	717	San Juan la Laguna	12	San Juan la Laguna	6	Junio	2023-06-20T00:00:00	2024-11-08T12:00:00	3	Temperatura mínima	22.3
60884	7	Sololá	717	San Juan la Laguna	12	San Juan la Laguna	6	Junio	2023-06-20T00:00:00	2024-11-08T12:00:00	5	Humedad	72
60885	7	Sololá	717	San Juan la Laguna	12	San Juan la Laguna	6	Junio	2023-06-20T00:00:00	2024-11-08T12:00:00	6	Velocidad del viento	11.3
60886	7	Sololá	717	San Juan la Laguna	12	San Juan la Laguna	6	Junio	2023-06-20T00:00:00	2024-11-08T12:00:00	7	Dirección del viento	11.27
60887	7	Sololá	717	San Juan la Laguna	12	San Juan la Laguna	6	Junio	2023-06-20T00:00:00	2024-11-08T12:00:00	1	Precipitación	0
60888	7	Sololá	717	San Juan la Laguna	12	San Juan la Laguna	6	Junio	2023-06-20T00:00:00	2024-11-08T12:00:00	8	Radiación solar	811
60889	7	Sololá	717	San Juan la Laguna	12	San Juan la Laguna	6	Junio	2023-06-20T00:00:00	2024-11-08T13:00:00	2	Temperatura media	22.7
60890	7	Sololá	717	San Juan la Laguna	12	San Juan la Laguna	6	Junio	2023-06-20T00:00:00	2024-11-08T13:00:00	4	Temperatura máxima	23.8
60891	7	Sololá	717	San Juan la Laguna	12	San Juan la Laguna	6	Junio	2023-06-20T00:00:00	2024-11-08T13:00:00	3	Temperatura mínima	22.4
60892	7	Sololá	717	San Juan la Laguna	12	San Juan la Laguna	6	Junio	2023-06-20T00:00:00	2024-11-08T13:00:00	5	Humedad	75
60893	7	Sololá	717	San Juan la Laguna	12	San Juan la Laguna	6	Junio	2023-06-20T00:00:00	2024-11-08T13:00:00	6	Velocidad del viento	11.3
60894	7	Sololá	717	San Juan la Laguna	12	San Juan la Laguna	6	Junio	2023-06-20T00:00:00	2024-11-08T13:00:00	7	Dirección del viento	11.27
60895	7	Sololá	717	San Juan la Laguna	12	San Juan la Laguna	6	Junio	2023-06-20T00:00:00	2024-11-08T13:00:00	1	Precipitación	0
60896	7	Sololá	717	San Juan la Laguna	12	San Juan la Laguna	6	Junio	2023-06-20T00:00:00	2024-11-08T13:00:00	8	Radiación solar	372
60897	7	Sololá	717	San Juan la Laguna	12	San Juan la Laguna	6	Junio	2023-06-20T00:00:00	2024-11-08T14:00:00	2	Temperatura media	23.5
60898	7	Sololá	717	San Juan la Laguna	12	San Juan la Laguna	6	Junio	2023-06-20T00:00:00	2024-11-08T14:00:00	4	Temperatura máxima	24.1
60899	7	Sololá	717	San Juan la Laguna	12	San Juan la Laguna	6	Junio	2023-06-20T00:00:00	2024-11-08T14:00:00	3	Temperatura mínima	22.6
60900	7	Sololá	717	San Juan la Laguna	12	San Juan la Laguna	6	Junio	2023-06-20T00:00:00	2024-11-08T14:00:00	5	Humedad	72
60901	7	Sololá	717	San Juan la Laguna	12	San Juan la Laguna	6	Junio	2023-06-20T00:00:00	2024-11-08T14:00:00	6	Velocidad del viento	8
60902	7	Sololá	717	San Juan la Laguna	12	San Juan la Laguna	6	Junio	2023-06-20T00:00:00	2024-11-08T14:00:00	7	Dirección del viento	8.05
60903	7	Sololá	717	San Juan la Laguna	12	San Juan la Laguna	6	Junio	2023-06-20T00:00:00	2024-11-08T14:00:00	1	Precipitación	0
60904	7	Sololá	717	San Juan la Laguna	12	San Juan la Laguna	6	Junio	2023-06-20T00:00:00	2024-11-08T14:00:00	8	Radiación solar	533
60905	7	Sololá	717	San Juan la Laguna	12	San Juan la Laguna	6	Junio	2023-06-20T00:00:00	2024-11-08T15:00:00	2	Temperatura media	22.4
60906	7	Sololá	717	San Juan la Laguna	12	San Juan la Laguna	6	Junio	2023-06-20T00:00:00	2024-11-08T15:00:00	4	Temperatura máxima	23.8
60907	7	Sololá	717	San Juan la Laguna	12	San Juan la Laguna	6	Junio	2023-06-20T00:00:00	2024-11-08T15:00:00	3	Temperatura mínima	22.4
60908	7	Sololá	717	San Juan la Laguna	12	San Juan la Laguna	6	Junio	2023-06-20T00:00:00	2024-11-08T15:00:00	5	Humedad	77
60909	7	Sololá	717	San Juan la Laguna	12	San Juan la Laguna	6	Junio	2023-06-20T00:00:00	2024-11-08T15:00:00	6	Velocidad del viento	8
60910	7	Sololá	717	San Juan la Laguna	12	San Juan la Laguna	6	Junio	2023-06-20T00:00:00	2024-11-08T15:00:00	7	Dirección del viento	8.05
60911	7	Sololá	717	San Juan la Laguna	12	San Juan la Laguna	6	Junio	2023-06-20T00:00:00	2024-11-08T15:00:00	1	Precipitación	0
60912	7	Sololá	717	San Juan la Laguna	12	San Juan la Laguna	6	Junio	2023-06-20T00:00:00	2024-11-08T15:00:00	8	Radiación solar	300
60913	7	Sololá	717	San Juan la Laguna	12	San Juan la Laguna	6	Junio	2023-06-20T00:00:00	2024-11-08T16:00:00	2	Temperatura media	22.9
60914	7	Sololá	717	San Juan la Laguna	12	San Juan la Laguna	6	Junio	2023-06-20T00:00:00	2024-11-08T16:00:00	4	Temperatura máxima	23.4
60915	7	Sololá	717	San Juan la Laguna	12	San Juan la Laguna	6	Junio	2023-06-20T00:00:00	2024-11-08T16:00:00	3	Temperatura mínima	22.5
60916	7	Sololá	717	San Juan la Laguna	12	San Juan la Laguna	6	Junio	2023-06-20T00:00:00	2024-11-08T16:00:00	5	Humedad	76
60917	7	Sololá	717	San Juan la Laguna	12	San Juan la Laguna	6	Junio	2023-06-20T00:00:00	2024-11-08T16:00:00	6	Velocidad del viento	6.4
60918	7	Sololá	717	San Juan la Laguna	12	San Juan la Laguna	6	Junio	2023-06-20T00:00:00	2024-11-08T16:00:00	7	Dirección del viento	6.44
60919	7	Sololá	717	San Juan la Laguna	12	San Juan la Laguna	6	Junio	2023-06-20T00:00:00	2024-11-08T16:00:00	1	Precipitación	0
60920	7	Sololá	717	San Juan la Laguna	12	San Juan la Laguna	6	Junio	2023-06-20T00:00:00	2024-11-08T16:00:00	8	Radiación solar	261
60921	7	Sololá	717	San Juan la Laguna	12	San Juan la Laguna	6	Junio	2023-06-20T00:00:00	2024-11-08T17:00:00	2	Temperatura media	20.7
60922	7	Sololá	717	San Juan la Laguna	12	San Juan la Laguna	6	Junio	2023-06-20T00:00:00	2024-11-08T17:00:00	4	Temperatura máxima	22.9
60923	7	Sololá	717	San Juan la Laguna	12	San Juan la Laguna	6	Junio	2023-06-20T00:00:00	2024-11-08T17:00:00	3	Temperatura mínima	20.7
60924	7	Sololá	717	San Juan la Laguna	12	San Juan la Laguna	6	Junio	2023-06-20T00:00:00	2024-11-08T17:00:00	5	Humedad	85
60925	7	Sololá	717	San Juan la Laguna	12	San Juan la Laguna	6	Junio	2023-06-20T00:00:00	2024-11-08T17:00:00	6	Velocidad del viento	8
60926	7	Sololá	717	San Juan la Laguna	12	San Juan la Laguna	6	Junio	2023-06-20T00:00:00	2024-11-08T17:00:00	7	Dirección del viento	8.05
60927	7	Sololá	717	San Juan la Laguna	12	San Juan la Laguna	6	Junio	2023-06-20T00:00:00	2024-11-08T17:00:00	1	Precipitación	0
60928	7	Sololá	717	San Juan la Laguna	12	San Juan la Laguna	6	Junio	2023-06-20T00:00:00	2024-11-08T17:00:00	8	Radiación solar	140
60929	7	Sololá	717	San Juan la Laguna	12	San Juan la Laguna	6	Junio	2023-06-20T00:00:00	2024-11-08T18:00:00	2	Temperatura media	18.6
60930	7	Sololá	717	San Juan la Laguna	12	San Juan la Laguna	6	Junio	2023-06-20T00:00:00	2024-11-08T18:00:00	4	Temperatura máxima	20.9
60931	7	Sololá	717	San Juan la Laguna	12	San Juan la Laguna	6	Junio	2023-06-20T00:00:00	2024-11-08T18:00:00	3	Temperatura mínima	18.6
60932	7	Sololá	717	San Juan la Laguna	12	San Juan la Laguna	6	Junio	2023-06-20T00:00:00	2024-11-08T18:00:00	5	Humedad	90
60933	7	Sololá	717	San Juan la Laguna	12	San Juan la Laguna	6	Junio	2023-06-20T00:00:00	2024-11-08T18:00:00	6	Velocidad del viento	8
60934	7	Sololá	717	San Juan la Laguna	12	San Juan la Laguna	6	Junio	2023-06-20T00:00:00	2024-11-08T18:00:00	7	Dirección del viento	8.05
60935	7	Sololá	717	San Juan la Laguna	12	San Juan la Laguna	6	Junio	2023-06-20T00:00:00	2024-11-08T18:00:00	1	Precipitación	11.2
60936	7	Sololá	717	San Juan la Laguna	12	San Juan la Laguna	6	Junio	2023-06-20T00:00:00	2024-11-08T18:00:00	8	Radiación solar	10
60937	7	Sololá	717	San Juan la Laguna	12	San Juan la Laguna	6	Junio	2023-06-20T00:00:00	2024-11-08T19:00:00	2	Temperatura media	17.9
60938	7	Sololá	717	San Juan la Laguna	12	San Juan la Laguna	6	Junio	2023-06-20T00:00:00	2024-11-08T19:00:00	4	Temperatura máxima	18.6
60939	7	Sololá	717	San Juan la Laguna	12	San Juan la Laguna	6	Junio	2023-06-20T00:00:00	2024-11-08T19:00:00	3	Temperatura mínima	17.8
60940	7	Sololá	717	San Juan la Laguna	12	San Juan la Laguna	6	Junio	2023-06-20T00:00:00	2024-11-08T19:00:00	5	Humedad	93
60941	7	Sololá	717	San Juan la Laguna	12	San Juan la Laguna	6	Junio	2023-06-20T00:00:00	2024-11-08T19:00:00	6	Velocidad del viento	0
60942	7	Sololá	717	San Juan la Laguna	12	San Juan la Laguna	6	Junio	2023-06-20T00:00:00	2024-11-08T19:00:00	7	Dirección del viento	0
60943	7	Sololá	717	San Juan la Laguna	12	San Juan la Laguna	6	Junio	2023-06-20T00:00:00	2024-11-08T19:00:00	1	Precipitación	5
60944	7	Sololá	717	San Juan la Laguna	12	San Juan la Laguna	6	Junio	2023-06-20T00:00:00	2024-11-08T19:00:00	8	Radiación solar	0
60945	7	Sololá	717	San Juan la Laguna	12	San Juan la Laguna	6	Junio	2023-06-20T00:00:00	2024-11-08T20:00:00	2	Temperatura media	17.6
60946	7	Sololá	717	San Juan la Laguna	12	San Juan la Laguna	6	Junio	2023-06-20T00:00:00	2024-11-08T20:00:00	4	Temperatura máxima	17.9
60947	7	Sololá	717	San Juan la Laguna	12	San Juan la Laguna	6	Junio	2023-06-20T00:00:00	2024-11-08T20:00:00	3	Temperatura mínima	17.6
60948	7	Sololá	717	San Juan la Laguna	12	San Juan la Laguna	6	Junio	2023-06-20T00:00:00	2024-11-08T20:00:00	5	Humedad	92
60949	7	Sololá	717	San Juan la Laguna	12	San Juan la Laguna	6	Junio	2023-06-20T00:00:00	2024-11-08T20:00:00	6	Velocidad del viento	1.6
60950	7	Sololá	717	San Juan la Laguna	12	San Juan la Laguna	6	Junio	2023-06-20T00:00:00	2024-11-08T20:00:00	7	Dirección del viento	1.61
60951	7	Sololá	717	San Juan la Laguna	12	San Juan la Laguna	6	Junio	2023-06-20T00:00:00	2024-11-08T20:00:00	1	Precipitación	0.6
60952	7	Sololá	717	San Juan la Laguna	12	San Juan la Laguna	6	Junio	2023-06-20T00:00:00	2024-11-08T20:00:00	8	Radiación solar	0
60953	7	Sololá	717	San Juan la Laguna	12	San Juan la Laguna	6	Junio	2023-06-20T00:00:00	2024-11-08T21:00:00	2	Temperatura media	17.3
60954	7	Sololá	717	San Juan la Laguna	12	San Juan la Laguna	6	Junio	2023-06-20T00:00:00	2024-11-08T21:00:00	4	Temperatura máxima	17.6
60955	7	Sololá	717	San Juan la Laguna	12	San Juan la Laguna	6	Junio	2023-06-20T00:00:00	2024-11-08T21:00:00	3	Temperatura mínima	17.2
60956	7	Sololá	717	San Juan la Laguna	12	San Juan la Laguna	6	Junio	2023-06-20T00:00:00	2024-11-08T21:00:00	5	Humedad	93
60957	7	Sololá	717	San Juan la Laguna	12	San Juan la Laguna	6	Junio	2023-06-20T00:00:00	2024-11-08T21:00:00	6	Velocidad del viento	0
60958	7	Sololá	717	San Juan la Laguna	12	San Juan la Laguna	6	Junio	2023-06-20T00:00:00	2024-11-08T21:00:00	7	Dirección del viento	0
60959	7	Sololá	717	San Juan la Laguna	12	San Juan la Laguna	6	Junio	2023-06-20T00:00:00	2024-11-08T21:00:00	1	Precipitación	0.6
60960	7	Sololá	717	San Juan la Laguna	12	San Juan la Laguna	6	Junio	2023-06-20T00:00:00	2024-11-08T21:00:00	8	Radiación solar	0
60961	7	Sololá	717	San Juan la Laguna	12	San Juan la Laguna	6	Junio	2023-06-20T00:00:00	2024-11-08T22:00:00	2	Temperatura media	17.1
60962	7	Sololá	717	San Juan la Laguna	12	San Juan la Laguna	6	Junio	2023-06-20T00:00:00	2024-11-08T22:00:00	4	Temperatura máxima	17.3
60963	7	Sololá	717	San Juan la Laguna	12	San Juan la Laguna	6	Junio	2023-06-20T00:00:00	2024-11-08T22:00:00	3	Temperatura mínima	17.1
60964	7	Sololá	717	San Juan la Laguna	12	San Juan la Laguna	6	Junio	2023-06-20T00:00:00	2024-11-08T22:00:00	5	Humedad	94
60965	7	Sololá	717	San Juan la Laguna	12	San Juan la Laguna	6	Junio	2023-06-20T00:00:00	2024-11-08T22:00:00	6	Velocidad del viento	1.6
60966	7	Sololá	717	San Juan la Laguna	12	San Juan la Laguna	6	Junio	2023-06-20T00:00:00	2024-11-08T22:00:00	7	Dirección del viento	1.61
60967	7	Sololá	717	San Juan la Laguna	12	San Juan la Laguna	6	Junio	2023-06-20T00:00:00	2024-11-08T22:00:00	1	Precipitación	2.2
60968	7	Sololá	717	San Juan la Laguna	12	San Juan la Laguna	6	Junio	2023-06-20T00:00:00	2024-11-08T22:00:00	8	Radiación solar	0
60969	7	Sololá	717	San Juan la Laguna	12	San Juan la Laguna	6	Junio	2023-06-20T00:00:00	2024-11-08T23:00:00	2	Temperatura media	17.1
60970	7	Sololá	717	San Juan la Laguna	12	San Juan la Laguna	6	Junio	2023-06-20T00:00:00	2024-11-08T23:00:00	4	Temperatura máxima	17.3
60971	7	Sololá	717	San Juan la Laguna	12	San Juan la Laguna	6	Junio	2023-06-20T00:00:00	2024-11-08T23:00:00	3	Temperatura mínima	17
60972	7	Sololá	717	San Juan la Laguna	12	San Juan la Laguna	6	Junio	2023-06-20T00:00:00	2024-11-08T23:00:00	5	Humedad	94
60973	7	Sololá	717	San Juan la Laguna	12	San Juan la Laguna	6	Junio	2023-06-20T00:00:00	2024-11-08T23:00:00	6	Velocidad del viento	0
60974	7	Sololá	717	San Juan la Laguna	12	San Juan la Laguna	6	Junio	2023-06-20T00:00:00	2024-11-08T23:00:00	7	Dirección del viento	0
60975	7	Sololá	717	San Juan la Laguna	12	San Juan la Laguna	6	Junio	2023-06-20T00:00:00	2024-11-08T23:00:00	1	Precipitación	0.6
60976	7	Sololá	717	San Juan la Laguna	12	San Juan la Laguna	6	Junio	2023-06-20T00:00:00	2024-11-08T23:00:00	8	Radiación solar	0
60977	7	Sololá	717	San Juan la Laguna	12	San Juan la Laguna	6	Junio	2023-06-21T00:00:00	2024-11-08T00:00:00	2	Temperatura media	16.7
60978	7	Sololá	717	San Juan la Laguna	12	San Juan la Laguna	6	Junio	2023-06-21T00:00:00	2024-11-08T00:00:00	4	Temperatura máxima	17.1
60979	7	Sololá	717	San Juan la Laguna	12	San Juan la Laguna	6	Junio	2023-06-21T00:00:00	2024-11-08T00:00:00	3	Temperatura mínima	16.7
60980	7	Sololá	717	San Juan la Laguna	12	San Juan la Laguna	6	Junio	2023-06-21T00:00:00	2024-11-08T00:00:00	5	Humedad	94
60981	7	Sololá	717	San Juan la Laguna	12	San Juan la Laguna	6	Junio	2023-06-21T00:00:00	2024-11-08T00:00:00	6	Velocidad del viento	0
60982	7	Sololá	717	San Juan la Laguna	12	San Juan la Laguna	6	Junio	2023-06-21T00:00:00	2024-11-08T00:00:00	7	Dirección del viento	0
60983	7	Sololá	717	San Juan la Laguna	12	San Juan la Laguna	6	Junio	2023-06-21T00:00:00	2024-11-08T00:00:00	1	Precipitación	1.8
60984	7	Sololá	717	San Juan la Laguna	12	San Juan la Laguna	6	Junio	2023-06-21T00:00:00	2024-11-08T00:00:00	8	Radiación solar	0
60985	7	Sololá	717	San Juan la Laguna	12	San Juan la Laguna	6	Junio	2023-06-21T00:00:00	2024-11-08T01:00:00	2	Temperatura media	16.8
60986	7	Sololá	717	San Juan la Laguna	12	San Juan la Laguna	6	Junio	2023-06-21T00:00:00	2024-11-08T01:00:00	4	Temperatura máxima	17
60987	7	Sololá	717	San Juan la Laguna	12	San Juan la Laguna	6	Junio	2023-06-21T00:00:00	2024-11-08T01:00:00	3	Temperatura mínima	16.7
60988	7	Sololá	717	San Juan la Laguna	12	San Juan la Laguna	6	Junio	2023-06-21T00:00:00	2024-11-08T01:00:00	5	Humedad	94
60989	7	Sololá	717	San Juan la Laguna	12	San Juan la Laguna	6	Junio	2023-06-21T00:00:00	2024-11-08T01:00:00	6	Velocidad del viento	0
60990	7	Sololá	717	San Juan la Laguna	12	San Juan la Laguna	6	Junio	2023-06-21T00:00:00	2024-11-08T01:00:00	7	Dirección del viento	0
60991	7	Sololá	717	San Juan la Laguna	12	San Juan la Laguna	6	Junio	2023-06-21T00:00:00	2024-11-08T01:00:00	1	Precipitación	1
60992	7	Sololá	717	San Juan la Laguna	12	San Juan la Laguna	6	Junio	2023-06-21T00:00:00	2024-11-08T01:00:00	8	Radiación solar	0
60993	7	Sololá	717	San Juan la Laguna	12	San Juan la Laguna	6	Junio	2023-06-21T00:00:00	2024-11-08T02:00:00	2	Temperatura media	16.7
60994	7	Sololá	717	San Juan la Laguna	12	San Juan la Laguna	6	Junio	2023-06-21T00:00:00	2024-11-08T02:00:00	4	Temperatura máxima	16.9
60995	7	Sololá	717	San Juan la Laguna	12	San Juan la Laguna	6	Junio	2023-06-21T00:00:00	2024-11-08T02:00:00	3	Temperatura mínima	16.7
60996	7	Sololá	717	San Juan la Laguna	12	San Juan la Laguna	6	Junio	2023-06-21T00:00:00	2024-11-08T02:00:00	5	Humedad	94
60997	7	Sololá	717	San Juan la Laguna	12	San Juan la Laguna	6	Junio	2023-06-21T00:00:00	2024-11-08T02:00:00	6	Velocidad del viento	0
60998	7	Sololá	717	San Juan la Laguna	12	San Juan la Laguna	6	Junio	2023-06-21T00:00:00	2024-11-08T02:00:00	7	Dirección del viento	0
60999	7	Sololá	717	San Juan la Laguna	12	San Juan la Laguna	6	Junio	2023-06-21T00:00:00	2024-11-08T02:00:00	1	Precipitación	4.8
61000	7	Sololá	717	San Juan la Laguna	12	San Juan la Laguna	6	Junio	2023-06-21T00:00:00	2024-11-08T02:00:00	8	Radiación solar	0
61001	7	Sololá	717	San Juan la Laguna	12	San Juan la Laguna	6	Junio	2023-06-21T00:00:00	2024-11-08T03:00:00	2	Temperatura media	16.7
61002	7	Sololá	717	San Juan la Laguna	12	San Juan la Laguna	6	Junio	2023-06-21T00:00:00	2024-11-08T03:00:00	4	Temperatura máxima	16.8
61003	7	Sololá	717	San Juan la Laguna	12	San Juan la Laguna	6	Junio	2023-06-21T00:00:00	2024-11-08T03:00:00	3	Temperatura mínima	16.7
61004	7	Sololá	717	San Juan la Laguna	12	San Juan la Laguna	6	Junio	2023-06-21T00:00:00	2024-11-08T03:00:00	5	Humedad	94
61005	7	Sololá	717	San Juan la Laguna	12	San Juan la Laguna	6	Junio	2023-06-21T00:00:00	2024-11-08T03:00:00	6	Velocidad del viento	0
61006	7	Sololá	717	San Juan la Laguna	12	San Juan la Laguna	6	Junio	2023-06-21T00:00:00	2024-11-08T03:00:00	7	Dirección del viento	0
61007	7	Sololá	717	San Juan la Laguna	12	San Juan la Laguna	6	Junio	2023-06-21T00:00:00	2024-11-08T03:00:00	1	Precipitación	0.2
61008	7	Sololá	717	San Juan la Laguna	12	San Juan la Laguna	6	Junio	2023-06-21T00:00:00	2024-11-08T03:00:00	8	Radiación solar	0
61009	7	Sololá	717	San Juan la Laguna	12	San Juan la Laguna	6	Junio	2023-06-21T00:00:00	2024-11-08T04:00:00	2	Temperatura media	16.6
61010	7	Sololá	717	San Juan la Laguna	12	San Juan la Laguna	6	Junio	2023-06-21T00:00:00	2024-11-08T04:00:00	4	Temperatura máxima	16.7
61011	7	Sololá	717	San Juan la Laguna	12	San Juan la Laguna	6	Junio	2023-06-21T00:00:00	2024-11-08T04:00:00	3	Temperatura mínima	16.6
61012	7	Sololá	717	San Juan la Laguna	12	San Juan la Laguna	6	Junio	2023-06-21T00:00:00	2024-11-08T04:00:00	5	Humedad	93
61013	7	Sololá	717	San Juan la Laguna	12	San Juan la Laguna	6	Junio	2023-06-21T00:00:00	2024-11-08T04:00:00	6	Velocidad del viento	1.6
61014	7	Sololá	717	San Juan la Laguna	12	San Juan la Laguna	6	Junio	2023-06-21T00:00:00	2024-11-08T04:00:00	7	Dirección del viento	1.61
61015	7	Sololá	717	San Juan la Laguna	12	San Juan la Laguna	6	Junio	2023-06-21T00:00:00	2024-11-08T04:00:00	1	Precipitación	0
61016	7	Sololá	717	San Juan la Laguna	12	San Juan la Laguna	6	Junio	2023-06-21T00:00:00	2024-11-08T04:00:00	8	Radiación solar	0
61017	7	Sololá	717	San Juan la Laguna	12	San Juan la Laguna	6	Junio	2023-06-21T00:00:00	2024-11-08T05:00:00	2	Temperatura media	16.3
61018	7	Sololá	717	San Juan la Laguna	12	San Juan la Laguna	6	Junio	2023-06-21T00:00:00	2024-11-08T05:00:00	4	Temperatura máxima	16.6
61019	7	Sololá	717	San Juan la Laguna	12	San Juan la Laguna	6	Junio	2023-06-21T00:00:00	2024-11-08T05:00:00	3	Temperatura mínima	16.3
61020	7	Sololá	717	San Juan la Laguna	12	San Juan la Laguna	6	Junio	2023-06-21T00:00:00	2024-11-08T05:00:00	5	Humedad	93
61021	7	Sololá	717	San Juan la Laguna	12	San Juan la Laguna	6	Junio	2023-06-21T00:00:00	2024-11-08T05:00:00	6	Velocidad del viento	1.6
61022	7	Sololá	717	San Juan la Laguna	12	San Juan la Laguna	6	Junio	2023-06-21T00:00:00	2024-11-08T05:00:00	7	Dirección del viento	1.61
61023	7	Sololá	717	San Juan la Laguna	12	San Juan la Laguna	6	Junio	2023-06-21T00:00:00	2024-11-08T05:00:00	1	Precipitación	0
61024	7	Sololá	717	San Juan la Laguna	12	San Juan la Laguna	6	Junio	2023-06-21T00:00:00	2024-11-08T05:00:00	8	Radiación solar	0
61025	7	Sololá	717	San Juan la Laguna	12	San Juan la Laguna	6	Junio	2023-06-21T00:00:00	2024-11-08T06:00:00	2	Temperatura media	16.2
61026	7	Sololá	717	San Juan la Laguna	12	San Juan la Laguna	6	Junio	2023-06-21T00:00:00	2024-11-08T06:00:00	4	Temperatura máxima	16.6
61027	7	Sololá	717	San Juan la Laguna	12	San Juan la Laguna	6	Junio	2023-06-21T00:00:00	2024-11-08T06:00:00	3	Temperatura mínima	16.2
61028	7	Sololá	717	San Juan la Laguna	12	San Juan la Laguna	6	Junio	2023-06-21T00:00:00	2024-11-08T06:00:00	5	Humedad	93
61029	7	Sololá	717	San Juan la Laguna	12	San Juan la Laguna	6	Junio	2023-06-21T00:00:00	2024-11-08T06:00:00	6	Velocidad del viento	1.6
61030	7	Sololá	717	San Juan la Laguna	12	San Juan la Laguna	6	Junio	2023-06-21T00:00:00	2024-11-08T06:00:00	7	Dirección del viento	1.61
61031	7	Sololá	717	San Juan la Laguna	12	San Juan la Laguna	6	Junio	2023-06-21T00:00:00	2024-11-08T06:00:00	1	Precipitación	0
61032	7	Sololá	717	San Juan la Laguna	12	San Juan la Laguna	6	Junio	2023-06-21T00:00:00	2024-11-08T06:00:00	8	Radiación solar	2
61033	7	Sololá	717	San Juan la Laguna	12	San Juan la Laguna	6	Junio	2023-06-21T00:00:00	2024-11-08T07:00:00	2	Temperatura media	17.1
61034	7	Sololá	717	San Juan la Laguna	12	San Juan la Laguna	6	Junio	2023-06-21T00:00:00	2024-11-08T07:00:00	4	Temperatura máxima	17.1
61035	7	Sololá	717	San Juan la Laguna	12	San Juan la Laguna	6	Junio	2023-06-21T00:00:00	2024-11-08T07:00:00	3	Temperatura mínima	16.1
61036	7	Sololá	717	San Juan la Laguna	12	San Juan la Laguna	6	Junio	2023-06-21T00:00:00	2024-11-08T07:00:00	5	Humedad	91
61037	7	Sololá	717	San Juan la Laguna	12	San Juan la Laguna	6	Junio	2023-06-21T00:00:00	2024-11-08T07:00:00	6	Velocidad del viento	3.2
61038	7	Sololá	717	San Juan la Laguna	12	San Juan la Laguna	6	Junio	2023-06-21T00:00:00	2024-11-08T07:00:00	7	Dirección del viento	3.22
61039	7	Sololá	717	San Juan la Laguna	12	San Juan la Laguna	6	Junio	2023-06-21T00:00:00	2024-11-08T07:00:00	1	Precipitación	0
61040	7	Sololá	717	San Juan la Laguna	12	San Juan la Laguna	6	Junio	2023-06-21T00:00:00	2024-11-08T07:00:00	8	Radiación solar	54
61041	7	Sololá	717	San Juan la Laguna	12	San Juan la Laguna	6	Junio	2023-06-21T00:00:00	2024-11-08T08:00:00	2	Temperatura media	18.3
61042	7	Sololá	717	San Juan la Laguna	12	San Juan la Laguna	6	Junio	2023-06-21T00:00:00	2024-11-08T08:00:00	4	Temperatura máxima	18.3
61043	7	Sololá	717	San Juan la Laguna	12	San Juan la Laguna	6	Junio	2023-06-21T00:00:00	2024-11-08T08:00:00	3	Temperatura mínima	17.1
61044	7	Sololá	717	San Juan la Laguna	12	San Juan la Laguna	6	Junio	2023-06-21T00:00:00	2024-11-08T08:00:00	5	Humedad	89
61045	7	Sololá	717	San Juan la Laguna	12	San Juan la Laguna	6	Junio	2023-06-21T00:00:00	2024-11-08T08:00:00	6	Velocidad del viento	3.2
61046	7	Sololá	717	San Juan la Laguna	12	San Juan la Laguna	6	Junio	2023-06-21T00:00:00	2024-11-08T08:00:00	7	Dirección del viento	3.22
61047	7	Sololá	717	San Juan la Laguna	12	San Juan la Laguna	6	Junio	2023-06-21T00:00:00	2024-11-08T08:00:00	1	Precipitación	0
61048	7	Sololá	717	San Juan la Laguna	12	San Juan la Laguna	6	Junio	2023-06-21T00:00:00	2024-11-08T08:00:00	8	Radiación solar	101
61049	7	Sololá	717	San Juan la Laguna	12	San Juan la Laguna	6	Junio	2023-06-21T00:00:00	2024-11-08T09:00:00	2	Temperatura media	21.2
61050	7	Sololá	717	San Juan la Laguna	12	San Juan la Laguna	6	Junio	2023-06-21T00:00:00	2024-11-08T09:00:00	4	Temperatura máxima	21.2
61051	7	Sololá	717	San Juan la Laguna	12	San Juan la Laguna	6	Junio	2023-06-21T00:00:00	2024-11-08T09:00:00	3	Temperatura mínima	18.3
61052	7	Sololá	717	San Juan la Laguna	12	San Juan la Laguna	6	Junio	2023-06-21T00:00:00	2024-11-08T09:00:00	5	Humedad	78
61053	7	Sololá	717	San Juan la Laguna	12	San Juan la Laguna	6	Junio	2023-06-21T00:00:00	2024-11-08T09:00:00	6	Velocidad del viento	3.2
61054	7	Sololá	717	San Juan la Laguna	12	San Juan la Laguna	6	Junio	2023-06-21T00:00:00	2024-11-08T09:00:00	7	Dirección del viento	3.22
61055	7	Sololá	717	San Juan la Laguna	12	San Juan la Laguna	6	Junio	2023-06-21T00:00:00	2024-11-08T09:00:00	1	Precipitación	0
61056	7	Sololá	717	San Juan la Laguna	12	San Juan la Laguna	6	Junio	2023-06-21T00:00:00	2024-11-08T09:00:00	8	Radiación solar	426
61057	7	Sololá	717	San Juan la Laguna	12	San Juan la Laguna	6	Junio	2023-06-21T00:00:00	2024-11-08T10:00:00	2	Temperatura media	21.1
61058	7	Sololá	717	San Juan la Laguna	12	San Juan la Laguna	6	Junio	2023-06-21T00:00:00	2024-11-08T10:00:00	4	Temperatura máxima	22
61059	7	Sololá	717	San Juan la Laguna	12	San Juan la Laguna	6	Junio	2023-06-21T00:00:00	2024-11-08T10:00:00	3	Temperatura mínima	21.1
61060	7	Sololá	717	San Juan la Laguna	12	San Juan la Laguna	6	Junio	2023-06-21T00:00:00	2024-11-08T10:00:00	5	Humedad	77
61061	7	Sololá	717	San Juan la Laguna	12	San Juan la Laguna	6	Junio	2023-06-21T00:00:00	2024-11-08T10:00:00	6	Velocidad del viento	6.4
61062	7	Sololá	717	San Juan la Laguna	12	San Juan la Laguna	6	Junio	2023-06-21T00:00:00	2024-11-08T10:00:00	7	Dirección del viento	6.44
61063	7	Sololá	717	San Juan la Laguna	12	San Juan la Laguna	6	Junio	2023-06-21T00:00:00	2024-11-08T10:00:00	1	Precipitación	0
61064	7	Sololá	717	San Juan la Laguna	12	San Juan la Laguna	6	Junio	2023-06-21T00:00:00	2024-11-08T10:00:00	8	Radiación solar	523
61065	7	Sololá	717	San Juan la Laguna	12	San Juan la Laguna	6	Junio	2023-06-21T00:00:00	2024-11-08T11:00:00	2	Temperatura media	22.6
61066	7	Sololá	717	San Juan la Laguna	12	San Juan la Laguna	6	Junio	2023-06-21T00:00:00	2024-11-08T11:00:00	4	Temperatura máxima	22.7
61067	7	Sololá	717	San Juan la Laguna	12	San Juan la Laguna	6	Junio	2023-06-21T00:00:00	2024-11-08T11:00:00	3	Temperatura mínima	21
61068	7	Sololá	717	San Juan la Laguna	12	San Juan la Laguna	6	Junio	2023-06-21T00:00:00	2024-11-08T11:00:00	5	Humedad	72
61069	7	Sololá	717	San Juan la Laguna	12	San Juan la Laguna	6	Junio	2023-06-21T00:00:00	2024-11-08T11:00:00	6	Velocidad del viento	4.8
61070	7	Sololá	717	San Juan la Laguna	12	San Juan la Laguna	6	Junio	2023-06-21T00:00:00	2024-11-08T11:00:00	7	Dirección del viento	4.83
61071	7	Sololá	717	San Juan la Laguna	12	San Juan la Laguna	6	Junio	2023-06-21T00:00:00	2024-11-08T11:00:00	1	Precipitación	0
61072	7	Sololá	717	San Juan la Laguna	12	San Juan la Laguna	6	Junio	2023-06-21T00:00:00	2024-11-08T11:00:00	8	Radiación solar	538
61073	7	Sololá	717	San Juan la Laguna	12	San Juan la Laguna	6	Junio	2023-06-21T00:00:00	2024-11-08T12:00:00	2	Temperatura media	23.5
61074	7	Sololá	717	San Juan la Laguna	12	San Juan la Laguna	6	Junio	2023-06-21T00:00:00	2024-11-08T12:00:00	4	Temperatura máxima	23.5
61075	7	Sololá	717	San Juan la Laguna	12	San Juan la Laguna	6	Junio	2023-06-21T00:00:00	2024-11-08T12:00:00	3	Temperatura mínima	22.5
61076	7	Sololá	717	San Juan la Laguna	12	San Juan la Laguna	6	Junio	2023-06-21T00:00:00	2024-11-08T12:00:00	5	Humedad	71
61077	7	Sololá	717	San Juan la Laguna	12	San Juan la Laguna	6	Junio	2023-06-21T00:00:00	2024-11-08T12:00:00	6	Velocidad del viento	8
61078	7	Sololá	717	San Juan la Laguna	12	San Juan la Laguna	6	Junio	2023-06-21T00:00:00	2024-11-08T12:00:00	7	Dirección del viento	8.05
61079	7	Sololá	717	San Juan la Laguna	12	San Juan la Laguna	6	Junio	2023-06-21T00:00:00	2024-11-08T12:00:00	1	Precipitación	0
61080	7	Sololá	717	San Juan la Laguna	12	San Juan la Laguna	6	Junio	2023-06-21T00:00:00	2024-11-08T12:00:00	8	Radiación solar	869
61081	7	Sololá	717	San Juan la Laguna	12	San Juan la Laguna	6	Junio	2023-06-21T00:00:00	2024-11-08T13:00:00	2	Temperatura media	24.3
61082	7	Sololá	717	San Juan la Laguna	12	San Juan la Laguna	6	Junio	2023-06-21T00:00:00	2024-11-08T13:00:00	4	Temperatura máxima	24.3
61083	7	Sololá	717	San Juan la Laguna	12	San Juan la Laguna	6	Junio	2023-06-21T00:00:00	2024-11-08T13:00:00	3	Temperatura mínima	23.5
61084	7	Sololá	717	San Juan la Laguna	12	San Juan la Laguna	6	Junio	2023-06-21T00:00:00	2024-11-08T13:00:00	5	Humedad	68
61085	7	Sololá	717	San Juan la Laguna	12	San Juan la Laguna	6	Junio	2023-06-21T00:00:00	2024-11-08T13:00:00	6	Velocidad del viento	8
61086	7	Sololá	717	San Juan la Laguna	12	San Juan la Laguna	6	Junio	2023-06-21T00:00:00	2024-11-08T13:00:00	7	Dirección del viento	8.05
61087	7	Sololá	717	San Juan la Laguna	12	San Juan la Laguna	6	Junio	2023-06-21T00:00:00	2024-11-08T13:00:00	1	Precipitación	0
61088	7	Sololá	717	San Juan la Laguna	12	San Juan la Laguna	6	Junio	2023-06-21T00:00:00	2024-11-08T13:00:00	8	Radiación solar	891
61089	7	Sololá	717	San Juan la Laguna	12	San Juan la Laguna	6	Junio	2023-06-21T00:00:00	2024-11-08T14:00:00	2	Temperatura media	24.4
61090	7	Sololá	717	San Juan la Laguna	12	San Juan la Laguna	6	Junio	2023-06-21T00:00:00	2024-11-08T14:00:00	4	Temperatura máxima	24.4
61091	7	Sololá	717	San Juan la Laguna	12	San Juan la Laguna	6	Junio	2023-06-21T00:00:00	2024-11-08T14:00:00	3	Temperatura mínima	24.3
61092	7	Sololá	717	San Juan la Laguna	12	San Juan la Laguna	6	Junio	2023-06-21T00:00:00	2024-11-08T14:00:00	5	Humedad	76
61093	7	Sololá	717	San Juan la Laguna	12	San Juan la Laguna	6	Junio	2023-06-21T00:00:00	2024-11-08T14:00:00	6	Velocidad del viento	6.4
61094	7	Sololá	717	San Juan la Laguna	12	San Juan la Laguna	6	Junio	2023-06-21T00:00:00	2024-11-08T14:00:00	7	Dirección del viento	6.44
61095	7	Sololá	717	San Juan la Laguna	12	San Juan la Laguna	6	Junio	2023-06-21T00:00:00	2024-11-08T14:00:00	1	Precipitación	0
61096	7	Sololá	717	San Juan la Laguna	12	San Juan la Laguna	6	Junio	2023-06-21T00:00:00	2024-11-08T14:00:00	8	Radiación solar	241
61097	7	Sololá	717	San Juan la Laguna	12	San Juan la Laguna	6	Junio	2023-06-21T00:00:00	2024-11-08T15:00:00	2	Temperatura media	22.3
61098	7	Sololá	717	San Juan la Laguna	12	San Juan la Laguna	6	Junio	2023-06-21T00:00:00	2024-11-08T15:00:00	4	Temperatura máxima	22.5
61099	7	Sololá	717	San Juan la Laguna	12	San Juan la Laguna	6	Junio	2023-06-21T00:00:00	2024-11-08T15:00:00	3	Temperatura mínima	22.2
61100	7	Sololá	717	San Juan la Laguna	12	San Juan la Laguna	6	Junio	2023-06-21T00:00:00	2024-11-08T15:00:00	5	Humedad	74
61101	7	Sololá	717	San Juan la Laguna	12	San Juan la Laguna	6	Junio	2023-06-21T00:00:00	2024-11-08T15:00:00	6	Velocidad del viento	6.4
61102	7	Sololá	717	San Juan la Laguna	12	San Juan la Laguna	6	Junio	2023-06-21T00:00:00	2024-11-08T15:00:00	7	Dirección del viento	6.44
61103	7	Sololá	717	San Juan la Laguna	12	San Juan la Laguna	6	Junio	2023-06-21T00:00:00	2024-11-08T15:00:00	1	Precipitación	0
61104	7	Sololá	717	San Juan la Laguna	12	San Juan la Laguna	6	Junio	2023-06-21T00:00:00	2024-11-08T15:00:00	8	Radiación solar	218
61105	7	Sololá	717	San Juan la Laguna	12	San Juan la Laguna	6	Junio	2023-06-21T00:00:00	2024-11-08T16:00:00	2	Temperatura media	22.2
61106	7	Sololá	717	San Juan la Laguna	12	San Juan la Laguna	6	Junio	2023-06-21T00:00:00	2024-11-08T16:00:00	4	Temperatura máxima	22.3
61107	7	Sololá	717	San Juan la Laguna	12	San Juan la Laguna	6	Junio	2023-06-21T00:00:00	2024-11-08T16:00:00	3	Temperatura mínima	21.8
61108	7	Sololá	717	San Juan la Laguna	12	San Juan la Laguna	6	Junio	2023-06-21T00:00:00	2024-11-08T16:00:00	5	Humedad	70
61109	7	Sololá	717	San Juan la Laguna	12	San Juan la Laguna	6	Junio	2023-06-21T00:00:00	2024-11-08T16:00:00	6	Velocidad del viento	3.2
61110	7	Sololá	717	San Juan la Laguna	12	San Juan la Laguna	6	Junio	2023-06-21T00:00:00	2024-11-08T16:00:00	7	Dirección del viento	3.22
61111	7	Sololá	717	San Juan la Laguna	12	San Juan la Laguna	6	Junio	2023-06-21T00:00:00	2024-11-08T16:00:00	1	Precipitación	0
61112	7	Sololá	717	San Juan la Laguna	12	San Juan la Laguna	6	Junio	2023-06-21T00:00:00	2024-11-08T16:00:00	8	Radiación solar	31
61113	7	Sololá	717	San Juan la Laguna	12	San Juan la Laguna	6	Junio	2023-06-21T00:00:00	2024-11-08T17:00:00	2	Temperatura media	20.6
61114	7	Sololá	717	San Juan la Laguna	12	San Juan la Laguna	6	Junio	2023-06-21T00:00:00	2024-11-08T17:00:00	4	Temperatura máxima	22.3
61115	7	Sololá	717	San Juan la Laguna	12	San Juan la Laguna	6	Junio	2023-06-21T00:00:00	2024-11-08T17:00:00	3	Temperatura mínima	20.6
61116	7	Sololá	717	San Juan la Laguna	12	San Juan la Laguna	6	Junio	2023-06-21T00:00:00	2024-11-08T17:00:00	5	Humedad	77
61117	7	Sololá	717	San Juan la Laguna	12	San Juan la Laguna	6	Junio	2023-06-21T00:00:00	2024-11-08T17:00:00	6	Velocidad del viento	4.8
61118	7	Sololá	717	San Juan la Laguna	12	San Juan la Laguna	6	Junio	2023-06-21T00:00:00	2024-11-08T17:00:00	7	Dirección del viento	4.83
61119	7	Sololá	717	San Juan la Laguna	12	San Juan la Laguna	6	Junio	2023-06-21T00:00:00	2024-11-08T17:00:00	1	Precipitación	0
61120	7	Sololá	717	San Juan la Laguna	12	San Juan la Laguna	6	Junio	2023-06-21T00:00:00	2024-11-08T17:00:00	8	Radiación solar	21
61121	7	Sololá	717	San Juan la Laguna	12	San Juan la Laguna	6	Junio	2023-06-21T00:00:00	2024-11-08T18:00:00	2	Temperatura media	19.7
61122	7	Sololá	717	San Juan la Laguna	12	San Juan la Laguna	6	Junio	2023-06-21T00:00:00	2024-11-08T18:00:00	4	Temperatura máxima	20.6
61123	7	Sololá	717	San Juan la Laguna	12	San Juan la Laguna	6	Junio	2023-06-21T00:00:00	2024-11-08T18:00:00	3	Temperatura mínima	19.5
61124	7	Sololá	717	San Juan la Laguna	12	San Juan la Laguna	6	Junio	2023-06-21T00:00:00	2024-11-08T18:00:00	5	Humedad	81
61125	7	Sololá	717	San Juan la Laguna	12	San Juan la Laguna	6	Junio	2023-06-21T00:00:00	2024-11-08T18:00:00	6	Velocidad del viento	1.6
61126	7	Sololá	717	San Juan la Laguna	12	San Juan la Laguna	6	Junio	2023-06-21T00:00:00	2024-11-08T18:00:00	7	Dirección del viento	1.61
61127	7	Sololá	717	San Juan la Laguna	12	San Juan la Laguna	6	Junio	2023-06-21T00:00:00	2024-11-08T18:00:00	1	Precipitación	0
61128	7	Sololá	717	San Juan la Laguna	12	San Juan la Laguna	6	Junio	2023-06-21T00:00:00	2024-11-08T18:00:00	8	Radiación solar	18
61129	7	Sololá	717	San Juan la Laguna	12	San Juan la Laguna	6	Junio	2023-06-21T00:00:00	2024-11-08T19:00:00	2	Temperatura media	19.1
61130	7	Sololá	717	San Juan la Laguna	12	San Juan la Laguna	6	Junio	2023-06-21T00:00:00	2024-11-08T19:00:00	4	Temperatura máxima	19.7
61131	7	Sololá	717	San Juan la Laguna	12	San Juan la Laguna	6	Junio	2023-06-21T00:00:00	2024-11-08T19:00:00	3	Temperatura mínima	19.1
61132	7	Sololá	717	San Juan la Laguna	12	San Juan la Laguna	6	Junio	2023-06-21T00:00:00	2024-11-08T19:00:00	5	Humedad	85
61133	7	Sololá	717	San Juan la Laguna	12	San Juan la Laguna	6	Junio	2023-06-21T00:00:00	2024-11-08T19:00:00	6	Velocidad del viento	0
61134	7	Sololá	717	San Juan la Laguna	12	San Juan la Laguna	6	Junio	2023-06-21T00:00:00	2024-11-08T19:00:00	7	Dirección del viento	0
61135	7	Sololá	717	San Juan la Laguna	12	San Juan la Laguna	6	Junio	2023-06-21T00:00:00	2024-11-08T19:00:00	1	Precipitación	0
61136	7	Sololá	717	San Juan la Laguna	12	San Juan la Laguna	6	Junio	2023-06-21T00:00:00	2024-11-08T19:00:00	8	Radiación solar	0
61137	7	Sololá	717	San Juan la Laguna	12	San Juan la Laguna	6	Junio	2023-06-21T00:00:00	2024-11-08T20:00:00	2	Temperatura media	18.8
61138	7	Sololá	717	San Juan la Laguna	12	San Juan la Laguna	6	Junio	2023-06-21T00:00:00	2024-11-08T20:00:00	4	Temperatura máxima	19.1
61139	7	Sololá	717	San Juan la Laguna	12	San Juan la Laguna	6	Junio	2023-06-21T00:00:00	2024-11-08T20:00:00	3	Temperatura mínima	18.7
61140	7	Sololá	717	San Juan la Laguna	12	San Juan la Laguna	6	Junio	2023-06-21T00:00:00	2024-11-08T20:00:00	5	Humedad	83
61141	7	Sololá	717	San Juan la Laguna	12	San Juan la Laguna	6	Junio	2023-06-21T00:00:00	2024-11-08T20:00:00	6	Velocidad del viento	0
61142	7	Sololá	717	San Juan la Laguna	12	San Juan la Laguna	6	Junio	2023-06-21T00:00:00	2024-11-08T20:00:00	7	Dirección del viento	0
61143	7	Sololá	717	San Juan la Laguna	12	San Juan la Laguna	6	Junio	2023-06-21T00:00:00	2024-11-08T20:00:00	1	Precipitación	0
61144	7	Sololá	717	San Juan la Laguna	12	San Juan la Laguna	6	Junio	2023-06-21T00:00:00	2024-11-08T20:00:00	8	Radiación solar	0
61145	7	Sololá	717	San Juan la Laguna	12	San Juan la Laguna	6	Junio	2023-06-21T00:00:00	2024-11-08T21:00:00	2	Temperatura media	18.7
61146	7	Sololá	717	San Juan la Laguna	12	San Juan la Laguna	6	Junio	2023-06-21T00:00:00	2024-11-08T21:00:00	4	Temperatura máxima	18.9
61147	7	Sololá	717	San Juan la Laguna	12	San Juan la Laguna	6	Junio	2023-06-21T00:00:00	2024-11-08T21:00:00	3	Temperatura mínima	18.6
61148	7	Sololá	717	San Juan la Laguna	12	San Juan la Laguna	6	Junio	2023-06-21T00:00:00	2024-11-08T21:00:00	5	Humedad	84
61149	7	Sololá	717	San Juan la Laguna	12	San Juan la Laguna	6	Junio	2023-06-21T00:00:00	2024-11-08T21:00:00	6	Velocidad del viento	0
61150	7	Sololá	717	San Juan la Laguna	12	San Juan la Laguna	6	Junio	2023-06-21T00:00:00	2024-11-08T21:00:00	7	Dirección del viento	0
61151	7	Sololá	717	San Juan la Laguna	12	San Juan la Laguna	6	Junio	2023-06-21T00:00:00	2024-11-08T21:00:00	1	Precipitación	0
61152	7	Sololá	717	San Juan la Laguna	12	San Juan la Laguna	6	Junio	2023-06-21T00:00:00	2024-11-08T21:00:00	8	Radiación solar	0
61153	7	Sololá	717	San Juan la Laguna	12	San Juan la Laguna	6	Junio	2023-06-21T00:00:00	2024-11-08T22:00:00	2	Temperatura media	18.6
61154	7	Sololá	717	San Juan la Laguna	12	San Juan la Laguna	6	Junio	2023-06-21T00:00:00	2024-11-08T22:00:00	4	Temperatura máxima	18.8
61155	7	Sololá	717	San Juan la Laguna	12	San Juan la Laguna	6	Junio	2023-06-21T00:00:00	2024-11-08T22:00:00	3	Temperatura mínima	18.6
61156	7	Sololá	717	San Juan la Laguna	12	San Juan la Laguna	6	Junio	2023-06-21T00:00:00	2024-11-08T22:00:00	5	Humedad	84
61157	7	Sololá	717	San Juan la Laguna	12	San Juan la Laguna	6	Junio	2023-06-21T00:00:00	2024-11-08T22:00:00	6	Velocidad del viento	0
61158	7	Sololá	717	San Juan la Laguna	12	San Juan la Laguna	6	Junio	2023-06-21T00:00:00	2024-11-08T22:00:00	7	Dirección del viento	0
61159	7	Sololá	717	San Juan la Laguna	12	San Juan la Laguna	6	Junio	2023-06-21T00:00:00	2024-11-08T22:00:00	1	Precipitación	0
61160	7	Sololá	717	San Juan la Laguna	12	San Juan la Laguna	6	Junio	2023-06-21T00:00:00	2024-11-08T22:00:00	8	Radiación solar	0
61161	7	Sololá	717	San Juan la Laguna	12	San Juan la Laguna	6	Junio	2023-06-21T00:00:00	2024-11-08T23:00:00	2	Temperatura media	18.3
61162	7	Sololá	717	San Juan la Laguna	12	San Juan la Laguna	6	Junio	2023-06-21T00:00:00	2024-11-08T23:00:00	4	Temperatura máxima	18.6
61163	7	Sololá	717	San Juan la Laguna	12	San Juan la Laguna	6	Junio	2023-06-21T00:00:00	2024-11-08T23:00:00	3	Temperatura mínima	18.2
61164	7	Sololá	717	San Juan la Laguna	12	San Juan la Laguna	6	Junio	2023-06-21T00:00:00	2024-11-08T23:00:00	5	Humedad	84
61165	7	Sololá	717	San Juan la Laguna	12	San Juan la Laguna	6	Junio	2023-06-21T00:00:00	2024-11-08T23:00:00	6	Velocidad del viento	0
61166	7	Sololá	717	San Juan la Laguna	12	San Juan la Laguna	6	Junio	2023-06-21T00:00:00	2024-11-08T23:00:00	7	Dirección del viento	0
61167	7	Sololá	717	San Juan la Laguna	12	San Juan la Laguna	6	Junio	2023-06-21T00:00:00	2024-11-08T23:00:00	1	Precipitación	0
61168	7	Sololá	717	San Juan la Laguna	12	San Juan la Laguna	6	Junio	2023-06-21T00:00:00	2024-11-08T23:00:00	8	Radiación solar	0
61169	7	Sololá	717	San Juan la Laguna	12	San Juan la Laguna	6	Junio	2023-06-22T00:00:00	2024-11-08T00:00:00	2	Temperatura media	18.6
61170	7	Sololá	717	San Juan la Laguna	12	San Juan la Laguna	6	Junio	2023-06-22T00:00:00	2024-11-08T00:00:00	4	Temperatura máxima	18.6
61171	7	Sololá	717	San Juan la Laguna	12	San Juan la Laguna	6	Junio	2023-06-22T00:00:00	2024-11-08T00:00:00	3	Temperatura mínima	18.2
61172	7	Sololá	717	San Juan la Laguna	12	San Juan la Laguna	6	Junio	2023-06-22T00:00:00	2024-11-08T00:00:00	5	Humedad	86
61173	7	Sololá	717	San Juan la Laguna	12	San Juan la Laguna	6	Junio	2023-06-22T00:00:00	2024-11-08T00:00:00	6	Velocidad del viento	0
61174	7	Sololá	717	San Juan la Laguna	12	San Juan la Laguna	6	Junio	2023-06-22T00:00:00	2024-11-08T00:00:00	7	Dirección del viento	0
61175	7	Sololá	717	San Juan la Laguna	12	San Juan la Laguna	6	Junio	2023-06-22T00:00:00	2024-11-08T00:00:00	1	Precipitación	0.2
61176	7	Sololá	717	San Juan la Laguna	12	San Juan la Laguna	6	Junio	2023-06-22T00:00:00	2024-11-08T00:00:00	8	Radiación solar	0
61177	7	Sololá	717	San Juan la Laguna	12	San Juan la Laguna	6	Junio	2023-06-22T00:00:00	2024-11-08T01:00:00	2	Temperatura media	17.9
61178	7	Sololá	717	San Juan la Laguna	12	San Juan la Laguna	6	Junio	2023-06-22T00:00:00	2024-11-08T01:00:00	4	Temperatura máxima	18.6
61179	7	Sololá	717	San Juan la Laguna	12	San Juan la Laguna	6	Junio	2023-06-22T00:00:00	2024-11-08T01:00:00	3	Temperatura mínima	17.8
61180	7	Sololá	717	San Juan la Laguna	12	San Juan la Laguna	6	Junio	2023-06-22T00:00:00	2024-11-08T01:00:00	5	Humedad	89
61181	7	Sololá	717	San Juan la Laguna	12	San Juan la Laguna	6	Junio	2023-06-22T00:00:00	2024-11-08T01:00:00	6	Velocidad del viento	0
61182	7	Sololá	717	San Juan la Laguna	12	San Juan la Laguna	6	Junio	2023-06-22T00:00:00	2024-11-08T01:00:00	7	Dirección del viento	0
61183	7	Sololá	717	San Juan la Laguna	12	San Juan la Laguna	6	Junio	2023-06-22T00:00:00	2024-11-08T01:00:00	1	Precipitación	1
61184	7	Sololá	717	San Juan la Laguna	12	San Juan la Laguna	6	Junio	2023-06-22T00:00:00	2024-11-08T01:00:00	8	Radiación solar	0
61185	7	Sololá	717	San Juan la Laguna	12	San Juan la Laguna	6	Junio	2023-06-22T00:00:00	2024-11-08T02:00:00	2	Temperatura media	17.6
61186	7	Sololá	717	San Juan la Laguna	12	San Juan la Laguna	6	Junio	2023-06-22T00:00:00	2024-11-08T02:00:00	4	Temperatura máxima	17.9
61187	7	Sololá	717	San Juan la Laguna	12	San Juan la Laguna	6	Junio	2023-06-22T00:00:00	2024-11-08T02:00:00	3	Temperatura mínima	17.6
61188	7	Sololá	717	San Juan la Laguna	12	San Juan la Laguna	6	Junio	2023-06-22T00:00:00	2024-11-08T02:00:00	5	Humedad	88
61189	7	Sololá	717	San Juan la Laguna	12	San Juan la Laguna	6	Junio	2023-06-22T00:00:00	2024-11-08T02:00:00	6	Velocidad del viento	0
61190	7	Sololá	717	San Juan la Laguna	12	San Juan la Laguna	6	Junio	2023-06-22T00:00:00	2024-11-08T02:00:00	7	Dirección del viento	0
61191	7	Sololá	717	San Juan la Laguna	12	San Juan la Laguna	6	Junio	2023-06-22T00:00:00	2024-11-08T02:00:00	1	Precipitación	0
61192	7	Sololá	717	San Juan la Laguna	12	San Juan la Laguna	6	Junio	2023-06-22T00:00:00	2024-11-08T02:00:00	8	Radiación solar	0
61193	7	Sololá	717	San Juan la Laguna	12	San Juan la Laguna	6	Junio	2023-06-22T00:00:00	2024-11-08T03:00:00	2	Temperatura media	17.2
61194	7	Sololá	717	San Juan la Laguna	12	San Juan la Laguna	6	Junio	2023-06-22T00:00:00	2024-11-08T03:00:00	4	Temperatura máxima	17.7
61195	7	Sololá	717	San Juan la Laguna	12	San Juan la Laguna	6	Junio	2023-06-22T00:00:00	2024-11-08T03:00:00	3	Temperatura mínima	17.2
61196	7	Sololá	717	San Juan la Laguna	12	San Juan la Laguna	6	Junio	2023-06-22T00:00:00	2024-11-08T03:00:00	5	Humedad	88
61197	7	Sololá	717	San Juan la Laguna	12	San Juan la Laguna	6	Junio	2023-06-22T00:00:00	2024-11-08T03:00:00	6	Velocidad del viento	0
61198	7	Sololá	717	San Juan la Laguna	12	San Juan la Laguna	6	Junio	2023-06-22T00:00:00	2024-11-08T03:00:00	7	Dirección del viento	0
61199	7	Sololá	717	San Juan la Laguna	12	San Juan la Laguna	6	Junio	2023-06-22T00:00:00	2024-11-08T03:00:00	1	Precipitación	0
61200	7	Sololá	717	San Juan la Laguna	12	San Juan la Laguna	6	Junio	2023-06-22T00:00:00	2024-11-08T03:00:00	8	Radiación solar	0
61201	7	Sololá	717	San Juan la Laguna	12	San Juan la Laguna	6	Junio	2023-06-22T00:00:00	2024-11-08T04:00:00	2	Temperatura media	16.9
61202	7	Sololá	717	San Juan la Laguna	12	San Juan la Laguna	6	Junio	2023-06-22T00:00:00	2024-11-08T04:00:00	4	Temperatura máxima	17.2
61203	7	Sololá	717	San Juan la Laguna	12	San Juan la Laguna	6	Junio	2023-06-22T00:00:00	2024-11-08T04:00:00	3	Temperatura mínima	16.9
61204	7	Sololá	717	San Juan la Laguna	12	San Juan la Laguna	6	Junio	2023-06-22T00:00:00	2024-11-08T04:00:00	5	Humedad	87
61205	7	Sololá	717	San Juan la Laguna	12	San Juan la Laguna	6	Junio	2023-06-22T00:00:00	2024-11-08T04:00:00	6	Velocidad del viento	0
61206	7	Sololá	717	San Juan la Laguna	12	San Juan la Laguna	6	Junio	2023-06-22T00:00:00	2024-11-08T04:00:00	7	Dirección del viento	0
61207	7	Sololá	717	San Juan la Laguna	12	San Juan la Laguna	6	Junio	2023-06-22T00:00:00	2024-11-08T04:00:00	1	Precipitación	0
61208	7	Sololá	717	San Juan la Laguna	12	San Juan la Laguna	6	Junio	2023-06-22T00:00:00	2024-11-08T04:00:00	8	Radiación solar	0
61209	7	Sololá	717	San Juan la Laguna	12	San Juan la Laguna	6	Junio	2023-06-22T00:00:00	2024-11-08T05:00:00	2	Temperatura media	16.8
61210	7	Sololá	717	San Juan la Laguna	12	San Juan la Laguna	6	Junio	2023-06-22T00:00:00	2024-11-08T05:00:00	4	Temperatura máxima	17
61211	7	Sololá	717	San Juan la Laguna	12	San Juan la Laguna	6	Junio	2023-06-22T00:00:00	2024-11-08T05:00:00	3	Temperatura mínima	16.7
61212	7	Sololá	717	San Juan la Laguna	12	San Juan la Laguna	6	Junio	2023-06-22T00:00:00	2024-11-08T05:00:00	5	Humedad	86
61213	7	Sololá	717	San Juan la Laguna	12	San Juan la Laguna	6	Junio	2023-06-22T00:00:00	2024-11-08T05:00:00	6	Velocidad del viento	0
61214	7	Sololá	717	San Juan la Laguna	12	San Juan la Laguna	6	Junio	2023-06-22T00:00:00	2024-11-08T05:00:00	7	Dirección del viento	0
61215	7	Sololá	717	San Juan la Laguna	12	San Juan la Laguna	6	Junio	2023-06-22T00:00:00	2024-11-08T05:00:00	1	Precipitación	0
61216	7	Sololá	717	San Juan la Laguna	12	San Juan la Laguna	6	Junio	2023-06-22T00:00:00	2024-11-08T05:00:00	8	Radiación solar	0
61217	7	Sololá	717	San Juan la Laguna	12	San Juan la Laguna	6	Junio	2023-06-22T00:00:00	2024-11-08T06:00:00	2	Temperatura media	17.1
61218	7	Sololá	717	San Juan la Laguna	12	San Juan la Laguna	6	Junio	2023-06-22T00:00:00	2024-11-08T06:00:00	4	Temperatura máxima	17.1
61219	7	Sololá	717	San Juan la Laguna	12	San Juan la Laguna	6	Junio	2023-06-22T00:00:00	2024-11-08T06:00:00	3	Temperatura mínima	16.8
61220	7	Sololá	717	San Juan la Laguna	12	San Juan la Laguna	6	Junio	2023-06-22T00:00:00	2024-11-08T06:00:00	5	Humedad	84
61221	7	Sololá	717	San Juan la Laguna	12	San Juan la Laguna	6	Junio	2023-06-22T00:00:00	2024-11-08T06:00:00	6	Velocidad del viento	0
61222	7	Sololá	717	San Juan la Laguna	12	San Juan la Laguna	6	Junio	2023-06-22T00:00:00	2024-11-08T06:00:00	7	Dirección del viento	0
61223	7	Sololá	717	San Juan la Laguna	12	San Juan la Laguna	6	Junio	2023-06-22T00:00:00	2024-11-08T06:00:00	1	Precipitación	0
61224	7	Sololá	717	San Juan la Laguna	12	San Juan la Laguna	6	Junio	2023-06-22T00:00:00	2024-11-08T06:00:00	8	Radiación solar	6
61225	7	Sololá	717	San Juan la Laguna	12	San Juan la Laguna	6	Junio	2023-06-22T00:00:00	2024-11-08T07:00:00	2	Temperatura media	18.7
61226	7	Sololá	717	San Juan la Laguna	12	San Juan la Laguna	6	Junio	2023-06-22T00:00:00	2024-11-08T07:00:00	4	Temperatura máxima	18.7
61227	7	Sololá	717	San Juan la Laguna	12	San Juan la Laguna	6	Junio	2023-06-22T00:00:00	2024-11-08T07:00:00	3	Temperatura mínima	17.1
61228	7	Sololá	717	San Juan la Laguna	12	San Juan la Laguna	6	Junio	2023-06-22T00:00:00	2024-11-08T07:00:00	5	Humedad	79
61229	7	Sololá	717	San Juan la Laguna	12	San Juan la Laguna	6	Junio	2023-06-22T00:00:00	2024-11-08T07:00:00	6	Velocidad del viento	0
61230	7	Sololá	717	San Juan la Laguna	12	San Juan la Laguna	6	Junio	2023-06-22T00:00:00	2024-11-08T07:00:00	7	Dirección del viento	0
61231	7	Sololá	717	San Juan la Laguna	12	San Juan la Laguna	6	Junio	2023-06-22T00:00:00	2024-11-08T07:00:00	1	Precipitación	0
61232	7	Sololá	717	San Juan la Laguna	12	San Juan la Laguna	6	Junio	2023-06-22T00:00:00	2024-11-08T07:00:00	8	Radiación solar	135
61233	7	Sololá	717	San Juan la Laguna	12	San Juan la Laguna	6	Junio	2023-06-22T00:00:00	2024-11-08T08:00:00	2	Temperatura media	20.4
61234	7	Sololá	717	San Juan la Laguna	12	San Juan la Laguna	6	Junio	2023-06-22T00:00:00	2024-11-08T08:00:00	4	Temperatura máxima	20.7
61235	7	Sololá	717	San Juan la Laguna	12	San Juan la Laguna	6	Junio	2023-06-22T00:00:00	2024-11-08T08:00:00	3	Temperatura mínima	18.7
61236	7	Sololá	717	San Juan la Laguna	12	San Juan la Laguna	6	Junio	2023-06-22T00:00:00	2024-11-08T08:00:00	5	Humedad	74
61237	7	Sololá	717	San Juan la Laguna	12	San Juan la Laguna	6	Junio	2023-06-22T00:00:00	2024-11-08T08:00:00	6	Velocidad del viento	0
61238	7	Sololá	717	San Juan la Laguna	12	San Juan la Laguna	6	Junio	2023-06-22T00:00:00	2024-11-08T08:00:00	7	Dirección del viento	0
61239	7	Sololá	717	San Juan la Laguna	12	San Juan la Laguna	6	Junio	2023-06-22T00:00:00	2024-11-08T08:00:00	1	Precipitación	0
61240	7	Sololá	717	San Juan la Laguna	12	San Juan la Laguna	6	Junio	2023-06-22T00:00:00	2024-11-08T08:00:00	8	Radiación solar	377
61241	7	Sololá	717	San Juan la Laguna	12	San Juan la Laguna	6	Junio	2023-06-22T00:00:00	2024-11-08T09:00:00	2	Temperatura media	21.7
61242	7	Sololá	717	San Juan la Laguna	12	San Juan la Laguna	6	Junio	2023-06-22T00:00:00	2024-11-08T09:00:00	4	Temperatura máxima	21.7
61243	7	Sololá	717	San Juan la Laguna	12	San Juan la Laguna	6	Junio	2023-06-22T00:00:00	2024-11-08T09:00:00	3	Temperatura mínima	20.4
61244	7	Sololá	717	San Juan la Laguna	12	San Juan la Laguna	6	Junio	2023-06-22T00:00:00	2024-11-08T09:00:00	5	Humedad	70
61245	7	Sololá	717	San Juan la Laguna	12	San Juan la Laguna	6	Junio	2023-06-22T00:00:00	2024-11-08T09:00:00	6	Velocidad del viento	0
61246	7	Sololá	717	San Juan la Laguna	12	San Juan la Laguna	6	Junio	2023-06-22T00:00:00	2024-11-08T09:00:00	7	Dirección del viento	0
61247	7	Sololá	717	San Juan la Laguna	12	San Juan la Laguna	6	Junio	2023-06-22T00:00:00	2024-11-08T09:00:00	1	Precipitación	0
61248	7	Sololá	717	San Juan la Laguna	12	San Juan la Laguna	6	Junio	2023-06-22T00:00:00	2024-11-08T09:00:00	8	Radiación solar	586
61249	7	Sololá	717	San Juan la Laguna	12	San Juan la Laguna	6	Junio	2023-06-22T00:00:00	2024-11-08T10:00:00	2	Temperatura media	23.2
61250	7	Sololá	717	San Juan la Laguna	12	San Juan la Laguna	6	Junio	2023-06-22T00:00:00	2024-11-08T10:00:00	4	Temperatura máxima	23.2
61251	7	Sololá	717	San Juan la Laguna	12	San Juan la Laguna	6	Junio	2023-06-22T00:00:00	2024-11-08T10:00:00	3	Temperatura mínima	21.7
61252	7	Sololá	717	San Juan la Laguna	12	San Juan la Laguna	6	Junio	2023-06-22T00:00:00	2024-11-08T10:00:00	5	Humedad	67
61253	7	Sololá	717	San Juan la Laguna	12	San Juan la Laguna	6	Junio	2023-06-22T00:00:00	2024-11-08T10:00:00	6	Velocidad del viento	1.6
61254	7	Sololá	717	San Juan la Laguna	12	San Juan la Laguna	6	Junio	2023-06-22T00:00:00	2024-11-08T10:00:00	7	Dirección del viento	1.61
61255	7	Sololá	717	San Juan la Laguna	12	San Juan la Laguna	6	Junio	2023-06-22T00:00:00	2024-11-08T10:00:00	1	Precipitación	0
61256	7	Sololá	717	San Juan la Laguna	12	San Juan la Laguna	6	Junio	2023-06-22T00:00:00	2024-11-08T10:00:00	8	Radiación solar	771
61257	7	Sololá	717	San Juan la Laguna	12	San Juan la Laguna	6	Junio	2023-06-22T00:00:00	2024-11-08T11:00:00	2	Temperatura media	23.7
61258	7	Sololá	717	San Juan la Laguna	12	San Juan la Laguna	6	Junio	2023-06-22T00:00:00	2024-11-08T11:00:00	4	Temperatura máxima	24.2
61259	7	Sololá	717	San Juan la Laguna	12	San Juan la Laguna	6	Junio	2023-06-22T00:00:00	2024-11-08T11:00:00	3	Temperatura mínima	23.3
61260	7	Sololá	717	San Juan la Laguna	12	San Juan la Laguna	6	Junio	2023-06-22T00:00:00	2024-11-08T11:00:00	5	Humedad	68
61261	7	Sololá	717	San Juan la Laguna	12	San Juan la Laguna	6	Junio	2023-06-22T00:00:00	2024-11-08T11:00:00	6	Velocidad del viento	1.6
61262	7	Sololá	717	San Juan la Laguna	12	San Juan la Laguna	6	Junio	2023-06-22T00:00:00	2024-11-08T11:00:00	7	Dirección del viento	1.61
61263	7	Sololá	717	San Juan la Laguna	12	San Juan la Laguna	6	Junio	2023-06-22T00:00:00	2024-11-08T11:00:00	1	Precipitación	0
61264	7	Sololá	717	San Juan la Laguna	12	San Juan la Laguna	6	Junio	2023-06-22T00:00:00	2024-11-08T11:00:00	8	Radiación solar	897
61265	7	Sololá	717	San Juan la Laguna	12	San Juan la Laguna	6	Junio	2023-06-22T00:00:00	2024-11-08T12:00:00	2	Temperatura media	23.7
61266	7	Sololá	717	San Juan la Laguna	12	San Juan la Laguna	6	Junio	2023-06-22T00:00:00	2024-11-08T12:00:00	4	Temperatura máxima	23.9
61267	7	Sololá	717	San Juan la Laguna	12	San Juan la Laguna	6	Junio	2023-06-22T00:00:00	2024-11-08T12:00:00	3	Temperatura mínima	23.1
61268	7	Sololá	717	San Juan la Laguna	12	San Juan la Laguna	6	Junio	2023-06-22T00:00:00	2024-11-08T12:00:00	5	Humedad	67
61269	7	Sololá	717	San Juan la Laguna	12	San Juan la Laguna	6	Junio	2023-06-22T00:00:00	2024-11-08T12:00:00	6	Velocidad del viento	4.8
61270	7	Sololá	717	San Juan la Laguna	12	San Juan la Laguna	6	Junio	2023-06-22T00:00:00	2024-11-08T12:00:00	7	Dirección del viento	4.83
61271	7	Sololá	717	San Juan la Laguna	12	San Juan la Laguna	6	Junio	2023-06-22T00:00:00	2024-11-08T12:00:00	1	Precipitación	0
61272	7	Sololá	717	San Juan la Laguna	12	San Juan la Laguna	6	Junio	2023-06-22T00:00:00	2024-11-08T12:00:00	8	Radiación solar	963
61273	7	Sololá	717	San Juan la Laguna	12	San Juan la Laguna	6	Junio	2023-06-22T00:00:00	2024-11-08T13:00:00	2	Temperatura media	22.8
61274	7	Sololá	717	San Juan la Laguna	12	San Juan la Laguna	6	Junio	2023-06-22T00:00:00	2024-11-08T13:00:00	4	Temperatura máxima	23.7
61275	7	Sololá	717	San Juan la Laguna	12	San Juan la Laguna	6	Junio	2023-06-22T00:00:00	2024-11-08T13:00:00	3	Temperatura mínima	22.4
61276	7	Sololá	717	San Juan la Laguna	12	San Juan la Laguna	6	Junio	2023-06-22T00:00:00	2024-11-08T13:00:00	5	Humedad	70
61277	7	Sololá	717	San Juan la Laguna	12	San Juan la Laguna	6	Junio	2023-06-22T00:00:00	2024-11-08T13:00:00	6	Velocidad del viento	4.8
61278	7	Sololá	717	San Juan la Laguna	12	San Juan la Laguna	6	Junio	2023-06-22T00:00:00	2024-11-08T13:00:00	7	Dirección del viento	4.83
61279	7	Sololá	717	San Juan la Laguna	12	San Juan la Laguna	6	Junio	2023-06-22T00:00:00	2024-11-08T13:00:00	1	Precipitación	0
61280	7	Sololá	717	San Juan la Laguna	12	San Juan la Laguna	6	Junio	2023-06-22T00:00:00	2024-11-08T13:00:00	8	Radiación solar	975
61281	7	Sololá	717	San Juan la Laguna	12	San Juan la Laguna	6	Junio	2023-06-22T00:00:00	2024-11-08T14:00:00	2	Temperatura media	22.4
61282	7	Sololá	717	San Juan la Laguna	12	San Juan la Laguna	6	Junio	2023-06-22T00:00:00	2024-11-08T14:00:00	4	Temperatura máxima	23.8
61283	7	Sololá	717	San Juan la Laguna	12	San Juan la Laguna	6	Junio	2023-06-22T00:00:00	2024-11-08T14:00:00	3	Temperatura mínima	22.3
61284	7	Sololá	717	San Juan la Laguna	12	San Juan la Laguna	6	Junio	2023-06-22T00:00:00	2024-11-08T14:00:00	5	Humedad	73
61285	7	Sololá	717	San Juan la Laguna	12	San Juan la Laguna	6	Junio	2023-06-22T00:00:00	2024-11-08T14:00:00	6	Velocidad del viento	3.2
61286	7	Sololá	717	San Juan la Laguna	12	San Juan la Laguna	6	Junio	2023-06-22T00:00:00	2024-11-08T14:00:00	7	Dirección del viento	3.22
61287	7	Sololá	717	San Juan la Laguna	12	San Juan la Laguna	6	Junio	2023-06-22T00:00:00	2024-11-08T14:00:00	1	Precipitación	0
61288	7	Sololá	717	San Juan la Laguna	12	San Juan la Laguna	6	Junio	2023-06-22T00:00:00	2024-11-08T14:00:00	8	Radiación solar	948
61289	7	Sololá	717	San Juan la Laguna	12	San Juan la Laguna	6	Junio	2023-06-22T00:00:00	2024-11-08T15:00:00	2	Temperatura media	22.1
61290	7	Sololá	717	San Juan la Laguna	12	San Juan la Laguna	6	Junio	2023-06-22T00:00:00	2024-11-08T15:00:00	4	Temperatura máxima	22.7
61291	7	Sololá	717	San Juan la Laguna	12	San Juan la Laguna	6	Junio	2023-06-22T00:00:00	2024-11-08T15:00:00	3	Temperatura mínima	22.1
61292	7	Sololá	717	San Juan la Laguna	12	San Juan la Laguna	6	Junio	2023-06-22T00:00:00	2024-11-08T15:00:00	5	Humedad	74
61293	7	Sololá	717	San Juan la Laguna	12	San Juan la Laguna	6	Junio	2023-06-22T00:00:00	2024-11-08T15:00:00	6	Velocidad del viento	0
61294	7	Sololá	717	San Juan la Laguna	12	San Juan la Laguna	6	Junio	2023-06-22T00:00:00	2024-11-08T15:00:00	7	Dirección del viento	0
61295	7	Sololá	717	San Juan la Laguna	12	San Juan la Laguna	6	Junio	2023-06-22T00:00:00	2024-11-08T15:00:00	1	Precipitación	0
61296	7	Sololá	717	San Juan la Laguna	12	San Juan la Laguna	6	Junio	2023-06-22T00:00:00	2024-11-08T15:00:00	8	Radiación solar	666
61297	7	Sololá	717	San Juan la Laguna	12	San Juan la Laguna	6	Junio	2023-06-22T00:00:00	2024-11-08T16:00:00	2	Temperatura media	22.3
61298	7	Sololá	717	San Juan la Laguna	12	San Juan la Laguna	6	Junio	2023-06-22T00:00:00	2024-11-08T16:00:00	4	Temperatura máxima	22.3
61299	7	Sololá	717	San Juan la Laguna	12	San Juan la Laguna	6	Junio	2023-06-22T00:00:00	2024-11-08T16:00:00	3	Temperatura mínima	21.8
61300	7	Sololá	717	San Juan la Laguna	12	San Juan la Laguna	6	Junio	2023-06-22T00:00:00	2024-11-08T16:00:00	5	Humedad	72
61301	7	Sololá	717	San Juan la Laguna	12	San Juan la Laguna	6	Junio	2023-06-22T00:00:00	2024-11-08T16:00:00	6	Velocidad del viento	1.6
61302	7	Sololá	717	San Juan la Laguna	12	San Juan la Laguna	6	Junio	2023-06-22T00:00:00	2024-11-08T16:00:00	7	Dirección del viento	1.61
61303	7	Sololá	717	San Juan la Laguna	12	San Juan la Laguna	6	Junio	2023-06-22T00:00:00	2024-11-08T16:00:00	1	Precipitación	0
61304	7	Sololá	717	San Juan la Laguna	12	San Juan la Laguna	6	Junio	2023-06-22T00:00:00	2024-11-08T16:00:00	8	Radiación solar	397
61305	7	Sololá	717	San Juan la Laguna	12	San Juan la Laguna	6	Junio	2023-06-22T00:00:00	2024-11-08T17:00:00	2	Temperatura media	20.2
61306	7	Sololá	717	San Juan la Laguna	12	San Juan la Laguna	6	Junio	2023-06-22T00:00:00	2024-11-08T17:00:00	4	Temperatura máxima	22.4
61307	7	Sololá	717	San Juan la Laguna	12	San Juan la Laguna	6	Junio	2023-06-22T00:00:00	2024-11-08T17:00:00	3	Temperatura mínima	20.2
61308	7	Sololá	717	San Juan la Laguna	12	San Juan la Laguna	6	Junio	2023-06-22T00:00:00	2024-11-08T17:00:00	5	Humedad	80
61309	7	Sololá	717	San Juan la Laguna	12	San Juan la Laguna	6	Junio	2023-06-22T00:00:00	2024-11-08T17:00:00	6	Velocidad del viento	1.6
61310	7	Sololá	717	San Juan la Laguna	12	San Juan la Laguna	6	Junio	2023-06-22T00:00:00	2024-11-08T17:00:00	7	Dirección del viento	1.61
61311	7	Sololá	717	San Juan la Laguna	12	San Juan la Laguna	6	Junio	2023-06-22T00:00:00	2024-11-08T17:00:00	1	Precipitación	0
61312	7	Sololá	717	San Juan la Laguna	12	San Juan la Laguna	6	Junio	2023-06-22T00:00:00	2024-11-08T17:00:00	8	Radiación solar	131
61313	7	Sololá	717	San Juan la Laguna	12	San Juan la Laguna	6	Junio	2023-06-22T00:00:00	2024-11-08T18:00:00	2	Temperatura media	19.6
61314	7	Sololá	717	San Juan la Laguna	12	San Juan la Laguna	6	Junio	2023-06-22T00:00:00	2024-11-08T18:00:00	4	Temperatura máxima	20.2
61315	7	Sololá	717	San Juan la Laguna	12	San Juan la Laguna	6	Junio	2023-06-22T00:00:00	2024-11-08T18:00:00	3	Temperatura mínima	19.6
61316	7	Sololá	717	San Juan la Laguna	12	San Juan la Laguna	6	Junio	2023-06-22T00:00:00	2024-11-08T18:00:00	5	Humedad	82
61317	7	Sololá	717	San Juan la Laguna	12	San Juan la Laguna	6	Junio	2023-06-22T00:00:00	2024-11-08T18:00:00	6	Velocidad del viento	0
61318	7	Sololá	717	San Juan la Laguna	12	San Juan la Laguna	6	Junio	2023-06-22T00:00:00	2024-11-08T18:00:00	7	Dirección del viento	0
61319	7	Sololá	717	San Juan la Laguna	12	San Juan la Laguna	6	Junio	2023-06-22T00:00:00	2024-11-08T18:00:00	1	Precipitación	0
61320	7	Sololá	717	San Juan la Laguna	12	San Juan la Laguna	6	Junio	2023-06-22T00:00:00	2024-11-08T18:00:00	8	Radiación solar	36
61321	7	Sololá	717	San Juan la Laguna	12	San Juan la Laguna	6	Junio	2023-06-22T00:00:00	2024-11-08T19:00:00	2	Temperatura media	19.1
61322	7	Sololá	717	San Juan la Laguna	12	San Juan la Laguna	6	Junio	2023-06-22T00:00:00	2024-11-08T19:00:00	4	Temperatura máxima	19.7
61323	7	Sololá	717	San Juan la Laguna	12	San Juan la Laguna	6	Junio	2023-06-22T00:00:00	2024-11-08T19:00:00	3	Temperatura mínima	19.1
61324	7	Sololá	717	San Juan la Laguna	12	San Juan la Laguna	6	Junio	2023-06-22T00:00:00	2024-11-08T19:00:00	5	Humedad	83
61325	7	Sololá	717	San Juan la Laguna	12	San Juan la Laguna	6	Junio	2023-06-22T00:00:00	2024-11-08T19:00:00	6	Velocidad del viento	0
61326	7	Sololá	717	San Juan la Laguna	12	San Juan la Laguna	6	Junio	2023-06-22T00:00:00	2024-11-08T19:00:00	7	Dirección del viento	0
61327	7	Sololá	717	San Juan la Laguna	12	San Juan la Laguna	6	Junio	2023-06-22T00:00:00	2024-11-08T19:00:00	1	Precipitación	0
61328	7	Sololá	717	San Juan la Laguna	12	San Juan la Laguna	6	Junio	2023-06-22T00:00:00	2024-11-08T19:00:00	8	Radiación solar	0
61329	7	Sololá	717	San Juan la Laguna	12	San Juan la Laguna	6	Junio	2023-06-22T00:00:00	2024-11-08T20:00:00	2	Temperatura media	18.2
61330	7	Sololá	717	San Juan la Laguna	12	San Juan la Laguna	6	Junio	2023-06-22T00:00:00	2024-11-08T20:00:00	4	Temperatura máxima	19.1
61331	7	Sololá	717	San Juan la Laguna	12	San Juan la Laguna	6	Junio	2023-06-22T00:00:00	2024-11-08T20:00:00	3	Temperatura mínima	18.2
61332	7	Sololá	717	San Juan la Laguna	12	San Juan la Laguna	6	Junio	2023-06-22T00:00:00	2024-11-08T20:00:00	5	Humedad	87
61333	7	Sololá	717	San Juan la Laguna	12	San Juan la Laguna	6	Junio	2023-06-22T00:00:00	2024-11-08T20:00:00	6	Velocidad del viento	0
61334	7	Sololá	717	San Juan la Laguna	12	San Juan la Laguna	6	Junio	2023-06-22T00:00:00	2024-11-08T20:00:00	7	Dirección del viento	0
61335	7	Sololá	717	San Juan la Laguna	12	San Juan la Laguna	6	Junio	2023-06-22T00:00:00	2024-11-08T20:00:00	1	Precipitación	1.2
61336	7	Sololá	717	San Juan la Laguna	12	San Juan la Laguna	6	Junio	2023-06-22T00:00:00	2024-11-08T20:00:00	8	Radiación solar	0
61337	7	Sololá	717	San Juan la Laguna	12	San Juan la Laguna	6	Junio	2023-06-22T00:00:00	2024-11-08T21:00:00	2	Temperatura media	18
61338	7	Sololá	717	San Juan la Laguna	12	San Juan la Laguna	6	Junio	2023-06-22T00:00:00	2024-11-08T21:00:00	4	Temperatura máxima	18.2
61339	7	Sololá	717	San Juan la Laguna	12	San Juan la Laguna	6	Junio	2023-06-22T00:00:00	2024-11-08T21:00:00	3	Temperatura mínima	17.9
61340	7	Sololá	717	San Juan la Laguna	12	San Juan la Laguna	6	Junio	2023-06-22T00:00:00	2024-11-08T21:00:00	5	Humedad	88
61341	7	Sololá	717	San Juan la Laguna	12	San Juan la Laguna	6	Junio	2023-06-22T00:00:00	2024-11-08T21:00:00	6	Velocidad del viento	0
61342	7	Sololá	717	San Juan la Laguna	12	San Juan la Laguna	6	Junio	2023-06-22T00:00:00	2024-11-08T21:00:00	7	Dirección del viento	0
61343	7	Sololá	717	San Juan la Laguna	12	San Juan la Laguna	6	Junio	2023-06-22T00:00:00	2024-11-08T21:00:00	1	Precipitación	0
61344	7	Sololá	717	San Juan la Laguna	12	San Juan la Laguna	6	Junio	2023-06-22T00:00:00	2024-11-08T21:00:00	8	Radiación solar	0
61345	7	Sololá	717	San Juan la Laguna	12	San Juan la Laguna	6	Junio	2023-06-22T00:00:00	2024-11-08T22:00:00	2	Temperatura media	18.1
61346	7	Sololá	717	San Juan la Laguna	12	San Juan la Laguna	6	Junio	2023-06-22T00:00:00	2024-11-08T22:00:00	4	Temperatura máxima	18.3
61347	7	Sololá	717	San Juan la Laguna	12	San Juan la Laguna	6	Junio	2023-06-22T00:00:00	2024-11-08T22:00:00	3	Temperatura mínima	17.9
61348	7	Sololá	717	San Juan la Laguna	12	San Juan la Laguna	6	Junio	2023-06-22T00:00:00	2024-11-08T22:00:00	5	Humedad	87
61349	7	Sololá	717	San Juan la Laguna	12	San Juan la Laguna	6	Junio	2023-06-22T00:00:00	2024-11-08T22:00:00	6	Velocidad del viento	0
61350	7	Sololá	717	San Juan la Laguna	12	San Juan la Laguna	6	Junio	2023-06-22T00:00:00	2024-11-08T22:00:00	7	Dirección del viento	0
61351	7	Sololá	717	San Juan la Laguna	12	San Juan la Laguna	6	Junio	2023-06-22T00:00:00	2024-11-08T22:00:00	1	Precipitación	0
61352	7	Sololá	717	San Juan la Laguna	12	San Juan la Laguna	6	Junio	2023-06-22T00:00:00	2024-11-08T22:00:00	8	Radiación solar	0
61353	7	Sololá	717	San Juan la Laguna	12	San Juan la Laguna	6	Junio	2023-06-22T00:00:00	2024-11-08T23:00:00	2	Temperatura media	18.4
61354	7	Sololá	717	San Juan la Laguna	12	San Juan la Laguna	6	Junio	2023-06-22T00:00:00	2024-11-08T23:00:00	4	Temperatura máxima	18.4
61355	7	Sololá	717	San Juan la Laguna	12	San Juan la Laguna	6	Junio	2023-06-22T00:00:00	2024-11-08T23:00:00	3	Temperatura mínima	18.1
61356	7	Sololá	717	San Juan la Laguna	12	San Juan la Laguna	6	Junio	2023-06-22T00:00:00	2024-11-08T23:00:00	5	Humedad	85
61357	7	Sololá	717	San Juan la Laguna	12	San Juan la Laguna	6	Junio	2023-06-22T00:00:00	2024-11-08T23:00:00	6	Velocidad del viento	0
61358	7	Sololá	717	San Juan la Laguna	12	San Juan la Laguna	6	Junio	2023-06-22T00:00:00	2024-11-08T23:00:00	7	Dirección del viento	0
61359	7	Sololá	717	San Juan la Laguna	12	San Juan la Laguna	6	Junio	2023-06-22T00:00:00	2024-11-08T23:00:00	1	Precipitación	0
61360	7	Sololá	717	San Juan la Laguna	12	San Juan la Laguna	6	Junio	2023-06-22T00:00:00	2024-11-08T23:00:00	8	Radiación solar	0
61361	7	Sololá	717	San Juan la Laguna	12	San Juan la Laguna	6	Junio	2023-06-23T00:00:00	2024-11-08T00:00:00	2	Temperatura media	17.9
61362	7	Sololá	717	San Juan la Laguna	12	San Juan la Laguna	6	Junio	2023-06-23T00:00:00	2024-11-08T00:00:00	4	Temperatura máxima	18.5
61363	7	Sololá	717	San Juan la Laguna	12	San Juan la Laguna	6	Junio	2023-06-23T00:00:00	2024-11-08T00:00:00	3	Temperatura mínima	17.9
61364	7	Sololá	717	San Juan la Laguna	12	San Juan la Laguna	6	Junio	2023-06-23T00:00:00	2024-11-08T00:00:00	5	Humedad	87
61365	7	Sololá	717	San Juan la Laguna	12	San Juan la Laguna	6	Junio	2023-06-23T00:00:00	2024-11-08T00:00:00	6	Velocidad del viento	0
61366	7	Sololá	717	San Juan la Laguna	12	San Juan la Laguna	6	Junio	2023-06-23T00:00:00	2024-11-08T00:00:00	7	Dirección del viento	0
61367	7	Sololá	717	San Juan la Laguna	12	San Juan la Laguna	6	Junio	2023-06-23T00:00:00	2024-11-08T00:00:00	1	Precipitación	0
61368	7	Sololá	717	San Juan la Laguna	12	San Juan la Laguna	6	Junio	2023-06-23T00:00:00	2024-11-08T00:00:00	8	Radiación solar	0
61369	7	Sololá	717	San Juan la Laguna	12	San Juan la Laguna	6	Junio	2023-06-23T00:00:00	2024-11-08T01:00:00	2	Temperatura media	17.2
61370	7	Sololá	717	San Juan la Laguna	12	San Juan la Laguna	6	Junio	2023-06-23T00:00:00	2024-11-08T01:00:00	4	Temperatura máxima	17.9
61371	7	Sololá	717	San Juan la Laguna	12	San Juan la Laguna	6	Junio	2023-06-23T00:00:00	2024-11-08T01:00:00	3	Temperatura mínima	17.1
61372	7	Sololá	717	San Juan la Laguna	12	San Juan la Laguna	6	Junio	2023-06-23T00:00:00	2024-11-08T01:00:00	5	Humedad	88
61373	7	Sololá	717	San Juan la Laguna	12	San Juan la Laguna	6	Junio	2023-06-23T00:00:00	2024-11-08T01:00:00	6	Velocidad del viento	0
61374	7	Sololá	717	San Juan la Laguna	12	San Juan la Laguna	6	Junio	2023-06-23T00:00:00	2024-11-08T01:00:00	7	Dirección del viento	0
61375	7	Sololá	717	San Juan la Laguna	12	San Juan la Laguna	6	Junio	2023-06-23T00:00:00	2024-11-08T01:00:00	1	Precipitación	0
61376	7	Sololá	717	San Juan la Laguna	12	San Juan la Laguna	6	Junio	2023-06-23T00:00:00	2024-11-08T01:00:00	8	Radiación solar	0
61377	7	Sololá	717	San Juan la Laguna	12	San Juan la Laguna	6	Junio	2023-06-23T00:00:00	2024-11-08T02:00:00	2	Temperatura media	17.1
61378	7	Sololá	717	San Juan la Laguna	12	San Juan la Laguna	6	Junio	2023-06-23T00:00:00	2024-11-08T02:00:00	4	Temperatura máxima	17.2
61379	7	Sololá	717	San Juan la Laguna	12	San Juan la Laguna	6	Junio	2023-06-23T00:00:00	2024-11-08T02:00:00	3	Temperatura mínima	16.9
61380	7	Sololá	717	San Juan la Laguna	12	San Juan la Laguna	6	Junio	2023-06-23T00:00:00	2024-11-08T02:00:00	5	Humedad	87
61381	7	Sololá	717	San Juan la Laguna	12	San Juan la Laguna	6	Junio	2023-06-23T00:00:00	2024-11-08T02:00:00	6	Velocidad del viento	0
61382	7	Sololá	717	San Juan la Laguna	12	San Juan la Laguna	6	Junio	2023-06-23T00:00:00	2024-11-08T02:00:00	7	Dirección del viento	0
61383	7	Sololá	717	San Juan la Laguna	12	San Juan la Laguna	6	Junio	2023-06-23T00:00:00	2024-11-08T02:00:00	1	Precipitación	0
61384	7	Sololá	717	San Juan la Laguna	12	San Juan la Laguna	6	Junio	2023-06-23T00:00:00	2024-11-08T02:00:00	8	Radiación solar	0
61385	7	Sololá	717	San Juan la Laguna	12	San Juan la Laguna	6	Junio	2023-06-23T00:00:00	2024-11-08T03:00:00	2	Temperatura media	17.2
61386	7	Sololá	717	San Juan la Laguna	12	San Juan la Laguna	6	Junio	2023-06-23T00:00:00	2024-11-08T03:00:00	4	Temperatura máxima	17.3
61387	7	Sololá	717	San Juan la Laguna	12	San Juan la Laguna	6	Junio	2023-06-23T00:00:00	2024-11-08T03:00:00	3	Temperatura mínima	17.1
61388	7	Sololá	717	San Juan la Laguna	12	San Juan la Laguna	6	Junio	2023-06-23T00:00:00	2024-11-08T03:00:00	5	Humedad	87
61389	7	Sololá	717	San Juan la Laguna	12	San Juan la Laguna	6	Junio	2023-06-23T00:00:00	2024-11-08T03:00:00	6	Velocidad del viento	0
61390	7	Sololá	717	San Juan la Laguna	12	San Juan la Laguna	6	Junio	2023-06-23T00:00:00	2024-11-08T03:00:00	7	Dirección del viento	0
61391	7	Sololá	717	San Juan la Laguna	12	San Juan la Laguna	6	Junio	2023-06-23T00:00:00	2024-11-08T03:00:00	1	Precipitación	0
61392	7	Sololá	717	San Juan la Laguna	12	San Juan la Laguna	6	Junio	2023-06-23T00:00:00	2024-11-08T03:00:00	8	Radiación solar	0
61393	7	Sololá	717	San Juan la Laguna	12	San Juan la Laguna	6	Junio	2023-06-23T00:00:00	2024-11-08T04:00:00	2	Temperatura media	17.3
61394	7	Sololá	717	San Juan la Laguna	12	San Juan la Laguna	6	Junio	2023-06-23T00:00:00	2024-11-08T04:00:00	4	Temperatura máxima	17.4
61395	7	Sololá	717	San Juan la Laguna	12	San Juan la Laguna	6	Junio	2023-06-23T00:00:00	2024-11-08T04:00:00	3	Temperatura mínima	17.2
61396	7	Sololá	717	San Juan la Laguna	12	San Juan la Laguna	6	Junio	2023-06-23T00:00:00	2024-11-08T04:00:00	5	Humedad	88
61397	7	Sololá	717	San Juan la Laguna	12	San Juan la Laguna	6	Junio	2023-06-23T00:00:00	2024-11-08T04:00:00	6	Velocidad del viento	0
61398	7	Sololá	717	San Juan la Laguna	12	San Juan la Laguna	6	Junio	2023-06-23T00:00:00	2024-11-08T04:00:00	7	Dirección del viento	0
61399	7	Sololá	717	San Juan la Laguna	12	San Juan la Laguna	6	Junio	2023-06-23T00:00:00	2024-11-08T04:00:00	1	Precipitación	0
61400	7	Sololá	717	San Juan la Laguna	12	San Juan la Laguna	6	Junio	2023-06-23T00:00:00	2024-11-08T04:00:00	8	Radiación solar	0
61401	7	Sololá	717	San Juan la Laguna	12	San Juan la Laguna	6	Junio	2023-06-23T00:00:00	2024-11-08T05:00:00	2	Temperatura media	16.7
61402	7	Sololá	717	San Juan la Laguna	12	San Juan la Laguna	6	Junio	2023-06-23T00:00:00	2024-11-08T05:00:00	4	Temperatura máxima	17.3
61403	7	Sololá	717	San Juan la Laguna	12	San Juan la Laguna	6	Junio	2023-06-23T00:00:00	2024-11-08T05:00:00	3	Temperatura mínima	16.7
61404	7	Sololá	717	San Juan la Laguna	12	San Juan la Laguna	6	Junio	2023-06-23T00:00:00	2024-11-08T05:00:00	5	Humedad	88
61405	7	Sololá	717	San Juan la Laguna	12	San Juan la Laguna	6	Junio	2023-06-23T00:00:00	2024-11-08T05:00:00	6	Velocidad del viento	0
61406	7	Sololá	717	San Juan la Laguna	12	San Juan la Laguna	6	Junio	2023-06-23T00:00:00	2024-11-08T05:00:00	7	Dirección del viento	0
61407	7	Sololá	717	San Juan la Laguna	12	San Juan la Laguna	6	Junio	2023-06-23T00:00:00	2024-11-08T05:00:00	1	Precipitación	0
61408	7	Sololá	717	San Juan la Laguna	12	San Juan la Laguna	6	Junio	2023-06-23T00:00:00	2024-11-08T05:00:00	8	Radiación solar	0
61409	7	Sololá	717	San Juan la Laguna	12	San Juan la Laguna	6	Junio	2023-06-23T00:00:00	2024-11-08T06:00:00	2	Temperatura media	16.3
61410	7	Sololá	717	San Juan la Laguna	12	San Juan la Laguna	6	Junio	2023-06-23T00:00:00	2024-11-08T06:00:00	4	Temperatura máxima	16.8
61411	7	Sololá	717	San Juan la Laguna	12	San Juan la Laguna	6	Junio	2023-06-23T00:00:00	2024-11-08T06:00:00	3	Temperatura mínima	16.3
61412	7	Sololá	717	San Juan la Laguna	12	San Juan la Laguna	6	Junio	2023-06-23T00:00:00	2024-11-08T06:00:00	5	Humedad	87
61413	7	Sololá	717	San Juan la Laguna	12	San Juan la Laguna	6	Junio	2023-06-23T00:00:00	2024-11-08T06:00:00	6	Velocidad del viento	0
61414	7	Sololá	717	San Juan la Laguna	12	San Juan la Laguna	6	Junio	2023-06-23T00:00:00	2024-11-08T06:00:00	7	Dirección del viento	0
61415	7	Sololá	717	San Juan la Laguna	12	San Juan la Laguna	6	Junio	2023-06-23T00:00:00	2024-11-08T06:00:00	1	Precipitación	0
61416	7	Sololá	717	San Juan la Laguna	12	San Juan la Laguna	6	Junio	2023-06-23T00:00:00	2024-11-08T06:00:00	8	Radiación solar	0
61417	7	Sololá	717	San Juan la Laguna	12	San Juan la Laguna	6	Junio	2023-06-23T00:00:00	2024-11-08T07:00:00	2	Temperatura media	18.8
61418	7	Sololá	717	San Juan la Laguna	12	San Juan la Laguna	6	Junio	2023-06-23T00:00:00	2024-11-08T07:00:00	4	Temperatura máxima	18.8
61419	7	Sololá	717	San Juan la Laguna	12	San Juan la Laguna	6	Junio	2023-06-23T00:00:00	2024-11-08T07:00:00	3	Temperatura mínima	16.3
61420	7	Sololá	717	San Juan la Laguna	12	San Juan la Laguna	6	Junio	2023-06-23T00:00:00	2024-11-08T07:00:00	5	Humedad	82
61421	7	Sololá	717	San Juan la Laguna	12	San Juan la Laguna	6	Junio	2023-06-23T00:00:00	2024-11-08T07:00:00	6	Velocidad del viento	0
61422	7	Sololá	717	San Juan la Laguna	12	San Juan la Laguna	6	Junio	2023-06-23T00:00:00	2024-11-08T07:00:00	7	Dirección del viento	0
61423	7	Sololá	717	San Juan la Laguna	12	San Juan la Laguna	6	Junio	2023-06-23T00:00:00	2024-11-08T07:00:00	1	Precipitación	0
61424	7	Sololá	717	San Juan la Laguna	12	San Juan la Laguna	6	Junio	2023-06-23T00:00:00	2024-11-08T07:00:00	8	Radiación solar	74
61425	7	Sololá	717	San Juan la Laguna	12	San Juan la Laguna	6	Junio	2023-06-23T00:00:00	2024-11-08T08:00:00	2	Temperatura media	21.6
61426	7	Sololá	717	San Juan la Laguna	12	San Juan la Laguna	6	Junio	2023-06-23T00:00:00	2024-11-08T08:00:00	4	Temperatura máxima	21.8
61427	7	Sololá	717	San Juan la Laguna	12	San Juan la Laguna	6	Junio	2023-06-23T00:00:00	2024-11-08T08:00:00	3	Temperatura mínima	18.9
61428	7	Sololá	717	San Juan la Laguna	12	San Juan la Laguna	6	Junio	2023-06-23T00:00:00	2024-11-08T08:00:00	5	Humedad	72
61429	7	Sololá	717	San Juan la Laguna	12	San Juan la Laguna	6	Junio	2023-06-23T00:00:00	2024-11-08T08:00:00	6	Velocidad del viento	0
61430	7	Sololá	717	San Juan la Laguna	12	San Juan la Laguna	6	Junio	2023-06-23T00:00:00	2024-11-08T08:00:00	7	Dirección del viento	0
61431	7	Sololá	717	San Juan la Laguna	12	San Juan la Laguna	6	Junio	2023-06-23T00:00:00	2024-11-08T08:00:00	1	Precipitación	0
61432	7	Sololá	717	San Juan la Laguna	12	San Juan la Laguna	6	Junio	2023-06-23T00:00:00	2024-11-08T08:00:00	8	Radiación solar	280
61433	7	Sololá	717	San Juan la Laguna	12	San Juan la Laguna	6	Junio	2023-06-23T00:00:00	2024-11-08T09:00:00	2	Temperatura media	21.8
61434	7	Sololá	717	San Juan la Laguna	12	San Juan la Laguna	6	Junio	2023-06-23T00:00:00	2024-11-08T09:00:00	4	Temperatura máxima	21.8
61435	7	Sololá	717	San Juan la Laguna	12	San Juan la Laguna	6	Junio	2023-06-23T00:00:00	2024-11-08T09:00:00	3	Temperatura mínima	21.1
61436	7	Sololá	717	San Juan la Laguna	12	San Juan la Laguna	6	Junio	2023-06-23T00:00:00	2024-11-08T09:00:00	5	Humedad	70
61437	7	Sololá	717	San Juan la Laguna	12	San Juan la Laguna	6	Junio	2023-06-23T00:00:00	2024-11-08T09:00:00	6	Velocidad del viento	0
61438	7	Sololá	717	San Juan la Laguna	12	San Juan la Laguna	6	Junio	2023-06-23T00:00:00	2024-11-08T09:00:00	7	Dirección del viento	0
61439	7	Sololá	717	San Juan la Laguna	12	San Juan la Laguna	6	Junio	2023-06-23T00:00:00	2024-11-08T09:00:00	1	Precipitación	0
61440	7	Sololá	717	San Juan la Laguna	12	San Juan la Laguna	6	Junio	2023-06-23T00:00:00	2024-11-08T09:00:00	8	Radiación solar	508
61441	7	Sololá	717	San Juan la Laguna	12	San Juan la Laguna	6	Junio	2023-06-23T00:00:00	2024-11-08T10:00:00	2	Temperatura media	23.2
61442	7	Sololá	717	San Juan la Laguna	12	San Juan la Laguna	6	Junio	2023-06-23T00:00:00	2024-11-08T10:00:00	4	Temperatura máxima	23.2
61443	7	Sololá	717	San Juan la Laguna	12	San Juan la Laguna	6	Junio	2023-06-23T00:00:00	2024-11-08T10:00:00	3	Temperatura mínima	21.8
61444	7	Sololá	717	San Juan la Laguna	12	San Juan la Laguna	6	Junio	2023-06-23T00:00:00	2024-11-08T10:00:00	5	Humedad	61
61445	7	Sololá	717	San Juan la Laguna	12	San Juan la Laguna	6	Junio	2023-06-23T00:00:00	2024-11-08T10:00:00	6	Velocidad del viento	0
61446	7	Sololá	717	San Juan la Laguna	12	San Juan la Laguna	6	Junio	2023-06-23T00:00:00	2024-11-08T10:00:00	7	Dirección del viento	0
61447	7	Sololá	717	San Juan la Laguna	12	San Juan la Laguna	6	Junio	2023-06-23T00:00:00	2024-11-08T10:00:00	1	Precipitación	0
61448	7	Sololá	717	San Juan la Laguna	12	San Juan la Laguna	6	Junio	2023-06-23T00:00:00	2024-11-08T10:00:00	8	Radiación solar	705
61449	7	Sololá	717	San Juan la Laguna	12	San Juan la Laguna	6	Junio	2023-06-23T00:00:00	2024-11-08T11:00:00	2	Temperatura media	24.2
61450	7	Sololá	717	San Juan la Laguna	12	San Juan la Laguna	6	Junio	2023-06-23T00:00:00	2024-11-08T11:00:00	4	Temperatura máxima	24.3
61451	7	Sololá	717	San Juan la Laguna	12	San Juan la Laguna	6	Junio	2023-06-23T00:00:00	2024-11-08T11:00:00	3	Temperatura mínima	23.1
61452	7	Sololá	717	San Juan la Laguna	12	San Juan la Laguna	6	Junio	2023-06-23T00:00:00	2024-11-08T11:00:00	5	Humedad	56
61453	7	Sololá	717	San Juan la Laguna	12	San Juan la Laguna	6	Junio	2023-06-23T00:00:00	2024-11-08T11:00:00	6	Velocidad del viento	0
61454	7	Sololá	717	San Juan la Laguna	12	San Juan la Laguna	6	Junio	2023-06-23T00:00:00	2024-11-08T11:00:00	7	Dirección del viento	0
61455	7	Sololá	717	San Juan la Laguna	12	San Juan la Laguna	6	Junio	2023-06-23T00:00:00	2024-11-08T11:00:00	1	Precipitación	0
61456	7	Sololá	717	San Juan la Laguna	12	San Juan la Laguna	6	Junio	2023-06-23T00:00:00	2024-11-08T11:00:00	8	Radiación solar	850
61457	7	Sololá	717	San Juan la Laguna	12	San Juan la Laguna	6	Junio	2023-06-23T00:00:00	2024-11-08T12:00:00	2	Temperatura media	23.8
61458	7	Sololá	717	San Juan la Laguna	12	San Juan la Laguna	6	Junio	2023-06-23T00:00:00	2024-11-08T12:00:00	4	Temperatura máxima	25.1
61459	7	Sololá	717	San Juan la Laguna	12	San Juan la Laguna	6	Junio	2023-06-23T00:00:00	2024-11-08T12:00:00	3	Temperatura mínima	23.7
61460	7	Sololá	717	San Juan la Laguna	12	San Juan la Laguna	6	Junio	2023-06-23T00:00:00	2024-11-08T12:00:00	5	Humedad	68
61461	7	Sololá	717	San Juan la Laguna	12	San Juan la Laguna	6	Junio	2023-06-23T00:00:00	2024-11-08T12:00:00	6	Velocidad del viento	1.6
61462	7	Sololá	717	San Juan la Laguna	12	San Juan la Laguna	6	Junio	2023-06-23T00:00:00	2024-11-08T12:00:00	7	Dirección del viento	1.61
61463	7	Sololá	717	San Juan la Laguna	12	San Juan la Laguna	6	Junio	2023-06-23T00:00:00	2024-11-08T12:00:00	1	Precipitación	0
61464	7	Sololá	717	San Juan la Laguna	12	San Juan la Laguna	6	Junio	2023-06-23T00:00:00	2024-11-08T12:00:00	8	Radiación solar	905
61465	7	Sololá	717	San Juan la Laguna	12	San Juan la Laguna	6	Junio	2023-06-23T00:00:00	2024-11-08T13:00:00	2	Temperatura media	22.9
61466	7	Sololá	717	San Juan la Laguna	12	San Juan la Laguna	6	Junio	2023-06-23T00:00:00	2024-11-08T13:00:00	4	Temperatura máxima	24
61467	7	Sololá	717	San Juan la Laguna	12	San Juan la Laguna	6	Junio	2023-06-23T00:00:00	2024-11-08T13:00:00	3	Temperatura mínima	22.9
61468	7	Sololá	717	San Juan la Laguna	12	San Juan la Laguna	6	Junio	2023-06-23T00:00:00	2024-11-08T13:00:00	5	Humedad	71
61469	7	Sololá	717	San Juan la Laguna	12	San Juan la Laguna	6	Junio	2023-06-23T00:00:00	2024-11-08T13:00:00	6	Velocidad del viento	3.2
61470	7	Sololá	717	San Juan la Laguna	12	San Juan la Laguna	6	Junio	2023-06-23T00:00:00	2024-11-08T13:00:00	7	Dirección del viento	3.22
61471	7	Sololá	717	San Juan la Laguna	12	San Juan la Laguna	6	Junio	2023-06-23T00:00:00	2024-11-08T13:00:00	1	Precipitación	0
61472	7	Sololá	717	San Juan la Laguna	12	San Juan la Laguna	6	Junio	2023-06-23T00:00:00	2024-11-08T13:00:00	8	Radiación solar	923
61473	7	Sololá	717	San Juan la Laguna	12	San Juan la Laguna	6	Junio	2023-06-23T00:00:00	2024-11-08T14:00:00	2	Temperatura media	18.7
61474	7	Sololá	717	San Juan la Laguna	12	San Juan la Laguna	6	Junio	2023-06-23T00:00:00	2024-11-08T14:00:00	4	Temperatura máxima	23
61475	7	Sololá	717	San Juan la Laguna	12	San Juan la Laguna	6	Junio	2023-06-23T00:00:00	2024-11-08T14:00:00	3	Temperatura mínima	18.7
61476	7	Sololá	717	San Juan la Laguna	12	San Juan la Laguna	6	Junio	2023-06-23T00:00:00	2024-11-08T14:00:00	5	Humedad	85
61477	7	Sololá	717	San Juan la Laguna	12	San Juan la Laguna	6	Junio	2023-06-23T00:00:00	2024-11-08T14:00:00	6	Velocidad del viento	6.4
61478	7	Sololá	717	San Juan la Laguna	12	San Juan la Laguna	6	Junio	2023-06-23T00:00:00	2024-11-08T14:00:00	7	Dirección del viento	6.44
61479	7	Sololá	717	San Juan la Laguna	12	San Juan la Laguna	6	Junio	2023-06-23T00:00:00	2024-11-08T14:00:00	1	Precipitación	3
61480	7	Sololá	717	San Juan la Laguna	12	San Juan la Laguna	6	Junio	2023-06-23T00:00:00	2024-11-08T14:00:00	8	Radiación solar	878
61481	7	Sololá	717	San Juan la Laguna	12	San Juan la Laguna	6	Junio	2023-06-23T00:00:00	2024-11-08T15:00:00	2	Temperatura media	19.7
61482	7	Sololá	717	San Juan la Laguna	12	San Juan la Laguna	6	Junio	2023-06-23T00:00:00	2024-11-08T15:00:00	4	Temperatura máxima	19.8
61483	7	Sololá	717	San Juan la Laguna	12	San Juan la Laguna	6	Junio	2023-06-23T00:00:00	2024-11-08T15:00:00	3	Temperatura mínima	18
61484	7	Sololá	717	San Juan la Laguna	12	San Juan la Laguna	6	Junio	2023-06-23T00:00:00	2024-11-08T15:00:00	5	Humedad	82
61485	7	Sololá	717	San Juan la Laguna	12	San Juan la Laguna	6	Junio	2023-06-23T00:00:00	2024-11-08T15:00:00	6	Velocidad del viento	4.8
61486	7	Sololá	717	San Juan la Laguna	12	San Juan la Laguna	6	Junio	2023-06-23T00:00:00	2024-11-08T15:00:00	7	Dirección del viento	4.83
61487	7	Sololá	717	San Juan la Laguna	12	San Juan la Laguna	6	Junio	2023-06-23T00:00:00	2024-11-08T15:00:00	1	Precipitación	2.6
61488	7	Sololá	717	San Juan la Laguna	12	San Juan la Laguna	6	Junio	2023-06-23T00:00:00	2024-11-08T15:00:00	8	Radiación solar	687
61489	7	Sololá	717	San Juan la Laguna	12	San Juan la Laguna	6	Junio	2023-06-23T00:00:00	2024-11-08T16:00:00	2	Temperatura media	17.8
61490	7	Sololá	717	San Juan la Laguna	12	San Juan la Laguna	6	Junio	2023-06-23T00:00:00	2024-11-08T16:00:00	4	Temperatura máxima	19.7
61491	7	Sololá	717	San Juan la Laguna	12	San Juan la Laguna	6	Junio	2023-06-23T00:00:00	2024-11-08T16:00:00	3	Temperatura mínima	17.8
61492	7	Sololá	717	San Juan la Laguna	12	San Juan la Laguna	6	Junio	2023-06-23T00:00:00	2024-11-08T16:00:00	5	Humedad	90
61493	7	Sololá	717	San Juan la Laguna	12	San Juan la Laguna	6	Junio	2023-06-23T00:00:00	2024-11-08T16:00:00	6	Velocidad del viento	4.8
61494	7	Sololá	717	San Juan la Laguna	12	San Juan la Laguna	6	Junio	2023-06-23T00:00:00	2024-11-08T16:00:00	7	Dirección del viento	4.83
61495	7	Sololá	717	San Juan la Laguna	12	San Juan la Laguna	6	Junio	2023-06-23T00:00:00	2024-11-08T16:00:00	1	Precipitación	5.2
61496	7	Sololá	717	San Juan la Laguna	12	San Juan la Laguna	6	Junio	2023-06-23T00:00:00	2024-11-08T16:00:00	8	Radiación solar	431
61497	7	Sololá	717	San Juan la Laguna	12	San Juan la Laguna	6	Junio	2023-06-23T00:00:00	2024-11-08T17:00:00	2	Temperatura media	17.7
61498	7	Sololá	717	San Juan la Laguna	12	San Juan la Laguna	6	Junio	2023-06-23T00:00:00	2024-11-08T17:00:00	4	Temperatura máxima	17.8
61499	7	Sololá	717	San Juan la Laguna	12	San Juan la Laguna	6	Junio	2023-06-23T00:00:00	2024-11-08T17:00:00	3	Temperatura mínima	17.6
61500	7	Sololá	717	San Juan la Laguna	12	San Juan la Laguna	6	Junio	2023-06-23T00:00:00	2024-11-08T17:00:00	5	Humedad	92
61501	7	Sololá	717	San Juan la Laguna	12	San Juan la Laguna	6	Junio	2023-06-23T00:00:00	2024-11-08T17:00:00	6	Velocidad del viento	0
61502	7	Sololá	717	San Juan la Laguna	12	San Juan la Laguna	6	Junio	2023-06-23T00:00:00	2024-11-08T17:00:00	7	Dirección del viento	0
61503	7	Sololá	717	San Juan la Laguna	12	San Juan la Laguna	6	Junio	2023-06-23T00:00:00	2024-11-08T17:00:00	1	Precipitación	4.6
61504	7	Sololá	717	San Juan la Laguna	12	San Juan la Laguna	6	Junio	2023-06-23T00:00:00	2024-11-08T17:00:00	8	Radiación solar	165
61505	7	Sololá	717	San Juan la Laguna	12	San Juan la Laguna	6	Junio	2023-06-23T00:00:00	2024-11-08T18:00:00	2	Temperatura media	17.3
61506	7	Sololá	717	San Juan la Laguna	12	San Juan la Laguna	6	Junio	2023-06-23T00:00:00	2024-11-08T18:00:00	4	Temperatura máxima	17.7
61507	7	Sololá	717	San Juan la Laguna	12	San Juan la Laguna	6	Junio	2023-06-23T00:00:00	2024-11-08T18:00:00	3	Temperatura mínima	17.3
61508	7	Sololá	717	San Juan la Laguna	12	San Juan la Laguna	6	Junio	2023-06-23T00:00:00	2024-11-08T18:00:00	5	Humedad	91
61509	7	Sololá	717	San Juan la Laguna	12	San Juan la Laguna	6	Junio	2023-06-23T00:00:00	2024-11-08T18:00:00	6	Velocidad del viento	0
61510	7	Sololá	717	San Juan la Laguna	12	San Juan la Laguna	6	Junio	2023-06-23T00:00:00	2024-11-08T18:00:00	7	Dirección del viento	0
61511	7	Sololá	717	San Juan la Laguna	12	San Juan la Laguna	6	Junio	2023-06-23T00:00:00	2024-11-08T18:00:00	1	Precipitación	3
61512	7	Sololá	717	San Juan la Laguna	12	San Juan la Laguna	6	Junio	2023-06-23T00:00:00	2024-11-08T18:00:00	8	Radiación solar	57
61513	7	Sololá	717	San Juan la Laguna	12	San Juan la Laguna	6	Junio	2023-06-23T00:00:00	2024-11-08T19:00:00	2	Temperatura media	17.4
61514	7	Sololá	717	San Juan la Laguna	12	San Juan la Laguna	6	Junio	2023-06-23T00:00:00	2024-11-08T19:00:00	4	Temperatura máxima	17.4
61515	7	Sololá	717	San Juan la Laguna	12	San Juan la Laguna	6	Junio	2023-06-23T00:00:00	2024-11-08T19:00:00	3	Temperatura mínima	17.3
61516	7	Sololá	717	San Juan la Laguna	12	San Juan la Laguna	6	Junio	2023-06-23T00:00:00	2024-11-08T19:00:00	5	Humedad	91
61517	7	Sololá	717	San Juan la Laguna	12	San Juan la Laguna	6	Junio	2023-06-23T00:00:00	2024-11-08T19:00:00	6	Velocidad del viento	0
61518	7	Sololá	717	San Juan la Laguna	12	San Juan la Laguna	6	Junio	2023-06-23T00:00:00	2024-11-08T19:00:00	7	Dirección del viento	0
61519	7	Sololá	717	San Juan la Laguna	12	San Juan la Laguna	6	Junio	2023-06-23T00:00:00	2024-11-08T19:00:00	1	Precipitación	0.8
61520	7	Sololá	717	San Juan la Laguna	12	San Juan la Laguna	6	Junio	2023-06-23T00:00:00	2024-11-08T19:00:00	8	Radiación solar	0
61521	7	Sololá	717	San Juan la Laguna	12	San Juan la Laguna	6	Junio	2023-06-23T00:00:00	2024-11-08T20:00:00	2	Temperatura media	16.7
61522	7	Sololá	717	San Juan la Laguna	12	San Juan la Laguna	6	Junio	2023-06-23T00:00:00	2024-11-08T20:00:00	4	Temperatura máxima	17.4
61523	7	Sololá	717	San Juan la Laguna	12	San Juan la Laguna	6	Junio	2023-06-23T00:00:00	2024-11-08T20:00:00	3	Temperatura mínima	16.7
61524	7	Sololá	717	San Juan la Laguna	12	San Juan la Laguna	6	Junio	2023-06-23T00:00:00	2024-11-08T20:00:00	5	Humedad	89
61525	7	Sololá	717	San Juan la Laguna	12	San Juan la Laguna	6	Junio	2023-06-23T00:00:00	2024-11-08T20:00:00	6	Velocidad del viento	0
61526	7	Sololá	717	San Juan la Laguna	12	San Juan la Laguna	6	Junio	2023-06-23T00:00:00	2024-11-08T20:00:00	7	Dirección del viento	0
61527	7	Sololá	717	San Juan la Laguna	12	San Juan la Laguna	6	Junio	2023-06-23T00:00:00	2024-11-08T20:00:00	1	Precipitación	0
61528	7	Sololá	717	San Juan la Laguna	12	San Juan la Laguna	6	Junio	2023-06-23T00:00:00	2024-11-08T20:00:00	8	Radiación solar	0
61529	7	Sololá	717	San Juan la Laguna	12	San Juan la Laguna	6	Junio	2023-06-23T00:00:00	2024-11-08T21:00:00	2	Temperatura media	16.2
61530	7	Sololá	717	San Juan la Laguna	12	San Juan la Laguna	6	Junio	2023-06-23T00:00:00	2024-11-08T21:00:00	4	Temperatura máxima	16.8
61531	7	Sololá	717	San Juan la Laguna	12	San Juan la Laguna	6	Junio	2023-06-23T00:00:00	2024-11-08T21:00:00	3	Temperatura mínima	16.2
61532	7	Sololá	717	San Juan la Laguna	12	San Juan la Laguna	6	Junio	2023-06-23T00:00:00	2024-11-08T21:00:00	5	Humedad	89
61533	7	Sololá	717	San Juan la Laguna	12	San Juan la Laguna	6	Junio	2023-06-23T00:00:00	2024-11-08T21:00:00	6	Velocidad del viento	0
61534	7	Sololá	717	San Juan la Laguna	12	San Juan la Laguna	6	Junio	2023-06-23T00:00:00	2024-11-08T21:00:00	7	Dirección del viento	0
61535	7	Sololá	717	San Juan la Laguna	12	San Juan la Laguna	6	Junio	2023-06-23T00:00:00	2024-11-08T21:00:00	1	Precipitación	0
61536	7	Sololá	717	San Juan la Laguna	12	San Juan la Laguna	6	Junio	2023-06-23T00:00:00	2024-11-08T21:00:00	8	Radiación solar	0
61537	7	Sololá	717	San Juan la Laguna	12	San Juan la Laguna	6	Junio	2023-06-23T00:00:00	2024-11-08T22:00:00	2	Temperatura media	16.5
61538	7	Sololá	717	San Juan la Laguna	12	San Juan la Laguna	6	Junio	2023-06-23T00:00:00	2024-11-08T22:00:00	4	Temperatura máxima	16.5
61539	7	Sololá	717	San Juan la Laguna	12	San Juan la Laguna	6	Junio	2023-06-23T00:00:00	2024-11-08T22:00:00	3	Temperatura mínima	16.1
61540	7	Sololá	717	San Juan la Laguna	12	San Juan la Laguna	6	Junio	2023-06-23T00:00:00	2024-11-08T22:00:00	5	Humedad	90
61541	7	Sololá	717	San Juan la Laguna	12	San Juan la Laguna	6	Junio	2023-06-23T00:00:00	2024-11-08T22:00:00	6	Velocidad del viento	0
61542	7	Sololá	717	San Juan la Laguna	12	San Juan la Laguna	6	Junio	2023-06-23T00:00:00	2024-11-08T22:00:00	7	Dirección del viento	0
61543	7	Sololá	717	San Juan la Laguna	12	San Juan la Laguna	6	Junio	2023-06-23T00:00:00	2024-11-08T22:00:00	1	Precipitación	0
61544	7	Sololá	717	San Juan la Laguna	12	San Juan la Laguna	6	Junio	2023-06-23T00:00:00	2024-11-08T22:00:00	8	Radiación solar	0
61545	7	Sololá	717	San Juan la Laguna	12	San Juan la Laguna	6	Junio	2023-06-23T00:00:00	2024-11-08T23:00:00	2	Temperatura media	16.1
61546	7	Sololá	717	San Juan la Laguna	12	San Juan la Laguna	6	Junio	2023-06-23T00:00:00	2024-11-08T23:00:00	4	Temperatura máxima	16.6
61547	7	Sololá	717	San Juan la Laguna	12	San Juan la Laguna	6	Junio	2023-06-23T00:00:00	2024-11-08T23:00:00	3	Temperatura mínima	16
61548	7	Sololá	717	San Juan la Laguna	12	San Juan la Laguna	6	Junio	2023-06-23T00:00:00	2024-11-08T23:00:00	5	Humedad	89
61549	7	Sololá	717	San Juan la Laguna	12	San Juan la Laguna	6	Junio	2023-06-23T00:00:00	2024-11-08T23:00:00	6	Velocidad del viento	0
61550	7	Sololá	717	San Juan la Laguna	12	San Juan la Laguna	6	Junio	2023-06-23T00:00:00	2024-11-08T23:00:00	7	Dirección del viento	0
61551	7	Sololá	717	San Juan la Laguna	12	San Juan la Laguna	6	Junio	2023-06-23T00:00:00	2024-11-08T23:00:00	1	Precipitación	0
61552	7	Sololá	717	San Juan la Laguna	12	San Juan la Laguna	6	Junio	2023-06-23T00:00:00	2024-11-08T23:00:00	8	Radiación solar	0
61553	7	Sololá	717	San Juan la Laguna	12	San Juan la Laguna	6	Junio	2023-06-24T00:00:00	2024-11-08T00:00:00	2	Temperatura media	16.2
61554	7	Sololá	717	San Juan la Laguna	12	San Juan la Laguna	6	Junio	2023-06-24T00:00:00	2024-11-08T00:00:00	4	Temperatura máxima	16.3
61555	7	Sololá	717	San Juan la Laguna	12	San Juan la Laguna	6	Junio	2023-06-24T00:00:00	2024-11-08T00:00:00	3	Temperatura mínima	16.1
61556	7	Sololá	717	San Juan la Laguna	12	San Juan la Laguna	6	Junio	2023-06-24T00:00:00	2024-11-08T00:00:00	5	Humedad	89
61557	7	Sololá	717	San Juan la Laguna	12	San Juan la Laguna	6	Junio	2023-06-24T00:00:00	2024-11-08T00:00:00	6	Velocidad del viento	0
61558	7	Sololá	717	San Juan la Laguna	12	San Juan la Laguna	6	Junio	2023-06-24T00:00:00	2024-11-08T00:00:00	7	Dirección del viento	0
61559	7	Sololá	717	San Juan la Laguna	12	San Juan la Laguna	6	Junio	2023-06-24T00:00:00	2024-11-08T00:00:00	1	Precipitación	0
61560	7	Sololá	717	San Juan la Laguna	12	San Juan la Laguna	6	Junio	2023-06-24T00:00:00	2024-11-08T00:00:00	8	Radiación solar	0
61561	7	Sololá	717	San Juan la Laguna	12	San Juan la Laguna	6	Junio	2023-06-24T00:00:00	2024-11-08T01:00:00	2	Temperatura media	16.3
61562	7	Sololá	717	San Juan la Laguna	12	San Juan la Laguna	6	Junio	2023-06-24T00:00:00	2024-11-08T01:00:00	4	Temperatura máxima	16.3
61563	7	Sololá	717	San Juan la Laguna	12	San Juan la Laguna	6	Junio	2023-06-24T00:00:00	2024-11-08T01:00:00	3	Temperatura mínima	15.9
61564	7	Sololá	717	San Juan la Laguna	12	San Juan la Laguna	6	Junio	2023-06-24T00:00:00	2024-11-08T01:00:00	5	Humedad	88
61565	7	Sololá	717	San Juan la Laguna	12	San Juan la Laguna	6	Junio	2023-06-24T00:00:00	2024-11-08T01:00:00	6	Velocidad del viento	0
61566	7	Sololá	717	San Juan la Laguna	12	San Juan la Laguna	6	Junio	2023-06-24T00:00:00	2024-11-08T01:00:00	7	Dirección del viento	0
61567	7	Sololá	717	San Juan la Laguna	12	San Juan la Laguna	6	Junio	2023-06-24T00:00:00	2024-11-08T01:00:00	1	Precipitación	0
61568	7	Sololá	717	San Juan la Laguna	12	San Juan la Laguna	6	Junio	2023-06-24T00:00:00	2024-11-08T01:00:00	8	Radiación solar	0
61569	7	Sololá	717	San Juan la Laguna	12	San Juan la Laguna	6	Junio	2023-06-24T00:00:00	2024-11-08T02:00:00	2	Temperatura media	16.3
61570	7	Sololá	717	San Juan la Laguna	12	San Juan la Laguna	6	Junio	2023-06-24T00:00:00	2024-11-08T02:00:00	4	Temperatura máxima	16.5
61571	7	Sololá	717	San Juan la Laguna	12	San Juan la Laguna	6	Junio	2023-06-24T00:00:00	2024-11-08T02:00:00	3	Temperatura mínima	16.2
61572	7	Sololá	717	San Juan la Laguna	12	San Juan la Laguna	6	Junio	2023-06-24T00:00:00	2024-11-08T02:00:00	5	Humedad	87
61573	7	Sololá	717	San Juan la Laguna	12	San Juan la Laguna	6	Junio	2023-06-24T00:00:00	2024-11-08T02:00:00	6	Velocidad del viento	0
61574	7	Sololá	717	San Juan la Laguna	12	San Juan la Laguna	6	Junio	2023-06-24T00:00:00	2024-11-08T02:00:00	7	Dirección del viento	0
61575	7	Sololá	717	San Juan la Laguna	12	San Juan la Laguna	6	Junio	2023-06-24T00:00:00	2024-11-08T02:00:00	1	Precipitación	0
61576	7	Sololá	717	San Juan la Laguna	12	San Juan la Laguna	6	Junio	2023-06-24T00:00:00	2024-11-08T02:00:00	8	Radiación solar	0
61577	7	Sololá	717	San Juan la Laguna	12	San Juan la Laguna	6	Junio	2023-06-24T00:00:00	2024-11-08T03:00:00	2	Temperatura media	16.2
61578	7	Sololá	717	San Juan la Laguna	12	San Juan la Laguna	6	Junio	2023-06-24T00:00:00	2024-11-08T03:00:00	4	Temperatura máxima	16.4
61579	7	Sololá	717	San Juan la Laguna	12	San Juan la Laguna	6	Junio	2023-06-24T00:00:00	2024-11-08T03:00:00	3	Temperatura mínima	16.2
61580	7	Sololá	717	San Juan la Laguna	12	San Juan la Laguna	6	Junio	2023-06-24T00:00:00	2024-11-08T03:00:00	5	Humedad	88
61581	7	Sololá	717	San Juan la Laguna	12	San Juan la Laguna	6	Junio	2023-06-24T00:00:00	2024-11-08T03:00:00	6	Velocidad del viento	0
61582	7	Sololá	717	San Juan la Laguna	12	San Juan la Laguna	6	Junio	2023-06-24T00:00:00	2024-11-08T03:00:00	7	Dirección del viento	0
61583	7	Sololá	717	San Juan la Laguna	12	San Juan la Laguna	6	Junio	2023-06-24T00:00:00	2024-11-08T03:00:00	1	Precipitación	0
61584	7	Sololá	717	San Juan la Laguna	12	San Juan la Laguna	6	Junio	2023-06-24T00:00:00	2024-11-08T03:00:00	8	Radiación solar	0
61585	7	Sololá	717	San Juan la Laguna	12	San Juan la Laguna	6	Junio	2023-06-24T00:00:00	2024-11-08T04:00:00	2	Temperatura media	16.3
61586	7	Sololá	717	San Juan la Laguna	12	San Juan la Laguna	6	Junio	2023-06-24T00:00:00	2024-11-08T04:00:00	4	Temperatura máxima	16.4
61587	7	Sololá	717	San Juan la Laguna	12	San Juan la Laguna	6	Junio	2023-06-24T00:00:00	2024-11-08T04:00:00	3	Temperatura mínima	16.1
61588	7	Sololá	717	San Juan la Laguna	12	San Juan la Laguna	6	Junio	2023-06-24T00:00:00	2024-11-08T04:00:00	5	Humedad	86
61589	7	Sololá	717	San Juan la Laguna	12	San Juan la Laguna	6	Junio	2023-06-24T00:00:00	2024-11-08T04:00:00	6	Velocidad del viento	0
61590	7	Sololá	717	San Juan la Laguna	12	San Juan la Laguna	6	Junio	2023-06-24T00:00:00	2024-11-08T04:00:00	7	Dirección del viento	0
61591	7	Sololá	717	San Juan la Laguna	12	San Juan la Laguna	6	Junio	2023-06-24T00:00:00	2024-11-08T04:00:00	1	Precipitación	0
61592	7	Sololá	717	San Juan la Laguna	12	San Juan la Laguna	6	Junio	2023-06-24T00:00:00	2024-11-08T04:00:00	8	Radiación solar	0
61593	7	Sololá	717	San Juan la Laguna	12	San Juan la Laguna	6	Junio	2023-06-24T00:00:00	2024-11-08T05:00:00	2	Temperatura media	16.1
61594	7	Sololá	717	San Juan la Laguna	12	San Juan la Laguna	6	Junio	2023-06-24T00:00:00	2024-11-08T05:00:00	4	Temperatura máxima	16.3
61595	7	Sololá	717	San Juan la Laguna	12	San Juan la Laguna	6	Junio	2023-06-24T00:00:00	2024-11-08T05:00:00	3	Temperatura mínima	15.9
61596	7	Sololá	717	San Juan la Laguna	12	San Juan la Laguna	6	Junio	2023-06-24T00:00:00	2024-11-08T05:00:00	5	Humedad	88
61597	7	Sololá	717	San Juan la Laguna	12	San Juan la Laguna	6	Junio	2023-06-24T00:00:00	2024-11-08T05:00:00	6	Velocidad del viento	0
61598	7	Sololá	717	San Juan la Laguna	12	San Juan la Laguna	6	Junio	2023-06-24T00:00:00	2024-11-08T05:00:00	7	Dirección del viento	0
61599	7	Sololá	717	San Juan la Laguna	12	San Juan la Laguna	6	Junio	2023-06-24T00:00:00	2024-11-08T05:00:00	1	Precipitación	0
61600	7	Sololá	717	San Juan la Laguna	12	San Juan la Laguna	6	Junio	2023-06-24T00:00:00	2024-11-08T05:00:00	8	Radiación solar	0
61601	7	Sololá	717	San Juan la Laguna	12	San Juan la Laguna	6	Junio	2023-06-24T00:00:00	2024-11-08T06:00:00	2	Temperatura media	16.4
61602	7	Sololá	717	San Juan la Laguna	12	San Juan la Laguna	6	Junio	2023-06-24T00:00:00	2024-11-08T06:00:00	4	Temperatura máxima	16.4
61603	7	Sololá	717	San Juan la Laguna	12	San Juan la Laguna	6	Junio	2023-06-24T00:00:00	2024-11-08T06:00:00	3	Temperatura mínima	16
61604	7	Sololá	717	San Juan la Laguna	12	San Juan la Laguna	6	Junio	2023-06-24T00:00:00	2024-11-08T06:00:00	5	Humedad	85
61605	7	Sololá	717	San Juan la Laguna	12	San Juan la Laguna	6	Junio	2023-06-24T00:00:00	2024-11-08T06:00:00	6	Velocidad del viento	0
61606	7	Sololá	717	San Juan la Laguna	12	San Juan la Laguna	6	Junio	2023-06-24T00:00:00	2024-11-08T06:00:00	7	Dirección del viento	0
61607	7	Sololá	717	San Juan la Laguna	12	San Juan la Laguna	6	Junio	2023-06-24T00:00:00	2024-11-08T06:00:00	1	Precipitación	0
61608	7	Sololá	717	San Juan la Laguna	12	San Juan la Laguna	6	Junio	2023-06-24T00:00:00	2024-11-08T06:00:00	8	Radiación solar	0
61609	7	Sololá	717	San Juan la Laguna	12	San Juan la Laguna	6	Junio	2023-06-24T00:00:00	2024-11-08T07:00:00	2	Temperatura media	17.1
61610	7	Sololá	717	San Juan la Laguna	12	San Juan la Laguna	6	Junio	2023-06-24T00:00:00	2024-11-08T07:00:00	4	Temperatura máxima	17.1
61611	7	Sololá	717	San Juan la Laguna	12	San Juan la Laguna	6	Junio	2023-06-24T00:00:00	2024-11-08T07:00:00	3	Temperatura mínima	16.4
61612	7	Sololá	717	San Juan la Laguna	12	San Juan la Laguna	6	Junio	2023-06-24T00:00:00	2024-11-08T07:00:00	5	Humedad	85
61613	7	Sololá	717	San Juan la Laguna	12	San Juan la Laguna	6	Junio	2023-06-24T00:00:00	2024-11-08T07:00:00	6	Velocidad del viento	0
61614	7	Sololá	717	San Juan la Laguna	12	San Juan la Laguna	6	Junio	2023-06-24T00:00:00	2024-11-08T07:00:00	7	Dirección del viento	0
61615	7	Sololá	717	San Juan la Laguna	12	San Juan la Laguna	6	Junio	2023-06-24T00:00:00	2024-11-08T07:00:00	1	Precipitación	0
61616	7	Sololá	717	San Juan la Laguna	12	San Juan la Laguna	6	Junio	2023-06-24T00:00:00	2024-11-08T07:00:00	8	Radiación solar	77
61617	7	Sololá	717	San Juan la Laguna	12	San Juan la Laguna	6	Junio	2023-06-24T00:00:00	2024-11-08T08:00:00	2	Temperatura media	19
61618	7	Sololá	717	San Juan la Laguna	12	San Juan la Laguna	6	Junio	2023-06-24T00:00:00	2024-11-08T08:00:00	4	Temperatura máxima	19
61619	7	Sololá	717	San Juan la Laguna	12	San Juan la Laguna	6	Junio	2023-06-24T00:00:00	2024-11-08T08:00:00	3	Temperatura mínima	17.1
61620	7	Sololá	717	San Juan la Laguna	12	San Juan la Laguna	6	Junio	2023-06-24T00:00:00	2024-11-08T08:00:00	5	Humedad	81
61621	7	Sololá	717	San Juan la Laguna	12	San Juan la Laguna	6	Junio	2023-06-24T00:00:00	2024-11-08T08:00:00	6	Velocidad del viento	0
61622	7	Sololá	717	San Juan la Laguna	12	San Juan la Laguna	6	Junio	2023-06-24T00:00:00	2024-11-08T08:00:00	7	Dirección del viento	0
61623	7	Sololá	717	San Juan la Laguna	12	San Juan la Laguna	6	Junio	2023-06-24T00:00:00	2024-11-08T08:00:00	1	Precipitación	0
61624	7	Sololá	717	San Juan la Laguna	12	San Juan la Laguna	6	Junio	2023-06-24T00:00:00	2024-11-08T08:00:00	8	Radiación solar	290
61625	7	Sololá	717	San Juan la Laguna	12	San Juan la Laguna	6	Junio	2023-06-24T00:00:00	2024-11-08T09:00:00	2	Temperatura media	21.1
61626	7	Sololá	717	San Juan la Laguna	12	San Juan la Laguna	6	Junio	2023-06-24T00:00:00	2024-11-08T09:00:00	4	Temperatura máxima	21.2
61627	7	Sololá	717	San Juan la Laguna	12	San Juan la Laguna	6	Junio	2023-06-24T00:00:00	2024-11-08T09:00:00	3	Temperatura mínima	19
61628	7	Sololá	717	San Juan la Laguna	12	San Juan la Laguna	6	Junio	2023-06-24T00:00:00	2024-11-08T09:00:00	5	Humedad	72
61629	7	Sololá	717	San Juan la Laguna	12	San Juan la Laguna	6	Junio	2023-06-24T00:00:00	2024-11-08T09:00:00	6	Velocidad del viento	0
61630	7	Sololá	717	San Juan la Laguna	12	San Juan la Laguna	6	Junio	2023-06-24T00:00:00	2024-11-08T09:00:00	7	Dirección del viento	0
61631	7	Sololá	717	San Juan la Laguna	12	San Juan la Laguna	6	Junio	2023-06-24T00:00:00	2024-11-08T09:00:00	1	Precipitación	0
61632	7	Sololá	717	San Juan la Laguna	12	San Juan la Laguna	6	Junio	2023-06-24T00:00:00	2024-11-08T09:00:00	8	Radiación solar	516
61633	7	Sololá	717	San Juan la Laguna	12	San Juan la Laguna	6	Junio	2023-06-24T00:00:00	2024-11-08T10:00:00	2	Temperatura media	22.3
61634	7	Sololá	717	San Juan la Laguna	12	San Juan la Laguna	6	Junio	2023-06-24T00:00:00	2024-11-08T10:00:00	4	Temperatura máxima	22.3
61635	7	Sololá	717	San Juan la Laguna	12	San Juan la Laguna	6	Junio	2023-06-24T00:00:00	2024-11-08T10:00:00	3	Temperatura mínima	21.1
61636	7	Sololá	717	San Juan la Laguna	12	San Juan la Laguna	6	Junio	2023-06-24T00:00:00	2024-11-08T10:00:00	5	Humedad	65
61637	7	Sololá	717	San Juan la Laguna	12	San Juan la Laguna	6	Junio	2023-06-24T00:00:00	2024-11-08T10:00:00	6	Velocidad del viento	0
61638	7	Sololá	717	San Juan la Laguna	12	San Juan la Laguna	6	Junio	2023-06-24T00:00:00	2024-11-08T10:00:00	7	Dirección del viento	0
61639	7	Sololá	717	San Juan la Laguna	12	San Juan la Laguna	6	Junio	2023-06-24T00:00:00	2024-11-08T10:00:00	1	Precipitación	0
61640	7	Sololá	717	San Juan la Laguna	12	San Juan la Laguna	6	Junio	2023-06-24T00:00:00	2024-11-08T10:00:00	8	Radiación solar	699
61641	7	Sololá	717	San Juan la Laguna	12	San Juan la Laguna	6	Junio	2023-06-24T00:00:00	2024-11-08T11:00:00	2	Temperatura media	23.5
61642	7	Sololá	717	San Juan la Laguna	12	San Juan la Laguna	6	Junio	2023-06-24T00:00:00	2024-11-08T11:00:00	4	Temperatura máxima	23.8
61643	7	Sololá	717	San Juan la Laguna	12	San Juan la Laguna	6	Junio	2023-06-24T00:00:00	2024-11-08T11:00:00	3	Temperatura mínima	22.2
61644	7	Sololá	717	San Juan la Laguna	12	San Juan la Laguna	6	Junio	2023-06-24T00:00:00	2024-11-08T11:00:00	5	Humedad	65
61645	7	Sololá	717	San Juan la Laguna	12	San Juan la Laguna	6	Junio	2023-06-24T00:00:00	2024-11-08T11:00:00	6	Velocidad del viento	1.6
61646	7	Sololá	717	San Juan la Laguna	12	San Juan la Laguna	6	Junio	2023-06-24T00:00:00	2024-11-08T11:00:00	7	Dirección del viento	1.61
61647	7	Sololá	717	San Juan la Laguna	12	San Juan la Laguna	6	Junio	2023-06-24T00:00:00	2024-11-08T11:00:00	1	Precipitación	0
61648	7	Sololá	717	San Juan la Laguna	12	San Juan la Laguna	6	Junio	2023-06-24T00:00:00	2024-11-08T11:00:00	8	Radiación solar	836
61649	7	Sololá	717	San Juan la Laguna	12	San Juan la Laguna	6	Junio	2023-06-24T00:00:00	2024-11-08T12:00:00	2	Temperatura media	23.7
61650	7	Sololá	717	San Juan la Laguna	12	San Juan la Laguna	6	Junio	2023-06-24T00:00:00	2024-11-08T12:00:00	4	Temperatura máxima	23.7
61651	7	Sololá	717	San Juan la Laguna	12	San Juan la Laguna	6	Junio	2023-06-24T00:00:00	2024-11-08T12:00:00	3	Temperatura mínima	22.4
61652	7	Sololá	717	San Juan la Laguna	12	San Juan la Laguna	6	Junio	2023-06-24T00:00:00	2024-11-08T12:00:00	5	Humedad	68
61653	7	Sololá	717	San Juan la Laguna	12	San Juan la Laguna	6	Junio	2023-06-24T00:00:00	2024-11-08T12:00:00	6	Velocidad del viento	3.2
61654	7	Sololá	717	San Juan la Laguna	12	San Juan la Laguna	6	Junio	2023-06-24T00:00:00	2024-11-08T12:00:00	7	Dirección del viento	3.22
61655	7	Sololá	717	San Juan la Laguna	12	San Juan la Laguna	6	Junio	2023-06-24T00:00:00	2024-11-08T12:00:00	1	Precipitación	0
61656	7	Sololá	717	San Juan la Laguna	12	San Juan la Laguna	6	Junio	2023-06-24T00:00:00	2024-11-08T12:00:00	8	Radiación solar	908
61657	7	Sololá	717	San Juan la Laguna	12	San Juan la Laguna	6	Junio	2023-06-24T00:00:00	2024-11-08T13:00:00	2	Temperatura media	24.2
61658	7	Sololá	717	San Juan la Laguna	12	San Juan la Laguna	6	Junio	2023-06-24T00:00:00	2024-11-08T13:00:00	4	Temperatura máxima	24.4
61659	7	Sololá	717	San Juan la Laguna	12	San Juan la Laguna	6	Junio	2023-06-24T00:00:00	2024-11-08T13:00:00	3	Temperatura mínima	23.5
61660	7	Sololá	717	San Juan la Laguna	12	San Juan la Laguna	6	Junio	2023-06-24T00:00:00	2024-11-08T13:00:00	5	Humedad	66
61661	7	Sololá	717	San Juan la Laguna	12	San Juan la Laguna	6	Junio	2023-06-24T00:00:00	2024-11-08T13:00:00	6	Velocidad del viento	3.2
61662	7	Sololá	717	San Juan la Laguna	12	San Juan la Laguna	6	Junio	2023-06-24T00:00:00	2024-11-08T13:00:00	7	Dirección del viento	3.22
61663	7	Sololá	717	San Juan la Laguna	12	San Juan la Laguna	6	Junio	2023-06-24T00:00:00	2024-11-08T13:00:00	1	Precipitación	0
61664	7	Sololá	717	San Juan la Laguna	12	San Juan la Laguna	6	Junio	2023-06-24T00:00:00	2024-11-08T13:00:00	8	Radiación solar	901
61665	7	Sololá	717	San Juan la Laguna	12	San Juan la Laguna	6	Junio	2023-06-24T00:00:00	2024-11-08T14:00:00	2	Temperatura media	24.3
61666	7	Sololá	717	San Juan la Laguna	12	San Juan la Laguna	6	Junio	2023-06-24T00:00:00	2024-11-08T14:00:00	4	Temperatura máxima	24.4
61667	7	Sololá	717	San Juan la Laguna	12	San Juan la Laguna	6	Junio	2023-06-24T00:00:00	2024-11-08T14:00:00	3	Temperatura mínima	23.8
61668	7	Sololá	717	San Juan la Laguna	12	San Juan la Laguna	6	Junio	2023-06-24T00:00:00	2024-11-08T14:00:00	5	Humedad	68
61669	7	Sololá	717	San Juan la Laguna	12	San Juan la Laguna	6	Junio	2023-06-24T00:00:00	2024-11-08T14:00:00	6	Velocidad del viento	3.2
61670	7	Sololá	717	San Juan la Laguna	12	San Juan la Laguna	6	Junio	2023-06-24T00:00:00	2024-11-08T14:00:00	7	Dirección del viento	3.22
61671	7	Sololá	717	San Juan la Laguna	12	San Juan la Laguna	6	Junio	2023-06-24T00:00:00	2024-11-08T14:00:00	1	Precipitación	0
61672	7	Sololá	717	San Juan la Laguna	12	San Juan la Laguna	6	Junio	2023-06-24T00:00:00	2024-11-08T14:00:00	8	Radiación solar	822
61673	7	Sololá	717	San Juan la Laguna	12	San Juan la Laguna	6	Junio	2023-06-24T00:00:00	2024-11-08T15:00:00	2	Temperatura media	23.9
61674	7	Sololá	717	San Juan la Laguna	12	San Juan la Laguna	6	Junio	2023-06-24T00:00:00	2024-11-08T15:00:00	4	Temperatura máxima	24.5
61675	7	Sololá	717	San Juan la Laguna	12	San Juan la Laguna	6	Junio	2023-06-24T00:00:00	2024-11-08T15:00:00	3	Temperatura mínima	23.8
61676	7	Sololá	717	San Juan la Laguna	12	San Juan la Laguna	6	Junio	2023-06-24T00:00:00	2024-11-08T15:00:00	5	Humedad	71
61677	7	Sololá	717	San Juan la Laguna	12	San Juan la Laguna	6	Junio	2023-06-24T00:00:00	2024-11-08T15:00:00	6	Velocidad del viento	1.6
61678	7	Sololá	717	San Juan la Laguna	12	San Juan la Laguna	6	Junio	2023-06-24T00:00:00	2024-11-08T15:00:00	7	Dirección del viento	1.61
61679	7	Sololá	717	San Juan la Laguna	12	San Juan la Laguna	6	Junio	2023-06-24T00:00:00	2024-11-08T15:00:00	1	Precipitación	0
61680	7	Sololá	717	San Juan la Laguna	12	San Juan la Laguna	6	Junio	2023-06-24T00:00:00	2024-11-08T15:00:00	8	Radiación solar	691
61681	7	Sololá	717	San Juan la Laguna	12	San Juan la Laguna	6	Junio	2023-06-24T00:00:00	2024-11-08T16:00:00	2	Temperatura media	23.8
61682	7	Sololá	717	San Juan la Laguna	12	San Juan la Laguna	6	Junio	2023-06-24T00:00:00	2024-11-08T16:00:00	4	Temperatura máxima	24.2
61683	7	Sololá	717	San Juan la Laguna	12	San Juan la Laguna	6	Junio	2023-06-24T00:00:00	2024-11-08T16:00:00	3	Temperatura mínima	23.5
61684	7	Sololá	717	San Juan la Laguna	12	San Juan la Laguna	6	Junio	2023-06-24T00:00:00	2024-11-08T16:00:00	5	Humedad	70
61685	7	Sololá	717	San Juan la Laguna	12	San Juan la Laguna	6	Junio	2023-06-24T00:00:00	2024-11-08T16:00:00	6	Velocidad del viento	4.8
61686	7	Sololá	717	San Juan la Laguna	12	San Juan la Laguna	6	Junio	2023-06-24T00:00:00	2024-11-08T16:00:00	7	Dirección del viento	4.83
61687	7	Sololá	717	San Juan la Laguna	12	San Juan la Laguna	6	Junio	2023-06-24T00:00:00	2024-11-08T16:00:00	1	Precipitación	0
61688	7	Sololá	717	San Juan la Laguna	12	San Juan la Laguna	6	Junio	2023-06-24T00:00:00	2024-11-08T16:00:00	8	Radiación solar	471
61689	7	Sololá	717	San Juan la Laguna	12	San Juan la Laguna	6	Junio	2023-06-24T00:00:00	2024-11-08T17:00:00	2	Temperatura media	21.7
61690	7	Sololá	717	San Juan la Laguna	12	San Juan la Laguna	6	Junio	2023-06-24T00:00:00	2024-11-08T17:00:00	4	Temperatura máxima	23.7
61691	7	Sololá	717	San Juan la Laguna	12	San Juan la Laguna	6	Junio	2023-06-24T00:00:00	2024-11-08T17:00:00	3	Temperatura mínima	21.7
61692	7	Sololá	717	San Juan la Laguna	12	San Juan la Laguna	6	Junio	2023-06-24T00:00:00	2024-11-08T17:00:00	5	Humedad	82
61693	7	Sololá	717	San Juan la Laguna	12	San Juan la Laguna	6	Junio	2023-06-24T00:00:00	2024-11-08T17:00:00	6	Velocidad del viento	3.2
61694	7	Sololá	717	San Juan la Laguna	12	San Juan la Laguna	6	Junio	2023-06-24T00:00:00	2024-11-08T17:00:00	7	Dirección del viento	3.22
61695	7	Sololá	717	San Juan la Laguna	12	San Juan la Laguna	6	Junio	2023-06-24T00:00:00	2024-11-08T17:00:00	1	Precipitación	0
61696	7	Sololá	717	San Juan la Laguna	12	San Juan la Laguna	6	Junio	2023-06-24T00:00:00	2024-11-08T17:00:00	8	Radiación solar	151
61697	7	Sololá	717	San Juan la Laguna	12	San Juan la Laguna	6	Junio	2023-06-24T00:00:00	2024-11-08T18:00:00	2	Temperatura media	17.5
61698	7	Sololá	717	San Juan la Laguna	12	San Juan la Laguna	6	Junio	2023-06-24T00:00:00	2024-11-08T18:00:00	4	Temperatura máxima	21.7
61699	7	Sololá	717	San Juan la Laguna	12	San Juan la Laguna	6	Junio	2023-06-24T00:00:00	2024-11-08T18:00:00	3	Temperatura mínima	17.5
61700	7	Sololá	717	San Juan la Laguna	12	San Juan la Laguna	6	Junio	2023-06-24T00:00:00	2024-11-08T18:00:00	5	Humedad	88
61701	7	Sololá	717	San Juan la Laguna	12	San Juan la Laguna	6	Junio	2023-06-24T00:00:00	2024-11-08T18:00:00	6	Velocidad del viento	3.2
61702	7	Sololá	717	San Juan la Laguna	12	San Juan la Laguna	6	Junio	2023-06-24T00:00:00	2024-11-08T18:00:00	7	Dirección del viento	3.22
61703	7	Sololá	717	San Juan la Laguna	12	San Juan la Laguna	6	Junio	2023-06-24T00:00:00	2024-11-08T18:00:00	1	Precipitación	12.6
61704	7	Sololá	717	San Juan la Laguna	12	San Juan la Laguna	6	Junio	2023-06-24T00:00:00	2024-11-08T18:00:00	8	Radiación solar	60
61705	7	Sololá	717	San Juan la Laguna	12	San Juan la Laguna	6	Junio	2023-06-24T00:00:00	2024-11-08T19:00:00	2	Temperatura media	17.7
61706	7	Sololá	717	San Juan la Laguna	12	San Juan la Laguna	6	Junio	2023-06-24T00:00:00	2024-11-08T19:00:00	4	Temperatura máxima	17.7
61707	7	Sololá	717	San Juan la Laguna	12	San Juan la Laguna	6	Junio	2023-06-24T00:00:00	2024-11-08T19:00:00	3	Temperatura mínima	17.2
61708	7	Sololá	717	San Juan la Laguna	12	San Juan la Laguna	6	Junio	2023-06-24T00:00:00	2024-11-08T19:00:00	5	Humedad	90
61709	7	Sololá	717	San Juan la Laguna	12	San Juan la Laguna	6	Junio	2023-06-24T00:00:00	2024-11-08T19:00:00	6	Velocidad del viento	1.6
61710	7	Sololá	717	San Juan la Laguna	12	San Juan la Laguna	6	Junio	2023-06-24T00:00:00	2024-11-08T19:00:00	7	Dirección del viento	1.61
61711	7	Sololá	717	San Juan la Laguna	12	San Juan la Laguna	6	Junio	2023-06-24T00:00:00	2024-11-08T19:00:00	1	Precipitación	1.8
61712	7	Sololá	717	San Juan la Laguna	12	San Juan la Laguna	6	Junio	2023-06-24T00:00:00	2024-11-08T19:00:00	8	Radiación solar	0
61713	7	Sololá	717	San Juan la Laguna	12	San Juan la Laguna	6	Junio	2023-06-24T00:00:00	2024-11-08T20:00:00	2	Temperatura media	18
61714	7	Sololá	717	San Juan la Laguna	12	San Juan la Laguna	6	Junio	2023-06-24T00:00:00	2024-11-08T20:00:00	4	Temperatura máxima	18.2
61715	7	Sololá	717	San Juan la Laguna	12	San Juan la Laguna	6	Junio	2023-06-24T00:00:00	2024-11-08T20:00:00	3	Temperatura mínima	17.7
61716	7	Sololá	717	San Juan la Laguna	12	San Juan la Laguna	6	Junio	2023-06-24T00:00:00	2024-11-08T20:00:00	5	Humedad	89
61717	7	Sololá	717	San Juan la Laguna	12	San Juan la Laguna	6	Junio	2023-06-24T00:00:00	2024-11-08T20:00:00	6	Velocidad del viento	0
61718	7	Sololá	717	San Juan la Laguna	12	San Juan la Laguna	6	Junio	2023-06-24T00:00:00	2024-11-08T20:00:00	7	Dirección del viento	0
61719	7	Sololá	717	San Juan la Laguna	12	San Juan la Laguna	6	Junio	2023-06-24T00:00:00	2024-11-08T20:00:00	1	Precipitación	0.4
61720	7	Sololá	717	San Juan la Laguna	12	San Juan la Laguna	6	Junio	2023-06-24T00:00:00	2024-11-08T20:00:00	8	Radiación solar	0
61721	7	Sololá	717	San Juan la Laguna	12	San Juan la Laguna	6	Junio	2023-06-24T00:00:00	2024-11-08T21:00:00	2	Temperatura media	17.9
61722	7	Sololá	717	San Juan la Laguna	12	San Juan la Laguna	6	Junio	2023-06-24T00:00:00	2024-11-08T21:00:00	4	Temperatura máxima	18.1
61723	7	Sololá	717	San Juan la Laguna	12	San Juan la Laguna	6	Junio	2023-06-24T00:00:00	2024-11-08T21:00:00	3	Temperatura mínima	17.9
61724	7	Sololá	717	San Juan la Laguna	12	San Juan la Laguna	6	Junio	2023-06-24T00:00:00	2024-11-08T21:00:00	5	Humedad	90
61725	7	Sololá	717	San Juan la Laguna	12	San Juan la Laguna	6	Junio	2023-06-24T00:00:00	2024-11-08T21:00:00	6	Velocidad del viento	0
61726	7	Sololá	717	San Juan la Laguna	12	San Juan la Laguna	6	Junio	2023-06-24T00:00:00	2024-11-08T21:00:00	7	Dirección del viento	0
61727	7	Sololá	717	San Juan la Laguna	12	San Juan la Laguna	6	Junio	2023-06-24T00:00:00	2024-11-08T21:00:00	1	Precipitación	0
61728	7	Sololá	717	San Juan la Laguna	12	San Juan la Laguna	6	Junio	2023-06-24T00:00:00	2024-11-08T21:00:00	8	Radiación solar	0
61729	7	Sololá	717	San Juan la Laguna	12	San Juan la Laguna	6	Junio	2023-06-24T00:00:00	2024-11-08T22:00:00	2	Temperatura media	18
61730	7	Sololá	717	San Juan la Laguna	12	San Juan la Laguna	6	Junio	2023-06-24T00:00:00	2024-11-08T22:00:00	4	Temperatura máxima	18.1
61731	7	Sololá	717	San Juan la Laguna	12	San Juan la Laguna	6	Junio	2023-06-24T00:00:00	2024-11-08T22:00:00	3	Temperatura mínima	17.9
61732	7	Sololá	717	San Juan la Laguna	12	San Juan la Laguna	6	Junio	2023-06-24T00:00:00	2024-11-08T22:00:00	5	Humedad	90
61733	7	Sololá	717	San Juan la Laguna	12	San Juan la Laguna	6	Junio	2023-06-24T00:00:00	2024-11-08T22:00:00	6	Velocidad del viento	0
61734	7	Sololá	717	San Juan la Laguna	12	San Juan la Laguna	6	Junio	2023-06-24T00:00:00	2024-11-08T22:00:00	7	Dirección del viento	0
61735	7	Sololá	717	San Juan la Laguna	12	San Juan la Laguna	6	Junio	2023-06-24T00:00:00	2024-11-08T22:00:00	1	Precipitación	0
61736	7	Sololá	717	San Juan la Laguna	12	San Juan la Laguna	6	Junio	2023-06-24T00:00:00	2024-11-08T22:00:00	8	Radiación solar	0
61737	7	Sololá	717	San Juan la Laguna	12	San Juan la Laguna	6	Junio	2023-06-24T00:00:00	2024-11-08T23:00:00	2	Temperatura media	18
61738	7	Sololá	717	San Juan la Laguna	12	San Juan la Laguna	6	Junio	2023-06-24T00:00:00	2024-11-08T23:00:00	4	Temperatura máxima	18
61739	7	Sololá	717	San Juan la Laguna	12	San Juan la Laguna	6	Junio	2023-06-24T00:00:00	2024-11-08T23:00:00	3	Temperatura mínima	17.9
61740	7	Sololá	717	San Juan la Laguna	12	San Juan la Laguna	6	Junio	2023-06-24T00:00:00	2024-11-08T23:00:00	5	Humedad	90
61741	7	Sololá	717	San Juan la Laguna	12	San Juan la Laguna	6	Junio	2023-06-24T00:00:00	2024-11-08T23:00:00	6	Velocidad del viento	0
61742	7	Sololá	717	San Juan la Laguna	12	San Juan la Laguna	6	Junio	2023-06-24T00:00:00	2024-11-08T23:00:00	7	Dirección del viento	0
61743	7	Sololá	717	San Juan la Laguna	12	San Juan la Laguna	6	Junio	2023-06-24T00:00:00	2024-11-08T23:00:00	1	Precipitación	0
61744	7	Sololá	717	San Juan la Laguna	12	San Juan la Laguna	6	Junio	2023-06-24T00:00:00	2024-11-08T23:00:00	8	Radiación solar	0
61745	7	Sololá	717	San Juan la Laguna	12	San Juan la Laguna	6	Junio	2023-06-25T00:00:00	2024-11-08T00:00:00	2	Temperatura media	18
61746	7	Sololá	717	San Juan la Laguna	12	San Juan la Laguna	6	Junio	2023-06-25T00:00:00	2024-11-08T00:00:00	4	Temperatura máxima	18.1
61747	7	Sololá	717	San Juan la Laguna	12	San Juan la Laguna	6	Junio	2023-06-25T00:00:00	2024-11-08T00:00:00	3	Temperatura mínima	17.9
61748	7	Sololá	717	San Juan la Laguna	12	San Juan la Laguna	6	Junio	2023-06-25T00:00:00	2024-11-08T00:00:00	5	Humedad	90
61749	7	Sololá	717	San Juan la Laguna	12	San Juan la Laguna	6	Junio	2023-06-25T00:00:00	2024-11-08T00:00:00	6	Velocidad del viento	0
61750	7	Sololá	717	San Juan la Laguna	12	San Juan la Laguna	6	Junio	2023-06-25T00:00:00	2024-11-08T00:00:00	7	Dirección del viento	0
61751	7	Sololá	717	San Juan la Laguna	12	San Juan la Laguna	6	Junio	2023-06-25T00:00:00	2024-11-08T00:00:00	1	Precipitación	0
61752	7	Sololá	717	San Juan la Laguna	12	San Juan la Laguna	6	Junio	2023-06-25T00:00:00	2024-11-08T00:00:00	8	Radiación solar	0
61753	7	Sololá	717	San Juan la Laguna	12	San Juan la Laguna	6	Junio	2023-06-25T00:00:00	2024-11-08T01:00:00	2	Temperatura media	17.8
61754	7	Sololá	717	San Juan la Laguna	12	San Juan la Laguna	6	Junio	2023-06-25T00:00:00	2024-11-08T01:00:00	4	Temperatura máxima	18.2
61755	7	Sololá	717	San Juan la Laguna	12	San Juan la Laguna	6	Junio	2023-06-25T00:00:00	2024-11-08T01:00:00	3	Temperatura mínima	17.8
61756	7	Sololá	717	San Juan la Laguna	12	San Juan la Laguna	6	Junio	2023-06-25T00:00:00	2024-11-08T01:00:00	5	Humedad	91
61757	7	Sololá	717	San Juan la Laguna	12	San Juan la Laguna	6	Junio	2023-06-25T00:00:00	2024-11-08T01:00:00	6	Velocidad del viento	0
61758	7	Sololá	717	San Juan la Laguna	12	San Juan la Laguna	6	Junio	2023-06-25T00:00:00	2024-11-08T01:00:00	7	Dirección del viento	0
61759	7	Sololá	717	San Juan la Laguna	12	San Juan la Laguna	6	Junio	2023-06-25T00:00:00	2024-11-08T01:00:00	1	Precipitación	4.8
61760	7	Sololá	717	San Juan la Laguna	12	San Juan la Laguna	6	Junio	2023-06-25T00:00:00	2024-11-08T01:00:00	8	Radiación solar	0
61761	7	Sololá	717	San Juan la Laguna	12	San Juan la Laguna	6	Junio	2023-06-25T00:00:00	2024-11-08T02:00:00	2	Temperatura media	18.4
61762	7	Sololá	717	San Juan la Laguna	12	San Juan la Laguna	6	Junio	2023-06-25T00:00:00	2024-11-08T02:00:00	4	Temperatura máxima	18.4
61763	7	Sololá	717	San Juan la Laguna	12	San Juan la Laguna	6	Junio	2023-06-25T00:00:00	2024-11-08T02:00:00	3	Temperatura mínima	17.8
61764	7	Sololá	717	San Juan la Laguna	12	San Juan la Laguna	6	Junio	2023-06-25T00:00:00	2024-11-08T02:00:00	5	Humedad	89
61765	7	Sololá	717	San Juan la Laguna	12	San Juan la Laguna	6	Junio	2023-06-25T00:00:00	2024-11-08T02:00:00	6	Velocidad del viento	1.6
61766	7	Sololá	717	San Juan la Laguna	12	San Juan la Laguna	6	Junio	2023-06-25T00:00:00	2024-11-08T02:00:00	7	Dirección del viento	1.61
61767	7	Sololá	717	San Juan la Laguna	12	San Juan la Laguna	6	Junio	2023-06-25T00:00:00	2024-11-08T02:00:00	1	Precipitación	0
61768	7	Sololá	717	San Juan la Laguna	12	San Juan la Laguna	6	Junio	2023-06-25T00:00:00	2024-11-08T02:00:00	8	Radiación solar	0
61769	7	Sololá	717	San Juan la Laguna	12	San Juan la Laguna	6	Junio	2023-06-25T00:00:00	2024-11-08T03:00:00	2	Temperatura media	17.4
61770	7	Sololá	717	San Juan la Laguna	12	San Juan la Laguna	6	Junio	2023-06-25T00:00:00	2024-11-08T03:00:00	4	Temperatura máxima	18.6
61771	7	Sololá	717	San Juan la Laguna	12	San Juan la Laguna	6	Junio	2023-06-25T00:00:00	2024-11-08T03:00:00	3	Temperatura mínima	17.4
61772	7	Sololá	717	San Juan la Laguna	12	San Juan la Laguna	6	Junio	2023-06-25T00:00:00	2024-11-08T03:00:00	5	Humedad	91
61773	7	Sololá	717	San Juan la Laguna	12	San Juan la Laguna	6	Junio	2023-06-25T00:00:00	2024-11-08T03:00:00	6	Velocidad del viento	1.6
61774	7	Sololá	717	San Juan la Laguna	12	San Juan la Laguna	6	Junio	2023-06-25T00:00:00	2024-11-08T03:00:00	7	Dirección del viento	1.61
61775	7	Sololá	717	San Juan la Laguna	12	San Juan la Laguna	6	Junio	2023-06-25T00:00:00	2024-11-08T03:00:00	1	Precipitación	0.2
61776	7	Sololá	717	San Juan la Laguna	12	San Juan la Laguna	6	Junio	2023-06-25T00:00:00	2024-11-08T03:00:00	8	Radiación solar	0
61777	7	Sololá	717	San Juan la Laguna	12	San Juan la Laguna	6	Junio	2023-06-25T00:00:00	2024-11-08T04:00:00	2	Temperatura media	16.3
61778	7	Sololá	717	San Juan la Laguna	12	San Juan la Laguna	6	Junio	2023-06-25T00:00:00	2024-11-08T04:00:00	4	Temperatura máxima	17.4
61779	7	Sololá	717	San Juan la Laguna	12	San Juan la Laguna	6	Junio	2023-06-25T00:00:00	2024-11-08T04:00:00	3	Temperatura mínima	16.3
61780	7	Sololá	717	San Juan la Laguna	12	San Juan la Laguna	6	Junio	2023-06-25T00:00:00	2024-11-08T04:00:00	5	Humedad	87
61781	7	Sololá	717	San Juan la Laguna	12	San Juan la Laguna	6	Junio	2023-06-25T00:00:00	2024-11-08T04:00:00	6	Velocidad del viento	0
61782	7	Sololá	717	San Juan la Laguna	12	San Juan la Laguna	6	Junio	2023-06-25T00:00:00	2024-11-08T04:00:00	7	Dirección del viento	0
61783	7	Sololá	717	San Juan la Laguna	12	San Juan la Laguna	6	Junio	2023-06-25T00:00:00	2024-11-08T04:00:00	1	Precipitación	0
61784	7	Sololá	717	San Juan la Laguna	12	San Juan la Laguna	6	Junio	2023-06-25T00:00:00	2024-11-08T04:00:00	8	Radiación solar	0
61785	7	Sololá	717	San Juan la Laguna	12	San Juan la Laguna	6	Junio	2023-06-25T00:00:00	2024-11-08T05:00:00	2	Temperatura media	15.9
61786	7	Sololá	717	San Juan la Laguna	12	San Juan la Laguna	6	Junio	2023-06-25T00:00:00	2024-11-08T05:00:00	4	Temperatura máxima	16.3
61787	7	Sololá	717	San Juan la Laguna	12	San Juan la Laguna	6	Junio	2023-06-25T00:00:00	2024-11-08T05:00:00	3	Temperatura mínima	15.9
61788	7	Sololá	717	San Juan la Laguna	12	San Juan la Laguna	6	Junio	2023-06-25T00:00:00	2024-11-08T05:00:00	5	Humedad	88
61789	7	Sololá	717	San Juan la Laguna	12	San Juan la Laguna	6	Junio	2023-06-25T00:00:00	2024-11-08T05:00:00	6	Velocidad del viento	0
61790	7	Sololá	717	San Juan la Laguna	12	San Juan la Laguna	6	Junio	2023-06-25T00:00:00	2024-11-08T05:00:00	7	Dirección del viento	0
61791	7	Sololá	717	San Juan la Laguna	12	San Juan la Laguna	6	Junio	2023-06-25T00:00:00	2024-11-08T05:00:00	1	Precipitación	0
61792	7	Sololá	717	San Juan la Laguna	12	San Juan la Laguna	6	Junio	2023-06-25T00:00:00	2024-11-08T05:00:00	8	Radiación solar	0
61793	7	Sololá	717	San Juan la Laguna	12	San Juan la Laguna	6	Junio	2023-06-25T00:00:00	2024-11-08T06:00:00	2	Temperatura media	16
61794	7	Sololá	717	San Juan la Laguna	12	San Juan la Laguna	6	Junio	2023-06-25T00:00:00	2024-11-08T06:00:00	4	Temperatura máxima	16.1
61795	7	Sololá	717	San Juan la Laguna	12	San Juan la Laguna	6	Junio	2023-06-25T00:00:00	2024-11-08T06:00:00	3	Temperatura mínima	15.8
61796	7	Sololá	717	San Juan la Laguna	12	San Juan la Laguna	6	Junio	2023-06-25T00:00:00	2024-11-08T06:00:00	5	Humedad	86
61797	7	Sololá	717	San Juan la Laguna	12	San Juan la Laguna	6	Junio	2023-06-25T00:00:00	2024-11-08T06:00:00	6	Velocidad del viento	0
61798	7	Sololá	717	San Juan la Laguna	12	San Juan la Laguna	6	Junio	2023-06-25T00:00:00	2024-11-08T06:00:00	7	Dirección del viento	0
61799	7	Sololá	717	San Juan la Laguna	12	San Juan la Laguna	6	Junio	2023-06-25T00:00:00	2024-11-08T06:00:00	1	Precipitación	0
61800	7	Sololá	717	San Juan la Laguna	12	San Juan la Laguna	6	Junio	2023-06-25T00:00:00	2024-11-08T06:00:00	8	Radiación solar	0
61801	7	Sololá	717	San Juan la Laguna	12	San Juan la Laguna	6	Junio	2023-06-25T00:00:00	2024-11-08T07:00:00	2	Temperatura media	17.2
61802	7	Sololá	717	San Juan la Laguna	12	San Juan la Laguna	6	Junio	2023-06-25T00:00:00	2024-11-08T07:00:00	4	Temperatura máxima	17.2
61803	7	Sololá	717	San Juan la Laguna	12	San Juan la Laguna	6	Junio	2023-06-25T00:00:00	2024-11-08T07:00:00	3	Temperatura mínima	15.9
61804	7	Sololá	717	San Juan la Laguna	12	San Juan la Laguna	6	Junio	2023-06-25T00:00:00	2024-11-08T07:00:00	5	Humedad	85
61805	7	Sololá	717	San Juan la Laguna	12	San Juan la Laguna	6	Junio	2023-06-25T00:00:00	2024-11-08T07:00:00	6	Velocidad del viento	0
61806	7	Sololá	717	San Juan la Laguna	12	San Juan la Laguna	6	Junio	2023-06-25T00:00:00	2024-11-08T07:00:00	7	Dirección del viento	0
61807	7	Sololá	717	San Juan la Laguna	12	San Juan la Laguna	6	Junio	2023-06-25T00:00:00	2024-11-08T07:00:00	1	Precipitación	0
61808	7	Sololá	717	San Juan la Laguna	12	San Juan la Laguna	6	Junio	2023-06-25T00:00:00	2024-11-08T07:00:00	8	Radiación solar	65
61809	7	Sololá	717	San Juan la Laguna	12	San Juan la Laguna	6	Junio	2023-06-25T00:00:00	2024-11-08T08:00:00	2	Temperatura media	19.4
61810	7	Sololá	717	San Juan la Laguna	12	San Juan la Laguna	6	Junio	2023-06-25T00:00:00	2024-11-08T08:00:00	4	Temperatura máxima	19.4
61811	7	Sololá	717	San Juan la Laguna	12	San Juan la Laguna	6	Junio	2023-06-25T00:00:00	2024-11-08T08:00:00	3	Temperatura mínima	17.2
61812	7	Sololá	717	San Juan la Laguna	12	San Juan la Laguna	6	Junio	2023-06-25T00:00:00	2024-11-08T08:00:00	5	Humedad	78
61813	7	Sololá	717	San Juan la Laguna	12	San Juan la Laguna	6	Junio	2023-06-25T00:00:00	2024-11-08T08:00:00	6	Velocidad del viento	0
61814	7	Sololá	717	San Juan la Laguna	12	San Juan la Laguna	6	Junio	2023-06-25T00:00:00	2024-11-08T08:00:00	7	Dirección del viento	0
61815	7	Sololá	717	San Juan la Laguna	12	San Juan la Laguna	6	Junio	2023-06-25T00:00:00	2024-11-08T08:00:00	1	Precipitación	0
61816	7	Sololá	717	San Juan la Laguna	12	San Juan la Laguna	6	Junio	2023-06-25T00:00:00	2024-11-08T08:00:00	8	Radiación solar	257
61817	7	Sololá	717	San Juan la Laguna	12	San Juan la Laguna	6	Junio	2023-06-25T00:00:00	2024-11-08T09:00:00	2	Temperatura media	22
61818	7	Sololá	717	San Juan la Laguna	12	San Juan la Laguna	6	Junio	2023-06-25T00:00:00	2024-11-08T09:00:00	4	Temperatura máxima	22.1
61819	7	Sololá	717	San Juan la Laguna	12	San Juan la Laguna	6	Junio	2023-06-25T00:00:00	2024-11-08T09:00:00	3	Temperatura mínima	19.5
61820	7	Sololá	717	San Juan la Laguna	12	San Juan la Laguna	6	Junio	2023-06-25T00:00:00	2024-11-08T09:00:00	5	Humedad	66
61821	7	Sololá	717	San Juan la Laguna	12	San Juan la Laguna	6	Junio	2023-06-25T00:00:00	2024-11-08T09:00:00	6	Velocidad del viento	0
61822	7	Sololá	717	San Juan la Laguna	12	San Juan la Laguna	6	Junio	2023-06-25T00:00:00	2024-11-08T09:00:00	7	Dirección del viento	0
61823	7	Sololá	717	San Juan la Laguna	12	San Juan la Laguna	6	Junio	2023-06-25T00:00:00	2024-11-08T09:00:00	1	Precipitación	0
61824	7	Sololá	717	San Juan la Laguna	12	San Juan la Laguna	6	Junio	2023-06-25T00:00:00	2024-11-08T09:00:00	8	Radiación solar	480
61825	7	Sololá	717	San Juan la Laguna	12	San Juan la Laguna	6	Junio	2023-06-25T00:00:00	2024-11-08T10:00:00	2	Temperatura media	22.8
61826	7	Sololá	717	San Juan la Laguna	12	San Juan la Laguna	6	Junio	2023-06-25T00:00:00	2024-11-08T10:00:00	4	Temperatura máxima	22.9
61827	7	Sololá	717	San Juan la Laguna	12	San Juan la Laguna	6	Junio	2023-06-25T00:00:00	2024-11-08T10:00:00	3	Temperatura mínima	22
61828	7	Sololá	717	San Juan la Laguna	12	San Juan la Laguna	6	Junio	2023-06-25T00:00:00	2024-11-08T10:00:00	5	Humedad	60
61829	7	Sololá	717	San Juan la Laguna	12	San Juan la Laguna	6	Junio	2023-06-25T00:00:00	2024-11-08T10:00:00	6	Velocidad del viento	0
61830	7	Sololá	717	San Juan la Laguna	12	San Juan la Laguna	6	Junio	2023-06-25T00:00:00	2024-11-08T10:00:00	7	Dirección del viento	0
61831	7	Sololá	717	San Juan la Laguna	12	San Juan la Laguna	6	Junio	2023-06-25T00:00:00	2024-11-08T10:00:00	1	Precipitación	0
61832	7	Sololá	717	San Juan la Laguna	12	San Juan la Laguna	6	Junio	2023-06-25T00:00:00	2024-11-08T10:00:00	8	Radiación solar	826
61833	7	Sololá	717	San Juan la Laguna	12	San Juan la Laguna	6	Junio	2023-06-25T00:00:00	2024-11-08T11:00:00	2	Temperatura media	24.3
61834	7	Sololá	717	San Juan la Laguna	12	San Juan la Laguna	6	Junio	2023-06-25T00:00:00	2024-11-08T11:00:00	4	Temperatura máxima	24.3
61835	7	Sololá	717	San Juan la Laguna	12	San Juan la Laguna	6	Junio	2023-06-25T00:00:00	2024-11-08T11:00:00	3	Temperatura mínima	22.8
61836	7	Sololá	717	San Juan la Laguna	12	San Juan la Laguna	6	Junio	2023-06-25T00:00:00	2024-11-08T11:00:00	5	Humedad	55
61837	7	Sololá	717	San Juan la Laguna	12	San Juan la Laguna	6	Junio	2023-06-25T00:00:00	2024-11-08T11:00:00	6	Velocidad del viento	0
61838	7	Sololá	717	San Juan la Laguna	12	San Juan la Laguna	6	Junio	2023-06-25T00:00:00	2024-11-08T11:00:00	7	Dirección del viento	0
61839	7	Sololá	717	San Juan la Laguna	12	San Juan la Laguna	6	Junio	2023-06-25T00:00:00	2024-11-08T11:00:00	1	Precipitación	0
61840	7	Sololá	717	San Juan la Laguna	12	San Juan la Laguna	6	Junio	2023-06-25T00:00:00	2024-11-08T11:00:00	8	Radiación solar	871
61841	7	Sololá	717	San Juan la Laguna	12	San Juan la Laguna	6	Junio	2023-06-25T00:00:00	2024-11-08T12:00:00	2	Temperatura media	26.1
61842	7	Sololá	717	San Juan la Laguna	12	San Juan la Laguna	6	Junio	2023-06-25T00:00:00	2024-11-08T12:00:00	4	Temperatura máxima	26.1
61843	7	Sololá	717	San Juan la Laguna	12	San Juan la Laguna	6	Junio	2023-06-25T00:00:00	2024-11-08T12:00:00	3	Temperatura mínima	24.3
61844	7	Sololá	717	San Juan la Laguna	12	San Juan la Laguna	6	Junio	2023-06-25T00:00:00	2024-11-08T12:00:00	5	Humedad	51
61845	7	Sololá	717	San Juan la Laguna	12	San Juan la Laguna	6	Junio	2023-06-25T00:00:00	2024-11-08T12:00:00	6	Velocidad del viento	3.2
61846	7	Sololá	717	San Juan la Laguna	12	San Juan la Laguna	6	Junio	2023-06-25T00:00:00	2024-11-08T12:00:00	7	Dirección del viento	3.22
61847	7	Sololá	717	San Juan la Laguna	12	San Juan la Laguna	6	Junio	2023-06-25T00:00:00	2024-11-08T12:00:00	1	Precipitación	0
61848	7	Sololá	717	San Juan la Laguna	12	San Juan la Laguna	6	Junio	2023-06-25T00:00:00	2024-11-08T12:00:00	8	Radiación solar	898
61849	7	Sololá	717	San Juan la Laguna	12	San Juan la Laguna	6	Junio	2023-06-25T00:00:00	2024-11-08T13:00:00	2	Temperatura media	26.6
61850	7	Sololá	717	San Juan la Laguna	12	San Juan la Laguna	6	Junio	2023-06-25T00:00:00	2024-11-08T13:00:00	4	Temperatura máxima	26.8
61851	7	Sololá	717	San Juan la Laguna	12	San Juan la Laguna	6	Junio	2023-06-25T00:00:00	2024-11-08T13:00:00	3	Temperatura mínima	26.1
61852	7	Sololá	717	San Juan la Laguna	12	San Juan la Laguna	6	Junio	2023-06-25T00:00:00	2024-11-08T13:00:00	5	Humedad	46
61853	7	Sololá	717	San Juan la Laguna	12	San Juan la Laguna	6	Junio	2023-06-25T00:00:00	2024-11-08T13:00:00	6	Velocidad del viento	6.4
61854	7	Sololá	717	San Juan la Laguna	12	San Juan la Laguna	6	Junio	2023-06-25T00:00:00	2024-11-08T13:00:00	7	Dirección del viento	6.44
61855	7	Sololá	717	San Juan la Laguna	12	San Juan la Laguna	6	Junio	2023-06-25T00:00:00	2024-11-08T13:00:00	1	Precipitación	0
61856	7	Sololá	717	San Juan la Laguna	12	San Juan la Laguna	6	Junio	2023-06-25T00:00:00	2024-11-08T13:00:00	8	Radiación solar	909
61857	7	Sololá	717	San Juan la Laguna	12	San Juan la Laguna	6	Junio	2023-06-25T00:00:00	2024-11-08T14:00:00	2	Temperatura media	26.3
61858	7	Sololá	717	San Juan la Laguna	12	San Juan la Laguna	6	Junio	2023-06-25T00:00:00	2024-11-08T14:00:00	4	Temperatura máxima	27.2
61859	7	Sololá	717	San Juan la Laguna	12	San Juan la Laguna	6	Junio	2023-06-25T00:00:00	2024-11-08T14:00:00	3	Temperatura mínima	26.1
61860	7	Sololá	717	San Juan la Laguna	12	San Juan la Laguna	6	Junio	2023-06-25T00:00:00	2024-11-08T14:00:00	5	Humedad	44
61861	7	Sololá	717	San Juan la Laguna	12	San Juan la Laguna	6	Junio	2023-06-25T00:00:00	2024-11-08T14:00:00	6	Velocidad del viento	8
61862	7	Sololá	717	San Juan la Laguna	12	San Juan la Laguna	6	Junio	2023-06-25T00:00:00	2024-11-08T14:00:00	7	Dirección del viento	8.05
61863	7	Sololá	717	San Juan la Laguna	12	San Juan la Laguna	6	Junio	2023-06-25T00:00:00	2024-11-08T14:00:00	1	Precipitación	0
61864	7	Sololá	717	San Juan la Laguna	12	San Juan la Laguna	6	Junio	2023-06-25T00:00:00	2024-11-08T14:00:00	8	Radiación solar	579
61865	7	Sololá	717	San Juan la Laguna	12	San Juan la Laguna	6	Junio	2023-06-25T00:00:00	2024-11-08T15:00:00	2	Temperatura media	26.7
61866	7	Sololá	717	San Juan la Laguna	12	San Juan la Laguna	6	Junio	2023-06-25T00:00:00	2024-11-08T15:00:00	4	Temperatura máxima	26.9
61867	7	Sololá	717	San Juan la Laguna	12	San Juan la Laguna	6	Junio	2023-06-25T00:00:00	2024-11-08T15:00:00	3	Temperatura mínima	26.3
61868	7	Sololá	717	San Juan la Laguna	12	San Juan la Laguna	6	Junio	2023-06-25T00:00:00	2024-11-08T15:00:00	5	Humedad	47
61869	7	Sololá	717	San Juan la Laguna	12	San Juan la Laguna	6	Junio	2023-06-25T00:00:00	2024-11-08T15:00:00	6	Velocidad del viento	6.4
61870	7	Sololá	717	San Juan la Laguna	12	San Juan la Laguna	6	Junio	2023-06-25T00:00:00	2024-11-08T15:00:00	7	Dirección del viento	6.44
61871	7	Sololá	717	San Juan la Laguna	12	San Juan la Laguna	6	Junio	2023-06-25T00:00:00	2024-11-08T15:00:00	1	Precipitación	0
61872	7	Sololá	717	San Juan la Laguna	12	San Juan la Laguna	6	Junio	2023-06-25T00:00:00	2024-11-08T15:00:00	8	Radiación solar	370
61873	7	Sololá	717	San Juan la Laguna	12	San Juan la Laguna	6	Junio	2023-06-25T00:00:00	2024-11-08T16:00:00	2	Temperatura media	25.8
61874	7	Sololá	717	San Juan la Laguna	12	San Juan la Laguna	6	Junio	2023-06-25T00:00:00	2024-11-08T16:00:00	4	Temperatura máxima	27
61875	7	Sololá	717	San Juan la Laguna	12	San Juan la Laguna	6	Junio	2023-06-25T00:00:00	2024-11-08T16:00:00	3	Temperatura mínima	25.8
61876	7	Sololá	717	San Juan la Laguna	12	San Juan la Laguna	6	Junio	2023-06-25T00:00:00	2024-11-08T16:00:00	5	Humedad	58
61877	7	Sololá	717	San Juan la Laguna	12	San Juan la Laguna	6	Junio	2023-06-25T00:00:00	2024-11-08T16:00:00	6	Velocidad del viento	3.2
61878	7	Sololá	717	San Juan la Laguna	12	San Juan la Laguna	6	Junio	2023-06-25T00:00:00	2024-11-08T16:00:00	7	Dirección del viento	3.22
61879	7	Sololá	717	San Juan la Laguna	12	San Juan la Laguna	6	Junio	2023-06-25T00:00:00	2024-11-08T16:00:00	1	Precipitación	0
61880	7	Sololá	717	San Juan la Laguna	12	San Juan la Laguna	6	Junio	2023-06-25T00:00:00	2024-11-08T16:00:00	8	Radiación solar	135
61881	7	Sololá	717	San Juan la Laguna	12	San Juan la Laguna	6	Junio	2023-06-25T00:00:00	2024-11-08T17:00:00	2	Temperatura media	25.2
61882	7	Sololá	717	San Juan la Laguna	12	San Juan la Laguna	6	Junio	2023-06-25T00:00:00	2024-11-08T17:00:00	4	Temperatura máxima	25.9
61883	7	Sololá	717	San Juan la Laguna	12	San Juan la Laguna	6	Junio	2023-06-25T00:00:00	2024-11-08T17:00:00	3	Temperatura mínima	25.1
61884	7	Sololá	717	San Juan la Laguna	12	San Juan la Laguna	6	Junio	2023-06-25T00:00:00	2024-11-08T17:00:00	5	Humedad	58
61885	7	Sololá	717	San Juan la Laguna	12	San Juan la Laguna	6	Junio	2023-06-25T00:00:00	2024-11-08T17:00:00	6	Velocidad del viento	3.2
61886	7	Sololá	717	San Juan la Laguna	12	San Juan la Laguna	6	Junio	2023-06-25T00:00:00	2024-11-08T17:00:00	7	Dirección del viento	3.22
61887	7	Sololá	717	San Juan la Laguna	12	San Juan la Laguna	6	Junio	2023-06-25T00:00:00	2024-11-08T17:00:00	1	Precipitación	0
61888	7	Sololá	717	San Juan la Laguna	12	San Juan la Laguna	6	Junio	2023-06-25T00:00:00	2024-11-08T17:00:00	8	Radiación solar	173
61889	7	Sololá	717	San Juan la Laguna	12	San Juan la Laguna	6	Junio	2023-06-25T00:00:00	2024-11-08T18:00:00	2	Temperatura media	22.6
61890	7	Sololá	717	San Juan la Laguna	12	San Juan la Laguna	6	Junio	2023-06-25T00:00:00	2024-11-08T18:00:00	4	Temperatura máxima	25.2
61891	7	Sololá	717	San Juan la Laguna	12	San Juan la Laguna	6	Junio	2023-06-25T00:00:00	2024-11-08T18:00:00	3	Temperatura mínima	22.6
61892	7	Sololá	717	San Juan la Laguna	12	San Juan la Laguna	6	Junio	2023-06-25T00:00:00	2024-11-08T18:00:00	5	Humedad	71
61893	7	Sololá	717	San Juan la Laguna	12	San Juan la Laguna	6	Junio	2023-06-25T00:00:00	2024-11-08T18:00:00	6	Velocidad del viento	0
61894	7	Sololá	717	San Juan la Laguna	12	San Juan la Laguna	6	Junio	2023-06-25T00:00:00	2024-11-08T18:00:00	7	Dirección del viento	0
61895	7	Sololá	717	San Juan la Laguna	12	San Juan la Laguna	6	Junio	2023-06-25T00:00:00	2024-11-08T18:00:00	1	Precipitación	0
61896	7	Sololá	717	San Juan la Laguna	12	San Juan la Laguna	6	Junio	2023-06-25T00:00:00	2024-11-08T18:00:00	8	Radiación solar	43
61897	7	Sololá	717	San Juan la Laguna	12	San Juan la Laguna	6	Junio	2023-06-25T00:00:00	2024-11-08T19:00:00	2	Temperatura media	21.4
61898	7	Sololá	717	San Juan la Laguna	12	San Juan la Laguna	6	Junio	2023-06-25T00:00:00	2024-11-08T19:00:00	4	Temperatura máxima	22.7
61899	7	Sololá	717	San Juan la Laguna	12	San Juan la Laguna	6	Junio	2023-06-25T00:00:00	2024-11-08T19:00:00	3	Temperatura mínima	21.4
61900	7	Sololá	717	San Juan la Laguna	12	San Juan la Laguna	6	Junio	2023-06-25T00:00:00	2024-11-08T19:00:00	5	Humedad	76
61901	7	Sololá	717	San Juan la Laguna	12	San Juan la Laguna	6	Junio	2023-06-25T00:00:00	2024-11-08T19:00:00	6	Velocidad del viento	0
61902	7	Sololá	717	San Juan la Laguna	12	San Juan la Laguna	6	Junio	2023-06-25T00:00:00	2024-11-08T19:00:00	7	Dirección del viento	0
61903	7	Sololá	717	San Juan la Laguna	12	San Juan la Laguna	6	Junio	2023-06-25T00:00:00	2024-11-08T19:00:00	1	Precipitación	0
61904	7	Sololá	717	San Juan la Laguna	12	San Juan la Laguna	6	Junio	2023-06-25T00:00:00	2024-11-08T19:00:00	8	Radiación solar	0
61905	7	Sololá	717	San Juan la Laguna	12	San Juan la Laguna	6	Junio	2023-06-25T00:00:00	2024-11-08T20:00:00	2	Temperatura media	20.5
61906	7	Sololá	717	San Juan la Laguna	12	San Juan la Laguna	6	Junio	2023-06-25T00:00:00	2024-11-08T20:00:00	4	Temperatura máxima	21.4
61907	7	Sololá	717	San Juan la Laguna	12	San Juan la Laguna	6	Junio	2023-06-25T00:00:00	2024-11-08T20:00:00	3	Temperatura mínima	20.5
61908	7	Sololá	717	San Juan la Laguna	12	San Juan la Laguna	6	Junio	2023-06-25T00:00:00	2024-11-08T20:00:00	5	Humedad	77
61909	7	Sololá	717	San Juan la Laguna	12	San Juan la Laguna	6	Junio	2023-06-25T00:00:00	2024-11-08T20:00:00	6	Velocidad del viento	0
61910	7	Sololá	717	San Juan la Laguna	12	San Juan la Laguna	6	Junio	2023-06-25T00:00:00	2024-11-08T20:00:00	7	Dirección del viento	0
61911	7	Sololá	717	San Juan la Laguna	12	San Juan la Laguna	6	Junio	2023-06-25T00:00:00	2024-11-08T20:00:00	1	Precipitación	0
61912	7	Sololá	717	San Juan la Laguna	12	San Juan la Laguna	6	Junio	2023-06-25T00:00:00	2024-11-08T20:00:00	8	Radiación solar	0
61913	7	Sololá	717	San Juan la Laguna	12	San Juan la Laguna	6	Junio	2023-06-25T00:00:00	2024-11-08T21:00:00	2	Temperatura media	21.1
61914	7	Sololá	717	San Juan la Laguna	12	San Juan la Laguna	6	Junio	2023-06-25T00:00:00	2024-11-08T21:00:00	4	Temperatura máxima	21.1
61915	7	Sololá	717	San Juan la Laguna	12	San Juan la Laguna	6	Junio	2023-06-25T00:00:00	2024-11-08T21:00:00	3	Temperatura mínima	19.4
61916	7	Sololá	717	San Juan la Laguna	12	San Juan la Laguna	6	Junio	2023-06-25T00:00:00	2024-11-08T21:00:00	5	Humedad	61
61917	7	Sololá	717	San Juan la Laguna	12	San Juan la Laguna	6	Junio	2023-06-25T00:00:00	2024-11-08T21:00:00	6	Velocidad del viento	0
61918	7	Sololá	717	San Juan la Laguna	12	San Juan la Laguna	6	Junio	2023-06-25T00:00:00	2024-11-08T21:00:00	7	Dirección del viento	0
61919	7	Sololá	717	San Juan la Laguna	12	San Juan la Laguna	6	Junio	2023-06-25T00:00:00	2024-11-08T21:00:00	1	Precipitación	0
61920	7	Sololá	717	San Juan la Laguna	12	San Juan la Laguna	6	Junio	2023-06-25T00:00:00	2024-11-08T21:00:00	8	Radiación solar	0
61921	7	Sololá	717	San Juan la Laguna	12	San Juan la Laguna	6	Junio	2023-06-25T00:00:00	2024-11-08T22:00:00	2	Temperatura media	21.8
61922	7	Sololá	717	San Juan la Laguna	12	San Juan la Laguna	6	Junio	2023-06-25T00:00:00	2024-11-08T22:00:00	4	Temperatura máxima	21.8
61923	7	Sololá	717	San Juan la Laguna	12	San Juan la Laguna	6	Junio	2023-06-25T00:00:00	2024-11-08T22:00:00	3	Temperatura mínima	21.1
61924	7	Sololá	717	San Juan la Laguna	12	San Juan la Laguna	6	Junio	2023-06-25T00:00:00	2024-11-08T22:00:00	5	Humedad	52
61925	7	Sololá	717	San Juan la Laguna	12	San Juan la Laguna	6	Junio	2023-06-25T00:00:00	2024-11-08T22:00:00	6	Velocidad del viento	3.2
61926	7	Sololá	717	San Juan la Laguna	12	San Juan la Laguna	6	Junio	2023-06-25T00:00:00	2024-11-08T22:00:00	7	Dirección del viento	3.22
61927	7	Sololá	717	San Juan la Laguna	12	San Juan la Laguna	6	Junio	2023-06-25T00:00:00	2024-11-08T22:00:00	1	Precipitación	0
61928	7	Sololá	717	San Juan la Laguna	12	San Juan la Laguna	6	Junio	2023-06-25T00:00:00	2024-11-08T22:00:00	8	Radiación solar	0
61929	7	Sololá	717	San Juan la Laguna	12	San Juan la Laguna	6	Junio	2023-06-25T00:00:00	2024-11-08T23:00:00	2	Temperatura media	20.4
61930	7	Sololá	717	San Juan la Laguna	12	San Juan la Laguna	6	Junio	2023-06-25T00:00:00	2024-11-08T23:00:00	4	Temperatura máxima	21.8
61931	7	Sololá	717	San Juan la Laguna	12	San Juan la Laguna	6	Junio	2023-06-25T00:00:00	2024-11-08T23:00:00	3	Temperatura mínima	20.4
61932	7	Sololá	717	San Juan la Laguna	12	San Juan la Laguna	6	Junio	2023-06-25T00:00:00	2024-11-08T23:00:00	5	Humedad	60
61933	7	Sololá	717	San Juan la Laguna	12	San Juan la Laguna	6	Junio	2023-06-25T00:00:00	2024-11-08T23:00:00	6	Velocidad del viento	1.6
61934	7	Sololá	717	San Juan la Laguna	12	San Juan la Laguna	6	Junio	2023-06-25T00:00:00	2024-11-08T23:00:00	7	Dirección del viento	1.61
61935	7	Sololá	717	San Juan la Laguna	12	San Juan la Laguna	6	Junio	2023-06-25T00:00:00	2024-11-08T23:00:00	1	Precipitación	0
61936	7	Sololá	717	San Juan la Laguna	12	San Juan la Laguna	6	Junio	2023-06-25T00:00:00	2024-11-08T23:00:00	8	Radiación solar	0
61937	7	Sololá	717	San Juan la Laguna	12	San Juan la Laguna	6	Junio	2023-06-26T00:00:00	2024-11-08T00:00:00	2	Temperatura media	19.3
61938	7	Sololá	717	San Juan la Laguna	12	San Juan la Laguna	6	Junio	2023-06-26T00:00:00	2024-11-08T00:00:00	4	Temperatura máxima	20.4
61939	7	Sololá	717	San Juan la Laguna	12	San Juan la Laguna	6	Junio	2023-06-26T00:00:00	2024-11-08T00:00:00	3	Temperatura mínima	19.3
61940	7	Sololá	717	San Juan la Laguna	12	San Juan la Laguna	6	Junio	2023-06-26T00:00:00	2024-11-08T00:00:00	5	Humedad	65
61941	7	Sololá	717	San Juan la Laguna	12	San Juan la Laguna	6	Junio	2023-06-26T00:00:00	2024-11-08T00:00:00	6	Velocidad del viento	1.6
61942	7	Sololá	717	San Juan la Laguna	12	San Juan la Laguna	6	Junio	2023-06-26T00:00:00	2024-11-08T00:00:00	7	Dirección del viento	1.61
61943	7	Sololá	717	San Juan la Laguna	12	San Juan la Laguna	6	Junio	2023-06-26T00:00:00	2024-11-08T00:00:00	1	Precipitación	0
61944	7	Sololá	717	San Juan la Laguna	12	San Juan la Laguna	6	Junio	2023-06-26T00:00:00	2024-11-08T00:00:00	8	Radiación solar	0
61945	7	Sololá	717	San Juan la Laguna	12	San Juan la Laguna	6	Junio	2023-06-26T00:00:00	2024-11-08T01:00:00	2	Temperatura media	16.7
61946	7	Sololá	717	San Juan la Laguna	12	San Juan la Laguna	6	Junio	2023-06-26T00:00:00	2024-11-08T01:00:00	4	Temperatura máxima	19.3
61947	7	Sololá	717	San Juan la Laguna	12	San Juan la Laguna	6	Junio	2023-06-26T00:00:00	2024-11-08T01:00:00	3	Temperatura mínima	16.7
61948	7	Sololá	717	San Juan la Laguna	12	San Juan la Laguna	6	Junio	2023-06-26T00:00:00	2024-11-08T01:00:00	5	Humedad	74
61949	7	Sololá	717	San Juan la Laguna	12	San Juan la Laguna	6	Junio	2023-06-26T00:00:00	2024-11-08T01:00:00	6	Velocidad del viento	0
61950	7	Sololá	717	San Juan la Laguna	12	San Juan la Laguna	6	Junio	2023-06-26T00:00:00	2024-11-08T01:00:00	7	Dirección del viento	0
61951	7	Sololá	717	San Juan la Laguna	12	San Juan la Laguna	6	Junio	2023-06-26T00:00:00	2024-11-08T01:00:00	1	Precipitación	0
61952	7	Sololá	717	San Juan la Laguna	12	San Juan la Laguna	6	Junio	2023-06-26T00:00:00	2024-11-08T01:00:00	8	Radiación solar	0
61953	7	Sololá	717	San Juan la Laguna	12	San Juan la Laguna	6	Junio	2023-06-26T00:00:00	2024-11-08T02:00:00	2	Temperatura media	16.6
61954	7	Sololá	717	San Juan la Laguna	12	San Juan la Laguna	6	Junio	2023-06-26T00:00:00	2024-11-08T02:00:00	4	Temperatura máxima	16.7
61955	7	Sololá	717	San Juan la Laguna	12	San Juan la Laguna	6	Junio	2023-06-26T00:00:00	2024-11-08T02:00:00	3	Temperatura mínima	16.1
61956	7	Sololá	717	San Juan la Laguna	12	San Juan la Laguna	6	Junio	2023-06-26T00:00:00	2024-11-08T02:00:00	5	Humedad	75
61957	7	Sololá	717	San Juan la Laguna	12	San Juan la Laguna	6	Junio	2023-06-26T00:00:00	2024-11-08T02:00:00	6	Velocidad del viento	0
61958	7	Sololá	717	San Juan la Laguna	12	San Juan la Laguna	6	Junio	2023-06-26T00:00:00	2024-11-08T02:00:00	7	Dirección del viento	0
61959	7	Sololá	717	San Juan la Laguna	12	San Juan la Laguna	6	Junio	2023-06-26T00:00:00	2024-11-08T02:00:00	1	Precipitación	0
61960	7	Sololá	717	San Juan la Laguna	12	San Juan la Laguna	6	Junio	2023-06-26T00:00:00	2024-11-08T02:00:00	8	Radiación solar	0
61961	7	Sololá	717	San Juan la Laguna	12	San Juan la Laguna	6	Junio	2023-06-26T00:00:00	2024-11-08T03:00:00	2	Temperatura media	16.1
61962	7	Sololá	717	San Juan la Laguna	12	San Juan la Laguna	6	Junio	2023-06-26T00:00:00	2024-11-08T03:00:00	4	Temperatura máxima	17.1
61963	7	Sololá	717	San Juan la Laguna	12	San Juan la Laguna	6	Junio	2023-06-26T00:00:00	2024-11-08T03:00:00	3	Temperatura mínima	15.9
61964	7	Sololá	717	San Juan la Laguna	12	San Juan la Laguna	6	Junio	2023-06-26T00:00:00	2024-11-08T03:00:00	5	Humedad	76
61965	7	Sololá	717	San Juan la Laguna	12	San Juan la Laguna	6	Junio	2023-06-26T00:00:00	2024-11-08T03:00:00	6	Velocidad del viento	0
61966	7	Sololá	717	San Juan la Laguna	12	San Juan la Laguna	6	Junio	2023-06-26T00:00:00	2024-11-08T03:00:00	7	Dirección del viento	0
61967	7	Sololá	717	San Juan la Laguna	12	San Juan la Laguna	6	Junio	2023-06-26T00:00:00	2024-11-08T03:00:00	1	Precipitación	0
61968	7	Sololá	717	San Juan la Laguna	12	San Juan la Laguna	6	Junio	2023-06-26T00:00:00	2024-11-08T03:00:00	8	Radiación solar	0
61969	7	Sololá	717	San Juan la Laguna	12	San Juan la Laguna	6	Junio	2023-06-26T00:00:00	2024-11-08T04:00:00	2	Temperatura media	15.4
61970	7	Sololá	717	San Juan la Laguna	12	San Juan la Laguna	6	Junio	2023-06-26T00:00:00	2024-11-08T04:00:00	4	Temperatura máxima	16.3
61971	7	Sololá	717	San Juan la Laguna	12	San Juan la Laguna	6	Junio	2023-06-26T00:00:00	2024-11-08T04:00:00	3	Temperatura mínima	15.4
61972	7	Sololá	717	San Juan la Laguna	12	San Juan la Laguna	6	Junio	2023-06-26T00:00:00	2024-11-08T04:00:00	5	Humedad	78
61973	7	Sololá	717	San Juan la Laguna	12	San Juan la Laguna	6	Junio	2023-06-26T00:00:00	2024-11-08T04:00:00	6	Velocidad del viento	0
61974	7	Sololá	717	San Juan la Laguna	12	San Juan la Laguna	6	Junio	2023-06-26T00:00:00	2024-11-08T04:00:00	7	Dirección del viento	0
61975	7	Sololá	717	San Juan la Laguna	12	San Juan la Laguna	6	Junio	2023-06-26T00:00:00	2024-11-08T04:00:00	1	Precipitación	0
61976	7	Sololá	717	San Juan la Laguna	12	San Juan la Laguna	6	Junio	2023-06-26T00:00:00	2024-11-08T04:00:00	8	Radiación solar	0
61977	7	Sololá	717	San Juan la Laguna	12	San Juan la Laguna	6	Junio	2023-06-26T00:00:00	2024-11-08T05:00:00	2	Temperatura media	15.6
61978	7	Sololá	717	San Juan la Laguna	12	San Juan la Laguna	6	Junio	2023-06-26T00:00:00	2024-11-08T05:00:00	4	Temperatura máxima	15.8
61979	7	Sololá	717	San Juan la Laguna	12	San Juan la Laguna	6	Junio	2023-06-26T00:00:00	2024-11-08T05:00:00	3	Temperatura mínima	15.1
61980	7	Sololá	717	San Juan la Laguna	12	San Juan la Laguna	6	Junio	2023-06-26T00:00:00	2024-11-08T05:00:00	5	Humedad	75
61981	7	Sololá	717	San Juan la Laguna	12	San Juan la Laguna	6	Junio	2023-06-26T00:00:00	2024-11-08T05:00:00	6	Velocidad del viento	0
61982	7	Sololá	717	San Juan la Laguna	12	San Juan la Laguna	6	Junio	2023-06-26T00:00:00	2024-11-08T05:00:00	7	Dirección del viento	0
61983	7	Sololá	717	San Juan la Laguna	12	San Juan la Laguna	6	Junio	2023-06-26T00:00:00	2024-11-08T05:00:00	1	Precipitación	0
61984	7	Sololá	717	San Juan la Laguna	12	San Juan la Laguna	6	Junio	2023-06-26T00:00:00	2024-11-08T05:00:00	8	Radiación solar	0
61985	7	Sololá	717	San Juan la Laguna	12	San Juan la Laguna	6	Junio	2023-06-26T00:00:00	2024-11-08T06:00:00	2	Temperatura media	14.7
61986	7	Sololá	717	San Juan la Laguna	12	San Juan la Laguna	6	Junio	2023-06-26T00:00:00	2024-11-08T06:00:00	4	Temperatura máxima	15.6
61987	7	Sololá	717	San Juan la Laguna	12	San Juan la Laguna	6	Junio	2023-06-26T00:00:00	2024-11-08T06:00:00	3	Temperatura mínima	14.6
61988	7	Sololá	717	San Juan la Laguna	12	San Juan la Laguna	6	Junio	2023-06-26T00:00:00	2024-11-08T06:00:00	5	Humedad	76
61989	7	Sololá	717	San Juan la Laguna	12	San Juan la Laguna	6	Junio	2023-06-26T00:00:00	2024-11-08T06:00:00	6	Velocidad del viento	0
61990	7	Sololá	717	San Juan la Laguna	12	San Juan la Laguna	6	Junio	2023-06-26T00:00:00	2024-11-08T06:00:00	7	Dirección del viento	0
61991	7	Sololá	717	San Juan la Laguna	12	San Juan la Laguna	6	Junio	2023-06-26T00:00:00	2024-11-08T06:00:00	1	Precipitación	0
61992	7	Sololá	717	San Juan la Laguna	12	San Juan la Laguna	6	Junio	2023-06-26T00:00:00	2024-11-08T06:00:00	8	Radiación solar	0
61993	7	Sololá	717	San Juan la Laguna	12	San Juan la Laguna	6	Junio	2023-06-26T00:00:00	2024-11-08T07:00:00	2	Temperatura media	16.1
61994	7	Sololá	717	San Juan la Laguna	12	San Juan la Laguna	6	Junio	2023-06-26T00:00:00	2024-11-08T07:00:00	4	Temperatura máxima	16.1
61995	7	Sololá	717	San Juan la Laguna	12	San Juan la Laguna	6	Junio	2023-06-26T00:00:00	2024-11-08T07:00:00	3	Temperatura mínima	14.7
61996	7	Sololá	717	San Juan la Laguna	12	San Juan la Laguna	6	Junio	2023-06-26T00:00:00	2024-11-08T07:00:00	5	Humedad	75
61997	7	Sololá	717	San Juan la Laguna	12	San Juan la Laguna	6	Junio	2023-06-26T00:00:00	2024-11-08T07:00:00	6	Velocidad del viento	0
61998	7	Sololá	717	San Juan la Laguna	12	San Juan la Laguna	6	Junio	2023-06-26T00:00:00	2024-11-08T07:00:00	7	Dirección del viento	0
61999	7	Sololá	717	San Juan la Laguna	12	San Juan la Laguna	6	Junio	2023-06-26T00:00:00	2024-11-08T07:00:00	1	Precipitación	0
62000	7	Sololá	717	San Juan la Laguna	12	San Juan la Laguna	6	Junio	2023-06-26T00:00:00	2024-11-08T07:00:00	8	Radiación solar	89
62001	7	Sololá	717	San Juan la Laguna	12	San Juan la Laguna	6	Junio	2023-06-26T00:00:00	2024-11-08T08:00:00	2	Temperatura media	19.5
62002	7	Sololá	717	San Juan la Laguna	12	San Juan la Laguna	6	Junio	2023-06-26T00:00:00	2024-11-08T08:00:00	4	Temperatura máxima	19.5
62003	7	Sololá	717	San Juan la Laguna	12	San Juan la Laguna	6	Junio	2023-06-26T00:00:00	2024-11-08T08:00:00	3	Temperatura mínima	16.1
62004	7	Sololá	717	San Juan la Laguna	12	San Juan la Laguna	6	Junio	2023-06-26T00:00:00	2024-11-08T08:00:00	5	Humedad	67
62005	7	Sololá	717	San Juan la Laguna	12	San Juan la Laguna	6	Junio	2023-06-26T00:00:00	2024-11-08T08:00:00	6	Velocidad del viento	0
62006	7	Sololá	717	San Juan la Laguna	12	San Juan la Laguna	6	Junio	2023-06-26T00:00:00	2024-11-08T08:00:00	7	Dirección del viento	0
62007	7	Sololá	717	San Juan la Laguna	12	San Juan la Laguna	6	Junio	2023-06-26T00:00:00	2024-11-08T08:00:00	1	Precipitación	0
62008	7	Sololá	717	San Juan la Laguna	12	San Juan la Laguna	6	Junio	2023-06-26T00:00:00	2024-11-08T08:00:00	8	Radiación solar	304
62009	7	Sololá	717	San Juan la Laguna	12	San Juan la Laguna	6	Junio	2023-06-26T00:00:00	2024-11-08T09:00:00	2	Temperatura media	21.9
62010	7	Sololá	717	San Juan la Laguna	12	San Juan la Laguna	6	Junio	2023-06-26T00:00:00	2024-11-08T09:00:00	4	Temperatura máxima	21.9
62011	7	Sololá	717	San Juan la Laguna	12	San Juan la Laguna	6	Junio	2023-06-26T00:00:00	2024-11-08T09:00:00	3	Temperatura mínima	19.5
62012	7	Sololá	717	San Juan la Laguna	12	San Juan la Laguna	6	Junio	2023-06-26T00:00:00	2024-11-08T09:00:00	5	Humedad	60
62013	7	Sololá	717	San Juan la Laguna	12	San Juan la Laguna	6	Junio	2023-06-26T00:00:00	2024-11-08T09:00:00	6	Velocidad del viento	0
62014	7	Sololá	717	San Juan la Laguna	12	San Juan la Laguna	6	Junio	2023-06-26T00:00:00	2024-11-08T09:00:00	7	Dirección del viento	0
62015	7	Sololá	717	San Juan la Laguna	12	San Juan la Laguna	6	Junio	2023-06-26T00:00:00	2024-11-08T09:00:00	1	Precipitación	0
62016	7	Sololá	717	San Juan la Laguna	12	San Juan la Laguna	6	Junio	2023-06-26T00:00:00	2024-11-08T09:00:00	8	Radiación solar	517
62017	7	Sololá	717	San Juan la Laguna	12	San Juan la Laguna	6	Junio	2023-06-26T00:00:00	2024-11-08T10:00:00	2	Temperatura media	22.6
62018	7	Sololá	717	San Juan la Laguna	12	San Juan la Laguna	6	Junio	2023-06-26T00:00:00	2024-11-08T10:00:00	4	Temperatura máxima	22.6
62019	7	Sololá	717	San Juan la Laguna	12	San Juan la Laguna	6	Junio	2023-06-26T00:00:00	2024-11-08T10:00:00	3	Temperatura mínima	21.8
62020	7	Sololá	717	San Juan la Laguna	12	San Juan la Laguna	6	Junio	2023-06-26T00:00:00	2024-11-08T10:00:00	5	Humedad	58
62021	7	Sololá	717	San Juan la Laguna	12	San Juan la Laguna	6	Junio	2023-06-26T00:00:00	2024-11-08T10:00:00	6	Velocidad del viento	0
62022	7	Sololá	717	San Juan la Laguna	12	San Juan la Laguna	6	Junio	2023-06-26T00:00:00	2024-11-08T10:00:00	7	Dirección del viento	0
62023	7	Sololá	717	San Juan la Laguna	12	San Juan la Laguna	6	Junio	2023-06-26T00:00:00	2024-11-08T10:00:00	1	Precipitación	0
62024	7	Sololá	717	San Juan la Laguna	12	San Juan la Laguna	6	Junio	2023-06-26T00:00:00	2024-11-08T10:00:00	8	Radiación solar	727
62025	7	Sololá	717	San Juan la Laguna	12	San Juan la Laguna	6	Junio	2023-06-26T00:00:00	2024-11-08T11:00:00	2	Temperatura media	24.6
62026	7	Sololá	717	San Juan la Laguna	12	San Juan la Laguna	6	Junio	2023-06-26T00:00:00	2024-11-08T11:00:00	4	Temperatura máxima	24.7
62027	7	Sololá	717	San Juan la Laguna	12	San Juan la Laguna	6	Junio	2023-06-26T00:00:00	2024-11-08T11:00:00	3	Temperatura mínima	22.6
62028	7	Sololá	717	San Juan la Laguna	12	San Juan la Laguna	6	Junio	2023-06-26T00:00:00	2024-11-08T11:00:00	5	Humedad	54
62029	7	Sololá	717	San Juan la Laguna	12	San Juan la Laguna	6	Junio	2023-06-26T00:00:00	2024-11-08T11:00:00	6	Velocidad del viento	1.6
62030	7	Sololá	717	San Juan la Laguna	12	San Juan la Laguna	6	Junio	2023-06-26T00:00:00	2024-11-08T11:00:00	7	Dirección del viento	1.61
62031	7	Sololá	717	San Juan la Laguna	12	San Juan la Laguna	6	Junio	2023-06-26T00:00:00	2024-11-08T11:00:00	1	Precipitación	0
62032	7	Sololá	717	San Juan la Laguna	12	San Juan la Laguna	6	Junio	2023-06-26T00:00:00	2024-11-08T11:00:00	8	Radiación solar	867
62033	7	Sololá	717	San Juan la Laguna	12	San Juan la Laguna	6	Junio	2023-06-26T00:00:00	2024-11-08T12:00:00	2	Temperatura media	26.1
62034	7	Sololá	717	San Juan la Laguna	12	San Juan la Laguna	6	Junio	2023-06-26T00:00:00	2024-11-08T12:00:00	4	Temperatura máxima	26.1
62035	7	Sololá	717	San Juan la Laguna	12	San Juan la Laguna	6	Junio	2023-06-26T00:00:00	2024-11-08T12:00:00	3	Temperatura mínima	24.6
62036	7	Sololá	717	San Juan la Laguna	12	San Juan la Laguna	6	Junio	2023-06-26T00:00:00	2024-11-08T12:00:00	5	Humedad	52
62037	7	Sololá	717	San Juan la Laguna	12	San Juan la Laguna	6	Junio	2023-06-26T00:00:00	2024-11-08T12:00:00	6	Velocidad del viento	1.6
62038	7	Sololá	717	San Juan la Laguna	12	San Juan la Laguna	6	Junio	2023-06-26T00:00:00	2024-11-08T12:00:00	7	Dirección del viento	1.61
62039	7	Sololá	717	San Juan la Laguna	12	San Juan la Laguna	6	Junio	2023-06-26T00:00:00	2024-11-08T12:00:00	1	Precipitación	0
62040	7	Sololá	717	San Juan la Laguna	12	San Juan la Laguna	6	Junio	2023-06-26T00:00:00	2024-11-08T12:00:00	8	Radiación solar	870
62041	7	Sololá	717	San Juan la Laguna	12	San Juan la Laguna	6	Junio	2023-06-26T00:00:00	2024-11-08T13:00:00	2	Temperatura media	26.5
62042	7	Sololá	717	San Juan la Laguna	12	San Juan la Laguna	6	Junio	2023-06-26T00:00:00	2024-11-08T13:00:00	4	Temperatura máxima	26.9
62043	7	Sololá	717	San Juan la Laguna	12	San Juan la Laguna	6	Junio	2023-06-26T00:00:00	2024-11-08T13:00:00	3	Temperatura mínima	26.2
62044	7	Sololá	717	San Juan la Laguna	12	San Juan la Laguna	6	Junio	2023-06-26T00:00:00	2024-11-08T13:00:00	5	Humedad	55
62045	7	Sololá	717	San Juan la Laguna	12	San Juan la Laguna	6	Junio	2023-06-26T00:00:00	2024-11-08T13:00:00	6	Velocidad del viento	3.2
62046	7	Sololá	717	San Juan la Laguna	12	San Juan la Laguna	6	Junio	2023-06-26T00:00:00	2024-11-08T13:00:00	7	Dirección del viento	3.22
62047	7	Sololá	717	San Juan la Laguna	12	San Juan la Laguna	6	Junio	2023-06-26T00:00:00	2024-11-08T13:00:00	1	Precipitación	0
62048	7	Sololá	717	San Juan la Laguna	12	San Juan la Laguna	6	Junio	2023-06-26T00:00:00	2024-11-08T13:00:00	8	Radiación solar	583
62049	7	Sololá	717	San Juan la Laguna	12	San Juan la Laguna	6	Junio	2023-06-26T00:00:00	2024-11-08T14:00:00	2	Temperatura media	26.6
62050	7	Sololá	717	San Juan la Laguna	12	San Juan la Laguna	6	Junio	2023-06-26T00:00:00	2024-11-08T14:00:00	4	Temperatura máxima	26.6
62051	7	Sololá	717	San Juan la Laguna	12	San Juan la Laguna	6	Junio	2023-06-26T00:00:00	2024-11-08T14:00:00	3	Temperatura mínima	25.9
62052	7	Sololá	717	San Juan la Laguna	12	San Juan la Laguna	6	Junio	2023-06-26T00:00:00	2024-11-08T14:00:00	5	Humedad	57
62053	7	Sololá	717	San Juan la Laguna	12	San Juan la Laguna	6	Junio	2023-06-26T00:00:00	2024-11-08T14:00:00	6	Velocidad del viento	4.8
62054	7	Sololá	717	San Juan la Laguna	12	San Juan la Laguna	6	Junio	2023-06-26T00:00:00	2024-11-08T14:00:00	7	Dirección del viento	4.83
62055	7	Sololá	717	San Juan la Laguna	12	San Juan la Laguna	6	Junio	2023-06-26T00:00:00	2024-11-08T14:00:00	1	Precipitación	0
62056	7	Sololá	717	San Juan la Laguna	12	San Juan la Laguna	6	Junio	2023-06-26T00:00:00	2024-11-08T14:00:00	8	Radiación solar	625
62057	7	Sololá	717	San Juan la Laguna	12	San Juan la Laguna	6	Junio	2023-06-26T00:00:00	2024-11-08T15:00:00	2	Temperatura media	26.2
62058	7	Sololá	717	San Juan la Laguna	12	San Juan la Laguna	6	Junio	2023-06-26T00:00:00	2024-11-08T15:00:00	4	Temperatura máxima	26.8
62059	7	Sololá	717	San Juan la Laguna	12	San Juan la Laguna	6	Junio	2023-06-26T00:00:00	2024-11-08T15:00:00	3	Temperatura mínima	26
62060	7	Sololá	717	San Juan la Laguna	12	San Juan la Laguna	6	Junio	2023-06-26T00:00:00	2024-11-08T15:00:00	5	Humedad	56
62061	7	Sololá	717	San Juan la Laguna	12	San Juan la Laguna	6	Junio	2023-06-26T00:00:00	2024-11-08T15:00:00	6	Velocidad del viento	4.8
62062	7	Sololá	717	San Juan la Laguna	12	San Juan la Laguna	6	Junio	2023-06-26T00:00:00	2024-11-08T15:00:00	7	Dirección del viento	4.83
62063	7	Sololá	717	San Juan la Laguna	12	San Juan la Laguna	6	Junio	2023-06-26T00:00:00	2024-11-08T15:00:00	1	Precipitación	0
62064	7	Sololá	717	San Juan la Laguna	12	San Juan la Laguna	6	Junio	2023-06-26T00:00:00	2024-11-08T15:00:00	8	Radiación solar	576
62065	7	Sololá	717	San Juan la Laguna	12	San Juan la Laguna	6	Junio	2023-06-26T00:00:00	2024-11-08T16:00:00	2	Temperatura media	27.1
62066	7	Sololá	717	San Juan la Laguna	12	San Juan la Laguna	6	Junio	2023-06-26T00:00:00	2024-11-08T16:00:00	4	Temperatura máxima	27.4
62067	7	Sololá	717	San Juan la Laguna	12	San Juan la Laguna	6	Junio	2023-06-26T00:00:00	2024-11-08T16:00:00	3	Temperatura mínima	26.2
62068	7	Sololá	717	San Juan la Laguna	12	San Juan la Laguna	6	Junio	2023-06-26T00:00:00	2024-11-08T16:00:00	5	Humedad	56
62069	7	Sololá	717	San Juan la Laguna	12	San Juan la Laguna	6	Junio	2023-06-26T00:00:00	2024-11-08T16:00:00	6	Velocidad del viento	1.6
62070	7	Sololá	717	San Juan la Laguna	12	San Juan la Laguna	6	Junio	2023-06-26T00:00:00	2024-11-08T16:00:00	7	Dirección del viento	1.61
62071	7	Sololá	717	San Juan la Laguna	12	San Juan la Laguna	6	Junio	2023-06-26T00:00:00	2024-11-08T16:00:00	1	Precipitación	0
62072	7	Sololá	717	San Juan la Laguna	12	San Juan la Laguna	6	Junio	2023-06-26T00:00:00	2024-11-08T16:00:00	8	Radiación solar	235
62073	7	Sololá	717	San Juan la Laguna	12	San Juan la Laguna	6	Junio	2023-06-26T00:00:00	2024-11-08T17:00:00	2	Temperatura media	23.8
62074	7	Sololá	717	San Juan la Laguna	12	San Juan la Laguna	6	Junio	2023-06-26T00:00:00	2024-11-08T17:00:00	4	Temperatura máxima	27.1
62075	7	Sololá	717	San Juan la Laguna	12	San Juan la Laguna	6	Junio	2023-06-26T00:00:00	2024-11-08T17:00:00	3	Temperatura mínima	23.8
62076	7	Sololá	717	San Juan la Laguna	12	San Juan la Laguna	6	Junio	2023-06-26T00:00:00	2024-11-08T17:00:00	5	Humedad	70
62077	7	Sololá	717	San Juan la Laguna	12	San Juan la Laguna	6	Junio	2023-06-26T00:00:00	2024-11-08T17:00:00	6	Velocidad del viento	4.8
62078	7	Sololá	717	San Juan la Laguna	12	San Juan la Laguna	6	Junio	2023-06-26T00:00:00	2024-11-08T17:00:00	7	Dirección del viento	4.83
62079	7	Sololá	717	San Juan la Laguna	12	San Juan la Laguna	6	Junio	2023-06-26T00:00:00	2024-11-08T17:00:00	1	Precipitación	0
62080	7	Sololá	717	San Juan la Laguna	12	San Juan la Laguna	6	Junio	2023-06-26T00:00:00	2024-11-08T17:00:00	8	Radiación solar	126
62081	7	Sololá	717	San Juan la Laguna	12	San Juan la Laguna	6	Junio	2023-06-26T00:00:00	2024-11-08T18:00:00	2	Temperatura media	22.1
62082	7	Sololá	717	San Juan la Laguna	12	San Juan la Laguna	6	Junio	2023-06-26T00:00:00	2024-11-08T18:00:00	4	Temperatura máxima	23.7
62083	7	Sololá	717	San Juan la Laguna	12	San Juan la Laguna	6	Junio	2023-06-26T00:00:00	2024-11-08T18:00:00	3	Temperatura mínima	22
62084	7	Sololá	717	San Juan la Laguna	12	San Juan la Laguna	6	Junio	2023-06-26T00:00:00	2024-11-08T18:00:00	5	Humedad	76
62085	7	Sololá	717	San Juan la Laguna	12	San Juan la Laguna	6	Junio	2023-06-26T00:00:00	2024-11-08T18:00:00	6	Velocidad del viento	3.2
62086	7	Sololá	717	San Juan la Laguna	12	San Juan la Laguna	6	Junio	2023-06-26T00:00:00	2024-11-08T18:00:00	7	Dirección del viento	3.22
62087	7	Sololá	717	San Juan la Laguna	12	San Juan la Laguna	6	Junio	2023-06-26T00:00:00	2024-11-08T18:00:00	1	Precipitación	0
62088	7	Sololá	717	San Juan la Laguna	12	San Juan la Laguna	6	Junio	2023-06-26T00:00:00	2024-11-08T18:00:00	8	Radiación solar	32
62089	7	Sololá	717	San Juan la Laguna	12	San Juan la Laguna	6	Junio	2023-06-26T00:00:00	2024-11-08T19:00:00	2	Temperatura media	21.3
62090	7	Sololá	717	San Juan la Laguna	12	San Juan la Laguna	6	Junio	2023-06-26T00:00:00	2024-11-08T19:00:00	4	Temperatura máxima	22.2
62091	7	Sololá	717	San Juan la Laguna	12	San Juan la Laguna	6	Junio	2023-06-26T00:00:00	2024-11-08T19:00:00	3	Temperatura mínima	21.3
62092	7	Sololá	717	San Juan la Laguna	12	San Juan la Laguna	6	Junio	2023-06-26T00:00:00	2024-11-08T19:00:00	5	Humedad	78
62093	7	Sololá	717	San Juan la Laguna	12	San Juan la Laguna	6	Junio	2023-06-26T00:00:00	2024-11-08T19:00:00	6	Velocidad del viento	0
62094	7	Sololá	717	San Juan la Laguna	12	San Juan la Laguna	6	Junio	2023-06-26T00:00:00	2024-11-08T19:00:00	7	Dirección del viento	0
62095	7	Sololá	717	San Juan la Laguna	12	San Juan la Laguna	6	Junio	2023-06-26T00:00:00	2024-11-08T19:00:00	1	Precipitación	0
62096	7	Sololá	717	San Juan la Laguna	12	San Juan la Laguna	6	Junio	2023-06-26T00:00:00	2024-11-08T19:00:00	8	Radiación solar	0
62097	7	Sololá	717	San Juan la Laguna	12	San Juan la Laguna	6	Junio	2023-06-26T00:00:00	2024-11-08T20:00:00	2	Temperatura media	20.4
62098	7	Sololá	717	San Juan la Laguna	12	San Juan la Laguna	6	Junio	2023-06-26T00:00:00	2024-11-08T20:00:00	4	Temperatura máxima	21.3
62099	7	Sololá	717	San Juan la Laguna	12	San Juan la Laguna	6	Junio	2023-06-26T00:00:00	2024-11-08T20:00:00	3	Temperatura mínima	20.4
62100	7	Sololá	717	San Juan la Laguna	12	San Juan la Laguna	6	Junio	2023-06-26T00:00:00	2024-11-08T20:00:00	5	Humedad	82
62101	7	Sololá	717	San Juan la Laguna	12	San Juan la Laguna	6	Junio	2023-06-26T00:00:00	2024-11-08T20:00:00	6	Velocidad del viento	0
62102	7	Sololá	717	San Juan la Laguna	12	San Juan la Laguna	6	Junio	2023-06-26T00:00:00	2024-11-08T20:00:00	7	Dirección del viento	0
62103	7	Sololá	717	San Juan la Laguna	12	San Juan la Laguna	6	Junio	2023-06-26T00:00:00	2024-11-08T20:00:00	1	Precipitación	0
62104	7	Sololá	717	San Juan la Laguna	12	San Juan la Laguna	6	Junio	2023-06-26T00:00:00	2024-11-08T20:00:00	8	Radiación solar	0
62105	7	Sololá	717	San Juan la Laguna	12	San Juan la Laguna	6	Junio	2023-06-26T00:00:00	2024-11-08T21:00:00	2	Temperatura media	19.8
62106	7	Sololá	717	San Juan la Laguna	12	San Juan la Laguna	6	Junio	2023-06-26T00:00:00	2024-11-08T21:00:00	4	Temperatura máxima	20.4
62107	7	Sololá	717	San Juan la Laguna	12	San Juan la Laguna	6	Junio	2023-06-26T00:00:00	2024-11-08T21:00:00	3	Temperatura mínima	19.7
62108	7	Sololá	717	San Juan la Laguna	12	San Juan la Laguna	6	Junio	2023-06-26T00:00:00	2024-11-08T21:00:00	5	Humedad	85
62109	7	Sololá	717	San Juan la Laguna	12	San Juan la Laguna	6	Junio	2023-06-26T00:00:00	2024-11-08T21:00:00	6	Velocidad del viento	0
62110	7	Sololá	717	San Juan la Laguna	12	San Juan la Laguna	6	Junio	2023-06-26T00:00:00	2024-11-08T21:00:00	7	Dirección del viento	0
62111	7	Sololá	717	San Juan la Laguna	12	San Juan la Laguna	6	Junio	2023-06-26T00:00:00	2024-11-08T21:00:00	1	Precipitación	0
62112	7	Sololá	717	San Juan la Laguna	12	San Juan la Laguna	6	Junio	2023-06-26T00:00:00	2024-11-08T21:00:00	8	Radiación solar	0
62113	7	Sololá	717	San Juan la Laguna	12	San Juan la Laguna	6	Junio	2023-06-26T00:00:00	2024-11-08T22:00:00	2	Temperatura media	19.7
62114	7	Sololá	717	San Juan la Laguna	12	San Juan la Laguna	6	Junio	2023-06-26T00:00:00	2024-11-08T22:00:00	4	Temperatura máxima	19.8
62115	7	Sololá	717	San Juan la Laguna	12	San Juan la Laguna	6	Junio	2023-06-26T00:00:00	2024-11-08T22:00:00	3	Temperatura mínima	19.3
62116	7	Sololá	717	San Juan la Laguna	12	San Juan la Laguna	6	Junio	2023-06-26T00:00:00	2024-11-08T22:00:00	5	Humedad	80
62117	7	Sololá	717	San Juan la Laguna	12	San Juan la Laguna	6	Junio	2023-06-26T00:00:00	2024-11-08T22:00:00	6	Velocidad del viento	0
62118	7	Sololá	717	San Juan la Laguna	12	San Juan la Laguna	6	Junio	2023-06-26T00:00:00	2024-11-08T22:00:00	7	Dirección del viento	0
62119	7	Sololá	717	San Juan la Laguna	12	San Juan la Laguna	6	Junio	2023-06-26T00:00:00	2024-11-08T22:00:00	1	Precipitación	0
62120	7	Sololá	717	San Juan la Laguna	12	San Juan la Laguna	6	Junio	2023-06-26T00:00:00	2024-11-08T22:00:00	8	Radiación solar	0
62121	7	Sololá	717	San Juan la Laguna	12	San Juan la Laguna	6	Junio	2023-06-26T00:00:00	2024-11-08T23:00:00	2	Temperatura media	21.3
62122	7	Sololá	717	San Juan la Laguna	12	San Juan la Laguna	6	Junio	2023-06-26T00:00:00	2024-11-08T23:00:00	4	Temperatura máxima	21.3
62123	7	Sololá	717	San Juan la Laguna	12	San Juan la Laguna	6	Junio	2023-06-26T00:00:00	2024-11-08T23:00:00	3	Temperatura mínima	19.7
62124	7	Sololá	717	San Juan la Laguna	12	San Juan la Laguna	6	Junio	2023-06-26T00:00:00	2024-11-08T23:00:00	5	Humedad	66
62125	7	Sololá	717	San Juan la Laguna	12	San Juan la Laguna	6	Junio	2023-06-26T00:00:00	2024-11-08T23:00:00	6	Velocidad del viento	4.8
62126	7	Sololá	717	San Juan la Laguna	12	San Juan la Laguna	6	Junio	2023-06-26T00:00:00	2024-11-08T23:00:00	7	Dirección del viento	4.83
62127	7	Sololá	717	San Juan la Laguna	12	San Juan la Laguna	6	Junio	2023-06-26T00:00:00	2024-11-08T23:00:00	1	Precipitación	0
62128	7	Sololá	717	San Juan la Laguna	12	San Juan la Laguna	6	Junio	2023-06-26T00:00:00	2024-11-08T23:00:00	8	Radiación solar	0
62129	7	Sololá	717	San Juan la Laguna	12	San Juan la Laguna	6	Junio	2023-06-27T00:00:00	2024-11-08T00:00:00	2	Temperatura media	21.2
62130	7	Sololá	717	San Juan la Laguna	12	San Juan la Laguna	6	Junio	2023-06-27T00:00:00	2024-11-08T00:00:00	4	Temperatura máxima	21.3
62131	7	Sololá	717	San Juan la Laguna	12	San Juan la Laguna	6	Junio	2023-06-27T00:00:00	2024-11-08T00:00:00	3	Temperatura mínima	21.1
62132	7	Sololá	717	San Juan la Laguna	12	San Juan la Laguna	6	Junio	2023-06-27T00:00:00	2024-11-08T00:00:00	5	Humedad	67
62133	7	Sololá	717	San Juan la Laguna	12	San Juan la Laguna	6	Junio	2023-06-27T00:00:00	2024-11-08T00:00:00	6	Velocidad del viento	6.4
62134	7	Sololá	717	San Juan la Laguna	12	San Juan la Laguna	6	Junio	2023-06-27T00:00:00	2024-11-08T00:00:00	7	Dirección del viento	6.44
62135	7	Sololá	717	San Juan la Laguna	12	San Juan la Laguna	6	Junio	2023-06-27T00:00:00	2024-11-08T00:00:00	1	Precipitación	0
62136	7	Sololá	717	San Juan la Laguna	12	San Juan la Laguna	6	Junio	2023-06-27T00:00:00	2024-11-08T00:00:00	8	Radiación solar	0
62137	7	Sololá	717	San Juan la Laguna	12	San Juan la Laguna	6	Junio	2023-06-27T00:00:00	2024-11-08T01:00:00	2	Temperatura media	20.6
62138	7	Sololá	717	San Juan la Laguna	12	San Juan la Laguna	6	Junio	2023-06-27T00:00:00	2024-11-08T01:00:00	4	Temperatura máxima	21.3
62139	7	Sololá	717	San Juan la Laguna	12	San Juan la Laguna	6	Junio	2023-06-27T00:00:00	2024-11-08T01:00:00	3	Temperatura mínima	20.5
62140	7	Sololá	717	San Juan la Laguna	12	San Juan la Laguna	6	Junio	2023-06-27T00:00:00	2024-11-08T01:00:00	5	Humedad	69
62141	7	Sololá	717	San Juan la Laguna	12	San Juan la Laguna	6	Junio	2023-06-27T00:00:00	2024-11-08T01:00:00	6	Velocidad del viento	3.2
62142	7	Sololá	717	San Juan la Laguna	12	San Juan la Laguna	6	Junio	2023-06-27T00:00:00	2024-11-08T01:00:00	7	Dirección del viento	3.22
62143	7	Sololá	717	San Juan la Laguna	12	San Juan la Laguna	6	Junio	2023-06-27T00:00:00	2024-11-08T01:00:00	1	Precipitación	0
62144	7	Sololá	717	San Juan la Laguna	12	San Juan la Laguna	6	Junio	2023-06-27T00:00:00	2024-11-08T01:00:00	8	Radiación solar	0
62145	7	Sololá	717	San Juan la Laguna	12	San Juan la Laguna	6	Junio	2023-06-27T00:00:00	2024-11-08T02:00:00	2	Temperatura media	20.8
62146	7	Sololá	717	San Juan la Laguna	12	San Juan la Laguna	6	Junio	2023-06-27T00:00:00	2024-11-08T02:00:00	4	Temperatura máxima	21
62147	7	Sololá	717	San Juan la Laguna	12	San Juan la Laguna	6	Junio	2023-06-27T00:00:00	2024-11-08T02:00:00	3	Temperatura mínima	19.9
62148	7	Sololá	717	San Juan la Laguna	12	San Juan la Laguna	6	Junio	2023-06-27T00:00:00	2024-11-08T02:00:00	5	Humedad	69
62149	7	Sololá	717	San Juan la Laguna	12	San Juan la Laguna	6	Junio	2023-06-27T00:00:00	2024-11-08T02:00:00	6	Velocidad del viento	3.2
62150	7	Sololá	717	San Juan la Laguna	12	San Juan la Laguna	6	Junio	2023-06-27T00:00:00	2024-11-08T02:00:00	7	Dirección del viento	3.22
62151	7	Sololá	717	San Juan la Laguna	12	San Juan la Laguna	6	Junio	2023-06-27T00:00:00	2024-11-08T02:00:00	1	Precipitación	0
62152	7	Sololá	717	San Juan la Laguna	12	San Juan la Laguna	6	Junio	2023-06-27T00:00:00	2024-11-08T02:00:00	8	Radiación solar	0
62153	7	Sololá	717	San Juan la Laguna	12	San Juan la Laguna	6	Junio	2023-06-27T00:00:00	2024-11-08T03:00:00	2	Temperatura media	20.1
62154	7	Sololá	717	San Juan la Laguna	12	San Juan la Laguna	6	Junio	2023-06-27T00:00:00	2024-11-08T03:00:00	4	Temperatura máxima	20.8
62155	7	Sololá	717	San Juan la Laguna	12	San Juan la Laguna	6	Junio	2023-06-27T00:00:00	2024-11-08T03:00:00	3	Temperatura mínima	20.1
62156	7	Sololá	717	San Juan la Laguna	12	San Juan la Laguna	6	Junio	2023-06-27T00:00:00	2024-11-08T03:00:00	5	Humedad	71
62157	7	Sololá	717	San Juan la Laguna	12	San Juan la Laguna	6	Junio	2023-06-27T00:00:00	2024-11-08T03:00:00	6	Velocidad del viento	1.6
62158	7	Sololá	717	San Juan la Laguna	12	San Juan la Laguna	6	Junio	2023-06-27T00:00:00	2024-11-08T03:00:00	7	Dirección del viento	1.61
62159	7	Sololá	717	San Juan la Laguna	12	San Juan la Laguna	6	Junio	2023-06-27T00:00:00	2024-11-08T03:00:00	1	Precipitación	0
62160	7	Sololá	717	San Juan la Laguna	12	San Juan la Laguna	6	Junio	2023-06-27T00:00:00	2024-11-08T03:00:00	8	Radiación solar	0
62161	7	Sololá	717	San Juan la Laguna	12	San Juan la Laguna	6	Junio	2023-06-27T00:00:00	2024-11-08T04:00:00	2	Temperatura media	19.1
62162	7	Sololá	717	San Juan la Laguna	12	San Juan la Laguna	6	Junio	2023-06-27T00:00:00	2024-11-08T04:00:00	4	Temperatura máxima	20.1
62163	7	Sololá	717	San Juan la Laguna	12	San Juan la Laguna	6	Junio	2023-06-27T00:00:00	2024-11-08T04:00:00	3	Temperatura mínima	19
62164	7	Sololá	717	San Juan la Laguna	12	San Juan la Laguna	6	Junio	2023-06-27T00:00:00	2024-11-08T04:00:00	5	Humedad	73
62165	7	Sololá	717	San Juan la Laguna	12	San Juan la Laguna	6	Junio	2023-06-27T00:00:00	2024-11-08T04:00:00	6	Velocidad del viento	0
62166	7	Sololá	717	San Juan la Laguna	12	San Juan la Laguna	6	Junio	2023-06-27T00:00:00	2024-11-08T04:00:00	7	Dirección del viento	0
62167	7	Sololá	717	San Juan la Laguna	12	San Juan la Laguna	6	Junio	2023-06-27T00:00:00	2024-11-08T04:00:00	1	Precipitación	0
62168	7	Sololá	717	San Juan la Laguna	12	San Juan la Laguna	6	Junio	2023-06-27T00:00:00	2024-11-08T04:00:00	8	Radiación solar	0
62169	7	Sololá	717	San Juan la Laguna	12	San Juan la Laguna	6	Junio	2023-06-27T00:00:00	2024-11-08T05:00:00	2	Temperatura media	19.4
62170	7	Sololá	717	San Juan la Laguna	12	San Juan la Laguna	6	Junio	2023-06-27T00:00:00	2024-11-08T05:00:00	4	Temperatura máxima	20.7
62171	7	Sololá	717	San Juan la Laguna	12	San Juan la Laguna	6	Junio	2023-06-27T00:00:00	2024-11-08T05:00:00	3	Temperatura mínima	19.1
62172	7	Sololá	717	San Juan la Laguna	12	San Juan la Laguna	6	Junio	2023-06-27T00:00:00	2024-11-08T05:00:00	5	Humedad	71
62173	7	Sololá	717	San Juan la Laguna	12	San Juan la Laguna	6	Junio	2023-06-27T00:00:00	2024-11-08T05:00:00	6	Velocidad del viento	1.6
62174	7	Sololá	717	San Juan la Laguna	12	San Juan la Laguna	6	Junio	2023-06-27T00:00:00	2024-11-08T05:00:00	7	Dirección del viento	1.61
62175	7	Sololá	717	San Juan la Laguna	12	San Juan la Laguna	6	Junio	2023-06-27T00:00:00	2024-11-08T05:00:00	1	Precipitación	0
62176	7	Sololá	717	San Juan la Laguna	12	San Juan la Laguna	6	Junio	2023-06-27T00:00:00	2024-11-08T05:00:00	8	Radiación solar	0
62177	7	Sololá	717	San Juan la Laguna	12	San Juan la Laguna	6	Junio	2023-06-27T00:00:00	2024-11-08T06:00:00	2	Temperatura media	17.8
62178	7	Sololá	717	San Juan la Laguna	12	San Juan la Laguna	6	Junio	2023-06-27T00:00:00	2024-11-08T06:00:00	4	Temperatura máxima	19.5
62179	7	Sololá	717	San Juan la Laguna	12	San Juan la Laguna	6	Junio	2023-06-27T00:00:00	2024-11-08T06:00:00	3	Temperatura mínima	17.8
62180	7	Sololá	717	San Juan la Laguna	12	San Juan la Laguna	6	Junio	2023-06-27T00:00:00	2024-11-08T06:00:00	5	Humedad	79
62181	7	Sololá	717	San Juan la Laguna	12	San Juan la Laguna	6	Junio	2023-06-27T00:00:00	2024-11-08T06:00:00	6	Velocidad del viento	0
62182	7	Sololá	717	San Juan la Laguna	12	San Juan la Laguna	6	Junio	2023-06-27T00:00:00	2024-11-08T06:00:00	7	Dirección del viento	0
62183	7	Sololá	717	San Juan la Laguna	12	San Juan la Laguna	6	Junio	2023-06-27T00:00:00	2024-11-08T06:00:00	1	Precipitación	0
62184	7	Sololá	717	San Juan la Laguna	12	San Juan la Laguna	6	Junio	2023-06-27T00:00:00	2024-11-08T06:00:00	8	Radiación solar	0
62185	7	Sololá	717	San Juan la Laguna	12	San Juan la Laguna	6	Junio	2023-06-27T00:00:00	2024-11-08T07:00:00	2	Temperatura media	18.9
62186	7	Sololá	717	San Juan la Laguna	12	San Juan la Laguna	6	Junio	2023-06-27T00:00:00	2024-11-08T07:00:00	4	Temperatura máxima	18.9
62187	7	Sololá	717	San Juan la Laguna	12	San Juan la Laguna	6	Junio	2023-06-27T00:00:00	2024-11-08T07:00:00	3	Temperatura mínima	17.5
62188	7	Sololá	717	San Juan la Laguna	12	San Juan la Laguna	6	Junio	2023-06-27T00:00:00	2024-11-08T07:00:00	5	Humedad	77
62189	7	Sololá	717	San Juan la Laguna	12	San Juan la Laguna	6	Junio	2023-06-27T00:00:00	2024-11-08T07:00:00	6	Velocidad del viento	0
62190	7	Sololá	717	San Juan la Laguna	12	San Juan la Laguna	6	Junio	2023-06-27T00:00:00	2024-11-08T07:00:00	7	Dirección del viento	0
62191	7	Sololá	717	San Juan la Laguna	12	San Juan la Laguna	6	Junio	2023-06-27T00:00:00	2024-11-08T07:00:00	1	Precipitación	0
62192	7	Sololá	717	San Juan la Laguna	12	San Juan la Laguna	6	Junio	2023-06-27T00:00:00	2024-11-08T07:00:00	8	Radiación solar	76
62193	7	Sololá	717	San Juan la Laguna	12	San Juan la Laguna	6	Junio	2023-06-27T00:00:00	2024-11-08T08:00:00	2	Temperatura media	22.3
62194	7	Sololá	717	San Juan la Laguna	12	San Juan la Laguna	6	Junio	2023-06-27T00:00:00	2024-11-08T08:00:00	4	Temperatura máxima	22.3
62195	7	Sololá	717	San Juan la Laguna	12	San Juan la Laguna	6	Junio	2023-06-27T00:00:00	2024-11-08T08:00:00	3	Temperatura mínima	18.9
62196	7	Sololá	717	San Juan la Laguna	12	San Juan la Laguna	6	Junio	2023-06-27T00:00:00	2024-11-08T08:00:00	5	Humedad	61
62197	7	Sololá	717	San Juan la Laguna	12	San Juan la Laguna	6	Junio	2023-06-27T00:00:00	2024-11-08T08:00:00	6	Velocidad del viento	0
62198	7	Sololá	717	San Juan la Laguna	12	San Juan la Laguna	6	Junio	2023-06-27T00:00:00	2024-11-08T08:00:00	7	Dirección del viento	0
62199	7	Sololá	717	San Juan la Laguna	12	San Juan la Laguna	6	Junio	2023-06-27T00:00:00	2024-11-08T08:00:00	1	Precipitación	0
62200	7	Sololá	717	San Juan la Laguna	12	San Juan la Laguna	6	Junio	2023-06-27T00:00:00	2024-11-08T08:00:00	8	Radiación solar	277
62201	7	Sololá	717	San Juan la Laguna	12	San Juan la Laguna	6	Junio	2023-06-27T00:00:00	2024-11-08T09:00:00	2	Temperatura media	23.7
62202	7	Sololá	717	San Juan la Laguna	12	San Juan la Laguna	6	Junio	2023-06-27T00:00:00	2024-11-08T09:00:00	4	Temperatura máxima	23.7
62203	7	Sololá	717	San Juan la Laguna	12	San Juan la Laguna	6	Junio	2023-06-27T00:00:00	2024-11-08T09:00:00	3	Temperatura mínima	22.3
62204	7	Sololá	717	San Juan la Laguna	12	San Juan la Laguna	6	Junio	2023-06-27T00:00:00	2024-11-08T09:00:00	5	Humedad	57
62205	7	Sololá	717	San Juan la Laguna	12	San Juan la Laguna	6	Junio	2023-06-27T00:00:00	2024-11-08T09:00:00	6	Velocidad del viento	6.4
62206	7	Sololá	717	San Juan la Laguna	12	San Juan la Laguna	6	Junio	2023-06-27T00:00:00	2024-11-08T09:00:00	7	Dirección del viento	6.44
62207	7	Sololá	717	San Juan la Laguna	12	San Juan la Laguna	6	Junio	2023-06-27T00:00:00	2024-11-08T09:00:00	1	Precipitación	0
62208	7	Sololá	717	San Juan la Laguna	12	San Juan la Laguna	6	Junio	2023-06-27T00:00:00	2024-11-08T09:00:00	8	Radiación solar	507
62209	7	Sololá	717	San Juan la Laguna	12	San Juan la Laguna	6	Junio	2023-06-27T00:00:00	2024-11-08T10:00:00	2	Temperatura media	24.3
62210	7	Sololá	717	San Juan la Laguna	12	San Juan la Laguna	6	Junio	2023-06-27T00:00:00	2024-11-08T10:00:00	4	Temperatura máxima	25
62211	7	Sololá	717	San Juan la Laguna	12	San Juan la Laguna	6	Junio	2023-06-27T00:00:00	2024-11-08T10:00:00	3	Temperatura mínima	23.8
62212	7	Sololá	717	San Juan la Laguna	12	San Juan la Laguna	6	Junio	2023-06-27T00:00:00	2024-11-08T10:00:00	5	Humedad	58
62213	7	Sololá	717	San Juan la Laguna	12	San Juan la Laguna	6	Junio	2023-06-27T00:00:00	2024-11-08T10:00:00	6	Velocidad del viento	3.2
62214	7	Sololá	717	San Juan la Laguna	12	San Juan la Laguna	6	Junio	2023-06-27T00:00:00	2024-11-08T10:00:00	7	Dirección del viento	3.22
62215	7	Sololá	717	San Juan la Laguna	12	San Juan la Laguna	6	Junio	2023-06-27T00:00:00	2024-11-08T10:00:00	1	Precipitación	0
62216	7	Sololá	717	San Juan la Laguna	12	San Juan la Laguna	6	Junio	2023-06-27T00:00:00	2024-11-08T10:00:00	8	Radiación solar	706
62217	7	Sololá	717	San Juan la Laguna	12	San Juan la Laguna	6	Junio	2023-06-27T00:00:00	2024-11-08T11:00:00	2	Temperatura media	23.6
62218	7	Sololá	717	San Juan la Laguna	12	San Juan la Laguna	6	Junio	2023-06-27T00:00:00	2024-11-08T11:00:00	4	Temperatura máxima	24.3
62219	7	Sololá	717	San Juan la Laguna	12	San Juan la Laguna	6	Junio	2023-06-27T00:00:00	2024-11-08T11:00:00	3	Temperatura mínima	22.7
62220	7	Sololá	717	San Juan la Laguna	12	San Juan la Laguna	6	Junio	2023-06-27T00:00:00	2024-11-08T11:00:00	5	Humedad	64
62221	7	Sololá	717	San Juan la Laguna	12	San Juan la Laguna	6	Junio	2023-06-27T00:00:00	2024-11-08T11:00:00	6	Velocidad del viento	3.2
62222	7	Sololá	717	San Juan la Laguna	12	San Juan la Laguna	6	Junio	2023-06-27T00:00:00	2024-11-08T11:00:00	7	Dirección del viento	3.22
62223	7	Sololá	717	San Juan la Laguna	12	San Juan la Laguna	6	Junio	2023-06-27T00:00:00	2024-11-08T11:00:00	1	Precipitación	0
62224	7	Sololá	717	San Juan la Laguna	12	San Juan la Laguna	6	Junio	2023-06-27T00:00:00	2024-11-08T11:00:00	8	Radiación solar	858
62225	7	Sololá	717	San Juan la Laguna	12	San Juan la Laguna	6	Junio	2023-06-27T00:00:00	2024-11-08T12:00:00	2	Temperatura media	22.4
62226	7	Sololá	717	San Juan la Laguna	12	San Juan la Laguna	6	Junio	2023-06-27T00:00:00	2024-11-08T12:00:00	4	Temperatura máxima	23.6
62227	7	Sololá	717	San Juan la Laguna	12	San Juan la Laguna	6	Junio	2023-06-27T00:00:00	2024-11-08T12:00:00	3	Temperatura mínima	22.4
62228	7	Sololá	717	San Juan la Laguna	12	San Juan la Laguna	6	Junio	2023-06-27T00:00:00	2024-11-08T12:00:00	5	Humedad	71
62229	7	Sololá	717	San Juan la Laguna	12	San Juan la Laguna	6	Junio	2023-06-27T00:00:00	2024-11-08T12:00:00	6	Velocidad del viento	3.2
62230	7	Sololá	717	San Juan la Laguna	12	San Juan la Laguna	6	Junio	2023-06-27T00:00:00	2024-11-08T12:00:00	7	Dirección del viento	3.22
62231	7	Sololá	717	San Juan la Laguna	12	San Juan la Laguna	6	Junio	2023-06-27T00:00:00	2024-11-08T12:00:00	1	Precipitación	0
62232	7	Sololá	717	San Juan la Laguna	12	San Juan la Laguna	6	Junio	2023-06-27T00:00:00	2024-11-08T12:00:00	8	Radiación solar	976
62233	7	Sololá	717	San Juan la Laguna	12	San Juan la Laguna	6	Junio	2023-06-27T00:00:00	2024-11-08T13:00:00	2	Temperatura media	22.8
62234	7	Sololá	717	San Juan la Laguna	12	San Juan la Laguna	6	Junio	2023-06-27T00:00:00	2024-11-08T13:00:00	4	Temperatura máxima	22.8
62235	7	Sololá	717	San Juan la Laguna	12	San Juan la Laguna	6	Junio	2023-06-27T00:00:00	2024-11-08T13:00:00	3	Temperatura mínima	22.3
62236	7	Sololá	717	San Juan la Laguna	12	San Juan la Laguna	6	Junio	2023-06-27T00:00:00	2024-11-08T13:00:00	5	Humedad	69
62237	7	Sololá	717	San Juan la Laguna	12	San Juan la Laguna	6	Junio	2023-06-27T00:00:00	2024-11-08T13:00:00	6	Velocidad del viento	0
62238	7	Sololá	717	San Juan la Laguna	12	San Juan la Laguna	6	Junio	2023-06-27T00:00:00	2024-11-08T13:00:00	7	Dirección del viento	0
62239	7	Sololá	717	San Juan la Laguna	12	San Juan la Laguna	6	Junio	2023-06-27T00:00:00	2024-11-08T13:00:00	1	Precipitación	0
62240	7	Sololá	717	San Juan la Laguna	12	San Juan la Laguna	6	Junio	2023-06-27T00:00:00	2024-11-08T13:00:00	8	Radiación solar	863
62241	7	Sololá	717	San Juan la Laguna	12	San Juan la Laguna	6	Junio	2023-06-27T00:00:00	2024-11-08T14:00:00	2	Temperatura media	23.4
62242	7	Sololá	717	San Juan la Laguna	12	San Juan la Laguna	6	Junio	2023-06-27T00:00:00	2024-11-08T14:00:00	4	Temperatura máxima	23.4
62243	7	Sololá	717	San Juan la Laguna	12	San Juan la Laguna	6	Junio	2023-06-27T00:00:00	2024-11-08T14:00:00	3	Temperatura mínima	22.7
62244	7	Sololá	717	San Juan la Laguna	12	San Juan la Laguna	6	Junio	2023-06-27T00:00:00	2024-11-08T14:00:00	5	Humedad	70
62245	7	Sololá	717	San Juan la Laguna	12	San Juan la Laguna	6	Junio	2023-06-27T00:00:00	2024-11-08T14:00:00	6	Velocidad del viento	0
62246	7	Sololá	717	San Juan la Laguna	12	San Juan la Laguna	6	Junio	2023-06-27T00:00:00	2024-11-08T14:00:00	7	Dirección del viento	0
62247	7	Sololá	717	San Juan la Laguna	12	San Juan la Laguna	6	Junio	2023-06-27T00:00:00	2024-11-08T14:00:00	1	Precipitación	0
62248	7	Sololá	717	San Juan la Laguna	12	San Juan la Laguna	6	Junio	2023-06-27T00:00:00	2024-11-08T14:00:00	8	Radiación solar	348
62249	7	Sololá	717	San Juan la Laguna	12	San Juan la Laguna	6	Junio	2023-06-27T00:00:00	2024-11-08T15:00:00	2	Temperatura media	21.8
62250	7	Sololá	717	San Juan la Laguna	12	San Juan la Laguna	6	Junio	2023-06-27T00:00:00	2024-11-08T15:00:00	4	Temperatura máxima	23.4
62251	7	Sololá	717	San Juan la Laguna	12	San Juan la Laguna	6	Junio	2023-06-27T00:00:00	2024-11-08T15:00:00	3	Temperatura mínima	21.7
62252	7	Sololá	717	San Juan la Laguna	12	San Juan la Laguna	6	Junio	2023-06-27T00:00:00	2024-11-08T15:00:00	5	Humedad	75
62253	7	Sololá	717	San Juan la Laguna	12	San Juan la Laguna	6	Junio	2023-06-27T00:00:00	2024-11-08T15:00:00	6	Velocidad del viento	0
62254	7	Sololá	717	San Juan la Laguna	12	San Juan la Laguna	6	Junio	2023-06-27T00:00:00	2024-11-08T15:00:00	7	Dirección del viento	0
62255	7	Sololá	717	San Juan la Laguna	12	San Juan la Laguna	6	Junio	2023-06-27T00:00:00	2024-11-08T15:00:00	1	Precipitación	0
62256	7	Sololá	717	San Juan la Laguna	12	San Juan la Laguna	6	Junio	2023-06-27T00:00:00	2024-11-08T15:00:00	8	Radiación solar	304
62257	7	Sololá	717	San Juan la Laguna	12	San Juan la Laguna	6	Junio	2023-06-27T00:00:00	2024-11-08T16:00:00	2	Temperatura media	21.5
62258	7	Sololá	717	San Juan la Laguna	12	San Juan la Laguna	6	Junio	2023-06-27T00:00:00	2024-11-08T16:00:00	4	Temperatura máxima	21.8
62259	7	Sololá	717	San Juan la Laguna	12	San Juan la Laguna	6	Junio	2023-06-27T00:00:00	2024-11-08T16:00:00	3	Temperatura mínima	21.3
62260	7	Sololá	717	San Juan la Laguna	12	San Juan la Laguna	6	Junio	2023-06-27T00:00:00	2024-11-08T16:00:00	5	Humedad	75
62261	7	Sololá	717	San Juan la Laguna	12	San Juan la Laguna	6	Junio	2023-06-27T00:00:00	2024-11-08T16:00:00	6	Velocidad del viento	1.6
62262	7	Sololá	717	San Juan la Laguna	12	San Juan la Laguna	6	Junio	2023-06-27T00:00:00	2024-11-08T16:00:00	7	Dirección del viento	1.61
62263	7	Sololá	717	San Juan la Laguna	12	San Juan la Laguna	6	Junio	2023-06-27T00:00:00	2024-11-08T16:00:00	1	Precipitación	0
62264	7	Sololá	717	San Juan la Laguna	12	San Juan la Laguna	6	Junio	2023-06-27T00:00:00	2024-11-08T16:00:00	8	Radiación solar	207
62265	7	Sololá	717	San Juan la Laguna	12	San Juan la Laguna	6	Junio	2023-06-27T00:00:00	2024-11-08T17:00:00	2	Temperatura media	19.6
62266	7	Sololá	717	San Juan la Laguna	12	San Juan la Laguna	6	Junio	2023-06-27T00:00:00	2024-11-08T17:00:00	4	Temperatura máxima	21.6
62267	7	Sololá	717	San Juan la Laguna	12	San Juan la Laguna	6	Junio	2023-06-27T00:00:00	2024-11-08T17:00:00	3	Temperatura mínima	19.6
62268	7	Sololá	717	San Juan la Laguna	12	San Juan la Laguna	6	Junio	2023-06-27T00:00:00	2024-11-08T17:00:00	5	Humedad	85
62269	7	Sololá	717	San Juan la Laguna	12	San Juan la Laguna	6	Junio	2023-06-27T00:00:00	2024-11-08T17:00:00	6	Velocidad del viento	0
62270	7	Sololá	717	San Juan la Laguna	12	San Juan la Laguna	6	Junio	2023-06-27T00:00:00	2024-11-08T17:00:00	7	Dirección del viento	0
62271	7	Sololá	717	San Juan la Laguna	12	San Juan la Laguna	6	Junio	2023-06-27T00:00:00	2024-11-08T17:00:00	1	Precipitación	0
62272	7	Sololá	717	San Juan la Laguna	12	San Juan la Laguna	6	Junio	2023-06-27T00:00:00	2024-11-08T17:00:00	8	Radiación solar	132
62273	7	Sololá	717	San Juan la Laguna	12	San Juan la Laguna	6	Junio	2023-06-27T00:00:00	2024-11-08T18:00:00	2	Temperatura media	19.7
62274	7	Sololá	717	San Juan la Laguna	12	San Juan la Laguna	6	Junio	2023-06-27T00:00:00	2024-11-08T18:00:00	4	Temperatura máxima	19.8
62275	7	Sololá	717	San Juan la Laguna	12	San Juan la Laguna	6	Junio	2023-06-27T00:00:00	2024-11-08T18:00:00	3	Temperatura mínima	19.6
62276	7	Sololá	717	San Juan la Laguna	12	San Juan la Laguna	6	Junio	2023-06-27T00:00:00	2024-11-08T18:00:00	5	Humedad	86
62277	7	Sololá	717	San Juan la Laguna	12	San Juan la Laguna	6	Junio	2023-06-27T00:00:00	2024-11-08T18:00:00	6	Velocidad del viento	0
62278	7	Sololá	717	San Juan la Laguna	12	San Juan la Laguna	6	Junio	2023-06-27T00:00:00	2024-11-08T18:00:00	7	Dirección del viento	0
62279	7	Sololá	717	San Juan la Laguna	12	San Juan la Laguna	6	Junio	2023-06-27T00:00:00	2024-11-08T18:00:00	1	Precipitación	0
62280	7	Sololá	717	San Juan la Laguna	12	San Juan la Laguna	6	Junio	2023-06-27T00:00:00	2024-11-08T18:00:00	8	Radiación solar	9
62281	7	Sololá	717	San Juan la Laguna	12	San Juan la Laguna	6	Junio	2023-06-27T00:00:00	2024-11-08T19:00:00	2	Temperatura media	18.8
62282	7	Sololá	717	San Juan la Laguna	12	San Juan la Laguna	6	Junio	2023-06-27T00:00:00	2024-11-08T19:00:00	4	Temperatura máxima	19.7
62283	7	Sololá	717	San Juan la Laguna	12	San Juan la Laguna	6	Junio	2023-06-27T00:00:00	2024-11-08T19:00:00	3	Temperatura mínima	18.8
62284	7	Sololá	717	San Juan la Laguna	12	San Juan la Laguna	6	Junio	2023-06-27T00:00:00	2024-11-08T19:00:00	5	Humedad	89
62285	7	Sololá	717	San Juan la Laguna	12	San Juan la Laguna	6	Junio	2023-06-27T00:00:00	2024-11-08T19:00:00	6	Velocidad del viento	0
62286	7	Sololá	717	San Juan la Laguna	12	San Juan la Laguna	6	Junio	2023-06-27T00:00:00	2024-11-08T19:00:00	7	Dirección del viento	0
62287	7	Sololá	717	San Juan la Laguna	12	San Juan la Laguna	6	Junio	2023-06-27T00:00:00	2024-11-08T19:00:00	1	Precipitación	2.6
62288	7	Sololá	717	San Juan la Laguna	12	San Juan la Laguna	6	Junio	2023-06-27T00:00:00	2024-11-08T19:00:00	8	Radiación solar	0
62289	7	Sololá	717	San Juan la Laguna	12	San Juan la Laguna	6	Junio	2023-06-27T00:00:00	2024-11-08T20:00:00	2	Temperatura media	18.3
62290	7	Sololá	717	San Juan la Laguna	12	San Juan la Laguna	6	Junio	2023-06-27T00:00:00	2024-11-08T20:00:00	4	Temperatura máxima	18.8
62291	7	Sololá	717	San Juan la Laguna	12	San Juan la Laguna	6	Junio	2023-06-27T00:00:00	2024-11-08T20:00:00	3	Temperatura mínima	18.3
62292	7	Sololá	717	San Juan la Laguna	12	San Juan la Laguna	6	Junio	2023-06-27T00:00:00	2024-11-08T20:00:00	5	Humedad	89
62293	7	Sololá	717	San Juan la Laguna	12	San Juan la Laguna	6	Junio	2023-06-27T00:00:00	2024-11-08T20:00:00	6	Velocidad del viento	0
62294	7	Sololá	717	San Juan la Laguna	12	San Juan la Laguna	6	Junio	2023-06-27T00:00:00	2024-11-08T20:00:00	7	Dirección del viento	0
62295	7	Sololá	717	San Juan la Laguna	12	San Juan la Laguna	6	Junio	2023-06-27T00:00:00	2024-11-08T20:00:00	1	Precipitación	0.4
62296	7	Sololá	717	San Juan la Laguna	12	San Juan la Laguna	6	Junio	2023-06-27T00:00:00	2024-11-08T20:00:00	8	Radiación solar	0
62297	7	Sololá	717	San Juan la Laguna	12	San Juan la Laguna	6	Junio	2023-06-27T00:00:00	2024-11-08T21:00:00	2	Temperatura media	18.3
62298	7	Sololá	717	San Juan la Laguna	12	San Juan la Laguna	6	Junio	2023-06-27T00:00:00	2024-11-08T21:00:00	4	Temperatura máxima	18.4
62299	7	Sololá	717	San Juan la Laguna	12	San Juan la Laguna	6	Junio	2023-06-27T00:00:00	2024-11-08T21:00:00	3	Temperatura mínima	18.1
62300	7	Sololá	717	San Juan la Laguna	12	San Juan la Laguna	6	Junio	2023-06-27T00:00:00	2024-11-08T21:00:00	5	Humedad	90
62301	7	Sololá	717	San Juan la Laguna	12	San Juan la Laguna	6	Junio	2023-06-27T00:00:00	2024-11-08T21:00:00	6	Velocidad del viento	0
62302	7	Sololá	717	San Juan la Laguna	12	San Juan la Laguna	6	Junio	2023-06-27T00:00:00	2024-11-08T21:00:00	7	Dirección del viento	0
62303	7	Sololá	717	San Juan la Laguna	12	San Juan la Laguna	6	Junio	2023-06-27T00:00:00	2024-11-08T21:00:00	1	Precipitación	1.2
62304	7	Sololá	717	San Juan la Laguna	12	San Juan la Laguna	6	Junio	2023-06-27T00:00:00	2024-11-08T21:00:00	8	Radiación solar	0
62305	7	Sololá	717	San Juan la Laguna	12	San Juan la Laguna	6	Junio	2023-06-27T00:00:00	2024-11-08T22:00:00	2	Temperatura media	17.8
62306	7	Sololá	717	San Juan la Laguna	12	San Juan la Laguna	6	Junio	2023-06-27T00:00:00	2024-11-08T22:00:00	4	Temperatura máxima	18.3
62307	7	Sololá	717	San Juan la Laguna	12	San Juan la Laguna	6	Junio	2023-06-27T00:00:00	2024-11-08T22:00:00	3	Temperatura mínima	17.7
62308	7	Sololá	717	San Juan la Laguna	12	San Juan la Laguna	6	Junio	2023-06-27T00:00:00	2024-11-08T22:00:00	5	Humedad	90
62309	7	Sololá	717	San Juan la Laguna	12	San Juan la Laguna	6	Junio	2023-06-27T00:00:00	2024-11-08T22:00:00	6	Velocidad del viento	0
62310	7	Sololá	717	San Juan la Laguna	12	San Juan la Laguna	6	Junio	2023-06-27T00:00:00	2024-11-08T22:00:00	7	Dirección del viento	0
62311	7	Sololá	717	San Juan la Laguna	12	San Juan la Laguna	6	Junio	2023-06-27T00:00:00	2024-11-08T22:00:00	1	Precipitación	0.2
62312	7	Sololá	717	San Juan la Laguna	12	San Juan la Laguna	6	Junio	2023-06-27T00:00:00	2024-11-08T22:00:00	8	Radiación solar	0
62313	7	Sololá	717	San Juan la Laguna	12	San Juan la Laguna	6	Junio	2023-06-27T00:00:00	2024-11-08T23:00:00	2	Temperatura media	17.7
62314	7	Sololá	717	San Juan la Laguna	12	San Juan la Laguna	6	Junio	2023-06-27T00:00:00	2024-11-08T23:00:00	4	Temperatura máxima	17.8
62315	7	Sololá	717	San Juan la Laguna	12	San Juan la Laguna	6	Junio	2023-06-27T00:00:00	2024-11-08T23:00:00	3	Temperatura mínima	17.7
62316	7	Sololá	717	San Juan la Laguna	12	San Juan la Laguna	6	Junio	2023-06-27T00:00:00	2024-11-08T23:00:00	5	Humedad	91
62317	7	Sololá	717	San Juan la Laguna	12	San Juan la Laguna	6	Junio	2023-06-27T00:00:00	2024-11-08T23:00:00	6	Velocidad del viento	0
62318	7	Sololá	717	San Juan la Laguna	12	San Juan la Laguna	6	Junio	2023-06-27T00:00:00	2024-11-08T23:00:00	7	Dirección del viento	0
62319	7	Sololá	717	San Juan la Laguna	12	San Juan la Laguna	6	Junio	2023-06-27T00:00:00	2024-11-08T23:00:00	1	Precipitación	0
62320	7	Sololá	717	San Juan la Laguna	12	San Juan la Laguna	6	Junio	2023-06-27T00:00:00	2024-11-08T23:00:00	8	Radiación solar	0
62321	7	Sololá	717	San Juan la Laguna	12	San Juan la Laguna	6	Junio	2023-06-28T00:00:00	2024-11-08T00:00:00	2	Temperatura media	17.7
62322	7	Sololá	717	San Juan la Laguna	12	San Juan la Laguna	6	Junio	2023-06-28T00:00:00	2024-11-08T00:00:00	4	Temperatura máxima	17.8
62323	7	Sololá	717	San Juan la Laguna	12	San Juan la Laguna	6	Junio	2023-06-28T00:00:00	2024-11-08T00:00:00	3	Temperatura mínima	17.6
62324	7	Sololá	717	San Juan la Laguna	12	San Juan la Laguna	6	Junio	2023-06-28T00:00:00	2024-11-08T00:00:00	5	Humedad	90
62325	7	Sololá	717	San Juan la Laguna	12	San Juan la Laguna	6	Junio	2023-06-28T00:00:00	2024-11-08T00:00:00	6	Velocidad del viento	0
62326	7	Sololá	717	San Juan la Laguna	12	San Juan la Laguna	6	Junio	2023-06-28T00:00:00	2024-11-08T00:00:00	7	Dirección del viento	0
62327	7	Sololá	717	San Juan la Laguna	12	San Juan la Laguna	6	Junio	2023-06-28T00:00:00	2024-11-08T00:00:00	1	Precipitación	0
62328	7	Sololá	717	San Juan la Laguna	12	San Juan la Laguna	6	Junio	2023-06-28T00:00:00	2024-11-08T00:00:00	8	Radiación solar	0
62329	7	Sololá	717	San Juan la Laguna	12	San Juan la Laguna	6	Junio	2023-06-28T00:00:00	2024-11-08T01:00:00	2	Temperatura media	17.3
62330	7	Sololá	717	San Juan la Laguna	12	San Juan la Laguna	6	Junio	2023-06-28T00:00:00	2024-11-08T01:00:00	4	Temperatura máxima	17.7
62331	7	Sololá	717	San Juan la Laguna	12	San Juan la Laguna	6	Junio	2023-06-28T00:00:00	2024-11-08T01:00:00	3	Temperatura mínima	17.3
62332	7	Sololá	717	San Juan la Laguna	12	San Juan la Laguna	6	Junio	2023-06-28T00:00:00	2024-11-08T01:00:00	5	Humedad	88
62333	7	Sololá	717	San Juan la Laguna	12	San Juan la Laguna	6	Junio	2023-06-28T00:00:00	2024-11-08T01:00:00	6	Velocidad del viento	0
62334	7	Sololá	717	San Juan la Laguna	12	San Juan la Laguna	6	Junio	2023-06-28T00:00:00	2024-11-08T01:00:00	7	Dirección del viento	0
62335	7	Sololá	717	San Juan la Laguna	12	San Juan la Laguna	6	Junio	2023-06-28T00:00:00	2024-11-08T01:00:00	1	Precipitación	0
62336	7	Sololá	717	San Juan la Laguna	12	San Juan la Laguna	6	Junio	2023-06-28T00:00:00	2024-11-08T01:00:00	8	Radiación solar	0
62337	7	Sololá	717	San Juan la Laguna	12	San Juan la Laguna	6	Junio	2023-06-28T00:00:00	2024-11-08T02:00:00	2	Temperatura media	17.2
62338	7	Sololá	717	San Juan la Laguna	12	San Juan la Laguna	6	Junio	2023-06-28T00:00:00	2024-11-08T02:00:00	4	Temperatura máxima	17.3
62339	7	Sololá	717	San Juan la Laguna	12	San Juan la Laguna	6	Junio	2023-06-28T00:00:00	2024-11-08T02:00:00	3	Temperatura mínima	17.2
62340	7	Sololá	717	San Juan la Laguna	12	San Juan la Laguna	6	Junio	2023-06-28T00:00:00	2024-11-08T02:00:00	5	Humedad	90
62341	7	Sololá	717	San Juan la Laguna	12	San Juan la Laguna	6	Junio	2023-06-28T00:00:00	2024-11-08T02:00:00	6	Velocidad del viento	0
62342	7	Sololá	717	San Juan la Laguna	12	San Juan la Laguna	6	Junio	2023-06-28T00:00:00	2024-11-08T02:00:00	7	Dirección del viento	0
62343	7	Sololá	717	San Juan la Laguna	12	San Juan la Laguna	6	Junio	2023-06-28T00:00:00	2024-11-08T02:00:00	1	Precipitación	0
62344	7	Sololá	717	San Juan la Laguna	12	San Juan la Laguna	6	Junio	2023-06-28T00:00:00	2024-11-08T02:00:00	8	Radiación solar	0
62345	7	Sololá	717	San Juan la Laguna	12	San Juan la Laguna	6	Junio	2023-06-28T00:00:00	2024-11-08T03:00:00	2	Temperatura media	17.3
62346	7	Sololá	717	San Juan la Laguna	12	San Juan la Laguna	6	Junio	2023-06-28T00:00:00	2024-11-08T03:00:00	4	Temperatura máxima	17.3
62347	7	Sololá	717	San Juan la Laguna	12	San Juan la Laguna	6	Junio	2023-06-28T00:00:00	2024-11-08T03:00:00	3	Temperatura mínima	17.2
62348	7	Sololá	717	San Juan la Laguna	12	San Juan la Laguna	6	Junio	2023-06-28T00:00:00	2024-11-08T03:00:00	5	Humedad	91
62349	7	Sololá	717	San Juan la Laguna	12	San Juan la Laguna	6	Junio	2023-06-28T00:00:00	2024-11-08T03:00:00	6	Velocidad del viento	0
62350	7	Sololá	717	San Juan la Laguna	12	San Juan la Laguna	6	Junio	2023-06-28T00:00:00	2024-11-08T03:00:00	7	Dirección del viento	0
62351	7	Sololá	717	San Juan la Laguna	12	San Juan la Laguna	6	Junio	2023-06-28T00:00:00	2024-11-08T03:00:00	1	Precipitación	0.6
62352	7	Sololá	717	San Juan la Laguna	12	San Juan la Laguna	6	Junio	2023-06-28T00:00:00	2024-11-08T03:00:00	8	Radiación solar	0
62353	7	Sololá	717	San Juan la Laguna	12	San Juan la Laguna	6	Junio	2023-06-28T00:00:00	2024-11-08T04:00:00	2	Temperatura media	17.3
62354	7	Sololá	717	San Juan la Laguna	12	San Juan la Laguna	6	Junio	2023-06-28T00:00:00	2024-11-08T04:00:00	4	Temperatura máxima	17.3
62355	7	Sololá	717	San Juan la Laguna	12	San Juan la Laguna	6	Junio	2023-06-28T00:00:00	2024-11-08T04:00:00	3	Temperatura mínima	17.1
62356	7	Sololá	717	San Juan la Laguna	12	San Juan la Laguna	6	Junio	2023-06-28T00:00:00	2024-11-08T04:00:00	5	Humedad	91
62357	7	Sololá	717	San Juan la Laguna	12	San Juan la Laguna	6	Junio	2023-06-28T00:00:00	2024-11-08T04:00:00	6	Velocidad del viento	0
62358	7	Sololá	717	San Juan la Laguna	12	San Juan la Laguna	6	Junio	2023-06-28T00:00:00	2024-11-08T04:00:00	7	Dirección del viento	0
62359	7	Sololá	717	San Juan la Laguna	12	San Juan la Laguna	6	Junio	2023-06-28T00:00:00	2024-11-08T04:00:00	1	Precipitación	0
62360	7	Sololá	717	San Juan la Laguna	12	San Juan la Laguna	6	Junio	2023-06-28T00:00:00	2024-11-08T04:00:00	8	Radiación solar	0
62361	7	Sololá	717	San Juan la Laguna	12	San Juan la Laguna	6	Junio	2023-06-28T00:00:00	2024-11-08T05:00:00	2	Temperatura media	17
62362	7	Sololá	717	San Juan la Laguna	12	San Juan la Laguna	6	Junio	2023-06-28T00:00:00	2024-11-08T05:00:00	4	Temperatura máxima	17.3
62363	7	Sololá	717	San Juan la Laguna	12	San Juan la Laguna	6	Junio	2023-06-28T00:00:00	2024-11-08T05:00:00	3	Temperatura mínima	16.9
62364	7	Sololá	717	San Juan la Laguna	12	San Juan la Laguna	6	Junio	2023-06-28T00:00:00	2024-11-08T05:00:00	5	Humedad	90
62365	7	Sololá	717	San Juan la Laguna	12	San Juan la Laguna	6	Junio	2023-06-28T00:00:00	2024-11-08T05:00:00	6	Velocidad del viento	0
62366	7	Sololá	717	San Juan la Laguna	12	San Juan la Laguna	6	Junio	2023-06-28T00:00:00	2024-11-08T05:00:00	7	Dirección del viento	0
62367	7	Sololá	717	San Juan la Laguna	12	San Juan la Laguna	6	Junio	2023-06-28T00:00:00	2024-11-08T05:00:00	1	Precipitación	0
62368	7	Sololá	717	San Juan la Laguna	12	San Juan la Laguna	6	Junio	2023-06-28T00:00:00	2024-11-08T05:00:00	8	Radiación solar	0
62369	7	Sololá	717	San Juan la Laguna	12	San Juan la Laguna	6	Junio	2023-06-28T00:00:00	2024-11-08T06:00:00	2	Temperatura media	16.7
62370	7	Sololá	717	San Juan la Laguna	12	San Juan la Laguna	6	Junio	2023-06-28T00:00:00	2024-11-08T06:00:00	4	Temperatura máxima	17.1
62371	7	Sololá	717	San Juan la Laguna	12	San Juan la Laguna	6	Junio	2023-06-28T00:00:00	2024-11-08T06:00:00	3	Temperatura mínima	16.6
62372	7	Sololá	717	San Juan la Laguna	12	San Juan la Laguna	6	Junio	2023-06-28T00:00:00	2024-11-08T06:00:00	5	Humedad	89
62373	7	Sololá	717	San Juan la Laguna	12	San Juan la Laguna	6	Junio	2023-06-28T00:00:00	2024-11-08T06:00:00	6	Velocidad del viento	0
62374	7	Sololá	717	San Juan la Laguna	12	San Juan la Laguna	6	Junio	2023-06-28T00:00:00	2024-11-08T06:00:00	7	Dirección del viento	0
62375	7	Sololá	717	San Juan la Laguna	12	San Juan la Laguna	6	Junio	2023-06-28T00:00:00	2024-11-08T06:00:00	1	Precipitación	0
62376	7	Sololá	717	San Juan la Laguna	12	San Juan la Laguna	6	Junio	2023-06-28T00:00:00	2024-11-08T06:00:00	8	Radiación solar	13
62377	7	Sololá	717	San Juan la Laguna	12	San Juan la Laguna	6	Junio	2023-06-28T00:00:00	2024-11-08T07:00:00	2	Temperatura media	17.5
62378	7	Sololá	717	San Juan la Laguna	12	San Juan la Laguna	6	Junio	2023-06-28T00:00:00	2024-11-08T07:00:00	4	Temperatura máxima	17.5
62379	7	Sololá	717	San Juan la Laguna	12	San Juan la Laguna	6	Junio	2023-06-28T00:00:00	2024-11-08T07:00:00	3	Temperatura mínima	16.5
62380	7	Sololá	717	San Juan la Laguna	12	San Juan la Laguna	6	Junio	2023-06-28T00:00:00	2024-11-08T07:00:00	5	Humedad	88
62381	7	Sololá	717	San Juan la Laguna	12	San Juan la Laguna	6	Junio	2023-06-28T00:00:00	2024-11-08T07:00:00	6	Velocidad del viento	0
62382	7	Sololá	717	San Juan la Laguna	12	San Juan la Laguna	6	Junio	2023-06-28T00:00:00	2024-11-08T07:00:00	7	Dirección del viento	0
62383	7	Sololá	717	San Juan la Laguna	12	San Juan la Laguna	6	Junio	2023-06-28T00:00:00	2024-11-08T07:00:00	1	Precipitación	0
62384	7	Sololá	717	San Juan la Laguna	12	San Juan la Laguna	6	Junio	2023-06-28T00:00:00	2024-11-08T07:00:00	8	Radiación solar	157
62385	7	Sololá	717	San Juan la Laguna	12	San Juan la Laguna	6	Junio	2023-06-28T00:00:00	2024-11-08T08:00:00	2	Temperatura media	19.4
62386	7	Sololá	717	San Juan la Laguna	12	San Juan la Laguna	6	Junio	2023-06-28T00:00:00	2024-11-08T08:00:00	4	Temperatura máxima	19.4
62387	7	Sololá	717	San Juan la Laguna	12	San Juan la Laguna	6	Junio	2023-06-28T00:00:00	2024-11-08T08:00:00	3	Temperatura mínima	17.4
62388	7	Sololá	717	San Juan la Laguna	12	San Juan la Laguna	6	Junio	2023-06-28T00:00:00	2024-11-08T08:00:00	5	Humedad	81
62389	7	Sololá	717	San Juan la Laguna	12	San Juan la Laguna	6	Junio	2023-06-28T00:00:00	2024-11-08T08:00:00	6	Velocidad del viento	0
62390	7	Sololá	717	San Juan la Laguna	12	San Juan la Laguna	6	Junio	2023-06-28T00:00:00	2024-11-08T08:00:00	7	Dirección del viento	0
62391	7	Sololá	717	San Juan la Laguna	12	San Juan la Laguna	6	Junio	2023-06-28T00:00:00	2024-11-08T08:00:00	1	Precipitación	0
62392	7	Sololá	717	San Juan la Laguna	12	San Juan la Laguna	6	Junio	2023-06-28T00:00:00	2024-11-08T08:00:00	8	Radiación solar	369
62393	7	Sololá	717	San Juan la Laguna	12	San Juan la Laguna	6	Junio	2023-06-28T00:00:00	2024-11-08T09:00:00	2	Temperatura media	21.4
62394	7	Sololá	717	San Juan la Laguna	12	San Juan la Laguna	6	Junio	2023-06-28T00:00:00	2024-11-08T09:00:00	4	Temperatura máxima	21.4
62395	7	Sololá	717	San Juan la Laguna	12	San Juan la Laguna	6	Junio	2023-06-28T00:00:00	2024-11-08T09:00:00	3	Temperatura mínima	19.4
62396	7	Sololá	717	San Juan la Laguna	12	San Juan la Laguna	6	Junio	2023-06-28T00:00:00	2024-11-08T09:00:00	5	Humedad	75
62397	7	Sololá	717	San Juan la Laguna	12	San Juan la Laguna	6	Junio	2023-06-28T00:00:00	2024-11-08T09:00:00	6	Velocidad del viento	0
62398	7	Sololá	717	San Juan la Laguna	12	San Juan la Laguna	6	Junio	2023-06-28T00:00:00	2024-11-08T09:00:00	7	Dirección del viento	0
62399	7	Sololá	717	San Juan la Laguna	12	San Juan la Laguna	6	Junio	2023-06-28T00:00:00	2024-11-08T09:00:00	1	Precipitación	0
62400	7	Sololá	717	San Juan la Laguna	12	San Juan la Laguna	6	Junio	2023-06-28T00:00:00	2024-11-08T09:00:00	8	Radiación solar	569
62401	7	Sololá	717	San Juan la Laguna	12	San Juan la Laguna	6	Junio	2023-06-28T00:00:00	2024-11-08T10:00:00	2	Temperatura media	23.1
62402	7	Sololá	717	San Juan la Laguna	12	San Juan la Laguna	6	Junio	2023-06-28T00:00:00	2024-11-08T10:00:00	4	Temperatura máxima	23.4
62403	7	Sololá	717	San Juan la Laguna	12	San Juan la Laguna	6	Junio	2023-06-28T00:00:00	2024-11-08T10:00:00	3	Temperatura mínima	21.4
62404	7	Sololá	717	San Juan la Laguna	12	San Juan la Laguna	6	Junio	2023-06-28T00:00:00	2024-11-08T10:00:00	5	Humedad	63
62405	7	Sololá	717	San Juan la Laguna	12	San Juan la Laguna	6	Junio	2023-06-28T00:00:00	2024-11-08T10:00:00	6	Velocidad del viento	0
62406	7	Sololá	717	San Juan la Laguna	12	San Juan la Laguna	6	Junio	2023-06-28T00:00:00	2024-11-08T10:00:00	7	Dirección del viento	0
62407	7	Sololá	717	San Juan la Laguna	12	San Juan la Laguna	6	Junio	2023-06-28T00:00:00	2024-11-08T10:00:00	1	Precipitación	0
62408	7	Sololá	717	San Juan la Laguna	12	San Juan la Laguna	6	Junio	2023-06-28T00:00:00	2024-11-08T10:00:00	8	Radiación solar	738
62409	7	Sololá	717	San Juan la Laguna	12	San Juan la Laguna	6	Junio	2023-06-28T00:00:00	2024-11-08T11:00:00	2	Temperatura media	23.1
62410	7	Sololá	717	San Juan la Laguna	12	San Juan la Laguna	6	Junio	2023-06-28T00:00:00	2024-11-08T11:00:00	4	Temperatura máxima	23.7
62411	7	Sololá	717	San Juan la Laguna	12	San Juan la Laguna	6	Junio	2023-06-28T00:00:00	2024-11-08T11:00:00	3	Temperatura mínima	22.9
62412	7	Sololá	717	San Juan la Laguna	12	San Juan la Laguna	6	Junio	2023-06-28T00:00:00	2024-11-08T11:00:00	5	Humedad	65
62413	7	Sololá	717	San Juan la Laguna	12	San Juan la Laguna	6	Junio	2023-06-28T00:00:00	2024-11-08T11:00:00	6	Velocidad del viento	1.6
62414	7	Sololá	717	San Juan la Laguna	12	San Juan la Laguna	6	Junio	2023-06-28T00:00:00	2024-11-08T11:00:00	7	Dirección del viento	1.61
62415	7	Sololá	717	San Juan la Laguna	12	San Juan la Laguna	6	Junio	2023-06-28T00:00:00	2024-11-08T11:00:00	1	Precipitación	0
62416	7	Sololá	717	San Juan la Laguna	12	San Juan la Laguna	6	Junio	2023-06-28T00:00:00	2024-11-08T11:00:00	8	Radiación solar	860
62417	7	Sololá	717	San Juan la Laguna	12	San Juan la Laguna	6	Junio	2023-06-28T00:00:00	2024-11-08T12:00:00	2	Temperatura media	24.1
62418	7	Sololá	717	San Juan la Laguna	12	San Juan la Laguna	6	Junio	2023-06-28T00:00:00	2024-11-08T12:00:00	4	Temperatura máxima	24.3
62419	7	Sololá	717	San Juan la Laguna	12	San Juan la Laguna	6	Junio	2023-06-28T00:00:00	2024-11-08T12:00:00	3	Temperatura mínima	23.1
62420	7	Sololá	717	San Juan la Laguna	12	San Juan la Laguna	6	Junio	2023-06-28T00:00:00	2024-11-08T12:00:00	5	Humedad	66
62421	7	Sololá	717	San Juan la Laguna	12	San Juan la Laguna	6	Junio	2023-06-28T00:00:00	2024-11-08T12:00:00	6	Velocidad del viento	3.2
62422	7	Sololá	717	San Juan la Laguna	12	San Juan la Laguna	6	Junio	2023-06-28T00:00:00	2024-11-08T12:00:00	7	Dirección del viento	3.22
62423	7	Sololá	717	San Juan la Laguna	12	San Juan la Laguna	6	Junio	2023-06-28T00:00:00	2024-11-08T12:00:00	1	Precipitación	0
62424	7	Sololá	717	San Juan la Laguna	12	San Juan la Laguna	6	Junio	2023-06-28T00:00:00	2024-11-08T12:00:00	8	Radiación solar	868
62425	7	Sololá	717	San Juan la Laguna	12	San Juan la Laguna	6	Junio	2023-06-28T00:00:00	2024-11-08T13:00:00	2	Temperatura media	24.3
62426	7	Sololá	717	San Juan la Laguna	12	San Juan la Laguna	6	Junio	2023-06-28T00:00:00	2024-11-08T13:00:00	4	Temperatura máxima	24.6
62427	7	Sololá	717	San Juan la Laguna	12	San Juan la Laguna	6	Junio	2023-06-28T00:00:00	2024-11-08T13:00:00	3	Temperatura mínima	23.4
62428	7	Sololá	717	San Juan la Laguna	12	San Juan la Laguna	6	Junio	2023-06-28T00:00:00	2024-11-08T13:00:00	5	Humedad	68
62429	7	Sololá	717	San Juan la Laguna	12	San Juan la Laguna	6	Junio	2023-06-28T00:00:00	2024-11-08T13:00:00	6	Velocidad del viento	4.8
62430	7	Sololá	717	San Juan la Laguna	12	San Juan la Laguna	6	Junio	2023-06-28T00:00:00	2024-11-08T13:00:00	7	Dirección del viento	4.83
62431	7	Sololá	717	San Juan la Laguna	12	San Juan la Laguna	6	Junio	2023-06-28T00:00:00	2024-11-08T13:00:00	1	Precipitación	0
62432	7	Sololá	717	San Juan la Laguna	12	San Juan la Laguna	6	Junio	2023-06-28T00:00:00	2024-11-08T13:00:00	8	Radiación solar	936
62433	7	Sololá	717	San Juan la Laguna	12	San Juan la Laguna	6	Junio	2023-06-28T00:00:00	2024-11-08T14:00:00	2	Temperatura media	24.5
62434	7	Sololá	717	San Juan la Laguna	12	San Juan la Laguna	6	Junio	2023-06-28T00:00:00	2024-11-08T14:00:00	4	Temperatura máxima	24.9
62435	7	Sololá	717	San Juan la Laguna	12	San Juan la Laguna	6	Junio	2023-06-28T00:00:00	2024-11-08T14:00:00	3	Temperatura mínima	23.8
62436	7	Sololá	717	San Juan la Laguna	12	San Juan la Laguna	6	Junio	2023-06-28T00:00:00	2024-11-08T14:00:00	5	Humedad	67
62437	7	Sololá	717	San Juan la Laguna	12	San Juan la Laguna	6	Junio	2023-06-28T00:00:00	2024-11-08T14:00:00	6	Velocidad del viento	3.2
62438	7	Sololá	717	San Juan la Laguna	12	San Juan la Laguna	6	Junio	2023-06-28T00:00:00	2024-11-08T14:00:00	7	Dirección del viento	3.22
62439	7	Sololá	717	San Juan la Laguna	12	San Juan la Laguna	6	Junio	2023-06-28T00:00:00	2024-11-08T14:00:00	1	Precipitación	0
62440	7	Sololá	717	San Juan la Laguna	12	San Juan la Laguna	6	Junio	2023-06-28T00:00:00	2024-11-08T14:00:00	8	Radiación solar	636
62441	7	Sololá	717	San Juan la Laguna	12	San Juan la Laguna	6	Junio	2023-06-28T00:00:00	2024-11-08T15:00:00	2	Temperatura media	21.1
62442	7	Sololá	717	San Juan la Laguna	12	San Juan la Laguna	6	Junio	2023-06-28T00:00:00	2024-11-08T15:00:00	4	Temperatura máxima	24.6
62443	7	Sololá	717	San Juan la Laguna	12	San Juan la Laguna	6	Junio	2023-06-28T00:00:00	2024-11-08T15:00:00	3	Temperatura mínima	21.1
62444	7	Sololá	717	San Juan la Laguna	12	San Juan la Laguna	6	Junio	2023-06-28T00:00:00	2024-11-08T15:00:00	5	Humedad	79
62445	7	Sololá	717	San Juan la Laguna	12	San Juan la Laguna	6	Junio	2023-06-28T00:00:00	2024-11-08T15:00:00	6	Velocidad del viento	3.2
62446	7	Sololá	717	San Juan la Laguna	12	San Juan la Laguna	6	Junio	2023-06-28T00:00:00	2024-11-08T15:00:00	7	Dirección del viento	3.22
62447	7	Sololá	717	San Juan la Laguna	12	San Juan la Laguna	6	Junio	2023-06-28T00:00:00	2024-11-08T15:00:00	1	Precipitación	0
62448	7	Sololá	717	San Juan la Laguna	12	San Juan la Laguna	6	Junio	2023-06-28T00:00:00	2024-11-08T15:00:00	8	Radiación solar	499
62449	7	Sololá	717	San Juan la Laguna	12	San Juan la Laguna	6	Junio	2023-06-28T00:00:00	2024-11-08T16:00:00	2	Temperatura media	19.4
62450	7	Sololá	717	San Juan la Laguna	12	San Juan la Laguna	6	Junio	2023-06-28T00:00:00	2024-11-08T16:00:00	4	Temperatura máxima	21.1
62451	7	Sololá	717	San Juan la Laguna	12	San Juan la Laguna	6	Junio	2023-06-28T00:00:00	2024-11-08T16:00:00	3	Temperatura mínima	19.4
62452	7	Sololá	717	San Juan la Laguna	12	San Juan la Laguna	6	Junio	2023-06-28T00:00:00	2024-11-08T16:00:00	5	Humedad	82
62453	7	Sololá	717	San Juan la Laguna	12	San Juan la Laguna	6	Junio	2023-06-28T00:00:00	2024-11-08T16:00:00	6	Velocidad del viento	4.8
62454	7	Sololá	717	San Juan la Laguna	12	San Juan la Laguna	6	Junio	2023-06-28T00:00:00	2024-11-08T16:00:00	7	Dirección del viento	4.83
62455	7	Sololá	717	San Juan la Laguna	12	San Juan la Laguna	6	Junio	2023-06-28T00:00:00	2024-11-08T16:00:00	1	Precipitación	1.2
62456	7	Sololá	717	San Juan la Laguna	12	San Juan la Laguna	6	Junio	2023-06-28T00:00:00	2024-11-08T16:00:00	8	Radiación solar	307
62457	7	Sololá	717	San Juan la Laguna	12	San Juan la Laguna	6	Junio	2023-06-28T00:00:00	2024-11-08T17:00:00	2	Temperatura media	17.9
62458	7	Sololá	717	San Juan la Laguna	12	San Juan la Laguna	6	Junio	2023-06-28T00:00:00	2024-11-08T17:00:00	4	Temperatura máxima	19.4
62459	7	Sololá	717	San Juan la Laguna	12	San Juan la Laguna	6	Junio	2023-06-28T00:00:00	2024-11-08T17:00:00	3	Temperatura mínima	17.6
62460	7	Sololá	717	San Juan la Laguna	12	San Juan la Laguna	6	Junio	2023-06-28T00:00:00	2024-11-08T17:00:00	5	Humedad	88
62461	7	Sololá	717	San Juan la Laguna	12	San Juan la Laguna	6	Junio	2023-06-28T00:00:00	2024-11-08T17:00:00	6	Velocidad del viento	8
62462	7	Sololá	717	San Juan la Laguna	12	San Juan la Laguna	6	Junio	2023-06-28T00:00:00	2024-11-08T17:00:00	7	Dirección del viento	8.05
62463	7	Sololá	717	San Juan la Laguna	12	San Juan la Laguna	6	Junio	2023-06-28T00:00:00	2024-11-08T17:00:00	1	Precipitación	5.4
62464	7	Sololá	717	San Juan la Laguna	12	San Juan la Laguna	6	Junio	2023-06-28T00:00:00	2024-11-08T17:00:00	8	Radiación solar	117
62465	7	Sololá	717	San Juan la Laguna	12	San Juan la Laguna	6	Junio	2023-06-28T00:00:00	2024-11-08T18:00:00	2	Temperatura media	18.1
62466	7	Sololá	717	San Juan la Laguna	12	San Juan la Laguna	6	Junio	2023-06-28T00:00:00	2024-11-08T18:00:00	4	Temperatura máxima	18.1
62467	7	Sololá	717	San Juan la Laguna	12	San Juan la Laguna	6	Junio	2023-06-28T00:00:00	2024-11-08T18:00:00	3	Temperatura mínima	17.8
62468	7	Sololá	717	San Juan la Laguna	12	San Juan la Laguna	6	Junio	2023-06-28T00:00:00	2024-11-08T18:00:00	5	Humedad	89
62469	7	Sololá	717	San Juan la Laguna	12	San Juan la Laguna	6	Junio	2023-06-28T00:00:00	2024-11-08T18:00:00	6	Velocidad del viento	0
62470	7	Sololá	717	San Juan la Laguna	12	San Juan la Laguna	6	Junio	2023-06-28T00:00:00	2024-11-08T18:00:00	7	Dirección del viento	0
62471	7	Sololá	717	San Juan la Laguna	12	San Juan la Laguna	6	Junio	2023-06-28T00:00:00	2024-11-08T18:00:00	1	Precipitación	0.4
62472	7	Sololá	717	San Juan la Laguna	12	San Juan la Laguna	6	Junio	2023-06-28T00:00:00	2024-11-08T18:00:00	8	Radiación solar	56
62473	7	Sololá	717	San Juan la Laguna	12	San Juan la Laguna	6	Junio	2023-06-28T00:00:00	2024-11-08T19:00:00	2	Temperatura media	18.2
62474	7	Sololá	717	San Juan la Laguna	12	San Juan la Laguna	6	Junio	2023-06-28T00:00:00	2024-11-08T19:00:00	4	Temperatura máxima	18.3
62475	7	Sololá	717	San Juan la Laguna	12	San Juan la Laguna	6	Junio	2023-06-28T00:00:00	2024-11-08T19:00:00	3	Temperatura mínima	18.1
62476	7	Sololá	717	San Juan la Laguna	12	San Juan la Laguna	6	Junio	2023-06-28T00:00:00	2024-11-08T19:00:00	5	Humedad	90
62477	7	Sololá	717	San Juan la Laguna	12	San Juan la Laguna	6	Junio	2023-06-28T00:00:00	2024-11-08T19:00:00	6	Velocidad del viento	0
62478	7	Sololá	717	San Juan la Laguna	12	San Juan la Laguna	6	Junio	2023-06-28T00:00:00	2024-11-08T19:00:00	7	Dirección del viento	0
62479	7	Sololá	717	San Juan la Laguna	12	San Juan la Laguna	6	Junio	2023-06-28T00:00:00	2024-11-08T19:00:00	1	Precipitación	0
62480	7	Sololá	717	San Juan la Laguna	12	San Juan la Laguna	6	Junio	2023-06-28T00:00:00	2024-11-08T19:00:00	8	Radiación solar	0
62481	7	Sololá	717	San Juan la Laguna	12	San Juan la Laguna	6	Junio	2023-06-28T00:00:00	2024-11-08T20:00:00	2	Temperatura media	17.9
62482	7	Sololá	717	San Juan la Laguna	12	San Juan la Laguna	6	Junio	2023-06-28T00:00:00	2024-11-08T20:00:00	4	Temperatura máxima	18.2
62483	7	Sololá	717	San Juan la Laguna	12	San Juan la Laguna	6	Junio	2023-06-28T00:00:00	2024-11-08T20:00:00	3	Temperatura mínima	17.9
62484	7	Sololá	717	San Juan la Laguna	12	San Juan la Laguna	6	Junio	2023-06-28T00:00:00	2024-11-08T20:00:00	5	Humedad	90
62485	7	Sololá	717	San Juan la Laguna	12	San Juan la Laguna	6	Junio	2023-06-28T00:00:00	2024-11-08T20:00:00	6	Velocidad del viento	0
62486	7	Sololá	717	San Juan la Laguna	12	San Juan la Laguna	6	Junio	2023-06-28T00:00:00	2024-11-08T20:00:00	7	Dirección del viento	0
62487	7	Sololá	717	San Juan la Laguna	12	San Juan la Laguna	6	Junio	2023-06-28T00:00:00	2024-11-08T20:00:00	1	Precipitación	0
62488	7	Sololá	717	San Juan la Laguna	12	San Juan la Laguna	6	Junio	2023-06-28T00:00:00	2024-11-08T20:00:00	8	Radiación solar	0
62489	7	Sololá	717	San Juan la Laguna	12	San Juan la Laguna	6	Junio	2023-06-28T00:00:00	2024-11-08T21:00:00	2	Temperatura media	17.9
62490	7	Sololá	717	San Juan la Laguna	12	San Juan la Laguna	6	Junio	2023-06-28T00:00:00	2024-11-08T21:00:00	4	Temperatura máxima	18.1
62491	7	Sololá	717	San Juan la Laguna	12	San Juan la Laguna	6	Junio	2023-06-28T00:00:00	2024-11-08T21:00:00	3	Temperatura mínima	17.8
62492	7	Sololá	717	San Juan la Laguna	12	San Juan la Laguna	6	Junio	2023-06-28T00:00:00	2024-11-08T21:00:00	5	Humedad	89
62493	7	Sololá	717	San Juan la Laguna	12	San Juan la Laguna	6	Junio	2023-06-28T00:00:00	2024-11-08T21:00:00	6	Velocidad del viento	0
62494	7	Sololá	717	San Juan la Laguna	12	San Juan la Laguna	6	Junio	2023-06-28T00:00:00	2024-11-08T21:00:00	7	Dirección del viento	0
62495	7	Sololá	717	San Juan la Laguna	12	San Juan la Laguna	6	Junio	2023-06-28T00:00:00	2024-11-08T21:00:00	1	Precipitación	0
62496	7	Sololá	717	San Juan la Laguna	12	San Juan la Laguna	6	Junio	2023-06-28T00:00:00	2024-11-08T21:00:00	8	Radiación solar	0
62497	7	Sololá	717	San Juan la Laguna	12	San Juan la Laguna	6	Junio	2023-06-28T00:00:00	2024-11-08T22:00:00	2	Temperatura media	17.6
62498	7	Sololá	717	San Juan la Laguna	12	San Juan la Laguna	6	Junio	2023-06-28T00:00:00	2024-11-08T22:00:00	4	Temperatura máxima	17.9
62499	7	Sololá	717	San Juan la Laguna	12	San Juan la Laguna	6	Junio	2023-06-28T00:00:00	2024-11-08T22:00:00	3	Temperatura mínima	17.5
62500	7	Sololá	717	San Juan la Laguna	12	San Juan la Laguna	6	Junio	2023-06-28T00:00:00	2024-11-08T22:00:00	5	Humedad	89
62501	7	Sololá	717	San Juan la Laguna	12	San Juan la Laguna	6	Junio	2023-06-28T00:00:00	2024-11-08T22:00:00	6	Velocidad del viento	0
62502	7	Sololá	717	San Juan la Laguna	12	San Juan la Laguna	6	Junio	2023-06-28T00:00:00	2024-11-08T22:00:00	7	Dirección del viento	0
62503	7	Sololá	717	San Juan la Laguna	12	San Juan la Laguna	6	Junio	2023-06-28T00:00:00	2024-11-08T22:00:00	1	Precipitación	0
62504	7	Sololá	717	San Juan la Laguna	12	San Juan la Laguna	6	Junio	2023-06-28T00:00:00	2024-11-08T22:00:00	8	Radiación solar	0
62505	7	Sololá	717	San Juan la Laguna	12	San Juan la Laguna	6	Junio	2023-06-28T00:00:00	2024-11-08T23:00:00	2	Temperatura media	17.6
62506	7	Sololá	717	San Juan la Laguna	12	San Juan la Laguna	6	Junio	2023-06-28T00:00:00	2024-11-08T23:00:00	4	Temperatura máxima	17.7
62507	7	Sololá	717	San Juan la Laguna	12	San Juan la Laguna	6	Junio	2023-06-28T00:00:00	2024-11-08T23:00:00	3	Temperatura mínima	17.5
62508	7	Sololá	717	San Juan la Laguna	12	San Juan la Laguna	6	Junio	2023-06-28T00:00:00	2024-11-08T23:00:00	5	Humedad	89
62509	7	Sololá	717	San Juan la Laguna	12	San Juan la Laguna	6	Junio	2023-06-28T00:00:00	2024-11-08T23:00:00	6	Velocidad del viento	0
62510	7	Sololá	717	San Juan la Laguna	12	San Juan la Laguna	6	Junio	2023-06-28T00:00:00	2024-11-08T23:00:00	7	Dirección del viento	0
62511	7	Sololá	717	San Juan la Laguna	12	San Juan la Laguna	6	Junio	2023-06-28T00:00:00	2024-11-08T23:00:00	1	Precipitación	0
62512	7	Sololá	717	San Juan la Laguna	12	San Juan la Laguna	6	Junio	2023-06-28T00:00:00	2024-11-08T23:00:00	8	Radiación solar	0
62513	7	Sololá	717	San Juan la Laguna	12	San Juan la Laguna	6	Junio	2023-06-29T00:00:00	2024-11-08T00:00:00	2	Temperatura media	17.4
62514	7	Sololá	717	San Juan la Laguna	12	San Juan la Laguna	6	Junio	2023-06-29T00:00:00	2024-11-08T00:00:00	4	Temperatura máxima	17.6
62515	7	Sololá	717	San Juan la Laguna	12	San Juan la Laguna	6	Junio	2023-06-29T00:00:00	2024-11-08T00:00:00	3	Temperatura mínima	17.3
62516	7	Sololá	717	San Juan la Laguna	12	San Juan la Laguna	6	Junio	2023-06-29T00:00:00	2024-11-08T00:00:00	5	Humedad	89
62517	7	Sololá	717	San Juan la Laguna	12	San Juan la Laguna	6	Junio	2023-06-29T00:00:00	2024-11-08T00:00:00	6	Velocidad del viento	0
62518	7	Sololá	717	San Juan la Laguna	12	San Juan la Laguna	6	Junio	2023-06-29T00:00:00	2024-11-08T00:00:00	7	Dirección del viento	0
62519	7	Sololá	717	San Juan la Laguna	12	San Juan la Laguna	6	Junio	2023-06-29T00:00:00	2024-11-08T00:00:00	1	Precipitación	0
62520	7	Sololá	717	San Juan la Laguna	12	San Juan la Laguna	6	Junio	2023-06-29T00:00:00	2024-11-08T00:00:00	8	Radiación solar	0
62521	7	Sololá	717	San Juan la Laguna	12	San Juan la Laguna	6	Junio	2023-06-29T00:00:00	2024-11-08T01:00:00	2	Temperatura media	17.5
62522	7	Sololá	717	San Juan la Laguna	12	San Juan la Laguna	6	Junio	2023-06-29T00:00:00	2024-11-08T01:00:00	4	Temperatura máxima	17.6
62523	7	Sololá	717	San Juan la Laguna	12	San Juan la Laguna	6	Junio	2023-06-29T00:00:00	2024-11-08T01:00:00	3	Temperatura mínima	17.4
62524	7	Sololá	717	San Juan la Laguna	12	San Juan la Laguna	6	Junio	2023-06-29T00:00:00	2024-11-08T01:00:00	5	Humedad	87
62525	7	Sololá	717	San Juan la Laguna	12	San Juan la Laguna	6	Junio	2023-06-29T00:00:00	2024-11-08T01:00:00	6	Velocidad del viento	0
62526	7	Sololá	717	San Juan la Laguna	12	San Juan la Laguna	6	Junio	2023-06-29T00:00:00	2024-11-08T01:00:00	7	Dirección del viento	0
62527	7	Sololá	717	San Juan la Laguna	12	San Juan la Laguna	6	Junio	2023-06-29T00:00:00	2024-11-08T01:00:00	1	Precipitación	0
62528	7	Sololá	717	San Juan la Laguna	12	San Juan la Laguna	6	Junio	2023-06-29T00:00:00	2024-11-08T01:00:00	8	Radiación solar	0
62529	7	Sololá	717	San Juan la Laguna	12	San Juan la Laguna	6	Junio	2023-06-29T00:00:00	2024-11-08T02:00:00	2	Temperatura media	17.2
62530	7	Sololá	717	San Juan la Laguna	12	San Juan la Laguna	6	Junio	2023-06-29T00:00:00	2024-11-08T02:00:00	4	Temperatura máxima	17.5
62531	7	Sololá	717	San Juan la Laguna	12	San Juan la Laguna	6	Junio	2023-06-29T00:00:00	2024-11-08T02:00:00	3	Temperatura mínima	17
62532	7	Sololá	717	San Juan la Laguna	12	San Juan la Laguna	6	Junio	2023-06-29T00:00:00	2024-11-08T02:00:00	5	Humedad	87
62533	7	Sololá	717	San Juan la Laguna	12	San Juan la Laguna	6	Junio	2023-06-29T00:00:00	2024-11-08T02:00:00	6	Velocidad del viento	0
62534	7	Sololá	717	San Juan la Laguna	12	San Juan la Laguna	6	Junio	2023-06-29T00:00:00	2024-11-08T02:00:00	7	Dirección del viento	0
62535	7	Sololá	717	San Juan la Laguna	12	San Juan la Laguna	6	Junio	2023-06-29T00:00:00	2024-11-08T02:00:00	1	Precipitación	0
62536	7	Sololá	717	San Juan la Laguna	12	San Juan la Laguna	6	Junio	2023-06-29T00:00:00	2024-11-08T02:00:00	8	Radiación solar	0
62537	7	Sololá	717	San Juan la Laguna	12	San Juan la Laguna	6	Junio	2023-06-29T00:00:00	2024-11-08T03:00:00	2	Temperatura media	16.7
62538	7	Sololá	717	San Juan la Laguna	12	San Juan la Laguna	6	Junio	2023-06-29T00:00:00	2024-11-08T03:00:00	4	Temperatura máxima	17.2
62539	7	Sololá	717	San Juan la Laguna	12	San Juan la Laguna	6	Junio	2023-06-29T00:00:00	2024-11-08T03:00:00	3	Temperatura mínima	16.6
62540	7	Sololá	717	San Juan la Laguna	12	San Juan la Laguna	6	Junio	2023-06-29T00:00:00	2024-11-08T03:00:00	5	Humedad	89
62541	7	Sololá	717	San Juan la Laguna	12	San Juan la Laguna	6	Junio	2023-06-29T00:00:00	2024-11-08T03:00:00	6	Velocidad del viento	0
62542	7	Sololá	717	San Juan la Laguna	12	San Juan la Laguna	6	Junio	2023-06-29T00:00:00	2024-11-08T03:00:00	7	Dirección del viento	0
62543	7	Sololá	717	San Juan la Laguna	12	San Juan la Laguna	6	Junio	2023-06-29T00:00:00	2024-11-08T03:00:00	1	Precipitación	0
62544	7	Sololá	717	San Juan la Laguna	12	San Juan la Laguna	6	Junio	2023-06-29T00:00:00	2024-11-08T03:00:00	8	Radiación solar	0
62545	7	Sololá	717	San Juan la Laguna	12	San Juan la Laguna	6	Junio	2023-06-29T00:00:00	2024-11-08T04:00:00	2	Temperatura media	16.8
62546	7	Sololá	717	San Juan la Laguna	12	San Juan la Laguna	6	Junio	2023-06-29T00:00:00	2024-11-08T04:00:00	4	Temperatura máxima	16.9
62547	7	Sololá	717	San Juan la Laguna	12	San Juan la Laguna	6	Junio	2023-06-29T00:00:00	2024-11-08T04:00:00	3	Temperatura mínima	16.6
62548	7	Sololá	717	San Juan la Laguna	12	San Juan la Laguna	6	Junio	2023-06-29T00:00:00	2024-11-08T04:00:00	5	Humedad	89
62549	7	Sololá	717	San Juan la Laguna	12	San Juan la Laguna	6	Junio	2023-06-29T00:00:00	2024-11-08T04:00:00	6	Velocidad del viento	0
62550	7	Sololá	717	San Juan la Laguna	12	San Juan la Laguna	6	Junio	2023-06-29T00:00:00	2024-11-08T04:00:00	7	Dirección del viento	0
62551	7	Sololá	717	San Juan la Laguna	12	San Juan la Laguna	6	Junio	2023-06-29T00:00:00	2024-11-08T04:00:00	1	Precipitación	0
62552	7	Sololá	717	San Juan la Laguna	12	San Juan la Laguna	6	Junio	2023-06-29T00:00:00	2024-11-08T04:00:00	8	Radiación solar	0
62553	7	Sololá	717	San Juan la Laguna	12	San Juan la Laguna	6	Junio	2023-06-29T00:00:00	2024-11-08T05:00:00	2	Temperatura media	16.9
62554	7	Sololá	717	San Juan la Laguna	12	San Juan la Laguna	6	Junio	2023-06-29T00:00:00	2024-11-08T05:00:00	4	Temperatura máxima	17
62555	7	Sololá	717	San Juan la Laguna	12	San Juan la Laguna	6	Junio	2023-06-29T00:00:00	2024-11-08T05:00:00	3	Temperatura mínima	16.8
62556	7	Sololá	717	San Juan la Laguna	12	San Juan la Laguna	6	Junio	2023-06-29T00:00:00	2024-11-08T05:00:00	5	Humedad	89
62557	7	Sololá	717	San Juan la Laguna	12	San Juan la Laguna	6	Junio	2023-06-29T00:00:00	2024-11-08T05:00:00	6	Velocidad del viento	0
62558	7	Sololá	717	San Juan la Laguna	12	San Juan la Laguna	6	Junio	2023-06-29T00:00:00	2024-11-08T05:00:00	7	Dirección del viento	0
62559	7	Sololá	717	San Juan la Laguna	12	San Juan la Laguna	6	Junio	2023-06-29T00:00:00	2024-11-08T05:00:00	1	Precipitación	0
62560	7	Sololá	717	San Juan la Laguna	12	San Juan la Laguna	6	Junio	2023-06-29T00:00:00	2024-11-08T05:00:00	8	Radiación solar	0
62561	7	Sololá	717	San Juan la Laguna	12	San Juan la Laguna	6	Junio	2023-06-29T00:00:00	2024-11-08T06:00:00	2	Temperatura media	16.9
62562	7	Sololá	717	San Juan la Laguna	12	San Juan la Laguna	6	Junio	2023-06-29T00:00:00	2024-11-08T06:00:00	4	Temperatura máxima	16.9
62563	7	Sololá	717	San Juan la Laguna	12	San Juan la Laguna	6	Junio	2023-06-29T00:00:00	2024-11-08T06:00:00	3	Temperatura mínima	16.7
62564	7	Sololá	717	San Juan la Laguna	12	San Juan la Laguna	6	Junio	2023-06-29T00:00:00	2024-11-08T06:00:00	5	Humedad	90
62565	7	Sololá	717	San Juan la Laguna	12	San Juan la Laguna	6	Junio	2023-06-29T00:00:00	2024-11-08T06:00:00	6	Velocidad del viento	0
62566	7	Sololá	717	San Juan la Laguna	12	San Juan la Laguna	6	Junio	2023-06-29T00:00:00	2024-11-08T06:00:00	7	Dirección del viento	0
62567	7	Sololá	717	San Juan la Laguna	12	San Juan la Laguna	6	Junio	2023-06-29T00:00:00	2024-11-08T06:00:00	1	Precipitación	0
62568	7	Sololá	717	San Juan la Laguna	12	San Juan la Laguna	6	Junio	2023-06-29T00:00:00	2024-11-08T06:00:00	8	Radiación solar	10
62569	7	Sololá	717	San Juan la Laguna	12	San Juan la Laguna	6	Junio	2023-06-29T00:00:00	2024-11-08T07:00:00	2	Temperatura media	18
62570	7	Sololá	717	San Juan la Laguna	12	San Juan la Laguna	6	Junio	2023-06-29T00:00:00	2024-11-08T07:00:00	4	Temperatura máxima	18
62571	7	Sololá	717	San Juan la Laguna	12	San Juan la Laguna	6	Junio	2023-06-29T00:00:00	2024-11-08T07:00:00	3	Temperatura mínima	16.7
62572	7	Sololá	717	San Juan la Laguna	12	San Juan la Laguna	6	Junio	2023-06-29T00:00:00	2024-11-08T07:00:00	5	Humedad	91
62573	7	Sololá	717	San Juan la Laguna	12	San Juan la Laguna	6	Junio	2023-06-29T00:00:00	2024-11-08T07:00:00	6	Velocidad del viento	0
62574	7	Sololá	717	San Juan la Laguna	12	San Juan la Laguna	6	Junio	2023-06-29T00:00:00	2024-11-08T07:00:00	7	Dirección del viento	0
62575	7	Sololá	717	San Juan la Laguna	12	San Juan la Laguna	6	Junio	2023-06-29T00:00:00	2024-11-08T07:00:00	1	Precipitación	0
62576	7	Sololá	717	San Juan la Laguna	12	San Juan la Laguna	6	Junio	2023-06-29T00:00:00	2024-11-08T07:00:00	8	Radiación solar	141
62577	7	Sololá	717	San Juan la Laguna	12	San Juan la Laguna	6	Junio	2023-06-29T00:00:00	2024-11-08T08:00:00	2	Temperatura media	21.7
62578	7	Sololá	717	San Juan la Laguna	12	San Juan la Laguna	6	Junio	2023-06-29T00:00:00	2024-11-08T08:00:00	4	Temperatura máxima	21.7
62579	7	Sololá	717	San Juan la Laguna	12	San Juan la Laguna	6	Junio	2023-06-29T00:00:00	2024-11-08T08:00:00	3	Temperatura mínima	18
62580	7	Sololá	717	San Juan la Laguna	12	San Juan la Laguna	6	Junio	2023-06-29T00:00:00	2024-11-08T08:00:00	5	Humedad	75
62581	7	Sololá	717	San Juan la Laguna	12	San Juan la Laguna	6	Junio	2023-06-29T00:00:00	2024-11-08T08:00:00	6	Velocidad del viento	0
62582	7	Sololá	717	San Juan la Laguna	12	San Juan la Laguna	6	Junio	2023-06-29T00:00:00	2024-11-08T08:00:00	7	Dirección del viento	0
62583	7	Sololá	717	San Juan la Laguna	12	San Juan la Laguna	6	Junio	2023-06-29T00:00:00	2024-11-08T08:00:00	1	Precipitación	0
62584	7	Sololá	717	San Juan la Laguna	12	San Juan la Laguna	6	Junio	2023-06-29T00:00:00	2024-11-08T08:00:00	8	Radiación solar	352
62585	7	Sololá	717	San Juan la Laguna	12	San Juan la Laguna	6	Junio	2023-06-29T00:00:00	2024-11-08T09:00:00	2	Temperatura media	23.7
62586	7	Sololá	717	San Juan la Laguna	12	San Juan la Laguna	6	Junio	2023-06-29T00:00:00	2024-11-08T09:00:00	4	Temperatura máxima	23.7
62587	7	Sololá	717	San Juan la Laguna	12	San Juan la Laguna	6	Junio	2023-06-29T00:00:00	2024-11-08T09:00:00	3	Temperatura mínima	21.7
62588	7	Sololá	717	San Juan la Laguna	12	San Juan la Laguna	6	Junio	2023-06-29T00:00:00	2024-11-08T09:00:00	5	Humedad	66
62589	7	Sololá	717	San Juan la Laguna	12	San Juan la Laguna	6	Junio	2023-06-29T00:00:00	2024-11-08T09:00:00	6	Velocidad del viento	0
62590	7	Sololá	717	San Juan la Laguna	12	San Juan la Laguna	6	Junio	2023-06-29T00:00:00	2024-11-08T09:00:00	7	Dirección del viento	0
62591	7	Sololá	717	San Juan la Laguna	12	San Juan la Laguna	6	Junio	2023-06-29T00:00:00	2024-11-08T09:00:00	1	Precipitación	0
62592	7	Sololá	717	San Juan la Laguna	12	San Juan la Laguna	6	Junio	2023-06-29T00:00:00	2024-11-08T09:00:00	8	Radiación solar	579
62593	7	Sololá	717	San Juan la Laguna	12	San Juan la Laguna	6	Junio	2023-06-29T00:00:00	2024-11-08T10:00:00	2	Temperatura media	24.4
62594	7	Sololá	717	San Juan la Laguna	12	San Juan la Laguna	6	Junio	2023-06-29T00:00:00	2024-11-08T10:00:00	4	Temperatura máxima	24.8
62595	7	Sololá	717	San Juan la Laguna	12	San Juan la Laguna	6	Junio	2023-06-29T00:00:00	2024-11-08T10:00:00	3	Temperatura mínima	23.7
62596	7	Sololá	717	San Juan la Laguna	12	San Juan la Laguna	6	Junio	2023-06-29T00:00:00	2024-11-08T10:00:00	5	Humedad	65
62597	7	Sololá	717	San Juan la Laguna	12	San Juan la Laguna	6	Junio	2023-06-29T00:00:00	2024-11-08T10:00:00	6	Velocidad del viento	0
62598	7	Sololá	717	San Juan la Laguna	12	San Juan la Laguna	6	Junio	2023-06-29T00:00:00	2024-11-08T10:00:00	7	Dirección del viento	0
62599	7	Sololá	717	San Juan la Laguna	12	San Juan la Laguna	6	Junio	2023-06-29T00:00:00	2024-11-08T10:00:00	1	Precipitación	0
62600	7	Sololá	717	San Juan la Laguna	12	San Juan la Laguna	6	Junio	2023-06-29T00:00:00	2024-11-08T10:00:00	8	Radiación solar	747
62601	7	Sololá	717	San Juan la Laguna	12	San Juan la Laguna	6	Junio	2023-06-29T00:00:00	2024-11-08T11:00:00	2	Temperatura media	23.7
62602	7	Sololá	717	San Juan la Laguna	12	San Juan la Laguna	6	Junio	2023-06-29T00:00:00	2024-11-08T11:00:00	4	Temperatura máxima	24.7
62603	7	Sololá	717	San Juan la Laguna	12	San Juan la Laguna	6	Junio	2023-06-29T00:00:00	2024-11-08T11:00:00	3	Temperatura mínima	23.6
62604	7	Sololá	717	San Juan la Laguna	12	San Juan la Laguna	6	Junio	2023-06-29T00:00:00	2024-11-08T11:00:00	5	Humedad	70
62605	7	Sololá	717	San Juan la Laguna	12	San Juan la Laguna	6	Junio	2023-06-29T00:00:00	2024-11-08T11:00:00	6	Velocidad del viento	0
62606	7	Sololá	717	San Juan la Laguna	12	San Juan la Laguna	6	Junio	2023-06-29T00:00:00	2024-11-08T11:00:00	7	Dirección del viento	0
62607	7	Sololá	717	San Juan la Laguna	12	San Juan la Laguna	6	Junio	2023-06-29T00:00:00	2024-11-08T11:00:00	1	Precipitación	0
62608	7	Sololá	717	San Juan la Laguna	12	San Juan la Laguna	6	Junio	2023-06-29T00:00:00	2024-11-08T11:00:00	8	Radiación solar	845
62609	7	Sololá	717	San Juan la Laguna	12	San Juan la Laguna	6	Junio	2023-06-29T00:00:00	2024-11-08T12:00:00	2	Temperatura media	24.7
62610	7	Sololá	717	San Juan la Laguna	12	San Juan la Laguna	6	Junio	2023-06-29T00:00:00	2024-11-08T12:00:00	4	Temperatura máxima	24.9
62611	7	Sololá	717	San Juan la Laguna	12	San Juan la Laguna	6	Junio	2023-06-29T00:00:00	2024-11-08T12:00:00	3	Temperatura mínima	23.7
62612	7	Sololá	717	San Juan la Laguna	12	San Juan la Laguna	6	Junio	2023-06-29T00:00:00	2024-11-08T12:00:00	5	Humedad	71
62613	7	Sololá	717	San Juan la Laguna	12	San Juan la Laguna	6	Junio	2023-06-29T00:00:00	2024-11-08T12:00:00	6	Velocidad del viento	3.2
62614	7	Sololá	717	San Juan la Laguna	12	San Juan la Laguna	6	Junio	2023-06-29T00:00:00	2024-11-08T12:00:00	7	Dirección del viento	3.22
62615	7	Sololá	717	San Juan la Laguna	12	San Juan la Laguna	6	Junio	2023-06-29T00:00:00	2024-11-08T12:00:00	1	Precipitación	0
62616	7	Sololá	717	San Juan la Laguna	12	San Juan la Laguna	6	Junio	2023-06-29T00:00:00	2024-11-08T12:00:00	8	Radiación solar	979
62617	7	Sololá	717	San Juan la Laguna	12	San Juan la Laguna	6	Junio	2023-06-29T00:00:00	2024-11-08T13:00:00	2	Temperatura media	24.6
62618	7	Sololá	717	San Juan la Laguna	12	San Juan la Laguna	6	Junio	2023-06-29T00:00:00	2024-11-08T13:00:00	4	Temperatura máxima	24.9
62619	7	Sololá	717	San Juan la Laguna	12	San Juan la Laguna	6	Junio	2023-06-29T00:00:00	2024-11-08T13:00:00	3	Temperatura mínima	24.3
62620	7	Sololá	717	San Juan la Laguna	12	San Juan la Laguna	6	Junio	2023-06-29T00:00:00	2024-11-08T13:00:00	5	Humedad	72
62621	7	Sololá	717	San Juan la Laguna	12	San Juan la Laguna	6	Junio	2023-06-29T00:00:00	2024-11-08T13:00:00	6	Velocidad del viento	4.8
62622	7	Sololá	717	San Juan la Laguna	12	San Juan la Laguna	6	Junio	2023-06-29T00:00:00	2024-11-08T13:00:00	7	Dirección del viento	4.83
62623	7	Sololá	717	San Juan la Laguna	12	San Juan la Laguna	6	Junio	2023-06-29T00:00:00	2024-11-08T13:00:00	1	Precipitación	0
62624	7	Sololá	717	San Juan la Laguna	12	San Juan la Laguna	6	Junio	2023-06-29T00:00:00	2024-11-08T13:00:00	8	Radiación solar	791
62625	7	Sololá	717	San Juan la Laguna	12	San Juan la Laguna	6	Junio	2023-06-29T00:00:00	2024-11-08T14:00:00	2	Temperatura media	23.6
62626	7	Sololá	717	San Juan la Laguna	12	San Juan la Laguna	6	Junio	2023-06-29T00:00:00	2024-11-08T14:00:00	4	Temperatura máxima	24.9
62627	7	Sololá	717	San Juan la Laguna	12	San Juan la Laguna	6	Junio	2023-06-29T00:00:00	2024-11-08T14:00:00	3	Temperatura mínima	23.6
62628	7	Sololá	717	San Juan la Laguna	12	San Juan la Laguna	6	Junio	2023-06-29T00:00:00	2024-11-08T14:00:00	5	Humedad	74
62629	7	Sololá	717	San Juan la Laguna	12	San Juan la Laguna	6	Junio	2023-06-29T00:00:00	2024-11-08T14:00:00	6	Velocidad del viento	4.8
62630	7	Sololá	717	San Juan la Laguna	12	San Juan la Laguna	6	Junio	2023-06-29T00:00:00	2024-11-08T14:00:00	7	Dirección del viento	4.83
62631	7	Sololá	717	San Juan la Laguna	12	San Juan la Laguna	6	Junio	2023-06-29T00:00:00	2024-11-08T14:00:00	1	Precipitación	0
62632	7	Sololá	717	San Juan la Laguna	12	San Juan la Laguna	6	Junio	2023-06-29T00:00:00	2024-11-08T14:00:00	8	Radiación solar	328
62633	7	Sololá	717	San Juan la Laguna	12	San Juan la Laguna	6	Junio	2023-06-29T00:00:00	2024-11-08T15:00:00	2	Temperatura media	24.9
62634	7	Sololá	717	San Juan la Laguna	12	San Juan la Laguna	6	Junio	2023-06-29T00:00:00	2024-11-08T15:00:00	4	Temperatura máxima	25.1
62635	7	Sololá	717	San Juan la Laguna	12	San Juan la Laguna	6	Junio	2023-06-29T00:00:00	2024-11-08T15:00:00	3	Temperatura mínima	23.6
62636	7	Sololá	717	San Juan la Laguna	12	San Juan la Laguna	6	Junio	2023-06-29T00:00:00	2024-11-08T15:00:00	5	Humedad	70
62637	7	Sololá	717	San Juan la Laguna	12	San Juan la Laguna	6	Junio	2023-06-29T00:00:00	2024-11-08T15:00:00	6	Velocidad del viento	1.6
62638	7	Sololá	717	San Juan la Laguna	12	San Juan la Laguna	6	Junio	2023-06-29T00:00:00	2024-11-08T15:00:00	7	Dirección del viento	1.61
62639	7	Sololá	717	San Juan la Laguna	12	San Juan la Laguna	6	Junio	2023-06-29T00:00:00	2024-11-08T15:00:00	1	Precipitación	0
62640	7	Sololá	717	San Juan la Laguna	12	San Juan la Laguna	6	Junio	2023-06-29T00:00:00	2024-11-08T15:00:00	8	Radiación solar	665
62641	7	Sololá	717	San Juan la Laguna	12	San Juan la Laguna	6	Junio	2023-06-29T00:00:00	2024-11-08T16:00:00	2	Temperatura media	21.9
62642	7	Sololá	717	San Juan la Laguna	12	San Juan la Laguna	6	Junio	2023-06-29T00:00:00	2024-11-08T16:00:00	4	Temperatura máxima	25.1
62643	7	Sololá	717	San Juan la Laguna	12	San Juan la Laguna	6	Junio	2023-06-29T00:00:00	2024-11-08T16:00:00	3	Temperatura mínima	21.9
62644	7	Sololá	717	San Juan la Laguna	12	San Juan la Laguna	6	Junio	2023-06-29T00:00:00	2024-11-08T16:00:00	5	Humedad	80
62645	7	Sololá	717	San Juan la Laguna	12	San Juan la Laguna	6	Junio	2023-06-29T00:00:00	2024-11-08T16:00:00	6	Velocidad del viento	4.8
62646	7	Sololá	717	San Juan la Laguna	12	San Juan la Laguna	6	Junio	2023-06-29T00:00:00	2024-11-08T16:00:00	7	Dirección del viento	4.83
62647	7	Sololá	717	San Juan la Laguna	12	San Juan la Laguna	6	Junio	2023-06-29T00:00:00	2024-11-08T16:00:00	1	Precipitación	0
62648	7	Sololá	717	San Juan la Laguna	12	San Juan la Laguna	6	Junio	2023-06-29T00:00:00	2024-11-08T16:00:00	8	Radiación solar	540
62649	7	Sololá	717	San Juan la Laguna	12	San Juan la Laguna	6	Junio	2023-06-29T00:00:00	2024-11-08T17:00:00	2	Temperatura media	21.2
62650	7	Sololá	717	San Juan la Laguna	12	San Juan la Laguna	6	Junio	2023-06-29T00:00:00	2024-11-08T17:00:00	4	Temperatura máxima	21.9
62651	7	Sololá	717	San Juan la Laguna	12	San Juan la Laguna	6	Junio	2023-06-29T00:00:00	2024-11-08T17:00:00	3	Temperatura mínima	21.1
62652	7	Sololá	717	San Juan la Laguna	12	San Juan la Laguna	6	Junio	2023-06-29T00:00:00	2024-11-08T17:00:00	5	Humedad	85
62653	7	Sololá	717	San Juan la Laguna	12	San Juan la Laguna	6	Junio	2023-06-29T00:00:00	2024-11-08T17:00:00	6	Velocidad del viento	1.6
62654	7	Sololá	717	San Juan la Laguna	12	San Juan la Laguna	6	Junio	2023-06-29T00:00:00	2024-11-08T17:00:00	7	Dirección del viento	1.61
62655	7	Sololá	717	San Juan la Laguna	12	San Juan la Laguna	6	Junio	2023-06-29T00:00:00	2024-11-08T17:00:00	1	Precipitación	0
62656	7	Sololá	717	San Juan la Laguna	12	San Juan la Laguna	6	Junio	2023-06-29T00:00:00	2024-11-08T17:00:00	8	Radiación solar	266
62657	7	Sololá	717	San Juan la Laguna	12	San Juan la Laguna	6	Junio	2023-06-29T00:00:00	2024-11-08T18:00:00	2	Temperatura media	20.7
62658	7	Sololá	717	San Juan la Laguna	12	San Juan la Laguna	6	Junio	2023-06-29T00:00:00	2024-11-08T18:00:00	4	Temperatura máxima	21.3
62659	7	Sololá	717	San Juan la Laguna	12	San Juan la Laguna	6	Junio	2023-06-29T00:00:00	2024-11-08T18:00:00	3	Temperatura mínima	20.7
62660	7	Sololá	717	San Juan la Laguna	12	San Juan la Laguna	6	Junio	2023-06-29T00:00:00	2024-11-08T18:00:00	5	Humedad	83
62661	7	Sololá	717	San Juan la Laguna	12	San Juan la Laguna	6	Junio	2023-06-29T00:00:00	2024-11-08T18:00:00	6	Velocidad del viento	0
62662	7	Sololá	717	San Juan la Laguna	12	San Juan la Laguna	6	Junio	2023-06-29T00:00:00	2024-11-08T18:00:00	7	Dirección del viento	0
62663	7	Sololá	717	San Juan la Laguna	12	San Juan la Laguna	6	Junio	2023-06-29T00:00:00	2024-11-08T18:00:00	1	Precipitación	0.4
62664	7	Sololá	717	San Juan la Laguna	12	San Juan la Laguna	6	Junio	2023-06-29T00:00:00	2024-11-08T18:00:00	8	Radiación solar	58
62665	7	Sololá	717	San Juan la Laguna	12	San Juan la Laguna	6	Junio	2023-06-29T00:00:00	2024-11-08T19:00:00	2	Temperatura media	19.7
62666	7	Sololá	717	San Juan la Laguna	12	San Juan la Laguna	6	Junio	2023-06-29T00:00:00	2024-11-08T19:00:00	4	Temperatura máxima	20.7
62667	7	Sololá	717	San Juan la Laguna	12	San Juan la Laguna	6	Junio	2023-06-29T00:00:00	2024-11-08T19:00:00	3	Temperatura mínima	19.5
62668	7	Sololá	717	San Juan la Laguna	12	San Juan la Laguna	6	Junio	2023-06-29T00:00:00	2024-11-08T19:00:00	5	Humedad	89
62669	7	Sololá	717	San Juan la Laguna	12	San Juan la Laguna	6	Junio	2023-06-29T00:00:00	2024-11-08T19:00:00	6	Velocidad del viento	0
62670	7	Sololá	717	San Juan la Laguna	12	San Juan la Laguna	6	Junio	2023-06-29T00:00:00	2024-11-08T19:00:00	7	Dirección del viento	0
62671	7	Sololá	717	San Juan la Laguna	12	San Juan la Laguna	6	Junio	2023-06-29T00:00:00	2024-11-08T19:00:00	1	Precipitación	3.6
62672	7	Sololá	717	San Juan la Laguna	12	San Juan la Laguna	6	Junio	2023-06-29T00:00:00	2024-11-08T19:00:00	8	Radiación solar	0
62673	7	Sololá	717	San Juan la Laguna	12	San Juan la Laguna	6	Junio	2023-06-29T00:00:00	2024-11-08T20:00:00	2	Temperatura media	19.3
62674	7	Sololá	717	San Juan la Laguna	12	San Juan la Laguna	6	Junio	2023-06-29T00:00:00	2024-11-08T20:00:00	4	Temperatura máxima	19.7
62675	7	Sololá	717	San Juan la Laguna	12	San Juan la Laguna	6	Junio	2023-06-29T00:00:00	2024-11-08T20:00:00	3	Temperatura mínima	19.3
62676	7	Sololá	717	San Juan la Laguna	12	San Juan la Laguna	6	Junio	2023-06-29T00:00:00	2024-11-08T20:00:00	5	Humedad	90
62677	7	Sololá	717	San Juan la Laguna	12	San Juan la Laguna	6	Junio	2023-06-29T00:00:00	2024-11-08T20:00:00	6	Velocidad del viento	0
62678	7	Sololá	717	San Juan la Laguna	12	San Juan la Laguna	6	Junio	2023-06-29T00:00:00	2024-11-08T20:00:00	7	Dirección del viento	0
62679	7	Sololá	717	San Juan la Laguna	12	San Juan la Laguna	6	Junio	2023-06-29T00:00:00	2024-11-08T20:00:00	1	Precipitación	0
62680	7	Sololá	717	San Juan la Laguna	12	San Juan la Laguna	6	Junio	2023-06-29T00:00:00	2024-11-08T20:00:00	8	Radiación solar	0
62681	7	Sololá	717	San Juan la Laguna	12	San Juan la Laguna	6	Junio	2023-06-29T00:00:00	2024-11-08T21:00:00	2	Temperatura media	18.6
62682	7	Sololá	717	San Juan la Laguna	12	San Juan la Laguna	6	Junio	2023-06-29T00:00:00	2024-11-08T21:00:00	4	Temperatura máxima	19.3
62683	7	Sololá	717	San Juan la Laguna	12	San Juan la Laguna	6	Junio	2023-06-29T00:00:00	2024-11-08T21:00:00	3	Temperatura mínima	18.6
62684	7	Sololá	717	San Juan la Laguna	12	San Juan la Laguna	6	Junio	2023-06-29T00:00:00	2024-11-08T21:00:00	5	Humedad	86
62685	7	Sololá	717	San Juan la Laguna	12	San Juan la Laguna	6	Junio	2023-06-29T00:00:00	2024-11-08T21:00:00	6	Velocidad del viento	0
62686	7	Sololá	717	San Juan la Laguna	12	San Juan la Laguna	6	Junio	2023-06-29T00:00:00	2024-11-08T21:00:00	7	Dirección del viento	0
62687	7	Sololá	717	San Juan la Laguna	12	San Juan la Laguna	6	Junio	2023-06-29T00:00:00	2024-11-08T21:00:00	1	Precipitación	0
62688	7	Sololá	717	San Juan la Laguna	12	San Juan la Laguna	6	Junio	2023-06-29T00:00:00	2024-11-08T21:00:00	8	Radiación solar	0
62689	7	Sololá	717	San Juan la Laguna	12	San Juan la Laguna	6	Junio	2023-06-29T00:00:00	2024-11-08T22:00:00	2	Temperatura media	18.3
62690	7	Sololá	717	San Juan la Laguna	12	San Juan la Laguna	6	Junio	2023-06-29T00:00:00	2024-11-08T22:00:00	4	Temperatura máxima	18.6
62691	7	Sololá	717	San Juan la Laguna	12	San Juan la Laguna	6	Junio	2023-06-29T00:00:00	2024-11-08T22:00:00	3	Temperatura mínima	17.9
62692	7	Sololá	717	San Juan la Laguna	12	San Juan la Laguna	6	Junio	2023-06-29T00:00:00	2024-11-08T22:00:00	5	Humedad	82
62693	7	Sololá	717	San Juan la Laguna	12	San Juan la Laguna	6	Junio	2023-06-29T00:00:00	2024-11-08T22:00:00	6	Velocidad del viento	0
62694	7	Sololá	717	San Juan la Laguna	12	San Juan la Laguna	6	Junio	2023-06-29T00:00:00	2024-11-08T22:00:00	7	Dirección del viento	0
62695	7	Sololá	717	San Juan la Laguna	12	San Juan la Laguna	6	Junio	2023-06-29T00:00:00	2024-11-08T22:00:00	1	Precipitación	0
62696	7	Sololá	717	San Juan la Laguna	12	San Juan la Laguna	6	Junio	2023-06-29T00:00:00	2024-11-08T22:00:00	8	Radiación solar	0
62697	7	Sololá	717	San Juan la Laguna	12	San Juan la Laguna	6	Junio	2023-06-29T00:00:00	2024-11-08T23:00:00	2	Temperatura media	17.8
62698	7	Sololá	717	San Juan la Laguna	12	San Juan la Laguna	6	Junio	2023-06-29T00:00:00	2024-11-08T23:00:00	4	Temperatura máxima	18.3
62699	7	Sololá	717	San Juan la Laguna	12	San Juan la Laguna	6	Junio	2023-06-29T00:00:00	2024-11-08T23:00:00	3	Temperatura mínima	17.6
62700	7	Sololá	717	San Juan la Laguna	12	San Juan la Laguna	6	Junio	2023-06-29T00:00:00	2024-11-08T23:00:00	5	Humedad	84
62701	7	Sololá	717	San Juan la Laguna	12	San Juan la Laguna	6	Junio	2023-06-29T00:00:00	2024-11-08T23:00:00	6	Velocidad del viento	0
62702	7	Sololá	717	San Juan la Laguna	12	San Juan la Laguna	6	Junio	2023-06-29T00:00:00	2024-11-08T23:00:00	7	Dirección del viento	0
62703	7	Sololá	717	San Juan la Laguna	12	San Juan la Laguna	6	Junio	2023-06-29T00:00:00	2024-11-08T23:00:00	1	Precipitación	0
62704	7	Sololá	717	San Juan la Laguna	12	San Juan la Laguna	6	Junio	2023-06-29T00:00:00	2024-11-08T23:00:00	8	Radiación solar	0
62705	7	Sololá	717	San Juan la Laguna	12	San Juan la Laguna	6	Junio	2023-06-30T00:00:00	2024-11-08T00:00:00	2	Temperatura media	17.9
62706	7	Sololá	717	San Juan la Laguna	12	San Juan la Laguna	6	Junio	2023-06-30T00:00:00	2024-11-08T00:00:00	4	Temperatura máxima	18.1
62707	7	Sololá	717	San Juan la Laguna	12	San Juan la Laguna	6	Junio	2023-06-30T00:00:00	2024-11-08T00:00:00	3	Temperatura mínima	17.7
62708	7	Sololá	717	San Juan la Laguna	12	San Juan la Laguna	6	Junio	2023-06-30T00:00:00	2024-11-08T00:00:00	5	Humedad	82
62709	7	Sololá	717	San Juan la Laguna	12	San Juan la Laguna	6	Junio	2023-06-30T00:00:00	2024-11-08T00:00:00	6	Velocidad del viento	1.6
62710	7	Sololá	717	San Juan la Laguna	12	San Juan la Laguna	6	Junio	2023-06-30T00:00:00	2024-11-08T00:00:00	7	Dirección del viento	1.61
62711	7	Sololá	717	San Juan la Laguna	12	San Juan la Laguna	6	Junio	2023-06-30T00:00:00	2024-11-08T00:00:00	1	Precipitación	0
62712	7	Sololá	717	San Juan la Laguna	12	San Juan la Laguna	6	Junio	2023-06-30T00:00:00	2024-11-08T00:00:00	8	Radiación solar	0
62713	7	Sololá	717	San Juan la Laguna	12	San Juan la Laguna	6	Junio	2023-06-30T00:00:00	2024-11-08T01:00:00	2	Temperatura media	17.4
62714	7	Sololá	717	San Juan la Laguna	12	San Juan la Laguna	6	Junio	2023-06-30T00:00:00	2024-11-08T01:00:00	4	Temperatura máxima	17.9
62715	7	Sololá	717	San Juan la Laguna	12	San Juan la Laguna	6	Junio	2023-06-30T00:00:00	2024-11-08T01:00:00	3	Temperatura mínima	17.1
62716	7	Sololá	717	San Juan la Laguna	12	San Juan la Laguna	6	Junio	2023-06-30T00:00:00	2024-11-08T01:00:00	5	Humedad	81
62717	7	Sololá	717	San Juan la Laguna	12	San Juan la Laguna	6	Junio	2023-06-30T00:00:00	2024-11-08T01:00:00	6	Velocidad del viento	0
62718	7	Sololá	717	San Juan la Laguna	12	San Juan la Laguna	6	Junio	2023-06-30T00:00:00	2024-11-08T01:00:00	7	Dirección del viento	0
62719	7	Sololá	717	San Juan la Laguna	12	San Juan la Laguna	6	Junio	2023-06-30T00:00:00	2024-11-08T01:00:00	1	Precipitación	0
62720	7	Sololá	717	San Juan la Laguna	12	San Juan la Laguna	6	Junio	2023-06-30T00:00:00	2024-11-08T01:00:00	8	Radiación solar	0
62721	7	Sololá	717	San Juan la Laguna	12	San Juan la Laguna	6	Junio	2023-06-30T00:00:00	2024-11-08T02:00:00	2	Temperatura media	16.8
62722	7	Sololá	717	San Juan la Laguna	12	San Juan la Laguna	6	Junio	2023-06-30T00:00:00	2024-11-08T02:00:00	4	Temperatura máxima	17.4
62723	7	Sololá	717	San Juan la Laguna	12	San Juan la Laguna	6	Junio	2023-06-30T00:00:00	2024-11-08T02:00:00	3	Temperatura mínima	16.8
62724	7	Sololá	717	San Juan la Laguna	12	San Juan la Laguna	6	Junio	2023-06-30T00:00:00	2024-11-08T02:00:00	5	Humedad	82
62725	7	Sololá	717	San Juan la Laguna	12	San Juan la Laguna	6	Junio	2023-06-30T00:00:00	2024-11-08T02:00:00	6	Velocidad del viento	1.6
62726	7	Sololá	717	San Juan la Laguna	12	San Juan la Laguna	6	Junio	2023-06-30T00:00:00	2024-11-08T02:00:00	7	Dirección del viento	1.61
62727	7	Sololá	717	San Juan la Laguna	12	San Juan la Laguna	6	Junio	2023-06-30T00:00:00	2024-11-08T02:00:00	1	Precipitación	0
62728	7	Sololá	717	San Juan la Laguna	12	San Juan la Laguna	6	Junio	2023-06-30T00:00:00	2024-11-08T02:00:00	8	Radiación solar	0
62729	7	Sololá	717	San Juan la Laguna	12	San Juan la Laguna	6	Junio	2023-06-30T00:00:00	2024-11-08T03:00:00	2	Temperatura media	16.4
62730	7	Sololá	717	San Juan la Laguna	12	San Juan la Laguna	6	Junio	2023-06-30T00:00:00	2024-11-08T03:00:00	4	Temperatura máxima	16.9
62731	7	Sololá	717	San Juan la Laguna	12	San Juan la Laguna	6	Junio	2023-06-30T00:00:00	2024-11-08T03:00:00	3	Temperatura mínima	16.4
62732	7	Sololá	717	San Juan la Laguna	12	San Juan la Laguna	6	Junio	2023-06-30T00:00:00	2024-11-08T03:00:00	5	Humedad	84
62733	7	Sololá	717	San Juan la Laguna	12	San Juan la Laguna	6	Junio	2023-06-30T00:00:00	2024-11-08T03:00:00	6	Velocidad del viento	0
62734	7	Sololá	717	San Juan la Laguna	12	San Juan la Laguna	6	Junio	2023-06-30T00:00:00	2024-11-08T03:00:00	7	Dirección del viento	0
62735	7	Sololá	717	San Juan la Laguna	12	San Juan la Laguna	6	Junio	2023-06-30T00:00:00	2024-11-08T03:00:00	1	Precipitación	0
62736	7	Sololá	717	San Juan la Laguna	12	San Juan la Laguna	6	Junio	2023-06-30T00:00:00	2024-11-08T03:00:00	8	Radiación solar	0
62737	7	Sololá	717	San Juan la Laguna	12	San Juan la Laguna	6	Junio	2023-06-30T00:00:00	2024-11-08T04:00:00	2	Temperatura media	16.5
62738	7	Sololá	717	San Juan la Laguna	12	San Juan la Laguna	6	Junio	2023-06-30T00:00:00	2024-11-08T04:00:00	4	Temperatura máxima	16.7
62739	7	Sololá	717	San Juan la Laguna	12	San Juan la Laguna	6	Junio	2023-06-30T00:00:00	2024-11-08T04:00:00	3	Temperatura mínima	16.3
62740	7	Sololá	717	San Juan la Laguna	12	San Juan la Laguna	6	Junio	2023-06-30T00:00:00	2024-11-08T04:00:00	5	Humedad	83
62741	7	Sololá	717	San Juan la Laguna	12	San Juan la Laguna	6	Junio	2023-06-30T00:00:00	2024-11-08T04:00:00	6	Velocidad del viento	0
62742	7	Sololá	717	San Juan la Laguna	12	San Juan la Laguna	6	Junio	2023-06-30T00:00:00	2024-11-08T04:00:00	7	Dirección del viento	0
62743	7	Sololá	717	San Juan la Laguna	12	San Juan la Laguna	6	Junio	2023-06-30T00:00:00	2024-11-08T04:00:00	1	Precipitación	0
62744	7	Sololá	717	San Juan la Laguna	12	San Juan la Laguna	6	Junio	2023-06-30T00:00:00	2024-11-08T04:00:00	8	Radiación solar	0
62745	7	Sololá	717	San Juan la Laguna	12	San Juan la Laguna	6	Junio	2023-06-30T00:00:00	2024-11-08T05:00:00	2	Temperatura media	16.1
62746	7	Sololá	717	San Juan la Laguna	12	San Juan la Laguna	6	Junio	2023-06-30T00:00:00	2024-11-08T05:00:00	4	Temperatura máxima	16.5
62747	7	Sololá	717	San Juan la Laguna	12	San Juan la Laguna	6	Junio	2023-06-30T00:00:00	2024-11-08T05:00:00	3	Temperatura mínima	16.1
62748	7	Sololá	717	San Juan la Laguna	12	San Juan la Laguna	6	Junio	2023-06-30T00:00:00	2024-11-08T05:00:00	5	Humedad	84
62749	7	Sololá	717	San Juan la Laguna	12	San Juan la Laguna	6	Junio	2023-06-30T00:00:00	2024-11-08T05:00:00	6	Velocidad del viento	0
62750	7	Sololá	717	San Juan la Laguna	12	San Juan la Laguna	6	Junio	2023-06-30T00:00:00	2024-11-08T05:00:00	7	Dirección del viento	0
62751	7	Sololá	717	San Juan la Laguna	12	San Juan la Laguna	6	Junio	2023-06-30T00:00:00	2024-11-08T05:00:00	1	Precipitación	0
62752	7	Sololá	717	San Juan la Laguna	12	San Juan la Laguna	6	Junio	2023-06-30T00:00:00	2024-11-08T05:00:00	8	Radiación solar	0
62753	7	Sololá	717	San Juan la Laguna	12	San Juan la Laguna	6	Junio	2023-06-30T00:00:00	2024-11-08T06:00:00	2	Temperatura media	15.9
62754	7	Sololá	717	San Juan la Laguna	12	San Juan la Laguna	6	Junio	2023-06-30T00:00:00	2024-11-08T06:00:00	4	Temperatura máxima	16.1
62755	7	Sololá	717	San Juan la Laguna	12	San Juan la Laguna	6	Junio	2023-06-30T00:00:00	2024-11-08T06:00:00	3	Temperatura mínima	15.7
62756	7	Sololá	717	San Juan la Laguna	12	San Juan la Laguna	6	Junio	2023-06-30T00:00:00	2024-11-08T06:00:00	5	Humedad	86
62757	7	Sololá	717	San Juan la Laguna	12	San Juan la Laguna	6	Junio	2023-06-30T00:00:00	2024-11-08T06:00:00	6	Velocidad del viento	0
62758	7	Sololá	717	San Juan la Laguna	12	San Juan la Laguna	6	Junio	2023-06-30T00:00:00	2024-11-08T06:00:00	7	Dirección del viento	0
62759	7	Sololá	717	San Juan la Laguna	12	San Juan la Laguna	6	Junio	2023-06-30T00:00:00	2024-11-08T06:00:00	1	Precipitación	0
62760	7	Sololá	717	San Juan la Laguna	12	San Juan la Laguna	6	Junio	2023-06-30T00:00:00	2024-11-08T06:00:00	8	Radiación solar	2
62761	7	Sololá	717	San Juan la Laguna	12	San Juan la Laguna	6	Junio	2023-06-30T00:00:00	2024-11-08T07:00:00	2	Temperatura media	19.4
62762	7	Sololá	717	San Juan la Laguna	12	San Juan la Laguna	6	Junio	2023-06-30T00:00:00	2024-11-08T07:00:00	4	Temperatura máxima	19.4
62763	7	Sololá	717	San Juan la Laguna	12	San Juan la Laguna	6	Junio	2023-06-30T00:00:00	2024-11-08T07:00:00	3	Temperatura mínima	15.9
62764	7	Sololá	717	San Juan la Laguna	12	San Juan la Laguna	6	Junio	2023-06-30T00:00:00	2024-11-08T07:00:00	5	Humedad	79
62765	7	Sololá	717	San Juan la Laguna	12	San Juan la Laguna	6	Junio	2023-06-30T00:00:00	2024-11-08T07:00:00	6	Velocidad del viento	0
62766	7	Sololá	717	San Juan la Laguna	12	San Juan la Laguna	6	Junio	2023-06-30T00:00:00	2024-11-08T07:00:00	7	Dirección del viento	0
62767	7	Sololá	717	San Juan la Laguna	12	San Juan la Laguna	6	Junio	2023-06-30T00:00:00	2024-11-08T07:00:00	1	Precipitación	0
62768	7	Sololá	717	San Juan la Laguna	12	San Juan la Laguna	6	Junio	2023-06-30T00:00:00	2024-11-08T07:00:00	8	Radiación solar	46
62769	7	Sololá	717	San Juan la Laguna	12	San Juan la Laguna	6	Junio	2023-06-30T00:00:00	2024-11-08T08:00:00	2	Temperatura media	21.9
62770	7	Sololá	717	San Juan la Laguna	12	San Juan la Laguna	6	Junio	2023-06-30T00:00:00	2024-11-08T08:00:00	4	Temperatura máxima	22
62771	7	Sololá	717	San Juan la Laguna	12	San Juan la Laguna	6	Junio	2023-06-30T00:00:00	2024-11-08T08:00:00	3	Temperatura mínima	19.4
62772	7	Sololá	717	San Juan la Laguna	12	San Juan la Laguna	6	Junio	2023-06-30T00:00:00	2024-11-08T08:00:00	5	Humedad	68
62773	7	Sololá	717	San Juan la Laguna	12	San Juan la Laguna	6	Junio	2023-06-30T00:00:00	2024-11-08T08:00:00	6	Velocidad del viento	0
62774	7	Sololá	717	San Juan la Laguna	12	San Juan la Laguna	6	Junio	2023-06-30T00:00:00	2024-11-08T08:00:00	7	Dirección del viento	0
62775	7	Sololá	717	San Juan la Laguna	12	San Juan la Laguna	6	Junio	2023-06-30T00:00:00	2024-11-08T08:00:00	1	Precipitación	0
62776	7	Sololá	717	San Juan la Laguna	12	San Juan la Laguna	6	Junio	2023-06-30T00:00:00	2024-11-08T08:00:00	8	Radiación solar	161
62777	7	Sololá	717	San Juan la Laguna	12	San Juan la Laguna	6	Junio	2023-06-30T00:00:00	2024-11-08T09:00:00	2	Temperatura media	23.2
62778	7	Sololá	717	San Juan la Laguna	12	San Juan la Laguna	6	Junio	2023-06-30T00:00:00	2024-11-08T09:00:00	4	Temperatura máxima	23.3
62779	7	Sololá	717	San Juan la Laguna	12	San Juan la Laguna	6	Junio	2023-06-30T00:00:00	2024-11-08T09:00:00	3	Temperatura mínima	21.8
62780	7	Sololá	717	San Juan la Laguna	12	San Juan la Laguna	6	Junio	2023-06-30T00:00:00	2024-11-08T09:00:00	5	Humedad	61
62781	7	Sololá	717	San Juan la Laguna	12	San Juan la Laguna	6	Junio	2023-06-30T00:00:00	2024-11-08T09:00:00	6	Velocidad del viento	0
62782	7	Sololá	717	San Juan la Laguna	12	San Juan la Laguna	6	Junio	2023-06-30T00:00:00	2024-11-08T09:00:00	7	Dirección del viento	0
62783	7	Sololá	717	San Juan la Laguna	12	San Juan la Laguna	6	Junio	2023-06-30T00:00:00	2024-11-08T09:00:00	1	Precipitación	0
62784	7	Sololá	717	San Juan la Laguna	12	San Juan la Laguna	6	Junio	2023-06-30T00:00:00	2024-11-08T09:00:00	8	Radiación solar	622
62785	7	Sololá	717	San Juan la Laguna	12	San Juan la Laguna	6	Junio	2023-06-30T00:00:00	2024-11-08T10:00:00	2	Temperatura media	24.5
62786	7	Sololá	717	San Juan la Laguna	12	San Juan la Laguna	6	Junio	2023-06-30T00:00:00	2024-11-08T10:00:00	4	Temperatura máxima	24.5
62787	7	Sololá	717	San Juan la Laguna	12	San Juan la Laguna	6	Junio	2023-06-30T00:00:00	2024-11-08T10:00:00	3	Temperatura mínima	23.1
62788	7	Sololá	717	San Juan la Laguna	12	San Juan la Laguna	6	Junio	2023-06-30T00:00:00	2024-11-08T10:00:00	5	Humedad	59
62789	7	Sololá	717	San Juan la Laguna	12	San Juan la Laguna	6	Junio	2023-06-30T00:00:00	2024-11-08T10:00:00	6	Velocidad del viento	1.6
62790	7	Sololá	717	San Juan la Laguna	12	San Juan la Laguna	6	Junio	2023-06-30T00:00:00	2024-11-08T10:00:00	7	Dirección del viento	1.61
62791	7	Sololá	717	San Juan la Laguna	12	San Juan la Laguna	6	Junio	2023-06-30T00:00:00	2024-11-08T10:00:00	1	Precipitación	0
62792	7	Sololá	717	San Juan la Laguna	12	San Juan la Laguna	6	Junio	2023-06-30T00:00:00	2024-11-08T10:00:00	8	Radiación solar	639
62793	7	Sololá	717	San Juan la Laguna	12	San Juan la Laguna	6	Junio	2023-06-30T00:00:00	2024-11-08T11:00:00	2	Temperatura media	25.7
62794	7	Sololá	717	San Juan la Laguna	12	San Juan la Laguna	6	Junio	2023-06-30T00:00:00	2024-11-08T11:00:00	4	Temperatura máxima	25.7
62795	7	Sololá	717	San Juan la Laguna	12	San Juan la Laguna	6	Junio	2023-06-30T00:00:00	2024-11-08T11:00:00	3	Temperatura mínima	24.3
62796	7	Sololá	717	San Juan la Laguna	12	San Juan la Laguna	6	Junio	2023-06-30T00:00:00	2024-11-08T11:00:00	5	Humedad	59
62797	7	Sololá	717	San Juan la Laguna	12	San Juan la Laguna	6	Junio	2023-06-30T00:00:00	2024-11-08T11:00:00	6	Velocidad del viento	3.2
62798	7	Sololá	717	San Juan la Laguna	12	San Juan la Laguna	6	Junio	2023-06-30T00:00:00	2024-11-08T11:00:00	7	Dirección del viento	3.22
62799	7	Sololá	717	San Juan la Laguna	12	San Juan la Laguna	6	Junio	2023-06-30T00:00:00	2024-11-08T11:00:00	1	Precipitación	0
62800	7	Sololá	717	San Juan la Laguna	12	San Juan la Laguna	6	Junio	2023-06-30T00:00:00	2024-11-08T11:00:00	8	Radiación solar	927
62801	7	Sololá	717	San Juan la Laguna	12	San Juan la Laguna	6	Junio	2023-06-30T00:00:00	2024-11-08T12:00:00	2	Temperatura media	26.3
62802	7	Sololá	717	San Juan la Laguna	12	San Juan la Laguna	6	Junio	2023-06-30T00:00:00	2024-11-08T12:00:00	4	Temperatura máxima	26.4
62803	7	Sololá	717	San Juan la Laguna	12	San Juan la Laguna	6	Junio	2023-06-30T00:00:00	2024-11-08T12:00:00	3	Temperatura mínima	25.2
62804	7	Sololá	717	San Juan la Laguna	12	San Juan la Laguna	6	Junio	2023-06-30T00:00:00	2024-11-08T12:00:00	5	Humedad	56
62805	7	Sololá	717	San Juan la Laguna	12	San Juan la Laguna	6	Junio	2023-06-30T00:00:00	2024-11-08T12:00:00	6	Velocidad del viento	3.2
62806	7	Sololá	717	San Juan la Laguna	12	San Juan la Laguna	6	Junio	2023-06-30T00:00:00	2024-11-08T12:00:00	7	Dirección del viento	3.22
62807	7	Sololá	717	San Juan la Laguna	12	San Juan la Laguna	6	Junio	2023-06-30T00:00:00	2024-11-08T12:00:00	1	Precipitación	0
62808	7	Sololá	717	San Juan la Laguna	12	San Juan la Laguna	6	Junio	2023-06-30T00:00:00	2024-11-08T12:00:00	8	Radiación solar	943
62809	7	Sololá	717	San Juan la Laguna	12	San Juan la Laguna	6	Junio	2023-06-30T00:00:00	2024-11-08T13:00:00	2	Temperatura media	27.2
62810	7	Sololá	717	San Juan la Laguna	12	San Juan la Laguna	6	Junio	2023-06-30T00:00:00	2024-11-08T13:00:00	4	Temperatura máxima	27.3
62811	7	Sololá	717	San Juan la Laguna	12	San Juan la Laguna	6	Junio	2023-06-30T00:00:00	2024-11-08T13:00:00	3	Temperatura mínima	26.2
62812	7	Sololá	717	San Juan la Laguna	12	San Juan la Laguna	6	Junio	2023-06-30T00:00:00	2024-11-08T13:00:00	5	Humedad	54
62813	7	Sololá	717	San Juan la Laguna	12	San Juan la Laguna	6	Junio	2023-06-30T00:00:00	2024-11-08T13:00:00	6	Velocidad del viento	3.2
62814	7	Sololá	717	San Juan la Laguna	12	San Juan la Laguna	6	Junio	2023-06-30T00:00:00	2024-11-08T13:00:00	7	Dirección del viento	3.22
62815	7	Sololá	717	San Juan la Laguna	12	San Juan la Laguna	6	Junio	2023-06-30T00:00:00	2024-11-08T13:00:00	1	Precipitación	0
62816	7	Sololá	717	San Juan la Laguna	12	San Juan la Laguna	6	Junio	2023-06-30T00:00:00	2024-11-08T13:00:00	8	Radiación solar	929
62817	7	Sololá	717	San Juan la Laguna	12	San Juan la Laguna	6	Junio	2023-06-30T00:00:00	2024-11-08T14:00:00	2	Temperatura media	27.7
62818	7	Sololá	717	San Juan la Laguna	12	San Juan la Laguna	6	Junio	2023-06-30T00:00:00	2024-11-08T14:00:00	4	Temperatura máxima	28.6
62819	7	Sololá	717	San Juan la Laguna	12	San Juan la Laguna	6	Junio	2023-06-30T00:00:00	2024-11-08T14:00:00	3	Temperatura mínima	27.2
62820	7	Sololá	717	San Juan la Laguna	12	San Juan la Laguna	6	Junio	2023-06-30T00:00:00	2024-11-08T14:00:00	5	Humedad	58
62821	7	Sololá	717	San Juan la Laguna	12	San Juan la Laguna	6	Junio	2023-06-30T00:00:00	2024-11-08T14:00:00	6	Velocidad del viento	4.8
62822	7	Sololá	717	San Juan la Laguna	12	San Juan la Laguna	6	Junio	2023-06-30T00:00:00	2024-11-08T14:00:00	7	Dirección del viento	4.83
62823	7	Sololá	717	San Juan la Laguna	12	San Juan la Laguna	6	Junio	2023-06-30T00:00:00	2024-11-08T14:00:00	1	Precipitación	0
62824	7	Sololá	717	San Juan la Laguna	12	San Juan la Laguna	6	Junio	2023-06-30T00:00:00	2024-11-08T14:00:00	8	Radiación solar	851
62825	7	Sololá	717	San Juan la Laguna	12	San Juan la Laguna	6	Junio	2023-06-30T00:00:00	2024-11-08T15:00:00	2	Temperatura media	26.6
62826	7	Sololá	717	San Juan la Laguna	12	San Juan la Laguna	6	Junio	2023-06-30T00:00:00	2024-11-08T15:00:00	4	Temperatura máxima	27.6
62827	7	Sololá	717	San Juan la Laguna	12	San Juan la Laguna	6	Junio	2023-06-30T00:00:00	2024-11-08T15:00:00	3	Temperatura mínima	26.4
62828	7	Sololá	717	San Juan la Laguna	12	San Juan la Laguna	6	Junio	2023-06-30T00:00:00	2024-11-08T15:00:00	5	Humedad	64
62829	7	Sololá	717	San Juan la Laguna	12	San Juan la Laguna	6	Junio	2023-06-30T00:00:00	2024-11-08T15:00:00	6	Velocidad del viento	6.4
62830	7	Sololá	717	San Juan la Laguna	12	San Juan la Laguna	6	Junio	2023-06-30T00:00:00	2024-11-08T15:00:00	7	Dirección del viento	6.44
62831	7	Sololá	717	San Juan la Laguna	12	San Juan la Laguna	6	Junio	2023-06-30T00:00:00	2024-11-08T15:00:00	1	Precipitación	0
62832	7	Sololá	717	San Juan la Laguna	12	San Juan la Laguna	6	Junio	2023-06-30T00:00:00	2024-11-08T15:00:00	8	Radiación solar	729
62833	7	Sololá	717	San Juan la Laguna	12	San Juan la Laguna	6	Junio	2023-06-30T00:00:00	2024-11-08T16:00:00	2	Temperatura media	23.6
62834	7	Sololá	717	San Juan la Laguna	12	San Juan la Laguna	6	Junio	2023-06-30T00:00:00	2024-11-08T16:00:00	4	Temperatura máxima	26.9
62835	7	Sololá	717	San Juan la Laguna	12	San Juan la Laguna	6	Junio	2023-06-30T00:00:00	2024-11-08T16:00:00	3	Temperatura mínima	23.6
62836	7	Sololá	717	San Juan la Laguna	12	San Juan la Laguna	6	Junio	2023-06-30T00:00:00	2024-11-08T16:00:00	5	Humedad	71
62837	7	Sololá	717	San Juan la Laguna	12	San Juan la Laguna	6	Junio	2023-06-30T00:00:00	2024-11-08T16:00:00	6	Velocidad del viento	4.8
62838	7	Sololá	717	San Juan la Laguna	12	San Juan la Laguna	6	Junio	2023-06-30T00:00:00	2024-11-08T16:00:00	7	Dirección del viento	4.83
62839	7	Sololá	717	San Juan la Laguna	12	San Juan la Laguna	6	Junio	2023-06-30T00:00:00	2024-11-08T16:00:00	1	Precipitación	0
62840	7	Sololá	717	San Juan la Laguna	12	San Juan la Laguna	6	Junio	2023-06-30T00:00:00	2024-11-08T16:00:00	8	Radiación solar	136
62841	7	Sololá	717	San Juan la Laguna	12	San Juan la Laguna	6	Junio	2023-06-30T00:00:00	2024-11-08T17:00:00	2	Temperatura media	23.9
62842	7	Sololá	717	San Juan la Laguna	12	San Juan la Laguna	6	Junio	2023-06-30T00:00:00	2024-11-08T17:00:00	4	Temperatura máxima	24.1
62843	7	Sololá	717	San Juan la Laguna	12	San Juan la Laguna	6	Junio	2023-06-30T00:00:00	2024-11-08T17:00:00	3	Temperatura mínima	22.8
62844	7	Sololá	717	San Juan la Laguna	12	San Juan la Laguna	6	Junio	2023-06-30T00:00:00	2024-11-08T17:00:00	5	Humedad	71
62845	7	Sololá	717	San Juan la Laguna	12	San Juan la Laguna	6	Junio	2023-06-30T00:00:00	2024-11-08T17:00:00	6	Velocidad del viento	4.8
62846	7	Sololá	717	San Juan la Laguna	12	San Juan la Laguna	6	Junio	2023-06-30T00:00:00	2024-11-08T17:00:00	7	Dirección del viento	4.83
62847	7	Sololá	717	San Juan la Laguna	12	San Juan la Laguna	6	Junio	2023-06-30T00:00:00	2024-11-08T17:00:00	1	Precipitación	0
62848	7	Sololá	717	San Juan la Laguna	12	San Juan la Laguna	6	Junio	2023-06-30T00:00:00	2024-11-08T17:00:00	8	Radiación solar	92
62849	7	Sololá	717	San Juan la Laguna	12	San Juan la Laguna	6	Junio	2023-06-30T00:00:00	2024-11-08T18:00:00	2	Temperatura media	21.9
62850	7	Sololá	717	San Juan la Laguna	12	San Juan la Laguna	6	Junio	2023-06-30T00:00:00	2024-11-08T18:00:00	4	Temperatura máxima	24.2
62851	7	Sololá	717	San Juan la Laguna	12	San Juan la Laguna	6	Junio	2023-06-30T00:00:00	2024-11-08T18:00:00	3	Temperatura mínima	21.9
62852	7	Sololá	717	San Juan la Laguna	12	San Juan la Laguna	6	Junio	2023-06-30T00:00:00	2024-11-08T18:00:00	5	Humedad	78
62853	7	Sololá	717	San Juan la Laguna	12	San Juan la Laguna	6	Junio	2023-06-30T00:00:00	2024-11-08T18:00:00	6	Velocidad del viento	3.2
62854	7	Sololá	717	San Juan la Laguna	12	San Juan la Laguna	6	Junio	2023-06-30T00:00:00	2024-11-08T18:00:00	7	Dirección del viento	3.22
62855	7	Sololá	717	San Juan la Laguna	12	San Juan la Laguna	6	Junio	2023-06-30T00:00:00	2024-11-08T18:00:00	1	Precipitación	0
62856	7	Sololá	717	San Juan la Laguna	12	San Juan la Laguna	6	Junio	2023-06-30T00:00:00	2024-11-08T18:00:00	8	Radiación solar	33
62857	7	Sololá	717	San Juan la Laguna	12	San Juan la Laguna	6	Junio	2023-06-30T00:00:00	2024-11-08T19:00:00	2	Temperatura media	21.4
62858	7	Sololá	717	San Juan la Laguna	12	San Juan la Laguna	6	Junio	2023-06-30T00:00:00	2024-11-08T19:00:00	4	Temperatura máxima	21.9
62859	7	Sololá	717	San Juan la Laguna	12	San Juan la Laguna	6	Junio	2023-06-30T00:00:00	2024-11-08T19:00:00	3	Temperatura mínima	21.3
62860	7	Sololá	717	San Juan la Laguna	12	San Juan la Laguna	6	Junio	2023-06-30T00:00:00	2024-11-08T19:00:00	5	Humedad	79
62861	7	Sololá	717	San Juan la Laguna	12	San Juan la Laguna	6	Junio	2023-06-30T00:00:00	2024-11-08T19:00:00	6	Velocidad del viento	0
62862	7	Sololá	717	San Juan la Laguna	12	San Juan la Laguna	6	Junio	2023-06-30T00:00:00	2024-11-08T19:00:00	7	Dirección del viento	0
62863	7	Sololá	717	San Juan la Laguna	12	San Juan la Laguna	6	Junio	2023-06-30T00:00:00	2024-11-08T19:00:00	1	Precipitación	0
62864	7	Sololá	717	San Juan la Laguna	12	San Juan la Laguna	6	Junio	2023-06-30T00:00:00	2024-11-08T19:00:00	8	Radiación solar	0
62865	7	Sololá	717	San Juan la Laguna	12	San Juan la Laguna	6	Junio	2023-06-30T00:00:00	2024-11-08T20:00:00	2	Temperatura media	20.5
62866	7	Sololá	717	San Juan la Laguna	12	San Juan la Laguna	6	Junio	2023-06-30T00:00:00	2024-11-08T20:00:00	4	Temperatura máxima	21.5
62867	7	Sololá	717	San Juan la Laguna	12	San Juan la Laguna	6	Junio	2023-06-30T00:00:00	2024-11-08T20:00:00	3	Temperatura mínima	20.5
62868	7	Sololá	717	San Juan la Laguna	12	San Juan la Laguna	6	Junio	2023-06-30T00:00:00	2024-11-08T20:00:00	5	Humedad	82
62869	7	Sololá	717	San Juan la Laguna	12	San Juan la Laguna	6	Junio	2023-06-30T00:00:00	2024-11-08T20:00:00	6	Velocidad del viento	0
62870	7	Sololá	717	San Juan la Laguna	12	San Juan la Laguna	6	Junio	2023-06-30T00:00:00	2024-11-08T20:00:00	7	Dirección del viento	0
62871	7	Sololá	717	San Juan la Laguna	12	San Juan la Laguna	6	Junio	2023-06-30T00:00:00	2024-11-08T20:00:00	1	Precipitación	0
62872	7	Sololá	717	San Juan la Laguna	12	San Juan la Laguna	6	Junio	2023-06-30T00:00:00	2024-11-08T20:00:00	8	Radiación solar	0
62873	7	Sololá	717	San Juan la Laguna	12	San Juan la Laguna	6	Junio	2023-06-30T00:00:00	2024-11-08T21:00:00	2	Temperatura media	19.4
62874	7	Sololá	717	San Juan la Laguna	12	San Juan la Laguna	6	Junio	2023-06-30T00:00:00	2024-11-08T21:00:00	4	Temperatura máxima	20.6
62875	7	Sololá	717	San Juan la Laguna	12	San Juan la Laguna	6	Junio	2023-06-30T00:00:00	2024-11-08T21:00:00	3	Temperatura mínima	19.4
62876	7	Sololá	717	San Juan la Laguna	12	San Juan la Laguna	6	Junio	2023-06-30T00:00:00	2024-11-08T21:00:00	5	Humedad	79
62877	7	Sololá	717	San Juan la Laguna	12	San Juan la Laguna	6	Junio	2023-06-30T00:00:00	2024-11-08T21:00:00	6	Velocidad del viento	0
62878	7	Sololá	717	San Juan la Laguna	12	San Juan la Laguna	6	Junio	2023-06-30T00:00:00	2024-11-08T21:00:00	7	Dirección del viento	0
62879	7	Sololá	717	San Juan la Laguna	12	San Juan la Laguna	6	Junio	2023-06-30T00:00:00	2024-11-08T21:00:00	1	Precipitación	0
62880	7	Sololá	717	San Juan la Laguna	12	San Juan la Laguna	6	Junio	2023-06-30T00:00:00	2024-11-08T21:00:00	8	Radiación solar	0
62881	7	Sololá	717	San Juan la Laguna	12	San Juan la Laguna	6	Junio	2023-06-30T00:00:00	2024-11-08T22:00:00	2	Temperatura media	18.4
62882	7	Sololá	717	San Juan la Laguna	12	San Juan la Laguna	6	Junio	2023-06-30T00:00:00	2024-11-08T22:00:00	4	Temperatura máxima	19.5
62883	7	Sololá	717	San Juan la Laguna	12	San Juan la Laguna	6	Junio	2023-06-30T00:00:00	2024-11-08T22:00:00	3	Temperatura mínima	18.3
62884	7	Sololá	717	San Juan la Laguna	12	San Juan la Laguna	6	Junio	2023-06-30T00:00:00	2024-11-08T22:00:00	5	Humedad	80
62885	7	Sololá	717	San Juan la Laguna	12	San Juan la Laguna	6	Junio	2023-06-30T00:00:00	2024-11-08T22:00:00	6	Velocidad del viento	0
62886	7	Sololá	717	San Juan la Laguna	12	San Juan la Laguna	6	Junio	2023-06-30T00:00:00	2024-11-08T22:00:00	7	Dirección del viento	0
62887	7	Sololá	717	San Juan la Laguna	12	San Juan la Laguna	6	Junio	2023-06-30T00:00:00	2024-11-08T22:00:00	1	Precipitación	0
62888	7	Sololá	717	San Juan la Laguna	12	San Juan la Laguna	6	Junio	2023-06-30T00:00:00	2024-11-08T22:00:00	8	Radiación solar	0
62889	7	Sololá	717	San Juan la Laguna	12	San Juan la Laguna	6	Junio	2023-06-30T00:00:00	2024-11-08T23:00:00	2	Temperatura media	18.1
62890	7	Sololá	717	San Juan la Laguna	12	San Juan la Laguna	6	Junio	2023-06-30T00:00:00	2024-11-08T23:00:00	4	Temperatura máxima	18.5
62891	7	Sololá	717	San Juan la Laguna	12	San Juan la Laguna	6	Junio	2023-06-30T00:00:00	2024-11-08T23:00:00	3	Temperatura mínima	18.1
62892	7	Sololá	717	San Juan la Laguna	12	San Juan la Laguna	6	Junio	2023-06-30T00:00:00	2024-11-08T23:00:00	5	Humedad	80
62893	7	Sololá	717	San Juan la Laguna	12	San Juan la Laguna	6	Junio	2023-06-30T00:00:00	2024-11-08T23:00:00	6	Velocidad del viento	0
62894	7	Sololá	717	San Juan la Laguna	12	San Juan la Laguna	6	Junio	2023-06-30T00:00:00	2024-11-08T23:00:00	7	Dirección del viento	0
62895	7	Sololá	717	San Juan la Laguna	12	San Juan la Laguna	6	Junio	2023-06-30T00:00:00	2024-11-08T23:00:00	1	Precipitación	0
62896	7	Sololá	717	San Juan la Laguna	12	San Juan la Laguna	6	Junio	2023-06-30T00:00:00	2024-11-08T23:00:00	8	Radiación solar	0
62897	7	Sololá	717	San Juan la Laguna	12	San Juan la Laguna	7	Julio	2023-01-07T00:00:00	2024-11-08T00:00:00	2	Temperatura media	18.1
62898	7	Sololá	717	San Juan la Laguna	12	San Juan la Laguna	7	Julio	2023-01-07T00:00:00	2024-11-08T00:00:00	4	Temperatura máxima	18.5
62899	7	Sololá	717	San Juan la Laguna	12	San Juan la Laguna	7	Julio	2023-01-07T00:00:00	2024-11-08T00:00:00	3	Temperatura mínima	17.9
62900	7	Sololá	717	San Juan la Laguna	12	San Juan la Laguna	7	Julio	2023-01-07T00:00:00	2024-11-08T00:00:00	5	Humedad	77
62901	7	Sololá	717	San Juan la Laguna	12	San Juan la Laguna	7	Julio	2023-01-07T00:00:00	2024-11-08T00:00:00	6	Velocidad del viento	0
62902	7	Sololá	717	San Juan la Laguna	12	San Juan la Laguna	7	Julio	2023-01-07T00:00:00	2024-11-08T00:00:00	7	Dirección del viento	0
62903	7	Sololá	717	San Juan la Laguna	12	San Juan la Laguna	7	Julio	2023-01-07T00:00:00	2024-11-08T00:00:00	1	Precipitación	0
62904	7	Sololá	717	San Juan la Laguna	12	San Juan la Laguna	7	Julio	2023-01-07T00:00:00	2024-11-08T00:00:00	8	Radiación solar	0
62905	7	Sololá	717	San Juan la Laguna	12	San Juan la Laguna	7	Julio	2023-01-07T00:00:00	2024-11-08T01:00:00	2	Temperatura media	17.3
62906	7	Sololá	717	San Juan la Laguna	12	San Juan la Laguna	7	Julio	2023-01-07T00:00:00	2024-11-08T01:00:00	4	Temperatura máxima	18.1
62907	7	Sololá	717	San Juan la Laguna	12	San Juan la Laguna	7	Julio	2023-01-07T00:00:00	2024-11-08T01:00:00	3	Temperatura mínima	17.2
62908	7	Sololá	717	San Juan la Laguna	12	San Juan la Laguna	7	Julio	2023-01-07T00:00:00	2024-11-08T01:00:00	5	Humedad	82
62909	7	Sololá	717	San Juan la Laguna	12	San Juan la Laguna	7	Julio	2023-01-07T00:00:00	2024-11-08T01:00:00	6	Velocidad del viento	0
62910	7	Sololá	717	San Juan la Laguna	12	San Juan la Laguna	7	Julio	2023-01-07T00:00:00	2024-11-08T01:00:00	7	Dirección del viento	0
62911	7	Sololá	717	San Juan la Laguna	12	San Juan la Laguna	7	Julio	2023-01-07T00:00:00	2024-11-08T01:00:00	1	Precipitación	0
62912	7	Sololá	717	San Juan la Laguna	12	San Juan la Laguna	7	Julio	2023-01-07T00:00:00	2024-11-08T01:00:00	8	Radiación solar	0
62913	7	Sololá	717	San Juan la Laguna	12	San Juan la Laguna	7	Julio	2023-01-07T00:00:00	2024-11-08T02:00:00	2	Temperatura media	17.4
62914	7	Sololá	717	San Juan la Laguna	12	San Juan la Laguna	7	Julio	2023-01-07T00:00:00	2024-11-08T02:00:00	4	Temperatura máxima	17.8
62915	7	Sololá	717	San Juan la Laguna	12	San Juan la Laguna	7	Julio	2023-01-07T00:00:00	2024-11-08T02:00:00	3	Temperatura mínima	17.2
62916	7	Sololá	717	San Juan la Laguna	12	San Juan la Laguna	7	Julio	2023-01-07T00:00:00	2024-11-08T02:00:00	5	Humedad	81
62917	7	Sololá	717	San Juan la Laguna	12	San Juan la Laguna	7	Julio	2023-01-07T00:00:00	2024-11-08T02:00:00	6	Velocidad del viento	0
62918	7	Sololá	717	San Juan la Laguna	12	San Juan la Laguna	7	Julio	2023-01-07T00:00:00	2024-11-08T02:00:00	7	Dirección del viento	0
62919	7	Sololá	717	San Juan la Laguna	12	San Juan la Laguna	7	Julio	2023-01-07T00:00:00	2024-11-08T02:00:00	1	Precipitación	0
62920	7	Sololá	717	San Juan la Laguna	12	San Juan la Laguna	7	Julio	2023-01-07T00:00:00	2024-11-08T02:00:00	8	Radiación solar	0
62921	7	Sololá	717	San Juan la Laguna	12	San Juan la Laguna	7	Julio	2023-01-07T00:00:00	2024-11-08T03:00:00	2	Temperatura media	16.9
62922	7	Sololá	717	San Juan la Laguna	12	San Juan la Laguna	7	Julio	2023-01-07T00:00:00	2024-11-08T03:00:00	4	Temperatura máxima	17.4
62923	7	Sololá	717	San Juan la Laguna	12	San Juan la Laguna	7	Julio	2023-01-07T00:00:00	2024-11-08T03:00:00	3	Temperatura mínima	16.7
62924	7	Sololá	717	San Juan la Laguna	12	San Juan la Laguna	7	Julio	2023-01-07T00:00:00	2024-11-08T03:00:00	5	Humedad	80
62925	7	Sololá	717	San Juan la Laguna	12	San Juan la Laguna	7	Julio	2023-01-07T00:00:00	2024-11-08T03:00:00	6	Velocidad del viento	0
62926	7	Sololá	717	San Juan la Laguna	12	San Juan la Laguna	7	Julio	2023-01-07T00:00:00	2024-11-08T03:00:00	7	Dirección del viento	0
62927	7	Sololá	717	San Juan la Laguna	12	San Juan la Laguna	7	Julio	2023-01-07T00:00:00	2024-11-08T03:00:00	1	Precipitación	0
62928	7	Sololá	717	San Juan la Laguna	12	San Juan la Laguna	7	Julio	2023-01-07T00:00:00	2024-11-08T03:00:00	8	Radiación solar	0
62929	7	Sololá	717	San Juan la Laguna	12	San Juan la Laguna	7	Julio	2023-01-07T00:00:00	2024-11-08T04:00:00	2	Temperatura media	16.9
62930	7	Sololá	717	San Juan la Laguna	12	San Juan la Laguna	7	Julio	2023-01-07T00:00:00	2024-11-08T04:00:00	4	Temperatura máxima	17.2
62931	7	Sololá	717	San Juan la Laguna	12	San Juan la Laguna	7	Julio	2023-01-07T00:00:00	2024-11-08T04:00:00	3	Temperatura mínima	16.8
62932	7	Sololá	717	San Juan la Laguna	12	San Juan la Laguna	7	Julio	2023-01-07T00:00:00	2024-11-08T04:00:00	5	Humedad	76
62933	7	Sololá	717	San Juan la Laguna	12	San Juan la Laguna	7	Julio	2023-01-07T00:00:00	2024-11-08T04:00:00	6	Velocidad del viento	0
62934	7	Sololá	717	San Juan la Laguna	12	San Juan la Laguna	7	Julio	2023-01-07T00:00:00	2024-11-08T04:00:00	7	Dirección del viento	0
62935	7	Sololá	717	San Juan la Laguna	12	San Juan la Laguna	7	Julio	2023-01-07T00:00:00	2024-11-08T04:00:00	1	Precipitación	0
62936	7	Sololá	717	San Juan la Laguna	12	San Juan la Laguna	7	Julio	2023-01-07T00:00:00	2024-11-08T04:00:00	8	Radiación solar	0
62937	7	Sololá	717	San Juan la Laguna	12	San Juan la Laguna	7	Julio	2023-01-07T00:00:00	2024-11-08T05:00:00	2	Temperatura media	16.6
62938	7	Sololá	717	San Juan la Laguna	12	San Juan la Laguna	7	Julio	2023-01-07T00:00:00	2024-11-08T05:00:00	4	Temperatura máxima	17.1
62939	7	Sololá	717	San Juan la Laguna	12	San Juan la Laguna	7	Julio	2023-01-07T00:00:00	2024-11-08T05:00:00	3	Temperatura mínima	16.4
62940	7	Sololá	717	San Juan la Laguna	12	San Juan la Laguna	7	Julio	2023-01-07T00:00:00	2024-11-08T05:00:00	5	Humedad	78
62941	7	Sololá	717	San Juan la Laguna	12	San Juan la Laguna	7	Julio	2023-01-07T00:00:00	2024-11-08T05:00:00	6	Velocidad del viento	0
62942	7	Sololá	717	San Juan la Laguna	12	San Juan la Laguna	7	Julio	2023-01-07T00:00:00	2024-11-08T05:00:00	7	Dirección del viento	0
62943	7	Sololá	717	San Juan la Laguna	12	San Juan la Laguna	7	Julio	2023-01-07T00:00:00	2024-11-08T05:00:00	1	Precipitación	0
62944	7	Sololá	717	San Juan la Laguna	12	San Juan la Laguna	7	Julio	2023-01-07T00:00:00	2024-11-08T05:00:00	8	Radiación solar	0
62945	7	Sololá	717	San Juan la Laguna	12	San Juan la Laguna	7	Julio	2023-01-07T00:00:00	2024-11-08T06:00:00	2	Temperatura media	16.6
62946	7	Sololá	717	San Juan la Laguna	12	San Juan la Laguna	7	Julio	2023-01-07T00:00:00	2024-11-08T06:00:00	4	Temperatura máxima	16.9
62947	7	Sololá	717	San Juan la Laguna	12	San Juan la Laguna	7	Julio	2023-01-07T00:00:00	2024-11-08T06:00:00	3	Temperatura mínima	16.5
62948	7	Sololá	717	San Juan la Laguna	12	San Juan la Laguna	7	Julio	2023-01-07T00:00:00	2024-11-08T06:00:00	5	Humedad	79
62949	7	Sololá	717	San Juan la Laguna	12	San Juan la Laguna	7	Julio	2023-01-07T00:00:00	2024-11-08T06:00:00	6	Velocidad del viento	1.6
62950	7	Sololá	717	San Juan la Laguna	12	San Juan la Laguna	7	Julio	2023-01-07T00:00:00	2024-11-08T06:00:00	7	Dirección del viento	1.61
62951	7	Sololá	717	San Juan la Laguna	12	San Juan la Laguna	7	Julio	2023-01-07T00:00:00	2024-11-08T06:00:00	1	Precipitación	0
62952	7	Sololá	717	San Juan la Laguna	12	San Juan la Laguna	7	Julio	2023-01-07T00:00:00	2024-11-08T06:00:00	8	Radiación solar	1
62953	7	Sololá	717	San Juan la Laguna	12	San Juan la Laguna	7	Julio	2023-01-07T00:00:00	2024-11-08T07:00:00	2	Temperatura media	18.1
62954	7	Sololá	717	San Juan la Laguna	12	San Juan la Laguna	7	Julio	2023-01-07T00:00:00	2024-11-08T07:00:00	4	Temperatura máxima	18.1
62955	7	Sololá	717	San Juan la Laguna	12	San Juan la Laguna	7	Julio	2023-01-07T00:00:00	2024-11-08T07:00:00	3	Temperatura mínima	16.2
62956	7	Sololá	717	San Juan la Laguna	12	San Juan la Laguna	7	Julio	2023-01-07T00:00:00	2024-11-08T07:00:00	5	Humedad	78
62957	7	Sololá	717	San Juan la Laguna	12	San Juan la Laguna	7	Julio	2023-01-07T00:00:00	2024-11-08T07:00:00	6	Velocidad del viento	0
62958	7	Sololá	717	San Juan la Laguna	12	San Juan la Laguna	7	Julio	2023-01-07T00:00:00	2024-11-08T07:00:00	7	Dirección del viento	0
62959	7	Sololá	717	San Juan la Laguna	12	San Juan la Laguna	7	Julio	2023-01-07T00:00:00	2024-11-08T07:00:00	1	Precipitación	0
62960	7	Sololá	717	San Juan la Laguna	12	San Juan la Laguna	7	Julio	2023-01-07T00:00:00	2024-11-08T07:00:00	8	Radiación solar	96
62961	7	Sololá	717	San Juan la Laguna	12	San Juan la Laguna	7	Julio	2023-01-07T00:00:00	2024-11-08T08:00:00	2	Temperatura media	21.6
62962	7	Sololá	717	San Juan la Laguna	12	San Juan la Laguna	7	Julio	2023-01-07T00:00:00	2024-11-08T08:00:00	4	Temperatura máxima	21.6
62963	7	Sololá	717	San Juan la Laguna	12	San Juan la Laguna	7	Julio	2023-01-07T00:00:00	2024-11-08T08:00:00	3	Temperatura mínima	18.1
62964	7	Sololá	717	San Juan la Laguna	12	San Juan la Laguna	7	Julio	2023-01-07T00:00:00	2024-11-08T08:00:00	5	Humedad	68
62965	7	Sololá	717	San Juan la Laguna	12	San Juan la Laguna	7	Julio	2023-01-07T00:00:00	2024-11-08T08:00:00	6	Velocidad del viento	0
62966	7	Sololá	717	San Juan la Laguna	12	San Juan la Laguna	7	Julio	2023-01-07T00:00:00	2024-11-08T08:00:00	7	Dirección del viento	0
62967	7	Sololá	717	San Juan la Laguna	12	San Juan la Laguna	7	Julio	2023-01-07T00:00:00	2024-11-08T08:00:00	1	Precipitación	0
62968	7	Sololá	717	San Juan la Laguna	12	San Juan la Laguna	7	Julio	2023-01-07T00:00:00	2024-11-08T08:00:00	8	Radiación solar	338
62969	7	Sololá	717	San Juan la Laguna	12	San Juan la Laguna	7	Julio	2023-01-07T00:00:00	2024-11-08T09:00:00	2	Temperatura media	22.8
62970	7	Sololá	717	San Juan la Laguna	12	San Juan la Laguna	7	Julio	2023-01-07T00:00:00	2024-11-08T09:00:00	4	Temperatura máxima	22.9
62971	7	Sololá	717	San Juan la Laguna	12	San Juan la Laguna	7	Julio	2023-01-07T00:00:00	2024-11-08T09:00:00	3	Temperatura mínima	21.6
62972	7	Sololá	717	San Juan la Laguna	12	San Juan la Laguna	7	Julio	2023-01-07T00:00:00	2024-11-08T09:00:00	5	Humedad	66
62973	7	Sololá	717	San Juan la Laguna	12	San Juan la Laguna	7	Julio	2023-01-07T00:00:00	2024-11-08T09:00:00	6	Velocidad del viento	0
62974	7	Sololá	717	San Juan la Laguna	12	San Juan la Laguna	7	Julio	2023-01-07T00:00:00	2024-11-08T09:00:00	7	Dirección del viento	0
62975	7	Sololá	717	San Juan la Laguna	12	San Juan la Laguna	7	Julio	2023-01-07T00:00:00	2024-11-08T09:00:00	1	Precipitación	0
62976	7	Sololá	717	San Juan la Laguna	12	San Juan la Laguna	7	Julio	2023-01-07T00:00:00	2024-11-08T09:00:00	8	Radiación solar	538
62977	7	Sololá	717	San Juan la Laguna	12	San Juan la Laguna	7	Julio	2023-01-07T00:00:00	2024-11-08T10:00:00	2	Temperatura media	24.4
62978	7	Sololá	717	San Juan la Laguna	12	San Juan la Laguna	7	Julio	2023-01-07T00:00:00	2024-11-08T10:00:00	4	Temperatura máxima	24.4
62979	7	Sololá	717	San Juan la Laguna	12	San Juan la Laguna	7	Julio	2023-01-07T00:00:00	2024-11-08T10:00:00	3	Temperatura mínima	22.8
62980	7	Sololá	717	San Juan la Laguna	12	San Juan la Laguna	7	Julio	2023-01-07T00:00:00	2024-11-08T10:00:00	5	Humedad	57
62981	7	Sololá	717	San Juan la Laguna	12	San Juan la Laguna	7	Julio	2023-01-07T00:00:00	2024-11-08T10:00:00	6	Velocidad del viento	0
62982	7	Sololá	717	San Juan la Laguna	12	San Juan la Laguna	7	Julio	2023-01-07T00:00:00	2024-11-08T10:00:00	7	Dirección del viento	0
62983	7	Sololá	717	San Juan la Laguna	12	San Juan la Laguna	7	Julio	2023-01-07T00:00:00	2024-11-08T10:00:00	1	Precipitación	0
62984	7	Sololá	717	San Juan la Laguna	12	San Juan la Laguna	7	Julio	2023-01-07T00:00:00	2024-11-08T10:00:00	8	Radiación solar	707
62985	7	Sololá	717	San Juan la Laguna	12	San Juan la Laguna	7	Julio	2023-01-07T00:00:00	2024-11-08T11:00:00	2	Temperatura media	25.6
62986	7	Sololá	717	San Juan la Laguna	12	San Juan la Laguna	7	Julio	2023-01-07T00:00:00	2024-11-08T11:00:00	4	Temperatura máxima	25.7
62987	7	Sololá	717	San Juan la Laguna	12	San Juan la Laguna	7	Julio	2023-01-07T00:00:00	2024-11-08T11:00:00	3	Temperatura mínima	24.4
62988	7	Sololá	717	San Juan la Laguna	12	San Juan la Laguna	7	Julio	2023-01-07T00:00:00	2024-11-08T11:00:00	5	Humedad	54
62989	7	Sololá	717	San Juan la Laguna	12	San Juan la Laguna	7	Julio	2023-01-07T00:00:00	2024-11-08T11:00:00	6	Velocidad del viento	1.6
62990	7	Sololá	717	San Juan la Laguna	12	San Juan la Laguna	7	Julio	2023-01-07T00:00:00	2024-11-08T11:00:00	7	Dirección del viento	1.61
62991	7	Sololá	717	San Juan la Laguna	12	San Juan la Laguna	7	Julio	2023-01-07T00:00:00	2024-11-08T11:00:00	1	Precipitación	0
62992	7	Sololá	717	San Juan la Laguna	12	San Juan la Laguna	7	Julio	2023-01-07T00:00:00	2024-11-08T11:00:00	8	Radiación solar	871
62993	7	Sololá	717	San Juan la Laguna	12	San Juan la Laguna	7	Julio	2023-01-07T00:00:00	2024-11-08T12:00:00	2	Temperatura media	25.6
62994	7	Sololá	717	San Juan la Laguna	12	San Juan la Laguna	7	Julio	2023-01-07T00:00:00	2024-11-08T12:00:00	4	Temperatura máxima	26.3
62995	7	Sololá	717	San Juan la Laguna	12	San Juan la Laguna	7	Julio	2023-01-07T00:00:00	2024-11-08T12:00:00	3	Temperatura mínima	25.3
62996	7	Sololá	717	San Juan la Laguna	12	San Juan la Laguna	7	Julio	2023-01-07T00:00:00	2024-11-08T12:00:00	5	Humedad	63
62997	7	Sololá	717	San Juan la Laguna	12	San Juan la Laguna	7	Julio	2023-01-07T00:00:00	2024-11-08T12:00:00	6	Velocidad del viento	3.2
62998	7	Sololá	717	San Juan la Laguna	12	San Juan la Laguna	7	Julio	2023-01-07T00:00:00	2024-11-08T12:00:00	7	Dirección del viento	3.22
62999	7	Sololá	717	San Juan la Laguna	12	San Juan la Laguna	7	Julio	2023-01-07T00:00:00	2024-11-08T12:00:00	1	Precipitación	0
63000	7	Sololá	717	San Juan la Laguna	12	San Juan la Laguna	7	Julio	2023-01-07T00:00:00	2024-11-08T12:00:00	8	Radiación solar	961
63001	7	Sololá	717	San Juan la Laguna	12	San Juan la Laguna	7	Julio	2023-01-07T00:00:00	2024-11-08T13:00:00	2	Temperatura media	26.3
63002	7	Sololá	717	San Juan la Laguna	12	San Juan la Laguna	7	Julio	2023-01-07T00:00:00	2024-11-08T13:00:00	4	Temperatura máxima	26.6
63003	7	Sololá	717	San Juan la Laguna	12	San Juan la Laguna	7	Julio	2023-01-07T00:00:00	2024-11-08T13:00:00	3	Temperatura mínima	25.3
63004	7	Sololá	717	San Juan la Laguna	12	San Juan la Laguna	7	Julio	2023-01-07T00:00:00	2024-11-08T13:00:00	5	Humedad	64
63005	7	Sololá	717	San Juan la Laguna	12	San Juan la Laguna	7	Julio	2023-01-07T00:00:00	2024-11-08T13:00:00	6	Velocidad del viento	4.8
63006	7	Sololá	717	San Juan la Laguna	12	San Juan la Laguna	7	Julio	2023-01-07T00:00:00	2024-11-08T13:00:00	7	Dirección del viento	4.83
63007	7	Sololá	717	San Juan la Laguna	12	San Juan la Laguna	7	Julio	2023-01-07T00:00:00	2024-11-08T13:00:00	1	Precipitación	0
63008	7	Sololá	717	San Juan la Laguna	12	San Juan la Laguna	7	Julio	2023-01-07T00:00:00	2024-11-08T13:00:00	8	Radiación solar	947
63009	7	Sololá	717	San Juan la Laguna	12	San Juan la Laguna	7	Julio	2023-01-07T00:00:00	2024-11-08T14:00:00	2	Temperatura media	24.6
63010	7	Sololá	717	San Juan la Laguna	12	San Juan la Laguna	7	Julio	2023-01-07T00:00:00	2024-11-08T14:00:00	4	Temperatura máxima	26.6
63011	7	Sololá	717	San Juan la Laguna	12	San Juan la Laguna	7	Julio	2023-01-07T00:00:00	2024-11-08T14:00:00	3	Temperatura mínima	24.6
63012	7	Sololá	717	San Juan la Laguna	12	San Juan la Laguna	7	Julio	2023-01-07T00:00:00	2024-11-08T14:00:00	5	Humedad	69
63013	7	Sololá	717	San Juan la Laguna	12	San Juan la Laguna	7	Julio	2023-01-07T00:00:00	2024-11-08T14:00:00	6	Velocidad del viento	11.3
63014	7	Sololá	717	San Juan la Laguna	12	San Juan la Laguna	7	Julio	2023-01-07T00:00:00	2024-11-08T14:00:00	7	Dirección del viento	11.27
63015	7	Sololá	717	San Juan la Laguna	12	San Juan la Laguna	7	Julio	2023-01-07T00:00:00	2024-11-08T14:00:00	1	Precipitación	0
63016	7	Sololá	717	San Juan la Laguna	12	San Juan la Laguna	7	Julio	2023-01-07T00:00:00	2024-11-08T14:00:00	8	Radiación solar	805
63017	7	Sololá	717	San Juan la Laguna	12	San Juan la Laguna	7	Julio	2023-01-07T00:00:00	2024-11-08T15:00:00	2	Temperatura media	23.2
63018	7	Sololá	717	San Juan la Laguna	12	San Juan la Laguna	7	Julio	2023-01-07T00:00:00	2024-11-08T15:00:00	4	Temperatura máxima	25.1
63019	7	Sololá	717	San Juan la Laguna	12	San Juan la Laguna	7	Julio	2023-01-07T00:00:00	2024-11-08T15:00:00	3	Temperatura mínima	23.2
63020	7	Sololá	717	San Juan la Laguna	12	San Juan la Laguna	7	Julio	2023-01-07T00:00:00	2024-11-08T15:00:00	5	Humedad	70
63021	7	Sololá	717	San Juan la Laguna	12	San Juan la Laguna	7	Julio	2023-01-07T00:00:00	2024-11-08T15:00:00	6	Velocidad del viento	11.3
63022	7	Sololá	717	San Juan la Laguna	12	San Juan la Laguna	7	Julio	2023-01-07T00:00:00	2024-11-08T15:00:00	7	Dirección del viento	11.27
63023	7	Sololá	717	San Juan la Laguna	12	San Juan la Laguna	7	Julio	2023-01-07T00:00:00	2024-11-08T15:00:00	1	Precipitación	0
63024	7	Sololá	717	San Juan la Laguna	12	San Juan la Laguna	7	Julio	2023-01-07T00:00:00	2024-11-08T15:00:00	8	Radiación solar	730
63025	7	Sololá	717	San Juan la Laguna	12	San Juan la Laguna	7	Julio	2023-01-07T00:00:00	2024-11-08T16:00:00	2	Temperatura media	16.3
63026	7	Sololá	717	San Juan la Laguna	12	San Juan la Laguna	7	Julio	2023-01-07T00:00:00	2024-11-08T16:00:00	4	Temperatura máxima	23.3
63027	7	Sololá	717	San Juan la Laguna	12	San Juan la Laguna	7	Julio	2023-01-07T00:00:00	2024-11-08T16:00:00	3	Temperatura mínima	16.3
63028	7	Sololá	717	San Juan la Laguna	12	San Juan la Laguna	7	Julio	2023-01-07T00:00:00	2024-11-08T16:00:00	5	Humedad	88
63029	7	Sololá	717	San Juan la Laguna	12	San Juan la Laguna	7	Julio	2023-01-07T00:00:00	2024-11-08T16:00:00	6	Velocidad del viento	8
63030	7	Sololá	717	San Juan la Laguna	12	San Juan la Laguna	7	Julio	2023-01-07T00:00:00	2024-11-08T16:00:00	7	Dirección del viento	8.05
63031	7	Sololá	717	San Juan la Laguna	12	San Juan la Laguna	7	Julio	2023-01-07T00:00:00	2024-11-08T16:00:00	1	Precipitación	16.6
63032	7	Sololá	717	San Juan la Laguna	12	San Juan la Laguna	7	Julio	2023-01-07T00:00:00	2024-11-08T16:00:00	8	Radiación solar	620
63033	7	Sololá	717	San Juan la Laguna	12	San Juan la Laguna	7	Julio	2023-01-07T00:00:00	2024-11-08T17:00:00	2	Temperatura media	17.3
63034	7	Sololá	717	San Juan la Laguna	12	San Juan la Laguna	7	Julio	2023-01-07T00:00:00	2024-11-08T17:00:00	4	Temperatura máxima	17.4
63035	7	Sololá	717	San Juan la Laguna	12	San Juan la Laguna	7	Julio	2023-01-07T00:00:00	2024-11-08T17:00:00	3	Temperatura mínima	16.3
63036	7	Sololá	717	San Juan la Laguna	12	San Juan la Laguna	7	Julio	2023-01-07T00:00:00	2024-11-08T17:00:00	5	Humedad	86
63037	7	Sololá	717	San Juan la Laguna	12	San Juan la Laguna	7	Julio	2023-01-07T00:00:00	2024-11-08T17:00:00	6	Velocidad del viento	4.8
63038	7	Sololá	717	San Juan la Laguna	12	San Juan la Laguna	7	Julio	2023-01-07T00:00:00	2024-11-08T17:00:00	7	Dirección del viento	4.83
63039	7	Sololá	717	San Juan la Laguna	12	San Juan la Laguna	7	Julio	2023-01-07T00:00:00	2024-11-08T17:00:00	1	Precipitación	3
63040	7	Sololá	717	San Juan la Laguna	12	San Juan la Laguna	7	Julio	2023-01-07T00:00:00	2024-11-08T17:00:00	8	Radiación solar	410
63041	7	Sololá	717	San Juan la Laguna	12	San Juan la Laguna	7	Julio	2023-01-07T00:00:00	2024-11-08T18:00:00	2	Temperatura media	16.9
63042	7	Sololá	717	San Juan la Laguna	12	San Juan la Laguna	7	Julio	2023-01-07T00:00:00	2024-11-08T18:00:00	4	Temperatura máxima	17.8
63043	7	Sololá	717	San Juan la Laguna	12	San Juan la Laguna	7	Julio	2023-01-07T00:00:00	2024-11-08T18:00:00	3	Temperatura mínima	16.9
63044	7	Sololá	717	San Juan la Laguna	12	San Juan la Laguna	7	Julio	2023-01-07T00:00:00	2024-11-08T18:00:00	5	Humedad	89
63045	7	Sololá	717	San Juan la Laguna	12	San Juan la Laguna	7	Julio	2023-01-07T00:00:00	2024-11-08T18:00:00	6	Velocidad del viento	1.6
63046	7	Sololá	717	San Juan la Laguna	12	San Juan la Laguna	7	Julio	2023-01-07T00:00:00	2024-11-08T18:00:00	7	Dirección del viento	1.61
63047	7	Sololá	717	San Juan la Laguna	12	San Juan la Laguna	7	Julio	2023-01-07T00:00:00	2024-11-08T18:00:00	1	Precipitación	5.6
63048	7	Sololá	717	San Juan la Laguna	12	San Juan la Laguna	7	Julio	2023-01-07T00:00:00	2024-11-08T18:00:00	8	Radiación solar	106
63049	7	Sololá	717	San Juan la Laguna	12	San Juan la Laguna	7	Julio	2023-01-07T00:00:00	2024-11-08T19:00:00	2	Temperatura media	17
63050	7	Sololá	717	San Juan la Laguna	12	San Juan la Laguna	7	Julio	2023-01-07T00:00:00	2024-11-08T19:00:00	4	Temperatura máxima	17.1
63051	7	Sololá	717	San Juan la Laguna	12	San Juan la Laguna	7	Julio	2023-01-07T00:00:00	2024-11-08T19:00:00	3	Temperatura mínima	16.4
63052	7	Sololá	717	San Juan la Laguna	12	San Juan la Laguna	7	Julio	2023-01-07T00:00:00	2024-11-08T19:00:00	5	Humedad	84
63053	7	Sololá	717	San Juan la Laguna	12	San Juan la Laguna	7	Julio	2023-01-07T00:00:00	2024-11-08T19:00:00	6	Velocidad del viento	4.8
63054	7	Sololá	717	San Juan la Laguna	12	San Juan la Laguna	7	Julio	2023-01-07T00:00:00	2024-11-08T19:00:00	7	Dirección del viento	4.83
63055	7	Sololá	717	San Juan la Laguna	12	San Juan la Laguna	7	Julio	2023-01-07T00:00:00	2024-11-08T19:00:00	1	Precipitación	1.6
63056	7	Sololá	717	San Juan la Laguna	12	San Juan la Laguna	7	Julio	2023-01-07T00:00:00	2024-11-08T19:00:00	8	Radiación solar	0
63057	7	Sololá	717	San Juan la Laguna	12	San Juan la Laguna	7	Julio	2023-01-07T00:00:00	2024-11-08T20:00:00	2	Temperatura media	16.4
63058	7	Sololá	717	San Juan la Laguna	12	San Juan la Laguna	7	Julio	2023-01-07T00:00:00	2024-11-08T20:00:00	4	Temperatura máxima	17.1
63059	7	Sololá	717	San Juan la Laguna	12	San Juan la Laguna	7	Julio	2023-01-07T00:00:00	2024-11-08T20:00:00	3	Temperatura mínima	16.4
63060	7	Sololá	717	San Juan la Laguna	12	San Juan la Laguna	7	Julio	2023-01-07T00:00:00	2024-11-08T20:00:00	5	Humedad	89
63061	7	Sololá	717	San Juan la Laguna	12	San Juan la Laguna	7	Julio	2023-01-07T00:00:00	2024-11-08T20:00:00	6	Velocidad del viento	0
63062	7	Sololá	717	San Juan la Laguna	12	San Juan la Laguna	7	Julio	2023-01-07T00:00:00	2024-11-08T20:00:00	7	Dirección del viento	0
63063	7	Sololá	717	San Juan la Laguna	12	San Juan la Laguna	7	Julio	2023-01-07T00:00:00	2024-11-08T20:00:00	1	Precipitación	0
63064	7	Sololá	717	San Juan la Laguna	12	San Juan la Laguna	7	Julio	2023-01-07T00:00:00	2024-11-08T20:00:00	8	Radiación solar	0
63065	7	Sololá	717	San Juan la Laguna	12	San Juan la Laguna	7	Julio	2023-01-07T00:00:00	2024-11-08T21:00:00	2	Temperatura media	16.5
63066	7	Sololá	717	San Juan la Laguna	12	San Juan la Laguna	7	Julio	2023-01-07T00:00:00	2024-11-08T21:00:00	4	Temperatura máxima	16.5
63067	7	Sololá	717	San Juan la Laguna	12	San Juan la Laguna	7	Julio	2023-01-07T00:00:00	2024-11-08T21:00:00	3	Temperatura mínima	16.2
63068	7	Sololá	717	San Juan la Laguna	12	San Juan la Laguna	7	Julio	2023-01-07T00:00:00	2024-11-08T21:00:00	5	Humedad	89
63069	7	Sololá	717	San Juan la Laguna	12	San Juan la Laguna	7	Julio	2023-01-07T00:00:00	2024-11-08T21:00:00	6	Velocidad del viento	0
63070	7	Sololá	717	San Juan la Laguna	12	San Juan la Laguna	7	Julio	2023-01-07T00:00:00	2024-11-08T21:00:00	7	Dirección del viento	0
63071	7	Sololá	717	San Juan la Laguna	12	San Juan la Laguna	7	Julio	2023-01-07T00:00:00	2024-11-08T21:00:00	1	Precipitación	0
63072	7	Sololá	717	San Juan la Laguna	12	San Juan la Laguna	7	Julio	2023-01-07T00:00:00	2024-11-08T21:00:00	8	Radiación solar	0
63073	7	Sololá	717	San Juan la Laguna	12	San Juan la Laguna	7	Julio	2023-01-07T00:00:00	2024-11-08T22:00:00	2	Temperatura media	16.7
63074	7	Sololá	717	San Juan la Laguna	12	San Juan la Laguna	7	Julio	2023-01-07T00:00:00	2024-11-08T22:00:00	4	Temperatura máxima	16.9
63075	7	Sololá	717	San Juan la Laguna	12	San Juan la Laguna	7	Julio	2023-01-07T00:00:00	2024-11-08T22:00:00	3	Temperatura mínima	16.5
63076	7	Sololá	717	San Juan la Laguna	12	San Juan la Laguna	7	Julio	2023-01-07T00:00:00	2024-11-08T22:00:00	5	Humedad	89
63077	7	Sololá	717	San Juan la Laguna	12	San Juan la Laguna	7	Julio	2023-01-07T00:00:00	2024-11-08T22:00:00	6	Velocidad del viento	0
63078	7	Sololá	717	San Juan la Laguna	12	San Juan la Laguna	7	Julio	2023-01-07T00:00:00	2024-11-08T22:00:00	7	Dirección del viento	0
63079	7	Sololá	717	San Juan la Laguna	12	San Juan la Laguna	7	Julio	2023-01-07T00:00:00	2024-11-08T22:00:00	1	Precipitación	0
63080	7	Sololá	717	San Juan la Laguna	12	San Juan la Laguna	7	Julio	2023-01-07T00:00:00	2024-11-08T22:00:00	8	Radiación solar	0
63081	7	Sololá	717	San Juan la Laguna	12	San Juan la Laguna	7	Julio	2023-01-07T00:00:00	2024-11-08T23:00:00	2	Temperatura media	17.3
63082	7	Sololá	717	San Juan la Laguna	12	San Juan la Laguna	7	Julio	2023-01-07T00:00:00	2024-11-08T23:00:00	4	Temperatura máxima	17.3
63083	7	Sololá	717	San Juan la Laguna	12	San Juan la Laguna	7	Julio	2023-01-07T00:00:00	2024-11-08T23:00:00	3	Temperatura mínima	16.7
63084	7	Sololá	717	San Juan la Laguna	12	San Juan la Laguna	7	Julio	2023-01-07T00:00:00	2024-11-08T23:00:00	5	Humedad	87
63085	7	Sololá	717	San Juan la Laguna	12	San Juan la Laguna	7	Julio	2023-01-07T00:00:00	2024-11-08T23:00:00	6	Velocidad del viento	0
63086	7	Sololá	717	San Juan la Laguna	12	San Juan la Laguna	7	Julio	2023-01-07T00:00:00	2024-11-08T23:00:00	7	Dirección del viento	0
63087	7	Sololá	717	San Juan la Laguna	12	San Juan la Laguna	7	Julio	2023-01-07T00:00:00	2024-11-08T23:00:00	1	Precipitación	0
63088	7	Sololá	717	San Juan la Laguna	12	San Juan la Laguna	7	Julio	2023-01-07T00:00:00	2024-11-08T23:00:00	8	Radiación solar	0
63089	7	Sololá	717	San Juan la Laguna	12	San Juan la Laguna	7	Julio	2023-02-07T00:00:00	2024-11-08T00:00:00	2	Temperatura media	17
63090	7	Sololá	717	San Juan la Laguna	12	San Juan la Laguna	7	Julio	2023-02-07T00:00:00	2024-11-08T00:00:00	4	Temperatura máxima	17.3
63091	7	Sololá	717	San Juan la Laguna	12	San Juan la Laguna	7	Julio	2023-02-07T00:00:00	2024-11-08T00:00:00	3	Temperatura mínima	16.9
63092	7	Sololá	717	San Juan la Laguna	12	San Juan la Laguna	7	Julio	2023-02-07T00:00:00	2024-11-08T00:00:00	5	Humedad	87
63093	7	Sololá	717	San Juan la Laguna	12	San Juan la Laguna	7	Julio	2023-02-07T00:00:00	2024-11-08T00:00:00	6	Velocidad del viento	0
63094	7	Sololá	717	San Juan la Laguna	12	San Juan la Laguna	7	Julio	2023-02-07T00:00:00	2024-11-08T00:00:00	7	Dirección del viento	0
63095	7	Sololá	717	San Juan la Laguna	12	San Juan la Laguna	7	Julio	2023-02-07T00:00:00	2024-11-08T00:00:00	1	Precipitación	0
63096	7	Sololá	717	San Juan la Laguna	12	San Juan la Laguna	7	Julio	2023-02-07T00:00:00	2024-11-08T00:00:00	8	Radiación solar	0
63097	7	Sololá	717	San Juan la Laguna	12	San Juan la Laguna	7	Julio	2023-02-07T00:00:00	2024-11-08T01:00:00	2	Temperatura media	17
63098	7	Sololá	717	San Juan la Laguna	12	San Juan la Laguna	7	Julio	2023-02-07T00:00:00	2024-11-08T01:00:00	4	Temperatura máxima	17.1
63099	7	Sololá	717	San Juan la Laguna	12	San Juan la Laguna	7	Julio	2023-02-07T00:00:00	2024-11-08T01:00:00	3	Temperatura mínima	16.9
63100	7	Sololá	717	San Juan la Laguna	12	San Juan la Laguna	7	Julio	2023-02-07T00:00:00	2024-11-08T01:00:00	5	Humedad	86
63101	7	Sololá	717	San Juan la Laguna	12	San Juan la Laguna	7	Julio	2023-02-07T00:00:00	2024-11-08T01:00:00	6	Velocidad del viento	0
63102	7	Sololá	717	San Juan la Laguna	12	San Juan la Laguna	7	Julio	2023-02-07T00:00:00	2024-11-08T01:00:00	7	Dirección del viento	0
63103	7	Sololá	717	San Juan la Laguna	12	San Juan la Laguna	7	Julio	2023-02-07T00:00:00	2024-11-08T01:00:00	1	Precipitación	0
63104	7	Sololá	717	San Juan la Laguna	12	San Juan la Laguna	7	Julio	2023-02-07T00:00:00	2024-11-08T01:00:00	8	Radiación solar	0
63105	7	Sololá	717	San Juan la Laguna	12	San Juan la Laguna	7	Julio	2023-02-07T00:00:00	2024-11-08T02:00:00	2	Temperatura media	17.2
63106	7	Sololá	717	San Juan la Laguna	12	San Juan la Laguna	7	Julio	2023-02-07T00:00:00	2024-11-08T02:00:00	4	Temperatura máxima	17.4
63107	7	Sololá	717	San Juan la Laguna	12	San Juan la Laguna	7	Julio	2023-02-07T00:00:00	2024-11-08T02:00:00	3	Temperatura mínima	17
63108	7	Sololá	717	San Juan la Laguna	12	San Juan la Laguna	7	Julio	2023-02-07T00:00:00	2024-11-08T02:00:00	5	Humedad	84
63109	7	Sololá	717	San Juan la Laguna	12	San Juan la Laguna	7	Julio	2023-02-07T00:00:00	2024-11-08T02:00:00	6	Velocidad del viento	0
63110	7	Sololá	717	San Juan la Laguna	12	San Juan la Laguna	7	Julio	2023-02-07T00:00:00	2024-11-08T02:00:00	7	Dirección del viento	0
63111	7	Sololá	717	San Juan la Laguna	12	San Juan la Laguna	7	Julio	2023-02-07T00:00:00	2024-11-08T02:00:00	1	Precipitación	0
63112	7	Sololá	717	San Juan la Laguna	12	San Juan la Laguna	7	Julio	2023-02-07T00:00:00	2024-11-08T02:00:00	8	Radiación solar	0
63113	7	Sololá	717	San Juan la Laguna	12	San Juan la Laguna	7	Julio	2023-02-07T00:00:00	2024-11-08T03:00:00	2	Temperatura media	16.1
63114	7	Sololá	717	San Juan la Laguna	12	San Juan la Laguna	7	Julio	2023-02-07T00:00:00	2024-11-08T03:00:00	4	Temperatura máxima	17.2
63115	7	Sololá	717	San Juan la Laguna	12	San Juan la Laguna	7	Julio	2023-02-07T00:00:00	2024-11-08T03:00:00	3	Temperatura mínima	16.1
63116	7	Sololá	717	San Juan la Laguna	12	San Juan la Laguna	7	Julio	2023-02-07T00:00:00	2024-11-08T03:00:00	5	Humedad	88
63117	7	Sololá	717	San Juan la Laguna	12	San Juan la Laguna	7	Julio	2023-02-07T00:00:00	2024-11-08T03:00:00	6	Velocidad del viento	0
63118	7	Sololá	717	San Juan la Laguna	12	San Juan la Laguna	7	Julio	2023-02-07T00:00:00	2024-11-08T03:00:00	7	Dirección del viento	0
63119	7	Sololá	717	San Juan la Laguna	12	San Juan la Laguna	7	Julio	2023-02-07T00:00:00	2024-11-08T03:00:00	1	Precipitación	0
63120	7	Sololá	717	San Juan la Laguna	12	San Juan la Laguna	7	Julio	2023-02-07T00:00:00	2024-11-08T03:00:00	8	Radiación solar	0
63121	7	Sololá	717	San Juan la Laguna	12	San Juan la Laguna	7	Julio	2023-02-07T00:00:00	2024-11-08T04:00:00	2	Temperatura media	15.8
63122	7	Sololá	717	San Juan la Laguna	12	San Juan la Laguna	7	Julio	2023-02-07T00:00:00	2024-11-08T04:00:00	4	Temperatura máxima	16.1
63123	7	Sololá	717	San Juan la Laguna	12	San Juan la Laguna	7	Julio	2023-02-07T00:00:00	2024-11-08T04:00:00	3	Temperatura mínima	15.7
63124	7	Sololá	717	San Juan la Laguna	12	San Juan la Laguna	7	Julio	2023-02-07T00:00:00	2024-11-08T04:00:00	5	Humedad	87
63125	7	Sololá	717	San Juan la Laguna	12	San Juan la Laguna	7	Julio	2023-02-07T00:00:00	2024-11-08T04:00:00	6	Velocidad del viento	0
63126	7	Sololá	717	San Juan la Laguna	12	San Juan la Laguna	7	Julio	2023-02-07T00:00:00	2024-11-08T04:00:00	7	Dirección del viento	0
63127	7	Sololá	717	San Juan la Laguna	12	San Juan la Laguna	7	Julio	2023-02-07T00:00:00	2024-11-08T04:00:00	1	Precipitación	0
63128	7	Sololá	717	San Juan la Laguna	12	San Juan la Laguna	7	Julio	2023-02-07T00:00:00	2024-11-08T04:00:00	8	Radiación solar	0
63129	7	Sololá	717	San Juan la Laguna	12	San Juan la Laguna	7	Julio	2023-02-07T00:00:00	2024-11-08T05:00:00	2	Temperatura media	15.7
63130	7	Sololá	717	San Juan la Laguna	12	San Juan la Laguna	7	Julio	2023-02-07T00:00:00	2024-11-08T05:00:00	4	Temperatura máxima	15.8
63131	7	Sololá	717	San Juan la Laguna	12	San Juan la Laguna	7	Julio	2023-02-07T00:00:00	2024-11-08T05:00:00	3	Temperatura mínima	15.4
63132	7	Sololá	717	San Juan la Laguna	12	San Juan la Laguna	7	Julio	2023-02-07T00:00:00	2024-11-08T05:00:00	5	Humedad	86
63133	7	Sololá	717	San Juan la Laguna	12	San Juan la Laguna	7	Julio	2023-02-07T00:00:00	2024-11-08T05:00:00	6	Velocidad del viento	0
63134	7	Sololá	717	San Juan la Laguna	12	San Juan la Laguna	7	Julio	2023-02-07T00:00:00	2024-11-08T05:00:00	7	Dirección del viento	0
63135	7	Sololá	717	San Juan la Laguna	12	San Juan la Laguna	7	Julio	2023-02-07T00:00:00	2024-11-08T05:00:00	1	Precipitación	0
63136	7	Sololá	717	San Juan la Laguna	12	San Juan la Laguna	7	Julio	2023-02-07T00:00:00	2024-11-08T05:00:00	8	Radiación solar	0
63137	7	Sololá	717	San Juan la Laguna	12	San Juan la Laguna	7	Julio	2023-02-07T00:00:00	2024-11-08T06:00:00	2	Temperatura media	15.8
63138	7	Sololá	717	San Juan la Laguna	12	San Juan la Laguna	7	Julio	2023-02-07T00:00:00	2024-11-08T06:00:00	4	Temperatura máxima	15.9
63139	7	Sololá	717	San Juan la Laguna	12	San Juan la Laguna	7	Julio	2023-02-07T00:00:00	2024-11-08T06:00:00	3	Temperatura mínima	15.4
63140	7	Sololá	717	San Juan la Laguna	12	San Juan la Laguna	7	Julio	2023-02-07T00:00:00	2024-11-08T06:00:00	5	Humedad	84
63141	7	Sololá	717	San Juan la Laguna	12	San Juan la Laguna	7	Julio	2023-02-07T00:00:00	2024-11-08T06:00:00	6	Velocidad del viento	0
63142	7	Sololá	717	San Juan la Laguna	12	San Juan la Laguna	7	Julio	2023-02-07T00:00:00	2024-11-08T06:00:00	7	Dirección del viento	0
63143	7	Sololá	717	San Juan la Laguna	12	San Juan la Laguna	7	Julio	2023-02-07T00:00:00	2024-11-08T06:00:00	1	Precipitación	0
63144	7	Sololá	717	San Juan la Laguna	12	San Juan la Laguna	7	Julio	2023-02-07T00:00:00	2024-11-08T06:00:00	8	Radiación solar	1
63145	7	Sololá	717	San Juan la Laguna	12	San Juan la Laguna	7	Julio	2023-02-07T00:00:00	2024-11-08T07:00:00	2	Temperatura media	16.8
63146	7	Sololá	717	San Juan la Laguna	12	San Juan la Laguna	7	Julio	2023-02-07T00:00:00	2024-11-08T07:00:00	4	Temperatura máxima	16.8
63147	7	Sololá	717	San Juan la Laguna	12	San Juan la Laguna	7	Julio	2023-02-07T00:00:00	2024-11-08T07:00:00	3	Temperatura mínima	15.8
63148	7	Sololá	717	San Juan la Laguna	12	San Juan la Laguna	7	Julio	2023-02-07T00:00:00	2024-11-08T07:00:00	5	Humedad	84
63149	7	Sololá	717	San Juan la Laguna	12	San Juan la Laguna	7	Julio	2023-02-07T00:00:00	2024-11-08T07:00:00	6	Velocidad del viento	0
63150	7	Sololá	717	San Juan la Laguna	12	San Juan la Laguna	7	Julio	2023-02-07T00:00:00	2024-11-08T07:00:00	7	Dirección del viento	0
63151	7	Sololá	717	San Juan la Laguna	12	San Juan la Laguna	7	Julio	2023-02-07T00:00:00	2024-11-08T07:00:00	1	Precipitación	0
63152	7	Sololá	717	San Juan la Laguna	12	San Juan la Laguna	7	Julio	2023-02-07T00:00:00	2024-11-08T07:00:00	8	Radiación solar	85
63153	7	Sololá	717	San Juan la Laguna	12	San Juan la Laguna	7	Julio	2023-02-07T00:00:00	2024-11-08T08:00:00	2	Temperatura media	21.5
63154	7	Sololá	717	San Juan la Laguna	12	San Juan la Laguna	7	Julio	2023-02-07T00:00:00	2024-11-08T08:00:00	4	Temperatura máxima	21.6
63155	7	Sololá	717	San Juan la Laguna	12	San Juan la Laguna	7	Julio	2023-02-07T00:00:00	2024-11-08T08:00:00	3	Temperatura mínima	16.8
63156	7	Sololá	717	San Juan la Laguna	12	San Juan la Laguna	7	Julio	2023-02-07T00:00:00	2024-11-08T08:00:00	5	Humedad	67
63157	7	Sololá	717	San Juan la Laguna	12	San Juan la Laguna	7	Julio	2023-02-07T00:00:00	2024-11-08T08:00:00	6	Velocidad del viento	0
63158	7	Sololá	717	San Juan la Laguna	12	San Juan la Laguna	7	Julio	2023-02-07T00:00:00	2024-11-08T08:00:00	7	Dirección del viento	0
63159	7	Sololá	717	San Juan la Laguna	12	San Juan la Laguna	7	Julio	2023-02-07T00:00:00	2024-11-08T08:00:00	1	Precipitación	0
63160	7	Sololá	717	San Juan la Laguna	12	San Juan la Laguna	7	Julio	2023-02-07T00:00:00	2024-11-08T08:00:00	8	Radiación solar	312
63161	7	Sololá	717	San Juan la Laguna	12	San Juan la Laguna	7	Julio	2023-02-07T00:00:00	2024-11-08T09:00:00	2	Temperatura media	21.6
63162	7	Sololá	717	San Juan la Laguna	12	San Juan la Laguna	7	Julio	2023-02-07T00:00:00	2024-11-08T09:00:00	4	Temperatura máxima	22
63163	7	Sololá	717	San Juan la Laguna	12	San Juan la Laguna	7	Julio	2023-02-07T00:00:00	2024-11-08T09:00:00	3	Temperatura mínima	21.5
63164	7	Sololá	717	San Juan la Laguna	12	San Juan la Laguna	7	Julio	2023-02-07T00:00:00	2024-11-08T09:00:00	5	Humedad	72
63165	7	Sololá	717	San Juan la Laguna	12	San Juan la Laguna	7	Julio	2023-02-07T00:00:00	2024-11-08T09:00:00	6	Velocidad del viento	0
63166	7	Sololá	717	San Juan la Laguna	12	San Juan la Laguna	7	Julio	2023-02-07T00:00:00	2024-11-08T09:00:00	7	Dirección del viento	0
63167	7	Sololá	717	San Juan la Laguna	12	San Juan la Laguna	7	Julio	2023-02-07T00:00:00	2024-11-08T09:00:00	1	Precipitación	0
63168	7	Sololá	717	San Juan la Laguna	12	San Juan la Laguna	7	Julio	2023-02-07T00:00:00	2024-11-08T09:00:00	8	Radiación solar	530
63169	7	Sololá	717	San Juan la Laguna	12	San Juan la Laguna	7	Julio	2023-02-07T00:00:00	2024-11-08T10:00:00	2	Temperatura media	22.8
63170	7	Sololá	717	San Juan la Laguna	12	San Juan la Laguna	7	Julio	2023-02-07T00:00:00	2024-11-08T10:00:00	4	Temperatura máxima	22.8
63171	7	Sololá	717	San Juan la Laguna	12	San Juan la Laguna	7	Julio	2023-02-07T00:00:00	2024-11-08T10:00:00	3	Temperatura mínima	21.6
63172	7	Sololá	717	San Juan la Laguna	12	San Juan la Laguna	7	Julio	2023-02-07T00:00:00	2024-11-08T10:00:00	5	Humedad	64
63173	7	Sololá	717	San Juan la Laguna	12	San Juan la Laguna	7	Julio	2023-02-07T00:00:00	2024-11-08T10:00:00	6	Velocidad del viento	0
63174	7	Sololá	717	San Juan la Laguna	12	San Juan la Laguna	7	Julio	2023-02-07T00:00:00	2024-11-08T10:00:00	7	Dirección del viento	0
63175	7	Sololá	717	San Juan la Laguna	12	San Juan la Laguna	7	Julio	2023-02-07T00:00:00	2024-11-08T10:00:00	1	Precipitación	0
63176	7	Sololá	717	San Juan la Laguna	12	San Juan la Laguna	7	Julio	2023-02-07T00:00:00	2024-11-08T10:00:00	8	Radiación solar	693
63177	7	Sololá	717	San Juan la Laguna	12	San Juan la Laguna	7	Julio	2023-02-07T00:00:00	2024-11-08T11:00:00	2	Temperatura media	23.3
63178	7	Sololá	717	San Juan la Laguna	12	San Juan la Laguna	7	Julio	2023-02-07T00:00:00	2024-11-08T11:00:00	4	Temperatura máxima	23.6
63179	7	Sololá	717	San Juan la Laguna	12	San Juan la Laguna	7	Julio	2023-02-07T00:00:00	2024-11-08T11:00:00	3	Temperatura mínima	22.8
63180	7	Sololá	717	San Juan la Laguna	12	San Juan la Laguna	7	Julio	2023-02-07T00:00:00	2024-11-08T11:00:00	5	Humedad	61
63181	7	Sololá	717	San Juan la Laguna	12	San Juan la Laguna	7	Julio	2023-02-07T00:00:00	2024-11-08T11:00:00	6	Velocidad del viento	1.6
63182	7	Sololá	717	San Juan la Laguna	12	San Juan la Laguna	7	Julio	2023-02-07T00:00:00	2024-11-08T11:00:00	7	Dirección del viento	1.61
63183	7	Sololá	717	San Juan la Laguna	12	San Juan la Laguna	7	Julio	2023-02-07T00:00:00	2024-11-08T11:00:00	1	Precipitación	0
63184	7	Sololá	717	San Juan la Laguna	12	San Juan la Laguna	7	Julio	2023-02-07T00:00:00	2024-11-08T11:00:00	8	Radiación solar	876
63185	7	Sololá	717	San Juan la Laguna	12	San Juan la Laguna	7	Julio	2023-02-07T00:00:00	2024-11-08T12:00:00	2	Temperatura media	22.8
63186	7	Sololá	717	San Juan la Laguna	12	San Juan la Laguna	7	Julio	2023-02-07T00:00:00	2024-11-08T12:00:00	4	Temperatura máxima	23.8
63187	7	Sololá	717	San Juan la Laguna	12	San Juan la Laguna	7	Julio	2023-02-07T00:00:00	2024-11-08T12:00:00	3	Temperatura mínima	22.8
63188	7	Sololá	717	San Juan la Laguna	12	San Juan la Laguna	7	Julio	2023-02-07T00:00:00	2024-11-08T12:00:00	5	Humedad	67
63189	7	Sololá	717	San Juan la Laguna	12	San Juan la Laguna	7	Julio	2023-02-07T00:00:00	2024-11-08T12:00:00	6	Velocidad del viento	3.2
63190	7	Sololá	717	San Juan la Laguna	12	San Juan la Laguna	7	Julio	2023-02-07T00:00:00	2024-11-08T12:00:00	7	Dirección del viento	3.22
63191	7	Sololá	717	San Juan la Laguna	12	San Juan la Laguna	7	Julio	2023-02-07T00:00:00	2024-11-08T12:00:00	1	Precipitación	0
63192	7	Sololá	717	San Juan la Laguna	12	San Juan la Laguna	7	Julio	2023-02-07T00:00:00	2024-11-08T12:00:00	8	Radiación solar	814
63193	7	Sololá	717	San Juan la Laguna	12	San Juan la Laguna	7	Julio	2023-02-07T00:00:00	2024-11-08T13:00:00	2	Temperatura media	22.6
63194	7	Sololá	717	San Juan la Laguna	12	San Juan la Laguna	7	Julio	2023-02-07T00:00:00	2024-11-08T13:00:00	4	Temperatura máxima	23.7
63195	7	Sololá	717	San Juan la Laguna	12	San Juan la Laguna	7	Julio	2023-02-07T00:00:00	2024-11-08T13:00:00	3	Temperatura mínima	22.3
63196	7	Sololá	717	San Juan la Laguna	12	San Juan la Laguna	7	Julio	2023-02-07T00:00:00	2024-11-08T13:00:00	5	Humedad	72
63197	7	Sololá	717	San Juan la Laguna	12	San Juan la Laguna	7	Julio	2023-02-07T00:00:00	2024-11-08T13:00:00	6	Velocidad del viento	1.6
63198	7	Sololá	717	San Juan la Laguna	12	San Juan la Laguna	7	Julio	2023-02-07T00:00:00	2024-11-08T13:00:00	7	Dirección del viento	1.61
63199	7	Sololá	717	San Juan la Laguna	12	San Juan la Laguna	7	Julio	2023-02-07T00:00:00	2024-11-08T13:00:00	1	Precipitación	0
63200	7	Sololá	717	San Juan la Laguna	12	San Juan la Laguna	7	Julio	2023-02-07T00:00:00	2024-11-08T13:00:00	8	Radiación solar	774
63201	7	Sololá	717	San Juan la Laguna	12	San Juan la Laguna	7	Julio	2023-02-07T00:00:00	2024-11-08T14:00:00	2	Temperatura media	22.5
63202	7	Sololá	717	San Juan la Laguna	12	San Juan la Laguna	7	Julio	2023-02-07T00:00:00	2024-11-08T14:00:00	4	Temperatura máxima	23
63203	7	Sololá	717	San Juan la Laguna	12	San Juan la Laguna	7	Julio	2023-02-07T00:00:00	2024-11-08T14:00:00	3	Temperatura mínima	22.3
63204	7	Sololá	717	San Juan la Laguna	12	San Juan la Laguna	7	Julio	2023-02-07T00:00:00	2024-11-08T14:00:00	5	Humedad	73
63205	7	Sololá	717	San Juan la Laguna	12	San Juan la Laguna	7	Julio	2023-02-07T00:00:00	2024-11-08T14:00:00	6	Velocidad del viento	3.2
63206	7	Sololá	717	San Juan la Laguna	12	San Juan la Laguna	7	Julio	2023-02-07T00:00:00	2024-11-08T14:00:00	7	Dirección del viento	3.22
63207	7	Sololá	717	San Juan la Laguna	12	San Juan la Laguna	7	Julio	2023-02-07T00:00:00	2024-11-08T14:00:00	1	Precipitación	0
63208	7	Sololá	717	San Juan la Laguna	12	San Juan la Laguna	7	Julio	2023-02-07T00:00:00	2024-11-08T14:00:00	8	Radiación solar	904
63209	7	Sololá	717	San Juan la Laguna	12	San Juan la Laguna	7	Julio	2023-02-07T00:00:00	2024-11-08T15:00:00	2	Temperatura media	21.1
63210	7	Sololá	717	San Juan la Laguna	12	San Juan la Laguna	7	Julio	2023-02-07T00:00:00	2024-11-08T15:00:00	4	Temperatura máxima	22.6
63211	7	Sololá	717	San Juan la Laguna	12	San Juan la Laguna	7	Julio	2023-02-07T00:00:00	2024-11-08T15:00:00	3	Temperatura mínima	21.1
63212	7	Sololá	717	San Juan la Laguna	12	San Juan la Laguna	7	Julio	2023-02-07T00:00:00	2024-11-08T15:00:00	5	Humedad	73
63213	7	Sololá	717	San Juan la Laguna	12	San Juan la Laguna	7	Julio	2023-02-07T00:00:00	2024-11-08T15:00:00	6	Velocidad del viento	3.2
63214	7	Sololá	717	San Juan la Laguna	12	San Juan la Laguna	7	Julio	2023-02-07T00:00:00	2024-11-08T15:00:00	7	Dirección del viento	3.22
63215	7	Sololá	717	San Juan la Laguna	12	San Juan la Laguna	7	Julio	2023-02-07T00:00:00	2024-11-08T15:00:00	1	Precipitación	0
63216	7	Sololá	717	San Juan la Laguna	12	San Juan la Laguna	7	Julio	2023-02-07T00:00:00	2024-11-08T15:00:00	8	Radiación solar	820
63217	7	Sololá	717	San Juan la Laguna	12	San Juan la Laguna	7	Julio	2023-02-07T00:00:00	2024-11-08T16:00:00	2	Temperatura media	20.6
63218	7	Sololá	717	San Juan la Laguna	12	San Juan la Laguna	7	Julio	2023-02-07T00:00:00	2024-11-08T16:00:00	4	Temperatura máxima	21.2
63219	7	Sololá	717	San Juan la Laguna	12	San Juan la Laguna	7	Julio	2023-02-07T00:00:00	2024-11-08T16:00:00	3	Temperatura mínima	20.6
63220	7	Sololá	717	San Juan la Laguna	12	San Juan la Laguna	7	Julio	2023-02-07T00:00:00	2024-11-08T16:00:00	5	Humedad	75
63221	7	Sololá	717	San Juan la Laguna	12	San Juan la Laguna	7	Julio	2023-02-07T00:00:00	2024-11-08T16:00:00	6	Velocidad del viento	1.6
63222	7	Sololá	717	San Juan la Laguna	12	San Juan la Laguna	7	Julio	2023-02-07T00:00:00	2024-11-08T16:00:00	7	Dirección del viento	1.61
63223	7	Sololá	717	San Juan la Laguna	12	San Juan la Laguna	7	Julio	2023-02-07T00:00:00	2024-11-08T16:00:00	1	Precipitación	0
63224	7	Sololá	717	San Juan la Laguna	12	San Juan la Laguna	7	Julio	2023-02-07T00:00:00	2024-11-08T16:00:00	8	Radiación solar	321
63225	7	Sololá	717	San Juan la Laguna	12	San Juan la Laguna	7	Julio	2023-02-07T00:00:00	2024-11-08T17:00:00	2	Temperatura media	20.8
63226	7	Sololá	717	San Juan la Laguna	12	San Juan la Laguna	7	Julio	2023-02-07T00:00:00	2024-11-08T17:00:00	4	Temperatura máxima	21.1
63227	7	Sololá	717	San Juan la Laguna	12	San Juan la Laguna	7	Julio	2023-02-07T00:00:00	2024-11-08T17:00:00	3	Temperatura mínima	20.6
63228	7	Sololá	717	San Juan la Laguna	12	San Juan la Laguna	7	Julio	2023-02-07T00:00:00	2024-11-08T17:00:00	5	Humedad	75
63229	7	Sololá	717	San Juan la Laguna	12	San Juan la Laguna	7	Julio	2023-02-07T00:00:00	2024-11-08T17:00:00	6	Velocidad del viento	0
63230	7	Sololá	717	San Juan la Laguna	12	San Juan la Laguna	7	Julio	2023-02-07T00:00:00	2024-11-08T17:00:00	7	Dirección del viento	0
63231	7	Sololá	717	San Juan la Laguna	12	San Juan la Laguna	7	Julio	2023-02-07T00:00:00	2024-11-08T17:00:00	1	Precipitación	0
63232	7	Sololá	717	San Juan la Laguna	12	San Juan la Laguna	7	Julio	2023-02-07T00:00:00	2024-11-08T17:00:00	8	Radiación solar	70
63233	7	Sololá	717	San Juan la Laguna	12	San Juan la Laguna	7	Julio	2023-02-07T00:00:00	2024-11-08T18:00:00	2	Temperatura media	19.4
63234	7	Sololá	717	San Juan la Laguna	12	San Juan la Laguna	7	Julio	2023-02-07T00:00:00	2024-11-08T18:00:00	4	Temperatura máxima	20.8
63235	7	Sololá	717	San Juan la Laguna	12	San Juan la Laguna	7	Julio	2023-02-07T00:00:00	2024-11-08T18:00:00	3	Temperatura mínima	19.3
63236	7	Sololá	717	San Juan la Laguna	12	San Juan la Laguna	7	Julio	2023-02-07T00:00:00	2024-11-08T18:00:00	5	Humedad	80
63237	7	Sololá	717	San Juan la Laguna	12	San Juan la Laguna	7	Julio	2023-02-07T00:00:00	2024-11-08T18:00:00	6	Velocidad del viento	1.6
63238	7	Sololá	717	San Juan la Laguna	12	San Juan la Laguna	7	Julio	2023-02-07T00:00:00	2024-11-08T18:00:00	7	Dirección del viento	1.61
63239	7	Sololá	717	San Juan la Laguna	12	San Juan la Laguna	7	Julio	2023-02-07T00:00:00	2024-11-08T18:00:00	1	Precipitación	0
63240	7	Sololá	717	San Juan la Laguna	12	San Juan la Laguna	7	Julio	2023-02-07T00:00:00	2024-11-08T18:00:00	8	Radiación solar	6
63241	7	Sololá	717	San Juan la Laguna	12	San Juan la Laguna	7	Julio	2023-02-07T00:00:00	2024-11-08T19:00:00	2	Temperatura media	18.4
63242	7	Sololá	717	San Juan la Laguna	12	San Juan la Laguna	7	Julio	2023-02-07T00:00:00	2024-11-08T19:00:00	4	Temperatura máxima	19.4
63243	7	Sololá	717	San Juan la Laguna	12	San Juan la Laguna	7	Julio	2023-02-07T00:00:00	2024-11-08T19:00:00	3	Temperatura mínima	18.4
63244	7	Sololá	717	San Juan la Laguna	12	San Juan la Laguna	7	Julio	2023-02-07T00:00:00	2024-11-08T19:00:00	5	Humedad	85
63245	7	Sololá	717	San Juan la Laguna	12	San Juan la Laguna	7	Julio	2023-02-07T00:00:00	2024-11-08T19:00:00	6	Velocidad del viento	1.6
63246	7	Sololá	717	San Juan la Laguna	12	San Juan la Laguna	7	Julio	2023-02-07T00:00:00	2024-11-08T19:00:00	7	Dirección del viento	1.61
63247	7	Sololá	717	San Juan la Laguna	12	San Juan la Laguna	7	Julio	2023-02-07T00:00:00	2024-11-08T19:00:00	1	Precipitación	0
63248	7	Sololá	717	San Juan la Laguna	12	San Juan la Laguna	7	Julio	2023-02-07T00:00:00	2024-11-08T19:00:00	8	Radiación solar	0
63249	7	Sololá	717	San Juan la Laguna	12	San Juan la Laguna	7	Julio	2023-02-07T00:00:00	2024-11-08T20:00:00	2	Temperatura media	18.6
63250	7	Sololá	717	San Juan la Laguna	12	San Juan la Laguna	7	Julio	2023-02-07T00:00:00	2024-11-08T20:00:00	4	Temperatura máxima	18.6
63251	7	Sololá	717	San Juan la Laguna	12	San Juan la Laguna	7	Julio	2023-02-07T00:00:00	2024-11-08T20:00:00	3	Temperatura mínima	18.3
63252	7	Sololá	717	San Juan la Laguna	12	San Juan la Laguna	7	Julio	2023-02-07T00:00:00	2024-11-08T20:00:00	5	Humedad	86
63253	7	Sololá	717	San Juan la Laguna	12	San Juan la Laguna	7	Julio	2023-02-07T00:00:00	2024-11-08T20:00:00	6	Velocidad del viento	0
63254	7	Sololá	717	San Juan la Laguna	12	San Juan la Laguna	7	Julio	2023-02-07T00:00:00	2024-11-08T20:00:00	7	Dirección del viento	0
63255	7	Sololá	717	San Juan la Laguna	12	San Juan la Laguna	7	Julio	2023-02-07T00:00:00	2024-11-08T20:00:00	1	Precipitación	0
63256	7	Sololá	717	San Juan la Laguna	12	San Juan la Laguna	7	Julio	2023-02-07T00:00:00	2024-11-08T20:00:00	8	Radiación solar	0
63257	7	Sololá	717	San Juan la Laguna	12	San Juan la Laguna	7	Julio	2023-02-07T00:00:00	2024-11-08T21:00:00	2	Temperatura media	18.4
63258	7	Sololá	717	San Juan la Laguna	12	San Juan la Laguna	7	Julio	2023-02-07T00:00:00	2024-11-08T21:00:00	4	Temperatura máxima	18.6
63259	7	Sololá	717	San Juan la Laguna	12	San Juan la Laguna	7	Julio	2023-02-07T00:00:00	2024-11-08T21:00:00	3	Temperatura mínima	18.4
63260	7	Sololá	717	San Juan la Laguna	12	San Juan la Laguna	7	Julio	2023-02-07T00:00:00	2024-11-08T21:00:00	5	Humedad	88
63261	7	Sololá	717	San Juan la Laguna	12	San Juan la Laguna	7	Julio	2023-02-07T00:00:00	2024-11-08T21:00:00	6	Velocidad del viento	0
63262	7	Sololá	717	San Juan la Laguna	12	San Juan la Laguna	7	Julio	2023-02-07T00:00:00	2024-11-08T21:00:00	7	Dirección del viento	0
63263	7	Sololá	717	San Juan la Laguna	12	San Juan la Laguna	7	Julio	2023-02-07T00:00:00	2024-11-08T21:00:00	1	Precipitación	0
63264	7	Sololá	717	San Juan la Laguna	12	San Juan la Laguna	7	Julio	2023-02-07T00:00:00	2024-11-08T21:00:00	8	Radiación solar	0
63265	7	Sololá	717	San Juan la Laguna	12	San Juan la Laguna	7	Julio	2023-02-07T00:00:00	2024-11-08T22:00:00	2	Temperatura media	18.5
63266	7	Sololá	717	San Juan la Laguna	12	San Juan la Laguna	7	Julio	2023-02-07T00:00:00	2024-11-08T22:00:00	4	Temperatura máxima	18.5
63267	7	Sololá	717	San Juan la Laguna	12	San Juan la Laguna	7	Julio	2023-02-07T00:00:00	2024-11-08T22:00:00	3	Temperatura mínima	18.3
63268	7	Sololá	717	San Juan la Laguna	12	San Juan la Laguna	7	Julio	2023-02-07T00:00:00	2024-11-08T22:00:00	5	Humedad	88
63269	7	Sololá	717	San Juan la Laguna	12	San Juan la Laguna	7	Julio	2023-02-07T00:00:00	2024-11-08T22:00:00	6	Velocidad del viento	0
63270	7	Sololá	717	San Juan la Laguna	12	San Juan la Laguna	7	Julio	2023-02-07T00:00:00	2024-11-08T22:00:00	7	Dirección del viento	0
63271	7	Sololá	717	San Juan la Laguna	12	San Juan la Laguna	7	Julio	2023-02-07T00:00:00	2024-11-08T22:00:00	1	Precipitación	0
63272	7	Sololá	717	San Juan la Laguna	12	San Juan la Laguna	7	Julio	2023-02-07T00:00:00	2024-11-08T22:00:00	8	Radiación solar	0
63273	7	Sololá	717	San Juan la Laguna	12	San Juan la Laguna	7	Julio	2023-02-07T00:00:00	2024-11-08T23:00:00	2	Temperatura media	18.1
63274	7	Sololá	717	San Juan la Laguna	12	San Juan la Laguna	7	Julio	2023-02-07T00:00:00	2024-11-08T23:00:00	4	Temperatura máxima	18.6
63275	7	Sololá	717	San Juan la Laguna	12	San Juan la Laguna	7	Julio	2023-02-07T00:00:00	2024-11-08T23:00:00	3	Temperatura mínima	18.1
63276	7	Sololá	717	San Juan la Laguna	12	San Juan la Laguna	7	Julio	2023-02-07T00:00:00	2024-11-08T23:00:00	5	Humedad	88
63277	7	Sololá	717	San Juan la Laguna	12	San Juan la Laguna	7	Julio	2023-02-07T00:00:00	2024-11-08T23:00:00	6	Velocidad del viento	0
63278	7	Sololá	717	San Juan la Laguna	12	San Juan la Laguna	7	Julio	2023-02-07T00:00:00	2024-11-08T23:00:00	7	Dirección del viento	0
63279	7	Sololá	717	San Juan la Laguna	12	San Juan la Laguna	7	Julio	2023-02-07T00:00:00	2024-11-08T23:00:00	1	Precipitación	0
63280	7	Sololá	717	San Juan la Laguna	12	San Juan la Laguna	7	Julio	2023-02-07T00:00:00	2024-11-08T23:00:00	8	Radiación solar	0
63281	7	Sololá	717	San Juan la Laguna	12	San Juan la Laguna	7	Julio	2023-03-07T00:00:00	2024-11-08T00:00:00	2	Temperatura media	18.3
63282	7	Sololá	717	San Juan la Laguna	12	San Juan la Laguna	7	Julio	2023-03-07T00:00:00	2024-11-08T00:00:00	4	Temperatura máxima	18.4
63283	7	Sololá	717	San Juan la Laguna	12	San Juan la Laguna	7	Julio	2023-03-07T00:00:00	2024-11-08T00:00:00	3	Temperatura mínima	18.1
63284	7	Sololá	717	San Juan la Laguna	12	San Juan la Laguna	7	Julio	2023-03-07T00:00:00	2024-11-08T00:00:00	5	Humedad	85
63285	7	Sololá	717	San Juan la Laguna	12	San Juan la Laguna	7	Julio	2023-03-07T00:00:00	2024-11-08T00:00:00	6	Velocidad del viento	0
63286	7	Sololá	717	San Juan la Laguna	12	San Juan la Laguna	7	Julio	2023-03-07T00:00:00	2024-11-08T00:00:00	7	Dirección del viento	0
63287	7	Sololá	717	San Juan la Laguna	12	San Juan la Laguna	7	Julio	2023-03-07T00:00:00	2024-11-08T00:00:00	1	Precipitación	0
63288	7	Sololá	717	San Juan la Laguna	12	San Juan la Laguna	7	Julio	2023-03-07T00:00:00	2024-11-08T00:00:00	8	Radiación solar	0
63289	7	Sololá	717	San Juan la Laguna	12	San Juan la Laguna	7	Julio	2023-03-07T00:00:00	2024-11-08T01:00:00	2	Temperatura media	18.1
63290	7	Sololá	717	San Juan la Laguna	12	San Juan la Laguna	7	Julio	2023-03-07T00:00:00	2024-11-08T01:00:00	4	Temperatura máxima	18.4
63291	7	Sololá	717	San Juan la Laguna	12	San Juan la Laguna	7	Julio	2023-03-07T00:00:00	2024-11-08T01:00:00	3	Temperatura mínima	17.9
63292	7	Sololá	717	San Juan la Laguna	12	San Juan la Laguna	7	Julio	2023-03-07T00:00:00	2024-11-08T01:00:00	5	Humedad	86
63293	7	Sololá	717	San Juan la Laguna	12	San Juan la Laguna	7	Julio	2023-03-07T00:00:00	2024-11-08T01:00:00	6	Velocidad del viento	0
63294	7	Sololá	717	San Juan la Laguna	12	San Juan la Laguna	7	Julio	2023-03-07T00:00:00	2024-11-08T01:00:00	7	Dirección del viento	0
63295	7	Sololá	717	San Juan la Laguna	12	San Juan la Laguna	7	Julio	2023-03-07T00:00:00	2024-11-08T01:00:00	1	Precipitación	0
63296	7	Sololá	717	San Juan la Laguna	12	San Juan la Laguna	7	Julio	2023-03-07T00:00:00	2024-11-08T01:00:00	8	Radiación solar	0
63297	7	Sololá	717	San Juan la Laguna	12	San Juan la Laguna	7	Julio	2023-03-07T00:00:00	2024-11-08T02:00:00	2	Temperatura media	18.1
63298	7	Sololá	717	San Juan la Laguna	12	San Juan la Laguna	7	Julio	2023-03-07T00:00:00	2024-11-08T02:00:00	4	Temperatura máxima	18.1
63299	7	Sololá	717	San Juan la Laguna	12	San Juan la Laguna	7	Julio	2023-03-07T00:00:00	2024-11-08T02:00:00	3	Temperatura mínima	17.9
63300	7	Sololá	717	San Juan la Laguna	12	San Juan la Laguna	7	Julio	2023-03-07T00:00:00	2024-11-08T02:00:00	5	Humedad	85
63301	7	Sololá	717	San Juan la Laguna	12	San Juan la Laguna	7	Julio	2023-03-07T00:00:00	2024-11-08T02:00:00	6	Velocidad del viento	0
63302	7	Sololá	717	San Juan la Laguna	12	San Juan la Laguna	7	Julio	2023-03-07T00:00:00	2024-11-08T02:00:00	7	Dirección del viento	0
63303	7	Sololá	717	San Juan la Laguna	12	San Juan la Laguna	7	Julio	2023-03-07T00:00:00	2024-11-08T02:00:00	1	Precipitación	0
63304	7	Sololá	717	San Juan la Laguna	12	San Juan la Laguna	7	Julio	2023-03-07T00:00:00	2024-11-08T02:00:00	8	Radiación solar	0
63305	7	Sololá	717	San Juan la Laguna	12	San Juan la Laguna	7	Julio	2023-03-07T00:00:00	2024-11-08T03:00:00	2	Temperatura media	18.4
63306	7	Sololá	717	San Juan la Laguna	12	San Juan la Laguna	7	Julio	2023-03-07T00:00:00	2024-11-08T03:00:00	4	Temperatura máxima	18.4
63307	7	Sololá	717	San Juan la Laguna	12	San Juan la Laguna	7	Julio	2023-03-07T00:00:00	2024-11-08T03:00:00	3	Temperatura mínima	18
63308	7	Sololá	717	San Juan la Laguna	12	San Juan la Laguna	7	Julio	2023-03-07T00:00:00	2024-11-08T03:00:00	5	Humedad	84
63309	7	Sololá	717	San Juan la Laguna	12	San Juan la Laguna	7	Julio	2023-03-07T00:00:00	2024-11-08T03:00:00	6	Velocidad del viento	0
63310	7	Sololá	717	San Juan la Laguna	12	San Juan la Laguna	7	Julio	2023-03-07T00:00:00	2024-11-08T03:00:00	7	Dirección del viento	0
63311	7	Sololá	717	San Juan la Laguna	12	San Juan la Laguna	7	Julio	2023-03-07T00:00:00	2024-11-08T03:00:00	1	Precipitación	0
63312	7	Sololá	717	San Juan la Laguna	12	San Juan la Laguna	7	Julio	2023-03-07T00:00:00	2024-11-08T03:00:00	8	Radiación solar	0
63313	7	Sololá	717	San Juan la Laguna	12	San Juan la Laguna	7	Julio	2023-03-07T00:00:00	2024-11-08T04:00:00	2	Temperatura media	18.4
63314	7	Sololá	717	San Juan la Laguna	12	San Juan la Laguna	7	Julio	2023-03-07T00:00:00	2024-11-08T04:00:00	4	Temperatura máxima	18.4
63315	7	Sololá	717	San Juan la Laguna	12	San Juan la Laguna	7	Julio	2023-03-07T00:00:00	2024-11-08T04:00:00	3	Temperatura mínima	18.3
63316	7	Sololá	717	San Juan la Laguna	12	San Juan la Laguna	7	Julio	2023-03-07T00:00:00	2024-11-08T04:00:00	5	Humedad	84
63317	7	Sololá	717	San Juan la Laguna	12	San Juan la Laguna	7	Julio	2023-03-07T00:00:00	2024-11-08T04:00:00	6	Velocidad del viento	0
63318	7	Sololá	717	San Juan la Laguna	12	San Juan la Laguna	7	Julio	2023-03-07T00:00:00	2024-11-08T04:00:00	7	Dirección del viento	0
63319	7	Sololá	717	San Juan la Laguna	12	San Juan la Laguna	7	Julio	2023-03-07T00:00:00	2024-11-08T04:00:00	1	Precipitación	0
63320	7	Sololá	717	San Juan la Laguna	12	San Juan la Laguna	7	Julio	2023-03-07T00:00:00	2024-11-08T04:00:00	8	Radiación solar	0
63321	7	Sololá	717	San Juan la Laguna	12	San Juan la Laguna	7	Julio	2023-03-07T00:00:00	2024-11-08T05:00:00	2	Temperatura media	18.4
63322	7	Sololá	717	San Juan la Laguna	12	San Juan la Laguna	7	Julio	2023-03-07T00:00:00	2024-11-08T05:00:00	4	Temperatura máxima	18.4
63323	7	Sololá	717	San Juan la Laguna	12	San Juan la Laguna	7	Julio	2023-03-07T00:00:00	2024-11-08T05:00:00	3	Temperatura mínima	18.2
63324	7	Sololá	717	San Juan la Laguna	12	San Juan la Laguna	7	Julio	2023-03-07T00:00:00	2024-11-08T05:00:00	5	Humedad	88
63325	7	Sololá	717	San Juan la Laguna	12	San Juan la Laguna	7	Julio	2023-03-07T00:00:00	2024-11-08T05:00:00	6	Velocidad del viento	0
63326	7	Sololá	717	San Juan la Laguna	12	San Juan la Laguna	7	Julio	2023-03-07T00:00:00	2024-11-08T05:00:00	7	Dirección del viento	0
63327	7	Sololá	717	San Juan la Laguna	12	San Juan la Laguna	7	Julio	2023-03-07T00:00:00	2024-11-08T05:00:00	1	Precipitación	0
63328	7	Sololá	717	San Juan la Laguna	12	San Juan la Laguna	7	Julio	2023-03-07T00:00:00	2024-11-08T05:00:00	8	Radiación solar	0
63329	7	Sololá	717	San Juan la Laguna	12	San Juan la Laguna	7	Julio	2023-03-07T00:00:00	2024-11-08T06:00:00	2	Temperatura media	17.8
63330	7	Sololá	717	San Juan la Laguna	12	San Juan la Laguna	7	Julio	2023-03-07T00:00:00	2024-11-08T06:00:00	4	Temperatura máxima	18.4
63331	7	Sololá	717	San Juan la Laguna	12	San Juan la Laguna	7	Julio	2023-03-07T00:00:00	2024-11-08T06:00:00	3	Temperatura mínima	17.7
63332	7	Sololá	717	San Juan la Laguna	12	San Juan la Laguna	7	Julio	2023-03-07T00:00:00	2024-11-08T06:00:00	5	Humedad	89
63333	7	Sololá	717	San Juan la Laguna	12	San Juan la Laguna	7	Julio	2023-03-07T00:00:00	2024-11-08T06:00:00	6	Velocidad del viento	1.6
63334	7	Sololá	717	San Juan la Laguna	12	San Juan la Laguna	7	Julio	2023-03-07T00:00:00	2024-11-08T06:00:00	7	Dirección del viento	1.61
63335	7	Sololá	717	San Juan la Laguna	12	San Juan la Laguna	7	Julio	2023-03-07T00:00:00	2024-11-08T06:00:00	1	Precipitación	0.4
63336	7	Sololá	717	San Juan la Laguna	12	San Juan la Laguna	7	Julio	2023-03-07T00:00:00	2024-11-08T06:00:00	8	Radiación solar	2
63337	7	Sololá	717	San Juan la Laguna	12	San Juan la Laguna	7	Julio	2023-03-07T00:00:00	2024-11-08T07:00:00	2	Temperatura media	18
63338	7	Sololá	717	San Juan la Laguna	12	San Juan la Laguna	7	Julio	2023-03-07T00:00:00	2024-11-08T07:00:00	4	Temperatura máxima	18
63339	7	Sololá	717	San Juan la Laguna	12	San Juan la Laguna	7	Julio	2023-03-07T00:00:00	2024-11-08T07:00:00	3	Temperatura mínima	17.6
63340	7	Sololá	717	San Juan la Laguna	12	San Juan la Laguna	7	Julio	2023-03-07T00:00:00	2024-11-08T07:00:00	5	Humedad	90
63341	7	Sololá	717	San Juan la Laguna	12	San Juan la Laguna	7	Julio	2023-03-07T00:00:00	2024-11-08T07:00:00	6	Velocidad del viento	0
63342	7	Sololá	717	San Juan la Laguna	12	San Juan la Laguna	7	Julio	2023-03-07T00:00:00	2024-11-08T07:00:00	7	Dirección del viento	0
63343	7	Sololá	717	San Juan la Laguna	12	San Juan la Laguna	7	Julio	2023-03-07T00:00:00	2024-11-08T07:00:00	1	Precipitación	0
63344	7	Sololá	717	San Juan la Laguna	12	San Juan la Laguna	7	Julio	2023-03-07T00:00:00	2024-11-08T07:00:00	8	Radiación solar	116
63345	7	Sololá	717	San Juan la Laguna	12	San Juan la Laguna	7	Julio	2023-03-07T00:00:00	2024-11-08T08:00:00	2	Temperatura media	19.4
63346	7	Sololá	717	San Juan la Laguna	12	San Juan la Laguna	7	Julio	2023-03-07T00:00:00	2024-11-08T08:00:00	4	Temperatura máxima	19.4
63347	7	Sololá	717	San Juan la Laguna	12	San Juan la Laguna	7	Julio	2023-03-07T00:00:00	2024-11-08T08:00:00	3	Temperatura mínima	18
63348	7	Sololá	717	San Juan la Laguna	12	San Juan la Laguna	7	Julio	2023-03-07T00:00:00	2024-11-08T08:00:00	5	Humedad	84
63349	7	Sololá	717	San Juan la Laguna	12	San Juan la Laguna	7	Julio	2023-03-07T00:00:00	2024-11-08T08:00:00	6	Velocidad del viento	0
63350	7	Sololá	717	San Juan la Laguna	12	San Juan la Laguna	7	Julio	2023-03-07T00:00:00	2024-11-08T08:00:00	7	Dirección del viento	0
63351	7	Sololá	717	San Juan la Laguna	12	San Juan la Laguna	7	Julio	2023-03-07T00:00:00	2024-11-08T08:00:00	1	Precipitación	0
63352	7	Sololá	717	San Juan la Laguna	12	San Juan la Laguna	7	Julio	2023-03-07T00:00:00	2024-11-08T08:00:00	8	Radiación solar	319
63353	7	Sololá	717	San Juan la Laguna	12	San Juan la Laguna	7	Julio	2023-03-07T00:00:00	2024-11-08T09:00:00	2	Temperatura media	21.7
63354	7	Sololá	717	San Juan la Laguna	12	San Juan la Laguna	7	Julio	2023-03-07T00:00:00	2024-11-08T09:00:00	4	Temperatura máxima	21.7
63355	7	Sololá	717	San Juan la Laguna	12	San Juan la Laguna	7	Julio	2023-03-07T00:00:00	2024-11-08T09:00:00	3	Temperatura mínima	19.4
63356	7	Sololá	717	San Juan la Laguna	12	San Juan la Laguna	7	Julio	2023-03-07T00:00:00	2024-11-08T09:00:00	5	Humedad	74
63357	7	Sololá	717	San Juan la Laguna	12	San Juan la Laguna	7	Julio	2023-03-07T00:00:00	2024-11-08T09:00:00	6	Velocidad del viento	0
63358	7	Sololá	717	San Juan la Laguna	12	San Juan la Laguna	7	Julio	2023-03-07T00:00:00	2024-11-08T09:00:00	7	Dirección del viento	0
63359	7	Sololá	717	San Juan la Laguna	12	San Juan la Laguna	7	Julio	2023-03-07T00:00:00	2024-11-08T09:00:00	1	Precipitación	0
63360	7	Sololá	717	San Juan la Laguna	12	San Juan la Laguna	7	Julio	2023-03-07T00:00:00	2024-11-08T09:00:00	8	Radiación solar	541
63361	7	Sololá	717	San Juan la Laguna	12	San Juan la Laguna	7	Julio	2023-03-07T00:00:00	2024-11-08T10:00:00	2	Temperatura media	22.9
63362	7	Sololá	717	San Juan la Laguna	12	San Juan la Laguna	7	Julio	2023-03-07T00:00:00	2024-11-08T10:00:00	4	Temperatura máxima	22.9
63363	7	Sololá	717	San Juan la Laguna	12	San Juan la Laguna	7	Julio	2023-03-07T00:00:00	2024-11-08T10:00:00	3	Temperatura mínima	21.7
63364	7	Sololá	717	San Juan la Laguna	12	San Juan la Laguna	7	Julio	2023-03-07T00:00:00	2024-11-08T10:00:00	5	Humedad	69
63365	7	Sololá	717	San Juan la Laguna	12	San Juan la Laguna	7	Julio	2023-03-07T00:00:00	2024-11-08T10:00:00	6	Velocidad del viento	1.6
63366	7	Sololá	717	San Juan la Laguna	12	San Juan la Laguna	7	Julio	2023-03-07T00:00:00	2024-11-08T10:00:00	7	Dirección del viento	1.61
63367	7	Sololá	717	San Juan la Laguna	12	San Juan la Laguna	7	Julio	2023-03-07T00:00:00	2024-11-08T10:00:00	1	Precipitación	0
63368	7	Sololá	717	San Juan la Laguna	12	San Juan la Laguna	7	Julio	2023-03-07T00:00:00	2024-11-08T10:00:00	8	Radiación solar	349
63369	7	Sololá	717	San Juan la Laguna	12	San Juan la Laguna	7	Julio	2023-03-07T00:00:00	2024-11-08T11:00:00	2	Temperatura media	22.6
63370	7	Sololá	717	San Juan la Laguna	12	San Juan la Laguna	7	Julio	2023-03-07T00:00:00	2024-11-08T11:00:00	4	Temperatura máxima	23.1
63371	7	Sololá	717	San Juan la Laguna	12	San Juan la Laguna	7	Julio	2023-03-07T00:00:00	2024-11-08T11:00:00	3	Temperatura mínima	22.3
63372	7	Sololá	717	San Juan la Laguna	12	San Juan la Laguna	7	Julio	2023-03-07T00:00:00	2024-11-08T11:00:00	5	Humedad	71
63373	7	Sololá	717	San Juan la Laguna	12	San Juan la Laguna	7	Julio	2023-03-07T00:00:00	2024-11-08T11:00:00	6	Velocidad del viento	3.2
63374	7	Sololá	717	San Juan la Laguna	12	San Juan la Laguna	7	Julio	2023-03-07T00:00:00	2024-11-08T11:00:00	7	Dirección del viento	3.22
63375	7	Sololá	717	San Juan la Laguna	12	San Juan la Laguna	7	Julio	2023-03-07T00:00:00	2024-11-08T11:00:00	1	Precipitación	0
63376	7	Sololá	717	San Juan la Laguna	12	San Juan la Laguna	7	Julio	2023-03-07T00:00:00	2024-11-08T11:00:00	8	Radiación solar	504
63377	7	Sololá	717	San Juan la Laguna	12	San Juan la Laguna	7	Julio	2023-03-07T00:00:00	2024-11-08T12:00:00	2	Temperatura media	23.3
63378	7	Sololá	717	San Juan la Laguna	12	San Juan la Laguna	7	Julio	2023-03-07T00:00:00	2024-11-08T12:00:00	4	Temperatura máxima	23.3
63379	7	Sololá	717	San Juan la Laguna	12	San Juan la Laguna	7	Julio	2023-03-07T00:00:00	2024-11-08T12:00:00	3	Temperatura mínima	22.4
63380	7	Sololá	717	San Juan la Laguna	12	San Juan la Laguna	7	Julio	2023-03-07T00:00:00	2024-11-08T12:00:00	5	Humedad	71
63381	7	Sololá	717	San Juan la Laguna	12	San Juan la Laguna	7	Julio	2023-03-07T00:00:00	2024-11-08T12:00:00	6	Velocidad del viento	4.8
63382	7	Sololá	717	San Juan la Laguna	12	San Juan la Laguna	7	Julio	2023-03-07T00:00:00	2024-11-08T12:00:00	7	Dirección del viento	4.83
63383	7	Sololá	717	San Juan la Laguna	12	San Juan la Laguna	7	Julio	2023-03-07T00:00:00	2024-11-08T12:00:00	1	Precipitación	0
63384	7	Sololá	717	San Juan la Laguna	12	San Juan la Laguna	7	Julio	2023-03-07T00:00:00	2024-11-08T12:00:00	8	Radiación solar	582
63385	7	Sololá	717	San Juan la Laguna	12	San Juan la Laguna	7	Julio	2023-03-07T00:00:00	2024-11-08T13:00:00	2	Temperatura media	23.4
63386	7	Sololá	717	San Juan la Laguna	12	San Juan la Laguna	7	Julio	2023-03-07T00:00:00	2024-11-08T13:00:00	4	Temperatura máxima	23.7
63387	7	Sololá	717	San Juan la Laguna	12	San Juan la Laguna	7	Julio	2023-03-07T00:00:00	2024-11-08T13:00:00	3	Temperatura mínima	23.1
63388	7	Sololá	717	San Juan la Laguna	12	San Juan la Laguna	7	Julio	2023-03-07T00:00:00	2024-11-08T13:00:00	5	Humedad	69
63389	7	Sololá	717	San Juan la Laguna	12	San Juan la Laguna	7	Julio	2023-03-07T00:00:00	2024-11-08T13:00:00	6	Velocidad del viento	4.8
63390	7	Sololá	717	San Juan la Laguna	12	San Juan la Laguna	7	Julio	2023-03-07T00:00:00	2024-11-08T13:00:00	7	Dirección del viento	4.83
63391	7	Sololá	717	San Juan la Laguna	12	San Juan la Laguna	7	Julio	2023-03-07T00:00:00	2024-11-08T13:00:00	1	Precipitación	0
63392	7	Sololá	717	San Juan la Laguna	12	San Juan la Laguna	7	Julio	2023-03-07T00:00:00	2024-11-08T13:00:00	8	Radiación solar	891
63393	7	Sololá	717	San Juan la Laguna	12	San Juan la Laguna	7	Julio	2023-03-07T00:00:00	2024-11-08T14:00:00	2	Temperatura media	23.6
63394	7	Sololá	717	San Juan la Laguna	12	San Juan la Laguna	7	Julio	2023-03-07T00:00:00	2024-11-08T14:00:00	4	Temperatura máxima	24.2
63395	7	Sololá	717	San Juan la Laguna	12	San Juan la Laguna	7	Julio	2023-03-07T00:00:00	2024-11-08T14:00:00	3	Temperatura mínima	23.4
63396	7	Sololá	717	San Juan la Laguna	12	San Juan la Laguna	7	Julio	2023-03-07T00:00:00	2024-11-08T14:00:00	5	Humedad	70
63397	7	Sololá	717	San Juan la Laguna	12	San Juan la Laguna	7	Julio	2023-03-07T00:00:00	2024-11-08T14:00:00	6	Velocidad del viento	4.8
63398	7	Sololá	717	San Juan la Laguna	12	San Juan la Laguna	7	Julio	2023-03-07T00:00:00	2024-11-08T14:00:00	7	Dirección del viento	4.83
63399	7	Sololá	717	San Juan la Laguna	12	San Juan la Laguna	7	Julio	2023-03-07T00:00:00	2024-11-08T14:00:00	1	Precipitación	0
63400	7	Sololá	717	San Juan la Laguna	12	San Juan la Laguna	7	Julio	2023-03-07T00:00:00	2024-11-08T14:00:00	8	Radiación solar	535
63401	7	Sololá	717	San Juan la Laguna	12	San Juan la Laguna	7	Julio	2023-03-07T00:00:00	2024-11-08T15:00:00	2	Temperatura media	21.9
63402	7	Sololá	717	San Juan la Laguna	12	San Juan la Laguna	7	Julio	2023-03-07T00:00:00	2024-11-08T15:00:00	4	Temperatura máxima	23.6
63403	7	Sololá	717	San Juan la Laguna	12	San Juan la Laguna	7	Julio	2023-03-07T00:00:00	2024-11-08T15:00:00	3	Temperatura mínima	21.9
63404	7	Sololá	717	San Juan la Laguna	12	San Juan la Laguna	7	Julio	2023-03-07T00:00:00	2024-11-08T15:00:00	5	Humedad	79
63405	7	Sololá	717	San Juan la Laguna	12	San Juan la Laguna	7	Julio	2023-03-07T00:00:00	2024-11-08T15:00:00	6	Velocidad del viento	1.6
63406	7	Sololá	717	San Juan la Laguna	12	San Juan la Laguna	7	Julio	2023-03-07T00:00:00	2024-11-08T15:00:00	7	Dirección del viento	1.61
63407	7	Sololá	717	San Juan la Laguna	12	San Juan la Laguna	7	Julio	2023-03-07T00:00:00	2024-11-08T15:00:00	1	Precipitación	0
63408	7	Sololá	717	San Juan la Laguna	12	San Juan la Laguna	7	Julio	2023-03-07T00:00:00	2024-11-08T15:00:00	8	Radiación solar	277
63409	7	Sololá	717	San Juan la Laguna	12	San Juan la Laguna	7	Julio	2023-03-07T00:00:00	2024-11-08T16:00:00	2	Temperatura media	20.9
63410	7	Sololá	717	San Juan la Laguna	12	San Juan la Laguna	7	Julio	2023-03-07T00:00:00	2024-11-08T16:00:00	4	Temperatura máxima	21.9
63411	7	Sololá	717	San Juan la Laguna	12	San Juan la Laguna	7	Julio	2023-03-07T00:00:00	2024-11-08T16:00:00	3	Temperatura mínima	20.1
63412	7	Sololá	717	San Juan la Laguna	12	San Juan la Laguna	7	Julio	2023-03-07T00:00:00	2024-11-08T16:00:00	5	Humedad	87
63413	7	Sololá	717	San Juan la Laguna	12	San Juan la Laguna	7	Julio	2023-03-07T00:00:00	2024-11-08T16:00:00	6	Velocidad del viento	0
63414	7	Sololá	717	San Juan la Laguna	12	San Juan la Laguna	7	Julio	2023-03-07T00:00:00	2024-11-08T16:00:00	7	Dirección del viento	0
63415	7	Sololá	717	San Juan la Laguna	12	San Juan la Laguna	7	Julio	2023-03-07T00:00:00	2024-11-08T16:00:00	1	Precipitación	1.4
63416	7	Sololá	717	San Juan la Laguna	12	San Juan la Laguna	7	Julio	2023-03-07T00:00:00	2024-11-08T16:00:00	8	Radiación solar	407
63417	7	Sololá	717	San Juan la Laguna	12	San Juan la Laguna	7	Julio	2023-03-07T00:00:00	2024-11-08T17:00:00	2	Temperatura media	20.7
63418	7	Sololá	717	San Juan la Laguna	12	San Juan la Laguna	7	Julio	2023-03-07T00:00:00	2024-11-08T17:00:00	4	Temperatura máxima	21
63419	7	Sololá	717	San Juan la Laguna	12	San Juan la Laguna	7	Julio	2023-03-07T00:00:00	2024-11-08T17:00:00	3	Temperatura mínima	20.7
63420	7	Sololá	717	San Juan la Laguna	12	San Juan la Laguna	7	Julio	2023-03-07T00:00:00	2024-11-08T17:00:00	5	Humedad	85
63421	7	Sololá	717	San Juan la Laguna	12	San Juan la Laguna	7	Julio	2023-03-07T00:00:00	2024-11-08T17:00:00	6	Velocidad del viento	0
63422	7	Sololá	717	San Juan la Laguna	12	San Juan la Laguna	7	Julio	2023-03-07T00:00:00	2024-11-08T17:00:00	7	Dirección del viento	0
63423	7	Sololá	717	San Juan la Laguna	12	San Juan la Laguna	7	Julio	2023-03-07T00:00:00	2024-11-08T17:00:00	1	Precipitación	0
63424	7	Sololá	717	San Juan la Laguna	12	San Juan la Laguna	7	Julio	2023-03-07T00:00:00	2024-11-08T17:00:00	8	Radiación solar	225
63425	7	Sololá	717	San Juan la Laguna	12	San Juan la Laguna	7	Julio	2023-03-07T00:00:00	2024-11-08T18:00:00	2	Temperatura media	19.9
63426	7	Sololá	717	San Juan la Laguna	12	San Juan la Laguna	7	Julio	2023-03-07T00:00:00	2024-11-08T18:00:00	4	Temperatura máxima	20.8
63427	7	Sololá	717	San Juan la Laguna	12	San Juan la Laguna	7	Julio	2023-03-07T00:00:00	2024-11-08T18:00:00	3	Temperatura mínima	19.9
63428	7	Sololá	717	San Juan la Laguna	12	San Juan la Laguna	7	Julio	2023-03-07T00:00:00	2024-11-08T18:00:00	5	Humedad	86
63429	7	Sololá	717	San Juan la Laguna	12	San Juan la Laguna	7	Julio	2023-03-07T00:00:00	2024-11-08T18:00:00	6	Velocidad del viento	0
63430	7	Sololá	717	San Juan la Laguna	12	San Juan la Laguna	7	Julio	2023-03-07T00:00:00	2024-11-08T18:00:00	7	Dirección del viento	0
63431	7	Sololá	717	San Juan la Laguna	12	San Juan la Laguna	7	Julio	2023-03-07T00:00:00	2024-11-08T18:00:00	1	Precipitación	0
63432	7	Sololá	717	San Juan la Laguna	12	San Juan la Laguna	7	Julio	2023-03-07T00:00:00	2024-11-08T18:00:00	8	Radiación solar	76
63433	7	Sololá	717	San Juan la Laguna	12	San Juan la Laguna	7	Julio	2023-03-07T00:00:00	2024-11-08T19:00:00	2	Temperatura media	19.3
63434	7	Sololá	717	San Juan la Laguna	12	San Juan la Laguna	7	Julio	2023-03-07T00:00:00	2024-11-08T19:00:00	4	Temperatura máxima	19.9
63435	7	Sololá	717	San Juan la Laguna	12	San Juan la Laguna	7	Julio	2023-03-07T00:00:00	2024-11-08T19:00:00	3	Temperatura mínima	19.2
63436	7	Sololá	717	San Juan la Laguna	12	San Juan la Laguna	7	Julio	2023-03-07T00:00:00	2024-11-08T19:00:00	5	Humedad	88
63437	7	Sololá	717	San Juan la Laguna	12	San Juan la Laguna	7	Julio	2023-03-07T00:00:00	2024-11-08T19:00:00	6	Velocidad del viento	0
63438	7	Sololá	717	San Juan la Laguna	12	San Juan la Laguna	7	Julio	2023-03-07T00:00:00	2024-11-08T19:00:00	7	Dirección del viento	0
63439	7	Sololá	717	San Juan la Laguna	12	San Juan la Laguna	7	Julio	2023-03-07T00:00:00	2024-11-08T19:00:00	1	Precipitación	1.4
63440	7	Sololá	717	San Juan la Laguna	12	San Juan la Laguna	7	Julio	2023-03-07T00:00:00	2024-11-08T19:00:00	8	Radiación solar	0
63441	7	Sololá	717	San Juan la Laguna	12	San Juan la Laguna	7	Julio	2023-03-07T00:00:00	2024-11-08T20:00:00	2	Temperatura media	18.9
63442	7	Sololá	717	San Juan la Laguna	12	San Juan la Laguna	7	Julio	2023-03-07T00:00:00	2024-11-08T20:00:00	4	Temperatura máxima	19.3
63443	7	Sololá	717	San Juan la Laguna	12	San Juan la Laguna	7	Julio	2023-03-07T00:00:00	2024-11-08T20:00:00	3	Temperatura mínima	18.9
63444	7	Sololá	717	San Juan la Laguna	12	San Juan la Laguna	7	Julio	2023-03-07T00:00:00	2024-11-08T20:00:00	5	Humedad	90
63445	7	Sololá	717	San Juan la Laguna	12	San Juan la Laguna	7	Julio	2023-03-07T00:00:00	2024-11-08T20:00:00	6	Velocidad del viento	0
63446	7	Sololá	717	San Juan la Laguna	12	San Juan la Laguna	7	Julio	2023-03-07T00:00:00	2024-11-08T20:00:00	7	Dirección del viento	0
63447	7	Sololá	717	San Juan la Laguna	12	San Juan la Laguna	7	Julio	2023-03-07T00:00:00	2024-11-08T20:00:00	1	Precipitación	1.6
63448	7	Sololá	717	San Juan la Laguna	12	San Juan la Laguna	7	Julio	2023-03-07T00:00:00	2024-11-08T20:00:00	8	Radiación solar	0
63449	7	Sololá	717	San Juan la Laguna	12	San Juan la Laguna	7	Julio	2023-03-07T00:00:00	2024-11-08T21:00:00	2	Temperatura media	18.4
63450	7	Sololá	717	San Juan la Laguna	12	San Juan la Laguna	7	Julio	2023-03-07T00:00:00	2024-11-08T21:00:00	4	Temperatura máxima	18.9
63451	7	Sololá	717	San Juan la Laguna	12	San Juan la Laguna	7	Julio	2023-03-07T00:00:00	2024-11-08T21:00:00	3	Temperatura mínima	18.2
63452	7	Sololá	717	San Juan la Laguna	12	San Juan la Laguna	7	Julio	2023-03-07T00:00:00	2024-11-08T21:00:00	5	Humedad	92
63453	7	Sololá	717	San Juan la Laguna	12	San Juan la Laguna	7	Julio	2023-03-07T00:00:00	2024-11-08T21:00:00	6	Velocidad del viento	1.6
63454	7	Sololá	717	San Juan la Laguna	12	San Juan la Laguna	7	Julio	2023-03-07T00:00:00	2024-11-08T21:00:00	7	Dirección del viento	1.61
63455	7	Sololá	717	San Juan la Laguna	12	San Juan la Laguna	7	Julio	2023-03-07T00:00:00	2024-11-08T21:00:00	1	Precipitación	16.8
63456	7	Sololá	717	San Juan la Laguna	12	San Juan la Laguna	7	Julio	2023-03-07T00:00:00	2024-11-08T21:00:00	8	Radiación solar	0
63457	7	Sololá	717	San Juan la Laguna	12	San Juan la Laguna	7	Julio	2023-03-07T00:00:00	2024-11-08T22:00:00	2	Temperatura media	17.9
63458	7	Sololá	717	San Juan la Laguna	12	San Juan la Laguna	7	Julio	2023-03-07T00:00:00	2024-11-08T22:00:00	4	Temperatura máxima	18.5
63459	7	Sololá	717	San Juan la Laguna	12	San Juan la Laguna	7	Julio	2023-03-07T00:00:00	2024-11-08T22:00:00	3	Temperatura mínima	17.8
63460	7	Sololá	717	San Juan la Laguna	12	San Juan la Laguna	7	Julio	2023-03-07T00:00:00	2024-11-08T22:00:00	5	Humedad	92
63461	7	Sololá	717	San Juan la Laguna	12	San Juan la Laguna	7	Julio	2023-03-07T00:00:00	2024-11-08T22:00:00	6	Velocidad del viento	0
63462	7	Sololá	717	San Juan la Laguna	12	San Juan la Laguna	7	Julio	2023-03-07T00:00:00	2024-11-08T22:00:00	7	Dirección del viento	0
63463	7	Sololá	717	San Juan la Laguna	12	San Juan la Laguna	7	Julio	2023-03-07T00:00:00	2024-11-08T22:00:00	1	Precipitación	5
63464	7	Sololá	717	San Juan la Laguna	12	San Juan la Laguna	7	Julio	2023-03-07T00:00:00	2024-11-08T22:00:00	8	Radiación solar	0
63465	7	Sololá	717	San Juan la Laguna	12	San Juan la Laguna	7	Julio	2023-03-07T00:00:00	2024-11-08T23:00:00	2	Temperatura media	17.7
63466	7	Sololá	717	San Juan la Laguna	12	San Juan la Laguna	7	Julio	2023-03-07T00:00:00	2024-11-08T23:00:00	4	Temperatura máxima	18
63467	7	Sololá	717	San Juan la Laguna	12	San Juan la Laguna	7	Julio	2023-03-07T00:00:00	2024-11-08T23:00:00	3	Temperatura mínima	17.7
63468	7	Sololá	717	San Juan la Laguna	12	San Juan la Laguna	7	Julio	2023-03-07T00:00:00	2024-11-08T23:00:00	5	Humedad	92
63469	7	Sololá	717	San Juan la Laguna	12	San Juan la Laguna	7	Julio	2023-03-07T00:00:00	2024-11-08T23:00:00	6	Velocidad del viento	0
63470	7	Sololá	717	San Juan la Laguna	12	San Juan la Laguna	7	Julio	2023-03-07T00:00:00	2024-11-08T23:00:00	7	Dirección del viento	0
63471	7	Sololá	717	San Juan la Laguna	12	San Juan la Laguna	7	Julio	2023-03-07T00:00:00	2024-11-08T23:00:00	1	Precipitación	2.6
63472	7	Sololá	717	San Juan la Laguna	12	San Juan la Laguna	7	Julio	2023-03-07T00:00:00	2024-11-08T23:00:00	8	Radiación solar	0
63473	7	Sololá	717	San Juan la Laguna	12	San Juan la Laguna	7	Julio	2023-04-07T00:00:00	2024-11-08T00:00:00	2	Temperatura media	17.7
63474	7	Sololá	717	San Juan la Laguna	12	San Juan la Laguna	7	Julio	2023-04-07T00:00:00	2024-11-08T00:00:00	4	Temperatura máxima	17.8
63475	7	Sololá	717	San Juan la Laguna	12	San Juan la Laguna	7	Julio	2023-04-07T00:00:00	2024-11-08T00:00:00	3	Temperatura mínima	17.6
63476	7	Sololá	717	San Juan la Laguna	12	San Juan la Laguna	7	Julio	2023-04-07T00:00:00	2024-11-08T00:00:00	5	Humedad	92
63477	7	Sololá	717	San Juan la Laguna	12	San Juan la Laguna	7	Julio	2023-04-07T00:00:00	2024-11-08T00:00:00	6	Velocidad del viento	0
63478	7	Sololá	717	San Juan la Laguna	12	San Juan la Laguna	7	Julio	2023-04-07T00:00:00	2024-11-08T00:00:00	7	Dirección del viento	0
63479	7	Sololá	717	San Juan la Laguna	12	San Juan la Laguna	7	Julio	2023-04-07T00:00:00	2024-11-08T00:00:00	1	Precipitación	0.8
63480	7	Sololá	717	San Juan la Laguna	12	San Juan la Laguna	7	Julio	2023-04-07T00:00:00	2024-11-08T00:00:00	8	Radiación solar	0
63481	7	Sololá	717	San Juan la Laguna	12	San Juan la Laguna	7	Julio	2023-04-07T00:00:00	2024-11-08T01:00:00	2	Temperatura media	17.7
63482	7	Sololá	717	San Juan la Laguna	12	San Juan la Laguna	7	Julio	2023-04-07T00:00:00	2024-11-08T01:00:00	4	Temperatura máxima	17.8
63483	7	Sololá	717	San Juan la Laguna	12	San Juan la Laguna	7	Julio	2023-04-07T00:00:00	2024-11-08T01:00:00	3	Temperatura mínima	17.7
63484	7	Sololá	717	San Juan la Laguna	12	San Juan la Laguna	7	Julio	2023-04-07T00:00:00	2024-11-08T01:00:00	5	Humedad	92
63485	7	Sololá	717	San Juan la Laguna	12	San Juan la Laguna	7	Julio	2023-04-07T00:00:00	2024-11-08T01:00:00	6	Velocidad del viento	0
63486	7	Sololá	717	San Juan la Laguna	12	San Juan la Laguna	7	Julio	2023-04-07T00:00:00	2024-11-08T01:00:00	7	Dirección del viento	0
63487	7	Sololá	717	San Juan la Laguna	12	San Juan la Laguna	7	Julio	2023-04-07T00:00:00	2024-11-08T01:00:00	1	Precipitación	0
63488	7	Sololá	717	San Juan la Laguna	12	San Juan la Laguna	7	Julio	2023-04-07T00:00:00	2024-11-08T01:00:00	8	Radiación solar	0
63489	7	Sololá	717	San Juan la Laguna	12	San Juan la Laguna	7	Julio	2023-04-07T00:00:00	2024-11-08T02:00:00	2	Temperatura media	17.7
63490	7	Sololá	717	San Juan la Laguna	12	San Juan la Laguna	7	Julio	2023-04-07T00:00:00	2024-11-08T02:00:00	4	Temperatura máxima	17.8
63491	7	Sololá	717	San Juan la Laguna	12	San Juan la Laguna	7	Julio	2023-04-07T00:00:00	2024-11-08T02:00:00	3	Temperatura mínima	17.7
63492	7	Sololá	717	San Juan la Laguna	12	San Juan la Laguna	7	Julio	2023-04-07T00:00:00	2024-11-08T02:00:00	5	Humedad	92
63493	7	Sololá	717	San Juan la Laguna	12	San Juan la Laguna	7	Julio	2023-04-07T00:00:00	2024-11-08T02:00:00	6	Velocidad del viento	0
63494	7	Sololá	717	San Juan la Laguna	12	San Juan la Laguna	7	Julio	2023-04-07T00:00:00	2024-11-08T02:00:00	7	Dirección del viento	0
63495	7	Sololá	717	San Juan la Laguna	12	San Juan la Laguna	7	Julio	2023-04-07T00:00:00	2024-11-08T02:00:00	1	Precipitación	0.2
63496	7	Sololá	717	San Juan la Laguna	12	San Juan la Laguna	7	Julio	2023-04-07T00:00:00	2024-11-08T02:00:00	8	Radiación solar	0
63497	7	Sololá	717	San Juan la Laguna	12	San Juan la Laguna	7	Julio	2023-04-07T00:00:00	2024-11-08T03:00:00	2	Temperatura media	17.4
63498	7	Sololá	717	San Juan la Laguna	12	San Juan la Laguna	7	Julio	2023-04-07T00:00:00	2024-11-08T03:00:00	4	Temperatura máxima	17.7
63499	7	Sololá	717	San Juan la Laguna	12	San Juan la Laguna	7	Julio	2023-04-07T00:00:00	2024-11-08T03:00:00	3	Temperatura mínima	17.4
63500	7	Sololá	717	San Juan la Laguna	12	San Juan la Laguna	7	Julio	2023-04-07T00:00:00	2024-11-08T03:00:00	5	Humedad	92
63501	7	Sololá	717	San Juan la Laguna	12	San Juan la Laguna	7	Julio	2023-04-07T00:00:00	2024-11-08T03:00:00	6	Velocidad del viento	0
63502	7	Sololá	717	San Juan la Laguna	12	San Juan la Laguna	7	Julio	2023-04-07T00:00:00	2024-11-08T03:00:00	7	Dirección del viento	0
63503	7	Sololá	717	San Juan la Laguna	12	San Juan la Laguna	7	Julio	2023-04-07T00:00:00	2024-11-08T03:00:00	1	Precipitación	0
63504	7	Sololá	717	San Juan la Laguna	12	San Juan la Laguna	7	Julio	2023-04-07T00:00:00	2024-11-08T03:00:00	8	Radiación solar	0
63505	7	Sololá	717	San Juan la Laguna	12	San Juan la Laguna	7	Julio	2023-04-07T00:00:00	2024-11-08T04:00:00	2	Temperatura media	17.5
63506	7	Sololá	717	San Juan la Laguna	12	San Juan la Laguna	7	Julio	2023-04-07T00:00:00	2024-11-08T04:00:00	4	Temperatura máxima	17.7
63507	7	Sololá	717	San Juan la Laguna	12	San Juan la Laguna	7	Julio	2023-04-07T00:00:00	2024-11-08T04:00:00	3	Temperatura mínima	17.3
63508	7	Sololá	717	San Juan la Laguna	12	San Juan la Laguna	7	Julio	2023-04-07T00:00:00	2024-11-08T04:00:00	5	Humedad	90
63509	7	Sololá	717	San Juan la Laguna	12	San Juan la Laguna	7	Julio	2023-04-07T00:00:00	2024-11-08T04:00:00	6	Velocidad del viento	0
63510	7	Sololá	717	San Juan la Laguna	12	San Juan la Laguna	7	Julio	2023-04-07T00:00:00	2024-11-08T04:00:00	7	Dirección del viento	0
63511	7	Sololá	717	San Juan la Laguna	12	San Juan la Laguna	7	Julio	2023-04-07T00:00:00	2024-11-08T04:00:00	1	Precipitación	0
63512	7	Sololá	717	San Juan la Laguna	12	San Juan la Laguna	7	Julio	2023-04-07T00:00:00	2024-11-08T04:00:00	8	Radiación solar	0
63513	7	Sololá	717	San Juan la Laguna	12	San Juan la Laguna	7	Julio	2023-04-07T00:00:00	2024-11-08T05:00:00	2	Temperatura media	17.2
63514	7	Sololá	717	San Juan la Laguna	12	San Juan la Laguna	7	Julio	2023-04-07T00:00:00	2024-11-08T05:00:00	4	Temperatura máxima	17.6
63515	7	Sololá	717	San Juan la Laguna	12	San Juan la Laguna	7	Julio	2023-04-07T00:00:00	2024-11-08T05:00:00	3	Temperatura mínima	17.2
63516	7	Sololá	717	San Juan la Laguna	12	San Juan la Laguna	7	Julio	2023-04-07T00:00:00	2024-11-08T05:00:00	5	Humedad	89
63517	7	Sololá	717	San Juan la Laguna	12	San Juan la Laguna	7	Julio	2023-04-07T00:00:00	2024-11-08T05:00:00	6	Velocidad del viento	0
63518	7	Sololá	717	San Juan la Laguna	12	San Juan la Laguna	7	Julio	2023-04-07T00:00:00	2024-11-08T05:00:00	7	Dirección del viento	0
63519	7	Sololá	717	San Juan la Laguna	12	San Juan la Laguna	7	Julio	2023-04-07T00:00:00	2024-11-08T05:00:00	1	Precipitación	0
63520	7	Sololá	717	San Juan la Laguna	12	San Juan la Laguna	7	Julio	2023-04-07T00:00:00	2024-11-08T05:00:00	8	Radiación solar	0
63521	7	Sololá	717	San Juan la Laguna	12	San Juan la Laguna	7	Julio	2023-04-07T00:00:00	2024-11-08T06:00:00	2	Temperatura media	17.2
63522	7	Sololá	717	San Juan la Laguna	12	San Juan la Laguna	7	Julio	2023-04-07T00:00:00	2024-11-08T06:00:00	4	Temperatura máxima	17.3
63523	7	Sololá	717	San Juan la Laguna	12	San Juan la Laguna	7	Julio	2023-04-07T00:00:00	2024-11-08T06:00:00	3	Temperatura mínima	17
63524	7	Sololá	717	San Juan la Laguna	12	San Juan la Laguna	7	Julio	2023-04-07T00:00:00	2024-11-08T06:00:00	5	Humedad	91
63525	7	Sololá	717	San Juan la Laguna	12	San Juan la Laguna	7	Julio	2023-04-07T00:00:00	2024-11-08T06:00:00	6	Velocidad del viento	0
63526	7	Sololá	717	San Juan la Laguna	12	San Juan la Laguna	7	Julio	2023-04-07T00:00:00	2024-11-08T06:00:00	7	Dirección del viento	0
63527	7	Sololá	717	San Juan la Laguna	12	San Juan la Laguna	7	Julio	2023-04-07T00:00:00	2024-11-08T06:00:00	1	Precipitación	0
63528	7	Sololá	717	San Juan la Laguna	12	San Juan la Laguna	7	Julio	2023-04-07T00:00:00	2024-11-08T06:00:00	8	Radiación solar	0
63529	7	Sololá	717	San Juan la Laguna	12	San Juan la Laguna	7	Julio	2023-04-07T00:00:00	2024-11-08T07:00:00	2	Temperatura media	18.2
63530	7	Sololá	717	San Juan la Laguna	12	San Juan la Laguna	7	Julio	2023-04-07T00:00:00	2024-11-08T07:00:00	4	Temperatura máxima	18.2
63531	7	Sololá	717	San Juan la Laguna	12	San Juan la Laguna	7	Julio	2023-04-07T00:00:00	2024-11-08T07:00:00	3	Temperatura mínima	17.1
63532	7	Sololá	717	San Juan la Laguna	12	San Juan la Laguna	7	Julio	2023-04-07T00:00:00	2024-11-08T07:00:00	5	Humedad	90
63533	7	Sololá	717	San Juan la Laguna	12	San Juan la Laguna	7	Julio	2023-04-07T00:00:00	2024-11-08T07:00:00	6	Velocidad del viento	0
63534	7	Sololá	717	San Juan la Laguna	12	San Juan la Laguna	7	Julio	2023-04-07T00:00:00	2024-11-08T07:00:00	7	Dirección del viento	0
63535	7	Sololá	717	San Juan la Laguna	12	San Juan la Laguna	7	Julio	2023-04-07T00:00:00	2024-11-08T07:00:00	1	Precipitación	0
63536	7	Sololá	717	San Juan la Laguna	12	San Juan la Laguna	7	Julio	2023-04-07T00:00:00	2024-11-08T07:00:00	8	Radiación solar	92
63537	7	Sololá	717	San Juan la Laguna	12	San Juan la Laguna	7	Julio	2023-04-07T00:00:00	2024-11-08T08:00:00	2	Temperatura media	19.3
63538	7	Sololá	717	San Juan la Laguna	12	San Juan la Laguna	7	Julio	2023-04-07T00:00:00	2024-11-08T08:00:00	4	Temperatura máxima	19.3
63539	7	Sololá	717	San Juan la Laguna	12	San Juan la Laguna	7	Julio	2023-04-07T00:00:00	2024-11-08T08:00:00	3	Temperatura mínima	18.2
63540	7	Sololá	717	San Juan la Laguna	12	San Juan la Laguna	7	Julio	2023-04-07T00:00:00	2024-11-08T08:00:00	5	Humedad	87
63541	7	Sololá	717	San Juan la Laguna	12	San Juan la Laguna	7	Julio	2023-04-07T00:00:00	2024-11-08T08:00:00	6	Velocidad del viento	0
63542	7	Sololá	717	San Juan la Laguna	12	San Juan la Laguna	7	Julio	2023-04-07T00:00:00	2024-11-08T08:00:00	7	Dirección del viento	0
63543	7	Sololá	717	San Juan la Laguna	12	San Juan la Laguna	7	Julio	2023-04-07T00:00:00	2024-11-08T08:00:00	1	Precipitación	0
63544	7	Sololá	717	San Juan la Laguna	12	San Juan la Laguna	7	Julio	2023-04-07T00:00:00	2024-11-08T08:00:00	8	Radiación solar	318
63545	7	Sololá	717	San Juan la Laguna	12	San Juan la Laguna	7	Julio	2023-04-07T00:00:00	2024-11-08T09:00:00	2	Temperatura media	21.7
63546	7	Sololá	717	San Juan la Laguna	12	San Juan la Laguna	7	Julio	2023-04-07T00:00:00	2024-11-08T09:00:00	4	Temperatura máxima	21.7
63547	7	Sololá	717	San Juan la Laguna	12	San Juan la Laguna	7	Julio	2023-04-07T00:00:00	2024-11-08T09:00:00	3	Temperatura mínima	19.3
63548	7	Sololá	717	San Juan la Laguna	12	San Juan la Laguna	7	Julio	2023-04-07T00:00:00	2024-11-08T09:00:00	5	Humedad	75
63549	7	Sololá	717	San Juan la Laguna	12	San Juan la Laguna	7	Julio	2023-04-07T00:00:00	2024-11-08T09:00:00	6	Velocidad del viento	0
63550	7	Sololá	717	San Juan la Laguna	12	San Juan la Laguna	7	Julio	2023-04-07T00:00:00	2024-11-08T09:00:00	7	Dirección del viento	0
63551	7	Sololá	717	San Juan la Laguna	12	San Juan la Laguna	7	Julio	2023-04-07T00:00:00	2024-11-08T09:00:00	1	Precipitación	0
63552	7	Sololá	717	San Juan la Laguna	12	San Juan la Laguna	7	Julio	2023-04-07T00:00:00	2024-11-08T09:00:00	8	Radiación solar	491
63553	7	Sololá	717	San Juan la Laguna	12	San Juan la Laguna	7	Julio	2023-04-07T00:00:00	2024-11-08T10:00:00	2	Temperatura media	22.2
63554	7	Sololá	717	San Juan la Laguna	12	San Juan la Laguna	7	Julio	2023-04-07T00:00:00	2024-11-08T10:00:00	4	Temperatura máxima	22.2
63555	7	Sololá	717	San Juan la Laguna	12	San Juan la Laguna	7	Julio	2023-04-07T00:00:00	2024-11-08T10:00:00	3	Temperatura mínima	21.7
63556	7	Sololá	717	San Juan la Laguna	12	San Juan la Laguna	7	Julio	2023-04-07T00:00:00	2024-11-08T10:00:00	5	Humedad	74
63557	7	Sololá	717	San Juan la Laguna	12	San Juan la Laguna	7	Julio	2023-04-07T00:00:00	2024-11-08T10:00:00	6	Velocidad del viento	0
63558	7	Sololá	717	San Juan la Laguna	12	San Juan la Laguna	7	Julio	2023-04-07T00:00:00	2024-11-08T10:00:00	7	Dirección del viento	0
63559	7	Sololá	717	San Juan la Laguna	12	San Juan la Laguna	7	Julio	2023-04-07T00:00:00	2024-11-08T10:00:00	1	Precipitación	0
63560	7	Sololá	717	San Juan la Laguna	12	San Juan la Laguna	7	Julio	2023-04-07T00:00:00	2024-11-08T10:00:00	8	Radiación solar	640
63561	7	Sololá	717	San Juan la Laguna	12	San Juan la Laguna	7	Julio	2023-04-07T00:00:00	2024-11-08T11:00:00	2	Temperatura media	23
63562	7	Sololá	717	San Juan la Laguna	12	San Juan la Laguna	7	Julio	2023-04-07T00:00:00	2024-11-08T11:00:00	4	Temperatura máxima	23.1
63563	7	Sololá	717	San Juan la Laguna	12	San Juan la Laguna	7	Julio	2023-04-07T00:00:00	2024-11-08T11:00:00	3	Temperatura mínima	22.1
63564	7	Sololá	717	San Juan la Laguna	12	San Juan la Laguna	7	Julio	2023-04-07T00:00:00	2024-11-08T11:00:00	5	Humedad	73
63565	7	Sololá	717	San Juan la Laguna	12	San Juan la Laguna	7	Julio	2023-04-07T00:00:00	2024-11-08T11:00:00	6	Velocidad del viento	1.6
63566	7	Sololá	717	San Juan la Laguna	12	San Juan la Laguna	7	Julio	2023-04-07T00:00:00	2024-11-08T11:00:00	7	Dirección del viento	1.61
63567	7	Sololá	717	San Juan la Laguna	12	San Juan la Laguna	7	Julio	2023-04-07T00:00:00	2024-11-08T11:00:00	1	Precipitación	0
63568	7	Sololá	717	San Juan la Laguna	12	San Juan la Laguna	7	Julio	2023-04-07T00:00:00	2024-11-08T11:00:00	8	Radiación solar	601
63569	7	Sololá	717	San Juan la Laguna	12	San Juan la Laguna	7	Julio	2023-04-07T00:00:00	2024-11-08T12:00:00	2	Temperatura media	23.5
63570	7	Sololá	717	San Juan la Laguna	12	San Juan la Laguna	7	Julio	2023-04-07T00:00:00	2024-11-08T12:00:00	4	Temperatura máxima	23.6
63571	7	Sololá	717	San Juan la Laguna	12	San Juan la Laguna	7	Julio	2023-04-07T00:00:00	2024-11-08T12:00:00	3	Temperatura mínima	22.3
63572	7	Sololá	717	San Juan la Laguna	12	San Juan la Laguna	7	Julio	2023-04-07T00:00:00	2024-11-08T12:00:00	5	Humedad	68
63573	7	Sololá	717	San Juan la Laguna	12	San Juan la Laguna	7	Julio	2023-04-07T00:00:00	2024-11-08T12:00:00	6	Velocidad del viento	3.2
63574	7	Sololá	717	San Juan la Laguna	12	San Juan la Laguna	7	Julio	2023-04-07T00:00:00	2024-11-08T12:00:00	7	Dirección del viento	3.22
63575	7	Sololá	717	San Juan la Laguna	12	San Juan la Laguna	7	Julio	2023-04-07T00:00:00	2024-11-08T12:00:00	1	Precipitación	0
63576	7	Sololá	717	San Juan la Laguna	12	San Juan la Laguna	7	Julio	2023-04-07T00:00:00	2024-11-08T12:00:00	8	Radiación solar	956
63577	7	Sololá	717	San Juan la Laguna	12	San Juan la Laguna	7	Julio	2023-04-07T00:00:00	2024-11-08T13:00:00	2	Temperatura media	23.7
63578	7	Sololá	717	San Juan la Laguna	12	San Juan la Laguna	7	Julio	2023-04-07T00:00:00	2024-11-08T13:00:00	4	Temperatura máxima	23.9
63579	7	Sololá	717	San Juan la Laguna	12	San Juan la Laguna	7	Julio	2023-04-07T00:00:00	2024-11-08T13:00:00	3	Temperatura mínima	23.4
63580	7	Sololá	717	San Juan la Laguna	12	San Juan la Laguna	7	Julio	2023-04-07T00:00:00	2024-11-08T13:00:00	5	Humedad	68
63581	7	Sololá	717	San Juan la Laguna	12	San Juan la Laguna	7	Julio	2023-04-07T00:00:00	2024-11-08T13:00:00	6	Velocidad del viento	6.4
63582	7	Sololá	717	San Juan la Laguna	12	San Juan la Laguna	7	Julio	2023-04-07T00:00:00	2024-11-08T13:00:00	7	Dirección del viento	6.44
63583	7	Sololá	717	San Juan la Laguna	12	San Juan la Laguna	7	Julio	2023-04-07T00:00:00	2024-11-08T13:00:00	1	Precipitación	0
63584	7	Sololá	717	San Juan la Laguna	12	San Juan la Laguna	7	Julio	2023-04-07T00:00:00	2024-11-08T13:00:00	8	Radiación solar	978
63585	7	Sololá	717	San Juan la Laguna	12	San Juan la Laguna	7	Julio	2023-04-07T00:00:00	2024-11-08T14:00:00	2	Temperatura media	23.5
63586	7	Sololá	717	San Juan la Laguna	12	San Juan la Laguna	7	Julio	2023-04-07T00:00:00	2024-11-08T14:00:00	4	Temperatura máxima	24.2
63587	7	Sololá	717	San Juan la Laguna	12	San Juan la Laguna	7	Julio	2023-04-07T00:00:00	2024-11-08T14:00:00	3	Temperatura mínima	23.4
63588	7	Sololá	717	San Juan la Laguna	12	San Juan la Laguna	7	Julio	2023-04-07T00:00:00	2024-11-08T14:00:00	5	Humedad	70
63589	7	Sololá	717	San Juan la Laguna	12	San Juan la Laguna	7	Julio	2023-04-07T00:00:00	2024-11-08T14:00:00	6	Velocidad del viento	3.2
63590	7	Sololá	717	San Juan la Laguna	12	San Juan la Laguna	7	Julio	2023-04-07T00:00:00	2024-11-08T14:00:00	7	Dirección del viento	3.22
63591	7	Sololá	717	San Juan la Laguna	12	San Juan la Laguna	7	Julio	2023-04-07T00:00:00	2024-11-08T14:00:00	1	Precipitación	0
63592	7	Sololá	717	San Juan la Laguna	12	San Juan la Laguna	7	Julio	2023-04-07T00:00:00	2024-11-08T14:00:00	8	Radiación solar	651
63593	7	Sololá	717	San Juan la Laguna	12	San Juan la Laguna	7	Julio	2023-04-07T00:00:00	2024-11-08T15:00:00	2	Temperatura media	23.1
63594	7	Sololá	717	San Juan la Laguna	12	San Juan la Laguna	7	Julio	2023-04-07T00:00:00	2024-11-08T15:00:00	4	Temperatura máxima	23.5
63595	7	Sololá	717	San Juan la Laguna	12	San Juan la Laguna	7	Julio	2023-04-07T00:00:00	2024-11-08T15:00:00	3	Temperatura mínima	23.1
63596	7	Sololá	717	San Juan la Laguna	12	San Juan la Laguna	7	Julio	2023-04-07T00:00:00	2024-11-08T15:00:00	5	Humedad	74
63597	7	Sololá	717	San Juan la Laguna	12	San Juan la Laguna	7	Julio	2023-04-07T00:00:00	2024-11-08T15:00:00	6	Velocidad del viento	1.6
63598	7	Sololá	717	San Juan la Laguna	12	San Juan la Laguna	7	Julio	2023-04-07T00:00:00	2024-11-08T15:00:00	7	Dirección del viento	1.61
63599	7	Sololá	717	San Juan la Laguna	12	San Juan la Laguna	7	Julio	2023-04-07T00:00:00	2024-11-08T15:00:00	1	Precipitación	0
63600	7	Sololá	717	San Juan la Laguna	12	San Juan la Laguna	7	Julio	2023-04-07T00:00:00	2024-11-08T15:00:00	8	Radiación solar	464
63601	7	Sololá	717	San Juan la Laguna	12	San Juan la Laguna	7	Julio	2023-04-07T00:00:00	2024-11-08T16:00:00	2	Temperatura media	20.5
63602	7	Sololá	717	San Juan la Laguna	12	San Juan la Laguna	7	Julio	2023-04-07T00:00:00	2024-11-08T16:00:00	4	Temperatura máxima	23.1
63603	7	Sololá	717	San Juan la Laguna	12	San Juan la Laguna	7	Julio	2023-04-07T00:00:00	2024-11-08T16:00:00	3	Temperatura mínima	20.5
63604	7	Sololá	717	San Juan la Laguna	12	San Juan la Laguna	7	Julio	2023-04-07T00:00:00	2024-11-08T16:00:00	5	Humedad	86
63605	7	Sololá	717	San Juan la Laguna	12	San Juan la Laguna	7	Julio	2023-04-07T00:00:00	2024-11-08T16:00:00	6	Velocidad del viento	1.6
63606	7	Sololá	717	San Juan la Laguna	12	San Juan la Laguna	7	Julio	2023-04-07T00:00:00	2024-11-08T16:00:00	7	Dirección del viento	1.61
63607	7	Sololá	717	San Juan la Laguna	12	San Juan la Laguna	7	Julio	2023-04-07T00:00:00	2024-11-08T16:00:00	1	Precipitación	1.8
63608	7	Sololá	717	San Juan la Laguna	12	San Juan la Laguna	7	Julio	2023-04-07T00:00:00	2024-11-08T16:00:00	8	Radiación solar	289
63609	7	Sololá	717	San Juan la Laguna	12	San Juan la Laguna	7	Julio	2023-04-07T00:00:00	2024-11-08T17:00:00	2	Temperatura media	20.2
63610	7	Sololá	717	San Juan la Laguna	12	San Juan la Laguna	7	Julio	2023-04-07T00:00:00	2024-11-08T17:00:00	4	Temperatura máxima	20.5
63611	7	Sololá	717	San Juan la Laguna	12	San Juan la Laguna	7	Julio	2023-04-07T00:00:00	2024-11-08T17:00:00	3	Temperatura mínima	20.1
63612	7	Sololá	717	San Juan la Laguna	12	San Juan la Laguna	7	Julio	2023-04-07T00:00:00	2024-11-08T17:00:00	5	Humedad	88
63613	7	Sololá	717	San Juan la Laguna	12	San Juan la Laguna	7	Julio	2023-04-07T00:00:00	2024-11-08T17:00:00	6	Velocidad del viento	1.6
63614	7	Sololá	717	San Juan la Laguna	12	San Juan la Laguna	7	Julio	2023-04-07T00:00:00	2024-11-08T17:00:00	7	Dirección del viento	1.61
63615	7	Sololá	717	San Juan la Laguna	12	San Juan la Laguna	7	Julio	2023-04-07T00:00:00	2024-11-08T17:00:00	1	Precipitación	0.2
63616	7	Sololá	717	San Juan la Laguna	12	San Juan la Laguna	7	Julio	2023-04-07T00:00:00	2024-11-08T17:00:00	8	Radiación solar	118
63617	7	Sololá	717	San Juan la Laguna	12	San Juan la Laguna	7	Julio	2023-04-07T00:00:00	2024-11-08T18:00:00	2	Temperatura media	20.1
63618	7	Sololá	717	San Juan la Laguna	12	San Juan la Laguna	7	Julio	2023-04-07T00:00:00	2024-11-08T18:00:00	4	Temperatura máxima	20.2
63619	7	Sololá	717	San Juan la Laguna	12	San Juan la Laguna	7	Julio	2023-04-07T00:00:00	2024-11-08T18:00:00	3	Temperatura mínima	19.8
63620	7	Sololá	717	San Juan la Laguna	12	San Juan la Laguna	7	Julio	2023-04-07T00:00:00	2024-11-08T18:00:00	5	Humedad	88
63621	7	Sololá	717	San Juan la Laguna	12	San Juan la Laguna	7	Julio	2023-04-07T00:00:00	2024-11-08T18:00:00	6	Velocidad del viento	0
63622	7	Sololá	717	San Juan la Laguna	12	San Juan la Laguna	7	Julio	2023-04-07T00:00:00	2024-11-08T18:00:00	7	Dirección del viento	0
63623	7	Sololá	717	San Juan la Laguna	12	San Juan la Laguna	7	Julio	2023-04-07T00:00:00	2024-11-08T18:00:00	1	Precipitación	0
63624	7	Sololá	717	San Juan la Laguna	12	San Juan la Laguna	7	Julio	2023-04-07T00:00:00	2024-11-08T18:00:00	8	Radiación solar	37
63625	7	Sololá	717	San Juan la Laguna	12	San Juan la Laguna	7	Julio	2023-04-07T00:00:00	2024-11-08T19:00:00	2	Temperatura media	19.4
63626	7	Sololá	717	San Juan la Laguna	12	San Juan la Laguna	7	Julio	2023-04-07T00:00:00	2024-11-08T19:00:00	4	Temperatura máxima	20.1
63627	7	Sololá	717	San Juan la Laguna	12	San Juan la Laguna	7	Julio	2023-04-07T00:00:00	2024-11-08T19:00:00	3	Temperatura mínima	19.4
63628	7	Sololá	717	San Juan la Laguna	12	San Juan la Laguna	7	Julio	2023-04-07T00:00:00	2024-11-08T19:00:00	5	Humedad	91
63629	7	Sololá	717	San Juan la Laguna	12	San Juan la Laguna	7	Julio	2023-04-07T00:00:00	2024-11-08T19:00:00	6	Velocidad del viento	0
63630	7	Sololá	717	San Juan la Laguna	12	San Juan la Laguna	7	Julio	2023-04-07T00:00:00	2024-11-08T19:00:00	7	Dirección del viento	0
63631	7	Sololá	717	San Juan la Laguna	12	San Juan la Laguna	7	Julio	2023-04-07T00:00:00	2024-11-08T19:00:00	1	Precipitación	3
63632	7	Sololá	717	San Juan la Laguna	12	San Juan la Laguna	7	Julio	2023-04-07T00:00:00	2024-11-08T19:00:00	8	Radiación solar	0
63633	7	Sololá	717	San Juan la Laguna	12	San Juan la Laguna	7	Julio	2023-04-07T00:00:00	2024-11-08T20:00:00	2	Temperatura media	19.1
63634	7	Sololá	717	San Juan la Laguna	12	San Juan la Laguna	7	Julio	2023-04-07T00:00:00	2024-11-08T20:00:00	4	Temperatura máxima	19.5
63635	7	Sololá	717	San Juan la Laguna	12	San Juan la Laguna	7	Julio	2023-04-07T00:00:00	2024-11-08T20:00:00	3	Temperatura mínima	19.1
63636	7	Sololá	717	San Juan la Laguna	12	San Juan la Laguna	7	Julio	2023-04-07T00:00:00	2024-11-08T20:00:00	5	Humedad	88
63637	7	Sololá	717	San Juan la Laguna	12	San Juan la Laguna	7	Julio	2023-04-07T00:00:00	2024-11-08T20:00:00	6	Velocidad del viento	1.6
63638	7	Sololá	717	San Juan la Laguna	12	San Juan la Laguna	7	Julio	2023-04-07T00:00:00	2024-11-08T20:00:00	7	Dirección del viento	1.61
63639	7	Sololá	717	San Juan la Laguna	12	San Juan la Laguna	7	Julio	2023-04-07T00:00:00	2024-11-08T20:00:00	1	Precipitación	0.4
63640	7	Sololá	717	San Juan la Laguna	12	San Juan la Laguna	7	Julio	2023-04-07T00:00:00	2024-11-08T20:00:00	8	Radiación solar	0
63641	7	Sololá	717	San Juan la Laguna	12	San Juan la Laguna	7	Julio	2023-04-07T00:00:00	2024-11-08T21:00:00	2	Temperatura media	18.6
63642	7	Sololá	717	San Juan la Laguna	12	San Juan la Laguna	7	Julio	2023-04-07T00:00:00	2024-11-08T21:00:00	4	Temperatura máxima	19.1
63643	7	Sololá	717	San Juan la Laguna	12	San Juan la Laguna	7	Julio	2023-04-07T00:00:00	2024-11-08T21:00:00	3	Temperatura mínima	18.5
63644	7	Sololá	717	San Juan la Laguna	12	San Juan la Laguna	7	Julio	2023-04-07T00:00:00	2024-11-08T21:00:00	5	Humedad	91
63645	7	Sololá	717	San Juan la Laguna	12	San Juan la Laguna	7	Julio	2023-04-07T00:00:00	2024-11-08T21:00:00	6	Velocidad del viento	0
63646	7	Sololá	717	San Juan la Laguna	12	San Juan la Laguna	7	Julio	2023-04-07T00:00:00	2024-11-08T21:00:00	7	Dirección del viento	0
63647	7	Sololá	717	San Juan la Laguna	12	San Juan la Laguna	7	Julio	2023-04-07T00:00:00	2024-11-08T21:00:00	1	Precipitación	2
63648	7	Sololá	717	San Juan la Laguna	12	San Juan la Laguna	7	Julio	2023-04-07T00:00:00	2024-11-08T21:00:00	8	Radiación solar	0
63649	7	Sololá	717	San Juan la Laguna	12	San Juan la Laguna	7	Julio	2023-04-07T00:00:00	2024-11-08T22:00:00	2	Temperatura media	18.4
63650	7	Sololá	717	San Juan la Laguna	12	San Juan la Laguna	7	Julio	2023-04-07T00:00:00	2024-11-08T22:00:00	4	Temperatura máxima	18.7
63651	7	Sololá	717	San Juan la Laguna	12	San Juan la Laguna	7	Julio	2023-04-07T00:00:00	2024-11-08T22:00:00	3	Temperatura mínima	18.4
63652	7	Sololá	717	San Juan la Laguna	12	San Juan la Laguna	7	Julio	2023-04-07T00:00:00	2024-11-08T22:00:00	5	Humedad	92
63653	7	Sololá	717	San Juan la Laguna	12	San Juan la Laguna	7	Julio	2023-04-07T00:00:00	2024-11-08T22:00:00	6	Velocidad del viento	0
63654	7	Sololá	717	San Juan la Laguna	12	San Juan la Laguna	7	Julio	2023-04-07T00:00:00	2024-11-08T22:00:00	7	Dirección del viento	0
63655	7	Sololá	717	San Juan la Laguna	12	San Juan la Laguna	7	Julio	2023-04-07T00:00:00	2024-11-08T22:00:00	1	Precipitación	0.2
63656	7	Sololá	717	San Juan la Laguna	12	San Juan la Laguna	7	Julio	2023-04-07T00:00:00	2024-11-08T22:00:00	8	Radiación solar	0
63657	7	Sololá	717	San Juan la Laguna	12	San Juan la Laguna	7	Julio	2023-04-07T00:00:00	2024-11-08T23:00:00	2	Temperatura media	18.4
63658	7	Sololá	717	San Juan la Laguna	12	San Juan la Laguna	7	Julio	2023-04-07T00:00:00	2024-11-08T23:00:00	4	Temperatura máxima	18.5
63659	7	Sololá	717	San Juan la Laguna	12	San Juan la Laguna	7	Julio	2023-04-07T00:00:00	2024-11-08T23:00:00	3	Temperatura mínima	18.3
63660	7	Sololá	717	San Juan la Laguna	12	San Juan la Laguna	7	Julio	2023-04-07T00:00:00	2024-11-08T23:00:00	5	Humedad	93
63661	7	Sololá	717	San Juan la Laguna	12	San Juan la Laguna	7	Julio	2023-04-07T00:00:00	2024-11-08T23:00:00	6	Velocidad del viento	0
63662	7	Sololá	717	San Juan la Laguna	12	San Juan la Laguna	7	Julio	2023-04-07T00:00:00	2024-11-08T23:00:00	7	Dirección del viento	0
63663	7	Sololá	717	San Juan la Laguna	12	San Juan la Laguna	7	Julio	2023-04-07T00:00:00	2024-11-08T23:00:00	1	Precipitación	0.4
63664	7	Sololá	717	San Juan la Laguna	12	San Juan la Laguna	7	Julio	2023-04-07T00:00:00	2024-11-08T23:00:00	8	Radiación solar	0
63665	7	Sololá	717	San Juan la Laguna	12	San Juan la Laguna	7	Julio	2023-05-07T00:00:00	2024-11-08T00:00:00	2	Temperatura media	18
63666	7	Sololá	717	San Juan la Laguna	12	San Juan la Laguna	7	Julio	2023-05-07T00:00:00	2024-11-08T00:00:00	4	Temperatura máxima	18.5
63667	7	Sololá	717	San Juan la Laguna	12	San Juan la Laguna	7	Julio	2023-05-07T00:00:00	2024-11-08T00:00:00	3	Temperatura mínima	18
63668	7	Sololá	717	San Juan la Laguna	12	San Juan la Laguna	7	Julio	2023-05-07T00:00:00	2024-11-08T00:00:00	5	Humedad	92
63669	7	Sololá	717	San Juan la Laguna	12	San Juan la Laguna	7	Julio	2023-05-07T00:00:00	2024-11-08T00:00:00	6	Velocidad del viento	0
63670	7	Sololá	717	San Juan la Laguna	12	San Juan la Laguna	7	Julio	2023-05-07T00:00:00	2024-11-08T00:00:00	7	Dirección del viento	0
63671	7	Sololá	717	San Juan la Laguna	12	San Juan la Laguna	7	Julio	2023-05-07T00:00:00	2024-11-08T00:00:00	1	Precipitación	1.8
63672	7	Sololá	717	San Juan la Laguna	12	San Juan la Laguna	7	Julio	2023-05-07T00:00:00	2024-11-08T00:00:00	8	Radiación solar	0
63673	7	Sololá	717	San Juan la Laguna	12	San Juan la Laguna	7	Julio	2023-05-07T00:00:00	2024-11-08T01:00:00	2	Temperatura media	17.7
63674	7	Sololá	717	San Juan la Laguna	12	San Juan la Laguna	7	Julio	2023-05-07T00:00:00	2024-11-08T01:00:00	4	Temperatura máxima	18.1
63675	7	Sololá	717	San Juan la Laguna	12	San Juan la Laguna	7	Julio	2023-05-07T00:00:00	2024-11-08T01:00:00	3	Temperatura mínima	17.7
63676	7	Sololá	717	San Juan la Laguna	12	San Juan la Laguna	7	Julio	2023-05-07T00:00:00	2024-11-08T01:00:00	5	Humedad	92
63677	7	Sololá	717	San Juan la Laguna	12	San Juan la Laguna	7	Julio	2023-05-07T00:00:00	2024-11-08T01:00:00	6	Velocidad del viento	0
63678	7	Sololá	717	San Juan la Laguna	12	San Juan la Laguna	7	Julio	2023-05-07T00:00:00	2024-11-08T01:00:00	7	Dirección del viento	0
63679	7	Sololá	717	San Juan la Laguna	12	San Juan la Laguna	7	Julio	2023-05-07T00:00:00	2024-11-08T01:00:00	1	Precipitación	0.6
63680	7	Sololá	717	San Juan la Laguna	12	San Juan la Laguna	7	Julio	2023-05-07T00:00:00	2024-11-08T01:00:00	8	Radiación solar	0
63681	7	Sololá	717	San Juan la Laguna	12	San Juan la Laguna	7	Julio	2023-05-07T00:00:00	2024-11-08T02:00:00	2	Temperatura media	17.3
63682	7	Sololá	717	San Juan la Laguna	12	San Juan la Laguna	7	Julio	2023-05-07T00:00:00	2024-11-08T02:00:00	4	Temperatura máxima	17.7
63683	7	Sololá	717	San Juan la Laguna	12	San Juan la Laguna	7	Julio	2023-05-07T00:00:00	2024-11-08T02:00:00	3	Temperatura mínima	17.3
63684	7	Sololá	717	San Juan la Laguna	12	San Juan la Laguna	7	Julio	2023-05-07T00:00:00	2024-11-08T02:00:00	5	Humedad	91
63685	7	Sololá	717	San Juan la Laguna	12	San Juan la Laguna	7	Julio	2023-05-07T00:00:00	2024-11-08T02:00:00	6	Velocidad del viento	0
63686	7	Sololá	717	San Juan la Laguna	12	San Juan la Laguna	7	Julio	2023-05-07T00:00:00	2024-11-08T02:00:00	7	Dirección del viento	0
63687	7	Sololá	717	San Juan la Laguna	12	San Juan la Laguna	7	Julio	2023-05-07T00:00:00	2024-11-08T02:00:00	1	Precipitación	0
63688	7	Sololá	717	San Juan la Laguna	12	San Juan la Laguna	7	Julio	2023-05-07T00:00:00	2024-11-08T02:00:00	8	Radiación solar	0
63689	7	Sololá	717	San Juan la Laguna	12	San Juan la Laguna	7	Julio	2023-05-07T00:00:00	2024-11-08T03:00:00	2	Temperatura media	16.7
63690	7	Sololá	717	San Juan la Laguna	12	San Juan la Laguna	7	Julio	2023-05-07T00:00:00	2024-11-08T03:00:00	4	Temperatura máxima	17.3
63691	7	Sololá	717	San Juan la Laguna	12	San Juan la Laguna	7	Julio	2023-05-07T00:00:00	2024-11-08T03:00:00	3	Temperatura mínima	16.7
63692	7	Sololá	717	San Juan la Laguna	12	San Juan la Laguna	7	Julio	2023-05-07T00:00:00	2024-11-08T03:00:00	5	Humedad	91
63693	7	Sololá	717	San Juan la Laguna	12	San Juan la Laguna	7	Julio	2023-05-07T00:00:00	2024-11-08T03:00:00	6	Velocidad del viento	0
63694	7	Sololá	717	San Juan la Laguna	12	San Juan la Laguna	7	Julio	2023-05-07T00:00:00	2024-11-08T03:00:00	7	Dirección del viento	0
63695	7	Sololá	717	San Juan la Laguna	12	San Juan la Laguna	7	Julio	2023-05-07T00:00:00	2024-11-08T03:00:00	1	Precipitación	0
63696	7	Sololá	717	San Juan la Laguna	12	San Juan la Laguna	7	Julio	2023-05-07T00:00:00	2024-11-08T03:00:00	8	Radiación solar	0
63697	7	Sololá	717	San Juan la Laguna	12	San Juan la Laguna	7	Julio	2023-05-07T00:00:00	2024-11-08T04:00:00	2	Temperatura media	16.2
63698	7	Sololá	717	San Juan la Laguna	12	San Juan la Laguna	7	Julio	2023-05-07T00:00:00	2024-11-08T04:00:00	4	Temperatura máxima	16.7
63699	7	Sololá	717	San Juan la Laguna	12	San Juan la Laguna	7	Julio	2023-05-07T00:00:00	2024-11-08T04:00:00	3	Temperatura mínima	16.2
63700	7	Sololá	717	San Juan la Laguna	12	San Juan la Laguna	7	Julio	2023-05-07T00:00:00	2024-11-08T04:00:00	5	Humedad	91
63701	7	Sololá	717	San Juan la Laguna	12	San Juan la Laguna	7	Julio	2023-05-07T00:00:00	2024-11-08T04:00:00	6	Velocidad del viento	0
63702	7	Sololá	717	San Juan la Laguna	12	San Juan la Laguna	7	Julio	2023-05-07T00:00:00	2024-11-08T04:00:00	7	Dirección del viento	0
63703	7	Sololá	717	San Juan la Laguna	12	San Juan la Laguna	7	Julio	2023-05-07T00:00:00	2024-11-08T04:00:00	1	Precipitación	0
63704	7	Sololá	717	San Juan la Laguna	12	San Juan la Laguna	7	Julio	2023-05-07T00:00:00	2024-11-08T04:00:00	8	Radiación solar	0
63705	7	Sololá	717	San Juan la Laguna	12	San Juan la Laguna	7	Julio	2023-05-07T00:00:00	2024-11-08T05:00:00	2	Temperatura media	16.3
63706	7	Sololá	717	San Juan la Laguna	12	San Juan la Laguna	7	Julio	2023-05-07T00:00:00	2024-11-08T05:00:00	4	Temperatura máxima	16.4
63707	7	Sololá	717	San Juan la Laguna	12	San Juan la Laguna	7	Julio	2023-05-07T00:00:00	2024-11-08T05:00:00	3	Temperatura mínima	16.1
63708	7	Sololá	717	San Juan la Laguna	12	San Juan la Laguna	7	Julio	2023-05-07T00:00:00	2024-11-08T05:00:00	5	Humedad	89
63709	7	Sololá	717	San Juan la Laguna	12	San Juan la Laguna	7	Julio	2023-05-07T00:00:00	2024-11-08T05:00:00	6	Velocidad del viento	0
63710	7	Sololá	717	San Juan la Laguna	12	San Juan la Laguna	7	Julio	2023-05-07T00:00:00	2024-11-08T05:00:00	7	Dirección del viento	0
63711	7	Sololá	717	San Juan la Laguna	12	San Juan la Laguna	7	Julio	2023-05-07T00:00:00	2024-11-08T05:00:00	1	Precipitación	0
63712	7	Sololá	717	San Juan la Laguna	12	San Juan la Laguna	7	Julio	2023-05-07T00:00:00	2024-11-08T05:00:00	8	Radiación solar	0
63713	7	Sololá	717	San Juan la Laguna	12	San Juan la Laguna	7	Julio	2023-05-07T00:00:00	2024-11-08T06:00:00	2	Temperatura media	16.3
63714	7	Sololá	717	San Juan la Laguna	12	San Juan la Laguna	7	Julio	2023-05-07T00:00:00	2024-11-08T06:00:00	4	Temperatura máxima	16.3
63715	7	Sololá	717	San Juan la Laguna	12	San Juan la Laguna	7	Julio	2023-05-07T00:00:00	2024-11-08T06:00:00	3	Temperatura mínima	15.9
63716	7	Sololá	717	San Juan la Laguna	12	San Juan la Laguna	7	Julio	2023-05-07T00:00:00	2024-11-08T06:00:00	5	Humedad	89
63717	7	Sololá	717	San Juan la Laguna	12	San Juan la Laguna	7	Julio	2023-05-07T00:00:00	2024-11-08T06:00:00	6	Velocidad del viento	0
63718	7	Sololá	717	San Juan la Laguna	12	San Juan la Laguna	7	Julio	2023-05-07T00:00:00	2024-11-08T06:00:00	7	Dirección del viento	0
63719	7	Sololá	717	San Juan la Laguna	12	San Juan la Laguna	7	Julio	2023-05-07T00:00:00	2024-11-08T06:00:00	1	Precipitación	0
63720	7	Sololá	717	San Juan la Laguna	12	San Juan la Laguna	7	Julio	2023-05-07T00:00:00	2024-11-08T06:00:00	8	Radiación solar	4
63721	7	Sololá	717	San Juan la Laguna	12	San Juan la Laguna	7	Julio	2023-05-07T00:00:00	2024-11-08T07:00:00	2	Temperatura media	17.9
63722	7	Sololá	717	San Juan la Laguna	12	San Juan la Laguna	7	Julio	2023-05-07T00:00:00	2024-11-08T07:00:00	4	Temperatura máxima	17.9
63723	7	Sololá	717	San Juan la Laguna	12	San Juan la Laguna	7	Julio	2023-05-07T00:00:00	2024-11-08T07:00:00	3	Temperatura mínima	16.2
63724	7	Sololá	717	San Juan la Laguna	12	San Juan la Laguna	7	Julio	2023-05-07T00:00:00	2024-11-08T07:00:00	5	Humedad	88
63725	7	Sololá	717	San Juan la Laguna	12	San Juan la Laguna	7	Julio	2023-05-07T00:00:00	2024-11-08T07:00:00	6	Velocidad del viento	0
63726	7	Sololá	717	San Juan la Laguna	12	San Juan la Laguna	7	Julio	2023-05-07T00:00:00	2024-11-08T07:00:00	7	Dirección del viento	0
63727	7	Sololá	717	San Juan la Laguna	12	San Juan la Laguna	7	Julio	2023-05-07T00:00:00	2024-11-08T07:00:00	1	Precipitación	0
63728	7	Sololá	717	San Juan la Laguna	12	San Juan la Laguna	7	Julio	2023-05-07T00:00:00	2024-11-08T07:00:00	8	Radiación solar	111
63729	7	Sololá	717	San Juan la Laguna	12	San Juan la Laguna	7	Julio	2023-05-07T00:00:00	2024-11-08T08:00:00	2	Temperatura media	20.6
63730	7	Sololá	717	San Juan la Laguna	12	San Juan la Laguna	7	Julio	2023-05-07T00:00:00	2024-11-08T08:00:00	4	Temperatura máxima	20.6
63731	7	Sololá	717	San Juan la Laguna	12	San Juan la Laguna	7	Julio	2023-05-07T00:00:00	2024-11-08T08:00:00	3	Temperatura mínima	17.9
63732	7	Sololá	717	San Juan la Laguna	12	San Juan la Laguna	7	Julio	2023-05-07T00:00:00	2024-11-08T08:00:00	5	Humedad	79
63733	7	Sololá	717	San Juan la Laguna	12	San Juan la Laguna	7	Julio	2023-05-07T00:00:00	2024-11-08T08:00:00	6	Velocidad del viento	0
63734	7	Sololá	717	San Juan la Laguna	12	San Juan la Laguna	7	Julio	2023-05-07T00:00:00	2024-11-08T08:00:00	7	Dirección del viento	0
63735	7	Sololá	717	San Juan la Laguna	12	San Juan la Laguna	7	Julio	2023-05-07T00:00:00	2024-11-08T08:00:00	1	Precipitación	0
63736	7	Sololá	717	San Juan la Laguna	12	San Juan la Laguna	7	Julio	2023-05-07T00:00:00	2024-11-08T08:00:00	8	Radiación solar	319
63737	7	Sololá	717	San Juan la Laguna	12	San Juan la Laguna	7	Julio	2023-05-07T00:00:00	2024-11-08T09:00:00	2	Temperatura media	22.2
63738	7	Sololá	717	San Juan la Laguna	12	San Juan la Laguna	7	Julio	2023-05-07T00:00:00	2024-11-08T09:00:00	4	Temperatura máxima	22.2
63739	7	Sololá	717	San Juan la Laguna	12	San Juan la Laguna	7	Julio	2023-05-07T00:00:00	2024-11-08T09:00:00	3	Temperatura mínima	20.6
63740	7	Sololá	717	San Juan la Laguna	12	San Juan la Laguna	7	Julio	2023-05-07T00:00:00	2024-11-08T09:00:00	5	Humedad	69
63741	7	Sololá	717	San Juan la Laguna	12	San Juan la Laguna	7	Julio	2023-05-07T00:00:00	2024-11-08T09:00:00	6	Velocidad del viento	0
63742	7	Sololá	717	San Juan la Laguna	12	San Juan la Laguna	7	Julio	2023-05-07T00:00:00	2024-11-08T09:00:00	7	Dirección del viento	0
63743	7	Sololá	717	San Juan la Laguna	12	San Juan la Laguna	7	Julio	2023-05-07T00:00:00	2024-11-08T09:00:00	1	Precipitación	0
63744	7	Sololá	717	San Juan la Laguna	12	San Juan la Laguna	7	Julio	2023-05-07T00:00:00	2024-11-08T09:00:00	8	Radiación solar	535
63745	7	Sololá	717	San Juan la Laguna	12	San Juan la Laguna	7	Julio	2023-05-07T00:00:00	2024-11-08T10:00:00	2	Temperatura media	23.8
63746	7	Sololá	717	San Juan la Laguna	12	San Juan la Laguna	7	Julio	2023-05-07T00:00:00	2024-11-08T10:00:00	4	Temperatura máxima	23.8
63747	7	Sololá	717	San Juan la Laguna	12	San Juan la Laguna	7	Julio	2023-05-07T00:00:00	2024-11-08T10:00:00	3	Temperatura mínima	22.2
63748	7	Sololá	717	San Juan la Laguna	12	San Juan la Laguna	7	Julio	2023-05-07T00:00:00	2024-11-08T10:00:00	5	Humedad	62
63749	7	Sololá	717	San Juan la Laguna	12	San Juan la Laguna	7	Julio	2023-05-07T00:00:00	2024-11-08T10:00:00	6	Velocidad del viento	0
63750	7	Sololá	717	San Juan la Laguna	12	San Juan la Laguna	7	Julio	2023-05-07T00:00:00	2024-11-08T10:00:00	7	Dirección del viento	0
63751	7	Sololá	717	San Juan la Laguna	12	San Juan la Laguna	7	Julio	2023-05-07T00:00:00	2024-11-08T10:00:00	1	Precipitación	0
63752	7	Sololá	717	San Juan la Laguna	12	San Juan la Laguna	7	Julio	2023-05-07T00:00:00	2024-11-08T10:00:00	8	Radiación solar	721
63753	7	Sololá	717	San Juan la Laguna	12	San Juan la Laguna	7	Julio	2023-05-07T00:00:00	2024-11-08T11:00:00	2	Temperatura media	24.9
63754	7	Sololá	717	San Juan la Laguna	12	San Juan la Laguna	7	Julio	2023-05-07T00:00:00	2024-11-08T11:00:00	4	Temperatura máxima	24.9
63755	7	Sololá	717	San Juan la Laguna	12	San Juan la Laguna	7	Julio	2023-05-07T00:00:00	2024-11-08T11:00:00	3	Temperatura mínima	23.5
63756	7	Sololá	717	San Juan la Laguna	12	San Juan la Laguna	7	Julio	2023-05-07T00:00:00	2024-11-08T11:00:00	5	Humedad	62
63757	7	Sololá	717	San Juan la Laguna	12	San Juan la Laguna	7	Julio	2023-05-07T00:00:00	2024-11-08T11:00:00	6	Velocidad del viento	1.6
63758	7	Sololá	717	San Juan la Laguna	12	San Juan la Laguna	7	Julio	2023-05-07T00:00:00	2024-11-08T11:00:00	7	Dirección del viento	1.61
63759	7	Sololá	717	San Juan la Laguna	12	San Juan la Laguna	7	Julio	2023-05-07T00:00:00	2024-11-08T11:00:00	1	Precipitación	0
63760	7	Sololá	717	San Juan la Laguna	12	San Juan la Laguna	7	Julio	2023-05-07T00:00:00	2024-11-08T11:00:00	8	Radiación solar	883
63761	7	Sololá	717	San Juan la Laguna	12	San Juan la Laguna	7	Julio	2023-05-07T00:00:00	2024-11-08T12:00:00	2	Temperatura media	24.8
63762	7	Sololá	717	San Juan la Laguna	12	San Juan la Laguna	7	Julio	2023-05-07T00:00:00	2024-11-08T12:00:00	4	Temperatura máxima	25.3
63763	7	Sololá	717	San Juan la Laguna	12	San Juan la Laguna	7	Julio	2023-05-07T00:00:00	2024-11-08T12:00:00	3	Temperatura mínima	24.6
63764	7	Sololá	717	San Juan la Laguna	12	San Juan la Laguna	7	Julio	2023-05-07T00:00:00	2024-11-08T12:00:00	5	Humedad	66
63765	7	Sololá	717	San Juan la Laguna	12	San Juan la Laguna	7	Julio	2023-05-07T00:00:00	2024-11-08T12:00:00	6	Velocidad del viento	3.2
63766	7	Sololá	717	San Juan la Laguna	12	San Juan la Laguna	7	Julio	2023-05-07T00:00:00	2024-11-08T12:00:00	7	Dirección del viento	3.22
63767	7	Sololá	717	San Juan la Laguna	12	San Juan la Laguna	7	Julio	2023-05-07T00:00:00	2024-11-08T12:00:00	1	Precipitación	0
63768	7	Sololá	717	San Juan la Laguna	12	San Juan la Laguna	7	Julio	2023-05-07T00:00:00	2024-11-08T12:00:00	8	Radiación solar	930
63769	7	Sololá	717	San Juan la Laguna	12	San Juan la Laguna	7	Julio	2023-05-07T00:00:00	2024-11-08T13:00:00	2	Temperatura media	24.4
63770	7	Sololá	717	San Juan la Laguna	12	San Juan la Laguna	7	Julio	2023-05-07T00:00:00	2024-11-08T13:00:00	4	Temperatura máxima	25
63771	7	Sololá	717	San Juan la Laguna	12	San Juan la Laguna	7	Julio	2023-05-07T00:00:00	2024-11-08T13:00:00	3	Temperatura mínima	23.8
63772	7	Sololá	717	San Juan la Laguna	12	San Juan la Laguna	7	Julio	2023-05-07T00:00:00	2024-11-08T13:00:00	5	Humedad	70
63773	7	Sololá	717	San Juan la Laguna	12	San Juan la Laguna	7	Julio	2023-05-07T00:00:00	2024-11-08T13:00:00	6	Velocidad del viento	3.2
63774	7	Sololá	717	San Juan la Laguna	12	San Juan la Laguna	7	Julio	2023-05-07T00:00:00	2024-11-08T13:00:00	7	Dirección del viento	3.22
63775	7	Sololá	717	San Juan la Laguna	12	San Juan la Laguna	7	Julio	2023-05-07T00:00:00	2024-11-08T13:00:00	1	Precipitación	0
63776	7	Sololá	717	San Juan la Laguna	12	San Juan la Laguna	7	Julio	2023-05-07T00:00:00	2024-11-08T13:00:00	8	Radiación solar	930
63777	7	Sololá	717	San Juan la Laguna	12	San Juan la Laguna	7	Julio	2023-05-07T00:00:00	2024-11-08T14:00:00	2	Temperatura media	23.3
63778	7	Sololá	717	San Juan la Laguna	12	San Juan la Laguna	7	Julio	2023-05-07T00:00:00	2024-11-08T14:00:00	4	Temperatura máxima	24.8
63779	7	Sololá	717	San Juan la Laguna	12	San Juan la Laguna	7	Julio	2023-05-07T00:00:00	2024-11-08T14:00:00	3	Temperatura mínima	23.3
63780	7	Sololá	717	San Juan la Laguna	12	San Juan la Laguna	7	Julio	2023-05-07T00:00:00	2024-11-08T14:00:00	5	Humedad	76
63781	7	Sololá	717	San Juan la Laguna	12	San Juan la Laguna	7	Julio	2023-05-07T00:00:00	2024-11-08T14:00:00	6	Velocidad del viento	1.6
63782	7	Sololá	717	San Juan la Laguna	12	San Juan la Laguna	7	Julio	2023-05-07T00:00:00	2024-11-08T14:00:00	7	Dirección del viento	1.61
63783	7	Sololá	717	San Juan la Laguna	12	San Juan la Laguna	7	Julio	2023-05-07T00:00:00	2024-11-08T14:00:00	1	Precipitación	0
63784	7	Sololá	717	San Juan la Laguna	12	San Juan la Laguna	7	Julio	2023-05-07T00:00:00	2024-11-08T14:00:00	8	Radiación solar	901
63785	7	Sololá	717	San Juan la Laguna	12	San Juan la Laguna	7	Julio	2023-05-07T00:00:00	2024-11-08T15:00:00	2	Temperatura media	22.3
63786	7	Sololá	717	San Juan la Laguna	12	San Juan la Laguna	7	Julio	2023-05-07T00:00:00	2024-11-08T15:00:00	4	Temperatura máxima	23.8
63787	7	Sololá	717	San Juan la Laguna	12	San Juan la Laguna	7	Julio	2023-05-07T00:00:00	2024-11-08T15:00:00	3	Temperatura mínima	22.3
63788	7	Sololá	717	San Juan la Laguna	12	San Juan la Laguna	7	Julio	2023-05-07T00:00:00	2024-11-08T15:00:00	5	Humedad	81
63789	7	Sololá	717	San Juan la Laguna	12	San Juan la Laguna	7	Julio	2023-05-07T00:00:00	2024-11-08T15:00:00	6	Velocidad del viento	1.6
63790	7	Sololá	717	San Juan la Laguna	12	San Juan la Laguna	7	Julio	2023-05-07T00:00:00	2024-11-08T15:00:00	7	Dirección del viento	1.61
63791	7	Sololá	717	San Juan la Laguna	12	San Juan la Laguna	7	Julio	2023-05-07T00:00:00	2024-11-08T15:00:00	1	Precipitación	0.4
63792	7	Sololá	717	San Juan la Laguna	12	San Juan la Laguna	7	Julio	2023-05-07T00:00:00	2024-11-08T15:00:00	8	Radiación solar	774
63793	7	Sololá	717	San Juan la Laguna	12	San Juan la Laguna	7	Julio	2023-05-07T00:00:00	2024-11-08T16:00:00	2	Temperatura media	22.2
63794	7	Sololá	717	San Juan la Laguna	12	San Juan la Laguna	7	Julio	2023-05-07T00:00:00	2024-11-08T16:00:00	4	Temperatura máxima	22.3
63795	7	Sololá	717	San Juan la Laguna	12	San Juan la Laguna	7	Julio	2023-05-07T00:00:00	2024-11-08T16:00:00	3	Temperatura mínima	21.9
63796	7	Sololá	717	San Juan la Laguna	12	San Juan la Laguna	7	Julio	2023-05-07T00:00:00	2024-11-08T16:00:00	5	Humedad	81
63797	7	Sololá	717	San Juan la Laguna	12	San Juan la Laguna	7	Julio	2023-05-07T00:00:00	2024-11-08T16:00:00	6	Velocidad del viento	0
63798	7	Sololá	717	San Juan la Laguna	12	San Juan la Laguna	7	Julio	2023-05-07T00:00:00	2024-11-08T16:00:00	7	Dirección del viento	0
63799	7	Sololá	717	San Juan la Laguna	12	San Juan la Laguna	7	Julio	2023-05-07T00:00:00	2024-11-08T16:00:00	1	Precipitación	0.2
63800	7	Sololá	717	San Juan la Laguna	12	San Juan la Laguna	7	Julio	2023-05-07T00:00:00	2024-11-08T16:00:00	8	Radiación solar	519
63801	7	Sololá	717	San Juan la Laguna	12	San Juan la Laguna	7	Julio	2023-05-07T00:00:00	2024-11-08T17:00:00	2	Temperatura media	22.4
63802	7	Sololá	717	San Juan la Laguna	12	San Juan la Laguna	7	Julio	2023-05-07T00:00:00	2024-11-08T17:00:00	4	Temperatura máxima	22.5
63803	7	Sololá	717	San Juan la Laguna	12	San Juan la Laguna	7	Julio	2023-05-07T00:00:00	2024-11-08T17:00:00	3	Temperatura mínima	22.1
63804	7	Sololá	717	San Juan la Laguna	12	San Juan la Laguna	7	Julio	2023-05-07T00:00:00	2024-11-08T17:00:00	5	Humedad	80
63805	7	Sololá	717	San Juan la Laguna	12	San Juan la Laguna	7	Julio	2023-05-07T00:00:00	2024-11-08T17:00:00	6	Velocidad del viento	0
63806	7	Sololá	717	San Juan la Laguna	12	San Juan la Laguna	7	Julio	2023-05-07T00:00:00	2024-11-08T17:00:00	7	Dirección del viento	0
63807	7	Sololá	717	San Juan la Laguna	12	San Juan la Laguna	7	Julio	2023-05-07T00:00:00	2024-11-08T17:00:00	1	Precipitación	0
63808	7	Sololá	717	San Juan la Laguna	12	San Juan la Laguna	7	Julio	2023-05-07T00:00:00	2024-11-08T17:00:00	8	Radiación solar	287
63809	7	Sololá	717	San Juan la Laguna	12	San Juan la Laguna	7	Julio	2023-05-07T00:00:00	2024-11-08T18:00:00	2	Temperatura media	21.6
63810	7	Sololá	717	San Juan la Laguna	12	San Juan la Laguna	7	Julio	2023-05-07T00:00:00	2024-11-08T18:00:00	4	Temperatura máxima	22.4
63811	7	Sololá	717	San Juan la Laguna	12	San Juan la Laguna	7	Julio	2023-05-07T00:00:00	2024-11-08T18:00:00	3	Temperatura mínima	21.5
63812	7	Sololá	717	San Juan la Laguna	12	San Juan la Laguna	7	Julio	2023-05-07T00:00:00	2024-11-08T18:00:00	5	Humedad	83
63813	7	Sololá	717	San Juan la Laguna	12	San Juan la Laguna	7	Julio	2023-05-07T00:00:00	2024-11-08T18:00:00	6	Velocidad del viento	0
63814	7	Sololá	717	San Juan la Laguna	12	San Juan la Laguna	7	Julio	2023-05-07T00:00:00	2024-11-08T18:00:00	7	Dirección del viento	0
63815	7	Sololá	717	San Juan la Laguna	12	San Juan la Laguna	7	Julio	2023-05-07T00:00:00	2024-11-08T18:00:00	1	Precipitación	0
63816	7	Sololá	717	San Juan la Laguna	12	San Juan la Laguna	7	Julio	2023-05-07T00:00:00	2024-11-08T18:00:00	8	Radiación solar	72
63817	7	Sololá	717	San Juan la Laguna	12	San Juan la Laguna	7	Julio	2023-05-07T00:00:00	2024-11-08T19:00:00	2	Temperatura media	21.1
63818	7	Sololá	717	San Juan la Laguna	12	San Juan la Laguna	7	Julio	2023-05-07T00:00:00	2024-11-08T19:00:00	4	Temperatura máxima	21.6
63819	7	Sololá	717	San Juan la Laguna	12	San Juan la Laguna	7	Julio	2023-05-07T00:00:00	2024-11-08T19:00:00	3	Temperatura mínima	21.1
63820	7	Sololá	717	San Juan la Laguna	12	San Juan la Laguna	7	Julio	2023-05-07T00:00:00	2024-11-08T19:00:00	5	Humedad	83
63821	7	Sololá	717	San Juan la Laguna	12	San Juan la Laguna	7	Julio	2023-05-07T00:00:00	2024-11-08T19:00:00	6	Velocidad del viento	0
63822	7	Sololá	717	San Juan la Laguna	12	San Juan la Laguna	7	Julio	2023-05-07T00:00:00	2024-11-08T19:00:00	7	Dirección del viento	0
63823	7	Sololá	717	San Juan la Laguna	12	San Juan la Laguna	7	Julio	2023-05-07T00:00:00	2024-11-08T19:00:00	1	Precipitación	0
63824	7	Sololá	717	San Juan la Laguna	12	San Juan la Laguna	7	Julio	2023-05-07T00:00:00	2024-11-08T19:00:00	8	Radiación solar	0
63825	7	Sololá	717	San Juan la Laguna	12	San Juan la Laguna	7	Julio	2023-05-07T00:00:00	2024-11-08T20:00:00	2	Temperatura media	20.2
63826	7	Sololá	717	San Juan la Laguna	12	San Juan la Laguna	7	Julio	2023-05-07T00:00:00	2024-11-08T20:00:00	4	Temperatura máxima	21.1
63827	7	Sololá	717	San Juan la Laguna	12	San Juan la Laguna	7	Julio	2023-05-07T00:00:00	2024-11-08T20:00:00	3	Temperatura mínima	20.2
63828	7	Sololá	717	San Juan la Laguna	12	San Juan la Laguna	7	Julio	2023-05-07T00:00:00	2024-11-08T20:00:00	5	Humedad	86
63829	7	Sololá	717	San Juan la Laguna	12	San Juan la Laguna	7	Julio	2023-05-07T00:00:00	2024-11-08T20:00:00	6	Velocidad del viento	0
63830	7	Sololá	717	San Juan la Laguna	12	San Juan la Laguna	7	Julio	2023-05-07T00:00:00	2024-11-08T20:00:00	7	Dirección del viento	0
63831	7	Sololá	717	San Juan la Laguna	12	San Juan la Laguna	7	Julio	2023-05-07T00:00:00	2024-11-08T20:00:00	1	Precipitación	0
63832	7	Sololá	717	San Juan la Laguna	12	San Juan la Laguna	7	Julio	2023-05-07T00:00:00	2024-11-08T20:00:00	8	Radiación solar	0
63833	7	Sololá	717	San Juan la Laguna	12	San Juan la Laguna	7	Julio	2023-05-07T00:00:00	2024-11-08T21:00:00	2	Temperatura media	18.2
63834	7	Sololá	717	San Juan la Laguna	12	San Juan la Laguna	7	Julio	2023-05-07T00:00:00	2024-11-08T21:00:00	4	Temperatura máxima	20.2
63835	7	Sololá	717	San Juan la Laguna	12	San Juan la Laguna	7	Julio	2023-05-07T00:00:00	2024-11-08T21:00:00	3	Temperatura mínima	18.2
63836	7	Sololá	717	San Juan la Laguna	12	San Juan la Laguna	7	Julio	2023-05-07T00:00:00	2024-11-08T21:00:00	5	Humedad	82
63837	7	Sololá	717	San Juan la Laguna	12	San Juan la Laguna	7	Julio	2023-05-07T00:00:00	2024-11-08T21:00:00	6	Velocidad del viento	0
63838	7	Sololá	717	San Juan la Laguna	12	San Juan la Laguna	7	Julio	2023-05-07T00:00:00	2024-11-08T21:00:00	7	Dirección del viento	0
63839	7	Sololá	717	San Juan la Laguna	12	San Juan la Laguna	7	Julio	2023-05-07T00:00:00	2024-11-08T21:00:00	1	Precipitación	0
63840	7	Sololá	717	San Juan la Laguna	12	San Juan la Laguna	7	Julio	2023-05-07T00:00:00	2024-11-08T21:00:00	8	Radiación solar	0
63841	7	Sololá	717	San Juan la Laguna	12	San Juan la Laguna	7	Julio	2023-05-07T00:00:00	2024-11-08T22:00:00	2	Temperatura media	17.7
63842	7	Sololá	717	San Juan la Laguna	12	San Juan la Laguna	7	Julio	2023-05-07T00:00:00	2024-11-08T22:00:00	4	Temperatura máxima	18.2
63843	7	Sololá	717	San Juan la Laguna	12	San Juan la Laguna	7	Julio	2023-05-07T00:00:00	2024-11-08T22:00:00	3	Temperatura mínima	17.6
63844	7	Sololá	717	San Juan la Laguna	12	San Juan la Laguna	7	Julio	2023-05-07T00:00:00	2024-11-08T22:00:00	5	Humedad	84
63845	7	Sololá	717	San Juan la Laguna	12	San Juan la Laguna	7	Julio	2023-05-07T00:00:00	2024-11-08T22:00:00	6	Velocidad del viento	0
63846	7	Sololá	717	San Juan la Laguna	12	San Juan la Laguna	7	Julio	2023-05-07T00:00:00	2024-11-08T22:00:00	7	Dirección del viento	0
63847	7	Sololá	717	San Juan la Laguna	12	San Juan la Laguna	7	Julio	2023-05-07T00:00:00	2024-11-08T22:00:00	1	Precipitación	0
63848	7	Sololá	717	San Juan la Laguna	12	San Juan la Laguna	7	Julio	2023-05-07T00:00:00	2024-11-08T22:00:00	8	Radiación solar	0
63849	7	Sololá	717	San Juan la Laguna	12	San Juan la Laguna	7	Julio	2023-05-07T00:00:00	2024-11-08T23:00:00	2	Temperatura media	17.3
63850	7	Sololá	717	San Juan la Laguna	12	San Juan la Laguna	7	Julio	2023-05-07T00:00:00	2024-11-08T23:00:00	4	Temperatura máxima	17.7
63851	7	Sololá	717	San Juan la Laguna	12	San Juan la Laguna	7	Julio	2023-05-07T00:00:00	2024-11-08T23:00:00	3	Temperatura mínima	17.2
63852	7	Sololá	717	San Juan la Laguna	12	San Juan la Laguna	7	Julio	2023-05-07T00:00:00	2024-11-08T23:00:00	5	Humedad	86
63853	7	Sololá	717	San Juan la Laguna	12	San Juan la Laguna	7	Julio	2023-05-07T00:00:00	2024-11-08T23:00:00	6	Velocidad del viento	0
63854	7	Sololá	717	San Juan la Laguna	12	San Juan la Laguna	7	Julio	2023-05-07T00:00:00	2024-11-08T23:00:00	7	Dirección del viento	0
63855	7	Sololá	717	San Juan la Laguna	12	San Juan la Laguna	7	Julio	2023-05-07T00:00:00	2024-11-08T23:00:00	1	Precipitación	0
63856	7	Sololá	717	San Juan la Laguna	12	San Juan la Laguna	7	Julio	2023-05-07T00:00:00	2024-11-08T23:00:00	8	Radiación solar	0
63857	7	Sololá	717	San Juan la Laguna	12	San Juan la Laguna	7	Julio	2023-06-07T00:00:00	2024-11-08T00:00:00	2	Temperatura media	17.5
63858	7	Sololá	717	San Juan la Laguna	12	San Juan la Laguna	7	Julio	2023-06-07T00:00:00	2024-11-08T00:00:00	4	Temperatura máxima	17.7
63859	7	Sololá	717	San Juan la Laguna	12	San Juan la Laguna	7	Julio	2023-06-07T00:00:00	2024-11-08T00:00:00	3	Temperatura mínima	17.3
63860	7	Sololá	717	San Juan la Laguna	12	San Juan la Laguna	7	Julio	2023-06-07T00:00:00	2024-11-08T00:00:00	5	Humedad	82
63861	7	Sololá	717	San Juan la Laguna	12	San Juan la Laguna	7	Julio	2023-06-07T00:00:00	2024-11-08T00:00:00	6	Velocidad del viento	0
63862	7	Sololá	717	San Juan la Laguna	12	San Juan la Laguna	7	Julio	2023-06-07T00:00:00	2024-11-08T00:00:00	7	Dirección del viento	0
63863	7	Sololá	717	San Juan la Laguna	12	San Juan la Laguna	7	Julio	2023-06-07T00:00:00	2024-11-08T00:00:00	1	Precipitación	0
63864	7	Sololá	717	San Juan la Laguna	12	San Juan la Laguna	7	Julio	2023-06-07T00:00:00	2024-11-08T00:00:00	8	Radiación solar	0
63865	7	Sololá	717	San Juan la Laguna	12	San Juan la Laguna	7	Julio	2023-06-07T00:00:00	2024-11-08T01:00:00	2	Temperatura media	16.8
63866	7	Sololá	717	San Juan la Laguna	12	San Juan la Laguna	7	Julio	2023-06-07T00:00:00	2024-11-08T01:00:00	4	Temperatura máxima	17.5
63867	7	Sololá	717	San Juan la Laguna	12	San Juan la Laguna	7	Julio	2023-06-07T00:00:00	2024-11-08T01:00:00	3	Temperatura mínima	16.8
63868	7	Sololá	717	San Juan la Laguna	12	San Juan la Laguna	7	Julio	2023-06-07T00:00:00	2024-11-08T01:00:00	5	Humedad	84
63869	7	Sololá	717	San Juan la Laguna	12	San Juan la Laguna	7	Julio	2023-06-07T00:00:00	2024-11-08T01:00:00	6	Velocidad del viento	0
63870	7	Sololá	717	San Juan la Laguna	12	San Juan la Laguna	7	Julio	2023-06-07T00:00:00	2024-11-08T01:00:00	7	Dirección del viento	0
63871	7	Sololá	717	San Juan la Laguna	12	San Juan la Laguna	7	Julio	2023-06-07T00:00:00	2024-11-08T01:00:00	1	Precipitación	0
63872	7	Sololá	717	San Juan la Laguna	12	San Juan la Laguna	7	Julio	2023-06-07T00:00:00	2024-11-08T01:00:00	8	Radiación solar	0
63873	7	Sololá	717	San Juan la Laguna	12	San Juan la Laguna	7	Julio	2023-06-07T00:00:00	2024-11-08T02:00:00	2	Temperatura media	16.6
63874	7	Sololá	717	San Juan la Laguna	12	San Juan la Laguna	7	Julio	2023-06-07T00:00:00	2024-11-08T02:00:00	4	Temperatura máxima	17
63875	7	Sololá	717	San Juan la Laguna	12	San Juan la Laguna	7	Julio	2023-06-07T00:00:00	2024-11-08T02:00:00	3	Temperatura mínima	16.4
63876	7	Sololá	717	San Juan la Laguna	12	San Juan la Laguna	7	Julio	2023-06-07T00:00:00	2024-11-08T02:00:00	5	Humedad	83
63877	7	Sololá	717	San Juan la Laguna	12	San Juan la Laguna	7	Julio	2023-06-07T00:00:00	2024-11-08T02:00:00	6	Velocidad del viento	1.6
63878	7	Sololá	717	San Juan la Laguna	12	San Juan la Laguna	7	Julio	2023-06-07T00:00:00	2024-11-08T02:00:00	7	Dirección del viento	1.61
63879	7	Sololá	717	San Juan la Laguna	12	San Juan la Laguna	7	Julio	2023-06-07T00:00:00	2024-11-08T02:00:00	1	Precipitación	0
63880	7	Sololá	717	San Juan la Laguna	12	San Juan la Laguna	7	Julio	2023-06-07T00:00:00	2024-11-08T02:00:00	8	Radiación solar	0
63881	7	Sololá	717	San Juan la Laguna	12	San Juan la Laguna	7	Julio	2023-06-07T00:00:00	2024-11-08T03:00:00	2	Temperatura media	16.3
63882	7	Sololá	717	San Juan la Laguna	12	San Juan la Laguna	7	Julio	2023-06-07T00:00:00	2024-11-08T03:00:00	4	Temperatura máxima	16.6
63883	7	Sololá	717	San Juan la Laguna	12	San Juan la Laguna	7	Julio	2023-06-07T00:00:00	2024-11-08T03:00:00	3	Temperatura mínima	16.2
63884	7	Sololá	717	San Juan la Laguna	12	San Juan la Laguna	7	Julio	2023-06-07T00:00:00	2024-11-08T03:00:00	5	Humedad	84
63885	7	Sololá	717	San Juan la Laguna	12	San Juan la Laguna	7	Julio	2023-06-07T00:00:00	2024-11-08T03:00:00	6	Velocidad del viento	1.6
63886	7	Sololá	717	San Juan la Laguna	12	San Juan la Laguna	7	Julio	2023-06-07T00:00:00	2024-11-08T03:00:00	7	Dirección del viento	1.61
63887	7	Sololá	717	San Juan la Laguna	12	San Juan la Laguna	7	Julio	2023-06-07T00:00:00	2024-11-08T03:00:00	1	Precipitación	0
63888	7	Sololá	717	San Juan la Laguna	12	San Juan la Laguna	7	Julio	2023-06-07T00:00:00	2024-11-08T03:00:00	8	Radiación solar	0
63889	7	Sololá	717	San Juan la Laguna	12	San Juan la Laguna	7	Julio	2023-06-07T00:00:00	2024-11-08T04:00:00	2	Temperatura media	16.3
63890	7	Sololá	717	San Juan la Laguna	12	San Juan la Laguna	7	Julio	2023-06-07T00:00:00	2024-11-08T04:00:00	4	Temperatura máxima	16.8
63891	7	Sololá	717	San Juan la Laguna	12	San Juan la Laguna	7	Julio	2023-06-07T00:00:00	2024-11-08T04:00:00	3	Temperatura mínima	16.2
63892	7	Sololá	717	San Juan la Laguna	12	San Juan la Laguna	7	Julio	2023-06-07T00:00:00	2024-11-08T04:00:00	5	Humedad	84
63893	7	Sololá	717	San Juan la Laguna	12	San Juan la Laguna	7	Julio	2023-06-07T00:00:00	2024-11-08T04:00:00	6	Velocidad del viento	0
63894	7	Sololá	717	San Juan la Laguna	12	San Juan la Laguna	7	Julio	2023-06-07T00:00:00	2024-11-08T04:00:00	7	Dirección del viento	0
63895	7	Sololá	717	San Juan la Laguna	12	San Juan la Laguna	7	Julio	2023-06-07T00:00:00	2024-11-08T04:00:00	1	Precipitación	0
63896	7	Sololá	717	San Juan la Laguna	12	San Juan la Laguna	7	Julio	2023-06-07T00:00:00	2024-11-08T04:00:00	8	Radiación solar	0
63897	7	Sololá	717	San Juan la Laguna	12	San Juan la Laguna	7	Julio	2023-06-07T00:00:00	2024-11-08T05:00:00	2	Temperatura media	15.7
63898	7	Sololá	717	San Juan la Laguna	12	San Juan la Laguna	7	Julio	2023-06-07T00:00:00	2024-11-08T05:00:00	4	Temperatura máxima	16.2
63899	7	Sololá	717	San Juan la Laguna	12	San Juan la Laguna	7	Julio	2023-06-07T00:00:00	2024-11-08T05:00:00	3	Temperatura mínima	15.7
63900	7	Sololá	717	San Juan la Laguna	12	San Juan la Laguna	7	Julio	2023-06-07T00:00:00	2024-11-08T05:00:00	5	Humedad	84
63901	7	Sololá	717	San Juan la Laguna	12	San Juan la Laguna	7	Julio	2023-06-07T00:00:00	2024-11-08T05:00:00	6	Velocidad del viento	0
63902	7	Sololá	717	San Juan la Laguna	12	San Juan la Laguna	7	Julio	2023-06-07T00:00:00	2024-11-08T05:00:00	7	Dirección del viento	0
63903	7	Sololá	717	San Juan la Laguna	12	San Juan la Laguna	7	Julio	2023-06-07T00:00:00	2024-11-08T05:00:00	1	Precipitación	0
63904	7	Sololá	717	San Juan la Laguna	12	San Juan la Laguna	7	Julio	2023-06-07T00:00:00	2024-11-08T05:00:00	8	Radiación solar	0
63905	7	Sololá	717	San Juan la Laguna	12	San Juan la Laguna	7	Julio	2023-06-07T00:00:00	2024-11-08T06:00:00	2	Temperatura media	16.1
63906	7	Sololá	717	San Juan la Laguna	12	San Juan la Laguna	7	Julio	2023-06-07T00:00:00	2024-11-08T06:00:00	4	Temperatura máxima	16.1
63907	7	Sololá	717	San Juan la Laguna	12	San Juan la Laguna	7	Julio	2023-06-07T00:00:00	2024-11-08T06:00:00	3	Temperatura mínima	15.5
63908	7	Sololá	717	San Juan la Laguna	12	San Juan la Laguna	7	Julio	2023-06-07T00:00:00	2024-11-08T06:00:00	5	Humedad	82
63909	7	Sololá	717	San Juan la Laguna	12	San Juan la Laguna	7	Julio	2023-06-07T00:00:00	2024-11-08T06:00:00	6	Velocidad del viento	1.6
63910	7	Sololá	717	San Juan la Laguna	12	San Juan la Laguna	7	Julio	2023-06-07T00:00:00	2024-11-08T06:00:00	7	Dirección del viento	1.61
63911	7	Sololá	717	San Juan la Laguna	12	San Juan la Laguna	7	Julio	2023-06-07T00:00:00	2024-11-08T06:00:00	1	Precipitación	0
63912	7	Sololá	717	San Juan la Laguna	12	San Juan la Laguna	7	Julio	2023-06-07T00:00:00	2024-11-08T06:00:00	8	Radiación solar	3
63913	7	Sololá	717	San Juan la Laguna	12	San Juan la Laguna	7	Julio	2023-06-07T00:00:00	2024-11-08T07:00:00	2	Temperatura media	17.9
63914	7	Sololá	717	San Juan la Laguna	12	San Juan la Laguna	7	Julio	2023-06-07T00:00:00	2024-11-08T07:00:00	4	Temperatura máxima	17.9
63915	7	Sololá	717	San Juan la Laguna	12	San Juan la Laguna	7	Julio	2023-06-07T00:00:00	2024-11-08T07:00:00	3	Temperatura mínima	15.9
63916	7	Sololá	717	San Juan la Laguna	12	San Juan la Laguna	7	Julio	2023-06-07T00:00:00	2024-11-08T07:00:00	5	Humedad	80
63917	7	Sololá	717	San Juan la Laguna	12	San Juan la Laguna	7	Julio	2023-06-07T00:00:00	2024-11-08T07:00:00	6	Velocidad del viento	0
63918	7	Sololá	717	San Juan la Laguna	12	San Juan la Laguna	7	Julio	2023-06-07T00:00:00	2024-11-08T07:00:00	7	Dirección del viento	0
63919	7	Sololá	717	San Juan la Laguna	12	San Juan la Laguna	7	Julio	2023-06-07T00:00:00	2024-11-08T07:00:00	1	Precipitación	0
63920	7	Sololá	717	San Juan la Laguna	12	San Juan la Laguna	7	Julio	2023-06-07T00:00:00	2024-11-08T07:00:00	8	Radiación solar	112
63921	7	Sololá	717	San Juan la Laguna	12	San Juan la Laguna	7	Julio	2023-06-07T00:00:00	2024-11-08T08:00:00	2	Temperatura media	21.6
63922	7	Sololá	717	San Juan la Laguna	12	San Juan la Laguna	7	Julio	2023-06-07T00:00:00	2024-11-08T08:00:00	4	Temperatura máxima	21.6
63923	7	Sololá	717	San Juan la Laguna	12	San Juan la Laguna	7	Julio	2023-06-07T00:00:00	2024-11-08T08:00:00	3	Temperatura mínima	17.9
63924	7	Sololá	717	San Juan la Laguna	12	San Juan la Laguna	7	Julio	2023-06-07T00:00:00	2024-11-08T08:00:00	5	Humedad	69
63925	7	Sololá	717	San Juan la Laguna	12	San Juan la Laguna	7	Julio	2023-06-07T00:00:00	2024-11-08T08:00:00	6	Velocidad del viento	0
63926	7	Sololá	717	San Juan la Laguna	12	San Juan la Laguna	7	Julio	2023-06-07T00:00:00	2024-11-08T08:00:00	7	Dirección del viento	0
63927	7	Sololá	717	San Juan la Laguna	12	San Juan la Laguna	7	Julio	2023-06-07T00:00:00	2024-11-08T08:00:00	1	Precipitación	0
63928	7	Sololá	717	San Juan la Laguna	12	San Juan la Laguna	7	Julio	2023-06-07T00:00:00	2024-11-08T08:00:00	8	Radiación solar	274
63929	7	Sololá	717	San Juan la Laguna	12	San Juan la Laguna	7	Julio	2023-06-07T00:00:00	2024-11-08T09:00:00	2	Temperatura media	23.2
63930	7	Sololá	717	San Juan la Laguna	12	San Juan la Laguna	7	Julio	2023-06-07T00:00:00	2024-11-08T09:00:00	4	Temperatura máxima	23.2
63931	7	Sololá	717	San Juan la Laguna	12	San Juan la Laguna	7	Julio	2023-06-07T00:00:00	2024-11-08T09:00:00	3	Temperatura mínima	21.7
63932	7	Sololá	717	San Juan la Laguna	12	San Juan la Laguna	7	Julio	2023-06-07T00:00:00	2024-11-08T09:00:00	5	Humedad	61
63933	7	Sololá	717	San Juan la Laguna	12	San Juan la Laguna	7	Julio	2023-06-07T00:00:00	2024-11-08T09:00:00	6	Velocidad del viento	0
63934	7	Sololá	717	San Juan la Laguna	12	San Juan la Laguna	7	Julio	2023-06-07T00:00:00	2024-11-08T09:00:00	7	Dirección del viento	0
63935	7	Sololá	717	San Juan la Laguna	12	San Juan la Laguna	7	Julio	2023-06-07T00:00:00	2024-11-08T09:00:00	1	Precipitación	0
63936	7	Sololá	717	San Juan la Laguna	12	San Juan la Laguna	7	Julio	2023-06-07T00:00:00	2024-11-08T09:00:00	8	Radiación solar	567
63937	7	Sololá	717	San Juan la Laguna	12	San Juan la Laguna	7	Julio	2023-06-07T00:00:00	2024-11-08T10:00:00	2	Temperatura media	24.4
63938	7	Sololá	717	San Juan la Laguna	12	San Juan la Laguna	7	Julio	2023-06-07T00:00:00	2024-11-08T10:00:00	4	Temperatura máxima	24.4
63939	7	Sololá	717	San Juan la Laguna	12	San Juan la Laguna	7	Julio	2023-06-07T00:00:00	2024-11-08T10:00:00	3	Temperatura mínima	23.2
63940	7	Sololá	717	San Juan la Laguna	12	San Juan la Laguna	7	Julio	2023-06-07T00:00:00	2024-11-08T10:00:00	5	Humedad	58
63941	7	Sololá	717	San Juan la Laguna	12	San Juan la Laguna	7	Julio	2023-06-07T00:00:00	2024-11-08T10:00:00	6	Velocidad del viento	0
63942	7	Sololá	717	San Juan la Laguna	12	San Juan la Laguna	7	Julio	2023-06-07T00:00:00	2024-11-08T10:00:00	7	Dirección del viento	0
63943	7	Sololá	717	San Juan la Laguna	12	San Juan la Laguna	7	Julio	2023-06-07T00:00:00	2024-11-08T10:00:00	1	Precipitación	0
63944	7	Sololá	717	San Juan la Laguna	12	San Juan la Laguna	7	Julio	2023-06-07T00:00:00	2024-11-08T10:00:00	8	Radiación solar	707
63945	7	Sololá	717	San Juan la Laguna	12	San Juan la Laguna	7	Julio	2023-06-07T00:00:00	2024-11-08T11:00:00	2	Temperatura media	24.9
63946	7	Sololá	717	San Juan la Laguna	12	San Juan la Laguna	7	Julio	2023-06-07T00:00:00	2024-11-08T11:00:00	4	Temperatura máxima	25.3
63947	7	Sololá	717	San Juan la Laguna	12	San Juan la Laguna	7	Julio	2023-06-07T00:00:00	2024-11-08T11:00:00	3	Temperatura mínima	24.3
63948	7	Sololá	717	San Juan la Laguna	12	San Juan la Laguna	7	Julio	2023-06-07T00:00:00	2024-11-08T11:00:00	5	Humedad	61
63949	7	Sololá	717	San Juan la Laguna	12	San Juan la Laguna	7	Julio	2023-06-07T00:00:00	2024-11-08T11:00:00	6	Velocidad del viento	3.2
63950	7	Sololá	717	San Juan la Laguna	12	San Juan la Laguna	7	Julio	2023-06-07T00:00:00	2024-11-08T11:00:00	7	Dirección del viento	3.22
63951	7	Sololá	717	San Juan la Laguna	12	San Juan la Laguna	7	Julio	2023-06-07T00:00:00	2024-11-08T11:00:00	1	Precipitación	0
63952	7	Sololá	717	San Juan la Laguna	12	San Juan la Laguna	7	Julio	2023-06-07T00:00:00	2024-11-08T11:00:00	8	Radiación solar	540
63953	7	Sololá	717	San Juan la Laguna	12	San Juan la Laguna	7	Julio	2023-06-07T00:00:00	2024-11-08T12:00:00	2	Temperatura media	24.7
63954	7	Sololá	717	San Juan la Laguna	12	San Juan la Laguna	7	Julio	2023-06-07T00:00:00	2024-11-08T12:00:00	4	Temperatura máxima	25.2
63955	7	Sololá	717	San Juan la Laguna	12	San Juan la Laguna	7	Julio	2023-06-07T00:00:00	2024-11-08T12:00:00	3	Temperatura mínima	24.6
63956	7	Sololá	717	San Juan la Laguna	12	San Juan la Laguna	7	Julio	2023-06-07T00:00:00	2024-11-08T12:00:00	5	Humedad	65
63957	7	Sololá	717	San Juan la Laguna	12	San Juan la Laguna	7	Julio	2023-06-07T00:00:00	2024-11-08T12:00:00	6	Velocidad del viento	3.2
63958	7	Sololá	717	San Juan la Laguna	12	San Juan la Laguna	7	Julio	2023-06-07T00:00:00	2024-11-08T12:00:00	7	Dirección del viento	3.22
63959	7	Sololá	717	San Juan la Laguna	12	San Juan la Laguna	7	Julio	2023-06-07T00:00:00	2024-11-08T12:00:00	1	Precipitación	0
63960	7	Sololá	717	San Juan la Laguna	12	San Juan la Laguna	7	Julio	2023-06-07T00:00:00	2024-11-08T12:00:00	8	Radiación solar	443
63961	7	Sololá	717	San Juan la Laguna	12	San Juan la Laguna	7	Julio	2023-06-07T00:00:00	2024-11-08T13:00:00	2	Temperatura media	25.1
63962	7	Sololá	717	San Juan la Laguna	12	San Juan la Laguna	7	Julio	2023-06-07T00:00:00	2024-11-08T13:00:00	4	Temperatura máxima	25.3
63963	7	Sololá	717	San Juan la Laguna	12	San Juan la Laguna	7	Julio	2023-06-07T00:00:00	2024-11-08T13:00:00	3	Temperatura mínima	24.6
63964	7	Sololá	717	San Juan la Laguna	12	San Juan la Laguna	7	Julio	2023-06-07T00:00:00	2024-11-08T13:00:00	5	Humedad	67
63965	7	Sololá	717	San Juan la Laguna	12	San Juan la Laguna	7	Julio	2023-06-07T00:00:00	2024-11-08T13:00:00	6	Velocidad del viento	3.2
63966	7	Sololá	717	San Juan la Laguna	12	San Juan la Laguna	7	Julio	2023-06-07T00:00:00	2024-11-08T13:00:00	7	Dirección del viento	3.22
63967	7	Sololá	717	San Juan la Laguna	12	San Juan la Laguna	7	Julio	2023-06-07T00:00:00	2024-11-08T13:00:00	1	Precipitación	0
63968	7	Sololá	717	San Juan la Laguna	12	San Juan la Laguna	7	Julio	2023-06-07T00:00:00	2024-11-08T13:00:00	8	Radiación solar	384
63969	7	Sololá	717	San Juan la Laguna	12	San Juan la Laguna	7	Julio	2023-06-07T00:00:00	2024-11-08T14:00:00	2	Temperatura media	24.7
63970	7	Sololá	717	San Juan la Laguna	12	San Juan la Laguna	7	Julio	2023-06-07T00:00:00	2024-11-08T14:00:00	4	Temperatura máxima	25.4
63971	7	Sololá	717	San Juan la Laguna	12	San Juan la Laguna	7	Julio	2023-06-07T00:00:00	2024-11-08T14:00:00	3	Temperatura mínima	24.2
63972	7	Sololá	717	San Juan la Laguna	12	San Juan la Laguna	7	Julio	2023-06-07T00:00:00	2024-11-08T14:00:00	5	Humedad	70
63973	7	Sololá	717	San Juan la Laguna	12	San Juan la Laguna	7	Julio	2023-06-07T00:00:00	2024-11-08T14:00:00	6	Velocidad del viento	1.6
63974	7	Sololá	717	San Juan la Laguna	12	San Juan la Laguna	7	Julio	2023-06-07T00:00:00	2024-11-08T14:00:00	7	Dirección del viento	1.61
63975	7	Sololá	717	San Juan la Laguna	12	San Juan la Laguna	7	Julio	2023-06-07T00:00:00	2024-11-08T14:00:00	1	Precipitación	0
63976	7	Sololá	717	San Juan la Laguna	12	San Juan la Laguna	7	Julio	2023-06-07T00:00:00	2024-11-08T14:00:00	8	Radiación solar	545
63977	7	Sololá	717	San Juan la Laguna	12	San Juan la Laguna	7	Julio	2023-06-07T00:00:00	2024-11-08T15:00:00	2	Temperatura media	24.9
63978	7	Sololá	717	San Juan la Laguna	12	San Juan la Laguna	7	Julio	2023-06-07T00:00:00	2024-11-08T15:00:00	4	Temperatura máxima	25.6
63979	7	Sololá	717	San Juan la Laguna	12	San Juan la Laguna	7	Julio	2023-06-07T00:00:00	2024-11-08T15:00:00	3	Temperatura mínima	24.4
63980	7	Sololá	717	San Juan la Laguna	12	San Juan la Laguna	7	Julio	2023-06-07T00:00:00	2024-11-08T15:00:00	5	Humedad	69
63981	7	Sololá	717	San Juan la Laguna	12	San Juan la Laguna	7	Julio	2023-06-07T00:00:00	2024-11-08T15:00:00	6	Velocidad del viento	3.2
63982	7	Sololá	717	San Juan la Laguna	12	San Juan la Laguna	7	Julio	2023-06-07T00:00:00	2024-11-08T15:00:00	7	Dirección del viento	3.22
63983	7	Sololá	717	San Juan la Laguna	12	San Juan la Laguna	7	Julio	2023-06-07T00:00:00	2024-11-08T15:00:00	1	Precipitación	0
63984	7	Sololá	717	San Juan la Laguna	12	San Juan la Laguna	7	Julio	2023-06-07T00:00:00	2024-11-08T15:00:00	8	Radiación solar	456
63985	7	Sololá	717	San Juan la Laguna	12	San Juan la Laguna	7	Julio	2023-06-07T00:00:00	2024-11-08T16:00:00	2	Temperatura media	24.6
63986	7	Sololá	717	San Juan la Laguna	12	San Juan la Laguna	7	Julio	2023-06-07T00:00:00	2024-11-08T16:00:00	4	Temperatura máxima	24.9
63987	7	Sololá	717	San Juan la Laguna	12	San Juan la Laguna	7	Julio	2023-06-07T00:00:00	2024-11-08T16:00:00	3	Temperatura mínima	24.3
63988	7	Sololá	717	San Juan la Laguna	12	San Juan la Laguna	7	Julio	2023-06-07T00:00:00	2024-11-08T16:00:00	5	Humedad	70
63989	7	Sololá	717	San Juan la Laguna	12	San Juan la Laguna	7	Julio	2023-06-07T00:00:00	2024-11-08T16:00:00	6	Velocidad del viento	3.2
63990	7	Sololá	717	San Juan la Laguna	12	San Juan la Laguna	7	Julio	2023-06-07T00:00:00	2024-11-08T16:00:00	7	Dirección del viento	3.22
63991	7	Sololá	717	San Juan la Laguna	12	San Juan la Laguna	7	Julio	2023-06-07T00:00:00	2024-11-08T16:00:00	1	Precipitación	0
63992	7	Sololá	717	San Juan la Laguna	12	San Juan la Laguna	7	Julio	2023-06-07T00:00:00	2024-11-08T16:00:00	8	Radiación solar	113
63993	7	Sololá	717	San Juan la Laguna	12	San Juan la Laguna	7	Julio	2023-06-07T00:00:00	2024-11-08T17:00:00	2	Temperatura media	22.8
63994	7	Sololá	717	San Juan la Laguna	12	San Juan la Laguna	7	Julio	2023-06-07T00:00:00	2024-11-08T17:00:00	4	Temperatura máxima	24.8
63995	7	Sololá	717	San Juan la Laguna	12	San Juan la Laguna	7	Julio	2023-06-07T00:00:00	2024-11-08T17:00:00	3	Temperatura mínima	22.8
63996	7	Sololá	717	San Juan la Laguna	12	San Juan la Laguna	7	Julio	2023-06-07T00:00:00	2024-11-08T17:00:00	5	Humedad	76
63997	7	Sololá	717	San Juan la Laguna	12	San Juan la Laguna	7	Julio	2023-06-07T00:00:00	2024-11-08T17:00:00	6	Velocidad del viento	3.2
63998	7	Sololá	717	San Juan la Laguna	12	San Juan la Laguna	7	Julio	2023-06-07T00:00:00	2024-11-08T17:00:00	7	Dirección del viento	3.22
63999	7	Sololá	717	San Juan la Laguna	12	San Juan la Laguna	7	Julio	2023-06-07T00:00:00	2024-11-08T17:00:00	1	Precipitación	0
64000	7	Sololá	717	San Juan la Laguna	12	San Juan la Laguna	7	Julio	2023-06-07T00:00:00	2024-11-08T17:00:00	8	Radiación solar	72
64001	7	Sololá	717	San Juan la Laguna	12	San Juan la Laguna	7	Julio	2023-06-07T00:00:00	2024-11-08T18:00:00	2	Temperatura media	21.7
64002	7	Sololá	717	San Juan la Laguna	12	San Juan la Laguna	7	Julio	2023-06-07T00:00:00	2024-11-08T18:00:00	4	Temperatura máxima	22.9
64003	7	Sololá	717	San Juan la Laguna	12	San Juan la Laguna	7	Julio	2023-06-07T00:00:00	2024-11-08T18:00:00	3	Temperatura mínima	21.7
64004	7	Sololá	717	San Juan la Laguna	12	San Juan la Laguna	7	Julio	2023-06-07T00:00:00	2024-11-08T18:00:00	5	Humedad	79
64005	7	Sololá	717	San Juan la Laguna	12	San Juan la Laguna	7	Julio	2023-06-07T00:00:00	2024-11-08T18:00:00	6	Velocidad del viento	0
64006	7	Sololá	717	San Juan la Laguna	12	San Juan la Laguna	7	Julio	2023-06-07T00:00:00	2024-11-08T18:00:00	7	Dirección del viento	0
64007	7	Sololá	717	San Juan la Laguna	12	San Juan la Laguna	7	Julio	2023-06-07T00:00:00	2024-11-08T18:00:00	1	Precipitación	0
64008	7	Sololá	717	San Juan la Laguna	12	San Juan la Laguna	7	Julio	2023-06-07T00:00:00	2024-11-08T18:00:00	8	Radiación solar	52
64009	7	Sololá	717	San Juan la Laguna	12	San Juan la Laguna	7	Julio	2023-06-07T00:00:00	2024-11-08T19:00:00	2	Temperatura media	21.3
64010	7	Sololá	717	San Juan la Laguna	12	San Juan la Laguna	7	Julio	2023-06-07T00:00:00	2024-11-08T19:00:00	4	Temperatura máxima	21.8
64011	7	Sololá	717	San Juan la Laguna	12	San Juan la Laguna	7	Julio	2023-06-07T00:00:00	2024-11-08T19:00:00	3	Temperatura mínima	21.3
64012	7	Sololá	717	San Juan la Laguna	12	San Juan la Laguna	7	Julio	2023-06-07T00:00:00	2024-11-08T19:00:00	5	Humedad	81
64013	7	Sololá	717	San Juan la Laguna	12	San Juan la Laguna	7	Julio	2023-06-07T00:00:00	2024-11-08T19:00:00	6	Velocidad del viento	0
64014	7	Sololá	717	San Juan la Laguna	12	San Juan la Laguna	7	Julio	2023-06-07T00:00:00	2024-11-08T19:00:00	7	Dirección del viento	0
64015	7	Sololá	717	San Juan la Laguna	12	San Juan la Laguna	7	Julio	2023-06-07T00:00:00	2024-11-08T19:00:00	1	Precipitación	0
64016	7	Sololá	717	San Juan la Laguna	12	San Juan la Laguna	7	Julio	2023-06-07T00:00:00	2024-11-08T19:00:00	8	Radiación solar	0
64017	7	Sololá	717	San Juan la Laguna	12	San Juan la Laguna	7	Julio	2023-06-07T00:00:00	2024-11-08T20:00:00	2	Temperatura media	20.8
64018	7	Sololá	717	San Juan la Laguna	12	San Juan la Laguna	7	Julio	2023-06-07T00:00:00	2024-11-08T20:00:00	4	Temperatura máxima	21.4
64019	7	Sololá	717	San Juan la Laguna	12	San Juan la Laguna	7	Julio	2023-06-07T00:00:00	2024-11-08T20:00:00	3	Temperatura mínima	20.8
64020	7	Sololá	717	San Juan la Laguna	12	San Juan la Laguna	7	Julio	2023-06-07T00:00:00	2024-11-08T20:00:00	5	Humedad	84
64021	7	Sololá	717	San Juan la Laguna	12	San Juan la Laguna	7	Julio	2023-06-07T00:00:00	2024-11-08T20:00:00	6	Velocidad del viento	0
64022	7	Sololá	717	San Juan la Laguna	12	San Juan la Laguna	7	Julio	2023-06-07T00:00:00	2024-11-08T20:00:00	7	Dirección del viento	0
64023	7	Sololá	717	San Juan la Laguna	12	San Juan la Laguna	7	Julio	2023-06-07T00:00:00	2024-11-08T20:00:00	1	Precipitación	0
64024	7	Sololá	717	San Juan la Laguna	12	San Juan la Laguna	7	Julio	2023-06-07T00:00:00	2024-11-08T20:00:00	8	Radiación solar	0
64025	7	Sololá	717	San Juan la Laguna	12	San Juan la Laguna	7	Julio	2023-06-07T00:00:00	2024-11-08T21:00:00	2	Temperatura media	20.2
64026	7	Sololá	717	San Juan la Laguna	12	San Juan la Laguna	7	Julio	2023-06-07T00:00:00	2024-11-08T21:00:00	4	Temperatura máxima	20.8
64027	7	Sololá	717	San Juan la Laguna	12	San Juan la Laguna	7	Julio	2023-06-07T00:00:00	2024-11-08T21:00:00	3	Temperatura mínima	20.2
64028	7	Sololá	717	San Juan la Laguna	12	San Juan la Laguna	7	Julio	2023-06-07T00:00:00	2024-11-08T21:00:00	5	Humedad	82
64029	7	Sololá	717	San Juan la Laguna	12	San Juan la Laguna	7	Julio	2023-06-07T00:00:00	2024-11-08T21:00:00	6	Velocidad del viento	0
64030	7	Sololá	717	San Juan la Laguna	12	San Juan la Laguna	7	Julio	2023-06-07T00:00:00	2024-11-08T21:00:00	7	Dirección del viento	0
64031	7	Sololá	717	San Juan la Laguna	12	San Juan la Laguna	7	Julio	2023-06-07T00:00:00	2024-11-08T21:00:00	1	Precipitación	0
64032	7	Sololá	717	San Juan la Laguna	12	San Juan la Laguna	7	Julio	2023-06-07T00:00:00	2024-11-08T21:00:00	8	Radiación solar	0
64033	7	Sololá	717	San Juan la Laguna	12	San Juan la Laguna	7	Julio	2023-06-07T00:00:00	2024-11-08T22:00:00	2	Temperatura media	18.6
64034	7	Sololá	717	San Juan la Laguna	12	San Juan la Laguna	7	Julio	2023-06-07T00:00:00	2024-11-08T22:00:00	4	Temperatura máxima	20.2
64035	7	Sololá	717	San Juan la Laguna	12	San Juan la Laguna	7	Julio	2023-06-07T00:00:00	2024-11-08T22:00:00	3	Temperatura mínima	18.6
64036	7	Sololá	717	San Juan la Laguna	12	San Juan la Laguna	7	Julio	2023-06-07T00:00:00	2024-11-08T22:00:00	5	Humedad	85
64037	7	Sololá	717	San Juan la Laguna	12	San Juan la Laguna	7	Julio	2023-06-07T00:00:00	2024-11-08T22:00:00	6	Velocidad del viento	0
64038	7	Sololá	717	San Juan la Laguna	12	San Juan la Laguna	7	Julio	2023-06-07T00:00:00	2024-11-08T22:00:00	7	Dirección del viento	0
64039	7	Sololá	717	San Juan la Laguna	12	San Juan la Laguna	7	Julio	2023-06-07T00:00:00	2024-11-08T22:00:00	1	Precipitación	0
64040	7	Sololá	717	San Juan la Laguna	12	San Juan la Laguna	7	Julio	2023-06-07T00:00:00	2024-11-08T22:00:00	8	Radiación solar	0
64041	7	Sololá	717	San Juan la Laguna	12	San Juan la Laguna	7	Julio	2023-06-07T00:00:00	2024-11-08T23:00:00	2	Temperatura media	17.7
64042	7	Sololá	717	San Juan la Laguna	12	San Juan la Laguna	7	Julio	2023-06-07T00:00:00	2024-11-08T23:00:00	4	Temperatura máxima	18.6
64043	7	Sololá	717	San Juan la Laguna	12	San Juan la Laguna	7	Julio	2023-06-07T00:00:00	2024-11-08T23:00:00	3	Temperatura mínima	17.7
64044	7	Sololá	717	San Juan la Laguna	12	San Juan la Laguna	7	Julio	2023-06-07T00:00:00	2024-11-08T23:00:00	5	Humedad	83
64045	7	Sololá	717	San Juan la Laguna	12	San Juan la Laguna	7	Julio	2023-06-07T00:00:00	2024-11-08T23:00:00	6	Velocidad del viento	0
64046	7	Sololá	717	San Juan la Laguna	12	San Juan la Laguna	7	Julio	2023-06-07T00:00:00	2024-11-08T23:00:00	7	Dirección del viento	0
64047	7	Sololá	717	San Juan la Laguna	12	San Juan la Laguna	7	Julio	2023-06-07T00:00:00	2024-11-08T23:00:00	1	Precipitación	0
64048	7	Sololá	717	San Juan la Laguna	12	San Juan la Laguna	7	Julio	2023-06-07T00:00:00	2024-11-08T23:00:00	8	Radiación solar	0
64049	7	Sololá	717	San Juan la Laguna	12	San Juan la Laguna	7	Julio	2023-07-07T00:00:00	2024-11-08T00:00:00	2	Temperatura media	17.1
64050	7	Sololá	717	San Juan la Laguna	12	San Juan la Laguna	7	Julio	2023-07-07T00:00:00	2024-11-08T00:00:00	4	Temperatura máxima	17.8
64051	7	Sololá	717	San Juan la Laguna	12	San Juan la Laguna	7	Julio	2023-07-07T00:00:00	2024-11-08T00:00:00	3	Temperatura mínima	17.1
64052	7	Sololá	717	San Juan la Laguna	12	San Juan la Laguna	7	Julio	2023-07-07T00:00:00	2024-11-08T00:00:00	5	Humedad	85
64053	7	Sololá	717	San Juan la Laguna	12	San Juan la Laguna	7	Julio	2023-07-07T00:00:00	2024-11-08T00:00:00	6	Velocidad del viento	0
64054	7	Sololá	717	San Juan la Laguna	12	San Juan la Laguna	7	Julio	2023-07-07T00:00:00	2024-11-08T00:00:00	7	Dirección del viento	0
64055	7	Sololá	717	San Juan la Laguna	12	San Juan la Laguna	7	Julio	2023-07-07T00:00:00	2024-11-08T00:00:00	1	Precipitación	0
64056	7	Sololá	717	San Juan la Laguna	12	San Juan la Laguna	7	Julio	2023-07-07T00:00:00	2024-11-08T00:00:00	8	Radiación solar	0
64057	7	Sololá	717	San Juan la Laguna	12	San Juan la Laguna	7	Julio	2023-07-07T00:00:00	2024-11-08T01:00:00	2	Temperatura media	16.9
64058	7	Sololá	717	San Juan la Laguna	12	San Juan la Laguna	7	Julio	2023-07-07T00:00:00	2024-11-08T01:00:00	4	Temperatura máxima	17.2
64059	7	Sololá	717	San Juan la Laguna	12	San Juan la Laguna	7	Julio	2023-07-07T00:00:00	2024-11-08T01:00:00	3	Temperatura mínima	16.7
64060	7	Sololá	717	San Juan la Laguna	12	San Juan la Laguna	7	Julio	2023-07-07T00:00:00	2024-11-08T01:00:00	5	Humedad	83
64061	7	Sololá	717	San Juan la Laguna	12	San Juan la Laguna	7	Julio	2023-07-07T00:00:00	2024-11-08T01:00:00	6	Velocidad del viento	0
64062	7	Sololá	717	San Juan la Laguna	12	San Juan la Laguna	7	Julio	2023-07-07T00:00:00	2024-11-08T01:00:00	7	Dirección del viento	0
64063	7	Sololá	717	San Juan la Laguna	12	San Juan la Laguna	7	Julio	2023-07-07T00:00:00	2024-11-08T01:00:00	1	Precipitación	0
64064	7	Sololá	717	San Juan la Laguna	12	San Juan la Laguna	7	Julio	2023-07-07T00:00:00	2024-11-08T01:00:00	8	Radiación solar	0
64065	7	Sololá	717	San Juan la Laguna	12	San Juan la Laguna	7	Julio	2023-07-07T00:00:00	2024-11-08T02:00:00	2	Temperatura media	16.7
64066	7	Sololá	717	San Juan la Laguna	12	San Juan la Laguna	7	Julio	2023-07-07T00:00:00	2024-11-08T02:00:00	4	Temperatura máxima	17.1
64067	7	Sololá	717	San Juan la Laguna	12	San Juan la Laguna	7	Julio	2023-07-07T00:00:00	2024-11-08T02:00:00	3	Temperatura mínima	16.3
64068	7	Sololá	717	San Juan la Laguna	12	San Juan la Laguna	7	Julio	2023-07-07T00:00:00	2024-11-08T02:00:00	5	Humedad	83
64069	7	Sololá	717	San Juan la Laguna	12	San Juan la Laguna	7	Julio	2023-07-07T00:00:00	2024-11-08T02:00:00	6	Velocidad del viento	0
64070	7	Sololá	717	San Juan la Laguna	12	San Juan la Laguna	7	Julio	2023-07-07T00:00:00	2024-11-08T02:00:00	7	Dirección del viento	0
64071	7	Sololá	717	San Juan la Laguna	12	San Juan la Laguna	7	Julio	2023-07-07T00:00:00	2024-11-08T02:00:00	1	Precipitación	0
64072	7	Sololá	717	San Juan la Laguna	12	San Juan la Laguna	7	Julio	2023-07-07T00:00:00	2024-11-08T02:00:00	8	Radiación solar	0
64073	7	Sololá	717	San Juan la Laguna	12	San Juan la Laguna	7	Julio	2023-07-07T00:00:00	2024-11-08T03:00:00	2	Temperatura media	16.3
64074	7	Sololá	717	San Juan la Laguna	12	San Juan la Laguna	7	Julio	2023-07-07T00:00:00	2024-11-08T03:00:00	4	Temperatura máxima	16.8
64075	7	Sololá	717	San Juan la Laguna	12	San Juan la Laguna	7	Julio	2023-07-07T00:00:00	2024-11-08T03:00:00	3	Temperatura mínima	16.2
64076	7	Sololá	717	San Juan la Laguna	12	San Juan la Laguna	7	Julio	2023-07-07T00:00:00	2024-11-08T03:00:00	5	Humedad	83
64077	7	Sololá	717	San Juan la Laguna	12	San Juan la Laguna	7	Julio	2023-07-07T00:00:00	2024-11-08T03:00:00	6	Velocidad del viento	0
64078	7	Sololá	717	San Juan la Laguna	12	San Juan la Laguna	7	Julio	2023-07-07T00:00:00	2024-11-08T03:00:00	7	Dirección del viento	0
64079	7	Sololá	717	San Juan la Laguna	12	San Juan la Laguna	7	Julio	2023-07-07T00:00:00	2024-11-08T03:00:00	1	Precipitación	0
64080	7	Sololá	717	San Juan la Laguna	12	San Juan la Laguna	7	Julio	2023-07-07T00:00:00	2024-11-08T03:00:00	8	Radiación solar	0
64081	7	Sololá	717	San Juan la Laguna	12	San Juan la Laguna	7	Julio	2023-07-07T00:00:00	2024-11-08T04:00:00	2	Temperatura media	16.3
64082	7	Sololá	717	San Juan la Laguna	12	San Juan la Laguna	7	Julio	2023-07-07T00:00:00	2024-11-08T04:00:00	4	Temperatura máxima	16.3
64083	7	Sololá	717	San Juan la Laguna	12	San Juan la Laguna	7	Julio	2023-07-07T00:00:00	2024-11-08T04:00:00	3	Temperatura mínima	16.1
64084	7	Sololá	717	San Juan la Laguna	12	San Juan la Laguna	7	Julio	2023-07-07T00:00:00	2024-11-08T04:00:00	5	Humedad	81
64085	7	Sololá	717	San Juan la Laguna	12	San Juan la Laguna	7	Julio	2023-07-07T00:00:00	2024-11-08T04:00:00	6	Velocidad del viento	0
64086	7	Sololá	717	San Juan la Laguna	12	San Juan la Laguna	7	Julio	2023-07-07T00:00:00	2024-11-08T04:00:00	7	Dirección del viento	0
64087	7	Sololá	717	San Juan la Laguna	12	San Juan la Laguna	7	Julio	2023-07-07T00:00:00	2024-11-08T04:00:00	1	Precipitación	0
64088	7	Sololá	717	San Juan la Laguna	12	San Juan la Laguna	7	Julio	2023-07-07T00:00:00	2024-11-08T04:00:00	8	Radiación solar	0
64089	7	Sololá	717	San Juan la Laguna	12	San Juan la Laguna	7	Julio	2023-07-07T00:00:00	2024-11-08T05:00:00	2	Temperatura media	16.2
64090	7	Sololá	717	San Juan la Laguna	12	San Juan la Laguna	7	Julio	2023-07-07T00:00:00	2024-11-08T05:00:00	4	Temperatura máxima	16.5
64091	7	Sololá	717	San Juan la Laguna	12	San Juan la Laguna	7	Julio	2023-07-07T00:00:00	2024-11-08T05:00:00	3	Temperatura mínima	16.1
64092	7	Sololá	717	San Juan la Laguna	12	San Juan la Laguna	7	Julio	2023-07-07T00:00:00	2024-11-08T05:00:00	5	Humedad	80
64093	7	Sololá	717	San Juan la Laguna	12	San Juan la Laguna	7	Julio	2023-07-07T00:00:00	2024-11-08T05:00:00	6	Velocidad del viento	0
64094	7	Sololá	717	San Juan la Laguna	12	San Juan la Laguna	7	Julio	2023-07-07T00:00:00	2024-11-08T05:00:00	7	Dirección del viento	0
64095	7	Sololá	717	San Juan la Laguna	12	San Juan la Laguna	7	Julio	2023-07-07T00:00:00	2024-11-08T05:00:00	1	Precipitación	0
64096	7	Sololá	717	San Juan la Laguna	12	San Juan la Laguna	7	Julio	2023-07-07T00:00:00	2024-11-08T05:00:00	8	Radiación solar	0
64097	7	Sololá	717	San Juan la Laguna	12	San Juan la Laguna	7	Julio	2023-07-07T00:00:00	2024-11-08T06:00:00	2	Temperatura media	15.8
64098	7	Sololá	717	San Juan la Laguna	12	San Juan la Laguna	7	Julio	2023-07-07T00:00:00	2024-11-08T06:00:00	4	Temperatura máxima	16.3
64099	7	Sololá	717	San Juan la Laguna	12	San Juan la Laguna	7	Julio	2023-07-07T00:00:00	2024-11-08T06:00:00	3	Temperatura mínima	15.7
64100	7	Sololá	717	San Juan la Laguna	12	San Juan la Laguna	7	Julio	2023-07-07T00:00:00	2024-11-08T06:00:00	5	Humedad	81
64101	7	Sololá	717	San Juan la Laguna	12	San Juan la Laguna	7	Julio	2023-07-07T00:00:00	2024-11-08T06:00:00	6	Velocidad del viento	1.6
64102	7	Sololá	717	San Juan la Laguna	12	San Juan la Laguna	7	Julio	2023-07-07T00:00:00	2024-11-08T06:00:00	7	Dirección del viento	1.61
64103	7	Sololá	717	San Juan la Laguna	12	San Juan la Laguna	7	Julio	2023-07-07T00:00:00	2024-11-08T06:00:00	1	Precipitación	0
64104	7	Sololá	717	San Juan la Laguna	12	San Juan la Laguna	7	Julio	2023-07-07T00:00:00	2024-11-08T06:00:00	8	Radiación solar	2
64105	7	Sololá	717	San Juan la Laguna	12	San Juan la Laguna	7	Julio	2023-07-07T00:00:00	2024-11-08T07:00:00	2	Temperatura media	17.1
64106	7	Sololá	717	San Juan la Laguna	12	San Juan la Laguna	7	Julio	2023-07-07T00:00:00	2024-11-08T07:00:00	4	Temperatura máxima	17.1
64107	7	Sololá	717	San Juan la Laguna	12	San Juan la Laguna	7	Julio	2023-07-07T00:00:00	2024-11-08T07:00:00	3	Temperatura mínima	15.8
64108	7	Sololá	717	San Juan la Laguna	12	San Juan la Laguna	7	Julio	2023-07-07T00:00:00	2024-11-08T07:00:00	5	Humedad	81
64109	7	Sololá	717	San Juan la Laguna	12	San Juan la Laguna	7	Julio	2023-07-07T00:00:00	2024-11-08T07:00:00	6	Velocidad del viento	0
64110	7	Sololá	717	San Juan la Laguna	12	San Juan la Laguna	7	Julio	2023-07-07T00:00:00	2024-11-08T07:00:00	7	Dirección del viento	0
64111	7	Sololá	717	San Juan la Laguna	12	San Juan la Laguna	7	Julio	2023-07-07T00:00:00	2024-11-08T07:00:00	1	Precipitación	0
64112	7	Sololá	717	San Juan la Laguna	12	San Juan la Laguna	7	Julio	2023-07-07T00:00:00	2024-11-08T07:00:00	8	Radiación solar	54
64113	7	Sololá	717	San Juan la Laguna	12	San Juan la Laguna	7	Julio	2023-07-07T00:00:00	2024-11-08T08:00:00	2	Temperatura media	20.6
64114	7	Sololá	717	San Juan la Laguna	12	San Juan la Laguna	7	Julio	2023-07-07T00:00:00	2024-11-08T08:00:00	4	Temperatura máxima	20.6
64115	7	Sololá	717	San Juan la Laguna	12	San Juan la Laguna	7	Julio	2023-07-07T00:00:00	2024-11-08T08:00:00	3	Temperatura mínima	17.1
64116	7	Sololá	717	San Juan la Laguna	12	San Juan la Laguna	7	Julio	2023-07-07T00:00:00	2024-11-08T08:00:00	5	Humedad	72
64117	7	Sololá	717	San Juan la Laguna	12	San Juan la Laguna	7	Julio	2023-07-07T00:00:00	2024-11-08T08:00:00	6	Velocidad del viento	0
64118	7	Sololá	717	San Juan la Laguna	12	San Juan la Laguna	7	Julio	2023-07-07T00:00:00	2024-11-08T08:00:00	7	Dirección del viento	0
64119	7	Sololá	717	San Juan la Laguna	12	San Juan la Laguna	7	Julio	2023-07-07T00:00:00	2024-11-08T08:00:00	1	Precipitación	0
64120	7	Sololá	717	San Juan la Laguna	12	San Juan la Laguna	7	Julio	2023-07-07T00:00:00	2024-11-08T08:00:00	8	Radiación solar	75
64121	7	Sololá	717	San Juan la Laguna	12	San Juan la Laguna	7	Julio	2023-07-07T00:00:00	2024-11-08T09:00:00	2	Temperatura media	23.7
64122	7	Sololá	717	San Juan la Laguna	12	San Juan la Laguna	7	Julio	2023-07-07T00:00:00	2024-11-08T09:00:00	4	Temperatura máxima	23.7
64123	7	Sololá	717	San Juan la Laguna	12	San Juan la Laguna	7	Julio	2023-07-07T00:00:00	2024-11-08T09:00:00	3	Temperatura mínima	20.6
64124	7	Sololá	717	San Juan la Laguna	12	San Juan la Laguna	7	Julio	2023-07-07T00:00:00	2024-11-08T09:00:00	5	Humedad	58
64125	7	Sololá	717	San Juan la Laguna	12	San Juan la Laguna	7	Julio	2023-07-07T00:00:00	2024-11-08T09:00:00	6	Velocidad del viento	0
64126	7	Sololá	717	San Juan la Laguna	12	San Juan la Laguna	7	Julio	2023-07-07T00:00:00	2024-11-08T09:00:00	7	Dirección del viento	0
64127	7	Sololá	717	San Juan la Laguna	12	San Juan la Laguna	7	Julio	2023-07-07T00:00:00	2024-11-08T09:00:00	1	Precipitación	0
64128	7	Sololá	717	San Juan la Laguna	12	San Juan la Laguna	7	Julio	2023-07-07T00:00:00	2024-11-08T09:00:00	8	Radiación solar	252
64129	7	Sololá	717	San Juan la Laguna	12	San Juan la Laguna	7	Julio	2023-07-07T00:00:00	2024-11-08T10:00:00	2	Temperatura media	25.2
64130	7	Sololá	717	San Juan la Laguna	12	San Juan la Laguna	7	Julio	2023-07-07T00:00:00	2024-11-08T10:00:00	4	Temperatura máxima	25.2
64131	7	Sololá	717	San Juan la Laguna	12	San Juan la Laguna	7	Julio	2023-07-07T00:00:00	2024-11-08T10:00:00	3	Temperatura mínima	23.7
64132	7	Sololá	717	San Juan la Laguna	12	San Juan la Laguna	7	Julio	2023-07-07T00:00:00	2024-11-08T10:00:00	5	Humedad	55
64133	7	Sololá	717	San Juan la Laguna	12	San Juan la Laguna	7	Julio	2023-07-07T00:00:00	2024-11-08T10:00:00	6	Velocidad del viento	1.6
64134	7	Sololá	717	San Juan la Laguna	12	San Juan la Laguna	7	Julio	2023-07-07T00:00:00	2024-11-08T10:00:00	7	Dirección del viento	1.61
64135	7	Sololá	717	San Juan la Laguna	12	San Juan la Laguna	7	Julio	2023-07-07T00:00:00	2024-11-08T10:00:00	1	Precipitación	0
64136	7	Sololá	717	San Juan la Laguna	12	San Juan la Laguna	7	Julio	2023-07-07T00:00:00	2024-11-08T10:00:00	8	Radiación solar	532
64137	7	Sololá	717	San Juan la Laguna	12	San Juan la Laguna	7	Julio	2023-07-07T00:00:00	2024-11-08T11:00:00	2	Temperatura media	25.4
64138	7	Sololá	717	San Juan la Laguna	12	San Juan la Laguna	7	Julio	2023-07-07T00:00:00	2024-11-08T11:00:00	4	Temperatura máxima	26.5
64139	7	Sololá	717	San Juan la Laguna	12	San Juan la Laguna	7	Julio	2023-07-07T00:00:00	2024-11-08T11:00:00	3	Temperatura mínima	25.2
64140	7	Sololá	717	San Juan la Laguna	12	San Juan la Laguna	7	Julio	2023-07-07T00:00:00	2024-11-08T11:00:00	5	Humedad	63
64141	7	Sololá	717	San Juan la Laguna	12	San Juan la Laguna	7	Julio	2023-07-07T00:00:00	2024-11-08T11:00:00	6	Velocidad del viento	4.8
64142	7	Sololá	717	San Juan la Laguna	12	San Juan la Laguna	7	Julio	2023-07-07T00:00:00	2024-11-08T11:00:00	7	Dirección del viento	4.83
64143	7	Sololá	717	San Juan la Laguna	12	San Juan la Laguna	7	Julio	2023-07-07T00:00:00	2024-11-08T11:00:00	1	Precipitación	0
64144	7	Sololá	717	San Juan la Laguna	12	San Juan la Laguna	7	Julio	2023-07-07T00:00:00	2024-11-08T11:00:00	8	Radiación solar	548
64145	7	Sololá	717	San Juan la Laguna	12	San Juan la Laguna	7	Julio	2023-07-07T00:00:00	2024-11-08T12:00:00	2	Temperatura media	24.3
64146	7	Sololá	717	San Juan la Laguna	12	San Juan la Laguna	7	Julio	2023-07-07T00:00:00	2024-11-08T12:00:00	4	Temperatura máxima	25.4
64147	7	Sololá	717	San Juan la Laguna	12	San Juan la Laguna	7	Julio	2023-07-07T00:00:00	2024-11-08T12:00:00	3	Temperatura mínima	23.9
64148	7	Sololá	717	San Juan la Laguna	12	San Juan la Laguna	7	Julio	2023-07-07T00:00:00	2024-11-08T12:00:00	5	Humedad	67
64149	7	Sololá	717	San Juan la Laguna	12	San Juan la Laguna	7	Julio	2023-07-07T00:00:00	2024-11-08T12:00:00	6	Velocidad del viento	9.7
64150	7	Sololá	717	San Juan la Laguna	12	San Juan la Laguna	7	Julio	2023-07-07T00:00:00	2024-11-08T12:00:00	7	Dirección del viento	9.66
64151	7	Sololá	717	San Juan la Laguna	12	San Juan la Laguna	7	Julio	2023-07-07T00:00:00	2024-11-08T12:00:00	1	Precipitación	0
64152	7	Sololá	717	San Juan la Laguna	12	San Juan la Laguna	7	Julio	2023-07-07T00:00:00	2024-11-08T12:00:00	8	Radiación solar	541
64153	7	Sololá	717	San Juan la Laguna	12	San Juan la Laguna	7	Julio	2023-07-07T00:00:00	2024-11-08T13:00:00	2	Temperatura media	23.3
64154	7	Sololá	717	San Juan la Laguna	12	San Juan la Laguna	7	Julio	2023-07-07T00:00:00	2024-11-08T13:00:00	4	Temperatura máxima	24.7
64155	7	Sololá	717	San Juan la Laguna	12	San Juan la Laguna	7	Julio	2023-07-07T00:00:00	2024-11-08T13:00:00	3	Temperatura mínima	22.8
64156	7	Sololá	717	San Juan la Laguna	12	San Juan la Laguna	7	Julio	2023-07-07T00:00:00	2024-11-08T13:00:00	5	Humedad	70
64157	7	Sololá	717	San Juan la Laguna	12	San Juan la Laguna	7	Julio	2023-07-07T00:00:00	2024-11-08T13:00:00	6	Velocidad del viento	4.8
64158	7	Sololá	717	San Juan la Laguna	12	San Juan la Laguna	7	Julio	2023-07-07T00:00:00	2024-11-08T13:00:00	7	Dirección del viento	4.83
64159	7	Sololá	717	San Juan la Laguna	12	San Juan la Laguna	7	Julio	2023-07-07T00:00:00	2024-11-08T13:00:00	1	Precipitación	0
64160	7	Sololá	717	San Juan la Laguna	12	San Juan la Laguna	7	Julio	2023-07-07T00:00:00	2024-11-08T13:00:00	8	Radiación solar	529
64161	7	Sololá	717	San Juan la Laguna	12	San Juan la Laguna	7	Julio	2023-07-07T00:00:00	2024-11-08T14:00:00	2	Temperatura media	22.7
64162	7	Sololá	717	San Juan la Laguna	12	San Juan la Laguna	7	Julio	2023-07-07T00:00:00	2024-11-08T14:00:00	4	Temperatura máxima	24.9
64163	7	Sololá	717	San Juan la Laguna	12	San Juan la Laguna	7	Julio	2023-07-07T00:00:00	2024-11-08T14:00:00	3	Temperatura mínima	22.6
64164	7	Sololá	717	San Juan la Laguna	12	San Juan la Laguna	7	Julio	2023-07-07T00:00:00	2024-11-08T14:00:00	5	Humedad	73
64165	7	Sololá	717	San Juan la Laguna	12	San Juan la Laguna	7	Julio	2023-07-07T00:00:00	2024-11-08T14:00:00	6	Velocidad del viento	1.6
64166	7	Sololá	717	San Juan la Laguna	12	San Juan la Laguna	7	Julio	2023-07-07T00:00:00	2024-11-08T14:00:00	7	Dirección del viento	1.61
64167	7	Sololá	717	San Juan la Laguna	12	San Juan la Laguna	7	Julio	2023-07-07T00:00:00	2024-11-08T14:00:00	1	Precipitación	0
64168	7	Sololá	717	San Juan la Laguna	12	San Juan la Laguna	7	Julio	2023-07-07T00:00:00	2024-11-08T14:00:00	8	Radiación solar	677
64169	7	Sololá	717	San Juan la Laguna	12	San Juan la Laguna	7	Julio	2023-07-07T00:00:00	2024-11-08T15:00:00	2	Temperatura media	20.7
64170	7	Sololá	717	San Juan la Laguna	12	San Juan la Laguna	7	Julio	2023-07-07T00:00:00	2024-11-08T15:00:00	4	Temperatura máxima	22.7
64171	7	Sololá	717	San Juan la Laguna	12	San Juan la Laguna	7	Julio	2023-07-07T00:00:00	2024-11-08T15:00:00	3	Temperatura mínima	20.6
64172	7	Sololá	717	San Juan la Laguna	12	San Juan la Laguna	7	Julio	2023-07-07T00:00:00	2024-11-08T15:00:00	5	Humedad	78
64173	7	Sololá	717	San Juan la Laguna	12	San Juan la Laguna	7	Julio	2023-07-07T00:00:00	2024-11-08T15:00:00	6	Velocidad del viento	3.2
64174	7	Sololá	717	San Juan la Laguna	12	San Juan la Laguna	7	Julio	2023-07-07T00:00:00	2024-11-08T15:00:00	7	Dirección del viento	3.22
64175	7	Sololá	717	San Juan la Laguna	12	San Juan la Laguna	7	Julio	2023-07-07T00:00:00	2024-11-08T15:00:00	1	Precipitación	0
64176	7	Sololá	717	San Juan la Laguna	12	San Juan la Laguna	7	Julio	2023-07-07T00:00:00	2024-11-08T15:00:00	8	Radiación solar	664
64177	7	Sololá	717	San Juan la Laguna	12	San Juan la Laguna	7	Julio	2023-07-07T00:00:00	2024-11-08T16:00:00	2	Temperatura media	18.9
64178	7	Sololá	717	San Juan la Laguna	12	San Juan la Laguna	7	Julio	2023-07-07T00:00:00	2024-11-08T16:00:00	4	Temperatura máxima	20.6
64179	7	Sololá	717	San Juan la Laguna	12	San Juan la Laguna	7	Julio	2023-07-07T00:00:00	2024-11-08T16:00:00	3	Temperatura mínima	18.8
64180	7	Sololá	717	San Juan la Laguna	12	San Juan la Laguna	7	Julio	2023-07-07T00:00:00	2024-11-08T16:00:00	5	Humedad	85
64181	7	Sololá	717	San Juan la Laguna	12	San Juan la Laguna	7	Julio	2023-07-07T00:00:00	2024-11-08T16:00:00	6	Velocidad del viento	6.4
64182	7	Sololá	717	San Juan la Laguna	12	San Juan la Laguna	7	Julio	2023-07-07T00:00:00	2024-11-08T16:00:00	7	Dirección del viento	6.44
64183	7	Sololá	717	San Juan la Laguna	12	San Juan la Laguna	7	Julio	2023-07-07T00:00:00	2024-11-08T16:00:00	1	Precipitación	0
64184	7	Sololá	717	San Juan la Laguna	12	San Juan la Laguna	7	Julio	2023-07-07T00:00:00	2024-11-08T16:00:00	8	Radiación solar	511
64185	7	Sololá	717	San Juan la Laguna	12	San Juan la Laguna	7	Julio	2023-07-07T00:00:00	2024-11-08T17:00:00	2	Temperatura media	18.2
64186	7	Sololá	717	San Juan la Laguna	12	San Juan la Laguna	7	Julio	2023-07-07T00:00:00	2024-11-08T17:00:00	4	Temperatura máxima	19
64187	7	Sololá	717	San Juan la Laguna	12	San Juan la Laguna	7	Julio	2023-07-07T00:00:00	2024-11-08T17:00:00	3	Temperatura mínima	18.2
64188	7	Sololá	717	San Juan la Laguna	12	San Juan la Laguna	7	Julio	2023-07-07T00:00:00	2024-11-08T17:00:00	5	Humedad	91
64189	7	Sololá	717	San Juan la Laguna	12	San Juan la Laguna	7	Julio	2023-07-07T00:00:00	2024-11-08T17:00:00	6	Velocidad del viento	0
64190	7	Sololá	717	San Juan la Laguna	12	San Juan la Laguna	7	Julio	2023-07-07T00:00:00	2024-11-08T17:00:00	7	Dirección del viento	0
64191	7	Sololá	717	San Juan la Laguna	12	San Juan la Laguna	7	Julio	2023-07-07T00:00:00	2024-11-08T17:00:00	1	Precipitación	8.2
64192	7	Sololá	717	San Juan la Laguna	12	San Juan la Laguna	7	Julio	2023-07-07T00:00:00	2024-11-08T17:00:00	8	Radiación solar	269
64193	7	Sololá	717	San Juan la Laguna	12	San Juan la Laguna	7	Julio	2023-07-07T00:00:00	2024-11-08T18:00:00	2	Temperatura media	18
64194	7	Sololá	717	San Juan la Laguna	12	San Juan la Laguna	7	Julio	2023-07-07T00:00:00	2024-11-08T18:00:00	4	Temperatura máxima	18.3
64195	7	Sololá	717	San Juan la Laguna	12	San Juan la Laguna	7	Julio	2023-07-07T00:00:00	2024-11-08T18:00:00	3	Temperatura mínima	17.9
64196	7	Sololá	717	San Juan la Laguna	12	San Juan la Laguna	7	Julio	2023-07-07T00:00:00	2024-11-08T18:00:00	5	Humedad	91
64197	7	Sololá	717	San Juan la Laguna	12	San Juan la Laguna	7	Julio	2023-07-07T00:00:00	2024-11-08T18:00:00	6	Velocidad del viento	0
64198	7	Sololá	717	San Juan la Laguna	12	San Juan la Laguna	7	Julio	2023-07-07T00:00:00	2024-11-08T18:00:00	7	Dirección del viento	0
64199	7	Sololá	717	San Juan la Laguna	12	San Juan la Laguna	7	Julio	2023-07-07T00:00:00	2024-11-08T18:00:00	1	Precipitación	3
64200	7	Sololá	717	San Juan la Laguna	12	San Juan la Laguna	7	Julio	2023-07-07T00:00:00	2024-11-08T18:00:00	8	Radiación solar	116
64201	7	Sololá	717	San Juan la Laguna	12	San Juan la Laguna	7	Julio	2023-07-07T00:00:00	2024-11-08T19:00:00	2	Temperatura media	17.9
64202	7	Sololá	717	San Juan la Laguna	12	San Juan la Laguna	7	Julio	2023-07-07T00:00:00	2024-11-08T19:00:00	4	Temperatura máxima	18.1
64203	7	Sololá	717	San Juan la Laguna	12	San Juan la Laguna	7	Julio	2023-07-07T00:00:00	2024-11-08T19:00:00	3	Temperatura mínima	17.8
64204	7	Sololá	717	San Juan la Laguna	12	San Juan la Laguna	7	Julio	2023-07-07T00:00:00	2024-11-08T19:00:00	5	Humedad	91
64205	7	Sololá	717	San Juan la Laguna	12	San Juan la Laguna	7	Julio	2023-07-07T00:00:00	2024-11-08T19:00:00	6	Velocidad del viento	0
64206	7	Sololá	717	San Juan la Laguna	12	San Juan la Laguna	7	Julio	2023-07-07T00:00:00	2024-11-08T19:00:00	7	Dirección del viento	0
64207	7	Sololá	717	San Juan la Laguna	12	San Juan la Laguna	7	Julio	2023-07-07T00:00:00	2024-11-08T19:00:00	1	Precipitación	0.8
64208	7	Sololá	717	San Juan la Laguna	12	San Juan la Laguna	7	Julio	2023-07-07T00:00:00	2024-11-08T19:00:00	8	Radiación solar	0
64209	7	Sololá	717	San Juan la Laguna	12	San Juan la Laguna	7	Julio	2023-07-07T00:00:00	2024-11-08T20:00:00	2	Temperatura media	18
64210	7	Sololá	717	San Juan la Laguna	12	San Juan la Laguna	7	Julio	2023-07-07T00:00:00	2024-11-08T20:00:00	4	Temperatura máxima	18.1
64211	7	Sololá	717	San Juan la Laguna	12	San Juan la Laguna	7	Julio	2023-07-07T00:00:00	2024-11-08T20:00:00	3	Temperatura mínima	17.8
64212	7	Sololá	717	San Juan la Laguna	12	San Juan la Laguna	7	Julio	2023-07-07T00:00:00	2024-11-08T20:00:00	5	Humedad	92
64213	7	Sololá	717	San Juan la Laguna	12	San Juan la Laguna	7	Julio	2023-07-07T00:00:00	2024-11-08T20:00:00	6	Velocidad del viento	0
64214	7	Sololá	717	San Juan la Laguna	12	San Juan la Laguna	7	Julio	2023-07-07T00:00:00	2024-11-08T20:00:00	7	Dirección del viento	0
64215	7	Sololá	717	San Juan la Laguna	12	San Juan la Laguna	7	Julio	2023-07-07T00:00:00	2024-11-08T20:00:00	1	Precipitación	0.2
64216	7	Sololá	717	San Juan la Laguna	12	San Juan la Laguna	7	Julio	2023-07-07T00:00:00	2024-11-08T20:00:00	8	Radiación solar	0
64217	7	Sololá	717	San Juan la Laguna	12	San Juan la Laguna	7	Julio	2023-07-07T00:00:00	2024-11-08T21:00:00	2	Temperatura media	17.9
64218	7	Sololá	717	San Juan la Laguna	12	San Juan la Laguna	7	Julio	2023-07-07T00:00:00	2024-11-08T21:00:00	4	Temperatura máxima	18.1
64219	7	Sololá	717	San Juan la Laguna	12	San Juan la Laguna	7	Julio	2023-07-07T00:00:00	2024-11-08T21:00:00	3	Temperatura mínima	17.8
64220	7	Sololá	717	San Juan la Laguna	12	San Juan la Laguna	7	Julio	2023-07-07T00:00:00	2024-11-08T21:00:00	5	Humedad	91
64221	7	Sololá	717	San Juan la Laguna	12	San Juan la Laguna	7	Julio	2023-07-07T00:00:00	2024-11-08T21:00:00	6	Velocidad del viento	0
64222	7	Sololá	717	San Juan la Laguna	12	San Juan la Laguna	7	Julio	2023-07-07T00:00:00	2024-11-08T21:00:00	7	Dirección del viento	0
64223	7	Sololá	717	San Juan la Laguna	12	San Juan la Laguna	7	Julio	2023-07-07T00:00:00	2024-11-08T21:00:00	1	Precipitación	0
64224	7	Sololá	717	San Juan la Laguna	12	San Juan la Laguna	7	Julio	2023-07-07T00:00:00	2024-11-08T21:00:00	8	Radiación solar	0
64225	7	Sololá	717	San Juan la Laguna	12	San Juan la Laguna	7	Julio	2023-07-07T00:00:00	2024-11-08T22:00:00	2	Temperatura media	17.4
64226	7	Sololá	717	San Juan la Laguna	12	San Juan la Laguna	7	Julio	2023-07-07T00:00:00	2024-11-08T22:00:00	4	Temperatura máxima	17.9
64227	7	Sololá	717	San Juan la Laguna	12	San Juan la Laguna	7	Julio	2023-07-07T00:00:00	2024-11-08T22:00:00	3	Temperatura mínima	17.4
64228	7	Sololá	717	San Juan la Laguna	12	San Juan la Laguna	7	Julio	2023-07-07T00:00:00	2024-11-08T22:00:00	5	Humedad	89
64229	7	Sololá	717	San Juan la Laguna	12	San Juan la Laguna	7	Julio	2023-07-07T00:00:00	2024-11-08T22:00:00	6	Velocidad del viento	0
64230	7	Sololá	717	San Juan la Laguna	12	San Juan la Laguna	7	Julio	2023-07-07T00:00:00	2024-11-08T22:00:00	7	Dirección del viento	0
64231	7	Sololá	717	San Juan la Laguna	12	San Juan la Laguna	7	Julio	2023-07-07T00:00:00	2024-11-08T22:00:00	1	Precipitación	0
64232	7	Sololá	717	San Juan la Laguna	12	San Juan la Laguna	7	Julio	2023-07-07T00:00:00	2024-11-08T22:00:00	8	Radiación solar	0
64233	7	Sololá	717	San Juan la Laguna	12	San Juan la Laguna	7	Julio	2023-07-07T00:00:00	2024-11-08T23:00:00	2	Temperatura media	17.2
64234	7	Sololá	717	San Juan la Laguna	12	San Juan la Laguna	7	Julio	2023-07-07T00:00:00	2024-11-08T23:00:00	4	Temperatura máxima	17.6
64235	7	Sololá	717	San Juan la Laguna	12	San Juan la Laguna	7	Julio	2023-07-07T00:00:00	2024-11-08T23:00:00	3	Temperatura mínima	17.2
64236	7	Sololá	717	San Juan la Laguna	12	San Juan la Laguna	7	Julio	2023-07-07T00:00:00	2024-11-08T23:00:00	5	Humedad	91
64237	7	Sololá	717	San Juan la Laguna	12	San Juan la Laguna	7	Julio	2023-07-07T00:00:00	2024-11-08T23:00:00	6	Velocidad del viento	0
64238	7	Sololá	717	San Juan la Laguna	12	San Juan la Laguna	7	Julio	2023-07-07T00:00:00	2024-11-08T23:00:00	7	Dirección del viento	0
64239	7	Sololá	717	San Juan la Laguna	12	San Juan la Laguna	7	Julio	2023-07-07T00:00:00	2024-11-08T23:00:00	1	Precipitación	0
64240	7	Sololá	717	San Juan la Laguna	12	San Juan la Laguna	7	Julio	2023-07-07T00:00:00	2024-11-08T23:00:00	8	Radiación solar	0
64241	7	Sololá	717	San Juan la Laguna	12	San Juan la Laguna	7	Julio	2023-08-07T00:00:00	2024-11-08T00:00:00	2	Temperatura media	17
64242	7	Sololá	717	San Juan la Laguna	12	San Juan la Laguna	7	Julio	2023-08-07T00:00:00	2024-11-08T00:00:00	4	Temperatura máxima	17.2
64243	7	Sololá	717	San Juan la Laguna	12	San Juan la Laguna	7	Julio	2023-08-07T00:00:00	2024-11-08T00:00:00	3	Temperatura mínima	16.9
64244	7	Sololá	717	San Juan la Laguna	12	San Juan la Laguna	7	Julio	2023-08-07T00:00:00	2024-11-08T00:00:00	5	Humedad	89
64245	7	Sololá	717	San Juan la Laguna	12	San Juan la Laguna	7	Julio	2023-08-07T00:00:00	2024-11-08T00:00:00	6	Velocidad del viento	0
64246	7	Sololá	717	San Juan la Laguna	12	San Juan la Laguna	7	Julio	2023-08-07T00:00:00	2024-11-08T00:00:00	7	Dirección del viento	0
64247	7	Sololá	717	San Juan la Laguna	12	San Juan la Laguna	7	Julio	2023-08-07T00:00:00	2024-11-08T00:00:00	1	Precipitación	0
64248	7	Sololá	717	San Juan la Laguna	12	San Juan la Laguna	7	Julio	2023-08-07T00:00:00	2024-11-08T00:00:00	8	Radiación solar	0
64249	7	Sololá	717	San Juan la Laguna	12	San Juan la Laguna	7	Julio	2023-08-07T00:00:00	2024-11-08T01:00:00	2	Temperatura media	17.2
64250	7	Sololá	717	San Juan la Laguna	12	San Juan la Laguna	7	Julio	2023-08-07T00:00:00	2024-11-08T01:00:00	4	Temperatura máxima	17.2
64251	7	Sololá	717	San Juan la Laguna	12	San Juan la Laguna	7	Julio	2023-08-07T00:00:00	2024-11-08T01:00:00	3	Temperatura mínima	17
64252	7	Sololá	717	San Juan la Laguna	12	San Juan la Laguna	7	Julio	2023-08-07T00:00:00	2024-11-08T01:00:00	5	Humedad	88
64253	7	Sololá	717	San Juan la Laguna	12	San Juan la Laguna	7	Julio	2023-08-07T00:00:00	2024-11-08T01:00:00	6	Velocidad del viento	0
64254	7	Sololá	717	San Juan la Laguna	12	San Juan la Laguna	7	Julio	2023-08-07T00:00:00	2024-11-08T01:00:00	7	Dirección del viento	0
64255	7	Sololá	717	San Juan la Laguna	12	San Juan la Laguna	7	Julio	2023-08-07T00:00:00	2024-11-08T01:00:00	1	Precipitación	0
64256	7	Sololá	717	San Juan la Laguna	12	San Juan la Laguna	7	Julio	2023-08-07T00:00:00	2024-11-08T01:00:00	8	Radiación solar	0
64257	7	Sololá	717	San Juan la Laguna	12	San Juan la Laguna	7	Julio	2023-08-07T00:00:00	2024-11-08T02:00:00	2	Temperatura media	17.3
64258	7	Sololá	717	San Juan la Laguna	12	San Juan la Laguna	7	Julio	2023-08-07T00:00:00	2024-11-08T02:00:00	4	Temperatura máxima	17.3
64259	7	Sololá	717	San Juan la Laguna	12	San Juan la Laguna	7	Julio	2023-08-07T00:00:00	2024-11-08T02:00:00	3	Temperatura mínima	17.1
64260	7	Sololá	717	San Juan la Laguna	12	San Juan la Laguna	7	Julio	2023-08-07T00:00:00	2024-11-08T02:00:00	5	Humedad	88
64261	7	Sololá	717	San Juan la Laguna	12	San Juan la Laguna	7	Julio	2023-08-07T00:00:00	2024-11-08T02:00:00	6	Velocidad del viento	0
64262	7	Sololá	717	San Juan la Laguna	12	San Juan la Laguna	7	Julio	2023-08-07T00:00:00	2024-11-08T02:00:00	7	Dirección del viento	0
64263	7	Sololá	717	San Juan la Laguna	12	San Juan la Laguna	7	Julio	2023-08-07T00:00:00	2024-11-08T02:00:00	1	Precipitación	0
64264	7	Sololá	717	San Juan la Laguna	12	San Juan la Laguna	7	Julio	2023-08-07T00:00:00	2024-11-08T02:00:00	8	Radiación solar	0
64265	7	Sololá	717	San Juan la Laguna	12	San Juan la Laguna	7	Julio	2023-08-07T00:00:00	2024-11-08T03:00:00	2	Temperatura media	17.3
64266	7	Sololá	717	San Juan la Laguna	12	San Juan la Laguna	7	Julio	2023-08-07T00:00:00	2024-11-08T03:00:00	4	Temperatura máxima	17.4
64267	7	Sololá	717	San Juan la Laguna	12	San Juan la Laguna	7	Julio	2023-08-07T00:00:00	2024-11-08T03:00:00	3	Temperatura mínima	17.2
64268	7	Sololá	717	San Juan la Laguna	12	San Juan la Laguna	7	Julio	2023-08-07T00:00:00	2024-11-08T03:00:00	5	Humedad	90
64269	7	Sololá	717	San Juan la Laguna	12	San Juan la Laguna	7	Julio	2023-08-07T00:00:00	2024-11-08T03:00:00	6	Velocidad del viento	0
64270	7	Sololá	717	San Juan la Laguna	12	San Juan la Laguna	7	Julio	2023-08-07T00:00:00	2024-11-08T03:00:00	7	Dirección del viento	0
64271	7	Sololá	717	San Juan la Laguna	12	San Juan la Laguna	7	Julio	2023-08-07T00:00:00	2024-11-08T03:00:00	1	Precipitación	0.2
64272	7	Sololá	717	San Juan la Laguna	12	San Juan la Laguna	7	Julio	2023-08-07T00:00:00	2024-11-08T03:00:00	8	Radiación solar	0
64273	7	Sololá	717	San Juan la Laguna	12	San Juan la Laguna	7	Julio	2023-08-07T00:00:00	2024-11-08T04:00:00	2	Temperatura media	17.3
64274	7	Sololá	717	San Juan la Laguna	12	San Juan la Laguna	7	Julio	2023-08-07T00:00:00	2024-11-08T04:00:00	4	Temperatura máxima	17.3
64275	7	Sololá	717	San Juan la Laguna	12	San Juan la Laguna	7	Julio	2023-08-07T00:00:00	2024-11-08T04:00:00	3	Temperatura mínima	17.1
64276	7	Sololá	717	San Juan la Laguna	12	San Juan la Laguna	7	Julio	2023-08-07T00:00:00	2024-11-08T04:00:00	5	Humedad	90
64277	7	Sololá	717	San Juan la Laguna	12	San Juan la Laguna	7	Julio	2023-08-07T00:00:00	2024-11-08T04:00:00	6	Velocidad del viento	0
64278	7	Sololá	717	San Juan la Laguna	12	San Juan la Laguna	7	Julio	2023-08-07T00:00:00	2024-11-08T04:00:00	7	Dirección del viento	0
64279	7	Sololá	717	San Juan la Laguna	12	San Juan la Laguna	7	Julio	2023-08-07T00:00:00	2024-11-08T04:00:00	1	Precipitación	0
64280	7	Sololá	717	San Juan la Laguna	12	San Juan la Laguna	7	Julio	2023-08-07T00:00:00	2024-11-08T04:00:00	8	Radiación solar	0
64281	7	Sololá	717	San Juan la Laguna	12	San Juan la Laguna	7	Julio	2023-08-07T00:00:00	2024-11-08T05:00:00	2	Temperatura media	16.9
64282	7	Sololá	717	San Juan la Laguna	12	San Juan la Laguna	7	Julio	2023-08-07T00:00:00	2024-11-08T05:00:00	4	Temperatura máxima	17.3
64283	7	Sololá	717	San Juan la Laguna	12	San Juan la Laguna	7	Julio	2023-08-07T00:00:00	2024-11-08T05:00:00	3	Temperatura mínima	16.8
64284	7	Sololá	717	San Juan la Laguna	12	San Juan la Laguna	7	Julio	2023-08-07T00:00:00	2024-11-08T05:00:00	5	Humedad	91
64285	7	Sololá	717	San Juan la Laguna	12	San Juan la Laguna	7	Julio	2023-08-07T00:00:00	2024-11-08T05:00:00	6	Velocidad del viento	0
64286	7	Sololá	717	San Juan la Laguna	12	San Juan la Laguna	7	Julio	2023-08-07T00:00:00	2024-11-08T05:00:00	7	Dirección del viento	0
64287	7	Sololá	717	San Juan la Laguna	12	San Juan la Laguna	7	Julio	2023-08-07T00:00:00	2024-11-08T05:00:00	1	Precipitación	0
64288	7	Sololá	717	San Juan la Laguna	12	San Juan la Laguna	7	Julio	2023-08-07T00:00:00	2024-11-08T05:00:00	8	Radiación solar	0
64289	7	Sololá	717	San Juan la Laguna	12	San Juan la Laguna	7	Julio	2023-08-07T00:00:00	2024-11-08T06:00:00	2	Temperatura media	16.7
64290	7	Sololá	717	San Juan la Laguna	12	San Juan la Laguna	7	Julio	2023-08-07T00:00:00	2024-11-08T06:00:00	4	Temperatura máxima	17
64291	7	Sololá	717	San Juan la Laguna	12	San Juan la Laguna	7	Julio	2023-08-07T00:00:00	2024-11-08T06:00:00	3	Temperatura mínima	16.7
64292	7	Sololá	717	San Juan la Laguna	12	San Juan la Laguna	7	Julio	2023-08-07T00:00:00	2024-11-08T06:00:00	5	Humedad	89
64293	7	Sololá	717	San Juan la Laguna	12	San Juan la Laguna	7	Julio	2023-08-07T00:00:00	2024-11-08T06:00:00	6	Velocidad del viento	0
64294	7	Sololá	717	San Juan la Laguna	12	San Juan la Laguna	7	Julio	2023-08-07T00:00:00	2024-11-08T06:00:00	7	Dirección del viento	0
64295	7	Sololá	717	San Juan la Laguna	12	San Juan la Laguna	7	Julio	2023-08-07T00:00:00	2024-11-08T06:00:00	1	Precipitación	0
64296	7	Sololá	717	San Juan la Laguna	12	San Juan la Laguna	7	Julio	2023-08-07T00:00:00	2024-11-08T06:00:00	8	Radiación solar	1
64297	7	Sololá	717	San Juan la Laguna	12	San Juan la Laguna	7	Julio	2023-08-07T00:00:00	2024-11-08T07:00:00	2	Temperatura media	17.5
64298	7	Sololá	717	San Juan la Laguna	12	San Juan la Laguna	7	Julio	2023-08-07T00:00:00	2024-11-08T07:00:00	4	Temperatura máxima	17.6
64299	7	Sololá	717	San Juan la Laguna	12	San Juan la Laguna	7	Julio	2023-08-07T00:00:00	2024-11-08T07:00:00	3	Temperatura mínima	16.7
64300	7	Sololá	717	San Juan la Laguna	12	San Juan la Laguna	7	Julio	2023-08-07T00:00:00	2024-11-08T07:00:00	5	Humedad	87
64301	7	Sololá	717	San Juan la Laguna	12	San Juan la Laguna	7	Julio	2023-08-07T00:00:00	2024-11-08T07:00:00	6	Velocidad del viento	0
64302	7	Sololá	717	San Juan la Laguna	12	San Juan la Laguna	7	Julio	2023-08-07T00:00:00	2024-11-08T07:00:00	7	Dirección del viento	0
64303	7	Sololá	717	San Juan la Laguna	12	San Juan la Laguna	7	Julio	2023-08-07T00:00:00	2024-11-08T07:00:00	1	Precipitación	0
64304	7	Sololá	717	San Juan la Laguna	12	San Juan la Laguna	7	Julio	2023-08-07T00:00:00	2024-11-08T07:00:00	8	Radiación solar	63
64305	7	Sololá	717	San Juan la Laguna	12	San Juan la Laguna	7	Julio	2023-08-07T00:00:00	2024-11-08T08:00:00	2	Temperatura media	19.7
64306	7	Sololá	717	San Juan la Laguna	12	San Juan la Laguna	7	Julio	2023-08-07T00:00:00	2024-11-08T08:00:00	4	Temperatura máxima	19.7
64307	7	Sololá	717	San Juan la Laguna	12	San Juan la Laguna	7	Julio	2023-08-07T00:00:00	2024-11-08T08:00:00	3	Temperatura mínima	17.5
64308	7	Sololá	717	San Juan la Laguna	12	San Juan la Laguna	7	Julio	2023-08-07T00:00:00	2024-11-08T08:00:00	5	Humedad	82
64309	7	Sololá	717	San Juan la Laguna	12	San Juan la Laguna	7	Julio	2023-08-07T00:00:00	2024-11-08T08:00:00	6	Velocidad del viento	0
64310	7	Sololá	717	San Juan la Laguna	12	San Juan la Laguna	7	Julio	2023-08-07T00:00:00	2024-11-08T08:00:00	7	Dirección del viento	0
64311	7	Sololá	717	San Juan la Laguna	12	San Juan la Laguna	7	Julio	2023-08-07T00:00:00	2024-11-08T08:00:00	1	Precipitación	0
64312	7	Sololá	717	San Juan la Laguna	12	San Juan la Laguna	7	Julio	2023-08-07T00:00:00	2024-11-08T08:00:00	8	Radiación solar	221
64313	7	Sololá	717	San Juan la Laguna	12	San Juan la Laguna	7	Julio	2023-08-07T00:00:00	2024-11-08T09:00:00	2	Temperatura media	20.2
64314	7	Sololá	717	San Juan la Laguna	12	San Juan la Laguna	7	Julio	2023-08-07T00:00:00	2024-11-08T09:00:00	4	Temperatura máxima	20.2
64315	7	Sololá	717	San Juan la Laguna	12	San Juan la Laguna	7	Julio	2023-08-07T00:00:00	2024-11-08T09:00:00	3	Temperatura mínima	19.6
64316	7	Sololá	717	San Juan la Laguna	12	San Juan la Laguna	7	Julio	2023-08-07T00:00:00	2024-11-08T09:00:00	5	Humedad	79
64317	7	Sololá	717	San Juan la Laguna	12	San Juan la Laguna	7	Julio	2023-08-07T00:00:00	2024-11-08T09:00:00	6	Velocidad del viento	0
64318	7	Sololá	717	San Juan la Laguna	12	San Juan la Laguna	7	Julio	2023-08-07T00:00:00	2024-11-08T09:00:00	7	Dirección del viento	0
64319	7	Sololá	717	San Juan la Laguna	12	San Juan la Laguna	7	Julio	2023-08-07T00:00:00	2024-11-08T09:00:00	1	Precipitación	0
64320	7	Sololá	717	San Juan la Laguna	12	San Juan la Laguna	7	Julio	2023-08-07T00:00:00	2024-11-08T09:00:00	8	Radiación solar	354
64321	7	Sololá	717	San Juan la Laguna	12	San Juan la Laguna	7	Julio	2023-08-07T00:00:00	2024-11-08T10:00:00	2	Temperatura media	21.6
64322	7	Sololá	717	San Juan la Laguna	12	San Juan la Laguna	7	Julio	2023-08-07T00:00:00	2024-11-08T10:00:00	4	Temperatura máxima	21.6
64323	7	Sololá	717	San Juan la Laguna	12	San Juan la Laguna	7	Julio	2023-08-07T00:00:00	2024-11-08T10:00:00	3	Temperatura mínima	20.2
64324	7	Sololá	717	San Juan la Laguna	12	San Juan la Laguna	7	Julio	2023-08-07T00:00:00	2024-11-08T10:00:00	5	Humedad	76
64325	7	Sololá	717	San Juan la Laguna	12	San Juan la Laguna	7	Julio	2023-08-07T00:00:00	2024-11-08T10:00:00	6	Velocidad del viento	0
64326	7	Sololá	717	San Juan la Laguna	12	San Juan la Laguna	7	Julio	2023-08-07T00:00:00	2024-11-08T10:00:00	7	Dirección del viento	0
64327	7	Sololá	717	San Juan la Laguna	12	San Juan la Laguna	7	Julio	2023-08-07T00:00:00	2024-11-08T10:00:00	1	Precipitación	0
64328	7	Sololá	717	San Juan la Laguna	12	San Juan la Laguna	7	Julio	2023-08-07T00:00:00	2024-11-08T10:00:00	8	Radiación solar	728
64329	7	Sololá	717	San Juan la Laguna	12	San Juan la Laguna	7	Julio	2023-08-07T00:00:00	2024-11-08T11:00:00	2	Temperatura media	23.1
64330	7	Sololá	717	San Juan la Laguna	12	San Juan la Laguna	7	Julio	2023-08-07T00:00:00	2024-11-08T11:00:00	4	Temperatura máxima	23.2
64331	7	Sololá	717	San Juan la Laguna	12	San Juan la Laguna	7	Julio	2023-08-07T00:00:00	2024-11-08T11:00:00	3	Temperatura mínima	21.6
64332	7	Sololá	717	San Juan la Laguna	12	San Juan la Laguna	7	Julio	2023-08-07T00:00:00	2024-11-08T11:00:00	5	Humedad	70
64333	7	Sololá	717	San Juan la Laguna	12	San Juan la Laguna	7	Julio	2023-08-07T00:00:00	2024-11-08T11:00:00	6	Velocidad del viento	4.8
64334	7	Sololá	717	San Juan la Laguna	12	San Juan la Laguna	7	Julio	2023-08-07T00:00:00	2024-11-08T11:00:00	7	Dirección del viento	4.83
64335	7	Sololá	717	San Juan la Laguna	12	San Juan la Laguna	7	Julio	2023-08-07T00:00:00	2024-11-08T11:00:00	1	Precipitación	0
64336	7	Sololá	717	San Juan la Laguna	12	San Juan la Laguna	7	Julio	2023-08-07T00:00:00	2024-11-08T11:00:00	8	Radiación solar	873
64337	7	Sololá	717	San Juan la Laguna	12	San Juan la Laguna	7	Julio	2023-08-07T00:00:00	2024-11-08T12:00:00	2	Temperatura media	22.8
64338	7	Sololá	717	San Juan la Laguna	12	San Juan la Laguna	7	Julio	2023-08-07T00:00:00	2024-11-08T12:00:00	4	Temperatura máxima	23.3
64339	7	Sololá	717	San Juan la Laguna	12	San Juan la Laguna	7	Julio	2023-08-07T00:00:00	2024-11-08T12:00:00	3	Temperatura mínima	22.7
64340	7	Sololá	717	San Juan la Laguna	12	San Juan la Laguna	7	Julio	2023-08-07T00:00:00	2024-11-08T12:00:00	5	Humedad	70
64341	7	Sololá	717	San Juan la Laguna	12	San Juan la Laguna	7	Julio	2023-08-07T00:00:00	2024-11-08T12:00:00	6	Velocidad del viento	4.8
64342	7	Sololá	717	San Juan la Laguna	12	San Juan la Laguna	7	Julio	2023-08-07T00:00:00	2024-11-08T12:00:00	7	Dirección del viento	4.83
64343	7	Sololá	717	San Juan la Laguna	12	San Juan la Laguna	7	Julio	2023-08-07T00:00:00	2024-11-08T12:00:00	1	Precipitación	0
64344	7	Sololá	717	San Juan la Laguna	12	San Juan la Laguna	7	Julio	2023-08-07T00:00:00	2024-11-08T12:00:00	8	Radiación solar	929
64345	7	Sololá	717	San Juan la Laguna	12	San Juan la Laguna	7	Julio	2023-08-07T00:00:00	2024-11-08T13:00:00	2	Temperatura media	22.9
64346	7	Sololá	717	San Juan la Laguna	12	San Juan la Laguna	7	Julio	2023-08-07T00:00:00	2024-11-08T13:00:00	4	Temperatura máxima	23.4
64347	7	Sololá	717	San Juan la Laguna	12	San Juan la Laguna	7	Julio	2023-08-07T00:00:00	2024-11-08T13:00:00	3	Temperatura mínima	22.6
64348	7	Sololá	717	San Juan la Laguna	12	San Juan la Laguna	7	Julio	2023-08-07T00:00:00	2024-11-08T13:00:00	5	Humedad	70
64349	7	Sololá	717	San Juan la Laguna	12	San Juan la Laguna	7	Julio	2023-08-07T00:00:00	2024-11-08T13:00:00	6	Velocidad del viento	4.8
64350	7	Sololá	717	San Juan la Laguna	12	San Juan la Laguna	7	Julio	2023-08-07T00:00:00	2024-11-08T13:00:00	7	Dirección del viento	4.83
64351	7	Sololá	717	San Juan la Laguna	12	San Juan la Laguna	7	Julio	2023-08-07T00:00:00	2024-11-08T13:00:00	1	Precipitación	0
64352	7	Sololá	717	San Juan la Laguna	12	San Juan la Laguna	7	Julio	2023-08-07T00:00:00	2024-11-08T13:00:00	8	Radiación solar	968
64353	7	Sololá	717	San Juan la Laguna	12	San Juan la Laguna	7	Julio	2023-08-07T00:00:00	2024-11-08T14:00:00	2	Temperatura media	21.7
64354	7	Sololá	717	San Juan la Laguna	12	San Juan la Laguna	7	Julio	2023-08-07T00:00:00	2024-11-08T14:00:00	4	Temperatura máxima	23.5
64355	7	Sololá	717	San Juan la Laguna	12	San Juan la Laguna	7	Julio	2023-08-07T00:00:00	2024-11-08T14:00:00	3	Temperatura mínima	21.7
64356	7	Sololá	717	San Juan la Laguna	12	San Juan la Laguna	7	Julio	2023-08-07T00:00:00	2024-11-08T14:00:00	5	Humedad	77
64357	7	Sololá	717	San Juan la Laguna	12	San Juan la Laguna	7	Julio	2023-08-07T00:00:00	2024-11-08T14:00:00	6	Velocidad del viento	3.2
64358	7	Sololá	717	San Juan la Laguna	12	San Juan la Laguna	7	Julio	2023-08-07T00:00:00	2024-11-08T14:00:00	7	Dirección del viento	3.22
64359	7	Sololá	717	San Juan la Laguna	12	San Juan la Laguna	7	Julio	2023-08-07T00:00:00	2024-11-08T14:00:00	1	Precipitación	0
64360	7	Sololá	717	San Juan la Laguna	12	San Juan la Laguna	7	Julio	2023-08-07T00:00:00	2024-11-08T14:00:00	8	Radiación solar	663
64361	7	Sololá	717	San Juan la Laguna	12	San Juan la Laguna	7	Julio	2023-08-07T00:00:00	2024-11-08T15:00:00	2	Temperatura media	19.5
64362	7	Sololá	717	San Juan la Laguna	12	San Juan la Laguna	7	Julio	2023-08-07T00:00:00	2024-11-08T15:00:00	4	Temperatura máxima	21.7
64363	7	Sololá	717	San Juan la Laguna	12	San Juan la Laguna	7	Julio	2023-08-07T00:00:00	2024-11-08T15:00:00	3	Temperatura mínima	19.5
64364	7	Sololá	717	San Juan la Laguna	12	San Juan la Laguna	7	Julio	2023-08-07T00:00:00	2024-11-08T15:00:00	5	Humedad	86
64365	7	Sololá	717	San Juan la Laguna	12	San Juan la Laguna	7	Julio	2023-08-07T00:00:00	2024-11-08T15:00:00	6	Velocidad del viento	0
64366	7	Sololá	717	San Juan la Laguna	12	San Juan la Laguna	7	Julio	2023-08-07T00:00:00	2024-11-08T15:00:00	7	Dirección del viento	0
64367	7	Sololá	717	San Juan la Laguna	12	San Juan la Laguna	7	Julio	2023-08-07T00:00:00	2024-11-08T15:00:00	1	Precipitación	2.4
64368	7	Sololá	717	San Juan la Laguna	12	San Juan la Laguna	7	Julio	2023-08-07T00:00:00	2024-11-08T15:00:00	8	Radiación solar	595
64369	7	Sololá	717	San Juan la Laguna	12	San Juan la Laguna	7	Julio	2023-08-07T00:00:00	2024-11-08T16:00:00	2	Temperatura media	19.8
64370	7	Sololá	717	San Juan la Laguna	12	San Juan la Laguna	7	Julio	2023-08-07T00:00:00	2024-11-08T16:00:00	4	Temperatura máxima	19.8
64371	7	Sololá	717	San Juan la Laguna	12	San Juan la Laguna	7	Julio	2023-08-07T00:00:00	2024-11-08T16:00:00	3	Temperatura mínima	19.3
64372	7	Sololá	717	San Juan la Laguna	12	San Juan la Laguna	7	Julio	2023-08-07T00:00:00	2024-11-08T16:00:00	5	Humedad	84
64373	7	Sololá	717	San Juan la Laguna	12	San Juan la Laguna	7	Julio	2023-08-07T00:00:00	2024-11-08T16:00:00	6	Velocidad del viento	0
64374	7	Sololá	717	San Juan la Laguna	12	San Juan la Laguna	7	Julio	2023-08-07T00:00:00	2024-11-08T16:00:00	7	Dirección del viento	0
64375	7	Sololá	717	San Juan la Laguna	12	San Juan la Laguna	7	Julio	2023-08-07T00:00:00	2024-11-08T16:00:00	1	Precipitación	0.6
64376	7	Sololá	717	San Juan la Laguna	12	San Juan la Laguna	7	Julio	2023-08-07T00:00:00	2024-11-08T16:00:00	8	Radiación solar	540
64377	7	Sololá	717	San Juan la Laguna	12	San Juan la Laguna	7	Julio	2023-08-07T00:00:00	2024-11-08T17:00:00	2	Temperatura media	19.2
64378	7	Sololá	717	San Juan la Laguna	12	San Juan la Laguna	7	Julio	2023-08-07T00:00:00	2024-11-08T17:00:00	4	Temperatura máxima	19.9
64379	7	Sololá	717	San Juan la Laguna	12	San Juan la Laguna	7	Julio	2023-08-07T00:00:00	2024-11-08T17:00:00	3	Temperatura mínima	19.2
64380	7	Sololá	717	San Juan la Laguna	12	San Juan la Laguna	7	Julio	2023-08-07T00:00:00	2024-11-08T17:00:00	5	Humedad	87
64381	7	Sololá	717	San Juan la Laguna	12	San Juan la Laguna	7	Julio	2023-08-07T00:00:00	2024-11-08T17:00:00	6	Velocidad del viento	0
64382	7	Sololá	717	San Juan la Laguna	12	San Juan la Laguna	7	Julio	2023-08-07T00:00:00	2024-11-08T17:00:00	7	Dirección del viento	0
64383	7	Sololá	717	San Juan la Laguna	12	San Juan la Laguna	7	Julio	2023-08-07T00:00:00	2024-11-08T17:00:00	1	Precipitación	0.8
64384	7	Sololá	717	San Juan la Laguna	12	San Juan la Laguna	7	Julio	2023-08-07T00:00:00	2024-11-08T17:00:00	8	Radiación solar	162
64385	7	Sololá	717	San Juan la Laguna	12	San Juan la Laguna	7	Julio	2023-08-07T00:00:00	2024-11-08T18:00:00	2	Temperatura media	18.3
64386	7	Sololá	717	San Juan la Laguna	12	San Juan la Laguna	7	Julio	2023-08-07T00:00:00	2024-11-08T18:00:00	4	Temperatura máxima	19.2
64387	7	Sololá	717	San Juan la Laguna	12	San Juan la Laguna	7	Julio	2023-08-07T00:00:00	2024-11-08T18:00:00	3	Temperatura mínima	18.2
64388	7	Sololá	717	San Juan la Laguna	12	San Juan la Laguna	7	Julio	2023-08-07T00:00:00	2024-11-08T18:00:00	5	Humedad	90
64389	7	Sololá	717	San Juan la Laguna	12	San Juan la Laguna	7	Julio	2023-08-07T00:00:00	2024-11-08T18:00:00	6	Velocidad del viento	0
64390	7	Sololá	717	San Juan la Laguna	12	San Juan la Laguna	7	Julio	2023-08-07T00:00:00	2024-11-08T18:00:00	7	Dirección del viento	0
64391	7	Sololá	717	San Juan la Laguna	12	San Juan la Laguna	7	Julio	2023-08-07T00:00:00	2024-11-08T18:00:00	1	Precipitación	2.8
64392	7	Sololá	717	San Juan la Laguna	12	San Juan la Laguna	7	Julio	2023-08-07T00:00:00	2024-11-08T18:00:00	8	Radiación solar	4
64393	7	Sololá	717	San Juan la Laguna	12	San Juan la Laguna	7	Julio	2023-08-07T00:00:00	2024-11-08T19:00:00	2	Temperatura media	17.9
64394	7	Sololá	717	San Juan la Laguna	12	San Juan la Laguna	7	Julio	2023-08-07T00:00:00	2024-11-08T19:00:00	4	Temperatura máxima	18.4
64395	7	Sololá	717	San Juan la Laguna	12	San Juan la Laguna	7	Julio	2023-08-07T00:00:00	2024-11-08T19:00:00	3	Temperatura mínima	17.9
64396	7	Sololá	717	San Juan la Laguna	12	San Juan la Laguna	7	Julio	2023-08-07T00:00:00	2024-11-08T19:00:00	5	Humedad	90
64397	7	Sololá	717	San Juan la Laguna	12	San Juan la Laguna	7	Julio	2023-08-07T00:00:00	2024-11-08T19:00:00	6	Velocidad del viento	0
64398	7	Sololá	717	San Juan la Laguna	12	San Juan la Laguna	7	Julio	2023-08-07T00:00:00	2024-11-08T19:00:00	7	Dirección del viento	0
64399	7	Sololá	717	San Juan la Laguna	12	San Juan la Laguna	7	Julio	2023-08-07T00:00:00	2024-11-08T19:00:00	1	Precipitación	0.4
64400	7	Sololá	717	San Juan la Laguna	12	San Juan la Laguna	7	Julio	2023-08-07T00:00:00	2024-11-08T19:00:00	8	Radiación solar	0
64401	7	Sololá	717	San Juan la Laguna	12	San Juan la Laguna	7	Julio	2023-08-07T00:00:00	2024-11-08T20:00:00	2	Temperatura media	17.8
64402	7	Sololá	717	San Juan la Laguna	12	San Juan la Laguna	7	Julio	2023-08-07T00:00:00	2024-11-08T20:00:00	4	Temperatura máxima	18
64403	7	Sololá	717	San Juan la Laguna	12	San Juan la Laguna	7	Julio	2023-08-07T00:00:00	2024-11-08T20:00:00	3	Temperatura mínima	17.8
64404	7	Sololá	717	San Juan la Laguna	12	San Juan la Laguna	7	Julio	2023-08-07T00:00:00	2024-11-08T20:00:00	5	Humedad	90
64405	7	Sololá	717	San Juan la Laguna	12	San Juan la Laguna	7	Julio	2023-08-07T00:00:00	2024-11-08T20:00:00	6	Velocidad del viento	0
64406	7	Sololá	717	San Juan la Laguna	12	San Juan la Laguna	7	Julio	2023-08-07T00:00:00	2024-11-08T20:00:00	7	Dirección del viento	0
64407	7	Sololá	717	San Juan la Laguna	12	San Juan la Laguna	7	Julio	2023-08-07T00:00:00	2024-11-08T20:00:00	1	Precipitación	0
64408	7	Sololá	717	San Juan la Laguna	12	San Juan la Laguna	7	Julio	2023-08-07T00:00:00	2024-11-08T20:00:00	8	Radiación solar	0
64409	7	Sololá	717	San Juan la Laguna	12	San Juan la Laguna	7	Julio	2023-08-07T00:00:00	2024-11-08T21:00:00	2	Temperatura media	17.3
64410	7	Sololá	717	San Juan la Laguna	12	San Juan la Laguna	7	Julio	2023-08-07T00:00:00	2024-11-08T21:00:00	4	Temperatura máxima	17.8
64411	7	Sololá	717	San Juan la Laguna	12	San Juan la Laguna	7	Julio	2023-08-07T00:00:00	2024-11-08T21:00:00	3	Temperatura mínima	17.3
64412	7	Sololá	717	San Juan la Laguna	12	San Juan la Laguna	7	Julio	2023-08-07T00:00:00	2024-11-08T21:00:00	5	Humedad	88
64413	7	Sololá	717	San Juan la Laguna	12	San Juan la Laguna	7	Julio	2023-08-07T00:00:00	2024-11-08T21:00:00	6	Velocidad del viento	0
64414	7	Sololá	717	San Juan la Laguna	12	San Juan la Laguna	7	Julio	2023-08-07T00:00:00	2024-11-08T21:00:00	7	Dirección del viento	0
64415	7	Sololá	717	San Juan la Laguna	12	San Juan la Laguna	7	Julio	2023-08-07T00:00:00	2024-11-08T21:00:00	1	Precipitación	0
64416	7	Sololá	717	San Juan la Laguna	12	San Juan la Laguna	7	Julio	2023-08-07T00:00:00	2024-11-08T21:00:00	8	Radiación solar	0
64417	7	Sololá	717	San Juan la Laguna	12	San Juan la Laguna	7	Julio	2023-08-07T00:00:00	2024-11-08T22:00:00	2	Temperatura media	16.7
64418	7	Sololá	717	San Juan la Laguna	12	San Juan la Laguna	7	Julio	2023-08-07T00:00:00	2024-11-08T22:00:00	4	Temperatura máxima	17.4
64419	7	Sololá	717	San Juan la Laguna	12	San Juan la Laguna	7	Julio	2023-08-07T00:00:00	2024-11-08T22:00:00	3	Temperatura mínima	16.6
64420	7	Sololá	717	San Juan la Laguna	12	San Juan la Laguna	7	Julio	2023-08-07T00:00:00	2024-11-08T22:00:00	5	Humedad	89
64421	7	Sololá	717	San Juan la Laguna	12	San Juan la Laguna	7	Julio	2023-08-07T00:00:00	2024-11-08T22:00:00	6	Velocidad del viento	0
64422	7	Sololá	717	San Juan la Laguna	12	San Juan la Laguna	7	Julio	2023-08-07T00:00:00	2024-11-08T22:00:00	7	Dirección del viento	0
64423	7	Sololá	717	San Juan la Laguna	12	San Juan la Laguna	7	Julio	2023-08-07T00:00:00	2024-11-08T22:00:00	1	Precipitación	0
64424	7	Sololá	717	San Juan la Laguna	12	San Juan la Laguna	7	Julio	2023-08-07T00:00:00	2024-11-08T22:00:00	8	Radiación solar	0
64425	7	Sololá	717	San Juan la Laguna	12	San Juan la Laguna	7	Julio	2023-08-07T00:00:00	2024-11-08T23:00:00	2	Temperatura media	16.8
64426	7	Sololá	717	San Juan la Laguna	12	San Juan la Laguna	7	Julio	2023-08-07T00:00:00	2024-11-08T23:00:00	4	Temperatura máxima	16.8
64427	7	Sololá	717	San Juan la Laguna	12	San Juan la Laguna	7	Julio	2023-08-07T00:00:00	2024-11-08T23:00:00	3	Temperatura mínima	16.6
64428	7	Sololá	717	San Juan la Laguna	12	San Juan la Laguna	7	Julio	2023-08-07T00:00:00	2024-11-08T23:00:00	5	Humedad	88
64429	7	Sololá	717	San Juan la Laguna	12	San Juan la Laguna	7	Julio	2023-08-07T00:00:00	2024-11-08T23:00:00	6	Velocidad del viento	1.6
64430	7	Sololá	717	San Juan la Laguna	12	San Juan la Laguna	7	Julio	2023-08-07T00:00:00	2024-11-08T23:00:00	7	Dirección del viento	1.61
64431	7	Sololá	717	San Juan la Laguna	12	San Juan la Laguna	7	Julio	2023-08-07T00:00:00	2024-11-08T23:00:00	1	Precipitación	0
64432	7	Sololá	717	San Juan la Laguna	12	San Juan la Laguna	7	Julio	2023-08-07T00:00:00	2024-11-08T23:00:00	8	Radiación solar	0
64433	7	Sololá	717	San Juan la Laguna	12	San Juan la Laguna	7	Julio	2023-09-07T00:00:00	2024-11-08T00:00:00	2	Temperatura media	17.2
64434	7	Sololá	717	San Juan la Laguna	12	San Juan la Laguna	7	Julio	2023-09-07T00:00:00	2024-11-08T00:00:00	4	Temperatura máxima	17.3
64435	7	Sololá	717	San Juan la Laguna	12	San Juan la Laguna	7	Julio	2023-09-07T00:00:00	2024-11-08T00:00:00	3	Temperatura mínima	16.8
64436	7	Sololá	717	San Juan la Laguna	12	San Juan la Laguna	7	Julio	2023-09-07T00:00:00	2024-11-08T00:00:00	5	Humedad	88
64437	7	Sololá	717	San Juan la Laguna	12	San Juan la Laguna	7	Julio	2023-09-07T00:00:00	2024-11-08T00:00:00	6	Velocidad del viento	0
64438	7	Sololá	717	San Juan la Laguna	12	San Juan la Laguna	7	Julio	2023-09-07T00:00:00	2024-11-08T00:00:00	7	Dirección del viento	0
64439	7	Sololá	717	San Juan la Laguna	12	San Juan la Laguna	7	Julio	2023-09-07T00:00:00	2024-11-08T00:00:00	1	Precipitación	0
64440	7	Sololá	717	San Juan la Laguna	12	San Juan la Laguna	7	Julio	2023-09-07T00:00:00	2024-11-08T00:00:00	8	Radiación solar	0
64441	7	Sololá	717	San Juan la Laguna	12	San Juan la Laguna	7	Julio	2023-09-07T00:00:00	2024-11-08T01:00:00	2	Temperatura media	17.1
64442	7	Sololá	717	San Juan la Laguna	12	San Juan la Laguna	7	Julio	2023-09-07T00:00:00	2024-11-08T01:00:00	4	Temperatura máxima	17.3
64443	7	Sololá	717	San Juan la Laguna	12	San Juan la Laguna	7	Julio	2023-09-07T00:00:00	2024-11-08T01:00:00	3	Temperatura mínima	16.9
64444	7	Sololá	717	San Juan la Laguna	12	San Juan la Laguna	7	Julio	2023-09-07T00:00:00	2024-11-08T01:00:00	5	Humedad	89
64445	7	Sololá	717	San Juan la Laguna	12	San Juan la Laguna	7	Julio	2023-09-07T00:00:00	2024-11-08T01:00:00	6	Velocidad del viento	0
64446	7	Sololá	717	San Juan la Laguna	12	San Juan la Laguna	7	Julio	2023-09-07T00:00:00	2024-11-08T01:00:00	7	Dirección del viento	0
64447	7	Sololá	717	San Juan la Laguna	12	San Juan la Laguna	7	Julio	2023-09-07T00:00:00	2024-11-08T01:00:00	1	Precipitación	0
64448	7	Sololá	717	San Juan la Laguna	12	San Juan la Laguna	7	Julio	2023-09-07T00:00:00	2024-11-08T01:00:00	8	Radiación solar	0
64449	7	Sololá	717	San Juan la Laguna	12	San Juan la Laguna	7	Julio	2023-09-07T00:00:00	2024-11-08T02:00:00	2	Temperatura media	16.7
64450	7	Sololá	717	San Juan la Laguna	12	San Juan la Laguna	7	Julio	2023-09-07T00:00:00	2024-11-08T02:00:00	4	Temperatura máxima	17.2
64451	7	Sololá	717	San Juan la Laguna	12	San Juan la Laguna	7	Julio	2023-09-07T00:00:00	2024-11-08T02:00:00	3	Temperatura mínima	16.6
64452	7	Sololá	717	San Juan la Laguna	12	San Juan la Laguna	7	Julio	2023-09-07T00:00:00	2024-11-08T02:00:00	5	Humedad	88
64453	7	Sololá	717	San Juan la Laguna	12	San Juan la Laguna	7	Julio	2023-09-07T00:00:00	2024-11-08T02:00:00	6	Velocidad del viento	0
64454	7	Sololá	717	San Juan la Laguna	12	San Juan la Laguna	7	Julio	2023-09-07T00:00:00	2024-11-08T02:00:00	7	Dirección del viento	0
64455	7	Sololá	717	San Juan la Laguna	12	San Juan la Laguna	7	Julio	2023-09-07T00:00:00	2024-11-08T02:00:00	1	Precipitación	0
64456	7	Sololá	717	San Juan la Laguna	12	San Juan la Laguna	7	Julio	2023-09-07T00:00:00	2024-11-08T02:00:00	8	Radiación solar	0
64457	7	Sololá	717	San Juan la Laguna	12	San Juan la Laguna	7	Julio	2023-09-07T00:00:00	2024-11-08T03:00:00	2	Temperatura media	17.2
64458	7	Sololá	717	San Juan la Laguna	12	San Juan la Laguna	7	Julio	2023-09-07T00:00:00	2024-11-08T03:00:00	4	Temperatura máxima	17.2
64459	7	Sololá	717	San Juan la Laguna	12	San Juan la Laguna	7	Julio	2023-09-07T00:00:00	2024-11-08T03:00:00	3	Temperatura mínima	16.6
64460	7	Sololá	717	San Juan la Laguna	12	San Juan la Laguna	7	Julio	2023-09-07T00:00:00	2024-11-08T03:00:00	5	Humedad	87
64461	7	Sololá	717	San Juan la Laguna	12	San Juan la Laguna	7	Julio	2023-09-07T00:00:00	2024-11-08T03:00:00	6	Velocidad del viento	0
64462	7	Sololá	717	San Juan la Laguna	12	San Juan la Laguna	7	Julio	2023-09-07T00:00:00	2024-11-08T03:00:00	7	Dirección del viento	0
64463	7	Sololá	717	San Juan la Laguna	12	San Juan la Laguna	7	Julio	2023-09-07T00:00:00	2024-11-08T03:00:00	1	Precipitación	0
64464	7	Sololá	717	San Juan la Laguna	12	San Juan la Laguna	7	Julio	2023-09-07T00:00:00	2024-11-08T03:00:00	8	Radiación solar	0
64465	7	Sololá	717	San Juan la Laguna	12	San Juan la Laguna	7	Julio	2023-09-07T00:00:00	2024-11-08T04:00:00	2	Temperatura media	17.2
64466	7	Sololá	717	San Juan la Laguna	12	San Juan la Laguna	7	Julio	2023-09-07T00:00:00	2024-11-08T04:00:00	4	Temperatura máxima	17.3
64467	7	Sololá	717	San Juan la Laguna	12	San Juan la Laguna	7	Julio	2023-09-07T00:00:00	2024-11-08T04:00:00	3	Temperatura mínima	17.1
64468	7	Sololá	717	San Juan la Laguna	12	San Juan la Laguna	7	Julio	2023-09-07T00:00:00	2024-11-08T04:00:00	5	Humedad	86
64469	7	Sololá	717	San Juan la Laguna	12	San Juan la Laguna	7	Julio	2023-09-07T00:00:00	2024-11-08T04:00:00	6	Velocidad del viento	0
64470	7	Sololá	717	San Juan la Laguna	12	San Juan la Laguna	7	Julio	2023-09-07T00:00:00	2024-11-08T04:00:00	7	Dirección del viento	0
64471	7	Sololá	717	San Juan la Laguna	12	San Juan la Laguna	7	Julio	2023-09-07T00:00:00	2024-11-08T04:00:00	1	Precipitación	0
64472	7	Sololá	717	San Juan la Laguna	12	San Juan la Laguna	7	Julio	2023-09-07T00:00:00	2024-11-08T04:00:00	8	Radiación solar	0
64473	7	Sololá	717	San Juan la Laguna	12	San Juan la Laguna	7	Julio	2023-09-07T00:00:00	2024-11-08T05:00:00	2	Temperatura media	16.2
64474	7	Sololá	717	San Juan la Laguna	12	San Juan la Laguna	7	Julio	2023-09-07T00:00:00	2024-11-08T05:00:00	4	Temperatura máxima	17.2
64475	7	Sololá	717	San Juan la Laguna	12	San Juan la Laguna	7	Julio	2023-09-07T00:00:00	2024-11-08T05:00:00	3	Temperatura mínima	16.2
64476	7	Sololá	717	San Juan la Laguna	12	San Juan la Laguna	7	Julio	2023-09-07T00:00:00	2024-11-08T05:00:00	5	Humedad	87
64477	7	Sololá	717	San Juan la Laguna	12	San Juan la Laguna	7	Julio	2023-09-07T00:00:00	2024-11-08T05:00:00	6	Velocidad del viento	0
64478	7	Sololá	717	San Juan la Laguna	12	San Juan la Laguna	7	Julio	2023-09-07T00:00:00	2024-11-08T05:00:00	7	Dirección del viento	0
64479	7	Sololá	717	San Juan la Laguna	12	San Juan la Laguna	7	Julio	2023-09-07T00:00:00	2024-11-08T05:00:00	1	Precipitación	0
64480	7	Sololá	717	San Juan la Laguna	12	San Juan la Laguna	7	Julio	2023-09-07T00:00:00	2024-11-08T05:00:00	8	Radiación solar	0
64481	7	Sololá	717	San Juan la Laguna	12	San Juan la Laguna	7	Julio	2023-09-07T00:00:00	2024-11-08T06:00:00	2	Temperatura media	16.8
64482	7	Sololá	717	San Juan la Laguna	12	San Juan la Laguna	7	Julio	2023-09-07T00:00:00	2024-11-08T06:00:00	4	Temperatura máxima	16.8
64483	7	Sololá	717	San Juan la Laguna	12	San Juan la Laguna	7	Julio	2023-09-07T00:00:00	2024-11-08T06:00:00	3	Temperatura mínima	16.2
64484	7	Sololá	717	San Juan la Laguna	12	San Juan la Laguna	7	Julio	2023-09-07T00:00:00	2024-11-08T06:00:00	5	Humedad	85
64485	7	Sololá	717	San Juan la Laguna	12	San Juan la Laguna	7	Julio	2023-09-07T00:00:00	2024-11-08T06:00:00	6	Velocidad del viento	0
64486	7	Sololá	717	San Juan la Laguna	12	San Juan la Laguna	7	Julio	2023-09-07T00:00:00	2024-11-08T06:00:00	7	Dirección del viento	0
64487	7	Sololá	717	San Juan la Laguna	12	San Juan la Laguna	7	Julio	2023-09-07T00:00:00	2024-11-08T06:00:00	1	Precipitación	0
64488	7	Sololá	717	San Juan la Laguna	12	San Juan la Laguna	7	Julio	2023-09-07T00:00:00	2024-11-08T06:00:00	8	Radiación solar	1
64489	7	Sololá	717	San Juan la Laguna	12	San Juan la Laguna	7	Julio	2023-09-07T00:00:00	2024-11-08T07:00:00	2	Temperatura media	17.8
64490	7	Sololá	717	San Juan la Laguna	12	San Juan la Laguna	7	Julio	2023-09-07T00:00:00	2024-11-08T07:00:00	4	Temperatura máxima	17.8
64491	7	Sololá	717	San Juan la Laguna	12	San Juan la Laguna	7	Julio	2023-09-07T00:00:00	2024-11-08T07:00:00	3	Temperatura mínima	16.7
64492	7	Sololá	717	San Juan la Laguna	12	San Juan la Laguna	7	Julio	2023-09-07T00:00:00	2024-11-08T07:00:00	5	Humedad	84
64493	7	Sololá	717	San Juan la Laguna	12	San Juan la Laguna	7	Julio	2023-09-07T00:00:00	2024-11-08T07:00:00	6	Velocidad del viento	0
64494	7	Sololá	717	San Juan la Laguna	12	San Juan la Laguna	7	Julio	2023-09-07T00:00:00	2024-11-08T07:00:00	7	Dirección del viento	0
64495	7	Sololá	717	San Juan la Laguna	12	San Juan la Laguna	7	Julio	2023-09-07T00:00:00	2024-11-08T07:00:00	1	Precipitación	0
64496	7	Sololá	717	San Juan la Laguna	12	San Juan la Laguna	7	Julio	2023-09-07T00:00:00	2024-11-08T07:00:00	8	Radiación solar	31
64497	7	Sololá	717	San Juan la Laguna	12	San Juan la Laguna	7	Julio	2023-09-07T00:00:00	2024-11-08T08:00:00	2	Temperatura media	21.2
64498	7	Sololá	717	San Juan la Laguna	12	San Juan la Laguna	7	Julio	2023-09-07T00:00:00	2024-11-08T08:00:00	4	Temperatura máxima	21.2
64499	7	Sololá	717	San Juan la Laguna	12	San Juan la Laguna	7	Julio	2023-09-07T00:00:00	2024-11-08T08:00:00	3	Temperatura mínima	17.8
64500	7	Sololá	717	San Juan la Laguna	12	San Juan la Laguna	7	Julio	2023-09-07T00:00:00	2024-11-08T08:00:00	5	Humedad	76
64501	7	Sololá	717	San Juan la Laguna	12	San Juan la Laguna	7	Julio	2023-09-07T00:00:00	2024-11-08T08:00:00	6	Velocidad del viento	0
64502	7	Sololá	717	San Juan la Laguna	12	San Juan la Laguna	7	Julio	2023-09-07T00:00:00	2024-11-08T08:00:00	7	Dirección del viento	0
64503	7	Sololá	717	San Juan la Laguna	12	San Juan la Laguna	7	Julio	2023-09-07T00:00:00	2024-11-08T08:00:00	1	Precipitación	0
64504	7	Sololá	717	San Juan la Laguna	12	San Juan la Laguna	7	Julio	2023-09-07T00:00:00	2024-11-08T08:00:00	8	Radiación solar	200
64505	7	Sololá	717	San Juan la Laguna	12	San Juan la Laguna	7	Julio	2023-09-07T00:00:00	2024-11-08T09:00:00	2	Temperatura media	21.9
64506	7	Sololá	717	San Juan la Laguna	12	San Juan la Laguna	7	Julio	2023-09-07T00:00:00	2024-11-08T09:00:00	4	Temperatura máxima	22.2
64507	7	Sololá	717	San Juan la Laguna	12	San Juan la Laguna	7	Julio	2023-09-07T00:00:00	2024-11-08T09:00:00	3	Temperatura mínima	21.3
64508	7	Sololá	717	San Juan la Laguna	12	San Juan la Laguna	7	Julio	2023-09-07T00:00:00	2024-11-08T09:00:00	5	Humedad	71
64509	7	Sololá	717	San Juan la Laguna	12	San Juan la Laguna	7	Julio	2023-09-07T00:00:00	2024-11-08T09:00:00	6	Velocidad del viento	1.6
64510	7	Sololá	717	San Juan la Laguna	12	San Juan la Laguna	7	Julio	2023-09-07T00:00:00	2024-11-08T09:00:00	7	Dirección del viento	1.61
64511	7	Sololá	717	San Juan la Laguna	12	San Juan la Laguna	7	Julio	2023-09-07T00:00:00	2024-11-08T09:00:00	1	Precipitación	0
64512	7	Sololá	717	San Juan la Laguna	12	San Juan la Laguna	7	Julio	2023-09-07T00:00:00	2024-11-08T09:00:00	8	Radiación solar	479
64513	7	Sololá	717	San Juan la Laguna	12	San Juan la Laguna	7	Julio	2023-09-07T00:00:00	2024-11-08T10:00:00	2	Temperatura media	22.5
64514	7	Sololá	717	San Juan la Laguna	12	San Juan la Laguna	7	Julio	2023-09-07T00:00:00	2024-11-08T10:00:00	4	Temperatura máxima	22.7
64515	7	Sololá	717	San Juan la Laguna	12	San Juan la Laguna	7	Julio	2023-09-07T00:00:00	2024-11-08T10:00:00	3	Temperatura mínima	21.9
64516	7	Sololá	717	San Juan la Laguna	12	San Juan la Laguna	7	Julio	2023-09-07T00:00:00	2024-11-08T10:00:00	5	Humedad	69
64517	7	Sololá	717	San Juan la Laguna	12	San Juan la Laguna	7	Julio	2023-09-07T00:00:00	2024-11-08T10:00:00	6	Velocidad del viento	3.2
64518	7	Sololá	717	San Juan la Laguna	12	San Juan la Laguna	7	Julio	2023-09-07T00:00:00	2024-11-08T10:00:00	7	Dirección del viento	3.22
64519	7	Sololá	717	San Juan la Laguna	12	San Juan la Laguna	7	Julio	2023-09-07T00:00:00	2024-11-08T10:00:00	1	Precipitación	0
64520	7	Sololá	717	San Juan la Laguna	12	San Juan la Laguna	7	Julio	2023-09-07T00:00:00	2024-11-08T10:00:00	8	Radiación solar	611
64521	7	Sololá	717	San Juan la Laguna	12	San Juan la Laguna	7	Julio	2023-09-07T00:00:00	2024-11-08T11:00:00	2	Temperatura media	23.7
64522	7	Sololá	717	San Juan la Laguna	12	San Juan la Laguna	7	Julio	2023-09-07T00:00:00	2024-11-08T11:00:00	4	Temperatura máxima	23.7
64523	7	Sololá	717	San Juan la Laguna	12	San Juan la Laguna	7	Julio	2023-09-07T00:00:00	2024-11-08T11:00:00	3	Temperatura mínima	22.3
64524	7	Sololá	717	San Juan la Laguna	12	San Juan la Laguna	7	Julio	2023-09-07T00:00:00	2024-11-08T11:00:00	5	Humedad	66
64525	7	Sololá	717	San Juan la Laguna	12	San Juan la Laguna	7	Julio	2023-09-07T00:00:00	2024-11-08T11:00:00	6	Velocidad del viento	3.2
64526	7	Sololá	717	San Juan la Laguna	12	San Juan la Laguna	7	Julio	2023-09-07T00:00:00	2024-11-08T11:00:00	7	Dirección del viento	3.22
64527	7	Sololá	717	San Juan la Laguna	12	San Juan la Laguna	7	Julio	2023-09-07T00:00:00	2024-11-08T11:00:00	1	Precipitación	0
64528	7	Sololá	717	San Juan la Laguna	12	San Juan la Laguna	7	Julio	2023-09-07T00:00:00	2024-11-08T11:00:00	8	Radiación solar	754
64529	7	Sololá	717	San Juan la Laguna	12	San Juan la Laguna	7	Julio	2023-09-07T00:00:00	2024-11-08T12:00:00	2	Temperatura media	23
64530	7	Sololá	717	San Juan la Laguna	12	San Juan la Laguna	7	Julio	2023-09-07T00:00:00	2024-11-08T12:00:00	4	Temperatura máxima	23.9
64531	7	Sololá	717	San Juan la Laguna	12	San Juan la Laguna	7	Julio	2023-09-07T00:00:00	2024-11-08T12:00:00	3	Temperatura mínima	22.8
64532	7	Sololá	717	San Juan la Laguna	12	San Juan la Laguna	7	Julio	2023-09-07T00:00:00	2024-11-08T12:00:00	5	Humedad	69
64533	7	Sololá	717	San Juan la Laguna	12	San Juan la Laguna	7	Julio	2023-09-07T00:00:00	2024-11-08T12:00:00	6	Velocidad del viento	1.6
64534	7	Sololá	717	San Juan la Laguna	12	San Juan la Laguna	7	Julio	2023-09-07T00:00:00	2024-11-08T12:00:00	7	Dirección del viento	1.61
64535	7	Sololá	717	San Juan la Laguna	12	San Juan la Laguna	7	Julio	2023-09-07T00:00:00	2024-11-08T12:00:00	1	Precipitación	0
64536	7	Sololá	717	San Juan la Laguna	12	San Juan la Laguna	7	Julio	2023-09-07T00:00:00	2024-11-08T12:00:00	8	Radiación solar	757
64537	7	Sololá	717	San Juan la Laguna	12	San Juan la Laguna	7	Julio	2023-09-07T00:00:00	2024-11-08T13:00:00	2	Temperatura media	25.7
64538	7	Sololá	717	San Juan la Laguna	12	San Juan la Laguna	7	Julio	2023-09-07T00:00:00	2024-11-08T13:00:00	4	Temperatura máxima	25.7
64539	7	Sololá	717	San Juan la Laguna	12	San Juan la Laguna	7	Julio	2023-09-07T00:00:00	2024-11-08T13:00:00	3	Temperatura mínima	23
64540	7	Sololá	717	San Juan la Laguna	12	San Juan la Laguna	7	Julio	2023-09-07T00:00:00	2024-11-08T13:00:00	5	Humedad	58
64541	7	Sololá	717	San Juan la Laguna	12	San Juan la Laguna	7	Julio	2023-09-07T00:00:00	2024-11-08T13:00:00	6	Velocidad del viento	1.6
64542	7	Sololá	717	San Juan la Laguna	12	San Juan la Laguna	7	Julio	2023-09-07T00:00:00	2024-11-08T13:00:00	7	Dirección del viento	1.61
64543	7	Sololá	717	San Juan la Laguna	12	San Juan la Laguna	7	Julio	2023-09-07T00:00:00	2024-11-08T13:00:00	1	Precipitación	0
64544	7	Sololá	717	San Juan la Laguna	12	San Juan la Laguna	7	Julio	2023-09-07T00:00:00	2024-11-08T13:00:00	8	Radiación solar	695
64545	7	Sololá	717	San Juan la Laguna	12	San Juan la Laguna	7	Julio	2023-09-07T00:00:00	2024-11-08T14:00:00	2	Temperatura media	25.3
64546	7	Sololá	717	San Juan la Laguna	12	San Juan la Laguna	7	Julio	2023-09-07T00:00:00	2024-11-08T14:00:00	4	Temperatura máxima	26.8
64547	7	Sololá	717	San Juan la Laguna	12	San Juan la Laguna	7	Julio	2023-09-07T00:00:00	2024-11-08T14:00:00	3	Temperatura mínima	25.3
64548	7	Sololá	717	San Juan la Laguna	12	San Juan la Laguna	7	Julio	2023-09-07T00:00:00	2024-11-08T14:00:00	5	Humedad	65
64549	7	Sololá	717	San Juan la Laguna	12	San Juan la Laguna	7	Julio	2023-09-07T00:00:00	2024-11-08T14:00:00	6	Velocidad del viento	0
64550	7	Sololá	717	San Juan la Laguna	12	San Juan la Laguna	7	Julio	2023-09-07T00:00:00	2024-11-08T14:00:00	7	Dirección del viento	0
64551	7	Sololá	717	San Juan la Laguna	12	San Juan la Laguna	7	Julio	2023-09-07T00:00:00	2024-11-08T14:00:00	1	Precipitación	0
64552	7	Sololá	717	San Juan la Laguna	12	San Juan la Laguna	7	Julio	2023-09-07T00:00:00	2024-11-08T14:00:00	8	Radiación solar	827
64553	7	Sololá	717	San Juan la Laguna	12	San Juan la Laguna	7	Julio	2023-09-07T00:00:00	2024-11-08T15:00:00	2	Temperatura media	23.2
64554	7	Sololá	717	San Juan la Laguna	12	San Juan la Laguna	7	Julio	2023-09-07T00:00:00	2024-11-08T15:00:00	4	Temperatura máxima	25.4
64555	7	Sololá	717	San Juan la Laguna	12	San Juan la Laguna	7	Julio	2023-09-07T00:00:00	2024-11-08T15:00:00	3	Temperatura mínima	23.2
64556	7	Sololá	717	San Juan la Laguna	12	San Juan la Laguna	7	Julio	2023-09-07T00:00:00	2024-11-08T15:00:00	5	Humedad	74
64557	7	Sololá	717	San Juan la Laguna	12	San Juan la Laguna	7	Julio	2023-09-07T00:00:00	2024-11-08T15:00:00	6	Velocidad del viento	3.2
64558	7	Sololá	717	San Juan la Laguna	12	San Juan la Laguna	7	Julio	2023-09-07T00:00:00	2024-11-08T15:00:00	7	Dirección del viento	3.22
64559	7	Sololá	717	San Juan la Laguna	12	San Juan la Laguna	7	Julio	2023-09-07T00:00:00	2024-11-08T15:00:00	1	Precipitación	0
64560	7	Sololá	717	San Juan la Laguna	12	San Juan la Laguna	7	Julio	2023-09-07T00:00:00	2024-11-08T15:00:00	8	Radiación solar	681
64561	7	Sololá	717	San Juan la Laguna	12	San Juan la Laguna	7	Julio	2023-09-07T00:00:00	2024-11-08T16:00:00	2	Temperatura media	20.7
64562	7	Sololá	717	San Juan la Laguna	12	San Juan la Laguna	7	Julio	2023-09-07T00:00:00	2024-11-08T16:00:00	4	Temperatura máxima	23.1
64563	7	Sololá	717	San Juan la Laguna	12	San Juan la Laguna	7	Julio	2023-09-07T00:00:00	2024-11-08T16:00:00	3	Temperatura mínima	20.7
64564	7	Sololá	717	San Juan la Laguna	12	San Juan la Laguna	7	Julio	2023-09-07T00:00:00	2024-11-08T16:00:00	5	Humedad	80
64565	7	Sololá	717	San Juan la Laguna	12	San Juan la Laguna	7	Julio	2023-09-07T00:00:00	2024-11-08T16:00:00	6	Velocidad del viento	3.2
64566	7	Sololá	717	San Juan la Laguna	12	San Juan la Laguna	7	Julio	2023-09-07T00:00:00	2024-11-08T16:00:00	7	Dirección del viento	3.22
64567	7	Sololá	717	San Juan la Laguna	12	San Juan la Laguna	7	Julio	2023-09-07T00:00:00	2024-11-08T16:00:00	1	Precipitación	1.4
64568	7	Sololá	717	San Juan la Laguna	12	San Juan la Laguna	7	Julio	2023-09-07T00:00:00	2024-11-08T16:00:00	8	Radiación solar	398
64569	7	Sololá	717	San Juan la Laguna	12	San Juan la Laguna	7	Julio	2023-09-07T00:00:00	2024-11-08T17:00:00	2	Temperatura media	20.1
64570	7	Sololá	717	San Juan la Laguna	12	San Juan la Laguna	7	Julio	2023-09-07T00:00:00	2024-11-08T17:00:00	4	Temperatura máxima	20.7
64571	7	Sololá	717	San Juan la Laguna	12	San Juan la Laguna	7	Julio	2023-09-07T00:00:00	2024-11-08T17:00:00	3	Temperatura mínima	20.1
64572	7	Sololá	717	San Juan la Laguna	12	San Juan la Laguna	7	Julio	2023-09-07T00:00:00	2024-11-08T17:00:00	5	Humedad	86
64573	7	Sololá	717	San Juan la Laguna	12	San Juan la Laguna	7	Julio	2023-09-07T00:00:00	2024-11-08T17:00:00	6	Velocidad del viento	0
64574	7	Sololá	717	San Juan la Laguna	12	San Juan la Laguna	7	Julio	2023-09-07T00:00:00	2024-11-08T17:00:00	7	Dirección del viento	0
64575	7	Sololá	717	San Juan la Laguna	12	San Juan la Laguna	7	Julio	2023-09-07T00:00:00	2024-11-08T17:00:00	1	Precipitación	0.4
64576	7	Sololá	717	San Juan la Laguna	12	San Juan la Laguna	7	Julio	2023-09-07T00:00:00	2024-11-08T17:00:00	8	Radiación solar	157
64577	7	Sololá	717	San Juan la Laguna	12	San Juan la Laguna	7	Julio	2023-09-07T00:00:00	2024-11-08T18:00:00	2	Temperatura media	20.4
64578	7	Sololá	717	San Juan la Laguna	12	San Juan la Laguna	7	Julio	2023-09-07T00:00:00	2024-11-08T18:00:00	4	Temperatura máxima	20.6
64579	7	Sololá	717	San Juan la Laguna	12	San Juan la Laguna	7	Julio	2023-09-07T00:00:00	2024-11-08T18:00:00	3	Temperatura mínima	20.1
64580	7	Sololá	717	San Juan la Laguna	12	San Juan la Laguna	7	Julio	2023-09-07T00:00:00	2024-11-08T18:00:00	5	Humedad	84
64581	7	Sololá	717	San Juan la Laguna	12	San Juan la Laguna	7	Julio	2023-09-07T00:00:00	2024-11-08T18:00:00	6	Velocidad del viento	0
64582	7	Sololá	717	San Juan la Laguna	12	San Juan la Laguna	7	Julio	2023-09-07T00:00:00	2024-11-08T18:00:00	7	Dirección del viento	0
64583	7	Sololá	717	San Juan la Laguna	12	San Juan la Laguna	7	Julio	2023-09-07T00:00:00	2024-11-08T18:00:00	1	Precipitación	0
64584	7	Sololá	717	San Juan la Laguna	12	San Juan la Laguna	7	Julio	2023-09-07T00:00:00	2024-11-08T18:00:00	8	Radiación solar	20
64585	7	Sololá	717	San Juan la Laguna	12	San Juan la Laguna	7	Julio	2023-09-07T00:00:00	2024-11-08T19:00:00	2	Temperatura media	18.8
64586	7	Sololá	717	San Juan la Laguna	12	San Juan la Laguna	7	Julio	2023-09-07T00:00:00	2024-11-08T19:00:00	4	Temperatura máxima	20.4
64587	7	Sololá	717	San Juan la Laguna	12	San Juan la Laguna	7	Julio	2023-09-07T00:00:00	2024-11-08T19:00:00	3	Temperatura mínima	18.8
64588	7	Sololá	717	San Juan la Laguna	12	San Juan la Laguna	7	Julio	2023-09-07T00:00:00	2024-11-08T19:00:00	5	Humedad	85
64589	7	Sololá	717	San Juan la Laguna	12	San Juan la Laguna	7	Julio	2023-09-07T00:00:00	2024-11-08T19:00:00	6	Velocidad del viento	0
64590	7	Sololá	717	San Juan la Laguna	12	San Juan la Laguna	7	Julio	2023-09-07T00:00:00	2024-11-08T19:00:00	7	Dirección del viento	0
64591	7	Sololá	717	San Juan la Laguna	12	San Juan la Laguna	7	Julio	2023-09-07T00:00:00	2024-11-08T19:00:00	1	Precipitación	0
64592	7	Sololá	717	San Juan la Laguna	12	San Juan la Laguna	7	Julio	2023-09-07T00:00:00	2024-11-08T19:00:00	8	Radiación solar	0
64593	7	Sololá	717	San Juan la Laguna	12	San Juan la Laguna	7	Julio	2023-09-07T00:00:00	2024-11-08T20:00:00	2	Temperatura media	17.7
64594	7	Sololá	717	San Juan la Laguna	12	San Juan la Laguna	7	Julio	2023-09-07T00:00:00	2024-11-08T20:00:00	4	Temperatura máxima	18.9
64595	7	Sololá	717	San Juan la Laguna	12	San Juan la Laguna	7	Julio	2023-09-07T00:00:00	2024-11-08T20:00:00	3	Temperatura mínima	17.7
64596	7	Sololá	717	San Juan la Laguna	12	San Juan la Laguna	7	Julio	2023-09-07T00:00:00	2024-11-08T20:00:00	5	Humedad	86
64597	7	Sololá	717	San Juan la Laguna	12	San Juan la Laguna	7	Julio	2023-09-07T00:00:00	2024-11-08T20:00:00	6	Velocidad del viento	0
64598	7	Sololá	717	San Juan la Laguna	12	San Juan la Laguna	7	Julio	2023-09-07T00:00:00	2024-11-08T20:00:00	7	Dirección del viento	0
64599	7	Sololá	717	San Juan la Laguna	12	San Juan la Laguna	7	Julio	2023-09-07T00:00:00	2024-11-08T20:00:00	1	Precipitación	0
64600	7	Sololá	717	San Juan la Laguna	12	San Juan la Laguna	7	Julio	2023-09-07T00:00:00	2024-11-08T20:00:00	8	Radiación solar	0
64601	7	Sololá	717	San Juan la Laguna	12	San Juan la Laguna	7	Julio	2023-09-07T00:00:00	2024-11-08T21:00:00	2	Temperatura media	18.1
64602	7	Sololá	717	San Juan la Laguna	12	San Juan la Laguna	7	Julio	2023-09-07T00:00:00	2024-11-08T21:00:00	4	Temperatura máxima	18.1
64603	7	Sololá	717	San Juan la Laguna	12	San Juan la Laguna	7	Julio	2023-09-07T00:00:00	2024-11-08T21:00:00	3	Temperatura mínima	17.7
64604	7	Sololá	717	San Juan la Laguna	12	San Juan la Laguna	7	Julio	2023-09-07T00:00:00	2024-11-08T21:00:00	5	Humedad	86
64605	7	Sololá	717	San Juan la Laguna	12	San Juan la Laguna	7	Julio	2023-09-07T00:00:00	2024-11-08T21:00:00	6	Velocidad del viento	0
64606	7	Sololá	717	San Juan la Laguna	12	San Juan la Laguna	7	Julio	2023-09-07T00:00:00	2024-11-08T21:00:00	7	Dirección del viento	0
64607	7	Sololá	717	San Juan la Laguna	12	San Juan la Laguna	7	Julio	2023-09-07T00:00:00	2024-11-08T21:00:00	1	Precipitación	0
64608	7	Sololá	717	San Juan la Laguna	12	San Juan la Laguna	7	Julio	2023-09-07T00:00:00	2024-11-08T21:00:00	8	Radiación solar	0
64609	7	Sololá	717	San Juan la Laguna	12	San Juan la Laguna	7	Julio	2023-09-07T00:00:00	2024-11-08T22:00:00	2	Temperatura media	18.4
64610	7	Sololá	717	San Juan la Laguna	12	San Juan la Laguna	7	Julio	2023-09-07T00:00:00	2024-11-08T22:00:00	4	Temperatura máxima	18.6
64611	7	Sololá	717	San Juan la Laguna	12	San Juan la Laguna	7	Julio	2023-09-07T00:00:00	2024-11-08T22:00:00	3	Temperatura mínima	18.1
64612	7	Sololá	717	San Juan la Laguna	12	San Juan la Laguna	7	Julio	2023-09-07T00:00:00	2024-11-08T22:00:00	5	Humedad	87
64613	7	Sololá	717	San Juan la Laguna	12	San Juan la Laguna	7	Julio	2023-09-07T00:00:00	2024-11-08T22:00:00	6	Velocidad del viento	0
64614	7	Sololá	717	San Juan la Laguna	12	San Juan la Laguna	7	Julio	2023-09-07T00:00:00	2024-11-08T22:00:00	7	Dirección del viento	0
64615	7	Sololá	717	San Juan la Laguna	12	San Juan la Laguna	7	Julio	2023-09-07T00:00:00	2024-11-08T22:00:00	1	Precipitación	0
64616	7	Sololá	717	San Juan la Laguna	12	San Juan la Laguna	7	Julio	2023-09-07T00:00:00	2024-11-08T22:00:00	8	Radiación solar	0
64617	7	Sololá	717	San Juan la Laguna	12	San Juan la Laguna	7	Julio	2023-09-07T00:00:00	2024-11-08T23:00:00	2	Temperatura media	17.8
64618	7	Sololá	717	San Juan la Laguna	12	San Juan la Laguna	7	Julio	2023-09-07T00:00:00	2024-11-08T23:00:00	4	Temperatura máxima	18.4
64619	7	Sololá	717	San Juan la Laguna	12	San Juan la Laguna	7	Julio	2023-09-07T00:00:00	2024-11-08T23:00:00	3	Temperatura mínima	17.7
64620	7	Sololá	717	San Juan la Laguna	12	San Juan la Laguna	7	Julio	2023-09-07T00:00:00	2024-11-08T23:00:00	5	Humedad	87
64621	7	Sololá	717	San Juan la Laguna	12	San Juan la Laguna	7	Julio	2023-09-07T00:00:00	2024-11-08T23:00:00	6	Velocidad del viento	0
64622	7	Sololá	717	San Juan la Laguna	12	San Juan la Laguna	7	Julio	2023-09-07T00:00:00	2024-11-08T23:00:00	7	Dirección del viento	0
64623	7	Sololá	717	San Juan la Laguna	12	San Juan la Laguna	7	Julio	2023-09-07T00:00:00	2024-11-08T23:00:00	1	Precipitación	0
64624	7	Sololá	717	San Juan la Laguna	12	San Juan la Laguna	7	Julio	2023-09-07T00:00:00	2024-11-08T23:00:00	8	Radiación solar	0
64625	7	Sololá	717	San Juan la Laguna	12	San Juan la Laguna	7	Julio	2023-10-07T00:00:00	2024-11-08T00:00:00	2	Temperatura media	17.5
64626	7	Sololá	717	San Juan la Laguna	12	San Juan la Laguna	7	Julio	2023-10-07T00:00:00	2024-11-08T00:00:00	4	Temperatura máxima	17.9
64627	7	Sololá	717	San Juan la Laguna	12	San Juan la Laguna	7	Julio	2023-10-07T00:00:00	2024-11-08T00:00:00	3	Temperatura mínima	17.5
64628	7	Sololá	717	San Juan la Laguna	12	San Juan la Laguna	7	Julio	2023-10-07T00:00:00	2024-11-08T00:00:00	5	Humedad	88
64629	7	Sololá	717	San Juan la Laguna	12	San Juan la Laguna	7	Julio	2023-10-07T00:00:00	2024-11-08T00:00:00	6	Velocidad del viento	0
64630	7	Sololá	717	San Juan la Laguna	12	San Juan la Laguna	7	Julio	2023-10-07T00:00:00	2024-11-08T00:00:00	7	Dirección del viento	0
64631	7	Sololá	717	San Juan la Laguna	12	San Juan la Laguna	7	Julio	2023-10-07T00:00:00	2024-11-08T00:00:00	1	Precipitación	0
64632	7	Sololá	717	San Juan la Laguna	12	San Juan la Laguna	7	Julio	2023-10-07T00:00:00	2024-11-08T00:00:00	8	Radiación solar	0
64633	7	Sololá	717	San Juan la Laguna	12	San Juan la Laguna	7	Julio	2023-10-07T00:00:00	2024-11-08T01:00:00	2	Temperatura media	16.8
64634	7	Sololá	717	San Juan la Laguna	12	San Juan la Laguna	7	Julio	2023-10-07T00:00:00	2024-11-08T01:00:00	4	Temperatura máxima	17.5
64635	7	Sololá	717	San Juan la Laguna	12	San Juan la Laguna	7	Julio	2023-10-07T00:00:00	2024-11-08T01:00:00	3	Temperatura mínima	16.8
64636	7	Sololá	717	San Juan la Laguna	12	San Juan la Laguna	7	Julio	2023-10-07T00:00:00	2024-11-08T01:00:00	5	Humedad	89
64637	7	Sololá	717	San Juan la Laguna	12	San Juan la Laguna	7	Julio	2023-10-07T00:00:00	2024-11-08T01:00:00	6	Velocidad del viento	0
64638	7	Sololá	717	San Juan la Laguna	12	San Juan la Laguna	7	Julio	2023-10-07T00:00:00	2024-11-08T01:00:00	7	Dirección del viento	0
64639	7	Sololá	717	San Juan la Laguna	12	San Juan la Laguna	7	Julio	2023-10-07T00:00:00	2024-11-08T01:00:00	1	Precipitación	0
64640	7	Sololá	717	San Juan la Laguna	12	San Juan la Laguna	7	Julio	2023-10-07T00:00:00	2024-11-08T01:00:00	8	Radiación solar	0
64641	7	Sololá	717	San Juan la Laguna	12	San Juan la Laguna	7	Julio	2023-10-07T00:00:00	2024-11-08T02:00:00	2	Temperatura media	16.9
64642	7	Sololá	717	San Juan la Laguna	12	San Juan la Laguna	7	Julio	2023-10-07T00:00:00	2024-11-08T02:00:00	4	Temperatura máxima	17.1
64643	7	Sololá	717	San Juan la Laguna	12	San Juan la Laguna	7	Julio	2023-10-07T00:00:00	2024-11-08T02:00:00	3	Temperatura mínima	16.8
64644	7	Sololá	717	San Juan la Laguna	12	San Juan la Laguna	7	Julio	2023-10-07T00:00:00	2024-11-08T02:00:00	5	Humedad	87
64645	7	Sololá	717	San Juan la Laguna	12	San Juan la Laguna	7	Julio	2023-10-07T00:00:00	2024-11-08T02:00:00	6	Velocidad del viento	0
64646	7	Sololá	717	San Juan la Laguna	12	San Juan la Laguna	7	Julio	2023-10-07T00:00:00	2024-11-08T02:00:00	7	Dirección del viento	0
64647	7	Sololá	717	San Juan la Laguna	12	San Juan la Laguna	7	Julio	2023-10-07T00:00:00	2024-11-08T02:00:00	1	Precipitación	0
64648	7	Sololá	717	San Juan la Laguna	12	San Juan la Laguna	7	Julio	2023-10-07T00:00:00	2024-11-08T02:00:00	8	Radiación solar	0
64649	7	Sololá	717	San Juan la Laguna	12	San Juan la Laguna	7	Julio	2023-10-07T00:00:00	2024-11-08T03:00:00	2	Temperatura media	16.6
64650	7	Sololá	717	San Juan la Laguna	12	San Juan la Laguna	7	Julio	2023-10-07T00:00:00	2024-11-08T03:00:00	4	Temperatura máxima	16.9
64651	7	Sololá	717	San Juan la Laguna	12	San Juan la Laguna	7	Julio	2023-10-07T00:00:00	2024-11-08T03:00:00	3	Temperatura mínima	16.6
64652	7	Sololá	717	San Juan la Laguna	12	San Juan la Laguna	7	Julio	2023-10-07T00:00:00	2024-11-08T03:00:00	5	Humedad	87
64653	7	Sololá	717	San Juan la Laguna	12	San Juan la Laguna	7	Julio	2023-10-07T00:00:00	2024-11-08T03:00:00	6	Velocidad del viento	0
64654	7	Sololá	717	San Juan la Laguna	12	San Juan la Laguna	7	Julio	2023-10-07T00:00:00	2024-11-08T03:00:00	7	Dirección del viento	0
64655	7	Sololá	717	San Juan la Laguna	12	San Juan la Laguna	7	Julio	2023-10-07T00:00:00	2024-11-08T03:00:00	1	Precipitación	0
64656	7	Sololá	717	San Juan la Laguna	12	San Juan la Laguna	7	Julio	2023-10-07T00:00:00	2024-11-08T03:00:00	8	Radiación solar	0
64657	7	Sololá	717	San Juan la Laguna	12	San Juan la Laguna	7	Julio	2023-10-07T00:00:00	2024-11-08T04:00:00	2	Temperatura media	16.3
64658	7	Sololá	717	San Juan la Laguna	12	San Juan la Laguna	7	Julio	2023-10-07T00:00:00	2024-11-08T04:00:00	4	Temperatura máxima	16.7
64659	7	Sololá	717	San Juan la Laguna	12	San Juan la Laguna	7	Julio	2023-10-07T00:00:00	2024-11-08T04:00:00	3	Temperatura mínima	16.3
64660	7	Sololá	717	San Juan la Laguna	12	San Juan la Laguna	7	Julio	2023-10-07T00:00:00	2024-11-08T04:00:00	5	Humedad	89
64661	7	Sololá	717	San Juan la Laguna	12	San Juan la Laguna	7	Julio	2023-10-07T00:00:00	2024-11-08T04:00:00	6	Velocidad del viento	0
64662	7	Sololá	717	San Juan la Laguna	12	San Juan la Laguna	7	Julio	2023-10-07T00:00:00	2024-11-08T04:00:00	7	Dirección del viento	0
64663	7	Sololá	717	San Juan la Laguna	12	San Juan la Laguna	7	Julio	2023-10-07T00:00:00	2024-11-08T04:00:00	1	Precipitación	0
64664	7	Sololá	717	San Juan la Laguna	12	San Juan la Laguna	7	Julio	2023-10-07T00:00:00	2024-11-08T04:00:00	8	Radiación solar	0
64665	7	Sololá	717	San Juan la Laguna	12	San Juan la Laguna	7	Julio	2023-10-07T00:00:00	2024-11-08T05:00:00	2	Temperatura media	16.5
64666	7	Sololá	717	San Juan la Laguna	12	San Juan la Laguna	7	Julio	2023-10-07T00:00:00	2024-11-08T05:00:00	4	Temperatura máxima	16.6
64667	7	Sololá	717	San Juan la Laguna	12	San Juan la Laguna	7	Julio	2023-10-07T00:00:00	2024-11-08T05:00:00	3	Temperatura mínima	16.1
64668	7	Sololá	717	San Juan la Laguna	12	San Juan la Laguna	7	Julio	2023-10-07T00:00:00	2024-11-08T05:00:00	5	Humedad	85
64669	7	Sololá	717	San Juan la Laguna	12	San Juan la Laguna	7	Julio	2023-10-07T00:00:00	2024-11-08T05:00:00	6	Velocidad del viento	0
64670	7	Sololá	717	San Juan la Laguna	12	San Juan la Laguna	7	Julio	2023-10-07T00:00:00	2024-11-08T05:00:00	7	Dirección del viento	0
64671	7	Sololá	717	San Juan la Laguna	12	San Juan la Laguna	7	Julio	2023-10-07T00:00:00	2024-11-08T05:00:00	1	Precipitación	0
64672	7	Sololá	717	San Juan la Laguna	12	San Juan la Laguna	7	Julio	2023-10-07T00:00:00	2024-11-08T05:00:00	8	Radiación solar	0
64673	7	Sololá	717	San Juan la Laguna	12	San Juan la Laguna	7	Julio	2023-10-07T00:00:00	2024-11-08T06:00:00	2	Temperatura media	15.9
64674	7	Sololá	717	San Juan la Laguna	12	San Juan la Laguna	7	Julio	2023-10-07T00:00:00	2024-11-08T06:00:00	4	Temperatura máxima	16.6
64675	7	Sololá	717	San Juan la Laguna	12	San Juan la Laguna	7	Julio	2023-10-07T00:00:00	2024-11-08T06:00:00	3	Temperatura mínima	15.9
64676	7	Sololá	717	San Juan la Laguna	12	San Juan la Laguna	7	Julio	2023-10-07T00:00:00	2024-11-08T06:00:00	5	Humedad	89
64677	7	Sololá	717	San Juan la Laguna	12	San Juan la Laguna	7	Julio	2023-10-07T00:00:00	2024-11-08T06:00:00	6	Velocidad del viento	0
64678	7	Sololá	717	San Juan la Laguna	12	San Juan la Laguna	7	Julio	2023-10-07T00:00:00	2024-11-08T06:00:00	7	Dirección del viento	0
64679	7	Sololá	717	San Juan la Laguna	12	San Juan la Laguna	7	Julio	2023-10-07T00:00:00	2024-11-08T06:00:00	1	Precipitación	0
64680	7	Sololá	717	San Juan la Laguna	12	San Juan la Laguna	7	Julio	2023-10-07T00:00:00	2024-11-08T06:00:00	8	Radiación solar	1
64681	7	Sololá	717	San Juan la Laguna	12	San Juan la Laguna	7	Julio	2023-10-07T00:00:00	2024-11-08T07:00:00	2	Temperatura media	18
64682	7	Sololá	717	San Juan la Laguna	12	San Juan la Laguna	7	Julio	2023-10-07T00:00:00	2024-11-08T07:00:00	4	Temperatura máxima	18
64683	7	Sololá	717	San Juan la Laguna	12	San Juan la Laguna	7	Julio	2023-10-07T00:00:00	2024-11-08T07:00:00	3	Temperatura mínima	15.8
64684	7	Sololá	717	San Juan la Laguna	12	San Juan la Laguna	7	Julio	2023-10-07T00:00:00	2024-11-08T07:00:00	5	Humedad	84
64685	7	Sololá	717	San Juan la Laguna	12	San Juan la Laguna	7	Julio	2023-10-07T00:00:00	2024-11-08T07:00:00	6	Velocidad del viento	0
64686	7	Sololá	717	San Juan la Laguna	12	San Juan la Laguna	7	Julio	2023-10-07T00:00:00	2024-11-08T07:00:00	7	Dirección del viento	0
64687	7	Sololá	717	San Juan la Laguna	12	San Juan la Laguna	7	Julio	2023-10-07T00:00:00	2024-11-08T07:00:00	1	Precipitación	0
64688	7	Sololá	717	San Juan la Laguna	12	San Juan la Laguna	7	Julio	2023-10-07T00:00:00	2024-11-08T07:00:00	8	Radiación solar	103
64689	7	Sololá	717	San Juan la Laguna	12	San Juan la Laguna	7	Julio	2023-10-07T00:00:00	2024-11-08T08:00:00	2	Temperatura media	22
64690	7	Sololá	717	San Juan la Laguna	12	San Juan la Laguna	7	Julio	2023-10-07T00:00:00	2024-11-08T08:00:00	4	Temperatura máxima	22
64691	7	Sololá	717	San Juan la Laguna	12	San Juan la Laguna	7	Julio	2023-10-07T00:00:00	2024-11-08T08:00:00	3	Temperatura mínima	18
64692	7	Sololá	717	San Juan la Laguna	12	San Juan la Laguna	7	Julio	2023-10-07T00:00:00	2024-11-08T08:00:00	5	Humedad	71
64693	7	Sololá	717	San Juan la Laguna	12	San Juan la Laguna	7	Julio	2023-10-07T00:00:00	2024-11-08T08:00:00	6	Velocidad del viento	0
64694	7	Sololá	717	San Juan la Laguna	12	San Juan la Laguna	7	Julio	2023-10-07T00:00:00	2024-11-08T08:00:00	7	Dirección del viento	0
64695	7	Sololá	717	San Juan la Laguna	12	San Juan la Laguna	7	Julio	2023-10-07T00:00:00	2024-11-08T08:00:00	1	Precipitación	0
64696	7	Sololá	717	San Juan la Laguna	12	San Juan la Laguna	7	Julio	2023-10-07T00:00:00	2024-11-08T08:00:00	8	Radiación solar	340
64697	7	Sololá	717	San Juan la Laguna	12	San Juan la Laguna	7	Julio	2023-10-07T00:00:00	2024-11-08T09:00:00	2	Temperatura media	22.7
64698	7	Sololá	717	San Juan la Laguna	12	San Juan la Laguna	7	Julio	2023-10-07T00:00:00	2024-11-08T09:00:00	4	Temperatura máxima	22.9
64699	7	Sololá	717	San Juan la Laguna	12	San Juan la Laguna	7	Julio	2023-10-07T00:00:00	2024-11-08T09:00:00	3	Temperatura mínima	22
64700	7	Sololá	717	San Juan la Laguna	12	San Juan la Laguna	7	Julio	2023-10-07T00:00:00	2024-11-08T09:00:00	5	Humedad	64
64701	7	Sololá	717	San Juan la Laguna	12	San Juan la Laguna	7	Julio	2023-10-07T00:00:00	2024-11-08T09:00:00	6	Velocidad del viento	0
64702	7	Sololá	717	San Juan la Laguna	12	San Juan la Laguna	7	Julio	2023-10-07T00:00:00	2024-11-08T09:00:00	7	Dirección del viento	0
64703	7	Sololá	717	San Juan la Laguna	12	San Juan la Laguna	7	Julio	2023-10-07T00:00:00	2024-11-08T09:00:00	1	Precipitación	0
64704	7	Sololá	717	San Juan la Laguna	12	San Juan la Laguna	7	Julio	2023-10-07T00:00:00	2024-11-08T09:00:00	8	Radiación solar	563
64705	7	Sololá	717	San Juan la Laguna	12	San Juan la Laguna	7	Julio	2023-10-07T00:00:00	2024-11-08T10:00:00	2	Temperatura media	23.8
64706	7	Sololá	717	San Juan la Laguna	12	San Juan la Laguna	7	Julio	2023-10-07T00:00:00	2024-11-08T10:00:00	4	Temperatura máxima	23.8
64707	7	Sololá	717	San Juan la Laguna	12	San Juan la Laguna	7	Julio	2023-10-07T00:00:00	2024-11-08T10:00:00	3	Temperatura mínima	22.7
64708	7	Sololá	717	San Juan la Laguna	12	San Juan la Laguna	7	Julio	2023-10-07T00:00:00	2024-11-08T10:00:00	5	Humedad	63
64709	7	Sololá	717	San Juan la Laguna	12	San Juan la Laguna	7	Julio	2023-10-07T00:00:00	2024-11-08T10:00:00	6	Velocidad del viento	0
64710	7	Sololá	717	San Juan la Laguna	12	San Juan la Laguna	7	Julio	2023-10-07T00:00:00	2024-11-08T10:00:00	7	Dirección del viento	0
64711	7	Sololá	717	San Juan la Laguna	12	San Juan la Laguna	7	Julio	2023-10-07T00:00:00	2024-11-08T10:00:00	1	Precipitación	0
64712	7	Sololá	717	San Juan la Laguna	12	San Juan la Laguna	7	Julio	2023-10-07T00:00:00	2024-11-08T10:00:00	8	Radiación solar	725
64713	7	Sololá	717	San Juan la Laguna	12	San Juan la Laguna	7	Julio	2023-10-07T00:00:00	2024-11-08T11:00:00	2	Temperatura media	25.8
64714	7	Sololá	717	San Juan la Laguna	12	San Juan la Laguna	7	Julio	2023-10-07T00:00:00	2024-11-08T11:00:00	4	Temperatura máxima	25.9
64715	7	Sololá	717	San Juan la Laguna	12	San Juan la Laguna	7	Julio	2023-10-07T00:00:00	2024-11-08T11:00:00	3	Temperatura mínima	23.8
64716	7	Sololá	717	San Juan la Laguna	12	San Juan la Laguna	7	Julio	2023-10-07T00:00:00	2024-11-08T11:00:00	5	Humedad	58
64717	7	Sololá	717	San Juan la Laguna	12	San Juan la Laguna	7	Julio	2023-10-07T00:00:00	2024-11-08T11:00:00	6	Velocidad del viento	3.2
64718	7	Sololá	717	San Juan la Laguna	12	San Juan la Laguna	7	Julio	2023-10-07T00:00:00	2024-11-08T11:00:00	7	Dirección del viento	3.22
64719	7	Sololá	717	San Juan la Laguna	12	San Juan la Laguna	7	Julio	2023-10-07T00:00:00	2024-11-08T11:00:00	1	Precipitación	0
64720	7	Sololá	717	San Juan la Laguna	12	San Juan la Laguna	7	Julio	2023-10-07T00:00:00	2024-11-08T11:00:00	8	Radiación solar	849
64721	7	Sololá	717	San Juan la Laguna	12	San Juan la Laguna	7	Julio	2023-10-07T00:00:00	2024-11-08T12:00:00	2	Temperatura media	26.2
64722	7	Sololá	717	San Juan la Laguna	12	San Juan la Laguna	7	Julio	2023-10-07T00:00:00	2024-11-08T12:00:00	4	Temperatura máxima	26.2
64723	7	Sololá	717	San Juan la Laguna	12	San Juan la Laguna	7	Julio	2023-10-07T00:00:00	2024-11-08T12:00:00	3	Temperatura mínima	25.4
64724	7	Sololá	717	San Juan la Laguna	12	San Juan la Laguna	7	Julio	2023-10-07T00:00:00	2024-11-08T12:00:00	5	Humedad	57
64725	7	Sololá	717	San Juan la Laguna	12	San Juan la Laguna	7	Julio	2023-10-07T00:00:00	2024-11-08T12:00:00	6	Velocidad del viento	8
64726	7	Sololá	717	San Juan la Laguna	12	San Juan la Laguna	7	Julio	2023-10-07T00:00:00	2024-11-08T12:00:00	7	Dirección del viento	8.05
64727	7	Sololá	717	San Juan la Laguna	12	San Juan la Laguna	7	Julio	2023-10-07T00:00:00	2024-11-08T12:00:00	1	Precipitación	0
64728	7	Sololá	717	San Juan la Laguna	12	San Juan la Laguna	7	Julio	2023-10-07T00:00:00	2024-11-08T12:00:00	8	Radiación solar	928
64729	7	Sololá	717	San Juan la Laguna	12	San Juan la Laguna	7	Julio	2023-10-07T00:00:00	2024-11-08T13:00:00	2	Temperatura media	26.4
64730	7	Sololá	717	San Juan la Laguna	12	San Juan la Laguna	7	Julio	2023-10-07T00:00:00	2024-11-08T13:00:00	4	Temperatura máxima	26.6
64731	7	Sololá	717	San Juan la Laguna	12	San Juan la Laguna	7	Julio	2023-10-07T00:00:00	2024-11-08T13:00:00	3	Temperatura mínima	26
64732	7	Sololá	717	San Juan la Laguna	12	San Juan la Laguna	7	Julio	2023-10-07T00:00:00	2024-11-08T13:00:00	5	Humedad	54
64733	7	Sololá	717	San Juan la Laguna	12	San Juan la Laguna	7	Julio	2023-10-07T00:00:00	2024-11-08T13:00:00	6	Velocidad del viento	6.4
64734	7	Sololá	717	San Juan la Laguna	12	San Juan la Laguna	7	Julio	2023-10-07T00:00:00	2024-11-08T13:00:00	7	Dirección del viento	6.44
64735	7	Sololá	717	San Juan la Laguna	12	San Juan la Laguna	7	Julio	2023-10-07T00:00:00	2024-11-08T13:00:00	1	Precipitación	0
64736	7	Sololá	717	San Juan la Laguna	12	San Juan la Laguna	7	Julio	2023-10-07T00:00:00	2024-11-08T13:00:00	8	Radiación solar	930
64737	7	Sololá	717	San Juan la Laguna	12	San Juan la Laguna	7	Julio	2023-10-07T00:00:00	2024-11-08T14:00:00	2	Temperatura media	27.2
64738	7	Sololá	717	San Juan la Laguna	12	San Juan la Laguna	7	Julio	2023-10-07T00:00:00	2024-11-08T14:00:00	4	Temperatura máxima	27.3
64739	7	Sololá	717	San Juan la Laguna	12	San Juan la Laguna	7	Julio	2023-10-07T00:00:00	2024-11-08T14:00:00	3	Temperatura mínima	26.4
64740	7	Sololá	717	San Juan la Laguna	12	San Juan la Laguna	7	Julio	2023-10-07T00:00:00	2024-11-08T14:00:00	5	Humedad	54
64741	7	Sololá	717	San Juan la Laguna	12	San Juan la Laguna	7	Julio	2023-10-07T00:00:00	2024-11-08T14:00:00	6	Velocidad del viento	4.8
64742	7	Sololá	717	San Juan la Laguna	12	San Juan la Laguna	7	Julio	2023-10-07T00:00:00	2024-11-08T14:00:00	7	Dirección del viento	4.83
64743	7	Sololá	717	San Juan la Laguna	12	San Juan la Laguna	7	Julio	2023-10-07T00:00:00	2024-11-08T14:00:00	1	Precipitación	0
64744	7	Sololá	717	San Juan la Laguna	12	San Juan la Laguna	7	Julio	2023-10-07T00:00:00	2024-11-08T14:00:00	8	Radiación solar	874
64745	7	Sololá	717	San Juan la Laguna	12	San Juan la Laguna	7	Julio	2023-10-07T00:00:00	2024-11-08T15:00:00	2	Temperatura media	26.7
64746	7	Sololá	717	San Juan la Laguna	12	San Juan la Laguna	7	Julio	2023-10-07T00:00:00	2024-11-08T15:00:00	4	Temperatura máxima	27.1
64747	7	Sololá	717	San Juan la Laguna	12	San Juan la Laguna	7	Julio	2023-10-07T00:00:00	2024-11-08T15:00:00	3	Temperatura mínima	26.7
64748	7	Sololá	717	San Juan la Laguna	12	San Juan la Laguna	7	Julio	2023-10-07T00:00:00	2024-11-08T15:00:00	5	Humedad	54
64749	7	Sololá	717	San Juan la Laguna	12	San Juan la Laguna	7	Julio	2023-10-07T00:00:00	2024-11-08T15:00:00	6	Velocidad del viento	1.6
64750	7	Sololá	717	San Juan la Laguna	12	San Juan la Laguna	7	Julio	2023-10-07T00:00:00	2024-11-08T15:00:00	7	Dirección del viento	1.61
64751	7	Sololá	717	San Juan la Laguna	12	San Juan la Laguna	7	Julio	2023-10-07T00:00:00	2024-11-08T15:00:00	1	Precipitación	0
64752	7	Sololá	717	San Juan la Laguna	12	San Juan la Laguna	7	Julio	2023-10-07T00:00:00	2024-11-08T15:00:00	8	Radiación solar	758
64753	7	Sololá	717	San Juan la Laguna	12	San Juan la Laguna	7	Julio	2023-10-07T00:00:00	2024-11-08T16:00:00	2	Temperatura media	23.6
64754	7	Sololá	717	San Juan la Laguna	12	San Juan la Laguna	7	Julio	2023-10-07T00:00:00	2024-11-08T16:00:00	4	Temperatura máxima	26.7
64755	7	Sololá	717	San Juan la Laguna	12	San Juan la Laguna	7	Julio	2023-10-07T00:00:00	2024-11-08T16:00:00	3	Temperatura mínima	23.6
64756	7	Sololá	717	San Juan la Laguna	12	San Juan la Laguna	7	Julio	2023-10-07T00:00:00	2024-11-08T16:00:00	5	Humedad	73
64757	7	Sololá	717	San Juan la Laguna	12	San Juan la Laguna	7	Julio	2023-10-07T00:00:00	2024-11-08T16:00:00	6	Velocidad del viento	11.3
64758	7	Sololá	717	San Juan la Laguna	12	San Juan la Laguna	7	Julio	2023-10-07T00:00:00	2024-11-08T16:00:00	7	Dirección del viento	11.27
64759	7	Sololá	717	San Juan la Laguna	12	San Juan la Laguna	7	Julio	2023-10-07T00:00:00	2024-11-08T16:00:00	1	Precipitación	0
64760	7	Sololá	717	San Juan la Laguna	12	San Juan la Laguna	7	Julio	2023-10-07T00:00:00	2024-11-08T16:00:00	8	Radiación solar	564
64761	7	Sololá	717	San Juan la Laguna	12	San Juan la Laguna	7	Julio	2023-10-07T00:00:00	2024-11-08T17:00:00	2	Temperatura media	21.9
64762	7	Sololá	717	San Juan la Laguna	12	San Juan la Laguna	7	Julio	2023-10-07T00:00:00	2024-11-08T17:00:00	4	Temperatura máxima	23.6
64763	7	Sololá	717	San Juan la Laguna	12	San Juan la Laguna	7	Julio	2023-10-07T00:00:00	2024-11-08T17:00:00	3	Temperatura mínima	21.8
64764	7	Sololá	717	San Juan la Laguna	12	San Juan la Laguna	7	Julio	2023-10-07T00:00:00	2024-11-08T17:00:00	5	Humedad	80
64765	7	Sololá	717	San Juan la Laguna	12	San Juan la Laguna	7	Julio	2023-10-07T00:00:00	2024-11-08T17:00:00	6	Velocidad del viento	6.4
64766	7	Sololá	717	San Juan la Laguna	12	San Juan la Laguna	7	Julio	2023-10-07T00:00:00	2024-11-08T17:00:00	7	Dirección del viento	6.44
64767	7	Sololá	717	San Juan la Laguna	12	San Juan la Laguna	7	Julio	2023-10-07T00:00:00	2024-11-08T17:00:00	1	Precipitación	0
64768	7	Sololá	717	San Juan la Laguna	12	San Juan la Laguna	7	Julio	2023-10-07T00:00:00	2024-11-08T17:00:00	8	Radiación solar	55
64769	7	Sololá	717	San Juan la Laguna	12	San Juan la Laguna	7	Julio	2023-10-07T00:00:00	2024-11-08T18:00:00	2	Temperatura media	21
64770	7	Sololá	717	San Juan la Laguna	12	San Juan la Laguna	7	Julio	2023-10-07T00:00:00	2024-11-08T18:00:00	4	Temperatura máxima	21.9
64771	7	Sololá	717	San Juan la Laguna	12	San Juan la Laguna	7	Julio	2023-10-07T00:00:00	2024-11-08T18:00:00	3	Temperatura mínima	20.9
64772	7	Sololá	717	San Juan la Laguna	12	San Juan la Laguna	7	Julio	2023-10-07T00:00:00	2024-11-08T18:00:00	5	Humedad	84
64773	7	Sololá	717	San Juan la Laguna	12	San Juan la Laguna	7	Julio	2023-10-07T00:00:00	2024-11-08T18:00:00	6	Velocidad del viento	1.6
64774	7	Sololá	717	San Juan la Laguna	12	San Juan la Laguna	7	Julio	2023-10-07T00:00:00	2024-11-08T18:00:00	7	Dirección del viento	1.61
64775	7	Sololá	717	San Juan la Laguna	12	San Juan la Laguna	7	Julio	2023-10-07T00:00:00	2024-11-08T18:00:00	1	Precipitación	0
64776	7	Sololá	717	San Juan la Laguna	12	San Juan la Laguna	7	Julio	2023-10-07T00:00:00	2024-11-08T18:00:00	8	Radiación solar	22
64777	7	Sololá	717	San Juan la Laguna	12	San Juan la Laguna	7	Julio	2023-10-07T00:00:00	2024-11-08T19:00:00	2	Temperatura media	21.1
64778	7	Sololá	717	San Juan la Laguna	12	San Juan la Laguna	7	Julio	2023-10-07T00:00:00	2024-11-08T19:00:00	4	Temperatura máxima	21.2
64779	7	Sololá	717	San Juan la Laguna	12	San Juan la Laguna	7	Julio	2023-10-07T00:00:00	2024-11-08T19:00:00	3	Temperatura mínima	20.8
64780	7	Sololá	717	San Juan la Laguna	12	San Juan la Laguna	7	Julio	2023-10-07T00:00:00	2024-11-08T19:00:00	5	Humedad	84
64781	7	Sololá	717	San Juan la Laguna	12	San Juan la Laguna	7	Julio	2023-10-07T00:00:00	2024-11-08T19:00:00	6	Velocidad del viento	0
64782	7	Sololá	717	San Juan la Laguna	12	San Juan la Laguna	7	Julio	2023-10-07T00:00:00	2024-11-08T19:00:00	7	Dirección del viento	0
64783	7	Sololá	717	San Juan la Laguna	12	San Juan la Laguna	7	Julio	2023-10-07T00:00:00	2024-11-08T19:00:00	1	Precipitación	0
64784	7	Sololá	717	San Juan la Laguna	12	San Juan la Laguna	7	Julio	2023-10-07T00:00:00	2024-11-08T19:00:00	8	Radiación solar	0
64785	7	Sololá	717	San Juan la Laguna	12	San Juan la Laguna	7	Julio	2023-10-07T00:00:00	2024-11-08T20:00:00	2	Temperatura media	17.4
64786	7	Sololá	717	San Juan la Laguna	12	San Juan la Laguna	7	Julio	2023-10-07T00:00:00	2024-11-08T20:00:00	4	Temperatura máxima	21
64787	7	Sololá	717	San Juan la Laguna	12	San Juan la Laguna	7	Julio	2023-10-07T00:00:00	2024-11-08T20:00:00	3	Temperatura mínima	17.4
64788	7	Sololá	717	San Juan la Laguna	12	San Juan la Laguna	7	Julio	2023-10-07T00:00:00	2024-11-08T20:00:00	5	Humedad	87
64789	7	Sololá	717	San Juan la Laguna	12	San Juan la Laguna	7	Julio	2023-10-07T00:00:00	2024-11-08T20:00:00	6	Velocidad del viento	4.8
64790	7	Sololá	717	San Juan la Laguna	12	San Juan la Laguna	7	Julio	2023-10-07T00:00:00	2024-11-08T20:00:00	7	Dirección del viento	4.83
64791	7	Sololá	717	San Juan la Laguna	12	San Juan la Laguna	7	Julio	2023-10-07T00:00:00	2024-11-08T20:00:00	1	Precipitación	1.2
64792	7	Sololá	717	San Juan la Laguna	12	San Juan la Laguna	7	Julio	2023-10-07T00:00:00	2024-11-08T20:00:00	8	Radiación solar	0
64793	7	Sololá	717	San Juan la Laguna	12	San Juan la Laguna	7	Julio	2023-10-07T00:00:00	2024-11-08T21:00:00	2	Temperatura media	17.3
64794	7	Sololá	717	San Juan la Laguna	12	San Juan la Laguna	7	Julio	2023-10-07T00:00:00	2024-11-08T21:00:00	4	Temperatura máxima	17.5
64795	7	Sololá	717	San Juan la Laguna	12	San Juan la Laguna	7	Julio	2023-10-07T00:00:00	2024-11-08T21:00:00	3	Temperatura mínima	16.8
64796	7	Sololá	717	San Juan la Laguna	12	San Juan la Laguna	7	Julio	2023-10-07T00:00:00	2024-11-08T21:00:00	5	Humedad	86
64797	7	Sololá	717	San Juan la Laguna	12	San Juan la Laguna	7	Julio	2023-10-07T00:00:00	2024-11-08T21:00:00	6	Velocidad del viento	3.2
64798	7	Sololá	717	San Juan la Laguna	12	San Juan la Laguna	7	Julio	2023-10-07T00:00:00	2024-11-08T21:00:00	7	Dirección del viento	3.22
64799	7	Sololá	717	San Juan la Laguna	12	San Juan la Laguna	7	Julio	2023-10-07T00:00:00	2024-11-08T21:00:00	1	Precipitación	0
64800	7	Sololá	717	San Juan la Laguna	12	San Juan la Laguna	7	Julio	2023-10-07T00:00:00	2024-11-08T21:00:00	8	Radiación solar	0
64801	7	Sololá	717	San Juan la Laguna	12	San Juan la Laguna	7	Julio	2023-10-07T00:00:00	2024-11-08T22:00:00	2	Temperatura media	16.9
64802	7	Sololá	717	San Juan la Laguna	12	San Juan la Laguna	7	Julio	2023-10-07T00:00:00	2024-11-08T22:00:00	4	Temperatura máxima	17.5
64803	7	Sololá	717	San Juan la Laguna	12	San Juan la Laguna	7	Julio	2023-10-07T00:00:00	2024-11-08T22:00:00	3	Temperatura mínima	16.8
64804	7	Sololá	717	San Juan la Laguna	12	San Juan la Laguna	7	Julio	2023-10-07T00:00:00	2024-11-08T22:00:00	5	Humedad	90
64805	7	Sololá	717	San Juan la Laguna	12	San Juan la Laguna	7	Julio	2023-10-07T00:00:00	2024-11-08T22:00:00	6	Velocidad del viento	1.6
64806	7	Sololá	717	San Juan la Laguna	12	San Juan la Laguna	7	Julio	2023-10-07T00:00:00	2024-11-08T22:00:00	7	Dirección del viento	1.61
64807	7	Sololá	717	San Juan la Laguna	12	San Juan la Laguna	7	Julio	2023-10-07T00:00:00	2024-11-08T22:00:00	1	Precipitación	0
64808	7	Sololá	717	San Juan la Laguna	12	San Juan la Laguna	7	Julio	2023-10-07T00:00:00	2024-11-08T22:00:00	8	Radiación solar	0
64809	7	Sololá	717	San Juan la Laguna	12	San Juan la Laguna	7	Julio	2023-10-07T00:00:00	2024-11-08T23:00:00	2	Temperatura media	17.3
64810	7	Sololá	717	San Juan la Laguna	12	San Juan la Laguna	7	Julio	2023-10-07T00:00:00	2024-11-08T23:00:00	4	Temperatura máxima	17.3
64811	7	Sololá	717	San Juan la Laguna	12	San Juan la Laguna	7	Julio	2023-10-07T00:00:00	2024-11-08T23:00:00	3	Temperatura mínima	16.8
64812	7	Sololá	717	San Juan la Laguna	12	San Juan la Laguna	7	Julio	2023-10-07T00:00:00	2024-11-08T23:00:00	5	Humedad	89
64813	7	Sololá	717	San Juan la Laguna	12	San Juan la Laguna	7	Julio	2023-10-07T00:00:00	2024-11-08T23:00:00	6	Velocidad del viento	1.6
64814	7	Sololá	717	San Juan la Laguna	12	San Juan la Laguna	7	Julio	2023-10-07T00:00:00	2024-11-08T23:00:00	7	Dirección del viento	1.61
64815	7	Sololá	717	San Juan la Laguna	12	San Juan la Laguna	7	Julio	2023-10-07T00:00:00	2024-11-08T23:00:00	1	Precipitación	0
64816	7	Sololá	717	San Juan la Laguna	12	San Juan la Laguna	7	Julio	2023-10-07T00:00:00	2024-11-08T23:00:00	8	Radiación solar	0
64817	7	Sololá	717	San Juan la Laguna	12	San Juan la Laguna	7	Julio	2023-11-07T00:00:00	2024-11-08T00:00:00	2	Temperatura media	17
64818	7	Sololá	717	San Juan la Laguna	12	San Juan la Laguna	7	Julio	2023-11-07T00:00:00	2024-11-08T00:00:00	4	Temperatura máxima	17.3
64819	7	Sololá	717	San Juan la Laguna	12	San Juan la Laguna	7	Julio	2023-11-07T00:00:00	2024-11-08T00:00:00	3	Temperatura mínima	16.8
64820	7	Sololá	717	San Juan la Laguna	12	San Juan la Laguna	7	Julio	2023-11-07T00:00:00	2024-11-08T00:00:00	5	Humedad	88
64821	7	Sololá	717	San Juan la Laguna	12	San Juan la Laguna	7	Julio	2023-11-07T00:00:00	2024-11-08T00:00:00	6	Velocidad del viento	1.6
64822	7	Sololá	717	San Juan la Laguna	12	San Juan la Laguna	7	Julio	2023-11-07T00:00:00	2024-11-08T00:00:00	7	Dirección del viento	1.61
64823	7	Sololá	717	San Juan la Laguna	12	San Juan la Laguna	7	Julio	2023-11-07T00:00:00	2024-11-08T00:00:00	1	Precipitación	0
64824	7	Sololá	717	San Juan la Laguna	12	San Juan la Laguna	7	Julio	2023-11-07T00:00:00	2024-11-08T00:00:00	8	Radiación solar	0
64825	7	Sololá	717	San Juan la Laguna	12	San Juan la Laguna	7	Julio	2023-11-07T00:00:00	2024-11-08T01:00:00	2	Temperatura media	16.8
64826	7	Sololá	717	San Juan la Laguna	12	San Juan la Laguna	7	Julio	2023-11-07T00:00:00	2024-11-08T01:00:00	4	Temperatura máxima	17.2
64827	7	Sololá	717	San Juan la Laguna	12	San Juan la Laguna	7	Julio	2023-11-07T00:00:00	2024-11-08T01:00:00	3	Temperatura mínima	16.8
64828	7	Sololá	717	San Juan la Laguna	12	San Juan la Laguna	7	Julio	2023-11-07T00:00:00	2024-11-08T01:00:00	5	Humedad	89
64829	7	Sololá	717	San Juan la Laguna	12	San Juan la Laguna	7	Julio	2023-11-07T00:00:00	2024-11-08T01:00:00	6	Velocidad del viento	3.2
64830	7	Sololá	717	San Juan la Laguna	12	San Juan la Laguna	7	Julio	2023-11-07T00:00:00	2024-11-08T01:00:00	7	Dirección del viento	3.22
64831	7	Sololá	717	San Juan la Laguna	12	San Juan la Laguna	7	Julio	2023-11-07T00:00:00	2024-11-08T01:00:00	1	Precipitación	0
64832	7	Sololá	717	San Juan la Laguna	12	San Juan la Laguna	7	Julio	2023-11-07T00:00:00	2024-11-08T01:00:00	8	Radiación solar	0
64833	7	Sololá	717	San Juan la Laguna	12	San Juan la Laguna	7	Julio	2023-11-07T00:00:00	2024-11-08T02:00:00	2	Temperatura media	16.9
64834	7	Sololá	717	San Juan la Laguna	12	San Juan la Laguna	7	Julio	2023-11-07T00:00:00	2024-11-08T02:00:00	4	Temperatura máxima	17.1
64835	7	Sololá	717	San Juan la Laguna	12	San Juan la Laguna	7	Julio	2023-11-07T00:00:00	2024-11-08T02:00:00	3	Temperatura mínima	16.7
64836	7	Sololá	717	San Juan la Laguna	12	San Juan la Laguna	7	Julio	2023-11-07T00:00:00	2024-11-08T02:00:00	5	Humedad	90
64837	7	Sololá	717	San Juan la Laguna	12	San Juan la Laguna	7	Julio	2023-11-07T00:00:00	2024-11-08T02:00:00	6	Velocidad del viento	1.6
64838	7	Sololá	717	San Juan la Laguna	12	San Juan la Laguna	7	Julio	2023-11-07T00:00:00	2024-11-08T02:00:00	7	Dirección del viento	1.61
64839	7	Sololá	717	San Juan la Laguna	12	San Juan la Laguna	7	Julio	2023-11-07T00:00:00	2024-11-08T02:00:00	1	Precipitación	0
64840	7	Sololá	717	San Juan la Laguna	12	San Juan la Laguna	7	Julio	2023-11-07T00:00:00	2024-11-08T02:00:00	8	Radiación solar	0
64841	7	Sololá	717	San Juan la Laguna	12	San Juan la Laguna	7	Julio	2023-11-07T00:00:00	2024-11-08T03:00:00	2	Temperatura media	16.7
64842	7	Sololá	717	San Juan la Laguna	12	San Juan la Laguna	7	Julio	2023-11-07T00:00:00	2024-11-08T03:00:00	4	Temperatura máxima	16.9
64843	7	Sololá	717	San Juan la Laguna	12	San Juan la Laguna	7	Julio	2023-11-07T00:00:00	2024-11-08T03:00:00	3	Temperatura mínima	16.4
64844	7	Sololá	717	San Juan la Laguna	12	San Juan la Laguna	7	Julio	2023-11-07T00:00:00	2024-11-08T03:00:00	5	Humedad	87
64845	7	Sololá	717	San Juan la Laguna	12	San Juan la Laguna	7	Julio	2023-11-07T00:00:00	2024-11-08T03:00:00	6	Velocidad del viento	3.2
64846	7	Sololá	717	San Juan la Laguna	12	San Juan la Laguna	7	Julio	2023-11-07T00:00:00	2024-11-08T03:00:00	7	Dirección del viento	3.22
64847	7	Sololá	717	San Juan la Laguna	12	San Juan la Laguna	7	Julio	2023-11-07T00:00:00	2024-11-08T03:00:00	1	Precipitación	0
64848	7	Sololá	717	San Juan la Laguna	12	San Juan la Laguna	7	Julio	2023-11-07T00:00:00	2024-11-08T03:00:00	8	Radiación solar	0
64849	7	Sololá	717	San Juan la Laguna	12	San Juan la Laguna	7	Julio	2023-11-07T00:00:00	2024-11-08T04:00:00	2	Temperatura media	16.1
64850	7	Sololá	717	San Juan la Laguna	12	San Juan la Laguna	7	Julio	2023-11-07T00:00:00	2024-11-08T04:00:00	4	Temperatura máxima	16.9
64851	7	Sololá	717	San Juan la Laguna	12	San Juan la Laguna	7	Julio	2023-11-07T00:00:00	2024-11-08T04:00:00	3	Temperatura mínima	16.1
64852	7	Sololá	717	San Juan la Laguna	12	San Juan la Laguna	7	Julio	2023-11-07T00:00:00	2024-11-08T04:00:00	5	Humedad	87
64853	7	Sololá	717	San Juan la Laguna	12	San Juan la Laguna	7	Julio	2023-11-07T00:00:00	2024-11-08T04:00:00	6	Velocidad del viento	3.2
64854	7	Sololá	717	San Juan la Laguna	12	San Juan la Laguna	7	Julio	2023-11-07T00:00:00	2024-11-08T04:00:00	7	Dirección del viento	3.22
64855	7	Sololá	717	San Juan la Laguna	12	San Juan la Laguna	7	Julio	2023-11-07T00:00:00	2024-11-08T04:00:00	1	Precipitación	0
64856	7	Sololá	717	San Juan la Laguna	12	San Juan la Laguna	7	Julio	2023-11-07T00:00:00	2024-11-08T04:00:00	8	Radiación solar	0
64857	7	Sololá	717	San Juan la Laguna	12	San Juan la Laguna	7	Julio	2023-11-07T00:00:00	2024-11-08T05:00:00	2	Temperatura media	15.6
64858	7	Sololá	717	San Juan la Laguna	12	San Juan la Laguna	7	Julio	2023-11-07T00:00:00	2024-11-08T05:00:00	4	Temperatura máxima	16.1
64859	7	Sololá	717	San Juan la Laguna	12	San Juan la Laguna	7	Julio	2023-11-07T00:00:00	2024-11-08T05:00:00	3	Temperatura mínima	15.4
64860	7	Sololá	717	San Juan la Laguna	12	San Juan la Laguna	7	Julio	2023-11-07T00:00:00	2024-11-08T05:00:00	5	Humedad	89
64861	7	Sololá	717	San Juan la Laguna	12	San Juan la Laguna	7	Julio	2023-11-07T00:00:00	2024-11-08T05:00:00	6	Velocidad del viento	1.6
64862	7	Sololá	717	San Juan la Laguna	12	San Juan la Laguna	7	Julio	2023-11-07T00:00:00	2024-11-08T05:00:00	7	Dirección del viento	1.61
64863	7	Sololá	717	San Juan la Laguna	12	San Juan la Laguna	7	Julio	2023-11-07T00:00:00	2024-11-08T05:00:00	1	Precipitación	0
64864	7	Sololá	717	San Juan la Laguna	12	San Juan la Laguna	7	Julio	2023-11-07T00:00:00	2024-11-08T05:00:00	8	Radiación solar	0
64865	7	Sololá	717	San Juan la Laguna	12	San Juan la Laguna	7	Julio	2023-11-07T00:00:00	2024-11-08T06:00:00	2	Temperatura media	16
64866	7	Sololá	717	San Juan la Laguna	12	San Juan la Laguna	7	Julio	2023-11-07T00:00:00	2024-11-08T06:00:00	4	Temperatura máxima	16.2
64867	7	Sololá	717	San Juan la Laguna	12	San Juan la Laguna	7	Julio	2023-11-07T00:00:00	2024-11-08T06:00:00	3	Temperatura mínima	15.6
64868	7	Sololá	717	San Juan la Laguna	12	San Juan la Laguna	7	Julio	2023-11-07T00:00:00	2024-11-08T06:00:00	5	Humedad	87
64869	7	Sololá	717	San Juan la Laguna	12	San Juan la Laguna	7	Julio	2023-11-07T00:00:00	2024-11-08T06:00:00	6	Velocidad del viento	3.2
64870	7	Sololá	717	San Juan la Laguna	12	San Juan la Laguna	7	Julio	2023-11-07T00:00:00	2024-11-08T06:00:00	7	Dirección del viento	3.22
64871	7	Sololá	717	San Juan la Laguna	12	San Juan la Laguna	7	Julio	2023-11-07T00:00:00	2024-11-08T06:00:00	1	Precipitación	0
64872	7	Sololá	717	San Juan la Laguna	12	San Juan la Laguna	7	Julio	2023-11-07T00:00:00	2024-11-08T06:00:00	8	Radiación solar	2
64873	7	Sololá	717	San Juan la Laguna	12	San Juan la Laguna	7	Julio	2023-11-07T00:00:00	2024-11-08T07:00:00	2	Temperatura media	17.3
64874	7	Sololá	717	San Juan la Laguna	12	San Juan la Laguna	7	Julio	2023-11-07T00:00:00	2024-11-08T07:00:00	4	Temperatura máxima	17.3
64875	7	Sololá	717	San Juan la Laguna	12	San Juan la Laguna	7	Julio	2023-11-07T00:00:00	2024-11-08T07:00:00	3	Temperatura mínima	15.9
64876	7	Sololá	717	San Juan la Laguna	12	San Juan la Laguna	7	Julio	2023-11-07T00:00:00	2024-11-08T07:00:00	5	Humedad	88
64877	7	Sololá	717	San Juan la Laguna	12	San Juan la Laguna	7	Julio	2023-11-07T00:00:00	2024-11-08T07:00:00	6	Velocidad del viento	1.6
64878	7	Sololá	717	San Juan la Laguna	12	San Juan la Laguna	7	Julio	2023-11-07T00:00:00	2024-11-08T07:00:00	7	Dirección del viento	1.61
64879	7	Sololá	717	San Juan la Laguna	12	San Juan la Laguna	7	Julio	2023-11-07T00:00:00	2024-11-08T07:00:00	1	Precipitación	0
64880	7	Sololá	717	San Juan la Laguna	12	San Juan la Laguna	7	Julio	2023-11-07T00:00:00	2024-11-08T07:00:00	8	Radiación solar	65
64881	7	Sololá	717	San Juan la Laguna	12	San Juan la Laguna	7	Julio	2023-11-07T00:00:00	2024-11-08T08:00:00	2	Temperatura media	22.7
64882	7	Sololá	717	San Juan la Laguna	12	San Juan la Laguna	7	Julio	2023-11-07T00:00:00	2024-11-08T08:00:00	4	Temperatura máxima	22.7
64883	7	Sololá	717	San Juan la Laguna	12	San Juan la Laguna	7	Julio	2023-11-07T00:00:00	2024-11-08T08:00:00	3	Temperatura mínima	17.3
64884	7	Sololá	717	San Juan la Laguna	12	San Juan la Laguna	7	Julio	2023-11-07T00:00:00	2024-11-08T08:00:00	5	Humedad	64
64885	7	Sololá	717	San Juan la Laguna	12	San Juan la Laguna	7	Julio	2023-11-07T00:00:00	2024-11-08T08:00:00	6	Velocidad del viento	3.2
64886	7	Sololá	717	San Juan la Laguna	12	San Juan la Laguna	7	Julio	2023-11-07T00:00:00	2024-11-08T08:00:00	7	Dirección del viento	3.22
64887	7	Sololá	717	San Juan la Laguna	12	San Juan la Laguna	7	Julio	2023-11-07T00:00:00	2024-11-08T08:00:00	1	Precipitación	0
64888	7	Sololá	717	San Juan la Laguna	12	San Juan la Laguna	7	Julio	2023-11-07T00:00:00	2024-11-08T08:00:00	8	Radiación solar	267
64889	7	Sololá	717	San Juan la Laguna	12	San Juan la Laguna	7	Julio	2023-11-07T00:00:00	2024-11-08T09:00:00	2	Temperatura media	24.3
64890	7	Sololá	717	San Juan la Laguna	12	San Juan la Laguna	7	Julio	2023-11-07T00:00:00	2024-11-08T09:00:00	4	Temperatura máxima	24.3
64891	7	Sololá	717	San Juan la Laguna	12	San Juan la Laguna	7	Julio	2023-11-07T00:00:00	2024-11-08T09:00:00	3	Temperatura mínima	22.4
64892	7	Sololá	717	San Juan la Laguna	12	San Juan la Laguna	7	Julio	2023-11-07T00:00:00	2024-11-08T09:00:00	5	Humedad	57
64893	7	Sololá	717	San Juan la Laguna	12	San Juan la Laguna	7	Julio	2023-11-07T00:00:00	2024-11-08T09:00:00	6	Velocidad del viento	6.4
64894	7	Sololá	717	San Juan la Laguna	12	San Juan la Laguna	7	Julio	2023-11-07T00:00:00	2024-11-08T09:00:00	7	Dirección del viento	6.44
64895	7	Sololá	717	San Juan la Laguna	12	San Juan la Laguna	7	Julio	2023-11-07T00:00:00	2024-11-08T09:00:00	1	Precipitación	0
64896	7	Sololá	717	San Juan la Laguna	12	San Juan la Laguna	7	Julio	2023-11-07T00:00:00	2024-11-08T09:00:00	8	Radiación solar	378
64897	7	Sololá	717	San Juan la Laguna	12	San Juan la Laguna	7	Julio	2023-11-07T00:00:00	2024-11-08T10:00:00	2	Temperatura media	24.7
64898	7	Sololá	717	San Juan la Laguna	12	San Juan la Laguna	7	Julio	2023-11-07T00:00:00	2024-11-08T10:00:00	4	Temperatura máxima	25.4
64899	7	Sololá	717	San Juan la Laguna	12	San Juan la Laguna	7	Julio	2023-11-07T00:00:00	2024-11-08T10:00:00	3	Temperatura mínima	24.3
64900	7	Sololá	717	San Juan la Laguna	12	San Juan la Laguna	7	Julio	2023-11-07T00:00:00	2024-11-08T10:00:00	5	Humedad	56
64901	7	Sololá	717	San Juan la Laguna	12	San Juan la Laguna	7	Julio	2023-11-07T00:00:00	2024-11-08T10:00:00	6	Velocidad del viento	8
64902	7	Sololá	717	San Juan la Laguna	12	San Juan la Laguna	7	Julio	2023-11-07T00:00:00	2024-11-08T10:00:00	7	Dirección del viento	8.05
64903	7	Sololá	717	San Juan la Laguna	12	San Juan la Laguna	7	Julio	2023-11-07T00:00:00	2024-11-08T10:00:00	1	Precipitación	0
64904	7	Sololá	717	San Juan la Laguna	12	San Juan la Laguna	7	Julio	2023-11-07T00:00:00	2024-11-08T10:00:00	8	Radiación solar	476
64905	7	Sololá	717	San Juan la Laguna	12	San Juan la Laguna	7	Julio	2023-11-07T00:00:00	2024-11-08T11:00:00	2	Temperatura media	24.6
64906	7	Sololá	717	San Juan la Laguna	12	San Juan la Laguna	7	Julio	2023-11-07T00:00:00	2024-11-08T11:00:00	4	Temperatura máxima	24.7
64907	7	Sololá	717	San Juan la Laguna	12	San Juan la Laguna	7	Julio	2023-11-07T00:00:00	2024-11-08T11:00:00	3	Temperatura mínima	24.3
64908	7	Sololá	717	San Juan la Laguna	12	San Juan la Laguna	7	Julio	2023-11-07T00:00:00	2024-11-08T11:00:00	5	Humedad	56
64909	7	Sololá	717	San Juan la Laguna	12	San Juan la Laguna	7	Julio	2023-11-07T00:00:00	2024-11-08T11:00:00	6	Velocidad del viento	11.3
64910	7	Sololá	717	San Juan la Laguna	12	San Juan la Laguna	7	Julio	2023-11-07T00:00:00	2024-11-08T11:00:00	7	Dirección del viento	11.27
64911	7	Sololá	717	San Juan la Laguna	12	San Juan la Laguna	7	Julio	2023-11-07T00:00:00	2024-11-08T11:00:00	1	Precipitación	0
64912	7	Sololá	717	San Juan la Laguna	12	San Juan la Laguna	7	Julio	2023-11-07T00:00:00	2024-11-08T11:00:00	8	Radiación solar	364
64913	7	Sololá	717	San Juan la Laguna	12	San Juan la Laguna	7	Julio	2023-11-07T00:00:00	2024-11-08T12:00:00	2	Temperatura media	26.1
64914	7	Sololá	717	San Juan la Laguna	12	San Juan la Laguna	7	Julio	2023-11-07T00:00:00	2024-11-08T12:00:00	4	Temperatura máxima	26.1
64915	7	Sololá	717	San Juan la Laguna	12	San Juan la Laguna	7	Julio	2023-11-07T00:00:00	2024-11-08T12:00:00	3	Temperatura mínima	24.6
64916	7	Sololá	717	San Juan la Laguna	12	San Juan la Laguna	7	Julio	2023-11-07T00:00:00	2024-11-08T12:00:00	5	Humedad	53
64917	7	Sololá	717	San Juan la Laguna	12	San Juan la Laguna	7	Julio	2023-11-07T00:00:00	2024-11-08T12:00:00	6	Velocidad del viento	4.8
64918	7	Sololá	717	San Juan la Laguna	12	San Juan la Laguna	7	Julio	2023-11-07T00:00:00	2024-11-08T12:00:00	7	Dirección del viento	4.83
64919	7	Sololá	717	San Juan la Laguna	12	San Juan la Laguna	7	Julio	2023-11-07T00:00:00	2024-11-08T12:00:00	1	Precipitación	0
64920	7	Sololá	717	San Juan la Laguna	12	San Juan la Laguna	7	Julio	2023-11-07T00:00:00	2024-11-08T12:00:00	8	Radiación solar	489
64921	7	Sololá	717	San Juan la Laguna	12	San Juan la Laguna	7	Julio	2023-11-07T00:00:00	2024-11-08T13:00:00	2	Temperatura media	26.5
64922	7	Sololá	717	San Juan la Laguna	12	San Juan la Laguna	7	Julio	2023-11-07T00:00:00	2024-11-08T13:00:00	4	Temperatura máxima	26.6
64923	7	Sololá	717	San Juan la Laguna	12	San Juan la Laguna	7	Julio	2023-11-07T00:00:00	2024-11-08T13:00:00	3	Temperatura mínima	25.7
64924	7	Sololá	717	San Juan la Laguna	12	San Juan la Laguna	7	Julio	2023-11-07T00:00:00	2024-11-08T13:00:00	5	Humedad	51
64925	7	Sololá	717	San Juan la Laguna	12	San Juan la Laguna	7	Julio	2023-11-07T00:00:00	2024-11-08T13:00:00	6	Velocidad del viento	1.6
64926	7	Sololá	717	San Juan la Laguna	12	San Juan la Laguna	7	Julio	2023-11-07T00:00:00	2024-11-08T13:00:00	7	Dirección del viento	1.61
64927	7	Sololá	717	San Juan la Laguna	12	San Juan la Laguna	7	Julio	2023-11-07T00:00:00	2024-11-08T13:00:00	1	Precipitación	0
64928	7	Sololá	717	San Juan la Laguna	12	San Juan la Laguna	7	Julio	2023-11-07T00:00:00	2024-11-08T13:00:00	8	Radiación solar	459
64929	7	Sololá	717	San Juan la Laguna	12	San Juan la Laguna	7	Julio	2023-11-07T00:00:00	2024-11-08T14:00:00	2	Temperatura media	27.8
64930	7	Sololá	717	San Juan la Laguna	12	San Juan la Laguna	7	Julio	2023-11-07T00:00:00	2024-11-08T14:00:00	4	Temperatura máxima	28.7
64931	7	Sololá	717	San Juan la Laguna	12	San Juan la Laguna	7	Julio	2023-11-07T00:00:00	2024-11-08T14:00:00	3	Temperatura mínima	26.4
64932	7	Sololá	717	San Juan la Laguna	12	San Juan la Laguna	7	Julio	2023-11-07T00:00:00	2024-11-08T14:00:00	5	Humedad	48
64933	7	Sololá	717	San Juan la Laguna	12	San Juan la Laguna	7	Julio	2023-11-07T00:00:00	2024-11-08T14:00:00	6	Velocidad del viento	1.6
64934	7	Sololá	717	San Juan la Laguna	12	San Juan la Laguna	7	Julio	2023-11-07T00:00:00	2024-11-08T14:00:00	7	Dirección del viento	1.61
64935	7	Sololá	717	San Juan la Laguna	12	San Juan la Laguna	7	Julio	2023-11-07T00:00:00	2024-11-08T14:00:00	1	Precipitación	0
64936	7	Sololá	717	San Juan la Laguna	12	San Juan la Laguna	7	Julio	2023-11-07T00:00:00	2024-11-08T14:00:00	8	Radiación solar	848
64937	7	Sololá	717	San Juan la Laguna	12	San Juan la Laguna	7	Julio	2023-11-07T00:00:00	2024-11-08T15:00:00	2	Temperatura media	26.3
64938	7	Sololá	717	San Juan la Laguna	12	San Juan la Laguna	7	Julio	2023-11-07T00:00:00	2024-11-08T15:00:00	4	Temperatura máxima	27.8
64939	7	Sololá	717	San Juan la Laguna	12	San Juan la Laguna	7	Julio	2023-11-07T00:00:00	2024-11-08T15:00:00	3	Temperatura mínima	26.2
64940	7	Sololá	717	San Juan la Laguna	12	San Juan la Laguna	7	Julio	2023-11-07T00:00:00	2024-11-08T15:00:00	5	Humedad	50
64941	7	Sololá	717	San Juan la Laguna	12	San Juan la Laguna	7	Julio	2023-11-07T00:00:00	2024-11-08T15:00:00	6	Velocidad del viento	3.2
64942	7	Sololá	717	San Juan la Laguna	12	San Juan la Laguna	7	Julio	2023-11-07T00:00:00	2024-11-08T15:00:00	7	Dirección del viento	3.22
64943	7	Sololá	717	San Juan la Laguna	12	San Juan la Laguna	7	Julio	2023-11-07T00:00:00	2024-11-08T15:00:00	1	Precipitación	0
64944	7	Sololá	717	San Juan la Laguna	12	San Juan la Laguna	7	Julio	2023-11-07T00:00:00	2024-11-08T15:00:00	8	Radiación solar	403
64945	7	Sololá	717	San Juan la Laguna	12	San Juan la Laguna	7	Julio	2023-11-07T00:00:00	2024-11-08T16:00:00	2	Temperatura media	26.9
64946	7	Sololá	717	San Juan la Laguna	12	San Juan la Laguna	7	Julio	2023-11-07T00:00:00	2024-11-08T16:00:00	4	Temperatura máxima	27.2
64947	7	Sololá	717	San Juan la Laguna	12	San Juan la Laguna	7	Julio	2023-11-07T00:00:00	2024-11-08T16:00:00	3	Temperatura mínima	26.3
64948	7	Sololá	717	San Juan la Laguna	12	San Juan la Laguna	7	Julio	2023-11-07T00:00:00	2024-11-08T16:00:00	5	Humedad	48
64949	7	Sololá	717	San Juan la Laguna	12	San Juan la Laguna	7	Julio	2023-11-07T00:00:00	2024-11-08T16:00:00	6	Velocidad del viento	3.2
64950	7	Sololá	717	San Juan la Laguna	12	San Juan la Laguna	7	Julio	2023-11-07T00:00:00	2024-11-08T16:00:00	7	Dirección del viento	3.22
64951	7	Sololá	717	San Juan la Laguna	12	San Juan la Laguna	7	Julio	2023-11-07T00:00:00	2024-11-08T16:00:00	1	Precipitación	0
64952	7	Sololá	717	San Juan la Laguna	12	San Juan la Laguna	7	Julio	2023-11-07T00:00:00	2024-11-08T16:00:00	8	Radiación solar	595
64953	7	Sololá	717	San Juan la Laguna	12	San Juan la Laguna	7	Julio	2023-11-07T00:00:00	2024-11-08T17:00:00	2	Temperatura media	25.7
64954	7	Sololá	717	San Juan la Laguna	12	San Juan la Laguna	7	Julio	2023-11-07T00:00:00	2024-11-08T17:00:00	4	Temperatura máxima	26.9
64955	7	Sololá	717	San Juan la Laguna	12	San Juan la Laguna	7	Julio	2023-11-07T00:00:00	2024-11-08T17:00:00	3	Temperatura mínima	25.6
64956	7	Sololá	717	San Juan la Laguna	12	San Juan la Laguna	7	Julio	2023-11-07T00:00:00	2024-11-08T17:00:00	5	Humedad	55
64957	7	Sololá	717	San Juan la Laguna	12	San Juan la Laguna	7	Julio	2023-11-07T00:00:00	2024-11-08T17:00:00	6	Velocidad del viento	3.2
64958	7	Sololá	717	San Juan la Laguna	12	San Juan la Laguna	7	Julio	2023-11-07T00:00:00	2024-11-08T17:00:00	7	Dirección del viento	3.22
64959	7	Sololá	717	San Juan la Laguna	12	San Juan la Laguna	7	Julio	2023-11-07T00:00:00	2024-11-08T17:00:00	1	Precipitación	0
64960	7	Sololá	717	San Juan la Laguna	12	San Juan la Laguna	7	Julio	2023-11-07T00:00:00	2024-11-08T17:00:00	8	Radiación solar	185
64961	7	Sololá	717	San Juan la Laguna	12	San Juan la Laguna	7	Julio	2023-11-07T00:00:00	2024-11-08T18:00:00	2	Temperatura media	24.7
64962	7	Sololá	717	San Juan la Laguna	12	San Juan la Laguna	7	Julio	2023-11-07T00:00:00	2024-11-08T18:00:00	4	Temperatura máxima	25.6
64963	7	Sololá	717	San Juan la Laguna	12	San Juan la Laguna	7	Julio	2023-11-07T00:00:00	2024-11-08T18:00:00	3	Temperatura mínima	24.7
64964	7	Sololá	717	San Juan la Laguna	12	San Juan la Laguna	7	Julio	2023-11-07T00:00:00	2024-11-08T18:00:00	5	Humedad	57
64965	7	Sololá	717	San Juan la Laguna	12	San Juan la Laguna	7	Julio	2023-11-07T00:00:00	2024-11-08T18:00:00	6	Velocidad del viento	1.6
64966	7	Sololá	717	San Juan la Laguna	12	San Juan la Laguna	7	Julio	2023-11-07T00:00:00	2024-11-08T18:00:00	7	Dirección del viento	1.61
64967	7	Sololá	717	San Juan la Laguna	12	San Juan la Laguna	7	Julio	2023-11-07T00:00:00	2024-11-08T18:00:00	1	Precipitación	0
64968	7	Sololá	717	San Juan la Laguna	12	San Juan la Laguna	7	Julio	2023-11-07T00:00:00	2024-11-08T18:00:00	8	Radiación solar	37
64969	7	Sololá	717	San Juan la Laguna	12	San Juan la Laguna	7	Julio	2023-11-07T00:00:00	2024-11-08T19:00:00	2	Temperatura media	23.6
64970	7	Sololá	717	San Juan la Laguna	12	San Juan la Laguna	7	Julio	2023-11-07T00:00:00	2024-11-08T19:00:00	4	Temperatura máxima	24.7
64971	7	Sololá	717	San Juan la Laguna	12	San Juan la Laguna	7	Julio	2023-11-07T00:00:00	2024-11-08T19:00:00	3	Temperatura mínima	23.6
64972	7	Sololá	717	San Juan la Laguna	12	San Juan la Laguna	7	Julio	2023-11-07T00:00:00	2024-11-08T19:00:00	5	Humedad	61
64973	7	Sololá	717	San Juan la Laguna	12	San Juan la Laguna	7	Julio	2023-11-07T00:00:00	2024-11-08T19:00:00	6	Velocidad del viento	4.8
64974	7	Sololá	717	San Juan la Laguna	12	San Juan la Laguna	7	Julio	2023-11-07T00:00:00	2024-11-08T19:00:00	7	Dirección del viento	4.83
64975	7	Sololá	717	San Juan la Laguna	12	San Juan la Laguna	7	Julio	2023-11-07T00:00:00	2024-11-08T19:00:00	1	Precipitación	0
64976	7	Sololá	717	San Juan la Laguna	12	San Juan la Laguna	7	Julio	2023-11-07T00:00:00	2024-11-08T19:00:00	8	Radiación solar	0
64977	7	Sololá	717	San Juan la Laguna	12	San Juan la Laguna	7	Julio	2023-11-07T00:00:00	2024-11-08T20:00:00	2	Temperatura media	23
64978	7	Sololá	717	San Juan la Laguna	12	San Juan la Laguna	7	Julio	2023-11-07T00:00:00	2024-11-08T20:00:00	4	Temperatura máxima	23.6
64979	7	Sololá	717	San Juan la Laguna	12	San Juan la Laguna	7	Julio	2023-11-07T00:00:00	2024-11-08T20:00:00	3	Temperatura mínima	23
64980	7	Sololá	717	San Juan la Laguna	12	San Juan la Laguna	7	Julio	2023-11-07T00:00:00	2024-11-08T20:00:00	5	Humedad	62
64981	7	Sololá	717	San Juan la Laguna	12	San Juan la Laguna	7	Julio	2023-11-07T00:00:00	2024-11-08T20:00:00	6	Velocidad del viento	4.8
64982	7	Sololá	717	San Juan la Laguna	12	San Juan la Laguna	7	Julio	2023-11-07T00:00:00	2024-11-08T20:00:00	7	Dirección del viento	4.83
64983	7	Sololá	717	San Juan la Laguna	12	San Juan la Laguna	7	Julio	2023-11-07T00:00:00	2024-11-08T20:00:00	1	Precipitación	0
64984	7	Sololá	717	San Juan la Laguna	12	San Juan la Laguna	7	Julio	2023-11-07T00:00:00	2024-11-08T20:00:00	8	Radiación solar	0
64985	7	Sololá	717	San Juan la Laguna	12	San Juan la Laguna	7	Julio	2023-11-07T00:00:00	2024-11-08T21:00:00	2	Temperatura media	22.4
64986	7	Sololá	717	San Juan la Laguna	12	San Juan la Laguna	7	Julio	2023-11-07T00:00:00	2024-11-08T21:00:00	4	Temperatura máxima	23
64987	7	Sololá	717	San Juan la Laguna	12	San Juan la Laguna	7	Julio	2023-11-07T00:00:00	2024-11-08T21:00:00	3	Temperatura mínima	22.3
64988	7	Sololá	717	San Juan la Laguna	12	San Juan la Laguna	7	Julio	2023-11-07T00:00:00	2024-11-08T21:00:00	5	Humedad	65
64989	7	Sololá	717	San Juan la Laguna	12	San Juan la Laguna	7	Julio	2023-11-07T00:00:00	2024-11-08T21:00:00	6	Velocidad del viento	8
64990	7	Sololá	717	San Juan la Laguna	12	San Juan la Laguna	7	Julio	2023-11-07T00:00:00	2024-11-08T21:00:00	7	Dirección del viento	8.05
64991	7	Sololá	717	San Juan la Laguna	12	San Juan la Laguna	7	Julio	2023-11-07T00:00:00	2024-11-08T21:00:00	1	Precipitación	0
64992	7	Sololá	717	San Juan la Laguna	12	San Juan la Laguna	7	Julio	2023-11-07T00:00:00	2024-11-08T21:00:00	8	Radiación solar	0
64993	7	Sololá	717	San Juan la Laguna	12	San Juan la Laguna	7	Julio	2023-11-07T00:00:00	2024-11-08T22:00:00	2	Temperatura media	22.2
64994	7	Sololá	717	San Juan la Laguna	12	San Juan la Laguna	7	Julio	2023-11-07T00:00:00	2024-11-08T22:00:00	4	Temperatura máxima	22.4
64995	7	Sololá	717	San Juan la Laguna	12	San Juan la Laguna	7	Julio	2023-11-07T00:00:00	2024-11-08T22:00:00	3	Temperatura mínima	22
64996	7	Sololá	717	San Juan la Laguna	12	San Juan la Laguna	7	Julio	2023-11-07T00:00:00	2024-11-08T22:00:00	5	Humedad	65
64997	7	Sololá	717	San Juan la Laguna	12	San Juan la Laguna	7	Julio	2023-11-07T00:00:00	2024-11-08T22:00:00	6	Velocidad del viento	9.7
64998	7	Sololá	717	San Juan la Laguna	12	San Juan la Laguna	7	Julio	2023-11-07T00:00:00	2024-11-08T22:00:00	7	Dirección del viento	9.66
64999	7	Sololá	717	San Juan la Laguna	12	San Juan la Laguna	7	Julio	2023-11-07T00:00:00	2024-11-08T22:00:00	1	Precipitación	0
65000	7	Sololá	717	San Juan la Laguna	12	San Juan la Laguna	7	Julio	2023-11-07T00:00:00	2024-11-08T22:00:00	8	Radiación solar	0
65001	7	Sololá	717	San Juan la Laguna	12	San Juan la Laguna	7	Julio	2023-11-07T00:00:00	2024-11-08T23:00:00	2	Temperatura media	22.7
65002	7	Sololá	717	San Juan la Laguna	12	San Juan la Laguna	7	Julio	2023-11-07T00:00:00	2024-11-08T23:00:00	4	Temperatura máxima	22.8
65003	7	Sololá	717	San Juan la Laguna	12	San Juan la Laguna	7	Julio	2023-11-07T00:00:00	2024-11-08T23:00:00	3	Temperatura mínima	22.1
65004	7	Sololá	717	San Juan la Laguna	12	San Juan la Laguna	7	Julio	2023-11-07T00:00:00	2024-11-08T23:00:00	5	Humedad	61
65005	7	Sololá	717	San Juan la Laguna	12	San Juan la Laguna	7	Julio	2023-11-07T00:00:00	2024-11-08T23:00:00	6	Velocidad del viento	6.4
65006	7	Sololá	717	San Juan la Laguna	12	San Juan la Laguna	7	Julio	2023-11-07T00:00:00	2024-11-08T23:00:00	7	Dirección del viento	6.44
65007	7	Sololá	717	San Juan la Laguna	12	San Juan la Laguna	7	Julio	2023-11-07T00:00:00	2024-11-08T23:00:00	1	Precipitación	0
65008	7	Sololá	717	San Juan la Laguna	12	San Juan la Laguna	7	Julio	2023-11-07T00:00:00	2024-11-08T23:00:00	8	Radiación solar	0
65009	7	Sololá	717	San Juan la Laguna	12	San Juan la Laguna	7	Julio	2023-12-07T00:00:00	2024-11-08T00:00:00	2	Temperatura media	21.9
65010	7	Sololá	717	San Juan la Laguna	12	San Juan la Laguna	7	Julio	2023-12-07T00:00:00	2024-11-08T00:00:00	4	Temperatura máxima	22.7
65011	7	Sololá	717	San Juan la Laguna	12	San Juan la Laguna	7	Julio	2023-12-07T00:00:00	2024-11-08T00:00:00	3	Temperatura mínima	21.6
65012	7	Sololá	717	San Juan la Laguna	12	San Juan la Laguna	7	Julio	2023-12-07T00:00:00	2024-11-08T00:00:00	5	Humedad	65
65013	7	Sololá	717	San Juan la Laguna	12	San Juan la Laguna	7	Julio	2023-12-07T00:00:00	2024-11-08T00:00:00	6	Velocidad del viento	4.8
65014	7	Sololá	717	San Juan la Laguna	12	San Juan la Laguna	7	Julio	2023-12-07T00:00:00	2024-11-08T00:00:00	7	Dirección del viento	4.83
65015	7	Sololá	717	San Juan la Laguna	12	San Juan la Laguna	7	Julio	2023-12-07T00:00:00	2024-11-08T00:00:00	1	Precipitación	0
65016	7	Sololá	717	San Juan la Laguna	12	San Juan la Laguna	7	Julio	2023-12-07T00:00:00	2024-11-08T00:00:00	8	Radiación solar	0
65017	7	Sololá	717	San Juan la Laguna	12	San Juan la Laguna	7	Julio	2023-12-07T00:00:00	2024-11-08T01:00:00	2	Temperatura media	19.7
65018	7	Sololá	717	San Juan la Laguna	12	San Juan la Laguna	7	Julio	2023-12-07T00:00:00	2024-11-08T01:00:00	4	Temperatura máxima	21.9
65019	7	Sololá	717	San Juan la Laguna	12	San Juan la Laguna	7	Julio	2023-12-07T00:00:00	2024-11-08T01:00:00	3	Temperatura mínima	19.7
65020	7	Sololá	717	San Juan la Laguna	12	San Juan la Laguna	7	Julio	2023-12-07T00:00:00	2024-11-08T01:00:00	5	Humedad	72
65021	7	Sololá	717	San Juan la Laguna	12	San Juan la Laguna	7	Julio	2023-12-07T00:00:00	2024-11-08T01:00:00	6	Velocidad del viento	3.2
65022	7	Sololá	717	San Juan la Laguna	12	San Juan la Laguna	7	Julio	2023-12-07T00:00:00	2024-11-08T01:00:00	7	Dirección del viento	3.22
65023	7	Sololá	717	San Juan la Laguna	12	San Juan la Laguna	7	Julio	2023-12-07T00:00:00	2024-11-08T01:00:00	1	Precipitación	0
65024	7	Sololá	717	San Juan la Laguna	12	San Juan la Laguna	7	Julio	2023-12-07T00:00:00	2024-11-08T01:00:00	8	Radiación solar	0
65025	7	Sololá	717	San Juan la Laguna	12	San Juan la Laguna	7	Julio	2023-12-07T00:00:00	2024-11-08T02:00:00	2	Temperatura media	17.1
65026	7	Sololá	717	San Juan la Laguna	12	San Juan la Laguna	7	Julio	2023-12-07T00:00:00	2024-11-08T02:00:00	4	Temperatura máxima	19.7
65027	7	Sololá	717	San Juan la Laguna	12	San Juan la Laguna	7	Julio	2023-12-07T00:00:00	2024-11-08T02:00:00	3	Temperatura mínima	17.1
65028	7	Sololá	717	San Juan la Laguna	12	San Juan la Laguna	7	Julio	2023-12-07T00:00:00	2024-11-08T02:00:00	5	Humedad	82
65029	7	Sololá	717	San Juan la Laguna	12	San Juan la Laguna	7	Julio	2023-12-07T00:00:00	2024-11-08T02:00:00	6	Velocidad del viento	0
65030	7	Sololá	717	San Juan la Laguna	12	San Juan la Laguna	7	Julio	2023-12-07T00:00:00	2024-11-08T02:00:00	7	Dirección del viento	0
65031	7	Sololá	717	San Juan la Laguna	12	San Juan la Laguna	7	Julio	2023-12-07T00:00:00	2024-11-08T02:00:00	1	Precipitación	0
65032	7	Sololá	717	San Juan la Laguna	12	San Juan la Laguna	7	Julio	2023-12-07T00:00:00	2024-11-08T02:00:00	8	Radiación solar	0
65033	7	Sololá	717	San Juan la Laguna	12	San Juan la Laguna	7	Julio	2023-12-07T00:00:00	2024-11-08T03:00:00	2	Temperatura media	18.5
65034	7	Sololá	717	San Juan la Laguna	12	San Juan la Laguna	7	Julio	2023-12-07T00:00:00	2024-11-08T03:00:00	4	Temperatura máxima	18.5
65035	7	Sololá	717	San Juan la Laguna	12	San Juan la Laguna	7	Julio	2023-12-07T00:00:00	2024-11-08T03:00:00	3	Temperatura mínima	16.8
65036	7	Sololá	717	San Juan la Laguna	12	San Juan la Laguna	7	Julio	2023-12-07T00:00:00	2024-11-08T03:00:00	5	Humedad	79
65037	7	Sololá	717	San Juan la Laguna	12	San Juan la Laguna	7	Julio	2023-12-07T00:00:00	2024-11-08T03:00:00	6	Velocidad del viento	1.6
65038	7	Sololá	717	San Juan la Laguna	12	San Juan la Laguna	7	Julio	2023-12-07T00:00:00	2024-11-08T03:00:00	7	Dirección del viento	1.61
65039	7	Sololá	717	San Juan la Laguna	12	San Juan la Laguna	7	Julio	2023-12-07T00:00:00	2024-11-08T03:00:00	1	Precipitación	0
65040	7	Sololá	717	San Juan la Laguna	12	San Juan la Laguna	7	Julio	2023-12-07T00:00:00	2024-11-08T03:00:00	8	Radiación solar	0
65041	7	Sololá	717	San Juan la Laguna	12	San Juan la Laguna	7	Julio	2023-12-07T00:00:00	2024-11-08T04:00:00	2	Temperatura media	20.8
65042	7	Sololá	717	San Juan la Laguna	12	San Juan la Laguna	7	Julio	2023-12-07T00:00:00	2024-11-08T04:00:00	4	Temperatura máxima	21
65043	7	Sololá	717	San Juan la Laguna	12	San Juan la Laguna	7	Julio	2023-12-07T00:00:00	2024-11-08T04:00:00	3	Temperatura mínima	18.6
65044	7	Sololá	717	San Juan la Laguna	12	San Juan la Laguna	7	Julio	2023-12-07T00:00:00	2024-11-08T04:00:00	5	Humedad	68
65045	7	Sololá	717	San Juan la Laguna	12	San Juan la Laguna	7	Julio	2023-12-07T00:00:00	2024-11-08T04:00:00	6	Velocidad del viento	8
65046	7	Sololá	717	San Juan la Laguna	12	San Juan la Laguna	7	Julio	2023-12-07T00:00:00	2024-11-08T04:00:00	7	Dirección del viento	8.05
65047	7	Sololá	717	San Juan la Laguna	12	San Juan la Laguna	7	Julio	2023-12-07T00:00:00	2024-11-08T04:00:00	1	Precipitación	0
65048	7	Sololá	717	San Juan la Laguna	12	San Juan la Laguna	7	Julio	2023-12-07T00:00:00	2024-11-08T04:00:00	8	Radiación solar	0
65049	7	Sololá	717	San Juan la Laguna	12	San Juan la Laguna	7	Julio	2023-12-07T00:00:00	2024-11-08T05:00:00	2	Temperatura media	21.1
65050	7	Sololá	717	San Juan la Laguna	12	San Juan la Laguna	7	Julio	2023-12-07T00:00:00	2024-11-08T05:00:00	4	Temperatura máxima	21.1
65051	7	Sololá	717	San Juan la Laguna	12	San Juan la Laguna	7	Julio	2023-12-07T00:00:00	2024-11-08T05:00:00	3	Temperatura mínima	20.6
65052	7	Sololá	717	San Juan la Laguna	12	San Juan la Laguna	7	Julio	2023-12-07T00:00:00	2024-11-08T05:00:00	5	Humedad	67
65053	7	Sololá	717	San Juan la Laguna	12	San Juan la Laguna	7	Julio	2023-12-07T00:00:00	2024-11-08T05:00:00	6	Velocidad del viento	6.4
65054	7	Sololá	717	San Juan la Laguna	12	San Juan la Laguna	7	Julio	2023-12-07T00:00:00	2024-11-08T05:00:00	7	Dirección del viento	6.44
65055	7	Sololá	717	San Juan la Laguna	12	San Juan la Laguna	7	Julio	2023-12-07T00:00:00	2024-11-08T05:00:00	1	Precipitación	0
65056	7	Sololá	717	San Juan la Laguna	12	San Juan la Laguna	7	Julio	2023-12-07T00:00:00	2024-11-08T05:00:00	8	Radiación solar	0
65057	7	Sololá	717	San Juan la Laguna	12	San Juan la Laguna	7	Julio	2023-12-07T00:00:00	2024-11-08T06:00:00	2	Temperatura media	19.7
65058	7	Sololá	717	San Juan la Laguna	12	San Juan la Laguna	7	Julio	2023-12-07T00:00:00	2024-11-08T06:00:00	4	Temperatura máxima	21.1
65059	7	Sololá	717	San Juan la Laguna	12	San Juan la Laguna	7	Julio	2023-12-07T00:00:00	2024-11-08T06:00:00	3	Temperatura mínima	19.3
65060	7	Sololá	717	San Juan la Laguna	12	San Juan la Laguna	7	Julio	2023-12-07T00:00:00	2024-11-08T06:00:00	5	Humedad	76
65061	7	Sololá	717	San Juan la Laguna	12	San Juan la Laguna	7	Julio	2023-12-07T00:00:00	2024-11-08T06:00:00	6	Velocidad del viento	3.2
65062	7	Sololá	717	San Juan la Laguna	12	San Juan la Laguna	7	Julio	2023-12-07T00:00:00	2024-11-08T06:00:00	7	Dirección del viento	3.22
65063	7	Sololá	717	San Juan la Laguna	12	San Juan la Laguna	7	Julio	2023-12-07T00:00:00	2024-11-08T06:00:00	1	Precipitación	0
65064	7	Sololá	717	San Juan la Laguna	12	San Juan la Laguna	7	Julio	2023-12-07T00:00:00	2024-11-08T06:00:00	8	Radiación solar	2
65065	7	Sololá	717	San Juan la Laguna	12	San Juan la Laguna	7	Julio	2023-12-07T00:00:00	2024-11-08T07:00:00	2	Temperatura media	21.5
65066	7	Sololá	717	San Juan la Laguna	12	San Juan la Laguna	7	Julio	2023-12-07T00:00:00	2024-11-08T07:00:00	4	Temperatura máxima	21.6
65067	7	Sololá	717	San Juan la Laguna	12	San Juan la Laguna	7	Julio	2023-12-07T00:00:00	2024-11-08T07:00:00	3	Temperatura mínima	19.7
65068	7	Sololá	717	San Juan la Laguna	12	San Juan la Laguna	7	Julio	2023-12-07T00:00:00	2024-11-08T07:00:00	5	Humedad	65
65069	7	Sololá	717	San Juan la Laguna	12	San Juan la Laguna	7	Julio	2023-12-07T00:00:00	2024-11-08T07:00:00	6	Velocidad del viento	4.8
65070	7	Sololá	717	San Juan la Laguna	12	San Juan la Laguna	7	Julio	2023-12-07T00:00:00	2024-11-08T07:00:00	7	Dirección del viento	4.83
65071	7	Sololá	717	San Juan la Laguna	12	San Juan la Laguna	7	Julio	2023-12-07T00:00:00	2024-11-08T07:00:00	1	Precipitación	0
65072	7	Sololá	717	San Juan la Laguna	12	San Juan la Laguna	7	Julio	2023-12-07T00:00:00	2024-11-08T07:00:00	8	Radiación solar	94
65073	7	Sololá	717	San Juan la Laguna	12	San Juan la Laguna	7	Julio	2023-12-07T00:00:00	2024-11-08T08:00:00	2	Temperatura media	22.1
65074	7	Sololá	717	San Juan la Laguna	12	San Juan la Laguna	7	Julio	2023-12-07T00:00:00	2024-11-08T08:00:00	4	Temperatura máxima	22.1
65075	7	Sololá	717	San Juan la Laguna	12	San Juan la Laguna	7	Julio	2023-12-07T00:00:00	2024-11-08T08:00:00	3	Temperatura mínima	21.3
65076	7	Sololá	717	San Juan la Laguna	12	San Juan la Laguna	7	Julio	2023-12-07T00:00:00	2024-11-08T08:00:00	5	Humedad	63
65077	7	Sololá	717	San Juan la Laguna	12	San Juan la Laguna	7	Julio	2023-12-07T00:00:00	2024-11-08T08:00:00	6	Velocidad del viento	14.5
65078	7	Sololá	717	San Juan la Laguna	12	San Juan la Laguna	7	Julio	2023-12-07T00:00:00	2024-11-08T08:00:00	7	Dirección del viento	14.48
65079	7	Sololá	717	San Juan la Laguna	12	San Juan la Laguna	7	Julio	2023-12-07T00:00:00	2024-11-08T08:00:00	1	Precipitación	0
65080	7	Sololá	717	San Juan la Laguna	12	San Juan la Laguna	7	Julio	2023-12-07T00:00:00	2024-11-08T08:00:00	8	Radiación solar	289
65081	7	Sololá	717	San Juan la Laguna	12	San Juan la Laguna	7	Julio	2023-12-07T00:00:00	2024-11-08T09:00:00	2	Temperatura media	23.5
65082	7	Sololá	717	San Juan la Laguna	12	San Juan la Laguna	7	Julio	2023-12-07T00:00:00	2024-11-08T09:00:00	4	Temperatura máxima	23.6
65083	7	Sololá	717	San Juan la Laguna	12	San Juan la Laguna	7	Julio	2023-12-07T00:00:00	2024-11-08T09:00:00	3	Temperatura mínima	22.1
65084	7	Sololá	717	San Juan la Laguna	12	San Juan la Laguna	7	Julio	2023-12-07T00:00:00	2024-11-08T09:00:00	5	Humedad	58
65085	7	Sololá	717	San Juan la Laguna	12	San Juan la Laguna	7	Julio	2023-12-07T00:00:00	2024-11-08T09:00:00	6	Velocidad del viento	9.7
65086	7	Sololá	717	San Juan la Laguna	12	San Juan la Laguna	7	Julio	2023-12-07T00:00:00	2024-11-08T09:00:00	7	Dirección del viento	9.66
65087	7	Sololá	717	San Juan la Laguna	12	San Juan la Laguna	7	Julio	2023-12-07T00:00:00	2024-11-08T09:00:00	1	Precipitación	0
65088	7	Sololá	717	San Juan la Laguna	12	San Juan la Laguna	7	Julio	2023-12-07T00:00:00	2024-11-08T09:00:00	8	Radiación solar	511
65089	7	Sololá	717	San Juan la Laguna	12	San Juan la Laguna	7	Julio	2023-12-07T00:00:00	2024-11-08T10:00:00	2	Temperatura media	24.2
65090	7	Sololá	717	San Juan la Laguna	12	San Juan la Laguna	7	Julio	2023-12-07T00:00:00	2024-11-08T10:00:00	4	Temperatura máxima	24.9
65091	7	Sololá	717	San Juan la Laguna	12	San Juan la Laguna	7	Julio	2023-12-07T00:00:00	2024-11-08T10:00:00	3	Temperatura mínima	23.5
65092	7	Sololá	717	San Juan la Laguna	12	San Juan la Laguna	7	Julio	2023-12-07T00:00:00	2024-11-08T10:00:00	5	Humedad	55
65093	7	Sololá	717	San Juan la Laguna	12	San Juan la Laguna	7	Julio	2023-12-07T00:00:00	2024-11-08T10:00:00	6	Velocidad del viento	3.2
65094	7	Sololá	717	San Juan la Laguna	12	San Juan la Laguna	7	Julio	2023-12-07T00:00:00	2024-11-08T10:00:00	7	Dirección del viento	3.22
65095	7	Sololá	717	San Juan la Laguna	12	San Juan la Laguna	7	Julio	2023-12-07T00:00:00	2024-11-08T10:00:00	1	Precipitación	0
65096	7	Sololá	717	San Juan la Laguna	12	San Juan la Laguna	7	Julio	2023-12-07T00:00:00	2024-11-08T10:00:00	8	Radiación solar	604
65097	7	Sololá	717	San Juan la Laguna	12	San Juan la Laguna	7	Julio	2023-12-07T00:00:00	2024-11-08T11:00:00	2	Temperatura media	25.8
65098	7	Sololá	717	San Juan la Laguna	12	San Juan la Laguna	7	Julio	2023-12-07T00:00:00	2024-11-08T11:00:00	4	Temperatura máxima	25.8
65099	7	Sololá	717	San Juan la Laguna	12	San Juan la Laguna	7	Julio	2023-12-07T00:00:00	2024-11-08T11:00:00	3	Temperatura mínima	24.2
65100	7	Sololá	717	San Juan la Laguna	12	San Juan la Laguna	7	Julio	2023-12-07T00:00:00	2024-11-08T11:00:00	5	Humedad	52
65101	7	Sololá	717	San Juan la Laguna	12	San Juan la Laguna	7	Julio	2023-12-07T00:00:00	2024-11-08T11:00:00	6	Velocidad del viento	4.8
65102	7	Sololá	717	San Juan la Laguna	12	San Juan la Laguna	7	Julio	2023-12-07T00:00:00	2024-11-08T11:00:00	7	Dirección del viento	4.83
65103	7	Sololá	717	San Juan la Laguna	12	San Juan la Laguna	7	Julio	2023-12-07T00:00:00	2024-11-08T11:00:00	1	Precipitación	0
65104	7	Sololá	717	San Juan la Laguna	12	San Juan la Laguna	7	Julio	2023-12-07T00:00:00	2024-11-08T11:00:00	8	Radiación solar	798
65105	7	Sololá	717	San Juan la Laguna	12	San Juan la Laguna	7	Julio	2023-12-07T00:00:00	2024-11-08T12:00:00	2	Temperatura media	26.1
65106	7	Sololá	717	San Juan la Laguna	12	San Juan la Laguna	7	Julio	2023-12-07T00:00:00	2024-11-08T12:00:00	4	Temperatura máxima	26.2
65107	7	Sololá	717	San Juan la Laguna	12	San Juan la Laguna	7	Julio	2023-12-07T00:00:00	2024-11-08T12:00:00	3	Temperatura mínima	25.6
65108	7	Sololá	717	San Juan la Laguna	12	San Juan la Laguna	7	Julio	2023-12-07T00:00:00	2024-11-08T12:00:00	5	Humedad	51
65109	7	Sololá	717	San Juan la Laguna	12	San Juan la Laguna	7	Julio	2023-12-07T00:00:00	2024-11-08T12:00:00	6	Velocidad del viento	3.2
65110	7	Sololá	717	San Juan la Laguna	12	San Juan la Laguna	7	Julio	2023-12-07T00:00:00	2024-11-08T12:00:00	7	Dirección del viento	3.22
65111	7	Sololá	717	San Juan la Laguna	12	San Juan la Laguna	7	Julio	2023-12-07T00:00:00	2024-11-08T12:00:00	1	Precipitación	0
65112	7	Sololá	717	San Juan la Laguna	12	San Juan la Laguna	7	Julio	2023-12-07T00:00:00	2024-11-08T12:00:00	8	Radiación solar	856
65113	7	Sololá	717	San Juan la Laguna	12	San Juan la Laguna	7	Julio	2023-12-07T00:00:00	2024-11-08T13:00:00	2	Temperatura media	26.8
65114	7	Sololá	717	San Juan la Laguna	12	San Juan la Laguna	7	Julio	2023-12-07T00:00:00	2024-11-08T13:00:00	4	Temperatura máxima	27.1
65115	7	Sololá	717	San Juan la Laguna	12	San Juan la Laguna	7	Julio	2023-12-07T00:00:00	2024-11-08T13:00:00	3	Temperatura mínima	26.1
65116	7	Sololá	717	San Juan la Laguna	12	San Juan la Laguna	7	Julio	2023-12-07T00:00:00	2024-11-08T13:00:00	5	Humedad	47
65117	7	Sololá	717	San Juan la Laguna	12	San Juan la Laguna	7	Julio	2023-12-07T00:00:00	2024-11-08T13:00:00	6	Velocidad del viento	4.8
65118	7	Sololá	717	San Juan la Laguna	12	San Juan la Laguna	7	Julio	2023-12-07T00:00:00	2024-11-08T13:00:00	7	Dirección del viento	4.83
65119	7	Sololá	717	San Juan la Laguna	12	San Juan la Laguna	7	Julio	2023-12-07T00:00:00	2024-11-08T13:00:00	1	Precipitación	0
65120	7	Sololá	717	San Juan la Laguna	12	San Juan la Laguna	7	Julio	2023-12-07T00:00:00	2024-11-08T13:00:00	8	Radiación solar	935
65121	7	Sololá	717	San Juan la Laguna	12	San Juan la Laguna	7	Julio	2023-12-07T00:00:00	2024-11-08T14:00:00	2	Temperatura media	27.6
65122	7	Sololá	717	San Juan la Laguna	12	San Juan la Laguna	7	Julio	2023-12-07T00:00:00	2024-11-08T14:00:00	4	Temperatura máxima	27.7
65123	7	Sololá	717	San Juan la Laguna	12	San Juan la Laguna	7	Julio	2023-12-07T00:00:00	2024-11-08T14:00:00	3	Temperatura mínima	26.7
65124	7	Sololá	717	San Juan la Laguna	12	San Juan la Laguna	7	Julio	2023-12-07T00:00:00	2024-11-08T14:00:00	5	Humedad	46
65125	7	Sololá	717	San Juan la Laguna	12	San Juan la Laguna	7	Julio	2023-12-07T00:00:00	2024-11-08T14:00:00	6	Velocidad del viento	3.2
65126	7	Sololá	717	San Juan la Laguna	12	San Juan la Laguna	7	Julio	2023-12-07T00:00:00	2024-11-08T14:00:00	7	Dirección del viento	3.22
65127	7	Sololá	717	San Juan la Laguna	12	San Juan la Laguna	7	Julio	2023-12-07T00:00:00	2024-11-08T14:00:00	1	Precipitación	0
65128	7	Sololá	717	San Juan la Laguna	12	San Juan la Laguna	7	Julio	2023-12-07T00:00:00	2024-11-08T14:00:00	8	Radiación solar	869
65129	7	Sololá	717	San Juan la Laguna	12	San Juan la Laguna	7	Julio	2023-12-07T00:00:00	2024-11-08T15:00:00	2	Temperatura media	27.1
65130	7	Sololá	717	San Juan la Laguna	12	San Juan la Laguna	7	Julio	2023-12-07T00:00:00	2024-11-08T15:00:00	4	Temperatura máxima	27.8
65131	7	Sololá	717	San Juan la Laguna	12	San Juan la Laguna	7	Julio	2023-12-07T00:00:00	2024-11-08T15:00:00	3	Temperatura mínima	27.1
65132	7	Sololá	717	San Juan la Laguna	12	San Juan la Laguna	7	Julio	2023-12-07T00:00:00	2024-11-08T15:00:00	5	Humedad	47
65133	7	Sololá	717	San Juan la Laguna	12	San Juan la Laguna	7	Julio	2023-12-07T00:00:00	2024-11-08T15:00:00	6	Velocidad del viento	3.2
65134	7	Sololá	717	San Juan la Laguna	12	San Juan la Laguna	7	Julio	2023-12-07T00:00:00	2024-11-08T15:00:00	7	Dirección del viento	3.22
65135	7	Sololá	717	San Juan la Laguna	12	San Juan la Laguna	7	Julio	2023-12-07T00:00:00	2024-11-08T15:00:00	1	Precipitación	0
65136	7	Sololá	717	San Juan la Laguna	12	San Juan la Laguna	7	Julio	2023-12-07T00:00:00	2024-11-08T15:00:00	8	Radiación solar	640
65137	7	Sololá	717	San Juan la Laguna	12	San Juan la Laguna	7	Julio	2023-12-07T00:00:00	2024-11-08T16:00:00	2	Temperatura media	25.2
65138	7	Sololá	717	San Juan la Laguna	12	San Juan la Laguna	7	Julio	2023-12-07T00:00:00	2024-11-08T16:00:00	4	Temperatura máxima	27.3
65139	7	Sololá	717	San Juan la Laguna	12	San Juan la Laguna	7	Julio	2023-12-07T00:00:00	2024-11-08T16:00:00	3	Temperatura mínima	25.1
65140	7	Sololá	717	San Juan la Laguna	12	San Juan la Laguna	7	Julio	2023-12-07T00:00:00	2024-11-08T16:00:00	5	Humedad	67
65141	7	Sololá	717	San Juan la Laguna	12	San Juan la Laguna	7	Julio	2023-12-07T00:00:00	2024-11-08T16:00:00	6	Velocidad del viento	3.2
65142	7	Sololá	717	San Juan la Laguna	12	San Juan la Laguna	7	Julio	2023-12-07T00:00:00	2024-11-08T16:00:00	7	Dirección del viento	3.22
65143	7	Sololá	717	San Juan la Laguna	12	San Juan la Laguna	7	Julio	2023-12-07T00:00:00	2024-11-08T16:00:00	1	Precipitación	0
65144	7	Sololá	717	San Juan la Laguna	12	San Juan la Laguna	7	Julio	2023-12-07T00:00:00	2024-11-08T16:00:00	8	Radiación solar	514
65145	7	Sololá	717	San Juan la Laguna	12	San Juan la Laguna	7	Julio	2023-12-07T00:00:00	2024-11-08T17:00:00	2	Temperatura media	24.9
65146	7	Sololá	717	San Juan la Laguna	12	San Juan la Laguna	7	Julio	2023-12-07T00:00:00	2024-11-08T17:00:00	4	Temperatura máxima	25.2
65147	7	Sololá	717	San Juan la Laguna	12	San Juan la Laguna	7	Julio	2023-12-07T00:00:00	2024-11-08T17:00:00	3	Temperatura mínima	24.3
65148	7	Sololá	717	San Juan la Laguna	12	San Juan la Laguna	7	Julio	2023-12-07T00:00:00	2024-11-08T17:00:00	5	Humedad	69
65149	7	Sololá	717	San Juan la Laguna	12	San Juan la Laguna	7	Julio	2023-12-07T00:00:00	2024-11-08T17:00:00	6	Velocidad del viento	3.2
65150	7	Sololá	717	San Juan la Laguna	12	San Juan la Laguna	7	Julio	2023-12-07T00:00:00	2024-11-08T17:00:00	7	Dirección del viento	3.22
65151	7	Sololá	717	San Juan la Laguna	12	San Juan la Laguna	7	Julio	2023-12-07T00:00:00	2024-11-08T17:00:00	1	Precipitación	0
65152	7	Sololá	717	San Juan la Laguna	12	San Juan la Laguna	7	Julio	2023-12-07T00:00:00	2024-11-08T17:00:00	8	Radiación solar	357
65153	7	Sololá	717	San Juan la Laguna	12	San Juan la Laguna	7	Julio	2023-12-07T00:00:00	2024-11-08T18:00:00	2	Temperatura media	23.2
65154	7	Sololá	717	San Juan la Laguna	12	San Juan la Laguna	7	Julio	2023-12-07T00:00:00	2024-11-08T18:00:00	4	Temperatura máxima	25
65155	7	Sololá	717	San Juan la Laguna	12	San Juan la Laguna	7	Julio	2023-12-07T00:00:00	2024-11-08T18:00:00	3	Temperatura mínima	23.2
65156	7	Sololá	717	San Juan la Laguna	12	San Juan la Laguna	7	Julio	2023-12-07T00:00:00	2024-11-08T18:00:00	5	Humedad	76
65157	7	Sololá	717	San Juan la Laguna	12	San Juan la Laguna	7	Julio	2023-12-07T00:00:00	2024-11-08T18:00:00	6	Velocidad del viento	1.6
65158	7	Sololá	717	San Juan la Laguna	12	San Juan la Laguna	7	Julio	2023-12-07T00:00:00	2024-11-08T18:00:00	7	Dirección del viento	1.61
65159	7	Sololá	717	San Juan la Laguna	12	San Juan la Laguna	7	Julio	2023-12-07T00:00:00	2024-11-08T18:00:00	1	Precipitación	0
65160	7	Sololá	717	San Juan la Laguna	12	San Juan la Laguna	7	Julio	2023-12-07T00:00:00	2024-11-08T18:00:00	8	Radiación solar	102
65161	7	Sololá	717	San Juan la Laguna	12	San Juan la Laguna	7	Julio	2023-12-07T00:00:00	2024-11-08T19:00:00	2	Temperatura media	21.6
65162	7	Sololá	717	San Juan la Laguna	12	San Juan la Laguna	7	Julio	2023-12-07T00:00:00	2024-11-08T19:00:00	4	Temperatura máxima	23.2
65163	7	Sololá	717	San Juan la Laguna	12	San Juan la Laguna	7	Julio	2023-12-07T00:00:00	2024-11-08T19:00:00	3	Temperatura mínima	21.6
65164	7	Sololá	717	San Juan la Laguna	12	San Juan la Laguna	7	Julio	2023-12-07T00:00:00	2024-11-08T19:00:00	5	Humedad	81
65165	7	Sololá	717	San Juan la Laguna	12	San Juan la Laguna	7	Julio	2023-12-07T00:00:00	2024-11-08T19:00:00	6	Velocidad del viento	1.6
65166	7	Sololá	717	San Juan la Laguna	12	San Juan la Laguna	7	Julio	2023-12-07T00:00:00	2024-11-08T19:00:00	7	Dirección del viento	1.61
65167	7	Sololá	717	San Juan la Laguna	12	San Juan la Laguna	7	Julio	2023-12-07T00:00:00	2024-11-08T19:00:00	1	Precipitación	0
65168	7	Sololá	717	San Juan la Laguna	12	San Juan la Laguna	7	Julio	2023-12-07T00:00:00	2024-11-08T19:00:00	8	Radiación solar	0
65169	7	Sololá	717	San Juan la Laguna	12	San Juan la Laguna	7	Julio	2023-12-07T00:00:00	2024-11-08T20:00:00	2	Temperatura media	20.7
65170	7	Sololá	717	San Juan la Laguna	12	San Juan la Laguna	7	Julio	2023-12-07T00:00:00	2024-11-08T20:00:00	4	Temperatura máxima	21.6
65171	7	Sololá	717	San Juan la Laguna	12	San Juan la Laguna	7	Julio	2023-12-07T00:00:00	2024-11-08T20:00:00	3	Temperatura mínima	20.7
65172	7	Sololá	717	San Juan la Laguna	12	San Juan la Laguna	7	Julio	2023-12-07T00:00:00	2024-11-08T20:00:00	5	Humedad	86
65173	7	Sololá	717	San Juan la Laguna	12	San Juan la Laguna	7	Julio	2023-12-07T00:00:00	2024-11-08T20:00:00	6	Velocidad del viento	1.6
65174	7	Sololá	717	San Juan la Laguna	12	San Juan la Laguna	7	Julio	2023-12-07T00:00:00	2024-11-08T20:00:00	7	Dirección del viento	1.61
65175	7	Sololá	717	San Juan la Laguna	12	San Juan la Laguna	7	Julio	2023-12-07T00:00:00	2024-11-08T20:00:00	1	Precipitación	1
65176	7	Sololá	717	San Juan la Laguna	12	San Juan la Laguna	7	Julio	2023-12-07T00:00:00	2024-11-08T20:00:00	8	Radiación solar	0
65177	7	Sololá	717	San Juan la Laguna	12	San Juan la Laguna	7	Julio	2023-12-07T00:00:00	2024-11-08T21:00:00	2	Temperatura media	17.3
65178	7	Sololá	717	San Juan la Laguna	12	San Juan la Laguna	7	Julio	2023-12-07T00:00:00	2024-11-08T21:00:00	4	Temperatura máxima	20.7
65179	7	Sololá	717	San Juan la Laguna	12	San Juan la Laguna	7	Julio	2023-12-07T00:00:00	2024-11-08T21:00:00	3	Temperatura mínima	17.3
65180	7	Sololá	717	San Juan la Laguna	12	San Juan la Laguna	7	Julio	2023-12-07T00:00:00	2024-11-08T21:00:00	5	Humedad	90
65181	7	Sololá	717	San Juan la Laguna	12	San Juan la Laguna	7	Julio	2023-12-07T00:00:00	2024-11-08T21:00:00	6	Velocidad del viento	9.7
65182	7	Sololá	717	San Juan la Laguna	12	San Juan la Laguna	7	Julio	2023-12-07T00:00:00	2024-11-08T21:00:00	7	Dirección del viento	9.66
65183	7	Sololá	717	San Juan la Laguna	12	San Juan la Laguna	7	Julio	2023-12-07T00:00:00	2024-11-08T21:00:00	1	Precipitación	4
65184	7	Sololá	717	San Juan la Laguna	12	San Juan la Laguna	7	Julio	2023-12-07T00:00:00	2024-11-08T21:00:00	8	Radiación solar	0
65185	7	Sololá	717	San Juan la Laguna	12	San Juan la Laguna	7	Julio	2023-12-07T00:00:00	2024-11-08T22:00:00	2	Temperatura media	16.9
65186	7	Sololá	717	San Juan la Laguna	12	San Juan la Laguna	7	Julio	2023-12-07T00:00:00	2024-11-08T22:00:00	4	Temperatura máxima	17.5
65187	7	Sololá	717	San Juan la Laguna	12	San Juan la Laguna	7	Julio	2023-12-07T00:00:00	2024-11-08T22:00:00	3	Temperatura mínima	16.9
65188	7	Sololá	717	San Juan la Laguna	12	San Juan la Laguna	7	Julio	2023-12-07T00:00:00	2024-11-08T22:00:00	5	Humedad	90
65189	7	Sololá	717	San Juan la Laguna	12	San Juan la Laguna	7	Julio	2023-12-07T00:00:00	2024-11-08T22:00:00	6	Velocidad del viento	4.8
65190	7	Sololá	717	San Juan la Laguna	12	San Juan la Laguna	7	Julio	2023-12-07T00:00:00	2024-11-08T22:00:00	7	Dirección del viento	4.83
65191	7	Sololá	717	San Juan la Laguna	12	San Juan la Laguna	7	Julio	2023-12-07T00:00:00	2024-11-08T22:00:00	1	Precipitación	0.8
65192	7	Sololá	717	San Juan la Laguna	12	San Juan la Laguna	7	Julio	2023-12-07T00:00:00	2024-11-08T22:00:00	8	Radiación solar	0
65193	7	Sololá	717	San Juan la Laguna	12	San Juan la Laguna	7	Julio	2023-12-07T00:00:00	2024-11-08T23:00:00	2	Temperatura media	17.1
65194	7	Sololá	717	San Juan la Laguna	12	San Juan la Laguna	7	Julio	2023-12-07T00:00:00	2024-11-08T23:00:00	4	Temperatura máxima	17.6
65195	7	Sololá	717	San Juan la Laguna	12	San Juan la Laguna	7	Julio	2023-12-07T00:00:00	2024-11-08T23:00:00	3	Temperatura mínima	16.9
65196	7	Sololá	717	San Juan la Laguna	12	San Juan la Laguna	7	Julio	2023-12-07T00:00:00	2024-11-08T23:00:00	5	Humedad	90
65197	7	Sololá	717	San Juan la Laguna	12	San Juan la Laguna	7	Julio	2023-12-07T00:00:00	2024-11-08T23:00:00	6	Velocidad del viento	4.8
65198	7	Sololá	717	San Juan la Laguna	12	San Juan la Laguna	7	Julio	2023-12-07T00:00:00	2024-11-08T23:00:00	7	Dirección del viento	4.83
65199	7	Sololá	717	San Juan la Laguna	12	San Juan la Laguna	7	Julio	2023-12-07T00:00:00	2024-11-08T23:00:00	1	Precipitación	0
65200	7	Sololá	717	San Juan la Laguna	12	San Juan la Laguna	7	Julio	2023-12-07T00:00:00	2024-11-08T23:00:00	8	Radiación solar	0
65201	7	Sololá	717	San Juan la Laguna	12	San Juan la Laguna	7	Julio	2023-07-13T00:00:00	2024-11-08T00:00:00	2	Temperatura media	17.2
65202	7	Sololá	717	San Juan la Laguna	12	San Juan la Laguna	7	Julio	2023-07-13T00:00:00	2024-11-08T00:00:00	4	Temperatura máxima	17.5
65203	7	Sololá	717	San Juan la Laguna	12	San Juan la Laguna	7	Julio	2023-07-13T00:00:00	2024-11-08T00:00:00	3	Temperatura mínima	16.9
65204	7	Sololá	717	San Juan la Laguna	12	San Juan la Laguna	7	Julio	2023-07-13T00:00:00	2024-11-08T00:00:00	5	Humedad	91
65205	7	Sololá	717	San Juan la Laguna	12	San Juan la Laguna	7	Julio	2023-07-13T00:00:00	2024-11-08T00:00:00	6	Velocidad del viento	3.2
65206	7	Sololá	717	San Juan la Laguna	12	San Juan la Laguna	7	Julio	2023-07-13T00:00:00	2024-11-08T00:00:00	7	Dirección del viento	3.22
65207	7	Sololá	717	San Juan la Laguna	12	San Juan la Laguna	7	Julio	2023-07-13T00:00:00	2024-11-08T00:00:00	1	Precipitación	0
65208	7	Sololá	717	San Juan la Laguna	12	San Juan la Laguna	7	Julio	2023-07-13T00:00:00	2024-11-08T00:00:00	8	Radiación solar	0
65209	7	Sololá	717	San Juan la Laguna	12	San Juan la Laguna	7	Julio	2023-07-13T00:00:00	2024-11-08T01:00:00	2	Temperatura media	17.2
65210	7	Sololá	717	San Juan la Laguna	12	San Juan la Laguna	7	Julio	2023-07-13T00:00:00	2024-11-08T01:00:00	4	Temperatura máxima	18.1
65211	7	Sololá	717	San Juan la Laguna	12	San Juan la Laguna	7	Julio	2023-07-13T00:00:00	2024-11-08T01:00:00	3	Temperatura mínima	17.2
65212	7	Sololá	717	San Juan la Laguna	12	San Juan la Laguna	7	Julio	2023-07-13T00:00:00	2024-11-08T01:00:00	5	Humedad	89
65213	7	Sololá	717	San Juan la Laguna	12	San Juan la Laguna	7	Julio	2023-07-13T00:00:00	2024-11-08T01:00:00	6	Velocidad del viento	3.2
65214	7	Sololá	717	San Juan la Laguna	12	San Juan la Laguna	7	Julio	2023-07-13T00:00:00	2024-11-08T01:00:00	7	Dirección del viento	3.22
65215	7	Sololá	717	San Juan la Laguna	12	San Juan la Laguna	7	Julio	2023-07-13T00:00:00	2024-11-08T01:00:00	1	Precipitación	0
65216	7	Sololá	717	San Juan la Laguna	12	San Juan la Laguna	7	Julio	2023-07-13T00:00:00	2024-11-08T01:00:00	8	Radiación solar	0
65217	7	Sololá	717	San Juan la Laguna	12	San Juan la Laguna	7	Julio	2023-07-13T00:00:00	2024-11-08T02:00:00	2	Temperatura media	18.8
65218	7	Sololá	717	San Juan la Laguna	12	San Juan la Laguna	7	Julio	2023-07-13T00:00:00	2024-11-08T02:00:00	4	Temperatura máxima	18.8
65219	7	Sololá	717	San Juan la Laguna	12	San Juan la Laguna	7	Julio	2023-07-13T00:00:00	2024-11-08T02:00:00	3	Temperatura mínima	17.2
65220	7	Sololá	717	San Juan la Laguna	12	San Juan la Laguna	7	Julio	2023-07-13T00:00:00	2024-11-08T02:00:00	5	Humedad	82
65221	7	Sololá	717	San Juan la Laguna	12	San Juan la Laguna	7	Julio	2023-07-13T00:00:00	2024-11-08T02:00:00	6	Velocidad del viento	4.8
65222	7	Sololá	717	San Juan la Laguna	12	San Juan la Laguna	7	Julio	2023-07-13T00:00:00	2024-11-08T02:00:00	7	Dirección del viento	4.83
65223	7	Sololá	717	San Juan la Laguna	12	San Juan la Laguna	7	Julio	2023-07-13T00:00:00	2024-11-08T02:00:00	1	Precipitación	0
65224	7	Sololá	717	San Juan la Laguna	12	San Juan la Laguna	7	Julio	2023-07-13T00:00:00	2024-11-08T02:00:00	8	Radiación solar	0
65225	7	Sololá	717	San Juan la Laguna	12	San Juan la Laguna	7	Julio	2023-07-13T00:00:00	2024-11-08T03:00:00	2	Temperatura media	20.5
65226	7	Sololá	717	San Juan la Laguna	12	San Juan la Laguna	7	Julio	2023-07-13T00:00:00	2024-11-08T03:00:00	4	Temperatura máxima	20.7
65227	7	Sololá	717	San Juan la Laguna	12	San Juan la Laguna	7	Julio	2023-07-13T00:00:00	2024-11-08T03:00:00	3	Temperatura mínima	17.9
65228	7	Sololá	717	San Juan la Laguna	12	San Juan la Laguna	7	Julio	2023-07-13T00:00:00	2024-11-08T03:00:00	5	Humedad	66
65229	7	Sololá	717	San Juan la Laguna	12	San Juan la Laguna	7	Julio	2023-07-13T00:00:00	2024-11-08T03:00:00	6	Velocidad del viento	6.4
65230	7	Sololá	717	San Juan la Laguna	12	San Juan la Laguna	7	Julio	2023-07-13T00:00:00	2024-11-08T03:00:00	7	Dirección del viento	6.44
65231	7	Sololá	717	San Juan la Laguna	12	San Juan la Laguna	7	Julio	2023-07-13T00:00:00	2024-11-08T03:00:00	1	Precipitación	0
65232	7	Sololá	717	San Juan la Laguna	12	San Juan la Laguna	7	Julio	2023-07-13T00:00:00	2024-11-08T03:00:00	8	Radiación solar	0
65233	7	Sololá	717	San Juan la Laguna	12	San Juan la Laguna	7	Julio	2023-07-13T00:00:00	2024-11-08T04:00:00	2	Temperatura media	20.3
65234	7	Sololá	717	San Juan la Laguna	12	San Juan la Laguna	7	Julio	2023-07-13T00:00:00	2024-11-08T04:00:00	4	Temperatura máxima	20.8
65235	7	Sololá	717	San Juan la Laguna	12	San Juan la Laguna	7	Julio	2023-07-13T00:00:00	2024-11-08T04:00:00	3	Temperatura mínima	20.3
65236	7	Sololá	717	San Juan la Laguna	12	San Juan la Laguna	7	Julio	2023-07-13T00:00:00	2024-11-08T04:00:00	5	Humedad	67
65237	7	Sololá	717	San Juan la Laguna	12	San Juan la Laguna	7	Julio	2023-07-13T00:00:00	2024-11-08T04:00:00	6	Velocidad del viento	12.9
65238	7	Sololá	717	San Juan la Laguna	12	San Juan la Laguna	7	Julio	2023-07-13T00:00:00	2024-11-08T04:00:00	7	Dirección del viento	12.87
65239	7	Sololá	717	San Juan la Laguna	12	San Juan la Laguna	7	Julio	2023-07-13T00:00:00	2024-11-08T04:00:00	1	Precipitación	0
65240	7	Sololá	717	San Juan la Laguna	12	San Juan la Laguna	7	Julio	2023-07-13T00:00:00	2024-11-08T04:00:00	8	Radiación solar	0
65241	7	Sololá	717	San Juan la Laguna	12	San Juan la Laguna	7	Julio	2023-07-13T00:00:00	2024-11-08T05:00:00	2	Temperatura media	19.9
65242	7	Sololá	717	San Juan la Laguna	12	San Juan la Laguna	7	Julio	2023-07-13T00:00:00	2024-11-08T05:00:00	4	Temperatura máxima	20.3
65243	7	Sololá	717	San Juan la Laguna	12	San Juan la Laguna	7	Julio	2023-07-13T00:00:00	2024-11-08T05:00:00	3	Temperatura mínima	19.9
65244	7	Sololá	717	San Juan la Laguna	12	San Juan la Laguna	7	Julio	2023-07-13T00:00:00	2024-11-08T05:00:00	5	Humedad	69
65245	7	Sololá	717	San Juan la Laguna	12	San Juan la Laguna	7	Julio	2023-07-13T00:00:00	2024-11-08T05:00:00	6	Velocidad del viento	9.7
65246	7	Sololá	717	San Juan la Laguna	12	San Juan la Laguna	7	Julio	2023-07-13T00:00:00	2024-11-08T05:00:00	7	Dirección del viento	9.66
65247	7	Sololá	717	San Juan la Laguna	12	San Juan la Laguna	7	Julio	2023-07-13T00:00:00	2024-11-08T05:00:00	1	Precipitación	0
65248	7	Sololá	717	San Juan la Laguna	12	San Juan la Laguna	7	Julio	2023-07-13T00:00:00	2024-11-08T05:00:00	8	Radiación solar	0
65249	7	Sololá	717	San Juan la Laguna	12	San Juan la Laguna	7	Julio	2023-07-13T00:00:00	2024-11-08T06:00:00	2	Temperatura media	20.3
65250	7	Sololá	717	San Juan la Laguna	12	San Juan la Laguna	7	Julio	2023-07-13T00:00:00	2024-11-08T06:00:00	4	Temperatura máxima	20.3
65251	7	Sololá	717	San Juan la Laguna	12	San Juan la Laguna	7	Julio	2023-07-13T00:00:00	2024-11-08T06:00:00	3	Temperatura mínima	18.5
65252	7	Sololá	717	San Juan la Laguna	12	San Juan la Laguna	7	Julio	2023-07-13T00:00:00	2024-11-08T06:00:00	5	Humedad	65
65253	7	Sololá	717	San Juan la Laguna	12	San Juan la Laguna	7	Julio	2023-07-13T00:00:00	2024-11-08T06:00:00	6	Velocidad del viento	9.7
65254	7	Sololá	717	San Juan la Laguna	12	San Juan la Laguna	7	Julio	2023-07-13T00:00:00	2024-11-08T06:00:00	7	Dirección del viento	9.66
65255	7	Sololá	717	San Juan la Laguna	12	San Juan la Laguna	7	Julio	2023-07-13T00:00:00	2024-11-08T06:00:00	1	Precipitación	0
65256	7	Sololá	717	San Juan la Laguna	12	San Juan la Laguna	7	Julio	2023-07-13T00:00:00	2024-11-08T06:00:00	8	Radiación solar	2
65257	7	Sololá	717	San Juan la Laguna	12	San Juan la Laguna	7	Julio	2023-07-13T00:00:00	2024-11-08T07:00:00	2	Temperatura media	20.7
65258	7	Sololá	717	San Juan la Laguna	12	San Juan la Laguna	7	Julio	2023-07-13T00:00:00	2024-11-08T07:00:00	4	Temperatura máxima	20.7
65259	7	Sololá	717	San Juan la Laguna	12	San Juan la Laguna	7	Julio	2023-07-13T00:00:00	2024-11-08T07:00:00	3	Temperatura mínima	20.3
65260	7	Sololá	717	San Juan la Laguna	12	San Juan la Laguna	7	Julio	2023-07-13T00:00:00	2024-11-08T07:00:00	5	Humedad	67
65261	7	Sololá	717	San Juan la Laguna	12	San Juan la Laguna	7	Julio	2023-07-13T00:00:00	2024-11-08T07:00:00	6	Velocidad del viento	14.5
65262	7	Sololá	717	San Juan la Laguna	12	San Juan la Laguna	7	Julio	2023-07-13T00:00:00	2024-11-08T07:00:00	7	Dirección del viento	14.48
65263	7	Sololá	717	San Juan la Laguna	12	San Juan la Laguna	7	Julio	2023-07-13T00:00:00	2024-11-08T07:00:00	1	Precipitación	0
65264	7	Sololá	717	San Juan la Laguna	12	San Juan la Laguna	7	Julio	2023-07-13T00:00:00	2024-11-08T07:00:00	8	Radiación solar	68
65265	7	Sololá	717	San Juan la Laguna	12	San Juan la Laguna	7	Julio	2023-07-13T00:00:00	2024-11-08T08:00:00	2	Temperatura media	21.8
65266	7	Sololá	717	San Juan la Laguna	12	San Juan la Laguna	7	Julio	2023-07-13T00:00:00	2024-11-08T08:00:00	4	Temperatura máxima	21.8
65267	7	Sololá	717	San Juan la Laguna	12	San Juan la Laguna	7	Julio	2023-07-13T00:00:00	2024-11-08T08:00:00	3	Temperatura mínima	20.7
65268	7	Sololá	717	San Juan la Laguna	12	San Juan la Laguna	7	Julio	2023-07-13T00:00:00	2024-11-08T08:00:00	5	Humedad	65
65269	7	Sololá	717	San Juan la Laguna	12	San Juan la Laguna	7	Julio	2023-07-13T00:00:00	2024-11-08T08:00:00	6	Velocidad del viento	14.5
65270	7	Sololá	717	San Juan la Laguna	12	San Juan la Laguna	7	Julio	2023-07-13T00:00:00	2024-11-08T08:00:00	7	Dirección del viento	14.48
65271	7	Sololá	717	San Juan la Laguna	12	San Juan la Laguna	7	Julio	2023-07-13T00:00:00	2024-11-08T08:00:00	1	Precipitación	0
65272	7	Sololá	717	San Juan la Laguna	12	San Juan la Laguna	7	Julio	2023-07-13T00:00:00	2024-11-08T08:00:00	8	Radiación solar	206
65273	7	Sololá	717	San Juan la Laguna	12	San Juan la Laguna	7	Julio	2023-07-13T00:00:00	2024-11-08T09:00:00	2	Temperatura media	22.4
65274	7	Sololá	717	San Juan la Laguna	12	San Juan la Laguna	7	Julio	2023-07-13T00:00:00	2024-11-08T09:00:00	4	Temperatura máxima	22.4
65275	7	Sololá	717	San Juan la Laguna	12	San Juan la Laguna	7	Julio	2023-07-13T00:00:00	2024-11-08T09:00:00	3	Temperatura mínima	21.8
65276	7	Sololá	717	San Juan la Laguna	12	San Juan la Laguna	7	Julio	2023-07-13T00:00:00	2024-11-08T09:00:00	5	Humedad	59
65277	7	Sololá	717	San Juan la Laguna	12	San Juan la Laguna	7	Julio	2023-07-13T00:00:00	2024-11-08T09:00:00	6	Velocidad del viento	12.9
65278	7	Sololá	717	San Juan la Laguna	12	San Juan la Laguna	7	Julio	2023-07-13T00:00:00	2024-11-08T09:00:00	7	Dirección del viento	12.87
65279	7	Sololá	717	San Juan la Laguna	12	San Juan la Laguna	7	Julio	2023-07-13T00:00:00	2024-11-08T09:00:00	1	Precipitación	0
65280	7	Sololá	717	San Juan la Laguna	12	San Juan la Laguna	7	Julio	2023-07-13T00:00:00	2024-11-08T09:00:00	8	Radiación solar	332
65281	7	Sololá	717	San Juan la Laguna	12	San Juan la Laguna	7	Julio	2023-07-13T00:00:00	2024-11-08T10:00:00	2	Temperatura media	23.9
65282	7	Sololá	717	San Juan la Laguna	12	San Juan la Laguna	7	Julio	2023-07-13T00:00:00	2024-11-08T10:00:00	4	Temperatura máxima	23.9
65283	7	Sololá	717	San Juan la Laguna	12	San Juan la Laguna	7	Julio	2023-07-13T00:00:00	2024-11-08T10:00:00	3	Temperatura mínima	22.4
65284	7	Sololá	717	San Juan la Laguna	12	San Juan la Laguna	7	Julio	2023-07-13T00:00:00	2024-11-08T10:00:00	5	Humedad	57
65285	7	Sololá	717	San Juan la Laguna	12	San Juan la Laguna	7	Julio	2023-07-13T00:00:00	2024-11-08T10:00:00	6	Velocidad del viento	17.7
65286	7	Sololá	717	San Juan la Laguna	12	San Juan la Laguna	7	Julio	2023-07-13T00:00:00	2024-11-08T10:00:00	7	Dirección del viento	17.7
65287	7	Sololá	717	San Juan la Laguna	12	San Juan la Laguna	7	Julio	2023-07-13T00:00:00	2024-11-08T10:00:00	1	Precipitación	0
65288	7	Sololá	717	San Juan la Laguna	12	San Juan la Laguna	7	Julio	2023-07-13T00:00:00	2024-11-08T10:00:00	8	Radiación solar	667
65289	7	Sololá	717	San Juan la Laguna	12	San Juan la Laguna	7	Julio	2023-07-13T00:00:00	2024-11-08T11:00:00	2	Temperatura media	25.6
65290	7	Sololá	717	San Juan la Laguna	12	San Juan la Laguna	7	Julio	2023-07-13T00:00:00	2024-11-08T11:00:00	4	Temperatura máxima	25.7
65291	7	Sololá	717	San Juan la Laguna	12	San Juan la Laguna	7	Julio	2023-07-13T00:00:00	2024-11-08T11:00:00	3	Temperatura mínima	23.8
65292	7	Sololá	717	San Juan la Laguna	12	San Juan la Laguna	7	Julio	2023-07-13T00:00:00	2024-11-08T11:00:00	5	Humedad	54
65293	7	Sololá	717	San Juan la Laguna	12	San Juan la Laguna	7	Julio	2023-07-13T00:00:00	2024-11-08T11:00:00	6	Velocidad del viento	14.5
65294	7	Sololá	717	San Juan la Laguna	12	San Juan la Laguna	7	Julio	2023-07-13T00:00:00	2024-11-08T11:00:00	7	Dirección del viento	14.48
65295	7	Sololá	717	San Juan la Laguna	12	San Juan la Laguna	7	Julio	2023-07-13T00:00:00	2024-11-08T11:00:00	1	Precipitación	0
65296	7	Sololá	717	San Juan la Laguna	12	San Juan la Laguna	7	Julio	2023-07-13T00:00:00	2024-11-08T11:00:00	8	Radiación solar	837
65297	7	Sololá	717	San Juan la Laguna	12	San Juan la Laguna	7	Julio	2023-07-13T00:00:00	2024-11-08T12:00:00	2	Temperatura media	25.5
65298	7	Sololá	717	San Juan la Laguna	12	San Juan la Laguna	7	Julio	2023-07-13T00:00:00	2024-11-08T12:00:00	4	Temperatura máxima	26.6
65299	7	Sololá	717	San Juan la Laguna	12	San Juan la Laguna	7	Julio	2023-07-13T00:00:00	2024-11-08T12:00:00	3	Temperatura mínima	25.4
65300	7	Sololá	717	San Juan la Laguna	12	San Juan la Laguna	7	Julio	2023-07-13T00:00:00	2024-11-08T12:00:00	5	Humedad	52
65301	7	Sololá	717	San Juan la Laguna	12	San Juan la Laguna	7	Julio	2023-07-13T00:00:00	2024-11-08T12:00:00	6	Velocidad del viento	11.3
65302	7	Sololá	717	San Juan la Laguna	12	San Juan la Laguna	7	Julio	2023-07-13T00:00:00	2024-11-08T12:00:00	7	Dirección del viento	11.27
65303	7	Sololá	717	San Juan la Laguna	12	San Juan la Laguna	7	Julio	2023-07-13T00:00:00	2024-11-08T12:00:00	1	Precipitación	0
65304	7	Sololá	717	San Juan la Laguna	12	San Juan la Laguna	7	Julio	2023-07-13T00:00:00	2024-11-08T12:00:00	8	Radiación solar	944
65305	7	Sololá	717	San Juan la Laguna	12	San Juan la Laguna	7	Julio	2023-07-13T00:00:00	2024-11-08T13:00:00	2	Temperatura media	26.5
65306	7	Sololá	717	San Juan la Laguna	12	San Juan la Laguna	7	Julio	2023-07-13T00:00:00	2024-11-08T13:00:00	4	Temperatura máxima	26.6
65307	7	Sololá	717	San Juan la Laguna	12	San Juan la Laguna	7	Julio	2023-07-13T00:00:00	2024-11-08T13:00:00	3	Temperatura mínima	25.3
65308	7	Sololá	717	San Juan la Laguna	12	San Juan la Laguna	7	Julio	2023-07-13T00:00:00	2024-11-08T13:00:00	5	Humedad	45
65309	7	Sololá	717	San Juan la Laguna	12	San Juan la Laguna	7	Julio	2023-07-13T00:00:00	2024-11-08T13:00:00	6	Velocidad del viento	9.7
65310	7	Sololá	717	San Juan la Laguna	12	San Juan la Laguna	7	Julio	2023-07-13T00:00:00	2024-11-08T13:00:00	7	Dirección del viento	9.66
65311	7	Sololá	717	San Juan la Laguna	12	San Juan la Laguna	7	Julio	2023-07-13T00:00:00	2024-11-08T13:00:00	1	Precipitación	0
65312	7	Sololá	717	San Juan la Laguna	12	San Juan la Laguna	7	Julio	2023-07-13T00:00:00	2024-11-08T13:00:00	8	Radiación solar	950
65313	7	Sololá	717	San Juan la Laguna	12	San Juan la Laguna	7	Julio	2023-07-13T00:00:00	2024-11-08T14:00:00	2	Temperatura media	26.7
65314	7	Sololá	717	San Juan la Laguna	12	San Juan la Laguna	7	Julio	2023-07-13T00:00:00	2024-11-08T14:00:00	4	Temperatura máxima	27.1
65315	7	Sololá	717	San Juan la Laguna	12	San Juan la Laguna	7	Julio	2023-07-13T00:00:00	2024-11-08T14:00:00	3	Temperatura mínima	26.4
65316	7	Sololá	717	San Juan la Laguna	12	San Juan la Laguna	7	Julio	2023-07-13T00:00:00	2024-11-08T14:00:00	5	Humedad	49
65317	7	Sololá	717	San Juan la Laguna	12	San Juan la Laguna	7	Julio	2023-07-13T00:00:00	2024-11-08T14:00:00	6	Velocidad del viento	9.7
65318	7	Sololá	717	San Juan la Laguna	12	San Juan la Laguna	7	Julio	2023-07-13T00:00:00	2024-11-08T14:00:00	7	Dirección del viento	9.66
65319	7	Sololá	717	San Juan la Laguna	12	San Juan la Laguna	7	Julio	2023-07-13T00:00:00	2024-11-08T14:00:00	1	Precipitación	0
65320	7	Sololá	717	San Juan la Laguna	12	San Juan la Laguna	7	Julio	2023-07-13T00:00:00	2024-11-08T14:00:00	8	Radiación solar	898
65321	7	Sololá	717	San Juan la Laguna	12	San Juan la Laguna	7	Julio	2023-07-13T00:00:00	2024-11-08T15:00:00	2	Temperatura media	25.8
65322	7	Sololá	717	San Juan la Laguna	12	San Juan la Laguna	7	Julio	2023-07-13T00:00:00	2024-11-08T15:00:00	4	Temperatura máxima	27
65323	7	Sololá	717	San Juan la Laguna	12	San Juan la Laguna	7	Julio	2023-07-13T00:00:00	2024-11-08T15:00:00	3	Temperatura mínima	25.8
65324	7	Sololá	717	San Juan la Laguna	12	San Juan la Laguna	7	Julio	2023-07-13T00:00:00	2024-11-08T15:00:00	5	Humedad	54
65325	7	Sololá	717	San Juan la Laguna	12	San Juan la Laguna	7	Julio	2023-07-13T00:00:00	2024-11-08T15:00:00	6	Velocidad del viento	8
65326	7	Sololá	717	San Juan la Laguna	12	San Juan la Laguna	7	Julio	2023-07-13T00:00:00	2024-11-08T15:00:00	7	Dirección del viento	8.05
65327	7	Sololá	717	San Juan la Laguna	12	San Juan la Laguna	7	Julio	2023-07-13T00:00:00	2024-11-08T15:00:00	1	Precipitación	0
65328	7	Sololá	717	San Juan la Laguna	12	San Juan la Laguna	7	Julio	2023-07-13T00:00:00	2024-11-08T15:00:00	8	Radiación solar	734
65329	7	Sololá	717	San Juan la Laguna	12	San Juan la Laguna	7	Julio	2023-07-13T00:00:00	2024-11-08T16:00:00	2	Temperatura media	25
65330	7	Sololá	717	San Juan la Laguna	12	San Juan la Laguna	7	Julio	2023-07-13T00:00:00	2024-11-08T16:00:00	4	Temperatura máxima	25.8
65331	7	Sololá	717	San Juan la Laguna	12	San Juan la Laguna	7	Julio	2023-07-13T00:00:00	2024-11-08T16:00:00	3	Temperatura mínima	25
65332	7	Sololá	717	San Juan la Laguna	12	San Juan la Laguna	7	Julio	2023-07-13T00:00:00	2024-11-08T16:00:00	5	Humedad	63
65333	7	Sololá	717	San Juan la Laguna	12	San Juan la Laguna	7	Julio	2023-07-13T00:00:00	2024-11-08T16:00:00	6	Velocidad del viento	1.6
65334	7	Sololá	717	San Juan la Laguna	12	San Juan la Laguna	7	Julio	2023-07-13T00:00:00	2024-11-08T16:00:00	7	Dirección del viento	1.61
65335	7	Sololá	717	San Juan la Laguna	12	San Juan la Laguna	7	Julio	2023-07-13T00:00:00	2024-11-08T16:00:00	1	Precipitación	0
65336	7	Sololá	717	San Juan la Laguna	12	San Juan la Laguna	7	Julio	2023-07-13T00:00:00	2024-11-08T16:00:00	8	Radiación solar	302
65337	7	Sololá	717	San Juan la Laguna	12	San Juan la Laguna	7	Julio	2023-07-13T00:00:00	2024-11-08T17:00:00	2	Temperatura media	22.7
65338	7	Sololá	717	San Juan la Laguna	12	San Juan la Laguna	7	Julio	2023-07-13T00:00:00	2024-11-08T17:00:00	4	Temperatura máxima	25
65339	7	Sololá	717	San Juan la Laguna	12	San Juan la Laguna	7	Julio	2023-07-13T00:00:00	2024-11-08T17:00:00	3	Temperatura mínima	22.7
65340	7	Sololá	717	San Juan la Laguna	12	San Juan la Laguna	7	Julio	2023-07-13T00:00:00	2024-11-08T17:00:00	5	Humedad	74
65341	7	Sololá	717	San Juan la Laguna	12	San Juan la Laguna	7	Julio	2023-07-13T00:00:00	2024-11-08T17:00:00	6	Velocidad del viento	8
65342	7	Sololá	717	San Juan la Laguna	12	San Juan la Laguna	7	Julio	2023-07-13T00:00:00	2024-11-08T17:00:00	7	Dirección del viento	8.05
65343	7	Sololá	717	San Juan la Laguna	12	San Juan la Laguna	7	Julio	2023-07-13T00:00:00	2024-11-08T17:00:00	1	Precipitación	0
65344	7	Sololá	717	San Juan la Laguna	12	San Juan la Laguna	7	Julio	2023-07-13T00:00:00	2024-11-08T17:00:00	8	Radiación solar	281
65345	7	Sololá	717	San Juan la Laguna	12	San Juan la Laguna	7	Julio	2023-07-13T00:00:00	2024-11-08T18:00:00	2	Temperatura media	21.3
65346	7	Sololá	717	San Juan la Laguna	12	San Juan la Laguna	7	Julio	2023-07-13T00:00:00	2024-11-08T18:00:00	4	Temperatura máxima	22.7
65347	7	Sololá	717	San Juan la Laguna	12	San Juan la Laguna	7	Julio	2023-07-13T00:00:00	2024-11-08T18:00:00	3	Temperatura mínima	21.3
65348	7	Sololá	717	San Juan la Laguna	12	San Juan la Laguna	7	Julio	2023-07-13T00:00:00	2024-11-08T18:00:00	5	Humedad	79
65349	7	Sololá	717	San Juan la Laguna	12	San Juan la Laguna	7	Julio	2023-07-13T00:00:00	2024-11-08T18:00:00	6	Velocidad del viento	9.7
65350	7	Sololá	717	San Juan la Laguna	12	San Juan la Laguna	7	Julio	2023-07-13T00:00:00	2024-11-08T18:00:00	7	Dirección del viento	9.66
65351	7	Sololá	717	San Juan la Laguna	12	San Juan la Laguna	7	Julio	2023-07-13T00:00:00	2024-11-08T18:00:00	1	Precipitación	0
65352	7	Sololá	717	San Juan la Laguna	12	San Juan la Laguna	7	Julio	2023-07-13T00:00:00	2024-11-08T18:00:00	8	Radiación solar	132
65353	7	Sololá	717	San Juan la Laguna	12	San Juan la Laguna	7	Julio	2023-07-13T00:00:00	2024-11-08T19:00:00	2	Temperatura media	20.7
65354	7	Sololá	717	San Juan la Laguna	12	San Juan la Laguna	7	Julio	2023-07-13T00:00:00	2024-11-08T19:00:00	4	Temperatura máxima	21.3
65355	7	Sololá	717	San Juan la Laguna	12	San Juan la Laguna	7	Julio	2023-07-13T00:00:00	2024-11-08T19:00:00	3	Temperatura mínima	20.7
65356	7	Sololá	717	San Juan la Laguna	12	San Juan la Laguna	7	Julio	2023-07-13T00:00:00	2024-11-08T19:00:00	5	Humedad	80
65357	7	Sololá	717	San Juan la Laguna	12	San Juan la Laguna	7	Julio	2023-07-13T00:00:00	2024-11-08T19:00:00	6	Velocidad del viento	8
65358	7	Sololá	717	San Juan la Laguna	12	San Juan la Laguna	7	Julio	2023-07-13T00:00:00	2024-11-08T19:00:00	7	Dirección del viento	8.05
65359	7	Sololá	717	San Juan la Laguna	12	San Juan la Laguna	7	Julio	2023-07-13T00:00:00	2024-11-08T19:00:00	1	Precipitación	0
65360	7	Sololá	717	San Juan la Laguna	12	San Juan la Laguna	7	Julio	2023-07-13T00:00:00	2024-11-08T19:00:00	8	Radiación solar	0
65361	7	Sololá	717	San Juan la Laguna	12	San Juan la Laguna	7	Julio	2023-07-13T00:00:00	2024-11-08T20:00:00	2	Temperatura media	19.9
65362	7	Sololá	717	San Juan la Laguna	12	San Juan la Laguna	7	Julio	2023-07-13T00:00:00	2024-11-08T20:00:00	4	Temperatura máxima	20.8
65363	7	Sololá	717	San Juan la Laguna	12	San Juan la Laguna	7	Julio	2023-07-13T00:00:00	2024-11-08T20:00:00	3	Temperatura mínima	19.8
65364	7	Sololá	717	San Juan la Laguna	12	San Juan la Laguna	7	Julio	2023-07-13T00:00:00	2024-11-08T20:00:00	5	Humedad	84
65365	7	Sololá	717	San Juan la Laguna	12	San Juan la Laguna	7	Julio	2023-07-13T00:00:00	2024-11-08T20:00:00	6	Velocidad del viento	1.6
65366	7	Sololá	717	San Juan la Laguna	12	San Juan la Laguna	7	Julio	2023-07-13T00:00:00	2024-11-08T20:00:00	7	Dirección del viento	1.61
65367	7	Sololá	717	San Juan la Laguna	12	San Juan la Laguna	7	Julio	2023-07-13T00:00:00	2024-11-08T20:00:00	1	Precipitación	0
65368	7	Sololá	717	San Juan la Laguna	12	San Juan la Laguna	7	Julio	2023-07-13T00:00:00	2024-11-08T20:00:00	8	Radiación solar	0
65369	7	Sololá	717	San Juan la Laguna	12	San Juan la Laguna	7	Julio	2023-07-13T00:00:00	2024-11-08T21:00:00	2	Temperatura media	20.7
65370	7	Sololá	717	San Juan la Laguna	12	San Juan la Laguna	7	Julio	2023-07-13T00:00:00	2024-11-08T21:00:00	4	Temperatura máxima	20.9
65371	7	Sololá	717	San Juan la Laguna	12	San Juan la Laguna	7	Julio	2023-07-13T00:00:00	2024-11-08T21:00:00	3	Temperatura mínima	19.9
65372	7	Sololá	717	San Juan la Laguna	12	San Juan la Laguna	7	Julio	2023-07-13T00:00:00	2024-11-08T21:00:00	5	Humedad	79
65373	7	Sololá	717	San Juan la Laguna	12	San Juan la Laguna	7	Julio	2023-07-13T00:00:00	2024-11-08T21:00:00	6	Velocidad del viento	0
65374	7	Sololá	717	San Juan la Laguna	12	San Juan la Laguna	7	Julio	2023-07-13T00:00:00	2024-11-08T21:00:00	7	Dirección del viento	0
65375	7	Sololá	717	San Juan la Laguna	12	San Juan la Laguna	7	Julio	2023-07-13T00:00:00	2024-11-08T21:00:00	1	Precipitación	0
65376	7	Sololá	717	San Juan la Laguna	12	San Juan la Laguna	7	Julio	2023-07-13T00:00:00	2024-11-08T21:00:00	8	Radiación solar	0
65377	7	Sololá	717	San Juan la Laguna	12	San Juan la Laguna	7	Julio	2023-07-13T00:00:00	2024-11-08T22:00:00	2	Temperatura media	19.7
65378	7	Sololá	717	San Juan la Laguna	12	San Juan la Laguna	7	Julio	2023-07-13T00:00:00	2024-11-08T22:00:00	4	Temperatura máxima	20.7
65379	7	Sololá	717	San Juan la Laguna	12	San Juan la Laguna	7	Julio	2023-07-13T00:00:00	2024-11-08T22:00:00	3	Temperatura mínima	19.4
65380	7	Sololá	717	San Juan la Laguna	12	San Juan la Laguna	7	Julio	2023-07-13T00:00:00	2024-11-08T22:00:00	5	Humedad	78
65381	7	Sololá	717	San Juan la Laguna	12	San Juan la Laguna	7	Julio	2023-07-13T00:00:00	2024-11-08T22:00:00	6	Velocidad del viento	0
65382	7	Sololá	717	San Juan la Laguna	12	San Juan la Laguna	7	Julio	2023-07-13T00:00:00	2024-11-08T22:00:00	7	Dirección del viento	0
65383	7	Sololá	717	San Juan la Laguna	12	San Juan la Laguna	7	Julio	2023-07-13T00:00:00	2024-11-08T22:00:00	1	Precipitación	0
65384	7	Sololá	717	San Juan la Laguna	12	San Juan la Laguna	7	Julio	2023-07-13T00:00:00	2024-11-08T22:00:00	8	Radiación solar	0
65385	7	Sololá	717	San Juan la Laguna	12	San Juan la Laguna	7	Julio	2023-07-13T00:00:00	2024-11-08T23:00:00	2	Temperatura media	17.7
65386	7	Sololá	717	San Juan la Laguna	12	San Juan la Laguna	7	Julio	2023-07-13T00:00:00	2024-11-08T23:00:00	4	Temperatura máxima	19.9
65387	7	Sololá	717	San Juan la Laguna	12	San Juan la Laguna	7	Julio	2023-07-13T00:00:00	2024-11-08T23:00:00	3	Temperatura mínima	17.7
65388	7	Sololá	717	San Juan la Laguna	12	San Juan la Laguna	7	Julio	2023-07-13T00:00:00	2024-11-08T23:00:00	5	Humedad	90
65389	7	Sololá	717	San Juan la Laguna	12	San Juan la Laguna	7	Julio	2023-07-13T00:00:00	2024-11-08T23:00:00	6	Velocidad del viento	3.2
65390	7	Sololá	717	San Juan la Laguna	12	San Juan la Laguna	7	Julio	2023-07-13T00:00:00	2024-11-08T23:00:00	7	Dirección del viento	3.22
65391	7	Sololá	717	San Juan la Laguna	12	San Juan la Laguna	7	Julio	2023-07-13T00:00:00	2024-11-08T23:00:00	1	Precipitación	5.6
65392	7	Sololá	717	San Juan la Laguna	12	San Juan la Laguna	7	Julio	2023-07-13T00:00:00	2024-11-08T23:00:00	8	Radiación solar	0
65393	7	Sololá	717	San Juan la Laguna	12	San Juan la Laguna	7	Julio	2023-07-14T00:00:00	2024-11-08T00:00:00	2	Temperatura media	16.9
65394	7	Sololá	717	San Juan la Laguna	12	San Juan la Laguna	7	Julio	2023-07-14T00:00:00	2024-11-08T00:00:00	4	Temperatura máxima	17.7
65395	7	Sololá	717	San Juan la Laguna	12	San Juan la Laguna	7	Julio	2023-07-14T00:00:00	2024-11-08T00:00:00	3	Temperatura mínima	16.9
65396	7	Sololá	717	San Juan la Laguna	12	San Juan la Laguna	7	Julio	2023-07-14T00:00:00	2024-11-08T00:00:00	5	Humedad	93
65397	7	Sololá	717	San Juan la Laguna	12	San Juan la Laguna	7	Julio	2023-07-14T00:00:00	2024-11-08T00:00:00	6	Velocidad del viento	1.6
65398	7	Sololá	717	San Juan la Laguna	12	San Juan la Laguna	7	Julio	2023-07-14T00:00:00	2024-11-08T00:00:00	7	Dirección del viento	1.61
65399	7	Sololá	717	San Juan la Laguna	12	San Juan la Laguna	7	Julio	2023-07-14T00:00:00	2024-11-08T00:00:00	1	Precipitación	4.2
65400	7	Sololá	717	San Juan la Laguna	12	San Juan la Laguna	7	Julio	2023-07-14T00:00:00	2024-11-08T00:00:00	8	Radiación solar	0
65401	7	Sololá	717	San Juan la Laguna	12	San Juan la Laguna	7	Julio	2023-07-14T00:00:00	2024-11-08T01:00:00	2	Temperatura media	16.5
65402	7	Sololá	717	San Juan la Laguna	12	San Juan la Laguna	7	Julio	2023-07-14T00:00:00	2024-11-08T01:00:00	4	Temperatura máxima	16.9
65403	7	Sololá	717	San Juan la Laguna	12	San Juan la Laguna	7	Julio	2023-07-14T00:00:00	2024-11-08T01:00:00	3	Temperatura mínima	16.5
65404	7	Sololá	717	San Juan la Laguna	12	San Juan la Laguna	7	Julio	2023-07-14T00:00:00	2024-11-08T01:00:00	5	Humedad	91
65405	7	Sololá	717	San Juan la Laguna	12	San Juan la Laguna	7	Julio	2023-07-14T00:00:00	2024-11-08T01:00:00	6	Velocidad del viento	4.8
65406	7	Sololá	717	San Juan la Laguna	12	San Juan la Laguna	7	Julio	2023-07-14T00:00:00	2024-11-08T01:00:00	7	Dirección del viento	4.83
65407	7	Sololá	717	San Juan la Laguna	12	San Juan la Laguna	7	Julio	2023-07-14T00:00:00	2024-11-08T01:00:00	1	Precipitación	0
65408	7	Sololá	717	San Juan la Laguna	12	San Juan la Laguna	7	Julio	2023-07-14T00:00:00	2024-11-08T01:00:00	8	Radiación solar	0
65409	7	Sololá	717	San Juan la Laguna	12	San Juan la Laguna	7	Julio	2023-07-14T00:00:00	2024-11-08T02:00:00	2	Temperatura media	16.5
65410	7	Sololá	717	San Juan la Laguna	12	San Juan la Laguna	7	Julio	2023-07-14T00:00:00	2024-11-08T02:00:00	4	Temperatura máxima	16.5
65411	7	Sololá	717	San Juan la Laguna	12	San Juan la Laguna	7	Julio	2023-07-14T00:00:00	2024-11-08T02:00:00	3	Temperatura mínima	16.2
65412	7	Sololá	717	San Juan la Laguna	12	San Juan la Laguna	7	Julio	2023-07-14T00:00:00	2024-11-08T02:00:00	5	Humedad	92
65413	7	Sololá	717	San Juan la Laguna	12	San Juan la Laguna	7	Julio	2023-07-14T00:00:00	2024-11-08T02:00:00	6	Velocidad del viento	3.2
65414	7	Sololá	717	San Juan la Laguna	12	San Juan la Laguna	7	Julio	2023-07-14T00:00:00	2024-11-08T02:00:00	7	Dirección del viento	3.22
65415	7	Sololá	717	San Juan la Laguna	12	San Juan la Laguna	7	Julio	2023-07-14T00:00:00	2024-11-08T02:00:00	1	Precipitación	0.8
65416	7	Sololá	717	San Juan la Laguna	12	San Juan la Laguna	7	Julio	2023-07-14T00:00:00	2024-11-08T02:00:00	8	Radiación solar	0
65417	7	Sololá	717	San Juan la Laguna	12	San Juan la Laguna	7	Julio	2023-07-14T00:00:00	2024-11-08T03:00:00	2	Temperatura media	16.4
65418	7	Sololá	717	San Juan la Laguna	12	San Juan la Laguna	7	Julio	2023-07-14T00:00:00	2024-11-08T03:00:00	4	Temperatura máxima	16.7
65419	7	Sololá	717	San Juan la Laguna	12	San Juan la Laguna	7	Julio	2023-07-14T00:00:00	2024-11-08T03:00:00	3	Temperatura mínima	16.2
65420	7	Sololá	717	San Juan la Laguna	12	San Juan la Laguna	7	Julio	2023-07-14T00:00:00	2024-11-08T03:00:00	5	Humedad	90
65421	7	Sololá	717	San Juan la Laguna	12	San Juan la Laguna	7	Julio	2023-07-14T00:00:00	2024-11-08T03:00:00	6	Velocidad del viento	3.2
65422	7	Sololá	717	San Juan la Laguna	12	San Juan la Laguna	7	Julio	2023-07-14T00:00:00	2024-11-08T03:00:00	7	Dirección del viento	3.22
65423	7	Sololá	717	San Juan la Laguna	12	San Juan la Laguna	7	Julio	2023-07-14T00:00:00	2024-11-08T03:00:00	1	Precipitación	0
65424	7	Sololá	717	San Juan la Laguna	12	San Juan la Laguna	7	Julio	2023-07-14T00:00:00	2024-11-08T03:00:00	8	Radiación solar	0
65425	7	Sololá	717	San Juan la Laguna	12	San Juan la Laguna	7	Julio	2023-07-14T00:00:00	2024-11-08T04:00:00	2	Temperatura media	15.6
65426	7	Sololá	717	San Juan la Laguna	12	San Juan la Laguna	7	Julio	2023-07-14T00:00:00	2024-11-08T04:00:00	4	Temperatura máxima	16.4
65427	7	Sololá	717	San Juan la Laguna	12	San Juan la Laguna	7	Julio	2023-07-14T00:00:00	2024-11-08T04:00:00	3	Temperatura mínima	15.6
65428	7	Sololá	717	San Juan la Laguna	12	San Juan la Laguna	7	Julio	2023-07-14T00:00:00	2024-11-08T04:00:00	5	Humedad	90
65429	7	Sololá	717	San Juan la Laguna	12	San Juan la Laguna	7	Julio	2023-07-14T00:00:00	2024-11-08T04:00:00	6	Velocidad del viento	3.2
65430	7	Sololá	717	San Juan la Laguna	12	San Juan la Laguna	7	Julio	2023-07-14T00:00:00	2024-11-08T04:00:00	7	Dirección del viento	3.22
65431	7	Sololá	717	San Juan la Laguna	12	San Juan la Laguna	7	Julio	2023-07-14T00:00:00	2024-11-08T04:00:00	1	Precipitación	0.2
65432	7	Sololá	717	San Juan la Laguna	12	San Juan la Laguna	7	Julio	2023-07-14T00:00:00	2024-11-08T04:00:00	8	Radiación solar	0
65433	7	Sololá	717	San Juan la Laguna	12	San Juan la Laguna	7	Julio	2023-07-14T00:00:00	2024-11-08T05:00:00	2	Temperatura media	16.1
65434	7	Sololá	717	San Juan la Laguna	12	San Juan la Laguna	7	Julio	2023-07-14T00:00:00	2024-11-08T05:00:00	4	Temperatura máxima	16.3
65435	7	Sololá	717	San Juan la Laguna	12	San Juan la Laguna	7	Julio	2023-07-14T00:00:00	2024-11-08T05:00:00	3	Temperatura mínima	15.6
65436	7	Sololá	717	San Juan la Laguna	12	San Juan la Laguna	7	Julio	2023-07-14T00:00:00	2024-11-08T05:00:00	5	Humedad	85
65437	7	Sololá	717	San Juan la Laguna	12	San Juan la Laguna	7	Julio	2023-07-14T00:00:00	2024-11-08T05:00:00	6	Velocidad del viento	4.8
65438	7	Sololá	717	San Juan la Laguna	12	San Juan la Laguna	7	Julio	2023-07-14T00:00:00	2024-11-08T05:00:00	7	Dirección del viento	4.83
65439	7	Sololá	717	San Juan la Laguna	12	San Juan la Laguna	7	Julio	2023-07-14T00:00:00	2024-11-08T05:00:00	1	Precipitación	0
65440	7	Sololá	717	San Juan la Laguna	12	San Juan la Laguna	7	Julio	2023-07-14T00:00:00	2024-11-08T05:00:00	8	Radiación solar	0
65441	7	Sololá	717	San Juan la Laguna	12	San Juan la Laguna	7	Julio	2023-07-14T00:00:00	2024-11-08T06:00:00	2	Temperatura media	16.5
65442	7	Sololá	717	San Juan la Laguna	12	San Juan la Laguna	7	Julio	2023-07-14T00:00:00	2024-11-08T06:00:00	4	Temperatura máxima	16.5
65443	7	Sololá	717	San Juan la Laguna	12	San Juan la Laguna	7	Julio	2023-07-14T00:00:00	2024-11-08T06:00:00	3	Temperatura mínima	15.7
65444	7	Sololá	717	San Juan la Laguna	12	San Juan la Laguna	7	Julio	2023-07-14T00:00:00	2024-11-08T06:00:00	5	Humedad	84
65445	7	Sololá	717	San Juan la Laguna	12	San Juan la Laguna	7	Julio	2023-07-14T00:00:00	2024-11-08T06:00:00	6	Velocidad del viento	4.8
65446	7	Sololá	717	San Juan la Laguna	12	San Juan la Laguna	7	Julio	2023-07-14T00:00:00	2024-11-08T06:00:00	7	Dirección del viento	4.83
65447	7	Sololá	717	San Juan la Laguna	12	San Juan la Laguna	7	Julio	2023-07-14T00:00:00	2024-11-08T06:00:00	1	Precipitación	0
65448	7	Sololá	717	San Juan la Laguna	12	San Juan la Laguna	7	Julio	2023-07-14T00:00:00	2024-11-08T06:00:00	8	Radiación solar	2
65449	7	Sololá	717	San Juan la Laguna	12	San Juan la Laguna	7	Julio	2023-07-14T00:00:00	2024-11-08T07:00:00	2	Temperatura media	19.9
65450	7	Sololá	717	San Juan la Laguna	12	San Juan la Laguna	7	Julio	2023-07-14T00:00:00	2024-11-08T07:00:00	4	Temperatura máxima	19.9
65451	7	Sololá	717	San Juan la Laguna	12	San Juan la Laguna	7	Julio	2023-07-14T00:00:00	2024-11-08T07:00:00	3	Temperatura mínima	16.4
65452	7	Sololá	717	San Juan la Laguna	12	San Juan la Laguna	7	Julio	2023-07-14T00:00:00	2024-11-08T07:00:00	5	Humedad	67
65453	7	Sololá	717	San Juan la Laguna	12	San Juan la Laguna	7	Julio	2023-07-14T00:00:00	2024-11-08T07:00:00	6	Velocidad del viento	4.8
65454	7	Sololá	717	San Juan la Laguna	12	San Juan la Laguna	7	Julio	2023-07-14T00:00:00	2024-11-08T07:00:00	7	Dirección del viento	4.83
65455	7	Sololá	717	San Juan la Laguna	12	San Juan la Laguna	7	Julio	2023-07-14T00:00:00	2024-11-08T07:00:00	1	Precipitación	0
65456	7	Sololá	717	San Juan la Laguna	12	San Juan la Laguna	7	Julio	2023-07-14T00:00:00	2024-11-08T07:00:00	8	Radiación solar	71
65457	7	Sololá	717	San Juan la Laguna	12	San Juan la Laguna	7	Julio	2023-07-14T00:00:00	2024-11-08T08:00:00	2	Temperatura media	21.7
65458	7	Sololá	717	San Juan la Laguna	12	San Juan la Laguna	7	Julio	2023-07-14T00:00:00	2024-11-08T08:00:00	4	Temperatura máxima	21.7
65459	7	Sololá	717	San Juan la Laguna	12	San Juan la Laguna	7	Julio	2023-07-14T00:00:00	2024-11-08T08:00:00	3	Temperatura mínima	19.9
65460	7	Sololá	717	San Juan la Laguna	12	San Juan la Laguna	7	Julio	2023-07-14T00:00:00	2024-11-08T08:00:00	5	Humedad	61
65461	7	Sololá	717	San Juan la Laguna	12	San Juan la Laguna	7	Julio	2023-07-14T00:00:00	2024-11-08T08:00:00	6	Velocidad del viento	11.3
65462	7	Sololá	717	San Juan la Laguna	12	San Juan la Laguna	7	Julio	2023-07-14T00:00:00	2024-11-08T08:00:00	7	Dirección del viento	11.27
65463	7	Sololá	717	San Juan la Laguna	12	San Juan la Laguna	7	Julio	2023-07-14T00:00:00	2024-11-08T08:00:00	1	Precipitación	0
65464	7	Sololá	717	San Juan la Laguna	12	San Juan la Laguna	7	Julio	2023-07-14T00:00:00	2024-11-08T08:00:00	8	Radiación solar	248
65465	7	Sololá	717	San Juan la Laguna	12	San Juan la Laguna	7	Julio	2023-07-14T00:00:00	2024-11-08T09:00:00	2	Temperatura media	22.6
65466	7	Sololá	717	San Juan la Laguna	12	San Juan la Laguna	7	Julio	2023-07-14T00:00:00	2024-11-08T09:00:00	4	Temperatura máxima	22.6
65467	7	Sololá	717	San Juan la Laguna	12	San Juan la Laguna	7	Julio	2023-07-14T00:00:00	2024-11-08T09:00:00	3	Temperatura mínima	21.6
65468	7	Sololá	717	San Juan la Laguna	12	San Juan la Laguna	7	Julio	2023-07-14T00:00:00	2024-11-08T09:00:00	5	Humedad	55
65469	7	Sololá	717	San Juan la Laguna	12	San Juan la Laguna	7	Julio	2023-07-14T00:00:00	2024-11-08T09:00:00	6	Velocidad del viento	14.5
65470	7	Sololá	717	San Juan la Laguna	12	San Juan la Laguna	7	Julio	2023-07-14T00:00:00	2024-11-08T09:00:00	7	Dirección del viento	14.48
65471	7	Sololá	717	San Juan la Laguna	12	San Juan la Laguna	7	Julio	2023-07-14T00:00:00	2024-11-08T09:00:00	1	Precipitación	0
65472	7	Sololá	717	San Juan la Laguna	12	San Juan la Laguna	7	Julio	2023-07-14T00:00:00	2024-11-08T09:00:00	8	Radiación solar	377
65473	7	Sololá	717	San Juan la Laguna	12	San Juan la Laguna	7	Julio	2023-07-14T00:00:00	2024-11-08T10:00:00	2	Temperatura media	23.5
65474	7	Sololá	717	San Juan la Laguna	12	San Juan la Laguna	7	Julio	2023-07-14T00:00:00	2024-11-08T10:00:00	4	Temperatura máxima	23.5
65475	7	Sololá	717	San Juan la Laguna	12	San Juan la Laguna	7	Julio	2023-07-14T00:00:00	2024-11-08T10:00:00	3	Temperatura mínima	22.4
65476	7	Sololá	717	San Juan la Laguna	12	San Juan la Laguna	7	Julio	2023-07-14T00:00:00	2024-11-08T10:00:00	5	Humedad	51
65477	7	Sololá	717	San Juan la Laguna	12	San Juan la Laguna	7	Julio	2023-07-14T00:00:00	2024-11-08T10:00:00	6	Velocidad del viento	12.9
65478	7	Sololá	717	San Juan la Laguna	12	San Juan la Laguna	7	Julio	2023-07-14T00:00:00	2024-11-08T10:00:00	7	Dirección del viento	12.87
65479	7	Sololá	717	San Juan la Laguna	12	San Juan la Laguna	7	Julio	2023-07-14T00:00:00	2024-11-08T10:00:00	1	Precipitación	0
65480	7	Sololá	717	San Juan la Laguna	12	San Juan la Laguna	7	Julio	2023-07-14T00:00:00	2024-11-08T10:00:00	8	Radiación solar	428
65481	7	Sololá	717	San Juan la Laguna	12	San Juan la Laguna	7	Julio	2023-07-14T00:00:00	2024-11-08T11:00:00	2	Temperatura media	25.6
65482	7	Sololá	717	San Juan la Laguna	12	San Juan la Laguna	7	Julio	2023-07-14T00:00:00	2024-11-08T11:00:00	4	Temperatura máxima	25.7
65483	7	Sololá	717	San Juan la Laguna	12	San Juan la Laguna	7	Julio	2023-07-14T00:00:00	2024-11-08T11:00:00	3	Temperatura mínima	23.5
65484	7	Sololá	717	San Juan la Laguna	12	San Juan la Laguna	7	Julio	2023-07-14T00:00:00	2024-11-08T11:00:00	5	Humedad	48
65485	7	Sololá	717	San Juan la Laguna	12	San Juan la Laguna	7	Julio	2023-07-14T00:00:00	2024-11-08T11:00:00	6	Velocidad del viento	9.7
65486	7	Sololá	717	San Juan la Laguna	12	San Juan la Laguna	7	Julio	2023-07-14T00:00:00	2024-11-08T11:00:00	7	Dirección del viento	9.66
65487	7	Sololá	717	San Juan la Laguna	12	San Juan la Laguna	7	Julio	2023-07-14T00:00:00	2024-11-08T11:00:00	1	Precipitación	0
65488	7	Sololá	717	San Juan la Laguna	12	San Juan la Laguna	7	Julio	2023-07-14T00:00:00	2024-11-08T11:00:00	8	Radiación solar	681
65489	7	Sololá	717	San Juan la Laguna	12	San Juan la Laguna	7	Julio	2023-07-14T00:00:00	2024-11-08T12:00:00	2	Temperatura media	26.9
65490	7	Sololá	717	San Juan la Laguna	12	San Juan la Laguna	7	Julio	2023-07-14T00:00:00	2024-11-08T12:00:00	4	Temperatura máxima	27
65491	7	Sololá	717	San Juan la Laguna	12	San Juan la Laguna	7	Julio	2023-07-14T00:00:00	2024-11-08T12:00:00	3	Temperatura mínima	25.6
65492	7	Sololá	717	San Juan la Laguna	12	San Juan la Laguna	7	Julio	2023-07-14T00:00:00	2024-11-08T12:00:00	5	Humedad	45
65493	7	Sololá	717	San Juan la Laguna	12	San Juan la Laguna	7	Julio	2023-07-14T00:00:00	2024-11-08T12:00:00	6	Velocidad del viento	9.7
65494	7	Sololá	717	San Juan la Laguna	12	San Juan la Laguna	7	Julio	2023-07-14T00:00:00	2024-11-08T12:00:00	7	Dirección del viento	9.66
65495	7	Sololá	717	San Juan la Laguna	12	San Juan la Laguna	7	Julio	2023-07-14T00:00:00	2024-11-08T12:00:00	1	Precipitación	0
65496	7	Sololá	717	San Juan la Laguna	12	San Juan la Laguna	7	Julio	2023-07-14T00:00:00	2024-11-08T12:00:00	8	Radiación solar	767
65497	7	Sololá	717	San Juan la Laguna	12	San Juan la Laguna	7	Julio	2023-07-14T00:00:00	2024-11-08T13:00:00	2	Temperatura media	27.9
65498	7	Sololá	717	San Juan la Laguna	12	San Juan la Laguna	7	Julio	2023-07-14T00:00:00	2024-11-08T13:00:00	4	Temperatura máxima	28.1
65499	7	Sololá	717	San Juan la Laguna	12	San Juan la Laguna	7	Julio	2023-07-14T00:00:00	2024-11-08T13:00:00	3	Temperatura mínima	26.7
65500	7	Sololá	717	San Juan la Laguna	12	San Juan la Laguna	7	Julio	2023-07-14T00:00:00	2024-11-08T13:00:00	5	Humedad	43
65501	7	Sololá	717	San Juan la Laguna	12	San Juan la Laguna	7	Julio	2023-07-14T00:00:00	2024-11-08T13:00:00	6	Velocidad del viento	8
65502	7	Sololá	717	San Juan la Laguna	12	San Juan la Laguna	7	Julio	2023-07-14T00:00:00	2024-11-08T13:00:00	7	Dirección del viento	8.05
65503	7	Sololá	717	San Juan la Laguna	12	San Juan la Laguna	7	Julio	2023-07-14T00:00:00	2024-11-08T13:00:00	1	Precipitación	0
65504	7	Sololá	717	San Juan la Laguna	12	San Juan la Laguna	7	Julio	2023-07-14T00:00:00	2024-11-08T13:00:00	8	Radiación solar	923
65505	7	Sololá	717	San Juan la Laguna	12	San Juan la Laguna	7	Julio	2023-07-14T00:00:00	2024-11-08T14:00:00	2	Temperatura media	27.6
65506	7	Sololá	717	San Juan la Laguna	12	San Juan la Laguna	7	Julio	2023-07-14T00:00:00	2024-11-08T14:00:00	4	Temperatura máxima	27.9
65507	7	Sololá	717	San Juan la Laguna	12	San Juan la Laguna	7	Julio	2023-07-14T00:00:00	2024-11-08T14:00:00	3	Temperatura mínima	27.4
65508	7	Sololá	717	San Juan la Laguna	12	San Juan la Laguna	7	Julio	2023-07-14T00:00:00	2024-11-08T14:00:00	5	Humedad	45
65509	7	Sololá	717	San Juan la Laguna	12	San Juan la Laguna	7	Julio	2023-07-14T00:00:00	2024-11-08T14:00:00	6	Velocidad del viento	6.4
65510	7	Sololá	717	San Juan la Laguna	12	San Juan la Laguna	7	Julio	2023-07-14T00:00:00	2024-11-08T14:00:00	7	Dirección del viento	6.44
65511	7	Sololá	717	San Juan la Laguna	12	San Juan la Laguna	7	Julio	2023-07-14T00:00:00	2024-11-08T14:00:00	1	Precipitación	0
65512	7	Sololá	717	San Juan la Laguna	12	San Juan la Laguna	7	Julio	2023-07-14T00:00:00	2024-11-08T14:00:00	8	Radiación solar	837
65513	7	Sololá	717	San Juan la Laguna	12	San Juan la Laguna	7	Julio	2023-07-14T00:00:00	2024-11-08T15:00:00	2	Temperatura media	25.9
65514	7	Sololá	717	San Juan la Laguna	12	San Juan la Laguna	7	Julio	2023-07-14T00:00:00	2024-11-08T15:00:00	4	Temperatura máxima	27.6
65515	7	Sololá	717	San Juan la Laguna	12	San Juan la Laguna	7	Julio	2023-07-14T00:00:00	2024-11-08T15:00:00	3	Temperatura mínima	25.9
65516	7	Sololá	717	San Juan la Laguna	12	San Juan la Laguna	7	Julio	2023-07-14T00:00:00	2024-11-08T15:00:00	5	Humedad	51
65517	7	Sololá	717	San Juan la Laguna	12	San Juan la Laguna	7	Julio	2023-07-14T00:00:00	2024-11-08T15:00:00	6	Velocidad del viento	8
65518	7	Sololá	717	San Juan la Laguna	12	San Juan la Laguna	7	Julio	2023-07-14T00:00:00	2024-11-08T15:00:00	7	Dirección del viento	8.05
65519	7	Sololá	717	San Juan la Laguna	12	San Juan la Laguna	7	Julio	2023-07-14T00:00:00	2024-11-08T15:00:00	1	Precipitación	0
65520	7	Sololá	717	San Juan la Laguna	12	San Juan la Laguna	7	Julio	2023-07-14T00:00:00	2024-11-08T15:00:00	8	Radiación solar	377
65521	7	Sololá	717	San Juan la Laguna	12	San Juan la Laguna	7	Julio	2023-07-14T00:00:00	2024-11-08T16:00:00	2	Temperatura media	26.8
65522	7	Sololá	717	San Juan la Laguna	12	San Juan la Laguna	7	Julio	2023-07-14T00:00:00	2024-11-08T16:00:00	4	Temperatura máxima	26.8
65523	7	Sololá	717	San Juan la Laguna	12	San Juan la Laguna	7	Julio	2023-07-14T00:00:00	2024-11-08T16:00:00	3	Temperatura mínima	25.8
65524	7	Sololá	717	San Juan la Laguna	12	San Juan la Laguna	7	Julio	2023-07-14T00:00:00	2024-11-08T16:00:00	5	Humedad	50
65525	7	Sololá	717	San Juan la Laguna	12	San Juan la Laguna	7	Julio	2023-07-14T00:00:00	2024-11-08T16:00:00	6	Velocidad del viento	9.7
65526	7	Sololá	717	San Juan la Laguna	12	San Juan la Laguna	7	Julio	2023-07-14T00:00:00	2024-11-08T16:00:00	7	Dirección del viento	9.66
65527	7	Sololá	717	San Juan la Laguna	12	San Juan la Laguna	7	Julio	2023-07-14T00:00:00	2024-11-08T16:00:00	1	Precipitación	0
65528	7	Sololá	717	San Juan la Laguna	12	San Juan la Laguna	7	Julio	2023-07-14T00:00:00	2024-11-08T16:00:00	8	Radiación solar	602
65529	7	Sololá	717	San Juan la Laguna	12	San Juan la Laguna	7	Julio	2023-07-14T00:00:00	2024-11-08T17:00:00	2	Temperatura media	24.6
65530	7	Sololá	717	San Juan la Laguna	12	San Juan la Laguna	7	Julio	2023-07-14T00:00:00	2024-11-08T17:00:00	4	Temperatura máxima	26.8
65531	7	Sololá	717	San Juan la Laguna	12	San Juan la Laguna	7	Julio	2023-07-14T00:00:00	2024-11-08T17:00:00	3	Temperatura mínima	24.6
65532	7	Sololá	717	San Juan la Laguna	12	San Juan la Laguna	7	Julio	2023-07-14T00:00:00	2024-11-08T17:00:00	5	Humedad	53
65533	7	Sololá	717	San Juan la Laguna	12	San Juan la Laguna	7	Julio	2023-07-14T00:00:00	2024-11-08T17:00:00	6	Velocidad del viento	9.7
65534	7	Sololá	717	San Juan la Laguna	12	San Juan la Laguna	7	Julio	2023-07-14T00:00:00	2024-11-08T17:00:00	7	Dirección del viento	9.66
65535	7	Sololá	717	San Juan la Laguna	12	San Juan la Laguna	7	Julio	2023-07-14T00:00:00	2024-11-08T17:00:00	1	Precipitación	0
65536	7	Sololá	717	San Juan la Laguna	12	San Juan la Laguna	7	Julio	2023-07-14T00:00:00	2024-11-08T17:00:00	8	Radiación solar	388
65537	7	Sololá	717	San Juan la Laguna	12	San Juan la Laguna	7	Julio	2023-07-14T00:00:00	2024-11-08T18:00:00	2	Temperatura media	23.4
65538	7	Sololá	717	San Juan la Laguna	12	San Juan la Laguna	7	Julio	2023-07-14T00:00:00	2024-11-08T18:00:00	4	Temperatura máxima	24.6
65539	7	Sololá	717	San Juan la Laguna	12	San Juan la Laguna	7	Julio	2023-07-14T00:00:00	2024-11-08T18:00:00	3	Temperatura mínima	23.4
65540	7	Sololá	717	San Juan la Laguna	12	San Juan la Laguna	7	Julio	2023-07-14T00:00:00	2024-11-08T18:00:00	5	Humedad	57
65541	7	Sololá	717	San Juan la Laguna	12	San Juan la Laguna	7	Julio	2023-07-14T00:00:00	2024-11-08T18:00:00	6	Velocidad del viento	12.9
65542	7	Sololá	717	San Juan la Laguna	12	San Juan la Laguna	7	Julio	2023-07-14T00:00:00	2024-11-08T18:00:00	7	Dirección del viento	12.87
65543	7	Sololá	717	San Juan la Laguna	12	San Juan la Laguna	7	Julio	2023-07-14T00:00:00	2024-11-08T18:00:00	1	Precipitación	0
65544	7	Sololá	717	San Juan la Laguna	12	San Juan la Laguna	7	Julio	2023-07-14T00:00:00	2024-11-08T18:00:00	8	Radiación solar	99
65545	7	Sololá	717	San Juan la Laguna	12	San Juan la Laguna	7	Julio	2023-07-14T00:00:00	2024-11-08T19:00:00	2	Temperatura media	22.9
65546	7	Sololá	717	San Juan la Laguna	12	San Juan la Laguna	7	Julio	2023-07-14T00:00:00	2024-11-08T19:00:00	4	Temperatura máxima	23.5
65547	7	Sololá	717	San Juan la Laguna	12	San Juan la Laguna	7	Julio	2023-07-14T00:00:00	2024-11-08T19:00:00	3	Temperatura mínima	22.9
65548	7	Sololá	717	San Juan la Laguna	12	San Juan la Laguna	7	Julio	2023-07-14T00:00:00	2024-11-08T19:00:00	5	Humedad	62
65549	7	Sololá	717	San Juan la Laguna	12	San Juan la Laguna	7	Julio	2023-07-14T00:00:00	2024-11-08T19:00:00	6	Velocidad del viento	11.3
65550	7	Sololá	717	San Juan la Laguna	12	San Juan la Laguna	7	Julio	2023-07-14T00:00:00	2024-11-08T19:00:00	7	Dirección del viento	11.27
65551	7	Sololá	717	San Juan la Laguna	12	San Juan la Laguna	7	Julio	2023-07-14T00:00:00	2024-11-08T19:00:00	1	Precipitación	0
65552	7	Sololá	717	San Juan la Laguna	12	San Juan la Laguna	7	Julio	2023-07-14T00:00:00	2024-11-08T19:00:00	8	Radiación solar	0
65553	7	Sololá	717	San Juan la Laguna	12	San Juan la Laguna	7	Julio	2023-07-14T00:00:00	2024-11-08T20:00:00	2	Temperatura media	22.4
65554	7	Sololá	717	San Juan la Laguna	12	San Juan la Laguna	7	Julio	2023-07-14T00:00:00	2024-11-08T20:00:00	4	Temperatura máxima	22.9
65555	7	Sololá	717	San Juan la Laguna	12	San Juan la Laguna	7	Julio	2023-07-14T00:00:00	2024-11-08T20:00:00	3	Temperatura mínima	22.4
65556	7	Sololá	717	San Juan la Laguna	12	San Juan la Laguna	7	Julio	2023-07-14T00:00:00	2024-11-08T20:00:00	5	Humedad	64
65557	7	Sololá	717	San Juan la Laguna	12	San Juan la Laguna	7	Julio	2023-07-14T00:00:00	2024-11-08T20:00:00	6	Velocidad del viento	14.5
65558	7	Sololá	717	San Juan la Laguna	12	San Juan la Laguna	7	Julio	2023-07-14T00:00:00	2024-11-08T20:00:00	7	Dirección del viento	14.48
65559	7	Sololá	717	San Juan la Laguna	12	San Juan la Laguna	7	Julio	2023-07-14T00:00:00	2024-11-08T20:00:00	1	Precipitación	0
65560	7	Sololá	717	San Juan la Laguna	12	San Juan la Laguna	7	Julio	2023-07-14T00:00:00	2024-11-08T20:00:00	8	Radiación solar	0
65561	7	Sololá	717	San Juan la Laguna	12	San Juan la Laguna	7	Julio	2023-07-14T00:00:00	2024-11-08T21:00:00	2	Temperatura media	21.7
65562	7	Sololá	717	San Juan la Laguna	12	San Juan la Laguna	7	Julio	2023-07-14T00:00:00	2024-11-08T21:00:00	4	Temperatura máxima	22.4
65563	7	Sololá	717	San Juan la Laguna	12	San Juan la Laguna	7	Julio	2023-07-14T00:00:00	2024-11-08T21:00:00	3	Temperatura mínima	21.7
65564	7	Sololá	717	San Juan la Laguna	12	San Juan la Laguna	7	Julio	2023-07-14T00:00:00	2024-11-08T21:00:00	5	Humedad	67
65565	7	Sololá	717	San Juan la Laguna	12	San Juan la Laguna	7	Julio	2023-07-14T00:00:00	2024-11-08T21:00:00	6	Velocidad del viento	11.3
65566	7	Sololá	717	San Juan la Laguna	12	San Juan la Laguna	7	Julio	2023-07-14T00:00:00	2024-11-08T21:00:00	7	Dirección del viento	11.27
65567	7	Sololá	717	San Juan la Laguna	12	San Juan la Laguna	7	Julio	2023-07-14T00:00:00	2024-11-08T21:00:00	1	Precipitación	0
65568	7	Sololá	717	San Juan la Laguna	12	San Juan la Laguna	7	Julio	2023-07-14T00:00:00	2024-11-08T21:00:00	8	Radiación solar	0
65569	7	Sololá	717	San Juan la Laguna	12	San Juan la Laguna	7	Julio	2023-07-14T00:00:00	2024-11-08T22:00:00	2	Temperatura media	21.9
65570	7	Sololá	717	San Juan la Laguna	12	San Juan la Laguna	7	Julio	2023-07-14T00:00:00	2024-11-08T22:00:00	4	Temperatura máxima	21.9
65571	7	Sololá	717	San Juan la Laguna	12	San Juan la Laguna	7	Julio	2023-07-14T00:00:00	2024-11-08T22:00:00	3	Temperatura mínima	21.6
65572	7	Sololá	717	San Juan la Laguna	12	San Juan la Laguna	7	Julio	2023-07-14T00:00:00	2024-11-08T22:00:00	5	Humedad	62
65573	7	Sololá	717	San Juan la Laguna	12	San Juan la Laguna	7	Julio	2023-07-14T00:00:00	2024-11-08T22:00:00	6	Velocidad del viento	14.5
65574	7	Sololá	717	San Juan la Laguna	12	San Juan la Laguna	7	Julio	2023-07-14T00:00:00	2024-11-08T22:00:00	7	Dirección del viento	14.48
65575	7	Sololá	717	San Juan la Laguna	12	San Juan la Laguna	7	Julio	2023-07-14T00:00:00	2024-11-08T22:00:00	1	Precipitación	0
65576	7	Sololá	717	San Juan la Laguna	12	San Juan la Laguna	7	Julio	2023-07-14T00:00:00	2024-11-08T22:00:00	8	Radiación solar	0
65577	7	Sololá	717	San Juan la Laguna	12	San Juan la Laguna	7	Julio	2023-07-14T00:00:00	2024-11-08T23:00:00	2	Temperatura media	21.2
65578	7	Sololá	717	San Juan la Laguna	12	San Juan la Laguna	7	Julio	2023-07-14T00:00:00	2024-11-08T23:00:00	4	Temperatura máxima	21.9
65579	7	Sololá	717	San Juan la Laguna	12	San Juan la Laguna	7	Julio	2023-07-14T00:00:00	2024-11-08T23:00:00	3	Temperatura mínima	21.2
65580	7	Sololá	717	San Juan la Laguna	12	San Juan la Laguna	7	Julio	2023-07-14T00:00:00	2024-11-08T23:00:00	5	Humedad	63
65581	7	Sololá	717	San Juan la Laguna	12	San Juan la Laguna	7	Julio	2023-07-14T00:00:00	2024-11-08T23:00:00	6	Velocidad del viento	14.5
65582	7	Sololá	717	San Juan la Laguna	12	San Juan la Laguna	7	Julio	2023-07-14T00:00:00	2024-11-08T23:00:00	7	Dirección del viento	14.48
65583	7	Sololá	717	San Juan la Laguna	12	San Juan la Laguna	7	Julio	2023-07-14T00:00:00	2024-11-08T23:00:00	1	Precipitación	0
65584	7	Sololá	717	San Juan la Laguna	12	San Juan la Laguna	7	Julio	2023-07-14T00:00:00	2024-11-08T23:00:00	8	Radiación solar	0
65585	7	Sololá	717	San Juan la Laguna	12	San Juan la Laguna	7	Julio	2023-07-15T00:00:00	2024-11-08T00:00:00	2	Temperatura media	20.9
65586	7	Sololá	717	San Juan la Laguna	12	San Juan la Laguna	7	Julio	2023-07-15T00:00:00	2024-11-08T00:00:00	4	Temperatura máxima	21.2
65587	7	Sololá	717	San Juan la Laguna	12	San Juan la Laguna	7	Julio	2023-07-15T00:00:00	2024-11-08T00:00:00	3	Temperatura mínima	20.8
65588	7	Sololá	717	San Juan la Laguna	12	San Juan la Laguna	7	Julio	2023-07-15T00:00:00	2024-11-08T00:00:00	5	Humedad	63
65589	7	Sololá	717	San Juan la Laguna	12	San Juan la Laguna	7	Julio	2023-07-15T00:00:00	2024-11-08T00:00:00	6	Velocidad del viento	12.9
65590	7	Sololá	717	San Juan la Laguna	12	San Juan la Laguna	7	Julio	2023-07-15T00:00:00	2024-11-08T00:00:00	7	Dirección del viento	12.87
65591	7	Sololá	717	San Juan la Laguna	12	San Juan la Laguna	7	Julio	2023-07-15T00:00:00	2024-11-08T00:00:00	1	Precipitación	0
65592	7	Sololá	717	San Juan la Laguna	12	San Juan la Laguna	7	Julio	2023-07-15T00:00:00	2024-11-08T00:00:00	8	Radiación solar	0
65593	7	Sololá	717	San Juan la Laguna	12	San Juan la Laguna	7	Julio	2023-07-15T00:00:00	2024-11-08T01:00:00	2	Temperatura media	20.6
65594	7	Sololá	717	San Juan la Laguna	12	San Juan la Laguna	7	Julio	2023-07-15T00:00:00	2024-11-08T01:00:00	4	Temperatura máxima	20.9
65595	7	Sololá	717	San Juan la Laguna	12	San Juan la Laguna	7	Julio	2023-07-15T00:00:00	2024-11-08T01:00:00	3	Temperatura mínima	20.6
65596	7	Sololá	717	San Juan la Laguna	12	San Juan la Laguna	7	Julio	2023-07-15T00:00:00	2024-11-08T01:00:00	5	Humedad	64
65597	7	Sololá	717	San Juan la Laguna	12	San Juan la Laguna	7	Julio	2023-07-15T00:00:00	2024-11-08T01:00:00	6	Velocidad del viento	14.5
65598	7	Sololá	717	San Juan la Laguna	12	San Juan la Laguna	7	Julio	2023-07-15T00:00:00	2024-11-08T01:00:00	7	Dirección del viento	14.48
65599	7	Sololá	717	San Juan la Laguna	12	San Juan la Laguna	7	Julio	2023-07-15T00:00:00	2024-11-08T01:00:00	1	Precipitación	0
65600	7	Sololá	717	San Juan la Laguna	12	San Juan la Laguna	7	Julio	2023-07-15T00:00:00	2024-11-08T01:00:00	8	Radiación solar	0
65601	7	Sololá	717	San Juan la Laguna	12	San Juan la Laguna	7	Julio	2023-07-15T00:00:00	2024-11-08T02:00:00	2	Temperatura media	20.3
65602	7	Sololá	717	San Juan la Laguna	12	San Juan la Laguna	7	Julio	2023-07-15T00:00:00	2024-11-08T02:00:00	4	Temperatura máxima	20.7
65603	7	Sololá	717	San Juan la Laguna	12	San Juan la Laguna	7	Julio	2023-07-15T00:00:00	2024-11-08T02:00:00	3	Temperatura mínima	20.3
65604	7	Sololá	717	San Juan la Laguna	12	San Juan la Laguna	7	Julio	2023-07-15T00:00:00	2024-11-08T02:00:00	5	Humedad	65
65605	7	Sololá	717	San Juan la Laguna	12	San Juan la Laguna	7	Julio	2023-07-15T00:00:00	2024-11-08T02:00:00	6	Velocidad del viento	14.5
65606	7	Sololá	717	San Juan la Laguna	12	San Juan la Laguna	7	Julio	2023-07-15T00:00:00	2024-11-08T02:00:00	7	Dirección del viento	14.48
65607	7	Sololá	717	San Juan la Laguna	12	San Juan la Laguna	7	Julio	2023-07-15T00:00:00	2024-11-08T02:00:00	1	Precipitación	0
65608	7	Sololá	717	San Juan la Laguna	12	San Juan la Laguna	7	Julio	2023-07-15T00:00:00	2024-11-08T02:00:00	8	Radiación solar	0
65609	7	Sololá	717	San Juan la Laguna	12	San Juan la Laguna	7	Julio	2023-07-15T00:00:00	2024-11-08T03:00:00	2	Temperatura media	19.6
65610	7	Sololá	717	San Juan la Laguna	12	San Juan la Laguna	7	Julio	2023-07-15T00:00:00	2024-11-08T03:00:00	4	Temperatura máxima	20.3
65611	7	Sololá	717	San Juan la Laguna	12	San Juan la Laguna	7	Julio	2023-07-15T00:00:00	2024-11-08T03:00:00	3	Temperatura mínima	19.6
65612	7	Sololá	717	San Juan la Laguna	12	San Juan la Laguna	7	Julio	2023-07-15T00:00:00	2024-11-08T03:00:00	5	Humedad	70
65613	7	Sololá	717	San Juan la Laguna	12	San Juan la Laguna	7	Julio	2023-07-15T00:00:00	2024-11-08T03:00:00	6	Velocidad del viento	6.4
65614	7	Sololá	717	San Juan la Laguna	12	San Juan la Laguna	7	Julio	2023-07-15T00:00:00	2024-11-08T03:00:00	7	Dirección del viento	6.44
65615	7	Sololá	717	San Juan la Laguna	12	San Juan la Laguna	7	Julio	2023-07-15T00:00:00	2024-11-08T03:00:00	1	Precipitación	0
65616	7	Sololá	717	San Juan la Laguna	12	San Juan la Laguna	7	Julio	2023-07-15T00:00:00	2024-11-08T03:00:00	8	Radiación solar	0
65617	7	Sololá	717	San Juan la Laguna	12	San Juan la Laguna	7	Julio	2023-07-15T00:00:00	2024-11-08T04:00:00	2	Temperatura media	16.7
65618	7	Sololá	717	San Juan la Laguna	12	San Juan la Laguna	7	Julio	2023-07-15T00:00:00	2024-11-08T04:00:00	4	Temperatura máxima	19.6
65619	7	Sololá	717	San Juan la Laguna	12	San Juan la Laguna	7	Julio	2023-07-15T00:00:00	2024-11-08T04:00:00	3	Temperatura mínima	16.7
65620	7	Sololá	717	San Juan la Laguna	12	San Juan la Laguna	7	Julio	2023-07-15T00:00:00	2024-11-08T04:00:00	5	Humedad	82
65621	7	Sololá	717	San Juan la Laguna	12	San Juan la Laguna	7	Julio	2023-07-15T00:00:00	2024-11-08T04:00:00	6	Velocidad del viento	0
65622	7	Sololá	717	San Juan la Laguna	12	San Juan la Laguna	7	Julio	2023-07-15T00:00:00	2024-11-08T04:00:00	7	Dirección del viento	0
65623	7	Sololá	717	San Juan la Laguna	12	San Juan la Laguna	7	Julio	2023-07-15T00:00:00	2024-11-08T04:00:00	1	Precipitación	0
65624	7	Sololá	717	San Juan la Laguna	12	San Juan la Laguna	7	Julio	2023-07-15T00:00:00	2024-11-08T04:00:00	8	Radiación solar	0
65625	7	Sololá	717	San Juan la Laguna	12	San Juan la Laguna	7	Julio	2023-07-15T00:00:00	2024-11-08T05:00:00	2	Temperatura media	17.6
65626	7	Sololá	717	San Juan la Laguna	12	San Juan la Laguna	7	Julio	2023-07-15T00:00:00	2024-11-08T05:00:00	4	Temperatura máxima	18.3
65627	7	Sololá	717	San Juan la Laguna	12	San Juan la Laguna	7	Julio	2023-07-15T00:00:00	2024-11-08T05:00:00	3	Temperatura mínima	16.7
65628	7	Sololá	717	San Juan la Laguna	12	San Juan la Laguna	7	Julio	2023-07-15T00:00:00	2024-11-08T05:00:00	5	Humedad	81
65629	7	Sololá	717	San Juan la Laguna	12	San Juan la Laguna	7	Julio	2023-07-15T00:00:00	2024-11-08T05:00:00	6	Velocidad del viento	0
65630	7	Sololá	717	San Juan la Laguna	12	San Juan la Laguna	7	Julio	2023-07-15T00:00:00	2024-11-08T05:00:00	7	Dirección del viento	0
65631	7	Sololá	717	San Juan la Laguna	12	San Juan la Laguna	7	Julio	2023-07-15T00:00:00	2024-11-08T05:00:00	1	Precipitación	0
65632	7	Sololá	717	San Juan la Laguna	12	San Juan la Laguna	7	Julio	2023-07-15T00:00:00	2024-11-08T05:00:00	8	Radiación solar	0
65633	7	Sololá	717	San Juan la Laguna	12	San Juan la Laguna	7	Julio	2023-07-15T00:00:00	2024-11-08T06:00:00	2	Temperatura media	20.1
65634	7	Sololá	717	San Juan la Laguna	12	San Juan la Laguna	7	Julio	2023-07-15T00:00:00	2024-11-08T06:00:00	4	Temperatura máxima	20.3
65635	7	Sololá	717	San Juan la Laguna	12	San Juan la Laguna	7	Julio	2023-07-15T00:00:00	2024-11-08T06:00:00	3	Temperatura mínima	17.6
65636	7	Sololá	717	San Juan la Laguna	12	San Juan la Laguna	7	Julio	2023-07-15T00:00:00	2024-11-08T06:00:00	5	Humedad	70
65637	7	Sololá	717	San Juan la Laguna	12	San Juan la Laguna	7	Julio	2023-07-15T00:00:00	2024-11-08T06:00:00	6	Velocidad del viento	8
65638	7	Sololá	717	San Juan la Laguna	12	San Juan la Laguna	7	Julio	2023-07-15T00:00:00	2024-11-08T06:00:00	7	Dirección del viento	8.05
65639	7	Sololá	717	San Juan la Laguna	12	San Juan la Laguna	7	Julio	2023-07-15T00:00:00	2024-11-08T06:00:00	1	Precipitación	0
65640	7	Sololá	717	San Juan la Laguna	12	San Juan la Laguna	7	Julio	2023-07-15T00:00:00	2024-11-08T06:00:00	8	Radiación solar	1
65641	7	Sololá	717	San Juan la Laguna	12	San Juan la Laguna	7	Julio	2023-07-15T00:00:00	2024-11-08T07:00:00	2	Temperatura media	20.4
65642	7	Sololá	717	San Juan la Laguna	12	San Juan la Laguna	7	Julio	2023-07-15T00:00:00	2024-11-08T07:00:00	4	Temperatura máxima	20.7
65643	7	Sololá	717	San Juan la Laguna	12	San Juan la Laguna	7	Julio	2023-07-15T00:00:00	2024-11-08T07:00:00	3	Temperatura mínima	20.1
65644	7	Sololá	717	San Juan la Laguna	12	San Juan la Laguna	7	Julio	2023-07-15T00:00:00	2024-11-08T07:00:00	5	Humedad	69
65645	7	Sololá	717	San Juan la Laguna	12	San Juan la Laguna	7	Julio	2023-07-15T00:00:00	2024-11-08T07:00:00	6	Velocidad del viento	9.7
65646	7	Sololá	717	San Juan la Laguna	12	San Juan la Laguna	7	Julio	2023-07-15T00:00:00	2024-11-08T07:00:00	7	Dirección del viento	9.66
65647	7	Sololá	717	San Juan la Laguna	12	San Juan la Laguna	7	Julio	2023-07-15T00:00:00	2024-11-08T07:00:00	1	Precipitación	0
65648	7	Sololá	717	San Juan la Laguna	12	San Juan la Laguna	7	Julio	2023-07-15T00:00:00	2024-11-08T07:00:00	8	Radiación solar	53
65649	7	Sololá	717	San Juan la Laguna	12	San Juan la Laguna	7	Julio	2023-07-15T00:00:00	2024-11-08T08:00:00	2	Temperatura media	21.3
65650	7	Sololá	717	San Juan la Laguna	12	San Juan la Laguna	7	Julio	2023-07-15T00:00:00	2024-11-08T08:00:00	4	Temperatura máxima	21.3
65651	7	Sololá	717	San Juan la Laguna	12	San Juan la Laguna	7	Julio	2023-07-15T00:00:00	2024-11-08T08:00:00	3	Temperatura mínima	20.3
65652	7	Sololá	717	San Juan la Laguna	12	San Juan la Laguna	7	Julio	2023-07-15T00:00:00	2024-11-08T08:00:00	5	Humedad	66
65653	7	Sololá	717	San Juan la Laguna	12	San Juan la Laguna	7	Julio	2023-07-15T00:00:00	2024-11-08T08:00:00	6	Velocidad del viento	8
65654	7	Sololá	717	San Juan la Laguna	12	San Juan la Laguna	7	Julio	2023-07-15T00:00:00	2024-11-08T08:00:00	7	Dirección del viento	8.05
65655	7	Sololá	717	San Juan la Laguna	12	San Juan la Laguna	7	Julio	2023-07-15T00:00:00	2024-11-08T08:00:00	1	Precipitación	0
65656	7	Sololá	717	San Juan la Laguna	12	San Juan la Laguna	7	Julio	2023-07-15T00:00:00	2024-11-08T08:00:00	8	Radiación solar	155
65657	7	Sololá	717	San Juan la Laguna	12	San Juan la Laguna	7	Julio	2023-07-15T00:00:00	2024-11-08T09:00:00	2	Temperatura media	22.3
65658	7	Sololá	717	San Juan la Laguna	12	San Juan la Laguna	7	Julio	2023-07-15T00:00:00	2024-11-08T09:00:00	4	Temperatura máxima	22.3
65659	7	Sololá	717	San Juan la Laguna	12	San Juan la Laguna	7	Julio	2023-07-15T00:00:00	2024-11-08T09:00:00	3	Temperatura mínima	21.3
65660	7	Sololá	717	San Juan la Laguna	12	San Juan la Laguna	7	Julio	2023-07-15T00:00:00	2024-11-08T09:00:00	5	Humedad	66
65661	7	Sololá	717	San Juan la Laguna	12	San Juan la Laguna	7	Julio	2023-07-15T00:00:00	2024-11-08T09:00:00	6	Velocidad del viento	1.6
65662	7	Sololá	717	San Juan la Laguna	12	San Juan la Laguna	7	Julio	2023-07-15T00:00:00	2024-11-08T09:00:00	7	Dirección del viento	1.61
65663	7	Sololá	717	San Juan la Laguna	12	San Juan la Laguna	7	Julio	2023-07-15T00:00:00	2024-11-08T09:00:00	1	Precipitación	0
65664	7	Sololá	717	San Juan la Laguna	12	San Juan la Laguna	7	Julio	2023-07-15T00:00:00	2024-11-08T09:00:00	8	Radiación solar	303
65665	7	Sololá	717	San Juan la Laguna	12	San Juan la Laguna	7	Julio	2023-07-15T00:00:00	2024-11-08T10:00:00	2	Temperatura media	23.2
65666	7	Sololá	717	San Juan la Laguna	12	San Juan la Laguna	7	Julio	2023-07-15T00:00:00	2024-11-08T10:00:00	4	Temperatura máxima	23.3
65667	7	Sololá	717	San Juan la Laguna	12	San Juan la Laguna	7	Julio	2023-07-15T00:00:00	2024-11-08T10:00:00	3	Temperatura mínima	22.3
65668	7	Sololá	717	San Juan la Laguna	12	San Juan la Laguna	7	Julio	2023-07-15T00:00:00	2024-11-08T10:00:00	5	Humedad	62
65669	7	Sololá	717	San Juan la Laguna	12	San Juan la Laguna	7	Julio	2023-07-15T00:00:00	2024-11-08T10:00:00	6	Velocidad del viento	0
65670	7	Sololá	717	San Juan la Laguna	12	San Juan la Laguna	7	Julio	2023-07-15T00:00:00	2024-11-08T10:00:00	7	Dirección del viento	0
65671	7	Sololá	717	San Juan la Laguna	12	San Juan la Laguna	7	Julio	2023-07-15T00:00:00	2024-11-08T10:00:00	1	Precipitación	0
65672	7	Sololá	717	San Juan la Laguna	12	San Juan la Laguna	7	Julio	2023-07-15T00:00:00	2024-11-08T10:00:00	8	Radiación solar	521
65673	7	Sololá	717	San Juan la Laguna	12	San Juan la Laguna	7	Julio	2023-07-15T00:00:00	2024-11-08T11:00:00	2	Temperatura media	24.6
65674	7	Sololá	717	San Juan la Laguna	12	San Juan la Laguna	7	Julio	2023-07-15T00:00:00	2024-11-08T11:00:00	4	Temperatura máxima	24.6
65675	7	Sololá	717	San Juan la Laguna	12	San Juan la Laguna	7	Julio	2023-07-15T00:00:00	2024-11-08T11:00:00	3	Temperatura mínima	23.2
65676	7	Sololá	717	San Juan la Laguna	12	San Juan la Laguna	7	Julio	2023-07-15T00:00:00	2024-11-08T11:00:00	5	Humedad	58
65677	7	Sololá	717	San Juan la Laguna	12	San Juan la Laguna	7	Julio	2023-07-15T00:00:00	2024-11-08T11:00:00	6	Velocidad del viento	0
65678	7	Sololá	717	San Juan la Laguna	12	San Juan la Laguna	7	Julio	2023-07-15T00:00:00	2024-11-08T11:00:00	7	Dirección del viento	0
65679	7	Sololá	717	San Juan la Laguna	12	San Juan la Laguna	7	Julio	2023-07-15T00:00:00	2024-11-08T11:00:00	1	Precipitación	0
65680	7	Sololá	717	San Juan la Laguna	12	San Juan la Laguna	7	Julio	2023-07-15T00:00:00	2024-11-08T11:00:00	8	Radiación solar	692
65681	7	Sololá	717	San Juan la Laguna	12	San Juan la Laguna	7	Julio	2023-07-15T00:00:00	2024-11-08T12:00:00	2	Temperatura media	25.3
65682	7	Sololá	717	San Juan la Laguna	12	San Juan la Laguna	7	Julio	2023-07-15T00:00:00	2024-11-08T12:00:00	4	Temperatura máxima	25.5
65683	7	Sololá	717	San Juan la Laguna	12	San Juan la Laguna	7	Julio	2023-07-15T00:00:00	2024-11-08T12:00:00	3	Temperatura mínima	24.6
65684	7	Sololá	717	San Juan la Laguna	12	San Juan la Laguna	7	Julio	2023-07-15T00:00:00	2024-11-08T12:00:00	5	Humedad	54
65685	7	Sololá	717	San Juan la Laguna	12	San Juan la Laguna	7	Julio	2023-07-15T00:00:00	2024-11-08T12:00:00	6	Velocidad del viento	0
65686	7	Sololá	717	San Juan la Laguna	12	San Juan la Laguna	7	Julio	2023-07-15T00:00:00	2024-11-08T12:00:00	7	Dirección del viento	0
65687	7	Sololá	717	San Juan la Laguna	12	San Juan la Laguna	7	Julio	2023-07-15T00:00:00	2024-11-08T12:00:00	1	Precipitación	0
65688	7	Sololá	717	San Juan la Laguna	12	San Juan la Laguna	7	Julio	2023-07-15T00:00:00	2024-11-08T12:00:00	8	Radiación solar	691
65689	7	Sololá	717	San Juan la Laguna	12	San Juan la Laguna	7	Julio	2023-07-15T00:00:00	2024-11-08T13:00:00	2	Temperatura media	24.4
65690	7	Sololá	717	San Juan la Laguna	12	San Juan la Laguna	7	Julio	2023-07-15T00:00:00	2024-11-08T13:00:00	4	Temperatura máxima	25.8
65691	7	Sololá	717	San Juan la Laguna	12	San Juan la Laguna	7	Julio	2023-07-15T00:00:00	2024-11-08T13:00:00	3	Temperatura mínima	24.2
65692	7	Sololá	717	San Juan la Laguna	12	San Juan la Laguna	7	Julio	2023-07-15T00:00:00	2024-11-08T13:00:00	5	Humedad	64
65693	7	Sololá	717	San Juan la Laguna	12	San Juan la Laguna	7	Julio	2023-07-15T00:00:00	2024-11-08T13:00:00	6	Velocidad del viento	3.2
65694	7	Sololá	717	San Juan la Laguna	12	San Juan la Laguna	7	Julio	2023-07-15T00:00:00	2024-11-08T13:00:00	7	Dirección del viento	3.22
65695	7	Sololá	717	San Juan la Laguna	12	San Juan la Laguna	7	Julio	2023-07-15T00:00:00	2024-11-08T13:00:00	1	Precipitación	0
65696	7	Sololá	717	San Juan la Laguna	12	San Juan la Laguna	7	Julio	2023-07-15T00:00:00	2024-11-08T13:00:00	8	Radiación solar	485
65697	7	Sololá	717	San Juan la Laguna	12	San Juan la Laguna	7	Julio	2023-07-15T00:00:00	2024-11-08T14:00:00	2	Temperatura media	24.5
65698	7	Sololá	717	San Juan la Laguna	12	San Juan la Laguna	7	Julio	2023-07-15T00:00:00	2024-11-08T14:00:00	4	Temperatura máxima	25.6
65699	7	Sololá	717	San Juan la Laguna	12	San Juan la Laguna	7	Julio	2023-07-15T00:00:00	2024-11-08T14:00:00	3	Temperatura mínima	24.3
65700	7	Sololá	717	San Juan la Laguna	12	San Juan la Laguna	7	Julio	2023-07-15T00:00:00	2024-11-08T14:00:00	5	Humedad	62
65701	7	Sololá	717	San Juan la Laguna	12	San Juan la Laguna	7	Julio	2023-07-15T00:00:00	2024-11-08T14:00:00	6	Velocidad del viento	3.2
65702	7	Sololá	717	San Juan la Laguna	12	San Juan la Laguna	7	Julio	2023-07-15T00:00:00	2024-11-08T14:00:00	7	Dirección del viento	3.22
65703	7	Sololá	717	San Juan la Laguna	12	San Juan la Laguna	7	Julio	2023-07-15T00:00:00	2024-11-08T14:00:00	1	Precipitación	0
65704	7	Sololá	717	San Juan la Laguna	12	San Juan la Laguna	7	Julio	2023-07-15T00:00:00	2024-11-08T14:00:00	8	Radiación solar	558
65705	7	Sololá	717	San Juan la Laguna	12	San Juan la Laguna	7	Julio	2023-07-15T00:00:00	2024-11-08T15:00:00	2	Temperatura media	24.3
65706	7	Sololá	717	San Juan la Laguna	12	San Juan la Laguna	7	Julio	2023-07-15T00:00:00	2024-11-08T15:00:00	4	Temperatura máxima	24.8
65707	7	Sololá	717	San Juan la Laguna	12	San Juan la Laguna	7	Julio	2023-07-15T00:00:00	2024-11-08T15:00:00	3	Temperatura mínima	23.8
65708	7	Sololá	717	San Juan la Laguna	12	San Juan la Laguna	7	Julio	2023-07-15T00:00:00	2024-11-08T15:00:00	5	Humedad	69
65709	7	Sololá	717	San Juan la Laguna	12	San Juan la Laguna	7	Julio	2023-07-15T00:00:00	2024-11-08T15:00:00	6	Velocidad del viento	6.4
65710	7	Sololá	717	San Juan la Laguna	12	San Juan la Laguna	7	Julio	2023-07-15T00:00:00	2024-11-08T15:00:00	7	Dirección del viento	6.44
65711	7	Sololá	717	San Juan la Laguna	12	San Juan la Laguna	7	Julio	2023-07-15T00:00:00	2024-11-08T15:00:00	1	Precipitación	0
65712	7	Sololá	717	San Juan la Laguna	12	San Juan la Laguna	7	Julio	2023-07-15T00:00:00	2024-11-08T15:00:00	8	Radiación solar	708
65713	7	Sololá	717	San Juan la Laguna	12	San Juan la Laguna	7	Julio	2023-07-15T00:00:00	2024-11-08T16:00:00	2	Temperatura media	21.8
65714	7	Sololá	717	San Juan la Laguna	12	San Juan la Laguna	7	Julio	2023-07-15T00:00:00	2024-11-08T16:00:00	4	Temperatura máxima	24.3
65715	7	Sololá	717	San Juan la Laguna	12	San Juan la Laguna	7	Julio	2023-07-15T00:00:00	2024-11-08T16:00:00	3	Temperatura mínima	21.8
65716	7	Sololá	717	San Juan la Laguna	12	San Juan la Laguna	7	Julio	2023-07-15T00:00:00	2024-11-08T16:00:00	5	Humedad	77
65717	7	Sololá	717	San Juan la Laguna	12	San Juan la Laguna	7	Julio	2023-07-15T00:00:00	2024-11-08T16:00:00	6	Velocidad del viento	9.7
65718	7	Sololá	717	San Juan la Laguna	12	San Juan la Laguna	7	Julio	2023-07-15T00:00:00	2024-11-08T16:00:00	7	Dirección del viento	9.66
65719	7	Sololá	717	San Juan la Laguna	12	San Juan la Laguna	7	Julio	2023-07-15T00:00:00	2024-11-08T16:00:00	1	Precipitación	0
65720	7	Sololá	717	San Juan la Laguna	12	San Juan la Laguna	7	Julio	2023-07-15T00:00:00	2024-11-08T16:00:00	8	Radiación solar	447
65721	7	Sololá	717	San Juan la Laguna	12	San Juan la Laguna	7	Julio	2023-07-15T00:00:00	2024-11-08T17:00:00	2	Temperatura media	21.9
65722	7	Sololá	717	San Juan la Laguna	12	San Juan la Laguna	7	Julio	2023-07-15T00:00:00	2024-11-08T17:00:00	4	Temperatura máxima	22.4
65723	7	Sololá	717	San Juan la Laguna	12	San Juan la Laguna	7	Julio	2023-07-15T00:00:00	2024-11-08T17:00:00	3	Temperatura mínima	21.6
65724	7	Sololá	717	San Juan la Laguna	12	San Juan la Laguna	7	Julio	2023-07-15T00:00:00	2024-11-08T17:00:00	5	Humedad	77
65725	7	Sololá	717	San Juan la Laguna	12	San Juan la Laguna	7	Julio	2023-07-15T00:00:00	2024-11-08T17:00:00	6	Velocidad del viento	4.8
65726	7	Sololá	717	San Juan la Laguna	12	San Juan la Laguna	7	Julio	2023-07-15T00:00:00	2024-11-08T17:00:00	7	Dirección del viento	4.83
65727	7	Sololá	717	San Juan la Laguna	12	San Juan la Laguna	7	Julio	2023-07-15T00:00:00	2024-11-08T17:00:00	1	Precipitación	0
65728	7	Sololá	717	San Juan la Laguna	12	San Juan la Laguna	7	Julio	2023-07-15T00:00:00	2024-11-08T17:00:00	8	Radiación solar	267
65729	7	Sololá	717	San Juan la Laguna	12	San Juan la Laguna	7	Julio	2023-07-15T00:00:00	2024-11-08T18:00:00	2	Temperatura media	20.3
65730	7	Sololá	717	San Juan la Laguna	12	San Juan la Laguna	7	Julio	2023-07-15T00:00:00	2024-11-08T18:00:00	4	Temperatura máxima	21.9
65731	7	Sololá	717	San Juan la Laguna	12	San Juan la Laguna	7	Julio	2023-07-15T00:00:00	2024-11-08T18:00:00	3	Temperatura mínima	20.2
65732	7	Sololá	717	San Juan la Laguna	12	San Juan la Laguna	7	Julio	2023-07-15T00:00:00	2024-11-08T18:00:00	5	Humedad	82
65733	7	Sololá	717	San Juan la Laguna	12	San Juan la Laguna	7	Julio	2023-07-15T00:00:00	2024-11-08T18:00:00	6	Velocidad del viento	4.8
65734	7	Sololá	717	San Juan la Laguna	12	San Juan la Laguna	7	Julio	2023-07-15T00:00:00	2024-11-08T18:00:00	7	Dirección del viento	4.83
65735	7	Sololá	717	San Juan la Laguna	12	San Juan la Laguna	7	Julio	2023-07-15T00:00:00	2024-11-08T18:00:00	1	Precipitación	0
65736	7	Sololá	717	San Juan la Laguna	12	San Juan la Laguna	7	Julio	2023-07-15T00:00:00	2024-11-08T18:00:00	8	Radiación solar	49
65737	7	Sololá	717	San Juan la Laguna	12	San Juan la Laguna	7	Julio	2023-07-15T00:00:00	2024-11-08T19:00:00	2	Temperatura media	19.7
65738	7	Sololá	717	San Juan la Laguna	12	San Juan la Laguna	7	Julio	2023-07-15T00:00:00	2024-11-08T19:00:00	4	Temperatura máxima	20.6
65739	7	Sololá	717	San Juan la Laguna	12	San Juan la Laguna	7	Julio	2023-07-15T00:00:00	2024-11-08T19:00:00	3	Temperatura mínima	19.7
65740	7	Sololá	717	San Juan la Laguna	12	San Juan la Laguna	7	Julio	2023-07-15T00:00:00	2024-11-08T19:00:00	5	Humedad	85
65741	7	Sololá	717	San Juan la Laguna	12	San Juan la Laguna	7	Julio	2023-07-15T00:00:00	2024-11-08T19:00:00	6	Velocidad del viento	0
65742	7	Sololá	717	San Juan la Laguna	12	San Juan la Laguna	7	Julio	2023-07-15T00:00:00	2024-11-08T19:00:00	7	Dirección del viento	0
65743	7	Sololá	717	San Juan la Laguna	12	San Juan la Laguna	7	Julio	2023-07-15T00:00:00	2024-11-08T19:00:00	1	Precipitación	0
65744	7	Sololá	717	San Juan la Laguna	12	San Juan la Laguna	7	Julio	2023-07-15T00:00:00	2024-11-08T19:00:00	8	Radiación solar	0
65745	7	Sololá	717	San Juan la Laguna	12	San Juan la Laguna	7	Julio	2023-07-15T00:00:00	2024-11-08T20:00:00	2	Temperatura media	19.2
65746	7	Sololá	717	San Juan la Laguna	12	San Juan la Laguna	7	Julio	2023-07-15T00:00:00	2024-11-08T20:00:00	4	Temperatura máxima	19.7
65747	7	Sololá	717	San Juan la Laguna	12	San Juan la Laguna	7	Julio	2023-07-15T00:00:00	2024-11-08T20:00:00	3	Temperatura mínima	19.1
65748	7	Sololá	717	San Juan la Laguna	12	San Juan la Laguna	7	Julio	2023-07-15T00:00:00	2024-11-08T20:00:00	5	Humedad	84
65749	7	Sololá	717	San Juan la Laguna	12	San Juan la Laguna	7	Julio	2023-07-15T00:00:00	2024-11-08T20:00:00	6	Velocidad del viento	1.6
65750	7	Sololá	717	San Juan la Laguna	12	San Juan la Laguna	7	Julio	2023-07-15T00:00:00	2024-11-08T20:00:00	7	Dirección del viento	1.61
65751	7	Sololá	717	San Juan la Laguna	12	San Juan la Laguna	7	Julio	2023-07-15T00:00:00	2024-11-08T20:00:00	1	Precipitación	0
65752	7	Sololá	717	San Juan la Laguna	12	San Juan la Laguna	7	Julio	2023-07-15T00:00:00	2024-11-08T20:00:00	8	Radiación solar	0
65753	7	Sololá	717	San Juan la Laguna	12	San Juan la Laguna	7	Julio	2023-07-15T00:00:00	2024-11-08T21:00:00	2	Temperatura media	19.4
65754	7	Sololá	717	San Juan la Laguna	12	San Juan la Laguna	7	Julio	2023-07-15T00:00:00	2024-11-08T21:00:00	4	Temperatura máxima	19.6
65755	7	Sololá	717	San Juan la Laguna	12	San Juan la Laguna	7	Julio	2023-07-15T00:00:00	2024-11-08T21:00:00	3	Temperatura mínima	18.9
65756	7	Sololá	717	San Juan la Laguna	12	San Juan la Laguna	7	Julio	2023-07-15T00:00:00	2024-11-08T21:00:00	5	Humedad	82
65757	7	Sololá	717	San Juan la Laguna	12	San Juan la Laguna	7	Julio	2023-07-15T00:00:00	2024-11-08T21:00:00	6	Velocidad del viento	1.6
65758	7	Sololá	717	San Juan la Laguna	12	San Juan la Laguna	7	Julio	2023-07-15T00:00:00	2024-11-08T21:00:00	7	Dirección del viento	1.61
65759	7	Sololá	717	San Juan la Laguna	12	San Juan la Laguna	7	Julio	2023-07-15T00:00:00	2024-11-08T21:00:00	1	Precipitación	0
65760	7	Sololá	717	San Juan la Laguna	12	San Juan la Laguna	7	Julio	2023-07-15T00:00:00	2024-11-08T21:00:00	8	Radiación solar	0
65761	7	Sololá	717	San Juan la Laguna	12	San Juan la Laguna	7	Julio	2023-07-15T00:00:00	2024-11-08T22:00:00	2	Temperatura media	18.4
65762	7	Sololá	717	San Juan la Laguna	12	San Juan la Laguna	7	Julio	2023-07-15T00:00:00	2024-11-08T22:00:00	4	Temperatura máxima	19.4
65763	7	Sololá	717	San Juan la Laguna	12	San Juan la Laguna	7	Julio	2023-07-15T00:00:00	2024-11-08T22:00:00	3	Temperatura mínima	18.3
65764	7	Sololá	717	San Juan la Laguna	12	San Juan la Laguna	7	Julio	2023-07-15T00:00:00	2024-11-08T22:00:00	5	Humedad	86
65765	7	Sololá	717	San Juan la Laguna	12	San Juan la Laguna	7	Julio	2023-07-15T00:00:00	2024-11-08T22:00:00	6	Velocidad del viento	0
65766	7	Sololá	717	San Juan la Laguna	12	San Juan la Laguna	7	Julio	2023-07-15T00:00:00	2024-11-08T22:00:00	7	Dirección del viento	0
65767	7	Sololá	717	San Juan la Laguna	12	San Juan la Laguna	7	Julio	2023-07-15T00:00:00	2024-11-08T22:00:00	1	Precipitación	0
65768	7	Sololá	717	San Juan la Laguna	12	San Juan la Laguna	7	Julio	2023-07-15T00:00:00	2024-11-08T22:00:00	8	Radiación solar	0
65769	7	Sololá	717	San Juan la Laguna	12	San Juan la Laguna	7	Julio	2023-07-15T00:00:00	2024-11-08T23:00:00	2	Temperatura media	18.3
65770	7	Sololá	717	San Juan la Laguna	12	San Juan la Laguna	7	Julio	2023-07-15T00:00:00	2024-11-08T23:00:00	4	Temperatura máxima	18.8
65771	7	Sololá	717	San Juan la Laguna	12	San Juan la Laguna	7	Julio	2023-07-15T00:00:00	2024-11-08T23:00:00	3	Temperatura mínima	18.3
65772	7	Sololá	717	San Juan la Laguna	12	San Juan la Laguna	7	Julio	2023-07-15T00:00:00	2024-11-08T23:00:00	5	Humedad	85
65773	7	Sololá	717	San Juan la Laguna	12	San Juan la Laguna	7	Julio	2023-07-15T00:00:00	2024-11-08T23:00:00	6	Velocidad del viento	1.6
65774	7	Sololá	717	San Juan la Laguna	12	San Juan la Laguna	7	Julio	2023-07-15T00:00:00	2024-11-08T23:00:00	7	Dirección del viento	1.61
65775	7	Sololá	717	San Juan la Laguna	12	San Juan la Laguna	7	Julio	2023-07-15T00:00:00	2024-11-08T23:00:00	1	Precipitación	0
65776	7	Sololá	717	San Juan la Laguna	12	San Juan la Laguna	7	Julio	2023-07-15T00:00:00	2024-11-08T23:00:00	8	Radiación solar	0
65777	7	Sololá	717	San Juan la Laguna	12	San Juan la Laguna	7	Julio	2023-07-16T00:00:00	2024-11-08T00:00:00	2	Temperatura media	18.3
65778	7	Sololá	717	San Juan la Laguna	12	San Juan la Laguna	7	Julio	2023-07-16T00:00:00	2024-11-08T00:00:00	4	Temperatura máxima	18.4
65779	7	Sololá	717	San Juan la Laguna	12	San Juan la Laguna	7	Julio	2023-07-16T00:00:00	2024-11-08T00:00:00	3	Temperatura mínima	17.8
65780	7	Sololá	717	San Juan la Laguna	12	San Juan la Laguna	7	Julio	2023-07-16T00:00:00	2024-11-08T00:00:00	5	Humedad	81
65781	7	Sololá	717	San Juan la Laguna	12	San Juan la Laguna	7	Julio	2023-07-16T00:00:00	2024-11-08T00:00:00	6	Velocidad del viento	1.6
65782	7	Sololá	717	San Juan la Laguna	12	San Juan la Laguna	7	Julio	2023-07-16T00:00:00	2024-11-08T00:00:00	7	Dirección del viento	1.61
65783	7	Sololá	717	San Juan la Laguna	12	San Juan la Laguna	7	Julio	2023-07-16T00:00:00	2024-11-08T00:00:00	1	Precipitación	0
65784	7	Sololá	717	San Juan la Laguna	12	San Juan la Laguna	7	Julio	2023-07-16T00:00:00	2024-11-08T00:00:00	8	Radiación solar	0
65785	7	Sololá	717	San Juan la Laguna	12	San Juan la Laguna	7	Julio	2023-07-16T00:00:00	2024-11-08T01:00:00	2	Temperatura media	18
65786	7	Sololá	717	San Juan la Laguna	12	San Juan la Laguna	7	Julio	2023-07-16T00:00:00	2024-11-08T01:00:00	4	Temperatura máxima	18.3
65787	7	Sololá	717	San Juan la Laguna	12	San Juan la Laguna	7	Julio	2023-07-16T00:00:00	2024-11-08T01:00:00	3	Temperatura mínima	18
65788	7	Sololá	717	San Juan la Laguna	12	San Juan la Laguna	7	Julio	2023-07-16T00:00:00	2024-11-08T01:00:00	5	Humedad	82
65789	7	Sololá	717	San Juan la Laguna	12	San Juan la Laguna	7	Julio	2023-07-16T00:00:00	2024-11-08T01:00:00	6	Velocidad del viento	1.6
65790	7	Sololá	717	San Juan la Laguna	12	San Juan la Laguna	7	Julio	2023-07-16T00:00:00	2024-11-08T01:00:00	7	Dirección del viento	1.61
65791	7	Sololá	717	San Juan la Laguna	12	San Juan la Laguna	7	Julio	2023-07-16T00:00:00	2024-11-08T01:00:00	1	Precipitación	0
65792	7	Sololá	717	San Juan la Laguna	12	San Juan la Laguna	7	Julio	2023-07-16T00:00:00	2024-11-08T01:00:00	8	Radiación solar	0
65793	7	Sololá	717	San Juan la Laguna	12	San Juan la Laguna	7	Julio	2023-07-16T00:00:00	2024-11-08T02:00:00	2	Temperatura media	18.1
65794	7	Sololá	717	San Juan la Laguna	12	San Juan la Laguna	7	Julio	2023-07-16T00:00:00	2024-11-08T02:00:00	4	Temperatura máxima	18.1
65795	7	Sololá	717	San Juan la Laguna	12	San Juan la Laguna	7	Julio	2023-07-16T00:00:00	2024-11-08T02:00:00	3	Temperatura mínima	17.8
65796	7	Sololá	717	San Juan la Laguna	12	San Juan la Laguna	7	Julio	2023-07-16T00:00:00	2024-11-08T02:00:00	5	Humedad	83
65797	7	Sololá	717	San Juan la Laguna	12	San Juan la Laguna	7	Julio	2023-07-16T00:00:00	2024-11-08T02:00:00	6	Velocidad del viento	0
65798	7	Sololá	717	San Juan la Laguna	12	San Juan la Laguna	7	Julio	2023-07-16T00:00:00	2024-11-08T02:00:00	7	Dirección del viento	0
65799	7	Sololá	717	San Juan la Laguna	12	San Juan la Laguna	7	Julio	2023-07-16T00:00:00	2024-11-08T02:00:00	1	Precipitación	0
65800	7	Sololá	717	San Juan la Laguna	12	San Juan la Laguna	7	Julio	2023-07-16T00:00:00	2024-11-08T02:00:00	8	Radiación solar	0
65801	7	Sololá	717	San Juan la Laguna	12	San Juan la Laguna	7	Julio	2023-07-16T00:00:00	2024-11-08T03:00:00	2	Temperatura media	17.2
65802	7	Sololá	717	San Juan la Laguna	12	San Juan la Laguna	7	Julio	2023-07-16T00:00:00	2024-11-08T03:00:00	4	Temperatura máxima	18.1
65803	7	Sololá	717	San Juan la Laguna	12	San Juan la Laguna	7	Julio	2023-07-16T00:00:00	2024-11-08T03:00:00	3	Temperatura mínima	17.2
65804	7	Sololá	717	San Juan la Laguna	12	San Juan la Laguna	7	Julio	2023-07-16T00:00:00	2024-11-08T03:00:00	5	Humedad	89
65805	7	Sololá	717	San Juan la Laguna	12	San Juan la Laguna	7	Julio	2023-07-16T00:00:00	2024-11-08T03:00:00	6	Velocidad del viento	1.6
65806	7	Sololá	717	San Juan la Laguna	12	San Juan la Laguna	7	Julio	2023-07-16T00:00:00	2024-11-08T03:00:00	7	Dirección del viento	1.61
65807	7	Sololá	717	San Juan la Laguna	12	San Juan la Laguna	7	Julio	2023-07-16T00:00:00	2024-11-08T03:00:00	1	Precipitación	0
65808	7	Sololá	717	San Juan la Laguna	12	San Juan la Laguna	7	Julio	2023-07-16T00:00:00	2024-11-08T03:00:00	8	Radiación solar	0
65809	7	Sololá	717	San Juan la Laguna	12	San Juan la Laguna	7	Julio	2023-07-16T00:00:00	2024-11-08T04:00:00	2	Temperatura media	16.6
65810	7	Sololá	717	San Juan la Laguna	12	San Juan la Laguna	7	Julio	2023-07-16T00:00:00	2024-11-08T04:00:00	4	Temperatura máxima	17.2
65811	7	Sololá	717	San Juan la Laguna	12	San Juan la Laguna	7	Julio	2023-07-16T00:00:00	2024-11-08T04:00:00	3	Temperatura mínima	16.5
65812	7	Sololá	717	San Juan la Laguna	12	San Juan la Laguna	7	Julio	2023-07-16T00:00:00	2024-11-08T04:00:00	5	Humedad	89
65813	7	Sololá	717	San Juan la Laguna	12	San Juan la Laguna	7	Julio	2023-07-16T00:00:00	2024-11-08T04:00:00	6	Velocidad del viento	3.2
65814	7	Sololá	717	San Juan la Laguna	12	San Juan la Laguna	7	Julio	2023-07-16T00:00:00	2024-11-08T04:00:00	7	Dirección del viento	3.22
65815	7	Sololá	717	San Juan la Laguna	12	San Juan la Laguna	7	Julio	2023-07-16T00:00:00	2024-11-08T04:00:00	1	Precipitación	0
65816	7	Sololá	717	San Juan la Laguna	12	San Juan la Laguna	7	Julio	2023-07-16T00:00:00	2024-11-08T04:00:00	8	Radiación solar	0
65817	7	Sololá	717	San Juan la Laguna	12	San Juan la Laguna	7	Julio	2023-07-16T00:00:00	2024-11-08T05:00:00	2	Temperatura media	16.6
65818	7	Sololá	717	San Juan la Laguna	12	San Juan la Laguna	7	Julio	2023-07-16T00:00:00	2024-11-08T05:00:00	4	Temperatura máxima	16.6
65819	7	Sololá	717	San Juan la Laguna	12	San Juan la Laguna	7	Julio	2023-07-16T00:00:00	2024-11-08T05:00:00	3	Temperatura mínima	16.3
65820	7	Sololá	717	San Juan la Laguna	12	San Juan la Laguna	7	Julio	2023-07-16T00:00:00	2024-11-08T05:00:00	5	Humedad	89
65821	7	Sololá	717	San Juan la Laguna	12	San Juan la Laguna	7	Julio	2023-07-16T00:00:00	2024-11-08T05:00:00	6	Velocidad del viento	3.2
65822	7	Sololá	717	San Juan la Laguna	12	San Juan la Laguna	7	Julio	2023-07-16T00:00:00	2024-11-08T05:00:00	7	Dirección del viento	3.22
65823	7	Sololá	717	San Juan la Laguna	12	San Juan la Laguna	7	Julio	2023-07-16T00:00:00	2024-11-08T05:00:00	1	Precipitación	0
65824	7	Sololá	717	San Juan la Laguna	12	San Juan la Laguna	7	Julio	2023-07-16T00:00:00	2024-11-08T05:00:00	8	Radiación solar	0
65825	7	Sololá	717	San Juan la Laguna	12	San Juan la Laguna	7	Julio	2023-07-16T00:00:00	2024-11-08T06:00:00	2	Temperatura media	18.2
65826	7	Sololá	717	San Juan la Laguna	12	San Juan la Laguna	7	Julio	2023-07-16T00:00:00	2024-11-08T06:00:00	4	Temperatura máxima	18.2
65827	7	Sololá	717	San Juan la Laguna	12	San Juan la Laguna	7	Julio	2023-07-16T00:00:00	2024-11-08T06:00:00	3	Temperatura mínima	16.3
65828	7	Sololá	717	San Juan la Laguna	12	San Juan la Laguna	7	Julio	2023-07-16T00:00:00	2024-11-08T06:00:00	5	Humedad	81
65829	7	Sololá	717	San Juan la Laguna	12	San Juan la Laguna	7	Julio	2023-07-16T00:00:00	2024-11-08T06:00:00	6	Velocidad del viento	3.2
65830	7	Sololá	717	San Juan la Laguna	12	San Juan la Laguna	7	Julio	2023-07-16T00:00:00	2024-11-08T06:00:00	7	Dirección del viento	3.22
65831	7	Sololá	717	San Juan la Laguna	12	San Juan la Laguna	7	Julio	2023-07-16T00:00:00	2024-11-08T06:00:00	1	Precipitación	0
65832	7	Sololá	717	San Juan la Laguna	12	San Juan la Laguna	7	Julio	2023-07-16T00:00:00	2024-11-08T06:00:00	8	Radiación solar	2
65833	7	Sololá	717	San Juan la Laguna	12	San Juan la Laguna	7	Julio	2023-07-16T00:00:00	2024-11-08T07:00:00	2	Temperatura media	21.3
65834	7	Sololá	717	San Juan la Laguna	12	San Juan la Laguna	7	Julio	2023-07-16T00:00:00	2024-11-08T07:00:00	4	Temperatura máxima	21.3
65835	7	Sololá	717	San Juan la Laguna	12	San Juan la Laguna	7	Julio	2023-07-16T00:00:00	2024-11-08T07:00:00	3	Temperatura mínima	18.3
65836	7	Sololá	717	San Juan la Laguna	12	San Juan la Laguna	7	Julio	2023-07-16T00:00:00	2024-11-08T07:00:00	5	Humedad	67
65837	7	Sololá	717	San Juan la Laguna	12	San Juan la Laguna	7	Julio	2023-07-16T00:00:00	2024-11-08T07:00:00	6	Velocidad del viento	9.7
65838	7	Sololá	717	San Juan la Laguna	12	San Juan la Laguna	7	Julio	2023-07-16T00:00:00	2024-11-08T07:00:00	7	Dirección del viento	9.66
65839	7	Sololá	717	San Juan la Laguna	12	San Juan la Laguna	7	Julio	2023-07-16T00:00:00	2024-11-08T07:00:00	1	Precipitación	0
65840	7	Sololá	717	San Juan la Laguna	12	San Juan la Laguna	7	Julio	2023-07-16T00:00:00	2024-11-08T07:00:00	8	Radiación solar	69
65841	7	Sololá	717	San Juan la Laguna	12	San Juan la Laguna	7	Julio	2023-07-16T00:00:00	2024-11-08T08:00:00	2	Temperatura media	22.8
65842	7	Sololá	717	San Juan la Laguna	12	San Juan la Laguna	7	Julio	2023-07-16T00:00:00	2024-11-08T08:00:00	4	Temperatura máxima	23.1
65843	7	Sololá	717	San Juan la Laguna	12	San Juan la Laguna	7	Julio	2023-07-16T00:00:00	2024-11-08T08:00:00	3	Temperatura mínima	21.2
65844	7	Sololá	717	San Juan la Laguna	12	San Juan la Laguna	7	Julio	2023-07-16T00:00:00	2024-11-08T08:00:00	5	Humedad	63
65845	7	Sololá	717	San Juan la Laguna	12	San Juan la Laguna	7	Julio	2023-07-16T00:00:00	2024-11-08T08:00:00	6	Velocidad del viento	11.3
65846	7	Sololá	717	San Juan la Laguna	12	San Juan la Laguna	7	Julio	2023-07-16T00:00:00	2024-11-08T08:00:00	7	Dirección del viento	11.27
65847	7	Sololá	717	San Juan la Laguna	12	San Juan la Laguna	7	Julio	2023-07-16T00:00:00	2024-11-08T08:00:00	1	Precipitación	0
65848	7	Sololá	717	San Juan la Laguna	12	San Juan la Laguna	7	Julio	2023-07-16T00:00:00	2024-11-08T08:00:00	8	Radiación solar	303
65849	7	Sololá	717	San Juan la Laguna	12	San Juan la Laguna	7	Julio	2023-07-16T00:00:00	2024-11-08T09:00:00	2	Temperatura media	22.9
65850	7	Sololá	717	San Juan la Laguna	12	San Juan la Laguna	7	Julio	2023-07-16T00:00:00	2024-11-08T09:00:00	4	Temperatura máxima	23.8
65851	7	Sololá	717	San Juan la Laguna	12	San Juan la Laguna	7	Julio	2023-07-16T00:00:00	2024-11-08T09:00:00	3	Temperatura mínima	22.5
65852	7	Sololá	717	San Juan la Laguna	12	San Juan la Laguna	7	Julio	2023-07-16T00:00:00	2024-11-08T09:00:00	5	Humedad	62
65853	7	Sololá	717	San Juan la Laguna	12	San Juan la Laguna	7	Julio	2023-07-16T00:00:00	2024-11-08T09:00:00	6	Velocidad del viento	11.3
65854	7	Sololá	717	San Juan la Laguna	12	San Juan la Laguna	7	Julio	2023-07-16T00:00:00	2024-11-08T09:00:00	7	Dirección del viento	11.27
65855	7	Sololá	717	San Juan la Laguna	12	San Juan la Laguna	7	Julio	2023-07-16T00:00:00	2024-11-08T09:00:00	1	Precipitación	0
65856	7	Sololá	717	San Juan la Laguna	12	San Juan la Laguna	7	Julio	2023-07-16T00:00:00	2024-11-08T09:00:00	8	Radiación solar	328
65857	7	Sololá	717	San Juan la Laguna	12	San Juan la Laguna	7	Julio	2023-07-16T00:00:00	2024-11-08T10:00:00	2	Temperatura media	24.3
65858	7	Sololá	717	San Juan la Laguna	12	San Juan la Laguna	7	Julio	2023-07-16T00:00:00	2024-11-08T10:00:00	4	Temperatura máxima	24.7
65859	7	Sololá	717	San Juan la Laguna	12	San Juan la Laguna	7	Julio	2023-07-16T00:00:00	2024-11-08T10:00:00	3	Temperatura mínima	22.9
65860	7	Sololá	717	San Juan la Laguna	12	San Juan la Laguna	7	Julio	2023-07-16T00:00:00	2024-11-08T10:00:00	5	Humedad	59
65861	7	Sololá	717	San Juan la Laguna	12	San Juan la Laguna	7	Julio	2023-07-16T00:00:00	2024-11-08T10:00:00	6	Velocidad del viento	9.7
65862	7	Sololá	717	San Juan la Laguna	12	San Juan la Laguna	7	Julio	2023-07-16T00:00:00	2024-11-08T10:00:00	7	Dirección del viento	9.66
65863	7	Sololá	717	San Juan la Laguna	12	San Juan la Laguna	7	Julio	2023-07-16T00:00:00	2024-11-08T10:00:00	1	Precipitación	0
65864	7	Sololá	717	San Juan la Laguna	12	San Juan la Laguna	7	Julio	2023-07-16T00:00:00	2024-11-08T10:00:00	8	Radiación solar	680
65865	7	Sololá	717	San Juan la Laguna	12	San Juan la Laguna	7	Julio	2023-07-16T00:00:00	2024-11-08T11:00:00	2	Temperatura media	25.4
65866	7	Sololá	717	San Juan la Laguna	12	San Juan la Laguna	7	Julio	2023-07-16T00:00:00	2024-11-08T11:00:00	4	Temperatura máxima	26.1
65867	7	Sololá	717	San Juan la Laguna	12	San Juan la Laguna	7	Julio	2023-07-16T00:00:00	2024-11-08T11:00:00	3	Temperatura mínima	24.3
65868	7	Sololá	717	San Juan la Laguna	12	San Juan la Laguna	7	Julio	2023-07-16T00:00:00	2024-11-08T11:00:00	5	Humedad	56
65869	7	Sololá	717	San Juan la Laguna	12	San Juan la Laguna	7	Julio	2023-07-16T00:00:00	2024-11-08T11:00:00	6	Velocidad del viento	6.4
65870	7	Sololá	717	San Juan la Laguna	12	San Juan la Laguna	7	Julio	2023-07-16T00:00:00	2024-11-08T11:00:00	7	Dirección del viento	6.44
65871	7	Sololá	717	San Juan la Laguna	12	San Juan la Laguna	7	Julio	2023-07-16T00:00:00	2024-11-08T11:00:00	1	Precipitación	0
65872	7	Sololá	717	San Juan la Laguna	12	San Juan la Laguna	7	Julio	2023-07-16T00:00:00	2024-11-08T11:00:00	8	Radiación solar	846
65873	7	Sololá	717	San Juan la Laguna	12	San Juan la Laguna	7	Julio	2023-07-16T00:00:00	2024-11-08T12:00:00	2	Temperatura media	25.1
65874	7	Sololá	717	San Juan la Laguna	12	San Juan la Laguna	7	Julio	2023-07-16T00:00:00	2024-11-08T12:00:00	4	Temperatura máxima	25.7
65875	7	Sololá	717	San Juan la Laguna	12	San Juan la Laguna	7	Julio	2023-07-16T00:00:00	2024-11-08T12:00:00	3	Temperatura mínima	24.7
65876	7	Sololá	717	San Juan la Laguna	12	San Juan la Laguna	7	Julio	2023-07-16T00:00:00	2024-11-08T12:00:00	5	Humedad	56
65877	7	Sololá	717	San Juan la Laguna	12	San Juan la Laguna	7	Julio	2023-07-16T00:00:00	2024-11-08T12:00:00	6	Velocidad del viento	8
65878	7	Sololá	717	San Juan la Laguna	12	San Juan la Laguna	7	Julio	2023-07-16T00:00:00	2024-11-08T12:00:00	7	Dirección del viento	8.05
65879	7	Sololá	717	San Juan la Laguna	12	San Juan la Laguna	7	Julio	2023-07-16T00:00:00	2024-11-08T12:00:00	1	Precipitación	0
65880	7	Sololá	717	San Juan la Laguna	12	San Juan la Laguna	7	Julio	2023-07-16T00:00:00	2024-11-08T12:00:00	8	Radiación solar	575
65881	7	Sololá	717	San Juan la Laguna	12	San Juan la Laguna	7	Julio	2023-07-16T00:00:00	2024-11-08T13:00:00	2	Temperatura media	25.8
65882	7	Sololá	717	San Juan la Laguna	12	San Juan la Laguna	7	Julio	2023-07-16T00:00:00	2024-11-08T13:00:00	4	Temperatura máxima	25.8
65883	7	Sololá	717	San Juan la Laguna	12	San Juan la Laguna	7	Julio	2023-07-16T00:00:00	2024-11-08T13:00:00	3	Temperatura mínima	25
65884	7	Sololá	717	San Juan la Laguna	12	San Juan la Laguna	7	Julio	2023-07-16T00:00:00	2024-11-08T13:00:00	5	Humedad	56
65885	7	Sololá	717	San Juan la Laguna	12	San Juan la Laguna	7	Julio	2023-07-16T00:00:00	2024-11-08T13:00:00	6	Velocidad del viento	4.8
65886	7	Sololá	717	San Juan la Laguna	12	San Juan la Laguna	7	Julio	2023-07-16T00:00:00	2024-11-08T13:00:00	7	Dirección del viento	4.83
65887	7	Sololá	717	San Juan la Laguna	12	San Juan la Laguna	7	Julio	2023-07-16T00:00:00	2024-11-08T13:00:00	1	Precipitación	0
65888	7	Sololá	717	San Juan la Laguna	12	San Juan la Laguna	7	Julio	2023-07-16T00:00:00	2024-11-08T13:00:00	8	Radiación solar	509
65889	7	Sololá	717	San Juan la Laguna	12	San Juan la Laguna	7	Julio	2023-07-16T00:00:00	2024-11-08T14:00:00	2	Temperatura media	25.8
65890	7	Sololá	717	San Juan la Laguna	12	San Juan la Laguna	7	Julio	2023-07-16T00:00:00	2024-11-08T14:00:00	4	Temperatura máxima	27.1
65891	7	Sololá	717	San Juan la Laguna	12	San Juan la Laguna	7	Julio	2023-07-16T00:00:00	2024-11-08T14:00:00	3	Temperatura mínima	25.6
65892	7	Sololá	717	San Juan la Laguna	12	San Juan la Laguna	7	Julio	2023-07-16T00:00:00	2024-11-08T14:00:00	5	Humedad	56
65893	7	Sololá	717	San Juan la Laguna	12	San Juan la Laguna	7	Julio	2023-07-16T00:00:00	2024-11-08T14:00:00	6	Velocidad del viento	6.4
65894	7	Sololá	717	San Juan la Laguna	12	San Juan la Laguna	7	Julio	2023-07-16T00:00:00	2024-11-08T14:00:00	7	Dirección del viento	6.44
65895	7	Sololá	717	San Juan la Laguna	12	San Juan la Laguna	7	Julio	2023-07-16T00:00:00	2024-11-08T14:00:00	1	Precipitación	0
65896	7	Sololá	717	San Juan la Laguna	12	San Juan la Laguna	7	Julio	2023-07-16T00:00:00	2024-11-08T14:00:00	8	Radiación solar	800
65897	7	Sololá	717	San Juan la Laguna	12	San Juan la Laguna	7	Julio	2023-07-16T00:00:00	2024-11-08T15:00:00	2	Temperatura media	26.1
65898	7	Sololá	717	San Juan la Laguna	12	San Juan la Laguna	7	Julio	2023-07-16T00:00:00	2024-11-08T15:00:00	4	Temperatura máxima	26.3
65899	7	Sololá	717	San Juan la Laguna	12	San Juan la Laguna	7	Julio	2023-07-16T00:00:00	2024-11-08T15:00:00	3	Temperatura mínima	25.3
65900	7	Sololá	717	San Juan la Laguna	12	San Juan la Laguna	7	Julio	2023-07-16T00:00:00	2024-11-08T15:00:00	5	Humedad	58
65901	7	Sololá	717	San Juan la Laguna	12	San Juan la Laguna	7	Julio	2023-07-16T00:00:00	2024-11-08T15:00:00	6	Velocidad del viento	1.6
65902	7	Sololá	717	San Juan la Laguna	12	San Juan la Laguna	7	Julio	2023-07-16T00:00:00	2024-11-08T15:00:00	7	Dirección del viento	1.61
65903	7	Sololá	717	San Juan la Laguna	12	San Juan la Laguna	7	Julio	2023-07-16T00:00:00	2024-11-08T15:00:00	1	Precipitación	0
65904	7	Sololá	717	San Juan la Laguna	12	San Juan la Laguna	7	Julio	2023-07-16T00:00:00	2024-11-08T15:00:00	8	Radiación solar	840
65905	7	Sololá	717	San Juan la Laguna	12	San Juan la Laguna	7	Julio	2023-07-16T00:00:00	2024-11-08T16:00:00	2	Temperatura media	22.8
65906	7	Sololá	717	San Juan la Laguna	12	San Juan la Laguna	7	Julio	2023-07-16T00:00:00	2024-11-08T16:00:00	4	Temperatura máxima	26.2
65907	7	Sololá	717	San Juan la Laguna	12	San Juan la Laguna	7	Julio	2023-07-16T00:00:00	2024-11-08T16:00:00	3	Temperatura mínima	22.8
65908	7	Sololá	717	San Juan la Laguna	12	San Juan la Laguna	7	Julio	2023-07-16T00:00:00	2024-11-08T16:00:00	5	Humedad	69
65909	7	Sololá	717	San Juan la Laguna	12	San Juan la Laguna	7	Julio	2023-07-16T00:00:00	2024-11-08T16:00:00	6	Velocidad del viento	4.8
65910	7	Sololá	717	San Juan la Laguna	12	San Juan la Laguna	7	Julio	2023-07-16T00:00:00	2024-11-08T16:00:00	7	Dirección del viento	4.83
65911	7	Sololá	717	San Juan la Laguna	12	San Juan la Laguna	7	Julio	2023-07-16T00:00:00	2024-11-08T16:00:00	1	Precipitación	0
65912	7	Sololá	717	San Juan la Laguna	12	San Juan la Laguna	7	Julio	2023-07-16T00:00:00	2024-11-08T16:00:00	8	Radiación solar	75
65913	7	Sololá	717	San Juan la Laguna	12	San Juan la Laguna	7	Julio	2023-07-16T00:00:00	2024-11-08T17:00:00	2	Temperatura media	20.3
65914	7	Sololá	717	San Juan la Laguna	12	San Juan la Laguna	7	Julio	2023-07-16T00:00:00	2024-11-08T17:00:00	4	Temperatura máxima	22.8
65915	7	Sololá	717	San Juan la Laguna	12	San Juan la Laguna	7	Julio	2023-07-16T00:00:00	2024-11-08T17:00:00	3	Temperatura mínima	20.3
65916	7	Sololá	717	San Juan la Laguna	12	San Juan la Laguna	7	Julio	2023-07-16T00:00:00	2024-11-08T17:00:00	5	Humedad	83
65917	7	Sololá	717	San Juan la Laguna	12	San Juan la Laguna	7	Julio	2023-07-16T00:00:00	2024-11-08T17:00:00	6	Velocidad del viento	1.6
65918	7	Sololá	717	San Juan la Laguna	12	San Juan la Laguna	7	Julio	2023-07-16T00:00:00	2024-11-08T17:00:00	7	Dirección del viento	1.61
65919	7	Sololá	717	San Juan la Laguna	12	San Juan la Laguna	7	Julio	2023-07-16T00:00:00	2024-11-08T17:00:00	1	Precipitación	0.2
65920	7	Sololá	717	San Juan la Laguna	12	San Juan la Laguna	7	Julio	2023-07-16T00:00:00	2024-11-08T17:00:00	8	Radiación solar	5
65921	7	Sololá	717	San Juan la Laguna	12	San Juan la Laguna	7	Julio	2023-07-16T00:00:00	2024-11-08T18:00:00	2	Temperatura media	19.1
65922	7	Sololá	717	San Juan la Laguna	12	San Juan la Laguna	7	Julio	2023-07-16T00:00:00	2024-11-08T18:00:00	4	Temperatura máxima	20.3
65923	7	Sololá	717	San Juan la Laguna	12	San Juan la Laguna	7	Julio	2023-07-16T00:00:00	2024-11-08T18:00:00	3	Temperatura mínima	19.1
65924	7	Sololá	717	San Juan la Laguna	12	San Juan la Laguna	7	Julio	2023-07-16T00:00:00	2024-11-08T18:00:00	5	Humedad	90
65925	7	Sololá	717	San Juan la Laguna	12	San Juan la Laguna	7	Julio	2023-07-16T00:00:00	2024-11-08T18:00:00	6	Velocidad del viento	0
65926	7	Sololá	717	San Juan la Laguna	12	San Juan la Laguna	7	Julio	2023-07-16T00:00:00	2024-11-08T18:00:00	7	Dirección del viento	0
65927	7	Sololá	717	San Juan la Laguna	12	San Juan la Laguna	7	Julio	2023-07-16T00:00:00	2024-11-08T18:00:00	1	Precipitación	1
65928	7	Sololá	717	San Juan la Laguna	12	San Juan la Laguna	7	Julio	2023-07-16T00:00:00	2024-11-08T18:00:00	8	Radiación solar	0
65929	7	Sololá	717	San Juan la Laguna	12	San Juan la Laguna	7	Julio	2023-07-16T00:00:00	2024-11-08T19:00:00	2	Temperatura media	18.4
65930	7	Sololá	717	San Juan la Laguna	12	San Juan la Laguna	7	Julio	2023-07-16T00:00:00	2024-11-08T19:00:00	4	Temperatura máxima	19.1
65931	7	Sololá	717	San Juan la Laguna	12	San Juan la Laguna	7	Julio	2023-07-16T00:00:00	2024-11-08T19:00:00	3	Temperatura mínima	18.4
65932	7	Sololá	717	San Juan la Laguna	12	San Juan la Laguna	7	Julio	2023-07-16T00:00:00	2024-11-08T19:00:00	5	Humedad	91
65933	7	Sololá	717	San Juan la Laguna	12	San Juan la Laguna	7	Julio	2023-07-16T00:00:00	2024-11-08T19:00:00	6	Velocidad del viento	3.2
65934	7	Sololá	717	San Juan la Laguna	12	San Juan la Laguna	7	Julio	2023-07-16T00:00:00	2024-11-08T19:00:00	7	Dirección del viento	3.22
65935	7	Sololá	717	San Juan la Laguna	12	San Juan la Laguna	7	Julio	2023-07-16T00:00:00	2024-11-08T19:00:00	1	Precipitación	0.8
65936	7	Sololá	717	San Juan la Laguna	12	San Juan la Laguna	7	Julio	2023-07-16T00:00:00	2024-11-08T19:00:00	8	Radiación solar	0
65937	7	Sololá	717	San Juan la Laguna	12	San Juan la Laguna	7	Julio	2023-07-16T00:00:00	2024-11-08T20:00:00	2	Temperatura media	18.6
65938	7	Sololá	717	San Juan la Laguna	12	San Juan la Laguna	7	Julio	2023-07-16T00:00:00	2024-11-08T20:00:00	4	Temperatura máxima	18.6
65939	7	Sololá	717	San Juan la Laguna	12	San Juan la Laguna	7	Julio	2023-07-16T00:00:00	2024-11-08T20:00:00	3	Temperatura mínima	18.3
65940	7	Sololá	717	San Juan la Laguna	12	San Juan la Laguna	7	Julio	2023-07-16T00:00:00	2024-11-08T20:00:00	5	Humedad	91
65941	7	Sololá	717	San Juan la Laguna	12	San Juan la Laguna	7	Julio	2023-07-16T00:00:00	2024-11-08T20:00:00	6	Velocidad del viento	3.2
65942	7	Sololá	717	San Juan la Laguna	12	San Juan la Laguna	7	Julio	2023-07-16T00:00:00	2024-11-08T20:00:00	7	Dirección del viento	3.22
65943	7	Sololá	717	San Juan la Laguna	12	San Juan la Laguna	7	Julio	2023-07-16T00:00:00	2024-11-08T20:00:00	1	Precipitación	0.2
65944	7	Sololá	717	San Juan la Laguna	12	San Juan la Laguna	7	Julio	2023-07-16T00:00:00	2024-11-08T20:00:00	8	Radiación solar	0
65945	7	Sololá	717	San Juan la Laguna	12	San Juan la Laguna	7	Julio	2023-07-16T00:00:00	2024-11-08T21:00:00	2	Temperatura media	19.2
65946	7	Sololá	717	San Juan la Laguna	12	San Juan la Laguna	7	Julio	2023-07-16T00:00:00	2024-11-08T21:00:00	4	Temperatura máxima	19.3
65947	7	Sololá	717	San Juan la Laguna	12	San Juan la Laguna	7	Julio	2023-07-16T00:00:00	2024-11-08T21:00:00	3	Temperatura mínima	18.1
65948	7	Sololá	717	San Juan la Laguna	12	San Juan la Laguna	7	Julio	2023-07-16T00:00:00	2024-11-08T21:00:00	5	Humedad	84
65949	7	Sololá	717	San Juan la Laguna	12	San Juan la Laguna	7	Julio	2023-07-16T00:00:00	2024-11-08T21:00:00	6	Velocidad del viento	3.2
65950	7	Sololá	717	San Juan la Laguna	12	San Juan la Laguna	7	Julio	2023-07-16T00:00:00	2024-11-08T21:00:00	7	Dirección del viento	3.22
65951	7	Sololá	717	San Juan la Laguna	12	San Juan la Laguna	7	Julio	2023-07-16T00:00:00	2024-11-08T21:00:00	1	Precipitación	0.2
65952	7	Sololá	717	San Juan la Laguna	12	San Juan la Laguna	7	Julio	2023-07-16T00:00:00	2024-11-08T21:00:00	8	Radiación solar	0
65953	7	Sololá	717	San Juan la Laguna	12	San Juan la Laguna	7	Julio	2023-07-16T00:00:00	2024-11-08T22:00:00	2	Temperatura media	19.2
65954	7	Sololá	717	San Juan la Laguna	12	San Juan la Laguna	7	Julio	2023-07-16T00:00:00	2024-11-08T22:00:00	4	Temperatura máxima	19.2
65955	7	Sololá	717	San Juan la Laguna	12	San Juan la Laguna	7	Julio	2023-07-16T00:00:00	2024-11-08T22:00:00	3	Temperatura mínima	18.1
65956	7	Sololá	717	San Juan la Laguna	12	San Juan la Laguna	7	Julio	2023-07-16T00:00:00	2024-11-08T22:00:00	5	Humedad	77
65957	7	Sololá	717	San Juan la Laguna	12	San Juan la Laguna	7	Julio	2023-07-16T00:00:00	2024-11-08T22:00:00	6	Velocidad del viento	3.2
65958	7	Sololá	717	San Juan la Laguna	12	San Juan la Laguna	7	Julio	2023-07-16T00:00:00	2024-11-08T22:00:00	7	Dirección del viento	3.22
65959	7	Sololá	717	San Juan la Laguna	12	San Juan la Laguna	7	Julio	2023-07-16T00:00:00	2024-11-08T22:00:00	1	Precipitación	0
65960	7	Sololá	717	San Juan la Laguna	12	San Juan la Laguna	7	Julio	2023-07-16T00:00:00	2024-11-08T22:00:00	8	Radiación solar	0
65961	7	Sololá	717	San Juan la Laguna	12	San Juan la Laguna	7	Julio	2023-07-16T00:00:00	2024-11-08T23:00:00	2	Temperatura media	19.6
65962	7	Sololá	717	San Juan la Laguna	12	San Juan la Laguna	7	Julio	2023-07-16T00:00:00	2024-11-08T23:00:00	4	Temperatura máxima	20.7
65963	7	Sololá	717	San Juan la Laguna	12	San Juan la Laguna	7	Julio	2023-07-16T00:00:00	2024-11-08T23:00:00	3	Temperatura mínima	19.2
65964	7	Sololá	717	San Juan la Laguna	12	San Juan la Laguna	7	Julio	2023-07-16T00:00:00	2024-11-08T23:00:00	5	Humedad	74
65965	7	Sololá	717	San Juan la Laguna	12	San Juan la Laguna	7	Julio	2023-07-16T00:00:00	2024-11-08T23:00:00	6	Velocidad del viento	8
65966	7	Sololá	717	San Juan la Laguna	12	San Juan la Laguna	7	Julio	2023-07-16T00:00:00	2024-11-08T23:00:00	7	Dirección del viento	8.05
65967	7	Sololá	717	San Juan la Laguna	12	San Juan la Laguna	7	Julio	2023-07-16T00:00:00	2024-11-08T23:00:00	1	Precipitación	0
65968	7	Sololá	717	San Juan la Laguna	12	San Juan la Laguna	7	Julio	2023-07-16T00:00:00	2024-11-08T23:00:00	8	Radiación solar	0
65969	7	Sololá	717	San Juan la Laguna	12	San Juan la Laguna	7	Julio	2023-07-17T00:00:00	2024-11-08T00:00:00	2	Temperatura media	20.1
65970	7	Sololá	717	San Juan la Laguna	12	San Juan la Laguna	7	Julio	2023-07-17T00:00:00	2024-11-08T00:00:00	4	Temperatura máxima	20.1
65971	7	Sololá	717	San Juan la Laguna	12	San Juan la Laguna	7	Julio	2023-07-17T00:00:00	2024-11-08T00:00:00	3	Temperatura mínima	19.5
65972	7	Sololá	717	San Juan la Laguna	12	San Juan la Laguna	7	Julio	2023-07-17T00:00:00	2024-11-08T00:00:00	5	Humedad	69
65973	7	Sololá	717	San Juan la Laguna	12	San Juan la Laguna	7	Julio	2023-07-17T00:00:00	2024-11-08T00:00:00	6	Velocidad del viento	6.4
65974	7	Sololá	717	San Juan la Laguna	12	San Juan la Laguna	7	Julio	2023-07-17T00:00:00	2024-11-08T00:00:00	7	Dirección del viento	6.44
65975	7	Sololá	717	San Juan la Laguna	12	San Juan la Laguna	7	Julio	2023-07-17T00:00:00	2024-11-08T00:00:00	1	Precipitación	0
65976	7	Sololá	717	San Juan la Laguna	12	San Juan la Laguna	7	Julio	2023-07-17T00:00:00	2024-11-08T00:00:00	8	Radiación solar	0
65977	7	Sololá	717	San Juan la Laguna	12	San Juan la Laguna	7	Julio	2023-07-17T00:00:00	2024-11-08T01:00:00	2	Temperatura media	19.9
65978	7	Sololá	717	San Juan la Laguna	12	San Juan la Laguna	7	Julio	2023-07-17T00:00:00	2024-11-08T01:00:00	4	Temperatura máxima	20.3
65979	7	Sololá	717	San Juan la Laguna	12	San Juan la Laguna	7	Julio	2023-07-17T00:00:00	2024-11-08T01:00:00	3	Temperatura mínima	19.7
65980	7	Sololá	717	San Juan la Laguna	12	San Juan la Laguna	7	Julio	2023-07-17T00:00:00	2024-11-08T01:00:00	5	Humedad	68
65981	7	Sololá	717	San Juan la Laguna	12	San Juan la Laguna	7	Julio	2023-07-17T00:00:00	2024-11-08T01:00:00	6	Velocidad del viento	4.8
65982	7	Sololá	717	San Juan la Laguna	12	San Juan la Laguna	7	Julio	2023-07-17T00:00:00	2024-11-08T01:00:00	7	Dirección del viento	4.83
65983	7	Sololá	717	San Juan la Laguna	12	San Juan la Laguna	7	Julio	2023-07-17T00:00:00	2024-11-08T01:00:00	1	Precipitación	0
65984	7	Sololá	717	San Juan la Laguna	12	San Juan la Laguna	7	Julio	2023-07-17T00:00:00	2024-11-08T01:00:00	8	Radiación solar	0
65985	7	Sololá	717	San Juan la Laguna	12	San Juan la Laguna	7	Julio	2023-07-17T00:00:00	2024-11-08T02:00:00	2	Temperatura media	19.6
65986	7	Sololá	717	San Juan la Laguna	12	San Juan la Laguna	7	Julio	2023-07-17T00:00:00	2024-11-08T02:00:00	4	Temperatura máxima	20
65987	7	Sololá	717	San Juan la Laguna	12	San Juan la Laguna	7	Julio	2023-07-17T00:00:00	2024-11-08T02:00:00	3	Temperatura mínima	17.9
65988	7	Sololá	717	San Juan la Laguna	12	San Juan la Laguna	7	Julio	2023-07-17T00:00:00	2024-11-08T02:00:00	5	Humedad	70
65989	7	Sololá	717	San Juan la Laguna	12	San Juan la Laguna	7	Julio	2023-07-17T00:00:00	2024-11-08T02:00:00	6	Velocidad del viento	3.2
65990	7	Sololá	717	San Juan la Laguna	12	San Juan la Laguna	7	Julio	2023-07-17T00:00:00	2024-11-08T02:00:00	7	Dirección del viento	3.22
65991	7	Sololá	717	San Juan la Laguna	12	San Juan la Laguna	7	Julio	2023-07-17T00:00:00	2024-11-08T02:00:00	1	Precipitación	0
65992	7	Sololá	717	San Juan la Laguna	12	San Juan la Laguna	7	Julio	2023-07-17T00:00:00	2024-11-08T02:00:00	8	Radiación solar	0
65993	7	Sololá	717	San Juan la Laguna	12	San Juan la Laguna	7	Julio	2023-07-17T00:00:00	2024-11-08T03:00:00	2	Temperatura media	17.7
65994	7	Sololá	717	San Juan la Laguna	12	San Juan la Laguna	7	Julio	2023-07-17T00:00:00	2024-11-08T03:00:00	4	Temperatura máxima	19.8
65995	7	Sololá	717	San Juan la Laguna	12	San Juan la Laguna	7	Julio	2023-07-17T00:00:00	2024-11-08T03:00:00	3	Temperatura mínima	17.6
65996	7	Sololá	717	San Juan la Laguna	12	San Juan la Laguna	7	Julio	2023-07-17T00:00:00	2024-11-08T03:00:00	5	Humedad	80
65997	7	Sololá	717	San Juan la Laguna	12	San Juan la Laguna	7	Julio	2023-07-17T00:00:00	2024-11-08T03:00:00	6	Velocidad del viento	3.2
65998	7	Sololá	717	San Juan la Laguna	12	San Juan la Laguna	7	Julio	2023-07-17T00:00:00	2024-11-08T03:00:00	7	Dirección del viento	3.22
65999	7	Sololá	717	San Juan la Laguna	12	San Juan la Laguna	7	Julio	2023-07-17T00:00:00	2024-11-08T03:00:00	1	Precipitación	0
66000	7	Sololá	717	San Juan la Laguna	12	San Juan la Laguna	7	Julio	2023-07-17T00:00:00	2024-11-08T03:00:00	8	Radiación solar	0
66001	7	Sololá	717	San Juan la Laguna	12	San Juan la Laguna	7	Julio	2023-07-17T00:00:00	2024-11-08T04:00:00	2	Temperatura media	17
66002	7	Sololá	717	San Juan la Laguna	12	San Juan la Laguna	7	Julio	2023-07-17T00:00:00	2024-11-08T04:00:00	4	Temperatura máxima	17.7
66003	7	Sololá	717	San Juan la Laguna	12	San Juan la Laguna	7	Julio	2023-07-17T00:00:00	2024-11-08T04:00:00	3	Temperatura mínima	16.3
66004	7	Sololá	717	San Juan la Laguna	12	San Juan la Laguna	7	Julio	2023-07-17T00:00:00	2024-11-08T04:00:00	5	Humedad	82
66005	7	Sololá	717	San Juan la Laguna	12	San Juan la Laguna	7	Julio	2023-07-17T00:00:00	2024-11-08T04:00:00	6	Velocidad del viento	3.2
66006	7	Sololá	717	San Juan la Laguna	12	San Juan la Laguna	7	Julio	2023-07-17T00:00:00	2024-11-08T04:00:00	7	Dirección del viento	3.22
66007	7	Sololá	717	San Juan la Laguna	12	San Juan la Laguna	7	Julio	2023-07-17T00:00:00	2024-11-08T04:00:00	1	Precipitación	0
66008	7	Sololá	717	San Juan la Laguna	12	San Juan la Laguna	7	Julio	2023-07-17T00:00:00	2024-11-08T04:00:00	8	Radiación solar	0
66009	7	Sololá	717	San Juan la Laguna	12	San Juan la Laguna	7	Julio	2023-07-17T00:00:00	2024-11-08T05:00:00	2	Temperatura media	17.3
66010	7	Sololá	717	San Juan la Laguna	12	San Juan la Laguna	7	Julio	2023-07-17T00:00:00	2024-11-08T05:00:00	4	Temperatura máxima	18.4
66011	7	Sololá	717	San Juan la Laguna	12	San Juan la Laguna	7	Julio	2023-07-17T00:00:00	2024-11-08T05:00:00	3	Temperatura mínima	17
66012	7	Sololá	717	San Juan la Laguna	12	San Juan la Laguna	7	Julio	2023-07-17T00:00:00	2024-11-08T05:00:00	5	Humedad	78
66013	7	Sololá	717	San Juan la Laguna	12	San Juan la Laguna	7	Julio	2023-07-17T00:00:00	2024-11-08T05:00:00	6	Velocidad del viento	4.8
66014	7	Sololá	717	San Juan la Laguna	12	San Juan la Laguna	7	Julio	2023-07-17T00:00:00	2024-11-08T05:00:00	7	Dirección del viento	4.83
66015	7	Sololá	717	San Juan la Laguna	12	San Juan la Laguna	7	Julio	2023-07-17T00:00:00	2024-11-08T05:00:00	1	Precipitación	0
66016	7	Sololá	717	San Juan la Laguna	12	San Juan la Laguna	7	Julio	2023-07-17T00:00:00	2024-11-08T05:00:00	8	Radiación solar	0
66017	7	Sololá	717	San Juan la Laguna	12	San Juan la Laguna	7	Julio	2023-07-17T00:00:00	2024-11-08T06:00:00	2	Temperatura media	19.3
66018	7	Sololá	717	San Juan la Laguna	12	San Juan la Laguna	7	Julio	2023-07-17T00:00:00	2024-11-08T06:00:00	4	Temperatura máxima	19.3
66019	7	Sololá	717	San Juan la Laguna	12	San Juan la Laguna	7	Julio	2023-07-17T00:00:00	2024-11-08T06:00:00	3	Temperatura mínima	16.6
66020	7	Sololá	717	San Juan la Laguna	12	San Juan la Laguna	7	Julio	2023-07-17T00:00:00	2024-11-08T06:00:00	5	Humedad	68
66021	7	Sololá	717	San Juan la Laguna	12	San Juan la Laguna	7	Julio	2023-07-17T00:00:00	2024-11-08T06:00:00	6	Velocidad del viento	4.8
66022	7	Sololá	717	San Juan la Laguna	12	San Juan la Laguna	7	Julio	2023-07-17T00:00:00	2024-11-08T06:00:00	7	Dirección del viento	4.83
66023	7	Sololá	717	San Juan la Laguna	12	San Juan la Laguna	7	Julio	2023-07-17T00:00:00	2024-11-08T06:00:00	1	Precipitación	0
66024	7	Sololá	717	San Juan la Laguna	12	San Juan la Laguna	7	Julio	2023-07-17T00:00:00	2024-11-08T06:00:00	8	Radiación solar	1
66025	7	Sololá	717	San Juan la Laguna	12	San Juan la Laguna	7	Julio	2023-07-17T00:00:00	2024-11-08T07:00:00	2	Temperatura media	20.7
66026	7	Sololá	717	San Juan la Laguna	12	San Juan la Laguna	7	Julio	2023-07-17T00:00:00	2024-11-08T07:00:00	4	Temperatura máxima	20.7
66027	7	Sololá	717	San Juan la Laguna	12	San Juan la Laguna	7	Julio	2023-07-17T00:00:00	2024-11-08T07:00:00	3	Temperatura mínima	19.3
66028	7	Sololá	717	San Juan la Laguna	12	San Juan la Laguna	7	Julio	2023-07-17T00:00:00	2024-11-08T07:00:00	5	Humedad	60
66029	7	Sololá	717	San Juan la Laguna	12	San Juan la Laguna	7	Julio	2023-07-17T00:00:00	2024-11-08T07:00:00	6	Velocidad del viento	11.3
66030	7	Sololá	717	San Juan la Laguna	12	San Juan la Laguna	7	Julio	2023-07-17T00:00:00	2024-11-08T07:00:00	7	Dirección del viento	11.27
66031	7	Sololá	717	San Juan la Laguna	12	San Juan la Laguna	7	Julio	2023-07-17T00:00:00	2024-11-08T07:00:00	1	Precipitación	0
66032	7	Sololá	717	San Juan la Laguna	12	San Juan la Laguna	7	Julio	2023-07-17T00:00:00	2024-11-08T07:00:00	8	Radiación solar	82
66033	7	Sololá	717	San Juan la Laguna	12	San Juan la Laguna	7	Julio	2023-07-17T00:00:00	2024-11-08T08:00:00	2	Temperatura media	21.9
66034	7	Sololá	717	San Juan la Laguna	12	San Juan la Laguna	7	Julio	2023-07-17T00:00:00	2024-11-08T08:00:00	4	Temperatura máxima	21.9
66035	7	Sololá	717	San Juan la Laguna	12	San Juan la Laguna	7	Julio	2023-07-17T00:00:00	2024-11-08T08:00:00	3	Temperatura mínima	20.7
66036	7	Sololá	717	San Juan la Laguna	12	San Juan la Laguna	7	Julio	2023-07-17T00:00:00	2024-11-08T08:00:00	5	Humedad	57
66037	7	Sololá	717	San Juan la Laguna	12	San Juan la Laguna	7	Julio	2023-07-17T00:00:00	2024-11-08T08:00:00	6	Velocidad del viento	12.9
66038	7	Sololá	717	San Juan la Laguna	12	San Juan la Laguna	7	Julio	2023-07-17T00:00:00	2024-11-08T08:00:00	7	Dirección del viento	12.87
66039	7	Sololá	717	San Juan la Laguna	12	San Juan la Laguna	7	Julio	2023-07-17T00:00:00	2024-11-08T08:00:00	1	Precipitación	0
66040	7	Sololá	717	San Juan la Laguna	12	San Juan la Laguna	7	Julio	2023-07-17T00:00:00	2024-11-08T08:00:00	8	Radiación solar	266
66041	7	Sololá	717	San Juan la Laguna	12	San Juan la Laguna	7	Julio	2023-07-17T00:00:00	2024-11-08T09:00:00	2	Temperatura media	22.9
66042	7	Sololá	717	San Juan la Laguna	12	San Juan la Laguna	7	Julio	2023-07-17T00:00:00	2024-11-08T09:00:00	4	Temperatura máxima	22.9
66043	7	Sololá	717	San Juan la Laguna	12	San Juan la Laguna	7	Julio	2023-07-17T00:00:00	2024-11-08T09:00:00	3	Temperatura mínima	21.8
66044	7	Sololá	717	San Juan la Laguna	12	San Juan la Laguna	7	Julio	2023-07-17T00:00:00	2024-11-08T09:00:00	5	Humedad	52
66045	7	Sololá	717	San Juan la Laguna	12	San Juan la Laguna	7	Julio	2023-07-17T00:00:00	2024-11-08T09:00:00	6	Velocidad del viento	12.9
66046	7	Sololá	717	San Juan la Laguna	12	San Juan la Laguna	7	Julio	2023-07-17T00:00:00	2024-11-08T09:00:00	7	Dirección del viento	12.87
66047	7	Sololá	717	San Juan la Laguna	12	San Juan la Laguna	7	Julio	2023-07-17T00:00:00	2024-11-08T09:00:00	1	Precipitación	0
66048	7	Sololá	717	San Juan la Laguna	12	San Juan la Laguna	7	Julio	2023-07-17T00:00:00	2024-11-08T09:00:00	8	Radiación solar	540
66049	7	Sololá	717	San Juan la Laguna	12	San Juan la Laguna	7	Julio	2023-07-17T00:00:00	2024-11-08T10:00:00	2	Temperatura media	24.7
66050	7	Sololá	717	San Juan la Laguna	12	San Juan la Laguna	7	Julio	2023-07-17T00:00:00	2024-11-08T10:00:00	4	Temperatura máxima	24.7
66051	7	Sololá	717	San Juan la Laguna	12	San Juan la Laguna	7	Julio	2023-07-17T00:00:00	2024-11-08T10:00:00	3	Temperatura mínima	22.8
66052	7	Sololá	717	San Juan la Laguna	12	San Juan la Laguna	7	Julio	2023-07-17T00:00:00	2024-11-08T10:00:00	5	Humedad	47
66053	7	Sololá	717	San Juan la Laguna	12	San Juan la Laguna	7	Julio	2023-07-17T00:00:00	2024-11-08T10:00:00	6	Velocidad del viento	11.3
66054	7	Sololá	717	San Juan la Laguna	12	San Juan la Laguna	7	Julio	2023-07-17T00:00:00	2024-11-08T10:00:00	7	Dirección del viento	11.27
66055	7	Sololá	717	San Juan la Laguna	12	San Juan la Laguna	7	Julio	2023-07-17T00:00:00	2024-11-08T10:00:00	1	Precipitación	0
66056	7	Sololá	717	San Juan la Laguna	12	San Juan la Laguna	7	Julio	2023-07-17T00:00:00	2024-11-08T10:00:00	8	Radiación solar	695
66057	7	Sololá	717	San Juan la Laguna	12	San Juan la Laguna	7	Julio	2023-07-17T00:00:00	2024-11-08T11:00:00	2	Temperatura media	25.2
66058	7	Sololá	717	San Juan la Laguna	12	San Juan la Laguna	7	Julio	2023-07-17T00:00:00	2024-11-08T11:00:00	4	Temperatura máxima	25.2
66059	7	Sololá	717	San Juan la Laguna	12	San Juan la Laguna	7	Julio	2023-07-17T00:00:00	2024-11-08T11:00:00	3	Temperatura mínima	24.4
66060	7	Sololá	717	San Juan la Laguna	12	San Juan la Laguna	7	Julio	2023-07-17T00:00:00	2024-11-08T11:00:00	5	Humedad	47
66061	7	Sololá	717	San Juan la Laguna	12	San Juan la Laguna	7	Julio	2023-07-17T00:00:00	2024-11-08T11:00:00	6	Velocidad del viento	9.7
66062	7	Sololá	717	San Juan la Laguna	12	San Juan la Laguna	7	Julio	2023-07-17T00:00:00	2024-11-08T11:00:00	7	Dirección del viento	9.66
66063	7	Sololá	717	San Juan la Laguna	12	San Juan la Laguna	7	Julio	2023-07-17T00:00:00	2024-11-08T11:00:00	1	Precipitación	0
66064	7	Sololá	717	San Juan la Laguna	12	San Juan la Laguna	7	Julio	2023-07-17T00:00:00	2024-11-08T11:00:00	8	Radiación solar	617
66065	7	Sololá	717	San Juan la Laguna	12	San Juan la Laguna	7	Julio	2023-07-17T00:00:00	2024-11-08T12:00:00	2	Temperatura media	26.4
66066	7	Sololá	717	San Juan la Laguna	12	San Juan la Laguna	7	Julio	2023-07-17T00:00:00	2024-11-08T12:00:00	4	Temperatura máxima	26.7
66067	7	Sololá	717	San Juan la Laguna	12	San Juan la Laguna	7	Julio	2023-07-17T00:00:00	2024-11-08T12:00:00	3	Temperatura mínima	25.2
66068	7	Sololá	717	San Juan la Laguna	12	San Juan la Laguna	7	Julio	2023-07-17T00:00:00	2024-11-08T12:00:00	5	Humedad	43
66069	7	Sololá	717	San Juan la Laguna	12	San Juan la Laguna	7	Julio	2023-07-17T00:00:00	2024-11-08T12:00:00	6	Velocidad del viento	9.7
66070	7	Sololá	717	San Juan la Laguna	12	San Juan la Laguna	7	Julio	2023-07-17T00:00:00	2024-11-08T12:00:00	7	Dirección del viento	9.66
66071	7	Sololá	717	San Juan la Laguna	12	San Juan la Laguna	7	Julio	2023-07-17T00:00:00	2024-11-08T12:00:00	1	Precipitación	0
66072	7	Sololá	717	San Juan la Laguna	12	San Juan la Laguna	7	Julio	2023-07-17T00:00:00	2024-11-08T12:00:00	8	Radiación solar	931
66073	7	Sololá	717	San Juan la Laguna	12	San Juan la Laguna	7	Julio	2023-07-17T00:00:00	2024-11-08T13:00:00	2	Temperatura media	27.1
66074	7	Sololá	717	San Juan la Laguna	12	San Juan la Laguna	7	Julio	2023-07-17T00:00:00	2024-11-08T13:00:00	4	Temperatura máxima	27.2
66075	7	Sololá	717	San Juan la Laguna	12	San Juan la Laguna	7	Julio	2023-07-17T00:00:00	2024-11-08T13:00:00	3	Temperatura mínima	26.4
66076	7	Sololá	717	San Juan la Laguna	12	San Juan la Laguna	7	Julio	2023-07-17T00:00:00	2024-11-08T13:00:00	5	Humedad	41
66077	7	Sololá	717	San Juan la Laguna	12	San Juan la Laguna	7	Julio	2023-07-17T00:00:00	2024-11-08T13:00:00	6	Velocidad del viento	11.3
66078	7	Sololá	717	San Juan la Laguna	12	San Juan la Laguna	7	Julio	2023-07-17T00:00:00	2024-11-08T13:00:00	7	Dirección del viento	11.27
66079	7	Sololá	717	San Juan la Laguna	12	San Juan la Laguna	7	Julio	2023-07-17T00:00:00	2024-11-08T13:00:00	1	Precipitación	0
66080	7	Sololá	717	San Juan la Laguna	12	San Juan la Laguna	7	Julio	2023-07-17T00:00:00	2024-11-08T13:00:00	8	Radiación solar	928
66081	7	Sololá	717	San Juan la Laguna	12	San Juan la Laguna	7	Julio	2023-07-17T00:00:00	2024-11-08T14:00:00	2	Temperatura media	26.8
66082	7	Sololá	717	San Juan la Laguna	12	San Juan la Laguna	7	Julio	2023-07-17T00:00:00	2024-11-08T14:00:00	4	Temperatura máxima	27.2
66083	7	Sololá	717	San Juan la Laguna	12	San Juan la Laguna	7	Julio	2023-07-17T00:00:00	2024-11-08T14:00:00	3	Temperatura mínima	26.6
66084	7	Sololá	717	San Juan la Laguna	12	San Juan la Laguna	7	Julio	2023-07-17T00:00:00	2024-11-08T14:00:00	5	Humedad	43
66085	7	Sololá	717	San Juan la Laguna	12	San Juan la Laguna	7	Julio	2023-07-17T00:00:00	2024-11-08T14:00:00	6	Velocidad del viento	12.9
66086	7	Sololá	717	San Juan la Laguna	12	San Juan la Laguna	7	Julio	2023-07-17T00:00:00	2024-11-08T14:00:00	7	Dirección del viento	12.87
66087	7	Sololá	717	San Juan la Laguna	12	San Juan la Laguna	7	Julio	2023-07-17T00:00:00	2024-11-08T14:00:00	1	Precipitación	0
66088	7	Sololá	717	San Juan la Laguna	12	San Juan la Laguna	7	Julio	2023-07-17T00:00:00	2024-11-08T14:00:00	8	Radiación solar	868
66089	7	Sololá	717	San Juan la Laguna	12	San Juan la Laguna	7	Julio	2023-07-17T00:00:00	2024-11-08T15:00:00	2	Temperatura media	27
66090	7	Sololá	717	San Juan la Laguna	12	San Juan la Laguna	7	Julio	2023-07-17T00:00:00	2024-11-08T15:00:00	4	Temperatura máxima	27.3
66091	7	Sololá	717	San Juan la Laguna	12	San Juan la Laguna	7	Julio	2023-07-17T00:00:00	2024-11-08T15:00:00	3	Temperatura mínima	26.8
66092	7	Sololá	717	San Juan la Laguna	12	San Juan la Laguna	7	Julio	2023-07-17T00:00:00	2024-11-08T15:00:00	5	Humedad	43
66093	7	Sololá	717	San Juan la Laguna	12	San Juan la Laguna	7	Julio	2023-07-17T00:00:00	2024-11-08T15:00:00	6	Velocidad del viento	11.3
66094	7	Sololá	717	San Juan la Laguna	12	San Juan la Laguna	7	Julio	2023-07-17T00:00:00	2024-11-08T15:00:00	7	Dirección del viento	11.27
66095	7	Sololá	717	San Juan la Laguna	12	San Juan la Laguna	7	Julio	2023-07-17T00:00:00	2024-11-08T15:00:00	1	Precipitación	0
66096	7	Sololá	717	San Juan la Laguna	12	San Juan la Laguna	7	Julio	2023-07-17T00:00:00	2024-11-08T15:00:00	8	Radiación solar	760
66097	7	Sololá	717	San Juan la Laguna	12	San Juan la Laguna	7	Julio	2023-07-17T00:00:00	2024-11-08T16:00:00	2	Temperatura media	26.6
66098	7	Sololá	717	San Juan la Laguna	12	San Juan la Laguna	7	Julio	2023-07-17T00:00:00	2024-11-08T16:00:00	4	Temperatura máxima	27.3
66099	7	Sololá	717	San Juan la Laguna	12	San Juan la Laguna	7	Julio	2023-07-17T00:00:00	2024-11-08T16:00:00	3	Temperatura mínima	26.5
66100	7	Sololá	717	San Juan la Laguna	12	San Juan la Laguna	7	Julio	2023-07-17T00:00:00	2024-11-08T16:00:00	5	Humedad	45
66101	7	Sololá	717	San Juan la Laguna	12	San Juan la Laguna	7	Julio	2023-07-17T00:00:00	2024-11-08T16:00:00	6	Velocidad del viento	11.3
66102	7	Sololá	717	San Juan la Laguna	12	San Juan la Laguna	7	Julio	2023-07-17T00:00:00	2024-11-08T16:00:00	7	Dirección del viento	11.27
66103	7	Sololá	717	San Juan la Laguna	12	San Juan la Laguna	7	Julio	2023-07-17T00:00:00	2024-11-08T16:00:00	1	Precipitación	0
66104	7	Sololá	717	San Juan la Laguna	12	San Juan la Laguna	7	Julio	2023-07-17T00:00:00	2024-11-08T16:00:00	8	Radiación solar	630
66105	7	Sololá	717	San Juan la Laguna	12	San Juan la Laguna	7	Julio	2023-07-17T00:00:00	2024-11-08T17:00:00	2	Temperatura media	25.6
66106	7	Sololá	717	San Juan la Laguna	12	San Juan la Laguna	7	Julio	2023-07-17T00:00:00	2024-11-08T17:00:00	4	Temperatura máxima	26.6
66107	7	Sololá	717	San Juan la Laguna	12	San Juan la Laguna	7	Julio	2023-07-17T00:00:00	2024-11-08T17:00:00	3	Temperatura mínima	25.6
66108	7	Sololá	717	San Juan la Laguna	12	San Juan la Laguna	7	Julio	2023-07-17T00:00:00	2024-11-08T17:00:00	5	Humedad	47
66109	7	Sololá	717	San Juan la Laguna	12	San Juan la Laguna	7	Julio	2023-07-17T00:00:00	2024-11-08T17:00:00	6	Velocidad del viento	14.5
66110	7	Sololá	717	San Juan la Laguna	12	San Juan la Laguna	7	Julio	2023-07-17T00:00:00	2024-11-08T17:00:00	7	Dirección del viento	14.48
66111	7	Sololá	717	San Juan la Laguna	12	San Juan la Laguna	7	Julio	2023-07-17T00:00:00	2024-11-08T17:00:00	1	Precipitación	0
66112	7	Sololá	717	San Juan la Laguna	12	San Juan la Laguna	7	Julio	2023-07-17T00:00:00	2024-11-08T17:00:00	8	Radiación solar	410
66113	7	Sololá	717	San Juan la Laguna	12	San Juan la Laguna	7	Julio	2023-07-17T00:00:00	2024-11-08T18:00:00	2	Temperatura media	24
66114	7	Sololá	717	San Juan la Laguna	12	San Juan la Laguna	7	Julio	2023-07-17T00:00:00	2024-11-08T18:00:00	4	Temperatura máxima	25.6
66115	7	Sololá	717	San Juan la Laguna	12	San Juan la Laguna	7	Julio	2023-07-17T00:00:00	2024-11-08T18:00:00	3	Temperatura mínima	24
66116	7	Sololá	717	San Juan la Laguna	12	San Juan la Laguna	7	Julio	2023-07-17T00:00:00	2024-11-08T18:00:00	5	Humedad	51
66117	7	Sololá	717	San Juan la Laguna	12	San Juan la Laguna	7	Julio	2023-07-17T00:00:00	2024-11-08T18:00:00	6	Velocidad del viento	12.9
66118	7	Sololá	717	San Juan la Laguna	12	San Juan la Laguna	7	Julio	2023-07-17T00:00:00	2024-11-08T18:00:00	7	Dirección del viento	12.87
66119	7	Sololá	717	San Juan la Laguna	12	San Juan la Laguna	7	Julio	2023-07-17T00:00:00	2024-11-08T18:00:00	1	Precipitación	0
66120	7	Sololá	717	San Juan la Laguna	12	San Juan la Laguna	7	Julio	2023-07-17T00:00:00	2024-11-08T18:00:00	8	Radiación solar	166
66121	7	Sololá	717	San Juan la Laguna	12	San Juan la Laguna	7	Julio	2023-07-17T00:00:00	2024-11-08T19:00:00	2	Temperatura media	22.8
66122	7	Sololá	717	San Juan la Laguna	12	San Juan la Laguna	7	Julio	2023-07-17T00:00:00	2024-11-08T19:00:00	4	Temperatura máxima	24
66123	7	Sololá	717	San Juan la Laguna	12	San Juan la Laguna	7	Julio	2023-07-17T00:00:00	2024-11-08T19:00:00	3	Temperatura mínima	22.8
66124	7	Sololá	717	San Juan la Laguna	12	San Juan la Laguna	7	Julio	2023-07-17T00:00:00	2024-11-08T19:00:00	5	Humedad	58
66125	7	Sololá	717	San Juan la Laguna	12	San Juan la Laguna	7	Julio	2023-07-17T00:00:00	2024-11-08T19:00:00	6	Velocidad del viento	12.9
66126	7	Sololá	717	San Juan la Laguna	12	San Juan la Laguna	7	Julio	2023-07-17T00:00:00	2024-11-08T19:00:00	7	Dirección del viento	12.87
66127	7	Sololá	717	San Juan la Laguna	12	San Juan la Laguna	7	Julio	2023-07-17T00:00:00	2024-11-08T19:00:00	1	Precipitación	0
66128	7	Sololá	717	San Juan la Laguna	12	San Juan la Laguna	7	Julio	2023-07-17T00:00:00	2024-11-08T19:00:00	8	Radiación solar	0
66129	7	Sololá	717	San Juan la Laguna	12	San Juan la Laguna	7	Julio	2023-07-17T00:00:00	2024-11-08T20:00:00	2	Temperatura media	22
66130	7	Sololá	717	San Juan la Laguna	12	San Juan la Laguna	7	Julio	2023-07-17T00:00:00	2024-11-08T20:00:00	4	Temperatura máxima	22.8
66131	7	Sololá	717	San Juan la Laguna	12	San Juan la Laguna	7	Julio	2023-07-17T00:00:00	2024-11-08T20:00:00	3	Temperatura mínima	22
66132	7	Sololá	717	San Juan la Laguna	12	San Juan la Laguna	7	Julio	2023-07-17T00:00:00	2024-11-08T20:00:00	5	Humedad	61
66133	7	Sololá	717	San Juan la Laguna	12	San Juan la Laguna	7	Julio	2023-07-17T00:00:00	2024-11-08T20:00:00	6	Velocidad del viento	11.3
66134	7	Sololá	717	San Juan la Laguna	12	San Juan la Laguna	7	Julio	2023-07-17T00:00:00	2024-11-08T20:00:00	7	Dirección del viento	11.27
66135	7	Sololá	717	San Juan la Laguna	12	San Juan la Laguna	7	Julio	2023-07-17T00:00:00	2024-11-08T20:00:00	1	Precipitación	0
66136	7	Sololá	717	San Juan la Laguna	12	San Juan la Laguna	7	Julio	2023-07-17T00:00:00	2024-11-08T20:00:00	8	Radiación solar	0
66137	7	Sololá	717	San Juan la Laguna	12	San Juan la Laguna	7	Julio	2023-07-17T00:00:00	2024-11-08T21:00:00	2	Temperatura media	21.5
66138	7	Sololá	717	San Juan la Laguna	12	San Juan la Laguna	7	Julio	2023-07-17T00:00:00	2024-11-08T21:00:00	4	Temperatura máxima	22.1
66139	7	Sololá	717	San Juan la Laguna	12	San Juan la Laguna	7	Julio	2023-07-17T00:00:00	2024-11-08T21:00:00	3	Temperatura mínima	21.5
66140	7	Sololá	717	San Juan la Laguna	12	San Juan la Laguna	7	Julio	2023-07-17T00:00:00	2024-11-08T21:00:00	5	Humedad	63
66141	7	Sololá	717	San Juan la Laguna	12	San Juan la Laguna	7	Julio	2023-07-17T00:00:00	2024-11-08T21:00:00	6	Velocidad del viento	14.5
66142	7	Sololá	717	San Juan la Laguna	12	San Juan la Laguna	7	Julio	2023-07-17T00:00:00	2024-11-08T21:00:00	7	Dirección del viento	14.48
66143	7	Sololá	717	San Juan la Laguna	12	San Juan la Laguna	7	Julio	2023-07-17T00:00:00	2024-11-08T21:00:00	1	Precipitación	0
66144	7	Sololá	717	San Juan la Laguna	12	San Juan la Laguna	7	Julio	2023-07-17T00:00:00	2024-11-08T21:00:00	8	Radiación solar	0
66145	7	Sololá	717	San Juan la Laguna	12	San Juan la Laguna	7	Julio	2023-07-17T00:00:00	2024-11-08T22:00:00	2	Temperatura media	21.1
66146	7	Sololá	717	San Juan la Laguna	12	San Juan la Laguna	7	Julio	2023-07-17T00:00:00	2024-11-08T22:00:00	4	Temperatura máxima	21.6
66147	7	Sololá	717	San Juan la Laguna	12	San Juan la Laguna	7	Julio	2023-07-17T00:00:00	2024-11-08T22:00:00	3	Temperatura mínima	21.1
66148	7	Sololá	717	San Juan la Laguna	12	San Juan la Laguna	7	Julio	2023-07-17T00:00:00	2024-11-08T22:00:00	5	Humedad	64
66149	7	Sololá	717	San Juan la Laguna	12	San Juan la Laguna	7	Julio	2023-07-17T00:00:00	2024-11-08T22:00:00	6	Velocidad del viento	16.1
66150	7	Sololá	717	San Juan la Laguna	12	San Juan la Laguna	7	Julio	2023-07-17T00:00:00	2024-11-08T22:00:00	7	Dirección del viento	16.09
66151	7	Sololá	717	San Juan la Laguna	12	San Juan la Laguna	7	Julio	2023-07-17T00:00:00	2024-11-08T22:00:00	1	Precipitación	0
66152	7	Sololá	717	San Juan la Laguna	12	San Juan la Laguna	7	Julio	2023-07-17T00:00:00	2024-11-08T22:00:00	8	Radiación solar	0
66153	7	Sololá	717	San Juan la Laguna	12	San Juan la Laguna	7	Julio	2023-07-17T00:00:00	2024-11-08T23:00:00	2	Temperatura media	20.7
66154	7	Sololá	717	San Juan la Laguna	12	San Juan la Laguna	7	Julio	2023-07-17T00:00:00	2024-11-08T23:00:00	4	Temperatura máxima	21.1
66155	7	Sololá	717	San Juan la Laguna	12	San Juan la Laguna	7	Julio	2023-07-17T00:00:00	2024-11-08T23:00:00	3	Temperatura mínima	20.7
66156	7	Sololá	717	San Juan la Laguna	12	San Juan la Laguna	7	Julio	2023-07-17T00:00:00	2024-11-08T23:00:00	5	Humedad	64
66157	7	Sololá	717	San Juan la Laguna	12	San Juan la Laguna	7	Julio	2023-07-17T00:00:00	2024-11-08T23:00:00	6	Velocidad del viento	14.5
66158	7	Sololá	717	San Juan la Laguna	12	San Juan la Laguna	7	Julio	2023-07-17T00:00:00	2024-11-08T23:00:00	7	Dirección del viento	14.48
66159	7	Sololá	717	San Juan la Laguna	12	San Juan la Laguna	7	Julio	2023-07-17T00:00:00	2024-11-08T23:00:00	1	Precipitación	0
66160	7	Sololá	717	San Juan la Laguna	12	San Juan la Laguna	7	Julio	2023-07-17T00:00:00	2024-11-08T23:00:00	8	Radiación solar	0
66161	7	Sololá	717	San Juan la Laguna	12	San Juan la Laguna	7	Julio	2023-07-18T00:00:00	2024-11-08T00:00:00	2	Temperatura media	20.4
66162	7	Sololá	717	San Juan la Laguna	12	San Juan la Laguna	7	Julio	2023-07-18T00:00:00	2024-11-08T00:00:00	4	Temperatura máxima	20.8
66163	7	Sololá	717	San Juan la Laguna	12	San Juan la Laguna	7	Julio	2023-07-18T00:00:00	2024-11-08T00:00:00	3	Temperatura mínima	20.4
66164	7	Sololá	717	San Juan la Laguna	12	San Juan la Laguna	7	Julio	2023-07-18T00:00:00	2024-11-08T00:00:00	5	Humedad	64
66165	7	Sololá	717	San Juan la Laguna	12	San Juan la Laguna	7	Julio	2023-07-18T00:00:00	2024-11-08T00:00:00	6	Velocidad del viento	8
66166	7	Sololá	717	San Juan la Laguna	12	San Juan la Laguna	7	Julio	2023-07-18T00:00:00	2024-11-08T00:00:00	7	Dirección del viento	8.05
66167	7	Sololá	717	San Juan la Laguna	12	San Juan la Laguna	7	Julio	2023-07-18T00:00:00	2024-11-08T00:00:00	1	Precipitación	0
66168	7	Sololá	717	San Juan la Laguna	12	San Juan la Laguna	7	Julio	2023-07-18T00:00:00	2024-11-08T00:00:00	8	Radiación solar	0
66169	7	Sololá	717	San Juan la Laguna	12	San Juan la Laguna	7	Julio	2023-07-18T00:00:00	2024-11-08T01:00:00	2	Temperatura media	19.6
66170	7	Sololá	717	San Juan la Laguna	12	San Juan la Laguna	7	Julio	2023-07-18T00:00:00	2024-11-08T01:00:00	4	Temperatura máxima	20.4
66171	7	Sololá	717	San Juan la Laguna	12	San Juan la Laguna	7	Julio	2023-07-18T00:00:00	2024-11-08T01:00:00	3	Temperatura mínima	19.5
66172	7	Sololá	717	San Juan la Laguna	12	San Juan la Laguna	7	Julio	2023-07-18T00:00:00	2024-11-08T01:00:00	5	Humedad	67
66173	7	Sololá	717	San Juan la Laguna	12	San Juan la Laguna	7	Julio	2023-07-18T00:00:00	2024-11-08T01:00:00	6	Velocidad del viento	3.2
66174	7	Sololá	717	San Juan la Laguna	12	San Juan la Laguna	7	Julio	2023-07-18T00:00:00	2024-11-08T01:00:00	7	Dirección del viento	3.22
66175	7	Sololá	717	San Juan la Laguna	12	San Juan la Laguna	7	Julio	2023-07-18T00:00:00	2024-11-08T01:00:00	1	Precipitación	0
66176	7	Sololá	717	San Juan la Laguna	12	San Juan la Laguna	7	Julio	2023-07-18T00:00:00	2024-11-08T01:00:00	8	Radiación solar	0
66177	7	Sololá	717	San Juan la Laguna	12	San Juan la Laguna	7	Julio	2023-07-18T00:00:00	2024-11-08T02:00:00	2	Temperatura media	19.2
66178	7	Sololá	717	San Juan la Laguna	12	San Juan la Laguna	7	Julio	2023-07-18T00:00:00	2024-11-08T02:00:00	4	Temperatura máxima	19.8
66179	7	Sololá	717	San Juan la Laguna	12	San Juan la Laguna	7	Julio	2023-07-18T00:00:00	2024-11-08T02:00:00	3	Temperatura mínima	18.3
66180	7	Sololá	717	San Juan la Laguna	12	San Juan la Laguna	7	Julio	2023-07-18T00:00:00	2024-11-08T02:00:00	5	Humedad	69
66181	7	Sololá	717	San Juan la Laguna	12	San Juan la Laguna	7	Julio	2023-07-18T00:00:00	2024-11-08T02:00:00	6	Velocidad del viento	1.6
66182	7	Sololá	717	San Juan la Laguna	12	San Juan la Laguna	7	Julio	2023-07-18T00:00:00	2024-11-08T02:00:00	7	Dirección del viento	1.61
66183	7	Sololá	717	San Juan la Laguna	12	San Juan la Laguna	7	Julio	2023-07-18T00:00:00	2024-11-08T02:00:00	1	Precipitación	0
66184	7	Sololá	717	San Juan la Laguna	12	San Juan la Laguna	7	Julio	2023-07-18T00:00:00	2024-11-08T02:00:00	8	Radiación solar	0
66185	7	Sololá	717	San Juan la Laguna	12	San Juan la Laguna	7	Julio	2023-07-18T00:00:00	2024-11-08T03:00:00	2	Temperatura media	18
66186	7	Sololá	717	San Juan la Laguna	12	San Juan la Laguna	7	Julio	2023-07-18T00:00:00	2024-11-08T03:00:00	4	Temperatura máxima	19.2
66187	7	Sololá	717	San Juan la Laguna	12	San Juan la Laguna	7	Julio	2023-07-18T00:00:00	2024-11-08T03:00:00	3	Temperatura mínima	17.7
66188	7	Sololá	717	San Juan la Laguna	12	San Juan la Laguna	7	Julio	2023-07-18T00:00:00	2024-11-08T03:00:00	5	Humedad	75
66189	7	Sololá	717	San Juan la Laguna	12	San Juan la Laguna	7	Julio	2023-07-18T00:00:00	2024-11-08T03:00:00	6	Velocidad del viento	0
66190	7	Sololá	717	San Juan la Laguna	12	San Juan la Laguna	7	Julio	2023-07-18T00:00:00	2024-11-08T03:00:00	7	Dirección del viento	0
66191	7	Sololá	717	San Juan la Laguna	12	San Juan la Laguna	7	Julio	2023-07-18T00:00:00	2024-11-08T03:00:00	1	Precipitación	0
66192	7	Sololá	717	San Juan la Laguna	12	San Juan la Laguna	7	Julio	2023-07-18T00:00:00	2024-11-08T03:00:00	8	Radiación solar	0
66193	7	Sololá	717	San Juan la Laguna	12	San Juan la Laguna	7	Julio	2023-07-18T00:00:00	2024-11-08T04:00:00	2	Temperatura media	20.3
66194	7	Sololá	717	San Juan la Laguna	12	San Juan la Laguna	7	Julio	2023-07-18T00:00:00	2024-11-08T04:00:00	4	Temperatura máxima	20.3
66195	7	Sololá	717	San Juan la Laguna	12	San Juan la Laguna	7	Julio	2023-07-18T00:00:00	2024-11-08T04:00:00	3	Temperatura mínima	17.8
66196	7	Sololá	717	San Juan la Laguna	12	San Juan la Laguna	7	Julio	2023-07-18T00:00:00	2024-11-08T04:00:00	5	Humedad	67
66197	7	Sololá	717	San Juan la Laguna	12	San Juan la Laguna	7	Julio	2023-07-18T00:00:00	2024-11-08T04:00:00	6	Velocidad del viento	3.2
66198	7	Sololá	717	San Juan la Laguna	12	San Juan la Laguna	7	Julio	2023-07-18T00:00:00	2024-11-08T04:00:00	7	Dirección del viento	3.22
66199	7	Sololá	717	San Juan la Laguna	12	San Juan la Laguna	7	Julio	2023-07-18T00:00:00	2024-11-08T04:00:00	1	Precipitación	0
66200	7	Sololá	717	San Juan la Laguna	12	San Juan la Laguna	7	Julio	2023-07-18T00:00:00	2024-11-08T04:00:00	8	Radiación solar	0
66201	7	Sololá	717	San Juan la Laguna	12	San Juan la Laguna	7	Julio	2023-07-18T00:00:00	2024-11-08T05:00:00	2	Temperatura media	20.6
66202	7	Sololá	717	San Juan la Laguna	12	San Juan la Laguna	7	Julio	2023-07-18T00:00:00	2024-11-08T05:00:00	4	Temperatura máxima	20.7
66203	7	Sololá	717	San Juan la Laguna	12	San Juan la Laguna	7	Julio	2023-07-18T00:00:00	2024-11-08T05:00:00	3	Temperatura mínima	20.2
66204	7	Sololá	717	San Juan la Laguna	12	San Juan la Laguna	7	Julio	2023-07-18T00:00:00	2024-11-08T05:00:00	5	Humedad	67
66205	7	Sololá	717	San Juan la Laguna	12	San Juan la Laguna	7	Julio	2023-07-18T00:00:00	2024-11-08T05:00:00	6	Velocidad del viento	3.2
66206	7	Sololá	717	San Juan la Laguna	12	San Juan la Laguna	7	Julio	2023-07-18T00:00:00	2024-11-08T05:00:00	7	Dirección del viento	3.22
66207	7	Sololá	717	San Juan la Laguna	12	San Juan la Laguna	7	Julio	2023-07-18T00:00:00	2024-11-08T05:00:00	1	Precipitación	0
66208	7	Sololá	717	San Juan la Laguna	12	San Juan la Laguna	7	Julio	2023-07-18T00:00:00	2024-11-08T05:00:00	8	Radiación solar	0
66209	7	Sololá	717	San Juan la Laguna	12	San Juan la Laguna	7	Julio	2023-07-18T00:00:00	2024-11-08T06:00:00	2	Temperatura media	20.3
66210	7	Sololá	717	San Juan la Laguna	12	San Juan la Laguna	7	Julio	2023-07-18T00:00:00	2024-11-08T06:00:00	4	Temperatura máxima	20.8
66211	7	Sololá	717	San Juan la Laguna	12	San Juan la Laguna	7	Julio	2023-07-18T00:00:00	2024-11-08T06:00:00	3	Temperatura mínima	20.3
66212	7	Sololá	717	San Juan la Laguna	12	San Juan la Laguna	7	Julio	2023-07-18T00:00:00	2024-11-08T06:00:00	5	Humedad	68
66213	7	Sololá	717	San Juan la Laguna	12	San Juan la Laguna	7	Julio	2023-07-18T00:00:00	2024-11-08T06:00:00	6	Velocidad del viento	11.3
66214	7	Sololá	717	San Juan la Laguna	12	San Juan la Laguna	7	Julio	2023-07-18T00:00:00	2024-11-08T06:00:00	7	Dirección del viento	11.27
66215	7	Sololá	717	San Juan la Laguna	12	San Juan la Laguna	7	Julio	2023-07-18T00:00:00	2024-11-08T06:00:00	1	Precipitación	0
66216	7	Sololá	717	San Juan la Laguna	12	San Juan la Laguna	7	Julio	2023-07-18T00:00:00	2024-11-08T06:00:00	8	Radiación solar	1
66217	7	Sololá	717	San Juan la Laguna	12	San Juan la Laguna	7	Julio	2023-07-18T00:00:00	2024-11-08T07:00:00	2	Temperatura media	21.3
66218	7	Sololá	717	San Juan la Laguna	12	San Juan la Laguna	7	Julio	2023-07-18T00:00:00	2024-11-08T07:00:00	4	Temperatura máxima	21.3
66219	7	Sololá	717	San Juan la Laguna	12	San Juan la Laguna	7	Julio	2023-07-18T00:00:00	2024-11-08T07:00:00	3	Temperatura mínima	20.3
66220	7	Sololá	717	San Juan la Laguna	12	San Juan la Laguna	7	Julio	2023-07-18T00:00:00	2024-11-08T07:00:00	5	Humedad	62
66221	7	Sololá	717	San Juan la Laguna	12	San Juan la Laguna	7	Julio	2023-07-18T00:00:00	2024-11-08T07:00:00	6	Velocidad del viento	8
66222	7	Sololá	717	San Juan la Laguna	12	San Juan la Laguna	7	Julio	2023-07-18T00:00:00	2024-11-08T07:00:00	7	Dirección del viento	8.05
66223	7	Sololá	717	San Juan la Laguna	12	San Juan la Laguna	7	Julio	2023-07-18T00:00:00	2024-11-08T07:00:00	1	Precipitación	0
66224	7	Sololá	717	San Juan la Laguna	12	San Juan la Laguna	7	Julio	2023-07-18T00:00:00	2024-11-08T07:00:00	8	Radiación solar	95
66225	7	Sololá	717	San Juan la Laguna	12	San Juan la Laguna	7	Julio	2023-07-18T00:00:00	2024-11-08T08:00:00	2	Temperatura media	23.1
66226	7	Sololá	717	San Juan la Laguna	12	San Juan la Laguna	7	Julio	2023-07-18T00:00:00	2024-11-08T08:00:00	4	Temperatura máxima	23.1
66227	7	Sololá	717	San Juan la Laguna	12	San Juan la Laguna	7	Julio	2023-07-18T00:00:00	2024-11-08T08:00:00	3	Temperatura mínima	21.3
66228	7	Sololá	717	San Juan la Laguna	12	San Juan la Laguna	7	Julio	2023-07-18T00:00:00	2024-11-08T08:00:00	5	Humedad	52
66229	7	Sololá	717	San Juan la Laguna	12	San Juan la Laguna	7	Julio	2023-07-18T00:00:00	2024-11-08T08:00:00	6	Velocidad del viento	9.7
66230	7	Sololá	717	San Juan la Laguna	12	San Juan la Laguna	7	Julio	2023-07-18T00:00:00	2024-11-08T08:00:00	7	Dirección del viento	9.66
66231	7	Sololá	717	San Juan la Laguna	12	San Juan la Laguna	7	Julio	2023-07-18T00:00:00	2024-11-08T08:00:00	1	Precipitación	0
66232	7	Sololá	717	San Juan la Laguna	12	San Juan la Laguna	7	Julio	2023-07-18T00:00:00	2024-11-08T08:00:00	8	Radiación solar	293
66233	7	Sololá	717	San Juan la Laguna	12	San Juan la Laguna	7	Julio	2023-07-18T00:00:00	2024-11-08T09:00:00	2	Temperatura media	24.5
66234	7	Sololá	717	San Juan la Laguna	12	San Juan la Laguna	7	Julio	2023-07-18T00:00:00	2024-11-08T09:00:00	4	Temperatura máxima	24.5
66235	7	Sololá	717	San Juan la Laguna	12	San Juan la Laguna	7	Julio	2023-07-18T00:00:00	2024-11-08T09:00:00	3	Temperatura mínima	22.9
66236	7	Sololá	717	San Juan la Laguna	12	San Juan la Laguna	7	Julio	2023-07-18T00:00:00	2024-11-08T09:00:00	5	Humedad	51
66237	7	Sololá	717	San Juan la Laguna	12	San Juan la Laguna	7	Julio	2023-07-18T00:00:00	2024-11-08T09:00:00	6	Velocidad del viento	11.3
66238	7	Sololá	717	San Juan la Laguna	12	San Juan la Laguna	7	Julio	2023-07-18T00:00:00	2024-11-08T09:00:00	7	Dirección del viento	11.27
66239	7	Sololá	717	San Juan la Laguna	12	San Juan la Laguna	7	Julio	2023-07-18T00:00:00	2024-11-08T09:00:00	1	Precipitación	0
66240	7	Sololá	717	San Juan la Laguna	12	San Juan la Laguna	7	Julio	2023-07-18T00:00:00	2024-11-08T09:00:00	8	Radiación solar	502
66241	7	Sololá	717	San Juan la Laguna	12	San Juan la Laguna	7	Julio	2023-07-18T00:00:00	2024-11-08T10:00:00	2	Temperatura media	25.1
66242	7	Sololá	717	San Juan la Laguna	12	San Juan la Laguna	7	Julio	2023-07-18T00:00:00	2024-11-08T10:00:00	4	Temperatura máxima	25.1
66243	7	Sololá	717	San Juan la Laguna	12	San Juan la Laguna	7	Julio	2023-07-18T00:00:00	2024-11-08T10:00:00	3	Temperatura mínima	24.2
66244	7	Sololá	717	San Juan la Laguna	12	San Juan la Laguna	7	Julio	2023-07-18T00:00:00	2024-11-08T10:00:00	5	Humedad	45
66245	7	Sololá	717	San Juan la Laguna	12	San Juan la Laguna	7	Julio	2023-07-18T00:00:00	2024-11-08T10:00:00	6	Velocidad del viento	11.3
66246	7	Sololá	717	San Juan la Laguna	12	San Juan la Laguna	7	Julio	2023-07-18T00:00:00	2024-11-08T10:00:00	7	Dirección del viento	11.27
66247	7	Sololá	717	San Juan la Laguna	12	San Juan la Laguna	7	Julio	2023-07-18T00:00:00	2024-11-08T10:00:00	1	Precipitación	0
66248	7	Sololá	717	San Juan la Laguna	12	San Juan la Laguna	7	Julio	2023-07-18T00:00:00	2024-11-08T10:00:00	8	Radiación solar	696
66249	7	Sololá	717	San Juan la Laguna	12	San Juan la Laguna	7	Julio	2023-07-18T00:00:00	2024-11-08T11:00:00	2	Temperatura media	26.1
66250	7	Sololá	717	San Juan la Laguna	12	San Juan la Laguna	7	Julio	2023-07-18T00:00:00	2024-11-08T11:00:00	4	Temperatura máxima	26.2
66251	7	Sololá	717	San Juan la Laguna	12	San Juan la Laguna	7	Julio	2023-07-18T00:00:00	2024-11-08T11:00:00	3	Temperatura mínima	25.1
66252	7	Sololá	717	San Juan la Laguna	12	San Juan la Laguna	7	Julio	2023-07-18T00:00:00	2024-11-08T11:00:00	5	Humedad	45
66253	7	Sololá	717	San Juan la Laguna	12	San Juan la Laguna	7	Julio	2023-07-18T00:00:00	2024-11-08T11:00:00	6	Velocidad del viento	11.3
66254	7	Sololá	717	San Juan la Laguna	12	San Juan la Laguna	7	Julio	2023-07-18T00:00:00	2024-11-08T11:00:00	7	Dirección del viento	11.27
66255	7	Sololá	717	San Juan la Laguna	12	San Juan la Laguna	7	Julio	2023-07-18T00:00:00	2024-11-08T11:00:00	1	Precipitación	0
66256	7	Sololá	717	San Juan la Laguna	12	San Juan la Laguna	7	Julio	2023-07-18T00:00:00	2024-11-08T11:00:00	8	Radiación solar	828
66257	7	Sololá	717	San Juan la Laguna	12	San Juan la Laguna	7	Julio	2023-07-18T00:00:00	2024-11-08T12:00:00	2	Temperatura media	25.9
66258	7	Sololá	717	San Juan la Laguna	12	San Juan la Laguna	7	Julio	2023-07-18T00:00:00	2024-11-08T12:00:00	4	Temperatura máxima	26.4
66259	7	Sololá	717	San Juan la Laguna	12	San Juan la Laguna	7	Julio	2023-07-18T00:00:00	2024-11-08T12:00:00	3	Temperatura mínima	25.7
66260	7	Sololá	717	San Juan la Laguna	12	San Juan la Laguna	7	Julio	2023-07-18T00:00:00	2024-11-08T12:00:00	5	Humedad	41
66261	7	Sololá	717	San Juan la Laguna	12	San Juan la Laguna	7	Julio	2023-07-18T00:00:00	2024-11-08T12:00:00	6	Velocidad del viento	11.3
66262	7	Sololá	717	San Juan la Laguna	12	San Juan la Laguna	7	Julio	2023-07-18T00:00:00	2024-11-08T12:00:00	7	Dirección del viento	11.27
66263	7	Sololá	717	San Juan la Laguna	12	San Juan la Laguna	7	Julio	2023-07-18T00:00:00	2024-11-08T12:00:00	1	Precipitación	0
66264	7	Sololá	717	San Juan la Laguna	12	San Juan la Laguna	7	Julio	2023-07-18T00:00:00	2024-11-08T12:00:00	8	Radiación solar	938
66265	7	Sololá	717	San Juan la Laguna	12	San Juan la Laguna	7	Julio	2023-07-18T00:00:00	2024-11-08T13:00:00	2	Temperatura media	26.1
66266	7	Sololá	717	San Juan la Laguna	12	San Juan la Laguna	7	Julio	2023-07-18T00:00:00	2024-11-08T13:00:00	4	Temperatura máxima	26.8
66267	7	Sololá	717	San Juan la Laguna	12	San Juan la Laguna	7	Julio	2023-07-18T00:00:00	2024-11-08T13:00:00	3	Temperatura mínima	25.9
66268	7	Sololá	717	San Juan la Laguna	12	San Juan la Laguna	7	Julio	2023-07-18T00:00:00	2024-11-08T13:00:00	5	Humedad	39
66269	7	Sololá	717	San Juan la Laguna	12	San Juan la Laguna	7	Julio	2023-07-18T00:00:00	2024-11-08T13:00:00	6	Velocidad del viento	9.7
66270	7	Sololá	717	San Juan la Laguna	12	San Juan la Laguna	7	Julio	2023-07-18T00:00:00	2024-11-08T13:00:00	7	Dirección del viento	9.66
66271	7	Sololá	717	San Juan la Laguna	12	San Juan la Laguna	7	Julio	2023-07-18T00:00:00	2024-11-08T13:00:00	1	Precipitación	0
66272	7	Sololá	717	San Juan la Laguna	12	San Juan la Laguna	7	Julio	2023-07-18T00:00:00	2024-11-08T13:00:00	8	Radiación solar	1002
66273	7	Sololá	717	San Juan la Laguna	12	San Juan la Laguna	7	Julio	2023-07-18T00:00:00	2024-11-08T14:00:00	2	Temperatura media	27.3
66274	7	Sololá	717	San Juan la Laguna	12	San Juan la Laguna	7	Julio	2023-07-18T00:00:00	2024-11-08T14:00:00	4	Temperatura máxima	27.3
66275	7	Sololá	717	San Juan la Laguna	12	San Juan la Laguna	7	Julio	2023-07-18T00:00:00	2024-11-08T14:00:00	3	Temperatura mínima	26.1
66276	7	Sololá	717	San Juan la Laguna	12	San Juan la Laguna	7	Julio	2023-07-18T00:00:00	2024-11-08T14:00:00	5	Humedad	37
66277	7	Sololá	717	San Juan la Laguna	12	San Juan la Laguna	7	Julio	2023-07-18T00:00:00	2024-11-08T14:00:00	6	Velocidad del viento	11.3
66278	7	Sololá	717	San Juan la Laguna	12	San Juan la Laguna	7	Julio	2023-07-18T00:00:00	2024-11-08T14:00:00	7	Dirección del viento	11.27
66279	7	Sololá	717	San Juan la Laguna	12	San Juan la Laguna	7	Julio	2023-07-18T00:00:00	2024-11-08T14:00:00	1	Precipitación	0
66280	7	Sololá	717	San Juan la Laguna	12	San Juan la Laguna	7	Julio	2023-07-18T00:00:00	2024-11-08T14:00:00	8	Radiación solar	905
66281	7	Sololá	717	San Juan la Laguna	12	San Juan la Laguna	7	Julio	2023-07-18T00:00:00	2024-11-08T15:00:00	2	Temperatura media	27.1
66282	7	Sololá	717	San Juan la Laguna	12	San Juan la Laguna	7	Julio	2023-07-18T00:00:00	2024-11-08T15:00:00	4	Temperatura máxima	27.6
66283	7	Sololá	717	San Juan la Laguna	12	San Juan la Laguna	7	Julio	2023-07-18T00:00:00	2024-11-08T15:00:00	3	Temperatura mínima	26.8
66284	7	Sololá	717	San Juan la Laguna	12	San Juan la Laguna	7	Julio	2023-07-18T00:00:00	2024-11-08T15:00:00	5	Humedad	34
66285	7	Sololá	717	San Juan la Laguna	12	San Juan la Laguna	7	Julio	2023-07-18T00:00:00	2024-11-08T15:00:00	6	Velocidad del viento	9.7
66286	7	Sololá	717	San Juan la Laguna	12	San Juan la Laguna	7	Julio	2023-07-18T00:00:00	2024-11-08T15:00:00	7	Dirección del viento	9.66
66287	7	Sololá	717	San Juan la Laguna	12	San Juan la Laguna	7	Julio	2023-07-18T00:00:00	2024-11-08T15:00:00	1	Precipitación	0
66288	7	Sololá	717	San Juan la Laguna	12	San Juan la Laguna	7	Julio	2023-07-18T00:00:00	2024-11-08T15:00:00	8	Radiación solar	847
66289	7	Sololá	717	San Juan la Laguna	12	San Juan la Laguna	7	Julio	2023-07-18T00:00:00	2024-11-08T16:00:00	2	Temperatura media	24.8
66290	7	Sololá	717	San Juan la Laguna	12	San Juan la Laguna	7	Julio	2023-07-18T00:00:00	2024-11-08T16:00:00	4	Temperatura máxima	27.1
66291	7	Sololá	717	San Juan la Laguna	12	San Juan la Laguna	7	Julio	2023-07-18T00:00:00	2024-11-08T16:00:00	3	Temperatura mínima	24.8
66292	7	Sololá	717	San Juan la Laguna	12	San Juan la Laguna	7	Julio	2023-07-18T00:00:00	2024-11-08T16:00:00	5	Humedad	34
66293	7	Sololá	717	San Juan la Laguna	12	San Juan la Laguna	7	Julio	2023-07-18T00:00:00	2024-11-08T16:00:00	6	Velocidad del viento	9.7
66294	7	Sololá	717	San Juan la Laguna	12	San Juan la Laguna	7	Julio	2023-07-18T00:00:00	2024-11-08T16:00:00	7	Dirección del viento	9.66
66295	7	Sololá	717	San Juan la Laguna	12	San Juan la Laguna	7	Julio	2023-07-18T00:00:00	2024-11-08T16:00:00	1	Precipitación	0
66296	7	Sololá	717	San Juan la Laguna	12	San Juan la Laguna	7	Julio	2023-07-18T00:00:00	2024-11-08T16:00:00	8	Radiación solar	515
66297	7	Sololá	717	San Juan la Laguna	12	San Juan la Laguna	7	Julio	2023-07-18T00:00:00	2024-11-08T17:00:00	2	Temperatura media	24.4
66298	7	Sololá	717	San Juan la Laguna	12	San Juan la Laguna	7	Julio	2023-07-18T00:00:00	2024-11-08T17:00:00	4	Temperatura máxima	24.8
66299	7	Sololá	717	San Juan la Laguna	12	San Juan la Laguna	7	Julio	2023-07-18T00:00:00	2024-11-08T17:00:00	3	Temperatura mínima	24.4
66300	7	Sololá	717	San Juan la Laguna	12	San Juan la Laguna	7	Julio	2023-07-18T00:00:00	2024-11-08T17:00:00	5	Humedad	42
66301	7	Sololá	717	San Juan la Laguna	12	San Juan la Laguna	7	Julio	2023-07-18T00:00:00	2024-11-08T17:00:00	6	Velocidad del viento	9.7
66302	7	Sololá	717	San Juan la Laguna	12	San Juan la Laguna	7	Julio	2023-07-18T00:00:00	2024-11-08T17:00:00	7	Dirección del viento	9.66
66303	7	Sololá	717	San Juan la Laguna	12	San Juan la Laguna	7	Julio	2023-07-18T00:00:00	2024-11-08T17:00:00	1	Precipitación	0
66304	7	Sololá	717	San Juan la Laguna	12	San Juan la Laguna	7	Julio	2023-07-18T00:00:00	2024-11-08T17:00:00	8	Radiación solar	184
66305	7	Sololá	717	San Juan la Laguna	12	San Juan la Laguna	7	Julio	2023-07-18T00:00:00	2024-11-08T18:00:00	2	Temperatura media	23.9
66306	7	Sololá	717	San Juan la Laguna	12	San Juan la Laguna	7	Julio	2023-07-18T00:00:00	2024-11-08T18:00:00	4	Temperatura máxima	24.8
66307	7	Sololá	717	San Juan la Laguna	12	San Juan la Laguna	7	Julio	2023-07-18T00:00:00	2024-11-08T18:00:00	3	Temperatura mínima	23.9
66308	7	Sololá	717	San Juan la Laguna	12	San Juan la Laguna	7	Julio	2023-07-18T00:00:00	2024-11-08T18:00:00	5	Humedad	47
66309	7	Sololá	717	San Juan la Laguna	12	San Juan la Laguna	7	Julio	2023-07-18T00:00:00	2024-11-08T18:00:00	6	Velocidad del viento	11.3
66310	7	Sololá	717	San Juan la Laguna	12	San Juan la Laguna	7	Julio	2023-07-18T00:00:00	2024-11-08T18:00:00	7	Dirección del viento	11.27
66311	7	Sololá	717	San Juan la Laguna	12	San Juan la Laguna	7	Julio	2023-07-18T00:00:00	2024-11-08T18:00:00	1	Precipitación	0
66312	7	Sololá	717	San Juan la Laguna	12	San Juan la Laguna	7	Julio	2023-07-18T00:00:00	2024-11-08T18:00:00	8	Radiación solar	152
66313	7	Sololá	717	San Juan la Laguna	12	San Juan la Laguna	7	Julio	2023-07-18T00:00:00	2024-11-08T19:00:00	2	Temperatura media	22.8
66314	7	Sololá	717	San Juan la Laguna	12	San Juan la Laguna	7	Julio	2023-07-18T00:00:00	2024-11-08T19:00:00	4	Temperatura máxima	23.9
66315	7	Sololá	717	San Juan la Laguna	12	San Juan la Laguna	7	Julio	2023-07-18T00:00:00	2024-11-08T19:00:00	3	Temperatura mínima	22.8
66316	7	Sololá	717	San Juan la Laguna	12	San Juan la Laguna	7	Julio	2023-07-18T00:00:00	2024-11-08T19:00:00	5	Humedad	56
66317	7	Sololá	717	San Juan la Laguna	12	San Juan la Laguna	7	Julio	2023-07-18T00:00:00	2024-11-08T19:00:00	6	Velocidad del viento	8
66318	7	Sololá	717	San Juan la Laguna	12	San Juan la Laguna	7	Julio	2023-07-18T00:00:00	2024-11-08T19:00:00	7	Dirección del viento	8.05
66319	7	Sololá	717	San Juan la Laguna	12	San Juan la Laguna	7	Julio	2023-07-18T00:00:00	2024-11-08T19:00:00	1	Precipitación	0
66320	7	Sololá	717	San Juan la Laguna	12	San Juan la Laguna	7	Julio	2023-07-18T00:00:00	2024-11-08T19:00:00	8	Radiación solar	0
66321	7	Sololá	717	San Juan la Laguna	12	San Juan la Laguna	7	Julio	2023-07-18T00:00:00	2024-11-08T20:00:00	2	Temperatura media	22.2
66322	7	Sololá	717	San Juan la Laguna	12	San Juan la Laguna	7	Julio	2023-07-18T00:00:00	2024-11-08T20:00:00	4	Temperatura máxima	22.8
66323	7	Sololá	717	San Juan la Laguna	12	San Juan la Laguna	7	Julio	2023-07-18T00:00:00	2024-11-08T20:00:00	3	Temperatura mínima	22.1
66324	7	Sololá	717	San Juan la Laguna	12	San Juan la Laguna	7	Julio	2023-07-18T00:00:00	2024-11-08T20:00:00	5	Humedad	56
66325	7	Sololá	717	San Juan la Laguna	12	San Juan la Laguna	7	Julio	2023-07-18T00:00:00	2024-11-08T20:00:00	6	Velocidad del viento	4.8
66326	7	Sololá	717	San Juan la Laguna	12	San Juan la Laguna	7	Julio	2023-07-18T00:00:00	2024-11-08T20:00:00	7	Dirección del viento	4.83
66327	7	Sololá	717	San Juan la Laguna	12	San Juan la Laguna	7	Julio	2023-07-18T00:00:00	2024-11-08T20:00:00	1	Precipitación	0
66328	7	Sololá	717	San Juan la Laguna	12	San Juan la Laguna	7	Julio	2023-07-18T00:00:00	2024-11-08T20:00:00	8	Radiación solar	0
66329	7	Sololá	717	San Juan la Laguna	12	San Juan la Laguna	7	Julio	2023-07-18T00:00:00	2024-11-08T21:00:00	2	Temperatura media	21.4
66330	7	Sololá	717	San Juan la Laguna	12	San Juan la Laguna	7	Julio	2023-07-18T00:00:00	2024-11-08T21:00:00	4	Temperatura máxima	22.1
66331	7	Sololá	717	San Juan la Laguna	12	San Juan la Laguna	7	Julio	2023-07-18T00:00:00	2024-11-08T21:00:00	3	Temperatura mínima	21.4
66332	7	Sololá	717	San Juan la Laguna	12	San Juan la Laguna	7	Julio	2023-07-18T00:00:00	2024-11-08T21:00:00	5	Humedad	59
66333	7	Sololá	717	San Juan la Laguna	12	San Juan la Laguna	7	Julio	2023-07-18T00:00:00	2024-11-08T21:00:00	6	Velocidad del viento	8
66334	7	Sololá	717	San Juan la Laguna	12	San Juan la Laguna	7	Julio	2023-07-18T00:00:00	2024-11-08T21:00:00	7	Dirección del viento	8.05
66335	7	Sololá	717	San Juan la Laguna	12	San Juan la Laguna	7	Julio	2023-07-18T00:00:00	2024-11-08T21:00:00	1	Precipitación	0
66336	7	Sololá	717	San Juan la Laguna	12	San Juan la Laguna	7	Julio	2023-07-18T00:00:00	2024-11-08T21:00:00	8	Radiación solar	0
66337	7	Sololá	717	San Juan la Laguna	12	San Juan la Laguna	7	Julio	2023-07-18T00:00:00	2024-11-08T22:00:00	2	Temperatura media	21.4
66338	7	Sololá	717	San Juan la Laguna	12	San Juan la Laguna	7	Julio	2023-07-18T00:00:00	2024-11-08T22:00:00	4	Temperatura máxima	21.5
66339	7	Sololá	717	San Juan la Laguna	12	San Juan la Laguna	7	Julio	2023-07-18T00:00:00	2024-11-08T22:00:00	3	Temperatura mínima	21.2
66340	7	Sololá	717	San Juan la Laguna	12	San Juan la Laguna	7	Julio	2023-07-18T00:00:00	2024-11-08T22:00:00	5	Humedad	53
66341	7	Sololá	717	San Juan la Laguna	12	San Juan la Laguna	7	Julio	2023-07-18T00:00:00	2024-11-08T22:00:00	6	Velocidad del viento	9.7
66342	7	Sololá	717	San Juan la Laguna	12	San Juan la Laguna	7	Julio	2023-07-18T00:00:00	2024-11-08T22:00:00	7	Dirección del viento	9.66
66343	7	Sololá	717	San Juan la Laguna	12	San Juan la Laguna	7	Julio	2023-07-18T00:00:00	2024-11-08T22:00:00	1	Precipitación	0
66344	7	Sololá	717	San Juan la Laguna	12	San Juan la Laguna	7	Julio	2023-07-18T00:00:00	2024-11-08T22:00:00	8	Radiación solar	0
66345	7	Sololá	717	San Juan la Laguna	12	San Juan la Laguna	7	Julio	2023-07-18T00:00:00	2024-11-08T23:00:00	2	Temperatura media	20.9
66346	7	Sololá	717	San Juan la Laguna	12	San Juan la Laguna	7	Julio	2023-07-18T00:00:00	2024-11-08T23:00:00	4	Temperatura máxima	21.5
66347	7	Sololá	717	San Juan la Laguna	12	San Juan la Laguna	7	Julio	2023-07-18T00:00:00	2024-11-08T23:00:00	3	Temperatura mínima	20.8
66348	7	Sololá	717	San Juan la Laguna	12	San Juan la Laguna	7	Julio	2023-07-18T00:00:00	2024-11-08T23:00:00	5	Humedad	56
66349	7	Sololá	717	San Juan la Laguna	12	San Juan la Laguna	7	Julio	2023-07-18T00:00:00	2024-11-08T23:00:00	6	Velocidad del viento	9.7
66350	7	Sololá	717	San Juan la Laguna	12	San Juan la Laguna	7	Julio	2023-07-18T00:00:00	2024-11-08T23:00:00	7	Dirección del viento	9.66
66351	7	Sololá	717	San Juan la Laguna	12	San Juan la Laguna	7	Julio	2023-07-18T00:00:00	2024-11-08T23:00:00	1	Precipitación	0
66352	7	Sololá	717	San Juan la Laguna	12	San Juan la Laguna	7	Julio	2023-07-18T00:00:00	2024-11-08T23:00:00	8	Radiación solar	0
66353	7	Sololá	717	San Juan la Laguna	12	San Juan la Laguna	7	Julio	2023-07-19T00:00:00	2024-11-08T00:00:00	2	Temperatura media	20.6
66354	7	Sololá	717	San Juan la Laguna	12	San Juan la Laguna	7	Julio	2023-07-19T00:00:00	2024-11-08T00:00:00	4	Temperatura máxima	20.9
66355	7	Sololá	717	San Juan la Laguna	12	San Juan la Laguna	7	Julio	2023-07-19T00:00:00	2024-11-08T00:00:00	3	Temperatura mínima	20.3
66356	7	Sololá	717	San Juan la Laguna	12	San Juan la Laguna	7	Julio	2023-07-19T00:00:00	2024-11-08T00:00:00	5	Humedad	60
66357	7	Sololá	717	San Juan la Laguna	12	San Juan la Laguna	7	Julio	2023-07-19T00:00:00	2024-11-08T00:00:00	6	Velocidad del viento	11.3
66358	7	Sololá	717	San Juan la Laguna	12	San Juan la Laguna	7	Julio	2023-07-19T00:00:00	2024-11-08T00:00:00	7	Dirección del viento	11.27
66359	7	Sololá	717	San Juan la Laguna	12	San Juan la Laguna	7	Julio	2023-07-19T00:00:00	2024-11-08T00:00:00	1	Precipitación	0
66360	7	Sololá	717	San Juan la Laguna	12	San Juan la Laguna	7	Julio	2023-07-19T00:00:00	2024-11-08T00:00:00	8	Radiación solar	0
66361	7	Sololá	717	San Juan la Laguna	12	San Juan la Laguna	7	Julio	2023-07-19T00:00:00	2024-11-08T01:00:00	2	Temperatura media	20.4
66362	7	Sololá	717	San Juan la Laguna	12	San Juan la Laguna	7	Julio	2023-07-19T00:00:00	2024-11-08T01:00:00	4	Temperatura máxima	20.6
66363	7	Sololá	717	San Juan la Laguna	12	San Juan la Laguna	7	Julio	2023-07-19T00:00:00	2024-11-08T01:00:00	3	Temperatura mínima	20.1
66364	7	Sololá	717	San Juan la Laguna	12	San Juan la Laguna	7	Julio	2023-07-19T00:00:00	2024-11-08T01:00:00	5	Humedad	61
66365	7	Sololá	717	San Juan la Laguna	12	San Juan la Laguna	7	Julio	2023-07-19T00:00:00	2024-11-08T01:00:00	6	Velocidad del viento	9.7
66366	7	Sololá	717	San Juan la Laguna	12	San Juan la Laguna	7	Julio	2023-07-19T00:00:00	2024-11-08T01:00:00	7	Dirección del viento	9.66
66367	7	Sololá	717	San Juan la Laguna	12	San Juan la Laguna	7	Julio	2023-07-19T00:00:00	2024-11-08T01:00:00	1	Precipitación	0
66368	7	Sololá	717	San Juan la Laguna	12	San Juan la Laguna	7	Julio	2023-07-19T00:00:00	2024-11-08T01:00:00	8	Radiación solar	0
66369	7	Sololá	717	San Juan la Laguna	12	San Juan la Laguna	7	Julio	2023-07-19T00:00:00	2024-11-08T02:00:00	2	Temperatura media	19.7
66370	7	Sololá	717	San Juan la Laguna	12	San Juan la Laguna	7	Julio	2023-07-19T00:00:00	2024-11-08T02:00:00	4	Temperatura máxima	20.4
66371	7	Sololá	717	San Juan la Laguna	12	San Juan la Laguna	7	Julio	2023-07-19T00:00:00	2024-11-08T02:00:00	3	Temperatura mínima	19.7
66372	7	Sololá	717	San Juan la Laguna	12	San Juan la Laguna	7	Julio	2023-07-19T00:00:00	2024-11-08T02:00:00	5	Humedad	63
66373	7	Sololá	717	San Juan la Laguna	12	San Juan la Laguna	7	Julio	2023-07-19T00:00:00	2024-11-08T02:00:00	6	Velocidad del viento	11.3
66374	7	Sololá	717	San Juan la Laguna	12	San Juan la Laguna	7	Julio	2023-07-19T00:00:00	2024-11-08T02:00:00	7	Dirección del viento	11.27
66375	7	Sololá	717	San Juan la Laguna	12	San Juan la Laguna	7	Julio	2023-07-19T00:00:00	2024-11-08T02:00:00	1	Precipitación	0
66376	7	Sololá	717	San Juan la Laguna	12	San Juan la Laguna	7	Julio	2023-07-19T00:00:00	2024-11-08T02:00:00	8	Radiación solar	0
66377	7	Sololá	717	San Juan la Laguna	12	San Juan la Laguna	7	Julio	2023-07-19T00:00:00	2024-11-08T03:00:00	2	Temperatura media	20.2
66378	7	Sololá	717	San Juan la Laguna	12	San Juan la Laguna	7	Julio	2023-07-19T00:00:00	2024-11-08T03:00:00	4	Temperatura máxima	20.2
66379	7	Sololá	717	San Juan la Laguna	12	San Juan la Laguna	7	Julio	2023-07-19T00:00:00	2024-11-08T03:00:00	3	Temperatura mínima	19.7
66380	7	Sololá	717	San Juan la Laguna	12	San Juan la Laguna	7	Julio	2023-07-19T00:00:00	2024-11-08T03:00:00	5	Humedad	47
66381	7	Sololá	717	San Juan la Laguna	12	San Juan la Laguna	7	Julio	2023-07-19T00:00:00	2024-11-08T03:00:00	6	Velocidad del viento	11.3
66382	7	Sololá	717	San Juan la Laguna	12	San Juan la Laguna	7	Julio	2023-07-19T00:00:00	2024-11-08T03:00:00	7	Dirección del viento	11.27
66383	7	Sololá	717	San Juan la Laguna	12	San Juan la Laguna	7	Julio	2023-07-19T00:00:00	2024-11-08T03:00:00	1	Precipitación	0
66384	7	Sololá	717	San Juan la Laguna	12	San Juan la Laguna	7	Julio	2023-07-19T00:00:00	2024-11-08T03:00:00	8	Radiación solar	0
66385	7	Sololá	717	San Juan la Laguna	12	San Juan la Laguna	7	Julio	2023-07-19T00:00:00	2024-11-08T04:00:00	2	Temperatura media	20.5
66386	7	Sololá	717	San Juan la Laguna	12	San Juan la Laguna	7	Julio	2023-07-19T00:00:00	2024-11-08T04:00:00	4	Temperatura máxima	20.7
66387	7	Sololá	717	San Juan la Laguna	12	San Juan la Laguna	7	Julio	2023-07-19T00:00:00	2024-11-08T04:00:00	3	Temperatura mínima	20.2
66388	7	Sololá	717	San Juan la Laguna	12	San Juan la Laguna	7	Julio	2023-07-19T00:00:00	2024-11-08T04:00:00	5	Humedad	40
66389	7	Sololá	717	San Juan la Laguna	12	San Juan la Laguna	7	Julio	2023-07-19T00:00:00	2024-11-08T04:00:00	6	Velocidad del viento	16.1
66390	7	Sololá	717	San Juan la Laguna	12	San Juan la Laguna	7	Julio	2023-07-19T00:00:00	2024-11-08T04:00:00	7	Dirección del viento	16.09
66391	7	Sololá	717	San Juan la Laguna	12	San Juan la Laguna	7	Julio	2023-07-19T00:00:00	2024-11-08T04:00:00	1	Precipitación	0
66392	7	Sololá	717	San Juan la Laguna	12	San Juan la Laguna	7	Julio	2023-07-19T00:00:00	2024-11-08T04:00:00	8	Radiación solar	0
66393	7	Sololá	717	San Juan la Laguna	12	San Juan la Laguna	7	Julio	2023-07-19T00:00:00	2024-11-08T05:00:00	2	Temperatura media	19.8
66394	7	Sololá	717	San Juan la Laguna	12	San Juan la Laguna	7	Julio	2023-07-19T00:00:00	2024-11-08T05:00:00	4	Temperatura máxima	20.6
66395	7	Sololá	717	San Juan la Laguna	12	San Juan la Laguna	7	Julio	2023-07-19T00:00:00	2024-11-08T05:00:00	3	Temperatura mínima	19.8
66396	7	Sololá	717	San Juan la Laguna	12	San Juan la Laguna	7	Julio	2023-07-19T00:00:00	2024-11-08T05:00:00	5	Humedad	49
66397	7	Sololá	717	San Juan la Laguna	12	San Juan la Laguna	7	Julio	2023-07-19T00:00:00	2024-11-08T05:00:00	6	Velocidad del viento	16.1
66398	7	Sololá	717	San Juan la Laguna	12	San Juan la Laguna	7	Julio	2023-07-19T00:00:00	2024-11-08T05:00:00	7	Dirección del viento	16.09
66399	7	Sololá	717	San Juan la Laguna	12	San Juan la Laguna	7	Julio	2023-07-19T00:00:00	2024-11-08T05:00:00	1	Precipitación	0
66400	7	Sololá	717	San Juan la Laguna	12	San Juan la Laguna	7	Julio	2023-07-19T00:00:00	2024-11-08T05:00:00	8	Radiación solar	0
66401	7	Sololá	717	San Juan la Laguna	12	San Juan la Laguna	7	Julio	2023-07-19T00:00:00	2024-11-08T06:00:00	2	Temperatura media	19.9
66402	7	Sololá	717	San Juan la Laguna	12	San Juan la Laguna	7	Julio	2023-07-19T00:00:00	2024-11-08T06:00:00	4	Temperatura máxima	20.2
66403	7	Sololá	717	San Juan la Laguna	12	San Juan la Laguna	7	Julio	2023-07-19T00:00:00	2024-11-08T06:00:00	3	Temperatura mínima	19.8
66404	7	Sololá	717	San Juan la Laguna	12	San Juan la Laguna	7	Julio	2023-07-19T00:00:00	2024-11-08T06:00:00	5	Humedad	53
66405	7	Sololá	717	San Juan la Laguna	12	San Juan la Laguna	7	Julio	2023-07-19T00:00:00	2024-11-08T06:00:00	6	Velocidad del viento	12.9
66406	7	Sololá	717	San Juan la Laguna	12	San Juan la Laguna	7	Julio	2023-07-19T00:00:00	2024-11-08T06:00:00	7	Dirección del viento	12.87
66407	7	Sololá	717	San Juan la Laguna	12	San Juan la Laguna	7	Julio	2023-07-19T00:00:00	2024-11-08T06:00:00	1	Precipitación	0
66408	7	Sololá	717	San Juan la Laguna	12	San Juan la Laguna	7	Julio	2023-07-19T00:00:00	2024-11-08T06:00:00	8	Radiación solar	1
66409	7	Sololá	717	San Juan la Laguna	12	San Juan la Laguna	7	Julio	2023-07-19T00:00:00	2024-11-08T07:00:00	2	Temperatura media	19.9
66410	7	Sololá	717	San Juan la Laguna	12	San Juan la Laguna	7	Julio	2023-07-19T00:00:00	2024-11-08T07:00:00	4	Temperatura máxima	20.1
66411	7	Sololá	717	San Juan la Laguna	12	San Juan la Laguna	7	Julio	2023-07-19T00:00:00	2024-11-08T07:00:00	3	Temperatura mínima	19.7
66412	7	Sololá	717	San Juan la Laguna	12	San Juan la Laguna	7	Julio	2023-07-19T00:00:00	2024-11-08T07:00:00	5	Humedad	62
66413	7	Sololá	717	San Juan la Laguna	12	San Juan la Laguna	7	Julio	2023-07-19T00:00:00	2024-11-08T07:00:00	6	Velocidad del viento	17.7
66414	7	Sololá	717	San Juan la Laguna	12	San Juan la Laguna	7	Julio	2023-07-19T00:00:00	2024-11-08T07:00:00	7	Dirección del viento	17.7
66415	7	Sololá	717	San Juan la Laguna	12	San Juan la Laguna	7	Julio	2023-07-19T00:00:00	2024-11-08T07:00:00	1	Precipitación	0
66416	7	Sololá	717	San Juan la Laguna	12	San Juan la Laguna	7	Julio	2023-07-19T00:00:00	2024-11-08T07:00:00	8	Radiación solar	58
66417	7	Sololá	717	San Juan la Laguna	12	San Juan la Laguna	7	Julio	2023-07-19T00:00:00	2024-11-08T08:00:00	2	Temperatura media	20.5
66418	7	Sololá	717	San Juan la Laguna	12	San Juan la Laguna	7	Julio	2023-07-19T00:00:00	2024-11-08T08:00:00	4	Temperatura máxima	20.7
66419	7	Sololá	717	San Juan la Laguna	12	San Juan la Laguna	7	Julio	2023-07-19T00:00:00	2024-11-08T08:00:00	3	Temperatura mínima	19.9
66420	7	Sololá	717	San Juan la Laguna	12	San Juan la Laguna	7	Julio	2023-07-19T00:00:00	2024-11-08T08:00:00	5	Humedad	64
66421	7	Sololá	717	San Juan la Laguna	12	San Juan la Laguna	7	Julio	2023-07-19T00:00:00	2024-11-08T08:00:00	6	Velocidad del viento	12.9
66422	7	Sololá	717	San Juan la Laguna	12	San Juan la Laguna	7	Julio	2023-07-19T00:00:00	2024-11-08T08:00:00	7	Dirección del viento	12.87
66423	7	Sololá	717	San Juan la Laguna	12	San Juan la Laguna	7	Julio	2023-07-19T00:00:00	2024-11-08T08:00:00	1	Precipitación	0
66424	7	Sololá	717	San Juan la Laguna	12	San Juan la Laguna	7	Julio	2023-07-19T00:00:00	2024-11-08T08:00:00	8	Radiación solar	136
66425	7	Sololá	717	San Juan la Laguna	12	San Juan la Laguna	7	Julio	2023-07-19T00:00:00	2024-11-08T09:00:00	2	Temperatura media	21.8
66426	7	Sololá	717	San Juan la Laguna	12	San Juan la Laguna	7	Julio	2023-07-19T00:00:00	2024-11-08T09:00:00	4	Temperatura máxima	21.8
66427	7	Sololá	717	San Juan la Laguna	12	San Juan la Laguna	7	Julio	2023-07-19T00:00:00	2024-11-08T09:00:00	3	Temperatura mínima	20.4
66428	7	Sololá	717	San Juan la Laguna	12	San Juan la Laguna	7	Julio	2023-07-19T00:00:00	2024-11-08T09:00:00	5	Humedad	59
66429	7	Sololá	717	San Juan la Laguna	12	San Juan la Laguna	7	Julio	2023-07-19T00:00:00	2024-11-08T09:00:00	6	Velocidad del viento	16.1
66430	7	Sololá	717	San Juan la Laguna	12	San Juan la Laguna	7	Julio	2023-07-19T00:00:00	2024-11-08T09:00:00	7	Dirección del viento	16.09
66431	7	Sololá	717	San Juan la Laguna	12	San Juan la Laguna	7	Julio	2023-07-19T00:00:00	2024-11-08T09:00:00	1	Precipitación	0
66432	7	Sololá	717	San Juan la Laguna	12	San Juan la Laguna	7	Julio	2023-07-19T00:00:00	2024-11-08T09:00:00	8	Radiación solar	241
66433	7	Sololá	717	San Juan la Laguna	12	San Juan la Laguna	7	Julio	2023-07-19T00:00:00	2024-11-08T10:00:00	2	Temperatura media	23.7
66434	7	Sololá	717	San Juan la Laguna	12	San Juan la Laguna	7	Julio	2023-07-19T00:00:00	2024-11-08T10:00:00	4	Temperatura máxima	23.7
66435	7	Sololá	717	San Juan la Laguna	12	San Juan la Laguna	7	Julio	2023-07-19T00:00:00	2024-11-08T10:00:00	3	Temperatura mínima	21.8
66436	7	Sololá	717	San Juan la Laguna	12	San Juan la Laguna	7	Julio	2023-07-19T00:00:00	2024-11-08T10:00:00	5	Humedad	52
66437	7	Sololá	717	San Juan la Laguna	12	San Juan la Laguna	7	Julio	2023-07-19T00:00:00	2024-11-08T10:00:00	6	Velocidad del viento	16.1
66438	7	Sololá	717	San Juan la Laguna	12	San Juan la Laguna	7	Julio	2023-07-19T00:00:00	2024-11-08T10:00:00	7	Dirección del viento	16.09
66439	7	Sololá	717	San Juan la Laguna	12	San Juan la Laguna	7	Julio	2023-07-19T00:00:00	2024-11-08T10:00:00	1	Precipitación	0
66440	7	Sololá	717	San Juan la Laguna	12	San Juan la Laguna	7	Julio	2023-07-19T00:00:00	2024-11-08T10:00:00	8	Radiación solar	673
66441	7	Sololá	717	San Juan la Laguna	12	San Juan la Laguna	7	Julio	2023-07-19T00:00:00	2024-11-08T11:00:00	2	Temperatura media	24.7
66442	7	Sololá	717	San Juan la Laguna	12	San Juan la Laguna	7	Julio	2023-07-19T00:00:00	2024-11-08T11:00:00	4	Temperatura máxima	24.9
66443	7	Sololá	717	San Juan la Laguna	12	San Juan la Laguna	7	Julio	2023-07-19T00:00:00	2024-11-08T11:00:00	3	Temperatura mínima	23.6
66444	7	Sololá	717	San Juan la Laguna	12	San Juan la Laguna	7	Julio	2023-07-19T00:00:00	2024-11-08T11:00:00	5	Humedad	49
66445	7	Sololá	717	San Juan la Laguna	12	San Juan la Laguna	7	Julio	2023-07-19T00:00:00	2024-11-08T11:00:00	6	Velocidad del viento	16.1
66446	7	Sololá	717	San Juan la Laguna	12	San Juan la Laguna	7	Julio	2023-07-19T00:00:00	2024-11-08T11:00:00	7	Dirección del viento	16.09
66447	7	Sololá	717	San Juan la Laguna	12	San Juan la Laguna	7	Julio	2023-07-19T00:00:00	2024-11-08T11:00:00	1	Precipitación	0
66448	7	Sololá	717	San Juan la Laguna	12	San Juan la Laguna	7	Julio	2023-07-19T00:00:00	2024-11-08T11:00:00	8	Radiación solar	833
66449	7	Sololá	717	San Juan la Laguna	12	San Juan la Laguna	7	Julio	2023-07-19T00:00:00	2024-11-08T12:00:00	2	Temperatura media	26.7
66450	7	Sololá	717	San Juan la Laguna	12	San Juan la Laguna	7	Julio	2023-07-19T00:00:00	2024-11-08T12:00:00	4	Temperatura máxima	26.7
66451	7	Sololá	717	San Juan la Laguna	12	San Juan la Laguna	7	Julio	2023-07-19T00:00:00	2024-11-08T12:00:00	3	Temperatura mínima	24.7
66452	7	Sololá	717	San Juan la Laguna	12	San Juan la Laguna	7	Julio	2023-07-19T00:00:00	2024-11-08T12:00:00	5	Humedad	46
66453	7	Sololá	717	San Juan la Laguna	12	San Juan la Laguna	7	Julio	2023-07-19T00:00:00	2024-11-08T12:00:00	6	Velocidad del viento	11.3
66454	7	Sololá	717	San Juan la Laguna	12	San Juan la Laguna	7	Julio	2023-07-19T00:00:00	2024-11-08T12:00:00	7	Dirección del viento	11.27
66455	7	Sololá	717	San Juan la Laguna	12	San Juan la Laguna	7	Julio	2023-07-19T00:00:00	2024-11-08T12:00:00	1	Precipitación	0
66456	7	Sololá	717	San Juan la Laguna	12	San Juan la Laguna	7	Julio	2023-07-19T00:00:00	2024-11-08T12:00:00	8	Radiación solar	912
66457	7	Sololá	717	San Juan la Laguna	12	San Juan la Laguna	7	Julio	2023-07-19T00:00:00	2024-11-08T13:00:00	2	Temperatura media	27.1
66458	7	Sololá	717	San Juan la Laguna	12	San Juan la Laguna	7	Julio	2023-07-19T00:00:00	2024-11-08T13:00:00	4	Temperatura máxima	27.3
66459	7	Sololá	717	San Juan la Laguna	12	San Juan la Laguna	7	Julio	2023-07-19T00:00:00	2024-11-08T13:00:00	3	Temperatura mínima	26.3
66460	7	Sololá	717	San Juan la Laguna	12	San Juan la Laguna	7	Julio	2023-07-19T00:00:00	2024-11-08T13:00:00	5	Humedad	46
66461	7	Sololá	717	San Juan la Laguna	12	San Juan la Laguna	7	Julio	2023-07-19T00:00:00	2024-11-08T13:00:00	6	Velocidad del viento	9.7
66462	7	Sololá	717	San Juan la Laguna	12	San Juan la Laguna	7	Julio	2023-07-19T00:00:00	2024-11-08T13:00:00	7	Dirección del viento	9.66
66463	7	Sololá	717	San Juan la Laguna	12	San Juan la Laguna	7	Julio	2023-07-19T00:00:00	2024-11-08T13:00:00	1	Precipitación	0
66464	7	Sololá	717	San Juan la Laguna	12	San Juan la Laguna	7	Julio	2023-07-19T00:00:00	2024-11-08T13:00:00	8	Radiación solar	934
66465	7	Sololá	717	San Juan la Laguna	12	San Juan la Laguna	7	Julio	2023-07-19T00:00:00	2024-11-08T14:00:00	2	Temperatura media	27.8
66466	7	Sololá	717	San Juan la Laguna	12	San Juan la Laguna	7	Julio	2023-07-19T00:00:00	2024-11-08T14:00:00	4	Temperatura máxima	27.8
66467	7	Sololá	717	San Juan la Laguna	12	San Juan la Laguna	7	Julio	2023-07-19T00:00:00	2024-11-08T14:00:00	3	Temperatura mínima	27.1
66468	7	Sololá	717	San Juan la Laguna	12	San Juan la Laguna	7	Julio	2023-07-19T00:00:00	2024-11-08T14:00:00	5	Humedad	46
66469	7	Sololá	717	San Juan la Laguna	12	San Juan la Laguna	7	Julio	2023-07-19T00:00:00	2024-11-08T14:00:00	6	Velocidad del viento	6.4
66470	7	Sololá	717	San Juan la Laguna	12	San Juan la Laguna	7	Julio	2023-07-19T00:00:00	2024-11-08T14:00:00	7	Dirección del viento	6.44
66471	7	Sololá	717	San Juan la Laguna	12	San Juan la Laguna	7	Julio	2023-07-19T00:00:00	2024-11-08T14:00:00	1	Precipitación	0
66472	7	Sololá	717	San Juan la Laguna	12	San Juan la Laguna	7	Julio	2023-07-19T00:00:00	2024-11-08T14:00:00	8	Radiación solar	881
66473	7	Sololá	717	San Juan la Laguna	12	San Juan la Laguna	7	Julio	2023-07-19T00:00:00	2024-11-08T15:00:00	2	Temperatura media	27.8
66474	7	Sololá	717	San Juan la Laguna	12	San Juan la Laguna	7	Julio	2023-07-19T00:00:00	2024-11-08T15:00:00	4	Temperatura máxima	28.1
66475	7	Sololá	717	San Juan la Laguna	12	San Juan la Laguna	7	Julio	2023-07-19T00:00:00	2024-11-08T15:00:00	3	Temperatura mínima	27.6
66476	7	Sololá	717	San Juan la Laguna	12	San Juan la Laguna	7	Julio	2023-07-19T00:00:00	2024-11-08T15:00:00	5	Humedad	43
66477	7	Sololá	717	San Juan la Laguna	12	San Juan la Laguna	7	Julio	2023-07-19T00:00:00	2024-11-08T15:00:00	6	Velocidad del viento	3.2
66478	7	Sololá	717	San Juan la Laguna	12	San Juan la Laguna	7	Julio	2023-07-19T00:00:00	2024-11-08T15:00:00	7	Dirección del viento	3.22
66479	7	Sololá	717	San Juan la Laguna	12	San Juan la Laguna	7	Julio	2023-07-19T00:00:00	2024-11-08T15:00:00	1	Precipitación	0
66480	7	Sololá	717	San Juan la Laguna	12	San Juan la Laguna	7	Julio	2023-07-19T00:00:00	2024-11-08T15:00:00	8	Radiación solar	873
66481	7	Sololá	717	San Juan la Laguna	12	San Juan la Laguna	7	Julio	2023-07-19T00:00:00	2024-11-08T16:00:00	2	Temperatura media	25.5
66482	7	Sololá	717	San Juan la Laguna	12	San Juan la Laguna	7	Julio	2023-07-19T00:00:00	2024-11-08T16:00:00	4	Temperatura máxima	28.1
66483	7	Sololá	717	San Juan la Laguna	12	San Juan la Laguna	7	Julio	2023-07-19T00:00:00	2024-11-08T16:00:00	3	Temperatura mínima	25.5
66484	7	Sololá	717	San Juan la Laguna	12	San Juan la Laguna	7	Julio	2023-07-19T00:00:00	2024-11-08T16:00:00	5	Humedad	51
66485	7	Sololá	717	San Juan la Laguna	12	San Juan la Laguna	7	Julio	2023-07-19T00:00:00	2024-11-08T16:00:00	6	Velocidad del viento	4.8
66486	7	Sololá	717	San Juan la Laguna	12	San Juan la Laguna	7	Julio	2023-07-19T00:00:00	2024-11-08T16:00:00	7	Dirección del viento	4.83
66487	7	Sololá	717	San Juan la Laguna	12	San Juan la Laguna	7	Julio	2023-07-19T00:00:00	2024-11-08T16:00:00	1	Precipitación	0
66488	7	Sololá	717	San Juan la Laguna	12	San Juan la Laguna	7	Julio	2023-07-19T00:00:00	2024-11-08T16:00:00	8	Radiación solar	358
66489	7	Sololá	717	San Juan la Laguna	12	San Juan la Laguna	7	Julio	2023-07-19T00:00:00	2024-11-08T17:00:00	2	Temperatura media	24.5
66490	7	Sololá	717	San Juan la Laguna	12	San Juan la Laguna	7	Julio	2023-07-19T00:00:00	2024-11-08T17:00:00	4	Temperatura máxima	25.6
66491	7	Sololá	717	San Juan la Laguna	12	San Juan la Laguna	7	Julio	2023-07-19T00:00:00	2024-11-08T17:00:00	3	Temperatura mínima	24.4
66492	7	Sololá	717	San Juan la Laguna	12	San Juan la Laguna	7	Julio	2023-07-19T00:00:00	2024-11-08T17:00:00	5	Humedad	55
66493	7	Sololá	717	San Juan la Laguna	12	San Juan la Laguna	7	Julio	2023-07-19T00:00:00	2024-11-08T17:00:00	6	Velocidad del viento	9.7
66494	7	Sololá	717	San Juan la Laguna	12	San Juan la Laguna	7	Julio	2023-07-19T00:00:00	2024-11-08T17:00:00	7	Dirección del viento	9.66
66495	7	Sololá	717	San Juan la Laguna	12	San Juan la Laguna	7	Julio	2023-07-19T00:00:00	2024-11-08T17:00:00	1	Precipitación	0
66496	7	Sololá	717	San Juan la Laguna	12	San Juan la Laguna	7	Julio	2023-07-19T00:00:00	2024-11-08T17:00:00	8	Radiación solar	117
66497	7	Sololá	717	San Juan la Laguna	12	San Juan la Laguna	7	Julio	2023-07-19T00:00:00	2024-11-08T18:00:00	2	Temperatura media	23.6
66498	7	Sololá	717	San Juan la Laguna	12	San Juan la Laguna	7	Julio	2023-07-19T00:00:00	2024-11-08T18:00:00	4	Temperatura máxima	24.5
66499	7	Sololá	717	San Juan la Laguna	12	San Juan la Laguna	7	Julio	2023-07-19T00:00:00	2024-11-08T18:00:00	3	Temperatura mínima	23.6
66500	7	Sololá	717	San Juan la Laguna	12	San Juan la Laguna	7	Julio	2023-07-19T00:00:00	2024-11-08T18:00:00	5	Humedad	59
66501	7	Sololá	717	San Juan la Laguna	12	San Juan la Laguna	7	Julio	2023-07-19T00:00:00	2024-11-08T18:00:00	6	Velocidad del viento	9.7
66502	7	Sololá	717	San Juan la Laguna	12	San Juan la Laguna	7	Julio	2023-07-19T00:00:00	2024-11-08T18:00:00	7	Dirección del viento	9.66
66503	7	Sololá	717	San Juan la Laguna	12	San Juan la Laguna	7	Julio	2023-07-19T00:00:00	2024-11-08T18:00:00	1	Precipitación	0
66504	7	Sololá	717	San Juan la Laguna	12	San Juan la Laguna	7	Julio	2023-07-19T00:00:00	2024-11-08T18:00:00	8	Radiación solar	44
66505	7	Sololá	717	San Juan la Laguna	12	San Juan la Laguna	7	Julio	2023-07-19T00:00:00	2024-11-08T19:00:00	2	Temperatura media	22.9
66506	7	Sololá	717	San Juan la Laguna	12	San Juan la Laguna	7	Julio	2023-07-19T00:00:00	2024-11-08T19:00:00	4	Temperatura máxima	23.6
66507	7	Sololá	717	San Juan la Laguna	12	San Juan la Laguna	7	Julio	2023-07-19T00:00:00	2024-11-08T19:00:00	3	Temperatura mínima	22.8
66508	7	Sololá	717	San Juan la Laguna	12	San Juan la Laguna	7	Julio	2023-07-19T00:00:00	2024-11-08T19:00:00	5	Humedad	62
66509	7	Sololá	717	San Juan la Laguna	12	San Juan la Laguna	7	Julio	2023-07-19T00:00:00	2024-11-08T19:00:00	6	Velocidad del viento	11.3
66510	7	Sololá	717	San Juan la Laguna	12	San Juan la Laguna	7	Julio	2023-07-19T00:00:00	2024-11-08T19:00:00	7	Dirección del viento	11.27
66511	7	Sololá	717	San Juan la Laguna	12	San Juan la Laguna	7	Julio	2023-07-19T00:00:00	2024-11-08T19:00:00	1	Precipitación	0
66512	7	Sololá	717	San Juan la Laguna	12	San Juan la Laguna	7	Julio	2023-07-19T00:00:00	2024-11-08T19:00:00	8	Radiación solar	0
66513	7	Sololá	717	San Juan la Laguna	12	San Juan la Laguna	7	Julio	2023-07-19T00:00:00	2024-11-08T20:00:00	2	Temperatura media	22.5
66514	7	Sololá	717	San Juan la Laguna	12	San Juan la Laguna	7	Julio	2023-07-19T00:00:00	2024-11-08T20:00:00	4	Temperatura máxima	22.8
66515	7	Sololá	717	San Juan la Laguna	12	San Juan la Laguna	7	Julio	2023-07-19T00:00:00	2024-11-08T20:00:00	3	Temperatura mínima	22.4
66516	7	Sololá	717	San Juan la Laguna	12	San Juan la Laguna	7	Julio	2023-07-19T00:00:00	2024-11-08T20:00:00	5	Humedad	64
66517	7	Sololá	717	San Juan la Laguna	12	San Juan la Laguna	7	Julio	2023-07-19T00:00:00	2024-11-08T20:00:00	6	Velocidad del viento	11.3
66518	7	Sololá	717	San Juan la Laguna	12	San Juan la Laguna	7	Julio	2023-07-19T00:00:00	2024-11-08T20:00:00	7	Dirección del viento	11.27
66519	7	Sololá	717	San Juan la Laguna	12	San Juan la Laguna	7	Julio	2023-07-19T00:00:00	2024-11-08T20:00:00	1	Precipitación	0
66520	7	Sololá	717	San Juan la Laguna	12	San Juan la Laguna	7	Julio	2023-07-19T00:00:00	2024-11-08T20:00:00	8	Radiación solar	0
66521	7	Sololá	717	San Juan la Laguna	12	San Juan la Laguna	7	Julio	2023-07-19T00:00:00	2024-11-08T21:00:00	2	Temperatura media	22.3
66522	7	Sololá	717	San Juan la Laguna	12	San Juan la Laguna	7	Julio	2023-07-19T00:00:00	2024-11-08T21:00:00	4	Temperatura máxima	22.5
66523	7	Sololá	717	San Juan la Laguna	12	San Juan la Laguna	7	Julio	2023-07-19T00:00:00	2024-11-08T21:00:00	3	Temperatura mínima	22.3
66524	7	Sololá	717	San Juan la Laguna	12	San Juan la Laguna	7	Julio	2023-07-19T00:00:00	2024-11-08T21:00:00	5	Humedad	65
66525	7	Sololá	717	San Juan la Laguna	12	San Juan la Laguna	7	Julio	2023-07-19T00:00:00	2024-11-08T21:00:00	6	Velocidad del viento	9.7
66526	7	Sololá	717	San Juan la Laguna	12	San Juan la Laguna	7	Julio	2023-07-19T00:00:00	2024-11-08T21:00:00	7	Dirección del viento	9.66
66527	7	Sololá	717	San Juan la Laguna	12	San Juan la Laguna	7	Julio	2023-07-19T00:00:00	2024-11-08T21:00:00	1	Precipitación	0
66528	7	Sololá	717	San Juan la Laguna	12	San Juan la Laguna	7	Julio	2023-07-19T00:00:00	2024-11-08T21:00:00	8	Radiación solar	0
66529	7	Sololá	717	San Juan la Laguna	12	San Juan la Laguna	7	Julio	2023-07-19T00:00:00	2024-11-08T22:00:00	2	Temperatura media	21.8
66530	7	Sololá	717	San Juan la Laguna	12	San Juan la Laguna	7	Julio	2023-07-19T00:00:00	2024-11-08T22:00:00	4	Temperatura máxima	22.3
66531	7	Sololá	717	San Juan la Laguna	12	San Juan la Laguna	7	Julio	2023-07-19T00:00:00	2024-11-08T22:00:00	3	Temperatura mínima	21.8
66532	7	Sololá	717	San Juan la Laguna	12	San Juan la Laguna	7	Julio	2023-07-19T00:00:00	2024-11-08T22:00:00	5	Humedad	67
66533	7	Sololá	717	San Juan la Laguna	12	San Juan la Laguna	7	Julio	2023-07-19T00:00:00	2024-11-08T22:00:00	6	Velocidad del viento	8
66534	7	Sololá	717	San Juan la Laguna	12	San Juan la Laguna	7	Julio	2023-07-19T00:00:00	2024-11-08T22:00:00	7	Dirección del viento	8.05
66535	7	Sololá	717	San Juan la Laguna	12	San Juan la Laguna	7	Julio	2023-07-19T00:00:00	2024-11-08T22:00:00	1	Precipitación	0
66536	7	Sololá	717	San Juan la Laguna	12	San Juan la Laguna	7	Julio	2023-07-19T00:00:00	2024-11-08T22:00:00	8	Radiación solar	0
66537	7	Sololá	717	San Juan la Laguna	12	San Juan la Laguna	7	Julio	2023-07-19T00:00:00	2024-11-08T23:00:00	2	Temperatura media	20.2
66538	7	Sololá	717	San Juan la Laguna	12	San Juan la Laguna	7	Julio	2023-07-19T00:00:00	2024-11-08T23:00:00	4	Temperatura máxima	21.8
66539	7	Sololá	717	San Juan la Laguna	12	San Juan la Laguna	7	Julio	2023-07-19T00:00:00	2024-11-08T23:00:00	3	Temperatura mínima	20.2
66540	7	Sololá	717	San Juan la Laguna	12	San Juan la Laguna	7	Julio	2023-07-19T00:00:00	2024-11-08T23:00:00	5	Humedad	72
66541	7	Sololá	717	San Juan la Laguna	12	San Juan la Laguna	7	Julio	2023-07-19T00:00:00	2024-11-08T23:00:00	6	Velocidad del viento	1.6
66542	7	Sololá	717	San Juan la Laguna	12	San Juan la Laguna	7	Julio	2023-07-19T00:00:00	2024-11-08T23:00:00	7	Dirección del viento	1.61
66543	7	Sololá	717	San Juan la Laguna	12	San Juan la Laguna	7	Julio	2023-07-19T00:00:00	2024-11-08T23:00:00	1	Precipitación	0
66544	7	Sololá	717	San Juan la Laguna	12	San Juan la Laguna	7	Julio	2023-07-19T00:00:00	2024-11-08T23:00:00	8	Radiación solar	0
66545	7	Sololá	717	San Juan la Laguna	12	San Juan la Laguna	7	Julio	2023-07-20T00:00:00	2024-11-08T00:00:00	2	Temperatura media	20.3
66546	7	Sololá	717	San Juan la Laguna	12	San Juan la Laguna	7	Julio	2023-07-20T00:00:00	2024-11-08T00:00:00	4	Temperatura máxima	21.3
66547	7	Sololá	717	San Juan la Laguna	12	San Juan la Laguna	7	Julio	2023-07-20T00:00:00	2024-11-08T00:00:00	3	Temperatura mínima	19.9
66548	7	Sololá	717	San Juan la Laguna	12	San Juan la Laguna	7	Julio	2023-07-20T00:00:00	2024-11-08T00:00:00	5	Humedad	72
66549	7	Sololá	717	San Juan la Laguna	12	San Juan la Laguna	7	Julio	2023-07-20T00:00:00	2024-11-08T00:00:00	6	Velocidad del viento	3.2
66550	7	Sololá	717	San Juan la Laguna	12	San Juan la Laguna	7	Julio	2023-07-20T00:00:00	2024-11-08T00:00:00	7	Dirección del viento	3.22
66551	7	Sololá	717	San Juan la Laguna	12	San Juan la Laguna	7	Julio	2023-07-20T00:00:00	2024-11-08T00:00:00	1	Precipitación	0
66552	7	Sololá	717	San Juan la Laguna	12	San Juan la Laguna	7	Julio	2023-07-20T00:00:00	2024-11-08T00:00:00	8	Radiación solar	0
66553	7	Sololá	717	San Juan la Laguna	12	San Juan la Laguna	7	Julio	2023-07-20T00:00:00	2024-11-08T01:00:00	2	Temperatura media	19.4
66554	7	Sololá	717	San Juan la Laguna	12	San Juan la Laguna	7	Julio	2023-07-20T00:00:00	2024-11-08T01:00:00	4	Temperatura máxima	20.3
66555	7	Sololá	717	San Juan la Laguna	12	San Juan la Laguna	7	Julio	2023-07-20T00:00:00	2024-11-08T01:00:00	3	Temperatura mínima	19.4
66556	7	Sololá	717	San Juan la Laguna	12	San Juan la Laguna	7	Julio	2023-07-20T00:00:00	2024-11-08T01:00:00	5	Humedad	74
66557	7	Sololá	717	San Juan la Laguna	12	San Juan la Laguna	7	Julio	2023-07-20T00:00:00	2024-11-08T01:00:00	6	Velocidad del viento	0
66558	7	Sololá	717	San Juan la Laguna	12	San Juan la Laguna	7	Julio	2023-07-20T00:00:00	2024-11-08T01:00:00	7	Dirección del viento	0
66559	7	Sololá	717	San Juan la Laguna	12	San Juan la Laguna	7	Julio	2023-07-20T00:00:00	2024-11-08T01:00:00	1	Precipitación	0
66560	7	Sololá	717	San Juan la Laguna	12	San Juan la Laguna	7	Julio	2023-07-20T00:00:00	2024-11-08T01:00:00	8	Radiación solar	0
66561	7	Sololá	717	San Juan la Laguna	12	San Juan la Laguna	7	Julio	2023-07-20T00:00:00	2024-11-08T02:00:00	2	Temperatura media	19.2
66562	7	Sololá	717	San Juan la Laguna	12	San Juan la Laguna	7	Julio	2023-07-20T00:00:00	2024-11-08T02:00:00	4	Temperatura máxima	19.6
66563	7	Sololá	717	San Juan la Laguna	12	San Juan la Laguna	7	Julio	2023-07-20T00:00:00	2024-11-08T02:00:00	3	Temperatura mínima	18.8
66564	7	Sololá	717	San Juan la Laguna	12	San Juan la Laguna	7	Julio	2023-07-20T00:00:00	2024-11-08T02:00:00	5	Humedad	73
66565	7	Sololá	717	San Juan la Laguna	12	San Juan la Laguna	7	Julio	2023-07-20T00:00:00	2024-11-08T02:00:00	6	Velocidad del viento	0
66566	7	Sololá	717	San Juan la Laguna	12	San Juan la Laguna	7	Julio	2023-07-20T00:00:00	2024-11-08T02:00:00	7	Dirección del viento	0
66567	7	Sololá	717	San Juan la Laguna	12	San Juan la Laguna	7	Julio	2023-07-20T00:00:00	2024-11-08T02:00:00	1	Precipitación	0
66568	7	Sololá	717	San Juan la Laguna	12	San Juan la Laguna	7	Julio	2023-07-20T00:00:00	2024-11-08T02:00:00	8	Radiación solar	0
66569	7	Sololá	717	San Juan la Laguna	12	San Juan la Laguna	7	Julio	2023-07-20T00:00:00	2024-11-08T03:00:00	2	Temperatura media	20.4
66570	7	Sololá	717	San Juan la Laguna	12	San Juan la Laguna	7	Julio	2023-07-20T00:00:00	2024-11-08T03:00:00	4	Temperatura máxima	20.4
66571	7	Sololá	717	San Juan la Laguna	12	San Juan la Laguna	7	Julio	2023-07-20T00:00:00	2024-11-08T03:00:00	3	Temperatura mínima	18.6
66572	7	Sololá	717	San Juan la Laguna	12	San Juan la Laguna	7	Julio	2023-07-20T00:00:00	2024-11-08T03:00:00	5	Humedad	71
66573	7	Sololá	717	San Juan la Laguna	12	San Juan la Laguna	7	Julio	2023-07-20T00:00:00	2024-11-08T03:00:00	6	Velocidad del viento	0
66574	7	Sololá	717	San Juan la Laguna	12	San Juan la Laguna	7	Julio	2023-07-20T00:00:00	2024-11-08T03:00:00	7	Dirección del viento	0
66575	7	Sololá	717	San Juan la Laguna	12	San Juan la Laguna	7	Julio	2023-07-20T00:00:00	2024-11-08T03:00:00	1	Precipitación	0
66576	7	Sololá	717	San Juan la Laguna	12	San Juan la Laguna	7	Julio	2023-07-20T00:00:00	2024-11-08T03:00:00	8	Radiación solar	0
66577	7	Sololá	717	San Juan la Laguna	12	San Juan la Laguna	7	Julio	2023-07-20T00:00:00	2024-11-08T04:00:00	2	Temperatura media	20.8
66578	7	Sololá	717	San Juan la Laguna	12	San Juan la Laguna	7	Julio	2023-07-20T00:00:00	2024-11-08T04:00:00	4	Temperatura máxima	20.8
66579	7	Sololá	717	San Juan la Laguna	12	San Juan la Laguna	7	Julio	2023-07-20T00:00:00	2024-11-08T04:00:00	3	Temperatura mínima	20.4
66580	7	Sololá	717	San Juan la Laguna	12	San Juan la Laguna	7	Julio	2023-07-20T00:00:00	2024-11-08T04:00:00	5	Humedad	68
66581	7	Sololá	717	San Juan la Laguna	12	San Juan la Laguna	7	Julio	2023-07-20T00:00:00	2024-11-08T04:00:00	6	Velocidad del viento	3.2
66582	7	Sololá	717	San Juan la Laguna	12	San Juan la Laguna	7	Julio	2023-07-20T00:00:00	2024-11-08T04:00:00	7	Dirección del viento	3.22
66583	7	Sololá	717	San Juan la Laguna	12	San Juan la Laguna	7	Julio	2023-07-20T00:00:00	2024-11-08T04:00:00	1	Precipitación	0
66584	7	Sololá	717	San Juan la Laguna	12	San Juan la Laguna	7	Julio	2023-07-20T00:00:00	2024-11-08T04:00:00	8	Radiación solar	0
66585	7	Sololá	717	San Juan la Laguna	12	San Juan la Laguna	7	Julio	2023-07-20T00:00:00	2024-11-08T05:00:00	2	Temperatura media	20.5
66586	7	Sololá	717	San Juan la Laguna	12	San Juan la Laguna	7	Julio	2023-07-20T00:00:00	2024-11-08T05:00:00	4	Temperatura máxima	20.9
66587	7	Sololá	717	San Juan la Laguna	12	San Juan la Laguna	7	Julio	2023-07-20T00:00:00	2024-11-08T05:00:00	3	Temperatura mínima	20.5
66588	7	Sololá	717	San Juan la Laguna	12	San Juan la Laguna	7	Julio	2023-07-20T00:00:00	2024-11-08T05:00:00	5	Humedad	68
66589	7	Sololá	717	San Juan la Laguna	12	San Juan la Laguna	7	Julio	2023-07-20T00:00:00	2024-11-08T05:00:00	6	Velocidad del viento	6.4
66590	7	Sololá	717	San Juan la Laguna	12	San Juan la Laguna	7	Julio	2023-07-20T00:00:00	2024-11-08T05:00:00	7	Dirección del viento	6.44
66591	7	Sololá	717	San Juan la Laguna	12	San Juan la Laguna	7	Julio	2023-07-20T00:00:00	2024-11-08T05:00:00	1	Precipitación	0
66592	7	Sololá	717	San Juan la Laguna	12	San Juan la Laguna	7	Julio	2023-07-20T00:00:00	2024-11-08T05:00:00	8	Radiación solar	0
66593	7	Sololá	717	San Juan la Laguna	12	San Juan la Laguna	7	Julio	2023-07-20T00:00:00	2024-11-08T06:00:00	2	Temperatura media	20.7
66594	7	Sololá	717	San Juan la Laguna	12	San Juan la Laguna	7	Julio	2023-07-20T00:00:00	2024-11-08T06:00:00	4	Temperatura máxima	20.7
66595	7	Sololá	717	San Juan la Laguna	12	San Juan la Laguna	7	Julio	2023-07-20T00:00:00	2024-11-08T06:00:00	3	Temperatura mínima	20.5
66596	7	Sololá	717	San Juan la Laguna	12	San Juan la Laguna	7	Julio	2023-07-20T00:00:00	2024-11-08T06:00:00	5	Humedad	68
66597	7	Sololá	717	San Juan la Laguna	12	San Juan la Laguna	7	Julio	2023-07-20T00:00:00	2024-11-08T06:00:00	6	Velocidad del viento	4.8
66598	7	Sololá	717	San Juan la Laguna	12	San Juan la Laguna	7	Julio	2023-07-20T00:00:00	2024-11-08T06:00:00	7	Dirección del viento	4.83
66599	7	Sololá	717	San Juan la Laguna	12	San Juan la Laguna	7	Julio	2023-07-20T00:00:00	2024-11-08T06:00:00	1	Precipitación	0
66600	7	Sololá	717	San Juan la Laguna	12	San Juan la Laguna	7	Julio	2023-07-20T00:00:00	2024-11-08T06:00:00	8	Radiación solar	1
66601	7	Sololá	717	San Juan la Laguna	12	San Juan la Laguna	7	Julio	2023-07-20T00:00:00	2024-11-08T07:00:00	2	Temperatura media	21.2
66602	7	Sololá	717	San Juan la Laguna	12	San Juan la Laguna	7	Julio	2023-07-20T00:00:00	2024-11-08T07:00:00	4	Temperatura máxima	21.5
66603	7	Sololá	717	San Juan la Laguna	12	San Juan la Laguna	7	Julio	2023-07-20T00:00:00	2024-11-08T07:00:00	3	Temperatura mínima	20.6
66604	7	Sololá	717	San Juan la Laguna	12	San Juan la Laguna	7	Julio	2023-07-20T00:00:00	2024-11-08T07:00:00	5	Humedad	68
66605	7	Sololá	717	San Juan la Laguna	12	San Juan la Laguna	7	Julio	2023-07-20T00:00:00	2024-11-08T07:00:00	6	Velocidad del viento	4.8
66606	7	Sololá	717	San Juan la Laguna	12	San Juan la Laguna	7	Julio	2023-07-20T00:00:00	2024-11-08T07:00:00	7	Dirección del viento	4.83
66607	7	Sololá	717	San Juan la Laguna	12	San Juan la Laguna	7	Julio	2023-07-20T00:00:00	2024-11-08T07:00:00	1	Precipitación	0
66608	7	Sololá	717	San Juan la Laguna	12	San Juan la Laguna	7	Julio	2023-07-20T00:00:00	2024-11-08T07:00:00	8	Radiación solar	68
66609	7	Sololá	717	San Juan la Laguna	12	San Juan la Laguna	7	Julio	2023-07-20T00:00:00	2024-11-08T08:00:00	2	Temperatura media	22.3
66610	7	Sololá	717	San Juan la Laguna	12	San Juan la Laguna	7	Julio	2023-07-20T00:00:00	2024-11-08T08:00:00	4	Temperatura máxima	22.3
66611	7	Sololá	717	San Juan la Laguna	12	San Juan la Laguna	7	Julio	2023-07-20T00:00:00	2024-11-08T08:00:00	3	Temperatura mínima	21.2
66612	7	Sololá	717	San Juan la Laguna	12	San Juan la Laguna	7	Julio	2023-07-20T00:00:00	2024-11-08T08:00:00	5	Humedad	64
66613	7	Sololá	717	San Juan la Laguna	12	San Juan la Laguna	7	Julio	2023-07-20T00:00:00	2024-11-08T08:00:00	6	Velocidad del viento	8
66614	7	Sololá	717	San Juan la Laguna	12	San Juan la Laguna	7	Julio	2023-07-20T00:00:00	2024-11-08T08:00:00	7	Dirección del viento	8.05
66615	7	Sololá	717	San Juan la Laguna	12	San Juan la Laguna	7	Julio	2023-07-20T00:00:00	2024-11-08T08:00:00	1	Precipitación	0
66616	7	Sololá	717	San Juan la Laguna	12	San Juan la Laguna	7	Julio	2023-07-20T00:00:00	2024-11-08T08:00:00	8	Radiación solar	270
66617	7	Sololá	717	San Juan la Laguna	12	San Juan la Laguna	7	Julio	2023-07-20T00:00:00	2024-11-08T09:00:00	2	Temperatura media	23.6
66618	7	Sololá	717	San Juan la Laguna	12	San Juan la Laguna	7	Julio	2023-07-20T00:00:00	2024-11-08T09:00:00	4	Temperatura máxima	23.7
66619	7	Sololá	717	San Juan la Laguna	12	San Juan la Laguna	7	Julio	2023-07-20T00:00:00	2024-11-08T09:00:00	3	Temperatura mínima	22.2
66620	7	Sololá	717	San Juan la Laguna	12	San Juan la Laguna	7	Julio	2023-07-20T00:00:00	2024-11-08T09:00:00	5	Humedad	61
66621	7	Sololá	717	San Juan la Laguna	12	San Juan la Laguna	7	Julio	2023-07-20T00:00:00	2024-11-08T09:00:00	6	Velocidad del viento	11.3
66622	7	Sololá	717	San Juan la Laguna	12	San Juan la Laguna	7	Julio	2023-07-20T00:00:00	2024-11-08T09:00:00	7	Dirección del viento	11.27
66623	7	Sololá	717	San Juan la Laguna	12	San Juan la Laguna	7	Julio	2023-07-20T00:00:00	2024-11-08T09:00:00	1	Precipitación	0
66624	7	Sololá	717	San Juan la Laguna	12	San Juan la Laguna	7	Julio	2023-07-20T00:00:00	2024-11-08T09:00:00	8	Radiación solar	493
66625	7	Sololá	717	San Juan la Laguna	12	San Juan la Laguna	7	Julio	2023-07-20T00:00:00	2024-11-08T10:00:00	2	Temperatura media	24.6
66626	7	Sololá	717	San Juan la Laguna	12	San Juan la Laguna	7	Julio	2023-07-20T00:00:00	2024-11-08T10:00:00	4	Temperatura máxima	24.6
66627	7	Sololá	717	San Juan la Laguna	12	San Juan la Laguna	7	Julio	2023-07-20T00:00:00	2024-11-08T10:00:00	3	Temperatura mínima	23.4
66628	7	Sololá	717	San Juan la Laguna	12	San Juan la Laguna	7	Julio	2023-07-20T00:00:00	2024-11-08T10:00:00	5	Humedad	56
66629	7	Sololá	717	San Juan la Laguna	12	San Juan la Laguna	7	Julio	2023-07-20T00:00:00	2024-11-08T10:00:00	6	Velocidad del viento	8
66630	7	Sololá	717	San Juan la Laguna	12	San Juan la Laguna	7	Julio	2023-07-20T00:00:00	2024-11-08T10:00:00	7	Dirección del viento	8.05
66631	7	Sololá	717	San Juan la Laguna	12	San Juan la Laguna	7	Julio	2023-07-20T00:00:00	2024-11-08T10:00:00	1	Precipitación	0
66632	7	Sololá	717	San Juan la Laguna	12	San Juan la Laguna	7	Julio	2023-07-20T00:00:00	2024-11-08T10:00:00	8	Radiación solar	688
66633	7	Sololá	717	San Juan la Laguna	12	San Juan la Laguna	7	Julio	2023-07-20T00:00:00	2024-11-08T11:00:00	2	Temperatura media	25.7
66634	7	Sololá	717	San Juan la Laguna	12	San Juan la Laguna	7	Julio	2023-07-20T00:00:00	2024-11-08T11:00:00	4	Temperatura máxima	25.8
66635	7	Sololá	717	San Juan la Laguna	12	San Juan la Laguna	7	Julio	2023-07-20T00:00:00	2024-11-08T11:00:00	3	Temperatura mínima	24.6
66636	7	Sololá	717	San Juan la Laguna	12	San Juan la Laguna	7	Julio	2023-07-20T00:00:00	2024-11-08T11:00:00	5	Humedad	54
66637	7	Sololá	717	San Juan la Laguna	12	San Juan la Laguna	7	Julio	2023-07-20T00:00:00	2024-11-08T11:00:00	6	Velocidad del viento	9.7
66638	7	Sololá	717	San Juan la Laguna	12	San Juan la Laguna	7	Julio	2023-07-20T00:00:00	2024-11-08T11:00:00	7	Dirección del viento	9.66
66639	7	Sololá	717	San Juan la Laguna	12	San Juan la Laguna	7	Julio	2023-07-20T00:00:00	2024-11-08T11:00:00	1	Precipitación	0
66640	7	Sololá	717	San Juan la Laguna	12	San Juan la Laguna	7	Julio	2023-07-20T00:00:00	2024-11-08T11:00:00	8	Radiación solar	819
66641	7	Sololá	717	San Juan la Laguna	12	San Juan la Laguna	7	Julio	2023-07-20T00:00:00	2024-11-08T12:00:00	2	Temperatura media	26.7
66642	7	Sololá	717	San Juan la Laguna	12	San Juan la Laguna	7	Julio	2023-07-20T00:00:00	2024-11-08T12:00:00	4	Temperatura máxima	27.1
66643	7	Sololá	717	San Juan la Laguna	12	San Juan la Laguna	7	Julio	2023-07-20T00:00:00	2024-11-08T12:00:00	3	Temperatura mínima	25.7
66644	7	Sololá	717	San Juan la Laguna	12	San Juan la Laguna	7	Julio	2023-07-20T00:00:00	2024-11-08T12:00:00	5	Humedad	52
66645	7	Sololá	717	San Juan la Laguna	12	San Juan la Laguna	7	Julio	2023-07-20T00:00:00	2024-11-08T12:00:00	6	Velocidad del viento	9.7
66646	7	Sololá	717	San Juan la Laguna	12	San Juan la Laguna	7	Julio	2023-07-20T00:00:00	2024-11-08T12:00:00	7	Dirección del viento	9.66
66647	7	Sololá	717	San Juan la Laguna	12	San Juan la Laguna	7	Julio	2023-07-20T00:00:00	2024-11-08T12:00:00	1	Precipitación	0
66648	7	Sololá	717	San Juan la Laguna	12	San Juan la Laguna	7	Julio	2023-07-20T00:00:00	2024-11-08T12:00:00	8	Radiación solar	913
66649	7	Sololá	717	San Juan la Laguna	12	San Juan la Laguna	7	Julio	2023-07-20T00:00:00	2024-11-08T13:00:00	2	Temperatura media	27.4
66650	7	Sololá	717	San Juan la Laguna	12	San Juan la Laguna	7	Julio	2023-07-20T00:00:00	2024-11-08T13:00:00	4	Temperatura máxima	27.7
66651	7	Sololá	717	San Juan la Laguna	12	San Juan la Laguna	7	Julio	2023-07-20T00:00:00	2024-11-08T13:00:00	3	Temperatura mínima	26.7
66652	7	Sololá	717	San Juan la Laguna	12	San Juan la Laguna	7	Julio	2023-07-20T00:00:00	2024-11-08T13:00:00	5	Humedad	51
66653	7	Sololá	717	San Juan la Laguna	12	San Juan la Laguna	7	Julio	2023-07-20T00:00:00	2024-11-08T13:00:00	6	Velocidad del viento	8
66654	7	Sololá	717	San Juan la Laguna	12	San Juan la Laguna	7	Julio	2023-07-20T00:00:00	2024-11-08T13:00:00	7	Dirección del viento	8.05
66655	7	Sololá	717	San Juan la Laguna	12	San Juan la Laguna	7	Julio	2023-07-20T00:00:00	2024-11-08T13:00:00	1	Precipitación	0
66656	7	Sololá	717	San Juan la Laguna	12	San Juan la Laguna	7	Julio	2023-07-20T00:00:00	2024-11-08T13:00:00	8	Radiación solar	924
66657	7	Sololá	717	San Juan la Laguna	12	San Juan la Laguna	7	Julio	2023-07-20T00:00:00	2024-11-08T14:00:00	2	Temperatura media	27.9
66658	7	Sololá	717	San Juan la Laguna	12	San Juan la Laguna	7	Julio	2023-07-20T00:00:00	2024-11-08T14:00:00	4	Temperatura máxima	28
66659	7	Sololá	717	San Juan la Laguna	12	San Juan la Laguna	7	Julio	2023-07-20T00:00:00	2024-11-08T14:00:00	3	Temperatura mínima	27.3
66660	7	Sololá	717	San Juan la Laguna	12	San Juan la Laguna	7	Julio	2023-07-20T00:00:00	2024-11-08T14:00:00	5	Humedad	47
66661	7	Sololá	717	San Juan la Laguna	12	San Juan la Laguna	7	Julio	2023-07-20T00:00:00	2024-11-08T14:00:00	6	Velocidad del viento	3.2
66662	7	Sololá	717	San Juan la Laguna	12	San Juan la Laguna	7	Julio	2023-07-20T00:00:00	2024-11-08T14:00:00	7	Dirección del viento	3.22
66663	7	Sololá	717	San Juan la Laguna	12	San Juan la Laguna	7	Julio	2023-07-20T00:00:00	2024-11-08T14:00:00	1	Precipitación	0
66664	7	Sololá	717	San Juan la Laguna	12	San Juan la Laguna	7	Julio	2023-07-20T00:00:00	2024-11-08T14:00:00	8	Radiación solar	835
66665	7	Sololá	717	San Juan la Laguna	12	San Juan la Laguna	7	Julio	2023-07-20T00:00:00	2024-11-08T15:00:00	2	Temperatura media	26.6
66666	7	Sololá	717	San Juan la Laguna	12	San Juan la Laguna	7	Julio	2023-07-20T00:00:00	2024-11-08T15:00:00	4	Temperatura máxima	28.2
66667	7	Sololá	717	San Juan la Laguna	12	San Juan la Laguna	7	Julio	2023-07-20T00:00:00	2024-11-08T15:00:00	3	Temperatura mínima	26.6
66668	7	Sololá	717	San Juan la Laguna	12	San Juan la Laguna	7	Julio	2023-07-20T00:00:00	2024-11-08T15:00:00	5	Humedad	53
66669	7	Sololá	717	San Juan la Laguna	12	San Juan la Laguna	7	Julio	2023-07-20T00:00:00	2024-11-08T15:00:00	6	Velocidad del viento	3.2
66670	7	Sololá	717	San Juan la Laguna	12	San Juan la Laguna	7	Julio	2023-07-20T00:00:00	2024-11-08T15:00:00	7	Dirección del viento	3.22
66671	7	Sololá	717	San Juan la Laguna	12	San Juan la Laguna	7	Julio	2023-07-20T00:00:00	2024-11-08T15:00:00	1	Precipitación	0
66672	7	Sololá	717	San Juan la Laguna	12	San Juan la Laguna	7	Julio	2023-07-20T00:00:00	2024-11-08T15:00:00	8	Radiación solar	616
66673	7	Sololá	717	San Juan la Laguna	12	San Juan la Laguna	7	Julio	2023-07-20T00:00:00	2024-11-08T16:00:00	2	Temperatura media	25.7
66674	7	Sololá	717	San Juan la Laguna	12	San Juan la Laguna	7	Julio	2023-07-20T00:00:00	2024-11-08T16:00:00	4	Temperatura máxima	27.4
66675	7	Sololá	717	San Juan la Laguna	12	San Juan la Laguna	7	Julio	2023-07-20T00:00:00	2024-11-08T16:00:00	3	Temperatura mínima	25.7
66676	7	Sololá	717	San Juan la Laguna	12	San Juan la Laguna	7	Julio	2023-07-20T00:00:00	2024-11-08T16:00:00	5	Humedad	54
66677	7	Sololá	717	San Juan la Laguna	12	San Juan la Laguna	7	Julio	2023-07-20T00:00:00	2024-11-08T16:00:00	6	Velocidad del viento	4.8
66678	7	Sololá	717	San Juan la Laguna	12	San Juan la Laguna	7	Julio	2023-07-20T00:00:00	2024-11-08T16:00:00	7	Dirección del viento	4.83
66679	7	Sololá	717	San Juan la Laguna	12	San Juan la Laguna	7	Julio	2023-07-20T00:00:00	2024-11-08T16:00:00	1	Precipitación	0
66680	7	Sololá	717	San Juan la Laguna	12	San Juan la Laguna	7	Julio	2023-07-20T00:00:00	2024-11-08T16:00:00	8	Radiación solar	303
66681	7	Sololá	717	San Juan la Laguna	12	San Juan la Laguna	7	Julio	2023-07-20T00:00:00	2024-11-08T17:00:00	2	Temperatura media	25.3
66682	7	Sololá	717	San Juan la Laguna	12	San Juan la Laguna	7	Julio	2023-07-20T00:00:00	2024-11-08T17:00:00	4	Temperatura máxima	26.3
66683	7	Sololá	717	San Juan la Laguna	12	San Juan la Laguna	7	Julio	2023-07-20T00:00:00	2024-11-08T17:00:00	3	Temperatura mínima	25.3
66684	7	Sololá	717	San Juan la Laguna	12	San Juan la Laguna	7	Julio	2023-07-20T00:00:00	2024-11-08T17:00:00	5	Humedad	52
66685	7	Sololá	717	San Juan la Laguna	12	San Juan la Laguna	7	Julio	2023-07-20T00:00:00	2024-11-08T17:00:00	6	Velocidad del viento	6.4
66686	7	Sololá	717	San Juan la Laguna	12	San Juan la Laguna	7	Julio	2023-07-20T00:00:00	2024-11-08T17:00:00	7	Dirección del viento	6.44
66687	7	Sololá	717	San Juan la Laguna	12	San Juan la Laguna	7	Julio	2023-07-20T00:00:00	2024-11-08T17:00:00	1	Precipitación	0
66688	7	Sololá	717	San Juan la Laguna	12	San Juan la Laguna	7	Julio	2023-07-20T00:00:00	2024-11-08T17:00:00	8	Radiación solar	196
66689	7	Sololá	717	San Juan la Laguna	12	San Juan la Laguna	7	Julio	2023-07-20T00:00:00	2024-11-08T18:00:00	2	Temperatura media	24.8
66690	7	Sololá	717	San Juan la Laguna	12	San Juan la Laguna	7	Julio	2023-07-20T00:00:00	2024-11-08T18:00:00	4	Temperatura máxima	25.6
66691	7	Sololá	717	San Juan la Laguna	12	San Juan la Laguna	7	Julio	2023-07-20T00:00:00	2024-11-08T18:00:00	3	Temperatura mínima	24.8
66692	7	Sololá	717	San Juan la Laguna	12	San Juan la Laguna	7	Julio	2023-07-20T00:00:00	2024-11-08T18:00:00	5	Humedad	55
66693	7	Sololá	717	San Juan la Laguna	12	San Juan la Laguna	7	Julio	2023-07-20T00:00:00	2024-11-08T18:00:00	6	Velocidad del viento	6.4
66694	7	Sololá	717	San Juan la Laguna	12	San Juan la Laguna	7	Julio	2023-07-20T00:00:00	2024-11-08T18:00:00	7	Dirección del viento	6.44
66695	7	Sololá	717	San Juan la Laguna	12	San Juan la Laguna	7	Julio	2023-07-20T00:00:00	2024-11-08T18:00:00	1	Precipitación	0
66696	7	Sololá	717	San Juan la Laguna	12	San Juan la Laguna	7	Julio	2023-07-20T00:00:00	2024-11-08T18:00:00	8	Radiación solar	144
66697	7	Sololá	717	San Juan la Laguna	12	San Juan la Laguna	7	Julio	2023-07-20T00:00:00	2024-11-08T19:00:00	2	Temperatura media	23.6
66698	7	Sololá	717	San Juan la Laguna	12	San Juan la Laguna	7	Julio	2023-07-20T00:00:00	2024-11-08T19:00:00	4	Temperatura máxima	24.8
66699	7	Sololá	717	San Juan la Laguna	12	San Juan la Laguna	7	Julio	2023-07-20T00:00:00	2024-11-08T19:00:00	3	Temperatura mínima	23.6
66700	7	Sololá	717	San Juan la Laguna	12	San Juan la Laguna	7	Julio	2023-07-20T00:00:00	2024-11-08T19:00:00	5	Humedad	56
66701	7	Sololá	717	San Juan la Laguna	12	San Juan la Laguna	7	Julio	2023-07-20T00:00:00	2024-11-08T19:00:00	6	Velocidad del viento	9.7
66702	7	Sololá	717	San Juan la Laguna	12	San Juan la Laguna	7	Julio	2023-07-20T00:00:00	2024-11-08T19:00:00	7	Dirección del viento	9.66
66703	7	Sololá	717	San Juan la Laguna	12	San Juan la Laguna	7	Julio	2023-07-20T00:00:00	2024-11-08T19:00:00	1	Precipitación	0
66704	7	Sololá	717	San Juan la Laguna	12	San Juan la Laguna	7	Julio	2023-07-20T00:00:00	2024-11-08T19:00:00	8	Radiación solar	0
66705	7	Sololá	717	San Juan la Laguna	12	San Juan la Laguna	7	Julio	2023-07-20T00:00:00	2024-11-08T20:00:00	2	Temperatura media	22.8
66706	7	Sololá	717	San Juan la Laguna	12	San Juan la Laguna	7	Julio	2023-07-20T00:00:00	2024-11-08T20:00:00	4	Temperatura máxima	23.6
66707	7	Sololá	717	San Juan la Laguna	12	San Juan la Laguna	7	Julio	2023-07-20T00:00:00	2024-11-08T20:00:00	3	Temperatura mínima	22.8
66708	7	Sololá	717	San Juan la Laguna	12	San Juan la Laguna	7	Julio	2023-07-20T00:00:00	2024-11-08T20:00:00	5	Humedad	60
66709	7	Sololá	717	San Juan la Laguna	12	San Juan la Laguna	7	Julio	2023-07-20T00:00:00	2024-11-08T20:00:00	6	Velocidad del viento	12.9
66710	7	Sololá	717	San Juan la Laguna	12	San Juan la Laguna	7	Julio	2023-07-20T00:00:00	2024-11-08T20:00:00	7	Dirección del viento	12.87
66711	7	Sololá	717	San Juan la Laguna	12	San Juan la Laguna	7	Julio	2023-07-20T00:00:00	2024-11-08T20:00:00	1	Precipitación	0
66712	7	Sololá	717	San Juan la Laguna	12	San Juan la Laguna	7	Julio	2023-07-20T00:00:00	2024-11-08T20:00:00	8	Radiación solar	0
66713	7	Sololá	717	San Juan la Laguna	12	San Juan la Laguna	7	Julio	2023-07-20T00:00:00	2024-11-08T21:00:00	2	Temperatura media	22.3
66714	7	Sololá	717	San Juan la Laguna	12	San Juan la Laguna	7	Julio	2023-07-20T00:00:00	2024-11-08T21:00:00	4	Temperatura máxima	22.8
66715	7	Sololá	717	San Juan la Laguna	12	San Juan la Laguna	7	Julio	2023-07-20T00:00:00	2024-11-08T21:00:00	3	Temperatura mínima	22.3
66716	7	Sololá	717	San Juan la Laguna	12	San Juan la Laguna	7	Julio	2023-07-20T00:00:00	2024-11-08T21:00:00	5	Humedad	62
66717	7	Sololá	717	San Juan la Laguna	12	San Juan la Laguna	7	Julio	2023-07-20T00:00:00	2024-11-08T21:00:00	6	Velocidad del viento	14.5
66718	7	Sololá	717	San Juan la Laguna	12	San Juan la Laguna	7	Julio	2023-07-20T00:00:00	2024-11-08T21:00:00	7	Dirección del viento	14.48
66719	7	Sololá	717	San Juan la Laguna	12	San Juan la Laguna	7	Julio	2023-07-20T00:00:00	2024-11-08T21:00:00	1	Precipitación	0
66720	7	Sololá	717	San Juan la Laguna	12	San Juan la Laguna	7	Julio	2023-07-20T00:00:00	2024-11-08T21:00:00	8	Radiación solar	0
66721	7	Sololá	717	San Juan la Laguna	12	San Juan la Laguna	7	Julio	2023-07-20T00:00:00	2024-11-08T22:00:00	2	Temperatura media	21.9
66722	7	Sololá	717	San Juan la Laguna	12	San Juan la Laguna	7	Julio	2023-07-20T00:00:00	2024-11-08T22:00:00	4	Temperatura máxima	22.3
66723	7	Sololá	717	San Juan la Laguna	12	San Juan la Laguna	7	Julio	2023-07-20T00:00:00	2024-11-08T22:00:00	3	Temperatura mínima	21.9
66724	7	Sololá	717	San Juan la Laguna	12	San Juan la Laguna	7	Julio	2023-07-20T00:00:00	2024-11-08T22:00:00	5	Humedad	63
66725	7	Sololá	717	San Juan la Laguna	12	San Juan la Laguna	7	Julio	2023-07-20T00:00:00	2024-11-08T22:00:00	6	Velocidad del viento	12.9
66726	7	Sololá	717	San Juan la Laguna	12	San Juan la Laguna	7	Julio	2023-07-20T00:00:00	2024-11-08T22:00:00	7	Dirección del viento	12.87
66727	7	Sololá	717	San Juan la Laguna	12	San Juan la Laguna	7	Julio	2023-07-20T00:00:00	2024-11-08T22:00:00	1	Precipitación	0
66728	7	Sololá	717	San Juan la Laguna	12	San Juan la Laguna	7	Julio	2023-07-20T00:00:00	2024-11-08T22:00:00	8	Radiación solar	0
66729	7	Sololá	717	San Juan la Laguna	12	San Juan la Laguna	7	Julio	2023-07-20T00:00:00	2024-11-08T23:00:00	2	Temperatura media	21.7
66730	7	Sololá	717	San Juan la Laguna	12	San Juan la Laguna	7	Julio	2023-07-20T00:00:00	2024-11-08T23:00:00	4	Temperatura máxima	22
66731	7	Sololá	717	San Juan la Laguna	12	San Juan la Laguna	7	Julio	2023-07-20T00:00:00	2024-11-08T23:00:00	3	Temperatura mínima	21.7
66732	7	Sololá	717	San Juan la Laguna	12	San Juan la Laguna	7	Julio	2023-07-20T00:00:00	2024-11-08T23:00:00	5	Humedad	66
66733	7	Sololá	717	San Juan la Laguna	12	San Juan la Laguna	7	Julio	2023-07-20T00:00:00	2024-11-08T23:00:00	6	Velocidad del viento	4.8
66734	7	Sololá	717	San Juan la Laguna	12	San Juan la Laguna	7	Julio	2023-07-20T00:00:00	2024-11-08T23:00:00	7	Dirección del viento	4.83
66735	7	Sololá	717	San Juan la Laguna	12	San Juan la Laguna	7	Julio	2023-07-20T00:00:00	2024-11-08T23:00:00	1	Precipitación	0
66736	7	Sololá	717	San Juan la Laguna	12	San Juan la Laguna	7	Julio	2023-07-20T00:00:00	2024-11-08T23:00:00	8	Radiación solar	0
66737	7	Sololá	717	San Juan la Laguna	12	San Juan la Laguna	7	Julio	2023-07-21T00:00:00	2024-11-08T00:00:00	2	Temperatura media	21.4
66738	7	Sololá	717	San Juan la Laguna	12	San Juan la Laguna	7	Julio	2023-07-21T00:00:00	2024-11-08T00:00:00	4	Temperatura máxima	21.8
66739	7	Sololá	717	San Juan la Laguna	12	San Juan la Laguna	7	Julio	2023-07-21T00:00:00	2024-11-08T00:00:00	3	Temperatura mínima	21.4
66740	7	Sololá	717	San Juan la Laguna	12	San Juan la Laguna	7	Julio	2023-07-21T00:00:00	2024-11-08T00:00:00	5	Humedad	64
66741	7	Sololá	717	San Juan la Laguna	12	San Juan la Laguna	7	Julio	2023-07-21T00:00:00	2024-11-08T00:00:00	6	Velocidad del viento	6.4
66742	7	Sololá	717	San Juan la Laguna	12	San Juan la Laguna	7	Julio	2023-07-21T00:00:00	2024-11-08T00:00:00	7	Dirección del viento	6.44
66743	7	Sololá	717	San Juan la Laguna	12	San Juan la Laguna	7	Julio	2023-07-21T00:00:00	2024-11-08T00:00:00	1	Precipitación	0
66744	7	Sololá	717	San Juan la Laguna	12	San Juan la Laguna	7	Julio	2023-07-21T00:00:00	2024-11-08T00:00:00	8	Radiación solar	0
66745	7	Sololá	717	San Juan la Laguna	12	San Juan la Laguna	7	Julio	2023-07-21T00:00:00	2024-11-08T01:00:00	2	Temperatura media	20.7
66746	7	Sololá	717	San Juan la Laguna	12	San Juan la Laguna	7	Julio	2023-07-21T00:00:00	2024-11-08T01:00:00	4	Temperatura máxima	21.5
66747	7	Sololá	717	San Juan la Laguna	12	San Juan la Laguna	7	Julio	2023-07-21T00:00:00	2024-11-08T01:00:00	3	Temperatura mínima	20.7
66748	7	Sololá	717	San Juan la Laguna	12	San Juan la Laguna	7	Julio	2023-07-21T00:00:00	2024-11-08T01:00:00	5	Humedad	66
66749	7	Sololá	717	San Juan la Laguna	12	San Juan la Laguna	7	Julio	2023-07-21T00:00:00	2024-11-08T01:00:00	6	Velocidad del viento	4.8
66750	7	Sololá	717	San Juan la Laguna	12	San Juan la Laguna	7	Julio	2023-07-21T00:00:00	2024-11-08T01:00:00	7	Dirección del viento	4.83
66751	7	Sololá	717	San Juan la Laguna	12	San Juan la Laguna	7	Julio	2023-07-21T00:00:00	2024-11-08T01:00:00	1	Precipitación	0
66752	7	Sololá	717	San Juan la Laguna	12	San Juan la Laguna	7	Julio	2023-07-21T00:00:00	2024-11-08T01:00:00	8	Radiación solar	0
66753	7	Sololá	717	San Juan la Laguna	12	San Juan la Laguna	7	Julio	2023-07-21T00:00:00	2024-11-08T02:00:00	2	Temperatura media	20.9
66754	7	Sololá	717	San Juan la Laguna	12	San Juan la Laguna	7	Julio	2023-07-21T00:00:00	2024-11-08T02:00:00	4	Temperatura máxima	21.1
66755	7	Sololá	717	San Juan la Laguna	12	San Juan la Laguna	7	Julio	2023-07-21T00:00:00	2024-11-08T02:00:00	3	Temperatura mínima	20.6
66756	7	Sololá	717	San Juan la Laguna	12	San Juan la Laguna	7	Julio	2023-07-21T00:00:00	2024-11-08T02:00:00	5	Humedad	65
66757	7	Sololá	717	San Juan la Laguna	12	San Juan la Laguna	7	Julio	2023-07-21T00:00:00	2024-11-08T02:00:00	6	Velocidad del viento	1.6
66758	7	Sololá	717	San Juan la Laguna	12	San Juan la Laguna	7	Julio	2023-07-21T00:00:00	2024-11-08T02:00:00	7	Dirección del viento	1.61
66759	7	Sololá	717	San Juan la Laguna	12	San Juan la Laguna	7	Julio	2023-07-21T00:00:00	2024-11-08T02:00:00	1	Precipitación	0
66760	7	Sololá	717	San Juan la Laguna	12	San Juan la Laguna	7	Julio	2023-07-21T00:00:00	2024-11-08T02:00:00	8	Radiación solar	0
66761	7	Sololá	717	San Juan la Laguna	12	San Juan la Laguna	7	Julio	2023-07-21T00:00:00	2024-11-08T03:00:00	2	Temperatura media	17.8
66762	7	Sololá	717	San Juan la Laguna	12	San Juan la Laguna	7	Julio	2023-07-21T00:00:00	2024-11-08T03:00:00	4	Temperatura máxima	20.9
66763	7	Sololá	717	San Juan la Laguna	12	San Juan la Laguna	7	Julio	2023-07-21T00:00:00	2024-11-08T03:00:00	3	Temperatura mínima	17.8
66764	7	Sololá	717	San Juan la Laguna	12	San Juan la Laguna	7	Julio	2023-07-21T00:00:00	2024-11-08T03:00:00	5	Humedad	77
66765	7	Sololá	717	San Juan la Laguna	12	San Juan la Laguna	7	Julio	2023-07-21T00:00:00	2024-11-08T03:00:00	6	Velocidad del viento	0
66766	7	Sololá	717	San Juan la Laguna	12	San Juan la Laguna	7	Julio	2023-07-21T00:00:00	2024-11-08T03:00:00	7	Dirección del viento	0
66767	7	Sololá	717	San Juan la Laguna	12	San Juan la Laguna	7	Julio	2023-07-21T00:00:00	2024-11-08T03:00:00	1	Precipitación	0
66768	7	Sololá	717	San Juan la Laguna	12	San Juan la Laguna	7	Julio	2023-07-21T00:00:00	2024-11-08T03:00:00	8	Radiación solar	0
66769	7	Sololá	717	San Juan la Laguna	12	San Juan la Laguna	7	Julio	2023-07-21T00:00:00	2024-11-08T04:00:00	2	Temperatura media	17
66770	7	Sololá	717	San Juan la Laguna	12	San Juan la Laguna	7	Julio	2023-07-21T00:00:00	2024-11-08T04:00:00	4	Temperatura máxima	17.8
66771	7	Sololá	717	San Juan la Laguna	12	San Juan la Laguna	7	Julio	2023-07-21T00:00:00	2024-11-08T04:00:00	3	Temperatura mínima	17
66772	7	Sololá	717	San Juan la Laguna	12	San Juan la Laguna	7	Julio	2023-07-21T00:00:00	2024-11-08T04:00:00	5	Humedad	80
66773	7	Sololá	717	San Juan la Laguna	12	San Juan la Laguna	7	Julio	2023-07-21T00:00:00	2024-11-08T04:00:00	6	Velocidad del viento	0
66774	7	Sololá	717	San Juan la Laguna	12	San Juan la Laguna	7	Julio	2023-07-21T00:00:00	2024-11-08T04:00:00	7	Dirección del viento	0
66775	7	Sololá	717	San Juan la Laguna	12	San Juan la Laguna	7	Julio	2023-07-21T00:00:00	2024-11-08T04:00:00	1	Precipitación	0
66776	7	Sololá	717	San Juan la Laguna	12	San Juan la Laguna	7	Julio	2023-07-21T00:00:00	2024-11-08T04:00:00	8	Radiación solar	0
66777	7	Sololá	717	San Juan la Laguna	12	San Juan la Laguna	7	Julio	2023-07-21T00:00:00	2024-11-08T05:00:00	2	Temperatura media	17.6
66778	7	Sololá	717	San Juan la Laguna	12	San Juan la Laguna	7	Julio	2023-07-21T00:00:00	2024-11-08T05:00:00	4	Temperatura máxima	18.1
66779	7	Sololá	717	San Juan la Laguna	12	San Juan la Laguna	7	Julio	2023-07-21T00:00:00	2024-11-08T05:00:00	3	Temperatura mínima	16.8
66780	7	Sololá	717	San Juan la Laguna	12	San Juan la Laguna	7	Julio	2023-07-21T00:00:00	2024-11-08T05:00:00	5	Humedad	81
66781	7	Sololá	717	San Juan la Laguna	12	San Juan la Laguna	7	Julio	2023-07-21T00:00:00	2024-11-08T05:00:00	6	Velocidad del viento	0
66782	7	Sololá	717	San Juan la Laguna	12	San Juan la Laguna	7	Julio	2023-07-21T00:00:00	2024-11-08T05:00:00	7	Dirección del viento	0
66783	7	Sololá	717	San Juan la Laguna	12	San Juan la Laguna	7	Julio	2023-07-21T00:00:00	2024-11-08T05:00:00	1	Precipitación	0
66784	7	Sololá	717	San Juan la Laguna	12	San Juan la Laguna	7	Julio	2023-07-21T00:00:00	2024-11-08T05:00:00	8	Radiación solar	0
66785	7	Sololá	717	San Juan la Laguna	12	San Juan la Laguna	7	Julio	2023-07-21T00:00:00	2024-11-08T06:00:00	2	Temperatura media	17.4
66786	7	Sololá	717	San Juan la Laguna	12	San Juan la Laguna	7	Julio	2023-07-21T00:00:00	2024-11-08T06:00:00	4	Temperatura máxima	18
66787	7	Sololá	717	San Juan la Laguna	12	San Juan la Laguna	7	Julio	2023-07-21T00:00:00	2024-11-08T06:00:00	3	Temperatura mínima	17.4
66788	7	Sololá	717	San Juan la Laguna	12	San Juan la Laguna	7	Julio	2023-07-21T00:00:00	2024-11-08T06:00:00	5	Humedad	81
66789	7	Sololá	717	San Juan la Laguna	12	San Juan la Laguna	7	Julio	2023-07-21T00:00:00	2024-11-08T06:00:00	6	Velocidad del viento	0
66790	7	Sololá	717	San Juan la Laguna	12	San Juan la Laguna	7	Julio	2023-07-21T00:00:00	2024-11-08T06:00:00	7	Dirección del viento	0
66791	7	Sololá	717	San Juan la Laguna	12	San Juan la Laguna	7	Julio	2023-07-21T00:00:00	2024-11-08T06:00:00	1	Precipitación	0
66792	7	Sololá	717	San Juan la Laguna	12	San Juan la Laguna	7	Julio	2023-07-21T00:00:00	2024-11-08T06:00:00	8	Radiación solar	1
66793	7	Sololá	717	San Juan la Laguna	12	San Juan la Laguna	7	Julio	2023-07-21T00:00:00	2024-11-08T07:00:00	2	Temperatura media	20.6
66794	7	Sololá	717	San Juan la Laguna	12	San Juan la Laguna	7	Julio	2023-07-21T00:00:00	2024-11-08T07:00:00	4	Temperatura máxima	20.6
66795	7	Sololá	717	San Juan la Laguna	12	San Juan la Laguna	7	Julio	2023-07-21T00:00:00	2024-11-08T07:00:00	3	Temperatura mínima	17.1
66796	7	Sololá	717	San Juan la Laguna	12	San Juan la Laguna	7	Julio	2023-07-21T00:00:00	2024-11-08T07:00:00	5	Humedad	72
66797	7	Sololá	717	San Juan la Laguna	12	San Juan la Laguna	7	Julio	2023-07-21T00:00:00	2024-11-08T07:00:00	6	Velocidad del viento	0
66798	7	Sololá	717	San Juan la Laguna	12	San Juan la Laguna	7	Julio	2023-07-21T00:00:00	2024-11-08T07:00:00	7	Dirección del viento	0
66799	7	Sololá	717	San Juan la Laguna	12	San Juan la Laguna	7	Julio	2023-07-21T00:00:00	2024-11-08T07:00:00	1	Precipitación	0
66800	7	Sololá	717	San Juan la Laguna	12	San Juan la Laguna	7	Julio	2023-07-21T00:00:00	2024-11-08T07:00:00	8	Radiación solar	83
66801	7	Sololá	717	San Juan la Laguna	12	San Juan la Laguna	7	Julio	2023-07-21T00:00:00	2024-11-08T08:00:00	2	Temperatura media	23
66802	7	Sololá	717	San Juan la Laguna	12	San Juan la Laguna	7	Julio	2023-07-21T00:00:00	2024-11-08T08:00:00	4	Temperatura máxima	23
66803	7	Sololá	717	San Juan la Laguna	12	San Juan la Laguna	7	Julio	2023-07-21T00:00:00	2024-11-08T08:00:00	3	Temperatura mínima	20.6
66804	7	Sololá	717	San Juan la Laguna	12	San Juan la Laguna	7	Julio	2023-07-21T00:00:00	2024-11-08T08:00:00	5	Humedad	66
66805	7	Sololá	717	San Juan la Laguna	12	San Juan la Laguna	7	Julio	2023-07-21T00:00:00	2024-11-08T08:00:00	6	Velocidad del viento	0
66806	7	Sololá	717	San Juan la Laguna	12	San Juan la Laguna	7	Julio	2023-07-21T00:00:00	2024-11-08T08:00:00	7	Dirección del viento	0
66807	7	Sololá	717	San Juan la Laguna	12	San Juan la Laguna	7	Julio	2023-07-21T00:00:00	2024-11-08T08:00:00	1	Precipitación	0
66808	7	Sololá	717	San Juan la Laguna	12	San Juan la Laguna	7	Julio	2023-07-21T00:00:00	2024-11-08T08:00:00	8	Radiación solar	298
66809	7	Sololá	717	San Juan la Laguna	12	San Juan la Laguna	7	Julio	2023-07-21T00:00:00	2024-11-08T09:00:00	2	Temperatura media	23.9
66810	7	Sololá	717	San Juan la Laguna	12	San Juan la Laguna	7	Julio	2023-07-21T00:00:00	2024-11-08T09:00:00	4	Temperatura máxima	23.9
66811	7	Sololá	717	San Juan la Laguna	12	San Juan la Laguna	7	Julio	2023-07-21T00:00:00	2024-11-08T09:00:00	3	Temperatura mínima	23
66812	7	Sololá	717	San Juan la Laguna	12	San Juan la Laguna	7	Julio	2023-07-21T00:00:00	2024-11-08T09:00:00	5	Humedad	62
66813	7	Sololá	717	San Juan la Laguna	12	San Juan la Laguna	7	Julio	2023-07-21T00:00:00	2024-11-08T09:00:00	6	Velocidad del viento	1.6
66814	7	Sololá	717	San Juan la Laguna	12	San Juan la Laguna	7	Julio	2023-07-21T00:00:00	2024-11-08T09:00:00	7	Dirección del viento	1.61
66815	7	Sololá	717	San Juan la Laguna	12	San Juan la Laguna	7	Julio	2023-07-21T00:00:00	2024-11-08T09:00:00	1	Precipitación	0
66816	7	Sololá	717	San Juan la Laguna	12	San Juan la Laguna	7	Julio	2023-07-21T00:00:00	2024-11-08T09:00:00	8	Radiación solar	512
66817	7	Sololá	717	San Juan la Laguna	12	San Juan la Laguna	7	Julio	2023-07-21T00:00:00	2024-11-08T10:00:00	2	Temperatura media	25
66818	7	Sololá	717	San Juan la Laguna	12	San Juan la Laguna	7	Julio	2023-07-21T00:00:00	2024-11-08T10:00:00	4	Temperatura máxima	25.3
66819	7	Sololá	717	San Juan la Laguna	12	San Juan la Laguna	7	Julio	2023-07-21T00:00:00	2024-11-08T10:00:00	3	Temperatura mínima	23.9
66820	7	Sololá	717	San Juan la Laguna	12	San Juan la Laguna	7	Julio	2023-07-21T00:00:00	2024-11-08T10:00:00	5	Humedad	56
66821	7	Sololá	717	San Juan la Laguna	12	San Juan la Laguna	7	Julio	2023-07-21T00:00:00	2024-11-08T10:00:00	6	Velocidad del viento	1.6
66822	7	Sololá	717	San Juan la Laguna	12	San Juan la Laguna	7	Julio	2023-07-21T00:00:00	2024-11-08T10:00:00	7	Dirección del viento	1.61
66823	7	Sololá	717	San Juan la Laguna	12	San Juan la Laguna	7	Julio	2023-07-21T00:00:00	2024-11-08T10:00:00	1	Precipitación	0
66824	7	Sololá	717	San Juan la Laguna	12	San Juan la Laguna	7	Julio	2023-07-21T00:00:00	2024-11-08T10:00:00	8	Radiación solar	686
66825	7	Sololá	717	San Juan la Laguna	12	San Juan la Laguna	7	Julio	2023-07-21T00:00:00	2024-11-08T11:00:00	2	Temperatura media	25.8
66826	7	Sololá	717	San Juan la Laguna	12	San Juan la Laguna	7	Julio	2023-07-21T00:00:00	2024-11-08T11:00:00	4	Temperatura máxima	26.1
66827	7	Sololá	717	San Juan la Laguna	12	San Juan la Laguna	7	Julio	2023-07-21T00:00:00	2024-11-08T11:00:00	3	Temperatura mínima	25.1
66828	7	Sololá	717	San Juan la Laguna	12	San Juan la Laguna	7	Julio	2023-07-21T00:00:00	2024-11-08T11:00:00	5	Humedad	53
66829	7	Sololá	717	San Juan la Laguna	12	San Juan la Laguna	7	Julio	2023-07-21T00:00:00	2024-11-08T11:00:00	6	Velocidad del viento	1.6
66830	7	Sololá	717	San Juan la Laguna	12	San Juan la Laguna	7	Julio	2023-07-21T00:00:00	2024-11-08T11:00:00	7	Dirección del viento	1.61
66831	7	Sololá	717	San Juan la Laguna	12	San Juan la Laguna	7	Julio	2023-07-21T00:00:00	2024-11-08T11:00:00	1	Precipitación	0
66832	7	Sololá	717	San Juan la Laguna	12	San Juan la Laguna	7	Julio	2023-07-21T00:00:00	2024-11-08T11:00:00	8	Radiación solar	830
66833	7	Sololá	717	San Juan la Laguna	12	San Juan la Laguna	7	Julio	2023-07-21T00:00:00	2024-11-08T12:00:00	2	Temperatura media	27.7
66834	7	Sololá	717	San Juan la Laguna	12	San Juan la Laguna	7	Julio	2023-07-21T00:00:00	2024-11-08T12:00:00	4	Temperatura máxima	27.7
66835	7	Sololá	717	San Juan la Laguna	12	San Juan la Laguna	7	Julio	2023-07-21T00:00:00	2024-11-08T12:00:00	3	Temperatura mínima	25.8
66836	7	Sololá	717	San Juan la Laguna	12	San Juan la Laguna	7	Julio	2023-07-21T00:00:00	2024-11-08T12:00:00	5	Humedad	46
66837	7	Sololá	717	San Juan la Laguna	12	San Juan la Laguna	7	Julio	2023-07-21T00:00:00	2024-11-08T12:00:00	6	Velocidad del viento	0
66838	7	Sololá	717	San Juan la Laguna	12	San Juan la Laguna	7	Julio	2023-07-21T00:00:00	2024-11-08T12:00:00	7	Dirección del viento	0
66839	7	Sololá	717	San Juan la Laguna	12	San Juan la Laguna	7	Julio	2023-07-21T00:00:00	2024-11-08T12:00:00	1	Precipitación	0
66840	7	Sololá	717	San Juan la Laguna	12	San Juan la Laguna	7	Julio	2023-07-21T00:00:00	2024-11-08T12:00:00	8	Radiación solar	918
66841	7	Sololá	717	San Juan la Laguna	12	San Juan la Laguna	7	Julio	2023-07-21T00:00:00	2024-11-08T13:00:00	2	Temperatura media	27.5
66842	7	Sololá	717	San Juan la Laguna	12	San Juan la Laguna	7	Julio	2023-07-21T00:00:00	2024-11-08T13:00:00	4	Temperatura máxima	29
66843	7	Sololá	717	San Juan la Laguna	12	San Juan la Laguna	7	Julio	2023-07-21T00:00:00	2024-11-08T13:00:00	3	Temperatura mínima	27.5
66844	7	Sololá	717	San Juan la Laguna	12	San Juan la Laguna	7	Julio	2023-07-21T00:00:00	2024-11-08T13:00:00	5	Humedad	47
66845	7	Sololá	717	San Juan la Laguna	12	San Juan la Laguna	7	Julio	2023-07-21T00:00:00	2024-11-08T13:00:00	6	Velocidad del viento	0
66846	7	Sololá	717	San Juan la Laguna	12	San Juan la Laguna	7	Julio	2023-07-21T00:00:00	2024-11-08T13:00:00	7	Dirección del viento	0
66847	7	Sololá	717	San Juan la Laguna	12	San Juan la Laguna	7	Julio	2023-07-21T00:00:00	2024-11-08T13:00:00	1	Precipitación	0
66848	7	Sololá	717	San Juan la Laguna	12	San Juan la Laguna	7	Julio	2023-07-21T00:00:00	2024-11-08T13:00:00	8	Radiación solar	941
66849	7	Sololá	717	San Juan la Laguna	12	San Juan la Laguna	7	Julio	2023-07-21T00:00:00	2024-11-08T14:00:00	2	Temperatura media	26.6
66850	7	Sololá	717	San Juan la Laguna	12	San Juan la Laguna	7	Julio	2023-07-21T00:00:00	2024-11-08T14:00:00	4	Temperatura máxima	27.6
66851	7	Sololá	717	San Juan la Laguna	12	San Juan la Laguna	7	Julio	2023-07-21T00:00:00	2024-11-08T14:00:00	3	Temperatura mínima	26.2
66852	7	Sololá	717	San Juan la Laguna	12	San Juan la Laguna	7	Julio	2023-07-21T00:00:00	2024-11-08T14:00:00	5	Humedad	61
66853	7	Sololá	717	San Juan la Laguna	12	San Juan la Laguna	7	Julio	2023-07-21T00:00:00	2024-11-08T14:00:00	6	Velocidad del viento	0
66854	7	Sololá	717	San Juan la Laguna	12	San Juan la Laguna	7	Julio	2023-07-21T00:00:00	2024-11-08T14:00:00	7	Dirección del viento	0
66855	7	Sololá	717	San Juan la Laguna	12	San Juan la Laguna	7	Julio	2023-07-21T00:00:00	2024-11-08T14:00:00	1	Precipitación	0
66856	7	Sololá	717	San Juan la Laguna	12	San Juan la Laguna	7	Julio	2023-07-21T00:00:00	2024-11-08T14:00:00	8	Radiación solar	908
66857	7	Sololá	717	San Juan la Laguna	12	San Juan la Laguna	7	Julio	2023-07-21T00:00:00	2024-11-08T15:00:00	2	Temperatura media	25.1
66858	7	Sololá	717	San Juan la Laguna	12	San Juan la Laguna	7	Julio	2023-07-21T00:00:00	2024-11-08T15:00:00	4	Temperatura máxima	27.3
66859	7	Sololá	717	San Juan la Laguna	12	San Juan la Laguna	7	Julio	2023-07-21T00:00:00	2024-11-08T15:00:00	3	Temperatura mínima	24.9
66860	7	Sololá	717	San Juan la Laguna	12	San Juan la Laguna	7	Julio	2023-07-21T00:00:00	2024-11-08T15:00:00	5	Humedad	69
66861	7	Sololá	717	San Juan la Laguna	12	San Juan la Laguna	7	Julio	2023-07-21T00:00:00	2024-11-08T15:00:00	6	Velocidad del viento	1.6
66862	7	Sololá	717	San Juan la Laguna	12	San Juan la Laguna	7	Julio	2023-07-21T00:00:00	2024-11-08T15:00:00	7	Dirección del viento	1.61
66863	7	Sololá	717	San Juan la Laguna	12	San Juan la Laguna	7	Julio	2023-07-21T00:00:00	2024-11-08T15:00:00	1	Precipitación	0
66864	7	Sololá	717	San Juan la Laguna	12	San Juan la Laguna	7	Julio	2023-07-21T00:00:00	2024-11-08T15:00:00	8	Radiación solar	632
66865	7	Sololá	717	San Juan la Laguna	12	San Juan la Laguna	7	Julio	2023-07-21T00:00:00	2024-11-08T16:00:00	2	Temperatura media	24.6
66866	7	Sololá	717	San Juan la Laguna	12	San Juan la Laguna	7	Julio	2023-07-21T00:00:00	2024-11-08T16:00:00	4	Temperatura máxima	25.1
66867	7	Sololá	717	San Juan la Laguna	12	San Juan la Laguna	7	Julio	2023-07-21T00:00:00	2024-11-08T16:00:00	3	Temperatura mínima	23.8
66868	7	Sololá	717	San Juan la Laguna	12	San Juan la Laguna	7	Julio	2023-07-21T00:00:00	2024-11-08T16:00:00	5	Humedad	72
66869	7	Sololá	717	San Juan la Laguna	12	San Juan la Laguna	7	Julio	2023-07-21T00:00:00	2024-11-08T16:00:00	6	Velocidad del viento	3.2
66870	7	Sololá	717	San Juan la Laguna	12	San Juan la Laguna	7	Julio	2023-07-21T00:00:00	2024-11-08T16:00:00	7	Dirección del viento	3.22
66871	7	Sololá	717	San Juan la Laguna	12	San Juan la Laguna	7	Julio	2023-07-21T00:00:00	2024-11-08T16:00:00	1	Precipitación	0
66872	7	Sololá	717	San Juan la Laguna	12	San Juan la Laguna	7	Julio	2023-07-21T00:00:00	2024-11-08T16:00:00	8	Radiación solar	404
66873	7	Sololá	717	San Juan la Laguna	12	San Juan la Laguna	7	Julio	2023-07-21T00:00:00	2024-11-08T17:00:00	2	Temperatura media	23.3
66874	7	Sololá	717	San Juan la Laguna	12	San Juan la Laguna	7	Julio	2023-07-21T00:00:00	2024-11-08T17:00:00	4	Temperatura máxima	24.6
66875	7	Sololá	717	San Juan la Laguna	12	San Juan la Laguna	7	Julio	2023-07-21T00:00:00	2024-11-08T17:00:00	3	Temperatura mínima	23.3
66876	7	Sololá	717	San Juan la Laguna	12	San Juan la Laguna	7	Julio	2023-07-21T00:00:00	2024-11-08T17:00:00	5	Humedad	75
66877	7	Sololá	717	San Juan la Laguna	12	San Juan la Laguna	7	Julio	2023-07-21T00:00:00	2024-11-08T17:00:00	6	Velocidad del viento	1.6
66878	7	Sololá	717	San Juan la Laguna	12	San Juan la Laguna	7	Julio	2023-07-21T00:00:00	2024-11-08T17:00:00	7	Dirección del viento	1.61
66879	7	Sololá	717	San Juan la Laguna	12	San Juan la Laguna	7	Julio	2023-07-21T00:00:00	2024-11-08T17:00:00	1	Precipitación	0
66880	7	Sololá	717	San Juan la Laguna	12	San Juan la Laguna	7	Julio	2023-07-21T00:00:00	2024-11-08T17:00:00	8	Radiación solar	280
66881	7	Sololá	717	San Juan la Laguna	12	San Juan la Laguna	7	Julio	2023-07-21T00:00:00	2024-11-08T18:00:00	2	Temperatura media	22.8
66882	7	Sololá	717	San Juan la Laguna	12	San Juan la Laguna	7	Julio	2023-07-21T00:00:00	2024-11-08T18:00:00	4	Temperatura máxima	23.4
66883	7	Sololá	717	San Juan la Laguna	12	San Juan la Laguna	7	Julio	2023-07-21T00:00:00	2024-11-08T18:00:00	3	Temperatura mínima	22.8
66884	7	Sololá	717	San Juan la Laguna	12	San Juan la Laguna	7	Julio	2023-07-21T00:00:00	2024-11-08T18:00:00	5	Humedad	78
66885	7	Sololá	717	San Juan la Laguna	12	San Juan la Laguna	7	Julio	2023-07-21T00:00:00	2024-11-08T18:00:00	6	Velocidad del viento	0
66886	7	Sololá	717	San Juan la Laguna	12	San Juan la Laguna	7	Julio	2023-07-21T00:00:00	2024-11-08T18:00:00	7	Dirección del viento	0
66887	7	Sololá	717	San Juan la Laguna	12	San Juan la Laguna	7	Julio	2023-07-21T00:00:00	2024-11-08T18:00:00	1	Precipitación	0
66888	7	Sololá	717	San Juan la Laguna	12	San Juan la Laguna	7	Julio	2023-07-21T00:00:00	2024-11-08T18:00:00	8	Radiación solar	121
66889	7	Sololá	717	San Juan la Laguna	12	San Juan la Laguna	7	Julio	2023-07-21T00:00:00	2024-11-08T19:00:00	2	Temperatura media	21.7
66890	7	Sololá	717	San Juan la Laguna	12	San Juan la Laguna	7	Julio	2023-07-21T00:00:00	2024-11-08T19:00:00	4	Temperatura máxima	22.9
66891	7	Sololá	717	San Juan la Laguna	12	San Juan la Laguna	7	Julio	2023-07-21T00:00:00	2024-11-08T19:00:00	3	Temperatura mínima	21.7
66892	7	Sololá	717	San Juan la Laguna	12	San Juan la Laguna	7	Julio	2023-07-21T00:00:00	2024-11-08T19:00:00	5	Humedad	82
66893	7	Sololá	717	San Juan la Laguna	12	San Juan la Laguna	7	Julio	2023-07-21T00:00:00	2024-11-08T19:00:00	6	Velocidad del viento	0
66894	7	Sololá	717	San Juan la Laguna	12	San Juan la Laguna	7	Julio	2023-07-21T00:00:00	2024-11-08T19:00:00	7	Dirección del viento	0
66895	7	Sololá	717	San Juan la Laguna	12	San Juan la Laguna	7	Julio	2023-07-21T00:00:00	2024-11-08T19:00:00	1	Precipitación	0
66896	7	Sololá	717	San Juan la Laguna	12	San Juan la Laguna	7	Julio	2023-07-21T00:00:00	2024-11-08T19:00:00	8	Radiación solar	0
66897	7	Sololá	717	San Juan la Laguna	12	San Juan la Laguna	7	Julio	2023-07-21T00:00:00	2024-11-08T20:00:00	2	Temperatura media	21.4
66898	7	Sololá	717	San Juan la Laguna	12	San Juan la Laguna	7	Julio	2023-07-21T00:00:00	2024-11-08T20:00:00	4	Temperatura máxima	21.7
66899	7	Sololá	717	San Juan la Laguna	12	San Juan la Laguna	7	Julio	2023-07-21T00:00:00	2024-11-08T20:00:00	3	Temperatura mínima	21.1
66900	7	Sololá	717	San Juan la Laguna	12	San Juan la Laguna	7	Julio	2023-07-21T00:00:00	2024-11-08T20:00:00	5	Humedad	84
66901	7	Sololá	717	San Juan la Laguna	12	San Juan la Laguna	7	Julio	2023-07-21T00:00:00	2024-11-08T20:00:00	6	Velocidad del viento	0
66902	7	Sololá	717	San Juan la Laguna	12	San Juan la Laguna	7	Julio	2023-07-21T00:00:00	2024-11-08T20:00:00	7	Dirección del viento	0
66903	7	Sololá	717	San Juan la Laguna	12	San Juan la Laguna	7	Julio	2023-07-21T00:00:00	2024-11-08T20:00:00	1	Precipitación	0
66904	7	Sololá	717	San Juan la Laguna	12	San Juan la Laguna	7	Julio	2023-07-21T00:00:00	2024-11-08T20:00:00	8	Radiación solar	0
66905	7	Sololá	717	San Juan la Laguna	12	San Juan la Laguna	7	Julio	2023-07-21T00:00:00	2024-11-08T21:00:00	2	Temperatura media	20.3
66906	7	Sololá	717	San Juan la Laguna	12	San Juan la Laguna	7	Julio	2023-07-21T00:00:00	2024-11-08T21:00:00	4	Temperatura máxima	21.4
66907	7	Sololá	717	San Juan la Laguna	12	San Juan la Laguna	7	Julio	2023-07-21T00:00:00	2024-11-08T21:00:00	3	Temperatura mínima	20.3
66908	7	Sololá	717	San Juan la Laguna	12	San Juan la Laguna	7	Julio	2023-07-21T00:00:00	2024-11-08T21:00:00	5	Humedad	87
66909	7	Sololá	717	San Juan la Laguna	12	San Juan la Laguna	7	Julio	2023-07-21T00:00:00	2024-11-08T21:00:00	6	Velocidad del viento	0
66910	7	Sololá	717	San Juan la Laguna	12	San Juan la Laguna	7	Julio	2023-07-21T00:00:00	2024-11-08T21:00:00	7	Dirección del viento	0
66911	7	Sololá	717	San Juan la Laguna	12	San Juan la Laguna	7	Julio	2023-07-21T00:00:00	2024-11-08T21:00:00	1	Precipitación	0
66912	7	Sololá	717	San Juan la Laguna	12	San Juan la Laguna	7	Julio	2023-07-21T00:00:00	2024-11-08T21:00:00	8	Radiación solar	0
66913	7	Sololá	717	San Juan la Laguna	12	San Juan la Laguna	7	Julio	2023-07-21T00:00:00	2024-11-08T22:00:00	2	Temperatura media	19.9
66914	7	Sololá	717	San Juan la Laguna	12	San Juan la Laguna	7	Julio	2023-07-21T00:00:00	2024-11-08T22:00:00	4	Temperatura máxima	20.4
66915	7	Sololá	717	San Juan la Laguna	12	San Juan la Laguna	7	Julio	2023-07-21T00:00:00	2024-11-08T22:00:00	3	Temperatura mínima	19.9
66916	7	Sololá	717	San Juan la Laguna	12	San Juan la Laguna	7	Julio	2023-07-21T00:00:00	2024-11-08T22:00:00	5	Humedad	87
66917	7	Sololá	717	San Juan la Laguna	12	San Juan la Laguna	7	Julio	2023-07-21T00:00:00	2024-11-08T22:00:00	6	Velocidad del viento	0
66918	7	Sololá	717	San Juan la Laguna	12	San Juan la Laguna	7	Julio	2023-07-21T00:00:00	2024-11-08T22:00:00	7	Dirección del viento	0
66919	7	Sololá	717	San Juan la Laguna	12	San Juan la Laguna	7	Julio	2023-07-21T00:00:00	2024-11-08T22:00:00	1	Precipitación	0
66920	7	Sololá	717	San Juan la Laguna	12	San Juan la Laguna	7	Julio	2023-07-21T00:00:00	2024-11-08T22:00:00	8	Radiación solar	0
66921	7	Sololá	717	San Juan la Laguna	12	San Juan la Laguna	7	Julio	2023-07-21T00:00:00	2024-11-08T23:00:00	2	Temperatura media	19.1
66922	7	Sololá	717	San Juan la Laguna	12	San Juan la Laguna	7	Julio	2023-07-21T00:00:00	2024-11-08T23:00:00	4	Temperatura máxima	20
66923	7	Sololá	717	San Juan la Laguna	12	San Juan la Laguna	7	Julio	2023-07-21T00:00:00	2024-11-08T23:00:00	3	Temperatura mínima	19.1
66924	7	Sololá	717	San Juan la Laguna	12	San Juan la Laguna	7	Julio	2023-07-21T00:00:00	2024-11-08T23:00:00	5	Humedad	86
66925	7	Sololá	717	San Juan la Laguna	12	San Juan la Laguna	7	Julio	2023-07-21T00:00:00	2024-11-08T23:00:00	6	Velocidad del viento	0
66926	7	Sololá	717	San Juan la Laguna	12	San Juan la Laguna	7	Julio	2023-07-21T00:00:00	2024-11-08T23:00:00	7	Dirección del viento	0
66927	7	Sololá	717	San Juan la Laguna	12	San Juan la Laguna	7	Julio	2023-07-21T00:00:00	2024-11-08T23:00:00	1	Precipitación	0
66928	7	Sololá	717	San Juan la Laguna	12	San Juan la Laguna	7	Julio	2023-07-21T00:00:00	2024-11-08T23:00:00	8	Radiación solar	0
66929	7	Sololá	717	San Juan la Laguna	12	San Juan la Laguna	7	Julio	2023-07-22T00:00:00	2024-11-08T00:00:00	2	Temperatura media	18.6
66930	7	Sololá	717	San Juan la Laguna	12	San Juan la Laguna	7	Julio	2023-07-22T00:00:00	2024-11-08T00:00:00	4	Temperatura máxima	19.1
66931	7	Sololá	717	San Juan la Laguna	12	San Juan la Laguna	7	Julio	2023-07-22T00:00:00	2024-11-08T00:00:00	3	Temperatura mínima	18.5
66932	7	Sololá	717	San Juan la Laguna	12	San Juan la Laguna	7	Julio	2023-07-22T00:00:00	2024-11-08T00:00:00	5	Humedad	86
66933	7	Sololá	717	San Juan la Laguna	12	San Juan la Laguna	7	Julio	2023-07-22T00:00:00	2024-11-08T00:00:00	6	Velocidad del viento	1.6
66934	7	Sololá	717	San Juan la Laguna	12	San Juan la Laguna	7	Julio	2023-07-22T00:00:00	2024-11-08T00:00:00	7	Dirección del viento	1.61
66935	7	Sololá	717	San Juan la Laguna	12	San Juan la Laguna	7	Julio	2023-07-22T00:00:00	2024-11-08T00:00:00	1	Precipitación	0
66936	7	Sololá	717	San Juan la Laguna	12	San Juan la Laguna	7	Julio	2023-07-22T00:00:00	2024-11-08T00:00:00	8	Radiación solar	0
66937	7	Sololá	717	San Juan la Laguna	12	San Juan la Laguna	7	Julio	2023-07-22T00:00:00	2024-11-08T01:00:00	2	Temperatura media	18.3
66938	7	Sololá	717	San Juan la Laguna	12	San Juan la Laguna	7	Julio	2023-07-22T00:00:00	2024-11-08T01:00:00	4	Temperatura máxima	18.7
66939	7	Sololá	717	San Juan la Laguna	12	San Juan la Laguna	7	Julio	2023-07-22T00:00:00	2024-11-08T01:00:00	3	Temperatura mínima	18.3
66940	7	Sololá	717	San Juan la Laguna	12	San Juan la Laguna	7	Julio	2023-07-22T00:00:00	2024-11-08T01:00:00	5	Humedad	87
66941	7	Sololá	717	San Juan la Laguna	12	San Juan la Laguna	7	Julio	2023-07-22T00:00:00	2024-11-08T01:00:00	6	Velocidad del viento	0
66942	7	Sololá	717	San Juan la Laguna	12	San Juan la Laguna	7	Julio	2023-07-22T00:00:00	2024-11-08T01:00:00	7	Dirección del viento	0
66943	7	Sololá	717	San Juan la Laguna	12	San Juan la Laguna	7	Julio	2023-07-22T00:00:00	2024-11-08T01:00:00	1	Precipitación	0
66944	7	Sololá	717	San Juan la Laguna	12	San Juan la Laguna	7	Julio	2023-07-22T00:00:00	2024-11-08T01:00:00	8	Radiación solar	0
66945	7	Sololá	717	San Juan la Laguna	12	San Juan la Laguna	7	Julio	2023-07-22T00:00:00	2024-11-08T02:00:00	2	Temperatura media	17.8
66946	7	Sololá	717	San Juan la Laguna	12	San Juan la Laguna	7	Julio	2023-07-22T00:00:00	2024-11-08T02:00:00	4	Temperatura máxima	18.3
66947	7	Sololá	717	San Juan la Laguna	12	San Juan la Laguna	7	Julio	2023-07-22T00:00:00	2024-11-08T02:00:00	3	Temperatura mínima	17.8
66948	7	Sololá	717	San Juan la Laguna	12	San Juan la Laguna	7	Julio	2023-07-22T00:00:00	2024-11-08T02:00:00	5	Humedad	87
66949	7	Sololá	717	San Juan la Laguna	12	San Juan la Laguna	7	Julio	2023-07-22T00:00:00	2024-11-08T02:00:00	6	Velocidad del viento	0
66950	7	Sololá	717	San Juan la Laguna	12	San Juan la Laguna	7	Julio	2023-07-22T00:00:00	2024-11-08T02:00:00	7	Dirección del viento	0
66951	7	Sololá	717	San Juan la Laguna	12	San Juan la Laguna	7	Julio	2023-07-22T00:00:00	2024-11-08T02:00:00	1	Precipitación	0
66952	7	Sololá	717	San Juan la Laguna	12	San Juan la Laguna	7	Julio	2023-07-22T00:00:00	2024-11-08T02:00:00	8	Radiación solar	0
66953	7	Sololá	717	San Juan la Laguna	12	San Juan la Laguna	7	Julio	2023-07-22T00:00:00	2024-11-08T03:00:00	2	Temperatura media	17.9
66954	7	Sololá	717	San Juan la Laguna	12	San Juan la Laguna	7	Julio	2023-07-22T00:00:00	2024-11-08T03:00:00	4	Temperatura máxima	17.9
66955	7	Sololá	717	San Juan la Laguna	12	San Juan la Laguna	7	Julio	2023-07-22T00:00:00	2024-11-08T03:00:00	3	Temperatura mínima	17.6
66956	7	Sololá	717	San Juan la Laguna	12	San Juan la Laguna	7	Julio	2023-07-22T00:00:00	2024-11-08T03:00:00	5	Humedad	82
66957	7	Sololá	717	San Juan la Laguna	12	San Juan la Laguna	7	Julio	2023-07-22T00:00:00	2024-11-08T03:00:00	6	Velocidad del viento	1.6
66958	7	Sololá	717	San Juan la Laguna	12	San Juan la Laguna	7	Julio	2023-07-22T00:00:00	2024-11-08T03:00:00	7	Dirección del viento	1.61
66959	7	Sololá	717	San Juan la Laguna	12	San Juan la Laguna	7	Julio	2023-07-22T00:00:00	2024-11-08T03:00:00	1	Precipitación	0
66960	7	Sololá	717	San Juan la Laguna	12	San Juan la Laguna	7	Julio	2023-07-22T00:00:00	2024-11-08T03:00:00	8	Radiación solar	0
66961	7	Sololá	717	San Juan la Laguna	12	San Juan la Laguna	7	Julio	2023-07-22T00:00:00	2024-11-08T04:00:00	2	Temperatura media	17.5
66962	7	Sololá	717	San Juan la Laguna	12	San Juan la Laguna	7	Julio	2023-07-22T00:00:00	2024-11-08T04:00:00	4	Temperatura máxima	17.9
66963	7	Sololá	717	San Juan la Laguna	12	San Juan la Laguna	7	Julio	2023-07-22T00:00:00	2024-11-08T04:00:00	3	Temperatura mínima	17.3
66964	7	Sololá	717	San Juan la Laguna	12	San Juan la Laguna	7	Julio	2023-07-22T00:00:00	2024-11-08T04:00:00	5	Humedad	83
66965	7	Sololá	717	San Juan la Laguna	12	San Juan la Laguna	7	Julio	2023-07-22T00:00:00	2024-11-08T04:00:00	6	Velocidad del viento	1.6
66966	7	Sololá	717	San Juan la Laguna	12	San Juan la Laguna	7	Julio	2023-07-22T00:00:00	2024-11-08T04:00:00	7	Dirección del viento	1.61
66967	7	Sololá	717	San Juan la Laguna	12	San Juan la Laguna	7	Julio	2023-07-22T00:00:00	2024-11-08T04:00:00	1	Precipitación	0
66968	7	Sololá	717	San Juan la Laguna	12	San Juan la Laguna	7	Julio	2023-07-22T00:00:00	2024-11-08T04:00:00	8	Radiación solar	0
66969	7	Sololá	717	San Juan la Laguna	12	San Juan la Laguna	7	Julio	2023-07-22T00:00:00	2024-11-08T05:00:00	2	Temperatura media	16.9
66970	7	Sololá	717	San Juan la Laguna	12	San Juan la Laguna	7	Julio	2023-07-22T00:00:00	2024-11-08T05:00:00	4	Temperatura máxima	17.7
66971	7	Sololá	717	San Juan la Laguna	12	San Juan la Laguna	7	Julio	2023-07-22T00:00:00	2024-11-08T05:00:00	3	Temperatura mínima	16.8
66972	7	Sololá	717	San Juan la Laguna	12	San Juan la Laguna	7	Julio	2023-07-22T00:00:00	2024-11-08T05:00:00	5	Humedad	85
66973	7	Sololá	717	San Juan la Laguna	12	San Juan la Laguna	7	Julio	2023-07-22T00:00:00	2024-11-08T05:00:00	6	Velocidad del viento	0
66974	7	Sololá	717	San Juan la Laguna	12	San Juan la Laguna	7	Julio	2023-07-22T00:00:00	2024-11-08T05:00:00	7	Dirección del viento	0
66975	7	Sololá	717	San Juan la Laguna	12	San Juan la Laguna	7	Julio	2023-07-22T00:00:00	2024-11-08T05:00:00	1	Precipitación	0
66976	7	Sololá	717	San Juan la Laguna	12	San Juan la Laguna	7	Julio	2023-07-22T00:00:00	2024-11-08T05:00:00	8	Radiación solar	0
66977	7	Sololá	717	San Juan la Laguna	12	San Juan la Laguna	7	Julio	2023-07-22T00:00:00	2024-11-08T06:00:00	2	Temperatura media	16.8
66978	7	Sololá	717	San Juan la Laguna	12	San Juan la Laguna	7	Julio	2023-07-22T00:00:00	2024-11-08T06:00:00	4	Temperatura máxima	17.3
66979	7	Sololá	717	San Juan la Laguna	12	San Juan la Laguna	7	Julio	2023-07-22T00:00:00	2024-11-08T06:00:00	3	Temperatura mínima	16.8
66980	7	Sololá	717	San Juan la Laguna	12	San Juan la Laguna	7	Julio	2023-07-22T00:00:00	2024-11-08T06:00:00	5	Humedad	84
66981	7	Sololá	717	San Juan la Laguna	12	San Juan la Laguna	7	Julio	2023-07-22T00:00:00	2024-11-08T06:00:00	6	Velocidad del viento	0
66982	7	Sololá	717	San Juan la Laguna	12	San Juan la Laguna	7	Julio	2023-07-22T00:00:00	2024-11-08T06:00:00	7	Dirección del viento	0
66983	7	Sololá	717	San Juan la Laguna	12	San Juan la Laguna	7	Julio	2023-07-22T00:00:00	2024-11-08T06:00:00	1	Precipitación	0
66984	7	Sololá	717	San Juan la Laguna	12	San Juan la Laguna	7	Julio	2023-07-22T00:00:00	2024-11-08T06:00:00	8	Radiación solar	1
66985	7	Sololá	717	San Juan la Laguna	12	San Juan la Laguna	7	Julio	2023-07-22T00:00:00	2024-11-08T07:00:00	2	Temperatura media	18.5
66986	7	Sololá	717	San Juan la Laguna	12	San Juan la Laguna	7	Julio	2023-07-22T00:00:00	2024-11-08T07:00:00	4	Temperatura máxima	18.5
66987	7	Sololá	717	San Juan la Laguna	12	San Juan la Laguna	7	Julio	2023-07-22T00:00:00	2024-11-08T07:00:00	3	Temperatura mínima	16.8
66988	7	Sololá	717	San Juan la Laguna	12	San Juan la Laguna	7	Julio	2023-07-22T00:00:00	2024-11-08T07:00:00	5	Humedad	82
66989	7	Sololá	717	San Juan la Laguna	12	San Juan la Laguna	7	Julio	2023-07-22T00:00:00	2024-11-08T07:00:00	6	Velocidad del viento	1.6
66990	7	Sololá	717	San Juan la Laguna	12	San Juan la Laguna	7	Julio	2023-07-22T00:00:00	2024-11-08T07:00:00	7	Dirección del viento	1.61
66991	7	Sololá	717	San Juan la Laguna	12	San Juan la Laguna	7	Julio	2023-07-22T00:00:00	2024-11-08T07:00:00	1	Precipitación	0
66992	7	Sololá	717	San Juan la Laguna	12	San Juan la Laguna	7	Julio	2023-07-22T00:00:00	2024-11-08T07:00:00	8	Radiación solar	69
66993	7	Sololá	717	San Juan la Laguna	12	San Juan la Laguna	7	Julio	2023-07-22T00:00:00	2024-11-08T08:00:00	2	Temperatura media	21.9
66994	7	Sololá	717	San Juan la Laguna	12	San Juan la Laguna	7	Julio	2023-07-22T00:00:00	2024-11-08T08:00:00	4	Temperatura máxima	21.9
66995	7	Sololá	717	San Juan la Laguna	12	San Juan la Laguna	7	Julio	2023-07-22T00:00:00	2024-11-08T08:00:00	3	Temperatura mínima	18.6
66996	7	Sololá	717	San Juan la Laguna	12	San Juan la Laguna	7	Julio	2023-07-22T00:00:00	2024-11-08T08:00:00	5	Humedad	71
66997	7	Sololá	717	San Juan la Laguna	12	San Juan la Laguna	7	Julio	2023-07-22T00:00:00	2024-11-08T08:00:00	6	Velocidad del viento	0
66998	7	Sololá	717	San Juan la Laguna	12	San Juan la Laguna	7	Julio	2023-07-22T00:00:00	2024-11-08T08:00:00	7	Dirección del viento	0
66999	7	Sololá	717	San Juan la Laguna	12	San Juan la Laguna	7	Julio	2023-07-22T00:00:00	2024-11-08T08:00:00	1	Precipitación	0
67000	7	Sololá	717	San Juan la Laguna	12	San Juan la Laguna	7	Julio	2023-07-22T00:00:00	2024-11-08T08:00:00	8	Radiación solar	269
67001	7	Sololá	717	San Juan la Laguna	12	San Juan la Laguna	7	Julio	2023-07-22T00:00:00	2024-11-08T09:00:00	2	Temperatura media	23.1
67002	7	Sololá	717	San Juan la Laguna	12	San Juan la Laguna	7	Julio	2023-07-22T00:00:00	2024-11-08T09:00:00	4	Temperatura máxima	23.1
67003	7	Sololá	717	San Juan la Laguna	12	San Juan la Laguna	7	Julio	2023-07-22T00:00:00	2024-11-08T09:00:00	3	Temperatura mínima	21.9
67004	7	Sololá	717	San Juan la Laguna	12	San Juan la Laguna	7	Julio	2023-07-22T00:00:00	2024-11-08T09:00:00	5	Humedad	64
67005	7	Sololá	717	San Juan la Laguna	12	San Juan la Laguna	7	Julio	2023-07-22T00:00:00	2024-11-08T09:00:00	6	Velocidad del viento	0
67006	7	Sololá	717	San Juan la Laguna	12	San Juan la Laguna	7	Julio	2023-07-22T00:00:00	2024-11-08T09:00:00	7	Dirección del viento	0
67007	7	Sololá	717	San Juan la Laguna	12	San Juan la Laguna	7	Julio	2023-07-22T00:00:00	2024-11-08T09:00:00	1	Precipitación	0
67008	7	Sololá	717	San Juan la Laguna	12	San Juan la Laguna	7	Julio	2023-07-22T00:00:00	2024-11-08T09:00:00	8	Radiación solar	499
67009	7	Sololá	717	San Juan la Laguna	12	San Juan la Laguna	7	Julio	2023-07-22T00:00:00	2024-11-08T10:00:00	2	Temperatura media	24.2
67010	7	Sololá	717	San Juan la Laguna	12	San Juan la Laguna	7	Julio	2023-07-22T00:00:00	2024-11-08T10:00:00	4	Temperatura máxima	24.5
67011	7	Sololá	717	San Juan la Laguna	12	San Juan la Laguna	7	Julio	2023-07-22T00:00:00	2024-11-08T10:00:00	3	Temperatura mínima	23.1
67012	7	Sololá	717	San Juan la Laguna	12	San Juan la Laguna	7	Julio	2023-07-22T00:00:00	2024-11-08T10:00:00	5	Humedad	59
67013	7	Sololá	717	San Juan la Laguna	12	San Juan la Laguna	7	Julio	2023-07-22T00:00:00	2024-11-08T10:00:00	6	Velocidad del viento	0
67014	7	Sololá	717	San Juan la Laguna	12	San Juan la Laguna	7	Julio	2023-07-22T00:00:00	2024-11-08T10:00:00	7	Dirección del viento	0
67015	7	Sololá	717	San Juan la Laguna	12	San Juan la Laguna	7	Julio	2023-07-22T00:00:00	2024-11-08T10:00:00	1	Precipitación	0
67016	7	Sololá	717	San Juan la Laguna	12	San Juan la Laguna	7	Julio	2023-07-22T00:00:00	2024-11-08T10:00:00	8	Radiación solar	477
67017	7	Sololá	717	San Juan la Laguna	12	San Juan la Laguna	7	Julio	2023-07-22T00:00:00	2024-11-08T11:00:00	2	Temperatura media	25.7
67018	7	Sololá	717	San Juan la Laguna	12	San Juan la Laguna	7	Julio	2023-07-22T00:00:00	2024-11-08T11:00:00	4	Temperatura máxima	25.7
67019	7	Sololá	717	San Juan la Laguna	12	San Juan la Laguna	7	Julio	2023-07-22T00:00:00	2024-11-08T11:00:00	3	Temperatura mínima	24.1
67020	7	Sololá	717	San Juan la Laguna	12	San Juan la Laguna	7	Julio	2023-07-22T00:00:00	2024-11-08T11:00:00	5	Humedad	56
67021	7	Sololá	717	San Juan la Laguna	12	San Juan la Laguna	7	Julio	2023-07-22T00:00:00	2024-11-08T11:00:00	6	Velocidad del viento	0
67022	7	Sololá	717	San Juan la Laguna	12	San Juan la Laguna	7	Julio	2023-07-22T00:00:00	2024-11-08T11:00:00	7	Dirección del viento	0
67023	7	Sololá	717	San Juan la Laguna	12	San Juan la Laguna	7	Julio	2023-07-22T00:00:00	2024-11-08T11:00:00	1	Precipitación	0
67024	7	Sololá	717	San Juan la Laguna	12	San Juan la Laguna	7	Julio	2023-07-22T00:00:00	2024-11-08T11:00:00	8	Radiación solar	927
67025	7	Sololá	717	San Juan la Laguna	12	San Juan la Laguna	7	Julio	2023-07-22T00:00:00	2024-11-08T12:00:00	2	Temperatura media	26.1
67026	7	Sololá	717	San Juan la Laguna	12	San Juan la Laguna	7	Julio	2023-07-22T00:00:00	2024-11-08T12:00:00	4	Temperatura máxima	26.1
67027	7	Sololá	717	San Juan la Laguna	12	San Juan la Laguna	7	Julio	2023-07-22T00:00:00	2024-11-08T12:00:00	3	Temperatura mínima	25
67028	7	Sololá	717	San Juan la Laguna	12	San Juan la Laguna	7	Julio	2023-07-22T00:00:00	2024-11-08T12:00:00	5	Humedad	57
67029	7	Sololá	717	San Juan la Laguna	12	San Juan la Laguna	7	Julio	2023-07-22T00:00:00	2024-11-08T12:00:00	6	Velocidad del viento	0
67030	7	Sololá	717	San Juan la Laguna	12	San Juan la Laguna	7	Julio	2023-07-22T00:00:00	2024-11-08T12:00:00	7	Dirección del viento	0
67031	7	Sololá	717	San Juan la Laguna	12	San Juan la Laguna	7	Julio	2023-07-22T00:00:00	2024-11-08T12:00:00	1	Precipitación	0
67032	7	Sololá	717	San Juan la Laguna	12	San Juan la Laguna	7	Julio	2023-07-22T00:00:00	2024-11-08T12:00:00	8	Radiación solar	888
67033	7	Sololá	717	San Juan la Laguna	12	San Juan la Laguna	7	Julio	2023-07-22T00:00:00	2024-11-08T13:00:00	2	Temperatura media	23.4
67034	7	Sololá	717	San Juan la Laguna	12	San Juan la Laguna	7	Julio	2023-07-22T00:00:00	2024-11-08T13:00:00	4	Temperatura máxima	26
67035	7	Sololá	717	San Juan la Laguna	12	San Juan la Laguna	7	Julio	2023-07-22T00:00:00	2024-11-08T13:00:00	3	Temperatura mínima	23.3
67036	7	Sololá	717	San Juan la Laguna	12	San Juan la Laguna	7	Julio	2023-07-22T00:00:00	2024-11-08T13:00:00	5	Humedad	72
67037	7	Sololá	717	San Juan la Laguna	12	San Juan la Laguna	7	Julio	2023-07-22T00:00:00	2024-11-08T13:00:00	6	Velocidad del viento	3.2
67038	7	Sololá	717	San Juan la Laguna	12	San Juan la Laguna	7	Julio	2023-07-22T00:00:00	2024-11-08T13:00:00	7	Dirección del viento	3.22
67039	7	Sololá	717	San Juan la Laguna	12	San Juan la Laguna	7	Julio	2023-07-22T00:00:00	2024-11-08T13:00:00	1	Precipitación	0
67040	7	Sololá	717	San Juan la Laguna	12	San Juan la Laguna	7	Julio	2023-07-22T00:00:00	2024-11-08T13:00:00	8	Radiación solar	576
67041	7	Sololá	717	San Juan la Laguna	12	San Juan la Laguna	7	Julio	2023-07-22T00:00:00	2024-11-08T14:00:00	2	Temperatura media	20
67042	7	Sololá	717	San Juan la Laguna	12	San Juan la Laguna	7	Julio	2023-07-22T00:00:00	2024-11-08T14:00:00	4	Temperatura máxima	23.4
67043	7	Sololá	717	San Juan la Laguna	12	San Juan la Laguna	7	Julio	2023-07-22T00:00:00	2024-11-08T14:00:00	3	Temperatura mínima	20
67044	7	Sololá	717	San Juan la Laguna	12	San Juan la Laguna	7	Julio	2023-07-22T00:00:00	2024-11-08T14:00:00	5	Humedad	77
67045	7	Sololá	717	San Juan la Laguna	12	San Juan la Laguna	7	Julio	2023-07-22T00:00:00	2024-11-08T14:00:00	6	Velocidad del viento	8
67046	7	Sololá	717	San Juan la Laguna	12	San Juan la Laguna	7	Julio	2023-07-22T00:00:00	2024-11-08T14:00:00	7	Dirección del viento	8.05
67047	7	Sololá	717	San Juan la Laguna	12	San Juan la Laguna	7	Julio	2023-07-22T00:00:00	2024-11-08T14:00:00	1	Precipitación	0
67048	7	Sololá	717	San Juan la Laguna	12	San Juan la Laguna	7	Julio	2023-07-22T00:00:00	2024-11-08T14:00:00	8	Radiación solar	112
67049	7	Sololá	717	San Juan la Laguna	12	San Juan la Laguna	7	Julio	2023-07-22T00:00:00	2024-11-08T15:00:00	2	Temperatura media	20.1
67050	7	Sololá	717	San Juan la Laguna	12	San Juan la Laguna	7	Julio	2023-07-22T00:00:00	2024-11-08T15:00:00	4	Temperatura máxima	20.2
67051	7	Sololá	717	San Juan la Laguna	12	San Juan la Laguna	7	Julio	2023-07-22T00:00:00	2024-11-08T15:00:00	3	Temperatura mínima	19.8
67052	7	Sololá	717	San Juan la Laguna	12	San Juan la Laguna	7	Julio	2023-07-22T00:00:00	2024-11-08T15:00:00	5	Humedad	79
67053	7	Sololá	717	San Juan la Laguna	12	San Juan la Laguna	7	Julio	2023-07-22T00:00:00	2024-11-08T15:00:00	6	Velocidad del viento	0
67054	7	Sololá	717	San Juan la Laguna	12	San Juan la Laguna	7	Julio	2023-07-22T00:00:00	2024-11-08T15:00:00	7	Dirección del viento	0
67055	7	Sololá	717	San Juan la Laguna	12	San Juan la Laguna	7	Julio	2023-07-22T00:00:00	2024-11-08T15:00:00	1	Precipitación	0
67056	7	Sololá	717	San Juan la Laguna	12	San Juan la Laguna	7	Julio	2023-07-22T00:00:00	2024-11-08T15:00:00	8	Radiación solar	143
67057	7	Sololá	717	San Juan la Laguna	12	San Juan la Laguna	7	Julio	2023-07-22T00:00:00	2024-11-08T16:00:00	2	Temperatura media	19.2
67058	7	Sololá	717	San Juan la Laguna	12	San Juan la Laguna	7	Julio	2023-07-22T00:00:00	2024-11-08T16:00:00	4	Temperatura máxima	20.3
67059	7	Sololá	717	San Juan la Laguna	12	San Juan la Laguna	7	Julio	2023-07-22T00:00:00	2024-11-08T16:00:00	3	Temperatura mínima	19.2
67060	7	Sololá	717	San Juan la Laguna	12	San Juan la Laguna	7	Julio	2023-07-22T00:00:00	2024-11-08T16:00:00	5	Humedad	85
67061	7	Sololá	717	San Juan la Laguna	12	San Juan la Laguna	7	Julio	2023-07-22T00:00:00	2024-11-08T16:00:00	6	Velocidad del viento	0
67062	7	Sololá	717	San Juan la Laguna	12	San Juan la Laguna	7	Julio	2023-07-22T00:00:00	2024-11-08T16:00:00	7	Dirección del viento	0
67063	7	Sololá	717	San Juan la Laguna	12	San Juan la Laguna	7	Julio	2023-07-22T00:00:00	2024-11-08T16:00:00	1	Precipitación	0
67064	7	Sololá	717	San Juan la Laguna	12	San Juan la Laguna	7	Julio	2023-07-22T00:00:00	2024-11-08T16:00:00	8	Radiación solar	66
67065	7	Sololá	717	San Juan la Laguna	12	San Juan la Laguna	7	Julio	2023-07-22T00:00:00	2024-11-08T17:00:00	2	Temperatura media	19.6
67066	7	Sololá	717	San Juan la Laguna	12	San Juan la Laguna	7	Julio	2023-07-22T00:00:00	2024-11-08T17:00:00	4	Temperatura máxima	19.8
67067	7	Sololá	717	San Juan la Laguna	12	San Juan la Laguna	7	Julio	2023-07-22T00:00:00	2024-11-08T17:00:00	3	Temperatura mínima	19.1
67068	7	Sololá	717	San Juan la Laguna	12	San Juan la Laguna	7	Julio	2023-07-22T00:00:00	2024-11-08T17:00:00	5	Humedad	83
67069	7	Sololá	717	San Juan la Laguna	12	San Juan la Laguna	7	Julio	2023-07-22T00:00:00	2024-11-08T17:00:00	6	Velocidad del viento	1.6
67070	7	Sololá	717	San Juan la Laguna	12	San Juan la Laguna	7	Julio	2023-07-22T00:00:00	2024-11-08T17:00:00	7	Dirección del viento	1.61
67071	7	Sololá	717	San Juan la Laguna	12	San Juan la Laguna	7	Julio	2023-07-22T00:00:00	2024-11-08T17:00:00	1	Precipitación	0
67072	7	Sololá	717	San Juan la Laguna	12	San Juan la Laguna	7	Julio	2023-07-22T00:00:00	2024-11-08T17:00:00	8	Radiación solar	30
67073	7	Sololá	717	San Juan la Laguna	12	San Juan la Laguna	7	Julio	2023-07-22T00:00:00	2024-11-08T18:00:00	2	Temperatura media	19
67074	7	Sololá	717	San Juan la Laguna	12	San Juan la Laguna	7	Julio	2023-07-22T00:00:00	2024-11-08T18:00:00	4	Temperatura máxima	19.8
67075	7	Sololá	717	San Juan la Laguna	12	San Juan la Laguna	7	Julio	2023-07-22T00:00:00	2024-11-08T18:00:00	3	Temperatura mínima	19
67076	7	Sololá	717	San Juan la Laguna	12	San Juan la Laguna	7	Julio	2023-07-22T00:00:00	2024-11-08T18:00:00	5	Humedad	87
67077	7	Sololá	717	San Juan la Laguna	12	San Juan la Laguna	7	Julio	2023-07-22T00:00:00	2024-11-08T18:00:00	6	Velocidad del viento	0
67078	7	Sololá	717	San Juan la Laguna	12	San Juan la Laguna	7	Julio	2023-07-22T00:00:00	2024-11-08T18:00:00	7	Dirección del viento	0
67079	7	Sololá	717	San Juan la Laguna	12	San Juan la Laguna	7	Julio	2023-07-22T00:00:00	2024-11-08T18:00:00	1	Precipitación	0
67080	7	Sololá	717	San Juan la Laguna	12	San Juan la Laguna	7	Julio	2023-07-22T00:00:00	2024-11-08T18:00:00	8	Radiación solar	26
67081	7	Sololá	717	San Juan la Laguna	12	San Juan la Laguna	7	Julio	2023-07-22T00:00:00	2024-11-08T19:00:00	2	Temperatura media	18.7
67082	7	Sololá	717	San Juan la Laguna	12	San Juan la Laguna	7	Julio	2023-07-22T00:00:00	2024-11-08T19:00:00	4	Temperatura máxima	19.3
67083	7	Sololá	717	San Juan la Laguna	12	San Juan la Laguna	7	Julio	2023-07-22T00:00:00	2024-11-08T19:00:00	3	Temperatura mínima	18.7
67084	7	Sololá	717	San Juan la Laguna	12	San Juan la Laguna	7	Julio	2023-07-22T00:00:00	2024-11-08T19:00:00	5	Humedad	88
67085	7	Sololá	717	San Juan la Laguna	12	San Juan la Laguna	7	Julio	2023-07-22T00:00:00	2024-11-08T19:00:00	6	Velocidad del viento	0
67086	7	Sololá	717	San Juan la Laguna	12	San Juan la Laguna	7	Julio	2023-07-22T00:00:00	2024-11-08T19:00:00	7	Dirección del viento	0
67087	7	Sololá	717	San Juan la Laguna	12	San Juan la Laguna	7	Julio	2023-07-22T00:00:00	2024-11-08T19:00:00	1	Precipitación	0
67088	7	Sololá	717	San Juan la Laguna	12	San Juan la Laguna	7	Julio	2023-07-22T00:00:00	2024-11-08T19:00:00	8	Radiación solar	0
67089	7	Sololá	717	San Juan la Laguna	12	San Juan la Laguna	7	Julio	2023-07-22T00:00:00	2024-11-08T20:00:00	2	Temperatura media	17.9
67090	7	Sololá	717	San Juan la Laguna	12	San Juan la Laguna	7	Julio	2023-07-22T00:00:00	2024-11-08T20:00:00	4	Temperatura máxima	18.7
67091	7	Sololá	717	San Juan la Laguna	12	San Juan la Laguna	7	Julio	2023-07-22T00:00:00	2024-11-08T20:00:00	3	Temperatura mínima	17.9
67092	7	Sololá	717	San Juan la Laguna	12	San Juan la Laguna	7	Julio	2023-07-22T00:00:00	2024-11-08T20:00:00	5	Humedad	89
67093	7	Sololá	717	San Juan la Laguna	12	San Juan la Laguna	7	Julio	2023-07-22T00:00:00	2024-11-08T20:00:00	6	Velocidad del viento	0
67094	7	Sololá	717	San Juan la Laguna	12	San Juan la Laguna	7	Julio	2023-07-22T00:00:00	2024-11-08T20:00:00	7	Dirección del viento	0
67095	7	Sololá	717	San Juan la Laguna	12	San Juan la Laguna	7	Julio	2023-07-22T00:00:00	2024-11-08T20:00:00	1	Precipitación	0
67096	7	Sololá	717	San Juan la Laguna	12	San Juan la Laguna	7	Julio	2023-07-22T00:00:00	2024-11-08T20:00:00	8	Radiación solar	0
67097	7	Sololá	717	San Juan la Laguna	12	San Juan la Laguna	7	Julio	2023-07-22T00:00:00	2024-11-08T21:00:00	2	Temperatura media	17.9
67098	7	Sololá	717	San Juan la Laguna	12	San Juan la Laguna	7	Julio	2023-07-22T00:00:00	2024-11-08T21:00:00	4	Temperatura máxima	17.9
67099	7	Sololá	717	San Juan la Laguna	12	San Juan la Laguna	7	Julio	2023-07-22T00:00:00	2024-11-08T21:00:00	3	Temperatura mínima	17.7
67100	7	Sololá	717	San Juan la Laguna	12	San Juan la Laguna	7	Julio	2023-07-22T00:00:00	2024-11-08T21:00:00	5	Humedad	87
67101	7	Sololá	717	San Juan la Laguna	12	San Juan la Laguna	7	Julio	2023-07-22T00:00:00	2024-11-08T21:00:00	6	Velocidad del viento	3.2
67102	7	Sololá	717	San Juan la Laguna	12	San Juan la Laguna	7	Julio	2023-07-22T00:00:00	2024-11-08T21:00:00	7	Dirección del viento	3.22
67103	7	Sololá	717	San Juan la Laguna	12	San Juan la Laguna	7	Julio	2023-07-22T00:00:00	2024-11-08T21:00:00	1	Precipitación	0
67104	7	Sololá	717	San Juan la Laguna	12	San Juan la Laguna	7	Julio	2023-07-22T00:00:00	2024-11-08T21:00:00	8	Radiación solar	0
67105	7	Sololá	717	San Juan la Laguna	12	San Juan la Laguna	7	Julio	2023-07-22T00:00:00	2024-11-08T22:00:00	2	Temperatura media	17.2
67106	7	Sololá	717	San Juan la Laguna	12	San Juan la Laguna	7	Julio	2023-07-22T00:00:00	2024-11-08T22:00:00	4	Temperatura máxima	17.9
67107	7	Sololá	717	San Juan la Laguna	12	San Juan la Laguna	7	Julio	2023-07-22T00:00:00	2024-11-08T22:00:00	3	Temperatura mínima	17.1
67108	7	Sololá	717	San Juan la Laguna	12	San Juan la Laguna	7	Julio	2023-07-22T00:00:00	2024-11-08T22:00:00	5	Humedad	87
67109	7	Sololá	717	San Juan la Laguna	12	San Juan la Laguna	7	Julio	2023-07-22T00:00:00	2024-11-08T22:00:00	6	Velocidad del viento	0
67110	7	Sololá	717	San Juan la Laguna	12	San Juan la Laguna	7	Julio	2023-07-22T00:00:00	2024-11-08T22:00:00	7	Dirección del viento	0
67111	7	Sololá	717	San Juan la Laguna	12	San Juan la Laguna	7	Julio	2023-07-22T00:00:00	2024-11-08T22:00:00	1	Precipitación	0
67112	7	Sololá	717	San Juan la Laguna	12	San Juan la Laguna	7	Julio	2023-07-22T00:00:00	2024-11-08T22:00:00	8	Radiación solar	0
67113	7	Sololá	717	San Juan la Laguna	12	San Juan la Laguna	7	Julio	2023-07-22T00:00:00	2024-11-08T23:00:00	2	Temperatura media	16.8
67114	7	Sololá	717	San Juan la Laguna	12	San Juan la Laguna	7	Julio	2023-07-22T00:00:00	2024-11-08T23:00:00	4	Temperatura máxima	17.2
67115	7	Sololá	717	San Juan la Laguna	12	San Juan la Laguna	7	Julio	2023-07-22T00:00:00	2024-11-08T23:00:00	3	Temperatura mínima	16.8
67116	7	Sololá	717	San Juan la Laguna	12	San Juan la Laguna	7	Julio	2023-07-22T00:00:00	2024-11-08T23:00:00	5	Humedad	87
67117	7	Sololá	717	San Juan la Laguna	12	San Juan la Laguna	7	Julio	2023-07-22T00:00:00	2024-11-08T23:00:00	6	Velocidad del viento	0
67118	7	Sololá	717	San Juan la Laguna	12	San Juan la Laguna	7	Julio	2023-07-22T00:00:00	2024-11-08T23:00:00	7	Dirección del viento	0
67119	7	Sololá	717	San Juan la Laguna	12	San Juan la Laguna	7	Julio	2023-07-22T00:00:00	2024-11-08T23:00:00	1	Precipitación	0
67120	7	Sololá	717	San Juan la Laguna	12	San Juan la Laguna	7	Julio	2023-07-22T00:00:00	2024-11-08T23:00:00	8	Radiación solar	0
67121	7	Sololá	717	San Juan la Laguna	12	San Juan la Laguna	7	Julio	2023-07-23T00:00:00	2024-11-08T00:00:00	2	Temperatura media	16.9
67122	7	Sololá	717	San Juan la Laguna	12	San Juan la Laguna	7	Julio	2023-07-23T00:00:00	2024-11-08T00:00:00	4	Temperatura máxima	17
67123	7	Sololá	717	San Juan la Laguna	12	San Juan la Laguna	7	Julio	2023-07-23T00:00:00	2024-11-08T00:00:00	3	Temperatura mínima	16.6
67124	7	Sololá	717	San Juan la Laguna	12	San Juan la Laguna	7	Julio	2023-07-23T00:00:00	2024-11-08T00:00:00	5	Humedad	87
67125	7	Sololá	717	San Juan la Laguna	12	San Juan la Laguna	7	Julio	2023-07-23T00:00:00	2024-11-08T00:00:00	6	Velocidad del viento	1.6
67126	7	Sololá	717	San Juan la Laguna	12	San Juan la Laguna	7	Julio	2023-07-23T00:00:00	2024-11-08T00:00:00	7	Dirección del viento	1.61
67127	7	Sololá	717	San Juan la Laguna	12	San Juan la Laguna	7	Julio	2023-07-23T00:00:00	2024-11-08T00:00:00	1	Precipitación	0
67128	7	Sololá	717	San Juan la Laguna	12	San Juan la Laguna	7	Julio	2023-07-23T00:00:00	2024-11-08T00:00:00	8	Radiación solar	0
67129	7	Sololá	717	San Juan la Laguna	12	San Juan la Laguna	7	Julio	2023-07-23T00:00:00	2024-11-08T01:00:00	2	Temperatura media	16.7
67130	7	Sololá	717	San Juan la Laguna	12	San Juan la Laguna	7	Julio	2023-07-23T00:00:00	2024-11-08T01:00:00	4	Temperatura máxima	16.9
67131	7	Sololá	717	San Juan la Laguna	12	San Juan la Laguna	7	Julio	2023-07-23T00:00:00	2024-11-08T01:00:00	3	Temperatura mínima	16.7
67132	7	Sololá	717	San Juan la Laguna	12	San Juan la Laguna	7	Julio	2023-07-23T00:00:00	2024-11-08T01:00:00	5	Humedad	86
67133	7	Sololá	717	San Juan la Laguna	12	San Juan la Laguna	7	Julio	2023-07-23T00:00:00	2024-11-08T01:00:00	6	Velocidad del viento	1.6
67134	7	Sololá	717	San Juan la Laguna	12	San Juan la Laguna	7	Julio	2023-07-23T00:00:00	2024-11-08T01:00:00	7	Dirección del viento	1.61
67135	7	Sololá	717	San Juan la Laguna	12	San Juan la Laguna	7	Julio	2023-07-23T00:00:00	2024-11-08T01:00:00	1	Precipitación	0
67136	7	Sololá	717	San Juan la Laguna	12	San Juan la Laguna	7	Julio	2023-07-23T00:00:00	2024-11-08T01:00:00	8	Radiación solar	0
67137	7	Sololá	717	San Juan la Laguna	12	San Juan la Laguna	7	Julio	2023-07-23T00:00:00	2024-11-08T02:00:00	2	Temperatura media	16.7
67138	7	Sololá	717	San Juan la Laguna	12	San Juan la Laguna	7	Julio	2023-07-23T00:00:00	2024-11-08T02:00:00	4	Temperatura máxima	16.8
67139	7	Sololá	717	San Juan la Laguna	12	San Juan la Laguna	7	Julio	2023-07-23T00:00:00	2024-11-08T02:00:00	3	Temperatura mínima	16.6
67140	7	Sololá	717	San Juan la Laguna	12	San Juan la Laguna	7	Julio	2023-07-23T00:00:00	2024-11-08T02:00:00	5	Humedad	86
67141	7	Sololá	717	San Juan la Laguna	12	San Juan la Laguna	7	Julio	2023-07-23T00:00:00	2024-11-08T02:00:00	6	Velocidad del viento	1.6
67142	7	Sololá	717	San Juan la Laguna	12	San Juan la Laguna	7	Julio	2023-07-23T00:00:00	2024-11-08T02:00:00	7	Dirección del viento	1.61
67143	7	Sololá	717	San Juan la Laguna	12	San Juan la Laguna	7	Julio	2023-07-23T00:00:00	2024-11-08T02:00:00	1	Precipitación	0
67144	7	Sololá	717	San Juan la Laguna	12	San Juan la Laguna	7	Julio	2023-07-23T00:00:00	2024-11-08T02:00:00	8	Radiación solar	0
67145	7	Sololá	717	San Juan la Laguna	12	San Juan la Laguna	7	Julio	2023-07-23T00:00:00	2024-11-08T03:00:00	2	Temperatura media	16.3
67146	7	Sololá	717	San Juan la Laguna	12	San Juan la Laguna	7	Julio	2023-07-23T00:00:00	2024-11-08T03:00:00	4	Temperatura máxima	16.7
67147	7	Sololá	717	San Juan la Laguna	12	San Juan la Laguna	7	Julio	2023-07-23T00:00:00	2024-11-08T03:00:00	3	Temperatura mínima	15.9
67148	7	Sololá	717	San Juan la Laguna	12	San Juan la Laguna	7	Julio	2023-07-23T00:00:00	2024-11-08T03:00:00	5	Humedad	86
67149	7	Sololá	717	San Juan la Laguna	12	San Juan la Laguna	7	Julio	2023-07-23T00:00:00	2024-11-08T03:00:00	6	Velocidad del viento	1.6
67150	7	Sololá	717	San Juan la Laguna	12	San Juan la Laguna	7	Julio	2023-07-23T00:00:00	2024-11-08T03:00:00	7	Dirección del viento	1.61
67151	7	Sololá	717	San Juan la Laguna	12	San Juan la Laguna	7	Julio	2023-07-23T00:00:00	2024-11-08T03:00:00	1	Precipitación	0
67152	7	Sololá	717	San Juan la Laguna	12	San Juan la Laguna	7	Julio	2023-07-23T00:00:00	2024-11-08T03:00:00	8	Radiación solar	0
67153	7	Sololá	717	San Juan la Laguna	12	San Juan la Laguna	7	Julio	2023-07-23T00:00:00	2024-11-08T04:00:00	2	Temperatura media	15.9
67154	7	Sololá	717	San Juan la Laguna	12	San Juan la Laguna	7	Julio	2023-07-23T00:00:00	2024-11-08T04:00:00	4	Temperatura máxima	16.5
67155	7	Sololá	717	San Juan la Laguna	12	San Juan la Laguna	7	Julio	2023-07-23T00:00:00	2024-11-08T04:00:00	3	Temperatura mínima	15.9
67156	7	Sololá	717	San Juan la Laguna	12	San Juan la Laguna	7	Julio	2023-07-23T00:00:00	2024-11-08T04:00:00	5	Humedad	88
67157	7	Sololá	717	San Juan la Laguna	12	San Juan la Laguna	7	Julio	2023-07-23T00:00:00	2024-11-08T04:00:00	6	Velocidad del viento	0
67158	7	Sololá	717	San Juan la Laguna	12	San Juan la Laguna	7	Julio	2023-07-23T00:00:00	2024-11-08T04:00:00	7	Dirección del viento	0
67159	7	Sololá	717	San Juan la Laguna	12	San Juan la Laguna	7	Julio	2023-07-23T00:00:00	2024-11-08T04:00:00	1	Precipitación	0
67160	7	Sololá	717	San Juan la Laguna	12	San Juan la Laguna	7	Julio	2023-07-23T00:00:00	2024-11-08T04:00:00	8	Radiación solar	0
67161	7	Sololá	717	San Juan la Laguna	12	San Juan la Laguna	7	Julio	2023-07-23T00:00:00	2024-11-08T05:00:00	2	Temperatura media	16.2
67162	7	Sololá	717	San Juan la Laguna	12	San Juan la Laguna	7	Julio	2023-07-23T00:00:00	2024-11-08T05:00:00	4	Temperatura máxima	16.2
67163	7	Sololá	717	San Juan la Laguna	12	San Juan la Laguna	7	Julio	2023-07-23T00:00:00	2024-11-08T05:00:00	3	Temperatura mínima	15.8
67164	7	Sololá	717	San Juan la Laguna	12	San Juan la Laguna	7	Julio	2023-07-23T00:00:00	2024-11-08T05:00:00	5	Humedad	88
67165	7	Sololá	717	San Juan la Laguna	12	San Juan la Laguna	7	Julio	2023-07-23T00:00:00	2024-11-08T05:00:00	6	Velocidad del viento	0
67166	7	Sololá	717	San Juan la Laguna	12	San Juan la Laguna	7	Julio	2023-07-23T00:00:00	2024-11-08T05:00:00	7	Dirección del viento	0
67167	7	Sololá	717	San Juan la Laguna	12	San Juan la Laguna	7	Julio	2023-07-23T00:00:00	2024-11-08T05:00:00	1	Precipitación	0
67168	7	Sololá	717	San Juan la Laguna	12	San Juan la Laguna	7	Julio	2023-07-23T00:00:00	2024-11-08T05:00:00	8	Radiación solar	0
67169	7	Sololá	717	San Juan la Laguna	12	San Juan la Laguna	7	Julio	2023-07-23T00:00:00	2024-11-08T06:00:00	2	Temperatura media	16.2
67170	7	Sololá	717	San Juan la Laguna	12	San Juan la Laguna	7	Julio	2023-07-23T00:00:00	2024-11-08T06:00:00	4	Temperatura máxima	16.3
67171	7	Sololá	717	San Juan la Laguna	12	San Juan la Laguna	7	Julio	2023-07-23T00:00:00	2024-11-08T06:00:00	3	Temperatura mínima	16.1
67172	7	Sololá	717	San Juan la Laguna	12	San Juan la Laguna	7	Julio	2023-07-23T00:00:00	2024-11-08T06:00:00	5	Humedad	88
67173	7	Sololá	717	San Juan la Laguna	12	San Juan la Laguna	7	Julio	2023-07-23T00:00:00	2024-11-08T06:00:00	6	Velocidad del viento	1.6
67174	7	Sololá	717	San Juan la Laguna	12	San Juan la Laguna	7	Julio	2023-07-23T00:00:00	2024-11-08T06:00:00	7	Dirección del viento	1.61
67175	7	Sololá	717	San Juan la Laguna	12	San Juan la Laguna	7	Julio	2023-07-23T00:00:00	2024-11-08T06:00:00	1	Precipitación	0
67176	7	Sololá	717	San Juan la Laguna	12	San Juan la Laguna	7	Julio	2023-07-23T00:00:00	2024-11-08T06:00:00	8	Radiación solar	1
67177	7	Sololá	717	San Juan la Laguna	12	San Juan la Laguna	7	Julio	2023-07-23T00:00:00	2024-11-08T07:00:00	2	Temperatura media	17.6
67178	7	Sololá	717	San Juan la Laguna	12	San Juan la Laguna	7	Julio	2023-07-23T00:00:00	2024-11-08T07:00:00	4	Temperatura máxima	17.6
67179	7	Sololá	717	San Juan la Laguna	12	San Juan la Laguna	7	Julio	2023-07-23T00:00:00	2024-11-08T07:00:00	3	Temperatura mínima	15.7
67180	7	Sololá	717	San Juan la Laguna	12	San Juan la Laguna	7	Julio	2023-07-23T00:00:00	2024-11-08T07:00:00	5	Humedad	85
67181	7	Sololá	717	San Juan la Laguna	12	San Juan la Laguna	7	Julio	2023-07-23T00:00:00	2024-11-08T07:00:00	6	Velocidad del viento	0
67182	7	Sololá	717	San Juan la Laguna	12	San Juan la Laguna	7	Julio	2023-07-23T00:00:00	2024-11-08T07:00:00	7	Dirección del viento	0
67183	7	Sololá	717	San Juan la Laguna	12	San Juan la Laguna	7	Julio	2023-07-23T00:00:00	2024-11-08T07:00:00	1	Precipitación	0
67184	7	Sololá	717	San Juan la Laguna	12	San Juan la Laguna	7	Julio	2023-07-23T00:00:00	2024-11-08T07:00:00	8	Radiación solar	72
67185	7	Sololá	717	San Juan la Laguna	12	San Juan la Laguna	7	Julio	2023-07-23T00:00:00	2024-11-08T08:00:00	2	Temperatura media	21.4
67186	7	Sololá	717	San Juan la Laguna	12	San Juan la Laguna	7	Julio	2023-07-23T00:00:00	2024-11-08T08:00:00	4	Temperatura máxima	21.4
67187	7	Sololá	717	San Juan la Laguna	12	San Juan la Laguna	7	Julio	2023-07-23T00:00:00	2024-11-08T08:00:00	3	Temperatura mínima	17.6
67188	7	Sololá	717	San Juan la Laguna	12	San Juan la Laguna	7	Julio	2023-07-23T00:00:00	2024-11-08T08:00:00	5	Humedad	73
67189	7	Sololá	717	San Juan la Laguna	12	San Juan la Laguna	7	Julio	2023-07-23T00:00:00	2024-11-08T08:00:00	6	Velocidad del viento	0
67190	7	Sololá	717	San Juan la Laguna	12	San Juan la Laguna	7	Julio	2023-07-23T00:00:00	2024-11-08T08:00:00	7	Dirección del viento	0
67191	7	Sololá	717	San Juan la Laguna	12	San Juan la Laguna	7	Julio	2023-07-23T00:00:00	2024-11-08T08:00:00	1	Precipitación	0
67192	7	Sololá	717	San Juan la Laguna	12	San Juan la Laguna	7	Julio	2023-07-23T00:00:00	2024-11-08T08:00:00	8	Radiación solar	269
67193	7	Sololá	717	San Juan la Laguna	12	San Juan la Laguna	7	Julio	2023-07-23T00:00:00	2024-11-08T09:00:00	2	Temperatura media	22.4
67194	7	Sololá	717	San Juan la Laguna	12	San Juan la Laguna	7	Julio	2023-07-23T00:00:00	2024-11-08T09:00:00	4	Temperatura máxima	22.5
67195	7	Sololá	717	San Juan la Laguna	12	San Juan la Laguna	7	Julio	2023-07-23T00:00:00	2024-11-08T09:00:00	3	Temperatura mínima	20.9
67196	7	Sololá	717	San Juan la Laguna	12	San Juan la Laguna	7	Julio	2023-07-23T00:00:00	2024-11-08T09:00:00	5	Humedad	70
67197	7	Sololá	717	San Juan la Laguna	12	San Juan la Laguna	7	Julio	2023-07-23T00:00:00	2024-11-08T09:00:00	6	Velocidad del viento	0
67198	7	Sololá	717	San Juan la Laguna	12	San Juan la Laguna	7	Julio	2023-07-23T00:00:00	2024-11-08T09:00:00	7	Dirección del viento	0
67199	7	Sololá	717	San Juan la Laguna	12	San Juan la Laguna	7	Julio	2023-07-23T00:00:00	2024-11-08T09:00:00	1	Precipitación	0
67200	7	Sololá	717	San Juan la Laguna	12	San Juan la Laguna	7	Julio	2023-07-23T00:00:00	2024-11-08T09:00:00	8	Radiación solar	442
67201	7	Sololá	717	San Juan la Laguna	12	San Juan la Laguna	7	Julio	2023-07-23T00:00:00	2024-11-08T10:00:00	2	Temperatura media	24.2
67202	7	Sololá	717	San Juan la Laguna	12	San Juan la Laguna	7	Julio	2023-07-23T00:00:00	2024-11-08T10:00:00	4	Temperatura máxima	24.3
67203	7	Sololá	717	San Juan la Laguna	12	San Juan la Laguna	7	Julio	2023-07-23T00:00:00	2024-11-08T10:00:00	3	Temperatura mínima	22.4
67204	7	Sololá	717	San Juan la Laguna	12	San Juan la Laguna	7	Julio	2023-07-23T00:00:00	2024-11-08T10:00:00	5	Humedad	59
67205	7	Sololá	717	San Juan la Laguna	12	San Juan la Laguna	7	Julio	2023-07-23T00:00:00	2024-11-08T10:00:00	6	Velocidad del viento	0
67206	7	Sololá	717	San Juan la Laguna	12	San Juan la Laguna	7	Julio	2023-07-23T00:00:00	2024-11-08T10:00:00	7	Dirección del viento	0
67207	7	Sololá	717	San Juan la Laguna	12	San Juan la Laguna	7	Julio	2023-07-23T00:00:00	2024-11-08T10:00:00	1	Precipitación	0
67208	7	Sololá	717	San Juan la Laguna	12	San Juan la Laguna	7	Julio	2023-07-23T00:00:00	2024-11-08T10:00:00	8	Radiación solar	680
67209	7	Sololá	717	San Juan la Laguna	12	San Juan la Laguna	7	Julio	2023-07-23T00:00:00	2024-11-08T11:00:00	2	Temperatura media	24.3
67210	7	Sololá	717	San Juan la Laguna	12	San Juan la Laguna	7	Julio	2023-07-23T00:00:00	2024-11-08T11:00:00	4	Temperatura máxima	25.1
67211	7	Sololá	717	San Juan la Laguna	12	San Juan la Laguna	7	Julio	2023-07-23T00:00:00	2024-11-08T11:00:00	3	Temperatura mínima	24.1
67212	7	Sololá	717	San Juan la Laguna	12	San Juan la Laguna	7	Julio	2023-07-23T00:00:00	2024-11-08T11:00:00	5	Humedad	59
67213	7	Sololá	717	San Juan la Laguna	12	San Juan la Laguna	7	Julio	2023-07-23T00:00:00	2024-11-08T11:00:00	6	Velocidad del viento	0
67214	7	Sololá	717	San Juan la Laguna	12	San Juan la Laguna	7	Julio	2023-07-23T00:00:00	2024-11-08T11:00:00	7	Dirección del viento	0
67215	7	Sololá	717	San Juan la Laguna	12	San Juan la Laguna	7	Julio	2023-07-23T00:00:00	2024-11-08T11:00:00	1	Precipitación	0
67216	7	Sololá	717	San Juan la Laguna	12	San Juan la Laguna	7	Julio	2023-07-23T00:00:00	2024-11-08T11:00:00	8	Radiación solar	730
67217	7	Sololá	717	San Juan la Laguna	12	San Juan la Laguna	7	Julio	2023-07-23T00:00:00	2024-11-08T12:00:00	2	Temperatura media	24.3
67218	7	Sololá	717	San Juan la Laguna	12	San Juan la Laguna	7	Julio	2023-07-23T00:00:00	2024-11-08T12:00:00	4	Temperatura máxima	24.8
67219	7	Sololá	717	San Juan la Laguna	12	San Juan la Laguna	7	Julio	2023-07-23T00:00:00	2024-11-08T12:00:00	3	Temperatura mínima	23.7
67220	7	Sololá	717	San Juan la Laguna	12	San Juan la Laguna	7	Julio	2023-07-23T00:00:00	2024-11-08T12:00:00	5	Humedad	67
67221	7	Sololá	717	San Juan la Laguna	12	San Juan la Laguna	7	Julio	2023-07-23T00:00:00	2024-11-08T12:00:00	6	Velocidad del viento	0
67222	7	Sololá	717	San Juan la Laguna	12	San Juan la Laguna	7	Julio	2023-07-23T00:00:00	2024-11-08T12:00:00	7	Dirección del viento	0
67223	7	Sololá	717	San Juan la Laguna	12	San Juan la Laguna	7	Julio	2023-07-23T00:00:00	2024-11-08T12:00:00	1	Precipitación	0
67224	7	Sololá	717	San Juan la Laguna	12	San Juan la Laguna	7	Julio	2023-07-23T00:00:00	2024-11-08T12:00:00	8	Radiación solar	584
67225	7	Sololá	717	San Juan la Laguna	12	San Juan la Laguna	7	Julio	2023-07-23T00:00:00	2024-11-08T13:00:00	2	Temperatura media	24.8
67226	7	Sololá	717	San Juan la Laguna	12	San Juan la Laguna	7	Julio	2023-07-23T00:00:00	2024-11-08T13:00:00	4	Temperatura máxima	24.8
67227	7	Sololá	717	San Juan la Laguna	12	San Juan la Laguna	7	Julio	2023-07-23T00:00:00	2024-11-08T13:00:00	3	Temperatura mínima	23.5
67228	7	Sololá	717	San Juan la Laguna	12	San Juan la Laguna	7	Julio	2023-07-23T00:00:00	2024-11-08T13:00:00	5	Humedad	68
67229	7	Sololá	717	San Juan la Laguna	12	San Juan la Laguna	7	Julio	2023-07-23T00:00:00	2024-11-08T13:00:00	6	Velocidad del viento	0
67230	7	Sololá	717	San Juan la Laguna	12	San Juan la Laguna	7	Julio	2023-07-23T00:00:00	2024-11-08T13:00:00	7	Dirección del viento	0
67231	7	Sololá	717	San Juan la Laguna	12	San Juan la Laguna	7	Julio	2023-07-23T00:00:00	2024-11-08T13:00:00	1	Precipitación	0
67232	7	Sololá	717	San Juan la Laguna	12	San Juan la Laguna	7	Julio	2023-07-23T00:00:00	2024-11-08T13:00:00	8	Radiación solar	541
67233	7	Sololá	717	San Juan la Laguna	12	San Juan la Laguna	7	Julio	2023-07-23T00:00:00	2024-11-08T14:00:00	2	Temperatura media	23.9
67234	7	Sololá	717	San Juan la Laguna	12	San Juan la Laguna	7	Julio	2023-07-23T00:00:00	2024-11-08T14:00:00	4	Temperatura máxima	25.3
67235	7	Sololá	717	San Juan la Laguna	12	San Juan la Laguna	7	Julio	2023-07-23T00:00:00	2024-11-08T14:00:00	3	Temperatura mínima	23.9
67236	7	Sololá	717	San Juan la Laguna	12	San Juan la Laguna	7	Julio	2023-07-23T00:00:00	2024-11-08T14:00:00	5	Humedad	71
67237	7	Sololá	717	San Juan la Laguna	12	San Juan la Laguna	7	Julio	2023-07-23T00:00:00	2024-11-08T14:00:00	6	Velocidad del viento	1.6
67238	7	Sololá	717	San Juan la Laguna	12	San Juan la Laguna	7	Julio	2023-07-23T00:00:00	2024-11-08T14:00:00	7	Dirección del viento	1.61
67239	7	Sololá	717	San Juan la Laguna	12	San Juan la Laguna	7	Julio	2023-07-23T00:00:00	2024-11-08T14:00:00	1	Precipitación	0
67240	7	Sololá	717	San Juan la Laguna	12	San Juan la Laguna	7	Julio	2023-07-23T00:00:00	2024-11-08T14:00:00	8	Radiación solar	786
67241	7	Sololá	717	San Juan la Laguna	12	San Juan la Laguna	7	Julio	2023-07-23T00:00:00	2024-11-08T15:00:00	2	Temperatura media	22.3
67242	7	Sololá	717	San Juan la Laguna	12	San Juan la Laguna	7	Julio	2023-07-23T00:00:00	2024-11-08T15:00:00	4	Temperatura máxima	24.1
67243	7	Sololá	717	San Juan la Laguna	12	San Juan la Laguna	7	Julio	2023-07-23T00:00:00	2024-11-08T15:00:00	3	Temperatura mínima	22.3
67244	7	Sololá	717	San Juan la Laguna	12	San Juan la Laguna	7	Julio	2023-07-23T00:00:00	2024-11-08T15:00:00	5	Humedad	77
67245	7	Sololá	717	San Juan la Laguna	12	San Juan la Laguna	7	Julio	2023-07-23T00:00:00	2024-11-08T15:00:00	6	Velocidad del viento	4.8
67246	7	Sololá	717	San Juan la Laguna	12	San Juan la Laguna	7	Julio	2023-07-23T00:00:00	2024-11-08T15:00:00	7	Dirección del viento	4.83
67247	7	Sololá	717	San Juan la Laguna	12	San Juan la Laguna	7	Julio	2023-07-23T00:00:00	2024-11-08T15:00:00	1	Precipitación	0
67248	7	Sololá	717	San Juan la Laguna	12	San Juan la Laguna	7	Julio	2023-07-23T00:00:00	2024-11-08T15:00:00	8	Radiación solar	256
67249	7	Sololá	717	San Juan la Laguna	12	San Juan la Laguna	7	Julio	2023-07-23T00:00:00	2024-11-08T16:00:00	2	Temperatura media	21.7
67250	7	Sololá	717	San Juan la Laguna	12	San Juan la Laguna	7	Julio	2023-07-23T00:00:00	2024-11-08T16:00:00	4	Temperatura máxima	22.4
67251	7	Sololá	717	San Juan la Laguna	12	San Juan la Laguna	7	Julio	2023-07-23T00:00:00	2024-11-08T16:00:00	3	Temperatura mínima	21.7
67252	7	Sololá	717	San Juan la Laguna	12	San Juan la Laguna	7	Julio	2023-07-23T00:00:00	2024-11-08T16:00:00	5	Humedad	77
67253	7	Sololá	717	San Juan la Laguna	12	San Juan la Laguna	7	Julio	2023-07-23T00:00:00	2024-11-08T16:00:00	6	Velocidad del viento	4.8
67254	7	Sololá	717	San Juan la Laguna	12	San Juan la Laguna	7	Julio	2023-07-23T00:00:00	2024-11-08T16:00:00	7	Dirección del viento	4.83
67255	7	Sololá	717	San Juan la Laguna	12	San Juan la Laguna	7	Julio	2023-07-23T00:00:00	2024-11-08T16:00:00	1	Precipitación	0
67256	7	Sololá	717	San Juan la Laguna	12	San Juan la Laguna	7	Julio	2023-07-23T00:00:00	2024-11-08T16:00:00	8	Radiación solar	141
67257	7	Sololá	717	San Juan la Laguna	12	San Juan la Laguna	7	Julio	2023-07-23T00:00:00	2024-11-08T17:00:00	2	Temperatura media	21.4
67258	7	Sololá	717	San Juan la Laguna	12	San Juan la Laguna	7	Julio	2023-07-23T00:00:00	2024-11-08T17:00:00	4	Temperatura máxima	21.8
67259	7	Sololá	717	San Juan la Laguna	12	San Juan la Laguna	7	Julio	2023-07-23T00:00:00	2024-11-08T17:00:00	3	Temperatura mínima	21.4
67260	7	Sololá	717	San Juan la Laguna	12	San Juan la Laguna	7	Julio	2023-07-23T00:00:00	2024-11-08T17:00:00	5	Humedad	77
67261	7	Sololá	717	San Juan la Laguna	12	San Juan la Laguna	7	Julio	2023-07-23T00:00:00	2024-11-08T17:00:00	6	Velocidad del viento	1.6
67262	7	Sololá	717	San Juan la Laguna	12	San Juan la Laguna	7	Julio	2023-07-23T00:00:00	2024-11-08T17:00:00	7	Dirección del viento	1.61
67263	7	Sololá	717	San Juan la Laguna	12	San Juan la Laguna	7	Julio	2023-07-23T00:00:00	2024-11-08T17:00:00	1	Precipitación	0
67264	7	Sololá	717	San Juan la Laguna	12	San Juan la Laguna	7	Julio	2023-07-23T00:00:00	2024-11-08T17:00:00	8	Radiación solar	61
67265	7	Sololá	717	San Juan la Laguna	12	San Juan la Laguna	7	Julio	2023-07-23T00:00:00	2024-11-08T18:00:00	2	Temperatura media	20.7
67266	7	Sololá	717	San Juan la Laguna	12	San Juan la Laguna	7	Julio	2023-07-23T00:00:00	2024-11-08T18:00:00	4	Temperatura máxima	21.5
67267	7	Sololá	717	San Juan la Laguna	12	San Juan la Laguna	7	Julio	2023-07-23T00:00:00	2024-11-08T18:00:00	3	Temperatura mínima	20.6
67268	7	Sololá	717	San Juan la Laguna	12	San Juan la Laguna	7	Julio	2023-07-23T00:00:00	2024-11-08T18:00:00	5	Humedad	81
67269	7	Sololá	717	San Juan la Laguna	12	San Juan la Laguna	7	Julio	2023-07-23T00:00:00	2024-11-08T18:00:00	6	Velocidad del viento	0
67270	7	Sololá	717	San Juan la Laguna	12	San Juan la Laguna	7	Julio	2023-07-23T00:00:00	2024-11-08T18:00:00	7	Dirección del viento	0
67271	7	Sololá	717	San Juan la Laguna	12	San Juan la Laguna	7	Julio	2023-07-23T00:00:00	2024-11-08T18:00:00	1	Precipitación	0
67272	7	Sololá	717	San Juan la Laguna	12	San Juan la Laguna	7	Julio	2023-07-23T00:00:00	2024-11-08T18:00:00	8	Radiación solar	58
67273	7	Sololá	717	San Juan la Laguna	12	San Juan la Laguna	7	Julio	2023-07-23T00:00:00	2024-11-08T19:00:00	2	Temperatura media	19.2
67274	7	Sololá	717	San Juan la Laguna	12	San Juan la Laguna	7	Julio	2023-07-23T00:00:00	2024-11-08T19:00:00	4	Temperatura máxima	20.7
67275	7	Sololá	717	San Juan la Laguna	12	San Juan la Laguna	7	Julio	2023-07-23T00:00:00	2024-11-08T19:00:00	3	Temperatura mínima	19.2
67276	7	Sololá	717	San Juan la Laguna	12	San Juan la Laguna	7	Julio	2023-07-23T00:00:00	2024-11-08T19:00:00	5	Humedad	83
67277	7	Sololá	717	San Juan la Laguna	12	San Juan la Laguna	7	Julio	2023-07-23T00:00:00	2024-11-08T19:00:00	6	Velocidad del viento	0
67278	7	Sololá	717	San Juan la Laguna	12	San Juan la Laguna	7	Julio	2023-07-23T00:00:00	2024-11-08T19:00:00	7	Dirección del viento	0
67279	7	Sololá	717	San Juan la Laguna	12	San Juan la Laguna	7	Julio	2023-07-23T00:00:00	2024-11-08T19:00:00	1	Precipitación	0
67280	7	Sololá	717	San Juan la Laguna	12	San Juan la Laguna	7	Julio	2023-07-23T00:00:00	2024-11-08T19:00:00	8	Radiación solar	0
67281	7	Sololá	717	San Juan la Laguna	12	San Juan la Laguna	7	Julio	2023-07-23T00:00:00	2024-11-08T20:00:00	2	Temperatura media	18.6
67282	7	Sololá	717	San Juan la Laguna	12	San Juan la Laguna	7	Julio	2023-07-23T00:00:00	2024-11-08T20:00:00	4	Temperatura máxima	19.2
67283	7	Sololá	717	San Juan la Laguna	12	San Juan la Laguna	7	Julio	2023-07-23T00:00:00	2024-11-08T20:00:00	3	Temperatura mínima	18.4
67284	7	Sololá	717	San Juan la Laguna	12	San Juan la Laguna	7	Julio	2023-07-23T00:00:00	2024-11-08T20:00:00	5	Humedad	80
67285	7	Sololá	717	San Juan la Laguna	12	San Juan la Laguna	7	Julio	2023-07-23T00:00:00	2024-11-08T20:00:00	6	Velocidad del viento	3.2
67286	7	Sololá	717	San Juan la Laguna	12	San Juan la Laguna	7	Julio	2023-07-23T00:00:00	2024-11-08T20:00:00	7	Dirección del viento	3.22
67287	7	Sololá	717	San Juan la Laguna	12	San Juan la Laguna	7	Julio	2023-07-23T00:00:00	2024-11-08T20:00:00	1	Precipitación	0
67288	7	Sololá	717	San Juan la Laguna	12	San Juan la Laguna	7	Julio	2023-07-23T00:00:00	2024-11-08T20:00:00	8	Radiación solar	0
67289	7	Sololá	717	San Juan la Laguna	12	San Juan la Laguna	7	Julio	2023-07-23T00:00:00	2024-11-08T21:00:00	2	Temperatura media	17.9
67290	7	Sololá	717	San Juan la Laguna	12	San Juan la Laguna	7	Julio	2023-07-23T00:00:00	2024-11-08T21:00:00	4	Temperatura máxima	18.8
67291	7	Sololá	717	San Juan la Laguna	12	San Juan la Laguna	7	Julio	2023-07-23T00:00:00	2024-11-08T21:00:00	3	Temperatura mínima	17.8
67292	7	Sololá	717	San Juan la Laguna	12	San Juan la Laguna	7	Julio	2023-07-23T00:00:00	2024-11-08T21:00:00	5	Humedad	83
67293	7	Sololá	717	San Juan la Laguna	12	San Juan la Laguna	7	Julio	2023-07-23T00:00:00	2024-11-08T21:00:00	6	Velocidad del viento	4.8
67294	7	Sololá	717	San Juan la Laguna	12	San Juan la Laguna	7	Julio	2023-07-23T00:00:00	2024-11-08T21:00:00	7	Dirección del viento	4.83
67295	7	Sololá	717	San Juan la Laguna	12	San Juan la Laguna	7	Julio	2023-07-23T00:00:00	2024-11-08T21:00:00	1	Precipitación	0
67296	7	Sololá	717	San Juan la Laguna	12	San Juan la Laguna	7	Julio	2023-07-23T00:00:00	2024-11-08T21:00:00	8	Radiación solar	0
67297	7	Sololá	717	San Juan la Laguna	12	San Juan la Laguna	7	Julio	2023-07-23T00:00:00	2024-11-08T22:00:00	2	Temperatura media	17.8
67298	7	Sololá	717	San Juan la Laguna	12	San Juan la Laguna	7	Julio	2023-07-23T00:00:00	2024-11-08T22:00:00	4	Temperatura máxima	17.9
67299	7	Sololá	717	San Juan la Laguna	12	San Juan la Laguna	7	Julio	2023-07-23T00:00:00	2024-11-08T22:00:00	3	Temperatura mínima	17.6
67300	7	Sololá	717	San Juan la Laguna	12	San Juan la Laguna	7	Julio	2023-07-23T00:00:00	2024-11-08T22:00:00	5	Humedad	85
67301	7	Sololá	717	San Juan la Laguna	12	San Juan la Laguna	7	Julio	2023-07-23T00:00:00	2024-11-08T22:00:00	6	Velocidad del viento	1.6
67302	7	Sololá	717	San Juan la Laguna	12	San Juan la Laguna	7	Julio	2023-07-23T00:00:00	2024-11-08T22:00:00	7	Dirección del viento	1.61
67303	7	Sololá	717	San Juan la Laguna	12	San Juan la Laguna	7	Julio	2023-07-23T00:00:00	2024-11-08T22:00:00	1	Precipitación	0
67304	7	Sololá	717	San Juan la Laguna	12	San Juan la Laguna	7	Julio	2023-07-23T00:00:00	2024-11-08T22:00:00	8	Radiación solar	0
67305	7	Sololá	717	San Juan la Laguna	12	San Juan la Laguna	7	Julio	2023-07-23T00:00:00	2024-11-08T23:00:00	2	Temperatura media	18.2
67306	7	Sololá	717	San Juan la Laguna	12	San Juan la Laguna	7	Julio	2023-07-23T00:00:00	2024-11-08T23:00:00	4	Temperatura máxima	18.2
67307	7	Sololá	717	San Juan la Laguna	12	San Juan la Laguna	7	Julio	2023-07-23T00:00:00	2024-11-08T23:00:00	3	Temperatura mínima	17.8
67308	7	Sololá	717	San Juan la Laguna	12	San Juan la Laguna	7	Julio	2023-07-23T00:00:00	2024-11-08T23:00:00	5	Humedad	84
67309	7	Sololá	717	San Juan la Laguna	12	San Juan la Laguna	7	Julio	2023-07-23T00:00:00	2024-11-08T23:00:00	6	Velocidad del viento	3.2
67310	7	Sololá	717	San Juan la Laguna	12	San Juan la Laguna	7	Julio	2023-07-23T00:00:00	2024-11-08T23:00:00	7	Dirección del viento	3.22
67311	7	Sololá	717	San Juan la Laguna	12	San Juan la Laguna	7	Julio	2023-07-23T00:00:00	2024-11-08T23:00:00	1	Precipitación	0
67312	7	Sololá	717	San Juan la Laguna	12	San Juan la Laguna	7	Julio	2023-07-23T00:00:00	2024-11-08T23:00:00	8	Radiación solar	0
67313	7	Sololá	717	San Juan la Laguna	12	San Juan la Laguna	7	Julio	2023-07-24T00:00:00	2024-11-08T00:00:00	2	Temperatura media	17.8
67314	7	Sololá	717	San Juan la Laguna	12	San Juan la Laguna	7	Julio	2023-07-24T00:00:00	2024-11-08T00:00:00	4	Temperatura máxima	18.5
67315	7	Sololá	717	San Juan la Laguna	12	San Juan la Laguna	7	Julio	2023-07-24T00:00:00	2024-11-08T00:00:00	3	Temperatura mínima	17.8
67316	7	Sololá	717	San Juan la Laguna	12	San Juan la Laguna	7	Julio	2023-07-24T00:00:00	2024-11-08T00:00:00	5	Humedad	89
67317	7	Sololá	717	San Juan la Laguna	12	San Juan la Laguna	7	Julio	2023-07-24T00:00:00	2024-11-08T00:00:00	6	Velocidad del viento	0
67318	7	Sololá	717	San Juan la Laguna	12	San Juan la Laguna	7	Julio	2023-07-24T00:00:00	2024-11-08T00:00:00	7	Dirección del viento	0
67319	7	Sololá	717	San Juan la Laguna	12	San Juan la Laguna	7	Julio	2023-07-24T00:00:00	2024-11-08T00:00:00	1	Precipitación	0
67320	7	Sololá	717	San Juan la Laguna	12	San Juan la Laguna	7	Julio	2023-07-24T00:00:00	2024-11-08T00:00:00	8	Radiación solar	0
67321	7	Sololá	717	San Juan la Laguna	12	San Juan la Laguna	7	Julio	2023-07-24T00:00:00	2024-11-08T01:00:00	2	Temperatura media	18.1
67322	7	Sololá	717	San Juan la Laguna	12	San Juan la Laguna	7	Julio	2023-07-24T00:00:00	2024-11-08T01:00:00	4	Temperatura máxima	18.1
67323	7	Sololá	717	San Juan la Laguna	12	San Juan la Laguna	7	Julio	2023-07-24T00:00:00	2024-11-08T01:00:00	3	Temperatura mínima	17.8
67324	7	Sololá	717	San Juan la Laguna	12	San Juan la Laguna	7	Julio	2023-07-24T00:00:00	2024-11-08T01:00:00	5	Humedad	88
67325	7	Sololá	717	San Juan la Laguna	12	San Juan la Laguna	7	Julio	2023-07-24T00:00:00	2024-11-08T01:00:00	6	Velocidad del viento	0
67326	7	Sololá	717	San Juan la Laguna	12	San Juan la Laguna	7	Julio	2023-07-24T00:00:00	2024-11-08T01:00:00	7	Dirección del viento	0
67327	7	Sololá	717	San Juan la Laguna	12	San Juan la Laguna	7	Julio	2023-07-24T00:00:00	2024-11-08T01:00:00	1	Precipitación	0
67328	7	Sololá	717	San Juan la Laguna	12	San Juan la Laguna	7	Julio	2023-07-24T00:00:00	2024-11-08T01:00:00	8	Radiación solar	0
67329	7	Sololá	717	San Juan la Laguna	12	San Juan la Laguna	7	Julio	2023-07-24T00:00:00	2024-11-08T02:00:00	2	Temperatura media	17.5
67330	7	Sololá	717	San Juan la Laguna	12	San Juan la Laguna	7	Julio	2023-07-24T00:00:00	2024-11-08T02:00:00	4	Temperatura máxima	18.1
67331	7	Sololá	717	San Juan la Laguna	12	San Juan la Laguna	7	Julio	2023-07-24T00:00:00	2024-11-08T02:00:00	3	Temperatura mínima	17.5
67332	7	Sololá	717	San Juan la Laguna	12	San Juan la Laguna	7	Julio	2023-07-24T00:00:00	2024-11-08T02:00:00	5	Humedad	92
67333	7	Sololá	717	San Juan la Laguna	12	San Juan la Laguna	7	Julio	2023-07-24T00:00:00	2024-11-08T02:00:00	6	Velocidad del viento	0
67334	7	Sololá	717	San Juan la Laguna	12	San Juan la Laguna	7	Julio	2023-07-24T00:00:00	2024-11-08T02:00:00	7	Dirección del viento	0
67335	7	Sololá	717	San Juan la Laguna	12	San Juan la Laguna	7	Julio	2023-07-24T00:00:00	2024-11-08T02:00:00	1	Precipitación	0.8
67336	7	Sololá	717	San Juan la Laguna	12	San Juan la Laguna	7	Julio	2023-07-24T00:00:00	2024-11-08T02:00:00	8	Radiación solar	0
67337	7	Sololá	717	San Juan la Laguna	12	San Juan la Laguna	7	Julio	2023-07-24T00:00:00	2024-11-08T03:00:00	2	Temperatura media	17.5
67338	7	Sololá	717	San Juan la Laguna	12	San Juan la Laguna	7	Julio	2023-07-24T00:00:00	2024-11-08T03:00:00	4	Temperatura máxima	17.7
67339	7	Sololá	717	San Juan la Laguna	12	San Juan la Laguna	7	Julio	2023-07-24T00:00:00	2024-11-08T03:00:00	3	Temperatura mínima	17.3
67340	7	Sololá	717	San Juan la Laguna	12	San Juan la Laguna	7	Julio	2023-07-24T00:00:00	2024-11-08T03:00:00	5	Humedad	92
67341	7	Sololá	717	San Juan la Laguna	12	San Juan la Laguna	7	Julio	2023-07-24T00:00:00	2024-11-08T03:00:00	6	Velocidad del viento	1.6
67342	7	Sololá	717	San Juan la Laguna	12	San Juan la Laguna	7	Julio	2023-07-24T00:00:00	2024-11-08T03:00:00	7	Dirección del viento	1.61
67343	7	Sololá	717	San Juan la Laguna	12	San Juan la Laguna	7	Julio	2023-07-24T00:00:00	2024-11-08T03:00:00	1	Precipitación	0
67344	7	Sololá	717	San Juan la Laguna	12	San Juan la Laguna	7	Julio	2023-07-24T00:00:00	2024-11-08T03:00:00	8	Radiación solar	0
67345	7	Sololá	717	San Juan la Laguna	12	San Juan la Laguna	7	Julio	2023-07-24T00:00:00	2024-11-08T04:00:00	2	Temperatura media	16.4
67346	7	Sololá	717	San Juan la Laguna	12	San Juan la Laguna	7	Julio	2023-07-24T00:00:00	2024-11-08T04:00:00	4	Temperatura máxima	17.6
67347	7	Sololá	717	San Juan la Laguna	12	San Juan la Laguna	7	Julio	2023-07-24T00:00:00	2024-11-08T04:00:00	3	Temperatura mínima	16.4
67348	7	Sololá	717	San Juan la Laguna	12	San Juan la Laguna	7	Julio	2023-07-24T00:00:00	2024-11-08T04:00:00	5	Humedad	92
67349	7	Sololá	717	San Juan la Laguna	12	San Juan la Laguna	7	Julio	2023-07-24T00:00:00	2024-11-08T04:00:00	6	Velocidad del viento	0
67350	7	Sololá	717	San Juan la Laguna	12	San Juan la Laguna	7	Julio	2023-07-24T00:00:00	2024-11-08T04:00:00	7	Dirección del viento	0
67351	7	Sololá	717	San Juan la Laguna	12	San Juan la Laguna	7	Julio	2023-07-24T00:00:00	2024-11-08T04:00:00	1	Precipitación	0
67352	7	Sololá	717	San Juan la Laguna	12	San Juan la Laguna	7	Julio	2023-07-24T00:00:00	2024-11-08T04:00:00	8	Radiación solar	0
67353	7	Sololá	717	San Juan la Laguna	12	San Juan la Laguna	7	Julio	2023-07-24T00:00:00	2024-11-08T05:00:00	2	Temperatura media	16.6
67354	7	Sololá	717	San Juan la Laguna	12	San Juan la Laguna	7	Julio	2023-07-24T00:00:00	2024-11-08T05:00:00	4	Temperatura máxima	16.6
67355	7	Sololá	717	San Juan la Laguna	12	San Juan la Laguna	7	Julio	2023-07-24T00:00:00	2024-11-08T05:00:00	3	Temperatura mínima	16.2
67356	7	Sololá	717	San Juan la Laguna	12	San Juan la Laguna	7	Julio	2023-07-24T00:00:00	2024-11-08T05:00:00	5	Humedad	91
67357	7	Sololá	717	San Juan la Laguna	12	San Juan la Laguna	7	Julio	2023-07-24T00:00:00	2024-11-08T05:00:00	6	Velocidad del viento	3.2
67358	7	Sololá	717	San Juan la Laguna	12	San Juan la Laguna	7	Julio	2023-07-24T00:00:00	2024-11-08T05:00:00	7	Dirección del viento	3.22
67359	7	Sololá	717	San Juan la Laguna	12	San Juan la Laguna	7	Julio	2023-07-24T00:00:00	2024-11-08T05:00:00	1	Precipitación	0
67360	7	Sololá	717	San Juan la Laguna	12	San Juan la Laguna	7	Julio	2023-07-24T00:00:00	2024-11-08T05:00:00	8	Radiación solar	0
67361	7	Sololá	717	San Juan la Laguna	12	San Juan la Laguna	7	Julio	2023-07-24T00:00:00	2024-11-08T06:00:00	2	Temperatura media	16.7
67362	7	Sololá	717	San Juan la Laguna	12	San Juan la Laguna	7	Julio	2023-07-24T00:00:00	2024-11-08T06:00:00	4	Temperatura máxima	16.7
67363	7	Sololá	717	San Juan la Laguna	12	San Juan la Laguna	7	Julio	2023-07-24T00:00:00	2024-11-08T06:00:00	3	Temperatura mínima	16.3
67364	7	Sololá	717	San Juan la Laguna	12	San Juan la Laguna	7	Julio	2023-07-24T00:00:00	2024-11-08T06:00:00	5	Humedad	91
67365	7	Sololá	717	San Juan la Laguna	12	San Juan la Laguna	7	Julio	2023-07-24T00:00:00	2024-11-08T06:00:00	6	Velocidad del viento	3.2
67366	7	Sololá	717	San Juan la Laguna	12	San Juan la Laguna	7	Julio	2023-07-24T00:00:00	2024-11-08T06:00:00	7	Dirección del viento	3.22
67367	7	Sololá	717	San Juan la Laguna	12	San Juan la Laguna	7	Julio	2023-07-24T00:00:00	2024-11-08T06:00:00	1	Precipitación	0
67368	7	Sololá	717	San Juan la Laguna	12	San Juan la Laguna	7	Julio	2023-07-24T00:00:00	2024-11-08T06:00:00	8	Radiación solar	0
67369	7	Sololá	717	San Juan la Laguna	12	San Juan la Laguna	7	Julio	2023-07-24T00:00:00	2024-11-08T07:00:00	2	Temperatura media	19.3
67370	7	Sololá	717	San Juan la Laguna	12	San Juan la Laguna	7	Julio	2023-07-24T00:00:00	2024-11-08T07:00:00	4	Temperatura máxima	19.3
67371	7	Sololá	717	San Juan la Laguna	12	San Juan la Laguna	7	Julio	2023-07-24T00:00:00	2024-11-08T07:00:00	3	Temperatura mínima	16.7
67372	7	Sololá	717	San Juan la Laguna	12	San Juan la Laguna	7	Julio	2023-07-24T00:00:00	2024-11-08T07:00:00	5	Humedad	86
67373	7	Sololá	717	San Juan la Laguna	12	San Juan la Laguna	7	Julio	2023-07-24T00:00:00	2024-11-08T07:00:00	6	Velocidad del viento	0
67374	7	Sololá	717	San Juan la Laguna	12	San Juan la Laguna	7	Julio	2023-07-24T00:00:00	2024-11-08T07:00:00	7	Dirección del viento	0
67375	7	Sololá	717	San Juan la Laguna	12	San Juan la Laguna	7	Julio	2023-07-24T00:00:00	2024-11-08T07:00:00	1	Precipitación	0
67376	7	Sololá	717	San Juan la Laguna	12	San Juan la Laguna	7	Julio	2023-07-24T00:00:00	2024-11-08T07:00:00	8	Radiación solar	128
67377	7	Sololá	717	San Juan la Laguna	12	San Juan la Laguna	7	Julio	2023-07-24T00:00:00	2024-11-08T08:00:00	2	Temperatura media	21.9
67378	7	Sololá	717	San Juan la Laguna	12	San Juan la Laguna	7	Julio	2023-07-24T00:00:00	2024-11-08T08:00:00	4	Temperatura máxima	21.9
67379	7	Sololá	717	San Juan la Laguna	12	San Juan la Laguna	7	Julio	2023-07-24T00:00:00	2024-11-08T08:00:00	3	Temperatura mínima	19.3
67380	7	Sololá	717	San Juan la Laguna	12	San Juan la Laguna	7	Julio	2023-07-24T00:00:00	2024-11-08T08:00:00	5	Humedad	76
67381	7	Sololá	717	San Juan la Laguna	12	San Juan la Laguna	7	Julio	2023-07-24T00:00:00	2024-11-08T08:00:00	6	Velocidad del viento	0
67382	7	Sololá	717	San Juan la Laguna	12	San Juan la Laguna	7	Julio	2023-07-24T00:00:00	2024-11-08T08:00:00	7	Dirección del viento	0
67383	7	Sololá	717	San Juan la Laguna	12	San Juan la Laguna	7	Julio	2023-07-24T00:00:00	2024-11-08T08:00:00	1	Precipitación	0
67384	7	Sololá	717	San Juan la Laguna	12	San Juan la Laguna	7	Julio	2023-07-24T00:00:00	2024-11-08T08:00:00	8	Radiación solar	326
67385	7	Sololá	717	San Juan la Laguna	12	San Juan la Laguna	7	Julio	2023-07-24T00:00:00	2024-11-08T09:00:00	2	Temperatura media	21.8
67386	7	Sololá	717	San Juan la Laguna	12	San Juan la Laguna	7	Julio	2023-07-24T00:00:00	2024-11-08T09:00:00	4	Temperatura máxima	22.6
67387	7	Sololá	717	San Juan la Laguna	12	San Juan la Laguna	7	Julio	2023-07-24T00:00:00	2024-11-08T09:00:00	3	Temperatura mínima	21.8
67388	7	Sololá	717	San Juan la Laguna	12	San Juan la Laguna	7	Julio	2023-07-24T00:00:00	2024-11-08T09:00:00	5	Humedad	74
67389	7	Sololá	717	San Juan la Laguna	12	San Juan la Laguna	7	Julio	2023-07-24T00:00:00	2024-11-08T09:00:00	6	Velocidad del viento	0
67390	7	Sololá	717	San Juan la Laguna	12	San Juan la Laguna	7	Julio	2023-07-24T00:00:00	2024-11-08T09:00:00	7	Dirección del viento	0
67391	7	Sololá	717	San Juan la Laguna	12	San Juan la Laguna	7	Julio	2023-07-24T00:00:00	2024-11-08T09:00:00	1	Precipitación	0
67392	7	Sololá	717	San Juan la Laguna	12	San Juan la Laguna	7	Julio	2023-07-24T00:00:00	2024-11-08T09:00:00	8	Radiación solar	372
67393	7	Sololá	717	San Juan la Laguna	12	San Juan la Laguna	7	Julio	2023-07-24T00:00:00	2024-11-08T10:00:00	2	Temperatura media	23.7
67394	7	Sololá	717	San Juan la Laguna	12	San Juan la Laguna	7	Julio	2023-07-24T00:00:00	2024-11-08T10:00:00	4	Temperatura máxima	23.9
67395	7	Sololá	717	San Juan la Laguna	12	San Juan la Laguna	7	Julio	2023-07-24T00:00:00	2024-11-08T10:00:00	3	Temperatura mínima	21.8
67396	7	Sololá	717	San Juan la Laguna	12	San Juan la Laguna	7	Julio	2023-07-24T00:00:00	2024-11-08T10:00:00	5	Humedad	64
67397	7	Sololá	717	San Juan la Laguna	12	San Juan la Laguna	7	Julio	2023-07-24T00:00:00	2024-11-08T10:00:00	6	Velocidad del viento	0
67398	7	Sololá	717	San Juan la Laguna	12	San Juan la Laguna	7	Julio	2023-07-24T00:00:00	2024-11-08T10:00:00	7	Dirección del viento	0
67399	7	Sololá	717	San Juan la Laguna	12	San Juan la Laguna	7	Julio	2023-07-24T00:00:00	2024-11-08T10:00:00	1	Precipitación	0
67400	7	Sololá	717	San Juan la Laguna	12	San Juan la Laguna	7	Julio	2023-07-24T00:00:00	2024-11-08T10:00:00	8	Radiación solar	726
67401	7	Sololá	717	San Juan la Laguna	12	San Juan la Laguna	7	Julio	2023-07-24T00:00:00	2024-11-08T11:00:00	2	Temperatura media	24.9
67402	7	Sololá	717	San Juan la Laguna	12	San Juan la Laguna	7	Julio	2023-07-24T00:00:00	2024-11-08T11:00:00	4	Temperatura máxima	24.9
67403	7	Sololá	717	San Juan la Laguna	12	San Juan la Laguna	7	Julio	2023-07-24T00:00:00	2024-11-08T11:00:00	3	Temperatura mínima	23.5
67404	7	Sololá	717	San Juan la Laguna	12	San Juan la Laguna	7	Julio	2023-07-24T00:00:00	2024-11-08T11:00:00	5	Humedad	57
67405	7	Sololá	717	San Juan la Laguna	12	San Juan la Laguna	7	Julio	2023-07-24T00:00:00	2024-11-08T11:00:00	6	Velocidad del viento	1.6
67406	7	Sololá	717	San Juan la Laguna	12	San Juan la Laguna	7	Julio	2023-07-24T00:00:00	2024-11-08T11:00:00	7	Dirección del viento	1.61
67407	7	Sololá	717	San Juan la Laguna	12	San Juan la Laguna	7	Julio	2023-07-24T00:00:00	2024-11-08T11:00:00	1	Precipitación	0
67408	7	Sololá	717	San Juan la Laguna	12	San Juan la Laguna	7	Julio	2023-07-24T00:00:00	2024-11-08T11:00:00	8	Radiación solar	823
67409	7	Sololá	717	San Juan la Laguna	12	San Juan la Laguna	7	Julio	2023-07-24T00:00:00	2024-11-08T12:00:00	2	Temperatura media	25.9
67410	7	Sololá	717	San Juan la Laguna	12	San Juan la Laguna	7	Julio	2023-07-24T00:00:00	2024-11-08T12:00:00	4	Temperatura máxima	26
67411	7	Sololá	717	San Juan la Laguna	12	San Juan la Laguna	7	Julio	2023-07-24T00:00:00	2024-11-08T12:00:00	3	Temperatura mínima	24.9
67412	7	Sololá	717	San Juan la Laguna	12	San Juan la Laguna	7	Julio	2023-07-24T00:00:00	2024-11-08T12:00:00	5	Humedad	55
67413	7	Sololá	717	San Juan la Laguna	12	San Juan la Laguna	7	Julio	2023-07-24T00:00:00	2024-11-08T12:00:00	6	Velocidad del viento	3.2
67414	7	Sololá	717	San Juan la Laguna	12	San Juan la Laguna	7	Julio	2023-07-24T00:00:00	2024-11-08T12:00:00	7	Dirección del viento	3.22
67415	7	Sololá	717	San Juan la Laguna	12	San Juan la Laguna	7	Julio	2023-07-24T00:00:00	2024-11-08T12:00:00	1	Precipitación	0
67416	7	Sololá	717	San Juan la Laguna	12	San Juan la Laguna	7	Julio	2023-07-24T00:00:00	2024-11-08T12:00:00	8	Radiación solar	929
67417	7	Sololá	717	San Juan la Laguna	12	San Juan la Laguna	7	Julio	2023-07-24T00:00:00	2024-11-08T13:00:00	2	Temperatura media	26.6
67418	7	Sololá	717	San Juan la Laguna	12	San Juan la Laguna	7	Julio	2023-07-24T00:00:00	2024-11-08T13:00:00	4	Temperatura máxima	26.9
67419	7	Sololá	717	San Juan la Laguna	12	San Juan la Laguna	7	Julio	2023-07-24T00:00:00	2024-11-08T13:00:00	3	Temperatura mínima	25.8
67420	7	Sololá	717	San Juan la Laguna	12	San Juan la Laguna	7	Julio	2023-07-24T00:00:00	2024-11-08T13:00:00	5	Humedad	55
67421	7	Sololá	717	San Juan la Laguna	12	San Juan la Laguna	7	Julio	2023-07-24T00:00:00	2024-11-08T13:00:00	6	Velocidad del viento	0
67422	7	Sololá	717	San Juan la Laguna	12	San Juan la Laguna	7	Julio	2023-07-24T00:00:00	2024-11-08T13:00:00	7	Dirección del viento	0
67423	7	Sololá	717	San Juan la Laguna	12	San Juan la Laguna	7	Julio	2023-07-24T00:00:00	2024-11-08T13:00:00	1	Precipitación	0
67424	7	Sololá	717	San Juan la Laguna	12	San Juan la Laguna	7	Julio	2023-07-24T00:00:00	2024-11-08T13:00:00	8	Radiación solar	952
67425	7	Sololá	717	San Juan la Laguna	12	San Juan la Laguna	7	Julio	2023-07-24T00:00:00	2024-11-08T14:00:00	2	Temperatura media	26.4
67426	7	Sololá	717	San Juan la Laguna	12	San Juan la Laguna	7	Julio	2023-07-24T00:00:00	2024-11-08T14:00:00	4	Temperatura máxima	26.8
67427	7	Sololá	717	San Juan la Laguna	12	San Juan la Laguna	7	Julio	2023-07-24T00:00:00	2024-11-08T14:00:00	3	Temperatura mínima	25.8
67428	7	Sololá	717	San Juan la Laguna	12	San Juan la Laguna	7	Julio	2023-07-24T00:00:00	2024-11-08T14:00:00	5	Humedad	63
67429	7	Sololá	717	San Juan la Laguna	12	San Juan la Laguna	7	Julio	2023-07-24T00:00:00	2024-11-08T14:00:00	6	Velocidad del viento	0
67430	7	Sololá	717	San Juan la Laguna	12	San Juan la Laguna	7	Julio	2023-07-24T00:00:00	2024-11-08T14:00:00	7	Dirección del viento	0
67431	7	Sololá	717	San Juan la Laguna	12	San Juan la Laguna	7	Julio	2023-07-24T00:00:00	2024-11-08T14:00:00	1	Precipitación	0
67432	7	Sololá	717	San Juan la Laguna	12	San Juan la Laguna	7	Julio	2023-07-24T00:00:00	2024-11-08T14:00:00	8	Radiación solar	936
67433	7	Sololá	717	San Juan la Laguna	12	San Juan la Laguna	7	Julio	2023-07-24T00:00:00	2024-11-08T15:00:00	2	Temperatura media	23.9
67434	7	Sololá	717	San Juan la Laguna	12	San Juan la Laguna	7	Julio	2023-07-24T00:00:00	2024-11-08T15:00:00	4	Temperatura máxima	26.4
67435	7	Sololá	717	San Juan la Laguna	12	San Juan la Laguna	7	Julio	2023-07-24T00:00:00	2024-11-08T15:00:00	3	Temperatura mínima	23.9
67436	7	Sololá	717	San Juan la Laguna	12	San Juan la Laguna	7	Julio	2023-07-24T00:00:00	2024-11-08T15:00:00	5	Humedad	71
67437	7	Sololá	717	San Juan la Laguna	12	San Juan la Laguna	7	Julio	2023-07-24T00:00:00	2024-11-08T15:00:00	6	Velocidad del viento	11.3
67438	7	Sololá	717	San Juan la Laguna	12	San Juan la Laguna	7	Julio	2023-07-24T00:00:00	2024-11-08T15:00:00	7	Dirección del viento	11.27
67439	7	Sololá	717	San Juan la Laguna	12	San Juan la Laguna	7	Julio	2023-07-24T00:00:00	2024-11-08T15:00:00	1	Precipitación	0
67440	7	Sololá	717	San Juan la Laguna	12	San Juan la Laguna	7	Julio	2023-07-24T00:00:00	2024-11-08T15:00:00	8	Radiación solar	733
67441	7	Sololá	717	San Juan la Laguna	12	San Juan la Laguna	7	Julio	2023-07-24T00:00:00	2024-11-08T16:00:00	2	Temperatura media	19.1
67442	7	Sololá	717	San Juan la Laguna	12	San Juan la Laguna	7	Julio	2023-07-24T00:00:00	2024-11-08T16:00:00	4	Temperatura máxima	23.9
67443	7	Sololá	717	San Juan la Laguna	12	San Juan la Laguna	7	Julio	2023-07-24T00:00:00	2024-11-08T16:00:00	3	Temperatura mínima	18.9
67444	7	Sololá	717	San Juan la Laguna	12	San Juan la Laguna	7	Julio	2023-07-24T00:00:00	2024-11-08T16:00:00	5	Humedad	86
67445	7	Sololá	717	San Juan la Laguna	12	San Juan la Laguna	7	Julio	2023-07-24T00:00:00	2024-11-08T16:00:00	6	Velocidad del viento	9.7
67446	7	Sololá	717	San Juan la Laguna	12	San Juan la Laguna	7	Julio	2023-07-24T00:00:00	2024-11-08T16:00:00	7	Dirección del viento	9.66
67447	7	Sololá	717	San Juan la Laguna	12	San Juan la Laguna	7	Julio	2023-07-24T00:00:00	2024-11-08T16:00:00	1	Precipitación	2
67448	7	Sololá	717	San Juan la Laguna	12	San Juan la Laguna	7	Julio	2023-07-24T00:00:00	2024-11-08T16:00:00	8	Radiación solar	66
67449	7	Sololá	717	San Juan la Laguna	12	San Juan la Laguna	7	Julio	2023-07-24T00:00:00	2024-11-08T17:00:00	2	Temperatura media	20.3
67450	7	Sololá	717	San Juan la Laguna	12	San Juan la Laguna	7	Julio	2023-07-24T00:00:00	2024-11-08T17:00:00	4	Temperatura máxima	20.3
67451	7	Sololá	717	San Juan la Laguna	12	San Juan la Laguna	7	Julio	2023-07-24T00:00:00	2024-11-08T17:00:00	3	Temperatura mínima	19.1
67452	7	Sololá	717	San Juan la Laguna	12	San Juan la Laguna	7	Julio	2023-07-24T00:00:00	2024-11-08T17:00:00	5	Humedad	87
67453	7	Sololá	717	San Juan la Laguna	12	San Juan la Laguna	7	Julio	2023-07-24T00:00:00	2024-11-08T17:00:00	6	Velocidad del viento	1.6
67454	7	Sololá	717	San Juan la Laguna	12	San Juan la Laguna	7	Julio	2023-07-24T00:00:00	2024-11-08T17:00:00	7	Dirección del viento	1.61
67455	7	Sololá	717	San Juan la Laguna	12	San Juan la Laguna	7	Julio	2023-07-24T00:00:00	2024-11-08T17:00:00	1	Precipitación	0
67456	7	Sololá	717	San Juan la Laguna	12	San Juan la Laguna	7	Julio	2023-07-24T00:00:00	2024-11-08T17:00:00	8	Radiación solar	100
67457	7	Sololá	717	San Juan la Laguna	12	San Juan la Laguna	7	Julio	2023-07-24T00:00:00	2024-11-08T18:00:00	2	Temperatura media	19.7
67458	7	Sololá	717	San Juan la Laguna	12	San Juan la Laguna	7	Julio	2023-07-24T00:00:00	2024-11-08T18:00:00	4	Temperatura máxima	20.4
67459	7	Sololá	717	San Juan la Laguna	12	San Juan la Laguna	7	Julio	2023-07-24T00:00:00	2024-11-08T18:00:00	3	Temperatura mínima	19.7
67460	7	Sololá	717	San Juan la Laguna	12	San Juan la Laguna	7	Julio	2023-07-24T00:00:00	2024-11-08T18:00:00	5	Humedad	86
67461	7	Sololá	717	San Juan la Laguna	12	San Juan la Laguna	7	Julio	2023-07-24T00:00:00	2024-11-08T18:00:00	6	Velocidad del viento	3.2
67462	7	Sololá	717	San Juan la Laguna	12	San Juan la Laguna	7	Julio	2023-07-24T00:00:00	2024-11-08T18:00:00	7	Dirección del viento	3.22
67463	7	Sololá	717	San Juan la Laguna	12	San Juan la Laguna	7	Julio	2023-07-24T00:00:00	2024-11-08T18:00:00	1	Precipitación	0.4
67464	7	Sololá	717	San Juan la Laguna	12	San Juan la Laguna	7	Julio	2023-07-24T00:00:00	2024-11-08T18:00:00	8	Radiación solar	93
67465	7	Sololá	717	San Juan la Laguna	12	San Juan la Laguna	7	Julio	2023-07-24T00:00:00	2024-11-08T19:00:00	2	Temperatura media	19.2
67466	7	Sololá	717	San Juan la Laguna	12	San Juan la Laguna	7	Julio	2023-07-24T00:00:00	2024-11-08T19:00:00	4	Temperatura máxima	19.7
67467	7	Sololá	717	San Juan la Laguna	12	San Juan la Laguna	7	Julio	2023-07-24T00:00:00	2024-11-08T19:00:00	3	Temperatura mínima	19.2
67468	7	Sololá	717	San Juan la Laguna	12	San Juan la Laguna	7	Julio	2023-07-24T00:00:00	2024-11-08T19:00:00	5	Humedad	90
67469	7	Sololá	717	San Juan la Laguna	12	San Juan la Laguna	7	Julio	2023-07-24T00:00:00	2024-11-08T19:00:00	6	Velocidad del viento	0
67470	7	Sololá	717	San Juan la Laguna	12	San Juan la Laguna	7	Julio	2023-07-24T00:00:00	2024-11-08T19:00:00	7	Dirección del viento	0
67471	7	Sololá	717	San Juan la Laguna	12	San Juan la Laguna	7	Julio	2023-07-24T00:00:00	2024-11-08T19:00:00	1	Precipitación	0
67472	7	Sololá	717	San Juan la Laguna	12	San Juan la Laguna	7	Julio	2023-07-24T00:00:00	2024-11-08T19:00:00	8	Radiación solar	0
67473	7	Sololá	717	San Juan la Laguna	12	San Juan la Laguna	7	Julio	2023-07-24T00:00:00	2024-11-08T20:00:00	2	Temperatura media	18.8
67474	7	Sololá	717	San Juan la Laguna	12	San Juan la Laguna	7	Julio	2023-07-24T00:00:00	2024-11-08T20:00:00	4	Temperatura máxima	19.2
67475	7	Sololá	717	San Juan la Laguna	12	San Juan la Laguna	7	Julio	2023-07-24T00:00:00	2024-11-08T20:00:00	3	Temperatura mínima	18.8
67476	7	Sololá	717	San Juan la Laguna	12	San Juan la Laguna	7	Julio	2023-07-24T00:00:00	2024-11-08T20:00:00	5	Humedad	90
67477	7	Sololá	717	San Juan la Laguna	12	San Juan la Laguna	7	Julio	2023-07-24T00:00:00	2024-11-08T20:00:00	6	Velocidad del viento	3.2
67478	7	Sololá	717	San Juan la Laguna	12	San Juan la Laguna	7	Julio	2023-07-24T00:00:00	2024-11-08T20:00:00	7	Dirección del viento	3.22
67479	7	Sololá	717	San Juan la Laguna	12	San Juan la Laguna	7	Julio	2023-07-24T00:00:00	2024-11-08T20:00:00	1	Precipitación	1.2
67480	7	Sololá	717	San Juan la Laguna	12	San Juan la Laguna	7	Julio	2023-07-24T00:00:00	2024-11-08T20:00:00	8	Radiación solar	0
67481	7	Sololá	717	San Juan la Laguna	12	San Juan la Laguna	7	Julio	2023-07-24T00:00:00	2024-11-08T21:00:00	2	Temperatura media	17.6
67482	7	Sololá	717	San Juan la Laguna	12	San Juan la Laguna	7	Julio	2023-07-24T00:00:00	2024-11-08T21:00:00	4	Temperatura máxima	18.8
67483	7	Sololá	717	San Juan la Laguna	12	San Juan la Laguna	7	Julio	2023-07-24T00:00:00	2024-11-08T21:00:00	3	Temperatura mínima	17.6
67484	7	Sololá	717	San Juan la Laguna	12	San Juan la Laguna	7	Julio	2023-07-24T00:00:00	2024-11-08T21:00:00	5	Humedad	88
67485	7	Sololá	717	San Juan la Laguna	12	San Juan la Laguna	7	Julio	2023-07-24T00:00:00	2024-11-08T21:00:00	6	Velocidad del viento	1.6
67486	7	Sololá	717	San Juan la Laguna	12	San Juan la Laguna	7	Julio	2023-07-24T00:00:00	2024-11-08T21:00:00	7	Dirección del viento	1.61
67487	7	Sololá	717	San Juan la Laguna	12	San Juan la Laguna	7	Julio	2023-07-24T00:00:00	2024-11-08T21:00:00	1	Precipitación	0
67488	7	Sololá	717	San Juan la Laguna	12	San Juan la Laguna	7	Julio	2023-07-24T00:00:00	2024-11-08T21:00:00	8	Radiación solar	0
67489	7	Sololá	717	San Juan la Laguna	12	San Juan la Laguna	7	Julio	2023-07-24T00:00:00	2024-11-08T22:00:00	2	Temperatura media	17.3
67490	7	Sololá	717	San Juan la Laguna	12	San Juan la Laguna	7	Julio	2023-07-24T00:00:00	2024-11-08T22:00:00	4	Temperatura máxima	17.7
67491	7	Sololá	717	San Juan la Laguna	12	San Juan la Laguna	7	Julio	2023-07-24T00:00:00	2024-11-08T22:00:00	3	Temperatura mínima	17.1
67492	7	Sololá	717	San Juan la Laguna	12	San Juan la Laguna	7	Julio	2023-07-24T00:00:00	2024-11-08T22:00:00	5	Humedad	91
67493	7	Sololá	717	San Juan la Laguna	12	San Juan la Laguna	7	Julio	2023-07-24T00:00:00	2024-11-08T22:00:00	6	Velocidad del viento	1.6
67494	7	Sololá	717	San Juan la Laguna	12	San Juan la Laguna	7	Julio	2023-07-24T00:00:00	2024-11-08T22:00:00	7	Dirección del viento	1.61
67495	7	Sololá	717	San Juan la Laguna	12	San Juan la Laguna	7	Julio	2023-07-24T00:00:00	2024-11-08T22:00:00	1	Precipitación	0
67496	7	Sololá	717	San Juan la Laguna	12	San Juan la Laguna	7	Julio	2023-07-24T00:00:00	2024-11-08T22:00:00	8	Radiación solar	0
67497	7	Sololá	717	San Juan la Laguna	12	San Juan la Laguna	7	Julio	2023-07-24T00:00:00	2024-11-08T23:00:00	2	Temperatura media	17.2
67498	7	Sololá	717	San Juan la Laguna	12	San Juan la Laguna	7	Julio	2023-07-24T00:00:00	2024-11-08T23:00:00	4	Temperatura máxima	17.3
67499	7	Sololá	717	San Juan la Laguna	12	San Juan la Laguna	7	Julio	2023-07-24T00:00:00	2024-11-08T23:00:00	3	Temperatura mínima	16.9
67500	7	Sololá	717	San Juan la Laguna	12	San Juan la Laguna	7	Julio	2023-07-24T00:00:00	2024-11-08T23:00:00	5	Humedad	90
67501	7	Sololá	717	San Juan la Laguna	12	San Juan la Laguna	7	Julio	2023-07-24T00:00:00	2024-11-08T23:00:00	6	Velocidad del viento	1.6
67502	7	Sololá	717	San Juan la Laguna	12	San Juan la Laguna	7	Julio	2023-07-24T00:00:00	2024-11-08T23:00:00	7	Dirección del viento	1.61
67503	7	Sololá	717	San Juan la Laguna	12	San Juan la Laguna	7	Julio	2023-07-24T00:00:00	2024-11-08T23:00:00	1	Precipitación	0
67504	7	Sololá	717	San Juan la Laguna	12	San Juan la Laguna	7	Julio	2023-07-24T00:00:00	2024-11-08T23:00:00	8	Radiación solar	0
67505	7	Sololá	717	San Juan la Laguna	12	San Juan la Laguna	7	Julio	2023-07-25T00:00:00	2024-11-08T00:00:00	2	Temperatura media	17.1
67506	7	Sololá	717	San Juan la Laguna	12	San Juan la Laguna	7	Julio	2023-07-25T00:00:00	2024-11-08T00:00:00	4	Temperatura máxima	17.4
67507	7	Sololá	717	San Juan la Laguna	12	San Juan la Laguna	7	Julio	2023-07-25T00:00:00	2024-11-08T00:00:00	3	Temperatura mínima	17.1
67508	7	Sololá	717	San Juan la Laguna	12	San Juan la Laguna	7	Julio	2023-07-25T00:00:00	2024-11-08T00:00:00	5	Humedad	89
67509	7	Sololá	717	San Juan la Laguna	12	San Juan la Laguna	7	Julio	2023-07-25T00:00:00	2024-11-08T00:00:00	6	Velocidad del viento	3.2
67510	7	Sololá	717	San Juan la Laguna	12	San Juan la Laguna	7	Julio	2023-07-25T00:00:00	2024-11-08T00:00:00	7	Dirección del viento	3.22
67511	7	Sololá	717	San Juan la Laguna	12	San Juan la Laguna	7	Julio	2023-07-25T00:00:00	2024-11-08T00:00:00	1	Precipitación	0
67512	7	Sololá	717	San Juan la Laguna	12	San Juan la Laguna	7	Julio	2023-07-25T00:00:00	2024-11-08T00:00:00	8	Radiación solar	0
67513	7	Sololá	717	San Juan la Laguna	12	San Juan la Laguna	7	Julio	2023-07-25T00:00:00	2024-11-08T01:00:00	2	Temperatura media	17.3
67514	7	Sololá	717	San Juan la Laguna	12	San Juan la Laguna	7	Julio	2023-07-25T00:00:00	2024-11-08T01:00:00	4	Temperatura máxima	17.3
67515	7	Sololá	717	San Juan la Laguna	12	San Juan la Laguna	7	Julio	2023-07-25T00:00:00	2024-11-08T01:00:00	3	Temperatura mínima	17.1
67516	7	Sololá	717	San Juan la Laguna	12	San Juan la Laguna	7	Julio	2023-07-25T00:00:00	2024-11-08T01:00:00	5	Humedad	88
67517	7	Sololá	717	San Juan la Laguna	12	San Juan la Laguna	7	Julio	2023-07-25T00:00:00	2024-11-08T01:00:00	6	Velocidad del viento	3.2
67518	7	Sololá	717	San Juan la Laguna	12	San Juan la Laguna	7	Julio	2023-07-25T00:00:00	2024-11-08T01:00:00	7	Dirección del viento	3.22
67519	7	Sololá	717	San Juan la Laguna	12	San Juan la Laguna	7	Julio	2023-07-25T00:00:00	2024-11-08T01:00:00	1	Precipitación	0
67520	7	Sololá	717	San Juan la Laguna	12	San Juan la Laguna	7	Julio	2023-07-25T00:00:00	2024-11-08T01:00:00	8	Radiación solar	0
67521	7	Sololá	717	San Juan la Laguna	12	San Juan la Laguna	7	Julio	2023-07-25T00:00:00	2024-11-08T02:00:00	2	Temperatura media	16.8
67522	7	Sololá	717	San Juan la Laguna	12	San Juan la Laguna	7	Julio	2023-07-25T00:00:00	2024-11-08T02:00:00	4	Temperatura máxima	17.3
67523	7	Sololá	717	San Juan la Laguna	12	San Juan la Laguna	7	Julio	2023-07-25T00:00:00	2024-11-08T02:00:00	3	Temperatura mínima	16.7
67524	7	Sololá	717	San Juan la Laguna	12	San Juan la Laguna	7	Julio	2023-07-25T00:00:00	2024-11-08T02:00:00	5	Humedad	90
67525	7	Sololá	717	San Juan la Laguna	12	San Juan la Laguna	7	Julio	2023-07-25T00:00:00	2024-11-08T02:00:00	6	Velocidad del viento	1.6
67526	7	Sololá	717	San Juan la Laguna	12	San Juan la Laguna	7	Julio	2023-07-25T00:00:00	2024-11-08T02:00:00	7	Dirección del viento	1.61
67527	7	Sololá	717	San Juan la Laguna	12	San Juan la Laguna	7	Julio	2023-07-25T00:00:00	2024-11-08T02:00:00	1	Precipitación	0
67528	7	Sololá	717	San Juan la Laguna	12	San Juan la Laguna	7	Julio	2023-07-25T00:00:00	2024-11-08T02:00:00	8	Radiación solar	0
67529	7	Sololá	717	San Juan la Laguna	12	San Juan la Laguna	7	Julio	2023-07-25T00:00:00	2024-11-08T03:00:00	2	Temperatura media	16
67530	7	Sololá	717	San Juan la Laguna	12	San Juan la Laguna	7	Julio	2023-07-25T00:00:00	2024-11-08T03:00:00	4	Temperatura máxima	16.8
67531	7	Sololá	717	San Juan la Laguna	12	San Juan la Laguna	7	Julio	2023-07-25T00:00:00	2024-11-08T03:00:00	3	Temperatura mínima	16
67532	7	Sololá	717	San Juan la Laguna	12	San Juan la Laguna	7	Julio	2023-07-25T00:00:00	2024-11-08T03:00:00	5	Humedad	89
67533	7	Sololá	717	San Juan la Laguna	12	San Juan la Laguna	7	Julio	2023-07-25T00:00:00	2024-11-08T03:00:00	6	Velocidad del viento	3.2
67534	7	Sololá	717	San Juan la Laguna	12	San Juan la Laguna	7	Julio	2023-07-25T00:00:00	2024-11-08T03:00:00	7	Dirección del viento	3.22
67535	7	Sololá	717	San Juan la Laguna	12	San Juan la Laguna	7	Julio	2023-07-25T00:00:00	2024-11-08T03:00:00	1	Precipitación	0
67536	7	Sololá	717	San Juan la Laguna	12	San Juan la Laguna	7	Julio	2023-07-25T00:00:00	2024-11-08T03:00:00	8	Radiación solar	0
67537	7	Sololá	717	San Juan la Laguna	12	San Juan la Laguna	7	Julio	2023-07-25T00:00:00	2024-11-08T04:00:00	2	Temperatura media	15.2
67538	7	Sololá	717	San Juan la Laguna	12	San Juan la Laguna	7	Julio	2023-07-25T00:00:00	2024-11-08T04:00:00	4	Temperatura máxima	16
67539	7	Sololá	717	San Juan la Laguna	12	San Juan la Laguna	7	Julio	2023-07-25T00:00:00	2024-11-08T04:00:00	3	Temperatura mínima	15.2
67540	7	Sololá	717	San Juan la Laguna	12	San Juan la Laguna	7	Julio	2023-07-25T00:00:00	2024-11-08T04:00:00	5	Humedad	89
67541	7	Sololá	717	San Juan la Laguna	12	San Juan la Laguna	7	Julio	2023-07-25T00:00:00	2024-11-08T04:00:00	6	Velocidad del viento	3.2
67542	7	Sololá	717	San Juan la Laguna	12	San Juan la Laguna	7	Julio	2023-07-25T00:00:00	2024-11-08T04:00:00	7	Dirección del viento	3.22
67543	7	Sololá	717	San Juan la Laguna	12	San Juan la Laguna	7	Julio	2023-07-25T00:00:00	2024-11-08T04:00:00	1	Precipitación	0
67544	7	Sololá	717	San Juan la Laguna	12	San Juan la Laguna	7	Julio	2023-07-25T00:00:00	2024-11-08T04:00:00	8	Radiación solar	0
67545	7	Sololá	717	San Juan la Laguna	12	San Juan la Laguna	7	Julio	2023-07-25T00:00:00	2024-11-08T05:00:00	2	Temperatura media	15.9
67546	7	Sololá	717	San Juan la Laguna	12	San Juan la Laguna	7	Julio	2023-07-25T00:00:00	2024-11-08T05:00:00	4	Temperatura máxima	15.9
67547	7	Sololá	717	San Juan la Laguna	12	San Juan la Laguna	7	Julio	2023-07-25T00:00:00	2024-11-08T05:00:00	3	Temperatura mínima	15.2
67548	7	Sololá	717	San Juan la Laguna	12	San Juan la Laguna	7	Julio	2023-07-25T00:00:00	2024-11-08T05:00:00	5	Humedad	88
67549	7	Sololá	717	San Juan la Laguna	12	San Juan la Laguna	7	Julio	2023-07-25T00:00:00	2024-11-08T05:00:00	6	Velocidad del viento	3.2
67550	7	Sololá	717	San Juan la Laguna	12	San Juan la Laguna	7	Julio	2023-07-25T00:00:00	2024-11-08T05:00:00	7	Dirección del viento	3.22
67551	7	Sololá	717	San Juan la Laguna	12	San Juan la Laguna	7	Julio	2023-07-25T00:00:00	2024-11-08T05:00:00	1	Precipitación	0
67552	7	Sololá	717	San Juan la Laguna	12	San Juan la Laguna	7	Julio	2023-07-25T00:00:00	2024-11-08T05:00:00	8	Radiación solar	0
67553	7	Sololá	717	San Juan la Laguna	12	San Juan la Laguna	7	Julio	2023-07-25T00:00:00	2024-11-08T06:00:00	2	Temperatura media	19.7
67554	7	Sololá	717	San Juan la Laguna	12	San Juan la Laguna	7	Julio	2023-07-25T00:00:00	2024-11-08T06:00:00	4	Temperatura máxima	19.7
67555	7	Sololá	717	San Juan la Laguna	12	San Juan la Laguna	7	Julio	2023-07-25T00:00:00	2024-11-08T06:00:00	3	Temperatura mínima	15.4
67556	7	Sololá	717	San Juan la Laguna	12	San Juan la Laguna	7	Julio	2023-07-25T00:00:00	2024-11-08T06:00:00	5	Humedad	70
67557	7	Sololá	717	San Juan la Laguna	12	San Juan la Laguna	7	Julio	2023-07-25T00:00:00	2024-11-08T06:00:00	6	Velocidad del viento	4.8
67558	7	Sololá	717	San Juan la Laguna	12	San Juan la Laguna	7	Julio	2023-07-25T00:00:00	2024-11-08T06:00:00	7	Dirección del viento	4.83
67559	7	Sololá	717	San Juan la Laguna	12	San Juan la Laguna	7	Julio	2023-07-25T00:00:00	2024-11-08T06:00:00	1	Precipitación	0
67560	7	Sololá	717	San Juan la Laguna	12	San Juan la Laguna	7	Julio	2023-07-25T00:00:00	2024-11-08T06:00:00	8	Radiación solar	1
67561	7	Sololá	717	San Juan la Laguna	12	San Juan la Laguna	7	Julio	2023-07-25T00:00:00	2024-11-08T07:00:00	2	Temperatura media	20.9
67562	7	Sololá	717	San Juan la Laguna	12	San Juan la Laguna	7	Julio	2023-07-25T00:00:00	2024-11-08T07:00:00	4	Temperatura máxima	20.9
67563	7	Sololá	717	San Juan la Laguna	12	San Juan la Laguna	7	Julio	2023-07-25T00:00:00	2024-11-08T07:00:00	3	Temperatura mínima	19.1
67564	7	Sololá	717	San Juan la Laguna	12	San Juan la Laguna	7	Julio	2023-07-25T00:00:00	2024-11-08T07:00:00	5	Humedad	66
67565	7	Sololá	717	San Juan la Laguna	12	San Juan la Laguna	7	Julio	2023-07-25T00:00:00	2024-11-08T07:00:00	6	Velocidad del viento	1.6
67566	7	Sololá	717	San Juan la Laguna	12	San Juan la Laguna	7	Julio	2023-07-25T00:00:00	2024-11-08T07:00:00	7	Dirección del viento	1.61
67567	7	Sololá	717	San Juan la Laguna	12	San Juan la Laguna	7	Julio	2023-07-25T00:00:00	2024-11-08T07:00:00	1	Precipitación	0
67568	7	Sololá	717	San Juan la Laguna	12	San Juan la Laguna	7	Julio	2023-07-25T00:00:00	2024-11-08T07:00:00	8	Radiación solar	100
67569	7	Sololá	717	San Juan la Laguna	12	San Juan la Laguna	7	Julio	2023-07-25T00:00:00	2024-11-08T08:00:00	2	Temperatura media	22.3
67570	7	Sololá	717	San Juan la Laguna	12	San Juan la Laguna	7	Julio	2023-07-25T00:00:00	2024-11-08T08:00:00	4	Temperatura máxima	22.6
67571	7	Sololá	717	San Juan la Laguna	12	San Juan la Laguna	7	Julio	2023-07-25T00:00:00	2024-11-08T08:00:00	3	Temperatura mínima	20.9
67572	7	Sololá	717	San Juan la Laguna	12	San Juan la Laguna	7	Julio	2023-07-25T00:00:00	2024-11-08T08:00:00	5	Humedad	59
67573	7	Sololá	717	San Juan la Laguna	12	San Juan la Laguna	7	Julio	2023-07-25T00:00:00	2024-11-08T08:00:00	6	Velocidad del viento	1.6
67574	7	Sololá	717	San Juan la Laguna	12	San Juan la Laguna	7	Julio	2023-07-25T00:00:00	2024-11-08T08:00:00	7	Dirección del viento	1.61
67575	7	Sololá	717	San Juan la Laguna	12	San Juan la Laguna	7	Julio	2023-07-25T00:00:00	2024-11-08T08:00:00	1	Precipitación	0
67576	7	Sololá	717	San Juan la Laguna	12	San Juan la Laguna	7	Julio	2023-07-25T00:00:00	2024-11-08T08:00:00	8	Radiación solar	265
67577	7	Sololá	717	San Juan la Laguna	12	San Juan la Laguna	7	Julio	2023-07-25T00:00:00	2024-11-08T09:00:00	2	Temperatura media	24
67578	7	Sololá	717	San Juan la Laguna	12	San Juan la Laguna	7	Julio	2023-07-25T00:00:00	2024-11-08T09:00:00	4	Temperatura máxima	24
67579	7	Sololá	717	San Juan la Laguna	12	San Juan la Laguna	7	Julio	2023-07-25T00:00:00	2024-11-08T09:00:00	3	Temperatura mínima	22.3
67580	7	Sololá	717	San Juan la Laguna	12	San Juan la Laguna	7	Julio	2023-07-25T00:00:00	2024-11-08T09:00:00	5	Humedad	56
67581	7	Sololá	717	San Juan la Laguna	12	San Juan la Laguna	7	Julio	2023-07-25T00:00:00	2024-11-08T09:00:00	6	Velocidad del viento	0
67582	7	Sololá	717	San Juan la Laguna	12	San Juan la Laguna	7	Julio	2023-07-25T00:00:00	2024-11-08T09:00:00	7	Dirección del viento	0
67583	7	Sololá	717	San Juan la Laguna	12	San Juan la Laguna	7	Julio	2023-07-25T00:00:00	2024-11-08T09:00:00	1	Precipitación	0
67584	7	Sololá	717	San Juan la Laguna	12	San Juan la Laguna	7	Julio	2023-07-25T00:00:00	2024-11-08T09:00:00	8	Radiación solar	489
67585	7	Sololá	717	San Juan la Laguna	12	San Juan la Laguna	7	Julio	2023-07-25T00:00:00	2024-11-08T10:00:00	2	Temperatura media	24.7
67586	7	Sololá	717	San Juan la Laguna	12	San Juan la Laguna	7	Julio	2023-07-25T00:00:00	2024-11-08T10:00:00	4	Temperatura máxima	24.9
67587	7	Sololá	717	San Juan la Laguna	12	San Juan la Laguna	7	Julio	2023-07-25T00:00:00	2024-11-08T10:00:00	3	Temperatura mínima	23.9
67588	7	Sololá	717	San Juan la Laguna	12	San Juan la Laguna	7	Julio	2023-07-25T00:00:00	2024-11-08T10:00:00	5	Humedad	53
67589	7	Sololá	717	San Juan la Laguna	12	San Juan la Laguna	7	Julio	2023-07-25T00:00:00	2024-11-08T10:00:00	6	Velocidad del viento	3.2
67590	7	Sololá	717	San Juan la Laguna	12	San Juan la Laguna	7	Julio	2023-07-25T00:00:00	2024-11-08T10:00:00	7	Dirección del viento	3.22
67591	7	Sololá	717	San Juan la Laguna	12	San Juan la Laguna	7	Julio	2023-07-25T00:00:00	2024-11-08T10:00:00	1	Precipitación	0
67592	7	Sololá	717	San Juan la Laguna	12	San Juan la Laguna	7	Julio	2023-07-25T00:00:00	2024-11-08T10:00:00	8	Radiación solar	675
67593	7	Sololá	717	San Juan la Laguna	12	San Juan la Laguna	7	Julio	2023-07-25T00:00:00	2024-11-08T11:00:00	2	Temperatura media	26.2
67594	7	Sololá	717	San Juan la Laguna	12	San Juan la Laguna	7	Julio	2023-07-25T00:00:00	2024-11-08T11:00:00	4	Temperatura máxima	26.2
67595	7	Sololá	717	San Juan la Laguna	12	San Juan la Laguna	7	Julio	2023-07-25T00:00:00	2024-11-08T11:00:00	3	Temperatura mínima	24.7
67596	7	Sololá	717	San Juan la Laguna	12	San Juan la Laguna	7	Julio	2023-07-25T00:00:00	2024-11-08T11:00:00	5	Humedad	45
67597	7	Sololá	717	San Juan la Laguna	12	San Juan la Laguna	7	Julio	2023-07-25T00:00:00	2024-11-08T11:00:00	6	Velocidad del viento	1.6
67598	7	Sololá	717	San Juan la Laguna	12	San Juan la Laguna	7	Julio	2023-07-25T00:00:00	2024-11-08T11:00:00	7	Dirección del viento	1.61
67599	7	Sololá	717	San Juan la Laguna	12	San Juan la Laguna	7	Julio	2023-07-25T00:00:00	2024-11-08T11:00:00	1	Precipitación	0
67600	7	Sololá	717	San Juan la Laguna	12	San Juan la Laguna	7	Julio	2023-07-25T00:00:00	2024-11-08T11:00:00	8	Radiación solar	862
67601	7	Sololá	717	San Juan la Laguna	12	San Juan la Laguna	7	Julio	2023-07-25T00:00:00	2024-11-08T12:00:00	2	Temperatura media	26.7
67602	7	Sololá	717	San Juan la Laguna	12	San Juan la Laguna	7	Julio	2023-07-25T00:00:00	2024-11-08T12:00:00	4	Temperatura máxima	26.8
67603	7	Sololá	717	San Juan la Laguna	12	San Juan la Laguna	7	Julio	2023-07-25T00:00:00	2024-11-08T12:00:00	3	Temperatura mínima	25.9
67604	7	Sololá	717	San Juan la Laguna	12	San Juan la Laguna	7	Julio	2023-07-25T00:00:00	2024-11-08T12:00:00	5	Humedad	43
67605	7	Sololá	717	San Juan la Laguna	12	San Juan la Laguna	7	Julio	2023-07-25T00:00:00	2024-11-08T12:00:00	6	Velocidad del viento	4.8
67606	7	Sololá	717	San Juan la Laguna	12	San Juan la Laguna	7	Julio	2023-07-25T00:00:00	2024-11-08T12:00:00	7	Dirección del viento	4.83
67607	7	Sololá	717	San Juan la Laguna	12	San Juan la Laguna	7	Julio	2023-07-25T00:00:00	2024-11-08T12:00:00	1	Precipitación	0
67608	7	Sololá	717	San Juan la Laguna	12	San Juan la Laguna	7	Julio	2023-07-25T00:00:00	2024-11-08T12:00:00	8	Radiación solar	907
67609	7	Sololá	717	San Juan la Laguna	12	San Juan la Laguna	7	Julio	2023-07-25T00:00:00	2024-11-08T13:00:00	2	Temperatura media	26.9
67610	7	Sololá	717	San Juan la Laguna	12	San Juan la Laguna	7	Julio	2023-07-25T00:00:00	2024-11-08T13:00:00	4	Temperatura máxima	27.4
67611	7	Sololá	717	San Juan la Laguna	12	San Juan la Laguna	7	Julio	2023-07-25T00:00:00	2024-11-08T13:00:00	3	Temperatura mínima	26.4
67612	7	Sololá	717	San Juan la Laguna	12	San Juan la Laguna	7	Julio	2023-07-25T00:00:00	2024-11-08T13:00:00	5	Humedad	40
67613	7	Sololá	717	San Juan la Laguna	12	San Juan la Laguna	7	Julio	2023-07-25T00:00:00	2024-11-08T13:00:00	6	Velocidad del viento	4.8
67614	7	Sololá	717	San Juan la Laguna	12	San Juan la Laguna	7	Julio	2023-07-25T00:00:00	2024-11-08T13:00:00	7	Dirección del viento	4.83
67615	7	Sololá	717	San Juan la Laguna	12	San Juan la Laguna	7	Julio	2023-07-25T00:00:00	2024-11-08T13:00:00	1	Precipitación	0
67616	7	Sololá	717	San Juan la Laguna	12	San Juan la Laguna	7	Julio	2023-07-25T00:00:00	2024-11-08T13:00:00	8	Radiación solar	937
67617	7	Sololá	717	San Juan la Laguna	12	San Juan la Laguna	7	Julio	2023-07-25T00:00:00	2024-11-08T14:00:00	2	Temperatura media	27.8
67618	7	Sololá	717	San Juan la Laguna	12	San Juan la Laguna	7	Julio	2023-07-25T00:00:00	2024-11-08T14:00:00	4	Temperatura máxima	28.1
67619	7	Sololá	717	San Juan la Laguna	12	San Juan la Laguna	7	Julio	2023-07-25T00:00:00	2024-11-08T14:00:00	3	Temperatura mínima	26.9
67620	7	Sololá	717	San Juan la Laguna	12	San Juan la Laguna	7	Julio	2023-07-25T00:00:00	2024-11-08T14:00:00	5	Humedad	45
67621	7	Sololá	717	San Juan la Laguna	12	San Juan la Laguna	7	Julio	2023-07-25T00:00:00	2024-11-08T14:00:00	6	Velocidad del viento	1.6
67622	7	Sololá	717	San Juan la Laguna	12	San Juan la Laguna	7	Julio	2023-07-25T00:00:00	2024-11-08T14:00:00	7	Dirección del viento	1.61
67623	7	Sololá	717	San Juan la Laguna	12	San Juan la Laguna	7	Julio	2023-07-25T00:00:00	2024-11-08T14:00:00	1	Precipitación	0
67624	7	Sololá	717	San Juan la Laguna	12	San Juan la Laguna	7	Julio	2023-07-25T00:00:00	2024-11-08T14:00:00	8	Radiación solar	887
67625	7	Sololá	717	San Juan la Laguna	12	San Juan la Laguna	7	Julio	2023-07-25T00:00:00	2024-11-08T15:00:00	2	Temperatura media	27.1
67626	7	Sololá	717	San Juan la Laguna	12	San Juan la Laguna	7	Julio	2023-07-25T00:00:00	2024-11-08T15:00:00	4	Temperatura máxima	27.8
67627	7	Sololá	717	San Juan la Laguna	12	San Juan la Laguna	7	Julio	2023-07-25T00:00:00	2024-11-08T15:00:00	3	Temperatura mínima	26.9
67628	7	Sololá	717	San Juan la Laguna	12	San Juan la Laguna	7	Julio	2023-07-25T00:00:00	2024-11-08T15:00:00	5	Humedad	46
67629	7	Sololá	717	San Juan la Laguna	12	San Juan la Laguna	7	Julio	2023-07-25T00:00:00	2024-11-08T15:00:00	6	Velocidad del viento	3.2
67630	7	Sololá	717	San Juan la Laguna	12	San Juan la Laguna	7	Julio	2023-07-25T00:00:00	2024-11-08T15:00:00	7	Dirección del viento	3.22
67631	7	Sololá	717	San Juan la Laguna	12	San Juan la Laguna	7	Julio	2023-07-25T00:00:00	2024-11-08T15:00:00	1	Precipitación	0
67632	7	Sololá	717	San Juan la Laguna	12	San Juan la Laguna	7	Julio	2023-07-25T00:00:00	2024-11-08T15:00:00	8	Radiación solar	778
67633	7	Sololá	717	San Juan la Laguna	12	San Juan la Laguna	7	Julio	2023-07-25T00:00:00	2024-11-08T16:00:00	2	Temperatura media	26.9
67634	7	Sololá	717	San Juan la Laguna	12	San Juan la Laguna	7	Julio	2023-07-25T00:00:00	2024-11-08T16:00:00	4	Temperatura máxima	27.3
67635	7	Sololá	717	San Juan la Laguna	12	San Juan la Laguna	7	Julio	2023-07-25T00:00:00	2024-11-08T16:00:00	3	Temperatura mínima	26.8
67636	7	Sololá	717	San Juan la Laguna	12	San Juan la Laguna	7	Julio	2023-07-25T00:00:00	2024-11-08T16:00:00	5	Humedad	49
67637	7	Sololá	717	San Juan la Laguna	12	San Juan la Laguna	7	Julio	2023-07-25T00:00:00	2024-11-08T16:00:00	6	Velocidad del viento	1.6
67638	7	Sololá	717	San Juan la Laguna	12	San Juan la Laguna	7	Julio	2023-07-25T00:00:00	2024-11-08T16:00:00	7	Dirección del viento	1.61
67639	7	Sololá	717	San Juan la Laguna	12	San Juan la Laguna	7	Julio	2023-07-25T00:00:00	2024-11-08T16:00:00	1	Precipitación	0
67640	7	Sololá	717	San Juan la Laguna	12	San Juan la Laguna	7	Julio	2023-07-25T00:00:00	2024-11-08T16:00:00	8	Radiación solar	664
67641	7	Sololá	717	San Juan la Laguna	12	San Juan la Laguna	7	Julio	2023-07-25T00:00:00	2024-11-08T17:00:00	2	Temperatura media	25.7
67642	7	Sololá	717	San Juan la Laguna	12	San Juan la Laguna	7	Julio	2023-07-25T00:00:00	2024-11-08T17:00:00	4	Temperatura máxima	26.9
67643	7	Sololá	717	San Juan la Laguna	12	San Juan la Laguna	7	Julio	2023-07-25T00:00:00	2024-11-08T17:00:00	3	Temperatura mínima	25.7
67644	7	Sololá	717	San Juan la Laguna	12	San Juan la Laguna	7	Julio	2023-07-25T00:00:00	2024-11-08T17:00:00	5	Humedad	51
67645	7	Sololá	717	San Juan la Laguna	12	San Juan la Laguna	7	Julio	2023-07-25T00:00:00	2024-11-08T17:00:00	6	Velocidad del viento	1.6
67646	7	Sololá	717	San Juan la Laguna	12	San Juan la Laguna	7	Julio	2023-07-25T00:00:00	2024-11-08T17:00:00	7	Dirección del viento	1.61
67647	7	Sololá	717	San Juan la Laguna	12	San Juan la Laguna	7	Julio	2023-07-25T00:00:00	2024-11-08T17:00:00	1	Precipitación	0
67648	7	Sololá	717	San Juan la Laguna	12	San Juan la Laguna	7	Julio	2023-07-25T00:00:00	2024-11-08T17:00:00	8	Radiación solar	465
67649	7	Sololá	717	San Juan la Laguna	12	San Juan la Laguna	7	Julio	2023-07-25T00:00:00	2024-11-08T18:00:00	2	Temperatura media	24.1
67650	7	Sololá	717	San Juan la Laguna	12	San Juan la Laguna	7	Julio	2023-07-25T00:00:00	2024-11-08T18:00:00	4	Temperatura máxima	25.8
67651	7	Sololá	717	San Juan la Laguna	12	San Juan la Laguna	7	Julio	2023-07-25T00:00:00	2024-11-08T18:00:00	3	Temperatura mínima	24.1
67652	7	Sololá	717	San Juan la Laguna	12	San Juan la Laguna	7	Julio	2023-07-25T00:00:00	2024-11-08T18:00:00	5	Humedad	50
67653	7	Sololá	717	San Juan la Laguna	12	San Juan la Laguna	7	Julio	2023-07-25T00:00:00	2024-11-08T18:00:00	6	Velocidad del viento	4.8
67654	7	Sololá	717	San Juan la Laguna	12	San Juan la Laguna	7	Julio	2023-07-25T00:00:00	2024-11-08T18:00:00	7	Dirección del viento	4.83
67655	7	Sololá	717	San Juan la Laguna	12	San Juan la Laguna	7	Julio	2023-07-25T00:00:00	2024-11-08T18:00:00	1	Precipitación	0
67656	7	Sololá	717	San Juan la Laguna	12	San Juan la Laguna	7	Julio	2023-07-25T00:00:00	2024-11-08T18:00:00	8	Radiación solar	158
67657	7	Sololá	717	San Juan la Laguna	12	San Juan la Laguna	7	Julio	2023-07-25T00:00:00	2024-11-08T19:00:00	2	Temperatura media	23.1
67658	7	Sololá	717	San Juan la Laguna	12	San Juan la Laguna	7	Julio	2023-07-25T00:00:00	2024-11-08T19:00:00	4	Temperatura máxima	24.1
67659	7	Sololá	717	San Juan la Laguna	12	San Juan la Laguna	7	Julio	2023-07-25T00:00:00	2024-11-08T19:00:00	3	Temperatura mínima	23.1
67660	7	Sololá	717	San Juan la Laguna	12	San Juan la Laguna	7	Julio	2023-07-25T00:00:00	2024-11-08T19:00:00	5	Humedad	55
67661	7	Sololá	717	San Juan la Laguna	12	San Juan la Laguna	7	Julio	2023-07-25T00:00:00	2024-11-08T19:00:00	6	Velocidad del viento	11.3
67662	7	Sololá	717	San Juan la Laguna	12	San Juan la Laguna	7	Julio	2023-07-25T00:00:00	2024-11-08T19:00:00	7	Dirección del viento	11.27
67663	7	Sololá	717	San Juan la Laguna	12	San Juan la Laguna	7	Julio	2023-07-25T00:00:00	2024-11-08T19:00:00	1	Precipitación	0
67664	7	Sololá	717	San Juan la Laguna	12	San Juan la Laguna	7	Julio	2023-07-25T00:00:00	2024-11-08T19:00:00	8	Radiación solar	0
67665	7	Sololá	717	San Juan la Laguna	12	San Juan la Laguna	7	Julio	2023-07-25T00:00:00	2024-11-08T20:00:00	2	Temperatura media	22.2
67666	7	Sololá	717	San Juan la Laguna	12	San Juan la Laguna	7	Julio	2023-07-25T00:00:00	2024-11-08T20:00:00	4	Temperatura máxima	23.1
67667	7	Sololá	717	San Juan la Laguna	12	San Juan la Laguna	7	Julio	2023-07-25T00:00:00	2024-11-08T20:00:00	3	Temperatura mínima	22.2
67668	7	Sololá	717	San Juan la Laguna	12	San Juan la Laguna	7	Julio	2023-07-25T00:00:00	2024-11-08T20:00:00	5	Humedad	62
67669	7	Sololá	717	San Juan la Laguna	12	San Juan la Laguna	7	Julio	2023-07-25T00:00:00	2024-11-08T20:00:00	6	Velocidad del viento	11.3
67670	7	Sololá	717	San Juan la Laguna	12	San Juan la Laguna	7	Julio	2023-07-25T00:00:00	2024-11-08T20:00:00	7	Dirección del viento	11.27
67671	7	Sololá	717	San Juan la Laguna	12	San Juan la Laguna	7	Julio	2023-07-25T00:00:00	2024-11-08T20:00:00	1	Precipitación	0
67672	7	Sololá	717	San Juan la Laguna	12	San Juan la Laguna	7	Julio	2023-07-25T00:00:00	2024-11-08T20:00:00	8	Radiación solar	0
67673	7	Sololá	717	San Juan la Laguna	12	San Juan la Laguna	7	Julio	2023-07-25T00:00:00	2024-11-08T21:00:00	2	Temperatura media	21.8
67674	7	Sololá	717	San Juan la Laguna	12	San Juan la Laguna	7	Julio	2023-07-25T00:00:00	2024-11-08T21:00:00	4	Temperatura máxima	22.2
67675	7	Sololá	717	San Juan la Laguna	12	San Juan la Laguna	7	Julio	2023-07-25T00:00:00	2024-11-08T21:00:00	3	Temperatura mínima	21.8
67676	7	Sololá	717	San Juan la Laguna	12	San Juan la Laguna	7	Julio	2023-07-25T00:00:00	2024-11-08T21:00:00	5	Humedad	62
67677	7	Sololá	717	San Juan la Laguna	12	San Juan la Laguna	7	Julio	2023-07-25T00:00:00	2024-11-08T21:00:00	6	Velocidad del viento	11.3
67678	7	Sololá	717	San Juan la Laguna	12	San Juan la Laguna	7	Julio	2023-07-25T00:00:00	2024-11-08T21:00:00	7	Dirección del viento	11.27
67679	7	Sololá	717	San Juan la Laguna	12	San Juan la Laguna	7	Julio	2023-07-25T00:00:00	2024-11-08T21:00:00	1	Precipitación	0
67680	7	Sololá	717	San Juan la Laguna	12	San Juan la Laguna	7	Julio	2023-07-25T00:00:00	2024-11-08T21:00:00	8	Radiación solar	0
67681	7	Sololá	717	San Juan la Laguna	12	San Juan la Laguna	7	Julio	2023-07-25T00:00:00	2024-11-08T22:00:00	2	Temperatura media	21.3
67682	7	Sololá	717	San Juan la Laguna	12	San Juan la Laguna	7	Julio	2023-07-25T00:00:00	2024-11-08T22:00:00	4	Temperatura máxima	21.8
67683	7	Sololá	717	San Juan la Laguna	12	San Juan la Laguna	7	Julio	2023-07-25T00:00:00	2024-11-08T22:00:00	3	Temperatura mínima	21.3
67684	7	Sololá	717	San Juan la Laguna	12	San Juan la Laguna	7	Julio	2023-07-25T00:00:00	2024-11-08T22:00:00	5	Humedad	60
67685	7	Sololá	717	San Juan la Laguna	12	San Juan la Laguna	7	Julio	2023-07-25T00:00:00	2024-11-08T22:00:00	6	Velocidad del viento	12.9
67686	7	Sololá	717	San Juan la Laguna	12	San Juan la Laguna	7	Julio	2023-07-25T00:00:00	2024-11-08T22:00:00	7	Dirección del viento	12.87
67687	7	Sololá	717	San Juan la Laguna	12	San Juan la Laguna	7	Julio	2023-07-25T00:00:00	2024-11-08T22:00:00	1	Precipitación	0
67688	7	Sololá	717	San Juan la Laguna	12	San Juan la Laguna	7	Julio	2023-07-25T00:00:00	2024-11-08T22:00:00	8	Radiación solar	0
67689	7	Sololá	717	San Juan la Laguna	12	San Juan la Laguna	7	Julio	2023-07-25T00:00:00	2024-11-08T23:00:00	2	Temperatura media	20.9
67690	7	Sololá	717	San Juan la Laguna	12	San Juan la Laguna	7	Julio	2023-07-25T00:00:00	2024-11-08T23:00:00	4	Temperatura máxima	21.3
67691	7	Sololá	717	San Juan la Laguna	12	San Juan la Laguna	7	Julio	2023-07-25T00:00:00	2024-11-08T23:00:00	3	Temperatura mínima	20.9
67692	7	Sololá	717	San Juan la Laguna	12	San Juan la Laguna	7	Julio	2023-07-25T00:00:00	2024-11-08T23:00:00	5	Humedad	54
67693	7	Sololá	717	San Juan la Laguna	12	San Juan la Laguna	7	Julio	2023-07-25T00:00:00	2024-11-08T23:00:00	6	Velocidad del viento	14.5
67694	7	Sololá	717	San Juan la Laguna	12	San Juan la Laguna	7	Julio	2023-07-25T00:00:00	2024-11-08T23:00:00	7	Dirección del viento	14.48
67695	7	Sololá	717	San Juan la Laguna	12	San Juan la Laguna	7	Julio	2023-07-25T00:00:00	2024-11-08T23:00:00	1	Precipitación	0
67696	7	Sololá	717	San Juan la Laguna	12	San Juan la Laguna	7	Julio	2023-07-25T00:00:00	2024-11-08T23:00:00	8	Radiación solar	0
67697	7	Sololá	717	San Juan la Laguna	12	San Juan la Laguna	7	Julio	2023-07-26T00:00:00	2024-11-08T00:00:00	2	Temperatura media	19.8
67698	7	Sololá	717	San Juan la Laguna	12	San Juan la Laguna	7	Julio	2023-07-26T00:00:00	2024-11-08T00:00:00	4	Temperatura máxima	20.9
67699	7	Sololá	717	San Juan la Laguna	12	San Juan la Laguna	7	Julio	2023-07-26T00:00:00	2024-11-08T00:00:00	3	Temperatura mínima	19.8
67700	7	Sololá	717	San Juan la Laguna	12	San Juan la Laguna	7	Julio	2023-07-26T00:00:00	2024-11-08T00:00:00	5	Humedad	53
67701	7	Sololá	717	San Juan la Laguna	12	San Juan la Laguna	7	Julio	2023-07-26T00:00:00	2024-11-08T00:00:00	6	Velocidad del viento	6.4
67702	7	Sololá	717	San Juan la Laguna	12	San Juan la Laguna	7	Julio	2023-07-26T00:00:00	2024-11-08T00:00:00	7	Dirección del viento	6.44
67703	7	Sololá	717	San Juan la Laguna	12	San Juan la Laguna	7	Julio	2023-07-26T00:00:00	2024-11-08T00:00:00	1	Precipitación	0
67704	7	Sololá	717	San Juan la Laguna	12	San Juan la Laguna	7	Julio	2023-07-26T00:00:00	2024-11-08T00:00:00	8	Radiación solar	0
67705	7	Sololá	717	San Juan la Laguna	12	San Juan la Laguna	7	Julio	2023-07-26T00:00:00	2024-11-08T01:00:00	2	Temperatura media	17.4
67706	7	Sololá	717	San Juan la Laguna	12	San Juan la Laguna	7	Julio	2023-07-26T00:00:00	2024-11-08T01:00:00	4	Temperatura máxima	19.8
67707	7	Sololá	717	San Juan la Laguna	12	San Juan la Laguna	7	Julio	2023-07-26T00:00:00	2024-11-08T01:00:00	3	Temperatura mínima	17.3
67708	7	Sololá	717	San Juan la Laguna	12	San Juan la Laguna	7	Julio	2023-07-26T00:00:00	2024-11-08T01:00:00	5	Humedad	60
67709	7	Sololá	717	San Juan la Laguna	12	San Juan la Laguna	7	Julio	2023-07-26T00:00:00	2024-11-08T01:00:00	6	Velocidad del viento	0
67710	7	Sololá	717	San Juan la Laguna	12	San Juan la Laguna	7	Julio	2023-07-26T00:00:00	2024-11-08T01:00:00	7	Dirección del viento	0
67711	7	Sololá	717	San Juan la Laguna	12	San Juan la Laguna	7	Julio	2023-07-26T00:00:00	2024-11-08T01:00:00	1	Precipitación	0
67712	7	Sololá	717	San Juan la Laguna	12	San Juan la Laguna	7	Julio	2023-07-26T00:00:00	2024-11-08T01:00:00	8	Radiación solar	0
67713	7	Sololá	717	San Juan la Laguna	12	San Juan la Laguna	7	Julio	2023-07-26T00:00:00	2024-11-08T02:00:00	2	Temperatura media	17.9
67714	7	Sololá	717	San Juan la Laguna	12	San Juan la Laguna	7	Julio	2023-07-26T00:00:00	2024-11-08T02:00:00	4	Temperatura máxima	17.9
67715	7	Sololá	717	San Juan la Laguna	12	San Juan la Laguna	7	Julio	2023-07-26T00:00:00	2024-11-08T02:00:00	3	Temperatura mínima	16.5
67716	7	Sololá	717	San Juan la Laguna	12	San Juan la Laguna	7	Julio	2023-07-26T00:00:00	2024-11-08T02:00:00	5	Humedad	60
67717	7	Sololá	717	San Juan la Laguna	12	San Juan la Laguna	7	Julio	2023-07-26T00:00:00	2024-11-08T02:00:00	6	Velocidad del viento	1.6
67718	7	Sololá	717	San Juan la Laguna	12	San Juan la Laguna	7	Julio	2023-07-26T00:00:00	2024-11-08T02:00:00	7	Dirección del viento	1.61
67719	7	Sololá	717	San Juan la Laguna	12	San Juan la Laguna	7	Julio	2023-07-26T00:00:00	2024-11-08T02:00:00	1	Precipitación	0
67720	7	Sololá	717	San Juan la Laguna	12	San Juan la Laguna	7	Julio	2023-07-26T00:00:00	2024-11-08T02:00:00	8	Radiación solar	0
67721	7	Sololá	717	San Juan la Laguna	12	San Juan la Laguna	7	Julio	2023-07-26T00:00:00	2024-11-08T03:00:00	2	Temperatura media	18.4
67722	7	Sololá	717	San Juan la Laguna	12	San Juan la Laguna	7	Julio	2023-07-26T00:00:00	2024-11-08T03:00:00	4	Temperatura máxima	19
67723	7	Sololá	717	San Juan la Laguna	12	San Juan la Laguna	7	Julio	2023-07-26T00:00:00	2024-11-08T03:00:00	3	Temperatura mínima	17.6
67724	7	Sololá	717	San Juan la Laguna	12	San Juan la Laguna	7	Julio	2023-07-26T00:00:00	2024-11-08T03:00:00	5	Humedad	61
67725	7	Sololá	717	San Juan la Laguna	12	San Juan la Laguna	7	Julio	2023-07-26T00:00:00	2024-11-08T03:00:00	6	Velocidad del viento	1.6
67726	7	Sololá	717	San Juan la Laguna	12	San Juan la Laguna	7	Julio	2023-07-26T00:00:00	2024-11-08T03:00:00	7	Dirección del viento	1.61
67727	7	Sololá	717	San Juan la Laguna	12	San Juan la Laguna	7	Julio	2023-07-26T00:00:00	2024-11-08T03:00:00	1	Precipitación	0
67728	7	Sololá	717	San Juan la Laguna	12	San Juan la Laguna	7	Julio	2023-07-26T00:00:00	2024-11-08T03:00:00	8	Radiación solar	0
67729	7	Sololá	717	San Juan la Laguna	12	San Juan la Laguna	7	Julio	2023-07-26T00:00:00	2024-11-08T04:00:00	2	Temperatura media	15.5
67730	7	Sololá	717	San Juan la Laguna	12	San Juan la Laguna	7	Julio	2023-07-26T00:00:00	2024-11-08T04:00:00	4	Temperatura máxima	18.4
67731	7	Sololá	717	San Juan la Laguna	12	San Juan la Laguna	7	Julio	2023-07-26T00:00:00	2024-11-08T04:00:00	3	Temperatura mínima	15.5
67732	7	Sololá	717	San Juan la Laguna	12	San Juan la Laguna	7	Julio	2023-07-26T00:00:00	2024-11-08T04:00:00	5	Humedad	73
67733	7	Sololá	717	San Juan la Laguna	12	San Juan la Laguna	7	Julio	2023-07-26T00:00:00	2024-11-08T04:00:00	6	Velocidad del viento	0
67734	7	Sololá	717	San Juan la Laguna	12	San Juan la Laguna	7	Julio	2023-07-26T00:00:00	2024-11-08T04:00:00	7	Dirección del viento	0
67735	7	Sololá	717	San Juan la Laguna	12	San Juan la Laguna	7	Julio	2023-07-26T00:00:00	2024-11-08T04:00:00	1	Precipitación	0
67736	7	Sololá	717	San Juan la Laguna	12	San Juan la Laguna	7	Julio	2023-07-26T00:00:00	2024-11-08T04:00:00	8	Radiación solar	0
67737	7	Sololá	717	San Juan la Laguna	12	San Juan la Laguna	7	Julio	2023-07-26T00:00:00	2024-11-08T05:00:00	2	Temperatura media	15.7
67738	7	Sololá	717	San Juan la Laguna	12	San Juan la Laguna	7	Julio	2023-07-26T00:00:00	2024-11-08T05:00:00	4	Temperatura máxima	17.3
67739	7	Sololá	717	San Juan la Laguna	12	San Juan la Laguna	7	Julio	2023-07-26T00:00:00	2024-11-08T05:00:00	3	Temperatura mínima	15.3
67740	7	Sololá	717	San Juan la Laguna	12	San Juan la Laguna	7	Julio	2023-07-26T00:00:00	2024-11-08T05:00:00	5	Humedad	71
67741	7	Sololá	717	San Juan la Laguna	12	San Juan la Laguna	7	Julio	2023-07-26T00:00:00	2024-11-08T05:00:00	6	Velocidad del viento	1.6
67742	7	Sololá	717	San Juan la Laguna	12	San Juan la Laguna	7	Julio	2023-07-26T00:00:00	2024-11-08T05:00:00	7	Dirección del viento	1.61
67743	7	Sololá	717	San Juan la Laguna	12	San Juan la Laguna	7	Julio	2023-07-26T00:00:00	2024-11-08T05:00:00	1	Precipitación	0
67744	7	Sololá	717	San Juan la Laguna	12	San Juan la Laguna	7	Julio	2023-07-26T00:00:00	2024-11-08T05:00:00	8	Radiación solar	0
67745	7	Sololá	717	San Juan la Laguna	12	San Juan la Laguna	7	Julio	2023-07-26T00:00:00	2024-11-08T06:00:00	2	Temperatura media	15.1
67746	7	Sololá	717	San Juan la Laguna	12	San Juan la Laguna	7	Julio	2023-07-26T00:00:00	2024-11-08T06:00:00	4	Temperatura máxima	15.8
67747	7	Sololá	717	San Juan la Laguna	12	San Juan la Laguna	7	Julio	2023-07-26T00:00:00	2024-11-08T06:00:00	3	Temperatura mínima	14.6
67748	7	Sololá	717	San Juan la Laguna	12	San Juan la Laguna	7	Julio	2023-07-26T00:00:00	2024-11-08T06:00:00	5	Humedad	75
67749	7	Sololá	717	San Juan la Laguna	12	San Juan la Laguna	7	Julio	2023-07-26T00:00:00	2024-11-08T06:00:00	6	Velocidad del viento	0
67750	7	Sololá	717	San Juan la Laguna	12	San Juan la Laguna	7	Julio	2023-07-26T00:00:00	2024-11-08T06:00:00	7	Dirección del viento	0
67751	7	Sololá	717	San Juan la Laguna	12	San Juan la Laguna	7	Julio	2023-07-26T00:00:00	2024-11-08T06:00:00	1	Precipitación	0
67752	7	Sololá	717	San Juan la Laguna	12	San Juan la Laguna	7	Julio	2023-07-26T00:00:00	2024-11-08T06:00:00	8	Radiación solar	1
67753	7	Sololá	717	San Juan la Laguna	12	San Juan la Laguna	7	Julio	2023-07-26T00:00:00	2024-11-08T07:00:00	2	Temperatura media	17.6
67754	7	Sololá	717	San Juan la Laguna	12	San Juan la Laguna	7	Julio	2023-07-26T00:00:00	2024-11-08T07:00:00	4	Temperatura máxima	17.6
67755	7	Sololá	717	San Juan la Laguna	12	San Juan la Laguna	7	Julio	2023-07-26T00:00:00	2024-11-08T07:00:00	3	Temperatura mínima	15.1
67756	7	Sololá	717	San Juan la Laguna	12	San Juan la Laguna	7	Julio	2023-07-26T00:00:00	2024-11-08T07:00:00	5	Humedad	72
67757	7	Sololá	717	San Juan la Laguna	12	San Juan la Laguna	7	Julio	2023-07-26T00:00:00	2024-11-08T07:00:00	6	Velocidad del viento	0
67758	7	Sololá	717	San Juan la Laguna	12	San Juan la Laguna	7	Julio	2023-07-26T00:00:00	2024-11-08T07:00:00	7	Dirección del viento	0
67759	7	Sololá	717	San Juan la Laguna	12	San Juan la Laguna	7	Julio	2023-07-26T00:00:00	2024-11-08T07:00:00	1	Precipitación	0
67760	7	Sololá	717	San Juan la Laguna	12	San Juan la Laguna	7	Julio	2023-07-26T00:00:00	2024-11-08T07:00:00	8	Radiación solar	85
67761	7	Sololá	717	San Juan la Laguna	12	San Juan la Laguna	7	Julio	2023-07-26T00:00:00	2024-11-08T08:00:00	2	Temperatura media	21.6
67762	7	Sololá	717	San Juan la Laguna	12	San Juan la Laguna	7	Julio	2023-07-26T00:00:00	2024-11-08T08:00:00	4	Temperatura máxima	21.6
67763	7	Sololá	717	San Juan la Laguna	12	San Juan la Laguna	7	Julio	2023-07-26T00:00:00	2024-11-08T08:00:00	3	Temperatura mínima	17.6
67764	7	Sololá	717	San Juan la Laguna	12	San Juan la Laguna	7	Julio	2023-07-26T00:00:00	2024-11-08T08:00:00	5	Humedad	55
67765	7	Sololá	717	San Juan la Laguna	12	San Juan la Laguna	7	Julio	2023-07-26T00:00:00	2024-11-08T08:00:00	6	Velocidad del viento	0
67766	7	Sololá	717	San Juan la Laguna	12	San Juan la Laguna	7	Julio	2023-07-26T00:00:00	2024-11-08T08:00:00	7	Dirección del viento	0
67767	7	Sololá	717	San Juan la Laguna	12	San Juan la Laguna	7	Julio	2023-07-26T00:00:00	2024-11-08T08:00:00	1	Precipitación	0
67768	7	Sololá	717	San Juan la Laguna	12	San Juan la Laguna	7	Julio	2023-07-26T00:00:00	2024-11-08T08:00:00	8	Radiación solar	291
67769	7	Sololá	717	San Juan la Laguna	12	San Juan la Laguna	7	Julio	2023-07-26T00:00:00	2024-11-08T09:00:00	2	Temperatura media	23.7
67770	7	Sololá	717	San Juan la Laguna	12	San Juan la Laguna	7	Julio	2023-07-26T00:00:00	2024-11-08T09:00:00	4	Temperatura máxima	23.7
67771	7	Sololá	717	San Juan la Laguna	12	San Juan la Laguna	7	Julio	2023-07-26T00:00:00	2024-11-08T09:00:00	3	Temperatura mínima	21.6
67772	7	Sololá	717	San Juan la Laguna	12	San Juan la Laguna	7	Julio	2023-07-26T00:00:00	2024-11-08T09:00:00	5	Humedad	48
67773	7	Sololá	717	San Juan la Laguna	12	San Juan la Laguna	7	Julio	2023-07-26T00:00:00	2024-11-08T09:00:00	6	Velocidad del viento	1.6
67774	7	Sololá	717	San Juan la Laguna	12	San Juan la Laguna	7	Julio	2023-07-26T00:00:00	2024-11-08T09:00:00	7	Dirección del viento	1.61
67775	7	Sololá	717	San Juan la Laguna	12	San Juan la Laguna	7	Julio	2023-07-26T00:00:00	2024-11-08T09:00:00	1	Precipitación	0
67776	7	Sololá	717	San Juan la Laguna	12	San Juan la Laguna	7	Julio	2023-07-26T00:00:00	2024-11-08T09:00:00	8	Radiación solar	518
67777	7	Sololá	717	San Juan la Laguna	12	San Juan la Laguna	7	Julio	2023-07-26T00:00:00	2024-11-08T10:00:00	2	Temperatura media	24.3
67778	7	Sololá	717	San Juan la Laguna	12	San Juan la Laguna	7	Julio	2023-07-26T00:00:00	2024-11-08T10:00:00	4	Temperatura máxima	24.3
67779	7	Sololá	717	San Juan la Laguna	12	San Juan la Laguna	7	Julio	2023-07-26T00:00:00	2024-11-08T10:00:00	3	Temperatura mínima	23.7
67780	7	Sololá	717	San Juan la Laguna	12	San Juan la Laguna	7	Julio	2023-07-26T00:00:00	2024-11-08T10:00:00	5	Humedad	46
67781	7	Sololá	717	San Juan la Laguna	12	San Juan la Laguna	7	Julio	2023-07-26T00:00:00	2024-11-08T10:00:00	6	Velocidad del viento	8
67782	7	Sololá	717	San Juan la Laguna	12	San Juan la Laguna	7	Julio	2023-07-26T00:00:00	2024-11-08T10:00:00	7	Dirección del viento	8.05
67783	7	Sololá	717	San Juan la Laguna	12	San Juan la Laguna	7	Julio	2023-07-26T00:00:00	2024-11-08T10:00:00	1	Precipitación	0
67784	7	Sololá	717	San Juan la Laguna	12	San Juan la Laguna	7	Julio	2023-07-26T00:00:00	2024-11-08T10:00:00	8	Radiación solar	696
67785	7	Sololá	717	San Juan la Laguna	12	San Juan la Laguna	7	Julio	2023-07-26T00:00:00	2024-11-08T11:00:00	2	Temperatura media	26.3
67786	7	Sololá	717	San Juan la Laguna	12	San Juan la Laguna	7	Julio	2023-07-26T00:00:00	2024-11-08T11:00:00	4	Temperatura máxima	26.3
67787	7	Sololá	717	San Juan la Laguna	12	San Juan la Laguna	7	Julio	2023-07-26T00:00:00	2024-11-08T11:00:00	3	Temperatura mínima	24.3
67788	7	Sololá	717	San Juan la Laguna	12	San Juan la Laguna	7	Julio	2023-07-26T00:00:00	2024-11-08T11:00:00	5	Humedad	46
67789	7	Sololá	717	San Juan la Laguna	12	San Juan la Laguna	7	Julio	2023-07-26T00:00:00	2024-11-08T11:00:00	6	Velocidad del viento	6.4
67790	7	Sololá	717	San Juan la Laguna	12	San Juan la Laguna	7	Julio	2023-07-26T00:00:00	2024-11-08T11:00:00	7	Dirección del viento	6.44
67791	7	Sololá	717	San Juan la Laguna	12	San Juan la Laguna	7	Julio	2023-07-26T00:00:00	2024-11-08T11:00:00	1	Precipitación	0
67792	7	Sololá	717	San Juan la Laguna	12	San Juan la Laguna	7	Julio	2023-07-26T00:00:00	2024-11-08T11:00:00	8	Radiación solar	836
67793	7	Sololá	717	San Juan la Laguna	12	San Juan la Laguna	7	Julio	2023-07-26T00:00:00	2024-11-08T12:00:00	2	Temperatura media	26.2
67794	7	Sololá	717	San Juan la Laguna	12	San Juan la Laguna	7	Julio	2023-07-26T00:00:00	2024-11-08T12:00:00	4	Temperatura máxima	26.4
67795	7	Sololá	717	San Juan la Laguna	12	San Juan la Laguna	7	Julio	2023-07-26T00:00:00	2024-11-08T12:00:00	3	Temperatura mínima	25.9
67796	7	Sololá	717	San Juan la Laguna	12	San Juan la Laguna	7	Julio	2023-07-26T00:00:00	2024-11-08T12:00:00	5	Humedad	45
67797	7	Sololá	717	San Juan la Laguna	12	San Juan la Laguna	7	Julio	2023-07-26T00:00:00	2024-11-08T12:00:00	6	Velocidad del viento	8
67798	7	Sololá	717	San Juan la Laguna	12	San Juan la Laguna	7	Julio	2023-07-26T00:00:00	2024-11-08T12:00:00	7	Dirección del viento	8.05
67799	7	Sololá	717	San Juan la Laguna	12	San Juan la Laguna	7	Julio	2023-07-26T00:00:00	2024-11-08T12:00:00	1	Precipitación	0
67800	7	Sololá	717	San Juan la Laguna	12	San Juan la Laguna	7	Julio	2023-07-26T00:00:00	2024-11-08T12:00:00	8	Radiación solar	922
67801	7	Sololá	717	San Juan la Laguna	12	San Juan la Laguna	7	Julio	2023-07-26T00:00:00	2024-11-08T13:00:00	2	Temperatura media	27.4
67802	7	Sololá	717	San Juan la Laguna	12	San Juan la Laguna	7	Julio	2023-07-26T00:00:00	2024-11-08T13:00:00	4	Temperatura máxima	27.6
67803	7	Sololá	717	San Juan la Laguna	12	San Juan la Laguna	7	Julio	2023-07-26T00:00:00	2024-11-08T13:00:00	3	Temperatura mínima	26.2
67804	7	Sololá	717	San Juan la Laguna	12	San Juan la Laguna	7	Julio	2023-07-26T00:00:00	2024-11-08T13:00:00	5	Humedad	42
67805	7	Sololá	717	San Juan la Laguna	12	San Juan la Laguna	7	Julio	2023-07-26T00:00:00	2024-11-08T13:00:00	6	Velocidad del viento	9.7
67806	7	Sololá	717	San Juan la Laguna	12	San Juan la Laguna	7	Julio	2023-07-26T00:00:00	2024-11-08T13:00:00	7	Dirección del viento	9.66
67807	7	Sololá	717	San Juan la Laguna	12	San Juan la Laguna	7	Julio	2023-07-26T00:00:00	2024-11-08T13:00:00	1	Precipitación	0
67808	7	Sololá	717	San Juan la Laguna	12	San Juan la Laguna	7	Julio	2023-07-26T00:00:00	2024-11-08T13:00:00	8	Radiación solar	943
67809	7	Sololá	717	San Juan la Laguna	12	San Juan la Laguna	7	Julio	2023-07-26T00:00:00	2024-11-08T14:00:00	2	Temperatura media	27.9
67810	7	Sololá	717	San Juan la Laguna	12	San Juan la Laguna	7	Julio	2023-07-26T00:00:00	2024-11-08T14:00:00	4	Temperatura máxima	27.9
67811	7	Sololá	717	San Juan la Laguna	12	San Juan la Laguna	7	Julio	2023-07-26T00:00:00	2024-11-08T14:00:00	3	Temperatura mínima	27.1
67812	7	Sololá	717	San Juan la Laguna	12	San Juan la Laguna	7	Julio	2023-07-26T00:00:00	2024-11-08T14:00:00	5	Humedad	46
67813	7	Sololá	717	San Juan la Laguna	12	San Juan la Laguna	7	Julio	2023-07-26T00:00:00	2024-11-08T14:00:00	6	Velocidad del viento	6.4
67814	7	Sololá	717	San Juan la Laguna	12	San Juan la Laguna	7	Julio	2023-07-26T00:00:00	2024-11-08T14:00:00	7	Dirección del viento	6.44
67815	7	Sololá	717	San Juan la Laguna	12	San Juan la Laguna	7	Julio	2023-07-26T00:00:00	2024-11-08T14:00:00	1	Precipitación	0
67816	7	Sololá	717	San Juan la Laguna	12	San Juan la Laguna	7	Julio	2023-07-26T00:00:00	2024-11-08T14:00:00	8	Radiación solar	895
67817	7	Sololá	717	San Juan la Laguna	12	San Juan la Laguna	7	Julio	2023-07-26T00:00:00	2024-11-08T15:00:00	2	Temperatura media	26.8
67818	7	Sololá	717	San Juan la Laguna	12	San Juan la Laguna	7	Julio	2023-07-26T00:00:00	2024-11-08T15:00:00	4	Temperatura máxima	27.9
67819	7	Sololá	717	San Juan la Laguna	12	San Juan la Laguna	7	Julio	2023-07-26T00:00:00	2024-11-08T15:00:00	3	Temperatura mínima	26.8
67820	7	Sololá	717	San Juan la Laguna	12	San Juan la Laguna	7	Julio	2023-07-26T00:00:00	2024-11-08T15:00:00	5	Humedad	48
67821	7	Sololá	717	San Juan la Laguna	12	San Juan la Laguna	7	Julio	2023-07-26T00:00:00	2024-11-08T15:00:00	6	Velocidad del viento	8
67822	7	Sololá	717	San Juan la Laguna	12	San Juan la Laguna	7	Julio	2023-07-26T00:00:00	2024-11-08T15:00:00	7	Dirección del viento	8.05
67823	7	Sololá	717	San Juan la Laguna	12	San Juan la Laguna	7	Julio	2023-07-26T00:00:00	2024-11-08T15:00:00	1	Precipitación	0
67824	7	Sololá	717	San Juan la Laguna	12	San Juan la Laguna	7	Julio	2023-07-26T00:00:00	2024-11-08T15:00:00	8	Radiación solar	782
67825	7	Sololá	717	San Juan la Laguna	12	San Juan la Laguna	7	Julio	2023-07-26T00:00:00	2024-11-08T16:00:00	2	Temperatura media	25.8
67826	7	Sololá	717	San Juan la Laguna	12	San Juan la Laguna	7	Julio	2023-07-26T00:00:00	2024-11-08T16:00:00	4	Temperatura máxima	27
67827	7	Sololá	717	San Juan la Laguna	12	San Juan la Laguna	7	Julio	2023-07-26T00:00:00	2024-11-08T16:00:00	3	Temperatura mínima	25.8
67828	7	Sololá	717	San Juan la Laguna	12	San Juan la Laguna	7	Julio	2023-07-26T00:00:00	2024-11-08T16:00:00	5	Humedad	52
67829	7	Sololá	717	San Juan la Laguna	12	San Juan la Laguna	7	Julio	2023-07-26T00:00:00	2024-11-08T16:00:00	6	Velocidad del viento	6.4
67830	7	Sololá	717	San Juan la Laguna	12	San Juan la Laguna	7	Julio	2023-07-26T00:00:00	2024-11-08T16:00:00	7	Dirección del viento	6.44
67831	7	Sololá	717	San Juan la Laguna	12	San Juan la Laguna	7	Julio	2023-07-26T00:00:00	2024-11-08T16:00:00	1	Precipitación	0
67832	7	Sololá	717	San Juan la Laguna	12	San Juan la Laguna	7	Julio	2023-07-26T00:00:00	2024-11-08T16:00:00	8	Radiación solar	598
67833	7	Sololá	717	San Juan la Laguna	12	San Juan la Laguna	7	Julio	2023-07-26T00:00:00	2024-11-08T17:00:00	2	Temperatura media	24.8
67834	7	Sololá	717	San Juan la Laguna	12	San Juan la Laguna	7	Julio	2023-07-26T00:00:00	2024-11-08T17:00:00	4	Temperatura máxima	25.8
67835	7	Sololá	717	San Juan la Laguna	12	San Juan la Laguna	7	Julio	2023-07-26T00:00:00	2024-11-08T17:00:00	3	Temperatura mínima	24.8
67836	7	Sololá	717	San Juan la Laguna	12	San Juan la Laguna	7	Julio	2023-07-26T00:00:00	2024-11-08T17:00:00	5	Humedad	53
67837	7	Sololá	717	San Juan la Laguna	12	San Juan la Laguna	7	Julio	2023-07-26T00:00:00	2024-11-08T17:00:00	6	Velocidad del viento	6.4
67838	7	Sololá	717	San Juan la Laguna	12	San Juan la Laguna	7	Julio	2023-07-26T00:00:00	2024-11-08T17:00:00	7	Dirección del viento	6.44
67839	7	Sololá	717	San Juan la Laguna	12	San Juan la Laguna	7	Julio	2023-07-26T00:00:00	2024-11-08T17:00:00	1	Precipitación	0
67840	7	Sololá	717	San Juan la Laguna	12	San Juan la Laguna	7	Julio	2023-07-26T00:00:00	2024-11-08T17:00:00	8	Radiación solar	408
67841	7	Sololá	717	San Juan la Laguna	12	San Juan la Laguna	7	Julio	2023-07-26T00:00:00	2024-11-08T18:00:00	2	Temperatura media	23.5
67842	7	Sololá	717	San Juan la Laguna	12	San Juan la Laguna	7	Julio	2023-07-26T00:00:00	2024-11-08T18:00:00	4	Temperatura máxima	24.9
67843	7	Sololá	717	San Juan la Laguna	12	San Juan la Laguna	7	Julio	2023-07-26T00:00:00	2024-11-08T18:00:00	3	Temperatura mínima	23.5
67844	7	Sololá	717	San Juan la Laguna	12	San Juan la Laguna	7	Julio	2023-07-26T00:00:00	2024-11-08T18:00:00	5	Humedad	55
67845	7	Sololá	717	San Juan la Laguna	12	San Juan la Laguna	7	Julio	2023-07-26T00:00:00	2024-11-08T18:00:00	6	Velocidad del viento	3.2
67846	7	Sololá	717	San Juan la Laguna	12	San Juan la Laguna	7	Julio	2023-07-26T00:00:00	2024-11-08T18:00:00	7	Dirección del viento	3.22
67847	7	Sololá	717	San Juan la Laguna	12	San Juan la Laguna	7	Julio	2023-07-26T00:00:00	2024-11-08T18:00:00	1	Precipitación	0
67848	7	Sololá	717	San Juan la Laguna	12	San Juan la Laguna	7	Julio	2023-07-26T00:00:00	2024-11-08T18:00:00	8	Radiación solar	151
67849	7	Sololá	717	San Juan la Laguna	12	San Juan la Laguna	7	Julio	2023-07-26T00:00:00	2024-11-08T19:00:00	2	Temperatura media	22.6
67850	7	Sololá	717	San Juan la Laguna	12	San Juan la Laguna	7	Julio	2023-07-26T00:00:00	2024-11-08T19:00:00	4	Temperatura máxima	23.5
67851	7	Sololá	717	San Juan la Laguna	12	San Juan la Laguna	7	Julio	2023-07-26T00:00:00	2024-11-08T19:00:00	3	Temperatura mínima	22.6
67852	7	Sololá	717	San Juan la Laguna	12	San Juan la Laguna	7	Julio	2023-07-26T00:00:00	2024-11-08T19:00:00	5	Humedad	59
67853	7	Sololá	717	San Juan la Laguna	12	San Juan la Laguna	7	Julio	2023-07-26T00:00:00	2024-11-08T19:00:00	6	Velocidad del viento	3.2
67854	7	Sololá	717	San Juan la Laguna	12	San Juan la Laguna	7	Julio	2023-07-26T00:00:00	2024-11-08T19:00:00	7	Dirección del viento	3.22
67855	7	Sololá	717	San Juan la Laguna	12	San Juan la Laguna	7	Julio	2023-07-26T00:00:00	2024-11-08T19:00:00	1	Precipitación	0
67856	7	Sololá	717	San Juan la Laguna	12	San Juan la Laguna	7	Julio	2023-07-26T00:00:00	2024-11-08T19:00:00	8	Radiación solar	0
67857	7	Sololá	717	San Juan la Laguna	12	San Juan la Laguna	7	Julio	2023-07-26T00:00:00	2024-11-08T20:00:00	2	Temperatura media	21.8
67858	7	Sololá	717	San Juan la Laguna	12	San Juan la Laguna	7	Julio	2023-07-26T00:00:00	2024-11-08T20:00:00	4	Temperatura máxima	22.6
67859	7	Sololá	717	San Juan la Laguna	12	San Juan la Laguna	7	Julio	2023-07-26T00:00:00	2024-11-08T20:00:00	3	Temperatura mínima	21.8
67860	7	Sololá	717	San Juan la Laguna	12	San Juan la Laguna	7	Julio	2023-07-26T00:00:00	2024-11-08T20:00:00	5	Humedad	60
67861	7	Sololá	717	San Juan la Laguna	12	San Juan la Laguna	7	Julio	2023-07-26T00:00:00	2024-11-08T20:00:00	6	Velocidad del viento	1.6
67862	7	Sololá	717	San Juan la Laguna	12	San Juan la Laguna	7	Julio	2023-07-26T00:00:00	2024-11-08T20:00:00	7	Dirección del viento	1.61
67863	7	Sololá	717	San Juan la Laguna	12	San Juan la Laguna	7	Julio	2023-07-26T00:00:00	2024-11-08T20:00:00	1	Precipitación	0
67864	7	Sololá	717	San Juan la Laguna	12	San Juan la Laguna	7	Julio	2023-07-26T00:00:00	2024-11-08T20:00:00	8	Radiación solar	0
67865	7	Sololá	717	San Juan la Laguna	12	San Juan la Laguna	7	Julio	2023-07-26T00:00:00	2024-11-08T21:00:00	2	Temperatura media	21.2
67866	7	Sololá	717	San Juan la Laguna	12	San Juan la Laguna	7	Julio	2023-07-26T00:00:00	2024-11-08T21:00:00	4	Temperatura máxima	21.8
67867	7	Sololá	717	San Juan la Laguna	12	San Juan la Laguna	7	Julio	2023-07-26T00:00:00	2024-11-08T21:00:00	3	Temperatura mínima	21.1
67868	7	Sololá	717	San Juan la Laguna	12	San Juan la Laguna	7	Julio	2023-07-26T00:00:00	2024-11-08T21:00:00	5	Humedad	63
67869	7	Sololá	717	San Juan la Laguna	12	San Juan la Laguna	7	Julio	2023-07-26T00:00:00	2024-11-08T21:00:00	6	Velocidad del viento	1.6
67870	7	Sololá	717	San Juan la Laguna	12	San Juan la Laguna	7	Julio	2023-07-26T00:00:00	2024-11-08T21:00:00	7	Dirección del viento	1.61
67871	7	Sololá	717	San Juan la Laguna	12	San Juan la Laguna	7	Julio	2023-07-26T00:00:00	2024-11-08T21:00:00	1	Precipitación	0
67872	7	Sololá	717	San Juan la Laguna	12	San Juan la Laguna	7	Julio	2023-07-26T00:00:00	2024-11-08T21:00:00	8	Radiación solar	0
67873	7	Sololá	717	San Juan la Laguna	12	San Juan la Laguna	7	Julio	2023-07-26T00:00:00	2024-11-08T22:00:00	2	Temperatura media	21.3
67874	7	Sololá	717	San Juan la Laguna	12	San Juan la Laguna	7	Julio	2023-07-26T00:00:00	2024-11-08T22:00:00	4	Temperatura máxima	21.4
67875	7	Sololá	717	San Juan la Laguna	12	San Juan la Laguna	7	Julio	2023-07-26T00:00:00	2024-11-08T22:00:00	3	Temperatura mínima	21.2
67876	7	Sololá	717	San Juan la Laguna	12	San Juan la Laguna	7	Julio	2023-07-26T00:00:00	2024-11-08T22:00:00	5	Humedad	61
67877	7	Sololá	717	San Juan la Laguna	12	San Juan la Laguna	7	Julio	2023-07-26T00:00:00	2024-11-08T22:00:00	6	Velocidad del viento	3.2
67878	7	Sololá	717	San Juan la Laguna	12	San Juan la Laguna	7	Julio	2023-07-26T00:00:00	2024-11-08T22:00:00	7	Dirección del viento	3.22
67879	7	Sololá	717	San Juan la Laguna	12	San Juan la Laguna	7	Julio	2023-07-26T00:00:00	2024-11-08T22:00:00	1	Precipitación	0
67880	7	Sololá	717	San Juan la Laguna	12	San Juan la Laguna	7	Julio	2023-07-26T00:00:00	2024-11-08T22:00:00	8	Radiación solar	0
67881	7	Sololá	717	San Juan la Laguna	12	San Juan la Laguna	7	Julio	2023-07-26T00:00:00	2024-11-08T23:00:00	2	Temperatura media	19.6
67882	7	Sololá	717	San Juan la Laguna	12	San Juan la Laguna	7	Julio	2023-07-26T00:00:00	2024-11-08T23:00:00	4	Temperatura máxima	21.3
67883	7	Sololá	717	San Juan la Laguna	12	San Juan la Laguna	7	Julio	2023-07-26T00:00:00	2024-11-08T23:00:00	3	Temperatura mínima	19.6
67884	7	Sololá	717	San Juan la Laguna	12	San Juan la Laguna	7	Julio	2023-07-26T00:00:00	2024-11-08T23:00:00	5	Humedad	71
67885	7	Sololá	717	San Juan la Laguna	12	San Juan la Laguna	7	Julio	2023-07-26T00:00:00	2024-11-08T23:00:00	6	Velocidad del viento	0
67886	7	Sololá	717	San Juan la Laguna	12	San Juan la Laguna	7	Julio	2023-07-26T00:00:00	2024-11-08T23:00:00	7	Dirección del viento	0
67887	7	Sololá	717	San Juan la Laguna	12	San Juan la Laguna	7	Julio	2023-07-26T00:00:00	2024-11-08T23:00:00	1	Precipitación	0
67888	7	Sololá	717	San Juan la Laguna	12	San Juan la Laguna	7	Julio	2023-07-26T00:00:00	2024-11-08T23:00:00	8	Radiación solar	0
67889	7	Sololá	717	San Juan la Laguna	12	San Juan la Laguna	7	Julio	2023-07-27T00:00:00	2024-11-08T00:00:00	2	Temperatura media	18.2
67890	7	Sololá	717	San Juan la Laguna	12	San Juan la Laguna	7	Julio	2023-07-27T00:00:00	2024-11-08T00:00:00	4	Temperatura máxima	19.6
67891	7	Sololá	717	San Juan la Laguna	12	San Juan la Laguna	7	Julio	2023-07-27T00:00:00	2024-11-08T00:00:00	3	Temperatura mínima	18.1
67892	7	Sololá	717	San Juan la Laguna	12	San Juan la Laguna	7	Julio	2023-07-27T00:00:00	2024-11-08T00:00:00	5	Humedad	74
67893	7	Sololá	717	San Juan la Laguna	12	San Juan la Laguna	7	Julio	2023-07-27T00:00:00	2024-11-08T00:00:00	6	Velocidad del viento	0
67894	7	Sololá	717	San Juan la Laguna	12	San Juan la Laguna	7	Julio	2023-07-27T00:00:00	2024-11-08T00:00:00	7	Dirección del viento	0
67895	7	Sololá	717	San Juan la Laguna	12	San Juan la Laguna	7	Julio	2023-07-27T00:00:00	2024-11-08T00:00:00	1	Precipitación	0
67896	7	Sololá	717	San Juan la Laguna	12	San Juan la Laguna	7	Julio	2023-07-27T00:00:00	2024-11-08T00:00:00	8	Radiación solar	0
67897	7	Sololá	717	San Juan la Laguna	12	San Juan la Laguna	7	Julio	2023-07-27T00:00:00	2024-11-08T01:00:00	2	Temperatura media	17.5
67898	7	Sololá	717	San Juan la Laguna	12	San Juan la Laguna	7	Julio	2023-07-27T00:00:00	2024-11-08T01:00:00	4	Temperatura máxima	18.4
67899	7	Sololá	717	San Juan la Laguna	12	San Juan la Laguna	7	Julio	2023-07-27T00:00:00	2024-11-08T01:00:00	3	Temperatura mínima	17.5
67900	7	Sololá	717	San Juan la Laguna	12	San Juan la Laguna	7	Julio	2023-07-27T00:00:00	2024-11-08T01:00:00	5	Humedad	76
67901	7	Sololá	717	San Juan la Laguna	12	San Juan la Laguna	7	Julio	2023-07-27T00:00:00	2024-11-08T01:00:00	6	Velocidad del viento	0
67902	7	Sololá	717	San Juan la Laguna	12	San Juan la Laguna	7	Julio	2023-07-27T00:00:00	2024-11-08T01:00:00	7	Dirección del viento	0
67903	7	Sololá	717	San Juan la Laguna	12	San Juan la Laguna	7	Julio	2023-07-27T00:00:00	2024-11-08T01:00:00	1	Precipitación	0
67904	7	Sololá	717	San Juan la Laguna	12	San Juan la Laguna	7	Julio	2023-07-27T00:00:00	2024-11-08T01:00:00	8	Radiación solar	0
67905	7	Sololá	717	San Juan la Laguna	12	San Juan la Laguna	7	Julio	2023-07-27T00:00:00	2024-11-08T02:00:00	2	Temperatura media	18.2
67906	7	Sololá	717	San Juan la Laguna	12	San Juan la Laguna	7	Julio	2023-07-27T00:00:00	2024-11-08T02:00:00	4	Temperatura máxima	18.7
67907	7	Sololá	717	San Juan la Laguna	12	San Juan la Laguna	7	Julio	2023-07-27T00:00:00	2024-11-08T02:00:00	3	Temperatura mínima	17.5
67908	7	Sololá	717	San Juan la Laguna	12	San Juan la Laguna	7	Julio	2023-07-27T00:00:00	2024-11-08T02:00:00	5	Humedad	73
67909	7	Sololá	717	San Juan la Laguna	12	San Juan la Laguna	7	Julio	2023-07-27T00:00:00	2024-11-08T02:00:00	6	Velocidad del viento	0
67910	7	Sololá	717	San Juan la Laguna	12	San Juan la Laguna	7	Julio	2023-07-27T00:00:00	2024-11-08T02:00:00	7	Dirección del viento	0
67911	7	Sololá	717	San Juan la Laguna	12	San Juan la Laguna	7	Julio	2023-07-27T00:00:00	2024-11-08T02:00:00	1	Precipitación	0
67912	7	Sololá	717	San Juan la Laguna	12	San Juan la Laguna	7	Julio	2023-07-27T00:00:00	2024-11-08T02:00:00	8	Radiación solar	0
67913	7	Sololá	717	San Juan la Laguna	12	San Juan la Laguna	7	Julio	2023-07-27T00:00:00	2024-11-08T03:00:00	2	Temperatura media	16.6
67914	7	Sololá	717	San Juan la Laguna	12	San Juan la Laguna	7	Julio	2023-07-27T00:00:00	2024-11-08T03:00:00	4	Temperatura máxima	18.2
67915	7	Sololá	717	San Juan la Laguna	12	San Juan la Laguna	7	Julio	2023-07-27T00:00:00	2024-11-08T03:00:00	3	Temperatura mínima	16.6
67916	7	Sololá	717	San Juan la Laguna	12	San Juan la Laguna	7	Julio	2023-07-27T00:00:00	2024-11-08T03:00:00	5	Humedad	79
67917	7	Sololá	717	San Juan la Laguna	12	San Juan la Laguna	7	Julio	2023-07-27T00:00:00	2024-11-08T03:00:00	6	Velocidad del viento	0
67918	7	Sololá	717	San Juan la Laguna	12	San Juan la Laguna	7	Julio	2023-07-27T00:00:00	2024-11-08T03:00:00	7	Dirección del viento	0
67919	7	Sololá	717	San Juan la Laguna	12	San Juan la Laguna	7	Julio	2023-07-27T00:00:00	2024-11-08T03:00:00	1	Precipitación	0
67920	7	Sololá	717	San Juan la Laguna	12	San Juan la Laguna	7	Julio	2023-07-27T00:00:00	2024-11-08T03:00:00	8	Radiación solar	0
67921	7	Sololá	717	San Juan la Laguna	12	San Juan la Laguna	7	Julio	2023-07-27T00:00:00	2024-11-08T04:00:00	2	Temperatura media	18.5
67922	7	Sololá	717	San Juan la Laguna	12	San Juan la Laguna	7	Julio	2023-07-27T00:00:00	2024-11-08T04:00:00	4	Temperatura máxima	18.9
67923	7	Sololá	717	San Juan la Laguna	12	San Juan la Laguna	7	Julio	2023-07-27T00:00:00	2024-11-08T04:00:00	3	Temperatura mínima	16.3
67924	7	Sololá	717	San Juan la Laguna	12	San Juan la Laguna	7	Julio	2023-07-27T00:00:00	2024-11-08T04:00:00	5	Humedad	71
67925	7	Sololá	717	San Juan la Laguna	12	San Juan la Laguna	7	Julio	2023-07-27T00:00:00	2024-11-08T04:00:00	6	Velocidad del viento	0
67926	7	Sololá	717	San Juan la Laguna	12	San Juan la Laguna	7	Julio	2023-07-27T00:00:00	2024-11-08T04:00:00	7	Dirección del viento	0
67927	7	Sololá	717	San Juan la Laguna	12	San Juan la Laguna	7	Julio	2023-07-27T00:00:00	2024-11-08T04:00:00	1	Precipitación	0
67928	7	Sololá	717	San Juan la Laguna	12	San Juan la Laguna	7	Julio	2023-07-27T00:00:00	2024-11-08T04:00:00	8	Radiación solar	0
67929	7	Sololá	717	San Juan la Laguna	12	San Juan la Laguna	7	Julio	2023-07-27T00:00:00	2024-11-08T05:00:00	2	Temperatura media	17.9
67930	7	Sololá	717	San Juan la Laguna	12	San Juan la Laguna	7	Julio	2023-07-27T00:00:00	2024-11-08T05:00:00	4	Temperatura máxima	18.4
67931	7	Sololá	717	San Juan la Laguna	12	San Juan la Laguna	7	Julio	2023-07-27T00:00:00	2024-11-08T05:00:00	3	Temperatura mínima	17.3
67932	7	Sololá	717	San Juan la Laguna	12	San Juan la Laguna	7	Julio	2023-07-27T00:00:00	2024-11-08T05:00:00	5	Humedad	72
67933	7	Sololá	717	San Juan la Laguna	12	San Juan la Laguna	7	Julio	2023-07-27T00:00:00	2024-11-08T05:00:00	6	Velocidad del viento	0
67934	7	Sololá	717	San Juan la Laguna	12	San Juan la Laguna	7	Julio	2023-07-27T00:00:00	2024-11-08T05:00:00	7	Dirección del viento	0
67935	7	Sololá	717	San Juan la Laguna	12	San Juan la Laguna	7	Julio	2023-07-27T00:00:00	2024-11-08T05:00:00	1	Precipitación	0
67936	7	Sololá	717	San Juan la Laguna	12	San Juan la Laguna	7	Julio	2023-07-27T00:00:00	2024-11-08T05:00:00	8	Radiación solar	0
67937	7	Sololá	717	San Juan la Laguna	12	San Juan la Laguna	7	Julio	2023-07-27T00:00:00	2024-11-08T06:00:00	2	Temperatura media	18.8
67938	7	Sololá	717	San Juan la Laguna	12	San Juan la Laguna	7	Julio	2023-07-27T00:00:00	2024-11-08T06:00:00	4	Temperatura máxima	18.8
67939	7	Sololá	717	San Juan la Laguna	12	San Juan la Laguna	7	Julio	2023-07-27T00:00:00	2024-11-08T06:00:00	3	Temperatura mínima	16.8
67940	7	Sololá	717	San Juan la Laguna	12	San Juan la Laguna	7	Julio	2023-07-27T00:00:00	2024-11-08T06:00:00	5	Humedad	69
67941	7	Sololá	717	San Juan la Laguna	12	San Juan la Laguna	7	Julio	2023-07-27T00:00:00	2024-11-08T06:00:00	6	Velocidad del viento	0
67942	7	Sololá	717	San Juan la Laguna	12	San Juan la Laguna	7	Julio	2023-07-27T00:00:00	2024-11-08T06:00:00	7	Dirección del viento	0
67943	7	Sololá	717	San Juan la Laguna	12	San Juan la Laguna	7	Julio	2023-07-27T00:00:00	2024-11-08T06:00:00	1	Precipitación	0
67944	7	Sololá	717	San Juan la Laguna	12	San Juan la Laguna	7	Julio	2023-07-27T00:00:00	2024-11-08T06:00:00	8	Radiación solar	1
67945	7	Sololá	717	San Juan la Laguna	12	San Juan la Laguna	7	Julio	2023-07-27T00:00:00	2024-11-08T07:00:00	2	Temperatura media	18.7
67946	7	Sololá	717	San Juan la Laguna	12	San Juan la Laguna	7	Julio	2023-07-27T00:00:00	2024-11-08T07:00:00	4	Temperatura máxima	19.8
67947	7	Sololá	717	San Juan la Laguna	12	San Juan la Laguna	7	Julio	2023-07-27T00:00:00	2024-11-08T07:00:00	3	Temperatura mínima	18.7
67948	7	Sololá	717	San Juan la Laguna	12	San Juan la Laguna	7	Julio	2023-07-27T00:00:00	2024-11-08T07:00:00	5	Humedad	71
67949	7	Sololá	717	San Juan la Laguna	12	San Juan la Laguna	7	Julio	2023-07-27T00:00:00	2024-11-08T07:00:00	6	Velocidad del viento	0
67950	7	Sololá	717	San Juan la Laguna	12	San Juan la Laguna	7	Julio	2023-07-27T00:00:00	2024-11-08T07:00:00	7	Dirección del viento	0
67951	7	Sololá	717	San Juan la Laguna	12	San Juan la Laguna	7	Julio	2023-07-27T00:00:00	2024-11-08T07:00:00	1	Precipitación	0
67952	7	Sololá	717	San Juan la Laguna	12	San Juan la Laguna	7	Julio	2023-07-27T00:00:00	2024-11-08T07:00:00	8	Radiación solar	60
67953	7	Sololá	717	San Juan la Laguna	12	San Juan la Laguna	7	Julio	2023-07-27T00:00:00	2024-11-08T08:00:00	2	Temperatura media	21.6
67954	7	Sololá	717	San Juan la Laguna	12	San Juan la Laguna	7	Julio	2023-07-27T00:00:00	2024-11-08T08:00:00	4	Temperatura máxima	21.6
67955	7	Sololá	717	San Juan la Laguna	12	San Juan la Laguna	7	Julio	2023-07-27T00:00:00	2024-11-08T08:00:00	3	Temperatura mínima	18.7
67956	7	Sololá	717	San Juan la Laguna	12	San Juan la Laguna	7	Julio	2023-07-27T00:00:00	2024-11-08T08:00:00	5	Humedad	63
67957	7	Sololá	717	San Juan la Laguna	12	San Juan la Laguna	7	Julio	2023-07-27T00:00:00	2024-11-08T08:00:00	6	Velocidad del viento	0
67958	7	Sololá	717	San Juan la Laguna	12	San Juan la Laguna	7	Julio	2023-07-27T00:00:00	2024-11-08T08:00:00	7	Dirección del viento	0
67959	7	Sololá	717	San Juan la Laguna	12	San Juan la Laguna	7	Julio	2023-07-27T00:00:00	2024-11-08T08:00:00	1	Precipitación	0
67960	7	Sololá	717	San Juan la Laguna	12	San Juan la Laguna	7	Julio	2023-07-27T00:00:00	2024-11-08T08:00:00	8	Radiación solar	281
67961	7	Sololá	717	San Juan la Laguna	12	San Juan la Laguna	7	Julio	2023-07-27T00:00:00	2024-11-08T09:00:00	2	Temperatura media	23.7
67962	7	Sololá	717	San Juan la Laguna	12	San Juan la Laguna	7	Julio	2023-07-27T00:00:00	2024-11-08T09:00:00	4	Temperatura máxima	23.7
67963	7	Sololá	717	San Juan la Laguna	12	San Juan la Laguna	7	Julio	2023-07-27T00:00:00	2024-11-08T09:00:00	3	Temperatura mínima	21.6
67964	7	Sololá	717	San Juan la Laguna	12	San Juan la Laguna	7	Julio	2023-07-27T00:00:00	2024-11-08T09:00:00	5	Humedad	56
67965	7	Sololá	717	San Juan la Laguna	12	San Juan la Laguna	7	Julio	2023-07-27T00:00:00	2024-11-08T09:00:00	6	Velocidad del viento	0
67966	7	Sololá	717	San Juan la Laguna	12	San Juan la Laguna	7	Julio	2023-07-27T00:00:00	2024-11-08T09:00:00	7	Dirección del viento	0
67967	7	Sololá	717	San Juan la Laguna	12	San Juan la Laguna	7	Julio	2023-07-27T00:00:00	2024-11-08T09:00:00	1	Precipitación	0
67968	7	Sololá	717	San Juan la Laguna	12	San Juan la Laguna	7	Julio	2023-07-27T00:00:00	2024-11-08T09:00:00	8	Radiación solar	501
67969	7	Sololá	717	San Juan la Laguna	12	San Juan la Laguna	7	Julio	2023-07-27T00:00:00	2024-11-08T10:00:00	2	Temperatura media	24.9
67970	7	Sololá	717	San Juan la Laguna	12	San Juan la Laguna	7	Julio	2023-07-27T00:00:00	2024-11-08T10:00:00	4	Temperatura máxima	24.9
67971	7	Sololá	717	San Juan la Laguna	12	San Juan la Laguna	7	Julio	2023-07-27T00:00:00	2024-11-08T10:00:00	3	Temperatura mínima	23.7
67972	7	Sololá	717	San Juan la Laguna	12	San Juan la Laguna	7	Julio	2023-07-27T00:00:00	2024-11-08T10:00:00	5	Humedad	52
67973	7	Sololá	717	San Juan la Laguna	12	San Juan la Laguna	7	Julio	2023-07-27T00:00:00	2024-11-08T10:00:00	6	Velocidad del viento	0
67974	7	Sololá	717	San Juan la Laguna	12	San Juan la Laguna	7	Julio	2023-07-27T00:00:00	2024-11-08T10:00:00	7	Dirección del viento	0
67975	7	Sololá	717	San Juan la Laguna	12	San Juan la Laguna	7	Julio	2023-07-27T00:00:00	2024-11-08T10:00:00	1	Precipitación	0
67976	7	Sololá	717	San Juan la Laguna	12	San Juan la Laguna	7	Julio	2023-07-27T00:00:00	2024-11-08T10:00:00	8	Radiación solar	691
67977	7	Sololá	717	San Juan la Laguna	12	San Juan la Laguna	7	Julio	2023-07-27T00:00:00	2024-11-08T11:00:00	2	Temperatura media	26.3
67978	7	Sololá	717	San Juan la Laguna	12	San Juan la Laguna	7	Julio	2023-07-27T00:00:00	2024-11-08T11:00:00	4	Temperatura máxima	26.3
67979	7	Sololá	717	San Juan la Laguna	12	San Juan la Laguna	7	Julio	2023-07-27T00:00:00	2024-11-08T11:00:00	3	Temperatura mínima	24.9
67980	7	Sololá	717	San Juan la Laguna	12	San Juan la Laguna	7	Julio	2023-07-27T00:00:00	2024-11-08T11:00:00	5	Humedad	50
67981	7	Sololá	717	San Juan la Laguna	12	San Juan la Laguna	7	Julio	2023-07-27T00:00:00	2024-11-08T11:00:00	6	Velocidad del viento	1.6
67982	7	Sololá	717	San Juan la Laguna	12	San Juan la Laguna	7	Julio	2023-07-27T00:00:00	2024-11-08T11:00:00	7	Dirección del viento	1.61
67983	7	Sololá	717	San Juan la Laguna	12	San Juan la Laguna	7	Julio	2023-07-27T00:00:00	2024-11-08T11:00:00	1	Precipitación	0
67984	7	Sololá	717	San Juan la Laguna	12	San Juan la Laguna	7	Julio	2023-07-27T00:00:00	2024-11-08T11:00:00	8	Radiación solar	839
67985	7	Sololá	717	San Juan la Laguna	12	San Juan la Laguna	7	Julio	2023-07-27T00:00:00	2024-11-08T12:00:00	2	Temperatura media	25.2
67986	7	Sololá	717	San Juan la Laguna	12	San Juan la Laguna	7	Julio	2023-07-27T00:00:00	2024-11-08T12:00:00	4	Temperatura máxima	26.3
67987	7	Sololá	717	San Juan la Laguna	12	San Juan la Laguna	7	Julio	2023-07-27T00:00:00	2024-11-08T12:00:00	3	Temperatura mínima	25.2
67988	7	Sololá	717	San Juan la Laguna	12	San Juan la Laguna	7	Julio	2023-07-27T00:00:00	2024-11-08T12:00:00	5	Humedad	53
67989	7	Sololá	717	San Juan la Laguna	12	San Juan la Laguna	7	Julio	2023-07-27T00:00:00	2024-11-08T12:00:00	6	Velocidad del viento	3.2
67990	7	Sololá	717	San Juan la Laguna	12	San Juan la Laguna	7	Julio	2023-07-27T00:00:00	2024-11-08T12:00:00	7	Dirección del viento	3.22
67991	7	Sololá	717	San Juan la Laguna	12	San Juan la Laguna	7	Julio	2023-07-27T00:00:00	2024-11-08T12:00:00	1	Precipitación	0
67992	7	Sololá	717	San Juan la Laguna	12	San Juan la Laguna	7	Julio	2023-07-27T00:00:00	2024-11-08T12:00:00	8	Radiación solar	776
67993	7	Sololá	717	San Juan la Laguna	12	San Juan la Laguna	7	Julio	2023-07-27T00:00:00	2024-11-08T13:00:00	2	Temperatura media	27.3
67994	7	Sololá	717	San Juan la Laguna	12	San Juan la Laguna	7	Julio	2023-07-27T00:00:00	2024-11-08T13:00:00	4	Temperatura máxima	27.3
67995	7	Sololá	717	San Juan la Laguna	12	San Juan la Laguna	7	Julio	2023-07-27T00:00:00	2024-11-08T13:00:00	3	Temperatura mínima	24.9
67996	7	Sololá	717	San Juan la Laguna	12	San Juan la Laguna	7	Julio	2023-07-27T00:00:00	2024-11-08T13:00:00	5	Humedad	46
67997	7	Sololá	717	San Juan la Laguna	12	San Juan la Laguna	7	Julio	2023-07-27T00:00:00	2024-11-08T13:00:00	6	Velocidad del viento	1.6
67998	7	Sololá	717	San Juan la Laguna	12	San Juan la Laguna	7	Julio	2023-07-27T00:00:00	2024-11-08T13:00:00	7	Dirección del viento	1.61
67999	7	Sololá	717	San Juan la Laguna	12	San Juan la Laguna	7	Julio	2023-07-27T00:00:00	2024-11-08T13:00:00	1	Precipitación	0
68000	7	Sololá	717	San Juan la Laguna	12	San Juan la Laguna	7	Julio	2023-07-27T00:00:00	2024-11-08T13:00:00	8	Radiación solar	716
68001	7	Sololá	717	San Juan la Laguna	12	San Juan la Laguna	7	Julio	2023-07-27T00:00:00	2024-11-08T14:00:00	2	Temperatura media	27.3
68002	7	Sololá	717	San Juan la Laguna	12	San Juan la Laguna	7	Julio	2023-07-27T00:00:00	2024-11-08T14:00:00	4	Temperatura máxima	27.5
68003	7	Sololá	717	San Juan la Laguna	12	San Juan la Laguna	7	Julio	2023-07-27T00:00:00	2024-11-08T14:00:00	3	Temperatura mínima	26.9
68004	7	Sololá	717	San Juan la Laguna	12	San Juan la Laguna	7	Julio	2023-07-27T00:00:00	2024-11-08T14:00:00	5	Humedad	46
68005	7	Sololá	717	San Juan la Laguna	12	San Juan la Laguna	7	Julio	2023-07-27T00:00:00	2024-11-08T14:00:00	6	Velocidad del viento	1.6
68006	7	Sololá	717	San Juan la Laguna	12	San Juan la Laguna	7	Julio	2023-07-27T00:00:00	2024-11-08T14:00:00	7	Dirección del viento	1.61
68007	7	Sololá	717	San Juan la Laguna	12	San Juan la Laguna	7	Julio	2023-07-27T00:00:00	2024-11-08T14:00:00	1	Precipitación	0
68008	7	Sololá	717	San Juan la Laguna	12	San Juan la Laguna	7	Julio	2023-07-27T00:00:00	2024-11-08T14:00:00	8	Radiación solar	950
68009	7	Sololá	717	San Juan la Laguna	12	San Juan la Laguna	7	Julio	2023-07-27T00:00:00	2024-11-08T15:00:00	2	Temperatura media	27.3
68010	7	Sololá	717	San Juan la Laguna	12	San Juan la Laguna	7	Julio	2023-07-27T00:00:00	2024-11-08T15:00:00	4	Temperatura máxima	27.6
68011	7	Sololá	717	San Juan la Laguna	12	San Juan la Laguna	7	Julio	2023-07-27T00:00:00	2024-11-08T15:00:00	3	Temperatura mínima	26.7
68012	7	Sololá	717	San Juan la Laguna	12	San Juan la Laguna	7	Julio	2023-07-27T00:00:00	2024-11-08T15:00:00	5	Humedad	46
68013	7	Sololá	717	San Juan la Laguna	12	San Juan la Laguna	7	Julio	2023-07-27T00:00:00	2024-11-08T15:00:00	6	Velocidad del viento	1.6
68014	7	Sololá	717	San Juan la Laguna	12	San Juan la Laguna	7	Julio	2023-07-27T00:00:00	2024-11-08T15:00:00	7	Dirección del viento	1.61
68015	7	Sololá	717	San Juan la Laguna	12	San Juan la Laguna	7	Julio	2023-07-27T00:00:00	2024-11-08T15:00:00	1	Precipitación	0
68016	7	Sololá	717	San Juan la Laguna	12	San Juan la Laguna	7	Julio	2023-07-27T00:00:00	2024-11-08T15:00:00	8	Radiación solar	733
68017	7	Sololá	717	San Juan la Laguna	12	San Juan la Laguna	7	Julio	2023-07-27T00:00:00	2024-11-08T16:00:00	2	Temperatura media	26.8
68018	7	Sololá	717	San Juan la Laguna	12	San Juan la Laguna	7	Julio	2023-07-27T00:00:00	2024-11-08T16:00:00	4	Temperatura máxima	27.8
68019	7	Sololá	717	San Juan la Laguna	12	San Juan la Laguna	7	Julio	2023-07-27T00:00:00	2024-11-08T16:00:00	3	Temperatura mínima	26.4
68020	7	Sololá	717	San Juan la Laguna	12	San Juan la Laguna	7	Julio	2023-07-27T00:00:00	2024-11-08T16:00:00	5	Humedad	48
68021	7	Sololá	717	San Juan la Laguna	12	San Juan la Laguna	7	Julio	2023-07-27T00:00:00	2024-11-08T16:00:00	6	Velocidad del viento	1.6
68022	7	Sololá	717	San Juan la Laguna	12	San Juan la Laguna	7	Julio	2023-07-27T00:00:00	2024-11-08T16:00:00	7	Dirección del viento	1.61
68023	7	Sololá	717	San Juan la Laguna	12	San Juan la Laguna	7	Julio	2023-07-27T00:00:00	2024-11-08T16:00:00	1	Precipitación	0
68024	7	Sololá	717	San Juan la Laguna	12	San Juan la Laguna	7	Julio	2023-07-27T00:00:00	2024-11-08T16:00:00	8	Radiación solar	610
68025	7	Sololá	717	San Juan la Laguna	12	San Juan la Laguna	7	Julio	2023-07-27T00:00:00	2024-11-08T17:00:00	2	Temperatura media	26.9
68026	7	Sololá	717	San Juan la Laguna	12	San Juan la Laguna	7	Julio	2023-07-27T00:00:00	2024-11-08T17:00:00	4	Temperatura máxima	27.4
68027	7	Sololá	717	San Juan la Laguna	12	San Juan la Laguna	7	Julio	2023-07-27T00:00:00	2024-11-08T17:00:00	3	Temperatura mínima	26.8
68028	7	Sololá	717	San Juan la Laguna	12	San Juan la Laguna	7	Julio	2023-07-27T00:00:00	2024-11-08T17:00:00	5	Humedad	51
68029	7	Sololá	717	San Juan la Laguna	12	San Juan la Laguna	7	Julio	2023-07-27T00:00:00	2024-11-08T17:00:00	6	Velocidad del viento	0
68030	7	Sololá	717	San Juan la Laguna	12	San Juan la Laguna	7	Julio	2023-07-27T00:00:00	2024-11-08T17:00:00	7	Dirección del viento	0
68031	7	Sololá	717	San Juan la Laguna	12	San Juan la Laguna	7	Julio	2023-07-27T00:00:00	2024-11-08T17:00:00	1	Precipitación	0
68032	7	Sololá	717	San Juan la Laguna	12	San Juan la Laguna	7	Julio	2023-07-27T00:00:00	2024-11-08T17:00:00	8	Radiación solar	482
68033	7	Sololá	717	San Juan la Laguna	12	San Juan la Laguna	7	Julio	2023-07-27T00:00:00	2024-11-08T18:00:00	2	Temperatura media	22.9
68034	7	Sololá	717	San Juan la Laguna	12	San Juan la Laguna	7	Julio	2023-07-27T00:00:00	2024-11-08T18:00:00	4	Temperatura máxima	27.1
68035	7	Sololá	717	San Juan la Laguna	12	San Juan la Laguna	7	Julio	2023-07-27T00:00:00	2024-11-08T18:00:00	3	Temperatura mínima	22.9
68036	7	Sololá	717	San Juan la Laguna	12	San Juan la Laguna	7	Julio	2023-07-27T00:00:00	2024-11-08T18:00:00	5	Humedad	74
68037	7	Sololá	717	San Juan la Laguna	12	San Juan la Laguna	7	Julio	2023-07-27T00:00:00	2024-11-08T18:00:00	6	Velocidad del viento	0
68038	7	Sololá	717	San Juan la Laguna	12	San Juan la Laguna	7	Julio	2023-07-27T00:00:00	2024-11-08T18:00:00	7	Dirección del viento	0
68039	7	Sololá	717	San Juan la Laguna	12	San Juan la Laguna	7	Julio	2023-07-27T00:00:00	2024-11-08T18:00:00	1	Precipitación	0
68040	7	Sololá	717	San Juan la Laguna	12	San Juan la Laguna	7	Julio	2023-07-27T00:00:00	2024-11-08T18:00:00	8	Radiación solar	191
68041	7	Sololá	717	San Juan la Laguna	12	San Juan la Laguna	7	Julio	2023-07-27T00:00:00	2024-11-08T19:00:00	2	Temperatura media	21.9
68042	7	Sololá	717	San Juan la Laguna	12	San Juan la Laguna	7	Julio	2023-07-27T00:00:00	2024-11-08T19:00:00	4	Temperatura máxima	22.9
68043	7	Sololá	717	San Juan la Laguna	12	San Juan la Laguna	7	Julio	2023-07-27T00:00:00	2024-11-08T19:00:00	3	Temperatura mínima	21.9
68044	7	Sololá	717	San Juan la Laguna	12	San Juan la Laguna	7	Julio	2023-07-27T00:00:00	2024-11-08T19:00:00	5	Humedad	78
68045	7	Sololá	717	San Juan la Laguna	12	San Juan la Laguna	7	Julio	2023-07-27T00:00:00	2024-11-08T19:00:00	6	Velocidad del viento	1.6
68046	7	Sololá	717	San Juan la Laguna	12	San Juan la Laguna	7	Julio	2023-07-27T00:00:00	2024-11-08T19:00:00	7	Dirección del viento	1.61
68047	7	Sololá	717	San Juan la Laguna	12	San Juan la Laguna	7	Julio	2023-07-27T00:00:00	2024-11-08T19:00:00	1	Precipitación	0
68048	7	Sololá	717	San Juan la Laguna	12	San Juan la Laguna	7	Julio	2023-07-27T00:00:00	2024-11-08T19:00:00	8	Radiación solar	0
68049	7	Sololá	717	San Juan la Laguna	12	San Juan la Laguna	7	Julio	2023-07-27T00:00:00	2024-11-08T20:00:00	2	Temperatura media	21.4
68050	7	Sololá	717	San Juan la Laguna	12	San Juan la Laguna	7	Julio	2023-07-27T00:00:00	2024-11-08T20:00:00	4	Temperatura máxima	21.9
68051	7	Sololá	717	San Juan la Laguna	12	San Juan la Laguna	7	Julio	2023-07-27T00:00:00	2024-11-08T20:00:00	3	Temperatura mínima	21.4
68052	7	Sololá	717	San Juan la Laguna	12	San Juan la Laguna	7	Julio	2023-07-27T00:00:00	2024-11-08T20:00:00	5	Humedad	82
68053	7	Sololá	717	San Juan la Laguna	12	San Juan la Laguna	7	Julio	2023-07-27T00:00:00	2024-11-08T20:00:00	6	Velocidad del viento	0
68054	7	Sololá	717	San Juan la Laguna	12	San Juan la Laguna	7	Julio	2023-07-27T00:00:00	2024-11-08T20:00:00	7	Dirección del viento	0
68055	7	Sololá	717	San Juan la Laguna	12	San Juan la Laguna	7	Julio	2023-07-27T00:00:00	2024-11-08T20:00:00	1	Precipitación	0
68056	7	Sololá	717	San Juan la Laguna	12	San Juan la Laguna	7	Julio	2023-07-27T00:00:00	2024-11-08T20:00:00	8	Radiación solar	0
68057	7	Sololá	717	San Juan la Laguna	12	San Juan la Laguna	7	Julio	2023-07-27T00:00:00	2024-11-08T21:00:00	2	Temperatura media	19.8
68058	7	Sololá	717	San Juan la Laguna	12	San Juan la Laguna	7	Julio	2023-07-27T00:00:00	2024-11-08T21:00:00	4	Temperatura máxima	21.4
68059	7	Sololá	717	San Juan la Laguna	12	San Juan la Laguna	7	Julio	2023-07-27T00:00:00	2024-11-08T21:00:00	3	Temperatura mínima	19.7
68060	7	Sololá	717	San Juan la Laguna	12	San Juan la Laguna	7	Julio	2023-07-27T00:00:00	2024-11-08T21:00:00	5	Humedad	84
68061	7	Sololá	717	San Juan la Laguna	12	San Juan la Laguna	7	Julio	2023-07-27T00:00:00	2024-11-08T21:00:00	6	Velocidad del viento	0
68062	7	Sololá	717	San Juan la Laguna	12	San Juan la Laguna	7	Julio	2023-07-27T00:00:00	2024-11-08T21:00:00	7	Dirección del viento	0
68063	7	Sololá	717	San Juan la Laguna	12	San Juan la Laguna	7	Julio	2023-07-27T00:00:00	2024-11-08T21:00:00	1	Precipitación	0
68064	7	Sololá	717	San Juan la Laguna	12	San Juan la Laguna	7	Julio	2023-07-27T00:00:00	2024-11-08T21:00:00	8	Radiación solar	0
68065	7	Sololá	717	San Juan la Laguna	12	San Juan la Laguna	7	Julio	2023-07-27T00:00:00	2024-11-08T22:00:00	2	Temperatura media	21.3
68066	7	Sololá	717	San Juan la Laguna	12	San Juan la Laguna	7	Julio	2023-07-27T00:00:00	2024-11-08T22:00:00	4	Temperatura máxima	21.9
68067	7	Sololá	717	San Juan la Laguna	12	San Juan la Laguna	7	Julio	2023-07-27T00:00:00	2024-11-08T22:00:00	3	Temperatura mínima	19.8
68068	7	Sololá	717	San Juan la Laguna	12	San Juan la Laguna	7	Julio	2023-07-27T00:00:00	2024-11-08T22:00:00	5	Humedad	68
68069	7	Sololá	717	San Juan la Laguna	12	San Juan la Laguna	7	Julio	2023-07-27T00:00:00	2024-11-08T22:00:00	6	Velocidad del viento	3.2
68070	7	Sololá	717	San Juan la Laguna	12	San Juan la Laguna	7	Julio	2023-07-27T00:00:00	2024-11-08T22:00:00	7	Dirección del viento	3.22
68071	7	Sololá	717	San Juan la Laguna	12	San Juan la Laguna	7	Julio	2023-07-27T00:00:00	2024-11-08T22:00:00	1	Precipitación	0
68072	7	Sololá	717	San Juan la Laguna	12	San Juan la Laguna	7	Julio	2023-07-27T00:00:00	2024-11-08T22:00:00	8	Radiación solar	0
68073	7	Sololá	717	San Juan la Laguna	12	San Juan la Laguna	7	Julio	2023-07-27T00:00:00	2024-11-08T23:00:00	2	Temperatura media	21.7
68074	7	Sololá	717	San Juan la Laguna	12	San Juan la Laguna	7	Julio	2023-07-27T00:00:00	2024-11-08T23:00:00	4	Temperatura máxima	21.8
68075	7	Sololá	717	San Juan la Laguna	12	San Juan la Laguna	7	Julio	2023-07-27T00:00:00	2024-11-08T23:00:00	3	Temperatura mínima	21
68076	7	Sololá	717	San Juan la Laguna	12	San Juan la Laguna	7	Julio	2023-07-27T00:00:00	2024-11-08T23:00:00	5	Humedad	63
68077	7	Sololá	717	San Juan la Laguna	12	San Juan la Laguna	7	Julio	2023-07-27T00:00:00	2024-11-08T23:00:00	6	Velocidad del viento	3.2
68078	7	Sololá	717	San Juan la Laguna	12	San Juan la Laguna	7	Julio	2023-07-27T00:00:00	2024-11-08T23:00:00	7	Dirección del viento	3.22
68079	7	Sololá	717	San Juan la Laguna	12	San Juan la Laguna	7	Julio	2023-07-27T00:00:00	2024-11-08T23:00:00	1	Precipitación	0
68080	7	Sololá	717	San Juan la Laguna	12	San Juan la Laguna	7	Julio	2023-07-27T00:00:00	2024-11-08T23:00:00	8	Radiación solar	0
68081	7	Sololá	717	San Juan la Laguna	12	San Juan la Laguna	7	Julio	2023-07-28T00:00:00	2024-11-08T00:00:00	2	Temperatura media	21.3
68082	7	Sololá	717	San Juan la Laguna	12	San Juan la Laguna	7	Julio	2023-07-28T00:00:00	2024-11-08T00:00:00	4	Temperatura máxima	21.7
68083	7	Sololá	717	San Juan la Laguna	12	San Juan la Laguna	7	Julio	2023-07-28T00:00:00	2024-11-08T00:00:00	3	Temperatura mínima	21.2
68084	7	Sololá	717	San Juan la Laguna	12	San Juan la Laguna	7	Julio	2023-07-28T00:00:00	2024-11-08T00:00:00	5	Humedad	65
68085	7	Sololá	717	San Juan la Laguna	12	San Juan la Laguna	7	Julio	2023-07-28T00:00:00	2024-11-08T00:00:00	6	Velocidad del viento	4.8
68086	7	Sololá	717	San Juan la Laguna	12	San Juan la Laguna	7	Julio	2023-07-28T00:00:00	2024-11-08T00:00:00	7	Dirección del viento	4.83
68087	7	Sololá	717	San Juan la Laguna	12	San Juan la Laguna	7	Julio	2023-07-28T00:00:00	2024-11-08T00:00:00	1	Precipitación	0
68088	7	Sololá	717	San Juan la Laguna	12	San Juan la Laguna	7	Julio	2023-07-28T00:00:00	2024-11-08T00:00:00	8	Radiación solar	0
68089	7	Sololá	717	San Juan la Laguna	12	San Juan la Laguna	7	Julio	2023-07-28T00:00:00	2024-11-08T01:00:00	2	Temperatura media	20.8
68090	7	Sololá	717	San Juan la Laguna	12	San Juan la Laguna	7	Julio	2023-07-28T00:00:00	2024-11-08T01:00:00	4	Temperatura máxima	21.3
68091	7	Sololá	717	San Juan la Laguna	12	San Juan la Laguna	7	Julio	2023-07-28T00:00:00	2024-11-08T01:00:00	3	Temperatura mínima	20.8
68092	7	Sololá	717	San Juan la Laguna	12	San Juan la Laguna	7	Julio	2023-07-28T00:00:00	2024-11-08T01:00:00	5	Humedad	65
68093	7	Sololá	717	San Juan la Laguna	12	San Juan la Laguna	7	Julio	2023-07-28T00:00:00	2024-11-08T01:00:00	6	Velocidad del viento	3.2
68094	7	Sololá	717	San Juan la Laguna	12	San Juan la Laguna	7	Julio	2023-07-28T00:00:00	2024-11-08T01:00:00	7	Dirección del viento	3.22
68095	7	Sololá	717	San Juan la Laguna	12	San Juan la Laguna	7	Julio	2023-07-28T00:00:00	2024-11-08T01:00:00	1	Precipitación	0
68096	7	Sololá	717	San Juan la Laguna	12	San Juan la Laguna	7	Julio	2023-07-28T00:00:00	2024-11-08T01:00:00	8	Radiación solar	0
68097	7	Sololá	717	San Juan la Laguna	12	San Juan la Laguna	7	Julio	2023-07-28T00:00:00	2024-11-08T02:00:00	2	Temperatura media	20.4
68098	7	Sololá	717	San Juan la Laguna	12	San Juan la Laguna	7	Julio	2023-07-28T00:00:00	2024-11-08T02:00:00	4	Temperatura máxima	20.8
68099	7	Sololá	717	San Juan la Laguna	12	San Juan la Laguna	7	Julio	2023-07-28T00:00:00	2024-11-08T02:00:00	3	Temperatura mínima	20.3
68100	7	Sololá	717	San Juan la Laguna	12	San Juan la Laguna	7	Julio	2023-07-28T00:00:00	2024-11-08T02:00:00	5	Humedad	68
68101	7	Sololá	717	San Juan la Laguna	12	San Juan la Laguna	7	Julio	2023-07-28T00:00:00	2024-11-08T02:00:00	6	Velocidad del viento	1.6
68102	7	Sololá	717	San Juan la Laguna	12	San Juan la Laguna	7	Julio	2023-07-28T00:00:00	2024-11-08T02:00:00	7	Dirección del viento	1.61
68103	7	Sololá	717	San Juan la Laguna	12	San Juan la Laguna	7	Julio	2023-07-28T00:00:00	2024-11-08T02:00:00	1	Precipitación	0
68104	7	Sololá	717	San Juan la Laguna	12	San Juan la Laguna	7	Julio	2023-07-28T00:00:00	2024-11-08T02:00:00	8	Radiación solar	0
68105	7	Sololá	717	San Juan la Laguna	12	San Juan la Laguna	7	Julio	2023-07-28T00:00:00	2024-11-08T03:00:00	2	Temperatura media	20.7
68106	7	Sololá	717	San Juan la Laguna	12	San Juan la Laguna	7	Julio	2023-07-28T00:00:00	2024-11-08T03:00:00	4	Temperatura máxima	20.8
68107	7	Sololá	717	San Juan la Laguna	12	San Juan la Laguna	7	Julio	2023-07-28T00:00:00	2024-11-08T03:00:00	3	Temperatura mínima	20.4
68108	7	Sololá	717	San Juan la Laguna	12	San Juan la Laguna	7	Julio	2023-07-28T00:00:00	2024-11-08T03:00:00	5	Humedad	64
68109	7	Sololá	717	San Juan la Laguna	12	San Juan la Laguna	7	Julio	2023-07-28T00:00:00	2024-11-08T03:00:00	6	Velocidad del viento	4.8
68110	7	Sololá	717	San Juan la Laguna	12	San Juan la Laguna	7	Julio	2023-07-28T00:00:00	2024-11-08T03:00:00	7	Dirección del viento	4.83
68111	7	Sololá	717	San Juan la Laguna	12	San Juan la Laguna	7	Julio	2023-07-28T00:00:00	2024-11-08T03:00:00	1	Precipitación	0
68112	7	Sololá	717	San Juan la Laguna	12	San Juan la Laguna	7	Julio	2023-07-28T00:00:00	2024-11-08T03:00:00	8	Radiación solar	0
68113	7	Sololá	717	San Juan la Laguna	12	San Juan la Laguna	7	Julio	2023-07-28T00:00:00	2024-11-08T04:00:00	2	Temperatura media	20.2
68114	7	Sololá	717	San Juan la Laguna	12	San Juan la Laguna	7	Julio	2023-07-28T00:00:00	2024-11-08T04:00:00	4	Temperatura máxima	20.7
68115	7	Sololá	717	San Juan la Laguna	12	San Juan la Laguna	7	Julio	2023-07-28T00:00:00	2024-11-08T04:00:00	3	Temperatura mínima	19.2
68116	7	Sololá	717	San Juan la Laguna	12	San Juan la Laguna	7	Julio	2023-07-28T00:00:00	2024-11-08T04:00:00	5	Humedad	67
68117	7	Sololá	717	San Juan la Laguna	12	San Juan la Laguna	7	Julio	2023-07-28T00:00:00	2024-11-08T04:00:00	6	Velocidad del viento	1.6
68118	7	Sololá	717	San Juan la Laguna	12	San Juan la Laguna	7	Julio	2023-07-28T00:00:00	2024-11-08T04:00:00	7	Dirección del viento	1.61
68119	7	Sololá	717	San Juan la Laguna	12	San Juan la Laguna	7	Julio	2023-07-28T00:00:00	2024-11-08T04:00:00	1	Precipitación	0
68120	7	Sololá	717	San Juan la Laguna	12	San Juan la Laguna	7	Julio	2023-07-28T00:00:00	2024-11-08T04:00:00	8	Radiación solar	0
68121	7	Sololá	717	San Juan la Laguna	12	San Juan la Laguna	7	Julio	2023-07-28T00:00:00	2024-11-08T05:00:00	2	Temperatura media	18.5
68122	7	Sololá	717	San Juan la Laguna	12	San Juan la Laguna	7	Julio	2023-07-28T00:00:00	2024-11-08T05:00:00	4	Temperatura máxima	20.3
68123	7	Sololá	717	San Juan la Laguna	12	San Juan la Laguna	7	Julio	2023-07-28T00:00:00	2024-11-08T05:00:00	3	Temperatura mínima	18.4
68124	7	Sololá	717	San Juan la Laguna	12	San Juan la Laguna	7	Julio	2023-07-28T00:00:00	2024-11-08T05:00:00	5	Humedad	74
68125	7	Sololá	717	San Juan la Laguna	12	San Juan la Laguna	7	Julio	2023-07-28T00:00:00	2024-11-08T05:00:00	6	Velocidad del viento	0
68126	7	Sololá	717	San Juan la Laguna	12	San Juan la Laguna	7	Julio	2023-07-28T00:00:00	2024-11-08T05:00:00	7	Dirección del viento	0
68127	7	Sololá	717	San Juan la Laguna	12	San Juan la Laguna	7	Julio	2023-07-28T00:00:00	2024-11-08T05:00:00	1	Precipitación	0
68128	7	Sololá	717	San Juan la Laguna	12	San Juan la Laguna	7	Julio	2023-07-28T00:00:00	2024-11-08T05:00:00	8	Radiación solar	0
68129	7	Sololá	717	San Juan la Laguna	12	San Juan la Laguna	7	Julio	2023-07-28T00:00:00	2024-11-08T06:00:00	2	Temperatura media	16.9
68130	7	Sololá	717	San Juan la Laguna	12	San Juan la Laguna	7	Julio	2023-07-28T00:00:00	2024-11-08T06:00:00	4	Temperatura máxima	18.4
68131	7	Sololá	717	San Juan la Laguna	12	San Juan la Laguna	7	Julio	2023-07-28T00:00:00	2024-11-08T06:00:00	3	Temperatura mínima	16.8
68132	7	Sololá	717	San Juan la Laguna	12	San Juan la Laguna	7	Julio	2023-07-28T00:00:00	2024-11-08T06:00:00	5	Humedad	79
68133	7	Sololá	717	San Juan la Laguna	12	San Juan la Laguna	7	Julio	2023-07-28T00:00:00	2024-11-08T06:00:00	6	Velocidad del viento	0
68134	7	Sololá	717	San Juan la Laguna	12	San Juan la Laguna	7	Julio	2023-07-28T00:00:00	2024-11-08T06:00:00	7	Dirección del viento	0
68135	7	Sololá	717	San Juan la Laguna	12	San Juan la Laguna	7	Julio	2023-07-28T00:00:00	2024-11-08T06:00:00	1	Precipitación	0
68136	7	Sololá	717	San Juan la Laguna	12	San Juan la Laguna	7	Julio	2023-07-28T00:00:00	2024-11-08T06:00:00	8	Radiación solar	0
68137	7	Sololá	717	San Juan la Laguna	12	San Juan la Laguna	7	Julio	2023-07-28T00:00:00	2024-11-08T07:00:00	2	Temperatura media	19.6
68138	7	Sololá	717	San Juan la Laguna	12	San Juan la Laguna	7	Julio	2023-07-28T00:00:00	2024-11-08T07:00:00	4	Temperatura máxima	19.6
68139	7	Sololá	717	San Juan la Laguna	12	San Juan la Laguna	7	Julio	2023-07-28T00:00:00	2024-11-08T07:00:00	3	Temperatura mínima	16.5
68140	7	Sololá	717	San Juan la Laguna	12	San Juan la Laguna	7	Julio	2023-07-28T00:00:00	2024-11-08T07:00:00	5	Humedad	74
68141	7	Sololá	717	San Juan la Laguna	12	San Juan la Laguna	7	Julio	2023-07-28T00:00:00	2024-11-08T07:00:00	6	Velocidad del viento	0
68142	7	Sololá	717	San Juan la Laguna	12	San Juan la Laguna	7	Julio	2023-07-28T00:00:00	2024-11-08T07:00:00	7	Dirección del viento	0
68143	7	Sololá	717	San Juan la Laguna	12	San Juan la Laguna	7	Julio	2023-07-28T00:00:00	2024-11-08T07:00:00	1	Precipitación	0
68144	7	Sololá	717	San Juan la Laguna	12	San Juan la Laguna	7	Julio	2023-07-28T00:00:00	2024-11-08T07:00:00	8	Radiación solar	75
68145	7	Sololá	717	San Juan la Laguna	12	San Juan la Laguna	7	Julio	2023-07-28T00:00:00	2024-11-08T08:00:00	2	Temperatura media	22.6
68146	7	Sololá	717	San Juan la Laguna	12	San Juan la Laguna	7	Julio	2023-07-28T00:00:00	2024-11-08T08:00:00	4	Temperatura máxima	22.6
68147	7	Sololá	717	San Juan la Laguna	12	San Juan la Laguna	7	Julio	2023-07-28T00:00:00	2024-11-08T08:00:00	3	Temperatura mínima	19.6
68148	7	Sololá	717	San Juan la Laguna	12	San Juan la Laguna	7	Julio	2023-07-28T00:00:00	2024-11-08T08:00:00	5	Humedad	65
68149	7	Sololá	717	San Juan la Laguna	12	San Juan la Laguna	7	Julio	2023-07-28T00:00:00	2024-11-08T08:00:00	6	Velocidad del viento	0
68150	7	Sololá	717	San Juan la Laguna	12	San Juan la Laguna	7	Julio	2023-07-28T00:00:00	2024-11-08T08:00:00	7	Dirección del viento	0
68151	7	Sololá	717	San Juan la Laguna	12	San Juan la Laguna	7	Julio	2023-07-28T00:00:00	2024-11-08T08:00:00	1	Precipitación	0
68152	7	Sololá	717	San Juan la Laguna	12	San Juan la Laguna	7	Julio	2023-07-28T00:00:00	2024-11-08T08:00:00	8	Radiación solar	305
68153	7	Sololá	717	San Juan la Laguna	12	San Juan la Laguna	7	Julio	2023-07-28T00:00:00	2024-11-08T09:00:00	2	Temperatura media	23.8
68154	7	Sololá	717	San Juan la Laguna	12	San Juan la Laguna	7	Julio	2023-07-28T00:00:00	2024-11-08T09:00:00	4	Temperatura máxima	24
68155	7	Sololá	717	San Juan la Laguna	12	San Juan la Laguna	7	Julio	2023-07-28T00:00:00	2024-11-08T09:00:00	3	Temperatura mínima	22.6
68156	7	Sololá	717	San Juan la Laguna	12	San Juan la Laguna	7	Julio	2023-07-28T00:00:00	2024-11-08T09:00:00	5	Humedad	58
68157	7	Sololá	717	San Juan la Laguna	12	San Juan la Laguna	7	Julio	2023-07-28T00:00:00	2024-11-08T09:00:00	6	Velocidad del viento	0
68158	7	Sololá	717	San Juan la Laguna	12	San Juan la Laguna	7	Julio	2023-07-28T00:00:00	2024-11-08T09:00:00	7	Dirección del viento	0
68159	7	Sololá	717	San Juan la Laguna	12	San Juan la Laguna	7	Julio	2023-07-28T00:00:00	2024-11-08T09:00:00	1	Precipitación	0
68160	7	Sololá	717	San Juan la Laguna	12	San Juan la Laguna	7	Julio	2023-07-28T00:00:00	2024-11-08T09:00:00	8	Radiación solar	515
68161	7	Sololá	717	San Juan la Laguna	12	San Juan la Laguna	7	Julio	2023-07-28T00:00:00	2024-11-08T10:00:00	2	Temperatura media	24.9
68162	7	Sololá	717	San Juan la Laguna	12	San Juan la Laguna	7	Julio	2023-07-28T00:00:00	2024-11-08T10:00:00	4	Temperatura máxima	25.1
68163	7	Sololá	717	San Juan la Laguna	12	San Juan la Laguna	7	Julio	2023-07-28T00:00:00	2024-11-08T10:00:00	3	Temperatura mínima	23.8
68164	7	Sololá	717	San Juan la Laguna	12	San Juan la Laguna	7	Julio	2023-07-28T00:00:00	2024-11-08T10:00:00	5	Humedad	52
68165	7	Sololá	717	San Juan la Laguna	12	San Juan la Laguna	7	Julio	2023-07-28T00:00:00	2024-11-08T10:00:00	6	Velocidad del viento	3.2
68166	7	Sololá	717	San Juan la Laguna	12	San Juan la Laguna	7	Julio	2023-07-28T00:00:00	2024-11-08T10:00:00	7	Dirección del viento	3.22
68167	7	Sololá	717	San Juan la Laguna	12	San Juan la Laguna	7	Julio	2023-07-28T00:00:00	2024-11-08T10:00:00	1	Precipitación	0
68168	7	Sololá	717	San Juan la Laguna	12	San Juan la Laguna	7	Julio	2023-07-28T00:00:00	2024-11-08T10:00:00	8	Radiación solar	700
68169	7	Sololá	717	San Juan la Laguna	12	San Juan la Laguna	7	Julio	2023-07-28T00:00:00	2024-11-08T11:00:00	2	Temperatura media	25.9
68170	7	Sololá	717	San Juan la Laguna	12	San Juan la Laguna	7	Julio	2023-07-28T00:00:00	2024-11-08T11:00:00	4	Temperatura máxima	25.9
68171	7	Sololá	717	San Juan la Laguna	12	San Juan la Laguna	7	Julio	2023-07-28T00:00:00	2024-11-08T11:00:00	3	Temperatura mínima	24.9
68172	7	Sololá	717	San Juan la Laguna	12	San Juan la Laguna	7	Julio	2023-07-28T00:00:00	2024-11-08T11:00:00	5	Humedad	52
68173	7	Sololá	717	San Juan la Laguna	12	San Juan la Laguna	7	Julio	2023-07-28T00:00:00	2024-11-08T11:00:00	6	Velocidad del viento	4.8
68174	7	Sololá	717	San Juan la Laguna	12	San Juan la Laguna	7	Julio	2023-07-28T00:00:00	2024-11-08T11:00:00	7	Dirección del viento	4.83
68175	7	Sololá	717	San Juan la Laguna	12	San Juan la Laguna	7	Julio	2023-07-28T00:00:00	2024-11-08T11:00:00	1	Precipitación	0
68176	7	Sololá	717	San Juan la Laguna	12	San Juan la Laguna	7	Julio	2023-07-28T00:00:00	2024-11-08T11:00:00	8	Radiación solar	831
68177	7	Sololá	717	San Juan la Laguna	12	San Juan la Laguna	7	Julio	2023-07-28T00:00:00	2024-11-08T12:00:00	2	Temperatura media	26.1
68178	7	Sololá	717	San Juan la Laguna	12	San Juan la Laguna	7	Julio	2023-07-28T00:00:00	2024-11-08T12:00:00	4	Temperatura máxima	26.2
68179	7	Sololá	717	San Juan la Laguna	12	San Juan la Laguna	7	Julio	2023-07-28T00:00:00	2024-11-08T12:00:00	3	Temperatura mínima	25.7
68180	7	Sololá	717	San Juan la Laguna	12	San Juan la Laguna	7	Julio	2023-07-28T00:00:00	2024-11-08T12:00:00	5	Humedad	52
68181	7	Sololá	717	San Juan la Laguna	12	San Juan la Laguna	7	Julio	2023-07-28T00:00:00	2024-11-08T12:00:00	6	Velocidad del viento	6.4
68182	7	Sololá	717	San Juan la Laguna	12	San Juan la Laguna	7	Julio	2023-07-28T00:00:00	2024-11-08T12:00:00	7	Dirección del viento	6.44
68183	7	Sololá	717	San Juan la Laguna	12	San Juan la Laguna	7	Julio	2023-07-28T00:00:00	2024-11-08T12:00:00	1	Precipitación	0
68184	7	Sololá	717	San Juan la Laguna	12	San Juan la Laguna	7	Julio	2023-07-28T00:00:00	2024-11-08T12:00:00	8	Radiación solar	920
68185	7	Sololá	717	San Juan la Laguna	12	San Juan la Laguna	7	Julio	2023-07-28T00:00:00	2024-11-08T13:00:00	2	Temperatura media	27.7
68186	7	Sololá	717	San Juan la Laguna	12	San Juan la Laguna	7	Julio	2023-07-28T00:00:00	2024-11-08T13:00:00	4	Temperatura máxima	27.8
68187	7	Sololá	717	San Juan la Laguna	12	San Juan la Laguna	7	Julio	2023-07-28T00:00:00	2024-11-08T13:00:00	3	Temperatura mínima	26.1
68188	7	Sololá	717	San Juan la Laguna	12	San Juan la Laguna	7	Julio	2023-07-28T00:00:00	2024-11-08T13:00:00	5	Humedad	46
68189	7	Sololá	717	San Juan la Laguna	12	San Juan la Laguna	7	Julio	2023-07-28T00:00:00	2024-11-08T13:00:00	6	Velocidad del viento	3.2
68190	7	Sololá	717	San Juan la Laguna	12	San Juan la Laguna	7	Julio	2023-07-28T00:00:00	2024-11-08T13:00:00	7	Dirección del viento	3.22
68191	7	Sololá	717	San Juan la Laguna	12	San Juan la Laguna	7	Julio	2023-07-28T00:00:00	2024-11-08T13:00:00	1	Precipitación	0
68192	7	Sololá	717	San Juan la Laguna	12	San Juan la Laguna	7	Julio	2023-07-28T00:00:00	2024-11-08T13:00:00	8	Radiación solar	948
68193	7	Sololá	717	San Juan la Laguna	12	San Juan la Laguna	7	Julio	2023-07-28T00:00:00	2024-11-08T14:00:00	2	Temperatura media	27.4
68194	7	Sololá	717	San Juan la Laguna	12	San Juan la Laguna	7	Julio	2023-07-28T00:00:00	2024-11-08T14:00:00	4	Temperatura máxima	28.3
68195	7	Sololá	717	San Juan la Laguna	12	San Juan la Laguna	7	Julio	2023-07-28T00:00:00	2024-11-08T14:00:00	3	Temperatura mínima	27.4
68196	7	Sololá	717	San Juan la Laguna	12	San Juan la Laguna	7	Julio	2023-07-28T00:00:00	2024-11-08T14:00:00	5	Humedad	44
68197	7	Sololá	717	San Juan la Laguna	12	San Juan la Laguna	7	Julio	2023-07-28T00:00:00	2024-11-08T14:00:00	6	Velocidad del viento	1.6
68198	7	Sololá	717	San Juan la Laguna	12	San Juan la Laguna	7	Julio	2023-07-28T00:00:00	2024-11-08T14:00:00	7	Dirección del viento	1.61
68199	7	Sololá	717	San Juan la Laguna	12	San Juan la Laguna	7	Julio	2023-07-28T00:00:00	2024-11-08T14:00:00	1	Precipitación	0
68200	7	Sololá	717	San Juan la Laguna	12	San Juan la Laguna	7	Julio	2023-07-28T00:00:00	2024-11-08T14:00:00	8	Radiación solar	872
68201	7	Sololá	717	San Juan la Laguna	12	San Juan la Laguna	7	Julio	2023-07-28T00:00:00	2024-11-08T15:00:00	2	Temperatura media	27.9
68202	7	Sololá	717	San Juan la Laguna	12	San Juan la Laguna	7	Julio	2023-07-28T00:00:00	2024-11-08T15:00:00	4	Temperatura máxima	28.2
68203	7	Sololá	717	San Juan la Laguna	12	San Juan la Laguna	7	Julio	2023-07-28T00:00:00	2024-11-08T15:00:00	3	Temperatura mínima	27.4
68204	7	Sololá	717	San Juan la Laguna	12	San Juan la Laguna	7	Julio	2023-07-28T00:00:00	2024-11-08T15:00:00	5	Humedad	47
68205	7	Sololá	717	San Juan la Laguna	12	San Juan la Laguna	7	Julio	2023-07-28T00:00:00	2024-11-08T15:00:00	6	Velocidad del viento	0
68206	7	Sololá	717	San Juan la Laguna	12	San Juan la Laguna	7	Julio	2023-07-28T00:00:00	2024-11-08T15:00:00	7	Dirección del viento	0
68207	7	Sololá	717	San Juan la Laguna	12	San Juan la Laguna	7	Julio	2023-07-28T00:00:00	2024-11-08T15:00:00	1	Precipitación	0
68208	7	Sololá	717	San Juan la Laguna	12	San Juan la Laguna	7	Julio	2023-07-28T00:00:00	2024-11-08T15:00:00	8	Radiación solar	789
68209	7	Sololá	717	San Juan la Laguna	12	San Juan la Laguna	7	Julio	2023-07-28T00:00:00	2024-11-08T16:00:00	2	Temperatura media	26.7
68210	7	Sololá	717	San Juan la Laguna	12	San Juan la Laguna	7	Julio	2023-07-28T00:00:00	2024-11-08T16:00:00	4	Temperatura máxima	27.9
68211	7	Sololá	717	San Juan la Laguna	12	San Juan la Laguna	7	Julio	2023-07-28T00:00:00	2024-11-08T16:00:00	3	Temperatura mínima	26.3
68212	7	Sololá	717	San Juan la Laguna	12	San Juan la Laguna	7	Julio	2023-07-28T00:00:00	2024-11-08T16:00:00	5	Humedad	51
68213	7	Sololá	717	San Juan la Laguna	12	San Juan la Laguna	7	Julio	2023-07-28T00:00:00	2024-11-08T16:00:00	6	Velocidad del viento	1.6
68214	7	Sololá	717	San Juan la Laguna	12	San Juan la Laguna	7	Julio	2023-07-28T00:00:00	2024-11-08T16:00:00	7	Dirección del viento	1.61
68215	7	Sololá	717	San Juan la Laguna	12	San Juan la Laguna	7	Julio	2023-07-28T00:00:00	2024-11-08T16:00:00	1	Precipitación	0
68216	7	Sololá	717	San Juan la Laguna	12	San Juan la Laguna	7	Julio	2023-07-28T00:00:00	2024-11-08T16:00:00	8	Radiación solar	363
68217	7	Sololá	717	San Juan la Laguna	12	San Juan la Laguna	7	Julio	2023-07-28T00:00:00	2024-11-08T17:00:00	2	Temperatura media	25.7
68218	7	Sololá	717	San Juan la Laguna	12	San Juan la Laguna	7	Julio	2023-07-28T00:00:00	2024-11-08T17:00:00	4	Temperatura máxima	26.7
68219	7	Sololá	717	San Juan la Laguna	12	San Juan la Laguna	7	Julio	2023-07-28T00:00:00	2024-11-08T17:00:00	3	Temperatura mínima	25.6
68220	7	Sololá	717	San Juan la Laguna	12	San Juan la Laguna	7	Julio	2023-07-28T00:00:00	2024-11-08T17:00:00	5	Humedad	55
68221	7	Sololá	717	San Juan la Laguna	12	San Juan la Laguna	7	Julio	2023-07-28T00:00:00	2024-11-08T17:00:00	6	Velocidad del viento	1.6
68222	7	Sololá	717	San Juan la Laguna	12	San Juan la Laguna	7	Julio	2023-07-28T00:00:00	2024-11-08T17:00:00	7	Dirección del viento	1.61
68223	7	Sololá	717	San Juan la Laguna	12	San Juan la Laguna	7	Julio	2023-07-28T00:00:00	2024-11-08T17:00:00	1	Precipitación	0
68224	7	Sololá	717	San Juan la Laguna	12	San Juan la Laguna	7	Julio	2023-07-28T00:00:00	2024-11-08T17:00:00	8	Radiación solar	269
68225	7	Sololá	717	San Juan la Laguna	12	San Juan la Laguna	7	Julio	2023-07-28T00:00:00	2024-11-08T18:00:00	2	Temperatura media	22.6
68226	7	Sololá	717	San Juan la Laguna	12	San Juan la Laguna	7	Julio	2023-07-28T00:00:00	2024-11-08T18:00:00	4	Temperatura máxima	25.7
68227	7	Sololá	717	San Juan la Laguna	12	San Juan la Laguna	7	Julio	2023-07-28T00:00:00	2024-11-08T18:00:00	3	Temperatura mínima	22.6
68228	7	Sololá	717	San Juan la Laguna	12	San Juan la Laguna	7	Julio	2023-07-28T00:00:00	2024-11-08T18:00:00	5	Humedad	74
68229	7	Sololá	717	San Juan la Laguna	12	San Juan la Laguna	7	Julio	2023-07-28T00:00:00	2024-11-08T18:00:00	6	Velocidad del viento	1.6
68230	7	Sololá	717	San Juan la Laguna	12	San Juan la Laguna	7	Julio	2023-07-28T00:00:00	2024-11-08T18:00:00	7	Dirección del viento	1.61
68231	7	Sololá	717	San Juan la Laguna	12	San Juan la Laguna	7	Julio	2023-07-28T00:00:00	2024-11-08T18:00:00	1	Precipitación	0
68232	7	Sololá	717	San Juan la Laguna	12	San Juan la Laguna	7	Julio	2023-07-28T00:00:00	2024-11-08T18:00:00	8	Radiación solar	66
68233	7	Sololá	717	San Juan la Laguna	12	San Juan la Laguna	7	Julio	2023-07-28T00:00:00	2024-11-08T19:00:00	2	Temperatura media	21.9
68234	7	Sololá	717	San Juan la Laguna	12	San Juan la Laguna	7	Julio	2023-07-28T00:00:00	2024-11-08T19:00:00	4	Temperatura máxima	22.8
68235	7	Sololá	717	San Juan la Laguna	12	San Juan la Laguna	7	Julio	2023-07-28T00:00:00	2024-11-08T19:00:00	3	Temperatura mínima	21.9
68236	7	Sololá	717	San Juan la Laguna	12	San Juan la Laguna	7	Julio	2023-07-28T00:00:00	2024-11-08T19:00:00	5	Humedad	75
68237	7	Sololá	717	San Juan la Laguna	12	San Juan la Laguna	7	Julio	2023-07-28T00:00:00	2024-11-08T19:00:00	6	Velocidad del viento	0
68238	7	Sololá	717	San Juan la Laguna	12	San Juan la Laguna	7	Julio	2023-07-28T00:00:00	2024-11-08T19:00:00	7	Dirección del viento	0
68239	7	Sololá	717	San Juan la Laguna	12	San Juan la Laguna	7	Julio	2023-07-28T00:00:00	2024-11-08T19:00:00	1	Precipitación	0
68240	7	Sololá	717	San Juan la Laguna	12	San Juan la Laguna	7	Julio	2023-07-28T00:00:00	2024-11-08T19:00:00	8	Radiación solar	0
68241	7	Sololá	717	San Juan la Laguna	12	San Juan la Laguna	7	Julio	2023-07-28T00:00:00	2024-11-08T20:00:00	2	Temperatura media	21.2
68242	7	Sololá	717	San Juan la Laguna	12	San Juan la Laguna	7	Julio	2023-07-28T00:00:00	2024-11-08T20:00:00	4	Temperatura máxima	21.9
68243	7	Sololá	717	San Juan la Laguna	12	San Juan la Laguna	7	Julio	2023-07-28T00:00:00	2024-11-08T20:00:00	3	Temperatura mínima	20.9
68244	7	Sololá	717	San Juan la Laguna	12	San Juan la Laguna	7	Julio	2023-07-28T00:00:00	2024-11-08T20:00:00	5	Humedad	76
68245	7	Sololá	717	San Juan la Laguna	12	San Juan la Laguna	7	Julio	2023-07-28T00:00:00	2024-11-08T20:00:00	6	Velocidad del viento	0
68246	7	Sololá	717	San Juan la Laguna	12	San Juan la Laguna	7	Julio	2023-07-28T00:00:00	2024-11-08T20:00:00	7	Dirección del viento	0
68247	7	Sololá	717	San Juan la Laguna	12	San Juan la Laguna	7	Julio	2023-07-28T00:00:00	2024-11-08T20:00:00	1	Precipitación	0
68248	7	Sololá	717	San Juan la Laguna	12	San Juan la Laguna	7	Julio	2023-07-28T00:00:00	2024-11-08T20:00:00	8	Radiación solar	0
68249	7	Sololá	717	San Juan la Laguna	12	San Juan la Laguna	7	Julio	2023-07-28T00:00:00	2024-11-08T21:00:00	2	Temperatura media	21.4
68250	7	Sololá	717	San Juan la Laguna	12	San Juan la Laguna	7	Julio	2023-07-28T00:00:00	2024-11-08T21:00:00	4	Temperatura máxima	21.6
68251	7	Sololá	717	San Juan la Laguna	12	San Juan la Laguna	7	Julio	2023-07-28T00:00:00	2024-11-08T21:00:00	3	Temperatura mínima	21.2
68252	7	Sololá	717	San Juan la Laguna	12	San Juan la Laguna	7	Julio	2023-07-28T00:00:00	2024-11-08T21:00:00	5	Humedad	74
68253	7	Sololá	717	San Juan la Laguna	12	San Juan la Laguna	7	Julio	2023-07-28T00:00:00	2024-11-08T21:00:00	6	Velocidad del viento	0
68254	7	Sololá	717	San Juan la Laguna	12	San Juan la Laguna	7	Julio	2023-07-28T00:00:00	2024-11-08T21:00:00	7	Dirección del viento	0
68255	7	Sololá	717	San Juan la Laguna	12	San Juan la Laguna	7	Julio	2023-07-28T00:00:00	2024-11-08T21:00:00	1	Precipitación	0
68256	7	Sololá	717	San Juan la Laguna	12	San Juan la Laguna	7	Julio	2023-07-28T00:00:00	2024-11-08T21:00:00	8	Radiación solar	0
68257	7	Sololá	717	San Juan la Laguna	12	San Juan la Laguna	7	Julio	2023-07-28T00:00:00	2024-11-08T22:00:00	2	Temperatura media	21.5
68258	7	Sololá	717	San Juan la Laguna	12	San Juan la Laguna	7	Julio	2023-07-28T00:00:00	2024-11-08T22:00:00	4	Temperatura máxima	21.7
68259	7	Sololá	717	San Juan la Laguna	12	San Juan la Laguna	7	Julio	2023-07-28T00:00:00	2024-11-08T22:00:00	3	Temperatura mínima	21.3
68260	7	Sololá	717	San Juan la Laguna	12	San Juan la Laguna	7	Julio	2023-07-28T00:00:00	2024-11-08T22:00:00	5	Humedad	74
68261	7	Sololá	717	San Juan la Laguna	12	San Juan la Laguna	7	Julio	2023-07-28T00:00:00	2024-11-08T22:00:00	6	Velocidad del viento	0
68262	7	Sololá	717	San Juan la Laguna	12	San Juan la Laguna	7	Julio	2023-07-28T00:00:00	2024-11-08T22:00:00	7	Dirección del viento	0
68263	7	Sololá	717	San Juan la Laguna	12	San Juan la Laguna	7	Julio	2023-07-28T00:00:00	2024-11-08T22:00:00	1	Precipitación	0
68264	7	Sololá	717	San Juan la Laguna	12	San Juan la Laguna	7	Julio	2023-07-28T00:00:00	2024-11-08T22:00:00	8	Radiación solar	0
68265	7	Sololá	717	San Juan la Laguna	12	San Juan la Laguna	7	Julio	2023-07-28T00:00:00	2024-11-08T23:00:00	2	Temperatura media	22.2
68266	7	Sololá	717	San Juan la Laguna	12	San Juan la Laguna	7	Julio	2023-07-28T00:00:00	2024-11-08T23:00:00	4	Temperatura máxima	22.4
68267	7	Sololá	717	San Juan la Laguna	12	San Juan la Laguna	7	Julio	2023-07-28T00:00:00	2024-11-08T23:00:00	3	Temperatura mínima	21.5
68268	7	Sololá	717	San Juan la Laguna	12	San Juan la Laguna	7	Julio	2023-07-28T00:00:00	2024-11-08T23:00:00	5	Humedad	69
68269	7	Sololá	717	San Juan la Laguna	12	San Juan la Laguna	7	Julio	2023-07-28T00:00:00	2024-11-08T23:00:00	6	Velocidad del viento	1.6
68270	7	Sololá	717	San Juan la Laguna	12	San Juan la Laguna	7	Julio	2023-07-28T00:00:00	2024-11-08T23:00:00	7	Dirección del viento	1.61
68271	7	Sololá	717	San Juan la Laguna	12	San Juan la Laguna	7	Julio	2023-07-28T00:00:00	2024-11-08T23:00:00	1	Precipitación	0
68272	7	Sololá	717	San Juan la Laguna	12	San Juan la Laguna	7	Julio	2023-07-28T00:00:00	2024-11-08T23:00:00	8	Radiación solar	0
68273	7	Sololá	717	San Juan la Laguna	12	San Juan la Laguna	7	Julio	2023-07-29T00:00:00	2024-11-08T00:00:00	2	Temperatura media	22
68274	7	Sololá	717	San Juan la Laguna	12	San Juan la Laguna	7	Julio	2023-07-29T00:00:00	2024-11-08T00:00:00	4	Temperatura máxima	22.4
68275	7	Sololá	717	San Juan la Laguna	12	San Juan la Laguna	7	Julio	2023-07-29T00:00:00	2024-11-08T00:00:00	3	Temperatura mínima	22
68276	7	Sololá	717	San Juan la Laguna	12	San Juan la Laguna	7	Julio	2023-07-29T00:00:00	2024-11-08T00:00:00	5	Humedad	65
68277	7	Sololá	717	San Juan la Laguna	12	San Juan la Laguna	7	Julio	2023-07-29T00:00:00	2024-11-08T00:00:00	6	Velocidad del viento	3.2
68278	7	Sololá	717	San Juan la Laguna	12	San Juan la Laguna	7	Julio	2023-07-29T00:00:00	2024-11-08T00:00:00	7	Dirección del viento	3.22
68279	7	Sololá	717	San Juan la Laguna	12	San Juan la Laguna	7	Julio	2023-07-29T00:00:00	2024-11-08T00:00:00	1	Precipitación	0
68280	7	Sololá	717	San Juan la Laguna	12	San Juan la Laguna	7	Julio	2023-07-29T00:00:00	2024-11-08T00:00:00	8	Radiación solar	0
68281	7	Sololá	717	San Juan la Laguna	12	San Juan la Laguna	7	Julio	2023-07-29T00:00:00	2024-11-08T01:00:00	2	Temperatura media	21.5
68282	7	Sololá	717	San Juan la Laguna	12	San Juan la Laguna	7	Julio	2023-07-29T00:00:00	2024-11-08T01:00:00	4	Temperatura máxima	22
68283	7	Sololá	717	San Juan la Laguna	12	San Juan la Laguna	7	Julio	2023-07-29T00:00:00	2024-11-08T01:00:00	3	Temperatura mínima	21.5
68284	7	Sololá	717	San Juan la Laguna	12	San Juan la Laguna	7	Julio	2023-07-29T00:00:00	2024-11-08T01:00:00	5	Humedad	64
68285	7	Sololá	717	San Juan la Laguna	12	San Juan la Laguna	7	Julio	2023-07-29T00:00:00	2024-11-08T01:00:00	6	Velocidad del viento	3.2
68286	7	Sololá	717	San Juan la Laguna	12	San Juan la Laguna	7	Julio	2023-07-29T00:00:00	2024-11-08T01:00:00	7	Dirección del viento	3.22
68287	7	Sololá	717	San Juan la Laguna	12	San Juan la Laguna	7	Julio	2023-07-29T00:00:00	2024-11-08T01:00:00	1	Precipitación	0
68288	7	Sololá	717	San Juan la Laguna	12	San Juan la Laguna	7	Julio	2023-07-29T00:00:00	2024-11-08T01:00:00	8	Radiación solar	0
68289	7	Sololá	717	San Juan la Laguna	12	San Juan la Laguna	7	Julio	2023-07-29T00:00:00	2024-11-08T02:00:00	2	Temperatura media	21.2
68290	7	Sololá	717	San Juan la Laguna	12	San Juan la Laguna	7	Julio	2023-07-29T00:00:00	2024-11-08T02:00:00	4	Temperatura máxima	21.7
68291	7	Sololá	717	San Juan la Laguna	12	San Juan la Laguna	7	Julio	2023-07-29T00:00:00	2024-11-08T02:00:00	3	Temperatura mínima	21.2
68292	7	Sololá	717	San Juan la Laguna	12	San Juan la Laguna	7	Julio	2023-07-29T00:00:00	2024-11-08T02:00:00	5	Humedad	69
68293	7	Sololá	717	San Juan la Laguna	12	San Juan la Laguna	7	Julio	2023-07-29T00:00:00	2024-11-08T02:00:00	6	Velocidad del viento	3.2
68294	7	Sololá	717	San Juan la Laguna	12	San Juan la Laguna	7	Julio	2023-07-29T00:00:00	2024-11-08T02:00:00	7	Dirección del viento	3.22
68295	7	Sololá	717	San Juan la Laguna	12	San Juan la Laguna	7	Julio	2023-07-29T00:00:00	2024-11-08T02:00:00	1	Precipitación	0
68296	7	Sololá	717	San Juan la Laguna	12	San Juan la Laguna	7	Julio	2023-07-29T00:00:00	2024-11-08T02:00:00	8	Radiación solar	0
68297	7	Sololá	717	San Juan la Laguna	12	San Juan la Laguna	7	Julio	2023-07-29T00:00:00	2024-11-08T03:00:00	2	Temperatura media	18.6
68298	7	Sololá	717	San Juan la Laguna	12	San Juan la Laguna	7	Julio	2023-07-29T00:00:00	2024-11-08T03:00:00	4	Temperatura máxima	21.2
68299	7	Sololá	717	San Juan la Laguna	12	San Juan la Laguna	7	Julio	2023-07-29T00:00:00	2024-11-08T03:00:00	3	Temperatura mínima	18.6
68300	7	Sololá	717	San Juan la Laguna	12	San Juan la Laguna	7	Julio	2023-07-29T00:00:00	2024-11-08T03:00:00	5	Humedad	85
68301	7	Sololá	717	San Juan la Laguna	12	San Juan la Laguna	7	Julio	2023-07-29T00:00:00	2024-11-08T03:00:00	6	Velocidad del viento	0
68302	7	Sololá	717	San Juan la Laguna	12	San Juan la Laguna	7	Julio	2023-07-29T00:00:00	2024-11-08T03:00:00	7	Dirección del viento	0
68303	7	Sololá	717	San Juan la Laguna	12	San Juan la Laguna	7	Julio	2023-07-29T00:00:00	2024-11-08T03:00:00	1	Precipitación	0.2
68304	7	Sololá	717	San Juan la Laguna	12	San Juan la Laguna	7	Julio	2023-07-29T00:00:00	2024-11-08T03:00:00	8	Radiación solar	0
68305	7	Sololá	717	San Juan la Laguna	12	San Juan la Laguna	7	Julio	2023-07-29T00:00:00	2024-11-08T04:00:00	2	Temperatura media	17.5
68306	7	Sololá	717	San Juan la Laguna	12	San Juan la Laguna	7	Julio	2023-07-29T00:00:00	2024-11-08T04:00:00	4	Temperatura máxima	18.6
68307	7	Sololá	717	San Juan la Laguna	12	San Juan la Laguna	7	Julio	2023-07-29T00:00:00	2024-11-08T04:00:00	3	Temperatura mínima	17.5
68308	7	Sololá	717	San Juan la Laguna	12	San Juan la Laguna	7	Julio	2023-07-29T00:00:00	2024-11-08T04:00:00	5	Humedad	91
68309	7	Sololá	717	San Juan la Laguna	12	San Juan la Laguna	7	Julio	2023-07-29T00:00:00	2024-11-08T04:00:00	6	Velocidad del viento	0
68310	7	Sololá	717	San Juan la Laguna	12	San Juan la Laguna	7	Julio	2023-07-29T00:00:00	2024-11-08T04:00:00	7	Dirección del viento	0
68311	7	Sololá	717	San Juan la Laguna	12	San Juan la Laguna	7	Julio	2023-07-29T00:00:00	2024-11-08T04:00:00	1	Precipitación	1.4
68312	7	Sololá	717	San Juan la Laguna	12	San Juan la Laguna	7	Julio	2023-07-29T00:00:00	2024-11-08T04:00:00	8	Radiación solar	0
68313	7	Sololá	717	San Juan la Laguna	12	San Juan la Laguna	7	Julio	2023-07-29T00:00:00	2024-11-08T05:00:00	2	Temperatura media	17.4
68314	7	Sololá	717	San Juan la Laguna	12	San Juan la Laguna	7	Julio	2023-07-29T00:00:00	2024-11-08T05:00:00	4	Temperatura máxima	17.6
68315	7	Sololá	717	San Juan la Laguna	12	San Juan la Laguna	7	Julio	2023-07-29T00:00:00	2024-11-08T05:00:00	3	Temperatura mínima	17.3
68316	7	Sololá	717	San Juan la Laguna	12	San Juan la Laguna	7	Julio	2023-07-29T00:00:00	2024-11-08T05:00:00	5	Humedad	91
68317	7	Sololá	717	San Juan la Laguna	12	San Juan la Laguna	7	Julio	2023-07-29T00:00:00	2024-11-08T05:00:00	6	Velocidad del viento	1.6
68318	7	Sololá	717	San Juan la Laguna	12	San Juan la Laguna	7	Julio	2023-07-29T00:00:00	2024-11-08T05:00:00	7	Dirección del viento	1.61
68319	7	Sololá	717	San Juan la Laguna	12	San Juan la Laguna	7	Julio	2023-07-29T00:00:00	2024-11-08T05:00:00	1	Precipitación	1.2
68320	7	Sololá	717	San Juan la Laguna	12	San Juan la Laguna	7	Julio	2023-07-29T00:00:00	2024-11-08T05:00:00	8	Radiación solar	0
68321	7	Sololá	717	San Juan la Laguna	12	San Juan la Laguna	7	Julio	2023-07-29T00:00:00	2024-11-08T06:00:00	2	Temperatura media	17.1
68322	7	Sololá	717	San Juan la Laguna	12	San Juan la Laguna	7	Julio	2023-07-29T00:00:00	2024-11-08T06:00:00	4	Temperatura máxima	17.4
68323	7	Sololá	717	San Juan la Laguna	12	San Juan la Laguna	7	Julio	2023-07-29T00:00:00	2024-11-08T06:00:00	3	Temperatura mínima	17.1
68324	7	Sololá	717	San Juan la Laguna	12	San Juan la Laguna	7	Julio	2023-07-29T00:00:00	2024-11-08T06:00:00	5	Humedad	92
68325	7	Sololá	717	San Juan la Laguna	12	San Juan la Laguna	7	Julio	2023-07-29T00:00:00	2024-11-08T06:00:00	6	Velocidad del viento	0
68326	7	Sololá	717	San Juan la Laguna	12	San Juan la Laguna	7	Julio	2023-07-29T00:00:00	2024-11-08T06:00:00	7	Dirección del viento	0
68327	7	Sololá	717	San Juan la Laguna	12	San Juan la Laguna	7	Julio	2023-07-29T00:00:00	2024-11-08T06:00:00	1	Precipitación	1.8
68328	7	Sololá	717	San Juan la Laguna	12	San Juan la Laguna	7	Julio	2023-07-29T00:00:00	2024-11-08T06:00:00	8	Radiación solar	0
68329	7	Sololá	717	San Juan la Laguna	12	San Juan la Laguna	7	Julio	2023-07-29T00:00:00	2024-11-08T07:00:00	2	Temperatura media	17.9
68330	7	Sololá	717	San Juan la Laguna	12	San Juan la Laguna	7	Julio	2023-07-29T00:00:00	2024-11-08T07:00:00	4	Temperatura máxima	17.9
68331	7	Sololá	717	San Juan la Laguna	12	San Juan la Laguna	7	Julio	2023-07-29T00:00:00	2024-11-08T07:00:00	3	Temperatura mínima	17.1
68332	7	Sololá	717	San Juan la Laguna	12	San Juan la Laguna	7	Julio	2023-07-29T00:00:00	2024-11-08T07:00:00	5	Humedad	91
68333	7	Sololá	717	San Juan la Laguna	12	San Juan la Laguna	7	Julio	2023-07-29T00:00:00	2024-11-08T07:00:00	6	Velocidad del viento	1.6
68334	7	Sololá	717	San Juan la Laguna	12	San Juan la Laguna	7	Julio	2023-07-29T00:00:00	2024-11-08T07:00:00	7	Dirección del viento	1.61
68335	7	Sololá	717	San Juan la Laguna	12	San Juan la Laguna	7	Julio	2023-07-29T00:00:00	2024-11-08T07:00:00	1	Precipitación	0.4
68336	7	Sololá	717	San Juan la Laguna	12	San Juan la Laguna	7	Julio	2023-07-29T00:00:00	2024-11-08T07:00:00	8	Radiación solar	28
68337	7	Sololá	717	San Juan la Laguna	12	San Juan la Laguna	7	Julio	2023-07-29T00:00:00	2024-11-08T08:00:00	2	Temperatura media	19.8
68338	7	Sololá	717	San Juan la Laguna	12	San Juan la Laguna	7	Julio	2023-07-29T00:00:00	2024-11-08T08:00:00	4	Temperatura máxima	19.8
68339	7	Sololá	717	San Juan la Laguna	12	San Juan la Laguna	7	Julio	2023-07-29T00:00:00	2024-11-08T08:00:00	3	Temperatura mínima	17.9
68340	7	Sololá	717	San Juan la Laguna	12	San Juan la Laguna	7	Julio	2023-07-29T00:00:00	2024-11-08T08:00:00	5	Humedad	81
68341	7	Sololá	717	San Juan la Laguna	12	San Juan la Laguna	7	Julio	2023-07-29T00:00:00	2024-11-08T08:00:00	6	Velocidad del viento	1.6
68342	7	Sololá	717	San Juan la Laguna	12	San Juan la Laguna	7	Julio	2023-07-29T00:00:00	2024-11-08T08:00:00	7	Dirección del viento	1.61
68343	7	Sololá	717	San Juan la Laguna	12	San Juan la Laguna	7	Julio	2023-07-29T00:00:00	2024-11-08T08:00:00	1	Precipitación	0
68344	7	Sololá	717	San Juan la Laguna	12	San Juan la Laguna	7	Julio	2023-07-29T00:00:00	2024-11-08T08:00:00	8	Radiación solar	126
68345	7	Sololá	717	San Juan la Laguna	12	San Juan la Laguna	7	Julio	2023-07-29T00:00:00	2024-11-08T09:00:00	2	Temperatura media	21
68346	7	Sololá	717	San Juan la Laguna	12	San Juan la Laguna	7	Julio	2023-07-29T00:00:00	2024-11-08T09:00:00	4	Temperatura máxima	21
68347	7	Sololá	717	San Juan la Laguna	12	San Juan la Laguna	7	Julio	2023-07-29T00:00:00	2024-11-08T09:00:00	3	Temperatura mínima	19.8
68348	7	Sololá	717	San Juan la Laguna	12	San Juan la Laguna	7	Julio	2023-07-29T00:00:00	2024-11-08T09:00:00	5	Humedad	78
68349	7	Sololá	717	San Juan la Laguna	12	San Juan la Laguna	7	Julio	2023-07-29T00:00:00	2024-11-08T09:00:00	6	Velocidad del viento	0
68350	7	Sololá	717	San Juan la Laguna	12	San Juan la Laguna	7	Julio	2023-07-29T00:00:00	2024-11-08T09:00:00	7	Dirección del viento	0
68351	7	Sololá	717	San Juan la Laguna	12	San Juan la Laguna	7	Julio	2023-07-29T00:00:00	2024-11-08T09:00:00	1	Precipitación	0
68352	7	Sololá	717	San Juan la Laguna	12	San Juan la Laguna	7	Julio	2023-07-29T00:00:00	2024-11-08T09:00:00	8	Radiación solar	132
68353	7	Sololá	717	San Juan la Laguna	12	San Juan la Laguna	7	Julio	2023-07-29T00:00:00	2024-11-08T10:00:00	2	Temperatura media	21.4
68354	7	Sololá	717	San Juan la Laguna	12	San Juan la Laguna	7	Julio	2023-07-29T00:00:00	2024-11-08T10:00:00	4	Temperatura máxima	21.4
68355	7	Sololá	717	San Juan la Laguna	12	San Juan la Laguna	7	Julio	2023-07-29T00:00:00	2024-11-08T10:00:00	3	Temperatura mínima	20.7
68356	7	Sololá	717	San Juan la Laguna	12	San Juan la Laguna	7	Julio	2023-07-29T00:00:00	2024-11-08T10:00:00	5	Humedad	74
68357	7	Sololá	717	San Juan la Laguna	12	San Juan la Laguna	7	Julio	2023-07-29T00:00:00	2024-11-08T10:00:00	6	Velocidad del viento	0
68358	7	Sololá	717	San Juan la Laguna	12	San Juan la Laguna	7	Julio	2023-07-29T00:00:00	2024-11-08T10:00:00	7	Dirección del viento	0
68359	7	Sololá	717	San Juan la Laguna	12	San Juan la Laguna	7	Julio	2023-07-29T00:00:00	2024-11-08T10:00:00	1	Precipitación	0
68360	7	Sololá	717	San Juan la Laguna	12	San Juan la Laguna	7	Julio	2023-07-29T00:00:00	2024-11-08T10:00:00	8	Radiación solar	213
68361	7	Sololá	717	San Juan la Laguna	12	San Juan la Laguna	7	Julio	2023-07-29T00:00:00	2024-11-08T11:00:00	2	Temperatura media	21.4
68362	7	Sololá	717	San Juan la Laguna	12	San Juan la Laguna	7	Julio	2023-07-29T00:00:00	2024-11-08T11:00:00	4	Temperatura máxima	22.1
68363	7	Sololá	717	San Juan la Laguna	12	San Juan la Laguna	7	Julio	2023-07-29T00:00:00	2024-11-08T11:00:00	3	Temperatura mínima	21.2
68364	7	Sololá	717	San Juan la Laguna	12	San Juan la Laguna	7	Julio	2023-07-29T00:00:00	2024-11-08T11:00:00	5	Humedad	73
68365	7	Sololá	717	San Juan la Laguna	12	San Juan la Laguna	7	Julio	2023-07-29T00:00:00	2024-11-08T11:00:00	6	Velocidad del viento	1.6
68366	7	Sololá	717	San Juan la Laguna	12	San Juan la Laguna	7	Julio	2023-07-29T00:00:00	2024-11-08T11:00:00	7	Dirección del viento	1.61
68367	7	Sololá	717	San Juan la Laguna	12	San Juan la Laguna	7	Julio	2023-07-29T00:00:00	2024-11-08T11:00:00	1	Precipitación	0
68368	7	Sololá	717	San Juan la Laguna	12	San Juan la Laguna	7	Julio	2023-07-29T00:00:00	2024-11-08T11:00:00	8	Radiación solar	273
68369	7	Sololá	717	San Juan la Laguna	12	San Juan la Laguna	7	Julio	2023-07-29T00:00:00	2024-11-08T12:00:00	2	Temperatura media	21.6
68370	7	Sololá	717	San Juan la Laguna	12	San Juan la Laguna	7	Julio	2023-07-29T00:00:00	2024-11-08T12:00:00	4	Temperatura máxima	21.8
68371	7	Sololá	717	San Juan la Laguna	12	San Juan la Laguna	7	Julio	2023-07-29T00:00:00	2024-11-08T12:00:00	3	Temperatura mínima	21
68372	7	Sololá	717	San Juan la Laguna	12	San Juan la Laguna	7	Julio	2023-07-29T00:00:00	2024-11-08T12:00:00	5	Humedad	73
68373	7	Sololá	717	San Juan la Laguna	12	San Juan la Laguna	7	Julio	2023-07-29T00:00:00	2024-11-08T12:00:00	6	Velocidad del viento	1.6
68374	7	Sololá	717	San Juan la Laguna	12	San Juan la Laguna	7	Julio	2023-07-29T00:00:00	2024-11-08T12:00:00	7	Dirección del viento	1.61
68375	7	Sololá	717	San Juan la Laguna	12	San Juan la Laguna	7	Julio	2023-07-29T00:00:00	2024-11-08T12:00:00	1	Precipitación	0
68376	7	Sololá	717	San Juan la Laguna	12	San Juan la Laguna	7	Julio	2023-07-29T00:00:00	2024-11-08T12:00:00	8	Radiación solar	182
68377	7	Sololá	717	San Juan la Laguna	12	San Juan la Laguna	7	Julio	2023-07-29T00:00:00	2024-11-08T13:00:00	2	Temperatura media	18.6
68378	7	Sololá	717	San Juan la Laguna	12	San Juan la Laguna	7	Julio	2023-07-29T00:00:00	2024-11-08T13:00:00	4	Temperatura máxima	21.6
68379	7	Sololá	717	San Juan la Laguna	12	San Juan la Laguna	7	Julio	2023-07-29T00:00:00	2024-11-08T13:00:00	3	Temperatura mínima	17.9
68380	7	Sololá	717	San Juan la Laguna	12	San Juan la Laguna	7	Julio	2023-07-29T00:00:00	2024-11-08T13:00:00	5	Humedad	91
68381	7	Sololá	717	San Juan la Laguna	12	San Juan la Laguna	7	Julio	2023-07-29T00:00:00	2024-11-08T13:00:00	6	Velocidad del viento	3.2
68382	7	Sololá	717	San Juan la Laguna	12	San Juan la Laguna	7	Julio	2023-07-29T00:00:00	2024-11-08T13:00:00	7	Dirección del viento	3.22
68383	7	Sololá	717	San Juan la Laguna	12	San Juan la Laguna	7	Julio	2023-07-29T00:00:00	2024-11-08T13:00:00	1	Precipitación	4.6
68384	7	Sololá	717	San Juan la Laguna	12	San Juan la Laguna	7	Julio	2023-07-29T00:00:00	2024-11-08T13:00:00	8	Radiación solar	200
68385	7	Sololá	717	San Juan la Laguna	12	San Juan la Laguna	7	Julio	2023-07-29T00:00:00	2024-11-08T14:00:00	2	Temperatura media	18.3
68386	7	Sololá	717	San Juan la Laguna	12	San Juan la Laguna	7	Julio	2023-07-29T00:00:00	2024-11-08T14:00:00	4	Temperatura máxima	18.6
68387	7	Sololá	717	San Juan la Laguna	12	San Juan la Laguna	7	Julio	2023-07-29T00:00:00	2024-11-08T14:00:00	3	Temperatura mínima	17.9
68388	7	Sololá	717	San Juan la Laguna	12	San Juan la Laguna	7	Julio	2023-07-29T00:00:00	2024-11-08T14:00:00	5	Humedad	91
68389	7	Sololá	717	San Juan la Laguna	12	San Juan la Laguna	7	Julio	2023-07-29T00:00:00	2024-11-08T14:00:00	6	Velocidad del viento	0
68390	7	Sololá	717	San Juan la Laguna	12	San Juan la Laguna	7	Julio	2023-07-29T00:00:00	2024-11-08T14:00:00	7	Dirección del viento	0
68391	7	Sololá	717	San Juan la Laguna	12	San Juan la Laguna	7	Julio	2023-07-29T00:00:00	2024-11-08T14:00:00	1	Precipitación	2.4
68392	7	Sololá	717	San Juan la Laguna	12	San Juan la Laguna	7	Julio	2023-07-29T00:00:00	2024-11-08T14:00:00	8	Radiación solar	142
68393	7	Sololá	717	San Juan la Laguna	12	San Juan la Laguna	7	Julio	2023-07-29T00:00:00	2024-11-08T15:00:00	2	Temperatura media	19.9
68394	7	Sololá	717	San Juan la Laguna	12	San Juan la Laguna	7	Julio	2023-07-29T00:00:00	2024-11-08T15:00:00	4	Temperatura máxima	20
68395	7	Sololá	717	San Juan la Laguna	12	San Juan la Laguna	7	Julio	2023-07-29T00:00:00	2024-11-08T15:00:00	3	Temperatura mínima	18.3
68396	7	Sololá	717	San Juan la Laguna	12	San Juan la Laguna	7	Julio	2023-07-29T00:00:00	2024-11-08T15:00:00	5	Humedad	83
68397	7	Sololá	717	San Juan la Laguna	12	San Juan la Laguna	7	Julio	2023-07-29T00:00:00	2024-11-08T15:00:00	6	Velocidad del viento	0
68398	7	Sololá	717	San Juan la Laguna	12	San Juan la Laguna	7	Julio	2023-07-29T00:00:00	2024-11-08T15:00:00	7	Dirección del viento	0
68399	7	Sololá	717	San Juan la Laguna	12	San Juan la Laguna	7	Julio	2023-07-29T00:00:00	2024-11-08T15:00:00	1	Precipitación	0
68400	7	Sololá	717	San Juan la Laguna	12	San Juan la Laguna	7	Julio	2023-07-29T00:00:00	2024-11-08T15:00:00	8	Radiación solar	250
68401	7	Sololá	717	San Juan la Laguna	12	San Juan la Laguna	7	Julio	2023-07-29T00:00:00	2024-11-08T16:00:00	2	Temperatura media	21.7
68402	7	Sololá	717	San Juan la Laguna	12	San Juan la Laguna	7	Julio	2023-07-29T00:00:00	2024-11-08T16:00:00	4	Temperatura máxima	21.7
68403	7	Sololá	717	San Juan la Laguna	12	San Juan la Laguna	7	Julio	2023-07-29T00:00:00	2024-11-08T16:00:00	3	Temperatura mínima	19.9
68404	7	Sololá	717	San Juan la Laguna	12	San Juan la Laguna	7	Julio	2023-07-29T00:00:00	2024-11-08T16:00:00	5	Humedad	76
68405	7	Sololá	717	San Juan la Laguna	12	San Juan la Laguna	7	Julio	2023-07-29T00:00:00	2024-11-08T16:00:00	6	Velocidad del viento	0
68406	7	Sololá	717	San Juan la Laguna	12	San Juan la Laguna	7	Julio	2023-07-29T00:00:00	2024-11-08T16:00:00	7	Dirección del viento	0
68407	7	Sololá	717	San Juan la Laguna	12	San Juan la Laguna	7	Julio	2023-07-29T00:00:00	2024-11-08T16:00:00	1	Precipitación	0
68408	7	Sololá	717	San Juan la Laguna	12	San Juan la Laguna	7	Julio	2023-07-29T00:00:00	2024-11-08T16:00:00	8	Radiación solar	241
68409	7	Sololá	717	San Juan la Laguna	12	San Juan la Laguna	7	Julio	2023-07-29T00:00:00	2024-11-08T17:00:00	2	Temperatura media	21.8
68410	7	Sololá	717	San Juan la Laguna	12	San Juan la Laguna	7	Julio	2023-07-29T00:00:00	2024-11-08T17:00:00	4	Temperatura máxima	22.3
68411	7	Sololá	717	San Juan la Laguna	12	San Juan la Laguna	7	Julio	2023-07-29T00:00:00	2024-11-08T17:00:00	3	Temperatura mínima	21.7
68412	7	Sololá	717	San Juan la Laguna	12	San Juan la Laguna	7	Julio	2023-07-29T00:00:00	2024-11-08T17:00:00	5	Humedad	78
68413	7	Sololá	717	San Juan la Laguna	12	San Juan la Laguna	7	Julio	2023-07-29T00:00:00	2024-11-08T17:00:00	6	Velocidad del viento	0
68414	7	Sololá	717	San Juan la Laguna	12	San Juan la Laguna	7	Julio	2023-07-29T00:00:00	2024-11-08T17:00:00	7	Dirección del viento	0
68415	7	Sololá	717	San Juan la Laguna	12	San Juan la Laguna	7	Julio	2023-07-29T00:00:00	2024-11-08T17:00:00	1	Precipitación	0
68416	7	Sololá	717	San Juan la Laguna	12	San Juan la Laguna	7	Julio	2023-07-29T00:00:00	2024-11-08T17:00:00	8	Radiación solar	186
68417	7	Sololá	717	San Juan la Laguna	12	San Juan la Laguna	7	Julio	2023-07-29T00:00:00	2024-11-08T18:00:00	2	Temperatura media	19.2
68418	7	Sololá	717	San Juan la Laguna	12	San Juan la Laguna	7	Julio	2023-07-29T00:00:00	2024-11-08T18:00:00	4	Temperatura máxima	21.8
68419	7	Sololá	717	San Juan la Laguna	12	San Juan la Laguna	7	Julio	2023-07-29T00:00:00	2024-11-08T18:00:00	3	Temperatura mínima	19.2
68420	7	Sololá	717	San Juan la Laguna	12	San Juan la Laguna	7	Julio	2023-07-29T00:00:00	2024-11-08T18:00:00	5	Humedad	88
68421	7	Sololá	717	San Juan la Laguna	12	San Juan la Laguna	7	Julio	2023-07-29T00:00:00	2024-11-08T18:00:00	6	Velocidad del viento	0
68422	7	Sololá	717	San Juan la Laguna	12	San Juan la Laguna	7	Julio	2023-07-29T00:00:00	2024-11-08T18:00:00	7	Dirección del viento	0
68423	7	Sololá	717	San Juan la Laguna	12	San Juan la Laguna	7	Julio	2023-07-29T00:00:00	2024-11-08T18:00:00	1	Precipitación	2.6
68424	7	Sololá	717	San Juan la Laguna	12	San Juan la Laguna	7	Julio	2023-07-29T00:00:00	2024-11-08T18:00:00	8	Radiación solar	65
68425	7	Sololá	717	San Juan la Laguna	12	San Juan la Laguna	7	Julio	2023-07-29T00:00:00	2024-11-08T19:00:00	2	Temperatura media	17.6
68426	7	Sololá	717	San Juan la Laguna	12	San Juan la Laguna	7	Julio	2023-07-29T00:00:00	2024-11-08T19:00:00	4	Temperatura máxima	19.2
68427	7	Sololá	717	San Juan la Laguna	12	San Juan la Laguna	7	Julio	2023-07-29T00:00:00	2024-11-08T19:00:00	3	Temperatura mínima	17.6
68428	7	Sololá	717	San Juan la Laguna	12	San Juan la Laguna	7	Julio	2023-07-29T00:00:00	2024-11-08T19:00:00	5	Humedad	92
68429	7	Sololá	717	San Juan la Laguna	12	San Juan la Laguna	7	Julio	2023-07-29T00:00:00	2024-11-08T19:00:00	6	Velocidad del viento	0
68430	7	Sololá	717	San Juan la Laguna	12	San Juan la Laguna	7	Julio	2023-07-29T00:00:00	2024-11-08T19:00:00	7	Dirección del viento	0
68431	7	Sololá	717	San Juan la Laguna	12	San Juan la Laguna	7	Julio	2023-07-29T00:00:00	2024-11-08T19:00:00	1	Precipitación	4
68432	7	Sololá	717	San Juan la Laguna	12	San Juan la Laguna	7	Julio	2023-07-29T00:00:00	2024-11-08T19:00:00	8	Radiación solar	0
68433	7	Sololá	717	San Juan la Laguna	12	San Juan la Laguna	7	Julio	2023-07-29T00:00:00	2024-11-08T20:00:00	2	Temperatura media	17.8
68434	7	Sololá	717	San Juan la Laguna	12	San Juan la Laguna	7	Julio	2023-07-29T00:00:00	2024-11-08T20:00:00	4	Temperatura máxima	17.8
68435	7	Sololá	717	San Juan la Laguna	12	San Juan la Laguna	7	Julio	2023-07-29T00:00:00	2024-11-08T20:00:00	3	Temperatura mínima	17.5
68436	7	Sololá	717	San Juan la Laguna	12	San Juan la Laguna	7	Julio	2023-07-29T00:00:00	2024-11-08T20:00:00	5	Humedad	92
68437	7	Sololá	717	San Juan la Laguna	12	San Juan la Laguna	7	Julio	2023-07-29T00:00:00	2024-11-08T20:00:00	6	Velocidad del viento	1.6
68438	7	Sololá	717	San Juan la Laguna	12	San Juan la Laguna	7	Julio	2023-07-29T00:00:00	2024-11-08T20:00:00	7	Dirección del viento	1.61
68439	7	Sololá	717	San Juan la Laguna	12	San Juan la Laguna	7	Julio	2023-07-29T00:00:00	2024-11-08T20:00:00	1	Precipitación	0.6
68440	7	Sololá	717	San Juan la Laguna	12	San Juan la Laguna	7	Julio	2023-07-29T00:00:00	2024-11-08T20:00:00	8	Radiación solar	0
68441	7	Sololá	717	San Juan la Laguna	12	San Juan la Laguna	7	Julio	2023-07-29T00:00:00	2024-11-08T21:00:00	2	Temperatura media	17.6
68442	7	Sololá	717	San Juan la Laguna	12	San Juan la Laguna	7	Julio	2023-07-29T00:00:00	2024-11-08T21:00:00	4	Temperatura máxima	18.2
68443	7	Sololá	717	San Juan la Laguna	12	San Juan la Laguna	7	Julio	2023-07-29T00:00:00	2024-11-08T21:00:00	3	Temperatura mínima	17.6
68444	7	Sololá	717	San Juan la Laguna	12	San Juan la Laguna	7	Julio	2023-07-29T00:00:00	2024-11-08T21:00:00	5	Humedad	91
68445	7	Sololá	717	San Juan la Laguna	12	San Juan la Laguna	7	Julio	2023-07-29T00:00:00	2024-11-08T21:00:00	6	Velocidad del viento	3.2
68446	7	Sololá	717	San Juan la Laguna	12	San Juan la Laguna	7	Julio	2023-07-29T00:00:00	2024-11-08T21:00:00	7	Dirección del viento	3.22
68447	7	Sololá	717	San Juan la Laguna	12	San Juan la Laguna	7	Julio	2023-07-29T00:00:00	2024-11-08T21:00:00	1	Precipitación	6
68448	7	Sololá	717	San Juan la Laguna	12	San Juan la Laguna	7	Julio	2023-07-29T00:00:00	2024-11-08T21:00:00	8	Radiación solar	0
68449	7	Sololá	717	San Juan la Laguna	12	San Juan la Laguna	7	Julio	2023-07-29T00:00:00	2024-11-08T22:00:00	2	Temperatura media	16.8
68450	7	Sololá	717	San Juan la Laguna	12	San Juan la Laguna	7	Julio	2023-07-29T00:00:00	2024-11-08T22:00:00	4	Temperatura máxima	17.6
68451	7	Sololá	717	San Juan la Laguna	12	San Juan la Laguna	7	Julio	2023-07-29T00:00:00	2024-11-08T22:00:00	3	Temperatura mínima	16.8
68452	7	Sololá	717	San Juan la Laguna	12	San Juan la Laguna	7	Julio	2023-07-29T00:00:00	2024-11-08T22:00:00	5	Humedad	93
68453	7	Sololá	717	San Juan la Laguna	12	San Juan la Laguna	7	Julio	2023-07-29T00:00:00	2024-11-08T22:00:00	6	Velocidad del viento	1.6
68454	7	Sololá	717	San Juan la Laguna	12	San Juan la Laguna	7	Julio	2023-07-29T00:00:00	2024-11-08T22:00:00	7	Dirección del viento	1.61
68455	7	Sololá	717	San Juan la Laguna	12	San Juan la Laguna	7	Julio	2023-07-29T00:00:00	2024-11-08T22:00:00	1	Precipitación	2
68456	7	Sololá	717	San Juan la Laguna	12	San Juan la Laguna	7	Julio	2023-07-29T00:00:00	2024-11-08T22:00:00	8	Radiación solar	0
68457	7	Sololá	717	San Juan la Laguna	12	San Juan la Laguna	7	Julio	2023-07-29T00:00:00	2024-11-08T23:00:00	2	Temperatura media	16.7
68458	7	Sololá	717	San Juan la Laguna	12	San Juan la Laguna	7	Julio	2023-07-29T00:00:00	2024-11-08T23:00:00	4	Temperatura máxima	16.8
68459	7	Sololá	717	San Juan la Laguna	12	San Juan la Laguna	7	Julio	2023-07-29T00:00:00	2024-11-08T23:00:00	3	Temperatura mínima	16.7
68460	7	Sololá	717	San Juan la Laguna	12	San Juan la Laguna	7	Julio	2023-07-29T00:00:00	2024-11-08T23:00:00	5	Humedad	92
68461	7	Sololá	717	San Juan la Laguna	12	San Juan la Laguna	7	Julio	2023-07-29T00:00:00	2024-11-08T23:00:00	6	Velocidad del viento	0
68462	7	Sololá	717	San Juan la Laguna	12	San Juan la Laguna	7	Julio	2023-07-29T00:00:00	2024-11-08T23:00:00	7	Dirección del viento	0
68463	7	Sololá	717	San Juan la Laguna	12	San Juan la Laguna	7	Julio	2023-07-29T00:00:00	2024-11-08T23:00:00	1	Precipitación	0
68464	7	Sololá	717	San Juan la Laguna	12	San Juan la Laguna	7	Julio	2023-07-29T00:00:00	2024-11-08T23:00:00	8	Radiación solar	0
68465	7	Sololá	717	San Juan la Laguna	12	San Juan la Laguna	7	Julio	2023-07-30T00:00:00	2024-11-08T00:00:00	2	Temperatura media	16.4
68466	7	Sololá	717	San Juan la Laguna	12	San Juan la Laguna	7	Julio	2023-07-30T00:00:00	2024-11-08T00:00:00	4	Temperatura máxima	16.7
68467	7	Sololá	717	San Juan la Laguna	12	San Juan la Laguna	7	Julio	2023-07-30T00:00:00	2024-11-08T00:00:00	3	Temperatura mínima	16.4
68468	7	Sololá	717	San Juan la Laguna	12	San Juan la Laguna	7	Julio	2023-07-30T00:00:00	2024-11-08T00:00:00	5	Humedad	93
68469	7	Sololá	717	San Juan la Laguna	12	San Juan la Laguna	7	Julio	2023-07-30T00:00:00	2024-11-08T00:00:00	6	Velocidad del viento	0
68470	7	Sololá	717	San Juan la Laguna	12	San Juan la Laguna	7	Julio	2023-07-30T00:00:00	2024-11-08T00:00:00	7	Dirección del viento	0
68471	7	Sololá	717	San Juan la Laguna	12	San Juan la Laguna	7	Julio	2023-07-30T00:00:00	2024-11-08T00:00:00	1	Precipitación	0
68472	7	Sololá	717	San Juan la Laguna	12	San Juan la Laguna	7	Julio	2023-07-30T00:00:00	2024-11-08T00:00:00	8	Radiación solar	0
68473	7	Sololá	717	San Juan la Laguna	12	San Juan la Laguna	7	Julio	2023-07-30T00:00:00	2024-11-08T01:00:00	2	Temperatura media	16.4
68474	7	Sololá	717	San Juan la Laguna	12	San Juan la Laguna	7	Julio	2023-07-30T00:00:00	2024-11-08T01:00:00	4	Temperatura máxima	16.6
68475	7	Sololá	717	San Juan la Laguna	12	San Juan la Laguna	7	Julio	2023-07-30T00:00:00	2024-11-08T01:00:00	3	Temperatura mínima	16.4
68476	7	Sololá	717	San Juan la Laguna	12	San Juan la Laguna	7	Julio	2023-07-30T00:00:00	2024-11-08T01:00:00	5	Humedad	93
68477	7	Sololá	717	San Juan la Laguna	12	San Juan la Laguna	7	Julio	2023-07-30T00:00:00	2024-11-08T01:00:00	6	Velocidad del viento	0
68478	7	Sololá	717	San Juan la Laguna	12	San Juan la Laguna	7	Julio	2023-07-30T00:00:00	2024-11-08T01:00:00	7	Dirección del viento	0
68479	7	Sololá	717	San Juan la Laguna	12	San Juan la Laguna	7	Julio	2023-07-30T00:00:00	2024-11-08T01:00:00	1	Precipitación	0
68480	7	Sololá	717	San Juan la Laguna	12	San Juan la Laguna	7	Julio	2023-07-30T00:00:00	2024-11-08T01:00:00	8	Radiación solar	0
68481	7	Sololá	717	San Juan la Laguna	12	San Juan la Laguna	7	Julio	2023-07-30T00:00:00	2024-11-08T02:00:00	2	Temperatura media	15.9
68482	7	Sololá	717	San Juan la Laguna	12	San Juan la Laguna	7	Julio	2023-07-30T00:00:00	2024-11-08T02:00:00	4	Temperatura máxima	16.4
68483	7	Sololá	717	San Juan la Laguna	12	San Juan la Laguna	7	Julio	2023-07-30T00:00:00	2024-11-08T02:00:00	3	Temperatura mínima	15.9
68484	7	Sololá	717	San Juan la Laguna	12	San Juan la Laguna	7	Julio	2023-07-30T00:00:00	2024-11-08T02:00:00	5	Humedad	92
68485	7	Sololá	717	San Juan la Laguna	12	San Juan la Laguna	7	Julio	2023-07-30T00:00:00	2024-11-08T02:00:00	6	Velocidad del viento	0
68486	7	Sololá	717	San Juan la Laguna	12	San Juan la Laguna	7	Julio	2023-07-30T00:00:00	2024-11-08T02:00:00	7	Dirección del viento	0
68487	7	Sololá	717	San Juan la Laguna	12	San Juan la Laguna	7	Julio	2023-07-30T00:00:00	2024-11-08T02:00:00	1	Precipitación	0
68488	7	Sololá	717	San Juan la Laguna	12	San Juan la Laguna	7	Julio	2023-07-30T00:00:00	2024-11-08T02:00:00	8	Radiación solar	0
68489	7	Sololá	717	San Juan la Laguna	12	San Juan la Laguna	7	Julio	2023-07-30T00:00:00	2024-11-08T03:00:00	2	Temperatura media	15.4
68490	7	Sololá	717	San Juan la Laguna	12	San Juan la Laguna	7	Julio	2023-07-30T00:00:00	2024-11-08T03:00:00	4	Temperatura máxima	16
68491	7	Sololá	717	San Juan la Laguna	12	San Juan la Laguna	7	Julio	2023-07-30T00:00:00	2024-11-08T03:00:00	3	Temperatura mínima	15.4
68492	7	Sololá	717	San Juan la Laguna	12	San Juan la Laguna	7	Julio	2023-07-30T00:00:00	2024-11-08T03:00:00	5	Humedad	93
68493	7	Sololá	717	San Juan la Laguna	12	San Juan la Laguna	7	Julio	2023-07-30T00:00:00	2024-11-08T03:00:00	6	Velocidad del viento	0
68494	7	Sololá	717	San Juan la Laguna	12	San Juan la Laguna	7	Julio	2023-07-30T00:00:00	2024-11-08T03:00:00	7	Dirección del viento	0
68495	7	Sololá	717	San Juan la Laguna	12	San Juan la Laguna	7	Julio	2023-07-30T00:00:00	2024-11-08T03:00:00	1	Precipitación	0
68496	7	Sololá	717	San Juan la Laguna	12	San Juan la Laguna	7	Julio	2023-07-30T00:00:00	2024-11-08T03:00:00	8	Radiación solar	0
68497	7	Sololá	717	San Juan la Laguna	12	San Juan la Laguna	7	Julio	2023-07-30T00:00:00	2024-11-08T04:00:00	2	Temperatura media	15.3
68498	7	Sololá	717	San Juan la Laguna	12	San Juan la Laguna	7	Julio	2023-07-30T00:00:00	2024-11-08T04:00:00	4	Temperatura máxima	15.6
68499	7	Sololá	717	San Juan la Laguna	12	San Juan la Laguna	7	Julio	2023-07-30T00:00:00	2024-11-08T04:00:00	3	Temperatura mínima	15.3
68500	7	Sololá	717	San Juan la Laguna	12	San Juan la Laguna	7	Julio	2023-07-30T00:00:00	2024-11-08T04:00:00	5	Humedad	93
68501	7	Sololá	717	San Juan la Laguna	12	San Juan la Laguna	7	Julio	2023-07-30T00:00:00	2024-11-08T04:00:00	6	Velocidad del viento	0
68502	7	Sololá	717	San Juan la Laguna	12	San Juan la Laguna	7	Julio	2023-07-30T00:00:00	2024-11-08T04:00:00	7	Dirección del viento	0
68503	7	Sololá	717	San Juan la Laguna	12	San Juan la Laguna	7	Julio	2023-07-30T00:00:00	2024-11-08T04:00:00	1	Precipitación	0
68504	7	Sololá	717	San Juan la Laguna	12	San Juan la Laguna	7	Julio	2023-07-30T00:00:00	2024-11-08T04:00:00	8	Radiación solar	0
68505	7	Sololá	717	San Juan la Laguna	12	San Juan la Laguna	7	Julio	2023-07-30T00:00:00	2024-11-08T05:00:00	2	Temperatura media	15.3
68506	7	Sololá	717	San Juan la Laguna	12	San Juan la Laguna	7	Julio	2023-07-30T00:00:00	2024-11-08T05:00:00	4	Temperatura máxima	15.5
68507	7	Sololá	717	San Juan la Laguna	12	San Juan la Laguna	7	Julio	2023-07-30T00:00:00	2024-11-08T05:00:00	3	Temperatura mínima	15.2
68508	7	Sololá	717	San Juan la Laguna	12	San Juan la Laguna	7	Julio	2023-07-30T00:00:00	2024-11-08T05:00:00	5	Humedad	92
68509	7	Sololá	717	San Juan la Laguna	12	San Juan la Laguna	7	Julio	2023-07-30T00:00:00	2024-11-08T05:00:00	6	Velocidad del viento	1.6
68510	7	Sololá	717	San Juan la Laguna	12	San Juan la Laguna	7	Julio	2023-07-30T00:00:00	2024-11-08T05:00:00	7	Dirección del viento	1.61
68511	7	Sololá	717	San Juan la Laguna	12	San Juan la Laguna	7	Julio	2023-07-30T00:00:00	2024-11-08T05:00:00	1	Precipitación	0
68512	7	Sololá	717	San Juan la Laguna	12	San Juan la Laguna	7	Julio	2023-07-30T00:00:00	2024-11-08T05:00:00	8	Radiación solar	0
68513	7	Sololá	717	San Juan la Laguna	12	San Juan la Laguna	7	Julio	2023-07-30T00:00:00	2024-11-08T06:00:00	2	Temperatura media	14.9
68514	7	Sololá	717	San Juan la Laguna	12	San Juan la Laguna	7	Julio	2023-07-30T00:00:00	2024-11-08T06:00:00	4	Temperatura máxima	15.4
68515	7	Sololá	717	San Juan la Laguna	12	San Juan la Laguna	7	Julio	2023-07-30T00:00:00	2024-11-08T06:00:00	3	Temperatura mínima	14.9
68516	7	Sololá	717	San Juan la Laguna	12	San Juan la Laguna	7	Julio	2023-07-30T00:00:00	2024-11-08T06:00:00	5	Humedad	93
68517	7	Sololá	717	San Juan la Laguna	12	San Juan la Laguna	7	Julio	2023-07-30T00:00:00	2024-11-08T06:00:00	6	Velocidad del viento	0
68518	7	Sololá	717	San Juan la Laguna	12	San Juan la Laguna	7	Julio	2023-07-30T00:00:00	2024-11-08T06:00:00	7	Dirección del viento	0
68519	7	Sololá	717	San Juan la Laguna	12	San Juan la Laguna	7	Julio	2023-07-30T00:00:00	2024-11-08T06:00:00	1	Precipitación	0
68520	7	Sololá	717	San Juan la Laguna	12	San Juan la Laguna	7	Julio	2023-07-30T00:00:00	2024-11-08T06:00:00	8	Radiación solar	2
68521	7	Sololá	717	San Juan la Laguna	12	San Juan la Laguna	7	Julio	2023-07-30T00:00:00	2024-11-08T07:00:00	2	Temperatura media	17.2
68522	7	Sololá	717	San Juan la Laguna	12	San Juan la Laguna	7	Julio	2023-07-30T00:00:00	2024-11-08T07:00:00	4	Temperatura máxima	17.2
68523	7	Sololá	717	San Juan la Laguna	12	San Juan la Laguna	7	Julio	2023-07-30T00:00:00	2024-11-08T07:00:00	3	Temperatura mínima	14.8
68524	7	Sololá	717	San Juan la Laguna	12	San Juan la Laguna	7	Julio	2023-07-30T00:00:00	2024-11-08T07:00:00	5	Humedad	91
68525	7	Sololá	717	San Juan la Laguna	12	San Juan la Laguna	7	Julio	2023-07-30T00:00:00	2024-11-08T07:00:00	6	Velocidad del viento	0
68526	7	Sololá	717	San Juan la Laguna	12	San Juan la Laguna	7	Julio	2023-07-30T00:00:00	2024-11-08T07:00:00	7	Dirección del viento	0
68527	7	Sololá	717	San Juan la Laguna	12	San Juan la Laguna	7	Julio	2023-07-30T00:00:00	2024-11-08T07:00:00	1	Precipitación	0
68528	7	Sololá	717	San Juan la Laguna	12	San Juan la Laguna	7	Julio	2023-07-30T00:00:00	2024-11-08T07:00:00	8	Radiación solar	81
68529	7	Sololá	717	San Juan la Laguna	12	San Juan la Laguna	7	Julio	2023-07-30T00:00:00	2024-11-08T08:00:00	2	Temperatura media	21.3
68530	7	Sololá	717	San Juan la Laguna	12	San Juan la Laguna	7	Julio	2023-07-30T00:00:00	2024-11-08T08:00:00	4	Temperatura máxima	21.3
68531	7	Sololá	717	San Juan la Laguna	12	San Juan la Laguna	7	Julio	2023-07-30T00:00:00	2024-11-08T08:00:00	3	Temperatura mínima	17.2
68532	7	Sololá	717	San Juan la Laguna	12	San Juan la Laguna	7	Julio	2023-07-30T00:00:00	2024-11-08T08:00:00	5	Humedad	76
68533	7	Sololá	717	San Juan la Laguna	12	San Juan la Laguna	7	Julio	2023-07-30T00:00:00	2024-11-08T08:00:00	6	Velocidad del viento	0
68534	7	Sololá	717	San Juan la Laguna	12	San Juan la Laguna	7	Julio	2023-07-30T00:00:00	2024-11-08T08:00:00	7	Dirección del viento	0
68535	7	Sololá	717	San Juan la Laguna	12	San Juan la Laguna	7	Julio	2023-07-30T00:00:00	2024-11-08T08:00:00	1	Precipitación	0
68536	7	Sololá	717	San Juan la Laguna	12	San Juan la Laguna	7	Julio	2023-07-30T00:00:00	2024-11-08T08:00:00	8	Radiación solar	297
68537	7	Sololá	717	San Juan la Laguna	12	San Juan la Laguna	7	Julio	2023-07-30T00:00:00	2024-11-08T09:00:00	2	Temperatura media	22.9
68538	7	Sololá	717	San Juan la Laguna	12	San Juan la Laguna	7	Julio	2023-07-30T00:00:00	2024-11-08T09:00:00	4	Temperatura máxima	22.9
68539	7	Sololá	717	San Juan la Laguna	12	San Juan la Laguna	7	Julio	2023-07-30T00:00:00	2024-11-08T09:00:00	3	Temperatura mínima	21.3
68540	7	Sololá	717	San Juan la Laguna	12	San Juan la Laguna	7	Julio	2023-07-30T00:00:00	2024-11-08T09:00:00	5	Humedad	68
68541	7	Sololá	717	San Juan la Laguna	12	San Juan la Laguna	7	Julio	2023-07-30T00:00:00	2024-11-08T09:00:00	6	Velocidad del viento	0
68542	7	Sololá	717	San Juan la Laguna	12	San Juan la Laguna	7	Julio	2023-07-30T00:00:00	2024-11-08T09:00:00	7	Dirección del viento	0
68543	7	Sololá	717	San Juan la Laguna	12	San Juan la Laguna	7	Julio	2023-07-30T00:00:00	2024-11-08T09:00:00	1	Precipitación	0
68544	7	Sololá	717	San Juan la Laguna	12	San Juan la Laguna	7	Julio	2023-07-30T00:00:00	2024-11-08T09:00:00	8	Radiación solar	508
68545	7	Sololá	717	San Juan la Laguna	12	San Juan la Laguna	7	Julio	2023-07-30T00:00:00	2024-11-08T10:00:00	2	Temperatura media	24.6
68546	7	Sololá	717	San Juan la Laguna	12	San Juan la Laguna	7	Julio	2023-07-30T00:00:00	2024-11-08T10:00:00	4	Temperatura máxima	24.6
68547	7	Sololá	717	San Juan la Laguna	12	San Juan la Laguna	7	Julio	2023-07-30T00:00:00	2024-11-08T10:00:00	3	Temperatura mínima	22.9
68548	7	Sololá	717	San Juan la Laguna	12	San Juan la Laguna	7	Julio	2023-07-30T00:00:00	2024-11-08T10:00:00	5	Humedad	61
68549	7	Sololá	717	San Juan la Laguna	12	San Juan la Laguna	7	Julio	2023-07-30T00:00:00	2024-11-08T10:00:00	6	Velocidad del viento	0
68550	7	Sololá	717	San Juan la Laguna	12	San Juan la Laguna	7	Julio	2023-07-30T00:00:00	2024-11-08T10:00:00	7	Dirección del viento	0
68551	7	Sololá	717	San Juan la Laguna	12	San Juan la Laguna	7	Julio	2023-07-30T00:00:00	2024-11-08T10:00:00	1	Precipitación	0
68552	7	Sololá	717	San Juan la Laguna	12	San Juan la Laguna	7	Julio	2023-07-30T00:00:00	2024-11-08T10:00:00	8	Radiación solar	694
68553	7	Sololá	717	San Juan la Laguna	12	San Juan la Laguna	7	Julio	2023-07-30T00:00:00	2024-11-08T11:00:00	2	Temperatura media	24.7
68554	7	Sololá	717	San Juan la Laguna	12	San Juan la Laguna	7	Julio	2023-07-30T00:00:00	2024-11-08T11:00:00	4	Temperatura máxima	25.6
68555	7	Sololá	717	San Juan la Laguna	12	San Juan la Laguna	7	Julio	2023-07-30T00:00:00	2024-11-08T11:00:00	3	Temperatura mínima	24.6
68556	7	Sololá	717	San Juan la Laguna	12	San Juan la Laguna	7	Julio	2023-07-30T00:00:00	2024-11-08T11:00:00	5	Humedad	61
68557	7	Sololá	717	San Juan la Laguna	12	San Juan la Laguna	7	Julio	2023-07-30T00:00:00	2024-11-08T11:00:00	6	Velocidad del viento	0
68558	7	Sololá	717	San Juan la Laguna	12	San Juan la Laguna	7	Julio	2023-07-30T00:00:00	2024-11-08T11:00:00	7	Dirección del viento	0
68559	7	Sololá	717	San Juan la Laguna	12	San Juan la Laguna	7	Julio	2023-07-30T00:00:00	2024-11-08T11:00:00	1	Precipitación	0
68560	7	Sololá	717	San Juan la Laguna	12	San Juan la Laguna	7	Julio	2023-07-30T00:00:00	2024-11-08T11:00:00	8	Radiación solar	796
68561	7	Sololá	717	San Juan la Laguna	12	San Juan la Laguna	7	Julio	2023-07-30T00:00:00	2024-11-08T12:00:00	2	Temperatura media	26
68562	7	Sololá	717	San Juan la Laguna	12	San Juan la Laguna	7	Julio	2023-07-30T00:00:00	2024-11-08T12:00:00	4	Temperatura máxima	26
68563	7	Sololá	717	San Juan la Laguna	12	San Juan la Laguna	7	Julio	2023-07-30T00:00:00	2024-11-08T12:00:00	3	Temperatura mínima	24.7
68564	7	Sololá	717	San Juan la Laguna	12	San Juan la Laguna	7	Julio	2023-07-30T00:00:00	2024-11-08T12:00:00	5	Humedad	63
68565	7	Sololá	717	San Juan la Laguna	12	San Juan la Laguna	7	Julio	2023-07-30T00:00:00	2024-11-08T12:00:00	6	Velocidad del viento	0
68566	7	Sololá	717	San Juan la Laguna	12	San Juan la Laguna	7	Julio	2023-07-30T00:00:00	2024-11-08T12:00:00	7	Dirección del viento	0
68567	7	Sololá	717	San Juan la Laguna	12	San Juan la Laguna	7	Julio	2023-07-30T00:00:00	2024-11-08T12:00:00	1	Precipitación	0
68568	7	Sololá	717	San Juan la Laguna	12	San Juan la Laguna	7	Julio	2023-07-30T00:00:00	2024-11-08T12:00:00	8	Radiación solar	972
68569	7	Sololá	717	San Juan la Laguna	12	San Juan la Laguna	7	Julio	2023-07-30T00:00:00	2024-11-08T13:00:00	2	Temperatura media	24.6
68570	7	Sololá	717	San Juan la Laguna	12	San Juan la Laguna	7	Julio	2023-07-30T00:00:00	2024-11-08T13:00:00	4	Temperatura máxima	27.2
68571	7	Sololá	717	San Juan la Laguna	12	San Juan la Laguna	7	Julio	2023-07-30T00:00:00	2024-11-08T13:00:00	3	Temperatura mínima	24.6
68572	7	Sololá	717	San Juan la Laguna	12	San Juan la Laguna	7	Julio	2023-07-30T00:00:00	2024-11-08T13:00:00	5	Humedad	68
68573	7	Sololá	717	San Juan la Laguna	12	San Juan la Laguna	7	Julio	2023-07-30T00:00:00	2024-11-08T13:00:00	6	Velocidad del viento	0
68574	7	Sololá	717	San Juan la Laguna	12	San Juan la Laguna	7	Julio	2023-07-30T00:00:00	2024-11-08T13:00:00	7	Dirección del viento	0
68575	7	Sololá	717	San Juan la Laguna	12	San Juan la Laguna	7	Julio	2023-07-30T00:00:00	2024-11-08T13:00:00	1	Precipitación	0
68576	7	Sololá	717	San Juan la Laguna	12	San Juan la Laguna	7	Julio	2023-07-30T00:00:00	2024-11-08T13:00:00	8	Radiación solar	753
68577	7	Sololá	717	San Juan la Laguna	12	San Juan la Laguna	7	Julio	2023-07-30T00:00:00	2024-11-08T14:00:00	2	Temperatura media	25.7
68578	7	Sololá	717	San Juan la Laguna	12	San Juan la Laguna	7	Julio	2023-07-30T00:00:00	2024-11-08T14:00:00	4	Temperatura máxima	26.6
68579	7	Sololá	717	San Juan la Laguna	12	San Juan la Laguna	7	Julio	2023-07-30T00:00:00	2024-11-08T14:00:00	3	Temperatura mínima	24.5
68580	7	Sololá	717	San Juan la Laguna	12	San Juan la Laguna	7	Julio	2023-07-30T00:00:00	2024-11-08T14:00:00	5	Humedad	65
68581	7	Sololá	717	San Juan la Laguna	12	San Juan la Laguna	7	Julio	2023-07-30T00:00:00	2024-11-08T14:00:00	6	Velocidad del viento	0
68582	7	Sololá	717	San Juan la Laguna	12	San Juan la Laguna	7	Julio	2023-07-30T00:00:00	2024-11-08T14:00:00	7	Dirección del viento	0
68583	7	Sololá	717	San Juan la Laguna	12	San Juan la Laguna	7	Julio	2023-07-30T00:00:00	2024-11-08T14:00:00	1	Precipitación	0
68584	7	Sololá	717	San Juan la Laguna	12	San Juan la Laguna	7	Julio	2023-07-30T00:00:00	2024-11-08T14:00:00	8	Radiación solar	789
68585	7	Sololá	717	San Juan la Laguna	12	San Juan la Laguna	7	Julio	2023-07-30T00:00:00	2024-11-08T15:00:00	2	Temperatura media	25.6
68586	7	Sololá	717	San Juan la Laguna	12	San Juan la Laguna	7	Julio	2023-07-30T00:00:00	2024-11-08T15:00:00	4	Temperatura máxima	25.9
68587	7	Sololá	717	San Juan la Laguna	12	San Juan la Laguna	7	Julio	2023-07-30T00:00:00	2024-11-08T15:00:00	3	Temperatura mínima	25.2
68588	7	Sololá	717	San Juan la Laguna	12	San Juan la Laguna	7	Julio	2023-07-30T00:00:00	2024-11-08T15:00:00	5	Humedad	65
68589	7	Sololá	717	San Juan la Laguna	12	San Juan la Laguna	7	Julio	2023-07-30T00:00:00	2024-11-08T15:00:00	6	Velocidad del viento	0
68590	7	Sololá	717	San Juan la Laguna	12	San Juan la Laguna	7	Julio	2023-07-30T00:00:00	2024-11-08T15:00:00	7	Dirección del viento	0
68591	7	Sololá	717	San Juan la Laguna	12	San Juan la Laguna	7	Julio	2023-07-30T00:00:00	2024-11-08T15:00:00	1	Precipitación	0
68592	7	Sololá	717	San Juan la Laguna	12	San Juan la Laguna	7	Julio	2023-07-30T00:00:00	2024-11-08T15:00:00	8	Radiación solar	784
68593	7	Sololá	717	San Juan la Laguna	12	San Juan la Laguna	7	Julio	2023-07-30T00:00:00	2024-11-08T16:00:00	2	Temperatura media	23.2
68594	7	Sololá	717	San Juan la Laguna	12	San Juan la Laguna	7	Julio	2023-07-30T00:00:00	2024-11-08T16:00:00	4	Temperatura máxima	25.8
68595	7	Sololá	717	San Juan la Laguna	12	San Juan la Laguna	7	Julio	2023-07-30T00:00:00	2024-11-08T16:00:00	3	Temperatura mínima	23.1
68596	7	Sololá	717	San Juan la Laguna	12	San Juan la Laguna	7	Julio	2023-07-30T00:00:00	2024-11-08T16:00:00	5	Humedad	76
68597	7	Sololá	717	San Juan la Laguna	12	San Juan la Laguna	7	Julio	2023-07-30T00:00:00	2024-11-08T16:00:00	6	Velocidad del viento	1.6
68598	7	Sololá	717	San Juan la Laguna	12	San Juan la Laguna	7	Julio	2023-07-30T00:00:00	2024-11-08T16:00:00	7	Dirección del viento	1.61
68599	7	Sololá	717	San Juan la Laguna	12	San Juan la Laguna	7	Julio	2023-07-30T00:00:00	2024-11-08T16:00:00	1	Precipitación	0
68600	7	Sololá	717	San Juan la Laguna	12	San Juan la Laguna	7	Julio	2023-07-30T00:00:00	2024-11-08T16:00:00	8	Radiación solar	512
68601	7	Sololá	717	San Juan la Laguna	12	San Juan la Laguna	7	Julio	2023-07-30T00:00:00	2024-11-08T17:00:00	2	Temperatura media	23.1
68602	7	Sololá	717	San Juan la Laguna	12	San Juan la Laguna	7	Julio	2023-07-30T00:00:00	2024-11-08T17:00:00	4	Temperatura máxima	23.8
68603	7	Sololá	717	San Juan la Laguna	12	San Juan la Laguna	7	Julio	2023-07-30T00:00:00	2024-11-08T17:00:00	3	Temperatura mínima	22.8
68604	7	Sololá	717	San Juan la Laguna	12	San Juan la Laguna	7	Julio	2023-07-30T00:00:00	2024-11-08T17:00:00	5	Humedad	77
68605	7	Sololá	717	San Juan la Laguna	12	San Juan la Laguna	7	Julio	2023-07-30T00:00:00	2024-11-08T17:00:00	6	Velocidad del viento	1.6
68606	7	Sololá	717	San Juan la Laguna	12	San Juan la Laguna	7	Julio	2023-07-30T00:00:00	2024-11-08T17:00:00	7	Dirección del viento	1.61
68607	7	Sololá	717	San Juan la Laguna	12	San Juan la Laguna	7	Julio	2023-07-30T00:00:00	2024-11-08T17:00:00	1	Precipitación	0
68608	7	Sololá	717	San Juan la Laguna	12	San Juan la Laguna	7	Julio	2023-07-30T00:00:00	2024-11-08T17:00:00	8	Radiación solar	383
68609	7	Sololá	717	San Juan la Laguna	12	San Juan la Laguna	7	Julio	2023-07-30T00:00:00	2024-11-08T18:00:00	2	Temperatura media	22.5
68610	7	Sololá	717	San Juan la Laguna	12	San Juan la Laguna	7	Julio	2023-07-30T00:00:00	2024-11-08T18:00:00	4	Temperatura máxima	23.4
68611	7	Sololá	717	San Juan la Laguna	12	San Juan la Laguna	7	Julio	2023-07-30T00:00:00	2024-11-08T18:00:00	3	Temperatura mínima	22.4
68612	7	Sololá	717	San Juan la Laguna	12	San Juan la Laguna	7	Julio	2023-07-30T00:00:00	2024-11-08T18:00:00	5	Humedad	80
68613	7	Sololá	717	San Juan la Laguna	12	San Juan la Laguna	7	Julio	2023-07-30T00:00:00	2024-11-08T18:00:00	6	Velocidad del viento	0
68614	7	Sololá	717	San Juan la Laguna	12	San Juan la Laguna	7	Julio	2023-07-30T00:00:00	2024-11-08T18:00:00	7	Dirección del viento	0
68615	7	Sololá	717	San Juan la Laguna	12	San Juan la Laguna	7	Julio	2023-07-30T00:00:00	2024-11-08T18:00:00	1	Precipitación	0
68616	7	Sololá	717	San Juan la Laguna	12	San Juan la Laguna	7	Julio	2023-07-30T00:00:00	2024-11-08T18:00:00	8	Radiación solar	83
68617	7	Sololá	717	San Juan la Laguna	12	San Juan la Laguna	7	Julio	2023-07-30T00:00:00	2024-11-08T19:00:00	2	Temperatura media	20.7
68618	7	Sololá	717	San Juan la Laguna	12	San Juan la Laguna	7	Julio	2023-07-30T00:00:00	2024-11-08T19:00:00	4	Temperatura máxima	22.6
68619	7	Sololá	717	San Juan la Laguna	12	San Juan la Laguna	7	Julio	2023-07-30T00:00:00	2024-11-08T19:00:00	3	Temperatura mínima	20.7
68620	7	Sololá	717	San Juan la Laguna	12	San Juan la Laguna	7	Julio	2023-07-30T00:00:00	2024-11-08T19:00:00	5	Humedad	86
68621	7	Sololá	717	San Juan la Laguna	12	San Juan la Laguna	7	Julio	2023-07-30T00:00:00	2024-11-08T19:00:00	6	Velocidad del viento	0
68622	7	Sololá	717	San Juan la Laguna	12	San Juan la Laguna	7	Julio	2023-07-30T00:00:00	2024-11-08T19:00:00	7	Dirección del viento	0
68623	7	Sololá	717	San Juan la Laguna	12	San Juan la Laguna	7	Julio	2023-07-30T00:00:00	2024-11-08T19:00:00	1	Precipitación	0
68624	7	Sololá	717	San Juan la Laguna	12	San Juan la Laguna	7	Julio	2023-07-30T00:00:00	2024-11-08T19:00:00	8	Radiación solar	0
68625	7	Sololá	717	San Juan la Laguna	12	San Juan la Laguna	7	Julio	2023-07-30T00:00:00	2024-11-08T20:00:00	2	Temperatura media	20.8
68626	7	Sololá	717	San Juan la Laguna	12	San Juan la Laguna	7	Julio	2023-07-30T00:00:00	2024-11-08T20:00:00	4	Temperatura máxima	20.8
68627	7	Sololá	717	San Juan la Laguna	12	San Juan la Laguna	7	Julio	2023-07-30T00:00:00	2024-11-08T20:00:00	3	Temperatura mínima	20.4
68628	7	Sololá	717	San Juan la Laguna	12	San Juan la Laguna	7	Julio	2023-07-30T00:00:00	2024-11-08T20:00:00	5	Humedad	87
68629	7	Sololá	717	San Juan la Laguna	12	San Juan la Laguna	7	Julio	2023-07-30T00:00:00	2024-11-08T20:00:00	6	Velocidad del viento	0
68630	7	Sololá	717	San Juan la Laguna	12	San Juan la Laguna	7	Julio	2023-07-30T00:00:00	2024-11-08T20:00:00	7	Dirección del viento	0
68631	7	Sololá	717	San Juan la Laguna	12	San Juan la Laguna	7	Julio	2023-07-30T00:00:00	2024-11-08T20:00:00	1	Precipitación	0
68632	7	Sololá	717	San Juan la Laguna	12	San Juan la Laguna	7	Julio	2023-07-30T00:00:00	2024-11-08T20:00:00	8	Radiación solar	0
68633	7	Sololá	717	San Juan la Laguna	12	San Juan la Laguna	7	Julio	2023-07-30T00:00:00	2024-11-08T21:00:00	2	Temperatura media	20.4
68634	7	Sololá	717	San Juan la Laguna	12	San Juan la Laguna	7	Julio	2023-07-30T00:00:00	2024-11-08T21:00:00	4	Temperatura máxima	20.9
68635	7	Sololá	717	San Juan la Laguna	12	San Juan la Laguna	7	Julio	2023-07-30T00:00:00	2024-11-08T21:00:00	3	Temperatura mínima	20.4
68636	7	Sololá	717	San Juan la Laguna	12	San Juan la Laguna	7	Julio	2023-07-30T00:00:00	2024-11-08T21:00:00	5	Humedad	88
68637	7	Sololá	717	San Juan la Laguna	12	San Juan la Laguna	7	Julio	2023-07-30T00:00:00	2024-11-08T21:00:00	6	Velocidad del viento	0
68638	7	Sololá	717	San Juan la Laguna	12	San Juan la Laguna	7	Julio	2023-07-30T00:00:00	2024-11-08T21:00:00	7	Dirección del viento	0
68639	7	Sololá	717	San Juan la Laguna	12	San Juan la Laguna	7	Julio	2023-07-30T00:00:00	2024-11-08T21:00:00	1	Precipitación	0
68640	7	Sololá	717	San Juan la Laguna	12	San Juan la Laguna	7	Julio	2023-07-30T00:00:00	2024-11-08T21:00:00	8	Radiación solar	0
68641	7	Sololá	717	San Juan la Laguna	12	San Juan la Laguna	7	Julio	2023-07-30T00:00:00	2024-11-08T22:00:00	2	Temperatura media	19.7
68642	7	Sololá	717	San Juan la Laguna	12	San Juan la Laguna	7	Julio	2023-07-30T00:00:00	2024-11-08T22:00:00	4	Temperatura máxima	20.3
68643	7	Sololá	717	San Juan la Laguna	12	San Juan la Laguna	7	Julio	2023-07-30T00:00:00	2024-11-08T22:00:00	3	Temperatura mínima	19.7
68644	7	Sololá	717	San Juan la Laguna	12	San Juan la Laguna	7	Julio	2023-07-30T00:00:00	2024-11-08T22:00:00	5	Humedad	90
68645	7	Sololá	717	San Juan la Laguna	12	San Juan la Laguna	7	Julio	2023-07-30T00:00:00	2024-11-08T22:00:00	6	Velocidad del viento	0
68646	7	Sololá	717	San Juan la Laguna	12	San Juan la Laguna	7	Julio	2023-07-30T00:00:00	2024-11-08T22:00:00	7	Dirección del viento	0
68647	7	Sololá	717	San Juan la Laguna	12	San Juan la Laguna	7	Julio	2023-07-30T00:00:00	2024-11-08T22:00:00	1	Precipitación	0
68648	7	Sololá	717	San Juan la Laguna	12	San Juan la Laguna	7	Julio	2023-07-30T00:00:00	2024-11-08T22:00:00	8	Radiación solar	0
68649	7	Sololá	717	San Juan la Laguna	12	San Juan la Laguna	7	Julio	2023-07-30T00:00:00	2024-11-08T23:00:00	2	Temperatura media	19.1
68650	7	Sololá	717	San Juan la Laguna	12	San Juan la Laguna	7	Julio	2023-07-30T00:00:00	2024-11-08T23:00:00	4	Temperatura máxima	20.1
68651	7	Sololá	717	San Juan la Laguna	12	San Juan la Laguna	7	Julio	2023-07-30T00:00:00	2024-11-08T23:00:00	3	Temperatura mínima	19.1
68652	7	Sololá	717	San Juan la Laguna	12	San Juan la Laguna	7	Julio	2023-07-30T00:00:00	2024-11-08T23:00:00	5	Humedad	88
68653	7	Sololá	717	San Juan la Laguna	12	San Juan la Laguna	7	Julio	2023-07-30T00:00:00	2024-11-08T23:00:00	6	Velocidad del viento	0
68654	7	Sololá	717	San Juan la Laguna	12	San Juan la Laguna	7	Julio	2023-07-30T00:00:00	2024-11-08T23:00:00	7	Dirección del viento	0
68655	7	Sololá	717	San Juan la Laguna	12	San Juan la Laguna	7	Julio	2023-07-30T00:00:00	2024-11-08T23:00:00	1	Precipitación	0.2
68656	7	Sololá	717	San Juan la Laguna	12	San Juan la Laguna	7	Julio	2023-07-30T00:00:00	2024-11-08T23:00:00	8	Radiación solar	0
68657	7	Sololá	717	San Juan la Laguna	12	San Juan la Laguna	7	Julio	2023-07-31T00:00:00	2024-11-08T00:00:00	2	Temperatura media	18
68658	7	Sololá	717	San Juan la Laguna	12	San Juan la Laguna	7	Julio	2023-07-31T00:00:00	2024-11-08T00:00:00	4	Temperatura máxima	19.1
68659	7	Sololá	717	San Juan la Laguna	12	San Juan la Laguna	7	Julio	2023-07-31T00:00:00	2024-11-08T00:00:00	3	Temperatura mínima	18
68660	7	Sololá	717	San Juan la Laguna	12	San Juan la Laguna	7	Julio	2023-07-31T00:00:00	2024-11-08T00:00:00	5	Humedad	91
68661	7	Sololá	717	San Juan la Laguna	12	San Juan la Laguna	7	Julio	2023-07-31T00:00:00	2024-11-08T00:00:00	6	Velocidad del viento	0
68662	7	Sololá	717	San Juan la Laguna	12	San Juan la Laguna	7	Julio	2023-07-31T00:00:00	2024-11-08T00:00:00	7	Dirección del viento	0
68663	7	Sololá	717	San Juan la Laguna	12	San Juan la Laguna	7	Julio	2023-07-31T00:00:00	2024-11-08T00:00:00	1	Precipitación	0.2
68664	7	Sololá	717	San Juan la Laguna	12	San Juan la Laguna	7	Julio	2023-07-31T00:00:00	2024-11-08T00:00:00	8	Radiación solar	0
68665	7	Sololá	717	San Juan la Laguna	12	San Juan la Laguna	7	Julio	2023-07-31T00:00:00	2024-11-08T01:00:00	2	Temperatura media	17.5
68666	7	Sololá	717	San Juan la Laguna	12	San Juan la Laguna	7	Julio	2023-07-31T00:00:00	2024-11-08T01:00:00	4	Temperatura máxima	18
68667	7	Sololá	717	San Juan la Laguna	12	San Juan la Laguna	7	Julio	2023-07-31T00:00:00	2024-11-08T01:00:00	3	Temperatura mínima	17.4
68668	7	Sololá	717	San Juan la Laguna	12	San Juan la Laguna	7	Julio	2023-07-31T00:00:00	2024-11-08T01:00:00	5	Humedad	91
68669	7	Sololá	717	San Juan la Laguna	12	San Juan la Laguna	7	Julio	2023-07-31T00:00:00	2024-11-08T01:00:00	6	Velocidad del viento	0
68670	7	Sololá	717	San Juan la Laguna	12	San Juan la Laguna	7	Julio	2023-07-31T00:00:00	2024-11-08T01:00:00	7	Dirección del viento	0
68671	7	Sololá	717	San Juan la Laguna	12	San Juan la Laguna	7	Julio	2023-07-31T00:00:00	2024-11-08T01:00:00	1	Precipitación	0
68672	7	Sololá	717	San Juan la Laguna	12	San Juan la Laguna	7	Julio	2023-07-31T00:00:00	2024-11-08T01:00:00	8	Radiación solar	0
68673	7	Sololá	717	San Juan la Laguna	12	San Juan la Laguna	7	Julio	2023-07-31T00:00:00	2024-11-08T02:00:00	2	Temperatura media	18.2
68674	7	Sololá	717	San Juan la Laguna	12	San Juan la Laguna	7	Julio	2023-07-31T00:00:00	2024-11-08T02:00:00	4	Temperatura máxima	18.7
68675	7	Sololá	717	San Juan la Laguna	12	San Juan la Laguna	7	Julio	2023-07-31T00:00:00	2024-11-08T02:00:00	3	Temperatura mínima	17.4
68676	7	Sololá	717	San Juan la Laguna	12	San Juan la Laguna	7	Julio	2023-07-31T00:00:00	2024-11-08T02:00:00	5	Humedad	87
68677	7	Sololá	717	San Juan la Laguna	12	San Juan la Laguna	7	Julio	2023-07-31T00:00:00	2024-11-08T02:00:00	6	Velocidad del viento	4.8
68678	7	Sololá	717	San Juan la Laguna	12	San Juan la Laguna	7	Julio	2023-07-31T00:00:00	2024-11-08T02:00:00	7	Dirección del viento	4.83
68679	7	Sololá	717	San Juan la Laguna	12	San Juan la Laguna	7	Julio	2023-07-31T00:00:00	2024-11-08T02:00:00	1	Precipitación	1.2
68680	7	Sololá	717	San Juan la Laguna	12	San Juan la Laguna	7	Julio	2023-07-31T00:00:00	2024-11-08T02:00:00	8	Radiación solar	0
68681	7	Sololá	717	San Juan la Laguna	12	San Juan la Laguna	7	Julio	2023-07-31T00:00:00	2024-11-08T03:00:00	2	Temperatura media	17.1
68682	7	Sololá	717	San Juan la Laguna	12	San Juan la Laguna	7	Julio	2023-07-31T00:00:00	2024-11-08T03:00:00	4	Temperatura máxima	18.2
68683	7	Sololá	717	San Juan la Laguna	12	San Juan la Laguna	7	Julio	2023-07-31T00:00:00	2024-11-08T03:00:00	3	Temperatura mínima	17.1
68684	7	Sololá	717	San Juan la Laguna	12	San Juan la Laguna	7	Julio	2023-07-31T00:00:00	2024-11-08T03:00:00	5	Humedad	90
68685	7	Sololá	717	San Juan la Laguna	12	San Juan la Laguna	7	Julio	2023-07-31T00:00:00	2024-11-08T03:00:00	6	Velocidad del viento	3.2
68686	7	Sololá	717	San Juan la Laguna	12	San Juan la Laguna	7	Julio	2023-07-31T00:00:00	2024-11-08T03:00:00	7	Dirección del viento	3.22
68687	7	Sololá	717	San Juan la Laguna	12	San Juan la Laguna	7	Julio	2023-07-31T00:00:00	2024-11-08T03:00:00	1	Precipitación	1.4
68688	7	Sololá	717	San Juan la Laguna	12	San Juan la Laguna	7	Julio	2023-07-31T00:00:00	2024-11-08T03:00:00	8	Radiación solar	0
68689	7	Sololá	717	San Juan la Laguna	12	San Juan la Laguna	7	Julio	2023-07-31T00:00:00	2024-11-08T04:00:00	2	Temperatura media	16.3
68690	7	Sololá	717	San Juan la Laguna	12	San Juan la Laguna	7	Julio	2023-07-31T00:00:00	2024-11-08T04:00:00	4	Temperatura máxima	17.1
68691	7	Sololá	717	San Juan la Laguna	12	San Juan la Laguna	7	Julio	2023-07-31T00:00:00	2024-11-08T04:00:00	3	Temperatura mínima	16.3
68692	7	Sololá	717	San Juan la Laguna	12	San Juan la Laguna	7	Julio	2023-07-31T00:00:00	2024-11-08T04:00:00	5	Humedad	91
68693	7	Sololá	717	San Juan la Laguna	12	San Juan la Laguna	7	Julio	2023-07-31T00:00:00	2024-11-08T04:00:00	6	Velocidad del viento	1.6
68694	7	Sololá	717	San Juan la Laguna	12	San Juan la Laguna	7	Julio	2023-07-31T00:00:00	2024-11-08T04:00:00	7	Dirección del viento	1.61
68695	7	Sololá	717	San Juan la Laguna	12	San Juan la Laguna	7	Julio	2023-07-31T00:00:00	2024-11-08T04:00:00	1	Precipitación	0
68696	7	Sololá	717	San Juan la Laguna	12	San Juan la Laguna	7	Julio	2023-07-31T00:00:00	2024-11-08T04:00:00	8	Radiación solar	0
68697	7	Sololá	717	San Juan la Laguna	12	San Juan la Laguna	7	Julio	2023-07-31T00:00:00	2024-11-08T05:00:00	2	Temperatura media	16.5
68698	7	Sololá	717	San Juan la Laguna	12	San Juan la Laguna	7	Julio	2023-07-31T00:00:00	2024-11-08T05:00:00	4	Temperatura máxima	16.8
68699	7	Sololá	717	San Juan la Laguna	12	San Juan la Laguna	7	Julio	2023-07-31T00:00:00	2024-11-08T05:00:00	3	Temperatura mínima	16.2
68700	7	Sololá	717	San Juan la Laguna	12	San Juan la Laguna	7	Julio	2023-07-31T00:00:00	2024-11-08T05:00:00	5	Humedad	87
68701	7	Sololá	717	San Juan la Laguna	12	San Juan la Laguna	7	Julio	2023-07-31T00:00:00	2024-11-08T05:00:00	6	Velocidad del viento	4.8
68702	7	Sololá	717	San Juan la Laguna	12	San Juan la Laguna	7	Julio	2023-07-31T00:00:00	2024-11-08T05:00:00	7	Dirección del viento	4.83
68703	7	Sololá	717	San Juan la Laguna	12	San Juan la Laguna	7	Julio	2023-07-31T00:00:00	2024-11-08T05:00:00	1	Precipitación	0
68704	7	Sololá	717	San Juan la Laguna	12	San Juan la Laguna	7	Julio	2023-07-31T00:00:00	2024-11-08T05:00:00	8	Radiación solar	0
68705	7	Sololá	717	San Juan la Laguna	12	San Juan la Laguna	7	Julio	2023-07-31T00:00:00	2024-11-08T06:00:00	2	Temperatura media	16.4
68706	7	Sololá	717	San Juan la Laguna	12	San Juan la Laguna	7	Julio	2023-07-31T00:00:00	2024-11-08T06:00:00	4	Temperatura máxima	17.1
68707	7	Sololá	717	San Juan la Laguna	12	San Juan la Laguna	7	Julio	2023-07-31T00:00:00	2024-11-08T06:00:00	3	Temperatura mínima	16.2
68708	7	Sololá	717	San Juan la Laguna	12	San Juan la Laguna	7	Julio	2023-07-31T00:00:00	2024-11-08T06:00:00	5	Humedad	86
68709	7	Sololá	717	San Juan la Laguna	12	San Juan la Laguna	7	Julio	2023-07-31T00:00:00	2024-11-08T06:00:00	6	Velocidad del viento	4.8
68710	7	Sololá	717	San Juan la Laguna	12	San Juan la Laguna	7	Julio	2023-07-31T00:00:00	2024-11-08T06:00:00	7	Dirección del viento	4.83
68711	7	Sololá	717	San Juan la Laguna	12	San Juan la Laguna	7	Julio	2023-07-31T00:00:00	2024-11-08T06:00:00	1	Precipitación	0
68712	7	Sololá	717	San Juan la Laguna	12	San Juan la Laguna	7	Julio	2023-07-31T00:00:00	2024-11-08T06:00:00	8	Radiación solar	1
68713	7	Sololá	717	San Juan la Laguna	12	San Juan la Laguna	7	Julio	2023-07-31T00:00:00	2024-11-08T07:00:00	2	Temperatura media	17.6
68714	7	Sololá	717	San Juan la Laguna	12	San Juan la Laguna	7	Julio	2023-07-31T00:00:00	2024-11-08T07:00:00	4	Temperatura máxima	17.6
68715	7	Sololá	717	San Juan la Laguna	12	San Juan la Laguna	7	Julio	2023-07-31T00:00:00	2024-11-08T07:00:00	3	Temperatura mínima	16.2
68716	7	Sololá	717	San Juan la Laguna	12	San Juan la Laguna	7	Julio	2023-07-31T00:00:00	2024-11-08T07:00:00	5	Humedad	86
68717	7	Sololá	717	San Juan la Laguna	12	San Juan la Laguna	7	Julio	2023-07-31T00:00:00	2024-11-08T07:00:00	6	Velocidad del viento	4.8
68718	7	Sololá	717	San Juan la Laguna	12	San Juan la Laguna	7	Julio	2023-07-31T00:00:00	2024-11-08T07:00:00	7	Dirección del viento	4.83
68719	7	Sololá	717	San Juan la Laguna	12	San Juan la Laguna	7	Julio	2023-07-31T00:00:00	2024-11-08T07:00:00	1	Precipitación	0
68720	7	Sololá	717	San Juan la Laguna	12	San Juan la Laguna	7	Julio	2023-07-31T00:00:00	2024-11-08T07:00:00	8	Radiación solar	74
68721	7	Sololá	717	San Juan la Laguna	12	San Juan la Laguna	7	Julio	2023-07-31T00:00:00	2024-11-08T08:00:00	2	Temperatura media	20
68722	7	Sololá	717	San Juan la Laguna	12	San Juan la Laguna	7	Julio	2023-07-31T00:00:00	2024-11-08T08:00:00	4	Temperatura máxima	20
68723	7	Sololá	717	San Juan la Laguna	12	San Juan la Laguna	7	Julio	2023-07-31T00:00:00	2024-11-08T08:00:00	3	Temperatura mínima	17.6
68724	7	Sololá	717	San Juan la Laguna	12	San Juan la Laguna	7	Julio	2023-07-31T00:00:00	2024-11-08T08:00:00	5	Humedad	77
68725	7	Sololá	717	San Juan la Laguna	12	San Juan la Laguna	7	Julio	2023-07-31T00:00:00	2024-11-08T08:00:00	6	Velocidad del viento	1.6
68726	7	Sololá	717	San Juan la Laguna	12	San Juan la Laguna	7	Julio	2023-07-31T00:00:00	2024-11-08T08:00:00	7	Dirección del viento	1.61
68727	7	Sololá	717	San Juan la Laguna	12	San Juan la Laguna	7	Julio	2023-07-31T00:00:00	2024-11-08T08:00:00	1	Precipitación	0
68728	7	Sololá	717	San Juan la Laguna	12	San Juan la Laguna	7	Julio	2023-07-31T00:00:00	2024-11-08T08:00:00	8	Radiación solar	212
68729	7	Sololá	717	San Juan la Laguna	12	San Juan la Laguna	7	Julio	2023-07-31T00:00:00	2024-11-08T09:00:00	2	Temperatura media	21.9
68730	7	Sololá	717	San Juan la Laguna	12	San Juan la Laguna	7	Julio	2023-07-31T00:00:00	2024-11-08T09:00:00	4	Temperatura máxima	22.2
68731	7	Sololá	717	San Juan la Laguna	12	San Juan la Laguna	7	Julio	2023-07-31T00:00:00	2024-11-08T09:00:00	3	Temperatura mínima	20
68732	7	Sololá	717	San Juan la Laguna	12	San Juan la Laguna	7	Julio	2023-07-31T00:00:00	2024-11-08T09:00:00	5	Humedad	73
68733	7	Sololá	717	San Juan la Laguna	12	San Juan la Laguna	7	Julio	2023-07-31T00:00:00	2024-11-08T09:00:00	6	Velocidad del viento	0
68734	7	Sololá	717	San Juan la Laguna	12	San Juan la Laguna	7	Julio	2023-07-31T00:00:00	2024-11-08T09:00:00	7	Dirección del viento	0
68735	7	Sololá	717	San Juan la Laguna	12	San Juan la Laguna	7	Julio	2023-07-31T00:00:00	2024-11-08T09:00:00	1	Precipitación	0
68736	7	Sololá	717	San Juan la Laguna	12	San Juan la Laguna	7	Julio	2023-07-31T00:00:00	2024-11-08T09:00:00	8	Radiación solar	517
68737	7	Sololá	717	San Juan la Laguna	12	San Juan la Laguna	7	Julio	2023-07-31T00:00:00	2024-11-08T10:00:00	2	Temperatura media	24.4
68738	7	Sololá	717	San Juan la Laguna	12	San Juan la Laguna	7	Julio	2023-07-31T00:00:00	2024-11-08T10:00:00	4	Temperatura máxima	24.4
68739	7	Sololá	717	San Juan la Laguna	12	San Juan la Laguna	7	Julio	2023-07-31T00:00:00	2024-11-08T10:00:00	3	Temperatura mínima	21.9
68740	7	Sololá	717	San Juan la Laguna	12	San Juan la Laguna	7	Julio	2023-07-31T00:00:00	2024-11-08T10:00:00	5	Humedad	60
68741	7	Sololá	717	San Juan la Laguna	12	San Juan la Laguna	7	Julio	2023-07-31T00:00:00	2024-11-08T10:00:00	6	Velocidad del viento	0
68742	7	Sololá	717	San Juan la Laguna	12	San Juan la Laguna	7	Julio	2023-07-31T00:00:00	2024-11-08T10:00:00	7	Dirección del viento	0
68743	7	Sololá	717	San Juan la Laguna	12	San Juan la Laguna	7	Julio	2023-07-31T00:00:00	2024-11-08T10:00:00	1	Precipitación	0
68744	7	Sololá	717	San Juan la Laguna	12	San Juan la Laguna	7	Julio	2023-07-31T00:00:00	2024-11-08T10:00:00	8	Radiación solar	625
68745	7	Sololá	717	San Juan la Laguna	12	San Juan la Laguna	7	Julio	2023-07-31T00:00:00	2024-11-08T11:00:00	2	Temperatura media	24.4
68746	7	Sololá	717	San Juan la Laguna	12	San Juan la Laguna	7	Julio	2023-07-31T00:00:00	2024-11-08T11:00:00	4	Temperatura máxima	25.1
68747	7	Sololá	717	San Juan la Laguna	12	San Juan la Laguna	7	Julio	2023-07-31T00:00:00	2024-11-08T11:00:00	3	Temperatura mínima	23.6
68748	7	Sololá	717	San Juan la Laguna	12	San Juan la Laguna	7	Julio	2023-07-31T00:00:00	2024-11-08T11:00:00	5	Humedad	57
68749	7	Sololá	717	San Juan la Laguna	12	San Juan la Laguna	7	Julio	2023-07-31T00:00:00	2024-11-08T11:00:00	6	Velocidad del viento	0
68750	7	Sololá	717	San Juan la Laguna	12	San Juan la Laguna	7	Julio	2023-07-31T00:00:00	2024-11-08T11:00:00	7	Dirección del viento	0
68751	7	Sololá	717	San Juan la Laguna	12	San Juan la Laguna	7	Julio	2023-07-31T00:00:00	2024-11-08T11:00:00	1	Precipitación	0
68752	7	Sololá	717	San Juan la Laguna	12	San Juan la Laguna	7	Julio	2023-07-31T00:00:00	2024-11-08T11:00:00	8	Radiación solar	600
68753	7	Sololá	717	San Juan la Laguna	12	San Juan la Laguna	7	Julio	2023-07-31T00:00:00	2024-11-08T12:00:00	2	Temperatura media	25.1
68754	7	Sololá	717	San Juan la Laguna	12	San Juan la Laguna	7	Julio	2023-07-31T00:00:00	2024-11-08T12:00:00	4	Temperatura máxima	25.7
68755	7	Sololá	717	San Juan la Laguna	12	San Juan la Laguna	7	Julio	2023-07-31T00:00:00	2024-11-08T12:00:00	3	Temperatura mínima	24.4
68756	7	Sololá	717	San Juan la Laguna	12	San Juan la Laguna	7	Julio	2023-07-31T00:00:00	2024-11-08T12:00:00	5	Humedad	59
68757	7	Sololá	717	San Juan la Laguna	12	San Juan la Laguna	7	Julio	2023-07-31T00:00:00	2024-11-08T12:00:00	6	Velocidad del viento	0
68758	7	Sololá	717	San Juan la Laguna	12	San Juan la Laguna	7	Julio	2023-07-31T00:00:00	2024-11-08T12:00:00	7	Dirección del viento	0
68759	7	Sololá	717	San Juan la Laguna	12	San Juan la Laguna	7	Julio	2023-07-31T00:00:00	2024-11-08T12:00:00	1	Precipitación	0
68760	7	Sololá	717	San Juan la Laguna	12	San Juan la Laguna	7	Julio	2023-07-31T00:00:00	2024-11-08T12:00:00	8	Radiación solar	635
68761	7	Sololá	717	San Juan la Laguna	12	San Juan la Laguna	7	Julio	2023-07-31T00:00:00	2024-11-08T13:00:00	2	Temperatura media	25.4
68762	7	Sololá	717	San Juan la Laguna	12	San Juan la Laguna	7	Julio	2023-07-31T00:00:00	2024-11-08T13:00:00	4	Temperatura máxima	25.7
68763	7	Sololá	717	San Juan la Laguna	12	San Juan la Laguna	7	Julio	2023-07-31T00:00:00	2024-11-08T13:00:00	3	Temperatura mínima	25.1
68764	7	Sololá	717	San Juan la Laguna	12	San Juan la Laguna	7	Julio	2023-07-31T00:00:00	2024-11-08T13:00:00	5	Humedad	53
68765	7	Sololá	717	San Juan la Laguna	12	San Juan la Laguna	7	Julio	2023-07-31T00:00:00	2024-11-08T13:00:00	6	Velocidad del viento	0
68766	7	Sololá	717	San Juan la Laguna	12	San Juan la Laguna	7	Julio	2023-07-31T00:00:00	2024-11-08T13:00:00	7	Dirección del viento	0
68767	7	Sololá	717	San Juan la Laguna	12	San Juan la Laguna	7	Julio	2023-07-31T00:00:00	2024-11-08T13:00:00	1	Precipitación	0
68768	7	Sololá	717	San Juan la Laguna	12	San Juan la Laguna	7	Julio	2023-07-31T00:00:00	2024-11-08T13:00:00	8	Radiación solar	638
68769	7	Sololá	717	San Juan la Laguna	12	San Juan la Laguna	7	Julio	2023-07-31T00:00:00	2024-11-08T14:00:00	2	Temperatura media	26
68770	7	Sololá	717	San Juan la Laguna	12	San Juan la Laguna	7	Julio	2023-07-31T00:00:00	2024-11-08T14:00:00	4	Temperatura máxima	32.1
68771	7	Sololá	717	San Juan la Laguna	12	San Juan la Laguna	7	Julio	2023-07-31T00:00:00	2024-11-08T14:00:00	3	Temperatura mínima	25.4
68772	7	Sololá	717	San Juan la Laguna	12	San Juan la Laguna	7	Julio	2023-07-31T00:00:00	2024-11-08T14:00:00	5	Humedad	63
68773	7	Sololá	717	San Juan la Laguna	12	San Juan la Laguna	7	Julio	2023-07-31T00:00:00	2024-11-08T14:00:00	6	Velocidad del viento	3.2
68774	7	Sololá	717	San Juan la Laguna	12	San Juan la Laguna	7	Julio	2023-07-31T00:00:00	2024-11-08T14:00:00	7	Dirección del viento	3.22
68775	7	Sololá	717	San Juan la Laguna	12	San Juan la Laguna	7	Julio	2023-07-31T00:00:00	2024-11-08T14:00:00	1	Precipitación	0
68776	7	Sololá	717	San Juan la Laguna	12	San Juan la Laguna	7	Julio	2023-07-31T00:00:00	2024-11-08T14:00:00	8	Radiación solar	852
68777	7	Sololá	717	San Juan la Laguna	12	San Juan la Laguna	7	Julio	2023-07-31T00:00:00	2024-11-08T15:00:00	2	Temperatura media	24.2
68778	7	Sololá	717	San Juan la Laguna	12	San Juan la Laguna	7	Julio	2023-07-31T00:00:00	2024-11-08T15:00:00	4	Temperatura máxima	26.3
68779	7	Sololá	717	San Juan la Laguna	12	San Juan la Laguna	7	Julio	2023-07-31T00:00:00	2024-11-08T15:00:00	3	Temperatura mínima	24.2
68780	7	Sololá	717	San Juan la Laguna	12	San Juan la Laguna	7	Julio	2023-07-31T00:00:00	2024-11-08T15:00:00	5	Humedad	73
68781	7	Sololá	717	San Juan la Laguna	12	San Juan la Laguna	7	Julio	2023-07-31T00:00:00	2024-11-08T15:00:00	6	Velocidad del viento	11.3
68782	7	Sololá	717	San Juan la Laguna	12	San Juan la Laguna	7	Julio	2023-07-31T00:00:00	2024-11-08T15:00:00	7	Dirección del viento	11.27
68783	7	Sololá	717	San Juan la Laguna	12	San Juan la Laguna	7	Julio	2023-07-31T00:00:00	2024-11-08T15:00:00	1	Precipitación	0
68784	7	Sololá	717	San Juan la Laguna	12	San Juan la Laguna	7	Julio	2023-07-31T00:00:00	2024-11-08T15:00:00	8	Radiación solar	813
68785	7	Sololá	717	San Juan la Laguna	12	San Juan la Laguna	7	Julio	2023-07-31T00:00:00	2024-11-08T16:00:00	2	Temperatura media	22.8
68786	7	Sololá	717	San Juan la Laguna	12	San Juan la Laguna	7	Julio	2023-07-31T00:00:00	2024-11-08T16:00:00	4	Temperatura máxima	24.6
68787	7	Sololá	717	San Juan la Laguna	12	San Juan la Laguna	7	Julio	2023-07-31T00:00:00	2024-11-08T16:00:00	3	Temperatura mínima	22.8
68788	7	Sololá	717	San Juan la Laguna	12	San Juan la Laguna	7	Julio	2023-07-31T00:00:00	2024-11-08T16:00:00	5	Humedad	76
68789	7	Sololá	717	San Juan la Laguna	12	San Juan la Laguna	7	Julio	2023-07-31T00:00:00	2024-11-08T16:00:00	6	Velocidad del viento	11.3
68790	7	Sololá	717	San Juan la Laguna	12	San Juan la Laguna	7	Julio	2023-07-31T00:00:00	2024-11-08T16:00:00	7	Dirección del viento	11.27
68791	7	Sololá	717	San Juan la Laguna	12	San Juan la Laguna	7	Julio	2023-07-31T00:00:00	2024-11-08T16:00:00	1	Precipitación	0
68792	7	Sololá	717	San Juan la Laguna	12	San Juan la Laguna	7	Julio	2023-07-31T00:00:00	2024-11-08T16:00:00	8	Radiación solar	603
68793	7	Sololá	717	San Juan la Laguna	12	San Juan la Laguna	7	Julio	2023-07-31T00:00:00	2024-11-08T17:00:00	2	Temperatura media	20.1
68794	7	Sololá	717	San Juan la Laguna	12	San Juan la Laguna	7	Julio	2023-07-31T00:00:00	2024-11-08T17:00:00	4	Temperatura máxima	22.7
68795	7	Sololá	717	San Juan la Laguna	12	San Juan la Laguna	7	Julio	2023-07-31T00:00:00	2024-11-08T17:00:00	3	Temperatura mínima	20.1
68796	7	Sololá	717	San Juan la Laguna	12	San Juan la Laguna	7	Julio	2023-07-31T00:00:00	2024-11-08T17:00:00	5	Humedad	88
68797	7	Sololá	717	San Juan la Laguna	12	San Juan la Laguna	7	Julio	2023-07-31T00:00:00	2024-11-08T17:00:00	6	Velocidad del viento	11.3
68798	7	Sololá	717	San Juan la Laguna	12	San Juan la Laguna	7	Julio	2023-07-31T00:00:00	2024-11-08T17:00:00	7	Dirección del viento	11.27
68799	7	Sololá	717	San Juan la Laguna	12	San Juan la Laguna	7	Julio	2023-07-31T00:00:00	2024-11-08T17:00:00	1	Precipitación	0
68800	7	Sololá	717	San Juan la Laguna	12	San Juan la Laguna	7	Julio	2023-07-31T00:00:00	2024-11-08T17:00:00	8	Radiación solar	214
68801	7	Sololá	717	San Juan la Laguna	12	San Juan la Laguna	7	Julio	2023-07-31T00:00:00	2024-11-08T18:00:00	2	Temperatura media	20.4
68802	7	Sololá	717	San Juan la Laguna	12	San Juan la Laguna	7	Julio	2023-07-31T00:00:00	2024-11-08T18:00:00	4	Temperatura máxima	20.4
68803	7	Sololá	717	San Juan la Laguna	12	San Juan la Laguna	7	Julio	2023-07-31T00:00:00	2024-11-08T18:00:00	3	Temperatura mínima	19.7
68804	7	Sololá	717	San Juan la Laguna	12	San Juan la Laguna	7	Julio	2023-07-31T00:00:00	2024-11-08T18:00:00	5	Humedad	87
68805	7	Sololá	717	San Juan la Laguna	12	San Juan la Laguna	7	Julio	2023-07-31T00:00:00	2024-11-08T18:00:00	6	Velocidad del viento	8
68806	7	Sololá	717	San Juan la Laguna	12	San Juan la Laguna	7	Julio	2023-07-31T00:00:00	2024-11-08T18:00:00	7	Dirección del viento	8.05
68807	7	Sololá	717	San Juan la Laguna	12	San Juan la Laguna	7	Julio	2023-07-31T00:00:00	2024-11-08T18:00:00	1	Precipitación	0
68808	7	Sololá	717	San Juan la Laguna	12	San Juan la Laguna	7	Julio	2023-07-31T00:00:00	2024-11-08T18:00:00	8	Radiación solar	54
68809	7	Sololá	717	San Juan la Laguna	12	San Juan la Laguna	7	Julio	2023-07-31T00:00:00	2024-11-08T19:00:00	2	Temperatura media	20.3
68810	7	Sololá	717	San Juan la Laguna	12	San Juan la Laguna	7	Julio	2023-07-31T00:00:00	2024-11-08T19:00:00	4	Temperatura máxima	20.6
68811	7	Sololá	717	San Juan la Laguna	12	San Juan la Laguna	7	Julio	2023-07-31T00:00:00	2024-11-08T19:00:00	3	Temperatura mínima	20.3
68812	7	Sololá	717	San Juan la Laguna	12	San Juan la Laguna	7	Julio	2023-07-31T00:00:00	2024-11-08T19:00:00	5	Humedad	88
68813	7	Sololá	717	San Juan la Laguna	12	San Juan la Laguna	7	Julio	2023-07-31T00:00:00	2024-11-08T19:00:00	6	Velocidad del viento	4.8
68814	7	Sololá	717	San Juan la Laguna	12	San Juan la Laguna	7	Julio	2023-07-31T00:00:00	2024-11-08T19:00:00	7	Dirección del viento	4.83
68815	7	Sololá	717	San Juan la Laguna	12	San Juan la Laguna	7	Julio	2023-07-31T00:00:00	2024-11-08T19:00:00	1	Precipitación	0
68816	7	Sololá	717	San Juan la Laguna	12	San Juan la Laguna	7	Julio	2023-07-31T00:00:00	2024-11-08T19:00:00	8	Radiación solar	0
68817	7	Sololá	717	San Juan la Laguna	12	San Juan la Laguna	7	Julio	2023-07-31T00:00:00	2024-11-08T20:00:00	2	Temperatura media	19.8
68818	7	Sololá	717	San Juan la Laguna	12	San Juan la Laguna	7	Julio	2023-07-31T00:00:00	2024-11-08T20:00:00	4	Temperatura máxima	20.3
68819	7	Sololá	717	San Juan la Laguna	12	San Juan la Laguna	7	Julio	2023-07-31T00:00:00	2024-11-08T20:00:00	3	Temperatura mínima	19.8
68820	7	Sololá	717	San Juan la Laguna	12	San Juan la Laguna	7	Julio	2023-07-31T00:00:00	2024-11-08T20:00:00	5	Humedad	91
68821	7	Sololá	717	San Juan la Laguna	12	San Juan la Laguna	7	Julio	2023-07-31T00:00:00	2024-11-08T20:00:00	6	Velocidad del viento	0
68822	7	Sololá	717	San Juan la Laguna	12	San Juan la Laguna	7	Julio	2023-07-31T00:00:00	2024-11-08T20:00:00	7	Dirección del viento	0
68823	7	Sololá	717	San Juan la Laguna	12	San Juan la Laguna	7	Julio	2023-07-31T00:00:00	2024-11-08T20:00:00	1	Precipitación	0
68824	7	Sololá	717	San Juan la Laguna	12	San Juan la Laguna	7	Julio	2023-07-31T00:00:00	2024-11-08T20:00:00	8	Radiación solar	0
68825	7	Sololá	717	San Juan la Laguna	12	San Juan la Laguna	7	Julio	2023-07-31T00:00:00	2024-11-08T21:00:00	2	Temperatura media	19.4
68826	7	Sololá	717	San Juan la Laguna	12	San Juan la Laguna	7	Julio	2023-07-31T00:00:00	2024-11-08T21:00:00	4	Temperatura máxima	19.8
68827	7	Sololá	717	San Juan la Laguna	12	San Juan la Laguna	7	Julio	2023-07-31T00:00:00	2024-11-08T21:00:00	3	Temperatura mínima	19.3
68828	7	Sololá	717	San Juan la Laguna	12	San Juan la Laguna	7	Julio	2023-07-31T00:00:00	2024-11-08T21:00:00	5	Humedad	88
68829	7	Sololá	717	San Juan la Laguna	12	San Juan la Laguna	7	Julio	2023-07-31T00:00:00	2024-11-08T21:00:00	6	Velocidad del viento	1.6
68830	7	Sololá	717	San Juan la Laguna	12	San Juan la Laguna	7	Julio	2023-07-31T00:00:00	2024-11-08T21:00:00	7	Dirección del viento	1.61
68831	7	Sololá	717	San Juan la Laguna	12	San Juan la Laguna	7	Julio	2023-07-31T00:00:00	2024-11-08T21:00:00	1	Precipitación	0
68832	7	Sololá	717	San Juan la Laguna	12	San Juan la Laguna	7	Julio	2023-07-31T00:00:00	2024-11-08T21:00:00	8	Radiación solar	0
68833	7	Sololá	717	San Juan la Laguna	12	San Juan la Laguna	7	Julio	2023-07-31T00:00:00	2024-11-08T22:00:00	2	Temperatura media	19.4
68834	7	Sololá	717	San Juan la Laguna	12	San Juan la Laguna	7	Julio	2023-07-31T00:00:00	2024-11-08T22:00:00	4	Temperatura máxima	19.4
68835	7	Sololá	717	San Juan la Laguna	12	San Juan la Laguna	7	Julio	2023-07-31T00:00:00	2024-11-08T22:00:00	3	Temperatura mínima	18.9
68836	7	Sololá	717	San Juan la Laguna	12	San Juan la Laguna	7	Julio	2023-07-31T00:00:00	2024-11-08T22:00:00	5	Humedad	89
68837	7	Sololá	717	San Juan la Laguna	12	San Juan la Laguna	7	Julio	2023-07-31T00:00:00	2024-11-08T22:00:00	6	Velocidad del viento	1.6
68838	7	Sololá	717	San Juan la Laguna	12	San Juan la Laguna	7	Julio	2023-07-31T00:00:00	2024-11-08T22:00:00	7	Dirección del viento	1.61
68839	7	Sololá	717	San Juan la Laguna	12	San Juan la Laguna	7	Julio	2023-07-31T00:00:00	2024-11-08T22:00:00	1	Precipitación	0
68840	7	Sololá	717	San Juan la Laguna	12	San Juan la Laguna	7	Julio	2023-07-31T00:00:00	2024-11-08T22:00:00	8	Radiación solar	0
68841	7	Sololá	717	San Juan la Laguna	12	San Juan la Laguna	7	Julio	2023-07-31T00:00:00	2024-11-08T23:00:00	2	Temperatura media	18.6
68842	7	Sololá	717	San Juan la Laguna	12	San Juan la Laguna	7	Julio	2023-07-31T00:00:00	2024-11-08T23:00:00	4	Temperatura máxima	19.9
68843	7	Sololá	717	San Juan la Laguna	12	San Juan la Laguna	7	Julio	2023-07-31T00:00:00	2024-11-08T23:00:00	3	Temperatura mínima	18.6
68844	7	Sololá	717	San Juan la Laguna	12	San Juan la Laguna	7	Julio	2023-07-31T00:00:00	2024-11-08T23:00:00	5	Humedad	85
68845	7	Sololá	717	San Juan la Laguna	12	San Juan la Laguna	7	Julio	2023-07-31T00:00:00	2024-11-08T23:00:00	6	Velocidad del viento	1.6
68846	7	Sololá	717	San Juan la Laguna	12	San Juan la Laguna	7	Julio	2023-07-31T00:00:00	2024-11-08T23:00:00	7	Dirección del viento	1.61
68847	7	Sololá	717	San Juan la Laguna	12	San Juan la Laguna	7	Julio	2023-07-31T00:00:00	2024-11-08T23:00:00	1	Precipitación	0
68848	7	Sololá	717	San Juan la Laguna	12	San Juan la Laguna	7	Julio	2023-07-31T00:00:00	2024-11-08T23:00:00	8	Radiación solar	0
68849	7	Sololá	717	San Juan la Laguna	12	San Juan la Laguna	8	Agosto	2023-01-08T00:00:00	2024-11-08T00:00:00	2	Temperatura media	18.1
68850	7	Sololá	717	San Juan la Laguna	12	San Juan la Laguna	8	Agosto	2023-01-08T00:00:00	2024-11-08T00:00:00	4	Temperatura máxima	18.6
68851	7	Sololá	717	San Juan la Laguna	12	San Juan la Laguna	8	Agosto	2023-01-08T00:00:00	2024-11-08T00:00:00	3	Temperatura mínima	17.8
68852	7	Sololá	717	San Juan la Laguna	12	San Juan la Laguna	8	Agosto	2023-01-08T00:00:00	2024-11-08T00:00:00	5	Humedad	87
68853	7	Sololá	717	San Juan la Laguna	12	San Juan la Laguna	8	Agosto	2023-01-08T00:00:00	2024-11-08T00:00:00	6	Velocidad del viento	3.2
68854	7	Sololá	717	San Juan la Laguna	12	San Juan la Laguna	8	Agosto	2023-01-08T00:00:00	2024-11-08T00:00:00	7	Dirección del viento	3.22
68855	7	Sololá	717	San Juan la Laguna	12	San Juan la Laguna	8	Agosto	2023-01-08T00:00:00	2024-11-08T00:00:00	1	Precipitación	0
68856	7	Sololá	717	San Juan la Laguna	12	San Juan la Laguna	8	Agosto	2023-01-08T00:00:00	2024-11-08T00:00:00	8	Radiación solar	0
68857	7	Sololá	717	San Juan la Laguna	12	San Juan la Laguna	8	Agosto	2023-01-08T00:00:00	2024-11-08T01:00:00	2	Temperatura media	18.4
68858	7	Sololá	717	San Juan la Laguna	12	San Juan la Laguna	8	Agosto	2023-01-08T00:00:00	2024-11-08T01:00:00	4	Temperatura máxima	19.1
68859	7	Sololá	717	San Juan la Laguna	12	San Juan la Laguna	8	Agosto	2023-01-08T00:00:00	2024-11-08T01:00:00	3	Temperatura mínima	17.7
68860	7	Sololá	717	San Juan la Laguna	12	San Juan la Laguna	8	Agosto	2023-01-08T00:00:00	2024-11-08T01:00:00	5	Humedad	84
68861	7	Sololá	717	San Juan la Laguna	12	San Juan la Laguna	8	Agosto	2023-01-08T00:00:00	2024-11-08T01:00:00	6	Velocidad del viento	3.2
68862	7	Sololá	717	San Juan la Laguna	12	San Juan la Laguna	8	Agosto	2023-01-08T00:00:00	2024-11-08T01:00:00	7	Dirección del viento	3.22
68863	7	Sololá	717	San Juan la Laguna	12	San Juan la Laguna	8	Agosto	2023-01-08T00:00:00	2024-11-08T01:00:00	1	Precipitación	0
68864	7	Sololá	717	San Juan la Laguna	12	San Juan la Laguna	8	Agosto	2023-01-08T00:00:00	2024-11-08T01:00:00	8	Radiación solar	0
68865	7	Sololá	717	San Juan la Laguna	12	San Juan la Laguna	8	Agosto	2023-01-08T00:00:00	2024-11-08T02:00:00	2	Temperatura media	17.9
68866	7	Sololá	717	San Juan la Laguna	12	San Juan la Laguna	8	Agosto	2023-01-08T00:00:00	2024-11-08T02:00:00	4	Temperatura máxima	18.6
68867	7	Sololá	717	San Juan la Laguna	12	San Juan la Laguna	8	Agosto	2023-01-08T00:00:00	2024-11-08T02:00:00	3	Temperatura mínima	17.9
68868	7	Sololá	717	San Juan la Laguna	12	San Juan la Laguna	8	Agosto	2023-01-08T00:00:00	2024-11-08T02:00:00	5	Humedad	86
68869	7	Sololá	717	San Juan la Laguna	12	San Juan la Laguna	8	Agosto	2023-01-08T00:00:00	2024-11-08T02:00:00	6	Velocidad del viento	1.6
68870	7	Sololá	717	San Juan la Laguna	12	San Juan la Laguna	8	Agosto	2023-01-08T00:00:00	2024-11-08T02:00:00	7	Dirección del viento	1.61
68871	7	Sololá	717	San Juan la Laguna	12	San Juan la Laguna	8	Agosto	2023-01-08T00:00:00	2024-11-08T02:00:00	1	Precipitación	0
68872	7	Sololá	717	San Juan la Laguna	12	San Juan la Laguna	8	Agosto	2023-01-08T00:00:00	2024-11-08T02:00:00	8	Radiación solar	0
68873	7	Sololá	717	San Juan la Laguna	12	San Juan la Laguna	8	Agosto	2023-01-08T00:00:00	2024-11-08T03:00:00	2	Temperatura media	17.3
68874	7	Sololá	717	San Juan la Laguna	12	San Juan la Laguna	8	Agosto	2023-01-08T00:00:00	2024-11-08T03:00:00	4	Temperatura máxima	17.9
68875	7	Sololá	717	San Juan la Laguna	12	San Juan la Laguna	8	Agosto	2023-01-08T00:00:00	2024-11-08T03:00:00	3	Temperatura mínima	17.3
68876	7	Sololá	717	San Juan la Laguna	12	San Juan la Laguna	8	Agosto	2023-01-08T00:00:00	2024-11-08T03:00:00	5	Humedad	93
68877	7	Sololá	717	San Juan la Laguna	12	San Juan la Laguna	8	Agosto	2023-01-08T00:00:00	2024-11-08T03:00:00	6	Velocidad del viento	0
68878	7	Sololá	717	San Juan la Laguna	12	San Juan la Laguna	8	Agosto	2023-01-08T00:00:00	2024-11-08T03:00:00	7	Dirección del viento	0
68879	7	Sololá	717	San Juan la Laguna	12	San Juan la Laguna	8	Agosto	2023-01-08T00:00:00	2024-11-08T03:00:00	1	Precipitación	2
68880	7	Sololá	717	San Juan la Laguna	12	San Juan la Laguna	8	Agosto	2023-01-08T00:00:00	2024-11-08T03:00:00	8	Radiación solar	0
68881	7	Sololá	717	San Juan la Laguna	12	San Juan la Laguna	8	Agosto	2023-01-08T00:00:00	2024-11-08T04:00:00	2	Temperatura media	17.1
68882	7	Sololá	717	San Juan la Laguna	12	San Juan la Laguna	8	Agosto	2023-01-08T00:00:00	2024-11-08T04:00:00	4	Temperatura máxima	17.3
68883	7	Sololá	717	San Juan la Laguna	12	San Juan la Laguna	8	Agosto	2023-01-08T00:00:00	2024-11-08T04:00:00	3	Temperatura mínima	17.1
68884	7	Sololá	717	San Juan la Laguna	12	San Juan la Laguna	8	Agosto	2023-01-08T00:00:00	2024-11-08T04:00:00	5	Humedad	91
68885	7	Sololá	717	San Juan la Laguna	12	San Juan la Laguna	8	Agosto	2023-01-08T00:00:00	2024-11-08T04:00:00	6	Velocidad del viento	3.2
68886	7	Sololá	717	San Juan la Laguna	12	San Juan la Laguna	8	Agosto	2023-01-08T00:00:00	2024-11-08T04:00:00	7	Dirección del viento	3.22
68887	7	Sololá	717	San Juan la Laguna	12	San Juan la Laguna	8	Agosto	2023-01-08T00:00:00	2024-11-08T04:00:00	1	Precipitación	0.2
68888	7	Sololá	717	San Juan la Laguna	12	San Juan la Laguna	8	Agosto	2023-01-08T00:00:00	2024-11-08T04:00:00	8	Radiación solar	0
68889	7	Sololá	717	San Juan la Laguna	12	San Juan la Laguna	8	Agosto	2023-01-08T00:00:00	2024-11-08T05:00:00	2	Temperatura media	16.3
68890	7	Sololá	717	San Juan la Laguna	12	San Juan la Laguna	8	Agosto	2023-01-08T00:00:00	2024-11-08T05:00:00	4	Temperatura máxima	17.1
68891	7	Sololá	717	San Juan la Laguna	12	San Juan la Laguna	8	Agosto	2023-01-08T00:00:00	2024-11-08T05:00:00	3	Temperatura mínima	16.3
68892	7	Sololá	717	San Juan la Laguna	12	San Juan la Laguna	8	Agosto	2023-01-08T00:00:00	2024-11-08T05:00:00	5	Humedad	92
68893	7	Sololá	717	San Juan la Laguna	12	San Juan la Laguna	8	Agosto	2023-01-08T00:00:00	2024-11-08T05:00:00	6	Velocidad del viento	1.6
68894	7	Sololá	717	San Juan la Laguna	12	San Juan la Laguna	8	Agosto	2023-01-08T00:00:00	2024-11-08T05:00:00	7	Dirección del viento	1.61
68895	7	Sololá	717	San Juan la Laguna	12	San Juan la Laguna	8	Agosto	2023-01-08T00:00:00	2024-11-08T05:00:00	1	Precipitación	0
68896	7	Sololá	717	San Juan la Laguna	12	San Juan la Laguna	8	Agosto	2023-01-08T00:00:00	2024-11-08T05:00:00	8	Radiación solar	0
68897	7	Sololá	717	San Juan la Laguna	12	San Juan la Laguna	8	Agosto	2023-01-08T00:00:00	2024-11-08T06:00:00	2	Temperatura media	16.6
68898	7	Sololá	717	San Juan la Laguna	12	San Juan la Laguna	8	Agosto	2023-01-08T00:00:00	2024-11-08T06:00:00	4	Temperatura máxima	16.6
68899	7	Sololá	717	San Juan la Laguna	12	San Juan la Laguna	8	Agosto	2023-01-08T00:00:00	2024-11-08T06:00:00	3	Temperatura mínima	16.3
68900	7	Sololá	717	San Juan la Laguna	12	San Juan la Laguna	8	Agosto	2023-01-08T00:00:00	2024-11-08T06:00:00	5	Humedad	90
68901	7	Sololá	717	San Juan la Laguna	12	San Juan la Laguna	8	Agosto	2023-01-08T00:00:00	2024-11-08T06:00:00	6	Velocidad del viento	1.6
68902	7	Sololá	717	San Juan la Laguna	12	San Juan la Laguna	8	Agosto	2023-01-08T00:00:00	2024-11-08T06:00:00	7	Dirección del viento	1.61
68903	7	Sololá	717	San Juan la Laguna	12	San Juan la Laguna	8	Agosto	2023-01-08T00:00:00	2024-11-08T06:00:00	1	Precipitación	0
68904	7	Sololá	717	San Juan la Laguna	12	San Juan la Laguna	8	Agosto	2023-01-08T00:00:00	2024-11-08T06:00:00	8	Radiación solar	1
68905	7	Sololá	717	San Juan la Laguna	12	San Juan la Laguna	8	Agosto	2023-01-08T00:00:00	2024-11-08T07:00:00	2	Temperatura media	17.2
68906	7	Sololá	717	San Juan la Laguna	12	San Juan la Laguna	8	Agosto	2023-01-08T00:00:00	2024-11-08T07:00:00	4	Temperatura máxima	17.2
68907	7	Sololá	717	San Juan la Laguna	12	San Juan la Laguna	8	Agosto	2023-01-08T00:00:00	2024-11-08T07:00:00	3	Temperatura mínima	16.5
68908	7	Sololá	717	San Juan la Laguna	12	San Juan la Laguna	8	Agosto	2023-01-08T00:00:00	2024-11-08T07:00:00	5	Humedad	92
68909	7	Sololá	717	San Juan la Laguna	12	San Juan la Laguna	8	Agosto	2023-01-08T00:00:00	2024-11-08T07:00:00	6	Velocidad del viento	3.2
68910	7	Sololá	717	San Juan la Laguna	12	San Juan la Laguna	8	Agosto	2023-01-08T00:00:00	2024-11-08T07:00:00	7	Dirección del viento	3.22
68911	7	Sololá	717	San Juan la Laguna	12	San Juan la Laguna	8	Agosto	2023-01-08T00:00:00	2024-11-08T07:00:00	1	Precipitación	0
68912	7	Sololá	717	San Juan la Laguna	12	San Juan la Laguna	8	Agosto	2023-01-08T00:00:00	2024-11-08T07:00:00	8	Radiación solar	65
68913	7	Sololá	717	San Juan la Laguna	12	San Juan la Laguna	8	Agosto	2023-01-08T00:00:00	2024-11-08T08:00:00	2	Temperatura media	20.7
68914	7	Sololá	717	San Juan la Laguna	12	San Juan la Laguna	8	Agosto	2023-01-08T00:00:00	2024-11-08T08:00:00	4	Temperatura máxima	20.7
68915	7	Sololá	717	San Juan la Laguna	12	San Juan la Laguna	8	Agosto	2023-01-08T00:00:00	2024-11-08T08:00:00	3	Temperatura mínima	17.3
68916	7	Sololá	717	San Juan la Laguna	12	San Juan la Laguna	8	Agosto	2023-01-08T00:00:00	2024-11-08T08:00:00	5	Humedad	80
68917	7	Sololá	717	San Juan la Laguna	12	San Juan la Laguna	8	Agosto	2023-01-08T00:00:00	2024-11-08T08:00:00	6	Velocidad del viento	3.2
68918	7	Sololá	717	San Juan la Laguna	12	San Juan la Laguna	8	Agosto	2023-01-08T00:00:00	2024-11-08T08:00:00	7	Dirección del viento	3.22
68919	7	Sololá	717	San Juan la Laguna	12	San Juan la Laguna	8	Agosto	2023-01-08T00:00:00	2024-11-08T08:00:00	1	Precipitación	0
68920	7	Sololá	717	San Juan la Laguna	12	San Juan la Laguna	8	Agosto	2023-01-08T00:00:00	2024-11-08T08:00:00	8	Radiación solar	254
68921	7	Sololá	717	San Juan la Laguna	12	San Juan la Laguna	8	Agosto	2023-01-08T00:00:00	2024-11-08T09:00:00	2	Temperatura media	22.4
68922	7	Sololá	717	San Juan la Laguna	12	San Juan la Laguna	8	Agosto	2023-01-08T00:00:00	2024-11-08T09:00:00	4	Temperatura máxima	23.1
68923	7	Sololá	717	San Juan la Laguna	12	San Juan la Laguna	8	Agosto	2023-01-08T00:00:00	2024-11-08T09:00:00	3	Temperatura mínima	20.7
68924	7	Sololá	717	San Juan la Laguna	12	San Juan la Laguna	8	Agosto	2023-01-08T00:00:00	2024-11-08T09:00:00	5	Humedad	69
68925	7	Sololá	717	San Juan la Laguna	12	San Juan la Laguna	8	Agosto	2023-01-08T00:00:00	2024-11-08T09:00:00	6	Velocidad del viento	4.8
68926	7	Sololá	717	San Juan la Laguna	12	San Juan la Laguna	8	Agosto	2023-01-08T00:00:00	2024-11-08T09:00:00	7	Dirección del viento	4.83
68927	7	Sololá	717	San Juan la Laguna	12	San Juan la Laguna	8	Agosto	2023-01-08T00:00:00	2024-11-08T09:00:00	1	Precipitación	0
68928	7	Sololá	717	San Juan la Laguna	12	San Juan la Laguna	8	Agosto	2023-01-08T00:00:00	2024-11-08T09:00:00	8	Radiación solar	607
68929	7	Sololá	717	San Juan la Laguna	12	San Juan la Laguna	8	Agosto	2023-01-08T00:00:00	2024-11-08T10:00:00	2	Temperatura media	24.1
68930	7	Sololá	717	San Juan la Laguna	12	San Juan la Laguna	8	Agosto	2023-01-08T00:00:00	2024-11-08T10:00:00	4	Temperatura máxima	24.1
68931	7	Sololá	717	San Juan la Laguna	12	San Juan la Laguna	8	Agosto	2023-01-08T00:00:00	2024-11-08T10:00:00	3	Temperatura mínima	22.4
68932	7	Sololá	717	San Juan la Laguna	12	San Juan la Laguna	8	Agosto	2023-01-08T00:00:00	2024-11-08T10:00:00	5	Humedad	63
68933	7	Sololá	717	San Juan la Laguna	12	San Juan la Laguna	8	Agosto	2023-01-08T00:00:00	2024-11-08T10:00:00	6	Velocidad del viento	4.8
68934	7	Sololá	717	San Juan la Laguna	12	San Juan la Laguna	8	Agosto	2023-01-08T00:00:00	2024-11-08T10:00:00	7	Dirección del viento	4.83
68935	7	Sololá	717	San Juan la Laguna	12	San Juan la Laguna	8	Agosto	2023-01-08T00:00:00	2024-11-08T10:00:00	1	Precipitación	0
68936	7	Sololá	717	San Juan la Laguna	12	San Juan la Laguna	8	Agosto	2023-01-08T00:00:00	2024-11-08T10:00:00	8	Radiación solar	703
68937	7	Sololá	717	San Juan la Laguna	12	San Juan la Laguna	8	Agosto	2023-01-08T00:00:00	2024-11-08T11:00:00	2	Temperatura media	25.2
68938	7	Sololá	717	San Juan la Laguna	12	San Juan la Laguna	8	Agosto	2023-01-08T00:00:00	2024-11-08T11:00:00	4	Temperatura máxima	25.2
68939	7	Sololá	717	San Juan la Laguna	12	San Juan la Laguna	8	Agosto	2023-01-08T00:00:00	2024-11-08T11:00:00	3	Temperatura mínima	23.8
68940	7	Sololá	717	San Juan la Laguna	12	San Juan la Laguna	8	Agosto	2023-01-08T00:00:00	2024-11-08T11:00:00	5	Humedad	57
68941	7	Sololá	717	San Juan la Laguna	12	San Juan la Laguna	8	Agosto	2023-01-08T00:00:00	2024-11-08T11:00:00	6	Velocidad del viento	6.4
68942	7	Sololá	717	San Juan la Laguna	12	San Juan la Laguna	8	Agosto	2023-01-08T00:00:00	2024-11-08T11:00:00	7	Dirección del viento	6.44
68943	7	Sololá	717	San Juan la Laguna	12	San Juan la Laguna	8	Agosto	2023-01-08T00:00:00	2024-11-08T11:00:00	1	Precipitación	0
68944	7	Sololá	717	San Juan la Laguna	12	San Juan la Laguna	8	Agosto	2023-01-08T00:00:00	2024-11-08T11:00:00	8	Radiación solar	852
68945	7	Sololá	717	San Juan la Laguna	12	San Juan la Laguna	8	Agosto	2023-01-08T00:00:00	2024-11-08T12:00:00	2	Temperatura media	25.9
68946	7	Sololá	717	San Juan la Laguna	12	San Juan la Laguna	8	Agosto	2023-01-08T00:00:00	2024-11-08T12:00:00	4	Temperatura máxima	26.2
68947	7	Sololá	717	San Juan la Laguna	12	San Juan la Laguna	8	Agosto	2023-01-08T00:00:00	2024-11-08T12:00:00	3	Temperatura mínima	25.1
68948	7	Sololá	717	San Juan la Laguna	12	San Juan la Laguna	8	Agosto	2023-01-08T00:00:00	2024-11-08T12:00:00	5	Humedad	57
68949	7	Sololá	717	San Juan la Laguna	12	San Juan la Laguna	8	Agosto	2023-01-08T00:00:00	2024-11-08T12:00:00	6	Velocidad del viento	6.4
68950	7	Sololá	717	San Juan la Laguna	12	San Juan la Laguna	8	Agosto	2023-01-08T00:00:00	2024-11-08T12:00:00	7	Dirección del viento	6.44
68951	7	Sololá	717	San Juan la Laguna	12	San Juan la Laguna	8	Agosto	2023-01-08T00:00:00	2024-11-08T12:00:00	1	Precipitación	0
68952	7	Sololá	717	San Juan la Laguna	12	San Juan la Laguna	8	Agosto	2023-01-08T00:00:00	2024-11-08T12:00:00	8	Radiación solar	949
68953	7	Sololá	717	San Juan la Laguna	12	San Juan la Laguna	8	Agosto	2023-01-08T00:00:00	2024-11-08T13:00:00	2	Temperatura media	26.7
68954	7	Sololá	717	San Juan la Laguna	12	San Juan la Laguna	8	Agosto	2023-01-08T00:00:00	2024-11-08T13:00:00	4	Temperatura máxima	26.7
68955	7	Sololá	717	San Juan la Laguna	12	San Juan la Laguna	8	Agosto	2023-01-08T00:00:00	2024-11-08T13:00:00	3	Temperatura mínima	25.9
68956	7	Sololá	717	San Juan la Laguna	12	San Juan la Laguna	8	Agosto	2023-01-08T00:00:00	2024-11-08T13:00:00	5	Humedad	57
68957	7	Sololá	717	San Juan la Laguna	12	San Juan la Laguna	8	Agosto	2023-01-08T00:00:00	2024-11-08T13:00:00	6	Velocidad del viento	6.4
68958	7	Sololá	717	San Juan la Laguna	12	San Juan la Laguna	8	Agosto	2023-01-08T00:00:00	2024-11-08T13:00:00	7	Dirección del viento	6.44
68959	7	Sololá	717	San Juan la Laguna	12	San Juan la Laguna	8	Agosto	2023-01-08T00:00:00	2024-11-08T13:00:00	1	Precipitación	0
68960	7	Sololá	717	San Juan la Laguna	12	San Juan la Laguna	8	Agosto	2023-01-08T00:00:00	2024-11-08T13:00:00	8	Radiación solar	982
68961	7	Sololá	717	San Juan la Laguna	12	San Juan la Laguna	8	Agosto	2023-01-08T00:00:00	2024-11-08T14:00:00	2	Temperatura media	24.9
68962	7	Sololá	717	San Juan la Laguna	12	San Juan la Laguna	8	Agosto	2023-01-08T00:00:00	2024-11-08T14:00:00	4	Temperatura máxima	26.9
68963	7	Sololá	717	San Juan la Laguna	12	San Juan la Laguna	8	Agosto	2023-01-08T00:00:00	2024-11-08T14:00:00	3	Temperatura mínima	24.8
68964	7	Sololá	717	San Juan la Laguna	12	San Juan la Laguna	8	Agosto	2023-01-08T00:00:00	2024-11-08T14:00:00	5	Humedad	67
68965	7	Sololá	717	San Juan la Laguna	12	San Juan la Laguna	8	Agosto	2023-01-08T00:00:00	2024-11-08T14:00:00	6	Velocidad del viento	9.7
68966	7	Sololá	717	San Juan la Laguna	12	San Juan la Laguna	8	Agosto	2023-01-08T00:00:00	2024-11-08T14:00:00	7	Dirección del viento	9.66
68967	7	Sololá	717	San Juan la Laguna	12	San Juan la Laguna	8	Agosto	2023-01-08T00:00:00	2024-11-08T14:00:00	1	Precipitación	0
68968	7	Sololá	717	San Juan la Laguna	12	San Juan la Laguna	8	Agosto	2023-01-08T00:00:00	2024-11-08T14:00:00	8	Radiación solar	939
68969	7	Sololá	717	San Juan la Laguna	12	San Juan la Laguna	8	Agosto	2023-01-08T00:00:00	2024-11-08T15:00:00	2	Temperatura media	24.4
68970	7	Sololá	717	San Juan la Laguna	12	San Juan la Laguna	8	Agosto	2023-01-08T00:00:00	2024-11-08T15:00:00	4	Temperatura máxima	26.2
68971	7	Sololá	717	San Juan la Laguna	12	San Juan la Laguna	8	Agosto	2023-01-08T00:00:00	2024-11-08T15:00:00	3	Temperatura mínima	24.4
68972	7	Sololá	717	San Juan la Laguna	12	San Juan la Laguna	8	Agosto	2023-01-08T00:00:00	2024-11-08T15:00:00	5	Humedad	70
68973	7	Sololá	717	San Juan la Laguna	12	San Juan la Laguna	8	Agosto	2023-01-08T00:00:00	2024-11-08T15:00:00	6	Velocidad del viento	11.3
68974	7	Sololá	717	San Juan la Laguna	12	San Juan la Laguna	8	Agosto	2023-01-08T00:00:00	2024-11-08T15:00:00	7	Dirección del viento	11.27
68975	7	Sololá	717	San Juan la Laguna	12	San Juan la Laguna	8	Agosto	2023-01-08T00:00:00	2024-11-08T15:00:00	1	Precipitación	0
68976	7	Sololá	717	San Juan la Laguna	12	San Juan la Laguna	8	Agosto	2023-01-08T00:00:00	2024-11-08T15:00:00	8	Radiación solar	849
68977	7	Sololá	717	San Juan la Laguna	12	San Juan la Laguna	8	Agosto	2023-01-08T00:00:00	2024-11-08T16:00:00	2	Temperatura media	23.3
68978	7	Sololá	717	San Juan la Laguna	12	San Juan la Laguna	8	Agosto	2023-01-08T00:00:00	2024-11-08T16:00:00	4	Temperatura máxima	24.3
68979	7	Sololá	717	San Juan la Laguna	12	San Juan la Laguna	8	Agosto	2023-01-08T00:00:00	2024-11-08T16:00:00	3	Temperatura mínima	23.3
68980	7	Sololá	717	San Juan la Laguna	12	San Juan la Laguna	8	Agosto	2023-01-08T00:00:00	2024-11-08T16:00:00	5	Humedad	75
68981	7	Sololá	717	San Juan la Laguna	12	San Juan la Laguna	8	Agosto	2023-01-08T00:00:00	2024-11-08T16:00:00	6	Velocidad del viento	8
68982	7	Sololá	717	San Juan la Laguna	12	San Juan la Laguna	8	Agosto	2023-01-08T00:00:00	2024-11-08T16:00:00	7	Dirección del viento	8.05
68983	7	Sololá	717	San Juan la Laguna	12	San Juan la Laguna	8	Agosto	2023-01-08T00:00:00	2024-11-08T16:00:00	1	Precipitación	0
68984	7	Sololá	717	San Juan la Laguna	12	San Juan la Laguna	8	Agosto	2023-01-08T00:00:00	2024-11-08T16:00:00	8	Radiación solar	336
68985	7	Sololá	717	San Juan la Laguna	12	San Juan la Laguna	8	Agosto	2023-01-08T00:00:00	2024-11-08T17:00:00	2	Temperatura media	17.8
68986	7	Sololá	717	San Juan la Laguna	12	San Juan la Laguna	8	Agosto	2023-01-08T00:00:00	2024-11-08T17:00:00	4	Temperatura máxima	23.3
68987	7	Sololá	717	San Juan la Laguna	12	San Juan la Laguna	8	Agosto	2023-01-08T00:00:00	2024-11-08T17:00:00	3	Temperatura mínima	17.8
68988	7	Sololá	717	San Juan la Laguna	12	San Juan la Laguna	8	Agosto	2023-01-08T00:00:00	2024-11-08T17:00:00	5	Humedad	91
68989	7	Sololá	717	San Juan la Laguna	12	San Juan la Laguna	8	Agosto	2023-01-08T00:00:00	2024-11-08T17:00:00	6	Velocidad del viento	17.7
68990	7	Sololá	717	San Juan la Laguna	12	San Juan la Laguna	8	Agosto	2023-01-08T00:00:00	2024-11-08T17:00:00	7	Dirección del viento	17.7
68991	7	Sololá	717	San Juan la Laguna	12	San Juan la Laguna	8	Agosto	2023-01-08T00:00:00	2024-11-08T17:00:00	1	Precipitación	8.2
68992	7	Sololá	717	San Juan la Laguna	12	San Juan la Laguna	8	Agosto	2023-01-08T00:00:00	2024-11-08T17:00:00	8	Radiación solar	38
68993	7	Sololá	717	San Juan la Laguna	12	San Juan la Laguna	8	Agosto	2023-01-08T00:00:00	2024-11-08T18:00:00	2	Temperatura media	17.8
68994	7	Sololá	717	San Juan la Laguna	12	San Juan la Laguna	8	Agosto	2023-01-08T00:00:00	2024-11-08T18:00:00	4	Temperatura máxima	17.9
68995	7	Sololá	717	San Juan la Laguna	12	San Juan la Laguna	8	Agosto	2023-01-08T00:00:00	2024-11-08T18:00:00	3	Temperatura mínima	17.4
68996	7	Sololá	717	San Juan la Laguna	12	San Juan la Laguna	8	Agosto	2023-01-08T00:00:00	2024-11-08T18:00:00	5	Humedad	92
68997	7	Sololá	717	San Juan la Laguna	12	San Juan la Laguna	8	Agosto	2023-01-08T00:00:00	2024-11-08T18:00:00	6	Velocidad del viento	6.4
68998	7	Sololá	717	San Juan la Laguna	12	San Juan la Laguna	8	Agosto	2023-01-08T00:00:00	2024-11-08T18:00:00	7	Dirección del viento	6.44
68999	7	Sololá	717	San Juan la Laguna	12	San Juan la Laguna	8	Agosto	2023-01-08T00:00:00	2024-11-08T18:00:00	1	Precipitación	5.4
69000	7	Sololá	717	San Juan la Laguna	12	San Juan la Laguna	8	Agosto	2023-01-08T00:00:00	2024-11-08T18:00:00	8	Radiación solar	11
69001	7	Sololá	717	San Juan la Laguna	12	San Juan la Laguna	8	Agosto	2023-01-08T00:00:00	2024-11-08T19:00:00	2	Temperatura media	17.9
69002	7	Sololá	717	San Juan la Laguna	12	San Juan la Laguna	8	Agosto	2023-01-08T00:00:00	2024-11-08T19:00:00	4	Temperatura máxima	18.1
69003	7	Sololá	717	San Juan la Laguna	12	San Juan la Laguna	8	Agosto	2023-01-08T00:00:00	2024-11-08T19:00:00	3	Temperatura mínima	17.8
69004	7	Sololá	717	San Juan la Laguna	12	San Juan la Laguna	8	Agosto	2023-01-08T00:00:00	2024-11-08T19:00:00	5	Humedad	92
69005	7	Sololá	717	San Juan la Laguna	12	San Juan la Laguna	8	Agosto	2023-01-08T00:00:00	2024-11-08T19:00:00	6	Velocidad del viento	3.2
69006	7	Sololá	717	San Juan la Laguna	12	San Juan la Laguna	8	Agosto	2023-01-08T00:00:00	2024-11-08T19:00:00	7	Dirección del viento	3.22
69007	7	Sololá	717	San Juan la Laguna	12	San Juan la Laguna	8	Agosto	2023-01-08T00:00:00	2024-11-08T19:00:00	1	Precipitación	0
69008	7	Sololá	717	San Juan la Laguna	12	San Juan la Laguna	8	Agosto	2023-01-08T00:00:00	2024-11-08T19:00:00	8	Radiación solar	0
69009	7	Sololá	717	San Juan la Laguna	12	San Juan la Laguna	8	Agosto	2023-01-08T00:00:00	2024-11-08T20:00:00	2	Temperatura media	17.7
69010	7	Sololá	717	San Juan la Laguna	12	San Juan la Laguna	8	Agosto	2023-01-08T00:00:00	2024-11-08T20:00:00	4	Temperatura máxima	18
69011	7	Sololá	717	San Juan la Laguna	12	San Juan la Laguna	8	Agosto	2023-01-08T00:00:00	2024-11-08T20:00:00	3	Temperatura mínima	17.7
69012	7	Sololá	717	San Juan la Laguna	12	San Juan la Laguna	8	Agosto	2023-01-08T00:00:00	2024-11-08T20:00:00	5	Humedad	93
69013	7	Sololá	717	San Juan la Laguna	12	San Juan la Laguna	8	Agosto	2023-01-08T00:00:00	2024-11-08T20:00:00	6	Velocidad del viento	1.6
69014	7	Sololá	717	San Juan la Laguna	12	San Juan la Laguna	8	Agosto	2023-01-08T00:00:00	2024-11-08T20:00:00	7	Dirección del viento	1.61
69015	7	Sololá	717	San Juan la Laguna	12	San Juan la Laguna	8	Agosto	2023-01-08T00:00:00	2024-11-08T20:00:00	1	Precipitación	0.2
69016	7	Sololá	717	San Juan la Laguna	12	San Juan la Laguna	8	Agosto	2023-01-08T00:00:00	2024-11-08T20:00:00	8	Radiación solar	0
69017	7	Sololá	717	San Juan la Laguna	12	San Juan la Laguna	8	Agosto	2023-01-08T00:00:00	2024-11-08T21:00:00	2	Temperatura media	17.7
69018	7	Sololá	717	San Juan la Laguna	12	San Juan la Laguna	8	Agosto	2023-01-08T00:00:00	2024-11-08T21:00:00	4	Temperatura máxima	17.8
69019	7	Sololá	717	San Juan la Laguna	12	San Juan la Laguna	8	Agosto	2023-01-08T00:00:00	2024-11-08T21:00:00	3	Temperatura mínima	17.6
69020	7	Sololá	717	San Juan la Laguna	12	San Juan la Laguna	8	Agosto	2023-01-08T00:00:00	2024-11-08T21:00:00	5	Humedad	92
69021	7	Sololá	717	San Juan la Laguna	12	San Juan la Laguna	8	Agosto	2023-01-08T00:00:00	2024-11-08T21:00:00	6	Velocidad del viento	1.6
69022	7	Sololá	717	San Juan la Laguna	12	San Juan la Laguna	8	Agosto	2023-01-08T00:00:00	2024-11-08T21:00:00	7	Dirección del viento	1.61
69023	7	Sololá	717	San Juan la Laguna	12	San Juan la Laguna	8	Agosto	2023-01-08T00:00:00	2024-11-08T21:00:00	1	Precipitación	0
69024	7	Sololá	717	San Juan la Laguna	12	San Juan la Laguna	8	Agosto	2023-01-08T00:00:00	2024-11-08T21:00:00	8	Radiación solar	0
69025	7	Sololá	717	San Juan la Laguna	12	San Juan la Laguna	8	Agosto	2023-01-08T00:00:00	2024-11-08T22:00:00	2	Temperatura media	17
69026	7	Sololá	717	San Juan la Laguna	12	San Juan la Laguna	8	Agosto	2023-01-08T00:00:00	2024-11-08T22:00:00	4	Temperatura máxima	18
69027	7	Sololá	717	San Juan la Laguna	12	San Juan la Laguna	8	Agosto	2023-01-08T00:00:00	2024-11-08T22:00:00	3	Temperatura mínima	17
69028	7	Sololá	717	San Juan la Laguna	12	San Juan la Laguna	8	Agosto	2023-01-08T00:00:00	2024-11-08T22:00:00	5	Humedad	90
69029	7	Sololá	717	San Juan la Laguna	12	San Juan la Laguna	8	Agosto	2023-01-08T00:00:00	2024-11-08T22:00:00	6	Velocidad del viento	8
69030	7	Sololá	717	San Juan la Laguna	12	San Juan la Laguna	8	Agosto	2023-01-08T00:00:00	2024-11-08T22:00:00	7	Dirección del viento	8.05
69031	7	Sololá	717	San Juan la Laguna	12	San Juan la Laguna	8	Agosto	2023-01-08T00:00:00	2024-11-08T22:00:00	1	Precipitación	6.8
69032	7	Sololá	717	San Juan la Laguna	12	San Juan la Laguna	8	Agosto	2023-01-08T00:00:00	2024-11-08T22:00:00	8	Radiación solar	0
69033	7	Sololá	717	San Juan la Laguna	12	San Juan la Laguna	8	Agosto	2023-01-08T00:00:00	2024-11-08T23:00:00	2	Temperatura media	16.3
69034	7	Sololá	717	San Juan la Laguna	12	San Juan la Laguna	8	Agosto	2023-01-08T00:00:00	2024-11-08T23:00:00	4	Temperatura máxima	17
69035	7	Sololá	717	San Juan la Laguna	12	San Juan la Laguna	8	Agosto	2023-01-08T00:00:00	2024-11-08T23:00:00	3	Temperatura mínima	16.3
69036	7	Sololá	717	San Juan la Laguna	12	San Juan la Laguna	8	Agosto	2023-01-08T00:00:00	2024-11-08T23:00:00	5	Humedad	92
69037	7	Sololá	717	San Juan la Laguna	12	San Juan la Laguna	8	Agosto	2023-01-08T00:00:00	2024-11-08T23:00:00	6	Velocidad del viento	1.6
69038	7	Sololá	717	San Juan la Laguna	12	San Juan la Laguna	8	Agosto	2023-01-08T00:00:00	2024-11-08T23:00:00	7	Dirección del viento	1.61
69039	7	Sololá	717	San Juan la Laguna	12	San Juan la Laguna	8	Agosto	2023-01-08T00:00:00	2024-11-08T23:00:00	1	Precipitación	0.2
69040	7	Sololá	717	San Juan la Laguna	12	San Juan la Laguna	8	Agosto	2023-01-08T00:00:00	2024-11-08T23:00:00	8	Radiación solar	0
69041	7	Sololá	717	San Juan la Laguna	12	San Juan la Laguna	8	Agosto	2023-02-08T00:00:00	2024-11-08T00:00:00	2	Temperatura media	16.1
69042	7	Sololá	717	San Juan la Laguna	12	San Juan la Laguna	8	Agosto	2023-02-08T00:00:00	2024-11-08T00:00:00	4	Temperatura máxima	16.4
69043	7	Sololá	717	San Juan la Laguna	12	San Juan la Laguna	8	Agosto	2023-02-08T00:00:00	2024-11-08T00:00:00	3	Temperatura mínima	16.1
69044	7	Sololá	717	San Juan la Laguna	12	San Juan la Laguna	8	Agosto	2023-02-08T00:00:00	2024-11-08T00:00:00	5	Humedad	92
69045	7	Sololá	717	San Juan la Laguna	12	San Juan la Laguna	8	Agosto	2023-02-08T00:00:00	2024-11-08T00:00:00	6	Velocidad del viento	1.6
69046	7	Sololá	717	San Juan la Laguna	12	San Juan la Laguna	8	Agosto	2023-02-08T00:00:00	2024-11-08T00:00:00	7	Dirección del viento	1.61
69047	7	Sololá	717	San Juan la Laguna	12	San Juan la Laguna	8	Agosto	2023-02-08T00:00:00	2024-11-08T00:00:00	1	Precipitación	0.6
69048	7	Sololá	717	San Juan la Laguna	12	San Juan la Laguna	8	Agosto	2023-02-08T00:00:00	2024-11-08T00:00:00	8	Radiación solar	0
69049	7	Sololá	717	San Juan la Laguna	12	San Juan la Laguna	8	Agosto	2023-02-08T00:00:00	2024-11-08T01:00:00	2	Temperatura media	15.9
69050	7	Sololá	717	San Juan la Laguna	12	San Juan la Laguna	8	Agosto	2023-02-08T00:00:00	2024-11-08T01:00:00	4	Temperatura máxima	16.1
69051	7	Sololá	717	San Juan la Laguna	12	San Juan la Laguna	8	Agosto	2023-02-08T00:00:00	2024-11-08T01:00:00	3	Temperatura mínima	15.8
69052	7	Sololá	717	San Juan la Laguna	12	San Juan la Laguna	8	Agosto	2023-02-08T00:00:00	2024-11-08T01:00:00	5	Humedad	91
69053	7	Sololá	717	San Juan la Laguna	12	San Juan la Laguna	8	Agosto	2023-02-08T00:00:00	2024-11-08T01:00:00	6	Velocidad del viento	1.6
69054	7	Sololá	717	San Juan la Laguna	12	San Juan la Laguna	8	Agosto	2023-02-08T00:00:00	2024-11-08T01:00:00	7	Dirección del viento	1.61
69055	7	Sololá	717	San Juan la Laguna	12	San Juan la Laguna	8	Agosto	2023-02-08T00:00:00	2024-11-08T01:00:00	1	Precipitación	0.4
69056	7	Sololá	717	San Juan la Laguna	12	San Juan la Laguna	8	Agosto	2023-02-08T00:00:00	2024-11-08T01:00:00	8	Radiación solar	0
69057	7	Sololá	717	San Juan la Laguna	12	San Juan la Laguna	8	Agosto	2023-02-08T00:00:00	2024-11-08T02:00:00	2	Temperatura media	16
69058	7	Sololá	717	San Juan la Laguna	12	San Juan la Laguna	8	Agosto	2023-02-08T00:00:00	2024-11-08T02:00:00	4	Temperatura máxima	16.2
69059	7	Sololá	717	San Juan la Laguna	12	San Juan la Laguna	8	Agosto	2023-02-08T00:00:00	2024-11-08T02:00:00	3	Temperatura mínima	15.7
69060	7	Sololá	717	San Juan la Laguna	12	San Juan la Laguna	8	Agosto	2023-02-08T00:00:00	2024-11-08T02:00:00	5	Humedad	89
69061	7	Sololá	717	San Juan la Laguna	12	San Juan la Laguna	8	Agosto	2023-02-08T00:00:00	2024-11-08T02:00:00	6	Velocidad del viento	3.2
69062	7	Sololá	717	San Juan la Laguna	12	San Juan la Laguna	8	Agosto	2023-02-08T00:00:00	2024-11-08T02:00:00	7	Dirección del viento	3.22
69063	7	Sololá	717	San Juan la Laguna	12	San Juan la Laguna	8	Agosto	2023-02-08T00:00:00	2024-11-08T02:00:00	1	Precipitación	0.2
69064	7	Sololá	717	San Juan la Laguna	12	San Juan la Laguna	8	Agosto	2023-02-08T00:00:00	2024-11-08T02:00:00	8	Radiación solar	0
69065	7	Sololá	717	San Juan la Laguna	12	San Juan la Laguna	8	Agosto	2023-02-08T00:00:00	2024-11-08T03:00:00	2	Temperatura media	15.1
69066	7	Sololá	717	San Juan la Laguna	12	San Juan la Laguna	8	Agosto	2023-02-08T00:00:00	2024-11-08T03:00:00	4	Temperatura máxima	16
69067	7	Sololá	717	San Juan la Laguna	12	San Juan la Laguna	8	Agosto	2023-02-08T00:00:00	2024-11-08T03:00:00	3	Temperatura mínima	15.1
69068	7	Sololá	717	San Juan la Laguna	12	San Juan la Laguna	8	Agosto	2023-02-08T00:00:00	2024-11-08T03:00:00	5	Humedad	92
69069	7	Sololá	717	San Juan la Laguna	12	San Juan la Laguna	8	Agosto	2023-02-08T00:00:00	2024-11-08T03:00:00	6	Velocidad del viento	1.6
69070	7	Sololá	717	San Juan la Laguna	12	San Juan la Laguna	8	Agosto	2023-02-08T00:00:00	2024-11-08T03:00:00	7	Dirección del viento	1.61
69071	7	Sololá	717	San Juan la Laguna	12	San Juan la Laguna	8	Agosto	2023-02-08T00:00:00	2024-11-08T03:00:00	1	Precipitación	0
69072	7	Sololá	717	San Juan la Laguna	12	San Juan la Laguna	8	Agosto	2023-02-08T00:00:00	2024-11-08T03:00:00	8	Radiación solar	0
69073	7	Sololá	717	San Juan la Laguna	12	San Juan la Laguna	8	Agosto	2023-02-08T00:00:00	2024-11-08T04:00:00	2	Temperatura media	15.1
69074	7	Sololá	717	San Juan la Laguna	12	San Juan la Laguna	8	Agosto	2023-02-08T00:00:00	2024-11-08T04:00:00	4	Temperatura máxima	15.1
69075	7	Sololá	717	San Juan la Laguna	12	San Juan la Laguna	8	Agosto	2023-02-08T00:00:00	2024-11-08T04:00:00	3	Temperatura mínima	14.8
69076	7	Sololá	717	San Juan la Laguna	12	San Juan la Laguna	8	Agosto	2023-02-08T00:00:00	2024-11-08T04:00:00	5	Humedad	92
69077	7	Sololá	717	San Juan la Laguna	12	San Juan la Laguna	8	Agosto	2023-02-08T00:00:00	2024-11-08T04:00:00	6	Velocidad del viento	1.6
69078	7	Sololá	717	San Juan la Laguna	12	San Juan la Laguna	8	Agosto	2023-02-08T00:00:00	2024-11-08T04:00:00	7	Dirección del viento	1.61
69079	7	Sololá	717	San Juan la Laguna	12	San Juan la Laguna	8	Agosto	2023-02-08T00:00:00	2024-11-08T04:00:00	1	Precipitación	0
69080	7	Sololá	717	San Juan la Laguna	12	San Juan la Laguna	8	Agosto	2023-02-08T00:00:00	2024-11-08T04:00:00	8	Radiación solar	0
69081	7	Sololá	717	San Juan la Laguna	12	San Juan la Laguna	8	Agosto	2023-02-08T00:00:00	2024-11-08T05:00:00	2	Temperatura media	15.6
69082	7	Sololá	717	San Juan la Laguna	12	San Juan la Laguna	8	Agosto	2023-02-08T00:00:00	2024-11-08T05:00:00	4	Temperatura máxima	15.6
69083	7	Sololá	717	San Juan la Laguna	12	San Juan la Laguna	8	Agosto	2023-02-08T00:00:00	2024-11-08T05:00:00	3	Temperatura mínima	14.9
69084	7	Sololá	717	San Juan la Laguna	12	San Juan la Laguna	8	Agosto	2023-02-08T00:00:00	2024-11-08T05:00:00	5	Humedad	89
69085	7	Sololá	717	San Juan la Laguna	12	San Juan la Laguna	8	Agosto	2023-02-08T00:00:00	2024-11-08T05:00:00	6	Velocidad del viento	3.2
69086	7	Sololá	717	San Juan la Laguna	12	San Juan la Laguna	8	Agosto	2023-02-08T00:00:00	2024-11-08T05:00:00	7	Dirección del viento	3.22
69087	7	Sololá	717	San Juan la Laguna	12	San Juan la Laguna	8	Agosto	2023-02-08T00:00:00	2024-11-08T05:00:00	1	Precipitación	0
69088	7	Sololá	717	San Juan la Laguna	12	San Juan la Laguna	8	Agosto	2023-02-08T00:00:00	2024-11-08T05:00:00	8	Radiación solar	0
69089	7	Sololá	717	San Juan la Laguna	12	San Juan la Laguna	8	Agosto	2023-02-08T00:00:00	2024-11-08T06:00:00	2	Temperatura media	15.8
69090	7	Sololá	717	San Juan la Laguna	12	San Juan la Laguna	8	Agosto	2023-02-08T00:00:00	2024-11-08T06:00:00	4	Temperatura máxima	15.9
69091	7	Sololá	717	San Juan la Laguna	12	San Juan la Laguna	8	Agosto	2023-02-08T00:00:00	2024-11-08T06:00:00	3	Temperatura mínima	15.6
69092	7	Sololá	717	San Juan la Laguna	12	San Juan la Laguna	8	Agosto	2023-02-08T00:00:00	2024-11-08T06:00:00	5	Humedad	90
69093	7	Sololá	717	San Juan la Laguna	12	San Juan la Laguna	8	Agosto	2023-02-08T00:00:00	2024-11-08T06:00:00	6	Velocidad del viento	3.2
69094	7	Sololá	717	San Juan la Laguna	12	San Juan la Laguna	8	Agosto	2023-02-08T00:00:00	2024-11-08T06:00:00	7	Dirección del viento	3.22
69095	7	Sololá	717	San Juan la Laguna	12	San Juan la Laguna	8	Agosto	2023-02-08T00:00:00	2024-11-08T06:00:00	1	Precipitación	0
69096	7	Sololá	717	San Juan la Laguna	12	San Juan la Laguna	8	Agosto	2023-02-08T00:00:00	2024-11-08T06:00:00	8	Radiación solar	0
69097	7	Sololá	717	San Juan la Laguna	12	San Juan la Laguna	8	Agosto	2023-02-08T00:00:00	2024-11-08T07:00:00	2	Temperatura media	16.4
69098	7	Sololá	717	San Juan la Laguna	12	San Juan la Laguna	8	Agosto	2023-02-08T00:00:00	2024-11-08T07:00:00	4	Temperatura máxima	16.4
69099	7	Sololá	717	San Juan la Laguna	12	San Juan la Laguna	8	Agosto	2023-02-08T00:00:00	2024-11-08T07:00:00	3	Temperatura mínima	15.8
69100	7	Sololá	717	San Juan la Laguna	12	San Juan la Laguna	8	Agosto	2023-02-08T00:00:00	2024-11-08T07:00:00	5	Humedad	90
69101	7	Sololá	717	San Juan la Laguna	12	San Juan la Laguna	8	Agosto	2023-02-08T00:00:00	2024-11-08T07:00:00	6	Velocidad del viento	1.6
69102	7	Sololá	717	San Juan la Laguna	12	San Juan la Laguna	8	Agosto	2023-02-08T00:00:00	2024-11-08T07:00:00	7	Dirección del viento	1.61
69103	7	Sololá	717	San Juan la Laguna	12	San Juan la Laguna	8	Agosto	2023-02-08T00:00:00	2024-11-08T07:00:00	1	Precipitación	0
69104	7	Sololá	717	San Juan la Laguna	12	San Juan la Laguna	8	Agosto	2023-02-08T00:00:00	2024-11-08T07:00:00	8	Radiación solar	32
69105	7	Sololá	717	San Juan la Laguna	12	San Juan la Laguna	8	Agosto	2023-02-08T00:00:00	2024-11-08T08:00:00	2	Temperatura media	18.1
69106	7	Sololá	717	San Juan la Laguna	12	San Juan la Laguna	8	Agosto	2023-02-08T00:00:00	2024-11-08T08:00:00	4	Temperatura máxima	18.1
69107	7	Sololá	717	San Juan la Laguna	12	San Juan la Laguna	8	Agosto	2023-02-08T00:00:00	2024-11-08T08:00:00	3	Temperatura mínima	16.4
69108	7	Sololá	717	San Juan la Laguna	12	San Juan la Laguna	8	Agosto	2023-02-08T00:00:00	2024-11-08T08:00:00	5	Humedad	86
69109	7	Sololá	717	San Juan la Laguna	12	San Juan la Laguna	8	Agosto	2023-02-08T00:00:00	2024-11-08T08:00:00	6	Velocidad del viento	1.6
69110	7	Sololá	717	San Juan la Laguna	12	San Juan la Laguna	8	Agosto	2023-02-08T00:00:00	2024-11-08T08:00:00	7	Dirección del viento	1.61
69111	7	Sololá	717	San Juan la Laguna	12	San Juan la Laguna	8	Agosto	2023-02-08T00:00:00	2024-11-08T08:00:00	1	Precipitación	0
69112	7	Sololá	717	San Juan la Laguna	12	San Juan la Laguna	8	Agosto	2023-02-08T00:00:00	2024-11-08T08:00:00	8	Radiación solar	110
69113	7	Sololá	717	San Juan la Laguna	12	San Juan la Laguna	8	Agosto	2023-02-08T00:00:00	2024-11-08T09:00:00	2	Temperatura media	20.1
69114	7	Sololá	717	San Juan la Laguna	12	San Juan la Laguna	8	Agosto	2023-02-08T00:00:00	2024-11-08T09:00:00	4	Temperatura máxima	20.1
69115	7	Sololá	717	San Juan la Laguna	12	San Juan la Laguna	8	Agosto	2023-02-08T00:00:00	2024-11-08T09:00:00	3	Temperatura mínima	18.1
69116	7	Sololá	717	San Juan la Laguna	12	San Juan la Laguna	8	Agosto	2023-02-08T00:00:00	2024-11-08T09:00:00	5	Humedad	75
69117	7	Sololá	717	San Juan la Laguna	12	San Juan la Laguna	8	Agosto	2023-02-08T00:00:00	2024-11-08T09:00:00	6	Velocidad del viento	1.6
69118	7	Sololá	717	San Juan la Laguna	12	San Juan la Laguna	8	Agosto	2023-02-08T00:00:00	2024-11-08T09:00:00	7	Dirección del viento	1.61
69119	7	Sololá	717	San Juan la Laguna	12	San Juan la Laguna	8	Agosto	2023-02-08T00:00:00	2024-11-08T09:00:00	1	Precipitación	0
69120	7	Sololá	717	San Juan la Laguna	12	San Juan la Laguna	8	Agosto	2023-02-08T00:00:00	2024-11-08T09:00:00	8	Radiación solar	222
69121	7	Sololá	717	San Juan la Laguna	12	San Juan la Laguna	8	Agosto	2023-02-08T00:00:00	2024-11-08T10:00:00	2	Temperatura media	21.8
69122	7	Sololá	717	San Juan la Laguna	12	San Juan la Laguna	8	Agosto	2023-02-08T00:00:00	2024-11-08T10:00:00	4	Temperatura máxima	21.8
69123	7	Sololá	717	San Juan la Laguna	12	San Juan la Laguna	8	Agosto	2023-02-08T00:00:00	2024-11-08T10:00:00	3	Temperatura mínima	20.1
69124	7	Sololá	717	San Juan la Laguna	12	San Juan la Laguna	8	Agosto	2023-02-08T00:00:00	2024-11-08T10:00:00	5	Humedad	68
69125	7	Sololá	717	San Juan la Laguna	12	San Juan la Laguna	8	Agosto	2023-02-08T00:00:00	2024-11-08T10:00:00	6	Velocidad del viento	1.6
69126	7	Sololá	717	San Juan la Laguna	12	San Juan la Laguna	8	Agosto	2023-02-08T00:00:00	2024-11-08T10:00:00	7	Dirección del viento	1.61
69127	7	Sololá	717	San Juan la Laguna	12	San Juan la Laguna	8	Agosto	2023-02-08T00:00:00	2024-11-08T10:00:00	1	Precipitación	0
69128	7	Sololá	717	San Juan la Laguna	12	San Juan la Laguna	8	Agosto	2023-02-08T00:00:00	2024-11-08T10:00:00	8	Radiación solar	342
69129	7	Sololá	717	San Juan la Laguna	12	San Juan la Laguna	8	Agosto	2023-02-08T00:00:00	2024-11-08T11:00:00	2	Temperatura media	22.4
69130	7	Sololá	717	San Juan la Laguna	12	San Juan la Laguna	8	Agosto	2023-02-08T00:00:00	2024-11-08T11:00:00	4	Temperatura máxima	22.5
69131	7	Sololá	717	San Juan la Laguna	12	San Juan la Laguna	8	Agosto	2023-02-08T00:00:00	2024-11-08T11:00:00	3	Temperatura mínima	21.6
69132	7	Sololá	717	San Juan la Laguna	12	San Juan la Laguna	8	Agosto	2023-02-08T00:00:00	2024-11-08T11:00:00	5	Humedad	67
69133	7	Sololá	717	San Juan la Laguna	12	San Juan la Laguna	8	Agosto	2023-02-08T00:00:00	2024-11-08T11:00:00	6	Velocidad del viento	6.4
69134	7	Sololá	717	San Juan la Laguna	12	San Juan la Laguna	8	Agosto	2023-02-08T00:00:00	2024-11-08T11:00:00	7	Dirección del viento	6.44
69135	7	Sololá	717	San Juan la Laguna	12	San Juan la Laguna	8	Agosto	2023-02-08T00:00:00	2024-11-08T11:00:00	1	Precipitación	0.2
69136	7	Sololá	717	San Juan la Laguna	12	San Juan la Laguna	8	Agosto	2023-02-08T00:00:00	2024-11-08T11:00:00	8	Radiación solar	453
69137	7	Sololá	717	San Juan la Laguna	12	San Juan la Laguna	8	Agosto	2023-02-08T00:00:00	2024-11-08T12:00:00	2	Temperatura media	22.3
69138	7	Sololá	717	San Juan la Laguna	12	San Juan la Laguna	8	Agosto	2023-02-08T00:00:00	2024-11-08T12:00:00	4	Temperatura máxima	22.5
69139	7	Sololá	717	San Juan la Laguna	12	San Juan la Laguna	8	Agosto	2023-02-08T00:00:00	2024-11-08T12:00:00	3	Temperatura mínima	21.9
69140	7	Sololá	717	San Juan la Laguna	12	San Juan la Laguna	8	Agosto	2023-02-08T00:00:00	2024-11-08T12:00:00	5	Humedad	67
69141	7	Sololá	717	San Juan la Laguna	12	San Juan la Laguna	8	Agosto	2023-02-08T00:00:00	2024-11-08T12:00:00	6	Velocidad del viento	8
69142	7	Sololá	717	San Juan la Laguna	12	San Juan la Laguna	8	Agosto	2023-02-08T00:00:00	2024-11-08T12:00:00	7	Dirección del viento	8.05
69143	7	Sololá	717	San Juan la Laguna	12	San Juan la Laguna	8	Agosto	2023-02-08T00:00:00	2024-11-08T12:00:00	1	Precipitación	0
69144	7	Sololá	717	San Juan la Laguna	12	San Juan la Laguna	8	Agosto	2023-02-08T00:00:00	2024-11-08T12:00:00	8	Radiación solar	400
69145	7	Sololá	717	San Juan la Laguna	12	San Juan la Laguna	8	Agosto	2023-02-08T00:00:00	2024-11-08T13:00:00	2	Temperatura media	21.8
69146	7	Sololá	717	San Juan la Laguna	12	San Juan la Laguna	8	Agosto	2023-02-08T00:00:00	2024-11-08T13:00:00	4	Temperatura máxima	22.3
69147	7	Sololá	717	San Juan la Laguna	12	San Juan la Laguna	8	Agosto	2023-02-08T00:00:00	2024-11-08T13:00:00	3	Temperatura mínima	21.4
69148	7	Sololá	717	San Juan la Laguna	12	San Juan la Laguna	8	Agosto	2023-02-08T00:00:00	2024-11-08T13:00:00	5	Humedad	69
69149	7	Sololá	717	San Juan la Laguna	12	San Juan la Laguna	8	Agosto	2023-02-08T00:00:00	2024-11-08T13:00:00	6	Velocidad del viento	8
69150	7	Sololá	717	San Juan la Laguna	12	San Juan la Laguna	8	Agosto	2023-02-08T00:00:00	2024-11-08T13:00:00	7	Dirección del viento	8.05
69151	7	Sololá	717	San Juan la Laguna	12	San Juan la Laguna	8	Agosto	2023-02-08T00:00:00	2024-11-08T13:00:00	1	Precipitación	0
69152	7	Sololá	717	San Juan la Laguna	12	San Juan la Laguna	8	Agosto	2023-02-08T00:00:00	2024-11-08T13:00:00	8	Radiación solar	216
69153	7	Sololá	717	San Juan la Laguna	12	San Juan la Laguna	8	Agosto	2023-02-08T00:00:00	2024-11-08T14:00:00	2	Temperatura media	21.5
69154	7	Sololá	717	San Juan la Laguna	12	San Juan la Laguna	8	Agosto	2023-02-08T00:00:00	2024-11-08T14:00:00	4	Temperatura máxima	21.9
69155	7	Sololá	717	San Juan la Laguna	12	San Juan la Laguna	8	Agosto	2023-02-08T00:00:00	2024-11-08T14:00:00	3	Temperatura mínima	21.4
69156	7	Sololá	717	San Juan la Laguna	12	San Juan la Laguna	8	Agosto	2023-02-08T00:00:00	2024-11-08T14:00:00	5	Humedad	70
69157	7	Sololá	717	San Juan la Laguna	12	San Juan la Laguna	8	Agosto	2023-02-08T00:00:00	2024-11-08T14:00:00	6	Velocidad del viento	4.8
69158	7	Sololá	717	San Juan la Laguna	12	San Juan la Laguna	8	Agosto	2023-02-08T00:00:00	2024-11-08T14:00:00	7	Dirección del viento	4.83
69159	7	Sololá	717	San Juan la Laguna	12	San Juan la Laguna	8	Agosto	2023-02-08T00:00:00	2024-11-08T14:00:00	1	Precipitación	0
69160	7	Sololá	717	San Juan la Laguna	12	San Juan la Laguna	8	Agosto	2023-02-08T00:00:00	2024-11-08T14:00:00	8	Radiación solar	157
69161	7	Sololá	717	San Juan la Laguna	12	San Juan la Laguna	8	Agosto	2023-02-08T00:00:00	2024-11-08T15:00:00	2	Temperatura media	22.7
69162	7	Sololá	717	San Juan la Laguna	12	San Juan la Laguna	8	Agosto	2023-02-08T00:00:00	2024-11-08T15:00:00	4	Temperatura máxima	22.7
69163	7	Sololá	717	San Juan la Laguna	12	San Juan la Laguna	8	Agosto	2023-02-08T00:00:00	2024-11-08T15:00:00	3	Temperatura mínima	21.5
69164	7	Sololá	717	San Juan la Laguna	12	San Juan la Laguna	8	Agosto	2023-02-08T00:00:00	2024-11-08T15:00:00	5	Humedad	64
69165	7	Sololá	717	San Juan la Laguna	12	San Juan la Laguna	8	Agosto	2023-02-08T00:00:00	2024-11-08T15:00:00	6	Velocidad del viento	6.4
69166	7	Sololá	717	San Juan la Laguna	12	San Juan la Laguna	8	Agosto	2023-02-08T00:00:00	2024-11-08T15:00:00	7	Dirección del viento	6.44
69167	7	Sololá	717	San Juan la Laguna	12	San Juan la Laguna	8	Agosto	2023-02-08T00:00:00	2024-11-08T15:00:00	1	Precipitación	0
69168	7	Sololá	717	San Juan la Laguna	12	San Juan la Laguna	8	Agosto	2023-02-08T00:00:00	2024-11-08T15:00:00	8	Radiación solar	285
69169	7	Sololá	717	San Juan la Laguna	12	San Juan la Laguna	8	Agosto	2023-02-08T00:00:00	2024-11-08T16:00:00	2	Temperatura media	21.7
69170	7	Sololá	717	San Juan la Laguna	12	San Juan la Laguna	8	Agosto	2023-02-08T00:00:00	2024-11-08T16:00:00	4	Temperatura máxima	22.7
69171	7	Sololá	717	San Juan la Laguna	12	San Juan la Laguna	8	Agosto	2023-02-08T00:00:00	2024-11-08T16:00:00	3	Temperatura mínima	21.7
69172	7	Sololá	717	San Juan la Laguna	12	San Juan la Laguna	8	Agosto	2023-02-08T00:00:00	2024-11-08T16:00:00	5	Humedad	69
69173	7	Sololá	717	San Juan la Laguna	12	San Juan la Laguna	8	Agosto	2023-02-08T00:00:00	2024-11-08T16:00:00	6	Velocidad del viento	3.2
69174	7	Sololá	717	San Juan la Laguna	12	San Juan la Laguna	8	Agosto	2023-02-08T00:00:00	2024-11-08T16:00:00	7	Dirección del viento	3.22
69175	7	Sololá	717	San Juan la Laguna	12	San Juan la Laguna	8	Agosto	2023-02-08T00:00:00	2024-11-08T16:00:00	1	Precipitación	0
69176	7	Sololá	717	San Juan la Laguna	12	San Juan la Laguna	8	Agosto	2023-02-08T00:00:00	2024-11-08T16:00:00	8	Radiación solar	132
69177	7	Sololá	717	San Juan la Laguna	12	San Juan la Laguna	8	Agosto	2023-02-08T00:00:00	2024-11-08T17:00:00	2	Temperatura media	20.6
69178	7	Sololá	717	San Juan la Laguna	12	San Juan la Laguna	8	Agosto	2023-02-08T00:00:00	2024-11-08T17:00:00	4	Temperatura máxima	21.7
69179	7	Sololá	717	San Juan la Laguna	12	San Juan la Laguna	8	Agosto	2023-02-08T00:00:00	2024-11-08T17:00:00	3	Temperatura mínima	20.6
69180	7	Sololá	717	San Juan la Laguna	12	San Juan la Laguna	8	Agosto	2023-02-08T00:00:00	2024-11-08T17:00:00	5	Humedad	79
69181	7	Sololá	717	San Juan la Laguna	12	San Juan la Laguna	8	Agosto	2023-02-08T00:00:00	2024-11-08T17:00:00	6	Velocidad del viento	0
69182	7	Sololá	717	San Juan la Laguna	12	San Juan la Laguna	8	Agosto	2023-02-08T00:00:00	2024-11-08T17:00:00	7	Dirección del viento	0
69183	7	Sololá	717	San Juan la Laguna	12	San Juan la Laguna	8	Agosto	2023-02-08T00:00:00	2024-11-08T17:00:00	1	Precipitación	0
69184	7	Sololá	717	San Juan la Laguna	12	San Juan la Laguna	8	Agosto	2023-02-08T00:00:00	2024-11-08T17:00:00	8	Radiación solar	48
69185	7	Sololá	717	San Juan la Laguna	12	San Juan la Laguna	8	Agosto	2023-02-08T00:00:00	2024-11-08T18:00:00	2	Temperatura media	20.1
69186	7	Sololá	717	San Juan la Laguna	12	San Juan la Laguna	8	Agosto	2023-02-08T00:00:00	2024-11-08T18:00:00	4	Temperatura máxima	20.6
69187	7	Sololá	717	San Juan la Laguna	12	San Juan la Laguna	8	Agosto	2023-02-08T00:00:00	2024-11-08T18:00:00	3	Temperatura mínima	20.1
69188	7	Sololá	717	San Juan la Laguna	12	San Juan la Laguna	8	Agosto	2023-02-08T00:00:00	2024-11-08T18:00:00	5	Humedad	80
69189	7	Sololá	717	San Juan la Laguna	12	San Juan la Laguna	8	Agosto	2023-02-08T00:00:00	2024-11-08T18:00:00	6	Velocidad del viento	0
69190	7	Sololá	717	San Juan la Laguna	12	San Juan la Laguna	8	Agosto	2023-02-08T00:00:00	2024-11-08T18:00:00	7	Dirección del viento	0
69191	7	Sololá	717	San Juan la Laguna	12	San Juan la Laguna	8	Agosto	2023-02-08T00:00:00	2024-11-08T18:00:00	1	Precipitación	0
69192	7	Sololá	717	San Juan la Laguna	12	San Juan la Laguna	8	Agosto	2023-02-08T00:00:00	2024-11-08T18:00:00	8	Radiación solar	24
69193	7	Sololá	717	San Juan la Laguna	12	San Juan la Laguna	8	Agosto	2023-02-08T00:00:00	2024-11-08T19:00:00	2	Temperatura media	19.6
69194	7	Sololá	717	San Juan la Laguna	12	San Juan la Laguna	8	Agosto	2023-02-08T00:00:00	2024-11-08T19:00:00	4	Temperatura máxima	20.4
69195	7	Sololá	717	San Juan la Laguna	12	San Juan la Laguna	8	Agosto	2023-02-08T00:00:00	2024-11-08T19:00:00	3	Temperatura mínima	19.6
69196	7	Sololá	717	San Juan la Laguna	12	San Juan la Laguna	8	Agosto	2023-02-08T00:00:00	2024-11-08T19:00:00	5	Humedad	78
69197	7	Sololá	717	San Juan la Laguna	12	San Juan la Laguna	8	Agosto	2023-02-08T00:00:00	2024-11-08T19:00:00	6	Velocidad del viento	3.2
69198	7	Sololá	717	San Juan la Laguna	12	San Juan la Laguna	8	Agosto	2023-02-08T00:00:00	2024-11-08T19:00:00	7	Dirección del viento	3.22
69199	7	Sololá	717	San Juan la Laguna	12	San Juan la Laguna	8	Agosto	2023-02-08T00:00:00	2024-11-08T19:00:00	1	Precipitación	0
69200	7	Sololá	717	San Juan la Laguna	12	San Juan la Laguna	8	Agosto	2023-02-08T00:00:00	2024-11-08T19:00:00	8	Radiación solar	0
69201	7	Sololá	717	San Juan la Laguna	12	San Juan la Laguna	8	Agosto	2023-02-08T00:00:00	2024-11-08T20:00:00	2	Temperatura media	18.7
69202	7	Sololá	717	San Juan la Laguna	12	San Juan la Laguna	8	Agosto	2023-02-08T00:00:00	2024-11-08T20:00:00	4	Temperatura máxima	19.6
69203	7	Sololá	717	San Juan la Laguna	12	San Juan la Laguna	8	Agosto	2023-02-08T00:00:00	2024-11-08T20:00:00	3	Temperatura mínima	18.7
69204	7	Sololá	717	San Juan la Laguna	12	San Juan la Laguna	8	Agosto	2023-02-08T00:00:00	2024-11-08T20:00:00	5	Humedad	83
69205	7	Sololá	717	San Juan la Laguna	12	San Juan la Laguna	8	Agosto	2023-02-08T00:00:00	2024-11-08T20:00:00	6	Velocidad del viento	0
69206	7	Sololá	717	San Juan la Laguna	12	San Juan la Laguna	8	Agosto	2023-02-08T00:00:00	2024-11-08T20:00:00	7	Dirección del viento	0
69207	7	Sololá	717	San Juan la Laguna	12	San Juan la Laguna	8	Agosto	2023-02-08T00:00:00	2024-11-08T20:00:00	1	Precipitación	0
69208	7	Sololá	717	San Juan la Laguna	12	San Juan la Laguna	8	Agosto	2023-02-08T00:00:00	2024-11-08T20:00:00	8	Radiación solar	0
69209	7	Sololá	717	San Juan la Laguna	12	San Juan la Laguna	8	Agosto	2023-02-08T00:00:00	2024-11-08T21:00:00	2	Temperatura media	18.8
69210	7	Sololá	717	San Juan la Laguna	12	San Juan la Laguna	8	Agosto	2023-02-08T00:00:00	2024-11-08T21:00:00	4	Temperatura máxima	18.9
69211	7	Sololá	717	San Juan la Laguna	12	San Juan la Laguna	8	Agosto	2023-02-08T00:00:00	2024-11-08T21:00:00	3	Temperatura mínima	18.4
69212	7	Sololá	717	San Juan la Laguna	12	San Juan la Laguna	8	Agosto	2023-02-08T00:00:00	2024-11-08T21:00:00	5	Humedad	81
69213	7	Sololá	717	San Juan la Laguna	12	San Juan la Laguna	8	Agosto	2023-02-08T00:00:00	2024-11-08T21:00:00	6	Velocidad del viento	0
69214	7	Sololá	717	San Juan la Laguna	12	San Juan la Laguna	8	Agosto	2023-02-08T00:00:00	2024-11-08T21:00:00	7	Dirección del viento	0
69215	7	Sololá	717	San Juan la Laguna	12	San Juan la Laguna	8	Agosto	2023-02-08T00:00:00	2024-11-08T21:00:00	1	Precipitación	0
69216	7	Sololá	717	San Juan la Laguna	12	San Juan la Laguna	8	Agosto	2023-02-08T00:00:00	2024-11-08T21:00:00	8	Radiación solar	0
69217	7	Sololá	717	San Juan la Laguna	12	San Juan la Laguna	8	Agosto	2023-02-08T00:00:00	2024-11-08T22:00:00	2	Temperatura media	18.4
69218	7	Sololá	717	San Juan la Laguna	12	San Juan la Laguna	8	Agosto	2023-02-08T00:00:00	2024-11-08T22:00:00	4	Temperatura máxima	18.9
69219	7	Sololá	717	San Juan la Laguna	12	San Juan la Laguna	8	Agosto	2023-02-08T00:00:00	2024-11-08T22:00:00	3	Temperatura mínima	18.3
69220	7	Sololá	717	San Juan la Laguna	12	San Juan la Laguna	8	Agosto	2023-02-08T00:00:00	2024-11-08T22:00:00	5	Humedad	83
69221	7	Sololá	717	San Juan la Laguna	12	San Juan la Laguna	8	Agosto	2023-02-08T00:00:00	2024-11-08T22:00:00	6	Velocidad del viento	0
69222	7	Sololá	717	San Juan la Laguna	12	San Juan la Laguna	8	Agosto	2023-02-08T00:00:00	2024-11-08T22:00:00	7	Dirección del viento	0
69223	7	Sololá	717	San Juan la Laguna	12	San Juan la Laguna	8	Agosto	2023-02-08T00:00:00	2024-11-08T22:00:00	1	Precipitación	0
69224	7	Sololá	717	San Juan la Laguna	12	San Juan la Laguna	8	Agosto	2023-02-08T00:00:00	2024-11-08T22:00:00	8	Radiación solar	0
69225	7	Sololá	717	San Juan la Laguna	12	San Juan la Laguna	8	Agosto	2023-02-08T00:00:00	2024-11-08T23:00:00	2	Temperatura media	18.1
69226	7	Sololá	717	San Juan la Laguna	12	San Juan la Laguna	8	Agosto	2023-02-08T00:00:00	2024-11-08T23:00:00	4	Temperatura máxima	18.4
69227	7	Sololá	717	San Juan la Laguna	12	San Juan la Laguna	8	Agosto	2023-02-08T00:00:00	2024-11-08T23:00:00	3	Temperatura mínima	17.9
69228	7	Sololá	717	San Juan la Laguna	12	San Juan la Laguna	8	Agosto	2023-02-08T00:00:00	2024-11-08T23:00:00	5	Humedad	85
69229	7	Sololá	717	San Juan la Laguna	12	San Juan la Laguna	8	Agosto	2023-02-08T00:00:00	2024-11-08T23:00:00	6	Velocidad del viento	0
69230	7	Sololá	717	San Juan la Laguna	12	San Juan la Laguna	8	Agosto	2023-02-08T00:00:00	2024-11-08T23:00:00	7	Dirección del viento	0
69231	7	Sololá	717	San Juan la Laguna	12	San Juan la Laguna	8	Agosto	2023-02-08T00:00:00	2024-11-08T23:00:00	1	Precipitación	0
69232	7	Sololá	717	San Juan la Laguna	12	San Juan la Laguna	8	Agosto	2023-02-08T00:00:00	2024-11-08T23:00:00	8	Radiación solar	0
69233	7	Sololá	717	San Juan la Laguna	12	San Juan la Laguna	8	Agosto	2023-03-08T00:00:00	2024-11-08T00:00:00	2	Temperatura media	17.4
69234	7	Sololá	717	San Juan la Laguna	12	San Juan la Laguna	8	Agosto	2023-03-08T00:00:00	2024-11-08T00:00:00	4	Temperatura máxima	18.1
69235	7	Sololá	717	San Juan la Laguna	12	San Juan la Laguna	8	Agosto	2023-03-08T00:00:00	2024-11-08T00:00:00	3	Temperatura mínima	17.3
69236	7	Sololá	717	San Juan la Laguna	12	San Juan la Laguna	8	Agosto	2023-03-08T00:00:00	2024-11-08T00:00:00	5	Humedad	87
69237	7	Sololá	717	San Juan la Laguna	12	San Juan la Laguna	8	Agosto	2023-03-08T00:00:00	2024-11-08T00:00:00	6	Velocidad del viento	1.6
69238	7	Sololá	717	San Juan la Laguna	12	San Juan la Laguna	8	Agosto	2023-03-08T00:00:00	2024-11-08T00:00:00	7	Dirección del viento	1.61
69239	7	Sololá	717	San Juan la Laguna	12	San Juan la Laguna	8	Agosto	2023-03-08T00:00:00	2024-11-08T00:00:00	1	Precipitación	0
69240	7	Sololá	717	San Juan la Laguna	12	San Juan la Laguna	8	Agosto	2023-03-08T00:00:00	2024-11-08T00:00:00	8	Radiación solar	0
69241	7	Sololá	717	San Juan la Laguna	12	San Juan la Laguna	8	Agosto	2023-03-08T00:00:00	2024-11-08T01:00:00	2	Temperatura media	17.1
69242	7	Sololá	717	San Juan la Laguna	12	San Juan la Laguna	8	Agosto	2023-03-08T00:00:00	2024-11-08T01:00:00	4	Temperatura máxima	17.5
69243	7	Sololá	717	San Juan la Laguna	12	San Juan la Laguna	8	Agosto	2023-03-08T00:00:00	2024-11-08T01:00:00	3	Temperatura mínima	17.1
69244	7	Sololá	717	San Juan la Laguna	12	San Juan la Laguna	8	Agosto	2023-03-08T00:00:00	2024-11-08T01:00:00	5	Humedad	90
69245	7	Sololá	717	San Juan la Laguna	12	San Juan la Laguna	8	Agosto	2023-03-08T00:00:00	2024-11-08T01:00:00	6	Velocidad del viento	0
69246	7	Sololá	717	San Juan la Laguna	12	San Juan la Laguna	8	Agosto	2023-03-08T00:00:00	2024-11-08T01:00:00	7	Dirección del viento	0
69247	7	Sololá	717	San Juan la Laguna	12	San Juan la Laguna	8	Agosto	2023-03-08T00:00:00	2024-11-08T01:00:00	1	Precipitación	0
69248	7	Sololá	717	San Juan la Laguna	12	San Juan la Laguna	8	Agosto	2023-03-08T00:00:00	2024-11-08T01:00:00	8	Radiación solar	0
69249	7	Sololá	717	San Juan la Laguna	12	San Juan la Laguna	8	Agosto	2023-03-08T00:00:00	2024-11-08T02:00:00	2	Temperatura media	16.8
69250	7	Sololá	717	San Juan la Laguna	12	San Juan la Laguna	8	Agosto	2023-03-08T00:00:00	2024-11-08T02:00:00	4	Temperatura máxima	17.1
69251	7	Sololá	717	San Juan la Laguna	12	San Juan la Laguna	8	Agosto	2023-03-08T00:00:00	2024-11-08T02:00:00	3	Temperatura mínima	16.7
69252	7	Sololá	717	San Juan la Laguna	12	San Juan la Laguna	8	Agosto	2023-03-08T00:00:00	2024-11-08T02:00:00	5	Humedad	90
69253	7	Sololá	717	San Juan la Laguna	12	San Juan la Laguna	8	Agosto	2023-03-08T00:00:00	2024-11-08T02:00:00	6	Velocidad del viento	3.2
69254	7	Sololá	717	San Juan la Laguna	12	San Juan la Laguna	8	Agosto	2023-03-08T00:00:00	2024-11-08T02:00:00	7	Dirección del viento	3.22
69255	7	Sololá	717	San Juan la Laguna	12	San Juan la Laguna	8	Agosto	2023-03-08T00:00:00	2024-11-08T02:00:00	1	Precipitación	0
69256	7	Sololá	717	San Juan la Laguna	12	San Juan la Laguna	8	Agosto	2023-03-08T00:00:00	2024-11-08T02:00:00	8	Radiación solar	0
69257	7	Sololá	717	San Juan la Laguna	12	San Juan la Laguna	8	Agosto	2023-03-08T00:00:00	2024-11-08T03:00:00	2	Temperatura media	16.9
69258	7	Sololá	717	San Juan la Laguna	12	San Juan la Laguna	8	Agosto	2023-03-08T00:00:00	2024-11-08T03:00:00	4	Temperatura máxima	17.1
69259	7	Sololá	717	San Juan la Laguna	12	San Juan la Laguna	8	Agosto	2023-03-08T00:00:00	2024-11-08T03:00:00	3	Temperatura mínima	16.8
69260	7	Sololá	717	San Juan la Laguna	12	San Juan la Laguna	8	Agosto	2023-03-08T00:00:00	2024-11-08T03:00:00	5	Humedad	89
69261	7	Sololá	717	San Juan la Laguna	12	San Juan la Laguna	8	Agosto	2023-03-08T00:00:00	2024-11-08T03:00:00	6	Velocidad del viento	3.2
69262	7	Sololá	717	San Juan la Laguna	12	San Juan la Laguna	8	Agosto	2023-03-08T00:00:00	2024-11-08T03:00:00	7	Dirección del viento	3.22
69263	7	Sololá	717	San Juan la Laguna	12	San Juan la Laguna	8	Agosto	2023-03-08T00:00:00	2024-11-08T03:00:00	1	Precipitación	0
69264	7	Sololá	717	San Juan la Laguna	12	San Juan la Laguna	8	Agosto	2023-03-08T00:00:00	2024-11-08T03:00:00	8	Radiación solar	0
69265	7	Sololá	717	San Juan la Laguna	12	San Juan la Laguna	8	Agosto	2023-03-08T00:00:00	2024-11-08T04:00:00	2	Temperatura media	17.2
69266	7	Sololá	717	San Juan la Laguna	12	San Juan la Laguna	8	Agosto	2023-03-08T00:00:00	2024-11-08T04:00:00	4	Temperatura máxima	17.5
69267	7	Sololá	717	San Juan la Laguna	12	San Juan la Laguna	8	Agosto	2023-03-08T00:00:00	2024-11-08T04:00:00	3	Temperatura mínima	16.9
69268	7	Sololá	717	San Juan la Laguna	12	San Juan la Laguna	8	Agosto	2023-03-08T00:00:00	2024-11-08T04:00:00	5	Humedad	86
69269	7	Sololá	717	San Juan la Laguna	12	San Juan la Laguna	8	Agosto	2023-03-08T00:00:00	2024-11-08T04:00:00	6	Velocidad del viento	4.8
69270	7	Sololá	717	San Juan la Laguna	12	San Juan la Laguna	8	Agosto	2023-03-08T00:00:00	2024-11-08T04:00:00	7	Dirección del viento	4.83
69271	7	Sololá	717	San Juan la Laguna	12	San Juan la Laguna	8	Agosto	2023-03-08T00:00:00	2024-11-08T04:00:00	1	Precipitación	0
69272	7	Sololá	717	San Juan la Laguna	12	San Juan la Laguna	8	Agosto	2023-03-08T00:00:00	2024-11-08T04:00:00	8	Radiación solar	0
69273	7	Sololá	717	San Juan la Laguna	12	San Juan la Laguna	8	Agosto	2023-03-08T00:00:00	2024-11-08T05:00:00	2	Temperatura media	16.3
69274	7	Sololá	717	San Juan la Laguna	12	San Juan la Laguna	8	Agosto	2023-03-08T00:00:00	2024-11-08T05:00:00	4	Temperatura máxima	17.2
69275	7	Sololá	717	San Juan la Laguna	12	San Juan la Laguna	8	Agosto	2023-03-08T00:00:00	2024-11-08T05:00:00	3	Temperatura mínima	16.2
69276	7	Sololá	717	San Juan la Laguna	12	San Juan la Laguna	8	Agosto	2023-03-08T00:00:00	2024-11-08T05:00:00	5	Humedad	87
69277	7	Sololá	717	San Juan la Laguna	12	San Juan la Laguna	8	Agosto	2023-03-08T00:00:00	2024-11-08T05:00:00	6	Velocidad del viento	3.2
69278	7	Sololá	717	San Juan la Laguna	12	San Juan la Laguna	8	Agosto	2023-03-08T00:00:00	2024-11-08T05:00:00	7	Dirección del viento	3.22
69279	7	Sololá	717	San Juan la Laguna	12	San Juan la Laguna	8	Agosto	2023-03-08T00:00:00	2024-11-08T05:00:00	1	Precipitación	0
69280	7	Sololá	717	San Juan la Laguna	12	San Juan la Laguna	8	Agosto	2023-03-08T00:00:00	2024-11-08T05:00:00	8	Radiación solar	0
69281	7	Sololá	717	San Juan la Laguna	12	San Juan la Laguna	8	Agosto	2023-03-08T00:00:00	2024-11-08T06:00:00	2	Temperatura media	16.4
69282	7	Sololá	717	San Juan la Laguna	12	San Juan la Laguna	8	Agosto	2023-03-08T00:00:00	2024-11-08T06:00:00	4	Temperatura máxima	16.4
69283	7	Sololá	717	San Juan la Laguna	12	San Juan la Laguna	8	Agosto	2023-03-08T00:00:00	2024-11-08T06:00:00	3	Temperatura mínima	16.2
69284	7	Sololá	717	San Juan la Laguna	12	San Juan la Laguna	8	Agosto	2023-03-08T00:00:00	2024-11-08T06:00:00	5	Humedad	83
69285	7	Sololá	717	San Juan la Laguna	12	San Juan la Laguna	8	Agosto	2023-03-08T00:00:00	2024-11-08T06:00:00	6	Velocidad del viento	6.4
69286	7	Sololá	717	San Juan la Laguna	12	San Juan la Laguna	8	Agosto	2023-03-08T00:00:00	2024-11-08T06:00:00	7	Dirección del viento	6.44
69287	7	Sololá	717	San Juan la Laguna	12	San Juan la Laguna	8	Agosto	2023-03-08T00:00:00	2024-11-08T06:00:00	1	Precipitación	0
69288	7	Sololá	717	San Juan la Laguna	12	San Juan la Laguna	8	Agosto	2023-03-08T00:00:00	2024-11-08T06:00:00	8	Radiación solar	1
69289	7	Sololá	717	San Juan la Laguna	12	San Juan la Laguna	8	Agosto	2023-03-08T00:00:00	2024-11-08T07:00:00	2	Temperatura media	18.4
69290	7	Sololá	717	San Juan la Laguna	12	San Juan la Laguna	8	Agosto	2023-03-08T00:00:00	2024-11-08T07:00:00	4	Temperatura máxima	18.4
69291	7	Sololá	717	San Juan la Laguna	12	San Juan la Laguna	8	Agosto	2023-03-08T00:00:00	2024-11-08T07:00:00	3	Temperatura mínima	16.4
69292	7	Sololá	717	San Juan la Laguna	12	San Juan la Laguna	8	Agosto	2023-03-08T00:00:00	2024-11-08T07:00:00	5	Humedad	79
69293	7	Sololá	717	San Juan la Laguna	12	San Juan la Laguna	8	Agosto	2023-03-08T00:00:00	2024-11-08T07:00:00	6	Velocidad del viento	3.2
69294	7	Sololá	717	San Juan la Laguna	12	San Juan la Laguna	8	Agosto	2023-03-08T00:00:00	2024-11-08T07:00:00	7	Dirección del viento	3.22
69295	7	Sololá	717	San Juan la Laguna	12	San Juan la Laguna	8	Agosto	2023-03-08T00:00:00	2024-11-08T07:00:00	1	Precipitación	0
69296	7	Sololá	717	San Juan la Laguna	12	San Juan la Laguna	8	Agosto	2023-03-08T00:00:00	2024-11-08T07:00:00	8	Radiación solar	82
69297	7	Sololá	717	San Juan la Laguna	12	San Juan la Laguna	8	Agosto	2023-03-08T00:00:00	2024-11-08T08:00:00	2	Temperatura media	21.2
69298	7	Sololá	717	San Juan la Laguna	12	San Juan la Laguna	8	Agosto	2023-03-08T00:00:00	2024-11-08T08:00:00	4	Temperatura máxima	21.2
69299	7	Sololá	717	San Juan la Laguna	12	San Juan la Laguna	8	Agosto	2023-03-08T00:00:00	2024-11-08T08:00:00	3	Temperatura mínima	18.4
69300	7	Sololá	717	San Juan la Laguna	12	San Juan la Laguna	8	Agosto	2023-03-08T00:00:00	2024-11-08T08:00:00	5	Humedad	75
69301	7	Sololá	717	San Juan la Laguna	12	San Juan la Laguna	8	Agosto	2023-03-08T00:00:00	2024-11-08T08:00:00	6	Velocidad del viento	1.6
69302	7	Sololá	717	San Juan la Laguna	12	San Juan la Laguna	8	Agosto	2023-03-08T00:00:00	2024-11-08T08:00:00	7	Dirección del viento	1.61
69303	7	Sololá	717	San Juan la Laguna	12	San Juan la Laguna	8	Agosto	2023-03-08T00:00:00	2024-11-08T08:00:00	1	Precipitación	0
69304	7	Sololá	717	San Juan la Laguna	12	San Juan la Laguna	8	Agosto	2023-03-08T00:00:00	2024-11-08T08:00:00	8	Radiación solar	282
69305	7	Sololá	717	San Juan la Laguna	12	San Juan la Laguna	8	Agosto	2023-03-08T00:00:00	2024-11-08T09:00:00	2	Temperatura media	22.7
69306	7	Sololá	717	San Juan la Laguna	12	San Juan la Laguna	8	Agosto	2023-03-08T00:00:00	2024-11-08T09:00:00	4	Temperatura máxima	22.7
69307	7	Sololá	717	San Juan la Laguna	12	San Juan la Laguna	8	Agosto	2023-03-08T00:00:00	2024-11-08T09:00:00	3	Temperatura mínima	21.2
69308	7	Sololá	717	San Juan la Laguna	12	San Juan la Laguna	8	Agosto	2023-03-08T00:00:00	2024-11-08T09:00:00	5	Humedad	66
69309	7	Sololá	717	San Juan la Laguna	12	San Juan la Laguna	8	Agosto	2023-03-08T00:00:00	2024-11-08T09:00:00	6	Velocidad del viento	3.2
69310	7	Sololá	717	San Juan la Laguna	12	San Juan la Laguna	8	Agosto	2023-03-08T00:00:00	2024-11-08T09:00:00	7	Dirección del viento	3.22
69311	7	Sololá	717	San Juan la Laguna	12	San Juan la Laguna	8	Agosto	2023-03-08T00:00:00	2024-11-08T09:00:00	1	Precipitación	0
69312	7	Sololá	717	San Juan la Laguna	12	San Juan la Laguna	8	Agosto	2023-03-08T00:00:00	2024-11-08T09:00:00	8	Radiación solar	521
69313	7	Sololá	717	San Juan la Laguna	12	San Juan la Laguna	8	Agosto	2023-03-08T00:00:00	2024-11-08T10:00:00	2	Temperatura media	23.9
69314	7	Sololá	717	San Juan la Laguna	12	San Juan la Laguna	8	Agosto	2023-03-08T00:00:00	2024-11-08T10:00:00	4	Temperatura máxima	24.2
69315	7	Sololá	717	San Juan la Laguna	12	San Juan la Laguna	8	Agosto	2023-03-08T00:00:00	2024-11-08T10:00:00	3	Temperatura mínima	22.7
69316	7	Sololá	717	San Juan la Laguna	12	San Juan la Laguna	8	Agosto	2023-03-08T00:00:00	2024-11-08T10:00:00	5	Humedad	60
69317	7	Sololá	717	San Juan la Laguna	12	San Juan la Laguna	8	Agosto	2023-03-08T00:00:00	2024-11-08T10:00:00	6	Velocidad del viento	4.8
69318	7	Sololá	717	San Juan la Laguna	12	San Juan la Laguna	8	Agosto	2023-03-08T00:00:00	2024-11-08T10:00:00	7	Dirección del viento	4.83
69319	7	Sololá	717	San Juan la Laguna	12	San Juan la Laguna	8	Agosto	2023-03-08T00:00:00	2024-11-08T10:00:00	1	Precipitación	0
69320	7	Sololá	717	San Juan la Laguna	12	San Juan la Laguna	8	Agosto	2023-03-08T00:00:00	2024-11-08T10:00:00	8	Radiación solar	673
69321	7	Sololá	717	San Juan la Laguna	12	San Juan la Laguna	8	Agosto	2023-03-08T00:00:00	2024-11-08T11:00:00	2	Temperatura media	25.2
69322	7	Sololá	717	San Juan la Laguna	12	San Juan la Laguna	8	Agosto	2023-03-08T00:00:00	2024-11-08T11:00:00	4	Temperatura máxima	25.2
69323	7	Sololá	717	San Juan la Laguna	12	San Juan la Laguna	8	Agosto	2023-03-08T00:00:00	2024-11-08T11:00:00	3	Temperatura mínima	23.8
69324	7	Sololá	717	San Juan la Laguna	12	San Juan la Laguna	8	Agosto	2023-03-08T00:00:00	2024-11-08T11:00:00	5	Humedad	54
69325	7	Sololá	717	San Juan la Laguna	12	San Juan la Laguna	8	Agosto	2023-03-08T00:00:00	2024-11-08T11:00:00	6	Velocidad del viento	6.4
69326	7	Sololá	717	San Juan la Laguna	12	San Juan la Laguna	8	Agosto	2023-03-08T00:00:00	2024-11-08T11:00:00	7	Dirección del viento	6.44
69327	7	Sololá	717	San Juan la Laguna	12	San Juan la Laguna	8	Agosto	2023-03-08T00:00:00	2024-11-08T11:00:00	1	Precipitación	0
69328	7	Sololá	717	San Juan la Laguna	12	San Juan la Laguna	8	Agosto	2023-03-08T00:00:00	2024-11-08T11:00:00	8	Radiación solar	887
69329	7	Sololá	717	San Juan la Laguna	12	San Juan la Laguna	8	Agosto	2023-03-08T00:00:00	2024-11-08T12:00:00	2	Temperatura media	24.6
69330	7	Sololá	717	San Juan la Laguna	12	San Juan la Laguna	8	Agosto	2023-03-08T00:00:00	2024-11-08T12:00:00	4	Temperatura máxima	25.7
69331	7	Sololá	717	San Juan la Laguna	12	San Juan la Laguna	8	Agosto	2023-03-08T00:00:00	2024-11-08T12:00:00	3	Temperatura mínima	24.6
69332	7	Sololá	717	San Juan la Laguna	12	San Juan la Laguna	8	Agosto	2023-03-08T00:00:00	2024-11-08T12:00:00	5	Humedad	68
69333	7	Sololá	717	San Juan la Laguna	12	San Juan la Laguna	8	Agosto	2023-03-08T00:00:00	2024-11-08T12:00:00	6	Velocidad del viento	6.4
69334	7	Sololá	717	San Juan la Laguna	12	San Juan la Laguna	8	Agosto	2023-03-08T00:00:00	2024-11-08T12:00:00	7	Dirección del viento	6.44
69335	7	Sololá	717	San Juan la Laguna	12	San Juan la Laguna	8	Agosto	2023-03-08T00:00:00	2024-11-08T12:00:00	1	Precipitación	0
69336	7	Sololá	717	San Juan la Laguna	12	San Juan la Laguna	8	Agosto	2023-03-08T00:00:00	2024-11-08T12:00:00	8	Radiación solar	1010
69337	7	Sololá	717	San Juan la Laguna	12	San Juan la Laguna	8	Agosto	2023-03-08T00:00:00	2024-11-08T13:00:00	2	Temperatura media	23.6
69338	7	Sololá	717	San Juan la Laguna	12	San Juan la Laguna	8	Agosto	2023-03-08T00:00:00	2024-11-08T13:00:00	4	Temperatura máxima	24.8
69339	7	Sololá	717	San Juan la Laguna	12	San Juan la Laguna	8	Agosto	2023-03-08T00:00:00	2024-11-08T13:00:00	3	Temperatura mínima	23.6
69340	7	Sololá	717	San Juan la Laguna	12	San Juan la Laguna	8	Agosto	2023-03-08T00:00:00	2024-11-08T13:00:00	5	Humedad	73
69341	7	Sololá	717	San Juan la Laguna	12	San Juan la Laguna	8	Agosto	2023-03-08T00:00:00	2024-11-08T13:00:00	6	Velocidad del viento	8
69342	7	Sololá	717	San Juan la Laguna	12	San Juan la Laguna	8	Agosto	2023-03-08T00:00:00	2024-11-08T13:00:00	7	Dirección del viento	8.05
69343	7	Sololá	717	San Juan la Laguna	12	San Juan la Laguna	8	Agosto	2023-03-08T00:00:00	2024-11-08T13:00:00	1	Precipitación	0
69344	7	Sololá	717	San Juan la Laguna	12	San Juan la Laguna	8	Agosto	2023-03-08T00:00:00	2024-11-08T13:00:00	8	Radiación solar	696
69345	7	Sololá	717	San Juan la Laguna	12	San Juan la Laguna	8	Agosto	2023-03-08T00:00:00	2024-11-08T14:00:00	2	Temperatura media	23.7
69346	7	Sololá	717	San Juan la Laguna	12	San Juan la Laguna	8	Agosto	2023-03-08T00:00:00	2024-11-08T14:00:00	4	Temperatura máxima	23.8
69347	7	Sololá	717	San Juan la Laguna	12	San Juan la Laguna	8	Agosto	2023-03-08T00:00:00	2024-11-08T14:00:00	3	Temperatura mínima	22.9
69348	7	Sololá	717	San Juan la Laguna	12	San Juan la Laguna	8	Agosto	2023-03-08T00:00:00	2024-11-08T14:00:00	5	Humedad	73
69349	7	Sololá	717	San Juan la Laguna	12	San Juan la Laguna	8	Agosto	2023-03-08T00:00:00	2024-11-08T14:00:00	6	Velocidad del viento	4.8
69350	7	Sololá	717	San Juan la Laguna	12	San Juan la Laguna	8	Agosto	2023-03-08T00:00:00	2024-11-08T14:00:00	7	Dirección del viento	4.83
69351	7	Sololá	717	San Juan la Laguna	12	San Juan la Laguna	8	Agosto	2023-03-08T00:00:00	2024-11-08T14:00:00	1	Precipitación	0
69352	7	Sololá	717	San Juan la Laguna	12	San Juan la Laguna	8	Agosto	2023-03-08T00:00:00	2024-11-08T14:00:00	8	Radiación solar	449
69353	7	Sololá	717	San Juan la Laguna	12	San Juan la Laguna	8	Agosto	2023-03-08T00:00:00	2024-11-08T15:00:00	2	Temperatura media	20.3
69354	7	Sololá	717	San Juan la Laguna	12	San Juan la Laguna	8	Agosto	2023-03-08T00:00:00	2024-11-08T15:00:00	4	Temperatura máxima	23.7
69355	7	Sololá	717	San Juan la Laguna	12	San Juan la Laguna	8	Agosto	2023-03-08T00:00:00	2024-11-08T15:00:00	3	Temperatura mínima	20.3
69356	7	Sololá	717	San Juan la Laguna	12	San Juan la Laguna	8	Agosto	2023-03-08T00:00:00	2024-11-08T15:00:00	5	Humedad	84
69357	7	Sololá	717	San Juan la Laguna	12	San Juan la Laguna	8	Agosto	2023-03-08T00:00:00	2024-11-08T15:00:00	6	Velocidad del viento	3.2
69358	7	Sololá	717	San Juan la Laguna	12	San Juan la Laguna	8	Agosto	2023-03-08T00:00:00	2024-11-08T15:00:00	7	Dirección del viento	3.22
69359	7	Sololá	717	San Juan la Laguna	12	San Juan la Laguna	8	Agosto	2023-03-08T00:00:00	2024-11-08T15:00:00	1	Precipitación	0.4
69360	7	Sololá	717	San Juan la Laguna	12	San Juan la Laguna	8	Agosto	2023-03-08T00:00:00	2024-11-08T15:00:00	8	Radiación solar	109
69361	7	Sololá	717	San Juan la Laguna	12	San Juan la Laguna	8	Agosto	2023-03-08T00:00:00	2024-11-08T16:00:00	2	Temperatura media	20.9
69362	7	Sololá	717	San Juan la Laguna	12	San Juan la Laguna	8	Agosto	2023-03-08T00:00:00	2024-11-08T16:00:00	4	Temperatura máxima	21.6
69363	7	Sololá	717	San Juan la Laguna	12	San Juan la Laguna	8	Agosto	2023-03-08T00:00:00	2024-11-08T16:00:00	3	Temperatura mínima	20.3
69364	7	Sololá	717	San Juan la Laguna	12	San Juan la Laguna	8	Agosto	2023-03-08T00:00:00	2024-11-08T16:00:00	5	Humedad	85
69365	7	Sololá	717	San Juan la Laguna	12	San Juan la Laguna	8	Agosto	2023-03-08T00:00:00	2024-11-08T16:00:00	6	Velocidad del viento	4.8
69366	7	Sololá	717	San Juan la Laguna	12	San Juan la Laguna	8	Agosto	2023-03-08T00:00:00	2024-11-08T16:00:00	7	Dirección del viento	4.83
69367	7	Sololá	717	San Juan la Laguna	12	San Juan la Laguna	8	Agosto	2023-03-08T00:00:00	2024-11-08T16:00:00	1	Precipitación	0
69368	7	Sololá	717	San Juan la Laguna	12	San Juan la Laguna	8	Agosto	2023-03-08T00:00:00	2024-11-08T16:00:00	8	Radiación solar	271
69369	7	Sololá	717	San Juan la Laguna	12	San Juan la Laguna	8	Agosto	2023-03-08T00:00:00	2024-11-08T17:00:00	2	Temperatura media	20.9
69370	7	Sololá	717	San Juan la Laguna	12	San Juan la Laguna	8	Agosto	2023-03-08T00:00:00	2024-11-08T17:00:00	4	Temperatura máxima	21.7
69371	7	Sololá	717	San Juan la Laguna	12	San Juan la Laguna	8	Agosto	2023-03-08T00:00:00	2024-11-08T17:00:00	3	Temperatura mínima	20.9
69372	7	Sololá	717	San Juan la Laguna	12	San Juan la Laguna	8	Agosto	2023-03-08T00:00:00	2024-11-08T17:00:00	5	Humedad	81
69373	7	Sololá	717	San Juan la Laguna	12	San Juan la Laguna	8	Agosto	2023-03-08T00:00:00	2024-11-08T17:00:00	6	Velocidad del viento	3.2
69374	7	Sololá	717	San Juan la Laguna	12	San Juan la Laguna	8	Agosto	2023-03-08T00:00:00	2024-11-08T17:00:00	7	Dirección del viento	3.22
69375	7	Sololá	717	San Juan la Laguna	12	San Juan la Laguna	8	Agosto	2023-03-08T00:00:00	2024-11-08T17:00:00	1	Precipitación	0
69376	7	Sololá	717	San Juan la Laguna	12	San Juan la Laguna	8	Agosto	2023-03-08T00:00:00	2024-11-08T17:00:00	8	Radiación solar	158
69377	7	Sololá	717	San Juan la Laguna	12	San Juan la Laguna	8	Agosto	2023-03-08T00:00:00	2024-11-08T18:00:00	2	Temperatura media	18.9
69378	7	Sololá	717	San Juan la Laguna	12	San Juan la Laguna	8	Agosto	2023-03-08T00:00:00	2024-11-08T18:00:00	4	Temperatura máxima	20.9
69379	7	Sololá	717	San Juan la Laguna	12	San Juan la Laguna	8	Agosto	2023-03-08T00:00:00	2024-11-08T18:00:00	3	Temperatura mínima	18.9
69380	7	Sololá	717	San Juan la Laguna	12	San Juan la Laguna	8	Agosto	2023-03-08T00:00:00	2024-11-08T18:00:00	5	Humedad	89
69381	7	Sololá	717	San Juan la Laguna	12	San Juan la Laguna	8	Agosto	2023-03-08T00:00:00	2024-11-08T18:00:00	6	Velocidad del viento	6.4
69382	7	Sololá	717	San Juan la Laguna	12	San Juan la Laguna	8	Agosto	2023-03-08T00:00:00	2024-11-08T18:00:00	7	Dirección del viento	6.44
69383	7	Sololá	717	San Juan la Laguna	12	San Juan la Laguna	8	Agosto	2023-03-08T00:00:00	2024-11-08T18:00:00	1	Precipitación	0.2
69384	7	Sololá	717	San Juan la Laguna	12	San Juan la Laguna	8	Agosto	2023-03-08T00:00:00	2024-11-08T18:00:00	8	Radiación solar	20
69385	7	Sololá	717	San Juan la Laguna	12	San Juan la Laguna	8	Agosto	2023-03-08T00:00:00	2024-11-08T19:00:00	2	Temperatura media	18.4
69386	7	Sololá	717	San Juan la Laguna	12	San Juan la Laguna	8	Agosto	2023-03-08T00:00:00	2024-11-08T19:00:00	4	Temperatura máxima	18.9
69387	7	Sololá	717	San Juan la Laguna	12	San Juan la Laguna	8	Agosto	2023-03-08T00:00:00	2024-11-08T19:00:00	3	Temperatura mínima	18.4
69388	7	Sololá	717	San Juan la Laguna	12	San Juan la Laguna	8	Agosto	2023-03-08T00:00:00	2024-11-08T19:00:00	5	Humedad	92
69389	7	Sololá	717	San Juan la Laguna	12	San Juan la Laguna	8	Agosto	2023-03-08T00:00:00	2024-11-08T19:00:00	6	Velocidad del viento	0
69390	7	Sololá	717	San Juan la Laguna	12	San Juan la Laguna	8	Agosto	2023-03-08T00:00:00	2024-11-08T19:00:00	7	Dirección del viento	0
69391	7	Sololá	717	San Juan la Laguna	12	San Juan la Laguna	8	Agosto	2023-03-08T00:00:00	2024-11-08T19:00:00	1	Precipitación	0.6
69392	7	Sololá	717	San Juan la Laguna	12	San Juan la Laguna	8	Agosto	2023-03-08T00:00:00	2024-11-08T19:00:00	8	Radiación solar	0
69393	7	Sololá	717	San Juan la Laguna	12	San Juan la Laguna	8	Agosto	2023-03-08T00:00:00	2024-11-08T20:00:00	2	Temperatura media	18
69394	7	Sololá	717	San Juan la Laguna	12	San Juan la Laguna	8	Agosto	2023-03-08T00:00:00	2024-11-08T20:00:00	4	Temperatura máxima	18.4
69395	7	Sololá	717	San Juan la Laguna	12	San Juan la Laguna	8	Agosto	2023-03-08T00:00:00	2024-11-08T20:00:00	3	Temperatura mínima	18
69396	7	Sololá	717	San Juan la Laguna	12	San Juan la Laguna	8	Agosto	2023-03-08T00:00:00	2024-11-08T20:00:00	5	Humedad	93
69397	7	Sololá	717	San Juan la Laguna	12	San Juan la Laguna	8	Agosto	2023-03-08T00:00:00	2024-11-08T20:00:00	6	Velocidad del viento	0
69398	7	Sololá	717	San Juan la Laguna	12	San Juan la Laguna	8	Agosto	2023-03-08T00:00:00	2024-11-08T20:00:00	7	Dirección del viento	0
69399	7	Sololá	717	San Juan la Laguna	12	San Juan la Laguna	8	Agosto	2023-03-08T00:00:00	2024-11-08T20:00:00	1	Precipitación	1.6
69400	7	Sololá	717	San Juan la Laguna	12	San Juan la Laguna	8	Agosto	2023-03-08T00:00:00	2024-11-08T20:00:00	8	Radiación solar	0
69401	7	Sololá	717	San Juan la Laguna	12	San Juan la Laguna	8	Agosto	2023-03-08T00:00:00	2024-11-08T21:00:00	2	Temperatura media	17.6
69402	7	Sololá	717	San Juan la Laguna	12	San Juan la Laguna	8	Agosto	2023-03-08T00:00:00	2024-11-08T21:00:00	4	Temperatura máxima	18
69403	7	Sololá	717	San Juan la Laguna	12	San Juan la Laguna	8	Agosto	2023-03-08T00:00:00	2024-11-08T21:00:00	3	Temperatura mínima	17.4
69404	7	Sololá	717	San Juan la Laguna	12	San Juan la Laguna	8	Agosto	2023-03-08T00:00:00	2024-11-08T21:00:00	5	Humedad	92
69405	7	Sololá	717	San Juan la Laguna	12	San Juan la Laguna	8	Agosto	2023-03-08T00:00:00	2024-11-08T21:00:00	6	Velocidad del viento	0
69406	7	Sololá	717	San Juan la Laguna	12	San Juan la Laguna	8	Agosto	2023-03-08T00:00:00	2024-11-08T21:00:00	7	Dirección del viento	0
69407	7	Sololá	717	San Juan la Laguna	12	San Juan la Laguna	8	Agosto	2023-03-08T00:00:00	2024-11-08T21:00:00	1	Precipitación	1.6
69408	7	Sololá	717	San Juan la Laguna	12	San Juan la Laguna	8	Agosto	2023-03-08T00:00:00	2024-11-08T21:00:00	8	Radiación solar	0
69409	7	Sololá	717	San Juan la Laguna	12	San Juan la Laguna	8	Agosto	2023-03-08T00:00:00	2024-11-08T22:00:00	2	Temperatura media	16.6
69410	7	Sololá	717	San Juan la Laguna	12	San Juan la Laguna	8	Agosto	2023-03-08T00:00:00	2024-11-08T22:00:00	4	Temperatura máxima	17.5
69411	7	Sololá	717	San Juan la Laguna	12	San Juan la Laguna	8	Agosto	2023-03-08T00:00:00	2024-11-08T22:00:00	3	Temperatura mínima	16.6
69412	7	Sololá	717	San Juan la Laguna	12	San Juan la Laguna	8	Agosto	2023-03-08T00:00:00	2024-11-08T22:00:00	5	Humedad	91
69413	7	Sololá	717	San Juan la Laguna	12	San Juan la Laguna	8	Agosto	2023-03-08T00:00:00	2024-11-08T22:00:00	6	Velocidad del viento	1.6
69414	7	Sololá	717	San Juan la Laguna	12	San Juan la Laguna	8	Agosto	2023-03-08T00:00:00	2024-11-08T22:00:00	7	Dirección del viento	1.61
69415	7	Sololá	717	San Juan la Laguna	12	San Juan la Laguna	8	Agosto	2023-03-08T00:00:00	2024-11-08T22:00:00	1	Precipitación	0.4
69416	7	Sololá	717	San Juan la Laguna	12	San Juan la Laguna	8	Agosto	2023-03-08T00:00:00	2024-11-08T22:00:00	8	Radiación solar	0
69417	7	Sololá	717	San Juan la Laguna	12	San Juan la Laguna	8	Agosto	2023-03-08T00:00:00	2024-11-08T23:00:00	2	Temperatura media	16.1
69418	7	Sololá	717	San Juan la Laguna	12	San Juan la Laguna	8	Agosto	2023-03-08T00:00:00	2024-11-08T23:00:00	4	Temperatura máxima	16.6
69419	7	Sololá	717	San Juan la Laguna	12	San Juan la Laguna	8	Agosto	2023-03-08T00:00:00	2024-11-08T23:00:00	3	Temperatura mínima	16.1
69420	7	Sololá	717	San Juan la Laguna	12	San Juan la Laguna	8	Agosto	2023-03-08T00:00:00	2024-11-08T23:00:00	5	Humedad	91
69421	7	Sololá	717	San Juan la Laguna	12	San Juan la Laguna	8	Agosto	2023-03-08T00:00:00	2024-11-08T23:00:00	6	Velocidad del viento	3.2
69422	7	Sololá	717	San Juan la Laguna	12	San Juan la Laguna	8	Agosto	2023-03-08T00:00:00	2024-11-08T23:00:00	7	Dirección del viento	3.22
69423	7	Sololá	717	San Juan la Laguna	12	San Juan la Laguna	8	Agosto	2023-03-08T00:00:00	2024-11-08T23:00:00	1	Precipitación	0.2
69424	7	Sololá	717	San Juan la Laguna	12	San Juan la Laguna	8	Agosto	2023-03-08T00:00:00	2024-11-08T23:00:00	8	Radiación solar	0
69425	7	Sololá	717	San Juan la Laguna	12	San Juan la Laguna	8	Agosto	2023-04-08T00:00:00	2024-11-08T00:00:00	2	Temperatura media	16.1
69426	7	Sololá	717	San Juan la Laguna	12	San Juan la Laguna	8	Agosto	2023-04-08T00:00:00	2024-11-08T00:00:00	4	Temperatura máxima	16.3
69427	7	Sololá	717	San Juan la Laguna	12	San Juan la Laguna	8	Agosto	2023-04-08T00:00:00	2024-11-08T00:00:00	3	Temperatura mínima	16
69428	7	Sololá	717	San Juan la Laguna	12	San Juan la Laguna	8	Agosto	2023-04-08T00:00:00	2024-11-08T00:00:00	5	Humedad	90
69429	7	Sololá	717	San Juan la Laguna	12	San Juan la Laguna	8	Agosto	2023-04-08T00:00:00	2024-11-08T00:00:00	6	Velocidad del viento	6.4
69430	7	Sololá	717	San Juan la Laguna	12	San Juan la Laguna	8	Agosto	2023-04-08T00:00:00	2024-11-08T00:00:00	7	Dirección del viento	6.44
69431	7	Sololá	717	San Juan la Laguna	12	San Juan la Laguna	8	Agosto	2023-04-08T00:00:00	2024-11-08T00:00:00	1	Precipitación	0.2
69432	7	Sololá	717	San Juan la Laguna	12	San Juan la Laguna	8	Agosto	2023-04-08T00:00:00	2024-11-08T00:00:00	8	Radiación solar	0
69433	7	Sololá	717	San Juan la Laguna	12	San Juan la Laguna	8	Agosto	2023-04-08T00:00:00	2024-11-08T01:00:00	2	Temperatura media	16.1
69434	7	Sololá	717	San Juan la Laguna	12	San Juan la Laguna	8	Agosto	2023-04-08T00:00:00	2024-11-08T01:00:00	4	Temperatura máxima	16.2
69435	7	Sololá	717	San Juan la Laguna	12	San Juan la Laguna	8	Agosto	2023-04-08T00:00:00	2024-11-08T01:00:00	3	Temperatura mínima	15.9
69436	7	Sololá	717	San Juan la Laguna	12	San Juan la Laguna	8	Agosto	2023-04-08T00:00:00	2024-11-08T01:00:00	5	Humedad	89
69437	7	Sololá	717	San Juan la Laguna	12	San Juan la Laguna	8	Agosto	2023-04-08T00:00:00	2024-11-08T01:00:00	6	Velocidad del viento	3.2
69438	7	Sololá	717	San Juan la Laguna	12	San Juan la Laguna	8	Agosto	2023-04-08T00:00:00	2024-11-08T01:00:00	7	Dirección del viento	3.22
69439	7	Sololá	717	San Juan la Laguna	12	San Juan la Laguna	8	Agosto	2023-04-08T00:00:00	2024-11-08T01:00:00	1	Precipitación	0
69440	7	Sololá	717	San Juan la Laguna	12	San Juan la Laguna	8	Agosto	2023-04-08T00:00:00	2024-11-08T01:00:00	8	Radiación solar	0
69441	7	Sololá	717	San Juan la Laguna	12	San Juan la Laguna	8	Agosto	2023-04-08T00:00:00	2024-11-08T02:00:00	2	Temperatura media	16.2
69442	7	Sololá	717	San Juan la Laguna	12	San Juan la Laguna	8	Agosto	2023-04-08T00:00:00	2024-11-08T02:00:00	4	Temperatura máxima	16.2
69443	7	Sololá	717	San Juan la Laguna	12	San Juan la Laguna	8	Agosto	2023-04-08T00:00:00	2024-11-08T02:00:00	3	Temperatura mínima	15.9
69444	7	Sololá	717	San Juan la Laguna	12	San Juan la Laguna	8	Agosto	2023-04-08T00:00:00	2024-11-08T02:00:00	5	Humedad	87
69445	7	Sololá	717	San Juan la Laguna	12	San Juan la Laguna	8	Agosto	2023-04-08T00:00:00	2024-11-08T02:00:00	6	Velocidad del viento	6.4
69446	7	Sololá	717	San Juan la Laguna	12	San Juan la Laguna	8	Agosto	2023-04-08T00:00:00	2024-11-08T02:00:00	7	Dirección del viento	6.44
69447	7	Sololá	717	San Juan la Laguna	12	San Juan la Laguna	8	Agosto	2023-04-08T00:00:00	2024-11-08T02:00:00	1	Precipitación	0
69448	7	Sololá	717	San Juan la Laguna	12	San Juan la Laguna	8	Agosto	2023-04-08T00:00:00	2024-11-08T02:00:00	8	Radiación solar	0
69449	7	Sololá	717	San Juan la Laguna	12	San Juan la Laguna	8	Agosto	2023-04-08T00:00:00	2024-11-08T03:00:00	2	Temperatura media	16.3
69450	7	Sololá	717	San Juan la Laguna	12	San Juan la Laguna	8	Agosto	2023-04-08T00:00:00	2024-11-08T03:00:00	4	Temperatura máxima	16.4
69451	7	Sololá	717	San Juan la Laguna	12	San Juan la Laguna	8	Agosto	2023-04-08T00:00:00	2024-11-08T03:00:00	3	Temperatura mínima	16.2
69452	7	Sololá	717	San Juan la Laguna	12	San Juan la Laguna	8	Agosto	2023-04-08T00:00:00	2024-11-08T03:00:00	5	Humedad	86
69453	7	Sololá	717	San Juan la Laguna	12	San Juan la Laguna	8	Agosto	2023-04-08T00:00:00	2024-11-08T03:00:00	6	Velocidad del viento	6.4
69454	7	Sololá	717	San Juan la Laguna	12	San Juan la Laguna	8	Agosto	2023-04-08T00:00:00	2024-11-08T03:00:00	7	Dirección del viento	6.44
69455	7	Sololá	717	San Juan la Laguna	12	San Juan la Laguna	8	Agosto	2023-04-08T00:00:00	2024-11-08T03:00:00	1	Precipitación	0
69456	7	Sololá	717	San Juan la Laguna	12	San Juan la Laguna	8	Agosto	2023-04-08T00:00:00	2024-11-08T03:00:00	8	Radiación solar	0
69457	7	Sololá	717	San Juan la Laguna	12	San Juan la Laguna	8	Agosto	2023-04-08T00:00:00	2024-11-08T04:00:00	2	Temperatura media	16.4
69458	7	Sololá	717	San Juan la Laguna	12	San Juan la Laguna	8	Agosto	2023-04-08T00:00:00	2024-11-08T04:00:00	4	Temperatura máxima	16.4
69459	7	Sololá	717	San Juan la Laguna	12	San Juan la Laguna	8	Agosto	2023-04-08T00:00:00	2024-11-08T04:00:00	3	Temperatura mínima	15.9
69460	7	Sololá	717	San Juan la Laguna	12	San Juan la Laguna	8	Agosto	2023-04-08T00:00:00	2024-11-08T04:00:00	5	Humedad	85
69461	7	Sololá	717	San Juan la Laguna	12	San Juan la Laguna	8	Agosto	2023-04-08T00:00:00	2024-11-08T04:00:00	6	Velocidad del viento	4.8
69462	7	Sololá	717	San Juan la Laguna	12	San Juan la Laguna	8	Agosto	2023-04-08T00:00:00	2024-11-08T04:00:00	7	Dirección del viento	4.83
69463	7	Sololá	717	San Juan la Laguna	12	San Juan la Laguna	8	Agosto	2023-04-08T00:00:00	2024-11-08T04:00:00	1	Precipitación	0
69464	7	Sololá	717	San Juan la Laguna	12	San Juan la Laguna	8	Agosto	2023-04-08T00:00:00	2024-11-08T04:00:00	8	Radiación solar	0
69465	7	Sololá	717	San Juan la Laguna	12	San Juan la Laguna	8	Agosto	2023-04-08T00:00:00	2024-11-08T05:00:00	2	Temperatura media	16.1
69466	7	Sololá	717	San Juan la Laguna	12	San Juan la Laguna	8	Agosto	2023-04-08T00:00:00	2024-11-08T05:00:00	4	Temperatura máxima	16.4
69467	7	Sololá	717	San Juan la Laguna	12	San Juan la Laguna	8	Agosto	2023-04-08T00:00:00	2024-11-08T05:00:00	3	Temperatura mínima	15.9
69468	7	Sololá	717	San Juan la Laguna	12	San Juan la Laguna	8	Agosto	2023-04-08T00:00:00	2024-11-08T05:00:00	5	Humedad	88
69469	7	Sololá	717	San Juan la Laguna	12	San Juan la Laguna	8	Agosto	2023-04-08T00:00:00	2024-11-08T05:00:00	6	Velocidad del viento	1.6
69470	7	Sololá	717	San Juan la Laguna	12	San Juan la Laguna	8	Agosto	2023-04-08T00:00:00	2024-11-08T05:00:00	7	Dirección del viento	1.61
69471	7	Sololá	717	San Juan la Laguna	12	San Juan la Laguna	8	Agosto	2023-04-08T00:00:00	2024-11-08T05:00:00	1	Precipitación	0
69472	7	Sololá	717	San Juan la Laguna	12	San Juan la Laguna	8	Agosto	2023-04-08T00:00:00	2024-11-08T05:00:00	8	Radiación solar	0
69473	7	Sololá	717	San Juan la Laguna	12	San Juan la Laguna	8	Agosto	2023-04-08T00:00:00	2024-11-08T06:00:00	2	Temperatura media	16.2
69474	7	Sololá	717	San Juan la Laguna	12	San Juan la Laguna	8	Agosto	2023-04-08T00:00:00	2024-11-08T06:00:00	4	Temperatura máxima	16.5
69475	7	Sololá	717	San Juan la Laguna	12	San Juan la Laguna	8	Agosto	2023-04-08T00:00:00	2024-11-08T06:00:00	3	Temperatura mínima	16
69476	7	Sololá	717	San Juan la Laguna	12	San Juan la Laguna	8	Agosto	2023-04-08T00:00:00	2024-11-08T06:00:00	5	Humedad	89
69477	7	Sololá	717	San Juan la Laguna	12	San Juan la Laguna	8	Agosto	2023-04-08T00:00:00	2024-11-08T06:00:00	6	Velocidad del viento	3.2
69478	7	Sololá	717	San Juan la Laguna	12	San Juan la Laguna	8	Agosto	2023-04-08T00:00:00	2024-11-08T06:00:00	7	Dirección del viento	3.22
69479	7	Sololá	717	San Juan la Laguna	12	San Juan la Laguna	8	Agosto	2023-04-08T00:00:00	2024-11-08T06:00:00	1	Precipitación	0
69480	7	Sololá	717	San Juan la Laguna	12	San Juan la Laguna	8	Agosto	2023-04-08T00:00:00	2024-11-08T06:00:00	8	Radiación solar	0
69481	7	Sololá	717	San Juan la Laguna	12	San Juan la Laguna	8	Agosto	2023-04-08T00:00:00	2024-11-08T07:00:00	2	Temperatura media	18.2
69482	7	Sololá	717	San Juan la Laguna	12	San Juan la Laguna	8	Agosto	2023-04-08T00:00:00	2024-11-08T07:00:00	4	Temperatura máxima	18.2
69483	7	Sololá	717	San Juan la Laguna	12	San Juan la Laguna	8	Agosto	2023-04-08T00:00:00	2024-11-08T07:00:00	3	Temperatura mínima	16.2
69484	7	Sololá	717	San Juan la Laguna	12	San Juan la Laguna	8	Agosto	2023-04-08T00:00:00	2024-11-08T07:00:00	5	Humedad	83
69485	7	Sololá	717	San Juan la Laguna	12	San Juan la Laguna	8	Agosto	2023-04-08T00:00:00	2024-11-08T07:00:00	6	Velocidad del viento	1.6
69486	7	Sololá	717	San Juan la Laguna	12	San Juan la Laguna	8	Agosto	2023-04-08T00:00:00	2024-11-08T07:00:00	7	Dirección del viento	1.61
69487	7	Sololá	717	San Juan la Laguna	12	San Juan la Laguna	8	Agosto	2023-04-08T00:00:00	2024-11-08T07:00:00	1	Precipitación	0
69488	7	Sololá	717	San Juan la Laguna	12	San Juan la Laguna	8	Agosto	2023-04-08T00:00:00	2024-11-08T07:00:00	8	Radiación solar	85
69489	7	Sololá	717	San Juan la Laguna	12	San Juan la Laguna	8	Agosto	2023-04-08T00:00:00	2024-11-08T08:00:00	2	Temperatura media	19.6
69490	7	Sololá	717	San Juan la Laguna	12	San Juan la Laguna	8	Agosto	2023-04-08T00:00:00	2024-11-08T08:00:00	4	Temperatura máxima	19.6
69491	7	Sololá	717	San Juan la Laguna	12	San Juan la Laguna	8	Agosto	2023-04-08T00:00:00	2024-11-08T08:00:00	3	Temperatura mínima	18.2
69492	7	Sololá	717	San Juan la Laguna	12	San Juan la Laguna	8	Agosto	2023-04-08T00:00:00	2024-11-08T08:00:00	5	Humedad	80
69493	7	Sololá	717	San Juan la Laguna	12	San Juan la Laguna	8	Agosto	2023-04-08T00:00:00	2024-11-08T08:00:00	6	Velocidad del viento	3.2
69494	7	Sololá	717	San Juan la Laguna	12	San Juan la Laguna	8	Agosto	2023-04-08T00:00:00	2024-11-08T08:00:00	7	Dirección del viento	3.22
69495	7	Sololá	717	San Juan la Laguna	12	San Juan la Laguna	8	Agosto	2023-04-08T00:00:00	2024-11-08T08:00:00	1	Precipitación	0
69496	7	Sololá	717	San Juan la Laguna	12	San Juan la Laguna	8	Agosto	2023-04-08T00:00:00	2024-11-08T08:00:00	8	Radiación solar	163
69497	7	Sololá	717	San Juan la Laguna	12	San Juan la Laguna	8	Agosto	2023-04-08T00:00:00	2024-11-08T09:00:00	2	Temperatura media	22.1
69498	7	Sololá	717	San Juan la Laguna	12	San Juan la Laguna	8	Agosto	2023-04-08T00:00:00	2024-11-08T09:00:00	4	Temperatura máxima	22.1
69499	7	Sololá	717	San Juan la Laguna	12	San Juan la Laguna	8	Agosto	2023-04-08T00:00:00	2024-11-08T09:00:00	3	Temperatura mínima	19.5
69500	7	Sololá	717	San Juan la Laguna	12	San Juan la Laguna	8	Agosto	2023-04-08T00:00:00	2024-11-08T09:00:00	5	Humedad	69
69501	7	Sololá	717	San Juan la Laguna	12	San Juan la Laguna	8	Agosto	2023-04-08T00:00:00	2024-11-08T09:00:00	6	Velocidad del viento	0
69502	7	Sololá	717	San Juan la Laguna	12	San Juan la Laguna	8	Agosto	2023-04-08T00:00:00	2024-11-08T09:00:00	7	Dirección del viento	0
69503	7	Sololá	717	San Juan la Laguna	12	San Juan la Laguna	8	Agosto	2023-04-08T00:00:00	2024-11-08T09:00:00	1	Precipitación	0
69504	7	Sololá	717	San Juan la Laguna	12	San Juan la Laguna	8	Agosto	2023-04-08T00:00:00	2024-11-08T09:00:00	8	Radiación solar	398
69505	7	Sololá	717	San Juan la Laguna	12	San Juan la Laguna	8	Agosto	2023-04-08T00:00:00	2024-11-08T10:00:00	2	Temperatura media	23.8
69506	7	Sololá	717	San Juan la Laguna	12	San Juan la Laguna	8	Agosto	2023-04-08T00:00:00	2024-11-08T10:00:00	4	Temperatura máxima	23.8
69507	7	Sololá	717	San Juan la Laguna	12	San Juan la Laguna	8	Agosto	2023-04-08T00:00:00	2024-11-08T10:00:00	3	Temperatura mínima	21.9
69508	7	Sololá	717	San Juan la Laguna	12	San Juan la Laguna	8	Agosto	2023-04-08T00:00:00	2024-11-08T10:00:00	5	Humedad	60
69509	7	Sololá	717	San Juan la Laguna	12	San Juan la Laguna	8	Agosto	2023-04-08T00:00:00	2024-11-08T10:00:00	6	Velocidad del viento	6.4
69510	7	Sololá	717	San Juan la Laguna	12	San Juan la Laguna	8	Agosto	2023-04-08T00:00:00	2024-11-08T10:00:00	7	Dirección del viento	6.44
69511	7	Sololá	717	San Juan la Laguna	12	San Juan la Laguna	8	Agosto	2023-04-08T00:00:00	2024-11-08T10:00:00	1	Precipitación	0
69512	7	Sololá	717	San Juan la Laguna	12	San Juan la Laguna	8	Agosto	2023-04-08T00:00:00	2024-11-08T10:00:00	8	Radiación solar	725
69513	7	Sololá	717	San Juan la Laguna	12	San Juan la Laguna	8	Agosto	2023-04-08T00:00:00	2024-11-08T11:00:00	2	Temperatura media	24.3
69514	7	Sololá	717	San Juan la Laguna	12	San Juan la Laguna	8	Agosto	2023-04-08T00:00:00	2024-11-08T11:00:00	4	Temperatura máxima	24.5
69515	7	Sololá	717	San Juan la Laguna	12	San Juan la Laguna	8	Agosto	2023-04-08T00:00:00	2024-11-08T11:00:00	3	Temperatura mínima	23.7
69516	7	Sololá	717	San Juan la Laguna	12	San Juan la Laguna	8	Agosto	2023-04-08T00:00:00	2024-11-08T11:00:00	5	Humedad	58
69517	7	Sololá	717	San Juan la Laguna	12	San Juan la Laguna	8	Agosto	2023-04-08T00:00:00	2024-11-08T11:00:00	6	Velocidad del viento	6.4
69518	7	Sololá	717	San Juan la Laguna	12	San Juan la Laguna	8	Agosto	2023-04-08T00:00:00	2024-11-08T11:00:00	7	Dirección del viento	6.44
69519	7	Sololá	717	San Juan la Laguna	12	San Juan la Laguna	8	Agosto	2023-04-08T00:00:00	2024-11-08T11:00:00	1	Precipitación	0
69520	7	Sololá	717	San Juan la Laguna	12	San Juan la Laguna	8	Agosto	2023-04-08T00:00:00	2024-11-08T11:00:00	8	Radiación solar	739
69521	7	Sololá	717	San Juan la Laguna	12	San Juan la Laguna	8	Agosto	2023-04-08T00:00:00	2024-11-08T12:00:00	2	Temperatura media	24.3
69522	7	Sololá	717	San Juan la Laguna	12	San Juan la Laguna	8	Agosto	2023-04-08T00:00:00	2024-11-08T12:00:00	4	Temperatura máxima	25
69523	7	Sololá	717	San Juan la Laguna	12	San Juan la Laguna	8	Agosto	2023-04-08T00:00:00	2024-11-08T12:00:00	3	Temperatura mínima	24.3
69524	7	Sololá	717	San Juan la Laguna	12	San Juan la Laguna	8	Agosto	2023-04-08T00:00:00	2024-11-08T12:00:00	5	Humedad	62
69525	7	Sololá	717	San Juan la Laguna	12	San Juan la Laguna	8	Agosto	2023-04-08T00:00:00	2024-11-08T12:00:00	6	Velocidad del viento	8
69526	7	Sololá	717	San Juan la Laguna	12	San Juan la Laguna	8	Agosto	2023-04-08T00:00:00	2024-11-08T12:00:00	7	Dirección del viento	8.05
69527	7	Sololá	717	San Juan la Laguna	12	San Juan la Laguna	8	Agosto	2023-04-08T00:00:00	2024-11-08T12:00:00	1	Precipitación	0
69528	7	Sololá	717	San Juan la Laguna	12	San Juan la Laguna	8	Agosto	2023-04-08T00:00:00	2024-11-08T12:00:00	8	Radiación solar	822
69529	7	Sololá	717	San Juan la Laguna	12	San Juan la Laguna	8	Agosto	2023-04-08T00:00:00	2024-11-08T13:00:00	2	Temperatura media	26.4
69530	7	Sololá	717	San Juan la Laguna	12	San Juan la Laguna	8	Agosto	2023-04-08T00:00:00	2024-11-08T13:00:00	4	Temperatura máxima	26.4
69531	7	Sololá	717	San Juan la Laguna	12	San Juan la Laguna	8	Agosto	2023-04-08T00:00:00	2024-11-08T13:00:00	3	Temperatura mínima	24.1
69532	7	Sololá	717	San Juan la Laguna	12	San Juan la Laguna	8	Agosto	2023-04-08T00:00:00	2024-11-08T13:00:00	5	Humedad	59
69533	7	Sololá	717	San Juan la Laguna	12	San Juan la Laguna	8	Agosto	2023-04-08T00:00:00	2024-11-08T13:00:00	6	Velocidad del viento	8
69534	7	Sololá	717	San Juan la Laguna	12	San Juan la Laguna	8	Agosto	2023-04-08T00:00:00	2024-11-08T13:00:00	7	Dirección del viento	8.05
69535	7	Sololá	717	San Juan la Laguna	12	San Juan la Laguna	8	Agosto	2023-04-08T00:00:00	2024-11-08T13:00:00	1	Precipitación	0
69536	7	Sololá	717	San Juan la Laguna	12	San Juan la Laguna	8	Agosto	2023-04-08T00:00:00	2024-11-08T13:00:00	8	Radiación solar	910
69537	7	Sololá	717	San Juan la Laguna	12	San Juan la Laguna	8	Agosto	2023-04-08T00:00:00	2024-11-08T14:00:00	2	Temperatura media	25.8
69538	7	Sololá	717	San Juan la Laguna	12	San Juan la Laguna	8	Agosto	2023-04-08T00:00:00	2024-11-08T14:00:00	4	Temperatura máxima	26.5
69539	7	Sololá	717	San Juan la Laguna	12	San Juan la Laguna	8	Agosto	2023-04-08T00:00:00	2024-11-08T14:00:00	3	Temperatura mínima	25.5
69540	7	Sololá	717	San Juan la Laguna	12	San Juan la Laguna	8	Agosto	2023-04-08T00:00:00	2024-11-08T14:00:00	5	Humedad	66
69541	7	Sololá	717	San Juan la Laguna	12	San Juan la Laguna	8	Agosto	2023-04-08T00:00:00	2024-11-08T14:00:00	6	Velocidad del viento	9.7
69542	7	Sololá	717	San Juan la Laguna	12	San Juan la Laguna	8	Agosto	2023-04-08T00:00:00	2024-11-08T14:00:00	7	Dirección del viento	9.66
69543	7	Sololá	717	San Juan la Laguna	12	San Juan la Laguna	8	Agosto	2023-04-08T00:00:00	2024-11-08T14:00:00	1	Precipitación	0
69544	7	Sololá	717	San Juan la Laguna	12	San Juan la Laguna	8	Agosto	2023-04-08T00:00:00	2024-11-08T14:00:00	8	Radiación solar	968
69545	7	Sololá	717	San Juan la Laguna	12	San Juan la Laguna	8	Agosto	2023-04-08T00:00:00	2024-11-08T15:00:00	2	Temperatura media	26
69546	7	Sololá	717	San Juan la Laguna	12	San Juan la Laguna	8	Agosto	2023-04-08T00:00:00	2024-11-08T15:00:00	4	Temperatura máxima	26.3
69547	7	Sololá	717	San Juan la Laguna	12	San Juan la Laguna	8	Agosto	2023-04-08T00:00:00	2024-11-08T15:00:00	3	Temperatura mínima	25.7
69548	7	Sololá	717	San Juan la Laguna	12	San Juan la Laguna	8	Agosto	2023-04-08T00:00:00	2024-11-08T15:00:00	5	Humedad	63
69549	7	Sololá	717	San Juan la Laguna	12	San Juan la Laguna	8	Agosto	2023-04-08T00:00:00	2024-11-08T15:00:00	6	Velocidad del viento	9.7
69550	7	Sololá	717	San Juan la Laguna	12	San Juan la Laguna	8	Agosto	2023-04-08T00:00:00	2024-11-08T15:00:00	7	Dirección del viento	9.66
69551	7	Sololá	717	San Juan la Laguna	12	San Juan la Laguna	8	Agosto	2023-04-08T00:00:00	2024-11-08T15:00:00	1	Precipitación	0
69552	7	Sololá	717	San Juan la Laguna	12	San Juan la Laguna	8	Agosto	2023-04-08T00:00:00	2024-11-08T15:00:00	8	Radiación solar	844
69553	7	Sololá	717	San Juan la Laguna	12	San Juan la Laguna	8	Agosto	2023-04-08T00:00:00	2024-11-08T16:00:00	2	Temperatura media	25.5
69554	7	Sololá	717	San Juan la Laguna	12	San Juan la Laguna	8	Agosto	2023-04-08T00:00:00	2024-11-08T16:00:00	4	Temperatura máxima	26.3
69555	7	Sololá	717	San Juan la Laguna	12	San Juan la Laguna	8	Agosto	2023-04-08T00:00:00	2024-11-08T16:00:00	3	Temperatura mínima	25.4
69556	7	Sololá	717	San Juan la Laguna	12	San Juan la Laguna	8	Agosto	2023-04-08T00:00:00	2024-11-08T16:00:00	5	Humedad	68
69557	7	Sololá	717	San Juan la Laguna	12	San Juan la Laguna	8	Agosto	2023-04-08T00:00:00	2024-11-08T16:00:00	6	Velocidad del viento	8
69558	7	Sololá	717	San Juan la Laguna	12	San Juan la Laguna	8	Agosto	2023-04-08T00:00:00	2024-11-08T16:00:00	7	Dirección del viento	8.05
69559	7	Sololá	717	San Juan la Laguna	12	San Juan la Laguna	8	Agosto	2023-04-08T00:00:00	2024-11-08T16:00:00	1	Precipitación	0
69560	7	Sololá	717	San Juan la Laguna	12	San Juan la Laguna	8	Agosto	2023-04-08T00:00:00	2024-11-08T16:00:00	8	Radiación solar	625
69561	7	Sololá	717	San Juan la Laguna	12	San Juan la Laguna	8	Agosto	2023-04-08T00:00:00	2024-11-08T17:00:00	2	Temperatura media	24.6
69562	7	Sololá	717	San Juan la Laguna	12	San Juan la Laguna	8	Agosto	2023-04-08T00:00:00	2024-11-08T17:00:00	4	Temperatura máxima	25.5
69563	7	Sololá	717	San Juan la Laguna	12	San Juan la Laguna	8	Agosto	2023-04-08T00:00:00	2024-11-08T17:00:00	3	Temperatura mínima	24.1
69564	7	Sololá	717	San Juan la Laguna	12	San Juan la Laguna	8	Agosto	2023-04-08T00:00:00	2024-11-08T17:00:00	5	Humedad	71
69565	7	Sololá	717	San Juan la Laguna	12	San Juan la Laguna	8	Agosto	2023-04-08T00:00:00	2024-11-08T17:00:00	6	Velocidad del viento	8
69566	7	Sololá	717	San Juan la Laguna	12	San Juan la Laguna	8	Agosto	2023-04-08T00:00:00	2024-11-08T17:00:00	7	Dirección del viento	8.05
69567	7	Sololá	717	San Juan la Laguna	12	San Juan la Laguna	8	Agosto	2023-04-08T00:00:00	2024-11-08T17:00:00	1	Precipitación	0
69568	7	Sololá	717	San Juan la Laguna	12	San Juan la Laguna	8	Agosto	2023-04-08T00:00:00	2024-11-08T17:00:00	8	Radiación solar	382
69569	7	Sololá	717	San Juan la Laguna	12	San Juan la Laguna	8	Agosto	2023-04-08T00:00:00	2024-11-08T18:00:00	2	Temperatura media	22.8
69570	7	Sololá	717	San Juan la Laguna	12	San Juan la Laguna	8	Agosto	2023-04-08T00:00:00	2024-11-08T18:00:00	4	Temperatura máxima	24.9
69571	7	Sololá	717	San Juan la Laguna	12	San Juan la Laguna	8	Agosto	2023-04-08T00:00:00	2024-11-08T18:00:00	3	Temperatura mínima	22.8
69572	7	Sololá	717	San Juan la Laguna	12	San Juan la Laguna	8	Agosto	2023-04-08T00:00:00	2024-11-08T18:00:00	5	Humedad	74
69573	7	Sololá	717	San Juan la Laguna	12	San Juan la Laguna	8	Agosto	2023-04-08T00:00:00	2024-11-08T18:00:00	6	Velocidad del viento	6.4
69574	7	Sololá	717	San Juan la Laguna	12	San Juan la Laguna	8	Agosto	2023-04-08T00:00:00	2024-11-08T18:00:00	7	Dirección del viento	6.44
69575	7	Sololá	717	San Juan la Laguna	12	San Juan la Laguna	8	Agosto	2023-04-08T00:00:00	2024-11-08T18:00:00	1	Precipitación	0
69576	7	Sololá	717	San Juan la Laguna	12	San Juan la Laguna	8	Agosto	2023-04-08T00:00:00	2024-11-08T18:00:00	8	Radiación solar	201
69577	7	Sololá	717	San Juan la Laguna	12	San Juan la Laguna	8	Agosto	2023-04-08T00:00:00	2024-11-08T19:00:00	2	Temperatura media	21.1
69578	7	Sololá	717	San Juan la Laguna	12	San Juan la Laguna	8	Agosto	2023-04-08T00:00:00	2024-11-08T19:00:00	4	Temperatura máxima	22.8
69579	7	Sololá	717	San Juan la Laguna	12	San Juan la Laguna	8	Agosto	2023-04-08T00:00:00	2024-11-08T19:00:00	3	Temperatura mínima	21
69580	7	Sololá	717	San Juan la Laguna	12	San Juan la Laguna	8	Agosto	2023-04-08T00:00:00	2024-11-08T19:00:00	5	Humedad	77
69581	7	Sololá	717	San Juan la Laguna	12	San Juan la Laguna	8	Agosto	2023-04-08T00:00:00	2024-11-08T19:00:00	6	Velocidad del viento	3.2
69582	7	Sololá	717	San Juan la Laguna	12	San Juan la Laguna	8	Agosto	2023-04-08T00:00:00	2024-11-08T19:00:00	7	Dirección del viento	3.22
69583	7	Sololá	717	San Juan la Laguna	12	San Juan la Laguna	8	Agosto	2023-04-08T00:00:00	2024-11-08T19:00:00	1	Precipitación	0
69584	7	Sololá	717	San Juan la Laguna	12	San Juan la Laguna	8	Agosto	2023-04-08T00:00:00	2024-11-08T19:00:00	8	Radiación solar	0
69585	7	Sololá	717	San Juan la Laguna	12	San Juan la Laguna	8	Agosto	2023-04-08T00:00:00	2024-11-08T20:00:00	2	Temperatura media	20.2
69586	7	Sololá	717	San Juan la Laguna	12	San Juan la Laguna	8	Agosto	2023-04-08T00:00:00	2024-11-08T20:00:00	4	Temperatura máxima	21.1
69587	7	Sololá	717	San Juan la Laguna	12	San Juan la Laguna	8	Agosto	2023-04-08T00:00:00	2024-11-08T20:00:00	3	Temperatura mínima	20.2
69588	7	Sololá	717	San Juan la Laguna	12	San Juan la Laguna	8	Agosto	2023-04-08T00:00:00	2024-11-08T20:00:00	5	Humedad	79
69589	7	Sololá	717	San Juan la Laguna	12	San Juan la Laguna	8	Agosto	2023-04-08T00:00:00	2024-11-08T20:00:00	6	Velocidad del viento	1.6
69590	7	Sololá	717	San Juan la Laguna	12	San Juan la Laguna	8	Agosto	2023-04-08T00:00:00	2024-11-08T20:00:00	7	Dirección del viento	1.61
69591	7	Sololá	717	San Juan la Laguna	12	San Juan la Laguna	8	Agosto	2023-04-08T00:00:00	2024-11-08T20:00:00	1	Precipitación	0
69592	7	Sololá	717	San Juan la Laguna	12	San Juan la Laguna	8	Agosto	2023-04-08T00:00:00	2024-11-08T20:00:00	8	Radiación solar	0
69593	7	Sololá	717	San Juan la Laguna	12	San Juan la Laguna	8	Agosto	2023-04-08T00:00:00	2024-11-08T21:00:00	2	Temperatura media	19.2
69594	7	Sololá	717	San Juan la Laguna	12	San Juan la Laguna	8	Agosto	2023-04-08T00:00:00	2024-11-08T21:00:00	4	Temperatura máxima	20.2
69595	7	Sololá	717	San Juan la Laguna	12	San Juan la Laguna	8	Agosto	2023-04-08T00:00:00	2024-11-08T21:00:00	3	Temperatura mínima	19.2
69596	7	Sololá	717	San Juan la Laguna	12	San Juan la Laguna	8	Agosto	2023-04-08T00:00:00	2024-11-08T21:00:00	5	Humedad	81
69597	7	Sololá	717	San Juan la Laguna	12	San Juan la Laguna	8	Agosto	2023-04-08T00:00:00	2024-11-08T21:00:00	6	Velocidad del viento	0
69598	7	Sololá	717	San Juan la Laguna	12	San Juan la Laguna	8	Agosto	2023-04-08T00:00:00	2024-11-08T21:00:00	7	Dirección del viento	0
69599	7	Sololá	717	San Juan la Laguna	12	San Juan la Laguna	8	Agosto	2023-04-08T00:00:00	2024-11-08T21:00:00	1	Precipitación	0
69600	7	Sololá	717	San Juan la Laguna	12	San Juan la Laguna	8	Agosto	2023-04-08T00:00:00	2024-11-08T21:00:00	8	Radiación solar	0
69601	7	Sololá	717	San Juan la Laguna	12	San Juan la Laguna	8	Agosto	2023-04-08T00:00:00	2024-11-08T22:00:00	2	Temperatura media	18.4
69602	7	Sololá	717	San Juan la Laguna	12	San Juan la Laguna	8	Agosto	2023-04-08T00:00:00	2024-11-08T22:00:00	4	Temperatura máxima	19.2
69603	7	Sololá	717	San Juan la Laguna	12	San Juan la Laguna	8	Agosto	2023-04-08T00:00:00	2024-11-08T22:00:00	3	Temperatura mínima	18.3
69604	7	Sololá	717	San Juan la Laguna	12	San Juan la Laguna	8	Agosto	2023-04-08T00:00:00	2024-11-08T22:00:00	5	Humedad	83
69605	7	Sololá	717	San Juan la Laguna	12	San Juan la Laguna	8	Agosto	2023-04-08T00:00:00	2024-11-08T22:00:00	6	Velocidad del viento	1.6
69606	7	Sololá	717	San Juan la Laguna	12	San Juan la Laguna	8	Agosto	2023-04-08T00:00:00	2024-11-08T22:00:00	7	Dirección del viento	1.61
69607	7	Sololá	717	San Juan la Laguna	12	San Juan la Laguna	8	Agosto	2023-04-08T00:00:00	2024-11-08T22:00:00	1	Precipitación	0
69608	7	Sololá	717	San Juan la Laguna	12	San Juan la Laguna	8	Agosto	2023-04-08T00:00:00	2024-11-08T22:00:00	8	Radiación solar	0
69609	7	Sololá	717	San Juan la Laguna	12	San Juan la Laguna	8	Agosto	2023-04-08T00:00:00	2024-11-08T23:00:00	2	Temperatura media	17.4
69610	7	Sololá	717	San Juan la Laguna	12	San Juan la Laguna	8	Agosto	2023-04-08T00:00:00	2024-11-08T23:00:00	4	Temperatura máxima	18.4
69611	7	Sololá	717	San Juan la Laguna	12	San Juan la Laguna	8	Agosto	2023-04-08T00:00:00	2024-11-08T23:00:00	3	Temperatura mínima	17.4
69612	7	Sololá	717	San Juan la Laguna	12	San Juan la Laguna	8	Agosto	2023-04-08T00:00:00	2024-11-08T23:00:00	5	Humedad	87
69613	7	Sololá	717	San Juan la Laguna	12	San Juan la Laguna	8	Agosto	2023-04-08T00:00:00	2024-11-08T23:00:00	6	Velocidad del viento	3.2
69614	7	Sololá	717	San Juan la Laguna	12	San Juan la Laguna	8	Agosto	2023-04-08T00:00:00	2024-11-08T23:00:00	7	Dirección del viento	3.22
69615	7	Sololá	717	San Juan la Laguna	12	San Juan la Laguna	8	Agosto	2023-04-08T00:00:00	2024-11-08T23:00:00	1	Precipitación	0
69616	7	Sololá	717	San Juan la Laguna	12	San Juan la Laguna	8	Agosto	2023-04-08T00:00:00	2024-11-08T23:00:00	8	Radiación solar	0
69617	7	Sololá	717	San Juan la Laguna	12	San Juan la Laguna	8	Agosto	2023-05-08T00:00:00	2024-11-08T00:00:00	2	Temperatura media	17.3
69618	7	Sololá	717	San Juan la Laguna	12	San Juan la Laguna	8	Agosto	2023-05-08T00:00:00	2024-11-08T00:00:00	4	Temperatura máxima	17.8
69619	7	Sololá	717	San Juan la Laguna	12	San Juan la Laguna	8	Agosto	2023-05-08T00:00:00	2024-11-08T00:00:00	3	Temperatura mínima	17.3
69620	7	Sololá	717	San Juan la Laguna	12	San Juan la Laguna	8	Agosto	2023-05-08T00:00:00	2024-11-08T00:00:00	5	Humedad	85
69621	7	Sololá	717	San Juan la Laguna	12	San Juan la Laguna	8	Agosto	2023-05-08T00:00:00	2024-11-08T00:00:00	6	Velocidad del viento	3.2
69622	7	Sololá	717	San Juan la Laguna	12	San Juan la Laguna	8	Agosto	2023-05-08T00:00:00	2024-11-08T00:00:00	7	Dirección del viento	3.22
69623	7	Sololá	717	San Juan la Laguna	12	San Juan la Laguna	8	Agosto	2023-05-08T00:00:00	2024-11-08T00:00:00	1	Precipitación	0
69624	7	Sololá	717	San Juan la Laguna	12	San Juan la Laguna	8	Agosto	2023-05-08T00:00:00	2024-11-08T00:00:00	8	Radiación solar	0
69625	7	Sololá	717	San Juan la Laguna	12	San Juan la Laguna	8	Agosto	2023-05-08T00:00:00	2024-11-08T01:00:00	2	Temperatura media	16.6
69626	7	Sololá	717	San Juan la Laguna	12	San Juan la Laguna	8	Agosto	2023-05-08T00:00:00	2024-11-08T01:00:00	4	Temperatura máxima	17.3
69627	7	Sololá	717	San Juan la Laguna	12	San Juan la Laguna	8	Agosto	2023-05-08T00:00:00	2024-11-08T01:00:00	3	Temperatura mínima	16.6
69628	7	Sololá	717	San Juan la Laguna	12	San Juan la Laguna	8	Agosto	2023-05-08T00:00:00	2024-11-08T01:00:00	5	Humedad	88
69629	7	Sololá	717	San Juan la Laguna	12	San Juan la Laguna	8	Agosto	2023-05-08T00:00:00	2024-11-08T01:00:00	6	Velocidad del viento	3.2
69630	7	Sololá	717	San Juan la Laguna	12	San Juan la Laguna	8	Agosto	2023-05-08T00:00:00	2024-11-08T01:00:00	7	Dirección del viento	3.22
69631	7	Sololá	717	San Juan la Laguna	12	San Juan la Laguna	8	Agosto	2023-05-08T00:00:00	2024-11-08T01:00:00	1	Precipitación	0
69632	7	Sololá	717	San Juan la Laguna	12	San Juan la Laguna	8	Agosto	2023-05-08T00:00:00	2024-11-08T01:00:00	8	Radiación solar	0
69633	7	Sololá	717	San Juan la Laguna	12	San Juan la Laguna	8	Agosto	2023-05-08T00:00:00	2024-11-08T02:00:00	2	Temperatura media	16.6
69634	7	Sololá	717	San Juan la Laguna	12	San Juan la Laguna	8	Agosto	2023-05-08T00:00:00	2024-11-08T02:00:00	4	Temperatura máxima	16.6
69635	7	Sololá	717	San Juan la Laguna	12	San Juan la Laguna	8	Agosto	2023-05-08T00:00:00	2024-11-08T02:00:00	3	Temperatura mínima	16.4
69636	7	Sololá	717	San Juan la Laguna	12	San Juan la Laguna	8	Agosto	2023-05-08T00:00:00	2024-11-08T02:00:00	5	Humedad	87
69637	7	Sololá	717	San Juan la Laguna	12	San Juan la Laguna	8	Agosto	2023-05-08T00:00:00	2024-11-08T02:00:00	6	Velocidad del viento	4.8
69638	7	Sololá	717	San Juan la Laguna	12	San Juan la Laguna	8	Agosto	2023-05-08T00:00:00	2024-11-08T02:00:00	7	Dirección del viento	4.83
69639	7	Sololá	717	San Juan la Laguna	12	San Juan la Laguna	8	Agosto	2023-05-08T00:00:00	2024-11-08T02:00:00	1	Precipitación	0
69640	7	Sololá	717	San Juan la Laguna	12	San Juan la Laguna	8	Agosto	2023-05-08T00:00:00	2024-11-08T02:00:00	8	Radiación solar	0
69641	7	Sololá	717	San Juan la Laguna	12	San Juan la Laguna	8	Agosto	2023-05-08T00:00:00	2024-11-08T03:00:00	2	Temperatura media	16
69642	7	Sololá	717	San Juan la Laguna	12	San Juan la Laguna	8	Agosto	2023-05-08T00:00:00	2024-11-08T03:00:00	4	Temperatura máxima	16.7
69643	7	Sololá	717	San Juan la Laguna	12	San Juan la Laguna	8	Agosto	2023-05-08T00:00:00	2024-11-08T03:00:00	3	Temperatura mínima	16
69644	7	Sololá	717	San Juan la Laguna	12	San Juan la Laguna	8	Agosto	2023-05-08T00:00:00	2024-11-08T03:00:00	5	Humedad	88
69645	7	Sololá	717	San Juan la Laguna	12	San Juan la Laguna	8	Agosto	2023-05-08T00:00:00	2024-11-08T03:00:00	6	Velocidad del viento	4.8
69646	7	Sololá	717	San Juan la Laguna	12	San Juan la Laguna	8	Agosto	2023-05-08T00:00:00	2024-11-08T03:00:00	7	Dirección del viento	4.83
69647	7	Sololá	717	San Juan la Laguna	12	San Juan la Laguna	8	Agosto	2023-05-08T00:00:00	2024-11-08T03:00:00	1	Precipitación	0
69648	7	Sololá	717	San Juan la Laguna	12	San Juan la Laguna	8	Agosto	2023-05-08T00:00:00	2024-11-08T03:00:00	8	Radiación solar	0
69649	7	Sololá	717	San Juan la Laguna	12	San Juan la Laguna	8	Agosto	2023-05-08T00:00:00	2024-11-08T04:00:00	2	Temperatura media	15.8
69650	7	Sololá	717	San Juan la Laguna	12	San Juan la Laguna	8	Agosto	2023-05-08T00:00:00	2024-11-08T04:00:00	4	Temperatura máxima	16
69651	7	Sololá	717	San Juan la Laguna	12	San Juan la Laguna	8	Agosto	2023-05-08T00:00:00	2024-11-08T04:00:00	3	Temperatura mínima	15.6
69652	7	Sololá	717	San Juan la Laguna	12	San Juan la Laguna	8	Agosto	2023-05-08T00:00:00	2024-11-08T04:00:00	5	Humedad	89
69653	7	Sololá	717	San Juan la Laguna	12	San Juan la Laguna	8	Agosto	2023-05-08T00:00:00	2024-11-08T04:00:00	6	Velocidad del viento	3.2
69654	7	Sololá	717	San Juan la Laguna	12	San Juan la Laguna	8	Agosto	2023-05-08T00:00:00	2024-11-08T04:00:00	7	Dirección del viento	3.22
69655	7	Sololá	717	San Juan la Laguna	12	San Juan la Laguna	8	Agosto	2023-05-08T00:00:00	2024-11-08T04:00:00	1	Precipitación	0
69656	7	Sololá	717	San Juan la Laguna	12	San Juan la Laguna	8	Agosto	2023-05-08T00:00:00	2024-11-08T04:00:00	8	Radiación solar	0
69657	7	Sololá	717	San Juan la Laguna	12	San Juan la Laguna	8	Agosto	2023-05-08T00:00:00	2024-11-08T05:00:00	2	Temperatura media	15.8
69658	7	Sololá	717	San Juan la Laguna	12	San Juan la Laguna	8	Agosto	2023-05-08T00:00:00	2024-11-08T05:00:00	4	Temperatura máxima	16.1
69659	7	Sololá	717	San Juan la Laguna	12	San Juan la Laguna	8	Agosto	2023-05-08T00:00:00	2024-11-08T05:00:00	3	Temperatura mínima	15.8
69660	7	Sololá	717	San Juan la Laguna	12	San Juan la Laguna	8	Agosto	2023-05-08T00:00:00	2024-11-08T05:00:00	5	Humedad	88
69661	7	Sololá	717	San Juan la Laguna	12	San Juan la Laguna	8	Agosto	2023-05-08T00:00:00	2024-11-08T05:00:00	6	Velocidad del viento	4.8
69662	7	Sololá	717	San Juan la Laguna	12	San Juan la Laguna	8	Agosto	2023-05-08T00:00:00	2024-11-08T05:00:00	7	Dirección del viento	4.83
69663	7	Sololá	717	San Juan la Laguna	12	San Juan la Laguna	8	Agosto	2023-05-08T00:00:00	2024-11-08T05:00:00	1	Precipitación	0
69664	7	Sololá	717	San Juan la Laguna	12	San Juan la Laguna	8	Agosto	2023-05-08T00:00:00	2024-11-08T05:00:00	8	Radiación solar	0
69665	7	Sololá	717	San Juan la Laguna	12	San Juan la Laguna	8	Agosto	2023-05-08T00:00:00	2024-11-08T06:00:00	2	Temperatura media	15.7
69666	7	Sololá	717	San Juan la Laguna	12	San Juan la Laguna	8	Agosto	2023-05-08T00:00:00	2024-11-08T06:00:00	4	Temperatura máxima	16.1
69667	7	Sololá	717	San Juan la Laguna	12	San Juan la Laguna	8	Agosto	2023-05-08T00:00:00	2024-11-08T06:00:00	3	Temperatura mínima	15.3
69668	7	Sololá	717	San Juan la Laguna	12	San Juan la Laguna	8	Agosto	2023-05-08T00:00:00	2024-11-08T06:00:00	5	Humedad	89
69669	7	Sololá	717	San Juan la Laguna	12	San Juan la Laguna	8	Agosto	2023-05-08T00:00:00	2024-11-08T06:00:00	6	Velocidad del viento	1.6
69670	7	Sololá	717	San Juan la Laguna	12	San Juan la Laguna	8	Agosto	2023-05-08T00:00:00	2024-11-08T06:00:00	7	Dirección del viento	1.61
69671	7	Sololá	717	San Juan la Laguna	12	San Juan la Laguna	8	Agosto	2023-05-08T00:00:00	2024-11-08T06:00:00	1	Precipitación	0
69672	7	Sololá	717	San Juan la Laguna	12	San Juan la Laguna	8	Agosto	2023-05-08T00:00:00	2024-11-08T06:00:00	8	Radiación solar	1
69673	7	Sololá	717	San Juan la Laguna	12	San Juan la Laguna	8	Agosto	2023-05-08T00:00:00	2024-11-08T07:00:00	2	Temperatura media	17.3
69674	7	Sololá	717	San Juan la Laguna	12	San Juan la Laguna	8	Agosto	2023-05-08T00:00:00	2024-11-08T07:00:00	4	Temperatura máxima	17.3
69675	7	Sololá	717	San Juan la Laguna	12	San Juan la Laguna	8	Agosto	2023-05-08T00:00:00	2024-11-08T07:00:00	3	Temperatura mínima	15.7
69676	7	Sololá	717	San Juan la Laguna	12	San Juan la Laguna	8	Agosto	2023-05-08T00:00:00	2024-11-08T07:00:00	5	Humedad	88
69677	7	Sololá	717	San Juan la Laguna	12	San Juan la Laguna	8	Agosto	2023-05-08T00:00:00	2024-11-08T07:00:00	6	Velocidad del viento	3.2
69678	7	Sololá	717	San Juan la Laguna	12	San Juan la Laguna	8	Agosto	2023-05-08T00:00:00	2024-11-08T07:00:00	7	Dirección del viento	3.22
69679	7	Sololá	717	San Juan la Laguna	12	San Juan la Laguna	8	Agosto	2023-05-08T00:00:00	2024-11-08T07:00:00	1	Precipitación	0
69680	7	Sololá	717	San Juan la Laguna	12	San Juan la Laguna	8	Agosto	2023-05-08T00:00:00	2024-11-08T07:00:00	8	Radiación solar	62
69681	7	Sololá	717	San Juan la Laguna	12	San Juan la Laguna	8	Agosto	2023-05-08T00:00:00	2024-11-08T08:00:00	2	Temperatura media	21.4
69682	7	Sololá	717	San Juan la Laguna	12	San Juan la Laguna	8	Agosto	2023-05-08T00:00:00	2024-11-08T08:00:00	4	Temperatura máxima	21.4
69683	7	Sololá	717	San Juan la Laguna	12	San Juan la Laguna	8	Agosto	2023-05-08T00:00:00	2024-11-08T08:00:00	3	Temperatura mínima	17.3
69684	7	Sololá	717	San Juan la Laguna	12	San Juan la Laguna	8	Agosto	2023-05-08T00:00:00	2024-11-08T08:00:00	5	Humedad	71
69685	7	Sololá	717	San Juan la Laguna	12	San Juan la Laguna	8	Agosto	2023-05-08T00:00:00	2024-11-08T08:00:00	6	Velocidad del viento	3.2
69686	7	Sololá	717	San Juan la Laguna	12	San Juan la Laguna	8	Agosto	2023-05-08T00:00:00	2024-11-08T08:00:00	7	Dirección del viento	3.22
69687	7	Sololá	717	San Juan la Laguna	12	San Juan la Laguna	8	Agosto	2023-05-08T00:00:00	2024-11-08T08:00:00	1	Precipitación	0
69688	7	Sololá	717	San Juan la Laguna	12	San Juan la Laguna	8	Agosto	2023-05-08T00:00:00	2024-11-08T08:00:00	8	Radiación solar	235
69689	7	Sololá	717	San Juan la Laguna	12	San Juan la Laguna	8	Agosto	2023-05-08T00:00:00	2024-11-08T09:00:00	2	Temperatura media	22.9
69690	7	Sololá	717	San Juan la Laguna	12	San Juan la Laguna	8	Agosto	2023-05-08T00:00:00	2024-11-08T09:00:00	4	Temperatura máxima	23.3
69691	7	Sololá	717	San Juan la Laguna	12	San Juan la Laguna	8	Agosto	2023-05-08T00:00:00	2024-11-08T09:00:00	3	Temperatura mínima	21.4
69692	7	Sololá	717	San Juan la Laguna	12	San Juan la Laguna	8	Agosto	2023-05-08T00:00:00	2024-11-08T09:00:00	5	Humedad	67
69693	7	Sololá	717	San Juan la Laguna	12	San Juan la Laguna	8	Agosto	2023-05-08T00:00:00	2024-11-08T09:00:00	6	Velocidad del viento	4.8
69694	7	Sololá	717	San Juan la Laguna	12	San Juan la Laguna	8	Agosto	2023-05-08T00:00:00	2024-11-08T09:00:00	7	Dirección del viento	4.83
69695	7	Sololá	717	San Juan la Laguna	12	San Juan la Laguna	8	Agosto	2023-05-08T00:00:00	2024-11-08T09:00:00	1	Precipitación	0
69696	7	Sololá	717	San Juan la Laguna	12	San Juan la Laguna	8	Agosto	2023-05-08T00:00:00	2024-11-08T09:00:00	8	Radiación solar	458
69697	7	Sololá	717	San Juan la Laguna	12	San Juan la Laguna	8	Agosto	2023-05-08T00:00:00	2024-11-08T10:00:00	2	Temperatura media	24.6
69698	7	Sololá	717	San Juan la Laguna	12	San Juan la Laguna	8	Agosto	2023-05-08T00:00:00	2024-11-08T10:00:00	4	Temperatura máxima	24.6
69699	7	Sololá	717	San Juan la Laguna	12	San Juan la Laguna	8	Agosto	2023-05-08T00:00:00	2024-11-08T10:00:00	3	Temperatura mínima	22.8
69700	7	Sololá	717	San Juan la Laguna	12	San Juan la Laguna	8	Agosto	2023-05-08T00:00:00	2024-11-08T10:00:00	5	Humedad	60
69701	7	Sololá	717	San Juan la Laguna	12	San Juan la Laguna	8	Agosto	2023-05-08T00:00:00	2024-11-08T10:00:00	6	Velocidad del viento	4.8
69702	7	Sololá	717	San Juan la Laguna	12	San Juan la Laguna	8	Agosto	2023-05-08T00:00:00	2024-11-08T10:00:00	7	Dirección del viento	4.83
69703	7	Sololá	717	San Juan la Laguna	12	San Juan la Laguna	8	Agosto	2023-05-08T00:00:00	2024-11-08T10:00:00	1	Precipitación	0
69704	7	Sololá	717	San Juan la Laguna	12	San Juan la Laguna	8	Agosto	2023-05-08T00:00:00	2024-11-08T10:00:00	8	Radiación solar	689
69705	7	Sololá	717	San Juan la Laguna	12	San Juan la Laguna	8	Agosto	2023-05-08T00:00:00	2024-11-08T11:00:00	2	Temperatura media	25.4
69706	7	Sololá	717	San Juan la Laguna	12	San Juan la Laguna	8	Agosto	2023-05-08T00:00:00	2024-11-08T11:00:00	4	Temperatura máxima	25.6
69707	7	Sololá	717	San Juan la Laguna	12	San Juan la Laguna	8	Agosto	2023-05-08T00:00:00	2024-11-08T11:00:00	3	Temperatura mínima	24.5
69708	7	Sololá	717	San Juan la Laguna	12	San Juan la Laguna	8	Agosto	2023-05-08T00:00:00	2024-11-08T11:00:00	5	Humedad	55
69709	7	Sololá	717	San Juan la Laguna	12	San Juan la Laguna	8	Agosto	2023-05-08T00:00:00	2024-11-08T11:00:00	6	Velocidad del viento	8
69710	7	Sololá	717	San Juan la Laguna	12	San Juan la Laguna	8	Agosto	2023-05-08T00:00:00	2024-11-08T11:00:00	7	Dirección del viento	8.05
69711	7	Sololá	717	San Juan la Laguna	12	San Juan la Laguna	8	Agosto	2023-05-08T00:00:00	2024-11-08T11:00:00	1	Precipitación	0
69712	7	Sololá	717	San Juan la Laguna	12	San Juan la Laguna	8	Agosto	2023-05-08T00:00:00	2024-11-08T11:00:00	8	Radiación solar	886
69713	7	Sololá	717	San Juan la Laguna	12	San Juan la Laguna	8	Agosto	2023-05-08T00:00:00	2024-11-08T12:00:00	2	Temperatura media	28.2
69714	7	Sololá	717	San Juan la Laguna	12	San Juan la Laguna	8	Agosto	2023-05-08T00:00:00	2024-11-08T12:00:00	4	Temperatura máxima	28.2
69715	7	Sololá	717	San Juan la Laguna	12	San Juan la Laguna	8	Agosto	2023-05-08T00:00:00	2024-11-08T12:00:00	3	Temperatura mínima	25.4
69716	7	Sololá	717	San Juan la Laguna	12	San Juan la Laguna	8	Agosto	2023-05-08T00:00:00	2024-11-08T12:00:00	5	Humedad	40
69717	7	Sololá	717	San Juan la Laguna	12	San Juan la Laguna	8	Agosto	2023-05-08T00:00:00	2024-11-08T12:00:00	6	Velocidad del viento	8
69718	7	Sololá	717	San Juan la Laguna	12	San Juan la Laguna	8	Agosto	2023-05-08T00:00:00	2024-11-08T12:00:00	7	Dirección del viento	8.05
69719	7	Sololá	717	San Juan la Laguna	12	San Juan la Laguna	8	Agosto	2023-05-08T00:00:00	2024-11-08T12:00:00	1	Precipitación	0
69720	7	Sololá	717	San Juan la Laguna	12	San Juan la Laguna	8	Agosto	2023-05-08T00:00:00	2024-11-08T12:00:00	8	Radiación solar	939
69721	7	Sololá	717	San Juan la Laguna	12	San Juan la Laguna	8	Agosto	2023-05-08T00:00:00	2024-11-08T13:00:00	2	Temperatura media	28.2
69722	7	Sololá	717	San Juan la Laguna	12	San Juan la Laguna	8	Agosto	2023-05-08T00:00:00	2024-11-08T13:00:00	4	Temperatura máxima	28.5
69723	7	Sololá	717	San Juan la Laguna	12	San Juan la Laguna	8	Agosto	2023-05-08T00:00:00	2024-11-08T13:00:00	3	Temperatura mínima	27.7
69724	7	Sololá	717	San Juan la Laguna	12	San Juan la Laguna	8	Agosto	2023-05-08T00:00:00	2024-11-08T13:00:00	5	Humedad	41
69725	7	Sololá	717	San Juan la Laguna	12	San Juan la Laguna	8	Agosto	2023-05-08T00:00:00	2024-11-08T13:00:00	6	Velocidad del viento	9.7
69726	7	Sololá	717	San Juan la Laguna	12	San Juan la Laguna	8	Agosto	2023-05-08T00:00:00	2024-11-08T13:00:00	7	Dirección del viento	9.66
69727	7	Sololá	717	San Juan la Laguna	12	San Juan la Laguna	8	Agosto	2023-05-08T00:00:00	2024-11-08T13:00:00	1	Precipitación	0
69728	7	Sololá	717	San Juan la Laguna	12	San Juan la Laguna	8	Agosto	2023-05-08T00:00:00	2024-11-08T13:00:00	8	Radiación solar	956
69729	7	Sololá	717	San Juan la Laguna	12	San Juan la Laguna	8	Agosto	2023-05-08T00:00:00	2024-11-08T14:00:00	2	Temperatura media	28.2
69730	7	Sololá	717	San Juan la Laguna	12	San Juan la Laguna	8	Agosto	2023-05-08T00:00:00	2024-11-08T14:00:00	4	Temperatura máxima	28.6
69731	7	Sololá	717	San Juan la Laguna	12	San Juan la Laguna	8	Agosto	2023-05-08T00:00:00	2024-11-08T14:00:00	3	Temperatura mínima	27.9
69732	7	Sololá	717	San Juan la Laguna	12	San Juan la Laguna	8	Agosto	2023-05-08T00:00:00	2024-11-08T14:00:00	5	Humedad	44
69733	7	Sololá	717	San Juan la Laguna	12	San Juan la Laguna	8	Agosto	2023-05-08T00:00:00	2024-11-08T14:00:00	6	Velocidad del viento	9.7
69734	7	Sololá	717	San Juan la Laguna	12	San Juan la Laguna	8	Agosto	2023-05-08T00:00:00	2024-11-08T14:00:00	7	Dirección del viento	9.66
69735	7	Sololá	717	San Juan la Laguna	12	San Juan la Laguna	8	Agosto	2023-05-08T00:00:00	2024-11-08T14:00:00	1	Precipitación	0
69736	7	Sololá	717	San Juan la Laguna	12	San Juan la Laguna	8	Agosto	2023-05-08T00:00:00	2024-11-08T14:00:00	8	Radiación solar	909
69737	7	Sololá	717	San Juan la Laguna	12	San Juan la Laguna	8	Agosto	2023-05-08T00:00:00	2024-11-08T15:00:00	2	Temperatura media	27.3
69738	7	Sololá	717	San Juan la Laguna	12	San Juan la Laguna	8	Agosto	2023-05-08T00:00:00	2024-11-08T15:00:00	4	Temperatura máxima	28.4
69739	7	Sololá	717	San Juan la Laguna	12	San Juan la Laguna	8	Agosto	2023-05-08T00:00:00	2024-11-08T15:00:00	3	Temperatura mínima	27.3
69740	7	Sololá	717	San Juan la Laguna	12	San Juan la Laguna	8	Agosto	2023-05-08T00:00:00	2024-11-08T15:00:00	5	Humedad	50
69741	7	Sololá	717	San Juan la Laguna	12	San Juan la Laguna	8	Agosto	2023-05-08T00:00:00	2024-11-08T15:00:00	6	Velocidad del viento	9.7
69742	7	Sololá	717	San Juan la Laguna	12	San Juan la Laguna	8	Agosto	2023-05-08T00:00:00	2024-11-08T15:00:00	7	Dirección del viento	9.66
69743	7	Sololá	717	San Juan la Laguna	12	San Juan la Laguna	8	Agosto	2023-05-08T00:00:00	2024-11-08T15:00:00	1	Precipitación	0
69744	7	Sololá	717	San Juan la Laguna	12	San Juan la Laguna	8	Agosto	2023-05-08T00:00:00	2024-11-08T15:00:00	8	Radiación solar	793
69745	7	Sololá	717	San Juan la Laguna	12	San Juan la Laguna	8	Agosto	2023-05-08T00:00:00	2024-11-08T16:00:00	2	Temperatura media	27
69746	7	Sololá	717	San Juan la Laguna	12	San Juan la Laguna	8	Agosto	2023-05-08T00:00:00	2024-11-08T16:00:00	4	Temperatura máxima	27.3
69747	7	Sololá	717	San Juan la Laguna	12	San Juan la Laguna	8	Agosto	2023-05-08T00:00:00	2024-11-08T16:00:00	3	Temperatura mínima	26.6
69748	7	Sololá	717	San Juan la Laguna	12	San Juan la Laguna	8	Agosto	2023-05-08T00:00:00	2024-11-08T16:00:00	5	Humedad	47
69749	7	Sololá	717	San Juan la Laguna	12	San Juan la Laguna	8	Agosto	2023-05-08T00:00:00	2024-11-08T16:00:00	6	Velocidad del viento	8
69750	7	Sololá	717	San Juan la Laguna	12	San Juan la Laguna	8	Agosto	2023-05-08T00:00:00	2024-11-08T16:00:00	7	Dirección del viento	8.05
69751	7	Sololá	717	San Juan la Laguna	12	San Juan la Laguna	8	Agosto	2023-05-08T00:00:00	2024-11-08T16:00:00	1	Precipitación	0
69752	7	Sololá	717	San Juan la Laguna	12	San Juan la Laguna	8	Agosto	2023-05-08T00:00:00	2024-11-08T16:00:00	8	Radiación solar	592
69753	7	Sololá	717	San Juan la Laguna	12	San Juan la Laguna	8	Agosto	2023-05-08T00:00:00	2024-11-08T17:00:00	2	Temperatura media	26.5
69754	7	Sololá	717	San Juan la Laguna	12	San Juan la Laguna	8	Agosto	2023-05-08T00:00:00	2024-11-08T17:00:00	4	Temperatura máxima	27.3
69755	7	Sololá	717	San Juan la Laguna	12	San Juan la Laguna	8	Agosto	2023-05-08T00:00:00	2024-11-08T17:00:00	3	Temperatura mínima	26.5
69756	7	Sololá	717	San Juan la Laguna	12	San Juan la Laguna	8	Agosto	2023-05-08T00:00:00	2024-11-08T17:00:00	5	Humedad	50
69757	7	Sololá	717	San Juan la Laguna	12	San Juan la Laguna	8	Agosto	2023-05-08T00:00:00	2024-11-08T17:00:00	6	Velocidad del viento	3.2
69758	7	Sololá	717	San Juan la Laguna	12	San Juan la Laguna	8	Agosto	2023-05-08T00:00:00	2024-11-08T17:00:00	7	Dirección del viento	3.22
69759	7	Sololá	717	San Juan la Laguna	12	San Juan la Laguna	8	Agosto	2023-05-08T00:00:00	2024-11-08T17:00:00	1	Precipitación	0
69760	7	Sololá	717	San Juan la Laguna	12	San Juan la Laguna	8	Agosto	2023-05-08T00:00:00	2024-11-08T17:00:00	8	Radiación solar	402
69761	7	Sololá	717	San Juan la Laguna	12	San Juan la Laguna	8	Agosto	2023-05-08T00:00:00	2024-11-08T18:00:00	2	Temperatura media	23.2
69762	7	Sololá	717	San Juan la Laguna	12	San Juan la Laguna	8	Agosto	2023-05-08T00:00:00	2024-11-08T18:00:00	4	Temperatura máxima	26.6
69763	7	Sololá	717	San Juan la Laguna	12	San Juan la Laguna	8	Agosto	2023-05-08T00:00:00	2024-11-08T18:00:00	3	Temperatura mínima	23.2
69764	7	Sololá	717	San Juan la Laguna	12	San Juan la Laguna	8	Agosto	2023-05-08T00:00:00	2024-11-08T18:00:00	5	Humedad	66
69765	7	Sololá	717	San Juan la Laguna	12	San Juan la Laguna	8	Agosto	2023-05-08T00:00:00	2024-11-08T18:00:00	6	Velocidad del viento	0
69766	7	Sololá	717	San Juan la Laguna	12	San Juan la Laguna	8	Agosto	2023-05-08T00:00:00	2024-11-08T18:00:00	7	Dirección del viento	0
69767	7	Sololá	717	San Juan la Laguna	12	San Juan la Laguna	8	Agosto	2023-05-08T00:00:00	2024-11-08T18:00:00	1	Precipitación	0
69768	7	Sololá	717	San Juan la Laguna	12	San Juan la Laguna	8	Agosto	2023-05-08T00:00:00	2024-11-08T18:00:00	8	Radiación solar	131
69769	7	Sololá	717	San Juan la Laguna	12	San Juan la Laguna	8	Agosto	2023-05-08T00:00:00	2024-11-08T19:00:00	2	Temperatura media	21.3
69770	7	Sololá	717	San Juan la Laguna	12	San Juan la Laguna	8	Agosto	2023-05-08T00:00:00	2024-11-08T19:00:00	4	Temperatura máxima	23.2
69771	7	Sololá	717	San Juan la Laguna	12	San Juan la Laguna	8	Agosto	2023-05-08T00:00:00	2024-11-08T19:00:00	3	Temperatura mínima	21.3
69772	7	Sololá	717	San Juan la Laguna	12	San Juan la Laguna	8	Agosto	2023-05-08T00:00:00	2024-11-08T19:00:00	5	Humedad	76
69773	7	Sololá	717	San Juan la Laguna	12	San Juan la Laguna	8	Agosto	2023-05-08T00:00:00	2024-11-08T19:00:00	6	Velocidad del viento	0
69774	7	Sololá	717	San Juan la Laguna	12	San Juan la Laguna	8	Agosto	2023-05-08T00:00:00	2024-11-08T19:00:00	7	Dirección del viento	0
69775	7	Sololá	717	San Juan la Laguna	12	San Juan la Laguna	8	Agosto	2023-05-08T00:00:00	2024-11-08T19:00:00	1	Precipitación	0
69776	7	Sololá	717	San Juan la Laguna	12	San Juan la Laguna	8	Agosto	2023-05-08T00:00:00	2024-11-08T19:00:00	8	Radiación solar	0
69777	7	Sololá	717	San Juan la Laguna	12	San Juan la Laguna	8	Agosto	2023-05-08T00:00:00	2024-11-08T20:00:00	2	Temperatura media	19.6
69778	7	Sololá	717	San Juan la Laguna	12	San Juan la Laguna	8	Agosto	2023-05-08T00:00:00	2024-11-08T20:00:00	4	Temperatura máxima	21.3
69779	7	Sololá	717	San Juan la Laguna	12	San Juan la Laguna	8	Agosto	2023-05-08T00:00:00	2024-11-08T20:00:00	3	Temperatura mínima	19.6
69780	7	Sololá	717	San Juan la Laguna	12	San Juan la Laguna	8	Agosto	2023-05-08T00:00:00	2024-11-08T20:00:00	5	Humedad	80
69781	7	Sololá	717	San Juan la Laguna	12	San Juan la Laguna	8	Agosto	2023-05-08T00:00:00	2024-11-08T20:00:00	6	Velocidad del viento	0
69782	7	Sololá	717	San Juan la Laguna	12	San Juan la Laguna	8	Agosto	2023-05-08T00:00:00	2024-11-08T20:00:00	7	Dirección del viento	0
69783	7	Sololá	717	San Juan la Laguna	12	San Juan la Laguna	8	Agosto	2023-05-08T00:00:00	2024-11-08T20:00:00	1	Precipitación	0
69784	7	Sololá	717	San Juan la Laguna	12	San Juan la Laguna	8	Agosto	2023-05-08T00:00:00	2024-11-08T20:00:00	8	Radiación solar	0
69785	7	Sololá	717	San Juan la Laguna	12	San Juan la Laguna	8	Agosto	2023-05-08T00:00:00	2024-11-08T21:00:00	2	Temperatura media	19.1
69786	7	Sololá	717	San Juan la Laguna	12	San Juan la Laguna	8	Agosto	2023-05-08T00:00:00	2024-11-08T21:00:00	4	Temperatura máxima	19.6
69787	7	Sololá	717	San Juan la Laguna	12	San Juan la Laguna	8	Agosto	2023-05-08T00:00:00	2024-11-08T21:00:00	3	Temperatura mínima	18.9
69788	7	Sololá	717	San Juan la Laguna	12	San Juan la Laguna	8	Agosto	2023-05-08T00:00:00	2024-11-08T21:00:00	5	Humedad	81
69789	7	Sololá	717	San Juan la Laguna	12	San Juan la Laguna	8	Agosto	2023-05-08T00:00:00	2024-11-08T21:00:00	6	Velocidad del viento	1.6
69790	7	Sololá	717	San Juan la Laguna	12	San Juan la Laguna	8	Agosto	2023-05-08T00:00:00	2024-11-08T21:00:00	7	Dirección del viento	1.61
69791	7	Sololá	717	San Juan la Laguna	12	San Juan la Laguna	8	Agosto	2023-05-08T00:00:00	2024-11-08T21:00:00	1	Precipitación	0
69792	7	Sololá	717	San Juan la Laguna	12	San Juan la Laguna	8	Agosto	2023-05-08T00:00:00	2024-11-08T21:00:00	8	Radiación solar	0
69793	7	Sololá	717	San Juan la Laguna	12	San Juan la Laguna	8	Agosto	2023-05-08T00:00:00	2024-11-08T22:00:00	2	Temperatura media	18.7
69794	7	Sololá	717	San Juan la Laguna	12	San Juan la Laguna	8	Agosto	2023-05-08T00:00:00	2024-11-08T22:00:00	4	Temperatura máxima	19.6
69795	7	Sololá	717	San Juan la Laguna	12	San Juan la Laguna	8	Agosto	2023-05-08T00:00:00	2024-11-08T22:00:00	3	Temperatura mínima	18.7
69796	7	Sololá	717	San Juan la Laguna	12	San Juan la Laguna	8	Agosto	2023-05-08T00:00:00	2024-11-08T22:00:00	5	Humedad	80
69797	7	Sololá	717	San Juan la Laguna	12	San Juan la Laguna	8	Agosto	2023-05-08T00:00:00	2024-11-08T22:00:00	6	Velocidad del viento	1.6
69798	7	Sololá	717	San Juan la Laguna	12	San Juan la Laguna	8	Agosto	2023-05-08T00:00:00	2024-11-08T22:00:00	7	Dirección del viento	1.61
69799	7	Sololá	717	San Juan la Laguna	12	San Juan la Laguna	8	Agosto	2023-05-08T00:00:00	2024-11-08T22:00:00	1	Precipitación	0
69800	7	Sololá	717	San Juan la Laguna	12	San Juan la Laguna	8	Agosto	2023-05-08T00:00:00	2024-11-08T22:00:00	8	Radiación solar	0
69801	7	Sololá	717	San Juan la Laguna	12	San Juan la Laguna	8	Agosto	2023-05-08T00:00:00	2024-11-08T23:00:00	2	Temperatura media	18
69802	7	Sololá	717	San Juan la Laguna	12	San Juan la Laguna	8	Agosto	2023-05-08T00:00:00	2024-11-08T23:00:00	4	Temperatura máxima	18.9
69803	7	Sololá	717	San Juan la Laguna	12	San Juan la Laguna	8	Agosto	2023-05-08T00:00:00	2024-11-08T23:00:00	3	Temperatura mínima	17.9
69804	7	Sololá	717	San Juan la Laguna	12	San Juan la Laguna	8	Agosto	2023-05-08T00:00:00	2024-11-08T23:00:00	5	Humedad	83
69805	7	Sololá	717	San Juan la Laguna	12	San Juan la Laguna	8	Agosto	2023-05-08T00:00:00	2024-11-08T23:00:00	6	Velocidad del viento	1.6
69806	7	Sololá	717	San Juan la Laguna	12	San Juan la Laguna	8	Agosto	2023-05-08T00:00:00	2024-11-08T23:00:00	7	Dirección del viento	1.61
69807	7	Sololá	717	San Juan la Laguna	12	San Juan la Laguna	8	Agosto	2023-05-08T00:00:00	2024-11-08T23:00:00	1	Precipitación	0
69808	7	Sololá	717	San Juan la Laguna	12	San Juan la Laguna	8	Agosto	2023-05-08T00:00:00	2024-11-08T23:00:00	8	Radiación solar	0
69809	7	Sololá	717	San Juan la Laguna	12	San Juan la Laguna	8	Agosto	2023-06-08T00:00:00	2024-11-08T00:00:00	2	Temperatura media	17.2
69810	7	Sololá	717	San Juan la Laguna	12	San Juan la Laguna	8	Agosto	2023-06-08T00:00:00	2024-11-08T00:00:00	4	Temperatura máxima	18.1
69811	7	Sololá	717	San Juan la Laguna	12	San Juan la Laguna	8	Agosto	2023-06-08T00:00:00	2024-11-08T00:00:00	3	Temperatura mínima	17.2
69812	7	Sololá	717	San Juan la Laguna	12	San Juan la Laguna	8	Agosto	2023-06-08T00:00:00	2024-11-08T00:00:00	5	Humedad	83
69813	7	Sololá	717	San Juan la Laguna	12	San Juan la Laguna	8	Agosto	2023-06-08T00:00:00	2024-11-08T00:00:00	6	Velocidad del viento	1.6
69814	7	Sololá	717	San Juan la Laguna	12	San Juan la Laguna	8	Agosto	2023-06-08T00:00:00	2024-11-08T00:00:00	7	Dirección del viento	1.61
69815	7	Sololá	717	San Juan la Laguna	12	San Juan la Laguna	8	Agosto	2023-06-08T00:00:00	2024-11-08T00:00:00	1	Precipitación	0
69816	7	Sololá	717	San Juan la Laguna	12	San Juan la Laguna	8	Agosto	2023-06-08T00:00:00	2024-11-08T00:00:00	8	Radiación solar	0
69817	7	Sololá	717	San Juan la Laguna	12	San Juan la Laguna	8	Agosto	2023-06-08T00:00:00	2024-11-08T01:00:00	2	Temperatura media	16.6
69818	7	Sololá	717	San Juan la Laguna	12	San Juan la Laguna	8	Agosto	2023-06-08T00:00:00	2024-11-08T01:00:00	4	Temperatura máxima	17.2
69819	7	Sololá	717	San Juan la Laguna	12	San Juan la Laguna	8	Agosto	2023-06-08T00:00:00	2024-11-08T01:00:00	3	Temperatura mínima	16.5
69820	7	Sololá	717	San Juan la Laguna	12	San Juan la Laguna	8	Agosto	2023-06-08T00:00:00	2024-11-08T01:00:00	5	Humedad	85
69821	7	Sololá	717	San Juan la Laguna	12	San Juan la Laguna	8	Agosto	2023-06-08T00:00:00	2024-11-08T01:00:00	6	Velocidad del viento	1.6
69822	7	Sololá	717	San Juan la Laguna	12	San Juan la Laguna	8	Agosto	2023-06-08T00:00:00	2024-11-08T01:00:00	7	Dirección del viento	1.61
69823	7	Sololá	717	San Juan la Laguna	12	San Juan la Laguna	8	Agosto	2023-06-08T00:00:00	2024-11-08T01:00:00	1	Precipitación	0
69824	7	Sololá	717	San Juan la Laguna	12	San Juan la Laguna	8	Agosto	2023-06-08T00:00:00	2024-11-08T01:00:00	8	Radiación solar	0
69825	7	Sololá	717	San Juan la Laguna	12	San Juan la Laguna	8	Agosto	2023-06-08T00:00:00	2024-11-08T02:00:00	2	Temperatura media	16.5
69826	7	Sololá	717	San Juan la Laguna	12	San Juan la Laguna	8	Agosto	2023-06-08T00:00:00	2024-11-08T02:00:00	4	Temperatura máxima	16.6
69827	7	Sololá	717	San Juan la Laguna	12	San Juan la Laguna	8	Agosto	2023-06-08T00:00:00	2024-11-08T02:00:00	3	Temperatura mínima	16.2
69828	7	Sololá	717	San Juan la Laguna	12	San Juan la Laguna	8	Agosto	2023-06-08T00:00:00	2024-11-08T02:00:00	5	Humedad	81
69829	7	Sololá	717	San Juan la Laguna	12	San Juan la Laguna	8	Agosto	2023-06-08T00:00:00	2024-11-08T02:00:00	6	Velocidad del viento	3.2
69830	7	Sololá	717	San Juan la Laguna	12	San Juan la Laguna	8	Agosto	2023-06-08T00:00:00	2024-11-08T02:00:00	7	Dirección del viento	3.22
69831	7	Sololá	717	San Juan la Laguna	12	San Juan la Laguna	8	Agosto	2023-06-08T00:00:00	2024-11-08T02:00:00	1	Precipitación	0
69832	7	Sololá	717	San Juan la Laguna	12	San Juan la Laguna	8	Agosto	2023-06-08T00:00:00	2024-11-08T02:00:00	8	Radiación solar	0
69833	7	Sololá	717	San Juan la Laguna	12	San Juan la Laguna	8	Agosto	2023-06-08T00:00:00	2024-11-08T03:00:00	2	Temperatura media	15.8
69834	7	Sololá	717	San Juan la Laguna	12	San Juan la Laguna	8	Agosto	2023-06-08T00:00:00	2024-11-08T03:00:00	4	Temperatura máxima	16.5
69835	7	Sololá	717	San Juan la Laguna	12	San Juan la Laguna	8	Agosto	2023-06-08T00:00:00	2024-11-08T03:00:00	3	Temperatura mínima	15.8
69836	7	Sololá	717	San Juan la Laguna	12	San Juan la Laguna	8	Agosto	2023-06-08T00:00:00	2024-11-08T03:00:00	5	Humedad	81
69837	7	Sololá	717	San Juan la Laguna	12	San Juan la Laguna	8	Agosto	2023-06-08T00:00:00	2024-11-08T03:00:00	6	Velocidad del viento	1.6
69838	7	Sololá	717	San Juan la Laguna	12	San Juan la Laguna	8	Agosto	2023-06-08T00:00:00	2024-11-08T03:00:00	7	Dirección del viento	1.61
69839	7	Sololá	717	San Juan la Laguna	12	San Juan la Laguna	8	Agosto	2023-06-08T00:00:00	2024-11-08T03:00:00	1	Precipitación	0
69840	7	Sololá	717	San Juan la Laguna	12	San Juan la Laguna	8	Agosto	2023-06-08T00:00:00	2024-11-08T03:00:00	8	Radiación solar	0
69841	7	Sololá	717	San Juan la Laguna	12	San Juan la Laguna	8	Agosto	2023-06-08T00:00:00	2024-11-08T04:00:00	2	Temperatura media	15
69842	7	Sololá	717	San Juan la Laguna	12	San Juan la Laguna	8	Agosto	2023-06-08T00:00:00	2024-11-08T04:00:00	4	Temperatura máxima	15.8
69843	7	Sololá	717	San Juan la Laguna	12	San Juan la Laguna	8	Agosto	2023-06-08T00:00:00	2024-11-08T04:00:00	3	Temperatura mínima	15
69844	7	Sololá	717	San Juan la Laguna	12	San Juan la Laguna	8	Agosto	2023-06-08T00:00:00	2024-11-08T04:00:00	5	Humedad	83
69845	7	Sololá	717	San Juan la Laguna	12	San Juan la Laguna	8	Agosto	2023-06-08T00:00:00	2024-11-08T04:00:00	6	Velocidad del viento	3.2
69846	7	Sololá	717	San Juan la Laguna	12	San Juan la Laguna	8	Agosto	2023-06-08T00:00:00	2024-11-08T04:00:00	7	Dirección del viento	3.22
69847	7	Sololá	717	San Juan la Laguna	12	San Juan la Laguna	8	Agosto	2023-06-08T00:00:00	2024-11-08T04:00:00	1	Precipitación	0
69848	7	Sololá	717	San Juan la Laguna	12	San Juan la Laguna	8	Agosto	2023-06-08T00:00:00	2024-11-08T04:00:00	8	Radiación solar	0
69849	7	Sololá	717	San Juan la Laguna	12	San Juan la Laguna	8	Agosto	2023-06-08T00:00:00	2024-11-08T05:00:00	2	Temperatura media	15.1
69850	7	Sololá	717	San Juan la Laguna	12	San Juan la Laguna	8	Agosto	2023-06-08T00:00:00	2024-11-08T05:00:00	4	Temperatura máxima	15.7
69851	7	Sololá	717	San Juan la Laguna	12	San Juan la Laguna	8	Agosto	2023-06-08T00:00:00	2024-11-08T05:00:00	3	Temperatura mínima	14.8
69852	7	Sololá	717	San Juan la Laguna	12	San Juan la Laguna	8	Agosto	2023-06-08T00:00:00	2024-11-08T05:00:00	5	Humedad	83
69853	7	Sololá	717	San Juan la Laguna	12	San Juan la Laguna	8	Agosto	2023-06-08T00:00:00	2024-11-08T05:00:00	6	Velocidad del viento	4.8
69854	7	Sololá	717	San Juan la Laguna	12	San Juan la Laguna	8	Agosto	2023-06-08T00:00:00	2024-11-08T05:00:00	7	Dirección del viento	4.83
69855	7	Sololá	717	San Juan la Laguna	12	San Juan la Laguna	8	Agosto	2023-06-08T00:00:00	2024-11-08T05:00:00	1	Precipitación	0
69856	7	Sololá	717	San Juan la Laguna	12	San Juan la Laguna	8	Agosto	2023-06-08T00:00:00	2024-11-08T05:00:00	8	Radiación solar	0
69857	7	Sololá	717	San Juan la Laguna	12	San Juan la Laguna	8	Agosto	2023-06-08T00:00:00	2024-11-08T06:00:00	2	Temperatura media	15.1
69858	7	Sololá	717	San Juan la Laguna	12	San Juan la Laguna	8	Agosto	2023-06-08T00:00:00	2024-11-08T06:00:00	4	Temperatura máxima	15.4
69859	7	Sololá	717	San Juan la Laguna	12	San Juan la Laguna	8	Agosto	2023-06-08T00:00:00	2024-11-08T06:00:00	3	Temperatura mínima	14.9
69860	7	Sololá	717	San Juan la Laguna	12	San Juan la Laguna	8	Agosto	2023-06-08T00:00:00	2024-11-08T06:00:00	5	Humedad	84
69861	7	Sololá	717	San Juan la Laguna	12	San Juan la Laguna	8	Agosto	2023-06-08T00:00:00	2024-11-08T06:00:00	6	Velocidad del viento	4.8
69862	7	Sololá	717	San Juan la Laguna	12	San Juan la Laguna	8	Agosto	2023-06-08T00:00:00	2024-11-08T06:00:00	7	Dirección del viento	4.83
69863	7	Sololá	717	San Juan la Laguna	12	San Juan la Laguna	8	Agosto	2023-06-08T00:00:00	2024-11-08T06:00:00	1	Precipitación	0
69864	7	Sololá	717	San Juan la Laguna	12	San Juan la Laguna	8	Agosto	2023-06-08T00:00:00	2024-11-08T06:00:00	8	Radiación solar	1
69865	7	Sololá	717	San Juan la Laguna	12	San Juan la Laguna	8	Agosto	2023-06-08T00:00:00	2024-11-08T07:00:00	2	Temperatura media	17.5
69866	7	Sololá	717	San Juan la Laguna	12	San Juan la Laguna	8	Agosto	2023-06-08T00:00:00	2024-11-08T07:00:00	4	Temperatura máxima	17.5
69867	7	Sololá	717	San Juan la Laguna	12	San Juan la Laguna	8	Agosto	2023-06-08T00:00:00	2024-11-08T07:00:00	3	Temperatura mínima	15
69868	7	Sololá	717	San Juan la Laguna	12	San Juan la Laguna	8	Agosto	2023-06-08T00:00:00	2024-11-08T07:00:00	5	Humedad	81
69869	7	Sololá	717	San Juan la Laguna	12	San Juan la Laguna	8	Agosto	2023-06-08T00:00:00	2024-11-08T07:00:00	6	Velocidad del viento	1.6
69870	7	Sololá	717	San Juan la Laguna	12	San Juan la Laguna	8	Agosto	2023-06-08T00:00:00	2024-11-08T07:00:00	7	Dirección del viento	1.61
69871	7	Sololá	717	San Juan la Laguna	12	San Juan la Laguna	8	Agosto	2023-06-08T00:00:00	2024-11-08T07:00:00	1	Precipitación	0
69872	7	Sololá	717	San Juan la Laguna	12	San Juan la Laguna	8	Agosto	2023-06-08T00:00:00	2024-11-08T07:00:00	8	Radiación solar	79
69873	7	Sololá	717	San Juan la Laguna	12	San Juan la Laguna	8	Agosto	2023-06-08T00:00:00	2024-11-08T08:00:00	2	Temperatura media	22.1
69874	7	Sololá	717	San Juan la Laguna	12	San Juan la Laguna	8	Agosto	2023-06-08T00:00:00	2024-11-08T08:00:00	4	Temperatura máxima	22.1
69875	7	Sololá	717	San Juan la Laguna	12	San Juan la Laguna	8	Agosto	2023-06-08T00:00:00	2024-11-08T08:00:00	3	Temperatura mínima	17.5
69876	7	Sololá	717	San Juan la Laguna	12	San Juan la Laguna	8	Agosto	2023-06-08T00:00:00	2024-11-08T08:00:00	5	Humedad	66
69877	7	Sololá	717	San Juan la Laguna	12	San Juan la Laguna	8	Agosto	2023-06-08T00:00:00	2024-11-08T08:00:00	6	Velocidad del viento	0
69878	7	Sololá	717	San Juan la Laguna	12	San Juan la Laguna	8	Agosto	2023-06-08T00:00:00	2024-11-08T08:00:00	7	Dirección del viento	0
69879	7	Sololá	717	San Juan la Laguna	12	San Juan la Laguna	8	Agosto	2023-06-08T00:00:00	2024-11-08T08:00:00	1	Precipitación	0
69880	7	Sololá	717	San Juan la Laguna	12	San Juan la Laguna	8	Agosto	2023-06-08T00:00:00	2024-11-08T08:00:00	8	Radiación solar	300
69881	7	Sololá	717	San Juan la Laguna	12	San Juan la Laguna	8	Agosto	2023-06-08T00:00:00	2024-11-08T09:00:00	2	Temperatura media	22.8
69882	7	Sololá	717	San Juan la Laguna	12	San Juan la Laguna	8	Agosto	2023-06-08T00:00:00	2024-11-08T09:00:00	4	Temperatura máxima	22.8
69883	7	Sololá	717	San Juan la Laguna	12	San Juan la Laguna	8	Agosto	2023-06-08T00:00:00	2024-11-08T09:00:00	3	Temperatura mínima	22.1
69884	7	Sololá	717	San Juan la Laguna	12	San Juan la Laguna	8	Agosto	2023-06-08T00:00:00	2024-11-08T09:00:00	5	Humedad	59
69885	7	Sololá	717	San Juan la Laguna	12	San Juan la Laguna	8	Agosto	2023-06-08T00:00:00	2024-11-08T09:00:00	6	Velocidad del viento	1.6
69886	7	Sololá	717	San Juan la Laguna	12	San Juan la Laguna	8	Agosto	2023-06-08T00:00:00	2024-11-08T09:00:00	7	Dirección del viento	1.61
69887	7	Sololá	717	San Juan la Laguna	12	San Juan la Laguna	8	Agosto	2023-06-08T00:00:00	2024-11-08T09:00:00	1	Precipitación	0
69888	7	Sololá	717	San Juan la Laguna	12	San Juan la Laguna	8	Agosto	2023-06-08T00:00:00	2024-11-08T09:00:00	8	Radiación solar	518
69889	7	Sololá	717	San Juan la Laguna	12	San Juan la Laguna	8	Agosto	2023-06-08T00:00:00	2024-11-08T10:00:00	2	Temperatura media	23.8
69890	7	Sololá	717	San Juan la Laguna	12	San Juan la Laguna	8	Agosto	2023-06-08T00:00:00	2024-11-08T10:00:00	4	Temperatura máxima	23.9
69891	7	Sololá	717	San Juan la Laguna	12	San Juan la Laguna	8	Agosto	2023-06-08T00:00:00	2024-11-08T10:00:00	3	Temperatura mínima	22.8
69892	7	Sololá	717	San Juan la Laguna	12	San Juan la Laguna	8	Agosto	2023-06-08T00:00:00	2024-11-08T10:00:00	5	Humedad	58
69893	7	Sololá	717	San Juan la Laguna	12	San Juan la Laguna	8	Agosto	2023-06-08T00:00:00	2024-11-08T10:00:00	6	Velocidad del viento	1.6
69894	7	Sololá	717	San Juan la Laguna	12	San Juan la Laguna	8	Agosto	2023-06-08T00:00:00	2024-11-08T10:00:00	7	Dirección del viento	1.61
69895	7	Sololá	717	San Juan la Laguna	12	San Juan la Laguna	8	Agosto	2023-06-08T00:00:00	2024-11-08T10:00:00	1	Precipitación	0
69896	7	Sololá	717	San Juan la Laguna	12	San Juan la Laguna	8	Agosto	2023-06-08T00:00:00	2024-11-08T10:00:00	8	Radiación solar	701
69897	7	Sololá	717	San Juan la Laguna	12	San Juan la Laguna	8	Agosto	2023-06-08T00:00:00	2024-11-08T11:00:00	2	Temperatura media	26
69898	7	Sololá	717	San Juan la Laguna	12	San Juan la Laguna	8	Agosto	2023-06-08T00:00:00	2024-11-08T11:00:00	4	Temperatura máxima	26
69899	7	Sololá	717	San Juan la Laguna	12	San Juan la Laguna	8	Agosto	2023-06-08T00:00:00	2024-11-08T11:00:00	3	Temperatura mínima	23.8
69900	7	Sololá	717	San Juan la Laguna	12	San Juan la Laguna	8	Agosto	2023-06-08T00:00:00	2024-11-08T11:00:00	5	Humedad	50
69901	7	Sololá	717	San Juan la Laguna	12	San Juan la Laguna	8	Agosto	2023-06-08T00:00:00	2024-11-08T11:00:00	6	Velocidad del viento	1.6
69902	7	Sololá	717	San Juan la Laguna	12	San Juan la Laguna	8	Agosto	2023-06-08T00:00:00	2024-11-08T11:00:00	7	Dirección del viento	1.61
69903	7	Sololá	717	San Juan la Laguna	12	San Juan la Laguna	8	Agosto	2023-06-08T00:00:00	2024-11-08T11:00:00	1	Precipitación	0
69904	7	Sololá	717	San Juan la Laguna	12	San Juan la Laguna	8	Agosto	2023-06-08T00:00:00	2024-11-08T11:00:00	8	Radiación solar	852
69905	7	Sololá	717	San Juan la Laguna	12	San Juan la Laguna	8	Agosto	2023-06-08T00:00:00	2024-11-08T12:00:00	2	Temperatura media	27.6
69906	7	Sololá	717	San Juan la Laguna	12	San Juan la Laguna	8	Agosto	2023-06-08T00:00:00	2024-11-08T12:00:00	4	Temperatura máxima	28.1
69907	7	Sololá	717	San Juan la Laguna	12	San Juan la Laguna	8	Agosto	2023-06-08T00:00:00	2024-11-08T12:00:00	3	Temperatura mínima	26
69908	7	Sololá	717	San Juan la Laguna	12	San Juan la Laguna	8	Agosto	2023-06-08T00:00:00	2024-11-08T12:00:00	5	Humedad	43
69909	7	Sololá	717	San Juan la Laguna	12	San Juan la Laguna	8	Agosto	2023-06-08T00:00:00	2024-11-08T12:00:00	6	Velocidad del viento	4.8
69910	7	Sololá	717	San Juan la Laguna	12	San Juan la Laguna	8	Agosto	2023-06-08T00:00:00	2024-11-08T12:00:00	7	Dirección del viento	4.83
69911	7	Sololá	717	San Juan la Laguna	12	San Juan la Laguna	8	Agosto	2023-06-08T00:00:00	2024-11-08T12:00:00	1	Precipitación	0
69912	7	Sololá	717	San Juan la Laguna	12	San Juan la Laguna	8	Agosto	2023-06-08T00:00:00	2024-11-08T12:00:00	8	Radiación solar	937
69913	7	Sololá	717	San Juan la Laguna	12	San Juan la Laguna	8	Agosto	2023-06-08T00:00:00	2024-11-08T13:00:00	2	Temperatura media	27.9
69914	7	Sololá	717	San Juan la Laguna	12	San Juan la Laguna	8	Agosto	2023-06-08T00:00:00	2024-11-08T13:00:00	4	Temperatura máxima	28.6
69915	7	Sololá	717	San Juan la Laguna	12	San Juan la Laguna	8	Agosto	2023-06-08T00:00:00	2024-11-08T13:00:00	3	Temperatura mínima	27.5
69916	7	Sololá	717	San Juan la Laguna	12	San Juan la Laguna	8	Agosto	2023-06-08T00:00:00	2024-11-08T13:00:00	5	Humedad	48
69917	7	Sololá	717	San Juan la Laguna	12	San Juan la Laguna	8	Agosto	2023-06-08T00:00:00	2024-11-08T13:00:00	6	Velocidad del viento	6.4
69918	7	Sololá	717	San Juan la Laguna	12	San Juan la Laguna	8	Agosto	2023-06-08T00:00:00	2024-11-08T13:00:00	7	Dirección del viento	6.44
69919	7	Sololá	717	San Juan la Laguna	12	San Juan la Laguna	8	Agosto	2023-06-08T00:00:00	2024-11-08T13:00:00	1	Precipitación	0
69920	7	Sololá	717	San Juan la Laguna	12	San Juan la Laguna	8	Agosto	2023-06-08T00:00:00	2024-11-08T13:00:00	8	Radiación solar	954
69921	7	Sololá	717	San Juan la Laguna	12	San Juan la Laguna	8	Agosto	2023-06-08T00:00:00	2024-11-08T14:00:00	2	Temperatura media	26.9
69922	7	Sololá	717	San Juan la Laguna	12	San Juan la Laguna	8	Agosto	2023-06-08T00:00:00	2024-11-08T14:00:00	4	Temperatura máxima	28.7
69923	7	Sololá	717	San Juan la Laguna	12	San Juan la Laguna	8	Agosto	2023-06-08T00:00:00	2024-11-08T14:00:00	3	Temperatura mínima	26.7
69924	7	Sololá	717	San Juan la Laguna	12	San Juan la Laguna	8	Agosto	2023-06-08T00:00:00	2024-11-08T14:00:00	5	Humedad	54
69925	7	Sololá	717	San Juan la Laguna	12	San Juan la Laguna	8	Agosto	2023-06-08T00:00:00	2024-11-08T14:00:00	6	Velocidad del viento	4.8
69926	7	Sololá	717	San Juan la Laguna	12	San Juan la Laguna	8	Agosto	2023-06-08T00:00:00	2024-11-08T14:00:00	7	Dirección del viento	4.83
69927	7	Sololá	717	San Juan la Laguna	12	San Juan la Laguna	8	Agosto	2023-06-08T00:00:00	2024-11-08T14:00:00	1	Precipitación	0
69928	7	Sololá	717	San Juan la Laguna	12	San Juan la Laguna	8	Agosto	2023-06-08T00:00:00	2024-11-08T14:00:00	8	Radiación solar	912
69929	7	Sololá	717	San Juan la Laguna	12	San Juan la Laguna	8	Agosto	2023-06-08T00:00:00	2024-11-08T15:00:00	2	Temperatura media	26.4
69930	7	Sololá	717	San Juan la Laguna	12	San Juan la Laguna	8	Agosto	2023-06-08T00:00:00	2024-11-08T15:00:00	4	Temperatura máxima	27.1
69931	7	Sololá	717	San Juan la Laguna	12	San Juan la Laguna	8	Agosto	2023-06-08T00:00:00	2024-11-08T15:00:00	3	Temperatura mínima	26.4
69932	7	Sololá	717	San Juan la Laguna	12	San Juan la Laguna	8	Agosto	2023-06-08T00:00:00	2024-11-08T15:00:00	5	Humedad	60
69933	7	Sololá	717	San Juan la Laguna	12	San Juan la Laguna	8	Agosto	2023-06-08T00:00:00	2024-11-08T15:00:00	6	Velocidad del viento	4.8
69934	7	Sololá	717	San Juan la Laguna	12	San Juan la Laguna	8	Agosto	2023-06-08T00:00:00	2024-11-08T15:00:00	7	Dirección del viento	4.83
69935	7	Sololá	717	San Juan la Laguna	12	San Juan la Laguna	8	Agosto	2023-06-08T00:00:00	2024-11-08T15:00:00	1	Precipitación	0
69936	7	Sololá	717	San Juan la Laguna	12	San Juan la Laguna	8	Agosto	2023-06-08T00:00:00	2024-11-08T15:00:00	8	Radiación solar	845
69937	7	Sololá	717	San Juan la Laguna	12	San Juan la Laguna	8	Agosto	2023-06-08T00:00:00	2024-11-08T16:00:00	2	Temperatura media	25.4
69938	7	Sololá	717	San Juan la Laguna	12	San Juan la Laguna	8	Agosto	2023-06-08T00:00:00	2024-11-08T16:00:00	4	Temperatura máxima	26.5
69939	7	Sololá	717	San Juan la Laguna	12	San Juan la Laguna	8	Agosto	2023-06-08T00:00:00	2024-11-08T16:00:00	3	Temperatura mínima	25.4
69940	7	Sololá	717	San Juan la Laguna	12	San Juan la Laguna	8	Agosto	2023-06-08T00:00:00	2024-11-08T16:00:00	5	Humedad	64
69941	7	Sololá	717	San Juan la Laguna	12	San Juan la Laguna	8	Agosto	2023-06-08T00:00:00	2024-11-08T16:00:00	6	Velocidad del viento	3.2
69942	7	Sololá	717	San Juan la Laguna	12	San Juan la Laguna	8	Agosto	2023-06-08T00:00:00	2024-11-08T16:00:00	7	Dirección del viento	3.22
69943	7	Sololá	717	San Juan la Laguna	12	San Juan la Laguna	8	Agosto	2023-06-08T00:00:00	2024-11-08T16:00:00	1	Precipitación	0
69944	7	Sololá	717	San Juan la Laguna	12	San Juan la Laguna	8	Agosto	2023-06-08T00:00:00	2024-11-08T16:00:00	8	Radiación solar	559
69945	7	Sololá	717	San Juan la Laguna	12	San Juan la Laguna	8	Agosto	2023-06-08T00:00:00	2024-11-08T17:00:00	2	Temperatura media	22.7
69946	7	Sololá	717	San Juan la Laguna	12	San Juan la Laguna	8	Agosto	2023-06-08T00:00:00	2024-11-08T17:00:00	4	Temperatura máxima	25.4
69947	7	Sololá	717	San Juan la Laguna	12	San Juan la Laguna	8	Agosto	2023-06-08T00:00:00	2024-11-08T17:00:00	3	Temperatura mínima	22.7
69948	7	Sololá	717	San Juan la Laguna	12	San Juan la Laguna	8	Agosto	2023-06-08T00:00:00	2024-11-08T17:00:00	5	Humedad	77
69949	7	Sololá	717	San Juan la Laguna	12	San Juan la Laguna	8	Agosto	2023-06-08T00:00:00	2024-11-08T17:00:00	6	Velocidad del viento	1.6
69950	7	Sololá	717	San Juan la Laguna	12	San Juan la Laguna	8	Agosto	2023-06-08T00:00:00	2024-11-08T17:00:00	7	Dirección del viento	1.61
69951	7	Sololá	717	San Juan la Laguna	12	San Juan la Laguna	8	Agosto	2023-06-08T00:00:00	2024-11-08T17:00:00	1	Precipitación	0
69952	7	Sololá	717	San Juan la Laguna	12	San Juan la Laguna	8	Agosto	2023-06-08T00:00:00	2024-11-08T17:00:00	8	Radiación solar	80
69953	7	Sololá	717	San Juan la Laguna	12	San Juan la Laguna	8	Agosto	2023-06-08T00:00:00	2024-11-08T18:00:00	2	Temperatura media	22.4
69954	7	Sololá	717	San Juan la Laguna	12	San Juan la Laguna	8	Agosto	2023-06-08T00:00:00	2024-11-08T18:00:00	4	Temperatura máxima	22.8
69955	7	Sololá	717	San Juan la Laguna	12	San Juan la Laguna	8	Agosto	2023-06-08T00:00:00	2024-11-08T18:00:00	3	Temperatura mínima	22.4
69956	7	Sololá	717	San Juan la Laguna	12	San Juan la Laguna	8	Agosto	2023-06-08T00:00:00	2024-11-08T18:00:00	5	Humedad	79
69957	7	Sololá	717	San Juan la Laguna	12	San Juan la Laguna	8	Agosto	2023-06-08T00:00:00	2024-11-08T18:00:00	6	Velocidad del viento	0
69958	7	Sololá	717	San Juan la Laguna	12	San Juan la Laguna	8	Agosto	2023-06-08T00:00:00	2024-11-08T18:00:00	7	Dirección del viento	0
69959	7	Sololá	717	San Juan la Laguna	12	San Juan la Laguna	8	Agosto	2023-06-08T00:00:00	2024-11-08T18:00:00	1	Precipitación	0
69960	7	Sololá	717	San Juan la Laguna	12	San Juan la Laguna	8	Agosto	2023-06-08T00:00:00	2024-11-08T18:00:00	8	Radiación solar	34
69961	7	Sololá	717	San Juan la Laguna	12	San Juan la Laguna	8	Agosto	2023-06-08T00:00:00	2024-11-08T19:00:00	2	Temperatura media	21.2
69962	7	Sololá	717	San Juan la Laguna	12	San Juan la Laguna	8	Agosto	2023-06-08T00:00:00	2024-11-08T19:00:00	4	Temperatura máxima	22.4
69963	7	Sololá	717	San Juan la Laguna	12	San Juan la Laguna	8	Agosto	2023-06-08T00:00:00	2024-11-08T19:00:00	3	Temperatura mínima	21.2
69964	7	Sololá	717	San Juan la Laguna	12	San Juan la Laguna	8	Agosto	2023-06-08T00:00:00	2024-11-08T19:00:00	5	Humedad	84
69965	7	Sololá	717	San Juan la Laguna	12	San Juan la Laguna	8	Agosto	2023-06-08T00:00:00	2024-11-08T19:00:00	6	Velocidad del viento	0
69966	7	Sololá	717	San Juan la Laguna	12	San Juan la Laguna	8	Agosto	2023-06-08T00:00:00	2024-11-08T19:00:00	7	Dirección del viento	0
69967	7	Sololá	717	San Juan la Laguna	12	San Juan la Laguna	8	Agosto	2023-06-08T00:00:00	2024-11-08T19:00:00	1	Precipitación	0
69968	7	Sololá	717	San Juan la Laguna	12	San Juan la Laguna	8	Agosto	2023-06-08T00:00:00	2024-11-08T19:00:00	8	Radiación solar	0
69969	7	Sololá	717	San Juan la Laguna	12	San Juan la Laguna	8	Agosto	2023-06-08T00:00:00	2024-11-08T20:00:00	2	Temperatura media	20.7
69970	7	Sololá	717	San Juan la Laguna	12	San Juan la Laguna	8	Agosto	2023-06-08T00:00:00	2024-11-08T20:00:00	4	Temperatura máxima	21.4
69971	7	Sololá	717	San Juan la Laguna	12	San Juan la Laguna	8	Agosto	2023-06-08T00:00:00	2024-11-08T20:00:00	3	Temperatura mínima	20.6
69972	7	Sololá	717	San Juan la Laguna	12	San Juan la Laguna	8	Agosto	2023-06-08T00:00:00	2024-11-08T20:00:00	5	Humedad	84
69973	7	Sololá	717	San Juan la Laguna	12	San Juan la Laguna	8	Agosto	2023-06-08T00:00:00	2024-11-08T20:00:00	6	Velocidad del viento	0
69974	7	Sololá	717	San Juan la Laguna	12	San Juan la Laguna	8	Agosto	2023-06-08T00:00:00	2024-11-08T20:00:00	7	Dirección del viento	0
69975	7	Sololá	717	San Juan la Laguna	12	San Juan la Laguna	8	Agosto	2023-06-08T00:00:00	2024-11-08T20:00:00	1	Precipitación	0
69976	7	Sololá	717	San Juan la Laguna	12	San Juan la Laguna	8	Agosto	2023-06-08T00:00:00	2024-11-08T20:00:00	8	Radiación solar	0
69977	7	Sololá	717	San Juan la Laguna	12	San Juan la Laguna	8	Agosto	2023-06-08T00:00:00	2024-11-08T21:00:00	2	Temperatura media	21.3
69978	7	Sololá	717	San Juan la Laguna	12	San Juan la Laguna	8	Agosto	2023-06-08T00:00:00	2024-11-08T21:00:00	4	Temperatura máxima	21.3
69979	7	Sololá	717	San Juan la Laguna	12	San Juan la Laguna	8	Agosto	2023-06-08T00:00:00	2024-11-08T21:00:00	3	Temperatura mínima	20.3
69980	7	Sololá	717	San Juan la Laguna	12	San Juan la Laguna	8	Agosto	2023-06-08T00:00:00	2024-11-08T21:00:00	5	Humedad	74
69981	7	Sololá	717	San Juan la Laguna	12	San Juan la Laguna	8	Agosto	2023-06-08T00:00:00	2024-11-08T21:00:00	6	Velocidad del viento	0
69982	7	Sololá	717	San Juan la Laguna	12	San Juan la Laguna	8	Agosto	2023-06-08T00:00:00	2024-11-08T21:00:00	7	Dirección del viento	0
69983	7	Sololá	717	San Juan la Laguna	12	San Juan la Laguna	8	Agosto	2023-06-08T00:00:00	2024-11-08T21:00:00	1	Precipitación	0
69984	7	Sololá	717	San Juan la Laguna	12	San Juan la Laguna	8	Agosto	2023-06-08T00:00:00	2024-11-08T21:00:00	8	Radiación solar	0
69985	7	Sololá	717	San Juan la Laguna	12	San Juan la Laguna	8	Agosto	2023-06-08T00:00:00	2024-11-08T22:00:00	2	Temperatura media	22.4
69986	7	Sololá	717	San Juan la Laguna	12	San Juan la Laguna	8	Agosto	2023-06-08T00:00:00	2024-11-08T22:00:00	4	Temperatura máxima	22.4
69987	7	Sololá	717	San Juan la Laguna	12	San Juan la Laguna	8	Agosto	2023-06-08T00:00:00	2024-11-08T22:00:00	3	Temperatura mínima	21.4
69988	7	Sololá	717	San Juan la Laguna	12	San Juan la Laguna	8	Agosto	2023-06-08T00:00:00	2024-11-08T22:00:00	5	Humedad	65
69989	7	Sololá	717	San Juan la Laguna	12	San Juan la Laguna	8	Agosto	2023-06-08T00:00:00	2024-11-08T22:00:00	6	Velocidad del viento	6.4
69990	7	Sololá	717	San Juan la Laguna	12	San Juan la Laguna	8	Agosto	2023-06-08T00:00:00	2024-11-08T22:00:00	7	Dirección del viento	6.44
69991	7	Sololá	717	San Juan la Laguna	12	San Juan la Laguna	8	Agosto	2023-06-08T00:00:00	2024-11-08T22:00:00	1	Precipitación	0
69992	7	Sololá	717	San Juan la Laguna	12	San Juan la Laguna	8	Agosto	2023-06-08T00:00:00	2024-11-08T22:00:00	8	Radiación solar	0
69993	7	Sololá	717	San Juan la Laguna	12	San Juan la Laguna	8	Agosto	2023-06-08T00:00:00	2024-11-08T23:00:00	2	Temperatura media	22.1
69994	7	Sololá	717	San Juan la Laguna	12	San Juan la Laguna	8	Agosto	2023-06-08T00:00:00	2024-11-08T23:00:00	4	Temperatura máxima	22.4
69995	7	Sololá	717	San Juan la Laguna	12	San Juan la Laguna	8	Agosto	2023-06-08T00:00:00	2024-11-08T23:00:00	3	Temperatura mínima	21.9
69996	7	Sololá	717	San Juan la Laguna	12	San Juan la Laguna	8	Agosto	2023-06-08T00:00:00	2024-11-08T23:00:00	5	Humedad	62
69997	7	Sololá	717	San Juan la Laguna	12	San Juan la Laguna	8	Agosto	2023-06-08T00:00:00	2024-11-08T23:00:00	6	Velocidad del viento	9.7
69998	7	Sololá	717	San Juan la Laguna	12	San Juan la Laguna	8	Agosto	2023-06-08T00:00:00	2024-11-08T23:00:00	7	Dirección del viento	9.66
69999	7	Sololá	717	San Juan la Laguna	12	San Juan la Laguna	8	Agosto	2023-06-08T00:00:00	2024-11-08T23:00:00	1	Precipitación	0
70000	7	Sololá	717	San Juan la Laguna	12	San Juan la Laguna	8	Agosto	2023-06-08T00:00:00	2024-11-08T23:00:00	8	Radiación solar	0
70001	7	Sololá	717	San Juan la Laguna	12	San Juan la Laguna	8	Agosto	2023-07-08T00:00:00	2024-11-08T00:00:00	2	Temperatura media	21.3
70002	7	Sololá	717	San Juan la Laguna	12	San Juan la Laguna	8	Agosto	2023-07-08T00:00:00	2024-11-08T00:00:00	4	Temperatura máxima	22.1
70003	7	Sololá	717	San Juan la Laguna	12	San Juan la Laguna	8	Agosto	2023-07-08T00:00:00	2024-11-08T00:00:00	3	Temperatura mínima	21.2
70004	7	Sololá	717	San Juan la Laguna	12	San Juan la Laguna	8	Agosto	2023-07-08T00:00:00	2024-11-08T00:00:00	5	Humedad	65
70005	7	Sololá	717	San Juan la Laguna	12	San Juan la Laguna	8	Agosto	2023-07-08T00:00:00	2024-11-08T00:00:00	6	Velocidad del viento	8
70006	7	Sololá	717	San Juan la Laguna	12	San Juan la Laguna	8	Agosto	2023-07-08T00:00:00	2024-11-08T00:00:00	7	Dirección del viento	8.05
70007	7	Sololá	717	San Juan la Laguna	12	San Juan la Laguna	8	Agosto	2023-07-08T00:00:00	2024-11-08T00:00:00	1	Precipitación	0
70008	7	Sololá	717	San Juan la Laguna	12	San Juan la Laguna	8	Agosto	2023-07-08T00:00:00	2024-11-08T00:00:00	8	Radiación solar	0
70009	7	Sololá	717	San Juan la Laguna	12	San Juan la Laguna	8	Agosto	2023-07-08T00:00:00	2024-11-08T01:00:00	2	Temperatura media	18.6
70010	7	Sololá	717	San Juan la Laguna	12	San Juan la Laguna	8	Agosto	2023-07-08T00:00:00	2024-11-08T01:00:00	4	Temperatura máxima	21.3
70011	7	Sololá	717	San Juan la Laguna	12	San Juan la Laguna	8	Agosto	2023-07-08T00:00:00	2024-11-08T01:00:00	3	Temperatura mínima	18.5
70012	7	Sololá	717	San Juan la Laguna	12	San Juan la Laguna	8	Agosto	2023-07-08T00:00:00	2024-11-08T01:00:00	5	Humedad	75
70013	7	Sololá	717	San Juan la Laguna	12	San Juan la Laguna	8	Agosto	2023-07-08T00:00:00	2024-11-08T01:00:00	6	Velocidad del viento	0
70014	7	Sololá	717	San Juan la Laguna	12	San Juan la Laguna	8	Agosto	2023-07-08T00:00:00	2024-11-08T01:00:00	7	Dirección del viento	0
70015	7	Sololá	717	San Juan la Laguna	12	San Juan la Laguna	8	Agosto	2023-07-08T00:00:00	2024-11-08T01:00:00	1	Precipitación	0
70016	7	Sololá	717	San Juan la Laguna	12	San Juan la Laguna	8	Agosto	2023-07-08T00:00:00	2024-11-08T01:00:00	8	Radiación solar	0
70017	7	Sololá	717	San Juan la Laguna	12	San Juan la Laguna	8	Agosto	2023-07-08T00:00:00	2024-11-08T02:00:00	2	Temperatura media	17.1
70018	7	Sololá	717	San Juan la Laguna	12	San Juan la Laguna	8	Agosto	2023-07-08T00:00:00	2024-11-08T02:00:00	4	Temperatura máxima	18.6
70019	7	Sololá	717	San Juan la Laguna	12	San Juan la Laguna	8	Agosto	2023-07-08T00:00:00	2024-11-08T02:00:00	3	Temperatura mínima	17
70020	7	Sololá	717	San Juan la Laguna	12	San Juan la Laguna	8	Agosto	2023-07-08T00:00:00	2024-11-08T02:00:00	5	Humedad	80
70021	7	Sololá	717	San Juan la Laguna	12	San Juan la Laguna	8	Agosto	2023-07-08T00:00:00	2024-11-08T02:00:00	6	Velocidad del viento	0
70022	7	Sololá	717	San Juan la Laguna	12	San Juan la Laguna	8	Agosto	2023-07-08T00:00:00	2024-11-08T02:00:00	7	Dirección del viento	0
70023	7	Sololá	717	San Juan la Laguna	12	San Juan la Laguna	8	Agosto	2023-07-08T00:00:00	2024-11-08T02:00:00	1	Precipitación	0
70024	7	Sololá	717	San Juan la Laguna	12	San Juan la Laguna	8	Agosto	2023-07-08T00:00:00	2024-11-08T02:00:00	8	Radiación solar	0
70025	7	Sololá	717	San Juan la Laguna	12	San Juan la Laguna	8	Agosto	2023-07-08T00:00:00	2024-11-08T03:00:00	2	Temperatura media	16.4
70026	7	Sololá	717	San Juan la Laguna	12	San Juan la Laguna	8	Agosto	2023-07-08T00:00:00	2024-11-08T03:00:00	4	Temperatura máxima	17.1
70027	7	Sololá	717	San Juan la Laguna	12	San Juan la Laguna	8	Agosto	2023-07-08T00:00:00	2024-11-08T03:00:00	3	Temperatura mínima	16.4
70028	7	Sololá	717	San Juan la Laguna	12	San Juan la Laguna	8	Agosto	2023-07-08T00:00:00	2024-11-08T03:00:00	5	Humedad	82
70029	7	Sololá	717	San Juan la Laguna	12	San Juan la Laguna	8	Agosto	2023-07-08T00:00:00	2024-11-08T03:00:00	6	Velocidad del viento	1.6
70030	7	Sololá	717	San Juan la Laguna	12	San Juan la Laguna	8	Agosto	2023-07-08T00:00:00	2024-11-08T03:00:00	7	Dirección del viento	1.61
70031	7	Sololá	717	San Juan la Laguna	12	San Juan la Laguna	8	Agosto	2023-07-08T00:00:00	2024-11-08T03:00:00	1	Precipitación	0
70032	7	Sololá	717	San Juan la Laguna	12	San Juan la Laguna	8	Agosto	2023-07-08T00:00:00	2024-11-08T03:00:00	8	Radiación solar	0
70033	7	Sololá	717	San Juan la Laguna	12	San Juan la Laguna	8	Agosto	2023-07-08T00:00:00	2024-11-08T04:00:00	2	Temperatura media	17.1
70034	7	Sololá	717	San Juan la Laguna	12	San Juan la Laguna	8	Agosto	2023-07-08T00:00:00	2024-11-08T04:00:00	4	Temperatura máxima	17.6
70035	7	Sololá	717	San Juan la Laguna	12	San Juan la Laguna	8	Agosto	2023-07-08T00:00:00	2024-11-08T04:00:00	3	Temperatura mínima	16.4
70036	7	Sololá	717	San Juan la Laguna	12	San Juan la Laguna	8	Agosto	2023-07-08T00:00:00	2024-11-08T04:00:00	5	Humedad	81
70037	7	Sololá	717	San Juan la Laguna	12	San Juan la Laguna	8	Agosto	2023-07-08T00:00:00	2024-11-08T04:00:00	6	Velocidad del viento	1.6
70038	7	Sololá	717	San Juan la Laguna	12	San Juan la Laguna	8	Agosto	2023-07-08T00:00:00	2024-11-08T04:00:00	7	Dirección del viento	1.61
70039	7	Sololá	717	San Juan la Laguna	12	San Juan la Laguna	8	Agosto	2023-07-08T00:00:00	2024-11-08T04:00:00	1	Precipitación	0
70040	7	Sololá	717	San Juan la Laguna	12	San Juan la Laguna	8	Agosto	2023-07-08T00:00:00	2024-11-08T04:00:00	8	Radiación solar	0
70041	7	Sololá	717	San Juan la Laguna	12	San Juan la Laguna	8	Agosto	2023-07-08T00:00:00	2024-11-08T05:00:00	2	Temperatura media	17
70042	7	Sololá	717	San Juan la Laguna	12	San Juan la Laguna	8	Agosto	2023-07-08T00:00:00	2024-11-08T05:00:00	4	Temperatura máxima	17.8
70043	7	Sololá	717	San Juan la Laguna	12	San Juan la Laguna	8	Agosto	2023-07-08T00:00:00	2024-11-08T05:00:00	3	Temperatura mínima	16.9
70044	7	Sololá	717	San Juan la Laguna	12	San Juan la Laguna	8	Agosto	2023-07-08T00:00:00	2024-11-08T05:00:00	5	Humedad	81
70045	7	Sololá	717	San Juan la Laguna	12	San Juan la Laguna	8	Agosto	2023-07-08T00:00:00	2024-11-08T05:00:00	6	Velocidad del viento	1.6
70046	7	Sololá	717	San Juan la Laguna	12	San Juan la Laguna	8	Agosto	2023-07-08T00:00:00	2024-11-08T05:00:00	7	Dirección del viento	1.61
70047	7	Sololá	717	San Juan la Laguna	12	San Juan la Laguna	8	Agosto	2023-07-08T00:00:00	2024-11-08T05:00:00	1	Precipitación	0
70048	7	Sololá	717	San Juan la Laguna	12	San Juan la Laguna	8	Agosto	2023-07-08T00:00:00	2024-11-08T05:00:00	8	Radiación solar	0
70049	7	Sololá	717	San Juan la Laguna	12	San Juan la Laguna	8	Agosto	2023-07-08T00:00:00	2024-11-08T06:00:00	2	Temperatura media	16.2
70050	7	Sololá	717	San Juan la Laguna	12	San Juan la Laguna	8	Agosto	2023-07-08T00:00:00	2024-11-08T06:00:00	4	Temperatura máxima	17
70051	7	Sololá	717	San Juan la Laguna	12	San Juan la Laguna	8	Agosto	2023-07-08T00:00:00	2024-11-08T06:00:00	3	Temperatura mínima	16.2
70052	7	Sololá	717	San Juan la Laguna	12	San Juan la Laguna	8	Agosto	2023-07-08T00:00:00	2024-11-08T06:00:00	5	Humedad	84
70053	7	Sololá	717	San Juan la Laguna	12	San Juan la Laguna	8	Agosto	2023-07-08T00:00:00	2024-11-08T06:00:00	6	Velocidad del viento	1.6
70054	7	Sololá	717	San Juan la Laguna	12	San Juan la Laguna	8	Agosto	2023-07-08T00:00:00	2024-11-08T06:00:00	7	Dirección del viento	1.61
70055	7	Sololá	717	San Juan la Laguna	12	San Juan la Laguna	8	Agosto	2023-07-08T00:00:00	2024-11-08T06:00:00	1	Precipitación	0
70056	7	Sololá	717	San Juan la Laguna	12	San Juan la Laguna	8	Agosto	2023-07-08T00:00:00	2024-11-08T06:00:00	8	Radiación solar	1
70057	7	Sololá	717	San Juan la Laguna	12	San Juan la Laguna	8	Agosto	2023-07-08T00:00:00	2024-11-08T07:00:00	2	Temperatura media	19.2
70058	7	Sololá	717	San Juan la Laguna	12	San Juan la Laguna	8	Agosto	2023-07-08T00:00:00	2024-11-08T07:00:00	4	Temperatura máxima	19.2
70059	7	Sololá	717	San Juan la Laguna	12	San Juan la Laguna	8	Agosto	2023-07-08T00:00:00	2024-11-08T07:00:00	3	Temperatura mínima	16.2
70060	7	Sololá	717	San Juan la Laguna	12	San Juan la Laguna	8	Agosto	2023-07-08T00:00:00	2024-11-08T07:00:00	5	Humedad	76
70061	7	Sololá	717	San Juan la Laguna	12	San Juan la Laguna	8	Agosto	2023-07-08T00:00:00	2024-11-08T07:00:00	6	Velocidad del viento	0
70062	7	Sololá	717	San Juan la Laguna	12	San Juan la Laguna	8	Agosto	2023-07-08T00:00:00	2024-11-08T07:00:00	7	Dirección del viento	0
70063	7	Sololá	717	San Juan la Laguna	12	San Juan la Laguna	8	Agosto	2023-07-08T00:00:00	2024-11-08T07:00:00	1	Precipitación	0
70064	7	Sololá	717	San Juan la Laguna	12	San Juan la Laguna	8	Agosto	2023-07-08T00:00:00	2024-11-08T07:00:00	8	Radiación solar	65
70065	7	Sololá	717	San Juan la Laguna	12	San Juan la Laguna	8	Agosto	2023-07-08T00:00:00	2024-11-08T08:00:00	2	Temperatura media	22.4
70066	7	Sololá	717	San Juan la Laguna	12	San Juan la Laguna	8	Agosto	2023-07-08T00:00:00	2024-11-08T08:00:00	4	Temperatura máxima	22.4
70067	7	Sololá	717	San Juan la Laguna	12	San Juan la Laguna	8	Agosto	2023-07-08T00:00:00	2024-11-08T08:00:00	3	Temperatura mínima	19.2
70068	7	Sololá	717	San Juan la Laguna	12	San Juan la Laguna	8	Agosto	2023-07-08T00:00:00	2024-11-08T08:00:00	5	Humedad	61
70069	7	Sololá	717	San Juan la Laguna	12	San Juan la Laguna	8	Agosto	2023-07-08T00:00:00	2024-11-08T08:00:00	6	Velocidad del viento	4.8
70070	7	Sololá	717	San Juan la Laguna	12	San Juan la Laguna	8	Agosto	2023-07-08T00:00:00	2024-11-08T08:00:00	7	Dirección del viento	4.83
70071	7	Sololá	717	San Juan la Laguna	12	San Juan la Laguna	8	Agosto	2023-07-08T00:00:00	2024-11-08T08:00:00	1	Precipitación	0
70072	7	Sololá	717	San Juan la Laguna	12	San Juan la Laguna	8	Agosto	2023-07-08T00:00:00	2024-11-08T08:00:00	8	Radiación solar	299
70073	7	Sololá	717	San Juan la Laguna	12	San Juan la Laguna	8	Agosto	2023-07-08T00:00:00	2024-11-08T09:00:00	2	Temperatura media	23.8
70074	7	Sololá	717	San Juan la Laguna	12	San Juan la Laguna	8	Agosto	2023-07-08T00:00:00	2024-11-08T09:00:00	4	Temperatura máxima	23.8
70075	7	Sololá	717	San Juan la Laguna	12	San Juan la Laguna	8	Agosto	2023-07-08T00:00:00	2024-11-08T09:00:00	3	Temperatura mínima	22.4
70076	7	Sololá	717	San Juan la Laguna	12	San Juan la Laguna	8	Agosto	2023-07-08T00:00:00	2024-11-08T09:00:00	5	Humedad	55
70077	7	Sololá	717	San Juan la Laguna	12	San Juan la Laguna	8	Agosto	2023-07-08T00:00:00	2024-11-08T09:00:00	6	Velocidad del viento	9.7
70078	7	Sololá	717	San Juan la Laguna	12	San Juan la Laguna	8	Agosto	2023-07-08T00:00:00	2024-11-08T09:00:00	7	Dirección del viento	9.66
70079	7	Sololá	717	San Juan la Laguna	12	San Juan la Laguna	8	Agosto	2023-07-08T00:00:00	2024-11-08T09:00:00	1	Precipitación	0
70080	7	Sololá	717	San Juan la Laguna	12	San Juan la Laguna	8	Agosto	2023-07-08T00:00:00	2024-11-08T09:00:00	8	Radiación solar	503
70081	7	Sololá	717	San Juan la Laguna	12	San Juan la Laguna	8	Agosto	2023-07-08T00:00:00	2024-11-08T10:00:00	2	Temperatura media	25.1
70082	7	Sololá	717	San Juan la Laguna	12	San Juan la Laguna	8	Agosto	2023-07-08T00:00:00	2024-11-08T10:00:00	4	Temperatura máxima	25.1
70083	7	Sololá	717	San Juan la Laguna	12	San Juan la Laguna	8	Agosto	2023-07-08T00:00:00	2024-11-08T10:00:00	3	Temperatura mínima	23.8
70084	7	Sololá	717	San Juan la Laguna	12	San Juan la Laguna	8	Agosto	2023-07-08T00:00:00	2024-11-08T10:00:00	5	Humedad	52
70085	7	Sololá	717	San Juan la Laguna	12	San Juan la Laguna	8	Agosto	2023-07-08T00:00:00	2024-11-08T10:00:00	6	Velocidad del viento	4.8
70086	7	Sololá	717	San Juan la Laguna	12	San Juan la Laguna	8	Agosto	2023-07-08T00:00:00	2024-11-08T10:00:00	7	Dirección del viento	4.83
70087	7	Sololá	717	San Juan la Laguna	12	San Juan la Laguna	8	Agosto	2023-07-08T00:00:00	2024-11-08T10:00:00	1	Precipitación	0
70088	7	Sololá	717	San Juan la Laguna	12	San Juan la Laguna	8	Agosto	2023-07-08T00:00:00	2024-11-08T10:00:00	8	Radiación solar	694
70089	7	Sololá	717	San Juan la Laguna	12	San Juan la Laguna	8	Agosto	2023-07-08T00:00:00	2024-11-08T11:00:00	2	Temperatura media	26.4
70090	7	Sololá	717	San Juan la Laguna	12	San Juan la Laguna	8	Agosto	2023-07-08T00:00:00	2024-11-08T11:00:00	4	Temperatura máxima	26.4
70091	7	Sololá	717	San Juan la Laguna	12	San Juan la Laguna	8	Agosto	2023-07-08T00:00:00	2024-11-08T11:00:00	3	Temperatura mínima	24.9
70092	7	Sololá	717	San Juan la Laguna	12	San Juan la Laguna	8	Agosto	2023-07-08T00:00:00	2024-11-08T11:00:00	5	Humedad	49
70093	7	Sololá	717	San Juan la Laguna	12	San Juan la Laguna	8	Agosto	2023-07-08T00:00:00	2024-11-08T11:00:00	6	Velocidad del viento	8
70094	7	Sololá	717	San Juan la Laguna	12	San Juan la Laguna	8	Agosto	2023-07-08T00:00:00	2024-11-08T11:00:00	7	Dirección del viento	8.05
70095	7	Sololá	717	San Juan la Laguna	12	San Juan la Laguna	8	Agosto	2023-07-08T00:00:00	2024-11-08T11:00:00	1	Precipitación	0
70096	7	Sololá	717	San Juan la Laguna	12	San Juan la Laguna	8	Agosto	2023-07-08T00:00:00	2024-11-08T11:00:00	8	Radiación solar	855
70097	7	Sololá	717	San Juan la Laguna	12	San Juan la Laguna	8	Agosto	2023-07-08T00:00:00	2024-11-08T12:00:00	2	Temperatura media	25.5
70098	7	Sololá	717	San Juan la Laguna	12	San Juan la Laguna	8	Agosto	2023-07-08T00:00:00	2024-11-08T12:00:00	4	Temperatura máxima	26.8
70099	7	Sololá	717	San Juan la Laguna	12	San Juan la Laguna	8	Agosto	2023-07-08T00:00:00	2024-11-08T12:00:00	3	Temperatura mínima	25.4
70100	7	Sololá	717	San Juan la Laguna	12	San Juan la Laguna	8	Agosto	2023-07-08T00:00:00	2024-11-08T12:00:00	5	Humedad	54
70101	7	Sololá	717	San Juan la Laguna	12	San Juan la Laguna	8	Agosto	2023-07-08T00:00:00	2024-11-08T12:00:00	6	Velocidad del viento	6.4
70102	7	Sololá	717	San Juan la Laguna	12	San Juan la Laguna	8	Agosto	2023-07-08T00:00:00	2024-11-08T12:00:00	7	Dirección del viento	6.44
70103	7	Sololá	717	San Juan la Laguna	12	San Juan la Laguna	8	Agosto	2023-07-08T00:00:00	2024-11-08T12:00:00	1	Precipitación	0
70104	7	Sololá	717	San Juan la Laguna	12	San Juan la Laguna	8	Agosto	2023-07-08T00:00:00	2024-11-08T12:00:00	8	Radiación solar	838
70105	7	Sololá	717	San Juan la Laguna	12	San Juan la Laguna	8	Agosto	2023-07-08T00:00:00	2024-11-08T13:00:00	2	Temperatura media	27
70106	7	Sololá	717	San Juan la Laguna	12	San Juan la Laguna	8	Agosto	2023-07-08T00:00:00	2024-11-08T13:00:00	4	Temperatura máxima	27.4
70107	7	Sololá	717	San Juan la Laguna	12	San Juan la Laguna	8	Agosto	2023-07-08T00:00:00	2024-11-08T13:00:00	3	Temperatura mínima	25.5
70108	7	Sololá	717	San Juan la Laguna	12	San Juan la Laguna	8	Agosto	2023-07-08T00:00:00	2024-11-08T13:00:00	5	Humedad	47
70109	7	Sololá	717	San Juan la Laguna	12	San Juan la Laguna	8	Agosto	2023-07-08T00:00:00	2024-11-08T13:00:00	6	Velocidad del viento	4.8
70110	7	Sololá	717	San Juan la Laguna	12	San Juan la Laguna	8	Agosto	2023-07-08T00:00:00	2024-11-08T13:00:00	7	Dirección del viento	4.83
70111	7	Sololá	717	San Juan la Laguna	12	San Juan la Laguna	8	Agosto	2023-07-08T00:00:00	2024-11-08T13:00:00	1	Precipitación	0
70112	7	Sololá	717	San Juan la Laguna	12	San Juan la Laguna	8	Agosto	2023-07-08T00:00:00	2024-11-08T13:00:00	8	Radiación solar	958
70113	7	Sololá	717	San Juan la Laguna	12	San Juan la Laguna	8	Agosto	2023-07-08T00:00:00	2024-11-08T14:00:00	2	Temperatura media	26.8
70114	7	Sololá	717	San Juan la Laguna	12	San Juan la Laguna	8	Agosto	2023-07-08T00:00:00	2024-11-08T14:00:00	4	Temperatura máxima	28.2
70115	7	Sololá	717	San Juan la Laguna	12	San Juan la Laguna	8	Agosto	2023-07-08T00:00:00	2024-11-08T14:00:00	3	Temperatura mínima	26.7
70116	7	Sololá	717	San Juan la Laguna	12	San Juan la Laguna	8	Agosto	2023-07-08T00:00:00	2024-11-08T14:00:00	5	Humedad	52
70117	7	Sololá	717	San Juan la Laguna	12	San Juan la Laguna	8	Agosto	2023-07-08T00:00:00	2024-11-08T14:00:00	6	Velocidad del viento	3.2
70118	7	Sololá	717	San Juan la Laguna	12	San Juan la Laguna	8	Agosto	2023-07-08T00:00:00	2024-11-08T14:00:00	7	Dirección del viento	3.22
70119	7	Sololá	717	San Juan la Laguna	12	San Juan la Laguna	8	Agosto	2023-07-08T00:00:00	2024-11-08T14:00:00	1	Precipitación	0
70120	7	Sololá	717	San Juan la Laguna	12	San Juan la Laguna	8	Agosto	2023-07-08T00:00:00	2024-11-08T14:00:00	8	Radiación solar	829
70121	7	Sololá	717	San Juan la Laguna	12	San Juan la Laguna	8	Agosto	2023-07-08T00:00:00	2024-11-08T15:00:00	2	Temperatura media	27.3
70122	7	Sololá	717	San Juan la Laguna	12	San Juan la Laguna	8	Agosto	2023-07-08T00:00:00	2024-11-08T15:00:00	4	Temperatura máxima	27.7
70123	7	Sololá	717	San Juan la Laguna	12	San Juan la Laguna	8	Agosto	2023-07-08T00:00:00	2024-11-08T15:00:00	3	Temperatura mínima	26.3
70124	7	Sololá	717	San Juan la Laguna	12	San Juan la Laguna	8	Agosto	2023-07-08T00:00:00	2024-11-08T15:00:00	5	Humedad	50
70125	7	Sololá	717	San Juan la Laguna	12	San Juan la Laguna	8	Agosto	2023-07-08T00:00:00	2024-11-08T15:00:00	6	Velocidad del viento	6.4
70126	7	Sololá	717	San Juan la Laguna	12	San Juan la Laguna	8	Agosto	2023-07-08T00:00:00	2024-11-08T15:00:00	7	Dirección del viento	6.44
70127	7	Sololá	717	San Juan la Laguna	12	San Juan la Laguna	8	Agosto	2023-07-08T00:00:00	2024-11-08T15:00:00	1	Precipitación	0
70128	7	Sololá	717	San Juan la Laguna	12	San Juan la Laguna	8	Agosto	2023-07-08T00:00:00	2024-11-08T15:00:00	8	Radiación solar	799
70129	7	Sololá	717	San Juan la Laguna	12	San Juan la Laguna	8	Agosto	2023-07-08T00:00:00	2024-11-08T16:00:00	2	Temperatura media	26.8
70130	7	Sololá	717	San Juan la Laguna	12	San Juan la Laguna	8	Agosto	2023-07-08T00:00:00	2024-11-08T16:00:00	4	Temperatura máxima	27.5
70131	7	Sololá	717	San Juan la Laguna	12	San Juan la Laguna	8	Agosto	2023-07-08T00:00:00	2024-11-08T16:00:00	3	Temperatura mínima	26.1
70132	7	Sololá	717	San Juan la Laguna	12	San Juan la Laguna	8	Agosto	2023-07-08T00:00:00	2024-11-08T16:00:00	5	Humedad	50
70133	7	Sololá	717	San Juan la Laguna	12	San Juan la Laguna	8	Agosto	2023-07-08T00:00:00	2024-11-08T16:00:00	6	Velocidad del viento	3.2
70134	7	Sololá	717	San Juan la Laguna	12	San Juan la Laguna	8	Agosto	2023-07-08T00:00:00	2024-11-08T16:00:00	7	Dirección del viento	3.22
70135	7	Sololá	717	San Juan la Laguna	12	San Juan la Laguna	8	Agosto	2023-07-08T00:00:00	2024-11-08T16:00:00	1	Precipitación	0
70136	7	Sololá	717	San Juan la Laguna	12	San Juan la Laguna	8	Agosto	2023-07-08T00:00:00	2024-11-08T16:00:00	8	Radiación solar	442
70137	7	Sololá	717	San Juan la Laguna	12	San Juan la Laguna	8	Agosto	2023-07-08T00:00:00	2024-11-08T17:00:00	2	Temperatura media	24.2
70138	7	Sololá	717	San Juan la Laguna	12	San Juan la Laguna	8	Agosto	2023-07-08T00:00:00	2024-11-08T17:00:00	4	Temperatura máxima	27
70139	7	Sololá	717	San Juan la Laguna	12	San Juan la Laguna	8	Agosto	2023-07-08T00:00:00	2024-11-08T17:00:00	3	Temperatura mínima	23.7
70140	7	Sololá	717	San Juan la Laguna	12	San Juan la Laguna	8	Agosto	2023-07-08T00:00:00	2024-11-08T17:00:00	5	Humedad	69
70141	7	Sololá	717	San Juan la Laguna	12	San Juan la Laguna	8	Agosto	2023-07-08T00:00:00	2024-11-08T17:00:00	6	Velocidad del viento	3.2
70142	7	Sololá	717	San Juan la Laguna	12	San Juan la Laguna	8	Agosto	2023-07-08T00:00:00	2024-11-08T17:00:00	7	Dirección del viento	3.22
70143	7	Sololá	717	San Juan la Laguna	12	San Juan la Laguna	8	Agosto	2023-07-08T00:00:00	2024-11-08T17:00:00	1	Precipitación	0
70144	7	Sololá	717	San Juan la Laguna	12	San Juan la Laguna	8	Agosto	2023-07-08T00:00:00	2024-11-08T17:00:00	8	Radiación solar	251
70145	7	Sololá	717	San Juan la Laguna	12	San Juan la Laguna	8	Agosto	2023-07-08T00:00:00	2024-11-08T18:00:00	2	Temperatura media	22.2
70146	7	Sololá	717	San Juan la Laguna	12	San Juan la Laguna	8	Agosto	2023-07-08T00:00:00	2024-11-08T18:00:00	4	Temperatura máxima	24.8
70147	7	Sololá	717	San Juan la Laguna	12	San Juan la Laguna	8	Agosto	2023-07-08T00:00:00	2024-11-08T18:00:00	3	Temperatura mínima	22.2
70148	7	Sololá	717	San Juan la Laguna	12	San Juan la Laguna	8	Agosto	2023-07-08T00:00:00	2024-11-08T18:00:00	5	Humedad	77
70149	7	Sololá	717	San Juan la Laguna	12	San Juan la Laguna	8	Agosto	2023-07-08T00:00:00	2024-11-08T18:00:00	6	Velocidad del viento	3.2
70150	7	Sololá	717	San Juan la Laguna	12	San Juan la Laguna	8	Agosto	2023-07-08T00:00:00	2024-11-08T18:00:00	7	Dirección del viento	3.22
70151	7	Sololá	717	San Juan la Laguna	12	San Juan la Laguna	8	Agosto	2023-07-08T00:00:00	2024-11-08T18:00:00	1	Precipitación	0
70152	7	Sololá	717	San Juan la Laguna	12	San Juan la Laguna	8	Agosto	2023-07-08T00:00:00	2024-11-08T18:00:00	8	Radiación solar	138
70153	7	Sololá	717	San Juan la Laguna	12	San Juan la Laguna	8	Agosto	2023-07-08T00:00:00	2024-11-08T19:00:00	2	Temperatura media	21.7
70154	7	Sololá	717	San Juan la Laguna	12	San Juan la Laguna	8	Agosto	2023-07-08T00:00:00	2024-11-08T19:00:00	4	Temperatura máxima	22.2
70155	7	Sololá	717	San Juan la Laguna	12	San Juan la Laguna	8	Agosto	2023-07-08T00:00:00	2024-11-08T19:00:00	3	Temperatura mínima	21.6
70156	7	Sololá	717	San Juan la Laguna	12	San Juan la Laguna	8	Agosto	2023-07-08T00:00:00	2024-11-08T19:00:00	5	Humedad	78
70157	7	Sololá	717	San Juan la Laguna	12	San Juan la Laguna	8	Agosto	2023-07-08T00:00:00	2024-11-08T19:00:00	6	Velocidad del viento	3.2
70158	7	Sololá	717	San Juan la Laguna	12	San Juan la Laguna	8	Agosto	2023-07-08T00:00:00	2024-11-08T19:00:00	7	Dirección del viento	3.22
70159	7	Sololá	717	San Juan la Laguna	12	San Juan la Laguna	8	Agosto	2023-07-08T00:00:00	2024-11-08T19:00:00	1	Precipitación	0
70160	7	Sololá	717	San Juan la Laguna	12	San Juan la Laguna	8	Agosto	2023-07-08T00:00:00	2024-11-08T19:00:00	8	Radiación solar	0
70161	7	Sololá	717	San Juan la Laguna	12	San Juan la Laguna	8	Agosto	2023-07-08T00:00:00	2024-11-08T20:00:00	2	Temperatura media	20
70162	7	Sololá	717	San Juan la Laguna	12	San Juan la Laguna	8	Agosto	2023-07-08T00:00:00	2024-11-08T20:00:00	4	Temperatura máxima	21.7
70163	7	Sololá	717	San Juan la Laguna	12	San Juan la Laguna	8	Agosto	2023-07-08T00:00:00	2024-11-08T20:00:00	3	Temperatura mínima	20
70164	7	Sololá	717	San Juan la Laguna	12	San Juan la Laguna	8	Agosto	2023-07-08T00:00:00	2024-11-08T20:00:00	5	Humedad	84
70165	7	Sololá	717	San Juan la Laguna	12	San Juan la Laguna	8	Agosto	2023-07-08T00:00:00	2024-11-08T20:00:00	6	Velocidad del viento	0
70166	7	Sololá	717	San Juan la Laguna	12	San Juan la Laguna	8	Agosto	2023-07-08T00:00:00	2024-11-08T20:00:00	7	Dirección del viento	0
70167	7	Sololá	717	San Juan la Laguna	12	San Juan la Laguna	8	Agosto	2023-07-08T00:00:00	2024-11-08T20:00:00	1	Precipitación	0
70168	7	Sololá	717	San Juan la Laguna	12	San Juan la Laguna	8	Agosto	2023-07-08T00:00:00	2024-11-08T20:00:00	8	Radiación solar	0
70169	7	Sololá	717	San Juan la Laguna	12	San Juan la Laguna	8	Agosto	2023-07-08T00:00:00	2024-11-08T21:00:00	2	Temperatura media	20.8
70170	7	Sololá	717	San Juan la Laguna	12	San Juan la Laguna	8	Agosto	2023-07-08T00:00:00	2024-11-08T21:00:00	4	Temperatura máxima	21.4
70171	7	Sololá	717	San Juan la Laguna	12	San Juan la Laguna	8	Agosto	2023-07-08T00:00:00	2024-11-08T21:00:00	3	Temperatura mínima	19.7
70172	7	Sololá	717	San Juan la Laguna	12	San Juan la Laguna	8	Agosto	2023-07-08T00:00:00	2024-11-08T21:00:00	5	Humedad	77
70173	7	Sololá	717	San Juan la Laguna	12	San Juan la Laguna	8	Agosto	2023-07-08T00:00:00	2024-11-08T21:00:00	6	Velocidad del viento	0
70174	7	Sololá	717	San Juan la Laguna	12	San Juan la Laguna	8	Agosto	2023-07-08T00:00:00	2024-11-08T21:00:00	7	Dirección del viento	0
70175	7	Sololá	717	San Juan la Laguna	12	San Juan la Laguna	8	Agosto	2023-07-08T00:00:00	2024-11-08T21:00:00	1	Precipitación	0
70176	7	Sololá	717	San Juan la Laguna	12	San Juan la Laguna	8	Agosto	2023-07-08T00:00:00	2024-11-08T21:00:00	8	Radiación solar	0
70177	7	Sololá	717	San Juan la Laguna	12	San Juan la Laguna	8	Agosto	2023-07-08T00:00:00	2024-11-08T22:00:00	2	Temperatura media	22.2
70178	7	Sololá	717	San Juan la Laguna	12	San Juan la Laguna	8	Agosto	2023-07-08T00:00:00	2024-11-08T22:00:00	4	Temperatura máxima	22.4
70179	7	Sololá	717	San Juan la Laguna	12	San Juan la Laguna	8	Agosto	2023-07-08T00:00:00	2024-11-08T22:00:00	3	Temperatura mínima	20.1
70180	7	Sololá	717	San Juan la Laguna	12	San Juan la Laguna	8	Agosto	2023-07-08T00:00:00	2024-11-08T22:00:00	5	Humedad	70
70181	7	Sololá	717	San Juan la Laguna	12	San Juan la Laguna	8	Agosto	2023-07-08T00:00:00	2024-11-08T22:00:00	6	Velocidad del viento	4.8
70182	7	Sololá	717	San Juan la Laguna	12	San Juan la Laguna	8	Agosto	2023-07-08T00:00:00	2024-11-08T22:00:00	7	Dirección del viento	4.83
70183	7	Sololá	717	San Juan la Laguna	12	San Juan la Laguna	8	Agosto	2023-07-08T00:00:00	2024-11-08T22:00:00	1	Precipitación	0
70184	7	Sololá	717	San Juan la Laguna	12	San Juan la Laguna	8	Agosto	2023-07-08T00:00:00	2024-11-08T22:00:00	8	Radiación solar	0
70185	7	Sololá	717	San Juan la Laguna	12	San Juan la Laguna	8	Agosto	2023-07-08T00:00:00	2024-11-08T23:00:00	2	Temperatura media	22.2
70186	7	Sololá	717	San Juan la Laguna	12	San Juan la Laguna	8	Agosto	2023-07-08T00:00:00	2024-11-08T23:00:00	4	Temperatura máxima	22.2
70187	7	Sololá	717	San Juan la Laguna	12	San Juan la Laguna	8	Agosto	2023-07-08T00:00:00	2024-11-08T23:00:00	3	Temperatura mínima	22
70188	7	Sololá	717	San Juan la Laguna	12	San Juan la Laguna	8	Agosto	2023-07-08T00:00:00	2024-11-08T23:00:00	5	Humedad	69
70189	7	Sololá	717	San Juan la Laguna	12	San Juan la Laguna	8	Agosto	2023-07-08T00:00:00	2024-11-08T23:00:00	6	Velocidad del viento	8
70190	7	Sololá	717	San Juan la Laguna	12	San Juan la Laguna	8	Agosto	2023-07-08T00:00:00	2024-11-08T23:00:00	7	Dirección del viento	8.05
70191	7	Sololá	717	San Juan la Laguna	12	San Juan la Laguna	8	Agosto	2023-07-08T00:00:00	2024-11-08T23:00:00	1	Precipitación	0
70192	7	Sololá	717	San Juan la Laguna	12	San Juan la Laguna	8	Agosto	2023-07-08T00:00:00	2024-11-08T23:00:00	8	Radiación solar	0
70193	7	Sololá	717	San Juan la Laguna	12	San Juan la Laguna	8	Agosto	2023-08-08T00:00:00	2024-11-08T00:00:00	2	Temperatura media	21.3
70194	7	Sololá	717	San Juan la Laguna	12	San Juan la Laguna	8	Agosto	2023-08-08T00:00:00	2024-11-08T00:00:00	4	Temperatura máxima	22.6
70195	7	Sololá	717	San Juan la Laguna	12	San Juan la Laguna	8	Agosto	2023-08-08T00:00:00	2024-11-08T00:00:00	3	Temperatura mínima	21.3
70196	7	Sololá	717	San Juan la Laguna	12	San Juan la Laguna	8	Agosto	2023-08-08T00:00:00	2024-11-08T00:00:00	5	Humedad	71
70197	7	Sololá	717	San Juan la Laguna	12	San Juan la Laguna	8	Agosto	2023-08-08T00:00:00	2024-11-08T00:00:00	6	Velocidad del viento	4.8
70198	7	Sololá	717	San Juan la Laguna	12	San Juan la Laguna	8	Agosto	2023-08-08T00:00:00	2024-11-08T00:00:00	7	Dirección del viento	4.83
70199	7	Sololá	717	San Juan la Laguna	12	San Juan la Laguna	8	Agosto	2023-08-08T00:00:00	2024-11-08T00:00:00	1	Precipitación	0
70200	7	Sololá	717	San Juan la Laguna	12	San Juan la Laguna	8	Agosto	2023-08-08T00:00:00	2024-11-08T00:00:00	8	Radiación solar	0
70201	7	Sololá	717	San Juan la Laguna	12	San Juan la Laguna	8	Agosto	2023-08-08T00:00:00	2024-11-08T01:00:00	2	Temperatura media	19.7
70202	7	Sololá	717	San Juan la Laguna	12	San Juan la Laguna	8	Agosto	2023-08-08T00:00:00	2024-11-08T01:00:00	4	Temperatura máxima	21.6
70203	7	Sololá	717	San Juan la Laguna	12	San Juan la Laguna	8	Agosto	2023-08-08T00:00:00	2024-11-08T01:00:00	3	Temperatura mínima	19.3
70204	7	Sololá	717	San Juan la Laguna	12	San Juan la Laguna	8	Agosto	2023-08-08T00:00:00	2024-11-08T01:00:00	5	Humedad	76
70205	7	Sololá	717	San Juan la Laguna	12	San Juan la Laguna	8	Agosto	2023-08-08T00:00:00	2024-11-08T01:00:00	6	Velocidad del viento	0
70206	7	Sololá	717	San Juan la Laguna	12	San Juan la Laguna	8	Agosto	2023-08-08T00:00:00	2024-11-08T01:00:00	7	Dirección del viento	0
70207	7	Sololá	717	San Juan la Laguna	12	San Juan la Laguna	8	Agosto	2023-08-08T00:00:00	2024-11-08T01:00:00	1	Precipitación	0
70208	7	Sololá	717	San Juan la Laguna	12	San Juan la Laguna	8	Agosto	2023-08-08T00:00:00	2024-11-08T01:00:00	8	Radiación solar	0
70209	7	Sololá	717	San Juan la Laguna	12	San Juan la Laguna	8	Agosto	2023-08-08T00:00:00	2024-11-08T02:00:00	2	Temperatura media	19.5
70210	7	Sololá	717	San Juan la Laguna	12	San Juan la Laguna	8	Agosto	2023-08-08T00:00:00	2024-11-08T02:00:00	4	Temperatura máxima	20
70211	7	Sololá	717	San Juan la Laguna	12	San Juan la Laguna	8	Agosto	2023-08-08T00:00:00	2024-11-08T02:00:00	3	Temperatura mínima	19.4
70212	7	Sololá	717	San Juan la Laguna	12	San Juan la Laguna	8	Agosto	2023-08-08T00:00:00	2024-11-08T02:00:00	5	Humedad	75
70213	7	Sololá	717	San Juan la Laguna	12	San Juan la Laguna	8	Agosto	2023-08-08T00:00:00	2024-11-08T02:00:00	6	Velocidad del viento	0
70214	7	Sololá	717	San Juan la Laguna	12	San Juan la Laguna	8	Agosto	2023-08-08T00:00:00	2024-11-08T02:00:00	7	Dirección del viento	0
70215	7	Sololá	717	San Juan la Laguna	12	San Juan la Laguna	8	Agosto	2023-08-08T00:00:00	2024-11-08T02:00:00	1	Precipitación	0
70216	7	Sololá	717	San Juan la Laguna	12	San Juan la Laguna	8	Agosto	2023-08-08T00:00:00	2024-11-08T02:00:00	8	Radiación solar	0
70217	7	Sololá	717	San Juan la Laguna	12	San Juan la Laguna	8	Agosto	2023-08-08T00:00:00	2024-11-08T03:00:00	2	Temperatura media	21.1
70218	7	Sololá	717	San Juan la Laguna	12	San Juan la Laguna	8	Agosto	2023-08-08T00:00:00	2024-11-08T03:00:00	4	Temperatura máxima	21.7
70219	7	Sololá	717	San Juan la Laguna	12	San Juan la Laguna	8	Agosto	2023-08-08T00:00:00	2024-11-08T03:00:00	3	Temperatura mínima	19.5
70220	7	Sololá	717	San Juan la Laguna	12	San Juan la Laguna	8	Agosto	2023-08-08T00:00:00	2024-11-08T03:00:00	5	Humedad	69
70221	7	Sololá	717	San Juan la Laguna	12	San Juan la Laguna	8	Agosto	2023-08-08T00:00:00	2024-11-08T03:00:00	6	Velocidad del viento	4.8
70222	7	Sololá	717	San Juan la Laguna	12	San Juan la Laguna	8	Agosto	2023-08-08T00:00:00	2024-11-08T03:00:00	7	Dirección del viento	4.83
70223	7	Sololá	717	San Juan la Laguna	12	San Juan la Laguna	8	Agosto	2023-08-08T00:00:00	2024-11-08T03:00:00	1	Precipitación	0
70224	7	Sololá	717	San Juan la Laguna	12	San Juan la Laguna	8	Agosto	2023-08-08T00:00:00	2024-11-08T03:00:00	8	Radiación solar	0
70225	7	Sololá	717	San Juan la Laguna	12	San Juan la Laguna	8	Agosto	2023-08-08T00:00:00	2024-11-08T04:00:00	2	Temperatura media	21.4
70226	7	Sololá	717	San Juan la Laguna	12	San Juan la Laguna	8	Agosto	2023-08-08T00:00:00	2024-11-08T04:00:00	4	Temperatura máxima	21.6
70227	7	Sololá	717	San Juan la Laguna	12	San Juan la Laguna	8	Agosto	2023-08-08T00:00:00	2024-11-08T04:00:00	3	Temperatura mínima	20.9
70228	7	Sololá	717	San Juan la Laguna	12	San Juan la Laguna	8	Agosto	2023-08-08T00:00:00	2024-11-08T04:00:00	5	Humedad	67
70229	7	Sololá	717	San Juan la Laguna	12	San Juan la Laguna	8	Agosto	2023-08-08T00:00:00	2024-11-08T04:00:00	6	Velocidad del viento	3.2
70230	7	Sololá	717	San Juan la Laguna	12	San Juan la Laguna	8	Agosto	2023-08-08T00:00:00	2024-11-08T04:00:00	7	Dirección del viento	3.22
70231	7	Sololá	717	San Juan la Laguna	12	San Juan la Laguna	8	Agosto	2023-08-08T00:00:00	2024-11-08T04:00:00	1	Precipitación	0
70232	7	Sololá	717	San Juan la Laguna	12	San Juan la Laguna	8	Agosto	2023-08-08T00:00:00	2024-11-08T04:00:00	8	Radiación solar	0
70233	7	Sololá	717	San Juan la Laguna	12	San Juan la Laguna	8	Agosto	2023-08-08T00:00:00	2024-11-08T05:00:00	2	Temperatura media	19.3
70234	7	Sololá	717	San Juan la Laguna	12	San Juan la Laguna	8	Agosto	2023-08-08T00:00:00	2024-11-08T05:00:00	4	Temperatura máxima	21.4
70235	7	Sololá	717	San Juan la Laguna	12	San Juan la Laguna	8	Agosto	2023-08-08T00:00:00	2024-11-08T05:00:00	3	Temperatura mínima	19.2
70236	7	Sololá	717	San Juan la Laguna	12	San Juan la Laguna	8	Agosto	2023-08-08T00:00:00	2024-11-08T05:00:00	5	Humedad	76
70237	7	Sololá	717	San Juan la Laguna	12	San Juan la Laguna	8	Agosto	2023-08-08T00:00:00	2024-11-08T05:00:00	6	Velocidad del viento	0
70238	7	Sololá	717	San Juan la Laguna	12	San Juan la Laguna	8	Agosto	2023-08-08T00:00:00	2024-11-08T05:00:00	7	Dirección del viento	0
70239	7	Sololá	717	San Juan la Laguna	12	San Juan la Laguna	8	Agosto	2023-08-08T00:00:00	2024-11-08T05:00:00	1	Precipitación	0
70240	7	Sololá	717	San Juan la Laguna	12	San Juan la Laguna	8	Agosto	2023-08-08T00:00:00	2024-11-08T05:00:00	8	Radiación solar	0
70241	7	Sololá	717	San Juan la Laguna	12	San Juan la Laguna	8	Agosto	2023-08-08T00:00:00	2024-11-08T06:00:00	2	Temperatura media	17.7
70242	7	Sololá	717	San Juan la Laguna	12	San Juan la Laguna	8	Agosto	2023-08-08T00:00:00	2024-11-08T06:00:00	4	Temperatura máxima	19.4
70243	7	Sololá	717	San Juan la Laguna	12	San Juan la Laguna	8	Agosto	2023-08-08T00:00:00	2024-11-08T06:00:00	3	Temperatura mínima	17.7
70244	7	Sololá	717	San Juan la Laguna	12	San Juan la Laguna	8	Agosto	2023-08-08T00:00:00	2024-11-08T06:00:00	5	Humedad	81
70245	7	Sololá	717	San Juan la Laguna	12	San Juan la Laguna	8	Agosto	2023-08-08T00:00:00	2024-11-08T06:00:00	6	Velocidad del viento	0
70246	7	Sololá	717	San Juan la Laguna	12	San Juan la Laguna	8	Agosto	2023-08-08T00:00:00	2024-11-08T06:00:00	7	Dirección del viento	0
70247	7	Sololá	717	San Juan la Laguna	12	San Juan la Laguna	8	Agosto	2023-08-08T00:00:00	2024-11-08T06:00:00	1	Precipitación	0
70248	7	Sololá	717	San Juan la Laguna	12	San Juan la Laguna	8	Agosto	2023-08-08T00:00:00	2024-11-08T06:00:00	8	Radiación solar	1
70249	7	Sololá	717	San Juan la Laguna	12	San Juan la Laguna	8	Agosto	2023-08-08T00:00:00	2024-11-08T07:00:00	2	Temperatura media	19.8
70250	7	Sololá	717	San Juan la Laguna	12	San Juan la Laguna	8	Agosto	2023-08-08T00:00:00	2024-11-08T07:00:00	4	Temperatura máxima	19.8
70251	7	Sololá	717	San Juan la Laguna	12	San Juan la Laguna	8	Agosto	2023-08-08T00:00:00	2024-11-08T07:00:00	3	Temperatura mínima	17.7
70252	7	Sololá	717	San Juan la Laguna	12	San Juan la Laguna	8	Agosto	2023-08-08T00:00:00	2024-11-08T07:00:00	5	Humedad	78
70253	7	Sololá	717	San Juan la Laguna	12	San Juan la Laguna	8	Agosto	2023-08-08T00:00:00	2024-11-08T07:00:00	6	Velocidad del viento	0
70254	7	Sololá	717	San Juan la Laguna	12	San Juan la Laguna	8	Agosto	2023-08-08T00:00:00	2024-11-08T07:00:00	7	Dirección del viento	0
70255	7	Sololá	717	San Juan la Laguna	12	San Juan la Laguna	8	Agosto	2023-08-08T00:00:00	2024-11-08T07:00:00	1	Precipitación	0
70256	7	Sololá	717	San Juan la Laguna	12	San Juan la Laguna	8	Agosto	2023-08-08T00:00:00	2024-11-08T07:00:00	8	Radiación solar	86
70257	7	Sololá	717	San Juan la Laguna	12	San Juan la Laguna	8	Agosto	2023-08-08T00:00:00	2024-11-08T08:00:00	2	Temperatura media	22.8
70258	7	Sololá	717	San Juan la Laguna	12	San Juan la Laguna	8	Agosto	2023-08-08T00:00:00	2024-11-08T08:00:00	4	Temperatura máxima	22.8
70259	7	Sololá	717	San Juan la Laguna	12	San Juan la Laguna	8	Agosto	2023-08-08T00:00:00	2024-11-08T08:00:00	3	Temperatura mínima	19.8
70260	7	Sololá	717	San Juan la Laguna	12	San Juan la Laguna	8	Agosto	2023-08-08T00:00:00	2024-11-08T08:00:00	5	Humedad	64
70261	7	Sololá	717	San Juan la Laguna	12	San Juan la Laguna	8	Agosto	2023-08-08T00:00:00	2024-11-08T08:00:00	6	Velocidad del viento	0
70262	7	Sololá	717	San Juan la Laguna	12	San Juan la Laguna	8	Agosto	2023-08-08T00:00:00	2024-11-08T08:00:00	7	Dirección del viento	0
70263	7	Sololá	717	San Juan la Laguna	12	San Juan la Laguna	8	Agosto	2023-08-08T00:00:00	2024-11-08T08:00:00	1	Precipitación	0
70264	7	Sololá	717	San Juan la Laguna	12	San Juan la Laguna	8	Agosto	2023-08-08T00:00:00	2024-11-08T08:00:00	8	Radiación solar	257
70265	7	Sololá	717	San Juan la Laguna	12	San Juan la Laguna	8	Agosto	2023-08-08T00:00:00	2024-11-08T09:00:00	2	Temperatura media	24.8
70266	7	Sololá	717	San Juan la Laguna	12	San Juan la Laguna	8	Agosto	2023-08-08T00:00:00	2024-11-08T09:00:00	4	Temperatura máxima	25
70267	7	Sololá	717	San Juan la Laguna	12	San Juan la Laguna	8	Agosto	2023-08-08T00:00:00	2024-11-08T09:00:00	3	Temperatura mínima	22.8
70268	7	Sololá	717	San Juan la Laguna	12	San Juan la Laguna	8	Agosto	2023-08-08T00:00:00	2024-11-08T09:00:00	5	Humedad	56
70269	7	Sololá	717	San Juan la Laguna	12	San Juan la Laguna	8	Agosto	2023-08-08T00:00:00	2024-11-08T09:00:00	6	Velocidad del viento	1.6
70270	7	Sololá	717	San Juan la Laguna	12	San Juan la Laguna	8	Agosto	2023-08-08T00:00:00	2024-11-08T09:00:00	7	Dirección del viento	1.61
70271	7	Sololá	717	San Juan la Laguna	12	San Juan la Laguna	8	Agosto	2023-08-08T00:00:00	2024-11-08T09:00:00	1	Precipitación	0
70272	7	Sololá	717	San Juan la Laguna	12	San Juan la Laguna	8	Agosto	2023-08-08T00:00:00	2024-11-08T09:00:00	8	Radiación solar	515
70273	7	Sololá	717	San Juan la Laguna	12	San Juan la Laguna	8	Agosto	2023-08-08T00:00:00	2024-11-08T10:00:00	2	Temperatura media	26.1
70274	7	Sololá	717	San Juan la Laguna	12	San Juan la Laguna	8	Agosto	2023-08-08T00:00:00	2024-11-08T10:00:00	4	Temperatura máxima	26.2
70275	7	Sololá	717	San Juan la Laguna	12	San Juan la Laguna	8	Agosto	2023-08-08T00:00:00	2024-11-08T10:00:00	3	Temperatura mínima	24.8
70276	7	Sololá	717	San Juan la Laguna	12	San Juan la Laguna	8	Agosto	2023-08-08T00:00:00	2024-11-08T10:00:00	5	Humedad	53
70277	7	Sololá	717	San Juan la Laguna	12	San Juan la Laguna	8	Agosto	2023-08-08T00:00:00	2024-11-08T10:00:00	6	Velocidad del viento	6.4
70278	7	Sololá	717	San Juan la Laguna	12	San Juan la Laguna	8	Agosto	2023-08-08T00:00:00	2024-11-08T10:00:00	7	Dirección del viento	6.44
70279	7	Sololá	717	San Juan la Laguna	12	San Juan la Laguna	8	Agosto	2023-08-08T00:00:00	2024-11-08T10:00:00	1	Precipitación	0
70280	7	Sololá	717	San Juan la Laguna	12	San Juan la Laguna	8	Agosto	2023-08-08T00:00:00	2024-11-08T10:00:00	8	Radiación solar	787
70281	7	Sololá	717	San Juan la Laguna	12	San Juan la Laguna	8	Agosto	2023-08-08T00:00:00	2024-11-08T11:00:00	2	Temperatura media	26.2
70282	7	Sololá	717	San Juan la Laguna	12	San Juan la Laguna	8	Agosto	2023-08-08T00:00:00	2024-11-08T11:00:00	4	Temperatura máxima	26.2
70283	7	Sololá	717	San Juan la Laguna	12	San Juan la Laguna	8	Agosto	2023-08-08T00:00:00	2024-11-08T11:00:00	3	Temperatura mínima	25.1
70284	7	Sololá	717	San Juan la Laguna	12	San Juan la Laguna	8	Agosto	2023-08-08T00:00:00	2024-11-08T11:00:00	5	Humedad	52
70285	7	Sololá	717	San Juan la Laguna	12	San Juan la Laguna	8	Agosto	2023-08-08T00:00:00	2024-11-08T11:00:00	6	Velocidad del viento	6.4
70286	7	Sololá	717	San Juan la Laguna	12	San Juan la Laguna	8	Agosto	2023-08-08T00:00:00	2024-11-08T11:00:00	7	Dirección del viento	6.44
70287	7	Sololá	717	San Juan la Laguna	12	San Juan la Laguna	8	Agosto	2023-08-08T00:00:00	2024-11-08T11:00:00	1	Precipitación	0
70288	7	Sololá	717	San Juan la Laguna	12	San Juan la Laguna	8	Agosto	2023-08-08T00:00:00	2024-11-08T11:00:00	8	Radiación solar	536
70289	7	Sololá	717	San Juan la Laguna	12	San Juan la Laguna	8	Agosto	2023-08-08T00:00:00	2024-11-08T12:00:00	2	Temperatura media	27.3
70290	7	Sololá	717	San Juan la Laguna	12	San Juan la Laguna	8	Agosto	2023-08-08T00:00:00	2024-11-08T12:00:00	4	Temperatura máxima	27.7
70291	7	Sololá	717	San Juan la Laguna	12	San Juan la Laguna	8	Agosto	2023-08-08T00:00:00	2024-11-08T12:00:00	3	Temperatura mínima	26.1
70292	7	Sololá	717	San Juan la Laguna	12	San Juan la Laguna	8	Agosto	2023-08-08T00:00:00	2024-11-08T12:00:00	5	Humedad	49
70293	7	Sololá	717	San Juan la Laguna	12	San Juan la Laguna	8	Agosto	2023-08-08T00:00:00	2024-11-08T12:00:00	6	Velocidad del viento	4.8
70294	7	Sololá	717	San Juan la Laguna	12	San Juan la Laguna	8	Agosto	2023-08-08T00:00:00	2024-11-08T12:00:00	7	Dirección del viento	4.83
70295	7	Sololá	717	San Juan la Laguna	12	San Juan la Laguna	8	Agosto	2023-08-08T00:00:00	2024-11-08T12:00:00	1	Precipitación	0
70296	7	Sololá	717	San Juan la Laguna	12	San Juan la Laguna	8	Agosto	2023-08-08T00:00:00	2024-11-08T12:00:00	8	Radiación solar	916
70297	7	Sololá	717	San Juan la Laguna	12	San Juan la Laguna	8	Agosto	2023-08-08T00:00:00	2024-11-08T13:00:00	2	Temperatura media	28.1
70298	7	Sololá	717	San Juan la Laguna	12	San Juan la Laguna	8	Agosto	2023-08-08T00:00:00	2024-11-08T13:00:00	4	Temperatura máxima	28.2
70299	7	Sololá	717	San Juan la Laguna	12	San Juan la Laguna	8	Agosto	2023-08-08T00:00:00	2024-11-08T13:00:00	3	Temperatura mínima	27.4
70300	7	Sololá	717	San Juan la Laguna	12	San Juan la Laguna	8	Agosto	2023-08-08T00:00:00	2024-11-08T13:00:00	5	Humedad	51
70301	7	Sololá	717	San Juan la Laguna	12	San Juan la Laguna	8	Agosto	2023-08-08T00:00:00	2024-11-08T13:00:00	6	Velocidad del viento	3.2
70302	7	Sololá	717	San Juan la Laguna	12	San Juan la Laguna	8	Agosto	2023-08-08T00:00:00	2024-11-08T13:00:00	7	Dirección del viento	3.22
70303	7	Sololá	717	San Juan la Laguna	12	San Juan la Laguna	8	Agosto	2023-08-08T00:00:00	2024-11-08T13:00:00	1	Precipitación	0
70304	7	Sololá	717	San Juan la Laguna	12	San Juan la Laguna	8	Agosto	2023-08-08T00:00:00	2024-11-08T13:00:00	8	Radiación solar	1071
70305	7	Sololá	717	San Juan la Laguna	12	San Juan la Laguna	8	Agosto	2023-08-08T00:00:00	2024-11-08T14:00:00	2	Temperatura media	25.6
70306	7	Sololá	717	San Juan la Laguna	12	San Juan la Laguna	8	Agosto	2023-08-08T00:00:00	2024-11-08T14:00:00	4	Temperatura máxima	28.1
70307	7	Sololá	717	San Juan la Laguna	12	San Juan la Laguna	8	Agosto	2023-08-08T00:00:00	2024-11-08T14:00:00	3	Temperatura mínima	24.9
70308	7	Sololá	717	San Juan la Laguna	12	San Juan la Laguna	8	Agosto	2023-08-08T00:00:00	2024-11-08T14:00:00	5	Humedad	66
70309	7	Sololá	717	San Juan la Laguna	12	San Juan la Laguna	8	Agosto	2023-08-08T00:00:00	2024-11-08T14:00:00	6	Velocidad del viento	1.6
70310	7	Sololá	717	San Juan la Laguna	12	San Juan la Laguna	8	Agosto	2023-08-08T00:00:00	2024-11-08T14:00:00	7	Dirección del viento	1.61
70311	7	Sololá	717	San Juan la Laguna	12	San Juan la Laguna	8	Agosto	2023-08-08T00:00:00	2024-11-08T14:00:00	1	Precipitación	0
70312	7	Sololá	717	San Juan la Laguna	12	San Juan la Laguna	8	Agosto	2023-08-08T00:00:00	2024-11-08T14:00:00	8	Radiación solar	546
70313	7	Sololá	717	San Juan la Laguna	12	San Juan la Laguna	8	Agosto	2023-08-08T00:00:00	2024-11-08T15:00:00	2	Temperatura media	25.7
70314	7	Sololá	717	San Juan la Laguna	12	San Juan la Laguna	8	Agosto	2023-08-08T00:00:00	2024-11-08T15:00:00	4	Temperatura máxima	26.1
70315	7	Sololá	717	San Juan la Laguna	12	San Juan la Laguna	8	Agosto	2023-08-08T00:00:00	2024-11-08T15:00:00	3	Temperatura mínima	25
70316	7	Sololá	717	San Juan la Laguna	12	San Juan la Laguna	8	Agosto	2023-08-08T00:00:00	2024-11-08T15:00:00	5	Humedad	66
70317	7	Sololá	717	San Juan la Laguna	12	San Juan la Laguna	8	Agosto	2023-08-08T00:00:00	2024-11-08T15:00:00	6	Velocidad del viento	4.8
70318	7	Sololá	717	San Juan la Laguna	12	San Juan la Laguna	8	Agosto	2023-08-08T00:00:00	2024-11-08T15:00:00	7	Dirección del viento	4.83
70319	7	Sololá	717	San Juan la Laguna	12	San Juan la Laguna	8	Agosto	2023-08-08T00:00:00	2024-11-08T15:00:00	1	Precipitación	0
70320	7	Sololá	717	San Juan la Laguna	12	San Juan la Laguna	8	Agosto	2023-08-08T00:00:00	2024-11-08T15:00:00	8	Radiación solar	797
70321	7	Sololá	717	San Juan la Laguna	12	San Juan la Laguna	8	Agosto	2023-08-08T00:00:00	2024-11-08T16:00:00	2	Temperatura media	25.1
70322	7	Sololá	717	San Juan la Laguna	12	San Juan la Laguna	8	Agosto	2023-08-08T00:00:00	2024-11-08T16:00:00	4	Temperatura máxima	26.2
70323	7	Sololá	717	San Juan la Laguna	12	San Juan la Laguna	8	Agosto	2023-08-08T00:00:00	2024-11-08T16:00:00	3	Temperatura mínima	25.1
70324	7	Sololá	717	San Juan la Laguna	12	San Juan la Laguna	8	Agosto	2023-08-08T00:00:00	2024-11-08T16:00:00	5	Humedad	69
70325	7	Sololá	717	San Juan la Laguna	12	San Juan la Laguna	8	Agosto	2023-08-08T00:00:00	2024-11-08T16:00:00	6	Velocidad del viento	1.6
70326	7	Sololá	717	San Juan la Laguna	12	San Juan la Laguna	8	Agosto	2023-08-08T00:00:00	2024-11-08T16:00:00	7	Dirección del viento	1.61
70327	7	Sololá	717	San Juan la Laguna	12	San Juan la Laguna	8	Agosto	2023-08-08T00:00:00	2024-11-08T16:00:00	1	Precipitación	0
70328	7	Sololá	717	San Juan la Laguna	12	San Juan la Laguna	8	Agosto	2023-08-08T00:00:00	2024-11-08T16:00:00	8	Radiación solar	623
70329	7	Sololá	717	San Juan la Laguna	12	San Juan la Laguna	8	Agosto	2023-08-08T00:00:00	2024-11-08T17:00:00	2	Temperatura media	23.6
70330	7	Sololá	717	San Juan la Laguna	12	San Juan la Laguna	8	Agosto	2023-08-08T00:00:00	2024-11-08T17:00:00	4	Temperatura máxima	25.1
70331	7	Sololá	717	San Juan la Laguna	12	San Juan la Laguna	8	Agosto	2023-08-08T00:00:00	2024-11-08T17:00:00	3	Temperatura mínima	23.6
70332	7	Sololá	717	San Juan la Laguna	12	San Juan la Laguna	8	Agosto	2023-08-08T00:00:00	2024-11-08T17:00:00	5	Humedad	74
70333	7	Sololá	717	San Juan la Laguna	12	San Juan la Laguna	8	Agosto	2023-08-08T00:00:00	2024-11-08T17:00:00	6	Velocidad del viento	3.2
70334	7	Sololá	717	San Juan la Laguna	12	San Juan la Laguna	8	Agosto	2023-08-08T00:00:00	2024-11-08T17:00:00	7	Dirección del viento	3.22
70335	7	Sololá	717	San Juan la Laguna	12	San Juan la Laguna	8	Agosto	2023-08-08T00:00:00	2024-11-08T17:00:00	1	Precipitación	0
70336	7	Sololá	717	San Juan la Laguna	12	San Juan la Laguna	8	Agosto	2023-08-08T00:00:00	2024-11-08T17:00:00	8	Radiación solar	410
70337	7	Sololá	717	San Juan la Laguna	12	San Juan la Laguna	8	Agosto	2023-08-08T00:00:00	2024-11-08T18:00:00	2	Temperatura media	20.8
70338	7	Sololá	717	San Juan la Laguna	12	San Juan la Laguna	8	Agosto	2023-08-08T00:00:00	2024-11-08T18:00:00	4	Temperatura máxima	24.1
70339	7	Sololá	717	San Juan la Laguna	12	San Juan la Laguna	8	Agosto	2023-08-08T00:00:00	2024-11-08T18:00:00	3	Temperatura mínima	20.8
70340	7	Sololá	717	San Juan la Laguna	12	San Juan la Laguna	8	Agosto	2023-08-08T00:00:00	2024-11-08T18:00:00	5	Humedad	84
70341	7	Sololá	717	San Juan la Laguna	12	San Juan la Laguna	8	Agosto	2023-08-08T00:00:00	2024-11-08T18:00:00	6	Velocidad del viento	4.8
70342	7	Sololá	717	San Juan la Laguna	12	San Juan la Laguna	8	Agosto	2023-08-08T00:00:00	2024-11-08T18:00:00	7	Dirección del viento	4.83
70343	7	Sololá	717	San Juan la Laguna	12	San Juan la Laguna	8	Agosto	2023-08-08T00:00:00	2024-11-08T18:00:00	1	Precipitación	0
70344	7	Sololá	717	San Juan la Laguna	12	San Juan la Laguna	8	Agosto	2023-08-08T00:00:00	2024-11-08T18:00:00	8	Radiación solar	88
70345	7	Sololá	717	San Juan la Laguna	12	San Juan la Laguna	8	Agosto	2023-08-08T00:00:00	2024-11-08T19:00:00	2	Temperatura media	21
70346	7	Sololá	717	San Juan la Laguna	12	San Juan la Laguna	8	Agosto	2023-08-08T00:00:00	2024-11-08T19:00:00	4	Temperatura máxima	21.1
70347	7	Sololá	717	San Juan la Laguna	12	San Juan la Laguna	8	Agosto	2023-08-08T00:00:00	2024-11-08T19:00:00	3	Temperatura mínima	20.3
70348	7	Sololá	717	San Juan la Laguna	12	San Juan la Laguna	8	Agosto	2023-08-08T00:00:00	2024-11-08T19:00:00	5	Humedad	84
70349	7	Sololá	717	San Juan la Laguna	12	San Juan la Laguna	8	Agosto	2023-08-08T00:00:00	2024-11-08T19:00:00	6	Velocidad del viento	3.2
70350	7	Sololá	717	San Juan la Laguna	12	San Juan la Laguna	8	Agosto	2023-08-08T00:00:00	2024-11-08T19:00:00	7	Dirección del viento	3.22
70351	7	Sololá	717	San Juan la Laguna	12	San Juan la Laguna	8	Agosto	2023-08-08T00:00:00	2024-11-08T19:00:00	1	Precipitación	0
70352	7	Sololá	717	San Juan la Laguna	12	San Juan la Laguna	8	Agosto	2023-08-08T00:00:00	2024-11-08T19:00:00	8	Radiación solar	0
70353	7	Sololá	717	San Juan la Laguna	12	San Juan la Laguna	8	Agosto	2023-08-08T00:00:00	2024-11-08T20:00:00	2	Temperatura media	19.8
70354	7	Sololá	717	San Juan la Laguna	12	San Juan la Laguna	8	Agosto	2023-08-08T00:00:00	2024-11-08T20:00:00	4	Temperatura máxima	21
70355	7	Sololá	717	San Juan la Laguna	12	San Juan la Laguna	8	Agosto	2023-08-08T00:00:00	2024-11-08T20:00:00	3	Temperatura mínima	19.7
70356	7	Sololá	717	San Juan la Laguna	12	San Juan la Laguna	8	Agosto	2023-08-08T00:00:00	2024-11-08T20:00:00	5	Humedad	88
70357	7	Sololá	717	San Juan la Laguna	12	San Juan la Laguna	8	Agosto	2023-08-08T00:00:00	2024-11-08T20:00:00	6	Velocidad del viento	0
70358	7	Sololá	717	San Juan la Laguna	12	San Juan la Laguna	8	Agosto	2023-08-08T00:00:00	2024-11-08T20:00:00	7	Dirección del viento	0
70359	7	Sololá	717	San Juan la Laguna	12	San Juan la Laguna	8	Agosto	2023-08-08T00:00:00	2024-11-08T20:00:00	1	Precipitación	0
70360	7	Sololá	717	San Juan la Laguna	12	San Juan la Laguna	8	Agosto	2023-08-08T00:00:00	2024-11-08T20:00:00	8	Radiación solar	0
70361	7	Sololá	717	San Juan la Laguna	12	San Juan la Laguna	8	Agosto	2023-08-08T00:00:00	2024-11-08T21:00:00	2	Temperatura media	20.1
70362	7	Sololá	717	San Juan la Laguna	12	San Juan la Laguna	8	Agosto	2023-08-08T00:00:00	2024-11-08T21:00:00	4	Temperatura máxima	20.1
70363	7	Sololá	717	San Juan la Laguna	12	San Juan la Laguna	8	Agosto	2023-08-08T00:00:00	2024-11-08T21:00:00	3	Temperatura mínima	19.7
70364	7	Sololá	717	San Juan la Laguna	12	San Juan la Laguna	8	Agosto	2023-08-08T00:00:00	2024-11-08T21:00:00	5	Humedad	87
70365	7	Sololá	717	San Juan la Laguna	12	San Juan la Laguna	8	Agosto	2023-08-08T00:00:00	2024-11-08T21:00:00	6	Velocidad del viento	0
70366	7	Sololá	717	San Juan la Laguna	12	San Juan la Laguna	8	Agosto	2023-08-08T00:00:00	2024-11-08T21:00:00	7	Dirección del viento	0
70367	7	Sololá	717	San Juan la Laguna	12	San Juan la Laguna	8	Agosto	2023-08-08T00:00:00	2024-11-08T21:00:00	1	Precipitación	0
70368	7	Sololá	717	San Juan la Laguna	12	San Juan la Laguna	8	Agosto	2023-08-08T00:00:00	2024-11-08T21:00:00	8	Radiación solar	0
70369	7	Sololá	717	San Juan la Laguna	12	San Juan la Laguna	8	Agosto	2023-08-08T00:00:00	2024-11-08T22:00:00	2	Temperatura media	19.2
70370	7	Sololá	717	San Juan la Laguna	12	San Juan la Laguna	8	Agosto	2023-08-08T00:00:00	2024-11-08T22:00:00	4	Temperatura máxima	20.1
70371	7	Sololá	717	San Juan la Laguna	12	San Juan la Laguna	8	Agosto	2023-08-08T00:00:00	2024-11-08T22:00:00	3	Temperatura mínima	19
70372	7	Sololá	717	San Juan la Laguna	12	San Juan la Laguna	8	Agosto	2023-08-08T00:00:00	2024-11-08T22:00:00	5	Humedad	90
70373	7	Sololá	717	San Juan la Laguna	12	San Juan la Laguna	8	Agosto	2023-08-08T00:00:00	2024-11-08T22:00:00	6	Velocidad del viento	0
70374	7	Sololá	717	San Juan la Laguna	12	San Juan la Laguna	8	Agosto	2023-08-08T00:00:00	2024-11-08T22:00:00	7	Dirección del viento	0
70375	7	Sololá	717	San Juan la Laguna	12	San Juan la Laguna	8	Agosto	2023-08-08T00:00:00	2024-11-08T22:00:00	1	Precipitación	0
70376	7	Sololá	717	San Juan la Laguna	12	San Juan la Laguna	8	Agosto	2023-08-08T00:00:00	2024-11-08T22:00:00	8	Radiación solar	0
70377	7	Sololá	717	San Juan la Laguna	12	San Juan la Laguna	8	Agosto	2023-08-08T00:00:00	2024-11-08T23:00:00	2	Temperatura media	18.7
70378	7	Sololá	717	San Juan la Laguna	12	San Juan la Laguna	8	Agosto	2023-08-08T00:00:00	2024-11-08T23:00:00	4	Temperatura máxima	19.3
70379	7	Sololá	717	San Juan la Laguna	12	San Juan la Laguna	8	Agosto	2023-08-08T00:00:00	2024-11-08T23:00:00	3	Temperatura mínima	18.6
70380	7	Sololá	717	San Juan la Laguna	12	San Juan la Laguna	8	Agosto	2023-08-08T00:00:00	2024-11-08T23:00:00	5	Humedad	88
70381	7	Sololá	717	San Juan la Laguna	12	San Juan la Laguna	8	Agosto	2023-08-08T00:00:00	2024-11-08T23:00:00	6	Velocidad del viento	0
70382	7	Sololá	717	San Juan la Laguna	12	San Juan la Laguna	8	Agosto	2023-08-08T00:00:00	2024-11-08T23:00:00	7	Dirección del viento	0
70383	7	Sololá	717	San Juan la Laguna	12	San Juan la Laguna	8	Agosto	2023-08-08T00:00:00	2024-11-08T23:00:00	1	Precipitación	0
70384	7	Sololá	717	San Juan la Laguna	12	San Juan la Laguna	8	Agosto	2023-08-08T00:00:00	2024-11-08T23:00:00	8	Radiación solar	0
70385	7	Sololá	717	San Juan la Laguna	12	San Juan la Laguna	8	Agosto	2023-09-08T00:00:00	2024-11-08T00:00:00	2	Temperatura media	17.7
70386	7	Sololá	717	San Juan la Laguna	12	San Juan la Laguna	8	Agosto	2023-09-08T00:00:00	2024-11-08T00:00:00	4	Temperatura máxima	18.7
70387	7	Sololá	717	San Juan la Laguna	12	San Juan la Laguna	8	Agosto	2023-09-08T00:00:00	2024-11-08T00:00:00	3	Temperatura mínima	17.6
70388	7	Sololá	717	San Juan la Laguna	12	San Juan la Laguna	8	Agosto	2023-09-08T00:00:00	2024-11-08T00:00:00	5	Humedad	83
70389	7	Sololá	717	San Juan la Laguna	12	San Juan la Laguna	8	Agosto	2023-09-08T00:00:00	2024-11-08T00:00:00	6	Velocidad del viento	1.6
70390	7	Sololá	717	San Juan la Laguna	12	San Juan la Laguna	8	Agosto	2023-09-08T00:00:00	2024-11-08T00:00:00	7	Dirección del viento	1.61
70391	7	Sololá	717	San Juan la Laguna	12	San Juan la Laguna	8	Agosto	2023-09-08T00:00:00	2024-11-08T00:00:00	1	Precipitación	0
70392	7	Sololá	717	San Juan la Laguna	12	San Juan la Laguna	8	Agosto	2023-09-08T00:00:00	2024-11-08T00:00:00	8	Radiación solar	0
70393	7	Sololá	717	San Juan la Laguna	12	San Juan la Laguna	8	Agosto	2023-09-08T00:00:00	2024-11-08T01:00:00	2	Temperatura media	17.9
70394	7	Sololá	717	San Juan la Laguna	12	San Juan la Laguna	8	Agosto	2023-09-08T00:00:00	2024-11-08T01:00:00	4	Temperatura máxima	18.2
70395	7	Sololá	717	San Juan la Laguna	12	San Juan la Laguna	8	Agosto	2023-09-08T00:00:00	2024-11-08T01:00:00	3	Temperatura mínima	17.7
70396	7	Sololá	717	San Juan la Laguna	12	San Juan la Laguna	8	Agosto	2023-09-08T00:00:00	2024-11-08T01:00:00	5	Humedad	84
70397	7	Sololá	717	San Juan la Laguna	12	San Juan la Laguna	8	Agosto	2023-09-08T00:00:00	2024-11-08T01:00:00	6	Velocidad del viento	6.4
70398	7	Sololá	717	San Juan la Laguna	12	San Juan la Laguna	8	Agosto	2023-09-08T00:00:00	2024-11-08T01:00:00	7	Dirección del viento	6.44
70399	7	Sololá	717	San Juan la Laguna	12	San Juan la Laguna	8	Agosto	2023-09-08T00:00:00	2024-11-08T01:00:00	1	Precipitación	0
70400	7	Sololá	717	San Juan la Laguna	12	San Juan la Laguna	8	Agosto	2023-09-08T00:00:00	2024-11-08T01:00:00	8	Radiación solar	0
70401	7	Sololá	717	San Juan la Laguna	12	San Juan la Laguna	8	Agosto	2023-09-08T00:00:00	2024-11-08T02:00:00	2	Temperatura media	16.9
70402	7	Sololá	717	San Juan la Laguna	12	San Juan la Laguna	8	Agosto	2023-09-08T00:00:00	2024-11-08T02:00:00	4	Temperatura máxima	17.9
70403	7	Sololá	717	San Juan la Laguna	12	San Juan la Laguna	8	Agosto	2023-09-08T00:00:00	2024-11-08T02:00:00	3	Temperatura mínima	16.9
70404	7	Sololá	717	San Juan la Laguna	12	San Juan la Laguna	8	Agosto	2023-09-08T00:00:00	2024-11-08T02:00:00	5	Humedad	85
70405	7	Sololá	717	San Juan la Laguna	12	San Juan la Laguna	8	Agosto	2023-09-08T00:00:00	2024-11-08T02:00:00	6	Velocidad del viento	3.2
70406	7	Sololá	717	San Juan la Laguna	12	San Juan la Laguna	8	Agosto	2023-09-08T00:00:00	2024-11-08T02:00:00	7	Dirección del viento	3.22
70407	7	Sololá	717	San Juan la Laguna	12	San Juan la Laguna	8	Agosto	2023-09-08T00:00:00	2024-11-08T02:00:00	1	Precipitación	0
70408	7	Sololá	717	San Juan la Laguna	12	San Juan la Laguna	8	Agosto	2023-09-08T00:00:00	2024-11-08T02:00:00	8	Radiación solar	0
70409	7	Sololá	717	San Juan la Laguna	12	San Juan la Laguna	8	Agosto	2023-09-08T00:00:00	2024-11-08T03:00:00	2	Temperatura media	16.7
70410	7	Sololá	717	San Juan la Laguna	12	San Juan la Laguna	8	Agosto	2023-09-08T00:00:00	2024-11-08T03:00:00	4	Temperatura máxima	16.9
70411	7	Sololá	717	San Juan la Laguna	12	San Juan la Laguna	8	Agosto	2023-09-08T00:00:00	2024-11-08T03:00:00	3	Temperatura mínima	16.4
70412	7	Sololá	717	San Juan la Laguna	12	San Juan la Laguna	8	Agosto	2023-09-08T00:00:00	2024-11-08T03:00:00	5	Humedad	85
70413	7	Sololá	717	San Juan la Laguna	12	San Juan la Laguna	8	Agosto	2023-09-08T00:00:00	2024-11-08T03:00:00	6	Velocidad del viento	3.2
70414	7	Sololá	717	San Juan la Laguna	12	San Juan la Laguna	8	Agosto	2023-09-08T00:00:00	2024-11-08T03:00:00	7	Dirección del viento	3.22
70415	7	Sololá	717	San Juan la Laguna	12	San Juan la Laguna	8	Agosto	2023-09-08T00:00:00	2024-11-08T03:00:00	1	Precipitación	0
70416	7	Sololá	717	San Juan la Laguna	12	San Juan la Laguna	8	Agosto	2023-09-08T00:00:00	2024-11-08T03:00:00	8	Radiación solar	0
70417	7	Sololá	717	San Juan la Laguna	12	San Juan la Laguna	8	Agosto	2023-09-08T00:00:00	2024-11-08T04:00:00	2	Temperatura media	16.4
70418	7	Sololá	717	San Juan la Laguna	12	San Juan la Laguna	8	Agosto	2023-09-08T00:00:00	2024-11-08T04:00:00	4	Temperatura máxima	16.7
70419	7	Sololá	717	San Juan la Laguna	12	San Juan la Laguna	8	Agosto	2023-09-08T00:00:00	2024-11-08T04:00:00	3	Temperatura mínima	15.8
70420	7	Sololá	717	San Juan la Laguna	12	San Juan la Laguna	8	Agosto	2023-09-08T00:00:00	2024-11-08T04:00:00	5	Humedad	88
70421	7	Sololá	717	San Juan la Laguna	12	San Juan la Laguna	8	Agosto	2023-09-08T00:00:00	2024-11-08T04:00:00	6	Velocidad del viento	1.6
70422	7	Sololá	717	San Juan la Laguna	12	San Juan la Laguna	8	Agosto	2023-09-08T00:00:00	2024-11-08T04:00:00	7	Dirección del viento	1.61
70423	7	Sololá	717	San Juan la Laguna	12	San Juan la Laguna	8	Agosto	2023-09-08T00:00:00	2024-11-08T04:00:00	1	Precipitación	0
70424	7	Sololá	717	San Juan la Laguna	12	San Juan la Laguna	8	Agosto	2023-09-08T00:00:00	2024-11-08T04:00:00	8	Radiación solar	0
70425	7	Sololá	717	San Juan la Laguna	12	San Juan la Laguna	8	Agosto	2023-09-08T00:00:00	2024-11-08T05:00:00	2	Temperatura media	16.4
70426	7	Sololá	717	San Juan la Laguna	12	San Juan la Laguna	8	Agosto	2023-09-08T00:00:00	2024-11-08T05:00:00	4	Temperatura máxima	16.7
70427	7	Sololá	717	San Juan la Laguna	12	San Juan la Laguna	8	Agosto	2023-09-08T00:00:00	2024-11-08T05:00:00	3	Temperatura mínima	16.2
70428	7	Sololá	717	San Juan la Laguna	12	San Juan la Laguna	8	Agosto	2023-09-08T00:00:00	2024-11-08T05:00:00	5	Humedad	86
70429	7	Sololá	717	San Juan la Laguna	12	San Juan la Laguna	8	Agosto	2023-09-08T00:00:00	2024-11-08T05:00:00	6	Velocidad del viento	3.2
70430	7	Sololá	717	San Juan la Laguna	12	San Juan la Laguna	8	Agosto	2023-09-08T00:00:00	2024-11-08T05:00:00	7	Dirección del viento	3.22
70431	7	Sololá	717	San Juan la Laguna	12	San Juan la Laguna	8	Agosto	2023-09-08T00:00:00	2024-11-08T05:00:00	1	Precipitación	0
70432	7	Sololá	717	San Juan la Laguna	12	San Juan la Laguna	8	Agosto	2023-09-08T00:00:00	2024-11-08T05:00:00	8	Radiación solar	0
70433	7	Sololá	717	San Juan la Laguna	12	San Juan la Laguna	8	Agosto	2023-09-08T00:00:00	2024-11-08T06:00:00	2	Temperatura media	15.8
70434	7	Sololá	717	San Juan la Laguna	12	San Juan la Laguna	8	Agosto	2023-09-08T00:00:00	2024-11-08T06:00:00	4	Temperatura máxima	16.4
70435	7	Sololá	717	San Juan la Laguna	12	San Juan la Laguna	8	Agosto	2023-09-08T00:00:00	2024-11-08T06:00:00	3	Temperatura mínima	15.6
70436	7	Sololá	717	San Juan la Laguna	12	San Juan la Laguna	8	Agosto	2023-09-08T00:00:00	2024-11-08T06:00:00	5	Humedad	87
70437	7	Sololá	717	San Juan la Laguna	12	San Juan la Laguna	8	Agosto	2023-09-08T00:00:00	2024-11-08T06:00:00	6	Velocidad del viento	1.6
70438	7	Sololá	717	San Juan la Laguna	12	San Juan la Laguna	8	Agosto	2023-09-08T00:00:00	2024-11-08T06:00:00	7	Dirección del viento	1.61
70439	7	Sololá	717	San Juan la Laguna	12	San Juan la Laguna	8	Agosto	2023-09-08T00:00:00	2024-11-08T06:00:00	1	Precipitación	0
70440	7	Sololá	717	San Juan la Laguna	12	San Juan la Laguna	8	Agosto	2023-09-08T00:00:00	2024-11-08T06:00:00	8	Radiación solar	1
70441	7	Sololá	717	San Juan la Laguna	12	San Juan la Laguna	8	Agosto	2023-09-08T00:00:00	2024-11-08T07:00:00	2	Temperatura media	18.4
70442	7	Sololá	717	San Juan la Laguna	12	San Juan la Laguna	8	Agosto	2023-09-08T00:00:00	2024-11-08T07:00:00	4	Temperatura máxima	18.4
70443	7	Sololá	717	San Juan la Laguna	12	San Juan la Laguna	8	Agosto	2023-09-08T00:00:00	2024-11-08T07:00:00	3	Temperatura mínima	15.8
70444	7	Sololá	717	San Juan la Laguna	12	San Juan la Laguna	8	Agosto	2023-09-08T00:00:00	2024-11-08T07:00:00	5	Humedad	79
70445	7	Sololá	717	San Juan la Laguna	12	San Juan la Laguna	8	Agosto	2023-09-08T00:00:00	2024-11-08T07:00:00	6	Velocidad del viento	1.6
70446	7	Sololá	717	San Juan la Laguna	12	San Juan la Laguna	8	Agosto	2023-09-08T00:00:00	2024-11-08T07:00:00	7	Dirección del viento	1.61
70447	7	Sololá	717	San Juan la Laguna	12	San Juan la Laguna	8	Agosto	2023-09-08T00:00:00	2024-11-08T07:00:00	1	Precipitación	0
70448	7	Sololá	717	San Juan la Laguna	12	San Juan la Laguna	8	Agosto	2023-09-08T00:00:00	2024-11-08T07:00:00	8	Radiación solar	76
70449	7	Sololá	717	San Juan la Laguna	12	San Juan la Laguna	8	Agosto	2023-09-08T00:00:00	2024-11-08T08:00:00	2	Temperatura media	21.4
70450	7	Sololá	717	San Juan la Laguna	12	San Juan la Laguna	8	Agosto	2023-09-08T00:00:00	2024-11-08T08:00:00	4	Temperatura máxima	21.4
70451	7	Sololá	717	San Juan la Laguna	12	San Juan la Laguna	8	Agosto	2023-09-08T00:00:00	2024-11-08T08:00:00	3	Temperatura mínima	18.4
70452	7	Sololá	717	San Juan la Laguna	12	San Juan la Laguna	8	Agosto	2023-09-08T00:00:00	2024-11-08T08:00:00	5	Humedad	73
70453	7	Sololá	717	San Juan la Laguna	12	San Juan la Laguna	8	Agosto	2023-09-08T00:00:00	2024-11-08T08:00:00	6	Velocidad del viento	0
70454	7	Sololá	717	San Juan la Laguna	12	San Juan la Laguna	8	Agosto	2023-09-08T00:00:00	2024-11-08T08:00:00	7	Dirección del viento	0
70455	7	Sololá	717	San Juan la Laguna	12	San Juan la Laguna	8	Agosto	2023-09-08T00:00:00	2024-11-08T08:00:00	1	Precipitación	0
70456	7	Sololá	717	San Juan la Laguna	12	San Juan la Laguna	8	Agosto	2023-09-08T00:00:00	2024-11-08T08:00:00	8	Radiación solar	290
70457	7	Sololá	717	San Juan la Laguna	12	San Juan la Laguna	8	Agosto	2023-09-08T00:00:00	2024-11-08T09:00:00	2	Temperatura media	22
70458	7	Sololá	717	San Juan la Laguna	12	San Juan la Laguna	8	Agosto	2023-09-08T00:00:00	2024-11-08T09:00:00	4	Temperatura máxima	22.2
70459	7	Sololá	717	San Juan la Laguna	12	San Juan la Laguna	8	Agosto	2023-09-08T00:00:00	2024-11-08T09:00:00	3	Temperatura mínima	21.4
70460	7	Sololá	717	San Juan la Laguna	12	San Juan la Laguna	8	Agosto	2023-09-08T00:00:00	2024-11-08T09:00:00	5	Humedad	72
70461	7	Sololá	717	San Juan la Laguna	12	San Juan la Laguna	8	Agosto	2023-09-08T00:00:00	2024-11-08T09:00:00	6	Velocidad del viento	0
70462	7	Sololá	717	San Juan la Laguna	12	San Juan la Laguna	8	Agosto	2023-09-08T00:00:00	2024-11-08T09:00:00	7	Dirección del viento	0
70463	7	Sololá	717	San Juan la Laguna	12	San Juan la Laguna	8	Agosto	2023-09-08T00:00:00	2024-11-08T09:00:00	1	Precipitación	0
70464	7	Sololá	717	San Juan la Laguna	12	San Juan la Laguna	8	Agosto	2023-09-08T00:00:00	2024-11-08T09:00:00	8	Radiación solar	376
70465	7	Sololá	717	San Juan la Laguna	12	San Juan la Laguna	8	Agosto	2023-09-08T00:00:00	2024-11-08T10:00:00	2	Temperatura media	25.1
70466	7	Sololá	717	San Juan la Laguna	12	San Juan la Laguna	8	Agosto	2023-09-08T00:00:00	2024-11-08T10:00:00	4	Temperatura máxima	25.1
70467	7	Sololá	717	San Juan la Laguna	12	San Juan la Laguna	8	Agosto	2023-09-08T00:00:00	2024-11-08T10:00:00	3	Temperatura mínima	22
70468	7	Sololá	717	San Juan la Laguna	12	San Juan la Laguna	8	Agosto	2023-09-08T00:00:00	2024-11-08T10:00:00	5	Humedad	50
70469	7	Sololá	717	San Juan la Laguna	12	San Juan la Laguna	8	Agosto	2023-09-08T00:00:00	2024-11-08T10:00:00	6	Velocidad del viento	0
70470	7	Sololá	717	San Juan la Laguna	12	San Juan la Laguna	8	Agosto	2023-09-08T00:00:00	2024-11-08T10:00:00	7	Dirección del viento	0
70471	7	Sololá	717	San Juan la Laguna	12	San Juan la Laguna	8	Agosto	2023-09-08T00:00:00	2024-11-08T10:00:00	1	Precipitación	0
70472	7	Sololá	717	San Juan la Laguna	12	San Juan la Laguna	8	Agosto	2023-09-08T00:00:00	2024-11-08T10:00:00	8	Radiación solar	593
70473	7	Sololá	717	San Juan la Laguna	12	San Juan la Laguna	8	Agosto	2023-09-08T00:00:00	2024-11-08T11:00:00	2	Temperatura media	26.5
70474	7	Sololá	717	San Juan la Laguna	12	San Juan la Laguna	8	Agosto	2023-09-08T00:00:00	2024-11-08T11:00:00	4	Temperatura máxima	26.6
70475	7	Sololá	717	San Juan la Laguna	12	San Juan la Laguna	8	Agosto	2023-09-08T00:00:00	2024-11-08T11:00:00	3	Temperatura mínima	25.1
70476	7	Sololá	717	San Juan la Laguna	12	San Juan la Laguna	8	Agosto	2023-09-08T00:00:00	2024-11-08T11:00:00	5	Humedad	49
70477	7	Sololá	717	San Juan la Laguna	12	San Juan la Laguna	8	Agosto	2023-09-08T00:00:00	2024-11-08T11:00:00	6	Velocidad del viento	0
70478	7	Sololá	717	San Juan la Laguna	12	San Juan la Laguna	8	Agosto	2023-09-08T00:00:00	2024-11-08T11:00:00	7	Dirección del viento	0
70479	7	Sololá	717	San Juan la Laguna	12	San Juan la Laguna	8	Agosto	2023-09-08T00:00:00	2024-11-08T11:00:00	1	Precipitación	0
70480	7	Sololá	717	San Juan la Laguna	12	San Juan la Laguna	8	Agosto	2023-09-08T00:00:00	2024-11-08T11:00:00	8	Radiación solar	825
70481	7	Sololá	717	San Juan la Laguna	12	San Juan la Laguna	8	Agosto	2023-09-08T00:00:00	2024-11-08T12:00:00	2	Temperatura media	25.5
70482	7	Sololá	717	San Juan la Laguna	12	San Juan la Laguna	8	Agosto	2023-09-08T00:00:00	2024-11-08T12:00:00	4	Temperatura máxima	26.5
70483	7	Sololá	717	San Juan la Laguna	12	San Juan la Laguna	8	Agosto	2023-09-08T00:00:00	2024-11-08T12:00:00	3	Temperatura mínima	25.5
70484	7	Sololá	717	San Juan la Laguna	12	San Juan la Laguna	8	Agosto	2023-09-08T00:00:00	2024-11-08T12:00:00	5	Humedad	59
70485	7	Sololá	717	San Juan la Laguna	12	San Juan la Laguna	8	Agosto	2023-09-08T00:00:00	2024-11-08T12:00:00	6	Velocidad del viento	0
70486	7	Sololá	717	San Juan la Laguna	12	San Juan la Laguna	8	Agosto	2023-09-08T00:00:00	2024-11-08T12:00:00	7	Dirección del viento	0
70487	7	Sololá	717	San Juan la Laguna	12	San Juan la Laguna	8	Agosto	2023-09-08T00:00:00	2024-11-08T12:00:00	1	Precipitación	0
70488	7	Sololá	717	San Juan la Laguna	12	San Juan la Laguna	8	Agosto	2023-09-08T00:00:00	2024-11-08T12:00:00	8	Radiación solar	929
70489	7	Sololá	717	San Juan la Laguna	12	San Juan la Laguna	8	Agosto	2023-09-08T00:00:00	2024-11-08T13:00:00	2	Temperatura media	25.9
70490	7	Sololá	717	San Juan la Laguna	12	San Juan la Laguna	8	Agosto	2023-09-08T00:00:00	2024-11-08T13:00:00	4	Temperatura máxima	26
70491	7	Sololá	717	San Juan la Laguna	12	San Juan la Laguna	8	Agosto	2023-09-08T00:00:00	2024-11-08T13:00:00	3	Temperatura mínima	25.4
70492	7	Sololá	717	San Juan la Laguna	12	San Juan la Laguna	8	Agosto	2023-09-08T00:00:00	2024-11-08T13:00:00	5	Humedad	63
70493	7	Sololá	717	San Juan la Laguna	12	San Juan la Laguna	8	Agosto	2023-09-08T00:00:00	2024-11-08T13:00:00	6	Velocidad del viento	0
70494	7	Sololá	717	San Juan la Laguna	12	San Juan la Laguna	8	Agosto	2023-09-08T00:00:00	2024-11-08T13:00:00	7	Dirección del viento	0
70495	7	Sololá	717	San Juan la Laguna	12	San Juan la Laguna	8	Agosto	2023-09-08T00:00:00	2024-11-08T13:00:00	1	Precipitación	0
70496	7	Sololá	717	San Juan la Laguna	12	San Juan la Laguna	8	Agosto	2023-09-08T00:00:00	2024-11-08T13:00:00	8	Radiación solar	936
70497	7	Sololá	717	San Juan la Laguna	12	San Juan la Laguna	8	Agosto	2023-09-08T00:00:00	2024-11-08T14:00:00	2	Temperatura media	24.4
70498	7	Sololá	717	San Juan la Laguna	12	San Juan la Laguna	8	Agosto	2023-09-08T00:00:00	2024-11-08T14:00:00	4	Temperatura máxima	25.9
70499	7	Sololá	717	San Juan la Laguna	12	San Juan la Laguna	8	Agosto	2023-09-08T00:00:00	2024-11-08T14:00:00	3	Temperatura mínima	24.3
70500	7	Sololá	717	San Juan la Laguna	12	San Juan la Laguna	8	Agosto	2023-09-08T00:00:00	2024-11-08T14:00:00	5	Humedad	71
70501	7	Sololá	717	San Juan la Laguna	12	San Juan la Laguna	8	Agosto	2023-09-08T00:00:00	2024-11-08T14:00:00	6	Velocidad del viento	6.4
70502	7	Sololá	717	San Juan la Laguna	12	San Juan la Laguna	8	Agosto	2023-09-08T00:00:00	2024-11-08T14:00:00	7	Dirección del viento	6.44
70503	7	Sololá	717	San Juan la Laguna	12	San Juan la Laguna	8	Agosto	2023-09-08T00:00:00	2024-11-08T14:00:00	1	Precipitación	0
70504	7	Sololá	717	San Juan la Laguna	12	San Juan la Laguna	8	Agosto	2023-09-08T00:00:00	2024-11-08T14:00:00	8	Radiación solar	854
70505	7	Sololá	717	San Juan la Laguna	12	San Juan la Laguna	8	Agosto	2023-09-08T00:00:00	2024-11-08T15:00:00	2	Temperatura media	23.4
70506	7	Sololá	717	San Juan la Laguna	12	San Juan la Laguna	8	Agosto	2023-09-08T00:00:00	2024-11-08T15:00:00	4	Temperatura máxima	25.1
70507	7	Sololá	717	San Juan la Laguna	12	San Juan la Laguna	8	Agosto	2023-09-08T00:00:00	2024-11-08T15:00:00	3	Temperatura mínima	23.2
70508	7	Sololá	717	San Juan la Laguna	12	San Juan la Laguna	8	Agosto	2023-09-08T00:00:00	2024-11-08T15:00:00	5	Humedad	74
70509	7	Sololá	717	San Juan la Laguna	12	San Juan la Laguna	8	Agosto	2023-09-08T00:00:00	2024-11-08T15:00:00	6	Velocidad del viento	9.7
70510	7	Sololá	717	San Juan la Laguna	12	San Juan la Laguna	8	Agosto	2023-09-08T00:00:00	2024-11-08T15:00:00	7	Dirección del viento	9.66
70511	7	Sololá	717	San Juan la Laguna	12	San Juan la Laguna	8	Agosto	2023-09-08T00:00:00	2024-11-08T15:00:00	1	Precipitación	0
70512	7	Sololá	717	San Juan la Laguna	12	San Juan la Laguna	8	Agosto	2023-09-08T00:00:00	2024-11-08T15:00:00	8	Radiación solar	527
70513	7	Sololá	717	San Juan la Laguna	12	San Juan la Laguna	8	Agosto	2023-09-08T00:00:00	2024-11-08T16:00:00	2	Temperatura media	24
70514	7	Sololá	717	San Juan la Laguna	12	San Juan la Laguna	8	Agosto	2023-09-08T00:00:00	2024-11-08T16:00:00	4	Temperatura máxima	24
70515	7	Sololá	717	San Juan la Laguna	12	San Juan la Laguna	8	Agosto	2023-09-08T00:00:00	2024-11-08T16:00:00	3	Temperatura mínima	23.2
70516	7	Sololá	717	San Juan la Laguna	12	San Juan la Laguna	8	Agosto	2023-09-08T00:00:00	2024-11-08T16:00:00	5	Humedad	71
70517	7	Sololá	717	San Juan la Laguna	12	San Juan la Laguna	8	Agosto	2023-09-08T00:00:00	2024-11-08T16:00:00	6	Velocidad del viento	4.8
70518	7	Sololá	717	San Juan la Laguna	12	San Juan la Laguna	8	Agosto	2023-09-08T00:00:00	2024-11-08T16:00:00	7	Dirección del viento	4.83
70519	7	Sololá	717	San Juan la Laguna	12	San Juan la Laguna	8	Agosto	2023-09-08T00:00:00	2024-11-08T16:00:00	1	Precipitación	0
70520	7	Sololá	717	San Juan la Laguna	12	San Juan la Laguna	8	Agosto	2023-09-08T00:00:00	2024-11-08T16:00:00	8	Radiación solar	338
70521	7	Sololá	717	San Juan la Laguna	12	San Juan la Laguna	8	Agosto	2023-09-08T00:00:00	2024-11-08T17:00:00	2	Temperatura media	20
70522	7	Sololá	717	San Juan la Laguna	12	San Juan la Laguna	8	Agosto	2023-09-08T00:00:00	2024-11-08T17:00:00	4	Temperatura máxima	24.1
70523	7	Sololá	717	San Juan la Laguna	12	San Juan la Laguna	8	Agosto	2023-09-08T00:00:00	2024-11-08T17:00:00	3	Temperatura mínima	19.8
70524	7	Sololá	717	San Juan la Laguna	12	San Juan la Laguna	8	Agosto	2023-09-08T00:00:00	2024-11-08T17:00:00	5	Humedad	88
70525	7	Sololá	717	San Juan la Laguna	12	San Juan la Laguna	8	Agosto	2023-09-08T00:00:00	2024-11-08T17:00:00	6	Velocidad del viento	6.4
70526	7	Sololá	717	San Juan la Laguna	12	San Juan la Laguna	8	Agosto	2023-09-08T00:00:00	2024-11-08T17:00:00	7	Dirección del viento	6.44
70527	7	Sololá	717	San Juan la Laguna	12	San Juan la Laguna	8	Agosto	2023-09-08T00:00:00	2024-11-08T17:00:00	1	Precipitación	1
70528	7	Sololá	717	San Juan la Laguna	12	San Juan la Laguna	8	Agosto	2023-09-08T00:00:00	2024-11-08T17:00:00	8	Radiación solar	109
70529	7	Sololá	717	San Juan la Laguna	12	San Juan la Laguna	8	Agosto	2023-09-08T00:00:00	2024-11-08T18:00:00	2	Temperatura media	19.8
70530	7	Sololá	717	San Juan la Laguna	12	San Juan la Laguna	8	Agosto	2023-09-08T00:00:00	2024-11-08T18:00:00	4	Temperatura máxima	20.8
70531	7	Sololá	717	San Juan la Laguna	12	San Juan la Laguna	8	Agosto	2023-09-08T00:00:00	2024-11-08T18:00:00	3	Temperatura mínima	19.8
70532	7	Sololá	717	San Juan la Laguna	12	San Juan la Laguna	8	Agosto	2023-09-08T00:00:00	2024-11-08T18:00:00	5	Humedad	89
70533	7	Sololá	717	San Juan la Laguna	12	San Juan la Laguna	8	Agosto	2023-09-08T00:00:00	2024-11-08T18:00:00	6	Velocidad del viento	1.6
70534	7	Sololá	717	San Juan la Laguna	12	San Juan la Laguna	8	Agosto	2023-09-08T00:00:00	2024-11-08T18:00:00	7	Dirección del viento	1.61
70535	7	Sololá	717	San Juan la Laguna	12	San Juan la Laguna	8	Agosto	2023-09-08T00:00:00	2024-11-08T18:00:00	1	Precipitación	0
70536	7	Sololá	717	San Juan la Laguna	12	San Juan la Laguna	8	Agosto	2023-09-08T00:00:00	2024-11-08T18:00:00	8	Radiación solar	59
70537	7	Sololá	717	San Juan la Laguna	12	San Juan la Laguna	8	Agosto	2023-09-08T00:00:00	2024-11-08T19:00:00	2	Temperatura media	19.2
70538	7	Sololá	717	San Juan la Laguna	12	San Juan la Laguna	8	Agosto	2023-09-08T00:00:00	2024-11-08T19:00:00	4	Temperatura máxima	19.9
70539	7	Sololá	717	San Juan la Laguna	12	San Juan la Laguna	8	Agosto	2023-09-08T00:00:00	2024-11-08T19:00:00	3	Temperatura mínima	19.2
70540	7	Sololá	717	San Juan la Laguna	12	San Juan la Laguna	8	Agosto	2023-09-08T00:00:00	2024-11-08T19:00:00	5	Humedad	90
70541	7	Sololá	717	San Juan la Laguna	12	San Juan la Laguna	8	Agosto	2023-09-08T00:00:00	2024-11-08T19:00:00	6	Velocidad del viento	0
70542	7	Sololá	717	San Juan la Laguna	12	San Juan la Laguna	8	Agosto	2023-09-08T00:00:00	2024-11-08T19:00:00	7	Dirección del viento	0
70543	7	Sololá	717	San Juan la Laguna	12	San Juan la Laguna	8	Agosto	2023-09-08T00:00:00	2024-11-08T19:00:00	1	Precipitación	0
70544	7	Sololá	717	San Juan la Laguna	12	San Juan la Laguna	8	Agosto	2023-09-08T00:00:00	2024-11-08T19:00:00	8	Radiación solar	0
70545	7	Sololá	717	San Juan la Laguna	12	San Juan la Laguna	8	Agosto	2023-09-08T00:00:00	2024-11-08T20:00:00	2	Temperatura media	19.1
70546	7	Sololá	717	San Juan la Laguna	12	San Juan la Laguna	8	Agosto	2023-09-08T00:00:00	2024-11-08T20:00:00	4	Temperatura máxima	19.7
70547	7	Sololá	717	San Juan la Laguna	12	San Juan la Laguna	8	Agosto	2023-09-08T00:00:00	2024-11-08T20:00:00	3	Temperatura mínima	19.1
70548	7	Sololá	717	San Juan la Laguna	12	San Juan la Laguna	8	Agosto	2023-09-08T00:00:00	2024-11-08T20:00:00	5	Humedad	88
70549	7	Sololá	717	San Juan la Laguna	12	San Juan la Laguna	8	Agosto	2023-09-08T00:00:00	2024-11-08T20:00:00	6	Velocidad del viento	3.2
70550	7	Sololá	717	San Juan la Laguna	12	San Juan la Laguna	8	Agosto	2023-09-08T00:00:00	2024-11-08T20:00:00	7	Dirección del viento	3.22
70551	7	Sololá	717	San Juan la Laguna	12	San Juan la Laguna	8	Agosto	2023-09-08T00:00:00	2024-11-08T20:00:00	1	Precipitación	0
70552	7	Sololá	717	San Juan la Laguna	12	San Juan la Laguna	8	Agosto	2023-09-08T00:00:00	2024-11-08T20:00:00	8	Radiación solar	0
70553	7	Sololá	717	San Juan la Laguna	12	San Juan la Laguna	8	Agosto	2023-09-08T00:00:00	2024-11-08T21:00:00	2	Temperatura media	18.9
70554	7	Sololá	717	San Juan la Laguna	12	San Juan la Laguna	8	Agosto	2023-09-08T00:00:00	2024-11-08T21:00:00	4	Temperatura máxima	19.1
70555	7	Sololá	717	San Juan la Laguna	12	San Juan la Laguna	8	Agosto	2023-09-08T00:00:00	2024-11-08T21:00:00	3	Temperatura mínima	18.7
70556	7	Sololá	717	San Juan la Laguna	12	San Juan la Laguna	8	Agosto	2023-09-08T00:00:00	2024-11-08T21:00:00	5	Humedad	86
70557	7	Sololá	717	San Juan la Laguna	12	San Juan la Laguna	8	Agosto	2023-09-08T00:00:00	2024-11-08T21:00:00	6	Velocidad del viento	4.8
70558	7	Sololá	717	San Juan la Laguna	12	San Juan la Laguna	8	Agosto	2023-09-08T00:00:00	2024-11-08T21:00:00	7	Dirección del viento	4.83
70559	7	Sololá	717	San Juan la Laguna	12	San Juan la Laguna	8	Agosto	2023-09-08T00:00:00	2024-11-08T21:00:00	1	Precipitación	0
70560	7	Sololá	717	San Juan la Laguna	12	San Juan la Laguna	8	Agosto	2023-09-08T00:00:00	2024-11-08T21:00:00	8	Radiación solar	0
70561	7	Sololá	717	San Juan la Laguna	12	San Juan la Laguna	8	Agosto	2023-09-08T00:00:00	2024-11-08T22:00:00	2	Temperatura media	17.8
70562	7	Sololá	717	San Juan la Laguna	12	San Juan la Laguna	8	Agosto	2023-09-08T00:00:00	2024-11-08T22:00:00	4	Temperatura máxima	18.9
70563	7	Sololá	717	San Juan la Laguna	12	San Juan la Laguna	8	Agosto	2023-09-08T00:00:00	2024-11-08T22:00:00	3	Temperatura mínima	17.8
70564	7	Sololá	717	San Juan la Laguna	12	San Juan la Laguna	8	Agosto	2023-09-08T00:00:00	2024-11-08T22:00:00	5	Humedad	88
70565	7	Sololá	717	San Juan la Laguna	12	San Juan la Laguna	8	Agosto	2023-09-08T00:00:00	2024-11-08T22:00:00	6	Velocidad del viento	1.6
70566	7	Sololá	717	San Juan la Laguna	12	San Juan la Laguna	8	Agosto	2023-09-08T00:00:00	2024-11-08T22:00:00	7	Dirección del viento	1.61
70567	7	Sololá	717	San Juan la Laguna	12	San Juan la Laguna	8	Agosto	2023-09-08T00:00:00	2024-11-08T22:00:00	1	Precipitación	0
70568	7	Sololá	717	San Juan la Laguna	12	San Juan la Laguna	8	Agosto	2023-09-08T00:00:00	2024-11-08T22:00:00	8	Radiación solar	0
70569	7	Sololá	717	San Juan la Laguna	12	San Juan la Laguna	8	Agosto	2023-09-08T00:00:00	2024-11-08T23:00:00	2	Temperatura media	17.7
70570	7	Sololá	717	San Juan la Laguna	12	San Juan la Laguna	8	Agosto	2023-09-08T00:00:00	2024-11-08T23:00:00	4	Temperatura máxima	17.8
70571	7	Sololá	717	San Juan la Laguna	12	San Juan la Laguna	8	Agosto	2023-09-08T00:00:00	2024-11-08T23:00:00	3	Temperatura mínima	17.6
70572	7	Sololá	717	San Juan la Laguna	12	San Juan la Laguna	8	Agosto	2023-09-08T00:00:00	2024-11-08T23:00:00	5	Humedad	87
70573	7	Sololá	717	San Juan la Laguna	12	San Juan la Laguna	8	Agosto	2023-09-08T00:00:00	2024-11-08T23:00:00	6	Velocidad del viento	1.6
70574	7	Sololá	717	San Juan la Laguna	12	San Juan la Laguna	8	Agosto	2023-09-08T00:00:00	2024-11-08T23:00:00	7	Dirección del viento	1.61
70575	7	Sololá	717	San Juan la Laguna	12	San Juan la Laguna	8	Agosto	2023-09-08T00:00:00	2024-11-08T23:00:00	1	Precipitación	0
70576	7	Sololá	717	San Juan la Laguna	12	San Juan la Laguna	8	Agosto	2023-09-08T00:00:00	2024-11-08T23:00:00	8	Radiación solar	0
70577	7	Sololá	717	San Juan la Laguna	12	San Juan la Laguna	8	Agosto	2023-10-08T00:00:00	2024-11-08T00:00:00	2	Temperatura media	17.4
70578	7	Sololá	717	San Juan la Laguna	12	San Juan la Laguna	8	Agosto	2023-10-08T00:00:00	2024-11-08T00:00:00	4	Temperatura máxima	17.7
70579	7	Sololá	717	San Juan la Laguna	12	San Juan la Laguna	8	Agosto	2023-10-08T00:00:00	2024-11-08T00:00:00	3	Temperatura mínima	17.3
70580	7	Sololá	717	San Juan la Laguna	12	San Juan la Laguna	8	Agosto	2023-10-08T00:00:00	2024-11-08T00:00:00	5	Humedad	86
70581	7	Sololá	717	San Juan la Laguna	12	San Juan la Laguna	8	Agosto	2023-10-08T00:00:00	2024-11-08T00:00:00	6	Velocidad del viento	1.6
70582	7	Sololá	717	San Juan la Laguna	12	San Juan la Laguna	8	Agosto	2023-10-08T00:00:00	2024-11-08T00:00:00	7	Dirección del viento	1.61
70583	7	Sololá	717	San Juan la Laguna	12	San Juan la Laguna	8	Agosto	2023-10-08T00:00:00	2024-11-08T00:00:00	1	Precipitación	0
70584	7	Sololá	717	San Juan la Laguna	12	San Juan la Laguna	8	Agosto	2023-10-08T00:00:00	2024-11-08T00:00:00	8	Radiación solar	0
70585	7	Sololá	717	San Juan la Laguna	12	San Juan la Laguna	8	Agosto	2023-10-08T00:00:00	2024-11-08T01:00:00	2	Temperatura media	17.4
70586	7	Sololá	717	San Juan la Laguna	12	San Juan la Laguna	8	Agosto	2023-10-08T00:00:00	2024-11-08T01:00:00	4	Temperatura máxima	17.4
70587	7	Sololá	717	San Juan la Laguna	12	San Juan la Laguna	8	Agosto	2023-10-08T00:00:00	2024-11-08T01:00:00	3	Temperatura mínima	16.9
70588	7	Sololá	717	San Juan la Laguna	12	San Juan la Laguna	8	Agosto	2023-10-08T00:00:00	2024-11-08T01:00:00	5	Humedad	86
70589	7	Sololá	717	San Juan la Laguna	12	San Juan la Laguna	8	Agosto	2023-10-08T00:00:00	2024-11-08T01:00:00	6	Velocidad del viento	1.6
70590	7	Sololá	717	San Juan la Laguna	12	San Juan la Laguna	8	Agosto	2023-10-08T00:00:00	2024-11-08T01:00:00	7	Dirección del viento	1.61
70591	7	Sololá	717	San Juan la Laguna	12	San Juan la Laguna	8	Agosto	2023-10-08T00:00:00	2024-11-08T01:00:00	1	Precipitación	0
70592	7	Sololá	717	San Juan la Laguna	12	San Juan la Laguna	8	Agosto	2023-10-08T00:00:00	2024-11-08T01:00:00	8	Radiación solar	0
70593	7	Sololá	717	San Juan la Laguna	12	San Juan la Laguna	8	Agosto	2023-10-08T00:00:00	2024-11-08T02:00:00	2	Temperatura media	17.2
70594	7	Sololá	717	San Juan la Laguna	12	San Juan la Laguna	8	Agosto	2023-10-08T00:00:00	2024-11-08T02:00:00	4	Temperatura máxima	17.5
70595	7	Sololá	717	San Juan la Laguna	12	San Juan la Laguna	8	Agosto	2023-10-08T00:00:00	2024-11-08T02:00:00	3	Temperatura mínima	17.2
70596	7	Sololá	717	San Juan la Laguna	12	San Juan la Laguna	8	Agosto	2023-10-08T00:00:00	2024-11-08T02:00:00	5	Humedad	85
70597	7	Sololá	717	San Juan la Laguna	12	San Juan la Laguna	8	Agosto	2023-10-08T00:00:00	2024-11-08T02:00:00	6	Velocidad del viento	1.6
70598	7	Sololá	717	San Juan la Laguna	12	San Juan la Laguna	8	Agosto	2023-10-08T00:00:00	2024-11-08T02:00:00	7	Dirección del viento	1.61
70599	7	Sololá	717	San Juan la Laguna	12	San Juan la Laguna	8	Agosto	2023-10-08T00:00:00	2024-11-08T02:00:00	1	Precipitación	0
70600	7	Sololá	717	San Juan la Laguna	12	San Juan la Laguna	8	Agosto	2023-10-08T00:00:00	2024-11-08T02:00:00	8	Radiación solar	0
70601	7	Sololá	717	San Juan la Laguna	12	San Juan la Laguna	8	Agosto	2023-10-08T00:00:00	2024-11-08T03:00:00	2	Temperatura media	16.9
70602	7	Sololá	717	San Juan la Laguna	12	San Juan la Laguna	8	Agosto	2023-10-08T00:00:00	2024-11-08T03:00:00	4	Temperatura máxima	17.2
70603	7	Sololá	717	San Juan la Laguna	12	San Juan la Laguna	8	Agosto	2023-10-08T00:00:00	2024-11-08T03:00:00	3	Temperatura mínima	16.6
70604	7	Sololá	717	San Juan la Laguna	12	San Juan la Laguna	8	Agosto	2023-10-08T00:00:00	2024-11-08T03:00:00	5	Humedad	84
70605	7	Sololá	717	San Juan la Laguna	12	San Juan la Laguna	8	Agosto	2023-10-08T00:00:00	2024-11-08T03:00:00	6	Velocidad del viento	3.2
70606	7	Sololá	717	San Juan la Laguna	12	San Juan la Laguna	8	Agosto	2023-10-08T00:00:00	2024-11-08T03:00:00	7	Dirección del viento	3.22
70607	7	Sololá	717	San Juan la Laguna	12	San Juan la Laguna	8	Agosto	2023-10-08T00:00:00	2024-11-08T03:00:00	1	Precipitación	0
70608	7	Sololá	717	San Juan la Laguna	12	San Juan la Laguna	8	Agosto	2023-10-08T00:00:00	2024-11-08T03:00:00	8	Radiación solar	0
70609	7	Sololá	717	San Juan la Laguna	12	San Juan la Laguna	8	Agosto	2023-10-08T00:00:00	2024-11-08T04:00:00	2	Temperatura media	16.7
70610	7	Sololá	717	San Juan la Laguna	12	San Juan la Laguna	8	Agosto	2023-10-08T00:00:00	2024-11-08T04:00:00	4	Temperatura máxima	17.8
70611	7	Sololá	717	San Juan la Laguna	12	San Juan la Laguna	8	Agosto	2023-10-08T00:00:00	2024-11-08T04:00:00	3	Temperatura mínima	16.7
70612	7	Sololá	717	San Juan la Laguna	12	San Juan la Laguna	8	Agosto	2023-10-08T00:00:00	2024-11-08T04:00:00	5	Humedad	86
70613	7	Sololá	717	San Juan la Laguna	12	San Juan la Laguna	8	Agosto	2023-10-08T00:00:00	2024-11-08T04:00:00	6	Velocidad del viento	0
70614	7	Sololá	717	San Juan la Laguna	12	San Juan la Laguna	8	Agosto	2023-10-08T00:00:00	2024-11-08T04:00:00	7	Dirección del viento	0
70615	7	Sololá	717	San Juan la Laguna	12	San Juan la Laguna	8	Agosto	2023-10-08T00:00:00	2024-11-08T04:00:00	1	Precipitación	0
70616	7	Sololá	717	San Juan la Laguna	12	San Juan la Laguna	8	Agosto	2023-10-08T00:00:00	2024-11-08T04:00:00	8	Radiación solar	0
70617	7	Sololá	717	San Juan la Laguna	12	San Juan la Laguna	8	Agosto	2023-10-08T00:00:00	2024-11-08T05:00:00	2	Temperatura media	16.4
70618	7	Sololá	717	San Juan la Laguna	12	San Juan la Laguna	8	Agosto	2023-10-08T00:00:00	2024-11-08T05:00:00	4	Temperatura máxima	16.8
70619	7	Sololá	717	San Juan la Laguna	12	San Juan la Laguna	8	Agosto	2023-10-08T00:00:00	2024-11-08T05:00:00	3	Temperatura mínima	16.3
70620	7	Sololá	717	San Juan la Laguna	12	San Juan la Laguna	8	Agosto	2023-10-08T00:00:00	2024-11-08T05:00:00	5	Humedad	88
70621	7	Sololá	717	San Juan la Laguna	12	San Juan la Laguna	8	Agosto	2023-10-08T00:00:00	2024-11-08T05:00:00	6	Velocidad del viento	0
70622	7	Sololá	717	San Juan la Laguna	12	San Juan la Laguna	8	Agosto	2023-10-08T00:00:00	2024-11-08T05:00:00	7	Dirección del viento	0
70623	7	Sololá	717	San Juan la Laguna	12	San Juan la Laguna	8	Agosto	2023-10-08T00:00:00	2024-11-08T05:00:00	1	Precipitación	0
70624	7	Sololá	717	San Juan la Laguna	12	San Juan la Laguna	8	Agosto	2023-10-08T00:00:00	2024-11-08T05:00:00	8	Radiación solar	0
70625	7	Sololá	717	San Juan la Laguna	12	San Juan la Laguna	8	Agosto	2023-10-08T00:00:00	2024-11-08T06:00:00	2	Temperatura media	16.6
70626	7	Sololá	717	San Juan la Laguna	12	San Juan la Laguna	8	Agosto	2023-10-08T00:00:00	2024-11-08T06:00:00	4	Temperatura máxima	17.1
70627	7	Sololá	717	San Juan la Laguna	12	San Juan la Laguna	8	Agosto	2023-10-08T00:00:00	2024-11-08T06:00:00	3	Temperatura mínima	16.4
70628	7	Sololá	717	San Juan la Laguna	12	San Juan la Laguna	8	Agosto	2023-10-08T00:00:00	2024-11-08T06:00:00	5	Humedad	87
70629	7	Sololá	717	San Juan la Laguna	12	San Juan la Laguna	8	Agosto	2023-10-08T00:00:00	2024-11-08T06:00:00	6	Velocidad del viento	3.2
70630	7	Sololá	717	San Juan la Laguna	12	San Juan la Laguna	8	Agosto	2023-10-08T00:00:00	2024-11-08T06:00:00	7	Dirección del viento	3.22
70631	7	Sololá	717	San Juan la Laguna	12	San Juan la Laguna	8	Agosto	2023-10-08T00:00:00	2024-11-08T06:00:00	1	Precipitación	0
70632	7	Sololá	717	San Juan la Laguna	12	San Juan la Laguna	8	Agosto	2023-10-08T00:00:00	2024-11-08T06:00:00	8	Radiación solar	1
70633	7	Sololá	717	San Juan la Laguna	12	San Juan la Laguna	8	Agosto	2023-10-08T00:00:00	2024-11-08T07:00:00	2	Temperatura media	19.1
70634	7	Sololá	717	San Juan la Laguna	12	San Juan la Laguna	8	Agosto	2023-10-08T00:00:00	2024-11-08T07:00:00	4	Temperatura máxima	19.1
70635	7	Sololá	717	San Juan la Laguna	12	San Juan la Laguna	8	Agosto	2023-10-08T00:00:00	2024-11-08T07:00:00	3	Temperatura mínima	16.4
70636	7	Sololá	717	San Juan la Laguna	12	San Juan la Laguna	8	Agosto	2023-10-08T00:00:00	2024-11-08T07:00:00	5	Humedad	81
70637	7	Sololá	717	San Juan la Laguna	12	San Juan la Laguna	8	Agosto	2023-10-08T00:00:00	2024-11-08T07:00:00	6	Velocidad del viento	1.6
70638	7	Sololá	717	San Juan la Laguna	12	San Juan la Laguna	8	Agosto	2023-10-08T00:00:00	2024-11-08T07:00:00	7	Dirección del viento	1.61
70639	7	Sololá	717	San Juan la Laguna	12	San Juan la Laguna	8	Agosto	2023-10-08T00:00:00	2024-11-08T07:00:00	1	Precipitación	0
70640	7	Sololá	717	San Juan la Laguna	12	San Juan la Laguna	8	Agosto	2023-10-08T00:00:00	2024-11-08T07:00:00	8	Radiación solar	90
70641	7	Sololá	717	San Juan la Laguna	12	San Juan la Laguna	8	Agosto	2023-10-08T00:00:00	2024-11-08T08:00:00	2	Temperatura media	21.6
70642	7	Sololá	717	San Juan la Laguna	12	San Juan la Laguna	8	Agosto	2023-10-08T00:00:00	2024-11-08T08:00:00	4	Temperatura máxima	21.6
70643	7	Sololá	717	San Juan la Laguna	12	San Juan la Laguna	8	Agosto	2023-10-08T00:00:00	2024-11-08T08:00:00	3	Temperatura mínima	19.1
70644	7	Sololá	717	San Juan la Laguna	12	San Juan la Laguna	8	Agosto	2023-10-08T00:00:00	2024-11-08T08:00:00	5	Humedad	76
70645	7	Sololá	717	San Juan la Laguna	12	San Juan la Laguna	8	Agosto	2023-10-08T00:00:00	2024-11-08T08:00:00	6	Velocidad del viento	0
70646	7	Sololá	717	San Juan la Laguna	12	San Juan la Laguna	8	Agosto	2023-10-08T00:00:00	2024-11-08T08:00:00	7	Dirección del viento	0
70647	7	Sololá	717	San Juan la Laguna	12	San Juan la Laguna	8	Agosto	2023-10-08T00:00:00	2024-11-08T08:00:00	1	Precipitación	0
70648	7	Sololá	717	San Juan la Laguna	12	San Juan la Laguna	8	Agosto	2023-10-08T00:00:00	2024-11-08T08:00:00	8	Radiación solar	307
70649	7	Sololá	717	San Juan la Laguna	12	San Juan la Laguna	8	Agosto	2023-10-08T00:00:00	2024-11-08T09:00:00	2	Temperatura media	23
70650	7	Sololá	717	San Juan la Laguna	12	San Juan la Laguna	8	Agosto	2023-10-08T00:00:00	2024-11-08T09:00:00	4	Temperatura máxima	23.1
70651	7	Sololá	717	San Juan la Laguna	12	San Juan la Laguna	8	Agosto	2023-10-08T00:00:00	2024-11-08T09:00:00	3	Temperatura mínima	21.4
70652	7	Sololá	717	San Juan la Laguna	12	San Juan la Laguna	8	Agosto	2023-10-08T00:00:00	2024-11-08T09:00:00	5	Humedad	72
70653	7	Sololá	717	San Juan la Laguna	12	San Juan la Laguna	8	Agosto	2023-10-08T00:00:00	2024-11-08T09:00:00	6	Velocidad del viento	0
70654	7	Sololá	717	San Juan la Laguna	12	San Juan la Laguna	8	Agosto	2023-10-08T00:00:00	2024-11-08T09:00:00	7	Dirección del viento	0
70655	7	Sololá	717	San Juan la Laguna	12	San Juan la Laguna	8	Agosto	2023-10-08T00:00:00	2024-11-08T09:00:00	1	Precipitación	0
70656	7	Sololá	717	San Juan la Laguna	12	San Juan la Laguna	8	Agosto	2023-10-08T00:00:00	2024-11-08T09:00:00	8	Radiación solar	475
70657	7	Sololá	717	San Juan la Laguna	12	San Juan la Laguna	8	Agosto	2023-10-08T00:00:00	2024-11-08T10:00:00	2	Temperatura media	23.8
70658	7	Sololá	717	San Juan la Laguna	12	San Juan la Laguna	8	Agosto	2023-10-08T00:00:00	2024-11-08T10:00:00	4	Temperatura máxima	23.8
70659	7	Sololá	717	San Juan la Laguna	12	San Juan la Laguna	8	Agosto	2023-10-08T00:00:00	2024-11-08T10:00:00	3	Temperatura mínima	22.2
70660	7	Sololá	717	San Juan la Laguna	12	San Juan la Laguna	8	Agosto	2023-10-08T00:00:00	2024-11-08T10:00:00	5	Humedad	66
70661	7	Sololá	717	San Juan la Laguna	12	San Juan la Laguna	8	Agosto	2023-10-08T00:00:00	2024-11-08T10:00:00	6	Velocidad del viento	0
70662	7	Sololá	717	San Juan la Laguna	12	San Juan la Laguna	8	Agosto	2023-10-08T00:00:00	2024-11-08T10:00:00	7	Dirección del viento	0
70663	7	Sololá	717	San Juan la Laguna	12	San Juan la Laguna	8	Agosto	2023-10-08T00:00:00	2024-11-08T10:00:00	1	Precipitación	0
70664	7	Sololá	717	San Juan la Laguna	12	San Juan la Laguna	8	Agosto	2023-10-08T00:00:00	2024-11-08T10:00:00	8	Radiación solar	617
70665	7	Sololá	717	San Juan la Laguna	12	San Juan la Laguna	8	Agosto	2023-10-08T00:00:00	2024-11-08T11:00:00	2	Temperatura media	25.7
70666	7	Sololá	717	San Juan la Laguna	12	San Juan la Laguna	8	Agosto	2023-10-08T00:00:00	2024-11-08T11:00:00	4	Temperatura máxima	25.7
70667	7	Sololá	717	San Juan la Laguna	12	San Juan la Laguna	8	Agosto	2023-10-08T00:00:00	2024-11-08T11:00:00	3	Temperatura mínima	23.8
70668	7	Sololá	717	San Juan la Laguna	12	San Juan la Laguna	8	Agosto	2023-10-08T00:00:00	2024-11-08T11:00:00	5	Humedad	55
70669	7	Sololá	717	San Juan la Laguna	12	San Juan la Laguna	8	Agosto	2023-10-08T00:00:00	2024-11-08T11:00:00	6	Velocidad del viento	0
70670	7	Sololá	717	San Juan la Laguna	12	San Juan la Laguna	8	Agosto	2023-10-08T00:00:00	2024-11-08T11:00:00	7	Dirección del viento	0
70671	7	Sololá	717	San Juan la Laguna	12	San Juan la Laguna	8	Agosto	2023-10-08T00:00:00	2024-11-08T11:00:00	1	Precipitación	0
70672	7	Sololá	717	San Juan la Laguna	12	San Juan la Laguna	8	Agosto	2023-10-08T00:00:00	2024-11-08T11:00:00	8	Radiación solar	903
70673	7	Sololá	717	San Juan la Laguna	12	San Juan la Laguna	8	Agosto	2023-10-08T00:00:00	2024-11-08T12:00:00	2	Temperatura media	25.9
70674	7	Sololá	717	San Juan la Laguna	12	San Juan la Laguna	8	Agosto	2023-10-08T00:00:00	2024-11-08T12:00:00	4	Temperatura máxima	26.9
70675	7	Sololá	717	San Juan la Laguna	12	San Juan la Laguna	8	Agosto	2023-10-08T00:00:00	2024-11-08T12:00:00	3	Temperatura mínima	25.7
70676	7	Sololá	717	San Juan la Laguna	12	San Juan la Laguna	8	Agosto	2023-10-08T00:00:00	2024-11-08T12:00:00	5	Humedad	63
70677	7	Sololá	717	San Juan la Laguna	12	San Juan la Laguna	8	Agosto	2023-10-08T00:00:00	2024-11-08T12:00:00	6	Velocidad del viento	0
70678	7	Sololá	717	San Juan la Laguna	12	San Juan la Laguna	8	Agosto	2023-10-08T00:00:00	2024-11-08T12:00:00	7	Dirección del viento	0
70679	7	Sololá	717	San Juan la Laguna	12	San Juan la Laguna	8	Agosto	2023-10-08T00:00:00	2024-11-08T12:00:00	1	Precipitación	0
70680	7	Sololá	717	San Juan la Laguna	12	San Juan la Laguna	8	Agosto	2023-10-08T00:00:00	2024-11-08T12:00:00	8	Radiación solar	930
70681	7	Sololá	717	San Juan la Laguna	12	San Juan la Laguna	8	Agosto	2023-10-08T00:00:00	2024-11-08T13:00:00	2	Temperatura media	24.1
70682	7	Sololá	717	San Juan la Laguna	12	San Juan la Laguna	8	Agosto	2023-10-08T00:00:00	2024-11-08T13:00:00	4	Temperatura máxima	26.9
70683	7	Sololá	717	San Juan la Laguna	12	San Juan la Laguna	8	Agosto	2023-10-08T00:00:00	2024-11-08T13:00:00	3	Temperatura mínima	24.1
70684	7	Sololá	717	San Juan la Laguna	12	San Juan la Laguna	8	Agosto	2023-10-08T00:00:00	2024-11-08T13:00:00	5	Humedad	72
70685	7	Sololá	717	San Juan la Laguna	12	San Juan la Laguna	8	Agosto	2023-10-08T00:00:00	2024-11-08T13:00:00	6	Velocidad del viento	1.6
70686	7	Sololá	717	San Juan la Laguna	12	San Juan la Laguna	8	Agosto	2023-10-08T00:00:00	2024-11-08T13:00:00	7	Dirección del viento	1.61
70687	7	Sololá	717	San Juan la Laguna	12	San Juan la Laguna	8	Agosto	2023-10-08T00:00:00	2024-11-08T13:00:00	1	Precipitación	0
70688	7	Sololá	717	San Juan la Laguna	12	San Juan la Laguna	8	Agosto	2023-10-08T00:00:00	2024-11-08T13:00:00	8	Radiación solar	576
70689	7	Sololá	717	San Juan la Laguna	12	San Juan la Laguna	8	Agosto	2023-10-08T00:00:00	2024-11-08T14:00:00	2	Temperatura media	24
70690	7	Sololá	717	San Juan la Laguna	12	San Juan la Laguna	8	Agosto	2023-10-08T00:00:00	2024-11-08T14:00:00	4	Temperatura máxima	24.1
70691	7	Sololá	717	San Juan la Laguna	12	San Juan la Laguna	8	Agosto	2023-10-08T00:00:00	2024-11-08T14:00:00	3	Temperatura mínima	23.7
70692	7	Sololá	717	San Juan la Laguna	12	San Juan la Laguna	8	Agosto	2023-10-08T00:00:00	2024-11-08T14:00:00	5	Humedad	72
70693	7	Sololá	717	San Juan la Laguna	12	San Juan la Laguna	8	Agosto	2023-10-08T00:00:00	2024-11-08T14:00:00	6	Velocidad del viento	0
70694	7	Sololá	717	San Juan la Laguna	12	San Juan la Laguna	8	Agosto	2023-10-08T00:00:00	2024-11-08T14:00:00	7	Dirección del viento	0
70695	7	Sololá	717	San Juan la Laguna	12	San Juan la Laguna	8	Agosto	2023-10-08T00:00:00	2024-11-08T14:00:00	1	Precipitación	0
70696	7	Sololá	717	San Juan la Laguna	12	San Juan la Laguna	8	Agosto	2023-10-08T00:00:00	2024-11-08T14:00:00	8	Radiación solar	322
70697	7	Sololá	717	San Juan la Laguna	12	San Juan la Laguna	8	Agosto	2023-10-08T00:00:00	2024-11-08T15:00:00	2	Temperatura media	23.5
70698	7	Sololá	717	San Juan la Laguna	12	San Juan la Laguna	8	Agosto	2023-10-08T00:00:00	2024-11-08T15:00:00	4	Temperatura máxima	24.3
70699	7	Sololá	717	San Juan la Laguna	12	San Juan la Laguna	8	Agosto	2023-10-08T00:00:00	2024-11-08T15:00:00	3	Temperatura mínima	23.5
70700	7	Sololá	717	San Juan la Laguna	12	San Juan la Laguna	8	Agosto	2023-10-08T00:00:00	2024-11-08T15:00:00	5	Humedad	77
70701	7	Sololá	717	San Juan la Laguna	12	San Juan la Laguna	8	Agosto	2023-10-08T00:00:00	2024-11-08T15:00:00	6	Velocidad del viento	1.6
70702	7	Sololá	717	San Juan la Laguna	12	San Juan la Laguna	8	Agosto	2023-10-08T00:00:00	2024-11-08T15:00:00	7	Dirección del viento	1.61
70703	7	Sololá	717	San Juan la Laguna	12	San Juan la Laguna	8	Agosto	2023-10-08T00:00:00	2024-11-08T15:00:00	1	Precipitación	0
70704	7	Sololá	717	San Juan la Laguna	12	San Juan la Laguna	8	Agosto	2023-10-08T00:00:00	2024-11-08T15:00:00	8	Radiación solar	335
70705	7	Sololá	717	San Juan la Laguna	12	San Juan la Laguna	8	Agosto	2023-10-08T00:00:00	2024-11-08T16:00:00	2	Temperatura media	22.9
70706	7	Sololá	717	San Juan la Laguna	12	San Juan la Laguna	8	Agosto	2023-10-08T00:00:00	2024-11-08T16:00:00	4	Temperatura máxima	23.6
70707	7	Sololá	717	San Juan la Laguna	12	San Juan la Laguna	8	Agosto	2023-10-08T00:00:00	2024-11-08T16:00:00	3	Temperatura mínima	22.7
70708	7	Sololá	717	San Juan la Laguna	12	San Juan la Laguna	8	Agosto	2023-10-08T00:00:00	2024-11-08T16:00:00	5	Humedad	78
70709	7	Sololá	717	San Juan la Laguna	12	San Juan la Laguna	8	Agosto	2023-10-08T00:00:00	2024-11-08T16:00:00	6	Velocidad del viento	3.2
70710	7	Sololá	717	San Juan la Laguna	12	San Juan la Laguna	8	Agosto	2023-10-08T00:00:00	2024-11-08T16:00:00	7	Dirección del viento	3.22
70711	7	Sololá	717	San Juan la Laguna	12	San Juan la Laguna	8	Agosto	2023-10-08T00:00:00	2024-11-08T16:00:00	1	Precipitación	0
70712	7	Sololá	717	San Juan la Laguna	12	San Juan la Laguna	8	Agosto	2023-10-08T00:00:00	2024-11-08T16:00:00	8	Radiación solar	209
70713	7	Sololá	717	San Juan la Laguna	12	San Juan la Laguna	8	Agosto	2023-10-08T00:00:00	2024-11-08T17:00:00	2	Temperatura media	22.8
70714	7	Sololá	717	San Juan la Laguna	12	San Juan la Laguna	8	Agosto	2023-10-08T00:00:00	2024-11-08T17:00:00	4	Temperatura máxima	22.9
70715	7	Sololá	717	San Juan la Laguna	12	San Juan la Laguna	8	Agosto	2023-10-08T00:00:00	2024-11-08T17:00:00	3	Temperatura mínima	22.6
70716	7	Sololá	717	San Juan la Laguna	12	San Juan la Laguna	8	Agosto	2023-10-08T00:00:00	2024-11-08T17:00:00	5	Humedad	80
70717	7	Sololá	717	San Juan la Laguna	12	San Juan la Laguna	8	Agosto	2023-10-08T00:00:00	2024-11-08T17:00:00	6	Velocidad del viento	0
70718	7	Sololá	717	San Juan la Laguna	12	San Juan la Laguna	8	Agosto	2023-10-08T00:00:00	2024-11-08T17:00:00	7	Dirección del viento	0
70719	7	Sololá	717	San Juan la Laguna	12	San Juan la Laguna	8	Agosto	2023-10-08T00:00:00	2024-11-08T17:00:00	1	Precipitación	0
70720	7	Sololá	717	San Juan la Laguna	12	San Juan la Laguna	8	Agosto	2023-10-08T00:00:00	2024-11-08T17:00:00	8	Radiación solar	181
70721	7	Sololá	717	San Juan la Laguna	12	San Juan la Laguna	8	Agosto	2023-10-08T00:00:00	2024-11-08T18:00:00	2	Temperatura media	22.7
70722	7	Sololá	717	San Juan la Laguna	12	San Juan la Laguna	8	Agosto	2023-10-08T00:00:00	2024-11-08T18:00:00	4	Temperatura máxima	22.9
70723	7	Sololá	717	San Juan la Laguna	12	San Juan la Laguna	8	Agosto	2023-10-08T00:00:00	2024-11-08T18:00:00	3	Temperatura mínima	22.7
70724	7	Sololá	717	San Juan la Laguna	12	San Juan la Laguna	8	Agosto	2023-10-08T00:00:00	2024-11-08T18:00:00	5	Humedad	75
70725	7	Sololá	717	San Juan la Laguna	12	San Juan la Laguna	8	Agosto	2023-10-08T00:00:00	2024-11-08T18:00:00	6	Velocidad del viento	0
70726	7	Sololá	717	San Juan la Laguna	12	San Juan la Laguna	8	Agosto	2023-10-08T00:00:00	2024-11-08T18:00:00	7	Dirección del viento	0
70727	7	Sololá	717	San Juan la Laguna	12	San Juan la Laguna	8	Agosto	2023-10-08T00:00:00	2024-11-08T18:00:00	1	Precipitación	0
70728	7	Sololá	717	San Juan la Laguna	12	San Juan la Laguna	8	Agosto	2023-10-08T00:00:00	2024-11-08T18:00:00	8	Radiación solar	100
70729	7	Sololá	717	San Juan la Laguna	12	San Juan la Laguna	8	Agosto	2023-10-08T00:00:00	2024-11-08T19:00:00	2	Temperatura media	21.1
70730	7	Sololá	717	San Juan la Laguna	12	San Juan la Laguna	8	Agosto	2023-10-08T00:00:00	2024-11-08T19:00:00	4	Temperatura máxima	22.7
70731	7	Sololá	717	San Juan la Laguna	12	San Juan la Laguna	8	Agosto	2023-10-08T00:00:00	2024-11-08T19:00:00	3	Temperatura mínima	21.1
70732	7	Sololá	717	San Juan la Laguna	12	San Juan la Laguna	8	Agosto	2023-10-08T00:00:00	2024-11-08T19:00:00	5	Humedad	82
70733	7	Sololá	717	San Juan la Laguna	12	San Juan la Laguna	8	Agosto	2023-10-08T00:00:00	2024-11-08T19:00:00	6	Velocidad del viento	0
70734	7	Sololá	717	San Juan la Laguna	12	San Juan la Laguna	8	Agosto	2023-10-08T00:00:00	2024-11-08T19:00:00	7	Dirección del viento	0
70735	7	Sololá	717	San Juan la Laguna	12	San Juan la Laguna	8	Agosto	2023-10-08T00:00:00	2024-11-08T19:00:00	1	Precipitación	0
70736	7	Sololá	717	San Juan la Laguna	12	San Juan la Laguna	8	Agosto	2023-10-08T00:00:00	2024-11-08T19:00:00	8	Radiación solar	0
70737	7	Sololá	717	San Juan la Laguna	12	San Juan la Laguna	8	Agosto	2023-10-08T00:00:00	2024-11-08T20:00:00	2	Temperatura media	20.4
70738	7	Sololá	717	San Juan la Laguna	12	San Juan la Laguna	8	Agosto	2023-10-08T00:00:00	2024-11-08T20:00:00	4	Temperatura máxima	21.1
70739	7	Sololá	717	San Juan la Laguna	12	San Juan la Laguna	8	Agosto	2023-10-08T00:00:00	2024-11-08T20:00:00	3	Temperatura mínima	20.1
70740	7	Sololá	717	San Juan la Laguna	12	San Juan la Laguna	8	Agosto	2023-10-08T00:00:00	2024-11-08T20:00:00	5	Humedad	78
70741	7	Sololá	717	San Juan la Laguna	12	San Juan la Laguna	8	Agosto	2023-10-08T00:00:00	2024-11-08T20:00:00	6	Velocidad del viento	0
70742	7	Sololá	717	San Juan la Laguna	12	San Juan la Laguna	8	Agosto	2023-10-08T00:00:00	2024-11-08T20:00:00	7	Dirección del viento	0
70743	7	Sololá	717	San Juan la Laguna	12	San Juan la Laguna	8	Agosto	2023-10-08T00:00:00	2024-11-08T20:00:00	1	Precipitación	0
70744	7	Sololá	717	San Juan la Laguna	12	San Juan la Laguna	8	Agosto	2023-10-08T00:00:00	2024-11-08T20:00:00	8	Radiación solar	0
70745	7	Sololá	717	San Juan la Laguna	12	San Juan la Laguna	8	Agosto	2023-10-08T00:00:00	2024-11-08T21:00:00	2	Temperatura media	19.2
70746	7	Sololá	717	San Juan la Laguna	12	San Juan la Laguna	8	Agosto	2023-10-08T00:00:00	2024-11-08T21:00:00	4	Temperatura máxima	20.3
70747	7	Sololá	717	San Juan la Laguna	12	San Juan la Laguna	8	Agosto	2023-10-08T00:00:00	2024-11-08T21:00:00	3	Temperatura mínima	19.2
70748	7	Sololá	717	San Juan la Laguna	12	San Juan la Laguna	8	Agosto	2023-10-08T00:00:00	2024-11-08T21:00:00	5	Humedad	79
70749	7	Sololá	717	San Juan la Laguna	12	San Juan la Laguna	8	Agosto	2023-10-08T00:00:00	2024-11-08T21:00:00	6	Velocidad del viento	0
70750	7	Sololá	717	San Juan la Laguna	12	San Juan la Laguna	8	Agosto	2023-10-08T00:00:00	2024-11-08T21:00:00	7	Dirección del viento	0
70751	7	Sololá	717	San Juan la Laguna	12	San Juan la Laguna	8	Agosto	2023-10-08T00:00:00	2024-11-08T21:00:00	1	Precipitación	0
70752	7	Sololá	717	San Juan la Laguna	12	San Juan la Laguna	8	Agosto	2023-10-08T00:00:00	2024-11-08T21:00:00	8	Radiación solar	0
70753	7	Sololá	717	San Juan la Laguna	12	San Juan la Laguna	8	Agosto	2023-10-08T00:00:00	2024-11-08T22:00:00	2	Temperatura media	18.1
70754	7	Sololá	717	San Juan la Laguna	12	San Juan la Laguna	8	Agosto	2023-10-08T00:00:00	2024-11-08T22:00:00	4	Temperatura máxima	19.3
70755	7	Sololá	717	San Juan la Laguna	12	San Juan la Laguna	8	Agosto	2023-10-08T00:00:00	2024-11-08T22:00:00	3	Temperatura mínima	18.1
70756	7	Sololá	717	San Juan la Laguna	12	San Juan la Laguna	8	Agosto	2023-10-08T00:00:00	2024-11-08T22:00:00	5	Humedad	85
70757	7	Sololá	717	San Juan la Laguna	12	San Juan la Laguna	8	Agosto	2023-10-08T00:00:00	2024-11-08T22:00:00	6	Velocidad del viento	0
70758	7	Sololá	717	San Juan la Laguna	12	San Juan la Laguna	8	Agosto	2023-10-08T00:00:00	2024-11-08T22:00:00	7	Dirección del viento	0
70759	7	Sololá	717	San Juan la Laguna	12	San Juan la Laguna	8	Agosto	2023-10-08T00:00:00	2024-11-08T22:00:00	1	Precipitación	0
70760	7	Sololá	717	San Juan la Laguna	12	San Juan la Laguna	8	Agosto	2023-10-08T00:00:00	2024-11-08T22:00:00	8	Radiación solar	0
70761	7	Sololá	717	San Juan la Laguna	12	San Juan la Laguna	8	Agosto	2023-10-08T00:00:00	2024-11-08T23:00:00	2	Temperatura media	17.9
70762	7	Sololá	717	San Juan la Laguna	12	San Juan la Laguna	8	Agosto	2023-10-08T00:00:00	2024-11-08T23:00:00	4	Temperatura máxima	18.1
70763	7	Sololá	717	San Juan la Laguna	12	San Juan la Laguna	8	Agosto	2023-10-08T00:00:00	2024-11-08T23:00:00	3	Temperatura mínima	17.6
70764	7	Sololá	717	San Juan la Laguna	12	San Juan la Laguna	8	Agosto	2023-10-08T00:00:00	2024-11-08T23:00:00	5	Humedad	86
70765	7	Sololá	717	San Juan la Laguna	12	San Juan la Laguna	8	Agosto	2023-10-08T00:00:00	2024-11-08T23:00:00	6	Velocidad del viento	1.6
70766	7	Sololá	717	San Juan la Laguna	12	San Juan la Laguna	8	Agosto	2023-10-08T00:00:00	2024-11-08T23:00:00	7	Dirección del viento	1.61
70767	7	Sololá	717	San Juan la Laguna	12	San Juan la Laguna	8	Agosto	2023-10-08T00:00:00	2024-11-08T23:00:00	1	Precipitación	0
70768	7	Sololá	717	San Juan la Laguna	12	San Juan la Laguna	8	Agosto	2023-10-08T00:00:00	2024-11-08T23:00:00	8	Radiación solar	0
70769	7	Sololá	717	San Juan la Laguna	12	San Juan la Laguna	8	Agosto	2023-11-08T00:00:00	2024-11-08T00:00:00	2	Temperatura media	17.2
70770	7	Sololá	717	San Juan la Laguna	12	San Juan la Laguna	8	Agosto	2023-11-08T00:00:00	2024-11-08T00:00:00	4	Temperatura máxima	17.9
70771	7	Sololá	717	San Juan la Laguna	12	San Juan la Laguna	8	Agosto	2023-11-08T00:00:00	2024-11-08T00:00:00	3	Temperatura mínima	17.2
70772	7	Sololá	717	San Juan la Laguna	12	San Juan la Laguna	8	Agosto	2023-11-08T00:00:00	2024-11-08T00:00:00	5	Humedad	89
70773	7	Sololá	717	San Juan la Laguna	12	San Juan la Laguna	8	Agosto	2023-11-08T00:00:00	2024-11-08T00:00:00	6	Velocidad del viento	1.6
70774	7	Sololá	717	San Juan la Laguna	12	San Juan la Laguna	8	Agosto	2023-11-08T00:00:00	2024-11-08T00:00:00	7	Dirección del viento	1.61
70775	7	Sololá	717	San Juan la Laguna	12	San Juan la Laguna	8	Agosto	2023-11-08T00:00:00	2024-11-08T00:00:00	1	Precipitación	0
70776	7	Sololá	717	San Juan la Laguna	12	San Juan la Laguna	8	Agosto	2023-11-08T00:00:00	2024-11-08T00:00:00	8	Radiación solar	0
70777	7	Sololá	717	San Juan la Laguna	12	San Juan la Laguna	8	Agosto	2023-11-08T00:00:00	2024-11-08T01:00:00	2	Temperatura media	17.8
70778	7	Sololá	717	San Juan la Laguna	12	San Juan la Laguna	8	Agosto	2023-11-08T00:00:00	2024-11-08T01:00:00	4	Temperatura máxima	17.9
70779	7	Sololá	717	San Juan la Laguna	12	San Juan la Laguna	8	Agosto	2023-11-08T00:00:00	2024-11-08T01:00:00	3	Temperatura mínima	17.1
70780	7	Sololá	717	San Juan la Laguna	12	San Juan la Laguna	8	Agosto	2023-11-08T00:00:00	2024-11-08T01:00:00	5	Humedad	86
70781	7	Sololá	717	San Juan la Laguna	12	San Juan la Laguna	8	Agosto	2023-11-08T00:00:00	2024-11-08T01:00:00	6	Velocidad del viento	3.2
70782	7	Sololá	717	San Juan la Laguna	12	San Juan la Laguna	8	Agosto	2023-11-08T00:00:00	2024-11-08T01:00:00	7	Dirección del viento	3.22
70783	7	Sololá	717	San Juan la Laguna	12	San Juan la Laguna	8	Agosto	2023-11-08T00:00:00	2024-11-08T01:00:00	1	Precipitación	0
70784	7	Sololá	717	San Juan la Laguna	12	San Juan la Laguna	8	Agosto	2023-11-08T00:00:00	2024-11-08T01:00:00	8	Radiación solar	0
70785	7	Sololá	717	San Juan la Laguna	12	San Juan la Laguna	8	Agosto	2023-11-08T00:00:00	2024-11-08T02:00:00	2	Temperatura media	17.2
70786	7	Sololá	717	San Juan la Laguna	12	San Juan la Laguna	8	Agosto	2023-11-08T00:00:00	2024-11-08T02:00:00	4	Temperatura máxima	17.8
70787	7	Sololá	717	San Juan la Laguna	12	San Juan la Laguna	8	Agosto	2023-11-08T00:00:00	2024-11-08T02:00:00	3	Temperatura mínima	17.2
70788	7	Sololá	717	San Juan la Laguna	12	San Juan la Laguna	8	Agosto	2023-11-08T00:00:00	2024-11-08T02:00:00	5	Humedad	85
70789	7	Sololá	717	San Juan la Laguna	12	San Juan la Laguna	8	Agosto	2023-11-08T00:00:00	2024-11-08T02:00:00	6	Velocidad del viento	3.2
70790	7	Sololá	717	San Juan la Laguna	12	San Juan la Laguna	8	Agosto	2023-11-08T00:00:00	2024-11-08T02:00:00	7	Dirección del viento	3.22
70791	7	Sololá	717	San Juan la Laguna	12	San Juan la Laguna	8	Agosto	2023-11-08T00:00:00	2024-11-08T02:00:00	1	Precipitación	0
70792	7	Sololá	717	San Juan la Laguna	12	San Juan la Laguna	8	Agosto	2023-11-08T00:00:00	2024-11-08T02:00:00	8	Radiación solar	0
70793	7	Sololá	717	San Juan la Laguna	12	San Juan la Laguna	8	Agosto	2023-11-08T00:00:00	2024-11-08T03:00:00	2	Temperatura media	16.2
70794	7	Sololá	717	San Juan la Laguna	12	San Juan la Laguna	8	Agosto	2023-11-08T00:00:00	2024-11-08T03:00:00	4	Temperatura máxima	17.2
70795	7	Sololá	717	San Juan la Laguna	12	San Juan la Laguna	8	Agosto	2023-11-08T00:00:00	2024-11-08T03:00:00	3	Temperatura mínima	16.2
70796	7	Sololá	717	San Juan la Laguna	12	San Juan la Laguna	8	Agosto	2023-11-08T00:00:00	2024-11-08T03:00:00	5	Humedad	85
70797	7	Sololá	717	San Juan la Laguna	12	San Juan la Laguna	8	Agosto	2023-11-08T00:00:00	2024-11-08T03:00:00	6	Velocidad del viento	1.6
70798	7	Sololá	717	San Juan la Laguna	12	San Juan la Laguna	8	Agosto	2023-11-08T00:00:00	2024-11-08T03:00:00	7	Dirección del viento	1.61
70799	7	Sololá	717	San Juan la Laguna	12	San Juan la Laguna	8	Agosto	2023-11-08T00:00:00	2024-11-08T03:00:00	1	Precipitación	0
70800	7	Sololá	717	San Juan la Laguna	12	San Juan la Laguna	8	Agosto	2023-11-08T00:00:00	2024-11-08T03:00:00	8	Radiación solar	0
70801	7	Sololá	717	San Juan la Laguna	12	San Juan la Laguna	8	Agosto	2023-11-08T00:00:00	2024-11-08T04:00:00	2	Temperatura media	16.2
70802	7	Sololá	717	San Juan la Laguna	12	San Juan la Laguna	8	Agosto	2023-11-08T00:00:00	2024-11-08T04:00:00	4	Temperatura máxima	16.7
70803	7	Sololá	717	San Juan la Laguna	12	San Juan la Laguna	8	Agosto	2023-11-08T00:00:00	2024-11-08T04:00:00	3	Temperatura mínima	16.2
70804	7	Sololá	717	San Juan la Laguna	12	San Juan la Laguna	8	Agosto	2023-11-08T00:00:00	2024-11-08T04:00:00	5	Humedad	83
70805	7	Sololá	717	San Juan la Laguna	12	San Juan la Laguna	8	Agosto	2023-11-08T00:00:00	2024-11-08T04:00:00	6	Velocidad del viento	1.6
70806	7	Sololá	717	San Juan la Laguna	12	San Juan la Laguna	8	Agosto	2023-11-08T00:00:00	2024-11-08T04:00:00	7	Dirección del viento	1.61
70807	7	Sololá	717	San Juan la Laguna	12	San Juan la Laguna	8	Agosto	2023-11-08T00:00:00	2024-11-08T04:00:00	1	Precipitación	0
70808	7	Sololá	717	San Juan la Laguna	12	San Juan la Laguna	8	Agosto	2023-11-08T00:00:00	2024-11-08T04:00:00	8	Radiación solar	0
70809	7	Sololá	717	San Juan la Laguna	12	San Juan la Laguna	8	Agosto	2023-11-08T00:00:00	2024-11-08T05:00:00	2	Temperatura media	16
70810	7	Sololá	717	San Juan la Laguna	12	San Juan la Laguna	8	Agosto	2023-11-08T00:00:00	2024-11-08T05:00:00	4	Temperatura máxima	16.3
70811	7	Sololá	717	San Juan la Laguna	12	San Juan la Laguna	8	Agosto	2023-11-08T00:00:00	2024-11-08T05:00:00	3	Temperatura mínima	15.9
70812	7	Sololá	717	San Juan la Laguna	12	San Juan la Laguna	8	Agosto	2023-11-08T00:00:00	2024-11-08T05:00:00	5	Humedad	84
70813	7	Sololá	717	San Juan la Laguna	12	San Juan la Laguna	8	Agosto	2023-11-08T00:00:00	2024-11-08T05:00:00	6	Velocidad del viento	1.6
70814	7	Sololá	717	San Juan la Laguna	12	San Juan la Laguna	8	Agosto	2023-11-08T00:00:00	2024-11-08T05:00:00	7	Dirección del viento	1.61
70815	7	Sololá	717	San Juan la Laguna	12	San Juan la Laguna	8	Agosto	2023-11-08T00:00:00	2024-11-08T05:00:00	1	Precipitación	0
70816	7	Sololá	717	San Juan la Laguna	12	San Juan la Laguna	8	Agosto	2023-11-08T00:00:00	2024-11-08T05:00:00	8	Radiación solar	0
70817	7	Sololá	717	San Juan la Laguna	12	San Juan la Laguna	8	Agosto	2023-11-08T00:00:00	2024-11-08T06:00:00	2	Temperatura media	15.7
70818	7	Sololá	717	San Juan la Laguna	12	San Juan la Laguna	8	Agosto	2023-11-08T00:00:00	2024-11-08T06:00:00	4	Temperatura máxima	16
70819	7	Sololá	717	San Juan la Laguna	12	San Juan la Laguna	8	Agosto	2023-11-08T00:00:00	2024-11-08T06:00:00	3	Temperatura mínima	15.4
70820	7	Sololá	717	San Juan la Laguna	12	San Juan la Laguna	8	Agosto	2023-11-08T00:00:00	2024-11-08T06:00:00	5	Humedad	85
70821	7	Sololá	717	San Juan la Laguna	12	San Juan la Laguna	8	Agosto	2023-11-08T00:00:00	2024-11-08T06:00:00	6	Velocidad del viento	1.6
70822	7	Sololá	717	San Juan la Laguna	12	San Juan la Laguna	8	Agosto	2023-11-08T00:00:00	2024-11-08T06:00:00	7	Dirección del viento	1.61
70823	7	Sololá	717	San Juan la Laguna	12	San Juan la Laguna	8	Agosto	2023-11-08T00:00:00	2024-11-08T06:00:00	1	Precipitación	0
70824	7	Sololá	717	San Juan la Laguna	12	San Juan la Laguna	8	Agosto	2023-11-08T00:00:00	2024-11-08T06:00:00	8	Radiación solar	1
70825	7	Sololá	717	San Juan la Laguna	12	San Juan la Laguna	8	Agosto	2023-11-08T00:00:00	2024-11-08T07:00:00	2	Temperatura media	17.7
70826	7	Sololá	717	San Juan la Laguna	12	San Juan la Laguna	8	Agosto	2023-11-08T00:00:00	2024-11-08T07:00:00	4	Temperatura máxima	17.7
70827	7	Sololá	717	San Juan la Laguna	12	San Juan la Laguna	8	Agosto	2023-11-08T00:00:00	2024-11-08T07:00:00	3	Temperatura mínima	15.6
70828	7	Sololá	717	San Juan la Laguna	12	San Juan la Laguna	8	Agosto	2023-11-08T00:00:00	2024-11-08T07:00:00	5	Humedad	80
70829	7	Sololá	717	San Juan la Laguna	12	San Juan la Laguna	8	Agosto	2023-11-08T00:00:00	2024-11-08T07:00:00	6	Velocidad del viento	0
70830	7	Sololá	717	San Juan la Laguna	12	San Juan la Laguna	8	Agosto	2023-11-08T00:00:00	2024-11-08T07:00:00	7	Dirección del viento	0
70831	7	Sololá	717	San Juan la Laguna	12	San Juan la Laguna	8	Agosto	2023-11-08T00:00:00	2024-11-08T07:00:00	1	Precipitación	0
70832	7	Sololá	717	San Juan la Laguna	12	San Juan la Laguna	8	Agosto	2023-11-08T00:00:00	2024-11-08T07:00:00	8	Radiación solar	77
70833	7	Sololá	717	San Juan la Laguna	12	San Juan la Laguna	8	Agosto	2023-11-08T00:00:00	2024-11-08T08:00:00	2	Temperatura media	21.6
70834	7	Sololá	717	San Juan la Laguna	12	San Juan la Laguna	8	Agosto	2023-11-08T00:00:00	2024-11-08T08:00:00	4	Temperatura máxima	21.6
70835	7	Sololá	717	San Juan la Laguna	12	San Juan la Laguna	8	Agosto	2023-11-08T00:00:00	2024-11-08T08:00:00	3	Temperatura mínima	17.8
70836	7	Sololá	717	San Juan la Laguna	12	San Juan la Laguna	8	Agosto	2023-11-08T00:00:00	2024-11-08T08:00:00	5	Humedad	75
70837	7	Sololá	717	San Juan la Laguna	12	San Juan la Laguna	8	Agosto	2023-11-08T00:00:00	2024-11-08T08:00:00	6	Velocidad del viento	0
70838	7	Sololá	717	San Juan la Laguna	12	San Juan la Laguna	8	Agosto	2023-11-08T00:00:00	2024-11-08T08:00:00	7	Dirección del viento	0
70839	7	Sololá	717	San Juan la Laguna	12	San Juan la Laguna	8	Agosto	2023-11-08T00:00:00	2024-11-08T08:00:00	1	Precipitación	0
70840	7	Sololá	717	San Juan la Laguna	12	San Juan la Laguna	8	Agosto	2023-11-08T00:00:00	2024-11-08T08:00:00	8	Radiación solar	310
70841	7	Sololá	717	San Juan la Laguna	12	San Juan la Laguna	8	Agosto	2023-11-08T00:00:00	2024-11-08T09:00:00	2	Temperatura media	21.8
70842	7	Sololá	717	San Juan la Laguna	12	San Juan la Laguna	8	Agosto	2023-11-08T00:00:00	2024-11-08T09:00:00	4	Temperatura máxima	22.4
70843	7	Sololá	717	San Juan la Laguna	12	San Juan la Laguna	8	Agosto	2023-11-08T00:00:00	2024-11-08T09:00:00	3	Temperatura mínima	21.3
70844	7	Sololá	717	San Juan la Laguna	12	San Juan la Laguna	8	Agosto	2023-11-08T00:00:00	2024-11-08T09:00:00	5	Humedad	76
70845	7	Sololá	717	San Juan la Laguna	12	San Juan la Laguna	8	Agosto	2023-11-08T00:00:00	2024-11-08T09:00:00	6	Velocidad del viento	0
70846	7	Sololá	717	San Juan la Laguna	12	San Juan la Laguna	8	Agosto	2023-11-08T00:00:00	2024-11-08T09:00:00	7	Dirección del viento	0
70847	7	Sololá	717	San Juan la Laguna	12	San Juan la Laguna	8	Agosto	2023-11-08T00:00:00	2024-11-08T09:00:00	1	Precipitación	0
70848	7	Sololá	717	San Juan la Laguna	12	San Juan la Laguna	8	Agosto	2023-11-08T00:00:00	2024-11-08T09:00:00	8	Radiación solar	381
70849	7	Sololá	717	San Juan la Laguna	12	San Juan la Laguna	8	Agosto	2023-11-08T00:00:00	2024-11-08T10:00:00	2	Temperatura media	22.6
70850	7	Sololá	717	San Juan la Laguna	12	San Juan la Laguna	8	Agosto	2023-11-08T00:00:00	2024-11-08T10:00:00	4	Temperatura máxima	22.6
70851	7	Sololá	717	San Juan la Laguna	12	San Juan la Laguna	8	Agosto	2023-11-08T00:00:00	2024-11-08T10:00:00	3	Temperatura mínima	21.7
70852	7	Sololá	717	San Juan la Laguna	12	San Juan la Laguna	8	Agosto	2023-11-08T00:00:00	2024-11-08T10:00:00	5	Humedad	73
70853	7	Sololá	717	San Juan la Laguna	12	San Juan la Laguna	8	Agosto	2023-11-08T00:00:00	2024-11-08T10:00:00	6	Velocidad del viento	0
70854	7	Sololá	717	San Juan la Laguna	12	San Juan la Laguna	8	Agosto	2023-11-08T00:00:00	2024-11-08T10:00:00	7	Dirección del viento	0
70855	7	Sololá	717	San Juan la Laguna	12	San Juan la Laguna	8	Agosto	2023-11-08T00:00:00	2024-11-08T10:00:00	1	Precipitación	0
70856	7	Sololá	717	San Juan la Laguna	12	San Juan la Laguna	8	Agosto	2023-11-08T00:00:00	2024-11-08T10:00:00	8	Radiación solar	414
70857	7	Sololá	717	San Juan la Laguna	12	San Juan la Laguna	8	Agosto	2023-11-08T00:00:00	2024-11-08T11:00:00	2	Temperatura media	23.8
70858	7	Sololá	717	San Juan la Laguna	12	San Juan la Laguna	8	Agosto	2023-11-08T00:00:00	2024-11-08T11:00:00	4	Temperatura máxima	23.8
70859	7	Sololá	717	San Juan la Laguna	12	San Juan la Laguna	8	Agosto	2023-11-08T00:00:00	2024-11-08T11:00:00	3	Temperatura mínima	22.6
70860	7	Sololá	717	San Juan la Laguna	12	San Juan la Laguna	8	Agosto	2023-11-08T00:00:00	2024-11-08T11:00:00	5	Humedad	65
70861	7	Sololá	717	San Juan la Laguna	12	San Juan la Laguna	8	Agosto	2023-11-08T00:00:00	2024-11-08T11:00:00	6	Velocidad del viento	0
70862	7	Sololá	717	San Juan la Laguna	12	San Juan la Laguna	8	Agosto	2023-11-08T00:00:00	2024-11-08T11:00:00	7	Dirección del viento	0
70863	7	Sololá	717	San Juan la Laguna	12	San Juan la Laguna	8	Agosto	2023-11-08T00:00:00	2024-11-08T11:00:00	1	Precipitación	0
70864	7	Sololá	717	San Juan la Laguna	12	San Juan la Laguna	8	Agosto	2023-11-08T00:00:00	2024-11-08T11:00:00	8	Radiación solar	541
70865	7	Sololá	717	San Juan la Laguna	12	San Juan la Laguna	8	Agosto	2023-11-08T00:00:00	2024-11-08T12:00:00	2	Temperatura media	24.1
70866	7	Sololá	717	San Juan la Laguna	12	San Juan la Laguna	8	Agosto	2023-11-08T00:00:00	2024-11-08T12:00:00	4	Temperatura máxima	24.6
70867	7	Sololá	717	San Juan la Laguna	12	San Juan la Laguna	8	Agosto	2023-11-08T00:00:00	2024-11-08T12:00:00	3	Temperatura mínima	23.8
70868	7	Sololá	717	San Juan la Laguna	12	San Juan la Laguna	8	Agosto	2023-11-08T00:00:00	2024-11-08T12:00:00	5	Humedad	64
70869	7	Sololá	717	San Juan la Laguna	12	San Juan la Laguna	8	Agosto	2023-11-08T00:00:00	2024-11-08T12:00:00	6	Velocidad del viento	0
70870	7	Sololá	717	San Juan la Laguna	12	San Juan la Laguna	8	Agosto	2023-11-08T00:00:00	2024-11-08T12:00:00	7	Dirección del viento	0
70871	7	Sololá	717	San Juan la Laguna	12	San Juan la Laguna	8	Agosto	2023-11-08T00:00:00	2024-11-08T12:00:00	1	Precipitación	0
70872	7	Sololá	717	San Juan la Laguna	12	San Juan la Laguna	8	Agosto	2023-11-08T00:00:00	2024-11-08T12:00:00	8	Radiación solar	700
70873	7	Sololá	717	San Juan la Laguna	12	San Juan la Laguna	8	Agosto	2023-11-08T00:00:00	2024-11-08T13:00:00	2	Temperatura media	25.2
70874	7	Sololá	717	San Juan la Laguna	12	San Juan la Laguna	8	Agosto	2023-11-08T00:00:00	2024-11-08T13:00:00	4	Temperatura máxima	25.2
70875	7	Sololá	717	San Juan la Laguna	12	San Juan la Laguna	8	Agosto	2023-11-08T00:00:00	2024-11-08T13:00:00	3	Temperatura mínima	24.1
70876	7	Sololá	717	San Juan la Laguna	12	San Juan la Laguna	8	Agosto	2023-11-08T00:00:00	2024-11-08T13:00:00	5	Humedad	63
70877	7	Sololá	717	San Juan la Laguna	12	San Juan la Laguna	8	Agosto	2023-11-08T00:00:00	2024-11-08T13:00:00	6	Velocidad del viento	0
70878	7	Sololá	717	San Juan la Laguna	12	San Juan la Laguna	8	Agosto	2023-11-08T00:00:00	2024-11-08T13:00:00	7	Dirección del viento	0
70879	7	Sololá	717	San Juan la Laguna	12	San Juan la Laguna	8	Agosto	2023-11-08T00:00:00	2024-11-08T13:00:00	1	Precipitación	0
70880	7	Sololá	717	San Juan la Laguna	12	San Juan la Laguna	8	Agosto	2023-11-08T00:00:00	2024-11-08T13:00:00	8	Radiación solar	662
70881	7	Sololá	717	San Juan la Laguna	12	San Juan la Laguna	8	Agosto	2023-11-08T00:00:00	2024-11-08T14:00:00	2	Temperatura media	24.8
70882	7	Sololá	717	San Juan la Laguna	12	San Juan la Laguna	8	Agosto	2023-11-08T00:00:00	2024-11-08T14:00:00	4	Temperatura máxima	25.6
70883	7	Sololá	717	San Juan la Laguna	12	San Juan la Laguna	8	Agosto	2023-11-08T00:00:00	2024-11-08T14:00:00	3	Temperatura mínima	24.7
70884	7	Sololá	717	San Juan la Laguna	12	San Juan la Laguna	8	Agosto	2023-11-08T00:00:00	2024-11-08T14:00:00	5	Humedad	66
70885	7	Sololá	717	San Juan la Laguna	12	San Juan la Laguna	8	Agosto	2023-11-08T00:00:00	2024-11-08T14:00:00	6	Velocidad del viento	0
70886	7	Sololá	717	San Juan la Laguna	12	San Juan la Laguna	8	Agosto	2023-11-08T00:00:00	2024-11-08T14:00:00	7	Dirección del viento	0
70887	7	Sololá	717	San Juan la Laguna	12	San Juan la Laguna	8	Agosto	2023-11-08T00:00:00	2024-11-08T14:00:00	1	Precipitación	0
70888	7	Sololá	717	San Juan la Laguna	12	San Juan la Laguna	8	Agosto	2023-11-08T00:00:00	2024-11-08T14:00:00	8	Radiación solar	806
70889	7	Sololá	717	San Juan la Laguna	12	San Juan la Laguna	8	Agosto	2023-11-08T00:00:00	2024-11-08T15:00:00	2	Temperatura media	25.2
70890	7	Sololá	717	San Juan la Laguna	12	San Juan la Laguna	8	Agosto	2023-11-08T00:00:00	2024-11-08T15:00:00	4	Temperatura máxima	25.7
70891	7	Sololá	717	San Juan la Laguna	12	San Juan la Laguna	8	Agosto	2023-11-08T00:00:00	2024-11-08T15:00:00	3	Temperatura mínima	24.7
70892	7	Sololá	717	San Juan la Laguna	12	San Juan la Laguna	8	Agosto	2023-11-08T00:00:00	2024-11-08T15:00:00	5	Humedad	68
70893	7	Sololá	717	San Juan la Laguna	12	San Juan la Laguna	8	Agosto	2023-11-08T00:00:00	2024-11-08T15:00:00	6	Velocidad del viento	1.6
70894	7	Sololá	717	San Juan la Laguna	12	San Juan la Laguna	8	Agosto	2023-11-08T00:00:00	2024-11-08T15:00:00	7	Dirección del viento	1.61
70895	7	Sololá	717	San Juan la Laguna	12	San Juan la Laguna	8	Agosto	2023-11-08T00:00:00	2024-11-08T15:00:00	1	Precipitación	0
70896	7	Sololá	717	San Juan la Laguna	12	San Juan la Laguna	8	Agosto	2023-11-08T00:00:00	2024-11-08T15:00:00	8	Radiación solar	693
70897	7	Sololá	717	San Juan la Laguna	12	San Juan la Laguna	8	Agosto	2023-11-08T00:00:00	2024-11-08T16:00:00	2	Temperatura media	24.3
70898	7	Sololá	717	San Juan la Laguna	12	San Juan la Laguna	8	Agosto	2023-11-08T00:00:00	2024-11-08T16:00:00	4	Temperatura máxima	25.3
70899	7	Sololá	717	San Juan la Laguna	12	San Juan la Laguna	8	Agosto	2023-11-08T00:00:00	2024-11-08T16:00:00	3	Temperatura mínima	24
70900	7	Sololá	717	San Juan la Laguna	12	San Juan la Laguna	8	Agosto	2023-11-08T00:00:00	2024-11-08T16:00:00	5	Humedad	70
70901	7	Sololá	717	San Juan la Laguna	12	San Juan la Laguna	8	Agosto	2023-11-08T00:00:00	2024-11-08T16:00:00	6	Velocidad del viento	0
70902	7	Sololá	717	San Juan la Laguna	12	San Juan la Laguna	8	Agosto	2023-11-08T00:00:00	2024-11-08T16:00:00	7	Dirección del viento	0
70903	7	Sololá	717	San Juan la Laguna	12	San Juan la Laguna	8	Agosto	2023-11-08T00:00:00	2024-11-08T16:00:00	1	Precipitación	0
70904	7	Sololá	717	San Juan la Laguna	12	San Juan la Laguna	8	Agosto	2023-11-08T00:00:00	2024-11-08T16:00:00	8	Radiación solar	449
70905	7	Sololá	717	San Juan la Laguna	12	San Juan la Laguna	8	Agosto	2023-11-08T00:00:00	2024-11-08T17:00:00	2	Temperatura media	23.3
70906	7	Sololá	717	San Juan la Laguna	12	San Juan la Laguna	8	Agosto	2023-11-08T00:00:00	2024-11-08T17:00:00	4	Temperatura máxima	24.3
70907	7	Sololá	717	San Juan la Laguna	12	San Juan la Laguna	8	Agosto	2023-11-08T00:00:00	2024-11-08T17:00:00	3	Temperatura mínima	23.3
70908	7	Sololá	717	San Juan la Laguna	12	San Juan la Laguna	8	Agosto	2023-11-08T00:00:00	2024-11-08T17:00:00	5	Humedad	75
70909	7	Sololá	717	San Juan la Laguna	12	San Juan la Laguna	8	Agosto	2023-11-08T00:00:00	2024-11-08T17:00:00	6	Velocidad del viento	0
70910	7	Sololá	717	San Juan la Laguna	12	San Juan la Laguna	8	Agosto	2023-11-08T00:00:00	2024-11-08T17:00:00	7	Dirección del viento	0
70911	7	Sololá	717	San Juan la Laguna	12	San Juan la Laguna	8	Agosto	2023-11-08T00:00:00	2024-11-08T17:00:00	1	Precipitación	0
70912	7	Sololá	717	San Juan la Laguna	12	San Juan la Laguna	8	Agosto	2023-11-08T00:00:00	2024-11-08T17:00:00	8	Radiación solar	190
70913	7	Sololá	717	San Juan la Laguna	12	San Juan la Laguna	8	Agosto	2023-11-08T00:00:00	2024-11-08T18:00:00	2	Temperatura media	22.5
70914	7	Sololá	717	San Juan la Laguna	12	San Juan la Laguna	8	Agosto	2023-11-08T00:00:00	2024-11-08T18:00:00	4	Temperatura máxima	23.3
70915	7	Sololá	717	San Juan la Laguna	12	San Juan la Laguna	8	Agosto	2023-11-08T00:00:00	2024-11-08T18:00:00	3	Temperatura mínima	22.5
70916	7	Sololá	717	San Juan la Laguna	12	San Juan la Laguna	8	Agosto	2023-11-08T00:00:00	2024-11-08T18:00:00	5	Humedad	79
70917	7	Sololá	717	San Juan la Laguna	12	San Juan la Laguna	8	Agosto	2023-11-08T00:00:00	2024-11-08T18:00:00	6	Velocidad del viento	0
70918	7	Sololá	717	San Juan la Laguna	12	San Juan la Laguna	8	Agosto	2023-11-08T00:00:00	2024-11-08T18:00:00	7	Dirección del viento	0
70919	7	Sololá	717	San Juan la Laguna	12	San Juan la Laguna	8	Agosto	2023-11-08T00:00:00	2024-11-08T18:00:00	1	Precipitación	0
70920	7	Sololá	717	San Juan la Laguna	12	San Juan la Laguna	8	Agosto	2023-11-08T00:00:00	2024-11-08T18:00:00	8	Radiación solar	55
70921	7	Sololá	717	San Juan la Laguna	12	San Juan la Laguna	8	Agosto	2023-11-08T00:00:00	2024-11-08T19:00:00	2	Temperatura media	21.6
70922	7	Sololá	717	San Juan la Laguna	12	San Juan la Laguna	8	Agosto	2023-11-08T00:00:00	2024-11-08T19:00:00	4	Temperatura máxima	22.5
70923	7	Sololá	717	San Juan la Laguna	12	San Juan la Laguna	8	Agosto	2023-11-08T00:00:00	2024-11-08T19:00:00	3	Temperatura mínima	21.6
70924	7	Sololá	717	San Juan la Laguna	12	San Juan la Laguna	8	Agosto	2023-11-08T00:00:00	2024-11-08T19:00:00	5	Humedad	84
70925	7	Sololá	717	San Juan la Laguna	12	San Juan la Laguna	8	Agosto	2023-11-08T00:00:00	2024-11-08T19:00:00	6	Velocidad del viento	0
70926	7	Sololá	717	San Juan la Laguna	12	San Juan la Laguna	8	Agosto	2023-11-08T00:00:00	2024-11-08T19:00:00	7	Dirección del viento	0
70927	7	Sololá	717	San Juan la Laguna	12	San Juan la Laguna	8	Agosto	2023-11-08T00:00:00	2024-11-08T19:00:00	1	Precipitación	0
70928	7	Sololá	717	San Juan la Laguna	12	San Juan la Laguna	8	Agosto	2023-11-08T00:00:00	2024-11-08T19:00:00	8	Radiación solar	0
70929	7	Sololá	717	San Juan la Laguna	12	San Juan la Laguna	8	Agosto	2023-11-08T00:00:00	2024-11-08T20:00:00	2	Temperatura media	20.9
70930	7	Sololá	717	San Juan la Laguna	12	San Juan la Laguna	8	Agosto	2023-11-08T00:00:00	2024-11-08T20:00:00	4	Temperatura máxima	21.6
70931	7	Sololá	717	San Juan la Laguna	12	San Juan la Laguna	8	Agosto	2023-11-08T00:00:00	2024-11-08T20:00:00	3	Temperatura mínima	20.8
70932	7	Sololá	717	San Juan la Laguna	12	San Juan la Laguna	8	Agosto	2023-11-08T00:00:00	2024-11-08T20:00:00	5	Humedad	86
70933	7	Sololá	717	San Juan la Laguna	12	San Juan la Laguna	8	Agosto	2023-11-08T00:00:00	2024-11-08T20:00:00	6	Velocidad del viento	0
70934	7	Sololá	717	San Juan la Laguna	12	San Juan la Laguna	8	Agosto	2023-11-08T00:00:00	2024-11-08T20:00:00	7	Dirección del viento	0
70935	7	Sololá	717	San Juan la Laguna	12	San Juan la Laguna	8	Agosto	2023-11-08T00:00:00	2024-11-08T20:00:00	1	Precipitación	0
70936	7	Sololá	717	San Juan la Laguna	12	San Juan la Laguna	8	Agosto	2023-11-08T00:00:00	2024-11-08T20:00:00	8	Radiación solar	0
70937	7	Sololá	717	San Juan la Laguna	12	San Juan la Laguna	8	Agosto	2023-11-08T00:00:00	2024-11-08T21:00:00	2	Temperatura media	20.1
70938	7	Sololá	717	San Juan la Laguna	12	San Juan la Laguna	8	Agosto	2023-11-08T00:00:00	2024-11-08T21:00:00	4	Temperatura máxima	20.9
70939	7	Sololá	717	San Juan la Laguna	12	San Juan la Laguna	8	Agosto	2023-11-08T00:00:00	2024-11-08T21:00:00	3	Temperatura mínima	20
70940	7	Sololá	717	San Juan la Laguna	12	San Juan la Laguna	8	Agosto	2023-11-08T00:00:00	2024-11-08T21:00:00	5	Humedad	89
70941	7	Sololá	717	San Juan la Laguna	12	San Juan la Laguna	8	Agosto	2023-11-08T00:00:00	2024-11-08T21:00:00	6	Velocidad del viento	0
70942	7	Sololá	717	San Juan la Laguna	12	San Juan la Laguna	8	Agosto	2023-11-08T00:00:00	2024-11-08T21:00:00	7	Dirección del viento	0
70943	7	Sololá	717	San Juan la Laguna	12	San Juan la Laguna	8	Agosto	2023-11-08T00:00:00	2024-11-08T21:00:00	1	Precipitación	0
70944	7	Sololá	717	San Juan la Laguna	12	San Juan la Laguna	8	Agosto	2023-11-08T00:00:00	2024-11-08T21:00:00	8	Radiación solar	0
70945	7	Sololá	717	San Juan la Laguna	12	San Juan la Laguna	8	Agosto	2023-11-08T00:00:00	2024-11-08T22:00:00	2	Temperatura media	19.1
70946	7	Sololá	717	San Juan la Laguna	12	San Juan la Laguna	8	Agosto	2023-11-08T00:00:00	2024-11-08T22:00:00	4	Temperatura máxima	20.1
70947	7	Sololá	717	San Juan la Laguna	12	San Juan la Laguna	8	Agosto	2023-11-08T00:00:00	2024-11-08T22:00:00	3	Temperatura mínima	19.1
70948	7	Sololá	717	San Juan la Laguna	12	San Juan la Laguna	8	Agosto	2023-11-08T00:00:00	2024-11-08T22:00:00	5	Humedad	89
70949	7	Sololá	717	San Juan la Laguna	12	San Juan la Laguna	8	Agosto	2023-11-08T00:00:00	2024-11-08T22:00:00	6	Velocidad del viento	0
70950	7	Sololá	717	San Juan la Laguna	12	San Juan la Laguna	8	Agosto	2023-11-08T00:00:00	2024-11-08T22:00:00	7	Dirección del viento	0
70951	7	Sololá	717	San Juan la Laguna	12	San Juan la Laguna	8	Agosto	2023-11-08T00:00:00	2024-11-08T22:00:00	1	Precipitación	0
70952	7	Sololá	717	San Juan la Laguna	12	San Juan la Laguna	8	Agosto	2023-11-08T00:00:00	2024-11-08T22:00:00	8	Radiación solar	0
70953	7	Sololá	717	San Juan la Laguna	12	San Juan la Laguna	8	Agosto	2023-11-08T00:00:00	2024-11-08T23:00:00	2	Temperatura media	18.8
70954	7	Sololá	717	San Juan la Laguna	12	San Juan la Laguna	8	Agosto	2023-11-08T00:00:00	2024-11-08T23:00:00	4	Temperatura máxima	19.1
70955	7	Sololá	717	San Juan la Laguna	12	San Juan la Laguna	8	Agosto	2023-11-08T00:00:00	2024-11-08T23:00:00	3	Temperatura mínima	18.7
70956	7	Sololá	717	San Juan la Laguna	12	San Juan la Laguna	8	Agosto	2023-11-08T00:00:00	2024-11-08T23:00:00	5	Humedad	90
70957	7	Sololá	717	San Juan la Laguna	12	San Juan la Laguna	8	Agosto	2023-11-08T00:00:00	2024-11-08T23:00:00	6	Velocidad del viento	0
70958	7	Sololá	717	San Juan la Laguna	12	San Juan la Laguna	8	Agosto	2023-11-08T00:00:00	2024-11-08T23:00:00	7	Dirección del viento	0
70959	7	Sololá	717	San Juan la Laguna	12	San Juan la Laguna	8	Agosto	2023-11-08T00:00:00	2024-11-08T23:00:00	1	Precipitación	0
70960	7	Sololá	717	San Juan la Laguna	12	San Juan la Laguna	8	Agosto	2023-11-08T00:00:00	2024-11-08T23:00:00	8	Radiación solar	0
70961	7	Sololá	717	San Juan la Laguna	12	San Juan la Laguna	8	Agosto	2023-12-08T00:00:00	2024-11-08T00:00:00	2	Temperatura media	18
70962	7	Sololá	717	San Juan la Laguna	12	San Juan la Laguna	8	Agosto	2023-12-08T00:00:00	2024-11-08T00:00:00	4	Temperatura máxima	18.9
70963	7	Sololá	717	San Juan la Laguna	12	San Juan la Laguna	8	Agosto	2023-12-08T00:00:00	2024-11-08T00:00:00	3	Temperatura mínima	18
70964	7	Sololá	717	San Juan la Laguna	12	San Juan la Laguna	8	Agosto	2023-12-08T00:00:00	2024-11-08T00:00:00	5	Humedad	89
70965	7	Sololá	717	San Juan la Laguna	12	San Juan la Laguna	8	Agosto	2023-12-08T00:00:00	2024-11-08T00:00:00	6	Velocidad del viento	1.6
70966	7	Sololá	717	San Juan la Laguna	12	San Juan la Laguna	8	Agosto	2023-12-08T00:00:00	2024-11-08T00:00:00	7	Dirección del viento	1.61
70967	7	Sololá	717	San Juan la Laguna	12	San Juan la Laguna	8	Agosto	2023-12-08T00:00:00	2024-11-08T00:00:00	1	Precipitación	0
70968	7	Sololá	717	San Juan la Laguna	12	San Juan la Laguna	8	Agosto	2023-12-08T00:00:00	2024-11-08T00:00:00	8	Radiación solar	0
70969	7	Sololá	717	San Juan la Laguna	12	San Juan la Laguna	8	Agosto	2023-12-08T00:00:00	2024-11-08T01:00:00	2	Temperatura media	17.6
70970	7	Sololá	717	San Juan la Laguna	12	San Juan la Laguna	8	Agosto	2023-12-08T00:00:00	2024-11-08T01:00:00	4	Temperatura máxima	18.2
70971	7	Sololá	717	San Juan la Laguna	12	San Juan la Laguna	8	Agosto	2023-12-08T00:00:00	2024-11-08T01:00:00	3	Temperatura mínima	17.6
70972	7	Sololá	717	San Juan la Laguna	12	San Juan la Laguna	8	Agosto	2023-12-08T00:00:00	2024-11-08T01:00:00	5	Humedad	86
70973	7	Sololá	717	San Juan la Laguna	12	San Juan la Laguna	8	Agosto	2023-12-08T00:00:00	2024-11-08T01:00:00	6	Velocidad del viento	3.2
70974	7	Sololá	717	San Juan la Laguna	12	San Juan la Laguna	8	Agosto	2023-12-08T00:00:00	2024-11-08T01:00:00	7	Dirección del viento	3.22
70975	7	Sololá	717	San Juan la Laguna	12	San Juan la Laguna	8	Agosto	2023-12-08T00:00:00	2024-11-08T01:00:00	1	Precipitación	0
70976	7	Sololá	717	San Juan la Laguna	12	San Juan la Laguna	8	Agosto	2023-12-08T00:00:00	2024-11-08T01:00:00	8	Radiación solar	0
70977	7	Sololá	717	San Juan la Laguna	12	San Juan la Laguna	8	Agosto	2023-12-08T00:00:00	2024-11-08T02:00:00	2	Temperatura media	17.3
70978	7	Sololá	717	San Juan la Laguna	12	San Juan la Laguna	8	Agosto	2023-12-08T00:00:00	2024-11-08T02:00:00	4	Temperatura máxima	17.7
70979	7	Sololá	717	San Juan la Laguna	12	San Juan la Laguna	8	Agosto	2023-12-08T00:00:00	2024-11-08T02:00:00	3	Temperatura mínima	17.2
70980	7	Sololá	717	San Juan la Laguna	12	San Juan la Laguna	8	Agosto	2023-12-08T00:00:00	2024-11-08T02:00:00	5	Humedad	86
70981	7	Sololá	717	San Juan la Laguna	12	San Juan la Laguna	8	Agosto	2023-12-08T00:00:00	2024-11-08T02:00:00	6	Velocidad del viento	3.2
70982	7	Sololá	717	San Juan la Laguna	12	San Juan la Laguna	8	Agosto	2023-12-08T00:00:00	2024-11-08T02:00:00	7	Dirección del viento	3.22
70983	7	Sololá	717	San Juan la Laguna	12	San Juan la Laguna	8	Agosto	2023-12-08T00:00:00	2024-11-08T02:00:00	1	Precipitación	0
70984	7	Sololá	717	San Juan la Laguna	12	San Juan la Laguna	8	Agosto	2023-12-08T00:00:00	2024-11-08T02:00:00	8	Radiación solar	0
70985	7	Sololá	717	San Juan la Laguna	12	San Juan la Laguna	8	Agosto	2023-12-08T00:00:00	2024-11-08T03:00:00	2	Temperatura media	17.2
70986	7	Sololá	717	San Juan la Laguna	12	San Juan la Laguna	8	Agosto	2023-12-08T00:00:00	2024-11-08T03:00:00	4	Temperatura máxima	17.7
70987	7	Sololá	717	San Juan la Laguna	12	San Juan la Laguna	8	Agosto	2023-12-08T00:00:00	2024-11-08T03:00:00	3	Temperatura mínima	17.2
70988	7	Sololá	717	San Juan la Laguna	12	San Juan la Laguna	8	Agosto	2023-12-08T00:00:00	2024-11-08T03:00:00	5	Humedad	84
70989	7	Sololá	717	San Juan la Laguna	12	San Juan la Laguna	8	Agosto	2023-12-08T00:00:00	2024-11-08T03:00:00	6	Velocidad del viento	3.2
70990	7	Sololá	717	San Juan la Laguna	12	San Juan la Laguna	8	Agosto	2023-12-08T00:00:00	2024-11-08T03:00:00	7	Dirección del viento	3.22
70991	7	Sololá	717	San Juan la Laguna	12	San Juan la Laguna	8	Agosto	2023-12-08T00:00:00	2024-11-08T03:00:00	1	Precipitación	0
70992	7	Sololá	717	San Juan la Laguna	12	San Juan la Laguna	8	Agosto	2023-12-08T00:00:00	2024-11-08T03:00:00	8	Radiación solar	0
70993	7	Sololá	717	San Juan la Laguna	12	San Juan la Laguna	8	Agosto	2023-12-08T00:00:00	2024-11-08T04:00:00	2	Temperatura media	16.9
70994	7	Sololá	717	San Juan la Laguna	12	San Juan la Laguna	8	Agosto	2023-12-08T00:00:00	2024-11-08T04:00:00	4	Temperatura máxima	17.4
70995	7	Sololá	717	San Juan la Laguna	12	San Juan la Laguna	8	Agosto	2023-12-08T00:00:00	2024-11-08T04:00:00	3	Temperatura mínima	16.9
70996	7	Sololá	717	San Juan la Laguna	12	San Juan la Laguna	8	Agosto	2023-12-08T00:00:00	2024-11-08T04:00:00	5	Humedad	86
70997	7	Sololá	717	San Juan la Laguna	12	San Juan la Laguna	8	Agosto	2023-12-08T00:00:00	2024-11-08T04:00:00	6	Velocidad del viento	1.6
70998	7	Sololá	717	San Juan la Laguna	12	San Juan la Laguna	8	Agosto	2023-12-08T00:00:00	2024-11-08T04:00:00	7	Dirección del viento	1.61
70999	7	Sololá	717	San Juan la Laguna	12	San Juan la Laguna	8	Agosto	2023-12-08T00:00:00	2024-11-08T04:00:00	1	Precipitación	0
71000	7	Sololá	717	San Juan la Laguna	12	San Juan la Laguna	8	Agosto	2023-12-08T00:00:00	2024-11-08T04:00:00	8	Radiación solar	0
71001	7	Sololá	717	San Juan la Laguna	12	San Juan la Laguna	8	Agosto	2023-12-08T00:00:00	2024-11-08T05:00:00	2	Temperatura media	17.6
71002	7	Sololá	717	San Juan la Laguna	12	San Juan la Laguna	8	Agosto	2023-12-08T00:00:00	2024-11-08T05:00:00	4	Temperatura máxima	17.6
71003	7	Sololá	717	San Juan la Laguna	12	San Juan la Laguna	8	Agosto	2023-12-08T00:00:00	2024-11-08T05:00:00	3	Temperatura mínima	16.9
71004	7	Sololá	717	San Juan la Laguna	12	San Juan la Laguna	8	Agosto	2023-12-08T00:00:00	2024-11-08T05:00:00	5	Humedad	83
71005	7	Sololá	717	San Juan la Laguna	12	San Juan la Laguna	8	Agosto	2023-12-08T00:00:00	2024-11-08T05:00:00	6	Velocidad del viento	1.6
71006	7	Sololá	717	San Juan la Laguna	12	San Juan la Laguna	8	Agosto	2023-12-08T00:00:00	2024-11-08T05:00:00	7	Dirección del viento	1.61
71007	7	Sololá	717	San Juan la Laguna	12	San Juan la Laguna	8	Agosto	2023-12-08T00:00:00	2024-11-08T05:00:00	1	Precipitación	0
71008	7	Sololá	717	San Juan la Laguna	12	San Juan la Laguna	8	Agosto	2023-12-08T00:00:00	2024-11-08T05:00:00	8	Radiación solar	0
71009	7	Sololá	717	San Juan la Laguna	12	San Juan la Laguna	8	Agosto	2023-12-08T00:00:00	2024-11-08T06:00:00	2	Temperatura media	16.7
71010	7	Sololá	717	San Juan la Laguna	12	San Juan la Laguna	8	Agosto	2023-12-08T00:00:00	2024-11-08T06:00:00	4	Temperatura máxima	17.6
71011	7	Sololá	717	San Juan la Laguna	12	San Juan la Laguna	8	Agosto	2023-12-08T00:00:00	2024-11-08T06:00:00	3	Temperatura mínima	16.7
71012	7	Sololá	717	San Juan la Laguna	12	San Juan la Laguna	8	Agosto	2023-12-08T00:00:00	2024-11-08T06:00:00	5	Humedad	86
71013	7	Sololá	717	San Juan la Laguna	12	San Juan la Laguna	8	Agosto	2023-12-08T00:00:00	2024-11-08T06:00:00	6	Velocidad del viento	0
71014	7	Sololá	717	San Juan la Laguna	12	San Juan la Laguna	8	Agosto	2023-12-08T00:00:00	2024-11-08T06:00:00	7	Dirección del viento	0
71015	7	Sololá	717	San Juan la Laguna	12	San Juan la Laguna	8	Agosto	2023-12-08T00:00:00	2024-11-08T06:00:00	1	Precipitación	0
71016	7	Sololá	717	San Juan la Laguna	12	San Juan la Laguna	8	Agosto	2023-12-08T00:00:00	2024-11-08T06:00:00	8	Radiación solar	1
71017	7	Sololá	717	San Juan la Laguna	12	San Juan la Laguna	8	Agosto	2023-12-08T00:00:00	2024-11-08T07:00:00	2	Temperatura media	17.9
71018	7	Sololá	717	San Juan la Laguna	12	San Juan la Laguna	8	Agosto	2023-12-08T00:00:00	2024-11-08T07:00:00	4	Temperatura máxima	18
71019	7	Sololá	717	San Juan la Laguna	12	San Juan la Laguna	8	Agosto	2023-12-08T00:00:00	2024-11-08T07:00:00	3	Temperatura mínima	16.7
71020	7	Sololá	717	San Juan la Laguna	12	San Juan la Laguna	8	Agosto	2023-12-08T00:00:00	2024-11-08T07:00:00	5	Humedad	82
71021	7	Sololá	717	San Juan la Laguna	12	San Juan la Laguna	8	Agosto	2023-12-08T00:00:00	2024-11-08T07:00:00	6	Velocidad del viento	1.6
71022	7	Sololá	717	San Juan la Laguna	12	San Juan la Laguna	8	Agosto	2023-12-08T00:00:00	2024-11-08T07:00:00	7	Dirección del viento	1.61
71023	7	Sololá	717	San Juan la Laguna	12	San Juan la Laguna	8	Agosto	2023-12-08T00:00:00	2024-11-08T07:00:00	1	Precipitación	0
71024	7	Sololá	717	San Juan la Laguna	12	San Juan la Laguna	8	Agosto	2023-12-08T00:00:00	2024-11-08T07:00:00	8	Radiación solar	49
71025	7	Sololá	717	San Juan la Laguna	12	San Juan la Laguna	8	Agosto	2023-12-08T00:00:00	2024-11-08T08:00:00	2	Temperatura media	20.1
71026	7	Sololá	717	San Juan la Laguna	12	San Juan la Laguna	8	Agosto	2023-12-08T00:00:00	2024-11-08T08:00:00	4	Temperatura máxima	20.1
71027	7	Sololá	717	San Juan la Laguna	12	San Juan la Laguna	8	Agosto	2023-12-08T00:00:00	2024-11-08T08:00:00	3	Temperatura mínima	17.9
71028	7	Sololá	717	San Juan la Laguna	12	San Juan la Laguna	8	Agosto	2023-12-08T00:00:00	2024-11-08T08:00:00	5	Humedad	76
71029	7	Sololá	717	San Juan la Laguna	12	San Juan la Laguna	8	Agosto	2023-12-08T00:00:00	2024-11-08T08:00:00	6	Velocidad del viento	0
71030	7	Sololá	717	San Juan la Laguna	12	San Juan la Laguna	8	Agosto	2023-12-08T00:00:00	2024-11-08T08:00:00	7	Dirección del viento	0
71031	7	Sololá	717	San Juan la Laguna	12	San Juan la Laguna	8	Agosto	2023-12-08T00:00:00	2024-11-08T08:00:00	1	Precipitación	0
71032	7	Sololá	717	San Juan la Laguna	12	San Juan la Laguna	8	Agosto	2023-12-08T00:00:00	2024-11-08T08:00:00	8	Radiación solar	158
71033	7	Sololá	717	San Juan la Laguna	12	San Juan la Laguna	8	Agosto	2023-12-08T00:00:00	2024-11-08T09:00:00	2	Temperatura media	23.1
71034	7	Sololá	717	San Juan la Laguna	12	San Juan la Laguna	8	Agosto	2023-12-08T00:00:00	2024-11-08T09:00:00	4	Temperatura máxima	23.1
71035	7	Sololá	717	San Juan la Laguna	12	San Juan la Laguna	8	Agosto	2023-12-08T00:00:00	2024-11-08T09:00:00	3	Temperatura mínima	20.1
71036	7	Sololá	717	San Juan la Laguna	12	San Juan la Laguna	8	Agosto	2023-12-08T00:00:00	2024-11-08T09:00:00	5	Humedad	64
71037	7	Sololá	717	San Juan la Laguna	12	San Juan la Laguna	8	Agosto	2023-12-08T00:00:00	2024-11-08T09:00:00	6	Velocidad del viento	0
71038	7	Sololá	717	San Juan la Laguna	12	San Juan la Laguna	8	Agosto	2023-12-08T00:00:00	2024-11-08T09:00:00	7	Dirección del viento	0
71039	7	Sololá	717	San Juan la Laguna	12	San Juan la Laguna	8	Agosto	2023-12-08T00:00:00	2024-11-08T09:00:00	1	Precipitación	0
71040	7	Sololá	717	San Juan la Laguna	12	San Juan la Laguna	8	Agosto	2023-12-08T00:00:00	2024-11-08T09:00:00	8	Radiación solar	387
71041	7	Sololá	717	San Juan la Laguna	12	San Juan la Laguna	8	Agosto	2023-12-08T00:00:00	2024-11-08T10:00:00	2	Temperatura media	22.7
71042	7	Sololá	717	San Juan la Laguna	12	San Juan la Laguna	8	Agosto	2023-12-08T00:00:00	2024-11-08T10:00:00	4	Temperatura máxima	24.4
71043	7	Sololá	717	San Juan la Laguna	12	San Juan la Laguna	8	Agosto	2023-12-08T00:00:00	2024-11-08T10:00:00	3	Temperatura mínima	22.7
71044	7	Sololá	717	San Juan la Laguna	12	San Juan la Laguna	8	Agosto	2023-12-08T00:00:00	2024-11-08T10:00:00	5	Humedad	70
71045	7	Sololá	717	San Juan la Laguna	12	San Juan la Laguna	8	Agosto	2023-12-08T00:00:00	2024-11-08T10:00:00	6	Velocidad del viento	0
71046	7	Sololá	717	San Juan la Laguna	12	San Juan la Laguna	8	Agosto	2023-12-08T00:00:00	2024-11-08T10:00:00	7	Dirección del viento	0
71047	7	Sololá	717	San Juan la Laguna	12	San Juan la Laguna	8	Agosto	2023-12-08T00:00:00	2024-11-08T10:00:00	1	Precipitación	0
71048	7	Sololá	717	San Juan la Laguna	12	San Juan la Laguna	8	Agosto	2023-12-08T00:00:00	2024-11-08T10:00:00	8	Radiación solar	516
71049	7	Sololá	717	San Juan la Laguna	12	San Juan la Laguna	8	Agosto	2023-12-08T00:00:00	2024-11-08T11:00:00	2	Temperatura media	25.5
71050	7	Sololá	717	San Juan la Laguna	12	San Juan la Laguna	8	Agosto	2023-12-08T00:00:00	2024-11-08T11:00:00	4	Temperatura máxima	25.6
71051	7	Sololá	717	San Juan la Laguna	12	San Juan la Laguna	8	Agosto	2023-12-08T00:00:00	2024-11-08T11:00:00	3	Temperatura mínima	22.5
71052	7	Sololá	717	San Juan la Laguna	12	San Juan la Laguna	8	Agosto	2023-12-08T00:00:00	2024-11-08T11:00:00	5	Humedad	55
71053	7	Sololá	717	San Juan la Laguna	12	San Juan la Laguna	8	Agosto	2023-12-08T00:00:00	2024-11-08T11:00:00	6	Velocidad del viento	0
71054	7	Sololá	717	San Juan la Laguna	12	San Juan la Laguna	8	Agosto	2023-12-08T00:00:00	2024-11-08T11:00:00	7	Dirección del viento	0
71055	7	Sololá	717	San Juan la Laguna	12	San Juan la Laguna	8	Agosto	2023-12-08T00:00:00	2024-11-08T11:00:00	1	Precipitación	0
71056	7	Sololá	717	San Juan la Laguna	12	San Juan la Laguna	8	Agosto	2023-12-08T00:00:00	2024-11-08T11:00:00	8	Radiación solar	760
71057	7	Sololá	717	San Juan la Laguna	12	San Juan la Laguna	8	Agosto	2023-12-08T00:00:00	2024-11-08T12:00:00	2	Temperatura media	24.6
71058	7	Sololá	717	San Juan la Laguna	12	San Juan la Laguna	8	Agosto	2023-12-08T00:00:00	2024-11-08T12:00:00	4	Temperatura máxima	26.4
71059	7	Sololá	717	San Juan la Laguna	12	San Juan la Laguna	8	Agosto	2023-12-08T00:00:00	2024-11-08T12:00:00	3	Temperatura mínima	24.3
71060	7	Sololá	717	San Juan la Laguna	12	San Juan la Laguna	8	Agosto	2023-12-08T00:00:00	2024-11-08T12:00:00	5	Humedad	69
71061	7	Sololá	717	San Juan la Laguna	12	San Juan la Laguna	8	Agosto	2023-12-08T00:00:00	2024-11-08T12:00:00	6	Velocidad del viento	1.6
71062	7	Sololá	717	San Juan la Laguna	12	San Juan la Laguna	8	Agosto	2023-12-08T00:00:00	2024-11-08T12:00:00	7	Dirección del viento	1.61
71063	7	Sololá	717	San Juan la Laguna	12	San Juan la Laguna	8	Agosto	2023-12-08T00:00:00	2024-11-08T12:00:00	1	Precipitación	0
71064	7	Sololá	717	San Juan la Laguna	12	San Juan la Laguna	8	Agosto	2023-12-08T00:00:00	2024-11-08T12:00:00	8	Radiación solar	789
71065	7	Sololá	717	San Juan la Laguna	12	San Juan la Laguna	8	Agosto	2023-12-08T00:00:00	2024-11-08T13:00:00	2	Temperatura media	25.5
71066	7	Sololá	717	San Juan la Laguna	12	San Juan la Laguna	8	Agosto	2023-12-08T00:00:00	2024-11-08T13:00:00	4	Temperatura máxima	25.6
71067	7	Sololá	717	San Juan la Laguna	12	San Juan la Laguna	8	Agosto	2023-12-08T00:00:00	2024-11-08T13:00:00	3	Temperatura mínima	24.3
71068	7	Sololá	717	San Juan la Laguna	12	San Juan la Laguna	8	Agosto	2023-12-08T00:00:00	2024-11-08T13:00:00	5	Humedad	68
71069	7	Sololá	717	San Juan la Laguna	12	San Juan la Laguna	8	Agosto	2023-12-08T00:00:00	2024-11-08T13:00:00	6	Velocidad del viento	1.6
71070	7	Sololá	717	San Juan la Laguna	12	San Juan la Laguna	8	Agosto	2023-12-08T00:00:00	2024-11-08T13:00:00	7	Dirección del viento	1.61
71071	7	Sololá	717	San Juan la Laguna	12	San Juan la Laguna	8	Agosto	2023-12-08T00:00:00	2024-11-08T13:00:00	1	Precipitación	0
71072	7	Sololá	717	San Juan la Laguna	12	San Juan la Laguna	8	Agosto	2023-12-08T00:00:00	2024-11-08T13:00:00	8	Radiación solar	834
71073	7	Sololá	717	San Juan la Laguna	12	San Juan la Laguna	8	Agosto	2023-12-08T00:00:00	2024-11-08T14:00:00	2	Temperatura media	24.7
71074	7	Sololá	717	San Juan la Laguna	12	San Juan la Laguna	8	Agosto	2023-12-08T00:00:00	2024-11-08T14:00:00	4	Temperatura máxima	26.5
71075	7	Sololá	717	San Juan la Laguna	12	San Juan la Laguna	8	Agosto	2023-12-08T00:00:00	2024-11-08T14:00:00	3	Temperatura mínima	24.7
71076	7	Sololá	717	San Juan la Laguna	12	San Juan la Laguna	8	Agosto	2023-12-08T00:00:00	2024-11-08T14:00:00	5	Humedad	72
71077	7	Sololá	717	San Juan la Laguna	12	San Juan la Laguna	8	Agosto	2023-12-08T00:00:00	2024-11-08T14:00:00	6	Velocidad del viento	0
71078	7	Sololá	717	San Juan la Laguna	12	San Juan la Laguna	8	Agosto	2023-12-08T00:00:00	2024-11-08T14:00:00	7	Dirección del viento	0
71079	7	Sololá	717	San Juan la Laguna	12	San Juan la Laguna	8	Agosto	2023-12-08T00:00:00	2024-11-08T14:00:00	1	Precipitación	0
71080	7	Sololá	717	San Juan la Laguna	12	San Juan la Laguna	8	Agosto	2023-12-08T00:00:00	2024-11-08T14:00:00	8	Radiación solar	809
71081	7	Sololá	717	San Juan la Laguna	12	San Juan la Laguna	8	Agosto	2023-12-08T00:00:00	2024-11-08T15:00:00	2	Temperatura media	22.6
71082	7	Sololá	717	San Juan la Laguna	12	San Juan la Laguna	8	Agosto	2023-12-08T00:00:00	2024-11-08T15:00:00	4	Temperatura máxima	24.9
71083	7	Sololá	717	San Juan la Laguna	12	San Juan la Laguna	8	Agosto	2023-12-08T00:00:00	2024-11-08T15:00:00	3	Temperatura mínima	22.6
71084	7	Sololá	717	San Juan la Laguna	12	San Juan la Laguna	8	Agosto	2023-12-08T00:00:00	2024-11-08T15:00:00	5	Humedad	80
71085	7	Sololá	717	San Juan la Laguna	12	San Juan la Laguna	8	Agosto	2023-12-08T00:00:00	2024-11-08T15:00:00	6	Velocidad del viento	3.2
71086	7	Sololá	717	San Juan la Laguna	12	San Juan la Laguna	8	Agosto	2023-12-08T00:00:00	2024-11-08T15:00:00	7	Dirección del viento	3.22
71087	7	Sololá	717	San Juan la Laguna	12	San Juan la Laguna	8	Agosto	2023-12-08T00:00:00	2024-11-08T15:00:00	1	Precipitación	0
71088	7	Sololá	717	San Juan la Laguna	12	San Juan la Laguna	8	Agosto	2023-12-08T00:00:00	2024-11-08T15:00:00	8	Radiación solar	427
71089	7	Sololá	717	San Juan la Laguna	12	San Juan la Laguna	8	Agosto	2023-12-08T00:00:00	2024-11-08T16:00:00	2	Temperatura media	23.2
71090	7	Sololá	717	San Juan la Laguna	12	San Juan la Laguna	8	Agosto	2023-12-08T00:00:00	2024-11-08T16:00:00	4	Temperatura máxima	23.4
71091	7	Sololá	717	San Juan la Laguna	12	San Juan la Laguna	8	Agosto	2023-12-08T00:00:00	2024-11-08T16:00:00	3	Temperatura mínima	22.4
71092	7	Sololá	717	San Juan la Laguna	12	San Juan la Laguna	8	Agosto	2023-12-08T00:00:00	2024-11-08T16:00:00	5	Humedad	77
71093	7	Sololá	717	San Juan la Laguna	12	San Juan la Laguna	8	Agosto	2023-12-08T00:00:00	2024-11-08T16:00:00	6	Velocidad del viento	3.2
71094	7	Sololá	717	San Juan la Laguna	12	San Juan la Laguna	8	Agosto	2023-12-08T00:00:00	2024-11-08T16:00:00	7	Dirección del viento	3.22
71095	7	Sololá	717	San Juan la Laguna	12	San Juan la Laguna	8	Agosto	2023-12-08T00:00:00	2024-11-08T16:00:00	1	Precipitación	0
71096	7	Sololá	717	San Juan la Laguna	12	San Juan la Laguna	8	Agosto	2023-12-08T00:00:00	2024-11-08T16:00:00	8	Radiación solar	288
71097	7	Sololá	717	San Juan la Laguna	12	San Juan la Laguna	8	Agosto	2023-12-08T00:00:00	2024-11-08T17:00:00	2	Temperatura media	23.1
71098	7	Sololá	717	San Juan la Laguna	12	San Juan la Laguna	8	Agosto	2023-12-08T00:00:00	2024-11-08T17:00:00	4	Temperatura máxima	25.4
71099	7	Sololá	717	San Juan la Laguna	12	San Juan la Laguna	8	Agosto	2023-12-08T00:00:00	2024-11-08T17:00:00	3	Temperatura mínima	23.1
71100	7	Sololá	717	San Juan la Laguna	12	San Juan la Laguna	8	Agosto	2023-12-08T00:00:00	2024-11-08T17:00:00	5	Humedad	78
71101	7	Sololá	717	San Juan la Laguna	12	San Juan la Laguna	8	Agosto	2023-12-08T00:00:00	2024-11-08T17:00:00	6	Velocidad del viento	1.6
71102	7	Sololá	717	San Juan la Laguna	12	San Juan la Laguna	8	Agosto	2023-12-08T00:00:00	2024-11-08T17:00:00	7	Dirección del viento	1.61
71103	7	Sololá	717	San Juan la Laguna	12	San Juan la Laguna	8	Agosto	2023-12-08T00:00:00	2024-11-08T17:00:00	1	Precipitación	0
71104	7	Sololá	717	San Juan la Laguna	12	San Juan la Laguna	8	Agosto	2023-12-08T00:00:00	2024-11-08T17:00:00	8	Radiación solar	362
71105	7	Sololá	717	San Juan la Laguna	12	San Juan la Laguna	8	Agosto	2023-12-08T00:00:00	2024-11-08T18:00:00	2	Temperatura media	21.9
71106	7	Sololá	717	San Juan la Laguna	12	San Juan la Laguna	8	Agosto	2023-12-08T00:00:00	2024-11-08T18:00:00	4	Temperatura máxima	23
71107	7	Sololá	717	San Juan la Laguna	12	San Juan la Laguna	8	Agosto	2023-12-08T00:00:00	2024-11-08T18:00:00	3	Temperatura mínima	21.7
71108	7	Sololá	717	San Juan la Laguna	12	San Juan la Laguna	8	Agosto	2023-12-08T00:00:00	2024-11-08T18:00:00	5	Humedad	82
71109	7	Sololá	717	San Juan la Laguna	12	San Juan la Laguna	8	Agosto	2023-12-08T00:00:00	2024-11-08T18:00:00	6	Velocidad del viento	3.2
71110	7	Sololá	717	San Juan la Laguna	12	San Juan la Laguna	8	Agosto	2023-12-08T00:00:00	2024-11-08T18:00:00	7	Dirección del viento	3.22
71111	7	Sololá	717	San Juan la Laguna	12	San Juan la Laguna	8	Agosto	2023-12-08T00:00:00	2024-11-08T18:00:00	1	Precipitación	0
71112	7	Sololá	717	San Juan la Laguna	12	San Juan la Laguna	8	Agosto	2023-12-08T00:00:00	2024-11-08T18:00:00	8	Radiación solar	77
71113	7	Sololá	717	San Juan la Laguna	12	San Juan la Laguna	8	Agosto	2023-12-08T00:00:00	2024-11-08T19:00:00	2	Temperatura media	20.9
71114	7	Sololá	717	San Juan la Laguna	12	San Juan la Laguna	8	Agosto	2023-12-08T00:00:00	2024-11-08T19:00:00	4	Temperatura máxima	22.1
71115	7	Sololá	717	San Juan la Laguna	12	San Juan la Laguna	8	Agosto	2023-12-08T00:00:00	2024-11-08T19:00:00	3	Temperatura mínima	20.8
71116	7	Sololá	717	San Juan la Laguna	12	San Juan la Laguna	8	Agosto	2023-12-08T00:00:00	2024-11-08T19:00:00	5	Humedad	90
71117	7	Sololá	717	San Juan la Laguna	12	San Juan la Laguna	8	Agosto	2023-12-08T00:00:00	2024-11-08T19:00:00	6	Velocidad del viento	0
71118	7	Sololá	717	San Juan la Laguna	12	San Juan la Laguna	8	Agosto	2023-12-08T00:00:00	2024-11-08T19:00:00	7	Dirección del viento	0
71119	7	Sololá	717	San Juan la Laguna	12	San Juan la Laguna	8	Agosto	2023-12-08T00:00:00	2024-11-08T19:00:00	1	Precipitación	2.8
71120	7	Sololá	717	San Juan la Laguna	12	San Juan la Laguna	8	Agosto	2023-12-08T00:00:00	2024-11-08T19:00:00	8	Radiación solar	0
71121	7	Sololá	717	San Juan la Laguna	12	San Juan la Laguna	8	Agosto	2023-12-08T00:00:00	2024-11-08T20:00:00	2	Temperatura media	20.1
71122	7	Sololá	717	San Juan la Laguna	12	San Juan la Laguna	8	Agosto	2023-12-08T00:00:00	2024-11-08T20:00:00	4	Temperatura máxima	20.9
71123	7	Sololá	717	San Juan la Laguna	12	San Juan la Laguna	8	Agosto	2023-12-08T00:00:00	2024-11-08T20:00:00	3	Temperatura mínima	20.1
71124	7	Sololá	717	San Juan la Laguna	12	San Juan la Laguna	8	Agosto	2023-12-08T00:00:00	2024-11-08T20:00:00	5	Humedad	91
71125	7	Sololá	717	San Juan la Laguna	12	San Juan la Laguna	8	Agosto	2023-12-08T00:00:00	2024-11-08T20:00:00	6	Velocidad del viento	0
71126	7	Sololá	717	San Juan la Laguna	12	San Juan la Laguna	8	Agosto	2023-12-08T00:00:00	2024-11-08T20:00:00	7	Dirección del viento	0
71127	7	Sololá	717	San Juan la Laguna	12	San Juan la Laguna	8	Agosto	2023-12-08T00:00:00	2024-11-08T20:00:00	1	Precipitación	0.2
71128	7	Sololá	717	San Juan la Laguna	12	San Juan la Laguna	8	Agosto	2023-12-08T00:00:00	2024-11-08T20:00:00	8	Radiación solar	0
71129	7	Sololá	717	San Juan la Laguna	12	San Juan la Laguna	8	Agosto	2023-12-08T00:00:00	2024-11-08T21:00:00	2	Temperatura media	19.7
71130	7	Sololá	717	San Juan la Laguna	12	San Juan la Laguna	8	Agosto	2023-12-08T00:00:00	2024-11-08T21:00:00	4	Temperatura máxima	20.2
71131	7	Sololá	717	San Juan la Laguna	12	San Juan la Laguna	8	Agosto	2023-12-08T00:00:00	2024-11-08T21:00:00	3	Temperatura mínima	19.6
71132	7	Sololá	717	San Juan la Laguna	12	San Juan la Laguna	8	Agosto	2023-12-08T00:00:00	2024-11-08T21:00:00	5	Humedad	91
71133	7	Sololá	717	San Juan la Laguna	12	San Juan la Laguna	8	Agosto	2023-12-08T00:00:00	2024-11-08T21:00:00	6	Velocidad del viento	0
71134	7	Sololá	717	San Juan la Laguna	12	San Juan la Laguna	8	Agosto	2023-12-08T00:00:00	2024-11-08T21:00:00	7	Dirección del viento	0
71135	7	Sololá	717	San Juan la Laguna	12	San Juan la Laguna	8	Agosto	2023-12-08T00:00:00	2024-11-08T21:00:00	1	Precipitación	0
71136	7	Sololá	717	San Juan la Laguna	12	San Juan la Laguna	8	Agosto	2023-12-08T00:00:00	2024-11-08T21:00:00	8	Radiación solar	0
71137	7	Sololá	717	San Juan la Laguna	12	San Juan la Laguna	8	Agosto	2023-12-08T00:00:00	2024-11-08T22:00:00	2	Temperatura media	21
71138	7	Sololá	717	San Juan la Laguna	12	San Juan la Laguna	8	Agosto	2023-12-08T00:00:00	2024-11-08T22:00:00	4	Temperatura máxima	21.4
71139	7	Sololá	717	San Juan la Laguna	12	San Juan la Laguna	8	Agosto	2023-12-08T00:00:00	2024-11-08T22:00:00	3	Temperatura mínima	19.2
71140	7	Sololá	717	San Juan la Laguna	12	San Juan la Laguna	8	Agosto	2023-12-08T00:00:00	2024-11-08T22:00:00	5	Humedad	79
71141	7	Sololá	717	San Juan la Laguna	12	San Juan la Laguna	8	Agosto	2023-12-08T00:00:00	2024-11-08T22:00:00	6	Velocidad del viento	3.2
71142	7	Sololá	717	San Juan la Laguna	12	San Juan la Laguna	8	Agosto	2023-12-08T00:00:00	2024-11-08T22:00:00	7	Dirección del viento	3.22
71143	7	Sololá	717	San Juan la Laguna	12	San Juan la Laguna	8	Agosto	2023-12-08T00:00:00	2024-11-08T22:00:00	1	Precipitación	0
71144	7	Sololá	717	San Juan la Laguna	12	San Juan la Laguna	8	Agosto	2023-12-08T00:00:00	2024-11-08T22:00:00	8	Radiación solar	0
71145	7	Sololá	717	San Juan la Laguna	12	San Juan la Laguna	8	Agosto	2023-12-08T00:00:00	2024-11-08T23:00:00	2	Temperatura media	18.6
71146	7	Sololá	717	San Juan la Laguna	12	San Juan la Laguna	8	Agosto	2023-12-08T00:00:00	2024-11-08T23:00:00	4	Temperatura máxima	20.9
71147	7	Sololá	717	San Juan la Laguna	12	San Juan la Laguna	8	Agosto	2023-12-08T00:00:00	2024-11-08T23:00:00	3	Temperatura mínima	18.1
71148	7	Sololá	717	San Juan la Laguna	12	San Juan la Laguna	8	Agosto	2023-12-08T00:00:00	2024-11-08T23:00:00	5	Humedad	84
71149	7	Sololá	717	San Juan la Laguna	12	San Juan la Laguna	8	Agosto	2023-12-08T00:00:00	2024-11-08T23:00:00	6	Velocidad del viento	3.2
71150	7	Sololá	717	San Juan la Laguna	12	San Juan la Laguna	8	Agosto	2023-12-08T00:00:00	2024-11-08T23:00:00	7	Dirección del viento	3.22
71151	7	Sololá	717	San Juan la Laguna	12	San Juan la Laguna	8	Agosto	2023-12-08T00:00:00	2024-11-08T23:00:00	1	Precipitación	0
71152	7	Sololá	717	San Juan la Laguna	12	San Juan la Laguna	8	Agosto	2023-12-08T00:00:00	2024-11-08T23:00:00	8	Radiación solar	0
71153	7	Sololá	717	San Juan la Laguna	12	San Juan la Laguna	8	Agosto	2023-08-13T00:00:00	2024-11-08T00:00:00	2	Temperatura media	21.1
71154	7	Sololá	717	San Juan la Laguna	12	San Juan la Laguna	8	Agosto	2023-08-13T00:00:00	2024-11-08T00:00:00	4	Temperatura máxima	21.2
71155	7	Sololá	717	San Juan la Laguna	12	San Juan la Laguna	8	Agosto	2023-08-13T00:00:00	2024-11-08T00:00:00	3	Temperatura mínima	18.6
71156	7	Sololá	717	San Juan la Laguna	12	San Juan la Laguna	8	Agosto	2023-08-13T00:00:00	2024-11-08T00:00:00	5	Humedad	68
71157	7	Sololá	717	San Juan la Laguna	12	San Juan la Laguna	8	Agosto	2023-08-13T00:00:00	2024-11-08T00:00:00	6	Velocidad del viento	4.8
71158	7	Sololá	717	San Juan la Laguna	12	San Juan la Laguna	8	Agosto	2023-08-13T00:00:00	2024-11-08T00:00:00	7	Dirección del viento	4.83
71159	7	Sololá	717	San Juan la Laguna	12	San Juan la Laguna	8	Agosto	2023-08-13T00:00:00	2024-11-08T00:00:00	1	Precipitación	0
71160	7	Sololá	717	San Juan la Laguna	12	San Juan la Laguna	8	Agosto	2023-08-13T00:00:00	2024-11-08T00:00:00	8	Radiación solar	0
71161	7	Sololá	717	San Juan la Laguna	12	San Juan la Laguna	8	Agosto	2023-08-13T00:00:00	2024-11-08T01:00:00	2	Temperatura media	20.6
71162	7	Sololá	717	San Juan la Laguna	12	San Juan la Laguna	8	Agosto	2023-08-13T00:00:00	2024-11-08T01:00:00	4	Temperatura máxima	21.2
71163	7	Sololá	717	San Juan la Laguna	12	San Juan la Laguna	8	Agosto	2023-08-13T00:00:00	2024-11-08T01:00:00	3	Temperatura mínima	18.9
71164	7	Sololá	717	San Juan la Laguna	12	San Juan la Laguna	8	Agosto	2023-08-13T00:00:00	2024-11-08T01:00:00	5	Humedad	62
71165	7	Sololá	717	San Juan la Laguna	12	San Juan la Laguna	8	Agosto	2023-08-13T00:00:00	2024-11-08T01:00:00	6	Velocidad del viento	1.6
71166	7	Sololá	717	San Juan la Laguna	12	San Juan la Laguna	8	Agosto	2023-08-13T00:00:00	2024-11-08T01:00:00	7	Dirección del viento	1.61
71167	7	Sololá	717	San Juan la Laguna	12	San Juan la Laguna	8	Agosto	2023-08-13T00:00:00	2024-11-08T01:00:00	1	Precipitación	0
71168	7	Sololá	717	San Juan la Laguna	12	San Juan la Laguna	8	Agosto	2023-08-13T00:00:00	2024-11-08T01:00:00	8	Radiación solar	0
71169	7	Sololá	717	San Juan la Laguna	12	San Juan la Laguna	8	Agosto	2023-08-13T00:00:00	2024-11-08T02:00:00	2	Temperatura media	18.3
71170	7	Sololá	717	San Juan la Laguna	12	San Juan la Laguna	8	Agosto	2023-08-13T00:00:00	2024-11-08T02:00:00	4	Temperatura máxima	20.6
71171	7	Sololá	717	San Juan la Laguna	12	San Juan la Laguna	8	Agosto	2023-08-13T00:00:00	2024-11-08T02:00:00	3	Temperatura mínima	18.3
71172	7	Sololá	717	San Juan la Laguna	12	San Juan la Laguna	8	Agosto	2023-08-13T00:00:00	2024-11-08T02:00:00	5	Humedad	70
71173	7	Sololá	717	San Juan la Laguna	12	San Juan la Laguna	8	Agosto	2023-08-13T00:00:00	2024-11-08T02:00:00	6	Velocidad del viento	3.2
71174	7	Sololá	717	San Juan la Laguna	12	San Juan la Laguna	8	Agosto	2023-08-13T00:00:00	2024-11-08T02:00:00	7	Dirección del viento	3.22
71175	7	Sololá	717	San Juan la Laguna	12	San Juan la Laguna	8	Agosto	2023-08-13T00:00:00	2024-11-08T02:00:00	1	Precipitación	0
71176	7	Sololá	717	San Juan la Laguna	12	San Juan la Laguna	8	Agosto	2023-08-13T00:00:00	2024-11-08T02:00:00	8	Radiación solar	0
71177	7	Sololá	717	San Juan la Laguna	12	San Juan la Laguna	8	Agosto	2023-08-13T00:00:00	2024-11-08T03:00:00	2	Temperatura media	20.1
71178	7	Sololá	717	San Juan la Laguna	12	San Juan la Laguna	8	Agosto	2023-08-13T00:00:00	2024-11-08T03:00:00	4	Temperatura máxima	20.2
71179	7	Sololá	717	San Juan la Laguna	12	San Juan la Laguna	8	Agosto	2023-08-13T00:00:00	2024-11-08T03:00:00	3	Temperatura mínima	17.7
71180	7	Sololá	717	San Juan la Laguna	12	San Juan la Laguna	8	Agosto	2023-08-13T00:00:00	2024-11-08T03:00:00	5	Humedad	65
71181	7	Sololá	717	San Juan la Laguna	12	San Juan la Laguna	8	Agosto	2023-08-13T00:00:00	2024-11-08T03:00:00	6	Velocidad del viento	4.8
71182	7	Sololá	717	San Juan la Laguna	12	San Juan la Laguna	8	Agosto	2023-08-13T00:00:00	2024-11-08T03:00:00	7	Dirección del viento	4.83
71183	7	Sololá	717	San Juan la Laguna	12	San Juan la Laguna	8	Agosto	2023-08-13T00:00:00	2024-11-08T03:00:00	1	Precipitación	0
71184	7	Sololá	717	San Juan la Laguna	12	San Juan la Laguna	8	Agosto	2023-08-13T00:00:00	2024-11-08T03:00:00	8	Radiación solar	0
71185	7	Sololá	717	San Juan la Laguna	12	San Juan la Laguna	8	Agosto	2023-08-13T00:00:00	2024-11-08T04:00:00	2	Temperatura media	18.5
71186	7	Sololá	717	San Juan la Laguna	12	San Juan la Laguna	8	Agosto	2023-08-13T00:00:00	2024-11-08T04:00:00	4	Temperatura máxima	19.2
71187	7	Sololá	717	San Juan la Laguna	12	San Juan la Laguna	8	Agosto	2023-08-13T00:00:00	2024-11-08T04:00:00	3	Temperatura mínima	17.6
71188	7	Sololá	717	San Juan la Laguna	12	San Juan la Laguna	8	Agosto	2023-08-13T00:00:00	2024-11-08T04:00:00	5	Humedad	76
71189	7	Sololá	717	San Juan la Laguna	12	San Juan la Laguna	8	Agosto	2023-08-13T00:00:00	2024-11-08T04:00:00	6	Velocidad del viento	0
71190	7	Sololá	717	San Juan la Laguna	12	San Juan la Laguna	8	Agosto	2023-08-13T00:00:00	2024-11-08T04:00:00	7	Dirección del viento	0
71191	7	Sololá	717	San Juan la Laguna	12	San Juan la Laguna	8	Agosto	2023-08-13T00:00:00	2024-11-08T04:00:00	1	Precipitación	0
71192	7	Sololá	717	San Juan la Laguna	12	San Juan la Laguna	8	Agosto	2023-08-13T00:00:00	2024-11-08T04:00:00	8	Radiación solar	0
71193	7	Sololá	717	San Juan la Laguna	12	San Juan la Laguna	8	Agosto	2023-08-13T00:00:00	2024-11-08T05:00:00	2	Temperatura media	19.7
71194	7	Sololá	717	San Juan la Laguna	12	San Juan la Laguna	8	Agosto	2023-08-13T00:00:00	2024-11-08T05:00:00	4	Temperatura máxima	19.8
71195	7	Sololá	717	San Juan la Laguna	12	San Juan la Laguna	8	Agosto	2023-08-13T00:00:00	2024-11-08T05:00:00	3	Temperatura mínima	18.5
71196	7	Sololá	717	San Juan la Laguna	12	San Juan la Laguna	8	Agosto	2023-08-13T00:00:00	2024-11-08T05:00:00	5	Humedad	69
71197	7	Sololá	717	San Juan la Laguna	12	San Juan la Laguna	8	Agosto	2023-08-13T00:00:00	2024-11-08T05:00:00	6	Velocidad del viento	0
71198	7	Sololá	717	San Juan la Laguna	12	San Juan la Laguna	8	Agosto	2023-08-13T00:00:00	2024-11-08T05:00:00	7	Dirección del viento	0
71199	7	Sololá	717	San Juan la Laguna	12	San Juan la Laguna	8	Agosto	2023-08-13T00:00:00	2024-11-08T05:00:00	1	Precipitación	0
71200	7	Sololá	717	San Juan la Laguna	12	San Juan la Laguna	8	Agosto	2023-08-13T00:00:00	2024-11-08T05:00:00	8	Radiación solar	0
71201	7	Sololá	717	San Juan la Laguna	12	San Juan la Laguna	8	Agosto	2023-08-13T00:00:00	2024-11-08T06:00:00	2	Temperatura media	16.5
71202	7	Sololá	717	San Juan la Laguna	12	San Juan la Laguna	8	Agosto	2023-08-13T00:00:00	2024-11-08T06:00:00	4	Temperatura máxima	19.6
71203	7	Sololá	717	San Juan la Laguna	12	San Juan la Laguna	8	Agosto	2023-08-13T00:00:00	2024-11-08T06:00:00	3	Temperatura mínima	16.9
71204	7	Sololá	717	San Juan la Laguna	12	San Juan la Laguna	8	Agosto	2023-08-13T00:00:00	2024-11-08T06:00:00	5	Humedad	80
71205	7	Sololá	717	San Juan la Laguna	12	San Juan la Laguna	8	Agosto	2023-08-13T00:00:00	2024-11-08T06:00:00	6	Velocidad del viento	0
71206	7	Sololá	717	San Juan la Laguna	12	San Juan la Laguna	8	Agosto	2023-08-13T00:00:00	2024-11-08T06:00:00	7	Dirección del viento	0
71207	7	Sololá	717	San Juan la Laguna	12	San Juan la Laguna	8	Agosto	2023-08-13T00:00:00	2024-11-08T06:00:00	1	Precipitación	0
71208	7	Sololá	717	San Juan la Laguna	12	San Juan la Laguna	8	Agosto	2023-08-13T00:00:00	2024-11-08T06:00:00	8	Radiación solar	0
71209	7	Sololá	717	San Juan la Laguna	12	San Juan la Laguna	8	Agosto	2023-08-13T00:00:00	2024-11-08T07:00:00	2	Temperatura media	19.4
71210	7	Sololá	717	San Juan la Laguna	12	San Juan la Laguna	8	Agosto	2023-08-13T00:00:00	2024-11-08T07:00:00	4	Temperatura máxima	19.4
71211	7	Sololá	717	San Juan la Laguna	12	San Juan la Laguna	8	Agosto	2023-08-13T00:00:00	2024-11-08T07:00:00	3	Temperatura mínima	17.7
71212	7	Sololá	717	San Juan la Laguna	12	San Juan la Laguna	8	Agosto	2023-08-13T00:00:00	2024-11-08T07:00:00	5	Humedad	72
71213	7	Sololá	717	San Juan la Laguna	12	San Juan la Laguna	8	Agosto	2023-08-13T00:00:00	2024-11-08T07:00:00	6	Velocidad del viento	1.6
71214	7	Sololá	717	San Juan la Laguna	12	San Juan la Laguna	8	Agosto	2023-08-13T00:00:00	2024-11-08T07:00:00	7	Dirección del viento	1.61
71215	7	Sololá	717	San Juan la Laguna	12	San Juan la Laguna	8	Agosto	2023-08-13T00:00:00	2024-11-08T07:00:00	1	Precipitación	0
71216	7	Sololá	717	San Juan la Laguna	12	San Juan la Laguna	8	Agosto	2023-08-13T00:00:00	2024-11-08T07:00:00	8	Radiación solar	58
71217	7	Sololá	717	San Juan la Laguna	12	San Juan la Laguna	8	Agosto	2023-08-13T00:00:00	2024-11-08T08:00:00	2	Temperatura media	22.1
71218	7	Sololá	717	San Juan la Laguna	12	San Juan la Laguna	8	Agosto	2023-08-13T00:00:00	2024-11-08T08:00:00	4	Temperatura máxima	22.1
71219	7	Sololá	717	San Juan la Laguna	12	San Juan la Laguna	8	Agosto	2023-08-13T00:00:00	2024-11-08T08:00:00	3	Temperatura mínima	19.4
71220	7	Sololá	717	San Juan la Laguna	12	San Juan la Laguna	8	Agosto	2023-08-13T00:00:00	2024-11-08T08:00:00	5	Humedad	66
71221	7	Sololá	717	San Juan la Laguna	12	San Juan la Laguna	8	Agosto	2023-08-13T00:00:00	2024-11-08T08:00:00	6	Velocidad del viento	1.6
71222	7	Sololá	717	San Juan la Laguna	12	San Juan la Laguna	8	Agosto	2023-08-13T00:00:00	2024-11-08T08:00:00	7	Dirección del viento	1.61
71223	7	Sololá	717	San Juan la Laguna	12	San Juan la Laguna	8	Agosto	2023-08-13T00:00:00	2024-11-08T08:00:00	1	Precipitación	0
71224	7	Sololá	717	San Juan la Laguna	12	San Juan la Laguna	8	Agosto	2023-08-13T00:00:00	2024-11-08T08:00:00	8	Radiación solar	175
71225	7	Sololá	717	San Juan la Laguna	12	San Juan la Laguna	8	Agosto	2023-08-13T00:00:00	2024-11-08T09:00:00	2	Temperatura media	23.1
71226	7	Sololá	717	San Juan la Laguna	12	San Juan la Laguna	8	Agosto	2023-08-13T00:00:00	2024-11-08T09:00:00	4	Temperatura máxima	23.5
71227	7	Sololá	717	San Juan la Laguna	12	San Juan la Laguna	8	Agosto	2023-08-13T00:00:00	2024-11-08T09:00:00	3	Temperatura mínima	22.1
71228	7	Sololá	717	San Juan la Laguna	12	San Juan la Laguna	8	Agosto	2023-08-13T00:00:00	2024-11-08T09:00:00	5	Humedad	62
71229	7	Sololá	717	San Juan la Laguna	12	San Juan la Laguna	8	Agosto	2023-08-13T00:00:00	2024-11-08T09:00:00	6	Velocidad del viento	8
71230	7	Sololá	717	San Juan la Laguna	12	San Juan la Laguna	8	Agosto	2023-08-13T00:00:00	2024-11-08T09:00:00	7	Dirección del viento	8.05
71231	7	Sololá	717	San Juan la Laguna	12	San Juan la Laguna	8	Agosto	2023-08-13T00:00:00	2024-11-08T09:00:00	1	Precipitación	0
71232	7	Sololá	717	San Juan la Laguna	12	San Juan la Laguna	8	Agosto	2023-08-13T00:00:00	2024-11-08T09:00:00	8	Radiación solar	254
71233	7	Sololá	717	San Juan la Laguna	12	San Juan la Laguna	8	Agosto	2023-08-13T00:00:00	2024-11-08T10:00:00	2	Temperatura media	24.8
71234	7	Sololá	717	San Juan la Laguna	12	San Juan la Laguna	8	Agosto	2023-08-13T00:00:00	2024-11-08T10:00:00	4	Temperatura máxima	24.8
71235	7	Sololá	717	San Juan la Laguna	12	San Juan la Laguna	8	Agosto	2023-08-13T00:00:00	2024-11-08T10:00:00	3	Temperatura mínima	23
71236	7	Sololá	717	San Juan la Laguna	12	San Juan la Laguna	8	Agosto	2023-08-13T00:00:00	2024-11-08T10:00:00	5	Humedad	57
71237	7	Sololá	717	San Juan la Laguna	12	San Juan la Laguna	8	Agosto	2023-08-13T00:00:00	2024-11-08T10:00:00	6	Velocidad del viento	8
71238	7	Sololá	717	San Juan la Laguna	12	San Juan la Laguna	8	Agosto	2023-08-13T00:00:00	2024-11-08T10:00:00	7	Dirección del viento	8.05
71239	7	Sololá	717	San Juan la Laguna	12	San Juan la Laguna	8	Agosto	2023-08-13T00:00:00	2024-11-08T10:00:00	1	Precipitación	0
71240	7	Sololá	717	San Juan la Laguna	12	San Juan la Laguna	8	Agosto	2023-08-13T00:00:00	2024-11-08T10:00:00	8	Radiación solar	510
71241	7	Sololá	717	San Juan la Laguna	12	San Juan la Laguna	8	Agosto	2023-08-13T00:00:00	2024-11-08T11:00:00	2	Temperatura media	25.2
71242	7	Sololá	717	San Juan la Laguna	12	San Juan la Laguna	8	Agosto	2023-08-13T00:00:00	2024-11-08T11:00:00	4	Temperatura máxima	26.2
71243	7	Sololá	717	San Juan la Laguna	12	San Juan la Laguna	8	Agosto	2023-08-13T00:00:00	2024-11-08T11:00:00	3	Temperatura mínima	24.8
71244	7	Sololá	717	San Juan la Laguna	12	San Juan la Laguna	8	Agosto	2023-08-13T00:00:00	2024-11-08T11:00:00	5	Humedad	56
71245	7	Sololá	717	San Juan la Laguna	12	San Juan la Laguna	8	Agosto	2023-08-13T00:00:00	2024-11-08T11:00:00	6	Velocidad del viento	1.6
71246	7	Sololá	717	San Juan la Laguna	12	San Juan la Laguna	8	Agosto	2023-08-13T00:00:00	2024-11-08T11:00:00	7	Dirección del viento	1.61
71247	7	Sololá	717	San Juan la Laguna	12	San Juan la Laguna	8	Agosto	2023-08-13T00:00:00	2024-11-08T11:00:00	1	Precipitación	0
71248	7	Sololá	717	San Juan la Laguna	12	San Juan la Laguna	8	Agosto	2023-08-13T00:00:00	2024-11-08T11:00:00	8	Radiación solar	796
71249	7	Sololá	717	San Juan la Laguna	12	San Juan la Laguna	8	Agosto	2023-08-13T00:00:00	2024-11-08T12:00:00	2	Temperatura media	24.4
71250	7	Sololá	717	San Juan la Laguna	12	San Juan la Laguna	8	Agosto	2023-08-13T00:00:00	2024-11-08T12:00:00	4	Temperatura máxima	25.4
71251	7	Sololá	717	San Juan la Laguna	12	San Juan la Laguna	8	Agosto	2023-08-13T00:00:00	2024-11-08T12:00:00	3	Temperatura mínima	24.4
71252	7	Sololá	717	San Juan la Laguna	12	San Juan la Laguna	8	Agosto	2023-08-13T00:00:00	2024-11-08T12:00:00	5	Humedad	58
71253	7	Sololá	717	San Juan la Laguna	12	San Juan la Laguna	8	Agosto	2023-08-13T00:00:00	2024-11-08T12:00:00	6	Velocidad del viento	3.2
71254	7	Sololá	717	San Juan la Laguna	12	San Juan la Laguna	8	Agosto	2023-08-13T00:00:00	2024-11-08T12:00:00	7	Dirección del viento	3.22
71255	7	Sololá	717	San Juan la Laguna	12	San Juan la Laguna	8	Agosto	2023-08-13T00:00:00	2024-11-08T12:00:00	1	Precipitación	0
71256	7	Sololá	717	San Juan la Laguna	12	San Juan la Laguna	8	Agosto	2023-08-13T00:00:00	2024-11-08T12:00:00	8	Radiación solar	564
71257	7	Sololá	717	San Juan la Laguna	12	San Juan la Laguna	8	Agosto	2023-08-13T00:00:00	2024-11-08T13:00:00	2	Temperatura media	24.9
71258	7	Sololá	717	San Juan la Laguna	12	San Juan la Laguna	8	Agosto	2023-08-13T00:00:00	2024-11-08T13:00:00	4	Temperatura máxima	25
71259	7	Sololá	717	San Juan la Laguna	12	San Juan la Laguna	8	Agosto	2023-08-13T00:00:00	2024-11-08T13:00:00	3	Temperatura mínima	24.4
71260	7	Sololá	717	San Juan la Laguna	12	San Juan la Laguna	8	Agosto	2023-08-13T00:00:00	2024-11-08T13:00:00	5	Humedad	58
71261	7	Sololá	717	San Juan la Laguna	12	San Juan la Laguna	8	Agosto	2023-08-13T00:00:00	2024-11-08T13:00:00	6	Velocidad del viento	0
71262	7	Sololá	717	San Juan la Laguna	12	San Juan la Laguna	8	Agosto	2023-08-13T00:00:00	2024-11-08T13:00:00	7	Dirección del viento	0
71263	7	Sololá	717	San Juan la Laguna	12	San Juan la Laguna	8	Agosto	2023-08-13T00:00:00	2024-11-08T13:00:00	1	Precipitación	0
71264	7	Sololá	717	San Juan la Laguna	12	San Juan la Laguna	8	Agosto	2023-08-13T00:00:00	2024-11-08T13:00:00	8	Radiación solar	346
71265	7	Sololá	717	San Juan la Laguna	12	San Juan la Laguna	8	Agosto	2023-08-13T00:00:00	2024-11-08T14:00:00	2	Temperatura media	24.6
71266	7	Sololá	717	San Juan la Laguna	12	San Juan la Laguna	8	Agosto	2023-08-13T00:00:00	2024-11-08T14:00:00	4	Temperatura máxima	25.9
71267	7	Sololá	717	San Juan la Laguna	12	San Juan la Laguna	8	Agosto	2023-08-13T00:00:00	2024-11-08T14:00:00	3	Temperatura mínima	24.6
71268	7	Sololá	717	San Juan la Laguna	12	San Juan la Laguna	8	Agosto	2023-08-13T00:00:00	2024-11-08T14:00:00	5	Humedad	61
71269	7	Sololá	717	San Juan la Laguna	12	San Juan la Laguna	8	Agosto	2023-08-13T00:00:00	2024-11-08T14:00:00	6	Velocidad del viento	0
71270	7	Sololá	717	San Juan la Laguna	12	San Juan la Laguna	8	Agosto	2023-08-13T00:00:00	2024-11-08T14:00:00	7	Dirección del viento	0
71271	7	Sololá	717	San Juan la Laguna	12	San Juan la Laguna	8	Agosto	2023-08-13T00:00:00	2024-11-08T14:00:00	1	Precipitación	0
71272	7	Sololá	717	San Juan la Laguna	12	San Juan la Laguna	8	Agosto	2023-08-13T00:00:00	2024-11-08T14:00:00	8	Radiación solar	438
71273	7	Sololá	717	San Juan la Laguna	12	San Juan la Laguna	8	Agosto	2023-08-13T00:00:00	2024-11-08T15:00:00	2	Temperatura media	22.4
71274	7	Sololá	717	San Juan la Laguna	12	San Juan la Laguna	8	Agosto	2023-08-13T00:00:00	2024-11-08T15:00:00	4	Temperatura máxima	24.7
71275	7	Sololá	717	San Juan la Laguna	12	San Juan la Laguna	8	Agosto	2023-08-13T00:00:00	2024-11-08T15:00:00	3	Temperatura mínima	22.4
71276	7	Sololá	717	San Juan la Laguna	12	San Juan la Laguna	8	Agosto	2023-08-13T00:00:00	2024-11-08T15:00:00	5	Humedad	75
71277	7	Sololá	717	San Juan la Laguna	12	San Juan la Laguna	8	Agosto	2023-08-13T00:00:00	2024-11-08T15:00:00	6	Velocidad del viento	1.6
71278	7	Sololá	717	San Juan la Laguna	12	San Juan la Laguna	8	Agosto	2023-08-13T00:00:00	2024-11-08T15:00:00	7	Dirección del viento	1.61
71279	7	Sololá	717	San Juan la Laguna	12	San Juan la Laguna	8	Agosto	2023-08-13T00:00:00	2024-11-08T15:00:00	1	Precipitación	0
71280	7	Sololá	717	San Juan la Laguna	12	San Juan la Laguna	8	Agosto	2023-08-13T00:00:00	2024-11-08T15:00:00	8	Radiación solar	283
71281	7	Sololá	717	San Juan la Laguna	12	San Juan la Laguna	8	Agosto	2023-08-13T00:00:00	2024-11-08T16:00:00	2	Temperatura media	21.9
71282	7	Sololá	717	San Juan la Laguna	12	San Juan la Laguna	8	Agosto	2023-08-13T00:00:00	2024-11-08T16:00:00	4	Temperatura máxima	22.3
71283	7	Sololá	717	San Juan la Laguna	12	San Juan la Laguna	8	Agosto	2023-08-13T00:00:00	2024-11-08T16:00:00	3	Temperatura mínima	21.3
71284	7	Sololá	717	San Juan la Laguna	12	San Juan la Laguna	8	Agosto	2023-08-13T00:00:00	2024-11-08T16:00:00	5	Humedad	76
71285	7	Sololá	717	San Juan la Laguna	12	San Juan la Laguna	8	Agosto	2023-08-13T00:00:00	2024-11-08T16:00:00	6	Velocidad del viento	8
71286	7	Sololá	717	San Juan la Laguna	12	San Juan la Laguna	8	Agosto	2023-08-13T00:00:00	2024-11-08T16:00:00	7	Dirección del viento	8.05
71287	7	Sololá	717	San Juan la Laguna	12	San Juan la Laguna	8	Agosto	2023-08-13T00:00:00	2024-11-08T16:00:00	1	Precipitación	0
71288	7	Sololá	717	San Juan la Laguna	12	San Juan la Laguna	8	Agosto	2023-08-13T00:00:00	2024-11-08T16:00:00	8	Radiación solar	251
71289	7	Sololá	717	San Juan la Laguna	12	San Juan la Laguna	8	Agosto	2023-08-13T00:00:00	2024-11-08T17:00:00	2	Temperatura media	21.2
71290	7	Sololá	717	San Juan la Laguna	12	San Juan la Laguna	8	Agosto	2023-08-13T00:00:00	2024-11-08T17:00:00	4	Temperatura máxima	22.7
71291	7	Sololá	717	San Juan la Laguna	12	San Juan la Laguna	8	Agosto	2023-08-13T00:00:00	2024-11-08T17:00:00	3	Temperatura mínima	21.1
71292	7	Sololá	717	San Juan la Laguna	12	San Juan la Laguna	8	Agosto	2023-08-13T00:00:00	2024-11-08T17:00:00	5	Humedad	80
71293	7	Sololá	717	San Juan la Laguna	12	San Juan la Laguna	8	Agosto	2023-08-13T00:00:00	2024-11-08T17:00:00	6	Velocidad del viento	3.2
71294	7	Sololá	717	San Juan la Laguna	12	San Juan la Laguna	8	Agosto	2023-08-13T00:00:00	2024-11-08T17:00:00	7	Dirección del viento	3.22
71295	7	Sololá	717	San Juan la Laguna	12	San Juan la Laguna	8	Agosto	2023-08-13T00:00:00	2024-11-08T17:00:00	1	Precipitación	0
71296	7	Sololá	717	San Juan la Laguna	12	San Juan la Laguna	8	Agosto	2023-08-13T00:00:00	2024-11-08T17:00:00	8	Radiación solar	322
71297	7	Sololá	717	San Juan la Laguna	12	San Juan la Laguna	8	Agosto	2023-08-13T00:00:00	2024-11-08T18:00:00	2	Temperatura media	20.9
71298	7	Sololá	717	San Juan la Laguna	12	San Juan la Laguna	8	Agosto	2023-08-13T00:00:00	2024-11-08T18:00:00	4	Temperatura máxima	21.2
71299	7	Sololá	717	San Juan la Laguna	12	San Juan la Laguna	8	Agosto	2023-08-13T00:00:00	2024-11-08T18:00:00	3	Temperatura mínima	20.2
71300	7	Sololá	717	San Juan la Laguna	12	San Juan la Laguna	8	Agosto	2023-08-13T00:00:00	2024-11-08T18:00:00	5	Humedad	82
71301	7	Sololá	717	San Juan la Laguna	12	San Juan la Laguna	8	Agosto	2023-08-13T00:00:00	2024-11-08T18:00:00	6	Velocidad del viento	3.2
71302	7	Sololá	717	San Juan la Laguna	12	San Juan la Laguna	8	Agosto	2023-08-13T00:00:00	2024-11-08T18:00:00	7	Dirección del viento	3.22
71303	7	Sololá	717	San Juan la Laguna	12	San Juan la Laguna	8	Agosto	2023-08-13T00:00:00	2024-11-08T18:00:00	1	Precipitación	0
71304	7	Sololá	717	San Juan la Laguna	12	San Juan la Laguna	8	Agosto	2023-08-13T00:00:00	2024-11-08T18:00:00	8	Radiación solar	106
71305	7	Sololá	717	San Juan la Laguna	12	San Juan la Laguna	8	Agosto	2023-08-13T00:00:00	2024-11-08T19:00:00	2	Temperatura media	18.2
71306	7	Sololá	717	San Juan la Laguna	12	San Juan la Laguna	8	Agosto	2023-08-13T00:00:00	2024-11-08T19:00:00	4	Temperatura máxima	21.1
71307	7	Sololá	717	San Juan la Laguna	12	San Juan la Laguna	8	Agosto	2023-08-13T00:00:00	2024-11-08T19:00:00	3	Temperatura mínima	18.1
71308	7	Sololá	717	San Juan la Laguna	12	San Juan la Laguna	8	Agosto	2023-08-13T00:00:00	2024-11-08T19:00:00	5	Humedad	90
71309	7	Sololá	717	San Juan la Laguna	12	San Juan la Laguna	8	Agosto	2023-08-13T00:00:00	2024-11-08T19:00:00	6	Velocidad del viento	6.4
71310	7	Sololá	717	San Juan la Laguna	12	San Juan la Laguna	8	Agosto	2023-08-13T00:00:00	2024-11-08T19:00:00	7	Dirección del viento	6.44
71311	7	Sololá	717	San Juan la Laguna	12	San Juan la Laguna	8	Agosto	2023-08-13T00:00:00	2024-11-08T19:00:00	1	Precipitación	1.2
71312	7	Sololá	717	San Juan la Laguna	12	San Juan la Laguna	8	Agosto	2023-08-13T00:00:00	2024-11-08T19:00:00	8	Radiación solar	0
71313	7	Sololá	717	San Juan la Laguna	12	San Juan la Laguna	8	Agosto	2023-08-13T00:00:00	2024-11-08T20:00:00	2	Temperatura media	17.8
71314	7	Sololá	717	San Juan la Laguna	12	San Juan la Laguna	8	Agosto	2023-08-13T00:00:00	2024-11-08T20:00:00	4	Temperatura máxima	18.2
71315	7	Sololá	717	San Juan la Laguna	12	San Juan la Laguna	8	Agosto	2023-08-13T00:00:00	2024-11-08T20:00:00	3	Temperatura mínima	17.7
71316	7	Sololá	717	San Juan la Laguna	12	San Juan la Laguna	8	Agosto	2023-08-13T00:00:00	2024-11-08T20:00:00	5	Humedad	91
71317	7	Sololá	717	San Juan la Laguna	12	San Juan la Laguna	8	Agosto	2023-08-13T00:00:00	2024-11-08T20:00:00	6	Velocidad del viento	1.6
71318	7	Sololá	717	San Juan la Laguna	12	San Juan la Laguna	8	Agosto	2023-08-13T00:00:00	2024-11-08T20:00:00	7	Dirección del viento	1.61
71319	7	Sololá	717	San Juan la Laguna	12	San Juan la Laguna	8	Agosto	2023-08-13T00:00:00	2024-11-08T20:00:00	1	Precipitación	1.8
71320	7	Sololá	717	San Juan la Laguna	12	San Juan la Laguna	8	Agosto	2023-08-13T00:00:00	2024-11-08T20:00:00	8	Radiación solar	0
71321	7	Sololá	717	San Juan la Laguna	12	San Juan la Laguna	8	Agosto	2023-08-13T00:00:00	2024-11-08T21:00:00	2	Temperatura media	17.3
71322	7	Sololá	717	San Juan la Laguna	12	San Juan la Laguna	8	Agosto	2023-08-13T00:00:00	2024-11-08T21:00:00	4	Temperatura máxima	17.9
71323	7	Sololá	717	San Juan la Laguna	12	San Juan la Laguna	8	Agosto	2023-08-13T00:00:00	2024-11-08T21:00:00	3	Temperatura mínima	17.3
71324	7	Sololá	717	San Juan la Laguna	12	San Juan la Laguna	8	Agosto	2023-08-13T00:00:00	2024-11-08T21:00:00	5	Humedad	89
71325	7	Sololá	717	San Juan la Laguna	12	San Juan la Laguna	8	Agosto	2023-08-13T00:00:00	2024-11-08T21:00:00	6	Velocidad del viento	1.6
71326	7	Sololá	717	San Juan la Laguna	12	San Juan la Laguna	8	Agosto	2023-08-13T00:00:00	2024-11-08T21:00:00	7	Dirección del viento	1.61
71327	7	Sololá	717	San Juan la Laguna	12	San Juan la Laguna	8	Agosto	2023-08-13T00:00:00	2024-11-08T21:00:00	1	Precipitación	0
71328	7	Sololá	717	San Juan la Laguna	12	San Juan la Laguna	8	Agosto	2023-08-13T00:00:00	2024-11-08T21:00:00	8	Radiación solar	0
71329	7	Sololá	717	San Juan la Laguna	12	San Juan la Laguna	8	Agosto	2023-08-13T00:00:00	2024-11-08T22:00:00	2	Temperatura media	16.9
71330	7	Sololá	717	San Juan la Laguna	12	San Juan la Laguna	8	Agosto	2023-08-13T00:00:00	2024-11-08T22:00:00	4	Temperatura máxima	17.3
71331	7	Sololá	717	San Juan la Laguna	12	San Juan la Laguna	8	Agosto	2023-08-13T00:00:00	2024-11-08T22:00:00	3	Temperatura mínima	16.8
71332	7	Sololá	717	San Juan la Laguna	12	San Juan la Laguna	8	Agosto	2023-08-13T00:00:00	2024-11-08T22:00:00	5	Humedad	90
71333	7	Sololá	717	San Juan la Laguna	12	San Juan la Laguna	8	Agosto	2023-08-13T00:00:00	2024-11-08T22:00:00	6	Velocidad del viento	3.2
71334	7	Sololá	717	San Juan la Laguna	12	San Juan la Laguna	8	Agosto	2023-08-13T00:00:00	2024-11-08T22:00:00	7	Dirección del viento	3.22
71335	7	Sololá	717	San Juan la Laguna	12	San Juan la Laguna	8	Agosto	2023-08-13T00:00:00	2024-11-08T22:00:00	1	Precipitación	0
71336	7	Sololá	717	San Juan la Laguna	12	San Juan la Laguna	8	Agosto	2023-08-13T00:00:00	2024-11-08T22:00:00	8	Radiación solar	0
71337	7	Sololá	717	San Juan la Laguna	12	San Juan la Laguna	8	Agosto	2023-08-13T00:00:00	2024-11-08T23:00:00	2	Temperatura media	16.7
71338	7	Sololá	717	San Juan la Laguna	12	San Juan la Laguna	8	Agosto	2023-08-13T00:00:00	2024-11-08T23:00:00	4	Temperatura máxima	16.9
71339	7	Sololá	717	San Juan la Laguna	12	San Juan la Laguna	8	Agosto	2023-08-13T00:00:00	2024-11-08T23:00:00	3	Temperatura mínima	16.6
71340	7	Sololá	717	San Juan la Laguna	12	San Juan la Laguna	8	Agosto	2023-08-13T00:00:00	2024-11-08T23:00:00	5	Humedad	91
71341	7	Sololá	717	San Juan la Laguna	12	San Juan la Laguna	8	Agosto	2023-08-13T00:00:00	2024-11-08T23:00:00	6	Velocidad del viento	0
71342	7	Sololá	717	San Juan la Laguna	12	San Juan la Laguna	8	Agosto	2023-08-13T00:00:00	2024-11-08T23:00:00	7	Dirección del viento	0
71343	7	Sololá	717	San Juan la Laguna	12	San Juan la Laguna	8	Agosto	2023-08-13T00:00:00	2024-11-08T23:00:00	1	Precipitación	0
71344	7	Sololá	717	San Juan la Laguna	12	San Juan la Laguna	8	Agosto	2023-08-13T00:00:00	2024-11-08T23:00:00	8	Radiación solar	0
71345	7	Sololá	717	San Juan la Laguna	12	San Juan la Laguna	8	Agosto	2023-08-14T00:00:00	2024-11-08T00:00:00	2	Temperatura media	17.2
71346	7	Sololá	717	San Juan la Laguna	12	San Juan la Laguna	8	Agosto	2023-08-14T00:00:00	2024-11-08T00:00:00	4	Temperatura máxima	17.3
71347	7	Sololá	717	San Juan la Laguna	12	San Juan la Laguna	8	Agosto	2023-08-14T00:00:00	2024-11-08T00:00:00	3	Temperatura mínima	16.7
71348	7	Sololá	717	San Juan la Laguna	12	San Juan la Laguna	8	Agosto	2023-08-14T00:00:00	2024-11-08T00:00:00	5	Humedad	91
71349	7	Sololá	717	San Juan la Laguna	12	San Juan la Laguna	8	Agosto	2023-08-14T00:00:00	2024-11-08T00:00:00	6	Velocidad del viento	1.6
71350	7	Sololá	717	San Juan la Laguna	12	San Juan la Laguna	8	Agosto	2023-08-14T00:00:00	2024-11-08T00:00:00	7	Dirección del viento	1.61
71351	7	Sololá	717	San Juan la Laguna	12	San Juan la Laguna	8	Agosto	2023-08-14T00:00:00	2024-11-08T00:00:00	1	Precipitación	0
71352	7	Sololá	717	San Juan la Laguna	12	San Juan la Laguna	8	Agosto	2023-08-14T00:00:00	2024-11-08T00:00:00	8	Radiación solar	0
71353	7	Sololá	717	San Juan la Laguna	12	San Juan la Laguna	8	Agosto	2023-08-14T00:00:00	2024-11-08T01:00:00	2	Temperatura media	17.3
71354	7	Sololá	717	San Juan la Laguna	12	San Juan la Laguna	8	Agosto	2023-08-14T00:00:00	2024-11-08T01:00:00	4	Temperatura máxima	17.4
71355	7	Sololá	717	San Juan la Laguna	12	San Juan la Laguna	8	Agosto	2023-08-14T00:00:00	2024-11-08T01:00:00	3	Temperatura mínima	17.2
71356	7	Sololá	717	San Juan la Laguna	12	San Juan la Laguna	8	Agosto	2023-08-14T00:00:00	2024-11-08T01:00:00	5	Humedad	91
71357	7	Sololá	717	San Juan la Laguna	12	San Juan la Laguna	8	Agosto	2023-08-14T00:00:00	2024-11-08T01:00:00	6	Velocidad del viento	0
71358	7	Sololá	717	San Juan la Laguna	12	San Juan la Laguna	8	Agosto	2023-08-14T00:00:00	2024-11-08T01:00:00	7	Dirección del viento	0
71359	7	Sololá	717	San Juan la Laguna	12	San Juan la Laguna	8	Agosto	2023-08-14T00:00:00	2024-11-08T01:00:00	1	Precipitación	0
71360	7	Sololá	717	San Juan la Laguna	12	San Juan la Laguna	8	Agosto	2023-08-14T00:00:00	2024-11-08T01:00:00	8	Radiación solar	0
71361	7	Sololá	717	San Juan la Laguna	12	San Juan la Laguna	8	Agosto	2023-08-14T00:00:00	2024-11-08T02:00:00	2	Temperatura media	17.4
71362	7	Sololá	717	San Juan la Laguna	12	San Juan la Laguna	8	Agosto	2023-08-14T00:00:00	2024-11-08T02:00:00	4	Temperatura máxima	17.4
71363	7	Sololá	717	San Juan la Laguna	12	San Juan la Laguna	8	Agosto	2023-08-14T00:00:00	2024-11-08T02:00:00	3	Temperatura mínima	17.3
71364	7	Sololá	717	San Juan la Laguna	12	San Juan la Laguna	8	Agosto	2023-08-14T00:00:00	2024-11-08T02:00:00	5	Humedad	91
71365	7	Sololá	717	San Juan la Laguna	12	San Juan la Laguna	8	Agosto	2023-08-14T00:00:00	2024-11-08T02:00:00	6	Velocidad del viento	1.6
71366	7	Sololá	717	San Juan la Laguna	12	San Juan la Laguna	8	Agosto	2023-08-14T00:00:00	2024-11-08T02:00:00	7	Dirección del viento	1.61
71367	7	Sololá	717	San Juan la Laguna	12	San Juan la Laguna	8	Agosto	2023-08-14T00:00:00	2024-11-08T02:00:00	1	Precipitación	0
71368	7	Sololá	717	San Juan la Laguna	12	San Juan la Laguna	8	Agosto	2023-08-14T00:00:00	2024-11-08T02:00:00	8	Radiación solar	0
71369	7	Sololá	717	San Juan la Laguna	12	San Juan la Laguna	8	Agosto	2023-08-14T00:00:00	2024-11-08T03:00:00	2	Temperatura media	16.7
71370	7	Sololá	717	San Juan la Laguna	12	San Juan la Laguna	8	Agosto	2023-08-14T00:00:00	2024-11-08T03:00:00	4	Temperatura máxima	17.7
71371	7	Sololá	717	San Juan la Laguna	12	San Juan la Laguna	8	Agosto	2023-08-14T00:00:00	2024-11-08T03:00:00	3	Temperatura mínima	16.7
71372	7	Sololá	717	San Juan la Laguna	12	San Juan la Laguna	8	Agosto	2023-08-14T00:00:00	2024-11-08T03:00:00	5	Humedad	91
71373	7	Sololá	717	San Juan la Laguna	12	San Juan la Laguna	8	Agosto	2023-08-14T00:00:00	2024-11-08T03:00:00	6	Velocidad del viento	0
71374	7	Sololá	717	San Juan la Laguna	12	San Juan la Laguna	8	Agosto	2023-08-14T00:00:00	2024-11-08T03:00:00	7	Dirección del viento	0
71375	7	Sololá	717	San Juan la Laguna	12	San Juan la Laguna	8	Agosto	2023-08-14T00:00:00	2024-11-08T03:00:00	1	Precipitación	0
71376	7	Sololá	717	San Juan la Laguna	12	San Juan la Laguna	8	Agosto	2023-08-14T00:00:00	2024-11-08T03:00:00	8	Radiación solar	0
71377	7	Sololá	717	San Juan la Laguna	12	San Juan la Laguna	8	Agosto	2023-08-14T00:00:00	2024-11-08T04:00:00	2	Temperatura media	16.4
71378	7	Sololá	717	San Juan la Laguna	12	San Juan la Laguna	8	Agosto	2023-08-14T00:00:00	2024-11-08T04:00:00	4	Temperatura máxima	16.9
71379	7	Sololá	717	San Juan la Laguna	12	San Juan la Laguna	8	Agosto	2023-08-14T00:00:00	2024-11-08T04:00:00	3	Temperatura mínima	16.3
71380	7	Sololá	717	San Juan la Laguna	12	San Juan la Laguna	8	Agosto	2023-08-14T00:00:00	2024-11-08T04:00:00	5	Humedad	89
71381	7	Sololá	717	San Juan la Laguna	12	San Juan la Laguna	8	Agosto	2023-08-14T00:00:00	2024-11-08T04:00:00	6	Velocidad del viento	0
71382	7	Sololá	717	San Juan la Laguna	12	San Juan la Laguna	8	Agosto	2023-08-14T00:00:00	2024-11-08T04:00:00	7	Dirección del viento	0
71383	7	Sololá	717	San Juan la Laguna	12	San Juan la Laguna	8	Agosto	2023-08-14T00:00:00	2024-11-08T04:00:00	1	Precipitación	0
71384	7	Sololá	717	San Juan la Laguna	12	San Juan la Laguna	8	Agosto	2023-08-14T00:00:00	2024-11-08T04:00:00	8	Radiación solar	0
71385	7	Sololá	717	San Juan la Laguna	12	San Juan la Laguna	8	Agosto	2023-08-14T00:00:00	2024-11-08T05:00:00	2	Temperatura media	19.1
71386	7	Sololá	717	San Juan la Laguna	12	San Juan la Laguna	8	Agosto	2023-08-14T00:00:00	2024-11-08T05:00:00	4	Temperatura máxima	19.1
71387	7	Sololá	717	San Juan la Laguna	12	San Juan la Laguna	8	Agosto	2023-08-14T00:00:00	2024-11-08T05:00:00	3	Temperatura mínima	16.4
71388	7	Sololá	717	San Juan la Laguna	12	San Juan la Laguna	8	Agosto	2023-08-14T00:00:00	2024-11-08T05:00:00	5	Humedad	74
71389	7	Sololá	717	San Juan la Laguna	12	San Juan la Laguna	8	Agosto	2023-08-14T00:00:00	2024-11-08T05:00:00	6	Velocidad del viento	3.2
71390	7	Sololá	717	San Juan la Laguna	12	San Juan la Laguna	8	Agosto	2023-08-14T00:00:00	2024-11-08T05:00:00	7	Dirección del viento	3.22
71391	7	Sololá	717	San Juan la Laguna	12	San Juan la Laguna	8	Agosto	2023-08-14T00:00:00	2024-11-08T05:00:00	1	Precipitación	0
71392	7	Sololá	717	San Juan la Laguna	12	San Juan la Laguna	8	Agosto	2023-08-14T00:00:00	2024-11-08T05:00:00	8	Radiación solar	0
71393	7	Sololá	717	San Juan la Laguna	12	San Juan la Laguna	8	Agosto	2023-08-14T00:00:00	2024-11-08T06:00:00	2	Temperatura media	16.4
71394	7	Sololá	717	San Juan la Laguna	12	San Juan la Laguna	8	Agosto	2023-08-14T00:00:00	2024-11-08T06:00:00	4	Temperatura máxima	19.2
71395	7	Sololá	717	San Juan la Laguna	12	San Juan la Laguna	8	Agosto	2023-08-14T00:00:00	2024-11-08T06:00:00	3	Temperatura mínima	16.1
71396	7	Sololá	717	San Juan la Laguna	12	San Juan la Laguna	8	Agosto	2023-08-14T00:00:00	2024-11-08T06:00:00	5	Humedad	85
71397	7	Sololá	717	San Juan la Laguna	12	San Juan la Laguna	8	Agosto	2023-08-14T00:00:00	2024-11-08T06:00:00	6	Velocidad del viento	0
71398	7	Sololá	717	San Juan la Laguna	12	San Juan la Laguna	8	Agosto	2023-08-14T00:00:00	2024-11-08T06:00:00	7	Dirección del viento	0
71399	7	Sololá	717	San Juan la Laguna	12	San Juan la Laguna	8	Agosto	2023-08-14T00:00:00	2024-11-08T06:00:00	1	Precipitación	0
71400	7	Sololá	717	San Juan la Laguna	12	San Juan la Laguna	8	Agosto	2023-08-14T00:00:00	2024-11-08T06:00:00	8	Radiación solar	1
71401	7	Sololá	717	San Juan la Laguna	12	San Juan la Laguna	8	Agosto	2023-08-14T00:00:00	2024-11-08T07:00:00	2	Temperatura media	17.1
71402	7	Sololá	717	San Juan la Laguna	12	San Juan la Laguna	8	Agosto	2023-08-14T00:00:00	2024-11-08T07:00:00	4	Temperatura máxima	17.1
71403	7	Sololá	717	San Juan la Laguna	12	San Juan la Laguna	8	Agosto	2023-08-14T00:00:00	2024-11-08T07:00:00	3	Temperatura mínima	15.9
71404	7	Sololá	717	San Juan la Laguna	12	San Juan la Laguna	8	Agosto	2023-08-14T00:00:00	2024-11-08T07:00:00	5	Humedad	85
71405	7	Sololá	717	San Juan la Laguna	12	San Juan la Laguna	8	Agosto	2023-08-14T00:00:00	2024-11-08T07:00:00	6	Velocidad del viento	0
71406	7	Sololá	717	San Juan la Laguna	12	San Juan la Laguna	8	Agosto	2023-08-14T00:00:00	2024-11-08T07:00:00	7	Dirección del viento	0
71407	7	Sololá	717	San Juan la Laguna	12	San Juan la Laguna	8	Agosto	2023-08-14T00:00:00	2024-11-08T07:00:00	1	Precipitación	0
71408	7	Sololá	717	San Juan la Laguna	12	San Juan la Laguna	8	Agosto	2023-08-14T00:00:00	2024-11-08T07:00:00	8	Radiación solar	50
71409	7	Sololá	717	San Juan la Laguna	12	San Juan la Laguna	8	Agosto	2023-08-14T00:00:00	2024-11-08T08:00:00	2	Temperatura media	23.1
71410	7	Sololá	717	San Juan la Laguna	12	San Juan la Laguna	8	Agosto	2023-08-14T00:00:00	2024-11-08T08:00:00	4	Temperatura máxima	23.2
71411	7	Sololá	717	San Juan la Laguna	12	San Juan la Laguna	8	Agosto	2023-08-14T00:00:00	2024-11-08T08:00:00	3	Temperatura mínima	17.1
71412	7	Sololá	717	San Juan la Laguna	12	San Juan la Laguna	8	Agosto	2023-08-14T00:00:00	2024-11-08T08:00:00	5	Humedad	58
71413	7	Sololá	717	San Juan la Laguna	12	San Juan la Laguna	8	Agosto	2023-08-14T00:00:00	2024-11-08T08:00:00	6	Velocidad del viento	1.6
71414	7	Sololá	717	San Juan la Laguna	12	San Juan la Laguna	8	Agosto	2023-08-14T00:00:00	2024-11-08T08:00:00	7	Dirección del viento	1.61
71415	7	Sololá	717	San Juan la Laguna	12	San Juan la Laguna	8	Agosto	2023-08-14T00:00:00	2024-11-08T08:00:00	1	Precipitación	0
71416	7	Sololá	717	San Juan la Laguna	12	San Juan la Laguna	8	Agosto	2023-08-14T00:00:00	2024-11-08T08:00:00	8	Radiación solar	282
71417	7	Sololá	717	San Juan la Laguna	12	San Juan la Laguna	8	Agosto	2023-08-14T00:00:00	2024-11-08T09:00:00	2	Temperatura media	23.8
71418	7	Sololá	717	San Juan la Laguna	12	San Juan la Laguna	8	Agosto	2023-08-14T00:00:00	2024-11-08T09:00:00	4	Temperatura máxima	23.8
71419	7	Sololá	717	San Juan la Laguna	12	San Juan la Laguna	8	Agosto	2023-08-14T00:00:00	2024-11-08T09:00:00	3	Temperatura mínima	23.1
71420	7	Sololá	717	San Juan la Laguna	12	San Juan la Laguna	8	Agosto	2023-08-14T00:00:00	2024-11-08T09:00:00	5	Humedad	57
71421	7	Sololá	717	San Juan la Laguna	12	San Juan la Laguna	8	Agosto	2023-08-14T00:00:00	2024-11-08T09:00:00	6	Velocidad del viento	9.7
71422	7	Sololá	717	San Juan la Laguna	12	San Juan la Laguna	8	Agosto	2023-08-14T00:00:00	2024-11-08T09:00:00	7	Dirección del viento	9.66
71423	7	Sololá	717	San Juan la Laguna	12	San Juan la Laguna	8	Agosto	2023-08-14T00:00:00	2024-11-08T09:00:00	1	Precipitación	0
71424	7	Sololá	717	San Juan la Laguna	12	San Juan la Laguna	8	Agosto	2023-08-14T00:00:00	2024-11-08T09:00:00	8	Radiación solar	502
71425	7	Sololá	717	San Juan la Laguna	12	San Juan la Laguna	8	Agosto	2023-08-14T00:00:00	2024-11-08T10:00:00	2	Temperatura media	24.3
71426	7	Sololá	717	San Juan la Laguna	12	San Juan la Laguna	8	Agosto	2023-08-14T00:00:00	2024-11-08T10:00:00	4	Temperatura máxima	24.9
71427	7	Sololá	717	San Juan la Laguna	12	San Juan la Laguna	8	Agosto	2023-08-14T00:00:00	2024-11-08T10:00:00	3	Temperatura mínima	23.8
71428	7	Sololá	717	San Juan la Laguna	12	San Juan la Laguna	8	Agosto	2023-08-14T00:00:00	2024-11-08T10:00:00	5	Humedad	52
71429	7	Sololá	717	San Juan la Laguna	12	San Juan la Laguna	8	Agosto	2023-08-14T00:00:00	2024-11-08T10:00:00	6	Velocidad del viento	4.8
71430	7	Sololá	717	San Juan la Laguna	12	San Juan la Laguna	8	Agosto	2023-08-14T00:00:00	2024-11-08T10:00:00	7	Dirección del viento	4.83
71431	7	Sololá	717	San Juan la Laguna	12	San Juan la Laguna	8	Agosto	2023-08-14T00:00:00	2024-11-08T10:00:00	1	Precipitación	0
71432	7	Sololá	717	San Juan la Laguna	12	San Juan la Laguna	8	Agosto	2023-08-14T00:00:00	2024-11-08T10:00:00	8	Radiación solar	638
71433	7	Sololá	717	San Juan la Laguna	12	San Juan la Laguna	8	Agosto	2023-08-14T00:00:00	2024-11-08T11:00:00	2	Temperatura media	24.8
71434	7	Sololá	717	San Juan la Laguna	12	San Juan la Laguna	8	Agosto	2023-08-14T00:00:00	2024-11-08T11:00:00	4	Temperatura máxima	25.1
71435	7	Sololá	717	San Juan la Laguna	12	San Juan la Laguna	8	Agosto	2023-08-14T00:00:00	2024-11-08T11:00:00	3	Temperatura mínima	23.9
71436	7	Sololá	717	San Juan la Laguna	12	San Juan la Laguna	8	Agosto	2023-08-14T00:00:00	2024-11-08T11:00:00	5	Humedad	50
71437	7	Sololá	717	San Juan la Laguna	12	San Juan la Laguna	8	Agosto	2023-08-14T00:00:00	2024-11-08T11:00:00	6	Velocidad del viento	6.4
71438	7	Sololá	717	San Juan la Laguna	12	San Juan la Laguna	8	Agosto	2023-08-14T00:00:00	2024-11-08T11:00:00	7	Dirección del viento	6.44
71439	7	Sololá	717	San Juan la Laguna	12	San Juan la Laguna	8	Agosto	2023-08-14T00:00:00	2024-11-08T11:00:00	1	Precipitación	0
71440	7	Sololá	717	San Juan la Laguna	12	San Juan la Laguna	8	Agosto	2023-08-14T00:00:00	2024-11-08T11:00:00	8	Radiación solar	906
71441	7	Sololá	717	San Juan la Laguna	12	San Juan la Laguna	8	Agosto	2023-08-14T00:00:00	2024-11-08T12:00:00	2	Temperatura media	25.9
71442	7	Sololá	717	San Juan la Laguna	12	San Juan la Laguna	8	Agosto	2023-08-14T00:00:00	2024-11-08T12:00:00	4	Temperatura máxima	25.9
71443	7	Sololá	717	San Juan la Laguna	12	San Juan la Laguna	8	Agosto	2023-08-14T00:00:00	2024-11-08T12:00:00	3	Temperatura mínima	24.8
71444	7	Sololá	717	San Juan la Laguna	12	San Juan la Laguna	8	Agosto	2023-08-14T00:00:00	2024-11-08T12:00:00	5	Humedad	46
71445	7	Sololá	717	San Juan la Laguna	12	San Juan la Laguna	8	Agosto	2023-08-14T00:00:00	2024-11-08T12:00:00	6	Velocidad del viento	4.8
71446	7	Sololá	717	San Juan la Laguna	12	San Juan la Laguna	8	Agosto	2023-08-14T00:00:00	2024-11-08T12:00:00	7	Dirección del viento	4.83
71447	7	Sololá	717	San Juan la Laguna	12	San Juan la Laguna	8	Agosto	2023-08-14T00:00:00	2024-11-08T12:00:00	1	Precipitación	0
71448	7	Sololá	717	San Juan la Laguna	12	San Juan la Laguna	8	Agosto	2023-08-14T00:00:00	2024-11-08T12:00:00	8	Radiación solar	998
71449	7	Sololá	717	San Juan la Laguna	12	San Juan la Laguna	8	Agosto	2023-08-14T00:00:00	2024-11-08T13:00:00	2	Temperatura media	26.3
71450	7	Sololá	717	San Juan la Laguna	12	San Juan la Laguna	8	Agosto	2023-08-14T00:00:00	2024-11-08T13:00:00	4	Temperatura máxima	26.3
71451	7	Sololá	717	San Juan la Laguna	12	San Juan la Laguna	8	Agosto	2023-08-14T00:00:00	2024-11-08T13:00:00	3	Temperatura mínima	25.5
71452	7	Sololá	717	San Juan la Laguna	12	San Juan la Laguna	8	Agosto	2023-08-14T00:00:00	2024-11-08T13:00:00	5	Humedad	45
71453	7	Sololá	717	San Juan la Laguna	12	San Juan la Laguna	8	Agosto	2023-08-14T00:00:00	2024-11-08T13:00:00	6	Velocidad del viento	4.8
71454	7	Sololá	717	San Juan la Laguna	12	San Juan la Laguna	8	Agosto	2023-08-14T00:00:00	2024-11-08T13:00:00	7	Dirección del viento	4.83
71455	7	Sololá	717	San Juan la Laguna	12	San Juan la Laguna	8	Agosto	2023-08-14T00:00:00	2024-11-08T13:00:00	1	Precipitación	0
71456	7	Sololá	717	San Juan la Laguna	12	San Juan la Laguna	8	Agosto	2023-08-14T00:00:00	2024-11-08T13:00:00	8	Radiación solar	983
71457	7	Sololá	717	San Juan la Laguna	12	San Juan la Laguna	8	Agosto	2023-08-14T00:00:00	2024-11-08T14:00:00	2	Temperatura media	26.8
71458	7	Sololá	717	San Juan la Laguna	12	San Juan la Laguna	8	Agosto	2023-08-14T00:00:00	2024-11-08T14:00:00	4	Temperatura máxima	26.8
71459	7	Sololá	717	San Juan la Laguna	12	San Juan la Laguna	8	Agosto	2023-08-14T00:00:00	2024-11-08T14:00:00	3	Temperatura mínima	26.2
71460	7	Sololá	717	San Juan la Laguna	12	San Juan la Laguna	8	Agosto	2023-08-14T00:00:00	2024-11-08T14:00:00	5	Humedad	46
71461	7	Sololá	717	San Juan la Laguna	12	San Juan la Laguna	8	Agosto	2023-08-14T00:00:00	2024-11-08T14:00:00	6	Velocidad del viento	1.6
71462	7	Sololá	717	San Juan la Laguna	12	San Juan la Laguna	8	Agosto	2023-08-14T00:00:00	2024-11-08T14:00:00	7	Dirección del viento	1.61
71463	7	Sololá	717	San Juan la Laguna	12	San Juan la Laguna	8	Agosto	2023-08-14T00:00:00	2024-11-08T14:00:00	1	Precipitación	0
71464	7	Sololá	717	San Juan la Laguna	12	San Juan la Laguna	8	Agosto	2023-08-14T00:00:00	2024-11-08T14:00:00	8	Radiación solar	912
71465	7	Sololá	717	San Juan la Laguna	12	San Juan la Laguna	8	Agosto	2023-08-14T00:00:00	2024-11-08T15:00:00	2	Temperatura media	26.8
71466	7	Sololá	717	San Juan la Laguna	12	San Juan la Laguna	8	Agosto	2023-08-14T00:00:00	2024-11-08T15:00:00	4	Temperatura máxima	27.3
71467	7	Sololá	717	San Juan la Laguna	12	San Juan la Laguna	8	Agosto	2023-08-14T00:00:00	2024-11-08T15:00:00	3	Temperatura mínima	26.8
71468	7	Sololá	717	San Juan la Laguna	12	San Juan la Laguna	8	Agosto	2023-08-14T00:00:00	2024-11-08T15:00:00	5	Humedad	49
71469	7	Sololá	717	San Juan la Laguna	12	San Juan la Laguna	8	Agosto	2023-08-14T00:00:00	2024-11-08T15:00:00	6	Velocidad del viento	1.6
71470	7	Sololá	717	San Juan la Laguna	12	San Juan la Laguna	8	Agosto	2023-08-14T00:00:00	2024-11-08T15:00:00	7	Dirección del viento	1.61
71471	7	Sololá	717	San Juan la Laguna	12	San Juan la Laguna	8	Agosto	2023-08-14T00:00:00	2024-11-08T15:00:00	1	Precipitación	0
71472	7	Sololá	717	San Juan la Laguna	12	San Juan la Laguna	8	Agosto	2023-08-14T00:00:00	2024-11-08T15:00:00	8	Radiación solar	792
71473	7	Sololá	717	San Juan la Laguna	12	San Juan la Laguna	8	Agosto	2023-08-14T00:00:00	2024-11-08T16:00:00	2	Temperatura media	25.7
71474	7	Sololá	717	San Juan la Laguna	12	San Juan la Laguna	8	Agosto	2023-08-14T00:00:00	2024-11-08T16:00:00	4	Temperatura máxima	26.8
71475	7	Sololá	717	San Juan la Laguna	12	San Juan la Laguna	8	Agosto	2023-08-14T00:00:00	2024-11-08T16:00:00	3	Temperatura mínima	25
71476	7	Sololá	717	San Juan la Laguna	12	San Juan la Laguna	8	Agosto	2023-08-14T00:00:00	2024-11-08T16:00:00	5	Humedad	53
71477	7	Sololá	717	San Juan la Laguna	12	San Juan la Laguna	8	Agosto	2023-08-14T00:00:00	2024-11-08T16:00:00	6	Velocidad del viento	0
71478	7	Sololá	717	San Juan la Laguna	12	San Juan la Laguna	8	Agosto	2023-08-14T00:00:00	2024-11-08T16:00:00	7	Dirección del viento	0
71479	7	Sololá	717	San Juan la Laguna	12	San Juan la Laguna	8	Agosto	2023-08-14T00:00:00	2024-11-08T16:00:00	1	Precipitación	0
71480	7	Sololá	717	San Juan la Laguna	12	San Juan la Laguna	8	Agosto	2023-08-14T00:00:00	2024-11-08T16:00:00	8	Radiación solar	396
71481	7	Sololá	717	San Juan la Laguna	12	San Juan la Laguna	8	Agosto	2023-08-14T00:00:00	2024-11-08T17:00:00	2	Temperatura media	24.7
71482	7	Sololá	717	San Juan la Laguna	12	San Juan la Laguna	8	Agosto	2023-08-14T00:00:00	2024-11-08T17:00:00	4	Temperatura máxima	25.7
71483	7	Sololá	717	San Juan la Laguna	12	San Juan la Laguna	8	Agosto	2023-08-14T00:00:00	2024-11-08T17:00:00	3	Temperatura mínima	24.6
71484	7	Sololá	717	San Juan la Laguna	12	San Juan la Laguna	8	Agosto	2023-08-14T00:00:00	2024-11-08T17:00:00	5	Humedad	59
71485	7	Sololá	717	San Juan la Laguna	12	San Juan la Laguna	8	Agosto	2023-08-14T00:00:00	2024-11-08T17:00:00	6	Velocidad del viento	0
71486	7	Sololá	717	San Juan la Laguna	12	San Juan la Laguna	8	Agosto	2023-08-14T00:00:00	2024-11-08T17:00:00	7	Dirección del viento	0
71487	7	Sololá	717	San Juan la Laguna	12	San Juan la Laguna	8	Agosto	2023-08-14T00:00:00	2024-11-08T17:00:00	1	Precipitación	0
71488	7	Sololá	717	San Juan la Laguna	12	San Juan la Laguna	8	Agosto	2023-08-14T00:00:00	2024-11-08T17:00:00	8	Radiación solar	300
71489	7	Sololá	717	San Juan la Laguna	12	San Juan la Laguna	8	Agosto	2023-08-14T00:00:00	2024-11-08T18:00:00	2	Temperatura media	23.7
71490	7	Sololá	717	San Juan la Laguna	12	San Juan la Laguna	8	Agosto	2023-08-14T00:00:00	2024-11-08T18:00:00	4	Temperatura máxima	24.7
71491	7	Sololá	717	San Juan la Laguna	12	San Juan la Laguna	8	Agosto	2023-08-14T00:00:00	2024-11-08T18:00:00	3	Temperatura mínima	23.7
71492	7	Sololá	717	San Juan la Laguna	12	San Juan la Laguna	8	Agosto	2023-08-14T00:00:00	2024-11-08T18:00:00	5	Humedad	61
71493	7	Sololá	717	San Juan la Laguna	12	San Juan la Laguna	8	Agosto	2023-08-14T00:00:00	2024-11-08T18:00:00	6	Velocidad del viento	0
71494	7	Sololá	717	San Juan la Laguna	12	San Juan la Laguna	8	Agosto	2023-08-14T00:00:00	2024-11-08T18:00:00	7	Dirección del viento	0
71495	7	Sololá	717	San Juan la Laguna	12	San Juan la Laguna	8	Agosto	2023-08-14T00:00:00	2024-11-08T18:00:00	1	Precipitación	0
71496	7	Sololá	717	San Juan la Laguna	12	San Juan la Laguna	8	Agosto	2023-08-14T00:00:00	2024-11-08T18:00:00	8	Radiación solar	131
71497	7	Sololá	717	San Juan la Laguna	12	San Juan la Laguna	8	Agosto	2023-08-14T00:00:00	2024-11-08T19:00:00	2	Temperatura media	22.2
71498	7	Sololá	717	San Juan la Laguna	12	San Juan la Laguna	8	Agosto	2023-08-14T00:00:00	2024-11-08T19:00:00	4	Temperatura máxima	23.7
71499	7	Sololá	717	San Juan la Laguna	12	San Juan la Laguna	8	Agosto	2023-08-14T00:00:00	2024-11-08T19:00:00	3	Temperatura mínima	22.2
71500	7	Sololá	717	San Juan la Laguna	12	San Juan la Laguna	8	Agosto	2023-08-14T00:00:00	2024-11-08T19:00:00	5	Humedad	69
71501	7	Sololá	717	San Juan la Laguna	12	San Juan la Laguna	8	Agosto	2023-08-14T00:00:00	2024-11-08T19:00:00	6	Velocidad del viento	0
71502	7	Sololá	717	San Juan la Laguna	12	San Juan la Laguna	8	Agosto	2023-08-14T00:00:00	2024-11-08T19:00:00	7	Dirección del viento	0
71503	7	Sololá	717	San Juan la Laguna	12	San Juan la Laguna	8	Agosto	2023-08-14T00:00:00	2024-11-08T19:00:00	1	Precipitación	0
71504	7	Sololá	717	San Juan la Laguna	12	San Juan la Laguna	8	Agosto	2023-08-14T00:00:00	2024-11-08T19:00:00	8	Radiación solar	0
71505	7	Sololá	717	San Juan la Laguna	12	San Juan la Laguna	8	Agosto	2023-08-14T00:00:00	2024-11-08T20:00:00	2	Temperatura media	19.9
71506	7	Sololá	717	San Juan la Laguna	12	San Juan la Laguna	8	Agosto	2023-08-14T00:00:00	2024-11-08T20:00:00	4	Temperatura máxima	22.2
71507	7	Sololá	717	San Juan la Laguna	12	San Juan la Laguna	8	Agosto	2023-08-14T00:00:00	2024-11-08T20:00:00	3	Temperatura mínima	19.9
71508	7	Sololá	717	San Juan la Laguna	12	San Juan la Laguna	8	Agosto	2023-08-14T00:00:00	2024-11-08T20:00:00	5	Humedad	78
71509	7	Sololá	717	San Juan la Laguna	12	San Juan la Laguna	8	Agosto	2023-08-14T00:00:00	2024-11-08T20:00:00	6	Velocidad del viento	0
71510	7	Sololá	717	San Juan la Laguna	12	San Juan la Laguna	8	Agosto	2023-08-14T00:00:00	2024-11-08T20:00:00	7	Dirección del viento	0
71511	7	Sololá	717	San Juan la Laguna	12	San Juan la Laguna	8	Agosto	2023-08-14T00:00:00	2024-11-08T20:00:00	1	Precipitación	0
71512	7	Sololá	717	San Juan la Laguna	12	San Juan la Laguna	8	Agosto	2023-08-14T00:00:00	2024-11-08T20:00:00	8	Radiación solar	0
71513	7	Sololá	717	San Juan la Laguna	12	San Juan la Laguna	8	Agosto	2023-08-14T00:00:00	2024-11-08T21:00:00	2	Temperatura media	19.6
71514	7	Sololá	717	San Juan la Laguna	12	San Juan la Laguna	8	Agosto	2023-08-14T00:00:00	2024-11-08T21:00:00	4	Temperatura máxima	19.8
71515	7	Sololá	717	San Juan la Laguna	12	San Juan la Laguna	8	Agosto	2023-08-14T00:00:00	2024-11-08T21:00:00	3	Temperatura mínima	19.3
71516	7	Sololá	717	San Juan la Laguna	12	San Juan la Laguna	8	Agosto	2023-08-14T00:00:00	2024-11-08T21:00:00	5	Humedad	79
71517	7	Sololá	717	San Juan la Laguna	12	San Juan la Laguna	8	Agosto	2023-08-14T00:00:00	2024-11-08T21:00:00	6	Velocidad del viento	0
71518	7	Sololá	717	San Juan la Laguna	12	San Juan la Laguna	8	Agosto	2023-08-14T00:00:00	2024-11-08T21:00:00	7	Dirección del viento	0
71519	7	Sololá	717	San Juan la Laguna	12	San Juan la Laguna	8	Agosto	2023-08-14T00:00:00	2024-11-08T21:00:00	1	Precipitación	0
71520	7	Sololá	717	San Juan la Laguna	12	San Juan la Laguna	8	Agosto	2023-08-14T00:00:00	2024-11-08T21:00:00	8	Radiación solar	0
71521	7	Sololá	717	San Juan la Laguna	12	San Juan la Laguna	8	Agosto	2023-08-14T00:00:00	2024-11-08T22:00:00	2	Temperatura media	18.2
71522	7	Sololá	717	San Juan la Laguna	12	San Juan la Laguna	8	Agosto	2023-08-14T00:00:00	2024-11-08T22:00:00	4	Temperatura máxima	19.7
71523	7	Sololá	717	San Juan la Laguna	12	San Juan la Laguna	8	Agosto	2023-08-14T00:00:00	2024-11-08T22:00:00	3	Temperatura mínima	18.2
71524	7	Sololá	717	San Juan la Laguna	12	San Juan la Laguna	8	Agosto	2023-08-14T00:00:00	2024-11-08T22:00:00	5	Humedad	86
71525	7	Sololá	717	San Juan la Laguna	12	San Juan la Laguna	8	Agosto	2023-08-14T00:00:00	2024-11-08T22:00:00	6	Velocidad del viento	0
71526	7	Sololá	717	San Juan la Laguna	12	San Juan la Laguna	8	Agosto	2023-08-14T00:00:00	2024-11-08T22:00:00	7	Dirección del viento	0
71527	7	Sololá	717	San Juan la Laguna	12	San Juan la Laguna	8	Agosto	2023-08-14T00:00:00	2024-11-08T22:00:00	1	Precipitación	0
71528	7	Sololá	717	San Juan la Laguna	12	San Juan la Laguna	8	Agosto	2023-08-14T00:00:00	2024-11-08T22:00:00	8	Radiación solar	0
71529	7	Sololá	717	San Juan la Laguna	12	San Juan la Laguna	8	Agosto	2023-08-14T00:00:00	2024-11-08T23:00:00	2	Temperatura media	18.8
71530	7	Sololá	717	San Juan la Laguna	12	San Juan la Laguna	8	Agosto	2023-08-14T00:00:00	2024-11-08T23:00:00	4	Temperatura máxima	19.2
71531	7	Sololá	717	San Juan la Laguna	12	San Juan la Laguna	8	Agosto	2023-08-14T00:00:00	2024-11-08T23:00:00	3	Temperatura mínima	18.1
71532	7	Sololá	717	San Juan la Laguna	12	San Juan la Laguna	8	Agosto	2023-08-14T00:00:00	2024-11-08T23:00:00	5	Humedad	85
71533	7	Sololá	717	San Juan la Laguna	12	San Juan la Laguna	8	Agosto	2023-08-14T00:00:00	2024-11-08T23:00:00	6	Velocidad del viento	0
71534	7	Sololá	717	San Juan la Laguna	12	San Juan la Laguna	8	Agosto	2023-08-14T00:00:00	2024-11-08T23:00:00	7	Dirección del viento	0
71535	7	Sololá	717	San Juan la Laguna	12	San Juan la Laguna	8	Agosto	2023-08-14T00:00:00	2024-11-08T23:00:00	1	Precipitación	0
71536	7	Sololá	717	San Juan la Laguna	12	San Juan la Laguna	8	Agosto	2023-08-14T00:00:00	2024-11-08T23:00:00	8	Radiación solar	0
71537	7	Sololá	717	San Juan la Laguna	12	San Juan la Laguna	8	Agosto	2023-08-15T00:00:00	2024-11-08T00:00:00	2	Temperatura media	17.8
71538	7	Sololá	717	San Juan la Laguna	12	San Juan la Laguna	8	Agosto	2023-08-15T00:00:00	2024-11-08T00:00:00	4	Temperatura máxima	18.9
71539	7	Sololá	717	San Juan la Laguna	12	San Juan la Laguna	8	Agosto	2023-08-15T00:00:00	2024-11-08T00:00:00	3	Temperatura mínima	17.8
71540	7	Sololá	717	San Juan la Laguna	12	San Juan la Laguna	8	Agosto	2023-08-15T00:00:00	2024-11-08T00:00:00	5	Humedad	91
71541	7	Sololá	717	San Juan la Laguna	12	San Juan la Laguna	8	Agosto	2023-08-15T00:00:00	2024-11-08T00:00:00	6	Velocidad del viento	0
71542	7	Sololá	717	San Juan la Laguna	12	San Juan la Laguna	8	Agosto	2023-08-15T00:00:00	2024-11-08T00:00:00	7	Dirección del viento	0
71543	7	Sololá	717	San Juan la Laguna	12	San Juan la Laguna	8	Agosto	2023-08-15T00:00:00	2024-11-08T00:00:00	1	Precipitación	1.6
71544	7	Sololá	717	San Juan la Laguna	12	San Juan la Laguna	8	Agosto	2023-08-15T00:00:00	2024-11-08T00:00:00	8	Radiación solar	0
71545	7	Sololá	717	San Juan la Laguna	12	San Juan la Laguna	8	Agosto	2023-08-15T00:00:00	2024-11-08T01:00:00	2	Temperatura media	17.6
71546	7	Sololá	717	San Juan la Laguna	12	San Juan la Laguna	8	Agosto	2023-08-15T00:00:00	2024-11-08T01:00:00	4	Temperatura máxima	17.8
71547	7	Sololá	717	San Juan la Laguna	12	San Juan la Laguna	8	Agosto	2023-08-15T00:00:00	2024-11-08T01:00:00	3	Temperatura mínima	17.6
71548	7	Sololá	717	San Juan la Laguna	12	San Juan la Laguna	8	Agosto	2023-08-15T00:00:00	2024-11-08T01:00:00	5	Humedad	91
71549	7	Sololá	717	San Juan la Laguna	12	San Juan la Laguna	8	Agosto	2023-08-15T00:00:00	2024-11-08T01:00:00	6	Velocidad del viento	1.6
71550	7	Sololá	717	San Juan la Laguna	12	San Juan la Laguna	8	Agosto	2023-08-15T00:00:00	2024-11-08T01:00:00	7	Dirección del viento	1.61
71551	7	Sololá	717	San Juan la Laguna	12	San Juan la Laguna	8	Agosto	2023-08-15T00:00:00	2024-11-08T01:00:00	1	Precipitación	2.8
71552	7	Sololá	717	San Juan la Laguna	12	San Juan la Laguna	8	Agosto	2023-08-15T00:00:00	2024-11-08T01:00:00	8	Radiación solar	0
71553	7	Sololá	717	San Juan la Laguna	12	San Juan la Laguna	8	Agosto	2023-08-15T00:00:00	2024-11-08T02:00:00	2	Temperatura media	16.9
71554	7	Sololá	717	San Juan la Laguna	12	San Juan la Laguna	8	Agosto	2023-08-15T00:00:00	2024-11-08T02:00:00	4	Temperatura máxima	17.6
71555	7	Sololá	717	San Juan la Laguna	12	San Juan la Laguna	8	Agosto	2023-08-15T00:00:00	2024-11-08T02:00:00	3	Temperatura mínima	16.9
71556	7	Sololá	717	San Juan la Laguna	12	San Juan la Laguna	8	Agosto	2023-08-15T00:00:00	2024-11-08T02:00:00	5	Humedad	92
71557	7	Sololá	717	San Juan la Laguna	12	San Juan la Laguna	8	Agosto	2023-08-15T00:00:00	2024-11-08T02:00:00	6	Velocidad del viento	1.6
71558	7	Sololá	717	San Juan la Laguna	12	San Juan la Laguna	8	Agosto	2023-08-15T00:00:00	2024-11-08T02:00:00	7	Dirección del viento	1.61
71559	7	Sololá	717	San Juan la Laguna	12	San Juan la Laguna	8	Agosto	2023-08-15T00:00:00	2024-11-08T02:00:00	1	Precipitación	0.4
71560	7	Sololá	717	San Juan la Laguna	12	San Juan la Laguna	8	Agosto	2023-08-15T00:00:00	2024-11-08T02:00:00	8	Radiación solar	0
71561	7	Sololá	717	San Juan la Laguna	12	San Juan la Laguna	8	Agosto	2023-08-15T00:00:00	2024-11-08T03:00:00	2	Temperatura media	16.3
71562	7	Sololá	717	San Juan la Laguna	12	San Juan la Laguna	8	Agosto	2023-08-15T00:00:00	2024-11-08T03:00:00	4	Temperatura máxima	16.9
71563	7	Sololá	717	San Juan la Laguna	12	San Juan la Laguna	8	Agosto	2023-08-15T00:00:00	2024-11-08T03:00:00	3	Temperatura mínima	16.3
71564	7	Sololá	717	San Juan la Laguna	12	San Juan la Laguna	8	Agosto	2023-08-15T00:00:00	2024-11-08T03:00:00	5	Humedad	91
71565	7	Sololá	717	San Juan la Laguna	12	San Juan la Laguna	8	Agosto	2023-08-15T00:00:00	2024-11-08T03:00:00	6	Velocidad del viento	0
71566	7	Sololá	717	San Juan la Laguna	12	San Juan la Laguna	8	Agosto	2023-08-15T00:00:00	2024-11-08T03:00:00	7	Dirección del viento	0
71567	7	Sololá	717	San Juan la Laguna	12	San Juan la Laguna	8	Agosto	2023-08-15T00:00:00	2024-11-08T03:00:00	1	Precipitación	0
71568	7	Sololá	717	San Juan la Laguna	12	San Juan la Laguna	8	Agosto	2023-08-15T00:00:00	2024-11-08T03:00:00	8	Radiación solar	0
71569	7	Sololá	717	San Juan la Laguna	12	San Juan la Laguna	8	Agosto	2023-08-15T00:00:00	2024-11-08T04:00:00	2	Temperatura media	16.1
71570	7	Sololá	717	San Juan la Laguna	12	San Juan la Laguna	8	Agosto	2023-08-15T00:00:00	2024-11-08T04:00:00	4	Temperatura máxima	16.4
71571	7	Sololá	717	San Juan la Laguna	12	San Juan la Laguna	8	Agosto	2023-08-15T00:00:00	2024-11-08T04:00:00	3	Temperatura mínima	16.1
71572	7	Sololá	717	San Juan la Laguna	12	San Juan la Laguna	8	Agosto	2023-08-15T00:00:00	2024-11-08T04:00:00	5	Humedad	92
71573	7	Sololá	717	San Juan la Laguna	12	San Juan la Laguna	8	Agosto	2023-08-15T00:00:00	2024-11-08T04:00:00	6	Velocidad del viento	0
71574	7	Sololá	717	San Juan la Laguna	12	San Juan la Laguna	8	Agosto	2023-08-15T00:00:00	2024-11-08T04:00:00	7	Dirección del viento	0
71575	7	Sololá	717	San Juan la Laguna	12	San Juan la Laguna	8	Agosto	2023-08-15T00:00:00	2024-11-08T04:00:00	1	Precipitación	0
71576	7	Sololá	717	San Juan la Laguna	12	San Juan la Laguna	8	Agosto	2023-08-15T00:00:00	2024-11-08T04:00:00	8	Radiación solar	0
71577	7	Sololá	717	San Juan la Laguna	12	San Juan la Laguna	8	Agosto	2023-08-15T00:00:00	2024-11-08T05:00:00	2	Temperatura media	15.9
71578	7	Sololá	717	San Juan la Laguna	12	San Juan la Laguna	8	Agosto	2023-08-15T00:00:00	2024-11-08T05:00:00	4	Temperatura máxima	16.2
71579	7	Sololá	717	San Juan la Laguna	12	San Juan la Laguna	8	Agosto	2023-08-15T00:00:00	2024-11-08T05:00:00	3	Temperatura mínima	15.9
71580	7	Sololá	717	San Juan la Laguna	12	San Juan la Laguna	8	Agosto	2023-08-15T00:00:00	2024-11-08T05:00:00	5	Humedad	92
71581	7	Sololá	717	San Juan la Laguna	12	San Juan la Laguna	8	Agosto	2023-08-15T00:00:00	2024-11-08T05:00:00	6	Velocidad del viento	0
71582	7	Sololá	717	San Juan la Laguna	12	San Juan la Laguna	8	Agosto	2023-08-15T00:00:00	2024-11-08T05:00:00	7	Dirección del viento	0
71583	7	Sololá	717	San Juan la Laguna	12	San Juan la Laguna	8	Agosto	2023-08-15T00:00:00	2024-11-08T05:00:00	1	Precipitación	0
71584	7	Sololá	717	San Juan la Laguna	12	San Juan la Laguna	8	Agosto	2023-08-15T00:00:00	2024-11-08T05:00:00	8	Radiación solar	0
71585	7	Sololá	717	San Juan la Laguna	12	San Juan la Laguna	8	Agosto	2023-08-15T00:00:00	2024-11-08T06:00:00	2	Temperatura media	16.1
71586	7	Sololá	717	San Juan la Laguna	12	San Juan la Laguna	8	Agosto	2023-08-15T00:00:00	2024-11-08T06:00:00	4	Temperatura máxima	16.1
71587	7	Sololá	717	San Juan la Laguna	12	San Juan la Laguna	8	Agosto	2023-08-15T00:00:00	2024-11-08T06:00:00	3	Temperatura mínima	15.8
71588	7	Sololá	717	San Juan la Laguna	12	San Juan la Laguna	8	Agosto	2023-08-15T00:00:00	2024-11-08T06:00:00	5	Humedad	91
71589	7	Sololá	717	San Juan la Laguna	12	San Juan la Laguna	8	Agosto	2023-08-15T00:00:00	2024-11-08T06:00:00	6	Velocidad del viento	0
71590	7	Sololá	717	San Juan la Laguna	12	San Juan la Laguna	8	Agosto	2023-08-15T00:00:00	2024-11-08T06:00:00	7	Dirección del viento	0
71591	7	Sololá	717	San Juan la Laguna	12	San Juan la Laguna	8	Agosto	2023-08-15T00:00:00	2024-11-08T06:00:00	1	Precipitación	0
71592	7	Sololá	717	San Juan la Laguna	12	San Juan la Laguna	8	Agosto	2023-08-15T00:00:00	2024-11-08T06:00:00	8	Radiación solar	1
71593	7	Sololá	717	San Juan la Laguna	12	San Juan la Laguna	8	Agosto	2023-08-15T00:00:00	2024-11-08T07:00:00	2	Temperatura media	17.4
71594	7	Sololá	717	San Juan la Laguna	12	San Juan la Laguna	8	Agosto	2023-08-15T00:00:00	2024-11-08T07:00:00	4	Temperatura máxima	17.4
71595	7	Sololá	717	San Juan la Laguna	12	San Juan la Laguna	8	Agosto	2023-08-15T00:00:00	2024-11-08T07:00:00	3	Temperatura mínima	16.1
71596	7	Sololá	717	San Juan la Laguna	12	San Juan la Laguna	8	Agosto	2023-08-15T00:00:00	2024-11-08T07:00:00	5	Humedad	87
71597	7	Sololá	717	San Juan la Laguna	12	San Juan la Laguna	8	Agosto	2023-08-15T00:00:00	2024-11-08T07:00:00	6	Velocidad del viento	1.6
71598	7	Sololá	717	San Juan la Laguna	12	San Juan la Laguna	8	Agosto	2023-08-15T00:00:00	2024-11-08T07:00:00	7	Dirección del viento	1.61
71599	7	Sololá	717	San Juan la Laguna	12	San Juan la Laguna	8	Agosto	2023-08-15T00:00:00	2024-11-08T07:00:00	1	Precipitación	0
71600	7	Sololá	717	San Juan la Laguna	12	San Juan la Laguna	8	Agosto	2023-08-15T00:00:00	2024-11-08T07:00:00	8	Radiación solar	69
71601	7	Sololá	717	San Juan la Laguna	12	San Juan la Laguna	8	Agosto	2023-08-15T00:00:00	2024-11-08T08:00:00	2	Temperatura media	21.2
71602	7	Sololá	717	San Juan la Laguna	12	San Juan la Laguna	8	Agosto	2023-08-15T00:00:00	2024-11-08T08:00:00	4	Temperatura máxima	21.2
71603	7	Sololá	717	San Juan la Laguna	12	San Juan la Laguna	8	Agosto	2023-08-15T00:00:00	2024-11-08T08:00:00	3	Temperatura mínima	17.4
71604	7	Sololá	717	San Juan la Laguna	12	San Juan la Laguna	8	Agosto	2023-08-15T00:00:00	2024-11-08T08:00:00	5	Humedad	69
71605	7	Sololá	717	San Juan la Laguna	12	San Juan la Laguna	8	Agosto	2023-08-15T00:00:00	2024-11-08T08:00:00	6	Velocidad del viento	0
71606	7	Sololá	717	San Juan la Laguna	12	San Juan la Laguna	8	Agosto	2023-08-15T00:00:00	2024-11-08T08:00:00	7	Dirección del viento	0
71607	7	Sololá	717	San Juan la Laguna	12	San Juan la Laguna	8	Agosto	2023-08-15T00:00:00	2024-11-08T08:00:00	1	Precipitación	0
71608	7	Sololá	717	San Juan la Laguna	12	San Juan la Laguna	8	Agosto	2023-08-15T00:00:00	2024-11-08T08:00:00	8	Radiación solar	313
71609	7	Sololá	717	San Juan la Laguna	12	San Juan la Laguna	8	Agosto	2023-08-15T00:00:00	2024-11-08T09:00:00	2	Temperatura media	21.9
71610	7	Sololá	717	San Juan la Laguna	12	San Juan la Laguna	8	Agosto	2023-08-15T00:00:00	2024-11-08T09:00:00	4	Temperatura máxima	21.9
71611	7	Sololá	717	San Juan la Laguna	12	San Juan la Laguna	8	Agosto	2023-08-15T00:00:00	2024-11-08T09:00:00	3	Temperatura mínima	21.2
71612	7	Sololá	717	San Juan la Laguna	12	San Juan la Laguna	8	Agosto	2023-08-15T00:00:00	2024-11-08T09:00:00	5	Humedad	67
71613	7	Sololá	717	San Juan la Laguna	12	San Juan la Laguna	8	Agosto	2023-08-15T00:00:00	2024-11-08T09:00:00	6	Velocidad del viento	0
71614	7	Sololá	717	San Juan la Laguna	12	San Juan la Laguna	8	Agosto	2023-08-15T00:00:00	2024-11-08T09:00:00	7	Dirección del viento	0
71615	7	Sololá	717	San Juan la Laguna	12	San Juan la Laguna	8	Agosto	2023-08-15T00:00:00	2024-11-08T09:00:00	1	Precipitación	0
71616	7	Sololá	717	San Juan la Laguna	12	San Juan la Laguna	8	Agosto	2023-08-15T00:00:00	2024-11-08T09:00:00	8	Radiación solar	374
71617	7	Sololá	717	San Juan la Laguna	12	San Juan la Laguna	8	Agosto	2023-08-15T00:00:00	2024-11-08T10:00:00	2	Temperatura media	22.5
71618	7	Sololá	717	San Juan la Laguna	12	San Juan la Laguna	8	Agosto	2023-08-15T00:00:00	2024-11-08T10:00:00	4	Temperatura máxima	22.7
71619	7	Sololá	717	San Juan la Laguna	12	San Juan la Laguna	8	Agosto	2023-08-15T00:00:00	2024-11-08T10:00:00	3	Temperatura mínima	21.9
71620	7	Sololá	717	San Juan la Laguna	12	San Juan la Laguna	8	Agosto	2023-08-15T00:00:00	2024-11-08T10:00:00	5	Humedad	61
71621	7	Sololá	717	San Juan la Laguna	12	San Juan la Laguna	8	Agosto	2023-08-15T00:00:00	2024-11-08T10:00:00	6	Velocidad del viento	0
71622	7	Sololá	717	San Juan la Laguna	12	San Juan la Laguna	8	Agosto	2023-08-15T00:00:00	2024-11-08T10:00:00	7	Dirección del viento	0
71623	7	Sololá	717	San Juan la Laguna	12	San Juan la Laguna	8	Agosto	2023-08-15T00:00:00	2024-11-08T10:00:00	1	Precipitación	0
71624	7	Sololá	717	San Juan la Laguna	12	San Juan la Laguna	8	Agosto	2023-08-15T00:00:00	2024-11-08T10:00:00	8	Radiación solar	476
71625	7	Sololá	717	San Juan la Laguna	12	San Juan la Laguna	8	Agosto	2023-08-15T00:00:00	2024-11-08T11:00:00	2	Temperatura media	23.8
71626	7	Sololá	717	San Juan la Laguna	12	San Juan la Laguna	8	Agosto	2023-08-15T00:00:00	2024-11-08T11:00:00	4	Temperatura máxima	23.8
71627	7	Sololá	717	San Juan la Laguna	12	San Juan la Laguna	8	Agosto	2023-08-15T00:00:00	2024-11-08T11:00:00	3	Temperatura mínima	22.4
71628	7	Sololá	717	San Juan la Laguna	12	San Juan la Laguna	8	Agosto	2023-08-15T00:00:00	2024-11-08T11:00:00	5	Humedad	60
71629	7	Sololá	717	San Juan la Laguna	12	San Juan la Laguna	8	Agosto	2023-08-15T00:00:00	2024-11-08T11:00:00	6	Velocidad del viento	0
71630	7	Sololá	717	San Juan la Laguna	12	San Juan la Laguna	8	Agosto	2023-08-15T00:00:00	2024-11-08T11:00:00	7	Dirección del viento	0
71631	7	Sololá	717	San Juan la Laguna	12	San Juan la Laguna	8	Agosto	2023-08-15T00:00:00	2024-11-08T11:00:00	1	Precipitación	0
71632	7	Sololá	717	San Juan la Laguna	12	San Juan la Laguna	8	Agosto	2023-08-15T00:00:00	2024-11-08T11:00:00	8	Radiación solar	683
71633	7	Sololá	717	San Juan la Laguna	12	San Juan la Laguna	8	Agosto	2023-08-15T00:00:00	2024-11-08T12:00:00	2	Temperatura media	24
71634	7	Sololá	717	San Juan la Laguna	12	San Juan la Laguna	8	Agosto	2023-08-15T00:00:00	2024-11-08T12:00:00	4	Temperatura máxima	24.6
71635	7	Sololá	717	San Juan la Laguna	12	San Juan la Laguna	8	Agosto	2023-08-15T00:00:00	2024-11-08T12:00:00	3	Temperatura mínima	23.8
71636	7	Sololá	717	San Juan la Laguna	12	San Juan la Laguna	8	Agosto	2023-08-15T00:00:00	2024-11-08T12:00:00	5	Humedad	57
71637	7	Sololá	717	San Juan la Laguna	12	San Juan la Laguna	8	Agosto	2023-08-15T00:00:00	2024-11-08T12:00:00	6	Velocidad del viento	1.6
71638	7	Sololá	717	San Juan la Laguna	12	San Juan la Laguna	8	Agosto	2023-08-15T00:00:00	2024-11-08T12:00:00	7	Dirección del viento	1.61
71639	7	Sololá	717	San Juan la Laguna	12	San Juan la Laguna	8	Agosto	2023-08-15T00:00:00	2024-11-08T12:00:00	1	Precipitación	0
71640	7	Sololá	717	San Juan la Laguna	12	San Juan la Laguna	8	Agosto	2023-08-15T00:00:00	2024-11-08T12:00:00	8	Radiación solar	683
71641	7	Sololá	717	San Juan la Laguna	12	San Juan la Laguna	8	Agosto	2023-08-15T00:00:00	2024-11-08T13:00:00	2	Temperatura media	23.3
71642	7	Sololá	717	San Juan la Laguna	12	San Juan la Laguna	8	Agosto	2023-08-15T00:00:00	2024-11-08T13:00:00	4	Temperatura máxima	24.2
71643	7	Sololá	717	San Juan la Laguna	12	San Juan la Laguna	8	Agosto	2023-08-15T00:00:00	2024-11-08T13:00:00	3	Temperatura mínima	22.8
71644	7	Sololá	717	San Juan la Laguna	12	San Juan la Laguna	8	Agosto	2023-08-15T00:00:00	2024-11-08T13:00:00	5	Humedad	65
71645	7	Sololá	717	San Juan la Laguna	12	San Juan la Laguna	8	Agosto	2023-08-15T00:00:00	2024-11-08T13:00:00	6	Velocidad del viento	0
71646	7	Sololá	717	San Juan la Laguna	12	San Juan la Laguna	8	Agosto	2023-08-15T00:00:00	2024-11-08T13:00:00	7	Dirección del viento	0
71647	7	Sololá	717	San Juan la Laguna	12	San Juan la Laguna	8	Agosto	2023-08-15T00:00:00	2024-11-08T13:00:00	1	Precipitación	0
71648	7	Sololá	717	San Juan la Laguna	12	San Juan la Laguna	8	Agosto	2023-08-15T00:00:00	2024-11-08T13:00:00	8	Radiación solar	430
71649	7	Sololá	717	San Juan la Laguna	12	San Juan la Laguna	8	Agosto	2023-08-15T00:00:00	2024-11-08T14:00:00	2	Temperatura media	24.5
71650	7	Sololá	717	San Juan la Laguna	12	San Juan la Laguna	8	Agosto	2023-08-15T00:00:00	2024-11-08T14:00:00	4	Temperatura máxima	24.7
71651	7	Sololá	717	San Juan la Laguna	12	San Juan la Laguna	8	Agosto	2023-08-15T00:00:00	2024-11-08T14:00:00	3	Temperatura mínima	23
71652	7	Sololá	717	San Juan la Laguna	12	San Juan la Laguna	8	Agosto	2023-08-15T00:00:00	2024-11-08T14:00:00	5	Humedad	61
71653	7	Sololá	717	San Juan la Laguna	12	San Juan la Laguna	8	Agosto	2023-08-15T00:00:00	2024-11-08T14:00:00	6	Velocidad del viento	1.6
71654	7	Sololá	717	San Juan la Laguna	12	San Juan la Laguna	8	Agosto	2023-08-15T00:00:00	2024-11-08T14:00:00	7	Dirección del viento	1.61
71655	7	Sololá	717	San Juan la Laguna	12	San Juan la Laguna	8	Agosto	2023-08-15T00:00:00	2024-11-08T14:00:00	1	Precipitación	0
71656	7	Sololá	717	San Juan la Laguna	12	San Juan la Laguna	8	Agosto	2023-08-15T00:00:00	2024-11-08T14:00:00	8	Radiación solar	614
71657	7	Sololá	717	San Juan la Laguna	12	San Juan la Laguna	8	Agosto	2023-08-15T00:00:00	2024-11-08T15:00:00	2	Temperatura media	23.8
71658	7	Sololá	717	San Juan la Laguna	12	San Juan la Laguna	8	Agosto	2023-08-15T00:00:00	2024-11-08T15:00:00	4	Temperatura máxima	24.5
71659	7	Sololá	717	San Juan la Laguna	12	San Juan la Laguna	8	Agosto	2023-08-15T00:00:00	2024-11-08T15:00:00	3	Temperatura mínima	23.1
71660	7	Sololá	717	San Juan la Laguna	12	San Juan la Laguna	8	Agosto	2023-08-15T00:00:00	2024-11-08T15:00:00	5	Humedad	62
71661	7	Sololá	717	San Juan la Laguna	12	San Juan la Laguna	8	Agosto	2023-08-15T00:00:00	2024-11-08T15:00:00	6	Velocidad del viento	0
71662	7	Sololá	717	San Juan la Laguna	12	San Juan la Laguna	8	Agosto	2023-08-15T00:00:00	2024-11-08T15:00:00	7	Dirección del viento	0
71663	7	Sololá	717	San Juan la Laguna	12	San Juan la Laguna	8	Agosto	2023-08-15T00:00:00	2024-11-08T15:00:00	1	Precipitación	0
71664	7	Sololá	717	San Juan la Laguna	12	San Juan la Laguna	8	Agosto	2023-08-15T00:00:00	2024-11-08T15:00:00	8	Radiación solar	528
71665	7	Sololá	717	San Juan la Laguna	12	San Juan la Laguna	8	Agosto	2023-08-15T00:00:00	2024-11-08T16:00:00	2	Temperatura media	20.4
71666	7	Sololá	717	San Juan la Laguna	12	San Juan la Laguna	8	Agosto	2023-08-15T00:00:00	2024-11-08T16:00:00	4	Temperatura máxima	23.9
71667	7	Sololá	717	San Juan la Laguna	12	San Juan la Laguna	8	Agosto	2023-08-15T00:00:00	2024-11-08T16:00:00	3	Temperatura mínima	20.4
71668	7	Sololá	717	San Juan la Laguna	12	San Juan la Laguna	8	Agosto	2023-08-15T00:00:00	2024-11-08T16:00:00	5	Humedad	76
71669	7	Sololá	717	San Juan la Laguna	12	San Juan la Laguna	8	Agosto	2023-08-15T00:00:00	2024-11-08T16:00:00	6	Velocidad del viento	1.6
71670	7	Sololá	717	San Juan la Laguna	12	San Juan la Laguna	8	Agosto	2023-08-15T00:00:00	2024-11-08T16:00:00	7	Dirección del viento	1.61
71671	7	Sololá	717	San Juan la Laguna	12	San Juan la Laguna	8	Agosto	2023-08-15T00:00:00	2024-11-08T16:00:00	1	Precipitación	0.8
71672	7	Sololá	717	San Juan la Laguna	12	San Juan la Laguna	8	Agosto	2023-08-15T00:00:00	2024-11-08T16:00:00	8	Radiación solar	183
71673	7	Sololá	717	San Juan la Laguna	12	San Juan la Laguna	8	Agosto	2023-08-15T00:00:00	2024-11-08T17:00:00	2	Temperatura media	19.4
71674	7	Sololá	717	San Juan la Laguna	12	San Juan la Laguna	8	Agosto	2023-08-15T00:00:00	2024-11-08T17:00:00	4	Temperatura máxima	20.4
71675	7	Sololá	717	San Juan la Laguna	12	San Juan la Laguna	8	Agosto	2023-08-15T00:00:00	2024-11-08T17:00:00	3	Temperatura mínima	18.9
71676	7	Sololá	717	San Juan la Laguna	12	San Juan la Laguna	8	Agosto	2023-08-15T00:00:00	2024-11-08T17:00:00	5	Humedad	85
71677	7	Sololá	717	San Juan la Laguna	12	San Juan la Laguna	8	Agosto	2023-08-15T00:00:00	2024-11-08T17:00:00	6	Velocidad del viento	1.6
71678	7	Sololá	717	San Juan la Laguna	12	San Juan la Laguna	8	Agosto	2023-08-15T00:00:00	2024-11-08T17:00:00	7	Dirección del viento	1.61
71679	7	Sololá	717	San Juan la Laguna	12	San Juan la Laguna	8	Agosto	2023-08-15T00:00:00	2024-11-08T17:00:00	1	Precipitación	1
71680	7	Sololá	717	San Juan la Laguna	12	San Juan la Laguna	8	Agosto	2023-08-15T00:00:00	2024-11-08T17:00:00	8	Radiación solar	103
71681	7	Sololá	717	San Juan la Laguna	12	San Juan la Laguna	8	Agosto	2023-08-15T00:00:00	2024-11-08T18:00:00	2	Temperatura media	18.9
71682	7	Sololá	717	San Juan la Laguna	12	San Juan la Laguna	8	Agosto	2023-08-15T00:00:00	2024-11-08T18:00:00	4	Temperatura máxima	19.4
71683	7	Sololá	717	San Juan la Laguna	12	San Juan la Laguna	8	Agosto	2023-08-15T00:00:00	2024-11-08T18:00:00	3	Temperatura mínima	18.9
71684	7	Sololá	717	San Juan la Laguna	12	San Juan la Laguna	8	Agosto	2023-08-15T00:00:00	2024-11-08T18:00:00	5	Humedad	88
71685	7	Sololá	717	San Juan la Laguna	12	San Juan la Laguna	8	Agosto	2023-08-15T00:00:00	2024-11-08T18:00:00	6	Velocidad del viento	1.6
71686	7	Sololá	717	San Juan la Laguna	12	San Juan la Laguna	8	Agosto	2023-08-15T00:00:00	2024-11-08T18:00:00	7	Dirección del viento	1.61
71687	7	Sololá	717	San Juan la Laguna	12	San Juan la Laguna	8	Agosto	2023-08-15T00:00:00	2024-11-08T18:00:00	1	Precipitación	0
71688	7	Sololá	717	San Juan la Laguna	12	San Juan la Laguna	8	Agosto	2023-08-15T00:00:00	2024-11-08T18:00:00	8	Radiación solar	62
71689	7	Sololá	717	San Juan la Laguna	12	San Juan la Laguna	8	Agosto	2023-08-15T00:00:00	2024-11-08T19:00:00	2	Temperatura media	18.1
71690	7	Sololá	717	San Juan la Laguna	12	San Juan la Laguna	8	Agosto	2023-08-15T00:00:00	2024-11-08T19:00:00	4	Temperatura máxima	18.9
71691	7	Sololá	717	San Juan la Laguna	12	San Juan la Laguna	8	Agosto	2023-08-15T00:00:00	2024-11-08T19:00:00	3	Temperatura mínima	18.1
71692	7	Sololá	717	San Juan la Laguna	12	San Juan la Laguna	8	Agosto	2023-08-15T00:00:00	2024-11-08T19:00:00	5	Humedad	89
71693	7	Sololá	717	San Juan la Laguna	12	San Juan la Laguna	8	Agosto	2023-08-15T00:00:00	2024-11-08T19:00:00	6	Velocidad del viento	1.6
71694	7	Sololá	717	San Juan la Laguna	12	San Juan la Laguna	8	Agosto	2023-08-15T00:00:00	2024-11-08T19:00:00	7	Dirección del viento	1.61
71695	7	Sololá	717	San Juan la Laguna	12	San Juan la Laguna	8	Agosto	2023-08-15T00:00:00	2024-11-08T19:00:00	1	Precipitación	0
71696	7	Sololá	717	San Juan la Laguna	12	San Juan la Laguna	8	Agosto	2023-08-15T00:00:00	2024-11-08T19:00:00	8	Radiación solar	0
71697	7	Sololá	717	San Juan la Laguna	12	San Juan la Laguna	8	Agosto	2023-08-15T00:00:00	2024-11-08T20:00:00	2	Temperatura media	18.3
71698	7	Sololá	717	San Juan la Laguna	12	San Juan la Laguna	8	Agosto	2023-08-15T00:00:00	2024-11-08T20:00:00	4	Temperatura máxima	18.3
71699	7	Sololá	717	San Juan la Laguna	12	San Juan la Laguna	8	Agosto	2023-08-15T00:00:00	2024-11-08T20:00:00	3	Temperatura mínima	17.9
71700	7	Sololá	717	San Juan la Laguna	12	San Juan la Laguna	8	Agosto	2023-08-15T00:00:00	2024-11-08T20:00:00	5	Humedad	87
71701	7	Sololá	717	San Juan la Laguna	12	San Juan la Laguna	8	Agosto	2023-08-15T00:00:00	2024-11-08T20:00:00	6	Velocidad del viento	3.2
71702	7	Sololá	717	San Juan la Laguna	12	San Juan la Laguna	8	Agosto	2023-08-15T00:00:00	2024-11-08T20:00:00	7	Dirección del viento	3.22
71703	7	Sololá	717	San Juan la Laguna	12	San Juan la Laguna	8	Agosto	2023-08-15T00:00:00	2024-11-08T20:00:00	1	Precipitación	0
71704	7	Sololá	717	San Juan la Laguna	12	San Juan la Laguna	8	Agosto	2023-08-15T00:00:00	2024-11-08T20:00:00	8	Radiación solar	0
71705	7	Sololá	717	San Juan la Laguna	12	San Juan la Laguna	8	Agosto	2023-08-15T00:00:00	2024-11-08T21:00:00	2	Temperatura media	18
71706	7	Sololá	717	San Juan la Laguna	12	San Juan la Laguna	8	Agosto	2023-08-15T00:00:00	2024-11-08T21:00:00	4	Temperatura máxima	18.4
71707	7	Sololá	717	San Juan la Laguna	12	San Juan la Laguna	8	Agosto	2023-08-15T00:00:00	2024-11-08T21:00:00	3	Temperatura mínima	18
71708	7	Sololá	717	San Juan la Laguna	12	San Juan la Laguna	8	Agosto	2023-08-15T00:00:00	2024-11-08T21:00:00	5	Humedad	88
71709	7	Sololá	717	San Juan la Laguna	12	San Juan la Laguna	8	Agosto	2023-08-15T00:00:00	2024-11-08T21:00:00	6	Velocidad del viento	0
71710	7	Sololá	717	San Juan la Laguna	12	San Juan la Laguna	8	Agosto	2023-08-15T00:00:00	2024-11-08T21:00:00	7	Dirección del viento	0
71711	7	Sololá	717	San Juan la Laguna	12	San Juan la Laguna	8	Agosto	2023-08-15T00:00:00	2024-11-08T21:00:00	1	Precipitación	0
71712	7	Sololá	717	San Juan la Laguna	12	San Juan la Laguna	8	Agosto	2023-08-15T00:00:00	2024-11-08T21:00:00	8	Radiación solar	0
71713	7	Sololá	717	San Juan la Laguna	12	San Juan la Laguna	8	Agosto	2023-08-15T00:00:00	2024-11-08T22:00:00	2	Temperatura media	17.6
71714	7	Sololá	717	San Juan la Laguna	12	San Juan la Laguna	8	Agosto	2023-08-15T00:00:00	2024-11-08T22:00:00	4	Temperatura máxima	18.1
71715	7	Sololá	717	San Juan la Laguna	12	San Juan la Laguna	8	Agosto	2023-08-15T00:00:00	2024-11-08T22:00:00	3	Temperatura mínima	17.6
71716	7	Sololá	717	San Juan la Laguna	12	San Juan la Laguna	8	Agosto	2023-08-15T00:00:00	2024-11-08T22:00:00	5	Humedad	88
71717	7	Sololá	717	San Juan la Laguna	12	San Juan la Laguna	8	Agosto	2023-08-15T00:00:00	2024-11-08T22:00:00	6	Velocidad del viento	0
71718	7	Sololá	717	San Juan la Laguna	12	San Juan la Laguna	8	Agosto	2023-08-15T00:00:00	2024-11-08T22:00:00	7	Dirección del viento	0
71719	7	Sololá	717	San Juan la Laguna	12	San Juan la Laguna	8	Agosto	2023-08-15T00:00:00	2024-11-08T22:00:00	1	Precipitación	0
71720	7	Sololá	717	San Juan la Laguna	12	San Juan la Laguna	8	Agosto	2023-08-15T00:00:00	2024-11-08T22:00:00	8	Radiación solar	0
71721	7	Sololá	717	San Juan la Laguna	12	San Juan la Laguna	8	Agosto	2023-08-15T00:00:00	2024-11-08T23:00:00	2	Temperatura media	17.1
71722	7	Sololá	717	San Juan la Laguna	12	San Juan la Laguna	8	Agosto	2023-08-15T00:00:00	2024-11-08T23:00:00	4	Temperatura máxima	17.6
71723	7	Sololá	717	San Juan la Laguna	12	San Juan la Laguna	8	Agosto	2023-08-15T00:00:00	2024-11-08T23:00:00	3	Temperatura mínima	17.1
71724	7	Sololá	717	San Juan la Laguna	12	San Juan la Laguna	8	Agosto	2023-08-15T00:00:00	2024-11-08T23:00:00	5	Humedad	89
71725	7	Sololá	717	San Juan la Laguna	12	San Juan la Laguna	8	Agosto	2023-08-15T00:00:00	2024-11-08T23:00:00	6	Velocidad del viento	0
71726	7	Sololá	717	San Juan la Laguna	12	San Juan la Laguna	8	Agosto	2023-08-15T00:00:00	2024-11-08T23:00:00	7	Dirección del viento	0
71727	7	Sololá	717	San Juan la Laguna	12	San Juan la Laguna	8	Agosto	2023-08-15T00:00:00	2024-11-08T23:00:00	1	Precipitación	0
71728	7	Sololá	717	San Juan la Laguna	12	San Juan la Laguna	8	Agosto	2023-08-15T00:00:00	2024-11-08T23:00:00	8	Radiación solar	0
71729	7	Sololá	717	San Juan la Laguna	12	San Juan la Laguna	8	Agosto	2023-08-16T00:00:00	2024-11-08T00:00:00	2	Temperatura media	17.3
71730	7	Sololá	717	San Juan la Laguna	12	San Juan la Laguna	8	Agosto	2023-08-16T00:00:00	2024-11-08T00:00:00	4	Temperatura máxima	17.8
71731	7	Sololá	717	San Juan la Laguna	12	San Juan la Laguna	8	Agosto	2023-08-16T00:00:00	2024-11-08T00:00:00	3	Temperatura mínima	16.9
71732	7	Sololá	717	San Juan la Laguna	12	San Juan la Laguna	8	Agosto	2023-08-16T00:00:00	2024-11-08T00:00:00	5	Humedad	87
71733	7	Sololá	717	San Juan la Laguna	12	San Juan la Laguna	8	Agosto	2023-08-16T00:00:00	2024-11-08T00:00:00	6	Velocidad del viento	1.6
71734	7	Sololá	717	San Juan la Laguna	12	San Juan la Laguna	8	Agosto	2023-08-16T00:00:00	2024-11-08T00:00:00	7	Dirección del viento	1.61
71735	7	Sololá	717	San Juan la Laguna	12	San Juan la Laguna	8	Agosto	2023-08-16T00:00:00	2024-11-08T00:00:00	1	Precipitación	0
71736	7	Sololá	717	San Juan la Laguna	12	San Juan la Laguna	8	Agosto	2023-08-16T00:00:00	2024-11-08T00:00:00	8	Radiación solar	0
71737	7	Sololá	717	San Juan la Laguna	12	San Juan la Laguna	8	Agosto	2023-08-16T00:00:00	2024-11-08T01:00:00	2	Temperatura media	16.7
71738	7	Sololá	717	San Juan la Laguna	12	San Juan la Laguna	8	Agosto	2023-08-16T00:00:00	2024-11-08T01:00:00	4	Temperatura máxima	17.3
71739	7	Sololá	717	San Juan la Laguna	12	San Juan la Laguna	8	Agosto	2023-08-16T00:00:00	2024-11-08T01:00:00	3	Temperatura mínima	16.7
71740	7	Sololá	717	San Juan la Laguna	12	San Juan la Laguna	8	Agosto	2023-08-16T00:00:00	2024-11-08T01:00:00	5	Humedad	86
71741	7	Sololá	717	San Juan la Laguna	12	San Juan la Laguna	8	Agosto	2023-08-16T00:00:00	2024-11-08T01:00:00	6	Velocidad del viento	1.6
71742	7	Sololá	717	San Juan la Laguna	12	San Juan la Laguna	8	Agosto	2023-08-16T00:00:00	2024-11-08T01:00:00	7	Dirección del viento	1.61
71743	7	Sololá	717	San Juan la Laguna	12	San Juan la Laguna	8	Agosto	2023-08-16T00:00:00	2024-11-08T01:00:00	1	Precipitación	0
71744	7	Sololá	717	San Juan la Laguna	12	San Juan la Laguna	8	Agosto	2023-08-16T00:00:00	2024-11-08T01:00:00	8	Radiación solar	0
71745	7	Sololá	717	San Juan la Laguna	12	San Juan la Laguna	8	Agosto	2023-08-16T00:00:00	2024-11-08T02:00:00	2	Temperatura media	16.3
71746	7	Sololá	717	San Juan la Laguna	12	San Juan la Laguna	8	Agosto	2023-08-16T00:00:00	2024-11-08T02:00:00	4	Temperatura máxima	16.8
71747	7	Sololá	717	San Juan la Laguna	12	San Juan la Laguna	8	Agosto	2023-08-16T00:00:00	2024-11-08T02:00:00	3	Temperatura mínima	16.3
71748	7	Sololá	717	San Juan la Laguna	12	San Juan la Laguna	8	Agosto	2023-08-16T00:00:00	2024-11-08T02:00:00	5	Humedad	85
71749	7	Sololá	717	San Juan la Laguna	12	San Juan la Laguna	8	Agosto	2023-08-16T00:00:00	2024-11-08T02:00:00	6	Velocidad del viento	3.2
71750	7	Sololá	717	San Juan la Laguna	12	San Juan la Laguna	8	Agosto	2023-08-16T00:00:00	2024-11-08T02:00:00	7	Dirección del viento	3.22
71751	7	Sololá	717	San Juan la Laguna	12	San Juan la Laguna	8	Agosto	2023-08-16T00:00:00	2024-11-08T02:00:00	1	Precipitación	0
71752	7	Sololá	717	San Juan la Laguna	12	San Juan la Laguna	8	Agosto	2023-08-16T00:00:00	2024-11-08T02:00:00	8	Radiación solar	0
71753	7	Sololá	717	San Juan la Laguna	12	San Juan la Laguna	8	Agosto	2023-08-16T00:00:00	2024-11-08T03:00:00	2	Temperatura media	15.8
71754	7	Sololá	717	San Juan la Laguna	12	San Juan la Laguna	8	Agosto	2023-08-16T00:00:00	2024-11-08T03:00:00	4	Temperatura máxima	16.3
71755	7	Sololá	717	San Juan la Laguna	12	San Juan la Laguna	8	Agosto	2023-08-16T00:00:00	2024-11-08T03:00:00	3	Temperatura mínima	15.7
71756	7	Sololá	717	San Juan la Laguna	12	San Juan la Laguna	8	Agosto	2023-08-16T00:00:00	2024-11-08T03:00:00	5	Humedad	86
71757	7	Sololá	717	San Juan la Laguna	12	San Juan la Laguna	8	Agosto	2023-08-16T00:00:00	2024-11-08T03:00:00	6	Velocidad del viento	0
71758	7	Sololá	717	San Juan la Laguna	12	San Juan la Laguna	8	Agosto	2023-08-16T00:00:00	2024-11-08T03:00:00	7	Dirección del viento	0
71759	7	Sololá	717	San Juan la Laguna	12	San Juan la Laguna	8	Agosto	2023-08-16T00:00:00	2024-11-08T03:00:00	1	Precipitación	0
71760	7	Sololá	717	San Juan la Laguna	12	San Juan la Laguna	8	Agosto	2023-08-16T00:00:00	2024-11-08T03:00:00	8	Radiación solar	0
71761	7	Sololá	717	San Juan la Laguna	12	San Juan la Laguna	8	Agosto	2023-08-16T00:00:00	2024-11-08T04:00:00	2	Temperatura media	15.5
71762	7	Sololá	717	San Juan la Laguna	12	San Juan la Laguna	8	Agosto	2023-08-16T00:00:00	2024-11-08T04:00:00	4	Temperatura máxima	15.8
71763	7	Sololá	717	San Juan la Laguna	12	San Juan la Laguna	8	Agosto	2023-08-16T00:00:00	2024-11-08T04:00:00	3	Temperatura mínima	15.5
71764	7	Sololá	717	San Juan la Laguna	12	San Juan la Laguna	8	Agosto	2023-08-16T00:00:00	2024-11-08T04:00:00	5	Humedad	87
71765	7	Sololá	717	San Juan la Laguna	12	San Juan la Laguna	8	Agosto	2023-08-16T00:00:00	2024-11-08T04:00:00	6	Velocidad del viento	0
71766	7	Sololá	717	San Juan la Laguna	12	San Juan la Laguna	8	Agosto	2023-08-16T00:00:00	2024-11-08T04:00:00	7	Dirección del viento	0
71767	7	Sololá	717	San Juan la Laguna	12	San Juan la Laguna	8	Agosto	2023-08-16T00:00:00	2024-11-08T04:00:00	1	Precipitación	0
71768	7	Sololá	717	San Juan la Laguna	12	San Juan la Laguna	8	Agosto	2023-08-16T00:00:00	2024-11-08T04:00:00	8	Radiación solar	0
71769	7	Sololá	717	San Juan la Laguna	12	San Juan la Laguna	8	Agosto	2023-08-16T00:00:00	2024-11-08T05:00:00	2	Temperatura media	15.9
71770	7	Sololá	717	San Juan la Laguna	12	San Juan la Laguna	8	Agosto	2023-08-16T00:00:00	2024-11-08T05:00:00	4	Temperatura máxima	15.9
71771	7	Sololá	717	San Juan la Laguna	12	San Juan la Laguna	8	Agosto	2023-08-16T00:00:00	2024-11-08T05:00:00	3	Temperatura mínima	15.4
71772	7	Sololá	717	San Juan la Laguna	12	San Juan la Laguna	8	Agosto	2023-08-16T00:00:00	2024-11-08T05:00:00	5	Humedad	87
71773	7	Sololá	717	San Juan la Laguna	12	San Juan la Laguna	8	Agosto	2023-08-16T00:00:00	2024-11-08T05:00:00	6	Velocidad del viento	1.6
71774	7	Sololá	717	San Juan la Laguna	12	San Juan la Laguna	8	Agosto	2023-08-16T00:00:00	2024-11-08T05:00:00	7	Dirección del viento	1.61
71775	7	Sololá	717	San Juan la Laguna	12	San Juan la Laguna	8	Agosto	2023-08-16T00:00:00	2024-11-08T05:00:00	1	Precipitación	0
71776	7	Sololá	717	San Juan la Laguna	12	San Juan la Laguna	8	Agosto	2023-08-16T00:00:00	2024-11-08T05:00:00	8	Radiación solar	0
71777	7	Sololá	717	San Juan la Laguna	12	San Juan la Laguna	8	Agosto	2023-08-16T00:00:00	2024-11-08T06:00:00	2	Temperatura media	16
71778	7	Sololá	717	San Juan la Laguna	12	San Juan la Laguna	8	Agosto	2023-08-16T00:00:00	2024-11-08T06:00:00	4	Temperatura máxima	16.6
71779	7	Sololá	717	San Juan la Laguna	12	San Juan la Laguna	8	Agosto	2023-08-16T00:00:00	2024-11-08T06:00:00	3	Temperatura mínima	15.9
71780	7	Sololá	717	San Juan la Laguna	12	San Juan la Laguna	8	Agosto	2023-08-16T00:00:00	2024-11-08T06:00:00	5	Humedad	85
71781	7	Sololá	717	San Juan la Laguna	12	San Juan la Laguna	8	Agosto	2023-08-16T00:00:00	2024-11-08T06:00:00	6	Velocidad del viento	0
71782	7	Sololá	717	San Juan la Laguna	12	San Juan la Laguna	8	Agosto	2023-08-16T00:00:00	2024-11-08T06:00:00	7	Dirección del viento	0
71783	7	Sololá	717	San Juan la Laguna	12	San Juan la Laguna	8	Agosto	2023-08-16T00:00:00	2024-11-08T06:00:00	1	Precipitación	0
71784	7	Sololá	717	San Juan la Laguna	12	San Juan la Laguna	8	Agosto	2023-08-16T00:00:00	2024-11-08T06:00:00	8	Radiación solar	1
71785	7	Sololá	717	San Juan la Laguna	12	San Juan la Laguna	8	Agosto	2023-08-16T00:00:00	2024-11-08T07:00:00	2	Temperatura media	16.6
71786	7	Sololá	717	San Juan la Laguna	12	San Juan la Laguna	8	Agosto	2023-08-16T00:00:00	2024-11-08T07:00:00	4	Temperatura máxima	16.6
71787	7	Sololá	717	San Juan la Laguna	12	San Juan la Laguna	8	Agosto	2023-08-16T00:00:00	2024-11-08T07:00:00	3	Temperatura mínima	15.5
71788	7	Sololá	717	San Juan la Laguna	12	San Juan la Laguna	8	Agosto	2023-08-16T00:00:00	2024-11-08T07:00:00	5	Humedad	86
71789	7	Sololá	717	San Juan la Laguna	12	San Juan la Laguna	8	Agosto	2023-08-16T00:00:00	2024-11-08T07:00:00	6	Velocidad del viento	0
71790	7	Sololá	717	San Juan la Laguna	12	San Juan la Laguna	8	Agosto	2023-08-16T00:00:00	2024-11-08T07:00:00	7	Dirección del viento	0
71791	7	Sololá	717	San Juan la Laguna	12	San Juan la Laguna	8	Agosto	2023-08-16T00:00:00	2024-11-08T07:00:00	1	Precipitación	0
71792	7	Sololá	717	San Juan la Laguna	12	San Juan la Laguna	8	Agosto	2023-08-16T00:00:00	2024-11-08T07:00:00	8	Radiación solar	39
71793	7	Sololá	717	San Juan la Laguna	12	San Juan la Laguna	8	Agosto	2023-08-16T00:00:00	2024-11-08T08:00:00	2	Temperatura media	20.9
71794	7	Sololá	717	San Juan la Laguna	12	San Juan la Laguna	8	Agosto	2023-08-16T00:00:00	2024-11-08T08:00:00	4	Temperatura máxima	20.9
71795	7	Sololá	717	San Juan la Laguna	12	San Juan la Laguna	8	Agosto	2023-08-16T00:00:00	2024-11-08T08:00:00	3	Temperatura mínima	16.6
71796	7	Sololá	717	San Juan la Laguna	12	San Juan la Laguna	8	Agosto	2023-08-16T00:00:00	2024-11-08T08:00:00	5	Humedad	71
71797	7	Sololá	717	San Juan la Laguna	12	San Juan la Laguna	8	Agosto	2023-08-16T00:00:00	2024-11-08T08:00:00	6	Velocidad del viento	0
71798	7	Sololá	717	San Juan la Laguna	12	San Juan la Laguna	8	Agosto	2023-08-16T00:00:00	2024-11-08T08:00:00	7	Dirección del viento	0
71799	7	Sololá	717	San Juan la Laguna	12	San Juan la Laguna	8	Agosto	2023-08-16T00:00:00	2024-11-08T08:00:00	1	Precipitación	0
71800	7	Sololá	717	San Juan la Laguna	12	San Juan la Laguna	8	Agosto	2023-08-16T00:00:00	2024-11-08T08:00:00	8	Radiación solar	260
71801	7	Sololá	717	San Juan la Laguna	12	San Juan la Laguna	8	Agosto	2023-08-16T00:00:00	2024-11-08T09:00:00	2	Temperatura media	22.6
71802	7	Sololá	717	San Juan la Laguna	12	San Juan la Laguna	8	Agosto	2023-08-16T00:00:00	2024-11-08T09:00:00	4	Temperatura máxima	22.6
71803	7	Sololá	717	San Juan la Laguna	12	San Juan la Laguna	8	Agosto	2023-08-16T00:00:00	2024-11-08T09:00:00	3	Temperatura mínima	20.9
71804	7	Sololá	717	San Juan la Laguna	12	San Juan la Laguna	8	Agosto	2023-08-16T00:00:00	2024-11-08T09:00:00	5	Humedad	66
71805	7	Sololá	717	San Juan la Laguna	12	San Juan la Laguna	8	Agosto	2023-08-16T00:00:00	2024-11-08T09:00:00	6	Velocidad del viento	0
71806	7	Sololá	717	San Juan la Laguna	12	San Juan la Laguna	8	Agosto	2023-08-16T00:00:00	2024-11-08T09:00:00	7	Dirección del viento	0
71807	7	Sololá	717	San Juan la Laguna	12	San Juan la Laguna	8	Agosto	2023-08-16T00:00:00	2024-11-08T09:00:00	1	Precipitación	0
71808	7	Sololá	717	San Juan la Laguna	12	San Juan la Laguna	8	Agosto	2023-08-16T00:00:00	2024-11-08T09:00:00	8	Radiación solar	428
71809	7	Sololá	717	San Juan la Laguna	12	San Juan la Laguna	8	Agosto	2023-08-16T00:00:00	2024-11-08T10:00:00	2	Temperatura media	24.9
71810	7	Sololá	717	San Juan la Laguna	12	San Juan la Laguna	8	Agosto	2023-08-16T00:00:00	2024-11-08T10:00:00	4	Temperatura máxima	24.9
71811	7	Sololá	717	San Juan la Laguna	12	San Juan la Laguna	8	Agosto	2023-08-16T00:00:00	2024-11-08T10:00:00	3	Temperatura mínima	22.3
71812	7	Sololá	717	San Juan la Laguna	12	San Juan la Laguna	8	Agosto	2023-08-16T00:00:00	2024-11-08T10:00:00	5	Humedad	57
71813	7	Sololá	717	San Juan la Laguna	12	San Juan la Laguna	8	Agosto	2023-08-16T00:00:00	2024-11-08T10:00:00	6	Velocidad del viento	0
71814	7	Sololá	717	San Juan la Laguna	12	San Juan la Laguna	8	Agosto	2023-08-16T00:00:00	2024-11-08T10:00:00	7	Dirección del viento	0
71815	7	Sololá	717	San Juan la Laguna	12	San Juan la Laguna	8	Agosto	2023-08-16T00:00:00	2024-11-08T10:00:00	1	Precipitación	0
71816	7	Sololá	717	San Juan la Laguna	12	San Juan la Laguna	8	Agosto	2023-08-16T00:00:00	2024-11-08T10:00:00	8	Radiación solar	587
71817	7	Sololá	717	San Juan la Laguna	12	San Juan la Laguna	8	Agosto	2023-08-16T00:00:00	2024-11-08T11:00:00	2	Temperatura media	25.6
71818	7	Sololá	717	San Juan la Laguna	12	San Juan la Laguna	8	Agosto	2023-08-16T00:00:00	2024-11-08T11:00:00	4	Temperatura máxima	25.8
71819	7	Sololá	717	San Juan la Laguna	12	San Juan la Laguna	8	Agosto	2023-08-16T00:00:00	2024-11-08T11:00:00	3	Temperatura mínima	24.8
71820	7	Sololá	717	San Juan la Laguna	12	San Juan la Laguna	8	Agosto	2023-08-16T00:00:00	2024-11-08T11:00:00	5	Humedad	53
71821	7	Sololá	717	San Juan la Laguna	12	San Juan la Laguna	8	Agosto	2023-08-16T00:00:00	2024-11-08T11:00:00	6	Velocidad del viento	1.6
71822	7	Sololá	717	San Juan la Laguna	12	San Juan la Laguna	8	Agosto	2023-08-16T00:00:00	2024-11-08T11:00:00	7	Dirección del viento	1.61
71823	7	Sololá	717	San Juan la Laguna	12	San Juan la Laguna	8	Agosto	2023-08-16T00:00:00	2024-11-08T11:00:00	1	Precipitación	0
71824	7	Sololá	717	San Juan la Laguna	12	San Juan la Laguna	8	Agosto	2023-08-16T00:00:00	2024-11-08T11:00:00	8	Radiación solar	854
71825	7	Sololá	717	San Juan la Laguna	12	San Juan la Laguna	8	Agosto	2023-08-16T00:00:00	2024-11-08T12:00:00	2	Temperatura media	26
71826	7	Sololá	717	San Juan la Laguna	12	San Juan la Laguna	8	Agosto	2023-08-16T00:00:00	2024-11-08T12:00:00	4	Temperatura máxima	26
71827	7	Sololá	717	San Juan la Laguna	12	San Juan la Laguna	8	Agosto	2023-08-16T00:00:00	2024-11-08T12:00:00	3	Temperatura mínima	25
71828	7	Sololá	717	San Juan la Laguna	12	San Juan la Laguna	8	Agosto	2023-08-16T00:00:00	2024-11-08T12:00:00	5	Humedad	52
71829	7	Sololá	717	San Juan la Laguna	12	San Juan la Laguna	8	Agosto	2023-08-16T00:00:00	2024-11-08T12:00:00	6	Velocidad del viento	1.6
71830	7	Sololá	717	San Juan la Laguna	12	San Juan la Laguna	8	Agosto	2023-08-16T00:00:00	2024-11-08T12:00:00	7	Dirección del viento	1.61
71831	7	Sololá	717	San Juan la Laguna	12	San Juan la Laguna	8	Agosto	2023-08-16T00:00:00	2024-11-08T12:00:00	1	Precipitación	0
71832	7	Sololá	717	San Juan la Laguna	12	San Juan la Laguna	8	Agosto	2023-08-16T00:00:00	2024-11-08T12:00:00	8	Radiación solar	720
71833	7	Sololá	717	San Juan la Laguna	12	San Juan la Laguna	8	Agosto	2023-08-16T00:00:00	2024-11-08T13:00:00	2	Temperatura media	24.1
71834	7	Sololá	717	San Juan la Laguna	12	San Juan la Laguna	8	Agosto	2023-08-16T00:00:00	2024-11-08T13:00:00	4	Temperatura máxima	26.1
71835	7	Sololá	717	San Juan la Laguna	12	San Juan la Laguna	8	Agosto	2023-08-16T00:00:00	2024-11-08T13:00:00	3	Temperatura mínima	23.2
71836	7	Sololá	717	San Juan la Laguna	12	San Juan la Laguna	8	Agosto	2023-08-16T00:00:00	2024-11-08T13:00:00	5	Humedad	70
71837	7	Sololá	717	San Juan la Laguna	12	San Juan la Laguna	8	Agosto	2023-08-16T00:00:00	2024-11-08T13:00:00	6	Velocidad del viento	0
71838	7	Sololá	717	San Juan la Laguna	12	San Juan la Laguna	8	Agosto	2023-08-16T00:00:00	2024-11-08T13:00:00	7	Dirección del viento	0
71839	7	Sololá	717	San Juan la Laguna	12	San Juan la Laguna	8	Agosto	2023-08-16T00:00:00	2024-11-08T13:00:00	1	Precipitación	0
71840	7	Sololá	717	San Juan la Laguna	12	San Juan la Laguna	8	Agosto	2023-08-16T00:00:00	2024-11-08T13:00:00	8	Radiación solar	350
71841	7	Sololá	717	San Juan la Laguna	12	San Juan la Laguna	8	Agosto	2023-08-16T00:00:00	2024-11-08T14:00:00	2	Temperatura media	25.1
71842	7	Sololá	717	San Juan la Laguna	12	San Juan la Laguna	8	Agosto	2023-08-16T00:00:00	2024-11-08T14:00:00	4	Temperatura máxima	25.2
71843	7	Sololá	717	San Juan la Laguna	12	San Juan la Laguna	8	Agosto	2023-08-16T00:00:00	2024-11-08T14:00:00	3	Temperatura mínima	23.3
71844	7	Sololá	717	San Juan la Laguna	12	San Juan la Laguna	8	Agosto	2023-08-16T00:00:00	2024-11-08T14:00:00	5	Humedad	66
71845	7	Sololá	717	San Juan la Laguna	12	San Juan la Laguna	8	Agosto	2023-08-16T00:00:00	2024-11-08T14:00:00	6	Velocidad del viento	3.2
71846	7	Sololá	717	San Juan la Laguna	12	San Juan la Laguna	8	Agosto	2023-08-16T00:00:00	2024-11-08T14:00:00	7	Dirección del viento	3.22
71847	7	Sololá	717	San Juan la Laguna	12	San Juan la Laguna	8	Agosto	2023-08-16T00:00:00	2024-11-08T14:00:00	1	Precipitación	0
71848	7	Sololá	717	San Juan la Laguna	12	San Juan la Laguna	8	Agosto	2023-08-16T00:00:00	2024-11-08T14:00:00	8	Radiación solar	821
71849	7	Sololá	717	San Juan la Laguna	12	San Juan la Laguna	8	Agosto	2023-08-16T00:00:00	2024-11-08T15:00:00	2	Temperatura media	21.3
71850	7	Sololá	717	San Juan la Laguna	12	San Juan la Laguna	8	Agosto	2023-08-16T00:00:00	2024-11-08T15:00:00	4	Temperatura máxima	25.4
71851	7	Sololá	717	San Juan la Laguna	12	San Juan la Laguna	8	Agosto	2023-08-16T00:00:00	2024-11-08T15:00:00	3	Temperatura mínima	21.3
71852	7	Sololá	717	San Juan la Laguna	12	San Juan la Laguna	8	Agosto	2023-08-16T00:00:00	2024-11-08T15:00:00	5	Humedad	80
71853	7	Sololá	717	San Juan la Laguna	12	San Juan la Laguna	8	Agosto	2023-08-16T00:00:00	2024-11-08T15:00:00	6	Velocidad del viento	4.8
71854	7	Sololá	717	San Juan la Laguna	12	San Juan la Laguna	8	Agosto	2023-08-16T00:00:00	2024-11-08T15:00:00	7	Dirección del viento	4.83
71855	7	Sololá	717	San Juan la Laguna	12	San Juan la Laguna	8	Agosto	2023-08-16T00:00:00	2024-11-08T15:00:00	1	Precipitación	0
71856	7	Sololá	717	San Juan la Laguna	12	San Juan la Laguna	8	Agosto	2023-08-16T00:00:00	2024-11-08T15:00:00	8	Radiación solar	338
71857	7	Sololá	717	San Juan la Laguna	12	San Juan la Laguna	8	Agosto	2023-08-16T00:00:00	2024-11-08T16:00:00	2	Temperatura media	20.9
71858	7	Sololá	717	San Juan la Laguna	12	San Juan la Laguna	8	Agosto	2023-08-16T00:00:00	2024-11-08T16:00:00	4	Temperatura máxima	21.9
71859	7	Sololá	717	San Juan la Laguna	12	San Juan la Laguna	8	Agosto	2023-08-16T00:00:00	2024-11-08T16:00:00	3	Temperatura mínima	20.9
71860	7	Sololá	717	San Juan la Laguna	12	San Juan la Laguna	8	Agosto	2023-08-16T00:00:00	2024-11-08T16:00:00	5	Humedad	80
71861	7	Sololá	717	San Juan la Laguna	12	San Juan la Laguna	8	Agosto	2023-08-16T00:00:00	2024-11-08T16:00:00	6	Velocidad del viento	3.2
71862	7	Sololá	717	San Juan la Laguna	12	San Juan la Laguna	8	Agosto	2023-08-16T00:00:00	2024-11-08T16:00:00	7	Dirección del viento	3.22
71863	7	Sololá	717	San Juan la Laguna	12	San Juan la Laguna	8	Agosto	2023-08-16T00:00:00	2024-11-08T16:00:00	1	Precipitación	0
71864	7	Sololá	717	San Juan la Laguna	12	San Juan la Laguna	8	Agosto	2023-08-16T00:00:00	2024-11-08T16:00:00	8	Radiación solar	110
71865	7	Sololá	717	San Juan la Laguna	12	San Juan la Laguna	8	Agosto	2023-08-16T00:00:00	2024-11-08T17:00:00	2	Temperatura media	20.3
71866	7	Sololá	717	San Juan la Laguna	12	San Juan la Laguna	8	Agosto	2023-08-16T00:00:00	2024-11-08T17:00:00	4	Temperatura máxima	20.9
71867	7	Sololá	717	San Juan la Laguna	12	San Juan la Laguna	8	Agosto	2023-08-16T00:00:00	2024-11-08T17:00:00	3	Temperatura mínima	20.3
71868	7	Sololá	717	San Juan la Laguna	12	San Juan la Laguna	8	Agosto	2023-08-16T00:00:00	2024-11-08T17:00:00	5	Humedad	82
71869	7	Sololá	717	San Juan la Laguna	12	San Juan la Laguna	8	Agosto	2023-08-16T00:00:00	2024-11-08T17:00:00	6	Velocidad del viento	3.2
71870	7	Sololá	717	San Juan la Laguna	12	San Juan la Laguna	8	Agosto	2023-08-16T00:00:00	2024-11-08T17:00:00	7	Dirección del viento	3.22
71871	7	Sololá	717	San Juan la Laguna	12	San Juan la Laguna	8	Agosto	2023-08-16T00:00:00	2024-11-08T17:00:00	1	Precipitación	0
71872	7	Sololá	717	San Juan la Laguna	12	San Juan la Laguna	8	Agosto	2023-08-16T00:00:00	2024-11-08T17:00:00	8	Radiación solar	57
71873	7	Sololá	717	San Juan la Laguna	12	San Juan la Laguna	8	Agosto	2023-08-16T00:00:00	2024-11-08T18:00:00	2	Temperatura media	20.2
71874	7	Sololá	717	San Juan la Laguna	12	San Juan la Laguna	8	Agosto	2023-08-16T00:00:00	2024-11-08T18:00:00	4	Temperatura máxima	20.4
71875	7	Sololá	717	San Juan la Laguna	12	San Juan la Laguna	8	Agosto	2023-08-16T00:00:00	2024-11-08T18:00:00	3	Temperatura mínima	19.6
71876	7	Sololá	717	San Juan la Laguna	12	San Juan la Laguna	8	Agosto	2023-08-16T00:00:00	2024-11-08T18:00:00	5	Humedad	84
71877	7	Sololá	717	San Juan la Laguna	12	San Juan la Laguna	8	Agosto	2023-08-16T00:00:00	2024-11-08T18:00:00	6	Velocidad del viento	3.2
71878	7	Sololá	717	San Juan la Laguna	12	San Juan la Laguna	8	Agosto	2023-08-16T00:00:00	2024-11-08T18:00:00	7	Dirección del viento	3.22
71879	7	Sololá	717	San Juan la Laguna	12	San Juan la Laguna	8	Agosto	2023-08-16T00:00:00	2024-11-08T18:00:00	1	Precipitación	0
71880	7	Sololá	717	San Juan la Laguna	12	San Juan la Laguna	8	Agosto	2023-08-16T00:00:00	2024-11-08T18:00:00	8	Radiación solar	33
71881	7	Sololá	717	San Juan la Laguna	12	San Juan la Laguna	8	Agosto	2023-08-16T00:00:00	2024-11-08T19:00:00	2	Temperatura media	19.8
71882	7	Sololá	717	San Juan la Laguna	12	San Juan la Laguna	8	Agosto	2023-08-16T00:00:00	2024-11-08T19:00:00	4	Temperatura máxima	20.3
71883	7	Sololá	717	San Juan la Laguna	12	San Juan la Laguna	8	Agosto	2023-08-16T00:00:00	2024-11-08T19:00:00	3	Temperatura mínima	19.8
71884	7	Sololá	717	San Juan la Laguna	12	San Juan la Laguna	8	Agosto	2023-08-16T00:00:00	2024-11-08T19:00:00	5	Humedad	86
71885	7	Sololá	717	San Juan la Laguna	12	San Juan la Laguna	8	Agosto	2023-08-16T00:00:00	2024-11-08T19:00:00	6	Velocidad del viento	0
71886	7	Sololá	717	San Juan la Laguna	12	San Juan la Laguna	8	Agosto	2023-08-16T00:00:00	2024-11-08T19:00:00	7	Dirección del viento	0
71887	7	Sololá	717	San Juan la Laguna	12	San Juan la Laguna	8	Agosto	2023-08-16T00:00:00	2024-11-08T19:00:00	1	Precipitación	0
71888	7	Sololá	717	San Juan la Laguna	12	San Juan la Laguna	8	Agosto	2023-08-16T00:00:00	2024-11-08T19:00:00	8	Radiación solar	0
71889	7	Sololá	717	San Juan la Laguna	12	San Juan la Laguna	8	Agosto	2023-08-16T00:00:00	2024-11-08T20:00:00	2	Temperatura media	18.9
71890	7	Sololá	717	San Juan la Laguna	12	San Juan la Laguna	8	Agosto	2023-08-16T00:00:00	2024-11-08T20:00:00	4	Temperatura máxima	19.9
71891	7	Sololá	717	San Juan la Laguna	12	San Juan la Laguna	8	Agosto	2023-08-16T00:00:00	2024-11-08T20:00:00	3	Temperatura mínima	18.9
71892	7	Sololá	717	San Juan la Laguna	12	San Juan la Laguna	8	Agosto	2023-08-16T00:00:00	2024-11-08T20:00:00	5	Humedad	89
71893	7	Sololá	717	San Juan la Laguna	12	San Juan la Laguna	8	Agosto	2023-08-16T00:00:00	2024-11-08T20:00:00	6	Velocidad del viento	0
71894	7	Sololá	717	San Juan la Laguna	12	San Juan la Laguna	8	Agosto	2023-08-16T00:00:00	2024-11-08T20:00:00	7	Dirección del viento	0
71895	7	Sololá	717	San Juan la Laguna	12	San Juan la Laguna	8	Agosto	2023-08-16T00:00:00	2024-11-08T20:00:00	1	Precipitación	0
71896	7	Sololá	717	San Juan la Laguna	12	San Juan la Laguna	8	Agosto	2023-08-16T00:00:00	2024-11-08T20:00:00	8	Radiación solar	0
71897	7	Sololá	717	San Juan la Laguna	12	San Juan la Laguna	8	Agosto	2023-08-16T00:00:00	2024-11-08T21:00:00	2	Temperatura media	18.3
71898	7	Sololá	717	San Juan la Laguna	12	San Juan la Laguna	8	Agosto	2023-08-16T00:00:00	2024-11-08T21:00:00	4	Temperatura máxima	18.9
71899	7	Sololá	717	San Juan la Laguna	12	San Juan la Laguna	8	Agosto	2023-08-16T00:00:00	2024-11-08T21:00:00	3	Temperatura mínima	18.3
71900	7	Sololá	717	San Juan la Laguna	12	San Juan la Laguna	8	Agosto	2023-08-16T00:00:00	2024-11-08T21:00:00	5	Humedad	88
71901	7	Sololá	717	San Juan la Laguna	12	San Juan la Laguna	8	Agosto	2023-08-16T00:00:00	2024-11-08T21:00:00	6	Velocidad del viento	0
71902	7	Sololá	717	San Juan la Laguna	12	San Juan la Laguna	8	Agosto	2023-08-16T00:00:00	2024-11-08T21:00:00	7	Dirección del viento	0
71903	7	Sololá	717	San Juan la Laguna	12	San Juan la Laguna	8	Agosto	2023-08-16T00:00:00	2024-11-08T21:00:00	1	Precipitación	0
71904	7	Sololá	717	San Juan la Laguna	12	San Juan la Laguna	8	Agosto	2023-08-16T00:00:00	2024-11-08T21:00:00	8	Radiación solar	0
71905	7	Sololá	717	San Juan la Laguna	12	San Juan la Laguna	8	Agosto	2023-08-16T00:00:00	2024-11-08T22:00:00	2	Temperatura media	18.2
71906	7	Sololá	717	San Juan la Laguna	12	San Juan la Laguna	8	Agosto	2023-08-16T00:00:00	2024-11-08T22:00:00	4	Temperatura máxima	18.4
71907	7	Sololá	717	San Juan la Laguna	12	San Juan la Laguna	8	Agosto	2023-08-16T00:00:00	2024-11-08T22:00:00	3	Temperatura mínima	18.2
71908	7	Sololá	717	San Juan la Laguna	12	San Juan la Laguna	8	Agosto	2023-08-16T00:00:00	2024-11-08T22:00:00	5	Humedad	85
71909	7	Sololá	717	San Juan la Laguna	12	San Juan la Laguna	8	Agosto	2023-08-16T00:00:00	2024-11-08T22:00:00	6	Velocidad del viento	0
71910	7	Sololá	717	San Juan la Laguna	12	San Juan la Laguna	8	Agosto	2023-08-16T00:00:00	2024-11-08T22:00:00	7	Dirección del viento	0
71911	7	Sololá	717	San Juan la Laguna	12	San Juan la Laguna	8	Agosto	2023-08-16T00:00:00	2024-11-08T22:00:00	1	Precipitación	0
71912	7	Sololá	717	San Juan la Laguna	12	San Juan la Laguna	8	Agosto	2023-08-16T00:00:00	2024-11-08T22:00:00	8	Radiación solar	0
71913	7	Sololá	717	San Juan la Laguna	12	San Juan la Laguna	8	Agosto	2023-08-16T00:00:00	2024-11-08T23:00:00	2	Temperatura media	17.8
71914	7	Sololá	717	San Juan la Laguna	12	San Juan la Laguna	8	Agosto	2023-08-16T00:00:00	2024-11-08T23:00:00	4	Temperatura máxima	18.3
71915	7	Sololá	717	San Juan la Laguna	12	San Juan la Laguna	8	Agosto	2023-08-16T00:00:00	2024-11-08T23:00:00	3	Temperatura mínima	17.6
71916	7	Sololá	717	San Juan la Laguna	12	San Juan la Laguna	8	Agosto	2023-08-16T00:00:00	2024-11-08T23:00:00	5	Humedad	85
71917	7	Sololá	717	San Juan la Laguna	12	San Juan la Laguna	8	Agosto	2023-08-16T00:00:00	2024-11-08T23:00:00	6	Velocidad del viento	0
71918	7	Sololá	717	San Juan la Laguna	12	San Juan la Laguna	8	Agosto	2023-08-16T00:00:00	2024-11-08T23:00:00	7	Dirección del viento	0
71919	7	Sololá	717	San Juan la Laguna	12	San Juan la Laguna	8	Agosto	2023-08-16T00:00:00	2024-11-08T23:00:00	1	Precipitación	0
71920	7	Sololá	717	San Juan la Laguna	12	San Juan la Laguna	8	Agosto	2023-08-16T00:00:00	2024-11-08T23:00:00	8	Radiación solar	0
71921	7	Sololá	717	San Juan la Laguna	12	San Juan la Laguna	8	Agosto	2023-08-17T00:00:00	2024-11-08T00:00:00	2	Temperatura media	17.6
71922	7	Sololá	717	San Juan la Laguna	12	San Juan la Laguna	8	Agosto	2023-08-17T00:00:00	2024-11-08T00:00:00	4	Temperatura máxima	17.8
71923	7	Sololá	717	San Juan la Laguna	12	San Juan la Laguna	8	Agosto	2023-08-17T00:00:00	2024-11-08T00:00:00	3	Temperatura mínima	17.5
71924	7	Sololá	717	San Juan la Laguna	12	San Juan la Laguna	8	Agosto	2023-08-17T00:00:00	2024-11-08T00:00:00	5	Humedad	83
71925	7	Sololá	717	San Juan la Laguna	12	San Juan la Laguna	8	Agosto	2023-08-17T00:00:00	2024-11-08T00:00:00	6	Velocidad del viento	0
71926	7	Sololá	717	San Juan la Laguna	12	San Juan la Laguna	8	Agosto	2023-08-17T00:00:00	2024-11-08T00:00:00	7	Dirección del viento	0
71927	7	Sololá	717	San Juan la Laguna	12	San Juan la Laguna	8	Agosto	2023-08-17T00:00:00	2024-11-08T00:00:00	1	Precipitación	0
71928	7	Sololá	717	San Juan la Laguna	12	San Juan la Laguna	8	Agosto	2023-08-17T00:00:00	2024-11-08T00:00:00	8	Radiación solar	0
71929	7	Sololá	717	San Juan la Laguna	12	San Juan la Laguna	8	Agosto	2023-08-17T00:00:00	2024-11-08T01:00:00	2	Temperatura media	16.7
71930	7	Sololá	717	San Juan la Laguna	12	San Juan la Laguna	8	Agosto	2023-08-17T00:00:00	2024-11-08T01:00:00	4	Temperatura máxima	17.6
71931	7	Sololá	717	San Juan la Laguna	12	San Juan la Laguna	8	Agosto	2023-08-17T00:00:00	2024-11-08T01:00:00	3	Temperatura mínima	16.6
71932	7	Sololá	717	San Juan la Laguna	12	San Juan la Laguna	8	Agosto	2023-08-17T00:00:00	2024-11-08T01:00:00	5	Humedad	85
71933	7	Sololá	717	San Juan la Laguna	12	San Juan la Laguna	8	Agosto	2023-08-17T00:00:00	2024-11-08T01:00:00	6	Velocidad del viento	0
71934	7	Sololá	717	San Juan la Laguna	12	San Juan la Laguna	8	Agosto	2023-08-17T00:00:00	2024-11-08T01:00:00	7	Dirección del viento	0
71935	7	Sololá	717	San Juan la Laguna	12	San Juan la Laguna	8	Agosto	2023-08-17T00:00:00	2024-11-08T01:00:00	1	Precipitación	0
71936	7	Sololá	717	San Juan la Laguna	12	San Juan la Laguna	8	Agosto	2023-08-17T00:00:00	2024-11-08T01:00:00	8	Radiación solar	0
71937	7	Sololá	717	San Juan la Laguna	12	San Juan la Laguna	8	Agosto	2023-08-17T00:00:00	2024-11-08T02:00:00	2	Temperatura media	16.3
71938	7	Sololá	717	San Juan la Laguna	12	San Juan la Laguna	8	Agosto	2023-08-17T00:00:00	2024-11-08T02:00:00	4	Temperatura máxima	16.8
71939	7	Sololá	717	San Juan la Laguna	12	San Juan la Laguna	8	Agosto	2023-08-17T00:00:00	2024-11-08T02:00:00	3	Temperatura mínima	16.3
71940	7	Sololá	717	San Juan la Laguna	12	San Juan la Laguna	8	Agosto	2023-08-17T00:00:00	2024-11-08T02:00:00	5	Humedad	85
71941	7	Sololá	717	San Juan la Laguna	12	San Juan la Laguna	8	Agosto	2023-08-17T00:00:00	2024-11-08T02:00:00	6	Velocidad del viento	0
71942	7	Sololá	717	San Juan la Laguna	12	San Juan la Laguna	8	Agosto	2023-08-17T00:00:00	2024-11-08T02:00:00	7	Dirección del viento	0
71943	7	Sololá	717	San Juan la Laguna	12	San Juan la Laguna	8	Agosto	2023-08-17T00:00:00	2024-11-08T02:00:00	1	Precipitación	0
71944	7	Sololá	717	San Juan la Laguna	12	San Juan la Laguna	8	Agosto	2023-08-17T00:00:00	2024-11-08T02:00:00	8	Radiación solar	0
71945	7	Sololá	717	San Juan la Laguna	12	San Juan la Laguna	8	Agosto	2023-08-17T00:00:00	2024-11-08T03:00:00	2	Temperatura media	16
71946	7	Sololá	717	San Juan la Laguna	12	San Juan la Laguna	8	Agosto	2023-08-17T00:00:00	2024-11-08T03:00:00	4	Temperatura máxima	16.3
71947	7	Sololá	717	San Juan la Laguna	12	San Juan la Laguna	8	Agosto	2023-08-17T00:00:00	2024-11-08T03:00:00	3	Temperatura mínima	16
71948	7	Sololá	717	San Juan la Laguna	12	San Juan la Laguna	8	Agosto	2023-08-17T00:00:00	2024-11-08T03:00:00	5	Humedad	87
71949	7	Sololá	717	San Juan la Laguna	12	San Juan la Laguna	8	Agosto	2023-08-17T00:00:00	2024-11-08T03:00:00	6	Velocidad del viento	0
71950	7	Sololá	717	San Juan la Laguna	12	San Juan la Laguna	8	Agosto	2023-08-17T00:00:00	2024-11-08T03:00:00	7	Dirección del viento	0
71951	7	Sololá	717	San Juan la Laguna	12	San Juan la Laguna	8	Agosto	2023-08-17T00:00:00	2024-11-08T03:00:00	1	Precipitación	0
71952	7	Sololá	717	San Juan la Laguna	12	San Juan la Laguna	8	Agosto	2023-08-17T00:00:00	2024-11-08T03:00:00	8	Radiación solar	0
71953	7	Sololá	717	San Juan la Laguna	12	San Juan la Laguna	8	Agosto	2023-08-17T00:00:00	2024-11-08T04:00:00	2	Temperatura media	15.8
71954	7	Sololá	717	San Juan la Laguna	12	San Juan la Laguna	8	Agosto	2023-08-17T00:00:00	2024-11-08T04:00:00	4	Temperatura máxima	16.3
71955	7	Sololá	717	San Juan la Laguna	12	San Juan la Laguna	8	Agosto	2023-08-17T00:00:00	2024-11-08T04:00:00	3	Temperatura mínima	15.6
71956	7	Sololá	717	San Juan la Laguna	12	San Juan la Laguna	8	Agosto	2023-08-17T00:00:00	2024-11-08T04:00:00	5	Humedad	86
71957	7	Sololá	717	San Juan la Laguna	12	San Juan la Laguna	8	Agosto	2023-08-17T00:00:00	2024-11-08T04:00:00	6	Velocidad del viento	0
71958	7	Sololá	717	San Juan la Laguna	12	San Juan la Laguna	8	Agosto	2023-08-17T00:00:00	2024-11-08T04:00:00	7	Dirección del viento	0
71959	7	Sololá	717	San Juan la Laguna	12	San Juan la Laguna	8	Agosto	2023-08-17T00:00:00	2024-11-08T04:00:00	1	Precipitación	0
71960	7	Sololá	717	San Juan la Laguna	12	San Juan la Laguna	8	Agosto	2023-08-17T00:00:00	2024-11-08T04:00:00	8	Radiación solar	0
71961	7	Sololá	717	San Juan la Laguna	12	San Juan la Laguna	8	Agosto	2023-08-17T00:00:00	2024-11-08T05:00:00	2	Temperatura media	15.1
71962	7	Sololá	717	San Juan la Laguna	12	San Juan la Laguna	8	Agosto	2023-08-17T00:00:00	2024-11-08T05:00:00	4	Temperatura máxima	16.1
71963	7	Sololá	717	San Juan la Laguna	12	San Juan la Laguna	8	Agosto	2023-08-17T00:00:00	2024-11-08T05:00:00	3	Temperatura mínima	15.1
71964	7	Sololá	717	San Juan la Laguna	12	San Juan la Laguna	8	Agosto	2023-08-17T00:00:00	2024-11-08T05:00:00	5	Humedad	88
71965	7	Sololá	717	San Juan la Laguna	12	San Juan la Laguna	8	Agosto	2023-08-17T00:00:00	2024-11-08T05:00:00	6	Velocidad del viento	0
71966	7	Sololá	717	San Juan la Laguna	12	San Juan la Laguna	8	Agosto	2023-08-17T00:00:00	2024-11-08T05:00:00	7	Dirección del viento	0
71967	7	Sololá	717	San Juan la Laguna	12	San Juan la Laguna	8	Agosto	2023-08-17T00:00:00	2024-11-08T05:00:00	1	Precipitación	0
71968	7	Sololá	717	San Juan la Laguna	12	San Juan la Laguna	8	Agosto	2023-08-17T00:00:00	2024-11-08T05:00:00	8	Radiación solar	0
71969	7	Sololá	717	San Juan la Laguna	12	San Juan la Laguna	8	Agosto	2023-08-17T00:00:00	2024-11-08T06:00:00	2	Temperatura media	14.8
71970	7	Sololá	717	San Juan la Laguna	12	San Juan la Laguna	8	Agosto	2023-08-17T00:00:00	2024-11-08T06:00:00	4	Temperatura máxima	15.3
71971	7	Sololá	717	San Juan la Laguna	12	San Juan la Laguna	8	Agosto	2023-08-17T00:00:00	2024-11-08T06:00:00	3	Temperatura mínima	14.7
71972	7	Sololá	717	San Juan la Laguna	12	San Juan la Laguna	8	Agosto	2023-08-17T00:00:00	2024-11-08T06:00:00	5	Humedad	88
71973	7	Sololá	717	San Juan la Laguna	12	San Juan la Laguna	8	Agosto	2023-08-17T00:00:00	2024-11-08T06:00:00	6	Velocidad del viento	0
71974	7	Sololá	717	San Juan la Laguna	12	San Juan la Laguna	8	Agosto	2023-08-17T00:00:00	2024-11-08T06:00:00	7	Dirección del viento	0
71975	7	Sololá	717	San Juan la Laguna	12	San Juan la Laguna	8	Agosto	2023-08-17T00:00:00	2024-11-08T06:00:00	1	Precipitación	0
71976	7	Sololá	717	San Juan la Laguna	12	San Juan la Laguna	8	Agosto	2023-08-17T00:00:00	2024-11-08T06:00:00	8	Radiación solar	0
71977	7	Sololá	717	San Juan la Laguna	12	San Juan la Laguna	8	Agosto	2023-08-17T00:00:00	2024-11-08T07:00:00	2	Temperatura media	17.2
71978	7	Sololá	717	San Juan la Laguna	12	San Juan la Laguna	8	Agosto	2023-08-17T00:00:00	2024-11-08T07:00:00	4	Temperatura máxima	17.2
71979	7	Sololá	717	San Juan la Laguna	12	San Juan la Laguna	8	Agosto	2023-08-17T00:00:00	2024-11-08T07:00:00	3	Temperatura mínima	14.7
71980	7	Sololá	717	San Juan la Laguna	12	San Juan la Laguna	8	Agosto	2023-08-17T00:00:00	2024-11-08T07:00:00	5	Humedad	84
71981	7	Sololá	717	San Juan la Laguna	12	San Juan la Laguna	8	Agosto	2023-08-17T00:00:00	2024-11-08T07:00:00	6	Velocidad del viento	0
71982	7	Sololá	717	San Juan la Laguna	12	San Juan la Laguna	8	Agosto	2023-08-17T00:00:00	2024-11-08T07:00:00	7	Dirección del viento	0
71983	7	Sololá	717	San Juan la Laguna	12	San Juan la Laguna	8	Agosto	2023-08-17T00:00:00	2024-11-08T07:00:00	1	Precipitación	0
71984	7	Sololá	717	San Juan la Laguna	12	San Juan la Laguna	8	Agosto	2023-08-17T00:00:00	2024-11-08T07:00:00	8	Radiación solar	65
71985	7	Sololá	717	San Juan la Laguna	12	San Juan la Laguna	8	Agosto	2023-08-17T00:00:00	2024-11-08T08:00:00	2	Temperatura media	21.3
71986	7	Sololá	717	San Juan la Laguna	12	San Juan la Laguna	8	Agosto	2023-08-17T00:00:00	2024-11-08T08:00:00	4	Temperatura máxima	21.3
71987	7	Sololá	717	San Juan la Laguna	12	San Juan la Laguna	8	Agosto	2023-08-17T00:00:00	2024-11-08T08:00:00	3	Temperatura mínima	17.2
71988	7	Sololá	717	San Juan la Laguna	12	San Juan la Laguna	8	Agosto	2023-08-17T00:00:00	2024-11-08T08:00:00	5	Humedad	71
71989	7	Sololá	717	San Juan la Laguna	12	San Juan la Laguna	8	Agosto	2023-08-17T00:00:00	2024-11-08T08:00:00	6	Velocidad del viento	0
71990	7	Sololá	717	San Juan la Laguna	12	San Juan la Laguna	8	Agosto	2023-08-17T00:00:00	2024-11-08T08:00:00	7	Dirección del viento	0
71991	7	Sololá	717	San Juan la Laguna	12	San Juan la Laguna	8	Agosto	2023-08-17T00:00:00	2024-11-08T08:00:00	1	Precipitación	0
71992	7	Sololá	717	San Juan la Laguna	12	San Juan la Laguna	8	Agosto	2023-08-17T00:00:00	2024-11-08T08:00:00	8	Radiación solar	284
71993	7	Sololá	717	San Juan la Laguna	12	San Juan la Laguna	8	Agosto	2023-08-17T00:00:00	2024-11-08T09:00:00	2	Temperatura media	22.3
71994	7	Sololá	717	San Juan la Laguna	12	San Juan la Laguna	8	Agosto	2023-08-17T00:00:00	2024-11-08T09:00:00	4	Temperatura máxima	22.4
71995	7	Sololá	717	San Juan la Laguna	12	San Juan la Laguna	8	Agosto	2023-08-17T00:00:00	2024-11-08T09:00:00	3	Temperatura mínima	21.3
71996	7	Sololá	717	San Juan la Laguna	12	San Juan la Laguna	8	Agosto	2023-08-17T00:00:00	2024-11-08T09:00:00	5	Humedad	65
71997	7	Sololá	717	San Juan la Laguna	12	San Juan la Laguna	8	Agosto	2023-08-17T00:00:00	2024-11-08T09:00:00	6	Velocidad del viento	0
71998	7	Sololá	717	San Juan la Laguna	12	San Juan la Laguna	8	Agosto	2023-08-17T00:00:00	2024-11-08T09:00:00	7	Dirección del viento	0
71999	7	Sololá	717	San Juan la Laguna	12	San Juan la Laguna	8	Agosto	2023-08-17T00:00:00	2024-11-08T09:00:00	1	Precipitación	0
72000	7	Sololá	717	San Juan la Laguna	12	San Juan la Laguna	8	Agosto	2023-08-17T00:00:00	2024-11-08T09:00:00	8	Radiación solar	402
72001	7	Sololá	717	San Juan la Laguna	12	San Juan la Laguna	8	Agosto	2023-08-17T00:00:00	2024-11-08T10:00:00	2	Temperatura media	23.3
72002	7	Sololá	717	San Juan la Laguna	12	San Juan la Laguna	8	Agosto	2023-08-17T00:00:00	2024-11-08T10:00:00	4	Temperatura máxima	23.3
72003	7	Sololá	717	San Juan la Laguna	12	San Juan la Laguna	8	Agosto	2023-08-17T00:00:00	2024-11-08T10:00:00	3	Temperatura mínima	22.3
72004	7	Sololá	717	San Juan la Laguna	12	San Juan la Laguna	8	Agosto	2023-08-17T00:00:00	2024-11-08T10:00:00	5	Humedad	61
72005	7	Sololá	717	San Juan la Laguna	12	San Juan la Laguna	8	Agosto	2023-08-17T00:00:00	2024-11-08T10:00:00	6	Velocidad del viento	0
72006	7	Sololá	717	San Juan la Laguna	12	San Juan la Laguna	8	Agosto	2023-08-17T00:00:00	2024-11-08T10:00:00	7	Dirección del viento	0
72007	7	Sololá	717	San Juan la Laguna	12	San Juan la Laguna	8	Agosto	2023-08-17T00:00:00	2024-11-08T10:00:00	1	Precipitación	0
72008	7	Sololá	717	San Juan la Laguna	12	San Juan la Laguna	8	Agosto	2023-08-17T00:00:00	2024-11-08T10:00:00	8	Radiación solar	582
72009	7	Sololá	717	San Juan la Laguna	12	San Juan la Laguna	8	Agosto	2023-08-17T00:00:00	2024-11-08T11:00:00	2	Temperatura media	26.3
72010	7	Sololá	717	San Juan la Laguna	12	San Juan la Laguna	8	Agosto	2023-08-17T00:00:00	2024-11-08T11:00:00	4	Temperatura máxima	26.3
72011	7	Sololá	717	San Juan la Laguna	12	San Juan la Laguna	8	Agosto	2023-08-17T00:00:00	2024-11-08T11:00:00	3	Temperatura mínima	23.1
72012	7	Sololá	717	San Juan la Laguna	12	San Juan la Laguna	8	Agosto	2023-08-17T00:00:00	2024-11-08T11:00:00	5	Humedad	47
72013	7	Sololá	717	San Juan la Laguna	12	San Juan la Laguna	8	Agosto	2023-08-17T00:00:00	2024-11-08T11:00:00	6	Velocidad del viento	1.6
72014	7	Sololá	717	San Juan la Laguna	12	San Juan la Laguna	8	Agosto	2023-08-17T00:00:00	2024-11-08T11:00:00	7	Dirección del viento	1.61
72015	7	Sololá	717	San Juan la Laguna	12	San Juan la Laguna	8	Agosto	2023-08-17T00:00:00	2024-11-08T11:00:00	1	Precipitación	0
72016	7	Sololá	717	San Juan la Laguna	12	San Juan la Laguna	8	Agosto	2023-08-17T00:00:00	2024-11-08T11:00:00	8	Radiación solar	762
72017	7	Sololá	717	San Juan la Laguna	12	San Juan la Laguna	8	Agosto	2023-08-17T00:00:00	2024-11-08T12:00:00	2	Temperatura media	26.5
72018	7	Sololá	717	San Juan la Laguna	12	San Juan la Laguna	8	Agosto	2023-08-17T00:00:00	2024-11-08T12:00:00	4	Temperatura máxima	26.9
72019	7	Sololá	717	San Juan la Laguna	12	San Juan la Laguna	8	Agosto	2023-08-17T00:00:00	2024-11-08T12:00:00	3	Temperatura mínima	26.1
72020	7	Sololá	717	San Juan la Laguna	12	San Juan la Laguna	8	Agosto	2023-08-17T00:00:00	2024-11-08T12:00:00	5	Humedad	46
72021	7	Sololá	717	San Juan la Laguna	12	San Juan la Laguna	8	Agosto	2023-08-17T00:00:00	2024-11-08T12:00:00	6	Velocidad del viento	1.6
72022	7	Sololá	717	San Juan la Laguna	12	San Juan la Laguna	8	Agosto	2023-08-17T00:00:00	2024-11-08T12:00:00	7	Dirección del viento	1.61
72023	7	Sololá	717	San Juan la Laguna	12	San Juan la Laguna	8	Agosto	2023-08-17T00:00:00	2024-11-08T12:00:00	1	Precipitación	0
72024	7	Sololá	717	San Juan la Laguna	12	San Juan la Laguna	8	Agosto	2023-08-17T00:00:00	2024-11-08T12:00:00	8	Radiación solar	964
72025	7	Sololá	717	San Juan la Laguna	12	San Juan la Laguna	8	Agosto	2023-08-17T00:00:00	2024-11-08T13:00:00	2	Temperatura media	27.6
72026	7	Sololá	717	San Juan la Laguna	12	San Juan la Laguna	8	Agosto	2023-08-17T00:00:00	2024-11-08T13:00:00	4	Temperatura máxima	27.6
72027	7	Sololá	717	San Juan la Laguna	12	San Juan la Laguna	8	Agosto	2023-08-17T00:00:00	2024-11-08T13:00:00	3	Temperatura mínima	26.4
72028	7	Sololá	717	San Juan la Laguna	12	San Juan la Laguna	8	Agosto	2023-08-17T00:00:00	2024-11-08T13:00:00	5	Humedad	44
72029	7	Sololá	717	San Juan la Laguna	12	San Juan la Laguna	8	Agosto	2023-08-17T00:00:00	2024-11-08T13:00:00	6	Velocidad del viento	1.6
72030	7	Sololá	717	San Juan la Laguna	12	San Juan la Laguna	8	Agosto	2023-08-17T00:00:00	2024-11-08T13:00:00	7	Dirección del viento	1.61
72031	7	Sololá	717	San Juan la Laguna	12	San Juan la Laguna	8	Agosto	2023-08-17T00:00:00	2024-11-08T13:00:00	1	Precipitación	0
72032	7	Sololá	717	San Juan la Laguna	12	San Juan la Laguna	8	Agosto	2023-08-17T00:00:00	2024-11-08T13:00:00	8	Radiación solar	1041
72033	7	Sololá	717	San Juan la Laguna	12	San Juan la Laguna	8	Agosto	2023-08-17T00:00:00	2024-11-08T14:00:00	2	Temperatura media	24.8
72034	7	Sololá	717	San Juan la Laguna	12	San Juan la Laguna	8	Agosto	2023-08-17T00:00:00	2024-11-08T14:00:00	4	Temperatura máxima	28.3
72035	7	Sololá	717	San Juan la Laguna	12	San Juan la Laguna	8	Agosto	2023-08-17T00:00:00	2024-11-08T14:00:00	3	Temperatura mínima	24.7
72036	7	Sololá	717	San Juan la Laguna	12	San Juan la Laguna	8	Agosto	2023-08-17T00:00:00	2024-11-08T14:00:00	5	Humedad	66
72037	7	Sololá	717	San Juan la Laguna	12	San Juan la Laguna	8	Agosto	2023-08-17T00:00:00	2024-11-08T14:00:00	6	Velocidad del viento	0
72038	7	Sololá	717	San Juan la Laguna	12	San Juan la Laguna	8	Agosto	2023-08-17T00:00:00	2024-11-08T14:00:00	7	Dirección del viento	0
72039	7	Sololá	717	San Juan la Laguna	12	San Juan la Laguna	8	Agosto	2023-08-17T00:00:00	2024-11-08T14:00:00	1	Precipitación	0
72040	7	Sololá	717	San Juan la Laguna	12	San Juan la Laguna	8	Agosto	2023-08-17T00:00:00	2024-11-08T14:00:00	8	Radiación solar	701
72041	7	Sololá	717	San Juan la Laguna	12	San Juan la Laguna	8	Agosto	2023-08-17T00:00:00	2024-11-08T15:00:00	2	Temperatura media	25.1
72042	7	Sololá	717	San Juan la Laguna	12	San Juan la Laguna	8	Agosto	2023-08-17T00:00:00	2024-11-08T15:00:00	4	Temperatura máxima	26.4
72043	7	Sololá	717	San Juan la Laguna	12	San Juan la Laguna	8	Agosto	2023-08-17T00:00:00	2024-11-08T15:00:00	3	Temperatura mínima	24.8
72044	7	Sololá	717	San Juan la Laguna	12	San Juan la Laguna	8	Agosto	2023-08-17T00:00:00	2024-11-08T15:00:00	5	Humedad	61
72045	7	Sololá	717	San Juan la Laguna	12	San Juan la Laguna	8	Agosto	2023-08-17T00:00:00	2024-11-08T15:00:00	6	Velocidad del viento	1.6
72046	7	Sololá	717	San Juan la Laguna	12	San Juan la Laguna	8	Agosto	2023-08-17T00:00:00	2024-11-08T15:00:00	7	Dirección del viento	1.61
72047	7	Sololá	717	San Juan la Laguna	12	San Juan la Laguna	8	Agosto	2023-08-17T00:00:00	2024-11-08T15:00:00	1	Precipitación	0
72048	7	Sololá	717	San Juan la Laguna	12	San Juan la Laguna	8	Agosto	2023-08-17T00:00:00	2024-11-08T15:00:00	8	Radiación solar	794
72049	7	Sololá	717	San Juan la Laguna	12	San Juan la Laguna	8	Agosto	2023-08-17T00:00:00	2024-11-08T16:00:00	2	Temperatura media	23.7
72050	7	Sololá	717	San Juan la Laguna	12	San Juan la Laguna	8	Agosto	2023-08-17T00:00:00	2024-11-08T16:00:00	4	Temperatura máxima	25.1
72051	7	Sololá	717	San Juan la Laguna	12	San Juan la Laguna	8	Agosto	2023-08-17T00:00:00	2024-11-08T16:00:00	3	Temperatura mínima	23.6
72052	7	Sololá	717	San Juan la Laguna	12	San Juan la Laguna	8	Agosto	2023-08-17T00:00:00	2024-11-08T16:00:00	5	Humedad	69
72053	7	Sololá	717	San Juan la Laguna	12	San Juan la Laguna	8	Agosto	2023-08-17T00:00:00	2024-11-08T16:00:00	6	Velocidad del viento	0
72054	7	Sololá	717	San Juan la Laguna	12	San Juan la Laguna	8	Agosto	2023-08-17T00:00:00	2024-11-08T16:00:00	7	Dirección del viento	0
72055	7	Sololá	717	San Juan la Laguna	12	San Juan la Laguna	8	Agosto	2023-08-17T00:00:00	2024-11-08T16:00:00	1	Precipitación	0
72056	7	Sololá	717	San Juan la Laguna	12	San Juan la Laguna	8	Agosto	2023-08-17T00:00:00	2024-11-08T16:00:00	8	Radiación solar	275
72057	7	Sololá	717	San Juan la Laguna	12	San Juan la Laguna	8	Agosto	2023-08-17T00:00:00	2024-11-08T17:00:00	2	Temperatura media	22.9
72058	7	Sololá	717	San Juan la Laguna	12	San Juan la Laguna	8	Agosto	2023-08-17T00:00:00	2024-11-08T17:00:00	4	Temperatura máxima	25
72059	7	Sololá	717	San Juan la Laguna	12	San Juan la Laguna	8	Agosto	2023-08-17T00:00:00	2024-11-08T17:00:00	3	Temperatura mínima	22.9
72060	7	Sololá	717	San Juan la Laguna	12	San Juan la Laguna	8	Agosto	2023-08-17T00:00:00	2024-11-08T17:00:00	5	Humedad	74
72061	7	Sololá	717	San Juan la Laguna	12	San Juan la Laguna	8	Agosto	2023-08-17T00:00:00	2024-11-08T17:00:00	6	Velocidad del viento	0
72062	7	Sololá	717	San Juan la Laguna	12	San Juan la Laguna	8	Agosto	2023-08-17T00:00:00	2024-11-08T17:00:00	7	Dirección del viento	0
72063	7	Sololá	717	San Juan la Laguna	12	San Juan la Laguna	8	Agosto	2023-08-17T00:00:00	2024-11-08T17:00:00	1	Precipitación	0
72064	7	Sololá	717	San Juan la Laguna	12	San Juan la Laguna	8	Agosto	2023-08-17T00:00:00	2024-11-08T17:00:00	8	Radiación solar	329
72065	7	Sololá	717	San Juan la Laguna	12	San Juan la Laguna	8	Agosto	2023-08-17T00:00:00	2024-11-08T18:00:00	2	Temperatura media	21.3
72066	7	Sololá	717	San Juan la Laguna	12	San Juan la Laguna	8	Agosto	2023-08-17T00:00:00	2024-11-08T18:00:00	4	Temperatura máxima	22.9
72067	7	Sololá	717	San Juan la Laguna	12	San Juan la Laguna	8	Agosto	2023-08-17T00:00:00	2024-11-08T18:00:00	3	Temperatura mínima	21.3
72068	7	Sololá	717	San Juan la Laguna	12	San Juan la Laguna	8	Agosto	2023-08-17T00:00:00	2024-11-08T18:00:00	5	Humedad	80
72069	7	Sololá	717	San Juan la Laguna	12	San Juan la Laguna	8	Agosto	2023-08-17T00:00:00	2024-11-08T18:00:00	6	Velocidad del viento	3.2
72070	7	Sololá	717	San Juan la Laguna	12	San Juan la Laguna	8	Agosto	2023-08-17T00:00:00	2024-11-08T18:00:00	7	Dirección del viento	3.22
72071	7	Sololá	717	San Juan la Laguna	12	San Juan la Laguna	8	Agosto	2023-08-17T00:00:00	2024-11-08T18:00:00	1	Precipitación	0
72072	7	Sololá	717	San Juan la Laguna	12	San Juan la Laguna	8	Agosto	2023-08-17T00:00:00	2024-11-08T18:00:00	8	Radiación solar	96
72073	7	Sololá	717	San Juan la Laguna	12	San Juan la Laguna	8	Agosto	2023-08-17T00:00:00	2024-11-08T19:00:00	2	Temperatura media	20.5
72074	7	Sololá	717	San Juan la Laguna	12	San Juan la Laguna	8	Agosto	2023-08-17T00:00:00	2024-11-08T19:00:00	4	Temperatura máxima	21.4
72075	7	Sololá	717	San Juan la Laguna	12	San Juan la Laguna	8	Agosto	2023-08-17T00:00:00	2024-11-08T19:00:00	3	Temperatura mínima	20.5
72076	7	Sololá	717	San Juan la Laguna	12	San Juan la Laguna	8	Agosto	2023-08-17T00:00:00	2024-11-08T19:00:00	5	Humedad	83
72077	7	Sololá	717	San Juan la Laguna	12	San Juan la Laguna	8	Agosto	2023-08-17T00:00:00	2024-11-08T19:00:00	6	Velocidad del viento	0
72078	7	Sololá	717	San Juan la Laguna	12	San Juan la Laguna	8	Agosto	2023-08-17T00:00:00	2024-11-08T19:00:00	7	Dirección del viento	0
72079	7	Sololá	717	San Juan la Laguna	12	San Juan la Laguna	8	Agosto	2023-08-17T00:00:00	2024-11-08T19:00:00	1	Precipitación	0
72080	7	Sololá	717	San Juan la Laguna	12	San Juan la Laguna	8	Agosto	2023-08-17T00:00:00	2024-11-08T19:00:00	8	Radiación solar	0
72081	7	Sololá	717	San Juan la Laguna	12	San Juan la Laguna	8	Agosto	2023-08-17T00:00:00	2024-11-08T20:00:00	2	Temperatura media	20.4
72082	7	Sololá	717	San Juan la Laguna	12	San Juan la Laguna	8	Agosto	2023-08-17T00:00:00	2024-11-08T20:00:00	4	Temperatura máxima	20.6
72083	7	Sololá	717	San Juan la Laguna	12	San Juan la Laguna	8	Agosto	2023-08-17T00:00:00	2024-11-08T20:00:00	3	Temperatura mínima	20.4
72084	7	Sololá	717	San Juan la Laguna	12	San Juan la Laguna	8	Agosto	2023-08-17T00:00:00	2024-11-08T20:00:00	5	Humedad	85
72085	7	Sololá	717	San Juan la Laguna	12	San Juan la Laguna	8	Agosto	2023-08-17T00:00:00	2024-11-08T20:00:00	6	Velocidad del viento	0
72086	7	Sololá	717	San Juan la Laguna	12	San Juan la Laguna	8	Agosto	2023-08-17T00:00:00	2024-11-08T20:00:00	7	Dirección del viento	0
72087	7	Sololá	717	San Juan la Laguna	12	San Juan la Laguna	8	Agosto	2023-08-17T00:00:00	2024-11-08T20:00:00	1	Precipitación	0
72088	7	Sololá	717	San Juan la Laguna	12	San Juan la Laguna	8	Agosto	2023-08-17T00:00:00	2024-11-08T20:00:00	8	Radiación solar	0
72089	7	Sololá	717	San Juan la Laguna	12	San Juan la Laguna	8	Agosto	2023-08-17T00:00:00	2024-11-08T21:00:00	2	Temperatura media	18.8
72090	7	Sololá	717	San Juan la Laguna	12	San Juan la Laguna	8	Agosto	2023-08-17T00:00:00	2024-11-08T21:00:00	4	Temperatura máxima	20.5
72091	7	Sololá	717	San Juan la Laguna	12	San Juan la Laguna	8	Agosto	2023-08-17T00:00:00	2024-11-08T21:00:00	3	Temperatura mínima	18.8
72092	7	Sololá	717	San Juan la Laguna	12	San Juan la Laguna	8	Agosto	2023-08-17T00:00:00	2024-11-08T21:00:00	5	Humedad	87
72093	7	Sololá	717	San Juan la Laguna	12	San Juan la Laguna	8	Agosto	2023-08-17T00:00:00	2024-11-08T21:00:00	6	Velocidad del viento	0
72094	7	Sololá	717	San Juan la Laguna	12	San Juan la Laguna	8	Agosto	2023-08-17T00:00:00	2024-11-08T21:00:00	7	Dirección del viento	0
72095	7	Sololá	717	San Juan la Laguna	12	San Juan la Laguna	8	Agosto	2023-08-17T00:00:00	2024-11-08T21:00:00	1	Precipitación	0
72096	7	Sololá	717	San Juan la Laguna	12	San Juan la Laguna	8	Agosto	2023-08-17T00:00:00	2024-11-08T21:00:00	8	Radiación solar	0
72097	7	Sololá	717	San Juan la Laguna	12	San Juan la Laguna	8	Agosto	2023-08-17T00:00:00	2024-11-08T22:00:00	2	Temperatura media	18.3
72098	7	Sololá	717	San Juan la Laguna	12	San Juan la Laguna	8	Agosto	2023-08-17T00:00:00	2024-11-08T22:00:00	4	Temperatura máxima	18.8
72099	7	Sololá	717	San Juan la Laguna	12	San Juan la Laguna	8	Agosto	2023-08-17T00:00:00	2024-11-08T22:00:00	3	Temperatura mínima	18.1
72100	7	Sololá	717	San Juan la Laguna	12	San Juan la Laguna	8	Agosto	2023-08-17T00:00:00	2024-11-08T22:00:00	5	Humedad	86
72101	7	Sololá	717	San Juan la Laguna	12	San Juan la Laguna	8	Agosto	2023-08-17T00:00:00	2024-11-08T22:00:00	6	Velocidad del viento	0
72102	7	Sololá	717	San Juan la Laguna	12	San Juan la Laguna	8	Agosto	2023-08-17T00:00:00	2024-11-08T22:00:00	7	Dirección del viento	0
72103	7	Sololá	717	San Juan la Laguna	12	San Juan la Laguna	8	Agosto	2023-08-17T00:00:00	2024-11-08T22:00:00	1	Precipitación	0
72104	7	Sololá	717	San Juan la Laguna	12	San Juan la Laguna	8	Agosto	2023-08-17T00:00:00	2024-11-08T22:00:00	8	Radiación solar	0
72105	7	Sololá	717	San Juan la Laguna	12	San Juan la Laguna	8	Agosto	2023-08-17T00:00:00	2024-11-08T23:00:00	2	Temperatura media	17.6
72106	7	Sololá	717	San Juan la Laguna	12	San Juan la Laguna	8	Agosto	2023-08-17T00:00:00	2024-11-08T23:00:00	4	Temperatura máxima	18.4
72107	7	Sololá	717	San Juan la Laguna	12	San Juan la Laguna	8	Agosto	2023-08-17T00:00:00	2024-11-08T23:00:00	3	Temperatura mínima	17.6
72108	7	Sololá	717	San Juan la Laguna	12	San Juan la Laguna	8	Agosto	2023-08-17T00:00:00	2024-11-08T23:00:00	5	Humedad	84
72109	7	Sololá	717	San Juan la Laguna	12	San Juan la Laguna	8	Agosto	2023-08-17T00:00:00	2024-11-08T23:00:00	6	Velocidad del viento	0
72110	7	Sololá	717	San Juan la Laguna	12	San Juan la Laguna	8	Agosto	2023-08-17T00:00:00	2024-11-08T23:00:00	7	Dirección del viento	0
72111	7	Sololá	717	San Juan la Laguna	12	San Juan la Laguna	8	Agosto	2023-08-17T00:00:00	2024-11-08T23:00:00	1	Precipitación	0
72112	7	Sololá	717	San Juan la Laguna	12	San Juan la Laguna	8	Agosto	2023-08-17T00:00:00	2024-11-08T23:00:00	8	Radiación solar	0
72113	7	Sololá	717	San Juan la Laguna	12	San Juan la Laguna	8	Agosto	2023-08-18T00:00:00	2024-11-08T00:00:00	2	Temperatura media	17.4
72114	7	Sololá	717	San Juan la Laguna	12	San Juan la Laguna	8	Agosto	2023-08-18T00:00:00	2024-11-08T00:00:00	4	Temperatura máxima	17.6
72115	7	Sololá	717	San Juan la Laguna	12	San Juan la Laguna	8	Agosto	2023-08-18T00:00:00	2024-11-08T00:00:00	3	Temperatura mínima	16.9
72116	7	Sololá	717	San Juan la Laguna	12	San Juan la Laguna	8	Agosto	2023-08-18T00:00:00	2024-11-08T00:00:00	5	Humedad	83
72117	7	Sololá	717	San Juan la Laguna	12	San Juan la Laguna	8	Agosto	2023-08-18T00:00:00	2024-11-08T00:00:00	6	Velocidad del viento	1.6
72118	7	Sololá	717	San Juan la Laguna	12	San Juan la Laguna	8	Agosto	2023-08-18T00:00:00	2024-11-08T00:00:00	7	Dirección del viento	1.61
72119	7	Sololá	717	San Juan la Laguna	12	San Juan la Laguna	8	Agosto	2023-08-18T00:00:00	2024-11-08T00:00:00	1	Precipitación	0
72120	7	Sololá	717	San Juan la Laguna	12	San Juan la Laguna	8	Agosto	2023-08-18T00:00:00	2024-11-08T00:00:00	8	Radiación solar	0
72121	7	Sololá	717	San Juan la Laguna	12	San Juan la Laguna	8	Agosto	2023-08-18T00:00:00	2024-11-08T01:00:00	2	Temperatura media	17
72122	7	Sololá	717	San Juan la Laguna	12	San Juan la Laguna	8	Agosto	2023-08-18T00:00:00	2024-11-08T01:00:00	4	Temperatura máxima	17.4
72123	7	Sololá	717	San Juan la Laguna	12	San Juan la Laguna	8	Agosto	2023-08-18T00:00:00	2024-11-08T01:00:00	3	Temperatura mínima	16.8
72124	7	Sololá	717	San Juan la Laguna	12	San Juan la Laguna	8	Agosto	2023-08-18T00:00:00	2024-11-08T01:00:00	5	Humedad	84
72125	7	Sololá	717	San Juan la Laguna	12	San Juan la Laguna	8	Agosto	2023-08-18T00:00:00	2024-11-08T01:00:00	6	Velocidad del viento	1.6
72126	7	Sololá	717	San Juan la Laguna	12	San Juan la Laguna	8	Agosto	2023-08-18T00:00:00	2024-11-08T01:00:00	7	Dirección del viento	1.61
72127	7	Sololá	717	San Juan la Laguna	12	San Juan la Laguna	8	Agosto	2023-08-18T00:00:00	2024-11-08T01:00:00	1	Precipitación	0
72128	7	Sololá	717	San Juan la Laguna	12	San Juan la Laguna	8	Agosto	2023-08-18T00:00:00	2024-11-08T01:00:00	8	Radiación solar	0
72129	7	Sololá	717	San Juan la Laguna	12	San Juan la Laguna	8	Agosto	2023-08-18T00:00:00	2024-11-08T02:00:00	2	Temperatura media	17.7
72130	7	Sololá	717	San Juan la Laguna	12	San Juan la Laguna	8	Agosto	2023-08-18T00:00:00	2024-11-08T02:00:00	4	Temperatura máxima	17.7
72131	7	Sololá	717	San Juan la Laguna	12	San Juan la Laguna	8	Agosto	2023-08-18T00:00:00	2024-11-08T02:00:00	3	Temperatura mínima	16.6
72132	7	Sololá	717	San Juan la Laguna	12	San Juan la Laguna	8	Agosto	2023-08-18T00:00:00	2024-11-08T02:00:00	5	Humedad	82
72133	7	Sololá	717	San Juan la Laguna	12	San Juan la Laguna	8	Agosto	2023-08-18T00:00:00	2024-11-08T02:00:00	6	Velocidad del viento	1.6
72134	7	Sololá	717	San Juan la Laguna	12	San Juan la Laguna	8	Agosto	2023-08-18T00:00:00	2024-11-08T02:00:00	7	Dirección del viento	1.61
72135	7	Sololá	717	San Juan la Laguna	12	San Juan la Laguna	8	Agosto	2023-08-18T00:00:00	2024-11-08T02:00:00	1	Precipitación	0
72136	7	Sololá	717	San Juan la Laguna	12	San Juan la Laguna	8	Agosto	2023-08-18T00:00:00	2024-11-08T02:00:00	8	Radiación solar	0
72137	7	Sololá	717	San Juan la Laguna	12	San Juan la Laguna	8	Agosto	2023-08-18T00:00:00	2024-11-08T03:00:00	2	Temperatura media	17.7
72138	7	Sololá	717	San Juan la Laguna	12	San Juan la Laguna	8	Agosto	2023-08-18T00:00:00	2024-11-08T03:00:00	4	Temperatura máxima	17.7
72139	7	Sololá	717	San Juan la Laguna	12	San Juan la Laguna	8	Agosto	2023-08-18T00:00:00	2024-11-08T03:00:00	3	Temperatura mínima	17.4
72140	7	Sololá	717	San Juan la Laguna	12	San Juan la Laguna	8	Agosto	2023-08-18T00:00:00	2024-11-08T03:00:00	5	Humedad	83
72141	7	Sololá	717	San Juan la Laguna	12	San Juan la Laguna	8	Agosto	2023-08-18T00:00:00	2024-11-08T03:00:00	6	Velocidad del viento	0
72142	7	Sololá	717	San Juan la Laguna	12	San Juan la Laguna	8	Agosto	2023-08-18T00:00:00	2024-11-08T03:00:00	7	Dirección del viento	0
72143	7	Sololá	717	San Juan la Laguna	12	San Juan la Laguna	8	Agosto	2023-08-18T00:00:00	2024-11-08T03:00:00	1	Precipitación	0
72144	7	Sololá	717	San Juan la Laguna	12	San Juan la Laguna	8	Agosto	2023-08-18T00:00:00	2024-11-08T03:00:00	8	Radiación solar	0
72145	7	Sololá	717	San Juan la Laguna	12	San Juan la Laguna	8	Agosto	2023-08-18T00:00:00	2024-11-08T04:00:00	2	Temperatura media	17.6
72146	7	Sololá	717	San Juan la Laguna	12	San Juan la Laguna	8	Agosto	2023-08-18T00:00:00	2024-11-08T04:00:00	4	Temperatura máxima	17.8
72147	7	Sololá	717	San Juan la Laguna	12	San Juan la Laguna	8	Agosto	2023-08-18T00:00:00	2024-11-08T04:00:00	3	Temperatura mínima	17.6
72148	7	Sololá	717	San Juan la Laguna	12	San Juan la Laguna	8	Agosto	2023-08-18T00:00:00	2024-11-08T04:00:00	5	Humedad	85
72149	7	Sololá	717	San Juan la Laguna	12	San Juan la Laguna	8	Agosto	2023-08-18T00:00:00	2024-11-08T04:00:00	6	Velocidad del viento	0
72150	7	Sololá	717	San Juan la Laguna	12	San Juan la Laguna	8	Agosto	2023-08-18T00:00:00	2024-11-08T04:00:00	7	Dirección del viento	0
72151	7	Sololá	717	San Juan la Laguna	12	San Juan la Laguna	8	Agosto	2023-08-18T00:00:00	2024-11-08T04:00:00	1	Precipitación	0
72152	7	Sololá	717	San Juan la Laguna	12	San Juan la Laguna	8	Agosto	2023-08-18T00:00:00	2024-11-08T04:00:00	8	Radiación solar	0
72153	7	Sololá	717	San Juan la Laguna	12	San Juan la Laguna	8	Agosto	2023-08-18T00:00:00	2024-11-08T05:00:00	2	Temperatura media	17.6
72154	7	Sololá	717	San Juan la Laguna	12	San Juan la Laguna	8	Agosto	2023-08-18T00:00:00	2024-11-08T05:00:00	4	Temperatura máxima	17.8
72155	7	Sololá	717	San Juan la Laguna	12	San Juan la Laguna	8	Agosto	2023-08-18T00:00:00	2024-11-08T05:00:00	3	Temperatura mínima	17.4
72156	7	Sololá	717	San Juan la Laguna	12	San Juan la Laguna	8	Agosto	2023-08-18T00:00:00	2024-11-08T05:00:00	5	Humedad	85
72157	7	Sololá	717	San Juan la Laguna	12	San Juan la Laguna	8	Agosto	2023-08-18T00:00:00	2024-11-08T05:00:00	6	Velocidad del viento	0
72158	7	Sololá	717	San Juan la Laguna	12	San Juan la Laguna	8	Agosto	2023-08-18T00:00:00	2024-11-08T05:00:00	7	Dirección del viento	0
72159	7	Sololá	717	San Juan la Laguna	12	San Juan la Laguna	8	Agosto	2023-08-18T00:00:00	2024-11-08T05:00:00	1	Precipitación	0
72160	7	Sololá	717	San Juan la Laguna	12	San Juan la Laguna	8	Agosto	2023-08-18T00:00:00	2024-11-08T05:00:00	8	Radiación solar	0
72161	7	Sololá	717	San Juan la Laguna	12	San Juan la Laguna	8	Agosto	2023-08-18T00:00:00	2024-11-08T06:00:00	2	Temperatura media	16.8
72162	7	Sololá	717	San Juan la Laguna	12	San Juan la Laguna	8	Agosto	2023-08-18T00:00:00	2024-11-08T06:00:00	4	Temperatura máxima	17.6
72163	7	Sololá	717	San Juan la Laguna	12	San Juan la Laguna	8	Agosto	2023-08-18T00:00:00	2024-11-08T06:00:00	3	Temperatura mínima	16.8
72164	7	Sololá	717	San Juan la Laguna	12	San Juan la Laguna	8	Agosto	2023-08-18T00:00:00	2024-11-08T06:00:00	5	Humedad	85
72165	7	Sololá	717	San Juan la Laguna	12	San Juan la Laguna	8	Agosto	2023-08-18T00:00:00	2024-11-08T06:00:00	6	Velocidad del viento	0
72166	7	Sololá	717	San Juan la Laguna	12	San Juan la Laguna	8	Agosto	2023-08-18T00:00:00	2024-11-08T06:00:00	7	Dirección del viento	0
72167	7	Sololá	717	San Juan la Laguna	12	San Juan la Laguna	8	Agosto	2023-08-18T00:00:00	2024-11-08T06:00:00	1	Precipitación	0
72168	7	Sololá	717	San Juan la Laguna	12	San Juan la Laguna	8	Agosto	2023-08-18T00:00:00	2024-11-08T06:00:00	8	Radiación solar	0
72169	7	Sololá	717	San Juan la Laguna	12	San Juan la Laguna	8	Agosto	2023-08-18T00:00:00	2024-11-08T07:00:00	2	Temperatura media	18.3
72170	7	Sololá	717	San Juan la Laguna	12	San Juan la Laguna	8	Agosto	2023-08-18T00:00:00	2024-11-08T07:00:00	4	Temperatura máxima	18.3
72171	7	Sololá	717	San Juan la Laguna	12	San Juan la Laguna	8	Agosto	2023-08-18T00:00:00	2024-11-08T07:00:00	3	Temperatura mínima	16.6
72172	7	Sololá	717	San Juan la Laguna	12	San Juan la Laguna	8	Agosto	2023-08-18T00:00:00	2024-11-08T07:00:00	5	Humedad	82
72173	7	Sololá	717	San Juan la Laguna	12	San Juan la Laguna	8	Agosto	2023-08-18T00:00:00	2024-11-08T07:00:00	6	Velocidad del viento	0
72174	7	Sololá	717	San Juan la Laguna	12	San Juan la Laguna	8	Agosto	2023-08-18T00:00:00	2024-11-08T07:00:00	7	Dirección del viento	0
72175	7	Sololá	717	San Juan la Laguna	12	San Juan la Laguna	8	Agosto	2023-08-18T00:00:00	2024-11-08T07:00:00	1	Precipitación	0
72176	7	Sololá	717	San Juan la Laguna	12	San Juan la Laguna	8	Agosto	2023-08-18T00:00:00	2024-11-08T07:00:00	8	Radiación solar	67
72177	7	Sololá	717	San Juan la Laguna	12	San Juan la Laguna	8	Agosto	2023-08-18T00:00:00	2024-11-08T08:00:00	2	Temperatura media	22.5
72178	7	Sololá	717	San Juan la Laguna	12	San Juan la Laguna	8	Agosto	2023-08-18T00:00:00	2024-11-08T08:00:00	4	Temperatura máxima	22.5
72179	7	Sololá	717	San Juan la Laguna	12	San Juan la Laguna	8	Agosto	2023-08-18T00:00:00	2024-11-08T08:00:00	3	Temperatura mínima	18.3
72180	7	Sololá	717	San Juan la Laguna	12	San Juan la Laguna	8	Agosto	2023-08-18T00:00:00	2024-11-08T08:00:00	5	Humedad	66
72181	7	Sololá	717	San Juan la Laguna	12	San Juan la Laguna	8	Agosto	2023-08-18T00:00:00	2024-11-08T08:00:00	6	Velocidad del viento	0
72182	7	Sololá	717	San Juan la Laguna	12	San Juan la Laguna	8	Agosto	2023-08-18T00:00:00	2024-11-08T08:00:00	7	Dirección del viento	0
72183	7	Sololá	717	San Juan la Laguna	12	San Juan la Laguna	8	Agosto	2023-08-18T00:00:00	2024-11-08T08:00:00	1	Precipitación	0
72184	7	Sololá	717	San Juan la Laguna	12	San Juan la Laguna	8	Agosto	2023-08-18T00:00:00	2024-11-08T08:00:00	8	Radiación solar	273
72185	7	Sololá	717	San Juan la Laguna	12	San Juan la Laguna	8	Agosto	2023-08-18T00:00:00	2024-11-08T09:00:00	2	Temperatura media	24
72186	7	Sololá	717	San Juan la Laguna	12	San Juan la Laguna	8	Agosto	2023-08-18T00:00:00	2024-11-08T09:00:00	4	Temperatura máxima	24
72187	7	Sololá	717	San Juan la Laguna	12	San Juan la Laguna	8	Agosto	2023-08-18T00:00:00	2024-11-08T09:00:00	3	Temperatura mínima	22.2
72188	7	Sololá	717	San Juan la Laguna	12	San Juan la Laguna	8	Agosto	2023-08-18T00:00:00	2024-11-08T09:00:00	5	Humedad	59
72189	7	Sololá	717	San Juan la Laguna	12	San Juan la Laguna	8	Agosto	2023-08-18T00:00:00	2024-11-08T09:00:00	6	Velocidad del viento	1.6
72190	7	Sololá	717	San Juan la Laguna	12	San Juan la Laguna	8	Agosto	2023-08-18T00:00:00	2024-11-08T09:00:00	7	Dirección del viento	1.61
72191	7	Sololá	717	San Juan la Laguna	12	San Juan la Laguna	8	Agosto	2023-08-18T00:00:00	2024-11-08T09:00:00	1	Precipitación	0
72192	7	Sololá	717	San Juan la Laguna	12	San Juan la Laguna	8	Agosto	2023-08-18T00:00:00	2024-11-08T09:00:00	8	Radiación solar	403
72193	7	Sololá	717	San Juan la Laguna	12	San Juan la Laguna	8	Agosto	2023-08-18T00:00:00	2024-11-08T10:00:00	2	Temperatura media	25
72194	7	Sololá	717	San Juan la Laguna	12	San Juan la Laguna	8	Agosto	2023-08-18T00:00:00	2024-11-08T10:00:00	4	Temperatura máxima	25.2
72195	7	Sololá	717	San Juan la Laguna	12	San Juan la Laguna	8	Agosto	2023-08-18T00:00:00	2024-11-08T10:00:00	3	Temperatura mínima	23.8
72196	7	Sololá	717	San Juan la Laguna	12	San Juan la Laguna	8	Agosto	2023-08-18T00:00:00	2024-11-08T10:00:00	5	Humedad	54
72197	7	Sololá	717	San Juan la Laguna	12	San Juan la Laguna	8	Agosto	2023-08-18T00:00:00	2024-11-08T10:00:00	6	Velocidad del viento	1.6
72198	7	Sololá	717	San Juan la Laguna	12	San Juan la Laguna	8	Agosto	2023-08-18T00:00:00	2024-11-08T10:00:00	7	Dirección del viento	1.61
72199	7	Sololá	717	San Juan la Laguna	12	San Juan la Laguna	8	Agosto	2023-08-18T00:00:00	2024-11-08T10:00:00	1	Precipitación	0
72200	7	Sololá	717	San Juan la Laguna	12	San Juan la Laguna	8	Agosto	2023-08-18T00:00:00	2024-11-08T10:00:00	8	Radiación solar	607
72201	7	Sololá	717	San Juan la Laguna	12	San Juan la Laguna	8	Agosto	2023-08-18T00:00:00	2024-11-08T11:00:00	2	Temperatura media	25.9
72202	7	Sololá	717	San Juan la Laguna	12	San Juan la Laguna	8	Agosto	2023-08-18T00:00:00	2024-11-08T11:00:00	4	Temperatura máxima	25.9
72203	7	Sololá	717	San Juan la Laguna	12	San Juan la Laguna	8	Agosto	2023-08-18T00:00:00	2024-11-08T11:00:00	3	Temperatura mínima	24.9
72204	7	Sololá	717	San Juan la Laguna	12	San Juan la Laguna	8	Agosto	2023-08-18T00:00:00	2024-11-08T11:00:00	5	Humedad	52
72205	7	Sololá	717	San Juan la Laguna	12	San Juan la Laguna	8	Agosto	2023-08-18T00:00:00	2024-11-08T11:00:00	6	Velocidad del viento	1.6
72206	7	Sololá	717	San Juan la Laguna	12	San Juan la Laguna	8	Agosto	2023-08-18T00:00:00	2024-11-08T11:00:00	7	Dirección del viento	1.61
72207	7	Sololá	717	San Juan la Laguna	12	San Juan la Laguna	8	Agosto	2023-08-18T00:00:00	2024-11-08T11:00:00	1	Precipitación	0
72208	7	Sololá	717	San Juan la Laguna	12	San Juan la Laguna	8	Agosto	2023-08-18T00:00:00	2024-11-08T11:00:00	8	Radiación solar	862
72209	7	Sololá	717	San Juan la Laguna	12	San Juan la Laguna	8	Agosto	2023-08-18T00:00:00	2024-11-08T12:00:00	2	Temperatura media	25.6
72210	7	Sololá	717	San Juan la Laguna	12	San Juan la Laguna	8	Agosto	2023-08-18T00:00:00	2024-11-08T12:00:00	4	Temperatura máxima	26.7
72211	7	Sololá	717	San Juan la Laguna	12	San Juan la Laguna	8	Agosto	2023-08-18T00:00:00	2024-11-08T12:00:00	3	Temperatura mínima	25.3
72212	7	Sololá	717	San Juan la Laguna	12	San Juan la Laguna	8	Agosto	2023-08-18T00:00:00	2024-11-08T12:00:00	5	Humedad	54
72213	7	Sololá	717	San Juan la Laguna	12	San Juan la Laguna	8	Agosto	2023-08-18T00:00:00	2024-11-08T12:00:00	6	Velocidad del viento	0
72214	7	Sololá	717	San Juan la Laguna	12	San Juan la Laguna	8	Agosto	2023-08-18T00:00:00	2024-11-08T12:00:00	7	Dirección del viento	0
72215	7	Sololá	717	San Juan la Laguna	12	San Juan la Laguna	8	Agosto	2023-08-18T00:00:00	2024-11-08T12:00:00	1	Precipitación	0
72216	7	Sololá	717	San Juan la Laguna	12	San Juan la Laguna	8	Agosto	2023-08-18T00:00:00	2024-11-08T12:00:00	8	Radiación solar	849
72217	7	Sololá	717	San Juan la Laguna	12	San Juan la Laguna	8	Agosto	2023-08-18T00:00:00	2024-11-08T13:00:00	2	Temperatura media	25.3
72218	7	Sololá	717	San Juan la Laguna	12	San Juan la Laguna	8	Agosto	2023-08-18T00:00:00	2024-11-08T13:00:00	4	Temperatura máxima	25.9
72219	7	Sololá	717	San Juan la Laguna	12	San Juan la Laguna	8	Agosto	2023-08-18T00:00:00	2024-11-08T13:00:00	3	Temperatura mínima	24.9
72220	7	Sololá	717	San Juan la Laguna	12	San Juan la Laguna	8	Agosto	2023-08-18T00:00:00	2024-11-08T13:00:00	5	Humedad	60
72221	7	Sololá	717	San Juan la Laguna	12	San Juan la Laguna	8	Agosto	2023-08-18T00:00:00	2024-11-08T13:00:00	6	Velocidad del viento	0
72222	7	Sololá	717	San Juan la Laguna	12	San Juan la Laguna	8	Agosto	2023-08-18T00:00:00	2024-11-08T13:00:00	7	Dirección del viento	0
72223	7	Sololá	717	San Juan la Laguna	12	San Juan la Laguna	8	Agosto	2023-08-18T00:00:00	2024-11-08T13:00:00	1	Precipitación	0
72224	7	Sololá	717	San Juan la Laguna	12	San Juan la Laguna	8	Agosto	2023-08-18T00:00:00	2024-11-08T13:00:00	8	Radiación solar	811
72225	7	Sololá	717	San Juan la Laguna	12	San Juan la Laguna	8	Agosto	2023-08-18T00:00:00	2024-11-08T14:00:00	2	Temperatura media	26.8
72226	7	Sololá	717	San Juan la Laguna	12	San Juan la Laguna	8	Agosto	2023-08-18T00:00:00	2024-11-08T14:00:00	4	Temperatura máxima	26.9
72227	7	Sololá	717	San Juan la Laguna	12	San Juan la Laguna	8	Agosto	2023-08-18T00:00:00	2024-11-08T14:00:00	3	Temperatura mínima	25.1
72228	7	Sololá	717	San Juan la Laguna	12	San Juan la Laguna	8	Agosto	2023-08-18T00:00:00	2024-11-08T14:00:00	5	Humedad	48
72229	7	Sololá	717	San Juan la Laguna	12	San Juan la Laguna	8	Agosto	2023-08-18T00:00:00	2024-11-08T14:00:00	6	Velocidad del viento	1.6
72230	7	Sololá	717	San Juan la Laguna	12	San Juan la Laguna	8	Agosto	2023-08-18T00:00:00	2024-11-08T14:00:00	7	Dirección del viento	1.61
72231	7	Sololá	717	San Juan la Laguna	12	San Juan la Laguna	8	Agosto	2023-08-18T00:00:00	2024-11-08T14:00:00	1	Precipitación	0
72232	7	Sololá	717	San Juan la Laguna	12	San Juan la Laguna	8	Agosto	2023-08-18T00:00:00	2024-11-08T14:00:00	8	Radiación solar	902
72233	7	Sololá	717	San Juan la Laguna	12	San Juan la Laguna	8	Agosto	2023-08-18T00:00:00	2024-11-08T15:00:00	2	Temperatura media	25.4
72234	7	Sololá	717	San Juan la Laguna	12	San Juan la Laguna	8	Agosto	2023-08-18T00:00:00	2024-11-08T15:00:00	4	Temperatura máxima	26.8
72235	7	Sololá	717	San Juan la Laguna	12	San Juan la Laguna	8	Agosto	2023-08-18T00:00:00	2024-11-08T15:00:00	3	Temperatura mínima	25.2
72236	7	Sololá	717	San Juan la Laguna	12	San Juan la Laguna	8	Agosto	2023-08-18T00:00:00	2024-11-08T15:00:00	5	Humedad	65
72237	7	Sololá	717	San Juan la Laguna	12	San Juan la Laguna	8	Agosto	2023-08-18T00:00:00	2024-11-08T15:00:00	6	Velocidad del viento	0
72238	7	Sololá	717	San Juan la Laguna	12	San Juan la Laguna	8	Agosto	2023-08-18T00:00:00	2024-11-08T15:00:00	7	Dirección del viento	0
72239	7	Sololá	717	San Juan la Laguna	12	San Juan la Laguna	8	Agosto	2023-08-18T00:00:00	2024-11-08T15:00:00	1	Precipitación	0
72240	7	Sololá	717	San Juan la Laguna	12	San Juan la Laguna	8	Agosto	2023-08-18T00:00:00	2024-11-08T15:00:00	8	Radiación solar	487
72241	7	Sololá	717	San Juan la Laguna	12	San Juan la Laguna	8	Agosto	2023-08-18T00:00:00	2024-11-08T16:00:00	2	Temperatura media	22.1
72242	7	Sololá	717	San Juan la Laguna	12	San Juan la Laguna	8	Agosto	2023-08-18T00:00:00	2024-11-08T16:00:00	4	Temperatura máxima	25.4
72243	7	Sololá	717	San Juan la Laguna	12	San Juan la Laguna	8	Agosto	2023-08-18T00:00:00	2024-11-08T16:00:00	3	Temperatura mínima	22.1
72244	7	Sololá	717	San Juan la Laguna	12	San Juan la Laguna	8	Agosto	2023-08-18T00:00:00	2024-11-08T16:00:00	5	Humedad	77
72245	7	Sololá	717	San Juan la Laguna	12	San Juan la Laguna	8	Agosto	2023-08-18T00:00:00	2024-11-08T16:00:00	6	Velocidad del viento	3.2
72246	7	Sololá	717	San Juan la Laguna	12	San Juan la Laguna	8	Agosto	2023-08-18T00:00:00	2024-11-08T16:00:00	7	Dirección del viento	3.22
72247	7	Sololá	717	San Juan la Laguna	12	San Juan la Laguna	8	Agosto	2023-08-18T00:00:00	2024-11-08T16:00:00	1	Precipitación	0
72248	7	Sololá	717	San Juan la Laguna	12	San Juan la Laguna	8	Agosto	2023-08-18T00:00:00	2024-11-08T16:00:00	8	Radiación solar	125
72249	7	Sololá	717	San Juan la Laguna	12	San Juan la Laguna	8	Agosto	2023-08-18T00:00:00	2024-11-08T17:00:00	2	Temperatura media	21.8
72250	7	Sololá	717	San Juan la Laguna	12	San Juan la Laguna	8	Agosto	2023-08-18T00:00:00	2024-11-08T17:00:00	4	Temperatura máxima	22.2
72251	7	Sololá	717	San Juan la Laguna	12	San Juan la Laguna	8	Agosto	2023-08-18T00:00:00	2024-11-08T17:00:00	3	Temperatura mínima	21.6
72252	7	Sololá	717	San Juan la Laguna	12	San Juan la Laguna	8	Agosto	2023-08-18T00:00:00	2024-11-08T17:00:00	5	Humedad	78
72253	7	Sololá	717	San Juan la Laguna	12	San Juan la Laguna	8	Agosto	2023-08-18T00:00:00	2024-11-08T17:00:00	6	Velocidad del viento	1.6
72254	7	Sololá	717	San Juan la Laguna	12	San Juan la Laguna	8	Agosto	2023-08-18T00:00:00	2024-11-08T17:00:00	7	Dirección del viento	1.61
72255	7	Sololá	717	San Juan la Laguna	12	San Juan la Laguna	8	Agosto	2023-08-18T00:00:00	2024-11-08T17:00:00	1	Precipitación	0
72256	7	Sololá	717	San Juan la Laguna	12	San Juan la Laguna	8	Agosto	2023-08-18T00:00:00	2024-11-08T17:00:00	8	Radiación solar	101
72257	7	Sololá	717	San Juan la Laguna	12	San Juan la Laguna	8	Agosto	2023-08-18T00:00:00	2024-11-08T18:00:00	2	Temperatura media	20.6
72258	7	Sololá	717	San Juan la Laguna	12	San Juan la Laguna	8	Agosto	2023-08-18T00:00:00	2024-11-08T18:00:00	4	Temperatura máxima	21.9
72259	7	Sololá	717	San Juan la Laguna	12	San Juan la Laguna	8	Agosto	2023-08-18T00:00:00	2024-11-08T18:00:00	3	Temperatura mínima	20.6
72260	7	Sololá	717	San Juan la Laguna	12	San Juan la Laguna	8	Agosto	2023-08-18T00:00:00	2024-11-08T18:00:00	5	Humedad	81
72261	7	Sololá	717	San Juan la Laguna	12	San Juan la Laguna	8	Agosto	2023-08-18T00:00:00	2024-11-08T18:00:00	6	Velocidad del viento	4.8
72262	7	Sololá	717	San Juan la Laguna	12	San Juan la Laguna	8	Agosto	2023-08-18T00:00:00	2024-11-08T18:00:00	7	Dirección del viento	4.83
72263	7	Sololá	717	San Juan la Laguna	12	San Juan la Laguna	8	Agosto	2023-08-18T00:00:00	2024-11-08T18:00:00	1	Precipitación	0
72264	7	Sololá	717	San Juan la Laguna	12	San Juan la Laguna	8	Agosto	2023-08-18T00:00:00	2024-11-08T18:00:00	8	Radiación solar	55
72265	7	Sololá	717	San Juan la Laguna	12	San Juan la Laguna	8	Agosto	2023-08-18T00:00:00	2024-11-08T19:00:00	2	Temperatura media	20.1
72266	7	Sololá	717	San Juan la Laguna	12	San Juan la Laguna	8	Agosto	2023-08-18T00:00:00	2024-11-08T19:00:00	4	Temperatura máxima	20.6
72267	7	Sololá	717	San Juan la Laguna	12	San Juan la Laguna	8	Agosto	2023-08-18T00:00:00	2024-11-08T19:00:00	3	Temperatura mínima	20.1
72268	7	Sololá	717	San Juan la Laguna	12	San Juan la Laguna	8	Agosto	2023-08-18T00:00:00	2024-11-08T19:00:00	5	Humedad	81
72269	7	Sololá	717	San Juan la Laguna	12	San Juan la Laguna	8	Agosto	2023-08-18T00:00:00	2024-11-08T19:00:00	6	Velocidad del viento	4.8
72270	7	Sololá	717	San Juan la Laguna	12	San Juan la Laguna	8	Agosto	2023-08-18T00:00:00	2024-11-08T19:00:00	7	Dirección del viento	4.83
72271	7	Sololá	717	San Juan la Laguna	12	San Juan la Laguna	8	Agosto	2023-08-18T00:00:00	2024-11-08T19:00:00	1	Precipitación	0
72272	7	Sololá	717	San Juan la Laguna	12	San Juan la Laguna	8	Agosto	2023-08-18T00:00:00	2024-11-08T19:00:00	8	Radiación solar	0
72273	7	Sololá	717	San Juan la Laguna	12	San Juan la Laguna	8	Agosto	2023-08-18T00:00:00	2024-11-08T20:00:00	2	Temperatura media	18.9
72274	7	Sololá	717	San Juan la Laguna	12	San Juan la Laguna	8	Agosto	2023-08-18T00:00:00	2024-11-08T20:00:00	4	Temperatura máxima	20.1
72275	7	Sololá	717	San Juan la Laguna	12	San Juan la Laguna	8	Agosto	2023-08-18T00:00:00	2024-11-08T20:00:00	3	Temperatura mínima	18.9
72276	7	Sololá	717	San Juan la Laguna	12	San Juan la Laguna	8	Agosto	2023-08-18T00:00:00	2024-11-08T20:00:00	5	Humedad	83
72277	7	Sololá	717	San Juan la Laguna	12	San Juan la Laguna	8	Agosto	2023-08-18T00:00:00	2024-11-08T20:00:00	6	Velocidad del viento	0
72278	7	Sololá	717	San Juan la Laguna	12	San Juan la Laguna	8	Agosto	2023-08-18T00:00:00	2024-11-08T20:00:00	7	Dirección del viento	0
72279	7	Sololá	717	San Juan la Laguna	12	San Juan la Laguna	8	Agosto	2023-08-18T00:00:00	2024-11-08T20:00:00	1	Precipitación	0
72280	7	Sololá	717	San Juan la Laguna	12	San Juan la Laguna	8	Agosto	2023-08-18T00:00:00	2024-11-08T20:00:00	8	Radiación solar	0
72281	7	Sololá	717	San Juan la Laguna	12	San Juan la Laguna	8	Agosto	2023-08-18T00:00:00	2024-11-08T21:00:00	2	Temperatura media	21.5
72282	7	Sololá	717	San Juan la Laguna	12	San Juan la Laguna	8	Agosto	2023-08-18T00:00:00	2024-11-08T21:00:00	4	Temperatura máxima	21.5
72283	7	Sololá	717	San Juan la Laguna	12	San Juan la Laguna	8	Agosto	2023-08-18T00:00:00	2024-11-08T21:00:00	3	Temperatura mínima	18.8
72284	7	Sololá	717	San Juan la Laguna	12	San Juan la Laguna	8	Agosto	2023-08-18T00:00:00	2024-11-08T21:00:00	5	Humedad	66
72285	7	Sololá	717	San Juan la Laguna	12	San Juan la Laguna	8	Agosto	2023-08-18T00:00:00	2024-11-08T21:00:00	6	Velocidad del viento	3.2
72286	7	Sololá	717	San Juan la Laguna	12	San Juan la Laguna	8	Agosto	2023-08-18T00:00:00	2024-11-08T21:00:00	7	Dirección del viento	3.22
72287	7	Sololá	717	San Juan la Laguna	12	San Juan la Laguna	8	Agosto	2023-08-18T00:00:00	2024-11-08T21:00:00	1	Precipitación	0
72288	7	Sololá	717	San Juan la Laguna	12	San Juan la Laguna	8	Agosto	2023-08-18T00:00:00	2024-11-08T21:00:00	8	Radiación solar	0
72289	7	Sololá	717	San Juan la Laguna	12	San Juan la Laguna	8	Agosto	2023-08-18T00:00:00	2024-11-08T22:00:00	2	Temperatura media	21.2
72290	7	Sololá	717	San Juan la Laguna	12	San Juan la Laguna	8	Agosto	2023-08-18T00:00:00	2024-11-08T22:00:00	4	Temperatura máxima	21.6
72291	7	Sololá	717	San Juan la Laguna	12	San Juan la Laguna	8	Agosto	2023-08-18T00:00:00	2024-11-08T22:00:00	3	Temperatura mínima	21.2
72292	7	Sololá	717	San Juan la Laguna	12	San Juan la Laguna	8	Agosto	2023-08-18T00:00:00	2024-11-08T22:00:00	5	Humedad	63
72293	7	Sololá	717	San Juan la Laguna	12	San Juan la Laguna	8	Agosto	2023-08-18T00:00:00	2024-11-08T22:00:00	6	Velocidad del viento	11.3
72294	7	Sololá	717	San Juan la Laguna	12	San Juan la Laguna	8	Agosto	2023-08-18T00:00:00	2024-11-08T22:00:00	7	Dirección del viento	11.27
72295	7	Sololá	717	San Juan la Laguna	12	San Juan la Laguna	8	Agosto	2023-08-18T00:00:00	2024-11-08T22:00:00	1	Precipitación	0
72296	7	Sololá	717	San Juan la Laguna	12	San Juan la Laguna	8	Agosto	2023-08-18T00:00:00	2024-11-08T22:00:00	8	Radiación solar	0
72297	7	Sololá	717	San Juan la Laguna	12	San Juan la Laguna	8	Agosto	2023-08-18T00:00:00	2024-11-08T23:00:00	2	Temperatura media	20.8
72298	7	Sololá	717	San Juan la Laguna	12	San Juan la Laguna	8	Agosto	2023-08-18T00:00:00	2024-11-08T23:00:00	4	Temperatura máxima	21.2
72299	7	Sololá	717	San Juan la Laguna	12	San Juan la Laguna	8	Agosto	2023-08-18T00:00:00	2024-11-08T23:00:00	3	Temperatura mínima	20.7
72300	7	Sololá	717	San Juan la Laguna	12	San Juan la Laguna	8	Agosto	2023-08-18T00:00:00	2024-11-08T23:00:00	5	Humedad	66
72301	7	Sololá	717	San Juan la Laguna	12	San Juan la Laguna	8	Agosto	2023-08-18T00:00:00	2024-11-08T23:00:00	6	Velocidad del viento	8
72302	7	Sololá	717	San Juan la Laguna	12	San Juan la Laguna	8	Agosto	2023-08-18T00:00:00	2024-11-08T23:00:00	7	Dirección del viento	8.05
72303	7	Sololá	717	San Juan la Laguna	12	San Juan la Laguna	8	Agosto	2023-08-18T00:00:00	2024-11-08T23:00:00	1	Precipitación	0
72304	7	Sololá	717	San Juan la Laguna	12	San Juan la Laguna	8	Agosto	2023-08-18T00:00:00	2024-11-08T23:00:00	8	Radiación solar	0
72305	7	Sololá	717	San Juan la Laguna	12	San Juan la Laguna	8	Agosto	2023-08-19T00:00:00	2024-11-08T00:00:00	2	Temperatura media	20.6
72306	7	Sololá	717	San Juan la Laguna	12	San Juan la Laguna	8	Agosto	2023-08-19T00:00:00	2024-11-08T00:00:00	4	Temperatura máxima	20.8
72307	7	Sololá	717	San Juan la Laguna	12	San Juan la Laguna	8	Agosto	2023-08-19T00:00:00	2024-11-08T00:00:00	3	Temperatura mínima	20.4
72308	7	Sololá	717	San Juan la Laguna	12	San Juan la Laguna	8	Agosto	2023-08-19T00:00:00	2024-11-08T00:00:00	5	Humedad	63
72309	7	Sololá	717	San Juan la Laguna	12	San Juan la Laguna	8	Agosto	2023-08-19T00:00:00	2024-11-08T00:00:00	6	Velocidad del viento	11.3
72310	7	Sololá	717	San Juan la Laguna	12	San Juan la Laguna	8	Agosto	2023-08-19T00:00:00	2024-11-08T00:00:00	7	Dirección del viento	11.27
72311	7	Sololá	717	San Juan la Laguna	12	San Juan la Laguna	8	Agosto	2023-08-19T00:00:00	2024-11-08T00:00:00	1	Precipitación	0
72312	7	Sololá	717	San Juan la Laguna	12	San Juan la Laguna	8	Agosto	2023-08-19T00:00:00	2024-11-08T00:00:00	8	Radiación solar	0
72313	7	Sololá	717	San Juan la Laguna	12	San Juan la Laguna	8	Agosto	2023-08-19T00:00:00	2024-11-08T01:00:00	2	Temperatura media	20.2
72314	7	Sololá	717	San Juan la Laguna	12	San Juan la Laguna	8	Agosto	2023-08-19T00:00:00	2024-11-08T01:00:00	4	Temperatura máxima	20.6
72315	7	Sololá	717	San Juan la Laguna	12	San Juan la Laguna	8	Agosto	2023-08-19T00:00:00	2024-11-08T01:00:00	3	Temperatura mínima	20.2
72316	7	Sololá	717	San Juan la Laguna	12	San Juan la Laguna	8	Agosto	2023-08-19T00:00:00	2024-11-08T01:00:00	5	Humedad	62
72317	7	Sololá	717	San Juan la Laguna	12	San Juan la Laguna	8	Agosto	2023-08-19T00:00:00	2024-11-08T01:00:00	6	Velocidad del viento	8
72318	7	Sololá	717	San Juan la Laguna	12	San Juan la Laguna	8	Agosto	2023-08-19T00:00:00	2024-11-08T01:00:00	7	Dirección del viento	8.05
72319	7	Sololá	717	San Juan la Laguna	12	San Juan la Laguna	8	Agosto	2023-08-19T00:00:00	2024-11-08T01:00:00	1	Precipitación	0
72320	7	Sololá	717	San Juan la Laguna	12	San Juan la Laguna	8	Agosto	2023-08-19T00:00:00	2024-11-08T01:00:00	8	Radiación solar	0
72321	7	Sololá	717	San Juan la Laguna	12	San Juan la Laguna	8	Agosto	2023-08-19T00:00:00	2024-11-08T02:00:00	2	Temperatura media	19.6
72322	7	Sololá	717	San Juan la Laguna	12	San Juan la Laguna	8	Agosto	2023-08-19T00:00:00	2024-11-08T02:00:00	4	Temperatura máxima	20.2
72323	7	Sololá	717	San Juan la Laguna	12	San Juan la Laguna	8	Agosto	2023-08-19T00:00:00	2024-11-08T02:00:00	3	Temperatura mínima	19.6
72324	7	Sololá	717	San Juan la Laguna	12	San Juan la Laguna	8	Agosto	2023-08-19T00:00:00	2024-11-08T02:00:00	5	Humedad	65
72325	7	Sololá	717	San Juan la Laguna	12	San Juan la Laguna	8	Agosto	2023-08-19T00:00:00	2024-11-08T02:00:00	6	Velocidad del viento	4.8
72326	7	Sololá	717	San Juan la Laguna	12	San Juan la Laguna	8	Agosto	2023-08-19T00:00:00	2024-11-08T02:00:00	7	Dirección del viento	4.83
72327	7	Sololá	717	San Juan la Laguna	12	San Juan la Laguna	8	Agosto	2023-08-19T00:00:00	2024-11-08T02:00:00	1	Precipitación	0
72328	7	Sololá	717	San Juan la Laguna	12	San Juan la Laguna	8	Agosto	2023-08-19T00:00:00	2024-11-08T02:00:00	8	Radiación solar	0
72329	7	Sololá	717	San Juan la Laguna	12	San Juan la Laguna	8	Agosto	2023-08-19T00:00:00	2024-11-08T03:00:00	2	Temperatura media	18.8
72330	7	Sololá	717	San Juan la Laguna	12	San Juan la Laguna	8	Agosto	2023-08-19T00:00:00	2024-11-08T03:00:00	4	Temperatura máxima	19.6
72331	7	Sololá	717	San Juan la Laguna	12	San Juan la Laguna	8	Agosto	2023-08-19T00:00:00	2024-11-08T03:00:00	3	Temperatura mínima	18.8
72332	7	Sololá	717	San Juan la Laguna	12	San Juan la Laguna	8	Agosto	2023-08-19T00:00:00	2024-11-08T03:00:00	5	Humedad	65
72333	7	Sololá	717	San Juan la Laguna	12	San Juan la Laguna	8	Agosto	2023-08-19T00:00:00	2024-11-08T03:00:00	6	Velocidad del viento	1.6
72334	7	Sololá	717	San Juan la Laguna	12	San Juan la Laguna	8	Agosto	2023-08-19T00:00:00	2024-11-08T03:00:00	7	Dirección del viento	1.61
72335	7	Sololá	717	San Juan la Laguna	12	San Juan la Laguna	8	Agosto	2023-08-19T00:00:00	2024-11-08T03:00:00	1	Precipitación	0
72336	7	Sololá	717	San Juan la Laguna	12	San Juan la Laguna	8	Agosto	2023-08-19T00:00:00	2024-11-08T03:00:00	8	Radiación solar	0
72337	7	Sololá	717	San Juan la Laguna	12	San Juan la Laguna	8	Agosto	2023-08-19T00:00:00	2024-11-08T04:00:00	2	Temperatura media	19.3
72338	7	Sololá	717	San Juan la Laguna	12	San Juan la Laguna	8	Agosto	2023-08-19T00:00:00	2024-11-08T04:00:00	4	Temperatura máxima	19.3
72339	7	Sololá	717	San Juan la Laguna	12	San Juan la Laguna	8	Agosto	2023-08-19T00:00:00	2024-11-08T04:00:00	3	Temperatura mínima	17.6
72340	7	Sololá	717	San Juan la Laguna	12	San Juan la Laguna	8	Agosto	2023-08-19T00:00:00	2024-11-08T04:00:00	5	Humedad	57
72341	7	Sololá	717	San Juan la Laguna	12	San Juan la Laguna	8	Agosto	2023-08-19T00:00:00	2024-11-08T04:00:00	6	Velocidad del viento	0
72342	7	Sololá	717	San Juan la Laguna	12	San Juan la Laguna	8	Agosto	2023-08-19T00:00:00	2024-11-08T04:00:00	7	Dirección del viento	0
72343	7	Sololá	717	San Juan la Laguna	12	San Juan la Laguna	8	Agosto	2023-08-19T00:00:00	2024-11-08T04:00:00	1	Precipitación	0
72344	7	Sololá	717	San Juan la Laguna	12	San Juan la Laguna	8	Agosto	2023-08-19T00:00:00	2024-11-08T04:00:00	8	Radiación solar	0
72345	7	Sololá	717	San Juan la Laguna	12	San Juan la Laguna	8	Agosto	2023-08-19T00:00:00	2024-11-08T05:00:00	2	Temperatura media	18.1
72346	7	Sololá	717	San Juan la Laguna	12	San Juan la Laguna	8	Agosto	2023-08-19T00:00:00	2024-11-08T05:00:00	4	Temperatura máxima	19.7
72347	7	Sololá	717	San Juan la Laguna	12	San Juan la Laguna	8	Agosto	2023-08-19T00:00:00	2024-11-08T05:00:00	3	Temperatura mínima	18.1
72348	7	Sololá	717	San Juan la Laguna	12	San Juan la Laguna	8	Agosto	2023-08-19T00:00:00	2024-11-08T05:00:00	5	Humedad	60
72349	7	Sololá	717	San Juan la Laguna	12	San Juan la Laguna	8	Agosto	2023-08-19T00:00:00	2024-11-08T05:00:00	6	Velocidad del viento	3.2
72350	7	Sololá	717	San Juan la Laguna	12	San Juan la Laguna	8	Agosto	2023-08-19T00:00:00	2024-11-08T05:00:00	7	Dirección del viento	3.22
72351	7	Sololá	717	San Juan la Laguna	12	San Juan la Laguna	8	Agosto	2023-08-19T00:00:00	2024-11-08T05:00:00	1	Precipitación	0
72352	7	Sololá	717	San Juan la Laguna	12	San Juan la Laguna	8	Agosto	2023-08-19T00:00:00	2024-11-08T05:00:00	8	Radiación solar	0
72353	7	Sololá	717	San Juan la Laguna	12	San Juan la Laguna	8	Agosto	2023-08-19T00:00:00	2024-11-08T06:00:00	2	Temperatura media	15.9
72354	7	Sololá	717	San Juan la Laguna	12	San Juan la Laguna	8	Agosto	2023-08-19T00:00:00	2024-11-08T06:00:00	4	Temperatura máxima	18.1
72355	7	Sololá	717	San Juan la Laguna	12	San Juan la Laguna	8	Agosto	2023-08-19T00:00:00	2024-11-08T06:00:00	3	Temperatura mínima	15.8
72356	7	Sololá	717	San Juan la Laguna	12	San Juan la Laguna	8	Agosto	2023-08-19T00:00:00	2024-11-08T06:00:00	5	Humedad	66
72357	7	Sololá	717	San Juan la Laguna	12	San Juan la Laguna	8	Agosto	2023-08-19T00:00:00	2024-11-08T06:00:00	6	Velocidad del viento	0
72358	7	Sololá	717	San Juan la Laguna	12	San Juan la Laguna	8	Agosto	2023-08-19T00:00:00	2024-11-08T06:00:00	7	Dirección del viento	0
72359	7	Sololá	717	San Juan la Laguna	12	San Juan la Laguna	8	Agosto	2023-08-19T00:00:00	2024-11-08T06:00:00	1	Precipitación	0
72360	7	Sololá	717	San Juan la Laguna	12	San Juan la Laguna	8	Agosto	2023-08-19T00:00:00	2024-11-08T06:00:00	8	Radiación solar	2
72361	7	Sololá	717	San Juan la Laguna	12	San Juan la Laguna	8	Agosto	2023-08-19T00:00:00	2024-11-08T07:00:00	2	Temperatura media	18
72362	7	Sololá	717	San Juan la Laguna	12	San Juan la Laguna	8	Agosto	2023-08-19T00:00:00	2024-11-08T07:00:00	4	Temperatura máxima	18
72363	7	Sololá	717	San Juan la Laguna	12	San Juan la Laguna	8	Agosto	2023-08-19T00:00:00	2024-11-08T07:00:00	3	Temperatura mínima	15.9
72364	7	Sololá	717	San Juan la Laguna	12	San Juan la Laguna	8	Agosto	2023-08-19T00:00:00	2024-11-08T07:00:00	5	Humedad	66
72365	7	Sololá	717	San Juan la Laguna	12	San Juan la Laguna	8	Agosto	2023-08-19T00:00:00	2024-11-08T07:00:00	6	Velocidad del viento	0
72366	7	Sololá	717	San Juan la Laguna	12	San Juan la Laguna	8	Agosto	2023-08-19T00:00:00	2024-11-08T07:00:00	7	Dirección del viento	0
72367	7	Sololá	717	San Juan la Laguna	12	San Juan la Laguna	8	Agosto	2023-08-19T00:00:00	2024-11-08T07:00:00	1	Precipitación	0
72368	7	Sololá	717	San Juan la Laguna	12	San Juan la Laguna	8	Agosto	2023-08-19T00:00:00	2024-11-08T07:00:00	8	Radiación solar	67
72369	7	Sololá	717	San Juan la Laguna	12	San Juan la Laguna	8	Agosto	2023-08-19T00:00:00	2024-11-08T08:00:00	2	Temperatura media	21.8
72370	7	Sololá	717	San Juan la Laguna	12	San Juan la Laguna	8	Agosto	2023-08-19T00:00:00	2024-11-08T08:00:00	4	Temperatura máxima	21.8
72371	7	Sololá	717	San Juan la Laguna	12	San Juan la Laguna	8	Agosto	2023-08-19T00:00:00	2024-11-08T08:00:00	3	Temperatura mínima	18
72372	7	Sololá	717	San Juan la Laguna	12	San Juan la Laguna	8	Agosto	2023-08-19T00:00:00	2024-11-08T08:00:00	5	Humedad	55
72373	7	Sololá	717	San Juan la Laguna	12	San Juan la Laguna	8	Agosto	2023-08-19T00:00:00	2024-11-08T08:00:00	6	Velocidad del viento	1.6
72374	7	Sololá	717	San Juan la Laguna	12	San Juan la Laguna	8	Agosto	2023-08-19T00:00:00	2024-11-08T08:00:00	7	Dirección del viento	1.61
72375	7	Sololá	717	San Juan la Laguna	12	San Juan la Laguna	8	Agosto	2023-08-19T00:00:00	2024-11-08T08:00:00	1	Precipitación	0
72376	7	Sololá	717	San Juan la Laguna	12	San Juan la Laguna	8	Agosto	2023-08-19T00:00:00	2024-11-08T08:00:00	8	Radiación solar	243
72377	7	Sololá	717	San Juan la Laguna	12	San Juan la Laguna	8	Agosto	2023-08-19T00:00:00	2024-11-08T09:00:00	2	Temperatura media	22.8
72378	7	Sololá	717	San Juan la Laguna	12	San Juan la Laguna	8	Agosto	2023-08-19T00:00:00	2024-11-08T09:00:00	4	Temperatura máxima	22.8
72379	7	Sololá	717	San Juan la Laguna	12	San Juan la Laguna	8	Agosto	2023-08-19T00:00:00	2024-11-08T09:00:00	3	Temperatura mínima	21.7
72380	7	Sololá	717	San Juan la Laguna	12	San Juan la Laguna	8	Agosto	2023-08-19T00:00:00	2024-11-08T09:00:00	5	Humedad	52
72381	7	Sololá	717	San Juan la Laguna	12	San Juan la Laguna	8	Agosto	2023-08-19T00:00:00	2024-11-08T09:00:00	6	Velocidad del viento	4.8
72382	7	Sololá	717	San Juan la Laguna	12	San Juan la Laguna	8	Agosto	2023-08-19T00:00:00	2024-11-08T09:00:00	7	Dirección del viento	4.83
72383	7	Sololá	717	San Juan la Laguna	12	San Juan la Laguna	8	Agosto	2023-08-19T00:00:00	2024-11-08T09:00:00	1	Precipitación	0
72384	7	Sololá	717	San Juan la Laguna	12	San Juan la Laguna	8	Agosto	2023-08-19T00:00:00	2024-11-08T09:00:00	8	Radiación solar	393
72385	7	Sololá	717	San Juan la Laguna	12	San Juan la Laguna	8	Agosto	2023-08-19T00:00:00	2024-11-08T10:00:00	2	Temperatura media	24.4
72386	7	Sololá	717	San Juan la Laguna	12	San Juan la Laguna	8	Agosto	2023-08-19T00:00:00	2024-11-08T10:00:00	4	Temperatura máxima	24.4
72387	7	Sololá	717	San Juan la Laguna	12	San Juan la Laguna	8	Agosto	2023-08-19T00:00:00	2024-11-08T10:00:00	3	Temperatura mínima	22.8
72388	7	Sololá	717	San Juan la Laguna	12	San Juan la Laguna	8	Agosto	2023-08-19T00:00:00	2024-11-08T10:00:00	5	Humedad	48
72389	7	Sololá	717	San Juan la Laguna	12	San Juan la Laguna	8	Agosto	2023-08-19T00:00:00	2024-11-08T10:00:00	6	Velocidad del viento	1.6
72390	7	Sololá	717	San Juan la Laguna	12	San Juan la Laguna	8	Agosto	2023-08-19T00:00:00	2024-11-08T10:00:00	7	Dirección del viento	1.61
72391	7	Sololá	717	San Juan la Laguna	12	San Juan la Laguna	8	Agosto	2023-08-19T00:00:00	2024-11-08T10:00:00	1	Precipitación	0
72392	7	Sololá	717	San Juan la Laguna	12	San Juan la Laguna	8	Agosto	2023-08-19T00:00:00	2024-11-08T10:00:00	8	Radiación solar	580
72393	7	Sololá	717	San Juan la Laguna	12	San Juan la Laguna	8	Agosto	2023-08-19T00:00:00	2024-11-08T11:00:00	2	Temperatura media	25.8
72394	7	Sololá	717	San Juan la Laguna	12	San Juan la Laguna	8	Agosto	2023-08-19T00:00:00	2024-11-08T11:00:00	4	Temperatura máxima	25.8
72395	7	Sololá	717	San Juan la Laguna	12	San Juan la Laguna	8	Agosto	2023-08-19T00:00:00	2024-11-08T11:00:00	3	Temperatura mínima	24.3
72396	7	Sololá	717	San Juan la Laguna	12	San Juan la Laguna	8	Agosto	2023-08-19T00:00:00	2024-11-08T11:00:00	5	Humedad	47
72397	7	Sololá	717	San Juan la Laguna	12	San Juan la Laguna	8	Agosto	2023-08-19T00:00:00	2024-11-08T11:00:00	6	Velocidad del viento	4.8
72398	7	Sololá	717	San Juan la Laguna	12	San Juan la Laguna	8	Agosto	2023-08-19T00:00:00	2024-11-08T11:00:00	7	Dirección del viento	4.83
72399	7	Sololá	717	San Juan la Laguna	12	San Juan la Laguna	8	Agosto	2023-08-19T00:00:00	2024-11-08T11:00:00	1	Precipitación	0
72400	7	Sololá	717	San Juan la Laguna	12	San Juan la Laguna	8	Agosto	2023-08-19T00:00:00	2024-11-08T11:00:00	8	Radiación solar	846
72401	7	Sololá	717	San Juan la Laguna	12	San Juan la Laguna	8	Agosto	2023-08-19T00:00:00	2024-11-08T12:00:00	2	Temperatura media	26.6
72402	7	Sololá	717	San Juan la Laguna	12	San Juan la Laguna	8	Agosto	2023-08-19T00:00:00	2024-11-08T12:00:00	4	Temperatura máxima	26.6
72403	7	Sololá	717	San Juan la Laguna	12	San Juan la Laguna	8	Agosto	2023-08-19T00:00:00	2024-11-08T12:00:00	3	Temperatura mínima	25.7
72404	7	Sololá	717	San Juan la Laguna	12	San Juan la Laguna	8	Agosto	2023-08-19T00:00:00	2024-11-08T12:00:00	5	Humedad	47
72405	7	Sololá	717	San Juan la Laguna	12	San Juan la Laguna	8	Agosto	2023-08-19T00:00:00	2024-11-08T12:00:00	6	Velocidad del viento	4.8
72406	7	Sololá	717	San Juan la Laguna	12	San Juan la Laguna	8	Agosto	2023-08-19T00:00:00	2024-11-08T12:00:00	7	Dirección del viento	4.83
72407	7	Sololá	717	San Juan la Laguna	12	San Juan la Laguna	8	Agosto	2023-08-19T00:00:00	2024-11-08T12:00:00	1	Precipitación	0
72408	7	Sololá	717	San Juan la Laguna	12	San Juan la Laguna	8	Agosto	2023-08-19T00:00:00	2024-11-08T12:00:00	8	Radiación solar	938
72409	7	Sololá	717	San Juan la Laguna	12	San Juan la Laguna	8	Agosto	2023-08-19T00:00:00	2024-11-08T13:00:00	2	Temperatura media	26.3
72410	7	Sololá	717	San Juan la Laguna	12	San Juan la Laguna	8	Agosto	2023-08-19T00:00:00	2024-11-08T13:00:00	4	Temperatura máxima	27.3
72411	7	Sololá	717	San Juan la Laguna	12	San Juan la Laguna	8	Agosto	2023-08-19T00:00:00	2024-11-08T13:00:00	3	Temperatura mínima	26.3
72412	7	Sololá	717	San Juan la Laguna	12	San Juan la Laguna	8	Agosto	2023-08-19T00:00:00	2024-11-08T13:00:00	5	Humedad	51
72413	7	Sololá	717	San Juan la Laguna	12	San Juan la Laguna	8	Agosto	2023-08-19T00:00:00	2024-11-08T13:00:00	6	Velocidad del viento	6.4
72414	7	Sololá	717	San Juan la Laguna	12	San Juan la Laguna	8	Agosto	2023-08-19T00:00:00	2024-11-08T13:00:00	7	Dirección del viento	6.44
72415	7	Sololá	717	San Juan la Laguna	12	San Juan la Laguna	8	Agosto	2023-08-19T00:00:00	2024-11-08T13:00:00	1	Precipitación	0
72416	7	Sololá	717	San Juan la Laguna	12	San Juan la Laguna	8	Agosto	2023-08-19T00:00:00	2024-11-08T13:00:00	8	Radiación solar	978
72417	7	Sololá	717	San Juan la Laguna	12	San Juan la Laguna	8	Agosto	2023-08-19T00:00:00	2024-11-08T14:00:00	2	Temperatura media	25.7
72418	7	Sololá	717	San Juan la Laguna	12	San Juan la Laguna	8	Agosto	2023-08-19T00:00:00	2024-11-08T14:00:00	4	Temperatura máxima	26.3
72419	7	Sololá	717	San Juan la Laguna	12	San Juan la Laguna	8	Agosto	2023-08-19T00:00:00	2024-11-08T14:00:00	3	Temperatura mínima	25.3
72420	7	Sololá	717	San Juan la Laguna	12	San Juan la Laguna	8	Agosto	2023-08-19T00:00:00	2024-11-08T14:00:00	5	Humedad	53
72421	7	Sololá	717	San Juan la Laguna	12	San Juan la Laguna	8	Agosto	2023-08-19T00:00:00	2024-11-08T14:00:00	6	Velocidad del viento	1.6
72422	7	Sololá	717	San Juan la Laguna	12	San Juan la Laguna	8	Agosto	2023-08-19T00:00:00	2024-11-08T14:00:00	7	Dirección del viento	1.61
72423	7	Sololá	717	San Juan la Laguna	12	San Juan la Laguna	8	Agosto	2023-08-19T00:00:00	2024-11-08T14:00:00	1	Precipitación	0
72424	7	Sololá	717	San Juan la Laguna	12	San Juan la Laguna	8	Agosto	2023-08-19T00:00:00	2024-11-08T14:00:00	8	Radiación solar	399
72425	7	Sololá	717	San Juan la Laguna	12	San Juan la Laguna	8	Agosto	2023-08-19T00:00:00	2024-11-08T15:00:00	2	Temperatura media	25.8
72426	7	Sololá	717	San Juan la Laguna	12	San Juan la Laguna	8	Agosto	2023-08-19T00:00:00	2024-11-08T15:00:00	4	Temperatura máxima	26.3
72427	7	Sololá	717	San Juan la Laguna	12	San Juan la Laguna	8	Agosto	2023-08-19T00:00:00	2024-11-08T15:00:00	3	Temperatura mínima	25.4
72428	7	Sololá	717	San Juan la Laguna	12	San Juan la Laguna	8	Agosto	2023-08-19T00:00:00	2024-11-08T15:00:00	5	Humedad	52
72429	7	Sololá	717	San Juan la Laguna	12	San Juan la Laguna	8	Agosto	2023-08-19T00:00:00	2024-11-08T15:00:00	6	Velocidad del viento	1.6
72430	7	Sololá	717	San Juan la Laguna	12	San Juan la Laguna	8	Agosto	2023-08-19T00:00:00	2024-11-08T15:00:00	7	Dirección del viento	1.61
72431	7	Sololá	717	San Juan la Laguna	12	San Juan la Laguna	8	Agosto	2023-08-19T00:00:00	2024-11-08T15:00:00	1	Precipitación	0
72432	7	Sololá	717	San Juan la Laguna	12	San Juan la Laguna	8	Agosto	2023-08-19T00:00:00	2024-11-08T15:00:00	8	Radiación solar	575
72433	7	Sololá	717	San Juan la Laguna	12	San Juan la Laguna	8	Agosto	2023-08-19T00:00:00	2024-11-08T16:00:00	2	Temperatura media	24.5
72434	7	Sololá	717	San Juan la Laguna	12	San Juan la Laguna	8	Agosto	2023-08-19T00:00:00	2024-11-08T16:00:00	4	Temperatura máxima	26.4
72435	7	Sololá	717	San Juan la Laguna	12	San Juan la Laguna	8	Agosto	2023-08-19T00:00:00	2024-11-08T16:00:00	3	Temperatura mínima	24.5
72436	7	Sololá	717	San Juan la Laguna	12	San Juan la Laguna	8	Agosto	2023-08-19T00:00:00	2024-11-08T16:00:00	5	Humedad	58
72437	7	Sololá	717	San Juan la Laguna	12	San Juan la Laguna	8	Agosto	2023-08-19T00:00:00	2024-11-08T16:00:00	6	Velocidad del viento	0
72438	7	Sololá	717	San Juan la Laguna	12	San Juan la Laguna	8	Agosto	2023-08-19T00:00:00	2024-11-08T16:00:00	7	Dirección del viento	0
72439	7	Sololá	717	San Juan la Laguna	12	San Juan la Laguna	8	Agosto	2023-08-19T00:00:00	2024-11-08T16:00:00	1	Precipitación	0
72440	7	Sololá	717	San Juan la Laguna	12	San Juan la Laguna	8	Agosto	2023-08-19T00:00:00	2024-11-08T16:00:00	8	Radiación solar	384
72441	7	Sololá	717	San Juan la Laguna	12	San Juan la Laguna	8	Agosto	2023-08-19T00:00:00	2024-11-08T17:00:00	2	Temperatura media	21.9
72442	7	Sololá	717	San Juan la Laguna	12	San Juan la Laguna	8	Agosto	2023-08-19T00:00:00	2024-11-08T17:00:00	4	Temperatura máxima	24.5
72443	7	Sololá	717	San Juan la Laguna	12	San Juan la Laguna	8	Agosto	2023-08-19T00:00:00	2024-11-08T17:00:00	3	Temperatura mínima	21.8
72444	7	Sololá	717	San Juan la Laguna	12	San Juan la Laguna	8	Agosto	2023-08-19T00:00:00	2024-11-08T17:00:00	5	Humedad	76
72445	7	Sololá	717	San Juan la Laguna	12	San Juan la Laguna	8	Agosto	2023-08-19T00:00:00	2024-11-08T17:00:00	6	Velocidad del viento	0
72446	7	Sololá	717	San Juan la Laguna	12	San Juan la Laguna	8	Agosto	2023-08-19T00:00:00	2024-11-08T17:00:00	7	Dirección del viento	0
72447	7	Sololá	717	San Juan la Laguna	12	San Juan la Laguna	8	Agosto	2023-08-19T00:00:00	2024-11-08T17:00:00	1	Precipitación	0
72448	7	Sololá	717	San Juan la Laguna	12	San Juan la Laguna	8	Agosto	2023-08-19T00:00:00	2024-11-08T17:00:00	8	Radiación solar	69
72449	7	Sololá	717	San Juan la Laguna	12	San Juan la Laguna	8	Agosto	2023-08-19T00:00:00	2024-11-08T18:00:00	2	Temperatura media	20.3
72450	7	Sololá	717	San Juan la Laguna	12	San Juan la Laguna	8	Agosto	2023-08-19T00:00:00	2024-11-08T18:00:00	4	Temperatura máxima	22.4
72451	7	Sololá	717	San Juan la Laguna	12	San Juan la Laguna	8	Agosto	2023-08-19T00:00:00	2024-11-08T18:00:00	3	Temperatura mínima	19.9
72452	7	Sololá	717	San Juan la Laguna	12	San Juan la Laguna	8	Agosto	2023-08-19T00:00:00	2024-11-08T18:00:00	5	Humedad	83
72453	7	Sololá	717	San Juan la Laguna	12	San Juan la Laguna	8	Agosto	2023-08-19T00:00:00	2024-11-08T18:00:00	6	Velocidad del viento	3.2
72454	7	Sololá	717	San Juan la Laguna	12	San Juan la Laguna	8	Agosto	2023-08-19T00:00:00	2024-11-08T18:00:00	7	Dirección del viento	3.22
72455	7	Sololá	717	San Juan la Laguna	12	San Juan la Laguna	8	Agosto	2023-08-19T00:00:00	2024-11-08T18:00:00	1	Precipitación	0
72456	7	Sololá	717	San Juan la Laguna	12	San Juan la Laguna	8	Agosto	2023-08-19T00:00:00	2024-11-08T18:00:00	8	Radiación solar	48
72457	7	Sololá	717	San Juan la Laguna	12	San Juan la Laguna	8	Agosto	2023-08-19T00:00:00	2024-11-08T19:00:00	2	Temperatura media	19.4
72458	7	Sololá	717	San Juan la Laguna	12	San Juan la Laguna	8	Agosto	2023-08-19T00:00:00	2024-11-08T19:00:00	4	Temperatura máxima	20.3
72459	7	Sololá	717	San Juan la Laguna	12	San Juan la Laguna	8	Agosto	2023-08-19T00:00:00	2024-11-08T19:00:00	3	Temperatura mínima	19.4
72460	7	Sololá	717	San Juan la Laguna	12	San Juan la Laguna	8	Agosto	2023-08-19T00:00:00	2024-11-08T19:00:00	5	Humedad	84
72461	7	Sololá	717	San Juan la Laguna	12	San Juan la Laguna	8	Agosto	2023-08-19T00:00:00	2024-11-08T19:00:00	6	Velocidad del viento	0
72462	7	Sololá	717	San Juan la Laguna	12	San Juan la Laguna	8	Agosto	2023-08-19T00:00:00	2024-11-08T19:00:00	7	Dirección del viento	0
72463	7	Sololá	717	San Juan la Laguna	12	San Juan la Laguna	8	Agosto	2023-08-19T00:00:00	2024-11-08T19:00:00	1	Precipitación	0
72464	7	Sololá	717	San Juan la Laguna	12	San Juan la Laguna	8	Agosto	2023-08-19T00:00:00	2024-11-08T19:00:00	8	Radiación solar	0
72465	7	Sololá	717	San Juan la Laguna	12	San Juan la Laguna	8	Agosto	2023-08-19T00:00:00	2024-11-08T20:00:00	2	Temperatura media	19.4
72466	7	Sololá	717	San Juan la Laguna	12	San Juan la Laguna	8	Agosto	2023-08-19T00:00:00	2024-11-08T20:00:00	4	Temperatura máxima	20
72467	7	Sololá	717	San Juan la Laguna	12	San Juan la Laguna	8	Agosto	2023-08-19T00:00:00	2024-11-08T20:00:00	3	Temperatura mínima	19.3
72468	7	Sololá	717	San Juan la Laguna	12	San Juan la Laguna	8	Agosto	2023-08-19T00:00:00	2024-11-08T20:00:00	5	Humedad	79
72469	7	Sololá	717	San Juan la Laguna	12	San Juan la Laguna	8	Agosto	2023-08-19T00:00:00	2024-11-08T20:00:00	6	Velocidad del viento	3.2
72470	7	Sololá	717	San Juan la Laguna	12	San Juan la Laguna	8	Agosto	2023-08-19T00:00:00	2024-11-08T20:00:00	7	Dirección del viento	3.22
72471	7	Sololá	717	San Juan la Laguna	12	San Juan la Laguna	8	Agosto	2023-08-19T00:00:00	2024-11-08T20:00:00	1	Precipitación	0
72472	7	Sololá	717	San Juan la Laguna	12	San Juan la Laguna	8	Agosto	2023-08-19T00:00:00	2024-11-08T20:00:00	8	Radiación solar	0
72473	7	Sololá	717	San Juan la Laguna	12	San Juan la Laguna	8	Agosto	2023-08-19T00:00:00	2024-11-08T21:00:00	2	Temperatura media	19.9
72474	7	Sololá	717	San Juan la Laguna	12	San Juan la Laguna	8	Agosto	2023-08-19T00:00:00	2024-11-08T21:00:00	4	Temperatura máxima	20.3
72475	7	Sololá	717	San Juan la Laguna	12	San Juan la Laguna	8	Agosto	2023-08-19T00:00:00	2024-11-08T21:00:00	3	Temperatura mínima	19.4
72476	7	Sololá	717	San Juan la Laguna	12	San Juan la Laguna	8	Agosto	2023-08-19T00:00:00	2024-11-08T21:00:00	5	Humedad	69
72477	7	Sololá	717	San Juan la Laguna	12	San Juan la Laguna	8	Agosto	2023-08-19T00:00:00	2024-11-08T21:00:00	6	Velocidad del viento	1.6
72478	7	Sololá	717	San Juan la Laguna	12	San Juan la Laguna	8	Agosto	2023-08-19T00:00:00	2024-11-08T21:00:00	7	Dirección del viento	1.61
72479	7	Sololá	717	San Juan la Laguna	12	San Juan la Laguna	8	Agosto	2023-08-19T00:00:00	2024-11-08T21:00:00	1	Precipitación	0
72480	7	Sololá	717	San Juan la Laguna	12	San Juan la Laguna	8	Agosto	2023-08-19T00:00:00	2024-11-08T21:00:00	8	Radiación solar	0
72481	7	Sololá	717	San Juan la Laguna	12	San Juan la Laguna	8	Agosto	2023-08-19T00:00:00	2024-11-08T22:00:00	2	Temperatura media	19.9
72482	7	Sololá	717	San Juan la Laguna	12	San Juan la Laguna	8	Agosto	2023-08-19T00:00:00	2024-11-08T22:00:00	4	Temperatura máxima	20.3
72483	7	Sololá	717	San Juan la Laguna	12	San Juan la Laguna	8	Agosto	2023-08-19T00:00:00	2024-11-08T22:00:00	3	Temperatura mínima	19.8
72484	7	Sololá	717	San Juan la Laguna	12	San Juan la Laguna	8	Agosto	2023-08-19T00:00:00	2024-11-08T22:00:00	5	Humedad	67
72485	7	Sololá	717	San Juan la Laguna	12	San Juan la Laguna	8	Agosto	2023-08-19T00:00:00	2024-11-08T22:00:00	6	Velocidad del viento	3.2
72486	7	Sololá	717	San Juan la Laguna	12	San Juan la Laguna	8	Agosto	2023-08-19T00:00:00	2024-11-08T22:00:00	7	Dirección del viento	3.22
72487	7	Sololá	717	San Juan la Laguna	12	San Juan la Laguna	8	Agosto	2023-08-19T00:00:00	2024-11-08T22:00:00	1	Precipitación	0
72488	7	Sololá	717	San Juan la Laguna	12	San Juan la Laguna	8	Agosto	2023-08-19T00:00:00	2024-11-08T22:00:00	8	Radiación solar	0
72489	7	Sololá	717	San Juan la Laguna	12	San Juan la Laguna	8	Agosto	2023-08-19T00:00:00	2024-11-08T23:00:00	2	Temperatura media	19.7
72490	7	Sololá	717	San Juan la Laguna	12	San Juan la Laguna	8	Agosto	2023-08-19T00:00:00	2024-11-08T23:00:00	4	Temperatura máxima	20.2
72491	7	Sololá	717	San Juan la Laguna	12	San Juan la Laguna	8	Agosto	2023-08-19T00:00:00	2024-11-08T23:00:00	3	Temperatura mínima	19.6
72492	7	Sololá	717	San Juan la Laguna	12	San Juan la Laguna	8	Agosto	2023-08-19T00:00:00	2024-11-08T23:00:00	5	Humedad	66
72493	7	Sololá	717	San Juan la Laguna	12	San Juan la Laguna	8	Agosto	2023-08-19T00:00:00	2024-11-08T23:00:00	6	Velocidad del viento	9.7
72494	7	Sololá	717	San Juan la Laguna	12	San Juan la Laguna	8	Agosto	2023-08-19T00:00:00	2024-11-08T23:00:00	7	Dirección del viento	9.66
72495	7	Sololá	717	San Juan la Laguna	12	San Juan la Laguna	8	Agosto	2023-08-19T00:00:00	2024-11-08T23:00:00	1	Precipitación	0
72496	7	Sololá	717	San Juan la Laguna	12	San Juan la Laguna	8	Agosto	2023-08-19T00:00:00	2024-11-08T23:00:00	8	Radiación solar	0
72497	7	Sololá	717	San Juan la Laguna	12	San Juan la Laguna	8	Agosto	2023-08-20T00:00:00	2024-11-08T00:00:00	2	Temperatura media	19.8
72498	7	Sololá	717	San Juan la Laguna	12	San Juan la Laguna	8	Agosto	2023-08-20T00:00:00	2024-11-08T00:00:00	4	Temperatura máxima	19.8
72499	7	Sololá	717	San Juan la Laguna	12	San Juan la Laguna	8	Agosto	2023-08-20T00:00:00	2024-11-08T00:00:00	3	Temperatura mínima	19.6
72500	7	Sololá	717	San Juan la Laguna	12	San Juan la Laguna	8	Agosto	2023-08-20T00:00:00	2024-11-08T00:00:00	5	Humedad	61
72501	7	Sololá	717	San Juan la Laguna	12	San Juan la Laguna	8	Agosto	2023-08-20T00:00:00	2024-11-08T00:00:00	6	Velocidad del viento	11.3
72502	7	Sololá	717	San Juan la Laguna	12	San Juan la Laguna	8	Agosto	2023-08-20T00:00:00	2024-11-08T00:00:00	7	Dirección del viento	11.27
72503	7	Sololá	717	San Juan la Laguna	12	San Juan la Laguna	8	Agosto	2023-08-20T00:00:00	2024-11-08T00:00:00	1	Precipitación	0
72504	7	Sololá	717	San Juan la Laguna	12	San Juan la Laguna	8	Agosto	2023-08-20T00:00:00	2024-11-08T00:00:00	8	Radiación solar	0
72505	7	Sololá	717	San Juan la Laguna	12	San Juan la Laguna	8	Agosto	2023-08-20T00:00:00	2024-11-08T01:00:00	2	Temperatura media	19.4
72506	7	Sololá	717	San Juan la Laguna	12	San Juan la Laguna	8	Agosto	2023-08-20T00:00:00	2024-11-08T01:00:00	4	Temperatura máxima	19.8
72507	7	Sololá	717	San Juan la Laguna	12	San Juan la Laguna	8	Agosto	2023-08-20T00:00:00	2024-11-08T01:00:00	3	Temperatura mínima	19.4
72508	7	Sololá	717	San Juan la Laguna	12	San Juan la Laguna	8	Agosto	2023-08-20T00:00:00	2024-11-08T01:00:00	5	Humedad	63
72509	7	Sololá	717	San Juan la Laguna	12	San Juan la Laguna	8	Agosto	2023-08-20T00:00:00	2024-11-08T01:00:00	6	Velocidad del viento	9.7
72510	7	Sololá	717	San Juan la Laguna	12	San Juan la Laguna	8	Agosto	2023-08-20T00:00:00	2024-11-08T01:00:00	7	Dirección del viento	9.66
72511	7	Sololá	717	San Juan la Laguna	12	San Juan la Laguna	8	Agosto	2023-08-20T00:00:00	2024-11-08T01:00:00	1	Precipitación	0
72512	7	Sololá	717	San Juan la Laguna	12	San Juan la Laguna	8	Agosto	2023-08-20T00:00:00	2024-11-08T01:00:00	8	Radiación solar	0
72513	7	Sololá	717	San Juan la Laguna	12	San Juan la Laguna	8	Agosto	2023-08-20T00:00:00	2024-11-08T02:00:00	2	Temperatura media	19
72514	7	Sololá	717	San Juan la Laguna	12	San Juan la Laguna	8	Agosto	2023-08-20T00:00:00	2024-11-08T02:00:00	4	Temperatura máxima	19.4
72515	7	Sololá	717	San Juan la Laguna	12	San Juan la Laguna	8	Agosto	2023-08-20T00:00:00	2024-11-08T02:00:00	3	Temperatura mínima	19
72516	7	Sololá	717	San Juan la Laguna	12	San Juan la Laguna	8	Agosto	2023-08-20T00:00:00	2024-11-08T02:00:00	5	Humedad	64
72517	7	Sololá	717	San Juan la Laguna	12	San Juan la Laguna	8	Agosto	2023-08-20T00:00:00	2024-11-08T02:00:00	6	Velocidad del viento	3.2
72518	7	Sololá	717	San Juan la Laguna	12	San Juan la Laguna	8	Agosto	2023-08-20T00:00:00	2024-11-08T02:00:00	7	Dirección del viento	3.22
72519	7	Sololá	717	San Juan la Laguna	12	San Juan la Laguna	8	Agosto	2023-08-20T00:00:00	2024-11-08T02:00:00	1	Precipitación	0
72520	7	Sololá	717	San Juan la Laguna	12	San Juan la Laguna	8	Agosto	2023-08-20T00:00:00	2024-11-08T02:00:00	8	Radiación solar	0
72521	7	Sololá	717	San Juan la Laguna	12	San Juan la Laguna	8	Agosto	2023-08-20T00:00:00	2024-11-08T03:00:00	2	Temperatura media	16.8
72522	7	Sololá	717	San Juan la Laguna	12	San Juan la Laguna	8	Agosto	2023-08-20T00:00:00	2024-11-08T03:00:00	4	Temperatura máxima	19.1
72523	7	Sololá	717	San Juan la Laguna	12	San Juan la Laguna	8	Agosto	2023-08-20T00:00:00	2024-11-08T03:00:00	3	Temperatura mínima	16.8
72524	7	Sololá	717	San Juan la Laguna	12	San Juan la Laguna	8	Agosto	2023-08-20T00:00:00	2024-11-08T03:00:00	5	Humedad	72
72525	7	Sololá	717	San Juan la Laguna	12	San Juan la Laguna	8	Agosto	2023-08-20T00:00:00	2024-11-08T03:00:00	6	Velocidad del viento	0
72526	7	Sololá	717	San Juan la Laguna	12	San Juan la Laguna	8	Agosto	2023-08-20T00:00:00	2024-11-08T03:00:00	7	Dirección del viento	0
72527	7	Sololá	717	San Juan la Laguna	12	San Juan la Laguna	8	Agosto	2023-08-20T00:00:00	2024-11-08T03:00:00	1	Precipitación	0
72528	7	Sololá	717	San Juan la Laguna	12	San Juan la Laguna	8	Agosto	2023-08-20T00:00:00	2024-11-08T03:00:00	8	Radiación solar	0
72529	7	Sololá	717	San Juan la Laguna	12	San Juan la Laguna	8	Agosto	2023-08-20T00:00:00	2024-11-08T04:00:00	2	Temperatura media	15.6
72530	7	Sololá	717	San Juan la Laguna	12	San Juan la Laguna	8	Agosto	2023-08-20T00:00:00	2024-11-08T04:00:00	4	Temperatura máxima	16.9
72531	7	Sololá	717	San Juan la Laguna	12	San Juan la Laguna	8	Agosto	2023-08-20T00:00:00	2024-11-08T04:00:00	3	Temperatura mínima	15.6
72532	7	Sololá	717	San Juan la Laguna	12	San Juan la Laguna	8	Agosto	2023-08-20T00:00:00	2024-11-08T04:00:00	5	Humedad	73
72533	7	Sololá	717	San Juan la Laguna	12	San Juan la Laguna	8	Agosto	2023-08-20T00:00:00	2024-11-08T04:00:00	6	Velocidad del viento	0
72534	7	Sololá	717	San Juan la Laguna	12	San Juan la Laguna	8	Agosto	2023-08-20T00:00:00	2024-11-08T04:00:00	7	Dirección del viento	0
72535	7	Sololá	717	San Juan la Laguna	12	San Juan la Laguna	8	Agosto	2023-08-20T00:00:00	2024-11-08T04:00:00	1	Precipitación	0
72536	7	Sololá	717	San Juan la Laguna	12	San Juan la Laguna	8	Agosto	2023-08-20T00:00:00	2024-11-08T04:00:00	8	Radiación solar	0
72537	7	Sololá	717	San Juan la Laguna	12	San Juan la Laguna	8	Agosto	2023-08-20T00:00:00	2024-11-08T05:00:00	2	Temperatura media	16.9
72538	7	Sololá	717	San Juan la Laguna	12	San Juan la Laguna	8	Agosto	2023-08-20T00:00:00	2024-11-08T05:00:00	4	Temperatura máxima	17.7
72539	7	Sololá	717	San Juan la Laguna	12	San Juan la Laguna	8	Agosto	2023-08-20T00:00:00	2024-11-08T05:00:00	3	Temperatura mínima	15.3
72540	7	Sololá	717	San Juan la Laguna	12	San Juan la Laguna	8	Agosto	2023-08-20T00:00:00	2024-11-08T05:00:00	5	Humedad	66
72541	7	Sololá	717	San Juan la Laguna	12	San Juan la Laguna	8	Agosto	2023-08-20T00:00:00	2024-11-08T05:00:00	6	Velocidad del viento	0
72542	7	Sololá	717	San Juan la Laguna	12	San Juan la Laguna	8	Agosto	2023-08-20T00:00:00	2024-11-08T05:00:00	7	Dirección del viento	0
72543	7	Sololá	717	San Juan la Laguna	12	San Juan la Laguna	8	Agosto	2023-08-20T00:00:00	2024-11-08T05:00:00	1	Precipitación	0
72544	7	Sololá	717	San Juan la Laguna	12	San Juan la Laguna	8	Agosto	2023-08-20T00:00:00	2024-11-08T05:00:00	8	Radiación solar	0
72545	7	Sololá	717	San Juan la Laguna	12	San Juan la Laguna	8	Agosto	2023-08-20T00:00:00	2024-11-08T06:00:00	2	Temperatura media	14.9
72546	7	Sololá	717	San Juan la Laguna	12	San Juan la Laguna	8	Agosto	2023-08-20T00:00:00	2024-11-08T06:00:00	4	Temperatura máxima	16.9
72547	7	Sololá	717	San Juan la Laguna	12	San Juan la Laguna	8	Agosto	2023-08-20T00:00:00	2024-11-08T06:00:00	3	Temperatura mínima	14.9
72548	7	Sololá	717	San Juan la Laguna	12	San Juan la Laguna	8	Agosto	2023-08-20T00:00:00	2024-11-08T06:00:00	5	Humedad	75
72549	7	Sololá	717	San Juan la Laguna	12	San Juan la Laguna	8	Agosto	2023-08-20T00:00:00	2024-11-08T06:00:00	6	Velocidad del viento	0
72550	7	Sololá	717	San Juan la Laguna	12	San Juan la Laguna	8	Agosto	2023-08-20T00:00:00	2024-11-08T06:00:00	7	Dirección del viento	0
72551	7	Sololá	717	San Juan la Laguna	12	San Juan la Laguna	8	Agosto	2023-08-20T00:00:00	2024-11-08T06:00:00	1	Precipitación	0
72552	7	Sololá	717	San Juan la Laguna	12	San Juan la Laguna	8	Agosto	2023-08-20T00:00:00	2024-11-08T06:00:00	8	Radiación solar	1
72553	7	Sololá	717	San Juan la Laguna	12	San Juan la Laguna	8	Agosto	2023-08-20T00:00:00	2024-11-08T07:00:00	2	Temperatura media	17.6
72554	7	Sololá	717	San Juan la Laguna	12	San Juan la Laguna	8	Agosto	2023-08-20T00:00:00	2024-11-08T07:00:00	4	Temperatura máxima	17.6
72555	7	Sololá	717	San Juan la Laguna	12	San Juan la Laguna	8	Agosto	2023-08-20T00:00:00	2024-11-08T07:00:00	3	Temperatura mínima	14.8
72556	7	Sololá	717	San Juan la Laguna	12	San Juan la Laguna	8	Agosto	2023-08-20T00:00:00	2024-11-08T07:00:00	5	Humedad	70
72557	7	Sololá	717	San Juan la Laguna	12	San Juan la Laguna	8	Agosto	2023-08-20T00:00:00	2024-11-08T07:00:00	6	Velocidad del viento	0
72558	7	Sololá	717	San Juan la Laguna	12	San Juan la Laguna	8	Agosto	2023-08-20T00:00:00	2024-11-08T07:00:00	7	Dirección del viento	0
72559	7	Sololá	717	San Juan la Laguna	12	San Juan la Laguna	8	Agosto	2023-08-20T00:00:00	2024-11-08T07:00:00	1	Precipitación	0
72560	7	Sololá	717	San Juan la Laguna	12	San Juan la Laguna	8	Agosto	2023-08-20T00:00:00	2024-11-08T07:00:00	8	Radiación solar	74
72561	7	Sololá	717	San Juan la Laguna	12	San Juan la Laguna	8	Agosto	2023-08-20T00:00:00	2024-11-08T08:00:00	2	Temperatura media	21.9
72562	7	Sololá	717	San Juan la Laguna	12	San Juan la Laguna	8	Agosto	2023-08-20T00:00:00	2024-11-08T08:00:00	4	Temperatura máxima	21.9
72563	7	Sololá	717	San Juan la Laguna	12	San Juan la Laguna	8	Agosto	2023-08-20T00:00:00	2024-11-08T08:00:00	3	Temperatura mínima	17.7
72564	7	Sololá	717	San Juan la Laguna	12	San Juan la Laguna	8	Agosto	2023-08-20T00:00:00	2024-11-08T08:00:00	5	Humedad	51
72565	7	Sololá	717	San Juan la Laguna	12	San Juan la Laguna	8	Agosto	2023-08-20T00:00:00	2024-11-08T08:00:00	6	Velocidad del viento	0
72566	7	Sololá	717	San Juan la Laguna	12	San Juan la Laguna	8	Agosto	2023-08-20T00:00:00	2024-11-08T08:00:00	7	Dirección del viento	0
72567	7	Sololá	717	San Juan la Laguna	12	San Juan la Laguna	8	Agosto	2023-08-20T00:00:00	2024-11-08T08:00:00	1	Precipitación	0
72568	7	Sololá	717	San Juan la Laguna	12	San Juan la Laguna	8	Agosto	2023-08-20T00:00:00	2024-11-08T08:00:00	8	Radiación solar	276
72569	7	Sololá	717	San Juan la Laguna	12	San Juan la Laguna	8	Agosto	2023-08-20T00:00:00	2024-11-08T09:00:00	2	Temperatura media	23.5
72570	7	Sololá	717	San Juan la Laguna	12	San Juan la Laguna	8	Agosto	2023-08-20T00:00:00	2024-11-08T09:00:00	4	Temperatura máxima	23.6
72571	7	Sololá	717	San Juan la Laguna	12	San Juan la Laguna	8	Agosto	2023-08-20T00:00:00	2024-11-08T09:00:00	3	Temperatura mínima	21.9
72572	7	Sololá	717	San Juan la Laguna	12	San Juan la Laguna	8	Agosto	2023-08-20T00:00:00	2024-11-08T09:00:00	5	Humedad	49
72573	7	Sololá	717	San Juan la Laguna	12	San Juan la Laguna	8	Agosto	2023-08-20T00:00:00	2024-11-08T09:00:00	6	Velocidad del viento	1.6
72574	7	Sololá	717	San Juan la Laguna	12	San Juan la Laguna	8	Agosto	2023-08-20T00:00:00	2024-11-08T09:00:00	7	Dirección del viento	1.61
72575	7	Sololá	717	San Juan la Laguna	12	San Juan la Laguna	8	Agosto	2023-08-20T00:00:00	2024-11-08T09:00:00	1	Precipitación	0
72576	7	Sololá	717	San Juan la Laguna	12	San Juan la Laguna	8	Agosto	2023-08-20T00:00:00	2024-11-08T09:00:00	8	Radiación solar	383
72577	7	Sololá	717	San Juan la Laguna	12	San Juan la Laguna	8	Agosto	2023-08-20T00:00:00	2024-11-08T10:00:00	2	Temperatura media	24.3
72578	7	Sololá	717	San Juan la Laguna	12	San Juan la Laguna	8	Agosto	2023-08-20T00:00:00	2024-11-08T10:00:00	4	Temperatura máxima	24.5
72579	7	Sololá	717	San Juan la Laguna	12	San Juan la Laguna	8	Agosto	2023-08-20T00:00:00	2024-11-08T10:00:00	3	Temperatura mínima	23.5
72580	7	Sololá	717	San Juan la Laguna	12	San Juan la Laguna	8	Agosto	2023-08-20T00:00:00	2024-11-08T10:00:00	5	Humedad	45
72581	7	Sololá	717	San Juan la Laguna	12	San Juan la Laguna	8	Agosto	2023-08-20T00:00:00	2024-11-08T10:00:00	6	Velocidad del viento	0
72582	7	Sololá	717	San Juan la Laguna	12	San Juan la Laguna	8	Agosto	2023-08-20T00:00:00	2024-11-08T10:00:00	7	Dirección del viento	0
72583	7	Sololá	717	San Juan la Laguna	12	San Juan la Laguna	8	Agosto	2023-08-20T00:00:00	2024-11-08T10:00:00	1	Precipitación	0
72584	7	Sololá	717	San Juan la Laguna	12	San Juan la Laguna	8	Agosto	2023-08-20T00:00:00	2024-11-08T10:00:00	8	Radiación solar	579
72585	7	Sololá	717	San Juan la Laguna	12	San Juan la Laguna	8	Agosto	2023-08-20T00:00:00	2024-11-08T11:00:00	2	Temperatura media	26.4
72586	7	Sololá	717	San Juan la Laguna	12	San Juan la Laguna	8	Agosto	2023-08-20T00:00:00	2024-11-08T11:00:00	4	Temperatura máxima	26.6
72587	7	Sololá	717	San Juan la Laguna	12	San Juan la Laguna	8	Agosto	2023-08-20T00:00:00	2024-11-08T11:00:00	3	Temperatura mínima	24.3
72588	7	Sololá	717	San Juan la Laguna	12	San Juan la Laguna	8	Agosto	2023-08-20T00:00:00	2024-11-08T11:00:00	5	Humedad	41
72589	7	Sololá	717	San Juan la Laguna	12	San Juan la Laguna	8	Agosto	2023-08-20T00:00:00	2024-11-08T11:00:00	6	Velocidad del viento	0
72590	7	Sololá	717	San Juan la Laguna	12	San Juan la Laguna	8	Agosto	2023-08-20T00:00:00	2024-11-08T11:00:00	7	Dirección del viento	0
72591	7	Sololá	717	San Juan la Laguna	12	San Juan la Laguna	8	Agosto	2023-08-20T00:00:00	2024-11-08T11:00:00	1	Precipitación	0
72592	7	Sololá	717	San Juan la Laguna	12	San Juan la Laguna	8	Agosto	2023-08-20T00:00:00	2024-11-08T11:00:00	8	Radiación solar	848
72593	7	Sololá	717	San Juan la Laguna	12	San Juan la Laguna	8	Agosto	2023-08-20T00:00:00	2024-11-08T12:00:00	2	Temperatura media	26.6
72594	7	Sololá	717	San Juan la Laguna	12	San Juan la Laguna	8	Agosto	2023-08-20T00:00:00	2024-11-08T12:00:00	4	Temperatura máxima	26.9
72595	7	Sololá	717	San Juan la Laguna	12	San Juan la Laguna	8	Agosto	2023-08-20T00:00:00	2024-11-08T12:00:00	3	Temperatura mínima	26.2
72596	7	Sololá	717	San Juan la Laguna	12	San Juan la Laguna	8	Agosto	2023-08-20T00:00:00	2024-11-08T12:00:00	5	Humedad	43
72597	7	Sololá	717	San Juan la Laguna	12	San Juan la Laguna	8	Agosto	2023-08-20T00:00:00	2024-11-08T12:00:00	6	Velocidad del viento	0
72598	7	Sololá	717	San Juan la Laguna	12	San Juan la Laguna	8	Agosto	2023-08-20T00:00:00	2024-11-08T12:00:00	7	Dirección del viento	0
72599	7	Sololá	717	San Juan la Laguna	12	San Juan la Laguna	8	Agosto	2023-08-20T00:00:00	2024-11-08T12:00:00	1	Precipitación	0
72600	7	Sololá	717	San Juan la Laguna	12	San Juan la Laguna	8	Agosto	2023-08-20T00:00:00	2024-11-08T12:00:00	8	Radiación solar	935
72601	7	Sololá	717	San Juan la Laguna	12	San Juan la Laguna	8	Agosto	2023-08-20T00:00:00	2024-11-08T13:00:00	2	Temperatura media	26.2
72602	7	Sololá	717	San Juan la Laguna	12	San Juan la Laguna	8	Agosto	2023-08-20T00:00:00	2024-11-08T13:00:00	4	Temperatura máxima	26.6
72603	7	Sololá	717	San Juan la Laguna	12	San Juan la Laguna	8	Agosto	2023-08-20T00:00:00	2024-11-08T13:00:00	3	Temperatura mínima	25.9
72604	7	Sololá	717	San Juan la Laguna	12	San Juan la Laguna	8	Agosto	2023-08-20T00:00:00	2024-11-08T13:00:00	5	Humedad	55
72605	7	Sololá	717	San Juan la Laguna	12	San Juan la Laguna	8	Agosto	2023-08-20T00:00:00	2024-11-08T13:00:00	6	Velocidad del viento	0
72606	7	Sololá	717	San Juan la Laguna	12	San Juan la Laguna	8	Agosto	2023-08-20T00:00:00	2024-11-08T13:00:00	7	Dirección del viento	0
72607	7	Sololá	717	San Juan la Laguna	12	San Juan la Laguna	8	Agosto	2023-08-20T00:00:00	2024-11-08T13:00:00	1	Precipitación	0
72608	7	Sololá	717	San Juan la Laguna	12	San Juan la Laguna	8	Agosto	2023-08-20T00:00:00	2024-11-08T13:00:00	8	Radiación solar	951
72609	7	Sololá	717	San Juan la Laguna	12	San Juan la Laguna	8	Agosto	2023-08-20T00:00:00	2024-11-08T14:00:00	2	Temperatura media	24.4
72610	7	Sololá	717	San Juan la Laguna	12	San Juan la Laguna	8	Agosto	2023-08-20T00:00:00	2024-11-08T14:00:00	4	Temperatura máxima	26.2
72611	7	Sololá	717	San Juan la Laguna	12	San Juan la Laguna	8	Agosto	2023-08-20T00:00:00	2024-11-08T14:00:00	3	Temperatura mínima	23.9
72612	7	Sololá	717	San Juan la Laguna	12	San Juan la Laguna	8	Agosto	2023-08-20T00:00:00	2024-11-08T14:00:00	5	Humedad	67
72613	7	Sololá	717	San Juan la Laguna	12	San Juan la Laguna	8	Agosto	2023-08-20T00:00:00	2024-11-08T14:00:00	6	Velocidad del viento	8
72614	7	Sololá	717	San Juan la Laguna	12	San Juan la Laguna	8	Agosto	2023-08-20T00:00:00	2024-11-08T14:00:00	7	Dirección del viento	8.05
72615	7	Sololá	717	San Juan la Laguna	12	San Juan la Laguna	8	Agosto	2023-08-20T00:00:00	2024-11-08T14:00:00	1	Precipitación	0
72616	7	Sololá	717	San Juan la Laguna	12	San Juan la Laguna	8	Agosto	2023-08-20T00:00:00	2024-11-08T14:00:00	8	Radiación solar	937
72617	7	Sololá	717	San Juan la Laguna	12	San Juan la Laguna	8	Agosto	2023-08-20T00:00:00	2024-11-08T15:00:00	2	Temperatura media	24.5
72618	7	Sololá	717	San Juan la Laguna	12	San Juan la Laguna	8	Agosto	2023-08-20T00:00:00	2024-11-08T15:00:00	4	Temperatura máxima	25
72619	7	Sololá	717	San Juan la Laguna	12	San Juan la Laguna	8	Agosto	2023-08-20T00:00:00	2024-11-08T15:00:00	3	Temperatura mínima	24.1
72620	7	Sololá	717	San Juan la Laguna	12	San Juan la Laguna	8	Agosto	2023-08-20T00:00:00	2024-11-08T15:00:00	5	Humedad	66
72621	7	Sololá	717	San Juan la Laguna	12	San Juan la Laguna	8	Agosto	2023-08-20T00:00:00	2024-11-08T15:00:00	6	Velocidad del viento	1.6
72622	7	Sololá	717	San Juan la Laguna	12	San Juan la Laguna	8	Agosto	2023-08-20T00:00:00	2024-11-08T15:00:00	7	Dirección del viento	1.61
72623	7	Sololá	717	San Juan la Laguna	12	San Juan la Laguna	8	Agosto	2023-08-20T00:00:00	2024-11-08T15:00:00	1	Precipitación	0
72624	7	Sololá	717	San Juan la Laguna	12	San Juan la Laguna	8	Agosto	2023-08-20T00:00:00	2024-11-08T15:00:00	8	Radiación solar	827
72625	7	Sololá	717	San Juan la Laguna	12	San Juan la Laguna	8	Agosto	2023-08-20T00:00:00	2024-11-08T16:00:00	2	Temperatura media	24.1
72626	7	Sololá	717	San Juan la Laguna	12	San Juan la Laguna	8	Agosto	2023-08-20T00:00:00	2024-11-08T16:00:00	4	Temperatura máxima	24.7
72627	7	Sololá	717	San Juan la Laguna	12	San Juan la Laguna	8	Agosto	2023-08-20T00:00:00	2024-11-08T16:00:00	3	Temperatura mínima	23.2
72628	7	Sololá	717	San Juan la Laguna	12	San Juan la Laguna	8	Agosto	2023-08-20T00:00:00	2024-11-08T16:00:00	5	Humedad	69
72629	7	Sololá	717	San Juan la Laguna	12	San Juan la Laguna	8	Agosto	2023-08-20T00:00:00	2024-11-08T16:00:00	6	Velocidad del viento	0
72630	7	Sololá	717	San Juan la Laguna	12	San Juan la Laguna	8	Agosto	2023-08-20T00:00:00	2024-11-08T16:00:00	7	Dirección del viento	0
72631	7	Sololá	717	San Juan la Laguna	12	San Juan la Laguna	8	Agosto	2023-08-20T00:00:00	2024-11-08T16:00:00	1	Precipitación	0
72632	7	Sololá	717	San Juan la Laguna	12	San Juan la Laguna	8	Agosto	2023-08-20T00:00:00	2024-11-08T16:00:00	8	Radiación solar	569
72633	7	Sololá	717	San Juan la Laguna	12	San Juan la Laguna	8	Agosto	2023-08-20T00:00:00	2024-11-08T17:00:00	2	Temperatura media	22.9
72634	7	Sololá	717	San Juan la Laguna	12	San Juan la Laguna	8	Agosto	2023-08-20T00:00:00	2024-11-08T17:00:00	4	Temperatura máxima	24.2
72635	7	Sololá	717	San Juan la Laguna	12	San Juan la Laguna	8	Agosto	2023-08-20T00:00:00	2024-11-08T17:00:00	3	Temperatura mínima	22.9
72636	7	Sololá	717	San Juan la Laguna	12	San Juan la Laguna	8	Agosto	2023-08-20T00:00:00	2024-11-08T17:00:00	5	Humedad	74
72637	7	Sololá	717	San Juan la Laguna	12	San Juan la Laguna	8	Agosto	2023-08-20T00:00:00	2024-11-08T17:00:00	6	Velocidad del viento	0
72638	7	Sololá	717	San Juan la Laguna	12	San Juan la Laguna	8	Agosto	2023-08-20T00:00:00	2024-11-08T17:00:00	7	Dirección del viento	0
72639	7	Sololá	717	San Juan la Laguna	12	San Juan la Laguna	8	Agosto	2023-08-20T00:00:00	2024-11-08T17:00:00	1	Precipitación	0
72640	7	Sololá	717	San Juan la Laguna	12	San Juan la Laguna	8	Agosto	2023-08-20T00:00:00	2024-11-08T17:00:00	8	Radiación solar	315
72641	7	Sololá	717	San Juan la Laguna	12	San Juan la Laguna	8	Agosto	2023-08-20T00:00:00	2024-11-08T18:00:00	2	Temperatura media	21.9
72642	7	Sololá	717	San Juan la Laguna	12	San Juan la Laguna	8	Agosto	2023-08-20T00:00:00	2024-11-08T18:00:00	4	Temperatura máxima	22.9
72643	7	Sololá	717	San Juan la Laguna	12	San Juan la Laguna	8	Agosto	2023-08-20T00:00:00	2024-11-08T18:00:00	3	Temperatura mínima	21.9
72644	7	Sololá	717	San Juan la Laguna	12	San Juan la Laguna	8	Agosto	2023-08-20T00:00:00	2024-11-08T18:00:00	5	Humedad	78
72645	7	Sololá	717	San Juan la Laguna	12	San Juan la Laguna	8	Agosto	2023-08-20T00:00:00	2024-11-08T18:00:00	6	Velocidad del viento	0
72646	7	Sololá	717	San Juan la Laguna	12	San Juan la Laguna	8	Agosto	2023-08-20T00:00:00	2024-11-08T18:00:00	7	Dirección del viento	0
72647	7	Sololá	717	San Juan la Laguna	12	San Juan la Laguna	8	Agosto	2023-08-20T00:00:00	2024-11-08T18:00:00	1	Precipitación	0
72648	7	Sololá	717	San Juan la Laguna	12	San Juan la Laguna	8	Agosto	2023-08-20T00:00:00	2024-11-08T18:00:00	8	Radiación solar	54
72649	7	Sololá	717	San Juan la Laguna	12	San Juan la Laguna	8	Agosto	2023-08-20T00:00:00	2024-11-08T19:00:00	2	Temperatura media	20.8
72650	7	Sololá	717	San Juan la Laguna	12	San Juan la Laguna	8	Agosto	2023-08-20T00:00:00	2024-11-08T19:00:00	4	Temperatura máxima	21.9
72651	7	Sololá	717	San Juan la Laguna	12	San Juan la Laguna	8	Agosto	2023-08-20T00:00:00	2024-11-08T19:00:00	3	Temperatura mínima	20.8
72652	7	Sololá	717	San Juan la Laguna	12	San Juan la Laguna	8	Agosto	2023-08-20T00:00:00	2024-11-08T19:00:00	5	Humedad	83
72653	7	Sololá	717	San Juan la Laguna	12	San Juan la Laguna	8	Agosto	2023-08-20T00:00:00	2024-11-08T19:00:00	6	Velocidad del viento	0
72654	7	Sololá	717	San Juan la Laguna	12	San Juan la Laguna	8	Agosto	2023-08-20T00:00:00	2024-11-08T19:00:00	7	Dirección del viento	0
72655	7	Sololá	717	San Juan la Laguna	12	San Juan la Laguna	8	Agosto	2023-08-20T00:00:00	2024-11-08T19:00:00	1	Precipitación	0
72656	7	Sololá	717	San Juan la Laguna	12	San Juan la Laguna	8	Agosto	2023-08-20T00:00:00	2024-11-08T19:00:00	8	Radiación solar	0
72657	7	Sololá	717	San Juan la Laguna	12	San Juan la Laguna	8	Agosto	2023-08-20T00:00:00	2024-11-08T20:00:00	2	Temperatura media	20.1
72658	7	Sololá	717	San Juan la Laguna	12	San Juan la Laguna	8	Agosto	2023-08-20T00:00:00	2024-11-08T20:00:00	4	Temperatura máxima	20.8
72659	7	Sololá	717	San Juan la Laguna	12	San Juan la Laguna	8	Agosto	2023-08-20T00:00:00	2024-11-08T20:00:00	3	Temperatura mínima	20
72660	7	Sololá	717	San Juan la Laguna	12	San Juan la Laguna	8	Agosto	2023-08-20T00:00:00	2024-11-08T20:00:00	5	Humedad	85
72661	7	Sololá	717	San Juan la Laguna	12	San Juan la Laguna	8	Agosto	2023-08-20T00:00:00	2024-11-08T20:00:00	6	Velocidad del viento	0
72662	7	Sololá	717	San Juan la Laguna	12	San Juan la Laguna	8	Agosto	2023-08-20T00:00:00	2024-11-08T20:00:00	7	Dirección del viento	0
72663	7	Sololá	717	San Juan la Laguna	12	San Juan la Laguna	8	Agosto	2023-08-20T00:00:00	2024-11-08T20:00:00	1	Precipitación	0
72664	7	Sololá	717	San Juan la Laguna	12	San Juan la Laguna	8	Agosto	2023-08-20T00:00:00	2024-11-08T20:00:00	8	Radiación solar	0
72665	7	Sololá	717	San Juan la Laguna	12	San Juan la Laguna	8	Agosto	2023-08-20T00:00:00	2024-11-08T21:00:00	2	Temperatura media	19.7
72666	7	Sololá	717	San Juan la Laguna	12	San Juan la Laguna	8	Agosto	2023-08-20T00:00:00	2024-11-08T21:00:00	4	Temperatura máxima	20.3
72667	7	Sololá	717	San Juan la Laguna	12	San Juan la Laguna	8	Agosto	2023-08-20T00:00:00	2024-11-08T21:00:00	3	Temperatura mínima	19.7
72668	7	Sololá	717	San Juan la Laguna	12	San Juan la Laguna	8	Agosto	2023-08-20T00:00:00	2024-11-08T21:00:00	5	Humedad	86
72669	7	Sololá	717	San Juan la Laguna	12	San Juan la Laguna	8	Agosto	2023-08-20T00:00:00	2024-11-08T21:00:00	6	Velocidad del viento	0
72670	7	Sololá	717	San Juan la Laguna	12	San Juan la Laguna	8	Agosto	2023-08-20T00:00:00	2024-11-08T21:00:00	7	Dirección del viento	0
72671	7	Sololá	717	San Juan la Laguna	12	San Juan la Laguna	8	Agosto	2023-08-20T00:00:00	2024-11-08T21:00:00	1	Precipitación	0
72672	7	Sololá	717	San Juan la Laguna	12	San Juan la Laguna	8	Agosto	2023-08-20T00:00:00	2024-11-08T21:00:00	8	Radiación solar	0
72673	7	Sololá	717	San Juan la Laguna	12	San Juan la Laguna	8	Agosto	2023-08-20T00:00:00	2024-11-08T22:00:00	2	Temperatura media	19
72674	7	Sololá	717	San Juan la Laguna	12	San Juan la Laguna	8	Agosto	2023-08-20T00:00:00	2024-11-08T22:00:00	4	Temperatura máxima	20.6
72675	7	Sololá	717	San Juan la Laguna	12	San Juan la Laguna	8	Agosto	2023-08-20T00:00:00	2024-11-08T22:00:00	3	Temperatura mínima	19
72676	7	Sololá	717	San Juan la Laguna	12	San Juan la Laguna	8	Agosto	2023-08-20T00:00:00	2024-11-08T22:00:00	5	Humedad	81
72677	7	Sololá	717	San Juan la Laguna	12	San Juan la Laguna	8	Agosto	2023-08-20T00:00:00	2024-11-08T22:00:00	6	Velocidad del viento	0
72678	7	Sololá	717	San Juan la Laguna	12	San Juan la Laguna	8	Agosto	2023-08-20T00:00:00	2024-11-08T22:00:00	7	Dirección del viento	0
72679	7	Sololá	717	San Juan la Laguna	12	San Juan la Laguna	8	Agosto	2023-08-20T00:00:00	2024-11-08T22:00:00	1	Precipitación	0
72680	7	Sololá	717	San Juan la Laguna	12	San Juan la Laguna	8	Agosto	2023-08-20T00:00:00	2024-11-08T22:00:00	8	Radiación solar	0
72681	7	Sololá	717	San Juan la Laguna	12	San Juan la Laguna	8	Agosto	2023-08-20T00:00:00	2024-11-08T23:00:00	2	Temperatura media	18.9
72682	7	Sololá	717	San Juan la Laguna	12	San Juan la Laguna	8	Agosto	2023-08-20T00:00:00	2024-11-08T23:00:00	4	Temperatura máxima	19.5
72683	7	Sololá	717	San Juan la Laguna	12	San Juan la Laguna	8	Agosto	2023-08-20T00:00:00	2024-11-08T23:00:00	3	Temperatura mínima	18.8
72684	7	Sololá	717	San Juan la Laguna	12	San Juan la Laguna	8	Agosto	2023-08-20T00:00:00	2024-11-08T23:00:00	5	Humedad	79
72685	7	Sololá	717	San Juan la Laguna	12	San Juan la Laguna	8	Agosto	2023-08-20T00:00:00	2024-11-08T23:00:00	6	Velocidad del viento	0
72686	7	Sololá	717	San Juan la Laguna	12	San Juan la Laguna	8	Agosto	2023-08-20T00:00:00	2024-11-08T23:00:00	7	Dirección del viento	0
72687	7	Sololá	717	San Juan la Laguna	12	San Juan la Laguna	8	Agosto	2023-08-20T00:00:00	2024-11-08T23:00:00	1	Precipitación	0
72688	7	Sololá	717	San Juan la Laguna	12	San Juan la Laguna	8	Agosto	2023-08-20T00:00:00	2024-11-08T23:00:00	8	Radiación solar	0
72689	7	Sololá	717	San Juan la Laguna	12	San Juan la Laguna	8	Agosto	2023-08-21T00:00:00	2024-11-08T00:00:00	2	Temperatura media	18.1
72690	7	Sololá	717	San Juan la Laguna	12	San Juan la Laguna	8	Agosto	2023-08-21T00:00:00	2024-11-08T00:00:00	4	Temperatura máxima	19.9
72691	7	Sololá	717	San Juan la Laguna	12	San Juan la Laguna	8	Agosto	2023-08-21T00:00:00	2024-11-08T00:00:00	3	Temperatura mínima	18.1
72692	7	Sololá	717	San Juan la Laguna	12	San Juan la Laguna	8	Agosto	2023-08-21T00:00:00	2024-11-08T00:00:00	5	Humedad	80
72693	7	Sololá	717	San Juan la Laguna	12	San Juan la Laguna	8	Agosto	2023-08-21T00:00:00	2024-11-08T00:00:00	6	Velocidad del viento	0
72694	7	Sololá	717	San Juan la Laguna	12	San Juan la Laguna	8	Agosto	2023-08-21T00:00:00	2024-11-08T00:00:00	7	Dirección del viento	0
72695	7	Sololá	717	San Juan la Laguna	12	San Juan la Laguna	8	Agosto	2023-08-21T00:00:00	2024-11-08T00:00:00	1	Precipitación	0
72696	7	Sololá	717	San Juan la Laguna	12	San Juan la Laguna	8	Agosto	2023-08-21T00:00:00	2024-11-08T00:00:00	8	Radiación solar	0
72697	7	Sololá	717	San Juan la Laguna	12	San Juan la Laguna	8	Agosto	2023-08-21T00:00:00	2024-11-08T01:00:00	2	Temperatura media	17.9
72698	7	Sololá	717	San Juan la Laguna	12	San Juan la Laguna	8	Agosto	2023-08-21T00:00:00	2024-11-08T01:00:00	4	Temperatura máxima	18.1
72699	7	Sololá	717	San Juan la Laguna	12	San Juan la Laguna	8	Agosto	2023-08-21T00:00:00	2024-11-08T01:00:00	3	Temperatura mínima	17.4
72700	7	Sololá	717	San Juan la Laguna	12	San Juan la Laguna	8	Agosto	2023-08-21T00:00:00	2024-11-08T01:00:00	5	Humedad	79
72701	7	Sololá	717	San Juan la Laguna	12	San Juan la Laguna	8	Agosto	2023-08-21T00:00:00	2024-11-08T01:00:00	6	Velocidad del viento	0
72702	7	Sololá	717	San Juan la Laguna	12	San Juan la Laguna	8	Agosto	2023-08-21T00:00:00	2024-11-08T01:00:00	7	Dirección del viento	0
72703	7	Sololá	717	San Juan la Laguna	12	San Juan la Laguna	8	Agosto	2023-08-21T00:00:00	2024-11-08T01:00:00	1	Precipitación	0
72704	7	Sololá	717	San Juan la Laguna	12	San Juan la Laguna	8	Agosto	2023-08-21T00:00:00	2024-11-08T01:00:00	8	Radiación solar	0
72705	7	Sololá	717	San Juan la Laguna	12	San Juan la Laguna	8	Agosto	2023-08-21T00:00:00	2024-11-08T02:00:00	2	Temperatura media	18.4
72706	7	Sololá	717	San Juan la Laguna	12	San Juan la Laguna	8	Agosto	2023-08-21T00:00:00	2024-11-08T02:00:00	4	Temperatura máxima	18.7
72707	7	Sololá	717	San Juan la Laguna	12	San Juan la Laguna	8	Agosto	2023-08-21T00:00:00	2024-11-08T02:00:00	3	Temperatura mínima	17.9
72708	7	Sololá	717	San Juan la Laguna	12	San Juan la Laguna	8	Agosto	2023-08-21T00:00:00	2024-11-08T02:00:00	5	Humedad	77
72709	7	Sololá	717	San Juan la Laguna	12	San Juan la Laguna	8	Agosto	2023-08-21T00:00:00	2024-11-08T02:00:00	6	Velocidad del viento	0
72710	7	Sololá	717	San Juan la Laguna	12	San Juan la Laguna	8	Agosto	2023-08-21T00:00:00	2024-11-08T02:00:00	7	Dirección del viento	0
72711	7	Sololá	717	San Juan la Laguna	12	San Juan la Laguna	8	Agosto	2023-08-21T00:00:00	2024-11-08T02:00:00	1	Precipitación	0
72712	7	Sololá	717	San Juan la Laguna	12	San Juan la Laguna	8	Agosto	2023-08-21T00:00:00	2024-11-08T02:00:00	8	Radiación solar	0
72713	7	Sololá	717	San Juan la Laguna	12	San Juan la Laguna	8	Agosto	2023-08-21T00:00:00	2024-11-08T03:00:00	2	Temperatura media	18.1
72714	7	Sololá	717	San Juan la Laguna	12	San Juan la Laguna	8	Agosto	2023-08-21T00:00:00	2024-11-08T03:00:00	4	Temperatura máxima	18.4
72715	7	Sololá	717	San Juan la Laguna	12	San Juan la Laguna	8	Agosto	2023-08-21T00:00:00	2024-11-08T03:00:00	3	Temperatura mínima	17.3
72716	7	Sololá	717	San Juan la Laguna	12	San Juan la Laguna	8	Agosto	2023-08-21T00:00:00	2024-11-08T03:00:00	5	Humedad	78
72717	7	Sololá	717	San Juan la Laguna	12	San Juan la Laguna	8	Agosto	2023-08-21T00:00:00	2024-11-08T03:00:00	6	Velocidad del viento	0
72718	7	Sololá	717	San Juan la Laguna	12	San Juan la Laguna	8	Agosto	2023-08-21T00:00:00	2024-11-08T03:00:00	7	Dirección del viento	0
72719	7	Sololá	717	San Juan la Laguna	12	San Juan la Laguna	8	Agosto	2023-08-21T00:00:00	2024-11-08T03:00:00	1	Precipitación	0
72720	7	Sololá	717	San Juan la Laguna	12	San Juan la Laguna	8	Agosto	2023-08-21T00:00:00	2024-11-08T03:00:00	8	Radiación solar	0
72721	7	Sololá	717	San Juan la Laguna	12	San Juan la Laguna	8	Agosto	2023-08-21T00:00:00	2024-11-08T04:00:00	2	Temperatura media	18.5
72722	7	Sololá	717	San Juan la Laguna	12	San Juan la Laguna	8	Agosto	2023-08-21T00:00:00	2024-11-08T04:00:00	4	Temperatura máxima	19.2
72723	7	Sololá	717	San Juan la Laguna	12	San Juan la Laguna	8	Agosto	2023-08-21T00:00:00	2024-11-08T04:00:00	3	Temperatura mínima	17.6
72724	7	Sololá	717	San Juan la Laguna	12	San Juan la Laguna	8	Agosto	2023-08-21T00:00:00	2024-11-08T04:00:00	5	Humedad	76
72725	7	Sololá	717	San Juan la Laguna	12	San Juan la Laguna	8	Agosto	2023-08-21T00:00:00	2024-11-08T04:00:00	6	Velocidad del viento	0
72726	7	Sololá	717	San Juan la Laguna	12	San Juan la Laguna	8	Agosto	2023-08-21T00:00:00	2024-11-08T04:00:00	7	Dirección del viento	0
72727	7	Sololá	717	San Juan la Laguna	12	San Juan la Laguna	8	Agosto	2023-08-21T00:00:00	2024-11-08T04:00:00	1	Precipitación	0
72728	7	Sololá	717	San Juan la Laguna	12	San Juan la Laguna	8	Agosto	2023-08-21T00:00:00	2024-11-08T04:00:00	8	Radiación solar	0
72729	7	Sololá	717	San Juan la Laguna	12	San Juan la Laguna	8	Agosto	2023-08-21T00:00:00	2024-11-08T05:00:00	2	Temperatura media	19.8
72730	7	Sololá	717	San Juan la Laguna	12	San Juan la Laguna	8	Agosto	2023-08-21T00:00:00	2024-11-08T05:00:00	4	Temperatura máxima	19.9
72731	7	Sololá	717	San Juan la Laguna	12	San Juan la Laguna	8	Agosto	2023-08-21T00:00:00	2024-11-08T05:00:00	3	Temperatura mínima	18.5
72732	7	Sololá	717	San Juan la Laguna	12	San Juan la Laguna	8	Agosto	2023-08-21T00:00:00	2024-11-08T05:00:00	5	Humedad	69
72733	7	Sololá	717	San Juan la Laguna	12	San Juan la Laguna	8	Agosto	2023-08-21T00:00:00	2024-11-08T05:00:00	6	Velocidad del viento	0
72734	7	Sololá	717	San Juan la Laguna	12	San Juan la Laguna	8	Agosto	2023-08-21T00:00:00	2024-11-08T05:00:00	7	Dirección del viento	0
72735	7	Sololá	717	San Juan la Laguna	12	San Juan la Laguna	8	Agosto	2023-08-21T00:00:00	2024-11-08T05:00:00	1	Precipitación	0
72736	7	Sololá	717	San Juan la Laguna	12	San Juan la Laguna	8	Agosto	2023-08-21T00:00:00	2024-11-08T05:00:00	8	Radiación solar	0
72737	7	Sololá	717	San Juan la Laguna	12	San Juan la Laguna	8	Agosto	2023-08-21T00:00:00	2024-11-08T06:00:00	2	Temperatura media	16.8
72738	7	Sololá	717	San Juan la Laguna	12	San Juan la Laguna	8	Agosto	2023-08-21T00:00:00	2024-11-08T06:00:00	4	Temperatura máxima	19.9
72739	7	Sololá	717	San Juan la Laguna	12	San Juan la Laguna	8	Agosto	2023-08-21T00:00:00	2024-11-08T06:00:00	3	Temperatura mínima	16.8
72740	7	Sololá	717	San Juan la Laguna	12	San Juan la Laguna	8	Agosto	2023-08-21T00:00:00	2024-11-08T06:00:00	5	Humedad	80
72741	7	Sololá	717	San Juan la Laguna	12	San Juan la Laguna	8	Agosto	2023-08-21T00:00:00	2024-11-08T06:00:00	6	Velocidad del viento	0
72742	7	Sololá	717	San Juan la Laguna	12	San Juan la Laguna	8	Agosto	2023-08-21T00:00:00	2024-11-08T06:00:00	7	Dirección del viento	0
72743	7	Sololá	717	San Juan la Laguna	12	San Juan la Laguna	8	Agosto	2023-08-21T00:00:00	2024-11-08T06:00:00	1	Precipitación	0
72744	7	Sololá	717	San Juan la Laguna	12	San Juan la Laguna	8	Agosto	2023-08-21T00:00:00	2024-11-08T06:00:00	8	Radiación solar	0
72745	7	Sololá	717	San Juan la Laguna	12	San Juan la Laguna	8	Agosto	2023-08-21T00:00:00	2024-11-08T07:00:00	2	Temperatura media	17.3
72746	7	Sololá	717	San Juan la Laguna	12	San Juan la Laguna	8	Agosto	2023-08-21T00:00:00	2024-11-08T07:00:00	4	Temperatura máxima	17.3
72747	7	Sololá	717	San Juan la Laguna	12	San Juan la Laguna	8	Agosto	2023-08-21T00:00:00	2024-11-08T07:00:00	3	Temperatura mínima	16.6
72748	7	Sololá	717	San Juan la Laguna	12	San Juan la Laguna	8	Agosto	2023-08-21T00:00:00	2024-11-08T07:00:00	5	Humedad	79
72749	7	Sololá	717	San Juan la Laguna	12	San Juan la Laguna	8	Agosto	2023-08-21T00:00:00	2024-11-08T07:00:00	6	Velocidad del viento	0
72750	7	Sololá	717	San Juan la Laguna	12	San Juan la Laguna	8	Agosto	2023-08-21T00:00:00	2024-11-08T07:00:00	7	Dirección del viento	0
72751	7	Sololá	717	San Juan la Laguna	12	San Juan la Laguna	8	Agosto	2023-08-21T00:00:00	2024-11-08T07:00:00	1	Precipitación	0
72752	7	Sololá	717	San Juan la Laguna	12	San Juan la Laguna	8	Agosto	2023-08-21T00:00:00	2024-11-08T07:00:00	8	Radiación solar	33
72753	7	Sololá	717	San Juan la Laguna	12	San Juan la Laguna	8	Agosto	2023-08-21T00:00:00	2024-11-08T08:00:00	2	Temperatura media	20.1
72754	7	Sololá	717	San Juan la Laguna	12	San Juan la Laguna	8	Agosto	2023-08-21T00:00:00	2024-11-08T08:00:00	4	Temperatura máxima	20.1
72755	7	Sololá	717	San Juan la Laguna	12	San Juan la Laguna	8	Agosto	2023-08-21T00:00:00	2024-11-08T08:00:00	3	Temperatura mínima	17.3
72756	7	Sololá	717	San Juan la Laguna	12	San Juan la Laguna	8	Agosto	2023-08-21T00:00:00	2024-11-08T08:00:00	5	Humedad	71
72757	7	Sololá	717	San Juan la Laguna	12	San Juan la Laguna	8	Agosto	2023-08-21T00:00:00	2024-11-08T08:00:00	6	Velocidad del viento	0
72758	7	Sololá	717	San Juan la Laguna	12	San Juan la Laguna	8	Agosto	2023-08-21T00:00:00	2024-11-08T08:00:00	7	Dirección del viento	0
72759	7	Sololá	717	San Juan la Laguna	12	San Juan la Laguna	8	Agosto	2023-08-21T00:00:00	2024-11-08T08:00:00	1	Precipitación	0
72760	7	Sololá	717	San Juan la Laguna	12	San Juan la Laguna	8	Agosto	2023-08-21T00:00:00	2024-11-08T08:00:00	8	Radiación solar	156
72761	7	Sololá	717	San Juan la Laguna	12	San Juan la Laguna	8	Agosto	2023-08-21T00:00:00	2024-11-08T09:00:00	2	Temperatura media	21.8
72762	7	Sololá	717	San Juan la Laguna	12	San Juan la Laguna	8	Agosto	2023-08-21T00:00:00	2024-11-08T09:00:00	4	Temperatura máxima	21.8
72763	7	Sololá	717	San Juan la Laguna	12	San Juan la Laguna	8	Agosto	2023-08-21T00:00:00	2024-11-08T09:00:00	3	Temperatura mínima	20.1
72764	7	Sololá	717	San Juan la Laguna	12	San Juan la Laguna	8	Agosto	2023-08-21T00:00:00	2024-11-08T09:00:00	5	Humedad	66
72765	7	Sololá	717	San Juan la Laguna	12	San Juan la Laguna	8	Agosto	2023-08-21T00:00:00	2024-11-08T09:00:00	6	Velocidad del viento	0
72766	7	Sololá	717	San Juan la Laguna	12	San Juan la Laguna	8	Agosto	2023-08-21T00:00:00	2024-11-08T09:00:00	7	Dirección del viento	0
72767	7	Sololá	717	San Juan la Laguna	12	San Juan la Laguna	8	Agosto	2023-08-21T00:00:00	2024-11-08T09:00:00	1	Precipitación	0
72768	7	Sololá	717	San Juan la Laguna	12	San Juan la Laguna	8	Agosto	2023-08-21T00:00:00	2024-11-08T09:00:00	8	Radiación solar	277
72769	7	Sololá	717	San Juan la Laguna	12	San Juan la Laguna	8	Agosto	2023-08-21T00:00:00	2024-11-08T10:00:00	2	Temperatura media	22.9
72770	7	Sololá	717	San Juan la Laguna	12	San Juan la Laguna	8	Agosto	2023-08-21T00:00:00	2024-11-08T10:00:00	4	Temperatura máxima	23.1
72771	7	Sololá	717	San Juan la Laguna	12	San Juan la Laguna	8	Agosto	2023-08-21T00:00:00	2024-11-08T10:00:00	3	Temperatura mínima	21.8
72772	7	Sololá	717	San Juan la Laguna	12	San Juan la Laguna	8	Agosto	2023-08-21T00:00:00	2024-11-08T10:00:00	5	Humedad	64
72773	7	Sololá	717	San Juan la Laguna	12	San Juan la Laguna	8	Agosto	2023-08-21T00:00:00	2024-11-08T10:00:00	6	Velocidad del viento	0
72774	7	Sololá	717	San Juan la Laguna	12	San Juan la Laguna	8	Agosto	2023-08-21T00:00:00	2024-11-08T10:00:00	7	Dirección del viento	0
72775	7	Sololá	717	San Juan la Laguna	12	San Juan la Laguna	8	Agosto	2023-08-21T00:00:00	2024-11-08T10:00:00	1	Precipitación	0
72776	7	Sololá	717	San Juan la Laguna	12	San Juan la Laguna	8	Agosto	2023-08-21T00:00:00	2024-11-08T10:00:00	8	Radiación solar	491
72777	7	Sololá	717	San Juan la Laguna	12	San Juan la Laguna	8	Agosto	2023-08-21T00:00:00	2024-11-08T11:00:00	2	Temperatura media	24.4
72778	7	Sololá	717	San Juan la Laguna	12	San Juan la Laguna	8	Agosto	2023-08-21T00:00:00	2024-11-08T11:00:00	4	Temperatura máxima	24.7
72779	7	Sololá	717	San Juan la Laguna	12	San Juan la Laguna	8	Agosto	2023-08-21T00:00:00	2024-11-08T11:00:00	3	Temperatura mínima	22.7
72780	7	Sololá	717	San Juan la Laguna	12	San Juan la Laguna	8	Agosto	2023-08-21T00:00:00	2024-11-08T11:00:00	5	Humedad	53
72781	7	Sololá	717	San Juan la Laguna	12	San Juan la Laguna	8	Agosto	2023-08-21T00:00:00	2024-11-08T11:00:00	6	Velocidad del viento	0
72782	7	Sololá	717	San Juan la Laguna	12	San Juan la Laguna	8	Agosto	2023-08-21T00:00:00	2024-11-08T11:00:00	7	Dirección del viento	0
72783	7	Sololá	717	San Juan la Laguna	12	San Juan la Laguna	8	Agosto	2023-08-21T00:00:00	2024-11-08T11:00:00	1	Precipitación	0
72784	7	Sololá	717	San Juan la Laguna	12	San Juan la Laguna	8	Agosto	2023-08-21T00:00:00	2024-11-08T11:00:00	8	Radiación solar	700
72785	7	Sololá	717	San Juan la Laguna	12	San Juan la Laguna	8	Agosto	2023-08-21T00:00:00	2024-11-08T12:00:00	2	Temperatura media	25.7
72786	7	Sololá	717	San Juan la Laguna	12	San Juan la Laguna	8	Agosto	2023-08-21T00:00:00	2024-11-08T12:00:00	4	Temperatura máxima	25.9
72787	7	Sololá	717	San Juan la Laguna	12	San Juan la Laguna	8	Agosto	2023-08-21T00:00:00	2024-11-08T12:00:00	3	Temperatura mínima	24.4
72788	7	Sololá	717	San Juan la Laguna	12	San Juan la Laguna	8	Agosto	2023-08-21T00:00:00	2024-11-08T12:00:00	5	Humedad	50
72789	7	Sololá	717	San Juan la Laguna	12	San Juan la Laguna	8	Agosto	2023-08-21T00:00:00	2024-11-08T12:00:00	6	Velocidad del viento	0
72790	7	Sololá	717	San Juan la Laguna	12	San Juan la Laguna	8	Agosto	2023-08-21T00:00:00	2024-11-08T12:00:00	7	Dirección del viento	0
72791	7	Sololá	717	San Juan la Laguna	12	San Juan la Laguna	8	Agosto	2023-08-21T00:00:00	2024-11-08T12:00:00	1	Precipitación	0
72792	7	Sololá	717	San Juan la Laguna	12	San Juan la Laguna	8	Agosto	2023-08-21T00:00:00	2024-11-08T12:00:00	8	Radiación solar	742
72793	7	Sololá	717	San Juan la Laguna	12	San Juan la Laguna	8	Agosto	2023-08-21T00:00:00	2024-11-08T13:00:00	2	Temperatura media	26
72794	7	Sololá	717	San Juan la Laguna	12	San Juan la Laguna	8	Agosto	2023-08-21T00:00:00	2024-11-08T13:00:00	4	Temperatura máxima	26.2
72795	7	Sololá	717	San Juan la Laguna	12	San Juan la Laguna	8	Agosto	2023-08-21T00:00:00	2024-11-08T13:00:00	3	Temperatura mínima	25.1
72796	7	Sololá	717	San Juan la Laguna	12	San Juan la Laguna	8	Agosto	2023-08-21T00:00:00	2024-11-08T13:00:00	5	Humedad	58
72797	7	Sololá	717	San Juan la Laguna	12	San Juan la Laguna	8	Agosto	2023-08-21T00:00:00	2024-11-08T13:00:00	6	Velocidad del viento	1.6
72798	7	Sololá	717	San Juan la Laguna	12	San Juan la Laguna	8	Agosto	2023-08-21T00:00:00	2024-11-08T13:00:00	7	Dirección del viento	1.61
72799	7	Sololá	717	San Juan la Laguna	12	San Juan la Laguna	8	Agosto	2023-08-21T00:00:00	2024-11-08T13:00:00	1	Precipitación	0
72800	7	Sololá	717	San Juan la Laguna	12	San Juan la Laguna	8	Agosto	2023-08-21T00:00:00	2024-11-08T13:00:00	8	Radiación solar	843
72801	7	Sololá	717	San Juan la Laguna	12	San Juan la Laguna	8	Agosto	2023-08-21T00:00:00	2024-11-08T14:00:00	2	Temperatura media	24.3
72802	7	Sololá	717	San Juan la Laguna	12	San Juan la Laguna	8	Agosto	2023-08-21T00:00:00	2024-11-08T14:00:00	4	Temperatura máxima	26.1
72803	7	Sololá	717	San Juan la Laguna	12	San Juan la Laguna	8	Agosto	2023-08-21T00:00:00	2024-11-08T14:00:00	3	Temperatura mínima	24.3
72804	7	Sololá	717	San Juan la Laguna	12	San Juan la Laguna	8	Agosto	2023-08-21T00:00:00	2024-11-08T14:00:00	5	Humedad	69
72805	7	Sololá	717	San Juan la Laguna	12	San Juan la Laguna	8	Agosto	2023-08-21T00:00:00	2024-11-08T14:00:00	6	Velocidad del viento	1.6
72806	7	Sololá	717	San Juan la Laguna	12	San Juan la Laguna	8	Agosto	2023-08-21T00:00:00	2024-11-08T14:00:00	7	Dirección del viento	1.61
72807	7	Sololá	717	San Juan la Laguna	12	San Juan la Laguna	8	Agosto	2023-08-21T00:00:00	2024-11-08T14:00:00	1	Precipitación	0
72808	7	Sololá	717	San Juan la Laguna	12	San Juan la Laguna	8	Agosto	2023-08-21T00:00:00	2024-11-08T14:00:00	8	Radiación solar	811
72809	7	Sololá	717	San Juan la Laguna	12	San Juan la Laguna	8	Agosto	2023-08-21T00:00:00	2024-11-08T15:00:00	2	Temperatura media	24
72810	7	Sololá	717	San Juan la Laguna	12	San Juan la Laguna	8	Agosto	2023-08-21T00:00:00	2024-11-08T15:00:00	4	Temperatura máxima	25.3
72811	7	Sololá	717	San Juan la Laguna	12	San Juan la Laguna	8	Agosto	2023-08-21T00:00:00	2024-11-08T15:00:00	3	Temperatura mínima	23.4
72812	7	Sololá	717	San Juan la Laguna	12	San Juan la Laguna	8	Agosto	2023-08-21T00:00:00	2024-11-08T15:00:00	5	Humedad	72
72813	7	Sololá	717	San Juan la Laguna	12	San Juan la Laguna	8	Agosto	2023-08-21T00:00:00	2024-11-08T15:00:00	6	Velocidad del viento	0
72814	7	Sololá	717	San Juan la Laguna	12	San Juan la Laguna	8	Agosto	2023-08-21T00:00:00	2024-11-08T15:00:00	7	Dirección del viento	0
72815	7	Sololá	717	San Juan la Laguna	12	San Juan la Laguna	8	Agosto	2023-08-21T00:00:00	2024-11-08T15:00:00	1	Precipitación	0
72816	7	Sololá	717	San Juan la Laguna	12	San Juan la Laguna	8	Agosto	2023-08-21T00:00:00	2024-11-08T15:00:00	8	Radiación solar	565
72817	7	Sololá	717	San Juan la Laguna	12	San Juan la Laguna	8	Agosto	2023-08-21T00:00:00	2024-11-08T16:00:00	2	Temperatura media	20.2
72818	7	Sololá	717	San Juan la Laguna	12	San Juan la Laguna	8	Agosto	2023-08-21T00:00:00	2024-11-08T16:00:00	4	Temperatura máxima	24.1
72819	7	Sololá	717	San Juan la Laguna	12	San Juan la Laguna	8	Agosto	2023-08-21T00:00:00	2024-11-08T16:00:00	3	Temperatura mínima	20.2
72820	7	Sololá	717	San Juan la Laguna	12	San Juan la Laguna	8	Agosto	2023-08-21T00:00:00	2024-11-08T16:00:00	5	Humedad	81
72821	7	Sololá	717	San Juan la Laguna	12	San Juan la Laguna	8	Agosto	2023-08-21T00:00:00	2024-11-08T16:00:00	6	Velocidad del viento	4.8
72822	7	Sololá	717	San Juan la Laguna	12	San Juan la Laguna	8	Agosto	2023-08-21T00:00:00	2024-11-08T16:00:00	7	Dirección del viento	4.83
72823	7	Sololá	717	San Juan la Laguna	12	San Juan la Laguna	8	Agosto	2023-08-21T00:00:00	2024-11-08T16:00:00	1	Precipitación	0
72824	7	Sololá	717	San Juan la Laguna	12	San Juan la Laguna	8	Agosto	2023-08-21T00:00:00	2024-11-08T16:00:00	8	Radiación solar	162
72825	7	Sololá	717	San Juan la Laguna	12	San Juan la Laguna	8	Agosto	2023-08-21T00:00:00	2024-11-08T17:00:00	2	Temperatura media	19.7
72826	7	Sololá	717	San Juan la Laguna	12	San Juan la Laguna	8	Agosto	2023-08-21T00:00:00	2024-11-08T17:00:00	4	Temperatura máxima	20.2
72827	7	Sololá	717	San Juan la Laguna	12	San Juan la Laguna	8	Agosto	2023-08-21T00:00:00	2024-11-08T17:00:00	3	Temperatura mínima	19.3
72828	7	Sololá	717	San Juan la Laguna	12	San Juan la Laguna	8	Agosto	2023-08-21T00:00:00	2024-11-08T17:00:00	5	Humedad	81
72829	7	Sololá	717	San Juan la Laguna	12	San Juan la Laguna	8	Agosto	2023-08-21T00:00:00	2024-11-08T17:00:00	6	Velocidad del viento	9.7
72830	7	Sololá	717	San Juan la Laguna	12	San Juan la Laguna	8	Agosto	2023-08-21T00:00:00	2024-11-08T17:00:00	7	Dirección del viento	9.66
72831	7	Sololá	717	San Juan la Laguna	12	San Juan la Laguna	8	Agosto	2023-08-21T00:00:00	2024-11-08T17:00:00	1	Precipitación	0
72832	7	Sololá	717	San Juan la Laguna	12	San Juan la Laguna	8	Agosto	2023-08-21T00:00:00	2024-11-08T17:00:00	8	Radiación solar	5
72833	7	Sololá	717	San Juan la Laguna	12	San Juan la Laguna	8	Agosto	2023-08-21T00:00:00	2024-11-08T18:00:00	2	Temperatura media	19.5
72834	7	Sololá	717	San Juan la Laguna	12	San Juan la Laguna	8	Agosto	2023-08-21T00:00:00	2024-11-08T18:00:00	4	Temperatura máxima	19.8
72835	7	Sololá	717	San Juan la Laguna	12	San Juan la Laguna	8	Agosto	2023-08-21T00:00:00	2024-11-08T18:00:00	3	Temperatura mínima	19.4
72836	7	Sololá	717	San Juan la Laguna	12	San Juan la Laguna	8	Agosto	2023-08-21T00:00:00	2024-11-08T18:00:00	5	Humedad	84
72837	7	Sololá	717	San Juan la Laguna	12	San Juan la Laguna	8	Agosto	2023-08-21T00:00:00	2024-11-08T18:00:00	6	Velocidad del viento	0
72838	7	Sololá	717	San Juan la Laguna	12	San Juan la Laguna	8	Agosto	2023-08-21T00:00:00	2024-11-08T18:00:00	7	Dirección del viento	0
72839	7	Sololá	717	San Juan la Laguna	12	San Juan la Laguna	8	Agosto	2023-08-21T00:00:00	2024-11-08T18:00:00	1	Precipitación	0
72840	7	Sololá	717	San Juan la Laguna	12	San Juan la Laguna	8	Agosto	2023-08-21T00:00:00	2024-11-08T18:00:00	8	Radiación solar	3
72841	7	Sololá	717	San Juan la Laguna	12	San Juan la Laguna	8	Agosto	2023-08-21T00:00:00	2024-11-08T19:00:00	2	Temperatura media	19
72842	7	Sololá	717	San Juan la Laguna	12	San Juan la Laguna	8	Agosto	2023-08-21T00:00:00	2024-11-08T19:00:00	4	Temperatura máxima	19.7
72843	7	Sololá	717	San Juan la Laguna	12	San Juan la Laguna	8	Agosto	2023-08-21T00:00:00	2024-11-08T19:00:00	3	Temperatura mínima	19
72844	7	Sololá	717	San Juan la Laguna	12	San Juan la Laguna	8	Agosto	2023-08-21T00:00:00	2024-11-08T19:00:00	5	Humedad	87
72845	7	Sololá	717	San Juan la Laguna	12	San Juan la Laguna	8	Agosto	2023-08-21T00:00:00	2024-11-08T19:00:00	6	Velocidad del viento	0
72846	7	Sololá	717	San Juan la Laguna	12	San Juan la Laguna	8	Agosto	2023-08-21T00:00:00	2024-11-08T19:00:00	7	Dirección del viento	0
72847	7	Sololá	717	San Juan la Laguna	12	San Juan la Laguna	8	Agosto	2023-08-21T00:00:00	2024-11-08T19:00:00	1	Precipitación	0
72848	7	Sololá	717	San Juan la Laguna	12	San Juan la Laguna	8	Agosto	2023-08-21T00:00:00	2024-11-08T19:00:00	8	Radiación solar	0
72849	7	Sololá	717	San Juan la Laguna	12	San Juan la Laguna	8	Agosto	2023-08-21T00:00:00	2024-11-08T20:00:00	2	Temperatura media	18.8
72850	7	Sololá	717	San Juan la Laguna	12	San Juan la Laguna	8	Agosto	2023-08-21T00:00:00	2024-11-08T20:00:00	4	Temperatura máxima	19.2
72851	7	Sololá	717	San Juan la Laguna	12	San Juan la Laguna	8	Agosto	2023-08-21T00:00:00	2024-11-08T20:00:00	3	Temperatura mínima	18.7
72852	7	Sololá	717	San Juan la Laguna	12	San Juan la Laguna	8	Agosto	2023-08-21T00:00:00	2024-11-08T20:00:00	5	Humedad	88
72853	7	Sololá	717	San Juan la Laguna	12	San Juan la Laguna	8	Agosto	2023-08-21T00:00:00	2024-11-08T20:00:00	6	Velocidad del viento	0
72854	7	Sololá	717	San Juan la Laguna	12	San Juan la Laguna	8	Agosto	2023-08-21T00:00:00	2024-11-08T20:00:00	7	Dirección del viento	0
72855	7	Sololá	717	San Juan la Laguna	12	San Juan la Laguna	8	Agosto	2023-08-21T00:00:00	2024-11-08T20:00:00	1	Precipitación	0
72856	7	Sololá	717	San Juan la Laguna	12	San Juan la Laguna	8	Agosto	2023-08-21T00:00:00	2024-11-08T20:00:00	8	Radiación solar	0
72857	7	Sololá	717	San Juan la Laguna	12	San Juan la Laguna	8	Agosto	2023-08-21T00:00:00	2024-11-08T21:00:00	2	Temperatura media	18.8
72858	7	Sololá	717	San Juan la Laguna	12	San Juan la Laguna	8	Agosto	2023-08-21T00:00:00	2024-11-08T21:00:00	4	Temperatura máxima	19
72859	7	Sololá	717	San Juan la Laguna	12	San Juan la Laguna	8	Agosto	2023-08-21T00:00:00	2024-11-08T21:00:00	3	Temperatura mínima	18.6
72860	7	Sololá	717	San Juan la Laguna	12	San Juan la Laguna	8	Agosto	2023-08-21T00:00:00	2024-11-08T21:00:00	5	Humedad	87
72861	7	Sololá	717	San Juan la Laguna	12	San Juan la Laguna	8	Agosto	2023-08-21T00:00:00	2024-11-08T21:00:00	6	Velocidad del viento	0
72862	7	Sololá	717	San Juan la Laguna	12	San Juan la Laguna	8	Agosto	2023-08-21T00:00:00	2024-11-08T21:00:00	7	Dirección del viento	0
72863	7	Sololá	717	San Juan la Laguna	12	San Juan la Laguna	8	Agosto	2023-08-21T00:00:00	2024-11-08T21:00:00	1	Precipitación	0
72864	7	Sololá	717	San Juan la Laguna	12	San Juan la Laguna	8	Agosto	2023-08-21T00:00:00	2024-11-08T21:00:00	8	Radiación solar	0
72865	7	Sololá	717	San Juan la Laguna	12	San Juan la Laguna	8	Agosto	2023-08-21T00:00:00	2024-11-08T22:00:00	2	Temperatura media	18.3
72866	7	Sololá	717	San Juan la Laguna	12	San Juan la Laguna	8	Agosto	2023-08-21T00:00:00	2024-11-08T22:00:00	4	Temperatura máxima	19.1
72867	7	Sololá	717	San Juan la Laguna	12	San Juan la Laguna	8	Agosto	2023-08-21T00:00:00	2024-11-08T22:00:00	3	Temperatura mínima	18.3
72868	7	Sololá	717	San Juan la Laguna	12	San Juan la Laguna	8	Agosto	2023-08-21T00:00:00	2024-11-08T22:00:00	5	Humedad	88
72869	7	Sololá	717	San Juan la Laguna	12	San Juan la Laguna	8	Agosto	2023-08-21T00:00:00	2024-11-08T22:00:00	6	Velocidad del viento	0
72870	7	Sololá	717	San Juan la Laguna	12	San Juan la Laguna	8	Agosto	2023-08-21T00:00:00	2024-11-08T22:00:00	7	Dirección del viento	0
72871	7	Sololá	717	San Juan la Laguna	12	San Juan la Laguna	8	Agosto	2023-08-21T00:00:00	2024-11-08T22:00:00	1	Precipitación	0
72872	7	Sololá	717	San Juan la Laguna	12	San Juan la Laguna	8	Agosto	2023-08-21T00:00:00	2024-11-08T22:00:00	8	Radiación solar	0
72873	7	Sololá	717	San Juan la Laguna	12	San Juan la Laguna	8	Agosto	2023-08-21T00:00:00	2024-11-08T23:00:00	2	Temperatura media	18.7
72874	7	Sololá	717	San Juan la Laguna	12	San Juan la Laguna	8	Agosto	2023-08-21T00:00:00	2024-11-08T23:00:00	4	Temperatura máxima	18.8
72875	7	Sololá	717	San Juan la Laguna	12	San Juan la Laguna	8	Agosto	2023-08-21T00:00:00	2024-11-08T23:00:00	3	Temperatura mínima	18.2
72876	7	Sololá	717	San Juan la Laguna	12	San Juan la Laguna	8	Agosto	2023-08-21T00:00:00	2024-11-08T23:00:00	5	Humedad	86
72877	7	Sololá	717	San Juan la Laguna	12	San Juan la Laguna	8	Agosto	2023-08-21T00:00:00	2024-11-08T23:00:00	6	Velocidad del viento	0
72878	7	Sololá	717	San Juan la Laguna	12	San Juan la Laguna	8	Agosto	2023-08-21T00:00:00	2024-11-08T23:00:00	7	Dirección del viento	0
72879	7	Sololá	717	San Juan la Laguna	12	San Juan la Laguna	8	Agosto	2023-08-21T00:00:00	2024-11-08T23:00:00	1	Precipitación	0
72880	7	Sololá	717	San Juan la Laguna	12	San Juan la Laguna	8	Agosto	2023-08-21T00:00:00	2024-11-08T23:00:00	8	Radiación solar	0
72881	7	Sololá	717	San Juan la Laguna	12	San Juan la Laguna	8	Agosto	2023-08-22T00:00:00	2024-11-08T00:00:00	2	Temperatura media	17.7
72882	7	Sololá	717	San Juan la Laguna	12	San Juan la Laguna	8	Agosto	2023-08-22T00:00:00	2024-11-08T00:00:00	4	Temperatura máxima	18.6
72883	7	Sololá	717	San Juan la Laguna	12	San Juan la Laguna	8	Agosto	2023-08-22T00:00:00	2024-11-08T00:00:00	3	Temperatura mínima	17.6
72884	7	Sololá	717	San Juan la Laguna	12	San Juan la Laguna	8	Agosto	2023-08-22T00:00:00	2024-11-08T00:00:00	5	Humedad	86
72885	7	Sololá	717	San Juan la Laguna	12	San Juan la Laguna	8	Agosto	2023-08-22T00:00:00	2024-11-08T00:00:00	6	Velocidad del viento	0
72886	7	Sololá	717	San Juan la Laguna	12	San Juan la Laguna	8	Agosto	2023-08-22T00:00:00	2024-11-08T00:00:00	7	Dirección del viento	0
72887	7	Sololá	717	San Juan la Laguna	12	San Juan la Laguna	8	Agosto	2023-08-22T00:00:00	2024-11-08T00:00:00	1	Precipitación	0
72888	7	Sololá	717	San Juan la Laguna	12	San Juan la Laguna	8	Agosto	2023-08-22T00:00:00	2024-11-08T00:00:00	8	Radiación solar	0
72889	7	Sololá	717	San Juan la Laguna	12	San Juan la Laguna	8	Agosto	2023-08-22T00:00:00	2024-11-08T01:00:00	2	Temperatura media	18.4
72890	7	Sololá	717	San Juan la Laguna	12	San Juan la Laguna	8	Agosto	2023-08-22T00:00:00	2024-11-08T01:00:00	4	Temperatura máxima	18.4
72891	7	Sololá	717	San Juan la Laguna	12	San Juan la Laguna	8	Agosto	2023-08-22T00:00:00	2024-11-08T01:00:00	3	Temperatura mínima	17.7
72892	7	Sololá	717	San Juan la Laguna	12	San Juan la Laguna	8	Agosto	2023-08-22T00:00:00	2024-11-08T01:00:00	5	Humedad	87
72893	7	Sololá	717	San Juan la Laguna	12	San Juan la Laguna	8	Agosto	2023-08-22T00:00:00	2024-11-08T01:00:00	6	Velocidad del viento	0
72894	7	Sololá	717	San Juan la Laguna	12	San Juan la Laguna	8	Agosto	2023-08-22T00:00:00	2024-11-08T01:00:00	7	Dirección del viento	0
72895	7	Sololá	717	San Juan la Laguna	12	San Juan la Laguna	8	Agosto	2023-08-22T00:00:00	2024-11-08T01:00:00	1	Precipitación	0
72896	7	Sololá	717	San Juan la Laguna	12	San Juan la Laguna	8	Agosto	2023-08-22T00:00:00	2024-11-08T01:00:00	8	Radiación solar	0
72897	7	Sololá	717	San Juan la Laguna	12	San Juan la Laguna	8	Agosto	2023-08-22T00:00:00	2024-11-08T02:00:00	2	Temperatura media	17.7
72898	7	Sololá	717	San Juan la Laguna	12	San Juan la Laguna	8	Agosto	2023-08-22T00:00:00	2024-11-08T02:00:00	4	Temperatura máxima	18.4
72899	7	Sololá	717	San Juan la Laguna	12	San Juan la Laguna	8	Agosto	2023-08-22T00:00:00	2024-11-08T02:00:00	3	Temperatura mínima	17.6
72900	7	Sololá	717	San Juan la Laguna	12	San Juan la Laguna	8	Agosto	2023-08-22T00:00:00	2024-11-08T02:00:00	5	Humedad	84
72901	7	Sololá	717	San Juan la Laguna	12	San Juan la Laguna	8	Agosto	2023-08-22T00:00:00	2024-11-08T02:00:00	6	Velocidad del viento	0
72902	7	Sololá	717	San Juan la Laguna	12	San Juan la Laguna	8	Agosto	2023-08-22T00:00:00	2024-11-08T02:00:00	7	Dirección del viento	0
72903	7	Sololá	717	San Juan la Laguna	12	San Juan la Laguna	8	Agosto	2023-08-22T00:00:00	2024-11-08T02:00:00	1	Precipitación	0
72904	7	Sololá	717	San Juan la Laguna	12	San Juan la Laguna	8	Agosto	2023-08-22T00:00:00	2024-11-08T02:00:00	8	Radiación solar	0
72905	7	Sololá	717	San Juan la Laguna	12	San Juan la Laguna	8	Agosto	2023-08-22T00:00:00	2024-11-08T03:00:00	2	Temperatura media	17.7
72906	7	Sololá	717	San Juan la Laguna	12	San Juan la Laguna	8	Agosto	2023-08-22T00:00:00	2024-11-08T03:00:00	4	Temperatura máxima	18.1
72907	7	Sololá	717	San Juan la Laguna	12	San Juan la Laguna	8	Agosto	2023-08-22T00:00:00	2024-11-08T03:00:00	3	Temperatura mínima	17.4
72908	7	Sololá	717	San Juan la Laguna	12	San Juan la Laguna	8	Agosto	2023-08-22T00:00:00	2024-11-08T03:00:00	5	Humedad	81
72909	7	Sololá	717	San Juan la Laguna	12	San Juan la Laguna	8	Agosto	2023-08-22T00:00:00	2024-11-08T03:00:00	6	Velocidad del viento	0
72910	7	Sololá	717	San Juan la Laguna	12	San Juan la Laguna	8	Agosto	2023-08-22T00:00:00	2024-11-08T03:00:00	7	Dirección del viento	0
72911	7	Sololá	717	San Juan la Laguna	12	San Juan la Laguna	8	Agosto	2023-08-22T00:00:00	2024-11-08T03:00:00	1	Precipitación	0
72912	7	Sololá	717	San Juan la Laguna	12	San Juan la Laguna	8	Agosto	2023-08-22T00:00:00	2024-11-08T03:00:00	8	Radiación solar	0
72913	7	Sololá	717	San Juan la Laguna	12	San Juan la Laguna	8	Agosto	2023-08-22T00:00:00	2024-11-08T04:00:00	2	Temperatura media	16.7
72914	7	Sololá	717	San Juan la Laguna	12	San Juan la Laguna	8	Agosto	2023-08-22T00:00:00	2024-11-08T04:00:00	4	Temperatura máxima	17.8
72915	7	Sololá	717	San Juan la Laguna	12	San Juan la Laguna	8	Agosto	2023-08-22T00:00:00	2024-11-08T04:00:00	3	Temperatura mínima	16.7
72916	7	Sololá	717	San Juan la Laguna	12	San Juan la Laguna	8	Agosto	2023-08-22T00:00:00	2024-11-08T04:00:00	5	Humedad	84
72917	7	Sololá	717	San Juan la Laguna	12	San Juan la Laguna	8	Agosto	2023-08-22T00:00:00	2024-11-08T04:00:00	6	Velocidad del viento	0
72918	7	Sololá	717	San Juan la Laguna	12	San Juan la Laguna	8	Agosto	2023-08-22T00:00:00	2024-11-08T04:00:00	7	Dirección del viento	0
72919	7	Sololá	717	San Juan la Laguna	12	San Juan la Laguna	8	Agosto	2023-08-22T00:00:00	2024-11-08T04:00:00	1	Precipitación	0
72920	7	Sololá	717	San Juan la Laguna	12	San Juan la Laguna	8	Agosto	2023-08-22T00:00:00	2024-11-08T04:00:00	8	Radiación solar	0
72921	7	Sololá	717	San Juan la Laguna	12	San Juan la Laguna	8	Agosto	2023-08-22T00:00:00	2024-11-08T05:00:00	2	Temperatura media	16.9
72922	7	Sololá	717	San Juan la Laguna	12	San Juan la Laguna	8	Agosto	2023-08-22T00:00:00	2024-11-08T05:00:00	4	Temperatura máxima	17.1
72923	7	Sololá	717	San Juan la Laguna	12	San Juan la Laguna	8	Agosto	2023-08-22T00:00:00	2024-11-08T05:00:00	3	Temperatura mínima	16.7
72924	7	Sololá	717	San Juan la Laguna	12	San Juan la Laguna	8	Agosto	2023-08-22T00:00:00	2024-11-08T05:00:00	5	Humedad	80
72925	7	Sololá	717	San Juan la Laguna	12	San Juan la Laguna	8	Agosto	2023-08-22T00:00:00	2024-11-08T05:00:00	6	Velocidad del viento	0
72926	7	Sololá	717	San Juan la Laguna	12	San Juan la Laguna	8	Agosto	2023-08-22T00:00:00	2024-11-08T05:00:00	7	Dirección del viento	0
72927	7	Sololá	717	San Juan la Laguna	12	San Juan la Laguna	8	Agosto	2023-08-22T00:00:00	2024-11-08T05:00:00	1	Precipitación	0
72928	7	Sololá	717	San Juan la Laguna	12	San Juan la Laguna	8	Agosto	2023-08-22T00:00:00	2024-11-08T05:00:00	8	Radiación solar	0
72929	7	Sololá	717	San Juan la Laguna	12	San Juan la Laguna	8	Agosto	2023-08-22T00:00:00	2024-11-08T06:00:00	2	Temperatura media	16.4
72930	7	Sololá	717	San Juan la Laguna	12	San Juan la Laguna	8	Agosto	2023-08-22T00:00:00	2024-11-08T06:00:00	4	Temperatura máxima	16.9
72931	7	Sololá	717	San Juan la Laguna	12	San Juan la Laguna	8	Agosto	2023-08-22T00:00:00	2024-11-08T06:00:00	3	Temperatura mínima	16.4
72932	7	Sololá	717	San Juan la Laguna	12	San Juan la Laguna	8	Agosto	2023-08-22T00:00:00	2024-11-08T06:00:00	5	Humedad	81
72933	7	Sololá	717	San Juan la Laguna	12	San Juan la Laguna	8	Agosto	2023-08-22T00:00:00	2024-11-08T06:00:00	6	Velocidad del viento	0
72934	7	Sololá	717	San Juan la Laguna	12	San Juan la Laguna	8	Agosto	2023-08-22T00:00:00	2024-11-08T06:00:00	7	Dirección del viento	0
72935	7	Sololá	717	San Juan la Laguna	12	San Juan la Laguna	8	Agosto	2023-08-22T00:00:00	2024-11-08T06:00:00	1	Precipitación	0
72936	7	Sololá	717	San Juan la Laguna	12	San Juan la Laguna	8	Agosto	2023-08-22T00:00:00	2024-11-08T06:00:00	8	Radiación solar	0
72937	7	Sololá	717	San Juan la Laguna	12	San Juan la Laguna	8	Agosto	2023-08-22T00:00:00	2024-11-08T07:00:00	2	Temperatura media	17.6
72938	7	Sololá	717	San Juan la Laguna	12	San Juan la Laguna	8	Agosto	2023-08-22T00:00:00	2024-11-08T07:00:00	4	Temperatura máxima	17.6
72939	7	Sololá	717	San Juan la Laguna	12	San Juan la Laguna	8	Agosto	2023-08-22T00:00:00	2024-11-08T07:00:00	3	Temperatura mínima	16.2
72940	7	Sololá	717	San Juan la Laguna	12	San Juan la Laguna	8	Agosto	2023-08-22T00:00:00	2024-11-08T07:00:00	5	Humedad	79
72941	7	Sololá	717	San Juan la Laguna	12	San Juan la Laguna	8	Agosto	2023-08-22T00:00:00	2024-11-08T07:00:00	6	Velocidad del viento	0
72942	7	Sololá	717	San Juan la Laguna	12	San Juan la Laguna	8	Agosto	2023-08-22T00:00:00	2024-11-08T07:00:00	7	Dirección del viento	0
72943	7	Sololá	717	San Juan la Laguna	12	San Juan la Laguna	8	Agosto	2023-08-22T00:00:00	2024-11-08T07:00:00	1	Precipitación	0
72944	7	Sololá	717	San Juan la Laguna	12	San Juan la Laguna	8	Agosto	2023-08-22T00:00:00	2024-11-08T07:00:00	8	Radiación solar	70
72945	7	Sololá	717	San Juan la Laguna	12	San Juan la Laguna	8	Agosto	2023-08-22T00:00:00	2024-11-08T08:00:00	2	Temperatura media	21.9
72946	7	Sololá	717	San Juan la Laguna	12	San Juan la Laguna	8	Agosto	2023-08-22T00:00:00	2024-11-08T08:00:00	4	Temperatura máxima	21.9
72947	7	Sololá	717	San Juan la Laguna	12	San Juan la Laguna	8	Agosto	2023-08-22T00:00:00	2024-11-08T08:00:00	3	Temperatura mínima	17.7
72948	7	Sololá	717	San Juan la Laguna	12	San Juan la Laguna	8	Agosto	2023-08-22T00:00:00	2024-11-08T08:00:00	5	Humedad	65
72949	7	Sololá	717	San Juan la Laguna	12	San Juan la Laguna	8	Agosto	2023-08-22T00:00:00	2024-11-08T08:00:00	6	Velocidad del viento	0
72950	7	Sololá	717	San Juan la Laguna	12	San Juan la Laguna	8	Agosto	2023-08-22T00:00:00	2024-11-08T08:00:00	7	Dirección del viento	0
72951	7	Sololá	717	San Juan la Laguna	12	San Juan la Laguna	8	Agosto	2023-08-22T00:00:00	2024-11-08T08:00:00	1	Precipitación	0
72952	7	Sololá	717	San Juan la Laguna	12	San Juan la Laguna	8	Agosto	2023-08-22T00:00:00	2024-11-08T08:00:00	8	Radiación solar	281
72953	7	Sololá	717	San Juan la Laguna	12	San Juan la Laguna	8	Agosto	2023-08-22T00:00:00	2024-11-08T09:00:00	2	Temperatura media	21.9
72954	7	Sololá	717	San Juan la Laguna	12	San Juan la Laguna	8	Agosto	2023-08-22T00:00:00	2024-11-08T09:00:00	4	Temperatura máxima	22.3
72955	7	Sololá	717	San Juan la Laguna	12	San Juan la Laguna	8	Agosto	2023-08-22T00:00:00	2024-11-08T09:00:00	3	Temperatura mínima	21.8
72956	7	Sololá	717	San Juan la Laguna	12	San Juan la Laguna	8	Agosto	2023-08-22T00:00:00	2024-11-08T09:00:00	5	Humedad	63
72957	7	Sololá	717	San Juan la Laguna	12	San Juan la Laguna	8	Agosto	2023-08-22T00:00:00	2024-11-08T09:00:00	6	Velocidad del viento	0
72958	7	Sololá	717	San Juan la Laguna	12	San Juan la Laguna	8	Agosto	2023-08-22T00:00:00	2024-11-08T09:00:00	7	Dirección del viento	0
72959	7	Sololá	717	San Juan la Laguna	12	San Juan la Laguna	8	Agosto	2023-08-22T00:00:00	2024-11-08T09:00:00	1	Precipitación	0
72960	7	Sololá	717	San Juan la Laguna	12	San Juan la Laguna	8	Agosto	2023-08-22T00:00:00	2024-11-08T09:00:00	8	Radiación solar	347
72961	7	Sololá	717	San Juan la Laguna	12	San Juan la Laguna	8	Agosto	2023-08-22T00:00:00	2024-11-08T10:00:00	2	Temperatura media	24.3
72962	7	Sololá	717	San Juan la Laguna	12	San Juan la Laguna	8	Agosto	2023-08-22T00:00:00	2024-11-08T10:00:00	4	Temperatura máxima	24.3
72963	7	Sololá	717	San Juan la Laguna	12	San Juan la Laguna	8	Agosto	2023-08-22T00:00:00	2024-11-08T10:00:00	3	Temperatura mínima	21.8
72964	7	Sololá	717	San Juan la Laguna	12	San Juan la Laguna	8	Agosto	2023-08-22T00:00:00	2024-11-08T10:00:00	5	Humedad	58
72965	7	Sololá	717	San Juan la Laguna	12	San Juan la Laguna	8	Agosto	2023-08-22T00:00:00	2024-11-08T10:00:00	6	Velocidad del viento	0
72966	7	Sololá	717	San Juan la Laguna	12	San Juan la Laguna	8	Agosto	2023-08-22T00:00:00	2024-11-08T10:00:00	7	Dirección del viento	0
72967	7	Sololá	717	San Juan la Laguna	12	San Juan la Laguna	8	Agosto	2023-08-22T00:00:00	2024-11-08T10:00:00	1	Precipitación	0
72968	7	Sololá	717	San Juan la Laguna	12	San Juan la Laguna	8	Agosto	2023-08-22T00:00:00	2024-11-08T10:00:00	8	Radiación solar	517
72969	7	Sololá	717	San Juan la Laguna	12	San Juan la Laguna	8	Agosto	2023-08-22T00:00:00	2024-11-08T11:00:00	2	Temperatura media	25.1
72970	7	Sololá	717	San Juan la Laguna	12	San Juan la Laguna	8	Agosto	2023-08-22T00:00:00	2024-11-08T11:00:00	4	Temperatura máxima	25.1
72971	7	Sololá	717	San Juan la Laguna	12	San Juan la Laguna	8	Agosto	2023-08-22T00:00:00	2024-11-08T11:00:00	3	Temperatura mínima	23.8
72972	7	Sololá	717	San Juan la Laguna	12	San Juan la Laguna	8	Agosto	2023-08-22T00:00:00	2024-11-08T11:00:00	5	Humedad	57
72973	7	Sololá	717	San Juan la Laguna	12	San Juan la Laguna	8	Agosto	2023-08-22T00:00:00	2024-11-08T11:00:00	6	Velocidad del viento	1.6
72974	7	Sololá	717	San Juan la Laguna	12	San Juan la Laguna	8	Agosto	2023-08-22T00:00:00	2024-11-08T11:00:00	7	Dirección del viento	1.61
72975	7	Sololá	717	San Juan la Laguna	12	San Juan la Laguna	8	Agosto	2023-08-22T00:00:00	2024-11-08T11:00:00	1	Precipitación	0
72976	7	Sololá	717	San Juan la Laguna	12	San Juan la Laguna	8	Agosto	2023-08-22T00:00:00	2024-11-08T11:00:00	8	Radiación solar	905
72977	7	Sololá	717	San Juan la Laguna	12	San Juan la Laguna	8	Agosto	2023-08-22T00:00:00	2024-11-08T12:00:00	2	Temperatura media	24.7
72978	7	Sololá	717	San Juan la Laguna	12	San Juan la Laguna	8	Agosto	2023-08-22T00:00:00	2024-11-08T12:00:00	4	Temperatura máxima	25.4
72979	7	Sololá	717	San Juan la Laguna	12	San Juan la Laguna	8	Agosto	2023-08-22T00:00:00	2024-11-08T12:00:00	3	Temperatura mínima	24.7
72980	7	Sololá	717	San Juan la Laguna	12	San Juan la Laguna	8	Agosto	2023-08-22T00:00:00	2024-11-08T12:00:00	5	Humedad	62
72981	7	Sololá	717	San Juan la Laguna	12	San Juan la Laguna	8	Agosto	2023-08-22T00:00:00	2024-11-08T12:00:00	6	Velocidad del viento	1.6
72982	7	Sololá	717	San Juan la Laguna	12	San Juan la Laguna	8	Agosto	2023-08-22T00:00:00	2024-11-08T12:00:00	7	Dirección del viento	1.61
72983	7	Sololá	717	San Juan la Laguna	12	San Juan la Laguna	8	Agosto	2023-08-22T00:00:00	2024-11-08T12:00:00	1	Precipitación	0
72984	7	Sololá	717	San Juan la Laguna	12	San Juan la Laguna	8	Agosto	2023-08-22T00:00:00	2024-11-08T12:00:00	8	Radiación solar	982
72985	7	Sololá	717	San Juan la Laguna	12	San Juan la Laguna	8	Agosto	2023-08-22T00:00:00	2024-11-08T13:00:00	2	Temperatura media	24.7
72986	7	Sololá	717	San Juan la Laguna	12	San Juan la Laguna	8	Agosto	2023-08-22T00:00:00	2024-11-08T13:00:00	4	Temperatura máxima	25.6
72987	7	Sololá	717	San Juan la Laguna	12	San Juan la Laguna	8	Agosto	2023-08-22T00:00:00	2024-11-08T13:00:00	3	Temperatura mínima	24.6
72988	7	Sololá	717	San Juan la Laguna	12	San Juan la Laguna	8	Agosto	2023-08-22T00:00:00	2024-11-08T13:00:00	5	Humedad	63
72989	7	Sololá	717	San Juan la Laguna	12	San Juan la Laguna	8	Agosto	2023-08-22T00:00:00	2024-11-08T13:00:00	6	Velocidad del viento	0
72990	7	Sololá	717	San Juan la Laguna	12	San Juan la Laguna	8	Agosto	2023-08-22T00:00:00	2024-11-08T13:00:00	7	Dirección del viento	0
72991	7	Sololá	717	San Juan la Laguna	12	San Juan la Laguna	8	Agosto	2023-08-22T00:00:00	2024-11-08T13:00:00	1	Precipitación	0
72992	7	Sololá	717	San Juan la Laguna	12	San Juan la Laguna	8	Agosto	2023-08-22T00:00:00	2024-11-08T13:00:00	8	Radiación solar	900
72993	7	Sololá	717	San Juan la Laguna	12	San Juan la Laguna	8	Agosto	2023-08-22T00:00:00	2024-11-08T14:00:00	2	Temperatura media	24
72994	7	Sololá	717	San Juan la Laguna	12	San Juan la Laguna	8	Agosto	2023-08-22T00:00:00	2024-11-08T14:00:00	4	Temperatura máxima	24.7
72995	7	Sololá	717	San Juan la Laguna	12	San Juan la Laguna	8	Agosto	2023-08-22T00:00:00	2024-11-08T14:00:00	3	Temperatura mínima	23.6
72996	7	Sololá	717	San Juan la Laguna	12	San Juan la Laguna	8	Agosto	2023-08-22T00:00:00	2024-11-08T14:00:00	5	Humedad	67
72997	7	Sololá	717	San Juan la Laguna	12	San Juan la Laguna	8	Agosto	2023-08-22T00:00:00	2024-11-08T14:00:00	6	Velocidad del viento	0
72998	7	Sololá	717	San Juan la Laguna	12	San Juan la Laguna	8	Agosto	2023-08-22T00:00:00	2024-11-08T14:00:00	7	Dirección del viento	0
72999	7	Sololá	717	San Juan la Laguna	12	San Juan la Laguna	8	Agosto	2023-08-22T00:00:00	2024-11-08T14:00:00	1	Precipitación	0
73000	7	Sololá	717	San Juan la Laguna	12	San Juan la Laguna	8	Agosto	2023-08-22T00:00:00	2024-11-08T14:00:00	8	Radiación solar	310
73001	7	Sololá	717	San Juan la Laguna	12	San Juan la Laguna	8	Agosto	2023-08-22T00:00:00	2024-11-08T15:00:00	2	Temperatura media	24.2
73002	7	Sololá	717	San Juan la Laguna	12	San Juan la Laguna	8	Agosto	2023-08-22T00:00:00	2024-11-08T15:00:00	4	Temperatura máxima	25.2
73003	7	Sololá	717	San Juan la Laguna	12	San Juan la Laguna	8	Agosto	2023-08-22T00:00:00	2024-11-08T15:00:00	3	Temperatura mínima	23.9
73004	7	Sololá	717	San Juan la Laguna	12	San Juan la Laguna	8	Agosto	2023-08-22T00:00:00	2024-11-08T15:00:00	5	Humedad	69
73005	7	Sololá	717	San Juan la Laguna	12	San Juan la Laguna	8	Agosto	2023-08-22T00:00:00	2024-11-08T15:00:00	6	Velocidad del viento	0
73006	7	Sololá	717	San Juan la Laguna	12	San Juan la Laguna	8	Agosto	2023-08-22T00:00:00	2024-11-08T15:00:00	7	Dirección del viento	0
73007	7	Sololá	717	San Juan la Laguna	12	San Juan la Laguna	8	Agosto	2023-08-22T00:00:00	2024-11-08T15:00:00	1	Precipitación	0
73008	7	Sololá	717	San Juan la Laguna	12	San Juan la Laguna	8	Agosto	2023-08-22T00:00:00	2024-11-08T15:00:00	8	Radiación solar	614
73009	7	Sololá	717	San Juan la Laguna	12	San Juan la Laguna	8	Agosto	2023-08-22T00:00:00	2024-11-08T16:00:00	2	Temperatura media	24.1
73010	7	Sololá	717	San Juan la Laguna	12	San Juan la Laguna	8	Agosto	2023-08-22T00:00:00	2024-11-08T16:00:00	4	Temperatura máxima	24.8
73011	7	Sololá	717	San Juan la Laguna	12	San Juan la Laguna	8	Agosto	2023-08-22T00:00:00	2024-11-08T16:00:00	3	Temperatura mínima	23.7
73012	7	Sololá	717	San Juan la Laguna	12	San Juan la Laguna	8	Agosto	2023-08-22T00:00:00	2024-11-08T16:00:00	5	Humedad	69
73013	7	Sololá	717	San Juan la Laguna	12	San Juan la Laguna	8	Agosto	2023-08-22T00:00:00	2024-11-08T16:00:00	6	Velocidad del viento	0
73014	7	Sololá	717	San Juan la Laguna	12	San Juan la Laguna	8	Agosto	2023-08-22T00:00:00	2024-11-08T16:00:00	7	Dirección del viento	0
73015	7	Sololá	717	San Juan la Laguna	12	San Juan la Laguna	8	Agosto	2023-08-22T00:00:00	2024-11-08T16:00:00	1	Precipitación	0
73016	7	Sololá	717	San Juan la Laguna	12	San Juan la Laguna	8	Agosto	2023-08-22T00:00:00	2024-11-08T16:00:00	8	Radiación solar	473
73017	7	Sololá	717	San Juan la Laguna	12	San Juan la Laguna	8	Agosto	2023-08-22T00:00:00	2024-11-08T17:00:00	2	Temperatura media	23.3
73018	7	Sololá	717	San Juan la Laguna	12	San Juan la Laguna	8	Agosto	2023-08-22T00:00:00	2024-11-08T17:00:00	4	Temperatura máxima	24.1
73019	7	Sololá	717	San Juan la Laguna	12	San Juan la Laguna	8	Agosto	2023-08-22T00:00:00	2024-11-08T17:00:00	3	Temperatura mínima	23.2
73020	7	Sololá	717	San Juan la Laguna	12	San Juan la Laguna	8	Agosto	2023-08-22T00:00:00	2024-11-08T17:00:00	5	Humedad	73
73021	7	Sololá	717	San Juan la Laguna	12	San Juan la Laguna	8	Agosto	2023-08-22T00:00:00	2024-11-08T17:00:00	6	Velocidad del viento	0
73022	7	Sololá	717	San Juan la Laguna	12	San Juan la Laguna	8	Agosto	2023-08-22T00:00:00	2024-11-08T17:00:00	7	Dirección del viento	0
73023	7	Sololá	717	San Juan la Laguna	12	San Juan la Laguna	8	Agosto	2023-08-22T00:00:00	2024-11-08T17:00:00	1	Precipitación	0
73024	7	Sololá	717	San Juan la Laguna	12	San Juan la Laguna	8	Agosto	2023-08-22T00:00:00	2024-11-08T17:00:00	8	Radiación solar	260
73025	7	Sololá	717	San Juan la Laguna	12	San Juan la Laguna	8	Agosto	2023-08-22T00:00:00	2024-11-08T18:00:00	2	Temperatura media	21.9
73026	7	Sololá	717	San Juan la Laguna	12	San Juan la Laguna	8	Agosto	2023-08-22T00:00:00	2024-11-08T18:00:00	4	Temperatura máxima	23.3
73027	7	Sololá	717	San Juan la Laguna	12	San Juan la Laguna	8	Agosto	2023-08-22T00:00:00	2024-11-08T18:00:00	3	Temperatura mínima	21.9
73028	7	Sololá	717	San Juan la Laguna	12	San Juan la Laguna	8	Agosto	2023-08-22T00:00:00	2024-11-08T18:00:00	5	Humedad	77
73029	7	Sololá	717	San Juan la Laguna	12	San Juan la Laguna	8	Agosto	2023-08-22T00:00:00	2024-11-08T18:00:00	6	Velocidad del viento	0
73030	7	Sololá	717	San Juan la Laguna	12	San Juan la Laguna	8	Agosto	2023-08-22T00:00:00	2024-11-08T18:00:00	7	Dirección del viento	0
73031	7	Sololá	717	San Juan la Laguna	12	San Juan la Laguna	8	Agosto	2023-08-22T00:00:00	2024-11-08T18:00:00	1	Precipitación	0
73032	7	Sololá	717	San Juan la Laguna	12	San Juan la Laguna	8	Agosto	2023-08-22T00:00:00	2024-11-08T18:00:00	8	Radiación solar	77
73033	7	Sololá	717	San Juan la Laguna	12	San Juan la Laguna	8	Agosto	2023-08-22T00:00:00	2024-11-08T19:00:00	2	Temperatura media	20.5
73034	7	Sololá	717	San Juan la Laguna	12	San Juan la Laguna	8	Agosto	2023-08-22T00:00:00	2024-11-08T19:00:00	4	Temperatura máxima	21.9
73035	7	Sololá	717	San Juan la Laguna	12	San Juan la Laguna	8	Agosto	2023-08-22T00:00:00	2024-11-08T19:00:00	3	Temperatura mínima	20.5
73036	7	Sololá	717	San Juan la Laguna	12	San Juan la Laguna	8	Agosto	2023-08-22T00:00:00	2024-11-08T19:00:00	5	Humedad	83
73037	7	Sololá	717	San Juan la Laguna	12	San Juan la Laguna	8	Agosto	2023-08-22T00:00:00	2024-11-08T19:00:00	6	Velocidad del viento	0
73038	7	Sololá	717	San Juan la Laguna	12	San Juan la Laguna	8	Agosto	2023-08-22T00:00:00	2024-11-08T19:00:00	7	Dirección del viento	0
73039	7	Sololá	717	San Juan la Laguna	12	San Juan la Laguna	8	Agosto	2023-08-22T00:00:00	2024-11-08T19:00:00	1	Precipitación	0
73040	7	Sololá	717	San Juan la Laguna	12	San Juan la Laguna	8	Agosto	2023-08-22T00:00:00	2024-11-08T19:00:00	8	Radiación solar	0
73041	7	Sololá	717	San Juan la Laguna	12	San Juan la Laguna	8	Agosto	2023-08-22T00:00:00	2024-11-08T20:00:00	2	Temperatura media	20.2
73042	7	Sololá	717	San Juan la Laguna	12	San Juan la Laguna	8	Agosto	2023-08-22T00:00:00	2024-11-08T20:00:00	4	Temperatura máxima	20.5
73043	7	Sololá	717	San Juan la Laguna	12	San Juan la Laguna	8	Agosto	2023-08-22T00:00:00	2024-11-08T20:00:00	3	Temperatura mínima	19.9
73044	7	Sololá	717	San Juan la Laguna	12	San Juan la Laguna	8	Agosto	2023-08-22T00:00:00	2024-11-08T20:00:00	5	Humedad	84
73045	7	Sololá	717	San Juan la Laguna	12	San Juan la Laguna	8	Agosto	2023-08-22T00:00:00	2024-11-08T20:00:00	6	Velocidad del viento	0
73046	7	Sololá	717	San Juan la Laguna	12	San Juan la Laguna	8	Agosto	2023-08-22T00:00:00	2024-11-08T20:00:00	7	Dirección del viento	0
73047	7	Sololá	717	San Juan la Laguna	12	San Juan la Laguna	8	Agosto	2023-08-22T00:00:00	2024-11-08T20:00:00	1	Precipitación	0
73048	7	Sololá	717	San Juan la Laguna	12	San Juan la Laguna	8	Agosto	2023-08-22T00:00:00	2024-11-08T20:00:00	8	Radiación solar	0
73049	7	Sololá	717	San Juan la Laguna	12	San Juan la Laguna	8	Agosto	2023-08-22T00:00:00	2024-11-08T21:00:00	2	Temperatura media	20.2
73050	7	Sololá	717	San Juan la Laguna	12	San Juan la Laguna	8	Agosto	2023-08-22T00:00:00	2024-11-08T21:00:00	4	Temperatura máxima	20.7
73051	7	Sololá	717	San Juan la Laguna	12	San Juan la Laguna	8	Agosto	2023-08-22T00:00:00	2024-11-08T21:00:00	3	Temperatura mínima	20.2
73052	7	Sololá	717	San Juan la Laguna	12	San Juan la Laguna	8	Agosto	2023-08-22T00:00:00	2024-11-08T21:00:00	5	Humedad	79
73053	7	Sololá	717	San Juan la Laguna	12	San Juan la Laguna	8	Agosto	2023-08-22T00:00:00	2024-11-08T21:00:00	6	Velocidad del viento	0
73054	7	Sololá	717	San Juan la Laguna	12	San Juan la Laguna	8	Agosto	2023-08-22T00:00:00	2024-11-08T21:00:00	7	Dirección del viento	0
73055	7	Sololá	717	San Juan la Laguna	12	San Juan la Laguna	8	Agosto	2023-08-22T00:00:00	2024-11-08T21:00:00	1	Precipitación	0
73056	7	Sololá	717	San Juan la Laguna	12	San Juan la Laguna	8	Agosto	2023-08-22T00:00:00	2024-11-08T21:00:00	8	Radiación solar	0
73057	7	Sololá	717	San Juan la Laguna	12	San Juan la Laguna	8	Agosto	2023-08-22T00:00:00	2024-11-08T22:00:00	2	Temperatura media	20.5
73058	7	Sololá	717	San Juan la Laguna	12	San Juan la Laguna	8	Agosto	2023-08-22T00:00:00	2024-11-08T22:00:00	4	Temperatura máxima	20.7
73059	7	Sololá	717	San Juan la Laguna	12	San Juan la Laguna	8	Agosto	2023-08-22T00:00:00	2024-11-08T22:00:00	3	Temperatura mínima	19
73060	7	Sololá	717	San Juan la Laguna	12	San Juan la Laguna	8	Agosto	2023-08-22T00:00:00	2024-11-08T22:00:00	5	Humedad	69
73061	7	Sololá	717	San Juan la Laguna	12	San Juan la Laguna	8	Agosto	2023-08-22T00:00:00	2024-11-08T22:00:00	6	Velocidad del viento	0
73062	7	Sololá	717	San Juan la Laguna	12	San Juan la Laguna	8	Agosto	2023-08-22T00:00:00	2024-11-08T22:00:00	7	Dirección del viento	0
73063	7	Sololá	717	San Juan la Laguna	12	San Juan la Laguna	8	Agosto	2023-08-22T00:00:00	2024-11-08T22:00:00	1	Precipitación	0
73064	7	Sololá	717	San Juan la Laguna	12	San Juan la Laguna	8	Agosto	2023-08-22T00:00:00	2024-11-08T22:00:00	8	Radiación solar	0
73065	7	Sololá	717	San Juan la Laguna	12	San Juan la Laguna	8	Agosto	2023-08-22T00:00:00	2024-11-08T23:00:00	2	Temperatura media	20.3
73066	7	Sololá	717	San Juan la Laguna	12	San Juan la Laguna	8	Agosto	2023-08-22T00:00:00	2024-11-08T23:00:00	4	Temperatura máxima	20.5
73067	7	Sololá	717	San Juan la Laguna	12	San Juan la Laguna	8	Agosto	2023-08-22T00:00:00	2024-11-08T23:00:00	3	Temperatura mínima	19.1
73068	7	Sololá	717	San Juan la Laguna	12	San Juan la Laguna	8	Agosto	2023-08-22T00:00:00	2024-11-08T23:00:00	5	Humedad	69
73069	7	Sololá	717	San Juan la Laguna	12	San Juan la Laguna	8	Agosto	2023-08-22T00:00:00	2024-11-08T23:00:00	6	Velocidad del viento	0
73070	7	Sololá	717	San Juan la Laguna	12	San Juan la Laguna	8	Agosto	2023-08-22T00:00:00	2024-11-08T23:00:00	7	Dirección del viento	0
73071	7	Sololá	717	San Juan la Laguna	12	San Juan la Laguna	8	Agosto	2023-08-22T00:00:00	2024-11-08T23:00:00	1	Precipitación	0
73072	7	Sololá	717	San Juan la Laguna	12	San Juan la Laguna	8	Agosto	2023-08-22T00:00:00	2024-11-08T23:00:00	8	Radiación solar	0
73073	7	Sololá	717	San Juan la Laguna	12	San Juan la Laguna	8	Agosto	2023-08-23T00:00:00	2024-11-08T00:00:00	2	Temperatura media	18.4
73074	7	Sololá	717	San Juan la Laguna	12	San Juan la Laguna	8	Agosto	2023-08-23T00:00:00	2024-11-08T00:00:00	4	Temperatura máxima	20.4
73075	7	Sololá	717	San Juan la Laguna	12	San Juan la Laguna	8	Agosto	2023-08-23T00:00:00	2024-11-08T00:00:00	3	Temperatura mínima	18.4
73076	7	Sololá	717	San Juan la Laguna	12	San Juan la Laguna	8	Agosto	2023-08-23T00:00:00	2024-11-08T00:00:00	5	Humedad	75
73077	7	Sololá	717	San Juan la Laguna	12	San Juan la Laguna	8	Agosto	2023-08-23T00:00:00	2024-11-08T00:00:00	6	Velocidad del viento	0
73078	7	Sololá	717	San Juan la Laguna	12	San Juan la Laguna	8	Agosto	2023-08-23T00:00:00	2024-11-08T00:00:00	7	Dirección del viento	0
73079	7	Sololá	717	San Juan la Laguna	12	San Juan la Laguna	8	Agosto	2023-08-23T00:00:00	2024-11-08T00:00:00	1	Precipitación	0
73080	7	Sololá	717	San Juan la Laguna	12	San Juan la Laguna	8	Agosto	2023-08-23T00:00:00	2024-11-08T00:00:00	8	Radiación solar	0
73081	7	Sololá	717	San Juan la Laguna	12	San Juan la Laguna	8	Agosto	2023-08-23T00:00:00	2024-11-08T01:00:00	2	Temperatura media	19.3
73082	7	Sololá	717	San Juan la Laguna	12	San Juan la Laguna	8	Agosto	2023-08-23T00:00:00	2024-11-08T01:00:00	4	Temperatura máxima	19.3
73083	7	Sololá	717	San Juan la Laguna	12	San Juan la Laguna	8	Agosto	2023-08-23T00:00:00	2024-11-08T01:00:00	3	Temperatura mínima	17.6
73084	7	Sololá	717	San Juan la Laguna	12	San Juan la Laguna	8	Agosto	2023-08-23T00:00:00	2024-11-08T01:00:00	5	Humedad	71
73085	7	Sololá	717	San Juan la Laguna	12	San Juan la Laguna	8	Agosto	2023-08-23T00:00:00	2024-11-08T01:00:00	6	Velocidad del viento	0
73086	7	Sololá	717	San Juan la Laguna	12	San Juan la Laguna	8	Agosto	2023-08-23T00:00:00	2024-11-08T01:00:00	7	Dirección del viento	0
73087	7	Sololá	717	San Juan la Laguna	12	San Juan la Laguna	8	Agosto	2023-08-23T00:00:00	2024-11-08T01:00:00	1	Precipitación	0
73088	7	Sololá	717	San Juan la Laguna	12	San Juan la Laguna	8	Agosto	2023-08-23T00:00:00	2024-11-08T01:00:00	8	Radiación solar	0
73089	7	Sololá	717	San Juan la Laguna	12	San Juan la Laguna	8	Agosto	2023-08-23T00:00:00	2024-11-08T02:00:00	2	Temperatura media	18.1
73090	7	Sololá	717	San Juan la Laguna	12	San Juan la Laguna	8	Agosto	2023-08-23T00:00:00	2024-11-08T02:00:00	4	Temperatura máxima	19.7
73091	7	Sololá	717	San Juan la Laguna	12	San Juan la Laguna	8	Agosto	2023-08-23T00:00:00	2024-11-08T02:00:00	3	Temperatura mínima	17.8
73092	7	Sololá	717	San Juan la Laguna	12	San Juan la Laguna	8	Agosto	2023-08-23T00:00:00	2024-11-08T02:00:00	5	Humedad	74
73093	7	Sololá	717	San Juan la Laguna	12	San Juan la Laguna	8	Agosto	2023-08-23T00:00:00	2024-11-08T02:00:00	6	Velocidad del viento	0
73094	7	Sololá	717	San Juan la Laguna	12	San Juan la Laguna	8	Agosto	2023-08-23T00:00:00	2024-11-08T02:00:00	7	Dirección del viento	0
73095	7	Sololá	717	San Juan la Laguna	12	San Juan la Laguna	8	Agosto	2023-08-23T00:00:00	2024-11-08T02:00:00	1	Precipitación	0
73096	7	Sololá	717	San Juan la Laguna	12	San Juan la Laguna	8	Agosto	2023-08-23T00:00:00	2024-11-08T02:00:00	8	Radiación solar	0
73097	7	Sololá	717	San Juan la Laguna	12	San Juan la Laguna	8	Agosto	2023-08-23T00:00:00	2024-11-08T03:00:00	2	Temperatura media	19
73098	7	Sololá	717	San Juan la Laguna	12	San Juan la Laguna	8	Agosto	2023-08-23T00:00:00	2024-11-08T03:00:00	4	Temperatura máxima	19.1
73099	7	Sololá	717	San Juan la Laguna	12	San Juan la Laguna	8	Agosto	2023-08-23T00:00:00	2024-11-08T03:00:00	3	Temperatura mínima	17.9
73100	7	Sololá	717	San Juan la Laguna	12	San Juan la Laguna	8	Agosto	2023-08-23T00:00:00	2024-11-08T03:00:00	5	Humedad	68
73101	7	Sololá	717	San Juan la Laguna	12	San Juan la Laguna	8	Agosto	2023-08-23T00:00:00	2024-11-08T03:00:00	6	Velocidad del viento	0
73102	7	Sololá	717	San Juan la Laguna	12	San Juan la Laguna	8	Agosto	2023-08-23T00:00:00	2024-11-08T03:00:00	7	Dirección del viento	0
73103	7	Sololá	717	San Juan la Laguna	12	San Juan la Laguna	8	Agosto	2023-08-23T00:00:00	2024-11-08T03:00:00	1	Precipitación	0
73104	7	Sololá	717	San Juan la Laguna	12	San Juan la Laguna	8	Agosto	2023-08-23T00:00:00	2024-11-08T03:00:00	8	Radiación solar	0
73105	7	Sololá	717	San Juan la Laguna	12	San Juan la Laguna	8	Agosto	2023-08-23T00:00:00	2024-11-08T04:00:00	2	Temperatura media	16.3
73106	7	Sololá	717	San Juan la Laguna	12	San Juan la Laguna	8	Agosto	2023-08-23T00:00:00	2024-11-08T04:00:00	4	Temperatura máxima	19.1
73107	7	Sololá	717	San Juan la Laguna	12	San Juan la Laguna	8	Agosto	2023-08-23T00:00:00	2024-11-08T04:00:00	3	Temperatura mínima	16.3
73108	7	Sololá	717	San Juan la Laguna	12	San Juan la Laguna	8	Agosto	2023-08-23T00:00:00	2024-11-08T04:00:00	5	Humedad	77
73109	7	Sololá	717	San Juan la Laguna	12	San Juan la Laguna	8	Agosto	2023-08-23T00:00:00	2024-11-08T04:00:00	6	Velocidad del viento	0
73110	7	Sololá	717	San Juan la Laguna	12	San Juan la Laguna	8	Agosto	2023-08-23T00:00:00	2024-11-08T04:00:00	7	Dirección del viento	0
73111	7	Sololá	717	San Juan la Laguna	12	San Juan la Laguna	8	Agosto	2023-08-23T00:00:00	2024-11-08T04:00:00	1	Precipitación	0
73112	7	Sololá	717	San Juan la Laguna	12	San Juan la Laguna	8	Agosto	2023-08-23T00:00:00	2024-11-08T04:00:00	8	Radiación solar	0
73113	7	Sololá	717	San Juan la Laguna	12	San Juan la Laguna	8	Agosto	2023-08-23T00:00:00	2024-11-08T05:00:00	2	Temperatura media	15.8
73114	7	Sololá	717	San Juan la Laguna	12	San Juan la Laguna	8	Agosto	2023-08-23T00:00:00	2024-11-08T05:00:00	4	Temperatura máxima	16.3
73115	7	Sololá	717	San Juan la Laguna	12	San Juan la Laguna	8	Agosto	2023-08-23T00:00:00	2024-11-08T05:00:00	3	Temperatura mínima	15.7
73116	7	Sololá	717	San Juan la Laguna	12	San Juan la Laguna	8	Agosto	2023-08-23T00:00:00	2024-11-08T05:00:00	5	Humedad	78
73117	7	Sololá	717	San Juan la Laguna	12	San Juan la Laguna	8	Agosto	2023-08-23T00:00:00	2024-11-08T05:00:00	6	Velocidad del viento	0
73118	7	Sololá	717	San Juan la Laguna	12	San Juan la Laguna	8	Agosto	2023-08-23T00:00:00	2024-11-08T05:00:00	7	Dirección del viento	0
73119	7	Sololá	717	San Juan la Laguna	12	San Juan la Laguna	8	Agosto	2023-08-23T00:00:00	2024-11-08T05:00:00	1	Precipitación	0
73120	7	Sololá	717	San Juan la Laguna	12	San Juan la Laguna	8	Agosto	2023-08-23T00:00:00	2024-11-08T05:00:00	8	Radiación solar	0
73121	7	Sololá	717	San Juan la Laguna	12	San Juan la Laguna	8	Agosto	2023-08-23T00:00:00	2024-11-08T06:00:00	2	Temperatura media	15.6
73122	7	Sololá	717	San Juan la Laguna	12	San Juan la Laguna	8	Agosto	2023-08-23T00:00:00	2024-11-08T06:00:00	4	Temperatura máxima	15.8
73123	7	Sololá	717	San Juan la Laguna	12	San Juan la Laguna	8	Agosto	2023-08-23T00:00:00	2024-11-08T06:00:00	3	Temperatura mínima	15.3
73124	7	Sololá	717	San Juan la Laguna	12	San Juan la Laguna	8	Agosto	2023-08-23T00:00:00	2024-11-08T06:00:00	5	Humedad	79
73125	7	Sololá	717	San Juan la Laguna	12	San Juan la Laguna	8	Agosto	2023-08-23T00:00:00	2024-11-08T06:00:00	6	Velocidad del viento	0
73126	7	Sololá	717	San Juan la Laguna	12	San Juan la Laguna	8	Agosto	2023-08-23T00:00:00	2024-11-08T06:00:00	7	Dirección del viento	0
73127	7	Sololá	717	San Juan la Laguna	12	San Juan la Laguna	8	Agosto	2023-08-23T00:00:00	2024-11-08T06:00:00	1	Precipitación	0
73128	7	Sololá	717	San Juan la Laguna	12	San Juan la Laguna	8	Agosto	2023-08-23T00:00:00	2024-11-08T06:00:00	8	Radiación solar	0
73129	7	Sololá	717	San Juan la Laguna	12	San Juan la Laguna	8	Agosto	2023-08-23T00:00:00	2024-11-08T07:00:00	2	Temperatura media	16.6
73130	7	Sololá	717	San Juan la Laguna	12	San Juan la Laguna	8	Agosto	2023-08-23T00:00:00	2024-11-08T07:00:00	4	Temperatura máxima	16.6
73131	7	Sololá	717	San Juan la Laguna	12	San Juan la Laguna	8	Agosto	2023-08-23T00:00:00	2024-11-08T07:00:00	3	Temperatura mínima	15.7
73132	7	Sololá	717	San Juan la Laguna	12	San Juan la Laguna	8	Agosto	2023-08-23T00:00:00	2024-11-08T07:00:00	5	Humedad	80
73133	7	Sololá	717	San Juan la Laguna	12	San Juan la Laguna	8	Agosto	2023-08-23T00:00:00	2024-11-08T07:00:00	6	Velocidad del viento	0
73134	7	Sololá	717	San Juan la Laguna	12	San Juan la Laguna	8	Agosto	2023-08-23T00:00:00	2024-11-08T07:00:00	7	Dirección del viento	0
73135	7	Sololá	717	San Juan la Laguna	12	San Juan la Laguna	8	Agosto	2023-08-23T00:00:00	2024-11-08T07:00:00	1	Precipitación	0
73136	7	Sololá	717	San Juan la Laguna	12	San Juan la Laguna	8	Agosto	2023-08-23T00:00:00	2024-11-08T07:00:00	8	Radiación solar	41
73137	7	Sololá	717	San Juan la Laguna	12	San Juan la Laguna	8	Agosto	2023-08-23T00:00:00	2024-11-08T08:00:00	2	Temperatura media	19.6
73138	7	Sololá	717	San Juan la Laguna	12	San Juan la Laguna	8	Agosto	2023-08-23T00:00:00	2024-11-08T08:00:00	4	Temperatura máxima	19.6
73139	7	Sololá	717	San Juan la Laguna	12	San Juan la Laguna	8	Agosto	2023-08-23T00:00:00	2024-11-08T08:00:00	3	Temperatura mínima	16.6
73140	7	Sololá	717	San Juan la Laguna	12	San Juan la Laguna	8	Agosto	2023-08-23T00:00:00	2024-11-08T08:00:00	5	Humedad	71
73141	7	Sololá	717	San Juan la Laguna	12	San Juan la Laguna	8	Agosto	2023-08-23T00:00:00	2024-11-08T08:00:00	6	Velocidad del viento	0
73142	7	Sololá	717	San Juan la Laguna	12	San Juan la Laguna	8	Agosto	2023-08-23T00:00:00	2024-11-08T08:00:00	7	Dirección del viento	0
73143	7	Sololá	717	San Juan la Laguna	12	San Juan la Laguna	8	Agosto	2023-08-23T00:00:00	2024-11-08T08:00:00	1	Precipitación	0
73144	7	Sololá	717	San Juan la Laguna	12	San Juan la Laguna	8	Agosto	2023-08-23T00:00:00	2024-11-08T08:00:00	8	Radiación solar	191
73145	7	Sololá	717	San Juan la Laguna	12	San Juan la Laguna	8	Agosto	2023-08-23T00:00:00	2024-11-08T09:00:00	2	Temperatura media	21.5
73146	7	Sololá	717	San Juan la Laguna	12	San Juan la Laguna	8	Agosto	2023-08-23T00:00:00	2024-11-08T09:00:00	4	Temperatura máxima	21.5
73147	7	Sololá	717	San Juan la Laguna	12	San Juan la Laguna	8	Agosto	2023-08-23T00:00:00	2024-11-08T09:00:00	3	Temperatura mínima	19.6
73148	7	Sololá	717	San Juan la Laguna	12	San Juan la Laguna	8	Agosto	2023-08-23T00:00:00	2024-11-08T09:00:00	5	Humedad	64
73149	7	Sololá	717	San Juan la Laguna	12	San Juan la Laguna	8	Agosto	2023-08-23T00:00:00	2024-11-08T09:00:00	6	Velocidad del viento	0
73150	7	Sololá	717	San Juan la Laguna	12	San Juan la Laguna	8	Agosto	2023-08-23T00:00:00	2024-11-08T09:00:00	7	Dirección del viento	0
73151	7	Sololá	717	San Juan la Laguna	12	San Juan la Laguna	8	Agosto	2023-08-23T00:00:00	2024-11-08T09:00:00	1	Precipitación	0
73152	7	Sololá	717	San Juan la Laguna	12	San Juan la Laguna	8	Agosto	2023-08-23T00:00:00	2024-11-08T09:00:00	8	Radiación solar	305
73153	7	Sololá	717	San Juan la Laguna	12	San Juan la Laguna	8	Agosto	2023-08-23T00:00:00	2024-11-08T10:00:00	2	Temperatura media	22.1
73154	7	Sololá	717	San Juan la Laguna	12	San Juan la Laguna	8	Agosto	2023-08-23T00:00:00	2024-11-08T10:00:00	4	Temperatura máxima	22.3
73155	7	Sololá	717	San Juan la Laguna	12	San Juan la Laguna	8	Agosto	2023-08-23T00:00:00	2024-11-08T10:00:00	3	Temperatura mínima	21.4
73156	7	Sololá	717	San Juan la Laguna	12	San Juan la Laguna	8	Agosto	2023-08-23T00:00:00	2024-11-08T10:00:00	5	Humedad	63
73157	7	Sololá	717	San Juan la Laguna	12	San Juan la Laguna	8	Agosto	2023-08-23T00:00:00	2024-11-08T10:00:00	6	Velocidad del viento	0
73158	7	Sololá	717	San Juan la Laguna	12	San Juan la Laguna	8	Agosto	2023-08-23T00:00:00	2024-11-08T10:00:00	7	Dirección del viento	0
73159	7	Sololá	717	San Juan la Laguna	12	San Juan la Laguna	8	Agosto	2023-08-23T00:00:00	2024-11-08T10:00:00	1	Precipitación	0
73160	7	Sololá	717	San Juan la Laguna	12	San Juan la Laguna	8	Agosto	2023-08-23T00:00:00	2024-11-08T10:00:00	8	Radiación solar	407
73161	7	Sololá	717	San Juan la Laguna	12	San Juan la Laguna	8	Agosto	2023-08-23T00:00:00	2024-11-08T11:00:00	2	Temperatura media	22.8
73162	7	Sololá	717	San Juan la Laguna	12	San Juan la Laguna	8	Agosto	2023-08-23T00:00:00	2024-11-08T11:00:00	4	Temperatura máxima	22.8
73163	7	Sololá	717	San Juan la Laguna	12	San Juan la Laguna	8	Agosto	2023-08-23T00:00:00	2024-11-08T11:00:00	3	Temperatura mínima	21.9
73164	7	Sololá	717	San Juan la Laguna	12	San Juan la Laguna	8	Agosto	2023-08-23T00:00:00	2024-11-08T11:00:00	5	Humedad	59
73165	7	Sololá	717	San Juan la Laguna	12	San Juan la Laguna	8	Agosto	2023-08-23T00:00:00	2024-11-08T11:00:00	6	Velocidad del viento	0
73166	7	Sololá	717	San Juan la Laguna	12	San Juan la Laguna	8	Agosto	2023-08-23T00:00:00	2024-11-08T11:00:00	7	Dirección del viento	0
73167	7	Sololá	717	San Juan la Laguna	12	San Juan la Laguna	8	Agosto	2023-08-23T00:00:00	2024-11-08T11:00:00	1	Precipitación	0
73168	7	Sololá	717	San Juan la Laguna	12	San Juan la Laguna	8	Agosto	2023-08-23T00:00:00	2024-11-08T11:00:00	8	Radiación solar	376
73169	7	Sololá	717	San Juan la Laguna	12	San Juan la Laguna	8	Agosto	2023-08-23T00:00:00	2024-11-08T12:00:00	2	Temperatura media	23.6
73170	7	Sololá	717	San Juan la Laguna	12	San Juan la Laguna	8	Agosto	2023-08-23T00:00:00	2024-11-08T12:00:00	4	Temperatura máxima	23.8
73171	7	Sololá	717	San Juan la Laguna	12	San Juan la Laguna	8	Agosto	2023-08-23T00:00:00	2024-11-08T12:00:00	3	Temperatura mínima	22.8
73172	7	Sololá	717	San Juan la Laguna	12	San Juan la Laguna	8	Agosto	2023-08-23T00:00:00	2024-11-08T12:00:00	5	Humedad	58
73173	7	Sololá	717	San Juan la Laguna	12	San Juan la Laguna	8	Agosto	2023-08-23T00:00:00	2024-11-08T12:00:00	6	Velocidad del viento	0
73174	7	Sololá	717	San Juan la Laguna	12	San Juan la Laguna	8	Agosto	2023-08-23T00:00:00	2024-11-08T12:00:00	7	Dirección del viento	0
73175	7	Sololá	717	San Juan la Laguna	12	San Juan la Laguna	8	Agosto	2023-08-23T00:00:00	2024-11-08T12:00:00	1	Precipitación	0
73176	7	Sololá	717	San Juan la Laguna	12	San Juan la Laguna	8	Agosto	2023-08-23T00:00:00	2024-11-08T12:00:00	8	Radiación solar	557
73177	7	Sololá	717	San Juan la Laguna	12	San Juan la Laguna	8	Agosto	2023-08-23T00:00:00	2024-11-08T13:00:00	2	Temperatura media	23.4
73178	7	Sololá	717	San Juan la Laguna	12	San Juan la Laguna	8	Agosto	2023-08-23T00:00:00	2024-11-08T13:00:00	4	Temperatura máxima	23.9
73179	7	Sololá	717	San Juan la Laguna	12	San Juan la Laguna	8	Agosto	2023-08-23T00:00:00	2024-11-08T13:00:00	3	Temperatura mínima	23.4
73180	7	Sololá	717	San Juan la Laguna	12	San Juan la Laguna	8	Agosto	2023-08-23T00:00:00	2024-11-08T13:00:00	5	Humedad	64
73181	7	Sololá	717	San Juan la Laguna	12	San Juan la Laguna	8	Agosto	2023-08-23T00:00:00	2024-11-08T13:00:00	6	Velocidad del viento	0
73182	7	Sololá	717	San Juan la Laguna	12	San Juan la Laguna	8	Agosto	2023-08-23T00:00:00	2024-11-08T13:00:00	7	Dirección del viento	0
73183	7	Sololá	717	San Juan la Laguna	12	San Juan la Laguna	8	Agosto	2023-08-23T00:00:00	2024-11-08T13:00:00	1	Precipitación	0
73184	7	Sololá	717	San Juan la Laguna	12	San Juan la Laguna	8	Agosto	2023-08-23T00:00:00	2024-11-08T13:00:00	8	Radiación solar	595
73185	7	Sololá	717	San Juan la Laguna	12	San Juan la Laguna	8	Agosto	2023-08-23T00:00:00	2024-11-08T14:00:00	2	Temperatura media	22.5
73186	7	Sololá	717	San Juan la Laguna	12	San Juan la Laguna	8	Agosto	2023-08-23T00:00:00	2024-11-08T14:00:00	4	Temperatura máxima	23.5
73187	7	Sololá	717	San Juan la Laguna	12	San Juan la Laguna	8	Agosto	2023-08-23T00:00:00	2024-11-08T14:00:00	3	Temperatura mínima	22.5
73188	7	Sololá	717	San Juan la Laguna	12	San Juan la Laguna	8	Agosto	2023-08-23T00:00:00	2024-11-08T14:00:00	5	Humedad	71
73189	7	Sololá	717	San Juan la Laguna	12	San Juan la Laguna	8	Agosto	2023-08-23T00:00:00	2024-11-08T14:00:00	6	Velocidad del viento	0
73190	7	Sololá	717	San Juan la Laguna	12	San Juan la Laguna	8	Agosto	2023-08-23T00:00:00	2024-11-08T14:00:00	7	Dirección del viento	0
73191	7	Sololá	717	San Juan la Laguna	12	San Juan la Laguna	8	Agosto	2023-08-23T00:00:00	2024-11-08T14:00:00	1	Precipitación	0
73192	7	Sololá	717	San Juan la Laguna	12	San Juan la Laguna	8	Agosto	2023-08-23T00:00:00	2024-11-08T14:00:00	8	Radiación solar	475
73193	7	Sololá	717	San Juan la Laguna	12	San Juan la Laguna	8	Agosto	2023-08-23T00:00:00	2024-11-08T15:00:00	2	Temperatura media	22.4
73194	7	Sololá	717	San Juan la Laguna	12	San Juan la Laguna	8	Agosto	2023-08-23T00:00:00	2024-11-08T15:00:00	4	Temperatura máxima	22.6
73195	7	Sololá	717	San Juan la Laguna	12	San Juan la Laguna	8	Agosto	2023-08-23T00:00:00	2024-11-08T15:00:00	3	Temperatura mínima	22.2
73196	7	Sololá	717	San Juan la Laguna	12	San Juan la Laguna	8	Agosto	2023-08-23T00:00:00	2024-11-08T15:00:00	5	Humedad	73
73197	7	Sololá	717	San Juan la Laguna	12	San Juan la Laguna	8	Agosto	2023-08-23T00:00:00	2024-11-08T15:00:00	6	Velocidad del viento	0
73198	7	Sololá	717	San Juan la Laguna	12	San Juan la Laguna	8	Agosto	2023-08-23T00:00:00	2024-11-08T15:00:00	7	Dirección del viento	0
73199	7	Sololá	717	San Juan la Laguna	12	San Juan la Laguna	8	Agosto	2023-08-23T00:00:00	2024-11-08T15:00:00	1	Precipitación	0
73200	7	Sololá	717	San Juan la Laguna	12	San Juan la Laguna	8	Agosto	2023-08-23T00:00:00	2024-11-08T15:00:00	8	Radiación solar	351
73201	7	Sololá	717	San Juan la Laguna	12	San Juan la Laguna	8	Agosto	2023-08-23T00:00:00	2024-11-08T16:00:00	2	Temperatura media	22.6
73202	7	Sololá	717	San Juan la Laguna	12	San Juan la Laguna	8	Agosto	2023-08-23T00:00:00	2024-11-08T16:00:00	4	Temperatura máxima	22.7
73203	7	Sololá	717	San Juan la Laguna	12	San Juan la Laguna	8	Agosto	2023-08-23T00:00:00	2024-11-08T16:00:00	3	Temperatura mínima	22.3
73204	7	Sololá	717	San Juan la Laguna	12	San Juan la Laguna	8	Agosto	2023-08-23T00:00:00	2024-11-08T16:00:00	5	Humedad	69
73205	7	Sololá	717	San Juan la Laguna	12	San Juan la Laguna	8	Agosto	2023-08-23T00:00:00	2024-11-08T16:00:00	6	Velocidad del viento	0
73206	7	Sololá	717	San Juan la Laguna	12	San Juan la Laguna	8	Agosto	2023-08-23T00:00:00	2024-11-08T16:00:00	7	Dirección del viento	0
73207	7	Sololá	717	San Juan la Laguna	12	San Juan la Laguna	8	Agosto	2023-08-23T00:00:00	2024-11-08T16:00:00	1	Precipitación	0
73208	7	Sololá	717	San Juan la Laguna	12	San Juan la Laguna	8	Agosto	2023-08-23T00:00:00	2024-11-08T16:00:00	8	Radiación solar	304
73209	7	Sololá	717	San Juan la Laguna	12	San Juan la Laguna	8	Agosto	2023-08-23T00:00:00	2024-11-08T17:00:00	2	Temperatura media	21.3
73210	7	Sololá	717	San Juan la Laguna	12	San Juan la Laguna	8	Agosto	2023-08-23T00:00:00	2024-11-08T17:00:00	4	Temperatura máxima	23.1
73211	7	Sololá	717	San Juan la Laguna	12	San Juan la Laguna	8	Agosto	2023-08-23T00:00:00	2024-11-08T17:00:00	3	Temperatura mínima	21.3
73212	7	Sololá	717	San Juan la Laguna	12	San Juan la Laguna	8	Agosto	2023-08-23T00:00:00	2024-11-08T17:00:00	5	Humedad	77
73213	7	Sololá	717	San Juan la Laguna	12	San Juan la Laguna	8	Agosto	2023-08-23T00:00:00	2024-11-08T17:00:00	6	Velocidad del viento	0
73214	7	Sololá	717	San Juan la Laguna	12	San Juan la Laguna	8	Agosto	2023-08-23T00:00:00	2024-11-08T17:00:00	7	Dirección del viento	0
73215	7	Sololá	717	San Juan la Laguna	12	San Juan la Laguna	8	Agosto	2023-08-23T00:00:00	2024-11-08T17:00:00	1	Precipitación	0
73216	7	Sololá	717	San Juan la Laguna	12	San Juan la Laguna	8	Agosto	2023-08-23T00:00:00	2024-11-08T17:00:00	8	Radiación solar	150
73217	7	Sololá	717	San Juan la Laguna	12	San Juan la Laguna	8	Agosto	2023-08-23T00:00:00	2024-11-08T18:00:00	2	Temperatura media	20.2
73218	7	Sololá	717	San Juan la Laguna	12	San Juan la Laguna	8	Agosto	2023-08-23T00:00:00	2024-11-08T18:00:00	4	Temperatura máxima	21.3
73219	7	Sololá	717	San Juan la Laguna	12	San Juan la Laguna	8	Agosto	2023-08-23T00:00:00	2024-11-08T18:00:00	3	Temperatura mínima	20.2
73220	7	Sololá	717	San Juan la Laguna	12	San Juan la Laguna	8	Agosto	2023-08-23T00:00:00	2024-11-08T18:00:00	5	Humedad	80
73221	7	Sololá	717	San Juan la Laguna	12	San Juan la Laguna	8	Agosto	2023-08-23T00:00:00	2024-11-08T18:00:00	6	Velocidad del viento	4.8
73222	7	Sololá	717	San Juan la Laguna	12	San Juan la Laguna	8	Agosto	2023-08-23T00:00:00	2024-11-08T18:00:00	7	Dirección del viento	4.83
73223	7	Sololá	717	San Juan la Laguna	12	San Juan la Laguna	8	Agosto	2023-08-23T00:00:00	2024-11-08T18:00:00	1	Precipitación	0
73224	7	Sololá	717	San Juan la Laguna	12	San Juan la Laguna	8	Agosto	2023-08-23T00:00:00	2024-11-08T18:00:00	8	Radiación solar	57
73225	7	Sololá	717	San Juan la Laguna	12	San Juan la Laguna	8	Agosto	2023-08-23T00:00:00	2024-11-08T19:00:00	2	Temperatura media	19.7
73226	7	Sololá	717	San Juan la Laguna	12	San Juan la Laguna	8	Agosto	2023-08-23T00:00:00	2024-11-08T19:00:00	4	Temperatura máxima	20.2
73227	7	Sololá	717	San Juan la Laguna	12	San Juan la Laguna	8	Agosto	2023-08-23T00:00:00	2024-11-08T19:00:00	3	Temperatura mínima	19.7
73228	7	Sololá	717	San Juan la Laguna	12	San Juan la Laguna	8	Agosto	2023-08-23T00:00:00	2024-11-08T19:00:00	5	Humedad	82
73229	7	Sololá	717	San Juan la Laguna	12	San Juan la Laguna	8	Agosto	2023-08-23T00:00:00	2024-11-08T19:00:00	6	Velocidad del viento	1.6
73230	7	Sololá	717	San Juan la Laguna	12	San Juan la Laguna	8	Agosto	2023-08-23T00:00:00	2024-11-08T19:00:00	7	Dirección del viento	1.61
73231	7	Sololá	717	San Juan la Laguna	12	San Juan la Laguna	8	Agosto	2023-08-23T00:00:00	2024-11-08T19:00:00	1	Precipitación	0
73232	7	Sololá	717	San Juan la Laguna	12	San Juan la Laguna	8	Agosto	2023-08-23T00:00:00	2024-11-08T19:00:00	8	Radiación solar	0
73233	7	Sololá	717	San Juan la Laguna	12	San Juan la Laguna	8	Agosto	2023-08-23T00:00:00	2024-11-08T20:00:00	2	Temperatura media	18.8
73234	7	Sololá	717	San Juan la Laguna	12	San Juan la Laguna	8	Agosto	2023-08-23T00:00:00	2024-11-08T20:00:00	4	Temperatura máxima	19.7
73235	7	Sololá	717	San Juan la Laguna	12	San Juan la Laguna	8	Agosto	2023-08-23T00:00:00	2024-11-08T20:00:00	3	Temperatura mínima	18.8
73236	7	Sololá	717	San Juan la Laguna	12	San Juan la Laguna	8	Agosto	2023-08-23T00:00:00	2024-11-08T20:00:00	5	Humedad	85
73237	7	Sololá	717	San Juan la Laguna	12	San Juan la Laguna	8	Agosto	2023-08-23T00:00:00	2024-11-08T20:00:00	6	Velocidad del viento	0
73238	7	Sololá	717	San Juan la Laguna	12	San Juan la Laguna	8	Agosto	2023-08-23T00:00:00	2024-11-08T20:00:00	7	Dirección del viento	0
73239	7	Sololá	717	San Juan la Laguna	12	San Juan la Laguna	8	Agosto	2023-08-23T00:00:00	2024-11-08T20:00:00	1	Precipitación	0
73240	7	Sololá	717	San Juan la Laguna	12	San Juan la Laguna	8	Agosto	2023-08-23T00:00:00	2024-11-08T20:00:00	8	Radiación solar	0
73241	7	Sololá	717	San Juan la Laguna	12	San Juan la Laguna	8	Agosto	2023-08-23T00:00:00	2024-11-08T21:00:00	2	Temperatura media	18.1
73242	7	Sololá	717	San Juan la Laguna	12	San Juan la Laguna	8	Agosto	2023-08-23T00:00:00	2024-11-08T21:00:00	4	Temperatura máxima	18.8
73243	7	Sololá	717	San Juan la Laguna	12	San Juan la Laguna	8	Agosto	2023-08-23T00:00:00	2024-11-08T21:00:00	3	Temperatura mínima	18.1
73244	7	Sololá	717	San Juan la Laguna	12	San Juan la Laguna	8	Agosto	2023-08-23T00:00:00	2024-11-08T21:00:00	5	Humedad	88
73245	7	Sololá	717	San Juan la Laguna	12	San Juan la Laguna	8	Agosto	2023-08-23T00:00:00	2024-11-08T21:00:00	6	Velocidad del viento	0
73246	7	Sololá	717	San Juan la Laguna	12	San Juan la Laguna	8	Agosto	2023-08-23T00:00:00	2024-11-08T21:00:00	7	Dirección del viento	0
73247	7	Sololá	717	San Juan la Laguna	12	San Juan la Laguna	8	Agosto	2023-08-23T00:00:00	2024-11-08T21:00:00	1	Precipitación	0
73248	7	Sololá	717	San Juan la Laguna	12	San Juan la Laguna	8	Agosto	2023-08-23T00:00:00	2024-11-08T21:00:00	8	Radiación solar	0
73249	7	Sololá	717	San Juan la Laguna	12	San Juan la Laguna	8	Agosto	2023-08-23T00:00:00	2024-11-08T22:00:00	2	Temperatura media	17.8
73250	7	Sololá	717	San Juan la Laguna	12	San Juan la Laguna	8	Agosto	2023-08-23T00:00:00	2024-11-08T22:00:00	4	Temperatura máxima	18.4
73251	7	Sololá	717	San Juan la Laguna	12	San Juan la Laguna	8	Agosto	2023-08-23T00:00:00	2024-11-08T22:00:00	3	Temperatura mínima	17.8
73252	7	Sololá	717	San Juan la Laguna	12	San Juan la Laguna	8	Agosto	2023-08-23T00:00:00	2024-11-08T22:00:00	5	Humedad	86
73253	7	Sololá	717	San Juan la Laguna	12	San Juan la Laguna	8	Agosto	2023-08-23T00:00:00	2024-11-08T22:00:00	6	Velocidad del viento	0
73254	7	Sololá	717	San Juan la Laguna	12	San Juan la Laguna	8	Agosto	2023-08-23T00:00:00	2024-11-08T22:00:00	7	Dirección del viento	0
73255	7	Sololá	717	San Juan la Laguna	12	San Juan la Laguna	8	Agosto	2023-08-23T00:00:00	2024-11-08T22:00:00	1	Precipitación	0
73256	7	Sololá	717	San Juan la Laguna	12	San Juan la Laguna	8	Agosto	2023-08-23T00:00:00	2024-11-08T22:00:00	8	Radiación solar	0
73257	7	Sololá	717	San Juan la Laguna	12	San Juan la Laguna	8	Agosto	2023-08-23T00:00:00	2024-11-08T23:00:00	2	Temperatura media	17.9
73258	7	Sololá	717	San Juan la Laguna	12	San Juan la Laguna	8	Agosto	2023-08-23T00:00:00	2024-11-08T23:00:00	4	Temperatura máxima	17.9
73259	7	Sololá	717	San Juan la Laguna	12	San Juan la Laguna	8	Agosto	2023-08-23T00:00:00	2024-11-08T23:00:00	3	Temperatura mínima	17.4
73260	7	Sololá	717	San Juan la Laguna	12	San Juan la Laguna	8	Agosto	2023-08-23T00:00:00	2024-11-08T23:00:00	5	Humedad	87
73261	7	Sololá	717	San Juan la Laguna	12	San Juan la Laguna	8	Agosto	2023-08-23T00:00:00	2024-11-08T23:00:00	6	Velocidad del viento	0
73262	7	Sololá	717	San Juan la Laguna	12	San Juan la Laguna	8	Agosto	2023-08-23T00:00:00	2024-11-08T23:00:00	7	Dirección del viento	0
73263	7	Sololá	717	San Juan la Laguna	12	San Juan la Laguna	8	Agosto	2023-08-23T00:00:00	2024-11-08T23:00:00	1	Precipitación	0
73264	7	Sololá	717	San Juan la Laguna	12	San Juan la Laguna	8	Agosto	2023-08-23T00:00:00	2024-11-08T23:00:00	8	Radiación solar	0
73265	7	Sololá	717	San Juan la Laguna	12	San Juan la Laguna	8	Agosto	2023-08-24T00:00:00	2024-11-08T00:00:00	2	Temperatura media	17.9
73266	7	Sololá	717	San Juan la Laguna	12	San Juan la Laguna	8	Agosto	2023-08-24T00:00:00	2024-11-08T00:00:00	4	Temperatura máxima	18.1
73267	7	Sololá	717	San Juan la Laguna	12	San Juan la Laguna	8	Agosto	2023-08-24T00:00:00	2024-11-08T00:00:00	3	Temperatura mínima	17.6
73268	7	Sololá	717	San Juan la Laguna	12	San Juan la Laguna	8	Agosto	2023-08-24T00:00:00	2024-11-08T00:00:00	5	Humedad	84
73269	7	Sololá	717	San Juan la Laguna	12	San Juan la Laguna	8	Agosto	2023-08-24T00:00:00	2024-11-08T00:00:00	6	Velocidad del viento	0
73270	7	Sololá	717	San Juan la Laguna	12	San Juan la Laguna	8	Agosto	2023-08-24T00:00:00	2024-11-08T00:00:00	7	Dirección del viento	0
73271	7	Sololá	717	San Juan la Laguna	12	San Juan la Laguna	8	Agosto	2023-08-24T00:00:00	2024-11-08T00:00:00	1	Precipitación	0
73272	7	Sololá	717	San Juan la Laguna	12	San Juan la Laguna	8	Agosto	2023-08-24T00:00:00	2024-11-08T00:00:00	8	Radiación solar	0
73273	7	Sololá	717	San Juan la Laguna	12	San Juan la Laguna	8	Agosto	2023-08-24T00:00:00	2024-11-08T01:00:00	2	Temperatura media	16.9
73274	7	Sololá	717	San Juan la Laguna	12	San Juan la Laguna	8	Agosto	2023-08-24T00:00:00	2024-11-08T01:00:00	4	Temperatura máxima	17.9
73275	7	Sololá	717	San Juan la Laguna	12	San Juan la Laguna	8	Agosto	2023-08-24T00:00:00	2024-11-08T01:00:00	3	Temperatura mínima	16.9
73276	7	Sololá	717	San Juan la Laguna	12	San Juan la Laguna	8	Agosto	2023-08-24T00:00:00	2024-11-08T01:00:00	5	Humedad	84
73277	7	Sololá	717	San Juan la Laguna	12	San Juan la Laguna	8	Agosto	2023-08-24T00:00:00	2024-11-08T01:00:00	6	Velocidad del viento	0
73278	7	Sololá	717	San Juan la Laguna	12	San Juan la Laguna	8	Agosto	2023-08-24T00:00:00	2024-11-08T01:00:00	7	Dirección del viento	0
73279	7	Sololá	717	San Juan la Laguna	12	San Juan la Laguna	8	Agosto	2023-08-24T00:00:00	2024-11-08T01:00:00	1	Precipitación	0
73280	7	Sololá	717	San Juan la Laguna	12	San Juan la Laguna	8	Agosto	2023-08-24T00:00:00	2024-11-08T01:00:00	8	Radiación solar	0
73281	7	Sololá	717	San Juan la Laguna	12	San Juan la Laguna	8	Agosto	2023-08-24T00:00:00	2024-11-08T02:00:00	2	Temperatura media	16.9
73282	7	Sololá	717	San Juan la Laguna	12	San Juan la Laguna	8	Agosto	2023-08-24T00:00:00	2024-11-08T02:00:00	4	Temperatura máxima	17.2
73283	7	Sololá	717	San Juan la Laguna	12	San Juan la Laguna	8	Agosto	2023-08-24T00:00:00	2024-11-08T02:00:00	3	Temperatura mínima	16.9
73284	7	Sololá	717	San Juan la Laguna	12	San Juan la Laguna	8	Agosto	2023-08-24T00:00:00	2024-11-08T02:00:00	5	Humedad	83
73285	7	Sololá	717	San Juan la Laguna	12	San Juan la Laguna	8	Agosto	2023-08-24T00:00:00	2024-11-08T02:00:00	6	Velocidad del viento	0
73286	7	Sololá	717	San Juan la Laguna	12	San Juan la Laguna	8	Agosto	2023-08-24T00:00:00	2024-11-08T02:00:00	7	Dirección del viento	0
73287	7	Sololá	717	San Juan la Laguna	12	San Juan la Laguna	8	Agosto	2023-08-24T00:00:00	2024-11-08T02:00:00	1	Precipitación	0
73288	7	Sololá	717	San Juan la Laguna	12	San Juan la Laguna	8	Agosto	2023-08-24T00:00:00	2024-11-08T02:00:00	8	Radiación solar	0
73289	7	Sololá	717	San Juan la Laguna	12	San Juan la Laguna	8	Agosto	2023-08-24T00:00:00	2024-11-08T03:00:00	2	Temperatura media	17.1
73290	7	Sololá	717	San Juan la Laguna	12	San Juan la Laguna	8	Agosto	2023-08-24T00:00:00	2024-11-08T03:00:00	4	Temperatura máxima	17.4
73291	7	Sololá	717	San Juan la Laguna	12	San Juan la Laguna	8	Agosto	2023-08-24T00:00:00	2024-11-08T03:00:00	3	Temperatura mínima	16.9
73292	7	Sololá	717	San Juan la Laguna	12	San Juan la Laguna	8	Agosto	2023-08-24T00:00:00	2024-11-08T03:00:00	5	Humedad	83
73293	7	Sololá	717	San Juan la Laguna	12	San Juan la Laguna	8	Agosto	2023-08-24T00:00:00	2024-11-08T03:00:00	6	Velocidad del viento	0
73294	7	Sololá	717	San Juan la Laguna	12	San Juan la Laguna	8	Agosto	2023-08-24T00:00:00	2024-11-08T03:00:00	7	Dirección del viento	0
73295	7	Sololá	717	San Juan la Laguna	12	San Juan la Laguna	8	Agosto	2023-08-24T00:00:00	2024-11-08T03:00:00	1	Precipitación	0
73296	7	Sololá	717	San Juan la Laguna	12	San Juan la Laguna	8	Agosto	2023-08-24T00:00:00	2024-11-08T03:00:00	8	Radiación solar	0
73297	7	Sololá	717	San Juan la Laguna	12	San Juan la Laguna	8	Agosto	2023-08-24T00:00:00	2024-11-08T04:00:00	2	Temperatura media	16.9
73298	7	Sololá	717	San Juan la Laguna	12	San Juan la Laguna	8	Agosto	2023-08-24T00:00:00	2024-11-08T04:00:00	4	Temperatura máxima	17.1
73299	7	Sololá	717	San Juan la Laguna	12	San Juan la Laguna	8	Agosto	2023-08-24T00:00:00	2024-11-08T04:00:00	3	Temperatura mínima	16.8
73300	7	Sololá	717	San Juan la Laguna	12	San Juan la Laguna	8	Agosto	2023-08-24T00:00:00	2024-11-08T04:00:00	5	Humedad	86
73301	7	Sololá	717	San Juan la Laguna	12	San Juan la Laguna	8	Agosto	2023-08-24T00:00:00	2024-11-08T04:00:00	6	Velocidad del viento	0
73302	7	Sololá	717	San Juan la Laguna	12	San Juan la Laguna	8	Agosto	2023-08-24T00:00:00	2024-11-08T04:00:00	7	Dirección del viento	0
73303	7	Sololá	717	San Juan la Laguna	12	San Juan la Laguna	8	Agosto	2023-08-24T00:00:00	2024-11-08T04:00:00	1	Precipitación	0
73304	7	Sololá	717	San Juan la Laguna	12	San Juan la Laguna	8	Agosto	2023-08-24T00:00:00	2024-11-08T04:00:00	8	Radiación solar	0
73305	7	Sololá	717	San Juan la Laguna	12	San Juan la Laguna	8	Agosto	2023-08-24T00:00:00	2024-11-08T05:00:00	2	Temperatura media	17.4
73306	7	Sololá	717	San Juan la Laguna	12	San Juan la Laguna	8	Agosto	2023-08-24T00:00:00	2024-11-08T05:00:00	4	Temperatura máxima	17.4
73307	7	Sololá	717	San Juan la Laguna	12	San Juan la Laguna	8	Agosto	2023-08-24T00:00:00	2024-11-08T05:00:00	3	Temperatura mínima	16.8
73308	7	Sololá	717	San Juan la Laguna	12	San Juan la Laguna	8	Agosto	2023-08-24T00:00:00	2024-11-08T05:00:00	5	Humedad	86
73309	7	Sololá	717	San Juan la Laguna	12	San Juan la Laguna	8	Agosto	2023-08-24T00:00:00	2024-11-08T05:00:00	6	Velocidad del viento	0
73310	7	Sololá	717	San Juan la Laguna	12	San Juan la Laguna	8	Agosto	2023-08-24T00:00:00	2024-11-08T05:00:00	7	Dirección del viento	0
73311	7	Sololá	717	San Juan la Laguna	12	San Juan la Laguna	8	Agosto	2023-08-24T00:00:00	2024-11-08T05:00:00	1	Precipitación	0
73312	7	Sololá	717	San Juan la Laguna	12	San Juan la Laguna	8	Agosto	2023-08-24T00:00:00	2024-11-08T05:00:00	8	Radiación solar	0
73313	7	Sololá	717	San Juan la Laguna	12	San Juan la Laguna	8	Agosto	2023-08-24T00:00:00	2024-11-08T06:00:00	2	Temperatura media	17.5
73314	7	Sololá	717	San Juan la Laguna	12	San Juan la Laguna	8	Agosto	2023-08-24T00:00:00	2024-11-08T06:00:00	4	Temperatura máxima	17.5
73315	7	Sololá	717	San Juan la Laguna	12	San Juan la Laguna	8	Agosto	2023-08-24T00:00:00	2024-11-08T06:00:00	3	Temperatura mínima	17.3
73316	7	Sololá	717	San Juan la Laguna	12	San Juan la Laguna	8	Agosto	2023-08-24T00:00:00	2024-11-08T06:00:00	5	Humedad	86
73317	7	Sololá	717	San Juan la Laguna	12	San Juan la Laguna	8	Agosto	2023-08-24T00:00:00	2024-11-08T06:00:00	6	Velocidad del viento	0
73318	7	Sololá	717	San Juan la Laguna	12	San Juan la Laguna	8	Agosto	2023-08-24T00:00:00	2024-11-08T06:00:00	7	Dirección del viento	0
73319	7	Sololá	717	San Juan la Laguna	12	San Juan la Laguna	8	Agosto	2023-08-24T00:00:00	2024-11-08T06:00:00	1	Precipitación	0
73320	7	Sololá	717	San Juan la Laguna	12	San Juan la Laguna	8	Agosto	2023-08-24T00:00:00	2024-11-08T06:00:00	8	Radiación solar	0
73321	7	Sololá	717	San Juan la Laguna	12	San Juan la Laguna	8	Agosto	2023-08-24T00:00:00	2024-11-08T07:00:00	2	Temperatura media	18.1
73322	7	Sololá	717	San Juan la Laguna	12	San Juan la Laguna	8	Agosto	2023-08-24T00:00:00	2024-11-08T07:00:00	4	Temperatura máxima	18.1
73323	7	Sololá	717	San Juan la Laguna	12	San Juan la Laguna	8	Agosto	2023-08-24T00:00:00	2024-11-08T07:00:00	3	Temperatura mínima	17.4
73324	7	Sololá	717	San Juan la Laguna	12	San Juan la Laguna	8	Agosto	2023-08-24T00:00:00	2024-11-08T07:00:00	5	Humedad	86
73325	7	Sololá	717	San Juan la Laguna	12	San Juan la Laguna	8	Agosto	2023-08-24T00:00:00	2024-11-08T07:00:00	6	Velocidad del viento	0
73326	7	Sololá	717	San Juan la Laguna	12	San Juan la Laguna	8	Agosto	2023-08-24T00:00:00	2024-11-08T07:00:00	7	Dirección del viento	0
73327	7	Sololá	717	San Juan la Laguna	12	San Juan la Laguna	8	Agosto	2023-08-24T00:00:00	2024-11-08T07:00:00	1	Precipitación	0
73328	7	Sololá	717	San Juan la Laguna	12	San Juan la Laguna	8	Agosto	2023-08-24T00:00:00	2024-11-08T07:00:00	8	Radiación solar	35
73329	7	Sololá	717	San Juan la Laguna	12	San Juan la Laguna	8	Agosto	2023-08-24T00:00:00	2024-11-08T08:00:00	2	Temperatura media	19.4
73330	7	Sololá	717	San Juan la Laguna	12	San Juan la Laguna	8	Agosto	2023-08-24T00:00:00	2024-11-08T08:00:00	4	Temperatura máxima	19.4
73331	7	Sololá	717	San Juan la Laguna	12	San Juan la Laguna	8	Agosto	2023-08-24T00:00:00	2024-11-08T08:00:00	3	Temperatura mínima	18.1
73332	7	Sololá	717	San Juan la Laguna	12	San Juan la Laguna	8	Agosto	2023-08-24T00:00:00	2024-11-08T08:00:00	5	Humedad	82
73333	7	Sololá	717	San Juan la Laguna	12	San Juan la Laguna	8	Agosto	2023-08-24T00:00:00	2024-11-08T08:00:00	6	Velocidad del viento	0
73334	7	Sololá	717	San Juan la Laguna	12	San Juan la Laguna	8	Agosto	2023-08-24T00:00:00	2024-11-08T08:00:00	7	Dirección del viento	0
73335	7	Sololá	717	San Juan la Laguna	12	San Juan la Laguna	8	Agosto	2023-08-24T00:00:00	2024-11-08T08:00:00	1	Precipitación	0
73336	7	Sololá	717	San Juan la Laguna	12	San Juan la Laguna	8	Agosto	2023-08-24T00:00:00	2024-11-08T08:00:00	8	Radiación solar	115
73337	7	Sololá	717	San Juan la Laguna	12	San Juan la Laguna	8	Agosto	2023-08-24T00:00:00	2024-11-08T09:00:00	2	Temperatura media	19.8
73338	7	Sololá	717	San Juan la Laguna	12	San Juan la Laguna	8	Agosto	2023-08-24T00:00:00	2024-11-08T09:00:00	4	Temperatura máxima	19.8
73339	7	Sololá	717	San Juan la Laguna	12	San Juan la Laguna	8	Agosto	2023-08-24T00:00:00	2024-11-08T09:00:00	3	Temperatura mínima	19.4
73340	7	Sololá	717	San Juan la Laguna	12	San Juan la Laguna	8	Agosto	2023-08-24T00:00:00	2024-11-08T09:00:00	5	Humedad	79
73341	7	Sololá	717	San Juan la Laguna	12	San Juan la Laguna	8	Agosto	2023-08-24T00:00:00	2024-11-08T09:00:00	6	Velocidad del viento	0
73342	7	Sololá	717	San Juan la Laguna	12	San Juan la Laguna	8	Agosto	2023-08-24T00:00:00	2024-11-08T09:00:00	7	Dirección del viento	0
73343	7	Sololá	717	San Juan la Laguna	12	San Juan la Laguna	8	Agosto	2023-08-24T00:00:00	2024-11-08T09:00:00	1	Precipitación	0
73344	7	Sololá	717	San Juan la Laguna	12	San Juan la Laguna	8	Agosto	2023-08-24T00:00:00	2024-11-08T09:00:00	8	Radiación solar	147
73345	7	Sololá	717	San Juan la Laguna	12	San Juan la Laguna	8	Agosto	2023-08-24T00:00:00	2024-11-08T10:00:00	2	Temperatura media	20.7
73346	7	Sololá	717	San Juan la Laguna	12	San Juan la Laguna	8	Agosto	2023-08-24T00:00:00	2024-11-08T10:00:00	4	Temperatura máxima	20.9
73347	7	Sololá	717	San Juan la Laguna	12	San Juan la Laguna	8	Agosto	2023-08-24T00:00:00	2024-11-08T10:00:00	3	Temperatura mínima	19.8
73348	7	Sololá	717	San Juan la Laguna	12	San Juan la Laguna	8	Agosto	2023-08-24T00:00:00	2024-11-08T10:00:00	5	Humedad	76
73349	7	Sololá	717	San Juan la Laguna	12	San Juan la Laguna	8	Agosto	2023-08-24T00:00:00	2024-11-08T10:00:00	6	Velocidad del viento	0
73350	7	Sololá	717	San Juan la Laguna	12	San Juan la Laguna	8	Agosto	2023-08-24T00:00:00	2024-11-08T10:00:00	7	Dirección del viento	0
73351	7	Sololá	717	San Juan la Laguna	12	San Juan la Laguna	8	Agosto	2023-08-24T00:00:00	2024-11-08T10:00:00	1	Precipitación	0
73352	7	Sololá	717	San Juan la Laguna	12	San Juan la Laguna	8	Agosto	2023-08-24T00:00:00	2024-11-08T10:00:00	8	Radiación solar	235
73353	7	Sololá	717	San Juan la Laguna	12	San Juan la Laguna	8	Agosto	2023-08-24T00:00:00	2024-11-08T11:00:00	2	Temperatura media	20.9
73354	7	Sololá	717	San Juan la Laguna	12	San Juan la Laguna	8	Agosto	2023-08-24T00:00:00	2024-11-08T11:00:00	4	Temperatura máxima	20.9
73355	7	Sololá	717	San Juan la Laguna	12	San Juan la Laguna	8	Agosto	2023-08-24T00:00:00	2024-11-08T11:00:00	3	Temperatura mínima	20.4
73356	7	Sololá	717	San Juan la Laguna	12	San Juan la Laguna	8	Agosto	2023-08-24T00:00:00	2024-11-08T11:00:00	5	Humedad	75
73357	7	Sololá	717	San Juan la Laguna	12	San Juan la Laguna	8	Agosto	2023-08-24T00:00:00	2024-11-08T11:00:00	6	Velocidad del viento	1.6
73358	7	Sololá	717	San Juan la Laguna	12	San Juan la Laguna	8	Agosto	2023-08-24T00:00:00	2024-11-08T11:00:00	7	Dirección del viento	1.61
73359	7	Sololá	717	San Juan la Laguna	12	San Juan la Laguna	8	Agosto	2023-08-24T00:00:00	2024-11-08T11:00:00	1	Precipitación	0
73360	7	Sololá	717	San Juan la Laguna	12	San Juan la Laguna	8	Agosto	2023-08-24T00:00:00	2024-11-08T11:00:00	8	Radiación solar	338
73361	7	Sololá	717	San Juan la Laguna	12	San Juan la Laguna	8	Agosto	2023-08-24T00:00:00	2024-11-08T12:00:00	2	Temperatura media	21.9
73362	7	Sololá	717	San Juan la Laguna	12	San Juan la Laguna	8	Agosto	2023-08-24T00:00:00	2024-11-08T12:00:00	4	Temperatura máxima	21.9
73363	7	Sololá	717	San Juan la Laguna	12	San Juan la Laguna	8	Agosto	2023-08-24T00:00:00	2024-11-08T12:00:00	3	Temperatura mínima	20.9
73364	7	Sololá	717	San Juan la Laguna	12	San Juan la Laguna	8	Agosto	2023-08-24T00:00:00	2024-11-08T12:00:00	5	Humedad	73
73365	7	Sololá	717	San Juan la Laguna	12	San Juan la Laguna	8	Agosto	2023-08-24T00:00:00	2024-11-08T12:00:00	6	Velocidad del viento	0
73366	7	Sololá	717	San Juan la Laguna	12	San Juan la Laguna	8	Agosto	2023-08-24T00:00:00	2024-11-08T12:00:00	7	Dirección del viento	0
73367	7	Sololá	717	San Juan la Laguna	12	San Juan la Laguna	8	Agosto	2023-08-24T00:00:00	2024-11-08T12:00:00	1	Precipitación	0
73368	7	Sololá	717	San Juan la Laguna	12	San Juan la Laguna	8	Agosto	2023-08-24T00:00:00	2024-11-08T12:00:00	8	Radiación solar	459
73369	7	Sololá	717	San Juan la Laguna	12	San Juan la Laguna	8	Agosto	2023-08-24T00:00:00	2024-11-08T13:00:00	2	Temperatura media	22.5
73370	7	Sololá	717	San Juan la Laguna	12	San Juan la Laguna	8	Agosto	2023-08-24T00:00:00	2024-11-08T13:00:00	4	Temperatura máxima	22.6
73371	7	Sololá	717	San Juan la Laguna	12	San Juan la Laguna	8	Agosto	2023-08-24T00:00:00	2024-11-08T13:00:00	3	Temperatura mínima	21.7
73372	7	Sololá	717	San Juan la Laguna	12	San Juan la Laguna	8	Agosto	2023-08-24T00:00:00	2024-11-08T13:00:00	5	Humedad	71
73373	7	Sololá	717	San Juan la Laguna	12	San Juan la Laguna	8	Agosto	2023-08-24T00:00:00	2024-11-08T13:00:00	6	Velocidad del viento	0
73374	7	Sololá	717	San Juan la Laguna	12	San Juan la Laguna	8	Agosto	2023-08-24T00:00:00	2024-11-08T13:00:00	7	Dirección del viento	0
73375	7	Sololá	717	San Juan la Laguna	12	San Juan la Laguna	8	Agosto	2023-08-24T00:00:00	2024-11-08T13:00:00	1	Precipitación	0
73376	7	Sololá	717	San Juan la Laguna	12	San Juan la Laguna	8	Agosto	2023-08-24T00:00:00	2024-11-08T13:00:00	8	Radiación solar	695
73377	7	Sololá	717	San Juan la Laguna	12	San Juan la Laguna	8	Agosto	2023-08-24T00:00:00	2024-11-08T14:00:00	2	Temperatura media	21
73378	7	Sololá	717	San Juan la Laguna	12	San Juan la Laguna	8	Agosto	2023-08-24T00:00:00	2024-11-08T14:00:00	4	Temperatura máxima	22.5
73379	7	Sololá	717	San Juan la Laguna	12	San Juan la Laguna	8	Agosto	2023-08-24T00:00:00	2024-11-08T14:00:00	3	Temperatura mínima	21
73380	7	Sololá	717	San Juan la Laguna	12	San Juan la Laguna	8	Agosto	2023-08-24T00:00:00	2024-11-08T14:00:00	5	Humedad	77
73381	7	Sololá	717	San Juan la Laguna	12	San Juan la Laguna	8	Agosto	2023-08-24T00:00:00	2024-11-08T14:00:00	6	Velocidad del viento	0
73382	7	Sololá	717	San Juan la Laguna	12	San Juan la Laguna	8	Agosto	2023-08-24T00:00:00	2024-11-08T14:00:00	7	Dirección del viento	0
73383	7	Sololá	717	San Juan la Laguna	12	San Juan la Laguna	8	Agosto	2023-08-24T00:00:00	2024-11-08T14:00:00	1	Precipitación	0
73384	7	Sololá	717	San Juan la Laguna	12	San Juan la Laguna	8	Agosto	2023-08-24T00:00:00	2024-11-08T14:00:00	8	Radiación solar	336
73385	7	Sololá	717	San Juan la Laguna	12	San Juan la Laguna	8	Agosto	2023-08-24T00:00:00	2024-11-08T15:00:00	2	Temperatura media	20
73386	7	Sololá	717	San Juan la Laguna	12	San Juan la Laguna	8	Agosto	2023-08-24T00:00:00	2024-11-08T15:00:00	4	Temperatura máxima	21.2
73387	7	Sololá	717	San Juan la Laguna	12	San Juan la Laguna	8	Agosto	2023-08-24T00:00:00	2024-11-08T15:00:00	3	Temperatura mínima	20
73388	7	Sololá	717	San Juan la Laguna	12	San Juan la Laguna	8	Agosto	2023-08-24T00:00:00	2024-11-08T15:00:00	5	Humedad	84
73389	7	Sololá	717	San Juan la Laguna	12	San Juan la Laguna	8	Agosto	2023-08-24T00:00:00	2024-11-08T15:00:00	6	Velocidad del viento	0
73390	7	Sololá	717	San Juan la Laguna	12	San Juan la Laguna	8	Agosto	2023-08-24T00:00:00	2024-11-08T15:00:00	7	Dirección del viento	0
73391	7	Sololá	717	San Juan la Laguna	12	San Juan la Laguna	8	Agosto	2023-08-24T00:00:00	2024-11-08T15:00:00	1	Precipitación	0.4
73392	7	Sololá	717	San Juan la Laguna	12	San Juan la Laguna	8	Agosto	2023-08-24T00:00:00	2024-11-08T15:00:00	8	Radiación solar	199
73393	7	Sololá	717	San Juan la Laguna	12	San Juan la Laguna	8	Agosto	2023-08-24T00:00:00	2024-11-08T16:00:00	2	Temperatura media	20.4
73394	7	Sololá	717	San Juan la Laguna	12	San Juan la Laguna	8	Agosto	2023-08-24T00:00:00	2024-11-08T16:00:00	4	Temperatura máxima	20.5
73395	7	Sololá	717	San Juan la Laguna	12	San Juan la Laguna	8	Agosto	2023-08-24T00:00:00	2024-11-08T16:00:00	3	Temperatura mínima	19.8
73396	7	Sololá	717	San Juan la Laguna	12	San Juan la Laguna	8	Agosto	2023-08-24T00:00:00	2024-11-08T16:00:00	5	Humedad	82
73397	7	Sololá	717	San Juan la Laguna	12	San Juan la Laguna	8	Agosto	2023-08-24T00:00:00	2024-11-08T16:00:00	6	Velocidad del viento	0
73398	7	Sololá	717	San Juan la Laguna	12	San Juan la Laguna	8	Agosto	2023-08-24T00:00:00	2024-11-08T16:00:00	7	Dirección del viento	0
73399	7	Sololá	717	San Juan la Laguna	12	San Juan la Laguna	8	Agosto	2023-08-24T00:00:00	2024-11-08T16:00:00	1	Precipitación	0.6
73400	7	Sololá	717	San Juan la Laguna	12	San Juan la Laguna	8	Agosto	2023-08-24T00:00:00	2024-11-08T16:00:00	8	Radiación solar	248
73401	7	Sololá	717	San Juan la Laguna	12	San Juan la Laguna	8	Agosto	2023-08-24T00:00:00	2024-11-08T17:00:00	2	Temperatura media	20.3
73402	7	Sololá	717	San Juan la Laguna	12	San Juan la Laguna	8	Agosto	2023-08-24T00:00:00	2024-11-08T17:00:00	4	Temperatura máxima	20.6
73403	7	Sololá	717	San Juan la Laguna	12	San Juan la Laguna	8	Agosto	2023-08-24T00:00:00	2024-11-08T17:00:00	3	Temperatura mínima	20.3
73404	7	Sololá	717	San Juan la Laguna	12	San Juan la Laguna	8	Agosto	2023-08-24T00:00:00	2024-11-08T17:00:00	5	Humedad	82
73405	7	Sololá	717	San Juan la Laguna	12	San Juan la Laguna	8	Agosto	2023-08-24T00:00:00	2024-11-08T17:00:00	6	Velocidad del viento	0
73406	7	Sololá	717	San Juan la Laguna	12	San Juan la Laguna	8	Agosto	2023-08-24T00:00:00	2024-11-08T17:00:00	7	Dirección del viento	0
73407	7	Sololá	717	San Juan la Laguna	12	San Juan la Laguna	8	Agosto	2023-08-24T00:00:00	2024-11-08T17:00:00	1	Precipitación	0
73408	7	Sololá	717	San Juan la Laguna	12	San Juan la Laguna	8	Agosto	2023-08-24T00:00:00	2024-11-08T17:00:00	8	Radiación solar	135
73409	7	Sololá	717	San Juan la Laguna	12	San Juan la Laguna	8	Agosto	2023-08-24T00:00:00	2024-11-08T18:00:00	2	Temperatura media	19.8
73410	7	Sololá	717	San Juan la Laguna	12	San Juan la Laguna	8	Agosto	2023-08-24T00:00:00	2024-11-08T18:00:00	4	Temperatura máxima	20.3
73411	7	Sololá	717	San Juan la Laguna	12	San Juan la Laguna	8	Agosto	2023-08-24T00:00:00	2024-11-08T18:00:00	3	Temperatura mínima	19.8
73412	7	Sololá	717	San Juan la Laguna	12	San Juan la Laguna	8	Agosto	2023-08-24T00:00:00	2024-11-08T18:00:00	5	Humedad	87
73413	7	Sololá	717	San Juan la Laguna	12	San Juan la Laguna	8	Agosto	2023-08-24T00:00:00	2024-11-08T18:00:00	6	Velocidad del viento	0
73414	7	Sololá	717	San Juan la Laguna	12	San Juan la Laguna	8	Agosto	2023-08-24T00:00:00	2024-11-08T18:00:00	7	Dirección del viento	0
73415	7	Sololá	717	San Juan la Laguna	12	San Juan la Laguna	8	Agosto	2023-08-24T00:00:00	2024-11-08T18:00:00	1	Precipitación	0
73416	7	Sololá	717	San Juan la Laguna	12	San Juan la Laguna	8	Agosto	2023-08-24T00:00:00	2024-11-08T18:00:00	8	Radiación solar	46
73417	7	Sololá	717	San Juan la Laguna	12	San Juan la Laguna	8	Agosto	2023-08-24T00:00:00	2024-11-08T19:00:00	2	Temperatura media	18.5
73418	7	Sololá	717	San Juan la Laguna	12	San Juan la Laguna	8	Agosto	2023-08-24T00:00:00	2024-11-08T19:00:00	4	Temperatura máxima	19.8
73419	7	Sololá	717	San Juan la Laguna	12	San Juan la Laguna	8	Agosto	2023-08-24T00:00:00	2024-11-08T19:00:00	3	Temperatura mínima	18.5
73420	7	Sololá	717	San Juan la Laguna	12	San Juan la Laguna	8	Agosto	2023-08-24T00:00:00	2024-11-08T19:00:00	5	Humedad	90
73421	7	Sololá	717	San Juan la Laguna	12	San Juan la Laguna	8	Agosto	2023-08-24T00:00:00	2024-11-08T19:00:00	6	Velocidad del viento	0
73422	7	Sololá	717	San Juan la Laguna	12	San Juan la Laguna	8	Agosto	2023-08-24T00:00:00	2024-11-08T19:00:00	7	Dirección del viento	0
73423	7	Sololá	717	San Juan la Laguna	12	San Juan la Laguna	8	Agosto	2023-08-24T00:00:00	2024-11-08T19:00:00	1	Precipitación	0
73424	7	Sololá	717	San Juan la Laguna	12	San Juan la Laguna	8	Agosto	2023-08-24T00:00:00	2024-11-08T19:00:00	8	Radiación solar	0
73425	7	Sololá	717	San Juan la Laguna	12	San Juan la Laguna	8	Agosto	2023-08-24T00:00:00	2024-11-08T20:00:00	2	Temperatura media	17.8
73426	7	Sololá	717	San Juan la Laguna	12	San Juan la Laguna	8	Agosto	2023-08-24T00:00:00	2024-11-08T20:00:00	4	Temperatura máxima	18.5
73427	7	Sololá	717	San Juan la Laguna	12	San Juan la Laguna	8	Agosto	2023-08-24T00:00:00	2024-11-08T20:00:00	3	Temperatura mínima	17.8
73428	7	Sololá	717	San Juan la Laguna	12	San Juan la Laguna	8	Agosto	2023-08-24T00:00:00	2024-11-08T20:00:00	5	Humedad	86
73429	7	Sololá	717	San Juan la Laguna	12	San Juan la Laguna	8	Agosto	2023-08-24T00:00:00	2024-11-08T20:00:00	6	Velocidad del viento	0
73430	7	Sololá	717	San Juan la Laguna	12	San Juan la Laguna	8	Agosto	2023-08-24T00:00:00	2024-11-08T20:00:00	7	Dirección del viento	0
73431	7	Sololá	717	San Juan la Laguna	12	San Juan la Laguna	8	Agosto	2023-08-24T00:00:00	2024-11-08T20:00:00	1	Precipitación	0
73432	7	Sololá	717	San Juan la Laguna	12	San Juan la Laguna	8	Agosto	2023-08-24T00:00:00	2024-11-08T20:00:00	8	Radiación solar	0
73433	7	Sololá	717	San Juan la Laguna	12	San Juan la Laguna	8	Agosto	2023-08-24T00:00:00	2024-11-08T21:00:00	2	Temperatura media	17.8
73434	7	Sololá	717	San Juan la Laguna	12	San Juan la Laguna	8	Agosto	2023-08-24T00:00:00	2024-11-08T21:00:00	4	Temperatura máxima	18
73435	7	Sololá	717	San Juan la Laguna	12	San Juan la Laguna	8	Agosto	2023-08-24T00:00:00	2024-11-08T21:00:00	3	Temperatura mínima	17.7
73436	7	Sololá	717	San Juan la Laguna	12	San Juan la Laguna	8	Agosto	2023-08-24T00:00:00	2024-11-08T21:00:00	5	Humedad	84
73437	7	Sololá	717	San Juan la Laguna	12	San Juan la Laguna	8	Agosto	2023-08-24T00:00:00	2024-11-08T21:00:00	6	Velocidad del viento	0
73438	7	Sololá	717	San Juan la Laguna	12	San Juan la Laguna	8	Agosto	2023-08-24T00:00:00	2024-11-08T21:00:00	7	Dirección del viento	0
73439	7	Sololá	717	San Juan la Laguna	12	San Juan la Laguna	8	Agosto	2023-08-24T00:00:00	2024-11-08T21:00:00	1	Precipitación	0
73440	7	Sololá	717	San Juan la Laguna	12	San Juan la Laguna	8	Agosto	2023-08-24T00:00:00	2024-11-08T21:00:00	8	Radiación solar	0
73441	7	Sololá	717	San Juan la Laguna	12	San Juan la Laguna	8	Agosto	2023-08-24T00:00:00	2024-11-08T22:00:00	2	Temperatura media	16.9
73442	7	Sololá	717	San Juan la Laguna	12	San Juan la Laguna	8	Agosto	2023-08-24T00:00:00	2024-11-08T22:00:00	4	Temperatura máxima	17.8
73443	7	Sololá	717	San Juan la Laguna	12	San Juan la Laguna	8	Agosto	2023-08-24T00:00:00	2024-11-08T22:00:00	3	Temperatura mínima	16.9
73444	7	Sololá	717	San Juan la Laguna	12	San Juan la Laguna	8	Agosto	2023-08-24T00:00:00	2024-11-08T22:00:00	5	Humedad	86
73445	7	Sololá	717	San Juan la Laguna	12	San Juan la Laguna	8	Agosto	2023-08-24T00:00:00	2024-11-08T22:00:00	6	Velocidad del viento	0
73446	7	Sololá	717	San Juan la Laguna	12	San Juan la Laguna	8	Agosto	2023-08-24T00:00:00	2024-11-08T22:00:00	7	Dirección del viento	0
73447	7	Sololá	717	San Juan la Laguna	12	San Juan la Laguna	8	Agosto	2023-08-24T00:00:00	2024-11-08T22:00:00	1	Precipitación	0
73448	7	Sololá	717	San Juan la Laguna	12	San Juan la Laguna	8	Agosto	2023-08-24T00:00:00	2024-11-08T22:00:00	8	Radiación solar	0
73449	7	Sololá	717	San Juan la Laguna	12	San Juan la Laguna	8	Agosto	2023-08-24T00:00:00	2024-11-08T23:00:00	2	Temperatura media	17.8
73450	7	Sololá	717	San Juan la Laguna	12	San Juan la Laguna	8	Agosto	2023-08-24T00:00:00	2024-11-08T23:00:00	4	Temperatura máxima	17.8
73451	7	Sololá	717	San Juan la Laguna	12	San Juan la Laguna	8	Agosto	2023-08-24T00:00:00	2024-11-08T23:00:00	3	Temperatura mínima	16.9
73452	7	Sololá	717	San Juan la Laguna	12	San Juan la Laguna	8	Agosto	2023-08-24T00:00:00	2024-11-08T23:00:00	5	Humedad	85
73453	7	Sololá	717	San Juan la Laguna	12	San Juan la Laguna	8	Agosto	2023-08-24T00:00:00	2024-11-08T23:00:00	6	Velocidad del viento	0
73454	7	Sololá	717	San Juan la Laguna	12	San Juan la Laguna	8	Agosto	2023-08-24T00:00:00	2024-11-08T23:00:00	7	Dirección del viento	0
73455	7	Sololá	717	San Juan la Laguna	12	San Juan la Laguna	8	Agosto	2023-08-24T00:00:00	2024-11-08T23:00:00	1	Precipitación	0
73456	7	Sololá	717	San Juan la Laguna	12	San Juan la Laguna	8	Agosto	2023-08-24T00:00:00	2024-11-08T23:00:00	8	Radiación solar	0
73457	7	Sololá	717	San Juan la Laguna	12	San Juan la Laguna	8	Agosto	2023-08-25T00:00:00	2024-11-08T00:00:00	2	Temperatura media	17.6
73458	7	Sololá	717	San Juan la Laguna	12	San Juan la Laguna	8	Agosto	2023-08-25T00:00:00	2024-11-08T00:00:00	4	Temperatura máxima	18
73459	7	Sololá	717	San Juan la Laguna	12	San Juan la Laguna	8	Agosto	2023-08-25T00:00:00	2024-11-08T00:00:00	3	Temperatura mínima	17.4
73460	7	Sololá	717	San Juan la Laguna	12	San Juan la Laguna	8	Agosto	2023-08-25T00:00:00	2024-11-08T00:00:00	5	Humedad	88
73461	7	Sololá	717	San Juan la Laguna	12	San Juan la Laguna	8	Agosto	2023-08-25T00:00:00	2024-11-08T00:00:00	6	Velocidad del viento	0
73462	7	Sololá	717	San Juan la Laguna	12	San Juan la Laguna	8	Agosto	2023-08-25T00:00:00	2024-11-08T00:00:00	7	Dirección del viento	0
73463	7	Sololá	717	San Juan la Laguna	12	San Juan la Laguna	8	Agosto	2023-08-25T00:00:00	2024-11-08T00:00:00	1	Precipitación	0
73464	7	Sololá	717	San Juan la Laguna	12	San Juan la Laguna	8	Agosto	2023-08-25T00:00:00	2024-11-08T00:00:00	8	Radiación solar	0
73465	7	Sololá	717	San Juan la Laguna	12	San Juan la Laguna	8	Agosto	2023-08-25T00:00:00	2024-11-08T01:00:00	2	Temperatura media	17.6
73466	7	Sololá	717	San Juan la Laguna	12	San Juan la Laguna	8	Agosto	2023-08-25T00:00:00	2024-11-08T01:00:00	4	Temperatura máxima	17.6
73467	7	Sololá	717	San Juan la Laguna	12	San Juan la Laguna	8	Agosto	2023-08-25T00:00:00	2024-11-08T01:00:00	3	Temperatura mínima	17.5
73468	7	Sololá	717	San Juan la Laguna	12	San Juan la Laguna	8	Agosto	2023-08-25T00:00:00	2024-11-08T01:00:00	5	Humedad	88
73469	7	Sololá	717	San Juan la Laguna	12	San Juan la Laguna	8	Agosto	2023-08-25T00:00:00	2024-11-08T01:00:00	6	Velocidad del viento	0
73470	7	Sololá	717	San Juan la Laguna	12	San Juan la Laguna	8	Agosto	2023-08-25T00:00:00	2024-11-08T01:00:00	7	Dirección del viento	0
73471	7	Sololá	717	San Juan la Laguna	12	San Juan la Laguna	8	Agosto	2023-08-25T00:00:00	2024-11-08T01:00:00	1	Precipitación	0
73472	7	Sololá	717	San Juan la Laguna	12	San Juan la Laguna	8	Agosto	2023-08-25T00:00:00	2024-11-08T01:00:00	8	Radiación solar	0
73473	7	Sololá	717	San Juan la Laguna	12	San Juan la Laguna	8	Agosto	2023-08-25T00:00:00	2024-11-08T02:00:00	2	Temperatura media	16.8
73474	7	Sololá	717	San Juan la Laguna	12	San Juan la Laguna	8	Agosto	2023-08-25T00:00:00	2024-11-08T02:00:00	4	Temperatura máxima	17.6
73475	7	Sololá	717	San Juan la Laguna	12	San Juan la Laguna	8	Agosto	2023-08-25T00:00:00	2024-11-08T02:00:00	3	Temperatura mínima	16.8
73476	7	Sololá	717	San Juan la Laguna	12	San Juan la Laguna	8	Agosto	2023-08-25T00:00:00	2024-11-08T02:00:00	5	Humedad	89
73477	7	Sololá	717	San Juan la Laguna	12	San Juan la Laguna	8	Agosto	2023-08-25T00:00:00	2024-11-08T02:00:00	6	Velocidad del viento	0
73478	7	Sololá	717	San Juan la Laguna	12	San Juan la Laguna	8	Agosto	2023-08-25T00:00:00	2024-11-08T02:00:00	7	Dirección del viento	0
73479	7	Sololá	717	San Juan la Laguna	12	San Juan la Laguna	8	Agosto	2023-08-25T00:00:00	2024-11-08T02:00:00	1	Precipitación	0
73480	7	Sololá	717	San Juan la Laguna	12	San Juan la Laguna	8	Agosto	2023-08-25T00:00:00	2024-11-08T02:00:00	8	Radiación solar	0
73481	7	Sololá	717	San Juan la Laguna	12	San Juan la Laguna	8	Agosto	2023-08-25T00:00:00	2024-11-08T03:00:00	2	Temperatura media	16.7
73482	7	Sololá	717	San Juan la Laguna	12	San Juan la Laguna	8	Agosto	2023-08-25T00:00:00	2024-11-08T03:00:00	4	Temperatura máxima	16.9
73483	7	Sololá	717	San Juan la Laguna	12	San Juan la Laguna	8	Agosto	2023-08-25T00:00:00	2024-11-08T03:00:00	3	Temperatura mínima	16.7
73484	7	Sololá	717	San Juan la Laguna	12	San Juan la Laguna	8	Agosto	2023-08-25T00:00:00	2024-11-08T03:00:00	5	Humedad	90
73485	7	Sololá	717	San Juan la Laguna	12	San Juan la Laguna	8	Agosto	2023-08-25T00:00:00	2024-11-08T03:00:00	6	Velocidad del viento	0
73486	7	Sololá	717	San Juan la Laguna	12	San Juan la Laguna	8	Agosto	2023-08-25T00:00:00	2024-11-08T03:00:00	7	Dirección del viento	0
73487	7	Sololá	717	San Juan la Laguna	12	San Juan la Laguna	8	Agosto	2023-08-25T00:00:00	2024-11-08T03:00:00	1	Precipitación	0
73488	7	Sololá	717	San Juan la Laguna	12	San Juan la Laguna	8	Agosto	2023-08-25T00:00:00	2024-11-08T03:00:00	8	Radiación solar	0
73489	7	Sololá	717	San Juan la Laguna	12	San Juan la Laguna	8	Agosto	2023-08-25T00:00:00	2024-11-08T04:00:00	2	Temperatura media	16.4
73490	7	Sololá	717	San Juan la Laguna	12	San Juan la Laguna	8	Agosto	2023-08-25T00:00:00	2024-11-08T04:00:00	4	Temperatura máxima	16.7
73491	7	Sololá	717	San Juan la Laguna	12	San Juan la Laguna	8	Agosto	2023-08-25T00:00:00	2024-11-08T04:00:00	3	Temperatura mínima	16.2
73492	7	Sololá	717	San Juan la Laguna	12	San Juan la Laguna	8	Agosto	2023-08-25T00:00:00	2024-11-08T04:00:00	5	Humedad	89
73493	7	Sololá	717	San Juan la Laguna	12	San Juan la Laguna	8	Agosto	2023-08-25T00:00:00	2024-11-08T04:00:00	6	Velocidad del viento	0
73494	7	Sololá	717	San Juan la Laguna	12	San Juan la Laguna	8	Agosto	2023-08-25T00:00:00	2024-11-08T04:00:00	7	Dirección del viento	0
73495	7	Sololá	717	San Juan la Laguna	12	San Juan la Laguna	8	Agosto	2023-08-25T00:00:00	2024-11-08T04:00:00	1	Precipitación	0
73496	7	Sololá	717	San Juan la Laguna	12	San Juan la Laguna	8	Agosto	2023-08-25T00:00:00	2024-11-08T04:00:00	8	Radiación solar	0
73497	7	Sololá	717	San Juan la Laguna	12	San Juan la Laguna	8	Agosto	2023-08-25T00:00:00	2024-11-08T05:00:00	2	Temperatura media	16.8
73498	7	Sololá	717	San Juan la Laguna	12	San Juan la Laguna	8	Agosto	2023-08-25T00:00:00	2024-11-08T05:00:00	4	Temperatura máxima	16.8
73499	7	Sololá	717	San Juan la Laguna	12	San Juan la Laguna	8	Agosto	2023-08-25T00:00:00	2024-11-08T05:00:00	3	Temperatura mínima	16.3
73500	7	Sololá	717	San Juan la Laguna	12	San Juan la Laguna	8	Agosto	2023-08-25T00:00:00	2024-11-08T05:00:00	5	Humedad	89
73501	7	Sololá	717	San Juan la Laguna	12	San Juan la Laguna	8	Agosto	2023-08-25T00:00:00	2024-11-08T05:00:00	6	Velocidad del viento	0
73502	7	Sololá	717	San Juan la Laguna	12	San Juan la Laguna	8	Agosto	2023-08-25T00:00:00	2024-11-08T05:00:00	7	Dirección del viento	0
73503	7	Sololá	717	San Juan la Laguna	12	San Juan la Laguna	8	Agosto	2023-08-25T00:00:00	2024-11-08T05:00:00	1	Precipitación	0
73504	7	Sololá	717	San Juan la Laguna	12	San Juan la Laguna	8	Agosto	2023-08-25T00:00:00	2024-11-08T05:00:00	8	Radiación solar	0
73505	7	Sololá	717	San Juan la Laguna	12	San Juan la Laguna	8	Agosto	2023-08-25T00:00:00	2024-11-08T06:00:00	2	Temperatura media	16.2
73506	7	Sololá	717	San Juan la Laguna	12	San Juan la Laguna	8	Agosto	2023-08-25T00:00:00	2024-11-08T06:00:00	4	Temperatura máxima	16.9
73507	7	Sololá	717	San Juan la Laguna	12	San Juan la Laguna	8	Agosto	2023-08-25T00:00:00	2024-11-08T06:00:00	3	Temperatura mínima	16.2
73508	7	Sololá	717	San Juan la Laguna	12	San Juan la Laguna	8	Agosto	2023-08-25T00:00:00	2024-11-08T06:00:00	5	Humedad	89
73509	7	Sololá	717	San Juan la Laguna	12	San Juan la Laguna	8	Agosto	2023-08-25T00:00:00	2024-11-08T06:00:00	6	Velocidad del viento	0
73510	7	Sololá	717	San Juan la Laguna	12	San Juan la Laguna	8	Agosto	2023-08-25T00:00:00	2024-11-08T06:00:00	7	Dirección del viento	0
73511	7	Sololá	717	San Juan la Laguna	12	San Juan la Laguna	8	Agosto	2023-08-25T00:00:00	2024-11-08T06:00:00	1	Precipitación	0
73512	7	Sololá	717	San Juan la Laguna	12	San Juan la Laguna	8	Agosto	2023-08-25T00:00:00	2024-11-08T06:00:00	8	Radiación solar	1
73513	7	Sololá	717	San Juan la Laguna	12	San Juan la Laguna	8	Agosto	2023-08-25T00:00:00	2024-11-08T07:00:00	2	Temperatura media	17.2
73514	7	Sololá	717	San Juan la Laguna	12	San Juan la Laguna	8	Agosto	2023-08-25T00:00:00	2024-11-08T07:00:00	4	Temperatura máxima	17.2
73515	7	Sololá	717	San Juan la Laguna	12	San Juan la Laguna	8	Agosto	2023-08-25T00:00:00	2024-11-08T07:00:00	3	Temperatura mínima	16.1
73516	7	Sololá	717	San Juan la Laguna	12	San Juan la Laguna	8	Agosto	2023-08-25T00:00:00	2024-11-08T07:00:00	5	Humedad	86
73517	7	Sololá	717	San Juan la Laguna	12	San Juan la Laguna	8	Agosto	2023-08-25T00:00:00	2024-11-08T07:00:00	6	Velocidad del viento	1.6
73518	7	Sololá	717	San Juan la Laguna	12	San Juan la Laguna	8	Agosto	2023-08-25T00:00:00	2024-11-08T07:00:00	7	Dirección del viento	1.61
73519	7	Sololá	717	San Juan la Laguna	12	San Juan la Laguna	8	Agosto	2023-08-25T00:00:00	2024-11-08T07:00:00	1	Precipitación	0
73520	7	Sololá	717	San Juan la Laguna	12	San Juan la Laguna	8	Agosto	2023-08-25T00:00:00	2024-11-08T07:00:00	8	Radiación solar	30
73521	7	Sololá	717	San Juan la Laguna	12	San Juan la Laguna	8	Agosto	2023-08-25T00:00:00	2024-11-08T08:00:00	2	Temperatura media	19.6
73522	7	Sololá	717	San Juan la Laguna	12	San Juan la Laguna	8	Agosto	2023-08-25T00:00:00	2024-11-08T08:00:00	4	Temperatura máxima	19.6
73523	7	Sololá	717	San Juan la Laguna	12	San Juan la Laguna	8	Agosto	2023-08-25T00:00:00	2024-11-08T08:00:00	3	Temperatura mínima	17.1
73524	7	Sololá	717	San Juan la Laguna	12	San Juan la Laguna	8	Agosto	2023-08-25T00:00:00	2024-11-08T08:00:00	5	Humedad	82
73525	7	Sololá	717	San Juan la Laguna	12	San Juan la Laguna	8	Agosto	2023-08-25T00:00:00	2024-11-08T08:00:00	6	Velocidad del viento	0
73526	7	Sololá	717	San Juan la Laguna	12	San Juan la Laguna	8	Agosto	2023-08-25T00:00:00	2024-11-08T08:00:00	7	Dirección del viento	0
73527	7	Sololá	717	San Juan la Laguna	12	San Juan la Laguna	8	Agosto	2023-08-25T00:00:00	2024-11-08T08:00:00	1	Precipitación	0
73528	7	Sololá	717	San Juan la Laguna	12	San Juan la Laguna	8	Agosto	2023-08-25T00:00:00	2024-11-08T08:00:00	8	Radiación solar	158
73529	7	Sololá	717	San Juan la Laguna	12	San Juan la Laguna	8	Agosto	2023-08-25T00:00:00	2024-11-08T09:00:00	2	Temperatura media	21.6
73530	7	Sololá	717	San Juan la Laguna	12	San Juan la Laguna	8	Agosto	2023-08-25T00:00:00	2024-11-08T09:00:00	4	Temperatura máxima	21.6
73531	7	Sololá	717	San Juan la Laguna	12	San Juan la Laguna	8	Agosto	2023-08-25T00:00:00	2024-11-08T09:00:00	3	Temperatura mínima	19.6
73532	7	Sololá	717	San Juan la Laguna	12	San Juan la Laguna	8	Agosto	2023-08-25T00:00:00	2024-11-08T09:00:00	5	Humedad	76
73533	7	Sololá	717	San Juan la Laguna	12	San Juan la Laguna	8	Agosto	2023-08-25T00:00:00	2024-11-08T09:00:00	6	Velocidad del viento	1.6
73534	7	Sololá	717	San Juan la Laguna	12	San Juan la Laguna	8	Agosto	2023-08-25T00:00:00	2024-11-08T09:00:00	7	Dirección del viento	1.61
73535	7	Sololá	717	San Juan la Laguna	12	San Juan la Laguna	8	Agosto	2023-08-25T00:00:00	2024-11-08T09:00:00	1	Precipitación	0
73536	7	Sololá	717	San Juan la Laguna	12	San Juan la Laguna	8	Agosto	2023-08-25T00:00:00	2024-11-08T09:00:00	8	Radiación solar	431
73537	7	Sololá	717	San Juan la Laguna	12	San Juan la Laguna	8	Agosto	2023-08-25T00:00:00	2024-11-08T10:00:00	2	Temperatura media	22.2
73538	7	Sololá	717	San Juan la Laguna	12	San Juan la Laguna	8	Agosto	2023-08-25T00:00:00	2024-11-08T10:00:00	4	Temperatura máxima	22.4
73539	7	Sololá	717	San Juan la Laguna	12	San Juan la Laguna	8	Agosto	2023-08-25T00:00:00	2024-11-08T10:00:00	3	Temperatura mínima	21.6
73540	7	Sololá	717	San Juan la Laguna	12	San Juan la Laguna	8	Agosto	2023-08-25T00:00:00	2024-11-08T10:00:00	5	Humedad	75
73541	7	Sololá	717	San Juan la Laguna	12	San Juan la Laguna	8	Agosto	2023-08-25T00:00:00	2024-11-08T10:00:00	6	Velocidad del viento	0
73542	7	Sololá	717	San Juan la Laguna	12	San Juan la Laguna	8	Agosto	2023-08-25T00:00:00	2024-11-08T10:00:00	7	Dirección del viento	0
73543	7	Sololá	717	San Juan la Laguna	12	San Juan la Laguna	8	Agosto	2023-08-25T00:00:00	2024-11-08T10:00:00	1	Precipitación	0
73544	7	Sololá	717	San Juan la Laguna	12	San Juan la Laguna	8	Agosto	2023-08-25T00:00:00	2024-11-08T10:00:00	8	Radiación solar	578
73545	7	Sololá	717	San Juan la Laguna	12	San Juan la Laguna	8	Agosto	2023-08-25T00:00:00	2024-11-08T11:00:00	2	Temperatura media	23.3
73546	7	Sololá	717	San Juan la Laguna	12	San Juan la Laguna	8	Agosto	2023-08-25T00:00:00	2024-11-08T11:00:00	4	Temperatura máxima	23.3
73547	7	Sololá	717	San Juan la Laguna	12	San Juan la Laguna	8	Agosto	2023-08-25T00:00:00	2024-11-08T11:00:00	3	Temperatura mínima	21.7
73548	7	Sololá	717	San Juan la Laguna	12	San Juan la Laguna	8	Agosto	2023-08-25T00:00:00	2024-11-08T11:00:00	5	Humedad	71
73549	7	Sololá	717	San Juan la Laguna	12	San Juan la Laguna	8	Agosto	2023-08-25T00:00:00	2024-11-08T11:00:00	6	Velocidad del viento	0
73550	7	Sololá	717	San Juan la Laguna	12	San Juan la Laguna	8	Agosto	2023-08-25T00:00:00	2024-11-08T11:00:00	7	Dirección del viento	0
73551	7	Sololá	717	San Juan la Laguna	12	San Juan la Laguna	8	Agosto	2023-08-25T00:00:00	2024-11-08T11:00:00	1	Precipitación	0
73552	7	Sololá	717	San Juan la Laguna	12	San Juan la Laguna	8	Agosto	2023-08-25T00:00:00	2024-11-08T11:00:00	8	Radiación solar	651
73553	7	Sololá	717	San Juan la Laguna	12	San Juan la Laguna	8	Agosto	2023-08-25T00:00:00	2024-11-08T12:00:00	2	Temperatura media	23.9
73554	7	Sololá	717	San Juan la Laguna	12	San Juan la Laguna	8	Agosto	2023-08-25T00:00:00	2024-11-08T12:00:00	4	Temperatura máxima	23.9
73555	7	Sololá	717	San Juan la Laguna	12	San Juan la Laguna	8	Agosto	2023-08-25T00:00:00	2024-11-08T12:00:00	3	Temperatura mínima	23.5
73556	7	Sololá	717	San Juan la Laguna	12	San Juan la Laguna	8	Agosto	2023-08-25T00:00:00	2024-11-08T12:00:00	5	Humedad	68
73557	7	Sololá	717	San Juan la Laguna	12	San Juan la Laguna	8	Agosto	2023-08-25T00:00:00	2024-11-08T12:00:00	6	Velocidad del viento	9.7
73558	7	Sololá	717	San Juan la Laguna	12	San Juan la Laguna	8	Agosto	2023-08-25T00:00:00	2024-11-08T12:00:00	7	Dirección del viento	4.83
73559	7	Sololá	717	San Juan la Laguna	12	San Juan la Laguna	8	Agosto	2023-08-25T00:00:00	2024-11-08T12:00:00	1	Precipitación	0
73560	7	Sololá	717	San Juan la Laguna	12	San Juan la Laguna	8	Agosto	2023-08-25T00:00:00	2024-11-08T12:00:00	8	Radiación solar	882
73561	7	Sololá	717	San Juan la Laguna	12	San Juan la Laguna	8	Agosto	2023-08-25T00:00:00	2024-11-08T13:00:00	2	Temperatura media	24.3
73562	7	Sololá	717	San Juan la Laguna	12	San Juan la Laguna	8	Agosto	2023-08-25T00:00:00	2024-11-08T13:00:00	4	Temperatura máxima	24.5
73563	7	Sololá	717	San Juan la Laguna	12	San Juan la Laguna	8	Agosto	2023-08-25T00:00:00	2024-11-08T13:00:00	3	Temperatura mínima	23.8
73564	7	Sololá	717	San Juan la Laguna	12	San Juan la Laguna	8	Agosto	2023-08-25T00:00:00	2024-11-08T13:00:00	5	Humedad	65
73565	7	Sololá	717	San Juan la Laguna	12	San Juan la Laguna	8	Agosto	2023-08-25T00:00:00	2024-11-08T13:00:00	6	Velocidad del viento	12.9
73566	7	Sololá	717	San Juan la Laguna	12	San Juan la Laguna	8	Agosto	2023-08-25T00:00:00	2024-11-08T13:00:00	7	Dirección del viento	6.44
73567	7	Sololá	717	San Juan la Laguna	12	San Juan la Laguna	8	Agosto	2023-08-25T00:00:00	2024-11-08T13:00:00	1	Precipitación	0
73568	7	Sololá	717	San Juan la Laguna	12	San Juan la Laguna	8	Agosto	2023-08-25T00:00:00	2024-11-08T13:00:00	8	Radiación solar	965
73569	7	Sololá	717	San Juan la Laguna	12	San Juan la Laguna	8	Agosto	2023-08-25T00:00:00	2024-11-08T14:00:00	2	Temperatura media	25.3
73570	7	Sololá	717	San Juan la Laguna	12	San Juan la Laguna	8	Agosto	2023-08-25T00:00:00	2024-11-08T14:00:00	4	Temperatura máxima	25.6
73571	7	Sololá	717	San Juan la Laguna	12	San Juan la Laguna	8	Agosto	2023-08-25T00:00:00	2024-11-08T14:00:00	3	Temperatura mínima	24.5
73572	7	Sololá	717	San Juan la Laguna	12	San Juan la Laguna	8	Agosto	2023-08-25T00:00:00	2024-11-08T14:00:00	5	Humedad	62
73573	7	Sololá	717	San Juan la Laguna	12	San Juan la Laguna	8	Agosto	2023-08-25T00:00:00	2024-11-08T14:00:00	6	Velocidad del viento	11.3
73574	7	Sololá	717	San Juan la Laguna	12	San Juan la Laguna	8	Agosto	2023-08-25T00:00:00	2024-11-08T14:00:00	7	Dirección del viento	5.63
73575	7	Sololá	717	San Juan la Laguna	12	San Juan la Laguna	8	Agosto	2023-08-25T00:00:00	2024-11-08T14:00:00	1	Precipitación	0
73576	7	Sololá	717	San Juan la Laguna	12	San Juan la Laguna	8	Agosto	2023-08-25T00:00:00	2024-11-08T14:00:00	8	Radiación solar	479
73577	7	Sololá	717	San Juan la Laguna	12	San Juan la Laguna	8	Agosto	2023-08-25T00:00:00	2024-11-08T15:00:00	2	Temperatura media	23.8
73578	7	Sololá	717	San Juan la Laguna	12	San Juan la Laguna	8	Agosto	2023-08-25T00:00:00	2024-11-08T15:00:00	4	Temperatura máxima	25.3
73579	7	Sololá	717	San Juan la Laguna	12	San Juan la Laguna	8	Agosto	2023-08-25T00:00:00	2024-11-08T15:00:00	3	Temperatura mínima	23.8
73580	7	Sololá	717	San Juan la Laguna	12	San Juan la Laguna	8	Agosto	2023-08-25T00:00:00	2024-11-08T15:00:00	5	Humedad	68
73581	7	Sololá	717	San Juan la Laguna	12	San Juan la Laguna	8	Agosto	2023-08-25T00:00:00	2024-11-08T15:00:00	6	Velocidad del viento	14.5
73582	7	Sololá	717	San Juan la Laguna	12	San Juan la Laguna	8	Agosto	2023-08-25T00:00:00	2024-11-08T15:00:00	7	Dirección del viento	7.24
73583	7	Sololá	717	San Juan la Laguna	12	San Juan la Laguna	8	Agosto	2023-08-25T00:00:00	2024-11-08T15:00:00	1	Precipitación	0
73584	7	Sololá	717	San Juan la Laguna	12	San Juan la Laguna	8	Agosto	2023-08-25T00:00:00	2024-11-08T15:00:00	8	Radiación solar	321
73585	7	Sololá	717	San Juan la Laguna	12	San Juan la Laguna	8	Agosto	2023-08-25T00:00:00	2024-11-08T16:00:00	2	Temperatura media	23.5
73586	7	Sololá	717	San Juan la Laguna	12	San Juan la Laguna	8	Agosto	2023-08-25T00:00:00	2024-11-08T16:00:00	4	Temperatura máxima	23.6
73587	7	Sololá	717	San Juan la Laguna	12	San Juan la Laguna	8	Agosto	2023-08-25T00:00:00	2024-11-08T16:00:00	3	Temperatura mínima	22.7
73588	7	Sololá	717	San Juan la Laguna	12	San Juan la Laguna	8	Agosto	2023-08-25T00:00:00	2024-11-08T16:00:00	5	Humedad	70
73589	7	Sololá	717	San Juan la Laguna	12	San Juan la Laguna	8	Agosto	2023-08-25T00:00:00	2024-11-08T16:00:00	6	Velocidad del viento	9.7
73590	7	Sololá	717	San Juan la Laguna	12	San Juan la Laguna	8	Agosto	2023-08-25T00:00:00	2024-11-08T16:00:00	7	Dirección del viento	4.83
73591	7	Sololá	717	San Juan la Laguna	12	San Juan la Laguna	8	Agosto	2023-08-25T00:00:00	2024-11-08T16:00:00	1	Precipitación	0
73592	7	Sololá	717	San Juan la Laguna	12	San Juan la Laguna	8	Agosto	2023-08-25T00:00:00	2024-11-08T16:00:00	8	Radiación solar	54
73593	7	Sololá	717	San Juan la Laguna	12	San Juan la Laguna	8	Agosto	2023-08-25T00:00:00	2024-11-08T17:00:00	2	Temperatura media	22.7
73594	7	Sololá	717	San Juan la Laguna	12	San Juan la Laguna	8	Agosto	2023-08-25T00:00:00	2024-11-08T17:00:00	4	Temperatura máxima	23.3
73595	7	Sololá	717	San Juan la Laguna	12	San Juan la Laguna	8	Agosto	2023-08-25T00:00:00	2024-11-08T17:00:00	3	Temperatura mínima	22.7
73596	7	Sololá	717	San Juan la Laguna	12	San Juan la Laguna	8	Agosto	2023-08-25T00:00:00	2024-11-08T17:00:00	5	Humedad	72
73597	7	Sololá	717	San Juan la Laguna	12	San Juan la Laguna	8	Agosto	2023-08-25T00:00:00	2024-11-08T17:00:00	6	Velocidad del viento	9.7
73598	7	Sololá	717	San Juan la Laguna	12	San Juan la Laguna	8	Agosto	2023-08-25T00:00:00	2024-11-08T17:00:00	7	Dirección del viento	4.83
73599	7	Sololá	717	San Juan la Laguna	12	San Juan la Laguna	8	Agosto	2023-08-25T00:00:00	2024-11-08T17:00:00	1	Precipitación	0
73600	7	Sololá	717	San Juan la Laguna	12	San Juan la Laguna	8	Agosto	2023-08-25T00:00:00	2024-11-08T17:00:00	8	Radiación solar	51
73601	7	Sololá	717	San Juan la Laguna	12	San Juan la Laguna	8	Agosto	2023-08-25T00:00:00	2024-11-08T18:00:00	2	Temperatura media	20.6
73602	7	Sololá	717	San Juan la Laguna	12	San Juan la Laguna	8	Agosto	2023-08-25T00:00:00	2024-11-08T18:00:00	4	Temperatura máxima	22.6
73603	7	Sololá	717	San Juan la Laguna	12	San Juan la Laguna	8	Agosto	2023-08-25T00:00:00	2024-11-08T18:00:00	3	Temperatura mínima	20.6
73604	7	Sololá	717	San Juan la Laguna	12	San Juan la Laguna	8	Agosto	2023-08-25T00:00:00	2024-11-08T18:00:00	5	Humedad	83
73605	7	Sololá	717	San Juan la Laguna	12	San Juan la Laguna	8	Agosto	2023-08-25T00:00:00	2024-11-08T18:00:00	6	Velocidad del viento	6.4
73606	7	Sololá	717	San Juan la Laguna	12	San Juan la Laguna	8	Agosto	2023-08-25T00:00:00	2024-11-08T18:00:00	7	Dirección del viento	3.22
73607	7	Sololá	717	San Juan la Laguna	12	San Juan la Laguna	8	Agosto	2023-08-25T00:00:00	2024-11-08T18:00:00	1	Precipitación	0.6
73608	7	Sololá	717	San Juan la Laguna	12	San Juan la Laguna	8	Agosto	2023-08-25T00:00:00	2024-11-08T18:00:00	8	Radiación solar	29
73609	7	Sololá	717	San Juan la Laguna	12	San Juan la Laguna	8	Agosto	2023-08-25T00:00:00	2024-11-08T19:00:00	2	Temperatura media	19.1
73610	7	Sololá	717	San Juan la Laguna	12	San Juan la Laguna	8	Agosto	2023-08-25T00:00:00	2024-11-08T19:00:00	4	Temperatura máxima	19.3
73611	7	Sololá	717	San Juan la Laguna	12	San Juan la Laguna	8	Agosto	2023-08-25T00:00:00	2024-11-08T19:00:00	3	Temperatura mínima	19
73612	7	Sololá	717	San Juan la Laguna	12	San Juan la Laguna	8	Agosto	2023-08-25T00:00:00	2024-11-08T19:00:00	5	Humedad	86
73613	7	Sololá	717	San Juan la Laguna	12	San Juan la Laguna	8	Agosto	2023-08-25T00:00:00	2024-11-08T19:00:00	6	Velocidad del viento	6.4
73614	7	Sololá	717	San Juan la Laguna	12	San Juan la Laguna	8	Agosto	2023-08-25T00:00:00	2024-11-08T19:00:00	7	Dirección del viento	3.22
73615	7	Sololá	717	San Juan la Laguna	12	San Juan la Laguna	8	Agosto	2023-08-25T00:00:00	2024-11-08T19:00:00	1	Precipitación	0.2
73616	7	Sololá	717	San Juan la Laguna	12	San Juan la Laguna	8	Agosto	2023-08-25T00:00:00	2024-11-08T19:00:00	8	Radiación solar	0
73617	7	Sololá	717	San Juan la Laguna	12	San Juan la Laguna	8	Agosto	2023-08-25T00:00:00	2024-11-08T20:00:00	2	Temperatura media	18.7
73618	7	Sololá	717	San Juan la Laguna	12	San Juan la Laguna	8	Agosto	2023-08-25T00:00:00	2024-11-08T20:00:00	4	Temperatura máxima	19.1
73619	7	Sololá	717	San Juan la Laguna	12	San Juan la Laguna	8	Agosto	2023-08-25T00:00:00	2024-11-08T20:00:00	3	Temperatura mínima	18.7
73620	7	Sololá	717	San Juan la Laguna	12	San Juan la Laguna	8	Agosto	2023-08-25T00:00:00	2024-11-08T20:00:00	5	Humedad	88
73621	7	Sololá	717	San Juan la Laguna	12	San Juan la Laguna	8	Agosto	2023-08-25T00:00:00	2024-11-08T20:00:00	6	Velocidad del viento	4.8
73622	7	Sololá	717	San Juan la Laguna	12	San Juan la Laguna	8	Agosto	2023-08-25T00:00:00	2024-11-08T20:00:00	7	Dirección del viento	2.41
73623	7	Sololá	717	San Juan la Laguna	12	San Juan la Laguna	8	Agosto	2023-08-25T00:00:00	2024-11-08T20:00:00	1	Precipitación	0
73624	7	Sololá	717	San Juan la Laguna	12	San Juan la Laguna	8	Agosto	2023-08-25T00:00:00	2024-11-08T20:00:00	8	Radiación solar	0
73625	7	Sololá	717	San Juan la Laguna	12	San Juan la Laguna	8	Agosto	2023-08-25T00:00:00	2024-11-08T21:00:00	2	Temperatura media	18.4
73626	7	Sololá	717	San Juan la Laguna	12	San Juan la Laguna	8	Agosto	2023-08-25T00:00:00	2024-11-08T21:00:00	4	Temperatura máxima	18.7
73627	7	Sololá	717	San Juan la Laguna	12	San Juan la Laguna	8	Agosto	2023-08-25T00:00:00	2024-11-08T21:00:00	3	Temperatura mínima	18.4
73628	7	Sololá	717	San Juan la Laguna	12	San Juan la Laguna	8	Agosto	2023-08-25T00:00:00	2024-11-08T21:00:00	5	Humedad	87
73629	7	Sololá	717	San Juan la Laguna	12	San Juan la Laguna	8	Agosto	2023-08-25T00:00:00	2024-11-08T21:00:00	6	Velocidad del viento	4.8
73630	7	Sololá	717	San Juan la Laguna	12	San Juan la Laguna	8	Agosto	2023-08-25T00:00:00	2024-11-08T21:00:00	7	Dirección del viento	2.41
73631	7	Sololá	717	San Juan la Laguna	12	San Juan la Laguna	8	Agosto	2023-08-25T00:00:00	2024-11-08T21:00:00	1	Precipitación	0
73632	7	Sololá	717	San Juan la Laguna	12	San Juan la Laguna	8	Agosto	2023-08-25T00:00:00	2024-11-08T21:00:00	8	Radiación solar	0
73633	7	Sololá	717	San Juan la Laguna	12	San Juan la Laguna	8	Agosto	2023-08-25T00:00:00	2024-11-08T22:00:00	2	Temperatura media	18.8
73634	7	Sololá	717	San Juan la Laguna	12	San Juan la Laguna	8	Agosto	2023-08-25T00:00:00	2024-11-08T22:00:00	4	Temperatura máxima	18.8
73635	7	Sololá	717	San Juan la Laguna	12	San Juan la Laguna	8	Agosto	2023-08-25T00:00:00	2024-11-08T22:00:00	3	Temperatura mínima	18.3
73636	7	Sololá	717	San Juan la Laguna	12	San Juan la Laguna	8	Agosto	2023-08-25T00:00:00	2024-11-08T22:00:00	5	Humedad	85
73637	7	Sololá	717	San Juan la Laguna	12	San Juan la Laguna	8	Agosto	2023-08-25T00:00:00	2024-11-08T22:00:00	6	Velocidad del viento	4.8
73638	7	Sololá	717	San Juan la Laguna	12	San Juan la Laguna	8	Agosto	2023-08-25T00:00:00	2024-11-08T22:00:00	7	Dirección del viento	2.41
73639	7	Sololá	717	San Juan la Laguna	12	San Juan la Laguna	8	Agosto	2023-08-25T00:00:00	2024-11-08T22:00:00	1	Precipitación	0
73640	7	Sololá	717	San Juan la Laguna	12	San Juan la Laguna	8	Agosto	2023-08-25T00:00:00	2024-11-08T22:00:00	8	Radiación solar	0
73641	7	Sololá	717	San Juan la Laguna	12	San Juan la Laguna	8	Agosto	2023-08-25T00:00:00	2024-11-08T23:00:00	2	Temperatura media	18.3
73642	7	Sololá	717	San Juan la Laguna	12	San Juan la Laguna	8	Agosto	2023-08-25T00:00:00	2024-11-08T23:00:00	4	Temperatura máxima	18.9
73643	7	Sololá	717	San Juan la Laguna	12	San Juan la Laguna	8	Agosto	2023-08-25T00:00:00	2024-11-08T23:00:00	3	Temperatura mínima	18.2
73644	7	Sololá	717	San Juan la Laguna	12	San Juan la Laguna	8	Agosto	2023-08-25T00:00:00	2024-11-08T23:00:00	5	Humedad	87
73645	7	Sololá	717	San Juan la Laguna	12	San Juan la Laguna	8	Agosto	2023-08-25T00:00:00	2024-11-08T23:00:00	6	Velocidad del viento	4.8
73646	7	Sololá	717	San Juan la Laguna	12	San Juan la Laguna	8	Agosto	2023-08-25T00:00:00	2024-11-08T23:00:00	7	Dirección del viento	2.41
73647	7	Sololá	717	San Juan la Laguna	12	San Juan la Laguna	8	Agosto	2023-08-25T00:00:00	2024-11-08T23:00:00	1	Precipitación	0
73648	7	Sololá	717	San Juan la Laguna	12	San Juan la Laguna	8	Agosto	2023-08-25T00:00:00	2024-11-08T23:00:00	8	Radiación solar	0
73649	7	Sololá	717	San Juan la Laguna	12	San Juan la Laguna	8	Agosto	2023-08-26T00:00:00	2024-11-08T00:00:00	2	Temperatura media	18.3
73650	7	Sololá	717	San Juan la Laguna	12	San Juan la Laguna	8	Agosto	2023-08-26T00:00:00	2024-11-08T00:00:00	4	Temperatura máxima	18.3
73651	7	Sololá	717	San Juan la Laguna	12	San Juan la Laguna	8	Agosto	2023-08-26T00:00:00	2024-11-08T00:00:00	3	Temperatura mínima	18
73652	7	Sololá	717	San Juan la Laguna	12	San Juan la Laguna	8	Agosto	2023-08-26T00:00:00	2024-11-08T00:00:00	5	Humedad	89
73653	7	Sololá	717	San Juan la Laguna	12	San Juan la Laguna	8	Agosto	2023-08-26T00:00:00	2024-11-08T00:00:00	6	Velocidad del viento	3.2
73654	7	Sololá	717	San Juan la Laguna	12	San Juan la Laguna	8	Agosto	2023-08-26T00:00:00	2024-11-08T00:00:00	7	Dirección del viento	1.61
73655	7	Sololá	717	San Juan la Laguna	12	San Juan la Laguna	8	Agosto	2023-08-26T00:00:00	2024-11-08T00:00:00	1	Precipitación	0
73656	7	Sololá	717	San Juan la Laguna	12	San Juan la Laguna	8	Agosto	2023-08-26T00:00:00	2024-11-08T00:00:00	8	Radiación solar	0
73657	7	Sololá	717	San Juan la Laguna	12	San Juan la Laguna	8	Agosto	2023-08-26T00:00:00	2024-11-08T01:00:00	2	Temperatura media	18.9
73658	7	Sololá	717	San Juan la Laguna	12	San Juan la Laguna	8	Agosto	2023-08-26T00:00:00	2024-11-08T01:00:00	4	Temperatura máxima	19.1
73659	7	Sololá	717	San Juan la Laguna	12	San Juan la Laguna	8	Agosto	2023-08-26T00:00:00	2024-11-08T01:00:00	3	Temperatura mínima	18.7
73660	7	Sololá	717	San Juan la Laguna	12	San Juan la Laguna	8	Agosto	2023-08-26T00:00:00	2024-11-08T01:00:00	5	Humedad	86
73661	7	Sololá	717	San Juan la Laguna	12	San Juan la Laguna	8	Agosto	2023-08-26T00:00:00	2024-11-08T01:00:00	6	Velocidad del viento	3.2
73662	7	Sololá	717	San Juan la Laguna	12	San Juan la Laguna	8	Agosto	2023-08-26T00:00:00	2024-11-08T01:00:00	7	Dirección del viento	1.61
73663	7	Sololá	717	San Juan la Laguna	12	San Juan la Laguna	8	Agosto	2023-08-26T00:00:00	2024-11-08T01:00:00	1	Precipitación	0
73664	7	Sololá	717	San Juan la Laguna	12	San Juan la Laguna	8	Agosto	2023-08-26T00:00:00	2024-11-08T01:00:00	8	Radiación solar	0
73665	7	Sololá	717	San Juan la Laguna	12	San Juan la Laguna	8	Agosto	2023-08-26T00:00:00	2024-11-08T02:00:00	2	Temperatura media	18.4
73666	7	Sololá	717	San Juan la Laguna	12	San Juan la Laguna	8	Agosto	2023-08-26T00:00:00	2024-11-08T02:00:00	4	Temperatura máxima	19
73667	7	Sololá	717	San Juan la Laguna	12	San Juan la Laguna	8	Agosto	2023-08-26T00:00:00	2024-11-08T02:00:00	3	Temperatura mínima	18.4
73668	7	Sololá	717	San Juan la Laguna	12	San Juan la Laguna	8	Agosto	2023-08-26T00:00:00	2024-11-08T02:00:00	5	Humedad	88
73669	7	Sololá	717	San Juan la Laguna	12	San Juan la Laguna	8	Agosto	2023-08-26T00:00:00	2024-11-08T02:00:00	6	Velocidad del viento	3.2
73670	7	Sololá	717	San Juan la Laguna	12	San Juan la Laguna	8	Agosto	2023-08-26T00:00:00	2024-11-08T02:00:00	7	Dirección del viento	1.61
73671	7	Sololá	717	San Juan la Laguna	12	San Juan la Laguna	8	Agosto	2023-08-26T00:00:00	2024-11-08T02:00:00	1	Precipitación	0
73672	7	Sololá	717	San Juan la Laguna	12	San Juan la Laguna	8	Agosto	2023-08-26T00:00:00	2024-11-08T02:00:00	8	Radiación solar	0
73673	7	Sololá	717	San Juan la Laguna	12	San Juan la Laguna	8	Agosto	2023-08-26T00:00:00	2024-11-08T03:00:00	2	Temperatura media	17.8
73674	7	Sololá	717	San Juan la Laguna	12	San Juan la Laguna	8	Agosto	2023-08-26T00:00:00	2024-11-08T03:00:00	4	Temperatura máxima	18.1
73675	7	Sololá	717	San Juan la Laguna	12	San Juan la Laguna	8	Agosto	2023-08-26T00:00:00	2024-11-08T03:00:00	3	Temperatura mínima	17.8
73676	7	Sololá	717	San Juan la Laguna	12	San Juan la Laguna	8	Agosto	2023-08-26T00:00:00	2024-11-08T03:00:00	5	Humedad	88
73677	7	Sololá	717	San Juan la Laguna	12	San Juan la Laguna	8	Agosto	2023-08-26T00:00:00	2024-11-08T03:00:00	6	Velocidad del viento	6.4
73678	7	Sololá	717	San Juan la Laguna	12	San Juan la Laguna	8	Agosto	2023-08-26T00:00:00	2024-11-08T03:00:00	7	Dirección del viento	3.22
73679	7	Sololá	717	San Juan la Laguna	12	San Juan la Laguna	8	Agosto	2023-08-26T00:00:00	2024-11-08T03:00:00	1	Precipitación	0
73680	7	Sololá	717	San Juan la Laguna	12	San Juan la Laguna	8	Agosto	2023-08-26T00:00:00	2024-11-08T03:00:00	8	Radiación solar	0
73681	7	Sololá	717	San Juan la Laguna	12	San Juan la Laguna	8	Agosto	2023-08-26T00:00:00	2024-11-08T04:00:00	2	Temperatura media	17.4
73682	7	Sololá	717	San Juan la Laguna	12	San Juan la Laguna	8	Agosto	2023-08-26T00:00:00	2024-11-08T04:00:00	4	Temperatura máxima	17.8
73683	7	Sololá	717	San Juan la Laguna	12	San Juan la Laguna	8	Agosto	2023-08-26T00:00:00	2024-11-08T04:00:00	3	Temperatura mínima	17.4
73684	7	Sololá	717	San Juan la Laguna	12	San Juan la Laguna	8	Agosto	2023-08-26T00:00:00	2024-11-08T04:00:00	5	Humedad	87
73685	7	Sololá	717	San Juan la Laguna	12	San Juan la Laguna	8	Agosto	2023-08-26T00:00:00	2024-11-08T04:00:00	6	Velocidad del viento	3.2
73686	7	Sololá	717	San Juan la Laguna	12	San Juan la Laguna	8	Agosto	2023-08-26T00:00:00	2024-11-08T04:00:00	7	Dirección del viento	1.61
73687	7	Sololá	717	San Juan la Laguna	12	San Juan la Laguna	8	Agosto	2023-08-26T00:00:00	2024-11-08T04:00:00	1	Precipitación	0
73688	7	Sololá	717	San Juan la Laguna	12	San Juan la Laguna	8	Agosto	2023-08-26T00:00:00	2024-11-08T04:00:00	8	Radiación solar	0
73689	7	Sololá	717	San Juan la Laguna	12	San Juan la Laguna	8	Agosto	2023-08-26T00:00:00	2024-11-08T05:00:00	2	Temperatura media	17.7
73690	7	Sololá	717	San Juan la Laguna	12	San Juan la Laguna	8	Agosto	2023-08-26T00:00:00	2024-11-08T05:00:00	4	Temperatura máxima	17.7
73691	7	Sololá	717	San Juan la Laguna	12	San Juan la Laguna	8	Agosto	2023-08-26T00:00:00	2024-11-08T05:00:00	3	Temperatura mínima	17.3
73692	7	Sololá	717	San Juan la Laguna	12	San Juan la Laguna	8	Agosto	2023-08-26T00:00:00	2024-11-08T05:00:00	5	Humedad	87
73693	7	Sololá	717	San Juan la Laguna	12	San Juan la Laguna	8	Agosto	2023-08-26T00:00:00	2024-11-08T05:00:00	6	Velocidad del viento	4.8
73694	7	Sololá	717	San Juan la Laguna	12	San Juan la Laguna	8	Agosto	2023-08-26T00:00:00	2024-11-08T05:00:00	7	Dirección del viento	2.41
73695	7	Sololá	717	San Juan la Laguna	12	San Juan la Laguna	8	Agosto	2023-08-26T00:00:00	2024-11-08T05:00:00	1	Precipitación	0
73696	7	Sololá	717	San Juan la Laguna	12	San Juan la Laguna	8	Agosto	2023-08-26T00:00:00	2024-11-08T05:00:00	8	Radiación solar	0
73697	7	Sololá	717	San Juan la Laguna	12	San Juan la Laguna	8	Agosto	2023-08-26T00:00:00	2024-11-08T06:00:00	2	Temperatura media	17.4
73698	7	Sololá	717	San Juan la Laguna	12	San Juan la Laguna	8	Agosto	2023-08-26T00:00:00	2024-11-08T06:00:00	4	Temperatura máxima	17.8
73699	7	Sololá	717	San Juan la Laguna	12	San Juan la Laguna	8	Agosto	2023-08-26T00:00:00	2024-11-08T06:00:00	3	Temperatura mínima	17.4
73700	7	Sololá	717	San Juan la Laguna	12	San Juan la Laguna	8	Agosto	2023-08-26T00:00:00	2024-11-08T06:00:00	5	Humedad	89
73701	7	Sololá	717	San Juan la Laguna	12	San Juan la Laguna	8	Agosto	2023-08-26T00:00:00	2024-11-08T06:00:00	6	Velocidad del viento	4.8
73702	7	Sololá	717	San Juan la Laguna	12	San Juan la Laguna	8	Agosto	2023-08-26T00:00:00	2024-11-08T06:00:00	7	Dirección del viento	2.41
73703	7	Sololá	717	San Juan la Laguna	12	San Juan la Laguna	8	Agosto	2023-08-26T00:00:00	2024-11-08T06:00:00	1	Precipitación	0
73704	7	Sololá	717	San Juan la Laguna	12	San Juan la Laguna	8	Agosto	2023-08-26T00:00:00	2024-11-08T06:00:00	8	Radiación solar	0
73705	7	Sololá	717	San Juan la Laguna	12	San Juan la Laguna	8	Agosto	2023-08-26T00:00:00	2024-11-08T07:00:00	2	Temperatura media	18.9
73706	7	Sololá	717	San Juan la Laguna	12	San Juan la Laguna	8	Agosto	2023-08-26T00:00:00	2024-11-08T07:00:00	4	Temperatura máxima	18.9
73707	7	Sololá	717	San Juan la Laguna	12	San Juan la Laguna	8	Agosto	2023-08-26T00:00:00	2024-11-08T07:00:00	3	Temperatura mínima	17.7
73708	7	Sololá	717	San Juan la Laguna	12	San Juan la Laguna	8	Agosto	2023-08-26T00:00:00	2024-11-08T07:00:00	5	Humedad	85
73709	7	Sololá	717	San Juan la Laguna	12	San Juan la Laguna	8	Agosto	2023-08-26T00:00:00	2024-11-08T07:00:00	6	Velocidad del viento	3.2
73710	7	Sololá	717	San Juan la Laguna	12	San Juan la Laguna	8	Agosto	2023-08-26T00:00:00	2024-11-08T07:00:00	7	Dirección del viento	1.61
73711	7	Sololá	717	San Juan la Laguna	12	San Juan la Laguna	8	Agosto	2023-08-26T00:00:00	2024-11-08T07:00:00	1	Precipitación	0
73712	7	Sololá	717	San Juan la Laguna	12	San Juan la Laguna	8	Agosto	2023-08-26T00:00:00	2024-11-08T07:00:00	8	Radiación solar	46
73713	7	Sololá	717	San Juan la Laguna	12	San Juan la Laguna	8	Agosto	2023-08-26T00:00:00	2024-11-08T08:00:00	2	Temperatura media	22.2
73714	7	Sololá	717	San Juan la Laguna	12	San Juan la Laguna	8	Agosto	2023-08-26T00:00:00	2024-11-08T08:00:00	4	Temperatura máxima	22.2
73715	7	Sololá	717	San Juan la Laguna	12	San Juan la Laguna	8	Agosto	2023-08-26T00:00:00	2024-11-08T08:00:00	3	Temperatura mínima	20.4
73716	7	Sololá	717	San Juan la Laguna	12	San Juan la Laguna	8	Agosto	2023-08-26T00:00:00	2024-11-08T08:00:00	5	Humedad	75
73717	7	Sololá	717	San Juan la Laguna	12	San Juan la Laguna	8	Agosto	2023-08-26T00:00:00	2024-11-08T08:00:00	6	Velocidad del viento	1.6
73718	7	Sololá	717	San Juan la Laguna	12	San Juan la Laguna	8	Agosto	2023-08-26T00:00:00	2024-11-08T08:00:00	7	Dirección del viento	0.8
73719	7	Sololá	717	San Juan la Laguna	12	San Juan la Laguna	8	Agosto	2023-08-26T00:00:00	2024-11-08T08:00:00	1	Precipitación	0
73720	7	Sololá	717	San Juan la Laguna	12	San Juan la Laguna	8	Agosto	2023-08-26T00:00:00	2024-11-08T08:00:00	8	Radiación solar	229
73721	7	Sololá	717	San Juan la Laguna	12	San Juan la Laguna	8	Agosto	2023-08-26T00:00:00	2024-11-08T09:00:00	2	Temperatura media	22.8
73722	7	Sololá	717	San Juan la Laguna	12	San Juan la Laguna	8	Agosto	2023-08-26T00:00:00	2024-11-08T09:00:00	4	Temperatura máxima	22.8
73723	7	Sololá	717	San Juan la Laguna	12	San Juan la Laguna	8	Agosto	2023-08-26T00:00:00	2024-11-08T09:00:00	3	Temperatura mínima	22.4
73724	7	Sololá	717	San Juan la Laguna	12	San Juan la Laguna	8	Agosto	2023-08-26T00:00:00	2024-11-08T09:00:00	5	Humedad	75
73725	7	Sololá	717	San Juan la Laguna	12	San Juan la Laguna	8	Agosto	2023-08-26T00:00:00	2024-11-08T09:00:00	6	Velocidad del viento	8
73726	7	Sololá	717	San Juan la Laguna	12	San Juan la Laguna	8	Agosto	2023-08-26T00:00:00	2024-11-08T09:00:00	7	Dirección del viento	4.02
73727	7	Sololá	717	San Juan la Laguna	12	San Juan la Laguna	8	Agosto	2023-08-26T00:00:00	2024-11-08T09:00:00	1	Precipitación	0
73728	7	Sololá	717	San Juan la Laguna	12	San Juan la Laguna	8	Agosto	2023-08-26T00:00:00	2024-11-08T09:00:00	8	Radiación solar	471
73729	7	Sololá	717	San Juan la Laguna	12	San Juan la Laguna	8	Agosto	2023-08-26T00:00:00	2024-11-08T10:00:00	2	Temperatura media	23.3
73730	7	Sololá	717	San Juan la Laguna	12	San Juan la Laguna	8	Agosto	2023-08-26T00:00:00	2024-11-08T10:00:00	4	Temperatura máxima	23.3
73731	7	Sololá	717	San Juan la Laguna	12	San Juan la Laguna	8	Agosto	2023-08-26T00:00:00	2024-11-08T10:00:00	3	Temperatura mínima	22.6
73732	7	Sololá	717	San Juan la Laguna	12	San Juan la Laguna	8	Agosto	2023-08-26T00:00:00	2024-11-08T10:00:00	5	Humedad	71
73733	7	Sololá	717	San Juan la Laguna	12	San Juan la Laguna	8	Agosto	2023-08-26T00:00:00	2024-11-08T10:00:00	6	Velocidad del viento	8
73734	7	Sololá	717	San Juan la Laguna	12	San Juan la Laguna	8	Agosto	2023-08-26T00:00:00	2024-11-08T10:00:00	7	Dirección del viento	4.02
73735	7	Sololá	717	San Juan la Laguna	12	San Juan la Laguna	8	Agosto	2023-08-26T00:00:00	2024-11-08T10:00:00	1	Precipitación	0
73736	7	Sololá	717	San Juan la Laguna	12	San Juan la Laguna	8	Agosto	2023-08-26T00:00:00	2024-11-08T10:00:00	8	Radiación solar	697
73737	7	Sololá	717	San Juan la Laguna	12	San Juan la Laguna	8	Agosto	2023-08-26T00:00:00	2024-11-08T11:00:00	2	Temperatura media	24.1
73738	7	Sololá	717	San Juan la Laguna	12	San Juan la Laguna	8	Agosto	2023-08-26T00:00:00	2024-11-08T11:00:00	4	Temperatura máxima	24.1
73739	7	Sololá	717	San Juan la Laguna	12	San Juan la Laguna	8	Agosto	2023-08-26T00:00:00	2024-11-08T11:00:00	3	Temperatura mínima	23.4
73740	7	Sololá	717	San Juan la Laguna	12	San Juan la Laguna	8	Agosto	2023-08-26T00:00:00	2024-11-08T11:00:00	5	Humedad	69
73741	7	Sololá	717	San Juan la Laguna	12	San Juan la Laguna	8	Agosto	2023-08-26T00:00:00	2024-11-08T11:00:00	6	Velocidad del viento	11.3
73742	7	Sololá	717	San Juan la Laguna	12	San Juan la Laguna	8	Agosto	2023-08-26T00:00:00	2024-11-08T11:00:00	7	Dirección del viento	5.63
73743	7	Sololá	717	San Juan la Laguna	12	San Juan la Laguna	8	Agosto	2023-08-26T00:00:00	2024-11-08T11:00:00	1	Precipitación	0
73744	7	Sololá	717	San Juan la Laguna	12	San Juan la Laguna	8	Agosto	2023-08-26T00:00:00	2024-11-08T11:00:00	8	Radiación solar	799
73745	7	Sololá	717	San Juan la Laguna	12	San Juan la Laguna	8	Agosto	2023-08-26T00:00:00	2024-11-08T12:00:00	2	Temperatura media	24.9
73746	7	Sololá	717	San Juan la Laguna	12	San Juan la Laguna	8	Agosto	2023-08-26T00:00:00	2024-11-08T12:00:00	4	Temperatura máxima	25.2
73747	7	Sololá	717	San Juan la Laguna	12	San Juan la Laguna	8	Agosto	2023-08-26T00:00:00	2024-11-08T12:00:00	3	Temperatura mínima	24.6
73748	7	Sololá	717	San Juan la Laguna	12	San Juan la Laguna	8	Agosto	2023-08-26T00:00:00	2024-11-08T12:00:00	5	Humedad	67
73749	7	Sololá	717	San Juan la Laguna	12	San Juan la Laguna	8	Agosto	2023-08-26T00:00:00	2024-11-08T12:00:00	6	Velocidad del viento	8
73750	7	Sololá	717	San Juan la Laguna	12	San Juan la Laguna	8	Agosto	2023-08-26T00:00:00	2024-11-08T12:00:00	7	Dirección del viento	4.02
73751	7	Sololá	717	San Juan la Laguna	12	San Juan la Laguna	8	Agosto	2023-08-26T00:00:00	2024-11-08T12:00:00	1	Precipitación	0
73752	7	Sololá	717	San Juan la Laguna	12	San Juan la Laguna	8	Agosto	2023-08-26T00:00:00	2024-11-08T12:00:00	8	Radiación solar	808
73753	7	Sololá	717	San Juan la Laguna	12	San Juan la Laguna	8	Agosto	2023-08-26T00:00:00	2024-11-08T13:00:00	2	Temperatura media	25.9
73754	7	Sololá	717	San Juan la Laguna	12	San Juan la Laguna	8	Agosto	2023-08-26T00:00:00	2024-11-08T13:00:00	4	Temperatura máxima	26
73755	7	Sololá	717	San Juan la Laguna	12	San Juan la Laguna	8	Agosto	2023-08-26T00:00:00	2024-11-08T13:00:00	3	Temperatura mínima	25.1
73756	7	Sololá	717	San Juan la Laguna	12	San Juan la Laguna	8	Agosto	2023-08-26T00:00:00	2024-11-08T13:00:00	5	Humedad	58
73757	7	Sololá	717	San Juan la Laguna	12	San Juan la Laguna	8	Agosto	2023-08-26T00:00:00	2024-11-08T13:00:00	6	Velocidad del viento	12.9
73758	7	Sololá	717	San Juan la Laguna	12	San Juan la Laguna	8	Agosto	2023-08-26T00:00:00	2024-11-08T13:00:00	7	Dirección del viento	6.44
73759	7	Sololá	717	San Juan la Laguna	12	San Juan la Laguna	8	Agosto	2023-08-26T00:00:00	2024-11-08T13:00:00	1	Precipitación	0
73760	7	Sololá	717	San Juan la Laguna	12	San Juan la Laguna	8	Agosto	2023-08-26T00:00:00	2024-11-08T13:00:00	8	Radiación solar	863
73761	7	Sololá	717	San Juan la Laguna	12	San Juan la Laguna	8	Agosto	2023-08-26T00:00:00	2024-11-08T14:00:00	2	Temperatura media	25
73762	7	Sololá	717	San Juan la Laguna	12	San Juan la Laguna	8	Agosto	2023-08-26T00:00:00	2024-11-08T14:00:00	4	Temperatura máxima	25.7
73763	7	Sololá	717	San Juan la Laguna	12	San Juan la Laguna	8	Agosto	2023-08-26T00:00:00	2024-11-08T14:00:00	3	Temperatura mínima	24.8
73764	7	Sololá	717	San Juan la Laguna	12	San Juan la Laguna	8	Agosto	2023-08-26T00:00:00	2024-11-08T14:00:00	5	Humedad	62
73765	7	Sololá	717	San Juan la Laguna	12	San Juan la Laguna	8	Agosto	2023-08-26T00:00:00	2024-11-08T14:00:00	6	Velocidad del viento	14.5
73766	7	Sololá	717	San Juan la Laguna	12	San Juan la Laguna	8	Agosto	2023-08-26T00:00:00	2024-11-08T14:00:00	7	Dirección del viento	7.24
73767	7	Sololá	717	San Juan la Laguna	12	San Juan la Laguna	8	Agosto	2023-08-26T00:00:00	2024-11-08T14:00:00	1	Precipitación	0
73768	7	Sololá	717	San Juan la Laguna	12	San Juan la Laguna	8	Agosto	2023-08-26T00:00:00	2024-11-08T14:00:00	8	Radiación solar	478
73769	7	Sololá	717	San Juan la Laguna	12	San Juan la Laguna	8	Agosto	2023-08-26T00:00:00	2024-11-08T15:00:00	2	Temperatura media	24.4
73770	7	Sololá	717	San Juan la Laguna	12	San Juan la Laguna	8	Agosto	2023-08-26T00:00:00	2024-11-08T15:00:00	4	Temperatura máxima	25.3
73771	7	Sololá	717	San Juan la Laguna	12	San Juan la Laguna	8	Agosto	2023-08-26T00:00:00	2024-11-08T15:00:00	3	Temperatura mínima	24.4
73772	7	Sololá	717	San Juan la Laguna	12	San Juan la Laguna	8	Agosto	2023-08-26T00:00:00	2024-11-08T15:00:00	5	Humedad	64
73773	7	Sololá	717	San Juan la Laguna	12	San Juan la Laguna	8	Agosto	2023-08-26T00:00:00	2024-11-08T15:00:00	6	Velocidad del viento	11.3
73774	7	Sololá	717	San Juan la Laguna	12	San Juan la Laguna	8	Agosto	2023-08-26T00:00:00	2024-11-08T15:00:00	7	Dirección del viento	5.63
73775	7	Sololá	717	San Juan la Laguna	12	San Juan la Laguna	8	Agosto	2023-08-26T00:00:00	2024-11-08T15:00:00	1	Precipitación	0
73776	7	Sololá	717	San Juan la Laguna	12	San Juan la Laguna	8	Agosto	2023-08-26T00:00:00	2024-11-08T15:00:00	8	Radiación solar	893
73777	7	Sololá	717	San Juan la Laguna	12	San Juan la Laguna	8	Agosto	2023-08-26T00:00:00	2024-11-08T16:00:00	2	Temperatura media	23.6
73778	7	Sololá	717	San Juan la Laguna	12	San Juan la Laguna	8	Agosto	2023-08-26T00:00:00	2024-11-08T16:00:00	4	Temperatura máxima	24.5
73779	7	Sololá	717	San Juan la Laguna	12	San Juan la Laguna	8	Agosto	2023-08-26T00:00:00	2024-11-08T16:00:00	3	Temperatura mínima	23.6
73780	7	Sololá	717	San Juan la Laguna	12	San Juan la Laguna	8	Agosto	2023-08-26T00:00:00	2024-11-08T16:00:00	5	Humedad	69
73781	7	Sololá	717	San Juan la Laguna	12	San Juan la Laguna	8	Agosto	2023-08-26T00:00:00	2024-11-08T16:00:00	6	Velocidad del viento	9.7
73782	7	Sololá	717	San Juan la Laguna	12	San Juan la Laguna	8	Agosto	2023-08-26T00:00:00	2024-11-08T16:00:00	7	Dirección del viento	4.83
73783	7	Sololá	717	San Juan la Laguna	12	San Juan la Laguna	8	Agosto	2023-08-26T00:00:00	2024-11-08T16:00:00	1	Precipitación	0
73784	7	Sololá	717	San Juan la Laguna	12	San Juan la Laguna	8	Agosto	2023-08-26T00:00:00	2024-11-08T16:00:00	8	Radiación solar	245
73785	7	Sololá	717	San Juan la Laguna	12	San Juan la Laguna	8	Agosto	2023-08-26T00:00:00	2024-11-08T17:00:00	2	Temperatura media	23.8
73786	7	Sololá	717	San Juan la Laguna	12	San Juan la Laguna	8	Agosto	2023-08-26T00:00:00	2024-11-08T17:00:00	4	Temperatura máxima	24.2
73787	7	Sololá	717	San Juan la Laguna	12	San Juan la Laguna	8	Agosto	2023-08-26T00:00:00	2024-11-08T17:00:00	3	Temperatura mínima	23.7
73788	7	Sololá	717	San Juan la Laguna	12	San Juan la Laguna	8	Agosto	2023-08-26T00:00:00	2024-11-08T17:00:00	5	Humedad	68
73789	7	Sololá	717	San Juan la Laguna	12	San Juan la Laguna	8	Agosto	2023-08-26T00:00:00	2024-11-08T17:00:00	6	Velocidad del viento	9.7
73790	7	Sololá	717	San Juan la Laguna	12	San Juan la Laguna	8	Agosto	2023-08-26T00:00:00	2024-11-08T17:00:00	7	Dirección del viento	4.83
73791	7	Sololá	717	San Juan la Laguna	12	San Juan la Laguna	8	Agosto	2023-08-26T00:00:00	2024-11-08T17:00:00	1	Precipitación	0
73792	7	Sololá	717	San Juan la Laguna	12	San Juan la Laguna	8	Agosto	2023-08-26T00:00:00	2024-11-08T17:00:00	8	Radiación solar	136
73793	7	Sololá	717	San Juan la Laguna	12	San Juan la Laguna	8	Agosto	2023-08-26T00:00:00	2024-11-08T18:00:00	2	Temperatura media	22.2
73794	7	Sololá	717	San Juan la Laguna	12	San Juan la Laguna	8	Agosto	2023-08-26T00:00:00	2024-11-08T18:00:00	4	Temperatura máxima	22.9
73795	7	Sololá	717	San Juan la Laguna	12	San Juan la Laguna	8	Agosto	2023-08-26T00:00:00	2024-11-08T18:00:00	3	Temperatura mínima	22.1
73796	7	Sololá	717	San Juan la Laguna	12	San Juan la Laguna	8	Agosto	2023-08-26T00:00:00	2024-11-08T18:00:00	5	Humedad	75
73797	7	Sololá	717	San Juan la Laguna	12	San Juan la Laguna	8	Agosto	2023-08-26T00:00:00	2024-11-08T18:00:00	6	Velocidad del viento	11.3
73798	7	Sololá	717	San Juan la Laguna	12	San Juan la Laguna	8	Agosto	2023-08-26T00:00:00	2024-11-08T18:00:00	7	Dirección del viento	5.63
73799	7	Sololá	717	San Juan la Laguna	12	San Juan la Laguna	8	Agosto	2023-08-26T00:00:00	2024-11-08T18:00:00	1	Precipitación	0
73800	7	Sololá	717	San Juan la Laguna	12	San Juan la Laguna	8	Agosto	2023-08-26T00:00:00	2024-11-08T18:00:00	8	Radiación solar	68
73801	7	Sololá	717	San Juan la Laguna	12	San Juan la Laguna	8	Agosto	2023-08-26T00:00:00	2024-11-08T19:00:00	2	Temperatura media	21.6
73802	7	Sololá	717	San Juan la Laguna	12	San Juan la Laguna	8	Agosto	2023-08-26T00:00:00	2024-11-08T19:00:00	4	Temperatura máxima	21.8
73803	7	Sololá	717	San Juan la Laguna	12	San Juan la Laguna	8	Agosto	2023-08-26T00:00:00	2024-11-08T19:00:00	3	Temperatura mínima	21.6
73804	7	Sololá	717	San Juan la Laguna	12	San Juan la Laguna	8	Agosto	2023-08-26T00:00:00	2024-11-08T19:00:00	5	Humedad	78
73805	7	Sololá	717	San Juan la Laguna	12	San Juan la Laguna	8	Agosto	2023-08-26T00:00:00	2024-11-08T19:00:00	6	Velocidad del viento	6.4
73806	7	Sololá	717	San Juan la Laguna	12	San Juan la Laguna	8	Agosto	2023-08-26T00:00:00	2024-11-08T19:00:00	7	Dirección del viento	3.22
73807	7	Sololá	717	San Juan la Laguna	12	San Juan la Laguna	8	Agosto	2023-08-26T00:00:00	2024-11-08T19:00:00	1	Precipitación	0
73808	7	Sololá	717	San Juan la Laguna	12	San Juan la Laguna	8	Agosto	2023-08-26T00:00:00	2024-11-08T19:00:00	8	Radiación solar	0
73809	7	Sololá	717	San Juan la Laguna	12	San Juan la Laguna	8	Agosto	2023-08-26T00:00:00	2024-11-08T20:00:00	2	Temperatura media	21.4
73810	7	Sololá	717	San Juan la Laguna	12	San Juan la Laguna	8	Agosto	2023-08-26T00:00:00	2024-11-08T20:00:00	4	Temperatura máxima	21.6
73811	7	Sololá	717	San Juan la Laguna	12	San Juan la Laguna	8	Agosto	2023-08-26T00:00:00	2024-11-08T20:00:00	3	Temperatura mínima	21.3
73812	7	Sololá	717	San Juan la Laguna	12	San Juan la Laguna	8	Agosto	2023-08-26T00:00:00	2024-11-08T20:00:00	5	Humedad	79
73813	7	Sololá	717	San Juan la Laguna	12	San Juan la Laguna	8	Agosto	2023-08-26T00:00:00	2024-11-08T20:00:00	6	Velocidad del viento	3.2
73814	7	Sololá	717	San Juan la Laguna	12	San Juan la Laguna	8	Agosto	2023-08-26T00:00:00	2024-11-08T20:00:00	7	Dirección del viento	1.61
73815	7	Sololá	717	San Juan la Laguna	12	San Juan la Laguna	8	Agosto	2023-08-26T00:00:00	2024-11-08T20:00:00	1	Precipitación	0
73816	7	Sololá	717	San Juan la Laguna	12	San Juan la Laguna	8	Agosto	2023-08-26T00:00:00	2024-11-08T20:00:00	8	Radiación solar	0
73817	7	Sololá	717	San Juan la Laguna	12	San Juan la Laguna	8	Agosto	2023-08-26T00:00:00	2024-11-08T21:00:00	2	Temperatura media	19.9
73818	7	Sololá	717	San Juan la Laguna	12	San Juan la Laguna	8	Agosto	2023-08-26T00:00:00	2024-11-08T21:00:00	4	Temperatura máxima	21.1
73819	7	Sololá	717	San Juan la Laguna	12	San Juan la Laguna	8	Agosto	2023-08-26T00:00:00	2024-11-08T21:00:00	3	Temperatura mínima	19.9
73820	7	Sololá	717	San Juan la Laguna	12	San Juan la Laguna	8	Agosto	2023-08-26T00:00:00	2024-11-08T21:00:00	5	Humedad	84
73821	7	Sololá	717	San Juan la Laguna	12	San Juan la Laguna	8	Agosto	2023-08-26T00:00:00	2024-11-08T21:00:00	6	Velocidad del viento	6.4
73822	7	Sololá	717	San Juan la Laguna	12	San Juan la Laguna	8	Agosto	2023-08-26T00:00:00	2024-11-08T21:00:00	7	Dirección del viento	3.22
73823	7	Sololá	717	San Juan la Laguna	12	San Juan la Laguna	8	Agosto	2023-08-26T00:00:00	2024-11-08T21:00:00	1	Precipitación	1.4
73824	7	Sololá	717	San Juan la Laguna	12	San Juan la Laguna	8	Agosto	2023-08-26T00:00:00	2024-11-08T21:00:00	8	Radiación solar	0
73825	7	Sololá	717	San Juan la Laguna	12	San Juan la Laguna	8	Agosto	2023-08-26T00:00:00	2024-11-08T22:00:00	2	Temperatura media	19.3
73826	7	Sololá	717	San Juan la Laguna	12	San Juan la Laguna	8	Agosto	2023-08-26T00:00:00	2024-11-08T22:00:00	4	Temperatura máxima	19.3
73827	7	Sololá	717	San Juan la Laguna	12	San Juan la Laguna	8	Agosto	2023-08-26T00:00:00	2024-11-08T22:00:00	3	Temperatura mínima	19.1
73828	7	Sololá	717	San Juan la Laguna	12	San Juan la Laguna	8	Agosto	2023-08-26T00:00:00	2024-11-08T22:00:00	5	Humedad	85
73829	7	Sololá	717	San Juan la Laguna	12	San Juan la Laguna	8	Agosto	2023-08-26T00:00:00	2024-11-08T22:00:00	6	Velocidad del viento	4.8
73830	7	Sololá	717	San Juan la Laguna	12	San Juan la Laguna	8	Agosto	2023-08-26T00:00:00	2024-11-08T22:00:00	7	Dirección del viento	2.41
73831	7	Sololá	717	San Juan la Laguna	12	San Juan la Laguna	8	Agosto	2023-08-26T00:00:00	2024-11-08T22:00:00	1	Precipitación	0
73832	7	Sololá	717	San Juan la Laguna	12	San Juan la Laguna	8	Agosto	2023-08-26T00:00:00	2024-11-08T22:00:00	8	Radiación solar	0
73833	7	Sololá	717	San Juan la Laguna	12	San Juan la Laguna	8	Agosto	2023-08-26T00:00:00	2024-11-08T23:00:00	2	Temperatura media	18.6
73834	7	Sololá	717	San Juan la Laguna	12	San Juan la Laguna	8	Agosto	2023-08-26T00:00:00	2024-11-08T23:00:00	4	Temperatura máxima	18.9
73835	7	Sololá	717	San Juan la Laguna	12	San Juan la Laguna	8	Agosto	2023-08-26T00:00:00	2024-11-08T23:00:00	3	Temperatura mínima	18.6
73836	7	Sololá	717	San Juan la Laguna	12	San Juan la Laguna	8	Agosto	2023-08-26T00:00:00	2024-11-08T23:00:00	5	Humedad	88
73837	7	Sololá	717	San Juan la Laguna	12	San Juan la Laguna	8	Agosto	2023-08-26T00:00:00	2024-11-08T23:00:00	6	Velocidad del viento	6.4
73838	7	Sololá	717	San Juan la Laguna	12	San Juan la Laguna	8	Agosto	2023-08-26T00:00:00	2024-11-08T23:00:00	7	Dirección del viento	3.22
73839	7	Sololá	717	San Juan la Laguna	12	San Juan la Laguna	8	Agosto	2023-08-26T00:00:00	2024-11-08T23:00:00	1	Precipitación	1
73840	7	Sololá	717	San Juan la Laguna	12	San Juan la Laguna	8	Agosto	2023-08-26T00:00:00	2024-11-08T23:00:00	8	Radiación solar	0
73841	7	Sololá	717	San Juan la Laguna	12	San Juan la Laguna	8	Agosto	2023-08-27T00:00:00	2024-11-08T00:00:00	2	Temperatura media	18.4
73842	7	Sololá	717	San Juan la Laguna	12	San Juan la Laguna	8	Agosto	2023-08-27T00:00:00	2024-11-08T00:00:00	4	Temperatura máxima	18.6
73843	7	Sololá	717	San Juan la Laguna	12	San Juan la Laguna	8	Agosto	2023-08-27T00:00:00	2024-11-08T00:00:00	3	Temperatura mínima	18.4
73844	7	Sololá	717	San Juan la Laguna	12	San Juan la Laguna	8	Agosto	2023-08-27T00:00:00	2024-11-08T00:00:00	5	Humedad	89
73845	7	Sololá	717	San Juan la Laguna	12	San Juan la Laguna	8	Agosto	2023-08-27T00:00:00	2024-11-08T00:00:00	6	Velocidad del viento	4.8
73846	7	Sololá	717	San Juan la Laguna	12	San Juan la Laguna	8	Agosto	2023-08-27T00:00:00	2024-11-08T00:00:00	7	Dirección del viento	2.41
73847	7	Sololá	717	San Juan la Laguna	12	San Juan la Laguna	8	Agosto	2023-08-27T00:00:00	2024-11-08T00:00:00	1	Precipitación	0
73848	7	Sololá	717	San Juan la Laguna	12	San Juan la Laguna	8	Agosto	2023-08-27T00:00:00	2024-11-08T00:00:00	8	Radiación solar	0
73849	7	Sololá	717	San Juan la Laguna	12	San Juan la Laguna	8	Agosto	2023-08-27T00:00:00	2024-11-08T01:00:00	2	Temperatura media	18.1
73850	7	Sololá	717	San Juan la Laguna	12	San Juan la Laguna	8	Agosto	2023-08-27T00:00:00	2024-11-08T01:00:00	4	Temperatura máxima	18.3
73851	7	Sololá	717	San Juan la Laguna	12	San Juan la Laguna	8	Agosto	2023-08-27T00:00:00	2024-11-08T01:00:00	3	Temperatura mínima	18.1
73852	7	Sololá	717	San Juan la Laguna	12	San Juan la Laguna	8	Agosto	2023-08-27T00:00:00	2024-11-08T01:00:00	5	Humedad	89
73853	7	Sololá	717	San Juan la Laguna	12	San Juan la Laguna	8	Agosto	2023-08-27T00:00:00	2024-11-08T01:00:00	6	Velocidad del viento	1.6
73854	7	Sololá	717	San Juan la Laguna	12	San Juan la Laguna	8	Agosto	2023-08-27T00:00:00	2024-11-08T01:00:00	7	Dirección del viento	0.8
73855	7	Sololá	717	San Juan la Laguna	12	San Juan la Laguna	8	Agosto	2023-08-27T00:00:00	2024-11-08T01:00:00	1	Precipitación	0
73856	7	Sololá	717	San Juan la Laguna	12	San Juan la Laguna	8	Agosto	2023-08-27T00:00:00	2024-11-08T01:00:00	8	Radiación solar	0
73857	7	Sololá	717	San Juan la Laguna	12	San Juan la Laguna	8	Agosto	2023-08-27T00:00:00	2024-11-08T02:00:00	2	Temperatura media	18.2
73858	7	Sololá	717	San Juan la Laguna	12	San Juan la Laguna	8	Agosto	2023-08-27T00:00:00	2024-11-08T02:00:00	4	Temperatura máxima	18.3
73859	7	Sololá	717	San Juan la Laguna	12	San Juan la Laguna	8	Agosto	2023-08-27T00:00:00	2024-11-08T02:00:00	3	Temperatura mínima	18.2
73860	7	Sololá	717	San Juan la Laguna	12	San Juan la Laguna	8	Agosto	2023-08-27T00:00:00	2024-11-08T02:00:00	5	Humedad	89
73861	7	Sololá	717	San Juan la Laguna	12	San Juan la Laguna	8	Agosto	2023-08-27T00:00:00	2024-11-08T02:00:00	6	Velocidad del viento	6.4
73862	7	Sololá	717	San Juan la Laguna	12	San Juan la Laguna	8	Agosto	2023-08-27T00:00:00	2024-11-08T02:00:00	7	Dirección del viento	3.22
73863	7	Sololá	717	San Juan la Laguna	12	San Juan la Laguna	8	Agosto	2023-08-27T00:00:00	2024-11-08T02:00:00	1	Precipitación	0
73864	7	Sololá	717	San Juan la Laguna	12	San Juan la Laguna	8	Agosto	2023-08-27T00:00:00	2024-11-08T02:00:00	8	Radiación solar	0
73865	7	Sololá	717	San Juan la Laguna	12	San Juan la Laguna	8	Agosto	2023-08-27T00:00:00	2024-11-08T03:00:00	2	Temperatura media	17.9
73866	7	Sololá	717	San Juan la Laguna	12	San Juan la Laguna	8	Agosto	2023-08-27T00:00:00	2024-11-08T03:00:00	4	Temperatura máxima	18.2
73867	7	Sololá	717	San Juan la Laguna	12	San Juan la Laguna	8	Agosto	2023-08-27T00:00:00	2024-11-08T03:00:00	3	Temperatura mínima	17.9
73868	7	Sololá	717	San Juan la Laguna	12	San Juan la Laguna	8	Agosto	2023-08-27T00:00:00	2024-11-08T03:00:00	5	Humedad	89
73869	7	Sololá	717	San Juan la Laguna	12	San Juan la Laguna	8	Agosto	2023-08-27T00:00:00	2024-11-08T03:00:00	6	Velocidad del viento	4.8
73870	7	Sololá	717	San Juan la Laguna	12	San Juan la Laguna	8	Agosto	2023-08-27T00:00:00	2024-11-08T03:00:00	7	Dirección del viento	2.41
73871	7	Sololá	717	San Juan la Laguna	12	San Juan la Laguna	8	Agosto	2023-08-27T00:00:00	2024-11-08T03:00:00	1	Precipitación	0
73872	7	Sololá	717	San Juan la Laguna	12	San Juan la Laguna	8	Agosto	2023-08-27T00:00:00	2024-11-08T03:00:00	8	Radiación solar	0
73873	7	Sololá	717	San Juan la Laguna	12	San Juan la Laguna	8	Agosto	2023-08-27T00:00:00	2024-11-08T04:00:00	2	Temperatura media	17.7
73874	7	Sololá	717	San Juan la Laguna	12	San Juan la Laguna	8	Agosto	2023-08-27T00:00:00	2024-11-08T04:00:00	4	Temperatura máxima	18
73875	7	Sololá	717	San Juan la Laguna	12	San Juan la Laguna	8	Agosto	2023-08-27T00:00:00	2024-11-08T04:00:00	3	Temperatura mínima	17.7
73876	7	Sololá	717	San Juan la Laguna	12	San Juan la Laguna	8	Agosto	2023-08-27T00:00:00	2024-11-08T04:00:00	5	Humedad	88
73877	7	Sololá	717	San Juan la Laguna	12	San Juan la Laguna	8	Agosto	2023-08-27T00:00:00	2024-11-08T04:00:00	6	Velocidad del viento	3.2
73878	7	Sololá	717	San Juan la Laguna	12	San Juan la Laguna	8	Agosto	2023-08-27T00:00:00	2024-11-08T04:00:00	7	Dirección del viento	1.61
73879	7	Sololá	717	San Juan la Laguna	12	San Juan la Laguna	8	Agosto	2023-08-27T00:00:00	2024-11-08T04:00:00	1	Precipitación	0
73880	7	Sololá	717	San Juan la Laguna	12	San Juan la Laguna	8	Agosto	2023-08-27T00:00:00	2024-11-08T04:00:00	8	Radiación solar	0
73881	7	Sololá	717	San Juan la Laguna	12	San Juan la Laguna	8	Agosto	2023-08-27T00:00:00	2024-11-08T05:00:00	2	Temperatura media	17.6
73882	7	Sololá	717	San Juan la Laguna	12	San Juan la Laguna	8	Agosto	2023-08-27T00:00:00	2024-11-08T05:00:00	4	Temperatura máxima	17.6
73883	7	Sololá	717	San Juan la Laguna	12	San Juan la Laguna	8	Agosto	2023-08-27T00:00:00	2024-11-08T05:00:00	3	Temperatura mínima	17.4
73884	7	Sololá	717	San Juan la Laguna	12	San Juan la Laguna	8	Agosto	2023-08-27T00:00:00	2024-11-08T05:00:00	5	Humedad	88
73885	7	Sololá	717	San Juan la Laguna	12	San Juan la Laguna	8	Agosto	2023-08-27T00:00:00	2024-11-08T05:00:00	6	Velocidad del viento	4.8
73886	7	Sololá	717	San Juan la Laguna	12	San Juan la Laguna	8	Agosto	2023-08-27T00:00:00	2024-11-08T05:00:00	7	Dirección del viento	2.41
73887	7	Sololá	717	San Juan la Laguna	12	San Juan la Laguna	8	Agosto	2023-08-27T00:00:00	2024-11-08T05:00:00	1	Precipitación	0
73888	7	Sololá	717	San Juan la Laguna	12	San Juan la Laguna	8	Agosto	2023-08-27T00:00:00	2024-11-08T05:00:00	8	Radiación solar	0
73889	7	Sololá	717	San Juan la Laguna	12	San Juan la Laguna	8	Agosto	2023-08-27T00:00:00	2024-11-08T06:00:00	2	Temperatura media	17.1
73890	7	Sololá	717	San Juan la Laguna	12	San Juan la Laguna	8	Agosto	2023-08-27T00:00:00	2024-11-08T06:00:00	4	Temperatura máxima	17.3
73891	7	Sololá	717	San Juan la Laguna	12	San Juan la Laguna	8	Agosto	2023-08-27T00:00:00	2024-11-08T06:00:00	3	Temperatura mínima	17.1
73892	7	Sololá	717	San Juan la Laguna	12	San Juan la Laguna	8	Agosto	2023-08-27T00:00:00	2024-11-08T06:00:00	5	Humedad	88
73893	7	Sololá	717	San Juan la Laguna	12	San Juan la Laguna	8	Agosto	2023-08-27T00:00:00	2024-11-08T06:00:00	6	Velocidad del viento	4.8
73894	7	Sololá	717	San Juan la Laguna	12	San Juan la Laguna	8	Agosto	2023-08-27T00:00:00	2024-11-08T06:00:00	7	Dirección del viento	2.41
73895	7	Sololá	717	San Juan la Laguna	12	San Juan la Laguna	8	Agosto	2023-08-27T00:00:00	2024-11-08T06:00:00	1	Precipitación	0
73896	7	Sololá	717	San Juan la Laguna	12	San Juan la Laguna	8	Agosto	2023-08-27T00:00:00	2024-11-08T06:00:00	8	Radiación solar	0
73897	7	Sololá	717	San Juan la Laguna	12	San Juan la Laguna	8	Agosto	2023-08-27T00:00:00	2024-11-08T07:00:00	2	Temperatura media	17.5
73898	7	Sololá	717	San Juan la Laguna	12	San Juan la Laguna	8	Agosto	2023-08-27T00:00:00	2024-11-08T07:00:00	4	Temperatura máxima	17.5
73899	7	Sololá	717	San Juan la Laguna	12	San Juan la Laguna	8	Agosto	2023-08-27T00:00:00	2024-11-08T07:00:00	3	Temperatura mínima	17.5
73900	7	Sololá	717	San Juan la Laguna	12	San Juan la Laguna	8	Agosto	2023-08-27T00:00:00	2024-11-08T07:00:00	5	Humedad	85
73901	7	Sololá	717	San Juan la Laguna	12	San Juan la Laguna	8	Agosto	2023-08-27T00:00:00	2024-11-08T07:00:00	6	Velocidad del viento	8
73902	7	Sololá	717	San Juan la Laguna	12	San Juan la Laguna	8	Agosto	2023-08-27T00:00:00	2024-11-08T07:00:00	7	Dirección del viento	4.02
73903	7	Sololá	717	San Juan la Laguna	12	San Juan la Laguna	8	Agosto	2023-08-27T00:00:00	2024-11-08T07:00:00	1	Precipitación	0
73904	7	Sololá	717	San Juan la Laguna	12	San Juan la Laguna	8	Agosto	2023-08-27T00:00:00	2024-11-08T07:00:00	8	Radiación solar	31
73905	7	Sololá	717	San Juan la Laguna	12	San Juan la Laguna	8	Agosto	2023-08-27T00:00:00	2024-11-08T08:00:00	2	Temperatura media	21.3
73906	7	Sololá	717	San Juan la Laguna	12	San Juan la Laguna	8	Agosto	2023-08-27T00:00:00	2024-11-08T08:00:00	4	Temperatura máxima	21.3
73907	7	Sololá	717	San Juan la Laguna	12	San Juan la Laguna	8	Agosto	2023-08-27T00:00:00	2024-11-08T08:00:00	3	Temperatura mínima	19.2
73908	7	Sololá	717	San Juan la Laguna	12	San Juan la Laguna	8	Agosto	2023-08-27T00:00:00	2024-11-08T08:00:00	5	Humedad	77
73909	7	Sololá	717	San Juan la Laguna	12	San Juan la Laguna	8	Agosto	2023-08-27T00:00:00	2024-11-08T08:00:00	6	Velocidad del viento	1.6
73910	7	Sololá	717	San Juan la Laguna	12	San Juan la Laguna	8	Agosto	2023-08-27T00:00:00	2024-11-08T08:00:00	7	Dirección del viento	0.8
73911	7	Sololá	717	San Juan la Laguna	12	San Juan la Laguna	8	Agosto	2023-08-27T00:00:00	2024-11-08T08:00:00	1	Precipitación	0
73912	7	Sololá	717	San Juan la Laguna	12	San Juan la Laguna	8	Agosto	2023-08-27T00:00:00	2024-11-08T08:00:00	8	Radiación solar	102
73913	7	Sololá	717	San Juan la Laguna	12	San Juan la Laguna	8	Agosto	2023-08-27T00:00:00	2024-11-08T09:00:00	2	Temperatura media	22.3
73914	7	Sololá	717	San Juan la Laguna	12	San Juan la Laguna	8	Agosto	2023-08-27T00:00:00	2024-11-08T09:00:00	4	Temperatura máxima	22.3
73915	7	Sololá	717	San Juan la Laguna	12	San Juan la Laguna	8	Agosto	2023-08-27T00:00:00	2024-11-08T09:00:00	3	Temperatura mínima	21.7
73916	7	Sololá	717	San Juan la Laguna	12	San Juan la Laguna	8	Agosto	2023-08-27T00:00:00	2024-11-08T09:00:00	5	Humedad	77
73917	7	Sololá	717	San Juan la Laguna	12	San Juan la Laguna	8	Agosto	2023-08-27T00:00:00	2024-11-08T09:00:00	6	Velocidad del viento	8
73918	7	Sololá	717	San Juan la Laguna	12	San Juan la Laguna	8	Agosto	2023-08-27T00:00:00	2024-11-08T09:00:00	7	Dirección del viento	4.02
73919	7	Sololá	717	San Juan la Laguna	12	San Juan la Laguna	8	Agosto	2023-08-27T00:00:00	2024-11-08T09:00:00	1	Precipitación	0
73920	7	Sololá	717	San Juan la Laguna	12	San Juan la Laguna	8	Agosto	2023-08-27T00:00:00	2024-11-08T09:00:00	8	Radiación solar	349
73921	7	Sololá	717	San Juan la Laguna	12	San Juan la Laguna	8	Agosto	2023-08-27T00:00:00	2024-11-08T10:00:00	2	Temperatura media	23.1
73922	7	Sololá	717	San Juan la Laguna	12	San Juan la Laguna	8	Agosto	2023-08-27T00:00:00	2024-11-08T10:00:00	4	Temperatura máxima	23.2
73923	7	Sololá	717	San Juan la Laguna	12	San Juan la Laguna	8	Agosto	2023-08-27T00:00:00	2024-11-08T10:00:00	3	Temperatura mínima	22.6
73924	7	Sololá	717	San Juan la Laguna	12	San Juan la Laguna	8	Agosto	2023-08-27T00:00:00	2024-11-08T10:00:00	5	Humedad	75
73925	7	Sololá	717	San Juan la Laguna	12	San Juan la Laguna	8	Agosto	2023-08-27T00:00:00	2024-11-08T10:00:00	6	Velocidad del viento	9.7
73926	7	Sololá	717	San Juan la Laguna	12	San Juan la Laguna	8	Agosto	2023-08-27T00:00:00	2024-11-08T10:00:00	7	Dirección del viento	4.83
73927	7	Sololá	717	San Juan la Laguna	12	San Juan la Laguna	8	Agosto	2023-08-27T00:00:00	2024-11-08T10:00:00	1	Precipitación	0
73928	7	Sololá	717	San Juan la Laguna	12	San Juan la Laguna	8	Agosto	2023-08-27T00:00:00	2024-11-08T10:00:00	8	Radiación solar	361
73929	7	Sololá	717	San Juan la Laguna	12	San Juan la Laguna	8	Agosto	2023-08-27T00:00:00	2024-11-08T11:00:00	2	Temperatura media	23.9
73930	7	Sololá	717	San Juan la Laguna	12	San Juan la Laguna	8	Agosto	2023-08-27T00:00:00	2024-11-08T11:00:00	4	Temperatura máxima	24.3
73931	7	Sololá	717	San Juan la Laguna	12	San Juan la Laguna	8	Agosto	2023-08-27T00:00:00	2024-11-08T11:00:00	3	Temperatura mínima	22.8
73932	7	Sololá	717	San Juan la Laguna	12	San Juan la Laguna	8	Agosto	2023-08-27T00:00:00	2024-11-08T11:00:00	5	Humedad	68
73933	7	Sololá	717	San Juan la Laguna	12	San Juan la Laguna	8	Agosto	2023-08-27T00:00:00	2024-11-08T11:00:00	6	Velocidad del viento	0
73934	7	Sololá	717	San Juan la Laguna	12	San Juan la Laguna	8	Agosto	2023-08-27T00:00:00	2024-11-08T11:00:00	7	Dirección del viento	0
73935	7	Sololá	717	San Juan la Laguna	12	San Juan la Laguna	8	Agosto	2023-08-27T00:00:00	2024-11-08T11:00:00	1	Precipitación	0
73936	7	Sololá	717	San Juan la Laguna	12	San Juan la Laguna	8	Agosto	2023-08-27T00:00:00	2024-11-08T11:00:00	8	Radiación solar	908
73937	7	Sololá	717	San Juan la Laguna	12	San Juan la Laguna	8	Agosto	2023-08-27T00:00:00	2024-11-08T12:00:00	2	Temperatura media	24.2
73938	7	Sololá	717	San Juan la Laguna	12	San Juan la Laguna	8	Agosto	2023-08-27T00:00:00	2024-11-08T12:00:00	4	Temperatura máxima	24.7
73939	7	Sololá	717	San Juan la Laguna	12	San Juan la Laguna	8	Agosto	2023-08-27T00:00:00	2024-11-08T12:00:00	3	Temperatura mínima	23.9
73940	7	Sololá	717	San Juan la Laguna	12	San Juan la Laguna	8	Agosto	2023-08-27T00:00:00	2024-11-08T12:00:00	5	Humedad	64
73941	7	Sololá	717	San Juan la Laguna	12	San Juan la Laguna	8	Agosto	2023-08-27T00:00:00	2024-11-08T12:00:00	6	Velocidad del viento	1.6
73942	7	Sololá	717	San Juan la Laguna	12	San Juan la Laguna	8	Agosto	2023-08-27T00:00:00	2024-11-08T12:00:00	7	Dirección del viento	1.61
73943	7	Sololá	717	San Juan la Laguna	12	San Juan la Laguna	8	Agosto	2023-08-27T00:00:00	2024-11-08T12:00:00	1	Precipitación	0
73944	7	Sololá	717	San Juan la Laguna	12	San Juan la Laguna	8	Agosto	2023-08-27T00:00:00	2024-11-08T12:00:00	8	Radiación solar	890
73945	7	Sololá	717	San Juan la Laguna	12	San Juan la Laguna	8	Agosto	2023-08-27T00:00:00	2024-11-08T13:00:00	2	Temperatura media	24.5
73946	7	Sololá	717	San Juan la Laguna	12	San Juan la Laguna	8	Agosto	2023-08-27T00:00:00	2024-11-08T13:00:00	4	Temperatura máxima	24.6
73947	7	Sololá	717	San Juan la Laguna	12	San Juan la Laguna	8	Agosto	2023-08-27T00:00:00	2024-11-08T13:00:00	3	Temperatura mínima	24
73948	7	Sololá	717	San Juan la Laguna	12	San Juan la Laguna	8	Agosto	2023-08-27T00:00:00	2024-11-08T13:00:00	5	Humedad	67
73949	7	Sololá	717	San Juan la Laguna	12	San Juan la Laguna	8	Agosto	2023-08-27T00:00:00	2024-11-08T13:00:00	6	Velocidad del viento	3.2
73950	7	Sololá	717	San Juan la Laguna	12	San Juan la Laguna	8	Agosto	2023-08-27T00:00:00	2024-11-08T13:00:00	7	Dirección del viento	3.22
73951	7	Sololá	717	San Juan la Laguna	12	San Juan la Laguna	8	Agosto	2023-08-27T00:00:00	2024-11-08T13:00:00	1	Precipitación	0.2
73952	7	Sololá	717	San Juan la Laguna	12	San Juan la Laguna	8	Agosto	2023-08-27T00:00:00	2024-11-08T13:00:00	8	Radiación solar	885
73953	7	Sololá	717	San Juan la Laguna	12	San Juan la Laguna	8	Agosto	2023-08-27T00:00:00	2024-11-08T14:00:00	2	Temperatura media	24.3
73954	7	Sololá	717	San Juan la Laguna	12	San Juan la Laguna	8	Agosto	2023-08-27T00:00:00	2024-11-08T14:00:00	4	Temperatura máxima	24.8
73955	7	Sololá	717	San Juan la Laguna	12	San Juan la Laguna	8	Agosto	2023-08-27T00:00:00	2024-11-08T14:00:00	3	Temperatura mínima	23.8
73956	7	Sololá	717	San Juan la Laguna	12	San Juan la Laguna	8	Agosto	2023-08-27T00:00:00	2024-11-08T14:00:00	5	Humedad	68
73957	7	Sololá	717	San Juan la Laguna	12	San Juan la Laguna	8	Agosto	2023-08-27T00:00:00	2024-11-08T14:00:00	6	Velocidad del viento	1.6
73958	7	Sololá	717	San Juan la Laguna	12	San Juan la Laguna	8	Agosto	2023-08-27T00:00:00	2024-11-08T14:00:00	7	Dirección del viento	1.61
73959	7	Sololá	717	San Juan la Laguna	12	San Juan la Laguna	8	Agosto	2023-08-27T00:00:00	2024-11-08T14:00:00	1	Precipitación	0
73960	7	Sololá	717	San Juan la Laguna	12	San Juan la Laguna	8	Agosto	2023-08-27T00:00:00	2024-11-08T14:00:00	8	Radiación solar	799
73961	7	Sololá	717	San Juan la Laguna	12	San Juan la Laguna	8	Agosto	2023-08-27T00:00:00	2024-11-08T15:00:00	2	Temperatura media	23.5
73962	7	Sololá	717	San Juan la Laguna	12	San Juan la Laguna	8	Agosto	2023-08-27T00:00:00	2024-11-08T15:00:00	4	Temperatura máxima	24.3
73963	7	Sololá	717	San Juan la Laguna	12	San Juan la Laguna	8	Agosto	2023-08-27T00:00:00	2024-11-08T15:00:00	3	Temperatura mínima	23
73964	7	Sololá	717	San Juan la Laguna	12	San Juan la Laguna	8	Agosto	2023-08-27T00:00:00	2024-11-08T15:00:00	5	Humedad	73
73965	7	Sololá	717	San Juan la Laguna	12	San Juan la Laguna	8	Agosto	2023-08-27T00:00:00	2024-11-08T15:00:00	6	Velocidad del viento	1.6
73966	7	Sololá	717	San Juan la Laguna	12	San Juan la Laguna	8	Agosto	2023-08-27T00:00:00	2024-11-08T15:00:00	7	Dirección del viento	1.61
73967	7	Sololá	717	San Juan la Laguna	12	San Juan la Laguna	8	Agosto	2023-08-27T00:00:00	2024-11-08T15:00:00	1	Precipitación	0
73968	7	Sololá	717	San Juan la Laguna	12	San Juan la Laguna	8	Agosto	2023-08-27T00:00:00	2024-11-08T15:00:00	8	Radiación solar	458
73969	7	Sololá	717	San Juan la Laguna	12	San Juan la Laguna	8	Agosto	2023-08-27T00:00:00	2024-11-08T16:00:00	2	Temperatura media	22.5
73970	7	Sololá	717	San Juan la Laguna	12	San Juan la Laguna	8	Agosto	2023-08-27T00:00:00	2024-11-08T16:00:00	4	Temperatura máxima	23.5
73971	7	Sololá	717	San Juan la Laguna	12	San Juan la Laguna	8	Agosto	2023-08-27T00:00:00	2024-11-08T16:00:00	3	Temperatura mínima	22.5
73972	7	Sololá	717	San Juan la Laguna	12	San Juan la Laguna	8	Agosto	2023-08-27T00:00:00	2024-11-08T16:00:00	5	Humedad	76
73973	7	Sololá	717	San Juan la Laguna	12	San Juan la Laguna	8	Agosto	2023-08-27T00:00:00	2024-11-08T16:00:00	6	Velocidad del viento	3.2
73974	7	Sololá	717	San Juan la Laguna	12	San Juan la Laguna	8	Agosto	2023-08-27T00:00:00	2024-11-08T16:00:00	7	Dirección del viento	3.22
73975	7	Sololá	717	San Juan la Laguna	12	San Juan la Laguna	8	Agosto	2023-08-27T00:00:00	2024-11-08T16:00:00	1	Precipitación	0
73976	7	Sololá	717	San Juan la Laguna	12	San Juan la Laguna	8	Agosto	2023-08-27T00:00:00	2024-11-08T16:00:00	8	Radiación solar	246
73977	7	Sololá	717	San Juan la Laguna	12	San Juan la Laguna	8	Agosto	2023-08-27T00:00:00	2024-11-08T17:00:00	2	Temperatura media	21.5
73978	7	Sololá	717	San Juan la Laguna	12	San Juan la Laguna	8	Agosto	2023-08-27T00:00:00	2024-11-08T17:00:00	4	Temperatura máxima	22.6
73979	7	Sololá	717	San Juan la Laguna	12	San Juan la Laguna	8	Agosto	2023-08-27T00:00:00	2024-11-08T17:00:00	3	Temperatura mínima	21.5
73980	7	Sololá	717	San Juan la Laguna	12	San Juan la Laguna	8	Agosto	2023-08-27T00:00:00	2024-11-08T17:00:00	5	Humedad	79
73981	7	Sololá	717	San Juan la Laguna	12	San Juan la Laguna	8	Agosto	2023-08-27T00:00:00	2024-11-08T17:00:00	6	Velocidad del viento	6.4
73982	7	Sololá	717	San Juan la Laguna	12	San Juan la Laguna	8	Agosto	2023-08-27T00:00:00	2024-11-08T17:00:00	7	Dirección del viento	6.44
73983	7	Sololá	717	San Juan la Laguna	12	San Juan la Laguna	8	Agosto	2023-08-27T00:00:00	2024-11-08T17:00:00	1	Precipitación	0
73984	7	Sololá	717	San Juan la Laguna	12	San Juan la Laguna	8	Agosto	2023-08-27T00:00:00	2024-11-08T17:00:00	8	Radiación solar	59
73985	7	Sololá	717	San Juan la Laguna	12	San Juan la Laguna	8	Agosto	2023-08-27T00:00:00	2024-11-08T18:00:00	2	Temperatura media	21.3
73986	7	Sololá	717	San Juan la Laguna	12	San Juan la Laguna	8	Agosto	2023-08-27T00:00:00	2024-11-08T18:00:00	4	Temperatura máxima	21.5
73987	7	Sololá	717	San Juan la Laguna	12	San Juan la Laguna	8	Agosto	2023-08-27T00:00:00	2024-11-08T18:00:00	3	Temperatura mínima	21.1
73988	7	Sololá	717	San Juan la Laguna	12	San Juan la Laguna	8	Agosto	2023-08-27T00:00:00	2024-11-08T18:00:00	5	Humedad	79
73989	7	Sololá	717	San Juan la Laguna	12	San Juan la Laguna	8	Agosto	2023-08-27T00:00:00	2024-11-08T18:00:00	6	Velocidad del viento	4.8
73990	7	Sololá	717	San Juan la Laguna	12	San Juan la Laguna	8	Agosto	2023-08-27T00:00:00	2024-11-08T18:00:00	7	Dirección del viento	4.83
73991	7	Sololá	717	San Juan la Laguna	12	San Juan la Laguna	8	Agosto	2023-08-27T00:00:00	2024-11-08T18:00:00	1	Precipitación	0
73992	7	Sololá	717	San Juan la Laguna	12	San Juan la Laguna	8	Agosto	2023-08-27T00:00:00	2024-11-08T18:00:00	8	Radiación solar	50
73993	7	Sololá	717	San Juan la Laguna	12	San Juan la Laguna	8	Agosto	2023-08-27T00:00:00	2024-11-08T19:00:00	2	Temperatura media	20.7
73994	7	Sololá	717	San Juan la Laguna	12	San Juan la Laguna	8	Agosto	2023-08-27T00:00:00	2024-11-08T19:00:00	4	Temperatura máxima	21.4
73995	7	Sololá	717	San Juan la Laguna	12	San Juan la Laguna	8	Agosto	2023-08-27T00:00:00	2024-11-08T19:00:00	3	Temperatura mínima	20.7
73996	7	Sololá	717	San Juan la Laguna	12	San Juan la Laguna	8	Agosto	2023-08-27T00:00:00	2024-11-08T19:00:00	5	Humedad	81
73997	7	Sololá	717	San Juan la Laguna	12	San Juan la Laguna	8	Agosto	2023-08-27T00:00:00	2024-11-08T19:00:00	6	Velocidad del viento	0
73998	7	Sololá	717	San Juan la Laguna	12	San Juan la Laguna	8	Agosto	2023-08-27T00:00:00	2024-11-08T19:00:00	7	Dirección del viento	0
73999	7	Sololá	717	San Juan la Laguna	12	San Juan la Laguna	8	Agosto	2023-08-27T00:00:00	2024-11-08T19:00:00	1	Precipitación	0
74000	7	Sololá	717	San Juan la Laguna	12	San Juan la Laguna	8	Agosto	2023-08-27T00:00:00	2024-11-08T19:00:00	8	Radiación solar	0
74001	7	Sololá	717	San Juan la Laguna	12	San Juan la Laguna	8	Agosto	2023-08-27T00:00:00	2024-11-08T20:00:00	2	Temperatura media	18.3
74002	7	Sololá	717	San Juan la Laguna	12	San Juan la Laguna	8	Agosto	2023-08-27T00:00:00	2024-11-08T20:00:00	4	Temperatura máxima	20.7
74003	7	Sololá	717	San Juan la Laguna	12	San Juan la Laguna	8	Agosto	2023-08-27T00:00:00	2024-11-08T20:00:00	3	Temperatura mínima	18.3
74004	7	Sololá	717	San Juan la Laguna	12	San Juan la Laguna	8	Agosto	2023-08-27T00:00:00	2024-11-08T20:00:00	5	Humedad	89
74005	7	Sololá	717	San Juan la Laguna	12	San Juan la Laguna	8	Agosto	2023-08-27T00:00:00	2024-11-08T20:00:00	6	Velocidad del viento	4.8
74006	7	Sololá	717	San Juan la Laguna	12	San Juan la Laguna	8	Agosto	2023-08-27T00:00:00	2024-11-08T20:00:00	7	Dirección del viento	4.83
74007	7	Sololá	717	San Juan la Laguna	12	San Juan la Laguna	8	Agosto	2023-08-27T00:00:00	2024-11-08T20:00:00	1	Precipitación	1.8
74008	7	Sololá	717	San Juan la Laguna	12	San Juan la Laguna	8	Agosto	2023-08-27T00:00:00	2024-11-08T20:00:00	8	Radiación solar	0
74009	7	Sololá	717	San Juan la Laguna	12	San Juan la Laguna	8	Agosto	2023-08-27T00:00:00	2024-11-08T21:00:00	2	Temperatura media	18.4
74010	7	Sololá	717	San Juan la Laguna	12	San Juan la Laguna	8	Agosto	2023-08-27T00:00:00	2024-11-08T21:00:00	4	Temperatura máxima	18.6
74011	7	Sololá	717	San Juan la Laguna	12	San Juan la Laguna	8	Agosto	2023-08-27T00:00:00	2024-11-08T21:00:00	3	Temperatura mínima	18.3
74012	7	Sololá	717	San Juan la Laguna	12	San Juan la Laguna	8	Agosto	2023-08-27T00:00:00	2024-11-08T21:00:00	5	Humedad	90
74013	7	Sololá	717	San Juan la Laguna	12	San Juan la Laguna	8	Agosto	2023-08-27T00:00:00	2024-11-08T21:00:00	6	Velocidad del viento	0
74014	7	Sololá	717	San Juan la Laguna	12	San Juan la Laguna	8	Agosto	2023-08-27T00:00:00	2024-11-08T21:00:00	7	Dirección del viento	0
74015	7	Sololá	717	San Juan la Laguna	12	San Juan la Laguna	8	Agosto	2023-08-27T00:00:00	2024-11-08T21:00:00	1	Precipitación	0.2
74016	7	Sololá	717	San Juan la Laguna	12	San Juan la Laguna	8	Agosto	2023-08-27T00:00:00	2024-11-08T21:00:00	8	Radiación solar	0
74017	7	Sololá	717	San Juan la Laguna	12	San Juan la Laguna	8	Agosto	2023-08-27T00:00:00	2024-11-08T22:00:00	2	Temperatura media	18.1
74018	7	Sololá	717	San Juan la Laguna	12	San Juan la Laguna	8	Agosto	2023-08-27T00:00:00	2024-11-08T22:00:00	4	Temperatura máxima	18.4
74019	7	Sololá	717	San Juan la Laguna	12	San Juan la Laguna	8	Agosto	2023-08-27T00:00:00	2024-11-08T22:00:00	3	Temperatura mínima	18
74020	7	Sololá	717	San Juan la Laguna	12	San Juan la Laguna	8	Agosto	2023-08-27T00:00:00	2024-11-08T22:00:00	5	Humedad	91
74021	7	Sololá	717	San Juan la Laguna	12	San Juan la Laguna	8	Agosto	2023-08-27T00:00:00	2024-11-08T22:00:00	6	Velocidad del viento	3.2
74022	7	Sololá	717	San Juan la Laguna	12	San Juan la Laguna	8	Agosto	2023-08-27T00:00:00	2024-11-08T22:00:00	7	Dirección del viento	3.22
74023	7	Sololá	717	San Juan la Laguna	12	San Juan la Laguna	8	Agosto	2023-08-27T00:00:00	2024-11-08T22:00:00	1	Precipitación	3.4
74024	7	Sololá	717	San Juan la Laguna	12	San Juan la Laguna	8	Agosto	2023-08-27T00:00:00	2024-11-08T22:00:00	8	Radiación solar	0
74025	7	Sololá	717	San Juan la Laguna	12	San Juan la Laguna	8	Agosto	2023-08-27T00:00:00	2024-11-08T23:00:00	2	Temperatura media	17.7
74026	7	Sololá	717	San Juan la Laguna	12	San Juan la Laguna	8	Agosto	2023-08-27T00:00:00	2024-11-08T23:00:00	4	Temperatura máxima	18.1
74027	7	Sololá	717	San Juan la Laguna	12	San Juan la Laguna	8	Agosto	2023-08-27T00:00:00	2024-11-08T23:00:00	3	Temperatura mínima	17.4
74028	7	Sololá	717	San Juan la Laguna	12	San Juan la Laguna	8	Agosto	2023-08-27T00:00:00	2024-11-08T23:00:00	5	Humedad	93
74029	7	Sololá	717	San Juan la Laguna	12	San Juan la Laguna	8	Agosto	2023-08-27T00:00:00	2024-11-08T23:00:00	6	Velocidad del viento	0
74030	7	Sololá	717	San Juan la Laguna	12	San Juan la Laguna	8	Agosto	2023-08-27T00:00:00	2024-11-08T23:00:00	7	Dirección del viento	0
74031	7	Sololá	717	San Juan la Laguna	12	San Juan la Laguna	8	Agosto	2023-08-27T00:00:00	2024-11-08T23:00:00	1	Precipitación	1.2
74032	7	Sololá	717	San Juan la Laguna	12	San Juan la Laguna	8	Agosto	2023-08-27T00:00:00	2024-11-08T23:00:00	8	Radiación solar	0
74033	7	Sololá	717	San Juan la Laguna	12	San Juan la Laguna	8	Agosto	2023-08-28T00:00:00	2024-11-08T00:00:00	2	Temperatura media	17.5
74034	7	Sololá	717	San Juan la Laguna	12	San Juan la Laguna	8	Agosto	2023-08-28T00:00:00	2024-11-08T00:00:00	4	Temperatura máxima	17.7
74035	7	Sololá	717	San Juan la Laguna	12	San Juan la Laguna	8	Agosto	2023-08-28T00:00:00	2024-11-08T00:00:00	3	Temperatura mínima	17.4
74036	7	Sololá	717	San Juan la Laguna	12	San Juan la Laguna	8	Agosto	2023-08-28T00:00:00	2024-11-08T00:00:00	5	Humedad	93
74037	7	Sololá	717	San Juan la Laguna	12	San Juan la Laguna	8	Agosto	2023-08-28T00:00:00	2024-11-08T00:00:00	6	Velocidad del viento	0
74038	7	Sololá	717	San Juan la Laguna	12	San Juan la Laguna	8	Agosto	2023-08-28T00:00:00	2024-11-08T00:00:00	7	Dirección del viento	0
74039	7	Sololá	717	San Juan la Laguna	12	San Juan la Laguna	8	Agosto	2023-08-28T00:00:00	2024-11-08T00:00:00	1	Precipitación	3.4
74040	7	Sololá	717	San Juan la Laguna	12	San Juan la Laguna	8	Agosto	2023-08-28T00:00:00	2024-11-08T00:00:00	8	Radiación solar	0
74041	7	Sololá	717	San Juan la Laguna	12	San Juan la Laguna	8	Agosto	2023-08-28T00:00:00	2024-11-08T01:00:00	2	Temperatura media	17.5
74042	7	Sololá	717	San Juan la Laguna	12	San Juan la Laguna	8	Agosto	2023-08-28T00:00:00	2024-11-08T01:00:00	4	Temperatura máxima	17.7
74043	7	Sololá	717	San Juan la Laguna	12	San Juan la Laguna	8	Agosto	2023-08-28T00:00:00	2024-11-08T01:00:00	3	Temperatura mínima	17.4
74044	7	Sololá	717	San Juan la Laguna	12	San Juan la Laguna	8	Agosto	2023-08-28T00:00:00	2024-11-08T01:00:00	5	Humedad	93
74045	7	Sololá	717	San Juan la Laguna	12	San Juan la Laguna	8	Agosto	2023-08-28T00:00:00	2024-11-08T01:00:00	6	Velocidad del viento	0
74046	7	Sololá	717	San Juan la Laguna	12	San Juan la Laguna	8	Agosto	2023-08-28T00:00:00	2024-11-08T01:00:00	7	Dirección del viento	0
74047	7	Sololá	717	San Juan la Laguna	12	San Juan la Laguna	8	Agosto	2023-08-28T00:00:00	2024-11-08T01:00:00	1	Precipitación	0
74048	7	Sololá	717	San Juan la Laguna	12	San Juan la Laguna	8	Agosto	2023-08-28T00:00:00	2024-11-08T01:00:00	8	Radiación solar	0
74049	7	Sololá	717	San Juan la Laguna	12	San Juan la Laguna	8	Agosto	2023-08-28T00:00:00	2024-11-08T02:00:00	2	Temperatura media	17.2
74050	7	Sololá	717	San Juan la Laguna	12	San Juan la Laguna	8	Agosto	2023-08-28T00:00:00	2024-11-08T02:00:00	4	Temperatura máxima	17.6
74051	7	Sololá	717	San Juan la Laguna	12	San Juan la Laguna	8	Agosto	2023-08-28T00:00:00	2024-11-08T02:00:00	3	Temperatura mínima	17.2
74052	7	Sololá	717	San Juan la Laguna	12	San Juan la Laguna	8	Agosto	2023-08-28T00:00:00	2024-11-08T02:00:00	5	Humedad	89
74053	7	Sololá	717	San Juan la Laguna	12	San Juan la Laguna	8	Agosto	2023-08-28T00:00:00	2024-11-08T02:00:00	6	Velocidad del viento	1.6
74054	7	Sololá	717	San Juan la Laguna	12	San Juan la Laguna	8	Agosto	2023-08-28T00:00:00	2024-11-08T02:00:00	7	Dirección del viento	1.61
74055	7	Sololá	717	San Juan la Laguna	12	San Juan la Laguna	8	Agosto	2023-08-28T00:00:00	2024-11-08T02:00:00	1	Precipitación	0.8
74056	7	Sololá	717	San Juan la Laguna	12	San Juan la Laguna	8	Agosto	2023-08-28T00:00:00	2024-11-08T02:00:00	8	Radiación solar	0
74057	7	Sololá	717	San Juan la Laguna	12	San Juan la Laguna	8	Agosto	2023-08-28T00:00:00	2024-11-08T03:00:00	2	Temperatura media	16.4
74058	7	Sololá	717	San Juan la Laguna	12	San Juan la Laguna	8	Agosto	2023-08-28T00:00:00	2024-11-08T03:00:00	4	Temperatura máxima	17.2
74059	7	Sololá	717	San Juan la Laguna	12	San Juan la Laguna	8	Agosto	2023-08-28T00:00:00	2024-11-08T03:00:00	3	Temperatura mínima	16.4
74060	7	Sololá	717	San Juan la Laguna	12	San Juan la Laguna	8	Agosto	2023-08-28T00:00:00	2024-11-08T03:00:00	5	Humedad	92
74061	7	Sololá	717	San Juan la Laguna	12	San Juan la Laguna	8	Agosto	2023-08-28T00:00:00	2024-11-08T03:00:00	6	Velocidad del viento	1.6
74062	7	Sololá	717	San Juan la Laguna	12	San Juan la Laguna	8	Agosto	2023-08-28T00:00:00	2024-11-08T03:00:00	7	Dirección del viento	1.61
74063	7	Sololá	717	San Juan la Laguna	12	San Juan la Laguna	8	Agosto	2023-08-28T00:00:00	2024-11-08T03:00:00	1	Precipitación	3.2
74064	7	Sololá	717	San Juan la Laguna	12	San Juan la Laguna	8	Agosto	2023-08-28T00:00:00	2024-11-08T03:00:00	8	Radiación solar	0
74065	7	Sololá	717	San Juan la Laguna	12	San Juan la Laguna	8	Agosto	2023-08-28T00:00:00	2024-11-08T04:00:00	2	Temperatura media	16.2
74066	7	Sololá	717	San Juan la Laguna	12	San Juan la Laguna	8	Agosto	2023-08-28T00:00:00	2024-11-08T04:00:00	4	Temperatura máxima	16.4
74067	7	Sololá	717	San Juan la Laguna	12	San Juan la Laguna	8	Agosto	2023-08-28T00:00:00	2024-11-08T04:00:00	3	Temperatura mínima	16.2
74068	7	Sololá	717	San Juan la Laguna	12	San Juan la Laguna	8	Agosto	2023-08-28T00:00:00	2024-11-08T04:00:00	5	Humedad	92
74069	7	Sololá	717	San Juan la Laguna	12	San Juan la Laguna	8	Agosto	2023-08-28T00:00:00	2024-11-08T04:00:00	6	Velocidad del viento	0
74070	7	Sololá	717	San Juan la Laguna	12	San Juan la Laguna	8	Agosto	2023-08-28T00:00:00	2024-11-08T04:00:00	7	Dirección del viento	0
74071	7	Sololá	717	San Juan la Laguna	12	San Juan la Laguna	8	Agosto	2023-08-28T00:00:00	2024-11-08T04:00:00	1	Precipitación	0
74072	7	Sololá	717	San Juan la Laguna	12	San Juan la Laguna	8	Agosto	2023-08-28T00:00:00	2024-11-08T04:00:00	8	Radiación solar	0
74073	7	Sololá	717	San Juan la Laguna	12	San Juan la Laguna	8	Agosto	2023-08-28T00:00:00	2024-11-08T05:00:00	2	Temperatura media	15.9
74074	7	Sololá	717	San Juan la Laguna	12	San Juan la Laguna	8	Agosto	2023-08-28T00:00:00	2024-11-08T05:00:00	4	Temperatura máxima	16.2
74075	7	Sololá	717	San Juan la Laguna	12	San Juan la Laguna	8	Agosto	2023-08-28T00:00:00	2024-11-08T05:00:00	3	Temperatura mínima	15.9
74076	7	Sololá	717	San Juan la Laguna	12	San Juan la Laguna	8	Agosto	2023-08-28T00:00:00	2024-11-08T05:00:00	5	Humedad	92
74077	7	Sololá	717	San Juan la Laguna	12	San Juan la Laguna	8	Agosto	2023-08-28T00:00:00	2024-11-08T05:00:00	6	Velocidad del viento	0
74078	7	Sololá	717	San Juan la Laguna	12	San Juan la Laguna	8	Agosto	2023-08-28T00:00:00	2024-11-08T05:00:00	7	Dirección del viento	0
74079	7	Sololá	717	San Juan la Laguna	12	San Juan la Laguna	8	Agosto	2023-08-28T00:00:00	2024-11-08T05:00:00	1	Precipitación	0
74080	7	Sololá	717	San Juan la Laguna	12	San Juan la Laguna	8	Agosto	2023-08-28T00:00:00	2024-11-08T05:00:00	8	Radiación solar	0
74081	7	Sololá	717	San Juan la Laguna	12	San Juan la Laguna	8	Agosto	2023-08-28T00:00:00	2024-11-08T06:00:00	2	Temperatura media	15.5
74082	7	Sololá	717	San Juan la Laguna	12	San Juan la Laguna	8	Agosto	2023-08-28T00:00:00	2024-11-08T06:00:00	4	Temperatura máxima	15.9
74083	7	Sololá	717	San Juan la Laguna	12	San Juan la Laguna	8	Agosto	2023-08-28T00:00:00	2024-11-08T06:00:00	3	Temperatura mínima	15.3
74084	7	Sololá	717	San Juan la Laguna	12	San Juan la Laguna	8	Agosto	2023-08-28T00:00:00	2024-11-08T06:00:00	5	Humedad	92
74085	7	Sololá	717	San Juan la Laguna	12	San Juan la Laguna	8	Agosto	2023-08-28T00:00:00	2024-11-08T06:00:00	6	Velocidad del viento	3.2
74086	7	Sololá	717	San Juan la Laguna	12	San Juan la Laguna	8	Agosto	2023-08-28T00:00:00	2024-11-08T06:00:00	7	Dirección del viento	3.22
74087	7	Sololá	717	San Juan la Laguna	12	San Juan la Laguna	8	Agosto	2023-08-28T00:00:00	2024-11-08T06:00:00	1	Precipitación	0.2
74088	7	Sololá	717	San Juan la Laguna	12	San Juan la Laguna	8	Agosto	2023-08-28T00:00:00	2024-11-08T06:00:00	8	Radiación solar	0
74089	7	Sololá	717	San Juan la Laguna	12	San Juan la Laguna	8	Agosto	2023-08-28T00:00:00	2024-11-08T07:00:00	2	Temperatura media	16.9
74090	7	Sololá	717	San Juan la Laguna	12	San Juan la Laguna	8	Agosto	2023-08-28T00:00:00	2024-11-08T07:00:00	4	Temperatura máxima	17.1
74091	7	Sololá	717	San Juan la Laguna	12	San Juan la Laguna	8	Agosto	2023-08-28T00:00:00	2024-11-08T07:00:00	3	Temperatura mínima	15.5
74092	7	Sololá	717	San Juan la Laguna	12	San Juan la Laguna	8	Agosto	2023-08-28T00:00:00	2024-11-08T07:00:00	5	Humedad	88
74093	7	Sololá	717	San Juan la Laguna	12	San Juan la Laguna	8	Agosto	2023-08-28T00:00:00	2024-11-08T07:00:00	6	Velocidad del viento	3.2
74094	7	Sololá	717	San Juan la Laguna	12	San Juan la Laguna	8	Agosto	2023-08-28T00:00:00	2024-11-08T07:00:00	7	Dirección del viento	3.22
74095	7	Sololá	717	San Juan la Laguna	12	San Juan la Laguna	8	Agosto	2023-08-28T00:00:00	2024-11-08T07:00:00	1	Precipitación	0
74096	7	Sololá	717	San Juan la Laguna	12	San Juan la Laguna	8	Agosto	2023-08-28T00:00:00	2024-11-08T07:00:00	8	Radiación solar	32
74097	7	Sololá	717	San Juan la Laguna	12	San Juan la Laguna	8	Agosto	2023-08-28T00:00:00	2024-11-08T08:00:00	2	Temperatura media	19.9
74098	7	Sololá	717	San Juan la Laguna	12	San Juan la Laguna	8	Agosto	2023-08-28T00:00:00	2024-11-08T08:00:00	4	Temperatura máxima	19.9
74099	7	Sololá	717	San Juan la Laguna	12	San Juan la Laguna	8	Agosto	2023-08-28T00:00:00	2024-11-08T08:00:00	3	Temperatura mínima	16.9
74100	7	Sololá	717	San Juan la Laguna	12	San Juan la Laguna	8	Agosto	2023-08-28T00:00:00	2024-11-08T08:00:00	5	Humedad	78
74101	7	Sololá	717	San Juan la Laguna	12	San Juan la Laguna	8	Agosto	2023-08-28T00:00:00	2024-11-08T08:00:00	6	Velocidad del viento	0
74102	7	Sololá	717	San Juan la Laguna	12	San Juan la Laguna	8	Agosto	2023-08-28T00:00:00	2024-11-08T08:00:00	7	Dirección del viento	0
74103	7	Sololá	717	San Juan la Laguna	12	San Juan la Laguna	8	Agosto	2023-08-28T00:00:00	2024-11-08T08:00:00	1	Precipitación	0
74104	7	Sololá	717	San Juan la Laguna	12	San Juan la Laguna	8	Agosto	2023-08-28T00:00:00	2024-11-08T08:00:00	8	Radiación solar	201
74105	7	Sololá	717	San Juan la Laguna	12	San Juan la Laguna	8	Agosto	2023-08-28T00:00:00	2024-11-08T09:00:00	2	Temperatura media	20.7
74106	7	Sololá	717	San Juan la Laguna	12	San Juan la Laguna	8	Agosto	2023-08-28T00:00:00	2024-11-08T09:00:00	4	Temperatura máxima	20.7
74107	7	Sololá	717	San Juan la Laguna	12	San Juan la Laguna	8	Agosto	2023-08-28T00:00:00	2024-11-08T09:00:00	3	Temperatura mínima	19.9
74108	7	Sololá	717	San Juan la Laguna	12	San Juan la Laguna	8	Agosto	2023-08-28T00:00:00	2024-11-08T09:00:00	5	Humedad	72
74109	7	Sololá	717	San Juan la Laguna	12	San Juan la Laguna	8	Agosto	2023-08-28T00:00:00	2024-11-08T09:00:00	6	Velocidad del viento	0
74110	7	Sololá	717	San Juan la Laguna	12	San Juan la Laguna	8	Agosto	2023-08-28T00:00:00	2024-11-08T09:00:00	7	Dirección del viento	0
74111	7	Sololá	717	San Juan la Laguna	12	San Juan la Laguna	8	Agosto	2023-08-28T00:00:00	2024-11-08T09:00:00	1	Precipitación	0
74112	7	Sololá	717	San Juan la Laguna	12	San Juan la Laguna	8	Agosto	2023-08-28T00:00:00	2024-11-08T09:00:00	8	Radiación solar	275
74113	7	Sololá	717	San Juan la Laguna	12	San Juan la Laguna	8	Agosto	2023-08-28T00:00:00	2024-11-08T10:00:00	2	Temperatura media	21.8
74114	7	Sololá	717	San Juan la Laguna	12	San Juan la Laguna	8	Agosto	2023-08-28T00:00:00	2024-11-08T10:00:00	4	Temperatura máxima	21.8
74115	7	Sololá	717	San Juan la Laguna	12	San Juan la Laguna	8	Agosto	2023-08-28T00:00:00	2024-11-08T10:00:00	3	Temperatura mínima	20.7
74116	7	Sololá	717	San Juan la Laguna	12	San Juan la Laguna	8	Agosto	2023-08-28T00:00:00	2024-11-08T10:00:00	5	Humedad	72
74117	7	Sololá	717	San Juan la Laguna	12	San Juan la Laguna	8	Agosto	2023-08-28T00:00:00	2024-11-08T10:00:00	6	Velocidad del viento	1.6
74118	7	Sololá	717	San Juan la Laguna	12	San Juan la Laguna	8	Agosto	2023-08-28T00:00:00	2024-11-08T10:00:00	7	Dirección del viento	1.61
74119	7	Sololá	717	San Juan la Laguna	12	San Juan la Laguna	8	Agosto	2023-08-28T00:00:00	2024-11-08T10:00:00	1	Precipitación	0
74120	7	Sololá	717	San Juan la Laguna	12	San Juan la Laguna	8	Agosto	2023-08-28T00:00:00	2024-11-08T10:00:00	8	Radiación solar	589
74121	7	Sololá	717	San Juan la Laguna	12	San Juan la Laguna	8	Agosto	2023-08-28T00:00:00	2024-11-08T11:00:00	2	Temperatura media	22.9
74122	7	Sololá	717	San Juan la Laguna	12	San Juan la Laguna	8	Agosto	2023-08-28T00:00:00	2024-11-08T11:00:00	4	Temperatura máxima	23.2
74123	7	Sololá	717	San Juan la Laguna	12	San Juan la Laguna	8	Agosto	2023-08-28T00:00:00	2024-11-08T11:00:00	3	Temperatura mínima	21.8
74124	7	Sololá	717	San Juan la Laguna	12	San Juan la Laguna	8	Agosto	2023-08-28T00:00:00	2024-11-08T11:00:00	5	Humedad	70
74125	7	Sololá	717	San Juan la Laguna	12	San Juan la Laguna	8	Agosto	2023-08-28T00:00:00	2024-11-08T11:00:00	6	Velocidad del viento	1.6
74126	7	Sololá	717	San Juan la Laguna	12	San Juan la Laguna	8	Agosto	2023-08-28T00:00:00	2024-11-08T11:00:00	7	Dirección del viento	1.61
74127	7	Sololá	717	San Juan la Laguna	12	San Juan la Laguna	8	Agosto	2023-08-28T00:00:00	2024-11-08T11:00:00	1	Precipitación	0
74128	7	Sololá	717	San Juan la Laguna	12	San Juan la Laguna	8	Agosto	2023-08-28T00:00:00	2024-11-08T11:00:00	8	Radiación solar	611
74129	7	Sololá	717	San Juan la Laguna	12	San Juan la Laguna	8	Agosto	2023-08-28T00:00:00	2024-11-08T12:00:00	2	Temperatura media	23.6
74130	7	Sololá	717	San Juan la Laguna	12	San Juan la Laguna	8	Agosto	2023-08-28T00:00:00	2024-11-08T12:00:00	4	Temperatura máxima	23.8
74131	7	Sololá	717	San Juan la Laguna	12	San Juan la Laguna	8	Agosto	2023-08-28T00:00:00	2024-11-08T12:00:00	3	Temperatura mínima	22.6
74132	7	Sololá	717	San Juan la Laguna	12	San Juan la Laguna	8	Agosto	2023-08-28T00:00:00	2024-11-08T12:00:00	5	Humedad	70
74133	7	Sololá	717	San Juan la Laguna	12	San Juan la Laguna	8	Agosto	2023-08-28T00:00:00	2024-11-08T12:00:00	6	Velocidad del viento	4.8
74134	7	Sololá	717	San Juan la Laguna	12	San Juan la Laguna	8	Agosto	2023-08-28T00:00:00	2024-11-08T12:00:00	7	Dirección del viento	4.83
74135	7	Sololá	717	San Juan la Laguna	12	San Juan la Laguna	8	Agosto	2023-08-28T00:00:00	2024-11-08T12:00:00	1	Precipitación	0
74136	7	Sololá	717	San Juan la Laguna	12	San Juan la Laguna	8	Agosto	2023-08-28T00:00:00	2024-11-08T12:00:00	8	Radiación solar	747
74137	7	Sololá	717	San Juan la Laguna	12	San Juan la Laguna	8	Agosto	2023-08-28T00:00:00	2024-11-08T13:00:00	2	Temperatura media	23.3
74138	7	Sololá	717	San Juan la Laguna	12	San Juan la Laguna	8	Agosto	2023-08-28T00:00:00	2024-11-08T13:00:00	4	Temperatura máxima	23.6
74139	7	Sololá	717	San Juan la Laguna	12	San Juan la Laguna	8	Agosto	2023-08-28T00:00:00	2024-11-08T13:00:00	3	Temperatura mínima	22.9
74140	7	Sololá	717	San Juan la Laguna	12	San Juan la Laguna	8	Agosto	2023-08-28T00:00:00	2024-11-08T13:00:00	5	Humedad	71
74141	7	Sololá	717	San Juan la Laguna	12	San Juan la Laguna	8	Agosto	2023-08-28T00:00:00	2024-11-08T13:00:00	6	Velocidad del viento	6.4
74142	7	Sololá	717	San Juan la Laguna	12	San Juan la Laguna	8	Agosto	2023-08-28T00:00:00	2024-11-08T13:00:00	7	Dirección del viento	6.44
74143	7	Sololá	717	San Juan la Laguna	12	San Juan la Laguna	8	Agosto	2023-08-28T00:00:00	2024-11-08T13:00:00	1	Precipitación	0
74144	7	Sololá	717	San Juan la Laguna	12	San Juan la Laguna	8	Agosto	2023-08-28T00:00:00	2024-11-08T13:00:00	8	Radiación solar	970
74145	7	Sololá	717	San Juan la Laguna	12	San Juan la Laguna	8	Agosto	2023-08-28T00:00:00	2024-11-08T14:00:00	2	Temperatura media	20.4
74146	7	Sololá	717	San Juan la Laguna	12	San Juan la Laguna	8	Agosto	2023-08-28T00:00:00	2024-11-08T14:00:00	4	Temperatura máxima	23.8
74147	7	Sololá	717	San Juan la Laguna	12	San Juan la Laguna	8	Agosto	2023-08-28T00:00:00	2024-11-08T14:00:00	3	Temperatura mínima	20.4
74148	7	Sololá	717	San Juan la Laguna	12	San Juan la Laguna	8	Agosto	2023-08-28T00:00:00	2024-11-08T14:00:00	5	Humedad	85
74149	7	Sololá	717	San Juan la Laguna	12	San Juan la Laguna	8	Agosto	2023-08-28T00:00:00	2024-11-08T14:00:00	6	Velocidad del viento	8
74150	7	Sololá	717	San Juan la Laguna	12	San Juan la Laguna	8	Agosto	2023-08-28T00:00:00	2024-11-08T14:00:00	7	Dirección del viento	8.05
74151	7	Sololá	717	San Juan la Laguna	12	San Juan la Laguna	8	Agosto	2023-08-28T00:00:00	2024-11-08T14:00:00	1	Precipitación	0
74152	7	Sololá	717	San Juan la Laguna	12	San Juan la Laguna	8	Agosto	2023-08-28T00:00:00	2024-11-08T14:00:00	8	Radiación solar	406
74153	7	Sololá	717	San Juan la Laguna	12	San Juan la Laguna	8	Agosto	2023-08-28T00:00:00	2024-11-08T15:00:00	2	Temperatura media	19.1
74154	7	Sololá	717	San Juan la Laguna	12	San Juan la Laguna	8	Agosto	2023-08-28T00:00:00	2024-11-08T15:00:00	4	Temperatura máxima	20.4
74155	7	Sololá	717	San Juan la Laguna	12	San Juan la Laguna	8	Agosto	2023-08-28T00:00:00	2024-11-08T15:00:00	3	Temperatura mínima	18.9
74156	7	Sololá	717	San Juan la Laguna	12	San Juan la Laguna	8	Agosto	2023-08-28T00:00:00	2024-11-08T15:00:00	5	Humedad	89
74157	7	Sololá	717	San Juan la Laguna	12	San Juan la Laguna	8	Agosto	2023-08-28T00:00:00	2024-11-08T15:00:00	6	Velocidad del viento	9.7
74158	7	Sololá	717	San Juan la Laguna	12	San Juan la Laguna	8	Agosto	2023-08-28T00:00:00	2024-11-08T15:00:00	7	Dirección del viento	9.66
74159	7	Sololá	717	San Juan la Laguna	12	San Juan la Laguna	8	Agosto	2023-08-28T00:00:00	2024-11-08T15:00:00	1	Precipitación	5.8
74160	7	Sololá	717	San Juan la Laguna	12	San Juan la Laguna	8	Agosto	2023-08-28T00:00:00	2024-11-08T15:00:00	8	Radiación solar	99
74161	7	Sololá	717	San Juan la Laguna	12	San Juan la Laguna	8	Agosto	2023-08-28T00:00:00	2024-11-08T16:00:00	2	Temperatura media	19.1
74162	7	Sololá	717	San Juan la Laguna	12	San Juan la Laguna	8	Agosto	2023-08-28T00:00:00	2024-11-08T16:00:00	4	Temperatura máxima	19.3
74163	7	Sololá	717	San Juan la Laguna	12	San Juan la Laguna	8	Agosto	2023-08-28T00:00:00	2024-11-08T16:00:00	3	Temperatura mínima	19
74164	7	Sololá	717	San Juan la Laguna	12	San Juan la Laguna	8	Agosto	2023-08-28T00:00:00	2024-11-08T16:00:00	5	Humedad	87
74165	7	Sololá	717	San Juan la Laguna	12	San Juan la Laguna	8	Agosto	2023-08-28T00:00:00	2024-11-08T16:00:00	6	Velocidad del viento	4.8
74166	7	Sololá	717	San Juan la Laguna	12	San Juan la Laguna	8	Agosto	2023-08-28T00:00:00	2024-11-08T16:00:00	7	Dirección del viento	4.83
74167	7	Sololá	717	San Juan la Laguna	12	San Juan la Laguna	8	Agosto	2023-08-28T00:00:00	2024-11-08T16:00:00	1	Precipitación	0.6
74168	7	Sololá	717	San Juan la Laguna	12	San Juan la Laguna	8	Agosto	2023-08-28T00:00:00	2024-11-08T16:00:00	8	Radiación solar	77
74169	7	Sololá	717	San Juan la Laguna	12	San Juan la Laguna	8	Agosto	2023-08-28T00:00:00	2024-11-08T17:00:00	2	Temperatura media	18.2
74170	7	Sololá	717	San Juan la Laguna	12	San Juan la Laguna	8	Agosto	2023-08-28T00:00:00	2024-11-08T17:00:00	4	Temperatura máxima	19.1
74171	7	Sololá	717	San Juan la Laguna	12	San Juan la Laguna	8	Agosto	2023-08-28T00:00:00	2024-11-08T17:00:00	3	Temperatura mínima	18.2
74172	7	Sololá	717	San Juan la Laguna	12	San Juan la Laguna	8	Agosto	2023-08-28T00:00:00	2024-11-08T17:00:00	5	Humedad	91
74173	7	Sololá	717	San Juan la Laguna	12	San Juan la Laguna	8	Agosto	2023-08-28T00:00:00	2024-11-08T17:00:00	6	Velocidad del viento	1.6
74174	7	Sololá	717	San Juan la Laguna	12	San Juan la Laguna	8	Agosto	2023-08-28T00:00:00	2024-11-08T17:00:00	7	Dirección del viento	1.61
74175	7	Sololá	717	San Juan la Laguna	12	San Juan la Laguna	8	Agosto	2023-08-28T00:00:00	2024-11-08T17:00:00	1	Precipitación	1
74176	7	Sololá	717	San Juan la Laguna	12	San Juan la Laguna	8	Agosto	2023-08-28T00:00:00	2024-11-08T17:00:00	8	Radiación solar	21
74177	7	Sololá	717	San Juan la Laguna	12	San Juan la Laguna	8	Agosto	2023-08-28T00:00:00	2024-11-08T18:00:00	2	Temperatura media	18.3
74178	7	Sololá	717	San Juan la Laguna	12	San Juan la Laguna	8	Agosto	2023-08-28T00:00:00	2024-11-08T18:00:00	4	Temperatura máxima	18.5
74179	7	Sololá	717	San Juan la Laguna	12	San Juan la Laguna	8	Agosto	2023-08-28T00:00:00	2024-11-08T18:00:00	3	Temperatura mínima	18.1
74180	7	Sololá	717	San Juan la Laguna	12	San Juan la Laguna	8	Agosto	2023-08-28T00:00:00	2024-11-08T18:00:00	5	Humedad	90
74181	7	Sololá	717	San Juan la Laguna	12	San Juan la Laguna	8	Agosto	2023-08-28T00:00:00	2024-11-08T18:00:00	6	Velocidad del viento	0
74182	7	Sololá	717	San Juan la Laguna	12	San Juan la Laguna	8	Agosto	2023-08-28T00:00:00	2024-11-08T18:00:00	7	Dirección del viento	0
74183	7	Sololá	717	San Juan la Laguna	12	San Juan la Laguna	8	Agosto	2023-08-28T00:00:00	2024-11-08T18:00:00	1	Precipitación	0.2
74184	7	Sololá	717	San Juan la Laguna	12	San Juan la Laguna	8	Agosto	2023-08-28T00:00:00	2024-11-08T18:00:00	8	Radiación solar	13
74185	7	Sololá	717	San Juan la Laguna	12	San Juan la Laguna	8	Agosto	2023-08-28T00:00:00	2024-11-08T19:00:00	2	Temperatura media	17.8
74186	7	Sololá	717	San Juan la Laguna	12	San Juan la Laguna	8	Agosto	2023-08-28T00:00:00	2024-11-08T19:00:00	4	Temperatura máxima	18.3
74187	7	Sololá	717	San Juan la Laguna	12	San Juan la Laguna	8	Agosto	2023-08-28T00:00:00	2024-11-08T19:00:00	3	Temperatura mínima	17.7
74188	7	Sololá	717	San Juan la Laguna	12	San Juan la Laguna	8	Agosto	2023-08-28T00:00:00	2024-11-08T19:00:00	5	Humedad	92
74189	7	Sololá	717	San Juan la Laguna	12	San Juan la Laguna	8	Agosto	2023-08-28T00:00:00	2024-11-08T19:00:00	6	Velocidad del viento	0
74190	7	Sololá	717	San Juan la Laguna	12	San Juan la Laguna	8	Agosto	2023-08-28T00:00:00	2024-11-08T19:00:00	7	Dirección del viento	0
74191	7	Sololá	717	San Juan la Laguna	12	San Juan la Laguna	8	Agosto	2023-08-28T00:00:00	2024-11-08T19:00:00	1	Precipitación	0
74192	7	Sololá	717	San Juan la Laguna	12	San Juan la Laguna	8	Agosto	2023-08-28T00:00:00	2024-11-08T19:00:00	8	Radiación solar	0
74193	7	Sololá	717	San Juan la Laguna	12	San Juan la Laguna	8	Agosto	2023-08-28T00:00:00	2024-11-08T20:00:00	2	Temperatura media	17.5
74194	7	Sololá	717	San Juan la Laguna	12	San Juan la Laguna	8	Agosto	2023-08-28T00:00:00	2024-11-08T20:00:00	4	Temperatura máxima	17.9
74195	7	Sololá	717	San Juan la Laguna	12	San Juan la Laguna	8	Agosto	2023-08-28T00:00:00	2024-11-08T20:00:00	3	Temperatura mínima	17.5
74196	7	Sololá	717	San Juan la Laguna	12	San Juan la Laguna	8	Agosto	2023-08-28T00:00:00	2024-11-08T20:00:00	5	Humedad	92
74197	7	Sololá	717	San Juan la Laguna	12	San Juan la Laguna	8	Agosto	2023-08-28T00:00:00	2024-11-08T20:00:00	6	Velocidad del viento	1.6
74198	7	Sololá	717	San Juan la Laguna	12	San Juan la Laguna	8	Agosto	2023-08-28T00:00:00	2024-11-08T20:00:00	7	Dirección del viento	1.61
74199	7	Sololá	717	San Juan la Laguna	12	San Juan la Laguna	8	Agosto	2023-08-28T00:00:00	2024-11-08T20:00:00	1	Precipitación	0
74200	7	Sololá	717	San Juan la Laguna	12	San Juan la Laguna	8	Agosto	2023-08-28T00:00:00	2024-11-08T20:00:00	8	Radiación solar	0
74201	7	Sololá	717	San Juan la Laguna	12	San Juan la Laguna	8	Agosto	2023-08-28T00:00:00	2024-11-08T21:00:00	2	Temperatura media	17.6
74202	7	Sololá	717	San Juan la Laguna	12	San Juan la Laguna	8	Agosto	2023-08-28T00:00:00	2024-11-08T21:00:00	4	Temperatura máxima	17.6
74203	7	Sololá	717	San Juan la Laguna	12	San Juan la Laguna	8	Agosto	2023-08-28T00:00:00	2024-11-08T21:00:00	3	Temperatura mínima	17.3
74204	7	Sololá	717	San Juan la Laguna	12	San Juan la Laguna	8	Agosto	2023-08-28T00:00:00	2024-11-08T21:00:00	5	Humedad	92
74205	7	Sololá	717	San Juan la Laguna	12	San Juan la Laguna	8	Agosto	2023-08-28T00:00:00	2024-11-08T21:00:00	6	Velocidad del viento	3.2
74206	7	Sololá	717	San Juan la Laguna	12	San Juan la Laguna	8	Agosto	2023-08-28T00:00:00	2024-11-08T21:00:00	7	Dirección del viento	3.22
74207	7	Sololá	717	San Juan la Laguna	12	San Juan la Laguna	8	Agosto	2023-08-28T00:00:00	2024-11-08T21:00:00	1	Precipitación	0.2
74208	7	Sololá	717	San Juan la Laguna	12	San Juan la Laguna	8	Agosto	2023-08-28T00:00:00	2024-11-08T21:00:00	8	Radiación solar	0
74209	7	Sololá	717	San Juan la Laguna	12	San Juan la Laguna	8	Agosto	2023-08-28T00:00:00	2024-11-08T22:00:00	2	Temperatura media	17.3
74210	7	Sololá	717	San Juan la Laguna	12	San Juan la Laguna	8	Agosto	2023-08-28T00:00:00	2024-11-08T22:00:00	4	Temperatura máxima	17.6
74211	7	Sololá	717	San Juan la Laguna	12	San Juan la Laguna	8	Agosto	2023-08-28T00:00:00	2024-11-08T22:00:00	3	Temperatura mínima	17.3
74212	7	Sololá	717	San Juan la Laguna	12	San Juan la Laguna	8	Agosto	2023-08-28T00:00:00	2024-11-08T22:00:00	5	Humedad	91
74213	7	Sololá	717	San Juan la Laguna	12	San Juan la Laguna	8	Agosto	2023-08-28T00:00:00	2024-11-08T22:00:00	6	Velocidad del viento	3.2
74214	7	Sololá	717	San Juan la Laguna	12	San Juan la Laguna	8	Agosto	2023-08-28T00:00:00	2024-11-08T22:00:00	7	Dirección del viento	3.22
74215	7	Sololá	717	San Juan la Laguna	12	San Juan la Laguna	8	Agosto	2023-08-28T00:00:00	2024-11-08T22:00:00	1	Precipitación	0.2
74216	7	Sololá	717	San Juan la Laguna	12	San Juan la Laguna	8	Agosto	2023-08-28T00:00:00	2024-11-08T22:00:00	8	Radiación solar	0
74217	7	Sololá	717	San Juan la Laguna	12	San Juan la Laguna	8	Agosto	2023-08-28T00:00:00	2024-11-08T23:00:00	2	Temperatura media	17
74218	7	Sololá	717	San Juan la Laguna	12	San Juan la Laguna	8	Agosto	2023-08-28T00:00:00	2024-11-08T23:00:00	4	Temperatura máxima	17.4
74219	7	Sololá	717	San Juan la Laguna	12	San Juan la Laguna	8	Agosto	2023-08-28T00:00:00	2024-11-08T23:00:00	3	Temperatura mínima	16.9
74220	7	Sololá	717	San Juan la Laguna	12	San Juan la Laguna	8	Agosto	2023-08-28T00:00:00	2024-11-08T23:00:00	5	Humedad	91
74221	7	Sololá	717	San Juan la Laguna	12	San Juan la Laguna	8	Agosto	2023-08-28T00:00:00	2024-11-08T23:00:00	6	Velocidad del viento	3.2
74222	7	Sololá	717	San Juan la Laguna	12	San Juan la Laguna	8	Agosto	2023-08-28T00:00:00	2024-11-08T23:00:00	7	Dirección del viento	3.22
74223	7	Sololá	717	San Juan la Laguna	12	San Juan la Laguna	8	Agosto	2023-08-28T00:00:00	2024-11-08T23:00:00	1	Precipitación	0
74224	7	Sololá	717	San Juan la Laguna	12	San Juan la Laguna	8	Agosto	2023-08-28T00:00:00	2024-11-08T23:00:00	8	Radiación solar	0
74225	7	Sololá	717	San Juan la Laguna	12	San Juan la Laguna	8	Agosto	2023-08-29T00:00:00	2024-11-08T00:00:00	2	Temperatura media	17
74226	7	Sololá	717	San Juan la Laguna	12	San Juan la Laguna	8	Agosto	2023-08-29T00:00:00	2024-11-08T00:00:00	4	Temperatura máxima	17.1
74227	7	Sololá	717	San Juan la Laguna	12	San Juan la Laguna	8	Agosto	2023-08-29T00:00:00	2024-11-08T00:00:00	3	Temperatura mínima	16.9
74228	7	Sololá	717	San Juan la Laguna	12	San Juan la Laguna	8	Agosto	2023-08-29T00:00:00	2024-11-08T00:00:00	5	Humedad	91
74229	7	Sololá	717	San Juan la Laguna	12	San Juan la Laguna	8	Agosto	2023-08-29T00:00:00	2024-11-08T00:00:00	6	Velocidad del viento	4.8
74230	7	Sololá	717	San Juan la Laguna	12	San Juan la Laguna	8	Agosto	2023-08-29T00:00:00	2024-11-08T00:00:00	7	Dirección del viento	4.83
74231	7	Sololá	717	San Juan la Laguna	12	San Juan la Laguna	8	Agosto	2023-08-29T00:00:00	2024-11-08T00:00:00	1	Precipitación	0
74232	7	Sololá	717	San Juan la Laguna	12	San Juan la Laguna	8	Agosto	2023-08-29T00:00:00	2024-11-08T00:00:00	8	Radiación solar	0
74233	7	Sololá	717	San Juan la Laguna	12	San Juan la Laguna	8	Agosto	2023-08-29T00:00:00	2024-11-08T01:00:00	2	Temperatura media	16.6
74234	7	Sololá	717	San Juan la Laguna	12	San Juan la Laguna	8	Agosto	2023-08-29T00:00:00	2024-11-08T01:00:00	4	Temperatura máxima	17
74235	7	Sololá	717	San Juan la Laguna	12	San Juan la Laguna	8	Agosto	2023-08-29T00:00:00	2024-11-08T01:00:00	3	Temperatura mínima	16.6
74236	7	Sololá	717	San Juan la Laguna	12	San Juan la Laguna	8	Agosto	2023-08-29T00:00:00	2024-11-08T01:00:00	5	Humedad	91
74237	7	Sololá	717	San Juan la Laguna	12	San Juan la Laguna	8	Agosto	2023-08-29T00:00:00	2024-11-08T01:00:00	6	Velocidad del viento	4.8
74238	7	Sololá	717	San Juan la Laguna	12	San Juan la Laguna	8	Agosto	2023-08-29T00:00:00	2024-11-08T01:00:00	7	Dirección del viento	4.83
74239	7	Sololá	717	San Juan la Laguna	12	San Juan la Laguna	8	Agosto	2023-08-29T00:00:00	2024-11-08T01:00:00	1	Precipitación	0
74240	7	Sololá	717	San Juan la Laguna	12	San Juan la Laguna	8	Agosto	2023-08-29T00:00:00	2024-11-08T01:00:00	8	Radiación solar	0
74241	7	Sololá	717	San Juan la Laguna	12	San Juan la Laguna	8	Agosto	2023-08-29T00:00:00	2024-11-08T02:00:00	2	Temperatura media	16.8
74242	7	Sololá	717	San Juan la Laguna	12	San Juan la Laguna	8	Agosto	2023-08-29T00:00:00	2024-11-08T02:00:00	4	Temperatura máxima	16.9
74243	7	Sololá	717	San Juan la Laguna	12	San Juan la Laguna	8	Agosto	2023-08-29T00:00:00	2024-11-08T02:00:00	3	Temperatura mínima	16.6
74244	7	Sololá	717	San Juan la Laguna	12	San Juan la Laguna	8	Agosto	2023-08-29T00:00:00	2024-11-08T02:00:00	5	Humedad	89
74245	7	Sololá	717	San Juan la Laguna	12	San Juan la Laguna	8	Agosto	2023-08-29T00:00:00	2024-11-08T02:00:00	6	Velocidad del viento	6.4
74246	7	Sololá	717	San Juan la Laguna	12	San Juan la Laguna	8	Agosto	2023-08-29T00:00:00	2024-11-08T02:00:00	7	Dirección del viento	6.44
74247	7	Sololá	717	San Juan la Laguna	12	San Juan la Laguna	8	Agosto	2023-08-29T00:00:00	2024-11-08T02:00:00	1	Precipitación	0
74248	7	Sololá	717	San Juan la Laguna	12	San Juan la Laguna	8	Agosto	2023-08-29T00:00:00	2024-11-08T02:00:00	8	Radiación solar	0
74249	7	Sololá	717	San Juan la Laguna	12	San Juan la Laguna	8	Agosto	2023-08-29T00:00:00	2024-11-08T03:00:00	2	Temperatura media	16.6
74250	7	Sololá	717	San Juan la Laguna	12	San Juan la Laguna	8	Agosto	2023-08-29T00:00:00	2024-11-08T03:00:00	4	Temperatura máxima	16.8
74251	7	Sololá	717	San Juan la Laguna	12	San Juan la Laguna	8	Agosto	2023-08-29T00:00:00	2024-11-08T03:00:00	3	Temperatura mínima	16.6
74252	7	Sololá	717	San Juan la Laguna	12	San Juan la Laguna	8	Agosto	2023-08-29T00:00:00	2024-11-08T03:00:00	5	Humedad	90
74253	7	Sololá	717	San Juan la Laguna	12	San Juan la Laguna	8	Agosto	2023-08-29T00:00:00	2024-11-08T03:00:00	6	Velocidad del viento	4.8
74254	7	Sololá	717	San Juan la Laguna	12	San Juan la Laguna	8	Agosto	2023-08-29T00:00:00	2024-11-08T03:00:00	7	Dirección del viento	4.83
74255	7	Sololá	717	San Juan la Laguna	12	San Juan la Laguna	8	Agosto	2023-08-29T00:00:00	2024-11-08T03:00:00	1	Precipitación	0
74256	7	Sololá	717	San Juan la Laguna	12	San Juan la Laguna	8	Agosto	2023-08-29T00:00:00	2024-11-08T03:00:00	8	Radiación solar	0
74257	7	Sololá	717	San Juan la Laguna	12	San Juan la Laguna	8	Agosto	2023-08-29T00:00:00	2024-11-08T04:00:00	2	Temperatura media	15.9
74258	7	Sololá	717	San Juan la Laguna	12	San Juan la Laguna	8	Agosto	2023-08-29T00:00:00	2024-11-08T04:00:00	4	Temperatura máxima	16.6
74259	7	Sololá	717	San Juan la Laguna	12	San Juan la Laguna	8	Agosto	2023-08-29T00:00:00	2024-11-08T04:00:00	3	Temperatura mínima	15.9
74260	7	Sololá	717	San Juan la Laguna	12	San Juan la Laguna	8	Agosto	2023-08-29T00:00:00	2024-11-08T04:00:00	5	Humedad	90
74261	7	Sololá	717	San Juan la Laguna	12	San Juan la Laguna	8	Agosto	2023-08-29T00:00:00	2024-11-08T04:00:00	6	Velocidad del viento	0
74262	7	Sololá	717	San Juan la Laguna	12	San Juan la Laguna	8	Agosto	2023-08-29T00:00:00	2024-11-08T04:00:00	7	Dirección del viento	0
74263	7	Sololá	717	San Juan la Laguna	12	San Juan la Laguna	8	Agosto	2023-08-29T00:00:00	2024-11-08T04:00:00	1	Precipitación	0
74264	7	Sololá	717	San Juan la Laguna	12	San Juan la Laguna	8	Agosto	2023-08-29T00:00:00	2024-11-08T04:00:00	8	Radiación solar	0
74265	7	Sololá	717	San Juan la Laguna	12	San Juan la Laguna	8	Agosto	2023-08-29T00:00:00	2024-11-08T05:00:00	2	Temperatura media	16.1
74266	7	Sololá	717	San Juan la Laguna	12	San Juan la Laguna	8	Agosto	2023-08-29T00:00:00	2024-11-08T05:00:00	4	Temperatura máxima	16.3
74267	7	Sololá	717	San Juan la Laguna	12	San Juan la Laguna	8	Agosto	2023-08-29T00:00:00	2024-11-08T05:00:00	3	Temperatura mínima	15.8
74268	7	Sololá	717	San Juan la Laguna	12	San Juan la Laguna	8	Agosto	2023-08-29T00:00:00	2024-11-08T05:00:00	5	Humedad	90
74269	7	Sololá	717	San Juan la Laguna	12	San Juan la Laguna	8	Agosto	2023-08-29T00:00:00	2024-11-08T05:00:00	6	Velocidad del viento	3.2
74270	7	Sololá	717	San Juan la Laguna	12	San Juan la Laguna	8	Agosto	2023-08-29T00:00:00	2024-11-08T05:00:00	7	Dirección del viento	3.22
74271	7	Sololá	717	San Juan la Laguna	12	San Juan la Laguna	8	Agosto	2023-08-29T00:00:00	2024-11-08T05:00:00	1	Precipitación	0
74272	7	Sololá	717	San Juan la Laguna	12	San Juan la Laguna	8	Agosto	2023-08-29T00:00:00	2024-11-08T05:00:00	8	Radiación solar	0
74273	7	Sololá	717	San Juan la Laguna	12	San Juan la Laguna	8	Agosto	2023-08-29T00:00:00	2024-11-08T06:00:00	2	Temperatura media	15.8
74274	7	Sololá	717	San Juan la Laguna	12	San Juan la Laguna	8	Agosto	2023-08-29T00:00:00	2024-11-08T06:00:00	4	Temperatura máxima	16.2
74275	7	Sololá	717	San Juan la Laguna	12	San Juan la Laguna	8	Agosto	2023-08-29T00:00:00	2024-11-08T06:00:00	3	Temperatura mínima	15.8
74276	7	Sololá	717	San Juan la Laguna	12	San Juan la Laguna	8	Agosto	2023-08-29T00:00:00	2024-11-08T06:00:00	5	Humedad	91
74277	7	Sololá	717	San Juan la Laguna	12	San Juan la Laguna	8	Agosto	2023-08-29T00:00:00	2024-11-08T06:00:00	6	Velocidad del viento	3.2
74278	7	Sololá	717	San Juan la Laguna	12	San Juan la Laguna	8	Agosto	2023-08-29T00:00:00	2024-11-08T06:00:00	7	Dirección del viento	3.22
74279	7	Sololá	717	San Juan la Laguna	12	San Juan la Laguna	8	Agosto	2023-08-29T00:00:00	2024-11-08T06:00:00	1	Precipitación	0
74280	7	Sololá	717	San Juan la Laguna	12	San Juan la Laguna	8	Agosto	2023-08-29T00:00:00	2024-11-08T06:00:00	8	Radiación solar	0
74281	7	Sololá	717	San Juan la Laguna	12	San Juan la Laguna	8	Agosto	2023-08-29T00:00:00	2024-11-08T07:00:00	2	Temperatura media	16.6
74282	7	Sololá	717	San Juan la Laguna	12	San Juan la Laguna	8	Agosto	2023-08-29T00:00:00	2024-11-08T07:00:00	4	Temperatura máxima	16.6
74283	7	Sololá	717	San Juan la Laguna	12	San Juan la Laguna	8	Agosto	2023-08-29T00:00:00	2024-11-08T07:00:00	3	Temperatura mínima	15.8
74284	7	Sololá	717	San Juan la Laguna	12	San Juan la Laguna	8	Agosto	2023-08-29T00:00:00	2024-11-08T07:00:00	5	Humedad	90
74285	7	Sololá	717	San Juan la Laguna	12	San Juan la Laguna	8	Agosto	2023-08-29T00:00:00	2024-11-08T07:00:00	6	Velocidad del viento	1.6
74286	7	Sololá	717	San Juan la Laguna	12	San Juan la Laguna	8	Agosto	2023-08-29T00:00:00	2024-11-08T07:00:00	7	Dirección del viento	1.61
74287	7	Sololá	717	San Juan la Laguna	12	San Juan la Laguna	8	Agosto	2023-08-29T00:00:00	2024-11-08T07:00:00	1	Precipitación	0
74288	7	Sololá	717	San Juan la Laguna	12	San Juan la Laguna	8	Agosto	2023-08-29T00:00:00	2024-11-08T07:00:00	8	Radiación solar	34
74289	7	Sololá	717	San Juan la Laguna	12	San Juan la Laguna	8	Agosto	2023-08-29T00:00:00	2024-11-08T08:00:00	2	Temperatura media	18.8
74290	7	Sololá	717	San Juan la Laguna	12	San Juan la Laguna	8	Agosto	2023-08-29T00:00:00	2024-11-08T08:00:00	4	Temperatura máxima	18.8
74291	7	Sololá	717	San Juan la Laguna	12	San Juan la Laguna	8	Agosto	2023-08-29T00:00:00	2024-11-08T08:00:00	3	Temperatura mínima	16.6
74292	7	Sololá	717	San Juan la Laguna	12	San Juan la Laguna	8	Agosto	2023-08-29T00:00:00	2024-11-08T08:00:00	5	Humedad	85
74293	7	Sololá	717	San Juan la Laguna	12	San Juan la Laguna	8	Agosto	2023-08-29T00:00:00	2024-11-08T08:00:00	6	Velocidad del viento	0
74294	7	Sololá	717	San Juan la Laguna	12	San Juan la Laguna	8	Agosto	2023-08-29T00:00:00	2024-11-08T08:00:00	7	Dirección del viento	0
74295	7	Sololá	717	San Juan la Laguna	12	San Juan la Laguna	8	Agosto	2023-08-29T00:00:00	2024-11-08T08:00:00	1	Precipitación	0
74296	7	Sololá	717	San Juan la Laguna	12	San Juan la Laguna	8	Agosto	2023-08-29T00:00:00	2024-11-08T08:00:00	8	Radiación solar	138
74297	7	Sololá	717	San Juan la Laguna	12	San Juan la Laguna	8	Agosto	2023-08-29T00:00:00	2024-11-08T09:00:00	2	Temperatura media	21.4
74298	7	Sololá	717	San Juan la Laguna	12	San Juan la Laguna	8	Agosto	2023-08-29T00:00:00	2024-11-08T09:00:00	4	Temperatura máxima	21.4
74299	7	Sololá	717	San Juan la Laguna	12	San Juan la Laguna	8	Agosto	2023-08-29T00:00:00	2024-11-08T09:00:00	3	Temperatura mínima	18.8
74300	7	Sololá	717	San Juan la Laguna	12	San Juan la Laguna	8	Agosto	2023-08-29T00:00:00	2024-11-08T09:00:00	5	Humedad	76
74301	7	Sololá	717	San Juan la Laguna	12	San Juan la Laguna	8	Agosto	2023-08-29T00:00:00	2024-11-08T09:00:00	6	Velocidad del viento	0
74302	7	Sololá	717	San Juan la Laguna	12	San Juan la Laguna	8	Agosto	2023-08-29T00:00:00	2024-11-08T09:00:00	7	Dirección del viento	0
74303	7	Sololá	717	San Juan la Laguna	12	San Juan la Laguna	8	Agosto	2023-08-29T00:00:00	2024-11-08T09:00:00	1	Precipitación	0
74304	7	Sololá	717	San Juan la Laguna	12	San Juan la Laguna	8	Agosto	2023-08-29T00:00:00	2024-11-08T09:00:00	8	Radiación solar	369
74305	7	Sololá	717	San Juan la Laguna	12	San Juan la Laguna	8	Agosto	2023-08-29T00:00:00	2024-11-08T10:00:00	2	Temperatura media	22.4
74306	7	Sololá	717	San Juan la Laguna	12	San Juan la Laguna	8	Agosto	2023-08-29T00:00:00	2024-11-08T10:00:00	4	Temperatura máxima	22.4
74307	7	Sololá	717	San Juan la Laguna	12	San Juan la Laguna	8	Agosto	2023-08-29T00:00:00	2024-11-08T10:00:00	3	Temperatura mínima	20.9
74308	7	Sololá	717	San Juan la Laguna	12	San Juan la Laguna	8	Agosto	2023-08-29T00:00:00	2024-11-08T10:00:00	5	Humedad	71
74309	7	Sololá	717	San Juan la Laguna	12	San Juan la Laguna	8	Agosto	2023-08-29T00:00:00	2024-11-08T10:00:00	6	Velocidad del viento	0
74310	7	Sololá	717	San Juan la Laguna	12	San Juan la Laguna	8	Agosto	2023-08-29T00:00:00	2024-11-08T10:00:00	7	Dirección del viento	0
74311	7	Sololá	717	San Juan la Laguna	12	San Juan la Laguna	8	Agosto	2023-08-29T00:00:00	2024-11-08T10:00:00	1	Precipitación	0
74312	7	Sololá	717	San Juan la Laguna	12	San Juan la Laguna	8	Agosto	2023-08-29T00:00:00	2024-11-08T10:00:00	8	Radiación solar	592
74313	7	Sololá	717	San Juan la Laguna	12	San Juan la Laguna	8	Agosto	2023-08-29T00:00:00	2024-11-08T11:00:00	2	Temperatura media	22.1
74314	7	Sololá	717	San Juan la Laguna	12	San Juan la Laguna	8	Agosto	2023-08-29T00:00:00	2024-11-08T11:00:00	4	Temperatura máxima	23.1
74315	7	Sololá	717	San Juan la Laguna	12	San Juan la Laguna	8	Agosto	2023-08-29T00:00:00	2024-11-08T11:00:00	3	Temperatura mínima	22.1
74316	7	Sololá	717	San Juan la Laguna	12	San Juan la Laguna	8	Agosto	2023-08-29T00:00:00	2024-11-08T11:00:00	5	Humedad	71
74317	7	Sololá	717	San Juan la Laguna	12	San Juan la Laguna	8	Agosto	2023-08-29T00:00:00	2024-11-08T11:00:00	6	Velocidad del viento	0
74318	7	Sololá	717	San Juan la Laguna	12	San Juan la Laguna	8	Agosto	2023-08-29T00:00:00	2024-11-08T11:00:00	7	Dirección del viento	0
74319	7	Sololá	717	San Juan la Laguna	12	San Juan la Laguna	8	Agosto	2023-08-29T00:00:00	2024-11-08T11:00:00	1	Precipitación	0
74320	7	Sololá	717	San Juan la Laguna	12	San Juan la Laguna	8	Agosto	2023-08-29T00:00:00	2024-11-08T11:00:00	8	Radiación solar	815
74321	7	Sololá	717	San Juan la Laguna	12	San Juan la Laguna	8	Agosto	2023-08-29T00:00:00	2024-11-08T12:00:00	2	Temperatura media	23.4
74322	7	Sololá	717	San Juan la Laguna	12	San Juan la Laguna	8	Agosto	2023-08-29T00:00:00	2024-11-08T12:00:00	4	Temperatura máxima	24.4
74323	7	Sololá	717	San Juan la Laguna	12	San Juan la Laguna	8	Agosto	2023-08-29T00:00:00	2024-11-08T12:00:00	3	Temperatura mínima	22
74324	7	Sololá	717	San Juan la Laguna	12	San Juan la Laguna	8	Agosto	2023-08-29T00:00:00	2024-11-08T12:00:00	5	Humedad	73
74325	7	Sololá	717	San Juan la Laguna	12	San Juan la Laguna	8	Agosto	2023-08-29T00:00:00	2024-11-08T12:00:00	6	Velocidad del viento	1.6
74326	7	Sololá	717	San Juan la Laguna	12	San Juan la Laguna	8	Agosto	2023-08-29T00:00:00	2024-11-08T12:00:00	7	Dirección del viento	1.61
74327	7	Sololá	717	San Juan la Laguna	12	San Juan la Laguna	8	Agosto	2023-08-29T00:00:00	2024-11-08T12:00:00	1	Precipitación	0
74328	7	Sololá	717	San Juan la Laguna	12	San Juan la Laguna	8	Agosto	2023-08-29T00:00:00	2024-11-08T12:00:00	8	Radiación solar	726
74329	7	Sololá	717	San Juan la Laguna	12	San Juan la Laguna	8	Agosto	2023-08-29T00:00:00	2024-11-08T13:00:00	2	Temperatura media	24
74330	7	Sololá	717	San Juan la Laguna	12	San Juan la Laguna	8	Agosto	2023-08-29T00:00:00	2024-11-08T13:00:00	4	Temperatura máxima	24.1
74331	7	Sololá	717	San Juan la Laguna	12	San Juan la Laguna	8	Agosto	2023-08-29T00:00:00	2024-11-08T13:00:00	3	Temperatura mínima	22.7
74332	7	Sololá	717	San Juan la Laguna	12	San Juan la Laguna	8	Agosto	2023-08-29T00:00:00	2024-11-08T13:00:00	5	Humedad	71
74333	7	Sololá	717	San Juan la Laguna	12	San Juan la Laguna	8	Agosto	2023-08-29T00:00:00	2024-11-08T13:00:00	6	Velocidad del viento	3.2
74334	7	Sololá	717	San Juan la Laguna	12	San Juan la Laguna	8	Agosto	2023-08-29T00:00:00	2024-11-08T13:00:00	7	Dirección del viento	3.22
74335	7	Sololá	717	San Juan la Laguna	12	San Juan la Laguna	8	Agosto	2023-08-29T00:00:00	2024-11-08T13:00:00	1	Precipitación	0
74336	7	Sololá	717	San Juan la Laguna	12	San Juan la Laguna	8	Agosto	2023-08-29T00:00:00	2024-11-08T13:00:00	8	Radiación solar	556
74337	7	Sololá	717	San Juan la Laguna	12	San Juan la Laguna	8	Agosto	2023-08-29T00:00:00	2024-11-08T14:00:00	2	Temperatura media	22.4
74338	7	Sololá	717	San Juan la Laguna	12	San Juan la Laguna	8	Agosto	2023-08-29T00:00:00	2024-11-08T14:00:00	4	Temperatura máxima	24.1
74339	7	Sololá	717	San Juan la Laguna	12	San Juan la Laguna	8	Agosto	2023-08-29T00:00:00	2024-11-08T14:00:00	3	Temperatura mínima	22.1
74340	7	Sololá	717	San Juan la Laguna	12	San Juan la Laguna	8	Agosto	2023-08-29T00:00:00	2024-11-08T14:00:00	5	Humedad	75
74341	7	Sololá	717	San Juan la Laguna	12	San Juan la Laguna	8	Agosto	2023-08-29T00:00:00	2024-11-08T14:00:00	6	Velocidad del viento	3.2
74342	7	Sololá	717	San Juan la Laguna	12	San Juan la Laguna	8	Agosto	2023-08-29T00:00:00	2024-11-08T14:00:00	7	Dirección del viento	3.22
74343	7	Sololá	717	San Juan la Laguna	12	San Juan la Laguna	8	Agosto	2023-08-29T00:00:00	2024-11-08T14:00:00	1	Precipitación	0
74344	7	Sololá	717	San Juan la Laguna	12	San Juan la Laguna	8	Agosto	2023-08-29T00:00:00	2024-11-08T14:00:00	8	Radiación solar	389
74345	7	Sololá	717	San Juan la Laguna	12	San Juan la Laguna	8	Agosto	2023-08-29T00:00:00	2024-11-08T15:00:00	2	Temperatura media	21.7
74346	7	Sololá	717	San Juan la Laguna	12	San Juan la Laguna	8	Agosto	2023-08-29T00:00:00	2024-11-08T15:00:00	4	Temperatura máxima	22.4
74347	7	Sololá	717	San Juan la Laguna	12	San Juan la Laguna	8	Agosto	2023-08-29T00:00:00	2024-11-08T15:00:00	3	Temperatura mínima	21.3
74348	7	Sololá	717	San Juan la Laguna	12	San Juan la Laguna	8	Agosto	2023-08-29T00:00:00	2024-11-08T15:00:00	5	Humedad	78
74349	7	Sololá	717	San Juan la Laguna	12	San Juan la Laguna	8	Agosto	2023-08-29T00:00:00	2024-11-08T15:00:00	6	Velocidad del viento	6.4
74350	7	Sololá	717	San Juan la Laguna	12	San Juan la Laguna	8	Agosto	2023-08-29T00:00:00	2024-11-08T15:00:00	7	Dirección del viento	6.44
74351	7	Sololá	717	San Juan la Laguna	12	San Juan la Laguna	8	Agosto	2023-08-29T00:00:00	2024-11-08T15:00:00	1	Precipitación	0
74352	7	Sololá	717	San Juan la Laguna	12	San Juan la Laguna	8	Agosto	2023-08-29T00:00:00	2024-11-08T15:00:00	8	Radiación solar	233
74353	7	Sololá	717	San Juan la Laguna	12	San Juan la Laguna	8	Agosto	2023-08-29T00:00:00	2024-11-08T16:00:00	2	Temperatura media	20.8
74354	7	Sololá	717	San Juan la Laguna	12	San Juan la Laguna	8	Agosto	2023-08-29T00:00:00	2024-11-08T16:00:00	4	Temperatura máxima	21.7
74355	7	Sololá	717	San Juan la Laguna	12	San Juan la Laguna	8	Agosto	2023-08-29T00:00:00	2024-11-08T16:00:00	3	Temperatura mínima	20.8
74356	7	Sololá	717	San Juan la Laguna	12	San Juan la Laguna	8	Agosto	2023-08-29T00:00:00	2024-11-08T16:00:00	5	Humedad	80
74357	7	Sololá	717	San Juan la Laguna	12	San Juan la Laguna	8	Agosto	2023-08-29T00:00:00	2024-11-08T16:00:00	6	Velocidad del viento	0
74358	7	Sololá	717	San Juan la Laguna	12	San Juan la Laguna	8	Agosto	2023-08-29T00:00:00	2024-11-08T16:00:00	7	Dirección del viento	0
74359	7	Sololá	717	San Juan la Laguna	12	San Juan la Laguna	8	Agosto	2023-08-29T00:00:00	2024-11-08T16:00:00	1	Precipitación	0
74360	7	Sololá	717	San Juan la Laguna	12	San Juan la Laguna	8	Agosto	2023-08-29T00:00:00	2024-11-08T16:00:00	8	Radiación solar	118
74361	7	Sololá	717	San Juan la Laguna	12	San Juan la Laguna	8	Agosto	2023-08-29T00:00:00	2024-11-08T17:00:00	2	Temperatura media	19.9
74362	7	Sololá	717	San Juan la Laguna	12	San Juan la Laguna	8	Agosto	2023-08-29T00:00:00	2024-11-08T17:00:00	4	Temperatura máxima	20.8
74363	7	Sololá	717	San Juan la Laguna	12	San Juan la Laguna	8	Agosto	2023-08-29T00:00:00	2024-11-08T17:00:00	3	Temperatura mínima	19.9
74364	7	Sololá	717	San Juan la Laguna	12	San Juan la Laguna	8	Agosto	2023-08-29T00:00:00	2024-11-08T17:00:00	5	Humedad	85
74365	7	Sololá	717	San Juan la Laguna	12	San Juan la Laguna	8	Agosto	2023-08-29T00:00:00	2024-11-08T17:00:00	6	Velocidad del viento	0
74366	7	Sololá	717	San Juan la Laguna	12	San Juan la Laguna	8	Agosto	2023-08-29T00:00:00	2024-11-08T17:00:00	7	Dirección del viento	0
74367	7	Sololá	717	San Juan la Laguna	12	San Juan la Laguna	8	Agosto	2023-08-29T00:00:00	2024-11-08T17:00:00	1	Precipitación	0
74368	7	Sololá	717	San Juan la Laguna	12	San Juan la Laguna	8	Agosto	2023-08-29T00:00:00	2024-11-08T17:00:00	8	Radiación solar	24
74369	7	Sololá	717	San Juan la Laguna	12	San Juan la Laguna	8	Agosto	2023-08-29T00:00:00	2024-11-08T18:00:00	2	Temperatura media	19.8
74370	7	Sololá	717	San Juan la Laguna	12	San Juan la Laguna	8	Agosto	2023-08-29T00:00:00	2024-11-08T18:00:00	4	Temperatura máxima	20
74371	7	Sololá	717	San Juan la Laguna	12	San Juan la Laguna	8	Agosto	2023-08-29T00:00:00	2024-11-08T18:00:00	3	Temperatura mínima	19.7
74372	7	Sololá	717	San Juan la Laguna	12	San Juan la Laguna	8	Agosto	2023-08-29T00:00:00	2024-11-08T18:00:00	5	Humedad	84
74373	7	Sololá	717	San Juan la Laguna	12	San Juan la Laguna	8	Agosto	2023-08-29T00:00:00	2024-11-08T18:00:00	6	Velocidad del viento	0
74374	7	Sololá	717	San Juan la Laguna	12	San Juan la Laguna	8	Agosto	2023-08-29T00:00:00	2024-11-08T18:00:00	7	Dirección del viento	0
74375	7	Sololá	717	San Juan la Laguna	12	San Juan la Laguna	8	Agosto	2023-08-29T00:00:00	2024-11-08T18:00:00	1	Precipitación	0
74376	7	Sololá	717	San Juan la Laguna	12	San Juan la Laguna	8	Agosto	2023-08-29T00:00:00	2024-11-08T18:00:00	8	Radiación solar	10
74377	7	Sololá	717	San Juan la Laguna	12	San Juan la Laguna	8	Agosto	2023-08-29T00:00:00	2024-11-08T19:00:00	2	Temperatura media	19.1
74378	7	Sololá	717	San Juan la Laguna	12	San Juan la Laguna	8	Agosto	2023-08-29T00:00:00	2024-11-08T19:00:00	4	Temperatura máxima	19.9
74379	7	Sololá	717	San Juan la Laguna	12	San Juan la Laguna	8	Agosto	2023-08-29T00:00:00	2024-11-08T19:00:00	3	Temperatura mínima	19.1
74380	7	Sololá	717	San Juan la Laguna	12	San Juan la Laguna	8	Agosto	2023-08-29T00:00:00	2024-11-08T19:00:00	5	Humedad	87
74381	7	Sololá	717	San Juan la Laguna	12	San Juan la Laguna	8	Agosto	2023-08-29T00:00:00	2024-11-08T19:00:00	6	Velocidad del viento	1.6
74382	7	Sololá	717	San Juan la Laguna	12	San Juan la Laguna	8	Agosto	2023-08-29T00:00:00	2024-11-08T19:00:00	7	Dirección del viento	1.61
74383	7	Sololá	717	San Juan la Laguna	12	San Juan la Laguna	8	Agosto	2023-08-29T00:00:00	2024-11-08T19:00:00	1	Precipitación	0
74384	7	Sololá	717	San Juan la Laguna	12	San Juan la Laguna	8	Agosto	2023-08-29T00:00:00	2024-11-08T19:00:00	8	Radiación solar	0
74385	7	Sololá	717	San Juan la Laguna	12	San Juan la Laguna	8	Agosto	2023-08-29T00:00:00	2024-11-08T20:00:00	2	Temperatura media	18.1
74386	7	Sololá	717	San Juan la Laguna	12	San Juan la Laguna	8	Agosto	2023-08-29T00:00:00	2024-11-08T20:00:00	4	Temperatura máxima	19.1
74387	7	Sololá	717	San Juan la Laguna	12	San Juan la Laguna	8	Agosto	2023-08-29T00:00:00	2024-11-08T20:00:00	3	Temperatura mínima	18.1
74388	7	Sololá	717	San Juan la Laguna	12	San Juan la Laguna	8	Agosto	2023-08-29T00:00:00	2024-11-08T20:00:00	5	Humedad	92
74389	7	Sololá	717	San Juan la Laguna	12	San Juan la Laguna	8	Agosto	2023-08-29T00:00:00	2024-11-08T20:00:00	6	Velocidad del viento	0
74390	7	Sololá	717	San Juan la Laguna	12	San Juan la Laguna	8	Agosto	2023-08-29T00:00:00	2024-11-08T20:00:00	7	Dirección del viento	0
74391	7	Sololá	717	San Juan la Laguna	12	San Juan la Laguna	8	Agosto	2023-08-29T00:00:00	2024-11-08T20:00:00	1	Precipitación	2.2
74392	7	Sololá	717	San Juan la Laguna	12	San Juan la Laguna	8	Agosto	2023-08-29T00:00:00	2024-11-08T20:00:00	8	Radiación solar	0
74393	7	Sololá	717	San Juan la Laguna	12	San Juan la Laguna	8	Agosto	2023-08-29T00:00:00	2024-11-08T21:00:00	2	Temperatura media	18.1
74394	7	Sololá	717	San Juan la Laguna	12	San Juan la Laguna	8	Agosto	2023-08-29T00:00:00	2024-11-08T21:00:00	4	Temperatura máxima	18.3
74395	7	Sololá	717	San Juan la Laguna	12	San Juan la Laguna	8	Agosto	2023-08-29T00:00:00	2024-11-08T21:00:00	3	Temperatura mínima	18.1
74396	7	Sololá	717	San Juan la Laguna	12	San Juan la Laguna	8	Agosto	2023-08-29T00:00:00	2024-11-08T21:00:00	5	Humedad	92
74397	7	Sololá	717	San Juan la Laguna	12	San Juan la Laguna	8	Agosto	2023-08-29T00:00:00	2024-11-08T21:00:00	6	Velocidad del viento	0
74398	7	Sololá	717	San Juan la Laguna	12	San Juan la Laguna	8	Agosto	2023-08-29T00:00:00	2024-11-08T21:00:00	7	Dirección del viento	0
74399	7	Sololá	717	San Juan la Laguna	12	San Juan la Laguna	8	Agosto	2023-08-29T00:00:00	2024-11-08T21:00:00	1	Precipitación	1.4
74400	7	Sololá	717	San Juan la Laguna	12	San Juan la Laguna	8	Agosto	2023-08-29T00:00:00	2024-11-08T21:00:00	8	Radiación solar	0
74401	7	Sololá	717	San Juan la Laguna	12	San Juan la Laguna	8	Agosto	2023-08-29T00:00:00	2024-11-08T22:00:00	2	Temperatura media	17.8
74402	7	Sololá	717	San Juan la Laguna	12	San Juan la Laguna	8	Agosto	2023-08-29T00:00:00	2024-11-08T22:00:00	4	Temperatura máxima	18.2
74403	7	Sololá	717	San Juan la Laguna	12	San Juan la Laguna	8	Agosto	2023-08-29T00:00:00	2024-11-08T22:00:00	3	Temperatura mínima	17.7
74404	7	Sololá	717	San Juan la Laguna	12	San Juan la Laguna	8	Agosto	2023-08-29T00:00:00	2024-11-08T22:00:00	5	Humedad	92
74405	7	Sololá	717	San Juan la Laguna	12	San Juan la Laguna	8	Agosto	2023-08-29T00:00:00	2024-11-08T22:00:00	6	Velocidad del viento	0
74406	7	Sololá	717	San Juan la Laguna	12	San Juan la Laguna	8	Agosto	2023-08-29T00:00:00	2024-11-08T22:00:00	7	Dirección del viento	0
74407	7	Sololá	717	San Juan la Laguna	12	San Juan la Laguna	8	Agosto	2023-08-29T00:00:00	2024-11-08T22:00:00	1	Precipitación	0.4
74408	7	Sololá	717	San Juan la Laguna	12	San Juan la Laguna	8	Agosto	2023-08-29T00:00:00	2024-11-08T22:00:00	8	Radiación solar	0
74409	7	Sololá	717	San Juan la Laguna	12	San Juan la Laguna	8	Agosto	2023-08-29T00:00:00	2024-11-08T23:00:00	2	Temperatura media	17.6
74410	7	Sololá	717	San Juan la Laguna	12	San Juan la Laguna	8	Agosto	2023-08-29T00:00:00	2024-11-08T23:00:00	4	Temperatura máxima	17.9
74411	7	Sololá	717	San Juan la Laguna	12	San Juan la Laguna	8	Agosto	2023-08-29T00:00:00	2024-11-08T23:00:00	3	Temperatura mínima	17.6
74412	7	Sololá	717	San Juan la Laguna	12	San Juan la Laguna	8	Agosto	2023-08-29T00:00:00	2024-11-08T23:00:00	5	Humedad	91
74413	7	Sololá	717	San Juan la Laguna	12	San Juan la Laguna	8	Agosto	2023-08-29T00:00:00	2024-11-08T23:00:00	6	Velocidad del viento	0
74414	7	Sololá	717	San Juan la Laguna	12	San Juan la Laguna	8	Agosto	2023-08-29T00:00:00	2024-11-08T23:00:00	7	Dirección del viento	0
74415	7	Sololá	717	San Juan la Laguna	12	San Juan la Laguna	8	Agosto	2023-08-29T00:00:00	2024-11-08T23:00:00	1	Precipitación	0
74416	7	Sololá	717	San Juan la Laguna	12	San Juan la Laguna	8	Agosto	2023-08-29T00:00:00	2024-11-08T23:00:00	8	Radiación solar	0
74417	7	Sololá	717	San Juan la Laguna	12	San Juan la Laguna	8	Agosto	2023-08-30T00:00:00	2024-11-08T00:00:00	2	Temperatura media	17.2
74418	7	Sololá	717	San Juan la Laguna	12	San Juan la Laguna	8	Agosto	2023-08-30T00:00:00	2024-11-08T00:00:00	4	Temperatura máxima	17.7
74419	7	Sololá	717	San Juan la Laguna	12	San Juan la Laguna	8	Agosto	2023-08-30T00:00:00	2024-11-08T00:00:00	3	Temperatura mínima	17.2
74420	7	Sololá	717	San Juan la Laguna	12	San Juan la Laguna	8	Agosto	2023-08-30T00:00:00	2024-11-08T00:00:00	5	Humedad	91
74421	7	Sololá	717	San Juan la Laguna	12	San Juan la Laguna	8	Agosto	2023-08-30T00:00:00	2024-11-08T00:00:00	6	Velocidad del viento	0
74422	7	Sololá	717	San Juan la Laguna	12	San Juan la Laguna	8	Agosto	2023-08-30T00:00:00	2024-11-08T00:00:00	7	Dirección del viento	0
74423	7	Sololá	717	San Juan la Laguna	12	San Juan la Laguna	8	Agosto	2023-08-30T00:00:00	2024-11-08T00:00:00	1	Precipitación	0
74424	7	Sololá	717	San Juan la Laguna	12	San Juan la Laguna	8	Agosto	2023-08-30T00:00:00	2024-11-08T00:00:00	8	Radiación solar	0
74425	7	Sololá	717	San Juan la Laguna	12	San Juan la Laguna	8	Agosto	2023-08-30T00:00:00	2024-11-08T01:00:00	2	Temperatura media	17.2
74426	7	Sololá	717	San Juan la Laguna	12	San Juan la Laguna	8	Agosto	2023-08-30T00:00:00	2024-11-08T01:00:00	4	Temperatura máxima	17.3
74427	7	Sololá	717	San Juan la Laguna	12	San Juan la Laguna	8	Agosto	2023-08-30T00:00:00	2024-11-08T01:00:00	3	Temperatura mínima	17.1
74428	7	Sololá	717	San Juan la Laguna	12	San Juan la Laguna	8	Agosto	2023-08-30T00:00:00	2024-11-08T01:00:00	5	Humedad	90
74429	7	Sololá	717	San Juan la Laguna	12	San Juan la Laguna	8	Agosto	2023-08-30T00:00:00	2024-11-08T01:00:00	6	Velocidad del viento	0
74430	7	Sololá	717	San Juan la Laguna	12	San Juan la Laguna	8	Agosto	2023-08-30T00:00:00	2024-11-08T01:00:00	7	Dirección del viento	0
74431	7	Sololá	717	San Juan la Laguna	12	San Juan la Laguna	8	Agosto	2023-08-30T00:00:00	2024-11-08T01:00:00	1	Precipitación	0
74432	7	Sololá	717	San Juan la Laguna	12	San Juan la Laguna	8	Agosto	2023-08-30T00:00:00	2024-11-08T01:00:00	8	Radiación solar	0
74433	7	Sololá	717	San Juan la Laguna	12	San Juan la Laguna	8	Agosto	2023-08-30T00:00:00	2024-11-08T02:00:00	2	Temperatura media	17.1
74434	7	Sololá	717	San Juan la Laguna	12	San Juan la Laguna	8	Agosto	2023-08-30T00:00:00	2024-11-08T02:00:00	4	Temperatura máxima	17.2
74435	7	Sololá	717	San Juan la Laguna	12	San Juan la Laguna	8	Agosto	2023-08-30T00:00:00	2024-11-08T02:00:00	3	Temperatura mínima	17.1
74436	7	Sololá	717	San Juan la Laguna	12	San Juan la Laguna	8	Agosto	2023-08-30T00:00:00	2024-11-08T02:00:00	5	Humedad	91
74437	7	Sololá	717	San Juan la Laguna	12	San Juan la Laguna	8	Agosto	2023-08-30T00:00:00	2024-11-08T02:00:00	6	Velocidad del viento	0
74438	7	Sololá	717	San Juan la Laguna	12	San Juan la Laguna	8	Agosto	2023-08-30T00:00:00	2024-11-08T02:00:00	7	Dirección del viento	0
74439	7	Sololá	717	San Juan la Laguna	12	San Juan la Laguna	8	Agosto	2023-08-30T00:00:00	2024-11-08T02:00:00	1	Precipitación	0
74440	7	Sololá	717	San Juan la Laguna	12	San Juan la Laguna	8	Agosto	2023-08-30T00:00:00	2024-11-08T02:00:00	8	Radiación solar	0
74441	7	Sololá	717	San Juan la Laguna	12	San Juan la Laguna	8	Agosto	2023-08-30T00:00:00	2024-11-08T03:00:00	2	Temperatura media	17.4
74442	7	Sololá	717	San Juan la Laguna	12	San Juan la Laguna	8	Agosto	2023-08-30T00:00:00	2024-11-08T03:00:00	4	Temperatura máxima	17.4
74443	7	Sololá	717	San Juan la Laguna	12	San Juan la Laguna	8	Agosto	2023-08-30T00:00:00	2024-11-08T03:00:00	3	Temperatura mínima	17
74444	7	Sololá	717	San Juan la Laguna	12	San Juan la Laguna	8	Agosto	2023-08-30T00:00:00	2024-11-08T03:00:00	5	Humedad	89
74445	7	Sololá	717	San Juan la Laguna	12	San Juan la Laguna	8	Agosto	2023-08-30T00:00:00	2024-11-08T03:00:00	6	Velocidad del viento	0
74446	7	Sololá	717	San Juan la Laguna	12	San Juan la Laguna	8	Agosto	2023-08-30T00:00:00	2024-11-08T03:00:00	7	Dirección del viento	0
74447	7	Sololá	717	San Juan la Laguna	12	San Juan la Laguna	8	Agosto	2023-08-30T00:00:00	2024-11-08T03:00:00	1	Precipitación	0
74448	7	Sololá	717	San Juan la Laguna	12	San Juan la Laguna	8	Agosto	2023-08-30T00:00:00	2024-11-08T03:00:00	8	Radiación solar	0
74449	7	Sololá	717	San Juan la Laguna	12	San Juan la Laguna	8	Agosto	2023-08-30T00:00:00	2024-11-08T04:00:00	2	Temperatura media	17.2
74450	7	Sololá	717	San Juan la Laguna	12	San Juan la Laguna	8	Agosto	2023-08-30T00:00:00	2024-11-08T04:00:00	4	Temperatura máxima	17.4
74451	7	Sololá	717	San Juan la Laguna	12	San Juan la Laguna	8	Agosto	2023-08-30T00:00:00	2024-11-08T04:00:00	3	Temperatura mínima	17.1
74452	7	Sololá	717	San Juan la Laguna	12	San Juan la Laguna	8	Agosto	2023-08-30T00:00:00	2024-11-08T04:00:00	5	Humedad	90
74453	7	Sololá	717	San Juan la Laguna	12	San Juan la Laguna	8	Agosto	2023-08-30T00:00:00	2024-11-08T04:00:00	6	Velocidad del viento	1.6
74454	7	Sololá	717	San Juan la Laguna	12	San Juan la Laguna	8	Agosto	2023-08-30T00:00:00	2024-11-08T04:00:00	7	Dirección del viento	1.61
74455	7	Sololá	717	San Juan la Laguna	12	San Juan la Laguna	8	Agosto	2023-08-30T00:00:00	2024-11-08T04:00:00	1	Precipitación	0
74456	7	Sololá	717	San Juan la Laguna	12	San Juan la Laguna	8	Agosto	2023-08-30T00:00:00	2024-11-08T04:00:00	8	Radiación solar	0
74457	7	Sololá	717	San Juan la Laguna	12	San Juan la Laguna	8	Agosto	2023-08-30T00:00:00	2024-11-08T05:00:00	2	Temperatura media	16.9
74458	7	Sololá	717	San Juan la Laguna	12	San Juan la Laguna	8	Agosto	2023-08-30T00:00:00	2024-11-08T05:00:00	4	Temperatura máxima	17.5
74459	7	Sololá	717	San Juan la Laguna	12	San Juan la Laguna	8	Agosto	2023-08-30T00:00:00	2024-11-08T05:00:00	3	Temperatura mínima	16.9
74460	7	Sololá	717	San Juan la Laguna	12	San Juan la Laguna	8	Agosto	2023-08-30T00:00:00	2024-11-08T05:00:00	5	Humedad	91
74461	7	Sololá	717	San Juan la Laguna	12	San Juan la Laguna	8	Agosto	2023-08-30T00:00:00	2024-11-08T05:00:00	6	Velocidad del viento	4.8
74462	7	Sololá	717	San Juan la Laguna	12	San Juan la Laguna	8	Agosto	2023-08-30T00:00:00	2024-11-08T05:00:00	7	Dirección del viento	4.83
74463	7	Sololá	717	San Juan la Laguna	12	San Juan la Laguna	8	Agosto	2023-08-30T00:00:00	2024-11-08T05:00:00	1	Precipitación	0
74464	7	Sololá	717	San Juan la Laguna	12	San Juan la Laguna	8	Agosto	2023-08-30T00:00:00	2024-11-08T05:00:00	8	Radiación solar	0
74465	7	Sololá	717	San Juan la Laguna	12	San Juan la Laguna	8	Agosto	2023-08-30T00:00:00	2024-11-08T06:00:00	2	Temperatura media	16.8
74466	7	Sololá	717	San Juan la Laguna	12	San Juan la Laguna	8	Agosto	2023-08-30T00:00:00	2024-11-08T06:00:00	4	Temperatura máxima	16.9
74467	7	Sololá	717	San Juan la Laguna	12	San Juan la Laguna	8	Agosto	2023-08-30T00:00:00	2024-11-08T06:00:00	3	Temperatura mínima	16.8
74468	7	Sololá	717	San Juan la Laguna	12	San Juan la Laguna	8	Agosto	2023-08-30T00:00:00	2024-11-08T06:00:00	5	Humedad	90
74469	7	Sololá	717	San Juan la Laguna	12	San Juan la Laguna	8	Agosto	2023-08-30T00:00:00	2024-11-08T06:00:00	6	Velocidad del viento	3.2
74470	7	Sololá	717	San Juan la Laguna	12	San Juan la Laguna	8	Agosto	2023-08-30T00:00:00	2024-11-08T06:00:00	7	Dirección del viento	3.22
74471	7	Sololá	717	San Juan la Laguna	12	San Juan la Laguna	8	Agosto	2023-08-30T00:00:00	2024-11-08T06:00:00	1	Precipitación	0
74472	7	Sololá	717	San Juan la Laguna	12	San Juan la Laguna	8	Agosto	2023-08-30T00:00:00	2024-11-08T06:00:00	8	Radiación solar	0
74473	7	Sololá	717	San Juan la Laguna	12	San Juan la Laguna	8	Agosto	2023-08-30T00:00:00	2024-11-08T07:00:00	2	Temperatura media	17.6
74474	7	Sololá	717	San Juan la Laguna	12	San Juan la Laguna	8	Agosto	2023-08-30T00:00:00	2024-11-08T07:00:00	4	Temperatura máxima	17.6
74475	7	Sololá	717	San Juan la Laguna	12	San Juan la Laguna	8	Agosto	2023-08-30T00:00:00	2024-11-08T07:00:00	3	Temperatura mínima	16.8
74476	7	Sololá	717	San Juan la Laguna	12	San Juan la Laguna	8	Agosto	2023-08-30T00:00:00	2024-11-08T07:00:00	5	Humedad	88
74477	7	Sololá	717	San Juan la Laguna	12	San Juan la Laguna	8	Agosto	2023-08-30T00:00:00	2024-11-08T07:00:00	6	Velocidad del viento	3.2
74478	7	Sololá	717	San Juan la Laguna	12	San Juan la Laguna	8	Agosto	2023-08-30T00:00:00	2024-11-08T07:00:00	7	Dirección del viento	3.22
74479	7	Sololá	717	San Juan la Laguna	12	San Juan la Laguna	8	Agosto	2023-08-30T00:00:00	2024-11-08T07:00:00	1	Precipitación	0
74480	7	Sololá	717	San Juan la Laguna	12	San Juan la Laguna	8	Agosto	2023-08-30T00:00:00	2024-11-08T07:00:00	8	Radiación solar	32
74481	7	Sololá	717	San Juan la Laguna	12	San Juan la Laguna	8	Agosto	2023-08-30T00:00:00	2024-11-08T08:00:00	2	Temperatura media	19.1
74482	7	Sololá	717	San Juan la Laguna	12	San Juan la Laguna	8	Agosto	2023-08-30T00:00:00	2024-11-08T08:00:00	4	Temperatura máxima	19.1
74483	7	Sololá	717	San Juan la Laguna	12	San Juan la Laguna	8	Agosto	2023-08-30T00:00:00	2024-11-08T08:00:00	3	Temperatura mínima	17.6
74484	7	Sololá	717	San Juan la Laguna	12	San Juan la Laguna	8	Agosto	2023-08-30T00:00:00	2024-11-08T08:00:00	5	Humedad	85
74485	7	Sololá	717	San Juan la Laguna	12	San Juan la Laguna	8	Agosto	2023-08-30T00:00:00	2024-11-08T08:00:00	6	Velocidad del viento	0
74486	7	Sololá	717	San Juan la Laguna	12	San Juan la Laguna	8	Agosto	2023-08-30T00:00:00	2024-11-08T08:00:00	7	Dirección del viento	0
74487	7	Sololá	717	San Juan la Laguna	12	San Juan la Laguna	8	Agosto	2023-08-30T00:00:00	2024-11-08T08:00:00	1	Precipitación	0
74488	7	Sololá	717	San Juan la Laguna	12	San Juan la Laguna	8	Agosto	2023-08-30T00:00:00	2024-11-08T08:00:00	8	Radiación solar	149
74489	7	Sololá	717	San Juan la Laguna	12	San Juan la Laguna	8	Agosto	2023-08-30T00:00:00	2024-11-08T09:00:00	2	Temperatura media	20.6
74490	7	Sololá	717	San Juan la Laguna	12	San Juan la Laguna	8	Agosto	2023-08-30T00:00:00	2024-11-08T09:00:00	4	Temperatura máxima	20.6
74491	7	Sololá	717	San Juan la Laguna	12	San Juan la Laguna	8	Agosto	2023-08-30T00:00:00	2024-11-08T09:00:00	3	Temperatura mínima	19.1
74492	7	Sololá	717	San Juan la Laguna	12	San Juan la Laguna	8	Agosto	2023-08-30T00:00:00	2024-11-08T09:00:00	5	Humedad	84
74493	7	Sololá	717	San Juan la Laguna	12	San Juan la Laguna	8	Agosto	2023-08-30T00:00:00	2024-11-08T09:00:00	6	Velocidad del viento	1.6
74494	7	Sololá	717	San Juan la Laguna	12	San Juan la Laguna	8	Agosto	2023-08-30T00:00:00	2024-11-08T09:00:00	7	Dirección del viento	1.61
74495	7	Sololá	717	San Juan la Laguna	12	San Juan la Laguna	8	Agosto	2023-08-30T00:00:00	2024-11-08T09:00:00	1	Precipitación	0
74496	7	Sololá	717	San Juan la Laguna	12	San Juan la Laguna	8	Agosto	2023-08-30T00:00:00	2024-11-08T09:00:00	8	Radiación solar	233
74497	7	Sololá	717	San Juan la Laguna	12	San Juan la Laguna	8	Agosto	2023-08-30T00:00:00	2024-11-08T10:00:00	2	Temperatura media	23.1
74498	7	Sololá	717	San Juan la Laguna	12	San Juan la Laguna	8	Agosto	2023-08-30T00:00:00	2024-11-08T10:00:00	4	Temperatura máxima	23.1
74499	7	Sololá	717	San Juan la Laguna	12	San Juan la Laguna	8	Agosto	2023-08-30T00:00:00	2024-11-08T10:00:00	3	Temperatura mínima	20.6
74500	7	Sololá	717	San Juan la Laguna	12	San Juan la Laguna	8	Agosto	2023-08-30T00:00:00	2024-11-08T10:00:00	5	Humedad	68
74501	7	Sololá	717	San Juan la Laguna	12	San Juan la Laguna	8	Agosto	2023-08-30T00:00:00	2024-11-08T10:00:00	6	Velocidad del viento	1.6
74502	7	Sololá	717	San Juan la Laguna	12	San Juan la Laguna	8	Agosto	2023-08-30T00:00:00	2024-11-08T10:00:00	7	Dirección del viento	1.61
74503	7	Sololá	717	San Juan la Laguna	12	San Juan la Laguna	8	Agosto	2023-08-30T00:00:00	2024-11-08T10:00:00	1	Precipitación	0
74504	7	Sololá	717	San Juan la Laguna	12	San Juan la Laguna	8	Agosto	2023-08-30T00:00:00	2024-11-08T10:00:00	8	Radiación solar	386
74505	7	Sololá	717	San Juan la Laguna	12	San Juan la Laguna	8	Agosto	2023-08-30T00:00:00	2024-11-08T11:00:00	2	Temperatura media	23.4
74506	7	Sololá	717	San Juan la Laguna	12	San Juan la Laguna	8	Agosto	2023-08-30T00:00:00	2024-11-08T11:00:00	4	Temperatura máxima	23.9
74507	7	Sololá	717	San Juan la Laguna	12	San Juan la Laguna	8	Agosto	2023-08-30T00:00:00	2024-11-08T11:00:00	3	Temperatura mínima	23.1
74508	7	Sololá	717	San Juan la Laguna	12	San Juan la Laguna	8	Agosto	2023-08-30T00:00:00	2024-11-08T11:00:00	5	Humedad	72
74509	7	Sololá	717	San Juan la Laguna	12	San Juan la Laguna	8	Agosto	2023-08-30T00:00:00	2024-11-08T11:00:00	6	Velocidad del viento	0
74510	7	Sololá	717	San Juan la Laguna	12	San Juan la Laguna	8	Agosto	2023-08-30T00:00:00	2024-11-08T11:00:00	7	Dirección del viento	0
74511	7	Sololá	717	San Juan la Laguna	12	San Juan la Laguna	8	Agosto	2023-08-30T00:00:00	2024-11-08T11:00:00	1	Precipitación	0
74512	7	Sololá	717	San Juan la Laguna	12	San Juan la Laguna	8	Agosto	2023-08-30T00:00:00	2024-11-08T11:00:00	8	Radiación solar	942
74513	7	Sololá	717	San Juan la Laguna	12	San Juan la Laguna	8	Agosto	2023-08-30T00:00:00	2024-11-08T12:00:00	2	Temperatura media	24
74514	7	Sololá	717	San Juan la Laguna	12	San Juan la Laguna	8	Agosto	2023-08-30T00:00:00	2024-11-08T12:00:00	4	Temperatura máxima	24.1
74515	7	Sololá	717	San Juan la Laguna	12	San Juan la Laguna	8	Agosto	2023-08-30T00:00:00	2024-11-08T12:00:00	3	Temperatura mínima	23.3
74516	7	Sololá	717	San Juan la Laguna	12	San Juan la Laguna	8	Agosto	2023-08-30T00:00:00	2024-11-08T12:00:00	5	Humedad	71
74517	7	Sololá	717	San Juan la Laguna	12	San Juan la Laguna	8	Agosto	2023-08-30T00:00:00	2024-11-08T12:00:00	6	Velocidad del viento	1.6
74518	7	Sololá	717	San Juan la Laguna	12	San Juan la Laguna	8	Agosto	2023-08-30T00:00:00	2024-11-08T12:00:00	7	Dirección del viento	1.61
74519	7	Sololá	717	San Juan la Laguna	12	San Juan la Laguna	8	Agosto	2023-08-30T00:00:00	2024-11-08T12:00:00	1	Precipitación	0
74520	7	Sololá	717	San Juan la Laguna	12	San Juan la Laguna	8	Agosto	2023-08-30T00:00:00	2024-11-08T12:00:00	8	Radiación solar	799
74521	7	Sololá	717	San Juan la Laguna	12	San Juan la Laguna	8	Agosto	2023-08-30T00:00:00	2024-11-08T13:00:00	2	Temperatura media	22.4
74522	7	Sololá	717	San Juan la Laguna	12	San Juan la Laguna	8	Agosto	2023-08-30T00:00:00	2024-11-08T13:00:00	4	Temperatura máxima	24
74523	7	Sololá	717	San Juan la Laguna	12	San Juan la Laguna	8	Agosto	2023-08-30T00:00:00	2024-11-08T13:00:00	3	Temperatura mínima	22.4
74524	7	Sololá	717	San Juan la Laguna	12	San Juan la Laguna	8	Agosto	2023-08-30T00:00:00	2024-11-08T13:00:00	5	Humedad	78
74525	7	Sololá	717	San Juan la Laguna	12	San Juan la Laguna	8	Agosto	2023-08-30T00:00:00	2024-11-08T13:00:00	6	Velocidad del viento	0
74526	7	Sololá	717	San Juan la Laguna	12	San Juan la Laguna	8	Agosto	2023-08-30T00:00:00	2024-11-08T13:00:00	7	Dirección del viento	0
74527	7	Sololá	717	San Juan la Laguna	12	San Juan la Laguna	8	Agosto	2023-08-30T00:00:00	2024-11-08T13:00:00	1	Precipitación	0
74528	7	Sololá	717	San Juan la Laguna	12	San Juan la Laguna	8	Agosto	2023-08-30T00:00:00	2024-11-08T13:00:00	8	Radiación solar	371
74529	7	Sololá	717	San Juan la Laguna	12	San Juan la Laguna	8	Agosto	2023-08-30T00:00:00	2024-11-08T14:00:00	2	Temperatura media	20.3
74530	7	Sololá	717	San Juan la Laguna	12	San Juan la Laguna	8	Agosto	2023-08-30T00:00:00	2024-11-08T14:00:00	4	Temperatura máxima	22.6
74531	7	Sololá	717	San Juan la Laguna	12	San Juan la Laguna	8	Agosto	2023-08-30T00:00:00	2024-11-08T14:00:00	3	Temperatura mínima	20.3
74532	7	Sololá	717	San Juan la Laguna	12	San Juan la Laguna	8	Agosto	2023-08-30T00:00:00	2024-11-08T14:00:00	5	Humedad	89
74533	7	Sololá	717	San Juan la Laguna	12	San Juan la Laguna	8	Agosto	2023-08-30T00:00:00	2024-11-08T14:00:00	6	Velocidad del viento	0
74534	7	Sololá	717	San Juan la Laguna	12	San Juan la Laguna	8	Agosto	2023-08-30T00:00:00	2024-11-08T14:00:00	7	Dirección del viento	0
74535	7	Sololá	717	San Juan la Laguna	12	San Juan la Laguna	8	Agosto	2023-08-30T00:00:00	2024-11-08T14:00:00	1	Precipitación	1.6
74536	7	Sololá	717	San Juan la Laguna	12	San Juan la Laguna	8	Agosto	2023-08-30T00:00:00	2024-11-08T14:00:00	8	Radiación solar	228
74537	7	Sololá	717	San Juan la Laguna	12	San Juan la Laguna	8	Agosto	2023-08-30T00:00:00	2024-11-08T15:00:00	2	Temperatura media	21.1
74538	7	Sololá	717	San Juan la Laguna	12	San Juan la Laguna	8	Agosto	2023-08-30T00:00:00	2024-11-08T15:00:00	4	Temperatura máxima	21.1
74539	7	Sololá	717	San Juan la Laguna	12	San Juan la Laguna	8	Agosto	2023-08-30T00:00:00	2024-11-08T15:00:00	3	Temperatura mínima	19.8
74540	7	Sololá	717	San Juan la Laguna	12	San Juan la Laguna	8	Agosto	2023-08-30T00:00:00	2024-11-08T15:00:00	5	Humedad	83
74541	7	Sololá	717	San Juan la Laguna	12	San Juan la Laguna	8	Agosto	2023-08-30T00:00:00	2024-11-08T15:00:00	6	Velocidad del viento	1.6
74542	7	Sololá	717	San Juan la Laguna	12	San Juan la Laguna	8	Agosto	2023-08-30T00:00:00	2024-11-08T15:00:00	7	Dirección del viento	1.61
74543	7	Sololá	717	San Juan la Laguna	12	San Juan la Laguna	8	Agosto	2023-08-30T00:00:00	2024-11-08T15:00:00	1	Precipitación	1.4
74544	7	Sololá	717	San Juan la Laguna	12	San Juan la Laguna	8	Agosto	2023-08-30T00:00:00	2024-11-08T15:00:00	8	Radiación solar	327
74545	7	Sololá	717	San Juan la Laguna	12	San Juan la Laguna	8	Agosto	2023-08-30T00:00:00	2024-11-08T16:00:00	2	Temperatura media	20.8
74546	7	Sololá	717	San Juan la Laguna	12	San Juan la Laguna	8	Agosto	2023-08-30T00:00:00	2024-11-08T16:00:00	4	Temperatura máxima	21.2
74547	7	Sololá	717	San Juan la Laguna	12	San Juan la Laguna	8	Agosto	2023-08-30T00:00:00	2024-11-08T16:00:00	3	Temperatura mínima	20.8
74548	7	Sololá	717	San Juan la Laguna	12	San Juan la Laguna	8	Agosto	2023-08-30T00:00:00	2024-11-08T16:00:00	5	Humedad	83
74549	7	Sololá	717	San Juan la Laguna	12	San Juan la Laguna	8	Agosto	2023-08-30T00:00:00	2024-11-08T16:00:00	6	Velocidad del viento	0
74550	7	Sololá	717	San Juan la Laguna	12	San Juan la Laguna	8	Agosto	2023-08-30T00:00:00	2024-11-08T16:00:00	7	Dirección del viento	0
74551	7	Sololá	717	San Juan la Laguna	12	San Juan la Laguna	8	Agosto	2023-08-30T00:00:00	2024-11-08T16:00:00	1	Precipitación	0
74552	7	Sololá	717	San Juan la Laguna	12	San Juan la Laguna	8	Agosto	2023-08-30T00:00:00	2024-11-08T16:00:00	8	Radiación solar	172
74553	7	Sololá	717	San Juan la Laguna	12	San Juan la Laguna	8	Agosto	2023-08-30T00:00:00	2024-11-08T17:00:00	2	Temperatura media	20.4
74554	7	Sololá	717	San Juan la Laguna	12	San Juan la Laguna	8	Agosto	2023-08-30T00:00:00	2024-11-08T17:00:00	4	Temperatura máxima	20.9
74555	7	Sololá	717	San Juan la Laguna	12	San Juan la Laguna	8	Agosto	2023-08-30T00:00:00	2024-11-08T17:00:00	3	Temperatura mínima	20.4
74556	7	Sololá	717	San Juan la Laguna	12	San Juan la Laguna	8	Agosto	2023-08-30T00:00:00	2024-11-08T17:00:00	5	Humedad	86
74557	7	Sololá	717	San Juan la Laguna	12	San Juan la Laguna	8	Agosto	2023-08-30T00:00:00	2024-11-08T17:00:00	6	Velocidad del viento	0
74558	7	Sololá	717	San Juan la Laguna	12	San Juan la Laguna	8	Agosto	2023-08-30T00:00:00	2024-11-08T17:00:00	7	Dirección del viento	0
74559	7	Sololá	717	San Juan la Laguna	12	San Juan la Laguna	8	Agosto	2023-08-30T00:00:00	2024-11-08T17:00:00	1	Precipitación	0
74560	7	Sololá	717	San Juan la Laguna	12	San Juan la Laguna	8	Agosto	2023-08-30T00:00:00	2024-11-08T17:00:00	8	Radiación solar	88
74561	7	Sololá	717	San Juan la Laguna	12	San Juan la Laguna	8	Agosto	2023-08-30T00:00:00	2024-11-08T18:00:00	2	Temperatura media	19.7
74562	7	Sololá	717	San Juan la Laguna	12	San Juan la Laguna	8	Agosto	2023-08-30T00:00:00	2024-11-08T18:00:00	4	Temperatura máxima	20.4
74563	7	Sololá	717	San Juan la Laguna	12	San Juan la Laguna	8	Agosto	2023-08-30T00:00:00	2024-11-08T18:00:00	3	Temperatura mínima	19.6
74564	7	Sololá	717	San Juan la Laguna	12	San Juan la Laguna	8	Agosto	2023-08-30T00:00:00	2024-11-08T18:00:00	5	Humedad	89
74565	7	Sololá	717	San Juan la Laguna	12	San Juan la Laguna	8	Agosto	2023-08-30T00:00:00	2024-11-08T18:00:00	6	Velocidad del viento	0
74566	7	Sololá	717	San Juan la Laguna	12	San Juan la Laguna	8	Agosto	2023-08-30T00:00:00	2024-11-08T18:00:00	7	Dirección del viento	0
74567	7	Sololá	717	San Juan la Laguna	12	San Juan la Laguna	8	Agosto	2023-08-30T00:00:00	2024-11-08T18:00:00	1	Precipitación	0
74568	7	Sololá	717	San Juan la Laguna	12	San Juan la Laguna	8	Agosto	2023-08-30T00:00:00	2024-11-08T18:00:00	8	Radiación solar	21
74569	7	Sololá	717	San Juan la Laguna	12	San Juan la Laguna	8	Agosto	2023-08-30T00:00:00	2024-11-08T19:00:00	2	Temperatura media	18.8
74570	7	Sololá	717	San Juan la Laguna	12	San Juan la Laguna	8	Agosto	2023-08-30T00:00:00	2024-11-08T19:00:00	4	Temperatura máxima	19.6
74571	7	Sololá	717	San Juan la Laguna	12	San Juan la Laguna	8	Agosto	2023-08-30T00:00:00	2024-11-08T19:00:00	3	Temperatura mínima	18.8
74572	7	Sololá	717	San Juan la Laguna	12	San Juan la Laguna	8	Agosto	2023-08-30T00:00:00	2024-11-08T19:00:00	5	Humedad	89
74573	7	Sololá	717	San Juan la Laguna	12	San Juan la Laguna	8	Agosto	2023-08-30T00:00:00	2024-11-08T19:00:00	6	Velocidad del viento	0
74574	7	Sololá	717	San Juan la Laguna	12	San Juan la Laguna	8	Agosto	2023-08-30T00:00:00	2024-11-08T19:00:00	7	Dirección del viento	0
74575	7	Sololá	717	San Juan la Laguna	12	San Juan la Laguna	8	Agosto	2023-08-30T00:00:00	2024-11-08T19:00:00	1	Precipitación	0
74576	7	Sololá	717	San Juan la Laguna	12	San Juan la Laguna	8	Agosto	2023-08-30T00:00:00	2024-11-08T19:00:00	8	Radiación solar	0
74577	7	Sololá	717	San Juan la Laguna	12	San Juan la Laguna	8	Agosto	2023-08-30T00:00:00	2024-11-08T20:00:00	2	Temperatura media	18.8
74578	7	Sololá	717	San Juan la Laguna	12	San Juan la Laguna	8	Agosto	2023-08-30T00:00:00	2024-11-08T20:00:00	4	Temperatura máxima	18.9
74579	7	Sololá	717	San Juan la Laguna	12	San Juan la Laguna	8	Agosto	2023-08-30T00:00:00	2024-11-08T20:00:00	3	Temperatura mínima	18.8
74580	7	Sololá	717	San Juan la Laguna	12	San Juan la Laguna	8	Agosto	2023-08-30T00:00:00	2024-11-08T20:00:00	5	Humedad	86
74581	7	Sololá	717	San Juan la Laguna	12	San Juan la Laguna	8	Agosto	2023-08-30T00:00:00	2024-11-08T20:00:00	6	Velocidad del viento	6.4
74582	7	Sololá	717	San Juan la Laguna	12	San Juan la Laguna	8	Agosto	2023-08-30T00:00:00	2024-11-08T20:00:00	7	Dirección del viento	6.44
74583	7	Sololá	717	San Juan la Laguna	12	San Juan la Laguna	8	Agosto	2023-08-30T00:00:00	2024-11-08T20:00:00	1	Precipitación	0
74584	7	Sololá	717	San Juan la Laguna	12	San Juan la Laguna	8	Agosto	2023-08-30T00:00:00	2024-11-08T20:00:00	8	Radiación solar	0
74585	7	Sololá	717	San Juan la Laguna	12	San Juan la Laguna	8	Agosto	2023-08-30T00:00:00	2024-11-08T21:00:00	2	Temperatura media	18.4
74586	7	Sololá	717	San Juan la Laguna	12	San Juan la Laguna	8	Agosto	2023-08-30T00:00:00	2024-11-08T21:00:00	4	Temperatura máxima	18.8
74587	7	Sololá	717	San Juan la Laguna	12	San Juan la Laguna	8	Agosto	2023-08-30T00:00:00	2024-11-08T21:00:00	3	Temperatura mínima	18.3
74588	7	Sololá	717	San Juan la Laguna	12	San Juan la Laguna	8	Agosto	2023-08-30T00:00:00	2024-11-08T21:00:00	5	Humedad	87
74589	7	Sololá	717	San Juan la Laguna	12	San Juan la Laguna	8	Agosto	2023-08-30T00:00:00	2024-11-08T21:00:00	6	Velocidad del viento	1.6
74590	7	Sololá	717	San Juan la Laguna	12	San Juan la Laguna	8	Agosto	2023-08-30T00:00:00	2024-11-08T21:00:00	7	Dirección del viento	1.61
74591	7	Sololá	717	San Juan la Laguna	12	San Juan la Laguna	8	Agosto	2023-08-30T00:00:00	2024-11-08T21:00:00	1	Precipitación	0
74592	7	Sololá	717	San Juan la Laguna	12	San Juan la Laguna	8	Agosto	2023-08-30T00:00:00	2024-11-08T21:00:00	8	Radiación solar	0
74593	7	Sololá	717	San Juan la Laguna	12	San Juan la Laguna	8	Agosto	2023-08-30T00:00:00	2024-11-08T22:00:00	2	Temperatura media	18.3
74594	7	Sololá	717	San Juan la Laguna	12	San Juan la Laguna	8	Agosto	2023-08-30T00:00:00	2024-11-08T22:00:00	4	Temperatura máxima	18.4
74595	7	Sololá	717	San Juan la Laguna	12	San Juan la Laguna	8	Agosto	2023-08-30T00:00:00	2024-11-08T22:00:00	3	Temperatura mínima	18.3
74596	7	Sololá	717	San Juan la Laguna	12	San Juan la Laguna	8	Agosto	2023-08-30T00:00:00	2024-11-08T22:00:00	5	Humedad	89
74597	7	Sololá	717	San Juan la Laguna	12	San Juan la Laguna	8	Agosto	2023-08-30T00:00:00	2024-11-08T22:00:00	6	Velocidad del viento	1.6
74598	7	Sololá	717	San Juan la Laguna	12	San Juan la Laguna	8	Agosto	2023-08-30T00:00:00	2024-11-08T22:00:00	7	Dirección del viento	1.61
74599	7	Sololá	717	San Juan la Laguna	12	San Juan la Laguna	8	Agosto	2023-08-30T00:00:00	2024-11-08T22:00:00	1	Precipitación	0
74600	7	Sololá	717	San Juan la Laguna	12	San Juan la Laguna	8	Agosto	2023-08-30T00:00:00	2024-11-08T22:00:00	8	Radiación solar	0
74601	7	Sololá	717	San Juan la Laguna	12	San Juan la Laguna	8	Agosto	2023-08-30T00:00:00	2024-11-08T23:00:00	2	Temperatura media	17.9
74602	7	Sololá	717	San Juan la Laguna	12	San Juan la Laguna	8	Agosto	2023-08-30T00:00:00	2024-11-08T23:00:00	4	Temperatura máxima	18.5
74603	7	Sololá	717	San Juan la Laguna	12	San Juan la Laguna	8	Agosto	2023-08-30T00:00:00	2024-11-08T23:00:00	3	Temperatura mínima	17.8
74604	7	Sololá	717	San Juan la Laguna	12	San Juan la Laguna	8	Agosto	2023-08-30T00:00:00	2024-11-08T23:00:00	5	Humedad	89
74605	7	Sololá	717	San Juan la Laguna	12	San Juan la Laguna	8	Agosto	2023-08-30T00:00:00	2024-11-08T23:00:00	6	Velocidad del viento	0
74606	7	Sololá	717	San Juan la Laguna	12	San Juan la Laguna	8	Agosto	2023-08-30T00:00:00	2024-11-08T23:00:00	7	Dirección del viento	0
74607	7	Sololá	717	San Juan la Laguna	12	San Juan la Laguna	8	Agosto	2023-08-30T00:00:00	2024-11-08T23:00:00	1	Precipitación	0
74608	7	Sololá	717	San Juan la Laguna	12	San Juan la Laguna	8	Agosto	2023-08-30T00:00:00	2024-11-08T23:00:00	8	Radiación solar	0
74609	7	Sololá	717	San Juan la Laguna	12	San Juan la Laguna	8	Agosto	2023-08-31T00:00:00	2024-11-08T00:00:00	2	Temperatura media	17.9
74610	7	Sololá	717	San Juan la Laguna	12	San Juan la Laguna	8	Agosto	2023-08-31T00:00:00	2024-11-08T00:00:00	4	Temperatura máxima	17.9
74611	7	Sololá	717	San Juan la Laguna	12	San Juan la Laguna	8	Agosto	2023-08-31T00:00:00	2024-11-08T00:00:00	3	Temperatura mínima	17.8
74612	7	Sololá	717	San Juan la Laguna	12	San Juan la Laguna	8	Agosto	2023-08-31T00:00:00	2024-11-08T00:00:00	5	Humedad	89
74613	7	Sololá	717	San Juan la Laguna	12	San Juan la Laguna	8	Agosto	2023-08-31T00:00:00	2024-11-08T00:00:00	6	Velocidad del viento	0
74614	7	Sololá	717	San Juan la Laguna	12	San Juan la Laguna	8	Agosto	2023-08-31T00:00:00	2024-11-08T00:00:00	7	Dirección del viento	0
74615	7	Sololá	717	San Juan la Laguna	12	San Juan la Laguna	8	Agosto	2023-08-31T00:00:00	2024-11-08T00:00:00	1	Precipitación	0
74616	7	Sololá	717	San Juan la Laguna	12	San Juan la Laguna	8	Agosto	2023-08-31T00:00:00	2024-11-08T00:00:00	8	Radiación solar	0
74617	7	Sololá	717	San Juan la Laguna	12	San Juan la Laguna	8	Agosto	2023-08-31T00:00:00	2024-11-08T01:00:00	2	Temperatura media	17.9
74618	7	Sololá	717	San Juan la Laguna	12	San Juan la Laguna	8	Agosto	2023-08-31T00:00:00	2024-11-08T01:00:00	4	Temperatura máxima	18.2
74619	7	Sololá	717	San Juan la Laguna	12	San Juan la Laguna	8	Agosto	2023-08-31T00:00:00	2024-11-08T01:00:00	3	Temperatura mínima	17.9
74620	7	Sololá	717	San Juan la Laguna	12	San Juan la Laguna	8	Agosto	2023-08-31T00:00:00	2024-11-08T01:00:00	5	Humedad	88
74621	7	Sololá	717	San Juan la Laguna	12	San Juan la Laguna	8	Agosto	2023-08-31T00:00:00	2024-11-08T01:00:00	6	Velocidad del viento	0
74622	7	Sololá	717	San Juan la Laguna	12	San Juan la Laguna	8	Agosto	2023-08-31T00:00:00	2024-11-08T01:00:00	7	Dirección del viento	0
74623	7	Sololá	717	San Juan la Laguna	12	San Juan la Laguna	8	Agosto	2023-08-31T00:00:00	2024-11-08T01:00:00	1	Precipitación	0
74624	7	Sololá	717	San Juan la Laguna	12	San Juan la Laguna	8	Agosto	2023-08-31T00:00:00	2024-11-08T01:00:00	8	Radiación solar	0
74625	7	Sololá	717	San Juan la Laguna	12	San Juan la Laguna	8	Agosto	2023-08-31T00:00:00	2024-11-08T02:00:00	2	Temperatura media	17.7
74626	7	Sololá	717	San Juan la Laguna	12	San Juan la Laguna	8	Agosto	2023-08-31T00:00:00	2024-11-08T02:00:00	4	Temperatura máxima	17.9
74627	7	Sololá	717	San Juan la Laguna	12	San Juan la Laguna	8	Agosto	2023-08-31T00:00:00	2024-11-08T02:00:00	3	Temperatura mínima	17.7
74628	7	Sololá	717	San Juan la Laguna	12	San Juan la Laguna	8	Agosto	2023-08-31T00:00:00	2024-11-08T02:00:00	5	Humedad	88
74629	7	Sololá	717	San Juan la Laguna	12	San Juan la Laguna	8	Agosto	2023-08-31T00:00:00	2024-11-08T02:00:00	6	Velocidad del viento	0
74630	7	Sololá	717	San Juan la Laguna	12	San Juan la Laguna	8	Agosto	2023-08-31T00:00:00	2024-11-08T02:00:00	7	Dirección del viento	0
74631	7	Sololá	717	San Juan la Laguna	12	San Juan la Laguna	8	Agosto	2023-08-31T00:00:00	2024-11-08T02:00:00	1	Precipitación	0
74632	7	Sololá	717	San Juan la Laguna	12	San Juan la Laguna	8	Agosto	2023-08-31T00:00:00	2024-11-08T02:00:00	8	Radiación solar	0
74633	7	Sololá	717	San Juan la Laguna	12	San Juan la Laguna	8	Agosto	2023-08-31T00:00:00	2024-11-08T03:00:00	2	Temperatura media	17.8
74634	7	Sololá	717	San Juan la Laguna	12	San Juan la Laguna	8	Agosto	2023-08-31T00:00:00	2024-11-08T03:00:00	4	Temperatura máxima	18
74635	7	Sololá	717	San Juan la Laguna	12	San Juan la Laguna	8	Agosto	2023-08-31T00:00:00	2024-11-08T03:00:00	3	Temperatura mínima	17.7
74636	7	Sololá	717	San Juan la Laguna	12	San Juan la Laguna	8	Agosto	2023-08-31T00:00:00	2024-11-08T03:00:00	5	Humedad	85
74637	7	Sololá	717	San Juan la Laguna	12	San Juan la Laguna	8	Agosto	2023-08-31T00:00:00	2024-11-08T03:00:00	6	Velocidad del viento	0
74638	7	Sololá	717	San Juan la Laguna	12	San Juan la Laguna	8	Agosto	2023-08-31T00:00:00	2024-11-08T03:00:00	7	Dirección del viento	0
74639	7	Sololá	717	San Juan la Laguna	12	San Juan la Laguna	8	Agosto	2023-08-31T00:00:00	2024-11-08T03:00:00	1	Precipitación	0
74640	7	Sololá	717	San Juan la Laguna	12	San Juan la Laguna	8	Agosto	2023-08-31T00:00:00	2024-11-08T03:00:00	8	Radiación solar	0
74641	7	Sololá	717	San Juan la Laguna	12	San Juan la Laguna	8	Agosto	2023-08-31T00:00:00	2024-11-08T04:00:00	2	Temperatura media	17.7
74642	7	Sololá	717	San Juan la Laguna	12	San Juan la Laguna	8	Agosto	2023-08-31T00:00:00	2024-11-08T04:00:00	4	Temperatura máxima	17.8
74643	7	Sololá	717	San Juan la Laguna	12	San Juan la Laguna	8	Agosto	2023-08-31T00:00:00	2024-11-08T04:00:00	3	Temperatura mínima	17.3
74644	7	Sololá	717	San Juan la Laguna	12	San Juan la Laguna	8	Agosto	2023-08-31T00:00:00	2024-11-08T04:00:00	5	Humedad	85
74645	7	Sololá	717	San Juan la Laguna	12	San Juan la Laguna	8	Agosto	2023-08-31T00:00:00	2024-11-08T04:00:00	6	Velocidad del viento	0
74646	7	Sololá	717	San Juan la Laguna	12	San Juan la Laguna	8	Agosto	2023-08-31T00:00:00	2024-11-08T04:00:00	7	Dirección del viento	0
74647	7	Sololá	717	San Juan la Laguna	12	San Juan la Laguna	8	Agosto	2023-08-31T00:00:00	2024-11-08T04:00:00	1	Precipitación	0
74648	7	Sololá	717	San Juan la Laguna	12	San Juan la Laguna	8	Agosto	2023-08-31T00:00:00	2024-11-08T04:00:00	8	Radiación solar	0
74649	7	Sololá	717	San Juan la Laguna	12	San Juan la Laguna	8	Agosto	2023-08-31T00:00:00	2024-11-08T05:00:00	2	Temperatura media	16.9
74650	7	Sololá	717	San Juan la Laguna	12	San Juan la Laguna	8	Agosto	2023-08-31T00:00:00	2024-11-08T05:00:00	4	Temperatura máxima	17.7
74651	7	Sololá	717	San Juan la Laguna	12	San Juan la Laguna	8	Agosto	2023-08-31T00:00:00	2024-11-08T05:00:00	3	Temperatura mínima	16.9
74652	7	Sololá	717	San Juan la Laguna	12	San Juan la Laguna	8	Agosto	2023-08-31T00:00:00	2024-11-08T05:00:00	5	Humedad	88
74653	7	Sololá	717	San Juan la Laguna	12	San Juan la Laguna	8	Agosto	2023-08-31T00:00:00	2024-11-08T05:00:00	6	Velocidad del viento	0
74654	7	Sololá	717	San Juan la Laguna	12	San Juan la Laguna	8	Agosto	2023-08-31T00:00:00	2024-11-08T05:00:00	7	Dirección del viento	0
74655	7	Sololá	717	San Juan la Laguna	12	San Juan la Laguna	8	Agosto	2023-08-31T00:00:00	2024-11-08T05:00:00	1	Precipitación	0
74656	7	Sololá	717	San Juan la Laguna	12	San Juan la Laguna	8	Agosto	2023-08-31T00:00:00	2024-11-08T05:00:00	8	Radiación solar	0
74657	7	Sololá	717	San Juan la Laguna	12	San Juan la Laguna	8	Agosto	2023-08-31T00:00:00	2024-11-08T06:00:00	2	Temperatura media	17
74658	7	Sololá	717	San Juan la Laguna	12	San Juan la Laguna	8	Agosto	2023-08-31T00:00:00	2024-11-08T06:00:00	4	Temperatura máxima	17.1
74659	7	Sololá	717	San Juan la Laguna	12	San Juan la Laguna	8	Agosto	2023-08-31T00:00:00	2024-11-08T06:00:00	3	Temperatura mínima	16.9
74660	7	Sololá	717	San Juan la Laguna	12	San Juan la Laguna	8	Agosto	2023-08-31T00:00:00	2024-11-08T06:00:00	5	Humedad	87
74661	7	Sololá	717	San Juan la Laguna	12	San Juan la Laguna	8	Agosto	2023-08-31T00:00:00	2024-11-08T06:00:00	6	Velocidad del viento	0
74662	7	Sololá	717	San Juan la Laguna	12	San Juan la Laguna	8	Agosto	2023-08-31T00:00:00	2024-11-08T06:00:00	7	Dirección del viento	0
74663	7	Sololá	717	San Juan la Laguna	12	San Juan la Laguna	8	Agosto	2023-08-31T00:00:00	2024-11-08T06:00:00	1	Precipitación	0
74664	7	Sololá	717	San Juan la Laguna	12	San Juan la Laguna	8	Agosto	2023-08-31T00:00:00	2024-11-08T06:00:00	8	Radiación solar	0
74665	7	Sololá	717	San Juan la Laguna	12	San Juan la Laguna	8	Agosto	2023-08-31T00:00:00	2024-11-08T07:00:00	2	Temperatura media	17.8
74666	7	Sololá	717	San Juan la Laguna	12	San Juan la Laguna	8	Agosto	2023-08-31T00:00:00	2024-11-08T07:00:00	4	Temperatura máxima	17.8
74667	7	Sololá	717	San Juan la Laguna	12	San Juan la Laguna	8	Agosto	2023-08-31T00:00:00	2024-11-08T07:00:00	3	Temperatura mínima	17
74668	7	Sololá	717	San Juan la Laguna	12	San Juan la Laguna	8	Agosto	2023-08-31T00:00:00	2024-11-08T07:00:00	5	Humedad	85
74669	7	Sololá	717	San Juan la Laguna	12	San Juan la Laguna	8	Agosto	2023-08-31T00:00:00	2024-11-08T07:00:00	6	Velocidad del viento	0
74670	7	Sololá	717	San Juan la Laguna	12	San Juan la Laguna	8	Agosto	2023-08-31T00:00:00	2024-11-08T07:00:00	7	Dirección del viento	0
74671	7	Sololá	717	San Juan la Laguna	12	San Juan la Laguna	8	Agosto	2023-08-31T00:00:00	2024-11-08T07:00:00	1	Precipitación	0
74672	7	Sololá	717	San Juan la Laguna	12	San Juan la Laguna	8	Agosto	2023-08-31T00:00:00	2024-11-08T07:00:00	8	Radiación solar	43
74673	7	Sololá	717	San Juan la Laguna	12	San Juan la Laguna	8	Agosto	2023-08-31T00:00:00	2024-11-08T08:00:00	2	Temperatura media	21.7
74674	7	Sololá	717	San Juan la Laguna	12	San Juan la Laguna	8	Agosto	2023-08-31T00:00:00	2024-11-08T08:00:00	4	Temperatura máxima	21.7
74675	7	Sololá	717	San Juan la Laguna	12	San Juan la Laguna	8	Agosto	2023-08-31T00:00:00	2024-11-08T08:00:00	3	Temperatura mínima	17.8
74676	7	Sololá	717	San Juan la Laguna	12	San Juan la Laguna	8	Agosto	2023-08-31T00:00:00	2024-11-08T08:00:00	5	Humedad	77
74677	7	Sololá	717	San Juan la Laguna	12	San Juan la Laguna	8	Agosto	2023-08-31T00:00:00	2024-11-08T08:00:00	6	Velocidad del viento	0
74678	7	Sololá	717	San Juan la Laguna	12	San Juan la Laguna	8	Agosto	2023-08-31T00:00:00	2024-11-08T08:00:00	7	Dirección del viento	0
74679	7	Sololá	717	San Juan la Laguna	12	San Juan la Laguna	8	Agosto	2023-08-31T00:00:00	2024-11-08T08:00:00	1	Precipitación	0
74680	7	Sololá	717	San Juan la Laguna	12	San Juan la Laguna	8	Agosto	2023-08-31T00:00:00	2024-11-08T08:00:00	8	Radiación solar	236
74681	7	Sololá	717	San Juan la Laguna	12	San Juan la Laguna	8	Agosto	2023-08-31T00:00:00	2024-11-08T09:00:00	2	Temperatura media	22.4
74682	7	Sololá	717	San Juan la Laguna	12	San Juan la Laguna	8	Agosto	2023-08-31T00:00:00	2024-11-08T09:00:00	4	Temperatura máxima	22.6
74683	7	Sololá	717	San Juan la Laguna	12	San Juan la Laguna	8	Agosto	2023-08-31T00:00:00	2024-11-08T09:00:00	3	Temperatura mínima	21.7
74684	7	Sololá	717	San Juan la Laguna	12	San Juan la Laguna	8	Agosto	2023-08-31T00:00:00	2024-11-08T09:00:00	5	Humedad	77
74685	7	Sololá	717	San Juan la Laguna	12	San Juan la Laguna	8	Agosto	2023-08-31T00:00:00	2024-11-08T09:00:00	6	Velocidad del viento	1.6
74686	7	Sololá	717	San Juan la Laguna	12	San Juan la Laguna	8	Agosto	2023-08-31T00:00:00	2024-11-08T09:00:00	7	Dirección del viento	1.61
74687	7	Sololá	717	San Juan la Laguna	12	San Juan la Laguna	8	Agosto	2023-08-31T00:00:00	2024-11-08T09:00:00	1	Precipitación	0
74688	7	Sololá	717	San Juan la Laguna	12	San Juan la Laguna	8	Agosto	2023-08-31T00:00:00	2024-11-08T09:00:00	8	Radiación solar	418
74689	7	Sololá	717	San Juan la Laguna	12	San Juan la Laguna	8	Agosto	2023-08-31T00:00:00	2024-11-08T10:00:00	2	Temperatura media	23.7
74690	7	Sololá	717	San Juan la Laguna	12	San Juan la Laguna	8	Agosto	2023-08-31T00:00:00	2024-11-08T10:00:00	4	Temperatura máxima	23.7
74691	7	Sololá	717	San Juan la Laguna	12	San Juan la Laguna	8	Agosto	2023-08-31T00:00:00	2024-11-08T10:00:00	3	Temperatura mínima	22.4
74692	7	Sololá	717	San Juan la Laguna	12	San Juan la Laguna	8	Agosto	2023-08-31T00:00:00	2024-11-08T10:00:00	5	Humedad	68
74693	7	Sololá	717	San Juan la Laguna	12	San Juan la Laguna	8	Agosto	2023-08-31T00:00:00	2024-11-08T10:00:00	6	Velocidad del viento	0
74694	7	Sololá	717	San Juan la Laguna	12	San Juan la Laguna	8	Agosto	2023-08-31T00:00:00	2024-11-08T10:00:00	7	Dirección del viento	0
74695	7	Sololá	717	San Juan la Laguna	12	San Juan la Laguna	8	Agosto	2023-08-31T00:00:00	2024-11-08T10:00:00	1	Precipitación	0
74696	7	Sololá	717	San Juan la Laguna	12	San Juan la Laguna	8	Agosto	2023-08-31T00:00:00	2024-11-08T10:00:00	8	Radiación solar	604
74697	7	Sololá	717	San Juan la Laguna	12	San Juan la Laguna	8	Agosto	2023-08-31T00:00:00	2024-11-08T11:00:00	2	Temperatura media	25.2
74698	7	Sololá	717	San Juan la Laguna	12	San Juan la Laguna	8	Agosto	2023-08-31T00:00:00	2024-11-08T11:00:00	4	Temperatura máxima	25.7
74699	7	Sololá	717	San Juan la Laguna	12	San Juan la Laguna	8	Agosto	2023-08-31T00:00:00	2024-11-08T11:00:00	3	Temperatura mínima	23.7
74700	7	Sololá	717	San Juan la Laguna	12	San Juan la Laguna	8	Agosto	2023-08-31T00:00:00	2024-11-08T11:00:00	5	Humedad	59
74701	7	Sololá	717	San Juan la Laguna	12	San Juan la Laguna	8	Agosto	2023-08-31T00:00:00	2024-11-08T11:00:00	6	Velocidad del viento	0
74702	7	Sololá	717	San Juan la Laguna	12	San Juan la Laguna	8	Agosto	2023-08-31T00:00:00	2024-11-08T11:00:00	7	Dirección del viento	0
74703	7	Sololá	717	San Juan la Laguna	12	San Juan la Laguna	8	Agosto	2023-08-31T00:00:00	2024-11-08T11:00:00	1	Precipitación	0
74704	7	Sololá	717	San Juan la Laguna	12	San Juan la Laguna	8	Agosto	2023-08-31T00:00:00	2024-11-08T11:00:00	8	Radiación solar	870
74705	7	Sololá	717	San Juan la Laguna	12	San Juan la Laguna	8	Agosto	2023-08-31T00:00:00	2024-11-08T12:00:00	2	Temperatura media	24.6
74706	7	Sololá	717	San Juan la Laguna	12	San Juan la Laguna	8	Agosto	2023-08-31T00:00:00	2024-11-08T12:00:00	4	Temperatura máxima	25.8
74707	7	Sololá	717	San Juan la Laguna	12	San Juan la Laguna	8	Agosto	2023-08-31T00:00:00	2024-11-08T12:00:00	3	Temperatura mínima	24.6
74708	7	Sololá	717	San Juan la Laguna	12	San Juan la Laguna	8	Agosto	2023-08-31T00:00:00	2024-11-08T12:00:00	5	Humedad	69
74709	7	Sololá	717	San Juan la Laguna	12	San Juan la Laguna	8	Agosto	2023-08-31T00:00:00	2024-11-08T12:00:00	6	Velocidad del viento	1.6
74710	7	Sololá	717	San Juan la Laguna	12	San Juan la Laguna	8	Agosto	2023-08-31T00:00:00	2024-11-08T12:00:00	7	Dirección del viento	1.61
74711	7	Sololá	717	San Juan la Laguna	12	San Juan la Laguna	8	Agosto	2023-08-31T00:00:00	2024-11-08T12:00:00	1	Precipitación	0
74712	7	Sololá	717	San Juan la Laguna	12	San Juan la Laguna	8	Agosto	2023-08-31T00:00:00	2024-11-08T12:00:00	8	Radiación solar	867
74713	7	Sololá	717	San Juan la Laguna	12	San Juan la Laguna	8	Agosto	2023-08-31T00:00:00	2024-11-08T13:00:00	2	Temperatura media	25.2
74714	7	Sololá	717	San Juan la Laguna	12	San Juan la Laguna	8	Agosto	2023-08-31T00:00:00	2024-11-08T13:00:00	4	Temperatura máxima	25.6
74715	7	Sololá	717	San Juan la Laguna	12	San Juan la Laguna	8	Agosto	2023-08-31T00:00:00	2024-11-08T13:00:00	3	Temperatura mínima	24.5
74716	7	Sololá	717	San Juan la Laguna	12	San Juan la Laguna	8	Agosto	2023-08-31T00:00:00	2024-11-08T13:00:00	5	Humedad	67
74717	7	Sololá	717	San Juan la Laguna	12	San Juan la Laguna	8	Agosto	2023-08-31T00:00:00	2024-11-08T13:00:00	6	Velocidad del viento	3.2
74718	7	Sololá	717	San Juan la Laguna	12	San Juan la Laguna	8	Agosto	2023-08-31T00:00:00	2024-11-08T13:00:00	7	Dirección del viento	3.22
74719	7	Sololá	717	San Juan la Laguna	12	San Juan la Laguna	8	Agosto	2023-08-31T00:00:00	2024-11-08T13:00:00	1	Precipitación	0
74720	7	Sololá	717	San Juan la Laguna	12	San Juan la Laguna	8	Agosto	2023-08-31T00:00:00	2024-11-08T13:00:00	8	Radiación solar	902
74721	7	Sololá	717	San Juan la Laguna	12	San Juan la Laguna	8	Agosto	2023-08-31T00:00:00	2024-11-08T14:00:00	2	Temperatura media	23.7
74722	7	Sololá	717	San Juan la Laguna	12	San Juan la Laguna	8	Agosto	2023-08-31T00:00:00	2024-11-08T14:00:00	4	Temperatura máxima	26
74723	7	Sololá	717	San Juan la Laguna	12	San Juan la Laguna	8	Agosto	2023-08-31T00:00:00	2024-11-08T14:00:00	3	Temperatura mínima	23.7
74724	7	Sololá	717	San Juan la Laguna	12	San Juan la Laguna	8	Agosto	2023-08-31T00:00:00	2024-11-08T14:00:00	5	Humedad	75
74725	7	Sololá	717	San Juan la Laguna	12	San Juan la Laguna	8	Agosto	2023-08-31T00:00:00	2024-11-08T14:00:00	6	Velocidad del viento	1.6
74726	7	Sololá	717	San Juan la Laguna	12	San Juan la Laguna	8	Agosto	2023-08-31T00:00:00	2024-11-08T14:00:00	7	Dirección del viento	1.61
74727	7	Sololá	717	San Juan la Laguna	12	San Juan la Laguna	8	Agosto	2023-08-31T00:00:00	2024-11-08T14:00:00	1	Precipitación	0
74728	7	Sololá	717	San Juan la Laguna	12	San Juan la Laguna	8	Agosto	2023-08-31T00:00:00	2024-11-08T14:00:00	8	Radiación solar	561
74729	7	Sololá	717	San Juan la Laguna	12	San Juan la Laguna	8	Agosto	2023-08-31T00:00:00	2024-11-08T15:00:00	2	Temperatura media	18.9
74730	7	Sololá	717	San Juan la Laguna	12	San Juan la Laguna	8	Agosto	2023-08-31T00:00:00	2024-11-08T15:00:00	4	Temperatura máxima	23.7
74731	7	Sololá	717	San Juan la Laguna	12	San Juan la Laguna	8	Agosto	2023-08-31T00:00:00	2024-11-08T15:00:00	3	Temperatura mínima	18.7
74732	7	Sololá	717	San Juan la Laguna	12	San Juan la Laguna	8	Agosto	2023-08-31T00:00:00	2024-11-08T15:00:00	5	Humedad	90
74733	7	Sololá	717	San Juan la Laguna	12	San Juan la Laguna	8	Agosto	2023-08-31T00:00:00	2024-11-08T15:00:00	6	Velocidad del viento	4.8
74734	7	Sololá	717	San Juan la Laguna	12	San Juan la Laguna	8	Agosto	2023-08-31T00:00:00	2024-11-08T15:00:00	7	Dirección del viento	4.83
74735	7	Sololá	717	San Juan la Laguna	12	San Juan la Laguna	8	Agosto	2023-08-31T00:00:00	2024-11-08T15:00:00	1	Precipitación	14.2
74736	7	Sololá	717	San Juan la Laguna	12	San Juan la Laguna	8	Agosto	2023-08-31T00:00:00	2024-11-08T15:00:00	8	Radiación solar	17
74737	7	Sololá	717	San Juan la Laguna	12	San Juan la Laguna	8	Agosto	2023-08-31T00:00:00	2024-11-08T16:00:00	2	Temperatura media	19.2
74738	7	Sololá	717	San Juan la Laguna	12	San Juan la Laguna	8	Agosto	2023-08-31T00:00:00	2024-11-08T16:00:00	4	Temperatura máxima	19.2
74739	7	Sololá	717	San Juan la Laguna	12	San Juan la Laguna	8	Agosto	2023-08-31T00:00:00	2024-11-08T16:00:00	3	Temperatura mínima	18.6
74740	7	Sololá	717	San Juan la Laguna	12	San Juan la Laguna	8	Agosto	2023-08-31T00:00:00	2024-11-08T16:00:00	5	Humedad	89
74741	7	Sololá	717	San Juan la Laguna	12	San Juan la Laguna	8	Agosto	2023-08-31T00:00:00	2024-11-08T16:00:00	6	Velocidad del viento	4.8
74742	7	Sololá	717	San Juan la Laguna	12	San Juan la Laguna	8	Agosto	2023-08-31T00:00:00	2024-11-08T16:00:00	7	Dirección del viento	4.83
74743	7	Sololá	717	San Juan la Laguna	12	San Juan la Laguna	8	Agosto	2023-08-31T00:00:00	2024-11-08T16:00:00	1	Precipitación	0.6
74744	7	Sololá	717	San Juan la Laguna	12	San Juan la Laguna	8	Agosto	2023-08-31T00:00:00	2024-11-08T16:00:00	8	Radiación solar	36
74745	7	Sololá	717	San Juan la Laguna	12	San Juan la Laguna	8	Agosto	2023-08-31T00:00:00	2024-11-08T17:00:00	2	Temperatura media	18.9
74746	7	Sololá	717	San Juan la Laguna	12	San Juan la Laguna	8	Agosto	2023-08-31T00:00:00	2024-11-08T17:00:00	4	Temperatura máxima	19.4
74747	7	Sololá	717	San Juan la Laguna	12	San Juan la Laguna	8	Agosto	2023-08-31T00:00:00	2024-11-08T17:00:00	3	Temperatura mínima	18.7
74748	7	Sololá	717	San Juan la Laguna	12	San Juan la Laguna	8	Agosto	2023-08-31T00:00:00	2024-11-08T17:00:00	5	Humedad	91
74749	7	Sololá	717	San Juan la Laguna	12	San Juan la Laguna	8	Agosto	2023-08-31T00:00:00	2024-11-08T17:00:00	6	Velocidad del viento	0
74750	7	Sololá	717	San Juan la Laguna	12	San Juan la Laguna	8	Agosto	2023-08-31T00:00:00	2024-11-08T17:00:00	7	Dirección del viento	0
74751	7	Sololá	717	San Juan la Laguna	12	San Juan la Laguna	8	Agosto	2023-08-31T00:00:00	2024-11-08T17:00:00	1	Precipitación	0
74752	7	Sololá	717	San Juan la Laguna	12	San Juan la Laguna	8	Agosto	2023-08-31T00:00:00	2024-11-08T17:00:00	8	Radiación solar	23
74753	7	Sololá	717	San Juan la Laguna	12	San Juan la Laguna	8	Agosto	2023-08-31T00:00:00	2024-11-08T18:00:00	2	Temperatura media	19.1
74754	7	Sololá	717	San Juan la Laguna	12	San Juan la Laguna	8	Agosto	2023-08-31T00:00:00	2024-11-08T18:00:00	4	Temperatura máxima	19.3
74755	7	Sololá	717	San Juan la Laguna	12	San Juan la Laguna	8	Agosto	2023-08-31T00:00:00	2024-11-08T18:00:00	3	Temperatura mínima	18.8
74756	7	Sololá	717	San Juan la Laguna	12	San Juan la Laguna	8	Agosto	2023-08-31T00:00:00	2024-11-08T18:00:00	5	Humedad	86
74757	7	Sololá	717	San Juan la Laguna	12	San Juan la Laguna	8	Agosto	2023-08-31T00:00:00	2024-11-08T18:00:00	6	Velocidad del viento	4.8
74758	7	Sololá	717	San Juan la Laguna	12	San Juan la Laguna	8	Agosto	2023-08-31T00:00:00	2024-11-08T18:00:00	7	Dirección del viento	4.83
74759	7	Sololá	717	San Juan la Laguna	12	San Juan la Laguna	8	Agosto	2023-08-31T00:00:00	2024-11-08T18:00:00	1	Precipitación	0
74760	7	Sololá	717	San Juan la Laguna	12	San Juan la Laguna	8	Agosto	2023-08-31T00:00:00	2024-11-08T18:00:00	8	Radiación solar	1
74761	7	Sololá	717	San Juan la Laguna	12	San Juan la Laguna	8	Agosto	2023-08-31T00:00:00	2024-11-08T19:00:00	2	Temperatura media	18.3
74762	7	Sololá	717	San Juan la Laguna	12	San Juan la Laguna	8	Agosto	2023-08-31T00:00:00	2024-11-08T19:00:00	4	Temperatura máxima	19.2
74763	7	Sololá	717	San Juan la Laguna	12	San Juan la Laguna	8	Agosto	2023-08-31T00:00:00	2024-11-08T19:00:00	3	Temperatura mínima	18.3
74764	7	Sololá	717	San Juan la Laguna	12	San Juan la Laguna	8	Agosto	2023-08-31T00:00:00	2024-11-08T19:00:00	5	Humedad	89
74765	7	Sololá	717	San Juan la Laguna	12	San Juan la Laguna	8	Agosto	2023-08-31T00:00:00	2024-11-08T19:00:00	6	Velocidad del viento	3.2
74766	7	Sololá	717	San Juan la Laguna	12	San Juan la Laguna	8	Agosto	2023-08-31T00:00:00	2024-11-08T19:00:00	7	Dirección del viento	3.22
74767	7	Sololá	717	San Juan la Laguna	12	San Juan la Laguna	8	Agosto	2023-08-31T00:00:00	2024-11-08T19:00:00	1	Precipitación	0.2
74768	7	Sololá	717	San Juan la Laguna	12	San Juan la Laguna	8	Agosto	2023-08-31T00:00:00	2024-11-08T19:00:00	8	Radiación solar	0
74769	7	Sololá	717	San Juan la Laguna	12	San Juan la Laguna	8	Agosto	2023-08-31T00:00:00	2024-11-08T20:00:00	2	Temperatura media	17.5
74770	7	Sololá	717	San Juan la Laguna	12	San Juan la Laguna	8	Agosto	2023-08-31T00:00:00	2024-11-08T20:00:00	4	Temperatura máxima	18.3
74771	7	Sololá	717	San Juan la Laguna	12	San Juan la Laguna	8	Agosto	2023-08-31T00:00:00	2024-11-08T20:00:00	3	Temperatura mínima	17.5
74772	7	Sololá	717	San Juan la Laguna	12	San Juan la Laguna	8	Agosto	2023-08-31T00:00:00	2024-11-08T20:00:00	5	Humedad	92
74773	7	Sololá	717	San Juan la Laguna	12	San Juan la Laguna	8	Agosto	2023-08-31T00:00:00	2024-11-08T20:00:00	6	Velocidad del viento	3.2
74774	7	Sololá	717	San Juan la Laguna	12	San Juan la Laguna	8	Agosto	2023-08-31T00:00:00	2024-11-08T20:00:00	7	Dirección del viento	3.22
74775	7	Sololá	717	San Juan la Laguna	12	San Juan la Laguna	8	Agosto	2023-08-31T00:00:00	2024-11-08T20:00:00	1	Precipitación	2.2
74776	7	Sololá	717	San Juan la Laguna	12	San Juan la Laguna	8	Agosto	2023-08-31T00:00:00	2024-11-08T20:00:00	8	Radiación solar	0
74777	7	Sololá	717	San Juan la Laguna	12	San Juan la Laguna	8	Agosto	2023-08-31T00:00:00	2024-11-08T21:00:00	2	Temperatura media	17.7
74778	7	Sololá	717	San Juan la Laguna	12	San Juan la Laguna	8	Agosto	2023-08-31T00:00:00	2024-11-08T21:00:00	4	Temperatura máxima	17.8
74779	7	Sololá	717	San Juan la Laguna	12	San Juan la Laguna	8	Agosto	2023-08-31T00:00:00	2024-11-08T21:00:00	3	Temperatura mínima	17.3
74780	7	Sololá	717	San Juan la Laguna	12	San Juan la Laguna	8	Agosto	2023-08-31T00:00:00	2024-11-08T21:00:00	5	Humedad	90
74781	7	Sololá	717	San Juan la Laguna	12	San Juan la Laguna	8	Agosto	2023-08-31T00:00:00	2024-11-08T21:00:00	6	Velocidad del viento	4.8
74782	7	Sololá	717	San Juan la Laguna	12	San Juan la Laguna	8	Agosto	2023-08-31T00:00:00	2024-11-08T21:00:00	7	Dirección del viento	4.83
74783	7	Sololá	717	San Juan la Laguna	12	San Juan la Laguna	8	Agosto	2023-08-31T00:00:00	2024-11-08T21:00:00	1	Precipitación	0.2
74784	7	Sololá	717	San Juan la Laguna	12	San Juan la Laguna	8	Agosto	2023-08-31T00:00:00	2024-11-08T21:00:00	8	Radiación solar	0
74785	7	Sololá	717	San Juan la Laguna	12	San Juan la Laguna	8	Agosto	2023-08-31T00:00:00	2024-11-08T22:00:00	2	Temperatura media	17
74786	7	Sololá	717	San Juan la Laguna	12	San Juan la Laguna	8	Agosto	2023-08-31T00:00:00	2024-11-08T22:00:00	4	Temperatura máxima	17.7
74787	7	Sololá	717	San Juan la Laguna	12	San Juan la Laguna	8	Agosto	2023-08-31T00:00:00	2024-11-08T22:00:00	3	Temperatura mínima	17
74788	7	Sololá	717	San Juan la Laguna	12	San Juan la Laguna	8	Agosto	2023-08-31T00:00:00	2024-11-08T22:00:00	5	Humedad	90
74789	7	Sololá	717	San Juan la Laguna	12	San Juan la Laguna	8	Agosto	2023-08-31T00:00:00	2024-11-08T22:00:00	6	Velocidad del viento	4.8
74790	7	Sololá	717	San Juan la Laguna	12	San Juan la Laguna	8	Agosto	2023-08-31T00:00:00	2024-11-08T22:00:00	7	Dirección del viento	4.83
74791	7	Sololá	717	San Juan la Laguna	12	San Juan la Laguna	8	Agosto	2023-08-31T00:00:00	2024-11-08T22:00:00	1	Precipitación	0
74792	7	Sololá	717	San Juan la Laguna	12	San Juan la Laguna	8	Agosto	2023-08-31T00:00:00	2024-11-08T22:00:00	8	Radiación solar	0
74793	7	Sololá	717	San Juan la Laguna	12	San Juan la Laguna	8	Agosto	2023-08-31T00:00:00	2024-11-08T23:00:00	2	Temperatura media	17.8
74794	7	Sololá	717	San Juan la Laguna	12	San Juan la Laguna	8	Agosto	2023-08-31T00:00:00	2024-11-08T23:00:00	4	Temperatura máxima	17.8
74795	7	Sololá	717	San Juan la Laguna	12	San Juan la Laguna	8	Agosto	2023-08-31T00:00:00	2024-11-08T23:00:00	3	Temperatura mínima	17
74796	7	Sololá	717	San Juan la Laguna	12	San Juan la Laguna	8	Agosto	2023-08-31T00:00:00	2024-11-08T23:00:00	5	Humedad	89
74797	7	Sololá	717	San Juan la Laguna	12	San Juan la Laguna	8	Agosto	2023-08-31T00:00:00	2024-11-08T23:00:00	6	Velocidad del viento	6.4
74798	7	Sololá	717	San Juan la Laguna	12	San Juan la Laguna	8	Agosto	2023-08-31T00:00:00	2024-11-08T23:00:00	7	Dirección del viento	6.44
74799	7	Sololá	717	San Juan la Laguna	12	San Juan la Laguna	8	Agosto	2023-08-31T00:00:00	2024-11-08T23:00:00	1	Precipitación	0
74800	7	Sololá	717	San Juan la Laguna	12	San Juan la Laguna	8	Agosto	2023-08-31T00:00:00	2024-11-08T23:00:00	8	Radiación solar	0
74801	7	Sololá	717	San Juan la Laguna	12	San Juan la Laguna	9	Septiembre	2023-01-09T00:00:00	2024-11-08T00:00:00	2	Temperatura media	17.4
74802	7	Sololá	717	San Juan la Laguna	12	San Juan la Laguna	9	Septiembre	2023-01-09T00:00:00	2024-11-08T00:00:00	4	Temperatura máxima	17.8
74803	7	Sololá	717	San Juan la Laguna	12	San Juan la Laguna	9	Septiembre	2023-01-09T00:00:00	2024-11-08T00:00:00	3	Temperatura mínima	17.3
74804	7	Sololá	717	San Juan la Laguna	12	San Juan la Laguna	9	Septiembre	2023-01-09T00:00:00	2024-11-08T00:00:00	5	Humedad	91
74805	7	Sololá	717	San Juan la Laguna	12	San Juan la Laguna	9	Septiembre	2023-01-09T00:00:00	2024-11-08T00:00:00	6	Velocidad del viento	3.2
74806	7	Sololá	717	San Juan la Laguna	12	San Juan la Laguna	9	Septiembre	2023-01-09T00:00:00	2024-11-08T00:00:00	7	Dirección del viento	3.22
74807	7	Sololá	717	San Juan la Laguna	12	San Juan la Laguna	9	Septiembre	2023-01-09T00:00:00	2024-11-08T00:00:00	1	Precipitación	0
74808	7	Sololá	717	San Juan la Laguna	12	San Juan la Laguna	9	Septiembre	2023-01-09T00:00:00	2024-11-08T00:00:00	8	Radiación solar	0
74809	7	Sololá	717	San Juan la Laguna	12	San Juan la Laguna	9	Septiembre	2023-01-09T00:00:00	2024-11-08T01:00:00	2	Temperatura media	18.1
74810	7	Sololá	717	San Juan la Laguna	12	San Juan la Laguna	9	Septiembre	2023-01-09T00:00:00	2024-11-08T01:00:00	4	Temperatura máxima	18.2
74811	7	Sololá	717	San Juan la Laguna	12	San Juan la Laguna	9	Septiembre	2023-01-09T00:00:00	2024-11-08T01:00:00	3	Temperatura mínima	17.3
74812	7	Sololá	717	San Juan la Laguna	12	San Juan la Laguna	9	Septiembre	2023-01-09T00:00:00	2024-11-08T01:00:00	5	Humedad	86
74813	7	Sololá	717	San Juan la Laguna	12	San Juan la Laguna	9	Septiembre	2023-01-09T00:00:00	2024-11-08T01:00:00	6	Velocidad del viento	4.8
74814	7	Sololá	717	San Juan la Laguna	12	San Juan la Laguna	9	Septiembre	2023-01-09T00:00:00	2024-11-08T01:00:00	7	Dirección del viento	4.83
74815	7	Sololá	717	San Juan la Laguna	12	San Juan la Laguna	9	Septiembre	2023-01-09T00:00:00	2024-11-08T01:00:00	1	Precipitación	0
74816	7	Sololá	717	San Juan la Laguna	12	San Juan la Laguna	9	Septiembre	2023-01-09T00:00:00	2024-11-08T01:00:00	8	Radiación solar	0
74817	7	Sololá	717	San Juan la Laguna	12	San Juan la Laguna	9	Septiembre	2023-01-09T00:00:00	2024-11-08T02:00:00	2	Temperatura media	16.9
74818	7	Sololá	717	San Juan la Laguna	12	San Juan la Laguna	9	Septiembre	2023-01-09T00:00:00	2024-11-08T02:00:00	4	Temperatura máxima	18.1
74819	7	Sololá	717	San Juan la Laguna	12	San Juan la Laguna	9	Septiembre	2023-01-09T00:00:00	2024-11-08T02:00:00	3	Temperatura mínima	16.9
74820	7	Sololá	717	San Juan la Laguna	12	San Juan la Laguna	9	Septiembre	2023-01-09T00:00:00	2024-11-08T02:00:00	5	Humedad	87
74821	7	Sololá	717	San Juan la Laguna	12	San Juan la Laguna	9	Septiembre	2023-01-09T00:00:00	2024-11-08T02:00:00	6	Velocidad del viento	0
74822	7	Sololá	717	San Juan la Laguna	12	San Juan la Laguna	9	Septiembre	2023-01-09T00:00:00	2024-11-08T02:00:00	7	Dirección del viento	0
74823	7	Sololá	717	San Juan la Laguna	12	San Juan la Laguna	9	Septiembre	2023-01-09T00:00:00	2024-11-08T02:00:00	1	Precipitación	0
74824	7	Sololá	717	San Juan la Laguna	12	San Juan la Laguna	9	Septiembre	2023-01-09T00:00:00	2024-11-08T02:00:00	8	Radiación solar	0
74825	7	Sololá	717	San Juan la Laguna	12	San Juan la Laguna	9	Septiembre	2023-01-09T00:00:00	2024-11-08T03:00:00	2	Temperatura media	16.6
74826	7	Sololá	717	San Juan la Laguna	12	San Juan la Laguna	9	Septiembre	2023-01-09T00:00:00	2024-11-08T03:00:00	4	Temperatura máxima	16.9
74827	7	Sololá	717	San Juan la Laguna	12	San Juan la Laguna	9	Septiembre	2023-01-09T00:00:00	2024-11-08T03:00:00	3	Temperatura mínima	16.5
74828	7	Sololá	717	San Juan la Laguna	12	San Juan la Laguna	9	Septiembre	2023-01-09T00:00:00	2024-11-08T03:00:00	5	Humedad	86
74829	7	Sololá	717	San Juan la Laguna	12	San Juan la Laguna	9	Septiembre	2023-01-09T00:00:00	2024-11-08T03:00:00	6	Velocidad del viento	3.2
74830	7	Sololá	717	San Juan la Laguna	12	San Juan la Laguna	9	Septiembre	2023-01-09T00:00:00	2024-11-08T03:00:00	7	Dirección del viento	3.22
74831	7	Sololá	717	San Juan la Laguna	12	San Juan la Laguna	9	Septiembre	2023-01-09T00:00:00	2024-11-08T03:00:00	1	Precipitación	0
74832	7	Sololá	717	San Juan la Laguna	12	San Juan la Laguna	9	Septiembre	2023-01-09T00:00:00	2024-11-08T03:00:00	8	Radiación solar	0
74833	7	Sololá	717	San Juan la Laguna	12	San Juan la Laguna	9	Septiembre	2023-01-09T00:00:00	2024-11-08T04:00:00	2	Temperatura media	17.1
74834	7	Sololá	717	San Juan la Laguna	12	San Juan la Laguna	9	Septiembre	2023-01-09T00:00:00	2024-11-08T04:00:00	4	Temperatura máxima	17.1
74835	7	Sololá	717	San Juan la Laguna	12	San Juan la Laguna	9	Septiembre	2023-01-09T00:00:00	2024-11-08T04:00:00	3	Temperatura mínima	16.5
74836	7	Sololá	717	San Juan la Laguna	12	San Juan la Laguna	9	Septiembre	2023-01-09T00:00:00	2024-11-08T04:00:00	5	Humedad	81
74837	7	Sololá	717	San Juan la Laguna	12	San Juan la Laguna	9	Septiembre	2023-01-09T00:00:00	2024-11-08T04:00:00	6	Velocidad del viento	6.4
74838	7	Sololá	717	San Juan la Laguna	12	San Juan la Laguna	9	Septiembre	2023-01-09T00:00:00	2024-11-08T04:00:00	7	Dirección del viento	6.44
74839	7	Sololá	717	San Juan la Laguna	12	San Juan la Laguna	9	Septiembre	2023-01-09T00:00:00	2024-11-08T04:00:00	1	Precipitación	0
74840	7	Sololá	717	San Juan la Laguna	12	San Juan la Laguna	9	Septiembre	2023-01-09T00:00:00	2024-11-08T04:00:00	8	Radiación solar	0
74841	7	Sololá	717	San Juan la Laguna	12	San Juan la Laguna	9	Septiembre	2023-01-09T00:00:00	2024-11-08T05:00:00	2	Temperatura media	15.6
74842	7	Sololá	717	San Juan la Laguna	12	San Juan la Laguna	9	Septiembre	2023-01-09T00:00:00	2024-11-08T05:00:00	4	Temperatura máxima	17.2
74843	7	Sololá	717	San Juan la Laguna	12	San Juan la Laguna	9	Septiembre	2023-01-09T00:00:00	2024-11-08T05:00:00	3	Temperatura mínima	15.6
74844	7	Sololá	717	San Juan la Laguna	12	San Juan la Laguna	9	Septiembre	2023-01-09T00:00:00	2024-11-08T05:00:00	5	Humedad	87
74845	7	Sololá	717	San Juan la Laguna	12	San Juan la Laguna	9	Septiembre	2023-01-09T00:00:00	2024-11-08T05:00:00	6	Velocidad del viento	0
74846	7	Sololá	717	San Juan la Laguna	12	San Juan la Laguna	9	Septiembre	2023-01-09T00:00:00	2024-11-08T05:00:00	7	Dirección del viento	0
74847	7	Sololá	717	San Juan la Laguna	12	San Juan la Laguna	9	Septiembre	2023-01-09T00:00:00	2024-11-08T05:00:00	1	Precipitación	0
74848	7	Sololá	717	San Juan la Laguna	12	San Juan la Laguna	9	Septiembre	2023-01-09T00:00:00	2024-11-08T05:00:00	8	Radiación solar	0
74849	7	Sololá	717	San Juan la Laguna	12	San Juan la Laguna	9	Septiembre	2023-01-09T00:00:00	2024-11-08T06:00:00	2	Temperatura media	15.4
74850	7	Sololá	717	San Juan la Laguna	12	San Juan la Laguna	9	Septiembre	2023-01-09T00:00:00	2024-11-08T06:00:00	4	Temperatura máxima	15.7
74851	7	Sololá	717	San Juan la Laguna	12	San Juan la Laguna	9	Septiembre	2023-01-09T00:00:00	2024-11-08T06:00:00	3	Temperatura mínima	15.3
74852	7	Sololá	717	San Juan la Laguna	12	San Juan la Laguna	9	Septiembre	2023-01-09T00:00:00	2024-11-08T06:00:00	5	Humedad	86
74853	7	Sololá	717	San Juan la Laguna	12	San Juan la Laguna	9	Septiembre	2023-01-09T00:00:00	2024-11-08T06:00:00	6	Velocidad del viento	0
74854	7	Sololá	717	San Juan la Laguna	12	San Juan la Laguna	9	Septiembre	2023-01-09T00:00:00	2024-11-08T06:00:00	7	Dirección del viento	0
74855	7	Sololá	717	San Juan la Laguna	12	San Juan la Laguna	9	Septiembre	2023-01-09T00:00:00	2024-11-08T06:00:00	1	Precipitación	0
74856	7	Sololá	717	San Juan la Laguna	12	San Juan la Laguna	9	Septiembre	2023-01-09T00:00:00	2024-11-08T06:00:00	8	Radiación solar	0
74857	7	Sololá	717	San Juan la Laguna	12	San Juan la Laguna	9	Septiembre	2023-01-09T00:00:00	2024-11-08T07:00:00	2	Temperatura media	17.1
74858	7	Sololá	717	San Juan la Laguna	12	San Juan la Laguna	9	Septiembre	2023-01-09T00:00:00	2024-11-08T07:00:00	4	Temperatura máxima	17.1
74859	7	Sololá	717	San Juan la Laguna	12	San Juan la Laguna	9	Septiembre	2023-01-09T00:00:00	2024-11-08T07:00:00	3	Temperatura mínima	15.2
74860	7	Sololá	717	San Juan la Laguna	12	San Juan la Laguna	9	Septiembre	2023-01-09T00:00:00	2024-11-08T07:00:00	5	Humedad	85
74861	7	Sololá	717	San Juan la Laguna	12	San Juan la Laguna	9	Septiembre	2023-01-09T00:00:00	2024-11-08T07:00:00	6	Velocidad del viento	0
74862	7	Sololá	717	San Juan la Laguna	12	San Juan la Laguna	9	Septiembre	2023-01-09T00:00:00	2024-11-08T07:00:00	7	Dirección del viento	0
74863	7	Sololá	717	San Juan la Laguna	12	San Juan la Laguna	9	Septiembre	2023-01-09T00:00:00	2024-11-08T07:00:00	1	Precipitación	0
74864	7	Sololá	717	San Juan la Laguna	12	San Juan la Laguna	9	Septiembre	2023-01-09T00:00:00	2024-11-08T07:00:00	8	Radiación solar	65
74865	7	Sololá	717	San Juan la Laguna	12	San Juan la Laguna	9	Septiembre	2023-01-09T00:00:00	2024-11-08T08:00:00	2	Temperatura media	21.6
74866	7	Sololá	717	San Juan la Laguna	12	San Juan la Laguna	9	Septiembre	2023-01-09T00:00:00	2024-11-08T08:00:00	4	Temperatura máxima	21.6
74867	7	Sololá	717	San Juan la Laguna	12	San Juan la Laguna	9	Septiembre	2023-01-09T00:00:00	2024-11-08T08:00:00	3	Temperatura mínima	17.1
74868	7	Sololá	717	San Juan la Laguna	12	San Juan la Laguna	9	Septiembre	2023-01-09T00:00:00	2024-11-08T08:00:00	5	Humedad	73
74869	7	Sololá	717	San Juan la Laguna	12	San Juan la Laguna	9	Septiembre	2023-01-09T00:00:00	2024-11-08T08:00:00	6	Velocidad del viento	0
74870	7	Sololá	717	San Juan la Laguna	12	San Juan la Laguna	9	Septiembre	2023-01-09T00:00:00	2024-11-08T08:00:00	7	Dirección del viento	0
74871	7	Sololá	717	San Juan la Laguna	12	San Juan la Laguna	9	Septiembre	2023-01-09T00:00:00	2024-11-08T08:00:00	1	Precipitación	0
74872	7	Sololá	717	San Juan la Laguna	12	San Juan la Laguna	9	Septiembre	2023-01-09T00:00:00	2024-11-08T08:00:00	8	Radiación solar	224
74873	7	Sololá	717	San Juan la Laguna	12	San Juan la Laguna	9	Septiembre	2023-01-09T00:00:00	2024-11-08T09:00:00	2	Temperatura media	23.5
74874	7	Sololá	717	San Juan la Laguna	12	San Juan la Laguna	9	Septiembre	2023-01-09T00:00:00	2024-11-08T09:00:00	4	Temperatura máxima	23.6
74875	7	Sololá	717	San Juan la Laguna	12	San Juan la Laguna	9	Septiembre	2023-01-09T00:00:00	2024-11-08T09:00:00	3	Temperatura mínima	21.6
74876	7	Sololá	717	San Juan la Laguna	12	San Juan la Laguna	9	Septiembre	2023-01-09T00:00:00	2024-11-08T09:00:00	5	Humedad	61
74877	7	Sololá	717	San Juan la Laguna	12	San Juan la Laguna	9	Septiembre	2023-01-09T00:00:00	2024-11-08T09:00:00	6	Velocidad del viento	0
74878	7	Sololá	717	San Juan la Laguna	12	San Juan la Laguna	9	Septiembre	2023-01-09T00:00:00	2024-11-08T09:00:00	7	Dirección del viento	0
74879	7	Sololá	717	San Juan la Laguna	12	San Juan la Laguna	9	Septiembre	2023-01-09T00:00:00	2024-11-08T09:00:00	1	Precipitación	0
74880	7	Sololá	717	San Juan la Laguna	12	San Juan la Laguna	9	Septiembre	2023-01-09T00:00:00	2024-11-08T09:00:00	8	Radiación solar	440
74881	7	Sololá	717	San Juan la Laguna	12	San Juan la Laguna	9	Septiembre	2023-01-09T00:00:00	2024-11-08T10:00:00	2	Temperatura media	26.4
74882	7	Sololá	717	San Juan la Laguna	12	San Juan la Laguna	9	Septiembre	2023-01-09T00:00:00	2024-11-08T10:00:00	4	Temperatura máxima	26.4
74883	7	Sololá	717	San Juan la Laguna	12	San Juan la Laguna	9	Septiembre	2023-01-09T00:00:00	2024-11-08T10:00:00	3	Temperatura mínima	23.5
74884	7	Sololá	717	San Juan la Laguna	12	San Juan la Laguna	9	Septiembre	2023-01-09T00:00:00	2024-11-08T10:00:00	5	Humedad	51
74885	7	Sololá	717	San Juan la Laguna	12	San Juan la Laguna	9	Septiembre	2023-01-09T00:00:00	2024-11-08T10:00:00	6	Velocidad del viento	1.6
74886	7	Sololá	717	San Juan la Laguna	12	San Juan la Laguna	9	Septiembre	2023-01-09T00:00:00	2024-11-08T10:00:00	7	Dirección del viento	1.61
74887	7	Sololá	717	San Juan la Laguna	12	San Juan la Laguna	9	Septiembre	2023-01-09T00:00:00	2024-11-08T10:00:00	1	Precipitación	0
74888	7	Sololá	717	San Juan la Laguna	12	San Juan la Laguna	9	Septiembre	2023-01-09T00:00:00	2024-11-08T10:00:00	8	Radiación solar	681
74889	7	Sololá	717	San Juan la Laguna	12	San Juan la Laguna	9	Septiembre	2023-01-09T00:00:00	2024-11-08T11:00:00	2	Temperatura media	27.3
74890	7	Sololá	717	San Juan la Laguna	12	San Juan la Laguna	9	Septiembre	2023-01-09T00:00:00	2024-11-08T11:00:00	4	Temperatura máxima	27.3
74891	7	Sololá	717	San Juan la Laguna	12	San Juan la Laguna	9	Septiembre	2023-01-09T00:00:00	2024-11-08T11:00:00	3	Temperatura mínima	26.2
74892	7	Sololá	717	San Juan la Laguna	12	San Juan la Laguna	9	Septiembre	2023-01-09T00:00:00	2024-11-08T11:00:00	5	Humedad	46
74893	7	Sololá	717	San Juan la Laguna	12	San Juan la Laguna	9	Septiembre	2023-01-09T00:00:00	2024-11-08T11:00:00	6	Velocidad del viento	4.8
74894	7	Sololá	717	San Juan la Laguna	12	San Juan la Laguna	9	Septiembre	2023-01-09T00:00:00	2024-11-08T11:00:00	7	Dirección del viento	4.83
74895	7	Sololá	717	San Juan la Laguna	12	San Juan la Laguna	9	Septiembre	2023-01-09T00:00:00	2024-11-08T11:00:00	1	Precipitación	0
74896	7	Sololá	717	San Juan la Laguna	12	San Juan la Laguna	9	Septiembre	2023-01-09T00:00:00	2024-11-08T11:00:00	8	Radiación solar	859
74897	7	Sololá	717	San Juan la Laguna	12	San Juan la Laguna	9	Septiembre	2023-01-09T00:00:00	2024-11-08T12:00:00	2	Temperatura media	28.3
74898	7	Sololá	717	San Juan la Laguna	12	San Juan la Laguna	9	Septiembre	2023-01-09T00:00:00	2024-11-08T12:00:00	4	Temperatura máxima	28.3
74899	7	Sololá	717	San Juan la Laguna	12	San Juan la Laguna	9	Septiembre	2023-01-09T00:00:00	2024-11-08T12:00:00	3	Temperatura mínima	27.3
74900	7	Sololá	717	San Juan la Laguna	12	San Juan la Laguna	9	Septiembre	2023-01-09T00:00:00	2024-11-08T12:00:00	5	Humedad	43
74901	7	Sololá	717	San Juan la Laguna	12	San Juan la Laguna	9	Septiembre	2023-01-09T00:00:00	2024-11-08T12:00:00	6	Velocidad del viento	1.6
74902	7	Sololá	717	San Juan la Laguna	12	San Juan la Laguna	9	Septiembre	2023-01-09T00:00:00	2024-11-08T12:00:00	7	Dirección del viento	1.61
74903	7	Sololá	717	San Juan la Laguna	12	San Juan la Laguna	9	Septiembre	2023-01-09T00:00:00	2024-11-08T12:00:00	1	Precipitación	0
74904	7	Sololá	717	San Juan la Laguna	12	San Juan la Laguna	9	Septiembre	2023-01-09T00:00:00	2024-11-08T12:00:00	8	Radiación solar	942
74905	7	Sololá	717	San Juan la Laguna	12	San Juan la Laguna	9	Septiembre	2023-01-09T00:00:00	2024-11-08T13:00:00	2	Temperatura media	26.3
74906	7	Sololá	717	San Juan la Laguna	12	San Juan la Laguna	9	Septiembre	2023-01-09T00:00:00	2024-11-08T13:00:00	4	Temperatura máxima	29.1
74907	7	Sololá	717	San Juan la Laguna	12	San Juan la Laguna	9	Septiembre	2023-01-09T00:00:00	2024-11-08T13:00:00	3	Temperatura mínima	26.3
74908	7	Sololá	717	San Juan la Laguna	12	San Juan la Laguna	9	Septiembre	2023-01-09T00:00:00	2024-11-08T13:00:00	5	Humedad	63
74909	7	Sololá	717	San Juan la Laguna	12	San Juan la Laguna	9	Septiembre	2023-01-09T00:00:00	2024-11-08T13:00:00	6	Velocidad del viento	1.6
74910	7	Sololá	717	San Juan la Laguna	12	San Juan la Laguna	9	Septiembre	2023-01-09T00:00:00	2024-11-08T13:00:00	7	Dirección del viento	1.61
74911	7	Sololá	717	San Juan la Laguna	12	San Juan la Laguna	9	Septiembre	2023-01-09T00:00:00	2024-11-08T13:00:00	1	Precipitación	0
74912	7	Sololá	717	San Juan la Laguna	12	San Juan la Laguna	9	Septiembre	2023-01-09T00:00:00	2024-11-08T13:00:00	8	Radiación solar	973
74913	7	Sololá	717	San Juan la Laguna	12	San Juan la Laguna	9	Septiembre	2023-01-09T00:00:00	2024-11-08T14:00:00	2	Temperatura media	25.5
74914	7	Sololá	717	San Juan la Laguna	12	San Juan la Laguna	9	Septiembre	2023-01-09T00:00:00	2024-11-08T14:00:00	4	Temperatura máxima	26.2
74915	7	Sololá	717	San Juan la Laguna	12	San Juan la Laguna	9	Septiembre	2023-01-09T00:00:00	2024-11-08T14:00:00	3	Temperatura mínima	25.3
74916	7	Sololá	717	San Juan la Laguna	12	San Juan la Laguna	9	Septiembre	2023-01-09T00:00:00	2024-11-08T14:00:00	5	Humedad	69
74917	7	Sololá	717	San Juan la Laguna	12	San Juan la Laguna	9	Septiembre	2023-01-09T00:00:00	2024-11-08T14:00:00	6	Velocidad del viento	9.7
74918	7	Sololá	717	San Juan la Laguna	12	San Juan la Laguna	9	Septiembre	2023-01-09T00:00:00	2024-11-08T14:00:00	7	Dirección del viento	9.66
74919	7	Sololá	717	San Juan la Laguna	12	San Juan la Laguna	9	Septiembre	2023-01-09T00:00:00	2024-11-08T14:00:00	1	Precipitación	0
74920	7	Sololá	717	San Juan la Laguna	12	San Juan la Laguna	9	Septiembre	2023-01-09T00:00:00	2024-11-08T14:00:00	8	Radiación solar	942
74921	7	Sololá	717	San Juan la Laguna	12	San Juan la Laguna	9	Septiembre	2023-01-09T00:00:00	2024-11-08T15:00:00	2	Temperatura media	25.3
74922	7	Sololá	717	San Juan la Laguna	12	San Juan la Laguna	9	Septiembre	2023-01-09T00:00:00	2024-11-08T15:00:00	4	Temperatura máxima	25.8
74923	7	Sololá	717	San Juan la Laguna	12	San Juan la Laguna	9	Septiembre	2023-01-09T00:00:00	2024-11-08T15:00:00	3	Temperatura mínima	24.7
74924	7	Sololá	717	San Juan la Laguna	12	San Juan la Laguna	9	Septiembre	2023-01-09T00:00:00	2024-11-08T15:00:00	5	Humedad	70
74925	7	Sololá	717	San Juan la Laguna	12	San Juan la Laguna	9	Septiembre	2023-01-09T00:00:00	2024-11-08T15:00:00	6	Velocidad del viento	4.8
74926	7	Sololá	717	San Juan la Laguna	12	San Juan la Laguna	9	Septiembre	2023-01-09T00:00:00	2024-11-08T15:00:00	7	Dirección del viento	4.83
74927	7	Sololá	717	San Juan la Laguna	12	San Juan la Laguna	9	Septiembre	2023-01-09T00:00:00	2024-11-08T15:00:00	1	Precipitación	0
74928	7	Sololá	717	San Juan la Laguna	12	San Juan la Laguna	9	Septiembre	2023-01-09T00:00:00	2024-11-08T15:00:00	8	Radiación solar	728
74929	7	Sololá	717	San Juan la Laguna	12	San Juan la Laguna	9	Septiembre	2023-01-09T00:00:00	2024-11-08T16:00:00	2	Temperatura media	23.3
74930	7	Sololá	717	San Juan la Laguna	12	San Juan la Laguna	9	Septiembre	2023-01-09T00:00:00	2024-11-08T16:00:00	4	Temperatura máxima	25.6
74931	7	Sololá	717	San Juan la Laguna	12	San Juan la Laguna	9	Septiembre	2023-01-09T00:00:00	2024-11-08T16:00:00	3	Temperatura mínima	23.2
74932	7	Sololá	717	San Juan la Laguna	12	San Juan la Laguna	9	Septiembre	2023-01-09T00:00:00	2024-11-08T16:00:00	5	Humedad	78
74933	7	Sololá	717	San Juan la Laguna	12	San Juan la Laguna	9	Septiembre	2023-01-09T00:00:00	2024-11-08T16:00:00	6	Velocidad del viento	4.8
74934	7	Sololá	717	San Juan la Laguna	12	San Juan la Laguna	9	Septiembre	2023-01-09T00:00:00	2024-11-08T16:00:00	7	Dirección del viento	4.83
74935	7	Sololá	717	San Juan la Laguna	12	San Juan la Laguna	9	Septiembre	2023-01-09T00:00:00	2024-11-08T16:00:00	1	Precipitación	0
74936	7	Sololá	717	San Juan la Laguna	12	San Juan la Laguna	9	Septiembre	2023-01-09T00:00:00	2024-11-08T16:00:00	8	Radiación solar	578
74937	7	Sololá	717	San Juan la Laguna	12	San Juan la Laguna	9	Septiembre	2023-01-09T00:00:00	2024-11-08T17:00:00	2	Temperatura media	23.4
74938	7	Sololá	717	San Juan la Laguna	12	San Juan la Laguna	9	Septiembre	2023-01-09T00:00:00	2024-11-08T17:00:00	4	Temperatura máxima	24.2
74939	7	Sololá	717	San Juan la Laguna	12	San Juan la Laguna	9	Septiembre	2023-01-09T00:00:00	2024-11-08T17:00:00	3	Temperatura mínima	22.8
74940	7	Sololá	717	San Juan la Laguna	12	San Juan la Laguna	9	Septiembre	2023-01-09T00:00:00	2024-11-08T17:00:00	5	Humedad	75
74941	7	Sololá	717	San Juan la Laguna	12	San Juan la Laguna	9	Septiembre	2023-01-09T00:00:00	2024-11-08T17:00:00	6	Velocidad del viento	0
74942	7	Sololá	717	San Juan la Laguna	12	San Juan la Laguna	9	Septiembre	2023-01-09T00:00:00	2024-11-08T17:00:00	7	Dirección del viento	0
74943	7	Sololá	717	San Juan la Laguna	12	San Juan la Laguna	9	Septiembre	2023-01-09T00:00:00	2024-11-08T17:00:00	1	Precipitación	0
74944	7	Sololá	717	San Juan la Laguna	12	San Juan la Laguna	9	Septiembre	2023-01-09T00:00:00	2024-11-08T17:00:00	8	Radiación solar	287
74945	7	Sololá	717	San Juan la Laguna	12	San Juan la Laguna	9	Septiembre	2023-01-09T00:00:00	2024-11-08T18:00:00	2	Temperatura media	22.2
74946	7	Sololá	717	San Juan la Laguna	12	San Juan la Laguna	9	Septiembre	2023-01-09T00:00:00	2024-11-08T18:00:00	4	Temperatura máxima	23.5
74947	7	Sololá	717	San Juan la Laguna	12	San Juan la Laguna	9	Septiembre	2023-01-09T00:00:00	2024-11-08T18:00:00	3	Temperatura mínima	22.2
74948	7	Sololá	717	San Juan la Laguna	12	San Juan la Laguna	9	Septiembre	2023-01-09T00:00:00	2024-11-08T18:00:00	5	Humedad	81
74949	7	Sololá	717	San Juan la Laguna	12	San Juan la Laguna	9	Septiembre	2023-01-09T00:00:00	2024-11-08T18:00:00	6	Velocidad del viento	0
74950	7	Sololá	717	San Juan la Laguna	12	San Juan la Laguna	9	Septiembre	2023-01-09T00:00:00	2024-11-08T18:00:00	7	Dirección del viento	0
74951	7	Sololá	717	San Juan la Laguna	12	San Juan la Laguna	9	Septiembre	2023-01-09T00:00:00	2024-11-08T18:00:00	1	Precipitación	0
74952	7	Sololá	717	San Juan la Laguna	12	San Juan la Laguna	9	Septiembre	2023-01-09T00:00:00	2024-11-08T18:00:00	8	Radiación solar	36
74953	7	Sololá	717	San Juan la Laguna	12	San Juan la Laguna	9	Septiembre	2023-01-09T00:00:00	2024-11-08T19:00:00	2	Temperatura media	21.8
74954	7	Sololá	717	San Juan la Laguna	12	San Juan la Laguna	9	Septiembre	2023-01-09T00:00:00	2024-11-08T19:00:00	4	Temperatura máxima	22.2
74955	7	Sololá	717	San Juan la Laguna	12	San Juan la Laguna	9	Septiembre	2023-01-09T00:00:00	2024-11-08T19:00:00	3	Temperatura mínima	21.8
74956	7	Sololá	717	San Juan la Laguna	12	San Juan la Laguna	9	Septiembre	2023-01-09T00:00:00	2024-11-08T19:00:00	5	Humedad	84
74957	7	Sololá	717	San Juan la Laguna	12	San Juan la Laguna	9	Septiembre	2023-01-09T00:00:00	2024-11-08T19:00:00	6	Velocidad del viento	0
74958	7	Sololá	717	San Juan la Laguna	12	San Juan la Laguna	9	Septiembre	2023-01-09T00:00:00	2024-11-08T19:00:00	7	Dirección del viento	0
74959	7	Sololá	717	San Juan la Laguna	12	San Juan la Laguna	9	Septiembre	2023-01-09T00:00:00	2024-11-08T19:00:00	1	Precipitación	0
74960	7	Sololá	717	San Juan la Laguna	12	San Juan la Laguna	9	Septiembre	2023-01-09T00:00:00	2024-11-08T19:00:00	8	Radiación solar	0
74961	7	Sololá	717	San Juan la Laguna	12	San Juan la Laguna	9	Septiembre	2023-01-09T00:00:00	2024-11-08T20:00:00	2	Temperatura media	22.1
74962	7	Sololá	717	San Juan la Laguna	12	San Juan la Laguna	9	Septiembre	2023-01-09T00:00:00	2024-11-08T20:00:00	4	Temperatura máxima	22.1
74963	7	Sololá	717	San Juan la Laguna	12	San Juan la Laguna	9	Septiembre	2023-01-09T00:00:00	2024-11-08T20:00:00	3	Temperatura mínima	21.5
74964	7	Sololá	717	San Juan la Laguna	12	San Juan la Laguna	9	Septiembre	2023-01-09T00:00:00	2024-11-08T20:00:00	5	Humedad	67
74965	7	Sololá	717	San Juan la Laguna	12	San Juan la Laguna	9	Septiembre	2023-01-09T00:00:00	2024-11-08T20:00:00	6	Velocidad del viento	1.6
74966	7	Sololá	717	San Juan la Laguna	12	San Juan la Laguna	9	Septiembre	2023-01-09T00:00:00	2024-11-08T20:00:00	7	Dirección del viento	1.61
74967	7	Sololá	717	San Juan la Laguna	12	San Juan la Laguna	9	Septiembre	2023-01-09T00:00:00	2024-11-08T20:00:00	1	Precipitación	0
74968	7	Sololá	717	San Juan la Laguna	12	San Juan la Laguna	9	Septiembre	2023-01-09T00:00:00	2024-11-08T20:00:00	8	Radiación solar	0
74969	7	Sololá	717	San Juan la Laguna	12	San Juan la Laguna	9	Septiembre	2023-01-09T00:00:00	2024-11-08T21:00:00	2	Temperatura media	19.3
74970	7	Sololá	717	San Juan la Laguna	12	San Juan la Laguna	9	Septiembre	2023-01-09T00:00:00	2024-11-08T21:00:00	4	Temperatura máxima	22.6
74971	7	Sololá	717	San Juan la Laguna	12	San Juan la Laguna	9	Septiembre	2023-01-09T00:00:00	2024-11-08T21:00:00	3	Temperatura mínima	19.3
74972	7	Sololá	717	San Juan la Laguna	12	San Juan la Laguna	9	Septiembre	2023-01-09T00:00:00	2024-11-08T21:00:00	5	Humedad	83
74973	7	Sololá	717	San Juan la Laguna	12	San Juan la Laguna	9	Septiembre	2023-01-09T00:00:00	2024-11-08T21:00:00	6	Velocidad del viento	9.7
74974	7	Sololá	717	San Juan la Laguna	12	San Juan la Laguna	9	Septiembre	2023-01-09T00:00:00	2024-11-08T21:00:00	7	Dirección del viento	9.66
74975	7	Sololá	717	San Juan la Laguna	12	San Juan la Laguna	9	Septiembre	2023-01-09T00:00:00	2024-11-08T21:00:00	1	Precipitación	0.2
74976	7	Sololá	717	San Juan la Laguna	12	San Juan la Laguna	9	Septiembre	2023-01-09T00:00:00	2024-11-08T21:00:00	8	Radiación solar	0
74977	7	Sololá	717	San Juan la Laguna	12	San Juan la Laguna	9	Septiembre	2023-01-09T00:00:00	2024-11-08T22:00:00	2	Temperatura media	18.1
74978	7	Sololá	717	San Juan la Laguna	12	San Juan la Laguna	9	Septiembre	2023-01-09T00:00:00	2024-11-08T22:00:00	4	Temperatura máxima	19.3
74979	7	Sololá	717	San Juan la Laguna	12	San Juan la Laguna	9	Septiembre	2023-01-09T00:00:00	2024-11-08T22:00:00	3	Temperatura mínima	17.9
74980	7	Sololá	717	San Juan la Laguna	12	San Juan la Laguna	9	Septiembre	2023-01-09T00:00:00	2024-11-08T22:00:00	5	Humedad	89
74981	7	Sololá	717	San Juan la Laguna	12	San Juan la Laguna	9	Septiembre	2023-01-09T00:00:00	2024-11-08T22:00:00	6	Velocidad del viento	0
74982	7	Sololá	717	San Juan la Laguna	12	San Juan la Laguna	9	Septiembre	2023-01-09T00:00:00	2024-11-08T22:00:00	7	Dirección del viento	0
74983	7	Sololá	717	San Juan la Laguna	12	San Juan la Laguna	9	Septiembre	2023-01-09T00:00:00	2024-11-08T22:00:00	1	Precipitación	0
74984	7	Sololá	717	San Juan la Laguna	12	San Juan la Laguna	9	Septiembre	2023-01-09T00:00:00	2024-11-08T22:00:00	8	Radiación solar	0
74985	7	Sololá	717	San Juan la Laguna	12	San Juan la Laguna	9	Septiembre	2023-01-09T00:00:00	2024-11-08T23:00:00	2	Temperatura media	18.8
74986	7	Sololá	717	San Juan la Laguna	12	San Juan la Laguna	9	Septiembre	2023-01-09T00:00:00	2024-11-08T23:00:00	4	Temperatura máxima	18.8
74987	7	Sololá	717	San Juan la Laguna	12	San Juan la Laguna	9	Septiembre	2023-01-09T00:00:00	2024-11-08T23:00:00	3	Temperatura mínima	17.8
74988	7	Sololá	717	San Juan la Laguna	12	San Juan la Laguna	9	Septiembre	2023-01-09T00:00:00	2024-11-08T23:00:00	5	Humedad	80
74989	7	Sololá	717	San Juan la Laguna	12	San Juan la Laguna	9	Septiembre	2023-01-09T00:00:00	2024-11-08T23:00:00	6	Velocidad del viento	1.6
74990	7	Sololá	717	San Juan la Laguna	12	San Juan la Laguna	9	Septiembre	2023-01-09T00:00:00	2024-11-08T23:00:00	7	Dirección del viento	1.61
74991	7	Sololá	717	San Juan la Laguna	12	San Juan la Laguna	9	Septiembre	2023-01-09T00:00:00	2024-11-08T23:00:00	1	Precipitación	0
74992	7	Sololá	717	San Juan la Laguna	12	San Juan la Laguna	9	Septiembre	2023-01-09T00:00:00	2024-11-08T23:00:00	8	Radiación solar	0
74993	7	Sololá	717	San Juan la Laguna	12	San Juan la Laguna	9	Septiembre	2023-02-09T00:00:00	2024-11-08T00:00:00	2	Temperatura media	20.7
74994	7	Sololá	717	San Juan la Laguna	12	San Juan la Laguna	9	Septiembre	2023-02-09T00:00:00	2024-11-08T00:00:00	4	Temperatura máxima	20.7
74995	7	Sololá	717	San Juan la Laguna	12	San Juan la Laguna	9	Septiembre	2023-02-09T00:00:00	2024-11-08T00:00:00	3	Temperatura mínima	18.8
74996	7	Sololá	717	San Juan la Laguna	12	San Juan la Laguna	9	Septiembre	2023-02-09T00:00:00	2024-11-08T00:00:00	5	Humedad	70
74997	7	Sololá	717	San Juan la Laguna	12	San Juan la Laguna	9	Septiembre	2023-02-09T00:00:00	2024-11-08T00:00:00	6	Velocidad del viento	1.6
74998	7	Sololá	717	San Juan la Laguna	12	San Juan la Laguna	9	Septiembre	2023-02-09T00:00:00	2024-11-08T00:00:00	7	Dirección del viento	1.61
74999	7	Sololá	717	San Juan la Laguna	12	San Juan la Laguna	9	Septiembre	2023-02-09T00:00:00	2024-11-08T00:00:00	1	Precipitación	0
75000	7	Sololá	717	San Juan la Laguna	12	San Juan la Laguna	9	Septiembre	2023-02-09T00:00:00	2024-11-08T00:00:00	8	Radiación solar	0
75001	7	Sololá	717	San Juan la Laguna	12	San Juan la Laguna	9	Septiembre	2023-02-09T00:00:00	2024-11-08T01:00:00	2	Temperatura media	18.8
75002	7	Sololá	717	San Juan la Laguna	12	San Juan la Laguna	9	Septiembre	2023-02-09T00:00:00	2024-11-08T01:00:00	4	Temperatura máxima	20.7
75003	7	Sololá	717	San Juan la Laguna	12	San Juan la Laguna	9	Septiembre	2023-02-09T00:00:00	2024-11-08T01:00:00	3	Temperatura mínima	18.7
75004	7	Sololá	717	San Juan la Laguna	12	San Juan la Laguna	9	Septiembre	2023-02-09T00:00:00	2024-11-08T01:00:00	5	Humedad	82
75005	7	Sololá	717	San Juan la Laguna	12	San Juan la Laguna	9	Septiembre	2023-02-09T00:00:00	2024-11-08T01:00:00	6	Velocidad del viento	1.6
75006	7	Sololá	717	San Juan la Laguna	12	San Juan la Laguna	9	Septiembre	2023-02-09T00:00:00	2024-11-08T01:00:00	7	Dirección del viento	1.61
75007	7	Sololá	717	San Juan la Laguna	12	San Juan la Laguna	9	Septiembre	2023-02-09T00:00:00	2024-11-08T01:00:00	1	Precipitación	0
75008	7	Sololá	717	San Juan la Laguna	12	San Juan la Laguna	9	Septiembre	2023-02-09T00:00:00	2024-11-08T01:00:00	8	Radiación solar	0
75009	7	Sololá	717	San Juan la Laguna	12	San Juan la Laguna	9	Septiembre	2023-02-09T00:00:00	2024-11-08T02:00:00	2	Temperatura media	20.9
75010	7	Sololá	717	San Juan la Laguna	12	San Juan la Laguna	9	Septiembre	2023-02-09T00:00:00	2024-11-08T02:00:00	4	Temperatura máxima	20.9
75011	7	Sololá	717	San Juan la Laguna	12	San Juan la Laguna	9	Septiembre	2023-02-09T00:00:00	2024-11-08T02:00:00	3	Temperatura mínima	18.7
75012	7	Sololá	717	San Juan la Laguna	12	San Juan la Laguna	9	Septiembre	2023-02-09T00:00:00	2024-11-08T02:00:00	5	Humedad	68
75013	7	Sololá	717	San Juan la Laguna	12	San Juan la Laguna	9	Septiembre	2023-02-09T00:00:00	2024-11-08T02:00:00	6	Velocidad del viento	1.6
75014	7	Sololá	717	San Juan la Laguna	12	San Juan la Laguna	9	Septiembre	2023-02-09T00:00:00	2024-11-08T02:00:00	7	Dirección del viento	1.61
75015	7	Sololá	717	San Juan la Laguna	12	San Juan la Laguna	9	Septiembre	2023-02-09T00:00:00	2024-11-08T02:00:00	1	Precipitación	0
75016	7	Sololá	717	San Juan la Laguna	12	San Juan la Laguna	9	Septiembre	2023-02-09T00:00:00	2024-11-08T02:00:00	8	Radiación solar	0
75017	7	Sololá	717	San Juan la Laguna	12	San Juan la Laguna	9	Septiembre	2023-02-09T00:00:00	2024-11-08T03:00:00	2	Temperatura media	20.8
75018	7	Sololá	717	San Juan la Laguna	12	San Juan la Laguna	9	Septiembre	2023-02-09T00:00:00	2024-11-08T03:00:00	4	Temperatura máxima	20.9
75019	7	Sololá	717	San Juan la Laguna	12	San Juan la Laguna	9	Septiembre	2023-02-09T00:00:00	2024-11-08T03:00:00	3	Temperatura mínima	20.7
75020	7	Sololá	717	San Juan la Laguna	12	San Juan la Laguna	9	Septiembre	2023-02-09T00:00:00	2024-11-08T03:00:00	5	Humedad	67
75021	7	Sololá	717	San Juan la Laguna	12	San Juan la Laguna	9	Septiembre	2023-02-09T00:00:00	2024-11-08T03:00:00	6	Velocidad del viento	1.6
75022	7	Sololá	717	San Juan la Laguna	12	San Juan la Laguna	9	Septiembre	2023-02-09T00:00:00	2024-11-08T03:00:00	7	Dirección del viento	1.61
75023	7	Sololá	717	San Juan la Laguna	12	San Juan la Laguna	9	Septiembre	2023-02-09T00:00:00	2024-11-08T03:00:00	1	Precipitación	0
75024	7	Sololá	717	San Juan la Laguna	12	San Juan la Laguna	9	Septiembre	2023-02-09T00:00:00	2024-11-08T03:00:00	8	Radiación solar	0
75025	7	Sololá	717	San Juan la Laguna	12	San Juan la Laguna	9	Septiembre	2023-02-09T00:00:00	2024-11-08T04:00:00	2	Temperatura media	20.3
75026	7	Sololá	717	San Juan la Laguna	12	San Juan la Laguna	9	Septiembre	2023-02-09T00:00:00	2024-11-08T04:00:00	4	Temperatura máxima	21.2
75027	7	Sololá	717	San Juan la Laguna	12	San Juan la Laguna	9	Septiembre	2023-02-09T00:00:00	2024-11-08T04:00:00	3	Temperatura mínima	20.3
75028	7	Sololá	717	San Juan la Laguna	12	San Juan la Laguna	9	Septiembre	2023-02-09T00:00:00	2024-11-08T04:00:00	5	Humedad	69
75029	7	Sololá	717	San Juan la Laguna	12	San Juan la Laguna	9	Septiembre	2023-02-09T00:00:00	2024-11-08T04:00:00	6	Velocidad del viento	1.6
75030	7	Sololá	717	San Juan la Laguna	12	San Juan la Laguna	9	Septiembre	2023-02-09T00:00:00	2024-11-08T04:00:00	7	Dirección del viento	1.61
75031	7	Sololá	717	San Juan la Laguna	12	San Juan la Laguna	9	Septiembre	2023-02-09T00:00:00	2024-11-08T04:00:00	1	Precipitación	0
75032	7	Sololá	717	San Juan la Laguna	12	San Juan la Laguna	9	Septiembre	2023-02-09T00:00:00	2024-11-08T04:00:00	8	Radiación solar	0
75033	7	Sololá	717	San Juan la Laguna	12	San Juan la Laguna	9	Septiembre	2023-02-09T00:00:00	2024-11-08T05:00:00	2	Temperatura media	19.1
75034	7	Sololá	717	San Juan la Laguna	12	San Juan la Laguna	9	Septiembre	2023-02-09T00:00:00	2024-11-08T05:00:00	4	Temperatura máxima	20.3
75035	7	Sololá	717	San Juan la Laguna	12	San Juan la Laguna	9	Septiembre	2023-02-09T00:00:00	2024-11-08T05:00:00	3	Temperatura mínima	19.1
75036	7	Sololá	717	San Juan la Laguna	12	San Juan la Laguna	9	Septiembre	2023-02-09T00:00:00	2024-11-08T05:00:00	5	Humedad	74
75037	7	Sololá	717	San Juan la Laguna	12	San Juan la Laguna	9	Septiembre	2023-02-09T00:00:00	2024-11-08T05:00:00	6	Velocidad del viento	0
75038	7	Sololá	717	San Juan la Laguna	12	San Juan la Laguna	9	Septiembre	2023-02-09T00:00:00	2024-11-08T05:00:00	7	Dirección del viento	0
75039	7	Sololá	717	San Juan la Laguna	12	San Juan la Laguna	9	Septiembre	2023-02-09T00:00:00	2024-11-08T05:00:00	1	Precipitación	0
75040	7	Sololá	717	San Juan la Laguna	12	San Juan la Laguna	9	Septiembre	2023-02-09T00:00:00	2024-11-08T05:00:00	8	Radiación solar	0
75041	7	Sololá	717	San Juan la Laguna	12	San Juan la Laguna	9	Septiembre	2023-02-09T00:00:00	2024-11-08T06:00:00	2	Temperatura media	16.5
75042	7	Sololá	717	San Juan la Laguna	12	San Juan la Laguna	9	Septiembre	2023-02-09T00:00:00	2024-11-08T06:00:00	4	Temperatura máxima	19.1
75043	7	Sololá	717	San Juan la Laguna	12	San Juan la Laguna	9	Septiembre	2023-02-09T00:00:00	2024-11-08T06:00:00	3	Temperatura mínima	16.5
75044	7	Sololá	717	San Juan la Laguna	12	San Juan la Laguna	9	Septiembre	2023-02-09T00:00:00	2024-11-08T06:00:00	5	Humedad	84
75045	7	Sololá	717	San Juan la Laguna	12	San Juan la Laguna	9	Septiembre	2023-02-09T00:00:00	2024-11-08T06:00:00	6	Velocidad del viento	0
75046	7	Sololá	717	San Juan la Laguna	12	San Juan la Laguna	9	Septiembre	2023-02-09T00:00:00	2024-11-08T06:00:00	7	Dirección del viento	0
75047	7	Sololá	717	San Juan la Laguna	12	San Juan la Laguna	9	Septiembre	2023-02-09T00:00:00	2024-11-08T06:00:00	1	Precipitación	0
75048	7	Sololá	717	San Juan la Laguna	12	San Juan la Laguna	9	Septiembre	2023-02-09T00:00:00	2024-11-08T06:00:00	8	Radiación solar	1
75049	7	Sololá	717	San Juan la Laguna	12	San Juan la Laguna	9	Septiembre	2023-02-09T00:00:00	2024-11-08T07:00:00	2	Temperatura media	18.3
75050	7	Sololá	717	San Juan la Laguna	12	San Juan la Laguna	9	Septiembre	2023-02-09T00:00:00	2024-11-08T07:00:00	4	Temperatura máxima	18.3
75051	7	Sololá	717	San Juan la Laguna	12	San Juan la Laguna	9	Septiembre	2023-02-09T00:00:00	2024-11-08T07:00:00	3	Temperatura mínima	16.3
75052	7	Sololá	717	San Juan la Laguna	12	San Juan la Laguna	9	Septiembre	2023-02-09T00:00:00	2024-11-08T07:00:00	5	Humedad	79
75053	7	Sololá	717	San Juan la Laguna	12	San Juan la Laguna	9	Septiembre	2023-02-09T00:00:00	2024-11-08T07:00:00	6	Velocidad del viento	0
75054	7	Sololá	717	San Juan la Laguna	12	San Juan la Laguna	9	Septiembre	2023-02-09T00:00:00	2024-11-08T07:00:00	7	Dirección del viento	0
75055	7	Sololá	717	San Juan la Laguna	12	San Juan la Laguna	9	Septiembre	2023-02-09T00:00:00	2024-11-08T07:00:00	1	Precipitación	0
75056	7	Sololá	717	San Juan la Laguna	12	San Juan la Laguna	9	Septiembre	2023-02-09T00:00:00	2024-11-08T07:00:00	8	Radiación solar	71
75057	7	Sololá	717	San Juan la Laguna	12	San Juan la Laguna	9	Septiembre	2023-02-09T00:00:00	2024-11-08T08:00:00	2	Temperatura media	22.1
75058	7	Sololá	717	San Juan la Laguna	12	San Juan la Laguna	9	Septiembre	2023-02-09T00:00:00	2024-11-08T08:00:00	4	Temperatura máxima	22.1
75059	7	Sololá	717	San Juan la Laguna	12	San Juan la Laguna	9	Septiembre	2023-02-09T00:00:00	2024-11-08T08:00:00	3	Temperatura mínima	18.4
75060	7	Sololá	717	San Juan la Laguna	12	San Juan la Laguna	9	Septiembre	2023-02-09T00:00:00	2024-11-08T08:00:00	5	Humedad	66
75061	7	Sololá	717	San Juan la Laguna	12	San Juan la Laguna	9	Septiembre	2023-02-09T00:00:00	2024-11-08T08:00:00	6	Velocidad del viento	0
75062	7	Sololá	717	San Juan la Laguna	12	San Juan la Laguna	9	Septiembre	2023-02-09T00:00:00	2024-11-08T08:00:00	7	Dirección del viento	0
75063	7	Sololá	717	San Juan la Laguna	12	San Juan la Laguna	9	Septiembre	2023-02-09T00:00:00	2024-11-08T08:00:00	1	Precipitación	0
75064	7	Sololá	717	San Juan la Laguna	12	San Juan la Laguna	9	Septiembre	2023-02-09T00:00:00	2024-11-08T08:00:00	8	Radiación solar	222
75065	7	Sololá	717	San Juan la Laguna	12	San Juan la Laguna	9	Septiembre	2023-02-09T00:00:00	2024-11-08T09:00:00	2	Temperatura media	23.8
75066	7	Sololá	717	San Juan la Laguna	12	San Juan la Laguna	9	Septiembre	2023-02-09T00:00:00	2024-11-08T09:00:00	4	Temperatura máxima	23.8
75067	7	Sololá	717	San Juan la Laguna	12	San Juan la Laguna	9	Septiembre	2023-02-09T00:00:00	2024-11-08T09:00:00	3	Temperatura mínima	22.1
75068	7	Sololá	717	San Juan la Laguna	12	San Juan la Laguna	9	Septiembre	2023-02-09T00:00:00	2024-11-08T09:00:00	5	Humedad	58
75069	7	Sololá	717	San Juan la Laguna	12	San Juan la Laguna	9	Septiembre	2023-02-09T00:00:00	2024-11-08T09:00:00	6	Velocidad del viento	0
75070	7	Sololá	717	San Juan la Laguna	12	San Juan la Laguna	9	Septiembre	2023-02-09T00:00:00	2024-11-08T09:00:00	7	Dirección del viento	0
75071	7	Sololá	717	San Juan la Laguna	12	San Juan la Laguna	9	Septiembre	2023-02-09T00:00:00	2024-11-08T09:00:00	1	Precipitación	0
75072	7	Sololá	717	San Juan la Laguna	12	San Juan la Laguna	9	Septiembre	2023-02-09T00:00:00	2024-11-08T09:00:00	8	Radiación solar	418
75073	7	Sololá	717	San Juan la Laguna	12	San Juan la Laguna	9	Septiembre	2023-02-09T00:00:00	2024-11-08T10:00:00	2	Temperatura media	24.2
75074	7	Sololá	717	San Juan la Laguna	12	San Juan la Laguna	9	Septiembre	2023-02-09T00:00:00	2024-11-08T10:00:00	4	Temperatura máxima	24.2
75075	7	Sololá	717	San Juan la Laguna	12	San Juan la Laguna	9	Septiembre	2023-02-09T00:00:00	2024-11-08T10:00:00	3	Temperatura mínima	23.5
75076	7	Sololá	717	San Juan la Laguna	12	San Juan la Laguna	9	Septiembre	2023-02-09T00:00:00	2024-11-08T10:00:00	5	Humedad	60
75077	7	Sololá	717	San Juan la Laguna	12	San Juan la Laguna	9	Septiembre	2023-02-09T00:00:00	2024-11-08T10:00:00	6	Velocidad del viento	0
75078	7	Sololá	717	San Juan la Laguna	12	San Juan la Laguna	9	Septiembre	2023-02-09T00:00:00	2024-11-08T10:00:00	7	Dirección del viento	0
75079	7	Sololá	717	San Juan la Laguna	12	San Juan la Laguna	9	Septiembre	2023-02-09T00:00:00	2024-11-08T10:00:00	1	Precipitación	0
75080	7	Sololá	717	San Juan la Laguna	12	San Juan la Laguna	9	Septiembre	2023-02-09T00:00:00	2024-11-08T10:00:00	8	Radiación solar	691
75081	7	Sololá	717	San Juan la Laguna	12	San Juan la Laguna	9	Septiembre	2023-02-09T00:00:00	2024-11-08T11:00:00	2	Temperatura media	25.3
75082	7	Sololá	717	San Juan la Laguna	12	San Juan la Laguna	9	Septiembre	2023-02-09T00:00:00	2024-11-08T11:00:00	4	Temperatura máxima	25.4
75083	7	Sololá	717	San Juan la Laguna	12	San Juan la Laguna	9	Septiembre	2023-02-09T00:00:00	2024-11-08T11:00:00	3	Temperatura mínima	24.2
75084	7	Sololá	717	San Juan la Laguna	12	San Juan la Laguna	9	Septiembre	2023-02-09T00:00:00	2024-11-08T11:00:00	5	Humedad	54
75085	7	Sololá	717	San Juan la Laguna	12	San Juan la Laguna	9	Septiembre	2023-02-09T00:00:00	2024-11-08T11:00:00	6	Velocidad del viento	0
75086	7	Sololá	717	San Juan la Laguna	12	San Juan la Laguna	9	Septiembre	2023-02-09T00:00:00	2024-11-08T11:00:00	7	Dirección del viento	0
75087	7	Sololá	717	San Juan la Laguna	12	San Juan la Laguna	9	Septiembre	2023-02-09T00:00:00	2024-11-08T11:00:00	1	Precipitación	0
75088	7	Sololá	717	San Juan la Laguna	12	San Juan la Laguna	9	Septiembre	2023-02-09T00:00:00	2024-11-08T11:00:00	8	Radiación solar	855
75089	7	Sololá	717	San Juan la Laguna	12	San Juan la Laguna	9	Septiembre	2023-02-09T00:00:00	2024-11-08T12:00:00	2	Temperatura media	27.1
75090	7	Sololá	717	San Juan la Laguna	12	San Juan la Laguna	9	Septiembre	2023-02-09T00:00:00	2024-11-08T12:00:00	4	Temperatura máxima	27.2
75091	7	Sololá	717	San Juan la Laguna	12	San Juan la Laguna	9	Septiembre	2023-02-09T00:00:00	2024-11-08T12:00:00	3	Temperatura mínima	25.3
75092	7	Sololá	717	San Juan la Laguna	12	San Juan la Laguna	9	Septiembre	2023-02-09T00:00:00	2024-11-08T12:00:00	5	Humedad	49
75093	7	Sololá	717	San Juan la Laguna	12	San Juan la Laguna	9	Septiembre	2023-02-09T00:00:00	2024-11-08T12:00:00	6	Velocidad del viento	1.6
75094	7	Sololá	717	San Juan la Laguna	12	San Juan la Laguna	9	Septiembre	2023-02-09T00:00:00	2024-11-08T12:00:00	7	Dirección del viento	1.61
75095	7	Sololá	717	San Juan la Laguna	12	San Juan la Laguna	9	Septiembre	2023-02-09T00:00:00	2024-11-08T12:00:00	1	Precipitación	0
75096	7	Sololá	717	San Juan la Laguna	12	San Juan la Laguna	9	Septiembre	2023-02-09T00:00:00	2024-11-08T12:00:00	8	Radiación solar	967
75097	7	Sololá	717	San Juan la Laguna	12	San Juan la Laguna	9	Septiembre	2023-02-09T00:00:00	2024-11-08T13:00:00	2	Temperatura media	27.2
75098	7	Sololá	717	San Juan la Laguna	12	San Juan la Laguna	9	Septiembre	2023-02-09T00:00:00	2024-11-08T13:00:00	4	Temperatura máxima	27.6
75099	7	Sololá	717	San Juan la Laguna	12	San Juan la Laguna	9	Septiembre	2023-02-09T00:00:00	2024-11-08T13:00:00	3	Temperatura mínima	27.1
75100	7	Sololá	717	San Juan la Laguna	12	San Juan la Laguna	9	Septiembre	2023-02-09T00:00:00	2024-11-08T13:00:00	5	Humedad	50
75101	7	Sololá	717	San Juan la Laguna	12	San Juan la Laguna	9	Septiembre	2023-02-09T00:00:00	2024-11-08T13:00:00	6	Velocidad del viento	3.2
75102	7	Sololá	717	San Juan la Laguna	12	San Juan la Laguna	9	Septiembre	2023-02-09T00:00:00	2024-11-08T13:00:00	7	Dirección del viento	3.22
75103	7	Sololá	717	San Juan la Laguna	12	San Juan la Laguna	9	Septiembre	2023-02-09T00:00:00	2024-11-08T13:00:00	1	Precipitación	0
75104	7	Sololá	717	San Juan la Laguna	12	San Juan la Laguna	9	Septiembre	2023-02-09T00:00:00	2024-11-08T13:00:00	8	Radiación solar	960
75105	7	Sololá	717	San Juan la Laguna	12	San Juan la Laguna	9	Septiembre	2023-02-09T00:00:00	2024-11-08T14:00:00	2	Temperatura media	24.2
75106	7	Sololá	717	San Juan la Laguna	12	San Juan la Laguna	9	Septiembre	2023-02-09T00:00:00	2024-11-08T14:00:00	4	Temperatura máxima	27.3
75107	7	Sololá	717	San Juan la Laguna	12	San Juan la Laguna	9	Septiembre	2023-02-09T00:00:00	2024-11-08T14:00:00	3	Temperatura mínima	24.2
75108	7	Sololá	717	San Juan la Laguna	12	San Juan la Laguna	9	Septiembre	2023-02-09T00:00:00	2024-11-08T14:00:00	5	Humedad	69
75109	7	Sololá	717	San Juan la Laguna	12	San Juan la Laguna	9	Septiembre	2023-02-09T00:00:00	2024-11-08T14:00:00	6	Velocidad del viento	1.6
75110	7	Sololá	717	San Juan la Laguna	12	San Juan la Laguna	9	Septiembre	2023-02-09T00:00:00	2024-11-08T14:00:00	7	Dirección del viento	1.61
75111	7	Sololá	717	San Juan la Laguna	12	San Juan la Laguna	9	Septiembre	2023-02-09T00:00:00	2024-11-08T14:00:00	1	Precipitación	0
75112	7	Sololá	717	San Juan la Laguna	12	San Juan la Laguna	9	Septiembre	2023-02-09T00:00:00	2024-11-08T14:00:00	8	Radiación solar	515
75113	7	Sololá	717	San Juan la Laguna	12	San Juan la Laguna	9	Septiembre	2023-02-09T00:00:00	2024-11-08T15:00:00	2	Temperatura media	21.2
75114	7	Sololá	717	San Juan la Laguna	12	San Juan la Laguna	9	Septiembre	2023-02-09T00:00:00	2024-11-08T15:00:00	4	Temperatura máxima	24.2
75115	7	Sololá	717	San Juan la Laguna	12	San Juan la Laguna	9	Septiembre	2023-02-09T00:00:00	2024-11-08T15:00:00	3	Temperatura mínima	21.1
75116	7	Sololá	717	San Juan la Laguna	12	San Juan la Laguna	9	Septiembre	2023-02-09T00:00:00	2024-11-08T15:00:00	5	Humedad	85
75117	7	Sololá	717	San Juan la Laguna	12	San Juan la Laguna	9	Septiembre	2023-02-09T00:00:00	2024-11-08T15:00:00	6	Velocidad del viento	6.4
75118	7	Sololá	717	San Juan la Laguna	12	San Juan la Laguna	9	Septiembre	2023-02-09T00:00:00	2024-11-08T15:00:00	7	Dirección del viento	6.44
75119	7	Sololá	717	San Juan la Laguna	12	San Juan la Laguna	9	Septiembre	2023-02-09T00:00:00	2024-11-08T15:00:00	1	Precipitación	0.8
75120	7	Sololá	717	San Juan la Laguna	12	San Juan la Laguna	9	Septiembre	2023-02-09T00:00:00	2024-11-08T15:00:00	8	Radiación solar	186
75121	7	Sololá	717	San Juan la Laguna	12	San Juan la Laguna	9	Septiembre	2023-02-09T00:00:00	2024-11-08T16:00:00	2	Temperatura media	22.1
75122	7	Sololá	717	San Juan la Laguna	12	San Juan la Laguna	9	Septiembre	2023-02-09T00:00:00	2024-11-08T16:00:00	4	Temperatura máxima	22.1
75123	7	Sololá	717	San Juan la Laguna	12	San Juan la Laguna	9	Septiembre	2023-02-09T00:00:00	2024-11-08T16:00:00	3	Temperatura mínima	20.9
75124	7	Sololá	717	San Juan la Laguna	12	San Juan la Laguna	9	Septiembre	2023-02-09T00:00:00	2024-11-08T16:00:00	5	Humedad	78
75125	7	Sololá	717	San Juan la Laguna	12	San Juan la Laguna	9	Septiembre	2023-02-09T00:00:00	2024-11-08T16:00:00	6	Velocidad del viento	0
75126	7	Sololá	717	San Juan la Laguna	12	San Juan la Laguna	9	Septiembre	2023-02-09T00:00:00	2024-11-08T16:00:00	7	Dirección del viento	0
75127	7	Sololá	717	San Juan la Laguna	12	San Juan la Laguna	9	Septiembre	2023-02-09T00:00:00	2024-11-08T16:00:00	1	Precipitación	0.4
75128	7	Sololá	717	San Juan la Laguna	12	San Juan la Laguna	9	Septiembre	2023-02-09T00:00:00	2024-11-08T16:00:00	8	Radiación solar	180
75129	7	Sololá	717	San Juan la Laguna	12	San Juan la Laguna	9	Septiembre	2023-02-09T00:00:00	2024-11-08T17:00:00	2	Temperatura media	21.8
75130	7	Sololá	717	San Juan la Laguna	12	San Juan la Laguna	9	Septiembre	2023-02-09T00:00:00	2024-11-08T17:00:00	4	Temperatura máxima	22.5
75131	7	Sololá	717	San Juan la Laguna	12	San Juan la Laguna	9	Septiembre	2023-02-09T00:00:00	2024-11-08T17:00:00	3	Temperatura mínima	21.8
75132	7	Sololá	717	San Juan la Laguna	12	San Juan la Laguna	9	Septiembre	2023-02-09T00:00:00	2024-11-08T17:00:00	5	Humedad	78
75133	7	Sololá	717	San Juan la Laguna	12	San Juan la Laguna	9	Septiembre	2023-02-09T00:00:00	2024-11-08T17:00:00	6	Velocidad del viento	0
75134	7	Sololá	717	San Juan la Laguna	12	San Juan la Laguna	9	Septiembre	2023-02-09T00:00:00	2024-11-08T17:00:00	7	Dirección del viento	0
75135	7	Sololá	717	San Juan la Laguna	12	San Juan la Laguna	9	Septiembre	2023-02-09T00:00:00	2024-11-08T17:00:00	1	Precipitación	0
75136	7	Sololá	717	San Juan la Laguna	12	San Juan la Laguna	9	Septiembre	2023-02-09T00:00:00	2024-11-08T17:00:00	8	Radiación solar	191
75137	7	Sololá	717	San Juan la Laguna	12	San Juan la Laguna	9	Septiembre	2023-02-09T00:00:00	2024-11-08T18:00:00	2	Temperatura media	19.9
75138	7	Sololá	717	San Juan la Laguna	12	San Juan la Laguna	9	Septiembre	2023-02-09T00:00:00	2024-11-08T18:00:00	4	Temperatura máxima	21.9
75139	7	Sololá	717	San Juan la Laguna	12	San Juan la Laguna	9	Septiembre	2023-02-09T00:00:00	2024-11-08T18:00:00	3	Temperatura mínima	19.9
75140	7	Sololá	717	San Juan la Laguna	12	San Juan la Laguna	9	Septiembre	2023-02-09T00:00:00	2024-11-08T18:00:00	5	Humedad	86
75141	7	Sololá	717	San Juan la Laguna	12	San Juan la Laguna	9	Septiembre	2023-02-09T00:00:00	2024-11-08T18:00:00	6	Velocidad del viento	0
75142	7	Sololá	717	San Juan la Laguna	12	San Juan la Laguna	9	Septiembre	2023-02-09T00:00:00	2024-11-08T18:00:00	7	Dirección del viento	0
75143	7	Sololá	717	San Juan la Laguna	12	San Juan la Laguna	9	Septiembre	2023-02-09T00:00:00	2024-11-08T18:00:00	1	Precipitación	0.2
75144	7	Sololá	717	San Juan la Laguna	12	San Juan la Laguna	9	Septiembre	2023-02-09T00:00:00	2024-11-08T18:00:00	8	Radiación solar	51
75145	7	Sololá	717	San Juan la Laguna	12	San Juan la Laguna	9	Septiembre	2023-02-09T00:00:00	2024-11-08T19:00:00	2	Temperatura media	18.9
75146	7	Sololá	717	San Juan la Laguna	12	San Juan la Laguna	9	Septiembre	2023-02-09T00:00:00	2024-11-08T19:00:00	4	Temperatura máxima	19.9
75147	7	Sololá	717	San Juan la Laguna	12	San Juan la Laguna	9	Septiembre	2023-02-09T00:00:00	2024-11-08T19:00:00	3	Temperatura mínima	18.8
75148	7	Sololá	717	San Juan la Laguna	12	San Juan la Laguna	9	Septiembre	2023-02-09T00:00:00	2024-11-08T19:00:00	5	Humedad	87
75149	7	Sololá	717	San Juan la Laguna	12	San Juan la Laguna	9	Septiembre	2023-02-09T00:00:00	2024-11-08T19:00:00	6	Velocidad del viento	0
75150	7	Sololá	717	San Juan la Laguna	12	San Juan la Laguna	9	Septiembre	2023-02-09T00:00:00	2024-11-08T19:00:00	7	Dirección del viento	0
75151	7	Sololá	717	San Juan la Laguna	12	San Juan la Laguna	9	Septiembre	2023-02-09T00:00:00	2024-11-08T19:00:00	1	Precipitación	0
75152	7	Sololá	717	San Juan la Laguna	12	San Juan la Laguna	9	Septiembre	2023-02-09T00:00:00	2024-11-08T19:00:00	8	Radiación solar	0
75153	7	Sololá	717	San Juan la Laguna	12	San Juan la Laguna	9	Septiembre	2023-02-09T00:00:00	2024-11-08T20:00:00	2	Temperatura media	20.8
75154	7	Sololá	717	San Juan la Laguna	12	San Juan la Laguna	9	Septiembre	2023-02-09T00:00:00	2024-11-08T20:00:00	4	Temperatura máxima	20.8
75155	7	Sololá	717	San Juan la Laguna	12	San Juan la Laguna	9	Septiembre	2023-02-09T00:00:00	2024-11-08T20:00:00	3	Temperatura mínima	18.8
75156	7	Sololá	717	San Juan la Laguna	12	San Juan la Laguna	9	Septiembre	2023-02-09T00:00:00	2024-11-08T20:00:00	5	Humedad	75
75157	7	Sololá	717	San Juan la Laguna	12	San Juan la Laguna	9	Septiembre	2023-02-09T00:00:00	2024-11-08T20:00:00	6	Velocidad del viento	4.8
75158	7	Sololá	717	San Juan la Laguna	12	San Juan la Laguna	9	Septiembre	2023-02-09T00:00:00	2024-11-08T20:00:00	7	Dirección del viento	4.83
75159	7	Sololá	717	San Juan la Laguna	12	San Juan la Laguna	9	Septiembre	2023-02-09T00:00:00	2024-11-08T20:00:00	1	Precipitación	0
75160	7	Sololá	717	San Juan la Laguna	12	San Juan la Laguna	9	Septiembre	2023-02-09T00:00:00	2024-11-08T20:00:00	8	Radiación solar	0
75161	7	Sololá	717	San Juan la Laguna	12	San Juan la Laguna	9	Septiembre	2023-02-09T00:00:00	2024-11-08T21:00:00	2	Temperatura media	19.2
75162	7	Sololá	717	San Juan la Laguna	12	San Juan la Laguna	9	Septiembre	2023-02-09T00:00:00	2024-11-08T21:00:00	4	Temperatura máxima	20.8
75163	7	Sololá	717	San Juan la Laguna	12	San Juan la Laguna	9	Septiembre	2023-02-09T00:00:00	2024-11-08T21:00:00	3	Temperatura mínima	19.2
75164	7	Sololá	717	San Juan la Laguna	12	San Juan la Laguna	9	Septiembre	2023-02-09T00:00:00	2024-11-08T21:00:00	5	Humedad	82
75165	7	Sololá	717	San Juan la Laguna	12	San Juan la Laguna	9	Septiembre	2023-02-09T00:00:00	2024-11-08T21:00:00	6	Velocidad del viento	3.2
75166	7	Sololá	717	San Juan la Laguna	12	San Juan la Laguna	9	Septiembre	2023-02-09T00:00:00	2024-11-08T21:00:00	7	Dirección del viento	3.22
75167	7	Sololá	717	San Juan la Laguna	12	San Juan la Laguna	9	Septiembre	2023-02-09T00:00:00	2024-11-08T21:00:00	1	Precipitación	0
75168	7	Sololá	717	San Juan la Laguna	12	San Juan la Laguna	9	Septiembre	2023-02-09T00:00:00	2024-11-08T21:00:00	8	Radiación solar	0
75169	7	Sololá	717	San Juan la Laguna	12	San Juan la Laguna	9	Septiembre	2023-02-09T00:00:00	2024-11-08T22:00:00	2	Temperatura media	18.4
75170	7	Sololá	717	San Juan la Laguna	12	San Juan la Laguna	9	Septiembre	2023-02-09T00:00:00	2024-11-08T22:00:00	4	Temperatura máxima	19.2
75171	7	Sololá	717	San Juan la Laguna	12	San Juan la Laguna	9	Septiembre	2023-02-09T00:00:00	2024-11-08T22:00:00	3	Temperatura mínima	18.3
75172	7	Sololá	717	San Juan la Laguna	12	San Juan la Laguna	9	Septiembre	2023-02-09T00:00:00	2024-11-08T22:00:00	5	Humedad	85
75173	7	Sololá	717	San Juan la Laguna	12	San Juan la Laguna	9	Septiembre	2023-02-09T00:00:00	2024-11-08T22:00:00	6	Velocidad del viento	1.6
75174	7	Sololá	717	San Juan la Laguna	12	San Juan la Laguna	9	Septiembre	2023-02-09T00:00:00	2024-11-08T22:00:00	7	Dirección del viento	1.61
75175	7	Sololá	717	San Juan la Laguna	12	San Juan la Laguna	9	Septiembre	2023-02-09T00:00:00	2024-11-08T22:00:00	1	Precipitación	0
75176	7	Sololá	717	San Juan la Laguna	12	San Juan la Laguna	9	Septiembre	2023-02-09T00:00:00	2024-11-08T22:00:00	8	Radiación solar	0
75177	7	Sololá	717	San Juan la Laguna	12	San Juan la Laguna	9	Septiembre	2023-02-09T00:00:00	2024-11-08T23:00:00	2	Temperatura media	18.3
75178	7	Sololá	717	San Juan la Laguna	12	San Juan la Laguna	9	Septiembre	2023-02-09T00:00:00	2024-11-08T23:00:00	4	Temperatura máxima	18.7
75179	7	Sololá	717	San Juan la Laguna	12	San Juan la Laguna	9	Septiembre	2023-02-09T00:00:00	2024-11-08T23:00:00	3	Temperatura mínima	18.3
75180	7	Sololá	717	San Juan la Laguna	12	San Juan la Laguna	9	Septiembre	2023-02-09T00:00:00	2024-11-08T23:00:00	5	Humedad	86
75181	7	Sololá	717	San Juan la Laguna	12	San Juan la Laguna	9	Septiembre	2023-02-09T00:00:00	2024-11-08T23:00:00	6	Velocidad del viento	0
75182	7	Sololá	717	San Juan la Laguna	12	San Juan la Laguna	9	Septiembre	2023-02-09T00:00:00	2024-11-08T23:00:00	7	Dirección del viento	0
75183	7	Sololá	717	San Juan la Laguna	12	San Juan la Laguna	9	Septiembre	2023-02-09T00:00:00	2024-11-08T23:00:00	1	Precipitación	0
75184	7	Sololá	717	San Juan la Laguna	12	San Juan la Laguna	9	Septiembre	2023-02-09T00:00:00	2024-11-08T23:00:00	8	Radiación solar	0
75185	7	Sololá	717	San Juan la Laguna	12	San Juan la Laguna	9	Septiembre	2023-03-09T00:00:00	2024-11-08T00:00:00	2	Temperatura media	18.5
75186	7	Sololá	717	San Juan la Laguna	12	San Juan la Laguna	9	Septiembre	2023-03-09T00:00:00	2024-11-08T00:00:00	4	Temperatura máxima	18.5
75187	7	Sololá	717	San Juan la Laguna	12	San Juan la Laguna	9	Septiembre	2023-03-09T00:00:00	2024-11-08T00:00:00	3	Temperatura mínima	18.2
75188	7	Sololá	717	San Juan la Laguna	12	San Juan la Laguna	9	Septiembre	2023-03-09T00:00:00	2024-11-08T00:00:00	5	Humedad	84
75189	7	Sololá	717	San Juan la Laguna	12	San Juan la Laguna	9	Septiembre	2023-03-09T00:00:00	2024-11-08T00:00:00	6	Velocidad del viento	0
75190	7	Sololá	717	San Juan la Laguna	12	San Juan la Laguna	9	Septiembre	2023-03-09T00:00:00	2024-11-08T00:00:00	7	Dirección del viento	0
75191	7	Sololá	717	San Juan la Laguna	12	San Juan la Laguna	9	Septiembre	2023-03-09T00:00:00	2024-11-08T00:00:00	1	Precipitación	0
75192	7	Sololá	717	San Juan la Laguna	12	San Juan la Laguna	9	Septiembre	2023-03-09T00:00:00	2024-11-08T00:00:00	8	Radiación solar	0
75193	7	Sololá	717	San Juan la Laguna	12	San Juan la Laguna	9	Septiembre	2023-03-09T00:00:00	2024-11-08T01:00:00	2	Temperatura media	18.6
75194	7	Sololá	717	San Juan la Laguna	12	San Juan la Laguna	9	Septiembre	2023-03-09T00:00:00	2024-11-08T01:00:00	4	Temperatura máxima	19.8
75195	7	Sololá	717	San Juan la Laguna	12	San Juan la Laguna	9	Septiembre	2023-03-09T00:00:00	2024-11-08T01:00:00	3	Temperatura mínima	18.4
75196	7	Sololá	717	San Juan la Laguna	12	San Juan la Laguna	9	Septiembre	2023-03-09T00:00:00	2024-11-08T01:00:00	5	Humedad	82
75197	7	Sololá	717	San Juan la Laguna	12	San Juan la Laguna	9	Septiembre	2023-03-09T00:00:00	2024-11-08T01:00:00	6	Velocidad del viento	0
75198	7	Sololá	717	San Juan la Laguna	12	San Juan la Laguna	9	Septiembre	2023-03-09T00:00:00	2024-11-08T01:00:00	7	Dirección del viento	0
75199	7	Sololá	717	San Juan la Laguna	12	San Juan la Laguna	9	Septiembre	2023-03-09T00:00:00	2024-11-08T01:00:00	1	Precipitación	0
75200	7	Sololá	717	San Juan la Laguna	12	San Juan la Laguna	9	Septiembre	2023-03-09T00:00:00	2024-11-08T01:00:00	8	Radiación solar	0
75201	7	Sololá	717	San Juan la Laguna	12	San Juan la Laguna	9	Septiembre	2023-03-09T00:00:00	2024-11-08T02:00:00	2	Temperatura media	20
75202	7	Sololá	717	San Juan la Laguna	12	San Juan la Laguna	9	Septiembre	2023-03-09T00:00:00	2024-11-08T02:00:00	4	Temperatura máxima	20
75203	7	Sololá	717	San Juan la Laguna	12	San Juan la Laguna	9	Septiembre	2023-03-09T00:00:00	2024-11-08T02:00:00	3	Temperatura mínima	18.2
75204	7	Sololá	717	San Juan la Laguna	12	San Juan la Laguna	9	Septiembre	2023-03-09T00:00:00	2024-11-08T02:00:00	5	Humedad	75
75205	7	Sololá	717	San Juan la Laguna	12	San Juan la Laguna	9	Septiembre	2023-03-09T00:00:00	2024-11-08T02:00:00	6	Velocidad del viento	0
75206	7	Sololá	717	San Juan la Laguna	12	San Juan la Laguna	9	Septiembre	2023-03-09T00:00:00	2024-11-08T02:00:00	7	Dirección del viento	0
75207	7	Sololá	717	San Juan la Laguna	12	San Juan la Laguna	9	Septiembre	2023-03-09T00:00:00	2024-11-08T02:00:00	1	Precipitación	0
75208	7	Sololá	717	San Juan la Laguna	12	San Juan la Laguna	9	Septiembre	2023-03-09T00:00:00	2024-11-08T02:00:00	8	Radiación solar	0
75209	7	Sololá	717	San Juan la Laguna	12	San Juan la Laguna	9	Septiembre	2023-03-09T00:00:00	2024-11-08T03:00:00	2	Temperatura media	20.1
75210	7	Sololá	717	San Juan la Laguna	12	San Juan la Laguna	9	Septiembre	2023-03-09T00:00:00	2024-11-08T03:00:00	4	Temperatura máxima	20.6
75211	7	Sololá	717	San Juan la Laguna	12	San Juan la Laguna	9	Septiembre	2023-03-09T00:00:00	2024-11-08T03:00:00	3	Temperatura mínima	19.9
75212	7	Sololá	717	San Juan la Laguna	12	San Juan la Laguna	9	Septiembre	2023-03-09T00:00:00	2024-11-08T03:00:00	5	Humedad	73
75213	7	Sololá	717	San Juan la Laguna	12	San Juan la Laguna	9	Septiembre	2023-03-09T00:00:00	2024-11-08T03:00:00	6	Velocidad del viento	1.6
75214	7	Sololá	717	San Juan la Laguna	12	San Juan la Laguna	9	Septiembre	2023-03-09T00:00:00	2024-11-08T03:00:00	7	Dirección del viento	1.61
75215	7	Sololá	717	San Juan la Laguna	12	San Juan la Laguna	9	Septiembre	2023-03-09T00:00:00	2024-11-08T03:00:00	1	Precipitación	0
75216	7	Sololá	717	San Juan la Laguna	12	San Juan la Laguna	9	Septiembre	2023-03-09T00:00:00	2024-11-08T03:00:00	8	Radiación solar	0
75217	7	Sololá	717	San Juan la Laguna	12	San Juan la Laguna	9	Septiembre	2023-03-09T00:00:00	2024-11-08T04:00:00	2	Temperatura media	17.8
75218	7	Sololá	717	San Juan la Laguna	12	San Juan la Laguna	9	Septiembre	2023-03-09T00:00:00	2024-11-08T04:00:00	4	Temperatura máxima	20.7
75219	7	Sololá	717	San Juan la Laguna	12	San Juan la Laguna	9	Septiembre	2023-03-09T00:00:00	2024-11-08T04:00:00	3	Temperatura mínima	17.8
75220	7	Sololá	717	San Juan la Laguna	12	San Juan la Laguna	9	Septiembre	2023-03-09T00:00:00	2024-11-08T04:00:00	5	Humedad	81
75221	7	Sololá	717	San Juan la Laguna	12	San Juan la Laguna	9	Septiembre	2023-03-09T00:00:00	2024-11-08T04:00:00	6	Velocidad del viento	1.6
75222	7	Sololá	717	San Juan la Laguna	12	San Juan la Laguna	9	Septiembre	2023-03-09T00:00:00	2024-11-08T04:00:00	7	Dirección del viento	1.61
75223	7	Sololá	717	San Juan la Laguna	12	San Juan la Laguna	9	Septiembre	2023-03-09T00:00:00	2024-11-08T04:00:00	1	Precipitación	0
75224	7	Sololá	717	San Juan la Laguna	12	San Juan la Laguna	9	Septiembre	2023-03-09T00:00:00	2024-11-08T04:00:00	8	Radiación solar	0
75225	7	Sololá	717	San Juan la Laguna	12	San Juan la Laguna	9	Septiembre	2023-03-09T00:00:00	2024-11-08T05:00:00	2	Temperatura media	20.3
75226	7	Sololá	717	San Juan la Laguna	12	San Juan la Laguna	9	Septiembre	2023-03-09T00:00:00	2024-11-08T05:00:00	4	Temperatura máxima	20.3
75227	7	Sololá	717	San Juan la Laguna	12	San Juan la Laguna	9	Septiembre	2023-03-09T00:00:00	2024-11-08T05:00:00	3	Temperatura mínima	17.7
75228	7	Sololá	717	San Juan la Laguna	12	San Juan la Laguna	9	Septiembre	2023-03-09T00:00:00	2024-11-08T05:00:00	5	Humedad	72
75229	7	Sololá	717	San Juan la Laguna	12	San Juan la Laguna	9	Septiembre	2023-03-09T00:00:00	2024-11-08T05:00:00	6	Velocidad del viento	4.8
75230	7	Sololá	717	San Juan la Laguna	12	San Juan la Laguna	9	Septiembre	2023-03-09T00:00:00	2024-11-08T05:00:00	7	Dirección del viento	4.83
75231	7	Sololá	717	San Juan la Laguna	12	San Juan la Laguna	9	Septiembre	2023-03-09T00:00:00	2024-11-08T05:00:00	1	Precipitación	0
75232	7	Sololá	717	San Juan la Laguna	12	San Juan la Laguna	9	Septiembre	2023-03-09T00:00:00	2024-11-08T05:00:00	8	Radiación solar	0
75233	7	Sololá	717	San Juan la Laguna	12	San Juan la Laguna	9	Septiembre	2023-03-09T00:00:00	2024-11-08T06:00:00	2	Temperatura media	20.8
75234	7	Sololá	717	San Juan la Laguna	12	San Juan la Laguna	9	Septiembre	2023-03-09T00:00:00	2024-11-08T06:00:00	4	Temperatura máxima	20.8
75235	7	Sololá	717	San Juan la Laguna	12	San Juan la Laguna	9	Septiembre	2023-03-09T00:00:00	2024-11-08T06:00:00	3	Temperatura mínima	19.6
75236	7	Sololá	717	San Juan la Laguna	12	San Juan la Laguna	9	Septiembre	2023-03-09T00:00:00	2024-11-08T06:00:00	5	Humedad	65
75237	7	Sololá	717	San Juan la Laguna	12	San Juan la Laguna	9	Septiembre	2023-03-09T00:00:00	2024-11-08T06:00:00	6	Velocidad del viento	6.4
75238	7	Sololá	717	San Juan la Laguna	12	San Juan la Laguna	9	Septiembre	2023-03-09T00:00:00	2024-11-08T06:00:00	7	Dirección del viento	6.44
75239	7	Sololá	717	San Juan la Laguna	12	San Juan la Laguna	9	Septiembre	2023-03-09T00:00:00	2024-11-08T06:00:00	1	Precipitación	0
75240	7	Sololá	717	San Juan la Laguna	12	San Juan la Laguna	9	Septiembre	2023-03-09T00:00:00	2024-11-08T06:00:00	8	Radiación solar	0
75241	7	Sololá	717	San Juan la Laguna	12	San Juan la Laguna	9	Septiembre	2023-03-09T00:00:00	2024-11-08T07:00:00	2	Temperatura media	21.1
75242	7	Sololá	717	San Juan la Laguna	12	San Juan la Laguna	9	Septiembre	2023-03-09T00:00:00	2024-11-08T07:00:00	4	Temperatura máxima	21.3
75243	7	Sololá	717	San Juan la Laguna	12	San Juan la Laguna	9	Septiembre	2023-03-09T00:00:00	2024-11-08T07:00:00	3	Temperatura mínima	20.8
75244	7	Sololá	717	San Juan la Laguna	12	San Juan la Laguna	9	Septiembre	2023-03-09T00:00:00	2024-11-08T07:00:00	5	Humedad	67
75245	7	Sololá	717	San Juan la Laguna	12	San Juan la Laguna	9	Septiembre	2023-03-09T00:00:00	2024-11-08T07:00:00	6	Velocidad del viento	1.6
75246	7	Sololá	717	San Juan la Laguna	12	San Juan la Laguna	9	Septiembre	2023-03-09T00:00:00	2024-11-08T07:00:00	7	Dirección del viento	1.61
75247	7	Sololá	717	San Juan la Laguna	12	San Juan la Laguna	9	Septiembre	2023-03-09T00:00:00	2024-11-08T07:00:00	1	Precipitación	0
75248	7	Sololá	717	San Juan la Laguna	12	San Juan la Laguna	9	Septiembre	2023-03-09T00:00:00	2024-11-08T07:00:00	8	Radiación solar	65
75249	7	Sololá	717	San Juan la Laguna	12	San Juan la Laguna	9	Septiembre	2023-03-09T00:00:00	2024-11-08T08:00:00	2	Temperatura media	21.7
75250	7	Sololá	717	San Juan la Laguna	12	San Juan la Laguna	9	Septiembre	2023-03-09T00:00:00	2024-11-08T08:00:00	4	Temperatura máxima	22.3
75251	7	Sololá	717	San Juan la Laguna	12	San Juan la Laguna	9	Septiembre	2023-03-09T00:00:00	2024-11-08T08:00:00	3	Temperatura mínima	21.2
75252	7	Sololá	717	San Juan la Laguna	12	San Juan la Laguna	9	Septiembre	2023-03-09T00:00:00	2024-11-08T08:00:00	5	Humedad	65
75253	7	Sololá	717	San Juan la Laguna	12	San Juan la Laguna	9	Septiembre	2023-03-09T00:00:00	2024-11-08T08:00:00	6	Velocidad del viento	0
75254	7	Sololá	717	San Juan la Laguna	12	San Juan la Laguna	9	Septiembre	2023-03-09T00:00:00	2024-11-08T08:00:00	7	Dirección del viento	0
75255	7	Sololá	717	San Juan la Laguna	12	San Juan la Laguna	9	Septiembre	2023-03-09T00:00:00	2024-11-08T08:00:00	1	Precipitación	0
75256	7	Sololá	717	San Juan la Laguna	12	San Juan la Laguna	9	Septiembre	2023-03-09T00:00:00	2024-11-08T08:00:00	8	Radiación solar	175
75257	7	Sololá	717	San Juan la Laguna	12	San Juan la Laguna	9	Septiembre	2023-03-09T00:00:00	2024-11-08T09:00:00	2	Temperatura media	23.4
75258	7	Sololá	717	San Juan la Laguna	12	San Juan la Laguna	9	Septiembre	2023-03-09T00:00:00	2024-11-08T09:00:00	4	Temperatura máxima	23.6
75259	7	Sololá	717	San Juan la Laguna	12	San Juan la Laguna	9	Septiembre	2023-03-09T00:00:00	2024-11-08T09:00:00	3	Temperatura mínima	21.5
75260	7	Sololá	717	San Juan la Laguna	12	San Juan la Laguna	9	Septiembre	2023-03-09T00:00:00	2024-11-08T09:00:00	5	Humedad	62
75261	7	Sololá	717	San Juan la Laguna	12	San Juan la Laguna	9	Septiembre	2023-03-09T00:00:00	2024-11-08T09:00:00	6	Velocidad del viento	0
75262	7	Sololá	717	San Juan la Laguna	12	San Juan la Laguna	9	Septiembre	2023-03-09T00:00:00	2024-11-08T09:00:00	7	Dirección del viento	0
75263	7	Sololá	717	San Juan la Laguna	12	San Juan la Laguna	9	Septiembre	2023-03-09T00:00:00	2024-11-08T09:00:00	1	Precipitación	0
75264	7	Sololá	717	San Juan la Laguna	12	San Juan la Laguna	9	Septiembre	2023-03-09T00:00:00	2024-11-08T09:00:00	8	Radiación solar	395
75265	7	Sololá	717	San Juan la Laguna	12	San Juan la Laguna	9	Septiembre	2023-03-09T00:00:00	2024-11-08T10:00:00	2	Temperatura media	24.3
75266	7	Sololá	717	San Juan la Laguna	12	San Juan la Laguna	9	Septiembre	2023-03-09T00:00:00	2024-11-08T10:00:00	4	Temperatura máxima	24.3
75267	7	Sololá	717	San Juan la Laguna	12	San Juan la Laguna	9	Septiembre	2023-03-09T00:00:00	2024-11-08T10:00:00	3	Temperatura mínima	23.1
75268	7	Sololá	717	San Juan la Laguna	12	San Juan la Laguna	9	Septiembre	2023-03-09T00:00:00	2024-11-08T10:00:00	5	Humedad	56
75269	7	Sololá	717	San Juan la Laguna	12	San Juan la Laguna	9	Septiembre	2023-03-09T00:00:00	2024-11-08T10:00:00	6	Velocidad del viento	0
75270	7	Sololá	717	San Juan la Laguna	12	San Juan la Laguna	9	Septiembre	2023-03-09T00:00:00	2024-11-08T10:00:00	7	Dirección del viento	0
75271	7	Sololá	717	San Juan la Laguna	12	San Juan la Laguna	9	Septiembre	2023-03-09T00:00:00	2024-11-08T10:00:00	1	Precipitación	0
75272	7	Sololá	717	San Juan la Laguna	12	San Juan la Laguna	9	Septiembre	2023-03-09T00:00:00	2024-11-08T10:00:00	8	Radiación solar	650
75273	7	Sololá	717	San Juan la Laguna	12	San Juan la Laguna	9	Septiembre	2023-03-09T00:00:00	2024-11-08T11:00:00	2	Temperatura media	25.9
75274	7	Sololá	717	San Juan la Laguna	12	San Juan la Laguna	9	Septiembre	2023-03-09T00:00:00	2024-11-08T11:00:00	4	Temperatura máxima	26.3
75275	7	Sololá	717	San Juan la Laguna	12	San Juan la Laguna	9	Septiembre	2023-03-09T00:00:00	2024-11-08T11:00:00	3	Temperatura mínima	24.3
75276	7	Sololá	717	San Juan la Laguna	12	San Juan la Laguna	9	Septiembre	2023-03-09T00:00:00	2024-11-08T11:00:00	5	Humedad	50
75277	7	Sololá	717	San Juan la Laguna	12	San Juan la Laguna	9	Septiembre	2023-03-09T00:00:00	2024-11-08T11:00:00	6	Velocidad del viento	0
75278	7	Sololá	717	San Juan la Laguna	12	San Juan la Laguna	9	Septiembre	2023-03-09T00:00:00	2024-11-08T11:00:00	7	Dirección del viento	0
75279	7	Sololá	717	San Juan la Laguna	12	San Juan la Laguna	9	Septiembre	2023-03-09T00:00:00	2024-11-08T11:00:00	1	Precipitación	0
75280	7	Sololá	717	San Juan la Laguna	12	San Juan la Laguna	9	Septiembre	2023-03-09T00:00:00	2024-11-08T11:00:00	8	Radiación solar	849
75281	7	Sololá	717	San Juan la Laguna	12	San Juan la Laguna	9	Septiembre	2023-03-09T00:00:00	2024-11-08T12:00:00	2	Temperatura media	25.9
75282	7	Sololá	717	San Juan la Laguna	12	San Juan la Laguna	9	Septiembre	2023-03-09T00:00:00	2024-11-08T12:00:00	4	Temperatura máxima	26.3
75283	7	Sololá	717	San Juan la Laguna	12	San Juan la Laguna	9	Septiembre	2023-03-09T00:00:00	2024-11-08T12:00:00	3	Temperatura mínima	25.7
75284	7	Sololá	717	San Juan la Laguna	12	San Juan la Laguna	9	Septiembre	2023-03-09T00:00:00	2024-11-08T12:00:00	5	Humedad	60
75285	7	Sololá	717	San Juan la Laguna	12	San Juan la Laguna	9	Septiembre	2023-03-09T00:00:00	2024-11-08T12:00:00	6	Velocidad del viento	0
75286	7	Sololá	717	San Juan la Laguna	12	San Juan la Laguna	9	Septiembre	2023-03-09T00:00:00	2024-11-08T12:00:00	7	Dirección del viento	0
75287	7	Sololá	717	San Juan la Laguna	12	San Juan la Laguna	9	Septiembre	2023-03-09T00:00:00	2024-11-08T12:00:00	1	Precipitación	0
75288	7	Sololá	717	San Juan la Laguna	12	San Juan la Laguna	9	Septiembre	2023-03-09T00:00:00	2024-11-08T12:00:00	8	Radiación solar	943
75289	7	Sololá	717	San Juan la Laguna	12	San Juan la Laguna	9	Septiembre	2023-03-09T00:00:00	2024-11-08T13:00:00	2	Temperatura media	25.4
75290	7	Sololá	717	San Juan la Laguna	12	San Juan la Laguna	9	Septiembre	2023-03-09T00:00:00	2024-11-08T13:00:00	4	Temperatura máxima	26.3
75291	7	Sololá	717	San Juan la Laguna	12	San Juan la Laguna	9	Septiembre	2023-03-09T00:00:00	2024-11-08T13:00:00	3	Temperatura mínima	24.8
75292	7	Sololá	717	San Juan la Laguna	12	San Juan la Laguna	9	Septiembre	2023-03-09T00:00:00	2024-11-08T13:00:00	5	Humedad	64
75293	7	Sololá	717	San Juan la Laguna	12	San Juan la Laguna	9	Septiembre	2023-03-09T00:00:00	2024-11-08T13:00:00	6	Velocidad del viento	1.6
75294	7	Sololá	717	San Juan la Laguna	12	San Juan la Laguna	9	Septiembre	2023-03-09T00:00:00	2024-11-08T13:00:00	7	Dirección del viento	1.61
75295	7	Sololá	717	San Juan la Laguna	12	San Juan la Laguna	9	Septiembre	2023-03-09T00:00:00	2024-11-08T13:00:00	1	Precipitación	0
75296	7	Sololá	717	San Juan la Laguna	12	San Juan la Laguna	9	Septiembre	2023-03-09T00:00:00	2024-11-08T13:00:00	8	Radiación solar	1004
75297	7	Sololá	717	San Juan la Laguna	12	San Juan la Laguna	9	Septiembre	2023-03-09T00:00:00	2024-11-08T14:00:00	2	Temperatura media	24.8
75298	7	Sololá	717	San Juan la Laguna	12	San Juan la Laguna	9	Septiembre	2023-03-09T00:00:00	2024-11-08T14:00:00	4	Temperatura máxima	25.4
75299	7	Sololá	717	San Juan la Laguna	12	San Juan la Laguna	9	Septiembre	2023-03-09T00:00:00	2024-11-08T14:00:00	3	Temperatura mínima	24.7
75300	7	Sololá	717	San Juan la Laguna	12	San Juan la Laguna	9	Septiembre	2023-03-09T00:00:00	2024-11-08T14:00:00	5	Humedad	68
75301	7	Sololá	717	San Juan la Laguna	12	San Juan la Laguna	9	Septiembre	2023-03-09T00:00:00	2024-11-08T14:00:00	6	Velocidad del viento	0
75302	7	Sololá	717	San Juan la Laguna	12	San Juan la Laguna	9	Septiembre	2023-03-09T00:00:00	2024-11-08T14:00:00	7	Dirección del viento	0
75303	7	Sololá	717	San Juan la Laguna	12	San Juan la Laguna	9	Septiembre	2023-03-09T00:00:00	2024-11-08T14:00:00	1	Precipitación	0
75304	7	Sololá	717	San Juan la Laguna	12	San Juan la Laguna	9	Septiembre	2023-03-09T00:00:00	2024-11-08T14:00:00	8	Radiación solar	770
75305	7	Sololá	717	San Juan la Laguna	12	San Juan la Laguna	9	Septiembre	2023-03-09T00:00:00	2024-11-08T15:00:00	2	Temperatura media	21.8
75306	7	Sololá	717	San Juan la Laguna	12	San Juan la Laguna	9	Septiembre	2023-03-09T00:00:00	2024-11-08T15:00:00	4	Temperatura máxima	24.8
75307	7	Sololá	717	San Juan la Laguna	12	San Juan la Laguna	9	Septiembre	2023-03-09T00:00:00	2024-11-08T15:00:00	3	Temperatura mínima	21.8
75308	7	Sololá	717	San Juan la Laguna	12	San Juan la Laguna	9	Septiembre	2023-03-09T00:00:00	2024-11-08T15:00:00	5	Humedad	78
75309	7	Sololá	717	San Juan la Laguna	12	San Juan la Laguna	9	Septiembre	2023-03-09T00:00:00	2024-11-08T15:00:00	6	Velocidad del viento	4.8
75310	7	Sololá	717	San Juan la Laguna	12	San Juan la Laguna	9	Septiembre	2023-03-09T00:00:00	2024-11-08T15:00:00	7	Dirección del viento	4.83
75311	7	Sololá	717	San Juan la Laguna	12	San Juan la Laguna	9	Septiembre	2023-03-09T00:00:00	2024-11-08T15:00:00	1	Precipitación	0
75312	7	Sololá	717	San Juan la Laguna	12	San Juan la Laguna	9	Septiembre	2023-03-09T00:00:00	2024-11-08T15:00:00	8	Radiación solar	577
75313	7	Sololá	717	San Juan la Laguna	12	San Juan la Laguna	9	Septiembre	2023-03-09T00:00:00	2024-11-08T16:00:00	2	Temperatura media	20.6
75314	7	Sololá	717	San Juan la Laguna	12	San Juan la Laguna	9	Septiembre	2023-03-09T00:00:00	2024-11-08T16:00:00	4	Temperatura máxima	22.6
75315	7	Sololá	717	San Juan la Laguna	12	San Juan la Laguna	9	Septiembre	2023-03-09T00:00:00	2024-11-08T16:00:00	3	Temperatura mínima	20.6
75316	7	Sololá	717	San Juan la Laguna	12	San Juan la Laguna	9	Septiembre	2023-03-09T00:00:00	2024-11-08T16:00:00	5	Humedad	83
75317	7	Sololá	717	San Juan la Laguna	12	San Juan la Laguna	9	Septiembre	2023-03-09T00:00:00	2024-11-08T16:00:00	6	Velocidad del viento	9.7
75318	7	Sololá	717	San Juan la Laguna	12	San Juan la Laguna	9	Septiembre	2023-03-09T00:00:00	2024-11-08T16:00:00	7	Dirección del viento	9.66
75319	7	Sololá	717	San Juan la Laguna	12	San Juan la Laguna	9	Septiembre	2023-03-09T00:00:00	2024-11-08T16:00:00	1	Precipitación	0
75320	7	Sololá	717	San Juan la Laguna	12	San Juan la Laguna	9	Septiembre	2023-03-09T00:00:00	2024-11-08T16:00:00	8	Radiación solar	452
75321	7	Sololá	717	San Juan la Laguna	12	San Juan la Laguna	9	Septiembre	2023-03-09T00:00:00	2024-11-08T17:00:00	2	Temperatura media	19.6
75322	7	Sololá	717	San Juan la Laguna	12	San Juan la Laguna	9	Septiembre	2023-03-09T00:00:00	2024-11-08T17:00:00	4	Temperatura máxima	20.6
75323	7	Sololá	717	San Juan la Laguna	12	San Juan la Laguna	9	Septiembre	2023-03-09T00:00:00	2024-11-08T17:00:00	3	Temperatura mínima	19.1
75324	7	Sololá	717	San Juan la Laguna	12	San Juan la Laguna	9	Septiembre	2023-03-09T00:00:00	2024-11-08T17:00:00	5	Humedad	86
75325	7	Sololá	717	San Juan la Laguna	12	San Juan la Laguna	9	Septiembre	2023-03-09T00:00:00	2024-11-08T17:00:00	6	Velocidad del viento	12.9
75326	7	Sololá	717	San Juan la Laguna	12	San Juan la Laguna	9	Septiembre	2023-03-09T00:00:00	2024-11-08T17:00:00	7	Dirección del viento	12.87
75327	7	Sololá	717	San Juan la Laguna	12	San Juan la Laguna	9	Septiembre	2023-03-09T00:00:00	2024-11-08T17:00:00	1	Precipitación	0
75328	7	Sololá	717	San Juan la Laguna	12	San Juan la Laguna	9	Septiembre	2023-03-09T00:00:00	2024-11-08T17:00:00	8	Radiación solar	164
75329	7	Sololá	717	San Juan la Laguna	12	San Juan la Laguna	9	Septiembre	2023-03-09T00:00:00	2024-11-08T18:00:00	2	Temperatura media	17.8
75330	7	Sololá	717	San Juan la Laguna	12	San Juan la Laguna	9	Septiembre	2023-03-09T00:00:00	2024-11-08T18:00:00	4	Temperatura máxima	19.6
75331	7	Sololá	717	San Juan la Laguna	12	San Juan la Laguna	9	Septiembre	2023-03-09T00:00:00	2024-11-08T18:00:00	3	Temperatura mínima	17.8
75332	7	Sololá	717	San Juan la Laguna	12	San Juan la Laguna	9	Septiembre	2023-03-09T00:00:00	2024-11-08T18:00:00	5	Humedad	90
75333	7	Sololá	717	San Juan la Laguna	12	San Juan la Laguna	9	Septiembre	2023-03-09T00:00:00	2024-11-08T18:00:00	6	Velocidad del viento	8
75334	7	Sololá	717	San Juan la Laguna	12	San Juan la Laguna	9	Septiembre	2023-03-09T00:00:00	2024-11-08T18:00:00	7	Dirección del viento	8.05
75335	7	Sololá	717	San Juan la Laguna	12	San Juan la Laguna	9	Septiembre	2023-03-09T00:00:00	2024-11-08T18:00:00	1	Precipitación	4
75336	7	Sololá	717	San Juan la Laguna	12	San Juan la Laguna	9	Septiembre	2023-03-09T00:00:00	2024-11-08T18:00:00	8	Radiación solar	13
75337	7	Sololá	717	San Juan la Laguna	12	San Juan la Laguna	9	Septiembre	2023-03-09T00:00:00	2024-11-08T19:00:00	2	Temperatura media	17.2
75338	7	Sololá	717	San Juan la Laguna	12	San Juan la Laguna	9	Septiembre	2023-03-09T00:00:00	2024-11-08T19:00:00	4	Temperatura máxima	17.8
75339	7	Sololá	717	San Juan la Laguna	12	San Juan la Laguna	9	Septiembre	2023-03-09T00:00:00	2024-11-08T19:00:00	3	Temperatura mínima	17.2
75340	7	Sololá	717	San Juan la Laguna	12	San Juan la Laguna	9	Septiembre	2023-03-09T00:00:00	2024-11-08T19:00:00	5	Humedad	91
75341	7	Sololá	717	San Juan la Laguna	12	San Juan la Laguna	9	Septiembre	2023-03-09T00:00:00	2024-11-08T19:00:00	6	Velocidad del viento	3.2
75342	7	Sololá	717	San Juan la Laguna	12	San Juan la Laguna	9	Septiembre	2023-03-09T00:00:00	2024-11-08T19:00:00	7	Dirección del viento	3.22
75343	7	Sololá	717	San Juan la Laguna	12	San Juan la Laguna	9	Septiembre	2023-03-09T00:00:00	2024-11-08T19:00:00	1	Precipitación	5.4
75344	7	Sololá	717	San Juan la Laguna	12	San Juan la Laguna	9	Septiembre	2023-03-09T00:00:00	2024-11-08T19:00:00	8	Radiación solar	0
75345	7	Sololá	717	San Juan la Laguna	12	San Juan la Laguna	9	Septiembre	2023-03-09T00:00:00	2024-11-08T20:00:00	2	Temperatura media	17.1
75346	7	Sololá	717	San Juan la Laguna	12	San Juan la Laguna	9	Septiembre	2023-03-09T00:00:00	2024-11-08T20:00:00	4	Temperatura máxima	17.2
75347	7	Sololá	717	San Juan la Laguna	12	San Juan la Laguna	9	Septiembre	2023-03-09T00:00:00	2024-11-08T20:00:00	3	Temperatura mínima	16.8
75348	7	Sololá	717	San Juan la Laguna	12	San Juan la Laguna	9	Septiembre	2023-03-09T00:00:00	2024-11-08T20:00:00	5	Humedad	92
75349	7	Sololá	717	San Juan la Laguna	12	San Juan la Laguna	9	Septiembre	2023-03-09T00:00:00	2024-11-08T20:00:00	6	Velocidad del viento	1.6
75350	7	Sololá	717	San Juan la Laguna	12	San Juan la Laguna	9	Septiembre	2023-03-09T00:00:00	2024-11-08T20:00:00	7	Dirección del viento	1.61
75351	7	Sololá	717	San Juan la Laguna	12	San Juan la Laguna	9	Septiembre	2023-03-09T00:00:00	2024-11-08T20:00:00	1	Precipitación	3
75352	7	Sololá	717	San Juan la Laguna	12	San Juan la Laguna	9	Septiembre	2023-03-09T00:00:00	2024-11-08T20:00:00	8	Radiación solar	0
75353	7	Sololá	717	San Juan la Laguna	12	San Juan la Laguna	9	Septiembre	2023-03-09T00:00:00	2024-11-08T21:00:00	2	Temperatura media	16.9
75354	7	Sololá	717	San Juan la Laguna	12	San Juan la Laguna	9	Septiembre	2023-03-09T00:00:00	2024-11-08T21:00:00	4	Temperatura máxima	17.2
75355	7	Sololá	717	San Juan la Laguna	12	San Juan la Laguna	9	Septiembre	2023-03-09T00:00:00	2024-11-08T21:00:00	3	Temperatura mínima	16.8
75356	7	Sololá	717	San Juan la Laguna	12	San Juan la Laguna	9	Septiembre	2023-03-09T00:00:00	2024-11-08T21:00:00	5	Humedad	92
75357	7	Sololá	717	San Juan la Laguna	12	San Juan la Laguna	9	Septiembre	2023-03-09T00:00:00	2024-11-08T21:00:00	6	Velocidad del viento	1.6
75358	7	Sololá	717	San Juan la Laguna	12	San Juan la Laguna	9	Septiembre	2023-03-09T00:00:00	2024-11-08T21:00:00	7	Dirección del viento	1.61
75359	7	Sololá	717	San Juan la Laguna	12	San Juan la Laguna	9	Septiembre	2023-03-09T00:00:00	2024-11-08T21:00:00	1	Precipitación	0
75360	7	Sololá	717	San Juan la Laguna	12	San Juan la Laguna	9	Septiembre	2023-03-09T00:00:00	2024-11-08T21:00:00	8	Radiación solar	0
75361	7	Sololá	717	San Juan la Laguna	12	San Juan la Laguna	9	Septiembre	2023-03-09T00:00:00	2024-11-08T22:00:00	2	Temperatura media	17.1
75362	7	Sololá	717	San Juan la Laguna	12	San Juan la Laguna	9	Septiembre	2023-03-09T00:00:00	2024-11-08T22:00:00	4	Temperatura máxima	17.1
75363	7	Sololá	717	San Juan la Laguna	12	San Juan la Laguna	9	Septiembre	2023-03-09T00:00:00	2024-11-08T22:00:00	3	Temperatura mínima	16.8
75364	7	Sololá	717	San Juan la Laguna	12	San Juan la Laguna	9	Septiembre	2023-03-09T00:00:00	2024-11-08T22:00:00	5	Humedad	92
75365	7	Sololá	717	San Juan la Laguna	12	San Juan la Laguna	9	Septiembre	2023-03-09T00:00:00	2024-11-08T22:00:00	6	Velocidad del viento	0
75366	7	Sololá	717	San Juan la Laguna	12	San Juan la Laguna	9	Septiembre	2023-03-09T00:00:00	2024-11-08T22:00:00	7	Dirección del viento	0
75367	7	Sololá	717	San Juan la Laguna	12	San Juan la Laguna	9	Septiembre	2023-03-09T00:00:00	2024-11-08T22:00:00	1	Precipitación	1.4
75368	7	Sololá	717	San Juan la Laguna	12	San Juan la Laguna	9	Septiembre	2023-03-09T00:00:00	2024-11-08T22:00:00	8	Radiación solar	0
75369	7	Sololá	717	San Juan la Laguna	12	San Juan la Laguna	9	Septiembre	2023-03-09T00:00:00	2024-11-08T23:00:00	2	Temperatura media	16.7
75370	7	Sololá	717	San Juan la Laguna	12	San Juan la Laguna	9	Septiembre	2023-03-09T00:00:00	2024-11-08T23:00:00	4	Temperatura máxima	17.1
75371	7	Sololá	717	San Juan la Laguna	12	San Juan la Laguna	9	Septiembre	2023-03-09T00:00:00	2024-11-08T23:00:00	3	Temperatura mínima	16.7
75372	7	Sololá	717	San Juan la Laguna	12	San Juan la Laguna	9	Septiembre	2023-03-09T00:00:00	2024-11-08T23:00:00	5	Humedad	92
75373	7	Sololá	717	San Juan la Laguna	12	San Juan la Laguna	9	Septiembre	2023-03-09T00:00:00	2024-11-08T23:00:00	6	Velocidad del viento	0
75374	7	Sololá	717	San Juan la Laguna	12	San Juan la Laguna	9	Septiembre	2023-03-09T00:00:00	2024-11-08T23:00:00	7	Dirección del viento	0
75375	7	Sololá	717	San Juan la Laguna	12	San Juan la Laguna	9	Septiembre	2023-03-09T00:00:00	2024-11-08T23:00:00	1	Precipitación	0.8
75376	7	Sololá	717	San Juan la Laguna	12	San Juan la Laguna	9	Septiembre	2023-03-09T00:00:00	2024-11-08T23:00:00	8	Radiación solar	0
75377	7	Sololá	717	San Juan la Laguna	12	San Juan la Laguna	9	Septiembre	2023-04-09T00:00:00	2024-11-08T00:00:00	2	Temperatura media	16.4
75378	7	Sololá	717	San Juan la Laguna	12	San Juan la Laguna	9	Septiembre	2023-04-09T00:00:00	2024-11-08T00:00:00	4	Temperatura máxima	16.8
75379	7	Sololá	717	San Juan la Laguna	12	San Juan la Laguna	9	Septiembre	2023-04-09T00:00:00	2024-11-08T00:00:00	3	Temperatura mínima	16.2
75380	7	Sololá	717	San Juan la Laguna	12	San Juan la Laguna	9	Septiembre	2023-04-09T00:00:00	2024-11-08T00:00:00	5	Humedad	89
75381	7	Sololá	717	San Juan la Laguna	12	San Juan la Laguna	9	Septiembre	2023-04-09T00:00:00	2024-11-08T00:00:00	6	Velocidad del viento	3.2
75382	7	Sololá	717	San Juan la Laguna	12	San Juan la Laguna	9	Septiembre	2023-04-09T00:00:00	2024-11-08T00:00:00	7	Dirección del viento	3.22
75383	7	Sololá	717	San Juan la Laguna	12	San Juan la Laguna	9	Septiembre	2023-04-09T00:00:00	2024-11-08T00:00:00	1	Precipitación	0
75384	7	Sololá	717	San Juan la Laguna	12	San Juan la Laguna	9	Septiembre	2023-04-09T00:00:00	2024-11-08T00:00:00	8	Radiación solar	0
75385	7	Sololá	717	San Juan la Laguna	12	San Juan la Laguna	9	Septiembre	2023-04-09T00:00:00	2024-11-08T01:00:00	2	Temperatura media	16.2
75386	7	Sololá	717	San Juan la Laguna	12	San Juan la Laguna	9	Septiembre	2023-04-09T00:00:00	2024-11-08T01:00:00	4	Temperatura máxima	16.4
75387	7	Sololá	717	San Juan la Laguna	12	San Juan la Laguna	9	Septiembre	2023-04-09T00:00:00	2024-11-08T01:00:00	3	Temperatura mínima	16.1
75388	7	Sololá	717	San Juan la Laguna	12	San Juan la Laguna	9	Septiembre	2023-04-09T00:00:00	2024-11-08T01:00:00	5	Humedad	90
75389	7	Sololá	717	San Juan la Laguna	12	San Juan la Laguna	9	Septiembre	2023-04-09T00:00:00	2024-11-08T01:00:00	6	Velocidad del viento	1.6
75390	7	Sololá	717	San Juan la Laguna	12	San Juan la Laguna	9	Septiembre	2023-04-09T00:00:00	2024-11-08T01:00:00	7	Dirección del viento	1.61
75391	7	Sololá	717	San Juan la Laguna	12	San Juan la Laguna	9	Septiembre	2023-04-09T00:00:00	2024-11-08T01:00:00	1	Precipitación	0
75392	7	Sololá	717	San Juan la Laguna	12	San Juan la Laguna	9	Septiembre	2023-04-09T00:00:00	2024-11-08T01:00:00	8	Radiación solar	0
75393	7	Sololá	717	San Juan la Laguna	12	San Juan la Laguna	9	Septiembre	2023-04-09T00:00:00	2024-11-08T02:00:00	2	Temperatura media	16.1
75394	7	Sololá	717	San Juan la Laguna	12	San Juan la Laguna	9	Septiembre	2023-04-09T00:00:00	2024-11-08T02:00:00	4	Temperatura máxima	16.3
75395	7	Sololá	717	San Juan la Laguna	12	San Juan la Laguna	9	Septiembre	2023-04-09T00:00:00	2024-11-08T02:00:00	3	Temperatura mínima	16.1
75396	7	Sololá	717	San Juan la Laguna	12	San Juan la Laguna	9	Septiembre	2023-04-09T00:00:00	2024-11-08T02:00:00	5	Humedad	91
75397	7	Sololá	717	San Juan la Laguna	12	San Juan la Laguna	9	Septiembre	2023-04-09T00:00:00	2024-11-08T02:00:00	6	Velocidad del viento	3.2
75398	7	Sololá	717	San Juan la Laguna	12	San Juan la Laguna	9	Septiembre	2023-04-09T00:00:00	2024-11-08T02:00:00	7	Dirección del viento	3.22
75399	7	Sololá	717	San Juan la Laguna	12	San Juan la Laguna	9	Septiembre	2023-04-09T00:00:00	2024-11-08T02:00:00	1	Precipitación	0
75400	7	Sololá	717	San Juan la Laguna	12	San Juan la Laguna	9	Septiembre	2023-04-09T00:00:00	2024-11-08T02:00:00	8	Radiación solar	0
75401	7	Sololá	717	San Juan la Laguna	12	San Juan la Laguna	9	Septiembre	2023-04-09T00:00:00	2024-11-08T03:00:00	2	Temperatura media	15.7
75402	7	Sololá	717	San Juan la Laguna	12	San Juan la Laguna	9	Septiembre	2023-04-09T00:00:00	2024-11-08T03:00:00	4	Temperatura máxima	16.1
75403	7	Sololá	717	San Juan la Laguna	12	San Juan la Laguna	9	Septiembre	2023-04-09T00:00:00	2024-11-08T03:00:00	3	Temperatura mínima	15.6
75404	7	Sololá	717	San Juan la Laguna	12	San Juan la Laguna	9	Septiembre	2023-04-09T00:00:00	2024-11-08T03:00:00	5	Humedad	91
75405	7	Sololá	717	San Juan la Laguna	12	San Juan la Laguna	9	Septiembre	2023-04-09T00:00:00	2024-11-08T03:00:00	6	Velocidad del viento	1.6
75406	7	Sololá	717	San Juan la Laguna	12	San Juan la Laguna	9	Septiembre	2023-04-09T00:00:00	2024-11-08T03:00:00	7	Dirección del viento	1.61
75407	7	Sololá	717	San Juan la Laguna	12	San Juan la Laguna	9	Septiembre	2023-04-09T00:00:00	2024-11-08T03:00:00	1	Precipitación	0
75408	7	Sololá	717	San Juan la Laguna	12	San Juan la Laguna	9	Septiembre	2023-04-09T00:00:00	2024-11-08T03:00:00	8	Radiación solar	0
75409	7	Sololá	717	San Juan la Laguna	12	San Juan la Laguna	9	Septiembre	2023-04-09T00:00:00	2024-11-08T04:00:00	2	Temperatura media	15.3
75410	7	Sololá	717	San Juan la Laguna	12	San Juan la Laguna	9	Septiembre	2023-04-09T00:00:00	2024-11-08T04:00:00	4	Temperatura máxima	15.8
75411	7	Sololá	717	San Juan la Laguna	12	San Juan la Laguna	9	Septiembre	2023-04-09T00:00:00	2024-11-08T04:00:00	3	Temperatura mínima	15.3
75412	7	Sololá	717	San Juan la Laguna	12	San Juan la Laguna	9	Septiembre	2023-04-09T00:00:00	2024-11-08T04:00:00	5	Humedad	90
75413	7	Sololá	717	San Juan la Laguna	12	San Juan la Laguna	9	Septiembre	2023-04-09T00:00:00	2024-11-08T04:00:00	6	Velocidad del viento	1.6
75414	7	Sololá	717	San Juan la Laguna	12	San Juan la Laguna	9	Septiembre	2023-04-09T00:00:00	2024-11-08T04:00:00	7	Dirección del viento	1.61
75415	7	Sololá	717	San Juan la Laguna	12	San Juan la Laguna	9	Septiembre	2023-04-09T00:00:00	2024-11-08T04:00:00	1	Precipitación	0
75416	7	Sololá	717	San Juan la Laguna	12	San Juan la Laguna	9	Septiembre	2023-04-09T00:00:00	2024-11-08T04:00:00	8	Radiación solar	0
75417	7	Sololá	717	San Juan la Laguna	12	San Juan la Laguna	9	Septiembre	2023-04-09T00:00:00	2024-11-08T05:00:00	2	Temperatura media	15.7
75418	7	Sololá	717	San Juan la Laguna	12	San Juan la Laguna	9	Septiembre	2023-04-09T00:00:00	2024-11-08T05:00:00	4	Temperatura máxima	15.9
75419	7	Sololá	717	San Juan la Laguna	12	San Juan la Laguna	9	Septiembre	2023-04-09T00:00:00	2024-11-08T05:00:00	3	Temperatura mínima	15.3
75420	7	Sololá	717	San Juan la Laguna	12	San Juan la Laguna	9	Septiembre	2023-04-09T00:00:00	2024-11-08T05:00:00	5	Humedad	90
75421	7	Sololá	717	San Juan la Laguna	12	San Juan la Laguna	9	Septiembre	2023-04-09T00:00:00	2024-11-08T05:00:00	6	Velocidad del viento	4.8
75422	7	Sololá	717	San Juan la Laguna	12	San Juan la Laguna	9	Septiembre	2023-04-09T00:00:00	2024-11-08T05:00:00	7	Dirección del viento	4.83
75423	7	Sololá	717	San Juan la Laguna	12	San Juan la Laguna	9	Septiembre	2023-04-09T00:00:00	2024-11-08T05:00:00	1	Precipitación	0
75424	7	Sololá	717	San Juan la Laguna	12	San Juan la Laguna	9	Septiembre	2023-04-09T00:00:00	2024-11-08T05:00:00	8	Radiación solar	0
75425	7	Sololá	717	San Juan la Laguna	12	San Juan la Laguna	9	Septiembre	2023-04-09T00:00:00	2024-11-08T06:00:00	2	Temperatura media	15.5
75426	7	Sololá	717	San Juan la Laguna	12	San Juan la Laguna	9	Septiembre	2023-04-09T00:00:00	2024-11-08T06:00:00	4	Temperatura máxima	16
75427	7	Sololá	717	San Juan la Laguna	12	San Juan la Laguna	9	Septiembre	2023-04-09T00:00:00	2024-11-08T06:00:00	3	Temperatura mínima	15.4
75428	7	Sololá	717	San Juan la Laguna	12	San Juan la Laguna	9	Septiembre	2023-04-09T00:00:00	2024-11-08T06:00:00	5	Humedad	91
75429	7	Sololá	717	San Juan la Laguna	12	San Juan la Laguna	9	Septiembre	2023-04-09T00:00:00	2024-11-08T06:00:00	6	Velocidad del viento	4.8
75430	7	Sololá	717	San Juan la Laguna	12	San Juan la Laguna	9	Septiembre	2023-04-09T00:00:00	2024-11-08T06:00:00	7	Dirección del viento	4.83
75431	7	Sololá	717	San Juan la Laguna	12	San Juan la Laguna	9	Septiembre	2023-04-09T00:00:00	2024-11-08T06:00:00	1	Precipitación	0
75432	7	Sololá	717	San Juan la Laguna	12	San Juan la Laguna	9	Septiembre	2023-04-09T00:00:00	2024-11-08T06:00:00	8	Radiación solar	0
75433	7	Sololá	717	San Juan la Laguna	12	San Juan la Laguna	9	Septiembre	2023-04-09T00:00:00	2024-11-08T07:00:00	2	Temperatura media	16.3
75434	7	Sololá	717	San Juan la Laguna	12	San Juan la Laguna	9	Septiembre	2023-04-09T00:00:00	2024-11-08T07:00:00	4	Temperatura máxima	16.3
75435	7	Sololá	717	San Juan la Laguna	12	San Juan la Laguna	9	Septiembre	2023-04-09T00:00:00	2024-11-08T07:00:00	3	Temperatura mínima	15.3
75436	7	Sololá	717	San Juan la Laguna	12	San Juan la Laguna	9	Septiembre	2023-04-09T00:00:00	2024-11-08T07:00:00	5	Humedad	89
75437	7	Sololá	717	San Juan la Laguna	12	San Juan la Laguna	9	Septiembre	2023-04-09T00:00:00	2024-11-08T07:00:00	6	Velocidad del viento	1.6
75438	7	Sololá	717	San Juan la Laguna	12	San Juan la Laguna	9	Septiembre	2023-04-09T00:00:00	2024-11-08T07:00:00	7	Dirección del viento	1.61
75439	7	Sololá	717	San Juan la Laguna	12	San Juan la Laguna	9	Septiembre	2023-04-09T00:00:00	2024-11-08T07:00:00	1	Precipitación	0
75440	7	Sololá	717	San Juan la Laguna	12	San Juan la Laguna	9	Septiembre	2023-04-09T00:00:00	2024-11-08T07:00:00	8	Radiación solar	60
75441	7	Sololá	717	San Juan la Laguna	12	San Juan la Laguna	9	Septiembre	2023-04-09T00:00:00	2024-11-08T08:00:00	2	Temperatura media	19.8
75442	7	Sololá	717	San Juan la Laguna	12	San Juan la Laguna	9	Septiembre	2023-04-09T00:00:00	2024-11-08T08:00:00	4	Temperatura máxima	19.8
75443	7	Sololá	717	San Juan la Laguna	12	San Juan la Laguna	9	Septiembre	2023-04-09T00:00:00	2024-11-08T08:00:00	3	Temperatura mínima	16.3
75444	7	Sololá	717	San Juan la Laguna	12	San Juan la Laguna	9	Septiembre	2023-04-09T00:00:00	2024-11-08T08:00:00	5	Humedad	80
75445	7	Sololá	717	San Juan la Laguna	12	San Juan la Laguna	9	Septiembre	2023-04-09T00:00:00	2024-11-08T08:00:00	6	Velocidad del viento	0
75446	7	Sololá	717	San Juan la Laguna	12	San Juan la Laguna	9	Septiembre	2023-04-09T00:00:00	2024-11-08T08:00:00	7	Dirección del viento	0
75447	7	Sololá	717	San Juan la Laguna	12	San Juan la Laguna	9	Septiembre	2023-04-09T00:00:00	2024-11-08T08:00:00	1	Precipitación	0
75448	7	Sololá	717	San Juan la Laguna	12	San Juan la Laguna	9	Septiembre	2023-04-09T00:00:00	2024-11-08T08:00:00	8	Radiación solar	219
75449	7	Sololá	717	San Juan la Laguna	12	San Juan la Laguna	9	Septiembre	2023-04-09T00:00:00	2024-11-08T09:00:00	2	Temperatura media	21.6
75450	7	Sololá	717	San Juan la Laguna	12	San Juan la Laguna	9	Septiembre	2023-04-09T00:00:00	2024-11-08T09:00:00	4	Temperatura máxima	21.6
75451	7	Sololá	717	San Juan la Laguna	12	San Juan la Laguna	9	Septiembre	2023-04-09T00:00:00	2024-11-08T09:00:00	3	Temperatura mínima	19.8
75452	7	Sololá	717	San Juan la Laguna	12	San Juan la Laguna	9	Septiembre	2023-04-09T00:00:00	2024-11-08T09:00:00	5	Humedad	74
75453	7	Sololá	717	San Juan la Laguna	12	San Juan la Laguna	9	Septiembre	2023-04-09T00:00:00	2024-11-08T09:00:00	6	Velocidad del viento	0
75454	7	Sololá	717	San Juan la Laguna	12	San Juan la Laguna	9	Septiembre	2023-04-09T00:00:00	2024-11-08T09:00:00	7	Dirección del viento	0
75455	7	Sololá	717	San Juan la Laguna	12	San Juan la Laguna	9	Septiembre	2023-04-09T00:00:00	2024-11-08T09:00:00	1	Precipitación	0
75456	7	Sololá	717	San Juan la Laguna	12	San Juan la Laguna	9	Septiembre	2023-04-09T00:00:00	2024-11-08T09:00:00	8	Radiación solar	436
75457	7	Sololá	717	San Juan la Laguna	12	San Juan la Laguna	9	Septiembre	2023-04-09T00:00:00	2024-11-08T10:00:00	2	Temperatura media	23
75458	7	Sololá	717	San Juan la Laguna	12	San Juan la Laguna	9	Septiembre	2023-04-09T00:00:00	2024-11-08T10:00:00	4	Temperatura máxima	23.2
75459	7	Sololá	717	San Juan la Laguna	12	San Juan la Laguna	9	Septiembre	2023-04-09T00:00:00	2024-11-08T10:00:00	3	Temperatura mínima	21.6
75460	7	Sololá	717	San Juan la Laguna	12	San Juan la Laguna	9	Septiembre	2023-04-09T00:00:00	2024-11-08T10:00:00	5	Humedad	59
75461	7	Sololá	717	San Juan la Laguna	12	San Juan la Laguna	9	Septiembre	2023-04-09T00:00:00	2024-11-08T10:00:00	6	Velocidad del viento	0
75462	7	Sololá	717	San Juan la Laguna	12	San Juan la Laguna	9	Septiembre	2023-04-09T00:00:00	2024-11-08T10:00:00	7	Dirección del viento	0
75463	7	Sololá	717	San Juan la Laguna	12	San Juan la Laguna	9	Septiembre	2023-04-09T00:00:00	2024-11-08T10:00:00	1	Precipitación	0
75464	7	Sololá	717	San Juan la Laguna	12	San Juan la Laguna	9	Septiembre	2023-04-09T00:00:00	2024-11-08T10:00:00	8	Radiación solar	647
75465	7	Sololá	717	San Juan la Laguna	12	San Juan la Laguna	9	Septiembre	2023-04-09T00:00:00	2024-11-08T11:00:00	2	Temperatura media	25
75466	7	Sololá	717	San Juan la Laguna	12	San Juan la Laguna	9	Septiembre	2023-04-09T00:00:00	2024-11-08T11:00:00	4	Temperatura máxima	25.2
75467	7	Sololá	717	San Juan la Laguna	12	San Juan la Laguna	9	Septiembre	2023-04-09T00:00:00	2024-11-08T11:00:00	3	Temperatura mínima	23
75468	7	Sololá	717	San Juan la Laguna	12	San Juan la Laguna	9	Septiembre	2023-04-09T00:00:00	2024-11-08T11:00:00	5	Humedad	55
75469	7	Sololá	717	San Juan la Laguna	12	San Juan la Laguna	9	Septiembre	2023-04-09T00:00:00	2024-11-08T11:00:00	6	Velocidad del viento	0
75470	7	Sololá	717	San Juan la Laguna	12	San Juan la Laguna	9	Septiembre	2023-04-09T00:00:00	2024-11-08T11:00:00	7	Dirección del viento	0
75471	7	Sololá	717	San Juan la Laguna	12	San Juan la Laguna	9	Septiembre	2023-04-09T00:00:00	2024-11-08T11:00:00	1	Precipitación	0
75472	7	Sololá	717	San Juan la Laguna	12	San Juan la Laguna	9	Septiembre	2023-04-09T00:00:00	2024-11-08T11:00:00	8	Radiación solar	872
75473	7	Sololá	717	San Juan la Laguna	12	San Juan la Laguna	9	Septiembre	2023-04-09T00:00:00	2024-11-08T12:00:00	2	Temperatura media	25.9
75474	7	Sololá	717	San Juan la Laguna	12	San Juan la Laguna	9	Septiembre	2023-04-09T00:00:00	2024-11-08T12:00:00	4	Temperatura máxima	25.9
75475	7	Sololá	717	San Juan la Laguna	12	San Juan la Laguna	9	Septiembre	2023-04-09T00:00:00	2024-11-08T12:00:00	3	Temperatura mínima	24.8
75476	7	Sololá	717	San Juan la Laguna	12	San Juan la Laguna	9	Septiembre	2023-04-09T00:00:00	2024-11-08T12:00:00	5	Humedad	54
75477	7	Sololá	717	San Juan la Laguna	12	San Juan la Laguna	9	Septiembre	2023-04-09T00:00:00	2024-11-08T12:00:00	6	Velocidad del viento	0
75478	7	Sololá	717	San Juan la Laguna	12	San Juan la Laguna	9	Septiembre	2023-04-09T00:00:00	2024-11-08T12:00:00	7	Dirección del viento	0
75479	7	Sololá	717	San Juan la Laguna	12	San Juan la Laguna	9	Septiembre	2023-04-09T00:00:00	2024-11-08T12:00:00	1	Precipitación	0
75480	7	Sololá	717	San Juan la Laguna	12	San Juan la Laguna	9	Septiembre	2023-04-09T00:00:00	2024-11-08T12:00:00	8	Radiación solar	955
75481	7	Sololá	717	San Juan la Laguna	12	San Juan la Laguna	9	Septiembre	2023-04-09T00:00:00	2024-11-08T13:00:00	2	Temperatura media	24.2
75482	7	Sololá	717	San Juan la Laguna	12	San Juan la Laguna	9	Septiembre	2023-04-09T00:00:00	2024-11-08T13:00:00	4	Temperatura máxima	29.5
75483	7	Sololá	717	San Juan la Laguna	12	San Juan la Laguna	9	Septiembre	2023-04-09T00:00:00	2024-11-08T13:00:00	3	Temperatura mínima	24.2
75484	7	Sololá	717	San Juan la Laguna	12	San Juan la Laguna	9	Septiembre	2023-04-09T00:00:00	2024-11-08T13:00:00	5	Humedad	70
75485	7	Sololá	717	San Juan la Laguna	12	San Juan la Laguna	9	Septiembre	2023-04-09T00:00:00	2024-11-08T13:00:00	6	Velocidad del viento	1.6
75486	7	Sololá	717	San Juan la Laguna	12	San Juan la Laguna	9	Septiembre	2023-04-09T00:00:00	2024-11-08T13:00:00	7	Dirección del viento	1.61
75487	7	Sololá	717	San Juan la Laguna	12	San Juan la Laguna	9	Septiembre	2023-04-09T00:00:00	2024-11-08T13:00:00	1	Precipitación	0
75488	7	Sololá	717	San Juan la Laguna	12	San Juan la Laguna	9	Septiembre	2023-04-09T00:00:00	2024-11-08T13:00:00	8	Radiación solar	893
75489	7	Sololá	717	San Juan la Laguna	12	San Juan la Laguna	9	Septiembre	2023-04-09T00:00:00	2024-11-08T14:00:00	2	Temperatura media	22.4
75490	7	Sololá	717	San Juan la Laguna	12	San Juan la Laguna	9	Septiembre	2023-04-09T00:00:00	2024-11-08T14:00:00	4	Temperatura máxima	24.2
75491	7	Sololá	717	San Juan la Laguna	12	San Juan la Laguna	9	Septiembre	2023-04-09T00:00:00	2024-11-08T14:00:00	3	Temperatura mínima	22.4
75492	7	Sololá	717	San Juan la Laguna	12	San Juan la Laguna	9	Septiembre	2023-04-09T00:00:00	2024-11-08T14:00:00	5	Humedad	72
75493	7	Sololá	717	San Juan la Laguna	12	San Juan la Laguna	9	Septiembre	2023-04-09T00:00:00	2024-11-08T14:00:00	6	Velocidad del viento	9.7
75494	7	Sololá	717	San Juan la Laguna	12	San Juan la Laguna	9	Septiembre	2023-04-09T00:00:00	2024-11-08T14:00:00	7	Dirección del viento	9.66
75495	7	Sololá	717	San Juan la Laguna	12	San Juan la Laguna	9	Septiembre	2023-04-09T00:00:00	2024-11-08T14:00:00	1	Precipitación	0
75496	7	Sololá	717	San Juan la Laguna	12	San Juan la Laguna	9	Septiembre	2023-04-09T00:00:00	2024-11-08T14:00:00	8	Radiación solar	840
75497	7	Sololá	717	San Juan la Laguna	12	San Juan la Laguna	9	Septiembre	2023-04-09T00:00:00	2024-11-08T15:00:00	2	Temperatura media	20.1
75498	7	Sololá	717	San Juan la Laguna	12	San Juan la Laguna	9	Septiembre	2023-04-09T00:00:00	2024-11-08T15:00:00	4	Temperatura máxima	22.3
75499	7	Sololá	717	San Juan la Laguna	12	San Juan la Laguna	9	Septiembre	2023-04-09T00:00:00	2024-11-08T15:00:00	3	Temperatura mínima	20
75500	7	Sololá	717	San Juan la Laguna	12	San Juan la Laguna	9	Septiembre	2023-04-09T00:00:00	2024-11-08T15:00:00	5	Humedad	78
75501	7	Sololá	717	San Juan la Laguna	12	San Juan la Laguna	9	Septiembre	2023-04-09T00:00:00	2024-11-08T15:00:00	6	Velocidad del viento	9.7
75502	7	Sololá	717	San Juan la Laguna	12	San Juan la Laguna	9	Septiembre	2023-04-09T00:00:00	2024-11-08T15:00:00	7	Dirección del viento	9.66
75503	7	Sololá	717	San Juan la Laguna	12	San Juan la Laguna	9	Septiembre	2023-04-09T00:00:00	2024-11-08T15:00:00	1	Precipitación	0
75504	7	Sololá	717	San Juan la Laguna	12	San Juan la Laguna	9	Septiembre	2023-04-09T00:00:00	2024-11-08T15:00:00	8	Radiación solar	168
75505	7	Sololá	717	San Juan la Laguna	12	San Juan la Laguna	9	Septiembre	2023-04-09T00:00:00	2024-11-08T16:00:00	2	Temperatura media	19.9
75506	7	Sololá	717	San Juan la Laguna	12	San Juan la Laguna	9	Septiembre	2023-04-09T00:00:00	2024-11-08T16:00:00	4	Temperatura máxima	20.5
75507	7	Sololá	717	San Juan la Laguna	12	San Juan la Laguna	9	Septiembre	2023-04-09T00:00:00	2024-11-08T16:00:00	3	Temperatura mínima	19.9
75508	7	Sololá	717	San Juan la Laguna	12	San Juan la Laguna	9	Septiembre	2023-04-09T00:00:00	2024-11-08T16:00:00	5	Humedad	78
75509	7	Sololá	717	San Juan la Laguna	12	San Juan la Laguna	9	Septiembre	2023-04-09T00:00:00	2024-11-08T16:00:00	6	Velocidad del viento	1.6
75510	7	Sololá	717	San Juan la Laguna	12	San Juan la Laguna	9	Septiembre	2023-04-09T00:00:00	2024-11-08T16:00:00	7	Dirección del viento	1.61
75511	7	Sololá	717	San Juan la Laguna	12	San Juan la Laguna	9	Septiembre	2023-04-09T00:00:00	2024-11-08T16:00:00	1	Precipitación	0
75512	7	Sololá	717	San Juan la Laguna	12	San Juan la Laguna	9	Septiembre	2023-04-09T00:00:00	2024-11-08T16:00:00	8	Radiación solar	93
75513	7	Sololá	717	San Juan la Laguna	12	San Juan la Laguna	9	Septiembre	2023-04-09T00:00:00	2024-11-08T17:00:00	2	Temperatura media	19.6
75514	7	Sololá	717	San Juan la Laguna	12	San Juan la Laguna	9	Septiembre	2023-04-09T00:00:00	2024-11-08T17:00:00	4	Temperatura máxima	20.1
75515	7	Sololá	717	San Juan la Laguna	12	San Juan la Laguna	9	Septiembre	2023-04-09T00:00:00	2024-11-08T17:00:00	3	Temperatura mínima	19.6
75516	7	Sololá	717	San Juan la Laguna	12	San Juan la Laguna	9	Septiembre	2023-04-09T00:00:00	2024-11-08T17:00:00	5	Humedad	81
75517	7	Sololá	717	San Juan la Laguna	12	San Juan la Laguna	9	Septiembre	2023-04-09T00:00:00	2024-11-08T17:00:00	6	Velocidad del viento	1.6
75518	7	Sololá	717	San Juan la Laguna	12	San Juan la Laguna	9	Septiembre	2023-04-09T00:00:00	2024-11-08T17:00:00	7	Dirección del viento	1.61
75519	7	Sololá	717	San Juan la Laguna	12	San Juan la Laguna	9	Septiembre	2023-04-09T00:00:00	2024-11-08T17:00:00	1	Precipitación	0
75520	7	Sololá	717	San Juan la Laguna	12	San Juan la Laguna	9	Septiembre	2023-04-09T00:00:00	2024-11-08T17:00:00	8	Radiación solar	114
75521	7	Sololá	717	San Juan la Laguna	12	San Juan la Laguna	9	Septiembre	2023-04-09T00:00:00	2024-11-08T18:00:00	2	Temperatura media	17.9
75522	7	Sololá	717	San Juan la Laguna	12	San Juan la Laguna	9	Septiembre	2023-04-09T00:00:00	2024-11-08T18:00:00	4	Temperatura máxima	19.6
75523	7	Sololá	717	San Juan la Laguna	12	San Juan la Laguna	9	Septiembre	2023-04-09T00:00:00	2024-11-08T18:00:00	3	Temperatura mínima	17.8
75524	7	Sololá	717	San Juan la Laguna	12	San Juan la Laguna	9	Septiembre	2023-04-09T00:00:00	2024-11-08T18:00:00	5	Humedad	84
75525	7	Sololá	717	San Juan la Laguna	12	San Juan la Laguna	9	Septiembre	2023-04-09T00:00:00	2024-11-08T18:00:00	6	Velocidad del viento	1.6
75526	7	Sololá	717	San Juan la Laguna	12	San Juan la Laguna	9	Septiembre	2023-04-09T00:00:00	2024-11-08T18:00:00	7	Dirección del viento	1.61
75527	7	Sololá	717	San Juan la Laguna	12	San Juan la Laguna	9	Septiembre	2023-04-09T00:00:00	2024-11-08T18:00:00	1	Precipitación	1
75528	7	Sololá	717	San Juan la Laguna	12	San Juan la Laguna	9	Septiembre	2023-04-09T00:00:00	2024-11-08T18:00:00	8	Radiación solar	12
75529	7	Sololá	717	San Juan la Laguna	12	San Juan la Laguna	9	Septiembre	2023-04-09T00:00:00	2024-11-08T19:00:00	2	Temperatura media	17.7
75530	7	Sololá	717	San Juan la Laguna	12	San Juan la Laguna	9	Septiembre	2023-04-09T00:00:00	2024-11-08T19:00:00	4	Temperatura máxima	17.8
75531	7	Sololá	717	San Juan la Laguna	12	San Juan la Laguna	9	Septiembre	2023-04-09T00:00:00	2024-11-08T19:00:00	3	Temperatura mínima	17.5
75532	7	Sololá	717	San Juan la Laguna	12	San Juan la Laguna	9	Septiembre	2023-04-09T00:00:00	2024-11-08T19:00:00	5	Humedad	84
75533	7	Sololá	717	San Juan la Laguna	12	San Juan la Laguna	9	Septiembre	2023-04-09T00:00:00	2024-11-08T19:00:00	6	Velocidad del viento	4.8
75534	7	Sololá	717	San Juan la Laguna	12	San Juan la Laguna	9	Septiembre	2023-04-09T00:00:00	2024-11-08T19:00:00	7	Dirección del viento	4.83
75535	7	Sololá	717	San Juan la Laguna	12	San Juan la Laguna	9	Septiembre	2023-04-09T00:00:00	2024-11-08T19:00:00	1	Precipitación	0.2
75536	7	Sololá	717	San Juan la Laguna	12	San Juan la Laguna	9	Septiembre	2023-04-09T00:00:00	2024-11-08T19:00:00	8	Radiación solar	0
75537	7	Sololá	717	San Juan la Laguna	12	San Juan la Laguna	9	Septiembre	2023-04-09T00:00:00	2024-11-08T20:00:00	2	Temperatura media	16.9
75538	7	Sololá	717	San Juan la Laguna	12	San Juan la Laguna	9	Septiembre	2023-04-09T00:00:00	2024-11-08T20:00:00	4	Temperatura máxima	17.7
75539	7	Sololá	717	San Juan la Laguna	12	San Juan la Laguna	9	Septiembre	2023-04-09T00:00:00	2024-11-08T20:00:00	3	Temperatura mínima	16.8
75540	7	Sololá	717	San Juan la Laguna	12	San Juan la Laguna	9	Septiembre	2023-04-09T00:00:00	2024-11-08T20:00:00	5	Humedad	64
75541	7	Sololá	717	San Juan la Laguna	12	San Juan la Laguna	9	Septiembre	2023-04-09T00:00:00	2024-11-08T20:00:00	6	Velocidad del viento	1.6
75542	7	Sololá	717	San Juan la Laguna	12	San Juan la Laguna	9	Septiembre	2023-04-09T00:00:00	2024-11-08T20:00:00	7	Dirección del viento	1.61
75543	7	Sololá	717	San Juan la Laguna	12	San Juan la Laguna	9	Septiembre	2023-04-09T00:00:00	2024-11-08T20:00:00	1	Precipitación	4.8
75544	7	Sololá	717	San Juan la Laguna	12	San Juan la Laguna	9	Septiembre	2023-04-09T00:00:00	2024-11-08T20:00:00	8	Radiación solar	0
75545	7	Sololá	717	San Juan la Laguna	12	San Juan la Laguna	9	Septiembre	2023-04-09T00:00:00	2024-11-08T21:00:00	2	Temperatura media	16.8
75546	7	Sololá	717	San Juan la Laguna	12	San Juan la Laguna	9	Septiembre	2023-04-09T00:00:00	2024-11-08T21:00:00	4	Temperatura máxima	17.2
75547	7	Sololá	717	San Juan la Laguna	12	San Juan la Laguna	9	Septiembre	2023-04-09T00:00:00	2024-11-08T21:00:00	3	Temperatura mínima	16.8
75548	7	Sololá	717	San Juan la Laguna	12	San Juan la Laguna	9	Septiembre	2023-04-09T00:00:00	2024-11-08T21:00:00	5	Humedad	65
75549	7	Sololá	717	San Juan la Laguna	12	San Juan la Laguna	9	Septiembre	2023-04-09T00:00:00	2024-11-08T21:00:00	6	Velocidad del viento	0
75550	7	Sololá	717	San Juan la Laguna	12	San Juan la Laguna	9	Septiembre	2023-04-09T00:00:00	2024-11-08T21:00:00	7	Dirección del viento	0
75551	7	Sololá	717	San Juan la Laguna	12	San Juan la Laguna	9	Septiembre	2023-04-09T00:00:00	2024-11-08T21:00:00	1	Precipitación	0
75552	7	Sololá	717	San Juan la Laguna	12	San Juan la Laguna	9	Septiembre	2023-04-09T00:00:00	2024-11-08T21:00:00	8	Radiación solar	0
75553	7	Sololá	717	San Juan la Laguna	12	San Juan la Laguna	9	Septiembre	2023-04-09T00:00:00	2024-11-08T22:00:00	2	Temperatura media	16.6
75554	7	Sololá	717	San Juan la Laguna	12	San Juan la Laguna	9	Septiembre	2023-04-09T00:00:00	2024-11-08T22:00:00	4	Temperatura máxima	16.9
75555	7	Sololá	717	San Juan la Laguna	12	San Juan la Laguna	9	Septiembre	2023-04-09T00:00:00	2024-11-08T22:00:00	3	Temperatura mínima	16.6
75556	7	Sololá	717	San Juan la Laguna	12	San Juan la Laguna	9	Septiembre	2023-04-09T00:00:00	2024-11-08T22:00:00	5	Humedad	66
75557	7	Sololá	717	San Juan la Laguna	12	San Juan la Laguna	9	Septiembre	2023-04-09T00:00:00	2024-11-08T22:00:00	6	Velocidad del viento	1.6
75558	7	Sololá	717	San Juan la Laguna	12	San Juan la Laguna	9	Septiembre	2023-04-09T00:00:00	2024-11-08T22:00:00	7	Dirección del viento	1.61
75559	7	Sololá	717	San Juan la Laguna	12	San Juan la Laguna	9	Septiembre	2023-04-09T00:00:00	2024-11-08T22:00:00	1	Precipitación	0
75560	7	Sololá	717	San Juan la Laguna	12	San Juan la Laguna	9	Septiembre	2023-04-09T00:00:00	2024-11-08T22:00:00	8	Radiación solar	0
75561	7	Sololá	717	San Juan la Laguna	12	San Juan la Laguna	9	Septiembre	2023-04-09T00:00:00	2024-11-08T23:00:00	2	Temperatura media	16.6
75562	7	Sololá	717	San Juan la Laguna	12	San Juan la Laguna	9	Septiembre	2023-04-09T00:00:00	2024-11-08T23:00:00	4	Temperatura máxima	16.6
75563	7	Sololá	717	San Juan la Laguna	12	San Juan la Laguna	9	Septiembre	2023-04-09T00:00:00	2024-11-08T23:00:00	3	Temperatura mínima	16.4
75564	7	Sololá	717	San Juan la Laguna	12	San Juan la Laguna	9	Septiembre	2023-04-09T00:00:00	2024-11-08T23:00:00	5	Humedad	67
75565	7	Sololá	717	San Juan la Laguna	12	San Juan la Laguna	9	Septiembre	2023-04-09T00:00:00	2024-11-08T23:00:00	6	Velocidad del viento	0
75566	7	Sololá	717	San Juan la Laguna	12	San Juan la Laguna	9	Septiembre	2023-04-09T00:00:00	2024-11-08T23:00:00	7	Dirección del viento	0
75567	7	Sololá	717	San Juan la Laguna	12	San Juan la Laguna	9	Septiembre	2023-04-09T00:00:00	2024-11-08T23:00:00	1	Precipitación	0
75568	7	Sololá	717	San Juan la Laguna	12	San Juan la Laguna	9	Septiembre	2023-04-09T00:00:00	2024-11-08T23:00:00	8	Radiación solar	0
75569	7	Sololá	717	San Juan la Laguna	12	San Juan la Laguna	9	Septiembre	2023-05-09T00:00:00	2024-11-08T00:00:00	2	Temperatura media	16.9
75570	7	Sololá	717	San Juan la Laguna	12	San Juan la Laguna	9	Septiembre	2023-05-09T00:00:00	2024-11-08T00:00:00	4	Temperatura máxima	16.9
75571	7	Sololá	717	San Juan la Laguna	12	San Juan la Laguna	9	Septiembre	2023-05-09T00:00:00	2024-11-08T00:00:00	3	Temperatura mínima	16.7
75572	7	Sololá	717	San Juan la Laguna	12	San Juan la Laguna	9	Septiembre	2023-05-09T00:00:00	2024-11-08T00:00:00	5	Humedad	67
75573	7	Sololá	717	San Juan la Laguna	12	San Juan la Laguna	9	Septiembre	2023-05-09T00:00:00	2024-11-08T00:00:00	6	Velocidad del viento	0
75574	7	Sololá	717	San Juan la Laguna	12	San Juan la Laguna	9	Septiembre	2023-05-09T00:00:00	2024-11-08T00:00:00	7	Dirección del viento	0
75575	7	Sololá	717	San Juan la Laguna	12	San Juan la Laguna	9	Septiembre	2023-05-09T00:00:00	2024-11-08T00:00:00	1	Precipitación	0
75576	7	Sololá	717	San Juan la Laguna	12	San Juan la Laguna	9	Septiembre	2023-05-09T00:00:00	2024-11-08T00:00:00	8	Radiación solar	0
75577	7	Sololá	717	San Juan la Laguna	12	San Juan la Laguna	9	Septiembre	2023-05-09T00:00:00	2024-11-08T01:00:00	2	Temperatura media	16.7
75578	7	Sololá	717	San Juan la Laguna	12	San Juan la Laguna	9	Septiembre	2023-05-09T00:00:00	2024-11-08T01:00:00	4	Temperatura máxima	16.9
75579	7	Sololá	717	San Juan la Laguna	12	San Juan la Laguna	9	Septiembre	2023-05-09T00:00:00	2024-11-08T01:00:00	3	Temperatura mínima	16.7
75580	7	Sololá	717	San Juan la Laguna	12	San Juan la Laguna	9	Septiembre	2023-05-09T00:00:00	2024-11-08T01:00:00	5	Humedad	70
75581	7	Sololá	717	San Juan la Laguna	12	San Juan la Laguna	9	Septiembre	2023-05-09T00:00:00	2024-11-08T01:00:00	6	Velocidad del viento	0
75582	7	Sololá	717	San Juan la Laguna	12	San Juan la Laguna	9	Septiembre	2023-05-09T00:00:00	2024-11-08T01:00:00	7	Dirección del viento	0
75583	7	Sololá	717	San Juan la Laguna	12	San Juan la Laguna	9	Septiembre	2023-05-09T00:00:00	2024-11-08T01:00:00	1	Precipitación	0
75584	7	Sololá	717	San Juan la Laguna	12	San Juan la Laguna	9	Septiembre	2023-05-09T00:00:00	2024-11-08T01:00:00	8	Radiación solar	0
75585	7	Sololá	717	San Juan la Laguna	12	San Juan la Laguna	9	Septiembre	2023-05-09T00:00:00	2024-11-08T02:00:00	2	Temperatura media	16.6
75586	7	Sololá	717	San Juan la Laguna	12	San Juan la Laguna	9	Septiembre	2023-05-09T00:00:00	2024-11-08T02:00:00	4	Temperatura máxima	16.8
75587	7	Sololá	717	San Juan la Laguna	12	San Juan la Laguna	9	Septiembre	2023-05-09T00:00:00	2024-11-08T02:00:00	3	Temperatura mínima	16.6
75588	7	Sololá	717	San Juan la Laguna	12	San Juan la Laguna	9	Septiembre	2023-05-09T00:00:00	2024-11-08T02:00:00	5	Humedad	79
75589	7	Sololá	717	San Juan la Laguna	12	San Juan la Laguna	9	Septiembre	2023-05-09T00:00:00	2024-11-08T02:00:00	6	Velocidad del viento	1.6
75590	7	Sololá	717	San Juan la Laguna	12	San Juan la Laguna	9	Septiembre	2023-05-09T00:00:00	2024-11-08T02:00:00	7	Dirección del viento	1.61
75591	7	Sololá	717	San Juan la Laguna	12	San Juan la Laguna	9	Septiembre	2023-05-09T00:00:00	2024-11-08T02:00:00	1	Precipitación	0
75592	7	Sololá	717	San Juan la Laguna	12	San Juan la Laguna	9	Septiembre	2023-05-09T00:00:00	2024-11-08T02:00:00	8	Radiación solar	0
75593	7	Sololá	717	San Juan la Laguna	12	San Juan la Laguna	9	Septiembre	2023-05-09T00:00:00	2024-11-08T03:00:00	2	Temperatura media	15.9
75594	7	Sololá	717	San Juan la Laguna	12	San Juan la Laguna	9	Septiembre	2023-05-09T00:00:00	2024-11-08T03:00:00	4	Temperatura máxima	16.7
75595	7	Sololá	717	San Juan la Laguna	12	San Juan la Laguna	9	Septiembre	2023-05-09T00:00:00	2024-11-08T03:00:00	3	Temperatura mínima	15.9
75596	7	Sololá	717	San Juan la Laguna	12	San Juan la Laguna	9	Septiembre	2023-05-09T00:00:00	2024-11-08T03:00:00	5	Humedad	81
75597	7	Sololá	717	San Juan la Laguna	12	San Juan la Laguna	9	Septiembre	2023-05-09T00:00:00	2024-11-08T03:00:00	6	Velocidad del viento	3.2
75598	7	Sololá	717	San Juan la Laguna	12	San Juan la Laguna	9	Septiembre	2023-05-09T00:00:00	2024-11-08T03:00:00	7	Dirección del viento	3.22
75599	7	Sololá	717	San Juan la Laguna	12	San Juan la Laguna	9	Septiembre	2023-05-09T00:00:00	2024-11-08T03:00:00	1	Precipitación	0
75600	7	Sololá	717	San Juan la Laguna	12	San Juan la Laguna	9	Septiembre	2023-05-09T00:00:00	2024-11-08T03:00:00	8	Radiación solar	0
75601	7	Sololá	717	San Juan la Laguna	12	San Juan la Laguna	9	Septiembre	2023-05-09T00:00:00	2024-11-08T04:00:00	2	Temperatura media	15.9
75602	7	Sololá	717	San Juan la Laguna	12	San Juan la Laguna	9	Septiembre	2023-05-09T00:00:00	2024-11-08T04:00:00	4	Temperatura máxima	16.1
75603	7	Sololá	717	San Juan la Laguna	12	San Juan la Laguna	9	Septiembre	2023-05-09T00:00:00	2024-11-08T04:00:00	3	Temperatura mínima	15.7
75604	7	Sololá	717	San Juan la Laguna	12	San Juan la Laguna	9	Septiembre	2023-05-09T00:00:00	2024-11-08T04:00:00	5	Humedad	86
75605	7	Sololá	717	San Juan la Laguna	12	San Juan la Laguna	9	Septiembre	2023-05-09T00:00:00	2024-11-08T04:00:00	6	Velocidad del viento	4.8
75606	7	Sololá	717	San Juan la Laguna	12	San Juan la Laguna	9	Septiembre	2023-05-09T00:00:00	2024-11-08T04:00:00	7	Dirección del viento	4.83
75607	7	Sololá	717	San Juan la Laguna	12	San Juan la Laguna	9	Septiembre	2023-05-09T00:00:00	2024-11-08T04:00:00	1	Precipitación	0
75608	7	Sololá	717	San Juan la Laguna	12	San Juan la Laguna	9	Septiembre	2023-05-09T00:00:00	2024-11-08T04:00:00	8	Radiación solar	0
75609	7	Sololá	717	San Juan la Laguna	12	San Juan la Laguna	9	Septiembre	2023-05-09T00:00:00	2024-11-08T05:00:00	2	Temperatura media	15.5
75610	7	Sololá	717	San Juan la Laguna	12	San Juan la Laguna	9	Septiembre	2023-05-09T00:00:00	2024-11-08T05:00:00	4	Temperatura máxima	16
75611	7	Sololá	717	San Juan la Laguna	12	San Juan la Laguna	9	Septiembre	2023-05-09T00:00:00	2024-11-08T05:00:00	3	Temperatura mínima	15.2
75612	7	Sololá	717	San Juan la Laguna	12	San Juan la Laguna	9	Septiembre	2023-05-09T00:00:00	2024-11-08T05:00:00	5	Humedad	86
75613	7	Sololá	717	San Juan la Laguna	12	San Juan la Laguna	9	Septiembre	2023-05-09T00:00:00	2024-11-08T05:00:00	6	Velocidad del viento	3.2
75614	7	Sololá	717	San Juan la Laguna	12	San Juan la Laguna	9	Septiembre	2023-05-09T00:00:00	2024-11-08T05:00:00	7	Dirección del viento	3.22
75615	7	Sololá	717	San Juan la Laguna	12	San Juan la Laguna	9	Septiembre	2023-05-09T00:00:00	2024-11-08T05:00:00	1	Precipitación	0
75616	7	Sololá	717	San Juan la Laguna	12	San Juan la Laguna	9	Septiembre	2023-05-09T00:00:00	2024-11-08T05:00:00	8	Radiación solar	0
75617	7	Sololá	717	San Juan la Laguna	12	San Juan la Laguna	9	Septiembre	2023-05-09T00:00:00	2024-11-08T06:00:00	2	Temperatura media	15.6
75618	7	Sololá	717	San Juan la Laguna	12	San Juan la Laguna	9	Septiembre	2023-05-09T00:00:00	2024-11-08T06:00:00	4	Temperatura máxima	15.8
75619	7	Sololá	717	San Juan la Laguna	12	San Juan la Laguna	9	Septiembre	2023-05-09T00:00:00	2024-11-08T06:00:00	3	Temperatura mínima	15.3
75620	7	Sololá	717	San Juan la Laguna	12	San Juan la Laguna	9	Septiembre	2023-05-09T00:00:00	2024-11-08T06:00:00	5	Humedad	85
75621	7	Sololá	717	San Juan la Laguna	12	San Juan la Laguna	9	Septiembre	2023-05-09T00:00:00	2024-11-08T06:00:00	6	Velocidad del viento	1.6
75622	7	Sololá	717	San Juan la Laguna	12	San Juan la Laguna	9	Septiembre	2023-05-09T00:00:00	2024-11-08T06:00:00	7	Dirección del viento	1.61
75623	7	Sololá	717	San Juan la Laguna	12	San Juan la Laguna	9	Septiembre	2023-05-09T00:00:00	2024-11-08T06:00:00	1	Precipitación	0
75624	7	Sololá	717	San Juan la Laguna	12	San Juan la Laguna	9	Septiembre	2023-05-09T00:00:00	2024-11-08T06:00:00	8	Radiación solar	0
75625	7	Sololá	717	San Juan la Laguna	12	San Juan la Laguna	9	Septiembre	2023-05-09T00:00:00	2024-11-08T07:00:00	2	Temperatura media	17.1
75626	7	Sololá	717	San Juan la Laguna	12	San Juan la Laguna	9	Septiembre	2023-05-09T00:00:00	2024-11-08T07:00:00	4	Temperatura máxima	17.1
75627	7	Sololá	717	San Juan la Laguna	12	San Juan la Laguna	9	Septiembre	2023-05-09T00:00:00	2024-11-08T07:00:00	3	Temperatura mínima	15.5
75628	7	Sololá	717	San Juan la Laguna	12	San Juan la Laguna	9	Septiembre	2023-05-09T00:00:00	2024-11-08T07:00:00	5	Humedad	85
75629	7	Sololá	717	San Juan la Laguna	12	San Juan la Laguna	9	Septiembre	2023-05-09T00:00:00	2024-11-08T07:00:00	6	Velocidad del viento	0
75630	7	Sololá	717	San Juan la Laguna	12	San Juan la Laguna	9	Septiembre	2023-05-09T00:00:00	2024-11-08T07:00:00	7	Dirección del viento	0
75631	7	Sololá	717	San Juan la Laguna	12	San Juan la Laguna	9	Septiembre	2023-05-09T00:00:00	2024-11-08T07:00:00	1	Precipitación	0
75632	7	Sololá	717	San Juan la Laguna	12	San Juan la Laguna	9	Septiembre	2023-05-09T00:00:00	2024-11-08T07:00:00	8	Radiación solar	63
75633	7	Sololá	717	San Juan la Laguna	12	San Juan la Laguna	9	Septiembre	2023-05-09T00:00:00	2024-11-08T08:00:00	2	Temperatura media	18.8
75634	7	Sololá	717	San Juan la Laguna	12	San Juan la Laguna	9	Septiembre	2023-05-09T00:00:00	2024-11-08T08:00:00	4	Temperatura máxima	18.8
75635	7	Sololá	717	San Juan la Laguna	12	San Juan la Laguna	9	Septiembre	2023-05-09T00:00:00	2024-11-08T08:00:00	3	Temperatura mínima	17.1
75636	7	Sololá	717	San Juan la Laguna	12	San Juan la Laguna	9	Septiembre	2023-05-09T00:00:00	2024-11-08T08:00:00	5	Humedad	84
75637	7	Sololá	717	San Juan la Laguna	12	San Juan la Laguna	9	Septiembre	2023-05-09T00:00:00	2024-11-08T08:00:00	6	Velocidad del viento	0
75638	7	Sololá	717	San Juan la Laguna	12	San Juan la Laguna	9	Septiembre	2023-05-09T00:00:00	2024-11-08T08:00:00	7	Dirección del viento	0
75639	7	Sololá	717	San Juan la Laguna	12	San Juan la Laguna	9	Septiembre	2023-05-09T00:00:00	2024-11-08T08:00:00	1	Precipitación	0
75640	7	Sololá	717	San Juan la Laguna	12	San Juan la Laguna	9	Septiembre	2023-05-09T00:00:00	2024-11-08T08:00:00	8	Radiación solar	154
75641	7	Sololá	717	San Juan la Laguna	12	San Juan la Laguna	9	Septiembre	2023-05-09T00:00:00	2024-11-08T09:00:00	2	Temperatura media	22.3
75642	7	Sololá	717	San Juan la Laguna	12	San Juan la Laguna	9	Septiembre	2023-05-09T00:00:00	2024-11-08T09:00:00	4	Temperatura máxima	22.3
75643	7	Sololá	717	San Juan la Laguna	12	San Juan la Laguna	9	Septiembre	2023-05-09T00:00:00	2024-11-08T09:00:00	3	Temperatura mínima	18.8
75644	7	Sololá	717	San Juan la Laguna	12	San Juan la Laguna	9	Septiembre	2023-05-09T00:00:00	2024-11-08T09:00:00	5	Humedad	68
75645	7	Sololá	717	San Juan la Laguna	12	San Juan la Laguna	9	Septiembre	2023-05-09T00:00:00	2024-11-08T09:00:00	6	Velocidad del viento	0
75646	7	Sololá	717	San Juan la Laguna	12	San Juan la Laguna	9	Septiembre	2023-05-09T00:00:00	2024-11-08T09:00:00	7	Dirección del viento	0
75647	7	Sololá	717	San Juan la Laguna	12	San Juan la Laguna	9	Septiembre	2023-05-09T00:00:00	2024-11-08T09:00:00	1	Precipitación	0
75648	7	Sololá	717	San Juan la Laguna	12	San Juan la Laguna	9	Septiembre	2023-05-09T00:00:00	2024-11-08T09:00:00	8	Radiación solar	418
75649	7	Sololá	717	San Juan la Laguna	12	San Juan la Laguna	9	Septiembre	2023-05-09T00:00:00	2024-11-08T10:00:00	2	Temperatura media	22.7
75650	7	Sololá	717	San Juan la Laguna	12	San Juan la Laguna	9	Septiembre	2023-05-09T00:00:00	2024-11-08T10:00:00	4	Temperatura máxima	23.3
75651	7	Sololá	717	San Juan la Laguna	12	San Juan la Laguna	9	Septiembre	2023-05-09T00:00:00	2024-11-08T10:00:00	3	Temperatura mínima	22.4
75652	7	Sololá	717	San Juan la Laguna	12	San Juan la Laguna	9	Septiembre	2023-05-09T00:00:00	2024-11-08T10:00:00	5	Humedad	73
75653	7	Sololá	717	San Juan la Laguna	12	San Juan la Laguna	9	Septiembre	2023-05-09T00:00:00	2024-11-08T10:00:00	6	Velocidad del viento	1.6
75654	7	Sololá	717	San Juan la Laguna	12	San Juan la Laguna	9	Septiembre	2023-05-09T00:00:00	2024-11-08T10:00:00	7	Dirección del viento	1.61
75655	7	Sololá	717	San Juan la Laguna	12	San Juan la Laguna	9	Septiembre	2023-05-09T00:00:00	2024-11-08T10:00:00	1	Precipitación	0
75656	7	Sololá	717	San Juan la Laguna	12	San Juan la Laguna	9	Septiembre	2023-05-09T00:00:00	2024-11-08T10:00:00	8	Radiación solar	687
75657	7	Sololá	717	San Juan la Laguna	12	San Juan la Laguna	9	Septiembre	2023-05-09T00:00:00	2024-11-08T11:00:00	2	Temperatura media	23.4
75658	7	Sololá	717	San Juan la Laguna	12	San Juan la Laguna	9	Septiembre	2023-05-09T00:00:00	2024-11-08T11:00:00	4	Temperatura máxima	23.4
75659	7	Sololá	717	San Juan la Laguna	12	San Juan la Laguna	9	Septiembre	2023-05-09T00:00:00	2024-11-08T11:00:00	3	Temperatura mínima	22.5
75660	7	Sololá	717	San Juan la Laguna	12	San Juan la Laguna	9	Septiembre	2023-05-09T00:00:00	2024-11-08T11:00:00	5	Humedad	68
75661	7	Sololá	717	San Juan la Laguna	12	San Juan la Laguna	9	Septiembre	2023-05-09T00:00:00	2024-11-08T11:00:00	6	Velocidad del viento	1.6
75662	7	Sololá	717	San Juan la Laguna	12	San Juan la Laguna	9	Septiembre	2023-05-09T00:00:00	2024-11-08T11:00:00	7	Dirección del viento	1.61
75663	7	Sololá	717	San Juan la Laguna	12	San Juan la Laguna	9	Septiembre	2023-05-09T00:00:00	2024-11-08T11:00:00	1	Precipitación	0
75664	7	Sololá	717	San Juan la Laguna	12	San Juan la Laguna	9	Septiembre	2023-05-09T00:00:00	2024-11-08T11:00:00	8	Radiación solar	892
75665	7	Sololá	717	San Juan la Laguna	12	San Juan la Laguna	9	Septiembre	2023-05-09T00:00:00	2024-11-08T12:00:00	2	Temperatura media	24.4
75666	7	Sololá	717	San Juan la Laguna	12	San Juan la Laguna	9	Septiembre	2023-05-09T00:00:00	2024-11-08T12:00:00	4	Temperatura máxima	24.4
75667	7	Sololá	717	San Juan la Laguna	12	San Juan la Laguna	9	Septiembre	2023-05-09T00:00:00	2024-11-08T12:00:00	3	Temperatura mínima	23.1
75668	7	Sololá	717	San Juan la Laguna	12	San Juan la Laguna	9	Septiembre	2023-05-09T00:00:00	2024-11-08T12:00:00	5	Humedad	68
75669	7	Sololá	717	San Juan la Laguna	12	San Juan la Laguna	9	Septiembre	2023-05-09T00:00:00	2024-11-08T12:00:00	6	Velocidad del viento	1.6
75670	7	Sololá	717	San Juan la Laguna	12	San Juan la Laguna	9	Septiembre	2023-05-09T00:00:00	2024-11-08T12:00:00	7	Dirección del viento	1.61
75671	7	Sololá	717	San Juan la Laguna	12	San Juan la Laguna	9	Septiembre	2023-05-09T00:00:00	2024-11-08T12:00:00	1	Precipitación	0
75672	7	Sololá	717	San Juan la Laguna	12	San Juan la Laguna	9	Septiembre	2023-05-09T00:00:00	2024-11-08T12:00:00	8	Radiación solar	815
75673	7	Sololá	717	San Juan la Laguna	12	San Juan la Laguna	9	Septiembre	2023-05-09T00:00:00	2024-11-08T13:00:00	2	Temperatura media	23.2
75674	7	Sololá	717	San Juan la Laguna	12	San Juan la Laguna	9	Septiembre	2023-05-09T00:00:00	2024-11-08T13:00:00	4	Temperatura máxima	24.6
75675	7	Sololá	717	San Juan la Laguna	12	San Juan la Laguna	9	Septiembre	2023-05-09T00:00:00	2024-11-08T13:00:00	3	Temperatura mínima	23.2
75676	7	Sololá	717	San Juan la Laguna	12	San Juan la Laguna	9	Septiembre	2023-05-09T00:00:00	2024-11-08T13:00:00	5	Humedad	72
75677	7	Sololá	717	San Juan la Laguna	12	San Juan la Laguna	9	Septiembre	2023-05-09T00:00:00	2024-11-08T13:00:00	6	Velocidad del viento	1.6
75678	7	Sololá	717	San Juan la Laguna	12	San Juan la Laguna	9	Septiembre	2023-05-09T00:00:00	2024-11-08T13:00:00	7	Dirección del viento	1.61
75679	7	Sololá	717	San Juan la Laguna	12	San Juan la Laguna	9	Septiembre	2023-05-09T00:00:00	2024-11-08T13:00:00	1	Precipitación	0
75680	7	Sololá	717	San Juan la Laguna	12	San Juan la Laguna	9	Septiembre	2023-05-09T00:00:00	2024-11-08T13:00:00	8	Radiación solar	746
75681	7	Sololá	717	San Juan la Laguna	12	San Juan la Laguna	9	Septiembre	2023-05-09T00:00:00	2024-11-08T14:00:00	2	Temperatura media	21.8
75682	7	Sololá	717	San Juan la Laguna	12	San Juan la Laguna	9	Septiembre	2023-05-09T00:00:00	2024-11-08T14:00:00	4	Temperatura máxima	23.4
75683	7	Sololá	717	San Juan la Laguna	12	San Juan la Laguna	9	Septiembre	2023-05-09T00:00:00	2024-11-08T14:00:00	3	Temperatura mínima	21.8
75684	7	Sololá	717	San Juan la Laguna	12	San Juan la Laguna	9	Septiembre	2023-05-09T00:00:00	2024-11-08T14:00:00	5	Humedad	79
75685	7	Sololá	717	San Juan la Laguna	12	San Juan la Laguna	9	Septiembre	2023-05-09T00:00:00	2024-11-08T14:00:00	6	Velocidad del viento	1.6
75686	7	Sololá	717	San Juan la Laguna	12	San Juan la Laguna	9	Septiembre	2023-05-09T00:00:00	2024-11-08T14:00:00	7	Dirección del viento	1.61
75687	7	Sololá	717	San Juan la Laguna	12	San Juan la Laguna	9	Septiembre	2023-05-09T00:00:00	2024-11-08T14:00:00	1	Precipitación	0
75688	7	Sololá	717	San Juan la Laguna	12	San Juan la Laguna	9	Septiembre	2023-05-09T00:00:00	2024-11-08T14:00:00	8	Radiación solar	320
75689	7	Sololá	717	San Juan la Laguna	12	San Juan la Laguna	9	Septiembre	2023-05-09T00:00:00	2024-11-08T15:00:00	2	Temperatura media	17.2
75690	7	Sololá	717	San Juan la Laguna	12	San Juan la Laguna	9	Septiembre	2023-05-09T00:00:00	2024-11-08T15:00:00	4	Temperatura máxima	21.8
75691	7	Sololá	717	San Juan la Laguna	12	San Juan la Laguna	9	Septiembre	2023-05-09T00:00:00	2024-11-08T15:00:00	3	Temperatura mínima	17.2
75692	7	Sololá	717	San Juan la Laguna	12	San Juan la Laguna	9	Septiembre	2023-05-09T00:00:00	2024-11-08T15:00:00	5	Humedad	88
75693	7	Sololá	717	San Juan la Laguna	12	San Juan la Laguna	9	Septiembre	2023-05-09T00:00:00	2024-11-08T15:00:00	6	Velocidad del viento	4.8
75694	7	Sololá	717	San Juan la Laguna	12	San Juan la Laguna	9	Septiembre	2023-05-09T00:00:00	2024-11-08T15:00:00	7	Dirección del viento	4.83
75695	7	Sololá	717	San Juan la Laguna	12	San Juan la Laguna	9	Septiembre	2023-05-09T00:00:00	2024-11-08T15:00:00	1	Precipitación	19.4
75696	7	Sololá	717	San Juan la Laguna	12	San Juan la Laguna	9	Septiembre	2023-05-09T00:00:00	2024-11-08T15:00:00	8	Radiación solar	124
75697	7	Sololá	717	San Juan la Laguna	12	San Juan la Laguna	9	Septiembre	2023-05-09T00:00:00	2024-11-08T16:00:00	2	Temperatura media	16.8
75698	7	Sololá	717	San Juan la Laguna	12	San Juan la Laguna	9	Septiembre	2023-05-09T00:00:00	2024-11-08T16:00:00	4	Temperatura máxima	17.1
75699	7	Sololá	717	San Juan la Laguna	12	San Juan la Laguna	9	Septiembre	2023-05-09T00:00:00	2024-11-08T16:00:00	3	Temperatura mínima	16.6
75700	7	Sololá	717	San Juan la Laguna	12	San Juan la Laguna	9	Septiembre	2023-05-09T00:00:00	2024-11-08T16:00:00	5	Humedad	76
75701	7	Sololá	717	San Juan la Laguna	12	San Juan la Laguna	9	Septiembre	2023-05-09T00:00:00	2024-11-08T16:00:00	6	Velocidad del viento	3.2
75702	7	Sololá	717	San Juan la Laguna	12	San Juan la Laguna	9	Septiembre	2023-05-09T00:00:00	2024-11-08T16:00:00	7	Dirección del viento	3.22
75703	7	Sololá	717	San Juan la Laguna	12	San Juan la Laguna	9	Septiembre	2023-05-09T00:00:00	2024-11-08T16:00:00	1	Precipitación	2
75704	7	Sololá	717	San Juan la Laguna	12	San Juan la Laguna	9	Septiembre	2023-05-09T00:00:00	2024-11-08T16:00:00	8	Radiación solar	12
75705	7	Sololá	717	San Juan la Laguna	12	San Juan la Laguna	9	Septiembre	2023-05-09T00:00:00	2024-11-08T17:00:00	2	Temperatura media	16.7
75706	7	Sololá	717	San Juan la Laguna	12	San Juan la Laguna	9	Septiembre	2023-05-09T00:00:00	2024-11-08T17:00:00	4	Temperatura máxima	16.9
75707	7	Sololá	717	San Juan la Laguna	12	San Juan la Laguna	9	Septiembre	2023-05-09T00:00:00	2024-11-08T17:00:00	3	Temperatura mínima	16.7
75708	7	Sololá	717	San Juan la Laguna	12	San Juan la Laguna	9	Septiembre	2023-05-09T00:00:00	2024-11-08T17:00:00	5	Humedad	82
75709	7	Sololá	717	San Juan la Laguna	12	San Juan la Laguna	9	Septiembre	2023-05-09T00:00:00	2024-11-08T17:00:00	6	Velocidad del viento	3.2
75710	7	Sololá	717	San Juan la Laguna	12	San Juan la Laguna	9	Septiembre	2023-05-09T00:00:00	2024-11-08T17:00:00	7	Dirección del viento	3.22
75711	7	Sololá	717	San Juan la Laguna	12	San Juan la Laguna	9	Septiembre	2023-05-09T00:00:00	2024-11-08T17:00:00	1	Precipitación	1
75712	7	Sololá	717	San Juan la Laguna	12	San Juan la Laguna	9	Septiembre	2023-05-09T00:00:00	2024-11-08T17:00:00	8	Radiación solar	1
75713	7	Sololá	717	San Juan la Laguna	12	San Juan la Laguna	9	Septiembre	2023-05-09T00:00:00	2024-11-08T18:00:00	2	Temperatura media	16.6
75714	7	Sololá	717	San Juan la Laguna	12	San Juan la Laguna	9	Septiembre	2023-05-09T00:00:00	2024-11-08T18:00:00	4	Temperatura máxima	16.7
75715	7	Sololá	717	San Juan la Laguna	12	San Juan la Laguna	9	Septiembre	2023-05-09T00:00:00	2024-11-08T18:00:00	3	Temperatura mínima	16.6
75716	7	Sololá	717	San Juan la Laguna	12	San Juan la Laguna	9	Septiembre	2023-05-09T00:00:00	2024-11-08T18:00:00	5	Humedad	84
75717	7	Sololá	717	San Juan la Laguna	12	San Juan la Laguna	9	Septiembre	2023-05-09T00:00:00	2024-11-08T18:00:00	6	Velocidad del viento	3.2
75718	7	Sololá	717	San Juan la Laguna	12	San Juan la Laguna	9	Septiembre	2023-05-09T00:00:00	2024-11-08T18:00:00	7	Dirección del viento	3.22
75719	7	Sololá	717	San Juan la Laguna	12	San Juan la Laguna	9	Septiembre	2023-05-09T00:00:00	2024-11-08T18:00:00	1	Precipitación	0.2
75720	7	Sololá	717	San Juan la Laguna	12	San Juan la Laguna	9	Septiembre	2023-05-09T00:00:00	2024-11-08T18:00:00	8	Radiación solar	0
75721	7	Sololá	717	San Juan la Laguna	12	San Juan la Laguna	9	Septiembre	2023-05-09T00:00:00	2024-11-08T19:00:00	2	Temperatura media	16.8
75722	7	Sololá	717	San Juan la Laguna	12	San Juan la Laguna	9	Septiembre	2023-05-09T00:00:00	2024-11-08T19:00:00	4	Temperatura máxima	16.8
75723	7	Sololá	717	San Juan la Laguna	12	San Juan la Laguna	9	Septiembre	2023-05-09T00:00:00	2024-11-08T19:00:00	3	Temperatura mínima	16.6
75724	7	Sololá	717	San Juan la Laguna	12	San Juan la Laguna	9	Septiembre	2023-05-09T00:00:00	2024-11-08T19:00:00	5	Humedad	87
75725	7	Sololá	717	San Juan la Laguna	12	San Juan la Laguna	9	Septiembre	2023-05-09T00:00:00	2024-11-08T19:00:00	6	Velocidad del viento	4.8
75726	7	Sololá	717	San Juan la Laguna	12	San Juan la Laguna	9	Septiembre	2023-05-09T00:00:00	2024-11-08T19:00:00	7	Dirección del viento	4.83
75727	7	Sololá	717	San Juan la Laguna	12	San Juan la Laguna	9	Septiembre	2023-05-09T00:00:00	2024-11-08T19:00:00	1	Precipitación	0
75728	7	Sololá	717	San Juan la Laguna	12	San Juan la Laguna	9	Septiembre	2023-05-09T00:00:00	2024-11-08T19:00:00	8	Radiación solar	0
75729	7	Sololá	717	San Juan la Laguna	12	San Juan la Laguna	9	Septiembre	2023-05-09T00:00:00	2024-11-08T20:00:00	2	Temperatura media	16.4
75730	7	Sololá	717	San Juan la Laguna	12	San Juan la Laguna	9	Septiembre	2023-05-09T00:00:00	2024-11-08T20:00:00	4	Temperatura máxima	16.8
75731	7	Sololá	717	San Juan la Laguna	12	San Juan la Laguna	9	Septiembre	2023-05-09T00:00:00	2024-11-08T20:00:00	3	Temperatura mínima	16.4
75732	7	Sololá	717	San Juan la Laguna	12	San Juan la Laguna	9	Septiembre	2023-05-09T00:00:00	2024-11-08T20:00:00	5	Humedad	86
75733	7	Sololá	717	San Juan la Laguna	12	San Juan la Laguna	9	Septiembre	2023-05-09T00:00:00	2024-11-08T20:00:00	6	Velocidad del viento	3.2
75734	7	Sololá	717	San Juan la Laguna	12	San Juan la Laguna	9	Septiembre	2023-05-09T00:00:00	2024-11-08T20:00:00	7	Dirección del viento	3.22
75735	7	Sololá	717	San Juan la Laguna	12	San Juan la Laguna	9	Septiembre	2023-05-09T00:00:00	2024-11-08T20:00:00	1	Precipitación	0
75736	7	Sololá	717	San Juan la Laguna	12	San Juan la Laguna	9	Septiembre	2023-05-09T00:00:00	2024-11-08T20:00:00	8	Radiación solar	0
75737	7	Sololá	717	San Juan la Laguna	12	San Juan la Laguna	9	Septiembre	2023-05-09T00:00:00	2024-11-08T21:00:00	2	Temperatura media	16.6
75738	7	Sololá	717	San Juan la Laguna	12	San Juan la Laguna	9	Septiembre	2023-05-09T00:00:00	2024-11-08T21:00:00	4	Temperatura máxima	16.6
75739	7	Sololá	717	San Juan la Laguna	12	San Juan la Laguna	9	Septiembre	2023-05-09T00:00:00	2024-11-08T21:00:00	3	Temperatura mínima	16.4
75740	7	Sololá	717	San Juan la Laguna	12	San Juan la Laguna	9	Septiembre	2023-05-09T00:00:00	2024-11-08T21:00:00	5	Humedad	83
75741	7	Sololá	717	San Juan la Laguna	12	San Juan la Laguna	9	Septiembre	2023-05-09T00:00:00	2024-11-08T21:00:00	6	Velocidad del viento	0
75742	7	Sololá	717	San Juan la Laguna	12	San Juan la Laguna	9	Septiembre	2023-05-09T00:00:00	2024-11-08T21:00:00	7	Dirección del viento	0
75743	7	Sololá	717	San Juan la Laguna	12	San Juan la Laguna	9	Septiembre	2023-05-09T00:00:00	2024-11-08T21:00:00	1	Precipitación	0
75744	7	Sololá	717	San Juan la Laguna	12	San Juan la Laguna	9	Septiembre	2023-05-09T00:00:00	2024-11-08T21:00:00	8	Radiación solar	0
75745	7	Sololá	717	San Juan la Laguna	12	San Juan la Laguna	9	Septiembre	2023-05-09T00:00:00	2024-11-08T22:00:00	2	Temperatura media	16.7
75746	7	Sololá	717	San Juan la Laguna	12	San Juan la Laguna	9	Septiembre	2023-05-09T00:00:00	2024-11-08T22:00:00	4	Temperatura máxima	16.7
75747	7	Sololá	717	San Juan la Laguna	12	San Juan la Laguna	9	Septiembre	2023-05-09T00:00:00	2024-11-08T22:00:00	3	Temperatura mínima	16.6
75748	7	Sololá	717	San Juan la Laguna	12	San Juan la Laguna	9	Septiembre	2023-05-09T00:00:00	2024-11-08T22:00:00	5	Humedad	79
75749	7	Sololá	717	San Juan la Laguna	12	San Juan la Laguna	9	Septiembre	2023-05-09T00:00:00	2024-11-08T22:00:00	6	Velocidad del viento	0
75750	7	Sololá	717	San Juan la Laguna	12	San Juan la Laguna	9	Septiembre	2023-05-09T00:00:00	2024-11-08T22:00:00	7	Dirección del viento	0
75751	7	Sololá	717	San Juan la Laguna	12	San Juan la Laguna	9	Septiembre	2023-05-09T00:00:00	2024-11-08T22:00:00	1	Precipitación	0
75752	7	Sololá	717	San Juan la Laguna	12	San Juan la Laguna	9	Septiembre	2023-05-09T00:00:00	2024-11-08T22:00:00	8	Radiación solar	0
75753	7	Sololá	717	San Juan la Laguna	12	San Juan la Laguna	9	Septiembre	2023-05-09T00:00:00	2024-11-08T23:00:00	2	Temperatura media	16.9
75754	7	Sololá	717	San Juan la Laguna	12	San Juan la Laguna	9	Septiembre	2023-05-09T00:00:00	2024-11-08T23:00:00	4	Temperatura máxima	16.9
75755	7	Sololá	717	San Juan la Laguna	12	San Juan la Laguna	9	Septiembre	2023-05-09T00:00:00	2024-11-08T23:00:00	3	Temperatura mínima	16.6
75756	7	Sololá	717	San Juan la Laguna	12	San Juan la Laguna	9	Septiembre	2023-05-09T00:00:00	2024-11-08T23:00:00	5	Humedad	86
75757	7	Sololá	717	San Juan la Laguna	12	San Juan la Laguna	9	Septiembre	2023-05-09T00:00:00	2024-11-08T23:00:00	6	Velocidad del viento	3.2
75758	7	Sololá	717	San Juan la Laguna	12	San Juan la Laguna	9	Septiembre	2023-05-09T00:00:00	2024-11-08T23:00:00	7	Dirección del viento	3.22
75759	7	Sololá	717	San Juan la Laguna	12	San Juan la Laguna	9	Septiembre	2023-05-09T00:00:00	2024-11-08T23:00:00	1	Precipitación	0
75760	7	Sololá	717	San Juan la Laguna	12	San Juan la Laguna	9	Septiembre	2023-05-09T00:00:00	2024-11-08T23:00:00	8	Radiación solar	0
75761	7	Sololá	717	San Juan la Laguna	12	San Juan la Laguna	9	Septiembre	2023-06-09T00:00:00	2024-11-08T00:00:00	2	Temperatura media	16.2
75762	7	Sololá	717	San Juan la Laguna	12	San Juan la Laguna	9	Septiembre	2023-06-09T00:00:00	2024-11-08T00:00:00	4	Temperatura máxima	17.1
75763	7	Sololá	717	San Juan la Laguna	12	San Juan la Laguna	9	Septiembre	2023-06-09T00:00:00	2024-11-08T00:00:00	3	Temperatura mínima	16.2
75764	7	Sololá	717	San Juan la Laguna	12	San Juan la Laguna	9	Septiembre	2023-06-09T00:00:00	2024-11-08T00:00:00	5	Humedad	86
75765	7	Sololá	717	San Juan la Laguna	12	San Juan la Laguna	9	Septiembre	2023-06-09T00:00:00	2024-11-08T00:00:00	6	Velocidad del viento	3.2
75766	7	Sololá	717	San Juan la Laguna	12	San Juan la Laguna	9	Septiembre	2023-06-09T00:00:00	2024-11-08T00:00:00	7	Dirección del viento	3.22
75767	7	Sololá	717	San Juan la Laguna	12	San Juan la Laguna	9	Septiembre	2023-06-09T00:00:00	2024-11-08T00:00:00	1	Precipitación	0
75768	7	Sololá	717	San Juan la Laguna	12	San Juan la Laguna	9	Septiembre	2023-06-09T00:00:00	2024-11-08T00:00:00	8	Radiación solar	0
75769	7	Sololá	717	San Juan la Laguna	12	San Juan la Laguna	9	Septiembre	2023-06-09T00:00:00	2024-11-08T01:00:00	2	Temperatura media	16.7
75770	7	Sololá	717	San Juan la Laguna	12	San Juan la Laguna	9	Septiembre	2023-06-09T00:00:00	2024-11-08T01:00:00	4	Temperatura máxima	16.7
75771	7	Sololá	717	San Juan la Laguna	12	San Juan la Laguna	9	Septiembre	2023-06-09T00:00:00	2024-11-08T01:00:00	3	Temperatura mínima	16
75772	7	Sololá	717	San Juan la Laguna	12	San Juan la Laguna	9	Septiembre	2023-06-09T00:00:00	2024-11-08T01:00:00	5	Humedad	87
75773	7	Sololá	717	San Juan la Laguna	12	San Juan la Laguna	9	Septiembre	2023-06-09T00:00:00	2024-11-08T01:00:00	6	Velocidad del viento	1.6
75774	7	Sololá	717	San Juan la Laguna	12	San Juan la Laguna	9	Septiembre	2023-06-09T00:00:00	2024-11-08T01:00:00	7	Dirección del viento	1.61
75775	7	Sololá	717	San Juan la Laguna	12	San Juan la Laguna	9	Septiembre	2023-06-09T00:00:00	2024-11-08T01:00:00	1	Precipitación	0
75776	7	Sololá	717	San Juan la Laguna	12	San Juan la Laguna	9	Septiembre	2023-06-09T00:00:00	2024-11-08T01:00:00	8	Radiación solar	0
75777	7	Sololá	717	San Juan la Laguna	12	San Juan la Laguna	9	Septiembre	2023-06-09T00:00:00	2024-11-08T02:00:00	2	Temperatura media	16.3
75778	7	Sololá	717	San Juan la Laguna	12	San Juan la Laguna	9	Septiembre	2023-06-09T00:00:00	2024-11-08T02:00:00	4	Temperatura máxima	16.7
75779	7	Sololá	717	San Juan la Laguna	12	San Juan la Laguna	9	Septiembre	2023-06-09T00:00:00	2024-11-08T02:00:00	3	Temperatura mínima	16.3
75780	7	Sololá	717	San Juan la Laguna	12	San Juan la Laguna	9	Septiembre	2023-06-09T00:00:00	2024-11-08T02:00:00	5	Humedad	87
75781	7	Sololá	717	San Juan la Laguna	12	San Juan la Laguna	9	Septiembre	2023-06-09T00:00:00	2024-11-08T02:00:00	6	Velocidad del viento	3.2
75782	7	Sololá	717	San Juan la Laguna	12	San Juan la Laguna	9	Septiembre	2023-06-09T00:00:00	2024-11-08T02:00:00	7	Dirección del viento	3.22
75783	7	Sololá	717	San Juan la Laguna	12	San Juan la Laguna	9	Septiembre	2023-06-09T00:00:00	2024-11-08T02:00:00	1	Precipitación	0
75784	7	Sololá	717	San Juan la Laguna	12	San Juan la Laguna	9	Septiembre	2023-06-09T00:00:00	2024-11-08T02:00:00	8	Radiación solar	0
75785	7	Sololá	717	San Juan la Laguna	12	San Juan la Laguna	9	Septiembre	2023-06-09T00:00:00	2024-11-08T03:00:00	2	Temperatura media	16.4
75786	7	Sololá	717	San Juan la Laguna	12	San Juan la Laguna	9	Septiembre	2023-06-09T00:00:00	2024-11-08T03:00:00	4	Temperatura máxima	16.4
75787	7	Sololá	717	San Juan la Laguna	12	San Juan la Laguna	9	Septiembre	2023-06-09T00:00:00	2024-11-08T03:00:00	3	Temperatura mínima	15.9
75788	7	Sololá	717	San Juan la Laguna	12	San Juan la Laguna	9	Septiembre	2023-06-09T00:00:00	2024-11-08T03:00:00	5	Humedad	86
75789	7	Sololá	717	San Juan la Laguna	12	San Juan la Laguna	9	Septiembre	2023-06-09T00:00:00	2024-11-08T03:00:00	6	Velocidad del viento	3.2
75790	7	Sololá	717	San Juan la Laguna	12	San Juan la Laguna	9	Septiembre	2023-06-09T00:00:00	2024-11-08T03:00:00	7	Dirección del viento	3.22
75791	7	Sololá	717	San Juan la Laguna	12	San Juan la Laguna	9	Septiembre	2023-06-09T00:00:00	2024-11-08T03:00:00	1	Precipitación	0
75792	7	Sololá	717	San Juan la Laguna	12	San Juan la Laguna	9	Septiembre	2023-06-09T00:00:00	2024-11-08T03:00:00	8	Radiación solar	0
75793	7	Sololá	717	San Juan la Laguna	12	San Juan la Laguna	9	Septiembre	2023-06-09T00:00:00	2024-11-08T04:00:00	2	Temperatura media	15.8
75794	7	Sololá	717	San Juan la Laguna	12	San Juan la Laguna	9	Septiembre	2023-06-09T00:00:00	2024-11-08T04:00:00	4	Temperatura máxima	16.8
75795	7	Sololá	717	San Juan la Laguna	12	San Juan la Laguna	9	Septiembre	2023-06-09T00:00:00	2024-11-08T04:00:00	3	Temperatura mínima	15.7
75796	7	Sololá	717	San Juan la Laguna	12	San Juan la Laguna	9	Septiembre	2023-06-09T00:00:00	2024-11-08T04:00:00	5	Humedad	88
75797	7	Sololá	717	San Juan la Laguna	12	San Juan la Laguna	9	Septiembre	2023-06-09T00:00:00	2024-11-08T04:00:00	6	Velocidad del viento	0
75798	7	Sololá	717	San Juan la Laguna	12	San Juan la Laguna	9	Septiembre	2023-06-09T00:00:00	2024-11-08T04:00:00	7	Dirección del viento	0
75799	7	Sololá	717	San Juan la Laguna	12	San Juan la Laguna	9	Septiembre	2023-06-09T00:00:00	2024-11-08T04:00:00	1	Precipitación	0
75800	7	Sololá	717	San Juan la Laguna	12	San Juan la Laguna	9	Septiembre	2023-06-09T00:00:00	2024-11-08T04:00:00	8	Radiación solar	0
75801	7	Sololá	717	San Juan la Laguna	12	San Juan la Laguna	9	Septiembre	2023-06-09T00:00:00	2024-11-08T05:00:00	2	Temperatura media	16.7
75802	7	Sololá	717	San Juan la Laguna	12	San Juan la Laguna	9	Septiembre	2023-06-09T00:00:00	2024-11-08T05:00:00	4	Temperatura máxima	16.7
75803	7	Sololá	717	San Juan la Laguna	12	San Juan la Laguna	9	Septiembre	2023-06-09T00:00:00	2024-11-08T05:00:00	3	Temperatura mínima	15.8
75804	7	Sololá	717	San Juan la Laguna	12	San Juan la Laguna	9	Septiembre	2023-06-09T00:00:00	2024-11-08T05:00:00	5	Humedad	87
75805	7	Sololá	717	San Juan la Laguna	12	San Juan la Laguna	9	Septiembre	2023-06-09T00:00:00	2024-11-08T05:00:00	6	Velocidad del viento	0
75806	7	Sololá	717	San Juan la Laguna	12	San Juan la Laguna	9	Septiembre	2023-06-09T00:00:00	2024-11-08T05:00:00	7	Dirección del viento	0
75807	7	Sololá	717	San Juan la Laguna	12	San Juan la Laguna	9	Septiembre	2023-06-09T00:00:00	2024-11-08T05:00:00	1	Precipitación	0
75808	7	Sololá	717	San Juan la Laguna	12	San Juan la Laguna	9	Septiembre	2023-06-09T00:00:00	2024-11-08T05:00:00	8	Radiación solar	0
75809	7	Sololá	717	San Juan la Laguna	12	San Juan la Laguna	9	Septiembre	2023-06-09T00:00:00	2024-11-08T06:00:00	2	Temperatura media	16.2
75810	7	Sololá	717	San Juan la Laguna	12	San Juan la Laguna	9	Septiembre	2023-06-09T00:00:00	2024-11-08T06:00:00	4	Temperatura máxima	16.8
75811	7	Sololá	717	San Juan la Laguna	12	San Juan la Laguna	9	Septiembre	2023-06-09T00:00:00	2024-11-08T06:00:00	3	Temperatura mínima	16.2
75812	7	Sololá	717	San Juan la Laguna	12	San Juan la Laguna	9	Septiembre	2023-06-09T00:00:00	2024-11-08T06:00:00	5	Humedad	88
75813	7	Sololá	717	San Juan la Laguna	12	San Juan la Laguna	9	Septiembre	2023-06-09T00:00:00	2024-11-08T06:00:00	6	Velocidad del viento	0
75814	7	Sololá	717	San Juan la Laguna	12	San Juan la Laguna	9	Septiembre	2023-06-09T00:00:00	2024-11-08T06:00:00	7	Dirección del viento	0
75815	7	Sololá	717	San Juan la Laguna	12	San Juan la Laguna	9	Septiembre	2023-06-09T00:00:00	2024-11-08T06:00:00	1	Precipitación	0
75816	7	Sololá	717	San Juan la Laguna	12	San Juan la Laguna	9	Septiembre	2023-06-09T00:00:00	2024-11-08T06:00:00	8	Radiación solar	0
75817	7	Sololá	717	San Juan la Laguna	12	San Juan la Laguna	9	Septiembre	2023-06-09T00:00:00	2024-11-08T07:00:00	2	Temperatura media	16.7
75818	7	Sololá	717	San Juan la Laguna	12	San Juan la Laguna	9	Septiembre	2023-06-09T00:00:00	2024-11-08T07:00:00	4	Temperatura máxima	16.7
75819	7	Sololá	717	San Juan la Laguna	12	San Juan la Laguna	9	Septiembre	2023-06-09T00:00:00	2024-11-08T07:00:00	3	Temperatura mínima	16.2
75820	7	Sololá	717	San Juan la Laguna	12	San Juan la Laguna	9	Septiembre	2023-06-09T00:00:00	2024-11-08T07:00:00	5	Humedad	88
75821	7	Sololá	717	San Juan la Laguna	12	San Juan la Laguna	9	Septiembre	2023-06-09T00:00:00	2024-11-08T07:00:00	6	Velocidad del viento	0
75822	7	Sololá	717	San Juan la Laguna	12	San Juan la Laguna	9	Septiembre	2023-06-09T00:00:00	2024-11-08T07:00:00	7	Dirección del viento	0
75823	7	Sololá	717	San Juan la Laguna	12	San Juan la Laguna	9	Septiembre	2023-06-09T00:00:00	2024-11-08T07:00:00	1	Precipitación	0
75824	7	Sololá	717	San Juan la Laguna	12	San Juan la Laguna	9	Septiembre	2023-06-09T00:00:00	2024-11-08T07:00:00	8	Radiación solar	37
75825	7	Sololá	717	San Juan la Laguna	12	San Juan la Laguna	9	Septiembre	2023-06-09T00:00:00	2024-11-08T08:00:00	2	Temperatura media	19.1
75826	7	Sololá	717	San Juan la Laguna	12	San Juan la Laguna	9	Septiembre	2023-06-09T00:00:00	2024-11-08T08:00:00	4	Temperatura máxima	19.1
75827	7	Sololá	717	San Juan la Laguna	12	San Juan la Laguna	9	Septiembre	2023-06-09T00:00:00	2024-11-08T08:00:00	3	Temperatura mínima	16.7
75828	7	Sololá	717	San Juan la Laguna	12	San Juan la Laguna	9	Septiembre	2023-06-09T00:00:00	2024-11-08T08:00:00	5	Humedad	84
75829	7	Sololá	717	San Juan la Laguna	12	San Juan la Laguna	9	Septiembre	2023-06-09T00:00:00	2024-11-08T08:00:00	6	Velocidad del viento	0
75830	7	Sololá	717	San Juan la Laguna	12	San Juan la Laguna	9	Septiembre	2023-06-09T00:00:00	2024-11-08T08:00:00	7	Dirección del viento	0
75831	7	Sololá	717	San Juan la Laguna	12	San Juan la Laguna	9	Septiembre	2023-06-09T00:00:00	2024-11-08T08:00:00	1	Precipitación	0
75832	7	Sololá	717	San Juan la Laguna	12	San Juan la Laguna	9	Septiembre	2023-06-09T00:00:00	2024-11-08T08:00:00	8	Radiación solar	161
75833	7	Sololá	717	San Juan la Laguna	12	San Juan la Laguna	9	Septiembre	2023-06-09T00:00:00	2024-11-08T09:00:00	2	Temperatura media	20.7
75834	7	Sololá	717	San Juan la Laguna	12	San Juan la Laguna	9	Septiembre	2023-06-09T00:00:00	2024-11-08T09:00:00	4	Temperatura máxima	20.7
75835	7	Sololá	717	San Juan la Laguna	12	San Juan la Laguna	9	Septiembre	2023-06-09T00:00:00	2024-11-08T09:00:00	3	Temperatura mínima	19.1
75836	7	Sololá	717	San Juan la Laguna	12	San Juan la Laguna	9	Septiembre	2023-06-09T00:00:00	2024-11-08T09:00:00	5	Humedad	77
75837	7	Sololá	717	San Juan la Laguna	12	San Juan la Laguna	9	Septiembre	2023-06-09T00:00:00	2024-11-08T09:00:00	6	Velocidad del viento	0
75838	7	Sololá	717	San Juan la Laguna	12	San Juan la Laguna	9	Septiembre	2023-06-09T00:00:00	2024-11-08T09:00:00	7	Dirección del viento	0
75839	7	Sololá	717	San Juan la Laguna	12	San Juan la Laguna	9	Septiembre	2023-06-09T00:00:00	2024-11-08T09:00:00	1	Precipitación	0
75840	7	Sololá	717	San Juan la Laguna	12	San Juan la Laguna	9	Septiembre	2023-06-09T00:00:00	2024-11-08T09:00:00	8	Radiación solar	236
75841	7	Sololá	717	San Juan la Laguna	12	San Juan la Laguna	9	Septiembre	2023-06-09T00:00:00	2024-11-08T10:00:00	2	Temperatura media	22
75842	7	Sololá	717	San Juan la Laguna	12	San Juan la Laguna	9	Septiembre	2023-06-09T00:00:00	2024-11-08T10:00:00	4	Temperatura máxima	22.6
75843	7	Sololá	717	San Juan la Laguna	12	San Juan la Laguna	9	Septiembre	2023-06-09T00:00:00	2024-11-08T10:00:00	3	Temperatura mínima	20.7
75844	7	Sololá	717	San Juan la Laguna	12	San Juan la Laguna	9	Septiembre	2023-06-09T00:00:00	2024-11-08T10:00:00	5	Humedad	64
75845	7	Sololá	717	San Juan la Laguna	12	San Juan la Laguna	9	Septiembre	2023-06-09T00:00:00	2024-11-08T10:00:00	6	Velocidad del viento	0
75846	7	Sololá	717	San Juan la Laguna	12	San Juan la Laguna	9	Septiembre	2023-06-09T00:00:00	2024-11-08T10:00:00	7	Dirección del viento	0
75847	7	Sololá	717	San Juan la Laguna	12	San Juan la Laguna	9	Septiembre	2023-06-09T00:00:00	2024-11-08T10:00:00	1	Precipitación	0
75848	7	Sololá	717	San Juan la Laguna	12	San Juan la Laguna	9	Septiembre	2023-06-09T00:00:00	2024-11-08T10:00:00	8	Radiación solar	376
75849	7	Sololá	717	San Juan la Laguna	12	San Juan la Laguna	9	Septiembre	2023-06-09T00:00:00	2024-11-08T11:00:00	2	Temperatura media	22.7
75850	7	Sololá	717	San Juan la Laguna	12	San Juan la Laguna	9	Septiembre	2023-06-09T00:00:00	2024-11-08T11:00:00	4	Temperatura máxima	22.9
75851	7	Sololá	717	San Juan la Laguna	12	San Juan la Laguna	9	Septiembre	2023-06-09T00:00:00	2024-11-08T11:00:00	3	Temperatura mínima	22
75852	7	Sololá	717	San Juan la Laguna	12	San Juan la Laguna	9	Septiembre	2023-06-09T00:00:00	2024-11-08T11:00:00	5	Humedad	63
75853	7	Sololá	717	San Juan la Laguna	12	San Juan la Laguna	9	Septiembre	2023-06-09T00:00:00	2024-11-08T11:00:00	6	Velocidad del viento	0
75854	7	Sololá	717	San Juan la Laguna	12	San Juan la Laguna	9	Septiembre	2023-06-09T00:00:00	2024-11-08T11:00:00	7	Dirección del viento	0
75855	7	Sololá	717	San Juan la Laguna	12	San Juan la Laguna	9	Septiembre	2023-06-09T00:00:00	2024-11-08T11:00:00	1	Precipitación	0
75856	7	Sololá	717	San Juan la Laguna	12	San Juan la Laguna	9	Septiembre	2023-06-09T00:00:00	2024-11-08T11:00:00	8	Radiación solar	415
75857	7	Sololá	717	San Juan la Laguna	12	San Juan la Laguna	9	Septiembre	2023-06-09T00:00:00	2024-11-08T12:00:00	2	Temperatura media	23.3
75858	7	Sololá	717	San Juan la Laguna	12	San Juan la Laguna	9	Septiembre	2023-06-09T00:00:00	2024-11-08T12:00:00	4	Temperatura máxima	24.5
75859	7	Sololá	717	San Juan la Laguna	12	San Juan la Laguna	9	Septiembre	2023-06-09T00:00:00	2024-11-08T12:00:00	3	Temperatura mínima	22.6
75860	7	Sololá	717	San Juan la Laguna	12	San Juan la Laguna	9	Septiembre	2023-06-09T00:00:00	2024-11-08T12:00:00	5	Humedad	60
75861	7	Sololá	717	San Juan la Laguna	12	San Juan la Laguna	9	Septiembre	2023-06-09T00:00:00	2024-11-08T12:00:00	6	Velocidad del viento	0
75862	7	Sololá	717	San Juan la Laguna	12	San Juan la Laguna	9	Septiembre	2023-06-09T00:00:00	2024-11-08T12:00:00	7	Dirección del viento	0
75863	7	Sololá	717	San Juan la Laguna	12	San Juan la Laguna	9	Septiembre	2023-06-09T00:00:00	2024-11-08T12:00:00	1	Precipitación	0
75864	7	Sololá	717	San Juan la Laguna	12	San Juan la Laguna	9	Septiembre	2023-06-09T00:00:00	2024-11-08T12:00:00	8	Radiación solar	441
75865	7	Sololá	717	San Juan la Laguna	12	San Juan la Laguna	9	Septiembre	2023-06-09T00:00:00	2024-11-08T13:00:00	2	Temperatura media	23.7
75866	7	Sololá	717	San Juan la Laguna	12	San Juan la Laguna	9	Septiembre	2023-06-09T00:00:00	2024-11-08T13:00:00	4	Temperatura máxima	23.7
75867	7	Sololá	717	San Juan la Laguna	12	San Juan la Laguna	9	Septiembre	2023-06-09T00:00:00	2024-11-08T13:00:00	3	Temperatura mínima	23.2
75868	7	Sololá	717	San Juan la Laguna	12	San Juan la Laguna	9	Septiembre	2023-06-09T00:00:00	2024-11-08T13:00:00	5	Humedad	62
75869	7	Sololá	717	San Juan la Laguna	12	San Juan la Laguna	9	Septiembre	2023-06-09T00:00:00	2024-11-08T13:00:00	6	Velocidad del viento	0
75870	7	Sololá	717	San Juan la Laguna	12	San Juan la Laguna	9	Septiembre	2023-06-09T00:00:00	2024-11-08T13:00:00	7	Dirección del viento	0
75871	7	Sololá	717	San Juan la Laguna	12	San Juan la Laguna	9	Septiembre	2023-06-09T00:00:00	2024-11-08T13:00:00	1	Precipitación	0
75872	7	Sololá	717	San Juan la Laguna	12	San Juan la Laguna	9	Septiembre	2023-06-09T00:00:00	2024-11-08T13:00:00	8	Radiación solar	344
75873	7	Sololá	717	San Juan la Laguna	12	San Juan la Laguna	9	Septiembre	2023-06-09T00:00:00	2024-11-08T14:00:00	2	Temperatura media	25.7
75874	7	Sololá	717	San Juan la Laguna	12	San Juan la Laguna	9	Septiembre	2023-06-09T00:00:00	2024-11-08T14:00:00	4	Temperatura máxima	25.7
75875	7	Sololá	717	San Juan la Laguna	12	San Juan la Laguna	9	Septiembre	2023-06-09T00:00:00	2024-11-08T14:00:00	3	Temperatura mínima	23.5
75876	7	Sololá	717	San Juan la Laguna	12	San Juan la Laguna	9	Septiembre	2023-06-09T00:00:00	2024-11-08T14:00:00	5	Humedad	59
75877	7	Sololá	717	San Juan la Laguna	12	San Juan la Laguna	9	Septiembre	2023-06-09T00:00:00	2024-11-08T14:00:00	6	Velocidad del viento	0
75878	7	Sololá	717	San Juan la Laguna	12	San Juan la Laguna	9	Septiembre	2023-06-09T00:00:00	2024-11-08T14:00:00	7	Dirección del viento	0
75879	7	Sololá	717	San Juan la Laguna	12	San Juan la Laguna	9	Septiembre	2023-06-09T00:00:00	2024-11-08T14:00:00	1	Precipitación	0
75880	7	Sololá	717	San Juan la Laguna	12	San Juan la Laguna	9	Septiembre	2023-06-09T00:00:00	2024-11-08T14:00:00	8	Radiación solar	421
75881	7	Sololá	717	San Juan la Laguna	12	San Juan la Laguna	9	Septiembre	2023-06-09T00:00:00	2024-11-08T15:00:00	2	Temperatura media	24.2
75882	7	Sololá	717	San Juan la Laguna	12	San Juan la Laguna	9	Septiembre	2023-06-09T00:00:00	2024-11-08T15:00:00	4	Temperatura máxima	25.8
75883	7	Sololá	717	San Juan la Laguna	12	San Juan la Laguna	9	Septiembre	2023-06-09T00:00:00	2024-11-08T15:00:00	3	Temperatura mínima	23.7
75884	7	Sololá	717	San Juan la Laguna	12	San Juan la Laguna	9	Septiembre	2023-06-09T00:00:00	2024-11-08T15:00:00	5	Humedad	71
75885	7	Sololá	717	San Juan la Laguna	12	San Juan la Laguna	9	Septiembre	2023-06-09T00:00:00	2024-11-08T15:00:00	6	Velocidad del viento	0
75886	7	Sololá	717	San Juan la Laguna	12	San Juan la Laguna	9	Septiembre	2023-06-09T00:00:00	2024-11-08T15:00:00	7	Dirección del viento	0
75887	7	Sololá	717	San Juan la Laguna	12	San Juan la Laguna	9	Septiembre	2023-06-09T00:00:00	2024-11-08T15:00:00	1	Precipitación	0
75888	7	Sololá	717	San Juan la Laguna	12	San Juan la Laguna	9	Septiembre	2023-06-09T00:00:00	2024-11-08T15:00:00	8	Radiación solar	367
75889	7	Sololá	717	San Juan la Laguna	12	San Juan la Laguna	9	Septiembre	2023-06-09T00:00:00	2024-11-08T16:00:00	2	Temperatura media	24.3
75890	7	Sololá	717	San Juan la Laguna	12	San Juan la Laguna	9	Septiembre	2023-06-09T00:00:00	2024-11-08T16:00:00	4	Temperatura máxima	24.8
75891	7	Sololá	717	San Juan la Laguna	12	San Juan la Laguna	9	Septiembre	2023-06-09T00:00:00	2024-11-08T16:00:00	3	Temperatura mínima	24.2
75892	7	Sololá	717	San Juan la Laguna	12	San Juan la Laguna	9	Septiembre	2023-06-09T00:00:00	2024-11-08T16:00:00	5	Humedad	71
75893	7	Sololá	717	San Juan la Laguna	12	San Juan la Laguna	9	Septiembre	2023-06-09T00:00:00	2024-11-08T16:00:00	6	Velocidad del viento	0
75894	7	Sololá	717	San Juan la Laguna	12	San Juan la Laguna	9	Septiembre	2023-06-09T00:00:00	2024-11-08T16:00:00	7	Dirección del viento	0
75895	7	Sololá	717	San Juan la Laguna	12	San Juan la Laguna	9	Septiembre	2023-06-09T00:00:00	2024-11-08T16:00:00	1	Precipitación	0
75896	7	Sololá	717	San Juan la Laguna	12	San Juan la Laguna	9	Septiembre	2023-06-09T00:00:00	2024-11-08T16:00:00	8	Radiación solar	541
75897	7	Sololá	717	San Juan la Laguna	12	San Juan la Laguna	9	Septiembre	2023-06-09T00:00:00	2024-11-08T17:00:00	2	Temperatura media	23.1
75898	7	Sololá	717	San Juan la Laguna	12	San Juan la Laguna	9	Septiembre	2023-06-09T00:00:00	2024-11-08T17:00:00	4	Temperatura máxima	24.3
75899	7	Sololá	717	San Juan la Laguna	12	San Juan la Laguna	9	Septiembre	2023-06-09T00:00:00	2024-11-08T17:00:00	3	Temperatura mínima	23.1
75900	7	Sololá	717	San Juan la Laguna	12	San Juan la Laguna	9	Septiembre	2023-06-09T00:00:00	2024-11-08T17:00:00	5	Humedad	77
75901	7	Sololá	717	San Juan la Laguna	12	San Juan la Laguna	9	Septiembre	2023-06-09T00:00:00	2024-11-08T17:00:00	6	Velocidad del viento	0
75902	7	Sololá	717	San Juan la Laguna	12	San Juan la Laguna	9	Septiembre	2023-06-09T00:00:00	2024-11-08T17:00:00	7	Dirección del viento	0
75903	7	Sololá	717	San Juan la Laguna	12	San Juan la Laguna	9	Septiembre	2023-06-09T00:00:00	2024-11-08T17:00:00	1	Precipitación	0
75904	7	Sololá	717	San Juan la Laguna	12	San Juan la Laguna	9	Septiembre	2023-06-09T00:00:00	2024-11-08T17:00:00	8	Radiación solar	162
75905	7	Sololá	717	San Juan la Laguna	12	San Juan la Laguna	9	Septiembre	2023-06-09T00:00:00	2024-11-08T18:00:00	2	Temperatura media	22.3
75906	7	Sololá	717	San Juan la Laguna	12	San Juan la Laguna	9	Septiembre	2023-06-09T00:00:00	2024-11-08T18:00:00	4	Temperatura máxima	23.2
75907	7	Sololá	717	San Juan la Laguna	12	San Juan la Laguna	9	Septiembre	2023-06-09T00:00:00	2024-11-08T18:00:00	3	Temperatura mínima	22.3
75908	7	Sololá	717	San Juan la Laguna	12	San Juan la Laguna	9	Septiembre	2023-06-09T00:00:00	2024-11-08T18:00:00	5	Humedad	80
75909	7	Sololá	717	San Juan la Laguna	12	San Juan la Laguna	9	Septiembre	2023-06-09T00:00:00	2024-11-08T18:00:00	6	Velocidad del viento	0
75910	7	Sololá	717	San Juan la Laguna	12	San Juan la Laguna	9	Septiembre	2023-06-09T00:00:00	2024-11-08T18:00:00	7	Dirección del viento	0
75911	7	Sololá	717	San Juan la Laguna	12	San Juan la Laguna	9	Septiembre	2023-06-09T00:00:00	2024-11-08T18:00:00	1	Precipitación	0
75912	7	Sololá	717	San Juan la Laguna	12	San Juan la Laguna	9	Septiembre	2023-06-09T00:00:00	2024-11-08T18:00:00	8	Radiación solar	134
75913	7	Sololá	717	San Juan la Laguna	12	San Juan la Laguna	9	Septiembre	2023-06-09T00:00:00	2024-11-08T19:00:00	2	Temperatura media	20.3
75914	7	Sololá	717	San Juan la Laguna	12	San Juan la Laguna	9	Septiembre	2023-06-09T00:00:00	2024-11-08T19:00:00	4	Temperatura máxima	22.3
75915	7	Sololá	717	San Juan la Laguna	12	San Juan la Laguna	9	Septiembre	2023-06-09T00:00:00	2024-11-08T19:00:00	3	Temperatura mínima	20.3
75916	7	Sololá	717	San Juan la Laguna	12	San Juan la Laguna	9	Septiembre	2023-06-09T00:00:00	2024-11-08T19:00:00	5	Humedad	88
75917	7	Sololá	717	San Juan la Laguna	12	San Juan la Laguna	9	Septiembre	2023-06-09T00:00:00	2024-11-08T19:00:00	6	Velocidad del viento	0
75918	7	Sololá	717	San Juan la Laguna	12	San Juan la Laguna	9	Septiembre	2023-06-09T00:00:00	2024-11-08T19:00:00	7	Dirección del viento	0
75919	7	Sololá	717	San Juan la Laguna	12	San Juan la Laguna	9	Septiembre	2023-06-09T00:00:00	2024-11-08T19:00:00	1	Precipitación	0
75920	7	Sololá	717	San Juan la Laguna	12	San Juan la Laguna	9	Septiembre	2023-06-09T00:00:00	2024-11-08T19:00:00	8	Radiación solar	0
75921	7	Sololá	717	San Juan la Laguna	12	San Juan la Laguna	9	Septiembre	2023-06-09T00:00:00	2024-11-08T20:00:00	2	Temperatura media	19.1
75922	7	Sololá	717	San Juan la Laguna	12	San Juan la Laguna	9	Septiembre	2023-06-09T00:00:00	2024-11-08T20:00:00	4	Temperatura máxima	20.3
75923	7	Sololá	717	San Juan la Laguna	12	San Juan la Laguna	9	Septiembre	2023-06-09T00:00:00	2024-11-08T20:00:00	3	Temperatura mínima	19.1
75924	7	Sololá	717	San Juan la Laguna	12	San Juan la Laguna	9	Septiembre	2023-06-09T00:00:00	2024-11-08T20:00:00	5	Humedad	87
75925	7	Sololá	717	San Juan la Laguna	12	San Juan la Laguna	9	Septiembre	2023-06-09T00:00:00	2024-11-08T20:00:00	6	Velocidad del viento	0
75926	7	Sololá	717	San Juan la Laguna	12	San Juan la Laguna	9	Septiembre	2023-06-09T00:00:00	2024-11-08T20:00:00	7	Dirección del viento	0
75927	7	Sololá	717	San Juan la Laguna	12	San Juan la Laguna	9	Septiembre	2023-06-09T00:00:00	2024-11-08T20:00:00	1	Precipitación	0
75928	7	Sololá	717	San Juan la Laguna	12	San Juan la Laguna	9	Septiembre	2023-06-09T00:00:00	2024-11-08T20:00:00	8	Radiación solar	0
75929	7	Sololá	717	San Juan la Laguna	12	San Juan la Laguna	9	Septiembre	2023-06-09T00:00:00	2024-11-08T21:00:00	2	Temperatura media	18.3
75930	7	Sololá	717	San Juan la Laguna	12	San Juan la Laguna	9	Septiembre	2023-06-09T00:00:00	2024-11-08T21:00:00	4	Temperatura máxima	19.1
75931	7	Sololá	717	San Juan la Laguna	12	San Juan la Laguna	9	Septiembre	2023-06-09T00:00:00	2024-11-08T21:00:00	3	Temperatura mínima	18.3
75932	7	Sololá	717	San Juan la Laguna	12	San Juan la Laguna	9	Septiembre	2023-06-09T00:00:00	2024-11-08T21:00:00	5	Humedad	87
75933	7	Sololá	717	San Juan la Laguna	12	San Juan la Laguna	9	Septiembre	2023-06-09T00:00:00	2024-11-08T21:00:00	6	Velocidad del viento	1.6
75934	7	Sololá	717	San Juan la Laguna	12	San Juan la Laguna	9	Septiembre	2023-06-09T00:00:00	2024-11-08T21:00:00	7	Dirección del viento	1.61
75935	7	Sololá	717	San Juan la Laguna	12	San Juan la Laguna	9	Septiembre	2023-06-09T00:00:00	2024-11-08T21:00:00	1	Precipitación	0
75936	7	Sololá	717	San Juan la Laguna	12	San Juan la Laguna	9	Septiembre	2023-06-09T00:00:00	2024-11-08T21:00:00	8	Radiación solar	0
75937	7	Sololá	717	San Juan la Laguna	12	San Juan la Laguna	9	Septiembre	2023-06-09T00:00:00	2024-11-08T22:00:00	2	Temperatura media	17.9
75938	7	Sololá	717	San Juan la Laguna	12	San Juan la Laguna	9	Septiembre	2023-06-09T00:00:00	2024-11-08T22:00:00	4	Temperatura máxima	18.3
75939	7	Sololá	717	San Juan la Laguna	12	San Juan la Laguna	9	Septiembre	2023-06-09T00:00:00	2024-11-08T22:00:00	3	Temperatura mínima	17.7
75940	7	Sololá	717	San Juan la Laguna	12	San Juan la Laguna	9	Septiembre	2023-06-09T00:00:00	2024-11-08T22:00:00	5	Humedad	88
75941	7	Sololá	717	San Juan la Laguna	12	San Juan la Laguna	9	Septiembre	2023-06-09T00:00:00	2024-11-08T22:00:00	6	Velocidad del viento	1.6
75942	7	Sololá	717	San Juan la Laguna	12	San Juan la Laguna	9	Septiembre	2023-06-09T00:00:00	2024-11-08T22:00:00	7	Dirección del viento	1.61
75943	7	Sololá	717	San Juan la Laguna	12	San Juan la Laguna	9	Septiembre	2023-06-09T00:00:00	2024-11-08T22:00:00	1	Precipitación	0
75944	7	Sololá	717	San Juan la Laguna	12	San Juan la Laguna	9	Septiembre	2023-06-09T00:00:00	2024-11-08T22:00:00	8	Radiación solar	0
75945	7	Sololá	717	San Juan la Laguna	12	San Juan la Laguna	9	Septiembre	2023-06-09T00:00:00	2024-11-08T23:00:00	2	Temperatura media	17.3
75946	7	Sololá	717	San Juan la Laguna	12	San Juan la Laguna	9	Septiembre	2023-06-09T00:00:00	2024-11-08T23:00:00	4	Temperatura máxima	17.9
75947	7	Sololá	717	San Juan la Laguna	12	San Juan la Laguna	9	Septiembre	2023-06-09T00:00:00	2024-11-08T23:00:00	3	Temperatura mínima	17.3
75948	7	Sololá	717	San Juan la Laguna	12	San Juan la Laguna	9	Septiembre	2023-06-09T00:00:00	2024-11-08T23:00:00	5	Humedad	87
75949	7	Sololá	717	San Juan la Laguna	12	San Juan la Laguna	9	Septiembre	2023-06-09T00:00:00	2024-11-08T23:00:00	6	Velocidad del viento	3.2
75950	7	Sololá	717	San Juan la Laguna	12	San Juan la Laguna	9	Septiembre	2023-06-09T00:00:00	2024-11-08T23:00:00	7	Dirección del viento	3.22
75951	7	Sololá	717	San Juan la Laguna	12	San Juan la Laguna	9	Septiembre	2023-06-09T00:00:00	2024-11-08T23:00:00	1	Precipitación	0
75952	7	Sololá	717	San Juan la Laguna	12	San Juan la Laguna	9	Septiembre	2023-06-09T00:00:00	2024-11-08T23:00:00	8	Radiación solar	0
75953	7	Sololá	717	San Juan la Laguna	12	San Juan la Laguna	9	Septiembre	2023-07-09T00:00:00	2024-11-08T00:00:00	2	Temperatura media	17.1
75954	7	Sololá	717	San Juan la Laguna	12	San Juan la Laguna	9	Septiembre	2023-07-09T00:00:00	2024-11-08T00:00:00	4	Temperatura máxima	17.3
75955	7	Sololá	717	San Juan la Laguna	12	San Juan la Laguna	9	Septiembre	2023-07-09T00:00:00	2024-11-08T00:00:00	3	Temperatura mínima	17.1
75956	7	Sololá	717	San Juan la Laguna	12	San Juan la Laguna	9	Septiembre	2023-07-09T00:00:00	2024-11-08T00:00:00	5	Humedad	87
75957	7	Sololá	717	San Juan la Laguna	12	San Juan la Laguna	9	Septiembre	2023-07-09T00:00:00	2024-11-08T00:00:00	6	Velocidad del viento	0
75958	7	Sololá	717	San Juan la Laguna	12	San Juan la Laguna	9	Septiembre	2023-07-09T00:00:00	2024-11-08T00:00:00	7	Dirección del viento	0
75959	7	Sololá	717	San Juan la Laguna	12	San Juan la Laguna	9	Septiembre	2023-07-09T00:00:00	2024-11-08T00:00:00	1	Precipitación	0
75960	7	Sololá	717	San Juan la Laguna	12	San Juan la Laguna	9	Septiembre	2023-07-09T00:00:00	2024-11-08T00:00:00	8	Radiación solar	0
75961	7	Sololá	717	San Juan la Laguna	12	San Juan la Laguna	9	Septiembre	2023-07-09T00:00:00	2024-11-08T01:00:00	2	Temperatura media	16.9
75962	7	Sololá	717	San Juan la Laguna	12	San Juan la Laguna	9	Septiembre	2023-07-09T00:00:00	2024-11-08T01:00:00	4	Temperatura máxima	17.3
75963	7	Sololá	717	San Juan la Laguna	12	San Juan la Laguna	9	Septiembre	2023-07-09T00:00:00	2024-11-08T01:00:00	3	Temperatura mínima	16.9
75964	7	Sololá	717	San Juan la Laguna	12	San Juan la Laguna	9	Septiembre	2023-07-09T00:00:00	2024-11-08T01:00:00	5	Humedad	87
75965	7	Sololá	717	San Juan la Laguna	12	San Juan la Laguna	9	Septiembre	2023-07-09T00:00:00	2024-11-08T01:00:00	6	Velocidad del viento	0
75966	7	Sololá	717	San Juan la Laguna	12	San Juan la Laguna	9	Septiembre	2023-07-09T00:00:00	2024-11-08T01:00:00	7	Dirección del viento	0
75967	7	Sololá	717	San Juan la Laguna	12	San Juan la Laguna	9	Septiembre	2023-07-09T00:00:00	2024-11-08T01:00:00	1	Precipitación	0
75968	7	Sololá	717	San Juan la Laguna	12	San Juan la Laguna	9	Septiembre	2023-07-09T00:00:00	2024-11-08T01:00:00	8	Radiación solar	0
75969	7	Sololá	717	San Juan la Laguna	12	San Juan la Laguna	9	Septiembre	2023-07-09T00:00:00	2024-11-08T02:00:00	2	Temperatura media	16.9
75970	7	Sololá	717	San Juan la Laguna	12	San Juan la Laguna	9	Septiembre	2023-07-09T00:00:00	2024-11-08T02:00:00	4	Temperatura máxima	16.9
75971	7	Sololá	717	San Juan la Laguna	12	San Juan la Laguna	9	Septiembre	2023-07-09T00:00:00	2024-11-08T02:00:00	3	Temperatura mínima	16.6
75972	7	Sololá	717	San Juan la Laguna	12	San Juan la Laguna	9	Septiembre	2023-07-09T00:00:00	2024-11-08T02:00:00	5	Humedad	86
75973	7	Sololá	717	San Juan la Laguna	12	San Juan la Laguna	9	Septiembre	2023-07-09T00:00:00	2024-11-08T02:00:00	6	Velocidad del viento	1.6
75974	7	Sololá	717	San Juan la Laguna	12	San Juan la Laguna	9	Septiembre	2023-07-09T00:00:00	2024-11-08T02:00:00	7	Dirección del viento	1.61
75975	7	Sololá	717	San Juan la Laguna	12	San Juan la Laguna	9	Septiembre	2023-07-09T00:00:00	2024-11-08T02:00:00	1	Precipitación	0
75976	7	Sololá	717	San Juan la Laguna	12	San Juan la Laguna	9	Septiembre	2023-07-09T00:00:00	2024-11-08T02:00:00	8	Radiación solar	0
75977	7	Sololá	717	San Juan la Laguna	12	San Juan la Laguna	9	Septiembre	2023-07-09T00:00:00	2024-11-08T03:00:00	2	Temperatura media	16.7
75978	7	Sololá	717	San Juan la Laguna	12	San Juan la Laguna	9	Septiembre	2023-07-09T00:00:00	2024-11-08T03:00:00	4	Temperatura máxima	16.9
75979	7	Sololá	717	San Juan la Laguna	12	San Juan la Laguna	9	Septiembre	2023-07-09T00:00:00	2024-11-08T03:00:00	3	Temperatura mínima	16.7
75980	7	Sololá	717	San Juan la Laguna	12	San Juan la Laguna	9	Septiembre	2023-07-09T00:00:00	2024-11-08T03:00:00	5	Humedad	86
75981	7	Sololá	717	San Juan la Laguna	12	San Juan la Laguna	9	Septiembre	2023-07-09T00:00:00	2024-11-08T03:00:00	6	Velocidad del viento	1.6
75982	7	Sololá	717	San Juan la Laguna	12	San Juan la Laguna	9	Septiembre	2023-07-09T00:00:00	2024-11-08T03:00:00	7	Dirección del viento	1.61
75983	7	Sololá	717	San Juan la Laguna	12	San Juan la Laguna	9	Septiembre	2023-07-09T00:00:00	2024-11-08T03:00:00	1	Precipitación	0
75984	7	Sololá	717	San Juan la Laguna	12	San Juan la Laguna	9	Septiembre	2023-07-09T00:00:00	2024-11-08T03:00:00	8	Radiación solar	0
75985	7	Sololá	717	San Juan la Laguna	12	San Juan la Laguna	9	Septiembre	2023-07-09T00:00:00	2024-11-08T04:00:00	2	Temperatura media	16.3
75986	7	Sololá	717	San Juan la Laguna	12	San Juan la Laguna	9	Septiembre	2023-07-09T00:00:00	2024-11-08T04:00:00	4	Temperatura máxima	16.7
75987	7	Sololá	717	San Juan la Laguna	12	San Juan la Laguna	9	Septiembre	2023-07-09T00:00:00	2024-11-08T04:00:00	3	Temperatura mínima	16.1
75988	7	Sololá	717	San Juan la Laguna	12	San Juan la Laguna	9	Septiembre	2023-07-09T00:00:00	2024-11-08T04:00:00	5	Humedad	88
75989	7	Sololá	717	San Juan la Laguna	12	San Juan la Laguna	9	Septiembre	2023-07-09T00:00:00	2024-11-08T04:00:00	6	Velocidad del viento	0
75990	7	Sololá	717	San Juan la Laguna	12	San Juan la Laguna	9	Septiembre	2023-07-09T00:00:00	2024-11-08T04:00:00	7	Dirección del viento	0
75991	7	Sololá	717	San Juan la Laguna	12	San Juan la Laguna	9	Septiembre	2023-07-09T00:00:00	2024-11-08T04:00:00	1	Precipitación	0
75992	7	Sololá	717	San Juan la Laguna	12	San Juan la Laguna	9	Septiembre	2023-07-09T00:00:00	2024-11-08T04:00:00	8	Radiación solar	0
75993	7	Sololá	717	San Juan la Laguna	12	San Juan la Laguna	9	Septiembre	2023-07-09T00:00:00	2024-11-08T05:00:00	2	Temperatura media	15.8
75994	7	Sololá	717	San Juan la Laguna	12	San Juan la Laguna	9	Septiembre	2023-07-09T00:00:00	2024-11-08T05:00:00	4	Temperatura máxima	16.3
75995	7	Sololá	717	San Juan la Laguna	12	San Juan la Laguna	9	Septiembre	2023-07-09T00:00:00	2024-11-08T05:00:00	3	Temperatura mínima	15.8
75996	7	Sololá	717	San Juan la Laguna	12	San Juan la Laguna	9	Septiembre	2023-07-09T00:00:00	2024-11-08T05:00:00	5	Humedad	88
75997	7	Sololá	717	San Juan la Laguna	12	San Juan la Laguna	9	Septiembre	2023-07-09T00:00:00	2024-11-08T05:00:00	6	Velocidad del viento	0
75998	7	Sololá	717	San Juan la Laguna	12	San Juan la Laguna	9	Septiembre	2023-07-09T00:00:00	2024-11-08T05:00:00	7	Dirección del viento	0
75999	7	Sololá	717	San Juan la Laguna	12	San Juan la Laguna	9	Septiembre	2023-07-09T00:00:00	2024-11-08T05:00:00	1	Precipitación	0
76000	7	Sololá	717	San Juan la Laguna	12	San Juan la Laguna	9	Septiembre	2023-07-09T00:00:00	2024-11-08T05:00:00	8	Radiación solar	0
76001	7	Sololá	717	San Juan la Laguna	12	San Juan la Laguna	9	Septiembre	2023-07-09T00:00:00	2024-11-08T06:00:00	2	Temperatura media	16.1
76002	7	Sololá	717	San Juan la Laguna	12	San Juan la Laguna	9	Septiembre	2023-07-09T00:00:00	2024-11-08T06:00:00	4	Temperatura máxima	16.3
76003	7	Sololá	717	San Juan la Laguna	12	San Juan la Laguna	9	Septiembre	2023-07-09T00:00:00	2024-11-08T06:00:00	3	Temperatura mínima	15.9
76004	7	Sololá	717	San Juan la Laguna	12	San Juan la Laguna	9	Septiembre	2023-07-09T00:00:00	2024-11-08T06:00:00	5	Humedad	88
76005	7	Sololá	717	San Juan la Laguna	12	San Juan la Laguna	9	Septiembre	2023-07-09T00:00:00	2024-11-08T06:00:00	6	Velocidad del viento	0
76006	7	Sololá	717	San Juan la Laguna	12	San Juan la Laguna	9	Septiembre	2023-07-09T00:00:00	2024-11-08T06:00:00	7	Dirección del viento	0
76007	7	Sololá	717	San Juan la Laguna	12	San Juan la Laguna	9	Septiembre	2023-07-09T00:00:00	2024-11-08T06:00:00	1	Precipitación	0
76008	7	Sololá	717	San Juan la Laguna	12	San Juan la Laguna	9	Septiembre	2023-07-09T00:00:00	2024-11-08T06:00:00	8	Radiación solar	0
76009	7	Sololá	717	San Juan la Laguna	12	San Juan la Laguna	9	Septiembre	2023-07-09T00:00:00	2024-11-08T07:00:00	2	Temperatura media	16.8
76010	7	Sololá	717	San Juan la Laguna	12	San Juan la Laguna	9	Septiembre	2023-07-09T00:00:00	2024-11-08T07:00:00	4	Temperatura máxima	16.8
76011	7	Sololá	717	San Juan la Laguna	12	San Juan la Laguna	9	Septiembre	2023-07-09T00:00:00	2024-11-08T07:00:00	3	Temperatura mínima	16
76012	7	Sololá	717	San Juan la Laguna	12	San Juan la Laguna	9	Septiembre	2023-07-09T00:00:00	2024-11-08T07:00:00	5	Humedad	88
76013	7	Sololá	717	San Juan la Laguna	12	San Juan la Laguna	9	Septiembre	2023-07-09T00:00:00	2024-11-08T07:00:00	6	Velocidad del viento	0
76014	7	Sololá	717	San Juan la Laguna	12	San Juan la Laguna	9	Septiembre	2023-07-09T00:00:00	2024-11-08T07:00:00	7	Dirección del viento	0
76015	7	Sololá	717	San Juan la Laguna	12	San Juan la Laguna	9	Septiembre	2023-07-09T00:00:00	2024-11-08T07:00:00	1	Precipitación	0
76016	7	Sololá	717	San Juan la Laguna	12	San Juan la Laguna	9	Septiembre	2023-07-09T00:00:00	2024-11-08T07:00:00	8	Radiación solar	48
76017	7	Sololá	717	San Juan la Laguna	12	San Juan la Laguna	9	Septiembre	2023-07-09T00:00:00	2024-11-08T08:00:00	2	Temperatura media	21.2
76018	7	Sololá	717	San Juan la Laguna	12	San Juan la Laguna	9	Septiembre	2023-07-09T00:00:00	2024-11-08T08:00:00	4	Temperatura máxima	21.2
76019	7	Sololá	717	San Juan la Laguna	12	San Juan la Laguna	9	Septiembre	2023-07-09T00:00:00	2024-11-08T08:00:00	3	Temperatura mínima	16.8
76020	7	Sololá	717	San Juan la Laguna	12	San Juan la Laguna	9	Septiembre	2023-07-09T00:00:00	2024-11-08T08:00:00	5	Humedad	77
76021	7	Sololá	717	San Juan la Laguna	12	San Juan la Laguna	9	Septiembre	2023-07-09T00:00:00	2024-11-08T08:00:00	6	Velocidad del viento	0
76022	7	Sololá	717	San Juan la Laguna	12	San Juan la Laguna	9	Septiembre	2023-07-09T00:00:00	2024-11-08T08:00:00	7	Dirección del viento	0
76023	7	Sololá	717	San Juan la Laguna	12	San Juan la Laguna	9	Septiembre	2023-07-09T00:00:00	2024-11-08T08:00:00	1	Precipitación	0
76024	7	Sololá	717	San Juan la Laguna	12	San Juan la Laguna	9	Septiembre	2023-07-09T00:00:00	2024-11-08T08:00:00	8	Radiación solar	207
76025	7	Sololá	717	San Juan la Laguna	12	San Juan la Laguna	9	Septiembre	2023-07-09T00:00:00	2024-11-08T09:00:00	2	Temperatura media	22.6
76026	7	Sololá	717	San Juan la Laguna	12	San Juan la Laguna	9	Septiembre	2023-07-09T00:00:00	2024-11-08T09:00:00	4	Temperatura máxima	22.6
76027	7	Sololá	717	San Juan la Laguna	12	San Juan la Laguna	9	Septiembre	2023-07-09T00:00:00	2024-11-08T09:00:00	3	Temperatura mínima	21.3
76028	7	Sololá	717	San Juan la Laguna	12	San Juan la Laguna	9	Septiembre	2023-07-09T00:00:00	2024-11-08T09:00:00	5	Humedad	71
76029	7	Sololá	717	San Juan la Laguna	12	San Juan la Laguna	9	Septiembre	2023-07-09T00:00:00	2024-11-08T09:00:00	6	Velocidad del viento	0
76030	7	Sololá	717	San Juan la Laguna	12	San Juan la Laguna	9	Septiembre	2023-07-09T00:00:00	2024-11-08T09:00:00	7	Dirección del viento	0
76031	7	Sololá	717	San Juan la Laguna	12	San Juan la Laguna	9	Septiembre	2023-07-09T00:00:00	2024-11-08T09:00:00	1	Precipitación	0
76032	7	Sololá	717	San Juan la Laguna	12	San Juan la Laguna	9	Septiembre	2023-07-09T00:00:00	2024-11-08T09:00:00	8	Radiación solar	401
76033	7	Sololá	717	San Juan la Laguna	12	San Juan la Laguna	9	Septiembre	2023-07-09T00:00:00	2024-11-08T10:00:00	2	Temperatura media	24.1
76034	7	Sololá	717	San Juan la Laguna	12	San Juan la Laguna	9	Septiembre	2023-07-09T00:00:00	2024-11-08T10:00:00	4	Temperatura máxima	24.1
76035	7	Sololá	717	San Juan la Laguna	12	San Juan la Laguna	9	Septiembre	2023-07-09T00:00:00	2024-11-08T10:00:00	3	Temperatura mínima	22.3
76036	7	Sololá	717	San Juan la Laguna	12	San Juan la Laguna	9	Septiembre	2023-07-09T00:00:00	2024-11-08T10:00:00	5	Humedad	66
76037	7	Sololá	717	San Juan la Laguna	12	San Juan la Laguna	9	Septiembre	2023-07-09T00:00:00	2024-11-08T10:00:00	6	Velocidad del viento	0
76038	7	Sololá	717	San Juan la Laguna	12	San Juan la Laguna	9	Septiembre	2023-07-09T00:00:00	2024-11-08T10:00:00	7	Dirección del viento	0
76039	7	Sololá	717	San Juan la Laguna	12	San Juan la Laguna	9	Septiembre	2023-07-09T00:00:00	2024-11-08T10:00:00	1	Precipitación	0
76040	7	Sololá	717	San Juan la Laguna	12	San Juan la Laguna	9	Septiembre	2023-07-09T00:00:00	2024-11-08T10:00:00	8	Radiación solar	591
76041	7	Sololá	717	San Juan la Laguna	12	San Juan la Laguna	9	Septiembre	2023-07-09T00:00:00	2024-11-08T11:00:00	2	Temperatura media	24.8
76042	7	Sololá	717	San Juan la Laguna	12	San Juan la Laguna	9	Septiembre	2023-07-09T00:00:00	2024-11-08T11:00:00	4	Temperatura máxima	24.8
76043	7	Sololá	717	San Juan la Laguna	12	San Juan la Laguna	9	Septiembre	2023-07-09T00:00:00	2024-11-08T11:00:00	3	Temperatura mínima	23.8
76044	7	Sololá	717	San Juan la Laguna	12	San Juan la Laguna	9	Septiembre	2023-07-09T00:00:00	2024-11-08T11:00:00	5	Humedad	59
76045	7	Sololá	717	San Juan la Laguna	12	San Juan la Laguna	9	Septiembre	2023-07-09T00:00:00	2024-11-08T11:00:00	6	Velocidad del viento	1.6
76046	7	Sololá	717	San Juan la Laguna	12	San Juan la Laguna	9	Septiembre	2023-07-09T00:00:00	2024-11-08T11:00:00	7	Dirección del viento	1.61
76047	7	Sololá	717	San Juan la Laguna	12	San Juan la Laguna	9	Septiembre	2023-07-09T00:00:00	2024-11-08T11:00:00	1	Precipitación	0
76048	7	Sololá	717	San Juan la Laguna	12	San Juan la Laguna	9	Septiembre	2023-07-09T00:00:00	2024-11-08T11:00:00	8	Radiación solar	697
76049	7	Sololá	717	San Juan la Laguna	12	San Juan la Laguna	9	Septiembre	2023-07-09T00:00:00	2024-11-08T12:00:00	2	Temperatura media	26.4
76050	7	Sololá	717	San Juan la Laguna	12	San Juan la Laguna	9	Septiembre	2023-07-09T00:00:00	2024-11-08T12:00:00	4	Temperatura máxima	26.4
76051	7	Sololá	717	San Juan la Laguna	12	San Juan la Laguna	9	Septiembre	2023-07-09T00:00:00	2024-11-08T12:00:00	3	Temperatura mínima	24.8
76052	7	Sololá	717	San Juan la Laguna	12	San Juan la Laguna	9	Septiembre	2023-07-09T00:00:00	2024-11-08T12:00:00	5	Humedad	51
76053	7	Sololá	717	San Juan la Laguna	12	San Juan la Laguna	9	Septiembre	2023-07-09T00:00:00	2024-11-08T12:00:00	6	Velocidad del viento	0
76054	7	Sololá	717	San Juan la Laguna	12	San Juan la Laguna	9	Septiembre	2023-07-09T00:00:00	2024-11-08T12:00:00	7	Dirección del viento	0
76055	7	Sololá	717	San Juan la Laguna	12	San Juan la Laguna	9	Septiembre	2023-07-09T00:00:00	2024-11-08T12:00:00	1	Precipitación	0
76056	7	Sololá	717	San Juan la Laguna	12	San Juan la Laguna	9	Septiembre	2023-07-09T00:00:00	2024-11-08T12:00:00	8	Radiación solar	792
76057	7	Sololá	717	San Juan la Laguna	12	San Juan la Laguna	9	Septiembre	2023-07-09T00:00:00	2024-11-08T13:00:00	2	Temperatura media	24.6
76058	7	Sololá	717	San Juan la Laguna	12	San Juan la Laguna	9	Septiembre	2023-07-09T00:00:00	2024-11-08T13:00:00	4	Temperatura máxima	27.1
76059	7	Sololá	717	San Juan la Laguna	12	San Juan la Laguna	9	Septiembre	2023-07-09T00:00:00	2024-11-08T13:00:00	3	Temperatura mínima	24.6
76060	7	Sololá	717	San Juan la Laguna	12	San Juan la Laguna	9	Septiembre	2023-07-09T00:00:00	2024-11-08T13:00:00	5	Humedad	71
76061	7	Sololá	717	San Juan la Laguna	12	San Juan la Laguna	9	Septiembre	2023-07-09T00:00:00	2024-11-08T13:00:00	6	Velocidad del viento	3.2
76062	7	Sololá	717	San Juan la Laguna	12	San Juan la Laguna	9	Septiembre	2023-07-09T00:00:00	2024-11-08T13:00:00	7	Dirección del viento	3.22
76063	7	Sololá	717	San Juan la Laguna	12	San Juan la Laguna	9	Septiembre	2023-07-09T00:00:00	2024-11-08T13:00:00	1	Precipitación	0
76064	7	Sololá	717	San Juan la Laguna	12	San Juan la Laguna	9	Septiembre	2023-07-09T00:00:00	2024-11-08T13:00:00	8	Radiación solar	824
76065	7	Sololá	717	San Juan la Laguna	12	San Juan la Laguna	9	Septiembre	2023-07-09T00:00:00	2024-11-08T14:00:00	2	Temperatura media	23.8
76066	7	Sololá	717	San Juan la Laguna	12	San Juan la Laguna	9	Septiembre	2023-07-09T00:00:00	2024-11-08T14:00:00	4	Temperatura máxima	24.7
76067	7	Sololá	717	San Juan la Laguna	12	San Juan la Laguna	9	Septiembre	2023-07-09T00:00:00	2024-11-08T14:00:00	3	Temperatura mínima	23.5
76068	7	Sololá	717	San Juan la Laguna	12	San Juan la Laguna	9	Septiembre	2023-07-09T00:00:00	2024-11-08T14:00:00	5	Humedad	74
76069	7	Sololá	717	San Juan la Laguna	12	San Juan la Laguna	9	Septiembre	2023-07-09T00:00:00	2024-11-08T14:00:00	6	Velocidad del viento	14.5
76070	7	Sololá	717	San Juan la Laguna	12	San Juan la Laguna	9	Septiembre	2023-07-09T00:00:00	2024-11-08T14:00:00	7	Dirección del viento	14.48
76071	7	Sololá	717	San Juan la Laguna	12	San Juan la Laguna	9	Septiembre	2023-07-09T00:00:00	2024-11-08T14:00:00	1	Precipitación	0
76072	7	Sololá	717	San Juan la Laguna	12	San Juan la Laguna	9	Septiembre	2023-07-09T00:00:00	2024-11-08T14:00:00	8	Radiación solar	799
76073	7	Sololá	717	San Juan la Laguna	12	San Juan la Laguna	9	Septiembre	2023-07-09T00:00:00	2024-11-08T15:00:00	2	Temperatura media	23.4
76074	7	Sololá	717	San Juan la Laguna	12	San Juan la Laguna	9	Septiembre	2023-07-09T00:00:00	2024-11-08T15:00:00	4	Temperatura máxima	24
76075	7	Sololá	717	San Juan la Laguna	12	San Juan la Laguna	9	Septiembre	2023-07-09T00:00:00	2024-11-08T15:00:00	3	Temperatura mínima	23.1
76076	7	Sololá	717	San Juan la Laguna	12	San Juan la Laguna	9	Septiembre	2023-07-09T00:00:00	2024-11-08T15:00:00	5	Humedad	75
76077	7	Sololá	717	San Juan la Laguna	12	San Juan la Laguna	9	Septiembre	2023-07-09T00:00:00	2024-11-08T15:00:00	6	Velocidad del viento	8
76078	7	Sololá	717	San Juan la Laguna	12	San Juan la Laguna	9	Septiembre	2023-07-09T00:00:00	2024-11-08T15:00:00	7	Dirección del viento	8.05
76079	7	Sololá	717	San Juan la Laguna	12	San Juan la Laguna	9	Septiembre	2023-07-09T00:00:00	2024-11-08T15:00:00	1	Precipitación	0
76080	7	Sololá	717	San Juan la Laguna	12	San Juan la Laguna	9	Septiembre	2023-07-09T00:00:00	2024-11-08T15:00:00	8	Radiación solar	586
76081	7	Sololá	717	San Juan la Laguna	12	San Juan la Laguna	9	Septiembre	2023-07-09T00:00:00	2024-11-08T16:00:00	2	Temperatura media	22.4
76082	7	Sololá	717	San Juan la Laguna	12	San Juan la Laguna	9	Septiembre	2023-07-09T00:00:00	2024-11-08T16:00:00	4	Temperatura máxima	23.7
76083	7	Sololá	717	San Juan la Laguna	12	San Juan la Laguna	9	Septiembre	2023-07-09T00:00:00	2024-11-08T16:00:00	3	Temperatura mínima	22.4
76084	7	Sololá	717	San Juan la Laguna	12	San Juan la Laguna	9	Septiembre	2023-07-09T00:00:00	2024-11-08T16:00:00	5	Humedad	78
76085	7	Sololá	717	San Juan la Laguna	12	San Juan la Laguna	9	Septiembre	2023-07-09T00:00:00	2024-11-08T16:00:00	6	Velocidad del viento	1.6
76086	7	Sololá	717	San Juan la Laguna	12	San Juan la Laguna	9	Septiembre	2023-07-09T00:00:00	2024-11-08T16:00:00	7	Dirección del viento	1.61
76087	7	Sololá	717	San Juan la Laguna	12	San Juan la Laguna	9	Septiembre	2023-07-09T00:00:00	2024-11-08T16:00:00	1	Precipitación	0
76088	7	Sololá	717	San Juan la Laguna	12	San Juan la Laguna	9	Septiembre	2023-07-09T00:00:00	2024-11-08T16:00:00	8	Radiación solar	234
76089	7	Sololá	717	San Juan la Laguna	12	San Juan la Laguna	9	Septiembre	2023-07-09T00:00:00	2024-11-08T17:00:00	2	Temperatura media	21.3
76090	7	Sololá	717	San Juan la Laguna	12	San Juan la Laguna	9	Septiembre	2023-07-09T00:00:00	2024-11-08T17:00:00	4	Temperatura máxima	22.4
76091	7	Sololá	717	San Juan la Laguna	12	San Juan la Laguna	9	Septiembre	2023-07-09T00:00:00	2024-11-08T17:00:00	3	Temperatura mínima	21.2
76092	7	Sololá	717	San Juan la Laguna	12	San Juan la Laguna	9	Septiembre	2023-07-09T00:00:00	2024-11-08T17:00:00	5	Humedad	85
76093	7	Sololá	717	San Juan la Laguna	12	San Juan la Laguna	9	Septiembre	2023-07-09T00:00:00	2024-11-08T17:00:00	6	Velocidad del viento	0
76094	7	Sololá	717	San Juan la Laguna	12	San Juan la Laguna	9	Septiembre	2023-07-09T00:00:00	2024-11-08T17:00:00	7	Dirección del viento	0
76095	7	Sololá	717	San Juan la Laguna	12	San Juan la Laguna	9	Septiembre	2023-07-09T00:00:00	2024-11-08T17:00:00	1	Precipitación	0
76096	7	Sololá	717	San Juan la Laguna	12	San Juan la Laguna	9	Septiembre	2023-07-09T00:00:00	2024-11-08T17:00:00	8	Radiación solar	61
76097	7	Sololá	717	San Juan la Laguna	12	San Juan la Laguna	9	Septiembre	2023-07-09T00:00:00	2024-11-08T18:00:00	2	Temperatura media	21.2
76098	7	Sololá	717	San Juan la Laguna	12	San Juan la Laguna	9	Septiembre	2023-07-09T00:00:00	2024-11-08T18:00:00	4	Temperatura máxima	21.3
76099	7	Sololá	717	San Juan la Laguna	12	San Juan la Laguna	9	Septiembre	2023-07-09T00:00:00	2024-11-08T18:00:00	3	Temperatura mínima	21.2
76100	7	Sololá	717	San Juan la Laguna	12	San Juan la Laguna	9	Septiembre	2023-07-09T00:00:00	2024-11-08T18:00:00	5	Humedad	86
76101	7	Sololá	717	San Juan la Laguna	12	San Juan la Laguna	9	Septiembre	2023-07-09T00:00:00	2024-11-08T18:00:00	6	Velocidad del viento	0
76102	7	Sololá	717	San Juan la Laguna	12	San Juan la Laguna	9	Septiembre	2023-07-09T00:00:00	2024-11-08T18:00:00	7	Dirección del viento	0
76103	7	Sololá	717	San Juan la Laguna	12	San Juan la Laguna	9	Septiembre	2023-07-09T00:00:00	2024-11-08T18:00:00	1	Precipitación	0
76104	7	Sololá	717	San Juan la Laguna	12	San Juan la Laguna	9	Septiembre	2023-07-09T00:00:00	2024-11-08T18:00:00	8	Radiación solar	31
76105	7	Sololá	717	San Juan la Laguna	12	San Juan la Laguna	9	Septiembre	2023-07-09T00:00:00	2024-11-08T19:00:00	2	Temperatura media	17.1
76106	7	Sololá	717	San Juan la Laguna	12	San Juan la Laguna	9	Septiembre	2023-07-09T00:00:00	2024-11-08T19:00:00	4	Temperatura máxima	21.2
76107	7	Sololá	717	San Juan la Laguna	12	San Juan la Laguna	9	Septiembre	2023-07-09T00:00:00	2024-11-08T19:00:00	3	Temperatura mínima	17.1
76108	7	Sololá	717	San Juan la Laguna	12	San Juan la Laguna	9	Septiembre	2023-07-09T00:00:00	2024-11-08T19:00:00	5	Humedad	89
76109	7	Sololá	717	San Juan la Laguna	12	San Juan la Laguna	9	Septiembre	2023-07-09T00:00:00	2024-11-08T19:00:00	6	Velocidad del viento	8
76110	7	Sololá	717	San Juan la Laguna	12	San Juan la Laguna	9	Septiembre	2023-07-09T00:00:00	2024-11-08T19:00:00	7	Dirección del viento	8.05
76111	7	Sololá	717	San Juan la Laguna	12	San Juan la Laguna	9	Septiembre	2023-07-09T00:00:00	2024-11-08T19:00:00	1	Precipitación	8.6
76112	7	Sololá	717	San Juan la Laguna	12	San Juan la Laguna	9	Septiembre	2023-07-09T00:00:00	2024-11-08T19:00:00	8	Radiación solar	0
76113	7	Sololá	717	San Juan la Laguna	12	San Juan la Laguna	9	Septiembre	2023-07-09T00:00:00	2024-11-08T20:00:00	2	Temperatura media	17.3
76114	7	Sololá	717	San Juan la Laguna	12	San Juan la Laguna	9	Septiembre	2023-07-09T00:00:00	2024-11-08T20:00:00	4	Temperatura máxima	17.4
76115	7	Sololá	717	San Juan la Laguna	12	San Juan la Laguna	9	Septiembre	2023-07-09T00:00:00	2024-11-08T20:00:00	3	Temperatura mínima	17.1
76116	7	Sololá	717	San Juan la Laguna	12	San Juan la Laguna	9	Septiembre	2023-07-09T00:00:00	2024-11-08T20:00:00	5	Humedad	89
76117	7	Sololá	717	San Juan la Laguna	12	San Juan la Laguna	9	Septiembre	2023-07-09T00:00:00	2024-11-08T20:00:00	6	Velocidad del viento	6.4
76118	7	Sololá	717	San Juan la Laguna	12	San Juan la Laguna	9	Septiembre	2023-07-09T00:00:00	2024-11-08T20:00:00	7	Dirección del viento	6.44
76119	7	Sololá	717	San Juan la Laguna	12	San Juan la Laguna	9	Septiembre	2023-07-09T00:00:00	2024-11-08T20:00:00	1	Precipitación	0.2
76120	7	Sololá	717	San Juan la Laguna	12	San Juan la Laguna	9	Septiembre	2023-07-09T00:00:00	2024-11-08T20:00:00	8	Radiación solar	0
76121	7	Sololá	717	San Juan la Laguna	12	San Juan la Laguna	9	Septiembre	2023-07-09T00:00:00	2024-11-08T21:00:00	2	Temperatura media	17.1
76122	7	Sololá	717	San Juan la Laguna	12	San Juan la Laguna	9	Septiembre	2023-07-09T00:00:00	2024-11-08T21:00:00	4	Temperatura máxima	17.4
76123	7	Sololá	717	San Juan la Laguna	12	San Juan la Laguna	9	Septiembre	2023-07-09T00:00:00	2024-11-08T21:00:00	3	Temperatura mínima	17.1
76124	7	Sololá	717	San Juan la Laguna	12	San Juan la Laguna	9	Septiembre	2023-07-09T00:00:00	2024-11-08T21:00:00	5	Humedad	89
76125	7	Sololá	717	San Juan la Laguna	12	San Juan la Laguna	9	Septiembre	2023-07-09T00:00:00	2024-11-08T21:00:00	6	Velocidad del viento	3.2
76126	7	Sololá	717	San Juan la Laguna	12	San Juan la Laguna	9	Septiembre	2023-07-09T00:00:00	2024-11-08T21:00:00	7	Dirección del viento	3.22
76127	7	Sololá	717	San Juan la Laguna	12	San Juan la Laguna	9	Septiembre	2023-07-09T00:00:00	2024-11-08T21:00:00	1	Precipitación	0
76128	7	Sololá	717	San Juan la Laguna	12	San Juan la Laguna	9	Septiembre	2023-07-09T00:00:00	2024-11-08T21:00:00	8	Radiación solar	0
76129	7	Sololá	717	San Juan la Laguna	12	San Juan la Laguna	9	Septiembre	2023-07-09T00:00:00	2024-11-08T22:00:00	2	Temperatura media	16.9
76130	7	Sololá	717	San Juan la Laguna	12	San Juan la Laguna	9	Septiembre	2023-07-09T00:00:00	2024-11-08T22:00:00	4	Temperatura máxima	17.1
76131	7	Sololá	717	San Juan la Laguna	12	San Juan la Laguna	9	Septiembre	2023-07-09T00:00:00	2024-11-08T22:00:00	3	Temperatura mínima	16.7
76132	7	Sololá	717	San Juan la Laguna	12	San Juan la Laguna	9	Septiembre	2023-07-09T00:00:00	2024-11-08T22:00:00	5	Humedad	89
76133	7	Sololá	717	San Juan la Laguna	12	San Juan la Laguna	9	Septiembre	2023-07-09T00:00:00	2024-11-08T22:00:00	6	Velocidad del viento	4.8
76134	7	Sololá	717	San Juan la Laguna	12	San Juan la Laguna	9	Septiembre	2023-07-09T00:00:00	2024-11-08T22:00:00	7	Dirección del viento	4.83
76135	7	Sololá	717	San Juan la Laguna	12	San Juan la Laguna	9	Septiembre	2023-07-09T00:00:00	2024-11-08T22:00:00	1	Precipitación	0
76136	7	Sololá	717	San Juan la Laguna	12	San Juan la Laguna	9	Septiembre	2023-07-09T00:00:00	2024-11-08T22:00:00	8	Radiación solar	0
76137	7	Sololá	717	San Juan la Laguna	12	San Juan la Laguna	9	Septiembre	2023-07-09T00:00:00	2024-11-08T23:00:00	2	Temperatura media	16.6
76138	7	Sololá	717	San Juan la Laguna	12	San Juan la Laguna	9	Septiembre	2023-07-09T00:00:00	2024-11-08T23:00:00	4	Temperatura máxima	16.9
76139	7	Sololá	717	San Juan la Laguna	12	San Juan la Laguna	9	Septiembre	2023-07-09T00:00:00	2024-11-08T23:00:00	3	Temperatura mínima	16.6
76140	7	Sololá	717	San Juan la Laguna	12	San Juan la Laguna	9	Septiembre	2023-07-09T00:00:00	2024-11-08T23:00:00	5	Humedad	89
76141	7	Sololá	717	San Juan la Laguna	12	San Juan la Laguna	9	Septiembre	2023-07-09T00:00:00	2024-11-08T23:00:00	6	Velocidad del viento	3.2
76142	7	Sololá	717	San Juan la Laguna	12	San Juan la Laguna	9	Septiembre	2023-07-09T00:00:00	2024-11-08T23:00:00	7	Dirección del viento	3.22
76143	7	Sololá	717	San Juan la Laguna	12	San Juan la Laguna	9	Septiembre	2023-07-09T00:00:00	2024-11-08T23:00:00	1	Precipitación	0
76144	7	Sololá	717	San Juan la Laguna	12	San Juan la Laguna	9	Septiembre	2023-07-09T00:00:00	2024-11-08T23:00:00	8	Radiación solar	0
76145	7	Sololá	717	San Juan la Laguna	12	San Juan la Laguna	9	Septiembre	2023-08-09T00:00:00	2024-11-08T00:00:00	2	Temperatura media	16.4
76146	7	Sololá	717	San Juan la Laguna	12	San Juan la Laguna	9	Septiembre	2023-08-09T00:00:00	2024-11-08T00:00:00	4	Temperatura máxima	16.6
76147	7	Sololá	717	San Juan la Laguna	12	San Juan la Laguna	9	Septiembre	2023-08-09T00:00:00	2024-11-08T00:00:00	3	Temperatura mínima	16.2
76148	7	Sololá	717	San Juan la Laguna	12	San Juan la Laguna	9	Septiembre	2023-08-09T00:00:00	2024-11-08T00:00:00	5	Humedad	88
76149	7	Sololá	717	San Juan la Laguna	12	San Juan la Laguna	9	Septiembre	2023-08-09T00:00:00	2024-11-08T00:00:00	6	Velocidad del viento	1.6
76150	7	Sololá	717	San Juan la Laguna	12	San Juan la Laguna	9	Septiembre	2023-08-09T00:00:00	2024-11-08T00:00:00	7	Dirección del viento	1.61
76151	7	Sololá	717	San Juan la Laguna	12	San Juan la Laguna	9	Septiembre	2023-08-09T00:00:00	2024-11-08T00:00:00	1	Precipitación	0
76152	7	Sololá	717	San Juan la Laguna	12	San Juan la Laguna	9	Septiembre	2023-08-09T00:00:00	2024-11-08T00:00:00	8	Radiación solar	0
76153	7	Sololá	717	San Juan la Laguna	12	San Juan la Laguna	9	Septiembre	2023-08-09T00:00:00	2024-11-08T01:00:00	2	Temperatura media	16.1
76154	7	Sololá	717	San Juan la Laguna	12	San Juan la Laguna	9	Septiembre	2023-08-09T00:00:00	2024-11-08T01:00:00	4	Temperatura máxima	16.5
76155	7	Sololá	717	San Juan la Laguna	12	San Juan la Laguna	9	Septiembre	2023-08-09T00:00:00	2024-11-08T01:00:00	3	Temperatura mínima	15.9
76156	7	Sololá	717	San Juan la Laguna	12	San Juan la Laguna	9	Septiembre	2023-08-09T00:00:00	2024-11-08T01:00:00	5	Humedad	88
76157	7	Sololá	717	San Juan la Laguna	12	San Juan la Laguna	9	Septiembre	2023-08-09T00:00:00	2024-11-08T01:00:00	6	Velocidad del viento	4.8
76158	7	Sololá	717	San Juan la Laguna	12	San Juan la Laguna	9	Septiembre	2023-08-09T00:00:00	2024-11-08T01:00:00	7	Dirección del viento	4.83
76159	7	Sololá	717	San Juan la Laguna	12	San Juan la Laguna	9	Septiembre	2023-08-09T00:00:00	2024-11-08T01:00:00	1	Precipitación	0
76160	7	Sololá	717	San Juan la Laguna	12	San Juan la Laguna	9	Septiembre	2023-08-09T00:00:00	2024-11-08T01:00:00	8	Radiación solar	0
76161	7	Sololá	717	San Juan la Laguna	12	San Juan la Laguna	9	Septiembre	2023-08-09T00:00:00	2024-11-08T02:00:00	2	Temperatura media	16.7
76162	7	Sololá	717	San Juan la Laguna	12	San Juan la Laguna	9	Septiembre	2023-08-09T00:00:00	2024-11-08T02:00:00	4	Temperatura máxima	17.1
76163	7	Sololá	717	San Juan la Laguna	12	San Juan la Laguna	9	Septiembre	2023-08-09T00:00:00	2024-11-08T02:00:00	3	Temperatura mínima	16.1
76164	7	Sololá	717	San Juan la Laguna	12	San Juan la Laguna	9	Septiembre	2023-08-09T00:00:00	2024-11-08T02:00:00	5	Humedad	84
76165	7	Sololá	717	San Juan la Laguna	12	San Juan la Laguna	9	Septiembre	2023-08-09T00:00:00	2024-11-08T02:00:00	6	Velocidad del viento	4.8
76166	7	Sololá	717	San Juan la Laguna	12	San Juan la Laguna	9	Septiembre	2023-08-09T00:00:00	2024-11-08T02:00:00	7	Dirección del viento	4.83
76167	7	Sololá	717	San Juan la Laguna	12	San Juan la Laguna	9	Septiembre	2023-08-09T00:00:00	2024-11-08T02:00:00	1	Precipitación	0
76168	7	Sololá	717	San Juan la Laguna	12	San Juan la Laguna	9	Septiembre	2023-08-09T00:00:00	2024-11-08T02:00:00	8	Radiación solar	0
76169	7	Sololá	717	San Juan la Laguna	12	San Juan la Laguna	9	Septiembre	2023-08-09T00:00:00	2024-11-08T03:00:00	2	Temperatura media	15.8
76170	7	Sololá	717	San Juan la Laguna	12	San Juan la Laguna	9	Septiembre	2023-08-09T00:00:00	2024-11-08T03:00:00	4	Temperatura máxima	16.9
76171	7	Sololá	717	San Juan la Laguna	12	San Juan la Laguna	9	Septiembre	2023-08-09T00:00:00	2024-11-08T03:00:00	3	Temperatura mínima	15.8
76172	7	Sololá	717	San Juan la Laguna	12	San Juan la Laguna	9	Septiembre	2023-08-09T00:00:00	2024-11-08T03:00:00	5	Humedad	86
76173	7	Sololá	717	San Juan la Laguna	12	San Juan la Laguna	9	Septiembre	2023-08-09T00:00:00	2024-11-08T03:00:00	6	Velocidad del viento	1.6
76174	7	Sololá	717	San Juan la Laguna	12	San Juan la Laguna	9	Septiembre	2023-08-09T00:00:00	2024-11-08T03:00:00	7	Dirección del viento	1.61
76175	7	Sololá	717	San Juan la Laguna	12	San Juan la Laguna	9	Septiembre	2023-08-09T00:00:00	2024-11-08T03:00:00	1	Precipitación	0
76176	7	Sololá	717	San Juan la Laguna	12	San Juan la Laguna	9	Septiembre	2023-08-09T00:00:00	2024-11-08T03:00:00	8	Radiación solar	0
76177	7	Sololá	717	San Juan la Laguna	12	San Juan la Laguna	9	Septiembre	2023-08-09T00:00:00	2024-11-08T04:00:00	2	Temperatura media	15.4
76178	7	Sololá	717	San Juan la Laguna	12	San Juan la Laguna	9	Septiembre	2023-08-09T00:00:00	2024-11-08T04:00:00	4	Temperatura máxima	15.8
76179	7	Sololá	717	San Juan la Laguna	12	San Juan la Laguna	9	Septiembre	2023-08-09T00:00:00	2024-11-08T04:00:00	3	Temperatura mínima	15.3
76180	7	Sololá	717	San Juan la Laguna	12	San Juan la Laguna	9	Septiembre	2023-08-09T00:00:00	2024-11-08T04:00:00	5	Humedad	88
76181	7	Sololá	717	San Juan la Laguna	12	San Juan la Laguna	9	Septiembre	2023-08-09T00:00:00	2024-11-08T04:00:00	6	Velocidad del viento	0
76182	7	Sololá	717	San Juan la Laguna	12	San Juan la Laguna	9	Septiembre	2023-08-09T00:00:00	2024-11-08T04:00:00	7	Dirección del viento	0
76183	7	Sololá	717	San Juan la Laguna	12	San Juan la Laguna	9	Septiembre	2023-08-09T00:00:00	2024-11-08T04:00:00	1	Precipitación	0
76184	7	Sololá	717	San Juan la Laguna	12	San Juan la Laguna	9	Septiembre	2023-08-09T00:00:00	2024-11-08T04:00:00	8	Radiación solar	0
76185	7	Sololá	717	San Juan la Laguna	12	San Juan la Laguna	9	Septiembre	2023-08-09T00:00:00	2024-11-08T05:00:00	2	Temperatura media	15.1
76186	7	Sololá	717	San Juan la Laguna	12	San Juan la Laguna	9	Septiembre	2023-08-09T00:00:00	2024-11-08T05:00:00	4	Temperatura máxima	15.4
76187	7	Sololá	717	San Juan la Laguna	12	San Juan la Laguna	9	Septiembre	2023-08-09T00:00:00	2024-11-08T05:00:00	3	Temperatura mínima	15
76188	7	Sololá	717	San Juan la Laguna	12	San Juan la Laguna	9	Septiembre	2023-08-09T00:00:00	2024-11-08T05:00:00	5	Humedad	87
76189	7	Sololá	717	San Juan la Laguna	12	San Juan la Laguna	9	Septiembre	2023-08-09T00:00:00	2024-11-08T05:00:00	6	Velocidad del viento	0
76190	7	Sololá	717	San Juan la Laguna	12	San Juan la Laguna	9	Septiembre	2023-08-09T00:00:00	2024-11-08T05:00:00	7	Dirección del viento	0
76191	7	Sololá	717	San Juan la Laguna	12	San Juan la Laguna	9	Septiembre	2023-08-09T00:00:00	2024-11-08T05:00:00	1	Precipitación	0
76192	7	Sololá	717	San Juan la Laguna	12	San Juan la Laguna	9	Septiembre	2023-08-09T00:00:00	2024-11-08T05:00:00	8	Radiación solar	0
76193	7	Sololá	717	San Juan la Laguna	12	San Juan la Laguna	9	Septiembre	2023-08-09T00:00:00	2024-11-08T06:00:00	2	Temperatura media	15.4
76194	7	Sololá	717	San Juan la Laguna	12	San Juan la Laguna	9	Septiembre	2023-08-09T00:00:00	2024-11-08T06:00:00	4	Temperatura máxima	15.4
76195	7	Sololá	717	San Juan la Laguna	12	San Juan la Laguna	9	Septiembre	2023-08-09T00:00:00	2024-11-08T06:00:00	3	Temperatura mínima	14.9
76196	7	Sololá	717	San Juan la Laguna	12	San Juan la Laguna	9	Septiembre	2023-08-09T00:00:00	2024-11-08T06:00:00	5	Humedad	83
76197	7	Sololá	717	San Juan la Laguna	12	San Juan la Laguna	9	Septiembre	2023-08-09T00:00:00	2024-11-08T06:00:00	6	Velocidad del viento	0
76198	7	Sololá	717	San Juan la Laguna	12	San Juan la Laguna	9	Septiembre	2023-08-09T00:00:00	2024-11-08T06:00:00	7	Dirección del viento	0
76199	7	Sololá	717	San Juan la Laguna	12	San Juan la Laguna	9	Septiembre	2023-08-09T00:00:00	2024-11-08T06:00:00	1	Precipitación	0
76200	7	Sololá	717	San Juan la Laguna	12	San Juan la Laguna	9	Septiembre	2023-08-09T00:00:00	2024-11-08T06:00:00	8	Radiación solar	0
76201	7	Sololá	717	San Juan la Laguna	12	San Juan la Laguna	9	Septiembre	2023-08-09T00:00:00	2024-11-08T07:00:00	2	Temperatura media	17.3
76202	7	Sololá	717	San Juan la Laguna	12	San Juan la Laguna	9	Septiembre	2023-08-09T00:00:00	2024-11-08T07:00:00	4	Temperatura máxima	17.3
76203	7	Sololá	717	San Juan la Laguna	12	San Juan la Laguna	9	Septiembre	2023-08-09T00:00:00	2024-11-08T07:00:00	3	Temperatura mínima	15.4
76204	7	Sololá	717	San Juan la Laguna	12	San Juan la Laguna	9	Septiembre	2023-08-09T00:00:00	2024-11-08T07:00:00	5	Humedad	82
76205	7	Sololá	717	San Juan la Laguna	12	San Juan la Laguna	9	Septiembre	2023-08-09T00:00:00	2024-11-08T07:00:00	6	Velocidad del viento	0
76206	7	Sololá	717	San Juan la Laguna	12	San Juan la Laguna	9	Septiembre	2023-08-09T00:00:00	2024-11-08T07:00:00	7	Dirección del viento	0
76207	7	Sololá	717	San Juan la Laguna	12	San Juan la Laguna	9	Septiembre	2023-08-09T00:00:00	2024-11-08T07:00:00	1	Precipitación	0
76208	7	Sololá	717	San Juan la Laguna	12	San Juan la Laguna	9	Septiembre	2023-08-09T00:00:00	2024-11-08T07:00:00	8	Radiación solar	77
76209	7	Sololá	717	San Juan la Laguna	12	San Juan la Laguna	9	Septiembre	2023-08-09T00:00:00	2024-11-08T08:00:00	2	Temperatura media	21.3
76210	7	Sololá	717	San Juan la Laguna	12	San Juan la Laguna	9	Septiembre	2023-08-09T00:00:00	2024-11-08T08:00:00	4	Temperatura máxima	21.3
76211	7	Sololá	717	San Juan la Laguna	12	San Juan la Laguna	9	Septiembre	2023-08-09T00:00:00	2024-11-08T08:00:00	3	Temperatura mínima	17.3
76212	7	Sololá	717	San Juan la Laguna	12	San Juan la Laguna	9	Septiembre	2023-08-09T00:00:00	2024-11-08T08:00:00	5	Humedad	68
76213	7	Sololá	717	San Juan la Laguna	12	San Juan la Laguna	9	Septiembre	2023-08-09T00:00:00	2024-11-08T08:00:00	6	Velocidad del viento	0
76214	7	Sololá	717	San Juan la Laguna	12	San Juan la Laguna	9	Septiembre	2023-08-09T00:00:00	2024-11-08T08:00:00	7	Dirección del viento	0
76215	7	Sololá	717	San Juan la Laguna	12	San Juan la Laguna	9	Septiembre	2023-08-09T00:00:00	2024-11-08T08:00:00	1	Precipitación	0
76216	7	Sololá	717	San Juan la Laguna	12	San Juan la Laguna	9	Septiembre	2023-08-09T00:00:00	2024-11-08T08:00:00	8	Radiación solar	226
76217	7	Sololá	717	San Juan la Laguna	12	San Juan la Laguna	9	Septiembre	2023-08-09T00:00:00	2024-11-08T09:00:00	2	Temperatura media	22.7
76218	7	Sololá	717	San Juan la Laguna	12	San Juan la Laguna	9	Septiembre	2023-08-09T00:00:00	2024-11-08T09:00:00	4	Temperatura máxima	23
76219	7	Sololá	717	San Juan la Laguna	12	San Juan la Laguna	9	Septiembre	2023-08-09T00:00:00	2024-11-08T09:00:00	3	Temperatura mínima	21.3
76220	7	Sololá	717	San Juan la Laguna	12	San Juan la Laguna	9	Septiembre	2023-08-09T00:00:00	2024-11-08T09:00:00	5	Humedad	65
76221	7	Sololá	717	San Juan la Laguna	12	San Juan la Laguna	9	Septiembre	2023-08-09T00:00:00	2024-11-08T09:00:00	6	Velocidad del viento	0
76222	7	Sololá	717	San Juan la Laguna	12	San Juan la Laguna	9	Septiembre	2023-08-09T00:00:00	2024-11-08T09:00:00	7	Dirección del viento	0
76223	7	Sololá	717	San Juan la Laguna	12	San Juan la Laguna	9	Septiembre	2023-08-09T00:00:00	2024-11-08T09:00:00	1	Precipitación	0
76224	7	Sololá	717	San Juan la Laguna	12	San Juan la Laguna	9	Septiembre	2023-08-09T00:00:00	2024-11-08T09:00:00	8	Radiación solar	426
76225	7	Sololá	717	San Juan la Laguna	12	San Juan la Laguna	9	Septiembre	2023-08-09T00:00:00	2024-11-08T10:00:00	2	Temperatura media	24
76226	7	Sololá	717	San Juan la Laguna	12	San Juan la Laguna	9	Septiembre	2023-08-09T00:00:00	2024-11-08T10:00:00	4	Temperatura máxima	24.6
76227	7	Sololá	717	San Juan la Laguna	12	San Juan la Laguna	9	Septiembre	2023-08-09T00:00:00	2024-11-08T10:00:00	3	Temperatura mínima	22.7
76228	7	Sololá	717	San Juan la Laguna	12	San Juan la Laguna	9	Septiembre	2023-08-09T00:00:00	2024-11-08T10:00:00	5	Humedad	62
76229	7	Sololá	717	San Juan la Laguna	12	San Juan la Laguna	9	Septiembre	2023-08-09T00:00:00	2024-11-08T10:00:00	6	Velocidad del viento	1.6
76230	7	Sololá	717	San Juan la Laguna	12	San Juan la Laguna	9	Septiembre	2023-08-09T00:00:00	2024-11-08T10:00:00	7	Dirección del viento	1.61
76231	7	Sololá	717	San Juan la Laguna	12	San Juan la Laguna	9	Septiembre	2023-08-09T00:00:00	2024-11-08T10:00:00	1	Precipitación	0
76232	7	Sololá	717	San Juan la Laguna	12	San Juan la Laguna	9	Septiembre	2023-08-09T00:00:00	2024-11-08T10:00:00	8	Radiación solar	654
76233	7	Sololá	717	San Juan la Laguna	12	San Juan la Laguna	9	Septiembre	2023-08-09T00:00:00	2024-11-08T11:00:00	2	Temperatura media	24.2
76234	7	Sololá	717	San Juan la Laguna	12	San Juan la Laguna	9	Septiembre	2023-08-09T00:00:00	2024-11-08T11:00:00	4	Temperatura máxima	24.4
76235	7	Sololá	717	San Juan la Laguna	12	San Juan la Laguna	9	Septiembre	2023-08-09T00:00:00	2024-11-08T11:00:00	3	Temperatura mínima	23.7
76236	7	Sololá	717	San Juan la Laguna	12	San Juan la Laguna	9	Septiembre	2023-08-09T00:00:00	2024-11-08T11:00:00	5	Humedad	63
76237	7	Sololá	717	San Juan la Laguna	12	San Juan la Laguna	9	Septiembre	2023-08-09T00:00:00	2024-11-08T11:00:00	6	Velocidad del viento	0
76238	7	Sololá	717	San Juan la Laguna	12	San Juan la Laguna	9	Septiembre	2023-08-09T00:00:00	2024-11-08T11:00:00	7	Dirección del viento	0
76239	7	Sololá	717	San Juan la Laguna	12	San Juan la Laguna	9	Septiembre	2023-08-09T00:00:00	2024-11-08T11:00:00	1	Precipitación	0
76240	7	Sololá	717	San Juan la Laguna	12	San Juan la Laguna	9	Septiembre	2023-08-09T00:00:00	2024-11-08T11:00:00	8	Radiación solar	824
76241	7	Sololá	717	San Juan la Laguna	12	San Juan la Laguna	9	Septiembre	2023-08-09T00:00:00	2024-11-08T12:00:00	2	Temperatura media	24.3
76242	7	Sololá	717	San Juan la Laguna	12	San Juan la Laguna	9	Septiembre	2023-08-09T00:00:00	2024-11-08T12:00:00	4	Temperatura máxima	24.8
76243	7	Sololá	717	San Juan la Laguna	12	San Juan la Laguna	9	Septiembre	2023-08-09T00:00:00	2024-11-08T12:00:00	3	Temperatura mínima	24
76244	7	Sololá	717	San Juan la Laguna	12	San Juan la Laguna	9	Septiembre	2023-08-09T00:00:00	2024-11-08T12:00:00	5	Humedad	67
76245	7	Sololá	717	San Juan la Laguna	12	San Juan la Laguna	9	Septiembre	2023-08-09T00:00:00	2024-11-08T12:00:00	6	Velocidad del viento	0
76246	7	Sololá	717	San Juan la Laguna	12	San Juan la Laguna	9	Septiembre	2023-08-09T00:00:00	2024-11-08T12:00:00	7	Dirección del viento	0
76247	7	Sololá	717	San Juan la Laguna	12	San Juan la Laguna	9	Septiembre	2023-08-09T00:00:00	2024-11-08T12:00:00	1	Precipitación	0
76248	7	Sololá	717	San Juan la Laguna	12	San Juan la Laguna	9	Septiembre	2023-08-09T00:00:00	2024-11-08T12:00:00	8	Radiación solar	888
76249	7	Sololá	717	San Juan la Laguna	12	San Juan la Laguna	9	Septiembre	2023-08-09T00:00:00	2024-11-08T13:00:00	2	Temperatura media	25.3
76250	7	Sololá	717	San Juan la Laguna	12	San Juan la Laguna	9	Septiembre	2023-08-09T00:00:00	2024-11-08T13:00:00	4	Temperatura máxima	25.3
76251	7	Sololá	717	San Juan la Laguna	12	San Juan la Laguna	9	Septiembre	2023-08-09T00:00:00	2024-11-08T13:00:00	3	Temperatura mínima	23.8
76252	7	Sololá	717	San Juan la Laguna	12	San Juan la Laguna	9	Septiembre	2023-08-09T00:00:00	2024-11-08T13:00:00	5	Humedad	66
76253	7	Sololá	717	San Juan la Laguna	12	San Juan la Laguna	9	Septiembre	2023-08-09T00:00:00	2024-11-08T13:00:00	6	Velocidad del viento	0
76254	7	Sololá	717	San Juan la Laguna	12	San Juan la Laguna	9	Septiembre	2023-08-09T00:00:00	2024-11-08T13:00:00	7	Dirección del viento	0
76255	7	Sololá	717	San Juan la Laguna	12	San Juan la Laguna	9	Septiembre	2023-08-09T00:00:00	2024-11-08T13:00:00	1	Precipitación	0
76256	7	Sololá	717	San Juan la Laguna	12	San Juan la Laguna	9	Septiembre	2023-08-09T00:00:00	2024-11-08T13:00:00	8	Radiación solar	975
76257	7	Sololá	717	San Juan la Laguna	12	San Juan la Laguna	9	Septiembre	2023-08-09T00:00:00	2024-11-08T14:00:00	2	Temperatura media	24.9
76258	7	Sololá	717	San Juan la Laguna	12	San Juan la Laguna	9	Septiembre	2023-08-09T00:00:00	2024-11-08T14:00:00	4	Temperatura máxima	25.4
76259	7	Sololá	717	San Juan la Laguna	12	San Juan la Laguna	9	Septiembre	2023-08-09T00:00:00	2024-11-08T14:00:00	3	Temperatura mínima	24.4
76260	7	Sololá	717	San Juan la Laguna	12	San Juan la Laguna	9	Septiembre	2023-08-09T00:00:00	2024-11-08T14:00:00	5	Humedad	68
76261	7	Sololá	717	San Juan la Laguna	12	San Juan la Laguna	9	Septiembre	2023-08-09T00:00:00	2024-11-08T14:00:00	6	Velocidad del viento	1.6
76262	7	Sololá	717	San Juan la Laguna	12	San Juan la Laguna	9	Septiembre	2023-08-09T00:00:00	2024-11-08T14:00:00	7	Dirección del viento	1.61
76263	7	Sololá	717	San Juan la Laguna	12	San Juan la Laguna	9	Septiembre	2023-08-09T00:00:00	2024-11-08T14:00:00	1	Precipitación	0
76264	7	Sololá	717	San Juan la Laguna	12	San Juan la Laguna	9	Septiembre	2023-08-09T00:00:00	2024-11-08T14:00:00	8	Radiación solar	742
76265	7	Sololá	717	San Juan la Laguna	12	San Juan la Laguna	9	Septiembre	2023-08-09T00:00:00	2024-11-08T15:00:00	2	Temperatura media	24.6
76266	7	Sololá	717	San Juan la Laguna	12	San Juan la Laguna	9	Septiembre	2023-08-09T00:00:00	2024-11-08T15:00:00	4	Temperatura máxima	25.1
76267	7	Sololá	717	San Juan la Laguna	12	San Juan la Laguna	9	Septiembre	2023-08-09T00:00:00	2024-11-08T15:00:00	3	Temperatura mínima	23.9
76268	7	Sololá	717	San Juan la Laguna	12	San Juan la Laguna	9	Septiembre	2023-08-09T00:00:00	2024-11-08T15:00:00	5	Humedad	71
76269	7	Sololá	717	San Juan la Laguna	12	San Juan la Laguna	9	Septiembre	2023-08-09T00:00:00	2024-11-08T15:00:00	6	Velocidad del viento	1.6
76270	7	Sololá	717	San Juan la Laguna	12	San Juan la Laguna	9	Septiembre	2023-08-09T00:00:00	2024-11-08T15:00:00	7	Dirección del viento	1.61
76271	7	Sololá	717	San Juan la Laguna	12	San Juan la Laguna	9	Septiembre	2023-08-09T00:00:00	2024-11-08T15:00:00	1	Precipitación	0
76272	7	Sololá	717	San Juan la Laguna	12	San Juan la Laguna	9	Septiembre	2023-08-09T00:00:00	2024-11-08T15:00:00	8	Radiación solar	703
76273	7	Sololá	717	San Juan la Laguna	12	San Juan la Laguna	9	Septiembre	2023-08-09T00:00:00	2024-11-08T16:00:00	2	Temperatura media	21.4
76274	7	Sololá	717	San Juan la Laguna	12	San Juan la Laguna	9	Septiembre	2023-08-09T00:00:00	2024-11-08T16:00:00	4	Temperatura máxima	24.7
76275	7	Sololá	717	San Juan la Laguna	12	San Juan la Laguna	9	Septiembre	2023-08-09T00:00:00	2024-11-08T16:00:00	3	Temperatura mínima	21.4
76276	7	Sololá	717	San Juan la Laguna	12	San Juan la Laguna	9	Septiembre	2023-08-09T00:00:00	2024-11-08T16:00:00	5	Humedad	78
76277	7	Sololá	717	San Juan la Laguna	12	San Juan la Laguna	9	Septiembre	2023-08-09T00:00:00	2024-11-08T16:00:00	6	Velocidad del viento	3.2
76278	7	Sololá	717	San Juan la Laguna	12	San Juan la Laguna	9	Septiembre	2023-08-09T00:00:00	2024-11-08T16:00:00	7	Dirección del viento	3.22
76279	7	Sololá	717	San Juan la Laguna	12	San Juan la Laguna	9	Septiembre	2023-08-09T00:00:00	2024-11-08T16:00:00	1	Precipitación	0
76280	7	Sololá	717	San Juan la Laguna	12	San Juan la Laguna	9	Septiembre	2023-08-09T00:00:00	2024-11-08T16:00:00	8	Radiación solar	413
76281	7	Sololá	717	San Juan la Laguna	12	San Juan la Laguna	9	Septiembre	2023-08-09T00:00:00	2024-11-08T17:00:00	2	Temperatura media	20.6
76282	7	Sololá	717	San Juan la Laguna	12	San Juan la Laguna	9	Septiembre	2023-08-09T00:00:00	2024-11-08T17:00:00	4	Temperatura máxima	21.4
76283	7	Sololá	717	San Juan la Laguna	12	San Juan la Laguna	9	Septiembre	2023-08-09T00:00:00	2024-11-08T17:00:00	3	Temperatura mínima	20.6
76284	7	Sololá	717	San Juan la Laguna	12	San Juan la Laguna	9	Septiembre	2023-08-09T00:00:00	2024-11-08T17:00:00	5	Humedad	82
76285	7	Sololá	717	San Juan la Laguna	12	San Juan la Laguna	9	Septiembre	2023-08-09T00:00:00	2024-11-08T17:00:00	6	Velocidad del viento	4.8
76286	7	Sololá	717	San Juan la Laguna	12	San Juan la Laguna	9	Septiembre	2023-08-09T00:00:00	2024-11-08T17:00:00	7	Dirección del viento	4.83
76287	7	Sololá	717	San Juan la Laguna	12	San Juan la Laguna	9	Septiembre	2023-08-09T00:00:00	2024-11-08T17:00:00	1	Precipitación	0
76288	7	Sololá	717	San Juan la Laguna	12	San Juan la Laguna	9	Septiembre	2023-08-09T00:00:00	2024-11-08T17:00:00	8	Radiación solar	43
76289	7	Sololá	717	San Juan la Laguna	12	San Juan la Laguna	9	Septiembre	2023-08-09T00:00:00	2024-11-08T18:00:00	2	Temperatura media	20.3
76290	7	Sololá	717	San Juan la Laguna	12	San Juan la Laguna	9	Septiembre	2023-08-09T00:00:00	2024-11-08T18:00:00	4	Temperatura máxima	20.6
76291	7	Sololá	717	San Juan la Laguna	12	San Juan la Laguna	9	Septiembre	2023-08-09T00:00:00	2024-11-08T18:00:00	3	Temperatura mínima	19.9
76292	7	Sololá	717	San Juan la Laguna	12	San Juan la Laguna	9	Septiembre	2023-08-09T00:00:00	2024-11-08T18:00:00	5	Humedad	84
76293	7	Sololá	717	San Juan la Laguna	12	San Juan la Laguna	9	Septiembre	2023-08-09T00:00:00	2024-11-08T18:00:00	6	Velocidad del viento	8
76294	7	Sololá	717	San Juan la Laguna	12	San Juan la Laguna	9	Septiembre	2023-08-09T00:00:00	2024-11-08T18:00:00	7	Dirección del viento	8.05
76295	7	Sololá	717	San Juan la Laguna	12	San Juan la Laguna	9	Septiembre	2023-08-09T00:00:00	2024-11-08T18:00:00	1	Precipitación	0
76296	7	Sololá	717	San Juan la Laguna	12	San Juan la Laguna	9	Septiembre	2023-08-09T00:00:00	2024-11-08T18:00:00	8	Radiación solar	24
76297	7	Sololá	717	San Juan la Laguna	12	San Juan la Laguna	9	Septiembre	2023-08-09T00:00:00	2024-11-08T19:00:00	2	Temperatura media	16.5
76298	7	Sololá	717	San Juan la Laguna	12	San Juan la Laguna	9	Septiembre	2023-08-09T00:00:00	2024-11-08T19:00:00	4	Temperatura máxima	20.3
76299	7	Sololá	717	San Juan la Laguna	12	San Juan la Laguna	9	Septiembre	2023-08-09T00:00:00	2024-11-08T19:00:00	3	Temperatura mínima	16.5
76300	7	Sololá	717	San Juan la Laguna	12	San Juan la Laguna	9	Septiembre	2023-08-09T00:00:00	2024-11-08T19:00:00	5	Humedad	88
76301	7	Sololá	717	San Juan la Laguna	12	San Juan la Laguna	9	Septiembre	2023-08-09T00:00:00	2024-11-08T19:00:00	6	Velocidad del viento	6.4
76302	7	Sololá	717	San Juan la Laguna	12	San Juan la Laguna	9	Septiembre	2023-08-09T00:00:00	2024-11-08T19:00:00	7	Dirección del viento	6.44
76303	7	Sololá	717	San Juan la Laguna	12	San Juan la Laguna	9	Septiembre	2023-08-09T00:00:00	2024-11-08T19:00:00	1	Precipitación	12.6
76304	7	Sololá	717	San Juan la Laguna	12	San Juan la Laguna	9	Septiembre	2023-08-09T00:00:00	2024-11-08T19:00:00	8	Radiación solar	0
76305	7	Sololá	717	San Juan la Laguna	12	San Juan la Laguna	9	Septiembre	2023-08-09T00:00:00	2024-11-08T20:00:00	2	Temperatura media	16.1
76306	7	Sololá	717	San Juan la Laguna	12	San Juan la Laguna	9	Septiembre	2023-08-09T00:00:00	2024-11-08T20:00:00	4	Temperatura máxima	16.4
76307	7	Sololá	717	San Juan la Laguna	12	San Juan la Laguna	9	Septiembre	2023-08-09T00:00:00	2024-11-08T20:00:00	3	Temperatura mínima	15.8
76308	7	Sololá	717	San Juan la Laguna	12	San Juan la Laguna	9	Septiembre	2023-08-09T00:00:00	2024-11-08T20:00:00	5	Humedad	86
76309	7	Sololá	717	San Juan la Laguna	12	San Juan la Laguna	9	Septiembre	2023-08-09T00:00:00	2024-11-08T20:00:00	6	Velocidad del viento	4.8
76310	7	Sololá	717	San Juan la Laguna	12	San Juan la Laguna	9	Septiembre	2023-08-09T00:00:00	2024-11-08T20:00:00	7	Dirección del viento	4.83
76311	7	Sololá	717	San Juan la Laguna	12	San Juan la Laguna	9	Septiembre	2023-08-09T00:00:00	2024-11-08T20:00:00	1	Precipitación	13.4
76312	7	Sololá	717	San Juan la Laguna	12	San Juan la Laguna	9	Septiembre	2023-08-09T00:00:00	2024-11-08T20:00:00	8	Radiación solar	0
76313	7	Sololá	717	San Juan la Laguna	12	San Juan la Laguna	9	Septiembre	2023-08-09T00:00:00	2024-11-08T21:00:00	2	Temperatura media	16.5
76314	7	Sololá	717	San Juan la Laguna	12	San Juan la Laguna	9	Septiembre	2023-08-09T00:00:00	2024-11-08T21:00:00	4	Temperatura máxima	16.6
76315	7	Sololá	717	San Juan la Laguna	12	San Juan la Laguna	9	Septiembre	2023-08-09T00:00:00	2024-11-08T21:00:00	3	Temperatura mínima	16.1
76316	7	Sololá	717	San Juan la Laguna	12	San Juan la Laguna	9	Septiembre	2023-08-09T00:00:00	2024-11-08T21:00:00	5	Humedad	81
76317	7	Sololá	717	San Juan la Laguna	12	San Juan la Laguna	9	Septiembre	2023-08-09T00:00:00	2024-11-08T21:00:00	6	Velocidad del viento	1.6
76318	7	Sololá	717	San Juan la Laguna	12	San Juan la Laguna	9	Septiembre	2023-08-09T00:00:00	2024-11-08T21:00:00	7	Dirección del viento	1.61
76319	7	Sololá	717	San Juan la Laguna	12	San Juan la Laguna	9	Septiembre	2023-08-09T00:00:00	2024-11-08T21:00:00	1	Precipitación	1.6
76320	7	Sololá	717	San Juan la Laguna	12	San Juan la Laguna	9	Septiembre	2023-08-09T00:00:00	2024-11-08T21:00:00	8	Radiación solar	0
76321	7	Sololá	717	San Juan la Laguna	12	San Juan la Laguna	9	Septiembre	2023-08-09T00:00:00	2024-11-08T22:00:00	2	Temperatura media	16.7
76322	7	Sololá	717	San Juan la Laguna	12	San Juan la Laguna	9	Septiembre	2023-08-09T00:00:00	2024-11-08T22:00:00	4	Temperatura máxima	16.7
76323	7	Sololá	717	San Juan la Laguna	12	San Juan la Laguna	9	Septiembre	2023-08-09T00:00:00	2024-11-08T22:00:00	3	Temperatura mínima	16.5
76324	7	Sololá	717	San Juan la Laguna	12	San Juan la Laguna	9	Septiembre	2023-08-09T00:00:00	2024-11-08T22:00:00	5	Humedad	84
76325	7	Sololá	717	San Juan la Laguna	12	San Juan la Laguna	9	Septiembre	2023-08-09T00:00:00	2024-11-08T22:00:00	6	Velocidad del viento	3.2
76326	7	Sololá	717	San Juan la Laguna	12	San Juan la Laguna	9	Septiembre	2023-08-09T00:00:00	2024-11-08T22:00:00	7	Dirección del viento	3.22
76327	7	Sololá	717	San Juan la Laguna	12	San Juan la Laguna	9	Septiembre	2023-08-09T00:00:00	2024-11-08T22:00:00	1	Precipitación	0.2
76328	7	Sololá	717	San Juan la Laguna	12	San Juan la Laguna	9	Septiembre	2023-08-09T00:00:00	2024-11-08T22:00:00	8	Radiación solar	0
76329	7	Sololá	717	San Juan la Laguna	12	San Juan la Laguna	9	Septiembre	2023-08-09T00:00:00	2024-11-08T23:00:00	2	Temperatura media	16.9
76330	7	Sololá	717	San Juan la Laguna	12	San Juan la Laguna	9	Septiembre	2023-08-09T00:00:00	2024-11-08T23:00:00	4	Temperatura máxima	16.9
76331	7	Sololá	717	San Juan la Laguna	12	San Juan la Laguna	9	Septiembre	2023-08-09T00:00:00	2024-11-08T23:00:00	3	Temperatura mínima	16.7
76332	7	Sololá	717	San Juan la Laguna	12	San Juan la Laguna	9	Septiembre	2023-08-09T00:00:00	2024-11-08T23:00:00	5	Humedad	88
76333	7	Sololá	717	San Juan la Laguna	12	San Juan la Laguna	9	Septiembre	2023-08-09T00:00:00	2024-11-08T23:00:00	6	Velocidad del viento	4.8
76334	7	Sololá	717	San Juan la Laguna	12	San Juan la Laguna	9	Septiembre	2023-08-09T00:00:00	2024-11-08T23:00:00	7	Dirección del viento	4.83
76335	7	Sololá	717	San Juan la Laguna	12	San Juan la Laguna	9	Septiembre	2023-08-09T00:00:00	2024-11-08T23:00:00	1	Precipitación	0.2
76336	7	Sololá	717	San Juan la Laguna	12	San Juan la Laguna	9	Septiembre	2023-08-09T00:00:00	2024-11-08T23:00:00	8	Radiación solar	0
76337	7	Sololá	717	San Juan la Laguna	12	San Juan la Laguna	9	Septiembre	2023-09-09T00:00:00	2024-11-08T00:00:00	2	Temperatura media	16.1
76338	7	Sololá	717	San Juan la Laguna	12	San Juan la Laguna	9	Septiembre	2023-09-09T00:00:00	2024-11-08T00:00:00	4	Temperatura máxima	16.9
76339	7	Sololá	717	San Juan la Laguna	12	San Juan la Laguna	9	Septiembre	2023-09-09T00:00:00	2024-11-08T00:00:00	3	Temperatura mínima	16.1
76340	7	Sololá	717	San Juan la Laguna	12	San Juan la Laguna	9	Septiembre	2023-09-09T00:00:00	2024-11-08T00:00:00	5	Humedad	88
76341	7	Sololá	717	San Juan la Laguna	12	San Juan la Laguna	9	Septiembre	2023-09-09T00:00:00	2024-11-08T00:00:00	6	Velocidad del viento	4.8
76342	7	Sololá	717	San Juan la Laguna	12	San Juan la Laguna	9	Septiembre	2023-09-09T00:00:00	2024-11-08T00:00:00	7	Dirección del viento	4.83
76343	7	Sololá	717	San Juan la Laguna	12	San Juan la Laguna	9	Septiembre	2023-09-09T00:00:00	2024-11-08T00:00:00	1	Precipitación	0
76344	7	Sololá	717	San Juan la Laguna	12	San Juan la Laguna	9	Septiembre	2023-09-09T00:00:00	2024-11-08T00:00:00	8	Radiación solar	0
76345	7	Sololá	717	San Juan la Laguna	12	San Juan la Laguna	9	Septiembre	2023-09-09T00:00:00	2024-11-08T01:00:00	2	Temperatura media	16.1
76346	7	Sololá	717	San Juan la Laguna	12	San Juan la Laguna	9	Septiembre	2023-09-09T00:00:00	2024-11-08T01:00:00	4	Temperatura máxima	16.2
76347	7	Sololá	717	San Juan la Laguna	12	San Juan la Laguna	9	Septiembre	2023-09-09T00:00:00	2024-11-08T01:00:00	3	Temperatura mínima	16
76348	7	Sololá	717	San Juan la Laguna	12	San Juan la Laguna	9	Septiembre	2023-09-09T00:00:00	2024-11-08T01:00:00	5	Humedad	89
76349	7	Sololá	717	San Juan la Laguna	12	San Juan la Laguna	9	Septiembre	2023-09-09T00:00:00	2024-11-08T01:00:00	6	Velocidad del viento	6.4
76350	7	Sololá	717	San Juan la Laguna	12	San Juan la Laguna	9	Septiembre	2023-09-09T00:00:00	2024-11-08T01:00:00	7	Dirección del viento	6.44
76351	7	Sololá	717	San Juan la Laguna	12	San Juan la Laguna	9	Septiembre	2023-09-09T00:00:00	2024-11-08T01:00:00	1	Precipitación	0
76352	7	Sololá	717	San Juan la Laguna	12	San Juan la Laguna	9	Septiembre	2023-09-09T00:00:00	2024-11-08T01:00:00	8	Radiación solar	0
76353	7	Sololá	717	San Juan la Laguna	12	San Juan la Laguna	9	Septiembre	2023-09-09T00:00:00	2024-11-08T02:00:00	2	Temperatura media	15.9
76354	7	Sololá	717	San Juan la Laguna	12	San Juan la Laguna	9	Septiembre	2023-09-09T00:00:00	2024-11-08T02:00:00	4	Temperatura máxima	16.1
76355	7	Sololá	717	San Juan la Laguna	12	San Juan la Laguna	9	Septiembre	2023-09-09T00:00:00	2024-11-08T02:00:00	3	Temperatura mínima	15.8
76356	7	Sololá	717	San Juan la Laguna	12	San Juan la Laguna	9	Septiembre	2023-09-09T00:00:00	2024-11-08T02:00:00	5	Humedad	87
76357	7	Sololá	717	San Juan la Laguna	12	San Juan la Laguna	9	Septiembre	2023-09-09T00:00:00	2024-11-08T02:00:00	6	Velocidad del viento	3.2
76358	7	Sololá	717	San Juan la Laguna	12	San Juan la Laguna	9	Septiembre	2023-09-09T00:00:00	2024-11-08T02:00:00	7	Dirección del viento	3.22
76359	7	Sololá	717	San Juan la Laguna	12	San Juan la Laguna	9	Septiembre	2023-09-09T00:00:00	2024-11-08T02:00:00	1	Precipitación	0
76360	7	Sololá	717	San Juan la Laguna	12	San Juan la Laguna	9	Septiembre	2023-09-09T00:00:00	2024-11-08T02:00:00	8	Radiación solar	0
76361	7	Sololá	717	San Juan la Laguna	12	San Juan la Laguna	9	Septiembre	2023-09-09T00:00:00	2024-11-08T03:00:00	2	Temperatura media	16
76362	7	Sololá	717	San Juan la Laguna	12	San Juan la Laguna	9	Septiembre	2023-09-09T00:00:00	2024-11-08T03:00:00	4	Temperatura máxima	16.2
76363	7	Sololá	717	San Juan la Laguna	12	San Juan la Laguna	9	Septiembre	2023-09-09T00:00:00	2024-11-08T03:00:00	3	Temperatura mínima	15.9
76364	7	Sololá	717	San Juan la Laguna	12	San Juan la Laguna	9	Septiembre	2023-09-09T00:00:00	2024-11-08T03:00:00	5	Humedad	88
76365	7	Sololá	717	San Juan la Laguna	12	San Juan la Laguna	9	Septiembre	2023-09-09T00:00:00	2024-11-08T03:00:00	6	Velocidad del viento	4.8
76366	7	Sololá	717	San Juan la Laguna	12	San Juan la Laguna	9	Septiembre	2023-09-09T00:00:00	2024-11-08T03:00:00	7	Dirección del viento	4.83
76367	7	Sololá	717	San Juan la Laguna	12	San Juan la Laguna	9	Septiembre	2023-09-09T00:00:00	2024-11-08T03:00:00	1	Precipitación	0
76368	7	Sololá	717	San Juan la Laguna	12	San Juan la Laguna	9	Septiembre	2023-09-09T00:00:00	2024-11-08T03:00:00	8	Radiación solar	0
76369	7	Sololá	717	San Juan la Laguna	12	San Juan la Laguna	9	Septiembre	2023-09-09T00:00:00	2024-11-08T04:00:00	2	Temperatura media	16.3
76370	7	Sololá	717	San Juan la Laguna	12	San Juan la Laguna	9	Septiembre	2023-09-09T00:00:00	2024-11-08T04:00:00	4	Temperatura máxima	16.3
76371	7	Sololá	717	San Juan la Laguna	12	San Juan la Laguna	9	Septiembre	2023-09-09T00:00:00	2024-11-08T04:00:00	3	Temperatura mínima	15.8
76372	7	Sololá	717	San Juan la Laguna	12	San Juan la Laguna	9	Septiembre	2023-09-09T00:00:00	2024-11-08T04:00:00	5	Humedad	89
76373	7	Sololá	717	San Juan la Laguna	12	San Juan la Laguna	9	Septiembre	2023-09-09T00:00:00	2024-11-08T04:00:00	6	Velocidad del viento	4.8
76374	7	Sololá	717	San Juan la Laguna	12	San Juan la Laguna	9	Septiembre	2023-09-09T00:00:00	2024-11-08T04:00:00	7	Dirección del viento	4.83
76375	7	Sololá	717	San Juan la Laguna	12	San Juan la Laguna	9	Septiembre	2023-09-09T00:00:00	2024-11-08T04:00:00	1	Precipitación	0
76376	7	Sololá	717	San Juan la Laguna	12	San Juan la Laguna	9	Septiembre	2023-09-09T00:00:00	2024-11-08T04:00:00	8	Radiación solar	0
76377	7	Sololá	717	San Juan la Laguna	12	San Juan la Laguna	9	Septiembre	2023-09-09T00:00:00	2024-11-08T05:00:00	2	Temperatura media	15.4
76378	7	Sololá	717	San Juan la Laguna	12	San Juan la Laguna	9	Septiembre	2023-09-09T00:00:00	2024-11-08T05:00:00	4	Temperatura máxima	16.3
76379	7	Sololá	717	San Juan la Laguna	12	San Juan la Laguna	9	Septiembre	2023-09-09T00:00:00	2024-11-08T05:00:00	3	Temperatura mínima	15.4
76380	7	Sololá	717	San Juan la Laguna	12	San Juan la Laguna	9	Septiembre	2023-09-09T00:00:00	2024-11-08T05:00:00	5	Humedad	89
76381	7	Sololá	717	San Juan la Laguna	12	San Juan la Laguna	9	Septiembre	2023-09-09T00:00:00	2024-11-08T05:00:00	6	Velocidad del viento	4.8
76382	7	Sololá	717	San Juan la Laguna	12	San Juan la Laguna	9	Septiembre	2023-09-09T00:00:00	2024-11-08T05:00:00	7	Dirección del viento	4.83
76383	7	Sololá	717	San Juan la Laguna	12	San Juan la Laguna	9	Septiembre	2023-09-09T00:00:00	2024-11-08T05:00:00	1	Precipitación	0
76384	7	Sololá	717	San Juan la Laguna	12	San Juan la Laguna	9	Septiembre	2023-09-09T00:00:00	2024-11-08T05:00:00	8	Radiación solar	0
76385	7	Sololá	717	San Juan la Laguna	12	San Juan la Laguna	9	Septiembre	2023-09-09T00:00:00	2024-11-08T06:00:00	2	Temperatura media	15.4
76386	7	Sololá	717	San Juan la Laguna	12	San Juan la Laguna	9	Septiembre	2023-09-09T00:00:00	2024-11-08T06:00:00	4	Temperatura máxima	15.6
76387	7	Sololá	717	San Juan la Laguna	12	San Juan la Laguna	9	Septiembre	2023-09-09T00:00:00	2024-11-08T06:00:00	3	Temperatura mínima	15.4
76388	7	Sololá	717	San Juan la Laguna	12	San Juan la Laguna	9	Septiembre	2023-09-09T00:00:00	2024-11-08T06:00:00	5	Humedad	88
76389	7	Sololá	717	San Juan la Laguna	12	San Juan la Laguna	9	Septiembre	2023-09-09T00:00:00	2024-11-08T06:00:00	6	Velocidad del viento	4.8
76390	7	Sololá	717	San Juan la Laguna	12	San Juan la Laguna	9	Septiembre	2023-09-09T00:00:00	2024-11-08T06:00:00	7	Dirección del viento	4.83
76391	7	Sololá	717	San Juan la Laguna	12	San Juan la Laguna	9	Septiembre	2023-09-09T00:00:00	2024-11-08T06:00:00	1	Precipitación	0
76392	7	Sololá	717	San Juan la Laguna	12	San Juan la Laguna	9	Septiembre	2023-09-09T00:00:00	2024-11-08T06:00:00	8	Radiación solar	2
76393	7	Sololá	717	San Juan la Laguna	12	San Juan la Laguna	9	Septiembre	2023-09-09T00:00:00	2024-11-08T07:00:00	2	Temperatura media	16.4
76394	7	Sololá	717	San Juan la Laguna	12	San Juan la Laguna	9	Septiembre	2023-09-09T00:00:00	2024-11-08T07:00:00	4	Temperatura máxima	16.4
76395	7	Sololá	717	San Juan la Laguna	12	San Juan la Laguna	9	Septiembre	2023-09-09T00:00:00	2024-11-08T07:00:00	3	Temperatura mínima	15.4
76396	7	Sololá	717	San Juan la Laguna	12	San Juan la Laguna	9	Septiembre	2023-09-09T00:00:00	2024-11-08T07:00:00	5	Humedad	88
76397	7	Sololá	717	San Juan la Laguna	12	San Juan la Laguna	9	Septiembre	2023-09-09T00:00:00	2024-11-08T07:00:00	6	Velocidad del viento	3.2
76398	7	Sololá	717	San Juan la Laguna	12	San Juan la Laguna	9	Septiembre	2023-09-09T00:00:00	2024-11-08T07:00:00	7	Dirección del viento	3.22
76399	7	Sololá	717	San Juan la Laguna	12	San Juan la Laguna	9	Septiembre	2023-09-09T00:00:00	2024-11-08T07:00:00	1	Precipitación	0
76400	7	Sololá	717	San Juan la Laguna	12	San Juan la Laguna	9	Septiembre	2023-09-09T00:00:00	2024-11-08T07:00:00	8	Radiación solar	52
76401	7	Sololá	717	San Juan la Laguna	12	San Juan la Laguna	9	Septiembre	2023-09-09T00:00:00	2024-11-08T08:00:00	2	Temperatura media	20.2
76402	7	Sololá	717	San Juan la Laguna	12	San Juan la Laguna	9	Septiembre	2023-09-09T00:00:00	2024-11-08T08:00:00	4	Temperatura máxima	20.2
76403	7	Sololá	717	San Juan la Laguna	12	San Juan la Laguna	9	Septiembre	2023-09-09T00:00:00	2024-11-08T08:00:00	3	Temperatura mínima	16.4
76404	7	Sololá	717	San Juan la Laguna	12	San Juan la Laguna	9	Septiembre	2023-09-09T00:00:00	2024-11-08T08:00:00	5	Humedad	77
76405	7	Sololá	717	San Juan la Laguna	12	San Juan la Laguna	9	Septiembre	2023-09-09T00:00:00	2024-11-08T08:00:00	6	Velocidad del viento	0
76406	7	Sololá	717	San Juan la Laguna	12	San Juan la Laguna	9	Septiembre	2023-09-09T00:00:00	2024-11-08T08:00:00	7	Dirección del viento	0
76407	7	Sololá	717	San Juan la Laguna	12	San Juan la Laguna	9	Septiembre	2023-09-09T00:00:00	2024-11-08T08:00:00	1	Precipitación	0
76408	7	Sololá	717	San Juan la Laguna	12	San Juan la Laguna	9	Septiembre	2023-09-09T00:00:00	2024-11-08T08:00:00	8	Radiación solar	234
76409	7	Sololá	717	San Juan la Laguna	12	San Juan la Laguna	9	Septiembre	2023-09-09T00:00:00	2024-11-08T09:00:00	2	Temperatura media	21.8
76410	7	Sololá	717	San Juan la Laguna	12	San Juan la Laguna	9	Septiembre	2023-09-09T00:00:00	2024-11-08T09:00:00	4	Temperatura máxima	21.8
76411	7	Sololá	717	San Juan la Laguna	12	San Juan la Laguna	9	Septiembre	2023-09-09T00:00:00	2024-11-08T09:00:00	3	Temperatura mínima	20.2
76412	7	Sololá	717	San Juan la Laguna	12	San Juan la Laguna	9	Septiembre	2023-09-09T00:00:00	2024-11-08T09:00:00	5	Humedad	71
76413	7	Sololá	717	San Juan la Laguna	12	San Juan la Laguna	9	Septiembre	2023-09-09T00:00:00	2024-11-08T09:00:00	6	Velocidad del viento	1.6
76414	7	Sololá	717	San Juan la Laguna	12	San Juan la Laguna	9	Septiembre	2023-09-09T00:00:00	2024-11-08T09:00:00	7	Dirección del viento	1.61
76415	7	Sololá	717	San Juan la Laguna	12	San Juan la Laguna	9	Septiembre	2023-09-09T00:00:00	2024-11-08T09:00:00	1	Precipitación	0
76416	7	Sololá	717	San Juan la Laguna	12	San Juan la Laguna	9	Septiembre	2023-09-09T00:00:00	2024-11-08T09:00:00	8	Radiación solar	377
76417	7	Sololá	717	San Juan la Laguna	12	San Juan la Laguna	9	Septiembre	2023-09-09T00:00:00	2024-11-08T10:00:00	2	Temperatura media	22.7
76418	7	Sololá	717	San Juan la Laguna	12	San Juan la Laguna	9	Septiembre	2023-09-09T00:00:00	2024-11-08T10:00:00	4	Temperatura máxima	22.7
76419	7	Sololá	717	San Juan la Laguna	12	San Juan la Laguna	9	Septiembre	2023-09-09T00:00:00	2024-11-08T10:00:00	3	Temperatura mínima	21.5
76420	7	Sololá	717	San Juan la Laguna	12	San Juan la Laguna	9	Septiembre	2023-09-09T00:00:00	2024-11-08T10:00:00	5	Humedad	64
76421	7	Sololá	717	San Juan la Laguna	12	San Juan la Laguna	9	Septiembre	2023-09-09T00:00:00	2024-11-08T10:00:00	6	Velocidad del viento	0
76422	7	Sololá	717	San Juan la Laguna	12	San Juan la Laguna	9	Septiembre	2023-09-09T00:00:00	2024-11-08T10:00:00	7	Dirección del viento	0
76423	7	Sololá	717	San Juan la Laguna	12	San Juan la Laguna	9	Septiembre	2023-09-09T00:00:00	2024-11-08T10:00:00	1	Precipitación	0
76424	7	Sololá	717	San Juan la Laguna	12	San Juan la Laguna	9	Septiembre	2023-09-09T00:00:00	2024-11-08T10:00:00	8	Radiación solar	628
76425	7	Sololá	717	San Juan la Laguna	12	San Juan la Laguna	9	Septiembre	2023-09-09T00:00:00	2024-11-08T11:00:00	2	Temperatura media	23.2
76426	7	Sololá	717	San Juan la Laguna	12	San Juan la Laguna	9	Septiembre	2023-09-09T00:00:00	2024-11-08T11:00:00	4	Temperatura máxima	23.9
76427	7	Sololá	717	San Juan la Laguna	12	San Juan la Laguna	9	Septiembre	2023-09-09T00:00:00	2024-11-08T11:00:00	3	Temperatura mínima	22.7
76428	7	Sololá	717	San Juan la Laguna	12	San Juan la Laguna	9	Septiembre	2023-09-09T00:00:00	2024-11-08T11:00:00	5	Humedad	61
76429	7	Sololá	717	San Juan la Laguna	12	San Juan la Laguna	9	Septiembre	2023-09-09T00:00:00	2024-11-08T11:00:00	6	Velocidad del viento	0
76430	7	Sololá	717	San Juan la Laguna	12	San Juan la Laguna	9	Septiembre	2023-09-09T00:00:00	2024-11-08T11:00:00	7	Dirección del viento	0
76431	7	Sololá	717	San Juan la Laguna	12	San Juan la Laguna	9	Septiembre	2023-09-09T00:00:00	2024-11-08T11:00:00	1	Precipitación	0
76432	7	Sololá	717	San Juan la Laguna	12	San Juan la Laguna	9	Septiembre	2023-09-09T00:00:00	2024-11-08T11:00:00	8	Radiación solar	777
76433	7	Sololá	717	San Juan la Laguna	12	San Juan la Laguna	9	Septiembre	2023-09-09T00:00:00	2024-11-08T12:00:00	2	Temperatura media	23.7
76434	7	Sololá	717	San Juan la Laguna	12	San Juan la Laguna	9	Septiembre	2023-09-09T00:00:00	2024-11-08T12:00:00	4	Temperatura máxima	23.9
76435	7	Sololá	717	San Juan la Laguna	12	San Juan la Laguna	9	Septiembre	2023-09-09T00:00:00	2024-11-08T12:00:00	3	Temperatura mínima	23.1
76436	7	Sololá	717	San Juan la Laguna	12	San Juan la Laguna	9	Septiembre	2023-09-09T00:00:00	2024-11-08T12:00:00	5	Humedad	61
76437	7	Sololá	717	San Juan la Laguna	12	San Juan la Laguna	9	Septiembre	2023-09-09T00:00:00	2024-11-08T12:00:00	6	Velocidad del viento	0
76438	7	Sololá	717	San Juan la Laguna	12	San Juan la Laguna	9	Septiembre	2023-09-09T00:00:00	2024-11-08T12:00:00	7	Dirección del viento	0
76439	7	Sololá	717	San Juan la Laguna	12	San Juan la Laguna	9	Septiembre	2023-09-09T00:00:00	2024-11-08T12:00:00	1	Precipitación	0
76440	7	Sololá	717	San Juan la Laguna	12	San Juan la Laguna	9	Septiembre	2023-09-09T00:00:00	2024-11-08T12:00:00	8	Radiación solar	824
76441	7	Sololá	717	San Juan la Laguna	12	San Juan la Laguna	9	Septiembre	2023-09-09T00:00:00	2024-11-08T13:00:00	2	Temperatura media	24.4
76442	7	Sololá	717	San Juan la Laguna	12	San Juan la Laguna	9	Septiembre	2023-09-09T00:00:00	2024-11-08T13:00:00	4	Temperatura máxima	24.4
76443	7	Sololá	717	San Juan la Laguna	12	San Juan la Laguna	9	Septiembre	2023-09-09T00:00:00	2024-11-08T13:00:00	3	Temperatura mínima	23.6
76444	7	Sololá	717	San Juan la Laguna	12	San Juan la Laguna	9	Septiembre	2023-09-09T00:00:00	2024-11-08T13:00:00	5	Humedad	61
76445	7	Sololá	717	San Juan la Laguna	12	San Juan la Laguna	9	Septiembre	2023-09-09T00:00:00	2024-11-08T13:00:00	6	Velocidad del viento	0
76446	7	Sololá	717	San Juan la Laguna	12	San Juan la Laguna	9	Septiembre	2023-09-09T00:00:00	2024-11-08T13:00:00	7	Dirección del viento	0
76447	7	Sololá	717	San Juan la Laguna	12	San Juan la Laguna	9	Septiembre	2023-09-09T00:00:00	2024-11-08T13:00:00	1	Precipitación	0
76448	7	Sololá	717	San Juan la Laguna	12	San Juan la Laguna	9	Septiembre	2023-09-09T00:00:00	2024-11-08T13:00:00	8	Radiación solar	806
76449	7	Sololá	717	San Juan la Laguna	12	San Juan la Laguna	9	Septiembre	2023-09-09T00:00:00	2024-11-08T14:00:00	2	Temperatura media	24.3
76450	7	Sololá	717	San Juan la Laguna	12	San Juan la Laguna	9	Septiembre	2023-09-09T00:00:00	2024-11-08T14:00:00	4	Temperatura máxima	25
76451	7	Sololá	717	San Juan la Laguna	12	San Juan la Laguna	9	Septiembre	2023-09-09T00:00:00	2024-11-08T14:00:00	3	Temperatura mínima	24.3
76452	7	Sololá	717	San Juan la Laguna	12	San Juan la Laguna	9	Septiembre	2023-09-09T00:00:00	2024-11-08T14:00:00	5	Humedad	64
76453	7	Sololá	717	San Juan la Laguna	12	San Juan la Laguna	9	Septiembre	2023-09-09T00:00:00	2024-11-08T14:00:00	6	Velocidad del viento	0
76454	7	Sololá	717	San Juan la Laguna	12	San Juan la Laguna	9	Septiembre	2023-09-09T00:00:00	2024-11-08T14:00:00	7	Dirección del viento	0
76455	7	Sololá	717	San Juan la Laguna	12	San Juan la Laguna	9	Septiembre	2023-09-09T00:00:00	2024-11-08T14:00:00	1	Precipitación	0
76456	7	Sololá	717	San Juan la Laguna	12	San Juan la Laguna	9	Septiembre	2023-09-09T00:00:00	2024-11-08T14:00:00	8	Radiación solar	729
76457	7	Sololá	717	San Juan la Laguna	12	San Juan la Laguna	9	Septiembre	2023-09-09T00:00:00	2024-11-08T15:00:00	2	Temperatura media	22.5
76458	7	Sololá	717	San Juan la Laguna	12	San Juan la Laguna	9	Septiembre	2023-09-09T00:00:00	2024-11-08T15:00:00	4	Temperatura máxima	24.8
76459	7	Sololá	717	San Juan la Laguna	12	San Juan la Laguna	9	Septiembre	2023-09-09T00:00:00	2024-11-08T15:00:00	3	Temperatura mínima	22.5
76460	7	Sololá	717	San Juan la Laguna	12	San Juan la Laguna	9	Septiembre	2023-09-09T00:00:00	2024-11-08T15:00:00	5	Humedad	77
76461	7	Sololá	717	San Juan la Laguna	12	San Juan la Laguna	9	Septiembre	2023-09-09T00:00:00	2024-11-08T15:00:00	6	Velocidad del viento	1.6
76462	7	Sololá	717	San Juan la Laguna	12	San Juan la Laguna	9	Septiembre	2023-09-09T00:00:00	2024-11-08T15:00:00	7	Dirección del viento	1.61
76463	7	Sololá	717	San Juan la Laguna	12	San Juan la Laguna	9	Septiembre	2023-09-09T00:00:00	2024-11-08T15:00:00	1	Precipitación	0
76464	7	Sololá	717	San Juan la Laguna	12	San Juan la Laguna	9	Septiembre	2023-09-09T00:00:00	2024-11-08T15:00:00	8	Radiación solar	447
76465	7	Sololá	717	San Juan la Laguna	12	San Juan la Laguna	9	Septiembre	2023-09-09T00:00:00	2024-11-08T16:00:00	2	Temperatura media	20.8
76466	7	Sololá	717	San Juan la Laguna	12	San Juan la Laguna	9	Septiembre	2023-09-09T00:00:00	2024-11-08T16:00:00	4	Temperatura máxima	22.5
76467	7	Sololá	717	San Juan la Laguna	12	San Juan la Laguna	9	Septiembre	2023-09-09T00:00:00	2024-11-08T16:00:00	3	Temperatura mínima	20.7
76468	7	Sololá	717	San Juan la Laguna	12	San Juan la Laguna	9	Septiembre	2023-09-09T00:00:00	2024-11-08T16:00:00	5	Humedad	78
76469	7	Sololá	717	San Juan la Laguna	12	San Juan la Laguna	9	Septiembre	2023-09-09T00:00:00	2024-11-08T16:00:00	6	Velocidad del viento	3.2
76470	7	Sololá	717	San Juan la Laguna	12	San Juan la Laguna	9	Septiembre	2023-09-09T00:00:00	2024-11-08T16:00:00	7	Dirección del viento	3.22
76471	7	Sololá	717	San Juan la Laguna	12	San Juan la Laguna	9	Septiembre	2023-09-09T00:00:00	2024-11-08T16:00:00	1	Precipitación	0
76472	7	Sololá	717	San Juan la Laguna	12	San Juan la Laguna	9	Septiembre	2023-09-09T00:00:00	2024-11-08T16:00:00	8	Radiación solar	70
76473	7	Sololá	717	San Juan la Laguna	12	San Juan la Laguna	9	Septiembre	2023-09-09T00:00:00	2024-11-08T17:00:00	2	Temperatura media	18.4
76474	7	Sololá	717	San Juan la Laguna	12	San Juan la Laguna	9	Septiembre	2023-09-09T00:00:00	2024-11-08T17:00:00	4	Temperatura máxima	20.8
76475	7	Sololá	717	San Juan la Laguna	12	San Juan la Laguna	9	Septiembre	2023-09-09T00:00:00	2024-11-08T17:00:00	3	Temperatura mínima	18.4
76476	7	Sololá	717	San Juan la Laguna	12	San Juan la Laguna	9	Septiembre	2023-09-09T00:00:00	2024-11-08T17:00:00	5	Humedad	84
76477	7	Sololá	717	San Juan la Laguna	12	San Juan la Laguna	9	Septiembre	2023-09-09T00:00:00	2024-11-08T17:00:00	6	Velocidad del viento	6.4
76478	7	Sololá	717	San Juan la Laguna	12	San Juan la Laguna	9	Septiembre	2023-09-09T00:00:00	2024-11-08T17:00:00	7	Dirección del viento	6.44
76479	7	Sololá	717	San Juan la Laguna	12	San Juan la Laguna	9	Septiembre	2023-09-09T00:00:00	2024-11-08T17:00:00	1	Precipitación	0
76480	7	Sololá	717	San Juan la Laguna	12	San Juan la Laguna	9	Septiembre	2023-09-09T00:00:00	2024-11-08T17:00:00	8	Radiación solar	9
76481	7	Sololá	717	San Juan la Laguna	12	San Juan la Laguna	9	Septiembre	2023-09-09T00:00:00	2024-11-08T18:00:00	2	Temperatura media	18.1
76482	7	Sololá	717	San Juan la Laguna	12	San Juan la Laguna	9	Septiembre	2023-09-09T00:00:00	2024-11-08T18:00:00	4	Temperatura máxima	18.8
76483	7	Sololá	717	San Juan la Laguna	12	San Juan la Laguna	9	Septiembre	2023-09-09T00:00:00	2024-11-08T18:00:00	3	Temperatura mínima	18.1
76484	7	Sololá	717	San Juan la Laguna	12	San Juan la Laguna	9	Septiembre	2023-09-09T00:00:00	2024-11-08T18:00:00	5	Humedad	88
76485	7	Sololá	717	San Juan la Laguna	12	San Juan la Laguna	9	Septiembre	2023-09-09T00:00:00	2024-11-08T18:00:00	6	Velocidad del viento	0
76486	7	Sololá	717	San Juan la Laguna	12	San Juan la Laguna	9	Septiembre	2023-09-09T00:00:00	2024-11-08T18:00:00	7	Dirección del viento	0
76487	7	Sololá	717	San Juan la Laguna	12	San Juan la Laguna	9	Septiembre	2023-09-09T00:00:00	2024-11-08T18:00:00	1	Precipitación	0.4
76488	7	Sololá	717	San Juan la Laguna	12	San Juan la Laguna	9	Septiembre	2023-09-09T00:00:00	2024-11-08T18:00:00	8	Radiación solar	6
76489	7	Sololá	717	San Juan la Laguna	12	San Juan la Laguna	9	Septiembre	2023-09-09T00:00:00	2024-11-08T19:00:00	2	Temperatura media	17.6
76490	7	Sololá	717	San Juan la Laguna	12	San Juan la Laguna	9	Septiembre	2023-09-09T00:00:00	2024-11-08T19:00:00	4	Temperatura máxima	18.1
76491	7	Sololá	717	San Juan la Laguna	12	San Juan la Laguna	9	Septiembre	2023-09-09T00:00:00	2024-11-08T19:00:00	3	Temperatura mínima	17.6
76492	7	Sololá	717	San Juan la Laguna	12	San Juan la Laguna	9	Septiembre	2023-09-09T00:00:00	2024-11-08T19:00:00	5	Humedad	89
76493	7	Sololá	717	San Juan la Laguna	12	San Juan la Laguna	9	Septiembre	2023-09-09T00:00:00	2024-11-08T19:00:00	6	Velocidad del viento	1.6
76494	7	Sololá	717	San Juan la Laguna	12	San Juan la Laguna	9	Septiembre	2023-09-09T00:00:00	2024-11-08T19:00:00	7	Dirección del viento	1.61
76495	7	Sololá	717	San Juan la Laguna	12	San Juan la Laguna	9	Septiembre	2023-09-09T00:00:00	2024-11-08T19:00:00	1	Precipitación	2
76496	7	Sololá	717	San Juan la Laguna	12	San Juan la Laguna	9	Septiembre	2023-09-09T00:00:00	2024-11-08T19:00:00	8	Radiación solar	0
76497	7	Sololá	717	San Juan la Laguna	12	San Juan la Laguna	9	Septiembre	2023-09-09T00:00:00	2024-11-08T20:00:00	2	Temperatura media	17.6
76498	7	Sololá	717	San Juan la Laguna	12	San Juan la Laguna	9	Septiembre	2023-09-09T00:00:00	2024-11-08T20:00:00	4	Temperatura máxima	17.7
76499	7	Sololá	717	San Juan la Laguna	12	San Juan la Laguna	9	Septiembre	2023-09-09T00:00:00	2024-11-08T20:00:00	3	Temperatura mínima	17.6
76500	7	Sololá	717	San Juan la Laguna	12	San Juan la Laguna	9	Septiembre	2023-09-09T00:00:00	2024-11-08T20:00:00	5	Humedad	89
76501	7	Sololá	717	San Juan la Laguna	12	San Juan la Laguna	9	Septiembre	2023-09-09T00:00:00	2024-11-08T20:00:00	6	Velocidad del viento	0
76502	7	Sololá	717	San Juan la Laguna	12	San Juan la Laguna	9	Septiembre	2023-09-09T00:00:00	2024-11-08T20:00:00	7	Dirección del viento	0
76503	7	Sololá	717	San Juan la Laguna	12	San Juan la Laguna	9	Septiembre	2023-09-09T00:00:00	2024-11-08T20:00:00	1	Precipitación	0.2
76504	7	Sololá	717	San Juan la Laguna	12	San Juan la Laguna	9	Septiembre	2023-09-09T00:00:00	2024-11-08T20:00:00	8	Radiación solar	0
76505	7	Sololá	717	San Juan la Laguna	12	San Juan la Laguna	9	Septiembre	2023-09-09T00:00:00	2024-11-08T21:00:00	2	Temperatura media	17.4
76506	7	Sololá	717	San Juan la Laguna	12	San Juan la Laguna	9	Septiembre	2023-09-09T00:00:00	2024-11-08T21:00:00	4	Temperatura máxima	17.7
76507	7	Sololá	717	San Juan la Laguna	12	San Juan la Laguna	9	Septiembre	2023-09-09T00:00:00	2024-11-08T21:00:00	3	Temperatura mínima	17.4
76508	7	Sololá	717	San Juan la Laguna	12	San Juan la Laguna	9	Septiembre	2023-09-09T00:00:00	2024-11-08T21:00:00	5	Humedad	89
76509	7	Sololá	717	San Juan la Laguna	12	San Juan la Laguna	9	Septiembre	2023-09-09T00:00:00	2024-11-08T21:00:00	6	Velocidad del viento	3.2
76510	7	Sololá	717	San Juan la Laguna	12	San Juan la Laguna	9	Septiembre	2023-09-09T00:00:00	2024-11-08T21:00:00	7	Dirección del viento	3.22
76511	7	Sololá	717	San Juan la Laguna	12	San Juan la Laguna	9	Septiembre	2023-09-09T00:00:00	2024-11-08T21:00:00	1	Precipitación	0.2
76512	7	Sololá	717	San Juan la Laguna	12	San Juan la Laguna	9	Septiembre	2023-09-09T00:00:00	2024-11-08T21:00:00	8	Radiación solar	0
76513	7	Sololá	717	San Juan la Laguna	12	San Juan la Laguna	9	Septiembre	2023-09-09T00:00:00	2024-11-08T22:00:00	2	Temperatura media	17.2
76514	7	Sololá	717	San Juan la Laguna	12	San Juan la Laguna	9	Septiembre	2023-09-09T00:00:00	2024-11-08T22:00:00	4	Temperatura máxima	17.4
76515	7	Sololá	717	San Juan la Laguna	12	San Juan la Laguna	9	Septiembre	2023-09-09T00:00:00	2024-11-08T22:00:00	3	Temperatura mínima	17.2
76516	7	Sololá	717	San Juan la Laguna	12	San Juan la Laguna	9	Septiembre	2023-09-09T00:00:00	2024-11-08T22:00:00	5	Humedad	89
76517	7	Sololá	717	San Juan la Laguna	12	San Juan la Laguna	9	Septiembre	2023-09-09T00:00:00	2024-11-08T22:00:00	6	Velocidad del viento	1.6
76518	7	Sololá	717	San Juan la Laguna	12	San Juan la Laguna	9	Septiembre	2023-09-09T00:00:00	2024-11-08T22:00:00	7	Dirección del viento	1.61
76519	7	Sololá	717	San Juan la Laguna	12	San Juan la Laguna	9	Septiembre	2023-09-09T00:00:00	2024-11-08T22:00:00	1	Precipitación	0
76520	7	Sololá	717	San Juan la Laguna	12	San Juan la Laguna	9	Septiembre	2023-09-09T00:00:00	2024-11-08T22:00:00	8	Radiación solar	0
76521	7	Sololá	717	San Juan la Laguna	12	San Juan la Laguna	9	Septiembre	2023-09-09T00:00:00	2024-11-08T23:00:00	2	Temperatura media	17.7
76522	7	Sololá	717	San Juan la Laguna	12	San Juan la Laguna	9	Septiembre	2023-09-09T00:00:00	2024-11-08T23:00:00	4	Temperatura máxima	17.7
76523	7	Sololá	717	San Juan la Laguna	12	San Juan la Laguna	9	Septiembre	2023-09-09T00:00:00	2024-11-08T23:00:00	3	Temperatura mínima	17.3
76524	7	Sololá	717	San Juan la Laguna	12	San Juan la Laguna	9	Septiembre	2023-09-09T00:00:00	2024-11-08T23:00:00	5	Humedad	89
76525	7	Sololá	717	San Juan la Laguna	12	San Juan la Laguna	9	Septiembre	2023-09-09T00:00:00	2024-11-08T23:00:00	6	Velocidad del viento	1.6
76526	7	Sololá	717	San Juan la Laguna	12	San Juan la Laguna	9	Septiembre	2023-09-09T00:00:00	2024-11-08T23:00:00	7	Dirección del viento	1.61
76527	7	Sololá	717	San Juan la Laguna	12	San Juan la Laguna	9	Septiembre	2023-09-09T00:00:00	2024-11-08T23:00:00	1	Precipitación	0
76528	7	Sololá	717	San Juan la Laguna	12	San Juan la Laguna	9	Septiembre	2023-09-09T00:00:00	2024-11-08T23:00:00	8	Radiación solar	0
76529	7	Sololá	717	San Juan la Laguna	12	San Juan la Laguna	9	Septiembre	2023-10-09T00:00:00	2024-11-08T00:00:00	2	Temperatura media	17.4
76530	7	Sololá	717	San Juan la Laguna	12	San Juan la Laguna	9	Septiembre	2023-10-09T00:00:00	2024-11-08T00:00:00	4	Temperatura máxima	17.7
76531	7	Sololá	717	San Juan la Laguna	12	San Juan la Laguna	9	Septiembre	2023-10-09T00:00:00	2024-11-08T00:00:00	3	Temperatura mínima	17.3
76532	7	Sololá	717	San Juan la Laguna	12	San Juan la Laguna	9	Septiembre	2023-10-09T00:00:00	2024-11-08T00:00:00	5	Humedad	89
76533	7	Sololá	717	San Juan la Laguna	12	San Juan la Laguna	9	Septiembre	2023-10-09T00:00:00	2024-11-08T00:00:00	6	Velocidad del viento	0
76534	7	Sololá	717	San Juan la Laguna	12	San Juan la Laguna	9	Septiembre	2023-10-09T00:00:00	2024-11-08T00:00:00	7	Dirección del viento	0
76535	7	Sololá	717	San Juan la Laguna	12	San Juan la Laguna	9	Septiembre	2023-10-09T00:00:00	2024-11-08T00:00:00	1	Precipitación	0
76536	7	Sololá	717	San Juan la Laguna	12	San Juan la Laguna	9	Septiembre	2023-10-09T00:00:00	2024-11-08T00:00:00	8	Radiación solar	0
76537	7	Sololá	717	San Juan la Laguna	12	San Juan la Laguna	9	Septiembre	2023-10-09T00:00:00	2024-11-08T01:00:00	2	Temperatura media	17.4
76538	7	Sololá	717	San Juan la Laguna	12	San Juan la Laguna	9	Septiembre	2023-10-09T00:00:00	2024-11-08T01:00:00	4	Temperatura máxima	17.5
76539	7	Sololá	717	San Juan la Laguna	12	San Juan la Laguna	9	Septiembre	2023-10-09T00:00:00	2024-11-08T01:00:00	3	Temperatura mínima	17.2
76540	7	Sololá	717	San Juan la Laguna	12	San Juan la Laguna	9	Septiembre	2023-10-09T00:00:00	2024-11-08T01:00:00	5	Humedad	89
76541	7	Sololá	717	San Juan la Laguna	12	San Juan la Laguna	9	Septiembre	2023-10-09T00:00:00	2024-11-08T01:00:00	6	Velocidad del viento	0
76542	7	Sololá	717	San Juan la Laguna	12	San Juan la Laguna	9	Septiembre	2023-10-09T00:00:00	2024-11-08T01:00:00	7	Dirección del viento	0
76543	7	Sololá	717	San Juan la Laguna	12	San Juan la Laguna	9	Septiembre	2023-10-09T00:00:00	2024-11-08T01:00:00	1	Precipitación	0
76544	7	Sololá	717	San Juan la Laguna	12	San Juan la Laguna	9	Septiembre	2023-10-09T00:00:00	2024-11-08T01:00:00	8	Radiación solar	0
76545	7	Sololá	717	San Juan la Laguna	12	San Juan la Laguna	9	Septiembre	2023-10-09T00:00:00	2024-11-08T02:00:00	2	Temperatura media	17.2
76546	7	Sololá	717	San Juan la Laguna	12	San Juan la Laguna	9	Septiembre	2023-10-09T00:00:00	2024-11-08T02:00:00	4	Temperatura máxima	17.4
76547	7	Sololá	717	San Juan la Laguna	12	San Juan la Laguna	9	Septiembre	2023-10-09T00:00:00	2024-11-08T02:00:00	3	Temperatura mínima	17.1
76548	7	Sololá	717	San Juan la Laguna	12	San Juan la Laguna	9	Septiembre	2023-10-09T00:00:00	2024-11-08T02:00:00	5	Humedad	89
76549	7	Sololá	717	San Juan la Laguna	12	San Juan la Laguna	9	Septiembre	2023-10-09T00:00:00	2024-11-08T02:00:00	6	Velocidad del viento	0
76550	7	Sololá	717	San Juan la Laguna	12	San Juan la Laguna	9	Septiembre	2023-10-09T00:00:00	2024-11-08T02:00:00	7	Dirección del viento	0
76551	7	Sololá	717	San Juan la Laguna	12	San Juan la Laguna	9	Septiembre	2023-10-09T00:00:00	2024-11-08T02:00:00	1	Precipitación	0
76552	7	Sololá	717	San Juan la Laguna	12	San Juan la Laguna	9	Septiembre	2023-10-09T00:00:00	2024-11-08T02:00:00	8	Radiación solar	0
76553	7	Sololá	717	San Juan la Laguna	12	San Juan la Laguna	9	Septiembre	2023-10-09T00:00:00	2024-11-08T03:00:00	2	Temperatura media	17
76554	7	Sololá	717	San Juan la Laguna	12	San Juan la Laguna	9	Septiembre	2023-10-09T00:00:00	2024-11-08T03:00:00	4	Temperatura máxima	17.2
76555	7	Sololá	717	San Juan la Laguna	12	San Juan la Laguna	9	Septiembre	2023-10-09T00:00:00	2024-11-08T03:00:00	3	Temperatura mínima	16.9
76556	7	Sololá	717	San Juan la Laguna	12	San Juan la Laguna	9	Septiembre	2023-10-09T00:00:00	2024-11-08T03:00:00	5	Humedad	88
76557	7	Sololá	717	San Juan la Laguna	12	San Juan la Laguna	9	Septiembre	2023-10-09T00:00:00	2024-11-08T03:00:00	6	Velocidad del viento	0
76558	7	Sololá	717	San Juan la Laguna	12	San Juan la Laguna	9	Septiembre	2023-10-09T00:00:00	2024-11-08T03:00:00	7	Dirección del viento	0
76559	7	Sololá	717	San Juan la Laguna	12	San Juan la Laguna	9	Septiembre	2023-10-09T00:00:00	2024-11-08T03:00:00	1	Precipitación	0
76560	7	Sololá	717	San Juan la Laguna	12	San Juan la Laguna	9	Septiembre	2023-10-09T00:00:00	2024-11-08T03:00:00	8	Radiación solar	0
76561	7	Sololá	717	San Juan la Laguna	12	San Juan la Laguna	9	Septiembre	2023-10-09T00:00:00	2024-11-08T04:00:00	2	Temperatura media	16.7
76562	7	Sololá	717	San Juan la Laguna	12	San Juan la Laguna	9	Septiembre	2023-10-09T00:00:00	2024-11-08T04:00:00	4	Temperatura máxima	17.1
76563	7	Sololá	717	San Juan la Laguna	12	San Juan la Laguna	9	Septiembre	2023-10-09T00:00:00	2024-11-08T04:00:00	3	Temperatura mínima	16.6
76564	7	Sololá	717	San Juan la Laguna	12	San Juan la Laguna	9	Septiembre	2023-10-09T00:00:00	2024-11-08T04:00:00	5	Humedad	88
76565	7	Sololá	717	San Juan la Laguna	12	San Juan la Laguna	9	Septiembre	2023-10-09T00:00:00	2024-11-08T04:00:00	6	Velocidad del viento	1.6
76566	7	Sololá	717	San Juan la Laguna	12	San Juan la Laguna	9	Septiembre	2023-10-09T00:00:00	2024-11-08T04:00:00	7	Dirección del viento	1.61
76567	7	Sololá	717	San Juan la Laguna	12	San Juan la Laguna	9	Septiembre	2023-10-09T00:00:00	2024-11-08T04:00:00	1	Precipitación	0
76568	7	Sololá	717	San Juan la Laguna	12	San Juan la Laguna	9	Septiembre	2023-10-09T00:00:00	2024-11-08T04:00:00	8	Radiación solar	0
76569	7	Sololá	717	San Juan la Laguna	12	San Juan la Laguna	9	Septiembre	2023-10-09T00:00:00	2024-11-08T05:00:00	2	Temperatura media	16.3
76570	7	Sololá	717	San Juan la Laguna	12	San Juan la Laguna	9	Septiembre	2023-10-09T00:00:00	2024-11-08T05:00:00	4	Temperatura máxima	16.7
76571	7	Sololá	717	San Juan la Laguna	12	San Juan la Laguna	9	Septiembre	2023-10-09T00:00:00	2024-11-08T05:00:00	3	Temperatura mínima	16.3
76572	7	Sololá	717	San Juan la Laguna	12	San Juan la Laguna	9	Septiembre	2023-10-09T00:00:00	2024-11-08T05:00:00	5	Humedad	89
76573	7	Sololá	717	San Juan la Laguna	12	San Juan la Laguna	9	Septiembre	2023-10-09T00:00:00	2024-11-08T05:00:00	6	Velocidad del viento	1.6
76574	7	Sololá	717	San Juan la Laguna	12	San Juan la Laguna	9	Septiembre	2023-10-09T00:00:00	2024-11-08T05:00:00	7	Dirección del viento	1.61
76575	7	Sololá	717	San Juan la Laguna	12	San Juan la Laguna	9	Septiembre	2023-10-09T00:00:00	2024-11-08T05:00:00	1	Precipitación	0
76576	7	Sololá	717	San Juan la Laguna	12	San Juan la Laguna	9	Septiembre	2023-10-09T00:00:00	2024-11-08T05:00:00	8	Radiación solar	0
76577	7	Sololá	717	San Juan la Laguna	12	San Juan la Laguna	9	Septiembre	2023-10-09T00:00:00	2024-11-08T06:00:00	2	Temperatura media	16.2
76578	7	Sololá	717	San Juan la Laguna	12	San Juan la Laguna	9	Septiembre	2023-10-09T00:00:00	2024-11-08T06:00:00	4	Temperatura máxima	16.3
76579	7	Sololá	717	San Juan la Laguna	12	San Juan la Laguna	9	Septiembre	2023-10-09T00:00:00	2024-11-08T06:00:00	3	Temperatura mínima	16
76580	7	Sololá	717	San Juan la Laguna	12	San Juan la Laguna	9	Septiembre	2023-10-09T00:00:00	2024-11-08T06:00:00	5	Humedad	87
76581	7	Sololá	717	San Juan la Laguna	12	San Juan la Laguna	9	Septiembre	2023-10-09T00:00:00	2024-11-08T06:00:00	6	Velocidad del viento	3.2
76582	7	Sololá	717	San Juan la Laguna	12	San Juan la Laguna	9	Septiembre	2023-10-09T00:00:00	2024-11-08T06:00:00	7	Dirección del viento	3.22
76583	7	Sololá	717	San Juan la Laguna	12	San Juan la Laguna	9	Septiembre	2023-10-09T00:00:00	2024-11-08T06:00:00	1	Precipitación	0
76584	7	Sololá	717	San Juan la Laguna	12	San Juan la Laguna	9	Septiembre	2023-10-09T00:00:00	2024-11-08T06:00:00	8	Radiación solar	0
76585	7	Sololá	717	San Juan la Laguna	12	San Juan la Laguna	9	Septiembre	2023-10-09T00:00:00	2024-11-08T07:00:00	2	Temperatura media	16.8
76586	7	Sololá	717	San Juan la Laguna	12	San Juan la Laguna	9	Septiembre	2023-10-09T00:00:00	2024-11-08T07:00:00	4	Temperatura máxima	16.8
76587	7	Sololá	717	San Juan la Laguna	12	San Juan la Laguna	9	Septiembre	2023-10-09T00:00:00	2024-11-08T07:00:00	3	Temperatura mínima	16.2
76588	7	Sololá	717	San Juan la Laguna	12	San Juan la Laguna	9	Septiembre	2023-10-09T00:00:00	2024-11-08T07:00:00	5	Humedad	86
76589	7	Sololá	717	San Juan la Laguna	12	San Juan la Laguna	9	Septiembre	2023-10-09T00:00:00	2024-11-08T07:00:00	6	Velocidad del viento	3.2
76590	7	Sololá	717	San Juan la Laguna	12	San Juan la Laguna	9	Septiembre	2023-10-09T00:00:00	2024-11-08T07:00:00	7	Dirección del viento	3.22
76591	7	Sololá	717	San Juan la Laguna	12	San Juan la Laguna	9	Septiembre	2023-10-09T00:00:00	2024-11-08T07:00:00	1	Precipitación	0.2
76592	7	Sololá	717	San Juan la Laguna	12	San Juan la Laguna	9	Septiembre	2023-10-09T00:00:00	2024-11-08T07:00:00	8	Radiación solar	16
76593	7	Sololá	717	San Juan la Laguna	12	San Juan la Laguna	9	Septiembre	2023-10-09T00:00:00	2024-11-08T08:00:00	2	Temperatura media	18.4
76594	7	Sololá	717	San Juan la Laguna	12	San Juan la Laguna	9	Septiembre	2023-10-09T00:00:00	2024-11-08T08:00:00	4	Temperatura máxima	18.4
76595	7	Sololá	717	San Juan la Laguna	12	San Juan la Laguna	9	Septiembre	2023-10-09T00:00:00	2024-11-08T08:00:00	3	Temperatura mínima	16.6
76596	7	Sololá	717	San Juan la Laguna	12	San Juan la Laguna	9	Septiembre	2023-10-09T00:00:00	2024-11-08T08:00:00	5	Humedad	84
76597	7	Sololá	717	San Juan la Laguna	12	San Juan la Laguna	9	Septiembre	2023-10-09T00:00:00	2024-11-08T08:00:00	6	Velocidad del viento	0
76598	7	Sololá	717	San Juan la Laguna	12	San Juan la Laguna	9	Septiembre	2023-10-09T00:00:00	2024-11-08T08:00:00	7	Dirección del viento	0
76599	7	Sololá	717	San Juan la Laguna	12	San Juan la Laguna	9	Septiembre	2023-10-09T00:00:00	2024-11-08T08:00:00	1	Precipitación	0
76600	7	Sololá	717	San Juan la Laguna	12	San Juan la Laguna	9	Septiembre	2023-10-09T00:00:00	2024-11-08T08:00:00	8	Radiación solar	102
76601	7	Sololá	717	San Juan la Laguna	12	San Juan la Laguna	9	Septiembre	2023-10-09T00:00:00	2024-11-08T09:00:00	2	Temperatura media	20.4
76602	7	Sololá	717	San Juan la Laguna	12	San Juan la Laguna	9	Septiembre	2023-10-09T00:00:00	2024-11-08T09:00:00	4	Temperatura máxima	20.4
76603	7	Sololá	717	San Juan la Laguna	12	San Juan la Laguna	9	Septiembre	2023-10-09T00:00:00	2024-11-08T09:00:00	3	Temperatura mínima	18.4
76604	7	Sololá	717	San Juan la Laguna	12	San Juan la Laguna	9	Septiembre	2023-10-09T00:00:00	2024-11-08T09:00:00	5	Humedad	78
76605	7	Sololá	717	San Juan la Laguna	12	San Juan la Laguna	9	Septiembre	2023-10-09T00:00:00	2024-11-08T09:00:00	6	Velocidad del viento	0
76606	7	Sololá	717	San Juan la Laguna	12	San Juan la Laguna	9	Septiembre	2023-10-09T00:00:00	2024-11-08T09:00:00	7	Dirección del viento	0
76607	7	Sololá	717	San Juan la Laguna	12	San Juan la Laguna	9	Septiembre	2023-10-09T00:00:00	2024-11-08T09:00:00	1	Precipitación	0
76608	7	Sololá	717	San Juan la Laguna	12	San Juan la Laguna	9	Septiembre	2023-10-09T00:00:00	2024-11-08T09:00:00	8	Radiación solar	183
76609	7	Sololá	717	San Juan la Laguna	12	San Juan la Laguna	9	Septiembre	2023-10-09T00:00:00	2024-11-08T10:00:00	2	Temperatura media	21.1
76610	7	Sololá	717	San Juan la Laguna	12	San Juan la Laguna	9	Septiembre	2023-10-09T00:00:00	2024-11-08T10:00:00	4	Temperatura máxima	21.2
76611	7	Sololá	717	San Juan la Laguna	12	San Juan la Laguna	9	Septiembre	2023-10-09T00:00:00	2024-11-08T10:00:00	3	Temperatura mínima	20.4
76612	7	Sololá	717	San Juan la Laguna	12	San Juan la Laguna	9	Septiembre	2023-10-09T00:00:00	2024-11-08T10:00:00	5	Humedad	75
76613	7	Sololá	717	San Juan la Laguna	12	San Juan la Laguna	9	Septiembre	2023-10-09T00:00:00	2024-11-08T10:00:00	6	Velocidad del viento	0
76614	7	Sololá	717	San Juan la Laguna	12	San Juan la Laguna	9	Septiembre	2023-10-09T00:00:00	2024-11-08T10:00:00	7	Dirección del viento	0
76615	7	Sololá	717	San Juan la Laguna	12	San Juan la Laguna	9	Septiembre	2023-10-09T00:00:00	2024-11-08T10:00:00	1	Precipitación	0
76616	7	Sololá	717	San Juan la Laguna	12	San Juan la Laguna	9	Septiembre	2023-10-09T00:00:00	2024-11-08T10:00:00	8	Radiación solar	287
76617	7	Sololá	717	San Juan la Laguna	12	San Juan la Laguna	9	Septiembre	2023-10-09T00:00:00	2024-11-08T11:00:00	2	Temperatura media	23.7
76618	7	Sololá	717	San Juan la Laguna	12	San Juan la Laguna	9	Septiembre	2023-10-09T00:00:00	2024-11-08T11:00:00	4	Temperatura máxima	23.7
76619	7	Sololá	717	San Juan la Laguna	12	San Juan la Laguna	9	Septiembre	2023-10-09T00:00:00	2024-11-08T11:00:00	3	Temperatura mínima	21.2
76620	7	Sololá	717	San Juan la Laguna	12	San Juan la Laguna	9	Septiembre	2023-10-09T00:00:00	2024-11-08T11:00:00	5	Humedad	65
76621	7	Sololá	717	San Juan la Laguna	12	San Juan la Laguna	9	Septiembre	2023-10-09T00:00:00	2024-11-08T11:00:00	6	Velocidad del viento	1.6
76622	7	Sololá	717	San Juan la Laguna	12	San Juan la Laguna	9	Septiembre	2023-10-09T00:00:00	2024-11-08T11:00:00	7	Dirección del viento	1.61
76623	7	Sololá	717	San Juan la Laguna	12	San Juan la Laguna	9	Septiembre	2023-10-09T00:00:00	2024-11-08T11:00:00	1	Precipitación	0
76624	7	Sololá	717	San Juan la Laguna	12	San Juan la Laguna	9	Septiembre	2023-10-09T00:00:00	2024-11-08T11:00:00	8	Radiación solar	624
76625	7	Sololá	717	San Juan la Laguna	12	San Juan la Laguna	9	Septiembre	2023-10-09T00:00:00	2024-11-08T12:00:00	2	Temperatura media	24.7
76626	7	Sololá	717	San Juan la Laguna	12	San Juan la Laguna	9	Septiembre	2023-10-09T00:00:00	2024-11-08T12:00:00	4	Temperatura máxima	24.8
76627	7	Sololá	717	San Juan la Laguna	12	San Juan la Laguna	9	Septiembre	2023-10-09T00:00:00	2024-11-08T12:00:00	3	Temperatura mínima	23.7
76628	7	Sololá	717	San Juan la Laguna	12	San Juan la Laguna	9	Septiembre	2023-10-09T00:00:00	2024-11-08T12:00:00	5	Humedad	55
76629	7	Sololá	717	San Juan la Laguna	12	San Juan la Laguna	9	Septiembre	2023-10-09T00:00:00	2024-11-08T12:00:00	6	Velocidad del viento	0
76630	7	Sololá	717	San Juan la Laguna	12	San Juan la Laguna	9	Septiembre	2023-10-09T00:00:00	2024-11-08T12:00:00	7	Dirección del viento	0
76631	7	Sololá	717	San Juan la Laguna	12	San Juan la Laguna	9	Septiembre	2023-10-09T00:00:00	2024-11-08T12:00:00	1	Precipitación	0
76632	7	Sololá	717	San Juan la Laguna	12	San Juan la Laguna	9	Septiembre	2023-10-09T00:00:00	2024-11-08T12:00:00	8	Radiación solar	933
76633	7	Sololá	717	San Juan la Laguna	12	San Juan la Laguna	9	Septiembre	2023-10-09T00:00:00	2024-11-08T13:00:00	2	Temperatura media	24.6
76634	7	Sololá	717	San Juan la Laguna	12	San Juan la Laguna	9	Septiembre	2023-10-09T00:00:00	2024-11-08T13:00:00	4	Temperatura máxima	25.3
76635	7	Sololá	717	San Juan la Laguna	12	San Juan la Laguna	9	Septiembre	2023-10-09T00:00:00	2024-11-08T13:00:00	3	Temperatura mínima	24.2
76636	7	Sololá	717	San Juan la Laguna	12	San Juan la Laguna	9	Septiembre	2023-10-09T00:00:00	2024-11-08T13:00:00	5	Humedad	64
76637	7	Sololá	717	San Juan la Laguna	12	San Juan la Laguna	9	Septiembre	2023-10-09T00:00:00	2024-11-08T13:00:00	6	Velocidad del viento	0
76638	7	Sololá	717	San Juan la Laguna	12	San Juan la Laguna	9	Septiembre	2023-10-09T00:00:00	2024-11-08T13:00:00	7	Dirección del viento	0
76639	7	Sololá	717	San Juan la Laguna	12	San Juan la Laguna	9	Septiembre	2023-10-09T00:00:00	2024-11-08T13:00:00	1	Precipitación	0
76640	7	Sololá	717	San Juan la Laguna	12	San Juan la Laguna	9	Septiembre	2023-10-09T00:00:00	2024-11-08T13:00:00	8	Radiación solar	845
76641	7	Sololá	717	San Juan la Laguna	12	San Juan la Laguna	9	Septiembre	2023-10-09T00:00:00	2024-11-08T14:00:00	2	Temperatura media	24.1
76642	7	Sololá	717	San Juan la Laguna	12	San Juan la Laguna	9	Septiembre	2023-10-09T00:00:00	2024-11-08T14:00:00	4	Temperatura máxima	24.9
76643	7	Sololá	717	San Juan la Laguna	12	San Juan la Laguna	9	Septiembre	2023-10-09T00:00:00	2024-11-08T14:00:00	3	Temperatura mínima	23.6
76644	7	Sololá	717	San Juan la Laguna	12	San Juan la Laguna	9	Septiembre	2023-10-09T00:00:00	2024-11-08T14:00:00	5	Humedad	70
76645	7	Sololá	717	San Juan la Laguna	12	San Juan la Laguna	9	Septiembre	2023-10-09T00:00:00	2024-11-08T14:00:00	6	Velocidad del viento	1.6
76646	7	Sololá	717	San Juan la Laguna	12	San Juan la Laguna	9	Septiembre	2023-10-09T00:00:00	2024-11-08T14:00:00	7	Dirección del viento	1.61
76647	7	Sololá	717	San Juan la Laguna	12	San Juan la Laguna	9	Septiembre	2023-10-09T00:00:00	2024-11-08T14:00:00	1	Precipitación	0
76648	7	Sololá	717	San Juan la Laguna	12	San Juan la Laguna	9	Septiembre	2023-10-09T00:00:00	2024-11-08T14:00:00	8	Radiación solar	907
76649	7	Sololá	717	San Juan la Laguna	12	San Juan la Laguna	9	Septiembre	2023-10-09T00:00:00	2024-11-08T15:00:00	2	Temperatura media	23.7
76650	7	Sololá	717	San Juan la Laguna	12	San Juan la Laguna	9	Septiembre	2023-10-09T00:00:00	2024-11-08T15:00:00	4	Temperatura máxima	24.2
76651	7	Sololá	717	San Juan la Laguna	12	San Juan la Laguna	9	Septiembre	2023-10-09T00:00:00	2024-11-08T15:00:00	3	Temperatura mínima	23.6
76652	7	Sololá	717	San Juan la Laguna	12	San Juan la Laguna	9	Septiembre	2023-10-09T00:00:00	2024-11-08T15:00:00	5	Humedad	72
76653	7	Sololá	717	San Juan la Laguna	12	San Juan la Laguna	9	Septiembre	2023-10-09T00:00:00	2024-11-08T15:00:00	6	Velocidad del viento	0
76654	7	Sololá	717	San Juan la Laguna	12	San Juan la Laguna	9	Septiembre	2023-10-09T00:00:00	2024-11-08T15:00:00	7	Dirección del viento	0
76655	7	Sololá	717	San Juan la Laguna	12	San Juan la Laguna	9	Septiembre	2023-10-09T00:00:00	2024-11-08T15:00:00	1	Precipitación	0
76656	7	Sololá	717	San Juan la Laguna	12	San Juan la Laguna	9	Septiembre	2023-10-09T00:00:00	2024-11-08T15:00:00	8	Radiación solar	680
76657	7	Sololá	717	San Juan la Laguna	12	San Juan la Laguna	9	Septiembre	2023-10-09T00:00:00	2024-11-08T16:00:00	2	Temperatura media	22.5
76658	7	Sololá	717	San Juan la Laguna	12	San Juan la Laguna	9	Septiembre	2023-10-09T00:00:00	2024-11-08T16:00:00	4	Temperatura máxima	23.7
76659	7	Sololá	717	San Juan la Laguna	12	San Juan la Laguna	9	Septiembre	2023-10-09T00:00:00	2024-11-08T16:00:00	3	Temperatura mínima	22.3
76660	7	Sololá	717	San Juan la Laguna	12	San Juan la Laguna	9	Septiembre	2023-10-09T00:00:00	2024-11-08T16:00:00	5	Humedad	77
76661	7	Sololá	717	San Juan la Laguna	12	San Juan la Laguna	9	Septiembre	2023-10-09T00:00:00	2024-11-08T16:00:00	6	Velocidad del viento	0
76662	7	Sololá	717	San Juan la Laguna	12	San Juan la Laguna	9	Septiembre	2023-10-09T00:00:00	2024-11-08T16:00:00	7	Dirección del viento	0
76663	7	Sololá	717	San Juan la Laguna	12	San Juan la Laguna	9	Septiembre	2023-10-09T00:00:00	2024-11-08T16:00:00	1	Precipitación	0
76664	7	Sololá	717	San Juan la Laguna	12	San Juan la Laguna	9	Septiembre	2023-10-09T00:00:00	2024-11-08T16:00:00	8	Radiación solar	305
76665	7	Sololá	717	San Juan la Laguna	12	San Juan la Laguna	9	Septiembre	2023-10-09T00:00:00	2024-11-08T17:00:00	2	Temperatura media	21
76666	7	Sololá	717	San Juan la Laguna	12	San Juan la Laguna	9	Septiembre	2023-10-09T00:00:00	2024-11-08T17:00:00	4	Temperatura máxima	22.5
76667	7	Sololá	717	San Juan la Laguna	12	San Juan la Laguna	9	Septiembre	2023-10-09T00:00:00	2024-11-08T17:00:00	3	Temperatura mínima	20.9
76668	7	Sololá	717	San Juan la Laguna	12	San Juan la Laguna	9	Septiembre	2023-10-09T00:00:00	2024-11-08T17:00:00	5	Humedad	82
76669	7	Sololá	717	San Juan la Laguna	12	San Juan la Laguna	9	Septiembre	2023-10-09T00:00:00	2024-11-08T17:00:00	6	Velocidad del viento	3.2
76670	7	Sololá	717	San Juan la Laguna	12	San Juan la Laguna	9	Septiembre	2023-10-09T00:00:00	2024-11-08T17:00:00	7	Dirección del viento	3.22
76671	7	Sololá	717	San Juan la Laguna	12	San Juan la Laguna	9	Septiembre	2023-10-09T00:00:00	2024-11-08T17:00:00	1	Precipitación	0
76672	7	Sololá	717	San Juan la Laguna	12	San Juan la Laguna	9	Septiembre	2023-10-09T00:00:00	2024-11-08T17:00:00	8	Radiación solar	104
76673	7	Sololá	717	San Juan la Laguna	12	San Juan la Laguna	9	Septiembre	2023-10-09T00:00:00	2024-11-08T18:00:00	2	Temperatura media	20.2
76674	7	Sololá	717	San Juan la Laguna	12	San Juan la Laguna	9	Septiembre	2023-10-09T00:00:00	2024-11-08T18:00:00	4	Temperatura máxima	21.2
76675	7	Sololá	717	San Juan la Laguna	12	San Juan la Laguna	9	Septiembre	2023-10-09T00:00:00	2024-11-08T18:00:00	3	Temperatura mínima	20.2
76676	7	Sololá	717	San Juan la Laguna	12	San Juan la Laguna	9	Septiembre	2023-10-09T00:00:00	2024-11-08T18:00:00	5	Humedad	84
76677	7	Sololá	717	San Juan la Laguna	12	San Juan la Laguna	9	Septiembre	2023-10-09T00:00:00	2024-11-08T18:00:00	6	Velocidad del viento	3.2
76678	7	Sololá	717	San Juan la Laguna	12	San Juan la Laguna	9	Septiembre	2023-10-09T00:00:00	2024-11-08T18:00:00	7	Dirección del viento	3.22
76679	7	Sololá	717	San Juan la Laguna	12	San Juan la Laguna	9	Septiembre	2023-10-09T00:00:00	2024-11-08T18:00:00	1	Precipitación	0
76680	7	Sololá	717	San Juan la Laguna	12	San Juan la Laguna	9	Septiembre	2023-10-09T00:00:00	2024-11-08T18:00:00	8	Radiación solar	33
76681	7	Sololá	717	San Juan la Laguna	12	San Juan la Laguna	9	Septiembre	2023-10-09T00:00:00	2024-11-08T19:00:00	2	Temperatura media	19.7
76682	7	Sololá	717	San Juan la Laguna	12	San Juan la Laguna	9	Septiembre	2023-10-09T00:00:00	2024-11-08T19:00:00	4	Temperatura máxima	20.2
76683	7	Sololá	717	San Juan la Laguna	12	San Juan la Laguna	9	Septiembre	2023-10-09T00:00:00	2024-11-08T19:00:00	3	Temperatura mínima	19.7
76684	7	Sololá	717	San Juan la Laguna	12	San Juan la Laguna	9	Septiembre	2023-10-09T00:00:00	2024-11-08T19:00:00	5	Humedad	85
76685	7	Sololá	717	San Juan la Laguna	12	San Juan la Laguna	9	Septiembre	2023-10-09T00:00:00	2024-11-08T19:00:00	6	Velocidad del viento	4.8
76686	7	Sololá	717	San Juan la Laguna	12	San Juan la Laguna	9	Septiembre	2023-10-09T00:00:00	2024-11-08T19:00:00	7	Dirección del viento	4.83
76687	7	Sololá	717	San Juan la Laguna	12	San Juan la Laguna	9	Septiembre	2023-10-09T00:00:00	2024-11-08T19:00:00	1	Precipitación	0
76688	7	Sololá	717	San Juan la Laguna	12	San Juan la Laguna	9	Septiembre	2023-10-09T00:00:00	2024-11-08T19:00:00	8	Radiación solar	0
76689	7	Sololá	717	San Juan la Laguna	12	San Juan la Laguna	9	Septiembre	2023-10-09T00:00:00	2024-11-08T20:00:00	2	Temperatura media	19.8
76690	7	Sololá	717	San Juan la Laguna	12	San Juan la Laguna	9	Septiembre	2023-10-09T00:00:00	2024-11-08T20:00:00	4	Temperatura máxima	19.9
76691	7	Sololá	717	San Juan la Laguna	12	San Juan la Laguna	9	Septiembre	2023-10-09T00:00:00	2024-11-08T20:00:00	3	Temperatura mínima	19.7
76692	7	Sololá	717	San Juan la Laguna	12	San Juan la Laguna	9	Septiembre	2023-10-09T00:00:00	2024-11-08T20:00:00	5	Humedad	85
76693	7	Sololá	717	San Juan la Laguna	12	San Juan la Laguna	9	Septiembre	2023-10-09T00:00:00	2024-11-08T20:00:00	6	Velocidad del viento	0
76694	7	Sololá	717	San Juan la Laguna	12	San Juan la Laguna	9	Septiembre	2023-10-09T00:00:00	2024-11-08T20:00:00	7	Dirección del viento	0
76695	7	Sololá	717	San Juan la Laguna	12	San Juan la Laguna	9	Septiembre	2023-10-09T00:00:00	2024-11-08T20:00:00	1	Precipitación	0
76696	7	Sololá	717	San Juan la Laguna	12	San Juan la Laguna	9	Septiembre	2023-10-09T00:00:00	2024-11-08T20:00:00	8	Radiación solar	0
76697	7	Sololá	717	San Juan la Laguna	12	San Juan la Laguna	9	Septiembre	2023-10-09T00:00:00	2024-11-08T21:00:00	2	Temperatura media	19.1
76698	7	Sololá	717	San Juan la Laguna	12	San Juan la Laguna	9	Septiembre	2023-10-09T00:00:00	2024-11-08T21:00:00	4	Temperatura máxima	19.8
76699	7	Sololá	717	San Juan la Laguna	12	San Juan la Laguna	9	Septiembre	2023-10-09T00:00:00	2024-11-08T21:00:00	3	Temperatura mínima	19
76700	7	Sololá	717	San Juan la Laguna	12	San Juan la Laguna	9	Septiembre	2023-10-09T00:00:00	2024-11-08T21:00:00	5	Humedad	89
76701	7	Sololá	717	San Juan la Laguna	12	San Juan la Laguna	9	Septiembre	2023-10-09T00:00:00	2024-11-08T21:00:00	6	Velocidad del viento	0
76702	7	Sololá	717	San Juan la Laguna	12	San Juan la Laguna	9	Septiembre	2023-10-09T00:00:00	2024-11-08T21:00:00	7	Dirección del viento	0
76703	7	Sololá	717	San Juan la Laguna	12	San Juan la Laguna	9	Septiembre	2023-10-09T00:00:00	2024-11-08T21:00:00	1	Precipitación	0
76704	7	Sololá	717	San Juan la Laguna	12	San Juan la Laguna	9	Septiembre	2023-10-09T00:00:00	2024-11-08T21:00:00	8	Radiación solar	0
76705	7	Sololá	717	San Juan la Laguna	12	San Juan la Laguna	9	Septiembre	2023-10-09T00:00:00	2024-11-08T22:00:00	2	Temperatura media	18.6
76706	7	Sololá	717	San Juan la Laguna	12	San Juan la Laguna	9	Septiembre	2023-10-09T00:00:00	2024-11-08T22:00:00	4	Temperatura máxima	19.1
76707	7	Sololá	717	San Juan la Laguna	12	San Juan la Laguna	9	Septiembre	2023-10-09T00:00:00	2024-11-08T22:00:00	3	Temperatura mínima	18.6
76708	7	Sololá	717	San Juan la Laguna	12	San Juan la Laguna	9	Septiembre	2023-10-09T00:00:00	2024-11-08T22:00:00	5	Humedad	89
76709	7	Sololá	717	San Juan la Laguna	12	San Juan la Laguna	9	Septiembre	2023-10-09T00:00:00	2024-11-08T22:00:00	6	Velocidad del viento	0
76710	7	Sololá	717	San Juan la Laguna	12	San Juan la Laguna	9	Septiembre	2023-10-09T00:00:00	2024-11-08T22:00:00	7	Dirección del viento	0
76711	7	Sololá	717	San Juan la Laguna	12	San Juan la Laguna	9	Septiembre	2023-10-09T00:00:00	2024-11-08T22:00:00	1	Precipitación	0
76712	7	Sololá	717	San Juan la Laguna	12	San Juan la Laguna	9	Septiembre	2023-10-09T00:00:00	2024-11-08T22:00:00	8	Radiación solar	0
76713	7	Sololá	717	San Juan la Laguna	12	San Juan la Laguna	9	Septiembre	2023-10-09T00:00:00	2024-11-08T23:00:00	2	Temperatura media	18.8
76714	7	Sololá	717	San Juan la Laguna	12	San Juan la Laguna	9	Septiembre	2023-10-09T00:00:00	2024-11-08T23:00:00	4	Temperatura máxima	18.8
76715	7	Sololá	717	San Juan la Laguna	12	San Juan la Laguna	9	Septiembre	2023-10-09T00:00:00	2024-11-08T23:00:00	3	Temperatura mínima	18.6
76716	7	Sololá	717	San Juan la Laguna	12	San Juan la Laguna	9	Septiembre	2023-10-09T00:00:00	2024-11-08T23:00:00	5	Humedad	89
76717	7	Sololá	717	San Juan la Laguna	12	San Juan la Laguna	9	Septiembre	2023-10-09T00:00:00	2024-11-08T23:00:00	6	Velocidad del viento	0
76718	7	Sololá	717	San Juan la Laguna	12	San Juan la Laguna	9	Septiembre	2023-10-09T00:00:00	2024-11-08T23:00:00	7	Dirección del viento	0
76719	7	Sololá	717	San Juan la Laguna	12	San Juan la Laguna	9	Septiembre	2023-10-09T00:00:00	2024-11-08T23:00:00	1	Precipitación	0
76720	7	Sololá	717	San Juan la Laguna	12	San Juan la Laguna	9	Septiembre	2023-10-09T00:00:00	2024-11-08T23:00:00	8	Radiación solar	0
76721	7	Sololá	717	San Juan la Laguna	12	San Juan la Laguna	9	Septiembre	2023-11-09T00:00:00	2024-11-08T00:00:00	2	Temperatura media	18.4
76722	7	Sololá	717	San Juan la Laguna	12	San Juan la Laguna	9	Septiembre	2023-11-09T00:00:00	2024-11-08T00:00:00	4	Temperatura máxima	18.9
76723	7	Sololá	717	San Juan la Laguna	12	San Juan la Laguna	9	Septiembre	2023-11-09T00:00:00	2024-11-08T00:00:00	3	Temperatura mínima	18.3
76724	7	Sololá	717	San Juan la Laguna	12	San Juan la Laguna	9	Septiembre	2023-11-09T00:00:00	2024-11-08T00:00:00	5	Humedad	89
76725	7	Sololá	717	San Juan la Laguna	12	San Juan la Laguna	9	Septiembre	2023-11-09T00:00:00	2024-11-08T00:00:00	6	Velocidad del viento	0
76726	7	Sololá	717	San Juan la Laguna	12	San Juan la Laguna	9	Septiembre	2023-11-09T00:00:00	2024-11-08T00:00:00	7	Dirección del viento	0
76727	7	Sololá	717	San Juan la Laguna	12	San Juan la Laguna	9	Septiembre	2023-11-09T00:00:00	2024-11-08T00:00:00	1	Precipitación	0
76728	7	Sololá	717	San Juan la Laguna	12	San Juan la Laguna	9	Septiembre	2023-11-09T00:00:00	2024-11-08T00:00:00	8	Radiación solar	0
76729	7	Sololá	717	San Juan la Laguna	12	San Juan la Laguna	9	Septiembre	2023-11-09T00:00:00	2024-11-08T01:00:00	2	Temperatura media	17.8
76730	7	Sololá	717	San Juan la Laguna	12	San Juan la Laguna	9	Septiembre	2023-11-09T00:00:00	2024-11-08T01:00:00	4	Temperatura máxima	18.4
76731	7	Sololá	717	San Juan la Laguna	12	San Juan la Laguna	9	Septiembre	2023-11-09T00:00:00	2024-11-08T01:00:00	3	Temperatura mínima	17.8
76732	7	Sololá	717	San Juan la Laguna	12	San Juan la Laguna	9	Septiembre	2023-11-09T00:00:00	2024-11-08T01:00:00	5	Humedad	89
76733	7	Sololá	717	San Juan la Laguna	12	San Juan la Laguna	9	Septiembre	2023-11-09T00:00:00	2024-11-08T01:00:00	6	Velocidad del viento	0
76734	7	Sololá	717	San Juan la Laguna	12	San Juan la Laguna	9	Septiembre	2023-11-09T00:00:00	2024-11-08T01:00:00	7	Dirección del viento	0
76735	7	Sololá	717	San Juan la Laguna	12	San Juan la Laguna	9	Septiembre	2023-11-09T00:00:00	2024-11-08T01:00:00	1	Precipitación	0
76736	7	Sololá	717	San Juan la Laguna	12	San Juan la Laguna	9	Septiembre	2023-11-09T00:00:00	2024-11-08T01:00:00	8	Radiación solar	0
76737	7	Sololá	717	San Juan la Laguna	12	San Juan la Laguna	9	Septiembre	2023-11-09T00:00:00	2024-11-08T02:00:00	2	Temperatura media	16.9
76738	7	Sololá	717	San Juan la Laguna	12	San Juan la Laguna	9	Septiembre	2023-11-09T00:00:00	2024-11-08T02:00:00	4	Temperatura máxima	17.8
76739	7	Sololá	717	San Juan la Laguna	12	San Juan la Laguna	9	Septiembre	2023-11-09T00:00:00	2024-11-08T02:00:00	3	Temperatura mínima	16.9
76740	7	Sololá	717	San Juan la Laguna	12	San Juan la Laguna	9	Septiembre	2023-11-09T00:00:00	2024-11-08T02:00:00	5	Humedad	89
76741	7	Sololá	717	San Juan la Laguna	12	San Juan la Laguna	9	Septiembre	2023-11-09T00:00:00	2024-11-08T02:00:00	6	Velocidad del viento	0
76742	7	Sololá	717	San Juan la Laguna	12	San Juan la Laguna	9	Septiembre	2023-11-09T00:00:00	2024-11-08T02:00:00	7	Dirección del viento	0
76743	7	Sololá	717	San Juan la Laguna	12	San Juan la Laguna	9	Septiembre	2023-11-09T00:00:00	2024-11-08T02:00:00	1	Precipitación	0
76744	7	Sololá	717	San Juan la Laguna	12	San Juan la Laguna	9	Septiembre	2023-11-09T00:00:00	2024-11-08T02:00:00	8	Radiación solar	0
76745	7	Sololá	717	San Juan la Laguna	12	San Juan la Laguna	9	Septiembre	2023-11-09T00:00:00	2024-11-08T03:00:00	2	Temperatura media	16.4
76746	7	Sololá	717	San Juan la Laguna	12	San Juan la Laguna	9	Septiembre	2023-11-09T00:00:00	2024-11-08T03:00:00	4	Temperatura máxima	16.9
76747	7	Sololá	717	San Juan la Laguna	12	San Juan la Laguna	9	Septiembre	2023-11-09T00:00:00	2024-11-08T03:00:00	3	Temperatura mínima	16.4
76748	7	Sololá	717	San Juan la Laguna	12	San Juan la Laguna	9	Septiembre	2023-11-09T00:00:00	2024-11-08T03:00:00	5	Humedad	89
76749	7	Sololá	717	San Juan la Laguna	12	San Juan la Laguna	9	Septiembre	2023-11-09T00:00:00	2024-11-08T03:00:00	6	Velocidad del viento	0
76750	7	Sololá	717	San Juan la Laguna	12	San Juan la Laguna	9	Septiembre	2023-11-09T00:00:00	2024-11-08T03:00:00	7	Dirección del viento	0
76751	7	Sololá	717	San Juan la Laguna	12	San Juan la Laguna	9	Septiembre	2023-11-09T00:00:00	2024-11-08T03:00:00	1	Precipitación	0
76752	7	Sololá	717	San Juan la Laguna	12	San Juan la Laguna	9	Septiembre	2023-11-09T00:00:00	2024-11-08T03:00:00	8	Radiación solar	0
76753	7	Sololá	717	San Juan la Laguna	12	San Juan la Laguna	9	Septiembre	2023-11-09T00:00:00	2024-11-08T04:00:00	2	Temperatura media	16.3
76754	7	Sololá	717	San Juan la Laguna	12	San Juan la Laguna	9	Septiembre	2023-11-09T00:00:00	2024-11-08T04:00:00	4	Temperatura máxima	16.7
76755	7	Sololá	717	San Juan la Laguna	12	San Juan la Laguna	9	Septiembre	2023-11-09T00:00:00	2024-11-08T04:00:00	3	Temperatura mínima	16.2
76756	7	Sololá	717	San Juan la Laguna	12	San Juan la Laguna	9	Septiembre	2023-11-09T00:00:00	2024-11-08T04:00:00	5	Humedad	88
76757	7	Sololá	717	San Juan la Laguna	12	San Juan la Laguna	9	Septiembre	2023-11-09T00:00:00	2024-11-08T04:00:00	6	Velocidad del viento	0
76758	7	Sololá	717	San Juan la Laguna	12	San Juan la Laguna	9	Septiembre	2023-11-09T00:00:00	2024-11-08T04:00:00	7	Dirección del viento	0
76759	7	Sololá	717	San Juan la Laguna	12	San Juan la Laguna	9	Septiembre	2023-11-09T00:00:00	2024-11-08T04:00:00	1	Precipitación	0
76760	7	Sololá	717	San Juan la Laguna	12	San Juan la Laguna	9	Septiembre	2023-11-09T00:00:00	2024-11-08T04:00:00	8	Radiación solar	0
76761	7	Sololá	717	San Juan la Laguna	12	San Juan la Laguna	9	Septiembre	2023-11-09T00:00:00	2024-11-08T05:00:00	2	Temperatura media	16.2
76762	7	Sololá	717	San Juan la Laguna	12	San Juan la Laguna	9	Septiembre	2023-11-09T00:00:00	2024-11-08T05:00:00	4	Temperatura máxima	16.5
76763	7	Sololá	717	San Juan la Laguna	12	San Juan la Laguna	9	Septiembre	2023-11-09T00:00:00	2024-11-08T05:00:00	3	Temperatura mínima	16.2
76764	7	Sololá	717	San Juan la Laguna	12	San Juan la Laguna	9	Septiembre	2023-11-09T00:00:00	2024-11-08T05:00:00	5	Humedad	87
76765	7	Sololá	717	San Juan la Laguna	12	San Juan la Laguna	9	Septiembre	2023-11-09T00:00:00	2024-11-08T05:00:00	6	Velocidad del viento	0
76766	7	Sololá	717	San Juan la Laguna	12	San Juan la Laguna	9	Septiembre	2023-11-09T00:00:00	2024-11-08T05:00:00	7	Dirección del viento	0
76767	7	Sololá	717	San Juan la Laguna	12	San Juan la Laguna	9	Septiembre	2023-11-09T00:00:00	2024-11-08T05:00:00	1	Precipitación	0
76768	7	Sololá	717	San Juan la Laguna	12	San Juan la Laguna	9	Septiembre	2023-11-09T00:00:00	2024-11-08T05:00:00	8	Radiación solar	0
76769	7	Sololá	717	San Juan la Laguna	12	San Juan la Laguna	9	Septiembre	2023-11-09T00:00:00	2024-11-08T06:00:00	2	Temperatura media	15.8
76770	7	Sololá	717	San Juan la Laguna	12	San Juan la Laguna	9	Septiembre	2023-11-09T00:00:00	2024-11-08T06:00:00	4	Temperatura máxima	16.2
76771	7	Sololá	717	San Juan la Laguna	12	San Juan la Laguna	9	Septiembre	2023-11-09T00:00:00	2024-11-08T06:00:00	3	Temperatura mínima	15.6
76772	7	Sololá	717	San Juan la Laguna	12	San Juan la Laguna	9	Septiembre	2023-11-09T00:00:00	2024-11-08T06:00:00	5	Humedad	89
76773	7	Sololá	717	San Juan la Laguna	12	San Juan la Laguna	9	Septiembre	2023-11-09T00:00:00	2024-11-08T06:00:00	6	Velocidad del viento	0
76774	7	Sololá	717	San Juan la Laguna	12	San Juan la Laguna	9	Septiembre	2023-11-09T00:00:00	2024-11-08T06:00:00	7	Dirección del viento	0
76775	7	Sololá	717	San Juan la Laguna	12	San Juan la Laguna	9	Septiembre	2023-11-09T00:00:00	2024-11-08T06:00:00	1	Precipitación	0
76776	7	Sololá	717	San Juan la Laguna	12	San Juan la Laguna	9	Septiembre	2023-11-09T00:00:00	2024-11-08T06:00:00	8	Radiación solar	0
76777	7	Sololá	717	San Juan la Laguna	12	San Juan la Laguna	9	Septiembre	2023-11-09T00:00:00	2024-11-08T07:00:00	2	Temperatura media	17.4
76778	7	Sololá	717	San Juan la Laguna	12	San Juan la Laguna	9	Septiembre	2023-11-09T00:00:00	2024-11-08T07:00:00	4	Temperatura máxima	17.4
76779	7	Sololá	717	San Juan la Laguna	12	San Juan la Laguna	9	Septiembre	2023-11-09T00:00:00	2024-11-08T07:00:00	3	Temperatura mínima	15.8
76780	7	Sololá	717	San Juan la Laguna	12	San Juan la Laguna	9	Septiembre	2023-11-09T00:00:00	2024-11-08T07:00:00	5	Humedad	84
76781	7	Sololá	717	San Juan la Laguna	12	San Juan la Laguna	9	Septiembre	2023-11-09T00:00:00	2024-11-08T07:00:00	6	Velocidad del viento	0
76782	7	Sololá	717	San Juan la Laguna	12	San Juan la Laguna	9	Septiembre	2023-11-09T00:00:00	2024-11-08T07:00:00	7	Dirección del viento	0
76783	7	Sololá	717	San Juan la Laguna	12	San Juan la Laguna	9	Septiembre	2023-11-09T00:00:00	2024-11-08T07:00:00	1	Precipitación	0
76784	7	Sololá	717	San Juan la Laguna	12	San Juan la Laguna	9	Septiembre	2023-11-09T00:00:00	2024-11-08T07:00:00	8	Radiación solar	56
76785	7	Sololá	717	San Juan la Laguna	12	San Juan la Laguna	9	Septiembre	2023-11-09T00:00:00	2024-11-08T08:00:00	2	Temperatura media	20.2
76786	7	Sololá	717	San Juan la Laguna	12	San Juan la Laguna	9	Septiembre	2023-11-09T00:00:00	2024-11-08T08:00:00	4	Temperatura máxima	20.2
76787	7	Sololá	717	San Juan la Laguna	12	San Juan la Laguna	9	Septiembre	2023-11-09T00:00:00	2024-11-08T08:00:00	3	Temperatura mínima	17.4
76788	7	Sololá	717	San Juan la Laguna	12	San Juan la Laguna	9	Septiembre	2023-11-09T00:00:00	2024-11-08T08:00:00	5	Humedad	78
76789	7	Sololá	717	San Juan la Laguna	12	San Juan la Laguna	9	Septiembre	2023-11-09T00:00:00	2024-11-08T08:00:00	6	Velocidad del viento	0
76790	7	Sololá	717	San Juan la Laguna	12	San Juan la Laguna	9	Septiembre	2023-11-09T00:00:00	2024-11-08T08:00:00	7	Dirección del viento	0
76791	7	Sololá	717	San Juan la Laguna	12	San Juan la Laguna	9	Septiembre	2023-11-09T00:00:00	2024-11-08T08:00:00	1	Precipitación	0
76792	7	Sololá	717	San Juan la Laguna	12	San Juan la Laguna	9	Septiembre	2023-11-09T00:00:00	2024-11-08T08:00:00	8	Radiación solar	161
76793	7	Sololá	717	San Juan la Laguna	12	San Juan la Laguna	9	Septiembre	2023-11-09T00:00:00	2024-11-08T09:00:00	2	Temperatura media	22.4
76794	7	Sololá	717	San Juan la Laguna	12	San Juan la Laguna	9	Septiembre	2023-11-09T00:00:00	2024-11-08T09:00:00	4	Temperatura máxima	22.4
76795	7	Sololá	717	San Juan la Laguna	12	San Juan la Laguna	9	Septiembre	2023-11-09T00:00:00	2024-11-08T09:00:00	3	Temperatura mínima	20.2
76796	7	Sololá	717	San Juan la Laguna	12	San Juan la Laguna	9	Septiembre	2023-11-09T00:00:00	2024-11-08T09:00:00	5	Humedad	69
76797	7	Sololá	717	San Juan la Laguna	12	San Juan la Laguna	9	Septiembre	2023-11-09T00:00:00	2024-11-08T09:00:00	6	Velocidad del viento	3.2
76798	7	Sololá	717	San Juan la Laguna	12	San Juan la Laguna	9	Septiembre	2023-11-09T00:00:00	2024-11-08T09:00:00	7	Dirección del viento	3.22
76799	7	Sololá	717	San Juan la Laguna	12	San Juan la Laguna	9	Septiembre	2023-11-09T00:00:00	2024-11-08T09:00:00	1	Precipitación	0
76800	7	Sololá	717	San Juan la Laguna	12	San Juan la Laguna	9	Septiembre	2023-11-09T00:00:00	2024-11-08T09:00:00	8	Radiación solar	514
76801	7	Sololá	717	San Juan la Laguna	12	San Juan la Laguna	9	Septiembre	2023-11-09T00:00:00	2024-11-08T10:00:00	2	Temperatura media	23.9
76802	7	Sololá	717	San Juan la Laguna	12	San Juan la Laguna	9	Septiembre	2023-11-09T00:00:00	2024-11-08T10:00:00	4	Temperatura máxima	24.1
76803	7	Sololá	717	San Juan la Laguna	12	San Juan la Laguna	9	Septiembre	2023-11-09T00:00:00	2024-11-08T10:00:00	3	Temperatura mínima	22.4
76804	7	Sololá	717	San Juan la Laguna	12	San Juan la Laguna	9	Septiembre	2023-11-09T00:00:00	2024-11-08T10:00:00	5	Humedad	60
76805	7	Sololá	717	San Juan la Laguna	12	San Juan la Laguna	9	Septiembre	2023-11-09T00:00:00	2024-11-08T10:00:00	6	Velocidad del viento	0
76806	7	Sololá	717	San Juan la Laguna	12	San Juan la Laguna	9	Septiembre	2023-11-09T00:00:00	2024-11-08T10:00:00	7	Dirección del viento	0
76807	7	Sololá	717	San Juan la Laguna	12	San Juan la Laguna	9	Septiembre	2023-11-09T00:00:00	2024-11-08T10:00:00	1	Precipitación	0
76808	7	Sololá	717	San Juan la Laguna	12	San Juan la Laguna	9	Septiembre	2023-11-09T00:00:00	2024-11-08T10:00:00	8	Radiación solar	692
76809	7	Sololá	717	San Juan la Laguna	12	San Juan la Laguna	9	Septiembre	2023-11-09T00:00:00	2024-11-08T11:00:00	2	Temperatura media	24.7
76810	7	Sololá	717	San Juan la Laguna	12	San Juan la Laguna	9	Septiembre	2023-11-09T00:00:00	2024-11-08T11:00:00	4	Temperatura máxima	24.8
76811	7	Sololá	717	San Juan la Laguna	12	San Juan la Laguna	9	Septiembre	2023-11-09T00:00:00	2024-11-08T11:00:00	3	Temperatura mínima	23.9
76812	7	Sololá	717	San Juan la Laguna	12	San Juan la Laguna	9	Septiembre	2023-11-09T00:00:00	2024-11-08T11:00:00	5	Humedad	56
76813	7	Sololá	717	San Juan la Laguna	12	San Juan la Laguna	9	Septiembre	2023-11-09T00:00:00	2024-11-08T11:00:00	6	Velocidad del viento	0
76814	7	Sololá	717	San Juan la Laguna	12	San Juan la Laguna	9	Septiembre	2023-11-09T00:00:00	2024-11-08T11:00:00	7	Dirección del viento	0
76815	7	Sololá	717	San Juan la Laguna	12	San Juan la Laguna	9	Septiembre	2023-11-09T00:00:00	2024-11-08T11:00:00	1	Precipitación	0
76816	7	Sololá	717	San Juan la Laguna	12	San Juan la Laguna	9	Septiembre	2023-11-09T00:00:00	2024-11-08T11:00:00	8	Radiación solar	830
76817	7	Sololá	717	San Juan la Laguna	12	San Juan la Laguna	9	Septiembre	2023-11-09T00:00:00	2024-11-08T12:00:00	2	Temperatura media	24.7
76818	7	Sololá	717	San Juan la Laguna	12	San Juan la Laguna	9	Septiembre	2023-11-09T00:00:00	2024-11-08T12:00:00	4	Temperatura máxima	25.5
76819	7	Sololá	717	San Juan la Laguna	12	San Juan la Laguna	9	Septiembre	2023-11-09T00:00:00	2024-11-08T12:00:00	3	Temperatura mínima	24.6
76820	7	Sololá	717	San Juan la Laguna	12	San Juan la Laguna	9	Septiembre	2023-11-09T00:00:00	2024-11-08T12:00:00	5	Humedad	65
76821	7	Sololá	717	San Juan la Laguna	12	San Juan la Laguna	9	Septiembre	2023-11-09T00:00:00	2024-11-08T12:00:00	6	Velocidad del viento	0
76822	7	Sololá	717	San Juan la Laguna	12	San Juan la Laguna	9	Septiembre	2023-11-09T00:00:00	2024-11-08T12:00:00	7	Dirección del viento	0
76823	7	Sololá	717	San Juan la Laguna	12	San Juan la Laguna	9	Septiembre	2023-11-09T00:00:00	2024-11-08T12:00:00	1	Precipitación	0
76824	7	Sololá	717	San Juan la Laguna	12	San Juan la Laguna	9	Septiembre	2023-11-09T00:00:00	2024-11-08T12:00:00	8	Radiación solar	933
76825	7	Sololá	717	San Juan la Laguna	12	San Juan la Laguna	9	Septiembre	2023-11-09T00:00:00	2024-11-08T13:00:00	2	Temperatura media	24.6
76826	7	Sololá	717	San Juan la Laguna	12	San Juan la Laguna	9	Septiembre	2023-11-09T00:00:00	2024-11-08T13:00:00	4	Temperatura máxima	25.3
76827	7	Sololá	717	San Juan la Laguna	12	San Juan la Laguna	9	Septiembre	2023-11-09T00:00:00	2024-11-08T13:00:00	3	Temperatura mínima	24.6
76828	7	Sololá	717	San Juan la Laguna	12	San Juan la Laguna	9	Septiembre	2023-11-09T00:00:00	2024-11-08T13:00:00	5	Humedad	67
76829	7	Sololá	717	San Juan la Laguna	12	San Juan la Laguna	9	Septiembre	2023-11-09T00:00:00	2024-11-08T13:00:00	6	Velocidad del viento	1.6
76830	7	Sololá	717	San Juan la Laguna	12	San Juan la Laguna	9	Septiembre	2023-11-09T00:00:00	2024-11-08T13:00:00	7	Dirección del viento	1.61
76831	7	Sololá	717	San Juan la Laguna	12	San Juan la Laguna	9	Septiembre	2023-11-09T00:00:00	2024-11-08T13:00:00	1	Precipitación	0
76832	7	Sololá	717	San Juan la Laguna	12	San Juan la Laguna	9	Septiembre	2023-11-09T00:00:00	2024-11-08T13:00:00	8	Radiación solar	950
76833	7	Sololá	717	San Juan la Laguna	12	San Juan la Laguna	9	Septiembre	2023-11-09T00:00:00	2024-11-08T14:00:00	2	Temperatura media	24
76834	7	Sololá	717	San Juan la Laguna	12	San Juan la Laguna	9	Septiembre	2023-11-09T00:00:00	2024-11-08T14:00:00	4	Temperatura máxima	25.1
76835	7	Sololá	717	San Juan la Laguna	12	San Juan la Laguna	9	Septiembre	2023-11-09T00:00:00	2024-11-08T14:00:00	3	Temperatura mínima	24
76836	7	Sololá	717	San Juan la Laguna	12	San Juan la Laguna	9	Septiembre	2023-11-09T00:00:00	2024-11-08T14:00:00	5	Humedad	70
76837	7	Sololá	717	San Juan la Laguna	12	San Juan la Laguna	9	Septiembre	2023-11-09T00:00:00	2024-11-08T14:00:00	6	Velocidad del viento	0
76838	7	Sololá	717	San Juan la Laguna	12	San Juan la Laguna	9	Septiembre	2023-11-09T00:00:00	2024-11-08T14:00:00	7	Dirección del viento	0
76839	7	Sololá	717	San Juan la Laguna	12	San Juan la Laguna	9	Septiembre	2023-11-09T00:00:00	2024-11-08T14:00:00	1	Precipitación	0
76840	7	Sololá	717	San Juan la Laguna	12	San Juan la Laguna	9	Septiembre	2023-11-09T00:00:00	2024-11-08T14:00:00	8	Radiación solar	835
76841	7	Sololá	717	San Juan la Laguna	12	San Juan la Laguna	9	Septiembre	2023-11-09T00:00:00	2024-11-08T15:00:00	2	Temperatura media	24.7
76842	7	Sololá	717	San Juan la Laguna	12	San Juan la Laguna	9	Septiembre	2023-11-09T00:00:00	2024-11-08T15:00:00	4	Temperatura máxima	24.8
76843	7	Sololá	717	San Juan la Laguna	12	San Juan la Laguna	9	Septiembre	2023-11-09T00:00:00	2024-11-08T15:00:00	3	Temperatura mínima	24
76844	7	Sololá	717	San Juan la Laguna	12	San Juan la Laguna	9	Septiembre	2023-11-09T00:00:00	2024-11-08T15:00:00	5	Humedad	70
76845	7	Sololá	717	San Juan la Laguna	12	San Juan la Laguna	9	Septiembre	2023-11-09T00:00:00	2024-11-08T15:00:00	6	Velocidad del viento	0
76846	7	Sololá	717	San Juan la Laguna	12	San Juan la Laguna	9	Septiembre	2023-11-09T00:00:00	2024-11-08T15:00:00	7	Dirección del viento	0
76847	7	Sololá	717	San Juan la Laguna	12	San Juan la Laguna	9	Septiembre	2023-11-09T00:00:00	2024-11-08T15:00:00	1	Precipitación	0
76848	7	Sololá	717	San Juan la Laguna	12	San Juan la Laguna	9	Septiembre	2023-11-09T00:00:00	2024-11-08T15:00:00	8	Radiación solar	701
76849	7	Sololá	717	San Juan la Laguna	12	San Juan la Laguna	9	Septiembre	2023-11-09T00:00:00	2024-11-08T16:00:00	2	Temperatura media	23.5
76850	7	Sololá	717	San Juan la Laguna	12	San Juan la Laguna	9	Septiembre	2023-11-09T00:00:00	2024-11-08T16:00:00	4	Temperatura máxima	24.6
76851	7	Sololá	717	San Juan la Laguna	12	San Juan la Laguna	9	Septiembre	2023-11-09T00:00:00	2024-11-08T16:00:00	3	Temperatura mínima	23.5
76852	7	Sololá	717	San Juan la Laguna	12	San Juan la Laguna	9	Septiembre	2023-11-09T00:00:00	2024-11-08T16:00:00	5	Humedad	75
76853	7	Sololá	717	San Juan la Laguna	12	San Juan la Laguna	9	Septiembre	2023-11-09T00:00:00	2024-11-08T16:00:00	6	Velocidad del viento	0
76854	7	Sololá	717	San Juan la Laguna	12	San Juan la Laguna	9	Septiembre	2023-11-09T00:00:00	2024-11-08T16:00:00	7	Dirección del viento	0
76855	7	Sololá	717	San Juan la Laguna	12	San Juan la Laguna	9	Septiembre	2023-11-09T00:00:00	2024-11-08T16:00:00	1	Precipitación	0
76856	7	Sololá	717	San Juan la Laguna	12	San Juan la Laguna	9	Septiembre	2023-11-09T00:00:00	2024-11-08T16:00:00	8	Radiación solar	416
76857	7	Sololá	717	San Juan la Laguna	12	San Juan la Laguna	9	Septiembre	2023-11-09T00:00:00	2024-11-08T17:00:00	2	Temperatura media	19.6
76858	7	Sololá	717	San Juan la Laguna	12	San Juan la Laguna	9	Septiembre	2023-11-09T00:00:00	2024-11-08T17:00:00	4	Temperatura máxima	23.4
76859	7	Sololá	717	San Juan la Laguna	12	San Juan la Laguna	9	Septiembre	2023-11-09T00:00:00	2024-11-08T17:00:00	3	Temperatura mínima	19.6
76860	7	Sololá	717	San Juan la Laguna	12	San Juan la Laguna	9	Septiembre	2023-11-09T00:00:00	2024-11-08T17:00:00	5	Humedad	88
76861	7	Sololá	717	San Juan la Laguna	12	San Juan la Laguna	9	Septiembre	2023-11-09T00:00:00	2024-11-08T17:00:00	6	Velocidad del viento	3.2
76862	7	Sololá	717	San Juan la Laguna	12	San Juan la Laguna	9	Septiembre	2023-11-09T00:00:00	2024-11-08T17:00:00	7	Dirección del viento	3.22
76863	7	Sololá	717	San Juan la Laguna	12	San Juan la Laguna	9	Septiembre	2023-11-09T00:00:00	2024-11-08T17:00:00	1	Precipitación	2
76864	7	Sololá	717	San Juan la Laguna	12	San Juan la Laguna	9	Septiembre	2023-11-09T00:00:00	2024-11-08T17:00:00	8	Radiación solar	21
76865	7	Sololá	717	San Juan la Laguna	12	San Juan la Laguna	9	Septiembre	2023-11-09T00:00:00	2024-11-08T18:00:00	2	Temperatura media	18.4
76866	7	Sololá	717	San Juan la Laguna	12	San Juan la Laguna	9	Septiembre	2023-11-09T00:00:00	2024-11-08T18:00:00	4	Temperatura máxima	19.6
76867	7	Sololá	717	San Juan la Laguna	12	San Juan la Laguna	9	Septiembre	2023-11-09T00:00:00	2024-11-08T18:00:00	3	Temperatura mínima	18.3
76868	7	Sololá	717	San Juan la Laguna	12	San Juan la Laguna	9	Septiembre	2023-11-09T00:00:00	2024-11-08T18:00:00	5	Humedad	89
76869	7	Sololá	717	San Juan la Laguna	12	San Juan la Laguna	9	Septiembre	2023-11-09T00:00:00	2024-11-08T18:00:00	6	Velocidad del viento	3.2
76870	7	Sololá	717	San Juan la Laguna	12	San Juan la Laguna	9	Septiembre	2023-11-09T00:00:00	2024-11-08T18:00:00	7	Dirección del viento	3.22
76871	7	Sololá	717	San Juan la Laguna	12	San Juan la Laguna	9	Septiembre	2023-11-09T00:00:00	2024-11-08T18:00:00	1	Precipitación	12.2
76872	7	Sololá	717	San Juan la Laguna	12	San Juan la Laguna	9	Septiembre	2023-11-09T00:00:00	2024-11-08T18:00:00	8	Radiación solar	0
76873	7	Sololá	717	San Juan la Laguna	12	San Juan la Laguna	9	Septiembre	2023-11-09T00:00:00	2024-11-08T19:00:00	2	Temperatura media	18.6
76874	7	Sololá	717	San Juan la Laguna	12	San Juan la Laguna	9	Septiembre	2023-11-09T00:00:00	2024-11-08T19:00:00	4	Temperatura máxima	18.6
76875	7	Sololá	717	San Juan la Laguna	12	San Juan la Laguna	9	Septiembre	2023-11-09T00:00:00	2024-11-08T19:00:00	3	Temperatura mínima	18.4
76876	7	Sololá	717	San Juan la Laguna	12	San Juan la Laguna	9	Septiembre	2023-11-09T00:00:00	2024-11-08T19:00:00	5	Humedad	89
76877	7	Sololá	717	San Juan la Laguna	12	San Juan la Laguna	9	Septiembre	2023-11-09T00:00:00	2024-11-08T19:00:00	6	Velocidad del viento	3.2
76878	7	Sololá	717	San Juan la Laguna	12	San Juan la Laguna	9	Septiembre	2023-11-09T00:00:00	2024-11-08T19:00:00	7	Dirección del viento	3.22
76879	7	Sololá	717	San Juan la Laguna	12	San Juan la Laguna	9	Septiembre	2023-11-09T00:00:00	2024-11-08T19:00:00	1	Precipitación	0
76880	7	Sololá	717	San Juan la Laguna	12	San Juan la Laguna	9	Septiembre	2023-11-09T00:00:00	2024-11-08T19:00:00	8	Radiación solar	0
76881	7	Sololá	717	San Juan la Laguna	12	San Juan la Laguna	9	Septiembre	2023-11-09T00:00:00	2024-11-08T20:00:00	2	Temperatura media	18.3
76882	7	Sololá	717	San Juan la Laguna	12	San Juan la Laguna	9	Septiembre	2023-11-09T00:00:00	2024-11-08T20:00:00	4	Temperatura máxima	18.6
76883	7	Sololá	717	San Juan la Laguna	12	San Juan la Laguna	9	Septiembre	2023-11-09T00:00:00	2024-11-08T20:00:00	3	Temperatura mínima	18.1
76884	7	Sololá	717	San Juan la Laguna	12	San Juan la Laguna	9	Septiembre	2023-11-09T00:00:00	2024-11-08T20:00:00	5	Humedad	90
76885	7	Sololá	717	San Juan la Laguna	12	San Juan la Laguna	9	Septiembre	2023-11-09T00:00:00	2024-11-08T20:00:00	6	Velocidad del viento	3.2
76886	7	Sololá	717	San Juan la Laguna	12	San Juan la Laguna	9	Septiembre	2023-11-09T00:00:00	2024-11-08T20:00:00	7	Dirección del viento	3.22
76887	7	Sololá	717	San Juan la Laguna	12	San Juan la Laguna	9	Septiembre	2023-11-09T00:00:00	2024-11-08T20:00:00	1	Precipitación	0.2
76888	7	Sololá	717	San Juan la Laguna	12	San Juan la Laguna	9	Septiembre	2023-11-09T00:00:00	2024-11-08T20:00:00	8	Radiación solar	0
76889	7	Sololá	717	San Juan la Laguna	12	San Juan la Laguna	9	Septiembre	2023-11-09T00:00:00	2024-11-08T21:00:00	2	Temperatura media	18.2
76890	7	Sololá	717	San Juan la Laguna	12	San Juan la Laguna	9	Septiembre	2023-11-09T00:00:00	2024-11-08T21:00:00	4	Temperatura máxima	18.3
76891	7	Sololá	717	San Juan la Laguna	12	San Juan la Laguna	9	Septiembre	2023-11-09T00:00:00	2024-11-08T21:00:00	3	Temperatura mínima	18
76892	7	Sololá	717	San Juan la Laguna	12	San Juan la Laguna	9	Septiembre	2023-11-09T00:00:00	2024-11-08T21:00:00	5	Humedad	90
76893	7	Sololá	717	San Juan la Laguna	12	San Juan la Laguna	9	Septiembre	2023-11-09T00:00:00	2024-11-08T21:00:00	6	Velocidad del viento	3.2
76894	7	Sololá	717	San Juan la Laguna	12	San Juan la Laguna	9	Septiembre	2023-11-09T00:00:00	2024-11-08T21:00:00	7	Dirección del viento	3.22
76895	7	Sololá	717	San Juan la Laguna	12	San Juan la Laguna	9	Septiembre	2023-11-09T00:00:00	2024-11-08T21:00:00	1	Precipitación	0.2
76896	7	Sololá	717	San Juan la Laguna	12	San Juan la Laguna	9	Septiembre	2023-11-09T00:00:00	2024-11-08T21:00:00	8	Radiación solar	0
76897	7	Sololá	717	San Juan la Laguna	12	San Juan la Laguna	9	Septiembre	2023-11-09T00:00:00	2024-11-08T22:00:00	2	Temperatura media	17.9
76898	7	Sololá	717	San Juan la Laguna	12	San Juan la Laguna	9	Septiembre	2023-11-09T00:00:00	2024-11-08T22:00:00	4	Temperatura máxima	18.2
76899	7	Sololá	717	San Juan la Laguna	12	San Juan la Laguna	9	Septiembre	2023-11-09T00:00:00	2024-11-08T22:00:00	3	Temperatura mínima	17.9
76900	7	Sololá	717	San Juan la Laguna	12	San Juan la Laguna	9	Septiembre	2023-11-09T00:00:00	2024-11-08T22:00:00	5	Humedad	89
76901	7	Sololá	717	San Juan la Laguna	12	San Juan la Laguna	9	Septiembre	2023-11-09T00:00:00	2024-11-08T22:00:00	6	Velocidad del viento	3.2
76902	7	Sololá	717	San Juan la Laguna	12	San Juan la Laguna	9	Septiembre	2023-11-09T00:00:00	2024-11-08T22:00:00	7	Dirección del viento	3.22
76903	7	Sololá	717	San Juan la Laguna	12	San Juan la Laguna	9	Septiembre	2023-11-09T00:00:00	2024-11-08T22:00:00	1	Precipitación	0.4
76904	7	Sololá	717	San Juan la Laguna	12	San Juan la Laguna	9	Septiembre	2023-11-09T00:00:00	2024-11-08T22:00:00	8	Radiación solar	0
76905	7	Sololá	717	San Juan la Laguna	12	San Juan la Laguna	9	Septiembre	2023-11-09T00:00:00	2024-11-08T23:00:00	2	Temperatura media	17.8
76906	7	Sololá	717	San Juan la Laguna	12	San Juan la Laguna	9	Septiembre	2023-11-09T00:00:00	2024-11-08T23:00:00	4	Temperatura máxima	17.9
76907	7	Sololá	717	San Juan la Laguna	12	San Juan la Laguna	9	Septiembre	2023-11-09T00:00:00	2024-11-08T23:00:00	3	Temperatura mínima	17.8
76908	7	Sololá	717	San Juan la Laguna	12	San Juan la Laguna	9	Septiembre	2023-11-09T00:00:00	2024-11-08T23:00:00	5	Humedad	90
76909	7	Sololá	717	San Juan la Laguna	12	San Juan la Laguna	9	Septiembre	2023-11-09T00:00:00	2024-11-08T23:00:00	6	Velocidad del viento	3.2
76910	7	Sololá	717	San Juan la Laguna	12	San Juan la Laguna	9	Septiembre	2023-11-09T00:00:00	2024-11-08T23:00:00	7	Dirección del viento	3.22
76911	7	Sololá	717	San Juan la Laguna	12	San Juan la Laguna	9	Septiembre	2023-11-09T00:00:00	2024-11-08T23:00:00	1	Precipitación	0
76912	7	Sololá	717	San Juan la Laguna	12	San Juan la Laguna	9	Septiembre	2023-11-09T00:00:00	2024-11-08T23:00:00	8	Radiación solar	0
76913	7	Sololá	717	San Juan la Laguna	12	San Juan la Laguna	9	Septiembre	2023-12-09T00:00:00	2024-11-08T00:00:00	2	Temperatura media	17.2
76914	7	Sololá	717	San Juan la Laguna	12	San Juan la Laguna	9	Septiembre	2023-12-09T00:00:00	2024-11-08T00:00:00	4	Temperatura máxima	17.8
76915	7	Sololá	717	San Juan la Laguna	12	San Juan la Laguna	9	Septiembre	2023-12-09T00:00:00	2024-11-08T00:00:00	3	Temperatura mínima	17.2
76916	7	Sololá	717	San Juan la Laguna	12	San Juan la Laguna	9	Septiembre	2023-12-09T00:00:00	2024-11-08T00:00:00	5	Humedad	90
76917	7	Sololá	717	San Juan la Laguna	12	San Juan la Laguna	9	Septiembre	2023-12-09T00:00:00	2024-11-08T00:00:00	6	Velocidad del viento	3.2
76918	7	Sololá	717	San Juan la Laguna	12	San Juan la Laguna	9	Septiembre	2023-12-09T00:00:00	2024-11-08T00:00:00	7	Dirección del viento	3.22
76919	7	Sololá	717	San Juan la Laguna	12	San Juan la Laguna	9	Septiembre	2023-12-09T00:00:00	2024-11-08T00:00:00	1	Precipitación	0
76920	7	Sololá	717	San Juan la Laguna	12	San Juan la Laguna	9	Septiembre	2023-12-09T00:00:00	2024-11-08T00:00:00	8	Radiación solar	0
76921	7	Sololá	717	San Juan la Laguna	12	San Juan la Laguna	9	Septiembre	2023-12-09T00:00:00	2024-11-08T01:00:00	2	Temperatura media	16.8
76922	7	Sololá	717	San Juan la Laguna	12	San Juan la Laguna	9	Septiembre	2023-12-09T00:00:00	2024-11-08T01:00:00	4	Temperatura máxima	17.2
76923	7	Sololá	717	San Juan la Laguna	12	San Juan la Laguna	9	Septiembre	2023-12-09T00:00:00	2024-11-08T01:00:00	3	Temperatura mínima	16.8
76924	7	Sololá	717	San Juan la Laguna	12	San Juan la Laguna	9	Septiembre	2023-12-09T00:00:00	2024-11-08T01:00:00	5	Humedad	89
76925	7	Sololá	717	San Juan la Laguna	12	San Juan la Laguna	9	Septiembre	2023-12-09T00:00:00	2024-11-08T01:00:00	6	Velocidad del viento	4.8
76926	7	Sololá	717	San Juan la Laguna	12	San Juan la Laguna	9	Septiembre	2023-12-09T00:00:00	2024-11-08T01:00:00	7	Dirección del viento	4.83
76927	7	Sololá	717	San Juan la Laguna	12	San Juan la Laguna	9	Septiembre	2023-12-09T00:00:00	2024-11-08T01:00:00	1	Precipitación	0
76928	7	Sololá	717	San Juan la Laguna	12	San Juan la Laguna	9	Septiembre	2023-12-09T00:00:00	2024-11-08T01:00:00	8	Radiación solar	0
76929	7	Sololá	717	San Juan la Laguna	12	San Juan la Laguna	9	Septiembre	2023-12-09T00:00:00	2024-11-08T02:00:00	2	Temperatura media	16.5
76930	7	Sololá	717	San Juan la Laguna	12	San Juan la Laguna	9	Septiembre	2023-12-09T00:00:00	2024-11-08T02:00:00	4	Temperatura máxima	16.9
76931	7	Sololá	717	San Juan la Laguna	12	San Juan la Laguna	9	Septiembre	2023-12-09T00:00:00	2024-11-08T02:00:00	3	Temperatura mínima	16.5
76932	7	Sololá	717	San Juan la Laguna	12	San Juan la Laguna	9	Septiembre	2023-12-09T00:00:00	2024-11-08T02:00:00	5	Humedad	89
76933	7	Sololá	717	San Juan la Laguna	12	San Juan la Laguna	9	Septiembre	2023-12-09T00:00:00	2024-11-08T02:00:00	6	Velocidad del viento	4.8
76934	7	Sololá	717	San Juan la Laguna	12	San Juan la Laguna	9	Septiembre	2023-12-09T00:00:00	2024-11-08T02:00:00	7	Dirección del viento	4.83
76935	7	Sololá	717	San Juan la Laguna	12	San Juan la Laguna	9	Septiembre	2023-12-09T00:00:00	2024-11-08T02:00:00	1	Precipitación	0
76936	7	Sololá	717	San Juan la Laguna	12	San Juan la Laguna	9	Septiembre	2023-12-09T00:00:00	2024-11-08T02:00:00	8	Radiación solar	0
76937	7	Sololá	717	San Juan la Laguna	12	San Juan la Laguna	9	Septiembre	2023-12-09T00:00:00	2024-11-08T03:00:00	2	Temperatura media	16.3
76938	7	Sololá	717	San Juan la Laguna	12	San Juan la Laguna	9	Septiembre	2023-12-09T00:00:00	2024-11-08T03:00:00	4	Temperatura máxima	16.5
76939	7	Sololá	717	San Juan la Laguna	12	San Juan la Laguna	9	Septiembre	2023-12-09T00:00:00	2024-11-08T03:00:00	3	Temperatura mínima	16.2
76940	7	Sololá	717	San Juan la Laguna	12	San Juan la Laguna	9	Septiembre	2023-12-09T00:00:00	2024-11-08T03:00:00	5	Humedad	90
76941	7	Sololá	717	San Juan la Laguna	12	San Juan la Laguna	9	Septiembre	2023-12-09T00:00:00	2024-11-08T03:00:00	6	Velocidad del viento	4.8
76942	7	Sololá	717	San Juan la Laguna	12	San Juan la Laguna	9	Septiembre	2023-12-09T00:00:00	2024-11-08T03:00:00	7	Dirección del viento	4.83
76943	7	Sololá	717	San Juan la Laguna	12	San Juan la Laguna	9	Septiembre	2023-12-09T00:00:00	2024-11-08T03:00:00	1	Precipitación	0
76944	7	Sololá	717	San Juan la Laguna	12	San Juan la Laguna	9	Septiembre	2023-12-09T00:00:00	2024-11-08T03:00:00	8	Radiación solar	0
76945	7	Sololá	717	San Juan la Laguna	12	San Juan la Laguna	9	Septiembre	2023-12-09T00:00:00	2024-11-08T04:00:00	2	Temperatura media	16
76946	7	Sololá	717	San Juan la Laguna	12	San Juan la Laguna	9	Septiembre	2023-12-09T00:00:00	2024-11-08T04:00:00	4	Temperatura máxima	16.5
76947	7	Sololá	717	San Juan la Laguna	12	San Juan la Laguna	9	Septiembre	2023-12-09T00:00:00	2024-11-08T04:00:00	3	Temperatura mínima	16
76948	7	Sololá	717	San Juan la Laguna	12	San Juan la Laguna	9	Septiembre	2023-12-09T00:00:00	2024-11-08T04:00:00	5	Humedad	90
76949	7	Sololá	717	San Juan la Laguna	12	San Juan la Laguna	9	Septiembre	2023-12-09T00:00:00	2024-11-08T04:00:00	6	Velocidad del viento	4.8
76950	7	Sololá	717	San Juan la Laguna	12	San Juan la Laguna	9	Septiembre	2023-12-09T00:00:00	2024-11-08T04:00:00	7	Dirección del viento	4.83
76951	7	Sololá	717	San Juan la Laguna	12	San Juan la Laguna	9	Septiembre	2023-12-09T00:00:00	2024-11-08T04:00:00	1	Precipitación	0
76952	7	Sololá	717	San Juan la Laguna	12	San Juan la Laguna	9	Septiembre	2023-12-09T00:00:00	2024-11-08T04:00:00	8	Radiación solar	0
76953	7	Sololá	717	San Juan la Laguna	12	San Juan la Laguna	9	Septiembre	2023-12-09T00:00:00	2024-11-08T05:00:00	2	Temperatura media	16.2
76954	7	Sololá	717	San Juan la Laguna	12	San Juan la Laguna	9	Septiembre	2023-12-09T00:00:00	2024-11-08T05:00:00	4	Temperatura máxima	16.2
76955	7	Sololá	717	San Juan la Laguna	12	San Juan la Laguna	9	Septiembre	2023-12-09T00:00:00	2024-11-08T05:00:00	3	Temperatura mínima	15.9
76956	7	Sololá	717	San Juan la Laguna	12	San Juan la Laguna	9	Septiembre	2023-12-09T00:00:00	2024-11-08T05:00:00	5	Humedad	89
76957	7	Sololá	717	San Juan la Laguna	12	San Juan la Laguna	9	Septiembre	2023-12-09T00:00:00	2024-11-08T05:00:00	6	Velocidad del viento	4.8
76958	7	Sololá	717	San Juan la Laguna	12	San Juan la Laguna	9	Septiembre	2023-12-09T00:00:00	2024-11-08T05:00:00	7	Dirección del viento	4.83
76959	7	Sololá	717	San Juan la Laguna	12	San Juan la Laguna	9	Septiembre	2023-12-09T00:00:00	2024-11-08T05:00:00	1	Precipitación	0
76960	7	Sololá	717	San Juan la Laguna	12	San Juan la Laguna	9	Septiembre	2023-12-09T00:00:00	2024-11-08T05:00:00	8	Radiación solar	0
76961	7	Sololá	717	San Juan la Laguna	12	San Juan la Laguna	9	Septiembre	2023-12-09T00:00:00	2024-11-08T06:00:00	2	Temperatura media	15.6
76962	7	Sololá	717	San Juan la Laguna	12	San Juan la Laguna	9	Septiembre	2023-12-09T00:00:00	2024-11-08T06:00:00	4	Temperatura máxima	16.2
76963	7	Sololá	717	San Juan la Laguna	12	San Juan la Laguna	9	Septiembre	2023-12-09T00:00:00	2024-11-08T06:00:00	3	Temperatura mínima	15.3
76964	7	Sololá	717	San Juan la Laguna	12	San Juan la Laguna	9	Septiembre	2023-12-09T00:00:00	2024-11-08T06:00:00	5	Humedad	89
76965	7	Sololá	717	San Juan la Laguna	12	San Juan la Laguna	9	Septiembre	2023-12-09T00:00:00	2024-11-08T06:00:00	6	Velocidad del viento	4.8
76966	7	Sololá	717	San Juan la Laguna	12	San Juan la Laguna	9	Septiembre	2023-12-09T00:00:00	2024-11-08T06:00:00	7	Dirección del viento	4.83
76967	7	Sololá	717	San Juan la Laguna	12	San Juan la Laguna	9	Septiembre	2023-12-09T00:00:00	2024-11-08T06:00:00	1	Precipitación	0
76968	7	Sololá	717	San Juan la Laguna	12	San Juan la Laguna	9	Septiembre	2023-12-09T00:00:00	2024-11-08T06:00:00	8	Radiación solar	1
76969	7	Sololá	717	San Juan la Laguna	12	San Juan la Laguna	9	Septiembre	2023-12-09T00:00:00	2024-11-08T07:00:00	2	Temperatura media	17.2
76970	7	Sololá	717	San Juan la Laguna	12	San Juan la Laguna	9	Septiembre	2023-12-09T00:00:00	2024-11-08T07:00:00	4	Temperatura máxima	17.2
76971	7	Sololá	717	San Juan la Laguna	12	San Juan la Laguna	9	Septiembre	2023-12-09T00:00:00	2024-11-08T07:00:00	3	Temperatura mínima	15.6
76972	7	Sololá	717	San Juan la Laguna	12	San Juan la Laguna	9	Septiembre	2023-12-09T00:00:00	2024-11-08T07:00:00	5	Humedad	85
76973	7	Sololá	717	San Juan la Laguna	12	San Juan la Laguna	9	Septiembre	2023-12-09T00:00:00	2024-11-08T07:00:00	6	Velocidad del viento	6.4
76974	7	Sololá	717	San Juan la Laguna	12	San Juan la Laguna	9	Septiembre	2023-12-09T00:00:00	2024-11-08T07:00:00	7	Dirección del viento	6.44
76975	7	Sololá	717	San Juan la Laguna	12	San Juan la Laguna	9	Septiembre	2023-12-09T00:00:00	2024-11-08T07:00:00	1	Precipitación	0
76976	7	Sololá	717	San Juan la Laguna	12	San Juan la Laguna	9	Septiembre	2023-12-09T00:00:00	2024-11-08T07:00:00	8	Radiación solar	67
76977	7	Sololá	717	San Juan la Laguna	12	San Juan la Laguna	9	Septiembre	2023-12-09T00:00:00	2024-11-08T08:00:00	2	Temperatura media	21.2
76978	7	Sololá	717	San Juan la Laguna	12	San Juan la Laguna	9	Septiembre	2023-12-09T00:00:00	2024-11-08T08:00:00	4	Temperatura máxima	21.2
76979	7	Sololá	717	San Juan la Laguna	12	San Juan la Laguna	9	Septiembre	2023-12-09T00:00:00	2024-11-08T08:00:00	3	Temperatura mínima	17.2
76980	7	Sololá	717	San Juan la Laguna	12	San Juan la Laguna	9	Septiembre	2023-12-09T00:00:00	2024-11-08T08:00:00	5	Humedad	77
76981	7	Sololá	717	San Juan la Laguna	12	San Juan la Laguna	9	Septiembre	2023-12-09T00:00:00	2024-11-08T08:00:00	6	Velocidad del viento	1.6
76982	7	Sololá	717	San Juan la Laguna	12	San Juan la Laguna	9	Septiembre	2023-12-09T00:00:00	2024-11-08T08:00:00	7	Dirección del viento	1.61
76983	7	Sololá	717	San Juan la Laguna	12	San Juan la Laguna	9	Septiembre	2023-12-09T00:00:00	2024-11-08T08:00:00	1	Precipitación	0
76984	7	Sololá	717	San Juan la Laguna	12	San Juan la Laguna	9	Septiembre	2023-12-09T00:00:00	2024-11-08T08:00:00	8	Radiación solar	218
76985	7	Sololá	717	San Juan la Laguna	12	San Juan la Laguna	9	Septiembre	2023-12-09T00:00:00	2024-11-08T09:00:00	2	Temperatura media	22.1
76986	7	Sololá	717	San Juan la Laguna	12	San Juan la Laguna	9	Septiembre	2023-12-09T00:00:00	2024-11-08T09:00:00	4	Temperatura máxima	22.1
76987	7	Sololá	717	San Juan la Laguna	12	San Juan la Laguna	9	Septiembre	2023-12-09T00:00:00	2024-11-08T09:00:00	3	Temperatura mínima	21.2
76988	7	Sololá	717	San Juan la Laguna	12	San Juan la Laguna	9	Septiembre	2023-12-09T00:00:00	2024-11-08T09:00:00	5	Humedad	73
76989	7	Sololá	717	San Juan la Laguna	12	San Juan la Laguna	9	Septiembre	2023-12-09T00:00:00	2024-11-08T09:00:00	6	Velocidad del viento	0
76990	7	Sololá	717	San Juan la Laguna	12	San Juan la Laguna	9	Septiembre	2023-12-09T00:00:00	2024-11-08T09:00:00	7	Dirección del viento	0
76991	7	Sololá	717	San Juan la Laguna	12	San Juan la Laguna	9	Septiembre	2023-12-09T00:00:00	2024-11-08T09:00:00	1	Precipitación	0
76992	7	Sololá	717	San Juan la Laguna	12	San Juan la Laguna	9	Septiembre	2023-12-09T00:00:00	2024-11-08T09:00:00	8	Radiación solar	471
76993	7	Sololá	717	San Juan la Laguna	12	San Juan la Laguna	9	Septiembre	2023-12-09T00:00:00	2024-11-08T10:00:00	2	Temperatura media	24.1
76994	7	Sololá	717	San Juan la Laguna	12	San Juan la Laguna	9	Septiembre	2023-12-09T00:00:00	2024-11-08T10:00:00	4	Temperatura máxima	24.1
76995	7	Sololá	717	San Juan la Laguna	12	San Juan la Laguna	9	Septiembre	2023-12-09T00:00:00	2024-11-08T10:00:00	3	Temperatura mínima	22.1
76996	7	Sololá	717	San Juan la Laguna	12	San Juan la Laguna	9	Septiembre	2023-12-09T00:00:00	2024-11-08T10:00:00	5	Humedad	61
76997	7	Sololá	717	San Juan la Laguna	12	San Juan la Laguna	9	Septiembre	2023-12-09T00:00:00	2024-11-08T10:00:00	6	Velocidad del viento	0
76998	7	Sololá	717	San Juan la Laguna	12	San Juan la Laguna	9	Septiembre	2023-12-09T00:00:00	2024-11-08T10:00:00	7	Dirección del viento	0
76999	7	Sololá	717	San Juan la Laguna	12	San Juan la Laguna	9	Septiembre	2023-12-09T00:00:00	2024-11-08T10:00:00	1	Precipitación	0
77000	7	Sololá	717	San Juan la Laguna	12	San Juan la Laguna	9	Septiembre	2023-12-09T00:00:00	2024-11-08T10:00:00	8	Radiación solar	695
77001	7	Sololá	717	San Juan la Laguna	12	San Juan la Laguna	9	Septiembre	2023-12-09T00:00:00	2024-11-08T11:00:00	2	Temperatura media	24.9
77002	7	Sololá	717	San Juan la Laguna	12	San Juan la Laguna	9	Septiembre	2023-12-09T00:00:00	2024-11-08T11:00:00	4	Temperatura máxima	25
77003	7	Sololá	717	San Juan la Laguna	12	San Juan la Laguna	9	Septiembre	2023-12-09T00:00:00	2024-11-08T11:00:00	3	Temperatura mínima	23.8
77004	7	Sololá	717	San Juan la Laguna	12	San Juan la Laguna	9	Septiembre	2023-12-09T00:00:00	2024-11-08T11:00:00	5	Humedad	55
77005	7	Sololá	717	San Juan la Laguna	12	San Juan la Laguna	9	Septiembre	2023-12-09T00:00:00	2024-11-08T11:00:00	6	Velocidad del viento	0
77006	7	Sololá	717	San Juan la Laguna	12	San Juan la Laguna	9	Septiembre	2023-12-09T00:00:00	2024-11-08T11:00:00	7	Dirección del viento	0
77007	7	Sololá	717	San Juan la Laguna	12	San Juan la Laguna	9	Septiembre	2023-12-09T00:00:00	2024-11-08T11:00:00	1	Precipitación	0
77008	7	Sololá	717	San Juan la Laguna	12	San Juan la Laguna	9	Septiembre	2023-12-09T00:00:00	2024-11-08T11:00:00	8	Radiación solar	834
77009	7	Sololá	717	San Juan la Laguna	12	San Juan la Laguna	9	Septiembre	2023-12-09T00:00:00	2024-11-08T12:00:00	2	Temperatura media	24.6
77010	7	Sololá	717	San Juan la Laguna	12	San Juan la Laguna	9	Septiembre	2023-12-09T00:00:00	2024-11-08T12:00:00	4	Temperatura máxima	25.5
77011	7	Sololá	717	San Juan la Laguna	12	San Juan la Laguna	9	Septiembre	2023-12-09T00:00:00	2024-11-08T12:00:00	3	Temperatura mínima	24.3
77012	7	Sololá	717	San Juan la Laguna	12	San Juan la Laguna	9	Septiembre	2023-12-09T00:00:00	2024-11-08T12:00:00	5	Humedad	66
77013	7	Sololá	717	San Juan la Laguna	12	San Juan la Laguna	9	Septiembre	2023-12-09T00:00:00	2024-11-08T12:00:00	6	Velocidad del viento	1.6
77014	7	Sololá	717	San Juan la Laguna	12	San Juan la Laguna	9	Septiembre	2023-12-09T00:00:00	2024-11-08T12:00:00	7	Dirección del viento	1.61
77015	7	Sololá	717	San Juan la Laguna	12	San Juan la Laguna	9	Septiembre	2023-12-09T00:00:00	2024-11-08T12:00:00	1	Precipitación	0
77016	7	Sololá	717	San Juan la Laguna	12	San Juan la Laguna	9	Septiembre	2023-12-09T00:00:00	2024-11-08T12:00:00	8	Radiación solar	915
77017	7	Sololá	717	San Juan la Laguna	12	San Juan la Laguna	9	Septiembre	2023-12-09T00:00:00	2024-11-08T13:00:00	2	Temperatura media	24.9
77018	7	Sololá	717	San Juan la Laguna	12	San Juan la Laguna	9	Septiembre	2023-12-09T00:00:00	2024-11-08T13:00:00	4	Temperatura máxima	25.3
77019	7	Sololá	717	San Juan la Laguna	12	San Juan la Laguna	9	Septiembre	2023-12-09T00:00:00	2024-11-08T13:00:00	3	Temperatura mínima	24.4
77020	7	Sololá	717	San Juan la Laguna	12	San Juan la Laguna	9	Septiembre	2023-12-09T00:00:00	2024-11-08T13:00:00	5	Humedad	67
77021	7	Sololá	717	San Juan la Laguna	12	San Juan la Laguna	9	Septiembre	2023-12-09T00:00:00	2024-11-08T13:00:00	6	Velocidad del viento	0
77022	7	Sololá	717	San Juan la Laguna	12	San Juan la Laguna	9	Septiembre	2023-12-09T00:00:00	2024-11-08T13:00:00	7	Dirección del viento	0
77023	7	Sololá	717	San Juan la Laguna	12	San Juan la Laguna	9	Septiembre	2023-12-09T00:00:00	2024-11-08T13:00:00	1	Precipitación	0
77024	7	Sololá	717	San Juan la Laguna	12	San Juan la Laguna	9	Septiembre	2023-12-09T00:00:00	2024-11-08T13:00:00	8	Radiación solar	941
77025	7	Sololá	717	San Juan la Laguna	12	San Juan la Laguna	9	Septiembre	2023-12-09T00:00:00	2024-11-08T14:00:00	2	Temperatura media	25.1
77026	7	Sololá	717	San Juan la Laguna	12	San Juan la Laguna	9	Septiembre	2023-12-09T00:00:00	2024-11-08T14:00:00	4	Temperatura máxima	25.1
77027	7	Sololá	717	San Juan la Laguna	12	San Juan la Laguna	9	Septiembre	2023-12-09T00:00:00	2024-11-08T14:00:00	3	Temperatura mínima	24.3
77028	7	Sololá	717	San Juan la Laguna	12	San Juan la Laguna	9	Septiembre	2023-12-09T00:00:00	2024-11-08T14:00:00	5	Humedad	69
77029	7	Sololá	717	San Juan la Laguna	12	San Juan la Laguna	9	Septiembre	2023-12-09T00:00:00	2024-11-08T14:00:00	6	Velocidad del viento	0
77030	7	Sololá	717	San Juan la Laguna	12	San Juan la Laguna	9	Septiembre	2023-12-09T00:00:00	2024-11-08T14:00:00	7	Dirección del viento	0
77031	7	Sololá	717	San Juan la Laguna	12	San Juan la Laguna	9	Septiembre	2023-12-09T00:00:00	2024-11-08T14:00:00	1	Precipitación	0
77032	7	Sololá	717	San Juan la Laguna	12	San Juan la Laguna	9	Septiembre	2023-12-09T00:00:00	2024-11-08T14:00:00	8	Radiación solar	826
77033	7	Sololá	717	San Juan la Laguna	12	San Juan la Laguna	9	Septiembre	2023-12-09T00:00:00	2024-11-08T15:00:00	2	Temperatura media	23.8
77034	7	Sololá	717	San Juan la Laguna	12	San Juan la Laguna	9	Septiembre	2023-12-09T00:00:00	2024-11-08T15:00:00	4	Temperatura máxima	25.1
77035	7	Sololá	717	San Juan la Laguna	12	San Juan la Laguna	9	Septiembre	2023-12-09T00:00:00	2024-11-08T15:00:00	3	Temperatura mínima	23.6
77036	7	Sololá	717	San Juan la Laguna	12	San Juan la Laguna	9	Septiembre	2023-12-09T00:00:00	2024-11-08T15:00:00	5	Humedad	73
77037	7	Sololá	717	San Juan la Laguna	12	San Juan la Laguna	9	Septiembre	2023-12-09T00:00:00	2024-11-08T15:00:00	6	Velocidad del viento	4.8
77038	7	Sololá	717	San Juan la Laguna	12	San Juan la Laguna	9	Septiembre	2023-12-09T00:00:00	2024-11-08T15:00:00	7	Dirección del viento	4.83
77039	7	Sololá	717	San Juan la Laguna	12	San Juan la Laguna	9	Septiembre	2023-12-09T00:00:00	2024-11-08T15:00:00	1	Precipitación	0
77040	7	Sololá	717	San Juan la Laguna	12	San Juan la Laguna	9	Septiembre	2023-12-09T00:00:00	2024-11-08T15:00:00	8	Radiación solar	567
77041	7	Sololá	717	San Juan la Laguna	12	San Juan la Laguna	9	Septiembre	2023-12-09T00:00:00	2024-11-08T16:00:00	2	Temperatura media	23.7
77042	7	Sololá	717	San Juan la Laguna	12	San Juan la Laguna	9	Septiembre	2023-12-09T00:00:00	2024-11-08T16:00:00	4	Temperatura máxima	24.2
77043	7	Sololá	717	San Juan la Laguna	12	San Juan la Laguna	9	Septiembre	2023-12-09T00:00:00	2024-11-08T16:00:00	3	Temperatura mínima	23.6
77044	7	Sololá	717	San Juan la Laguna	12	San Juan la Laguna	9	Septiembre	2023-12-09T00:00:00	2024-11-08T16:00:00	5	Humedad	73
77045	7	Sololá	717	San Juan la Laguna	12	San Juan la Laguna	9	Septiembre	2023-12-09T00:00:00	2024-11-08T16:00:00	6	Velocidad del viento	3.2
77046	7	Sololá	717	San Juan la Laguna	12	San Juan la Laguna	9	Septiembre	2023-12-09T00:00:00	2024-11-08T16:00:00	7	Dirección del viento	3.22
77047	7	Sololá	717	San Juan la Laguna	12	San Juan la Laguna	9	Septiembre	2023-12-09T00:00:00	2024-11-08T16:00:00	1	Precipitación	0
77048	7	Sololá	717	San Juan la Laguna	12	San Juan la Laguna	9	Septiembre	2023-12-09T00:00:00	2024-11-08T16:00:00	8	Radiación solar	514
77049	7	Sololá	717	San Juan la Laguna	12	San Juan la Laguna	9	Septiembre	2023-12-09T00:00:00	2024-11-08T17:00:00	2	Temperatura media	21.5
77050	7	Sololá	717	San Juan la Laguna	12	San Juan la Laguna	9	Septiembre	2023-12-09T00:00:00	2024-11-08T17:00:00	4	Temperatura máxima	23.7
77051	7	Sololá	717	San Juan la Laguna	12	San Juan la Laguna	9	Septiembre	2023-12-09T00:00:00	2024-11-08T17:00:00	3	Temperatura mínima	21.5
77052	7	Sololá	717	San Juan la Laguna	12	San Juan la Laguna	9	Septiembre	2023-12-09T00:00:00	2024-11-08T17:00:00	5	Humedad	81
77053	7	Sololá	717	San Juan la Laguna	12	San Juan la Laguna	9	Septiembre	2023-12-09T00:00:00	2024-11-08T17:00:00	6	Velocidad del viento	4.8
77054	7	Sololá	717	San Juan la Laguna	12	San Juan la Laguna	9	Septiembre	2023-12-09T00:00:00	2024-11-08T17:00:00	7	Dirección del viento	4.83
77055	7	Sololá	717	San Juan la Laguna	12	San Juan la Laguna	9	Septiembre	2023-12-09T00:00:00	2024-11-08T17:00:00	1	Precipitación	0
77056	7	Sololá	717	San Juan la Laguna	12	San Juan la Laguna	9	Septiembre	2023-12-09T00:00:00	2024-11-08T17:00:00	8	Radiación solar	137
77057	7	Sololá	717	San Juan la Laguna	12	San Juan la Laguna	9	Septiembre	2023-12-09T00:00:00	2024-11-08T18:00:00	2	Temperatura media	20.9
77058	7	Sololá	717	San Juan la Laguna	12	San Juan la Laguna	9	Septiembre	2023-12-09T00:00:00	2024-11-08T18:00:00	4	Temperatura máxima	21.5
77059	7	Sololá	717	San Juan la Laguna	12	San Juan la Laguna	9	Septiembre	2023-12-09T00:00:00	2024-11-08T18:00:00	3	Temperatura mínima	20.9
77060	7	Sololá	717	San Juan la Laguna	12	San Juan la Laguna	9	Septiembre	2023-12-09T00:00:00	2024-11-08T18:00:00	5	Humedad	84
77061	7	Sololá	717	San Juan la Laguna	12	San Juan la Laguna	9	Septiembre	2023-12-09T00:00:00	2024-11-08T18:00:00	6	Velocidad del viento	1.6
77062	7	Sololá	717	San Juan la Laguna	12	San Juan la Laguna	9	Septiembre	2023-12-09T00:00:00	2024-11-08T18:00:00	7	Dirección del viento	1.61
77063	7	Sololá	717	San Juan la Laguna	12	San Juan la Laguna	9	Septiembre	2023-12-09T00:00:00	2024-11-08T18:00:00	1	Precipitación	0
77064	7	Sololá	717	San Juan la Laguna	12	San Juan la Laguna	9	Septiembre	2023-12-09T00:00:00	2024-11-08T18:00:00	8	Radiación solar	19
77065	7	Sololá	717	San Juan la Laguna	12	San Juan la Laguna	9	Septiembre	2023-12-09T00:00:00	2024-11-08T19:00:00	2	Temperatura media	20.7
77066	7	Sololá	717	San Juan la Laguna	12	San Juan la Laguna	9	Septiembre	2023-12-09T00:00:00	2024-11-08T19:00:00	4	Temperatura máxima	21
77067	7	Sololá	717	San Juan la Laguna	12	San Juan la Laguna	9	Septiembre	2023-12-09T00:00:00	2024-11-08T19:00:00	3	Temperatura mínima	20.7
77068	7	Sololá	717	San Juan la Laguna	12	San Juan la Laguna	9	Septiembre	2023-12-09T00:00:00	2024-11-08T19:00:00	5	Humedad	85
77069	7	Sololá	717	San Juan la Laguna	12	San Juan la Laguna	9	Septiembre	2023-12-09T00:00:00	2024-11-08T19:00:00	6	Velocidad del viento	0
77070	7	Sololá	717	San Juan la Laguna	12	San Juan la Laguna	9	Septiembre	2023-12-09T00:00:00	2024-11-08T19:00:00	7	Dirección del viento	0
77071	7	Sololá	717	San Juan la Laguna	12	San Juan la Laguna	9	Septiembre	2023-12-09T00:00:00	2024-11-08T19:00:00	1	Precipitación	0
77072	7	Sololá	717	San Juan la Laguna	12	San Juan la Laguna	9	Septiembre	2023-12-09T00:00:00	2024-11-08T19:00:00	8	Radiación solar	0
77073	7	Sololá	717	San Juan la Laguna	12	San Juan la Laguna	9	Septiembre	2023-12-09T00:00:00	2024-11-08T20:00:00	2	Temperatura media	21
77074	7	Sololá	717	San Juan la Laguna	12	San Juan la Laguna	9	Septiembre	2023-12-09T00:00:00	2024-11-08T20:00:00	4	Temperatura máxima	21.1
77075	7	Sololá	717	San Juan la Laguna	12	San Juan la Laguna	9	Septiembre	2023-12-09T00:00:00	2024-11-08T20:00:00	3	Temperatura mínima	20.7
77076	7	Sololá	717	San Juan la Laguna	12	San Juan la Laguna	9	Septiembre	2023-12-09T00:00:00	2024-11-08T20:00:00	5	Humedad	86
77077	7	Sololá	717	San Juan la Laguna	12	San Juan la Laguna	9	Septiembre	2023-12-09T00:00:00	2024-11-08T20:00:00	6	Velocidad del viento	0
77078	7	Sololá	717	San Juan la Laguna	12	San Juan la Laguna	9	Septiembre	2023-12-09T00:00:00	2024-11-08T20:00:00	7	Dirección del viento	0
77079	7	Sololá	717	San Juan la Laguna	12	San Juan la Laguna	9	Septiembre	2023-12-09T00:00:00	2024-11-08T20:00:00	1	Precipitación	0
77080	7	Sololá	717	San Juan la Laguna	12	San Juan la Laguna	9	Septiembre	2023-12-09T00:00:00	2024-11-08T20:00:00	8	Radiación solar	0
77081	7	Sololá	717	San Juan la Laguna	12	San Juan la Laguna	9	Septiembre	2023-12-09T00:00:00	2024-11-08T21:00:00	2	Temperatura media	20.6
77082	7	Sololá	717	San Juan la Laguna	12	San Juan la Laguna	9	Septiembre	2023-12-09T00:00:00	2024-11-08T21:00:00	4	Temperatura máxima	21
77083	7	Sololá	717	San Juan la Laguna	12	San Juan la Laguna	9	Septiembre	2023-12-09T00:00:00	2024-11-08T21:00:00	3	Temperatura mínima	20.6
77084	7	Sololá	717	San Juan la Laguna	12	San Juan la Laguna	9	Septiembre	2023-12-09T00:00:00	2024-11-08T21:00:00	5	Humedad	87
77085	7	Sololá	717	San Juan la Laguna	12	San Juan la Laguna	9	Septiembre	2023-12-09T00:00:00	2024-11-08T21:00:00	6	Velocidad del viento	0
77086	7	Sololá	717	San Juan la Laguna	12	San Juan la Laguna	9	Septiembre	2023-12-09T00:00:00	2024-11-08T21:00:00	7	Dirección del viento	0
77087	7	Sololá	717	San Juan la Laguna	12	San Juan la Laguna	9	Septiembre	2023-12-09T00:00:00	2024-11-08T21:00:00	1	Precipitación	0
77088	7	Sololá	717	San Juan la Laguna	12	San Juan la Laguna	9	Septiembre	2023-12-09T00:00:00	2024-11-08T21:00:00	8	Radiación solar	0
77089	7	Sololá	717	San Juan la Laguna	12	San Juan la Laguna	9	Septiembre	2023-12-09T00:00:00	2024-11-08T22:00:00	2	Temperatura media	19.4
77090	7	Sololá	717	San Juan la Laguna	12	San Juan la Laguna	9	Septiembre	2023-12-09T00:00:00	2024-11-08T22:00:00	4	Temperatura máxima	20.6
77091	7	Sololá	717	San Juan la Laguna	12	San Juan la Laguna	9	Septiembre	2023-12-09T00:00:00	2024-11-08T22:00:00	3	Temperatura mínima	19.3
77092	7	Sololá	717	San Juan la Laguna	12	San Juan la Laguna	9	Septiembre	2023-12-09T00:00:00	2024-11-08T22:00:00	5	Humedad	89
77093	7	Sololá	717	San Juan la Laguna	12	San Juan la Laguna	9	Septiembre	2023-12-09T00:00:00	2024-11-08T22:00:00	6	Velocidad del viento	0
77094	7	Sololá	717	San Juan la Laguna	12	San Juan la Laguna	9	Septiembre	2023-12-09T00:00:00	2024-11-08T22:00:00	7	Dirección del viento	0
77095	7	Sololá	717	San Juan la Laguna	12	San Juan la Laguna	9	Septiembre	2023-12-09T00:00:00	2024-11-08T22:00:00	1	Precipitación	0
77096	7	Sololá	717	San Juan la Laguna	12	San Juan la Laguna	9	Septiembre	2023-12-09T00:00:00	2024-11-08T22:00:00	8	Radiación solar	0
77097	7	Sololá	717	San Juan la Laguna	12	San Juan la Laguna	9	Septiembre	2023-12-09T00:00:00	2024-11-08T23:00:00	2	Temperatura media	19.6
77098	7	Sololá	717	San Juan la Laguna	12	San Juan la Laguna	9	Septiembre	2023-12-09T00:00:00	2024-11-08T23:00:00	4	Temperatura máxima	19.7
77099	7	Sololá	717	San Juan la Laguna	12	San Juan la Laguna	9	Septiembre	2023-12-09T00:00:00	2024-11-08T23:00:00	3	Temperatura mínima	19.4
77100	7	Sololá	717	San Juan la Laguna	12	San Juan la Laguna	9	Septiembre	2023-12-09T00:00:00	2024-11-08T23:00:00	5	Humedad	89
77101	7	Sololá	717	San Juan la Laguna	12	San Juan la Laguna	9	Septiembre	2023-12-09T00:00:00	2024-11-08T23:00:00	6	Velocidad del viento	0
77102	7	Sololá	717	San Juan la Laguna	12	San Juan la Laguna	9	Septiembre	2023-12-09T00:00:00	2024-11-08T23:00:00	7	Dirección del viento	0
77103	7	Sololá	717	San Juan la Laguna	12	San Juan la Laguna	9	Septiembre	2023-12-09T00:00:00	2024-11-08T23:00:00	1	Precipitación	0
77104	7	Sololá	717	San Juan la Laguna	12	San Juan la Laguna	9	Septiembre	2023-12-09T00:00:00	2024-11-08T23:00:00	8	Radiación solar	0
77105	7	Sololá	717	San Juan la Laguna	12	San Juan la Laguna	9	Septiembre	2023-09-13T00:00:00	2024-11-08T00:00:00	2	Temperatura media	19
77106	7	Sololá	717	San Juan la Laguna	12	San Juan la Laguna	9	Septiembre	2023-09-13T00:00:00	2024-11-08T00:00:00	4	Temperatura máxima	19.6
77107	7	Sololá	717	San Juan la Laguna	12	San Juan la Laguna	9	Septiembre	2023-09-13T00:00:00	2024-11-08T00:00:00	3	Temperatura mínima	19
77108	7	Sololá	717	San Juan la Laguna	12	San Juan la Laguna	9	Septiembre	2023-09-13T00:00:00	2024-11-08T00:00:00	5	Humedad	88
77109	7	Sololá	717	San Juan la Laguna	12	San Juan la Laguna	9	Septiembre	2023-09-13T00:00:00	2024-11-08T00:00:00	6	Velocidad del viento	0
77110	7	Sololá	717	San Juan la Laguna	12	San Juan la Laguna	9	Septiembre	2023-09-13T00:00:00	2024-11-08T00:00:00	7	Dirección del viento	0
77111	7	Sololá	717	San Juan la Laguna	12	San Juan la Laguna	9	Septiembre	2023-09-13T00:00:00	2024-11-08T00:00:00	1	Precipitación	0
77112	7	Sololá	717	San Juan la Laguna	12	San Juan la Laguna	9	Septiembre	2023-09-13T00:00:00	2024-11-08T00:00:00	8	Radiación solar	0
77113	7	Sololá	717	San Juan la Laguna	12	San Juan la Laguna	9	Septiembre	2023-09-13T00:00:00	2024-11-08T01:00:00	2	Temperatura media	18.4
77114	7	Sololá	717	San Juan la Laguna	12	San Juan la Laguna	9	Septiembre	2023-09-13T00:00:00	2024-11-08T01:00:00	4	Temperatura máxima	19.1
77115	7	Sololá	717	San Juan la Laguna	12	San Juan la Laguna	9	Septiembre	2023-09-13T00:00:00	2024-11-08T01:00:00	3	Temperatura mínima	18.4
77116	7	Sololá	717	San Juan la Laguna	12	San Juan la Laguna	9	Septiembre	2023-09-13T00:00:00	2024-11-08T01:00:00	5	Humedad	88
77117	7	Sololá	717	San Juan la Laguna	12	San Juan la Laguna	9	Septiembre	2023-09-13T00:00:00	2024-11-08T01:00:00	6	Velocidad del viento	0
77118	7	Sololá	717	San Juan la Laguna	12	San Juan la Laguna	9	Septiembre	2023-09-13T00:00:00	2024-11-08T01:00:00	7	Dirección del viento	0
77119	7	Sololá	717	San Juan la Laguna	12	San Juan la Laguna	9	Septiembre	2023-09-13T00:00:00	2024-11-08T01:00:00	1	Precipitación	0
77120	7	Sololá	717	San Juan la Laguna	12	San Juan la Laguna	9	Septiembre	2023-09-13T00:00:00	2024-11-08T01:00:00	8	Radiación solar	0
77121	7	Sololá	717	San Juan la Laguna	12	San Juan la Laguna	9	Septiembre	2023-09-13T00:00:00	2024-11-08T02:00:00	2	Temperatura media	18.4
77122	7	Sololá	717	San Juan la Laguna	12	San Juan la Laguna	9	Septiembre	2023-09-13T00:00:00	2024-11-08T02:00:00	4	Temperatura máxima	18.4
77123	7	Sololá	717	San Juan la Laguna	12	San Juan la Laguna	9	Septiembre	2023-09-13T00:00:00	2024-11-08T02:00:00	3	Temperatura mínima	18.4
77124	7	Sololá	717	San Juan la Laguna	12	San Juan la Laguna	9	Septiembre	2023-09-13T00:00:00	2024-11-08T02:00:00	5	Humedad	89
77125	7	Sololá	717	San Juan la Laguna	12	San Juan la Laguna	9	Septiembre	2023-09-13T00:00:00	2024-11-08T02:00:00	6	Velocidad del viento	0
77126	7	Sololá	717	San Juan la Laguna	12	San Juan la Laguna	9	Septiembre	2023-09-13T00:00:00	2024-11-08T02:00:00	7	Dirección del viento	0
77127	7	Sololá	717	San Juan la Laguna	12	San Juan la Laguna	9	Septiembre	2023-09-13T00:00:00	2024-11-08T02:00:00	1	Precipitación	0
77128	7	Sololá	717	San Juan la Laguna	12	San Juan la Laguna	9	Septiembre	2023-09-13T00:00:00	2024-11-08T02:00:00	8	Radiación solar	0
77129	7	Sololá	717	San Juan la Laguna	12	San Juan la Laguna	9	Septiembre	2023-09-13T00:00:00	2024-11-08T03:00:00	2	Temperatura media	18.3
77130	7	Sololá	717	San Juan la Laguna	12	San Juan la Laguna	9	Septiembre	2023-09-13T00:00:00	2024-11-08T03:00:00	4	Temperatura máxima	18.5
77131	7	Sololá	717	San Juan la Laguna	12	San Juan la Laguna	9	Septiembre	2023-09-13T00:00:00	2024-11-08T03:00:00	3	Temperatura mínima	18.3
77132	7	Sololá	717	San Juan la Laguna	12	San Juan la Laguna	9	Septiembre	2023-09-13T00:00:00	2024-11-08T03:00:00	5	Humedad	89
77133	7	Sololá	717	San Juan la Laguna	12	San Juan la Laguna	9	Septiembre	2023-09-13T00:00:00	2024-11-08T03:00:00	6	Velocidad del viento	0
77134	7	Sololá	717	San Juan la Laguna	12	San Juan la Laguna	9	Septiembre	2023-09-13T00:00:00	2024-11-08T03:00:00	7	Dirección del viento	0
77135	7	Sololá	717	San Juan la Laguna	12	San Juan la Laguna	9	Septiembre	2023-09-13T00:00:00	2024-11-08T03:00:00	1	Precipitación	0
77136	7	Sololá	717	San Juan la Laguna	12	San Juan la Laguna	9	Septiembre	2023-09-13T00:00:00	2024-11-08T03:00:00	8	Radiación solar	0
77137	7	Sololá	717	San Juan la Laguna	12	San Juan la Laguna	9	Septiembre	2023-09-13T00:00:00	2024-11-08T04:00:00	2	Temperatura media	18.2
77138	7	Sololá	717	San Juan la Laguna	12	San Juan la Laguna	9	Septiembre	2023-09-13T00:00:00	2024-11-08T04:00:00	4	Temperatura máxima	18.6
77139	7	Sololá	717	San Juan la Laguna	12	San Juan la Laguna	9	Septiembre	2023-09-13T00:00:00	2024-11-08T04:00:00	3	Temperatura mínima	18.2
77140	7	Sololá	717	San Juan la Laguna	12	San Juan la Laguna	9	Septiembre	2023-09-13T00:00:00	2024-11-08T04:00:00	5	Humedad	90
77141	7	Sololá	717	San Juan la Laguna	12	San Juan la Laguna	9	Septiembre	2023-09-13T00:00:00	2024-11-08T04:00:00	6	Velocidad del viento	0
77142	7	Sololá	717	San Juan la Laguna	12	San Juan la Laguna	9	Septiembre	2023-09-13T00:00:00	2024-11-08T04:00:00	7	Dirección del viento	0
77143	7	Sololá	717	San Juan la Laguna	12	San Juan la Laguna	9	Septiembre	2023-09-13T00:00:00	2024-11-08T04:00:00	1	Precipitación	0
77144	7	Sololá	717	San Juan la Laguna	12	San Juan la Laguna	9	Septiembre	2023-09-13T00:00:00	2024-11-08T04:00:00	8	Radiación solar	0
77145	7	Sololá	717	San Juan la Laguna	12	San Juan la Laguna	9	Septiembre	2023-09-13T00:00:00	2024-11-08T05:00:00	2	Temperatura media	17.7
77146	7	Sololá	717	San Juan la Laguna	12	San Juan la Laguna	9	Septiembre	2023-09-13T00:00:00	2024-11-08T05:00:00	4	Temperatura máxima	18.2
77147	7	Sololá	717	San Juan la Laguna	12	San Juan la Laguna	9	Septiembre	2023-09-13T00:00:00	2024-11-08T05:00:00	3	Temperatura mínima	17.7
77148	7	Sololá	717	San Juan la Laguna	12	San Juan la Laguna	9	Septiembre	2023-09-13T00:00:00	2024-11-08T05:00:00	5	Humedad	89
77149	7	Sololá	717	San Juan la Laguna	12	San Juan la Laguna	9	Septiembre	2023-09-13T00:00:00	2024-11-08T05:00:00	6	Velocidad del viento	0
77150	7	Sololá	717	San Juan la Laguna	12	San Juan la Laguna	9	Septiembre	2023-09-13T00:00:00	2024-11-08T05:00:00	7	Dirección del viento	0
77151	7	Sololá	717	San Juan la Laguna	12	San Juan la Laguna	9	Septiembre	2023-09-13T00:00:00	2024-11-08T05:00:00	1	Precipitación	0
77152	7	Sololá	717	San Juan la Laguna	12	San Juan la Laguna	9	Septiembre	2023-09-13T00:00:00	2024-11-08T05:00:00	8	Radiación solar	0
77153	7	Sololá	717	San Juan la Laguna	12	San Juan la Laguna	9	Septiembre	2023-09-13T00:00:00	2024-11-08T06:00:00	2	Temperatura media	16.9
77154	7	Sololá	717	San Juan la Laguna	12	San Juan la Laguna	9	Septiembre	2023-09-13T00:00:00	2024-11-08T06:00:00	4	Temperatura máxima	17.7
77155	7	Sololá	717	San Juan la Laguna	12	San Juan la Laguna	9	Septiembre	2023-09-13T00:00:00	2024-11-08T06:00:00	3	Temperatura mínima	16.8
77156	7	Sololá	717	San Juan la Laguna	12	San Juan la Laguna	9	Septiembre	2023-09-13T00:00:00	2024-11-08T06:00:00	5	Humedad	89
77157	7	Sololá	717	San Juan la Laguna	12	San Juan la Laguna	9	Septiembre	2023-09-13T00:00:00	2024-11-08T06:00:00	6	Velocidad del viento	0
77158	7	Sololá	717	San Juan la Laguna	12	San Juan la Laguna	9	Septiembre	2023-09-13T00:00:00	2024-11-08T06:00:00	7	Dirección del viento	0
77159	7	Sololá	717	San Juan la Laguna	12	San Juan la Laguna	9	Septiembre	2023-09-13T00:00:00	2024-11-08T06:00:00	1	Precipitación	0
77160	7	Sololá	717	San Juan la Laguna	12	San Juan la Laguna	9	Septiembre	2023-09-13T00:00:00	2024-11-08T06:00:00	8	Radiación solar	0
77161	7	Sololá	717	San Juan la Laguna	12	San Juan la Laguna	9	Septiembre	2023-09-13T00:00:00	2024-11-08T07:00:00	2	Temperatura media	17.7
77162	7	Sololá	717	San Juan la Laguna	12	San Juan la Laguna	9	Septiembre	2023-09-13T00:00:00	2024-11-08T07:00:00	4	Temperatura máxima	17.7
77163	7	Sololá	717	San Juan la Laguna	12	San Juan la Laguna	9	Septiembre	2023-09-13T00:00:00	2024-11-08T07:00:00	3	Temperatura mínima	16.8
77164	7	Sololá	717	San Juan la Laguna	12	San Juan la Laguna	9	Septiembre	2023-09-13T00:00:00	2024-11-08T07:00:00	5	Humedad	88
77165	7	Sololá	717	San Juan la Laguna	12	San Juan la Laguna	9	Septiembre	2023-09-13T00:00:00	2024-11-08T07:00:00	6	Velocidad del viento	1.6
77166	7	Sololá	717	San Juan la Laguna	12	San Juan la Laguna	9	Septiembre	2023-09-13T00:00:00	2024-11-08T07:00:00	7	Dirección del viento	1.61
77167	7	Sololá	717	San Juan la Laguna	12	San Juan la Laguna	9	Septiembre	2023-09-13T00:00:00	2024-11-08T07:00:00	1	Precipitación	0
77168	7	Sololá	717	San Juan la Laguna	12	San Juan la Laguna	9	Septiembre	2023-09-13T00:00:00	2024-11-08T07:00:00	8	Radiación solar	53
77169	7	Sololá	717	San Juan la Laguna	12	San Juan la Laguna	9	Septiembre	2023-09-13T00:00:00	2024-11-08T08:00:00	2	Temperatura media	20.2
77170	7	Sololá	717	San Juan la Laguna	12	San Juan la Laguna	9	Septiembre	2023-09-13T00:00:00	2024-11-08T08:00:00	4	Temperatura máxima	20.2
77171	7	Sololá	717	San Juan la Laguna	12	San Juan la Laguna	9	Septiembre	2023-09-13T00:00:00	2024-11-08T08:00:00	3	Temperatura mínima	17.7
77172	7	Sololá	717	San Juan la Laguna	12	San Juan la Laguna	9	Septiembre	2023-09-13T00:00:00	2024-11-08T08:00:00	5	Humedad	82
77173	7	Sololá	717	San Juan la Laguna	12	San Juan la Laguna	9	Septiembre	2023-09-13T00:00:00	2024-11-08T08:00:00	6	Velocidad del viento	0
77174	7	Sololá	717	San Juan la Laguna	12	San Juan la Laguna	9	Septiembre	2023-09-13T00:00:00	2024-11-08T08:00:00	7	Dirección del viento	0
77175	7	Sololá	717	San Juan la Laguna	12	San Juan la Laguna	9	Septiembre	2023-09-13T00:00:00	2024-11-08T08:00:00	1	Precipitación	0
77176	7	Sololá	717	San Juan la Laguna	12	San Juan la Laguna	9	Septiembre	2023-09-13T00:00:00	2024-11-08T08:00:00	8	Radiación solar	155
77177	7	Sololá	717	San Juan la Laguna	12	San Juan la Laguna	9	Septiembre	2023-09-13T00:00:00	2024-11-08T09:00:00	2	Temperatura media	23.2
77178	7	Sololá	717	San Juan la Laguna	12	San Juan la Laguna	9	Septiembre	2023-09-13T00:00:00	2024-11-08T09:00:00	4	Temperatura máxima	23.2
77179	7	Sololá	717	San Juan la Laguna	12	San Juan la Laguna	9	Septiembre	2023-09-13T00:00:00	2024-11-08T09:00:00	3	Temperatura mínima	20.2
77180	7	Sololá	717	San Juan la Laguna	12	San Juan la Laguna	9	Septiembre	2023-09-13T00:00:00	2024-11-08T09:00:00	5	Humedad	68
77181	7	Sololá	717	San Juan la Laguna	12	San Juan la Laguna	9	Septiembre	2023-09-13T00:00:00	2024-11-08T09:00:00	6	Velocidad del viento	0
77182	7	Sololá	717	San Juan la Laguna	12	San Juan la Laguna	9	Septiembre	2023-09-13T00:00:00	2024-11-08T09:00:00	7	Dirección del viento	0
77183	7	Sololá	717	San Juan la Laguna	12	San Juan la Laguna	9	Septiembre	2023-09-13T00:00:00	2024-11-08T09:00:00	1	Precipitación	0
77184	7	Sololá	717	San Juan la Laguna	12	San Juan la Laguna	9	Septiembre	2023-09-13T00:00:00	2024-11-08T09:00:00	8	Radiación solar	438
77185	7	Sololá	717	San Juan la Laguna	12	San Juan la Laguna	9	Septiembre	2023-09-13T00:00:00	2024-11-08T10:00:00	2	Temperatura media	23.9
77186	7	Sololá	717	San Juan la Laguna	12	San Juan la Laguna	9	Septiembre	2023-09-13T00:00:00	2024-11-08T10:00:00	4	Temperatura máxima	23.9
77187	7	Sololá	717	San Juan la Laguna	12	San Juan la Laguna	9	Septiembre	2023-09-13T00:00:00	2024-11-08T10:00:00	3	Temperatura mínima	23.2
77188	7	Sololá	717	San Juan la Laguna	12	San Juan la Laguna	9	Septiembre	2023-09-13T00:00:00	2024-11-08T10:00:00	5	Humedad	69
77189	7	Sololá	717	San Juan la Laguna	12	San Juan la Laguna	9	Septiembre	2023-09-13T00:00:00	2024-11-08T10:00:00	6	Velocidad del viento	1.6
77190	7	Sololá	717	San Juan la Laguna	12	San Juan la Laguna	9	Septiembre	2023-09-13T00:00:00	2024-11-08T10:00:00	7	Dirección del viento	1.61
77191	7	Sololá	717	San Juan la Laguna	12	San Juan la Laguna	9	Septiembre	2023-09-13T00:00:00	2024-11-08T10:00:00	1	Precipitación	0
77192	7	Sololá	717	San Juan la Laguna	12	San Juan la Laguna	9	Septiembre	2023-09-13T00:00:00	2024-11-08T10:00:00	8	Radiación solar	728
77193	7	Sololá	717	San Juan la Laguna	12	San Juan la Laguna	9	Septiembre	2023-09-13T00:00:00	2024-11-08T11:00:00	2	Temperatura media	23.9
77194	7	Sololá	717	San Juan la Laguna	12	San Juan la Laguna	9	Septiembre	2023-09-13T00:00:00	2024-11-08T11:00:00	4	Temperatura máxima	24.7
77195	7	Sololá	717	San Juan la Laguna	12	San Juan la Laguna	9	Septiembre	2023-09-13T00:00:00	2024-11-08T11:00:00	3	Temperatura mínima	23.9
77196	7	Sololá	717	San Juan la Laguna	12	San Juan la Laguna	9	Septiembre	2023-09-13T00:00:00	2024-11-08T11:00:00	5	Humedad	70
77197	7	Sololá	717	San Juan la Laguna	12	San Juan la Laguna	9	Septiembre	2023-09-13T00:00:00	2024-11-08T11:00:00	6	Velocidad del viento	1.6
77198	7	Sololá	717	San Juan la Laguna	12	San Juan la Laguna	9	Septiembre	2023-09-13T00:00:00	2024-11-08T11:00:00	7	Dirección del viento	1.61
77199	7	Sololá	717	San Juan la Laguna	12	San Juan la Laguna	9	Septiembre	2023-09-13T00:00:00	2024-11-08T11:00:00	1	Precipitación	0
77200	7	Sololá	717	San Juan la Laguna	12	San Juan la Laguna	9	Septiembre	2023-09-13T00:00:00	2024-11-08T11:00:00	8	Radiación solar	852
77201	7	Sololá	717	San Juan la Laguna	12	San Juan la Laguna	9	Septiembre	2023-09-13T00:00:00	2024-11-08T12:00:00	2	Temperatura media	24.7
77202	7	Sololá	717	San Juan la Laguna	12	San Juan la Laguna	9	Septiembre	2023-09-13T00:00:00	2024-11-08T12:00:00	4	Temperatura máxima	24.7
77203	7	Sololá	717	San Juan la Laguna	12	San Juan la Laguna	9	Septiembre	2023-09-13T00:00:00	2024-11-08T12:00:00	3	Temperatura mínima	23.9
77204	7	Sololá	717	San Juan la Laguna	12	San Juan la Laguna	9	Septiembre	2023-09-13T00:00:00	2024-11-08T12:00:00	5	Humedad	70
77205	7	Sololá	717	San Juan la Laguna	12	San Juan la Laguna	9	Septiembre	2023-09-13T00:00:00	2024-11-08T12:00:00	6	Velocidad del viento	1.6
77206	7	Sololá	717	San Juan la Laguna	12	San Juan la Laguna	9	Septiembre	2023-09-13T00:00:00	2024-11-08T12:00:00	7	Dirección del viento	1.61
77207	7	Sololá	717	San Juan la Laguna	12	San Juan la Laguna	9	Septiembre	2023-09-13T00:00:00	2024-11-08T12:00:00	1	Precipitación	0
77208	7	Sololá	717	San Juan la Laguna	12	San Juan la Laguna	9	Septiembre	2023-09-13T00:00:00	2024-11-08T12:00:00	8	Radiación solar	939
77209	7	Sololá	717	San Juan la Laguna	12	San Juan la Laguna	9	Septiembre	2023-09-13T00:00:00	2024-11-08T13:00:00	2	Temperatura media	24.8
77210	7	Sololá	717	San Juan la Laguna	12	San Juan la Laguna	9	Septiembre	2023-09-13T00:00:00	2024-11-08T13:00:00	4	Temperatura máxima	25.6
77211	7	Sololá	717	San Juan la Laguna	12	San Juan la Laguna	9	Septiembre	2023-09-13T00:00:00	2024-11-08T13:00:00	3	Temperatura mínima	24.7
77212	7	Sololá	717	San Juan la Laguna	12	San Juan la Laguna	9	Septiembre	2023-09-13T00:00:00	2024-11-08T13:00:00	5	Humedad	71
77213	7	Sololá	717	San Juan la Laguna	12	San Juan la Laguna	9	Septiembre	2023-09-13T00:00:00	2024-11-08T13:00:00	6	Velocidad del viento	1.6
77214	7	Sololá	717	San Juan la Laguna	12	San Juan la Laguna	9	Septiembre	2023-09-13T00:00:00	2024-11-08T13:00:00	7	Dirección del viento	1.61
77215	7	Sololá	717	San Juan la Laguna	12	San Juan la Laguna	9	Septiembre	2023-09-13T00:00:00	2024-11-08T13:00:00	1	Precipitación	0
77216	7	Sololá	717	San Juan la Laguna	12	San Juan la Laguna	9	Septiembre	2023-09-13T00:00:00	2024-11-08T13:00:00	8	Radiación solar	930
77217	7	Sololá	717	San Juan la Laguna	12	San Juan la Laguna	9	Septiembre	2023-09-13T00:00:00	2024-11-08T14:00:00	2	Temperatura media	23.3
77218	7	Sololá	717	San Juan la Laguna	12	San Juan la Laguna	9	Septiembre	2023-09-13T00:00:00	2024-11-08T14:00:00	4	Temperatura máxima	24.8
77219	7	Sololá	717	San Juan la Laguna	12	San Juan la Laguna	9	Septiembre	2023-09-13T00:00:00	2024-11-08T14:00:00	3	Temperatura mínima	23.1
77220	7	Sololá	717	San Juan la Laguna	12	San Juan la Laguna	9	Septiembre	2023-09-13T00:00:00	2024-11-08T14:00:00	5	Humedad	76
77221	7	Sololá	717	San Juan la Laguna	12	San Juan la Laguna	9	Septiembre	2023-09-13T00:00:00	2024-11-08T14:00:00	6	Velocidad del viento	9.7
77222	7	Sololá	717	San Juan la Laguna	12	San Juan la Laguna	9	Septiembre	2023-09-13T00:00:00	2024-11-08T14:00:00	7	Dirección del viento	9.66
77223	7	Sololá	717	San Juan la Laguna	12	San Juan la Laguna	9	Septiembre	2023-09-13T00:00:00	2024-11-08T14:00:00	1	Precipitación	0
77224	7	Sololá	717	San Juan la Laguna	12	San Juan la Laguna	9	Septiembre	2023-09-13T00:00:00	2024-11-08T14:00:00	8	Radiación solar	703
77225	7	Sololá	717	San Juan la Laguna	12	San Juan la Laguna	9	Septiembre	2023-09-13T00:00:00	2024-11-08T15:00:00	2	Temperatura media	21.5
77226	7	Sololá	717	San Juan la Laguna	12	San Juan la Laguna	9	Septiembre	2023-09-13T00:00:00	2024-11-08T15:00:00	4	Temperatura máxima	23.5
77227	7	Sololá	717	San Juan la Laguna	12	San Juan la Laguna	9	Septiembre	2023-09-13T00:00:00	2024-11-08T15:00:00	3	Temperatura mínima	21.5
77228	7	Sololá	717	San Juan la Laguna	12	San Juan la Laguna	9	Septiembre	2023-09-13T00:00:00	2024-11-08T15:00:00	5	Humedad	81
77229	7	Sololá	717	San Juan la Laguna	12	San Juan la Laguna	9	Septiembre	2023-09-13T00:00:00	2024-11-08T15:00:00	6	Velocidad del viento	12.9
77230	7	Sololá	717	San Juan la Laguna	12	San Juan la Laguna	9	Septiembre	2023-09-13T00:00:00	2024-11-08T15:00:00	7	Dirección del viento	12.87
77231	7	Sololá	717	San Juan la Laguna	12	San Juan la Laguna	9	Septiembre	2023-09-13T00:00:00	2024-11-08T15:00:00	1	Precipitación	0
77232	7	Sololá	717	San Juan la Laguna	12	San Juan la Laguna	9	Septiembre	2023-09-13T00:00:00	2024-11-08T15:00:00	8	Radiación solar	273
77233	7	Sololá	717	San Juan la Laguna	12	San Juan la Laguna	9	Septiembre	2023-09-13T00:00:00	2024-11-08T16:00:00	2	Temperatura media	20.1
77234	7	Sololá	717	San Juan la Laguna	12	San Juan la Laguna	9	Septiembre	2023-09-13T00:00:00	2024-11-08T16:00:00	4	Temperatura máxima	21.5
77235	7	Sololá	717	San Juan la Laguna	12	San Juan la Laguna	9	Septiembre	2023-09-13T00:00:00	2024-11-08T16:00:00	3	Temperatura mínima	20
77236	7	Sololá	717	San Juan la Laguna	12	San Juan la Laguna	9	Septiembre	2023-09-13T00:00:00	2024-11-08T16:00:00	5	Humedad	88
77237	7	Sololá	717	San Juan la Laguna	12	San Juan la Laguna	9	Septiembre	2023-09-13T00:00:00	2024-11-08T16:00:00	6	Velocidad del viento	1.6
77238	7	Sololá	717	San Juan la Laguna	12	San Juan la Laguna	9	Septiembre	2023-09-13T00:00:00	2024-11-08T16:00:00	7	Dirección del viento	1.61
77239	7	Sololá	717	San Juan la Laguna	12	San Juan la Laguna	9	Septiembre	2023-09-13T00:00:00	2024-11-08T16:00:00	1	Precipitación	1.6
77240	7	Sololá	717	San Juan la Laguna	12	San Juan la Laguna	9	Septiembre	2023-09-13T00:00:00	2024-11-08T16:00:00	8	Radiación solar	66
77241	7	Sololá	717	San Juan la Laguna	12	San Juan la Laguna	9	Septiembre	2023-09-13T00:00:00	2024-11-08T17:00:00	2	Temperatura media	19.8
77242	7	Sololá	717	San Juan la Laguna	12	San Juan la Laguna	9	Septiembre	2023-09-13T00:00:00	2024-11-08T17:00:00	4	Temperatura máxima	20.2
77243	7	Sololá	717	San Juan la Laguna	12	San Juan la Laguna	9	Septiembre	2023-09-13T00:00:00	2024-11-08T17:00:00	3	Temperatura mínima	19.8
77244	7	Sololá	717	San Juan la Laguna	12	San Juan la Laguna	9	Septiembre	2023-09-13T00:00:00	2024-11-08T17:00:00	5	Humedad	88
77245	7	Sololá	717	San Juan la Laguna	12	San Juan la Laguna	9	Septiembre	2023-09-13T00:00:00	2024-11-08T17:00:00	6	Velocidad del viento	3.2
77246	7	Sololá	717	San Juan la Laguna	12	San Juan la Laguna	9	Septiembre	2023-09-13T00:00:00	2024-11-08T17:00:00	7	Dirección del viento	3.22
77247	7	Sololá	717	San Juan la Laguna	12	San Juan la Laguna	9	Septiembre	2023-09-13T00:00:00	2024-11-08T17:00:00	1	Precipitación	0
77248	7	Sololá	717	San Juan la Laguna	12	San Juan la Laguna	9	Septiembre	2023-09-13T00:00:00	2024-11-08T17:00:00	8	Radiación solar	71
77249	7	Sololá	717	San Juan la Laguna	12	San Juan la Laguna	9	Septiembre	2023-09-13T00:00:00	2024-11-08T18:00:00	2	Temperatura media	19.8
77250	7	Sololá	717	San Juan la Laguna	12	San Juan la Laguna	9	Septiembre	2023-09-13T00:00:00	2024-11-08T18:00:00	4	Temperatura máxima	20.2
77251	7	Sololá	717	San Juan la Laguna	12	San Juan la Laguna	9	Septiembre	2023-09-13T00:00:00	2024-11-08T18:00:00	3	Temperatura mínima	19.8
77252	7	Sololá	717	San Juan la Laguna	12	San Juan la Laguna	9	Septiembre	2023-09-13T00:00:00	2024-11-08T18:00:00	5	Humedad	89
77253	7	Sololá	717	San Juan la Laguna	12	San Juan la Laguna	9	Septiembre	2023-09-13T00:00:00	2024-11-08T18:00:00	6	Velocidad del viento	0
77254	7	Sololá	717	San Juan la Laguna	12	San Juan la Laguna	9	Septiembre	2023-09-13T00:00:00	2024-11-08T18:00:00	7	Dirección del viento	0
77255	7	Sololá	717	San Juan la Laguna	12	San Juan la Laguna	9	Septiembre	2023-09-13T00:00:00	2024-11-08T18:00:00	1	Precipitación	0
77256	7	Sololá	717	San Juan la Laguna	12	San Juan la Laguna	9	Septiembre	2023-09-13T00:00:00	2024-11-08T18:00:00	8	Radiación solar	27
77257	7	Sololá	717	San Juan la Laguna	12	San Juan la Laguna	9	Septiembre	2023-09-13T00:00:00	2024-11-08T19:00:00	2	Temperatura media	19.4
77258	7	Sololá	717	San Juan la Laguna	12	San Juan la Laguna	9	Septiembre	2023-09-13T00:00:00	2024-11-08T19:00:00	4	Temperatura máxima	20
77259	7	Sololá	717	San Juan la Laguna	12	San Juan la Laguna	9	Septiembre	2023-09-13T00:00:00	2024-11-08T19:00:00	3	Temperatura mínima	19.4
77260	7	Sololá	717	San Juan la Laguna	12	San Juan la Laguna	9	Septiembre	2023-09-13T00:00:00	2024-11-08T19:00:00	5	Humedad	90
77261	7	Sololá	717	San Juan la Laguna	12	San Juan la Laguna	9	Septiembre	2023-09-13T00:00:00	2024-11-08T19:00:00	6	Velocidad del viento	0
77262	7	Sololá	717	San Juan la Laguna	12	San Juan la Laguna	9	Septiembre	2023-09-13T00:00:00	2024-11-08T19:00:00	7	Dirección del viento	0
77263	7	Sololá	717	San Juan la Laguna	12	San Juan la Laguna	9	Septiembre	2023-09-13T00:00:00	2024-11-08T19:00:00	1	Precipitación	11
77264	7	Sololá	717	San Juan la Laguna	12	San Juan la Laguna	9	Septiembre	2023-09-13T00:00:00	2024-11-08T19:00:00	8	Radiación solar	0
77265	7	Sololá	717	San Juan la Laguna	12	San Juan la Laguna	9	Septiembre	2023-09-13T00:00:00	2024-11-08T20:00:00	2	Temperatura media	18.7
77266	7	Sololá	717	San Juan la Laguna	12	San Juan la Laguna	9	Septiembre	2023-09-13T00:00:00	2024-11-08T20:00:00	4	Temperatura máxima	19.4
77267	7	Sololá	717	San Juan la Laguna	12	San Juan la Laguna	9	Septiembre	2023-09-13T00:00:00	2024-11-08T20:00:00	3	Temperatura mínima	18.4
77268	7	Sololá	717	San Juan la Laguna	12	San Juan la Laguna	9	Septiembre	2023-09-13T00:00:00	2024-11-08T20:00:00	5	Humedad	90
77269	7	Sololá	717	San Juan la Laguna	12	San Juan la Laguna	9	Septiembre	2023-09-13T00:00:00	2024-11-08T20:00:00	6	Velocidad del viento	1.6
77270	7	Sololá	717	San Juan la Laguna	12	San Juan la Laguna	9	Septiembre	2023-09-13T00:00:00	2024-11-08T20:00:00	7	Dirección del viento	1.61
77271	7	Sololá	717	San Juan la Laguna	12	San Juan la Laguna	9	Septiembre	2023-09-13T00:00:00	2024-11-08T20:00:00	1	Precipitación	3.4
77272	7	Sololá	717	San Juan la Laguna	12	San Juan la Laguna	9	Septiembre	2023-09-13T00:00:00	2024-11-08T20:00:00	8	Radiación solar	0
77273	7	Sololá	717	San Juan la Laguna	12	San Juan la Laguna	9	Septiembre	2023-09-13T00:00:00	2024-11-08T21:00:00	2	Temperatura media	18.7
77274	7	Sololá	717	San Juan la Laguna	12	San Juan la Laguna	9	Septiembre	2023-09-13T00:00:00	2024-11-08T21:00:00	4	Temperatura máxima	18.7
77275	7	Sololá	717	San Juan la Laguna	12	San Juan la Laguna	9	Septiembre	2023-09-13T00:00:00	2024-11-08T21:00:00	3	Temperatura mínima	18.4
77276	7	Sololá	717	San Juan la Laguna	12	San Juan la Laguna	9	Septiembre	2023-09-13T00:00:00	2024-11-08T21:00:00	5	Humedad	90
77277	7	Sololá	717	San Juan la Laguna	12	San Juan la Laguna	9	Septiembre	2023-09-13T00:00:00	2024-11-08T21:00:00	6	Velocidad del viento	0
77278	7	Sololá	717	San Juan la Laguna	12	San Juan la Laguna	9	Septiembre	2023-09-13T00:00:00	2024-11-08T21:00:00	7	Dirección del viento	0
77279	7	Sololá	717	San Juan la Laguna	12	San Juan la Laguna	9	Septiembre	2023-09-13T00:00:00	2024-11-08T21:00:00	1	Precipitación	0.4
77280	7	Sololá	717	San Juan la Laguna	12	San Juan la Laguna	9	Septiembre	2023-09-13T00:00:00	2024-11-08T21:00:00	8	Radiación solar	0
77281	7	Sololá	717	San Juan la Laguna	12	San Juan la Laguna	9	Septiembre	2023-09-13T00:00:00	2024-11-08T22:00:00	2	Temperatura media	18.5
77282	7	Sololá	717	San Juan la Laguna	12	San Juan la Laguna	9	Septiembre	2023-09-13T00:00:00	2024-11-08T22:00:00	4	Temperatura máxima	18.7
77283	7	Sololá	717	San Juan la Laguna	12	San Juan la Laguna	9	Septiembre	2023-09-13T00:00:00	2024-11-08T22:00:00	3	Temperatura mínima	18.4
77284	7	Sololá	717	San Juan la Laguna	12	San Juan la Laguna	9	Septiembre	2023-09-13T00:00:00	2024-11-08T22:00:00	5	Humedad	90
77285	7	Sololá	717	San Juan la Laguna	12	San Juan la Laguna	9	Septiembre	2023-09-13T00:00:00	2024-11-08T22:00:00	6	Velocidad del viento	0
77286	7	Sololá	717	San Juan la Laguna	12	San Juan la Laguna	9	Septiembre	2023-09-13T00:00:00	2024-11-08T22:00:00	7	Dirección del viento	0
77287	7	Sololá	717	San Juan la Laguna	12	San Juan la Laguna	9	Septiembre	2023-09-13T00:00:00	2024-11-08T22:00:00	1	Precipitación	0
77288	7	Sololá	717	San Juan la Laguna	12	San Juan la Laguna	9	Septiembre	2023-09-13T00:00:00	2024-11-08T22:00:00	8	Radiación solar	0
77289	7	Sololá	717	San Juan la Laguna	12	San Juan la Laguna	9	Septiembre	2023-09-13T00:00:00	2024-11-08T23:00:00	2	Temperatura media	18.3
77290	7	Sololá	717	San Juan la Laguna	12	San Juan la Laguna	9	Septiembre	2023-09-13T00:00:00	2024-11-08T23:00:00	4	Temperatura máxima	18.5
77291	7	Sololá	717	San Juan la Laguna	12	San Juan la Laguna	9	Septiembre	2023-09-13T00:00:00	2024-11-08T23:00:00	3	Temperatura mínima	18.3
77292	7	Sololá	717	San Juan la Laguna	12	San Juan la Laguna	9	Septiembre	2023-09-13T00:00:00	2024-11-08T23:00:00	5	Humedad	90
77293	7	Sololá	717	San Juan la Laguna	12	San Juan la Laguna	9	Septiembre	2023-09-13T00:00:00	2024-11-08T23:00:00	6	Velocidad del viento	0
77294	7	Sololá	717	San Juan la Laguna	12	San Juan la Laguna	9	Septiembre	2023-09-13T00:00:00	2024-11-08T23:00:00	7	Dirección del viento	0
77295	7	Sololá	717	San Juan la Laguna	12	San Juan la Laguna	9	Septiembre	2023-09-13T00:00:00	2024-11-08T23:00:00	1	Precipitación	0
77296	7	Sololá	717	San Juan la Laguna	12	San Juan la Laguna	9	Septiembre	2023-09-13T00:00:00	2024-11-08T23:00:00	8	Radiación solar	0
77297	7	Sololá	717	San Juan la Laguna	12	San Juan la Laguna	9	Septiembre	2023-09-14T00:00:00	2024-11-08T00:00:00	2	Temperatura media	18.3
77298	7	Sololá	717	San Juan la Laguna	12	San Juan la Laguna	9	Septiembre	2023-09-14T00:00:00	2024-11-08T00:00:00	4	Temperatura máxima	18.7
77299	7	Sololá	717	San Juan la Laguna	12	San Juan la Laguna	9	Septiembre	2023-09-14T00:00:00	2024-11-08T00:00:00	3	Temperatura mínima	18.3
77300	7	Sololá	717	San Juan la Laguna	12	San Juan la Laguna	9	Septiembre	2023-09-14T00:00:00	2024-11-08T00:00:00	5	Humedad	90
77301	7	Sololá	717	San Juan la Laguna	12	San Juan la Laguna	9	Septiembre	2023-09-14T00:00:00	2024-11-08T00:00:00	6	Velocidad del viento	0
77302	7	Sololá	717	San Juan la Laguna	12	San Juan la Laguna	9	Septiembre	2023-09-14T00:00:00	2024-11-08T00:00:00	7	Dirección del viento	0
77303	7	Sololá	717	San Juan la Laguna	12	San Juan la Laguna	9	Septiembre	2023-09-14T00:00:00	2024-11-08T00:00:00	1	Precipitación	0
77304	7	Sololá	717	San Juan la Laguna	12	San Juan la Laguna	9	Septiembre	2023-09-14T00:00:00	2024-11-08T00:00:00	8	Radiación solar	0
77305	7	Sololá	717	San Juan la Laguna	12	San Juan la Laguna	9	Septiembre	2023-09-14T00:00:00	2024-11-08T01:00:00	2	Temperatura media	17.7
77306	7	Sololá	717	San Juan la Laguna	12	San Juan la Laguna	9	Septiembre	2023-09-14T00:00:00	2024-11-08T01:00:00	4	Temperatura máxima	18.3
77307	7	Sololá	717	San Juan la Laguna	12	San Juan la Laguna	9	Septiembre	2023-09-14T00:00:00	2024-11-08T01:00:00	3	Temperatura mínima	17.7
77308	7	Sololá	717	San Juan la Laguna	12	San Juan la Laguna	9	Septiembre	2023-09-14T00:00:00	2024-11-08T01:00:00	5	Humedad	90
77309	7	Sololá	717	San Juan la Laguna	12	San Juan la Laguna	9	Septiembre	2023-09-14T00:00:00	2024-11-08T01:00:00	6	Velocidad del viento	0
77310	7	Sololá	717	San Juan la Laguna	12	San Juan la Laguna	9	Septiembre	2023-09-14T00:00:00	2024-11-08T01:00:00	7	Dirección del viento	0
77311	7	Sololá	717	San Juan la Laguna	12	San Juan la Laguna	9	Septiembre	2023-09-14T00:00:00	2024-11-08T01:00:00	1	Precipitación	0
77312	7	Sololá	717	San Juan la Laguna	12	San Juan la Laguna	9	Septiembre	2023-09-14T00:00:00	2024-11-08T01:00:00	8	Radiación solar	0
77313	7	Sololá	717	San Juan la Laguna	12	San Juan la Laguna	9	Septiembre	2023-09-14T00:00:00	2024-11-08T02:00:00	2	Temperatura media	17.6
77314	7	Sololá	717	San Juan la Laguna	12	San Juan la Laguna	9	Septiembre	2023-09-14T00:00:00	2024-11-08T02:00:00	4	Temperatura máxima	17.7
77315	7	Sololá	717	San Juan la Laguna	12	San Juan la Laguna	9	Septiembre	2023-09-14T00:00:00	2024-11-08T02:00:00	3	Temperatura mínima	17.5
77316	7	Sololá	717	San Juan la Laguna	12	San Juan la Laguna	9	Septiembre	2023-09-14T00:00:00	2024-11-08T02:00:00	5	Humedad	90
77317	7	Sololá	717	San Juan la Laguna	12	San Juan la Laguna	9	Septiembre	2023-09-14T00:00:00	2024-11-08T02:00:00	6	Velocidad del viento	0
77318	7	Sololá	717	San Juan la Laguna	12	San Juan la Laguna	9	Septiembre	2023-09-14T00:00:00	2024-11-08T02:00:00	7	Dirección del viento	0
77319	7	Sololá	717	San Juan la Laguna	12	San Juan la Laguna	9	Septiembre	2023-09-14T00:00:00	2024-11-08T02:00:00	1	Precipitación	0
77320	7	Sololá	717	San Juan la Laguna	12	San Juan la Laguna	9	Septiembre	2023-09-14T00:00:00	2024-11-08T02:00:00	8	Radiación solar	0
77321	7	Sololá	717	San Juan la Laguna	12	San Juan la Laguna	9	Septiembre	2023-09-14T00:00:00	2024-11-08T03:00:00	2	Temperatura media	17.1
77322	7	Sololá	717	San Juan la Laguna	12	San Juan la Laguna	9	Septiembre	2023-09-14T00:00:00	2024-11-08T03:00:00	4	Temperatura máxima	17.7
77323	7	Sololá	717	San Juan la Laguna	12	San Juan la Laguna	9	Septiembre	2023-09-14T00:00:00	2024-11-08T03:00:00	3	Temperatura mínima	17.1
77324	7	Sololá	717	San Juan la Laguna	12	San Juan la Laguna	9	Septiembre	2023-09-14T00:00:00	2024-11-08T03:00:00	5	Humedad	90
77325	7	Sololá	717	San Juan la Laguna	12	San Juan la Laguna	9	Septiembre	2023-09-14T00:00:00	2024-11-08T03:00:00	6	Velocidad del viento	0
77326	7	Sololá	717	San Juan la Laguna	12	San Juan la Laguna	9	Septiembre	2023-09-14T00:00:00	2024-11-08T03:00:00	7	Dirección del viento	0
77327	7	Sololá	717	San Juan la Laguna	12	San Juan la Laguna	9	Septiembre	2023-09-14T00:00:00	2024-11-08T03:00:00	1	Precipitación	0
77328	7	Sololá	717	San Juan la Laguna	12	San Juan la Laguna	9	Septiembre	2023-09-14T00:00:00	2024-11-08T03:00:00	8	Radiación solar	0
77329	7	Sololá	717	San Juan la Laguna	12	San Juan la Laguna	9	Septiembre	2023-09-14T00:00:00	2024-11-08T04:00:00	2	Temperatura media	16.5
77330	7	Sololá	717	San Juan la Laguna	12	San Juan la Laguna	9	Septiembre	2023-09-14T00:00:00	2024-11-08T04:00:00	4	Temperatura máxima	17.1
77331	7	Sololá	717	San Juan la Laguna	12	San Juan la Laguna	9	Septiembre	2023-09-14T00:00:00	2024-11-08T04:00:00	3	Temperatura mínima	16.5
77332	7	Sololá	717	San Juan la Laguna	12	San Juan la Laguna	9	Septiembre	2023-09-14T00:00:00	2024-11-08T04:00:00	5	Humedad	89
77333	7	Sololá	717	San Juan la Laguna	12	San Juan la Laguna	9	Septiembre	2023-09-14T00:00:00	2024-11-08T04:00:00	6	Velocidad del viento	1.6
77334	7	Sololá	717	San Juan la Laguna	12	San Juan la Laguna	9	Septiembre	2023-09-14T00:00:00	2024-11-08T04:00:00	7	Dirección del viento	1.61
77335	7	Sololá	717	San Juan la Laguna	12	San Juan la Laguna	9	Septiembre	2023-09-14T00:00:00	2024-11-08T04:00:00	1	Precipitación	0
77336	7	Sololá	717	San Juan la Laguna	12	San Juan la Laguna	9	Septiembre	2023-09-14T00:00:00	2024-11-08T04:00:00	8	Radiación solar	0
77337	7	Sololá	717	San Juan la Laguna	12	San Juan la Laguna	9	Septiembre	2023-09-14T00:00:00	2024-11-08T05:00:00	2	Temperatura media	15.9
77338	7	Sololá	717	San Juan la Laguna	12	San Juan la Laguna	9	Septiembre	2023-09-14T00:00:00	2024-11-08T05:00:00	4	Temperatura máxima	16.6
77339	7	Sololá	717	San Juan la Laguna	12	San Juan la Laguna	9	Septiembre	2023-09-14T00:00:00	2024-11-08T05:00:00	3	Temperatura mínima	15.9
77340	7	Sololá	717	San Juan la Laguna	12	San Juan la Laguna	9	Septiembre	2023-09-14T00:00:00	2024-11-08T05:00:00	5	Humedad	90
77341	7	Sololá	717	San Juan la Laguna	12	San Juan la Laguna	9	Septiembre	2023-09-14T00:00:00	2024-11-08T05:00:00	6	Velocidad del viento	1.6
77342	7	Sololá	717	San Juan la Laguna	12	San Juan la Laguna	9	Septiembre	2023-09-14T00:00:00	2024-11-08T05:00:00	7	Dirección del viento	1.61
77343	7	Sololá	717	San Juan la Laguna	12	San Juan la Laguna	9	Septiembre	2023-09-14T00:00:00	2024-11-08T05:00:00	1	Precipitación	0
77344	7	Sololá	717	San Juan la Laguna	12	San Juan la Laguna	9	Septiembre	2023-09-14T00:00:00	2024-11-08T05:00:00	8	Radiación solar	0
77345	7	Sololá	717	San Juan la Laguna	12	San Juan la Laguna	9	Septiembre	2023-09-14T00:00:00	2024-11-08T06:00:00	2	Temperatura media	16.2
77346	7	Sololá	717	San Juan la Laguna	12	San Juan la Laguna	9	Septiembre	2023-09-14T00:00:00	2024-11-08T06:00:00	4	Temperatura máxima	16.2
77347	7	Sololá	717	San Juan la Laguna	12	San Juan la Laguna	9	Septiembre	2023-09-14T00:00:00	2024-11-08T06:00:00	3	Temperatura mínima	15.8
77348	7	Sololá	717	San Juan la Laguna	12	San Juan la Laguna	9	Septiembre	2023-09-14T00:00:00	2024-11-08T06:00:00	5	Humedad	90
77349	7	Sololá	717	San Juan la Laguna	12	San Juan la Laguna	9	Septiembre	2023-09-14T00:00:00	2024-11-08T06:00:00	6	Velocidad del viento	0
77350	7	Sololá	717	San Juan la Laguna	12	San Juan la Laguna	9	Septiembre	2023-09-14T00:00:00	2024-11-08T06:00:00	7	Dirección del viento	0
77351	7	Sololá	717	San Juan la Laguna	12	San Juan la Laguna	9	Septiembre	2023-09-14T00:00:00	2024-11-08T06:00:00	1	Precipitación	0
77352	7	Sololá	717	San Juan la Laguna	12	San Juan la Laguna	9	Septiembre	2023-09-14T00:00:00	2024-11-08T06:00:00	8	Radiación solar	0
77353	7	Sololá	717	San Juan la Laguna	12	San Juan la Laguna	9	Septiembre	2023-09-14T00:00:00	2024-11-08T07:00:00	2	Temperatura media	17.3
77354	7	Sololá	717	San Juan la Laguna	12	San Juan la Laguna	9	Septiembre	2023-09-14T00:00:00	2024-11-08T07:00:00	4	Temperatura máxima	17.3
77355	7	Sololá	717	San Juan la Laguna	12	San Juan la Laguna	9	Septiembre	2023-09-14T00:00:00	2024-11-08T07:00:00	3	Temperatura mínima	16.3
77356	7	Sololá	717	San Juan la Laguna	12	San Juan la Laguna	9	Septiembre	2023-09-14T00:00:00	2024-11-08T07:00:00	5	Humedad	89
77357	7	Sololá	717	San Juan la Laguna	12	San Juan la Laguna	9	Septiembre	2023-09-14T00:00:00	2024-11-08T07:00:00	6	Velocidad del viento	0
77358	7	Sololá	717	San Juan la Laguna	12	San Juan la Laguna	9	Septiembre	2023-09-14T00:00:00	2024-11-08T07:00:00	7	Dirección del viento	0
77359	7	Sololá	717	San Juan la Laguna	12	San Juan la Laguna	9	Septiembre	2023-09-14T00:00:00	2024-11-08T07:00:00	1	Precipitación	0
77360	7	Sololá	717	San Juan la Laguna	12	San Juan la Laguna	9	Septiembre	2023-09-14T00:00:00	2024-11-08T07:00:00	8	Radiación solar	55
77361	7	Sololá	717	San Juan la Laguna	12	San Juan la Laguna	9	Septiembre	2023-09-14T00:00:00	2024-11-08T08:00:00	2	Temperatura media	20.2
77362	7	Sololá	717	San Juan la Laguna	12	San Juan la Laguna	9	Septiembre	2023-09-14T00:00:00	2024-11-08T08:00:00	4	Temperatura máxima	20.2
77363	7	Sololá	717	San Juan la Laguna	12	San Juan la Laguna	9	Septiembre	2023-09-14T00:00:00	2024-11-08T08:00:00	3	Temperatura mínima	17.3
77364	7	Sololá	717	San Juan la Laguna	12	San Juan la Laguna	9	Septiembre	2023-09-14T00:00:00	2024-11-08T08:00:00	5	Humedad	81
77365	7	Sololá	717	San Juan la Laguna	12	San Juan la Laguna	9	Septiembre	2023-09-14T00:00:00	2024-11-08T08:00:00	6	Velocidad del viento	0
77366	7	Sololá	717	San Juan la Laguna	12	San Juan la Laguna	9	Septiembre	2023-09-14T00:00:00	2024-11-08T08:00:00	7	Dirección del viento	0
77367	7	Sololá	717	San Juan la Laguna	12	San Juan la Laguna	9	Septiembre	2023-09-14T00:00:00	2024-11-08T08:00:00	1	Precipitación	0
77368	7	Sololá	717	San Juan la Laguna	12	San Juan la Laguna	9	Septiembre	2023-09-14T00:00:00	2024-11-08T08:00:00	8	Radiación solar	214
77369	7	Sololá	717	San Juan la Laguna	12	San Juan la Laguna	9	Septiembre	2023-09-14T00:00:00	2024-11-08T09:00:00	2	Temperatura media	22
77370	7	Sololá	717	San Juan la Laguna	12	San Juan la Laguna	9	Septiembre	2023-09-14T00:00:00	2024-11-08T09:00:00	4	Temperatura máxima	22.1
77371	7	Sololá	717	San Juan la Laguna	12	San Juan la Laguna	9	Septiembre	2023-09-14T00:00:00	2024-11-08T09:00:00	3	Temperatura mínima	20.2
77372	7	Sololá	717	San Juan la Laguna	12	San Juan la Laguna	9	Septiembre	2023-09-14T00:00:00	2024-11-08T09:00:00	5	Humedad	74
77373	7	Sololá	717	San Juan la Laguna	12	San Juan la Laguna	9	Septiembre	2023-09-14T00:00:00	2024-11-08T09:00:00	6	Velocidad del viento	0
77374	7	Sololá	717	San Juan la Laguna	12	San Juan la Laguna	9	Septiembre	2023-09-14T00:00:00	2024-11-08T09:00:00	7	Dirección del viento	0
77375	7	Sololá	717	San Juan la Laguna	12	San Juan la Laguna	9	Septiembre	2023-09-14T00:00:00	2024-11-08T09:00:00	1	Precipitación	0
77376	7	Sololá	717	San Juan la Laguna	12	San Juan la Laguna	9	Septiembre	2023-09-14T00:00:00	2024-11-08T09:00:00	8	Radiación solar	499
77377	7	Sololá	717	San Juan la Laguna	12	San Juan la Laguna	9	Septiembre	2023-09-14T00:00:00	2024-11-08T10:00:00	2	Temperatura media	22.9
77378	7	Sololá	717	San Juan la Laguna	12	San Juan la Laguna	9	Septiembre	2023-09-14T00:00:00	2024-11-08T10:00:00	4	Temperatura máxima	23.4
77379	7	Sololá	717	San Juan la Laguna	12	San Juan la Laguna	9	Septiembre	2023-09-14T00:00:00	2024-11-08T10:00:00	3	Temperatura mínima	21.8
77380	7	Sololá	717	San Juan la Laguna	12	San Juan la Laguna	9	Septiembre	2023-09-14T00:00:00	2024-11-08T10:00:00	5	Humedad	70
77381	7	Sololá	717	San Juan la Laguna	12	San Juan la Laguna	9	Septiembre	2023-09-14T00:00:00	2024-11-08T10:00:00	6	Velocidad del viento	1.6
77382	7	Sololá	717	San Juan la Laguna	12	San Juan la Laguna	9	Septiembre	2023-09-14T00:00:00	2024-11-08T10:00:00	7	Dirección del viento	1.61
77383	7	Sololá	717	San Juan la Laguna	12	San Juan la Laguna	9	Septiembre	2023-09-14T00:00:00	2024-11-08T10:00:00	1	Precipitación	0
77384	7	Sololá	717	San Juan la Laguna	12	San Juan la Laguna	9	Septiembre	2023-09-14T00:00:00	2024-11-08T10:00:00	8	Radiación solar	688
77385	7	Sololá	717	San Juan la Laguna	12	San Juan la Laguna	9	Septiembre	2023-09-14T00:00:00	2024-11-08T11:00:00	2	Temperatura media	24.2
77386	7	Sololá	717	San Juan la Laguna	12	San Juan la Laguna	9	Septiembre	2023-09-14T00:00:00	2024-11-08T11:00:00	4	Temperatura máxima	24.2
77387	7	Sololá	717	San Juan la Laguna	12	San Juan la Laguna	9	Septiembre	2023-09-14T00:00:00	2024-11-08T11:00:00	3	Temperatura mínima	22.6
77388	7	Sololá	717	San Juan la Laguna	12	San Juan la Laguna	9	Septiembre	2023-09-14T00:00:00	2024-11-08T11:00:00	5	Humedad	58
77389	7	Sololá	717	San Juan la Laguna	12	San Juan la Laguna	9	Septiembre	2023-09-14T00:00:00	2024-11-08T11:00:00	6	Velocidad del viento	0
77390	7	Sololá	717	San Juan la Laguna	12	San Juan la Laguna	9	Septiembre	2023-09-14T00:00:00	2024-11-08T11:00:00	7	Dirección del viento	0
77391	7	Sololá	717	San Juan la Laguna	12	San Juan la Laguna	9	Septiembre	2023-09-14T00:00:00	2024-11-08T11:00:00	1	Precipitación	0
77392	7	Sololá	717	San Juan la Laguna	12	San Juan la Laguna	9	Septiembre	2023-09-14T00:00:00	2024-11-08T11:00:00	8	Radiación solar	836
77393	7	Sololá	717	San Juan la Laguna	12	San Juan la Laguna	9	Septiembre	2023-09-14T00:00:00	2024-11-08T12:00:00	2	Temperatura media	25.4
77394	7	Sololá	717	San Juan la Laguna	12	San Juan la Laguna	9	Septiembre	2023-09-14T00:00:00	2024-11-08T12:00:00	4	Temperatura máxima	25.4
77395	7	Sololá	717	San Juan la Laguna	12	San Juan la Laguna	9	Septiembre	2023-09-14T00:00:00	2024-11-08T12:00:00	3	Temperatura mínima	24.2
77396	7	Sololá	717	San Juan la Laguna	12	San Juan la Laguna	9	Septiembre	2023-09-14T00:00:00	2024-11-08T12:00:00	5	Humedad	53
77397	7	Sololá	717	San Juan la Laguna	12	San Juan la Laguna	9	Septiembre	2023-09-14T00:00:00	2024-11-08T12:00:00	6	Velocidad del viento	0
77398	7	Sololá	717	San Juan la Laguna	12	San Juan la Laguna	9	Septiembre	2023-09-14T00:00:00	2024-11-08T12:00:00	7	Dirección del viento	0
77399	7	Sololá	717	San Juan la Laguna	12	San Juan la Laguna	9	Septiembre	2023-09-14T00:00:00	2024-11-08T12:00:00	1	Precipitación	0
77400	7	Sololá	717	San Juan la Laguna	12	San Juan la Laguna	9	Septiembre	2023-09-14T00:00:00	2024-11-08T12:00:00	8	Radiación solar	906
77401	7	Sololá	717	San Juan la Laguna	12	San Juan la Laguna	9	Septiembre	2023-09-14T00:00:00	2024-11-08T13:00:00	2	Temperatura media	25.6
77402	7	Sololá	717	San Juan la Laguna	12	San Juan la Laguna	9	Septiembre	2023-09-14T00:00:00	2024-11-08T13:00:00	4	Temperatura máxima	25.8
77403	7	Sololá	717	San Juan la Laguna	12	San Juan la Laguna	9	Septiembre	2023-09-14T00:00:00	2024-11-08T13:00:00	3	Temperatura mínima	24.9
77404	7	Sololá	717	San Juan la Laguna	12	San Juan la Laguna	9	Septiembre	2023-09-14T00:00:00	2024-11-08T13:00:00	5	Humedad	54
77405	7	Sololá	717	San Juan la Laguna	12	San Juan la Laguna	9	Septiembre	2023-09-14T00:00:00	2024-11-08T13:00:00	6	Velocidad del viento	0
77406	7	Sololá	717	San Juan la Laguna	12	San Juan la Laguna	9	Septiembre	2023-09-14T00:00:00	2024-11-08T13:00:00	7	Dirección del viento	0
77407	7	Sololá	717	San Juan la Laguna	12	San Juan la Laguna	9	Septiembre	2023-09-14T00:00:00	2024-11-08T13:00:00	1	Precipitación	0
77408	7	Sololá	717	San Juan la Laguna	12	San Juan la Laguna	9	Septiembre	2023-09-14T00:00:00	2024-11-08T13:00:00	8	Radiación solar	829
77409	7	Sololá	717	San Juan la Laguna	12	San Juan la Laguna	9	Septiembre	2023-09-14T00:00:00	2024-11-08T14:00:00	2	Temperatura media	25.1
77410	7	Sololá	717	San Juan la Laguna	12	San Juan la Laguna	9	Septiembre	2023-09-14T00:00:00	2024-11-08T14:00:00	4	Temperatura máxima	25.8
77411	7	Sololá	717	San Juan la Laguna	12	San Juan la Laguna	9	Septiembre	2023-09-14T00:00:00	2024-11-08T14:00:00	3	Temperatura mínima	24.9
77412	7	Sololá	717	San Juan la Laguna	12	San Juan la Laguna	9	Septiembre	2023-09-14T00:00:00	2024-11-08T14:00:00	5	Humedad	68
77413	7	Sololá	717	San Juan la Laguna	12	San Juan la Laguna	9	Septiembre	2023-09-14T00:00:00	2024-11-08T14:00:00	6	Velocidad del viento	1.6
77414	7	Sololá	717	San Juan la Laguna	12	San Juan la Laguna	9	Septiembre	2023-09-14T00:00:00	2024-11-08T14:00:00	7	Dirección del viento	1.61
77415	7	Sololá	717	San Juan la Laguna	12	San Juan la Laguna	9	Septiembre	2023-09-14T00:00:00	2024-11-08T14:00:00	1	Precipitación	0
77416	7	Sololá	717	San Juan la Laguna	12	San Juan la Laguna	9	Septiembre	2023-09-14T00:00:00	2024-11-08T14:00:00	8	Radiación solar	875
77417	7	Sololá	717	San Juan la Laguna	12	San Juan la Laguna	9	Septiembre	2023-09-14T00:00:00	2024-11-08T15:00:00	2	Temperatura media	23.5
77418	7	Sololá	717	San Juan la Laguna	12	San Juan la Laguna	9	Septiembre	2023-09-14T00:00:00	2024-11-08T15:00:00	4	Temperatura máxima	25.3
77419	7	Sololá	717	San Juan la Laguna	12	San Juan la Laguna	9	Septiembre	2023-09-14T00:00:00	2024-11-08T15:00:00	3	Temperatura mínima	23.4
77420	7	Sololá	717	San Juan la Laguna	12	San Juan la Laguna	9	Septiembre	2023-09-14T00:00:00	2024-11-08T15:00:00	5	Humedad	71
77421	7	Sololá	717	San Juan la Laguna	12	San Juan la Laguna	9	Septiembre	2023-09-14T00:00:00	2024-11-08T15:00:00	6	Velocidad del viento	6.4
77422	7	Sololá	717	San Juan la Laguna	12	San Juan la Laguna	9	Septiembre	2023-09-14T00:00:00	2024-11-08T15:00:00	7	Dirección del viento	6.44
77423	7	Sololá	717	San Juan la Laguna	12	San Juan la Laguna	9	Septiembre	2023-09-14T00:00:00	2024-11-08T15:00:00	1	Precipitación	0
77424	7	Sololá	717	San Juan la Laguna	12	San Juan la Laguna	9	Septiembre	2023-09-14T00:00:00	2024-11-08T15:00:00	8	Radiación solar	702
77425	7	Sololá	717	San Juan la Laguna	12	San Juan la Laguna	9	Septiembre	2023-09-14T00:00:00	2024-11-08T16:00:00	2	Temperatura media	22.1
77426	7	Sololá	717	San Juan la Laguna	12	San Juan la Laguna	9	Septiembre	2023-09-14T00:00:00	2024-11-08T16:00:00	4	Temperatura máxima	23.7
77427	7	Sololá	717	San Juan la Laguna	12	San Juan la Laguna	9	Septiembre	2023-09-14T00:00:00	2024-11-08T16:00:00	3	Temperatura mínima	22.1
77428	7	Sololá	717	San Juan la Laguna	12	San Juan la Laguna	9	Septiembre	2023-09-14T00:00:00	2024-11-08T16:00:00	5	Humedad	76
77429	7	Sololá	717	San Juan la Laguna	12	San Juan la Laguna	9	Septiembre	2023-09-14T00:00:00	2024-11-08T16:00:00	6	Velocidad del viento	1.6
77430	7	Sololá	717	San Juan la Laguna	12	San Juan la Laguna	9	Septiembre	2023-09-14T00:00:00	2024-11-08T16:00:00	7	Dirección del viento	1.61
77431	7	Sololá	717	San Juan la Laguna	12	San Juan la Laguna	9	Septiembre	2023-09-14T00:00:00	2024-11-08T16:00:00	1	Precipitación	0
77432	7	Sololá	717	San Juan la Laguna	12	San Juan la Laguna	9	Septiembre	2023-09-14T00:00:00	2024-11-08T16:00:00	8	Radiación solar	181
77433	7	Sololá	717	San Juan la Laguna	12	San Juan la Laguna	9	Septiembre	2023-09-14T00:00:00	2024-11-08T17:00:00	2	Temperatura media	22.3
77434	7	Sololá	717	San Juan la Laguna	12	San Juan la Laguna	9	Septiembre	2023-09-14T00:00:00	2024-11-08T17:00:00	4	Temperatura máxima	22.5
77435	7	Sololá	717	San Juan la Laguna	12	San Juan la Laguna	9	Septiembre	2023-09-14T00:00:00	2024-11-08T17:00:00	3	Temperatura mínima	21.9
77436	7	Sololá	717	San Juan la Laguna	12	San Juan la Laguna	9	Septiembre	2023-09-14T00:00:00	2024-11-08T17:00:00	5	Humedad	76
77437	7	Sololá	717	San Juan la Laguna	12	San Juan la Laguna	9	Septiembre	2023-09-14T00:00:00	2024-11-08T17:00:00	6	Velocidad del viento	3.2
77438	7	Sololá	717	San Juan la Laguna	12	San Juan la Laguna	9	Septiembre	2023-09-14T00:00:00	2024-11-08T17:00:00	7	Dirección del viento	3.22
77439	7	Sololá	717	San Juan la Laguna	12	San Juan la Laguna	9	Septiembre	2023-09-14T00:00:00	2024-11-08T17:00:00	1	Precipitación	0
77440	7	Sololá	717	San Juan la Laguna	12	San Juan la Laguna	9	Septiembre	2023-09-14T00:00:00	2024-11-08T17:00:00	8	Radiación solar	140
77441	7	Sololá	717	San Juan la Laguna	12	San Juan la Laguna	9	Septiembre	2023-09-14T00:00:00	2024-11-08T18:00:00	2	Temperatura media	21.3
77442	7	Sololá	717	San Juan la Laguna	12	San Juan la Laguna	9	Septiembre	2023-09-14T00:00:00	2024-11-08T18:00:00	4	Temperatura máxima	22.3
77443	7	Sololá	717	San Juan la Laguna	12	San Juan la Laguna	9	Septiembre	2023-09-14T00:00:00	2024-11-08T18:00:00	3	Temperatura mínima	21.3
77444	7	Sololá	717	San Juan la Laguna	12	San Juan la Laguna	9	Septiembre	2023-09-14T00:00:00	2024-11-08T18:00:00	5	Humedad	81
77445	7	Sololá	717	San Juan la Laguna	12	San Juan la Laguna	9	Septiembre	2023-09-14T00:00:00	2024-11-08T18:00:00	6	Velocidad del viento	1.6
77446	7	Sololá	717	San Juan la Laguna	12	San Juan la Laguna	9	Septiembre	2023-09-14T00:00:00	2024-11-08T18:00:00	7	Dirección del viento	1.61
77447	7	Sololá	717	San Juan la Laguna	12	San Juan la Laguna	9	Septiembre	2023-09-14T00:00:00	2024-11-08T18:00:00	1	Precipitación	0
77448	7	Sololá	717	San Juan la Laguna	12	San Juan la Laguna	9	Septiembre	2023-09-14T00:00:00	2024-11-08T18:00:00	8	Radiación solar	16
77449	7	Sololá	717	San Juan la Laguna	12	San Juan la Laguna	9	Septiembre	2023-09-14T00:00:00	2024-11-08T19:00:00	2	Temperatura media	20.2
77450	7	Sololá	717	San Juan la Laguna	12	San Juan la Laguna	9	Septiembre	2023-09-14T00:00:00	2024-11-08T19:00:00	4	Temperatura máxima	21.3
77451	7	Sololá	717	San Juan la Laguna	12	San Juan la Laguna	9	Septiembre	2023-09-14T00:00:00	2024-11-08T19:00:00	3	Temperatura mínima	20.1
77452	7	Sololá	717	San Juan la Laguna	12	San Juan la Laguna	9	Septiembre	2023-09-14T00:00:00	2024-11-08T19:00:00	5	Humedad	86
77453	7	Sololá	717	San Juan la Laguna	12	San Juan la Laguna	9	Septiembre	2023-09-14T00:00:00	2024-11-08T19:00:00	6	Velocidad del viento	0
77454	7	Sololá	717	San Juan la Laguna	12	San Juan la Laguna	9	Septiembre	2023-09-14T00:00:00	2024-11-08T19:00:00	7	Dirección del viento	0
77455	7	Sololá	717	San Juan la Laguna	12	San Juan la Laguna	9	Septiembre	2023-09-14T00:00:00	2024-11-08T19:00:00	1	Precipitación	0
77456	7	Sololá	717	San Juan la Laguna	12	San Juan la Laguna	9	Septiembre	2023-09-14T00:00:00	2024-11-08T19:00:00	8	Radiación solar	0
77457	7	Sololá	717	San Juan la Laguna	12	San Juan la Laguna	9	Septiembre	2023-09-14T00:00:00	2024-11-08T20:00:00	2	Temperatura media	19.8
77458	7	Sololá	717	San Juan la Laguna	12	San Juan la Laguna	9	Septiembre	2023-09-14T00:00:00	2024-11-08T20:00:00	4	Temperatura máxima	20.3
77459	7	Sololá	717	San Juan la Laguna	12	San Juan la Laguna	9	Septiembre	2023-09-14T00:00:00	2024-11-08T20:00:00	3	Temperatura mínima	19.8
77460	7	Sololá	717	San Juan la Laguna	12	San Juan la Laguna	9	Septiembre	2023-09-14T00:00:00	2024-11-08T20:00:00	5	Humedad	86
77461	7	Sololá	717	San Juan la Laguna	12	San Juan la Laguna	9	Septiembre	2023-09-14T00:00:00	2024-11-08T20:00:00	6	Velocidad del viento	0
77462	7	Sololá	717	San Juan la Laguna	12	San Juan la Laguna	9	Septiembre	2023-09-14T00:00:00	2024-11-08T20:00:00	7	Dirección del viento	0
77463	7	Sololá	717	San Juan la Laguna	12	San Juan la Laguna	9	Septiembre	2023-09-14T00:00:00	2024-11-08T20:00:00	1	Precipitación	0
77464	7	Sololá	717	San Juan la Laguna	12	San Juan la Laguna	9	Septiembre	2023-09-14T00:00:00	2024-11-08T20:00:00	8	Radiación solar	0
77465	7	Sololá	717	San Juan la Laguna	12	San Juan la Laguna	9	Septiembre	2023-09-14T00:00:00	2024-11-08T21:00:00	2	Temperatura media	19.2
77466	7	Sololá	717	San Juan la Laguna	12	San Juan la Laguna	9	Septiembre	2023-09-14T00:00:00	2024-11-08T21:00:00	4	Temperatura máxima	19.8
77467	7	Sololá	717	San Juan la Laguna	12	San Juan la Laguna	9	Septiembre	2023-09-14T00:00:00	2024-11-08T21:00:00	3	Temperatura mínima	19.2
77468	7	Sololá	717	San Juan la Laguna	12	San Juan la Laguna	9	Septiembre	2023-09-14T00:00:00	2024-11-08T21:00:00	5	Humedad	88
77469	7	Sololá	717	San Juan la Laguna	12	San Juan la Laguna	9	Septiembre	2023-09-14T00:00:00	2024-11-08T21:00:00	6	Velocidad del viento	0
77470	7	Sololá	717	San Juan la Laguna	12	San Juan la Laguna	9	Septiembre	2023-09-14T00:00:00	2024-11-08T21:00:00	7	Dirección del viento	0
77471	7	Sololá	717	San Juan la Laguna	12	San Juan la Laguna	9	Septiembre	2023-09-14T00:00:00	2024-11-08T21:00:00	1	Precipitación	0
77472	7	Sololá	717	San Juan la Laguna	12	San Juan la Laguna	9	Septiembre	2023-09-14T00:00:00	2024-11-08T21:00:00	8	Radiación solar	0
77473	7	Sololá	717	San Juan la Laguna	12	San Juan la Laguna	9	Septiembre	2023-09-14T00:00:00	2024-11-08T22:00:00	2	Temperatura media	19.3
77474	7	Sololá	717	San Juan la Laguna	12	San Juan la Laguna	9	Septiembre	2023-09-14T00:00:00	2024-11-08T22:00:00	4	Temperatura máxima	19.7
77475	7	Sololá	717	San Juan la Laguna	12	San Juan la Laguna	9	Septiembre	2023-09-14T00:00:00	2024-11-08T22:00:00	3	Temperatura mínima	19.2
77476	7	Sololá	717	San Juan la Laguna	12	San Juan la Laguna	9	Septiembre	2023-09-14T00:00:00	2024-11-08T22:00:00	5	Humedad	86
77477	7	Sololá	717	San Juan la Laguna	12	San Juan la Laguna	9	Septiembre	2023-09-14T00:00:00	2024-11-08T22:00:00	6	Velocidad del viento	1.6
77478	7	Sololá	717	San Juan la Laguna	12	San Juan la Laguna	9	Septiembre	2023-09-14T00:00:00	2024-11-08T22:00:00	7	Dirección del viento	1.61
77479	7	Sololá	717	San Juan la Laguna	12	San Juan la Laguna	9	Septiembre	2023-09-14T00:00:00	2024-11-08T22:00:00	1	Precipitación	0
77480	7	Sololá	717	San Juan la Laguna	12	San Juan la Laguna	9	Septiembre	2023-09-14T00:00:00	2024-11-08T22:00:00	8	Radiación solar	0
77481	7	Sololá	717	San Juan la Laguna	12	San Juan la Laguna	9	Septiembre	2023-09-14T00:00:00	2024-11-08T23:00:00	2	Temperatura media	18.9
77482	7	Sololá	717	San Juan la Laguna	12	San Juan la Laguna	9	Septiembre	2023-09-14T00:00:00	2024-11-08T23:00:00	4	Temperatura máxima	19.4
77483	7	Sololá	717	San Juan la Laguna	12	San Juan la Laguna	9	Septiembre	2023-09-14T00:00:00	2024-11-08T23:00:00	3	Temperatura mínima	18.9
77484	7	Sololá	717	San Juan la Laguna	12	San Juan la Laguna	9	Septiembre	2023-09-14T00:00:00	2024-11-08T23:00:00	5	Humedad	88
77485	7	Sololá	717	San Juan la Laguna	12	San Juan la Laguna	9	Septiembre	2023-09-14T00:00:00	2024-11-08T23:00:00	6	Velocidad del viento	1.6
77486	7	Sololá	717	San Juan la Laguna	12	San Juan la Laguna	9	Septiembre	2023-09-14T00:00:00	2024-11-08T23:00:00	7	Dirección del viento	1.61
77487	7	Sololá	717	San Juan la Laguna	12	San Juan la Laguna	9	Septiembre	2023-09-14T00:00:00	2024-11-08T23:00:00	1	Precipitación	0
77488	7	Sololá	717	San Juan la Laguna	12	San Juan la Laguna	9	Septiembre	2023-09-14T00:00:00	2024-11-08T23:00:00	8	Radiación solar	0
77489	7	Sololá	717	San Juan la Laguna	12	San Juan la Laguna	9	Septiembre	2023-09-15T00:00:00	2024-11-08T00:00:00	2	Temperatura media	18.3
77490	7	Sololá	717	San Juan la Laguna	12	San Juan la Laguna	9	Septiembre	2023-09-15T00:00:00	2024-11-08T00:00:00	4	Temperatura máxima	18.9
77491	7	Sololá	717	San Juan la Laguna	12	San Juan la Laguna	9	Septiembre	2023-09-15T00:00:00	2024-11-08T00:00:00	3	Temperatura mínima	18.3
77492	7	Sololá	717	San Juan la Laguna	12	San Juan la Laguna	9	Septiembre	2023-09-15T00:00:00	2024-11-08T00:00:00	5	Humedad	88
77493	7	Sololá	717	San Juan la Laguna	12	San Juan la Laguna	9	Septiembre	2023-09-15T00:00:00	2024-11-08T00:00:00	6	Velocidad del viento	1.6
77494	7	Sololá	717	San Juan la Laguna	12	San Juan la Laguna	9	Septiembre	2023-09-15T00:00:00	2024-11-08T00:00:00	7	Dirección del viento	1.61
77495	7	Sololá	717	San Juan la Laguna	12	San Juan la Laguna	9	Septiembre	2023-09-15T00:00:00	2024-11-08T00:00:00	1	Precipitación	0
77496	7	Sololá	717	San Juan la Laguna	12	San Juan la Laguna	9	Septiembre	2023-09-15T00:00:00	2024-11-08T00:00:00	8	Radiación solar	0
77497	7	Sololá	717	San Juan la Laguna	12	San Juan la Laguna	9	Septiembre	2023-09-15T00:00:00	2024-11-08T01:00:00	2	Temperatura media	17.4
77498	7	Sololá	717	San Juan la Laguna	12	San Juan la Laguna	9	Septiembre	2023-09-15T00:00:00	2024-11-08T01:00:00	4	Temperatura máxima	18.3
77499	7	Sololá	717	San Juan la Laguna	12	San Juan la Laguna	9	Septiembre	2023-09-15T00:00:00	2024-11-08T01:00:00	3	Temperatura mínima	17.4
77500	7	Sololá	717	San Juan la Laguna	12	San Juan la Laguna	9	Septiembre	2023-09-15T00:00:00	2024-11-08T01:00:00	5	Humedad	89
77501	7	Sololá	717	San Juan la Laguna	12	San Juan la Laguna	9	Septiembre	2023-09-15T00:00:00	2024-11-08T01:00:00	6	Velocidad del viento	0
77502	7	Sololá	717	San Juan la Laguna	12	San Juan la Laguna	9	Septiembre	2023-09-15T00:00:00	2024-11-08T01:00:00	7	Dirección del viento	0
77503	7	Sololá	717	San Juan la Laguna	12	San Juan la Laguna	9	Septiembre	2023-09-15T00:00:00	2024-11-08T01:00:00	1	Precipitación	0
77504	7	Sololá	717	San Juan la Laguna	12	San Juan la Laguna	9	Septiembre	2023-09-15T00:00:00	2024-11-08T01:00:00	8	Radiación solar	0
77505	7	Sololá	717	San Juan la Laguna	12	San Juan la Laguna	9	Septiembre	2023-09-15T00:00:00	2024-11-08T02:00:00	2	Temperatura media	17.1
77506	7	Sololá	717	San Juan la Laguna	12	San Juan la Laguna	9	Septiembre	2023-09-15T00:00:00	2024-11-08T02:00:00	4	Temperatura máxima	17.4
77507	7	Sololá	717	San Juan la Laguna	12	San Juan la Laguna	9	Septiembre	2023-09-15T00:00:00	2024-11-08T02:00:00	3	Temperatura mínima	17.1
77508	7	Sololá	717	San Juan la Laguna	12	San Juan la Laguna	9	Septiembre	2023-09-15T00:00:00	2024-11-08T02:00:00	5	Humedad	89
77509	7	Sololá	717	San Juan la Laguna	12	San Juan la Laguna	9	Septiembre	2023-09-15T00:00:00	2024-11-08T02:00:00	6	Velocidad del viento	1.6
77510	7	Sololá	717	San Juan la Laguna	12	San Juan la Laguna	9	Septiembre	2023-09-15T00:00:00	2024-11-08T02:00:00	7	Dirección del viento	1.61
77511	7	Sololá	717	San Juan la Laguna	12	San Juan la Laguna	9	Septiembre	2023-09-15T00:00:00	2024-11-08T02:00:00	1	Precipitación	0
77512	7	Sololá	717	San Juan la Laguna	12	San Juan la Laguna	9	Septiembre	2023-09-15T00:00:00	2024-11-08T02:00:00	8	Radiación solar	0
77513	7	Sololá	717	San Juan la Laguna	12	San Juan la Laguna	9	Septiembre	2023-09-15T00:00:00	2024-11-08T03:00:00	2	Temperatura media	16.8
77514	7	Sololá	717	San Juan la Laguna	12	San Juan la Laguna	9	Septiembre	2023-09-15T00:00:00	2024-11-08T03:00:00	4	Temperatura máxima	17.1
77515	7	Sololá	717	San Juan la Laguna	12	San Juan la Laguna	9	Septiembre	2023-09-15T00:00:00	2024-11-08T03:00:00	3	Temperatura mínima	16.7
77516	7	Sololá	717	San Juan la Laguna	12	San Juan la Laguna	9	Septiembre	2023-09-15T00:00:00	2024-11-08T03:00:00	5	Humedad	90
77517	7	Sololá	717	San Juan la Laguna	12	San Juan la Laguna	9	Septiembre	2023-09-15T00:00:00	2024-11-08T03:00:00	6	Velocidad del viento	0
77518	7	Sololá	717	San Juan la Laguna	12	San Juan la Laguna	9	Septiembre	2023-09-15T00:00:00	2024-11-08T03:00:00	7	Dirección del viento	0
77519	7	Sololá	717	San Juan la Laguna	12	San Juan la Laguna	9	Septiembre	2023-09-15T00:00:00	2024-11-08T03:00:00	1	Precipitación	0
77520	7	Sololá	717	San Juan la Laguna	12	San Juan la Laguna	9	Septiembre	2023-09-15T00:00:00	2024-11-08T03:00:00	8	Radiación solar	0
77521	7	Sololá	717	San Juan la Laguna	12	San Juan la Laguna	9	Septiembre	2023-09-15T00:00:00	2024-11-08T04:00:00	2	Temperatura media	16.4
77522	7	Sololá	717	San Juan la Laguna	12	San Juan la Laguna	9	Septiembre	2023-09-15T00:00:00	2024-11-08T04:00:00	4	Temperatura máxima	16.8
77523	7	Sololá	717	San Juan la Laguna	12	San Juan la Laguna	9	Septiembre	2023-09-15T00:00:00	2024-11-08T04:00:00	3	Temperatura mínima	16.3
77524	7	Sololá	717	San Juan la Laguna	12	San Juan la Laguna	9	Septiembre	2023-09-15T00:00:00	2024-11-08T04:00:00	5	Humedad	90
77525	7	Sololá	717	San Juan la Laguna	12	San Juan la Laguna	9	Septiembre	2023-09-15T00:00:00	2024-11-08T04:00:00	6	Velocidad del viento	0
77526	7	Sololá	717	San Juan la Laguna	12	San Juan la Laguna	9	Septiembre	2023-09-15T00:00:00	2024-11-08T04:00:00	7	Dirección del viento	0
77527	7	Sololá	717	San Juan la Laguna	12	San Juan la Laguna	9	Septiembre	2023-09-15T00:00:00	2024-11-08T04:00:00	1	Precipitación	0
77528	7	Sololá	717	San Juan la Laguna	12	San Juan la Laguna	9	Septiembre	2023-09-15T00:00:00	2024-11-08T04:00:00	8	Radiación solar	0
77529	7	Sololá	717	San Juan la Laguna	12	San Juan la Laguna	9	Septiembre	2023-09-15T00:00:00	2024-11-08T05:00:00	2	Temperatura media	15.9
77530	7	Sololá	717	San Juan la Laguna	12	San Juan la Laguna	9	Septiembre	2023-09-15T00:00:00	2024-11-08T05:00:00	4	Temperatura máxima	16.5
77531	7	Sololá	717	San Juan la Laguna	12	San Juan la Laguna	9	Septiembre	2023-09-15T00:00:00	2024-11-08T05:00:00	3	Temperatura mínima	15.9
77532	7	Sololá	717	San Juan la Laguna	12	San Juan la Laguna	9	Septiembre	2023-09-15T00:00:00	2024-11-08T05:00:00	5	Humedad	90
77533	7	Sololá	717	San Juan la Laguna	12	San Juan la Laguna	9	Septiembre	2023-09-15T00:00:00	2024-11-08T05:00:00	6	Velocidad del viento	0
77534	7	Sololá	717	San Juan la Laguna	12	San Juan la Laguna	9	Septiembre	2023-09-15T00:00:00	2024-11-08T05:00:00	7	Dirección del viento	0
77535	7	Sololá	717	San Juan la Laguna	12	San Juan la Laguna	9	Septiembre	2023-09-15T00:00:00	2024-11-08T05:00:00	1	Precipitación	0
77536	7	Sololá	717	San Juan la Laguna	12	San Juan la Laguna	9	Septiembre	2023-09-15T00:00:00	2024-11-08T05:00:00	8	Radiación solar	0
77537	7	Sololá	717	San Juan la Laguna	12	San Juan la Laguna	9	Septiembre	2023-09-15T00:00:00	2024-11-08T06:00:00	2	Temperatura media	15.8
77538	7	Sololá	717	San Juan la Laguna	12	San Juan la Laguna	9	Septiembre	2023-09-15T00:00:00	2024-11-08T06:00:00	4	Temperatura máxima	16.1
77539	7	Sololá	717	San Juan la Laguna	12	San Juan la Laguna	9	Septiembre	2023-09-15T00:00:00	2024-11-08T06:00:00	3	Temperatura mínima	15.8
77540	7	Sololá	717	San Juan la Laguna	12	San Juan la Laguna	9	Septiembre	2023-09-15T00:00:00	2024-11-08T06:00:00	5	Humedad	89
77541	7	Sololá	717	San Juan la Laguna	12	San Juan la Laguna	9	Septiembre	2023-09-15T00:00:00	2024-11-08T06:00:00	6	Velocidad del viento	1.6
77542	7	Sololá	717	San Juan la Laguna	12	San Juan la Laguna	9	Septiembre	2023-09-15T00:00:00	2024-11-08T06:00:00	7	Dirección del viento	1.61
77543	7	Sololá	717	San Juan la Laguna	12	San Juan la Laguna	9	Septiembre	2023-09-15T00:00:00	2024-11-08T06:00:00	1	Precipitación	0
77544	7	Sololá	717	San Juan la Laguna	12	San Juan la Laguna	9	Septiembre	2023-09-15T00:00:00	2024-11-08T06:00:00	8	Radiación solar	0
77545	7	Sololá	717	San Juan la Laguna	12	San Juan la Laguna	9	Septiembre	2023-09-15T00:00:00	2024-11-08T07:00:00	2	Temperatura media	17.4
77546	7	Sololá	717	San Juan la Laguna	12	San Juan la Laguna	9	Septiembre	2023-09-15T00:00:00	2024-11-08T07:00:00	4	Temperatura máxima	17.4
77547	7	Sololá	717	San Juan la Laguna	12	San Juan la Laguna	9	Septiembre	2023-09-15T00:00:00	2024-11-08T07:00:00	3	Temperatura mínima	15.8
77548	7	Sololá	717	San Juan la Laguna	12	San Juan la Laguna	9	Septiembre	2023-09-15T00:00:00	2024-11-08T07:00:00	5	Humedad	84
77549	7	Sololá	717	San Juan la Laguna	12	San Juan la Laguna	9	Septiembre	2023-09-15T00:00:00	2024-11-08T07:00:00	6	Velocidad del viento	1.6
77550	7	Sololá	717	San Juan la Laguna	12	San Juan la Laguna	9	Septiembre	2023-09-15T00:00:00	2024-11-08T07:00:00	7	Dirección del viento	1.61
77551	7	Sololá	717	San Juan la Laguna	12	San Juan la Laguna	9	Septiembre	2023-09-15T00:00:00	2024-11-08T07:00:00	1	Precipitación	0
77552	7	Sololá	717	San Juan la Laguna	12	San Juan la Laguna	9	Septiembre	2023-09-15T00:00:00	2024-11-08T07:00:00	8	Radiación solar	41
77553	7	Sololá	717	San Juan la Laguna	12	San Juan la Laguna	9	Septiembre	2023-09-15T00:00:00	2024-11-08T08:00:00	2	Temperatura media	20.8
77554	7	Sololá	717	San Juan la Laguna	12	San Juan la Laguna	9	Septiembre	2023-09-15T00:00:00	2024-11-08T08:00:00	4	Temperatura máxima	20.8
77555	7	Sololá	717	San Juan la Laguna	12	San Juan la Laguna	9	Septiembre	2023-09-15T00:00:00	2024-11-08T08:00:00	3	Temperatura mínima	17.4
77556	7	Sololá	717	San Juan la Laguna	12	San Juan la Laguna	9	Septiembre	2023-09-15T00:00:00	2024-11-08T08:00:00	5	Humedad	74
77557	7	Sololá	717	San Juan la Laguna	12	San Juan la Laguna	9	Septiembre	2023-09-15T00:00:00	2024-11-08T08:00:00	6	Velocidad del viento	0
77558	7	Sololá	717	San Juan la Laguna	12	San Juan la Laguna	9	Septiembre	2023-09-15T00:00:00	2024-11-08T08:00:00	7	Dirección del viento	0
77559	7	Sololá	717	San Juan la Laguna	12	San Juan la Laguna	9	Septiembre	2023-09-15T00:00:00	2024-11-08T08:00:00	1	Precipitación	0
77560	7	Sololá	717	San Juan la Laguna	12	San Juan la Laguna	9	Septiembre	2023-09-15T00:00:00	2024-11-08T08:00:00	8	Radiación solar	158
77561	7	Sololá	717	San Juan la Laguna	12	San Juan la Laguna	9	Septiembre	2023-09-15T00:00:00	2024-11-08T09:00:00	2	Temperatura media	22.5
77562	7	Sololá	717	San Juan la Laguna	12	San Juan la Laguna	9	Septiembre	2023-09-15T00:00:00	2024-11-08T09:00:00	4	Temperatura máxima	23.1
77563	7	Sololá	717	San Juan la Laguna	12	San Juan la Laguna	9	Septiembre	2023-09-15T00:00:00	2024-11-08T09:00:00	3	Temperatura mínima	20.8
77564	7	Sololá	717	San Juan la Laguna	12	San Juan la Laguna	9	Septiembre	2023-09-15T00:00:00	2024-11-08T09:00:00	5	Humedad	67
77565	7	Sololá	717	San Juan la Laguna	12	San Juan la Laguna	9	Septiembre	2023-09-15T00:00:00	2024-11-08T09:00:00	6	Velocidad del viento	1.6
77566	7	Sololá	717	San Juan la Laguna	12	San Juan la Laguna	9	Septiembre	2023-09-15T00:00:00	2024-11-08T09:00:00	7	Dirección del viento	1.61
77567	7	Sololá	717	San Juan la Laguna	12	San Juan la Laguna	9	Septiembre	2023-09-15T00:00:00	2024-11-08T09:00:00	1	Precipitación	0
77568	7	Sololá	717	San Juan la Laguna	12	San Juan la Laguna	9	Septiembre	2023-09-15T00:00:00	2024-11-08T09:00:00	8	Radiación solar	490
77569	7	Sololá	717	San Juan la Laguna	12	San Juan la Laguna	9	Septiembre	2023-09-15T00:00:00	2024-11-08T10:00:00	2	Temperatura media	24.3
77570	7	Sololá	717	San Juan la Laguna	12	San Juan la Laguna	9	Septiembre	2023-09-15T00:00:00	2024-11-08T10:00:00	4	Temperatura máxima	24.3
77571	7	Sololá	717	San Juan la Laguna	12	San Juan la Laguna	9	Septiembre	2023-09-15T00:00:00	2024-11-08T10:00:00	3	Temperatura mínima	22.4
77572	7	Sololá	717	San Juan la Laguna	12	San Juan la Laguna	9	Septiembre	2023-09-15T00:00:00	2024-11-08T10:00:00	5	Humedad	62
77573	7	Sololá	717	San Juan la Laguna	12	San Juan la Laguna	9	Septiembre	2023-09-15T00:00:00	2024-11-08T10:00:00	6	Velocidad del viento	0
77574	7	Sololá	717	San Juan la Laguna	12	San Juan la Laguna	9	Septiembre	2023-09-15T00:00:00	2024-11-08T10:00:00	7	Dirección del viento	0
77575	7	Sololá	717	San Juan la Laguna	12	San Juan la Laguna	9	Septiembre	2023-09-15T00:00:00	2024-11-08T10:00:00	1	Precipitación	0
77576	7	Sololá	717	San Juan la Laguna	12	San Juan la Laguna	9	Septiembre	2023-09-15T00:00:00	2024-11-08T10:00:00	8	Radiación solar	708
77577	7	Sololá	717	San Juan la Laguna	12	San Juan la Laguna	9	Septiembre	2023-09-15T00:00:00	2024-11-08T11:00:00	2	Temperatura media	24.6
77578	7	Sololá	717	San Juan la Laguna	12	San Juan la Laguna	9	Septiembre	2023-09-15T00:00:00	2024-11-08T11:00:00	4	Temperatura máxima	24.8
77579	7	Sololá	717	San Juan la Laguna	12	San Juan la Laguna	9	Septiembre	2023-09-15T00:00:00	2024-11-08T11:00:00	3	Temperatura mínima	23.6
77580	7	Sololá	717	San Juan la Laguna	12	San Juan la Laguna	9	Septiembre	2023-09-15T00:00:00	2024-11-08T11:00:00	5	Humedad	58
77581	7	Sololá	717	San Juan la Laguna	12	San Juan la Laguna	9	Septiembre	2023-09-15T00:00:00	2024-11-08T11:00:00	6	Velocidad del viento	1.6
77582	7	Sololá	717	San Juan la Laguna	12	San Juan la Laguna	9	Septiembre	2023-09-15T00:00:00	2024-11-08T11:00:00	7	Dirección del viento	1.61
77583	7	Sololá	717	San Juan la Laguna	12	San Juan la Laguna	9	Septiembre	2023-09-15T00:00:00	2024-11-08T11:00:00	1	Precipitación	0
77584	7	Sololá	717	San Juan la Laguna	12	San Juan la Laguna	9	Septiembre	2023-09-15T00:00:00	2024-11-08T11:00:00	8	Radiación solar	836
77585	7	Sololá	717	San Juan la Laguna	12	San Juan la Laguna	9	Septiembre	2023-09-15T00:00:00	2024-11-08T12:00:00	2	Temperatura media	26.2
77586	7	Sololá	717	San Juan la Laguna	12	San Juan la Laguna	9	Septiembre	2023-09-15T00:00:00	2024-11-08T12:00:00	4	Temperatura máxima	26.3
77587	7	Sololá	717	San Juan la Laguna	12	San Juan la Laguna	9	Septiembre	2023-09-15T00:00:00	2024-11-08T12:00:00	3	Temperatura mínima	24.6
77588	7	Sololá	717	San Juan la Laguna	12	San Juan la Laguna	9	Septiembre	2023-09-15T00:00:00	2024-11-08T12:00:00	5	Humedad	56
77589	7	Sololá	717	San Juan la Laguna	12	San Juan la Laguna	9	Septiembre	2023-09-15T00:00:00	2024-11-08T12:00:00	6	Velocidad del viento	0
77590	7	Sololá	717	San Juan la Laguna	12	San Juan la Laguna	9	Septiembre	2023-09-15T00:00:00	2024-11-08T12:00:00	7	Dirección del viento	0
77591	7	Sololá	717	San Juan la Laguna	12	San Juan la Laguna	9	Septiembre	2023-09-15T00:00:00	2024-11-08T12:00:00	1	Precipitación	0
77592	7	Sololá	717	San Juan la Laguna	12	San Juan la Laguna	9	Septiembre	2023-09-15T00:00:00	2024-11-08T12:00:00	8	Radiación solar	916
77593	7	Sololá	717	San Juan la Laguna	12	San Juan la Laguna	9	Septiembre	2023-09-15T00:00:00	2024-11-08T13:00:00	2	Temperatura media	26.1
77594	7	Sololá	717	San Juan la Laguna	12	San Juan la Laguna	9	Septiembre	2023-09-15T00:00:00	2024-11-08T13:00:00	4	Temperatura máxima	26.4
77595	7	Sololá	717	San Juan la Laguna	12	San Juan la Laguna	9	Septiembre	2023-09-15T00:00:00	2024-11-08T13:00:00	3	Temperatura mínima	25.6
77596	7	Sololá	717	San Juan la Laguna	12	San Juan la Laguna	9	Septiembre	2023-09-15T00:00:00	2024-11-08T13:00:00	5	Humedad	62
77597	7	Sololá	717	San Juan la Laguna	12	San Juan la Laguna	9	Septiembre	2023-09-15T00:00:00	2024-11-08T13:00:00	6	Velocidad del viento	1.6
77598	7	Sololá	717	San Juan la Laguna	12	San Juan la Laguna	9	Septiembre	2023-09-15T00:00:00	2024-11-08T13:00:00	7	Dirección del viento	1.61
77599	7	Sololá	717	San Juan la Laguna	12	San Juan la Laguna	9	Septiembre	2023-09-15T00:00:00	2024-11-08T13:00:00	1	Precipitación	0
77600	7	Sololá	717	San Juan la Laguna	12	San Juan la Laguna	9	Septiembre	2023-09-15T00:00:00	2024-11-08T13:00:00	8	Radiación solar	937
77601	7	Sololá	717	San Juan la Laguna	12	San Juan la Laguna	9	Septiembre	2023-09-15T00:00:00	2024-11-08T14:00:00	2	Temperatura media	23.1
77602	7	Sololá	717	San Juan la Laguna	12	San Juan la Laguna	9	Septiembre	2023-09-15T00:00:00	2024-11-08T14:00:00	4	Temperatura máxima	26.2
77603	7	Sololá	717	San Juan la Laguna	12	San Juan la Laguna	9	Septiembre	2023-09-15T00:00:00	2024-11-08T14:00:00	3	Temperatura mínima	23.1
77604	7	Sololá	717	San Juan la Laguna	12	San Juan la Laguna	9	Septiembre	2023-09-15T00:00:00	2024-11-08T14:00:00	5	Humedad	74
77605	7	Sololá	717	San Juan la Laguna	12	San Juan la Laguna	9	Septiembre	2023-09-15T00:00:00	2024-11-08T14:00:00	6	Velocidad del viento	1.6
77606	7	Sololá	717	San Juan la Laguna	12	San Juan la Laguna	9	Septiembre	2023-09-15T00:00:00	2024-11-08T14:00:00	7	Dirección del viento	1.61
77607	7	Sololá	717	San Juan la Laguna	12	San Juan la Laguna	9	Septiembre	2023-09-15T00:00:00	2024-11-08T14:00:00	1	Precipitación	0
77608	7	Sololá	717	San Juan la Laguna	12	San Juan la Laguna	9	Septiembre	2023-09-15T00:00:00	2024-11-08T14:00:00	8	Radiación solar	614
77609	7	Sololá	717	San Juan la Laguna	12	San Juan la Laguna	9	Septiembre	2023-09-15T00:00:00	2024-11-08T15:00:00	2	Temperatura media	20.7
77610	7	Sololá	717	San Juan la Laguna	12	San Juan la Laguna	9	Septiembre	2023-09-15T00:00:00	2024-11-08T15:00:00	4	Temperatura máxima	23.2
77611	7	Sololá	717	San Juan la Laguna	12	San Juan la Laguna	9	Septiembre	2023-09-15T00:00:00	2024-11-08T15:00:00	3	Temperatura mínima	20.4
77612	7	Sololá	717	San Juan la Laguna	12	San Juan la Laguna	9	Septiembre	2023-09-15T00:00:00	2024-11-08T15:00:00	5	Humedad	83
77613	7	Sololá	717	San Juan la Laguna	12	San Juan la Laguna	9	Septiembre	2023-09-15T00:00:00	2024-11-08T15:00:00	6	Velocidad del viento	1.6
77614	7	Sololá	717	San Juan la Laguna	12	San Juan la Laguna	9	Septiembre	2023-09-15T00:00:00	2024-11-08T15:00:00	7	Dirección del viento	1.61
77615	7	Sololá	717	San Juan la Laguna	12	San Juan la Laguna	9	Septiembre	2023-09-15T00:00:00	2024-11-08T15:00:00	1	Precipitación	0
77616	7	Sololá	717	San Juan la Laguna	12	San Juan la Laguna	9	Septiembre	2023-09-15T00:00:00	2024-11-08T15:00:00	8	Radiación solar	125
77617	7	Sololá	717	San Juan la Laguna	12	San Juan la Laguna	9	Septiembre	2023-09-15T00:00:00	2024-11-08T16:00:00	2	Temperatura media	19.3
77618	7	Sololá	717	San Juan la Laguna	12	San Juan la Laguna	9	Septiembre	2023-09-15T00:00:00	2024-11-08T16:00:00	4	Temperatura máxima	20.8
77619	7	Sololá	717	San Juan la Laguna	12	San Juan la Laguna	9	Septiembre	2023-09-15T00:00:00	2024-11-08T16:00:00	3	Temperatura mínima	19.3
77620	7	Sololá	717	San Juan la Laguna	12	San Juan la Laguna	9	Septiembre	2023-09-15T00:00:00	2024-11-08T16:00:00	5	Humedad	87
77621	7	Sololá	717	San Juan la Laguna	12	San Juan la Laguna	9	Septiembre	2023-09-15T00:00:00	2024-11-08T16:00:00	6	Velocidad del viento	6.4
77622	7	Sololá	717	San Juan la Laguna	12	San Juan la Laguna	9	Septiembre	2023-09-15T00:00:00	2024-11-08T16:00:00	7	Dirección del viento	6.44
77623	7	Sololá	717	San Juan la Laguna	12	San Juan la Laguna	9	Septiembre	2023-09-15T00:00:00	2024-11-08T16:00:00	1	Precipitación	0.4
77624	7	Sololá	717	San Juan la Laguna	12	San Juan la Laguna	9	Septiembre	2023-09-15T00:00:00	2024-11-08T16:00:00	8	Radiación solar	107
77625	7	Sololá	717	San Juan la Laguna	12	San Juan la Laguna	9	Septiembre	2023-09-15T00:00:00	2024-11-08T17:00:00	2	Temperatura media	18.5
77626	7	Sololá	717	San Juan la Laguna	12	San Juan la Laguna	9	Septiembre	2023-09-15T00:00:00	2024-11-08T17:00:00	4	Temperatura máxima	19.3
77627	7	Sololá	717	San Juan la Laguna	12	San Juan la Laguna	9	Septiembre	2023-09-15T00:00:00	2024-11-08T17:00:00	3	Temperatura mínima	18.5
77628	7	Sololá	717	San Juan la Laguna	12	San Juan la Laguna	9	Septiembre	2023-09-15T00:00:00	2024-11-08T17:00:00	5	Humedad	90
77629	7	Sololá	717	San Juan la Laguna	12	San Juan la Laguna	9	Septiembre	2023-09-15T00:00:00	2024-11-08T17:00:00	6	Velocidad del viento	8
77630	7	Sololá	717	San Juan la Laguna	12	San Juan la Laguna	9	Septiembre	2023-09-15T00:00:00	2024-11-08T17:00:00	7	Dirección del viento	8.05
77631	7	Sololá	717	San Juan la Laguna	12	San Juan la Laguna	9	Septiembre	2023-09-15T00:00:00	2024-11-08T17:00:00	1	Precipitación	3.8
77632	7	Sololá	717	San Juan la Laguna	12	San Juan la Laguna	9	Septiembre	2023-09-15T00:00:00	2024-11-08T17:00:00	8	Radiación solar	46
77633	7	Sololá	717	San Juan la Laguna	12	San Juan la Laguna	9	Septiembre	2023-09-15T00:00:00	2024-11-08T18:00:00	2	Temperatura media	17.8
77634	7	Sololá	717	San Juan la Laguna	12	San Juan la Laguna	9	Septiembre	2023-09-15T00:00:00	2024-11-08T18:00:00	4	Temperatura máxima	18.6
77635	7	Sololá	717	San Juan la Laguna	12	San Juan la Laguna	9	Septiembre	2023-09-15T00:00:00	2024-11-08T18:00:00	3	Temperatura mínima	17.6
77636	7	Sololá	717	San Juan la Laguna	12	San Juan la Laguna	9	Septiembre	2023-09-15T00:00:00	2024-11-08T18:00:00	5	Humedad	89
77637	7	Sololá	717	San Juan la Laguna	12	San Juan la Laguna	9	Septiembre	2023-09-15T00:00:00	2024-11-08T18:00:00	6	Velocidad del viento	11.3
77638	7	Sololá	717	San Juan la Laguna	12	San Juan la Laguna	9	Septiembre	2023-09-15T00:00:00	2024-11-08T18:00:00	7	Dirección del viento	11.27
77639	7	Sololá	717	San Juan la Laguna	12	San Juan la Laguna	9	Septiembre	2023-09-15T00:00:00	2024-11-08T18:00:00	1	Precipitación	0.2
77640	7	Sololá	717	San Juan la Laguna	12	San Juan la Laguna	9	Septiembre	2023-09-15T00:00:00	2024-11-08T18:00:00	8	Radiación solar	22
77641	7	Sololá	717	San Juan la Laguna	12	San Juan la Laguna	9	Septiembre	2023-09-15T00:00:00	2024-11-08T19:00:00	2	Temperatura media	17.7
77642	7	Sololá	717	San Juan la Laguna	12	San Juan la Laguna	9	Septiembre	2023-09-15T00:00:00	2024-11-08T19:00:00	4	Temperatura máxima	18
77643	7	Sololá	717	San Juan la Laguna	12	San Juan la Laguna	9	Septiembre	2023-09-15T00:00:00	2024-11-08T19:00:00	3	Temperatura mínima	17.6
77644	7	Sololá	717	San Juan la Laguna	12	San Juan la Laguna	9	Septiembre	2023-09-15T00:00:00	2024-11-08T19:00:00	5	Humedad	89
77645	7	Sololá	717	San Juan la Laguna	12	San Juan la Laguna	9	Septiembre	2023-09-15T00:00:00	2024-11-08T19:00:00	6	Velocidad del viento	6.4
77646	7	Sololá	717	San Juan la Laguna	12	San Juan la Laguna	9	Septiembre	2023-09-15T00:00:00	2024-11-08T19:00:00	7	Dirección del viento	6.44
77647	7	Sololá	717	San Juan la Laguna	12	San Juan la Laguna	9	Septiembre	2023-09-15T00:00:00	2024-11-08T19:00:00	1	Precipitación	0
77648	7	Sololá	717	San Juan la Laguna	12	San Juan la Laguna	9	Septiembre	2023-09-15T00:00:00	2024-11-08T19:00:00	8	Radiación solar	0
77649	7	Sololá	717	San Juan la Laguna	12	San Juan la Laguna	9	Septiembre	2023-09-15T00:00:00	2024-11-08T20:00:00	2	Temperatura media	17.2
77650	7	Sololá	717	San Juan la Laguna	12	San Juan la Laguna	9	Septiembre	2023-09-15T00:00:00	2024-11-08T20:00:00	4	Temperatura máxima	17.7
77651	7	Sololá	717	San Juan la Laguna	12	San Juan la Laguna	9	Septiembre	2023-09-15T00:00:00	2024-11-08T20:00:00	3	Temperatura mínima	17.2
77652	7	Sololá	717	San Juan la Laguna	12	San Juan la Laguna	9	Septiembre	2023-09-15T00:00:00	2024-11-08T20:00:00	5	Humedad	90
77653	7	Sololá	717	San Juan la Laguna	12	San Juan la Laguna	9	Septiembre	2023-09-15T00:00:00	2024-11-08T20:00:00	6	Velocidad del viento	4.8
77654	7	Sololá	717	San Juan la Laguna	12	San Juan la Laguna	9	Septiembre	2023-09-15T00:00:00	2024-11-08T20:00:00	7	Dirección del viento	4.83
77655	7	Sololá	717	San Juan la Laguna	12	San Juan la Laguna	9	Septiembre	2023-09-15T00:00:00	2024-11-08T20:00:00	1	Precipitación	0
77656	7	Sololá	717	San Juan la Laguna	12	San Juan la Laguna	9	Septiembre	2023-09-15T00:00:00	2024-11-08T20:00:00	8	Radiación solar	0
77657	7	Sololá	717	San Juan la Laguna	12	San Juan la Laguna	9	Septiembre	2023-09-15T00:00:00	2024-11-08T21:00:00	2	Temperatura media	16.9
77658	7	Sololá	717	San Juan la Laguna	12	San Juan la Laguna	9	Septiembre	2023-09-15T00:00:00	2024-11-08T21:00:00	4	Temperatura máxima	17.3
77659	7	Sololá	717	San Juan la Laguna	12	San Juan la Laguna	9	Septiembre	2023-09-15T00:00:00	2024-11-08T21:00:00	3	Temperatura mínima	16.8
77660	7	Sololá	717	San Juan la Laguna	12	San Juan la Laguna	9	Septiembre	2023-09-15T00:00:00	2024-11-08T21:00:00	5	Humedad	89
77661	7	Sololá	717	San Juan la Laguna	12	San Juan la Laguna	9	Septiembre	2023-09-15T00:00:00	2024-11-08T21:00:00	6	Velocidad del viento	4.8
77662	7	Sololá	717	San Juan la Laguna	12	San Juan la Laguna	9	Septiembre	2023-09-15T00:00:00	2024-11-08T21:00:00	7	Dirección del viento	4.83
77663	7	Sololá	717	San Juan la Laguna	12	San Juan la Laguna	9	Septiembre	2023-09-15T00:00:00	2024-11-08T21:00:00	1	Precipitación	0
77664	7	Sololá	717	San Juan la Laguna	12	San Juan la Laguna	9	Septiembre	2023-09-15T00:00:00	2024-11-08T21:00:00	8	Radiación solar	0
77665	7	Sololá	717	San Juan la Laguna	12	San Juan la Laguna	9	Septiembre	2023-09-15T00:00:00	2024-11-08T22:00:00	2	Temperatura media	16.6
77666	7	Sololá	717	San Juan la Laguna	12	San Juan la Laguna	9	Septiembre	2023-09-15T00:00:00	2024-11-08T22:00:00	4	Temperatura máxima	16.9
77667	7	Sololá	717	San Juan la Laguna	12	San Juan la Laguna	9	Septiembre	2023-09-15T00:00:00	2024-11-08T22:00:00	3	Temperatura mínima	16.4
77668	7	Sololá	717	San Juan la Laguna	12	San Juan la Laguna	9	Septiembre	2023-09-15T00:00:00	2024-11-08T22:00:00	5	Humedad	90
77669	7	Sololá	717	San Juan la Laguna	12	San Juan la Laguna	9	Septiembre	2023-09-15T00:00:00	2024-11-08T22:00:00	6	Velocidad del viento	4.8
77670	7	Sololá	717	San Juan la Laguna	12	San Juan la Laguna	9	Septiembre	2023-09-15T00:00:00	2024-11-08T22:00:00	7	Dirección del viento	4.83
77671	7	Sololá	717	San Juan la Laguna	12	San Juan la Laguna	9	Septiembre	2023-09-15T00:00:00	2024-11-08T22:00:00	1	Precipitación	0
77672	7	Sololá	717	San Juan la Laguna	12	San Juan la Laguna	9	Septiembre	2023-09-15T00:00:00	2024-11-08T22:00:00	8	Radiación solar	0
77673	7	Sololá	717	San Juan la Laguna	12	San Juan la Laguna	9	Septiembre	2023-09-15T00:00:00	2024-11-08T23:00:00	2	Temperatura media	16.8
77674	7	Sololá	717	San Juan la Laguna	12	San Juan la Laguna	9	Septiembre	2023-09-15T00:00:00	2024-11-08T23:00:00	4	Temperatura máxima	16.8
77675	7	Sololá	717	San Juan la Laguna	12	San Juan la Laguna	9	Septiembre	2023-09-15T00:00:00	2024-11-08T23:00:00	3	Temperatura mínima	16.4
77676	7	Sololá	717	San Juan la Laguna	12	San Juan la Laguna	9	Septiembre	2023-09-15T00:00:00	2024-11-08T23:00:00	5	Humedad	89
77677	7	Sololá	717	San Juan la Laguna	12	San Juan la Laguna	9	Septiembre	2023-09-15T00:00:00	2024-11-08T23:00:00	6	Velocidad del viento	6.4
77678	7	Sololá	717	San Juan la Laguna	12	San Juan la Laguna	9	Septiembre	2023-09-15T00:00:00	2024-11-08T23:00:00	7	Dirección del viento	6.44
77679	7	Sololá	717	San Juan la Laguna	12	San Juan la Laguna	9	Septiembre	2023-09-15T00:00:00	2024-11-08T23:00:00	1	Precipitación	0
77680	7	Sololá	717	San Juan la Laguna	12	San Juan la Laguna	9	Septiembre	2023-09-15T00:00:00	2024-11-08T23:00:00	8	Radiación solar	0
77681	7	Sololá	717	San Juan la Laguna	12	San Juan la Laguna	9	Septiembre	2023-09-16T00:00:00	2024-11-08T00:00:00	2	Temperatura media	15.9
77682	7	Sololá	717	San Juan la Laguna	12	San Juan la Laguna	9	Septiembre	2023-09-16T00:00:00	2024-11-08T00:00:00	4	Temperatura máxima	16.8
77683	7	Sololá	717	San Juan la Laguna	12	San Juan la Laguna	9	Septiembre	2023-09-16T00:00:00	2024-11-08T00:00:00	3	Temperatura mínima	15.9
77684	7	Sololá	717	San Juan la Laguna	12	San Juan la Laguna	9	Septiembre	2023-09-16T00:00:00	2024-11-08T00:00:00	5	Humedad	90
77685	7	Sololá	717	San Juan la Laguna	12	San Juan la Laguna	9	Septiembre	2023-09-16T00:00:00	2024-11-08T00:00:00	6	Velocidad del viento	4.8
77686	7	Sololá	717	San Juan la Laguna	12	San Juan la Laguna	9	Septiembre	2023-09-16T00:00:00	2024-11-08T00:00:00	7	Dirección del viento	4.83
77687	7	Sololá	717	San Juan la Laguna	12	San Juan la Laguna	9	Septiembre	2023-09-16T00:00:00	2024-11-08T00:00:00	1	Precipitación	0
77688	7	Sololá	717	San Juan la Laguna	12	San Juan la Laguna	9	Septiembre	2023-09-16T00:00:00	2024-11-08T00:00:00	8	Radiación solar	0
77689	7	Sololá	717	San Juan la Laguna	12	San Juan la Laguna	9	Septiembre	2023-09-16T00:00:00	2024-11-08T01:00:00	2	Temperatura media	15.5
77690	7	Sololá	717	San Juan la Laguna	12	San Juan la Laguna	9	Septiembre	2023-09-16T00:00:00	2024-11-08T01:00:00	4	Temperatura máxima	16.2
77691	7	Sololá	717	San Juan la Laguna	12	San Juan la Laguna	9	Septiembre	2023-09-16T00:00:00	2024-11-08T01:00:00	3	Temperatura mínima	15.5
77692	7	Sololá	717	San Juan la Laguna	12	San Juan la Laguna	9	Septiembre	2023-09-16T00:00:00	2024-11-08T01:00:00	5	Humedad	89
77693	7	Sololá	717	San Juan la Laguna	12	San Juan la Laguna	9	Septiembre	2023-09-16T00:00:00	2024-11-08T01:00:00	6	Velocidad del viento	4.8
77694	7	Sololá	717	San Juan la Laguna	12	San Juan la Laguna	9	Septiembre	2023-09-16T00:00:00	2024-11-08T01:00:00	7	Dirección del viento	4.83
77695	7	Sololá	717	San Juan la Laguna	12	San Juan la Laguna	9	Septiembre	2023-09-16T00:00:00	2024-11-08T01:00:00	1	Precipitación	0
77696	7	Sololá	717	San Juan la Laguna	12	San Juan la Laguna	9	Septiembre	2023-09-16T00:00:00	2024-11-08T01:00:00	8	Radiación solar	0
77697	7	Sololá	717	San Juan la Laguna	12	San Juan la Laguna	9	Septiembre	2023-09-16T00:00:00	2024-11-08T02:00:00	2	Temperatura media	14.9
77698	7	Sololá	717	San Juan la Laguna	12	San Juan la Laguna	9	Septiembre	2023-09-16T00:00:00	2024-11-08T02:00:00	4	Temperatura máxima	15.6
77699	7	Sololá	717	San Juan la Laguna	12	San Juan la Laguna	9	Septiembre	2023-09-16T00:00:00	2024-11-08T02:00:00	3	Temperatura mínima	14.8
77700	7	Sololá	717	San Juan la Laguna	12	San Juan la Laguna	9	Septiembre	2023-09-16T00:00:00	2024-11-08T02:00:00	5	Humedad	90
77701	7	Sololá	717	San Juan la Laguna	12	San Juan la Laguna	9	Septiembre	2023-09-16T00:00:00	2024-11-08T02:00:00	6	Velocidad del viento	3.2
77702	7	Sololá	717	San Juan la Laguna	12	San Juan la Laguna	9	Septiembre	2023-09-16T00:00:00	2024-11-08T02:00:00	7	Dirección del viento	3.22
77703	7	Sololá	717	San Juan la Laguna	12	San Juan la Laguna	9	Septiembre	2023-09-16T00:00:00	2024-11-08T02:00:00	1	Precipitación	0
77704	7	Sololá	717	San Juan la Laguna	12	San Juan la Laguna	9	Septiembre	2023-09-16T00:00:00	2024-11-08T02:00:00	8	Radiación solar	0
77705	7	Sololá	717	San Juan la Laguna	12	San Juan la Laguna	9	Septiembre	2023-09-16T00:00:00	2024-11-08T03:00:00	2	Temperatura media	15.2
77706	7	Sololá	717	San Juan la Laguna	12	San Juan la Laguna	9	Septiembre	2023-09-16T00:00:00	2024-11-08T03:00:00	4	Temperatura máxima	15.4
77707	7	Sololá	717	San Juan la Laguna	12	San Juan la Laguna	9	Septiembre	2023-09-16T00:00:00	2024-11-08T03:00:00	3	Temperatura mínima	14.8
77708	7	Sololá	717	San Juan la Laguna	12	San Juan la Laguna	9	Septiembre	2023-09-16T00:00:00	2024-11-08T03:00:00	5	Humedad	90
77709	7	Sololá	717	San Juan la Laguna	12	San Juan la Laguna	9	Septiembre	2023-09-16T00:00:00	2024-11-08T03:00:00	6	Velocidad del viento	4.8
77710	7	Sololá	717	San Juan la Laguna	12	San Juan la Laguna	9	Septiembre	2023-09-16T00:00:00	2024-11-08T03:00:00	7	Dirección del viento	4.83
77711	7	Sololá	717	San Juan la Laguna	12	San Juan la Laguna	9	Septiembre	2023-09-16T00:00:00	2024-11-08T03:00:00	1	Precipitación	0
77712	7	Sololá	717	San Juan la Laguna	12	San Juan la Laguna	9	Septiembre	2023-09-16T00:00:00	2024-11-08T03:00:00	8	Radiación solar	0
77713	7	Sololá	717	San Juan la Laguna	12	San Juan la Laguna	9	Septiembre	2023-09-16T00:00:00	2024-11-08T04:00:00	2	Temperatura media	15
77714	7	Sololá	717	San Juan la Laguna	12	San Juan la Laguna	9	Septiembre	2023-09-16T00:00:00	2024-11-08T04:00:00	4	Temperatura máxima	15.3
77715	7	Sololá	717	San Juan la Laguna	12	San Juan la Laguna	9	Septiembre	2023-09-16T00:00:00	2024-11-08T04:00:00	3	Temperatura mínima	15
77716	7	Sololá	717	San Juan la Laguna	12	San Juan la Laguna	9	Septiembre	2023-09-16T00:00:00	2024-11-08T04:00:00	5	Humedad	90
77717	7	Sololá	717	San Juan la Laguna	12	San Juan la Laguna	9	Septiembre	2023-09-16T00:00:00	2024-11-08T04:00:00	6	Velocidad del viento	4.8
77718	7	Sololá	717	San Juan la Laguna	12	San Juan la Laguna	9	Septiembre	2023-09-16T00:00:00	2024-11-08T04:00:00	7	Dirección del viento	4.83
77719	7	Sololá	717	San Juan la Laguna	12	San Juan la Laguna	9	Septiembre	2023-09-16T00:00:00	2024-11-08T04:00:00	1	Precipitación	0
77720	7	Sololá	717	San Juan la Laguna	12	San Juan la Laguna	9	Septiembre	2023-09-16T00:00:00	2024-11-08T04:00:00	8	Radiación solar	0
77721	7	Sololá	717	San Juan la Laguna	12	San Juan la Laguna	9	Septiembre	2023-09-16T00:00:00	2024-11-08T05:00:00	2	Temperatura media	14.7
77722	7	Sololá	717	San Juan la Laguna	12	San Juan la Laguna	9	Septiembre	2023-09-16T00:00:00	2024-11-08T05:00:00	4	Temperatura máxima	15.2
77723	7	Sololá	717	San Juan la Laguna	12	San Juan la Laguna	9	Septiembre	2023-09-16T00:00:00	2024-11-08T05:00:00	3	Temperatura mínima	14.7
77724	7	Sololá	717	San Juan la Laguna	12	San Juan la Laguna	9	Septiembre	2023-09-16T00:00:00	2024-11-08T05:00:00	5	Humedad	89
77725	7	Sololá	717	San Juan la Laguna	12	San Juan la Laguna	9	Septiembre	2023-09-16T00:00:00	2024-11-08T05:00:00	6	Velocidad del viento	4.8
77726	7	Sololá	717	San Juan la Laguna	12	San Juan la Laguna	9	Septiembre	2023-09-16T00:00:00	2024-11-08T05:00:00	7	Dirección del viento	4.83
77727	7	Sololá	717	San Juan la Laguna	12	San Juan la Laguna	9	Septiembre	2023-09-16T00:00:00	2024-11-08T05:00:00	1	Precipitación	0
77728	7	Sololá	717	San Juan la Laguna	12	San Juan la Laguna	9	Septiembre	2023-09-16T00:00:00	2024-11-08T05:00:00	8	Radiación solar	0
77729	7	Sololá	717	San Juan la Laguna	12	San Juan la Laguna	9	Septiembre	2023-09-16T00:00:00	2024-11-08T06:00:00	2	Temperatura media	14.8
77730	7	Sololá	717	San Juan la Laguna	12	San Juan la Laguna	9	Septiembre	2023-09-16T00:00:00	2024-11-08T06:00:00	4	Temperatura máxima	14.8
77731	7	Sololá	717	San Juan la Laguna	12	San Juan la Laguna	9	Septiembre	2023-09-16T00:00:00	2024-11-08T06:00:00	3	Temperatura mínima	14.3
77732	7	Sololá	717	San Juan la Laguna	12	San Juan la Laguna	9	Septiembre	2023-09-16T00:00:00	2024-11-08T06:00:00	5	Humedad	89
77733	7	Sololá	717	San Juan la Laguna	12	San Juan la Laguna	9	Septiembre	2023-09-16T00:00:00	2024-11-08T06:00:00	6	Velocidad del viento	4.8
77734	7	Sololá	717	San Juan la Laguna	12	San Juan la Laguna	9	Septiembre	2023-09-16T00:00:00	2024-11-08T06:00:00	7	Dirección del viento	4.83
77735	7	Sololá	717	San Juan la Laguna	12	San Juan la Laguna	9	Septiembre	2023-09-16T00:00:00	2024-11-08T06:00:00	1	Precipitación	0
77736	7	Sololá	717	San Juan la Laguna	12	San Juan la Laguna	9	Septiembre	2023-09-16T00:00:00	2024-11-08T06:00:00	8	Radiación solar	1
77737	7	Sololá	717	San Juan la Laguna	12	San Juan la Laguna	9	Septiembre	2023-09-16T00:00:00	2024-11-08T07:00:00	2	Temperatura media	16.2
77738	7	Sololá	717	San Juan la Laguna	12	San Juan la Laguna	9	Septiembre	2023-09-16T00:00:00	2024-11-08T07:00:00	4	Temperatura máxima	16.2
77739	7	Sololá	717	San Juan la Laguna	12	San Juan la Laguna	9	Septiembre	2023-09-16T00:00:00	2024-11-08T07:00:00	3	Temperatura mínima	14.8
77740	7	Sololá	717	San Juan la Laguna	12	San Juan la Laguna	9	Septiembre	2023-09-16T00:00:00	2024-11-08T07:00:00	5	Humedad	87
77741	7	Sololá	717	San Juan la Laguna	12	San Juan la Laguna	9	Septiembre	2023-09-16T00:00:00	2024-11-08T07:00:00	6	Velocidad del viento	4.8
77742	7	Sololá	717	San Juan la Laguna	12	San Juan la Laguna	9	Septiembre	2023-09-16T00:00:00	2024-11-08T07:00:00	7	Dirección del viento	4.83
77743	7	Sololá	717	San Juan la Laguna	12	San Juan la Laguna	9	Septiembre	2023-09-16T00:00:00	2024-11-08T07:00:00	1	Precipitación	0
77744	7	Sololá	717	San Juan la Laguna	12	San Juan la Laguna	9	Septiembre	2023-09-16T00:00:00	2024-11-08T07:00:00	8	Radiación solar	74
77745	7	Sololá	717	San Juan la Laguna	12	San Juan la Laguna	9	Septiembre	2023-09-16T00:00:00	2024-11-08T08:00:00	2	Temperatura media	21
77746	7	Sololá	717	San Juan la Laguna	12	San Juan la Laguna	9	Septiembre	2023-09-16T00:00:00	2024-11-08T08:00:00	4	Temperatura máxima	21
77747	7	Sololá	717	San Juan la Laguna	12	San Juan la Laguna	9	Septiembre	2023-09-16T00:00:00	2024-11-08T08:00:00	3	Temperatura mínima	16.2
77748	7	Sololá	717	San Juan la Laguna	12	San Juan la Laguna	9	Septiembre	2023-09-16T00:00:00	2024-11-08T08:00:00	5	Humedad	71
77749	7	Sololá	717	San Juan la Laguna	12	San Juan la Laguna	9	Septiembre	2023-09-16T00:00:00	2024-11-08T08:00:00	6	Velocidad del viento	1.6
77750	7	Sololá	717	San Juan la Laguna	12	San Juan la Laguna	9	Septiembre	2023-09-16T00:00:00	2024-11-08T08:00:00	7	Dirección del viento	1.61
77751	7	Sololá	717	San Juan la Laguna	12	San Juan la Laguna	9	Septiembre	2023-09-16T00:00:00	2024-11-08T08:00:00	1	Precipitación	0
77752	7	Sololá	717	San Juan la Laguna	12	San Juan la Laguna	9	Septiembre	2023-09-16T00:00:00	2024-11-08T08:00:00	8	Radiación solar	242
77753	7	Sololá	717	San Juan la Laguna	12	San Juan la Laguna	9	Septiembre	2023-09-16T00:00:00	2024-11-08T09:00:00	2	Temperatura media	22.8
77754	7	Sololá	717	San Juan la Laguna	12	San Juan la Laguna	9	Septiembre	2023-09-16T00:00:00	2024-11-08T09:00:00	4	Temperatura máxima	22.8
77755	7	Sololá	717	San Juan la Laguna	12	San Juan la Laguna	9	Septiembre	2023-09-16T00:00:00	2024-11-08T09:00:00	3	Temperatura mínima	21
77756	7	Sololá	717	San Juan la Laguna	12	San Juan la Laguna	9	Septiembre	2023-09-16T00:00:00	2024-11-08T09:00:00	5	Humedad	66
77757	7	Sololá	717	San Juan la Laguna	12	San Juan la Laguna	9	Septiembre	2023-09-16T00:00:00	2024-11-08T09:00:00	6	Velocidad del viento	0
77758	7	Sololá	717	San Juan la Laguna	12	San Juan la Laguna	9	Septiembre	2023-09-16T00:00:00	2024-11-08T09:00:00	7	Dirección del viento	0
77759	7	Sololá	717	San Juan la Laguna	12	San Juan la Laguna	9	Septiembre	2023-09-16T00:00:00	2024-11-08T09:00:00	1	Precipitación	0
77760	7	Sololá	717	San Juan la Laguna	12	San Juan la Laguna	9	Septiembre	2023-09-16T00:00:00	2024-11-08T09:00:00	8	Radiación solar	497
77761	7	Sololá	717	San Juan la Laguna	12	San Juan la Laguna	9	Septiembre	2023-09-16T00:00:00	2024-11-08T10:00:00	2	Temperatura media	24.6
77762	7	Sololá	717	San Juan la Laguna	12	San Juan la Laguna	9	Septiembre	2023-09-16T00:00:00	2024-11-08T10:00:00	4	Temperatura máxima	24.6
77763	7	Sololá	717	San Juan la Laguna	12	San Juan la Laguna	9	Septiembre	2023-09-16T00:00:00	2024-11-08T10:00:00	3	Temperatura mínima	22.8
77764	7	Sololá	717	San Juan la Laguna	12	San Juan la Laguna	9	Septiembre	2023-09-16T00:00:00	2024-11-08T10:00:00	5	Humedad	57
77765	7	Sololá	717	San Juan la Laguna	12	San Juan la Laguna	9	Septiembre	2023-09-16T00:00:00	2024-11-08T10:00:00	6	Velocidad del viento	0
77766	7	Sololá	717	San Juan la Laguna	12	San Juan la Laguna	9	Septiembre	2023-09-16T00:00:00	2024-11-08T10:00:00	7	Dirección del viento	0
77767	7	Sololá	717	San Juan la Laguna	12	San Juan la Laguna	9	Septiembre	2023-09-16T00:00:00	2024-11-08T10:00:00	1	Precipitación	0
77768	7	Sololá	717	San Juan la Laguna	12	San Juan la Laguna	9	Septiembre	2023-09-16T00:00:00	2024-11-08T10:00:00	8	Radiación solar	689
77769	7	Sololá	717	San Juan la Laguna	12	San Juan la Laguna	9	Septiembre	2023-09-16T00:00:00	2024-11-08T11:00:00	2	Temperatura media	25.3
77770	7	Sololá	717	San Juan la Laguna	12	San Juan la Laguna	9	Septiembre	2023-09-16T00:00:00	2024-11-08T11:00:00	4	Temperatura máxima	25.6
77771	7	Sololá	717	San Juan la Laguna	12	San Juan la Laguna	9	Septiembre	2023-09-16T00:00:00	2024-11-08T11:00:00	3	Temperatura mínima	24.6
77772	7	Sololá	717	San Juan la Laguna	12	San Juan la Laguna	9	Septiembre	2023-09-16T00:00:00	2024-11-08T11:00:00	5	Humedad	54
77773	7	Sololá	717	San Juan la Laguna	12	San Juan la Laguna	9	Septiembre	2023-09-16T00:00:00	2024-11-08T11:00:00	6	Velocidad del viento	3.2
77774	7	Sololá	717	San Juan la Laguna	12	San Juan la Laguna	9	Septiembre	2023-09-16T00:00:00	2024-11-08T11:00:00	7	Dirección del viento	3.22
77775	7	Sololá	717	San Juan la Laguna	12	San Juan la Laguna	9	Septiembre	2023-09-16T00:00:00	2024-11-08T11:00:00	1	Precipitación	0
77776	7	Sololá	717	San Juan la Laguna	12	San Juan la Laguna	9	Septiembre	2023-09-16T00:00:00	2024-11-08T11:00:00	8	Radiación solar	830
77777	7	Sololá	717	San Juan la Laguna	12	San Juan la Laguna	9	Septiembre	2023-09-16T00:00:00	2024-11-08T12:00:00	2	Temperatura media	25.9
77778	7	Sololá	717	San Juan la Laguna	12	San Juan la Laguna	9	Septiembre	2023-09-16T00:00:00	2024-11-08T12:00:00	4	Temperatura máxima	26.4
77779	7	Sololá	717	San Juan la Laguna	12	San Juan la Laguna	9	Septiembre	2023-09-16T00:00:00	2024-11-08T12:00:00	3	Temperatura mínima	25.1
77780	7	Sololá	717	San Juan la Laguna	12	San Juan la Laguna	9	Septiembre	2023-09-16T00:00:00	2024-11-08T12:00:00	5	Humedad	55
77781	7	Sololá	717	San Juan la Laguna	12	San Juan la Laguna	9	Septiembre	2023-09-16T00:00:00	2024-11-08T12:00:00	6	Velocidad del viento	3.2
77782	7	Sololá	717	San Juan la Laguna	12	San Juan la Laguna	9	Septiembre	2023-09-16T00:00:00	2024-11-08T12:00:00	7	Dirección del viento	3.22
77783	7	Sololá	717	San Juan la Laguna	12	San Juan la Laguna	9	Septiembre	2023-09-16T00:00:00	2024-11-08T12:00:00	1	Precipitación	0
77784	7	Sololá	717	San Juan la Laguna	12	San Juan la Laguna	9	Septiembre	2023-09-16T00:00:00	2024-11-08T12:00:00	8	Radiación solar	910
77785	7	Sololá	717	San Juan la Laguna	12	San Juan la Laguna	9	Septiembre	2023-09-16T00:00:00	2024-11-08T13:00:00	2	Temperatura media	27.2
77786	7	Sololá	717	San Juan la Laguna	12	San Juan la Laguna	9	Septiembre	2023-09-16T00:00:00	2024-11-08T13:00:00	4	Temperatura máxima	27.3
77787	7	Sololá	717	San Juan la Laguna	12	San Juan la Laguna	9	Septiembre	2023-09-16T00:00:00	2024-11-08T13:00:00	3	Temperatura mínima	25.4
77788	7	Sololá	717	San Juan la Laguna	12	San Juan la Laguna	9	Septiembre	2023-09-16T00:00:00	2024-11-08T13:00:00	5	Humedad	51
77789	7	Sololá	717	San Juan la Laguna	12	San Juan la Laguna	9	Septiembre	2023-09-16T00:00:00	2024-11-08T13:00:00	6	Velocidad del viento	1.6
77790	7	Sololá	717	San Juan la Laguna	12	San Juan la Laguna	9	Septiembre	2023-09-16T00:00:00	2024-11-08T13:00:00	7	Dirección del viento	1.61
77791	7	Sololá	717	San Juan la Laguna	12	San Juan la Laguna	9	Septiembre	2023-09-16T00:00:00	2024-11-08T13:00:00	1	Precipitación	0
77792	7	Sololá	717	San Juan la Laguna	12	San Juan la Laguna	9	Septiembre	2023-09-16T00:00:00	2024-11-08T13:00:00	8	Radiación solar	930
77793	7	Sololá	717	San Juan la Laguna	12	San Juan la Laguna	9	Septiembre	2023-09-16T00:00:00	2024-11-08T14:00:00	2	Temperatura media	27.4
77794	7	Sololá	717	San Juan la Laguna	12	San Juan la Laguna	9	Septiembre	2023-09-16T00:00:00	2024-11-08T14:00:00	4	Temperatura máxima	27.8
77795	7	Sololá	717	San Juan la Laguna	12	San Juan la Laguna	9	Septiembre	2023-09-16T00:00:00	2024-11-08T14:00:00	3	Temperatura mínima	27.2
77796	7	Sololá	717	San Juan la Laguna	12	San Juan la Laguna	9	Septiembre	2023-09-16T00:00:00	2024-11-08T14:00:00	5	Humedad	50
77797	7	Sololá	717	San Juan la Laguna	12	San Juan la Laguna	9	Septiembre	2023-09-16T00:00:00	2024-11-08T14:00:00	6	Velocidad del viento	1.6
77798	7	Sololá	717	San Juan la Laguna	12	San Juan la Laguna	9	Septiembre	2023-09-16T00:00:00	2024-11-08T14:00:00	7	Dirección del viento	1.61
77799	7	Sololá	717	San Juan la Laguna	12	San Juan la Laguna	9	Septiembre	2023-09-16T00:00:00	2024-11-08T14:00:00	1	Precipitación	0
77800	7	Sololá	717	San Juan la Laguna	12	San Juan la Laguna	9	Septiembre	2023-09-16T00:00:00	2024-11-08T14:00:00	8	Radiación solar	849
77801	7	Sololá	717	San Juan la Laguna	12	San Juan la Laguna	9	Septiembre	2023-09-16T00:00:00	2024-11-08T15:00:00	2	Temperatura media	25.9
77802	7	Sololá	717	San Juan la Laguna	12	San Juan la Laguna	9	Septiembre	2023-09-16T00:00:00	2024-11-08T15:00:00	4	Temperatura máxima	27.5
77803	7	Sololá	717	San Juan la Laguna	12	San Juan la Laguna	9	Septiembre	2023-09-16T00:00:00	2024-11-08T15:00:00	3	Temperatura mínima	25.9
77804	7	Sololá	717	San Juan la Laguna	12	San Juan la Laguna	9	Septiembre	2023-09-16T00:00:00	2024-11-08T15:00:00	5	Humedad	63
77805	7	Sololá	717	San Juan la Laguna	12	San Juan la Laguna	9	Septiembre	2023-09-16T00:00:00	2024-11-08T15:00:00	6	Velocidad del viento	1.6
77806	7	Sololá	717	San Juan la Laguna	12	San Juan la Laguna	9	Septiembre	2023-09-16T00:00:00	2024-11-08T15:00:00	7	Dirección del viento	1.61
77807	7	Sololá	717	San Juan la Laguna	12	San Juan la Laguna	9	Septiembre	2023-09-16T00:00:00	2024-11-08T15:00:00	1	Precipitación	0
77808	7	Sololá	717	San Juan la Laguna	12	San Juan la Laguna	9	Septiembre	2023-09-16T00:00:00	2024-11-08T15:00:00	8	Radiación solar	672
77809	7	Sololá	717	San Juan la Laguna	12	San Juan la Laguna	9	Septiembre	2023-09-16T00:00:00	2024-11-08T16:00:00	2	Temperatura media	24.7
77810	7	Sololá	717	San Juan la Laguna	12	San Juan la Laguna	9	Septiembre	2023-09-16T00:00:00	2024-11-08T16:00:00	4	Temperatura máxima	26.1
77811	7	Sololá	717	San Juan la Laguna	12	San Juan la Laguna	9	Septiembre	2023-09-16T00:00:00	2024-11-08T16:00:00	3	Temperatura mínima	24.7
77812	7	Sololá	717	San Juan la Laguna	12	San Juan la Laguna	9	Septiembre	2023-09-16T00:00:00	2024-11-08T16:00:00	5	Humedad	70
77813	7	Sololá	717	San Juan la Laguna	12	San Juan la Laguna	9	Septiembre	2023-09-16T00:00:00	2024-11-08T16:00:00	6	Velocidad del viento	1.6
77814	7	Sololá	717	San Juan la Laguna	12	San Juan la Laguna	9	Septiembre	2023-09-16T00:00:00	2024-11-08T16:00:00	7	Dirección del viento	1.61
77815	7	Sololá	717	San Juan la Laguna	12	San Juan la Laguna	9	Septiembre	2023-09-16T00:00:00	2024-11-08T16:00:00	1	Precipitación	0
77816	7	Sololá	717	San Juan la Laguna	12	San Juan la Laguna	9	Septiembre	2023-09-16T00:00:00	2024-11-08T16:00:00	8	Radiación solar	536
77817	7	Sololá	717	San Juan la Laguna	12	San Juan la Laguna	9	Septiembre	2023-09-16T00:00:00	2024-11-08T17:00:00	2	Temperatura media	23
77818	7	Sololá	717	San Juan la Laguna	12	San Juan la Laguna	9	Septiembre	2023-09-16T00:00:00	2024-11-08T17:00:00	4	Temperatura máxima	24.8
77819	7	Sololá	717	San Juan la Laguna	12	San Juan la Laguna	9	Septiembre	2023-09-16T00:00:00	2024-11-08T17:00:00	3	Temperatura mínima	23
77820	7	Sololá	717	San Juan la Laguna	12	San Juan la Laguna	9	Septiembre	2023-09-16T00:00:00	2024-11-08T17:00:00	5	Humedad	76
77821	7	Sololá	717	San Juan la Laguna	12	San Juan la Laguna	9	Septiembre	2023-09-16T00:00:00	2024-11-08T17:00:00	6	Velocidad del viento	1.6
77822	7	Sololá	717	San Juan la Laguna	12	San Juan la Laguna	9	Septiembre	2023-09-16T00:00:00	2024-11-08T17:00:00	7	Dirección del viento	1.61
77823	7	Sololá	717	San Juan la Laguna	12	San Juan la Laguna	9	Septiembre	2023-09-16T00:00:00	2024-11-08T17:00:00	1	Precipitación	0
77824	7	Sololá	717	San Juan la Laguna	12	San Juan la Laguna	9	Septiembre	2023-09-16T00:00:00	2024-11-08T17:00:00	8	Radiación solar	296
77825	7	Sololá	717	San Juan la Laguna	12	San Juan la Laguna	9	Septiembre	2023-09-16T00:00:00	2024-11-08T18:00:00	2	Temperatura media	21.3
77826	7	Sololá	717	San Juan la Laguna	12	San Juan la Laguna	9	Septiembre	2023-09-16T00:00:00	2024-11-08T18:00:00	4	Temperatura máxima	23
77827	7	Sololá	717	San Juan la Laguna	12	San Juan la Laguna	9	Septiembre	2023-09-16T00:00:00	2024-11-08T18:00:00	3	Temperatura mínima	21.3
77828	7	Sololá	717	San Juan la Laguna	12	San Juan la Laguna	9	Septiembre	2023-09-16T00:00:00	2024-11-08T18:00:00	5	Humedad	82
77829	7	Sololá	717	San Juan la Laguna	12	San Juan la Laguna	9	Septiembre	2023-09-16T00:00:00	2024-11-08T18:00:00	6	Velocidad del viento	3.2
77830	7	Sololá	717	San Juan la Laguna	12	San Juan la Laguna	9	Septiembre	2023-09-16T00:00:00	2024-11-08T18:00:00	7	Dirección del viento	3.22
77831	7	Sololá	717	San Juan la Laguna	12	San Juan la Laguna	9	Septiembre	2023-09-16T00:00:00	2024-11-08T18:00:00	1	Precipitación	0
77832	7	Sololá	717	San Juan la Laguna	12	San Juan la Laguna	9	Septiembre	2023-09-16T00:00:00	2024-11-08T18:00:00	8	Radiación solar	30
77833	7	Sololá	717	San Juan la Laguna	12	San Juan la Laguna	9	Septiembre	2023-09-16T00:00:00	2024-11-08T19:00:00	2	Temperatura media	21.3
77834	7	Sololá	717	San Juan la Laguna	12	San Juan la Laguna	9	Septiembre	2023-09-16T00:00:00	2024-11-08T19:00:00	4	Temperatura máxima	21.4
77835	7	Sololá	717	San Juan la Laguna	12	San Juan la Laguna	9	Septiembre	2023-09-16T00:00:00	2024-11-08T19:00:00	3	Temperatura mínima	21.2
77836	7	Sololá	717	San Juan la Laguna	12	San Juan la Laguna	9	Septiembre	2023-09-16T00:00:00	2024-11-08T19:00:00	5	Humedad	83
77837	7	Sololá	717	San Juan la Laguna	12	San Juan la Laguna	9	Septiembre	2023-09-16T00:00:00	2024-11-08T19:00:00	6	Velocidad del viento	1.6
77838	7	Sololá	717	San Juan la Laguna	12	San Juan la Laguna	9	Septiembre	2023-09-16T00:00:00	2024-11-08T19:00:00	7	Dirección del viento	1.61
77839	7	Sololá	717	San Juan la Laguna	12	San Juan la Laguna	9	Septiembre	2023-09-16T00:00:00	2024-11-08T19:00:00	1	Precipitación	0
77840	7	Sololá	717	San Juan la Laguna	12	San Juan la Laguna	9	Septiembre	2023-09-16T00:00:00	2024-11-08T19:00:00	8	Radiación solar	0
77841	7	Sololá	717	San Juan la Laguna	12	San Juan la Laguna	9	Septiembre	2023-09-16T00:00:00	2024-11-08T20:00:00	2	Temperatura media	20.7
77842	7	Sololá	717	San Juan la Laguna	12	San Juan la Laguna	9	Septiembre	2023-09-16T00:00:00	2024-11-08T20:00:00	4	Temperatura máxima	21.3
77843	7	Sololá	717	San Juan la Laguna	12	San Juan la Laguna	9	Septiembre	2023-09-16T00:00:00	2024-11-08T20:00:00	3	Temperatura mínima	20.7
77844	7	Sololá	717	San Juan la Laguna	12	San Juan la Laguna	9	Septiembre	2023-09-16T00:00:00	2024-11-08T20:00:00	5	Humedad	86
77845	7	Sololá	717	San Juan la Laguna	12	San Juan la Laguna	9	Septiembre	2023-09-16T00:00:00	2024-11-08T20:00:00	6	Velocidad del viento	0
77846	7	Sololá	717	San Juan la Laguna	12	San Juan la Laguna	9	Septiembre	2023-09-16T00:00:00	2024-11-08T20:00:00	7	Dirección del viento	0
77847	7	Sololá	717	San Juan la Laguna	12	San Juan la Laguna	9	Septiembre	2023-09-16T00:00:00	2024-11-08T20:00:00	1	Precipitación	0
77848	7	Sololá	717	San Juan la Laguna	12	San Juan la Laguna	9	Septiembre	2023-09-16T00:00:00	2024-11-08T20:00:00	8	Radiación solar	0
77849	7	Sololá	717	San Juan la Laguna	12	San Juan la Laguna	9	Septiembre	2023-09-16T00:00:00	2024-11-08T21:00:00	2	Temperatura media	19.2
77850	7	Sololá	717	San Juan la Laguna	12	San Juan la Laguna	9	Septiembre	2023-09-16T00:00:00	2024-11-08T21:00:00	4	Temperatura máxima	20.7
77851	7	Sololá	717	San Juan la Laguna	12	San Juan la Laguna	9	Septiembre	2023-09-16T00:00:00	2024-11-08T21:00:00	3	Temperatura mínima	19.2
77852	7	Sololá	717	San Juan la Laguna	12	San Juan la Laguna	9	Septiembre	2023-09-16T00:00:00	2024-11-08T21:00:00	5	Humedad	87
77853	7	Sololá	717	San Juan la Laguna	12	San Juan la Laguna	9	Septiembre	2023-09-16T00:00:00	2024-11-08T21:00:00	6	Velocidad del viento	0
77854	7	Sololá	717	San Juan la Laguna	12	San Juan la Laguna	9	Septiembre	2023-09-16T00:00:00	2024-11-08T21:00:00	7	Dirección del viento	0
77855	7	Sololá	717	San Juan la Laguna	12	San Juan la Laguna	9	Septiembre	2023-09-16T00:00:00	2024-11-08T21:00:00	1	Precipitación	0
77856	7	Sololá	717	San Juan la Laguna	12	San Juan la Laguna	9	Septiembre	2023-09-16T00:00:00	2024-11-08T21:00:00	8	Radiación solar	0
77857	7	Sololá	717	San Juan la Laguna	12	San Juan la Laguna	9	Septiembre	2023-09-16T00:00:00	2024-11-08T22:00:00	2	Temperatura media	18.5
77858	7	Sololá	717	San Juan la Laguna	12	San Juan la Laguna	9	Septiembre	2023-09-16T00:00:00	2024-11-08T22:00:00	4	Temperatura máxima	19.2
77859	7	Sololá	717	San Juan la Laguna	12	San Juan la Laguna	9	Septiembre	2023-09-16T00:00:00	2024-11-08T22:00:00	3	Temperatura mínima	18.3
77860	7	Sololá	717	San Juan la Laguna	12	San Juan la Laguna	9	Septiembre	2023-09-16T00:00:00	2024-11-08T22:00:00	5	Humedad	87
77861	7	Sololá	717	San Juan la Laguna	12	San Juan la Laguna	9	Septiembre	2023-09-16T00:00:00	2024-11-08T22:00:00	6	Velocidad del viento	4.8
77862	7	Sololá	717	San Juan la Laguna	12	San Juan la Laguna	9	Septiembre	2023-09-16T00:00:00	2024-11-08T22:00:00	7	Dirección del viento	4.83
77863	7	Sololá	717	San Juan la Laguna	12	San Juan la Laguna	9	Septiembre	2023-09-16T00:00:00	2024-11-08T22:00:00	1	Precipitación	0
77864	7	Sololá	717	San Juan la Laguna	12	San Juan la Laguna	9	Septiembre	2023-09-16T00:00:00	2024-11-08T22:00:00	8	Radiación solar	0
77865	7	Sololá	717	San Juan la Laguna	12	San Juan la Laguna	9	Septiembre	2023-09-16T00:00:00	2024-11-08T23:00:00	2	Temperatura media	18.4
77866	7	Sololá	717	San Juan la Laguna	12	San Juan la Laguna	9	Septiembre	2023-09-16T00:00:00	2024-11-08T23:00:00	4	Temperatura máxima	18.9
77867	7	Sololá	717	San Juan la Laguna	12	San Juan la Laguna	9	Septiembre	2023-09-16T00:00:00	2024-11-08T23:00:00	3	Temperatura mínima	18.4
77868	7	Sololá	717	San Juan la Laguna	12	San Juan la Laguna	9	Septiembre	2023-09-16T00:00:00	2024-11-08T23:00:00	5	Humedad	84
77869	7	Sololá	717	San Juan la Laguna	12	San Juan la Laguna	9	Septiembre	2023-09-16T00:00:00	2024-11-08T23:00:00	6	Velocidad del viento	3.2
77870	7	Sololá	717	San Juan la Laguna	12	San Juan la Laguna	9	Septiembre	2023-09-16T00:00:00	2024-11-08T23:00:00	7	Dirección del viento	3.22
77871	7	Sololá	717	San Juan la Laguna	12	San Juan la Laguna	9	Septiembre	2023-09-16T00:00:00	2024-11-08T23:00:00	1	Precipitación	0
77872	7	Sololá	717	San Juan la Laguna	12	San Juan la Laguna	9	Septiembre	2023-09-16T00:00:00	2024-11-08T23:00:00	8	Radiación solar	0
77873	7	Sololá	717	San Juan la Laguna	12	San Juan la Laguna	9	Septiembre	2023-09-17T00:00:00	2024-11-08T00:00:00	2	Temperatura media	17.8
77874	7	Sololá	717	San Juan la Laguna	12	San Juan la Laguna	9	Septiembre	2023-09-17T00:00:00	2024-11-08T00:00:00	4	Temperatura máxima	18.4
77875	7	Sololá	717	San Juan la Laguna	12	San Juan la Laguna	9	Septiembre	2023-09-17T00:00:00	2024-11-08T00:00:00	3	Temperatura mínima	17.8
77876	7	Sololá	717	San Juan la Laguna	12	San Juan la Laguna	9	Septiembre	2023-09-17T00:00:00	2024-11-08T00:00:00	5	Humedad	85
77877	7	Sololá	717	San Juan la Laguna	12	San Juan la Laguna	9	Septiembre	2023-09-17T00:00:00	2024-11-08T00:00:00	6	Velocidad del viento	1.6
77878	7	Sololá	717	San Juan la Laguna	12	San Juan la Laguna	9	Septiembre	2023-09-17T00:00:00	2024-11-08T00:00:00	7	Dirección del viento	1.61
77879	7	Sololá	717	San Juan la Laguna	12	San Juan la Laguna	9	Septiembre	2023-09-17T00:00:00	2024-11-08T00:00:00	1	Precipitación	0
77880	7	Sololá	717	San Juan la Laguna	12	San Juan la Laguna	9	Septiembre	2023-09-17T00:00:00	2024-11-08T00:00:00	8	Radiación solar	0
77881	7	Sololá	717	San Juan la Laguna	12	San Juan la Laguna	9	Septiembre	2023-09-17T00:00:00	2024-11-08T01:00:00	2	Temperatura media	17
77882	7	Sololá	717	San Juan la Laguna	12	San Juan la Laguna	9	Septiembre	2023-09-17T00:00:00	2024-11-08T01:00:00	4	Temperatura máxima	18.1
77883	7	Sololá	717	San Juan la Laguna	12	San Juan la Laguna	9	Septiembre	2023-09-17T00:00:00	2024-11-08T01:00:00	3	Temperatura mínima	17
77884	7	Sololá	717	San Juan la Laguna	12	San Juan la Laguna	9	Septiembre	2023-09-17T00:00:00	2024-11-08T01:00:00	5	Humedad	86
77885	7	Sololá	717	San Juan la Laguna	12	San Juan la Laguna	9	Septiembre	2023-09-17T00:00:00	2024-11-08T01:00:00	6	Velocidad del viento	0
77886	7	Sololá	717	San Juan la Laguna	12	San Juan la Laguna	9	Septiembre	2023-09-17T00:00:00	2024-11-08T01:00:00	7	Dirección del viento	0
77887	7	Sololá	717	San Juan la Laguna	12	San Juan la Laguna	9	Septiembre	2023-09-17T00:00:00	2024-11-08T01:00:00	1	Precipitación	0
77888	7	Sololá	717	San Juan la Laguna	12	San Juan la Laguna	9	Septiembre	2023-09-17T00:00:00	2024-11-08T01:00:00	8	Radiación solar	0
77889	7	Sololá	717	San Juan la Laguna	12	San Juan la Laguna	9	Septiembre	2023-09-17T00:00:00	2024-11-08T02:00:00	2	Temperatura media	16.3
77890	7	Sololá	717	San Juan la Laguna	12	San Juan la Laguna	9	Septiembre	2023-09-17T00:00:00	2024-11-08T02:00:00	4	Temperatura máxima	17
77891	7	Sololá	717	San Juan la Laguna	12	San Juan la Laguna	9	Septiembre	2023-09-17T00:00:00	2024-11-08T02:00:00	3	Temperatura mínima	16.3
77892	7	Sololá	717	San Juan la Laguna	12	San Juan la Laguna	9	Septiembre	2023-09-17T00:00:00	2024-11-08T02:00:00	5	Humedad	84
77893	7	Sololá	717	San Juan la Laguna	12	San Juan la Laguna	9	Septiembre	2023-09-17T00:00:00	2024-11-08T02:00:00	6	Velocidad del viento	1.6
77894	7	Sololá	717	San Juan la Laguna	12	San Juan la Laguna	9	Septiembre	2023-09-17T00:00:00	2024-11-08T02:00:00	7	Dirección del viento	1.61
77895	7	Sololá	717	San Juan la Laguna	12	San Juan la Laguna	9	Septiembre	2023-09-17T00:00:00	2024-11-08T02:00:00	1	Precipitación	0
77896	7	Sololá	717	San Juan la Laguna	12	San Juan la Laguna	9	Septiembre	2023-09-17T00:00:00	2024-11-08T02:00:00	8	Radiación solar	0
77897	7	Sololá	717	San Juan la Laguna	12	San Juan la Laguna	9	Septiembre	2023-09-17T00:00:00	2024-11-08T03:00:00	2	Temperatura media	16.2
77898	7	Sololá	717	San Juan la Laguna	12	San Juan la Laguna	9	Septiembre	2023-09-17T00:00:00	2024-11-08T03:00:00	4	Temperatura máxima	16.5
77899	7	Sololá	717	San Juan la Laguna	12	San Juan la Laguna	9	Septiembre	2023-09-17T00:00:00	2024-11-08T03:00:00	3	Temperatura mínima	15.9
77900	7	Sololá	717	San Juan la Laguna	12	San Juan la Laguna	9	Septiembre	2023-09-17T00:00:00	2024-11-08T03:00:00	5	Humedad	83
77901	7	Sololá	717	San Juan la Laguna	12	San Juan la Laguna	9	Septiembre	2023-09-17T00:00:00	2024-11-08T03:00:00	6	Velocidad del viento	1.6
77902	7	Sololá	717	San Juan la Laguna	12	San Juan la Laguna	9	Septiembre	2023-09-17T00:00:00	2024-11-08T03:00:00	7	Dirección del viento	1.61
77903	7	Sololá	717	San Juan la Laguna	12	San Juan la Laguna	9	Septiembre	2023-09-17T00:00:00	2024-11-08T03:00:00	1	Precipitación	0
77904	7	Sololá	717	San Juan la Laguna	12	San Juan la Laguna	9	Septiembre	2023-09-17T00:00:00	2024-11-08T03:00:00	8	Radiación solar	0
77905	7	Sololá	717	San Juan la Laguna	12	San Juan la Laguna	9	Septiembre	2023-09-17T00:00:00	2024-11-08T04:00:00	2	Temperatura media	15.4
77906	7	Sololá	717	San Juan la Laguna	12	San Juan la Laguna	9	Septiembre	2023-09-17T00:00:00	2024-11-08T04:00:00	4	Temperatura máxima	16.2
77907	7	Sololá	717	San Juan la Laguna	12	San Juan la Laguna	9	Septiembre	2023-09-17T00:00:00	2024-11-08T04:00:00	3	Temperatura mínima	15.4
77908	7	Sololá	717	San Juan la Laguna	12	San Juan la Laguna	9	Septiembre	2023-09-17T00:00:00	2024-11-08T04:00:00	5	Humedad	84
77909	7	Sololá	717	San Juan la Laguna	12	San Juan la Laguna	9	Septiembre	2023-09-17T00:00:00	2024-11-08T04:00:00	6	Velocidad del viento	3.2
77910	7	Sololá	717	San Juan la Laguna	12	San Juan la Laguna	9	Septiembre	2023-09-17T00:00:00	2024-11-08T04:00:00	7	Dirección del viento	3.22
77911	7	Sololá	717	San Juan la Laguna	12	San Juan la Laguna	9	Septiembre	2023-09-17T00:00:00	2024-11-08T04:00:00	1	Precipitación	0
77912	7	Sololá	717	San Juan la Laguna	12	San Juan la Laguna	9	Septiembre	2023-09-17T00:00:00	2024-11-08T04:00:00	8	Radiación solar	0
77913	7	Sololá	717	San Juan la Laguna	12	San Juan la Laguna	9	Septiembre	2023-09-17T00:00:00	2024-11-08T05:00:00	2	Temperatura media	15.3
77914	7	Sololá	717	San Juan la Laguna	12	San Juan la Laguna	9	Septiembre	2023-09-17T00:00:00	2024-11-08T05:00:00	4	Temperatura máxima	15.4
77915	7	Sololá	717	San Juan la Laguna	12	San Juan la Laguna	9	Septiembre	2023-09-17T00:00:00	2024-11-08T05:00:00	3	Temperatura mínima	15.1
77916	7	Sololá	717	San Juan la Laguna	12	San Juan la Laguna	9	Septiembre	2023-09-17T00:00:00	2024-11-08T05:00:00	5	Humedad	81
77917	7	Sololá	717	San Juan la Laguna	12	San Juan la Laguna	9	Septiembre	2023-09-17T00:00:00	2024-11-08T05:00:00	6	Velocidad del viento	4.8
77918	7	Sololá	717	San Juan la Laguna	12	San Juan la Laguna	9	Septiembre	2023-09-17T00:00:00	2024-11-08T05:00:00	7	Dirección del viento	4.83
77919	7	Sololá	717	San Juan la Laguna	12	San Juan la Laguna	9	Septiembre	2023-09-17T00:00:00	2024-11-08T05:00:00	1	Precipitación	0
77920	7	Sololá	717	San Juan la Laguna	12	San Juan la Laguna	9	Septiembre	2023-09-17T00:00:00	2024-11-08T05:00:00	8	Radiación solar	0
77921	7	Sololá	717	San Juan la Laguna	12	San Juan la Laguna	9	Septiembre	2023-09-17T00:00:00	2024-11-08T06:00:00	2	Temperatura media	14.8
77922	7	Sololá	717	San Juan la Laguna	12	San Juan la Laguna	9	Septiembre	2023-09-17T00:00:00	2024-11-08T06:00:00	4	Temperatura máxima	15.3
77923	7	Sololá	717	San Juan la Laguna	12	San Juan la Laguna	9	Septiembre	2023-09-17T00:00:00	2024-11-08T06:00:00	3	Temperatura mínima	14.6
77924	7	Sololá	717	San Juan la Laguna	12	San Juan la Laguna	9	Septiembre	2023-09-17T00:00:00	2024-11-08T06:00:00	5	Humedad	83
77925	7	Sololá	717	San Juan la Laguna	12	San Juan la Laguna	9	Septiembre	2023-09-17T00:00:00	2024-11-08T06:00:00	6	Velocidad del viento	3.2
77926	7	Sololá	717	San Juan la Laguna	12	San Juan la Laguna	9	Septiembre	2023-09-17T00:00:00	2024-11-08T06:00:00	7	Dirección del viento	3.22
77927	7	Sololá	717	San Juan la Laguna	12	San Juan la Laguna	9	Septiembre	2023-09-17T00:00:00	2024-11-08T06:00:00	1	Precipitación	0
77928	7	Sololá	717	San Juan la Laguna	12	San Juan la Laguna	9	Septiembre	2023-09-17T00:00:00	2024-11-08T06:00:00	8	Radiación solar	0
77929	7	Sololá	717	San Juan la Laguna	12	San Juan la Laguna	9	Septiembre	2023-09-17T00:00:00	2024-11-08T07:00:00	2	Temperatura media	15.5
77930	7	Sololá	717	San Juan la Laguna	12	San Juan la Laguna	9	Septiembre	2023-09-17T00:00:00	2024-11-08T07:00:00	4	Temperatura máxima	15.5
77931	7	Sololá	717	San Juan la Laguna	12	San Juan la Laguna	9	Septiembre	2023-09-17T00:00:00	2024-11-08T07:00:00	3	Temperatura mínima	14.6
77932	7	Sololá	717	San Juan la Laguna	12	San Juan la Laguna	9	Septiembre	2023-09-17T00:00:00	2024-11-08T07:00:00	5	Humedad	82
77933	7	Sololá	717	San Juan la Laguna	12	San Juan la Laguna	9	Septiembre	2023-09-17T00:00:00	2024-11-08T07:00:00	6	Velocidad del viento	4.8
77934	7	Sololá	717	San Juan la Laguna	12	San Juan la Laguna	9	Septiembre	2023-09-17T00:00:00	2024-11-08T07:00:00	7	Dirección del viento	4.83
77935	7	Sololá	717	San Juan la Laguna	12	San Juan la Laguna	9	Septiembre	2023-09-17T00:00:00	2024-11-08T07:00:00	1	Precipitación	0
77936	7	Sololá	717	San Juan la Laguna	12	San Juan la Laguna	9	Septiembre	2023-09-17T00:00:00	2024-11-08T07:00:00	8	Radiación solar	43
77937	7	Sololá	717	San Juan la Laguna	12	San Juan la Laguna	9	Septiembre	2023-09-17T00:00:00	2024-11-08T08:00:00	2	Temperatura media	19.5
77938	7	Sololá	717	San Juan la Laguna	12	San Juan la Laguna	9	Septiembre	2023-09-17T00:00:00	2024-11-08T08:00:00	4	Temperatura máxima	19.5
77939	7	Sololá	717	San Juan la Laguna	12	San Juan la Laguna	9	Septiembre	2023-09-17T00:00:00	2024-11-08T08:00:00	3	Temperatura mínima	15.6
77940	7	Sololá	717	San Juan la Laguna	12	San Juan la Laguna	9	Septiembre	2023-09-17T00:00:00	2024-11-08T08:00:00	5	Humedad	71
77941	7	Sololá	717	San Juan la Laguna	12	San Juan la Laguna	9	Septiembre	2023-09-17T00:00:00	2024-11-08T08:00:00	6	Velocidad del viento	0
77942	7	Sololá	717	San Juan la Laguna	12	San Juan la Laguna	9	Septiembre	2023-09-17T00:00:00	2024-11-08T08:00:00	7	Dirección del viento	0
77943	7	Sololá	717	San Juan la Laguna	12	San Juan la Laguna	9	Septiembre	2023-09-17T00:00:00	2024-11-08T08:00:00	1	Precipitación	0
77944	7	Sololá	717	San Juan la Laguna	12	San Juan la Laguna	9	Septiembre	2023-09-17T00:00:00	2024-11-08T08:00:00	8	Radiación solar	211
77945	7	Sololá	717	San Juan la Laguna	12	San Juan la Laguna	9	Septiembre	2023-09-17T00:00:00	2024-11-08T09:00:00	2	Temperatura media	21.9
77946	7	Sololá	717	San Juan la Laguna	12	San Juan la Laguna	9	Septiembre	2023-09-17T00:00:00	2024-11-08T09:00:00	4	Temperatura máxima	21.9
77947	7	Sololá	717	San Juan la Laguna	12	San Juan la Laguna	9	Septiembre	2023-09-17T00:00:00	2024-11-08T09:00:00	3	Temperatura mínima	19.5
77948	7	Sololá	717	San Juan la Laguna	12	San Juan la Laguna	9	Septiembre	2023-09-17T00:00:00	2024-11-08T09:00:00	5	Humedad	65
77949	7	Sololá	717	San Juan la Laguna	12	San Juan la Laguna	9	Septiembre	2023-09-17T00:00:00	2024-11-08T09:00:00	6	Velocidad del viento	1.6
77950	7	Sololá	717	San Juan la Laguna	12	San Juan la Laguna	9	Septiembre	2023-09-17T00:00:00	2024-11-08T09:00:00	7	Dirección del viento	1.61
77951	7	Sololá	717	San Juan la Laguna	12	San Juan la Laguna	9	Septiembre	2023-09-17T00:00:00	2024-11-08T09:00:00	1	Precipitación	0
77952	7	Sololá	717	San Juan la Laguna	12	San Juan la Laguna	9	Septiembre	2023-09-17T00:00:00	2024-11-08T09:00:00	8	Radiación solar	441
77953	7	Sololá	717	San Juan la Laguna	12	San Juan la Laguna	9	Septiembre	2023-09-17T00:00:00	2024-11-08T10:00:00	2	Temperatura media	23.7
77954	7	Sololá	717	San Juan la Laguna	12	San Juan la Laguna	9	Septiembre	2023-09-17T00:00:00	2024-11-08T10:00:00	4	Temperatura máxima	23.7
77955	7	Sololá	717	San Juan la Laguna	12	San Juan la Laguna	9	Septiembre	2023-09-17T00:00:00	2024-11-08T10:00:00	3	Temperatura mínima	21.9
77956	7	Sololá	717	San Juan la Laguna	12	San Juan la Laguna	9	Septiembre	2023-09-17T00:00:00	2024-11-08T10:00:00	5	Humedad	52
77957	7	Sololá	717	San Juan la Laguna	12	San Juan la Laguna	9	Septiembre	2023-09-17T00:00:00	2024-11-08T10:00:00	6	Velocidad del viento	0
77958	7	Sololá	717	San Juan la Laguna	12	San Juan la Laguna	9	Septiembre	2023-09-17T00:00:00	2024-11-08T10:00:00	7	Dirección del viento	0
77959	7	Sololá	717	San Juan la Laguna	12	San Juan la Laguna	9	Septiembre	2023-09-17T00:00:00	2024-11-08T10:00:00	1	Precipitación	0
77960	7	Sololá	717	San Juan la Laguna	12	San Juan la Laguna	9	Septiembre	2023-09-17T00:00:00	2024-11-08T10:00:00	8	Radiación solar	692
77961	7	Sololá	717	San Juan la Laguna	12	San Juan la Laguna	9	Septiembre	2023-09-17T00:00:00	2024-11-08T11:00:00	2	Temperatura media	25.3
77962	7	Sololá	717	San Juan la Laguna	12	San Juan la Laguna	9	Septiembre	2023-09-17T00:00:00	2024-11-08T11:00:00	4	Temperatura máxima	25.4
77963	7	Sololá	717	San Juan la Laguna	12	San Juan la Laguna	9	Septiembre	2023-09-17T00:00:00	2024-11-08T11:00:00	3	Temperatura mínima	23.8
77964	7	Sololá	717	San Juan la Laguna	12	San Juan la Laguna	9	Septiembre	2023-09-17T00:00:00	2024-11-08T11:00:00	5	Humedad	50
77965	7	Sololá	717	San Juan la Laguna	12	San Juan la Laguna	9	Septiembre	2023-09-17T00:00:00	2024-11-08T11:00:00	6	Velocidad del viento	0
77966	7	Sololá	717	San Juan la Laguna	12	San Juan la Laguna	9	Septiembre	2023-09-17T00:00:00	2024-11-08T11:00:00	7	Dirección del viento	0
77967	7	Sololá	717	San Juan la Laguna	12	San Juan la Laguna	9	Septiembre	2023-09-17T00:00:00	2024-11-08T11:00:00	1	Precipitación	0
77968	7	Sololá	717	San Juan la Laguna	12	San Juan la Laguna	9	Septiembre	2023-09-17T00:00:00	2024-11-08T11:00:00	8	Radiación solar	835
77969	7	Sololá	717	San Juan la Laguna	12	San Juan la Laguna	9	Septiembre	2023-09-17T00:00:00	2024-11-08T12:00:00	2	Temperatura media	25.9
77970	7	Sololá	717	San Juan la Laguna	12	San Juan la Laguna	9	Septiembre	2023-09-17T00:00:00	2024-11-08T12:00:00	4	Temperatura máxima	26.2
77971	7	Sololá	717	San Juan la Laguna	12	San Juan la Laguna	9	Septiembre	2023-09-17T00:00:00	2024-11-08T12:00:00	3	Temperatura mínima	24.9
77972	7	Sololá	717	San Juan la Laguna	12	San Juan la Laguna	9	Septiembre	2023-09-17T00:00:00	2024-11-08T12:00:00	5	Humedad	51
77973	7	Sololá	717	San Juan la Laguna	12	San Juan la Laguna	9	Septiembre	2023-09-17T00:00:00	2024-11-08T12:00:00	6	Velocidad del viento	1.6
77974	7	Sololá	717	San Juan la Laguna	12	San Juan la Laguna	9	Septiembre	2023-09-17T00:00:00	2024-11-08T12:00:00	7	Dirección del viento	1.61
77975	7	Sololá	717	San Juan la Laguna	12	San Juan la Laguna	9	Septiembre	2023-09-17T00:00:00	2024-11-08T12:00:00	1	Precipitación	0
77976	7	Sololá	717	San Juan la Laguna	12	San Juan la Laguna	9	Septiembre	2023-09-17T00:00:00	2024-11-08T12:00:00	8	Radiación solar	906
77977	7	Sololá	717	San Juan la Laguna	12	San Juan la Laguna	9	Septiembre	2023-09-17T00:00:00	2024-11-08T13:00:00	2	Temperatura media	24.9
77978	7	Sololá	717	San Juan la Laguna	12	San Juan la Laguna	9	Septiembre	2023-09-17T00:00:00	2024-11-08T13:00:00	4	Temperatura máxima	26.1
77979	7	Sololá	717	San Juan la Laguna	12	San Juan la Laguna	9	Septiembre	2023-09-17T00:00:00	2024-11-08T13:00:00	3	Temperatura mínima	24.9
77980	7	Sololá	717	San Juan la Laguna	12	San Juan la Laguna	9	Septiembre	2023-09-17T00:00:00	2024-11-08T13:00:00	5	Humedad	55
77981	7	Sololá	717	San Juan la Laguna	12	San Juan la Laguna	9	Septiembre	2023-09-17T00:00:00	2024-11-08T13:00:00	6	Velocidad del viento	1.6
77982	7	Sololá	717	San Juan la Laguna	12	San Juan la Laguna	9	Septiembre	2023-09-17T00:00:00	2024-11-08T13:00:00	7	Dirección del viento	1.61
77983	7	Sololá	717	San Juan la Laguna	12	San Juan la Laguna	9	Septiembre	2023-09-17T00:00:00	2024-11-08T13:00:00	1	Precipitación	0
77984	7	Sololá	717	San Juan la Laguna	12	San Juan la Laguna	9	Septiembre	2023-09-17T00:00:00	2024-11-08T13:00:00	8	Radiación solar	878
77985	7	Sololá	717	San Juan la Laguna	12	San Juan la Laguna	9	Septiembre	2023-09-17T00:00:00	2024-11-08T14:00:00	2	Temperatura media	24.3
77986	7	Sololá	717	San Juan la Laguna	12	San Juan la Laguna	9	Septiembre	2023-09-17T00:00:00	2024-11-08T14:00:00	4	Temperatura máxima	25.3
77987	7	Sololá	717	San Juan la Laguna	12	San Juan la Laguna	9	Septiembre	2023-09-17T00:00:00	2024-11-08T14:00:00	3	Temperatura mínima	24.2
77988	7	Sololá	717	San Juan la Laguna	12	San Juan la Laguna	9	Septiembre	2023-09-17T00:00:00	2024-11-08T14:00:00	5	Humedad	66
77989	7	Sololá	717	San Juan la Laguna	12	San Juan la Laguna	9	Septiembre	2023-09-17T00:00:00	2024-11-08T14:00:00	6	Velocidad del viento	0
77990	7	Sololá	717	San Juan la Laguna	12	San Juan la Laguna	9	Septiembre	2023-09-17T00:00:00	2024-11-08T14:00:00	7	Dirección del viento	0
77991	7	Sololá	717	San Juan la Laguna	12	San Juan la Laguna	9	Septiembre	2023-09-17T00:00:00	2024-11-08T14:00:00	1	Precipitación	0
77992	7	Sololá	717	San Juan la Laguna	12	San Juan la Laguna	9	Septiembre	2023-09-17T00:00:00	2024-11-08T14:00:00	8	Radiación solar	781
77993	7	Sololá	717	San Juan la Laguna	12	San Juan la Laguna	9	Septiembre	2023-09-17T00:00:00	2024-11-08T15:00:00	2	Temperatura media	25.1
77994	7	Sololá	717	San Juan la Laguna	12	San Juan la Laguna	9	Septiembre	2023-09-17T00:00:00	2024-11-08T15:00:00	4	Temperatura máxima	25.3
77995	7	Sololá	717	San Juan la Laguna	12	San Juan la Laguna	9	Septiembre	2023-09-17T00:00:00	2024-11-08T15:00:00	3	Temperatura mínima	24.3
77996	7	Sololá	717	San Juan la Laguna	12	San Juan la Laguna	9	Septiembre	2023-09-17T00:00:00	2024-11-08T15:00:00	5	Humedad	64
77997	7	Sololá	717	San Juan la Laguna	12	San Juan la Laguna	9	Septiembre	2023-09-17T00:00:00	2024-11-08T15:00:00	6	Velocidad del viento	0
77998	7	Sololá	717	San Juan la Laguna	12	San Juan la Laguna	9	Septiembre	2023-09-17T00:00:00	2024-11-08T15:00:00	7	Dirección del viento	0
77999	7	Sololá	717	San Juan la Laguna	12	San Juan la Laguna	9	Septiembre	2023-09-17T00:00:00	2024-11-08T15:00:00	1	Precipitación	0
78000	7	Sololá	717	San Juan la Laguna	12	San Juan la Laguna	9	Septiembre	2023-09-17T00:00:00	2024-11-08T15:00:00	8	Radiación solar	723
78001	7	Sololá	717	San Juan la Laguna	12	San Juan la Laguna	9	Septiembre	2023-09-17T00:00:00	2024-11-08T16:00:00	2	Temperatura media	24.4
78002	7	Sololá	717	San Juan la Laguna	12	San Juan la Laguna	9	Septiembre	2023-09-17T00:00:00	2024-11-08T16:00:00	4	Temperatura máxima	25.1
78003	7	Sololá	717	San Juan la Laguna	12	San Juan la Laguna	9	Septiembre	2023-09-17T00:00:00	2024-11-08T16:00:00	3	Temperatura mínima	24.4
78004	7	Sololá	717	San Juan la Laguna	12	San Juan la Laguna	9	Septiembre	2023-09-17T00:00:00	2024-11-08T16:00:00	5	Humedad	68
78005	7	Sololá	717	San Juan la Laguna	12	San Juan la Laguna	9	Septiembre	2023-09-17T00:00:00	2024-11-08T16:00:00	6	Velocidad del viento	0
78006	7	Sololá	717	San Juan la Laguna	12	San Juan la Laguna	9	Septiembre	2023-09-17T00:00:00	2024-11-08T16:00:00	7	Dirección del viento	0
78007	7	Sololá	717	San Juan la Laguna	12	San Juan la Laguna	9	Septiembre	2023-09-17T00:00:00	2024-11-08T16:00:00	1	Precipitación	0
78008	7	Sololá	717	San Juan la Laguna	12	San Juan la Laguna	9	Septiembre	2023-09-17T00:00:00	2024-11-08T16:00:00	8	Radiación solar	511
78009	7	Sololá	717	San Juan la Laguna	12	San Juan la Laguna	9	Septiembre	2023-09-17T00:00:00	2024-11-08T17:00:00	2	Temperatura media	23.8
78010	7	Sololá	717	San Juan la Laguna	12	San Juan la Laguna	9	Septiembre	2023-09-17T00:00:00	2024-11-08T17:00:00	4	Temperatura máxima	24.6
78011	7	Sololá	717	San Juan la Laguna	12	San Juan la Laguna	9	Septiembre	2023-09-17T00:00:00	2024-11-08T17:00:00	3	Temperatura mínima	23.8
78012	7	Sololá	717	San Juan la Laguna	12	San Juan la Laguna	9	Septiembre	2023-09-17T00:00:00	2024-11-08T17:00:00	5	Humedad	71
78013	7	Sololá	717	San Juan la Laguna	12	San Juan la Laguna	9	Septiembre	2023-09-17T00:00:00	2024-11-08T17:00:00	6	Velocidad del viento	0
78014	7	Sololá	717	San Juan la Laguna	12	San Juan la Laguna	9	Septiembre	2023-09-17T00:00:00	2024-11-08T17:00:00	7	Dirección del viento	0
78015	7	Sololá	717	San Juan la Laguna	12	San Juan la Laguna	9	Septiembre	2023-09-17T00:00:00	2024-11-08T17:00:00	1	Precipitación	0
78016	7	Sololá	717	San Juan la Laguna	12	San Juan la Laguna	9	Septiembre	2023-09-17T00:00:00	2024-11-08T17:00:00	8	Radiación solar	282
78017	7	Sololá	717	San Juan la Laguna	12	San Juan la Laguna	9	Septiembre	2023-09-17T00:00:00	2024-11-08T18:00:00	2	Temperatura media	21.4
78018	7	Sololá	717	San Juan la Laguna	12	San Juan la Laguna	9	Septiembre	2023-09-17T00:00:00	2024-11-08T18:00:00	4	Temperatura máxima	23.8
78019	7	Sololá	717	San Juan la Laguna	12	San Juan la Laguna	9	Septiembre	2023-09-17T00:00:00	2024-11-08T18:00:00	3	Temperatura mínima	21.4
78020	7	Sololá	717	San Juan la Laguna	12	San Juan la Laguna	9	Septiembre	2023-09-17T00:00:00	2024-11-08T18:00:00	5	Humedad	82
78021	7	Sololá	717	San Juan la Laguna	12	San Juan la Laguna	9	Septiembre	2023-09-17T00:00:00	2024-11-08T18:00:00	6	Velocidad del viento	1.6
78022	7	Sololá	717	San Juan la Laguna	12	San Juan la Laguna	9	Septiembre	2023-09-17T00:00:00	2024-11-08T18:00:00	7	Dirección del viento	1.61
78023	7	Sololá	717	San Juan la Laguna	12	San Juan la Laguna	9	Septiembre	2023-09-17T00:00:00	2024-11-08T18:00:00	1	Precipitación	0
78024	7	Sololá	717	San Juan la Laguna	12	San Juan la Laguna	9	Septiembre	2023-09-17T00:00:00	2024-11-08T18:00:00	8	Radiación solar	16
78025	7	Sololá	717	San Juan la Laguna	12	San Juan la Laguna	9	Septiembre	2023-09-17T00:00:00	2024-11-08T19:00:00	2	Temperatura media	21
78026	7	Sololá	717	San Juan la Laguna	12	San Juan la Laguna	9	Septiembre	2023-09-17T00:00:00	2024-11-08T19:00:00	4	Temperatura máxima	21.4
78027	7	Sololá	717	San Juan la Laguna	12	San Juan la Laguna	9	Septiembre	2023-09-17T00:00:00	2024-11-08T19:00:00	3	Temperatura mínima	20.9
78028	7	Sololá	717	San Juan la Laguna	12	San Juan la Laguna	9	Septiembre	2023-09-17T00:00:00	2024-11-08T19:00:00	5	Humedad	83
78029	7	Sololá	717	San Juan la Laguna	12	San Juan la Laguna	9	Septiembre	2023-09-17T00:00:00	2024-11-08T19:00:00	6	Velocidad del viento	0
78030	7	Sololá	717	San Juan la Laguna	12	San Juan la Laguna	9	Septiembre	2023-09-17T00:00:00	2024-11-08T19:00:00	7	Dirección del viento	0
78031	7	Sololá	717	San Juan la Laguna	12	San Juan la Laguna	9	Septiembre	2023-09-17T00:00:00	2024-11-08T19:00:00	1	Precipitación	0
78032	7	Sololá	717	San Juan la Laguna	12	San Juan la Laguna	9	Septiembre	2023-09-17T00:00:00	2024-11-08T19:00:00	8	Radiación solar	0
78033	7	Sololá	717	San Juan la Laguna	12	San Juan la Laguna	9	Septiembre	2023-09-17T00:00:00	2024-11-08T20:00:00	2	Temperatura media	20.6
78034	7	Sololá	717	San Juan la Laguna	12	San Juan la Laguna	9	Septiembre	2023-09-17T00:00:00	2024-11-08T20:00:00	4	Temperatura máxima	21.2
78035	7	Sololá	717	San Juan la Laguna	12	San Juan la Laguna	9	Septiembre	2023-09-17T00:00:00	2024-11-08T20:00:00	3	Temperatura mínima	20.6
78036	7	Sololá	717	San Juan la Laguna	12	San Juan la Laguna	9	Septiembre	2023-09-17T00:00:00	2024-11-08T20:00:00	5	Humedad	85
78037	7	Sololá	717	San Juan la Laguna	12	San Juan la Laguna	9	Septiembre	2023-09-17T00:00:00	2024-11-08T20:00:00	6	Velocidad del viento	1.6
78038	7	Sololá	717	San Juan la Laguna	12	San Juan la Laguna	9	Septiembre	2023-09-17T00:00:00	2024-11-08T20:00:00	7	Dirección del viento	1.61
78039	7	Sololá	717	San Juan la Laguna	12	San Juan la Laguna	9	Septiembre	2023-09-17T00:00:00	2024-11-08T20:00:00	1	Precipitación	0
78040	7	Sololá	717	San Juan la Laguna	12	San Juan la Laguna	9	Septiembre	2023-09-17T00:00:00	2024-11-08T20:00:00	8	Radiación solar	0
78041	7	Sololá	717	San Juan la Laguna	12	San Juan la Laguna	9	Septiembre	2023-09-17T00:00:00	2024-11-08T21:00:00	2	Temperatura media	20.3
78042	7	Sololá	717	San Juan la Laguna	12	San Juan la Laguna	9	Septiembre	2023-09-17T00:00:00	2024-11-08T21:00:00	4	Temperatura máxima	20.7
78043	7	Sololá	717	San Juan la Laguna	12	San Juan la Laguna	9	Septiembre	2023-09-17T00:00:00	2024-11-08T21:00:00	3	Temperatura mínima	20.2
78044	7	Sololá	717	San Juan la Laguna	12	San Juan la Laguna	9	Septiembre	2023-09-17T00:00:00	2024-11-08T21:00:00	5	Humedad	86
78045	7	Sololá	717	San Juan la Laguna	12	San Juan la Laguna	9	Septiembre	2023-09-17T00:00:00	2024-11-08T21:00:00	6	Velocidad del viento	1.6
78046	7	Sololá	717	San Juan la Laguna	12	San Juan la Laguna	9	Septiembre	2023-09-17T00:00:00	2024-11-08T21:00:00	7	Dirección del viento	1.61
78047	7	Sololá	717	San Juan la Laguna	12	San Juan la Laguna	9	Septiembre	2023-09-17T00:00:00	2024-11-08T21:00:00	1	Precipitación	0
78048	7	Sololá	717	San Juan la Laguna	12	San Juan la Laguna	9	Septiembre	2023-09-17T00:00:00	2024-11-08T21:00:00	8	Radiación solar	0
78049	7	Sololá	717	San Juan la Laguna	12	San Juan la Laguna	9	Septiembre	2023-09-17T00:00:00	2024-11-08T22:00:00	2	Temperatura media	19.8
78050	7	Sololá	717	San Juan la Laguna	12	San Juan la Laguna	9	Septiembre	2023-09-17T00:00:00	2024-11-08T22:00:00	4	Temperatura máxima	20.4
78051	7	Sololá	717	San Juan la Laguna	12	San Juan la Laguna	9	Septiembre	2023-09-17T00:00:00	2024-11-08T22:00:00	3	Temperatura mínima	19.8
78052	7	Sololá	717	San Juan la Laguna	12	San Juan la Laguna	9	Septiembre	2023-09-17T00:00:00	2024-11-08T22:00:00	5	Humedad	83
78053	7	Sololá	717	San Juan la Laguna	12	San Juan la Laguna	9	Septiembre	2023-09-17T00:00:00	2024-11-08T22:00:00	6	Velocidad del viento	3.2
78054	7	Sololá	717	San Juan la Laguna	12	San Juan la Laguna	9	Septiembre	2023-09-17T00:00:00	2024-11-08T22:00:00	7	Dirección del viento	3.22
78055	7	Sololá	717	San Juan la Laguna	12	San Juan la Laguna	9	Septiembre	2023-09-17T00:00:00	2024-11-08T22:00:00	1	Precipitación	0
78056	7	Sololá	717	San Juan la Laguna	12	San Juan la Laguna	9	Septiembre	2023-09-17T00:00:00	2024-11-08T22:00:00	8	Radiación solar	0
78057	7	Sololá	717	San Juan la Laguna	12	San Juan la Laguna	9	Septiembre	2023-09-17T00:00:00	2024-11-08T23:00:00	2	Temperatura media	16.2
78058	7	Sololá	717	San Juan la Laguna	12	San Juan la Laguna	9	Septiembre	2023-09-17T00:00:00	2024-11-08T23:00:00	4	Temperatura máxima	19.8
78059	7	Sololá	717	San Juan la Laguna	12	San Juan la Laguna	9	Septiembre	2023-09-17T00:00:00	2024-11-08T23:00:00	3	Temperatura mínima	16.2
78060	7	Sololá	717	San Juan la Laguna	12	San Juan la Laguna	9	Septiembre	2023-09-17T00:00:00	2024-11-08T23:00:00	5	Humedad	90
78061	7	Sololá	717	San Juan la Laguna	12	San Juan la Laguna	9	Septiembre	2023-09-17T00:00:00	2024-11-08T23:00:00	6	Velocidad del viento	6.4
78062	7	Sololá	717	San Juan la Laguna	12	San Juan la Laguna	9	Septiembre	2023-09-17T00:00:00	2024-11-08T23:00:00	7	Dirección del viento	6.44
78063	7	Sololá	717	San Juan la Laguna	12	San Juan la Laguna	9	Septiembre	2023-09-17T00:00:00	2024-11-08T23:00:00	1	Precipitación	26.2
78064	7	Sololá	717	San Juan la Laguna	12	San Juan la Laguna	9	Septiembre	2023-09-17T00:00:00	2024-11-08T23:00:00	8	Radiación solar	0
78065	7	Sololá	717	San Juan la Laguna	12	San Juan la Laguna	9	Septiembre	2023-09-18T00:00:00	2024-11-08T00:00:00	2	Temperatura media	16.3
78066	7	Sololá	717	San Juan la Laguna	12	San Juan la Laguna	9	Septiembre	2023-09-18T00:00:00	2024-11-08T00:00:00	4	Temperatura máxima	16.4
78067	7	Sololá	717	San Juan la Laguna	12	San Juan la Laguna	9	Septiembre	2023-09-18T00:00:00	2024-11-08T00:00:00	3	Temperatura mínima	16
78068	7	Sololá	717	San Juan la Laguna	12	San Juan la Laguna	9	Septiembre	2023-09-18T00:00:00	2024-11-08T00:00:00	5	Humedad	91
78069	7	Sololá	717	San Juan la Laguna	12	San Juan la Laguna	9	Septiembre	2023-09-18T00:00:00	2024-11-08T00:00:00	6	Velocidad del viento	3.2
78070	7	Sololá	717	San Juan la Laguna	12	San Juan la Laguna	9	Septiembre	2023-09-18T00:00:00	2024-11-08T00:00:00	7	Dirección del viento	3.22
78071	7	Sololá	717	San Juan la Laguna	12	San Juan la Laguna	9	Septiembre	2023-09-18T00:00:00	2024-11-08T00:00:00	1	Precipitación	9.6
78072	7	Sololá	717	San Juan la Laguna	12	San Juan la Laguna	9	Septiembre	2023-09-18T00:00:00	2024-11-08T00:00:00	8	Radiación solar	0
78073	7	Sololá	717	San Juan la Laguna	12	San Juan la Laguna	9	Septiembre	2023-09-18T00:00:00	2024-11-08T01:00:00	2	Temperatura media	16.2
78074	7	Sololá	717	San Juan la Laguna	12	San Juan la Laguna	9	Septiembre	2023-09-18T00:00:00	2024-11-08T01:00:00	4	Temperatura máxima	16.3
78075	7	Sololá	717	San Juan la Laguna	12	San Juan la Laguna	9	Septiembre	2023-09-18T00:00:00	2024-11-08T01:00:00	3	Temperatura mínima	16.2
78076	7	Sololá	717	San Juan la Laguna	12	San Juan la Laguna	9	Septiembre	2023-09-18T00:00:00	2024-11-08T01:00:00	5	Humedad	91
78077	7	Sololá	717	San Juan la Laguna	12	San Juan la Laguna	9	Septiembre	2023-09-18T00:00:00	2024-11-08T01:00:00	6	Velocidad del viento	1.6
78078	7	Sololá	717	San Juan la Laguna	12	San Juan la Laguna	9	Septiembre	2023-09-18T00:00:00	2024-11-08T01:00:00	7	Dirección del viento	1.61
78079	7	Sololá	717	San Juan la Laguna	12	San Juan la Laguna	9	Septiembre	2023-09-18T00:00:00	2024-11-08T01:00:00	1	Precipitación	1.2
78080	7	Sololá	717	San Juan la Laguna	12	San Juan la Laguna	9	Septiembre	2023-09-18T00:00:00	2024-11-08T01:00:00	8	Radiación solar	0
78081	7	Sololá	717	San Juan la Laguna	12	San Juan la Laguna	9	Septiembre	2023-09-18T00:00:00	2024-11-08T02:00:00	2	Temperatura media	16
78082	7	Sololá	717	San Juan la Laguna	12	San Juan la Laguna	9	Septiembre	2023-09-18T00:00:00	2024-11-08T02:00:00	4	Temperatura máxima	16.3
78083	7	Sololá	717	San Juan la Laguna	12	San Juan la Laguna	9	Septiembre	2023-09-18T00:00:00	2024-11-08T02:00:00	3	Temperatura mínima	16
78084	7	Sololá	717	San Juan la Laguna	12	San Juan la Laguna	9	Septiembre	2023-09-18T00:00:00	2024-11-08T02:00:00	5	Humedad	91
78085	7	Sololá	717	San Juan la Laguna	12	San Juan la Laguna	9	Septiembre	2023-09-18T00:00:00	2024-11-08T02:00:00	6	Velocidad del viento	3.2
78086	7	Sololá	717	San Juan la Laguna	12	San Juan la Laguna	9	Septiembre	2023-09-18T00:00:00	2024-11-08T02:00:00	7	Dirección del viento	3.22
78087	7	Sololá	717	San Juan la Laguna	12	San Juan la Laguna	9	Septiembre	2023-09-18T00:00:00	2024-11-08T02:00:00	1	Precipitación	0
78088	7	Sololá	717	San Juan la Laguna	12	San Juan la Laguna	9	Septiembre	2023-09-18T00:00:00	2024-11-08T02:00:00	8	Radiación solar	0
78089	7	Sololá	717	San Juan la Laguna	12	San Juan la Laguna	9	Septiembre	2023-09-18T00:00:00	2024-11-08T03:00:00	2	Temperatura media	16.1
78090	7	Sololá	717	San Juan la Laguna	12	San Juan la Laguna	9	Septiembre	2023-09-18T00:00:00	2024-11-08T03:00:00	4	Temperatura máxima	16.1
78091	7	Sololá	717	San Juan la Laguna	12	San Juan la Laguna	9	Septiembre	2023-09-18T00:00:00	2024-11-08T03:00:00	3	Temperatura mínima	15.8
78092	7	Sololá	717	San Juan la Laguna	12	San Juan la Laguna	9	Septiembre	2023-09-18T00:00:00	2024-11-08T03:00:00	5	Humedad	89
78093	7	Sololá	717	San Juan la Laguna	12	San Juan la Laguna	9	Septiembre	2023-09-18T00:00:00	2024-11-08T03:00:00	6	Velocidad del viento	6.4
78094	7	Sololá	717	San Juan la Laguna	12	San Juan la Laguna	9	Septiembre	2023-09-18T00:00:00	2024-11-08T03:00:00	7	Dirección del viento	6.44
78095	7	Sololá	717	San Juan la Laguna	12	San Juan la Laguna	9	Septiembre	2023-09-18T00:00:00	2024-11-08T03:00:00	1	Precipitación	0.2
78096	7	Sololá	717	San Juan la Laguna	12	San Juan la Laguna	9	Septiembre	2023-09-18T00:00:00	2024-11-08T03:00:00	8	Radiación solar	0
78097	7	Sololá	717	San Juan la Laguna	12	San Juan la Laguna	9	Septiembre	2023-09-18T00:00:00	2024-11-08T04:00:00	2	Temperatura media	15.4
78098	7	Sololá	717	San Juan la Laguna	12	San Juan la Laguna	9	Septiembre	2023-09-18T00:00:00	2024-11-08T04:00:00	4	Temperatura máxima	16.2
78099	7	Sololá	717	San Juan la Laguna	12	San Juan la Laguna	9	Septiembre	2023-09-18T00:00:00	2024-11-08T04:00:00	3	Temperatura mínima	15.4
78100	7	Sololá	717	San Juan la Laguna	12	San Juan la Laguna	9	Septiembre	2023-09-18T00:00:00	2024-11-08T04:00:00	5	Humedad	89
78101	7	Sololá	717	San Juan la Laguna	12	San Juan la Laguna	9	Septiembre	2023-09-18T00:00:00	2024-11-08T04:00:00	6	Velocidad del viento	4.8
78102	7	Sololá	717	San Juan la Laguna	12	San Juan la Laguna	9	Septiembre	2023-09-18T00:00:00	2024-11-08T04:00:00	7	Dirección del viento	4.83
78103	7	Sololá	717	San Juan la Laguna	12	San Juan la Laguna	9	Septiembre	2023-09-18T00:00:00	2024-11-08T04:00:00	1	Precipitación	0
78104	7	Sololá	717	San Juan la Laguna	12	San Juan la Laguna	9	Septiembre	2023-09-18T00:00:00	2024-11-08T04:00:00	8	Radiación solar	0
78105	7	Sololá	717	San Juan la Laguna	12	San Juan la Laguna	9	Septiembre	2023-09-18T00:00:00	2024-11-08T05:00:00	2	Temperatura media	14.9
78106	7	Sololá	717	San Juan la Laguna	12	San Juan la Laguna	9	Septiembre	2023-09-18T00:00:00	2024-11-08T05:00:00	4	Temperatura máxima	15.4
78107	7	Sololá	717	San Juan la Laguna	12	San Juan la Laguna	9	Septiembre	2023-09-18T00:00:00	2024-11-08T05:00:00	3	Temperatura mínima	14.7
78108	7	Sololá	717	San Juan la Laguna	12	San Juan la Laguna	9	Septiembre	2023-09-18T00:00:00	2024-11-08T05:00:00	5	Humedad	89
78109	7	Sololá	717	San Juan la Laguna	12	San Juan la Laguna	9	Septiembre	2023-09-18T00:00:00	2024-11-08T05:00:00	6	Velocidad del viento	4.8
78110	7	Sololá	717	San Juan la Laguna	12	San Juan la Laguna	9	Septiembre	2023-09-18T00:00:00	2024-11-08T05:00:00	7	Dirección del viento	4.83
78111	7	Sololá	717	San Juan la Laguna	12	San Juan la Laguna	9	Septiembre	2023-09-18T00:00:00	2024-11-08T05:00:00	1	Precipitación	0
78112	7	Sololá	717	San Juan la Laguna	12	San Juan la Laguna	9	Septiembre	2023-09-18T00:00:00	2024-11-08T05:00:00	8	Radiación solar	0
78113	7	Sololá	717	San Juan la Laguna	12	San Juan la Laguna	9	Septiembre	2023-09-18T00:00:00	2024-11-08T06:00:00	2	Temperatura media	15.4
78114	7	Sololá	717	San Juan la Laguna	12	San Juan la Laguna	9	Septiembre	2023-09-18T00:00:00	2024-11-08T06:00:00	4	Temperatura máxima	15.5
78115	7	Sololá	717	San Juan la Laguna	12	San Juan la Laguna	9	Septiembre	2023-09-18T00:00:00	2024-11-08T06:00:00	3	Temperatura mínima	14.7
78116	7	Sololá	717	San Juan la Laguna	12	San Juan la Laguna	9	Septiembre	2023-09-18T00:00:00	2024-11-08T06:00:00	5	Humedad	88
78117	7	Sololá	717	San Juan la Laguna	12	San Juan la Laguna	9	Septiembre	2023-09-18T00:00:00	2024-11-08T06:00:00	6	Velocidad del viento	3.2
78118	7	Sololá	717	San Juan la Laguna	12	San Juan la Laguna	9	Septiembre	2023-09-18T00:00:00	2024-11-08T06:00:00	7	Dirección del viento	3.22
78119	7	Sololá	717	San Juan la Laguna	12	San Juan la Laguna	9	Septiembre	2023-09-18T00:00:00	2024-11-08T06:00:00	1	Precipitación	0
78120	7	Sololá	717	San Juan la Laguna	12	San Juan la Laguna	9	Septiembre	2023-09-18T00:00:00	2024-11-08T06:00:00	8	Radiación solar	0
78121	7	Sololá	717	San Juan la Laguna	12	San Juan la Laguna	9	Septiembre	2023-09-18T00:00:00	2024-11-08T07:00:00	2	Temperatura media	16.3
78122	7	Sololá	717	San Juan la Laguna	12	San Juan la Laguna	9	Septiembre	2023-09-18T00:00:00	2024-11-08T07:00:00	4	Temperatura máxima	16.4
78123	7	Sololá	717	San Juan la Laguna	12	San Juan la Laguna	9	Septiembre	2023-09-18T00:00:00	2024-11-08T07:00:00	3	Temperatura mínima	15.3
78124	7	Sololá	717	San Juan la Laguna	12	San Juan la Laguna	9	Septiembre	2023-09-18T00:00:00	2024-11-08T07:00:00	5	Humedad	85
78125	7	Sololá	717	San Juan la Laguna	12	San Juan la Laguna	9	Septiembre	2023-09-18T00:00:00	2024-11-08T07:00:00	6	Velocidad del viento	3.2
78126	7	Sololá	717	San Juan la Laguna	12	San Juan la Laguna	9	Septiembre	2023-09-18T00:00:00	2024-11-08T07:00:00	7	Dirección del viento	3.22
78127	7	Sololá	717	San Juan la Laguna	12	San Juan la Laguna	9	Septiembre	2023-09-18T00:00:00	2024-11-08T07:00:00	1	Precipitación	0
78128	7	Sololá	717	San Juan la Laguna	12	San Juan la Laguna	9	Septiembre	2023-09-18T00:00:00	2024-11-08T07:00:00	8	Radiación solar	44
78129	7	Sololá	717	San Juan la Laguna	12	San Juan la Laguna	9	Septiembre	2023-09-18T00:00:00	2024-11-08T08:00:00	2	Temperatura media	20.9
78130	7	Sololá	717	San Juan la Laguna	12	San Juan la Laguna	9	Septiembre	2023-09-18T00:00:00	2024-11-08T08:00:00	4	Temperatura máxima	20.9
78131	7	Sololá	717	San Juan la Laguna	12	San Juan la Laguna	9	Septiembre	2023-09-18T00:00:00	2024-11-08T08:00:00	3	Temperatura mínima	16.3
78132	7	Sololá	717	San Juan la Laguna	12	San Juan la Laguna	9	Septiembre	2023-09-18T00:00:00	2024-11-08T08:00:00	5	Humedad	70
78133	7	Sololá	717	San Juan la Laguna	12	San Juan la Laguna	9	Septiembre	2023-09-18T00:00:00	2024-11-08T08:00:00	6	Velocidad del viento	4.8
78134	7	Sololá	717	San Juan la Laguna	12	San Juan la Laguna	9	Septiembre	2023-09-18T00:00:00	2024-11-08T08:00:00	7	Dirección del viento	4.83
78135	7	Sololá	717	San Juan la Laguna	12	San Juan la Laguna	9	Septiembre	2023-09-18T00:00:00	2024-11-08T08:00:00	1	Precipitación	0
78136	7	Sololá	717	San Juan la Laguna	12	San Juan la Laguna	9	Septiembre	2023-09-18T00:00:00	2024-11-08T08:00:00	8	Radiación solar	226
78137	7	Sololá	717	San Juan la Laguna	12	San Juan la Laguna	9	Septiembre	2023-09-18T00:00:00	2024-11-08T09:00:00	2	Temperatura media	22.7
78138	7	Sololá	717	San Juan la Laguna	12	San Juan la Laguna	9	Septiembre	2023-09-18T00:00:00	2024-11-08T09:00:00	4	Temperatura máxima	22.7
78139	7	Sololá	717	San Juan la Laguna	12	San Juan la Laguna	9	Septiembre	2023-09-18T00:00:00	2024-11-08T09:00:00	3	Temperatura mínima	20.9
78140	7	Sololá	717	San Juan la Laguna	12	San Juan la Laguna	9	Septiembre	2023-09-18T00:00:00	2024-11-08T09:00:00	5	Humedad	58
78141	7	Sololá	717	San Juan la Laguna	12	San Juan la Laguna	9	Septiembre	2023-09-18T00:00:00	2024-11-08T09:00:00	6	Velocidad del viento	6.4
78142	7	Sololá	717	San Juan la Laguna	12	San Juan la Laguna	9	Septiembre	2023-09-18T00:00:00	2024-11-08T09:00:00	7	Dirección del viento	6.44
78143	7	Sololá	717	San Juan la Laguna	12	San Juan la Laguna	9	Septiembre	2023-09-18T00:00:00	2024-11-08T09:00:00	1	Precipitación	0
78144	7	Sololá	717	San Juan la Laguna	12	San Juan la Laguna	9	Septiembre	2023-09-18T00:00:00	2024-11-08T09:00:00	8	Radiación solar	510
78145	7	Sololá	717	San Juan la Laguna	12	San Juan la Laguna	9	Septiembre	2023-09-18T00:00:00	2024-11-08T10:00:00	2	Temperatura media	25
78146	7	Sololá	717	San Juan la Laguna	12	San Juan la Laguna	9	Septiembre	2023-09-18T00:00:00	2024-11-08T10:00:00	4	Temperatura máxima	25
78147	7	Sololá	717	San Juan la Laguna	12	San Juan la Laguna	9	Septiembre	2023-09-18T00:00:00	2024-11-08T10:00:00	3	Temperatura mínima	22.7
78148	7	Sololá	717	San Juan la Laguna	12	San Juan la Laguna	9	Septiembre	2023-09-18T00:00:00	2024-11-08T10:00:00	5	Humedad	49
78149	7	Sololá	717	San Juan la Laguna	12	San Juan la Laguna	9	Septiembre	2023-09-18T00:00:00	2024-11-08T10:00:00	6	Velocidad del viento	1.6
78150	7	Sololá	717	San Juan la Laguna	12	San Juan la Laguna	9	Septiembre	2023-09-18T00:00:00	2024-11-08T10:00:00	7	Dirección del viento	1.61
78151	7	Sololá	717	San Juan la Laguna	12	San Juan la Laguna	9	Septiembre	2023-09-18T00:00:00	2024-11-08T10:00:00	1	Precipitación	0
78152	7	Sololá	717	San Juan la Laguna	12	San Juan la Laguna	9	Septiembre	2023-09-18T00:00:00	2024-11-08T10:00:00	8	Radiación solar	716
78153	7	Sololá	717	San Juan la Laguna	12	San Juan la Laguna	9	Septiembre	2023-09-18T00:00:00	2024-11-08T11:00:00	2	Temperatura media	25.3
78154	7	Sololá	717	San Juan la Laguna	12	San Juan la Laguna	9	Septiembre	2023-09-18T00:00:00	2024-11-08T11:00:00	4	Temperatura máxima	26.2
78155	7	Sololá	717	San Juan la Laguna	12	San Juan la Laguna	9	Septiembre	2023-09-18T00:00:00	2024-11-08T11:00:00	3	Temperatura mínima	25
78156	7	Sololá	717	San Juan la Laguna	12	San Juan la Laguna	9	Septiembre	2023-09-18T00:00:00	2024-11-08T11:00:00	5	Humedad	49
78157	7	Sololá	717	San Juan la Laguna	12	San Juan la Laguna	9	Septiembre	2023-09-18T00:00:00	2024-11-08T11:00:00	6	Velocidad del viento	1.6
78158	7	Sololá	717	San Juan la Laguna	12	San Juan la Laguna	9	Septiembre	2023-09-18T00:00:00	2024-11-08T11:00:00	7	Dirección del viento	1.61
78159	7	Sololá	717	San Juan la Laguna	12	San Juan la Laguna	9	Septiembre	2023-09-18T00:00:00	2024-11-08T11:00:00	1	Precipitación	0
78160	7	Sololá	717	San Juan la Laguna	12	San Juan la Laguna	9	Septiembre	2023-09-18T00:00:00	2024-11-08T11:00:00	8	Radiación solar	846
78161	7	Sololá	717	San Juan la Laguna	12	San Juan la Laguna	9	Septiembre	2023-09-18T00:00:00	2024-11-08T12:00:00	2	Temperatura media	25.3
78162	7	Sololá	717	San Juan la Laguna	12	San Juan la Laguna	9	Septiembre	2023-09-18T00:00:00	2024-11-08T12:00:00	4	Temperatura máxima	25.7
78163	7	Sololá	717	San Juan la Laguna	12	San Juan la Laguna	9	Septiembre	2023-09-18T00:00:00	2024-11-08T12:00:00	3	Temperatura mínima	25.1
78164	7	Sololá	717	San Juan la Laguna	12	San Juan la Laguna	9	Septiembre	2023-09-18T00:00:00	2024-11-08T12:00:00	5	Humedad	57
78165	7	Sololá	717	San Juan la Laguna	12	San Juan la Laguna	9	Septiembre	2023-09-18T00:00:00	2024-11-08T12:00:00	6	Velocidad del viento	1.6
78166	7	Sololá	717	San Juan la Laguna	12	San Juan la Laguna	9	Septiembre	2023-09-18T00:00:00	2024-11-08T12:00:00	7	Dirección del viento	1.61
78167	7	Sololá	717	San Juan la Laguna	12	San Juan la Laguna	9	Septiembre	2023-09-18T00:00:00	2024-11-08T12:00:00	1	Precipitación	0
78168	7	Sololá	717	San Juan la Laguna	12	San Juan la Laguna	9	Septiembre	2023-09-18T00:00:00	2024-11-08T12:00:00	8	Radiación solar	920
78169	7	Sololá	717	San Juan la Laguna	12	San Juan la Laguna	9	Septiembre	2023-09-18T00:00:00	2024-11-08T13:00:00	2	Temperatura media	23.7
78170	7	Sololá	717	San Juan la Laguna	12	San Juan la Laguna	9	Septiembre	2023-09-18T00:00:00	2024-11-08T13:00:00	4	Temperatura máxima	25.6
78171	7	Sololá	717	San Juan la Laguna	12	San Juan la Laguna	9	Septiembre	2023-09-18T00:00:00	2024-11-08T13:00:00	3	Temperatura mínima	23.5
78172	7	Sololá	717	San Juan la Laguna	12	San Juan la Laguna	9	Septiembre	2023-09-18T00:00:00	2024-11-08T13:00:00	5	Humedad	67
78173	7	Sololá	717	San Juan la Laguna	12	San Juan la Laguna	9	Septiembre	2023-09-18T00:00:00	2024-11-08T13:00:00	6	Velocidad del viento	1.6
78174	7	Sololá	717	San Juan la Laguna	12	San Juan la Laguna	9	Septiembre	2023-09-18T00:00:00	2024-11-08T13:00:00	7	Dirección del viento	1.61
78175	7	Sololá	717	San Juan la Laguna	12	San Juan la Laguna	9	Septiembre	2023-09-18T00:00:00	2024-11-08T13:00:00	1	Precipitación	0
78176	7	Sololá	717	San Juan la Laguna	12	San Juan la Laguna	9	Septiembre	2023-09-18T00:00:00	2024-11-08T13:00:00	8	Radiación solar	495
78177	7	Sololá	717	San Juan la Laguna	12	San Juan la Laguna	9	Septiembre	2023-09-18T00:00:00	2024-11-08T14:00:00	2	Temperatura media	22.8
78178	7	Sololá	717	San Juan la Laguna	12	San Juan la Laguna	9	Septiembre	2023-09-18T00:00:00	2024-11-08T14:00:00	4	Temperatura máxima	24.7
78179	7	Sololá	717	San Juan la Laguna	12	San Juan la Laguna	9	Septiembre	2023-09-18T00:00:00	2024-11-08T14:00:00	3	Temperatura mínima	22.8
78180	7	Sololá	717	San Juan la Laguna	12	San Juan la Laguna	9	Septiembre	2023-09-18T00:00:00	2024-11-08T14:00:00	5	Humedad	74
78181	7	Sololá	717	San Juan la Laguna	12	San Juan la Laguna	9	Septiembre	2023-09-18T00:00:00	2024-11-08T14:00:00	6	Velocidad del viento	4.8
78182	7	Sololá	717	San Juan la Laguna	12	San Juan la Laguna	9	Septiembre	2023-09-18T00:00:00	2024-11-08T14:00:00	7	Dirección del viento	4.83
78183	7	Sololá	717	San Juan la Laguna	12	San Juan la Laguna	9	Septiembre	2023-09-18T00:00:00	2024-11-08T14:00:00	1	Precipitación	0
78184	7	Sololá	717	San Juan la Laguna	12	San Juan la Laguna	9	Septiembre	2023-09-18T00:00:00	2024-11-08T14:00:00	8	Radiación solar	564
78185	7	Sololá	717	San Juan la Laguna	12	San Juan la Laguna	9	Septiembre	2023-09-18T00:00:00	2024-11-08T15:00:00	2	Temperatura media	22.3
78186	7	Sololá	717	San Juan la Laguna	12	San Juan la Laguna	9	Septiembre	2023-09-18T00:00:00	2024-11-08T15:00:00	4	Temperatura máxima	22.8
78187	7	Sololá	717	San Juan la Laguna	12	San Juan la Laguna	9	Septiembre	2023-09-18T00:00:00	2024-11-08T15:00:00	3	Temperatura mínima	22.2
78188	7	Sololá	717	San Juan la Laguna	12	San Juan la Laguna	9	Septiembre	2023-09-18T00:00:00	2024-11-08T15:00:00	5	Humedad	77
78189	7	Sololá	717	San Juan la Laguna	12	San Juan la Laguna	9	Septiembre	2023-09-18T00:00:00	2024-11-08T15:00:00	6	Velocidad del viento	0
78190	7	Sololá	717	San Juan la Laguna	12	San Juan la Laguna	9	Septiembre	2023-09-18T00:00:00	2024-11-08T15:00:00	7	Dirección del viento	0
78191	7	Sololá	717	San Juan la Laguna	12	San Juan la Laguna	9	Septiembre	2023-09-18T00:00:00	2024-11-08T15:00:00	1	Precipitación	0
78192	7	Sololá	717	San Juan la Laguna	12	San Juan la Laguna	9	Septiembre	2023-09-18T00:00:00	2024-11-08T15:00:00	8	Radiación solar	278
78193	7	Sololá	717	San Juan la Laguna	12	San Juan la Laguna	9	Septiembre	2023-09-18T00:00:00	2024-11-08T16:00:00	2	Temperatura media	21.3
78194	7	Sololá	717	San Juan la Laguna	12	San Juan la Laguna	9	Septiembre	2023-09-18T00:00:00	2024-11-08T16:00:00	4	Temperatura máxima	22.4
78195	7	Sololá	717	San Juan la Laguna	12	San Juan la Laguna	9	Septiembre	2023-09-18T00:00:00	2024-11-08T16:00:00	3	Temperatura mínima	21.3
78196	7	Sololá	717	San Juan la Laguna	12	San Juan la Laguna	9	Septiembre	2023-09-18T00:00:00	2024-11-08T16:00:00	5	Humedad	80
78197	7	Sololá	717	San Juan la Laguna	12	San Juan la Laguna	9	Septiembre	2023-09-18T00:00:00	2024-11-08T16:00:00	6	Velocidad del viento	0
78198	7	Sololá	717	San Juan la Laguna	12	San Juan la Laguna	9	Septiembre	2023-09-18T00:00:00	2024-11-08T16:00:00	7	Dirección del viento	0
78199	7	Sololá	717	San Juan la Laguna	12	San Juan la Laguna	9	Septiembre	2023-09-18T00:00:00	2024-11-08T16:00:00	1	Precipitación	0
78200	7	Sololá	717	San Juan la Laguna	12	San Juan la Laguna	9	Septiembre	2023-09-18T00:00:00	2024-11-08T16:00:00	8	Radiación solar	125
78201	7	Sololá	717	San Juan la Laguna	12	San Juan la Laguna	9	Septiembre	2023-09-18T00:00:00	2024-11-08T17:00:00	2	Temperatura media	21.1
78202	7	Sololá	717	San Juan la Laguna	12	San Juan la Laguna	9	Septiembre	2023-09-18T00:00:00	2024-11-08T17:00:00	4	Temperatura máxima	21.3
78203	7	Sololá	717	San Juan la Laguna	12	San Juan la Laguna	9	Septiembre	2023-09-18T00:00:00	2024-11-08T17:00:00	3	Temperatura mínima	21.1
78204	7	Sololá	717	San Juan la Laguna	12	San Juan la Laguna	9	Septiembre	2023-09-18T00:00:00	2024-11-08T17:00:00	5	Humedad	81
78205	7	Sololá	717	San Juan la Laguna	12	San Juan la Laguna	9	Septiembre	2023-09-18T00:00:00	2024-11-08T17:00:00	6	Velocidad del viento	0
78206	7	Sololá	717	San Juan la Laguna	12	San Juan la Laguna	9	Septiembre	2023-09-18T00:00:00	2024-11-08T17:00:00	7	Dirección del viento	0
78207	7	Sololá	717	San Juan la Laguna	12	San Juan la Laguna	9	Septiembre	2023-09-18T00:00:00	2024-11-08T17:00:00	1	Precipitación	0
78208	7	Sololá	717	San Juan la Laguna	12	San Juan la Laguna	9	Septiembre	2023-09-18T00:00:00	2024-11-08T17:00:00	8	Radiación solar	83
78209	7	Sololá	717	San Juan la Laguna	12	San Juan la Laguna	9	Septiembre	2023-09-18T00:00:00	2024-11-08T18:00:00	2	Temperatura media	18.7
78210	7	Sololá	717	San Juan la Laguna	12	San Juan la Laguna	9	Septiembre	2023-09-18T00:00:00	2024-11-08T18:00:00	4	Temperatura máxima	21.1
78211	7	Sololá	717	San Juan la Laguna	12	San Juan la Laguna	9	Septiembre	2023-09-18T00:00:00	2024-11-08T18:00:00	3	Temperatura mínima	18.7
78212	7	Sololá	717	San Juan la Laguna	12	San Juan la Laguna	9	Septiembre	2023-09-18T00:00:00	2024-11-08T18:00:00	5	Humedad	87
78213	7	Sololá	717	San Juan la Laguna	12	San Juan la Laguna	9	Septiembre	2023-09-18T00:00:00	2024-11-08T18:00:00	6	Velocidad del viento	6.4
78214	7	Sololá	717	San Juan la Laguna	12	San Juan la Laguna	9	Septiembre	2023-09-18T00:00:00	2024-11-08T18:00:00	7	Dirección del viento	6.44
78215	7	Sololá	717	San Juan la Laguna	12	San Juan la Laguna	9	Septiembre	2023-09-18T00:00:00	2024-11-08T18:00:00	1	Precipitación	0.6
78216	7	Sololá	717	San Juan la Laguna	12	San Juan la Laguna	9	Septiembre	2023-09-18T00:00:00	2024-11-08T18:00:00	8	Radiación solar	8
78217	7	Sololá	717	San Juan la Laguna	12	San Juan la Laguna	9	Septiembre	2023-09-18T00:00:00	2024-11-08T19:00:00	2	Temperatura media	18.4
78218	7	Sololá	717	San Juan la Laguna	12	San Juan la Laguna	9	Septiembre	2023-09-18T00:00:00	2024-11-08T19:00:00	4	Temperatura máxima	18.7
78219	7	Sololá	717	San Juan la Laguna	12	San Juan la Laguna	9	Septiembre	2023-09-18T00:00:00	2024-11-08T19:00:00	3	Temperatura mínima	18.2
78220	7	Sololá	717	San Juan la Laguna	12	San Juan la Laguna	9	Septiembre	2023-09-18T00:00:00	2024-11-08T19:00:00	5	Humedad	89
78221	7	Sololá	717	San Juan la Laguna	12	San Juan la Laguna	9	Septiembre	2023-09-18T00:00:00	2024-11-08T19:00:00	6	Velocidad del viento	4.8
78222	7	Sololá	717	San Juan la Laguna	12	San Juan la Laguna	9	Septiembre	2023-09-18T00:00:00	2024-11-08T19:00:00	7	Dirección del viento	4.83
78223	7	Sololá	717	San Juan la Laguna	12	San Juan la Laguna	9	Septiembre	2023-09-18T00:00:00	2024-11-08T19:00:00	1	Precipitación	0
78224	7	Sololá	717	San Juan la Laguna	12	San Juan la Laguna	9	Septiembre	2023-09-18T00:00:00	2024-11-08T19:00:00	8	Radiación solar	0
78225	7	Sololá	717	San Juan la Laguna	12	San Juan la Laguna	9	Septiembre	2023-09-18T00:00:00	2024-11-08T20:00:00	2	Temperatura media	18.2
78226	7	Sololá	717	San Juan la Laguna	12	San Juan la Laguna	9	Septiembre	2023-09-18T00:00:00	2024-11-08T20:00:00	4	Temperatura máxima	18.5
78227	7	Sololá	717	San Juan la Laguna	12	San Juan la Laguna	9	Septiembre	2023-09-18T00:00:00	2024-11-08T20:00:00	3	Temperatura mínima	18.2
78228	7	Sololá	717	San Juan la Laguna	12	San Juan la Laguna	9	Septiembre	2023-09-18T00:00:00	2024-11-08T20:00:00	5	Humedad	89
78229	7	Sololá	717	San Juan la Laguna	12	San Juan la Laguna	9	Septiembre	2023-09-18T00:00:00	2024-11-08T20:00:00	6	Velocidad del viento	3.2
78230	7	Sololá	717	San Juan la Laguna	12	San Juan la Laguna	9	Septiembre	2023-09-18T00:00:00	2024-11-08T20:00:00	7	Dirección del viento	3.22
78231	7	Sololá	717	San Juan la Laguna	12	San Juan la Laguna	9	Septiembre	2023-09-18T00:00:00	2024-11-08T20:00:00	1	Precipitación	0
78232	7	Sololá	717	San Juan la Laguna	12	San Juan la Laguna	9	Septiembre	2023-09-18T00:00:00	2024-11-08T20:00:00	8	Radiación solar	0
78233	7	Sololá	717	San Juan la Laguna	12	San Juan la Laguna	9	Septiembre	2023-09-18T00:00:00	2024-11-08T21:00:00	2	Temperatura media	18.2
78234	7	Sololá	717	San Juan la Laguna	12	San Juan la Laguna	9	Septiembre	2023-09-18T00:00:00	2024-11-08T21:00:00	4	Temperatura máxima	18.4
78235	7	Sololá	717	San Juan la Laguna	12	San Juan la Laguna	9	Septiembre	2023-09-18T00:00:00	2024-11-08T21:00:00	3	Temperatura mínima	18.1
78236	7	Sololá	717	San Juan la Laguna	12	San Juan la Laguna	9	Septiembre	2023-09-18T00:00:00	2024-11-08T21:00:00	5	Humedad	90
78237	7	Sololá	717	San Juan la Laguna	12	San Juan la Laguna	9	Septiembre	2023-09-18T00:00:00	2024-11-08T21:00:00	6	Velocidad del viento	1.6
78238	7	Sololá	717	San Juan la Laguna	12	San Juan la Laguna	9	Septiembre	2023-09-18T00:00:00	2024-11-08T21:00:00	7	Dirección del viento	1.61
78239	7	Sololá	717	San Juan la Laguna	12	San Juan la Laguna	9	Septiembre	2023-09-18T00:00:00	2024-11-08T21:00:00	1	Precipitación	0
78240	7	Sololá	717	San Juan la Laguna	12	San Juan la Laguna	9	Septiembre	2023-09-18T00:00:00	2024-11-08T21:00:00	8	Radiación solar	0
78241	7	Sololá	717	San Juan la Laguna	12	San Juan la Laguna	9	Septiembre	2023-09-18T00:00:00	2024-11-08T22:00:00	2	Temperatura media	17.3
78242	7	Sololá	717	San Juan la Laguna	12	San Juan la Laguna	9	Septiembre	2023-09-18T00:00:00	2024-11-08T22:00:00	4	Temperatura máxima	18.2
78243	7	Sololá	717	San Juan la Laguna	12	San Juan la Laguna	9	Septiembre	2023-09-18T00:00:00	2024-11-08T22:00:00	3	Temperatura mínima	17.3
78244	7	Sololá	717	San Juan la Laguna	12	San Juan la Laguna	9	Septiembre	2023-09-18T00:00:00	2024-11-08T22:00:00	5	Humedad	90
78245	7	Sololá	717	San Juan la Laguna	12	San Juan la Laguna	9	Septiembre	2023-09-18T00:00:00	2024-11-08T22:00:00	6	Velocidad del viento	3.2
78246	7	Sololá	717	San Juan la Laguna	12	San Juan la Laguna	9	Septiembre	2023-09-18T00:00:00	2024-11-08T22:00:00	7	Dirección del viento	3.22
78247	7	Sololá	717	San Juan la Laguna	12	San Juan la Laguna	9	Septiembre	2023-09-18T00:00:00	2024-11-08T22:00:00	1	Precipitación	0
78248	7	Sololá	717	San Juan la Laguna	12	San Juan la Laguna	9	Septiembre	2023-09-18T00:00:00	2024-11-08T22:00:00	8	Radiación solar	0
78249	7	Sololá	717	San Juan la Laguna	12	San Juan la Laguna	9	Septiembre	2023-09-18T00:00:00	2024-11-08T23:00:00	2	Temperatura media	16.7
78250	7	Sololá	717	San Juan la Laguna	12	San Juan la Laguna	9	Septiembre	2023-09-18T00:00:00	2024-11-08T23:00:00	4	Temperatura máxima	17.4
78251	7	Sololá	717	San Juan la Laguna	12	San Juan la Laguna	9	Septiembre	2023-09-18T00:00:00	2024-11-08T23:00:00	3	Temperatura mínima	16.7
78252	7	Sololá	717	San Juan la Laguna	12	San Juan la Laguna	9	Septiembre	2023-09-18T00:00:00	2024-11-08T23:00:00	5	Humedad	89
78253	7	Sololá	717	San Juan la Laguna	12	San Juan la Laguna	9	Septiembre	2023-09-18T00:00:00	2024-11-08T23:00:00	6	Velocidad del viento	4.8
78254	7	Sololá	717	San Juan la Laguna	12	San Juan la Laguna	9	Septiembre	2023-09-18T00:00:00	2024-11-08T23:00:00	7	Dirección del viento	4.83
78255	7	Sololá	717	San Juan la Laguna	12	San Juan la Laguna	9	Septiembre	2023-09-18T00:00:00	2024-11-08T23:00:00	1	Precipitación	0
78256	7	Sololá	717	San Juan la Laguna	12	San Juan la Laguna	9	Septiembre	2023-09-18T00:00:00	2024-11-08T23:00:00	8	Radiación solar	0
78257	7	Sololá	717	San Juan la Laguna	12	San Juan la Laguna	9	Septiembre	2023-09-19T00:00:00	2024-11-08T00:00:00	2	Temperatura media	16.6
78258	7	Sololá	717	San Juan la Laguna	12	San Juan la Laguna	9	Septiembre	2023-09-19T00:00:00	2024-11-08T00:00:00	4	Temperatura máxima	16.7
78259	7	Sololá	717	San Juan la Laguna	12	San Juan la Laguna	9	Septiembre	2023-09-19T00:00:00	2024-11-08T00:00:00	3	Temperatura mínima	16.4
78260	7	Sololá	717	San Juan la Laguna	12	San Juan la Laguna	9	Septiembre	2023-09-19T00:00:00	2024-11-08T00:00:00	5	Humedad	88
78261	7	Sololá	717	San Juan la Laguna	12	San Juan la Laguna	9	Septiembre	2023-09-19T00:00:00	2024-11-08T00:00:00	6	Velocidad del viento	3.2
78262	7	Sololá	717	San Juan la Laguna	12	San Juan la Laguna	9	Septiembre	2023-09-19T00:00:00	2024-11-08T00:00:00	7	Dirección del viento	3.22
78263	7	Sololá	717	San Juan la Laguna	12	San Juan la Laguna	9	Septiembre	2023-09-19T00:00:00	2024-11-08T00:00:00	1	Precipitación	0
78264	7	Sololá	717	San Juan la Laguna	12	San Juan la Laguna	9	Septiembre	2023-09-19T00:00:00	2024-11-08T00:00:00	8	Radiación solar	0
78265	7	Sololá	717	San Juan la Laguna	12	San Juan la Laguna	9	Septiembre	2023-09-19T00:00:00	2024-11-08T01:00:00	2	Temperatura media	16.2
78266	7	Sololá	717	San Juan la Laguna	12	San Juan la Laguna	9	Septiembre	2023-09-19T00:00:00	2024-11-08T01:00:00	4	Temperatura máxima	16.6
78267	7	Sololá	717	San Juan la Laguna	12	San Juan la Laguna	9	Septiembre	2023-09-19T00:00:00	2024-11-08T01:00:00	3	Temperatura mínima	15.9
78268	7	Sololá	717	San Juan la Laguna	12	San Juan la Laguna	9	Septiembre	2023-09-19T00:00:00	2024-11-08T01:00:00	5	Humedad	89
78269	7	Sololá	717	San Juan la Laguna	12	San Juan la Laguna	9	Septiembre	2023-09-19T00:00:00	2024-11-08T01:00:00	6	Velocidad del viento	3.2
78270	7	Sololá	717	San Juan la Laguna	12	San Juan la Laguna	9	Septiembre	2023-09-19T00:00:00	2024-11-08T01:00:00	7	Dirección del viento	3.22
78271	7	Sololá	717	San Juan la Laguna	12	San Juan la Laguna	9	Septiembre	2023-09-19T00:00:00	2024-11-08T01:00:00	1	Precipitación	0
78272	7	Sololá	717	San Juan la Laguna	12	San Juan la Laguna	9	Septiembre	2023-09-19T00:00:00	2024-11-08T01:00:00	8	Radiación solar	0
78273	7	Sololá	717	San Juan la Laguna	12	San Juan la Laguna	9	Septiembre	2023-09-19T00:00:00	2024-11-08T02:00:00	2	Temperatura media	16.3
78274	7	Sololá	717	San Juan la Laguna	12	San Juan la Laguna	9	Septiembre	2023-09-19T00:00:00	2024-11-08T02:00:00	4	Temperatura máxima	16.6
78275	7	Sololá	717	San Juan la Laguna	12	San Juan la Laguna	9	Septiembre	2023-09-19T00:00:00	2024-11-08T02:00:00	3	Temperatura mínima	16
78276	7	Sololá	717	San Juan la Laguna	12	San Juan la Laguna	9	Septiembre	2023-09-19T00:00:00	2024-11-08T02:00:00	5	Humedad	89
78277	7	Sololá	717	San Juan la Laguna	12	San Juan la Laguna	9	Septiembre	2023-09-19T00:00:00	2024-11-08T02:00:00	6	Velocidad del viento	3.2
78278	7	Sololá	717	San Juan la Laguna	12	San Juan la Laguna	9	Septiembre	2023-09-19T00:00:00	2024-11-08T02:00:00	7	Dirección del viento	3.22
78279	7	Sololá	717	San Juan la Laguna	12	San Juan la Laguna	9	Septiembre	2023-09-19T00:00:00	2024-11-08T02:00:00	1	Precipitación	0
78280	7	Sololá	717	San Juan la Laguna	12	San Juan la Laguna	9	Septiembre	2023-09-19T00:00:00	2024-11-08T02:00:00	8	Radiación solar	0
78281	7	Sololá	717	San Juan la Laguna	12	San Juan la Laguna	9	Septiembre	2023-09-19T00:00:00	2024-11-08T03:00:00	2	Temperatura media	16.7
78282	7	Sololá	717	San Juan la Laguna	12	San Juan la Laguna	9	Septiembre	2023-09-19T00:00:00	2024-11-08T03:00:00	4	Temperatura máxima	16.8
78283	7	Sololá	717	San Juan la Laguna	12	San Juan la Laguna	9	Septiembre	2023-09-19T00:00:00	2024-11-08T03:00:00	3	Temperatura mínima	16.2
78284	7	Sololá	717	San Juan la Laguna	12	San Juan la Laguna	9	Septiembre	2023-09-19T00:00:00	2024-11-08T03:00:00	5	Humedad	86
78285	7	Sololá	717	San Juan la Laguna	12	San Juan la Laguna	9	Septiembre	2023-09-19T00:00:00	2024-11-08T03:00:00	6	Velocidad del viento	3.2
78286	7	Sololá	717	San Juan la Laguna	12	San Juan la Laguna	9	Septiembre	2023-09-19T00:00:00	2024-11-08T03:00:00	7	Dirección del viento	3.22
78287	7	Sololá	717	San Juan la Laguna	12	San Juan la Laguna	9	Septiembre	2023-09-19T00:00:00	2024-11-08T03:00:00	1	Precipitación	0
78288	7	Sololá	717	San Juan la Laguna	12	San Juan la Laguna	9	Septiembre	2023-09-19T00:00:00	2024-11-08T03:00:00	8	Radiación solar	0
78289	7	Sololá	717	San Juan la Laguna	12	San Juan la Laguna	9	Septiembre	2023-09-19T00:00:00	2024-11-08T04:00:00	2	Temperatura media	16.6
78290	7	Sololá	717	San Juan la Laguna	12	San Juan la Laguna	9	Septiembre	2023-09-19T00:00:00	2024-11-08T04:00:00	4	Temperatura máxima	16.8
78291	7	Sololá	717	San Juan la Laguna	12	San Juan la Laguna	9	Septiembre	2023-09-19T00:00:00	2024-11-08T04:00:00	3	Temperatura mínima	16
78292	7	Sololá	717	San Juan la Laguna	12	San Juan la Laguna	9	Septiembre	2023-09-19T00:00:00	2024-11-08T04:00:00	5	Humedad	82
78293	7	Sololá	717	San Juan la Laguna	12	San Juan la Laguna	9	Septiembre	2023-09-19T00:00:00	2024-11-08T04:00:00	6	Velocidad del viento	1.6
78294	7	Sololá	717	San Juan la Laguna	12	San Juan la Laguna	9	Septiembre	2023-09-19T00:00:00	2024-11-08T04:00:00	7	Dirección del viento	1.61
78295	7	Sololá	717	San Juan la Laguna	12	San Juan la Laguna	9	Septiembre	2023-09-19T00:00:00	2024-11-08T04:00:00	1	Precipitación	0
78296	7	Sololá	717	San Juan la Laguna	12	San Juan la Laguna	9	Septiembre	2023-09-19T00:00:00	2024-11-08T04:00:00	8	Radiación solar	0
78297	7	Sololá	717	San Juan la Laguna	12	San Juan la Laguna	9	Septiembre	2023-09-19T00:00:00	2024-11-08T05:00:00	2	Temperatura media	15.9
78298	7	Sololá	717	San Juan la Laguna	12	San Juan la Laguna	9	Septiembre	2023-09-19T00:00:00	2024-11-08T05:00:00	4	Temperatura máxima	17.4
78299	7	Sololá	717	San Juan la Laguna	12	San Juan la Laguna	9	Septiembre	2023-09-19T00:00:00	2024-11-08T05:00:00	3	Temperatura mínima	15.8
78300	7	Sololá	717	San Juan la Laguna	12	San Juan la Laguna	9	Septiembre	2023-09-19T00:00:00	2024-11-08T05:00:00	5	Humedad	81
78301	7	Sololá	717	San Juan la Laguna	12	San Juan la Laguna	9	Septiembre	2023-09-19T00:00:00	2024-11-08T05:00:00	6	Velocidad del viento	3.2
78302	7	Sololá	717	San Juan la Laguna	12	San Juan la Laguna	9	Septiembre	2023-09-19T00:00:00	2024-11-08T05:00:00	7	Dirección del viento	3.22
78303	7	Sololá	717	San Juan la Laguna	12	San Juan la Laguna	9	Septiembre	2023-09-19T00:00:00	2024-11-08T05:00:00	1	Precipitación	0
78304	7	Sololá	717	San Juan la Laguna	12	San Juan la Laguna	9	Septiembre	2023-09-19T00:00:00	2024-11-08T05:00:00	8	Radiación solar	0
78305	7	Sololá	717	San Juan la Laguna	12	San Juan la Laguna	9	Septiembre	2023-09-19T00:00:00	2024-11-08T06:00:00	2	Temperatura media	15
78306	7	Sololá	717	San Juan la Laguna	12	San Juan la Laguna	9	Septiembre	2023-09-19T00:00:00	2024-11-08T06:00:00	4	Temperatura máxima	16.4
78307	7	Sololá	717	San Juan la Laguna	12	San Juan la Laguna	9	Septiembre	2023-09-19T00:00:00	2024-11-08T06:00:00	3	Temperatura mínima	15
78308	7	Sololá	717	San Juan la Laguna	12	San Juan la Laguna	9	Septiembre	2023-09-19T00:00:00	2024-11-08T06:00:00	5	Humedad	83
78309	7	Sololá	717	San Juan la Laguna	12	San Juan la Laguna	9	Septiembre	2023-09-19T00:00:00	2024-11-08T06:00:00	6	Velocidad del viento	4.8
78310	7	Sololá	717	San Juan la Laguna	12	San Juan la Laguna	9	Septiembre	2023-09-19T00:00:00	2024-11-08T06:00:00	7	Dirección del viento	4.83
78311	7	Sololá	717	San Juan la Laguna	12	San Juan la Laguna	9	Septiembre	2023-09-19T00:00:00	2024-11-08T06:00:00	1	Precipitación	0
78312	7	Sololá	717	San Juan la Laguna	12	San Juan la Laguna	9	Septiembre	2023-09-19T00:00:00	2024-11-08T06:00:00	8	Radiación solar	0
78313	7	Sololá	717	San Juan la Laguna	12	San Juan la Laguna	9	Septiembre	2023-09-19T00:00:00	2024-11-08T07:00:00	2	Temperatura media	16.1
78314	7	Sololá	717	San Juan la Laguna	12	San Juan la Laguna	9	Septiembre	2023-09-19T00:00:00	2024-11-08T07:00:00	4	Temperatura máxima	16.1
78315	7	Sololá	717	San Juan la Laguna	12	San Juan la Laguna	9	Septiembre	2023-09-19T00:00:00	2024-11-08T07:00:00	3	Temperatura mínima	14.6
78316	7	Sololá	717	San Juan la Laguna	12	San Juan la Laguna	9	Septiembre	2023-09-19T00:00:00	2024-11-08T07:00:00	5	Humedad	80
78317	7	Sololá	717	San Juan la Laguna	12	San Juan la Laguna	9	Septiembre	2023-09-19T00:00:00	2024-11-08T07:00:00	6	Velocidad del viento	3.2
78318	7	Sololá	717	San Juan la Laguna	12	San Juan la Laguna	9	Septiembre	2023-09-19T00:00:00	2024-11-08T07:00:00	7	Dirección del viento	3.22
78319	7	Sololá	717	San Juan la Laguna	12	San Juan la Laguna	9	Septiembre	2023-09-19T00:00:00	2024-11-08T07:00:00	1	Precipitación	0
78320	7	Sololá	717	San Juan la Laguna	12	San Juan la Laguna	9	Septiembre	2023-09-19T00:00:00	2024-11-08T07:00:00	8	Radiación solar	53
78321	7	Sololá	717	San Juan la Laguna	12	San Juan la Laguna	9	Septiembre	2023-09-19T00:00:00	2024-11-08T08:00:00	2	Temperatura media	21.2
78322	7	Sololá	717	San Juan la Laguna	12	San Juan la Laguna	9	Septiembre	2023-09-19T00:00:00	2024-11-08T08:00:00	4	Temperatura máxima	21.2
78323	7	Sololá	717	San Juan la Laguna	12	San Juan la Laguna	9	Septiembre	2023-09-19T00:00:00	2024-11-08T08:00:00	3	Temperatura mínima	16.1
78324	7	Sololá	717	San Juan la Laguna	12	San Juan la Laguna	9	Septiembre	2023-09-19T00:00:00	2024-11-08T08:00:00	5	Humedad	64
78325	7	Sololá	717	San Juan la Laguna	12	San Juan la Laguna	9	Septiembre	2023-09-19T00:00:00	2024-11-08T08:00:00	6	Velocidad del viento	1.6
78326	7	Sololá	717	San Juan la Laguna	12	San Juan la Laguna	9	Septiembre	2023-09-19T00:00:00	2024-11-08T08:00:00	7	Dirección del viento	1.61
78327	7	Sololá	717	San Juan la Laguna	12	San Juan la Laguna	9	Septiembre	2023-09-19T00:00:00	2024-11-08T08:00:00	1	Precipitación	0
78328	7	Sololá	717	San Juan la Laguna	12	San Juan la Laguna	9	Septiembre	2023-09-19T00:00:00	2024-11-08T08:00:00	8	Radiación solar	266
78329	7	Sololá	717	San Juan la Laguna	12	San Juan la Laguna	9	Septiembre	2023-09-19T00:00:00	2024-11-08T09:00:00	2	Temperatura media	22.4
78330	7	Sololá	717	San Juan la Laguna	12	San Juan la Laguna	9	Septiembre	2023-09-19T00:00:00	2024-11-08T09:00:00	4	Temperatura máxima	22.4
78331	7	Sololá	717	San Juan la Laguna	12	San Juan la Laguna	9	Septiembre	2023-09-19T00:00:00	2024-11-08T09:00:00	3	Temperatura mínima	21.2
78332	7	Sololá	717	San Juan la Laguna	12	San Juan la Laguna	9	Septiembre	2023-09-19T00:00:00	2024-11-08T09:00:00	5	Humedad	57
78333	7	Sololá	717	San Juan la Laguna	12	San Juan la Laguna	9	Septiembre	2023-09-19T00:00:00	2024-11-08T09:00:00	6	Velocidad del viento	0
78334	7	Sololá	717	San Juan la Laguna	12	San Juan la Laguna	9	Septiembre	2023-09-19T00:00:00	2024-11-08T09:00:00	7	Dirección del viento	0
78335	7	Sololá	717	San Juan la Laguna	12	San Juan la Laguna	9	Septiembre	2023-09-19T00:00:00	2024-11-08T09:00:00	1	Precipitación	0
78336	7	Sololá	717	San Juan la Laguna	12	San Juan la Laguna	9	Septiembre	2023-09-19T00:00:00	2024-11-08T09:00:00	8	Radiación solar	520
78337	7	Sololá	717	San Juan la Laguna	12	San Juan la Laguna	9	Septiembre	2023-09-19T00:00:00	2024-11-08T10:00:00	2	Temperatura media	23.2
78338	7	Sololá	717	San Juan la Laguna	12	San Juan la Laguna	9	Septiembre	2023-09-19T00:00:00	2024-11-08T10:00:00	4	Temperatura máxima	23.4
78339	7	Sololá	717	San Juan la Laguna	12	San Juan la Laguna	9	Septiembre	2023-09-19T00:00:00	2024-11-08T10:00:00	3	Temperatura mínima	22.4
78340	7	Sololá	717	San Juan la Laguna	12	San Juan la Laguna	9	Septiembre	2023-09-19T00:00:00	2024-11-08T10:00:00	5	Humedad	53
78341	7	Sololá	717	San Juan la Laguna	12	San Juan la Laguna	9	Septiembre	2023-09-19T00:00:00	2024-11-08T10:00:00	6	Velocidad del viento	0
78342	7	Sololá	717	San Juan la Laguna	12	San Juan la Laguna	9	Septiembre	2023-09-19T00:00:00	2024-11-08T10:00:00	7	Dirección del viento	0
78343	7	Sololá	717	San Juan la Laguna	12	San Juan la Laguna	9	Septiembre	2023-09-19T00:00:00	2024-11-08T10:00:00	1	Precipitación	0
78344	7	Sololá	717	San Juan la Laguna	12	San Juan la Laguna	9	Septiembre	2023-09-19T00:00:00	2024-11-08T10:00:00	8	Radiación solar	689
78345	7	Sololá	717	San Juan la Laguna	12	San Juan la Laguna	9	Septiembre	2023-09-19T00:00:00	2024-11-08T11:00:00	2	Temperatura media	24.7
78346	7	Sololá	717	San Juan la Laguna	12	San Juan la Laguna	9	Septiembre	2023-09-19T00:00:00	2024-11-08T11:00:00	4	Temperatura máxima	25.1
78347	7	Sololá	717	San Juan la Laguna	12	San Juan la Laguna	9	Septiembre	2023-09-19T00:00:00	2024-11-08T11:00:00	3	Temperatura mínima	23.1
78348	7	Sololá	717	San Juan la Laguna	12	San Juan la Laguna	9	Septiembre	2023-09-19T00:00:00	2024-11-08T11:00:00	5	Humedad	47
78349	7	Sololá	717	San Juan la Laguna	12	San Juan la Laguna	9	Septiembre	2023-09-19T00:00:00	2024-11-08T11:00:00	6	Velocidad del viento	0
78350	7	Sololá	717	San Juan la Laguna	12	San Juan la Laguna	9	Septiembre	2023-09-19T00:00:00	2024-11-08T11:00:00	7	Dirección del viento	0
78351	7	Sololá	717	San Juan la Laguna	12	San Juan la Laguna	9	Septiembre	2023-09-19T00:00:00	2024-11-08T11:00:00	1	Precipitación	0
78352	7	Sololá	717	San Juan la Laguna	12	San Juan la Laguna	9	Septiembre	2023-09-19T00:00:00	2024-11-08T11:00:00	8	Radiación solar	801
78353	7	Sololá	717	San Juan la Laguna	12	San Juan la Laguna	9	Septiembre	2023-09-19T00:00:00	2024-11-08T12:00:00	2	Temperatura media	25.3
78354	7	Sololá	717	San Juan la Laguna	12	San Juan la Laguna	9	Septiembre	2023-09-19T00:00:00	2024-11-08T12:00:00	4	Temperatura máxima	25.6
78355	7	Sololá	717	San Juan la Laguna	12	San Juan la Laguna	9	Septiembre	2023-09-19T00:00:00	2024-11-08T12:00:00	3	Temperatura mínima	24.4
78356	7	Sololá	717	San Juan la Laguna	12	San Juan la Laguna	9	Septiembre	2023-09-19T00:00:00	2024-11-08T12:00:00	5	Humedad	47
78357	7	Sololá	717	San Juan la Laguna	12	San Juan la Laguna	9	Septiembre	2023-09-19T00:00:00	2024-11-08T12:00:00	6	Velocidad del viento	1.6
78358	7	Sololá	717	San Juan la Laguna	12	San Juan la Laguna	9	Septiembre	2023-09-19T00:00:00	2024-11-08T12:00:00	7	Dirección del viento	1.61
78359	7	Sololá	717	San Juan la Laguna	12	San Juan la Laguna	9	Septiembre	2023-09-19T00:00:00	2024-11-08T12:00:00	1	Precipitación	0
78360	7	Sololá	717	San Juan la Laguna	12	San Juan la Laguna	9	Septiembre	2023-09-19T00:00:00	2024-11-08T12:00:00	8	Radiación solar	891
78361	7	Sololá	717	San Juan la Laguna	12	San Juan la Laguna	9	Septiembre	2023-09-19T00:00:00	2024-11-08T13:00:00	2	Temperatura media	25.2
78362	7	Sololá	717	San Juan la Laguna	12	San Juan la Laguna	9	Septiembre	2023-09-19T00:00:00	2024-11-08T13:00:00	4	Temperatura máxima	25.7
78363	7	Sololá	717	San Juan la Laguna	12	San Juan la Laguna	9	Septiembre	2023-09-19T00:00:00	2024-11-08T13:00:00	3	Temperatura mínima	24.7
78364	7	Sololá	717	San Juan la Laguna	12	San Juan la Laguna	9	Septiembre	2023-09-19T00:00:00	2024-11-08T13:00:00	5	Humedad	52
78365	7	Sololá	717	San Juan la Laguna	12	San Juan la Laguna	9	Septiembre	2023-09-19T00:00:00	2024-11-08T13:00:00	6	Velocidad del viento	3.2
78366	7	Sololá	717	San Juan la Laguna	12	San Juan la Laguna	9	Septiembre	2023-09-19T00:00:00	2024-11-08T13:00:00	7	Dirección del viento	3.22
78367	7	Sololá	717	San Juan la Laguna	12	San Juan la Laguna	9	Septiembre	2023-09-19T00:00:00	2024-11-08T13:00:00	1	Precipitación	0
78368	7	Sololá	717	San Juan la Laguna	12	San Juan la Laguna	9	Septiembre	2023-09-19T00:00:00	2024-11-08T13:00:00	8	Radiación solar	892
78369	7	Sololá	717	San Juan la Laguna	12	San Juan la Laguna	9	Septiembre	2023-09-19T00:00:00	2024-11-08T14:00:00	2	Temperatura media	25.3
78370	7	Sololá	717	San Juan la Laguna	12	San Juan la Laguna	9	Septiembre	2023-09-19T00:00:00	2024-11-08T14:00:00	4	Temperatura máxima	26.2
78371	7	Sololá	717	San Juan la Laguna	12	San Juan la Laguna	9	Septiembre	2023-09-19T00:00:00	2024-11-08T14:00:00	3	Temperatura mínima	25.1
78372	7	Sololá	717	San Juan la Laguna	12	San Juan la Laguna	9	Septiembre	2023-09-19T00:00:00	2024-11-08T14:00:00	5	Humedad	60
78373	7	Sololá	717	San Juan la Laguna	12	San Juan la Laguna	9	Septiembre	2023-09-19T00:00:00	2024-11-08T14:00:00	6	Velocidad del viento	1.6
78374	7	Sololá	717	San Juan la Laguna	12	San Juan la Laguna	9	Septiembre	2023-09-19T00:00:00	2024-11-08T14:00:00	7	Dirección del viento	1.61
78375	7	Sololá	717	San Juan la Laguna	12	San Juan la Laguna	9	Septiembre	2023-09-19T00:00:00	2024-11-08T14:00:00	1	Precipitación	0
78376	7	Sololá	717	San Juan la Laguna	12	San Juan la Laguna	9	Septiembre	2023-09-19T00:00:00	2024-11-08T14:00:00	8	Radiación solar	832
78377	7	Sololá	717	San Juan la Laguna	12	San Juan la Laguna	9	Septiembre	2023-09-19T00:00:00	2024-11-08T15:00:00	2	Temperatura media	23.8
78378	7	Sololá	717	San Juan la Laguna	12	San Juan la Laguna	9	Septiembre	2023-09-19T00:00:00	2024-11-08T15:00:00	4	Temperatura máxima	25.5
78379	7	Sololá	717	San Juan la Laguna	12	San Juan la Laguna	9	Septiembre	2023-09-19T00:00:00	2024-11-08T15:00:00	3	Temperatura mínima	23.8
78380	7	Sololá	717	San Juan la Laguna	12	San Juan la Laguna	9	Septiembre	2023-09-19T00:00:00	2024-11-08T15:00:00	5	Humedad	68
78381	7	Sololá	717	San Juan la Laguna	12	San Juan la Laguna	9	Septiembre	2023-09-19T00:00:00	2024-11-08T15:00:00	6	Velocidad del viento	8
78382	7	Sololá	717	San Juan la Laguna	12	San Juan la Laguna	9	Septiembre	2023-09-19T00:00:00	2024-11-08T15:00:00	7	Dirección del viento	8.05
78383	7	Sololá	717	San Juan la Laguna	12	San Juan la Laguna	9	Septiembre	2023-09-19T00:00:00	2024-11-08T15:00:00	1	Precipitación	0
78384	7	Sololá	717	San Juan la Laguna	12	San Juan la Laguna	9	Septiembre	2023-09-19T00:00:00	2024-11-08T15:00:00	8	Radiación solar	722
78385	7	Sololá	717	San Juan la Laguna	12	San Juan la Laguna	9	Septiembre	2023-09-19T00:00:00	2024-11-08T16:00:00	2	Temperatura media	23.8
78386	7	Sololá	717	San Juan la Laguna	12	San Juan la Laguna	9	Septiembre	2023-09-19T00:00:00	2024-11-08T16:00:00	4	Temperatura máxima	24
78387	7	Sololá	717	San Juan la Laguna	12	San Juan la Laguna	9	Septiembre	2023-09-19T00:00:00	2024-11-08T16:00:00	3	Temperatura mínima	23.4
78388	7	Sololá	717	San Juan la Laguna	12	San Juan la Laguna	9	Septiembre	2023-09-19T00:00:00	2024-11-08T16:00:00	5	Humedad	69
78389	7	Sololá	717	San Juan la Laguna	12	San Juan la Laguna	9	Septiembre	2023-09-19T00:00:00	2024-11-08T16:00:00	6	Velocidad del viento	8
78390	7	Sololá	717	San Juan la Laguna	12	San Juan la Laguna	9	Septiembre	2023-09-19T00:00:00	2024-11-08T16:00:00	7	Dirección del viento	8.05
78391	7	Sololá	717	San Juan la Laguna	12	San Juan la Laguna	9	Septiembre	2023-09-19T00:00:00	2024-11-08T16:00:00	1	Precipitación	0
78392	7	Sololá	717	San Juan la Laguna	12	San Juan la Laguna	9	Septiembre	2023-09-19T00:00:00	2024-11-08T16:00:00	8	Radiación solar	474
78393	7	Sololá	717	San Juan la Laguna	12	San Juan la Laguna	9	Septiembre	2023-09-19T00:00:00	2024-11-08T17:00:00	2	Temperatura media	20.8
78394	7	Sololá	717	San Juan la Laguna	12	San Juan la Laguna	9	Septiembre	2023-09-19T00:00:00	2024-11-08T17:00:00	4	Temperatura máxima	23.9
78395	7	Sololá	717	San Juan la Laguna	12	San Juan la Laguna	9	Septiembre	2023-09-19T00:00:00	2024-11-08T17:00:00	3	Temperatura mínima	20.8
78396	7	Sololá	717	San Juan la Laguna	12	San Juan la Laguna	9	Septiembre	2023-09-19T00:00:00	2024-11-08T17:00:00	5	Humedad	79
78397	7	Sololá	717	San Juan la Laguna	12	San Juan la Laguna	9	Septiembre	2023-09-19T00:00:00	2024-11-08T17:00:00	6	Velocidad del viento	6.4
78398	7	Sololá	717	San Juan la Laguna	12	San Juan la Laguna	9	Septiembre	2023-09-19T00:00:00	2024-11-08T17:00:00	7	Dirección del viento	6.44
78399	7	Sololá	717	San Juan la Laguna	12	San Juan la Laguna	9	Septiembre	2023-09-19T00:00:00	2024-11-08T17:00:00	1	Precipitación	0
78400	7	Sololá	717	San Juan la Laguna	12	San Juan la Laguna	9	Septiembre	2023-09-19T00:00:00	2024-11-08T17:00:00	8	Radiación solar	205
78401	7	Sololá	717	San Juan la Laguna	12	San Juan la Laguna	9	Septiembre	2023-09-19T00:00:00	2024-11-08T18:00:00	2	Temperatura media	20.1
78402	7	Sololá	717	San Juan la Laguna	12	San Juan la Laguna	9	Septiembre	2023-09-19T00:00:00	2024-11-08T18:00:00	4	Temperatura máxima	20.8
78403	7	Sololá	717	San Juan la Laguna	12	San Juan la Laguna	9	Septiembre	2023-09-19T00:00:00	2024-11-08T18:00:00	3	Temperatura mínima	20.1
78404	7	Sololá	717	San Juan la Laguna	12	San Juan la Laguna	9	Septiembre	2023-09-19T00:00:00	2024-11-08T18:00:00	5	Humedad	82
78405	7	Sololá	717	San Juan la Laguna	12	San Juan la Laguna	9	Septiembre	2023-09-19T00:00:00	2024-11-08T18:00:00	6	Velocidad del viento	1.6
78406	7	Sololá	717	San Juan la Laguna	12	San Juan la Laguna	9	Septiembre	2023-09-19T00:00:00	2024-11-08T18:00:00	7	Dirección del viento	1.61
78407	7	Sololá	717	San Juan la Laguna	12	San Juan la Laguna	9	Septiembre	2023-09-19T00:00:00	2024-11-08T18:00:00	1	Precipitación	0
78408	7	Sololá	717	San Juan la Laguna	12	San Juan la Laguna	9	Septiembre	2023-09-19T00:00:00	2024-11-08T18:00:00	8	Radiación solar	21
78409	7	Sololá	717	San Juan la Laguna	12	San Juan la Laguna	9	Septiembre	2023-09-19T00:00:00	2024-11-08T19:00:00	2	Temperatura media	19.8
78410	7	Sololá	717	San Juan la Laguna	12	San Juan la Laguna	9	Septiembre	2023-09-19T00:00:00	2024-11-08T19:00:00	4	Temperatura máxima	20.1
78411	7	Sololá	717	San Juan la Laguna	12	San Juan la Laguna	9	Septiembre	2023-09-19T00:00:00	2024-11-08T19:00:00	3	Temperatura mínima	19.7
78412	7	Sololá	717	San Juan la Laguna	12	San Juan la Laguna	9	Septiembre	2023-09-19T00:00:00	2024-11-08T19:00:00	5	Humedad	84
78413	7	Sololá	717	San Juan la Laguna	12	San Juan la Laguna	9	Septiembre	2023-09-19T00:00:00	2024-11-08T19:00:00	6	Velocidad del viento	0
78414	7	Sololá	717	San Juan la Laguna	12	San Juan la Laguna	9	Septiembre	2023-09-19T00:00:00	2024-11-08T19:00:00	7	Dirección del viento	0
78415	7	Sololá	717	San Juan la Laguna	12	San Juan la Laguna	9	Septiembre	2023-09-19T00:00:00	2024-11-08T19:00:00	1	Precipitación	0
78416	7	Sololá	717	San Juan la Laguna	12	San Juan la Laguna	9	Septiembre	2023-09-19T00:00:00	2024-11-08T19:00:00	8	Radiación solar	0
78417	7	Sololá	717	San Juan la Laguna	12	San Juan la Laguna	9	Septiembre	2023-09-19T00:00:00	2024-11-08T20:00:00	2	Temperatura media	19.3
78418	7	Sololá	717	San Juan la Laguna	12	San Juan la Laguna	9	Septiembre	2023-09-19T00:00:00	2024-11-08T20:00:00	4	Temperatura máxima	19.8
78419	7	Sololá	717	San Juan la Laguna	12	San Juan la Laguna	9	Septiembre	2023-09-19T00:00:00	2024-11-08T20:00:00	3	Temperatura mínima	19.3
78420	7	Sololá	717	San Juan la Laguna	12	San Juan la Laguna	9	Septiembre	2023-09-19T00:00:00	2024-11-08T20:00:00	5	Humedad	87
78421	7	Sololá	717	San Juan la Laguna	12	San Juan la Laguna	9	Septiembre	2023-09-19T00:00:00	2024-11-08T20:00:00	6	Velocidad del viento	0
78422	7	Sololá	717	San Juan la Laguna	12	San Juan la Laguna	9	Septiembre	2023-09-19T00:00:00	2024-11-08T20:00:00	7	Dirección del viento	0
78423	7	Sololá	717	San Juan la Laguna	12	San Juan la Laguna	9	Septiembre	2023-09-19T00:00:00	2024-11-08T20:00:00	1	Precipitación	0
78424	7	Sololá	717	San Juan la Laguna	12	San Juan la Laguna	9	Septiembre	2023-09-19T00:00:00	2024-11-08T20:00:00	8	Radiación solar	0
78425	7	Sololá	717	San Juan la Laguna	12	San Juan la Laguna	9	Septiembre	2023-09-19T00:00:00	2024-11-08T21:00:00	2	Temperatura media	18.5
78426	7	Sololá	717	San Juan la Laguna	12	San Juan la Laguna	9	Septiembre	2023-09-19T00:00:00	2024-11-08T21:00:00	4	Temperatura máxima	19.4
78427	7	Sololá	717	San Juan la Laguna	12	San Juan la Laguna	9	Septiembre	2023-09-19T00:00:00	2024-11-08T21:00:00	3	Temperatura mínima	18.5
78428	7	Sololá	717	San Juan la Laguna	12	San Juan la Laguna	9	Septiembre	2023-09-19T00:00:00	2024-11-08T21:00:00	5	Humedad	88
78429	7	Sololá	717	San Juan la Laguna	12	San Juan la Laguna	9	Septiembre	2023-09-19T00:00:00	2024-11-08T21:00:00	6	Velocidad del viento	0
78430	7	Sololá	717	San Juan la Laguna	12	San Juan la Laguna	9	Septiembre	2023-09-19T00:00:00	2024-11-08T21:00:00	7	Dirección del viento	0
78431	7	Sololá	717	San Juan la Laguna	12	San Juan la Laguna	9	Septiembre	2023-09-19T00:00:00	2024-11-08T21:00:00	1	Precipitación	0
78432	7	Sololá	717	San Juan la Laguna	12	San Juan la Laguna	9	Septiembre	2023-09-19T00:00:00	2024-11-08T21:00:00	8	Radiación solar	0
78433	7	Sololá	717	San Juan la Laguna	12	San Juan la Laguna	9	Septiembre	2023-09-19T00:00:00	2024-11-08T22:00:00	2	Temperatura media	17.6
78434	7	Sololá	717	San Juan la Laguna	12	San Juan la Laguna	9	Septiembre	2023-09-19T00:00:00	2024-11-08T22:00:00	4	Temperatura máxima	18.5
78435	7	Sololá	717	San Juan la Laguna	12	San Juan la Laguna	9	Septiembre	2023-09-19T00:00:00	2024-11-08T22:00:00	3	Temperatura mínima	17.6
78436	7	Sololá	717	San Juan la Laguna	12	San Juan la Laguna	9	Septiembre	2023-09-19T00:00:00	2024-11-08T22:00:00	5	Humedad	88
78437	7	Sololá	717	San Juan la Laguna	12	San Juan la Laguna	9	Septiembre	2023-09-19T00:00:00	2024-11-08T22:00:00	6	Velocidad del viento	0
78438	7	Sololá	717	San Juan la Laguna	12	San Juan la Laguna	9	Septiembre	2023-09-19T00:00:00	2024-11-08T22:00:00	7	Dirección del viento	0
78439	7	Sololá	717	San Juan la Laguna	12	San Juan la Laguna	9	Septiembre	2023-09-19T00:00:00	2024-11-08T22:00:00	1	Precipitación	0
78440	7	Sololá	717	San Juan la Laguna	12	San Juan la Laguna	9	Septiembre	2023-09-19T00:00:00	2024-11-08T22:00:00	8	Radiación solar	0
78441	7	Sololá	717	San Juan la Laguna	12	San Juan la Laguna	9	Septiembre	2023-09-19T00:00:00	2024-11-08T23:00:00	2	Temperatura media	17.3
78442	7	Sololá	717	San Juan la Laguna	12	San Juan la Laguna	9	Septiembre	2023-09-19T00:00:00	2024-11-08T23:00:00	4	Temperatura máxima	17.6
78443	7	Sololá	717	San Juan la Laguna	12	San Juan la Laguna	9	Septiembre	2023-09-19T00:00:00	2024-11-08T23:00:00	3	Temperatura mínima	17.3
78444	7	Sololá	717	San Juan la Laguna	12	San Juan la Laguna	9	Septiembre	2023-09-19T00:00:00	2024-11-08T23:00:00	5	Humedad	88
78445	7	Sololá	717	San Juan la Laguna	12	San Juan la Laguna	9	Septiembre	2023-09-19T00:00:00	2024-11-08T23:00:00	6	Velocidad del viento	0
78446	7	Sololá	717	San Juan la Laguna	12	San Juan la Laguna	9	Septiembre	2023-09-19T00:00:00	2024-11-08T23:00:00	7	Dirección del viento	0
78447	7	Sololá	717	San Juan la Laguna	12	San Juan la Laguna	9	Septiembre	2023-09-19T00:00:00	2024-11-08T23:00:00	1	Precipitación	0
78448	7	Sololá	717	San Juan la Laguna	12	San Juan la Laguna	9	Septiembre	2023-09-19T00:00:00	2024-11-08T23:00:00	8	Radiación solar	0
78449	7	Sololá	717	San Juan la Laguna	12	San Juan la Laguna	9	Septiembre	2023-09-20T00:00:00	2024-11-08T00:00:00	2	Temperatura media	16.8
78450	7	Sololá	717	San Juan la Laguna	12	San Juan la Laguna	9	Septiembre	2023-09-20T00:00:00	2024-11-08T00:00:00	4	Temperatura máxima	17.4
78451	7	Sololá	717	San Juan la Laguna	12	San Juan la Laguna	9	Septiembre	2023-09-20T00:00:00	2024-11-08T00:00:00	3	Temperatura mínima	16.8
78452	7	Sololá	717	San Juan la Laguna	12	San Juan la Laguna	9	Septiembre	2023-09-20T00:00:00	2024-11-08T00:00:00	5	Humedad	88
78453	7	Sololá	717	San Juan la Laguna	12	San Juan la Laguna	9	Septiembre	2023-09-20T00:00:00	2024-11-08T00:00:00	6	Velocidad del viento	0
78454	7	Sololá	717	San Juan la Laguna	12	San Juan la Laguna	9	Septiembre	2023-09-20T00:00:00	2024-11-08T00:00:00	7	Dirección del viento	0
78455	7	Sololá	717	San Juan la Laguna	12	San Juan la Laguna	9	Septiembre	2023-09-20T00:00:00	2024-11-08T00:00:00	1	Precipitación	0
78456	7	Sololá	717	San Juan la Laguna	12	San Juan la Laguna	9	Septiembre	2023-09-20T00:00:00	2024-11-08T00:00:00	8	Radiación solar	0
78457	7	Sololá	717	San Juan la Laguna	12	San Juan la Laguna	9	Septiembre	2023-09-20T00:00:00	2024-11-08T01:00:00	2	Temperatura media	16.4
78458	7	Sololá	717	San Juan la Laguna	12	San Juan la Laguna	9	Septiembre	2023-09-20T00:00:00	2024-11-08T01:00:00	4	Temperatura máxima	16.8
78459	7	Sololá	717	San Juan la Laguna	12	San Juan la Laguna	9	Septiembre	2023-09-20T00:00:00	2024-11-08T01:00:00	3	Temperatura mínima	16.4
78460	7	Sololá	717	San Juan la Laguna	12	San Juan la Laguna	9	Septiembre	2023-09-20T00:00:00	2024-11-08T01:00:00	5	Humedad	85
78461	7	Sololá	717	San Juan la Laguna	12	San Juan la Laguna	9	Septiembre	2023-09-20T00:00:00	2024-11-08T01:00:00	6	Velocidad del viento	0
78462	7	Sololá	717	San Juan la Laguna	12	San Juan la Laguna	9	Septiembre	2023-09-20T00:00:00	2024-11-08T01:00:00	7	Dirección del viento	0
78463	7	Sololá	717	San Juan la Laguna	12	San Juan la Laguna	9	Septiembre	2023-09-20T00:00:00	2024-11-08T01:00:00	1	Precipitación	0
78464	7	Sololá	717	San Juan la Laguna	12	San Juan la Laguna	9	Septiembre	2023-09-20T00:00:00	2024-11-08T01:00:00	8	Radiación solar	0
78465	7	Sololá	717	San Juan la Laguna	12	San Juan la Laguna	9	Septiembre	2023-09-20T00:00:00	2024-11-08T02:00:00	2	Temperatura media	15.6
78466	7	Sololá	717	San Juan la Laguna	12	San Juan la Laguna	9	Septiembre	2023-09-20T00:00:00	2024-11-08T02:00:00	4	Temperatura máxima	16.4
78467	7	Sololá	717	San Juan la Laguna	12	San Juan la Laguna	9	Septiembre	2023-09-20T00:00:00	2024-11-08T02:00:00	3	Temperatura mínima	15.6
78468	7	Sololá	717	San Juan la Laguna	12	San Juan la Laguna	9	Septiembre	2023-09-20T00:00:00	2024-11-08T02:00:00	5	Humedad	86
78469	7	Sololá	717	San Juan la Laguna	12	San Juan la Laguna	9	Septiembre	2023-09-20T00:00:00	2024-11-08T02:00:00	6	Velocidad del viento	3.2
78470	7	Sololá	717	San Juan la Laguna	12	San Juan la Laguna	9	Septiembre	2023-09-20T00:00:00	2024-11-08T02:00:00	7	Dirección del viento	3.22
78471	7	Sololá	717	San Juan la Laguna	12	San Juan la Laguna	9	Septiembre	2023-09-20T00:00:00	2024-11-08T02:00:00	1	Precipitación	0
78472	7	Sololá	717	San Juan la Laguna	12	San Juan la Laguna	9	Septiembre	2023-09-20T00:00:00	2024-11-08T02:00:00	8	Radiación solar	0
78473	7	Sololá	717	San Juan la Laguna	12	San Juan la Laguna	9	Septiembre	2023-09-20T00:00:00	2024-11-08T03:00:00	2	Temperatura media	15.6
78474	7	Sololá	717	San Juan la Laguna	12	San Juan la Laguna	9	Septiembre	2023-09-20T00:00:00	2024-11-08T03:00:00	4	Temperatura máxima	15.7
78475	7	Sololá	717	San Juan la Laguna	12	San Juan la Laguna	9	Septiembre	2023-09-20T00:00:00	2024-11-08T03:00:00	3	Temperatura mínima	15.3
78476	7	Sololá	717	San Juan la Laguna	12	San Juan la Laguna	9	Septiembre	2023-09-20T00:00:00	2024-11-08T03:00:00	5	Humedad	86
78477	7	Sololá	717	San Juan la Laguna	12	San Juan la Laguna	9	Septiembre	2023-09-20T00:00:00	2024-11-08T03:00:00	6	Velocidad del viento	3.2
78478	7	Sololá	717	San Juan la Laguna	12	San Juan la Laguna	9	Septiembre	2023-09-20T00:00:00	2024-11-08T03:00:00	7	Dirección del viento	3.22
78479	7	Sololá	717	San Juan la Laguna	12	San Juan la Laguna	9	Septiembre	2023-09-20T00:00:00	2024-11-08T03:00:00	1	Precipitación	0
78480	7	Sololá	717	San Juan la Laguna	12	San Juan la Laguna	9	Septiembre	2023-09-20T00:00:00	2024-11-08T03:00:00	8	Radiación solar	0
78481	7	Sololá	717	San Juan la Laguna	12	San Juan la Laguna	9	Septiembre	2023-09-20T00:00:00	2024-11-08T04:00:00	2	Temperatura media	15
78482	7	Sololá	717	San Juan la Laguna	12	San Juan la Laguna	9	Septiembre	2023-09-20T00:00:00	2024-11-08T04:00:00	4	Temperatura máxima	15.8
78483	7	Sololá	717	San Juan la Laguna	12	San Juan la Laguna	9	Septiembre	2023-09-20T00:00:00	2024-11-08T04:00:00	3	Temperatura mínima	14.9
78484	7	Sololá	717	San Juan la Laguna	12	San Juan la Laguna	9	Septiembre	2023-09-20T00:00:00	2024-11-08T04:00:00	5	Humedad	87
78485	7	Sololá	717	San Juan la Laguna	12	San Juan la Laguna	9	Septiembre	2023-09-20T00:00:00	2024-11-08T04:00:00	6	Velocidad del viento	3.2
78486	7	Sololá	717	San Juan la Laguna	12	San Juan la Laguna	9	Septiembre	2023-09-20T00:00:00	2024-11-08T04:00:00	7	Dirección del viento	3.22
78487	7	Sololá	717	San Juan la Laguna	12	San Juan la Laguna	9	Septiembre	2023-09-20T00:00:00	2024-11-08T04:00:00	1	Precipitación	0
78488	7	Sololá	717	San Juan la Laguna	12	San Juan la Laguna	9	Septiembre	2023-09-20T00:00:00	2024-11-08T04:00:00	8	Radiación solar	0
78489	7	Sololá	717	San Juan la Laguna	12	San Juan la Laguna	9	Septiembre	2023-09-20T00:00:00	2024-11-08T05:00:00	2	Temperatura media	15
78490	7	Sololá	717	San Juan la Laguna	12	San Juan la Laguna	9	Septiembre	2023-09-20T00:00:00	2024-11-08T05:00:00	4	Temperatura máxima	15.2
78491	7	Sololá	717	San Juan la Laguna	12	San Juan la Laguna	9	Septiembre	2023-09-20T00:00:00	2024-11-08T05:00:00	3	Temperatura mínima	15
78492	7	Sololá	717	San Juan la Laguna	12	San Juan la Laguna	9	Septiembre	2023-09-20T00:00:00	2024-11-08T05:00:00	5	Humedad	86
78493	7	Sololá	717	San Juan la Laguna	12	San Juan la Laguna	9	Septiembre	2023-09-20T00:00:00	2024-11-08T05:00:00	6	Velocidad del viento	3.2
78494	7	Sololá	717	San Juan la Laguna	12	San Juan la Laguna	9	Septiembre	2023-09-20T00:00:00	2024-11-08T05:00:00	7	Dirección del viento	3.22
78495	7	Sololá	717	San Juan la Laguna	12	San Juan la Laguna	9	Septiembre	2023-09-20T00:00:00	2024-11-08T05:00:00	1	Precipitación	0
78496	7	Sololá	717	San Juan la Laguna	12	San Juan la Laguna	9	Septiembre	2023-09-20T00:00:00	2024-11-08T05:00:00	8	Radiación solar	0
78497	7	Sololá	717	San Juan la Laguna	12	San Juan la Laguna	9	Septiembre	2023-09-20T00:00:00	2024-11-08T06:00:00	2	Temperatura media	15
78498	7	Sololá	717	San Juan la Laguna	12	San Juan la Laguna	9	Septiembre	2023-09-20T00:00:00	2024-11-08T06:00:00	4	Temperatura máxima	15.1
78499	7	Sololá	717	San Juan la Laguna	12	San Juan la Laguna	9	Septiembre	2023-09-20T00:00:00	2024-11-08T06:00:00	3	Temperatura mínima	14.8
78500	7	Sololá	717	San Juan la Laguna	12	San Juan la Laguna	9	Septiembre	2023-09-20T00:00:00	2024-11-08T06:00:00	5	Humedad	86
78501	7	Sololá	717	San Juan la Laguna	12	San Juan la Laguna	9	Septiembre	2023-09-20T00:00:00	2024-11-08T06:00:00	6	Velocidad del viento	6.4
78502	7	Sololá	717	San Juan la Laguna	12	San Juan la Laguna	9	Septiembre	2023-09-20T00:00:00	2024-11-08T06:00:00	7	Dirección del viento	6.44
78503	7	Sololá	717	San Juan la Laguna	12	San Juan la Laguna	9	Septiembre	2023-09-20T00:00:00	2024-11-08T06:00:00	1	Precipitación	0
78504	7	Sololá	717	San Juan la Laguna	12	San Juan la Laguna	9	Septiembre	2023-09-20T00:00:00	2024-11-08T06:00:00	8	Radiación solar	0
78505	7	Sololá	717	San Juan la Laguna	12	San Juan la Laguna	9	Septiembre	2023-09-20T00:00:00	2024-11-08T07:00:00	2	Temperatura media	15.9
78506	7	Sololá	717	San Juan la Laguna	12	San Juan la Laguna	9	Septiembre	2023-09-20T00:00:00	2024-11-08T07:00:00	4	Temperatura máxima	15.9
78507	7	Sololá	717	San Juan la Laguna	12	San Juan la Laguna	9	Septiembre	2023-09-20T00:00:00	2024-11-08T07:00:00	3	Temperatura mínima	14.9
78508	7	Sololá	717	San Juan la Laguna	12	San Juan la Laguna	9	Septiembre	2023-09-20T00:00:00	2024-11-08T07:00:00	5	Humedad	85
78509	7	Sololá	717	San Juan la Laguna	12	San Juan la Laguna	9	Septiembre	2023-09-20T00:00:00	2024-11-08T07:00:00	6	Velocidad del viento	1.6
78510	7	Sololá	717	San Juan la Laguna	12	San Juan la Laguna	9	Septiembre	2023-09-20T00:00:00	2024-11-08T07:00:00	7	Dirección del viento	1.61
78511	7	Sololá	717	San Juan la Laguna	12	San Juan la Laguna	9	Septiembre	2023-09-20T00:00:00	2024-11-08T07:00:00	1	Precipitación	0
78512	7	Sololá	717	San Juan la Laguna	12	San Juan la Laguna	9	Septiembre	2023-09-20T00:00:00	2024-11-08T07:00:00	8	Radiación solar	48
78513	7	Sololá	717	San Juan la Laguna	12	San Juan la Laguna	9	Septiembre	2023-09-20T00:00:00	2024-11-08T08:00:00	2	Temperatura media	20.6
78514	7	Sololá	717	San Juan la Laguna	12	San Juan la Laguna	9	Septiembre	2023-09-20T00:00:00	2024-11-08T08:00:00	4	Temperatura máxima	20.6
78515	7	Sololá	717	San Juan la Laguna	12	San Juan la Laguna	9	Septiembre	2023-09-20T00:00:00	2024-11-08T08:00:00	3	Temperatura mínima	15.9
78516	7	Sololá	717	San Juan la Laguna	12	San Juan la Laguna	9	Septiembre	2023-09-20T00:00:00	2024-11-08T08:00:00	5	Humedad	74
78517	7	Sololá	717	San Juan la Laguna	12	San Juan la Laguna	9	Septiembre	2023-09-20T00:00:00	2024-11-08T08:00:00	6	Velocidad del viento	0
78518	7	Sololá	717	San Juan la Laguna	12	San Juan la Laguna	9	Septiembre	2023-09-20T00:00:00	2024-11-08T08:00:00	7	Dirección del viento	0
78519	7	Sololá	717	San Juan la Laguna	12	San Juan la Laguna	9	Septiembre	2023-09-20T00:00:00	2024-11-08T08:00:00	1	Precipitación	0
78520	7	Sololá	717	San Juan la Laguna	12	San Juan la Laguna	9	Septiembre	2023-09-20T00:00:00	2024-11-08T08:00:00	8	Radiación solar	234
78521	7	Sololá	717	San Juan la Laguna	12	San Juan la Laguna	9	Septiembre	2023-09-20T00:00:00	2024-11-08T09:00:00	2	Temperatura media	22.7
78522	7	Sololá	717	San Juan la Laguna	12	San Juan la Laguna	9	Septiembre	2023-09-20T00:00:00	2024-11-08T09:00:00	4	Temperatura máxima	22.7
78523	7	Sololá	717	San Juan la Laguna	12	San Juan la Laguna	9	Septiembre	2023-09-20T00:00:00	2024-11-08T09:00:00	3	Temperatura mínima	20.6
78524	7	Sololá	717	San Juan la Laguna	12	San Juan la Laguna	9	Septiembre	2023-09-20T00:00:00	2024-11-08T09:00:00	5	Humedad	66
78525	7	Sololá	717	San Juan la Laguna	12	San Juan la Laguna	9	Septiembre	2023-09-20T00:00:00	2024-11-08T09:00:00	6	Velocidad del viento	0
78526	7	Sololá	717	San Juan la Laguna	12	San Juan la Laguna	9	Septiembre	2023-09-20T00:00:00	2024-11-08T09:00:00	7	Dirección del viento	0
78527	7	Sololá	717	San Juan la Laguna	12	San Juan la Laguna	9	Septiembre	2023-09-20T00:00:00	2024-11-08T09:00:00	1	Precipitación	0
78528	7	Sololá	717	San Juan la Laguna	12	San Juan la Laguna	9	Septiembre	2023-09-20T00:00:00	2024-11-08T09:00:00	8	Radiación solar	509
78529	7	Sololá	717	San Juan la Laguna	12	San Juan la Laguna	9	Septiembre	2023-09-20T00:00:00	2024-11-08T10:00:00	2	Temperatura media	23.6
78530	7	Sololá	717	San Juan la Laguna	12	San Juan la Laguna	9	Septiembre	2023-09-20T00:00:00	2024-11-08T10:00:00	4	Temperatura máxima	23.6
78531	7	Sololá	717	San Juan la Laguna	12	San Juan la Laguna	9	Septiembre	2023-09-20T00:00:00	2024-11-08T10:00:00	3	Temperatura mínima	22.4
78532	7	Sololá	717	San Juan la Laguna	12	San Juan la Laguna	9	Septiembre	2023-09-20T00:00:00	2024-11-08T10:00:00	5	Humedad	56
78533	7	Sololá	717	San Juan la Laguna	12	San Juan la Laguna	9	Septiembre	2023-09-20T00:00:00	2024-11-08T10:00:00	6	Velocidad del viento	3.2
78534	7	Sololá	717	San Juan la Laguna	12	San Juan la Laguna	9	Septiembre	2023-09-20T00:00:00	2024-11-08T10:00:00	7	Dirección del viento	3.22
78535	7	Sololá	717	San Juan la Laguna	12	San Juan la Laguna	9	Septiembre	2023-09-20T00:00:00	2024-11-08T10:00:00	1	Precipitación	0
78536	7	Sololá	717	San Juan la Laguna	12	San Juan la Laguna	9	Septiembre	2023-09-20T00:00:00	2024-11-08T10:00:00	8	Radiación solar	627
78537	7	Sololá	717	San Juan la Laguna	12	San Juan la Laguna	9	Septiembre	2023-09-20T00:00:00	2024-11-08T11:00:00	2	Temperatura media	24.4
78538	7	Sololá	717	San Juan la Laguna	12	San Juan la Laguna	9	Septiembre	2023-09-20T00:00:00	2024-11-08T11:00:00	4	Temperatura máxima	24.4
78539	7	Sololá	717	San Juan la Laguna	12	San Juan la Laguna	9	Septiembre	2023-09-20T00:00:00	2024-11-08T11:00:00	3	Temperatura mínima	23.4
78540	7	Sololá	717	San Juan la Laguna	12	San Juan la Laguna	9	Septiembre	2023-09-20T00:00:00	2024-11-08T11:00:00	5	Humedad	54
78541	7	Sololá	717	San Juan la Laguna	12	San Juan la Laguna	9	Septiembre	2023-09-20T00:00:00	2024-11-08T11:00:00	6	Velocidad del viento	1.6
78542	7	Sololá	717	San Juan la Laguna	12	San Juan la Laguna	9	Septiembre	2023-09-20T00:00:00	2024-11-08T11:00:00	7	Dirección del viento	1.61
78543	7	Sololá	717	San Juan la Laguna	12	San Juan la Laguna	9	Septiembre	2023-09-20T00:00:00	2024-11-08T11:00:00	1	Precipitación	0
78544	7	Sololá	717	San Juan la Laguna	12	San Juan la Laguna	9	Septiembre	2023-09-20T00:00:00	2024-11-08T11:00:00	8	Radiación solar	503
78545	7	Sololá	717	San Juan la Laguna	12	San Juan la Laguna	9	Septiembre	2023-09-20T00:00:00	2024-11-08T12:00:00	2	Temperatura media	25.1
78546	7	Sololá	717	San Juan la Laguna	12	San Juan la Laguna	9	Septiembre	2023-09-20T00:00:00	2024-11-08T12:00:00	4	Temperatura máxima	25.1
78547	7	Sololá	717	San Juan la Laguna	12	San Juan la Laguna	9	Septiembre	2023-09-20T00:00:00	2024-11-08T12:00:00	3	Temperatura mínima	24.3
78548	7	Sololá	717	San Juan la Laguna	12	San Juan la Laguna	9	Septiembre	2023-09-20T00:00:00	2024-11-08T12:00:00	5	Humedad	56
78549	7	Sololá	717	San Juan la Laguna	12	San Juan la Laguna	9	Septiembre	2023-09-20T00:00:00	2024-11-08T12:00:00	6	Velocidad del viento	3.2
78550	7	Sololá	717	San Juan la Laguna	12	San Juan la Laguna	9	Septiembre	2023-09-20T00:00:00	2024-11-08T12:00:00	7	Dirección del viento	3.22
78551	7	Sololá	717	San Juan la Laguna	12	San Juan la Laguna	9	Septiembre	2023-09-20T00:00:00	2024-11-08T12:00:00	1	Precipitación	0
78552	7	Sololá	717	San Juan la Laguna	12	San Juan la Laguna	9	Septiembre	2023-09-20T00:00:00	2024-11-08T12:00:00	8	Radiación solar	612
78553	7	Sololá	717	San Juan la Laguna	12	San Juan la Laguna	9	Septiembre	2023-09-20T00:00:00	2024-11-08T13:00:00	2	Temperatura media	25.3
78554	7	Sololá	717	San Juan la Laguna	12	San Juan la Laguna	9	Septiembre	2023-09-20T00:00:00	2024-11-08T13:00:00	4	Temperatura máxima	25.8
78555	7	Sololá	717	San Juan la Laguna	12	San Juan la Laguna	9	Septiembre	2023-09-20T00:00:00	2024-11-08T13:00:00	3	Temperatura mínima	24.7
78556	7	Sololá	717	San Juan la Laguna	12	San Juan la Laguna	9	Septiembre	2023-09-20T00:00:00	2024-11-08T13:00:00	5	Humedad	56
78557	7	Sololá	717	San Juan la Laguna	12	San Juan la Laguna	9	Septiembre	2023-09-20T00:00:00	2024-11-08T13:00:00	6	Velocidad del viento	3.2
78558	7	Sololá	717	San Juan la Laguna	12	San Juan la Laguna	9	Septiembre	2023-09-20T00:00:00	2024-11-08T13:00:00	7	Dirección del viento	3.22
78559	7	Sololá	717	San Juan la Laguna	12	San Juan la Laguna	9	Septiembre	2023-09-20T00:00:00	2024-11-08T13:00:00	1	Precipitación	0
78560	7	Sololá	717	San Juan la Laguna	12	San Juan la Laguna	9	Septiembre	2023-09-20T00:00:00	2024-11-08T13:00:00	8	Radiación solar	670
78561	7	Sololá	717	San Juan la Laguna	12	San Juan la Laguna	9	Septiembre	2023-09-20T00:00:00	2024-11-08T14:00:00	2	Temperatura media	26.7
78562	7	Sololá	717	San Juan la Laguna	12	San Juan la Laguna	9	Septiembre	2023-09-20T00:00:00	2024-11-08T14:00:00	4	Temperatura máxima	27.1
78563	7	Sololá	717	San Juan la Laguna	12	San Juan la Laguna	9	Septiembre	2023-09-20T00:00:00	2024-11-08T14:00:00	3	Temperatura mínima	25.3
78564	7	Sololá	717	San Juan la Laguna	12	San Juan la Laguna	9	Septiembre	2023-09-20T00:00:00	2024-11-08T14:00:00	5	Humedad	62
78565	7	Sololá	717	San Juan la Laguna	12	San Juan la Laguna	9	Septiembre	2023-09-20T00:00:00	2024-11-08T14:00:00	6	Velocidad del viento	3.2
78566	7	Sololá	717	San Juan la Laguna	12	San Juan la Laguna	9	Septiembre	2023-09-20T00:00:00	2024-11-08T14:00:00	7	Dirección del viento	3.22
78567	7	Sololá	717	San Juan la Laguna	12	San Juan la Laguna	9	Septiembre	2023-09-20T00:00:00	2024-11-08T14:00:00	1	Precipitación	0
78568	7	Sololá	717	San Juan la Laguna	12	San Juan la Laguna	9	Septiembre	2023-09-20T00:00:00	2024-11-08T14:00:00	8	Radiación solar	716
78569	7	Sololá	717	San Juan la Laguna	12	San Juan la Laguna	9	Septiembre	2023-09-20T00:00:00	2024-11-08T15:00:00	2	Temperatura media	23.8
78570	7	Sololá	717	San Juan la Laguna	12	San Juan la Laguna	9	Septiembre	2023-09-20T00:00:00	2024-11-08T15:00:00	4	Temperatura máxima	26.7
78571	7	Sololá	717	San Juan la Laguna	12	San Juan la Laguna	9	Septiembre	2023-09-20T00:00:00	2024-11-08T15:00:00	3	Temperatura mínima	23.6
78572	7	Sololá	717	San Juan la Laguna	12	San Juan la Laguna	9	Septiembre	2023-09-20T00:00:00	2024-11-08T15:00:00	5	Humedad	72
78573	7	Sololá	717	San Juan la Laguna	12	San Juan la Laguna	9	Septiembre	2023-09-20T00:00:00	2024-11-08T15:00:00	6	Velocidad del viento	8
78574	7	Sololá	717	San Juan la Laguna	12	San Juan la Laguna	9	Septiembre	2023-09-20T00:00:00	2024-11-08T15:00:00	7	Dirección del viento	8.05
78575	7	Sololá	717	San Juan la Laguna	12	San Juan la Laguna	9	Septiembre	2023-09-20T00:00:00	2024-11-08T15:00:00	1	Precipitación	0
78576	7	Sololá	717	San Juan la Laguna	12	San Juan la Laguna	9	Septiembre	2023-09-20T00:00:00	2024-11-08T15:00:00	8	Radiación solar	595
78577	7	Sololá	717	San Juan la Laguna	12	San Juan la Laguna	9	Septiembre	2023-09-20T00:00:00	2024-11-08T16:00:00	2	Temperatura media	22.3
78578	7	Sololá	717	San Juan la Laguna	12	San Juan la Laguna	9	Septiembre	2023-09-20T00:00:00	2024-11-08T16:00:00	4	Temperatura máxima	23.8
78579	7	Sololá	717	San Juan la Laguna	12	San Juan la Laguna	9	Septiembre	2023-09-20T00:00:00	2024-11-08T16:00:00	3	Temperatura mínima	22.3
78580	7	Sololá	717	San Juan la Laguna	12	San Juan la Laguna	9	Septiembre	2023-09-20T00:00:00	2024-11-08T16:00:00	5	Humedad	76
78581	7	Sololá	717	San Juan la Laguna	12	San Juan la Laguna	9	Septiembre	2023-09-20T00:00:00	2024-11-08T16:00:00	6	Velocidad del viento	9.7
78582	7	Sololá	717	San Juan la Laguna	12	San Juan la Laguna	9	Septiembre	2023-09-20T00:00:00	2024-11-08T16:00:00	7	Dirección del viento	9.66
78583	7	Sololá	717	San Juan la Laguna	12	San Juan la Laguna	9	Septiembre	2023-09-20T00:00:00	2024-11-08T16:00:00	1	Precipitación	0
78584	7	Sololá	717	San Juan la Laguna	12	San Juan la Laguna	9	Septiembre	2023-09-20T00:00:00	2024-11-08T16:00:00	8	Radiación solar	310
78585	7	Sololá	717	San Juan la Laguna	12	San Juan la Laguna	9	Septiembre	2023-09-20T00:00:00	2024-11-08T17:00:00	2	Temperatura media	20.6
78586	7	Sololá	717	San Juan la Laguna	12	San Juan la Laguna	9	Septiembre	2023-09-20T00:00:00	2024-11-08T17:00:00	4	Temperatura máxima	22.3
78587	7	Sololá	717	San Juan la Laguna	12	San Juan la Laguna	9	Septiembre	2023-09-20T00:00:00	2024-11-08T17:00:00	3	Temperatura mínima	20.6
78588	7	Sololá	717	San Juan la Laguna	12	San Juan la Laguna	9	Septiembre	2023-09-20T00:00:00	2024-11-08T17:00:00	5	Humedad	81
78589	7	Sololá	717	San Juan la Laguna	12	San Juan la Laguna	9	Septiembre	2023-09-20T00:00:00	2024-11-08T17:00:00	6	Velocidad del viento	6.4
78590	7	Sololá	717	San Juan la Laguna	12	San Juan la Laguna	9	Septiembre	2023-09-20T00:00:00	2024-11-08T17:00:00	7	Dirección del viento	6.44
78591	7	Sololá	717	San Juan la Laguna	12	San Juan la Laguna	9	Septiembre	2023-09-20T00:00:00	2024-11-08T17:00:00	1	Precipitación	0
78592	7	Sololá	717	San Juan la Laguna	12	San Juan la Laguna	9	Septiembre	2023-09-20T00:00:00	2024-11-08T17:00:00	8	Radiación solar	31
78593	7	Sololá	717	San Juan la Laguna	12	San Juan la Laguna	9	Septiembre	2023-09-20T00:00:00	2024-11-08T18:00:00	2	Temperatura media	20.4
78594	7	Sololá	717	San Juan la Laguna	12	San Juan la Laguna	9	Septiembre	2023-09-20T00:00:00	2024-11-08T18:00:00	4	Temperatura máxima	20.8
78595	7	Sololá	717	San Juan la Laguna	12	San Juan la Laguna	9	Septiembre	2023-09-20T00:00:00	2024-11-08T18:00:00	3	Temperatura mínima	20.4
78596	7	Sololá	717	San Juan la Laguna	12	San Juan la Laguna	9	Septiembre	2023-09-20T00:00:00	2024-11-08T18:00:00	5	Humedad	83
78597	7	Sololá	717	San Juan la Laguna	12	San Juan la Laguna	9	Septiembre	2023-09-20T00:00:00	2024-11-08T18:00:00	6	Velocidad del viento	3.2
78598	7	Sololá	717	San Juan la Laguna	12	San Juan la Laguna	9	Septiembre	2023-09-20T00:00:00	2024-11-08T18:00:00	7	Dirección del viento	3.22
78599	7	Sololá	717	San Juan la Laguna	12	San Juan la Laguna	9	Septiembre	2023-09-20T00:00:00	2024-11-08T18:00:00	1	Precipitación	0
78600	7	Sololá	717	San Juan la Laguna	12	San Juan la Laguna	9	Septiembre	2023-09-20T00:00:00	2024-11-08T18:00:00	8	Radiación solar	10
78601	7	Sololá	717	San Juan la Laguna	12	San Juan la Laguna	9	Septiembre	2023-09-20T00:00:00	2024-11-08T19:00:00	2	Temperatura media	19.7
78602	7	Sololá	717	San Juan la Laguna	12	San Juan la Laguna	9	Septiembre	2023-09-20T00:00:00	2024-11-08T19:00:00	4	Temperatura máxima	20.4
78603	7	Sololá	717	San Juan la Laguna	12	San Juan la Laguna	9	Septiembre	2023-09-20T00:00:00	2024-11-08T19:00:00	3	Temperatura mínima	19.5
78604	7	Sololá	717	San Juan la Laguna	12	San Juan la Laguna	9	Septiembre	2023-09-20T00:00:00	2024-11-08T19:00:00	5	Humedad	83
78605	7	Sololá	717	San Juan la Laguna	12	San Juan la Laguna	9	Septiembre	2023-09-20T00:00:00	2024-11-08T19:00:00	6	Velocidad del viento	3.2
78606	7	Sololá	717	San Juan la Laguna	12	San Juan la Laguna	9	Septiembre	2023-09-20T00:00:00	2024-11-08T19:00:00	7	Dirección del viento	3.22
78607	7	Sololá	717	San Juan la Laguna	12	San Juan la Laguna	9	Septiembre	2023-09-20T00:00:00	2024-11-08T19:00:00	1	Precipitación	0
78608	7	Sololá	717	San Juan la Laguna	12	San Juan la Laguna	9	Septiembre	2023-09-20T00:00:00	2024-11-08T19:00:00	8	Radiación solar	0
78609	7	Sololá	717	San Juan la Laguna	12	San Juan la Laguna	9	Septiembre	2023-09-20T00:00:00	2024-11-08T20:00:00	2	Temperatura media	19.4
78610	7	Sololá	717	San Juan la Laguna	12	San Juan la Laguna	9	Septiembre	2023-09-20T00:00:00	2024-11-08T20:00:00	4	Temperatura máxima	19.7
78611	7	Sololá	717	San Juan la Laguna	12	San Juan la Laguna	9	Septiembre	2023-09-20T00:00:00	2024-11-08T20:00:00	3	Temperatura mínima	19.4
78612	7	Sololá	717	San Juan la Laguna	12	San Juan la Laguna	9	Septiembre	2023-09-20T00:00:00	2024-11-08T20:00:00	5	Humedad	84
78613	7	Sololá	717	San Juan la Laguna	12	San Juan la Laguna	9	Septiembre	2023-09-20T00:00:00	2024-11-08T20:00:00	6	Velocidad del viento	4.8
78614	7	Sololá	717	San Juan la Laguna	12	San Juan la Laguna	9	Septiembre	2023-09-20T00:00:00	2024-11-08T20:00:00	7	Dirección del viento	4.83
78615	7	Sololá	717	San Juan la Laguna	12	San Juan la Laguna	9	Septiembre	2023-09-20T00:00:00	2024-11-08T20:00:00	1	Precipitación	0
78616	7	Sololá	717	San Juan la Laguna	12	San Juan la Laguna	9	Septiembre	2023-09-20T00:00:00	2024-11-08T20:00:00	8	Radiación solar	0
78617	7	Sololá	717	San Juan la Laguna	12	San Juan la Laguna	9	Septiembre	2023-09-20T00:00:00	2024-11-08T21:00:00	2	Temperatura media	18.7
78618	7	Sololá	717	San Juan la Laguna	12	San Juan la Laguna	9	Septiembre	2023-09-20T00:00:00	2024-11-08T21:00:00	4	Temperatura máxima	19.4
78619	7	Sololá	717	San Juan la Laguna	12	San Juan la Laguna	9	Septiembre	2023-09-20T00:00:00	2024-11-08T21:00:00	3	Temperatura mínima	18.7
78620	7	Sololá	717	San Juan la Laguna	12	San Juan la Laguna	9	Septiembre	2023-09-20T00:00:00	2024-11-08T21:00:00	5	Humedad	86
78621	7	Sololá	717	San Juan la Laguna	12	San Juan la Laguna	9	Septiembre	2023-09-20T00:00:00	2024-11-08T21:00:00	6	Velocidad del viento	4.8
78622	7	Sololá	717	San Juan la Laguna	12	San Juan la Laguna	9	Septiembre	2023-09-20T00:00:00	2024-11-08T21:00:00	7	Dirección del viento	4.83
78623	7	Sololá	717	San Juan la Laguna	12	San Juan la Laguna	9	Septiembre	2023-09-20T00:00:00	2024-11-08T21:00:00	1	Precipitación	0
78624	7	Sololá	717	San Juan la Laguna	12	San Juan la Laguna	9	Septiembre	2023-09-20T00:00:00	2024-11-08T21:00:00	8	Radiación solar	0
78625	7	Sololá	717	San Juan la Laguna	12	San Juan la Laguna	9	Septiembre	2023-09-20T00:00:00	2024-11-08T22:00:00	2	Temperatura media	17.8
78626	7	Sololá	717	San Juan la Laguna	12	San Juan la Laguna	9	Septiembre	2023-09-20T00:00:00	2024-11-08T22:00:00	4	Temperatura máxima	18.7
78627	7	Sololá	717	San Juan la Laguna	12	San Juan la Laguna	9	Septiembre	2023-09-20T00:00:00	2024-11-08T22:00:00	3	Temperatura mínima	17.8
78628	7	Sololá	717	San Juan la Laguna	12	San Juan la Laguna	9	Septiembre	2023-09-20T00:00:00	2024-11-08T22:00:00	5	Humedad	88
78629	7	Sololá	717	San Juan la Laguna	12	San Juan la Laguna	9	Septiembre	2023-09-20T00:00:00	2024-11-08T22:00:00	6	Velocidad del viento	3.2
78630	7	Sololá	717	San Juan la Laguna	12	San Juan la Laguna	9	Septiembre	2023-09-20T00:00:00	2024-11-08T22:00:00	7	Dirección del viento	3.22
78631	7	Sololá	717	San Juan la Laguna	12	San Juan la Laguna	9	Septiembre	2023-09-20T00:00:00	2024-11-08T22:00:00	1	Precipitación	0
78632	7	Sololá	717	San Juan la Laguna	12	San Juan la Laguna	9	Septiembre	2023-09-20T00:00:00	2024-11-08T22:00:00	8	Radiación solar	0
78633	7	Sololá	717	San Juan la Laguna	12	San Juan la Laguna	9	Septiembre	2023-09-20T00:00:00	2024-11-08T23:00:00	2	Temperatura media	17.7
78634	7	Sololá	717	San Juan la Laguna	12	San Juan la Laguna	9	Septiembre	2023-09-20T00:00:00	2024-11-08T23:00:00	4	Temperatura máxima	17.9
78635	7	Sololá	717	San Juan la Laguna	12	San Juan la Laguna	9	Septiembre	2023-09-20T00:00:00	2024-11-08T23:00:00	3	Temperatura mínima	17.6
78636	7	Sololá	717	San Juan la Laguna	12	San Juan la Laguna	9	Septiembre	2023-09-20T00:00:00	2024-11-08T23:00:00	5	Humedad	88
78637	7	Sololá	717	San Juan la Laguna	12	San Juan la Laguna	9	Septiembre	2023-09-20T00:00:00	2024-11-08T23:00:00	6	Velocidad del viento	4.8
78638	7	Sololá	717	San Juan la Laguna	12	San Juan la Laguna	9	Septiembre	2023-09-20T00:00:00	2024-11-08T23:00:00	7	Dirección del viento	4.83
78639	7	Sololá	717	San Juan la Laguna	12	San Juan la Laguna	9	Septiembre	2023-09-20T00:00:00	2024-11-08T23:00:00	1	Precipitación	0
78640	7	Sololá	717	San Juan la Laguna	12	San Juan la Laguna	9	Septiembre	2023-09-20T00:00:00	2024-11-08T23:00:00	8	Radiación solar	0
78641	7	Sololá	717	San Juan la Laguna	12	San Juan la Laguna	9	Septiembre	2023-09-21T00:00:00	2024-11-08T00:00:00	2	Temperatura media	17.8
78642	7	Sololá	717	San Juan la Laguna	12	San Juan la Laguna	9	Septiembre	2023-09-21T00:00:00	2024-11-08T00:00:00	4	Temperatura máxima	17.8
78643	7	Sololá	717	San Juan la Laguna	12	San Juan la Laguna	9	Septiembre	2023-09-21T00:00:00	2024-11-08T00:00:00	3	Temperatura mínima	17.7
78644	7	Sololá	717	San Juan la Laguna	12	San Juan la Laguna	9	Septiembre	2023-09-21T00:00:00	2024-11-08T00:00:00	5	Humedad	88
78645	7	Sololá	717	San Juan la Laguna	12	San Juan la Laguna	9	Septiembre	2023-09-21T00:00:00	2024-11-08T00:00:00	6	Velocidad del viento	3.2
78646	7	Sololá	717	San Juan la Laguna	12	San Juan la Laguna	9	Septiembre	2023-09-21T00:00:00	2024-11-08T00:00:00	7	Dirección del viento	3.22
78647	7	Sololá	717	San Juan la Laguna	12	San Juan la Laguna	9	Septiembre	2023-09-21T00:00:00	2024-11-08T00:00:00	1	Precipitación	0
78648	7	Sololá	717	San Juan la Laguna	12	San Juan la Laguna	9	Septiembre	2023-09-21T00:00:00	2024-11-08T00:00:00	8	Radiación solar	0
78649	7	Sololá	717	San Juan la Laguna	12	San Juan la Laguna	9	Septiembre	2023-09-21T00:00:00	2024-11-08T01:00:00	2	Temperatura media	17.5
78650	7	Sololá	717	San Juan la Laguna	12	San Juan la Laguna	9	Septiembre	2023-09-21T00:00:00	2024-11-08T01:00:00	4	Temperatura máxima	18.1
78651	7	Sololá	717	San Juan la Laguna	12	San Juan la Laguna	9	Septiembre	2023-09-21T00:00:00	2024-11-08T01:00:00	3	Temperatura mínima	17.5
78652	7	Sololá	717	San Juan la Laguna	12	San Juan la Laguna	9	Septiembre	2023-09-21T00:00:00	2024-11-08T01:00:00	5	Humedad	88
78653	7	Sololá	717	San Juan la Laguna	12	San Juan la Laguna	9	Septiembre	2023-09-21T00:00:00	2024-11-08T01:00:00	6	Velocidad del viento	4.8
78654	7	Sololá	717	San Juan la Laguna	12	San Juan la Laguna	9	Septiembre	2023-09-21T00:00:00	2024-11-08T01:00:00	7	Dirección del viento	4.83
78655	7	Sololá	717	San Juan la Laguna	12	San Juan la Laguna	9	Septiembre	2023-09-21T00:00:00	2024-11-08T01:00:00	1	Precipitación	0
78656	7	Sololá	717	San Juan la Laguna	12	San Juan la Laguna	9	Septiembre	2023-09-21T00:00:00	2024-11-08T01:00:00	8	Radiación solar	0
78657	7	Sololá	717	San Juan la Laguna	12	San Juan la Laguna	9	Septiembre	2023-09-21T00:00:00	2024-11-08T02:00:00	2	Temperatura media	16.9
78658	7	Sololá	717	San Juan la Laguna	12	San Juan la Laguna	9	Septiembre	2023-09-21T00:00:00	2024-11-08T02:00:00	4	Temperatura máxima	17.5
78659	7	Sololá	717	San Juan la Laguna	12	San Juan la Laguna	9	Septiembre	2023-09-21T00:00:00	2024-11-08T02:00:00	3	Temperatura mínima	16.8
78660	7	Sololá	717	San Juan la Laguna	12	San Juan la Laguna	9	Septiembre	2023-09-21T00:00:00	2024-11-08T02:00:00	5	Humedad	88
78661	7	Sololá	717	San Juan la Laguna	12	San Juan la Laguna	9	Septiembre	2023-09-21T00:00:00	2024-11-08T02:00:00	6	Velocidad del viento	4.8
78662	7	Sololá	717	San Juan la Laguna	12	San Juan la Laguna	9	Septiembre	2023-09-21T00:00:00	2024-11-08T02:00:00	7	Dirección del viento	4.83
78663	7	Sololá	717	San Juan la Laguna	12	San Juan la Laguna	9	Septiembre	2023-09-21T00:00:00	2024-11-08T02:00:00	1	Precipitación	0
78664	7	Sololá	717	San Juan la Laguna	12	San Juan la Laguna	9	Septiembre	2023-09-21T00:00:00	2024-11-08T02:00:00	8	Radiación solar	0
78665	7	Sololá	717	San Juan la Laguna	12	San Juan la Laguna	9	Septiembre	2023-09-21T00:00:00	2024-11-08T03:00:00	2	Temperatura media	16.3
78666	7	Sololá	717	San Juan la Laguna	12	San Juan la Laguna	9	Septiembre	2023-09-21T00:00:00	2024-11-08T03:00:00	4	Temperatura máxima	17.2
78667	7	Sololá	717	San Juan la Laguna	12	San Juan la Laguna	9	Septiembre	2023-09-21T00:00:00	2024-11-08T03:00:00	3	Temperatura mínima	16.3
78668	7	Sololá	717	San Juan la Laguna	12	San Juan la Laguna	9	Septiembre	2023-09-21T00:00:00	2024-11-08T03:00:00	5	Humedad	89
78669	7	Sololá	717	San Juan la Laguna	12	San Juan la Laguna	9	Septiembre	2023-09-21T00:00:00	2024-11-08T03:00:00	6	Velocidad del viento	3.2
78670	7	Sololá	717	San Juan la Laguna	12	San Juan la Laguna	9	Septiembre	2023-09-21T00:00:00	2024-11-08T03:00:00	7	Dirección del viento	3.22
78671	7	Sololá	717	San Juan la Laguna	12	San Juan la Laguna	9	Septiembre	2023-09-21T00:00:00	2024-11-08T03:00:00	1	Precipitación	0
78672	7	Sololá	717	San Juan la Laguna	12	San Juan la Laguna	9	Septiembre	2023-09-21T00:00:00	2024-11-08T03:00:00	8	Radiación solar	0
78673	7	Sololá	717	San Juan la Laguna	12	San Juan la Laguna	9	Septiembre	2023-09-21T00:00:00	2024-11-08T04:00:00	2	Temperatura media	16.2
78674	7	Sololá	717	San Juan la Laguna	12	San Juan la Laguna	9	Septiembre	2023-09-21T00:00:00	2024-11-08T04:00:00	4	Temperatura máxima	16.6
78675	7	Sololá	717	San Juan la Laguna	12	San Juan la Laguna	9	Septiembre	2023-09-21T00:00:00	2024-11-08T04:00:00	3	Temperatura mínima	16.1
78676	7	Sololá	717	San Juan la Laguna	12	San Juan la Laguna	9	Septiembre	2023-09-21T00:00:00	2024-11-08T04:00:00	5	Humedad	90
78677	7	Sololá	717	San Juan la Laguna	12	San Juan la Laguna	9	Septiembre	2023-09-21T00:00:00	2024-11-08T04:00:00	6	Velocidad del viento	1.6
78678	7	Sololá	717	San Juan la Laguna	12	San Juan la Laguna	9	Septiembre	2023-09-21T00:00:00	2024-11-08T04:00:00	7	Dirección del viento	1.61
78679	7	Sololá	717	San Juan la Laguna	12	San Juan la Laguna	9	Septiembre	2023-09-21T00:00:00	2024-11-08T04:00:00	1	Precipitación	0
78680	7	Sololá	717	San Juan la Laguna	12	San Juan la Laguna	9	Septiembre	2023-09-21T00:00:00	2024-11-08T04:00:00	8	Radiación solar	0
78681	7	Sololá	717	San Juan la Laguna	12	San Juan la Laguna	9	Septiembre	2023-09-21T00:00:00	2024-11-08T05:00:00	2	Temperatura media	15.8
78682	7	Sololá	717	San Juan la Laguna	12	San Juan la Laguna	9	Septiembre	2023-09-21T00:00:00	2024-11-08T05:00:00	4	Temperatura máxima	16.3
78683	7	Sololá	717	San Juan la Laguna	12	San Juan la Laguna	9	Septiembre	2023-09-21T00:00:00	2024-11-08T05:00:00	3	Temperatura mínima	15.7
78684	7	Sololá	717	San Juan la Laguna	12	San Juan la Laguna	9	Septiembre	2023-09-21T00:00:00	2024-11-08T05:00:00	5	Humedad	88
78685	7	Sololá	717	San Juan la Laguna	12	San Juan la Laguna	9	Septiembre	2023-09-21T00:00:00	2024-11-08T05:00:00	6	Velocidad del viento	3.2
78686	7	Sololá	717	San Juan la Laguna	12	San Juan la Laguna	9	Septiembre	2023-09-21T00:00:00	2024-11-08T05:00:00	7	Dirección del viento	3.22
78687	7	Sololá	717	San Juan la Laguna	12	San Juan la Laguna	9	Septiembre	2023-09-21T00:00:00	2024-11-08T05:00:00	1	Precipitación	0
78688	7	Sololá	717	San Juan la Laguna	12	San Juan la Laguna	9	Septiembre	2023-09-21T00:00:00	2024-11-08T05:00:00	8	Radiación solar	0
78689	7	Sololá	717	San Juan la Laguna	12	San Juan la Laguna	9	Septiembre	2023-09-21T00:00:00	2024-11-08T06:00:00	2	Temperatura media	15.6
78690	7	Sololá	717	San Juan la Laguna	12	San Juan la Laguna	9	Septiembre	2023-09-21T00:00:00	2024-11-08T06:00:00	4	Temperatura máxima	15.9
78691	7	Sololá	717	San Juan la Laguna	12	San Juan la Laguna	9	Septiembre	2023-09-21T00:00:00	2024-11-08T06:00:00	3	Temperatura mínima	15.6
78692	7	Sololá	717	San Juan la Laguna	12	San Juan la Laguna	9	Septiembre	2023-09-21T00:00:00	2024-11-08T06:00:00	5	Humedad	86
78693	7	Sololá	717	San Juan la Laguna	12	San Juan la Laguna	9	Septiembre	2023-09-21T00:00:00	2024-11-08T06:00:00	6	Velocidad del viento	4.8
78694	7	Sololá	717	San Juan la Laguna	12	San Juan la Laguna	9	Septiembre	2023-09-21T00:00:00	2024-11-08T06:00:00	7	Dirección del viento	4.83
78695	7	Sololá	717	San Juan la Laguna	12	San Juan la Laguna	9	Septiembre	2023-09-21T00:00:00	2024-11-08T06:00:00	1	Precipitación	0
78696	7	Sololá	717	San Juan la Laguna	12	San Juan la Laguna	9	Septiembre	2023-09-21T00:00:00	2024-11-08T06:00:00	8	Radiación solar	0
78697	7	Sololá	717	San Juan la Laguna	12	San Juan la Laguna	9	Septiembre	2023-09-21T00:00:00	2024-11-08T07:00:00	2	Temperatura media	17
78698	7	Sololá	717	San Juan la Laguna	12	San Juan la Laguna	9	Septiembre	2023-09-21T00:00:00	2024-11-08T07:00:00	4	Temperatura máxima	17
78699	7	Sololá	717	San Juan la Laguna	12	San Juan la Laguna	9	Septiembre	2023-09-21T00:00:00	2024-11-08T07:00:00	3	Temperatura mínima	15.6
78700	7	Sololá	717	San Juan la Laguna	12	San Juan la Laguna	9	Septiembre	2023-09-21T00:00:00	2024-11-08T07:00:00	5	Humedad	84
78701	7	Sololá	717	San Juan la Laguna	12	San Juan la Laguna	9	Septiembre	2023-09-21T00:00:00	2024-11-08T07:00:00	6	Velocidad del viento	4.8
78702	7	Sololá	717	San Juan la Laguna	12	San Juan la Laguna	9	Septiembre	2023-09-21T00:00:00	2024-11-08T07:00:00	7	Dirección del viento	4.83
78703	7	Sololá	717	San Juan la Laguna	12	San Juan la Laguna	9	Septiembre	2023-09-21T00:00:00	2024-11-08T07:00:00	1	Precipitación	0
78704	7	Sololá	717	San Juan la Laguna	12	San Juan la Laguna	9	Septiembre	2023-09-21T00:00:00	2024-11-08T07:00:00	8	Radiación solar	56
78705	7	Sololá	717	San Juan la Laguna	12	San Juan la Laguna	9	Septiembre	2023-09-21T00:00:00	2024-11-08T08:00:00	2	Temperatura media	20
78706	7	Sololá	717	San Juan la Laguna	12	San Juan la Laguna	9	Septiembre	2023-09-21T00:00:00	2024-11-08T08:00:00	4	Temperatura máxima	20
78707	7	Sololá	717	San Juan la Laguna	12	San Juan la Laguna	9	Septiembre	2023-09-21T00:00:00	2024-11-08T08:00:00	3	Temperatura mínima	17
78708	7	Sololá	717	San Juan la Laguna	12	San Juan la Laguna	9	Septiembre	2023-09-21T00:00:00	2024-11-08T08:00:00	5	Humedad	78
78709	7	Sololá	717	San Juan la Laguna	12	San Juan la Laguna	9	Septiembre	2023-09-21T00:00:00	2024-11-08T08:00:00	6	Velocidad del viento	1.6
78710	7	Sololá	717	San Juan la Laguna	12	San Juan la Laguna	9	Septiembre	2023-09-21T00:00:00	2024-11-08T08:00:00	7	Dirección del viento	1.61
78711	7	Sololá	717	San Juan la Laguna	12	San Juan la Laguna	9	Septiembre	2023-09-21T00:00:00	2024-11-08T08:00:00	1	Precipitación	0
78712	7	Sololá	717	San Juan la Laguna	12	San Juan la Laguna	9	Septiembre	2023-09-21T00:00:00	2024-11-08T08:00:00	8	Radiación solar	178
78713	7	Sololá	717	San Juan la Laguna	12	San Juan la Laguna	9	Septiembre	2023-09-21T00:00:00	2024-11-08T09:00:00	2	Temperatura media	21.7
78714	7	Sololá	717	San Juan la Laguna	12	San Juan la Laguna	9	Septiembre	2023-09-21T00:00:00	2024-11-08T09:00:00	4	Temperatura máxima	21.7
78715	7	Sololá	717	San Juan la Laguna	12	San Juan la Laguna	9	Septiembre	2023-09-21T00:00:00	2024-11-08T09:00:00	3	Temperatura mínima	20
78716	7	Sololá	717	San Juan la Laguna	12	San Juan la Laguna	9	Septiembre	2023-09-21T00:00:00	2024-11-08T09:00:00	5	Humedad	70
78717	7	Sololá	717	San Juan la Laguna	12	San Juan la Laguna	9	Septiembre	2023-09-21T00:00:00	2024-11-08T09:00:00	6	Velocidad del viento	3.2
78718	7	Sololá	717	San Juan la Laguna	12	San Juan la Laguna	9	Septiembre	2023-09-21T00:00:00	2024-11-08T09:00:00	7	Dirección del viento	3.22
78719	7	Sololá	717	San Juan la Laguna	12	San Juan la Laguna	9	Septiembre	2023-09-21T00:00:00	2024-11-08T09:00:00	1	Precipitación	0
78720	7	Sololá	717	San Juan la Laguna	12	San Juan la Laguna	9	Septiembre	2023-09-21T00:00:00	2024-11-08T09:00:00	8	Radiación solar	288
78721	7	Sololá	717	San Juan la Laguna	12	San Juan la Laguna	9	Septiembre	2023-09-21T00:00:00	2024-11-08T10:00:00	2	Temperatura media	24.9
78722	7	Sololá	717	San Juan la Laguna	12	San Juan la Laguna	9	Septiembre	2023-09-21T00:00:00	2024-11-08T10:00:00	4	Temperatura máxima	24.9
78723	7	Sololá	717	San Juan la Laguna	12	San Juan la Laguna	9	Septiembre	2023-09-21T00:00:00	2024-11-08T10:00:00	3	Temperatura mínima	21.8
78724	7	Sololá	717	San Juan la Laguna	12	San Juan la Laguna	9	Septiembre	2023-09-21T00:00:00	2024-11-08T10:00:00	5	Humedad	58
78725	7	Sololá	717	San Juan la Laguna	12	San Juan la Laguna	9	Septiembre	2023-09-21T00:00:00	2024-11-08T10:00:00	6	Velocidad del viento	4.8
78726	7	Sololá	717	San Juan la Laguna	12	San Juan la Laguna	9	Septiembre	2023-09-21T00:00:00	2024-11-08T10:00:00	7	Dirección del viento	4.83
78727	7	Sololá	717	San Juan la Laguna	12	San Juan la Laguna	9	Septiembre	2023-09-21T00:00:00	2024-11-08T10:00:00	1	Precipitación	0
78728	7	Sololá	717	San Juan la Laguna	12	San Juan la Laguna	9	Septiembre	2023-09-21T00:00:00	2024-11-08T10:00:00	8	Radiación solar	719
78729	7	Sololá	717	San Juan la Laguna	12	San Juan la Laguna	9	Septiembre	2023-09-21T00:00:00	2024-11-08T11:00:00	2	Temperatura media	25.9
78730	7	Sololá	717	San Juan la Laguna	12	San Juan la Laguna	9	Septiembre	2023-09-21T00:00:00	2024-11-08T11:00:00	4	Temperatura máxima	26.4
78731	7	Sololá	717	San Juan la Laguna	12	San Juan la Laguna	9	Septiembre	2023-09-21T00:00:00	2024-11-08T11:00:00	3	Temperatura mínima	24.9
78732	7	Sololá	717	San Juan la Laguna	12	San Juan la Laguna	9	Septiembre	2023-09-21T00:00:00	2024-11-08T11:00:00	5	Humedad	55
78733	7	Sololá	717	San Juan la Laguna	12	San Juan la Laguna	9	Septiembre	2023-09-21T00:00:00	2024-11-08T11:00:00	6	Velocidad del viento	8
78734	7	Sololá	717	San Juan la Laguna	12	San Juan la Laguna	9	Septiembre	2023-09-21T00:00:00	2024-11-08T11:00:00	7	Dirección del viento	8.05
78735	7	Sololá	717	San Juan la Laguna	12	San Juan la Laguna	9	Septiembre	2023-09-21T00:00:00	2024-11-08T11:00:00	1	Precipitación	0
78736	7	Sololá	717	San Juan la Laguna	12	San Juan la Laguna	9	Septiembre	2023-09-21T00:00:00	2024-11-08T11:00:00	8	Radiación solar	863
78737	7	Sololá	717	San Juan la Laguna	12	San Juan la Laguna	9	Septiembre	2023-09-21T00:00:00	2024-11-08T12:00:00	2	Temperatura media	27.1
78738	7	Sololá	717	San Juan la Laguna	12	San Juan la Laguna	9	Septiembre	2023-09-21T00:00:00	2024-11-08T12:00:00	4	Temperatura máxima	27.4
78739	7	Sololá	717	San Juan la Laguna	12	San Juan la Laguna	9	Septiembre	2023-09-21T00:00:00	2024-11-08T12:00:00	3	Temperatura mínima	25.7
78740	7	Sololá	717	San Juan la Laguna	12	San Juan la Laguna	9	Septiembre	2023-09-21T00:00:00	2024-11-08T12:00:00	5	Humedad	53
78741	7	Sololá	717	San Juan la Laguna	12	San Juan la Laguna	9	Septiembre	2023-09-21T00:00:00	2024-11-08T12:00:00	6	Velocidad del viento	6.4
78742	7	Sololá	717	San Juan la Laguna	12	San Juan la Laguna	9	Septiembre	2023-09-21T00:00:00	2024-11-08T12:00:00	7	Dirección del viento	6.44
78743	7	Sololá	717	San Juan la Laguna	12	San Juan la Laguna	9	Septiembre	2023-09-21T00:00:00	2024-11-08T12:00:00	1	Precipitación	0
78744	7	Sololá	717	San Juan la Laguna	12	San Juan la Laguna	9	Septiembre	2023-09-21T00:00:00	2024-11-08T12:00:00	8	Radiación solar	804
78745	7	Sololá	717	San Juan la Laguna	12	San Juan la Laguna	9	Septiembre	2023-09-21T00:00:00	2024-11-08T13:00:00	2	Temperatura media	25.5
78746	7	Sololá	717	San Juan la Laguna	12	San Juan la Laguna	9	Septiembre	2023-09-21T00:00:00	2024-11-08T13:00:00	4	Temperatura máxima	27.3
78747	7	Sololá	717	San Juan la Laguna	12	San Juan la Laguna	9	Septiembre	2023-09-21T00:00:00	2024-11-08T13:00:00	3	Temperatura mínima	24.9
78748	7	Sololá	717	San Juan la Laguna	12	San Juan la Laguna	9	Septiembre	2023-09-21T00:00:00	2024-11-08T13:00:00	5	Humedad	64
78749	7	Sololá	717	San Juan la Laguna	12	San Juan la Laguna	9	Septiembre	2023-09-21T00:00:00	2024-11-08T13:00:00	6	Velocidad del viento	9.7
78750	7	Sololá	717	San Juan la Laguna	12	San Juan la Laguna	9	Septiembre	2023-09-21T00:00:00	2024-11-08T13:00:00	7	Dirección del viento	9.66
78751	7	Sololá	717	San Juan la Laguna	12	San Juan la Laguna	9	Septiembre	2023-09-21T00:00:00	2024-11-08T13:00:00	1	Precipitación	0
78752	7	Sololá	717	San Juan la Laguna	12	San Juan la Laguna	9	Septiembre	2023-09-21T00:00:00	2024-11-08T13:00:00	8	Radiación solar	832
78753	7	Sololá	717	San Juan la Laguna	12	San Juan la Laguna	9	Septiembre	2023-09-21T00:00:00	2024-11-08T14:00:00	2	Temperatura media	25.6
78754	7	Sololá	717	San Juan la Laguna	12	San Juan la Laguna	9	Septiembre	2023-09-21T00:00:00	2024-11-08T14:00:00	4	Temperatura máxima	25.9
78755	7	Sololá	717	San Juan la Laguna	12	San Juan la Laguna	9	Septiembre	2023-09-21T00:00:00	2024-11-08T14:00:00	3	Temperatura mínima	25.4
78756	7	Sololá	717	San Juan la Laguna	12	San Juan la Laguna	9	Septiembre	2023-09-21T00:00:00	2024-11-08T14:00:00	5	Humedad	62
78757	7	Sololá	717	San Juan la Laguna	12	San Juan la Laguna	9	Septiembre	2023-09-21T00:00:00	2024-11-08T14:00:00	6	Velocidad del viento	6.4
78758	7	Sololá	717	San Juan la Laguna	12	San Juan la Laguna	9	Septiembre	2023-09-21T00:00:00	2024-11-08T14:00:00	7	Dirección del viento	6.44
78759	7	Sololá	717	San Juan la Laguna	12	San Juan la Laguna	9	Septiembre	2023-09-21T00:00:00	2024-11-08T14:00:00	1	Precipitación	0
78760	7	Sololá	717	San Juan la Laguna	12	San Juan la Laguna	9	Septiembre	2023-09-21T00:00:00	2024-11-08T14:00:00	8	Radiación solar	794
78761	7	Sololá	717	San Juan la Laguna	12	San Juan la Laguna	9	Septiembre	2023-09-21T00:00:00	2024-11-08T15:00:00	2	Temperatura media	25.7
78762	7	Sololá	717	San Juan la Laguna	12	San Juan la Laguna	9	Septiembre	2023-09-21T00:00:00	2024-11-08T15:00:00	4	Temperatura máxima	27.4
78763	7	Sololá	717	San Juan la Laguna	12	San Juan la Laguna	9	Septiembre	2023-09-21T00:00:00	2024-11-08T15:00:00	3	Temperatura mínima	25.7
78764	7	Sololá	717	San Juan la Laguna	12	San Juan la Laguna	9	Septiembre	2023-09-21T00:00:00	2024-11-08T15:00:00	5	Humedad	62
78765	7	Sololá	717	San Juan la Laguna	12	San Juan la Laguna	9	Septiembre	2023-09-21T00:00:00	2024-11-08T15:00:00	6	Velocidad del viento	4.8
78766	7	Sololá	717	San Juan la Laguna	12	San Juan la Laguna	9	Septiembre	2023-09-21T00:00:00	2024-11-08T15:00:00	7	Dirección del viento	4.83
78767	7	Sololá	717	San Juan la Laguna	12	San Juan la Laguna	9	Septiembre	2023-09-21T00:00:00	2024-11-08T15:00:00	1	Precipitación	0
78768	7	Sololá	717	San Juan la Laguna	12	San Juan la Laguna	9	Septiembre	2023-09-21T00:00:00	2024-11-08T15:00:00	8	Radiación solar	457
78769	7	Sololá	717	San Juan la Laguna	12	San Juan la Laguna	9	Septiembre	2023-09-21T00:00:00	2024-11-08T16:00:00	2	Temperatura media	23.5
78770	7	Sololá	717	San Juan la Laguna	12	San Juan la Laguna	9	Septiembre	2023-09-21T00:00:00	2024-11-08T16:00:00	4	Temperatura máxima	25.8
78771	7	Sololá	717	San Juan la Laguna	12	San Juan la Laguna	9	Septiembre	2023-09-21T00:00:00	2024-11-08T16:00:00	3	Temperatura mínima	23.5
78772	7	Sololá	717	San Juan la Laguna	12	San Juan la Laguna	9	Septiembre	2023-09-21T00:00:00	2024-11-08T16:00:00	5	Humedad	75
78773	7	Sololá	717	San Juan la Laguna	12	San Juan la Laguna	9	Septiembre	2023-09-21T00:00:00	2024-11-08T16:00:00	6	Velocidad del viento	9.7
78774	7	Sololá	717	San Juan la Laguna	12	San Juan la Laguna	9	Septiembre	2023-09-21T00:00:00	2024-11-08T16:00:00	7	Dirección del viento	9.66
78775	7	Sololá	717	San Juan la Laguna	12	San Juan la Laguna	9	Septiembre	2023-09-21T00:00:00	2024-11-08T16:00:00	1	Precipitación	0
78776	7	Sololá	717	San Juan la Laguna	12	San Juan la Laguna	9	Septiembre	2023-09-21T00:00:00	2024-11-08T16:00:00	8	Radiación solar	403
78777	7	Sololá	717	San Juan la Laguna	12	San Juan la Laguna	9	Septiembre	2023-09-21T00:00:00	2024-11-08T17:00:00	2	Temperatura media	22.5
78778	7	Sololá	717	San Juan la Laguna	12	San Juan la Laguna	9	Septiembre	2023-09-21T00:00:00	2024-11-08T17:00:00	4	Temperatura máxima	23.8
78779	7	Sololá	717	San Juan la Laguna	12	San Juan la Laguna	9	Septiembre	2023-09-21T00:00:00	2024-11-08T17:00:00	3	Temperatura mínima	22.3
78780	7	Sololá	717	San Juan la Laguna	12	San Juan la Laguna	9	Septiembre	2023-09-21T00:00:00	2024-11-08T17:00:00	5	Humedad	78
78781	7	Sololá	717	San Juan la Laguna	12	San Juan la Laguna	9	Septiembre	2023-09-21T00:00:00	2024-11-08T17:00:00	6	Velocidad del viento	11.3
78782	7	Sololá	717	San Juan la Laguna	12	San Juan la Laguna	9	Septiembre	2023-09-21T00:00:00	2024-11-08T17:00:00	7	Dirección del viento	11.27
78783	7	Sololá	717	San Juan la Laguna	12	San Juan la Laguna	9	Septiembre	2023-09-21T00:00:00	2024-11-08T17:00:00	1	Precipitación	0
78784	7	Sololá	717	San Juan la Laguna	12	San Juan la Laguna	9	Septiembre	2023-09-21T00:00:00	2024-11-08T17:00:00	8	Radiación solar	294
78785	7	Sololá	717	San Juan la Laguna	12	San Juan la Laguna	9	Septiembre	2023-09-21T00:00:00	2024-11-08T18:00:00	2	Temperatura media	21.1
78786	7	Sololá	717	San Juan la Laguna	12	San Juan la Laguna	9	Septiembre	2023-09-21T00:00:00	2024-11-08T18:00:00	4	Temperatura máxima	22.6
78787	7	Sololá	717	San Juan la Laguna	12	San Juan la Laguna	9	Septiembre	2023-09-21T00:00:00	2024-11-08T18:00:00	3	Temperatura mínima	21
78788	7	Sololá	717	San Juan la Laguna	12	San Juan la Laguna	9	Septiembre	2023-09-21T00:00:00	2024-11-08T18:00:00	5	Humedad	84
78789	7	Sololá	717	San Juan la Laguna	12	San Juan la Laguna	9	Septiembre	2023-09-21T00:00:00	2024-11-08T18:00:00	6	Velocidad del viento	6.4
78790	7	Sololá	717	San Juan la Laguna	12	San Juan la Laguna	9	Septiembre	2023-09-21T00:00:00	2024-11-08T18:00:00	7	Dirección del viento	6.44
78791	7	Sololá	717	San Juan la Laguna	12	San Juan la Laguna	9	Septiembre	2023-09-21T00:00:00	2024-11-08T18:00:00	1	Precipitación	0
78792	7	Sololá	717	San Juan la Laguna	12	San Juan la Laguna	9	Septiembre	2023-09-21T00:00:00	2024-11-08T18:00:00	8	Radiación solar	31
78793	7	Sololá	717	San Juan la Laguna	12	San Juan la Laguna	9	Septiembre	2023-09-21T00:00:00	2024-11-08T19:00:00	2	Temperatura media	21.3
78794	7	Sololá	717	San Juan la Laguna	12	San Juan la Laguna	9	Septiembre	2023-09-21T00:00:00	2024-11-08T19:00:00	4	Temperatura máxima	21.4
78795	7	Sololá	717	San Juan la Laguna	12	San Juan la Laguna	9	Septiembre	2023-09-21T00:00:00	2024-11-08T19:00:00	3	Temperatura mínima	21.1
78796	7	Sololá	717	San Juan la Laguna	12	San Juan la Laguna	9	Septiembre	2023-09-21T00:00:00	2024-11-08T19:00:00	5	Humedad	84
78797	7	Sololá	717	San Juan la Laguna	12	San Juan la Laguna	9	Septiembre	2023-09-21T00:00:00	2024-11-08T19:00:00	6	Velocidad del viento	3.2
78798	7	Sololá	717	San Juan la Laguna	12	San Juan la Laguna	9	Septiembre	2023-09-21T00:00:00	2024-11-08T19:00:00	7	Dirección del viento	3.22
78799	7	Sololá	717	San Juan la Laguna	12	San Juan la Laguna	9	Septiembre	2023-09-21T00:00:00	2024-11-08T19:00:00	1	Precipitación	0
78800	7	Sololá	717	San Juan la Laguna	12	San Juan la Laguna	9	Septiembre	2023-09-21T00:00:00	2024-11-08T19:00:00	8	Radiación solar	0
78801	7	Sololá	717	San Juan la Laguna	12	San Juan la Laguna	9	Septiembre	2023-09-21T00:00:00	2024-11-08T20:00:00	2	Temperatura media	20.3
78802	7	Sololá	717	San Juan la Laguna	12	San Juan la Laguna	9	Septiembre	2023-09-21T00:00:00	2024-11-08T20:00:00	4	Temperatura máxima	21.3
78803	7	Sololá	717	San Juan la Laguna	12	San Juan la Laguna	9	Septiembre	2023-09-21T00:00:00	2024-11-08T20:00:00	3	Temperatura mínima	20.3
78804	7	Sololá	717	San Juan la Laguna	12	San Juan la Laguna	9	Septiembre	2023-09-21T00:00:00	2024-11-08T20:00:00	5	Humedad	87
78805	7	Sololá	717	San Juan la Laguna	12	San Juan la Laguna	9	Septiembre	2023-09-21T00:00:00	2024-11-08T20:00:00	6	Velocidad del viento	0
78806	7	Sololá	717	San Juan la Laguna	12	San Juan la Laguna	9	Septiembre	2023-09-21T00:00:00	2024-11-08T20:00:00	7	Dirección del viento	0
78807	7	Sololá	717	San Juan la Laguna	12	San Juan la Laguna	9	Septiembre	2023-09-21T00:00:00	2024-11-08T20:00:00	1	Precipitación	0
78808	7	Sololá	717	San Juan la Laguna	12	San Juan la Laguna	9	Septiembre	2023-09-21T00:00:00	2024-11-08T20:00:00	8	Radiación solar	0
78809	7	Sololá	717	San Juan la Laguna	12	San Juan la Laguna	9	Septiembre	2023-09-21T00:00:00	2024-11-08T21:00:00	2	Temperatura media	19.8
78810	7	Sololá	717	San Juan la Laguna	12	San Juan la Laguna	9	Septiembre	2023-09-21T00:00:00	2024-11-08T21:00:00	4	Temperatura máxima	20.3
78811	7	Sololá	717	San Juan la Laguna	12	San Juan la Laguna	9	Septiembre	2023-09-21T00:00:00	2024-11-08T21:00:00	3	Temperatura mínima	19.8
78812	7	Sololá	717	San Juan la Laguna	12	San Juan la Laguna	9	Septiembre	2023-09-21T00:00:00	2024-11-08T21:00:00	5	Humedad	89
78813	7	Sololá	717	San Juan la Laguna	12	San Juan la Laguna	9	Septiembre	2023-09-21T00:00:00	2024-11-08T21:00:00	6	Velocidad del viento	0
78814	7	Sololá	717	San Juan la Laguna	12	San Juan la Laguna	9	Septiembre	2023-09-21T00:00:00	2024-11-08T21:00:00	7	Dirección del viento	0
78815	7	Sololá	717	San Juan la Laguna	12	San Juan la Laguna	9	Septiembre	2023-09-21T00:00:00	2024-11-08T21:00:00	1	Precipitación	0
78816	7	Sololá	717	San Juan la Laguna	12	San Juan la Laguna	9	Septiembre	2023-09-21T00:00:00	2024-11-08T21:00:00	8	Radiación solar	0
78817	7	Sololá	717	San Juan la Laguna	12	San Juan la Laguna	9	Septiembre	2023-09-21T00:00:00	2024-11-08T22:00:00	2	Temperatura media	19
78818	7	Sololá	717	San Juan la Laguna	12	San Juan la Laguna	9	Septiembre	2023-09-21T00:00:00	2024-11-08T22:00:00	4	Temperatura máxima	19.8
78819	7	Sololá	717	San Juan la Laguna	12	San Juan la Laguna	9	Septiembre	2023-09-21T00:00:00	2024-11-08T22:00:00	3	Temperatura mínima	18.9
78820	7	Sololá	717	San Juan la Laguna	12	San Juan la Laguna	9	Septiembre	2023-09-21T00:00:00	2024-11-08T22:00:00	5	Humedad	90
78821	7	Sololá	717	San Juan la Laguna	12	San Juan la Laguna	9	Septiembre	2023-09-21T00:00:00	2024-11-08T22:00:00	6	Velocidad del viento	3.2
78822	7	Sololá	717	San Juan la Laguna	12	San Juan la Laguna	9	Septiembre	2023-09-21T00:00:00	2024-11-08T22:00:00	7	Dirección del viento	3.22
78823	7	Sololá	717	San Juan la Laguna	12	San Juan la Laguna	9	Septiembre	2023-09-21T00:00:00	2024-11-08T22:00:00	1	Precipitación	5
78824	7	Sololá	717	San Juan la Laguna	12	San Juan la Laguna	9	Septiembre	2023-09-21T00:00:00	2024-11-08T22:00:00	8	Radiación solar	0
78825	7	Sololá	717	San Juan la Laguna	12	San Juan la Laguna	9	Septiembre	2023-09-21T00:00:00	2024-11-08T23:00:00	2	Temperatura media	18.4
78826	7	Sololá	717	San Juan la Laguna	12	San Juan la Laguna	9	Septiembre	2023-09-21T00:00:00	2024-11-08T23:00:00	4	Temperatura máxima	19.3
78827	7	Sololá	717	San Juan la Laguna	12	San Juan la Laguna	9	Septiembre	2023-09-21T00:00:00	2024-11-08T23:00:00	3	Temperatura mínima	18.3
78828	7	Sololá	717	San Juan la Laguna	12	San Juan la Laguna	9	Septiembre	2023-09-21T00:00:00	2024-11-08T23:00:00	5	Humedad	89
78829	7	Sololá	717	San Juan la Laguna	12	San Juan la Laguna	9	Septiembre	2023-09-21T00:00:00	2024-11-08T23:00:00	6	Velocidad del viento	4.8
78830	7	Sololá	717	San Juan la Laguna	12	San Juan la Laguna	9	Septiembre	2023-09-21T00:00:00	2024-11-08T23:00:00	7	Dirección del viento	4.83
78831	7	Sololá	717	San Juan la Laguna	12	San Juan la Laguna	9	Septiembre	2023-09-21T00:00:00	2024-11-08T23:00:00	1	Precipitación	0.8
78832	7	Sololá	717	San Juan la Laguna	12	San Juan la Laguna	9	Septiembre	2023-09-21T00:00:00	2024-11-08T23:00:00	8	Radiación solar	0
78833	7	Sololá	717	San Juan la Laguna	12	San Juan la Laguna	9	Septiembre	2023-09-22T00:00:00	2024-11-08T00:00:00	2	Temperatura media	18.3
78834	7	Sololá	717	San Juan la Laguna	12	San Juan la Laguna	9	Septiembre	2023-09-22T00:00:00	2024-11-08T00:00:00	4	Temperatura máxima	18.4
78835	7	Sololá	717	San Juan la Laguna	12	San Juan la Laguna	9	Septiembre	2023-09-22T00:00:00	2024-11-08T00:00:00	3	Temperatura mínima	18
78836	7	Sololá	717	San Juan la Laguna	12	San Juan la Laguna	9	Septiembre	2023-09-22T00:00:00	2024-11-08T00:00:00	5	Humedad	90
78837	7	Sololá	717	San Juan la Laguna	12	San Juan la Laguna	9	Septiembre	2023-09-22T00:00:00	2024-11-08T00:00:00	6	Velocidad del viento	3.2
78838	7	Sololá	717	San Juan la Laguna	12	San Juan la Laguna	9	Septiembre	2023-09-22T00:00:00	2024-11-08T00:00:00	7	Dirección del viento	3.22
78839	7	Sololá	717	San Juan la Laguna	12	San Juan la Laguna	9	Septiembre	2023-09-22T00:00:00	2024-11-08T00:00:00	1	Precipitación	0
78840	7	Sololá	717	San Juan la Laguna	12	San Juan la Laguna	9	Septiembre	2023-09-22T00:00:00	2024-11-08T00:00:00	8	Radiación solar	0
78841	7	Sololá	717	San Juan la Laguna	12	San Juan la Laguna	9	Septiembre	2023-09-22T00:00:00	2024-11-08T01:00:00	2	Temperatura media	17.8
78842	7	Sololá	717	San Juan la Laguna	12	San Juan la Laguna	9	Septiembre	2023-09-22T00:00:00	2024-11-08T01:00:00	4	Temperatura máxima	18.3
78843	7	Sololá	717	San Juan la Laguna	12	San Juan la Laguna	9	Septiembre	2023-09-22T00:00:00	2024-11-08T01:00:00	3	Temperatura mínima	17.8
78844	7	Sololá	717	San Juan la Laguna	12	San Juan la Laguna	9	Septiembre	2023-09-22T00:00:00	2024-11-08T01:00:00	5	Humedad	91
78845	7	Sololá	717	San Juan la Laguna	12	San Juan la Laguna	9	Septiembre	2023-09-22T00:00:00	2024-11-08T01:00:00	6	Velocidad del viento	3.2
78846	7	Sololá	717	San Juan la Laguna	12	San Juan la Laguna	9	Septiembre	2023-09-22T00:00:00	2024-11-08T01:00:00	7	Dirección del viento	3.22
78847	7	Sololá	717	San Juan la Laguna	12	San Juan la Laguna	9	Septiembre	2023-09-22T00:00:00	2024-11-08T01:00:00	1	Precipitación	0
78848	7	Sololá	717	San Juan la Laguna	12	San Juan la Laguna	9	Septiembre	2023-09-22T00:00:00	2024-11-08T01:00:00	8	Radiación solar	0
78849	7	Sololá	717	San Juan la Laguna	12	San Juan la Laguna	9	Septiembre	2023-09-22T00:00:00	2024-11-08T02:00:00	2	Temperatura media	18
78850	7	Sololá	717	San Juan la Laguna	12	San Juan la Laguna	9	Septiembre	2023-09-22T00:00:00	2024-11-08T02:00:00	4	Temperatura máxima	18.3
78851	7	Sololá	717	San Juan la Laguna	12	San Juan la Laguna	9	Septiembre	2023-09-22T00:00:00	2024-11-08T02:00:00	3	Temperatura mínima	17.7
78852	7	Sololá	717	San Juan la Laguna	12	San Juan la Laguna	9	Septiembre	2023-09-22T00:00:00	2024-11-08T02:00:00	5	Humedad	91
78853	7	Sololá	717	San Juan la Laguna	12	San Juan la Laguna	9	Septiembre	2023-09-22T00:00:00	2024-11-08T02:00:00	6	Velocidad del viento	3.2
78854	7	Sololá	717	San Juan la Laguna	12	San Juan la Laguna	9	Septiembre	2023-09-22T00:00:00	2024-11-08T02:00:00	7	Dirección del viento	3.22
78855	7	Sololá	717	San Juan la Laguna	12	San Juan la Laguna	9	Septiembre	2023-09-22T00:00:00	2024-11-08T02:00:00	1	Precipitación	0
78856	7	Sololá	717	San Juan la Laguna	12	San Juan la Laguna	9	Septiembre	2023-09-22T00:00:00	2024-11-08T02:00:00	8	Radiación solar	0
78857	7	Sololá	717	San Juan la Laguna	12	San Juan la Laguna	9	Septiembre	2023-09-22T00:00:00	2024-11-08T03:00:00	2	Temperatura media	17.7
78858	7	Sololá	717	San Juan la Laguna	12	San Juan la Laguna	9	Septiembre	2023-09-22T00:00:00	2024-11-08T03:00:00	4	Temperatura máxima	18.1
78859	7	Sololá	717	San Juan la Laguna	12	San Juan la Laguna	9	Septiembre	2023-09-22T00:00:00	2024-11-08T03:00:00	3	Temperatura mínima	17.6
78860	7	Sololá	717	San Juan la Laguna	12	San Juan la Laguna	9	Septiembre	2023-09-22T00:00:00	2024-11-08T03:00:00	5	Humedad	91
78861	7	Sololá	717	San Juan la Laguna	12	San Juan la Laguna	9	Septiembre	2023-09-22T00:00:00	2024-11-08T03:00:00	6	Velocidad del viento	3.2
78862	7	Sololá	717	San Juan la Laguna	12	San Juan la Laguna	9	Septiembre	2023-09-22T00:00:00	2024-11-08T03:00:00	7	Dirección del viento	3.22
78863	7	Sololá	717	San Juan la Laguna	12	San Juan la Laguna	9	Septiembre	2023-09-22T00:00:00	2024-11-08T03:00:00	1	Precipitación	0
78864	7	Sololá	717	San Juan la Laguna	12	San Juan la Laguna	9	Septiembre	2023-09-22T00:00:00	2024-11-08T03:00:00	8	Radiación solar	0
78865	7	Sololá	717	San Juan la Laguna	12	San Juan la Laguna	9	Septiembre	2023-09-22T00:00:00	2024-11-08T04:00:00	2	Temperatura media	16.9
78866	7	Sololá	717	San Juan la Laguna	12	San Juan la Laguna	9	Septiembre	2023-09-22T00:00:00	2024-11-08T04:00:00	4	Temperatura máxima	17.7
78867	7	Sololá	717	San Juan la Laguna	12	San Juan la Laguna	9	Septiembre	2023-09-22T00:00:00	2024-11-08T04:00:00	3	Temperatura mínima	16.9
78868	7	Sololá	717	San Juan la Laguna	12	San Juan la Laguna	9	Septiembre	2023-09-22T00:00:00	2024-11-08T04:00:00	5	Humedad	91
78869	7	Sololá	717	San Juan la Laguna	12	San Juan la Laguna	9	Septiembre	2023-09-22T00:00:00	2024-11-08T04:00:00	6	Velocidad del viento	1.6
78870	7	Sololá	717	San Juan la Laguna	12	San Juan la Laguna	9	Septiembre	2023-09-22T00:00:00	2024-11-08T04:00:00	7	Dirección del viento	1.61
78871	7	Sololá	717	San Juan la Laguna	12	San Juan la Laguna	9	Septiembre	2023-09-22T00:00:00	2024-11-08T04:00:00	1	Precipitación	0
78872	7	Sololá	717	San Juan la Laguna	12	San Juan la Laguna	9	Septiembre	2023-09-22T00:00:00	2024-11-08T04:00:00	8	Radiación solar	0
78873	7	Sololá	717	San Juan la Laguna	12	San Juan la Laguna	9	Septiembre	2023-09-22T00:00:00	2024-11-08T05:00:00	2	Temperatura media	16.8
78874	7	Sololá	717	San Juan la Laguna	12	San Juan la Laguna	9	Septiembre	2023-09-22T00:00:00	2024-11-08T05:00:00	4	Temperatura máxima	16.9
78875	7	Sololá	717	San Juan la Laguna	12	San Juan la Laguna	9	Septiembre	2023-09-22T00:00:00	2024-11-08T05:00:00	3	Temperatura mínima	16.7
78876	7	Sololá	717	San Juan la Laguna	12	San Juan la Laguna	9	Septiembre	2023-09-22T00:00:00	2024-11-08T05:00:00	5	Humedad	90
78877	7	Sololá	717	San Juan la Laguna	12	San Juan la Laguna	9	Septiembre	2023-09-22T00:00:00	2024-11-08T05:00:00	6	Velocidad del viento	3.2
78878	7	Sololá	717	San Juan la Laguna	12	San Juan la Laguna	9	Septiembre	2023-09-22T00:00:00	2024-11-08T05:00:00	7	Dirección del viento	3.22
78879	7	Sololá	717	San Juan la Laguna	12	San Juan la Laguna	9	Septiembre	2023-09-22T00:00:00	2024-11-08T05:00:00	1	Precipitación	0
78880	7	Sololá	717	San Juan la Laguna	12	San Juan la Laguna	9	Septiembre	2023-09-22T00:00:00	2024-11-08T05:00:00	8	Radiación solar	0
78881	7	Sololá	717	San Juan la Laguna	12	San Juan la Laguna	9	Septiembre	2023-09-22T00:00:00	2024-11-08T06:00:00	2	Temperatura media	16.6
78882	7	Sololá	717	San Juan la Laguna	12	San Juan la Laguna	9	Septiembre	2023-09-22T00:00:00	2024-11-08T06:00:00	4	Temperatura máxima	16.9
78883	7	Sololá	717	San Juan la Laguna	12	San Juan la Laguna	9	Septiembre	2023-09-22T00:00:00	2024-11-08T06:00:00	3	Temperatura mínima	16.4
78884	7	Sololá	717	San Juan la Laguna	12	San Juan la Laguna	9	Septiembre	2023-09-22T00:00:00	2024-11-08T06:00:00	5	Humedad	90
78885	7	Sololá	717	San Juan la Laguna	12	San Juan la Laguna	9	Septiembre	2023-09-22T00:00:00	2024-11-08T06:00:00	6	Velocidad del viento	4.8
78886	7	Sololá	717	San Juan la Laguna	12	San Juan la Laguna	9	Septiembre	2023-09-22T00:00:00	2024-11-08T06:00:00	7	Dirección del viento	4.83
78887	7	Sololá	717	San Juan la Laguna	12	San Juan la Laguna	9	Septiembre	2023-09-22T00:00:00	2024-11-08T06:00:00	1	Precipitación	0
78888	7	Sololá	717	San Juan la Laguna	12	San Juan la Laguna	9	Septiembre	2023-09-22T00:00:00	2024-11-08T06:00:00	8	Radiación solar	0
78889	7	Sololá	717	San Juan la Laguna	12	San Juan la Laguna	9	Septiembre	2023-09-22T00:00:00	2024-11-08T07:00:00	2	Temperatura media	18.2
78890	7	Sololá	717	San Juan la Laguna	12	San Juan la Laguna	9	Septiembre	2023-09-22T00:00:00	2024-11-08T07:00:00	4	Temperatura máxima	18.2
78891	7	Sololá	717	San Juan la Laguna	12	San Juan la Laguna	9	Septiembre	2023-09-22T00:00:00	2024-11-08T07:00:00	3	Temperatura mínima	16.6
78892	7	Sololá	717	San Juan la Laguna	12	San Juan la Laguna	9	Septiembre	2023-09-22T00:00:00	2024-11-08T07:00:00	5	Humedad	89
78893	7	Sololá	717	San Juan la Laguna	12	San Juan la Laguna	9	Septiembre	2023-09-22T00:00:00	2024-11-08T07:00:00	6	Velocidad del viento	3.2
78894	7	Sololá	717	San Juan la Laguna	12	San Juan la Laguna	9	Septiembre	2023-09-22T00:00:00	2024-11-08T07:00:00	7	Dirección del viento	3.22
78895	7	Sololá	717	San Juan la Laguna	12	San Juan la Laguna	9	Septiembre	2023-09-22T00:00:00	2024-11-08T07:00:00	1	Precipitación	0
78896	7	Sololá	717	San Juan la Laguna	12	San Juan la Laguna	9	Septiembre	2023-09-22T00:00:00	2024-11-08T07:00:00	8	Radiación solar	68
78897	7	Sololá	717	San Juan la Laguna	12	San Juan la Laguna	9	Septiembre	2023-09-22T00:00:00	2024-11-08T08:00:00	2	Temperatura media	21.2
78898	7	Sololá	717	San Juan la Laguna	12	San Juan la Laguna	9	Septiembre	2023-09-22T00:00:00	2024-11-08T08:00:00	4	Temperatura máxima	21.2
78899	7	Sololá	717	San Juan la Laguna	12	San Juan la Laguna	9	Septiembre	2023-09-22T00:00:00	2024-11-08T08:00:00	3	Temperatura mínima	18.2
78900	7	Sololá	717	San Juan la Laguna	12	San Juan la Laguna	9	Septiembre	2023-09-22T00:00:00	2024-11-08T08:00:00	5	Humedad	78
78901	7	Sololá	717	San Juan la Laguna	12	San Juan la Laguna	9	Septiembre	2023-09-22T00:00:00	2024-11-08T08:00:00	6	Velocidad del viento	3.2
78902	7	Sololá	717	San Juan la Laguna	12	San Juan la Laguna	9	Septiembre	2023-09-22T00:00:00	2024-11-08T08:00:00	7	Dirección del viento	3.22
78903	7	Sololá	717	San Juan la Laguna	12	San Juan la Laguna	9	Septiembre	2023-09-22T00:00:00	2024-11-08T08:00:00	1	Precipitación	0
78904	7	Sololá	717	San Juan la Laguna	12	San Juan la Laguna	9	Septiembre	2023-09-22T00:00:00	2024-11-08T08:00:00	8	Radiación solar	273
78905	7	Sololá	717	San Juan la Laguna	12	San Juan la Laguna	9	Septiembre	2023-09-22T00:00:00	2024-11-08T09:00:00	2	Temperatura media	22.6
78906	7	Sololá	717	San Juan la Laguna	12	San Juan la Laguna	9	Septiembre	2023-09-22T00:00:00	2024-11-08T09:00:00	4	Temperatura máxima	23.3
78907	7	Sololá	717	San Juan la Laguna	12	San Juan la Laguna	9	Septiembre	2023-09-22T00:00:00	2024-11-08T09:00:00	3	Temperatura mínima	21.3
78908	7	Sololá	717	San Juan la Laguna	12	San Juan la Laguna	9	Septiembre	2023-09-22T00:00:00	2024-11-08T09:00:00	5	Humedad	68
78909	7	Sololá	717	San Juan la Laguna	12	San Juan la Laguna	9	Septiembre	2023-09-22T00:00:00	2024-11-08T09:00:00	6	Velocidad del viento	4.8
78910	7	Sololá	717	San Juan la Laguna	12	San Juan la Laguna	9	Septiembre	2023-09-22T00:00:00	2024-11-08T09:00:00	7	Dirección del viento	4.83
78911	7	Sololá	717	San Juan la Laguna	12	San Juan la Laguna	9	Septiembre	2023-09-22T00:00:00	2024-11-08T09:00:00	1	Precipitación	0
78912	7	Sololá	717	San Juan la Laguna	12	San Juan la Laguna	9	Septiembre	2023-09-22T00:00:00	2024-11-08T09:00:00	8	Radiación solar	304
78913	7	Sololá	717	San Juan la Laguna	12	San Juan la Laguna	9	Septiembre	2023-09-22T00:00:00	2024-11-08T10:00:00	2	Temperatura media	23.7
78914	7	Sololá	717	San Juan la Laguna	12	San Juan la Laguna	9	Septiembre	2023-09-22T00:00:00	2024-11-08T10:00:00	4	Temperatura máxima	23.7
78915	7	Sololá	717	San Juan la Laguna	12	San Juan la Laguna	9	Septiembre	2023-09-22T00:00:00	2024-11-08T10:00:00	3	Temperatura mínima	22.4
78916	7	Sololá	717	San Juan la Laguna	12	San Juan la Laguna	9	Septiembre	2023-09-22T00:00:00	2024-11-08T10:00:00	5	Humedad	61
78917	7	Sololá	717	San Juan la Laguna	12	San Juan la Laguna	9	Septiembre	2023-09-22T00:00:00	2024-11-08T10:00:00	6	Velocidad del viento	6.4
78918	7	Sololá	717	San Juan la Laguna	12	San Juan la Laguna	9	Septiembre	2023-09-22T00:00:00	2024-11-08T10:00:00	7	Dirección del viento	6.44
78919	7	Sololá	717	San Juan la Laguna	12	San Juan la Laguna	9	Septiembre	2023-09-22T00:00:00	2024-11-08T10:00:00	1	Precipitación	0
78920	7	Sololá	717	San Juan la Laguna	12	San Juan la Laguna	9	Septiembre	2023-09-22T00:00:00	2024-11-08T10:00:00	8	Radiación solar	248
78921	7	Sololá	717	San Juan la Laguna	12	San Juan la Laguna	9	Septiembre	2023-09-22T00:00:00	2024-11-08T11:00:00	2	Temperatura media	26.3
78922	7	Sololá	717	San Juan la Laguna	12	San Juan la Laguna	9	Septiembre	2023-09-22T00:00:00	2024-11-08T11:00:00	4	Temperatura máxima	26.3
78923	7	Sololá	717	San Juan la Laguna	12	San Juan la Laguna	9	Septiembre	2023-09-22T00:00:00	2024-11-08T11:00:00	3	Temperatura mínima	23.7
78924	7	Sololá	717	San Juan la Laguna	12	San Juan la Laguna	9	Septiembre	2023-09-22T00:00:00	2024-11-08T11:00:00	5	Humedad	52
78925	7	Sololá	717	San Juan la Laguna	12	San Juan la Laguna	9	Septiembre	2023-09-22T00:00:00	2024-11-08T11:00:00	6	Velocidad del viento	6.4
78926	7	Sololá	717	San Juan la Laguna	12	San Juan la Laguna	9	Septiembre	2023-09-22T00:00:00	2024-11-08T11:00:00	7	Dirección del viento	6.44
78927	7	Sololá	717	San Juan la Laguna	12	San Juan la Laguna	9	Septiembre	2023-09-22T00:00:00	2024-11-08T11:00:00	1	Precipitación	0
78928	7	Sololá	717	San Juan la Laguna	12	San Juan la Laguna	9	Septiembre	2023-09-22T00:00:00	2024-11-08T11:00:00	8	Radiación solar	904
78929	7	Sololá	717	San Juan la Laguna	12	San Juan la Laguna	9	Septiembre	2023-09-22T00:00:00	2024-11-08T12:00:00	2	Temperatura media	25.4
78930	7	Sololá	717	San Juan la Laguna	12	San Juan la Laguna	9	Septiembre	2023-09-22T00:00:00	2024-11-08T12:00:00	4	Temperatura máxima	26.4
78931	7	Sololá	717	San Juan la Laguna	12	San Juan la Laguna	9	Septiembre	2023-09-22T00:00:00	2024-11-08T12:00:00	3	Temperatura mínima	25.4
78932	7	Sololá	717	San Juan la Laguna	12	San Juan la Laguna	9	Septiembre	2023-09-22T00:00:00	2024-11-08T12:00:00	5	Humedad	54
78933	7	Sololá	717	San Juan la Laguna	12	San Juan la Laguna	9	Septiembre	2023-09-22T00:00:00	2024-11-08T12:00:00	6	Velocidad del viento	8
78934	7	Sololá	717	San Juan la Laguna	12	San Juan la Laguna	9	Septiembre	2023-09-22T00:00:00	2024-11-08T12:00:00	7	Dirección del viento	8.05
78935	7	Sololá	717	San Juan la Laguna	12	San Juan la Laguna	9	Septiembre	2023-09-22T00:00:00	2024-11-08T12:00:00	1	Precipitación	0
78936	7	Sololá	717	San Juan la Laguna	12	San Juan la Laguna	9	Septiembre	2023-09-22T00:00:00	2024-11-08T12:00:00	8	Radiación solar	947
78937	7	Sololá	717	San Juan la Laguna	12	San Juan la Laguna	9	Septiembre	2023-09-22T00:00:00	2024-11-08T13:00:00	2	Temperatura media	24.8
78938	7	Sololá	717	San Juan la Laguna	12	San Juan la Laguna	9	Septiembre	2023-09-22T00:00:00	2024-11-08T13:00:00	4	Temperatura máxima	25.4
78939	7	Sololá	717	San Juan la Laguna	12	San Juan la Laguna	9	Septiembre	2023-09-22T00:00:00	2024-11-08T13:00:00	3	Temperatura mínima	24.8
78940	7	Sololá	717	San Juan la Laguna	12	San Juan la Laguna	9	Septiembre	2023-09-22T00:00:00	2024-11-08T13:00:00	5	Humedad	63
78941	7	Sololá	717	San Juan la Laguna	12	San Juan la Laguna	9	Septiembre	2023-09-22T00:00:00	2024-11-08T13:00:00	6	Velocidad del viento	6.4
78942	7	Sololá	717	San Juan la Laguna	12	San Juan la Laguna	9	Septiembre	2023-09-22T00:00:00	2024-11-08T13:00:00	7	Dirección del viento	6.44
78943	7	Sololá	717	San Juan la Laguna	12	San Juan la Laguna	9	Septiembre	2023-09-22T00:00:00	2024-11-08T13:00:00	1	Precipitación	0
78944	7	Sololá	717	San Juan la Laguna	12	San Juan la Laguna	9	Septiembre	2023-09-22T00:00:00	2024-11-08T13:00:00	8	Radiación solar	592
78945	7	Sololá	717	San Juan la Laguna	12	San Juan la Laguna	9	Septiembre	2023-09-22T00:00:00	2024-11-08T14:00:00	2	Temperatura media	25.2
78946	7	Sololá	717	San Juan la Laguna	12	San Juan la Laguna	9	Septiembre	2023-09-22T00:00:00	2024-11-08T14:00:00	4	Temperatura máxima	25.2
78947	7	Sololá	717	San Juan la Laguna	12	San Juan la Laguna	9	Septiembre	2023-09-22T00:00:00	2024-11-08T14:00:00	3	Temperatura mínima	24.1
78948	7	Sololá	717	San Juan la Laguna	12	San Juan la Laguna	9	Septiembre	2023-09-22T00:00:00	2024-11-08T14:00:00	5	Humedad	65
78949	7	Sololá	717	San Juan la Laguna	12	San Juan la Laguna	9	Septiembre	2023-09-22T00:00:00	2024-11-08T14:00:00	6	Velocidad del viento	4.8
78950	7	Sololá	717	San Juan la Laguna	12	San Juan la Laguna	9	Septiembre	2023-09-22T00:00:00	2024-11-08T14:00:00	7	Dirección del viento	4.83
78951	7	Sololá	717	San Juan la Laguna	12	San Juan la Laguna	9	Septiembre	2023-09-22T00:00:00	2024-11-08T14:00:00	1	Precipitación	0
78952	7	Sololá	717	San Juan la Laguna	12	San Juan la Laguna	9	Septiembre	2023-09-22T00:00:00	2024-11-08T14:00:00	8	Radiación solar	555
78953	7	Sololá	717	San Juan la Laguna	12	San Juan la Laguna	9	Septiembre	2023-09-22T00:00:00	2024-11-08T15:00:00	2	Temperatura media	24.8
78954	7	Sololá	717	San Juan la Laguna	12	San Juan la Laguna	9	Septiembre	2023-09-22T00:00:00	2024-11-08T15:00:00	4	Temperatura máxima	25.6
78955	7	Sololá	717	San Juan la Laguna	12	San Juan la Laguna	9	Septiembre	2023-09-22T00:00:00	2024-11-08T15:00:00	3	Temperatura mínima	24.5
78956	7	Sololá	717	San Juan la Laguna	12	San Juan la Laguna	9	Septiembre	2023-09-22T00:00:00	2024-11-08T15:00:00	5	Humedad	69
78957	7	Sololá	717	San Juan la Laguna	12	San Juan la Laguna	9	Septiembre	2023-09-22T00:00:00	2024-11-08T15:00:00	6	Velocidad del viento	6.4
78958	7	Sololá	717	San Juan la Laguna	12	San Juan la Laguna	9	Septiembre	2023-09-22T00:00:00	2024-11-08T15:00:00	7	Dirección del viento	6.44
78959	7	Sololá	717	San Juan la Laguna	12	San Juan la Laguna	9	Septiembre	2023-09-22T00:00:00	2024-11-08T15:00:00	1	Precipitación	0
78960	7	Sololá	717	San Juan la Laguna	12	San Juan la Laguna	9	Septiembre	2023-09-22T00:00:00	2024-11-08T15:00:00	8	Radiación solar	708
78961	7	Sololá	717	San Juan la Laguna	12	San Juan la Laguna	9	Septiembre	2023-09-22T00:00:00	2024-11-08T16:00:00	2	Temperatura media	23.4
78962	7	Sololá	717	San Juan la Laguna	12	San Juan la Laguna	9	Septiembre	2023-09-22T00:00:00	2024-11-08T16:00:00	4	Temperatura máxima	24.8
78963	7	Sololá	717	San Juan la Laguna	12	San Juan la Laguna	9	Septiembre	2023-09-22T00:00:00	2024-11-08T16:00:00	3	Temperatura mínima	23.3
78964	7	Sololá	717	San Juan la Laguna	12	San Juan la Laguna	9	Septiembre	2023-09-22T00:00:00	2024-11-08T16:00:00	5	Humedad	74
78965	7	Sololá	717	San Juan la Laguna	12	San Juan la Laguna	9	Septiembre	2023-09-22T00:00:00	2024-11-08T16:00:00	6	Velocidad del viento	11.3
78966	7	Sololá	717	San Juan la Laguna	12	San Juan la Laguna	9	Septiembre	2023-09-22T00:00:00	2024-11-08T16:00:00	7	Dirección del viento	11.27
78967	7	Sololá	717	San Juan la Laguna	12	San Juan la Laguna	9	Septiembre	2023-09-22T00:00:00	2024-11-08T16:00:00	1	Precipitación	0
78968	7	Sololá	717	San Juan la Laguna	12	San Juan la Laguna	9	Septiembre	2023-09-22T00:00:00	2024-11-08T16:00:00	8	Radiación solar	526
78969	7	Sololá	717	San Juan la Laguna	12	San Juan la Laguna	9	Septiembre	2023-09-22T00:00:00	2024-11-08T17:00:00	2	Temperatura media	21.7
78970	7	Sololá	717	San Juan la Laguna	12	San Juan la Laguna	9	Septiembre	2023-09-22T00:00:00	2024-11-08T17:00:00	4	Temperatura máxima	24
78971	7	Sololá	717	San Juan la Laguna	12	San Juan la Laguna	9	Septiembre	2023-09-22T00:00:00	2024-11-08T17:00:00	3	Temperatura mínima	21.7
78972	7	Sololá	717	San Juan la Laguna	12	San Juan la Laguna	9	Septiembre	2023-09-22T00:00:00	2024-11-08T17:00:00	5	Humedad	81
78973	7	Sololá	717	San Juan la Laguna	12	San Juan la Laguna	9	Septiembre	2023-09-22T00:00:00	2024-11-08T17:00:00	6	Velocidad del viento	6.4
78974	7	Sololá	717	San Juan la Laguna	12	San Juan la Laguna	9	Septiembre	2023-09-22T00:00:00	2024-11-08T17:00:00	7	Dirección del viento	6.44
78975	7	Sololá	717	San Juan la Laguna	12	San Juan la Laguna	9	Septiembre	2023-09-22T00:00:00	2024-11-08T17:00:00	1	Precipitación	0
78976	7	Sololá	717	San Juan la Laguna	12	San Juan la Laguna	9	Septiembre	2023-09-22T00:00:00	2024-11-08T17:00:00	8	Radiación solar	240
78977	7	Sololá	717	San Juan la Laguna	12	San Juan la Laguna	9	Septiembre	2023-09-22T00:00:00	2024-11-08T18:00:00	2	Temperatura media	21
78978	7	Sololá	717	San Juan la Laguna	12	San Juan la Laguna	9	Septiembre	2023-09-22T00:00:00	2024-11-08T18:00:00	4	Temperatura máxima	21.7
78979	7	Sololá	717	San Juan la Laguna	12	San Juan la Laguna	9	Septiembre	2023-09-22T00:00:00	2024-11-08T18:00:00	3	Temperatura mínima	21
78980	7	Sololá	717	San Juan la Laguna	12	San Juan la Laguna	9	Septiembre	2023-09-22T00:00:00	2024-11-08T18:00:00	5	Humedad	84
78981	7	Sololá	717	San Juan la Laguna	12	San Juan la Laguna	9	Septiembre	2023-09-22T00:00:00	2024-11-08T18:00:00	6	Velocidad del viento	4.8
78982	7	Sololá	717	San Juan la Laguna	12	San Juan la Laguna	9	Septiembre	2023-09-22T00:00:00	2024-11-08T18:00:00	7	Dirección del viento	4.83
78983	7	Sololá	717	San Juan la Laguna	12	San Juan la Laguna	9	Septiembre	2023-09-22T00:00:00	2024-11-08T18:00:00	1	Precipitación	0
78984	7	Sololá	717	San Juan la Laguna	12	San Juan la Laguna	9	Septiembre	2023-09-22T00:00:00	2024-11-08T18:00:00	8	Radiación solar	47
78985	7	Sololá	717	San Juan la Laguna	12	San Juan la Laguna	9	Septiembre	2023-09-22T00:00:00	2024-11-08T19:00:00	2	Temperatura media	20.3
78986	7	Sololá	717	San Juan la Laguna	12	San Juan la Laguna	9	Septiembre	2023-09-22T00:00:00	2024-11-08T19:00:00	4	Temperatura máxima	21
78987	7	Sololá	717	San Juan la Laguna	12	San Juan la Laguna	9	Septiembre	2023-09-22T00:00:00	2024-11-08T19:00:00	3	Temperatura mínima	20.3
78988	7	Sololá	717	San Juan la Laguna	12	San Juan la Laguna	9	Septiembre	2023-09-22T00:00:00	2024-11-08T19:00:00	5	Humedad	87
78989	7	Sololá	717	San Juan la Laguna	12	San Juan la Laguna	9	Septiembre	2023-09-22T00:00:00	2024-11-08T19:00:00	6	Velocidad del viento	1.6
78990	7	Sololá	717	San Juan la Laguna	12	San Juan la Laguna	9	Septiembre	2023-09-22T00:00:00	2024-11-08T19:00:00	7	Dirección del viento	1.61
78991	7	Sololá	717	San Juan la Laguna	12	San Juan la Laguna	9	Septiembre	2023-09-22T00:00:00	2024-11-08T19:00:00	1	Precipitación	0
78992	7	Sololá	717	San Juan la Laguna	12	San Juan la Laguna	9	Septiembre	2023-09-22T00:00:00	2024-11-08T19:00:00	8	Radiación solar	0
78993	7	Sololá	717	San Juan la Laguna	12	San Juan la Laguna	9	Septiembre	2023-09-22T00:00:00	2024-11-08T20:00:00	2	Temperatura media	19.7
78994	7	Sololá	717	San Juan la Laguna	12	San Juan la Laguna	9	Septiembre	2023-09-22T00:00:00	2024-11-08T20:00:00	4	Temperatura máxima	20.3
78995	7	Sololá	717	San Juan la Laguna	12	San Juan la Laguna	9	Septiembre	2023-09-22T00:00:00	2024-11-08T20:00:00	3	Temperatura mínima	19.7
78996	7	Sololá	717	San Juan la Laguna	12	San Juan la Laguna	9	Septiembre	2023-09-22T00:00:00	2024-11-08T20:00:00	5	Humedad	90
78997	7	Sololá	717	San Juan la Laguna	12	San Juan la Laguna	9	Septiembre	2023-09-22T00:00:00	2024-11-08T20:00:00	6	Velocidad del viento	3.2
78998	7	Sololá	717	San Juan la Laguna	12	San Juan la Laguna	9	Septiembre	2023-09-22T00:00:00	2024-11-08T20:00:00	7	Dirección del viento	3.22
78999	7	Sololá	717	San Juan la Laguna	12	San Juan la Laguna	9	Septiembre	2023-09-22T00:00:00	2024-11-08T20:00:00	1	Precipitación	1
79000	7	Sololá	717	San Juan la Laguna	12	San Juan la Laguna	9	Septiembre	2023-09-22T00:00:00	2024-11-08T20:00:00	8	Radiación solar	0
79001	7	Sololá	717	San Juan la Laguna	12	San Juan la Laguna	9	Septiembre	2023-09-22T00:00:00	2024-11-08T21:00:00	2	Temperatura media	19.6
79002	7	Sololá	717	San Juan la Laguna	12	San Juan la Laguna	9	Septiembre	2023-09-22T00:00:00	2024-11-08T21:00:00	4	Temperatura máxima	20.2
79003	7	Sololá	717	San Juan la Laguna	12	San Juan la Laguna	9	Septiembre	2023-09-22T00:00:00	2024-11-08T21:00:00	3	Temperatura mínima	19.6
79004	7	Sololá	717	San Juan la Laguna	12	San Juan la Laguna	9	Septiembre	2023-09-22T00:00:00	2024-11-08T21:00:00	5	Humedad	87
79005	7	Sololá	717	San Juan la Laguna	12	San Juan la Laguna	9	Septiembre	2023-09-22T00:00:00	2024-11-08T21:00:00	6	Velocidad del viento	1.6
79006	7	Sololá	717	San Juan la Laguna	12	San Juan la Laguna	9	Septiembre	2023-09-22T00:00:00	2024-11-08T21:00:00	7	Dirección del viento	1.61
79007	7	Sololá	717	San Juan la Laguna	12	San Juan la Laguna	9	Septiembre	2023-09-22T00:00:00	2024-11-08T21:00:00	1	Precipitación	0.2
79008	7	Sololá	717	San Juan la Laguna	12	San Juan la Laguna	9	Septiembre	2023-09-22T00:00:00	2024-11-08T21:00:00	8	Radiación solar	0
79009	7	Sololá	717	San Juan la Laguna	12	San Juan la Laguna	9	Septiembre	2023-09-22T00:00:00	2024-11-08T22:00:00	2	Temperatura media	18.6
79010	7	Sololá	717	San Juan la Laguna	12	San Juan la Laguna	9	Septiembre	2023-09-22T00:00:00	2024-11-08T22:00:00	4	Temperatura máxima	19.6
79011	7	Sololá	717	San Juan la Laguna	12	San Juan la Laguna	9	Septiembre	2023-09-22T00:00:00	2024-11-08T22:00:00	3	Temperatura mínima	18.5
79012	7	Sololá	717	San Juan la Laguna	12	San Juan la Laguna	9	Septiembre	2023-09-22T00:00:00	2024-11-08T22:00:00	5	Humedad	90
79013	7	Sololá	717	San Juan la Laguna	12	San Juan la Laguna	9	Septiembre	2023-09-22T00:00:00	2024-11-08T22:00:00	6	Velocidad del viento	1.6
79014	7	Sololá	717	San Juan la Laguna	12	San Juan la Laguna	9	Septiembre	2023-09-22T00:00:00	2024-11-08T22:00:00	7	Dirección del viento	1.61
79015	7	Sololá	717	San Juan la Laguna	12	San Juan la Laguna	9	Septiembre	2023-09-22T00:00:00	2024-11-08T22:00:00	1	Precipitación	0.2
79016	7	Sololá	717	San Juan la Laguna	12	San Juan la Laguna	9	Septiembre	2023-09-22T00:00:00	2024-11-08T22:00:00	8	Radiación solar	0
79017	7	Sololá	717	San Juan la Laguna	12	San Juan la Laguna	9	Septiembre	2023-09-22T00:00:00	2024-11-08T23:00:00	2	Temperatura media	17.9
79018	7	Sololá	717	San Juan la Laguna	12	San Juan la Laguna	9	Septiembre	2023-09-22T00:00:00	2024-11-08T23:00:00	4	Temperatura máxima	18.6
79019	7	Sololá	717	San Juan la Laguna	12	San Juan la Laguna	9	Septiembre	2023-09-22T00:00:00	2024-11-08T23:00:00	3	Temperatura mínima	17.8
79020	7	Sololá	717	San Juan la Laguna	12	San Juan la Laguna	9	Septiembre	2023-09-22T00:00:00	2024-11-08T23:00:00	5	Humedad	88
79021	7	Sololá	717	San Juan la Laguna	12	San Juan la Laguna	9	Septiembre	2023-09-22T00:00:00	2024-11-08T23:00:00	6	Velocidad del viento	4.8
79022	7	Sololá	717	San Juan la Laguna	12	San Juan la Laguna	9	Septiembre	2023-09-22T00:00:00	2024-11-08T23:00:00	7	Dirección del viento	4.83
79023	7	Sololá	717	San Juan la Laguna	12	San Juan la Laguna	9	Septiembre	2023-09-22T00:00:00	2024-11-08T23:00:00	1	Precipitación	0
79024	7	Sololá	717	San Juan la Laguna	12	San Juan la Laguna	9	Septiembre	2023-09-22T00:00:00	2024-11-08T23:00:00	8	Radiación solar	0
79025	7	Sololá	717	San Juan la Laguna	12	San Juan la Laguna	9	Septiembre	2023-09-23T00:00:00	2024-11-08T00:00:00	2	Temperatura media	17.3
79026	7	Sololá	717	San Juan la Laguna	12	San Juan la Laguna	9	Septiembre	2023-09-23T00:00:00	2024-11-08T00:00:00	4	Temperatura máxima	17.9
79027	7	Sololá	717	San Juan la Laguna	12	San Juan la Laguna	9	Septiembre	2023-09-23T00:00:00	2024-11-08T00:00:00	3	Temperatura mínima	17.3
79028	7	Sololá	717	San Juan la Laguna	12	San Juan la Laguna	9	Septiembre	2023-09-23T00:00:00	2024-11-08T00:00:00	5	Humedad	88
79029	7	Sololá	717	San Juan la Laguna	12	San Juan la Laguna	9	Septiembre	2023-09-23T00:00:00	2024-11-08T00:00:00	6	Velocidad del viento	4.8
79030	7	Sololá	717	San Juan la Laguna	12	San Juan la Laguna	9	Septiembre	2023-09-23T00:00:00	2024-11-08T00:00:00	7	Dirección del viento	4.83
79031	7	Sololá	717	San Juan la Laguna	12	San Juan la Laguna	9	Septiembre	2023-09-23T00:00:00	2024-11-08T00:00:00	1	Precipitación	0
79032	7	Sololá	717	San Juan la Laguna	12	San Juan la Laguna	9	Septiembre	2023-09-23T00:00:00	2024-11-08T00:00:00	8	Radiación solar	0
79033	7	Sololá	717	San Juan la Laguna	12	San Juan la Laguna	9	Septiembre	2023-09-23T00:00:00	2024-11-08T01:00:00	2	Temperatura media	16.6
79034	7	Sololá	717	San Juan la Laguna	12	San Juan la Laguna	9	Septiembre	2023-09-23T00:00:00	2024-11-08T01:00:00	4	Temperatura máxima	17.3
79035	7	Sololá	717	San Juan la Laguna	12	San Juan la Laguna	9	Septiembre	2023-09-23T00:00:00	2024-11-08T01:00:00	3	Temperatura mínima	16.6
79036	7	Sololá	717	San Juan la Laguna	12	San Juan la Laguna	9	Septiembre	2023-09-23T00:00:00	2024-11-08T01:00:00	5	Humedad	87
79037	7	Sololá	717	San Juan la Laguna	12	San Juan la Laguna	9	Septiembre	2023-09-23T00:00:00	2024-11-08T01:00:00	6	Velocidad del viento	3.2
79038	7	Sololá	717	San Juan la Laguna	12	San Juan la Laguna	9	Septiembre	2023-09-23T00:00:00	2024-11-08T01:00:00	7	Dirección del viento	3.22
79039	7	Sololá	717	San Juan la Laguna	12	San Juan la Laguna	9	Septiembre	2023-09-23T00:00:00	2024-11-08T01:00:00	1	Precipitación	0
79040	7	Sololá	717	San Juan la Laguna	12	San Juan la Laguna	9	Septiembre	2023-09-23T00:00:00	2024-11-08T01:00:00	8	Radiación solar	0
79041	7	Sololá	717	San Juan la Laguna	12	San Juan la Laguna	9	Septiembre	2023-09-23T00:00:00	2024-11-08T02:00:00	2	Temperatura media	16.3
79042	7	Sololá	717	San Juan la Laguna	12	San Juan la Laguna	9	Septiembre	2023-09-23T00:00:00	2024-11-08T02:00:00	4	Temperatura máxima	16.6
79043	7	Sololá	717	San Juan la Laguna	12	San Juan la Laguna	9	Septiembre	2023-09-23T00:00:00	2024-11-08T02:00:00	3	Temperatura mínima	16.1
79044	7	Sololá	717	San Juan la Laguna	12	San Juan la Laguna	9	Septiembre	2023-09-23T00:00:00	2024-11-08T02:00:00	5	Humedad	86
79045	7	Sololá	717	San Juan la Laguna	12	San Juan la Laguna	9	Septiembre	2023-09-23T00:00:00	2024-11-08T02:00:00	6	Velocidad del viento	4.8
79046	7	Sololá	717	San Juan la Laguna	12	San Juan la Laguna	9	Septiembre	2023-09-23T00:00:00	2024-11-08T02:00:00	7	Dirección del viento	4.83
79047	7	Sololá	717	San Juan la Laguna	12	San Juan la Laguna	9	Septiembre	2023-09-23T00:00:00	2024-11-08T02:00:00	1	Precipitación	0
79048	7	Sololá	717	San Juan la Laguna	12	San Juan la Laguna	9	Septiembre	2023-09-23T00:00:00	2024-11-08T02:00:00	8	Radiación solar	0
79049	7	Sololá	717	San Juan la Laguna	12	San Juan la Laguna	9	Septiembre	2023-09-23T00:00:00	2024-11-08T03:00:00	2	Temperatura media	15.7
79050	7	Sololá	717	San Juan la Laguna	12	San Juan la Laguna	9	Septiembre	2023-09-23T00:00:00	2024-11-08T03:00:00	4	Temperatura máxima	16.3
79051	7	Sololá	717	San Juan la Laguna	12	San Juan la Laguna	9	Septiembre	2023-09-23T00:00:00	2024-11-08T03:00:00	3	Temperatura mínima	15.7
79052	7	Sololá	717	San Juan la Laguna	12	San Juan la Laguna	9	Septiembre	2023-09-23T00:00:00	2024-11-08T03:00:00	5	Humedad	86
79053	7	Sololá	717	San Juan la Laguna	12	San Juan la Laguna	9	Septiembre	2023-09-23T00:00:00	2024-11-08T03:00:00	6	Velocidad del viento	4.8
79054	7	Sololá	717	San Juan la Laguna	12	San Juan la Laguna	9	Septiembre	2023-09-23T00:00:00	2024-11-08T03:00:00	7	Dirección del viento	4.83
79055	7	Sololá	717	San Juan la Laguna	12	San Juan la Laguna	9	Septiembre	2023-09-23T00:00:00	2024-11-08T03:00:00	1	Precipitación	0
79056	7	Sololá	717	San Juan la Laguna	12	San Juan la Laguna	9	Septiembre	2023-09-23T00:00:00	2024-11-08T03:00:00	8	Radiación solar	0
79057	7	Sololá	717	San Juan la Laguna	12	San Juan la Laguna	9	Septiembre	2023-09-23T00:00:00	2024-11-08T04:00:00	2	Temperatura media	15.7
79058	7	Sololá	717	San Juan la Laguna	12	San Juan la Laguna	9	Septiembre	2023-09-23T00:00:00	2024-11-08T04:00:00	4	Temperatura máxima	15.9
79059	7	Sololá	717	San Juan la Laguna	12	San Juan la Laguna	9	Septiembre	2023-09-23T00:00:00	2024-11-08T04:00:00	3	Temperatura mínima	15.6
79060	7	Sololá	717	San Juan la Laguna	12	San Juan la Laguna	9	Septiembre	2023-09-23T00:00:00	2024-11-08T04:00:00	5	Humedad	83
79061	7	Sololá	717	San Juan la Laguna	12	San Juan la Laguna	9	Septiembre	2023-09-23T00:00:00	2024-11-08T04:00:00	6	Velocidad del viento	6.4
79062	7	Sololá	717	San Juan la Laguna	12	San Juan la Laguna	9	Septiembre	2023-09-23T00:00:00	2024-11-08T04:00:00	7	Dirección del viento	6.44
79063	7	Sololá	717	San Juan la Laguna	12	San Juan la Laguna	9	Septiembre	2023-09-23T00:00:00	2024-11-08T04:00:00	1	Precipitación	0
79064	7	Sololá	717	San Juan la Laguna	12	San Juan la Laguna	9	Septiembre	2023-09-23T00:00:00	2024-11-08T04:00:00	8	Radiación solar	0
79065	7	Sololá	717	San Juan la Laguna	12	San Juan la Laguna	9	Septiembre	2023-09-23T00:00:00	2024-11-08T05:00:00	2	Temperatura media	16.1
79066	7	Sololá	717	San Juan la Laguna	12	San Juan la Laguna	9	Septiembre	2023-09-23T00:00:00	2024-11-08T05:00:00	4	Temperatura máxima	16.1
79067	7	Sololá	717	San Juan la Laguna	12	San Juan la Laguna	9	Septiembre	2023-09-23T00:00:00	2024-11-08T05:00:00	3	Temperatura mínima	15.6
79068	7	Sololá	717	San Juan la Laguna	12	San Juan la Laguna	9	Septiembre	2023-09-23T00:00:00	2024-11-08T05:00:00	5	Humedad	82
79069	7	Sololá	717	San Juan la Laguna	12	San Juan la Laguna	9	Septiembre	2023-09-23T00:00:00	2024-11-08T05:00:00	6	Velocidad del viento	8
79070	7	Sololá	717	San Juan la Laguna	12	San Juan la Laguna	9	Septiembre	2023-09-23T00:00:00	2024-11-08T05:00:00	7	Dirección del viento	8.05
79071	7	Sololá	717	San Juan la Laguna	12	San Juan la Laguna	9	Septiembre	2023-09-23T00:00:00	2024-11-08T05:00:00	1	Precipitación	0
79072	7	Sololá	717	San Juan la Laguna	12	San Juan la Laguna	9	Septiembre	2023-09-23T00:00:00	2024-11-08T05:00:00	8	Radiación solar	0
79073	7	Sololá	717	San Juan la Laguna	12	San Juan la Laguna	9	Septiembre	2023-09-23T00:00:00	2024-11-08T06:00:00	2	Temperatura media	15.1
79074	7	Sololá	717	San Juan la Laguna	12	San Juan la Laguna	9	Septiembre	2023-09-23T00:00:00	2024-11-08T06:00:00	4	Temperatura máxima	16.1
79075	7	Sololá	717	San Juan la Laguna	12	San Juan la Laguna	9	Septiembre	2023-09-23T00:00:00	2024-11-08T06:00:00	3	Temperatura mínima	15
79076	7	Sololá	717	San Juan la Laguna	12	San Juan la Laguna	9	Septiembre	2023-09-23T00:00:00	2024-11-08T06:00:00	5	Humedad	84
79077	7	Sololá	717	San Juan la Laguna	12	San Juan la Laguna	9	Septiembre	2023-09-23T00:00:00	2024-11-08T06:00:00	6	Velocidad del viento	4.8
79078	7	Sololá	717	San Juan la Laguna	12	San Juan la Laguna	9	Septiembre	2023-09-23T00:00:00	2024-11-08T06:00:00	7	Dirección del viento	4.83
79079	7	Sololá	717	San Juan la Laguna	12	San Juan la Laguna	9	Septiembre	2023-09-23T00:00:00	2024-11-08T06:00:00	1	Precipitación	0
79080	7	Sololá	717	San Juan la Laguna	12	San Juan la Laguna	9	Septiembre	2023-09-23T00:00:00	2024-11-08T06:00:00	8	Radiación solar	0
79081	7	Sololá	717	San Juan la Laguna	12	San Juan la Laguna	9	Septiembre	2023-09-23T00:00:00	2024-11-08T07:00:00	2	Temperatura media	16.8
79082	7	Sololá	717	San Juan la Laguna	12	San Juan la Laguna	9	Septiembre	2023-09-23T00:00:00	2024-11-08T07:00:00	4	Temperatura máxima	16.8
79083	7	Sololá	717	San Juan la Laguna	12	San Juan la Laguna	9	Septiembre	2023-09-23T00:00:00	2024-11-08T07:00:00	3	Temperatura mínima	15.1
79084	7	Sololá	717	San Juan la Laguna	12	San Juan la Laguna	9	Septiembre	2023-09-23T00:00:00	2024-11-08T07:00:00	5	Humedad	82
79085	7	Sololá	717	San Juan la Laguna	12	San Juan la Laguna	9	Septiembre	2023-09-23T00:00:00	2024-11-08T07:00:00	6	Velocidad del viento	4.8
79086	7	Sololá	717	San Juan la Laguna	12	San Juan la Laguna	9	Septiembre	2023-09-23T00:00:00	2024-11-08T07:00:00	7	Dirección del viento	4.83
79087	7	Sololá	717	San Juan la Laguna	12	San Juan la Laguna	9	Septiembre	2023-09-23T00:00:00	2024-11-08T07:00:00	1	Precipitación	0
79088	7	Sololá	717	San Juan la Laguna	12	San Juan la Laguna	9	Septiembre	2023-09-23T00:00:00	2024-11-08T07:00:00	8	Radiación solar	56
79089	7	Sololá	717	San Juan la Laguna	12	San Juan la Laguna	9	Septiembre	2023-09-23T00:00:00	2024-11-08T08:00:00	2	Temperatura media	21.5
79090	7	Sololá	717	San Juan la Laguna	12	San Juan la Laguna	9	Septiembre	2023-09-23T00:00:00	2024-11-08T08:00:00	4	Temperatura máxima	21.5
79091	7	Sololá	717	San Juan la Laguna	12	San Juan la Laguna	9	Septiembre	2023-09-23T00:00:00	2024-11-08T08:00:00	3	Temperatura mínima	16.8
79092	7	Sololá	717	San Juan la Laguna	12	San Juan la Laguna	9	Septiembre	2023-09-23T00:00:00	2024-11-08T08:00:00	5	Humedad	70
79093	7	Sololá	717	San Juan la Laguna	12	San Juan la Laguna	9	Septiembre	2023-09-23T00:00:00	2024-11-08T08:00:00	6	Velocidad del viento	3.2
79094	7	Sololá	717	San Juan la Laguna	12	San Juan la Laguna	9	Septiembre	2023-09-23T00:00:00	2024-11-08T08:00:00	7	Dirección del viento	3.22
79095	7	Sololá	717	San Juan la Laguna	12	San Juan la Laguna	9	Septiembre	2023-09-23T00:00:00	2024-11-08T08:00:00	1	Precipitación	0
79096	7	Sololá	717	San Juan la Laguna	12	San Juan la Laguna	9	Septiembre	2023-09-23T00:00:00	2024-11-08T08:00:00	8	Radiación solar	273
79097	7	Sololá	717	San Juan la Laguna	12	San Juan la Laguna	9	Septiembre	2023-09-23T00:00:00	2024-11-08T09:00:00	2	Temperatura media	22.9
79098	7	Sololá	717	San Juan la Laguna	12	San Juan la Laguna	9	Septiembre	2023-09-23T00:00:00	2024-11-08T09:00:00	4	Temperatura máxima	22.9
79099	7	Sololá	717	San Juan la Laguna	12	San Juan la Laguna	9	Septiembre	2023-09-23T00:00:00	2024-11-08T09:00:00	3	Temperatura mínima	21.5
79100	7	Sololá	717	San Juan la Laguna	12	San Juan la Laguna	9	Septiembre	2023-09-23T00:00:00	2024-11-08T09:00:00	5	Humedad	60
79101	7	Sololá	717	San Juan la Laguna	12	San Juan la Laguna	9	Septiembre	2023-09-23T00:00:00	2024-11-08T09:00:00	6	Velocidad del viento	3.2
79102	7	Sololá	717	San Juan la Laguna	12	San Juan la Laguna	9	Septiembre	2023-09-23T00:00:00	2024-11-08T09:00:00	7	Dirección del viento	3.22
79103	7	Sololá	717	San Juan la Laguna	12	San Juan la Laguna	9	Septiembre	2023-09-23T00:00:00	2024-11-08T09:00:00	1	Precipitación	0
79104	7	Sololá	717	San Juan la Laguna	12	San Juan la Laguna	9	Septiembre	2023-09-23T00:00:00	2024-11-08T09:00:00	8	Radiación solar	511
79105	7	Sololá	717	San Juan la Laguna	12	San Juan la Laguna	9	Septiembre	2023-09-23T00:00:00	2024-11-08T10:00:00	2	Temperatura media	23.8
79106	7	Sololá	717	San Juan la Laguna	12	San Juan la Laguna	9	Septiembre	2023-09-23T00:00:00	2024-11-08T10:00:00	4	Temperatura máxima	23.8
79107	7	Sololá	717	San Juan la Laguna	12	San Juan la Laguna	9	Septiembre	2023-09-23T00:00:00	2024-11-08T10:00:00	3	Temperatura mínima	22.8
79108	7	Sololá	717	San Juan la Laguna	12	San Juan la Laguna	9	Septiembre	2023-09-23T00:00:00	2024-11-08T10:00:00	5	Humedad	54
79109	7	Sololá	717	San Juan la Laguna	12	San Juan la Laguna	9	Septiembre	2023-09-23T00:00:00	2024-11-08T10:00:00	6	Velocidad del viento	4.8
79110	7	Sololá	717	San Juan la Laguna	12	San Juan la Laguna	9	Septiembre	2023-09-23T00:00:00	2024-11-08T10:00:00	7	Dirección del viento	4.83
79111	7	Sololá	717	San Juan la Laguna	12	San Juan la Laguna	9	Septiembre	2023-09-23T00:00:00	2024-11-08T10:00:00	1	Precipitación	0
79112	7	Sololá	717	San Juan la Laguna	12	San Juan la Laguna	9	Septiembre	2023-09-23T00:00:00	2024-11-08T10:00:00	8	Radiación solar	697
79113	7	Sololá	717	San Juan la Laguna	12	San Juan la Laguna	9	Septiembre	2023-09-23T00:00:00	2024-11-08T11:00:00	2	Temperatura media	25.4
79114	7	Sololá	717	San Juan la Laguna	12	San Juan la Laguna	9	Septiembre	2023-09-23T00:00:00	2024-11-08T11:00:00	4	Temperatura máxima	25.4
79115	7	Sololá	717	San Juan la Laguna	12	San Juan la Laguna	9	Septiembre	2023-09-23T00:00:00	2024-11-08T11:00:00	3	Temperatura mínima	23.9
79116	7	Sololá	717	San Juan la Laguna	12	San Juan la Laguna	9	Septiembre	2023-09-23T00:00:00	2024-11-08T11:00:00	5	Humedad	50
79117	7	Sololá	717	San Juan la Laguna	12	San Juan la Laguna	9	Septiembre	2023-09-23T00:00:00	2024-11-08T11:00:00	6	Velocidad del viento	6.4
79118	7	Sololá	717	San Juan la Laguna	12	San Juan la Laguna	9	Septiembre	2023-09-23T00:00:00	2024-11-08T11:00:00	7	Dirección del viento	6.44
79119	7	Sololá	717	San Juan la Laguna	12	San Juan la Laguna	9	Septiembre	2023-09-23T00:00:00	2024-11-08T11:00:00	1	Precipitación	0
79120	7	Sololá	717	San Juan la Laguna	12	San Juan la Laguna	9	Septiembre	2023-09-23T00:00:00	2024-11-08T11:00:00	8	Radiación solar	830
79121	7	Sololá	717	San Juan la Laguna	12	San Juan la Laguna	9	Septiembre	2023-09-23T00:00:00	2024-11-08T12:00:00	2	Temperatura media	26.4
79122	7	Sololá	717	San Juan la Laguna	12	San Juan la Laguna	9	Septiembre	2023-09-23T00:00:00	2024-11-08T12:00:00	4	Temperatura máxima	26.4
79123	7	Sololá	717	San Juan la Laguna	12	San Juan la Laguna	9	Septiembre	2023-09-23T00:00:00	2024-11-08T12:00:00	3	Temperatura mínima	25.3
79124	7	Sololá	717	San Juan la Laguna	12	San Juan la Laguna	9	Septiembre	2023-09-23T00:00:00	2024-11-08T12:00:00	5	Humedad	47
79125	7	Sololá	717	San Juan la Laguna	12	San Juan la Laguna	9	Septiembre	2023-09-23T00:00:00	2024-11-08T12:00:00	6	Velocidad del viento	8
79126	7	Sololá	717	San Juan la Laguna	12	San Juan la Laguna	9	Septiembre	2023-09-23T00:00:00	2024-11-08T12:00:00	7	Dirección del viento	8.05
79127	7	Sololá	717	San Juan la Laguna	12	San Juan la Laguna	9	Septiembre	2023-09-23T00:00:00	2024-11-08T12:00:00	1	Precipitación	0
79128	7	Sololá	717	San Juan la Laguna	12	San Juan la Laguna	9	Septiembre	2023-09-23T00:00:00	2024-11-08T12:00:00	8	Radiación solar	887
79129	7	Sololá	717	San Juan la Laguna	12	San Juan la Laguna	9	Septiembre	2023-09-23T00:00:00	2024-11-08T13:00:00	2	Temperatura media	27
79130	7	Sololá	717	San Juan la Laguna	12	San Juan la Laguna	9	Septiembre	2023-09-23T00:00:00	2024-11-08T13:00:00	4	Temperatura máxima	28
79131	7	Sololá	717	San Juan la Laguna	12	San Juan la Laguna	9	Septiembre	2023-09-23T00:00:00	2024-11-08T13:00:00	3	Temperatura mínima	26.4
79132	7	Sololá	717	San Juan la Laguna	12	San Juan la Laguna	9	Septiembre	2023-09-23T00:00:00	2024-11-08T13:00:00	5	Humedad	56
79133	7	Sololá	717	San Juan la Laguna	12	San Juan la Laguna	9	Septiembre	2023-09-23T00:00:00	2024-11-08T13:00:00	6	Velocidad del viento	4.8
79134	7	Sololá	717	San Juan la Laguna	12	San Juan la Laguna	9	Septiembre	2023-09-23T00:00:00	2024-11-08T13:00:00	7	Dirección del viento	4.83
79135	7	Sololá	717	San Juan la Laguna	12	San Juan la Laguna	9	Septiembre	2023-09-23T00:00:00	2024-11-08T13:00:00	1	Precipitación	0
79136	7	Sololá	717	San Juan la Laguna	12	San Juan la Laguna	9	Septiembre	2023-09-23T00:00:00	2024-11-08T13:00:00	8	Radiación solar	916
79137	7	Sololá	717	San Juan la Laguna	12	San Juan la Laguna	9	Septiembre	2023-09-23T00:00:00	2024-11-08T14:00:00	2	Temperatura media	25.4
79138	7	Sololá	717	San Juan la Laguna	12	San Juan la Laguna	9	Septiembre	2023-09-23T00:00:00	2024-11-08T14:00:00	4	Temperatura máxima	27.1
79139	7	Sololá	717	San Juan la Laguna	12	San Juan la Laguna	9	Septiembre	2023-09-23T00:00:00	2024-11-08T14:00:00	3	Temperatura mínima	25.1
79140	7	Sololá	717	San Juan la Laguna	12	San Juan la Laguna	9	Septiembre	2023-09-23T00:00:00	2024-11-08T14:00:00	5	Humedad	66
79141	7	Sololá	717	San Juan la Laguna	12	San Juan la Laguna	9	Septiembre	2023-09-23T00:00:00	2024-11-08T14:00:00	6	Velocidad del viento	11.3
79142	7	Sololá	717	San Juan la Laguna	12	San Juan la Laguna	9	Septiembre	2023-09-23T00:00:00	2024-11-08T14:00:00	7	Dirección del viento	11.27
79143	7	Sololá	717	San Juan la Laguna	12	San Juan la Laguna	9	Septiembre	2023-09-23T00:00:00	2024-11-08T14:00:00	1	Precipitación	0
79144	7	Sololá	717	San Juan la Laguna	12	San Juan la Laguna	9	Septiembre	2023-09-23T00:00:00	2024-11-08T14:00:00	8	Radiación solar	852
79145	7	Sololá	717	San Juan la Laguna	12	San Juan la Laguna	9	Septiembre	2023-09-23T00:00:00	2024-11-08T15:00:00	2	Temperatura media	24.7
79146	7	Sololá	717	San Juan la Laguna	12	San Juan la Laguna	9	Septiembre	2023-09-23T00:00:00	2024-11-08T15:00:00	4	Temperatura máxima	25.6
79147	7	Sololá	717	San Juan la Laguna	12	San Juan la Laguna	9	Septiembre	2023-09-23T00:00:00	2024-11-08T15:00:00	3	Temperatura mínima	24.2
79148	7	Sololá	717	San Juan la Laguna	12	San Juan la Laguna	9	Septiembre	2023-09-23T00:00:00	2024-11-08T15:00:00	5	Humedad	70
79149	7	Sololá	717	San Juan la Laguna	12	San Juan la Laguna	9	Septiembre	2023-09-23T00:00:00	2024-11-08T15:00:00	6	Velocidad del viento	11.3
79150	7	Sololá	717	San Juan la Laguna	12	San Juan la Laguna	9	Septiembre	2023-09-23T00:00:00	2024-11-08T15:00:00	7	Dirección del viento	11.27
79151	7	Sololá	717	San Juan la Laguna	12	San Juan la Laguna	9	Septiembre	2023-09-23T00:00:00	2024-11-08T15:00:00	1	Precipitación	0
79152	7	Sololá	717	San Juan la Laguna	12	San Juan la Laguna	9	Septiembre	2023-09-23T00:00:00	2024-11-08T15:00:00	8	Radiación solar	729
79153	7	Sololá	717	San Juan la Laguna	12	San Juan la Laguna	9	Septiembre	2023-09-23T00:00:00	2024-11-08T16:00:00	2	Temperatura media	22.7
79154	7	Sololá	717	San Juan la Laguna	12	San Juan la Laguna	9	Septiembre	2023-09-23T00:00:00	2024-11-08T16:00:00	4	Temperatura máxima	24.7
79155	7	Sololá	717	San Juan la Laguna	12	San Juan la Laguna	9	Septiembre	2023-09-23T00:00:00	2024-11-08T16:00:00	3	Temperatura mínima	22.7
79156	7	Sololá	717	San Juan la Laguna	12	San Juan la Laguna	9	Septiembre	2023-09-23T00:00:00	2024-11-08T16:00:00	5	Humedad	77
79157	7	Sololá	717	San Juan la Laguna	12	San Juan la Laguna	9	Septiembre	2023-09-23T00:00:00	2024-11-08T16:00:00	6	Velocidad del viento	8
79158	7	Sololá	717	San Juan la Laguna	12	San Juan la Laguna	9	Septiembre	2023-09-23T00:00:00	2024-11-08T16:00:00	7	Dirección del viento	8.05
79159	7	Sololá	717	San Juan la Laguna	12	San Juan la Laguna	9	Septiembre	2023-09-23T00:00:00	2024-11-08T16:00:00	1	Precipitación	0
79160	7	Sololá	717	San Juan la Laguna	12	San Juan la Laguna	9	Septiembre	2023-09-23T00:00:00	2024-11-08T16:00:00	8	Radiación solar	296
79161	7	Sololá	717	San Juan la Laguna	12	San Juan la Laguna	9	Septiembre	2023-09-23T00:00:00	2024-11-08T17:00:00	2	Temperatura media	22.8
79162	7	Sololá	717	San Juan la Laguna	12	San Juan la Laguna	9	Septiembre	2023-09-23T00:00:00	2024-11-08T17:00:00	4	Temperatura máxima	22.8
79163	7	Sololá	717	San Juan la Laguna	12	San Juan la Laguna	9	Septiembre	2023-09-23T00:00:00	2024-11-08T17:00:00	3	Temperatura mínima	22.2
79164	7	Sololá	717	San Juan la Laguna	12	San Juan la Laguna	9	Septiembre	2023-09-23T00:00:00	2024-11-08T17:00:00	5	Humedad	78
79165	7	Sololá	717	San Juan la Laguna	12	San Juan la Laguna	9	Septiembre	2023-09-23T00:00:00	2024-11-08T17:00:00	6	Velocidad del viento	1.6
79166	7	Sololá	717	San Juan la Laguna	12	San Juan la Laguna	9	Septiembre	2023-09-23T00:00:00	2024-11-08T17:00:00	7	Dirección del viento	1.61
79167	7	Sololá	717	San Juan la Laguna	12	San Juan la Laguna	9	Septiembre	2023-09-23T00:00:00	2024-11-08T17:00:00	1	Precipitación	0
79168	7	Sololá	717	San Juan la Laguna	12	San Juan la Laguna	9	Septiembre	2023-09-23T00:00:00	2024-11-08T17:00:00	8	Radiación solar	75
79169	7	Sololá	717	San Juan la Laguna	12	San Juan la Laguna	9	Septiembre	2023-09-23T00:00:00	2024-11-08T18:00:00	2	Temperatura media	21.2
79170	7	Sololá	717	San Juan la Laguna	12	San Juan la Laguna	9	Septiembre	2023-09-23T00:00:00	2024-11-08T18:00:00	4	Temperatura máxima	22.8
79171	7	Sololá	717	San Juan la Laguna	12	San Juan la Laguna	9	Septiembre	2023-09-23T00:00:00	2024-11-08T18:00:00	3	Temperatura mínima	21.2
79172	7	Sololá	717	San Juan la Laguna	12	San Juan la Laguna	9	Septiembre	2023-09-23T00:00:00	2024-11-08T18:00:00	5	Humedad	84
79173	7	Sololá	717	San Juan la Laguna	12	San Juan la Laguna	9	Septiembre	2023-09-23T00:00:00	2024-11-08T18:00:00	6	Velocidad del viento	1.6
79174	7	Sololá	717	San Juan la Laguna	12	San Juan la Laguna	9	Septiembre	2023-09-23T00:00:00	2024-11-08T18:00:00	7	Dirección del viento	1.61
79175	7	Sololá	717	San Juan la Laguna	12	San Juan la Laguna	9	Septiembre	2023-09-23T00:00:00	2024-11-08T18:00:00	1	Precipitación	0
79176	7	Sololá	717	San Juan la Laguna	12	San Juan la Laguna	9	Septiembre	2023-09-23T00:00:00	2024-11-08T18:00:00	8	Radiación solar	7
79177	7	Sololá	717	San Juan la Laguna	12	San Juan la Laguna	9	Septiembre	2023-09-23T00:00:00	2024-11-08T19:00:00	2	Temperatura media	20.8
79178	7	Sololá	717	San Juan la Laguna	12	San Juan la Laguna	9	Septiembre	2023-09-23T00:00:00	2024-11-08T19:00:00	4	Temperatura máxima	21.2
79179	7	Sololá	717	San Juan la Laguna	12	San Juan la Laguna	9	Septiembre	2023-09-23T00:00:00	2024-11-08T19:00:00	3	Temperatura mínima	20.8
79180	7	Sololá	717	San Juan la Laguna	12	San Juan la Laguna	9	Septiembre	2023-09-23T00:00:00	2024-11-08T19:00:00	5	Humedad	85
79181	7	Sololá	717	San Juan la Laguna	12	San Juan la Laguna	9	Septiembre	2023-09-23T00:00:00	2024-11-08T19:00:00	6	Velocidad del viento	1.6
79182	7	Sololá	717	San Juan la Laguna	12	San Juan la Laguna	9	Septiembre	2023-09-23T00:00:00	2024-11-08T19:00:00	7	Dirección del viento	1.61
79183	7	Sololá	717	San Juan la Laguna	12	San Juan la Laguna	9	Septiembre	2023-09-23T00:00:00	2024-11-08T19:00:00	1	Precipitación	0
79184	7	Sololá	717	San Juan la Laguna	12	San Juan la Laguna	9	Septiembre	2023-09-23T00:00:00	2024-11-08T19:00:00	8	Radiación solar	0
79185	7	Sololá	717	San Juan la Laguna	12	San Juan la Laguna	9	Septiembre	2023-09-23T00:00:00	2024-11-08T20:00:00	2	Temperatura media	20.9
79186	7	Sololá	717	San Juan la Laguna	12	San Juan la Laguna	9	Septiembre	2023-09-23T00:00:00	2024-11-08T20:00:00	4	Temperatura máxima	20.9
79187	7	Sololá	717	San Juan la Laguna	12	San Juan la Laguna	9	Septiembre	2023-09-23T00:00:00	2024-11-08T20:00:00	3	Temperatura mínima	20.7
79188	7	Sololá	717	San Juan la Laguna	12	San Juan la Laguna	9	Septiembre	2023-09-23T00:00:00	2024-11-08T20:00:00	5	Humedad	84
79189	7	Sololá	717	San Juan la Laguna	12	San Juan la Laguna	9	Septiembre	2023-09-23T00:00:00	2024-11-08T20:00:00	6	Velocidad del viento	1.6
79190	7	Sololá	717	San Juan la Laguna	12	San Juan la Laguna	9	Septiembre	2023-09-23T00:00:00	2024-11-08T20:00:00	7	Dirección del viento	1.61
79191	7	Sololá	717	San Juan la Laguna	12	San Juan la Laguna	9	Septiembre	2023-09-23T00:00:00	2024-11-08T20:00:00	1	Precipitación	0
79192	7	Sololá	717	San Juan la Laguna	12	San Juan la Laguna	9	Septiembre	2023-09-23T00:00:00	2024-11-08T20:00:00	8	Radiación solar	0
79193	7	Sololá	717	San Juan la Laguna	12	San Juan la Laguna	9	Septiembre	2023-09-23T00:00:00	2024-11-08T21:00:00	2	Temperatura media	20.6
79194	7	Sololá	717	San Juan la Laguna	12	San Juan la Laguna	9	Septiembre	2023-09-23T00:00:00	2024-11-08T21:00:00	4	Temperatura máxima	20.9
79195	7	Sololá	717	San Juan la Laguna	12	San Juan la Laguna	9	Septiembre	2023-09-23T00:00:00	2024-11-08T21:00:00	3	Temperatura mínima	20.6
79196	7	Sololá	717	San Juan la Laguna	12	San Juan la Laguna	9	Septiembre	2023-09-23T00:00:00	2024-11-08T21:00:00	5	Humedad	87
79197	7	Sololá	717	San Juan la Laguna	12	San Juan la Laguna	9	Septiembre	2023-09-23T00:00:00	2024-11-08T21:00:00	6	Velocidad del viento	3.2
79198	7	Sololá	717	San Juan la Laguna	12	San Juan la Laguna	9	Septiembre	2023-09-23T00:00:00	2024-11-08T21:00:00	7	Dirección del viento	3.22
79199	7	Sololá	717	San Juan la Laguna	12	San Juan la Laguna	9	Septiembre	2023-09-23T00:00:00	2024-11-08T21:00:00	1	Precipitación	0
79200	7	Sololá	717	San Juan la Laguna	12	San Juan la Laguna	9	Septiembre	2023-09-23T00:00:00	2024-11-08T21:00:00	8	Radiación solar	0
79201	7	Sololá	717	San Juan la Laguna	12	San Juan la Laguna	9	Septiembre	2023-09-23T00:00:00	2024-11-08T22:00:00	2	Temperatura media	20.4
79202	7	Sololá	717	San Juan la Laguna	12	San Juan la Laguna	9	Septiembre	2023-09-23T00:00:00	2024-11-08T22:00:00	4	Temperatura máxima	20.6
79203	7	Sololá	717	San Juan la Laguna	12	San Juan la Laguna	9	Septiembre	2023-09-23T00:00:00	2024-11-08T22:00:00	3	Temperatura mínima	20.4
79204	7	Sololá	717	San Juan la Laguna	12	San Juan la Laguna	9	Septiembre	2023-09-23T00:00:00	2024-11-08T22:00:00	5	Humedad	87
79205	7	Sololá	717	San Juan la Laguna	12	San Juan la Laguna	9	Septiembre	2023-09-23T00:00:00	2024-11-08T22:00:00	6	Velocidad del viento	1.6
79206	7	Sololá	717	San Juan la Laguna	12	San Juan la Laguna	9	Septiembre	2023-09-23T00:00:00	2024-11-08T22:00:00	7	Dirección del viento	1.61
79207	7	Sololá	717	San Juan la Laguna	12	San Juan la Laguna	9	Septiembre	2023-09-23T00:00:00	2024-11-08T22:00:00	1	Precipitación	0
79208	7	Sololá	717	San Juan la Laguna	12	San Juan la Laguna	9	Septiembre	2023-09-23T00:00:00	2024-11-08T22:00:00	8	Radiación solar	0
79209	7	Sololá	717	San Juan la Laguna	12	San Juan la Laguna	9	Septiembre	2023-09-23T00:00:00	2024-11-08T23:00:00	2	Temperatura media	19.9
79210	7	Sololá	717	San Juan la Laguna	12	San Juan la Laguna	9	Septiembre	2023-09-23T00:00:00	2024-11-08T23:00:00	4	Temperatura máxima	20.4
79211	7	Sololá	717	San Juan la Laguna	12	San Juan la Laguna	9	Septiembre	2023-09-23T00:00:00	2024-11-08T23:00:00	3	Temperatura mínima	19.9
79212	7	Sololá	717	San Juan la Laguna	12	San Juan la Laguna	9	Septiembre	2023-09-23T00:00:00	2024-11-08T23:00:00	5	Humedad	88
79213	7	Sololá	717	San Juan la Laguna	12	San Juan la Laguna	9	Septiembre	2023-09-23T00:00:00	2024-11-08T23:00:00	6	Velocidad del viento	0
79214	7	Sololá	717	San Juan la Laguna	12	San Juan la Laguna	9	Septiembre	2023-09-23T00:00:00	2024-11-08T23:00:00	7	Dirección del viento	0
79215	7	Sololá	717	San Juan la Laguna	12	San Juan la Laguna	9	Septiembre	2023-09-23T00:00:00	2024-11-08T23:00:00	1	Precipitación	0
79216	7	Sololá	717	San Juan la Laguna	12	San Juan la Laguna	9	Septiembre	2023-09-23T00:00:00	2024-11-08T23:00:00	8	Radiación solar	0
79217	7	Sololá	717	San Juan la Laguna	12	San Juan la Laguna	9	Septiembre	2023-09-24T00:00:00	2024-11-08T00:00:00	2	Temperatura media	19.8
79218	7	Sololá	717	San Juan la Laguna	12	San Juan la Laguna	9	Septiembre	2023-09-24T00:00:00	2024-11-08T00:00:00	4	Temperatura máxima	19.9
79219	7	Sololá	717	San Juan la Laguna	12	San Juan la Laguna	9	Septiembre	2023-09-24T00:00:00	2024-11-08T00:00:00	3	Temperatura mínima	19.7
79220	7	Sololá	717	San Juan la Laguna	12	San Juan la Laguna	9	Septiembre	2023-09-24T00:00:00	2024-11-08T00:00:00	5	Humedad	88
79221	7	Sololá	717	San Juan la Laguna	12	San Juan la Laguna	9	Septiembre	2023-09-24T00:00:00	2024-11-08T00:00:00	6	Velocidad del viento	0
79222	7	Sololá	717	San Juan la Laguna	12	San Juan la Laguna	9	Septiembre	2023-09-24T00:00:00	2024-11-08T00:00:00	7	Dirección del viento	0
79223	7	Sololá	717	San Juan la Laguna	12	San Juan la Laguna	9	Septiembre	2023-09-24T00:00:00	2024-11-08T00:00:00	1	Precipitación	0
79224	7	Sololá	717	San Juan la Laguna	12	San Juan la Laguna	9	Septiembre	2023-09-24T00:00:00	2024-11-08T00:00:00	8	Radiación solar	0
79225	7	Sololá	717	San Juan la Laguna	12	San Juan la Laguna	9	Septiembre	2023-09-24T00:00:00	2024-11-08T01:00:00	2	Temperatura media	19
79226	7	Sololá	717	San Juan la Laguna	12	San Juan la Laguna	9	Septiembre	2023-09-24T00:00:00	2024-11-08T01:00:00	4	Temperatura máxima	19.8
79227	7	Sololá	717	San Juan la Laguna	12	San Juan la Laguna	9	Septiembre	2023-09-24T00:00:00	2024-11-08T01:00:00	3	Temperatura mínima	19
79228	7	Sololá	717	San Juan la Laguna	12	San Juan la Laguna	9	Septiembre	2023-09-24T00:00:00	2024-11-08T01:00:00	5	Humedad	89
79229	7	Sololá	717	San Juan la Laguna	12	San Juan la Laguna	9	Septiembre	2023-09-24T00:00:00	2024-11-08T01:00:00	6	Velocidad del viento	0
79230	7	Sololá	717	San Juan la Laguna	12	San Juan la Laguna	9	Septiembre	2023-09-24T00:00:00	2024-11-08T01:00:00	7	Dirección del viento	0
79231	7	Sololá	717	San Juan la Laguna	12	San Juan la Laguna	9	Septiembre	2023-09-24T00:00:00	2024-11-08T01:00:00	1	Precipitación	0
79232	7	Sololá	717	San Juan la Laguna	12	San Juan la Laguna	9	Septiembre	2023-09-24T00:00:00	2024-11-08T01:00:00	8	Radiación solar	0
79233	7	Sololá	717	San Juan la Laguna	12	San Juan la Laguna	9	Septiembre	2023-09-24T00:00:00	2024-11-08T02:00:00	2	Temperatura media	17.9
79234	7	Sololá	717	San Juan la Laguna	12	San Juan la Laguna	9	Septiembre	2023-09-24T00:00:00	2024-11-08T02:00:00	4	Temperatura máxima	19
79235	7	Sololá	717	San Juan la Laguna	12	San Juan la Laguna	9	Septiembre	2023-09-24T00:00:00	2024-11-08T02:00:00	3	Temperatura mínima	17.9
79236	7	Sololá	717	San Juan la Laguna	12	San Juan la Laguna	9	Septiembre	2023-09-24T00:00:00	2024-11-08T02:00:00	5	Humedad	86
79237	7	Sololá	717	San Juan la Laguna	12	San Juan la Laguna	9	Septiembre	2023-09-24T00:00:00	2024-11-08T02:00:00	6	Velocidad del viento	3.2
79238	7	Sololá	717	San Juan la Laguna	12	San Juan la Laguna	9	Septiembre	2023-09-24T00:00:00	2024-11-08T02:00:00	7	Dirección del viento	3.22
79239	7	Sololá	717	San Juan la Laguna	12	San Juan la Laguna	9	Septiembre	2023-09-24T00:00:00	2024-11-08T02:00:00	1	Precipitación	0
79240	7	Sololá	717	San Juan la Laguna	12	San Juan la Laguna	9	Septiembre	2023-09-24T00:00:00	2024-11-08T02:00:00	8	Radiación solar	0
79241	7	Sololá	717	San Juan la Laguna	12	San Juan la Laguna	9	Septiembre	2023-09-24T00:00:00	2024-11-08T03:00:00	2	Temperatura media	17.5
79242	7	Sololá	717	San Juan la Laguna	12	San Juan la Laguna	9	Septiembre	2023-09-24T00:00:00	2024-11-08T03:00:00	4	Temperatura máxima	17.9
79243	7	Sololá	717	San Juan la Laguna	12	San Juan la Laguna	9	Septiembre	2023-09-24T00:00:00	2024-11-08T03:00:00	3	Temperatura mínima	17.5
79244	7	Sololá	717	San Juan la Laguna	12	San Juan la Laguna	9	Septiembre	2023-09-24T00:00:00	2024-11-08T03:00:00	5	Humedad	88
79245	7	Sololá	717	San Juan la Laguna	12	San Juan la Laguna	9	Septiembre	2023-09-24T00:00:00	2024-11-08T03:00:00	6	Velocidad del viento	1.6
79246	7	Sololá	717	San Juan la Laguna	12	San Juan la Laguna	9	Septiembre	2023-09-24T00:00:00	2024-11-08T03:00:00	7	Dirección del viento	1.61
79247	7	Sololá	717	San Juan la Laguna	12	San Juan la Laguna	9	Septiembre	2023-09-24T00:00:00	2024-11-08T03:00:00	1	Precipitación	0
79248	7	Sololá	717	San Juan la Laguna	12	San Juan la Laguna	9	Septiembre	2023-09-24T00:00:00	2024-11-08T03:00:00	8	Radiación solar	0
79249	7	Sololá	717	San Juan la Laguna	12	San Juan la Laguna	9	Septiembre	2023-09-24T00:00:00	2024-11-08T04:00:00	2	Temperatura media	17.1
79250	7	Sololá	717	San Juan la Laguna	12	San Juan la Laguna	9	Septiembre	2023-09-24T00:00:00	2024-11-08T04:00:00	4	Temperatura máxima	17.5
79251	7	Sololá	717	San Juan la Laguna	12	San Juan la Laguna	9	Septiembre	2023-09-24T00:00:00	2024-11-08T04:00:00	3	Temperatura mínima	17.1
79252	7	Sololá	717	San Juan la Laguna	12	San Juan la Laguna	9	Septiembre	2023-09-24T00:00:00	2024-11-08T04:00:00	5	Humedad	87
79253	7	Sololá	717	San Juan la Laguna	12	San Juan la Laguna	9	Septiembre	2023-09-24T00:00:00	2024-11-08T04:00:00	6	Velocidad del viento	3.2
79254	7	Sololá	717	San Juan la Laguna	12	San Juan la Laguna	9	Septiembre	2023-09-24T00:00:00	2024-11-08T04:00:00	7	Dirección del viento	3.22
79255	7	Sololá	717	San Juan la Laguna	12	San Juan la Laguna	9	Septiembre	2023-09-24T00:00:00	2024-11-08T04:00:00	1	Precipitación	0
79256	7	Sololá	717	San Juan la Laguna	12	San Juan la Laguna	9	Septiembre	2023-09-24T00:00:00	2024-11-08T04:00:00	8	Radiación solar	0
79257	7	Sololá	717	San Juan la Laguna	12	San Juan la Laguna	9	Septiembre	2023-09-24T00:00:00	2024-11-08T05:00:00	2	Temperatura media	16.7
79258	7	Sololá	717	San Juan la Laguna	12	San Juan la Laguna	9	Septiembre	2023-09-24T00:00:00	2024-11-08T05:00:00	4	Temperatura máxima	17.1
79259	7	Sololá	717	San Juan la Laguna	12	San Juan la Laguna	9	Septiembre	2023-09-24T00:00:00	2024-11-08T05:00:00	3	Temperatura mínima	16.6
79260	7	Sololá	717	San Juan la Laguna	12	San Juan la Laguna	9	Septiembre	2023-09-24T00:00:00	2024-11-08T05:00:00	5	Humedad	87
79261	7	Sololá	717	San Juan la Laguna	12	San Juan la Laguna	9	Septiembre	2023-09-24T00:00:00	2024-11-08T05:00:00	6	Velocidad del viento	3.2
79262	7	Sololá	717	San Juan la Laguna	12	San Juan la Laguna	9	Septiembre	2023-09-24T00:00:00	2024-11-08T05:00:00	7	Dirección del viento	3.22
79263	7	Sololá	717	San Juan la Laguna	12	San Juan la Laguna	9	Septiembre	2023-09-24T00:00:00	2024-11-08T05:00:00	1	Precipitación	0
79264	7	Sololá	717	San Juan la Laguna	12	San Juan la Laguna	9	Septiembre	2023-09-24T00:00:00	2024-11-08T05:00:00	8	Radiación solar	0
79265	7	Sololá	717	San Juan la Laguna	12	San Juan la Laguna	9	Septiembre	2023-09-24T00:00:00	2024-11-08T06:00:00	2	Temperatura media	16.9
79266	7	Sololá	717	San Juan la Laguna	12	San Juan la Laguna	9	Septiembre	2023-09-24T00:00:00	2024-11-08T06:00:00	4	Temperatura máxima	16.9
79267	7	Sololá	717	San Juan la Laguna	12	San Juan la Laguna	9	Septiembre	2023-09-24T00:00:00	2024-11-08T06:00:00	3	Temperatura mínima	16.3
79268	7	Sololá	717	San Juan la Laguna	12	San Juan la Laguna	9	Septiembre	2023-09-24T00:00:00	2024-11-08T06:00:00	5	Humedad	85
79269	7	Sololá	717	San Juan la Laguna	12	San Juan la Laguna	9	Septiembre	2023-09-24T00:00:00	2024-11-08T06:00:00	6	Velocidad del viento	4.8
79270	7	Sololá	717	San Juan la Laguna	12	San Juan la Laguna	9	Septiembre	2023-09-24T00:00:00	2024-11-08T06:00:00	7	Dirección del viento	4.83
79271	7	Sololá	717	San Juan la Laguna	12	San Juan la Laguna	9	Septiembre	2023-09-24T00:00:00	2024-11-08T06:00:00	1	Precipitación	0
79272	7	Sololá	717	San Juan la Laguna	12	San Juan la Laguna	9	Septiembre	2023-09-24T00:00:00	2024-11-08T06:00:00	8	Radiación solar	2
79273	7	Sololá	717	San Juan la Laguna	12	San Juan la Laguna	9	Septiembre	2023-09-24T00:00:00	2024-11-08T07:00:00	2	Temperatura media	18.3
79274	7	Sololá	717	San Juan la Laguna	12	San Juan la Laguna	9	Septiembre	2023-09-24T00:00:00	2024-11-08T07:00:00	4	Temperatura máxima	18.3
79275	7	Sololá	717	San Juan la Laguna	12	San Juan la Laguna	9	Septiembre	2023-09-24T00:00:00	2024-11-08T07:00:00	3	Temperatura mínima	16.6
79276	7	Sololá	717	San Juan la Laguna	12	San Juan la Laguna	9	Septiembre	2023-09-24T00:00:00	2024-11-08T07:00:00	5	Humedad	84
79277	7	Sololá	717	San Juan la Laguna	12	San Juan la Laguna	9	Septiembre	2023-09-24T00:00:00	2024-11-08T07:00:00	6	Velocidad del viento	1.6
79278	7	Sololá	717	San Juan la Laguna	12	San Juan la Laguna	9	Septiembre	2023-09-24T00:00:00	2024-11-08T07:00:00	7	Dirección del viento	1.61
79279	7	Sololá	717	San Juan la Laguna	12	San Juan la Laguna	9	Septiembre	2023-09-24T00:00:00	2024-11-08T07:00:00	1	Precipitación	0
79280	7	Sololá	717	San Juan la Laguna	12	San Juan la Laguna	9	Septiembre	2023-09-24T00:00:00	2024-11-08T07:00:00	8	Radiación solar	74
79281	7	Sololá	717	San Juan la Laguna	12	San Juan la Laguna	9	Septiembre	2023-09-24T00:00:00	2024-11-08T08:00:00	2	Temperatura media	20.9
79282	7	Sololá	717	San Juan la Laguna	12	San Juan la Laguna	9	Septiembre	2023-09-24T00:00:00	2024-11-08T08:00:00	4	Temperatura máxima	20.9
79283	7	Sololá	717	San Juan la Laguna	12	San Juan la Laguna	9	Septiembre	2023-09-24T00:00:00	2024-11-08T08:00:00	3	Temperatura mínima	18.3
79284	7	Sololá	717	San Juan la Laguna	12	San Juan la Laguna	9	Septiembre	2023-09-24T00:00:00	2024-11-08T08:00:00	5	Humedad	77
79285	7	Sololá	717	San Juan la Laguna	12	San Juan la Laguna	9	Septiembre	2023-09-24T00:00:00	2024-11-08T08:00:00	6	Velocidad del viento	3.2
79286	7	Sololá	717	San Juan la Laguna	12	San Juan la Laguna	9	Septiembre	2023-09-24T00:00:00	2024-11-08T08:00:00	7	Dirección del viento	3.22
79287	7	Sololá	717	San Juan la Laguna	12	San Juan la Laguna	9	Septiembre	2023-09-24T00:00:00	2024-11-08T08:00:00	1	Precipitación	0
79288	7	Sololá	717	San Juan la Laguna	12	San Juan la Laguna	9	Septiembre	2023-09-24T00:00:00	2024-11-08T08:00:00	8	Radiación solar	278
79289	7	Sololá	717	San Juan la Laguna	12	San Juan la Laguna	9	Septiembre	2023-09-24T00:00:00	2024-11-08T09:00:00	2	Temperatura media	21.8
79290	7	Sololá	717	San Juan la Laguna	12	San Juan la Laguna	9	Septiembre	2023-09-24T00:00:00	2024-11-08T09:00:00	4	Temperatura máxima	21.8
79291	7	Sololá	717	San Juan la Laguna	12	San Juan la Laguna	9	Septiembre	2023-09-24T00:00:00	2024-11-08T09:00:00	3	Temperatura mínima	20.6
79292	7	Sololá	717	San Juan la Laguna	12	San Juan la Laguna	9	Septiembre	2023-09-24T00:00:00	2024-11-08T09:00:00	5	Humedad	72
79293	7	Sololá	717	San Juan la Laguna	12	San Juan la Laguna	9	Septiembre	2023-09-24T00:00:00	2024-11-08T09:00:00	6	Velocidad del viento	3.2
79294	7	Sololá	717	San Juan la Laguna	12	San Juan la Laguna	9	Septiembre	2023-09-24T00:00:00	2024-11-08T09:00:00	7	Dirección del viento	3.22
79295	7	Sololá	717	San Juan la Laguna	12	San Juan la Laguna	9	Septiembre	2023-09-24T00:00:00	2024-11-08T09:00:00	1	Precipitación	0
79296	7	Sololá	717	San Juan la Laguna	12	San Juan la Laguna	9	Septiembre	2023-09-24T00:00:00	2024-11-08T09:00:00	8	Radiación solar	379
79297	7	Sololá	717	San Juan la Laguna	12	San Juan la Laguna	9	Septiembre	2023-09-24T00:00:00	2024-11-08T10:00:00	2	Temperatura media	25.5
79298	7	Sololá	717	San Juan la Laguna	12	San Juan la Laguna	9	Septiembre	2023-09-24T00:00:00	2024-11-08T10:00:00	4	Temperatura máxima	25.5
79299	7	Sololá	717	San Juan la Laguna	12	San Juan la Laguna	9	Septiembre	2023-09-24T00:00:00	2024-11-08T10:00:00	3	Temperatura mínima	21.8
79300	7	Sololá	717	San Juan la Laguna	12	San Juan la Laguna	9	Septiembre	2023-09-24T00:00:00	2024-11-08T10:00:00	5	Humedad	56
79301	7	Sololá	717	San Juan la Laguna	12	San Juan la Laguna	9	Septiembre	2023-09-24T00:00:00	2024-11-08T10:00:00	6	Velocidad del viento	3.2
79302	7	Sololá	717	San Juan la Laguna	12	San Juan la Laguna	9	Septiembre	2023-09-24T00:00:00	2024-11-08T10:00:00	7	Dirección del viento	3.22
79303	7	Sololá	717	San Juan la Laguna	12	San Juan la Laguna	9	Septiembre	2023-09-24T00:00:00	2024-11-08T10:00:00	1	Precipitación	0
79304	7	Sololá	717	San Juan la Laguna	12	San Juan la Laguna	9	Septiembre	2023-09-24T00:00:00	2024-11-08T10:00:00	8	Radiación solar	648
79305	7	Sololá	717	San Juan la Laguna	12	San Juan la Laguna	9	Septiembre	2023-09-24T00:00:00	2024-11-08T11:00:00	2	Temperatura media	23.8
79306	7	Sololá	717	San Juan la Laguna	12	San Juan la Laguna	9	Septiembre	2023-09-24T00:00:00	2024-11-08T11:00:00	4	Temperatura máxima	25.5
79307	7	Sololá	717	San Juan la Laguna	12	San Juan la Laguna	9	Septiembre	2023-09-24T00:00:00	2024-11-08T11:00:00	3	Temperatura mínima	23.7
79308	7	Sololá	717	San Juan la Laguna	12	San Juan la Laguna	9	Septiembre	2023-09-24T00:00:00	2024-11-08T11:00:00	5	Humedad	67
79309	7	Sololá	717	San Juan la Laguna	12	San Juan la Laguna	9	Septiembre	2023-09-24T00:00:00	2024-11-08T11:00:00	6	Velocidad del viento	8
79310	7	Sololá	717	San Juan la Laguna	12	San Juan la Laguna	9	Septiembre	2023-09-24T00:00:00	2024-11-08T11:00:00	7	Dirección del viento	8.05
79311	7	Sololá	717	San Juan la Laguna	12	San Juan la Laguna	9	Septiembre	2023-09-24T00:00:00	2024-11-08T11:00:00	1	Precipitación	0
79312	7	Sololá	717	San Juan la Laguna	12	San Juan la Laguna	9	Septiembre	2023-09-24T00:00:00	2024-11-08T11:00:00	8	Radiación solar	844
79313	7	Sololá	717	San Juan la Laguna	12	San Juan la Laguna	9	Septiembre	2023-09-24T00:00:00	2024-11-08T12:00:00	2	Temperatura media	24
79314	7	Sololá	717	San Juan la Laguna	12	San Juan la Laguna	9	Septiembre	2023-09-24T00:00:00	2024-11-08T12:00:00	4	Temperatura máxima	24.4
79315	7	Sololá	717	San Juan la Laguna	12	San Juan la Laguna	9	Septiembre	2023-09-24T00:00:00	2024-11-08T12:00:00	3	Temperatura mínima	23.3
79316	7	Sololá	717	San Juan la Laguna	12	San Juan la Laguna	9	Septiembre	2023-09-24T00:00:00	2024-11-08T12:00:00	5	Humedad	66
79317	7	Sololá	717	San Juan la Laguna	12	San Juan la Laguna	9	Septiembre	2023-09-24T00:00:00	2024-11-08T12:00:00	6	Velocidad del viento	6.4
79318	7	Sololá	717	San Juan la Laguna	12	San Juan la Laguna	9	Septiembre	2023-09-24T00:00:00	2024-11-08T12:00:00	7	Dirección del viento	6.44
79319	7	Sololá	717	San Juan la Laguna	12	San Juan la Laguna	9	Septiembre	2023-09-24T00:00:00	2024-11-08T12:00:00	1	Precipitación	0
79320	7	Sololá	717	San Juan la Laguna	12	San Juan la Laguna	9	Septiembre	2023-09-24T00:00:00	2024-11-08T12:00:00	8	Radiación solar	575
79321	7	Sololá	717	San Juan la Laguna	12	San Juan la Laguna	9	Septiembre	2023-09-24T00:00:00	2024-11-08T13:00:00	2	Temperatura media	22.6
79322	7	Sololá	717	San Juan la Laguna	12	San Juan la Laguna	9	Septiembre	2023-09-24T00:00:00	2024-11-08T13:00:00	4	Temperatura máxima	24.7
79323	7	Sololá	717	San Juan la Laguna	12	San Juan la Laguna	9	Septiembre	2023-09-24T00:00:00	2024-11-08T13:00:00	3	Temperatura mínima	22.6
79324	7	Sololá	717	San Juan la Laguna	12	San Juan la Laguna	9	Septiembre	2023-09-24T00:00:00	2024-11-08T13:00:00	5	Humedad	75
79325	7	Sololá	717	San Juan la Laguna	12	San Juan la Laguna	9	Septiembre	2023-09-24T00:00:00	2024-11-08T13:00:00	6	Velocidad del viento	11.3
79326	7	Sololá	717	San Juan la Laguna	12	San Juan la Laguna	9	Septiembre	2023-09-24T00:00:00	2024-11-08T13:00:00	7	Dirección del viento	11.27
79327	7	Sololá	717	San Juan la Laguna	12	San Juan la Laguna	9	Septiembre	2023-09-24T00:00:00	2024-11-08T13:00:00	1	Precipitación	0
79328	7	Sololá	717	San Juan la Laguna	12	San Juan la Laguna	9	Septiembre	2023-09-24T00:00:00	2024-11-08T13:00:00	8	Radiación solar	681
79329	7	Sololá	717	San Juan la Laguna	12	San Juan la Laguna	9	Septiembre	2023-09-24T00:00:00	2024-11-08T14:00:00	2	Temperatura media	19.8
79330	7	Sololá	717	San Juan la Laguna	12	San Juan la Laguna	9	Septiembre	2023-09-24T00:00:00	2024-11-08T14:00:00	4	Temperatura máxima	22.6
79331	7	Sololá	717	San Juan la Laguna	12	San Juan la Laguna	9	Septiembre	2023-09-24T00:00:00	2024-11-08T14:00:00	3	Temperatura mínima	19.8
79332	7	Sololá	717	San Juan la Laguna	12	San Juan la Laguna	9	Septiembre	2023-09-24T00:00:00	2024-11-08T14:00:00	5	Humedad	80
79333	7	Sololá	717	San Juan la Laguna	12	San Juan la Laguna	9	Septiembre	2023-09-24T00:00:00	2024-11-08T14:00:00	6	Velocidad del viento	11.3
79334	7	Sololá	717	San Juan la Laguna	12	San Juan la Laguna	9	Septiembre	2023-09-24T00:00:00	2024-11-08T14:00:00	7	Dirección del viento	11.27
79335	7	Sololá	717	San Juan la Laguna	12	San Juan la Laguna	9	Septiembre	2023-09-24T00:00:00	2024-11-08T14:00:00	1	Precipitación	0
79336	7	Sololá	717	San Juan la Laguna	12	San Juan la Laguna	9	Septiembre	2023-09-24T00:00:00	2024-11-08T14:00:00	8	Radiación solar	119
79337	7	Sololá	717	San Juan la Laguna	12	San Juan la Laguna	9	Septiembre	2023-09-24T00:00:00	2024-11-08T15:00:00	2	Temperatura media	20.6
79338	7	Sololá	717	San Juan la Laguna	12	San Juan la Laguna	9	Septiembre	2023-09-24T00:00:00	2024-11-08T15:00:00	4	Temperatura máxima	20.6
79339	7	Sololá	717	San Juan la Laguna	12	San Juan la Laguna	9	Septiembre	2023-09-24T00:00:00	2024-11-08T15:00:00	3	Temperatura mínima	19.6
79340	7	Sololá	717	San Juan la Laguna	12	San Juan la Laguna	9	Septiembre	2023-09-24T00:00:00	2024-11-08T15:00:00	5	Humedad	77
79341	7	Sololá	717	San Juan la Laguna	12	San Juan la Laguna	9	Septiembre	2023-09-24T00:00:00	2024-11-08T15:00:00	6	Velocidad del viento	6.4
79342	7	Sololá	717	San Juan la Laguna	12	San Juan la Laguna	9	Septiembre	2023-09-24T00:00:00	2024-11-08T15:00:00	7	Dirección del viento	6.44
79343	7	Sololá	717	San Juan la Laguna	12	San Juan la Laguna	9	Septiembre	2023-09-24T00:00:00	2024-11-08T15:00:00	1	Precipitación	0
79344	7	Sololá	717	San Juan la Laguna	12	San Juan la Laguna	9	Septiembre	2023-09-24T00:00:00	2024-11-08T15:00:00	8	Radiación solar	219
79345	7	Sololá	717	San Juan la Laguna	12	San Juan la Laguna	9	Septiembre	2023-09-24T00:00:00	2024-11-08T16:00:00	2	Temperatura media	21.6
79346	7	Sololá	717	San Juan la Laguna	12	San Juan la Laguna	9	Septiembre	2023-09-24T00:00:00	2024-11-08T16:00:00	4	Temperatura máxima	22.2
79347	7	Sololá	717	San Juan la Laguna	12	San Juan la Laguna	9	Septiembre	2023-09-24T00:00:00	2024-11-08T16:00:00	3	Temperatura mínima	20.7
79348	7	Sololá	717	San Juan la Laguna	12	San Juan la Laguna	9	Septiembre	2023-09-24T00:00:00	2024-11-08T16:00:00	5	Humedad	76
79349	7	Sololá	717	San Juan la Laguna	12	San Juan la Laguna	9	Septiembre	2023-09-24T00:00:00	2024-11-08T16:00:00	6	Velocidad del viento	1.6
79350	7	Sololá	717	San Juan la Laguna	12	San Juan la Laguna	9	Septiembre	2023-09-24T00:00:00	2024-11-08T16:00:00	7	Dirección del viento	1.61
79351	7	Sololá	717	San Juan la Laguna	12	San Juan la Laguna	9	Septiembre	2023-09-24T00:00:00	2024-11-08T16:00:00	1	Precipitación	0
79352	7	Sololá	717	San Juan la Laguna	12	San Juan la Laguna	9	Septiembre	2023-09-24T00:00:00	2024-11-08T16:00:00	8	Radiación solar	190
79353	7	Sololá	717	San Juan la Laguna	12	San Juan la Laguna	9	Septiembre	2023-09-24T00:00:00	2024-11-08T17:00:00	2	Temperatura media	21.3
79354	7	Sololá	717	San Juan la Laguna	12	San Juan la Laguna	9	Septiembre	2023-09-24T00:00:00	2024-11-08T17:00:00	4	Temperatura máxima	21.7
79355	7	Sololá	717	San Juan la Laguna	12	San Juan la Laguna	9	Septiembre	2023-09-24T00:00:00	2024-11-08T17:00:00	3	Temperatura mínima	21.3
79356	7	Sololá	717	San Juan la Laguna	12	San Juan la Laguna	9	Septiembre	2023-09-24T00:00:00	2024-11-08T17:00:00	5	Humedad	78
79357	7	Sololá	717	San Juan la Laguna	12	San Juan la Laguna	9	Septiembre	2023-09-24T00:00:00	2024-11-08T17:00:00	6	Velocidad del viento	1.6
79358	7	Sololá	717	San Juan la Laguna	12	San Juan la Laguna	9	Septiembre	2023-09-24T00:00:00	2024-11-08T17:00:00	7	Dirección del viento	1.61
79359	7	Sololá	717	San Juan la Laguna	12	San Juan la Laguna	9	Septiembre	2023-09-24T00:00:00	2024-11-08T17:00:00	1	Precipitación	0
79360	7	Sololá	717	San Juan la Laguna	12	San Juan la Laguna	9	Septiembre	2023-09-24T00:00:00	2024-11-08T17:00:00	8	Radiación solar	97
79361	7	Sololá	717	San Juan la Laguna	12	San Juan la Laguna	9	Septiembre	2023-09-24T00:00:00	2024-11-08T18:00:00	2	Temperatura media	20.3
79362	7	Sololá	717	San Juan la Laguna	12	San Juan la Laguna	9	Septiembre	2023-09-24T00:00:00	2024-11-08T18:00:00	4	Temperatura máxima	21.3
79363	7	Sololá	717	San Juan la Laguna	12	San Juan la Laguna	9	Septiembre	2023-09-24T00:00:00	2024-11-08T18:00:00	3	Temperatura mínima	20.3
79364	7	Sololá	717	San Juan la Laguna	12	San Juan la Laguna	9	Septiembre	2023-09-24T00:00:00	2024-11-08T18:00:00	5	Humedad	84
79365	7	Sololá	717	San Juan la Laguna	12	San Juan la Laguna	9	Septiembre	2023-09-24T00:00:00	2024-11-08T18:00:00	6	Velocidad del viento	0
79366	7	Sololá	717	San Juan la Laguna	12	San Juan la Laguna	9	Septiembre	2023-09-24T00:00:00	2024-11-08T18:00:00	7	Dirección del viento	0
79367	7	Sololá	717	San Juan la Laguna	12	San Juan la Laguna	9	Septiembre	2023-09-24T00:00:00	2024-11-08T18:00:00	1	Precipitación	0
79368	7	Sololá	717	San Juan la Laguna	12	San Juan la Laguna	9	Septiembre	2023-09-24T00:00:00	2024-11-08T18:00:00	8	Radiación solar	28
79369	7	Sololá	717	San Juan la Laguna	12	San Juan la Laguna	9	Septiembre	2023-09-24T00:00:00	2024-11-08T19:00:00	2	Temperatura media	19.8
79370	7	Sololá	717	San Juan la Laguna	12	San Juan la Laguna	9	Septiembre	2023-09-24T00:00:00	2024-11-08T19:00:00	4	Temperatura máxima	20.3
79371	7	Sololá	717	San Juan la Laguna	12	San Juan la Laguna	9	Septiembre	2023-09-24T00:00:00	2024-11-08T19:00:00	3	Temperatura mínima	19.7
79372	7	Sololá	717	San Juan la Laguna	12	San Juan la Laguna	9	Septiembre	2023-09-24T00:00:00	2024-11-08T19:00:00	5	Humedad	85
79373	7	Sololá	717	San Juan la Laguna	12	San Juan la Laguna	9	Septiembre	2023-09-24T00:00:00	2024-11-08T19:00:00	6	Velocidad del viento	1.6
79374	7	Sololá	717	San Juan la Laguna	12	San Juan la Laguna	9	Septiembre	2023-09-24T00:00:00	2024-11-08T19:00:00	7	Dirección del viento	1.61
79375	7	Sololá	717	San Juan la Laguna	12	San Juan la Laguna	9	Septiembre	2023-09-24T00:00:00	2024-11-08T19:00:00	1	Precipitación	0
79376	7	Sololá	717	San Juan la Laguna	12	San Juan la Laguna	9	Septiembre	2023-09-24T00:00:00	2024-11-08T19:00:00	8	Radiación solar	0
79377	7	Sololá	717	San Juan la Laguna	12	San Juan la Laguna	9	Septiembre	2023-09-24T00:00:00	2024-11-08T20:00:00	2	Temperatura media	19.7
79378	7	Sololá	717	San Juan la Laguna	12	San Juan la Laguna	9	Septiembre	2023-09-24T00:00:00	2024-11-08T20:00:00	4	Temperatura máxima	19.9
79379	7	Sololá	717	San Juan la Laguna	12	San Juan la Laguna	9	Septiembre	2023-09-24T00:00:00	2024-11-08T20:00:00	3	Temperatura mínima	19.7
79380	7	Sololá	717	San Juan la Laguna	12	San Juan la Laguna	9	Septiembre	2023-09-24T00:00:00	2024-11-08T20:00:00	5	Humedad	84
79381	7	Sololá	717	San Juan la Laguna	12	San Juan la Laguna	9	Septiembre	2023-09-24T00:00:00	2024-11-08T20:00:00	6	Velocidad del viento	1.6
79382	7	Sololá	717	San Juan la Laguna	12	San Juan la Laguna	9	Septiembre	2023-09-24T00:00:00	2024-11-08T20:00:00	7	Dirección del viento	1.61
79383	7	Sololá	717	San Juan la Laguna	12	San Juan la Laguna	9	Septiembre	2023-09-24T00:00:00	2024-11-08T20:00:00	1	Precipitación	0
79384	7	Sololá	717	San Juan la Laguna	12	San Juan la Laguna	9	Septiembre	2023-09-24T00:00:00	2024-11-08T20:00:00	8	Radiación solar	0
79385	7	Sololá	717	San Juan la Laguna	12	San Juan la Laguna	9	Septiembre	2023-09-24T00:00:00	2024-11-08T21:00:00	2	Temperatura media	19.1
79386	7	Sololá	717	San Juan la Laguna	12	San Juan la Laguna	9	Septiembre	2023-09-24T00:00:00	2024-11-08T21:00:00	4	Temperatura máxima	19.7
79387	7	Sololá	717	San Juan la Laguna	12	San Juan la Laguna	9	Septiembre	2023-09-24T00:00:00	2024-11-08T21:00:00	3	Temperatura mínima	19.1
79388	7	Sololá	717	San Juan la Laguna	12	San Juan la Laguna	9	Septiembre	2023-09-24T00:00:00	2024-11-08T21:00:00	5	Humedad	86
79389	7	Sololá	717	San Juan la Laguna	12	San Juan la Laguna	9	Septiembre	2023-09-24T00:00:00	2024-11-08T21:00:00	6	Velocidad del viento	1.6
79390	7	Sololá	717	San Juan la Laguna	12	San Juan la Laguna	9	Septiembre	2023-09-24T00:00:00	2024-11-08T21:00:00	7	Dirección del viento	1.61
79391	7	Sololá	717	San Juan la Laguna	12	San Juan la Laguna	9	Septiembre	2023-09-24T00:00:00	2024-11-08T21:00:00	1	Precipitación	0
79392	7	Sololá	717	San Juan la Laguna	12	San Juan la Laguna	9	Septiembre	2023-09-24T00:00:00	2024-11-08T21:00:00	8	Radiación solar	0
79393	7	Sololá	717	San Juan la Laguna	12	San Juan la Laguna	9	Septiembre	2023-09-24T00:00:00	2024-11-08T22:00:00	2	Temperatura media	19.1
79394	7	Sololá	717	San Juan la Laguna	12	San Juan la Laguna	9	Septiembre	2023-09-24T00:00:00	2024-11-08T22:00:00	4	Temperatura máxima	19.4
79395	7	Sololá	717	San Juan la Laguna	12	San Juan la Laguna	9	Septiembre	2023-09-24T00:00:00	2024-11-08T22:00:00	3	Temperatura mínima	19.1
79396	7	Sololá	717	San Juan la Laguna	12	San Juan la Laguna	9	Septiembre	2023-09-24T00:00:00	2024-11-08T22:00:00	5	Humedad	82
79397	7	Sololá	717	San Juan la Laguna	12	San Juan la Laguna	9	Septiembre	2023-09-24T00:00:00	2024-11-08T22:00:00	6	Velocidad del viento	3.2
79398	7	Sololá	717	San Juan la Laguna	12	San Juan la Laguna	9	Septiembre	2023-09-24T00:00:00	2024-11-08T22:00:00	7	Dirección del viento	3.22
79399	7	Sololá	717	San Juan la Laguna	12	San Juan la Laguna	9	Septiembre	2023-09-24T00:00:00	2024-11-08T22:00:00	1	Precipitación	0
79400	7	Sololá	717	San Juan la Laguna	12	San Juan la Laguna	9	Septiembre	2023-09-24T00:00:00	2024-11-08T22:00:00	8	Radiación solar	0
79401	7	Sololá	717	San Juan la Laguna	12	San Juan la Laguna	9	Septiembre	2023-09-24T00:00:00	2024-11-08T23:00:00	2	Temperatura media	17.7
79402	7	Sololá	717	San Juan la Laguna	12	San Juan la Laguna	9	Septiembre	2023-09-24T00:00:00	2024-11-08T23:00:00	4	Temperatura máxima	19.1
79403	7	Sololá	717	San Juan la Laguna	12	San Juan la Laguna	9	Septiembre	2023-09-24T00:00:00	2024-11-08T23:00:00	3	Temperatura mínima	17.7
79404	7	Sololá	717	San Juan la Laguna	12	San Juan la Laguna	9	Septiembre	2023-09-24T00:00:00	2024-11-08T23:00:00	5	Humedad	89
79405	7	Sololá	717	San Juan la Laguna	12	San Juan la Laguna	9	Septiembre	2023-09-24T00:00:00	2024-11-08T23:00:00	6	Velocidad del viento	1.6
79406	7	Sololá	717	San Juan la Laguna	12	San Juan la Laguna	9	Septiembre	2023-09-24T00:00:00	2024-11-08T23:00:00	7	Dirección del viento	1.61
79407	7	Sololá	717	San Juan la Laguna	12	San Juan la Laguna	9	Septiembre	2023-09-24T00:00:00	2024-11-08T23:00:00	1	Precipitación	5.2
79408	7	Sololá	717	San Juan la Laguna	12	San Juan la Laguna	9	Septiembre	2023-09-24T00:00:00	2024-11-08T23:00:00	8	Radiación solar	0
79409	7	Sololá	717	San Juan la Laguna	12	San Juan la Laguna	9	Septiembre	2023-09-25T00:00:00	2024-11-08T00:00:00	2	Temperatura media	17.1
79410	7	Sololá	717	San Juan la Laguna	12	San Juan la Laguna	9	Septiembre	2023-09-25T00:00:00	2024-11-08T00:00:00	4	Temperatura máxima	17.8
79411	7	Sololá	717	San Juan la Laguna	12	San Juan la Laguna	9	Septiembre	2023-09-25T00:00:00	2024-11-08T00:00:00	3	Temperatura mínima	17.1
79412	7	Sololá	717	San Juan la Laguna	12	San Juan la Laguna	9	Septiembre	2023-09-25T00:00:00	2024-11-08T00:00:00	5	Humedad	90
79413	7	Sololá	717	San Juan la Laguna	12	San Juan la Laguna	9	Septiembre	2023-09-25T00:00:00	2024-11-08T00:00:00	6	Velocidad del viento	3.2
79414	7	Sololá	717	San Juan la Laguna	12	San Juan la Laguna	9	Septiembre	2023-09-25T00:00:00	2024-11-08T00:00:00	7	Dirección del viento	3.22
79415	7	Sololá	717	San Juan la Laguna	12	San Juan la Laguna	9	Septiembre	2023-09-25T00:00:00	2024-11-08T00:00:00	1	Precipitación	7.2
79416	7	Sololá	717	San Juan la Laguna	12	San Juan la Laguna	9	Septiembre	2023-09-25T00:00:00	2024-11-08T00:00:00	8	Radiación solar	0
79417	7	Sololá	717	San Juan la Laguna	12	San Juan la Laguna	9	Septiembre	2023-09-25T00:00:00	2024-11-08T01:00:00	2	Temperatura media	16.1
79418	7	Sololá	717	San Juan la Laguna	12	San Juan la Laguna	9	Septiembre	2023-09-25T00:00:00	2024-11-08T01:00:00	4	Temperatura máxima	17
79419	7	Sololá	717	San Juan la Laguna	12	San Juan la Laguna	9	Septiembre	2023-09-25T00:00:00	2024-11-08T01:00:00	3	Temperatura mínima	16.1
79420	7	Sololá	717	San Juan la Laguna	12	San Juan la Laguna	9	Septiembre	2023-09-25T00:00:00	2024-11-08T01:00:00	5	Humedad	91
79421	7	Sololá	717	San Juan la Laguna	12	San Juan la Laguna	9	Septiembre	2023-09-25T00:00:00	2024-11-08T01:00:00	6	Velocidad del viento	1.6
79422	7	Sololá	717	San Juan la Laguna	12	San Juan la Laguna	9	Septiembre	2023-09-25T00:00:00	2024-11-08T01:00:00	7	Dirección del viento	1.61
79423	7	Sololá	717	San Juan la Laguna	12	San Juan la Laguna	9	Septiembre	2023-09-25T00:00:00	2024-11-08T01:00:00	1	Precipitación	19.8
79424	7	Sololá	717	San Juan la Laguna	12	San Juan la Laguna	9	Septiembre	2023-09-25T00:00:00	2024-11-08T01:00:00	8	Radiación solar	0
79425	7	Sololá	717	San Juan la Laguna	12	San Juan la Laguna	9	Septiembre	2023-09-25T00:00:00	2024-11-08T02:00:00	2	Temperatura media	16.3
79426	7	Sololá	717	San Juan la Laguna	12	San Juan la Laguna	9	Septiembre	2023-09-25T00:00:00	2024-11-08T02:00:00	4	Temperatura máxima	16.3
79427	7	Sololá	717	San Juan la Laguna	12	San Juan la Laguna	9	Septiembre	2023-09-25T00:00:00	2024-11-08T02:00:00	3	Temperatura mínima	16.1
79428	7	Sololá	717	San Juan la Laguna	12	San Juan la Laguna	9	Septiembre	2023-09-25T00:00:00	2024-11-08T02:00:00	5	Humedad	91
79429	7	Sololá	717	San Juan la Laguna	12	San Juan la Laguna	9	Septiembre	2023-09-25T00:00:00	2024-11-08T02:00:00	6	Velocidad del viento	0
79430	7	Sololá	717	San Juan la Laguna	12	San Juan la Laguna	9	Septiembre	2023-09-25T00:00:00	2024-11-08T02:00:00	7	Dirección del viento	0
79431	7	Sololá	717	San Juan la Laguna	12	San Juan la Laguna	9	Septiembre	2023-09-25T00:00:00	2024-11-08T02:00:00	1	Precipitación	2.4
79432	7	Sololá	717	San Juan la Laguna	12	San Juan la Laguna	9	Septiembre	2023-09-25T00:00:00	2024-11-08T02:00:00	8	Radiación solar	0
79433	7	Sololá	717	San Juan la Laguna	12	San Juan la Laguna	9	Septiembre	2023-09-25T00:00:00	2024-11-08T03:00:00	2	Temperatura media	16.3
79434	7	Sololá	717	San Juan la Laguna	12	San Juan la Laguna	9	Septiembre	2023-09-25T00:00:00	2024-11-08T03:00:00	4	Temperatura máxima	16.4
79435	7	Sololá	717	San Juan la Laguna	12	San Juan la Laguna	9	Septiembre	2023-09-25T00:00:00	2024-11-08T03:00:00	3	Temperatura mínima	16.3
79436	7	Sololá	717	San Juan la Laguna	12	San Juan la Laguna	9	Septiembre	2023-09-25T00:00:00	2024-11-08T03:00:00	5	Humedad	91
79437	7	Sololá	717	San Juan la Laguna	12	San Juan la Laguna	9	Septiembre	2023-09-25T00:00:00	2024-11-08T03:00:00	6	Velocidad del viento	1.6
79438	7	Sololá	717	San Juan la Laguna	12	San Juan la Laguna	9	Septiembre	2023-09-25T00:00:00	2024-11-08T03:00:00	7	Dirección del viento	1.61
79439	7	Sololá	717	San Juan la Laguna	12	San Juan la Laguna	9	Septiembre	2023-09-25T00:00:00	2024-11-08T03:00:00	1	Precipitación	0.6
79440	7	Sololá	717	San Juan la Laguna	12	San Juan la Laguna	9	Septiembre	2023-09-25T00:00:00	2024-11-08T03:00:00	8	Radiación solar	0
79441	7	Sololá	717	San Juan la Laguna	12	San Juan la Laguna	9	Septiembre	2023-09-25T00:00:00	2024-11-08T04:00:00	2	Temperatura media	16.4
79442	7	Sololá	717	San Juan la Laguna	12	San Juan la Laguna	9	Septiembre	2023-09-25T00:00:00	2024-11-08T04:00:00	4	Temperatura máxima	16.4
79443	7	Sololá	717	San Juan la Laguna	12	San Juan la Laguna	9	Septiembre	2023-09-25T00:00:00	2024-11-08T04:00:00	3	Temperatura mínima	16.3
79444	7	Sololá	717	San Juan la Laguna	12	San Juan la Laguna	9	Septiembre	2023-09-25T00:00:00	2024-11-08T04:00:00	5	Humedad	91
79445	7	Sololá	717	San Juan la Laguna	12	San Juan la Laguna	9	Septiembre	2023-09-25T00:00:00	2024-11-08T04:00:00	6	Velocidad del viento	3.2
79446	7	Sololá	717	San Juan la Laguna	12	San Juan la Laguna	9	Septiembre	2023-09-25T00:00:00	2024-11-08T04:00:00	7	Dirección del viento	3.22
79447	7	Sololá	717	San Juan la Laguna	12	San Juan la Laguna	9	Septiembre	2023-09-25T00:00:00	2024-11-08T04:00:00	1	Precipitación	0
79448	7	Sololá	717	San Juan la Laguna	12	San Juan la Laguna	9	Septiembre	2023-09-25T00:00:00	2024-11-08T04:00:00	8	Radiación solar	0
79449	7	Sololá	717	San Juan la Laguna	12	San Juan la Laguna	9	Septiembre	2023-09-25T00:00:00	2024-11-08T05:00:00	2	Temperatura media	16.4
79450	7	Sololá	717	San Juan la Laguna	12	San Juan la Laguna	9	Septiembre	2023-09-25T00:00:00	2024-11-08T05:00:00	4	Temperatura máxima	16.6
79451	7	Sololá	717	San Juan la Laguna	12	San Juan la Laguna	9	Septiembre	2023-09-25T00:00:00	2024-11-08T05:00:00	3	Temperatura mínima	16.4
79452	7	Sololá	717	San Juan la Laguna	12	San Juan la Laguna	9	Septiembre	2023-09-25T00:00:00	2024-11-08T05:00:00	5	Humedad	91
79453	7	Sololá	717	San Juan la Laguna	12	San Juan la Laguna	9	Septiembre	2023-09-25T00:00:00	2024-11-08T05:00:00	6	Velocidad del viento	3.2
79454	7	Sololá	717	San Juan la Laguna	12	San Juan la Laguna	9	Septiembre	2023-09-25T00:00:00	2024-11-08T05:00:00	7	Dirección del viento	3.22
79455	7	Sololá	717	San Juan la Laguna	12	San Juan la Laguna	9	Septiembre	2023-09-25T00:00:00	2024-11-08T05:00:00	1	Precipitación	0
79456	7	Sololá	717	San Juan la Laguna	12	San Juan la Laguna	9	Septiembre	2023-09-25T00:00:00	2024-11-08T05:00:00	8	Radiación solar	0
79457	7	Sololá	717	San Juan la Laguna	12	San Juan la Laguna	9	Septiembre	2023-09-25T00:00:00	2024-11-08T06:00:00	2	Temperatura media	16.7
79458	7	Sololá	717	San Juan la Laguna	12	San Juan la Laguna	9	Septiembre	2023-09-25T00:00:00	2024-11-08T06:00:00	4	Temperatura máxima	16.7
79459	7	Sololá	717	San Juan la Laguna	12	San Juan la Laguna	9	Septiembre	2023-09-25T00:00:00	2024-11-08T06:00:00	3	Temperatura mínima	16.4
79460	7	Sololá	717	San Juan la Laguna	12	San Juan la Laguna	9	Septiembre	2023-09-25T00:00:00	2024-11-08T06:00:00	5	Humedad	91
79461	7	Sololá	717	San Juan la Laguna	12	San Juan la Laguna	9	Septiembre	2023-09-25T00:00:00	2024-11-08T06:00:00	6	Velocidad del viento	3.2
79462	7	Sololá	717	San Juan la Laguna	12	San Juan la Laguna	9	Septiembre	2023-09-25T00:00:00	2024-11-08T06:00:00	7	Dirección del viento	3.22
79463	7	Sololá	717	San Juan la Laguna	12	San Juan la Laguna	9	Septiembre	2023-09-25T00:00:00	2024-11-08T06:00:00	1	Precipitación	0.2
79464	7	Sololá	717	San Juan la Laguna	12	San Juan la Laguna	9	Septiembre	2023-09-25T00:00:00	2024-11-08T06:00:00	8	Radiación solar	0
79465	7	Sololá	717	San Juan la Laguna	12	San Juan la Laguna	9	Septiembre	2023-09-25T00:00:00	2024-11-08T07:00:00	2	Temperatura media	16.4
79466	7	Sololá	717	San Juan la Laguna	12	San Juan la Laguna	9	Septiembre	2023-09-25T00:00:00	2024-11-08T07:00:00	4	Temperatura máxima	16.7
79467	7	Sololá	717	San Juan la Laguna	12	San Juan la Laguna	9	Septiembre	2023-09-25T00:00:00	2024-11-08T07:00:00	3	Temperatura mínima	16.3
79468	7	Sololá	717	San Juan la Laguna	12	San Juan la Laguna	9	Septiembre	2023-09-25T00:00:00	2024-11-08T07:00:00	5	Humedad	91
79469	7	Sololá	717	San Juan la Laguna	12	San Juan la Laguna	9	Septiembre	2023-09-25T00:00:00	2024-11-08T07:00:00	6	Velocidad del viento	4.8
79470	7	Sololá	717	San Juan la Laguna	12	San Juan la Laguna	9	Septiembre	2023-09-25T00:00:00	2024-11-08T07:00:00	7	Dirección del viento	4.83
79471	7	Sololá	717	San Juan la Laguna	12	San Juan la Laguna	9	Septiembre	2023-09-25T00:00:00	2024-11-08T07:00:00	1	Precipitación	2.6
79472	7	Sololá	717	San Juan la Laguna	12	San Juan la Laguna	9	Septiembre	2023-09-25T00:00:00	2024-11-08T07:00:00	8	Radiación solar	35
79473	7	Sololá	717	San Juan la Laguna	12	San Juan la Laguna	9	Septiembre	2023-09-25T00:00:00	2024-11-08T08:00:00	2	Temperatura media	18.7
79474	7	Sololá	717	San Juan la Laguna	12	San Juan la Laguna	9	Septiembre	2023-09-25T00:00:00	2024-11-08T08:00:00	4	Temperatura máxima	18.7
79475	7	Sololá	717	San Juan la Laguna	12	San Juan la Laguna	9	Septiembre	2023-09-25T00:00:00	2024-11-08T08:00:00	3	Temperatura mínima	16.4
79476	7	Sololá	717	San Juan la Laguna	12	San Juan la Laguna	9	Septiembre	2023-09-25T00:00:00	2024-11-08T08:00:00	5	Humedad	83
79477	7	Sololá	717	San Juan la Laguna	12	San Juan la Laguna	9	Septiembre	2023-09-25T00:00:00	2024-11-08T08:00:00	6	Velocidad del viento	4.8
79478	7	Sololá	717	San Juan la Laguna	12	San Juan la Laguna	9	Septiembre	2023-09-25T00:00:00	2024-11-08T08:00:00	7	Dirección del viento	4.83
79479	7	Sololá	717	San Juan la Laguna	12	San Juan la Laguna	9	Septiembre	2023-09-25T00:00:00	2024-11-08T08:00:00	1	Precipitación	0
79480	7	Sololá	717	San Juan la Laguna	12	San Juan la Laguna	9	Septiembre	2023-09-25T00:00:00	2024-11-08T08:00:00	8	Radiación solar	233
79481	7	Sololá	717	San Juan la Laguna	12	San Juan la Laguna	9	Septiembre	2023-09-25T00:00:00	2024-11-08T09:00:00	2	Temperatura media	20.6
79482	7	Sololá	717	San Juan la Laguna	12	San Juan la Laguna	9	Septiembre	2023-09-25T00:00:00	2024-11-08T09:00:00	4	Temperatura máxima	20.8
79483	7	Sololá	717	San Juan la Laguna	12	San Juan la Laguna	9	Septiembre	2023-09-25T00:00:00	2024-11-08T09:00:00	3	Temperatura mínima	18.7
79484	7	Sololá	717	San Juan la Laguna	12	San Juan la Laguna	9	Septiembre	2023-09-25T00:00:00	2024-11-08T09:00:00	5	Humedad	72
79485	7	Sololá	717	San Juan la Laguna	12	San Juan la Laguna	9	Septiembre	2023-09-25T00:00:00	2024-11-08T09:00:00	6	Velocidad del viento	4.8
79486	7	Sololá	717	San Juan la Laguna	12	San Juan la Laguna	9	Septiembre	2023-09-25T00:00:00	2024-11-08T09:00:00	7	Dirección del viento	4.83
79487	7	Sololá	717	San Juan la Laguna	12	San Juan la Laguna	9	Septiembre	2023-09-25T00:00:00	2024-11-08T09:00:00	1	Precipitación	0
79488	7	Sololá	717	San Juan la Laguna	12	San Juan la Laguna	9	Septiembre	2023-09-25T00:00:00	2024-11-08T09:00:00	8	Radiación solar	503
79489	7	Sololá	717	San Juan la Laguna	12	San Juan la Laguna	9	Septiembre	2023-09-25T00:00:00	2024-11-08T10:00:00	2	Temperatura media	21.3
79490	7	Sololá	717	San Juan la Laguna	12	San Juan la Laguna	9	Septiembre	2023-09-25T00:00:00	2024-11-08T10:00:00	4	Temperatura máxima	21.3
79491	7	Sololá	717	San Juan la Laguna	12	San Juan la Laguna	9	Septiembre	2023-09-25T00:00:00	2024-11-08T10:00:00	3	Temperatura mínima	20.4
79492	7	Sololá	717	San Juan la Laguna	12	San Juan la Laguna	9	Septiembre	2023-09-25T00:00:00	2024-11-08T10:00:00	5	Humedad	72
79493	7	Sololá	717	San Juan la Laguna	12	San Juan la Laguna	9	Septiembre	2023-09-25T00:00:00	2024-11-08T10:00:00	6	Velocidad del viento	3.2
79494	7	Sololá	717	San Juan la Laguna	12	San Juan la Laguna	9	Septiembre	2023-09-25T00:00:00	2024-11-08T10:00:00	7	Dirección del viento	3.22
79495	7	Sololá	717	San Juan la Laguna	12	San Juan la Laguna	9	Septiembre	2023-09-25T00:00:00	2024-11-08T10:00:00	1	Precipitación	0
79496	7	Sololá	717	San Juan la Laguna	12	San Juan la Laguna	9	Septiembre	2023-09-25T00:00:00	2024-11-08T10:00:00	8	Radiación solar	312
79497	7	Sololá	717	San Juan la Laguna	12	San Juan la Laguna	9	Septiembre	2023-09-25T00:00:00	2024-11-08T11:00:00	2	Temperatura media	23.2
79498	7	Sololá	717	San Juan la Laguna	12	San Juan la Laguna	9	Septiembre	2023-09-25T00:00:00	2024-11-08T11:00:00	4	Temperatura máxima	23.7
79499	7	Sololá	717	San Juan la Laguna	12	San Juan la Laguna	9	Septiembre	2023-09-25T00:00:00	2024-11-08T11:00:00	3	Temperatura mínima	21.3
79500	7	Sololá	717	San Juan la Laguna	12	San Juan la Laguna	9	Septiembre	2023-09-25T00:00:00	2024-11-08T11:00:00	5	Humedad	67
79501	7	Sololá	717	San Juan la Laguna	12	San Juan la Laguna	9	Septiembre	2023-09-25T00:00:00	2024-11-08T11:00:00	6	Velocidad del viento	4.8
79502	7	Sololá	717	San Juan la Laguna	12	San Juan la Laguna	9	Septiembre	2023-09-25T00:00:00	2024-11-08T11:00:00	7	Dirección del viento	4.83
79503	7	Sololá	717	San Juan la Laguna	12	San Juan la Laguna	9	Septiembre	2023-09-25T00:00:00	2024-11-08T11:00:00	1	Precipitación	0
79504	7	Sololá	717	San Juan la Laguna	12	San Juan la Laguna	9	Septiembre	2023-09-25T00:00:00	2024-11-08T11:00:00	8	Radiación solar	499
79505	7	Sololá	717	San Juan la Laguna	12	San Juan la Laguna	9	Septiembre	2023-09-25T00:00:00	2024-11-08T12:00:00	2	Temperatura media	22.3
79506	7	Sololá	717	San Juan la Laguna	12	San Juan la Laguna	9	Septiembre	2023-09-25T00:00:00	2024-11-08T12:00:00	4	Temperatura máxima	23.1
79507	7	Sololá	717	San Juan la Laguna	12	San Juan la Laguna	9	Septiembre	2023-09-25T00:00:00	2024-11-08T12:00:00	3	Temperatura mínima	22.2
79508	7	Sololá	717	San Juan la Laguna	12	San Juan la Laguna	9	Septiembre	2023-09-25T00:00:00	2024-11-08T12:00:00	5	Humedad	75
79509	7	Sololá	717	San Juan la Laguna	12	San Juan la Laguna	9	Septiembre	2023-09-25T00:00:00	2024-11-08T12:00:00	6	Velocidad del viento	8
79510	7	Sololá	717	San Juan la Laguna	12	San Juan la Laguna	9	Septiembre	2023-09-25T00:00:00	2024-11-08T12:00:00	7	Dirección del viento	8.05
79511	7	Sololá	717	San Juan la Laguna	12	San Juan la Laguna	9	Septiembre	2023-09-25T00:00:00	2024-11-08T12:00:00	1	Precipitación	0
79512	7	Sololá	717	San Juan la Laguna	12	San Juan la Laguna	9	Septiembre	2023-09-25T00:00:00	2024-11-08T12:00:00	8	Radiación solar	469
79513	7	Sololá	717	San Juan la Laguna	12	San Juan la Laguna	9	Septiembre	2023-09-25T00:00:00	2024-11-08T13:00:00	2	Temperatura media	21.8
79514	7	Sololá	717	San Juan la Laguna	12	San Juan la Laguna	9	Septiembre	2023-09-25T00:00:00	2024-11-08T13:00:00	4	Temperatura máxima	22.7
79515	7	Sololá	717	San Juan la Laguna	12	San Juan la Laguna	9	Septiembre	2023-09-25T00:00:00	2024-11-08T13:00:00	3	Temperatura mínima	21.8
79516	7	Sololá	717	San Juan la Laguna	12	San Juan la Laguna	9	Septiembre	2023-09-25T00:00:00	2024-11-08T13:00:00	5	Humedad	76
79517	7	Sololá	717	San Juan la Laguna	12	San Juan la Laguna	9	Septiembre	2023-09-25T00:00:00	2024-11-08T13:00:00	6	Velocidad del viento	11.3
79518	7	Sololá	717	San Juan la Laguna	12	San Juan la Laguna	9	Septiembre	2023-09-25T00:00:00	2024-11-08T13:00:00	7	Dirección del viento	11.27
79519	7	Sololá	717	San Juan la Laguna	12	San Juan la Laguna	9	Septiembre	2023-09-25T00:00:00	2024-11-08T13:00:00	1	Precipitación	0
79520	7	Sololá	717	San Juan la Laguna	12	San Juan la Laguna	9	Septiembre	2023-09-25T00:00:00	2024-11-08T13:00:00	8	Radiación solar	626
79521	7	Sololá	717	San Juan la Laguna	12	San Juan la Laguna	9	Septiembre	2023-09-25T00:00:00	2024-11-08T14:00:00	2	Temperatura media	20.3
79522	7	Sololá	717	San Juan la Laguna	12	San Juan la Laguna	9	Septiembre	2023-09-25T00:00:00	2024-11-08T14:00:00	4	Temperatura máxima	21.8
79523	7	Sololá	717	San Juan la Laguna	12	San Juan la Laguna	9	Septiembre	2023-09-25T00:00:00	2024-11-08T14:00:00	3	Temperatura mínima	20.1
79524	7	Sololá	717	San Juan la Laguna	12	San Juan la Laguna	9	Septiembre	2023-09-25T00:00:00	2024-11-08T14:00:00	5	Humedad	80
79525	7	Sololá	717	San Juan la Laguna	12	San Juan la Laguna	9	Septiembre	2023-09-25T00:00:00	2024-11-08T14:00:00	6	Velocidad del viento	9.7
79526	7	Sololá	717	San Juan la Laguna	12	San Juan la Laguna	9	Septiembre	2023-09-25T00:00:00	2024-11-08T14:00:00	7	Dirección del viento	9.66
79527	7	Sololá	717	San Juan la Laguna	12	San Juan la Laguna	9	Septiembre	2023-09-25T00:00:00	2024-11-08T14:00:00	1	Precipitación	0
79528	7	Sololá	717	San Juan la Laguna	12	San Juan la Laguna	9	Septiembre	2023-09-25T00:00:00	2024-11-08T14:00:00	8	Radiación solar	203
79529	7	Sololá	717	San Juan la Laguna	12	San Juan la Laguna	9	Septiembre	2023-09-25T00:00:00	2024-11-08T15:00:00	2	Temperatura media	20.6
79530	7	Sololá	717	San Juan la Laguna	12	San Juan la Laguna	9	Septiembre	2023-09-25T00:00:00	2024-11-08T15:00:00	4	Temperatura máxima	20.6
79531	7	Sololá	717	San Juan la Laguna	12	San Juan la Laguna	9	Septiembre	2023-09-25T00:00:00	2024-11-08T15:00:00	3	Temperatura mínima	20.3
79532	7	Sololá	717	San Juan la Laguna	12	San Juan la Laguna	9	Septiembre	2023-09-25T00:00:00	2024-11-08T15:00:00	5	Humedad	79
79533	7	Sololá	717	San Juan la Laguna	12	San Juan la Laguna	9	Septiembre	2023-09-25T00:00:00	2024-11-08T15:00:00	6	Velocidad del viento	6.4
79534	7	Sololá	717	San Juan la Laguna	12	San Juan la Laguna	9	Septiembre	2023-09-25T00:00:00	2024-11-08T15:00:00	7	Dirección del viento	6.44
79535	7	Sololá	717	San Juan la Laguna	12	San Juan la Laguna	9	Septiembre	2023-09-25T00:00:00	2024-11-08T15:00:00	1	Precipitación	0
79536	7	Sololá	717	San Juan la Laguna	12	San Juan la Laguna	9	Septiembre	2023-09-25T00:00:00	2024-11-08T15:00:00	8	Radiación solar	187
79537	7	Sololá	717	San Juan la Laguna	12	San Juan la Laguna	9	Septiembre	2023-09-25T00:00:00	2024-11-08T16:00:00	2	Temperatura media	19.9
79538	7	Sololá	717	San Juan la Laguna	12	San Juan la Laguna	9	Septiembre	2023-09-25T00:00:00	2024-11-08T16:00:00	4	Temperatura máxima	20.6
79539	7	Sololá	717	San Juan la Laguna	12	San Juan la Laguna	9	Septiembre	2023-09-25T00:00:00	2024-11-08T16:00:00	3	Temperatura mínima	19.9
79540	7	Sololá	717	San Juan la Laguna	12	San Juan la Laguna	9	Septiembre	2023-09-25T00:00:00	2024-11-08T16:00:00	5	Humedad	82
79541	7	Sololá	717	San Juan la Laguna	12	San Juan la Laguna	9	Septiembre	2023-09-25T00:00:00	2024-11-08T16:00:00	6	Velocidad del viento	3.2
79542	7	Sololá	717	San Juan la Laguna	12	San Juan la Laguna	9	Septiembre	2023-09-25T00:00:00	2024-11-08T16:00:00	7	Dirección del viento	3.22
79543	7	Sololá	717	San Juan la Laguna	12	San Juan la Laguna	9	Septiembre	2023-09-25T00:00:00	2024-11-08T16:00:00	1	Precipitación	0
79544	7	Sololá	717	San Juan la Laguna	12	San Juan la Laguna	9	Septiembre	2023-09-25T00:00:00	2024-11-08T16:00:00	8	Radiación solar	86
79545	7	Sololá	717	San Juan la Laguna	12	San Juan la Laguna	9	Septiembre	2023-09-25T00:00:00	2024-11-08T17:00:00	2	Temperatura media	19.6
79546	7	Sololá	717	San Juan la Laguna	12	San Juan la Laguna	9	Septiembre	2023-09-25T00:00:00	2024-11-08T17:00:00	4	Temperatura máxima	19.9
79547	7	Sololá	717	San Juan la Laguna	12	San Juan la Laguna	9	Septiembre	2023-09-25T00:00:00	2024-11-08T17:00:00	3	Temperatura mínima	19.6
79548	7	Sololá	717	San Juan la Laguna	12	San Juan la Laguna	9	Septiembre	2023-09-25T00:00:00	2024-11-08T17:00:00	5	Humedad	84
79549	7	Sololá	717	San Juan la Laguna	12	San Juan la Laguna	9	Septiembre	2023-09-25T00:00:00	2024-11-08T17:00:00	6	Velocidad del viento	0
79550	7	Sololá	717	San Juan la Laguna	12	San Juan la Laguna	9	Septiembre	2023-09-25T00:00:00	2024-11-08T17:00:00	7	Dirección del viento	0
79551	7	Sololá	717	San Juan la Laguna	12	San Juan la Laguna	9	Septiembre	2023-09-25T00:00:00	2024-11-08T17:00:00	1	Precipitación	0
79552	7	Sololá	717	San Juan la Laguna	12	San Juan la Laguna	9	Septiembre	2023-09-25T00:00:00	2024-11-08T17:00:00	8	Radiación solar	51
79553	7	Sololá	717	San Juan la Laguna	12	San Juan la Laguna	9	Septiembre	2023-09-25T00:00:00	2024-11-08T18:00:00	2	Temperatura media	19.2
79554	7	Sololá	717	San Juan la Laguna	12	San Juan la Laguna	9	Septiembre	2023-09-25T00:00:00	2024-11-08T18:00:00	4	Temperatura máxima	19.8
79555	7	Sololá	717	San Juan la Laguna	12	San Juan la Laguna	9	Septiembre	2023-09-25T00:00:00	2024-11-08T18:00:00	3	Temperatura mínima	19.2
79556	7	Sololá	717	San Juan la Laguna	12	San Juan la Laguna	9	Septiembre	2023-09-25T00:00:00	2024-11-08T18:00:00	5	Humedad	87
79557	7	Sololá	717	San Juan la Laguna	12	San Juan la Laguna	9	Septiembre	2023-09-25T00:00:00	2024-11-08T18:00:00	6	Velocidad del viento	1.6
79558	7	Sololá	717	San Juan la Laguna	12	San Juan la Laguna	9	Septiembre	2023-09-25T00:00:00	2024-11-08T18:00:00	7	Dirección del viento	1.61
79559	7	Sololá	717	San Juan la Laguna	12	San Juan la Laguna	9	Septiembre	2023-09-25T00:00:00	2024-11-08T18:00:00	1	Precipitación	0
79560	7	Sololá	717	San Juan la Laguna	12	San Juan la Laguna	9	Septiembre	2023-09-25T00:00:00	2024-11-08T18:00:00	8	Radiación solar	23
79561	7	Sololá	717	San Juan la Laguna	12	San Juan la Laguna	9	Septiembre	2023-09-25T00:00:00	2024-11-08T19:00:00	2	Temperatura media	18.3
79562	7	Sololá	717	San Juan la Laguna	12	San Juan la Laguna	9	Septiembre	2023-09-25T00:00:00	2024-11-08T19:00:00	4	Temperatura máxima	19.2
79563	7	Sololá	717	San Juan la Laguna	12	San Juan la Laguna	9	Septiembre	2023-09-25T00:00:00	2024-11-08T19:00:00	3	Temperatura mínima	18.3
79564	7	Sololá	717	San Juan la Laguna	12	San Juan la Laguna	9	Septiembre	2023-09-25T00:00:00	2024-11-08T19:00:00	5	Humedad	88
79565	7	Sololá	717	San Juan la Laguna	12	San Juan la Laguna	9	Septiembre	2023-09-25T00:00:00	2024-11-08T19:00:00	6	Velocidad del viento	3.2
79566	7	Sololá	717	San Juan la Laguna	12	San Juan la Laguna	9	Septiembre	2023-09-25T00:00:00	2024-11-08T19:00:00	7	Dirección del viento	3.22
79567	7	Sololá	717	San Juan la Laguna	12	San Juan la Laguna	9	Septiembre	2023-09-25T00:00:00	2024-11-08T19:00:00	1	Precipitación	0
79568	7	Sololá	717	San Juan la Laguna	12	San Juan la Laguna	9	Septiembre	2023-09-25T00:00:00	2024-11-08T19:00:00	8	Radiación solar	0
79569	7	Sololá	717	San Juan la Laguna	12	San Juan la Laguna	9	Septiembre	2023-09-25T00:00:00	2024-11-08T20:00:00	2	Temperatura media	18
79570	7	Sololá	717	San Juan la Laguna	12	San Juan la Laguna	9	Septiembre	2023-09-25T00:00:00	2024-11-08T20:00:00	4	Temperatura máxima	18.3
79571	7	Sololá	717	San Juan la Laguna	12	San Juan la Laguna	9	Septiembre	2023-09-25T00:00:00	2024-11-08T20:00:00	3	Temperatura mínima	18
79572	7	Sololá	717	San Juan la Laguna	12	San Juan la Laguna	9	Septiembre	2023-09-25T00:00:00	2024-11-08T20:00:00	5	Humedad	87
79573	7	Sololá	717	San Juan la Laguna	12	San Juan la Laguna	9	Septiembre	2023-09-25T00:00:00	2024-11-08T20:00:00	6	Velocidad del viento	4.8
79574	7	Sololá	717	San Juan la Laguna	12	San Juan la Laguna	9	Septiembre	2023-09-25T00:00:00	2024-11-08T20:00:00	7	Dirección del viento	4.83
79575	7	Sololá	717	San Juan la Laguna	12	San Juan la Laguna	9	Septiembre	2023-09-25T00:00:00	2024-11-08T20:00:00	1	Precipitación	0
79576	7	Sololá	717	San Juan la Laguna	12	San Juan la Laguna	9	Septiembre	2023-09-25T00:00:00	2024-11-08T20:00:00	8	Radiación solar	0
79577	7	Sololá	717	San Juan la Laguna	12	San Juan la Laguna	9	Septiembre	2023-09-25T00:00:00	2024-11-08T21:00:00	2	Temperatura media	17.9
79578	7	Sololá	717	San Juan la Laguna	12	San Juan la Laguna	9	Septiembre	2023-09-25T00:00:00	2024-11-08T21:00:00	4	Temperatura máxima	18
79579	7	Sololá	717	San Juan la Laguna	12	San Juan la Laguna	9	Septiembre	2023-09-25T00:00:00	2024-11-08T21:00:00	3	Temperatura mínima	17.8
79580	7	Sololá	717	San Juan la Laguna	12	San Juan la Laguna	9	Septiembre	2023-09-25T00:00:00	2024-11-08T21:00:00	5	Humedad	86
79581	7	Sololá	717	San Juan la Laguna	12	San Juan la Laguna	9	Septiembre	2023-09-25T00:00:00	2024-11-08T21:00:00	6	Velocidad del viento	6.4
79582	7	Sololá	717	San Juan la Laguna	12	San Juan la Laguna	9	Septiembre	2023-09-25T00:00:00	2024-11-08T21:00:00	7	Dirección del viento	6.44
79583	7	Sololá	717	San Juan la Laguna	12	San Juan la Laguna	9	Septiembre	2023-09-25T00:00:00	2024-11-08T21:00:00	1	Precipitación	0
79584	7	Sololá	717	San Juan la Laguna	12	San Juan la Laguna	9	Septiembre	2023-09-25T00:00:00	2024-11-08T21:00:00	8	Radiación solar	0
79585	7	Sololá	717	San Juan la Laguna	12	San Juan la Laguna	9	Septiembre	2023-09-25T00:00:00	2024-11-08T22:00:00	2	Temperatura media	17.8
79586	7	Sololá	717	San Juan la Laguna	12	San Juan la Laguna	9	Septiembre	2023-09-25T00:00:00	2024-11-08T22:00:00	4	Temperatura máxima	18
79587	7	Sololá	717	San Juan la Laguna	12	San Juan la Laguna	9	Septiembre	2023-09-25T00:00:00	2024-11-08T22:00:00	3	Temperatura mínima	17.7
79588	7	Sololá	717	San Juan la Laguna	12	San Juan la Laguna	9	Septiembre	2023-09-25T00:00:00	2024-11-08T22:00:00	5	Humedad	87
79589	7	Sololá	717	San Juan la Laguna	12	San Juan la Laguna	9	Septiembre	2023-09-25T00:00:00	2024-11-08T22:00:00	6	Velocidad del viento	4.8
79590	7	Sololá	717	San Juan la Laguna	12	San Juan la Laguna	9	Septiembre	2023-09-25T00:00:00	2024-11-08T22:00:00	7	Dirección del viento	4.83
79591	7	Sololá	717	San Juan la Laguna	12	San Juan la Laguna	9	Septiembre	2023-09-25T00:00:00	2024-11-08T22:00:00	1	Precipitación	0
79592	7	Sololá	717	San Juan la Laguna	12	San Juan la Laguna	9	Septiembre	2023-09-25T00:00:00	2024-11-08T22:00:00	8	Radiación solar	0
79593	7	Sololá	717	San Juan la Laguna	12	San Juan la Laguna	9	Septiembre	2023-09-25T00:00:00	2024-11-08T23:00:00	2	Temperatura media	17.9
79594	7	Sololá	717	San Juan la Laguna	12	San Juan la Laguna	9	Septiembre	2023-09-25T00:00:00	2024-11-08T23:00:00	4	Temperatura máxima	17.9
79595	7	Sololá	717	San Juan la Laguna	12	San Juan la Laguna	9	Septiembre	2023-09-25T00:00:00	2024-11-08T23:00:00	3	Temperatura mínima	17.7
79596	7	Sololá	717	San Juan la Laguna	12	San Juan la Laguna	9	Septiembre	2023-09-25T00:00:00	2024-11-08T23:00:00	5	Humedad	87
79597	7	Sololá	717	San Juan la Laguna	12	San Juan la Laguna	9	Septiembre	2023-09-25T00:00:00	2024-11-08T23:00:00	6	Velocidad del viento	3.2
79598	7	Sololá	717	San Juan la Laguna	12	San Juan la Laguna	9	Septiembre	2023-09-25T00:00:00	2024-11-08T23:00:00	7	Dirección del viento	3.22
79599	7	Sololá	717	San Juan la Laguna	12	San Juan la Laguna	9	Septiembre	2023-09-25T00:00:00	2024-11-08T23:00:00	1	Precipitación	0
79600	7	Sololá	717	San Juan la Laguna	12	San Juan la Laguna	9	Septiembre	2023-09-25T00:00:00	2024-11-08T23:00:00	8	Radiación solar	0
79601	7	Sololá	717	San Juan la Laguna	12	San Juan la Laguna	9	Septiembre	2023-09-26T00:00:00	2024-11-08T00:00:00	2	Temperatura media	17.8
79602	7	Sololá	717	San Juan la Laguna	12	San Juan la Laguna	9	Septiembre	2023-09-26T00:00:00	2024-11-08T00:00:00	4	Temperatura máxima	18
79603	7	Sololá	717	San Juan la Laguna	12	San Juan la Laguna	9	Septiembre	2023-09-26T00:00:00	2024-11-08T00:00:00	3	Temperatura mínima	17.8
79604	7	Sololá	717	San Juan la Laguna	12	San Juan la Laguna	9	Septiembre	2023-09-26T00:00:00	2024-11-08T00:00:00	5	Humedad	87
79605	7	Sololá	717	San Juan la Laguna	12	San Juan la Laguna	9	Septiembre	2023-09-26T00:00:00	2024-11-08T00:00:00	6	Velocidad del viento	3.2
79606	7	Sololá	717	San Juan la Laguna	12	San Juan la Laguna	9	Septiembre	2023-09-26T00:00:00	2024-11-08T00:00:00	7	Dirección del viento	3.22
79607	7	Sololá	717	San Juan la Laguna	12	San Juan la Laguna	9	Septiembre	2023-09-26T00:00:00	2024-11-08T00:00:00	1	Precipitación	0
79608	7	Sololá	717	San Juan la Laguna	12	San Juan la Laguna	9	Septiembre	2023-09-26T00:00:00	2024-11-08T00:00:00	8	Radiación solar	0
79609	7	Sololá	717	San Juan la Laguna	12	San Juan la Laguna	9	Septiembre	2023-09-26T00:00:00	2024-11-08T01:00:00	2	Temperatura media	18.2
79610	7	Sololá	717	San Juan la Laguna	12	San Juan la Laguna	9	Septiembre	2023-09-26T00:00:00	2024-11-08T01:00:00	4	Temperatura máxima	18.2
79611	7	Sololá	717	San Juan la Laguna	12	San Juan la Laguna	9	Septiembre	2023-09-26T00:00:00	2024-11-08T01:00:00	3	Temperatura mínima	17.8
79612	7	Sololá	717	San Juan la Laguna	12	San Juan la Laguna	9	Septiembre	2023-09-26T00:00:00	2024-11-08T01:00:00	5	Humedad	86
79613	7	Sololá	717	San Juan la Laguna	12	San Juan la Laguna	9	Septiembre	2023-09-26T00:00:00	2024-11-08T01:00:00	6	Velocidad del viento	4.8
79614	7	Sololá	717	San Juan la Laguna	12	San Juan la Laguna	9	Septiembre	2023-09-26T00:00:00	2024-11-08T01:00:00	7	Dirección del viento	4.83
79615	7	Sololá	717	San Juan la Laguna	12	San Juan la Laguna	9	Septiembre	2023-09-26T00:00:00	2024-11-08T01:00:00	1	Precipitación	0
79616	7	Sololá	717	San Juan la Laguna	12	San Juan la Laguna	9	Septiembre	2023-09-26T00:00:00	2024-11-08T01:00:00	8	Radiación solar	0
79617	7	Sololá	717	San Juan la Laguna	12	San Juan la Laguna	9	Septiembre	2023-09-26T00:00:00	2024-11-08T02:00:00	2	Temperatura media	17.6
79618	7	Sololá	717	San Juan la Laguna	12	San Juan la Laguna	9	Septiembre	2023-09-26T00:00:00	2024-11-08T02:00:00	4	Temperatura máxima	18.4
79619	7	Sololá	717	San Juan la Laguna	12	San Juan la Laguna	9	Septiembre	2023-09-26T00:00:00	2024-11-08T02:00:00	3	Temperatura mínima	17.6
79620	7	Sololá	717	San Juan la Laguna	12	San Juan la Laguna	9	Septiembre	2023-09-26T00:00:00	2024-11-08T02:00:00	5	Humedad	90
79621	7	Sololá	717	San Juan la Laguna	12	San Juan la Laguna	9	Septiembre	2023-09-26T00:00:00	2024-11-08T02:00:00	6	Velocidad del viento	1.6
79622	7	Sololá	717	San Juan la Laguna	12	San Juan la Laguna	9	Septiembre	2023-09-26T00:00:00	2024-11-08T02:00:00	7	Dirección del viento	1.61
79623	7	Sololá	717	San Juan la Laguna	12	San Juan la Laguna	9	Septiembre	2023-09-26T00:00:00	2024-11-08T02:00:00	1	Precipitación	1.2
79624	7	Sololá	717	San Juan la Laguna	12	San Juan la Laguna	9	Septiembre	2023-09-26T00:00:00	2024-11-08T02:00:00	8	Radiación solar	0
79625	7	Sololá	717	San Juan la Laguna	12	San Juan la Laguna	9	Septiembre	2023-09-26T00:00:00	2024-11-08T03:00:00	2	Temperatura media	16.8
79626	7	Sololá	717	San Juan la Laguna	12	San Juan la Laguna	9	Septiembre	2023-09-26T00:00:00	2024-11-08T03:00:00	4	Temperatura máxima	17.7
79627	7	Sololá	717	San Juan la Laguna	12	San Juan la Laguna	9	Septiembre	2023-09-26T00:00:00	2024-11-08T03:00:00	3	Temperatura mínima	16.8
79628	7	Sololá	717	San Juan la Laguna	12	San Juan la Laguna	9	Septiembre	2023-09-26T00:00:00	2024-11-08T03:00:00	5	Humedad	91
79629	7	Sololá	717	San Juan la Laguna	12	San Juan la Laguna	9	Septiembre	2023-09-26T00:00:00	2024-11-08T03:00:00	6	Velocidad del viento	3.2
79630	7	Sololá	717	San Juan la Laguna	12	San Juan la Laguna	9	Septiembre	2023-09-26T00:00:00	2024-11-08T03:00:00	7	Dirección del viento	3.22
79631	7	Sololá	717	San Juan la Laguna	12	San Juan la Laguna	9	Septiembre	2023-09-26T00:00:00	2024-11-08T03:00:00	1	Precipitación	0.2
79632	7	Sololá	717	San Juan la Laguna	12	San Juan la Laguna	9	Septiembre	2023-09-26T00:00:00	2024-11-08T03:00:00	8	Radiación solar	0
79633	7	Sololá	717	San Juan la Laguna	12	San Juan la Laguna	9	Septiembre	2023-09-26T00:00:00	2024-11-08T04:00:00	2	Temperatura media	16.8
79634	7	Sololá	717	San Juan la Laguna	12	San Juan la Laguna	9	Septiembre	2023-09-26T00:00:00	2024-11-08T04:00:00	4	Temperatura máxima	16.9
79635	7	Sololá	717	San Juan la Laguna	12	San Juan la Laguna	9	Septiembre	2023-09-26T00:00:00	2024-11-08T04:00:00	3	Temperatura mínima	16.7
79636	7	Sololá	717	San Juan la Laguna	12	San Juan la Laguna	9	Septiembre	2023-09-26T00:00:00	2024-11-08T04:00:00	5	Humedad	89
79637	7	Sololá	717	San Juan la Laguna	12	San Juan la Laguna	9	Septiembre	2023-09-26T00:00:00	2024-11-08T04:00:00	6	Velocidad del viento	6.4
79638	7	Sololá	717	San Juan la Laguna	12	San Juan la Laguna	9	Septiembre	2023-09-26T00:00:00	2024-11-08T04:00:00	7	Dirección del viento	6.44
79639	7	Sololá	717	San Juan la Laguna	12	San Juan la Laguna	9	Septiembre	2023-09-26T00:00:00	2024-11-08T04:00:00	1	Precipitación	0
79640	7	Sololá	717	San Juan la Laguna	12	San Juan la Laguna	9	Septiembre	2023-09-26T00:00:00	2024-11-08T04:00:00	8	Radiación solar	0
79641	7	Sololá	717	San Juan la Laguna	12	San Juan la Laguna	9	Septiembre	2023-09-26T00:00:00	2024-11-08T05:00:00	2	Temperatura media	15.8
79642	7	Sololá	717	San Juan la Laguna	12	San Juan la Laguna	9	Septiembre	2023-09-26T00:00:00	2024-11-08T05:00:00	4	Temperatura máxima	16.8
79643	7	Sololá	717	San Juan la Laguna	12	San Juan la Laguna	9	Septiembre	2023-09-26T00:00:00	2024-11-08T05:00:00	3	Temperatura mínima	15.8
79644	7	Sololá	717	San Juan la Laguna	12	San Juan la Laguna	9	Septiembre	2023-09-26T00:00:00	2024-11-08T05:00:00	5	Humedad	90
79645	7	Sololá	717	San Juan la Laguna	12	San Juan la Laguna	9	Septiembre	2023-09-26T00:00:00	2024-11-08T05:00:00	6	Velocidad del viento	4.8
79646	7	Sololá	717	San Juan la Laguna	12	San Juan la Laguna	9	Septiembre	2023-09-26T00:00:00	2024-11-08T05:00:00	7	Dirección del viento	4.83
79647	7	Sololá	717	San Juan la Laguna	12	San Juan la Laguna	9	Septiembre	2023-09-26T00:00:00	2024-11-08T05:00:00	1	Precipitación	0
79648	7	Sololá	717	San Juan la Laguna	12	San Juan la Laguna	9	Septiembre	2023-09-26T00:00:00	2024-11-08T05:00:00	8	Radiación solar	0
79649	7	Sololá	717	San Juan la Laguna	12	San Juan la Laguna	9	Septiembre	2023-09-26T00:00:00	2024-11-08T06:00:00	2	Temperatura media	15.2
79650	7	Sololá	717	San Juan la Laguna	12	San Juan la Laguna	9	Septiembre	2023-09-26T00:00:00	2024-11-08T06:00:00	4	Temperatura máxima	15.8
79651	7	Sololá	717	San Juan la Laguna	12	San Juan la Laguna	9	Septiembre	2023-09-26T00:00:00	2024-11-08T06:00:00	3	Temperatura mínima	15.2
79652	7	Sololá	717	San Juan la Laguna	12	San Juan la Laguna	9	Septiembre	2023-09-26T00:00:00	2024-11-08T06:00:00	5	Humedad	89
79653	7	Sololá	717	San Juan la Laguna	12	San Juan la Laguna	9	Septiembre	2023-09-26T00:00:00	2024-11-08T06:00:00	6	Velocidad del viento	4.8
79654	7	Sololá	717	San Juan la Laguna	12	San Juan la Laguna	9	Septiembre	2023-09-26T00:00:00	2024-11-08T06:00:00	7	Dirección del viento	4.83
79655	7	Sololá	717	San Juan la Laguna	12	San Juan la Laguna	9	Septiembre	2023-09-26T00:00:00	2024-11-08T06:00:00	1	Precipitación	0
79656	7	Sololá	717	San Juan la Laguna	12	San Juan la Laguna	9	Septiembre	2023-09-26T00:00:00	2024-11-08T06:00:00	8	Radiación solar	0
79657	7	Sololá	717	San Juan la Laguna	12	San Juan la Laguna	9	Septiembre	2023-09-26T00:00:00	2024-11-08T07:00:00	2	Temperatura media	16.6
79658	7	Sololá	717	San Juan la Laguna	12	San Juan la Laguna	9	Septiembre	2023-09-26T00:00:00	2024-11-08T07:00:00	4	Temperatura máxima	16.6
79659	7	Sololá	717	San Juan la Laguna	12	San Juan la Laguna	9	Septiembre	2023-09-26T00:00:00	2024-11-08T07:00:00	3	Temperatura mínima	15.2
79660	7	Sololá	717	San Juan la Laguna	12	San Juan la Laguna	9	Septiembre	2023-09-26T00:00:00	2024-11-08T07:00:00	5	Humedad	86
79661	7	Sololá	717	San Juan la Laguna	12	San Juan la Laguna	9	Septiembre	2023-09-26T00:00:00	2024-11-08T07:00:00	6	Velocidad del viento	6.4
79662	7	Sololá	717	San Juan la Laguna	12	San Juan la Laguna	9	Septiembre	2023-09-26T00:00:00	2024-11-08T07:00:00	7	Dirección del viento	6.44
79663	7	Sololá	717	San Juan la Laguna	12	San Juan la Laguna	9	Septiembre	2023-09-26T00:00:00	2024-11-08T07:00:00	1	Precipitación	0
79664	7	Sololá	717	San Juan la Laguna	12	San Juan la Laguna	9	Septiembre	2023-09-26T00:00:00	2024-11-08T07:00:00	8	Radiación solar	64
79665	7	Sololá	717	San Juan la Laguna	12	San Juan la Laguna	9	Septiembre	2023-09-26T00:00:00	2024-11-08T08:00:00	2	Temperatura media	20.2
79666	7	Sololá	717	San Juan la Laguna	12	San Juan la Laguna	9	Septiembre	2023-09-26T00:00:00	2024-11-08T08:00:00	4	Temperatura máxima	20.2
79667	7	Sololá	717	San Juan la Laguna	12	San Juan la Laguna	9	Septiembre	2023-09-26T00:00:00	2024-11-08T08:00:00	3	Temperatura mínima	16.6
79668	7	Sololá	717	San Juan la Laguna	12	San Juan la Laguna	9	Septiembre	2023-09-26T00:00:00	2024-11-08T08:00:00	5	Humedad	79
79669	7	Sololá	717	San Juan la Laguna	12	San Juan la Laguna	9	Septiembre	2023-09-26T00:00:00	2024-11-08T08:00:00	6	Velocidad del viento	3.2
79670	7	Sololá	717	San Juan la Laguna	12	San Juan la Laguna	9	Septiembre	2023-09-26T00:00:00	2024-11-08T08:00:00	7	Dirección del viento	3.22
79671	7	Sololá	717	San Juan la Laguna	12	San Juan la Laguna	9	Septiembre	2023-09-26T00:00:00	2024-11-08T08:00:00	1	Precipitación	0
79672	7	Sololá	717	San Juan la Laguna	12	San Juan la Laguna	9	Septiembre	2023-09-26T00:00:00	2024-11-08T08:00:00	8	Radiación solar	264
79673	7	Sololá	717	San Juan la Laguna	12	San Juan la Laguna	9	Septiembre	2023-09-26T00:00:00	2024-11-08T09:00:00	2	Temperatura media	22.2
79674	7	Sololá	717	San Juan la Laguna	12	San Juan la Laguna	9	Septiembre	2023-09-26T00:00:00	2024-11-08T09:00:00	4	Temperatura máxima	22.2
79675	7	Sololá	717	San Juan la Laguna	12	San Juan la Laguna	9	Septiembre	2023-09-26T00:00:00	2024-11-08T09:00:00	3	Temperatura mínima	20.2
79676	7	Sololá	717	San Juan la Laguna	12	San Juan la Laguna	9	Septiembre	2023-09-26T00:00:00	2024-11-08T09:00:00	5	Humedad	71
79677	7	Sololá	717	San Juan la Laguna	12	San Juan la Laguna	9	Septiembre	2023-09-26T00:00:00	2024-11-08T09:00:00	6	Velocidad del viento	4.8
79678	7	Sololá	717	San Juan la Laguna	12	San Juan la Laguna	9	Septiembre	2023-09-26T00:00:00	2024-11-08T09:00:00	7	Dirección del viento	4.83
79679	7	Sololá	717	San Juan la Laguna	12	San Juan la Laguna	9	Septiembre	2023-09-26T00:00:00	2024-11-08T09:00:00	1	Precipitación	0
79680	7	Sololá	717	San Juan la Laguna	12	San Juan la Laguna	9	Septiembre	2023-09-26T00:00:00	2024-11-08T09:00:00	8	Radiación solar	502
79681	7	Sololá	717	San Juan la Laguna	12	San Juan la Laguna	9	Septiembre	2023-09-26T00:00:00	2024-11-08T10:00:00	2	Temperatura media	24.2
79682	7	Sololá	717	San Juan la Laguna	12	San Juan la Laguna	9	Septiembre	2023-09-26T00:00:00	2024-11-08T10:00:00	4	Temperatura máxima	24.2
79683	7	Sololá	717	San Juan la Laguna	12	San Juan la Laguna	9	Septiembre	2023-09-26T00:00:00	2024-11-08T10:00:00	3	Temperatura mínima	22.2
79684	7	Sololá	717	San Juan la Laguna	12	San Juan la Laguna	9	Septiembre	2023-09-26T00:00:00	2024-11-08T10:00:00	5	Humedad	60
79685	7	Sololá	717	San Juan la Laguna	12	San Juan la Laguna	9	Septiembre	2023-09-26T00:00:00	2024-11-08T10:00:00	6	Velocidad del viento	4.8
79686	7	Sololá	717	San Juan la Laguna	12	San Juan la Laguna	9	Septiembre	2023-09-26T00:00:00	2024-11-08T10:00:00	7	Dirección del viento	4.83
79687	7	Sololá	717	San Juan la Laguna	12	San Juan la Laguna	9	Septiembre	2023-09-26T00:00:00	2024-11-08T10:00:00	1	Precipitación	0
79688	7	Sololá	717	San Juan la Laguna	12	San Juan la Laguna	9	Septiembre	2023-09-26T00:00:00	2024-11-08T10:00:00	8	Radiación solar	684
79689	7	Sololá	717	San Juan la Laguna	12	San Juan la Laguna	9	Septiembre	2023-09-26T00:00:00	2024-11-08T11:00:00	2	Temperatura media	25.1
79690	7	Sololá	717	San Juan la Laguna	12	San Juan la Laguna	9	Septiembre	2023-09-26T00:00:00	2024-11-08T11:00:00	4	Temperatura máxima	25.4
79691	7	Sololá	717	San Juan la Laguna	12	San Juan la Laguna	9	Septiembre	2023-09-26T00:00:00	2024-11-08T11:00:00	3	Temperatura mínima	24.1
79692	7	Sololá	717	San Juan la Laguna	12	San Juan la Laguna	9	Septiembre	2023-09-26T00:00:00	2024-11-08T11:00:00	5	Humedad	59
79693	7	Sololá	717	San Juan la Laguna	12	San Juan la Laguna	9	Septiembre	2023-09-26T00:00:00	2024-11-08T11:00:00	6	Velocidad del viento	4.8
79694	7	Sololá	717	San Juan la Laguna	12	San Juan la Laguna	9	Septiembre	2023-09-26T00:00:00	2024-11-08T11:00:00	7	Dirección del viento	4.83
79695	7	Sololá	717	San Juan la Laguna	12	San Juan la Laguna	9	Septiembre	2023-09-26T00:00:00	2024-11-08T11:00:00	1	Precipitación	0
79696	7	Sololá	717	San Juan la Laguna	12	San Juan la Laguna	9	Septiembre	2023-09-26T00:00:00	2024-11-08T11:00:00	8	Radiación solar	824
79697	7	Sololá	717	San Juan la Laguna	12	San Juan la Laguna	9	Septiembre	2023-09-26T00:00:00	2024-11-08T12:00:00	2	Temperatura media	25.8
79698	7	Sololá	717	San Juan la Laguna	12	San Juan la Laguna	9	Septiembre	2023-09-26T00:00:00	2024-11-08T12:00:00	4	Temperatura máxima	26.2
79699	7	Sololá	717	San Juan la Laguna	12	San Juan la Laguna	9	Septiembre	2023-09-26T00:00:00	2024-11-08T12:00:00	3	Temperatura mínima	25.1
79700	7	Sololá	717	San Juan la Laguna	12	San Juan la Laguna	9	Septiembre	2023-09-26T00:00:00	2024-11-08T12:00:00	5	Humedad	60
79701	7	Sololá	717	San Juan la Laguna	12	San Juan la Laguna	9	Septiembre	2023-09-26T00:00:00	2024-11-08T12:00:00	6	Velocidad del viento	8
79702	7	Sololá	717	San Juan la Laguna	12	San Juan la Laguna	9	Septiembre	2023-09-26T00:00:00	2024-11-08T12:00:00	7	Dirección del viento	8.05
79703	7	Sololá	717	San Juan la Laguna	12	San Juan la Laguna	9	Septiembre	2023-09-26T00:00:00	2024-11-08T12:00:00	1	Precipitación	0
79704	7	Sololá	717	San Juan la Laguna	12	San Juan la Laguna	9	Septiembre	2023-09-26T00:00:00	2024-11-08T12:00:00	8	Radiación solar	883
79705	7	Sololá	717	San Juan la Laguna	12	San Juan la Laguna	9	Septiembre	2023-09-26T00:00:00	2024-11-08T13:00:00	2	Temperatura media	24.4
79706	7	Sololá	717	San Juan la Laguna	12	San Juan la Laguna	9	Septiembre	2023-09-26T00:00:00	2024-11-08T13:00:00	4	Temperatura máxima	25.8
79707	7	Sololá	717	San Juan la Laguna	12	San Juan la Laguna	9	Septiembre	2023-09-26T00:00:00	2024-11-08T13:00:00	3	Temperatura mínima	24.4
79708	7	Sololá	717	San Juan la Laguna	12	San Juan la Laguna	9	Septiembre	2023-09-26T00:00:00	2024-11-08T13:00:00	5	Humedad	69
79709	7	Sololá	717	San Juan la Laguna	12	San Juan la Laguna	9	Septiembre	2023-09-26T00:00:00	2024-11-08T13:00:00	6	Velocidad del viento	8
79710	7	Sololá	717	San Juan la Laguna	12	San Juan la Laguna	9	Septiembre	2023-09-26T00:00:00	2024-11-08T13:00:00	7	Dirección del viento	8.05
79711	7	Sololá	717	San Juan la Laguna	12	San Juan la Laguna	9	Septiembre	2023-09-26T00:00:00	2024-11-08T13:00:00	1	Precipitación	0
79712	7	Sololá	717	San Juan la Laguna	12	San Juan la Laguna	9	Septiembre	2023-09-26T00:00:00	2024-11-08T13:00:00	8	Radiación solar	842
79713	7	Sololá	717	San Juan la Laguna	12	San Juan la Laguna	9	Septiembre	2023-09-26T00:00:00	2024-11-08T14:00:00	2	Temperatura media	23.3
79714	7	Sololá	717	San Juan la Laguna	12	San Juan la Laguna	9	Septiembre	2023-09-26T00:00:00	2024-11-08T14:00:00	4	Temperatura máxima	25.1
79715	7	Sololá	717	San Juan la Laguna	12	San Juan la Laguna	9	Septiembre	2023-09-26T00:00:00	2024-11-08T14:00:00	3	Temperatura mínima	23.2
79716	7	Sololá	717	San Juan la Laguna	12	San Juan la Laguna	9	Septiembre	2023-09-26T00:00:00	2024-11-08T14:00:00	5	Humedad	75
79717	7	Sololá	717	San Juan la Laguna	12	San Juan la Laguna	9	Septiembre	2023-09-26T00:00:00	2024-11-08T14:00:00	6	Velocidad del viento	4.8
79718	7	Sololá	717	San Juan la Laguna	12	San Juan la Laguna	9	Septiembre	2023-09-26T00:00:00	2024-11-08T14:00:00	7	Dirección del viento	4.83
79719	7	Sololá	717	San Juan la Laguna	12	San Juan la Laguna	9	Septiembre	2023-09-26T00:00:00	2024-11-08T14:00:00	1	Precipitación	0
79720	7	Sololá	717	San Juan la Laguna	12	San Juan la Laguna	9	Septiembre	2023-09-26T00:00:00	2024-11-08T14:00:00	8	Radiación solar	305
79721	7	Sololá	717	San Juan la Laguna	12	San Juan la Laguna	9	Septiembre	2023-09-26T00:00:00	2024-11-08T15:00:00	2	Temperatura media	21.9
79722	7	Sololá	717	San Juan la Laguna	12	San Juan la Laguna	9	Septiembre	2023-09-26T00:00:00	2024-11-08T15:00:00	4	Temperatura máxima	23.9
79723	7	Sololá	717	San Juan la Laguna	12	San Juan la Laguna	9	Septiembre	2023-09-26T00:00:00	2024-11-08T15:00:00	3	Temperatura mínima	21.8
79724	7	Sololá	717	San Juan la Laguna	12	San Juan la Laguna	9	Septiembre	2023-09-26T00:00:00	2024-11-08T15:00:00	5	Humedad	80
79725	7	Sololá	717	San Juan la Laguna	12	San Juan la Laguna	9	Septiembre	2023-09-26T00:00:00	2024-11-08T15:00:00	6	Velocidad del viento	12.9
79726	7	Sololá	717	San Juan la Laguna	12	San Juan la Laguna	9	Septiembre	2023-09-26T00:00:00	2024-11-08T15:00:00	7	Dirección del viento	12.87
79727	7	Sololá	717	San Juan la Laguna	12	San Juan la Laguna	9	Septiembre	2023-09-26T00:00:00	2024-11-08T15:00:00	1	Precipitación	0
79728	7	Sololá	717	San Juan la Laguna	12	San Juan la Laguna	9	Septiembre	2023-09-26T00:00:00	2024-11-08T15:00:00	8	Radiación solar	325
79729	7	Sololá	717	San Juan la Laguna	12	San Juan la Laguna	9	Septiembre	2023-09-26T00:00:00	2024-11-08T16:00:00	2	Temperatura media	21.6
79730	7	Sololá	717	San Juan la Laguna	12	San Juan la Laguna	9	Septiembre	2023-09-26T00:00:00	2024-11-08T16:00:00	4	Temperatura máxima	22.3
79731	7	Sololá	717	San Juan la Laguna	12	San Juan la Laguna	9	Septiembre	2023-09-26T00:00:00	2024-11-08T16:00:00	3	Temperatura mínima	21.6
79732	7	Sololá	717	San Juan la Laguna	12	San Juan la Laguna	9	Septiembre	2023-09-26T00:00:00	2024-11-08T16:00:00	5	Humedad	80
79733	7	Sololá	717	San Juan la Laguna	12	San Juan la Laguna	9	Septiembre	2023-09-26T00:00:00	2024-11-08T16:00:00	6	Velocidad del viento	8
79734	7	Sololá	717	San Juan la Laguna	12	San Juan la Laguna	9	Septiembre	2023-09-26T00:00:00	2024-11-08T16:00:00	7	Dirección del viento	8.05
79735	7	Sololá	717	San Juan la Laguna	12	San Juan la Laguna	9	Septiembre	2023-09-26T00:00:00	2024-11-08T16:00:00	1	Precipitación	0
79736	7	Sololá	717	San Juan la Laguna	12	San Juan la Laguna	9	Septiembre	2023-09-26T00:00:00	2024-11-08T16:00:00	8	Radiación solar	212
79737	7	Sololá	717	San Juan la Laguna	12	San Juan la Laguna	9	Septiembre	2023-09-26T00:00:00	2024-11-08T17:00:00	2	Temperatura media	16.9
79738	7	Sololá	717	San Juan la Laguna	12	San Juan la Laguna	9	Septiembre	2023-09-26T00:00:00	2024-11-08T17:00:00	4	Temperatura máxima	21.6
79739	7	Sololá	717	San Juan la Laguna	12	San Juan la Laguna	9	Septiembre	2023-09-26T00:00:00	2024-11-08T17:00:00	3	Temperatura mínima	16.9
79740	7	Sololá	717	San Juan la Laguna	12	San Juan la Laguna	9	Septiembre	2023-09-26T00:00:00	2024-11-08T17:00:00	5	Humedad	90
79741	7	Sololá	717	San Juan la Laguna	12	San Juan la Laguna	9	Septiembre	2023-09-26T00:00:00	2024-11-08T17:00:00	6	Velocidad del viento	9.7
79742	7	Sololá	717	San Juan la Laguna	12	San Juan la Laguna	9	Septiembre	2023-09-26T00:00:00	2024-11-08T17:00:00	7	Dirección del viento	9.66
79743	7	Sololá	717	San Juan la Laguna	12	San Juan la Laguna	9	Septiembre	2023-09-26T00:00:00	2024-11-08T17:00:00	1	Precipitación	6.8
79744	7	Sololá	717	San Juan la Laguna	12	San Juan la Laguna	9	Septiembre	2023-09-26T00:00:00	2024-11-08T17:00:00	8	Radiación solar	16
79745	7	Sololá	717	San Juan la Laguna	12	San Juan la Laguna	9	Septiembre	2023-09-26T00:00:00	2024-11-08T18:00:00	2	Temperatura media	17.1
79746	7	Sololá	717	San Juan la Laguna	12	San Juan la Laguna	9	Septiembre	2023-09-26T00:00:00	2024-11-08T18:00:00	4	Temperatura máxima	17.1
79747	7	Sololá	717	San Juan la Laguna	12	San Juan la Laguna	9	Septiembre	2023-09-26T00:00:00	2024-11-08T18:00:00	3	Temperatura mínima	16.5
79748	7	Sololá	717	San Juan la Laguna	12	San Juan la Laguna	9	Septiembre	2023-09-26T00:00:00	2024-11-08T18:00:00	5	Humedad	90
79749	7	Sololá	717	San Juan la Laguna	12	San Juan la Laguna	9	Septiembre	2023-09-26T00:00:00	2024-11-08T18:00:00	6	Velocidad del viento	6.4
79750	7	Sololá	717	San Juan la Laguna	12	San Juan la Laguna	9	Septiembre	2023-09-26T00:00:00	2024-11-08T18:00:00	7	Dirección del viento	6.44
79751	7	Sololá	717	San Juan la Laguna	12	San Juan la Laguna	9	Septiembre	2023-09-26T00:00:00	2024-11-08T18:00:00	1	Precipitación	3.2
79752	7	Sololá	717	San Juan la Laguna	12	San Juan la Laguna	9	Septiembre	2023-09-26T00:00:00	2024-11-08T18:00:00	8	Radiación solar	0
79753	7	Sololá	717	San Juan la Laguna	12	San Juan la Laguna	9	Septiembre	2023-09-26T00:00:00	2024-11-08T19:00:00	2	Temperatura media	17.4
79754	7	Sololá	717	San Juan la Laguna	12	San Juan la Laguna	9	Septiembre	2023-09-26T00:00:00	2024-11-08T19:00:00	4	Temperatura máxima	17.6
79755	7	Sololá	717	San Juan la Laguna	12	San Juan la Laguna	9	Septiembre	2023-09-26T00:00:00	2024-11-08T19:00:00	3	Temperatura mínima	17.1
79756	7	Sololá	717	San Juan la Laguna	12	San Juan la Laguna	9	Septiembre	2023-09-26T00:00:00	2024-11-08T19:00:00	5	Humedad	90
79757	7	Sololá	717	San Juan la Laguna	12	San Juan la Laguna	9	Septiembre	2023-09-26T00:00:00	2024-11-08T19:00:00	6	Velocidad del viento	3.2
79758	7	Sololá	717	San Juan la Laguna	12	San Juan la Laguna	9	Septiembre	2023-09-26T00:00:00	2024-11-08T19:00:00	7	Dirección del viento	3.22
79759	7	Sololá	717	San Juan la Laguna	12	San Juan la Laguna	9	Septiembre	2023-09-26T00:00:00	2024-11-08T19:00:00	1	Precipitación	0.6
79760	7	Sololá	717	San Juan la Laguna	12	San Juan la Laguna	9	Septiembre	2023-09-26T00:00:00	2024-11-08T19:00:00	8	Radiación solar	0
79761	7	Sololá	717	San Juan la Laguna	12	San Juan la Laguna	9	Septiembre	2023-09-26T00:00:00	2024-11-08T20:00:00	2	Temperatura media	17.3
79762	7	Sololá	717	San Juan la Laguna	12	San Juan la Laguna	9	Septiembre	2023-09-26T00:00:00	2024-11-08T20:00:00	4	Temperatura máxima	17.4
79763	7	Sololá	717	San Juan la Laguna	12	San Juan la Laguna	9	Septiembre	2023-09-26T00:00:00	2024-11-08T20:00:00	3	Temperatura mínima	17.2
79764	7	Sololá	717	San Juan la Laguna	12	San Juan la Laguna	9	Septiembre	2023-09-26T00:00:00	2024-11-08T20:00:00	5	Humedad	91
79765	7	Sololá	717	San Juan la Laguna	12	San Juan la Laguna	9	Septiembre	2023-09-26T00:00:00	2024-11-08T20:00:00	6	Velocidad del viento	4.8
79766	7	Sololá	717	San Juan la Laguna	12	San Juan la Laguna	9	Septiembre	2023-09-26T00:00:00	2024-11-08T20:00:00	7	Dirección del viento	4.83
79767	7	Sololá	717	San Juan la Laguna	12	San Juan la Laguna	9	Septiembre	2023-09-26T00:00:00	2024-11-08T20:00:00	1	Precipitación	1.2
79768	7	Sololá	717	San Juan la Laguna	12	San Juan la Laguna	9	Septiembre	2023-09-26T00:00:00	2024-11-08T20:00:00	8	Radiación solar	0
79769	7	Sololá	717	San Juan la Laguna	12	San Juan la Laguna	9	Septiembre	2023-09-26T00:00:00	2024-11-08T21:00:00	2	Temperatura media	17
79770	7	Sololá	717	San Juan la Laguna	12	San Juan la Laguna	9	Septiembre	2023-09-26T00:00:00	2024-11-08T21:00:00	4	Temperatura máxima	17.3
79771	7	Sololá	717	San Juan la Laguna	12	San Juan la Laguna	9	Septiembre	2023-09-26T00:00:00	2024-11-08T21:00:00	3	Temperatura mínima	17
79772	7	Sololá	717	San Juan la Laguna	12	San Juan la Laguna	9	Septiembre	2023-09-26T00:00:00	2024-11-08T21:00:00	5	Humedad	91
79773	7	Sololá	717	San Juan la Laguna	12	San Juan la Laguna	9	Septiembre	2023-09-26T00:00:00	2024-11-08T21:00:00	6	Velocidad del viento	3.2
79774	7	Sololá	717	San Juan la Laguna	12	San Juan la Laguna	9	Septiembre	2023-09-26T00:00:00	2024-11-08T21:00:00	7	Dirección del viento	3.22
79775	7	Sololá	717	San Juan la Laguna	12	San Juan la Laguna	9	Septiembre	2023-09-26T00:00:00	2024-11-08T21:00:00	1	Precipitación	4.2
79776	7	Sololá	717	San Juan la Laguna	12	San Juan la Laguna	9	Septiembre	2023-09-26T00:00:00	2024-11-08T21:00:00	8	Radiación solar	0
79777	7	Sololá	717	San Juan la Laguna	12	San Juan la Laguna	9	Septiembre	2023-09-26T00:00:00	2024-11-08T22:00:00	2	Temperatura media	17.3
79778	7	Sololá	717	San Juan la Laguna	12	San Juan la Laguna	9	Septiembre	2023-09-26T00:00:00	2024-11-08T22:00:00	4	Temperatura máxima	17.3
79779	7	Sololá	717	San Juan la Laguna	12	San Juan la Laguna	9	Septiembre	2023-09-26T00:00:00	2024-11-08T22:00:00	3	Temperatura mínima	17
79780	7	Sololá	717	San Juan la Laguna	12	San Juan la Laguna	9	Septiembre	2023-09-26T00:00:00	2024-11-08T22:00:00	5	Humedad	91
79781	7	Sololá	717	San Juan la Laguna	12	San Juan la Laguna	9	Septiembre	2023-09-26T00:00:00	2024-11-08T22:00:00	6	Velocidad del viento	1.6
79782	7	Sololá	717	San Juan la Laguna	12	San Juan la Laguna	9	Septiembre	2023-09-26T00:00:00	2024-11-08T22:00:00	7	Dirección del viento	1.61
79783	7	Sololá	717	San Juan la Laguna	12	San Juan la Laguna	9	Septiembre	2023-09-26T00:00:00	2024-11-08T22:00:00	1	Precipitación	0.4
79784	7	Sololá	717	San Juan la Laguna	12	San Juan la Laguna	9	Septiembre	2023-09-26T00:00:00	2024-11-08T22:00:00	8	Radiación solar	0
79785	7	Sololá	717	San Juan la Laguna	12	San Juan la Laguna	9	Septiembre	2023-09-26T00:00:00	2024-11-08T23:00:00	2	Temperatura media	17.2
79786	7	Sololá	717	San Juan la Laguna	12	San Juan la Laguna	9	Septiembre	2023-09-26T00:00:00	2024-11-08T23:00:00	4	Temperatura máxima	17.3
79787	7	Sololá	717	San Juan la Laguna	12	San Juan la Laguna	9	Septiembre	2023-09-26T00:00:00	2024-11-08T23:00:00	3	Temperatura mínima	17.1
79788	7	Sololá	717	San Juan la Laguna	12	San Juan la Laguna	9	Septiembre	2023-09-26T00:00:00	2024-11-08T23:00:00	5	Humedad	91
79789	7	Sololá	717	San Juan la Laguna	12	San Juan la Laguna	9	Septiembre	2023-09-26T00:00:00	2024-11-08T23:00:00	6	Velocidad del viento	3.2
79790	7	Sololá	717	San Juan la Laguna	12	San Juan la Laguna	9	Septiembre	2023-09-26T00:00:00	2024-11-08T23:00:00	7	Dirección del viento	3.22
79791	7	Sololá	717	San Juan la Laguna	12	San Juan la Laguna	9	Septiembre	2023-09-26T00:00:00	2024-11-08T23:00:00	1	Precipitación	1.2
79792	7	Sololá	717	San Juan la Laguna	12	San Juan la Laguna	9	Septiembre	2023-09-26T00:00:00	2024-11-08T23:00:00	8	Radiación solar	0
79793	7	Sololá	717	San Juan la Laguna	12	San Juan la Laguna	9	Septiembre	2023-09-27T00:00:00	2024-11-08T00:00:00	2	Temperatura media	17.2
79794	7	Sololá	717	San Juan la Laguna	12	San Juan la Laguna	9	Septiembre	2023-09-27T00:00:00	2024-11-08T00:00:00	4	Temperatura máxima	17.4
79795	7	Sololá	717	San Juan la Laguna	12	San Juan la Laguna	9	Septiembre	2023-09-27T00:00:00	2024-11-08T00:00:00	3	Temperatura mínima	17.2
79796	7	Sololá	717	San Juan la Laguna	12	San Juan la Laguna	9	Septiembre	2023-09-27T00:00:00	2024-11-08T00:00:00	5	Humedad	91
79797	7	Sololá	717	San Juan la Laguna	12	San Juan la Laguna	9	Septiembre	2023-09-27T00:00:00	2024-11-08T00:00:00	6	Velocidad del viento	0
79798	7	Sololá	717	San Juan la Laguna	12	San Juan la Laguna	9	Septiembre	2023-09-27T00:00:00	2024-11-08T00:00:00	7	Dirección del viento	0
79799	7	Sololá	717	San Juan la Laguna	12	San Juan la Laguna	9	Septiembre	2023-09-27T00:00:00	2024-11-08T00:00:00	1	Precipitación	0
79800	7	Sololá	717	San Juan la Laguna	12	San Juan la Laguna	9	Septiembre	2023-09-27T00:00:00	2024-11-08T00:00:00	8	Radiación solar	0
79801	7	Sololá	717	San Juan la Laguna	12	San Juan la Laguna	9	Septiembre	2023-09-27T00:00:00	2024-11-08T01:00:00	2	Temperatura media	16.7
79802	7	Sololá	717	San Juan la Laguna	12	San Juan la Laguna	9	Septiembre	2023-09-27T00:00:00	2024-11-08T01:00:00	4	Temperatura máxima	17.3
79803	7	Sololá	717	San Juan la Laguna	12	San Juan la Laguna	9	Septiembre	2023-09-27T00:00:00	2024-11-08T01:00:00	3	Temperatura mínima	16.7
79804	7	Sololá	717	San Juan la Laguna	12	San Juan la Laguna	9	Septiembre	2023-09-27T00:00:00	2024-11-08T01:00:00	5	Humedad	91
79805	7	Sololá	717	San Juan la Laguna	12	San Juan la Laguna	9	Septiembre	2023-09-27T00:00:00	2024-11-08T01:00:00	6	Velocidad del viento	3.2
79806	7	Sololá	717	San Juan la Laguna	12	San Juan la Laguna	9	Septiembre	2023-09-27T00:00:00	2024-11-08T01:00:00	7	Dirección del viento	3.22
79807	7	Sololá	717	San Juan la Laguna	12	San Juan la Laguna	9	Septiembre	2023-09-27T00:00:00	2024-11-08T01:00:00	1	Precipitación	0
79808	7	Sololá	717	San Juan la Laguna	12	San Juan la Laguna	9	Septiembre	2023-09-27T00:00:00	2024-11-08T01:00:00	8	Radiación solar	0
79809	7	Sololá	717	San Juan la Laguna	12	San Juan la Laguna	9	Septiembre	2023-09-27T00:00:00	2024-11-08T02:00:00	2	Temperatura media	16.5
79810	7	Sololá	717	San Juan la Laguna	12	San Juan la Laguna	9	Septiembre	2023-09-27T00:00:00	2024-11-08T02:00:00	4	Temperatura máxima	16.7
79811	7	Sololá	717	San Juan la Laguna	12	San Juan la Laguna	9	Septiembre	2023-09-27T00:00:00	2024-11-08T02:00:00	3	Temperatura mínima	16.5
79812	7	Sololá	717	San Juan la Laguna	12	San Juan la Laguna	9	Septiembre	2023-09-27T00:00:00	2024-11-08T02:00:00	5	Humedad	90
79813	7	Sololá	717	San Juan la Laguna	12	San Juan la Laguna	9	Septiembre	2023-09-27T00:00:00	2024-11-08T02:00:00	6	Velocidad del viento	4.8
79814	7	Sololá	717	San Juan la Laguna	12	San Juan la Laguna	9	Septiembre	2023-09-27T00:00:00	2024-11-08T02:00:00	7	Dirección del viento	4.83
79815	7	Sololá	717	San Juan la Laguna	12	San Juan la Laguna	9	Septiembre	2023-09-27T00:00:00	2024-11-08T02:00:00	1	Precipitación	0
79816	7	Sololá	717	San Juan la Laguna	12	San Juan la Laguna	9	Septiembre	2023-09-27T00:00:00	2024-11-08T02:00:00	8	Radiación solar	0
79817	7	Sololá	717	San Juan la Laguna	12	San Juan la Laguna	9	Septiembre	2023-09-27T00:00:00	2024-11-08T03:00:00	2	Temperatura media	16.3
79818	7	Sololá	717	San Juan la Laguna	12	San Juan la Laguna	9	Septiembre	2023-09-27T00:00:00	2024-11-08T03:00:00	4	Temperatura máxima	16.6
79819	7	Sololá	717	San Juan la Laguna	12	San Juan la Laguna	9	Septiembre	2023-09-27T00:00:00	2024-11-08T03:00:00	3	Temperatura mínima	16.2
79820	7	Sololá	717	San Juan la Laguna	12	San Juan la Laguna	9	Septiembre	2023-09-27T00:00:00	2024-11-08T03:00:00	5	Humedad	89
79821	7	Sololá	717	San Juan la Laguna	12	San Juan la Laguna	9	Septiembre	2023-09-27T00:00:00	2024-11-08T03:00:00	6	Velocidad del viento	4.8
79822	7	Sololá	717	San Juan la Laguna	12	San Juan la Laguna	9	Septiembre	2023-09-27T00:00:00	2024-11-08T03:00:00	7	Dirección del viento	4.83
79823	7	Sololá	717	San Juan la Laguna	12	San Juan la Laguna	9	Septiembre	2023-09-27T00:00:00	2024-11-08T03:00:00	1	Precipitación	0
79824	7	Sololá	717	San Juan la Laguna	12	San Juan la Laguna	9	Septiembre	2023-09-27T00:00:00	2024-11-08T03:00:00	8	Radiación solar	0
79825	7	Sololá	717	San Juan la Laguna	12	San Juan la Laguna	9	Septiembre	2023-09-27T00:00:00	2024-11-08T04:00:00	2	Temperatura media	16.3
79826	7	Sololá	717	San Juan la Laguna	12	San Juan la Laguna	9	Septiembre	2023-09-27T00:00:00	2024-11-08T04:00:00	4	Temperatura máxima	16.3
79827	7	Sololá	717	San Juan la Laguna	12	San Juan la Laguna	9	Septiembre	2023-09-27T00:00:00	2024-11-08T04:00:00	3	Temperatura mínima	16.1
79828	7	Sololá	717	San Juan la Laguna	12	San Juan la Laguna	9	Septiembre	2023-09-27T00:00:00	2024-11-08T04:00:00	5	Humedad	90
79829	7	Sololá	717	San Juan la Laguna	12	San Juan la Laguna	9	Septiembre	2023-09-27T00:00:00	2024-11-08T04:00:00	6	Velocidad del viento	4.8
79830	7	Sololá	717	San Juan la Laguna	12	San Juan la Laguna	9	Septiembre	2023-09-27T00:00:00	2024-11-08T04:00:00	7	Dirección del viento	4.83
79831	7	Sololá	717	San Juan la Laguna	12	San Juan la Laguna	9	Septiembre	2023-09-27T00:00:00	2024-11-08T04:00:00	1	Precipitación	0
79832	7	Sololá	717	San Juan la Laguna	12	San Juan la Laguna	9	Septiembre	2023-09-27T00:00:00	2024-11-08T04:00:00	8	Radiación solar	0
79833	7	Sololá	717	San Juan la Laguna	12	San Juan la Laguna	9	Septiembre	2023-09-27T00:00:00	2024-11-08T05:00:00	2	Temperatura media	16.3
79834	7	Sololá	717	San Juan la Laguna	12	San Juan la Laguna	9	Septiembre	2023-09-27T00:00:00	2024-11-08T05:00:00	4	Temperatura máxima	16.4
79835	7	Sololá	717	San Juan la Laguna	12	San Juan la Laguna	9	Septiembre	2023-09-27T00:00:00	2024-11-08T05:00:00	3	Temperatura mínima	16.1
79836	7	Sololá	717	San Juan la Laguna	12	San Juan la Laguna	9	Septiembre	2023-09-27T00:00:00	2024-11-08T05:00:00	5	Humedad	89
79837	7	Sololá	717	San Juan la Laguna	12	San Juan la Laguna	9	Septiembre	2023-09-27T00:00:00	2024-11-08T05:00:00	6	Velocidad del viento	4.8
79838	7	Sololá	717	San Juan la Laguna	12	San Juan la Laguna	9	Septiembre	2023-09-27T00:00:00	2024-11-08T05:00:00	7	Dirección del viento	4.83
79839	7	Sololá	717	San Juan la Laguna	12	San Juan la Laguna	9	Septiembre	2023-09-27T00:00:00	2024-11-08T05:00:00	1	Precipitación	0
79840	7	Sololá	717	San Juan la Laguna	12	San Juan la Laguna	9	Septiembre	2023-09-27T00:00:00	2024-11-08T05:00:00	8	Radiación solar	0
79841	7	Sololá	717	San Juan la Laguna	12	San Juan la Laguna	9	Septiembre	2023-09-27T00:00:00	2024-11-08T06:00:00	2	Temperatura media	15.8
79842	7	Sololá	717	San Juan la Laguna	12	San Juan la Laguna	9	Septiembre	2023-09-27T00:00:00	2024-11-08T06:00:00	4	Temperatura máxima	16.3
79843	7	Sololá	717	San Juan la Laguna	12	San Juan la Laguna	9	Septiembre	2023-09-27T00:00:00	2024-11-08T06:00:00	3	Temperatura mínima	15.6
79844	7	Sololá	717	San Juan la Laguna	12	San Juan la Laguna	9	Septiembre	2023-09-27T00:00:00	2024-11-08T06:00:00	5	Humedad	90
79845	7	Sololá	717	San Juan la Laguna	12	San Juan la Laguna	9	Septiembre	2023-09-27T00:00:00	2024-11-08T06:00:00	6	Velocidad del viento	4.8
79846	7	Sololá	717	San Juan la Laguna	12	San Juan la Laguna	9	Septiembre	2023-09-27T00:00:00	2024-11-08T06:00:00	7	Dirección del viento	4.83
79847	7	Sololá	717	San Juan la Laguna	12	San Juan la Laguna	9	Septiembre	2023-09-27T00:00:00	2024-11-08T06:00:00	1	Precipitación	0
79848	7	Sololá	717	San Juan la Laguna	12	San Juan la Laguna	9	Septiembre	2023-09-27T00:00:00	2024-11-08T06:00:00	8	Radiación solar	0
79849	7	Sololá	717	San Juan la Laguna	12	San Juan la Laguna	9	Septiembre	2023-09-27T00:00:00	2024-11-08T07:00:00	2	Temperatura media	16.9
79850	7	Sololá	717	San Juan la Laguna	12	San Juan la Laguna	9	Septiembre	2023-09-27T00:00:00	2024-11-08T07:00:00	4	Temperatura máxima	16.9
79851	7	Sololá	717	San Juan la Laguna	12	San Juan la Laguna	9	Septiembre	2023-09-27T00:00:00	2024-11-08T07:00:00	3	Temperatura mínima	15.8
79852	7	Sololá	717	San Juan la Laguna	12	San Juan la Laguna	9	Septiembre	2023-09-27T00:00:00	2024-11-08T07:00:00	5	Humedad	87
79853	7	Sololá	717	San Juan la Laguna	12	San Juan la Laguna	9	Septiembre	2023-09-27T00:00:00	2024-11-08T07:00:00	6	Velocidad del viento	4.8
79854	7	Sololá	717	San Juan la Laguna	12	San Juan la Laguna	9	Septiembre	2023-09-27T00:00:00	2024-11-08T07:00:00	7	Dirección del viento	4.83
79855	7	Sololá	717	San Juan la Laguna	12	San Juan la Laguna	9	Septiembre	2023-09-27T00:00:00	2024-11-08T07:00:00	1	Precipitación	0
79856	7	Sololá	717	San Juan la Laguna	12	San Juan la Laguna	9	Septiembre	2023-09-27T00:00:00	2024-11-08T07:00:00	8	Radiación solar	50
79857	7	Sololá	717	San Juan la Laguna	12	San Juan la Laguna	9	Septiembre	2023-09-27T00:00:00	2024-11-08T08:00:00	2	Temperatura media	20.4
79858	7	Sololá	717	San Juan la Laguna	12	San Juan la Laguna	9	Septiembre	2023-09-27T00:00:00	2024-11-08T08:00:00	4	Temperatura máxima	20.4
79859	7	Sololá	717	San Juan la Laguna	12	San Juan la Laguna	9	Septiembre	2023-09-27T00:00:00	2024-11-08T08:00:00	3	Temperatura mínima	16.9
79860	7	Sololá	717	San Juan la Laguna	12	San Juan la Laguna	9	Septiembre	2023-09-27T00:00:00	2024-11-08T08:00:00	5	Humedad	81
79861	7	Sololá	717	San Juan la Laguna	12	San Juan la Laguna	9	Septiembre	2023-09-27T00:00:00	2024-11-08T08:00:00	6	Velocidad del viento	1.6
79862	7	Sololá	717	San Juan la Laguna	12	San Juan la Laguna	9	Septiembre	2023-09-27T00:00:00	2024-11-08T08:00:00	7	Dirección del viento	1.61
79863	7	Sololá	717	San Juan la Laguna	12	San Juan la Laguna	9	Septiembre	2023-09-27T00:00:00	2024-11-08T08:00:00	1	Precipitación	0
79864	7	Sololá	717	San Juan la Laguna	12	San Juan la Laguna	9	Septiembre	2023-09-27T00:00:00	2024-11-08T08:00:00	8	Radiación solar	244
79865	7	Sololá	717	San Juan la Laguna	12	San Juan la Laguna	9	Septiembre	2023-09-27T00:00:00	2024-11-08T09:00:00	2	Temperatura media	21.7
79866	7	Sololá	717	San Juan la Laguna	12	San Juan la Laguna	9	Septiembre	2023-09-27T00:00:00	2024-11-08T09:00:00	4	Temperatura máxima	22.1
79867	7	Sololá	717	San Juan la Laguna	12	San Juan la Laguna	9	Septiembre	2023-09-27T00:00:00	2024-11-08T09:00:00	3	Temperatura mínima	20.4
79868	7	Sololá	717	San Juan la Laguna	12	San Juan la Laguna	9	Septiembre	2023-09-27T00:00:00	2024-11-08T09:00:00	5	Humedad	74
79869	7	Sololá	717	San Juan la Laguna	12	San Juan la Laguna	9	Septiembre	2023-09-27T00:00:00	2024-11-08T09:00:00	6	Velocidad del viento	4.8
79870	7	Sololá	717	San Juan la Laguna	12	San Juan la Laguna	9	Septiembre	2023-09-27T00:00:00	2024-11-08T09:00:00	7	Dirección del viento	4.83
79871	7	Sololá	717	San Juan la Laguna	12	San Juan la Laguna	9	Septiembre	2023-09-27T00:00:00	2024-11-08T09:00:00	1	Precipitación	0
79872	7	Sololá	717	San Juan la Laguna	12	San Juan la Laguna	9	Septiembre	2023-09-27T00:00:00	2024-11-08T09:00:00	8	Radiación solar	503
79873	7	Sololá	717	San Juan la Laguna	12	San Juan la Laguna	9	Septiembre	2023-09-27T00:00:00	2024-11-08T10:00:00	2	Temperatura media	22.4
79874	7	Sololá	717	San Juan la Laguna	12	San Juan la Laguna	9	Septiembre	2023-09-27T00:00:00	2024-11-08T10:00:00	4	Temperatura máxima	22.8
79875	7	Sololá	717	San Juan la Laguna	12	San Juan la Laguna	9	Septiembre	2023-09-27T00:00:00	2024-11-08T10:00:00	3	Temperatura mínima	21.6
79876	7	Sololá	717	San Juan la Laguna	12	San Juan la Laguna	9	Septiembre	2023-09-27T00:00:00	2024-11-08T10:00:00	5	Humedad	74
79877	7	Sololá	717	San Juan la Laguna	12	San Juan la Laguna	9	Septiembre	2023-09-27T00:00:00	2024-11-08T10:00:00	6	Velocidad del viento	6.4
79878	7	Sololá	717	San Juan la Laguna	12	San Juan la Laguna	9	Septiembre	2023-09-27T00:00:00	2024-11-08T10:00:00	7	Dirección del viento	6.44
79879	7	Sololá	717	San Juan la Laguna	12	San Juan la Laguna	9	Septiembre	2023-09-27T00:00:00	2024-11-08T10:00:00	1	Precipitación	0
79880	7	Sololá	717	San Juan la Laguna	12	San Juan la Laguna	9	Septiembre	2023-09-27T00:00:00	2024-11-08T10:00:00	8	Radiación solar	678
79881	7	Sololá	717	San Juan la Laguna	12	San Juan la Laguna	9	Septiembre	2023-09-27T00:00:00	2024-11-08T11:00:00	2	Temperatura media	24.4
79882	7	Sololá	717	San Juan la Laguna	12	San Juan la Laguna	9	Septiembre	2023-09-27T00:00:00	2024-11-08T11:00:00	4	Temperatura máxima	24.4
79883	7	Sololá	717	San Juan la Laguna	12	San Juan la Laguna	9	Septiembre	2023-09-27T00:00:00	2024-11-08T11:00:00	3	Temperatura mínima	22.4
79884	7	Sololá	717	San Juan la Laguna	12	San Juan la Laguna	9	Septiembre	2023-09-27T00:00:00	2024-11-08T11:00:00	5	Humedad	64
79885	7	Sololá	717	San Juan la Laguna	12	San Juan la Laguna	9	Septiembre	2023-09-27T00:00:00	2024-11-08T11:00:00	6	Velocidad del viento	6.4
79886	7	Sololá	717	San Juan la Laguna	12	San Juan la Laguna	9	Septiembre	2023-09-27T00:00:00	2024-11-08T11:00:00	7	Dirección del viento	6.44
79887	7	Sololá	717	San Juan la Laguna	12	San Juan la Laguna	9	Septiembre	2023-09-27T00:00:00	2024-11-08T11:00:00	1	Precipitación	0
79888	7	Sololá	717	San Juan la Laguna	12	San Juan la Laguna	9	Septiembre	2023-09-27T00:00:00	2024-11-08T11:00:00	8	Radiación solar	813
79889	7	Sololá	717	San Juan la Laguna	12	San Juan la Laguna	9	Septiembre	2023-09-27T00:00:00	2024-11-08T12:00:00	2	Temperatura media	25.1
79890	7	Sololá	717	San Juan la Laguna	12	San Juan la Laguna	9	Septiembre	2023-09-27T00:00:00	2024-11-08T12:00:00	4	Temperatura máxima	25.8
79891	7	Sololá	717	San Juan la Laguna	12	San Juan la Laguna	9	Septiembre	2023-09-27T00:00:00	2024-11-08T12:00:00	3	Temperatura mínima	24.4
79892	7	Sololá	717	San Juan la Laguna	12	San Juan la Laguna	9	Septiembre	2023-09-27T00:00:00	2024-11-08T12:00:00	5	Humedad	68
79893	7	Sololá	717	San Juan la Laguna	12	San Juan la Laguna	9	Septiembre	2023-09-27T00:00:00	2024-11-08T12:00:00	6	Velocidad del viento	8
79894	7	Sololá	717	San Juan la Laguna	12	San Juan la Laguna	9	Septiembre	2023-09-27T00:00:00	2024-11-08T12:00:00	7	Dirección del viento	8.05
79895	7	Sololá	717	San Juan la Laguna	12	San Juan la Laguna	9	Septiembre	2023-09-27T00:00:00	2024-11-08T12:00:00	1	Precipitación	0
79896	7	Sololá	717	San Juan la Laguna	12	San Juan la Laguna	9	Septiembre	2023-09-27T00:00:00	2024-11-08T12:00:00	8	Radiación solar	872
79897	7	Sololá	717	San Juan la Laguna	12	San Juan la Laguna	9	Septiembre	2023-09-27T00:00:00	2024-11-08T13:00:00	2	Temperatura media	24.3
79898	7	Sololá	717	San Juan la Laguna	12	San Juan la Laguna	9	Septiembre	2023-09-27T00:00:00	2024-11-08T13:00:00	4	Temperatura máxima	25.1
79899	7	Sololá	717	San Juan la Laguna	12	San Juan la Laguna	9	Septiembre	2023-09-27T00:00:00	2024-11-08T13:00:00	3	Temperatura mínima	24.3
79900	7	Sololá	717	San Juan la Laguna	12	San Juan la Laguna	9	Septiembre	2023-09-27T00:00:00	2024-11-08T13:00:00	5	Humedad	68
79901	7	Sololá	717	San Juan la Laguna	12	San Juan la Laguna	9	Septiembre	2023-09-27T00:00:00	2024-11-08T13:00:00	6	Velocidad del viento	8
79902	7	Sololá	717	San Juan la Laguna	12	San Juan la Laguna	9	Septiembre	2023-09-27T00:00:00	2024-11-08T13:00:00	7	Dirección del viento	8.05
79903	7	Sololá	717	San Juan la Laguna	12	San Juan la Laguna	9	Septiembre	2023-09-27T00:00:00	2024-11-08T13:00:00	1	Precipitación	0
79904	7	Sololá	717	San Juan la Laguna	12	San Juan la Laguna	9	Septiembre	2023-09-27T00:00:00	2024-11-08T13:00:00	8	Radiación solar	647
79905	7	Sololá	717	San Juan la Laguna	12	San Juan la Laguna	9	Septiembre	2023-09-27T00:00:00	2024-11-08T14:00:00	2	Temperatura media	22.6
79906	7	Sololá	717	San Juan la Laguna	12	San Juan la Laguna	9	Septiembre	2023-09-27T00:00:00	2024-11-08T14:00:00	4	Temperatura máxima	25.1
79907	7	Sololá	717	San Juan la Laguna	12	San Juan la Laguna	9	Septiembre	2023-09-27T00:00:00	2024-11-08T14:00:00	3	Temperatura mínima	22.6
79908	7	Sololá	717	San Juan la Laguna	12	San Juan la Laguna	9	Septiembre	2023-09-27T00:00:00	2024-11-08T14:00:00	5	Humedad	79
79909	7	Sololá	717	San Juan la Laguna	12	San Juan la Laguna	9	Septiembre	2023-09-27T00:00:00	2024-11-08T14:00:00	6	Velocidad del viento	6.4
79910	7	Sololá	717	San Juan la Laguna	12	San Juan la Laguna	9	Septiembre	2023-09-27T00:00:00	2024-11-08T14:00:00	7	Dirección del viento	6.44
79911	7	Sololá	717	San Juan la Laguna	12	San Juan la Laguna	9	Septiembre	2023-09-27T00:00:00	2024-11-08T14:00:00	1	Precipitación	0
79912	7	Sololá	717	San Juan la Laguna	12	San Juan la Laguna	9	Septiembre	2023-09-27T00:00:00	2024-11-08T14:00:00	8	Radiación solar	240
79913	7	Sololá	717	San Juan la Laguna	12	San Juan la Laguna	9	Septiembre	2023-09-27T00:00:00	2024-11-08T15:00:00	2	Temperatura media	21.1
79914	7	Sololá	717	San Juan la Laguna	12	San Juan la Laguna	9	Septiembre	2023-09-27T00:00:00	2024-11-08T15:00:00	4	Temperatura máxima	22.6
79915	7	Sololá	717	San Juan la Laguna	12	San Juan la Laguna	9	Septiembre	2023-09-27T00:00:00	2024-11-08T15:00:00	3	Temperatura mínima	21.1
79916	7	Sololá	717	San Juan la Laguna	12	San Juan la Laguna	9	Septiembre	2023-09-27T00:00:00	2024-11-08T15:00:00	5	Humedad	84
79917	7	Sololá	717	San Juan la Laguna	12	San Juan la Laguna	9	Septiembre	2023-09-27T00:00:00	2024-11-08T15:00:00	6	Velocidad del viento	6.4
79918	7	Sololá	717	San Juan la Laguna	12	San Juan la Laguna	9	Septiembre	2023-09-27T00:00:00	2024-11-08T15:00:00	7	Dirección del viento	6.44
79919	7	Sololá	717	San Juan la Laguna	12	San Juan la Laguna	9	Septiembre	2023-09-27T00:00:00	2024-11-08T15:00:00	1	Precipitación	0
79920	7	Sololá	717	San Juan la Laguna	12	San Juan la Laguna	9	Septiembre	2023-09-27T00:00:00	2024-11-08T15:00:00	8	Radiación solar	74
79921	7	Sololá	717	San Juan la Laguna	12	San Juan la Laguna	9	Septiembre	2023-09-27T00:00:00	2024-11-08T16:00:00	2	Temperatura media	18.3
79922	7	Sololá	717	San Juan la Laguna	12	San Juan la Laguna	9	Septiembre	2023-09-27T00:00:00	2024-11-08T16:00:00	4	Temperatura máxima	21.1
79923	7	Sololá	717	San Juan la Laguna	12	San Juan la Laguna	9	Septiembre	2023-09-27T00:00:00	2024-11-08T16:00:00	3	Temperatura mínima	18.3
79924	7	Sololá	717	San Juan la Laguna	12	San Juan la Laguna	9	Septiembre	2023-09-27T00:00:00	2024-11-08T16:00:00	5	Humedad	90
79925	7	Sololá	717	San Juan la Laguna	12	San Juan la Laguna	9	Septiembre	2023-09-27T00:00:00	2024-11-08T16:00:00	6	Velocidad del viento	8
79926	7	Sololá	717	San Juan la Laguna	12	San Juan la Laguna	9	Septiembre	2023-09-27T00:00:00	2024-11-08T16:00:00	7	Dirección del viento	8.05
79927	7	Sololá	717	San Juan la Laguna	12	San Juan la Laguna	9	Septiembre	2023-09-27T00:00:00	2024-11-08T16:00:00	1	Precipitación	14
79928	7	Sololá	717	San Juan la Laguna	12	San Juan la Laguna	9	Septiembre	2023-09-27T00:00:00	2024-11-08T16:00:00	8	Radiación solar	5
79929	7	Sololá	717	San Juan la Laguna	12	San Juan la Laguna	9	Septiembre	2023-09-27T00:00:00	2024-11-08T17:00:00	2	Temperatura media	18.4
79930	7	Sololá	717	San Juan la Laguna	12	San Juan la Laguna	9	Septiembre	2023-09-27T00:00:00	2024-11-08T17:00:00	4	Temperatura máxima	18.6
79931	7	Sololá	717	San Juan la Laguna	12	San Juan la Laguna	9	Septiembre	2023-09-27T00:00:00	2024-11-08T17:00:00	3	Temperatura mínima	18.2
79932	7	Sololá	717	San Juan la Laguna	12	San Juan la Laguna	9	Septiembre	2023-09-27T00:00:00	2024-11-08T17:00:00	5	Humedad	90
79933	7	Sololá	717	San Juan la Laguna	12	San Juan la Laguna	9	Septiembre	2023-09-27T00:00:00	2024-11-08T17:00:00	6	Velocidad del viento	4.8
79934	7	Sololá	717	San Juan la Laguna	12	San Juan la Laguna	9	Septiembre	2023-09-27T00:00:00	2024-11-08T17:00:00	7	Dirección del viento	4.83
79935	7	Sololá	717	San Juan la Laguna	12	San Juan la Laguna	9	Septiembre	2023-09-27T00:00:00	2024-11-08T17:00:00	1	Precipitación	1
79936	7	Sololá	717	San Juan la Laguna	12	San Juan la Laguna	9	Septiembre	2023-09-27T00:00:00	2024-11-08T17:00:00	8	Radiación solar	11
79937	7	Sololá	717	San Juan la Laguna	12	San Juan la Laguna	9	Septiembre	2023-09-27T00:00:00	2024-11-08T18:00:00	2	Temperatura media	18.3
79938	7	Sololá	717	San Juan la Laguna	12	San Juan la Laguna	9	Septiembre	2023-09-27T00:00:00	2024-11-08T18:00:00	4	Temperatura máxima	18.4
79939	7	Sololá	717	San Juan la Laguna	12	San Juan la Laguna	9	Septiembre	2023-09-27T00:00:00	2024-11-08T18:00:00	3	Temperatura mínima	18.2
79940	7	Sololá	717	San Juan la Laguna	12	San Juan la Laguna	9	Septiembre	2023-09-27T00:00:00	2024-11-08T18:00:00	5	Humedad	91
79941	7	Sololá	717	San Juan la Laguna	12	San Juan la Laguna	9	Septiembre	2023-09-27T00:00:00	2024-11-08T18:00:00	6	Velocidad del viento	3.2
79942	7	Sololá	717	San Juan la Laguna	12	San Juan la Laguna	9	Septiembre	2023-09-27T00:00:00	2024-11-08T18:00:00	7	Dirección del viento	3.22
79943	7	Sololá	717	San Juan la Laguna	12	San Juan la Laguna	9	Septiembre	2023-09-27T00:00:00	2024-11-08T18:00:00	1	Precipitación	0
79944	7	Sololá	717	San Juan la Laguna	12	San Juan la Laguna	9	Septiembre	2023-09-27T00:00:00	2024-11-08T18:00:00	8	Radiación solar	3
79945	7	Sololá	717	San Juan la Laguna	12	San Juan la Laguna	9	Septiembre	2023-09-27T00:00:00	2024-11-08T19:00:00	2	Temperatura media	18.1
79946	7	Sololá	717	San Juan la Laguna	12	San Juan la Laguna	9	Septiembre	2023-09-27T00:00:00	2024-11-08T19:00:00	4	Temperatura máxima	18.5
79947	7	Sololá	717	San Juan la Laguna	12	San Juan la Laguna	9	Septiembre	2023-09-27T00:00:00	2024-11-08T19:00:00	3	Temperatura mínima	18.1
79948	7	Sololá	717	San Juan la Laguna	12	San Juan la Laguna	9	Septiembre	2023-09-27T00:00:00	2024-11-08T19:00:00	5	Humedad	91
79949	7	Sololá	717	San Juan la Laguna	12	San Juan la Laguna	9	Septiembre	2023-09-27T00:00:00	2024-11-08T19:00:00	6	Velocidad del viento	1.6
79950	7	Sololá	717	San Juan la Laguna	12	San Juan la Laguna	9	Septiembre	2023-09-27T00:00:00	2024-11-08T19:00:00	7	Dirección del viento	1.61
79951	7	Sololá	717	San Juan la Laguna	12	San Juan la Laguna	9	Septiembre	2023-09-27T00:00:00	2024-11-08T19:00:00	1	Precipitación	2.6
79952	7	Sololá	717	San Juan la Laguna	12	San Juan la Laguna	9	Septiembre	2023-09-27T00:00:00	2024-11-08T19:00:00	8	Radiación solar	0
79953	7	Sololá	717	San Juan la Laguna	12	San Juan la Laguna	9	Septiembre	2023-09-27T00:00:00	2024-11-08T20:00:00	2	Temperatura media	18.1
79954	7	Sololá	717	San Juan la Laguna	12	San Juan la Laguna	9	Septiembre	2023-09-27T00:00:00	2024-11-08T20:00:00	4	Temperatura máxima	18.2
79955	7	Sololá	717	San Juan la Laguna	12	San Juan la Laguna	9	Septiembre	2023-09-27T00:00:00	2024-11-08T20:00:00	3	Temperatura mínima	18
79956	7	Sololá	717	San Juan la Laguna	12	San Juan la Laguna	9	Septiembre	2023-09-27T00:00:00	2024-11-08T20:00:00	5	Humedad	91
79957	7	Sololá	717	San Juan la Laguna	12	San Juan la Laguna	9	Septiembre	2023-09-27T00:00:00	2024-11-08T20:00:00	6	Velocidad del viento	1.6
79958	7	Sololá	717	San Juan la Laguna	12	San Juan la Laguna	9	Septiembre	2023-09-27T00:00:00	2024-11-08T20:00:00	7	Dirección del viento	1.61
79959	7	Sololá	717	San Juan la Laguna	12	San Juan la Laguna	9	Septiembre	2023-09-27T00:00:00	2024-11-08T20:00:00	1	Precipitación	0.4
79960	7	Sololá	717	San Juan la Laguna	12	San Juan la Laguna	9	Septiembre	2023-09-27T00:00:00	2024-11-08T20:00:00	8	Radiación solar	0
79961	7	Sololá	717	San Juan la Laguna	12	San Juan la Laguna	9	Septiembre	2023-09-27T00:00:00	2024-11-08T21:00:00	2	Temperatura media	18.1
79962	7	Sololá	717	San Juan la Laguna	12	San Juan la Laguna	9	Septiembre	2023-09-27T00:00:00	2024-11-08T21:00:00	4	Temperatura máxima	18.2
79963	7	Sololá	717	San Juan la Laguna	12	San Juan la Laguna	9	Septiembre	2023-09-27T00:00:00	2024-11-08T21:00:00	3	Temperatura mínima	18.1
79964	7	Sololá	717	San Juan la Laguna	12	San Juan la Laguna	9	Septiembre	2023-09-27T00:00:00	2024-11-08T21:00:00	5	Humedad	91
79965	7	Sololá	717	San Juan la Laguna	12	San Juan la Laguna	9	Septiembre	2023-09-27T00:00:00	2024-11-08T21:00:00	6	Velocidad del viento	1.6
79966	7	Sololá	717	San Juan la Laguna	12	San Juan la Laguna	9	Septiembre	2023-09-27T00:00:00	2024-11-08T21:00:00	7	Dirección del viento	1.61
79967	7	Sololá	717	San Juan la Laguna	12	San Juan la Laguna	9	Septiembre	2023-09-27T00:00:00	2024-11-08T21:00:00	1	Precipitación	0.2
79968	7	Sololá	717	San Juan la Laguna	12	San Juan la Laguna	9	Septiembre	2023-09-27T00:00:00	2024-11-08T21:00:00	8	Radiación solar	0
79969	7	Sololá	717	San Juan la Laguna	12	San Juan la Laguna	9	Septiembre	2023-09-27T00:00:00	2024-11-08T22:00:00	2	Temperatura media	18
79970	7	Sololá	717	San Juan la Laguna	12	San Juan la Laguna	9	Septiembre	2023-09-27T00:00:00	2024-11-08T22:00:00	4	Temperatura máxima	18.1
79971	7	Sololá	717	San Juan la Laguna	12	San Juan la Laguna	9	Septiembre	2023-09-27T00:00:00	2024-11-08T22:00:00	3	Temperatura mínima	18
79972	7	Sololá	717	San Juan la Laguna	12	San Juan la Laguna	9	Septiembre	2023-09-27T00:00:00	2024-11-08T22:00:00	5	Humedad	91
79973	7	Sololá	717	San Juan la Laguna	12	San Juan la Laguna	9	Septiembre	2023-09-27T00:00:00	2024-11-08T22:00:00	6	Velocidad del viento	3.2
79974	7	Sololá	717	San Juan la Laguna	12	San Juan la Laguna	9	Septiembre	2023-09-27T00:00:00	2024-11-08T22:00:00	7	Dirección del viento	3.22
79975	7	Sololá	717	San Juan la Laguna	12	San Juan la Laguna	9	Septiembre	2023-09-27T00:00:00	2024-11-08T22:00:00	1	Precipitación	0.2
79976	7	Sololá	717	San Juan la Laguna	12	San Juan la Laguna	9	Septiembre	2023-09-27T00:00:00	2024-11-08T22:00:00	8	Radiación solar	0
79977	7	Sololá	717	San Juan la Laguna	12	San Juan la Laguna	9	Septiembre	2023-09-27T00:00:00	2024-11-08T23:00:00	2	Temperatura media	17.6
79978	7	Sololá	717	San Juan la Laguna	12	San Juan la Laguna	9	Septiembre	2023-09-27T00:00:00	2024-11-08T23:00:00	4	Temperatura máxima	18
79979	7	Sololá	717	San Juan la Laguna	12	San Juan la Laguna	9	Septiembre	2023-09-27T00:00:00	2024-11-08T23:00:00	3	Temperatura mínima	17.6
79980	7	Sololá	717	San Juan la Laguna	12	San Juan la Laguna	9	Septiembre	2023-09-27T00:00:00	2024-11-08T23:00:00	5	Humedad	91
79981	7	Sololá	717	San Juan la Laguna	12	San Juan la Laguna	9	Septiembre	2023-09-27T00:00:00	2024-11-08T23:00:00	6	Velocidad del viento	3.2
79982	7	Sololá	717	San Juan la Laguna	12	San Juan la Laguna	9	Septiembre	2023-09-27T00:00:00	2024-11-08T23:00:00	7	Dirección del viento	3.22
79983	7	Sololá	717	San Juan la Laguna	12	San Juan la Laguna	9	Septiembre	2023-09-27T00:00:00	2024-11-08T23:00:00	1	Precipitación	0.2
79984	7	Sololá	717	San Juan la Laguna	12	San Juan la Laguna	9	Septiembre	2023-09-27T00:00:00	2024-11-08T23:00:00	8	Radiación solar	0
79985	7	Sololá	717	San Juan la Laguna	12	San Juan la Laguna	9	Septiembre	2023-09-28T00:00:00	2024-11-08T00:00:00	2	Temperatura media	17.5
79986	7	Sololá	717	San Juan la Laguna	12	San Juan la Laguna	9	Septiembre	2023-09-28T00:00:00	2024-11-08T00:00:00	4	Temperatura máxima	17.6
79987	7	Sololá	717	San Juan la Laguna	12	San Juan la Laguna	9	Septiembre	2023-09-28T00:00:00	2024-11-08T00:00:00	3	Temperatura mínima	17.5
79988	7	Sololá	717	San Juan la Laguna	12	San Juan la Laguna	9	Septiembre	2023-09-28T00:00:00	2024-11-08T00:00:00	5	Humedad	91
79989	7	Sololá	717	San Juan la Laguna	12	San Juan la Laguna	9	Septiembre	2023-09-28T00:00:00	2024-11-08T00:00:00	6	Velocidad del viento	3.2
79990	7	Sololá	717	San Juan la Laguna	12	San Juan la Laguna	9	Septiembre	2023-09-28T00:00:00	2024-11-08T00:00:00	7	Dirección del viento	3.22
79991	7	Sololá	717	San Juan la Laguna	12	San Juan la Laguna	9	Septiembre	2023-09-28T00:00:00	2024-11-08T00:00:00	1	Precipitación	0
79992	7	Sololá	717	San Juan la Laguna	12	San Juan la Laguna	9	Septiembre	2023-09-28T00:00:00	2024-11-08T00:00:00	8	Radiación solar	0
79993	7	Sololá	717	San Juan la Laguna	12	San Juan la Laguna	9	Septiembre	2023-09-28T00:00:00	2024-11-08T01:00:00	2	Temperatura media	17.2
79994	7	Sololá	717	San Juan la Laguna	12	San Juan la Laguna	9	Septiembre	2023-09-28T00:00:00	2024-11-08T01:00:00	4	Temperatura máxima	17.5
79995	7	Sololá	717	San Juan la Laguna	12	San Juan la Laguna	9	Septiembre	2023-09-28T00:00:00	2024-11-08T01:00:00	3	Temperatura mínima	17.2
79996	7	Sololá	717	San Juan la Laguna	12	San Juan la Laguna	9	Septiembre	2023-09-28T00:00:00	2024-11-08T01:00:00	5	Humedad	91
79997	7	Sololá	717	San Juan la Laguna	12	San Juan la Laguna	9	Septiembre	2023-09-28T00:00:00	2024-11-08T01:00:00	6	Velocidad del viento	4.8
79998	7	Sololá	717	San Juan la Laguna	12	San Juan la Laguna	9	Septiembre	2023-09-28T00:00:00	2024-11-08T01:00:00	7	Dirección del viento	4.83
79999	7	Sololá	717	San Juan la Laguna	12	San Juan la Laguna	9	Septiembre	2023-09-28T00:00:00	2024-11-08T01:00:00	1	Precipitación	0
80000	7	Sololá	717	San Juan la Laguna	12	San Juan la Laguna	9	Septiembre	2023-09-28T00:00:00	2024-11-08T01:00:00	8	Radiación solar	0
80001	7	Sololá	717	San Juan la Laguna	12	San Juan la Laguna	9	Septiembre	2023-09-28T00:00:00	2024-11-08T02:00:00	2	Temperatura media	16.8
80002	7	Sololá	717	San Juan la Laguna	12	San Juan la Laguna	9	Septiembre	2023-09-28T00:00:00	2024-11-08T02:00:00	4	Temperatura máxima	17.2
80003	7	Sololá	717	San Juan la Laguna	12	San Juan la Laguna	9	Septiembre	2023-09-28T00:00:00	2024-11-08T02:00:00	3	Temperatura mínima	16.8
80004	7	Sololá	717	San Juan la Laguna	12	San Juan la Laguna	9	Septiembre	2023-09-28T00:00:00	2024-11-08T02:00:00	5	Humedad	90
80005	7	Sololá	717	San Juan la Laguna	12	San Juan la Laguna	9	Septiembre	2023-09-28T00:00:00	2024-11-08T02:00:00	6	Velocidad del viento	4.8
80006	7	Sololá	717	San Juan la Laguna	12	San Juan la Laguna	9	Septiembre	2023-09-28T00:00:00	2024-11-08T02:00:00	7	Dirección del viento	4.83
80007	7	Sololá	717	San Juan la Laguna	12	San Juan la Laguna	9	Septiembre	2023-09-28T00:00:00	2024-11-08T02:00:00	1	Precipitación	0
80008	7	Sololá	717	San Juan la Laguna	12	San Juan la Laguna	9	Septiembre	2023-09-28T00:00:00	2024-11-08T02:00:00	8	Radiación solar	0
80009	7	Sololá	717	San Juan la Laguna	12	San Juan la Laguna	9	Septiembre	2023-09-28T00:00:00	2024-11-08T03:00:00	2	Temperatura media	16.7
80010	7	Sololá	717	San Juan la Laguna	12	San Juan la Laguna	9	Septiembre	2023-09-28T00:00:00	2024-11-08T03:00:00	4	Temperatura máxima	16.8
80011	7	Sololá	717	San Juan la Laguna	12	San Juan la Laguna	9	Septiembre	2023-09-28T00:00:00	2024-11-08T03:00:00	3	Temperatura mínima	16.6
80012	7	Sololá	717	San Juan la Laguna	12	San Juan la Laguna	9	Septiembre	2023-09-28T00:00:00	2024-11-08T03:00:00	5	Humedad	89
80013	7	Sololá	717	San Juan la Laguna	12	San Juan la Laguna	9	Septiembre	2023-09-28T00:00:00	2024-11-08T03:00:00	6	Velocidad del viento	6.4
80014	7	Sololá	717	San Juan la Laguna	12	San Juan la Laguna	9	Septiembre	2023-09-28T00:00:00	2024-11-08T03:00:00	7	Dirección del viento	6.44
80015	7	Sololá	717	San Juan la Laguna	12	San Juan la Laguna	9	Septiembre	2023-09-28T00:00:00	2024-11-08T03:00:00	1	Precipitación	0
80016	7	Sololá	717	San Juan la Laguna	12	San Juan la Laguna	9	Septiembre	2023-09-28T00:00:00	2024-11-08T03:00:00	8	Radiación solar	0
80017	7	Sololá	717	San Juan la Laguna	12	San Juan la Laguna	9	Septiembre	2023-09-28T00:00:00	2024-11-08T04:00:00	2	Temperatura media	16.5
80018	7	Sololá	717	San Juan la Laguna	12	San Juan la Laguna	9	Septiembre	2023-09-28T00:00:00	2024-11-08T04:00:00	4	Temperatura máxima	16.8
80019	7	Sololá	717	San Juan la Laguna	12	San Juan la Laguna	9	Septiembre	2023-09-28T00:00:00	2024-11-08T04:00:00	3	Temperatura mínima	16.4
80020	7	Sololá	717	San Juan la Laguna	12	San Juan la Laguna	9	Septiembre	2023-09-28T00:00:00	2024-11-08T04:00:00	5	Humedad	90
80021	7	Sololá	717	San Juan la Laguna	12	San Juan la Laguna	9	Septiembre	2023-09-28T00:00:00	2024-11-08T04:00:00	6	Velocidad del viento	4.8
80022	7	Sololá	717	San Juan la Laguna	12	San Juan la Laguna	9	Septiembre	2023-09-28T00:00:00	2024-11-08T04:00:00	7	Dirección del viento	4.83
80023	7	Sololá	717	San Juan la Laguna	12	San Juan la Laguna	9	Septiembre	2023-09-28T00:00:00	2024-11-08T04:00:00	1	Precipitación	0
80024	7	Sololá	717	San Juan la Laguna	12	San Juan la Laguna	9	Septiembre	2023-09-28T00:00:00	2024-11-08T04:00:00	8	Radiación solar	0
80025	7	Sololá	717	San Juan la Laguna	12	San Juan la Laguna	9	Septiembre	2023-09-28T00:00:00	2024-11-08T05:00:00	2	Temperatura media	16.4
80026	7	Sololá	717	San Juan la Laguna	12	San Juan la Laguna	9	Septiembre	2023-09-28T00:00:00	2024-11-08T05:00:00	4	Temperatura máxima	16.6
80027	7	Sololá	717	San Juan la Laguna	12	San Juan la Laguna	9	Septiembre	2023-09-28T00:00:00	2024-11-08T05:00:00	3	Temperatura mínima	16.2
80028	7	Sololá	717	San Juan la Laguna	12	San Juan la Laguna	9	Septiembre	2023-09-28T00:00:00	2024-11-08T05:00:00	5	Humedad	89
80029	7	Sololá	717	San Juan la Laguna	12	San Juan la Laguna	9	Septiembre	2023-09-28T00:00:00	2024-11-08T05:00:00	6	Velocidad del viento	6.4
80030	7	Sololá	717	San Juan la Laguna	12	San Juan la Laguna	9	Septiembre	2023-09-28T00:00:00	2024-11-08T05:00:00	7	Dirección del viento	6.44
80031	7	Sololá	717	San Juan la Laguna	12	San Juan la Laguna	9	Septiembre	2023-09-28T00:00:00	2024-11-08T05:00:00	1	Precipitación	0
80032	7	Sololá	717	San Juan la Laguna	12	San Juan la Laguna	9	Septiembre	2023-09-28T00:00:00	2024-11-08T05:00:00	8	Radiación solar	0
80033	7	Sololá	717	San Juan la Laguna	12	San Juan la Laguna	9	Septiembre	2023-09-28T00:00:00	2024-11-08T06:00:00	2	Temperatura media	16.2
80034	7	Sololá	717	San Juan la Laguna	12	San Juan la Laguna	9	Septiembre	2023-09-28T00:00:00	2024-11-08T06:00:00	4	Temperatura máxima	16.6
80035	7	Sololá	717	San Juan la Laguna	12	San Juan la Laguna	9	Septiembre	2023-09-28T00:00:00	2024-11-08T06:00:00	3	Temperatura mínima	16.1
80036	7	Sololá	717	San Juan la Laguna	12	San Juan la Laguna	9	Septiembre	2023-09-28T00:00:00	2024-11-08T06:00:00	5	Humedad	89
80037	7	Sololá	717	San Juan la Laguna	12	San Juan la Laguna	9	Septiembre	2023-09-28T00:00:00	2024-11-08T06:00:00	6	Velocidad del viento	6.4
80038	7	Sololá	717	San Juan la Laguna	12	San Juan la Laguna	9	Septiembre	2023-09-28T00:00:00	2024-11-08T06:00:00	7	Dirección del viento	6.44
80039	7	Sololá	717	San Juan la Laguna	12	San Juan la Laguna	9	Septiembre	2023-09-28T00:00:00	2024-11-08T06:00:00	1	Precipitación	0
80040	7	Sololá	717	San Juan la Laguna	12	San Juan la Laguna	9	Septiembre	2023-09-28T00:00:00	2024-11-08T06:00:00	8	Radiación solar	0
80041	7	Sololá	717	San Juan la Laguna	12	San Juan la Laguna	9	Septiembre	2023-09-28T00:00:00	2024-11-08T07:00:00	2	Temperatura media	17.1
80042	7	Sololá	717	San Juan la Laguna	12	San Juan la Laguna	9	Septiembre	2023-09-28T00:00:00	2024-11-08T07:00:00	4	Temperatura máxima	17.1
80043	7	Sololá	717	San Juan la Laguna	12	San Juan la Laguna	9	Septiembre	2023-09-28T00:00:00	2024-11-08T07:00:00	3	Temperatura mínima	16.2
80044	7	Sololá	717	San Juan la Laguna	12	San Juan la Laguna	9	Septiembre	2023-09-28T00:00:00	2024-11-08T07:00:00	5	Humedad	89
80045	7	Sololá	717	San Juan la Laguna	12	San Juan la Laguna	9	Septiembre	2023-09-28T00:00:00	2024-11-08T07:00:00	6	Velocidad del viento	4.8
80046	7	Sololá	717	San Juan la Laguna	12	San Juan la Laguna	9	Septiembre	2023-09-28T00:00:00	2024-11-08T07:00:00	7	Dirección del viento	4.83
80047	7	Sololá	717	San Juan la Laguna	12	San Juan la Laguna	9	Septiembre	2023-09-28T00:00:00	2024-11-08T07:00:00	1	Precipitación	0
80048	7	Sololá	717	San Juan la Laguna	12	San Juan la Laguna	9	Septiembre	2023-09-28T00:00:00	2024-11-08T07:00:00	8	Radiación solar	55
80049	7	Sololá	717	San Juan la Laguna	12	San Juan la Laguna	9	Septiembre	2023-09-28T00:00:00	2024-11-08T08:00:00	2	Temperatura media	21.4
80050	7	Sololá	717	San Juan la Laguna	12	San Juan la Laguna	9	Septiembre	2023-09-28T00:00:00	2024-11-08T08:00:00	4	Temperatura máxima	21.4
80051	7	Sololá	717	San Juan la Laguna	12	San Juan la Laguna	9	Septiembre	2023-09-28T00:00:00	2024-11-08T08:00:00	3	Temperatura mínima	17.1
80052	7	Sololá	717	San Juan la Laguna	12	San Juan la Laguna	9	Septiembre	2023-09-28T00:00:00	2024-11-08T08:00:00	5	Humedad	78
80053	7	Sololá	717	San Juan la Laguna	12	San Juan la Laguna	9	Septiembre	2023-09-28T00:00:00	2024-11-08T08:00:00	6	Velocidad del viento	0
80054	7	Sololá	717	San Juan la Laguna	12	San Juan la Laguna	9	Septiembre	2023-09-28T00:00:00	2024-11-08T08:00:00	7	Dirección del viento	0
80055	7	Sololá	717	San Juan la Laguna	12	San Juan la Laguna	9	Septiembre	2023-09-28T00:00:00	2024-11-08T08:00:00	1	Precipitación	0
80056	7	Sololá	717	San Juan la Laguna	12	San Juan la Laguna	9	Septiembre	2023-09-28T00:00:00	2024-11-08T08:00:00	8	Radiación solar	253
80057	7	Sololá	717	San Juan la Laguna	12	San Juan la Laguna	9	Septiembre	2023-09-28T00:00:00	2024-11-08T09:00:00	2	Temperatura media	22.4
80058	7	Sololá	717	San Juan la Laguna	12	San Juan la Laguna	9	Septiembre	2023-09-28T00:00:00	2024-11-08T09:00:00	4	Temperatura máxima	22.6
80059	7	Sololá	717	San Juan la Laguna	12	San Juan la Laguna	9	Septiembre	2023-09-28T00:00:00	2024-11-08T09:00:00	3	Temperatura mínima	21.3
80060	7	Sololá	717	San Juan la Laguna	12	San Juan la Laguna	9	Septiembre	2023-09-28T00:00:00	2024-11-08T09:00:00	5	Humedad	75
80061	7	Sololá	717	San Juan la Laguna	12	San Juan la Laguna	9	Septiembre	2023-09-28T00:00:00	2024-11-08T09:00:00	6	Velocidad del viento	3.2
80062	7	Sololá	717	San Juan la Laguna	12	San Juan la Laguna	9	Septiembre	2023-09-28T00:00:00	2024-11-08T09:00:00	7	Dirección del viento	3.22
80063	7	Sololá	717	San Juan la Laguna	12	San Juan la Laguna	9	Septiembre	2023-09-28T00:00:00	2024-11-08T09:00:00	1	Precipitación	0
80064	7	Sololá	717	San Juan la Laguna	12	San Juan la Laguna	9	Septiembre	2023-09-28T00:00:00	2024-11-08T09:00:00	8	Radiación solar	510
80065	7	Sololá	717	San Juan la Laguna	12	San Juan la Laguna	9	Septiembre	2023-09-28T00:00:00	2024-11-08T10:00:00	2	Temperatura media	23.3
80066	7	Sololá	717	San Juan la Laguna	12	San Juan la Laguna	9	Septiembre	2023-09-28T00:00:00	2024-11-08T10:00:00	4	Temperatura máxima	23.3
80067	7	Sololá	717	San Juan la Laguna	12	San Juan la Laguna	9	Septiembre	2023-09-28T00:00:00	2024-11-08T10:00:00	3	Temperatura mínima	22.1
80068	7	Sololá	717	San Juan la Laguna	12	San Juan la Laguna	9	Septiembre	2023-09-28T00:00:00	2024-11-08T10:00:00	5	Humedad	70
80069	7	Sololá	717	San Juan la Laguna	12	San Juan la Laguna	9	Septiembre	2023-09-28T00:00:00	2024-11-08T10:00:00	6	Velocidad del viento	6.4
80070	7	Sololá	717	San Juan la Laguna	12	San Juan la Laguna	9	Septiembre	2023-09-28T00:00:00	2024-11-08T10:00:00	7	Dirección del viento	6.44
80071	7	Sololá	717	San Juan la Laguna	12	San Juan la Laguna	9	Septiembre	2023-09-28T00:00:00	2024-11-08T10:00:00	1	Precipitación	0
80072	7	Sololá	717	San Juan la Laguna	12	San Juan la Laguna	9	Septiembre	2023-09-28T00:00:00	2024-11-08T10:00:00	8	Radiación solar	694
80073	7	Sololá	717	San Juan la Laguna	12	San Juan la Laguna	9	Septiembre	2023-09-28T00:00:00	2024-11-08T11:00:00	2	Temperatura media	24.6
80074	7	Sololá	717	San Juan la Laguna	12	San Juan la Laguna	9	Septiembre	2023-09-28T00:00:00	2024-11-08T11:00:00	4	Temperatura máxima	24.7
80075	7	Sololá	717	San Juan la Laguna	12	San Juan la Laguna	9	Septiembre	2023-09-28T00:00:00	2024-11-08T11:00:00	3	Temperatura mínima	23.2
80076	7	Sololá	717	San Juan la Laguna	12	San Juan la Laguna	9	Septiembre	2023-09-28T00:00:00	2024-11-08T11:00:00	5	Humedad	61
80077	7	Sololá	717	San Juan la Laguna	12	San Juan la Laguna	9	Septiembre	2023-09-28T00:00:00	2024-11-08T11:00:00	6	Velocidad del viento	6.4
80078	7	Sololá	717	San Juan la Laguna	12	San Juan la Laguna	9	Septiembre	2023-09-28T00:00:00	2024-11-08T11:00:00	7	Dirección del viento	6.44
80079	7	Sololá	717	San Juan la Laguna	12	San Juan la Laguna	9	Septiembre	2023-09-28T00:00:00	2024-11-08T11:00:00	1	Precipitación	0
80080	7	Sololá	717	San Juan la Laguna	12	San Juan la Laguna	9	Septiembre	2023-09-28T00:00:00	2024-11-08T11:00:00	8	Radiación solar	827
80081	7	Sololá	717	San Juan la Laguna	12	San Juan la Laguna	9	Septiembre	2023-09-28T00:00:00	2024-11-08T12:00:00	2	Temperatura media	25.4
80082	7	Sololá	717	San Juan la Laguna	12	San Juan la Laguna	9	Septiembre	2023-09-28T00:00:00	2024-11-08T12:00:00	4	Temperatura máxima	25.6
80083	7	Sololá	717	San Juan la Laguna	12	San Juan la Laguna	9	Septiembre	2023-09-28T00:00:00	2024-11-08T12:00:00	3	Temperatura mínima	24.6
80084	7	Sololá	717	San Juan la Laguna	12	San Juan la Laguna	9	Septiembre	2023-09-28T00:00:00	2024-11-08T12:00:00	5	Humedad	67
80085	7	Sololá	717	San Juan la Laguna	12	San Juan la Laguna	9	Septiembre	2023-09-28T00:00:00	2024-11-08T12:00:00	6	Velocidad del viento	8
80086	7	Sololá	717	San Juan la Laguna	12	San Juan la Laguna	9	Septiembre	2023-09-28T00:00:00	2024-11-08T12:00:00	7	Dirección del viento	8.05
80087	7	Sololá	717	San Juan la Laguna	12	San Juan la Laguna	9	Septiembre	2023-09-28T00:00:00	2024-11-08T12:00:00	1	Precipitación	0
80088	7	Sololá	717	San Juan la Laguna	12	San Juan la Laguna	9	Septiembre	2023-09-28T00:00:00	2024-11-08T12:00:00	8	Radiación solar	865
80089	7	Sololá	717	San Juan la Laguna	12	San Juan la Laguna	9	Septiembre	2023-09-28T00:00:00	2024-11-08T13:00:00	2	Temperatura media	25.3
80090	7	Sololá	717	San Juan la Laguna	12	San Juan la Laguna	9	Septiembre	2023-09-28T00:00:00	2024-11-08T13:00:00	4	Temperatura máxima	25.4
80091	7	Sololá	717	San Juan la Laguna	12	San Juan la Laguna	9	Septiembre	2023-09-28T00:00:00	2024-11-08T13:00:00	3	Temperatura mínima	24.7
80092	7	Sololá	717	San Juan la Laguna	12	San Juan la Laguna	9	Septiembre	2023-09-28T00:00:00	2024-11-08T13:00:00	5	Humedad	66
80093	7	Sololá	717	San Juan la Laguna	12	San Juan la Laguna	9	Septiembre	2023-09-28T00:00:00	2024-11-08T13:00:00	6	Velocidad del viento	6.4
80094	7	Sololá	717	San Juan la Laguna	12	San Juan la Laguna	9	Septiembre	2023-09-28T00:00:00	2024-11-08T13:00:00	7	Dirección del viento	6.44
80095	7	Sololá	717	San Juan la Laguna	12	San Juan la Laguna	9	Septiembre	2023-09-28T00:00:00	2024-11-08T13:00:00	1	Precipitación	0
80096	7	Sololá	717	San Juan la Laguna	12	San Juan la Laguna	9	Septiembre	2023-09-28T00:00:00	2024-11-08T13:00:00	8	Radiación solar	926
80097	7	Sololá	717	San Juan la Laguna	12	San Juan la Laguna	9	Septiembre	2023-09-28T00:00:00	2024-11-08T14:00:00	2	Temperatura media	23.7
80098	7	Sololá	717	San Juan la Laguna	12	San Juan la Laguna	9	Septiembre	2023-09-28T00:00:00	2024-11-08T14:00:00	4	Temperatura máxima	25.7
80099	7	Sololá	717	San Juan la Laguna	12	San Juan la Laguna	9	Septiembre	2023-09-28T00:00:00	2024-11-08T14:00:00	3	Temperatura mínima	23.6
80100	7	Sololá	717	San Juan la Laguna	12	San Juan la Laguna	9	Septiembre	2023-09-28T00:00:00	2024-11-08T14:00:00	5	Humedad	76
80101	7	Sololá	717	San Juan la Laguna	12	San Juan la Laguna	9	Septiembre	2023-09-28T00:00:00	2024-11-08T14:00:00	6	Velocidad del viento	9.7
80102	7	Sololá	717	San Juan la Laguna	12	San Juan la Laguna	9	Septiembre	2023-09-28T00:00:00	2024-11-08T14:00:00	7	Dirección del viento	9.66
80103	7	Sololá	717	San Juan la Laguna	12	San Juan la Laguna	9	Septiembre	2023-09-28T00:00:00	2024-11-08T14:00:00	1	Precipitación	0
80104	7	Sololá	717	San Juan la Laguna	12	San Juan la Laguna	9	Septiembre	2023-09-28T00:00:00	2024-11-08T14:00:00	8	Radiación solar	726
80105	7	Sololá	717	San Juan la Laguna	12	San Juan la Laguna	9	Septiembre	2023-09-28T00:00:00	2024-11-08T15:00:00	2	Temperatura media	20.9
80106	7	Sololá	717	San Juan la Laguna	12	San Juan la Laguna	9	Septiembre	2023-09-28T00:00:00	2024-11-08T15:00:00	4	Temperatura máxima	24.7
80107	7	Sololá	717	San Juan la Laguna	12	San Juan la Laguna	9	Septiembre	2023-09-28T00:00:00	2024-11-08T15:00:00	3	Temperatura mínima	20.9
80108	7	Sololá	717	San Juan la Laguna	12	San Juan la Laguna	9	Septiembre	2023-09-28T00:00:00	2024-11-08T15:00:00	5	Humedad	84
80109	7	Sololá	717	San Juan la Laguna	12	San Juan la Laguna	9	Septiembre	2023-09-28T00:00:00	2024-11-08T15:00:00	6	Velocidad del viento	11.3
80110	7	Sololá	717	San Juan la Laguna	12	San Juan la Laguna	9	Septiembre	2023-09-28T00:00:00	2024-11-08T15:00:00	7	Dirección del viento	11.27
80111	7	Sololá	717	San Juan la Laguna	12	San Juan la Laguna	9	Septiembre	2023-09-28T00:00:00	2024-11-08T15:00:00	1	Precipitación	0
80112	7	Sololá	717	San Juan la Laguna	12	San Juan la Laguna	9	Septiembre	2023-09-28T00:00:00	2024-11-08T15:00:00	8	Radiación solar	240
80113	7	Sololá	717	San Juan la Laguna	12	San Juan la Laguna	9	Septiembre	2023-09-28T00:00:00	2024-11-08T16:00:00	2	Temperatura media	17.8
80114	7	Sololá	717	San Juan la Laguna	12	San Juan la Laguna	9	Septiembre	2023-09-28T00:00:00	2024-11-08T16:00:00	4	Temperatura máxima	20.9
80115	7	Sololá	717	San Juan la Laguna	12	San Juan la Laguna	9	Septiembre	2023-09-28T00:00:00	2024-11-08T16:00:00	3	Temperatura mínima	17.7
80116	7	Sololá	717	San Juan la Laguna	12	San Juan la Laguna	9	Septiembre	2023-09-28T00:00:00	2024-11-08T16:00:00	5	Humedad	91
80117	7	Sololá	717	San Juan la Laguna	12	San Juan la Laguna	9	Septiembre	2023-09-28T00:00:00	2024-11-08T16:00:00	6	Velocidad del viento	6.4
80118	7	Sololá	717	San Juan la Laguna	12	San Juan la Laguna	9	Septiembre	2023-09-28T00:00:00	2024-11-08T16:00:00	7	Dirección del viento	6.44
80119	7	Sololá	717	San Juan la Laguna	12	San Juan la Laguna	9	Septiembre	2023-09-28T00:00:00	2024-11-08T16:00:00	1	Precipitación	13.6
80120	7	Sololá	717	San Juan la Laguna	12	San Juan la Laguna	9	Septiembre	2023-09-28T00:00:00	2024-11-08T16:00:00	8	Radiación solar	12
80121	7	Sololá	717	San Juan la Laguna	12	San Juan la Laguna	9	Septiembre	2023-09-28T00:00:00	2024-11-08T17:00:00	2	Temperatura media	18.2
80122	7	Sololá	717	San Juan la Laguna	12	San Juan la Laguna	9	Septiembre	2023-09-28T00:00:00	2024-11-08T17:00:00	4	Temperatura máxima	18.3
80123	7	Sololá	717	San Juan la Laguna	12	San Juan la Laguna	9	Septiembre	2023-09-28T00:00:00	2024-11-08T17:00:00	3	Temperatura mínima	17.8
80124	7	Sololá	717	San Juan la Laguna	12	San Juan la Laguna	9	Septiembre	2023-09-28T00:00:00	2024-11-08T17:00:00	5	Humedad	91
80125	7	Sololá	717	San Juan la Laguna	12	San Juan la Laguna	9	Septiembre	2023-09-28T00:00:00	2024-11-08T17:00:00	6	Velocidad del viento	4.8
80126	7	Sololá	717	San Juan la Laguna	12	San Juan la Laguna	9	Septiembre	2023-09-28T00:00:00	2024-11-08T17:00:00	7	Dirección del viento	4.83
80127	7	Sololá	717	San Juan la Laguna	12	San Juan la Laguna	9	Septiembre	2023-09-28T00:00:00	2024-11-08T17:00:00	1	Precipitación	0.6
80128	7	Sololá	717	San Juan la Laguna	12	San Juan la Laguna	9	Septiembre	2023-09-28T00:00:00	2024-11-08T17:00:00	8	Radiación solar	1
80129	7	Sololá	717	San Juan la Laguna	12	San Juan la Laguna	9	Septiembre	2023-09-28T00:00:00	2024-11-08T18:00:00	2	Temperatura media	18.6
80130	7	Sololá	717	San Juan la Laguna	12	San Juan la Laguna	9	Septiembre	2023-09-28T00:00:00	2024-11-08T18:00:00	4	Temperatura máxima	18.7
80131	7	Sololá	717	San Juan la Laguna	12	San Juan la Laguna	9	Septiembre	2023-09-28T00:00:00	2024-11-08T18:00:00	3	Temperatura mínima	18.2
80132	7	Sololá	717	San Juan la Laguna	12	San Juan la Laguna	9	Septiembre	2023-09-28T00:00:00	2024-11-08T18:00:00	5	Humedad	90
80133	7	Sololá	717	San Juan la Laguna	12	San Juan la Laguna	9	Septiembre	2023-09-28T00:00:00	2024-11-08T18:00:00	6	Velocidad del viento	4.8
80134	7	Sololá	717	San Juan la Laguna	12	San Juan la Laguna	9	Septiembre	2023-09-28T00:00:00	2024-11-08T18:00:00	7	Dirección del viento	4.83
80135	7	Sololá	717	San Juan la Laguna	12	San Juan la Laguna	9	Septiembre	2023-09-28T00:00:00	2024-11-08T18:00:00	1	Precipitación	0.4
80136	7	Sololá	717	San Juan la Laguna	12	San Juan la Laguna	9	Septiembre	2023-09-28T00:00:00	2024-11-08T18:00:00	8	Radiación solar	0
80137	7	Sololá	717	San Juan la Laguna	12	San Juan la Laguna	9	Septiembre	2023-09-28T00:00:00	2024-11-08T19:00:00	2	Temperatura media	18.2
80138	7	Sololá	717	San Juan la Laguna	12	San Juan la Laguna	9	Septiembre	2023-09-28T00:00:00	2024-11-08T19:00:00	4	Temperatura máxima	18.6
80139	7	Sololá	717	San Juan la Laguna	12	San Juan la Laguna	9	Septiembre	2023-09-28T00:00:00	2024-11-08T19:00:00	3	Temperatura mínima	18.2
80140	7	Sololá	717	San Juan la Laguna	12	San Juan la Laguna	9	Septiembre	2023-09-28T00:00:00	2024-11-08T19:00:00	5	Humedad	91
80141	7	Sololá	717	San Juan la Laguna	12	San Juan la Laguna	9	Septiembre	2023-09-28T00:00:00	2024-11-08T19:00:00	6	Velocidad del viento	3.2
80142	7	Sololá	717	San Juan la Laguna	12	San Juan la Laguna	9	Septiembre	2023-09-28T00:00:00	2024-11-08T19:00:00	7	Dirección del viento	3.22
80143	7	Sololá	717	San Juan la Laguna	12	San Juan la Laguna	9	Septiembre	2023-09-28T00:00:00	2024-11-08T19:00:00	1	Precipitación	2.6
80144	7	Sololá	717	San Juan la Laguna	12	San Juan la Laguna	9	Septiembre	2023-09-28T00:00:00	2024-11-08T19:00:00	8	Radiación solar	0
80145	7	Sololá	717	San Juan la Laguna	12	San Juan la Laguna	9	Septiembre	2023-09-28T00:00:00	2024-11-08T20:00:00	2	Temperatura media	18.1
80146	7	Sololá	717	San Juan la Laguna	12	San Juan la Laguna	9	Septiembre	2023-09-28T00:00:00	2024-11-08T20:00:00	4	Temperatura máxima	18.3
80147	7	Sololá	717	San Juan la Laguna	12	San Juan la Laguna	9	Septiembre	2023-09-28T00:00:00	2024-11-08T20:00:00	3	Temperatura mínima	17.9
80148	7	Sololá	717	San Juan la Laguna	12	San Juan la Laguna	9	Septiembre	2023-09-28T00:00:00	2024-11-08T20:00:00	5	Humedad	91
80149	7	Sololá	717	San Juan la Laguna	12	San Juan la Laguna	9	Septiembre	2023-09-28T00:00:00	2024-11-08T20:00:00	6	Velocidad del viento	3.2
80150	7	Sololá	717	San Juan la Laguna	12	San Juan la Laguna	9	Septiembre	2023-09-28T00:00:00	2024-11-08T20:00:00	7	Dirección del viento	3.22
80151	7	Sololá	717	San Juan la Laguna	12	San Juan la Laguna	9	Septiembre	2023-09-28T00:00:00	2024-11-08T20:00:00	1	Precipitación	2
80152	7	Sololá	717	San Juan la Laguna	12	San Juan la Laguna	9	Septiembre	2023-09-28T00:00:00	2024-11-08T20:00:00	8	Radiación solar	0
80153	7	Sololá	717	San Juan la Laguna	12	San Juan la Laguna	9	Septiembre	2023-09-28T00:00:00	2024-11-08T21:00:00	2	Temperatura media	18.1
80154	7	Sololá	717	San Juan la Laguna	12	San Juan la Laguna	9	Septiembre	2023-09-28T00:00:00	2024-11-08T21:00:00	4	Temperatura máxima	18.1
80155	7	Sololá	717	San Juan la Laguna	12	San Juan la Laguna	9	Septiembre	2023-09-28T00:00:00	2024-11-08T21:00:00	3	Temperatura mínima	18.1
80156	7	Sololá	717	San Juan la Laguna	12	San Juan la Laguna	9	Septiembre	2023-09-28T00:00:00	2024-11-08T21:00:00	5	Humedad	91
80157	7	Sololá	717	San Juan la Laguna	12	San Juan la Laguna	9	Septiembre	2023-09-28T00:00:00	2024-11-08T21:00:00	6	Velocidad del viento	1.6
80158	7	Sololá	717	San Juan la Laguna	12	San Juan la Laguna	9	Septiembre	2023-09-28T00:00:00	2024-11-08T21:00:00	7	Dirección del viento	1.61
80159	7	Sololá	717	San Juan la Laguna	12	San Juan la Laguna	9	Septiembre	2023-09-28T00:00:00	2024-11-08T21:00:00	1	Precipitación	0.2
80160	7	Sololá	717	San Juan la Laguna	12	San Juan la Laguna	9	Septiembre	2023-09-28T00:00:00	2024-11-08T21:00:00	8	Radiación solar	0
80161	7	Sololá	717	San Juan la Laguna	12	San Juan la Laguna	9	Septiembre	2023-09-28T00:00:00	2024-11-08T22:00:00	2	Temperatura media	18
80162	7	Sololá	717	San Juan la Laguna	12	San Juan la Laguna	9	Septiembre	2023-09-28T00:00:00	2024-11-08T22:00:00	4	Temperatura máxima	18.2
80163	7	Sololá	717	San Juan la Laguna	12	San Juan la Laguna	9	Septiembre	2023-09-28T00:00:00	2024-11-08T22:00:00	3	Temperatura mínima	18
80164	7	Sololá	717	San Juan la Laguna	12	San Juan la Laguna	9	Septiembre	2023-09-28T00:00:00	2024-11-08T22:00:00	5	Humedad	91
80165	7	Sololá	717	San Juan la Laguna	12	San Juan la Laguna	9	Septiembre	2023-09-28T00:00:00	2024-11-08T22:00:00	6	Velocidad del viento	1.6
80166	7	Sololá	717	San Juan la Laguna	12	San Juan la Laguna	9	Septiembre	2023-09-28T00:00:00	2024-11-08T22:00:00	7	Dirección del viento	1.61
80167	7	Sololá	717	San Juan la Laguna	12	San Juan la Laguna	9	Septiembre	2023-09-28T00:00:00	2024-11-08T22:00:00	1	Precipitación	0
80168	7	Sololá	717	San Juan la Laguna	12	San Juan la Laguna	9	Septiembre	2023-09-28T00:00:00	2024-11-08T22:00:00	8	Radiación solar	0
80169	7	Sololá	717	San Juan la Laguna	12	San Juan la Laguna	9	Septiembre	2023-09-28T00:00:00	2024-11-08T23:00:00	2	Temperatura media	17.9
80170	7	Sololá	717	San Juan la Laguna	12	San Juan la Laguna	9	Septiembre	2023-09-28T00:00:00	2024-11-08T23:00:00	4	Temperatura máxima	18.1
80171	7	Sololá	717	San Juan la Laguna	12	San Juan la Laguna	9	Septiembre	2023-09-28T00:00:00	2024-11-08T23:00:00	3	Temperatura mínima	17.9
80172	7	Sololá	717	San Juan la Laguna	12	San Juan la Laguna	9	Septiembre	2023-09-28T00:00:00	2024-11-08T23:00:00	5	Humedad	91
80173	7	Sololá	717	San Juan la Laguna	12	San Juan la Laguna	9	Septiembre	2023-09-28T00:00:00	2024-11-08T23:00:00	6	Velocidad del viento	4.8
80174	7	Sololá	717	San Juan la Laguna	12	San Juan la Laguna	9	Septiembre	2023-09-28T00:00:00	2024-11-08T23:00:00	7	Dirección del viento	4.83
80175	7	Sololá	717	San Juan la Laguna	12	San Juan la Laguna	9	Septiembre	2023-09-28T00:00:00	2024-11-08T23:00:00	1	Precipitación	0.4
80176	7	Sololá	717	San Juan la Laguna	12	San Juan la Laguna	9	Septiembre	2023-09-28T00:00:00	2024-11-08T23:00:00	8	Radiación solar	0
80177	7	Sololá	717	San Juan la Laguna	12	San Juan la Laguna	9	Septiembre	2023-09-29T00:00:00	2024-11-08T00:00:00	2	Temperatura media	17.8
80178	7	Sololá	717	San Juan la Laguna	12	San Juan la Laguna	9	Septiembre	2023-09-29T00:00:00	2024-11-08T00:00:00	4	Temperatura máxima	18
80179	7	Sololá	717	San Juan la Laguna	12	San Juan la Laguna	9	Septiembre	2023-09-29T00:00:00	2024-11-08T00:00:00	3	Temperatura mínima	17.8
80180	7	Sololá	717	San Juan la Laguna	12	San Juan la Laguna	9	Septiembre	2023-09-29T00:00:00	2024-11-08T00:00:00	5	Humedad	91
80181	7	Sololá	717	San Juan la Laguna	12	San Juan la Laguna	9	Septiembre	2023-09-29T00:00:00	2024-11-08T00:00:00	6	Velocidad del viento	3.2
80182	7	Sololá	717	San Juan la Laguna	12	San Juan la Laguna	9	Septiembre	2023-09-29T00:00:00	2024-11-08T00:00:00	7	Dirección del viento	3.22
80183	7	Sololá	717	San Juan la Laguna	12	San Juan la Laguna	9	Septiembre	2023-09-29T00:00:00	2024-11-08T00:00:00	1	Precipitación	0.2
80184	7	Sololá	717	San Juan la Laguna	12	San Juan la Laguna	9	Septiembre	2023-09-29T00:00:00	2024-11-08T00:00:00	8	Radiación solar	0
80185	7	Sololá	717	San Juan la Laguna	12	San Juan la Laguna	9	Septiembre	2023-09-29T00:00:00	2024-11-08T01:00:00	2	Temperatura media	17.4
80186	7	Sololá	717	San Juan la Laguna	12	San Juan la Laguna	9	Septiembre	2023-09-29T00:00:00	2024-11-08T01:00:00	4	Temperatura máxima	17.8
80187	7	Sololá	717	San Juan la Laguna	12	San Juan la Laguna	9	Septiembre	2023-09-29T00:00:00	2024-11-08T01:00:00	3	Temperatura mínima	17.4
80188	7	Sololá	717	San Juan la Laguna	12	San Juan la Laguna	9	Septiembre	2023-09-29T00:00:00	2024-11-08T01:00:00	5	Humedad	91
80189	7	Sololá	717	San Juan la Laguna	12	San Juan la Laguna	9	Septiembre	2023-09-29T00:00:00	2024-11-08T01:00:00	6	Velocidad del viento	3.2
80190	7	Sololá	717	San Juan la Laguna	12	San Juan la Laguna	9	Septiembre	2023-09-29T00:00:00	2024-11-08T01:00:00	7	Dirección del viento	3.22
80191	7	Sololá	717	San Juan la Laguna	12	San Juan la Laguna	9	Septiembre	2023-09-29T00:00:00	2024-11-08T01:00:00	1	Precipitación	0
80192	7	Sololá	717	San Juan la Laguna	12	San Juan la Laguna	9	Septiembre	2023-09-29T00:00:00	2024-11-08T01:00:00	8	Radiación solar	0
80193	7	Sololá	717	San Juan la Laguna	12	San Juan la Laguna	9	Septiembre	2023-09-29T00:00:00	2024-11-08T02:00:00	2	Temperatura media	17.4
80194	7	Sololá	717	San Juan la Laguna	12	San Juan la Laguna	9	Septiembre	2023-09-29T00:00:00	2024-11-08T02:00:00	4	Temperatura máxima	17.5
80195	7	Sololá	717	San Juan la Laguna	12	San Juan la Laguna	9	Septiembre	2023-09-29T00:00:00	2024-11-08T02:00:00	3	Temperatura mínima	17.4
80196	7	Sololá	717	San Juan la Laguna	12	San Juan la Laguna	9	Septiembre	2023-09-29T00:00:00	2024-11-08T02:00:00	5	Humedad	91
80197	7	Sololá	717	San Juan la Laguna	12	San Juan la Laguna	9	Septiembre	2023-09-29T00:00:00	2024-11-08T02:00:00	6	Velocidad del viento	3.2
80198	7	Sololá	717	San Juan la Laguna	12	San Juan la Laguna	9	Septiembre	2023-09-29T00:00:00	2024-11-08T02:00:00	7	Dirección del viento	3.22
80199	7	Sololá	717	San Juan la Laguna	12	San Juan la Laguna	9	Septiembre	2023-09-29T00:00:00	2024-11-08T02:00:00	1	Precipitación	0
80200	7	Sololá	717	San Juan la Laguna	12	San Juan la Laguna	9	Septiembre	2023-09-29T00:00:00	2024-11-08T02:00:00	8	Radiación solar	0
80201	7	Sololá	717	San Juan la Laguna	12	San Juan la Laguna	9	Septiembre	2023-09-29T00:00:00	2024-11-08T03:00:00	2	Temperatura media	17.4
80202	7	Sololá	717	San Juan la Laguna	12	San Juan la Laguna	9	Septiembre	2023-09-29T00:00:00	2024-11-08T03:00:00	4	Temperatura máxima	17.5
80203	7	Sololá	717	San Juan la Laguna	12	San Juan la Laguna	9	Septiembre	2023-09-29T00:00:00	2024-11-08T03:00:00	3	Temperatura mínima	17.3
80204	7	Sololá	717	San Juan la Laguna	12	San Juan la Laguna	9	Septiembre	2023-09-29T00:00:00	2024-11-08T03:00:00	5	Humedad	91
80205	7	Sololá	717	San Juan la Laguna	12	San Juan la Laguna	9	Septiembre	2023-09-29T00:00:00	2024-11-08T03:00:00	6	Velocidad del viento	3.2
80206	7	Sololá	717	San Juan la Laguna	12	San Juan la Laguna	9	Septiembre	2023-09-29T00:00:00	2024-11-08T03:00:00	7	Dirección del viento	3.22
80207	7	Sololá	717	San Juan la Laguna	12	San Juan la Laguna	9	Septiembre	2023-09-29T00:00:00	2024-11-08T03:00:00	1	Precipitación	0
80208	7	Sololá	717	San Juan la Laguna	12	San Juan la Laguna	9	Septiembre	2023-09-29T00:00:00	2024-11-08T03:00:00	8	Radiación solar	0
80209	7	Sololá	717	San Juan la Laguna	12	San Juan la Laguna	9	Septiembre	2023-09-29T00:00:00	2024-11-08T04:00:00	2	Temperatura media	17.6
80210	7	Sololá	717	San Juan la Laguna	12	San Juan la Laguna	9	Septiembre	2023-09-29T00:00:00	2024-11-08T04:00:00	4	Temperatura máxima	17.6
80211	7	Sololá	717	San Juan la Laguna	12	San Juan la Laguna	9	Septiembre	2023-09-29T00:00:00	2024-11-08T04:00:00	3	Temperatura mínima	17.4
80212	7	Sololá	717	San Juan la Laguna	12	San Juan la Laguna	9	Septiembre	2023-09-29T00:00:00	2024-11-08T04:00:00	5	Humedad	91
80213	7	Sololá	717	San Juan la Laguna	12	San Juan la Laguna	9	Septiembre	2023-09-29T00:00:00	2024-11-08T04:00:00	6	Velocidad del viento	3.2
80214	7	Sololá	717	San Juan la Laguna	12	San Juan la Laguna	9	Septiembre	2023-09-29T00:00:00	2024-11-08T04:00:00	7	Dirección del viento	3.22
80215	7	Sololá	717	San Juan la Laguna	12	San Juan la Laguna	9	Septiembre	2023-09-29T00:00:00	2024-11-08T04:00:00	1	Precipitación	0
80216	7	Sololá	717	San Juan la Laguna	12	San Juan la Laguna	9	Septiembre	2023-09-29T00:00:00	2024-11-08T04:00:00	8	Radiación solar	0
80217	7	Sololá	717	San Juan la Laguna	12	San Juan la Laguna	9	Septiembre	2023-09-29T00:00:00	2024-11-08T05:00:00	2	Temperatura media	17.3
80218	7	Sololá	717	San Juan la Laguna	12	San Juan la Laguna	9	Septiembre	2023-09-29T00:00:00	2024-11-08T05:00:00	4	Temperatura máxima	17.6
80219	7	Sololá	717	San Juan la Laguna	12	San Juan la Laguna	9	Septiembre	2023-09-29T00:00:00	2024-11-08T05:00:00	3	Temperatura mínima	17.3
80220	7	Sololá	717	San Juan la Laguna	12	San Juan la Laguna	9	Septiembre	2023-09-29T00:00:00	2024-11-08T05:00:00	5	Humedad	91
80221	7	Sololá	717	San Juan la Laguna	12	San Juan la Laguna	9	Septiembre	2023-09-29T00:00:00	2024-11-08T05:00:00	6	Velocidad del viento	3.2
80222	7	Sololá	717	San Juan la Laguna	12	San Juan la Laguna	9	Septiembre	2023-09-29T00:00:00	2024-11-08T05:00:00	7	Dirección del viento	3.22
80223	7	Sololá	717	San Juan la Laguna	12	San Juan la Laguna	9	Septiembre	2023-09-29T00:00:00	2024-11-08T05:00:00	1	Precipitación	0
80224	7	Sololá	717	San Juan la Laguna	12	San Juan la Laguna	9	Septiembre	2023-09-29T00:00:00	2024-11-08T05:00:00	8	Radiación solar	0
80225	7	Sololá	717	San Juan la Laguna	12	San Juan la Laguna	9	Septiembre	2023-09-29T00:00:00	2024-11-08T06:00:00	2	Temperatura media	16.9
80226	7	Sololá	717	San Juan la Laguna	12	San Juan la Laguna	9	Septiembre	2023-09-29T00:00:00	2024-11-08T06:00:00	4	Temperatura máxima	17.4
80227	7	Sololá	717	San Juan la Laguna	12	San Juan la Laguna	9	Septiembre	2023-09-29T00:00:00	2024-11-08T06:00:00	3	Temperatura mínima	16.9
80228	7	Sololá	717	San Juan la Laguna	12	San Juan la Laguna	9	Septiembre	2023-09-29T00:00:00	2024-11-08T06:00:00	5	Humedad	91
80229	7	Sololá	717	San Juan la Laguna	12	San Juan la Laguna	9	Septiembre	2023-09-29T00:00:00	2024-11-08T06:00:00	6	Velocidad del viento	4.8
80230	7	Sololá	717	San Juan la Laguna	12	San Juan la Laguna	9	Septiembre	2023-09-29T00:00:00	2024-11-08T06:00:00	7	Dirección del viento	4.83
80231	7	Sololá	717	San Juan la Laguna	12	San Juan la Laguna	9	Septiembre	2023-09-29T00:00:00	2024-11-08T06:00:00	1	Precipitación	0.4
80232	7	Sololá	717	San Juan la Laguna	12	San Juan la Laguna	9	Septiembre	2023-09-29T00:00:00	2024-11-08T06:00:00	8	Radiación solar	0
80233	7	Sololá	717	San Juan la Laguna	12	San Juan la Laguna	9	Septiembre	2023-09-29T00:00:00	2024-11-08T07:00:00	2	Temperatura media	17.4
80234	7	Sololá	717	San Juan la Laguna	12	San Juan la Laguna	9	Septiembre	2023-09-29T00:00:00	2024-11-08T07:00:00	4	Temperatura máxima	17.4
80235	7	Sololá	717	San Juan la Laguna	12	San Juan la Laguna	9	Septiembre	2023-09-29T00:00:00	2024-11-08T07:00:00	3	Temperatura mínima	16.8
80236	7	Sololá	717	San Juan la Laguna	12	San Juan la Laguna	9	Septiembre	2023-09-29T00:00:00	2024-11-08T07:00:00	5	Humedad	90
80237	7	Sololá	717	San Juan la Laguna	12	San Juan la Laguna	9	Septiembre	2023-09-29T00:00:00	2024-11-08T07:00:00	6	Velocidad del viento	4.8
80238	7	Sololá	717	San Juan la Laguna	12	San Juan la Laguna	9	Septiembre	2023-09-29T00:00:00	2024-11-08T07:00:00	7	Dirección del viento	4.83
80239	7	Sololá	717	San Juan la Laguna	12	San Juan la Laguna	9	Septiembre	2023-09-29T00:00:00	2024-11-08T07:00:00	1	Precipitación	0
80240	7	Sololá	717	San Juan la Laguna	12	San Juan la Laguna	9	Septiembre	2023-09-29T00:00:00	2024-11-08T07:00:00	8	Radiación solar	41
80241	7	Sololá	717	San Juan la Laguna	12	San Juan la Laguna	9	Septiembre	2023-09-29T00:00:00	2024-11-08T08:00:00	2	Temperatura media	18.8
80242	7	Sololá	717	San Juan la Laguna	12	San Juan la Laguna	9	Septiembre	2023-09-29T00:00:00	2024-11-08T08:00:00	4	Temperatura máxima	18.8
80243	7	Sololá	717	San Juan la Laguna	12	San Juan la Laguna	9	Septiembre	2023-09-29T00:00:00	2024-11-08T08:00:00	3	Temperatura mínima	17.4
80244	7	Sololá	717	San Juan la Laguna	12	San Juan la Laguna	9	Septiembre	2023-09-29T00:00:00	2024-11-08T08:00:00	5	Humedad	89
80245	7	Sololá	717	San Juan la Laguna	12	San Juan la Laguna	9	Septiembre	2023-09-29T00:00:00	2024-11-08T08:00:00	6	Velocidad del viento	3.2
80246	7	Sololá	717	San Juan la Laguna	12	San Juan la Laguna	9	Septiembre	2023-09-29T00:00:00	2024-11-08T08:00:00	7	Dirección del viento	3.22
80247	7	Sololá	717	San Juan la Laguna	12	San Juan la Laguna	9	Septiembre	2023-09-29T00:00:00	2024-11-08T08:00:00	1	Precipitación	0
80248	7	Sololá	717	San Juan la Laguna	12	San Juan la Laguna	9	Septiembre	2023-09-29T00:00:00	2024-11-08T08:00:00	8	Radiación solar	109
80249	7	Sololá	717	San Juan la Laguna	12	San Juan la Laguna	9	Septiembre	2023-09-29T00:00:00	2024-11-08T09:00:00	2	Temperatura media	20.5
80250	7	Sololá	717	San Juan la Laguna	12	San Juan la Laguna	9	Septiembre	2023-09-29T00:00:00	2024-11-08T09:00:00	4	Temperatura máxima	20.5
80251	7	Sololá	717	San Juan la Laguna	12	San Juan la Laguna	9	Septiembre	2023-09-29T00:00:00	2024-11-08T09:00:00	3	Temperatura mínima	18.8
80252	7	Sololá	717	San Juan la Laguna	12	San Juan la Laguna	9	Septiembre	2023-09-29T00:00:00	2024-11-08T09:00:00	5	Humedad	80
80253	7	Sololá	717	San Juan la Laguna	12	San Juan la Laguna	9	Septiembre	2023-09-29T00:00:00	2024-11-08T09:00:00	6	Velocidad del viento	0
80254	7	Sololá	717	San Juan la Laguna	12	San Juan la Laguna	9	Septiembre	2023-09-29T00:00:00	2024-11-08T09:00:00	7	Dirección del viento	0
80255	7	Sololá	717	San Juan la Laguna	12	San Juan la Laguna	9	Septiembre	2023-09-29T00:00:00	2024-11-08T09:00:00	1	Precipitación	0
80256	7	Sololá	717	San Juan la Laguna	12	San Juan la Laguna	9	Septiembre	2023-09-29T00:00:00	2024-11-08T09:00:00	8	Radiación solar	218
80257	7	Sololá	717	San Juan la Laguna	12	San Juan la Laguna	9	Septiembre	2023-09-29T00:00:00	2024-11-08T10:00:00	2	Temperatura media	22.2
80258	7	Sololá	717	San Juan la Laguna	12	San Juan la Laguna	9	Septiembre	2023-09-29T00:00:00	2024-11-08T10:00:00	4	Temperatura máxima	22.2
80259	7	Sololá	717	San Juan la Laguna	12	San Juan la Laguna	9	Septiembre	2023-09-29T00:00:00	2024-11-08T10:00:00	3	Temperatura mínima	20.6
80260	7	Sololá	717	San Juan la Laguna	12	San Juan la Laguna	9	Septiembre	2023-09-29T00:00:00	2024-11-08T10:00:00	5	Humedad	75
80261	7	Sololá	717	San Juan la Laguna	12	San Juan la Laguna	9	Septiembre	2023-09-29T00:00:00	2024-11-08T10:00:00	6	Velocidad del viento	1.6
80262	7	Sololá	717	San Juan la Laguna	12	San Juan la Laguna	9	Septiembre	2023-09-29T00:00:00	2024-11-08T10:00:00	7	Dirección del viento	1.61
80263	7	Sololá	717	San Juan la Laguna	12	San Juan la Laguna	9	Septiembre	2023-09-29T00:00:00	2024-11-08T10:00:00	1	Precipitación	0
80264	7	Sololá	717	San Juan la Laguna	12	San Juan la Laguna	9	Septiembre	2023-09-29T00:00:00	2024-11-08T10:00:00	8	Radiación solar	392
80265	7	Sololá	717	San Juan la Laguna	12	San Juan la Laguna	9	Septiembre	2023-09-29T00:00:00	2024-11-08T11:00:00	2	Temperatura media	23.7
80266	7	Sololá	717	San Juan la Laguna	12	San Juan la Laguna	9	Septiembre	2023-09-29T00:00:00	2024-11-08T11:00:00	4	Temperatura máxima	23.9
80267	7	Sololá	717	San Juan la Laguna	12	San Juan la Laguna	9	Septiembre	2023-09-29T00:00:00	2024-11-08T11:00:00	3	Temperatura mínima	22.2
80268	7	Sololá	717	San Juan la Laguna	12	San Juan la Laguna	9	Septiembre	2023-09-29T00:00:00	2024-11-08T11:00:00	5	Humedad	70
80269	7	Sololá	717	San Juan la Laguna	12	San Juan la Laguna	9	Septiembre	2023-09-29T00:00:00	2024-11-08T11:00:00	6	Velocidad del viento	0
80270	7	Sololá	717	San Juan la Laguna	12	San Juan la Laguna	9	Septiembre	2023-09-29T00:00:00	2024-11-08T11:00:00	7	Dirección del viento	0
80271	7	Sololá	717	San Juan la Laguna	12	San Juan la Laguna	9	Septiembre	2023-09-29T00:00:00	2024-11-08T11:00:00	1	Precipitación	0
80272	7	Sololá	717	San Juan la Laguna	12	San Juan la Laguna	9	Septiembre	2023-09-29T00:00:00	2024-11-08T11:00:00	8	Radiación solar	658
80273	7	Sololá	717	San Juan la Laguna	12	San Juan la Laguna	9	Septiembre	2023-09-29T00:00:00	2024-11-08T12:00:00	2	Temperatura media	24.8
80274	7	Sololá	717	San Juan la Laguna	12	San Juan la Laguna	9	Septiembre	2023-09-29T00:00:00	2024-11-08T12:00:00	4	Temperatura máxima	25
80275	7	Sololá	717	San Juan la Laguna	12	San Juan la Laguna	9	Septiembre	2023-09-29T00:00:00	2024-11-08T12:00:00	3	Temperatura mínima	23.7
80276	7	Sololá	717	San Juan la Laguna	12	San Juan la Laguna	9	Septiembre	2023-09-29T00:00:00	2024-11-08T12:00:00	5	Humedad	70
80277	7	Sololá	717	San Juan la Laguna	12	San Juan la Laguna	9	Septiembre	2023-09-29T00:00:00	2024-11-08T12:00:00	6	Velocidad del viento	4.8
80278	7	Sololá	717	San Juan la Laguna	12	San Juan la Laguna	9	Septiembre	2023-09-29T00:00:00	2024-11-08T12:00:00	7	Dirección del viento	4.83
80279	7	Sololá	717	San Juan la Laguna	12	San Juan la Laguna	9	Septiembre	2023-09-29T00:00:00	2024-11-08T12:00:00	1	Precipitación	0
80280	7	Sololá	717	San Juan la Laguna	12	San Juan la Laguna	9	Septiembre	2023-09-29T00:00:00	2024-11-08T12:00:00	8	Radiación solar	613
80281	7	Sololá	717	San Juan la Laguna	12	San Juan la Laguna	9	Septiembre	2023-09-29T00:00:00	2024-11-08T13:00:00	2	Temperatura media	23.6
80282	7	Sololá	717	San Juan la Laguna	12	San Juan la Laguna	9	Septiembre	2023-09-29T00:00:00	2024-11-08T13:00:00	4	Temperatura máxima	24.8
80283	7	Sololá	717	San Juan la Laguna	12	San Juan la Laguna	9	Septiembre	2023-09-29T00:00:00	2024-11-08T13:00:00	3	Temperatura mínima	23.3
80284	7	Sololá	717	San Juan la Laguna	12	San Juan la Laguna	9	Septiembre	2023-09-29T00:00:00	2024-11-08T13:00:00	5	Humedad	75
80285	7	Sololá	717	San Juan la Laguna	12	San Juan la Laguna	9	Septiembre	2023-09-29T00:00:00	2024-11-08T13:00:00	6	Velocidad del viento	9.7
80286	7	Sololá	717	San Juan la Laguna	12	San Juan la Laguna	9	Septiembre	2023-09-29T00:00:00	2024-11-08T13:00:00	7	Dirección del viento	9.66
80287	7	Sololá	717	San Juan la Laguna	12	San Juan la Laguna	9	Septiembre	2023-09-29T00:00:00	2024-11-08T13:00:00	1	Precipitación	0
80288	7	Sololá	717	San Juan la Laguna	12	San Juan la Laguna	9	Septiembre	2023-09-29T00:00:00	2024-11-08T13:00:00	8	Radiación solar	686
80289	7	Sololá	717	San Juan la Laguna	12	San Juan la Laguna	9	Septiembre	2023-09-29T00:00:00	2024-11-08T14:00:00	2	Temperatura media	22.6
80290	7	Sololá	717	San Juan la Laguna	12	San Juan la Laguna	9	Septiembre	2023-09-29T00:00:00	2024-11-08T14:00:00	4	Temperatura máxima	23.8
80291	7	Sololá	717	San Juan la Laguna	12	San Juan la Laguna	9	Septiembre	2023-09-29T00:00:00	2024-11-08T14:00:00	3	Temperatura mínima	22.6
80292	7	Sololá	717	San Juan la Laguna	12	San Juan la Laguna	9	Septiembre	2023-09-29T00:00:00	2024-11-08T14:00:00	5	Humedad	81
80293	7	Sololá	717	San Juan la Laguna	12	San Juan la Laguna	9	Septiembre	2023-09-29T00:00:00	2024-11-08T14:00:00	6	Velocidad del viento	3.2
80294	7	Sololá	717	San Juan la Laguna	12	San Juan la Laguna	9	Septiembre	2023-09-29T00:00:00	2024-11-08T14:00:00	7	Dirección del viento	3.22
80295	7	Sololá	717	San Juan la Laguna	12	San Juan la Laguna	9	Septiembre	2023-09-29T00:00:00	2024-11-08T14:00:00	1	Precipitación	0
80296	7	Sololá	717	San Juan la Laguna	12	San Juan la Laguna	9	Septiembre	2023-09-29T00:00:00	2024-11-08T14:00:00	8	Radiación solar	288
80297	7	Sololá	717	San Juan la Laguna	12	San Juan la Laguna	9	Septiembre	2023-09-29T00:00:00	2024-11-08T15:00:00	2	Temperatura media	22.8
80298	7	Sololá	717	San Juan la Laguna	12	San Juan la Laguna	9	Septiembre	2023-09-29T00:00:00	2024-11-08T15:00:00	4	Temperatura máxima	23.3
80299	7	Sololá	717	San Juan la Laguna	12	San Juan la Laguna	9	Septiembre	2023-09-29T00:00:00	2024-11-08T15:00:00	3	Temperatura mínima	22.5
80300	7	Sololá	717	San Juan la Laguna	12	San Juan la Laguna	9	Septiembre	2023-09-29T00:00:00	2024-11-08T15:00:00	5	Humedad	80
80301	7	Sololá	717	San Juan la Laguna	12	San Juan la Laguna	9	Septiembre	2023-09-29T00:00:00	2024-11-08T15:00:00	6	Velocidad del viento	4.8
80302	7	Sololá	717	San Juan la Laguna	12	San Juan la Laguna	9	Septiembre	2023-09-29T00:00:00	2024-11-08T15:00:00	7	Dirección del viento	4.83
80303	7	Sololá	717	San Juan la Laguna	12	San Juan la Laguna	9	Septiembre	2023-09-29T00:00:00	2024-11-08T15:00:00	1	Precipitación	0
80304	7	Sololá	717	San Juan la Laguna	12	San Juan la Laguna	9	Septiembre	2023-09-29T00:00:00	2024-11-08T15:00:00	8	Radiación solar	333
80305	7	Sololá	717	San Juan la Laguna	12	San Juan la Laguna	9	Septiembre	2023-09-29T00:00:00	2024-11-08T16:00:00	2	Temperatura media	19.9
80306	7	Sololá	717	San Juan la Laguna	12	San Juan la Laguna	9	Septiembre	2023-09-29T00:00:00	2024-11-08T16:00:00	4	Temperatura máxima	22.8
80307	7	Sololá	717	San Juan la Laguna	12	San Juan la Laguna	9	Septiembre	2023-09-29T00:00:00	2024-11-08T16:00:00	3	Temperatura mínima	19.9
80308	7	Sololá	717	San Juan la Laguna	12	San Juan la Laguna	9	Septiembre	2023-09-29T00:00:00	2024-11-08T16:00:00	5	Humedad	88
80309	7	Sololá	717	San Juan la Laguna	12	San Juan la Laguna	9	Septiembre	2023-09-29T00:00:00	2024-11-08T16:00:00	6	Velocidad del viento	6.4
80310	7	Sololá	717	San Juan la Laguna	12	San Juan la Laguna	9	Septiembre	2023-09-29T00:00:00	2024-11-08T16:00:00	7	Dirección del viento	6.44
80311	7	Sololá	717	San Juan la Laguna	12	San Juan la Laguna	9	Septiembre	2023-09-29T00:00:00	2024-11-08T16:00:00	1	Precipitación	0.6
80312	7	Sololá	717	San Juan la Laguna	12	San Juan la Laguna	9	Septiembre	2023-09-29T00:00:00	2024-11-08T16:00:00	8	Radiación solar	59
80313	7	Sololá	717	San Juan la Laguna	12	San Juan la Laguna	9	Septiembre	2023-09-29T00:00:00	2024-11-08T17:00:00	2	Temperatura media	18.5
80314	7	Sololá	717	San Juan la Laguna	12	San Juan la Laguna	9	Septiembre	2023-09-29T00:00:00	2024-11-08T17:00:00	4	Temperatura máxima	19.9
80315	7	Sololá	717	San Juan la Laguna	12	San Juan la Laguna	9	Septiembre	2023-09-29T00:00:00	2024-11-08T17:00:00	3	Temperatura mínima	18.5
80316	7	Sololá	717	San Juan la Laguna	12	San Juan la Laguna	9	Septiembre	2023-09-29T00:00:00	2024-11-08T17:00:00	5	Humedad	89
80317	7	Sololá	717	San Juan la Laguna	12	San Juan la Laguna	9	Septiembre	2023-09-29T00:00:00	2024-11-08T17:00:00	6	Velocidad del viento	4.8
80318	7	Sololá	717	San Juan la Laguna	12	San Juan la Laguna	9	Septiembre	2023-09-29T00:00:00	2024-11-08T17:00:00	7	Dirección del viento	4.83
80319	7	Sololá	717	San Juan la Laguna	12	San Juan la Laguna	9	Septiembre	2023-09-29T00:00:00	2024-11-08T17:00:00	1	Precipitación	1.4
80320	7	Sololá	717	San Juan la Laguna	12	San Juan la Laguna	9	Septiembre	2023-09-29T00:00:00	2024-11-08T17:00:00	8	Radiación solar	2
80321	7	Sololá	717	San Juan la Laguna	12	San Juan la Laguna	9	Septiembre	2023-09-29T00:00:00	2024-11-08T18:00:00	2	Temperatura media	18.7
80322	7	Sololá	717	San Juan la Laguna	12	San Juan la Laguna	9	Septiembre	2023-09-29T00:00:00	2024-11-08T18:00:00	4	Temperatura máxima	18.8
80323	7	Sololá	717	San Juan la Laguna	12	San Juan la Laguna	9	Septiembre	2023-09-29T00:00:00	2024-11-08T18:00:00	3	Temperatura mínima	18.4
80324	7	Sololá	717	San Juan la Laguna	12	San Juan la Laguna	9	Septiembre	2023-09-29T00:00:00	2024-11-08T18:00:00	5	Humedad	87
80325	7	Sololá	717	San Juan la Laguna	12	San Juan la Laguna	9	Septiembre	2023-09-29T00:00:00	2024-11-08T18:00:00	6	Velocidad del viento	6.4
80326	7	Sololá	717	San Juan la Laguna	12	San Juan la Laguna	9	Septiembre	2023-09-29T00:00:00	2024-11-08T18:00:00	7	Dirección del viento	6.44
80327	7	Sololá	717	San Juan la Laguna	12	San Juan la Laguna	9	Septiembre	2023-09-29T00:00:00	2024-11-08T18:00:00	1	Precipitación	0.4
80328	7	Sololá	717	San Juan la Laguna	12	San Juan la Laguna	9	Septiembre	2023-09-29T00:00:00	2024-11-08T18:00:00	8	Radiación solar	0
80329	7	Sololá	717	San Juan la Laguna	12	San Juan la Laguna	9	Septiembre	2023-09-29T00:00:00	2024-11-08T19:00:00	2	Temperatura media	17.9
80330	7	Sololá	717	San Juan la Laguna	12	San Juan la Laguna	9	Septiembre	2023-09-29T00:00:00	2024-11-08T19:00:00	4	Temperatura máxima	18.7
80331	7	Sololá	717	San Juan la Laguna	12	San Juan la Laguna	9	Septiembre	2023-09-29T00:00:00	2024-11-08T19:00:00	3	Temperatura mínima	17.9
80332	7	Sololá	717	San Juan la Laguna	12	San Juan la Laguna	9	Septiembre	2023-09-29T00:00:00	2024-11-08T19:00:00	5	Humedad	90
80333	7	Sololá	717	San Juan la Laguna	12	San Juan la Laguna	9	Septiembre	2023-09-29T00:00:00	2024-11-08T19:00:00	6	Velocidad del viento	3.2
80334	7	Sololá	717	San Juan la Laguna	12	San Juan la Laguna	9	Septiembre	2023-09-29T00:00:00	2024-11-08T19:00:00	7	Dirección del viento	3.22
80335	7	Sololá	717	San Juan la Laguna	12	San Juan la Laguna	9	Septiembre	2023-09-29T00:00:00	2024-11-08T19:00:00	1	Precipitación	0
80336	7	Sololá	717	San Juan la Laguna	12	San Juan la Laguna	9	Septiembre	2023-09-29T00:00:00	2024-11-08T19:00:00	8	Radiación solar	0
80337	7	Sololá	717	San Juan la Laguna	12	San Juan la Laguna	9	Septiembre	2023-09-29T00:00:00	2024-11-08T20:00:00	2	Temperatura media	17.9
80338	7	Sololá	717	San Juan la Laguna	12	San Juan la Laguna	9	Septiembre	2023-09-29T00:00:00	2024-11-08T20:00:00	4	Temperatura máxima	18.1
80339	7	Sololá	717	San Juan la Laguna	12	San Juan la Laguna	9	Septiembre	2023-09-29T00:00:00	2024-11-08T20:00:00	3	Temperatura mínima	17.8
80340	7	Sololá	717	San Juan la Laguna	12	San Juan la Laguna	9	Septiembre	2023-09-29T00:00:00	2024-11-08T20:00:00	5	Humedad	91
80341	7	Sololá	717	San Juan la Laguna	12	San Juan la Laguna	9	Septiembre	2023-09-29T00:00:00	2024-11-08T20:00:00	6	Velocidad del viento	1.6
80342	7	Sololá	717	San Juan la Laguna	12	San Juan la Laguna	9	Septiembre	2023-09-29T00:00:00	2024-11-08T20:00:00	7	Dirección del viento	1.61
80343	7	Sololá	717	San Juan la Laguna	12	San Juan la Laguna	9	Septiembre	2023-09-29T00:00:00	2024-11-08T20:00:00	1	Precipitación	0.4
80344	7	Sololá	717	San Juan la Laguna	12	San Juan la Laguna	9	Septiembre	2023-09-29T00:00:00	2024-11-08T20:00:00	8	Radiación solar	0
80345	7	Sololá	717	San Juan la Laguna	12	San Juan la Laguna	9	Septiembre	2023-09-29T00:00:00	2024-11-08T21:00:00	2	Temperatura media	17.9
80346	7	Sololá	717	San Juan la Laguna	12	San Juan la Laguna	9	Septiembre	2023-09-29T00:00:00	2024-11-08T21:00:00	4	Temperatura máxima	17.9
80347	7	Sololá	717	San Juan la Laguna	12	San Juan la Laguna	9	Septiembre	2023-09-29T00:00:00	2024-11-08T21:00:00	3	Temperatura mínima	17.8
80348	7	Sololá	717	San Juan la Laguna	12	San Juan la Laguna	9	Septiembre	2023-09-29T00:00:00	2024-11-08T21:00:00	5	Humedad	91
80349	7	Sololá	717	San Juan la Laguna	12	San Juan la Laguna	9	Septiembre	2023-09-29T00:00:00	2024-11-08T21:00:00	6	Velocidad del viento	1.6
80350	7	Sololá	717	San Juan la Laguna	12	San Juan la Laguna	9	Septiembre	2023-09-29T00:00:00	2024-11-08T21:00:00	7	Dirección del viento	1.61
80351	7	Sololá	717	San Juan la Laguna	12	San Juan la Laguna	9	Septiembre	2023-09-29T00:00:00	2024-11-08T21:00:00	1	Precipitación	0
80352	7	Sololá	717	San Juan la Laguna	12	San Juan la Laguna	9	Septiembre	2023-09-29T00:00:00	2024-11-08T21:00:00	8	Radiación solar	0
80353	7	Sololá	717	San Juan la Laguna	12	San Juan la Laguna	9	Septiembre	2023-09-29T00:00:00	2024-11-08T22:00:00	2	Temperatura media	17.9
80354	7	Sololá	717	San Juan la Laguna	12	San Juan la Laguna	9	Septiembre	2023-09-29T00:00:00	2024-11-08T22:00:00	4	Temperatura máxima	18
80355	7	Sololá	717	San Juan la Laguna	12	San Juan la Laguna	9	Septiembre	2023-09-29T00:00:00	2024-11-08T22:00:00	3	Temperatura mínima	17.9
80356	7	Sololá	717	San Juan la Laguna	12	San Juan la Laguna	9	Septiembre	2023-09-29T00:00:00	2024-11-08T22:00:00	5	Humedad	91
80357	7	Sololá	717	San Juan la Laguna	12	San Juan la Laguna	9	Septiembre	2023-09-29T00:00:00	2024-11-08T22:00:00	6	Velocidad del viento	3.2
80358	7	Sololá	717	San Juan la Laguna	12	San Juan la Laguna	9	Septiembre	2023-09-29T00:00:00	2024-11-08T22:00:00	7	Dirección del viento	3.22
80359	7	Sololá	717	San Juan la Laguna	12	San Juan la Laguna	9	Septiembre	2023-09-29T00:00:00	2024-11-08T22:00:00	1	Precipitación	0
80360	7	Sololá	717	San Juan la Laguna	12	San Juan la Laguna	9	Septiembre	2023-09-29T00:00:00	2024-11-08T22:00:00	8	Radiación solar	0
80361	7	Sololá	717	San Juan la Laguna	12	San Juan la Laguna	9	Septiembre	2023-09-29T00:00:00	2024-11-08T23:00:00	2	Temperatura media	18
80362	7	Sololá	717	San Juan la Laguna	12	San Juan la Laguna	9	Septiembre	2023-09-29T00:00:00	2024-11-08T23:00:00	4	Temperatura máxima	18
80363	7	Sololá	717	San Juan la Laguna	12	San Juan la Laguna	9	Septiembre	2023-09-29T00:00:00	2024-11-08T23:00:00	3	Temperatura mínima	17.9
80364	7	Sololá	717	San Juan la Laguna	12	San Juan la Laguna	9	Septiembre	2023-09-29T00:00:00	2024-11-08T23:00:00	5	Humedad	91
80365	7	Sololá	717	San Juan la Laguna	12	San Juan la Laguna	9	Septiembre	2023-09-29T00:00:00	2024-11-08T23:00:00	6	Velocidad del viento	3.2
80366	7	Sololá	717	San Juan la Laguna	12	San Juan la Laguna	9	Septiembre	2023-09-29T00:00:00	2024-11-08T23:00:00	7	Dirección del viento	3.22
80367	7	Sololá	717	San Juan la Laguna	12	San Juan la Laguna	9	Septiembre	2023-09-29T00:00:00	2024-11-08T23:00:00	1	Precipitación	0
80368	7	Sololá	717	San Juan la Laguna	12	San Juan la Laguna	9	Septiembre	2023-09-29T00:00:00	2024-11-08T23:00:00	8	Radiación solar	0
80369	7	Sololá	717	San Juan la Laguna	12	San Juan la Laguna	9	Septiembre	2023-09-30T00:00:00	2024-11-08T00:00:00	2	Temperatura media	18.1
80370	7	Sololá	717	San Juan la Laguna	12	San Juan la Laguna	9	Septiembre	2023-09-30T00:00:00	2024-11-08T00:00:00	4	Temperatura máxima	18.1
80371	7	Sololá	717	San Juan la Laguna	12	San Juan la Laguna	9	Septiembre	2023-09-30T00:00:00	2024-11-08T00:00:00	3	Temperatura mínima	17.9
80372	7	Sololá	717	San Juan la Laguna	12	San Juan la Laguna	9	Septiembre	2023-09-30T00:00:00	2024-11-08T00:00:00	5	Humedad	90
80373	7	Sololá	717	San Juan la Laguna	12	San Juan la Laguna	9	Septiembre	2023-09-30T00:00:00	2024-11-08T00:00:00	6	Velocidad del viento	3.2
80374	7	Sololá	717	San Juan la Laguna	12	San Juan la Laguna	9	Septiembre	2023-09-30T00:00:00	2024-11-08T00:00:00	7	Dirección del viento	3.22
80375	7	Sololá	717	San Juan la Laguna	12	San Juan la Laguna	9	Septiembre	2023-09-30T00:00:00	2024-11-08T00:00:00	1	Precipitación	0
80376	7	Sololá	717	San Juan la Laguna	12	San Juan la Laguna	9	Septiembre	2023-09-30T00:00:00	2024-11-08T00:00:00	8	Radiación solar	0
80377	7	Sololá	717	San Juan la Laguna	12	San Juan la Laguna	9	Septiembre	2023-09-30T00:00:00	2024-11-08T01:00:00	2	Temperatura media	18
80378	7	Sololá	717	San Juan la Laguna	12	San Juan la Laguna	9	Septiembre	2023-09-30T00:00:00	2024-11-08T01:00:00	4	Temperatura máxima	18.1
80379	7	Sololá	717	San Juan la Laguna	12	San Juan la Laguna	9	Septiembre	2023-09-30T00:00:00	2024-11-08T01:00:00	3	Temperatura mínima	17.9
80380	7	Sololá	717	San Juan la Laguna	12	San Juan la Laguna	9	Septiembre	2023-09-30T00:00:00	2024-11-08T01:00:00	5	Humedad	90
80381	7	Sololá	717	San Juan la Laguna	12	San Juan la Laguna	9	Septiembre	2023-09-30T00:00:00	2024-11-08T01:00:00	6	Velocidad del viento	4.8
80382	7	Sololá	717	San Juan la Laguna	12	San Juan la Laguna	9	Septiembre	2023-09-30T00:00:00	2024-11-08T01:00:00	7	Dirección del viento	4.83
80383	7	Sololá	717	San Juan la Laguna	12	San Juan la Laguna	9	Septiembre	2023-09-30T00:00:00	2024-11-08T01:00:00	1	Precipitación	0
80384	7	Sololá	717	San Juan la Laguna	12	San Juan la Laguna	9	Septiembre	2023-09-30T00:00:00	2024-11-08T01:00:00	8	Radiación solar	0
80385	7	Sololá	717	San Juan la Laguna	12	San Juan la Laguna	9	Septiembre	2023-09-30T00:00:00	2024-11-08T02:00:00	2	Temperatura media	17.8
80386	7	Sololá	717	San Juan la Laguna	12	San Juan la Laguna	9	Septiembre	2023-09-30T00:00:00	2024-11-08T02:00:00	4	Temperatura máxima	18.1
80387	7	Sololá	717	San Juan la Laguna	12	San Juan la Laguna	9	Septiembre	2023-09-30T00:00:00	2024-11-08T02:00:00	3	Temperatura mínima	17.7
80388	7	Sololá	717	San Juan la Laguna	12	San Juan la Laguna	9	Septiembre	2023-09-30T00:00:00	2024-11-08T02:00:00	5	Humedad	90
80389	7	Sololá	717	San Juan la Laguna	12	San Juan la Laguna	9	Septiembre	2023-09-30T00:00:00	2024-11-08T02:00:00	6	Velocidad del viento	4.8
80390	7	Sololá	717	San Juan la Laguna	12	San Juan la Laguna	9	Septiembre	2023-09-30T00:00:00	2024-11-08T02:00:00	7	Dirección del viento	4.83
80391	7	Sololá	717	San Juan la Laguna	12	San Juan la Laguna	9	Septiembre	2023-09-30T00:00:00	2024-11-08T02:00:00	1	Precipitación	0
80392	7	Sololá	717	San Juan la Laguna	12	San Juan la Laguna	9	Septiembre	2023-09-30T00:00:00	2024-11-08T02:00:00	8	Radiación solar	0
80393	7	Sololá	717	San Juan la Laguna	12	San Juan la Laguna	9	Septiembre	2023-09-30T00:00:00	2024-11-08T03:00:00	2	Temperatura media	17.3
80394	7	Sololá	717	San Juan la Laguna	12	San Juan la Laguna	9	Septiembre	2023-09-30T00:00:00	2024-11-08T03:00:00	4	Temperatura máxima	17.8
80395	7	Sololá	717	San Juan la Laguna	12	San Juan la Laguna	9	Septiembre	2023-09-30T00:00:00	2024-11-08T03:00:00	3	Temperatura mínima	17.3
80396	7	Sololá	717	San Juan la Laguna	12	San Juan la Laguna	9	Septiembre	2023-09-30T00:00:00	2024-11-08T03:00:00	5	Humedad	90
80397	7	Sololá	717	San Juan la Laguna	12	San Juan la Laguna	9	Septiembre	2023-09-30T00:00:00	2024-11-08T03:00:00	6	Velocidad del viento	3.2
80398	7	Sololá	717	San Juan la Laguna	12	San Juan la Laguna	9	Septiembre	2023-09-30T00:00:00	2024-11-08T03:00:00	7	Dirección del viento	3.22
80399	7	Sololá	717	San Juan la Laguna	12	San Juan la Laguna	9	Septiembre	2023-09-30T00:00:00	2024-11-08T03:00:00	1	Precipitación	0
80400	7	Sololá	717	San Juan la Laguna	12	San Juan la Laguna	9	Septiembre	2023-09-30T00:00:00	2024-11-08T03:00:00	8	Radiación solar	0
80401	7	Sololá	717	San Juan la Laguna	12	San Juan la Laguna	9	Septiembre	2023-09-30T00:00:00	2024-11-08T04:00:00	2	Temperatura media	17.1
80402	7	Sololá	717	San Juan la Laguna	12	San Juan la Laguna	9	Septiembre	2023-09-30T00:00:00	2024-11-08T04:00:00	4	Temperatura máxima	17.3
80403	7	Sololá	717	San Juan la Laguna	12	San Juan la Laguna	9	Septiembre	2023-09-30T00:00:00	2024-11-08T04:00:00	3	Temperatura mínima	17.1
80404	7	Sololá	717	San Juan la Laguna	12	San Juan la Laguna	9	Septiembre	2023-09-30T00:00:00	2024-11-08T04:00:00	5	Humedad	89
80405	7	Sololá	717	San Juan la Laguna	12	San Juan la Laguna	9	Septiembre	2023-09-30T00:00:00	2024-11-08T04:00:00	6	Velocidad del viento	4.8
80406	7	Sololá	717	San Juan la Laguna	12	San Juan la Laguna	9	Septiembre	2023-09-30T00:00:00	2024-11-08T04:00:00	7	Dirección del viento	4.83
80407	7	Sololá	717	San Juan la Laguna	12	San Juan la Laguna	9	Septiembre	2023-09-30T00:00:00	2024-11-08T04:00:00	1	Precipitación	0
80408	7	Sololá	717	San Juan la Laguna	12	San Juan la Laguna	9	Septiembre	2023-09-30T00:00:00	2024-11-08T04:00:00	8	Radiación solar	0
80409	7	Sololá	717	San Juan la Laguna	12	San Juan la Laguna	9	Septiembre	2023-09-30T00:00:00	2024-11-08T05:00:00	2	Temperatura media	16.7
80410	7	Sololá	717	San Juan la Laguna	12	San Juan la Laguna	9	Septiembre	2023-09-30T00:00:00	2024-11-08T05:00:00	4	Temperatura máxima	17.2
80411	7	Sololá	717	San Juan la Laguna	12	San Juan la Laguna	9	Septiembre	2023-09-30T00:00:00	2024-11-08T05:00:00	3	Temperatura mínima	16.7
80412	7	Sololá	717	San Juan la Laguna	12	San Juan la Laguna	9	Septiembre	2023-09-30T00:00:00	2024-11-08T05:00:00	5	Humedad	90
80413	7	Sololá	717	San Juan la Laguna	12	San Juan la Laguna	9	Septiembre	2023-09-30T00:00:00	2024-11-08T05:00:00	6	Velocidad del viento	3.2
80414	7	Sololá	717	San Juan la Laguna	12	San Juan la Laguna	9	Septiembre	2023-09-30T00:00:00	2024-11-08T05:00:00	7	Dirección del viento	3.22
80415	7	Sololá	717	San Juan la Laguna	12	San Juan la Laguna	9	Septiembre	2023-09-30T00:00:00	2024-11-08T05:00:00	1	Precipitación	0
80416	7	Sololá	717	San Juan la Laguna	12	San Juan la Laguna	9	Septiembre	2023-09-30T00:00:00	2024-11-08T05:00:00	8	Radiación solar	0
80417	7	Sololá	717	San Juan la Laguna	12	San Juan la Laguna	9	Septiembre	2023-09-30T00:00:00	2024-11-08T06:00:00	2	Temperatura media	16.9
80418	7	Sololá	717	San Juan la Laguna	12	San Juan la Laguna	9	Septiembre	2023-09-30T00:00:00	2024-11-08T06:00:00	4	Temperatura máxima	16.9
80419	7	Sololá	717	San Juan la Laguna	12	San Juan la Laguna	9	Septiembre	2023-09-30T00:00:00	2024-11-08T06:00:00	3	Temperatura mínima	16.7
80420	7	Sololá	717	San Juan la Laguna	12	San Juan la Laguna	9	Septiembre	2023-09-30T00:00:00	2024-11-08T06:00:00	5	Humedad	89
80421	7	Sololá	717	San Juan la Laguna	12	San Juan la Laguna	9	Septiembre	2023-09-30T00:00:00	2024-11-08T06:00:00	6	Velocidad del viento	4.8
80422	7	Sololá	717	San Juan la Laguna	12	San Juan la Laguna	9	Septiembre	2023-09-30T00:00:00	2024-11-08T06:00:00	7	Dirección del viento	4.83
80423	7	Sololá	717	San Juan la Laguna	12	San Juan la Laguna	9	Septiembre	2023-09-30T00:00:00	2024-11-08T06:00:00	1	Precipitación	0
80424	7	Sololá	717	San Juan la Laguna	12	San Juan la Laguna	9	Septiembre	2023-09-30T00:00:00	2024-11-08T06:00:00	8	Radiación solar	0
80425	7	Sololá	717	San Juan la Laguna	12	San Juan la Laguna	9	Septiembre	2023-09-30T00:00:00	2024-11-08T07:00:00	2	Temperatura media	18
80426	7	Sololá	717	San Juan la Laguna	12	San Juan la Laguna	9	Septiembre	2023-09-30T00:00:00	2024-11-08T07:00:00	4	Temperatura máxima	18
80427	7	Sololá	717	San Juan la Laguna	12	San Juan la Laguna	9	Septiembre	2023-09-30T00:00:00	2024-11-08T07:00:00	3	Temperatura mínima	16.7
80428	7	Sololá	717	San Juan la Laguna	12	San Juan la Laguna	9	Septiembre	2023-09-30T00:00:00	2024-11-08T07:00:00	5	Humedad	88
80429	7	Sololá	717	San Juan la Laguna	12	San Juan la Laguna	9	Septiembre	2023-09-30T00:00:00	2024-11-08T07:00:00	6	Velocidad del viento	3.2
80430	7	Sololá	717	San Juan la Laguna	12	San Juan la Laguna	9	Septiembre	2023-09-30T00:00:00	2024-11-08T07:00:00	7	Dirección del viento	3.22
80431	7	Sololá	717	San Juan la Laguna	12	San Juan la Laguna	9	Septiembre	2023-09-30T00:00:00	2024-11-08T07:00:00	1	Precipitación	0
80432	7	Sololá	717	San Juan la Laguna	12	San Juan la Laguna	9	Septiembre	2023-09-30T00:00:00	2024-11-08T07:00:00	8	Radiación solar	71
80433	7	Sololá	717	San Juan la Laguna	12	San Juan la Laguna	9	Septiembre	2023-09-30T00:00:00	2024-11-08T08:00:00	2	Temperatura media	21.7
80434	7	Sololá	717	San Juan la Laguna	12	San Juan la Laguna	9	Septiembre	2023-09-30T00:00:00	2024-11-08T08:00:00	4	Temperatura máxima	21.7
80435	7	Sololá	717	San Juan la Laguna	12	San Juan la Laguna	9	Septiembre	2023-09-30T00:00:00	2024-11-08T08:00:00	3	Temperatura mínima	18
80436	7	Sololá	717	San Juan la Laguna	12	San Juan la Laguna	9	Septiembre	2023-09-30T00:00:00	2024-11-08T08:00:00	5	Humedad	79
80437	7	Sololá	717	San Juan la Laguna	12	San Juan la Laguna	9	Septiembre	2023-09-30T00:00:00	2024-11-08T08:00:00	6	Velocidad del viento	0
80438	7	Sololá	717	San Juan la Laguna	12	San Juan la Laguna	9	Septiembre	2023-09-30T00:00:00	2024-11-08T08:00:00	7	Dirección del viento	0
80439	7	Sololá	717	San Juan la Laguna	12	San Juan la Laguna	9	Septiembre	2023-09-30T00:00:00	2024-11-08T08:00:00	1	Precipitación	0
80440	7	Sololá	717	San Juan la Laguna	12	San Juan la Laguna	9	Septiembre	2023-09-30T00:00:00	2024-11-08T08:00:00	8	Radiación solar	260
80441	7	Sololá	717	San Juan la Laguna	12	San Juan la Laguna	9	Septiembre	2023-09-30T00:00:00	2024-11-08T09:00:00	2	Temperatura media	22.6
80442	7	Sololá	717	San Juan la Laguna	12	San Juan la Laguna	9	Septiembre	2023-09-30T00:00:00	2024-11-08T09:00:00	4	Temperatura máxima	22.6
80443	7	Sololá	717	San Juan la Laguna	12	San Juan la Laguna	9	Septiembre	2023-09-30T00:00:00	2024-11-08T09:00:00	3	Temperatura mínima	21.7
80444	7	Sololá	717	San Juan la Laguna	12	San Juan la Laguna	9	Septiembre	2023-09-30T00:00:00	2024-11-08T09:00:00	5	Humedad	72
80445	7	Sololá	717	San Juan la Laguna	12	San Juan la Laguna	9	Septiembre	2023-09-30T00:00:00	2024-11-08T09:00:00	6	Velocidad del viento	3.2
80446	7	Sololá	717	San Juan la Laguna	12	San Juan la Laguna	9	Septiembre	2023-09-30T00:00:00	2024-11-08T09:00:00	7	Dirección del viento	3.22
80447	7	Sololá	717	San Juan la Laguna	12	San Juan la Laguna	9	Septiembre	2023-09-30T00:00:00	2024-11-08T09:00:00	1	Precipitación	0
80448	7	Sololá	717	San Juan la Laguna	12	San Juan la Laguna	9	Septiembre	2023-09-30T00:00:00	2024-11-08T09:00:00	8	Radiación solar	462
80449	7	Sololá	717	San Juan la Laguna	12	San Juan la Laguna	9	Septiembre	2023-09-30T00:00:00	2024-11-08T10:00:00	2	Temperatura media	24.4
80450	7	Sololá	717	San Juan la Laguna	12	San Juan la Laguna	9	Septiembre	2023-09-30T00:00:00	2024-11-08T10:00:00	4	Temperatura máxima	24.5
80451	7	Sololá	717	San Juan la Laguna	12	San Juan la Laguna	9	Septiembre	2023-09-30T00:00:00	2024-11-08T10:00:00	3	Temperatura mínima	22.5
80452	7	Sololá	717	San Juan la Laguna	12	San Juan la Laguna	9	Septiembre	2023-09-30T00:00:00	2024-11-08T10:00:00	5	Humedad	66
80453	7	Sololá	717	San Juan la Laguna	12	San Juan la Laguna	9	Septiembre	2023-09-30T00:00:00	2024-11-08T10:00:00	6	Velocidad del viento	0
80454	7	Sololá	717	San Juan la Laguna	12	San Juan la Laguna	9	Septiembre	2023-09-30T00:00:00	2024-11-08T10:00:00	7	Dirección del viento	0
80455	7	Sololá	717	San Juan la Laguna	12	San Juan la Laguna	9	Septiembre	2023-09-30T00:00:00	2024-11-08T10:00:00	1	Precipitación	0
80456	7	Sololá	717	San Juan la Laguna	12	San Juan la Laguna	9	Septiembre	2023-09-30T00:00:00	2024-11-08T10:00:00	8	Radiación solar	659
80457	7	Sololá	717	San Juan la Laguna	12	San Juan la Laguna	9	Septiembre	2023-09-30T00:00:00	2024-11-08T11:00:00	2	Temperatura media	25.1
80458	7	Sololá	717	San Juan la Laguna	12	San Juan la Laguna	9	Septiembre	2023-09-30T00:00:00	2024-11-08T11:00:00	4	Temperatura máxima	25.1
80459	7	Sololá	717	San Juan la Laguna	12	San Juan la Laguna	9	Septiembre	2023-09-30T00:00:00	2024-11-08T11:00:00	3	Temperatura mínima	24.1
80460	7	Sololá	717	San Juan la Laguna	12	San Juan la Laguna	9	Septiembre	2023-09-30T00:00:00	2024-11-08T11:00:00	5	Humedad	68
80461	7	Sololá	717	San Juan la Laguna	12	San Juan la Laguna	9	Septiembre	2023-09-30T00:00:00	2024-11-08T11:00:00	6	Velocidad del viento	4.8
80462	7	Sololá	717	San Juan la Laguna	12	San Juan la Laguna	9	Septiembre	2023-09-30T00:00:00	2024-11-08T11:00:00	7	Dirección del viento	4.83
80463	7	Sololá	717	San Juan la Laguna	12	San Juan la Laguna	9	Septiembre	2023-09-30T00:00:00	2024-11-08T11:00:00	1	Precipitación	0
80464	7	Sololá	717	San Juan la Laguna	12	San Juan la Laguna	9	Septiembre	2023-09-30T00:00:00	2024-11-08T11:00:00	8	Radiación solar	803
80465	7	Sololá	717	San Juan la Laguna	12	San Juan la Laguna	9	Septiembre	2023-09-30T00:00:00	2024-11-08T12:00:00	2	Temperatura media	25.3
80466	7	Sololá	717	San Juan la Laguna	12	San Juan la Laguna	9	Septiembre	2023-09-30T00:00:00	2024-11-08T12:00:00	4	Temperatura máxima	25.3
80467	7	Sololá	717	San Juan la Laguna	12	San Juan la Laguna	9	Septiembre	2023-09-30T00:00:00	2024-11-08T12:00:00	3	Temperatura mínima	24.6
80468	7	Sololá	717	San Juan la Laguna	12	San Juan la Laguna	9	Septiembre	2023-09-30T00:00:00	2024-11-08T12:00:00	5	Humedad	66
80469	7	Sololá	717	San Juan la Laguna	12	San Juan la Laguna	9	Septiembre	2023-09-30T00:00:00	2024-11-08T12:00:00	6	Velocidad del viento	6.4
80470	7	Sololá	717	San Juan la Laguna	12	San Juan la Laguna	9	Septiembre	2023-09-30T00:00:00	2024-11-08T12:00:00	7	Dirección del viento	6.44
80471	7	Sololá	717	San Juan la Laguna	12	San Juan la Laguna	9	Septiembre	2023-09-30T00:00:00	2024-11-08T12:00:00	1	Precipitación	0
80472	7	Sololá	717	San Juan la Laguna	12	San Juan la Laguna	9	Septiembre	2023-09-30T00:00:00	2024-11-08T12:00:00	8	Radiación solar	838
80473	7	Sololá	717	San Juan la Laguna	12	San Juan la Laguna	9	Septiembre	2023-09-30T00:00:00	2024-11-08T13:00:00	2	Temperatura media	24.2
80474	7	Sololá	717	San Juan la Laguna	12	San Juan la Laguna	9	Septiembre	2023-09-30T00:00:00	2024-11-08T13:00:00	4	Temperatura máxima	25.6
80475	7	Sololá	717	San Juan la Laguna	12	San Juan la Laguna	9	Septiembre	2023-09-30T00:00:00	2024-11-08T13:00:00	3	Temperatura mínima	24.2
80476	7	Sololá	717	San Juan la Laguna	12	San Juan la Laguna	9	Septiembre	2023-09-30T00:00:00	2024-11-08T13:00:00	5	Humedad	72
80477	7	Sololá	717	San Juan la Laguna	12	San Juan la Laguna	9	Septiembre	2023-09-30T00:00:00	2024-11-08T13:00:00	6	Velocidad del viento	6.4
80478	7	Sololá	717	San Juan la Laguna	12	San Juan la Laguna	9	Septiembre	2023-09-30T00:00:00	2024-11-08T13:00:00	7	Dirección del viento	6.44
80479	7	Sololá	717	San Juan la Laguna	12	San Juan la Laguna	9	Septiembre	2023-09-30T00:00:00	2024-11-08T13:00:00	1	Precipitación	0
80480	7	Sololá	717	San Juan la Laguna	12	San Juan la Laguna	9	Septiembre	2023-09-30T00:00:00	2024-11-08T13:00:00	8	Radiación solar	722
80481	7	Sololá	717	San Juan la Laguna	12	San Juan la Laguna	9	Septiembre	2023-09-30T00:00:00	2024-11-08T14:00:00	2	Temperatura media	23.9
80482	7	Sololá	717	San Juan la Laguna	12	San Juan la Laguna	9	Septiembre	2023-09-30T00:00:00	2024-11-08T14:00:00	4	Temperatura máxima	24.9
80483	7	Sololá	717	San Juan la Laguna	12	San Juan la Laguna	9	Septiembre	2023-09-30T00:00:00	2024-11-08T14:00:00	3	Temperatura mínima	23.8
80484	7	Sololá	717	San Juan la Laguna	12	San Juan la Laguna	9	Septiembre	2023-09-30T00:00:00	2024-11-08T14:00:00	5	Humedad	74
80485	7	Sololá	717	San Juan la Laguna	12	San Juan la Laguna	9	Septiembre	2023-09-30T00:00:00	2024-11-08T14:00:00	6	Velocidad del viento	3.2
80486	7	Sololá	717	San Juan la Laguna	12	San Juan la Laguna	9	Septiembre	2023-09-30T00:00:00	2024-11-08T14:00:00	7	Dirección del viento	3.22
80487	7	Sololá	717	San Juan la Laguna	12	San Juan la Laguna	9	Septiembre	2023-09-30T00:00:00	2024-11-08T14:00:00	1	Precipitación	0
80488	7	Sololá	717	San Juan la Laguna	12	San Juan la Laguna	9	Septiembre	2023-09-30T00:00:00	2024-11-08T14:00:00	8	Radiación solar	567
80489	7	Sololá	717	San Juan la Laguna	12	San Juan la Laguna	9	Septiembre	2023-09-30T00:00:00	2024-11-08T15:00:00	2	Temperatura media	21.8
80490	7	Sololá	717	San Juan la Laguna	12	San Juan la Laguna	9	Septiembre	2023-09-30T00:00:00	2024-11-08T15:00:00	4	Temperatura máxima	24.2
80491	7	Sololá	717	San Juan la Laguna	12	San Juan la Laguna	9	Septiembre	2023-09-30T00:00:00	2024-11-08T15:00:00	3	Temperatura mínima	21.8
80492	7	Sololá	717	San Juan la Laguna	12	San Juan la Laguna	9	Septiembre	2023-09-30T00:00:00	2024-11-08T15:00:00	5	Humedad	82
80493	7	Sololá	717	San Juan la Laguna	12	San Juan la Laguna	9	Septiembre	2023-09-30T00:00:00	2024-11-08T15:00:00	6	Velocidad del viento	4.8
80494	7	Sololá	717	San Juan la Laguna	12	San Juan la Laguna	9	Septiembre	2023-09-30T00:00:00	2024-11-08T15:00:00	7	Dirección del viento	4.83
80495	7	Sololá	717	San Juan la Laguna	12	San Juan la Laguna	9	Septiembre	2023-09-30T00:00:00	2024-11-08T15:00:00	1	Precipitación	0
80496	7	Sololá	717	San Juan la Laguna	12	San Juan la Laguna	9	Septiembre	2023-09-30T00:00:00	2024-11-08T15:00:00	8	Radiación solar	222
80497	7	Sololá	717	San Juan la Laguna	12	San Juan la Laguna	9	Septiembre	2023-09-30T00:00:00	2024-11-08T16:00:00	2	Temperatura media	20.7
80498	7	Sololá	717	San Juan la Laguna	12	San Juan la Laguna	9	Septiembre	2023-09-30T00:00:00	2024-11-08T16:00:00	4	Temperatura máxima	21.8
80499	7	Sololá	717	San Juan la Laguna	12	San Juan la Laguna	9	Septiembre	2023-09-30T00:00:00	2024-11-08T16:00:00	3	Temperatura mínima	20.6
80500	7	Sololá	717	San Juan la Laguna	12	San Juan la Laguna	9	Septiembre	2023-09-30T00:00:00	2024-11-08T16:00:00	5	Humedad	86
80501	7	Sololá	717	San Juan la Laguna	12	San Juan la Laguna	9	Septiembre	2023-09-30T00:00:00	2024-11-08T16:00:00	6	Velocidad del viento	1.6
80502	7	Sololá	717	San Juan la Laguna	12	San Juan la Laguna	9	Septiembre	2023-09-30T00:00:00	2024-11-08T16:00:00	7	Dirección del viento	1.61
80503	7	Sololá	717	San Juan la Laguna	12	San Juan la Laguna	9	Septiembre	2023-09-30T00:00:00	2024-11-08T16:00:00	1	Precipitación	1.2
80504	7	Sololá	717	San Juan la Laguna	12	San Juan la Laguna	9	Septiembre	2023-09-30T00:00:00	2024-11-08T16:00:00	8	Radiación solar	64
80505	7	Sololá	717	San Juan la Laguna	12	San Juan la Laguna	9	Septiembre	2023-09-30T00:00:00	2024-11-08T17:00:00	2	Temperatura media	20.6
80506	7	Sololá	717	San Juan la Laguna	12	San Juan la Laguna	9	Septiembre	2023-09-30T00:00:00	2024-11-08T17:00:00	4	Temperatura máxima	20.9
80507	7	Sololá	717	San Juan la Laguna	12	San Juan la Laguna	9	Septiembre	2023-09-30T00:00:00	2024-11-08T17:00:00	3	Temperatura mínima	20.6
80508	7	Sololá	717	San Juan la Laguna	12	San Juan la Laguna	9	Septiembre	2023-09-30T00:00:00	2024-11-08T17:00:00	5	Humedad	87
80509	7	Sololá	717	San Juan la Laguna	12	San Juan la Laguna	9	Septiembre	2023-09-30T00:00:00	2024-11-08T17:00:00	6	Velocidad del viento	0
80510	7	Sololá	717	San Juan la Laguna	12	San Juan la Laguna	9	Septiembre	2023-09-30T00:00:00	2024-11-08T17:00:00	7	Dirección del viento	0
80511	7	Sololá	717	San Juan la Laguna	12	San Juan la Laguna	9	Septiembre	2023-09-30T00:00:00	2024-11-08T17:00:00	1	Precipitación	0
80512	7	Sololá	717	San Juan la Laguna	12	San Juan la Laguna	9	Septiembre	2023-09-30T00:00:00	2024-11-08T17:00:00	8	Radiación solar	79
80513	7	Sololá	717	San Juan la Laguna	12	San Juan la Laguna	9	Septiembre	2023-09-30T00:00:00	2024-11-08T18:00:00	2	Temperatura media	19.8
80514	7	Sololá	717	San Juan la Laguna	12	San Juan la Laguna	9	Septiembre	2023-09-30T00:00:00	2024-11-08T18:00:00	4	Temperatura máxima	20.6
80515	7	Sololá	717	San Juan la Laguna	12	San Juan la Laguna	9	Septiembre	2023-09-30T00:00:00	2024-11-08T18:00:00	3	Temperatura mínima	19.7
80516	7	Sololá	717	San Juan la Laguna	12	San Juan la Laguna	9	Septiembre	2023-09-30T00:00:00	2024-11-08T18:00:00	5	Humedad	87
80517	7	Sololá	717	San Juan la Laguna	12	San Juan la Laguna	9	Septiembre	2023-09-30T00:00:00	2024-11-08T18:00:00	6	Velocidad del viento	0
80518	7	Sololá	717	San Juan la Laguna	12	San Juan la Laguna	9	Septiembre	2023-09-30T00:00:00	2024-11-08T18:00:00	7	Dirección del viento	0
80519	7	Sololá	717	San Juan la Laguna	12	San Juan la Laguna	9	Septiembre	2023-09-30T00:00:00	2024-11-08T18:00:00	1	Precipitación	0
80520	7	Sololá	717	San Juan la Laguna	12	San Juan la Laguna	9	Septiembre	2023-09-30T00:00:00	2024-11-08T18:00:00	8	Radiación solar	14
80521	7	Sololá	717	San Juan la Laguna	12	San Juan la Laguna	9	Septiembre	2023-09-30T00:00:00	2024-11-08T19:00:00	2	Temperatura media	19.9
80522	7	Sololá	717	San Juan la Laguna	12	San Juan la Laguna	9	Septiembre	2023-09-30T00:00:00	2024-11-08T19:00:00	4	Temperatura máxima	20.1
80523	7	Sololá	717	San Juan la Laguna	12	San Juan la Laguna	9	Septiembre	2023-09-30T00:00:00	2024-11-08T19:00:00	3	Temperatura mínima	19.7
80524	7	Sololá	717	San Juan la Laguna	12	San Juan la Laguna	9	Septiembre	2023-09-30T00:00:00	2024-11-08T19:00:00	5	Humedad	87
80525	7	Sololá	717	San Juan la Laguna	12	San Juan la Laguna	9	Septiembre	2023-09-30T00:00:00	2024-11-08T19:00:00	6	Velocidad del viento	0
80526	7	Sololá	717	San Juan la Laguna	12	San Juan la Laguna	9	Septiembre	2023-09-30T00:00:00	2024-11-08T19:00:00	7	Dirección del viento	0
80527	7	Sololá	717	San Juan la Laguna	12	San Juan la Laguna	9	Septiembre	2023-09-30T00:00:00	2024-11-08T19:00:00	1	Precipitación	0
80528	7	Sololá	717	San Juan la Laguna	12	San Juan la Laguna	9	Septiembre	2023-09-30T00:00:00	2024-11-08T19:00:00	8	Radiación solar	0
80529	7	Sololá	717	San Juan la Laguna	12	San Juan la Laguna	9	Septiembre	2023-09-30T00:00:00	2024-11-08T20:00:00	2	Temperatura media	19.4
80530	7	Sololá	717	San Juan la Laguna	12	San Juan la Laguna	9	Septiembre	2023-09-30T00:00:00	2024-11-08T20:00:00	4	Temperatura máxima	19.9
80531	7	Sololá	717	San Juan la Laguna	12	San Juan la Laguna	9	Septiembre	2023-09-30T00:00:00	2024-11-08T20:00:00	3	Temperatura mínima	19.4
80532	7	Sololá	717	San Juan la Laguna	12	San Juan la Laguna	9	Septiembre	2023-09-30T00:00:00	2024-11-08T20:00:00	5	Humedad	89
80533	7	Sololá	717	San Juan la Laguna	12	San Juan la Laguna	9	Septiembre	2023-09-30T00:00:00	2024-11-08T20:00:00	6	Velocidad del viento	0
80534	7	Sololá	717	San Juan la Laguna	12	San Juan la Laguna	9	Septiembre	2023-09-30T00:00:00	2024-11-08T20:00:00	7	Dirección del viento	0
80535	7	Sololá	717	San Juan la Laguna	12	San Juan la Laguna	9	Septiembre	2023-09-30T00:00:00	2024-11-08T20:00:00	1	Precipitación	0
80536	7	Sololá	717	San Juan la Laguna	12	San Juan la Laguna	9	Septiembre	2023-09-30T00:00:00	2024-11-08T20:00:00	8	Radiación solar	0
80537	7	Sololá	717	San Juan la Laguna	12	San Juan la Laguna	9	Septiembre	2023-09-30T00:00:00	2024-11-08T21:00:00	2	Temperatura media	19.1
80538	7	Sololá	717	San Juan la Laguna	12	San Juan la Laguna	9	Septiembre	2023-09-30T00:00:00	2024-11-08T21:00:00	4	Temperatura máxima	19.6
80539	7	Sololá	717	San Juan la Laguna	12	San Juan la Laguna	9	Septiembre	2023-09-30T00:00:00	2024-11-08T21:00:00	3	Temperatura mínima	19
80540	7	Sololá	717	San Juan la Laguna	12	San Juan la Laguna	9	Septiembre	2023-09-30T00:00:00	2024-11-08T21:00:00	5	Humedad	90
80541	7	Sololá	717	San Juan la Laguna	12	San Juan la Laguna	9	Septiembre	2023-09-30T00:00:00	2024-11-08T21:00:00	6	Velocidad del viento	0
80542	7	Sololá	717	San Juan la Laguna	12	San Juan la Laguna	9	Septiembre	2023-09-30T00:00:00	2024-11-08T21:00:00	7	Dirección del viento	0
80543	7	Sololá	717	San Juan la Laguna	12	San Juan la Laguna	9	Septiembre	2023-09-30T00:00:00	2024-11-08T21:00:00	1	Precipitación	0
80544	7	Sololá	717	San Juan la Laguna	12	San Juan la Laguna	9	Septiembre	2023-09-30T00:00:00	2024-11-08T21:00:00	8	Radiación solar	0
80545	7	Sololá	717	San Juan la Laguna	12	San Juan la Laguna	9	Septiembre	2023-09-30T00:00:00	2024-11-08T22:00:00	2	Temperatura media	19.2
80546	7	Sololá	717	San Juan la Laguna	12	San Juan la Laguna	9	Septiembre	2023-09-30T00:00:00	2024-11-08T22:00:00	4	Temperatura máxima	19.4
80547	7	Sololá	717	San Juan la Laguna	12	San Juan la Laguna	9	Septiembre	2023-09-30T00:00:00	2024-11-08T22:00:00	3	Temperatura mínima	19.1
80548	7	Sololá	717	San Juan la Laguna	12	San Juan la Laguna	9	Septiembre	2023-09-30T00:00:00	2024-11-08T22:00:00	5	Humedad	90
80549	7	Sololá	717	San Juan la Laguna	12	San Juan la Laguna	9	Septiembre	2023-09-30T00:00:00	2024-11-08T22:00:00	6	Velocidad del viento	0
80550	7	Sololá	717	San Juan la Laguna	12	San Juan la Laguna	9	Septiembre	2023-09-30T00:00:00	2024-11-08T22:00:00	7	Dirección del viento	0
80551	7	Sololá	717	San Juan la Laguna	12	San Juan la Laguna	9	Septiembre	2023-09-30T00:00:00	2024-11-08T22:00:00	1	Precipitación	0
80552	7	Sololá	717	San Juan la Laguna	12	San Juan la Laguna	9	Septiembre	2023-09-30T00:00:00	2024-11-08T22:00:00	8	Radiación solar	0
80553	7	Sololá	717	San Juan la Laguna	12	San Juan la Laguna	9	Septiembre	2023-09-30T00:00:00	2024-11-08T23:00:00	2	Temperatura media	18.7
80554	7	Sololá	717	San Juan la Laguna	12	San Juan la Laguna	9	Septiembre	2023-09-30T00:00:00	2024-11-08T23:00:00	4	Temperatura máxima	19.2
80555	7	Sololá	717	San Juan la Laguna	12	San Juan la Laguna	9	Septiembre	2023-09-30T00:00:00	2024-11-08T23:00:00	3	Temperatura mínima	18.7
80556	7	Sololá	717	San Juan la Laguna	12	San Juan la Laguna	9	Septiembre	2023-09-30T00:00:00	2024-11-08T23:00:00	5	Humedad	90
80557	7	Sololá	717	San Juan la Laguna	12	San Juan la Laguna	9	Septiembre	2023-09-30T00:00:00	2024-11-08T23:00:00	6	Velocidad del viento	0
80558	7	Sololá	717	San Juan la Laguna	12	San Juan la Laguna	9	Septiembre	2023-09-30T00:00:00	2024-11-08T23:00:00	7	Dirección del viento	0
80559	7	Sololá	717	San Juan la Laguna	12	San Juan la Laguna	9	Septiembre	2023-09-30T00:00:00	2024-11-08T23:00:00	1	Precipitación	0
80560	7	Sololá	717	San Juan la Laguna	12	San Juan la Laguna	9	Septiembre	2023-09-30T00:00:00	2024-11-08T23:00:00	8	Radiación solar	0
80561	7	Sololá	717	San Juan la Laguna	12	San Juan la Laguna	10	Octubre	2023-01-10T00:00:00	2024-11-08T00:00:00	2	Temperatura media	17.9
80562	7	Sololá	717	San Juan la Laguna	12	San Juan la Laguna	10	Octubre	2023-01-10T00:00:00	2024-11-08T00:00:00	4	Temperatura máxima	18.7
80563	7	Sololá	717	San Juan la Laguna	12	San Juan la Laguna	10	Octubre	2023-01-10T00:00:00	2024-11-08T00:00:00	3	Temperatura mínima	17.9
80564	7	Sololá	717	San Juan la Laguna	12	San Juan la Laguna	10	Octubre	2023-01-10T00:00:00	2024-11-08T00:00:00	5	Humedad	90
80565	7	Sololá	717	San Juan la Laguna	12	San Juan la Laguna	10	Octubre	2023-01-10T00:00:00	2024-11-08T00:00:00	6	Velocidad del viento	0
80566	7	Sololá	717	San Juan la Laguna	12	San Juan la Laguna	10	Octubre	2023-01-10T00:00:00	2024-11-08T00:00:00	7	Dirección del viento	0
80567	7	Sololá	717	San Juan la Laguna	12	San Juan la Laguna	10	Octubre	2023-01-10T00:00:00	2024-11-08T00:00:00	1	Precipitación	0
80568	7	Sololá	717	San Juan la Laguna	12	San Juan la Laguna	10	Octubre	2023-01-10T00:00:00	2024-11-08T00:00:00	8	Radiación solar	0
80569	7	Sololá	717	San Juan la Laguna	12	San Juan la Laguna	10	Octubre	2023-01-10T00:00:00	2024-11-08T01:00:00	2	Temperatura media	17.5
80570	7	Sololá	717	San Juan la Laguna	12	San Juan la Laguna	10	Octubre	2023-01-10T00:00:00	2024-11-08T01:00:00	4	Temperatura máxima	17.9
80571	7	Sololá	717	San Juan la Laguna	12	San Juan la Laguna	10	Octubre	2023-01-10T00:00:00	2024-11-08T01:00:00	3	Temperatura mínima	17.5
80572	7	Sololá	717	San Juan la Laguna	12	San Juan la Laguna	10	Octubre	2023-01-10T00:00:00	2024-11-08T01:00:00	5	Humedad	90
80573	7	Sololá	717	San Juan la Laguna	12	San Juan la Laguna	10	Octubre	2023-01-10T00:00:00	2024-11-08T01:00:00	6	Velocidad del viento	0
80574	7	Sololá	717	San Juan la Laguna	12	San Juan la Laguna	10	Octubre	2023-01-10T00:00:00	2024-11-08T01:00:00	7	Dirección del viento	0
80575	7	Sololá	717	San Juan la Laguna	12	San Juan la Laguna	10	Octubre	2023-01-10T00:00:00	2024-11-08T01:00:00	1	Precipitación	0
80576	7	Sololá	717	San Juan la Laguna	12	San Juan la Laguna	10	Octubre	2023-01-10T00:00:00	2024-11-08T01:00:00	8	Radiación solar	0
80577	7	Sololá	717	San Juan la Laguna	12	San Juan la Laguna	10	Octubre	2023-01-10T00:00:00	2024-11-08T02:00:00	2	Temperatura media	17
80578	7	Sololá	717	San Juan la Laguna	12	San Juan la Laguna	10	Octubre	2023-01-10T00:00:00	2024-11-08T02:00:00	4	Temperatura máxima	17.6
80579	7	Sololá	717	San Juan la Laguna	12	San Juan la Laguna	10	Octubre	2023-01-10T00:00:00	2024-11-08T02:00:00	3	Temperatura mínima	17
80580	7	Sololá	717	San Juan la Laguna	12	San Juan la Laguna	10	Octubre	2023-01-10T00:00:00	2024-11-08T02:00:00	5	Humedad	91
80581	7	Sololá	717	San Juan la Laguna	12	San Juan la Laguna	10	Octubre	2023-01-10T00:00:00	2024-11-08T02:00:00	6	Velocidad del viento	0
80582	7	Sololá	717	San Juan la Laguna	12	San Juan la Laguna	10	Octubre	2023-01-10T00:00:00	2024-11-08T02:00:00	7	Dirección del viento	0
80583	7	Sololá	717	San Juan la Laguna	12	San Juan la Laguna	10	Octubre	2023-01-10T00:00:00	2024-11-08T02:00:00	1	Precipitación	0
80584	7	Sololá	717	San Juan la Laguna	12	San Juan la Laguna	10	Octubre	2023-01-10T00:00:00	2024-11-08T02:00:00	8	Radiación solar	0
80585	7	Sololá	717	San Juan la Laguna	12	San Juan la Laguna	10	Octubre	2023-01-10T00:00:00	2024-11-08T03:00:00	2	Temperatura media	16.8
80586	7	Sololá	717	San Juan la Laguna	12	San Juan la Laguna	10	Octubre	2023-01-10T00:00:00	2024-11-08T03:00:00	4	Temperatura máxima	17.1
80587	7	Sololá	717	San Juan la Laguna	12	San Juan la Laguna	10	Octubre	2023-01-10T00:00:00	2024-11-08T03:00:00	3	Temperatura mínima	16.8
80588	7	Sololá	717	San Juan la Laguna	12	San Juan la Laguna	10	Octubre	2023-01-10T00:00:00	2024-11-08T03:00:00	5	Humedad	89
80589	7	Sololá	717	San Juan la Laguna	12	San Juan la Laguna	10	Octubre	2023-01-10T00:00:00	2024-11-08T03:00:00	6	Velocidad del viento	1.6
80590	7	Sololá	717	San Juan la Laguna	12	San Juan la Laguna	10	Octubre	2023-01-10T00:00:00	2024-11-08T03:00:00	7	Dirección del viento	1.61
80591	7	Sololá	717	San Juan la Laguna	12	San Juan la Laguna	10	Octubre	2023-01-10T00:00:00	2024-11-08T03:00:00	1	Precipitación	0
80592	7	Sololá	717	San Juan la Laguna	12	San Juan la Laguna	10	Octubre	2023-01-10T00:00:00	2024-11-08T03:00:00	8	Radiación solar	0
80593	7	Sololá	717	San Juan la Laguna	12	San Juan la Laguna	10	Octubre	2023-01-10T00:00:00	2024-11-08T04:00:00	2	Temperatura media	16.4
80594	7	Sololá	717	San Juan la Laguna	12	San Juan la Laguna	10	Octubre	2023-01-10T00:00:00	2024-11-08T04:00:00	4	Temperatura máxima	16.9
80595	7	Sololá	717	San Juan la Laguna	12	San Juan la Laguna	10	Octubre	2023-01-10T00:00:00	2024-11-08T04:00:00	3	Temperatura mínima	16.4
80596	7	Sololá	717	San Juan la Laguna	12	San Juan la Laguna	10	Octubre	2023-01-10T00:00:00	2024-11-08T04:00:00	5	Humedad	89
80597	7	Sololá	717	San Juan la Laguna	12	San Juan la Laguna	10	Octubre	2023-01-10T00:00:00	2024-11-08T04:00:00	6	Velocidad del viento	4.8
80598	7	Sololá	717	San Juan la Laguna	12	San Juan la Laguna	10	Octubre	2023-01-10T00:00:00	2024-11-08T04:00:00	7	Dirección del viento	4.83
80599	7	Sololá	717	San Juan la Laguna	12	San Juan la Laguna	10	Octubre	2023-01-10T00:00:00	2024-11-08T04:00:00	1	Precipitación	0
80600	7	Sololá	717	San Juan la Laguna	12	San Juan la Laguna	10	Octubre	2023-01-10T00:00:00	2024-11-08T04:00:00	8	Radiación solar	0
80601	7	Sololá	717	San Juan la Laguna	12	San Juan la Laguna	10	Octubre	2023-01-10T00:00:00	2024-11-08T05:00:00	2	Temperatura media	16.1
80602	7	Sololá	717	San Juan la Laguna	12	San Juan la Laguna	10	Octubre	2023-01-10T00:00:00	2024-11-08T05:00:00	4	Temperatura máxima	16.5
80603	7	Sololá	717	San Juan la Laguna	12	San Juan la Laguna	10	Octubre	2023-01-10T00:00:00	2024-11-08T05:00:00	3	Temperatura mínima	16.1
80604	7	Sololá	717	San Juan la Laguna	12	San Juan la Laguna	10	Octubre	2023-01-10T00:00:00	2024-11-08T05:00:00	5	Humedad	88
80605	7	Sololá	717	San Juan la Laguna	12	San Juan la Laguna	10	Octubre	2023-01-10T00:00:00	2024-11-08T05:00:00	6	Velocidad del viento	4.8
80606	7	Sololá	717	San Juan la Laguna	12	San Juan la Laguna	10	Octubre	2023-01-10T00:00:00	2024-11-08T05:00:00	7	Dirección del viento	4.83
80607	7	Sololá	717	San Juan la Laguna	12	San Juan la Laguna	10	Octubre	2023-01-10T00:00:00	2024-11-08T05:00:00	1	Precipitación	0
80608	7	Sololá	717	San Juan la Laguna	12	San Juan la Laguna	10	Octubre	2023-01-10T00:00:00	2024-11-08T05:00:00	8	Radiación solar	0
80609	7	Sololá	717	San Juan la Laguna	12	San Juan la Laguna	10	Octubre	2023-01-10T00:00:00	2024-11-08T06:00:00	2	Temperatura media	15.7
80610	7	Sololá	717	San Juan la Laguna	12	San Juan la Laguna	10	Octubre	2023-01-10T00:00:00	2024-11-08T06:00:00	4	Temperatura máxima	16.3
80611	7	Sololá	717	San Juan la Laguna	12	San Juan la Laguna	10	Octubre	2023-01-10T00:00:00	2024-11-08T06:00:00	3	Temperatura mínima	15.7
80612	7	Sololá	717	San Juan la Laguna	12	San Juan la Laguna	10	Octubre	2023-01-10T00:00:00	2024-11-08T06:00:00	5	Humedad	89
80613	7	Sololá	717	San Juan la Laguna	12	San Juan la Laguna	10	Octubre	2023-01-10T00:00:00	2024-11-08T06:00:00	6	Velocidad del viento	4.8
80614	7	Sololá	717	San Juan la Laguna	12	San Juan la Laguna	10	Octubre	2023-01-10T00:00:00	2024-11-08T06:00:00	7	Dirección del viento	4.83
80615	7	Sololá	717	San Juan la Laguna	12	San Juan la Laguna	10	Octubre	2023-01-10T00:00:00	2024-11-08T06:00:00	1	Precipitación	0
80616	7	Sololá	717	San Juan la Laguna	12	San Juan la Laguna	10	Octubre	2023-01-10T00:00:00	2024-11-08T06:00:00	8	Radiación solar	1
80617	7	Sololá	717	San Juan la Laguna	12	San Juan la Laguna	10	Octubre	2023-01-10T00:00:00	2024-11-08T07:00:00	2	Temperatura media	17.3
80618	7	Sololá	717	San Juan la Laguna	12	San Juan la Laguna	10	Octubre	2023-01-10T00:00:00	2024-11-08T07:00:00	4	Temperatura máxima	17.3
80619	7	Sololá	717	San Juan la Laguna	12	San Juan la Laguna	10	Octubre	2023-01-10T00:00:00	2024-11-08T07:00:00	3	Temperatura mínima	15.6
80620	7	Sololá	717	San Juan la Laguna	12	San Juan la Laguna	10	Octubre	2023-01-10T00:00:00	2024-11-08T07:00:00	5	Humedad	88
80621	7	Sololá	717	San Juan la Laguna	12	San Juan la Laguna	10	Octubre	2023-01-10T00:00:00	2024-11-08T07:00:00	6	Velocidad del viento	1.6
80622	7	Sololá	717	San Juan la Laguna	12	San Juan la Laguna	10	Octubre	2023-01-10T00:00:00	2024-11-08T07:00:00	7	Dirección del viento	1.61
80623	7	Sololá	717	San Juan la Laguna	12	San Juan la Laguna	10	Octubre	2023-01-10T00:00:00	2024-11-08T07:00:00	1	Precipitación	0
80624	7	Sololá	717	San Juan la Laguna	12	San Juan la Laguna	10	Octubre	2023-01-10T00:00:00	2024-11-08T07:00:00	8	Radiación solar	76
80625	7	Sololá	717	San Juan la Laguna	12	San Juan la Laguna	10	Octubre	2023-01-10T00:00:00	2024-11-08T08:00:00	2	Temperatura media	21.2
80626	7	Sololá	717	San Juan la Laguna	12	San Juan la Laguna	10	Octubre	2023-01-10T00:00:00	2024-11-08T08:00:00	4	Temperatura máxima	21.2
80627	7	Sololá	717	San Juan la Laguna	12	San Juan la Laguna	10	Octubre	2023-01-10T00:00:00	2024-11-08T08:00:00	3	Temperatura mínima	17.3
80628	7	Sololá	717	San Juan la Laguna	12	San Juan la Laguna	10	Octubre	2023-01-10T00:00:00	2024-11-08T08:00:00	5	Humedad	76
80629	7	Sololá	717	San Juan la Laguna	12	San Juan la Laguna	10	Octubre	2023-01-10T00:00:00	2024-11-08T08:00:00	6	Velocidad del viento	0
80630	7	Sololá	717	San Juan la Laguna	12	San Juan la Laguna	10	Octubre	2023-01-10T00:00:00	2024-11-08T08:00:00	7	Dirección del viento	0
80631	7	Sololá	717	San Juan la Laguna	12	San Juan la Laguna	10	Octubre	2023-01-10T00:00:00	2024-11-08T08:00:00	1	Precipitación	0
80632	7	Sololá	717	San Juan la Laguna	12	San Juan la Laguna	10	Octubre	2023-01-10T00:00:00	2024-11-08T08:00:00	8	Radiación solar	266
80633	7	Sololá	717	San Juan la Laguna	12	San Juan la Laguna	10	Octubre	2023-01-10T00:00:00	2024-11-08T09:00:00	2	Temperatura media	22.1
80634	7	Sololá	717	San Juan la Laguna	12	San Juan la Laguna	10	Octubre	2023-01-10T00:00:00	2024-11-08T09:00:00	4	Temperatura máxima	22.4
80635	7	Sololá	717	San Juan la Laguna	12	San Juan la Laguna	10	Octubre	2023-01-10T00:00:00	2024-11-08T09:00:00	3	Temperatura mínima	21.3
80636	7	Sololá	717	San Juan la Laguna	12	San Juan la Laguna	10	Octubre	2023-01-10T00:00:00	2024-11-08T09:00:00	5	Humedad	71
80637	7	Sololá	717	San Juan la Laguna	12	San Juan la Laguna	10	Octubre	2023-01-10T00:00:00	2024-11-08T09:00:00	6	Velocidad del viento	1.6
80638	7	Sololá	717	San Juan la Laguna	12	San Juan la Laguna	10	Octubre	2023-01-10T00:00:00	2024-11-08T09:00:00	7	Dirección del viento	1.61
80639	7	Sololá	717	San Juan la Laguna	12	San Juan la Laguna	10	Octubre	2023-01-10T00:00:00	2024-11-08T09:00:00	1	Precipitación	0
80640	7	Sololá	717	San Juan la Laguna	12	San Juan la Laguna	10	Octubre	2023-01-10T00:00:00	2024-11-08T09:00:00	8	Radiación solar	511
80641	7	Sololá	717	San Juan la Laguna	12	San Juan la Laguna	10	Octubre	2023-01-10T00:00:00	2024-11-08T10:00:00	2	Temperatura media	24.3
80642	7	Sololá	717	San Juan la Laguna	12	San Juan la Laguna	10	Octubre	2023-01-10T00:00:00	2024-11-08T10:00:00	4	Temperatura máxima	24.3
80643	7	Sololá	717	San Juan la Laguna	12	San Juan la Laguna	10	Octubre	2023-01-10T00:00:00	2024-11-08T10:00:00	3	Temperatura mínima	22
80644	7	Sololá	717	San Juan la Laguna	12	San Juan la Laguna	10	Octubre	2023-01-10T00:00:00	2024-11-08T10:00:00	5	Humedad	61
80645	7	Sololá	717	San Juan la Laguna	12	San Juan la Laguna	10	Octubre	2023-01-10T00:00:00	2024-11-08T10:00:00	6	Velocidad del viento	3.2
80646	7	Sololá	717	San Juan la Laguna	12	San Juan la Laguna	10	Octubre	2023-01-10T00:00:00	2024-11-08T10:00:00	7	Dirección del viento	3.22
80647	7	Sololá	717	San Juan la Laguna	12	San Juan la Laguna	10	Octubre	2023-01-10T00:00:00	2024-11-08T10:00:00	1	Precipitación	0
80648	7	Sololá	717	San Juan la Laguna	12	San Juan la Laguna	10	Octubre	2023-01-10T00:00:00	2024-11-08T10:00:00	8	Radiación solar	693
80649	7	Sololá	717	San Juan la Laguna	12	San Juan la Laguna	10	Octubre	2023-01-10T00:00:00	2024-11-08T11:00:00	2	Temperatura media	24.6
80650	7	Sololá	717	San Juan la Laguna	12	San Juan la Laguna	10	Octubre	2023-01-10T00:00:00	2024-11-08T11:00:00	4	Temperatura máxima	25.2
80651	7	Sololá	717	San Juan la Laguna	12	San Juan la Laguna	10	Octubre	2023-01-10T00:00:00	2024-11-08T11:00:00	3	Temperatura mínima	24.3
80652	7	Sololá	717	San Juan la Laguna	12	San Juan la Laguna	10	Octubre	2023-01-10T00:00:00	2024-11-08T11:00:00	5	Humedad	62
80653	7	Sololá	717	San Juan la Laguna	12	San Juan la Laguna	10	Octubre	2023-01-10T00:00:00	2024-11-08T11:00:00	6	Velocidad del viento	6.4
80654	7	Sololá	717	San Juan la Laguna	12	San Juan la Laguna	10	Octubre	2023-01-10T00:00:00	2024-11-08T11:00:00	7	Dirección del viento	6.44
80655	7	Sololá	717	San Juan la Laguna	12	San Juan la Laguna	10	Octubre	2023-01-10T00:00:00	2024-11-08T11:00:00	1	Precipitación	0
80656	7	Sololá	717	San Juan la Laguna	12	San Juan la Laguna	10	Octubre	2023-01-10T00:00:00	2024-11-08T11:00:00	8	Radiación solar	815
80657	7	Sololá	717	San Juan la Laguna	12	San Juan la Laguna	10	Octubre	2023-01-10T00:00:00	2024-11-08T12:00:00	2	Temperatura media	24.7
80658	7	Sololá	717	San Juan la Laguna	12	San Juan la Laguna	10	Octubre	2023-01-10T00:00:00	2024-11-08T12:00:00	4	Temperatura máxima	25
80659	7	Sololá	717	San Juan la Laguna	12	San Juan la Laguna	10	Octubre	2023-01-10T00:00:00	2024-11-08T12:00:00	3	Temperatura mínima	23.9
80660	7	Sololá	717	San Juan la Laguna	12	San Juan la Laguna	10	Octubre	2023-01-10T00:00:00	2024-11-08T12:00:00	5	Humedad	69
80661	7	Sololá	717	San Juan la Laguna	12	San Juan la Laguna	10	Octubre	2023-01-10T00:00:00	2024-11-08T12:00:00	6	Velocidad del viento	8
80662	7	Sololá	717	San Juan la Laguna	12	San Juan la Laguna	10	Octubre	2023-01-10T00:00:00	2024-11-08T12:00:00	7	Dirección del viento	8.05
80663	7	Sololá	717	San Juan la Laguna	12	San Juan la Laguna	10	Octubre	2023-01-10T00:00:00	2024-11-08T12:00:00	1	Precipitación	0
80664	7	Sololá	717	San Juan la Laguna	12	San Juan la Laguna	10	Octubre	2023-01-10T00:00:00	2024-11-08T12:00:00	8	Radiación solar	797
80665	7	Sololá	717	San Juan la Laguna	12	San Juan la Laguna	10	Octubre	2023-01-10T00:00:00	2024-11-08T13:00:00	2	Temperatura media	24.6
80666	7	Sololá	717	San Juan la Laguna	12	San Juan la Laguna	10	Octubre	2023-01-10T00:00:00	2024-11-08T13:00:00	4	Temperatura máxima	25.4
80667	7	Sololá	717	San Juan la Laguna	12	San Juan la Laguna	10	Octubre	2023-01-10T00:00:00	2024-11-08T13:00:00	3	Temperatura mínima	24.6
80668	7	Sololá	717	San Juan la Laguna	12	San Juan la Laguna	10	Octubre	2023-01-10T00:00:00	2024-11-08T13:00:00	5	Humedad	70
80669	7	Sololá	717	San Juan la Laguna	12	San Juan la Laguna	10	Octubre	2023-01-10T00:00:00	2024-11-08T13:00:00	6	Velocidad del viento	8
80670	7	Sololá	717	San Juan la Laguna	12	San Juan la Laguna	10	Octubre	2023-01-10T00:00:00	2024-11-08T13:00:00	7	Dirección del viento	8.05
80671	7	Sololá	717	San Juan la Laguna	12	San Juan la Laguna	10	Octubre	2023-01-10T00:00:00	2024-11-08T13:00:00	1	Precipitación	0
80672	7	Sololá	717	San Juan la Laguna	12	San Juan la Laguna	10	Octubre	2023-01-10T00:00:00	2024-11-08T13:00:00	8	Radiación solar	917
80673	7	Sololá	717	San Juan la Laguna	12	San Juan la Laguna	10	Octubre	2023-01-10T00:00:00	2024-11-08T14:00:00	2	Temperatura media	24.7
80674	7	Sololá	717	San Juan la Laguna	12	San Juan la Laguna	10	Octubre	2023-01-10T00:00:00	2024-11-08T14:00:00	4	Temperatura máxima	24.9
80675	7	Sololá	717	San Juan la Laguna	12	San Juan la Laguna	10	Octubre	2023-01-10T00:00:00	2024-11-08T14:00:00	3	Temperatura mínima	23.8
80676	7	Sololá	717	San Juan la Laguna	12	San Juan la Laguna	10	Octubre	2023-01-10T00:00:00	2024-11-08T14:00:00	5	Humedad	72
80677	7	Sololá	717	San Juan la Laguna	12	San Juan la Laguna	10	Octubre	2023-01-10T00:00:00	2024-11-08T14:00:00	6	Velocidad del viento	6.4
80678	7	Sololá	717	San Juan la Laguna	12	San Juan la Laguna	10	Octubre	2023-01-10T00:00:00	2024-11-08T14:00:00	7	Dirección del viento	6.44
80679	7	Sololá	717	San Juan la Laguna	12	San Juan la Laguna	10	Octubre	2023-01-10T00:00:00	2024-11-08T14:00:00	1	Precipitación	0
80680	7	Sololá	717	San Juan la Laguna	12	San Juan la Laguna	10	Octubre	2023-01-10T00:00:00	2024-11-08T14:00:00	8	Radiación solar	852
80681	7	Sololá	717	San Juan la Laguna	12	San Juan la Laguna	10	Octubre	2023-01-10T00:00:00	2024-11-08T15:00:00	2	Temperatura media	22.2
80682	7	Sololá	717	San Juan la Laguna	12	San Juan la Laguna	10	Octubre	2023-01-10T00:00:00	2024-11-08T15:00:00	4	Temperatura máxima	24.8
80683	7	Sololá	717	San Juan la Laguna	12	San Juan la Laguna	10	Octubre	2023-01-10T00:00:00	2024-11-08T15:00:00	3	Temperatura mínima	22.2
80684	7	Sololá	717	San Juan la Laguna	12	San Juan la Laguna	10	Octubre	2023-01-10T00:00:00	2024-11-08T15:00:00	5	Humedad	82
80685	7	Sololá	717	San Juan la Laguna	12	San Juan la Laguna	10	Octubre	2023-01-10T00:00:00	2024-11-08T15:00:00	6	Velocidad del viento	4.8
80686	7	Sololá	717	San Juan la Laguna	12	San Juan la Laguna	10	Octubre	2023-01-10T00:00:00	2024-11-08T15:00:00	7	Dirección del viento	4.83
80687	7	Sololá	717	San Juan la Laguna	12	San Juan la Laguna	10	Octubre	2023-01-10T00:00:00	2024-11-08T15:00:00	1	Precipitación	0
80688	7	Sololá	717	San Juan la Laguna	12	San Juan la Laguna	10	Octubre	2023-01-10T00:00:00	2024-11-08T15:00:00	8	Radiación solar	259
80689	7	Sololá	717	San Juan la Laguna	12	San Juan la Laguna	10	Octubre	2023-01-10T00:00:00	2024-11-08T16:00:00	2	Temperatura media	21.3
80690	7	Sololá	717	San Juan la Laguna	12	San Juan la Laguna	10	Octubre	2023-01-10T00:00:00	2024-11-08T16:00:00	4	Temperatura máxima	22.3
80691	7	Sololá	717	San Juan la Laguna	12	San Juan la Laguna	10	Octubre	2023-01-10T00:00:00	2024-11-08T16:00:00	3	Temperatura mínima	21.2
80692	7	Sololá	717	San Juan la Laguna	12	San Juan la Laguna	10	Octubre	2023-01-10T00:00:00	2024-11-08T16:00:00	5	Humedad	84
80693	7	Sololá	717	San Juan la Laguna	12	San Juan la Laguna	10	Octubre	2023-01-10T00:00:00	2024-11-08T16:00:00	6	Velocidad del viento	1.6
80694	7	Sololá	717	San Juan la Laguna	12	San Juan la Laguna	10	Octubre	2023-01-10T00:00:00	2024-11-08T16:00:00	7	Dirección del viento	1.61
80695	7	Sololá	717	San Juan la Laguna	12	San Juan la Laguna	10	Octubre	2023-01-10T00:00:00	2024-11-08T16:00:00	1	Precipitación	0
80696	7	Sololá	717	San Juan la Laguna	12	San Juan la Laguna	10	Octubre	2023-01-10T00:00:00	2024-11-08T16:00:00	8	Radiación solar	86
80697	7	Sololá	717	San Juan la Laguna	12	San Juan la Laguna	10	Octubre	2023-01-10T00:00:00	2024-11-08T17:00:00	2	Temperatura media	20.2
80698	7	Sololá	717	San Juan la Laguna	12	San Juan la Laguna	10	Octubre	2023-01-10T00:00:00	2024-11-08T17:00:00	4	Temperatura máxima	21.2
80699	7	Sololá	717	San Juan la Laguna	12	San Juan la Laguna	10	Octubre	2023-01-10T00:00:00	2024-11-08T17:00:00	3	Temperatura mínima	20.2
80700	7	Sololá	717	San Juan la Laguna	12	San Juan la Laguna	10	Octubre	2023-01-10T00:00:00	2024-11-08T17:00:00	5	Humedad	86
80701	7	Sololá	717	San Juan la Laguna	12	San Juan la Laguna	10	Octubre	2023-01-10T00:00:00	2024-11-08T17:00:00	6	Velocidad del viento	1.6
80702	7	Sololá	717	San Juan la Laguna	12	San Juan la Laguna	10	Octubre	2023-01-10T00:00:00	2024-11-08T17:00:00	7	Dirección del viento	1.61
80703	7	Sololá	717	San Juan la Laguna	12	San Juan la Laguna	10	Octubre	2023-01-10T00:00:00	2024-11-08T17:00:00	1	Precipitación	0
80704	7	Sololá	717	San Juan la Laguna	12	San Juan la Laguna	10	Octubre	2023-01-10T00:00:00	2024-11-08T17:00:00	8	Radiación solar	35
80705	7	Sololá	717	San Juan la Laguna	12	San Juan la Laguna	10	Octubre	2023-01-10T00:00:00	2024-11-08T18:00:00	2	Temperatura media	19
80706	7	Sololá	717	San Juan la Laguna	12	San Juan la Laguna	10	Octubre	2023-01-10T00:00:00	2024-11-08T18:00:00	4	Temperatura máxima	20.2
80707	7	Sololá	717	San Juan la Laguna	12	San Juan la Laguna	10	Octubre	2023-01-10T00:00:00	2024-11-08T18:00:00	3	Temperatura mínima	19
80708	7	Sololá	717	San Juan la Laguna	12	San Juan la Laguna	10	Octubre	2023-01-10T00:00:00	2024-11-08T18:00:00	5	Humedad	91
80709	7	Sololá	717	San Juan la Laguna	12	San Juan la Laguna	10	Octubre	2023-01-10T00:00:00	2024-11-08T18:00:00	6	Velocidad del viento	3.2
80710	7	Sololá	717	San Juan la Laguna	12	San Juan la Laguna	10	Octubre	2023-01-10T00:00:00	2024-11-08T18:00:00	7	Dirección del viento	3.22
80711	7	Sololá	717	San Juan la Laguna	12	San Juan la Laguna	10	Octubre	2023-01-10T00:00:00	2024-11-08T18:00:00	1	Precipitación	7.2
80712	7	Sololá	717	San Juan la Laguna	12	San Juan la Laguna	10	Octubre	2023-01-10T00:00:00	2024-11-08T18:00:00	8	Radiación solar	4
80713	7	Sololá	717	San Juan la Laguna	12	San Juan la Laguna	10	Octubre	2023-01-10T00:00:00	2024-11-08T19:00:00	2	Temperatura media	19.2
80714	7	Sololá	717	San Juan la Laguna	12	San Juan la Laguna	10	Octubre	2023-01-10T00:00:00	2024-11-08T19:00:00	4	Temperatura máxima	19.2
80715	7	Sololá	717	San Juan la Laguna	12	San Juan la Laguna	10	Octubre	2023-01-10T00:00:00	2024-11-08T19:00:00	3	Temperatura mínima	18.9
80716	7	Sololá	717	San Juan la Laguna	12	San Juan la Laguna	10	Octubre	2023-01-10T00:00:00	2024-11-08T19:00:00	5	Humedad	90
80717	7	Sololá	717	San Juan la Laguna	12	San Juan la Laguna	10	Octubre	2023-01-10T00:00:00	2024-11-08T19:00:00	6	Velocidad del viento	0
80718	7	Sololá	717	San Juan la Laguna	12	San Juan la Laguna	10	Octubre	2023-01-10T00:00:00	2024-11-08T19:00:00	7	Dirección del viento	0
80719	7	Sololá	717	San Juan la Laguna	12	San Juan la Laguna	10	Octubre	2023-01-10T00:00:00	2024-11-08T19:00:00	1	Precipitación	1.4
80720	7	Sololá	717	San Juan la Laguna	12	San Juan la Laguna	10	Octubre	2023-01-10T00:00:00	2024-11-08T19:00:00	8	Radiación solar	0
80721	7	Sololá	717	San Juan la Laguna	12	San Juan la Laguna	10	Octubre	2023-01-10T00:00:00	2024-11-08T20:00:00	2	Temperatura media	18.7
80722	7	Sololá	717	San Juan la Laguna	12	San Juan la Laguna	10	Octubre	2023-01-10T00:00:00	2024-11-08T20:00:00	4	Temperatura máxima	19.2
80723	7	Sololá	717	San Juan la Laguna	12	San Juan la Laguna	10	Octubre	2023-01-10T00:00:00	2024-11-08T20:00:00	3	Temperatura mínima	18.6
80724	7	Sololá	717	San Juan la Laguna	12	San Juan la Laguna	10	Octubre	2023-01-10T00:00:00	2024-11-08T20:00:00	5	Humedad	91
80725	7	Sololá	717	San Juan la Laguna	12	San Juan la Laguna	10	Octubre	2023-01-10T00:00:00	2024-11-08T20:00:00	6	Velocidad del viento	0
80726	7	Sololá	717	San Juan la Laguna	12	San Juan la Laguna	10	Octubre	2023-01-10T00:00:00	2024-11-08T20:00:00	7	Dirección del viento	0
80727	7	Sololá	717	San Juan la Laguna	12	San Juan la Laguna	10	Octubre	2023-01-10T00:00:00	2024-11-08T20:00:00	1	Precipitación	0.2
80728	7	Sololá	717	San Juan la Laguna	12	San Juan la Laguna	10	Octubre	2023-01-10T00:00:00	2024-11-08T20:00:00	8	Radiación solar	0
80729	7	Sololá	717	San Juan la Laguna	12	San Juan la Laguna	10	Octubre	2023-01-10T00:00:00	2024-11-08T21:00:00	2	Temperatura media	18.7
80730	7	Sololá	717	San Juan la Laguna	12	San Juan la Laguna	10	Octubre	2023-01-10T00:00:00	2024-11-08T21:00:00	4	Temperatura máxima	18.9
80731	7	Sololá	717	San Juan la Laguna	12	San Juan la Laguna	10	Octubre	2023-01-10T00:00:00	2024-11-08T21:00:00	3	Temperatura mínima	18.7
80732	7	Sololá	717	San Juan la Laguna	12	San Juan la Laguna	10	Octubre	2023-01-10T00:00:00	2024-11-08T21:00:00	5	Humedad	91
80733	7	Sololá	717	San Juan la Laguna	12	San Juan la Laguna	10	Octubre	2023-01-10T00:00:00	2024-11-08T21:00:00	6	Velocidad del viento	0
80734	7	Sololá	717	San Juan la Laguna	12	San Juan la Laguna	10	Octubre	2023-01-10T00:00:00	2024-11-08T21:00:00	7	Dirección del viento	0
80735	7	Sololá	717	San Juan la Laguna	12	San Juan la Laguna	10	Octubre	2023-01-10T00:00:00	2024-11-08T21:00:00	1	Precipitación	4.4
80736	7	Sololá	717	San Juan la Laguna	12	San Juan la Laguna	10	Octubre	2023-01-10T00:00:00	2024-11-08T21:00:00	8	Radiación solar	0
80737	7	Sololá	717	San Juan la Laguna	12	San Juan la Laguna	10	Octubre	2023-01-10T00:00:00	2024-11-08T22:00:00	2	Temperatura media	18.2
80738	7	Sololá	717	San Juan la Laguna	12	San Juan la Laguna	10	Octubre	2023-01-10T00:00:00	2024-11-08T22:00:00	4	Temperatura máxima	18.7
80739	7	Sololá	717	San Juan la Laguna	12	San Juan la Laguna	10	Octubre	2023-01-10T00:00:00	2024-11-08T22:00:00	3	Temperatura mínima	18.1
80740	7	Sololá	717	San Juan la Laguna	12	San Juan la Laguna	10	Octubre	2023-01-10T00:00:00	2024-11-08T22:00:00	5	Humedad	91
80741	7	Sololá	717	San Juan la Laguna	12	San Juan la Laguna	10	Octubre	2023-01-10T00:00:00	2024-11-08T22:00:00	6	Velocidad del viento	0
80742	7	Sololá	717	San Juan la Laguna	12	San Juan la Laguna	10	Octubre	2023-01-10T00:00:00	2024-11-08T22:00:00	7	Dirección del viento	0
80743	7	Sololá	717	San Juan la Laguna	12	San Juan la Laguna	10	Octubre	2023-01-10T00:00:00	2024-11-08T22:00:00	1	Precipitación	2.4
80744	7	Sololá	717	San Juan la Laguna	12	San Juan la Laguna	10	Octubre	2023-01-10T00:00:00	2024-11-08T22:00:00	8	Radiación solar	0
80745	7	Sololá	717	San Juan la Laguna	12	San Juan la Laguna	10	Octubre	2023-01-10T00:00:00	2024-11-08T23:00:00	2	Temperatura media	18
80746	7	Sololá	717	San Juan la Laguna	12	San Juan la Laguna	10	Octubre	2023-01-10T00:00:00	2024-11-08T23:00:00	4	Temperatura máxima	18.2
80747	7	Sololá	717	San Juan la Laguna	12	San Juan la Laguna	10	Octubre	2023-01-10T00:00:00	2024-11-08T23:00:00	3	Temperatura mínima	17.9
80748	7	Sololá	717	San Juan la Laguna	12	San Juan la Laguna	10	Octubre	2023-01-10T00:00:00	2024-11-08T23:00:00	5	Humedad	91
80749	7	Sololá	717	San Juan la Laguna	12	San Juan la Laguna	10	Octubre	2023-01-10T00:00:00	2024-11-08T23:00:00	6	Velocidad del viento	1.6
80750	7	Sololá	717	San Juan la Laguna	12	San Juan la Laguna	10	Octubre	2023-01-10T00:00:00	2024-11-08T23:00:00	7	Dirección del viento	1.61
80751	7	Sololá	717	San Juan la Laguna	12	San Juan la Laguna	10	Octubre	2023-01-10T00:00:00	2024-11-08T23:00:00	1	Precipitación	0.2
80752	7	Sololá	717	San Juan la Laguna	12	San Juan la Laguna	10	Octubre	2023-01-10T00:00:00	2024-11-08T23:00:00	8	Radiación solar	0
80753	7	Sololá	717	San Juan la Laguna	12	San Juan la Laguna	10	Octubre	2023-02-10T00:00:00	2024-11-08T00:00:00	2	Temperatura media	17.9
80754	7	Sololá	717	San Juan la Laguna	12	San Juan la Laguna	10	Octubre	2023-02-10T00:00:00	2024-11-08T00:00:00	4	Temperatura máxima	18.1
80755	7	Sololá	717	San Juan la Laguna	12	San Juan la Laguna	10	Octubre	2023-02-10T00:00:00	2024-11-08T00:00:00	3	Temperatura mínima	17.9
80756	7	Sololá	717	San Juan la Laguna	12	San Juan la Laguna	10	Octubre	2023-02-10T00:00:00	2024-11-08T00:00:00	5	Humedad	91
80757	7	Sololá	717	San Juan la Laguna	12	San Juan la Laguna	10	Octubre	2023-02-10T00:00:00	2024-11-08T00:00:00	6	Velocidad del viento	3.2
80758	7	Sololá	717	San Juan la Laguna	12	San Juan la Laguna	10	Octubre	2023-02-10T00:00:00	2024-11-08T00:00:00	7	Dirección del viento	3.22
80759	7	Sololá	717	San Juan la Laguna	12	San Juan la Laguna	10	Octubre	2023-02-10T00:00:00	2024-11-08T00:00:00	1	Precipitación	0
80760	7	Sololá	717	San Juan la Laguna	12	San Juan la Laguna	10	Octubre	2023-02-10T00:00:00	2024-11-08T00:00:00	8	Radiación solar	0
80761	7	Sololá	717	San Juan la Laguna	12	San Juan la Laguna	10	Octubre	2023-02-10T00:00:00	2024-11-08T01:00:00	2	Temperatura media	17.9
80762	7	Sololá	717	San Juan la Laguna	12	San Juan la Laguna	10	Octubre	2023-02-10T00:00:00	2024-11-08T01:00:00	4	Temperatura máxima	17.9
80763	7	Sololá	717	San Juan la Laguna	12	San Juan la Laguna	10	Octubre	2023-02-10T00:00:00	2024-11-08T01:00:00	3	Temperatura mínima	17.8
80764	7	Sololá	717	San Juan la Laguna	12	San Juan la Laguna	10	Octubre	2023-02-10T00:00:00	2024-11-08T01:00:00	5	Humedad	91
80765	7	Sololá	717	San Juan la Laguna	12	San Juan la Laguna	10	Octubre	2023-02-10T00:00:00	2024-11-08T01:00:00	6	Velocidad del viento	3.2
80766	7	Sololá	717	San Juan la Laguna	12	San Juan la Laguna	10	Octubre	2023-02-10T00:00:00	2024-11-08T01:00:00	7	Dirección del viento	3.22
80767	7	Sololá	717	San Juan la Laguna	12	San Juan la Laguna	10	Octubre	2023-02-10T00:00:00	2024-11-08T01:00:00	1	Precipitación	0
80768	7	Sololá	717	San Juan la Laguna	12	San Juan la Laguna	10	Octubre	2023-02-10T00:00:00	2024-11-08T01:00:00	8	Radiación solar	0
80769	7	Sololá	717	San Juan la Laguna	12	San Juan la Laguna	10	Octubre	2023-02-10T00:00:00	2024-11-08T02:00:00	2	Temperatura media	17.7
80770	7	Sololá	717	San Juan la Laguna	12	San Juan la Laguna	10	Octubre	2023-02-10T00:00:00	2024-11-08T02:00:00	4	Temperatura máxima	17.9
80771	7	Sololá	717	San Juan la Laguna	12	San Juan la Laguna	10	Octubre	2023-02-10T00:00:00	2024-11-08T02:00:00	3	Temperatura mínima	17.7
80772	7	Sololá	717	San Juan la Laguna	12	San Juan la Laguna	10	Octubre	2023-02-10T00:00:00	2024-11-08T02:00:00	5	Humedad	91
80773	7	Sololá	717	San Juan la Laguna	12	San Juan la Laguna	10	Octubre	2023-02-10T00:00:00	2024-11-08T02:00:00	6	Velocidad del viento	3.2
80774	7	Sololá	717	San Juan la Laguna	12	San Juan la Laguna	10	Octubre	2023-02-10T00:00:00	2024-11-08T02:00:00	7	Dirección del viento	3.22
80775	7	Sololá	717	San Juan la Laguna	12	San Juan la Laguna	10	Octubre	2023-02-10T00:00:00	2024-11-08T02:00:00	1	Precipitación	0.2
80776	7	Sololá	717	San Juan la Laguna	12	San Juan la Laguna	10	Octubre	2023-02-10T00:00:00	2024-11-08T02:00:00	8	Radiación solar	0
80777	7	Sololá	717	San Juan la Laguna	12	San Juan la Laguna	10	Octubre	2023-02-10T00:00:00	2024-11-08T03:00:00	2	Temperatura media	17.2
80778	7	Sololá	717	San Juan la Laguna	12	San Juan la Laguna	10	Octubre	2023-02-10T00:00:00	2024-11-08T03:00:00	4	Temperatura máxima	17.7
80779	7	Sololá	717	San Juan la Laguna	12	San Juan la Laguna	10	Octubre	2023-02-10T00:00:00	2024-11-08T03:00:00	3	Temperatura mínima	17.2
80780	7	Sololá	717	San Juan la Laguna	12	San Juan la Laguna	10	Octubre	2023-02-10T00:00:00	2024-11-08T03:00:00	5	Humedad	91
80781	7	Sololá	717	San Juan la Laguna	12	San Juan la Laguna	10	Octubre	2023-02-10T00:00:00	2024-11-08T03:00:00	6	Velocidad del viento	1.6
80782	7	Sololá	717	San Juan la Laguna	12	San Juan la Laguna	10	Octubre	2023-02-10T00:00:00	2024-11-08T03:00:00	7	Dirección del viento	1.61
80783	7	Sololá	717	San Juan la Laguna	12	San Juan la Laguna	10	Octubre	2023-02-10T00:00:00	2024-11-08T03:00:00	1	Precipitación	0.2
80784	7	Sololá	717	San Juan la Laguna	12	San Juan la Laguna	10	Octubre	2023-02-10T00:00:00	2024-11-08T03:00:00	8	Radiación solar	0
80785	7	Sololá	717	San Juan la Laguna	12	San Juan la Laguna	10	Octubre	2023-02-10T00:00:00	2024-11-08T04:00:00	2	Temperatura media	16.8
80786	7	Sololá	717	San Juan la Laguna	12	San Juan la Laguna	10	Octubre	2023-02-10T00:00:00	2024-11-08T04:00:00	4	Temperatura máxima	17.2
80787	7	Sololá	717	San Juan la Laguna	12	San Juan la Laguna	10	Octubre	2023-02-10T00:00:00	2024-11-08T04:00:00	3	Temperatura mínima	16.7
80788	7	Sololá	717	San Juan la Laguna	12	San Juan la Laguna	10	Octubre	2023-02-10T00:00:00	2024-11-08T04:00:00	5	Humedad	91
80789	7	Sololá	717	San Juan la Laguna	12	San Juan la Laguna	10	Octubre	2023-02-10T00:00:00	2024-11-08T04:00:00	6	Velocidad del viento	3.2
80790	7	Sololá	717	San Juan la Laguna	12	San Juan la Laguna	10	Octubre	2023-02-10T00:00:00	2024-11-08T04:00:00	7	Dirección del viento	3.22
80791	7	Sololá	717	San Juan la Laguna	12	San Juan la Laguna	10	Octubre	2023-02-10T00:00:00	2024-11-08T04:00:00	1	Precipitación	0
80792	7	Sololá	717	San Juan la Laguna	12	San Juan la Laguna	10	Octubre	2023-02-10T00:00:00	2024-11-08T04:00:00	8	Radiación solar	0
80793	7	Sololá	717	San Juan la Laguna	12	San Juan la Laguna	10	Octubre	2023-02-10T00:00:00	2024-11-08T05:00:00	2	Temperatura media	16.3
80794	7	Sololá	717	San Juan la Laguna	12	San Juan la Laguna	10	Octubre	2023-02-10T00:00:00	2024-11-08T05:00:00	4	Temperatura máxima	16.9
80795	7	Sololá	717	San Juan la Laguna	12	San Juan la Laguna	10	Octubre	2023-02-10T00:00:00	2024-11-08T05:00:00	3	Temperatura mínima	16.3
80796	7	Sololá	717	San Juan la Laguna	12	San Juan la Laguna	10	Octubre	2023-02-10T00:00:00	2024-11-08T05:00:00	5	Humedad	91
80797	7	Sololá	717	San Juan la Laguna	12	San Juan la Laguna	10	Octubre	2023-02-10T00:00:00	2024-11-08T05:00:00	6	Velocidad del viento	3.2
80798	7	Sololá	717	San Juan la Laguna	12	San Juan la Laguna	10	Octubre	2023-02-10T00:00:00	2024-11-08T05:00:00	7	Dirección del viento	3.22
80799	7	Sololá	717	San Juan la Laguna	12	San Juan la Laguna	10	Octubre	2023-02-10T00:00:00	2024-11-08T05:00:00	1	Precipitación	0
80800	7	Sololá	717	San Juan la Laguna	12	San Juan la Laguna	10	Octubre	2023-02-10T00:00:00	2024-11-08T05:00:00	8	Radiación solar	0
80801	7	Sololá	717	San Juan la Laguna	12	San Juan la Laguna	10	Octubre	2023-02-10T00:00:00	2024-11-08T06:00:00	2	Temperatura media	16.3
80802	7	Sololá	717	San Juan la Laguna	12	San Juan la Laguna	10	Octubre	2023-02-10T00:00:00	2024-11-08T06:00:00	4	Temperatura máxima	16.3
80803	7	Sololá	717	San Juan la Laguna	12	San Juan la Laguna	10	Octubre	2023-02-10T00:00:00	2024-11-08T06:00:00	3	Temperatura mínima	16.1
80804	7	Sololá	717	San Juan la Laguna	12	San Juan la Laguna	10	Octubre	2023-02-10T00:00:00	2024-11-08T06:00:00	5	Humedad	91
80805	7	Sololá	717	San Juan la Laguna	12	San Juan la Laguna	10	Octubre	2023-02-10T00:00:00	2024-11-08T06:00:00	6	Velocidad del viento	4.8
80806	7	Sololá	717	San Juan la Laguna	12	San Juan la Laguna	10	Octubre	2023-02-10T00:00:00	2024-11-08T06:00:00	7	Dirección del viento	4.83
80807	7	Sololá	717	San Juan la Laguna	12	San Juan la Laguna	10	Octubre	2023-02-10T00:00:00	2024-11-08T06:00:00	1	Precipitación	0
80808	7	Sololá	717	San Juan la Laguna	12	San Juan la Laguna	10	Octubre	2023-02-10T00:00:00	2024-11-08T06:00:00	8	Radiación solar	0
80809	7	Sololá	717	San Juan la Laguna	12	San Juan la Laguna	10	Octubre	2023-02-10T00:00:00	2024-11-08T07:00:00	2	Temperatura media	16.8
80810	7	Sololá	717	San Juan la Laguna	12	San Juan la Laguna	10	Octubre	2023-02-10T00:00:00	2024-11-08T07:00:00	4	Temperatura máxima	16.8
80811	7	Sololá	717	San Juan la Laguna	12	San Juan la Laguna	10	Octubre	2023-02-10T00:00:00	2024-11-08T07:00:00	3	Temperatura mínima	16.2
80812	7	Sololá	717	San Juan la Laguna	12	San Juan la Laguna	10	Octubre	2023-02-10T00:00:00	2024-11-08T07:00:00	5	Humedad	91
80813	7	Sololá	717	San Juan la Laguna	12	San Juan la Laguna	10	Octubre	2023-02-10T00:00:00	2024-11-08T07:00:00	6	Velocidad del viento	3.2
80814	7	Sololá	717	San Juan la Laguna	12	San Juan la Laguna	10	Octubre	2023-02-10T00:00:00	2024-11-08T07:00:00	7	Dirección del viento	3.22
80815	7	Sololá	717	San Juan la Laguna	12	San Juan la Laguna	10	Octubre	2023-02-10T00:00:00	2024-11-08T07:00:00	1	Precipitación	0
80816	7	Sololá	717	San Juan la Laguna	12	San Juan la Laguna	10	Octubre	2023-02-10T00:00:00	2024-11-08T07:00:00	8	Radiación solar	50
80817	7	Sololá	717	San Juan la Laguna	12	San Juan la Laguna	10	Octubre	2023-02-10T00:00:00	2024-11-08T08:00:00	2	Temperatura media	19.1
80818	7	Sololá	717	San Juan la Laguna	12	San Juan la Laguna	10	Octubre	2023-02-10T00:00:00	2024-11-08T08:00:00	4	Temperatura máxima	19.1
80819	7	Sololá	717	San Juan la Laguna	12	San Juan la Laguna	10	Octubre	2023-02-10T00:00:00	2024-11-08T08:00:00	3	Temperatura mínima	16.8
80820	7	Sololá	717	San Juan la Laguna	12	San Juan la Laguna	10	Octubre	2023-02-10T00:00:00	2024-11-08T08:00:00	5	Humedad	87
80821	7	Sololá	717	San Juan la Laguna	12	San Juan la Laguna	10	Octubre	2023-02-10T00:00:00	2024-11-08T08:00:00	6	Velocidad del viento	0
80822	7	Sololá	717	San Juan la Laguna	12	San Juan la Laguna	10	Octubre	2023-02-10T00:00:00	2024-11-08T08:00:00	7	Dirección del viento	0
80823	7	Sololá	717	San Juan la Laguna	12	San Juan la Laguna	10	Octubre	2023-02-10T00:00:00	2024-11-08T08:00:00	1	Precipitación	0
80824	7	Sololá	717	San Juan la Laguna	12	San Juan la Laguna	10	Octubre	2023-02-10T00:00:00	2024-11-08T08:00:00	8	Radiación solar	163
80825	7	Sololá	717	San Juan la Laguna	12	San Juan la Laguna	10	Octubre	2023-02-10T00:00:00	2024-11-08T09:00:00	2	Temperatura media	22
80826	7	Sololá	717	San Juan la Laguna	12	San Juan la Laguna	10	Octubre	2023-02-10T00:00:00	2024-11-08T09:00:00	4	Temperatura máxima	22.3
80827	7	Sololá	717	San Juan la Laguna	12	San Juan la Laguna	10	Octubre	2023-02-10T00:00:00	2024-11-08T09:00:00	3	Temperatura mínima	19.1
80828	7	Sololá	717	San Juan la Laguna	12	San Juan la Laguna	10	Octubre	2023-02-10T00:00:00	2024-11-08T09:00:00	5	Humedad	74
80829	7	Sololá	717	San Juan la Laguna	12	San Juan la Laguna	10	Octubre	2023-02-10T00:00:00	2024-11-08T09:00:00	6	Velocidad del viento	0
80830	7	Sololá	717	San Juan la Laguna	12	San Juan la Laguna	10	Octubre	2023-02-10T00:00:00	2024-11-08T09:00:00	7	Dirección del viento	0
80831	7	Sololá	717	San Juan la Laguna	12	San Juan la Laguna	10	Octubre	2023-02-10T00:00:00	2024-11-08T09:00:00	1	Precipitación	0
80832	7	Sololá	717	San Juan la Laguna	12	San Juan la Laguna	10	Octubre	2023-02-10T00:00:00	2024-11-08T09:00:00	8	Radiación solar	476
80833	7	Sololá	717	San Juan la Laguna	12	San Juan la Laguna	10	Octubre	2023-02-10T00:00:00	2024-11-08T10:00:00	2	Temperatura media	23.7
80834	7	Sololá	717	San Juan la Laguna	12	San Juan la Laguna	10	Octubre	2023-02-10T00:00:00	2024-11-08T10:00:00	4	Temperatura máxima	23.7
80835	7	Sololá	717	San Juan la Laguna	12	San Juan la Laguna	10	Octubre	2023-02-10T00:00:00	2024-11-08T10:00:00	3	Temperatura mínima	22
80836	7	Sololá	717	San Juan la Laguna	12	San Juan la Laguna	10	Octubre	2023-02-10T00:00:00	2024-11-08T10:00:00	5	Humedad	66
80837	7	Sololá	717	San Juan la Laguna	12	San Juan la Laguna	10	Octubre	2023-02-10T00:00:00	2024-11-08T10:00:00	6	Velocidad del viento	1.6
80838	7	Sololá	717	San Juan la Laguna	12	San Juan la Laguna	10	Octubre	2023-02-10T00:00:00	2024-11-08T10:00:00	7	Dirección del viento	1.61
80839	7	Sololá	717	San Juan la Laguna	12	San Juan la Laguna	10	Octubre	2023-02-10T00:00:00	2024-11-08T10:00:00	1	Precipitación	0
80840	7	Sololá	717	San Juan la Laguna	12	San Juan la Laguna	10	Octubre	2023-02-10T00:00:00	2024-11-08T10:00:00	8	Radiación solar	715
80841	7	Sololá	717	San Juan la Laguna	12	San Juan la Laguna	10	Octubre	2023-02-10T00:00:00	2024-11-08T11:00:00	2	Temperatura media	25.6
80842	7	Sololá	717	San Juan la Laguna	12	San Juan la Laguna	10	Octubre	2023-02-10T00:00:00	2024-11-08T11:00:00	4	Temperatura máxima	25.6
80843	7	Sololá	717	San Juan la Laguna	12	San Juan la Laguna	10	Octubre	2023-02-10T00:00:00	2024-11-08T11:00:00	3	Temperatura mínima	23.6
80844	7	Sololá	717	San Juan la Laguna	12	San Juan la Laguna	10	Octubre	2023-02-10T00:00:00	2024-11-08T11:00:00	5	Humedad	58
80845	7	Sololá	717	San Juan la Laguna	12	San Juan la Laguna	10	Octubre	2023-02-10T00:00:00	2024-11-08T11:00:00	6	Velocidad del viento	6.4
80846	7	Sololá	717	San Juan la Laguna	12	San Juan la Laguna	10	Octubre	2023-02-10T00:00:00	2024-11-08T11:00:00	7	Dirección del viento	6.44
80847	7	Sololá	717	San Juan la Laguna	12	San Juan la Laguna	10	Octubre	2023-02-10T00:00:00	2024-11-08T11:00:00	1	Precipitación	0
80848	7	Sololá	717	San Juan la Laguna	12	San Juan la Laguna	10	Octubre	2023-02-10T00:00:00	2024-11-08T11:00:00	8	Radiación solar	810
80849	7	Sololá	717	San Juan la Laguna	12	San Juan la Laguna	10	Octubre	2023-02-10T00:00:00	2024-11-08T12:00:00	2	Temperatura media	25.5
80850	7	Sololá	717	San Juan la Laguna	12	San Juan la Laguna	10	Octubre	2023-02-10T00:00:00	2024-11-08T12:00:00	4	Temperatura máxima	25.8
80851	7	Sololá	717	San Juan la Laguna	12	San Juan la Laguna	10	Octubre	2023-02-10T00:00:00	2024-11-08T12:00:00	3	Temperatura mínima	25.3
80852	7	Sololá	717	San Juan la Laguna	12	San Juan la Laguna	10	Octubre	2023-02-10T00:00:00	2024-11-08T12:00:00	5	Humedad	65
80853	7	Sololá	717	San Juan la Laguna	12	San Juan la Laguna	10	Octubre	2023-02-10T00:00:00	2024-11-08T12:00:00	6	Velocidad del viento	4.8
80854	7	Sololá	717	San Juan la Laguna	12	San Juan la Laguna	10	Octubre	2023-02-10T00:00:00	2024-11-08T12:00:00	7	Dirección del viento	4.83
80855	7	Sololá	717	San Juan la Laguna	12	San Juan la Laguna	10	Octubre	2023-02-10T00:00:00	2024-11-08T12:00:00	1	Precipitación	0
80856	7	Sololá	717	San Juan la Laguna	12	San Juan la Laguna	10	Octubre	2023-02-10T00:00:00	2024-11-08T12:00:00	8	Radiación solar	844
80857	7	Sololá	717	San Juan la Laguna	12	San Juan la Laguna	10	Octubre	2023-02-10T00:00:00	2024-11-08T13:00:00	2	Temperatura media	25.2
80858	7	Sololá	717	San Juan la Laguna	12	San Juan la Laguna	10	Octubre	2023-02-10T00:00:00	2024-11-08T13:00:00	4	Temperatura máxima	25.6
80859	7	Sololá	717	San Juan la Laguna	12	San Juan la Laguna	10	Octubre	2023-02-10T00:00:00	2024-11-08T13:00:00	3	Temperatura mínima	24.9
80860	7	Sololá	717	San Juan la Laguna	12	San Juan la Laguna	10	Octubre	2023-02-10T00:00:00	2024-11-08T13:00:00	5	Humedad	69
80861	7	Sololá	717	San Juan la Laguna	12	San Juan la Laguna	10	Octubre	2023-02-10T00:00:00	2024-11-08T13:00:00	6	Velocidad del viento	8
80862	7	Sololá	717	San Juan la Laguna	12	San Juan la Laguna	10	Octubre	2023-02-10T00:00:00	2024-11-08T13:00:00	7	Dirección del viento	8.05
80863	7	Sololá	717	San Juan la Laguna	12	San Juan la Laguna	10	Octubre	2023-02-10T00:00:00	2024-11-08T13:00:00	1	Precipitación	0
80864	7	Sololá	717	San Juan la Laguna	12	San Juan la Laguna	10	Octubre	2023-02-10T00:00:00	2024-11-08T13:00:00	8	Radiación solar	875
80865	7	Sololá	717	San Juan la Laguna	12	San Juan la Laguna	10	Octubre	2023-02-10T00:00:00	2024-11-08T14:00:00	2	Temperatura media	24.9
80866	7	Sololá	717	San Juan la Laguna	12	San Juan la Laguna	10	Octubre	2023-02-10T00:00:00	2024-11-08T14:00:00	4	Temperatura máxima	25.2
80867	7	Sololá	717	San Juan la Laguna	12	San Juan la Laguna	10	Octubre	2023-02-10T00:00:00	2024-11-08T14:00:00	3	Temperatura mínima	24.3
80868	7	Sololá	717	San Juan la Laguna	12	San Juan la Laguna	10	Octubre	2023-02-10T00:00:00	2024-11-08T14:00:00	5	Humedad	70
80869	7	Sololá	717	San Juan la Laguna	12	San Juan la Laguna	10	Octubre	2023-02-10T00:00:00	2024-11-08T14:00:00	6	Velocidad del viento	11.3
80870	7	Sololá	717	San Juan la Laguna	12	San Juan la Laguna	10	Octubre	2023-02-10T00:00:00	2024-11-08T14:00:00	7	Dirección del viento	11.27
80871	7	Sololá	717	San Juan la Laguna	12	San Juan la Laguna	10	Octubre	2023-02-10T00:00:00	2024-11-08T14:00:00	1	Precipitación	0
80872	7	Sololá	717	San Juan la Laguna	12	San Juan la Laguna	10	Octubre	2023-02-10T00:00:00	2024-11-08T14:00:00	8	Radiación solar	846
80873	7	Sololá	717	San Juan la Laguna	12	San Juan la Laguna	10	Octubre	2023-02-10T00:00:00	2024-11-08T15:00:00	2	Temperatura media	24.9
80874	7	Sololá	717	San Juan la Laguna	12	San Juan la Laguna	10	Octubre	2023-02-10T00:00:00	2024-11-08T15:00:00	4	Temperatura máxima	25.2
80875	7	Sololá	717	San Juan la Laguna	12	San Juan la Laguna	10	Octubre	2023-02-10T00:00:00	2024-11-08T15:00:00	3	Temperatura mínima	24.1
80876	7	Sololá	717	San Juan la Laguna	12	San Juan la Laguna	10	Octubre	2023-02-10T00:00:00	2024-11-08T15:00:00	5	Humedad	71
80877	7	Sololá	717	San Juan la Laguna	12	San Juan la Laguna	10	Octubre	2023-02-10T00:00:00	2024-11-08T15:00:00	6	Velocidad del viento	11.3
80878	7	Sololá	717	San Juan la Laguna	12	San Juan la Laguna	10	Octubre	2023-02-10T00:00:00	2024-11-08T15:00:00	7	Dirección del viento	11.27
80879	7	Sololá	717	San Juan la Laguna	12	San Juan la Laguna	10	Octubre	2023-02-10T00:00:00	2024-11-08T15:00:00	1	Precipitación	0
80880	7	Sololá	717	San Juan la Laguna	12	San Juan la Laguna	10	Octubre	2023-02-10T00:00:00	2024-11-08T15:00:00	8	Radiación solar	745
80881	7	Sololá	717	San Juan la Laguna	12	San Juan la Laguna	10	Octubre	2023-02-10T00:00:00	2024-11-08T16:00:00	2	Temperatura media	22.9
80882	7	Sololá	717	San Juan la Laguna	12	San Juan la Laguna	10	Octubre	2023-02-10T00:00:00	2024-11-08T16:00:00	4	Temperatura máxima	25
80883	7	Sololá	717	San Juan la Laguna	12	San Juan la Laguna	10	Octubre	2023-02-10T00:00:00	2024-11-08T16:00:00	3	Temperatura mínima	22.9
80884	7	Sololá	717	San Juan la Laguna	12	San Juan la Laguna	10	Octubre	2023-02-10T00:00:00	2024-11-08T16:00:00	5	Humedad	79
80885	7	Sololá	717	San Juan la Laguna	12	San Juan la Laguna	10	Octubre	2023-02-10T00:00:00	2024-11-08T16:00:00	6	Velocidad del viento	6.4
80886	7	Sololá	717	San Juan la Laguna	12	San Juan la Laguna	10	Octubre	2023-02-10T00:00:00	2024-11-08T16:00:00	7	Dirección del viento	6.44
80887	7	Sololá	717	San Juan la Laguna	12	San Juan la Laguna	10	Octubre	2023-02-10T00:00:00	2024-11-08T16:00:00	1	Precipitación	0
80888	7	Sololá	717	San Juan la Laguna	12	San Juan la Laguna	10	Octubre	2023-02-10T00:00:00	2024-11-08T16:00:00	8	Radiación solar	286
80889	7	Sololá	717	San Juan la Laguna	12	San Juan la Laguna	10	Octubre	2023-02-10T00:00:00	2024-11-08T17:00:00	2	Temperatura media	21.2
80890	7	Sololá	717	San Juan la Laguna	12	San Juan la Laguna	10	Octubre	2023-02-10T00:00:00	2024-11-08T17:00:00	4	Temperatura máxima	22.9
80891	7	Sololá	717	San Juan la Laguna	12	San Juan la Laguna	10	Octubre	2023-02-10T00:00:00	2024-11-08T17:00:00	3	Temperatura mínima	21.2
80892	7	Sololá	717	San Juan la Laguna	12	San Juan la Laguna	10	Octubre	2023-02-10T00:00:00	2024-11-08T17:00:00	5	Humedad	87
80893	7	Sololá	717	San Juan la Laguna	12	San Juan la Laguna	10	Octubre	2023-02-10T00:00:00	2024-11-08T17:00:00	6	Velocidad del viento	0
80894	7	Sololá	717	San Juan la Laguna	12	San Juan la Laguna	10	Octubre	2023-02-10T00:00:00	2024-11-08T17:00:00	7	Dirección del viento	0
80895	7	Sololá	717	San Juan la Laguna	12	San Juan la Laguna	10	Octubre	2023-02-10T00:00:00	2024-11-08T17:00:00	1	Precipitación	0.2
80896	7	Sololá	717	San Juan la Laguna	12	San Juan la Laguna	10	Octubre	2023-02-10T00:00:00	2024-11-08T17:00:00	8	Radiación solar	18
80897	7	Sololá	717	San Juan la Laguna	12	San Juan la Laguna	10	Octubre	2023-02-10T00:00:00	2024-11-08T18:00:00	2	Temperatura media	19.2
80898	7	Sololá	717	San Juan la Laguna	12	San Juan la Laguna	10	Octubre	2023-02-10T00:00:00	2024-11-08T18:00:00	4	Temperatura máxima	21.2
80899	7	Sololá	717	San Juan la Laguna	12	San Juan la Laguna	10	Octubre	2023-02-10T00:00:00	2024-11-08T18:00:00	3	Temperatura mínima	19.2
80900	7	Sololá	717	San Juan la Laguna	12	San Juan la Laguna	10	Octubre	2023-02-10T00:00:00	2024-11-08T18:00:00	5	Humedad	89
80901	7	Sololá	717	San Juan la Laguna	12	San Juan la Laguna	10	Octubre	2023-02-10T00:00:00	2024-11-08T18:00:00	6	Velocidad del viento	8
80902	7	Sololá	717	San Juan la Laguna	12	San Juan la Laguna	10	Octubre	2023-02-10T00:00:00	2024-11-08T18:00:00	7	Dirección del viento	8.05
80903	7	Sololá	717	San Juan la Laguna	12	San Juan la Laguna	10	Octubre	2023-02-10T00:00:00	2024-11-08T18:00:00	1	Precipitación	0.2
80904	7	Sololá	717	San Juan la Laguna	12	San Juan la Laguna	10	Octubre	2023-02-10T00:00:00	2024-11-08T18:00:00	8	Radiación solar	0
80905	7	Sololá	717	San Juan la Laguna	12	San Juan la Laguna	10	Octubre	2023-02-10T00:00:00	2024-11-08T19:00:00	2	Temperatura media	18.7
80906	7	Sololá	717	San Juan la Laguna	12	San Juan la Laguna	10	Octubre	2023-02-10T00:00:00	2024-11-08T19:00:00	4	Temperatura máxima	19.2
80907	7	Sololá	717	San Juan la Laguna	12	San Juan la Laguna	10	Octubre	2023-02-10T00:00:00	2024-11-08T19:00:00	3	Temperatura mínima	18.7
80908	7	Sololá	717	San Juan la Laguna	12	San Juan la Laguna	10	Octubre	2023-02-10T00:00:00	2024-11-08T19:00:00	5	Humedad	88
80909	7	Sololá	717	San Juan la Laguna	12	San Juan la Laguna	10	Octubre	2023-02-10T00:00:00	2024-11-08T19:00:00	6	Velocidad del viento	12.9
80910	7	Sololá	717	San Juan la Laguna	12	San Juan la Laguna	10	Octubre	2023-02-10T00:00:00	2024-11-08T19:00:00	7	Dirección del viento	12.87
80911	7	Sololá	717	San Juan la Laguna	12	San Juan la Laguna	10	Octubre	2023-02-10T00:00:00	2024-11-08T19:00:00	1	Precipitación	0.6
80912	7	Sololá	717	San Juan la Laguna	12	San Juan la Laguna	10	Octubre	2023-02-10T00:00:00	2024-11-08T19:00:00	8	Radiación solar	0
80913	7	Sololá	717	San Juan la Laguna	12	San Juan la Laguna	10	Octubre	2023-02-10T00:00:00	2024-11-08T20:00:00	2	Temperatura media	18.4
80914	7	Sololá	717	San Juan la Laguna	12	San Juan la Laguna	10	Octubre	2023-02-10T00:00:00	2024-11-08T20:00:00	4	Temperatura máxima	18.7
80915	7	Sololá	717	San Juan la Laguna	12	San Juan la Laguna	10	Octubre	2023-02-10T00:00:00	2024-11-08T20:00:00	3	Temperatura mínima	18.4
80916	7	Sololá	717	San Juan la Laguna	12	San Juan la Laguna	10	Octubre	2023-02-10T00:00:00	2024-11-08T20:00:00	5	Humedad	87
80917	7	Sololá	717	San Juan la Laguna	12	San Juan la Laguna	10	Octubre	2023-02-10T00:00:00	2024-11-08T20:00:00	6	Velocidad del viento	9.7
80918	7	Sololá	717	San Juan la Laguna	12	San Juan la Laguna	10	Octubre	2023-02-10T00:00:00	2024-11-08T20:00:00	7	Dirección del viento	9.66
80919	7	Sololá	717	San Juan la Laguna	12	San Juan la Laguna	10	Octubre	2023-02-10T00:00:00	2024-11-08T20:00:00	1	Precipitación	0.6
80920	7	Sololá	717	San Juan la Laguna	12	San Juan la Laguna	10	Octubre	2023-02-10T00:00:00	2024-11-08T20:00:00	8	Radiación solar	0
80921	7	Sololá	717	San Juan la Laguna	12	San Juan la Laguna	10	Octubre	2023-02-10T00:00:00	2024-11-08T21:00:00	2	Temperatura media	17.8
80922	7	Sololá	717	San Juan la Laguna	12	San Juan la Laguna	10	Octubre	2023-02-10T00:00:00	2024-11-08T21:00:00	4	Temperatura máxima	18.4
80923	7	Sololá	717	San Juan la Laguna	12	San Juan la Laguna	10	Octubre	2023-02-10T00:00:00	2024-11-08T21:00:00	3	Temperatura mínima	17.7
80924	7	Sololá	717	San Juan la Laguna	12	San Juan la Laguna	10	Octubre	2023-02-10T00:00:00	2024-11-08T21:00:00	5	Humedad	90
80925	7	Sololá	717	San Juan la Laguna	12	San Juan la Laguna	10	Octubre	2023-02-10T00:00:00	2024-11-08T21:00:00	6	Velocidad del viento	1.6
80926	7	Sololá	717	San Juan la Laguna	12	San Juan la Laguna	10	Octubre	2023-02-10T00:00:00	2024-11-08T21:00:00	7	Dirección del viento	1.61
80927	7	Sololá	717	San Juan la Laguna	12	San Juan la Laguna	10	Octubre	2023-02-10T00:00:00	2024-11-08T21:00:00	1	Precipitación	0.4
80928	7	Sololá	717	San Juan la Laguna	12	San Juan la Laguna	10	Octubre	2023-02-10T00:00:00	2024-11-08T21:00:00	8	Radiación solar	0
80929	7	Sololá	717	San Juan la Laguna	12	San Juan la Laguna	10	Octubre	2023-02-10T00:00:00	2024-11-08T22:00:00	2	Temperatura media	17.8
80930	7	Sololá	717	San Juan la Laguna	12	San Juan la Laguna	10	Octubre	2023-02-10T00:00:00	2024-11-08T22:00:00	4	Temperatura máxima	17.9
80931	7	Sololá	717	San Juan la Laguna	12	San Juan la Laguna	10	Octubre	2023-02-10T00:00:00	2024-11-08T22:00:00	3	Temperatura mínima	17.7
80932	7	Sololá	717	San Juan la Laguna	12	San Juan la Laguna	10	Octubre	2023-02-10T00:00:00	2024-11-08T22:00:00	5	Humedad	91
80933	7	Sololá	717	San Juan la Laguna	12	San Juan la Laguna	10	Octubre	2023-02-10T00:00:00	2024-11-08T22:00:00	6	Velocidad del viento	0
80934	7	Sololá	717	San Juan la Laguna	12	San Juan la Laguna	10	Octubre	2023-02-10T00:00:00	2024-11-08T22:00:00	7	Dirección del viento	0
80935	7	Sololá	717	San Juan la Laguna	12	San Juan la Laguna	10	Octubre	2023-02-10T00:00:00	2024-11-08T22:00:00	1	Precipitación	1.4
80936	7	Sololá	717	San Juan la Laguna	12	San Juan la Laguna	10	Octubre	2023-02-10T00:00:00	2024-11-08T22:00:00	8	Radiación solar	0
80937	7	Sololá	717	San Juan la Laguna	12	San Juan la Laguna	10	Octubre	2023-02-10T00:00:00	2024-11-08T23:00:00	2	Temperatura media	17.6
80938	7	Sololá	717	San Juan la Laguna	12	San Juan la Laguna	10	Octubre	2023-02-10T00:00:00	2024-11-08T23:00:00	4	Temperatura máxima	17.8
80939	7	Sololá	717	San Juan la Laguna	12	San Juan la Laguna	10	Octubre	2023-02-10T00:00:00	2024-11-08T23:00:00	3	Temperatura mínima	17.6
80940	7	Sololá	717	San Juan la Laguna	12	San Juan la Laguna	10	Octubre	2023-02-10T00:00:00	2024-11-08T23:00:00	5	Humedad	91
80941	7	Sololá	717	San Juan la Laguna	12	San Juan la Laguna	10	Octubre	2023-02-10T00:00:00	2024-11-08T23:00:00	6	Velocidad del viento	0
80942	7	Sololá	717	San Juan la Laguna	12	San Juan la Laguna	10	Octubre	2023-02-10T00:00:00	2024-11-08T23:00:00	7	Dirección del viento	0
80943	7	Sololá	717	San Juan la Laguna	12	San Juan la Laguna	10	Octubre	2023-02-10T00:00:00	2024-11-08T23:00:00	1	Precipitación	0.2
80944	7	Sololá	717	San Juan la Laguna	12	San Juan la Laguna	10	Octubre	2023-02-10T00:00:00	2024-11-08T23:00:00	8	Radiación solar	0
80945	7	Sololá	717	San Juan la Laguna	12	San Juan la Laguna	10	Octubre	2023-03-10T00:00:00	2024-11-08T00:00:00	2	Temperatura media	17.3
80946	7	Sololá	717	San Juan la Laguna	12	San Juan la Laguna	10	Octubre	2023-03-10T00:00:00	2024-11-08T00:00:00	4	Temperatura máxima	17.7
80947	7	Sololá	717	San Juan la Laguna	12	San Juan la Laguna	10	Octubre	2023-03-10T00:00:00	2024-11-08T00:00:00	3	Temperatura mínima	17.2
80948	7	Sololá	717	San Juan la Laguna	12	San Juan la Laguna	10	Octubre	2023-03-10T00:00:00	2024-11-08T00:00:00	5	Humedad	91
80949	7	Sololá	717	San Juan la Laguna	12	San Juan la Laguna	10	Octubre	2023-03-10T00:00:00	2024-11-08T00:00:00	6	Velocidad del viento	0
80950	7	Sololá	717	San Juan la Laguna	12	San Juan la Laguna	10	Octubre	2023-03-10T00:00:00	2024-11-08T00:00:00	7	Dirección del viento	0
80951	7	Sololá	717	San Juan la Laguna	12	San Juan la Laguna	10	Octubre	2023-03-10T00:00:00	2024-11-08T00:00:00	1	Precipitación	0
80952	7	Sololá	717	San Juan la Laguna	12	San Juan la Laguna	10	Octubre	2023-03-10T00:00:00	2024-11-08T00:00:00	8	Radiación solar	0
80953	7	Sololá	717	San Juan la Laguna	12	San Juan la Laguna	10	Octubre	2023-03-10T00:00:00	2024-11-08T01:00:00	2	Temperatura media	16.8
80954	7	Sololá	717	San Juan la Laguna	12	San Juan la Laguna	10	Octubre	2023-03-10T00:00:00	2024-11-08T01:00:00	4	Temperatura máxima	17.4
80955	7	Sololá	717	San Juan la Laguna	12	San Juan la Laguna	10	Octubre	2023-03-10T00:00:00	2024-11-08T01:00:00	3	Temperatura mínima	16.8
80956	7	Sololá	717	San Juan la Laguna	12	San Juan la Laguna	10	Octubre	2023-03-10T00:00:00	2024-11-08T01:00:00	5	Humedad	91
80957	7	Sololá	717	San Juan la Laguna	12	San Juan la Laguna	10	Octubre	2023-03-10T00:00:00	2024-11-08T01:00:00	6	Velocidad del viento	1.6
80958	7	Sololá	717	San Juan la Laguna	12	San Juan la Laguna	10	Octubre	2023-03-10T00:00:00	2024-11-08T01:00:00	7	Dirección del viento	1.61
80959	7	Sololá	717	San Juan la Laguna	12	San Juan la Laguna	10	Octubre	2023-03-10T00:00:00	2024-11-08T01:00:00	1	Precipitación	0
80960	7	Sololá	717	San Juan la Laguna	12	San Juan la Laguna	10	Octubre	2023-03-10T00:00:00	2024-11-08T01:00:00	8	Radiación solar	0
80961	7	Sololá	717	San Juan la Laguna	12	San Juan la Laguna	10	Octubre	2023-03-10T00:00:00	2024-11-08T02:00:00	2	Temperatura media	16.6
80962	7	Sololá	717	San Juan la Laguna	12	San Juan la Laguna	10	Octubre	2023-03-10T00:00:00	2024-11-08T02:00:00	4	Temperatura máxima	16.8
80963	7	Sololá	717	San Juan la Laguna	12	San Juan la Laguna	10	Octubre	2023-03-10T00:00:00	2024-11-08T02:00:00	3	Temperatura mínima	16.5
80964	7	Sololá	717	San Juan la Laguna	12	San Juan la Laguna	10	Octubre	2023-03-10T00:00:00	2024-11-08T02:00:00	5	Humedad	91
80965	7	Sololá	717	San Juan la Laguna	12	San Juan la Laguna	10	Octubre	2023-03-10T00:00:00	2024-11-08T02:00:00	6	Velocidad del viento	4.8
80966	7	Sololá	717	San Juan la Laguna	12	San Juan la Laguna	10	Octubre	2023-03-10T00:00:00	2024-11-08T02:00:00	7	Dirección del viento	4.83
80967	7	Sololá	717	San Juan la Laguna	12	San Juan la Laguna	10	Octubre	2023-03-10T00:00:00	2024-11-08T02:00:00	1	Precipitación	0
80968	7	Sololá	717	San Juan la Laguna	12	San Juan la Laguna	10	Octubre	2023-03-10T00:00:00	2024-11-08T02:00:00	8	Radiación solar	0
80969	7	Sololá	717	San Juan la Laguna	12	San Juan la Laguna	10	Octubre	2023-03-10T00:00:00	2024-11-08T03:00:00	2	Temperatura media	16.3
80970	7	Sololá	717	San Juan la Laguna	12	San Juan la Laguna	10	Octubre	2023-03-10T00:00:00	2024-11-08T03:00:00	4	Temperatura máxima	16.5
80971	7	Sololá	717	San Juan la Laguna	12	San Juan la Laguna	10	Octubre	2023-03-10T00:00:00	2024-11-08T03:00:00	3	Temperatura mínima	16.3
80972	7	Sololá	717	San Juan la Laguna	12	San Juan la Laguna	10	Octubre	2023-03-10T00:00:00	2024-11-08T03:00:00	5	Humedad	91
80973	7	Sololá	717	San Juan la Laguna	12	San Juan la Laguna	10	Octubre	2023-03-10T00:00:00	2024-11-08T03:00:00	6	Velocidad del viento	4.8
80974	7	Sololá	717	San Juan la Laguna	12	San Juan la Laguna	10	Octubre	2023-03-10T00:00:00	2024-11-08T03:00:00	7	Dirección del viento	4.83
80975	7	Sololá	717	San Juan la Laguna	12	San Juan la Laguna	10	Octubre	2023-03-10T00:00:00	2024-11-08T03:00:00	1	Precipitación	0
80976	7	Sololá	717	San Juan la Laguna	12	San Juan la Laguna	10	Octubre	2023-03-10T00:00:00	2024-11-08T03:00:00	8	Radiación solar	0
80977	7	Sololá	717	San Juan la Laguna	12	San Juan la Laguna	10	Octubre	2023-03-10T00:00:00	2024-11-08T04:00:00	2	Temperatura media	16.2
80978	7	Sololá	717	San Juan la Laguna	12	San Juan la Laguna	10	Octubre	2023-03-10T00:00:00	2024-11-08T04:00:00	4	Temperatura máxima	16.4
80979	7	Sololá	717	San Juan la Laguna	12	San Juan la Laguna	10	Octubre	2023-03-10T00:00:00	2024-11-08T04:00:00	3	Temperatura mínima	16.2
80980	7	Sololá	717	San Juan la Laguna	12	San Juan la Laguna	10	Octubre	2023-03-10T00:00:00	2024-11-08T04:00:00	5	Humedad	90
80981	7	Sololá	717	San Juan la Laguna	12	San Juan la Laguna	10	Octubre	2023-03-10T00:00:00	2024-11-08T04:00:00	6	Velocidad del viento	4.8
80982	7	Sololá	717	San Juan la Laguna	12	San Juan la Laguna	10	Octubre	2023-03-10T00:00:00	2024-11-08T04:00:00	7	Dirección del viento	4.83
80983	7	Sololá	717	San Juan la Laguna	12	San Juan la Laguna	10	Octubre	2023-03-10T00:00:00	2024-11-08T04:00:00	1	Precipitación	0
80984	7	Sololá	717	San Juan la Laguna	12	San Juan la Laguna	10	Octubre	2023-03-10T00:00:00	2024-11-08T04:00:00	8	Radiación solar	0
80985	7	Sololá	717	San Juan la Laguna	12	San Juan la Laguna	10	Octubre	2023-03-10T00:00:00	2024-11-08T05:00:00	2	Temperatura media	15.9
80986	7	Sololá	717	San Juan la Laguna	12	San Juan la Laguna	10	Octubre	2023-03-10T00:00:00	2024-11-08T05:00:00	4	Temperatura máxima	16.2
80987	7	Sololá	717	San Juan la Laguna	12	San Juan la Laguna	10	Octubre	2023-03-10T00:00:00	2024-11-08T05:00:00	3	Temperatura mínima	15.9
80988	7	Sololá	717	San Juan la Laguna	12	San Juan la Laguna	10	Octubre	2023-03-10T00:00:00	2024-11-08T05:00:00	5	Humedad	90
80989	7	Sololá	717	San Juan la Laguna	12	San Juan la Laguna	10	Octubre	2023-03-10T00:00:00	2024-11-08T05:00:00	6	Velocidad del viento	4.8
80990	7	Sololá	717	San Juan la Laguna	12	San Juan la Laguna	10	Octubre	2023-03-10T00:00:00	2024-11-08T05:00:00	7	Dirección del viento	4.83
80991	7	Sololá	717	San Juan la Laguna	12	San Juan la Laguna	10	Octubre	2023-03-10T00:00:00	2024-11-08T05:00:00	1	Precipitación	0
80992	7	Sololá	717	San Juan la Laguna	12	San Juan la Laguna	10	Octubre	2023-03-10T00:00:00	2024-11-08T05:00:00	8	Radiación solar	0
80993	7	Sololá	717	San Juan la Laguna	12	San Juan la Laguna	10	Octubre	2023-03-10T00:00:00	2024-11-08T06:00:00	2	Temperatura media	15.5
80994	7	Sololá	717	San Juan la Laguna	12	San Juan la Laguna	10	Octubre	2023-03-10T00:00:00	2024-11-08T06:00:00	4	Temperatura máxima	15.9
80995	7	Sololá	717	San Juan la Laguna	12	San Juan la Laguna	10	Octubre	2023-03-10T00:00:00	2024-11-08T06:00:00	3	Temperatura mínima	15.4
80996	7	Sololá	717	San Juan la Laguna	12	San Juan la Laguna	10	Octubre	2023-03-10T00:00:00	2024-11-08T06:00:00	5	Humedad	91
80997	7	Sololá	717	San Juan la Laguna	12	San Juan la Laguna	10	Octubre	2023-03-10T00:00:00	2024-11-08T06:00:00	6	Velocidad del viento	3.2
80998	7	Sololá	717	San Juan la Laguna	12	San Juan la Laguna	10	Octubre	2023-03-10T00:00:00	2024-11-08T06:00:00	7	Dirección del viento	3.22
80999	7	Sololá	717	San Juan la Laguna	12	San Juan la Laguna	10	Octubre	2023-03-10T00:00:00	2024-11-08T06:00:00	1	Precipitación	0
81000	7	Sololá	717	San Juan la Laguna	12	San Juan la Laguna	10	Octubre	2023-03-10T00:00:00	2024-11-08T06:00:00	8	Radiación solar	1
81001	7	Sololá	717	San Juan la Laguna	12	San Juan la Laguna	10	Octubre	2023-03-10T00:00:00	2024-11-08T07:00:00	2	Temperatura media	17.4
81002	7	Sololá	717	San Juan la Laguna	12	San Juan la Laguna	10	Octubre	2023-03-10T00:00:00	2024-11-08T07:00:00	4	Temperatura máxima	17.4
81003	7	Sololá	717	San Juan la Laguna	12	San Juan la Laguna	10	Octubre	2023-03-10T00:00:00	2024-11-08T07:00:00	3	Temperatura mínima	15.5
81004	7	Sololá	717	San Juan la Laguna	12	San Juan la Laguna	10	Octubre	2023-03-10T00:00:00	2024-11-08T07:00:00	5	Humedad	90
81005	7	Sololá	717	San Juan la Laguna	12	San Juan la Laguna	10	Octubre	2023-03-10T00:00:00	2024-11-08T07:00:00	6	Velocidad del viento	1.6
81006	7	Sololá	717	San Juan la Laguna	12	San Juan la Laguna	10	Octubre	2023-03-10T00:00:00	2024-11-08T07:00:00	7	Dirección del viento	1.61
81007	7	Sololá	717	San Juan la Laguna	12	San Juan la Laguna	10	Octubre	2023-03-10T00:00:00	2024-11-08T07:00:00	1	Precipitación	0
81008	7	Sololá	717	San Juan la Laguna	12	San Juan la Laguna	10	Octubre	2023-03-10T00:00:00	2024-11-08T07:00:00	8	Radiación solar	72
81009	7	Sololá	717	San Juan la Laguna	12	San Juan la Laguna	10	Octubre	2023-03-10T00:00:00	2024-11-08T08:00:00	2	Temperatura media	20.8
81010	7	Sololá	717	San Juan la Laguna	12	San Juan la Laguna	10	Octubre	2023-03-10T00:00:00	2024-11-08T08:00:00	4	Temperatura máxima	20.8
81011	7	Sololá	717	San Juan la Laguna	12	San Juan la Laguna	10	Octubre	2023-03-10T00:00:00	2024-11-08T08:00:00	3	Temperatura mínima	17.4
81012	7	Sololá	717	San Juan la Laguna	12	San Juan la Laguna	10	Octubre	2023-03-10T00:00:00	2024-11-08T08:00:00	5	Humedad	79
81013	7	Sololá	717	San Juan la Laguna	12	San Juan la Laguna	10	Octubre	2023-03-10T00:00:00	2024-11-08T08:00:00	6	Velocidad del viento	0
81014	7	Sololá	717	San Juan la Laguna	12	San Juan la Laguna	10	Octubre	2023-03-10T00:00:00	2024-11-08T08:00:00	7	Dirección del viento	0
81015	7	Sololá	717	San Juan la Laguna	12	San Juan la Laguna	10	Octubre	2023-03-10T00:00:00	2024-11-08T08:00:00	1	Precipitación	0
81016	7	Sololá	717	San Juan la Laguna	12	San Juan la Laguna	10	Octubre	2023-03-10T00:00:00	2024-11-08T08:00:00	8	Radiación solar	271
81017	7	Sololá	717	San Juan la Laguna	12	San Juan la Laguna	10	Octubre	2023-03-10T00:00:00	2024-11-08T09:00:00	2	Temperatura media	22.8
81018	7	Sololá	717	San Juan la Laguna	12	San Juan la Laguna	10	Octubre	2023-03-10T00:00:00	2024-11-08T09:00:00	4	Temperatura máxima	23.8
81019	7	Sololá	717	San Juan la Laguna	12	San Juan la Laguna	10	Octubre	2023-03-10T00:00:00	2024-11-08T09:00:00	3	Temperatura mínima	20.8
81020	7	Sololá	717	San Juan la Laguna	12	San Juan la Laguna	10	Octubre	2023-03-10T00:00:00	2024-11-08T09:00:00	5	Humedad	70
81021	7	Sololá	717	San Juan la Laguna	12	San Juan la Laguna	10	Octubre	2023-03-10T00:00:00	2024-11-08T09:00:00	6	Velocidad del viento	0
81022	7	Sololá	717	San Juan la Laguna	12	San Juan la Laguna	10	Octubre	2023-03-10T00:00:00	2024-11-08T09:00:00	7	Dirección del viento	0
81023	7	Sololá	717	San Juan la Laguna	12	San Juan la Laguna	10	Octubre	2023-03-10T00:00:00	2024-11-08T09:00:00	1	Precipitación	0
81024	7	Sololá	717	San Juan la Laguna	12	San Juan la Laguna	10	Octubre	2023-03-10T00:00:00	2024-11-08T09:00:00	8	Radiación solar	537
81025	7	Sololá	717	San Juan la Laguna	12	San Juan la Laguna	10	Octubre	2023-03-10T00:00:00	2024-11-08T10:00:00	2	Temperatura media	24.6
81026	7	Sololá	717	San Juan la Laguna	12	San Juan la Laguna	10	Octubre	2023-03-10T00:00:00	2024-11-08T10:00:00	4	Temperatura máxima	24.6
81027	7	Sololá	717	San Juan la Laguna	12	San Juan la Laguna	10	Octubre	2023-03-10T00:00:00	2024-11-08T10:00:00	3	Temperatura mínima	22.8
81028	7	Sololá	717	San Juan la Laguna	12	San Juan la Laguna	10	Octubre	2023-03-10T00:00:00	2024-11-08T10:00:00	5	Humedad	60
81029	7	Sololá	717	San Juan la Laguna	12	San Juan la Laguna	10	Octubre	2023-03-10T00:00:00	2024-11-08T10:00:00	6	Velocidad del viento	3.2
81030	7	Sololá	717	San Juan la Laguna	12	San Juan la Laguna	10	Octubre	2023-03-10T00:00:00	2024-11-08T10:00:00	7	Dirección del viento	3.22
81031	7	Sololá	717	San Juan la Laguna	12	San Juan la Laguna	10	Octubre	2023-03-10T00:00:00	2024-11-08T10:00:00	1	Precipitación	0
81032	7	Sololá	717	San Juan la Laguna	12	San Juan la Laguna	10	Octubre	2023-03-10T00:00:00	2024-11-08T10:00:00	8	Radiación solar	749
81033	7	Sololá	717	San Juan la Laguna	12	San Juan la Laguna	10	Octubre	2023-03-10T00:00:00	2024-11-08T11:00:00	2	Temperatura media	23.8
81034	7	Sololá	717	San Juan la Laguna	12	San Juan la Laguna	10	Octubre	2023-03-10T00:00:00	2024-11-08T11:00:00	4	Temperatura máxima	24.7
81035	7	Sololá	717	San Juan la Laguna	12	San Juan la Laguna	10	Octubre	2023-03-10T00:00:00	2024-11-08T11:00:00	3	Temperatura mínima	23.8
81036	7	Sololá	717	San Juan la Laguna	12	San Juan la Laguna	10	Octubre	2023-03-10T00:00:00	2024-11-08T11:00:00	5	Humedad	65
81037	7	Sololá	717	San Juan la Laguna	12	San Juan la Laguna	10	Octubre	2023-03-10T00:00:00	2024-11-08T11:00:00	6	Velocidad del viento	4.8
81038	7	Sololá	717	San Juan la Laguna	12	San Juan la Laguna	10	Octubre	2023-03-10T00:00:00	2024-11-08T11:00:00	7	Dirección del viento	4.83
81039	7	Sololá	717	San Juan la Laguna	12	San Juan la Laguna	10	Octubre	2023-03-10T00:00:00	2024-11-08T11:00:00	1	Precipitación	0
81040	7	Sololá	717	San Juan la Laguna	12	San Juan la Laguna	10	Octubre	2023-03-10T00:00:00	2024-11-08T11:00:00	8	Radiación solar	640
81041	7	Sololá	717	San Juan la Laguna	12	San Juan la Laguna	10	Octubre	2023-03-10T00:00:00	2024-11-08T12:00:00	2	Temperatura media	24.4
81042	7	Sololá	717	San Juan la Laguna	12	San Juan la Laguna	10	Octubre	2023-03-10T00:00:00	2024-11-08T12:00:00	4	Temperatura máxima	25.4
81043	7	Sololá	717	San Juan la Laguna	12	San Juan la Laguna	10	Octubre	2023-03-10T00:00:00	2024-11-08T12:00:00	3	Temperatura mínima	23.8
81044	7	Sololá	717	San Juan la Laguna	12	San Juan la Laguna	10	Octubre	2023-03-10T00:00:00	2024-11-08T12:00:00	5	Humedad	69
81045	7	Sololá	717	San Juan la Laguna	12	San Juan la Laguna	10	Octubre	2023-03-10T00:00:00	2024-11-08T12:00:00	6	Velocidad del viento	8
81046	7	Sololá	717	San Juan la Laguna	12	San Juan la Laguna	10	Octubre	2023-03-10T00:00:00	2024-11-08T12:00:00	7	Dirección del viento	8.05
81047	7	Sololá	717	San Juan la Laguna	12	San Juan la Laguna	10	Octubre	2023-03-10T00:00:00	2024-11-08T12:00:00	1	Precipitación	0
81048	7	Sololá	717	San Juan la Laguna	12	San Juan la Laguna	10	Octubre	2023-03-10T00:00:00	2024-11-08T12:00:00	8	Radiación solar	948
81049	7	Sololá	717	San Juan la Laguna	12	San Juan la Laguna	10	Octubre	2023-03-10T00:00:00	2024-11-08T13:00:00	2	Temperatura media	24.8
81050	7	Sololá	717	San Juan la Laguna	12	San Juan la Laguna	10	Octubre	2023-03-10T00:00:00	2024-11-08T13:00:00	4	Temperatura máxima	24.9
81051	7	Sololá	717	San Juan la Laguna	12	San Juan la Laguna	10	Octubre	2023-03-10T00:00:00	2024-11-08T13:00:00	3	Temperatura mínima	24.3
81052	7	Sololá	717	San Juan la Laguna	12	San Juan la Laguna	10	Octubre	2023-03-10T00:00:00	2024-11-08T13:00:00	5	Humedad	69
81053	7	Sololá	717	San Juan la Laguna	12	San Juan la Laguna	10	Octubre	2023-03-10T00:00:00	2024-11-08T13:00:00	6	Velocidad del viento	8
81054	7	Sololá	717	San Juan la Laguna	12	San Juan la Laguna	10	Octubre	2023-03-10T00:00:00	2024-11-08T13:00:00	7	Dirección del viento	8.05
81055	7	Sololá	717	San Juan la Laguna	12	San Juan la Laguna	10	Octubre	2023-03-10T00:00:00	2024-11-08T13:00:00	1	Precipitación	0
81056	7	Sololá	717	San Juan la Laguna	12	San Juan la Laguna	10	Octubre	2023-03-10T00:00:00	2024-11-08T13:00:00	8	Radiación solar	950
81057	7	Sololá	717	San Juan la Laguna	12	San Juan la Laguna	10	Octubre	2023-03-10T00:00:00	2024-11-08T14:00:00	2	Temperatura media	25.1
81058	7	Sololá	717	San Juan la Laguna	12	San Juan la Laguna	10	Octubre	2023-03-10T00:00:00	2024-11-08T14:00:00	4	Temperatura máxima	25.6
81059	7	Sololá	717	San Juan la Laguna	12	San Juan la Laguna	10	Octubre	2023-03-10T00:00:00	2024-11-08T14:00:00	3	Temperatura mínima	24.2
81060	7	Sololá	717	San Juan la Laguna	12	San Juan la Laguna	10	Octubre	2023-03-10T00:00:00	2024-11-08T14:00:00	5	Humedad	68
81061	7	Sololá	717	San Juan la Laguna	12	San Juan la Laguna	10	Octubre	2023-03-10T00:00:00	2024-11-08T14:00:00	6	Velocidad del viento	4.8
81062	7	Sololá	717	San Juan la Laguna	12	San Juan la Laguna	10	Octubre	2023-03-10T00:00:00	2024-11-08T14:00:00	7	Dirección del viento	4.83
81063	7	Sololá	717	San Juan la Laguna	12	San Juan la Laguna	10	Octubre	2023-03-10T00:00:00	2024-11-08T14:00:00	1	Precipitación	0
81064	7	Sololá	717	San Juan la Laguna	12	San Juan la Laguna	10	Octubre	2023-03-10T00:00:00	2024-11-08T14:00:00	8	Radiación solar	931
81065	7	Sololá	717	San Juan la Laguna	12	San Juan la Laguna	10	Octubre	2023-03-10T00:00:00	2024-11-08T15:00:00	2	Temperatura media	22.7
81066	7	Sololá	717	San Juan la Laguna	12	San Juan la Laguna	10	Octubre	2023-03-10T00:00:00	2024-11-08T15:00:00	4	Temperatura máxima	25
81067	7	Sololá	717	San Juan la Laguna	12	San Juan la Laguna	10	Octubre	2023-03-10T00:00:00	2024-11-08T15:00:00	3	Temperatura mínima	22.7
81068	7	Sololá	717	San Juan la Laguna	12	San Juan la Laguna	10	Octubre	2023-03-10T00:00:00	2024-11-08T15:00:00	5	Humedad	78
81069	7	Sololá	717	San Juan la Laguna	12	San Juan la Laguna	10	Octubre	2023-03-10T00:00:00	2024-11-08T15:00:00	6	Velocidad del viento	4.8
81070	7	Sololá	717	San Juan la Laguna	12	San Juan la Laguna	10	Octubre	2023-03-10T00:00:00	2024-11-08T15:00:00	7	Dirección del viento	4.83
81071	7	Sololá	717	San Juan la Laguna	12	San Juan la Laguna	10	Octubre	2023-03-10T00:00:00	2024-11-08T15:00:00	1	Precipitación	0
81072	7	Sololá	717	San Juan la Laguna	12	San Juan la Laguna	10	Octubre	2023-03-10T00:00:00	2024-11-08T15:00:00	8	Radiación solar	472
81073	7	Sololá	717	San Juan la Laguna	12	San Juan la Laguna	10	Octubre	2023-03-10T00:00:00	2024-11-08T16:00:00	2	Temperatura media	20.5
81074	7	Sololá	717	San Juan la Laguna	12	San Juan la Laguna	10	Octubre	2023-03-10T00:00:00	2024-11-08T16:00:00	4	Temperatura máxima	22.7
81075	7	Sololá	717	San Juan la Laguna	12	San Juan la Laguna	10	Octubre	2023-03-10T00:00:00	2024-11-08T16:00:00	3	Temperatura mínima	20.5
81076	7	Sololá	717	San Juan la Laguna	12	San Juan la Laguna	10	Octubre	2023-03-10T00:00:00	2024-11-08T16:00:00	5	Humedad	84
81077	7	Sololá	717	San Juan la Laguna	12	San Juan la Laguna	10	Octubre	2023-03-10T00:00:00	2024-11-08T16:00:00	6	Velocidad del viento	6.4
81078	7	Sololá	717	San Juan la Laguna	12	San Juan la Laguna	10	Octubre	2023-03-10T00:00:00	2024-11-08T16:00:00	7	Dirección del viento	6.44
81079	7	Sololá	717	San Juan la Laguna	12	San Juan la Laguna	10	Octubre	2023-03-10T00:00:00	2024-11-08T16:00:00	1	Precipitación	0
81080	7	Sololá	717	San Juan la Laguna	12	San Juan la Laguna	10	Octubre	2023-03-10T00:00:00	2024-11-08T16:00:00	8	Radiación solar	179
81081	7	Sololá	717	San Juan la Laguna	12	San Juan la Laguna	10	Octubre	2023-03-10T00:00:00	2024-11-08T17:00:00	2	Temperatura media	19.3
81082	7	Sololá	717	San Juan la Laguna	12	San Juan la Laguna	10	Octubre	2023-03-10T00:00:00	2024-11-08T17:00:00	4	Temperatura máxima	20.7
81083	7	Sololá	717	San Juan la Laguna	12	San Juan la Laguna	10	Octubre	2023-03-10T00:00:00	2024-11-08T17:00:00	3	Temperatura mínima	19.3
81084	7	Sololá	717	San Juan la Laguna	12	San Juan la Laguna	10	Octubre	2023-03-10T00:00:00	2024-11-08T17:00:00	5	Humedad	89
81085	7	Sololá	717	San Juan la Laguna	12	San Juan la Laguna	10	Octubre	2023-03-10T00:00:00	2024-11-08T17:00:00	6	Velocidad del viento	8
81086	7	Sololá	717	San Juan la Laguna	12	San Juan la Laguna	10	Octubre	2023-03-10T00:00:00	2024-11-08T17:00:00	7	Dirección del viento	8.05
81087	7	Sololá	717	San Juan la Laguna	12	San Juan la Laguna	10	Octubre	2023-03-10T00:00:00	2024-11-08T17:00:00	1	Precipitación	2.8
81088	7	Sololá	717	San Juan la Laguna	12	San Juan la Laguna	10	Octubre	2023-03-10T00:00:00	2024-11-08T17:00:00	8	Radiación solar	42
81089	7	Sololá	717	San Juan la Laguna	12	San Juan la Laguna	10	Octubre	2023-03-10T00:00:00	2024-11-08T18:00:00	2	Temperatura media	18.7
81090	7	Sololá	717	San Juan la Laguna	12	San Juan la Laguna	10	Octubre	2023-03-10T00:00:00	2024-11-08T18:00:00	4	Temperatura máxima	19.3
81091	7	Sololá	717	San Juan la Laguna	12	San Juan la Laguna	10	Octubre	2023-03-10T00:00:00	2024-11-08T18:00:00	3	Temperatura mínima	18.6
81092	7	Sololá	717	San Juan la Laguna	12	San Juan la Laguna	10	Octubre	2023-03-10T00:00:00	2024-11-08T18:00:00	5	Humedad	91
81093	7	Sololá	717	San Juan la Laguna	12	San Juan la Laguna	10	Octubre	2023-03-10T00:00:00	2024-11-08T18:00:00	6	Velocidad del viento	1.6
81094	7	Sololá	717	San Juan la Laguna	12	San Juan la Laguna	10	Octubre	2023-03-10T00:00:00	2024-11-08T18:00:00	7	Dirección del viento	1.61
81095	7	Sololá	717	San Juan la Laguna	12	San Juan la Laguna	10	Octubre	2023-03-10T00:00:00	2024-11-08T18:00:00	1	Precipitación	12.4
81096	7	Sololá	717	San Juan la Laguna	12	San Juan la Laguna	10	Octubre	2023-03-10T00:00:00	2024-11-08T18:00:00	8	Radiación solar	4
81097	7	Sololá	717	San Juan la Laguna	12	San Juan la Laguna	10	Octubre	2023-03-10T00:00:00	2024-11-08T19:00:00	2	Temperatura media	18.3
81098	7	Sololá	717	San Juan la Laguna	12	San Juan la Laguna	10	Octubre	2023-03-10T00:00:00	2024-11-08T19:00:00	4	Temperatura máxima	18.8
81099	7	Sololá	717	San Juan la Laguna	12	San Juan la Laguna	10	Octubre	2023-03-10T00:00:00	2024-11-08T19:00:00	3	Temperatura mínima	18.3
81100	7	Sololá	717	San Juan la Laguna	12	San Juan la Laguna	10	Octubre	2023-03-10T00:00:00	2024-11-08T19:00:00	5	Humedad	90
81101	7	Sololá	717	San Juan la Laguna	12	San Juan la Laguna	10	Octubre	2023-03-10T00:00:00	2024-11-08T19:00:00	6	Velocidad del viento	3.2
81102	7	Sololá	717	San Juan la Laguna	12	San Juan la Laguna	10	Octubre	2023-03-10T00:00:00	2024-11-08T19:00:00	7	Dirección del viento	3.22
81103	7	Sololá	717	San Juan la Laguna	12	San Juan la Laguna	10	Octubre	2023-03-10T00:00:00	2024-11-08T19:00:00	1	Precipitación	0.2
81104	7	Sololá	717	San Juan la Laguna	12	San Juan la Laguna	10	Octubre	2023-03-10T00:00:00	2024-11-08T19:00:00	8	Radiación solar	0
81105	7	Sololá	717	San Juan la Laguna	12	San Juan la Laguna	10	Octubre	2023-03-10T00:00:00	2024-11-08T20:00:00	2	Temperatura media	18.6
81106	7	Sololá	717	San Juan la Laguna	12	San Juan la Laguna	10	Octubre	2023-03-10T00:00:00	2024-11-08T20:00:00	4	Temperatura máxima	18.6
81107	7	Sololá	717	San Juan la Laguna	12	San Juan la Laguna	10	Octubre	2023-03-10T00:00:00	2024-11-08T20:00:00	3	Temperatura mínima	18.3
81108	7	Sololá	717	San Juan la Laguna	12	San Juan la Laguna	10	Octubre	2023-03-10T00:00:00	2024-11-08T20:00:00	5	Humedad	87
81109	7	Sololá	717	San Juan la Laguna	12	San Juan la Laguna	10	Octubre	2023-03-10T00:00:00	2024-11-08T20:00:00	6	Velocidad del viento	4.8
81110	7	Sololá	717	San Juan la Laguna	12	San Juan la Laguna	10	Octubre	2023-03-10T00:00:00	2024-11-08T20:00:00	7	Dirección del viento	4.83
81111	7	Sololá	717	San Juan la Laguna	12	San Juan la Laguna	10	Octubre	2023-03-10T00:00:00	2024-11-08T20:00:00	1	Precipitación	0
81112	7	Sololá	717	San Juan la Laguna	12	San Juan la Laguna	10	Octubre	2023-03-10T00:00:00	2024-11-08T20:00:00	8	Radiación solar	0
81113	7	Sololá	717	San Juan la Laguna	12	San Juan la Laguna	10	Octubre	2023-03-10T00:00:00	2024-11-08T21:00:00	2	Temperatura media	17.7
81114	7	Sololá	717	San Juan la Laguna	12	San Juan la Laguna	10	Octubre	2023-03-10T00:00:00	2024-11-08T21:00:00	4	Temperatura máxima	18.7
81115	7	Sololá	717	San Juan la Laguna	12	San Juan la Laguna	10	Octubre	2023-03-10T00:00:00	2024-11-08T21:00:00	3	Temperatura mínima	17.7
81116	7	Sololá	717	San Juan la Laguna	12	San Juan la Laguna	10	Octubre	2023-03-10T00:00:00	2024-11-08T21:00:00	5	Humedad	91
81117	7	Sololá	717	San Juan la Laguna	12	San Juan la Laguna	10	Octubre	2023-03-10T00:00:00	2024-11-08T21:00:00	6	Velocidad del viento	1.6
81118	7	Sololá	717	San Juan la Laguna	12	San Juan la Laguna	10	Octubre	2023-03-10T00:00:00	2024-11-08T21:00:00	7	Dirección del viento	1.61
81119	7	Sololá	717	San Juan la Laguna	12	San Juan la Laguna	10	Octubre	2023-03-10T00:00:00	2024-11-08T21:00:00	1	Precipitación	3
81120	7	Sololá	717	San Juan la Laguna	12	San Juan la Laguna	10	Octubre	2023-03-10T00:00:00	2024-11-08T21:00:00	8	Radiación solar	0
81121	7	Sololá	717	San Juan la Laguna	12	San Juan la Laguna	10	Octubre	2023-03-10T00:00:00	2024-11-08T22:00:00	2	Temperatura media	17.3
81122	7	Sololá	717	San Juan la Laguna	12	San Juan la Laguna	10	Octubre	2023-03-10T00:00:00	2024-11-08T22:00:00	4	Temperatura máxima	17.7
81123	7	Sololá	717	San Juan la Laguna	12	San Juan la Laguna	10	Octubre	2023-03-10T00:00:00	2024-11-08T22:00:00	3	Temperatura mínima	17.3
81124	7	Sololá	717	San Juan la Laguna	12	San Juan la Laguna	10	Octubre	2023-03-10T00:00:00	2024-11-08T22:00:00	5	Humedad	91
81125	7	Sololá	717	San Juan la Laguna	12	San Juan la Laguna	10	Octubre	2023-03-10T00:00:00	2024-11-08T22:00:00	6	Velocidad del viento	0
81126	7	Sololá	717	San Juan la Laguna	12	San Juan la Laguna	10	Octubre	2023-03-10T00:00:00	2024-11-08T22:00:00	7	Dirección del viento	0
81127	7	Sololá	717	San Juan la Laguna	12	San Juan la Laguna	10	Octubre	2023-03-10T00:00:00	2024-11-08T22:00:00	1	Precipitación	3.2
81128	7	Sololá	717	San Juan la Laguna	12	San Juan la Laguna	10	Octubre	2023-03-10T00:00:00	2024-11-08T22:00:00	8	Radiación solar	0
81129	7	Sololá	717	San Juan la Laguna	12	San Juan la Laguna	10	Octubre	2023-03-10T00:00:00	2024-11-08T23:00:00	2	Temperatura media	17.2
81130	7	Sololá	717	San Juan la Laguna	12	San Juan la Laguna	10	Octubre	2023-03-10T00:00:00	2024-11-08T23:00:00	4	Temperatura máxima	17.3
81131	7	Sololá	717	San Juan la Laguna	12	San Juan la Laguna	10	Octubre	2023-03-10T00:00:00	2024-11-08T23:00:00	3	Temperatura mínima	17.1
81132	7	Sololá	717	San Juan la Laguna	12	San Juan la Laguna	10	Octubre	2023-03-10T00:00:00	2024-11-08T23:00:00	5	Humedad	91
81133	7	Sololá	717	San Juan la Laguna	12	San Juan la Laguna	10	Octubre	2023-03-10T00:00:00	2024-11-08T23:00:00	6	Velocidad del viento	0
81134	7	Sololá	717	San Juan la Laguna	12	San Juan la Laguna	10	Octubre	2023-03-10T00:00:00	2024-11-08T23:00:00	7	Dirección del viento	0
81135	7	Sololá	717	San Juan la Laguna	12	San Juan la Laguna	10	Octubre	2023-03-10T00:00:00	2024-11-08T23:00:00	1	Precipitación	0.2
81136	7	Sololá	717	San Juan la Laguna	12	San Juan la Laguna	10	Octubre	2023-03-10T00:00:00	2024-11-08T23:00:00	8	Radiación solar	0
81137	7	Sololá	717	San Juan la Laguna	12	San Juan la Laguna	10	Octubre	2023-04-10T00:00:00	2024-11-08T00:00:00	2	Temperatura media	17
81138	7	Sololá	717	San Juan la Laguna	12	San Juan la Laguna	10	Octubre	2023-04-10T00:00:00	2024-11-08T00:00:00	4	Temperatura máxima	17.2
81139	7	Sololá	717	San Juan la Laguna	12	San Juan la Laguna	10	Octubre	2023-04-10T00:00:00	2024-11-08T00:00:00	3	Temperatura mínima	16.9
81140	7	Sololá	717	San Juan la Laguna	12	San Juan la Laguna	10	Octubre	2023-04-10T00:00:00	2024-11-08T00:00:00	5	Humedad	91
81141	7	Sololá	717	San Juan la Laguna	12	San Juan la Laguna	10	Octubre	2023-04-10T00:00:00	2024-11-08T00:00:00	6	Velocidad del viento	0
81142	7	Sololá	717	San Juan la Laguna	12	San Juan la Laguna	10	Octubre	2023-04-10T00:00:00	2024-11-08T00:00:00	7	Dirección del viento	0
81143	7	Sololá	717	San Juan la Laguna	12	San Juan la Laguna	10	Octubre	2023-04-10T00:00:00	2024-11-08T00:00:00	1	Precipitación	0
81144	7	Sololá	717	San Juan la Laguna	12	San Juan la Laguna	10	Octubre	2023-04-10T00:00:00	2024-11-08T00:00:00	8	Radiación solar	0
81145	7	Sololá	717	San Juan la Laguna	12	San Juan la Laguna	10	Octubre	2023-04-10T00:00:00	2024-11-08T01:00:00	2	Temperatura media	16.4
81146	7	Sololá	717	San Juan la Laguna	12	San Juan la Laguna	10	Octubre	2023-04-10T00:00:00	2024-11-08T01:00:00	4	Temperatura máxima	17
81147	7	Sololá	717	San Juan la Laguna	12	San Juan la Laguna	10	Octubre	2023-04-10T00:00:00	2024-11-08T01:00:00	3	Temperatura mínima	16.4
81148	7	Sololá	717	San Juan la Laguna	12	San Juan la Laguna	10	Octubre	2023-04-10T00:00:00	2024-11-08T01:00:00	5	Humedad	91
81149	7	Sololá	717	San Juan la Laguna	12	San Juan la Laguna	10	Octubre	2023-04-10T00:00:00	2024-11-08T01:00:00	6	Velocidad del viento	3.2
81150	7	Sololá	717	San Juan la Laguna	12	San Juan la Laguna	10	Octubre	2023-04-10T00:00:00	2024-11-08T01:00:00	7	Dirección del viento	3.22
81151	7	Sololá	717	San Juan la Laguna	12	San Juan la Laguna	10	Octubre	2023-04-10T00:00:00	2024-11-08T01:00:00	1	Precipitación	0
81152	7	Sololá	717	San Juan la Laguna	12	San Juan la Laguna	10	Octubre	2023-04-10T00:00:00	2024-11-08T01:00:00	8	Radiación solar	0
81153	7	Sololá	717	San Juan la Laguna	12	San Juan la Laguna	10	Octubre	2023-04-10T00:00:00	2024-11-08T02:00:00	2	Temperatura media	16
81154	7	Sololá	717	San Juan la Laguna	12	San Juan la Laguna	10	Octubre	2023-04-10T00:00:00	2024-11-08T02:00:00	4	Temperatura máxima	16.5
81155	7	Sololá	717	San Juan la Laguna	12	San Juan la Laguna	10	Octubre	2023-04-10T00:00:00	2024-11-08T02:00:00	3	Temperatura mínima	15.9
81156	7	Sololá	717	San Juan la Laguna	12	San Juan la Laguna	10	Octubre	2023-04-10T00:00:00	2024-11-08T02:00:00	5	Humedad	91
81157	7	Sololá	717	San Juan la Laguna	12	San Juan la Laguna	10	Octubre	2023-04-10T00:00:00	2024-11-08T02:00:00	6	Velocidad del viento	4.8
81158	7	Sololá	717	San Juan la Laguna	12	San Juan la Laguna	10	Octubre	2023-04-10T00:00:00	2024-11-08T02:00:00	7	Dirección del viento	4.83
81159	7	Sololá	717	San Juan la Laguna	12	San Juan la Laguna	10	Octubre	2023-04-10T00:00:00	2024-11-08T02:00:00	1	Precipitación	0
81160	7	Sololá	717	San Juan la Laguna	12	San Juan la Laguna	10	Octubre	2023-04-10T00:00:00	2024-11-08T02:00:00	8	Radiación solar	0
81161	7	Sololá	717	San Juan la Laguna	12	San Juan la Laguna	10	Octubre	2023-04-10T00:00:00	2024-11-08T03:00:00	2	Temperatura media	15.9
81162	7	Sololá	717	San Juan la Laguna	12	San Juan la Laguna	10	Octubre	2023-04-10T00:00:00	2024-11-08T03:00:00	4	Temperatura máxima	16.1
81163	7	Sololá	717	San Juan la Laguna	12	San Juan la Laguna	10	Octubre	2023-04-10T00:00:00	2024-11-08T03:00:00	3	Temperatura mínima	15.8
81164	7	Sololá	717	San Juan la Laguna	12	San Juan la Laguna	10	Octubre	2023-04-10T00:00:00	2024-11-08T03:00:00	5	Humedad	90
81165	7	Sololá	717	San Juan la Laguna	12	San Juan la Laguna	10	Octubre	2023-04-10T00:00:00	2024-11-08T03:00:00	6	Velocidad del viento	3.2
81166	7	Sololá	717	San Juan la Laguna	12	San Juan la Laguna	10	Octubre	2023-04-10T00:00:00	2024-11-08T03:00:00	7	Dirección del viento	3.22
81167	7	Sololá	717	San Juan la Laguna	12	San Juan la Laguna	10	Octubre	2023-04-10T00:00:00	2024-11-08T03:00:00	1	Precipitación	0
81168	7	Sololá	717	San Juan la Laguna	12	San Juan la Laguna	10	Octubre	2023-04-10T00:00:00	2024-11-08T03:00:00	8	Radiación solar	0
81169	7	Sololá	717	San Juan la Laguna	12	San Juan la Laguna	10	Octubre	2023-04-10T00:00:00	2024-11-08T04:00:00	2	Temperatura media	16.1
81170	7	Sololá	717	San Juan la Laguna	12	San Juan la Laguna	10	Octubre	2023-04-10T00:00:00	2024-11-08T04:00:00	4	Temperatura máxima	16.2
81171	7	Sololá	717	San Juan la Laguna	12	San Juan la Laguna	10	Octubre	2023-04-10T00:00:00	2024-11-08T04:00:00	3	Temperatura mínima	15.9
81172	7	Sololá	717	San Juan la Laguna	12	San Juan la Laguna	10	Octubre	2023-04-10T00:00:00	2024-11-08T04:00:00	5	Humedad	90
81173	7	Sololá	717	San Juan la Laguna	12	San Juan la Laguna	10	Octubre	2023-04-10T00:00:00	2024-11-08T04:00:00	6	Velocidad del viento	0
81174	7	Sololá	717	San Juan la Laguna	12	San Juan la Laguna	10	Octubre	2023-04-10T00:00:00	2024-11-08T04:00:00	7	Dirección del viento	0
81175	7	Sololá	717	San Juan la Laguna	12	San Juan la Laguna	10	Octubre	2023-04-10T00:00:00	2024-11-08T04:00:00	1	Precipitación	0
81176	7	Sololá	717	San Juan la Laguna	12	San Juan la Laguna	10	Octubre	2023-04-10T00:00:00	2024-11-08T04:00:00	8	Radiación solar	0
81177	7	Sololá	717	San Juan la Laguna	12	San Juan la Laguna	10	Octubre	2023-04-10T00:00:00	2024-11-08T05:00:00	2	Temperatura media	16.1
81178	7	Sololá	717	San Juan la Laguna	12	San Juan la Laguna	10	Octubre	2023-04-10T00:00:00	2024-11-08T05:00:00	4	Temperatura máxima	16.1
81179	7	Sololá	717	San Juan la Laguna	12	San Juan la Laguna	10	Octubre	2023-04-10T00:00:00	2024-11-08T05:00:00	3	Temperatura mínima	15.8
81180	7	Sololá	717	San Juan la Laguna	12	San Juan la Laguna	10	Octubre	2023-04-10T00:00:00	2024-11-08T05:00:00	5	Humedad	91
81181	7	Sololá	717	San Juan la Laguna	12	San Juan la Laguna	10	Octubre	2023-04-10T00:00:00	2024-11-08T05:00:00	6	Velocidad del viento	3.2
81182	7	Sololá	717	San Juan la Laguna	12	San Juan la Laguna	10	Octubre	2023-04-10T00:00:00	2024-11-08T05:00:00	7	Dirección del viento	3.22
81183	7	Sololá	717	San Juan la Laguna	12	San Juan la Laguna	10	Octubre	2023-04-10T00:00:00	2024-11-08T05:00:00	1	Precipitación	0
81184	7	Sololá	717	San Juan la Laguna	12	San Juan la Laguna	10	Octubre	2023-04-10T00:00:00	2024-11-08T05:00:00	8	Radiación solar	0
81185	7	Sololá	717	San Juan la Laguna	12	San Juan la Laguna	10	Octubre	2023-04-10T00:00:00	2024-11-08T06:00:00	2	Temperatura media	16.1
81186	7	Sololá	717	San Juan la Laguna	12	San Juan la Laguna	10	Octubre	2023-04-10T00:00:00	2024-11-08T06:00:00	4	Temperatura máxima	16.2
81187	7	Sololá	717	San Juan la Laguna	12	San Juan la Laguna	10	Octubre	2023-04-10T00:00:00	2024-11-08T06:00:00	3	Temperatura mínima	15.8
81188	7	Sololá	717	San Juan la Laguna	12	San Juan la Laguna	10	Octubre	2023-04-10T00:00:00	2024-11-08T06:00:00	5	Humedad	90
81189	7	Sololá	717	San Juan la Laguna	12	San Juan la Laguna	10	Octubre	2023-04-10T00:00:00	2024-11-08T06:00:00	6	Velocidad del viento	4.8
81190	7	Sololá	717	San Juan la Laguna	12	San Juan la Laguna	10	Octubre	2023-04-10T00:00:00	2024-11-08T06:00:00	7	Dirección del viento	4.83
81191	7	Sololá	717	San Juan la Laguna	12	San Juan la Laguna	10	Octubre	2023-04-10T00:00:00	2024-11-08T06:00:00	1	Precipitación	0
81192	7	Sololá	717	San Juan la Laguna	12	San Juan la Laguna	10	Octubre	2023-04-10T00:00:00	2024-11-08T06:00:00	8	Radiación solar	0
81193	7	Sololá	717	San Juan la Laguna	12	San Juan la Laguna	10	Octubre	2023-04-10T00:00:00	2024-11-08T07:00:00	2	Temperatura media	17.2
81194	7	Sololá	717	San Juan la Laguna	12	San Juan la Laguna	10	Octubre	2023-04-10T00:00:00	2024-11-08T07:00:00	4	Temperatura máxima	17.2
81195	7	Sololá	717	San Juan la Laguna	12	San Juan la Laguna	10	Octubre	2023-04-10T00:00:00	2024-11-08T07:00:00	3	Temperatura mínima	16.1
81196	7	Sololá	717	San Juan la Laguna	12	San Juan la Laguna	10	Octubre	2023-04-10T00:00:00	2024-11-08T07:00:00	5	Humedad	90
81197	7	Sololá	717	San Juan la Laguna	12	San Juan la Laguna	10	Octubre	2023-04-10T00:00:00	2024-11-08T07:00:00	6	Velocidad del viento	0
81198	7	Sololá	717	San Juan la Laguna	12	San Juan la Laguna	10	Octubre	2023-04-10T00:00:00	2024-11-08T07:00:00	7	Dirección del viento	0
81199	7	Sololá	717	San Juan la Laguna	12	San Juan la Laguna	10	Octubre	2023-04-10T00:00:00	2024-11-08T07:00:00	1	Precipitación	0
81200	7	Sololá	717	San Juan la Laguna	12	San Juan la Laguna	10	Octubre	2023-04-10T00:00:00	2024-11-08T07:00:00	8	Radiación solar	62
81201	7	Sololá	717	San Juan la Laguna	12	San Juan la Laguna	10	Octubre	2023-04-10T00:00:00	2024-11-08T08:00:00	2	Temperatura media	20.2
81202	7	Sololá	717	San Juan la Laguna	12	San Juan la Laguna	10	Octubre	2023-04-10T00:00:00	2024-11-08T08:00:00	4	Temperatura máxima	20.2
81203	7	Sololá	717	San Juan la Laguna	12	San Juan la Laguna	10	Octubre	2023-04-10T00:00:00	2024-11-08T08:00:00	3	Temperatura mínima	17.2
81204	7	Sololá	717	San Juan la Laguna	12	San Juan la Laguna	10	Octubre	2023-04-10T00:00:00	2024-11-08T08:00:00	5	Humedad	83
81205	7	Sololá	717	San Juan la Laguna	12	San Juan la Laguna	10	Octubre	2023-04-10T00:00:00	2024-11-08T08:00:00	6	Velocidad del viento	0
81206	7	Sololá	717	San Juan la Laguna	12	San Juan la Laguna	10	Octubre	2023-04-10T00:00:00	2024-11-08T08:00:00	7	Dirección del viento	0
81207	7	Sololá	717	San Juan la Laguna	12	San Juan la Laguna	10	Octubre	2023-04-10T00:00:00	2024-11-08T08:00:00	1	Precipitación	0
81208	7	Sololá	717	San Juan la Laguna	12	San Juan la Laguna	10	Octubre	2023-04-10T00:00:00	2024-11-08T08:00:00	8	Radiación solar	280
81209	7	Sololá	717	San Juan la Laguna	12	San Juan la Laguna	10	Octubre	2023-04-10T00:00:00	2024-11-08T09:00:00	2	Temperatura media	21.4
81210	7	Sololá	717	San Juan la Laguna	12	San Juan la Laguna	10	Octubre	2023-04-10T00:00:00	2024-11-08T09:00:00	4	Temperatura máxima	21.7
81211	7	Sololá	717	San Juan la Laguna	12	San Juan la Laguna	10	Octubre	2023-04-10T00:00:00	2024-11-08T09:00:00	3	Temperatura mínima	20.2
81212	7	Sololá	717	San Juan la Laguna	12	San Juan la Laguna	10	Octubre	2023-04-10T00:00:00	2024-11-08T09:00:00	5	Humedad	77
81213	7	Sololá	717	San Juan la Laguna	12	San Juan la Laguna	10	Octubre	2023-04-10T00:00:00	2024-11-08T09:00:00	6	Velocidad del viento	3.2
81214	7	Sololá	717	San Juan la Laguna	12	San Juan la Laguna	10	Octubre	2023-04-10T00:00:00	2024-11-08T09:00:00	7	Dirección del viento	3.22
81215	7	Sololá	717	San Juan la Laguna	12	San Juan la Laguna	10	Octubre	2023-04-10T00:00:00	2024-11-08T09:00:00	1	Precipitación	0
81216	7	Sololá	717	San Juan la Laguna	12	San Juan la Laguna	10	Octubre	2023-04-10T00:00:00	2024-11-08T09:00:00	8	Radiación solar	503
81217	7	Sololá	717	San Juan la Laguna	12	San Juan la Laguna	10	Octubre	2023-04-10T00:00:00	2024-11-08T10:00:00	2	Temperatura media	22.9
81218	7	Sololá	717	San Juan la Laguna	12	San Juan la Laguna	10	Octubre	2023-04-10T00:00:00	2024-11-08T10:00:00	4	Temperatura máxima	23.3
81219	7	Sololá	717	San Juan la Laguna	12	San Juan la Laguna	10	Octubre	2023-04-10T00:00:00	2024-11-08T10:00:00	3	Temperatura mínima	21.4
81220	7	Sololá	717	San Juan la Laguna	12	San Juan la Laguna	10	Octubre	2023-04-10T00:00:00	2024-11-08T10:00:00	5	Humedad	68
81221	7	Sololá	717	San Juan la Laguna	12	San Juan la Laguna	10	Octubre	2023-04-10T00:00:00	2024-11-08T10:00:00	6	Velocidad del viento	4.8
81222	7	Sololá	717	San Juan la Laguna	12	San Juan la Laguna	10	Octubre	2023-04-10T00:00:00	2024-11-08T10:00:00	7	Dirección del viento	4.83
81223	7	Sololá	717	San Juan la Laguna	12	San Juan la Laguna	10	Octubre	2023-04-10T00:00:00	2024-11-08T10:00:00	1	Precipitación	0
81224	7	Sololá	717	San Juan la Laguna	12	San Juan la Laguna	10	Octubre	2023-04-10T00:00:00	2024-11-08T10:00:00	8	Radiación solar	674
81225	7	Sololá	717	San Juan la Laguna	12	San Juan la Laguna	10	Octubre	2023-04-10T00:00:00	2024-11-08T11:00:00	2	Temperatura media	24.4
81226	7	Sololá	717	San Juan la Laguna	12	San Juan la Laguna	10	Octubre	2023-04-10T00:00:00	2024-11-08T11:00:00	4	Temperatura máxima	24.7
81227	7	Sololá	717	San Juan la Laguna	12	San Juan la Laguna	10	Octubre	2023-04-10T00:00:00	2024-11-08T11:00:00	3	Temperatura mínima	22.8
81228	7	Sololá	717	San Juan la Laguna	12	San Juan la Laguna	10	Octubre	2023-04-10T00:00:00	2024-11-08T11:00:00	5	Humedad	64
81229	7	Sololá	717	San Juan la Laguna	12	San Juan la Laguna	10	Octubre	2023-04-10T00:00:00	2024-11-08T11:00:00	6	Velocidad del viento	3.2
81230	7	Sololá	717	San Juan la Laguna	12	San Juan la Laguna	10	Octubre	2023-04-10T00:00:00	2024-11-08T11:00:00	7	Dirección del viento	3.22
81231	7	Sololá	717	San Juan la Laguna	12	San Juan la Laguna	10	Octubre	2023-04-10T00:00:00	2024-11-08T11:00:00	1	Precipitación	0
81232	7	Sololá	717	San Juan la Laguna	12	San Juan la Laguna	10	Octubre	2023-04-10T00:00:00	2024-11-08T11:00:00	8	Radiación solar	799
81233	7	Sololá	717	San Juan la Laguna	12	San Juan la Laguna	10	Octubre	2023-04-10T00:00:00	2024-11-08T12:00:00	2	Temperatura media	23.6
81234	7	Sololá	717	San Juan la Laguna	12	San Juan la Laguna	10	Octubre	2023-04-10T00:00:00	2024-11-08T12:00:00	4	Temperatura máxima	25.2
81235	7	Sololá	717	San Juan la Laguna	12	San Juan la Laguna	10	Octubre	2023-04-10T00:00:00	2024-11-08T12:00:00	3	Temperatura mínima	23.2
81236	7	Sololá	717	San Juan la Laguna	12	San Juan la Laguna	10	Octubre	2023-04-10T00:00:00	2024-11-08T12:00:00	5	Humedad	74
81237	7	Sololá	717	San Juan la Laguna	12	San Juan la Laguna	10	Octubre	2023-04-10T00:00:00	2024-11-08T12:00:00	6	Velocidad del viento	6.4
81238	7	Sololá	717	San Juan la Laguna	12	San Juan la Laguna	10	Octubre	2023-04-10T00:00:00	2024-11-08T12:00:00	7	Dirección del viento	6.44
81239	7	Sololá	717	San Juan la Laguna	12	San Juan la Laguna	10	Octubre	2023-04-10T00:00:00	2024-11-08T12:00:00	1	Precipitación	0.2
81240	7	Sololá	717	San Juan la Laguna	12	San Juan la Laguna	10	Octubre	2023-04-10T00:00:00	2024-11-08T12:00:00	8	Radiación solar	704
81241	7	Sololá	717	San Juan la Laguna	12	San Juan la Laguna	10	Octubre	2023-04-10T00:00:00	2024-11-08T13:00:00	2	Temperatura media	24.8
81242	7	Sololá	717	San Juan la Laguna	12	San Juan la Laguna	10	Octubre	2023-04-10T00:00:00	2024-11-08T13:00:00	4	Temperatura máxima	25.2
81243	7	Sololá	717	San Juan la Laguna	12	San Juan la Laguna	10	Octubre	2023-04-10T00:00:00	2024-11-08T13:00:00	3	Temperatura mínima	23.6
81244	7	Sololá	717	San Juan la Laguna	12	San Juan la Laguna	10	Octubre	2023-04-10T00:00:00	2024-11-08T13:00:00	5	Humedad	69
81245	7	Sololá	717	San Juan la Laguna	12	San Juan la Laguna	10	Octubre	2023-04-10T00:00:00	2024-11-08T13:00:00	6	Velocidad del viento	9.7
81246	7	Sololá	717	San Juan la Laguna	12	San Juan la Laguna	10	Octubre	2023-04-10T00:00:00	2024-11-08T13:00:00	7	Dirección del viento	9.66
81247	7	Sololá	717	San Juan la Laguna	12	San Juan la Laguna	10	Octubre	2023-04-10T00:00:00	2024-11-08T13:00:00	1	Precipitación	0
81248	7	Sololá	717	San Juan la Laguna	12	San Juan la Laguna	10	Octubre	2023-04-10T00:00:00	2024-11-08T13:00:00	8	Radiación solar	949
81249	7	Sololá	717	San Juan la Laguna	12	San Juan la Laguna	10	Octubre	2023-04-10T00:00:00	2024-11-08T14:00:00	2	Temperatura media	22.8
81250	7	Sololá	717	San Juan la Laguna	12	San Juan la Laguna	10	Octubre	2023-04-10T00:00:00	2024-11-08T14:00:00	4	Temperatura máxima	24.7
81251	7	Sololá	717	San Juan la Laguna	12	San Juan la Laguna	10	Octubre	2023-04-10T00:00:00	2024-11-08T14:00:00	3	Temperatura mínima	22.8
81252	7	Sololá	717	San Juan la Laguna	12	San Juan la Laguna	10	Octubre	2023-04-10T00:00:00	2024-11-08T14:00:00	5	Humedad	78
81253	7	Sololá	717	San Juan la Laguna	12	San Juan la Laguna	10	Octubre	2023-04-10T00:00:00	2024-11-08T14:00:00	6	Velocidad del viento	3.2
81254	7	Sololá	717	San Juan la Laguna	12	San Juan la Laguna	10	Octubre	2023-04-10T00:00:00	2024-11-08T14:00:00	7	Dirección del viento	3.22
81255	7	Sololá	717	San Juan la Laguna	12	San Juan la Laguna	10	Octubre	2023-04-10T00:00:00	2024-11-08T14:00:00	1	Precipitación	0
81256	7	Sololá	717	San Juan la Laguna	12	San Juan la Laguna	10	Octubre	2023-04-10T00:00:00	2024-11-08T14:00:00	8	Radiación solar	314
81257	7	Sololá	717	San Juan la Laguna	12	San Juan la Laguna	10	Octubre	2023-04-10T00:00:00	2024-11-08T15:00:00	2	Temperatura media	21.8
81258	7	Sololá	717	San Juan la Laguna	12	San Juan la Laguna	10	Octubre	2023-04-10T00:00:00	2024-11-08T15:00:00	4	Temperatura máxima	22.8
81259	7	Sololá	717	San Juan la Laguna	12	San Juan la Laguna	10	Octubre	2023-04-10T00:00:00	2024-11-08T15:00:00	3	Temperatura mínima	21.8
81260	7	Sololá	717	San Juan la Laguna	12	San Juan la Laguna	10	Octubre	2023-04-10T00:00:00	2024-11-08T15:00:00	5	Humedad	81
81261	7	Sololá	717	San Juan la Laguna	12	San Juan la Laguna	10	Octubre	2023-04-10T00:00:00	2024-11-08T15:00:00	6	Velocidad del viento	6.4
81262	7	Sololá	717	San Juan la Laguna	12	San Juan la Laguna	10	Octubre	2023-04-10T00:00:00	2024-11-08T15:00:00	7	Dirección del viento	6.44
81263	7	Sololá	717	San Juan la Laguna	12	San Juan la Laguna	10	Octubre	2023-04-10T00:00:00	2024-11-08T15:00:00	1	Precipitación	0
81264	7	Sololá	717	San Juan la Laguna	12	San Juan la Laguna	10	Octubre	2023-04-10T00:00:00	2024-11-08T15:00:00	8	Radiación solar	161
81265	7	Sololá	717	San Juan la Laguna	12	San Juan la Laguna	10	Octubre	2023-04-10T00:00:00	2024-11-08T16:00:00	2	Temperatura media	20.8
81266	7	Sololá	717	San Juan la Laguna	12	San Juan la Laguna	10	Octubre	2023-04-10T00:00:00	2024-11-08T16:00:00	4	Temperatura máxima	21.8
81267	7	Sololá	717	San Juan la Laguna	12	San Juan la Laguna	10	Octubre	2023-04-10T00:00:00	2024-11-08T16:00:00	3	Temperatura mínima	20.6
81268	7	Sololá	717	San Juan la Laguna	12	San Juan la Laguna	10	Octubre	2023-04-10T00:00:00	2024-11-08T16:00:00	5	Humedad	83
81269	7	Sololá	717	San Juan la Laguna	12	San Juan la Laguna	10	Octubre	2023-04-10T00:00:00	2024-11-08T16:00:00	6	Velocidad del viento	9.7
81270	7	Sololá	717	San Juan la Laguna	12	San Juan la Laguna	10	Octubre	2023-04-10T00:00:00	2024-11-08T16:00:00	7	Dirección del viento	9.66
81271	7	Sololá	717	San Juan la Laguna	12	San Juan la Laguna	10	Octubre	2023-04-10T00:00:00	2024-11-08T16:00:00	1	Precipitación	0
81272	7	Sololá	717	San Juan la Laguna	12	San Juan la Laguna	10	Octubre	2023-04-10T00:00:00	2024-11-08T16:00:00	8	Radiación solar	127
81273	7	Sololá	717	San Juan la Laguna	12	San Juan la Laguna	10	Octubre	2023-04-10T00:00:00	2024-11-08T17:00:00	2	Temperatura media	19.4
81274	7	Sololá	717	San Juan la Laguna	12	San Juan la Laguna	10	Octubre	2023-04-10T00:00:00	2024-11-08T17:00:00	4	Temperatura máxima	20.8
81275	7	Sololá	717	San Juan la Laguna	12	San Juan la Laguna	10	Octubre	2023-04-10T00:00:00	2024-11-08T17:00:00	3	Temperatura mínima	19.4
81276	7	Sololá	717	San Juan la Laguna	12	San Juan la Laguna	10	Octubre	2023-04-10T00:00:00	2024-11-08T17:00:00	5	Humedad	89
81277	7	Sololá	717	San Juan la Laguna	12	San Juan la Laguna	10	Octubre	2023-04-10T00:00:00	2024-11-08T17:00:00	6	Velocidad del viento	1.6
81278	7	Sololá	717	San Juan la Laguna	12	San Juan la Laguna	10	Octubre	2023-04-10T00:00:00	2024-11-08T17:00:00	7	Dirección del viento	1.61
81279	7	Sololá	717	San Juan la Laguna	12	San Juan la Laguna	10	Octubre	2023-04-10T00:00:00	2024-11-08T17:00:00	1	Precipitación	1
81280	7	Sololá	717	San Juan la Laguna	12	San Juan la Laguna	10	Octubre	2023-04-10T00:00:00	2024-11-08T17:00:00	8	Radiación solar	14
81281	7	Sololá	717	San Juan la Laguna	12	San Juan la Laguna	10	Octubre	2023-04-10T00:00:00	2024-11-08T18:00:00	2	Temperatura media	19.1
81282	7	Sololá	717	San Juan la Laguna	12	San Juan la Laguna	10	Octubre	2023-04-10T00:00:00	2024-11-08T18:00:00	4	Temperatura máxima	19.6
81283	7	Sololá	717	San Juan la Laguna	12	San Juan la Laguna	10	Octubre	2023-04-10T00:00:00	2024-11-08T18:00:00	3	Temperatura mínima	19
81284	7	Sololá	717	San Juan la Laguna	12	San Juan la Laguna	10	Octubre	2023-04-10T00:00:00	2024-11-08T18:00:00	5	Humedad	90
81285	7	Sololá	717	San Juan la Laguna	12	San Juan la Laguna	10	Octubre	2023-04-10T00:00:00	2024-11-08T18:00:00	6	Velocidad del viento	1.6
81286	7	Sololá	717	San Juan la Laguna	12	San Juan la Laguna	10	Octubre	2023-04-10T00:00:00	2024-11-08T18:00:00	7	Dirección del viento	1.61
81287	7	Sololá	717	San Juan la Laguna	12	San Juan la Laguna	10	Octubre	2023-04-10T00:00:00	2024-11-08T18:00:00	1	Precipitación	0
81288	7	Sololá	717	San Juan la Laguna	12	San Juan la Laguna	10	Octubre	2023-04-10T00:00:00	2024-11-08T18:00:00	8	Radiación solar	5
81289	7	Sololá	717	San Juan la Laguna	12	San Juan la Laguna	10	Octubre	2023-04-10T00:00:00	2024-11-08T19:00:00	2	Temperatura media	18.8
81290	7	Sololá	717	San Juan la Laguna	12	San Juan la Laguna	10	Octubre	2023-04-10T00:00:00	2024-11-08T19:00:00	4	Temperatura máxima	19.2
81291	7	Sololá	717	San Juan la Laguna	12	San Juan la Laguna	10	Octubre	2023-04-10T00:00:00	2024-11-08T19:00:00	3	Temperatura mínima	18.8
81292	7	Sololá	717	San Juan la Laguna	12	San Juan la Laguna	10	Octubre	2023-04-10T00:00:00	2024-11-08T19:00:00	5	Humedad	90
81293	7	Sololá	717	San Juan la Laguna	12	San Juan la Laguna	10	Octubre	2023-04-10T00:00:00	2024-11-08T19:00:00	6	Velocidad del viento	0
81294	7	Sololá	717	San Juan la Laguna	12	San Juan la Laguna	10	Octubre	2023-04-10T00:00:00	2024-11-08T19:00:00	7	Dirección del viento	0
81295	7	Sololá	717	San Juan la Laguna	12	San Juan la Laguna	10	Octubre	2023-04-10T00:00:00	2024-11-08T19:00:00	1	Precipitación	0
81296	7	Sololá	717	San Juan la Laguna	12	San Juan la Laguna	10	Octubre	2023-04-10T00:00:00	2024-11-08T19:00:00	8	Radiación solar	0
81297	7	Sololá	717	San Juan la Laguna	12	San Juan la Laguna	10	Octubre	2023-04-10T00:00:00	2024-11-08T20:00:00	2	Temperatura media	18.2
81298	7	Sololá	717	San Juan la Laguna	12	San Juan la Laguna	10	Octubre	2023-04-10T00:00:00	2024-11-08T20:00:00	4	Temperatura máxima	18.8
81299	7	Sololá	717	San Juan la Laguna	12	San Juan la Laguna	10	Octubre	2023-04-10T00:00:00	2024-11-08T20:00:00	3	Temperatura mínima	18.2
81300	7	Sololá	717	San Juan la Laguna	12	San Juan la Laguna	10	Octubre	2023-04-10T00:00:00	2024-11-08T20:00:00	5	Humedad	91
81301	7	Sololá	717	San Juan la Laguna	12	San Juan la Laguna	10	Octubre	2023-04-10T00:00:00	2024-11-08T20:00:00	6	Velocidad del viento	0
81302	7	Sololá	717	San Juan la Laguna	12	San Juan la Laguna	10	Octubre	2023-04-10T00:00:00	2024-11-08T20:00:00	7	Dirección del viento	0
81303	7	Sololá	717	San Juan la Laguna	12	San Juan la Laguna	10	Octubre	2023-04-10T00:00:00	2024-11-08T20:00:00	1	Precipitación	0
81304	7	Sololá	717	San Juan la Laguna	12	San Juan la Laguna	10	Octubre	2023-04-10T00:00:00	2024-11-08T20:00:00	8	Radiación solar	0
81305	7	Sololá	717	San Juan la Laguna	12	San Juan la Laguna	10	Octubre	2023-04-10T00:00:00	2024-11-08T21:00:00	2	Temperatura media	18.2
81306	7	Sololá	717	San Juan la Laguna	12	San Juan la Laguna	10	Octubre	2023-04-10T00:00:00	2024-11-08T21:00:00	4	Temperatura máxima	18.3
81307	7	Sololá	717	San Juan la Laguna	12	San Juan la Laguna	10	Octubre	2023-04-10T00:00:00	2024-11-08T21:00:00	3	Temperatura mínima	18.2
81308	7	Sololá	717	San Juan la Laguna	12	San Juan la Laguna	10	Octubre	2023-04-10T00:00:00	2024-11-08T21:00:00	5	Humedad	90
81309	7	Sololá	717	San Juan la Laguna	12	San Juan la Laguna	10	Octubre	2023-04-10T00:00:00	2024-11-08T21:00:00	6	Velocidad del viento	0
81310	7	Sololá	717	San Juan la Laguna	12	San Juan la Laguna	10	Octubre	2023-04-10T00:00:00	2024-11-08T21:00:00	7	Dirección del viento	0
81311	7	Sololá	717	San Juan la Laguna	12	San Juan la Laguna	10	Octubre	2023-04-10T00:00:00	2024-11-08T21:00:00	1	Precipitación	0
81312	7	Sololá	717	San Juan la Laguna	12	San Juan la Laguna	10	Octubre	2023-04-10T00:00:00	2024-11-08T21:00:00	8	Radiación solar	0
81313	7	Sololá	717	San Juan la Laguna	12	San Juan la Laguna	10	Octubre	2023-04-10T00:00:00	2024-11-08T22:00:00	2	Temperatura media	18.4
81314	7	Sololá	717	San Juan la Laguna	12	San Juan la Laguna	10	Octubre	2023-04-10T00:00:00	2024-11-08T22:00:00	4	Temperatura máxima	18.4
81315	7	Sololá	717	San Juan la Laguna	12	San Juan la Laguna	10	Octubre	2023-04-10T00:00:00	2024-11-08T22:00:00	3	Temperatura mínima	18.2
81316	7	Sololá	717	San Juan la Laguna	12	San Juan la Laguna	10	Octubre	2023-04-10T00:00:00	2024-11-08T22:00:00	5	Humedad	90
81317	7	Sololá	717	San Juan la Laguna	12	San Juan la Laguna	10	Octubre	2023-04-10T00:00:00	2024-11-08T22:00:00	6	Velocidad del viento	0
81318	7	Sololá	717	San Juan la Laguna	12	San Juan la Laguna	10	Octubre	2023-04-10T00:00:00	2024-11-08T22:00:00	7	Dirección del viento	0
81319	7	Sololá	717	San Juan la Laguna	12	San Juan la Laguna	10	Octubre	2023-04-10T00:00:00	2024-11-08T22:00:00	1	Precipitación	0
81320	7	Sololá	717	San Juan la Laguna	12	San Juan la Laguna	10	Octubre	2023-04-10T00:00:00	2024-11-08T22:00:00	8	Radiación solar	0
81321	7	Sololá	717	San Juan la Laguna	12	San Juan la Laguna	10	Octubre	2023-04-10T00:00:00	2024-11-08T23:00:00	2	Temperatura media	18.3
81322	7	Sololá	717	San Juan la Laguna	12	San Juan la Laguna	10	Octubre	2023-04-10T00:00:00	2024-11-08T23:00:00	4	Temperatura máxima	18.6
81323	7	Sololá	717	San Juan la Laguna	12	San Juan la Laguna	10	Octubre	2023-04-10T00:00:00	2024-11-08T23:00:00	3	Temperatura mínima	18.3
81324	7	Sololá	717	San Juan la Laguna	12	San Juan la Laguna	10	Octubre	2023-04-10T00:00:00	2024-11-08T23:00:00	5	Humedad	91
81325	7	Sololá	717	San Juan la Laguna	12	San Juan la Laguna	10	Octubre	2023-04-10T00:00:00	2024-11-08T23:00:00	6	Velocidad del viento	0
81326	7	Sololá	717	San Juan la Laguna	12	San Juan la Laguna	10	Octubre	2023-04-10T00:00:00	2024-11-08T23:00:00	7	Dirección del viento	0
81327	7	Sololá	717	San Juan la Laguna	12	San Juan la Laguna	10	Octubre	2023-04-10T00:00:00	2024-11-08T23:00:00	1	Precipitación	0
81328	7	Sololá	717	San Juan la Laguna	12	San Juan la Laguna	10	Octubre	2023-04-10T00:00:00	2024-11-08T23:00:00	8	Radiación solar	0
81329	7	Sololá	717	San Juan la Laguna	12	San Juan la Laguna	10	Octubre	2023-05-10T00:00:00	2024-11-08T00:00:00	2	Temperatura media	17.4
81330	7	Sololá	717	San Juan la Laguna	12	San Juan la Laguna	10	Octubre	2023-05-10T00:00:00	2024-11-08T00:00:00	4	Temperatura máxima	18.3
81331	7	Sololá	717	San Juan la Laguna	12	San Juan la Laguna	10	Octubre	2023-05-10T00:00:00	2024-11-08T00:00:00	3	Temperatura mínima	17.4
81332	7	Sololá	717	San Juan la Laguna	12	San Juan la Laguna	10	Octubre	2023-05-10T00:00:00	2024-11-08T00:00:00	5	Humedad	90
81333	7	Sololá	717	San Juan la Laguna	12	San Juan la Laguna	10	Octubre	2023-05-10T00:00:00	2024-11-08T00:00:00	6	Velocidad del viento	0
81334	7	Sololá	717	San Juan la Laguna	12	San Juan la Laguna	10	Octubre	2023-05-10T00:00:00	2024-11-08T00:00:00	7	Dirección del viento	0
81335	7	Sololá	717	San Juan la Laguna	12	San Juan la Laguna	10	Octubre	2023-05-10T00:00:00	2024-11-08T00:00:00	1	Precipitación	0
81336	7	Sololá	717	San Juan la Laguna	12	San Juan la Laguna	10	Octubre	2023-05-10T00:00:00	2024-11-08T00:00:00	8	Radiación solar	0
81337	7	Sololá	717	San Juan la Laguna	12	San Juan la Laguna	10	Octubre	2023-05-10T00:00:00	2024-11-08T01:00:00	2	Temperatura media	16.8
81338	7	Sololá	717	San Juan la Laguna	12	San Juan la Laguna	10	Octubre	2023-05-10T00:00:00	2024-11-08T01:00:00	4	Temperatura máxima	17.4
81339	7	Sololá	717	San Juan la Laguna	12	San Juan la Laguna	10	Octubre	2023-05-10T00:00:00	2024-11-08T01:00:00	3	Temperatura mínima	16.8
81340	7	Sololá	717	San Juan la Laguna	12	San Juan la Laguna	10	Octubre	2023-05-10T00:00:00	2024-11-08T01:00:00	5	Humedad	90
81341	7	Sololá	717	San Juan la Laguna	12	San Juan la Laguna	10	Octubre	2023-05-10T00:00:00	2024-11-08T01:00:00	6	Velocidad del viento	1.6
81342	7	Sololá	717	San Juan la Laguna	12	San Juan la Laguna	10	Octubre	2023-05-10T00:00:00	2024-11-08T01:00:00	7	Dirección del viento	1.61
81343	7	Sololá	717	San Juan la Laguna	12	San Juan la Laguna	10	Octubre	2023-05-10T00:00:00	2024-11-08T01:00:00	1	Precipitación	0
81344	7	Sololá	717	San Juan la Laguna	12	San Juan la Laguna	10	Octubre	2023-05-10T00:00:00	2024-11-08T01:00:00	8	Radiación solar	0
81345	7	Sololá	717	San Juan la Laguna	12	San Juan la Laguna	10	Octubre	2023-05-10T00:00:00	2024-11-08T02:00:00	2	Temperatura media	16.6
81346	7	Sololá	717	San Juan la Laguna	12	San Juan la Laguna	10	Octubre	2023-05-10T00:00:00	2024-11-08T02:00:00	4	Temperatura máxima	16.9
81347	7	Sololá	717	San Juan la Laguna	12	San Juan la Laguna	10	Octubre	2023-05-10T00:00:00	2024-11-08T02:00:00	3	Temperatura mínima	16.6
81348	7	Sololá	717	San Juan la Laguna	12	San Juan la Laguna	10	Octubre	2023-05-10T00:00:00	2024-11-08T02:00:00	5	Humedad	90
81349	7	Sololá	717	San Juan la Laguna	12	San Juan la Laguna	10	Octubre	2023-05-10T00:00:00	2024-11-08T02:00:00	6	Velocidad del viento	6.4
81350	7	Sololá	717	San Juan la Laguna	12	San Juan la Laguna	10	Octubre	2023-05-10T00:00:00	2024-11-08T02:00:00	7	Dirección del viento	6.44
81351	7	Sololá	717	San Juan la Laguna	12	San Juan la Laguna	10	Octubre	2023-05-10T00:00:00	2024-11-08T02:00:00	1	Precipitación	0
81352	7	Sololá	717	San Juan la Laguna	12	San Juan la Laguna	10	Octubre	2023-05-10T00:00:00	2024-11-08T02:00:00	8	Radiación solar	0
81353	7	Sololá	717	San Juan la Laguna	12	San Juan la Laguna	10	Octubre	2023-05-10T00:00:00	2024-11-08T03:00:00	2	Temperatura media	16.3
81354	7	Sololá	717	San Juan la Laguna	12	San Juan la Laguna	10	Octubre	2023-05-10T00:00:00	2024-11-08T03:00:00	4	Temperatura máxima	16.6
81355	7	Sololá	717	San Juan la Laguna	12	San Juan la Laguna	10	Octubre	2023-05-10T00:00:00	2024-11-08T03:00:00	3	Temperatura mínima	16.3
81356	7	Sololá	717	San Juan la Laguna	12	San Juan la Laguna	10	Octubre	2023-05-10T00:00:00	2024-11-08T03:00:00	5	Humedad	89
81357	7	Sololá	717	San Juan la Laguna	12	San Juan la Laguna	10	Octubre	2023-05-10T00:00:00	2024-11-08T03:00:00	6	Velocidad del viento	3.2
81358	7	Sololá	717	San Juan la Laguna	12	San Juan la Laguna	10	Octubre	2023-05-10T00:00:00	2024-11-08T03:00:00	7	Dirección del viento	3.22
81359	7	Sololá	717	San Juan la Laguna	12	San Juan la Laguna	10	Octubre	2023-05-10T00:00:00	2024-11-08T03:00:00	1	Precipitación	0
81360	7	Sololá	717	San Juan la Laguna	12	San Juan la Laguna	10	Octubre	2023-05-10T00:00:00	2024-11-08T03:00:00	8	Radiación solar	0
81361	7	Sololá	717	San Juan la Laguna	12	San Juan la Laguna	10	Octubre	2023-05-10T00:00:00	2024-11-08T04:00:00	2	Temperatura media	15.9
81362	7	Sololá	717	San Juan la Laguna	12	San Juan la Laguna	10	Octubre	2023-05-10T00:00:00	2024-11-08T04:00:00	4	Temperatura máxima	16.5
81363	7	Sololá	717	San Juan la Laguna	12	San Juan la Laguna	10	Octubre	2023-05-10T00:00:00	2024-11-08T04:00:00	3	Temperatura mínima	15.9
81364	7	Sololá	717	San Juan la Laguna	12	San Juan la Laguna	10	Octubre	2023-05-10T00:00:00	2024-11-08T04:00:00	5	Humedad	90
81365	7	Sololá	717	San Juan la Laguna	12	San Juan la Laguna	10	Octubre	2023-05-10T00:00:00	2024-11-08T04:00:00	6	Velocidad del viento	1.6
81366	7	Sololá	717	San Juan la Laguna	12	San Juan la Laguna	10	Octubre	2023-05-10T00:00:00	2024-11-08T04:00:00	7	Dirección del viento	1.61
81367	7	Sololá	717	San Juan la Laguna	12	San Juan la Laguna	10	Octubre	2023-05-10T00:00:00	2024-11-08T04:00:00	1	Precipitación	0
81368	7	Sololá	717	San Juan la Laguna	12	San Juan la Laguna	10	Octubre	2023-05-10T00:00:00	2024-11-08T04:00:00	8	Radiación solar	0
81369	7	Sololá	717	San Juan la Laguna	12	San Juan la Laguna	10	Octubre	2023-05-10T00:00:00	2024-11-08T05:00:00	2	Temperatura media	15.7
81370	7	Sololá	717	San Juan la Laguna	12	San Juan la Laguna	10	Octubre	2023-05-10T00:00:00	2024-11-08T05:00:00	4	Temperatura máxima	16.1
81371	7	Sololá	717	San Juan la Laguna	12	San Juan la Laguna	10	Octubre	2023-05-10T00:00:00	2024-11-08T05:00:00	3	Temperatura mínima	15.7
81372	7	Sololá	717	San Juan la Laguna	12	San Juan la Laguna	10	Octubre	2023-05-10T00:00:00	2024-11-08T05:00:00	5	Humedad	89
81373	7	Sololá	717	San Juan la Laguna	12	San Juan la Laguna	10	Octubre	2023-05-10T00:00:00	2024-11-08T05:00:00	6	Velocidad del viento	0
81374	7	Sololá	717	San Juan la Laguna	12	San Juan la Laguna	10	Octubre	2023-05-10T00:00:00	2024-11-08T05:00:00	7	Dirección del viento	0
81375	7	Sololá	717	San Juan la Laguna	12	San Juan la Laguna	10	Octubre	2023-05-10T00:00:00	2024-11-08T05:00:00	1	Precipitación	0
81376	7	Sololá	717	San Juan la Laguna	12	San Juan la Laguna	10	Octubre	2023-05-10T00:00:00	2024-11-08T05:00:00	8	Radiación solar	0
81377	7	Sololá	717	San Juan la Laguna	12	San Juan la Laguna	10	Octubre	2023-05-10T00:00:00	2024-11-08T06:00:00	2	Temperatura media	15.9
81378	7	Sololá	717	San Juan la Laguna	12	San Juan la Laguna	10	Octubre	2023-05-10T00:00:00	2024-11-08T06:00:00	4	Temperatura máxima	16
81379	7	Sololá	717	San Juan la Laguna	12	San Juan la Laguna	10	Octubre	2023-05-10T00:00:00	2024-11-08T06:00:00	3	Temperatura mínima	15.6
81380	7	Sololá	717	San Juan la Laguna	12	San Juan la Laguna	10	Octubre	2023-05-10T00:00:00	2024-11-08T06:00:00	5	Humedad	88
81381	7	Sololá	717	San Juan la Laguna	12	San Juan la Laguna	10	Octubre	2023-05-10T00:00:00	2024-11-08T06:00:00	6	Velocidad del viento	0
81382	7	Sololá	717	San Juan la Laguna	12	San Juan la Laguna	10	Octubre	2023-05-10T00:00:00	2024-11-08T06:00:00	7	Dirección del viento	0
81383	7	Sololá	717	San Juan la Laguna	12	San Juan la Laguna	10	Octubre	2023-05-10T00:00:00	2024-11-08T06:00:00	1	Precipitación	0
81384	7	Sololá	717	San Juan la Laguna	12	San Juan la Laguna	10	Octubre	2023-05-10T00:00:00	2024-11-08T06:00:00	8	Radiación solar	0
81385	7	Sololá	717	San Juan la Laguna	12	San Juan la Laguna	10	Octubre	2023-05-10T00:00:00	2024-11-08T07:00:00	2	Temperatura media	17.3
81386	7	Sololá	717	San Juan la Laguna	12	San Juan la Laguna	10	Octubre	2023-05-10T00:00:00	2024-11-08T07:00:00	4	Temperatura máxima	17.3
81387	7	Sololá	717	San Juan la Laguna	12	San Juan la Laguna	10	Octubre	2023-05-10T00:00:00	2024-11-08T07:00:00	3	Temperatura mínima	15.7
81388	7	Sololá	717	San Juan la Laguna	12	San Juan la Laguna	10	Octubre	2023-05-10T00:00:00	2024-11-08T07:00:00	5	Humedad	87
81389	7	Sololá	717	San Juan la Laguna	12	San Juan la Laguna	10	Octubre	2023-05-10T00:00:00	2024-11-08T07:00:00	6	Velocidad del viento	0
81390	7	Sololá	717	San Juan la Laguna	12	San Juan la Laguna	10	Octubre	2023-05-10T00:00:00	2024-11-08T07:00:00	7	Dirección del viento	0
81391	7	Sololá	717	San Juan la Laguna	12	San Juan la Laguna	10	Octubre	2023-05-10T00:00:00	2024-11-08T07:00:00	1	Precipitación	0
81392	7	Sololá	717	San Juan la Laguna	12	San Juan la Laguna	10	Octubre	2023-05-10T00:00:00	2024-11-08T07:00:00	8	Radiación solar	62
81393	7	Sololá	717	San Juan la Laguna	12	San Juan la Laguna	10	Octubre	2023-05-10T00:00:00	2024-11-08T08:00:00	2	Temperatura media	20.9
81394	7	Sololá	717	San Juan la Laguna	12	San Juan la Laguna	10	Octubre	2023-05-10T00:00:00	2024-11-08T08:00:00	4	Temperatura máxima	20.9
81395	7	Sololá	717	San Juan la Laguna	12	San Juan la Laguna	10	Octubre	2023-05-10T00:00:00	2024-11-08T08:00:00	3	Temperatura mínima	17.3
81396	7	Sololá	717	San Juan la Laguna	12	San Juan la Laguna	10	Octubre	2023-05-10T00:00:00	2024-11-08T08:00:00	5	Humedad	76
81397	7	Sololá	717	San Juan la Laguna	12	San Juan la Laguna	10	Octubre	2023-05-10T00:00:00	2024-11-08T08:00:00	6	Velocidad del viento	0
81398	7	Sololá	717	San Juan la Laguna	12	San Juan la Laguna	10	Octubre	2023-05-10T00:00:00	2024-11-08T08:00:00	7	Dirección del viento	0
81399	7	Sololá	717	San Juan la Laguna	12	San Juan la Laguna	10	Octubre	2023-05-10T00:00:00	2024-11-08T08:00:00	1	Precipitación	0
81400	7	Sololá	717	San Juan la Laguna	12	San Juan la Laguna	10	Octubre	2023-05-10T00:00:00	2024-11-08T08:00:00	8	Radiación solar	281
81401	7	Sololá	717	San Juan la Laguna	12	San Juan la Laguna	10	Octubre	2023-05-10T00:00:00	2024-11-08T09:00:00	2	Temperatura media	22.4
81402	7	Sololá	717	San Juan la Laguna	12	San Juan la Laguna	10	Octubre	2023-05-10T00:00:00	2024-11-08T09:00:00	4	Temperatura máxima	22.7
81403	7	Sololá	717	San Juan la Laguna	12	San Juan la Laguna	10	Octubre	2023-05-10T00:00:00	2024-11-08T09:00:00	3	Temperatura mínima	21
81404	7	Sololá	717	San Juan la Laguna	12	San Juan la Laguna	10	Octubre	2023-05-10T00:00:00	2024-11-08T09:00:00	5	Humedad	71
81405	7	Sololá	717	San Juan la Laguna	12	San Juan la Laguna	10	Octubre	2023-05-10T00:00:00	2024-11-08T09:00:00	6	Velocidad del viento	3.2
81406	7	Sololá	717	San Juan la Laguna	12	San Juan la Laguna	10	Octubre	2023-05-10T00:00:00	2024-11-08T09:00:00	7	Dirección del viento	3.22
81407	7	Sololá	717	San Juan la Laguna	12	San Juan la Laguna	10	Octubre	2023-05-10T00:00:00	2024-11-08T09:00:00	1	Precipitación	0
81408	7	Sololá	717	San Juan la Laguna	12	San Juan la Laguna	10	Octubre	2023-05-10T00:00:00	2024-11-08T09:00:00	8	Radiación solar	512
81409	7	Sololá	717	San Juan la Laguna	12	San Juan la Laguna	10	Octubre	2023-05-10T00:00:00	2024-11-08T10:00:00	2	Temperatura media	24.5
81410	7	Sololá	717	San Juan la Laguna	12	San Juan la Laguna	10	Octubre	2023-05-10T00:00:00	2024-11-08T10:00:00	4	Temperatura máxima	24.5
81411	7	Sololá	717	San Juan la Laguna	12	San Juan la Laguna	10	Octubre	2023-05-10T00:00:00	2024-11-08T10:00:00	3	Temperatura mínima	22.4
81412	7	Sololá	717	San Juan la Laguna	12	San Juan la Laguna	10	Octubre	2023-05-10T00:00:00	2024-11-08T10:00:00	5	Humedad	60
81413	7	Sololá	717	San Juan la Laguna	12	San Juan la Laguna	10	Octubre	2023-05-10T00:00:00	2024-11-08T10:00:00	6	Velocidad del viento	0
81414	7	Sololá	717	San Juan la Laguna	12	San Juan la Laguna	10	Octubre	2023-05-10T00:00:00	2024-11-08T10:00:00	7	Dirección del viento	0
81415	7	Sololá	717	San Juan la Laguna	12	San Juan la Laguna	10	Octubre	2023-05-10T00:00:00	2024-11-08T10:00:00	1	Precipitación	0
81416	7	Sololá	717	San Juan la Laguna	12	San Juan la Laguna	10	Octubre	2023-05-10T00:00:00	2024-11-08T10:00:00	8	Radiación solar	689
81417	7	Sololá	717	San Juan la Laguna	12	San Juan la Laguna	10	Octubre	2023-05-10T00:00:00	2024-11-08T11:00:00	2	Temperatura media	24.4
81418	7	Sololá	717	San Juan la Laguna	12	San Juan la Laguna	10	Octubre	2023-05-10T00:00:00	2024-11-08T11:00:00	4	Temperatura máxima	24.9
81419	7	Sololá	717	San Juan la Laguna	12	San Juan la Laguna	10	Octubre	2023-05-10T00:00:00	2024-11-08T11:00:00	3	Temperatura mínima	24.1
81420	7	Sololá	717	San Juan la Laguna	12	San Juan la Laguna	10	Octubre	2023-05-10T00:00:00	2024-11-08T11:00:00	5	Humedad	68
81421	7	Sololá	717	San Juan la Laguna	12	San Juan la Laguna	10	Octubre	2023-05-10T00:00:00	2024-11-08T11:00:00	6	Velocidad del viento	1.6
81422	7	Sololá	717	San Juan la Laguna	12	San Juan la Laguna	10	Octubre	2023-05-10T00:00:00	2024-11-08T11:00:00	7	Dirección del viento	1.61
81423	7	Sololá	717	San Juan la Laguna	12	San Juan la Laguna	10	Octubre	2023-05-10T00:00:00	2024-11-08T11:00:00	1	Precipitación	0
81424	7	Sololá	717	San Juan la Laguna	12	San Juan la Laguna	10	Octubre	2023-05-10T00:00:00	2024-11-08T11:00:00	8	Radiación solar	791
81425	7	Sololá	717	San Juan la Laguna	12	San Juan la Laguna	10	Octubre	2023-05-10T00:00:00	2024-11-08T12:00:00	2	Temperatura media	24.6
81426	7	Sololá	717	San Juan la Laguna	12	San Juan la Laguna	10	Octubre	2023-05-10T00:00:00	2024-11-08T12:00:00	4	Temperatura máxima	24.8
81427	7	Sololá	717	San Juan la Laguna	12	San Juan la Laguna	10	Octubre	2023-05-10T00:00:00	2024-11-08T12:00:00	3	Temperatura mínima	23.9
81428	7	Sololá	717	San Juan la Laguna	12	San Juan la Laguna	10	Octubre	2023-05-10T00:00:00	2024-11-08T12:00:00	5	Humedad	70
81429	7	Sololá	717	San Juan la Laguna	12	San Juan la Laguna	10	Octubre	2023-05-10T00:00:00	2024-11-08T12:00:00	6	Velocidad del viento	0
81430	7	Sololá	717	San Juan la Laguna	12	San Juan la Laguna	10	Octubre	2023-05-10T00:00:00	2024-11-08T12:00:00	7	Dirección del viento	0
81431	7	Sololá	717	San Juan la Laguna	12	San Juan la Laguna	10	Octubre	2023-05-10T00:00:00	2024-11-08T12:00:00	1	Precipitación	0
81432	7	Sololá	717	San Juan la Laguna	12	San Juan la Laguna	10	Octubre	2023-05-10T00:00:00	2024-11-08T12:00:00	8	Radiación solar	840
81433	7	Sololá	717	San Juan la Laguna	12	San Juan la Laguna	10	Octubre	2023-05-10T00:00:00	2024-11-08T13:00:00	2	Temperatura media	24.7
81434	7	Sololá	717	San Juan la Laguna	12	San Juan la Laguna	10	Octubre	2023-05-10T00:00:00	2024-11-08T13:00:00	4	Temperatura máxima	24.7
81435	7	Sololá	717	San Juan la Laguna	12	San Juan la Laguna	10	Octubre	2023-05-10T00:00:00	2024-11-08T13:00:00	3	Temperatura mínima	24.1
81436	7	Sololá	717	San Juan la Laguna	12	San Juan la Laguna	10	Octubre	2023-05-10T00:00:00	2024-11-08T13:00:00	5	Humedad	72
81437	7	Sololá	717	San Juan la Laguna	12	San Juan la Laguna	10	Octubre	2023-05-10T00:00:00	2024-11-08T13:00:00	6	Velocidad del viento	0
81438	7	Sololá	717	San Juan la Laguna	12	San Juan la Laguna	10	Octubre	2023-05-10T00:00:00	2024-11-08T13:00:00	7	Dirección del viento	0
81439	7	Sololá	717	San Juan la Laguna	12	San Juan la Laguna	10	Octubre	2023-05-10T00:00:00	2024-11-08T13:00:00	1	Precipitación	0
81440	7	Sololá	717	San Juan la Laguna	12	San Juan la Laguna	10	Octubre	2023-05-10T00:00:00	2024-11-08T13:00:00	8	Radiación solar	869
81441	7	Sololá	717	San Juan la Laguna	12	San Juan la Laguna	10	Octubre	2023-05-10T00:00:00	2024-11-08T14:00:00	2	Temperatura media	24.6
81442	7	Sololá	717	San Juan la Laguna	12	San Juan la Laguna	10	Octubre	2023-05-10T00:00:00	2024-11-08T14:00:00	4	Temperatura máxima	24.8
81443	7	Sololá	717	San Juan la Laguna	12	San Juan la Laguna	10	Octubre	2023-05-10T00:00:00	2024-11-08T14:00:00	3	Temperatura mínima	23.1
81444	7	Sololá	717	San Juan la Laguna	12	San Juan la Laguna	10	Octubre	2023-05-10T00:00:00	2024-11-08T14:00:00	5	Humedad	73
81445	7	Sololá	717	San Juan la Laguna	12	San Juan la Laguna	10	Octubre	2023-05-10T00:00:00	2024-11-08T14:00:00	6	Velocidad del viento	3.2
81446	7	Sololá	717	San Juan la Laguna	12	San Juan la Laguna	10	Octubre	2023-05-10T00:00:00	2024-11-08T14:00:00	7	Dirección del viento	3.22
81447	7	Sololá	717	San Juan la Laguna	12	San Juan la Laguna	10	Octubre	2023-05-10T00:00:00	2024-11-08T14:00:00	1	Precipitación	0
81448	7	Sololá	717	San Juan la Laguna	12	San Juan la Laguna	10	Octubre	2023-05-10T00:00:00	2024-11-08T14:00:00	8	Radiación solar	549
81449	7	Sololá	717	San Juan la Laguna	12	San Juan la Laguna	10	Octubre	2023-05-10T00:00:00	2024-11-08T15:00:00	2	Temperatura media	23.9
81450	7	Sololá	717	San Juan la Laguna	12	San Juan la Laguna	10	Octubre	2023-05-10T00:00:00	2024-11-08T15:00:00	4	Temperatura máxima	24.9
81451	7	Sololá	717	San Juan la Laguna	12	San Juan la Laguna	10	Octubre	2023-05-10T00:00:00	2024-11-08T15:00:00	3	Temperatura mínima	23.9
81452	7	Sololá	717	San Juan la Laguna	12	San Juan la Laguna	10	Octubre	2023-05-10T00:00:00	2024-11-08T15:00:00	5	Humedad	74
81453	7	Sololá	717	San Juan la Laguna	12	San Juan la Laguna	10	Octubre	2023-05-10T00:00:00	2024-11-08T15:00:00	6	Velocidad del viento	0
81454	7	Sololá	717	San Juan la Laguna	12	San Juan la Laguna	10	Octubre	2023-05-10T00:00:00	2024-11-08T15:00:00	7	Dirección del viento	0
81455	7	Sololá	717	San Juan la Laguna	12	San Juan la Laguna	10	Octubre	2023-05-10T00:00:00	2024-11-08T15:00:00	1	Precipitación	0
81456	7	Sololá	717	San Juan la Laguna	12	San Juan la Laguna	10	Octubre	2023-05-10T00:00:00	2024-11-08T15:00:00	8	Radiación solar	609
81457	7	Sololá	717	San Juan la Laguna	12	San Juan la Laguna	10	Octubre	2023-05-10T00:00:00	2024-11-08T16:00:00	2	Temperatura media	23.5
81458	7	Sololá	717	San Juan la Laguna	12	San Juan la Laguna	10	Octubre	2023-05-10T00:00:00	2024-11-08T16:00:00	4	Temperatura máxima	23.9
81459	7	Sololá	717	San Juan la Laguna	12	San Juan la Laguna	10	Octubre	2023-05-10T00:00:00	2024-11-08T16:00:00	3	Temperatura mínima	22.9
81460	7	Sololá	717	San Juan la Laguna	12	San Juan la Laguna	10	Octubre	2023-05-10T00:00:00	2024-11-08T16:00:00	5	Humedad	75
81461	7	Sololá	717	San Juan la Laguna	12	San Juan la Laguna	10	Octubre	2023-05-10T00:00:00	2024-11-08T16:00:00	6	Velocidad del viento	0
81462	7	Sololá	717	San Juan la Laguna	12	San Juan la Laguna	10	Octubre	2023-05-10T00:00:00	2024-11-08T16:00:00	7	Dirección del viento	0
81463	7	Sololá	717	San Juan la Laguna	12	San Juan la Laguna	10	Octubre	2023-05-10T00:00:00	2024-11-08T16:00:00	1	Precipitación	0
81464	7	Sololá	717	San Juan la Laguna	12	San Juan la Laguna	10	Octubre	2023-05-10T00:00:00	2024-11-08T16:00:00	8	Radiación solar	230
81465	7	Sololá	717	San Juan la Laguna	12	San Juan la Laguna	10	Octubre	2023-05-10T00:00:00	2024-11-08T17:00:00	2	Temperatura media	21.8
81466	7	Sololá	717	San Juan la Laguna	12	San Juan la Laguna	10	Octubre	2023-05-10T00:00:00	2024-11-08T17:00:00	4	Temperatura máxima	23.4
81467	7	Sololá	717	San Juan la Laguna	12	San Juan la Laguna	10	Octubre	2023-05-10T00:00:00	2024-11-08T17:00:00	3	Temperatura mínima	21.8
81468	7	Sololá	717	San Juan la Laguna	12	San Juan la Laguna	10	Octubre	2023-05-10T00:00:00	2024-11-08T17:00:00	5	Humedad	81
81469	7	Sololá	717	San Juan la Laguna	12	San Juan la Laguna	10	Octubre	2023-05-10T00:00:00	2024-11-08T17:00:00	6	Velocidad del viento	0
81470	7	Sololá	717	San Juan la Laguna	12	San Juan la Laguna	10	Octubre	2023-05-10T00:00:00	2024-11-08T17:00:00	7	Dirección del viento	0
81471	7	Sololá	717	San Juan la Laguna	12	San Juan la Laguna	10	Octubre	2023-05-10T00:00:00	2024-11-08T17:00:00	1	Precipitación	0
81472	7	Sololá	717	San Juan la Laguna	12	San Juan la Laguna	10	Octubre	2023-05-10T00:00:00	2024-11-08T17:00:00	8	Radiación solar	52
81473	7	Sololá	717	San Juan la Laguna	12	San Juan la Laguna	10	Octubre	2023-05-10T00:00:00	2024-11-08T18:00:00	2	Temperatura media	21.2
81474	7	Sololá	717	San Juan la Laguna	12	San Juan la Laguna	10	Octubre	2023-05-10T00:00:00	2024-11-08T18:00:00	4	Temperatura máxima	21.8
81475	7	Sololá	717	San Juan la Laguna	12	San Juan la Laguna	10	Octubre	2023-05-10T00:00:00	2024-11-08T18:00:00	3	Temperatura mínima	21.2
81476	7	Sololá	717	San Juan la Laguna	12	San Juan la Laguna	10	Octubre	2023-05-10T00:00:00	2024-11-08T18:00:00	5	Humedad	77
81477	7	Sololá	717	San Juan la Laguna	12	San Juan la Laguna	10	Octubre	2023-05-10T00:00:00	2024-11-08T18:00:00	6	Velocidad del viento	1.6
81478	7	Sololá	717	San Juan la Laguna	12	San Juan la Laguna	10	Octubre	2023-05-10T00:00:00	2024-11-08T18:00:00	7	Dirección del viento	1.61
81479	7	Sololá	717	San Juan la Laguna	12	San Juan la Laguna	10	Octubre	2023-05-10T00:00:00	2024-11-08T18:00:00	1	Precipitación	0
81480	7	Sololá	717	San Juan la Laguna	12	San Juan la Laguna	10	Octubre	2023-05-10T00:00:00	2024-11-08T18:00:00	8	Radiación solar	2
81481	7	Sololá	717	San Juan la Laguna	12	San Juan la Laguna	10	Octubre	2023-05-10T00:00:00	2024-11-08T19:00:00	2	Temperatura media	19.9
81482	7	Sololá	717	San Juan la Laguna	12	San Juan la Laguna	10	Octubre	2023-05-10T00:00:00	2024-11-08T19:00:00	4	Temperatura máxima	21.2
81483	7	Sololá	717	San Juan la Laguna	12	San Juan la Laguna	10	Octubre	2023-05-10T00:00:00	2024-11-08T19:00:00	3	Temperatura mínima	19.9
81484	7	Sololá	717	San Juan la Laguna	12	San Juan la Laguna	10	Octubre	2023-05-10T00:00:00	2024-11-08T19:00:00	5	Humedad	84
81485	7	Sololá	717	San Juan la Laguna	12	San Juan la Laguna	10	Octubre	2023-05-10T00:00:00	2024-11-08T19:00:00	6	Velocidad del viento	9.7
81486	7	Sololá	717	San Juan la Laguna	12	San Juan la Laguna	10	Octubre	2023-05-10T00:00:00	2024-11-08T19:00:00	7	Dirección del viento	9.66
81487	7	Sololá	717	San Juan la Laguna	12	San Juan la Laguna	10	Octubre	2023-05-10T00:00:00	2024-11-08T19:00:00	1	Precipitación	0
81488	7	Sololá	717	San Juan la Laguna	12	San Juan la Laguna	10	Octubre	2023-05-10T00:00:00	2024-11-08T19:00:00	8	Radiación solar	0
81489	7	Sololá	717	San Juan la Laguna	12	San Juan la Laguna	10	Octubre	2023-05-10T00:00:00	2024-11-08T20:00:00	2	Temperatura media	18.8
81490	7	Sololá	717	San Juan la Laguna	12	San Juan la Laguna	10	Octubre	2023-05-10T00:00:00	2024-11-08T20:00:00	4	Temperatura máxima	19.9
81491	7	Sololá	717	San Juan la Laguna	12	San Juan la Laguna	10	Octubre	2023-05-10T00:00:00	2024-11-08T20:00:00	3	Temperatura mínima	18.7
81492	7	Sololá	717	San Juan la Laguna	12	San Juan la Laguna	10	Octubre	2023-05-10T00:00:00	2024-11-08T20:00:00	5	Humedad	87
81493	7	Sololá	717	San Juan la Laguna	12	San Juan la Laguna	10	Octubre	2023-05-10T00:00:00	2024-11-08T20:00:00	6	Velocidad del viento	0
81494	7	Sololá	717	San Juan la Laguna	12	San Juan la Laguna	10	Octubre	2023-05-10T00:00:00	2024-11-08T20:00:00	7	Dirección del viento	0
81495	7	Sololá	717	San Juan la Laguna	12	San Juan la Laguna	10	Octubre	2023-05-10T00:00:00	2024-11-08T20:00:00	1	Precipitación	0
81496	7	Sololá	717	San Juan la Laguna	12	San Juan la Laguna	10	Octubre	2023-05-10T00:00:00	2024-11-08T20:00:00	8	Radiación solar	0
81497	7	Sololá	717	San Juan la Laguna	12	San Juan la Laguna	10	Octubre	2023-05-10T00:00:00	2024-11-08T21:00:00	2	Temperatura media	18.3
81498	7	Sololá	717	San Juan la Laguna	12	San Juan la Laguna	10	Octubre	2023-05-10T00:00:00	2024-11-08T21:00:00	4	Temperatura máxima	18.8
81499	7	Sololá	717	San Juan la Laguna	12	San Juan la Laguna	10	Octubre	2023-05-10T00:00:00	2024-11-08T21:00:00	3	Temperatura mínima	18.3
81500	7	Sololá	717	San Juan la Laguna	12	San Juan la Laguna	10	Octubre	2023-05-10T00:00:00	2024-11-08T21:00:00	5	Humedad	86
81501	7	Sololá	717	San Juan la Laguna	12	San Juan la Laguna	10	Octubre	2023-05-10T00:00:00	2024-11-08T21:00:00	6	Velocidad del viento	1.6
81502	7	Sololá	717	San Juan la Laguna	12	San Juan la Laguna	10	Octubre	2023-05-10T00:00:00	2024-11-08T21:00:00	7	Dirección del viento	1.61
81503	7	Sololá	717	San Juan la Laguna	12	San Juan la Laguna	10	Octubre	2023-05-10T00:00:00	2024-11-08T21:00:00	1	Precipitación	0
81504	7	Sololá	717	San Juan la Laguna	12	San Juan la Laguna	10	Octubre	2023-05-10T00:00:00	2024-11-08T21:00:00	8	Radiación solar	0
81505	7	Sololá	717	San Juan la Laguna	12	San Juan la Laguna	10	Octubre	2023-05-10T00:00:00	2024-11-08T22:00:00	2	Temperatura media	17.6
81506	7	Sololá	717	San Juan la Laguna	12	San Juan la Laguna	10	Octubre	2023-05-10T00:00:00	2024-11-08T22:00:00	4	Temperatura máxima	18.5
81507	7	Sololá	717	San Juan la Laguna	12	San Juan la Laguna	10	Octubre	2023-05-10T00:00:00	2024-11-08T22:00:00	3	Temperatura mínima	17.6
81508	7	Sololá	717	San Juan la Laguna	12	San Juan la Laguna	10	Octubre	2023-05-10T00:00:00	2024-11-08T22:00:00	5	Humedad	87
81509	7	Sololá	717	San Juan la Laguna	12	San Juan la Laguna	10	Octubre	2023-05-10T00:00:00	2024-11-08T22:00:00	6	Velocidad del viento	0
81510	7	Sololá	717	San Juan la Laguna	12	San Juan la Laguna	10	Octubre	2023-05-10T00:00:00	2024-11-08T22:00:00	7	Dirección del viento	0
81511	7	Sololá	717	San Juan la Laguna	12	San Juan la Laguna	10	Octubre	2023-05-10T00:00:00	2024-11-08T22:00:00	1	Precipitación	0
81512	7	Sololá	717	San Juan la Laguna	12	San Juan la Laguna	10	Octubre	2023-05-10T00:00:00	2024-11-08T22:00:00	8	Radiación solar	0
81513	7	Sololá	717	San Juan la Laguna	12	San Juan la Laguna	10	Octubre	2023-05-10T00:00:00	2024-11-08T23:00:00	2	Temperatura media	18
81514	7	Sololá	717	San Juan la Laguna	12	San Juan la Laguna	10	Octubre	2023-05-10T00:00:00	2024-11-08T23:00:00	4	Temperatura máxima	18
81515	7	Sololá	717	San Juan la Laguna	12	San Juan la Laguna	10	Octubre	2023-05-10T00:00:00	2024-11-08T23:00:00	3	Temperatura mínima	17.6
81516	7	Sololá	717	San Juan la Laguna	12	San Juan la Laguna	10	Octubre	2023-05-10T00:00:00	2024-11-08T23:00:00	5	Humedad	84
81517	7	Sololá	717	San Juan la Laguna	12	San Juan la Laguna	10	Octubre	2023-05-10T00:00:00	2024-11-08T23:00:00	6	Velocidad del viento	0
81518	7	Sololá	717	San Juan la Laguna	12	San Juan la Laguna	10	Octubre	2023-05-10T00:00:00	2024-11-08T23:00:00	7	Dirección del viento	0
81519	7	Sololá	717	San Juan la Laguna	12	San Juan la Laguna	10	Octubre	2023-05-10T00:00:00	2024-11-08T23:00:00	1	Precipitación	0
81520	7	Sololá	717	San Juan la Laguna	12	San Juan la Laguna	10	Octubre	2023-05-10T00:00:00	2024-11-08T23:00:00	8	Radiación solar	0
81521	7	Sololá	717	San Juan la Laguna	12	San Juan la Laguna	10	Octubre	2023-06-10T00:00:00	2024-11-08T00:00:00	2	Temperatura media	17.6
81522	7	Sololá	717	San Juan la Laguna	12	San Juan la Laguna	10	Octubre	2023-06-10T00:00:00	2024-11-08T00:00:00	4	Temperatura máxima	18.1
81523	7	Sololá	717	San Juan la Laguna	12	San Juan la Laguna	10	Octubre	2023-06-10T00:00:00	2024-11-08T00:00:00	3	Temperatura mínima	17.3
81524	7	Sololá	717	San Juan la Laguna	12	San Juan la Laguna	10	Octubre	2023-06-10T00:00:00	2024-11-08T00:00:00	5	Humedad	86
81525	7	Sololá	717	San Juan la Laguna	12	San Juan la Laguna	10	Octubre	2023-06-10T00:00:00	2024-11-08T00:00:00	6	Velocidad del viento	0
81526	7	Sololá	717	San Juan la Laguna	12	San Juan la Laguna	10	Octubre	2023-06-10T00:00:00	2024-11-08T00:00:00	7	Dirección del viento	0
81527	7	Sololá	717	San Juan la Laguna	12	San Juan la Laguna	10	Octubre	2023-06-10T00:00:00	2024-11-08T00:00:00	1	Precipitación	0
81528	7	Sololá	717	San Juan la Laguna	12	San Juan la Laguna	10	Octubre	2023-06-10T00:00:00	2024-11-08T00:00:00	8	Radiación solar	0
81529	7	Sololá	717	San Juan la Laguna	12	San Juan la Laguna	10	Octubre	2023-06-10T00:00:00	2024-11-08T01:00:00	2	Temperatura media	17.3
81530	7	Sololá	717	San Juan la Laguna	12	San Juan la Laguna	10	Octubre	2023-06-10T00:00:00	2024-11-08T01:00:00	4	Temperatura máxima	17.8
81531	7	Sololá	717	San Juan la Laguna	12	San Juan la Laguna	10	Octubre	2023-06-10T00:00:00	2024-11-08T01:00:00	3	Temperatura mínima	17.3
81532	7	Sololá	717	San Juan la Laguna	12	San Juan la Laguna	10	Octubre	2023-06-10T00:00:00	2024-11-08T01:00:00	5	Humedad	87
81533	7	Sololá	717	San Juan la Laguna	12	San Juan la Laguna	10	Octubre	2023-06-10T00:00:00	2024-11-08T01:00:00	6	Velocidad del viento	0
81534	7	Sololá	717	San Juan la Laguna	12	San Juan la Laguna	10	Octubre	2023-06-10T00:00:00	2024-11-08T01:00:00	7	Dirección del viento	0
81535	7	Sololá	717	San Juan la Laguna	12	San Juan la Laguna	10	Octubre	2023-06-10T00:00:00	2024-11-08T01:00:00	1	Precipitación	0
81536	7	Sololá	717	San Juan la Laguna	12	San Juan la Laguna	10	Octubre	2023-06-10T00:00:00	2024-11-08T01:00:00	8	Radiación solar	0
81537	7	Sololá	717	San Juan la Laguna	12	San Juan la Laguna	10	Octubre	2023-06-10T00:00:00	2024-11-08T02:00:00	2	Temperatura media	17.7
81538	7	Sololá	717	San Juan la Laguna	12	San Juan la Laguna	10	Octubre	2023-06-10T00:00:00	2024-11-08T02:00:00	4	Temperatura máxima	17.7
81539	7	Sololá	717	San Juan la Laguna	12	San Juan la Laguna	10	Octubre	2023-06-10T00:00:00	2024-11-08T02:00:00	3	Temperatura mínima	16.8
81540	7	Sololá	717	San Juan la Laguna	12	San Juan la Laguna	10	Octubre	2023-06-10T00:00:00	2024-11-08T02:00:00	5	Humedad	86
81541	7	Sololá	717	San Juan la Laguna	12	San Juan la Laguna	10	Octubre	2023-06-10T00:00:00	2024-11-08T02:00:00	6	Velocidad del viento	1.6
81542	7	Sololá	717	San Juan la Laguna	12	San Juan la Laguna	10	Octubre	2023-06-10T00:00:00	2024-11-08T02:00:00	7	Dirección del viento	1.61
81543	7	Sololá	717	San Juan la Laguna	12	San Juan la Laguna	10	Octubre	2023-06-10T00:00:00	2024-11-08T02:00:00	1	Precipitación	0
81544	7	Sololá	717	San Juan la Laguna	12	San Juan la Laguna	10	Octubre	2023-06-10T00:00:00	2024-11-08T02:00:00	8	Radiación solar	0
81545	7	Sololá	717	San Juan la Laguna	12	San Juan la Laguna	10	Octubre	2023-06-10T00:00:00	2024-11-08T03:00:00	2	Temperatura media	17.7
81546	7	Sololá	717	San Juan la Laguna	12	San Juan la Laguna	10	Octubre	2023-06-10T00:00:00	2024-11-08T03:00:00	4	Temperatura máxima	17.9
81547	7	Sololá	717	San Juan la Laguna	12	San Juan la Laguna	10	Octubre	2023-06-10T00:00:00	2024-11-08T03:00:00	3	Temperatura mínima	17.6
81548	7	Sololá	717	San Juan la Laguna	12	San Juan la Laguna	10	Octubre	2023-06-10T00:00:00	2024-11-08T03:00:00	5	Humedad	87
81549	7	Sololá	717	San Juan la Laguna	12	San Juan la Laguna	10	Octubre	2023-06-10T00:00:00	2024-11-08T03:00:00	6	Velocidad del viento	3.2
81550	7	Sololá	717	San Juan la Laguna	12	San Juan la Laguna	10	Octubre	2023-06-10T00:00:00	2024-11-08T03:00:00	7	Dirección del viento	3.22
81551	7	Sololá	717	San Juan la Laguna	12	San Juan la Laguna	10	Octubre	2023-06-10T00:00:00	2024-11-08T03:00:00	1	Precipitación	0
81552	7	Sololá	717	San Juan la Laguna	12	San Juan la Laguna	10	Octubre	2023-06-10T00:00:00	2024-11-08T03:00:00	8	Radiación solar	0
81553	7	Sololá	717	San Juan la Laguna	12	San Juan la Laguna	10	Octubre	2023-06-10T00:00:00	2024-11-08T04:00:00	2	Temperatura media	17.9
81554	7	Sololá	717	San Juan la Laguna	12	San Juan la Laguna	10	Octubre	2023-06-10T00:00:00	2024-11-08T04:00:00	4	Temperatura máxima	17.9
81555	7	Sololá	717	San Juan la Laguna	12	San Juan la Laguna	10	Octubre	2023-06-10T00:00:00	2024-11-08T04:00:00	3	Temperatura mínima	17.7
81556	7	Sololá	717	San Juan la Laguna	12	San Juan la Laguna	10	Octubre	2023-06-10T00:00:00	2024-11-08T04:00:00	5	Humedad	89
81557	7	Sololá	717	San Juan la Laguna	12	San Juan la Laguna	10	Octubre	2023-06-10T00:00:00	2024-11-08T04:00:00	6	Velocidad del viento	0
81558	7	Sololá	717	San Juan la Laguna	12	San Juan la Laguna	10	Octubre	2023-06-10T00:00:00	2024-11-08T04:00:00	7	Dirección del viento	0
81559	7	Sololá	717	San Juan la Laguna	12	San Juan la Laguna	10	Octubre	2023-06-10T00:00:00	2024-11-08T04:00:00	1	Precipitación	0
81560	7	Sololá	717	San Juan la Laguna	12	San Juan la Laguna	10	Octubre	2023-06-10T00:00:00	2024-11-08T04:00:00	8	Radiación solar	0
81561	7	Sololá	717	San Juan la Laguna	12	San Juan la Laguna	10	Octubre	2023-06-10T00:00:00	2024-11-08T05:00:00	2	Temperatura media	17.6
81562	7	Sololá	717	San Juan la Laguna	12	San Juan la Laguna	10	Octubre	2023-06-10T00:00:00	2024-11-08T05:00:00	4	Temperatura máxima	18
81563	7	Sololá	717	San Juan la Laguna	12	San Juan la Laguna	10	Octubre	2023-06-10T00:00:00	2024-11-08T05:00:00	3	Temperatura mínima	17.6
81564	7	Sololá	717	San Juan la Laguna	12	San Juan la Laguna	10	Octubre	2023-06-10T00:00:00	2024-11-08T05:00:00	5	Humedad	89
81565	7	Sololá	717	San Juan la Laguna	12	San Juan la Laguna	10	Octubre	2023-06-10T00:00:00	2024-11-08T05:00:00	6	Velocidad del viento	0
81566	7	Sololá	717	San Juan la Laguna	12	San Juan la Laguna	10	Octubre	2023-06-10T00:00:00	2024-11-08T05:00:00	7	Dirección del viento	0
81567	7	Sololá	717	San Juan la Laguna	12	San Juan la Laguna	10	Octubre	2023-06-10T00:00:00	2024-11-08T05:00:00	1	Precipitación	0
81568	7	Sololá	717	San Juan la Laguna	12	San Juan la Laguna	10	Octubre	2023-06-10T00:00:00	2024-11-08T05:00:00	8	Radiación solar	0
81569	7	Sololá	717	San Juan la Laguna	12	San Juan la Laguna	10	Octubre	2023-06-10T00:00:00	2024-11-08T06:00:00	2	Temperatura media	16.7
81570	7	Sololá	717	San Juan la Laguna	12	San Juan la Laguna	10	Octubre	2023-06-10T00:00:00	2024-11-08T06:00:00	4	Temperatura máxima	17.6
81571	7	Sololá	717	San Juan la Laguna	12	San Juan la Laguna	10	Octubre	2023-06-10T00:00:00	2024-11-08T06:00:00	3	Temperatura mínima	16.7
81572	7	Sololá	717	San Juan la Laguna	12	San Juan la Laguna	10	Octubre	2023-06-10T00:00:00	2024-11-08T06:00:00	5	Humedad	89
81573	7	Sololá	717	San Juan la Laguna	12	San Juan la Laguna	10	Octubre	2023-06-10T00:00:00	2024-11-08T06:00:00	6	Velocidad del viento	0
81574	7	Sololá	717	San Juan la Laguna	12	San Juan la Laguna	10	Octubre	2023-06-10T00:00:00	2024-11-08T06:00:00	7	Dirección del viento	0
81575	7	Sololá	717	San Juan la Laguna	12	San Juan la Laguna	10	Octubre	2023-06-10T00:00:00	2024-11-08T06:00:00	1	Precipitación	0
81576	7	Sololá	717	San Juan la Laguna	12	San Juan la Laguna	10	Octubre	2023-06-10T00:00:00	2024-11-08T06:00:00	8	Radiación solar	1
81577	7	Sololá	717	San Juan la Laguna	12	San Juan la Laguna	10	Octubre	2023-06-10T00:00:00	2024-11-08T07:00:00	2	Temperatura media	18.4
81578	7	Sololá	717	San Juan la Laguna	12	San Juan la Laguna	10	Octubre	2023-06-10T00:00:00	2024-11-08T07:00:00	4	Temperatura máxima	18.4
81579	7	Sololá	717	San Juan la Laguna	12	San Juan la Laguna	10	Octubre	2023-06-10T00:00:00	2024-11-08T07:00:00	3	Temperatura mínima	16.7
81580	7	Sololá	717	San Juan la Laguna	12	San Juan la Laguna	10	Octubre	2023-06-10T00:00:00	2024-11-08T07:00:00	5	Humedad	85
81581	7	Sololá	717	San Juan la Laguna	12	San Juan la Laguna	10	Octubre	2023-06-10T00:00:00	2024-11-08T07:00:00	6	Velocidad del viento	3.2
81582	7	Sololá	717	San Juan la Laguna	12	San Juan la Laguna	10	Octubre	2023-06-10T00:00:00	2024-11-08T07:00:00	7	Dirección del viento	3.22
81583	7	Sololá	717	San Juan la Laguna	12	San Juan la Laguna	10	Octubre	2023-06-10T00:00:00	2024-11-08T07:00:00	1	Precipitación	0
81584	7	Sololá	717	San Juan la Laguna	12	San Juan la Laguna	10	Octubre	2023-06-10T00:00:00	2024-11-08T07:00:00	8	Radiación solar	66
81585	7	Sololá	717	San Juan la Laguna	12	San Juan la Laguna	10	Octubre	2023-06-10T00:00:00	2024-11-08T08:00:00	2	Temperatura media	22.1
81586	7	Sololá	717	San Juan la Laguna	12	San Juan la Laguna	10	Octubre	2023-06-10T00:00:00	2024-11-08T08:00:00	4	Temperatura máxima	22.1
81587	7	Sololá	717	San Juan la Laguna	12	San Juan la Laguna	10	Octubre	2023-06-10T00:00:00	2024-11-08T08:00:00	3	Temperatura mínima	18.4
81588	7	Sololá	717	San Juan la Laguna	12	San Juan la Laguna	10	Octubre	2023-06-10T00:00:00	2024-11-08T08:00:00	5	Humedad	75
81589	7	Sololá	717	San Juan la Laguna	12	San Juan la Laguna	10	Octubre	2023-06-10T00:00:00	2024-11-08T08:00:00	6	Velocidad del viento	0
81590	7	Sololá	717	San Juan la Laguna	12	San Juan la Laguna	10	Octubre	2023-06-10T00:00:00	2024-11-08T08:00:00	7	Dirección del viento	0
81591	7	Sololá	717	San Juan la Laguna	12	San Juan la Laguna	10	Octubre	2023-06-10T00:00:00	2024-11-08T08:00:00	1	Precipitación	0
81592	7	Sololá	717	San Juan la Laguna	12	San Juan la Laguna	10	Octubre	2023-06-10T00:00:00	2024-11-08T08:00:00	8	Radiación solar	268
81593	7	Sololá	717	San Juan la Laguna	12	San Juan la Laguna	10	Octubre	2023-06-10T00:00:00	2024-11-08T09:00:00	2	Temperatura media	23.1
81594	7	Sololá	717	San Juan la Laguna	12	San Juan la Laguna	10	Octubre	2023-06-10T00:00:00	2024-11-08T09:00:00	4	Temperatura máxima	23.2
81595	7	Sololá	717	San Juan la Laguna	12	San Juan la Laguna	10	Octubre	2023-06-10T00:00:00	2024-11-08T09:00:00	3	Temperatura mínima	22
81596	7	Sololá	717	San Juan la Laguna	12	San Juan la Laguna	10	Octubre	2023-06-10T00:00:00	2024-11-08T09:00:00	5	Humedad	66
81597	7	Sololá	717	San Juan la Laguna	12	San Juan la Laguna	10	Octubre	2023-06-10T00:00:00	2024-11-08T09:00:00	6	Velocidad del viento	0
81598	7	Sololá	717	San Juan la Laguna	12	San Juan la Laguna	10	Octubre	2023-06-10T00:00:00	2024-11-08T09:00:00	7	Dirección del viento	0
81599	7	Sololá	717	San Juan la Laguna	12	San Juan la Laguna	10	Octubre	2023-06-10T00:00:00	2024-11-08T09:00:00	1	Precipitación	0
81600	7	Sololá	717	San Juan la Laguna	12	San Juan la Laguna	10	Octubre	2023-06-10T00:00:00	2024-11-08T09:00:00	8	Radiación solar	508
81601	7	Sololá	717	San Juan la Laguna	12	San Juan la Laguna	10	Octubre	2023-06-10T00:00:00	2024-11-08T10:00:00	2	Temperatura media	25.2
81602	7	Sololá	717	San Juan la Laguna	12	San Juan la Laguna	10	Octubre	2023-06-10T00:00:00	2024-11-08T10:00:00	4	Temperatura máxima	25.2
81603	7	Sololá	717	San Juan la Laguna	12	San Juan la Laguna	10	Octubre	2023-06-10T00:00:00	2024-11-08T10:00:00	3	Temperatura mínima	23.1
81604	7	Sololá	717	San Juan la Laguna	12	San Juan la Laguna	10	Octubre	2023-06-10T00:00:00	2024-11-08T10:00:00	5	Humedad	60
81605	7	Sololá	717	San Juan la Laguna	12	San Juan la Laguna	10	Octubre	2023-06-10T00:00:00	2024-11-08T10:00:00	6	Velocidad del viento	0
81606	7	Sololá	717	San Juan la Laguna	12	San Juan la Laguna	10	Octubre	2023-06-10T00:00:00	2024-11-08T10:00:00	7	Dirección del viento	0
81607	7	Sololá	717	San Juan la Laguna	12	San Juan la Laguna	10	Octubre	2023-06-10T00:00:00	2024-11-08T10:00:00	1	Precipitación	0
81608	7	Sololá	717	San Juan la Laguna	12	San Juan la Laguna	10	Octubre	2023-06-10T00:00:00	2024-11-08T10:00:00	8	Radiación solar	697
81609	7	Sololá	717	San Juan la Laguna	12	San Juan la Laguna	10	Octubre	2023-06-10T00:00:00	2024-11-08T11:00:00	2	Temperatura media	23.9
81610	7	Sololá	717	San Juan la Laguna	12	San Juan la Laguna	10	Octubre	2023-06-10T00:00:00	2024-11-08T11:00:00	4	Temperatura máxima	25.2
81611	7	Sololá	717	San Juan la Laguna	12	San Juan la Laguna	10	Octubre	2023-06-10T00:00:00	2024-11-08T11:00:00	3	Temperatura mínima	23.8
81612	7	Sololá	717	San Juan la Laguna	12	San Juan la Laguna	10	Octubre	2023-06-10T00:00:00	2024-11-08T11:00:00	5	Humedad	71
81613	7	Sololá	717	San Juan la Laguna	12	San Juan la Laguna	10	Octubre	2023-06-10T00:00:00	2024-11-08T11:00:00	6	Velocidad del viento	4.8
81614	7	Sololá	717	San Juan la Laguna	12	San Juan la Laguna	10	Octubre	2023-06-10T00:00:00	2024-11-08T11:00:00	7	Dirección del viento	4.83
81615	7	Sololá	717	San Juan la Laguna	12	San Juan la Laguna	10	Octubre	2023-06-10T00:00:00	2024-11-08T11:00:00	1	Precipitación	0
81616	7	Sololá	717	San Juan la Laguna	12	San Juan la Laguna	10	Octubre	2023-06-10T00:00:00	2024-11-08T11:00:00	8	Radiación solar	798
81617	7	Sololá	717	San Juan la Laguna	12	San Juan la Laguna	10	Octubre	2023-06-10T00:00:00	2024-11-08T12:00:00	2	Temperatura media	24.2
81618	7	Sololá	717	San Juan la Laguna	12	San Juan la Laguna	10	Octubre	2023-06-10T00:00:00	2024-11-08T12:00:00	4	Temperatura máxima	24.6
81619	7	Sololá	717	San Juan la Laguna	12	San Juan la Laguna	10	Octubre	2023-06-10T00:00:00	2024-11-08T12:00:00	3	Temperatura mínima	23.8
81620	7	Sololá	717	San Juan la Laguna	12	San Juan la Laguna	10	Octubre	2023-06-10T00:00:00	2024-11-08T12:00:00	5	Humedad	71
81621	7	Sololá	717	San Juan la Laguna	12	San Juan la Laguna	10	Octubre	2023-06-10T00:00:00	2024-11-08T12:00:00	6	Velocidad del viento	1.6
81622	7	Sololá	717	San Juan la Laguna	12	San Juan la Laguna	10	Octubre	2023-06-10T00:00:00	2024-11-08T12:00:00	7	Dirección del viento	1.61
81623	7	Sololá	717	San Juan la Laguna	12	San Juan la Laguna	10	Octubre	2023-06-10T00:00:00	2024-11-08T12:00:00	1	Precipitación	0
81624	7	Sololá	717	San Juan la Laguna	12	San Juan la Laguna	10	Octubre	2023-06-10T00:00:00	2024-11-08T12:00:00	8	Radiación solar	840
81625	7	Sololá	717	San Juan la Laguna	12	San Juan la Laguna	10	Octubre	2023-06-10T00:00:00	2024-11-08T13:00:00	2	Temperatura media	24.6
81626	7	Sololá	717	San Juan la Laguna	12	San Juan la Laguna	10	Octubre	2023-06-10T00:00:00	2024-11-08T13:00:00	4	Temperatura máxima	24.7
81627	7	Sololá	717	San Juan la Laguna	12	San Juan la Laguna	10	Octubre	2023-06-10T00:00:00	2024-11-08T13:00:00	3	Temperatura mínima	23.9
81628	7	Sololá	717	San Juan la Laguna	12	San Juan la Laguna	10	Octubre	2023-06-10T00:00:00	2024-11-08T13:00:00	5	Humedad	72
81629	7	Sololá	717	San Juan la Laguna	12	San Juan la Laguna	10	Octubre	2023-06-10T00:00:00	2024-11-08T13:00:00	6	Velocidad del viento	0
81630	7	Sololá	717	San Juan la Laguna	12	San Juan la Laguna	10	Octubre	2023-06-10T00:00:00	2024-11-08T13:00:00	7	Dirección del viento	0
81631	7	Sololá	717	San Juan la Laguna	12	San Juan la Laguna	10	Octubre	2023-06-10T00:00:00	2024-11-08T13:00:00	1	Precipitación	0
81632	7	Sololá	717	San Juan la Laguna	12	San Juan la Laguna	10	Octubre	2023-06-10T00:00:00	2024-11-08T13:00:00	8	Radiación solar	916
81633	7	Sololá	717	San Juan la Laguna	12	San Juan la Laguna	10	Octubre	2023-06-10T00:00:00	2024-11-08T14:00:00	2	Temperatura media	24.2
81634	7	Sololá	717	San Juan la Laguna	12	San Juan la Laguna	10	Octubre	2023-06-10T00:00:00	2024-11-08T14:00:00	4	Temperatura máxima	25.1
81635	7	Sololá	717	San Juan la Laguna	12	San Juan la Laguna	10	Octubre	2023-06-10T00:00:00	2024-11-08T14:00:00	3	Temperatura mínima	23.8
81636	7	Sololá	717	San Juan la Laguna	12	San Juan la Laguna	10	Octubre	2023-06-10T00:00:00	2024-11-08T14:00:00	5	Humedad	75
81637	7	Sololá	717	San Juan la Laguna	12	San Juan la Laguna	10	Octubre	2023-06-10T00:00:00	2024-11-08T14:00:00	6	Velocidad del viento	0
81638	7	Sololá	717	San Juan la Laguna	12	San Juan la Laguna	10	Octubre	2023-06-10T00:00:00	2024-11-08T14:00:00	7	Dirección del viento	0
81639	7	Sololá	717	San Juan la Laguna	12	San Juan la Laguna	10	Octubre	2023-06-10T00:00:00	2024-11-08T14:00:00	1	Precipitación	0
81640	7	Sololá	717	San Juan la Laguna	12	San Juan la Laguna	10	Octubre	2023-06-10T00:00:00	2024-11-08T14:00:00	8	Radiación solar	737
81641	7	Sololá	717	San Juan la Laguna	12	San Juan la Laguna	10	Octubre	2023-06-10T00:00:00	2024-11-08T15:00:00	2	Temperatura media	23.2
81642	7	Sololá	717	San Juan la Laguna	12	San Juan la Laguna	10	Octubre	2023-06-10T00:00:00	2024-11-08T15:00:00	4	Temperatura máxima	24.6
81643	7	Sololá	717	San Juan la Laguna	12	San Juan la Laguna	10	Octubre	2023-06-10T00:00:00	2024-11-08T15:00:00	3	Temperatura mínima	23.2
81644	7	Sololá	717	San Juan la Laguna	12	San Juan la Laguna	10	Octubre	2023-06-10T00:00:00	2024-11-08T15:00:00	5	Humedad	79
81645	7	Sololá	717	San Juan la Laguna	12	San Juan la Laguna	10	Octubre	2023-06-10T00:00:00	2024-11-08T15:00:00	6	Velocidad del viento	0
81646	7	Sololá	717	San Juan la Laguna	12	San Juan la Laguna	10	Octubre	2023-06-10T00:00:00	2024-11-08T15:00:00	7	Dirección del viento	0
81647	7	Sololá	717	San Juan la Laguna	12	San Juan la Laguna	10	Octubre	2023-06-10T00:00:00	2024-11-08T15:00:00	1	Precipitación	0
81648	7	Sololá	717	San Juan la Laguna	12	San Juan la Laguna	10	Octubre	2023-06-10T00:00:00	2024-11-08T15:00:00	8	Radiación solar	477
81649	7	Sololá	717	San Juan la Laguna	12	San Juan la Laguna	10	Octubre	2023-06-10T00:00:00	2024-11-08T16:00:00	2	Temperatura media	23.2
81650	7	Sololá	717	San Juan la Laguna	12	San Juan la Laguna	10	Octubre	2023-06-10T00:00:00	2024-11-08T16:00:00	4	Temperatura máxima	24.6
81651	7	Sololá	717	San Juan la Laguna	12	San Juan la Laguna	10	Octubre	2023-06-10T00:00:00	2024-11-08T16:00:00	3	Temperatura mínima	23.1
81652	7	Sololá	717	San Juan la Laguna	12	San Juan la Laguna	10	Octubre	2023-06-10T00:00:00	2024-11-08T16:00:00	5	Humedad	80
81653	7	Sololá	717	San Juan la Laguna	12	San Juan la Laguna	10	Octubre	2023-06-10T00:00:00	2024-11-08T16:00:00	6	Velocidad del viento	0
81654	7	Sololá	717	San Juan la Laguna	12	San Juan la Laguna	10	Octubre	2023-06-10T00:00:00	2024-11-08T16:00:00	7	Dirección del viento	0
81655	7	Sololá	717	San Juan la Laguna	12	San Juan la Laguna	10	Octubre	2023-06-10T00:00:00	2024-11-08T16:00:00	1	Precipitación	0
81656	7	Sololá	717	San Juan la Laguna	12	San Juan la Laguna	10	Octubre	2023-06-10T00:00:00	2024-11-08T16:00:00	8	Radiación solar	334
81657	7	Sololá	717	San Juan la Laguna	12	San Juan la Laguna	10	Octubre	2023-06-10T00:00:00	2024-11-08T17:00:00	2	Temperatura media	22.2
81658	7	Sololá	717	San Juan la Laguna	12	San Juan la Laguna	10	Octubre	2023-06-10T00:00:00	2024-11-08T17:00:00	4	Temperatura máxima	23.2
81659	7	Sololá	717	San Juan la Laguna	12	San Juan la Laguna	10	Octubre	2023-06-10T00:00:00	2024-11-08T17:00:00	3	Temperatura mínima	22.2
81660	7	Sololá	717	San Juan la Laguna	12	San Juan la Laguna	10	Octubre	2023-06-10T00:00:00	2024-11-08T17:00:00	5	Humedad	81
81661	7	Sololá	717	San Juan la Laguna	12	San Juan la Laguna	10	Octubre	2023-06-10T00:00:00	2024-11-08T17:00:00	6	Velocidad del viento	0
81662	7	Sololá	717	San Juan la Laguna	12	San Juan la Laguna	10	Octubre	2023-06-10T00:00:00	2024-11-08T17:00:00	7	Dirección del viento	0
81663	7	Sololá	717	San Juan la Laguna	12	San Juan la Laguna	10	Octubre	2023-06-10T00:00:00	2024-11-08T17:00:00	1	Precipitación	0
81664	7	Sololá	717	San Juan la Laguna	12	San Juan la Laguna	10	Octubre	2023-06-10T00:00:00	2024-11-08T17:00:00	8	Radiación solar	48
81665	7	Sololá	717	San Juan la Laguna	12	San Juan la Laguna	10	Octubre	2023-06-10T00:00:00	2024-11-08T18:00:00	2	Temperatura media	21.2
81666	7	Sololá	717	San Juan la Laguna	12	San Juan la Laguna	10	Octubre	2023-06-10T00:00:00	2024-11-08T18:00:00	4	Temperatura máxima	22.2
81667	7	Sololá	717	San Juan la Laguna	12	San Juan la Laguna	10	Octubre	2023-06-10T00:00:00	2024-11-08T18:00:00	3	Temperatura mínima	20.8
81668	7	Sololá	717	San Juan la Laguna	12	San Juan la Laguna	10	Octubre	2023-06-10T00:00:00	2024-11-08T18:00:00	5	Humedad	84
81669	7	Sololá	717	San Juan la Laguna	12	San Juan la Laguna	10	Octubre	2023-06-10T00:00:00	2024-11-08T18:00:00	6	Velocidad del viento	3.2
81670	7	Sololá	717	San Juan la Laguna	12	San Juan la Laguna	10	Octubre	2023-06-10T00:00:00	2024-11-08T18:00:00	7	Dirección del viento	3.22
81671	7	Sololá	717	San Juan la Laguna	12	San Juan la Laguna	10	Octubre	2023-06-10T00:00:00	2024-11-08T18:00:00	1	Precipitación	0
81672	7	Sololá	717	San Juan la Laguna	12	San Juan la Laguna	10	Octubre	2023-06-10T00:00:00	2024-11-08T18:00:00	8	Radiación solar	2
81673	7	Sololá	717	San Juan la Laguna	12	San Juan la Laguna	10	Octubre	2023-06-10T00:00:00	2024-11-08T19:00:00	2	Temperatura media	20.5
81674	7	Sololá	717	San Juan la Laguna	12	San Juan la Laguna	10	Octubre	2023-06-10T00:00:00	2024-11-08T19:00:00	4	Temperatura máxima	21.2
81675	7	Sololá	717	San Juan la Laguna	12	San Juan la Laguna	10	Octubre	2023-06-10T00:00:00	2024-11-08T19:00:00	3	Temperatura mínima	20.4
81676	7	Sololá	717	San Juan la Laguna	12	San Juan la Laguna	10	Octubre	2023-06-10T00:00:00	2024-11-08T19:00:00	5	Humedad	85
81677	7	Sololá	717	San Juan la Laguna	12	San Juan la Laguna	10	Octubre	2023-06-10T00:00:00	2024-11-08T19:00:00	6	Velocidad del viento	6.4
81678	7	Sololá	717	San Juan la Laguna	12	San Juan la Laguna	10	Octubre	2023-06-10T00:00:00	2024-11-08T19:00:00	7	Dirección del viento	6.44
81679	7	Sololá	717	San Juan la Laguna	12	San Juan la Laguna	10	Octubre	2023-06-10T00:00:00	2024-11-08T19:00:00	1	Precipitación	0
81680	7	Sololá	717	San Juan la Laguna	12	San Juan la Laguna	10	Octubre	2023-06-10T00:00:00	2024-11-08T19:00:00	8	Radiación solar	0
81681	7	Sololá	717	San Juan la Laguna	12	San Juan la Laguna	10	Octubre	2023-06-10T00:00:00	2024-11-08T20:00:00	2	Temperatura media	18.7
81682	7	Sololá	717	San Juan la Laguna	12	San Juan la Laguna	10	Octubre	2023-06-10T00:00:00	2024-11-08T20:00:00	4	Temperatura máxima	20.5
81683	7	Sololá	717	San Juan la Laguna	12	San Juan la Laguna	10	Octubre	2023-06-10T00:00:00	2024-11-08T20:00:00	3	Temperatura mínima	18.7
81684	7	Sololá	717	San Juan la Laguna	12	San Juan la Laguna	10	Octubre	2023-06-10T00:00:00	2024-11-08T20:00:00	5	Humedad	89
81685	7	Sololá	717	San Juan la Laguna	12	San Juan la Laguna	10	Octubre	2023-06-10T00:00:00	2024-11-08T20:00:00	6	Velocidad del viento	4.8
81686	7	Sololá	717	San Juan la Laguna	12	San Juan la Laguna	10	Octubre	2023-06-10T00:00:00	2024-11-08T20:00:00	7	Dirección del viento	4.83
81687	7	Sololá	717	San Juan la Laguna	12	San Juan la Laguna	10	Octubre	2023-06-10T00:00:00	2024-11-08T20:00:00	1	Precipitación	5
81688	7	Sololá	717	San Juan la Laguna	12	San Juan la Laguna	10	Octubre	2023-06-10T00:00:00	2024-11-08T20:00:00	8	Radiación solar	0
81689	7	Sololá	717	San Juan la Laguna	12	San Juan la Laguna	10	Octubre	2023-06-10T00:00:00	2024-11-08T21:00:00	2	Temperatura media	17.7
81690	7	Sololá	717	San Juan la Laguna	12	San Juan la Laguna	10	Octubre	2023-06-10T00:00:00	2024-11-08T21:00:00	4	Temperatura máxima	18.7
81691	7	Sololá	717	San Juan la Laguna	12	San Juan la Laguna	10	Octubre	2023-06-10T00:00:00	2024-11-08T21:00:00	3	Temperatura mínima	17.6
81692	7	Sololá	717	San Juan la Laguna	12	San Juan la Laguna	10	Octubre	2023-06-10T00:00:00	2024-11-08T21:00:00	5	Humedad	90
81693	7	Sololá	717	San Juan la Laguna	12	San Juan la Laguna	10	Octubre	2023-06-10T00:00:00	2024-11-08T21:00:00	6	Velocidad del viento	0
81694	7	Sololá	717	San Juan la Laguna	12	San Juan la Laguna	10	Octubre	2023-06-10T00:00:00	2024-11-08T21:00:00	7	Dirección del viento	0
81695	7	Sololá	717	San Juan la Laguna	12	San Juan la Laguna	10	Octubre	2023-06-10T00:00:00	2024-11-08T21:00:00	1	Precipitación	3.2
81696	7	Sololá	717	San Juan la Laguna	12	San Juan la Laguna	10	Octubre	2023-06-10T00:00:00	2024-11-08T21:00:00	8	Radiación solar	0
81697	7	Sololá	717	San Juan la Laguna	12	San Juan la Laguna	10	Octubre	2023-06-10T00:00:00	2024-11-08T22:00:00	2	Temperatura media	17.7
81698	7	Sololá	717	San Juan la Laguna	12	San Juan la Laguna	10	Octubre	2023-06-10T00:00:00	2024-11-08T22:00:00	4	Temperatura máxima	17.8
81699	7	Sololá	717	San Juan la Laguna	12	San Juan la Laguna	10	Octubre	2023-06-10T00:00:00	2024-11-08T22:00:00	3	Temperatura mínima	17.4
81700	7	Sololá	717	San Juan la Laguna	12	San Juan la Laguna	10	Octubre	2023-06-10T00:00:00	2024-11-08T22:00:00	5	Humedad	90
81701	7	Sololá	717	San Juan la Laguna	12	San Juan la Laguna	10	Octubre	2023-06-10T00:00:00	2024-11-08T22:00:00	6	Velocidad del viento	0
81702	7	Sololá	717	San Juan la Laguna	12	San Juan la Laguna	10	Octubre	2023-06-10T00:00:00	2024-11-08T22:00:00	7	Dirección del viento	0
81703	7	Sololá	717	San Juan la Laguna	12	San Juan la Laguna	10	Octubre	2023-06-10T00:00:00	2024-11-08T22:00:00	1	Precipitación	0
81704	7	Sololá	717	San Juan la Laguna	12	San Juan la Laguna	10	Octubre	2023-06-10T00:00:00	2024-11-08T22:00:00	8	Radiación solar	0
81705	7	Sololá	717	San Juan la Laguna	12	San Juan la Laguna	10	Octubre	2023-06-10T00:00:00	2024-11-08T23:00:00	2	Temperatura media	17.6
81706	7	Sololá	717	San Juan la Laguna	12	San Juan la Laguna	10	Octubre	2023-06-10T00:00:00	2024-11-08T23:00:00	4	Temperatura máxima	17.8
81707	7	Sololá	717	San Juan la Laguna	12	San Juan la Laguna	10	Octubre	2023-06-10T00:00:00	2024-11-08T23:00:00	3	Temperatura mínima	17.4
81708	7	Sololá	717	San Juan la Laguna	12	San Juan la Laguna	10	Octubre	2023-06-10T00:00:00	2024-11-08T23:00:00	5	Humedad	90
81709	7	Sololá	717	San Juan la Laguna	12	San Juan la Laguna	10	Octubre	2023-06-10T00:00:00	2024-11-08T23:00:00	6	Velocidad del viento	1.6
81710	7	Sololá	717	San Juan la Laguna	12	San Juan la Laguna	10	Octubre	2023-06-10T00:00:00	2024-11-08T23:00:00	7	Dirección del viento	1.61
81711	7	Sololá	717	San Juan la Laguna	12	San Juan la Laguna	10	Octubre	2023-06-10T00:00:00	2024-11-08T23:00:00	1	Precipitación	0.2
81712	7	Sololá	717	San Juan la Laguna	12	San Juan la Laguna	10	Octubre	2023-06-10T00:00:00	2024-11-08T23:00:00	8	Radiación solar	0
81713	7	Sololá	717	San Juan la Laguna	12	San Juan la Laguna	10	Octubre	2023-07-10T00:00:00	2024-11-08T00:00:00	2	Temperatura media	17.5
81714	7	Sololá	717	San Juan la Laguna	12	San Juan la Laguna	10	Octubre	2023-07-10T00:00:00	2024-11-08T00:00:00	4	Temperatura máxima	17.8
81715	7	Sololá	717	San Juan la Laguna	12	San Juan la Laguna	10	Octubre	2023-07-10T00:00:00	2024-11-08T00:00:00	3	Temperatura mínima	17.5
81716	7	Sololá	717	San Juan la Laguna	12	San Juan la Laguna	10	Octubre	2023-07-10T00:00:00	2024-11-08T00:00:00	5	Humedad	91
81717	7	Sololá	717	San Juan la Laguna	12	San Juan la Laguna	10	Octubre	2023-07-10T00:00:00	2024-11-08T00:00:00	6	Velocidad del viento	0
81718	7	Sololá	717	San Juan la Laguna	12	San Juan la Laguna	10	Octubre	2023-07-10T00:00:00	2024-11-08T00:00:00	7	Dirección del viento	0
81719	7	Sololá	717	San Juan la Laguna	12	San Juan la Laguna	10	Octubre	2023-07-10T00:00:00	2024-11-08T00:00:00	1	Precipitación	0.2
81720	7	Sololá	717	San Juan la Laguna	12	San Juan la Laguna	10	Octubre	2023-07-10T00:00:00	2024-11-08T00:00:00	8	Radiación solar	0
81721	7	Sololá	717	San Juan la Laguna	12	San Juan la Laguna	10	Octubre	2023-07-10T00:00:00	2024-11-08T01:00:00	2	Temperatura media	17.4
81722	7	Sololá	717	San Juan la Laguna	12	San Juan la Laguna	10	Octubre	2023-07-10T00:00:00	2024-11-08T01:00:00	4	Temperatura máxima	17.7
81723	7	Sololá	717	San Juan la Laguna	12	San Juan la Laguna	10	Octubre	2023-07-10T00:00:00	2024-11-08T01:00:00	3	Temperatura mínima	17.3
81724	7	Sololá	717	San Juan la Laguna	12	San Juan la Laguna	10	Octubre	2023-07-10T00:00:00	2024-11-08T01:00:00	5	Humedad	91
81725	7	Sololá	717	San Juan la Laguna	12	San Juan la Laguna	10	Octubre	2023-07-10T00:00:00	2024-11-08T01:00:00	6	Velocidad del viento	0
81726	7	Sololá	717	San Juan la Laguna	12	San Juan la Laguna	10	Octubre	2023-07-10T00:00:00	2024-11-08T01:00:00	7	Dirección del viento	0
81727	7	Sololá	717	San Juan la Laguna	12	San Juan la Laguna	10	Octubre	2023-07-10T00:00:00	2024-11-08T01:00:00	1	Precipitación	0
81728	7	Sololá	717	San Juan la Laguna	12	San Juan la Laguna	10	Octubre	2023-07-10T00:00:00	2024-11-08T01:00:00	8	Radiación solar	0
81729	7	Sololá	717	San Juan la Laguna	12	San Juan la Laguna	10	Octubre	2023-07-10T00:00:00	2024-11-08T02:00:00	2	Temperatura media	16.9
81730	7	Sololá	717	San Juan la Laguna	12	San Juan la Laguna	10	Octubre	2023-07-10T00:00:00	2024-11-08T02:00:00	4	Temperatura máxima	17.4
81731	7	Sololá	717	San Juan la Laguna	12	San Juan la Laguna	10	Octubre	2023-07-10T00:00:00	2024-11-08T02:00:00	3	Temperatura mínima	16.9
81732	7	Sololá	717	San Juan la Laguna	12	San Juan la Laguna	10	Octubre	2023-07-10T00:00:00	2024-11-08T02:00:00	5	Humedad	91
81733	7	Sololá	717	San Juan la Laguna	12	San Juan la Laguna	10	Octubre	2023-07-10T00:00:00	2024-11-08T02:00:00	6	Velocidad del viento	0
81734	7	Sololá	717	San Juan la Laguna	12	San Juan la Laguna	10	Octubre	2023-07-10T00:00:00	2024-11-08T02:00:00	7	Dirección del viento	0
81735	7	Sololá	717	San Juan la Laguna	12	San Juan la Laguna	10	Octubre	2023-07-10T00:00:00	2024-11-08T02:00:00	1	Precipitación	0
81736	7	Sololá	717	San Juan la Laguna	12	San Juan la Laguna	10	Octubre	2023-07-10T00:00:00	2024-11-08T02:00:00	8	Radiación solar	0
81737	7	Sololá	717	San Juan la Laguna	12	San Juan la Laguna	10	Octubre	2023-07-10T00:00:00	2024-11-08T03:00:00	2	Temperatura media	16.9
81738	7	Sololá	717	San Juan la Laguna	12	San Juan la Laguna	10	Octubre	2023-07-10T00:00:00	2024-11-08T03:00:00	4	Temperatura máxima	17.1
81739	7	Sololá	717	San Juan la Laguna	12	San Juan la Laguna	10	Octubre	2023-07-10T00:00:00	2024-11-08T03:00:00	3	Temperatura mínima	16.9
81740	7	Sololá	717	San Juan la Laguna	12	San Juan la Laguna	10	Octubre	2023-07-10T00:00:00	2024-11-08T03:00:00	5	Humedad	90
81741	7	Sololá	717	San Juan la Laguna	12	San Juan la Laguna	10	Octubre	2023-07-10T00:00:00	2024-11-08T03:00:00	6	Velocidad del viento	3.2
81742	7	Sololá	717	San Juan la Laguna	12	San Juan la Laguna	10	Octubre	2023-07-10T00:00:00	2024-11-08T03:00:00	7	Dirección del viento	3.22
81743	7	Sololá	717	San Juan la Laguna	12	San Juan la Laguna	10	Octubre	2023-07-10T00:00:00	2024-11-08T03:00:00	1	Precipitación	0
81744	7	Sololá	717	San Juan la Laguna	12	San Juan la Laguna	10	Octubre	2023-07-10T00:00:00	2024-11-08T03:00:00	8	Radiación solar	0
81745	7	Sololá	717	San Juan la Laguna	12	San Juan la Laguna	10	Octubre	2023-07-10T00:00:00	2024-11-08T04:00:00	2	Temperatura media	16.8
81746	7	Sololá	717	San Juan la Laguna	12	San Juan la Laguna	10	Octubre	2023-07-10T00:00:00	2024-11-08T04:00:00	4	Temperatura máxima	17
81747	7	Sololá	717	San Juan la Laguna	12	San Juan la Laguna	10	Octubre	2023-07-10T00:00:00	2024-11-08T04:00:00	3	Temperatura mínima	16.8
81748	7	Sololá	717	San Juan la Laguna	12	San Juan la Laguna	10	Octubre	2023-07-10T00:00:00	2024-11-08T04:00:00	5	Humedad	91
81749	7	Sololá	717	San Juan la Laguna	12	San Juan la Laguna	10	Octubre	2023-07-10T00:00:00	2024-11-08T04:00:00	6	Velocidad del viento	0
81750	7	Sololá	717	San Juan la Laguna	12	San Juan la Laguna	10	Octubre	2023-07-10T00:00:00	2024-11-08T04:00:00	7	Dirección del viento	0
81751	7	Sololá	717	San Juan la Laguna	12	San Juan la Laguna	10	Octubre	2023-07-10T00:00:00	2024-11-08T04:00:00	1	Precipitación	0
81752	7	Sololá	717	San Juan la Laguna	12	San Juan la Laguna	10	Octubre	2023-07-10T00:00:00	2024-11-08T04:00:00	8	Radiación solar	0
81753	7	Sololá	717	San Juan la Laguna	12	San Juan la Laguna	10	Octubre	2023-07-10T00:00:00	2024-11-08T05:00:00	2	Temperatura media	17.2
81754	7	Sololá	717	San Juan la Laguna	12	San Juan la Laguna	10	Octubre	2023-07-10T00:00:00	2024-11-08T05:00:00	4	Temperatura máxima	17.2
81755	7	Sololá	717	San Juan la Laguna	12	San Juan la Laguna	10	Octubre	2023-07-10T00:00:00	2024-11-08T05:00:00	3	Temperatura mínima	16.8
81756	7	Sololá	717	San Juan la Laguna	12	San Juan la Laguna	10	Octubre	2023-07-10T00:00:00	2024-11-08T05:00:00	5	Humedad	90
81757	7	Sololá	717	San Juan la Laguna	12	San Juan la Laguna	10	Octubre	2023-07-10T00:00:00	2024-11-08T05:00:00	6	Velocidad del viento	0
81758	7	Sololá	717	San Juan la Laguna	12	San Juan la Laguna	10	Octubre	2023-07-10T00:00:00	2024-11-08T05:00:00	7	Dirección del viento	0
81759	7	Sololá	717	San Juan la Laguna	12	San Juan la Laguna	10	Octubre	2023-07-10T00:00:00	2024-11-08T05:00:00	1	Precipitación	0
81760	7	Sololá	717	San Juan la Laguna	12	San Juan la Laguna	10	Octubre	2023-07-10T00:00:00	2024-11-08T05:00:00	8	Radiación solar	0
81761	7	Sololá	717	San Juan la Laguna	12	San Juan la Laguna	10	Octubre	2023-07-10T00:00:00	2024-11-08T06:00:00	2	Temperatura media	17.2
81762	7	Sololá	717	San Juan la Laguna	12	San Juan la Laguna	10	Octubre	2023-07-10T00:00:00	2024-11-08T06:00:00	4	Temperatura máxima	17.2
81763	7	Sololá	717	San Juan la Laguna	12	San Juan la Laguna	10	Octubre	2023-07-10T00:00:00	2024-11-08T06:00:00	3	Temperatura mínima	16.9
81764	7	Sololá	717	San Juan la Laguna	12	San Juan la Laguna	10	Octubre	2023-07-10T00:00:00	2024-11-08T06:00:00	5	Humedad	91
81765	7	Sololá	717	San Juan la Laguna	12	San Juan la Laguna	10	Octubre	2023-07-10T00:00:00	2024-11-08T06:00:00	6	Velocidad del viento	0
81766	7	Sololá	717	San Juan la Laguna	12	San Juan la Laguna	10	Octubre	2023-07-10T00:00:00	2024-11-08T06:00:00	7	Dirección del viento	0
81767	7	Sololá	717	San Juan la Laguna	12	San Juan la Laguna	10	Octubre	2023-07-10T00:00:00	2024-11-08T06:00:00	1	Precipitación	0
81768	7	Sololá	717	San Juan la Laguna	12	San Juan la Laguna	10	Octubre	2023-07-10T00:00:00	2024-11-08T06:00:00	8	Radiación solar	2
81769	7	Sololá	717	San Juan la Laguna	12	San Juan la Laguna	10	Octubre	2023-07-10T00:00:00	2024-11-08T07:00:00	2	Temperatura media	18
81770	7	Sololá	717	San Juan la Laguna	12	San Juan la Laguna	10	Octubre	2023-07-10T00:00:00	2024-11-08T07:00:00	4	Temperatura máxima	18
81771	7	Sololá	717	San Juan la Laguna	12	San Juan la Laguna	10	Octubre	2023-07-10T00:00:00	2024-11-08T07:00:00	3	Temperatura mínima	17.2
81772	7	Sololá	717	San Juan la Laguna	12	San Juan la Laguna	10	Octubre	2023-07-10T00:00:00	2024-11-08T07:00:00	5	Humedad	90
81773	7	Sololá	717	San Juan la Laguna	12	San Juan la Laguna	10	Octubre	2023-07-10T00:00:00	2024-11-08T07:00:00	6	Velocidad del viento	0
81774	7	Sololá	717	San Juan la Laguna	12	San Juan la Laguna	10	Octubre	2023-07-10T00:00:00	2024-11-08T07:00:00	7	Dirección del viento	0
81775	7	Sololá	717	San Juan la Laguna	12	San Juan la Laguna	10	Octubre	2023-07-10T00:00:00	2024-11-08T07:00:00	1	Precipitación	0
81776	7	Sololá	717	San Juan la Laguna	12	San Juan la Laguna	10	Octubre	2023-07-10T00:00:00	2024-11-08T07:00:00	8	Radiación solar	28
81777	7	Sololá	717	San Juan la Laguna	12	San Juan la Laguna	10	Octubre	2023-07-10T00:00:00	2024-11-08T08:00:00	2	Temperatura media	20.8
81778	7	Sololá	717	San Juan la Laguna	12	San Juan la Laguna	10	Octubre	2023-07-10T00:00:00	2024-11-08T08:00:00	4	Temperatura máxima	20.8
81779	7	Sololá	717	San Juan la Laguna	12	San Juan la Laguna	10	Octubre	2023-07-10T00:00:00	2024-11-08T08:00:00	3	Temperatura mínima	18
81780	7	Sololá	717	San Juan la Laguna	12	San Juan la Laguna	10	Octubre	2023-07-10T00:00:00	2024-11-08T08:00:00	5	Humedad	83
81781	7	Sololá	717	San Juan la Laguna	12	San Juan la Laguna	10	Octubre	2023-07-10T00:00:00	2024-11-08T08:00:00	6	Velocidad del viento	0
81782	7	Sololá	717	San Juan la Laguna	12	San Juan la Laguna	10	Octubre	2023-07-10T00:00:00	2024-11-08T08:00:00	7	Dirección del viento	0
81783	7	Sololá	717	San Juan la Laguna	12	San Juan la Laguna	10	Octubre	2023-07-10T00:00:00	2024-11-08T08:00:00	1	Precipitación	0
81784	7	Sololá	717	San Juan la Laguna	12	San Juan la Laguna	10	Octubre	2023-07-10T00:00:00	2024-11-08T08:00:00	8	Radiación solar	175
81785	7	Sololá	717	San Juan la Laguna	12	San Juan la Laguna	10	Octubre	2023-07-10T00:00:00	2024-11-08T09:00:00	2	Temperatura media	22.5
81786	7	Sololá	717	San Juan la Laguna	12	San Juan la Laguna	10	Octubre	2023-07-10T00:00:00	2024-11-08T09:00:00	4	Temperatura máxima	22.5
81787	7	Sololá	717	San Juan la Laguna	12	San Juan la Laguna	10	Octubre	2023-07-10T00:00:00	2024-11-08T09:00:00	3	Temperatura mínima	20.8
81788	7	Sololá	717	San Juan la Laguna	12	San Juan la Laguna	10	Octubre	2023-07-10T00:00:00	2024-11-08T09:00:00	5	Humedad	76
81789	7	Sololá	717	San Juan la Laguna	12	San Juan la Laguna	10	Octubre	2023-07-10T00:00:00	2024-11-08T09:00:00	6	Velocidad del viento	0
81790	7	Sololá	717	San Juan la Laguna	12	San Juan la Laguna	10	Octubre	2023-07-10T00:00:00	2024-11-08T09:00:00	7	Dirección del viento	0
81791	7	Sololá	717	San Juan la Laguna	12	San Juan la Laguna	10	Octubre	2023-07-10T00:00:00	2024-11-08T09:00:00	1	Precipitación	0
81792	7	Sololá	717	San Juan la Laguna	12	San Juan la Laguna	10	Octubre	2023-07-10T00:00:00	2024-11-08T09:00:00	8	Radiación solar	421
81793	7	Sololá	717	San Juan la Laguna	12	San Juan la Laguna	10	Octubre	2023-07-10T00:00:00	2024-11-08T10:00:00	2	Temperatura media	23.5
81794	7	Sololá	717	San Juan la Laguna	12	San Juan la Laguna	10	Octubre	2023-07-10T00:00:00	2024-11-08T10:00:00	4	Temperatura máxima	23.5
81795	7	Sololá	717	San Juan la Laguna	12	San Juan la Laguna	10	Octubre	2023-07-10T00:00:00	2024-11-08T10:00:00	3	Temperatura mínima	22.3
81796	7	Sololá	717	San Juan la Laguna	12	San Juan la Laguna	10	Octubre	2023-07-10T00:00:00	2024-11-08T10:00:00	5	Humedad	72
81797	7	Sololá	717	San Juan la Laguna	12	San Juan la Laguna	10	Octubre	2023-07-10T00:00:00	2024-11-08T10:00:00	6	Velocidad del viento	4.8
81798	7	Sololá	717	San Juan la Laguna	12	San Juan la Laguna	10	Octubre	2023-07-10T00:00:00	2024-11-08T10:00:00	7	Dirección del viento	4.83
81799	7	Sololá	717	San Juan la Laguna	12	San Juan la Laguna	10	Octubre	2023-07-10T00:00:00	2024-11-08T10:00:00	1	Precipitación	0
81800	7	Sololá	717	San Juan la Laguna	12	San Juan la Laguna	10	Octubre	2023-07-10T00:00:00	2024-11-08T10:00:00	8	Radiación solar	709
81801	7	Sololá	717	San Juan la Laguna	12	San Juan la Laguna	10	Octubre	2023-07-10T00:00:00	2024-11-08T11:00:00	2	Temperatura media	24.2
81802	7	Sololá	717	San Juan la Laguna	12	San Juan la Laguna	10	Octubre	2023-07-10T00:00:00	2024-11-08T11:00:00	4	Temperatura máxima	24.7
81803	7	Sololá	717	San Juan la Laguna	12	San Juan la Laguna	10	Octubre	2023-07-10T00:00:00	2024-11-08T11:00:00	3	Temperatura mínima	23.5
81804	7	Sololá	717	San Juan la Laguna	12	San Juan la Laguna	10	Octubre	2023-07-10T00:00:00	2024-11-08T11:00:00	5	Humedad	70
81805	7	Sololá	717	San Juan la Laguna	12	San Juan la Laguna	10	Octubre	2023-07-10T00:00:00	2024-11-08T11:00:00	6	Velocidad del viento	0
81806	7	Sololá	717	San Juan la Laguna	12	San Juan la Laguna	10	Octubre	2023-07-10T00:00:00	2024-11-08T11:00:00	7	Dirección del viento	0
81807	7	Sololá	717	San Juan la Laguna	12	San Juan la Laguna	10	Octubre	2023-07-10T00:00:00	2024-11-08T11:00:00	1	Precipitación	0
81808	7	Sololá	717	San Juan la Laguna	12	San Juan la Laguna	10	Octubre	2023-07-10T00:00:00	2024-11-08T11:00:00	8	Radiación solar	801
81809	7	Sololá	717	San Juan la Laguna	12	San Juan la Laguna	10	Octubre	2023-07-10T00:00:00	2024-11-08T12:00:00	2	Temperatura media	26.1
81810	7	Sololá	717	San Juan la Laguna	12	San Juan la Laguna	10	Octubre	2023-07-10T00:00:00	2024-11-08T12:00:00	4	Temperatura máxima	26.1
81811	7	Sololá	717	San Juan la Laguna	12	San Juan la Laguna	10	Octubre	2023-07-10T00:00:00	2024-11-08T12:00:00	3	Temperatura mínima	24.2
81812	7	Sololá	717	San Juan la Laguna	12	San Juan la Laguna	10	Octubre	2023-07-10T00:00:00	2024-11-08T12:00:00	5	Humedad	57
81813	7	Sololá	717	San Juan la Laguna	12	San Juan la Laguna	10	Octubre	2023-07-10T00:00:00	2024-11-08T12:00:00	6	Velocidad del viento	0
81814	7	Sololá	717	San Juan la Laguna	12	San Juan la Laguna	10	Octubre	2023-07-10T00:00:00	2024-11-08T12:00:00	7	Dirección del viento	0
81815	7	Sololá	717	San Juan la Laguna	12	San Juan la Laguna	10	Octubre	2023-07-10T00:00:00	2024-11-08T12:00:00	1	Precipitación	0
81816	7	Sololá	717	San Juan la Laguna	12	San Juan la Laguna	10	Octubre	2023-07-10T00:00:00	2024-11-08T12:00:00	8	Radiación solar	859
81817	7	Sololá	717	San Juan la Laguna	12	San Juan la Laguna	10	Octubre	2023-07-10T00:00:00	2024-11-08T13:00:00	2	Temperatura media	26.1
81818	7	Sololá	717	San Juan la Laguna	12	San Juan la Laguna	10	Octubre	2023-07-10T00:00:00	2024-11-08T13:00:00	4	Temperatura máxima	27.2
81819	7	Sololá	717	San Juan la Laguna	12	San Juan la Laguna	10	Octubre	2023-07-10T00:00:00	2024-11-08T13:00:00	3	Temperatura mínima	25.6
81820	7	Sololá	717	San Juan la Laguna	12	San Juan la Laguna	10	Octubre	2023-07-10T00:00:00	2024-11-08T13:00:00	5	Humedad	66
81821	7	Sololá	717	San Juan la Laguna	12	San Juan la Laguna	10	Octubre	2023-07-10T00:00:00	2024-11-08T13:00:00	6	Velocidad del viento	1.6
81822	7	Sololá	717	San Juan la Laguna	12	San Juan la Laguna	10	Octubre	2023-07-10T00:00:00	2024-11-08T13:00:00	7	Dirección del viento	1.61
81823	7	Sololá	717	San Juan la Laguna	12	San Juan la Laguna	10	Octubre	2023-07-10T00:00:00	2024-11-08T13:00:00	1	Precipitación	0
81824	7	Sololá	717	San Juan la Laguna	12	San Juan la Laguna	10	Octubre	2023-07-10T00:00:00	2024-11-08T13:00:00	8	Radiación solar	906
81825	7	Sololá	717	San Juan la Laguna	12	San Juan la Laguna	10	Octubre	2023-07-10T00:00:00	2024-11-08T14:00:00	2	Temperatura media	24.7
81826	7	Sololá	717	San Juan la Laguna	12	San Juan la Laguna	10	Octubre	2023-07-10T00:00:00	2024-11-08T14:00:00	4	Temperatura máxima	26.1
81827	7	Sololá	717	San Juan la Laguna	12	San Juan la Laguna	10	Octubre	2023-07-10T00:00:00	2024-11-08T14:00:00	3	Temperatura mínima	24.7
81828	7	Sololá	717	San Juan la Laguna	12	San Juan la Laguna	10	Octubre	2023-07-10T00:00:00	2024-11-08T14:00:00	5	Humedad	75
81829	7	Sololá	717	San Juan la Laguna	12	San Juan la Laguna	10	Octubre	2023-07-10T00:00:00	2024-11-08T14:00:00	6	Velocidad del viento	1.6
81830	7	Sololá	717	San Juan la Laguna	12	San Juan la Laguna	10	Octubre	2023-07-10T00:00:00	2024-11-08T14:00:00	7	Dirección del viento	1.61
81831	7	Sololá	717	San Juan la Laguna	12	San Juan la Laguna	10	Octubre	2023-07-10T00:00:00	2024-11-08T14:00:00	1	Precipitación	0
81832	7	Sololá	717	San Juan la Laguna	12	San Juan la Laguna	10	Octubre	2023-07-10T00:00:00	2024-11-08T14:00:00	8	Radiación solar	796
81833	7	Sololá	717	San Juan la Laguna	12	San Juan la Laguna	10	Octubre	2023-07-10T00:00:00	2024-11-08T15:00:00	2	Temperatura media	22.8
81834	7	Sololá	717	San Juan la Laguna	12	San Juan la Laguna	10	Octubre	2023-07-10T00:00:00	2024-11-08T15:00:00	4	Temperatura máxima	24.7
81835	7	Sololá	717	San Juan la Laguna	12	San Juan la Laguna	10	Octubre	2023-07-10T00:00:00	2024-11-08T15:00:00	3	Temperatura mínima	22.8
81836	7	Sololá	717	San Juan la Laguna	12	San Juan la Laguna	10	Octubre	2023-07-10T00:00:00	2024-11-08T15:00:00	5	Humedad	81
81837	7	Sololá	717	San Juan la Laguna	12	San Juan la Laguna	10	Octubre	2023-07-10T00:00:00	2024-11-08T15:00:00	6	Velocidad del viento	4.8
81838	7	Sololá	717	San Juan la Laguna	12	San Juan la Laguna	10	Octubre	2023-07-10T00:00:00	2024-11-08T15:00:00	7	Dirección del viento	4.83
81839	7	Sololá	717	San Juan la Laguna	12	San Juan la Laguna	10	Octubre	2023-07-10T00:00:00	2024-11-08T15:00:00	1	Precipitación	0
81840	7	Sololá	717	San Juan la Laguna	12	San Juan la Laguna	10	Octubre	2023-07-10T00:00:00	2024-11-08T15:00:00	8	Radiación solar	701
81841	7	Sololá	717	San Juan la Laguna	12	San Juan la Laguna	10	Octubre	2023-07-10T00:00:00	2024-11-08T16:00:00	2	Temperatura media	21.9
81842	7	Sololá	717	San Juan la Laguna	12	San Juan la Laguna	10	Octubre	2023-07-10T00:00:00	2024-11-08T16:00:00	4	Temperatura máxima	22.8
81843	7	Sololá	717	San Juan la Laguna	12	San Juan la Laguna	10	Octubre	2023-07-10T00:00:00	2024-11-08T16:00:00	3	Temperatura mínima	21.9
81844	7	Sololá	717	San Juan la Laguna	12	San Juan la Laguna	10	Octubre	2023-07-10T00:00:00	2024-11-08T16:00:00	5	Humedad	84
81845	7	Sololá	717	San Juan la Laguna	12	San Juan la Laguna	10	Octubre	2023-07-10T00:00:00	2024-11-08T16:00:00	6	Velocidad del viento	8
81846	7	Sololá	717	San Juan la Laguna	12	San Juan la Laguna	10	Octubre	2023-07-10T00:00:00	2024-11-08T16:00:00	7	Dirección del viento	8.05
81847	7	Sololá	717	San Juan la Laguna	12	San Juan la Laguna	10	Octubre	2023-07-10T00:00:00	2024-11-08T16:00:00	1	Precipitación	0
81848	7	Sololá	717	San Juan la Laguna	12	San Juan la Laguna	10	Octubre	2023-07-10T00:00:00	2024-11-08T16:00:00	8	Radiación solar	483
81849	7	Sololá	717	San Juan la Laguna	12	San Juan la Laguna	10	Octubre	2023-07-10T00:00:00	2024-11-08T17:00:00	2	Temperatura media	18.7
81850	7	Sololá	717	San Juan la Laguna	12	San Juan la Laguna	10	Octubre	2023-07-10T00:00:00	2024-11-08T17:00:00	4	Temperatura máxima	22
81851	7	Sololá	717	San Juan la Laguna	12	San Juan la Laguna	10	Octubre	2023-07-10T00:00:00	2024-11-08T17:00:00	3	Temperatura mínima	18.7
81852	7	Sololá	717	San Juan la Laguna	12	San Juan la Laguna	10	Octubre	2023-07-10T00:00:00	2024-11-08T17:00:00	5	Humedad	89
81853	7	Sololá	717	San Juan la Laguna	12	San Juan la Laguna	10	Octubre	2023-07-10T00:00:00	2024-11-08T17:00:00	6	Velocidad del viento	4.8
81854	7	Sololá	717	San Juan la Laguna	12	San Juan la Laguna	10	Octubre	2023-07-10T00:00:00	2024-11-08T17:00:00	7	Dirección del viento	4.83
81855	7	Sololá	717	San Juan la Laguna	12	San Juan la Laguna	10	Octubre	2023-07-10T00:00:00	2024-11-08T17:00:00	1	Precipitación	6.8
81856	7	Sololá	717	San Juan la Laguna	12	San Juan la Laguna	10	Octubre	2023-07-10T00:00:00	2024-11-08T17:00:00	8	Radiación solar	9
81857	7	Sololá	717	San Juan la Laguna	12	San Juan la Laguna	10	Octubre	2023-07-10T00:00:00	2024-11-08T18:00:00	2	Temperatura media	18.4
81858	7	Sololá	717	San Juan la Laguna	12	San Juan la Laguna	10	Octubre	2023-07-10T00:00:00	2024-11-08T18:00:00	4	Temperatura máxima	18.7
81859	7	Sololá	717	San Juan la Laguna	12	San Juan la Laguna	10	Octubre	2023-07-10T00:00:00	2024-11-08T18:00:00	3	Temperatura mínima	18.3
81860	7	Sololá	717	San Juan la Laguna	12	San Juan la Laguna	10	Octubre	2023-07-10T00:00:00	2024-11-08T18:00:00	5	Humedad	90
81861	7	Sololá	717	San Juan la Laguna	12	San Juan la Laguna	10	Octubre	2023-07-10T00:00:00	2024-11-08T18:00:00	6	Velocidad del viento	3.2
81862	7	Sololá	717	San Juan la Laguna	12	San Juan la Laguna	10	Octubre	2023-07-10T00:00:00	2024-11-08T18:00:00	7	Dirección del viento	3.22
81863	7	Sololá	717	San Juan la Laguna	12	San Juan la Laguna	10	Octubre	2023-07-10T00:00:00	2024-11-08T18:00:00	1	Precipitación	2.8
81864	7	Sololá	717	San Juan la Laguna	12	San Juan la Laguna	10	Octubre	2023-07-10T00:00:00	2024-11-08T18:00:00	8	Radiación solar	0
81865	7	Sololá	717	San Juan la Laguna	12	San Juan la Laguna	10	Octubre	2023-07-10T00:00:00	2024-11-08T19:00:00	2	Temperatura media	18.7
81866	7	Sololá	717	San Juan la Laguna	12	San Juan la Laguna	10	Octubre	2023-07-10T00:00:00	2024-11-08T19:00:00	4	Temperatura máxima	18.8
81867	7	Sololá	717	San Juan la Laguna	12	San Juan la Laguna	10	Octubre	2023-07-10T00:00:00	2024-11-08T19:00:00	3	Temperatura mínima	18.4
81868	7	Sololá	717	San Juan la Laguna	12	San Juan la Laguna	10	Octubre	2023-07-10T00:00:00	2024-11-08T19:00:00	5	Humedad	91
81869	7	Sololá	717	San Juan la Laguna	12	San Juan la Laguna	10	Octubre	2023-07-10T00:00:00	2024-11-08T19:00:00	6	Velocidad del viento	1.6
81870	7	Sololá	717	San Juan la Laguna	12	San Juan la Laguna	10	Octubre	2023-07-10T00:00:00	2024-11-08T19:00:00	7	Dirección del viento	1.61
81871	7	Sololá	717	San Juan la Laguna	12	San Juan la Laguna	10	Octubre	2023-07-10T00:00:00	2024-11-08T19:00:00	1	Precipitación	1
81872	7	Sololá	717	San Juan la Laguna	12	San Juan la Laguna	10	Octubre	2023-07-10T00:00:00	2024-11-08T19:00:00	8	Radiación solar	0
81873	7	Sololá	717	San Juan la Laguna	12	San Juan la Laguna	10	Octubre	2023-07-10T00:00:00	2024-11-08T20:00:00	2	Temperatura media	18.6
81874	7	Sololá	717	San Juan la Laguna	12	San Juan la Laguna	10	Octubre	2023-07-10T00:00:00	2024-11-08T20:00:00	4	Temperatura máxima	18.7
81875	7	Sololá	717	San Juan la Laguna	12	San Juan la Laguna	10	Octubre	2023-07-10T00:00:00	2024-11-08T20:00:00	3	Temperatura mínima	18.3
81876	7	Sololá	717	San Juan la Laguna	12	San Juan la Laguna	10	Octubre	2023-07-10T00:00:00	2024-11-08T20:00:00	5	Humedad	91
81877	7	Sololá	717	San Juan la Laguna	12	San Juan la Laguna	10	Octubre	2023-07-10T00:00:00	2024-11-08T20:00:00	6	Velocidad del viento	0
81878	7	Sololá	717	San Juan la Laguna	12	San Juan la Laguna	10	Octubre	2023-07-10T00:00:00	2024-11-08T20:00:00	7	Dirección del viento	0
81879	7	Sololá	717	San Juan la Laguna	12	San Juan la Laguna	10	Octubre	2023-07-10T00:00:00	2024-11-08T20:00:00	1	Precipitación	2.8
81880	7	Sololá	717	San Juan la Laguna	12	San Juan la Laguna	10	Octubre	2023-07-10T00:00:00	2024-11-08T20:00:00	8	Radiación solar	0
81881	7	Sololá	717	San Juan la Laguna	12	San Juan la Laguna	10	Octubre	2023-07-10T00:00:00	2024-11-08T21:00:00	2	Temperatura media	17.7
81882	7	Sololá	717	San Juan la Laguna	12	San Juan la Laguna	10	Octubre	2023-07-10T00:00:00	2024-11-08T21:00:00	4	Temperatura máxima	18.7
81883	7	Sololá	717	San Juan la Laguna	12	San Juan la Laguna	10	Octubre	2023-07-10T00:00:00	2024-11-08T21:00:00	3	Temperatura mínima	17.7
81884	7	Sololá	717	San Juan la Laguna	12	San Juan la Laguna	10	Octubre	2023-07-10T00:00:00	2024-11-08T21:00:00	5	Humedad	91
81885	7	Sololá	717	San Juan la Laguna	12	San Juan la Laguna	10	Octubre	2023-07-10T00:00:00	2024-11-08T21:00:00	6	Velocidad del viento	1.6
81886	7	Sololá	717	San Juan la Laguna	12	San Juan la Laguna	10	Octubre	2023-07-10T00:00:00	2024-11-08T21:00:00	7	Dirección del viento	1.61
81887	7	Sololá	717	San Juan la Laguna	12	San Juan la Laguna	10	Octubre	2023-07-10T00:00:00	2024-11-08T21:00:00	1	Precipitación	15.6
81888	7	Sololá	717	San Juan la Laguna	12	San Juan la Laguna	10	Octubre	2023-07-10T00:00:00	2024-11-08T21:00:00	8	Radiación solar	0
81889	7	Sololá	717	San Juan la Laguna	12	San Juan la Laguna	10	Octubre	2023-07-10T00:00:00	2024-11-08T22:00:00	2	Temperatura media	17.7
81890	7	Sololá	717	San Juan la Laguna	12	San Juan la Laguna	10	Octubre	2023-07-10T00:00:00	2024-11-08T22:00:00	4	Temperatura máxima	17.9
81891	7	Sololá	717	San Juan la Laguna	12	San Juan la Laguna	10	Octubre	2023-07-10T00:00:00	2024-11-08T22:00:00	3	Temperatura mínima	17.7
81892	7	Sololá	717	San Juan la Laguna	12	San Juan la Laguna	10	Octubre	2023-07-10T00:00:00	2024-11-08T22:00:00	5	Humedad	91
81893	7	Sololá	717	San Juan la Laguna	12	San Juan la Laguna	10	Octubre	2023-07-10T00:00:00	2024-11-08T22:00:00	6	Velocidad del viento	0
81894	7	Sololá	717	San Juan la Laguna	12	San Juan la Laguna	10	Octubre	2023-07-10T00:00:00	2024-11-08T22:00:00	7	Dirección del viento	0
81895	7	Sololá	717	San Juan la Laguna	12	San Juan la Laguna	10	Octubre	2023-07-10T00:00:00	2024-11-08T22:00:00	1	Precipitación	5.6
81896	7	Sololá	717	San Juan la Laguna	12	San Juan la Laguna	10	Octubre	2023-07-10T00:00:00	2024-11-08T22:00:00	8	Radiación solar	0
81897	7	Sololá	717	San Juan la Laguna	12	San Juan la Laguna	10	Octubre	2023-07-10T00:00:00	2024-11-08T23:00:00	2	Temperatura media	17.6
81898	7	Sololá	717	San Juan la Laguna	12	San Juan la Laguna	10	Octubre	2023-07-10T00:00:00	2024-11-08T23:00:00	4	Temperatura máxima	17.7
81899	7	Sololá	717	San Juan la Laguna	12	San Juan la Laguna	10	Octubre	2023-07-10T00:00:00	2024-11-08T23:00:00	3	Temperatura mínima	17.6
81900	7	Sololá	717	San Juan la Laguna	12	San Juan la Laguna	10	Octubre	2023-07-10T00:00:00	2024-11-08T23:00:00	5	Humedad	91
81901	7	Sololá	717	San Juan la Laguna	12	San Juan la Laguna	10	Octubre	2023-07-10T00:00:00	2024-11-08T23:00:00	6	Velocidad del viento	0
81902	7	Sololá	717	San Juan la Laguna	12	San Juan la Laguna	10	Octubre	2023-07-10T00:00:00	2024-11-08T23:00:00	7	Dirección del viento	0
81903	7	Sololá	717	San Juan la Laguna	12	San Juan la Laguna	10	Octubre	2023-07-10T00:00:00	2024-11-08T23:00:00	1	Precipitación	1.2
81904	7	Sololá	717	San Juan la Laguna	12	San Juan la Laguna	10	Octubre	2023-07-10T00:00:00	2024-11-08T23:00:00	8	Radiación solar	0
81905	7	Sololá	717	San Juan la Laguna	12	San Juan la Laguna	10	Octubre	2023-08-10T00:00:00	2024-11-08T00:00:00	2	Temperatura media	17.3
81906	7	Sololá	717	San Juan la Laguna	12	San Juan la Laguna	10	Octubre	2023-08-10T00:00:00	2024-11-08T00:00:00	4	Temperatura máxima	17.6
81907	7	Sololá	717	San Juan la Laguna	12	San Juan la Laguna	10	Octubre	2023-08-10T00:00:00	2024-11-08T00:00:00	3	Temperatura mínima	17.3
81908	7	Sololá	717	San Juan la Laguna	12	San Juan la Laguna	10	Octubre	2023-08-10T00:00:00	2024-11-08T00:00:00	5	Humedad	91
81909	7	Sololá	717	San Juan la Laguna	12	San Juan la Laguna	10	Octubre	2023-08-10T00:00:00	2024-11-08T00:00:00	6	Velocidad del viento	0
81910	7	Sololá	717	San Juan la Laguna	12	San Juan la Laguna	10	Octubre	2023-08-10T00:00:00	2024-11-08T00:00:00	7	Dirección del viento	0
81911	7	Sololá	717	San Juan la Laguna	12	San Juan la Laguna	10	Octubre	2023-08-10T00:00:00	2024-11-08T00:00:00	1	Precipitación	1
81912	7	Sololá	717	San Juan la Laguna	12	San Juan la Laguna	10	Octubre	2023-08-10T00:00:00	2024-11-08T00:00:00	8	Radiación solar	0
81913	7	Sololá	717	San Juan la Laguna	12	San Juan la Laguna	10	Octubre	2023-08-10T00:00:00	2024-11-08T01:00:00	2	Temperatura media	17.4
81914	7	Sololá	717	San Juan la Laguna	12	San Juan la Laguna	10	Octubre	2023-08-10T00:00:00	2024-11-08T01:00:00	4	Temperatura máxima	17.7
81915	7	Sololá	717	San Juan la Laguna	12	San Juan la Laguna	10	Octubre	2023-08-10T00:00:00	2024-11-08T01:00:00	3	Temperatura mínima	17.3
81916	7	Sololá	717	San Juan la Laguna	12	San Juan la Laguna	10	Octubre	2023-08-10T00:00:00	2024-11-08T01:00:00	5	Humedad	91
81917	7	Sololá	717	San Juan la Laguna	12	San Juan la Laguna	10	Octubre	2023-08-10T00:00:00	2024-11-08T01:00:00	6	Velocidad del viento	1.6
81918	7	Sololá	717	San Juan la Laguna	12	San Juan la Laguna	10	Octubre	2023-08-10T00:00:00	2024-11-08T01:00:00	7	Dirección del viento	1.61
81919	7	Sololá	717	San Juan la Laguna	12	San Juan la Laguna	10	Octubre	2023-08-10T00:00:00	2024-11-08T01:00:00	1	Precipitación	0
81920	7	Sololá	717	San Juan la Laguna	12	San Juan la Laguna	10	Octubre	2023-08-10T00:00:00	2024-11-08T01:00:00	8	Radiación solar	0
81921	7	Sololá	717	San Juan la Laguna	12	San Juan la Laguna	10	Octubre	2023-08-10T00:00:00	2024-11-08T02:00:00	2	Temperatura media	16.9
81922	7	Sololá	717	San Juan la Laguna	12	San Juan la Laguna	10	Octubre	2023-08-10T00:00:00	2024-11-08T02:00:00	4	Temperatura máxima	17.4
81923	7	Sololá	717	San Juan la Laguna	12	San Juan la Laguna	10	Octubre	2023-08-10T00:00:00	2024-11-08T02:00:00	3	Temperatura mínima	16.9
81924	7	Sololá	717	San Juan la Laguna	12	San Juan la Laguna	10	Octubre	2023-08-10T00:00:00	2024-11-08T02:00:00	5	Humedad	91
81925	7	Sololá	717	San Juan la Laguna	12	San Juan la Laguna	10	Octubre	2023-08-10T00:00:00	2024-11-08T02:00:00	6	Velocidad del viento	0
81926	7	Sololá	717	San Juan la Laguna	12	San Juan la Laguna	10	Octubre	2023-08-10T00:00:00	2024-11-08T02:00:00	7	Dirección del viento	0
81927	7	Sololá	717	San Juan la Laguna	12	San Juan la Laguna	10	Octubre	2023-08-10T00:00:00	2024-11-08T02:00:00	1	Precipitación	0.2
81928	7	Sololá	717	San Juan la Laguna	12	San Juan la Laguna	10	Octubre	2023-08-10T00:00:00	2024-11-08T02:00:00	8	Radiación solar	0
81929	7	Sololá	717	San Juan la Laguna	12	San Juan la Laguna	10	Octubre	2023-08-10T00:00:00	2024-11-08T03:00:00	2	Temperatura media	16.7
81930	7	Sololá	717	San Juan la Laguna	12	San Juan la Laguna	10	Octubre	2023-08-10T00:00:00	2024-11-08T03:00:00	4	Temperatura máxima	16.9
81931	7	Sololá	717	San Juan la Laguna	12	San Juan la Laguna	10	Octubre	2023-08-10T00:00:00	2024-11-08T03:00:00	3	Temperatura mínima	16.7
81932	7	Sololá	717	San Juan la Laguna	12	San Juan la Laguna	10	Octubre	2023-08-10T00:00:00	2024-11-08T03:00:00	5	Humedad	91
81933	7	Sololá	717	San Juan la Laguna	12	San Juan la Laguna	10	Octubre	2023-08-10T00:00:00	2024-11-08T03:00:00	6	Velocidad del viento	0
81934	7	Sololá	717	San Juan la Laguna	12	San Juan la Laguna	10	Octubre	2023-08-10T00:00:00	2024-11-08T03:00:00	7	Dirección del viento	0
81935	7	Sololá	717	San Juan la Laguna	12	San Juan la Laguna	10	Octubre	2023-08-10T00:00:00	2024-11-08T03:00:00	1	Precipitación	0
81936	7	Sololá	717	San Juan la Laguna	12	San Juan la Laguna	10	Octubre	2023-08-10T00:00:00	2024-11-08T03:00:00	8	Radiación solar	0
81937	7	Sololá	717	San Juan la Laguna	12	San Juan la Laguna	10	Octubre	2023-08-10T00:00:00	2024-11-08T04:00:00	2	Temperatura media	16.3
81938	7	Sololá	717	San Juan la Laguna	12	San Juan la Laguna	10	Octubre	2023-08-10T00:00:00	2024-11-08T04:00:00	4	Temperatura máxima	16.7
81939	7	Sololá	717	San Juan la Laguna	12	San Juan la Laguna	10	Octubre	2023-08-10T00:00:00	2024-11-08T04:00:00	3	Temperatura mínima	16.3
81940	7	Sololá	717	San Juan la Laguna	12	San Juan la Laguna	10	Octubre	2023-08-10T00:00:00	2024-11-08T04:00:00	5	Humedad	91
81941	7	Sololá	717	San Juan la Laguna	12	San Juan la Laguna	10	Octubre	2023-08-10T00:00:00	2024-11-08T04:00:00	6	Velocidad del viento	0
81942	7	Sololá	717	San Juan la Laguna	12	San Juan la Laguna	10	Octubre	2023-08-10T00:00:00	2024-11-08T04:00:00	7	Dirección del viento	0
81943	7	Sololá	717	San Juan la Laguna	12	San Juan la Laguna	10	Octubre	2023-08-10T00:00:00	2024-11-08T04:00:00	1	Precipitación	0
81944	7	Sololá	717	San Juan la Laguna	12	San Juan la Laguna	10	Octubre	2023-08-10T00:00:00	2024-11-08T04:00:00	8	Radiación solar	0
81945	7	Sololá	717	San Juan la Laguna	12	San Juan la Laguna	10	Octubre	2023-08-10T00:00:00	2024-11-08T05:00:00	2	Temperatura media	16.7
81946	7	Sololá	717	San Juan la Laguna	12	San Juan la Laguna	10	Octubre	2023-08-10T00:00:00	2024-11-08T05:00:00	4	Temperatura máxima	16.7
81947	7	Sololá	717	San Juan la Laguna	12	San Juan la Laguna	10	Octubre	2023-08-10T00:00:00	2024-11-08T05:00:00	3	Temperatura mínima	16.3
81948	7	Sololá	717	San Juan la Laguna	12	San Juan la Laguna	10	Octubre	2023-08-10T00:00:00	2024-11-08T05:00:00	5	Humedad	91
81949	7	Sololá	717	San Juan la Laguna	12	San Juan la Laguna	10	Octubre	2023-08-10T00:00:00	2024-11-08T05:00:00	6	Velocidad del viento	3.2
81950	7	Sololá	717	San Juan la Laguna	12	San Juan la Laguna	10	Octubre	2023-08-10T00:00:00	2024-11-08T05:00:00	7	Dirección del viento	3.22
81951	7	Sololá	717	San Juan la Laguna	12	San Juan la Laguna	10	Octubre	2023-08-10T00:00:00	2024-11-08T05:00:00	1	Precipitación	0
81952	7	Sololá	717	San Juan la Laguna	12	San Juan la Laguna	10	Octubre	2023-08-10T00:00:00	2024-11-08T05:00:00	8	Radiación solar	0
81953	7	Sololá	717	San Juan la Laguna	12	San Juan la Laguna	10	Octubre	2023-08-10T00:00:00	2024-11-08T06:00:00	2	Temperatura media	17.1
81954	7	Sololá	717	San Juan la Laguna	12	San Juan la Laguna	10	Octubre	2023-08-10T00:00:00	2024-11-08T06:00:00	4	Temperatura máxima	17.1
81955	7	Sololá	717	San Juan la Laguna	12	San Juan la Laguna	10	Octubre	2023-08-10T00:00:00	2024-11-08T06:00:00	3	Temperatura mínima	16.7
81956	7	Sololá	717	San Juan la Laguna	12	San Juan la Laguna	10	Octubre	2023-08-10T00:00:00	2024-11-08T06:00:00	5	Humedad	89
81957	7	Sololá	717	San Juan la Laguna	12	San Juan la Laguna	10	Octubre	2023-08-10T00:00:00	2024-11-08T06:00:00	6	Velocidad del viento	3.2
81958	7	Sololá	717	San Juan la Laguna	12	San Juan la Laguna	10	Octubre	2023-08-10T00:00:00	2024-11-08T06:00:00	7	Dirección del viento	3.22
81959	7	Sololá	717	San Juan la Laguna	12	San Juan la Laguna	10	Octubre	2023-08-10T00:00:00	2024-11-08T06:00:00	1	Precipitación	0
81960	7	Sololá	717	San Juan la Laguna	12	San Juan la Laguna	10	Octubre	2023-08-10T00:00:00	2024-11-08T06:00:00	8	Radiación solar	0
81961	7	Sololá	717	San Juan la Laguna	12	San Juan la Laguna	10	Octubre	2023-08-10T00:00:00	2024-11-08T07:00:00	2	Temperatura media	17
81962	7	Sololá	717	San Juan la Laguna	12	San Juan la Laguna	10	Octubre	2023-08-10T00:00:00	2024-11-08T07:00:00	4	Temperatura máxima	17.2
81963	7	Sololá	717	San Juan la Laguna	12	San Juan la Laguna	10	Octubre	2023-08-10T00:00:00	2024-11-08T07:00:00	3	Temperatura mínima	16.8
81964	7	Sololá	717	San Juan la Laguna	12	San Juan la Laguna	10	Octubre	2023-08-10T00:00:00	2024-11-08T07:00:00	5	Humedad	90
81965	7	Sololá	717	San Juan la Laguna	12	San Juan la Laguna	10	Octubre	2023-08-10T00:00:00	2024-11-08T07:00:00	6	Velocidad del viento	0
81966	7	Sololá	717	San Juan la Laguna	12	San Juan la Laguna	10	Octubre	2023-08-10T00:00:00	2024-11-08T07:00:00	7	Dirección del viento	0
81967	7	Sololá	717	San Juan la Laguna	12	San Juan la Laguna	10	Octubre	2023-08-10T00:00:00	2024-11-08T07:00:00	1	Precipitación	0
81968	7	Sololá	717	San Juan la Laguna	12	San Juan la Laguna	10	Octubre	2023-08-10T00:00:00	2024-11-08T07:00:00	8	Radiación solar	17
81969	7	Sololá	717	San Juan la Laguna	12	San Juan la Laguna	10	Octubre	2023-08-10T00:00:00	2024-11-08T08:00:00	2	Temperatura media	18.9
81970	7	Sololá	717	San Juan la Laguna	12	San Juan la Laguna	10	Octubre	2023-08-10T00:00:00	2024-11-08T08:00:00	4	Temperatura máxima	18.9
81971	7	Sololá	717	San Juan la Laguna	12	San Juan la Laguna	10	Octubre	2023-08-10T00:00:00	2024-11-08T08:00:00	3	Temperatura mínima	17
81972	7	Sololá	717	San Juan la Laguna	12	San Juan la Laguna	10	Octubre	2023-08-10T00:00:00	2024-11-08T08:00:00	5	Humedad	88
81973	7	Sololá	717	San Juan la Laguna	12	San Juan la Laguna	10	Octubre	2023-08-10T00:00:00	2024-11-08T08:00:00	6	Velocidad del viento	1.6
81974	7	Sololá	717	San Juan la Laguna	12	San Juan la Laguna	10	Octubre	2023-08-10T00:00:00	2024-11-08T08:00:00	7	Dirección del viento	1.61
81975	7	Sololá	717	San Juan la Laguna	12	San Juan la Laguna	10	Octubre	2023-08-10T00:00:00	2024-11-08T08:00:00	1	Precipitación	0
81976	7	Sololá	717	San Juan la Laguna	12	San Juan la Laguna	10	Octubre	2023-08-10T00:00:00	2024-11-08T08:00:00	8	Radiación solar	127
81977	7	Sololá	717	San Juan la Laguna	12	San Juan la Laguna	10	Octubre	2023-08-10T00:00:00	2024-11-08T09:00:00	2	Temperatura media	20.6
81978	7	Sololá	717	San Juan la Laguna	12	San Juan la Laguna	10	Octubre	2023-08-10T00:00:00	2024-11-08T09:00:00	4	Temperatura máxima	20.6
81979	7	Sololá	717	San Juan la Laguna	12	San Juan la Laguna	10	Octubre	2023-08-10T00:00:00	2024-11-08T09:00:00	3	Temperatura mínima	18.9
81980	7	Sololá	717	San Juan la Laguna	12	San Juan la Laguna	10	Octubre	2023-08-10T00:00:00	2024-11-08T09:00:00	5	Humedad	79
81981	7	Sololá	717	San Juan la Laguna	12	San Juan la Laguna	10	Octubre	2023-08-10T00:00:00	2024-11-08T09:00:00	6	Velocidad del viento	1.6
81982	7	Sololá	717	San Juan la Laguna	12	San Juan la Laguna	10	Octubre	2023-08-10T00:00:00	2024-11-08T09:00:00	7	Dirección del viento	1.61
81983	7	Sololá	717	San Juan la Laguna	12	San Juan la Laguna	10	Octubre	2023-08-10T00:00:00	2024-11-08T09:00:00	1	Precipitación	0
81984	7	Sololá	717	San Juan la Laguna	12	San Juan la Laguna	10	Octubre	2023-08-10T00:00:00	2024-11-08T09:00:00	8	Radiación solar	278
81985	7	Sololá	717	San Juan la Laguna	12	San Juan la Laguna	10	Octubre	2023-08-10T00:00:00	2024-11-08T10:00:00	2	Temperatura media	23.3
81986	7	Sololá	717	San Juan la Laguna	12	San Juan la Laguna	10	Octubre	2023-08-10T00:00:00	2024-11-08T10:00:00	4	Temperatura máxima	23.4
81987	7	Sololá	717	San Juan la Laguna	12	San Juan la Laguna	10	Octubre	2023-08-10T00:00:00	2024-11-08T10:00:00	3	Temperatura mínima	20.6
81988	7	Sololá	717	San Juan la Laguna	12	San Juan la Laguna	10	Octubre	2023-08-10T00:00:00	2024-11-08T10:00:00	5	Humedad	70
81989	7	Sololá	717	San Juan la Laguna	12	San Juan la Laguna	10	Octubre	2023-08-10T00:00:00	2024-11-08T10:00:00	6	Velocidad del viento	3.2
81990	7	Sololá	717	San Juan la Laguna	12	San Juan la Laguna	10	Octubre	2023-08-10T00:00:00	2024-11-08T10:00:00	7	Dirección del viento	3.22
81991	7	Sololá	717	San Juan la Laguna	12	San Juan la Laguna	10	Octubre	2023-08-10T00:00:00	2024-11-08T10:00:00	1	Precipitación	0
81992	7	Sololá	717	San Juan la Laguna	12	San Juan la Laguna	10	Octubre	2023-08-10T00:00:00	2024-11-08T10:00:00	8	Radiación solar	464
81993	7	Sololá	717	San Juan la Laguna	12	San Juan la Laguna	10	Octubre	2023-08-10T00:00:00	2024-11-08T11:00:00	2	Temperatura media	22.9
81994	7	Sololá	717	San Juan la Laguna	12	San Juan la Laguna	10	Octubre	2023-08-10T00:00:00	2024-11-08T11:00:00	4	Temperatura máxima	23.3
81995	7	Sololá	717	San Juan la Laguna	12	San Juan la Laguna	10	Octubre	2023-08-10T00:00:00	2024-11-08T11:00:00	3	Temperatura mínima	22.5
81996	7	Sololá	717	San Juan la Laguna	12	San Juan la Laguna	10	Octubre	2023-08-10T00:00:00	2024-11-08T11:00:00	5	Humedad	72
81997	7	Sololá	717	San Juan la Laguna	12	San Juan la Laguna	10	Octubre	2023-08-10T00:00:00	2024-11-08T11:00:00	6	Velocidad del viento	0
81998	7	Sololá	717	San Juan la Laguna	12	San Juan la Laguna	10	Octubre	2023-08-10T00:00:00	2024-11-08T11:00:00	7	Dirección del viento	0
81999	7	Sololá	717	San Juan la Laguna	12	San Juan la Laguna	10	Octubre	2023-08-10T00:00:00	2024-11-08T11:00:00	1	Precipitación	0
82000	7	Sololá	717	San Juan la Laguna	12	San Juan la Laguna	10	Octubre	2023-08-10T00:00:00	2024-11-08T11:00:00	8	Radiación solar	510
82001	7	Sololá	717	San Juan la Laguna	12	San Juan la Laguna	10	Octubre	2023-08-10T00:00:00	2024-11-08T12:00:00	2	Temperatura media	23.8
82002	7	Sololá	717	San Juan la Laguna	12	San Juan la Laguna	10	Octubre	2023-08-10T00:00:00	2024-11-08T12:00:00	4	Temperatura máxima	23.8
82003	7	Sololá	717	San Juan la Laguna	12	San Juan la Laguna	10	Octubre	2023-08-10T00:00:00	2024-11-08T12:00:00	3	Temperatura mínima	22.7
82004	7	Sololá	717	San Juan la Laguna	12	San Juan la Laguna	10	Octubre	2023-08-10T00:00:00	2024-11-08T12:00:00	5	Humedad	71
82005	7	Sololá	717	San Juan la Laguna	12	San Juan la Laguna	10	Octubre	2023-08-10T00:00:00	2024-11-08T12:00:00	6	Velocidad del viento	0
82006	7	Sololá	717	San Juan la Laguna	12	San Juan la Laguna	10	Octubre	2023-08-10T00:00:00	2024-11-08T12:00:00	7	Dirección del viento	0
82007	7	Sololá	717	San Juan la Laguna	12	San Juan la Laguna	10	Octubre	2023-08-10T00:00:00	2024-11-08T12:00:00	1	Precipitación	0
82008	7	Sololá	717	San Juan la Laguna	12	San Juan la Laguna	10	Octubre	2023-08-10T00:00:00	2024-11-08T12:00:00	8	Radiación solar	636
82009	7	Sololá	717	San Juan la Laguna	12	San Juan la Laguna	10	Octubre	2023-08-10T00:00:00	2024-11-08T13:00:00	2	Temperatura media	24.7
82010	7	Sololá	717	San Juan la Laguna	12	San Juan la Laguna	10	Octubre	2023-08-10T00:00:00	2024-11-08T13:00:00	4	Temperatura máxima	24.7
82011	7	Sololá	717	San Juan la Laguna	12	San Juan la Laguna	10	Octubre	2023-08-10T00:00:00	2024-11-08T13:00:00	3	Temperatura mínima	23.3
82012	7	Sololá	717	San Juan la Laguna	12	San Juan la Laguna	10	Octubre	2023-08-10T00:00:00	2024-11-08T13:00:00	5	Humedad	70
82013	7	Sololá	717	San Juan la Laguna	12	San Juan la Laguna	10	Octubre	2023-08-10T00:00:00	2024-11-08T13:00:00	6	Velocidad del viento	0
82014	7	Sololá	717	San Juan la Laguna	12	San Juan la Laguna	10	Octubre	2023-08-10T00:00:00	2024-11-08T13:00:00	7	Dirección del viento	0
82015	7	Sololá	717	San Juan la Laguna	12	San Juan la Laguna	10	Octubre	2023-08-10T00:00:00	2024-11-08T13:00:00	1	Precipitación	0
82016	7	Sololá	717	San Juan la Laguna	12	San Juan la Laguna	10	Octubre	2023-08-10T00:00:00	2024-11-08T13:00:00	8	Radiación solar	828
82017	7	Sololá	717	San Juan la Laguna	12	San Juan la Laguna	10	Octubre	2023-08-10T00:00:00	2024-11-08T14:00:00	2	Temperatura media	24.7
82018	7	Sololá	717	San Juan la Laguna	12	San Juan la Laguna	10	Octubre	2023-08-10T00:00:00	2024-11-08T14:00:00	4	Temperatura máxima	24.9
82019	7	Sololá	717	San Juan la Laguna	12	San Juan la Laguna	10	Octubre	2023-08-10T00:00:00	2024-11-08T14:00:00	3	Temperatura mínima	24.1
82020	7	Sololá	717	San Juan la Laguna	12	San Juan la Laguna	10	Octubre	2023-08-10T00:00:00	2024-11-08T14:00:00	5	Humedad	70
82021	7	Sololá	717	San Juan la Laguna	12	San Juan la Laguna	10	Octubre	2023-08-10T00:00:00	2024-11-08T14:00:00	6	Velocidad del viento	0
82022	7	Sololá	717	San Juan la Laguna	12	San Juan la Laguna	10	Octubre	2023-08-10T00:00:00	2024-11-08T14:00:00	7	Dirección del viento	0
82023	7	Sololá	717	San Juan la Laguna	12	San Juan la Laguna	10	Octubre	2023-08-10T00:00:00	2024-11-08T14:00:00	1	Precipitación	0
82024	7	Sololá	717	San Juan la Laguna	12	San Juan la Laguna	10	Octubre	2023-08-10T00:00:00	2024-11-08T14:00:00	8	Radiación solar	811
82025	7	Sololá	717	San Juan la Laguna	12	San Juan la Laguna	10	Octubre	2023-08-10T00:00:00	2024-11-08T15:00:00	2	Temperatura media	26.2
82026	7	Sololá	717	San Juan la Laguna	12	San Juan la Laguna	10	Octubre	2023-08-10T00:00:00	2024-11-08T15:00:00	4	Temperatura máxima	26.2
82027	7	Sololá	717	San Juan la Laguna	12	San Juan la Laguna	10	Octubre	2023-08-10T00:00:00	2024-11-08T15:00:00	3	Temperatura mínima	24.6
82028	7	Sololá	717	San Juan la Laguna	12	San Juan la Laguna	10	Octubre	2023-08-10T00:00:00	2024-11-08T15:00:00	5	Humedad	60
82029	7	Sololá	717	San Juan la Laguna	12	San Juan la Laguna	10	Octubre	2023-08-10T00:00:00	2024-11-08T15:00:00	6	Velocidad del viento	0
82030	7	Sololá	717	San Juan la Laguna	12	San Juan la Laguna	10	Octubre	2023-08-10T00:00:00	2024-11-08T15:00:00	7	Dirección del viento	0
82031	7	Sololá	717	San Juan la Laguna	12	San Juan la Laguna	10	Octubre	2023-08-10T00:00:00	2024-11-08T15:00:00	1	Precipitación	0
82032	7	Sololá	717	San Juan la Laguna	12	San Juan la Laguna	10	Octubre	2023-08-10T00:00:00	2024-11-08T15:00:00	8	Radiación solar	673
82033	7	Sololá	717	San Juan la Laguna	12	San Juan la Laguna	10	Octubre	2023-08-10T00:00:00	2024-11-08T16:00:00	2	Temperatura media	24.7
82034	7	Sololá	717	San Juan la Laguna	12	San Juan la Laguna	10	Octubre	2023-08-10T00:00:00	2024-11-08T16:00:00	4	Temperatura máxima	26.2
82035	7	Sololá	717	San Juan la Laguna	12	San Juan la Laguna	10	Octubre	2023-08-10T00:00:00	2024-11-08T16:00:00	3	Temperatura mínima	24.6
82036	7	Sololá	717	San Juan la Laguna	12	San Juan la Laguna	10	Octubre	2023-08-10T00:00:00	2024-11-08T16:00:00	5	Humedad	74
82037	7	Sololá	717	San Juan la Laguna	12	San Juan la Laguna	10	Octubre	2023-08-10T00:00:00	2024-11-08T16:00:00	6	Velocidad del viento	4.8
82038	7	Sololá	717	San Juan la Laguna	12	San Juan la Laguna	10	Octubre	2023-08-10T00:00:00	2024-11-08T16:00:00	7	Dirección del viento	4.83
82039	7	Sololá	717	San Juan la Laguna	12	San Juan la Laguna	10	Octubre	2023-08-10T00:00:00	2024-11-08T16:00:00	1	Precipitación	0
82040	7	Sololá	717	San Juan la Laguna	12	San Juan la Laguna	10	Octubre	2023-08-10T00:00:00	2024-11-08T16:00:00	8	Radiación solar	618
82041	7	Sololá	717	San Juan la Laguna	12	San Juan la Laguna	10	Octubre	2023-08-10T00:00:00	2024-11-08T17:00:00	2	Temperatura media	19.2
82042	7	Sololá	717	San Juan la Laguna	12	San Juan la Laguna	10	Octubre	2023-08-10T00:00:00	2024-11-08T17:00:00	4	Temperatura máxima	24.7
82043	7	Sololá	717	San Juan la Laguna	12	San Juan la Laguna	10	Octubre	2023-08-10T00:00:00	2024-11-08T17:00:00	3	Temperatura mínima	19.2
82044	7	Sololá	717	San Juan la Laguna	12	San Juan la Laguna	10	Octubre	2023-08-10T00:00:00	2024-11-08T17:00:00	5	Humedad	88
82045	7	Sololá	717	San Juan la Laguna	12	San Juan la Laguna	10	Octubre	2023-08-10T00:00:00	2024-11-08T17:00:00	6	Velocidad del viento	3.2
82046	7	Sololá	717	San Juan la Laguna	12	San Juan la Laguna	10	Octubre	2023-08-10T00:00:00	2024-11-08T17:00:00	7	Dirección del viento	3.22
82047	7	Sololá	717	San Juan la Laguna	12	San Juan la Laguna	10	Octubre	2023-08-10T00:00:00	2024-11-08T17:00:00	1	Precipitación	6.8
82048	7	Sololá	717	San Juan la Laguna	12	San Juan la Laguna	10	Octubre	2023-08-10T00:00:00	2024-11-08T17:00:00	8	Radiación solar	98
82049	7	Sololá	717	San Juan la Laguna	12	San Juan la Laguna	10	Octubre	2023-08-10T00:00:00	2024-11-08T18:00:00	2	Temperatura media	18.4
82050	7	Sololá	717	San Juan la Laguna	12	San Juan la Laguna	10	Octubre	2023-08-10T00:00:00	2024-11-08T18:00:00	4	Temperatura máxima	19.2
82051	7	Sololá	717	San Juan la Laguna	12	San Juan la Laguna	10	Octubre	2023-08-10T00:00:00	2024-11-08T18:00:00	3	Temperatura mínima	18.1
82052	7	Sololá	717	San Juan la Laguna	12	San Juan la Laguna	10	Octubre	2023-08-10T00:00:00	2024-11-08T18:00:00	5	Humedad	90
82053	7	Sololá	717	San Juan la Laguna	12	San Juan la Laguna	10	Octubre	2023-08-10T00:00:00	2024-11-08T18:00:00	6	Velocidad del viento	3.2
82054	7	Sololá	717	San Juan la Laguna	12	San Juan la Laguna	10	Octubre	2023-08-10T00:00:00	2024-11-08T18:00:00	7	Dirección del viento	3.22
82055	7	Sololá	717	San Juan la Laguna	12	San Juan la Laguna	10	Octubre	2023-08-10T00:00:00	2024-11-08T18:00:00	1	Precipitación	7.8
82056	7	Sololá	717	San Juan la Laguna	12	San Juan la Laguna	10	Octubre	2023-08-10T00:00:00	2024-11-08T18:00:00	8	Radiación solar	32
82057	7	Sololá	717	San Juan la Laguna	12	San Juan la Laguna	10	Octubre	2023-08-10T00:00:00	2024-11-08T19:00:00	2	Temperatura media	18.3
82058	7	Sololá	717	San Juan la Laguna	12	San Juan la Laguna	10	Octubre	2023-08-10T00:00:00	2024-11-08T19:00:00	4	Temperatura máxima	18.7
82059	7	Sololá	717	San Juan la Laguna	12	San Juan la Laguna	10	Octubre	2023-08-10T00:00:00	2024-11-08T19:00:00	3	Temperatura mínima	18.2
82060	7	Sololá	717	San Juan la Laguna	12	San Juan la Laguna	10	Octubre	2023-08-10T00:00:00	2024-11-08T19:00:00	5	Humedad	90
82061	7	Sololá	717	San Juan la Laguna	12	San Juan la Laguna	10	Octubre	2023-08-10T00:00:00	2024-11-08T19:00:00	6	Velocidad del viento	1.6
82062	7	Sololá	717	San Juan la Laguna	12	San Juan la Laguna	10	Octubre	2023-08-10T00:00:00	2024-11-08T19:00:00	7	Dirección del viento	1.61
82063	7	Sololá	717	San Juan la Laguna	12	San Juan la Laguna	10	Octubre	2023-08-10T00:00:00	2024-11-08T19:00:00	1	Precipitación	0.6
82064	7	Sololá	717	San Juan la Laguna	12	San Juan la Laguna	10	Octubre	2023-08-10T00:00:00	2024-11-08T19:00:00	8	Radiación solar	0
82065	7	Sololá	717	San Juan la Laguna	12	San Juan la Laguna	10	Octubre	2023-08-10T00:00:00	2024-11-08T20:00:00	2	Temperatura media	18.2
82066	7	Sololá	717	San Juan la Laguna	12	San Juan la Laguna	10	Octubre	2023-08-10T00:00:00	2024-11-08T20:00:00	4	Temperatura máxima	18.7
82067	7	Sololá	717	San Juan la Laguna	12	San Juan la Laguna	10	Octubre	2023-08-10T00:00:00	2024-11-08T20:00:00	3	Temperatura mínima	18.1
82068	7	Sololá	717	San Juan la Laguna	12	San Juan la Laguna	10	Octubre	2023-08-10T00:00:00	2024-11-08T20:00:00	5	Humedad	90
82069	7	Sololá	717	San Juan la Laguna	12	San Juan la Laguna	10	Octubre	2023-08-10T00:00:00	2024-11-08T20:00:00	6	Velocidad del viento	1.6
82070	7	Sololá	717	San Juan la Laguna	12	San Juan la Laguna	10	Octubre	2023-08-10T00:00:00	2024-11-08T20:00:00	7	Dirección del viento	1.61
82071	7	Sololá	717	San Juan la Laguna	12	San Juan la Laguna	10	Octubre	2023-08-10T00:00:00	2024-11-08T20:00:00	1	Precipitación	0
82072	7	Sololá	717	San Juan la Laguna	12	San Juan la Laguna	10	Octubre	2023-08-10T00:00:00	2024-11-08T20:00:00	8	Radiación solar	0
82073	7	Sololá	717	San Juan la Laguna	12	San Juan la Laguna	10	Octubre	2023-08-10T00:00:00	2024-11-08T21:00:00	2	Temperatura media	18.1
82074	7	Sololá	717	San Juan la Laguna	12	San Juan la Laguna	10	Octubre	2023-08-10T00:00:00	2024-11-08T21:00:00	4	Temperatura máxima	18.2
82075	7	Sololá	717	San Juan la Laguna	12	San Juan la Laguna	10	Octubre	2023-08-10T00:00:00	2024-11-08T21:00:00	3	Temperatura mínima	18
82076	7	Sololá	717	San Juan la Laguna	12	San Juan la Laguna	10	Octubre	2023-08-10T00:00:00	2024-11-08T21:00:00	5	Humedad	91
82077	7	Sololá	717	San Juan la Laguna	12	San Juan la Laguna	10	Octubre	2023-08-10T00:00:00	2024-11-08T21:00:00	6	Velocidad del viento	0
82078	7	Sololá	717	San Juan la Laguna	12	San Juan la Laguna	10	Octubre	2023-08-10T00:00:00	2024-11-08T21:00:00	7	Dirección del viento	0
82079	7	Sololá	717	San Juan la Laguna	12	San Juan la Laguna	10	Octubre	2023-08-10T00:00:00	2024-11-08T21:00:00	1	Precipitación	1.4
82080	7	Sololá	717	San Juan la Laguna	12	San Juan la Laguna	10	Octubre	2023-08-10T00:00:00	2024-11-08T21:00:00	8	Radiación solar	0
82081	7	Sololá	717	San Juan la Laguna	12	San Juan la Laguna	10	Octubre	2023-08-10T00:00:00	2024-11-08T22:00:00	2	Temperatura media	18.4
82082	7	Sololá	717	San Juan la Laguna	12	San Juan la Laguna	10	Octubre	2023-08-10T00:00:00	2024-11-08T22:00:00	4	Temperatura máxima	18.5
82083	7	Sololá	717	San Juan la Laguna	12	San Juan la Laguna	10	Octubre	2023-08-10T00:00:00	2024-11-08T22:00:00	3	Temperatura mínima	18.1
82084	7	Sololá	717	San Juan la Laguna	12	San Juan la Laguna	10	Octubre	2023-08-10T00:00:00	2024-11-08T22:00:00	5	Humedad	91
82085	7	Sololá	717	San Juan la Laguna	12	San Juan la Laguna	10	Octubre	2023-08-10T00:00:00	2024-11-08T22:00:00	6	Velocidad del viento	0
82086	7	Sololá	717	San Juan la Laguna	12	San Juan la Laguna	10	Octubre	2023-08-10T00:00:00	2024-11-08T22:00:00	7	Dirección del viento	0
82087	7	Sololá	717	San Juan la Laguna	12	San Juan la Laguna	10	Octubre	2023-08-10T00:00:00	2024-11-08T22:00:00	1	Precipitación	2.6
82088	7	Sololá	717	San Juan la Laguna	12	San Juan la Laguna	10	Octubre	2023-08-10T00:00:00	2024-11-08T22:00:00	8	Radiación solar	0
82089	7	Sololá	717	San Juan la Laguna	12	San Juan la Laguna	10	Octubre	2023-08-10T00:00:00	2024-11-08T23:00:00	2	Temperatura media	18.1
82090	7	Sololá	717	San Juan la Laguna	12	San Juan la Laguna	10	Octubre	2023-08-10T00:00:00	2024-11-08T23:00:00	4	Temperatura máxima	18.4
82091	7	Sololá	717	San Juan la Laguna	12	San Juan la Laguna	10	Octubre	2023-08-10T00:00:00	2024-11-08T23:00:00	3	Temperatura mínima	18.1
82092	7	Sololá	717	San Juan la Laguna	12	San Juan la Laguna	10	Octubre	2023-08-10T00:00:00	2024-11-08T23:00:00	5	Humedad	91
82093	7	Sololá	717	San Juan la Laguna	12	San Juan la Laguna	10	Octubre	2023-08-10T00:00:00	2024-11-08T23:00:00	6	Velocidad del viento	0
82094	7	Sololá	717	San Juan la Laguna	12	San Juan la Laguna	10	Octubre	2023-08-10T00:00:00	2024-11-08T23:00:00	7	Dirección del viento	0
82095	7	Sololá	717	San Juan la Laguna	12	San Juan la Laguna	10	Octubre	2023-08-10T00:00:00	2024-11-08T23:00:00	1	Precipitación	0.8
82096	7	Sololá	717	San Juan la Laguna	12	San Juan la Laguna	10	Octubre	2023-08-10T00:00:00	2024-11-08T23:00:00	8	Radiación solar	0
82097	7	Sololá	717	San Juan la Laguna	12	San Juan la Laguna	10	Octubre	2023-09-10T00:00:00	2024-11-08T00:00:00	2	Temperatura media	17.8
82098	7	Sololá	717	San Juan la Laguna	12	San Juan la Laguna	10	Octubre	2023-09-10T00:00:00	2024-11-08T00:00:00	4	Temperatura máxima	18.1
82099	7	Sololá	717	San Juan la Laguna	12	San Juan la Laguna	10	Octubre	2023-09-10T00:00:00	2024-11-08T00:00:00	3	Temperatura mínima	17.8
82100	7	Sololá	717	San Juan la Laguna	12	San Juan la Laguna	10	Octubre	2023-09-10T00:00:00	2024-11-08T00:00:00	5	Humedad	91
82101	7	Sololá	717	San Juan la Laguna	12	San Juan la Laguna	10	Octubre	2023-09-10T00:00:00	2024-11-08T00:00:00	6	Velocidad del viento	0
82102	7	Sololá	717	San Juan la Laguna	12	San Juan la Laguna	10	Octubre	2023-09-10T00:00:00	2024-11-08T00:00:00	7	Dirección del viento	0
82103	7	Sololá	717	San Juan la Laguna	12	San Juan la Laguna	10	Octubre	2023-09-10T00:00:00	2024-11-08T00:00:00	1	Precipitación	0
82104	7	Sololá	717	San Juan la Laguna	12	San Juan la Laguna	10	Octubre	2023-09-10T00:00:00	2024-11-08T00:00:00	8	Radiación solar	0
82105	7	Sololá	717	San Juan la Laguna	12	San Juan la Laguna	10	Octubre	2023-09-10T00:00:00	2024-11-08T01:00:00	2	Temperatura media	17.8
82106	7	Sololá	717	San Juan la Laguna	12	San Juan la Laguna	10	Octubre	2023-09-10T00:00:00	2024-11-08T01:00:00	4	Temperatura máxima	17.9
82107	7	Sololá	717	San Juan la Laguna	12	San Juan la Laguna	10	Octubre	2023-09-10T00:00:00	2024-11-08T01:00:00	3	Temperatura mínima	17.7
82108	7	Sololá	717	San Juan la Laguna	12	San Juan la Laguna	10	Octubre	2023-09-10T00:00:00	2024-11-08T01:00:00	5	Humedad	91
82109	7	Sololá	717	San Juan la Laguna	12	San Juan la Laguna	10	Octubre	2023-09-10T00:00:00	2024-11-08T01:00:00	6	Velocidad del viento	0
82110	7	Sololá	717	San Juan la Laguna	12	San Juan la Laguna	10	Octubre	2023-09-10T00:00:00	2024-11-08T01:00:00	7	Dirección del viento	0
82111	7	Sololá	717	San Juan la Laguna	12	San Juan la Laguna	10	Octubre	2023-09-10T00:00:00	2024-11-08T01:00:00	1	Precipitación	0
82112	7	Sololá	717	San Juan la Laguna	12	San Juan la Laguna	10	Octubre	2023-09-10T00:00:00	2024-11-08T01:00:00	8	Radiación solar	0
82113	7	Sololá	717	San Juan la Laguna	12	San Juan la Laguna	10	Octubre	2023-09-10T00:00:00	2024-11-08T02:00:00	2	Temperatura media	17.5
82114	7	Sololá	717	San Juan la Laguna	12	San Juan la Laguna	10	Octubre	2023-09-10T00:00:00	2024-11-08T02:00:00	4	Temperatura máxima	17.8
82115	7	Sololá	717	San Juan la Laguna	12	San Juan la Laguna	10	Octubre	2023-09-10T00:00:00	2024-11-08T02:00:00	3	Temperatura mínima	17.5
82116	7	Sololá	717	San Juan la Laguna	12	San Juan la Laguna	10	Octubre	2023-09-10T00:00:00	2024-11-08T02:00:00	5	Humedad	91
82117	7	Sololá	717	San Juan la Laguna	12	San Juan la Laguna	10	Octubre	2023-09-10T00:00:00	2024-11-08T02:00:00	6	Velocidad del viento	0
82118	7	Sololá	717	San Juan la Laguna	12	San Juan la Laguna	10	Octubre	2023-09-10T00:00:00	2024-11-08T02:00:00	7	Dirección del viento	0
82119	7	Sololá	717	San Juan la Laguna	12	San Juan la Laguna	10	Octubre	2023-09-10T00:00:00	2024-11-08T02:00:00	1	Precipitación	0
82120	7	Sololá	717	San Juan la Laguna	12	San Juan la Laguna	10	Octubre	2023-09-10T00:00:00	2024-11-08T02:00:00	8	Radiación solar	0
82121	7	Sololá	717	San Juan la Laguna	12	San Juan la Laguna	10	Octubre	2023-09-10T00:00:00	2024-11-08T03:00:00	2	Temperatura media	16.9
82122	7	Sololá	717	San Juan la Laguna	12	San Juan la Laguna	10	Octubre	2023-09-10T00:00:00	2024-11-08T03:00:00	4	Temperatura máxima	17.5
82123	7	Sololá	717	San Juan la Laguna	12	San Juan la Laguna	10	Octubre	2023-09-10T00:00:00	2024-11-08T03:00:00	3	Temperatura mínima	16.9
82124	7	Sololá	717	San Juan la Laguna	12	San Juan la Laguna	10	Octubre	2023-09-10T00:00:00	2024-11-08T03:00:00	5	Humedad	91
82125	7	Sololá	717	San Juan la Laguna	12	San Juan la Laguna	10	Octubre	2023-09-10T00:00:00	2024-11-08T03:00:00	6	Velocidad del viento	0
82126	7	Sololá	717	San Juan la Laguna	12	San Juan la Laguna	10	Octubre	2023-09-10T00:00:00	2024-11-08T03:00:00	7	Dirección del viento	0
82127	7	Sololá	717	San Juan la Laguna	12	San Juan la Laguna	10	Octubre	2023-09-10T00:00:00	2024-11-08T03:00:00	1	Precipitación	0.2
82128	7	Sololá	717	San Juan la Laguna	12	San Juan la Laguna	10	Octubre	2023-09-10T00:00:00	2024-11-08T03:00:00	8	Radiación solar	0
82129	7	Sololá	717	San Juan la Laguna	12	San Juan la Laguna	10	Octubre	2023-09-10T00:00:00	2024-11-08T04:00:00	2	Temperatura media	16.9
82130	7	Sololá	717	San Juan la Laguna	12	San Juan la Laguna	10	Octubre	2023-09-10T00:00:00	2024-11-08T04:00:00	4	Temperatura máxima	17.1
82131	7	Sololá	717	San Juan la Laguna	12	San Juan la Laguna	10	Octubre	2023-09-10T00:00:00	2024-11-08T04:00:00	3	Temperatura mínima	16.8
82132	7	Sololá	717	San Juan la Laguna	12	San Juan la Laguna	10	Octubre	2023-09-10T00:00:00	2024-11-08T04:00:00	5	Humedad	90
82133	7	Sololá	717	San Juan la Laguna	12	San Juan la Laguna	10	Octubre	2023-09-10T00:00:00	2024-11-08T04:00:00	6	Velocidad del viento	4.8
82134	7	Sololá	717	San Juan la Laguna	12	San Juan la Laguna	10	Octubre	2023-09-10T00:00:00	2024-11-08T04:00:00	7	Dirección del viento	4.83
82135	7	Sololá	717	San Juan la Laguna	12	San Juan la Laguna	10	Octubre	2023-09-10T00:00:00	2024-11-08T04:00:00	1	Precipitación	0
82136	7	Sololá	717	San Juan la Laguna	12	San Juan la Laguna	10	Octubre	2023-09-10T00:00:00	2024-11-08T04:00:00	8	Radiación solar	0
82137	7	Sololá	717	San Juan la Laguna	12	San Juan la Laguna	10	Octubre	2023-09-10T00:00:00	2024-11-08T05:00:00	2	Temperatura media	16.8
82138	7	Sololá	717	San Juan la Laguna	12	San Juan la Laguna	10	Octubre	2023-09-10T00:00:00	2024-11-08T05:00:00	4	Temperatura máxima	16.9
82139	7	Sololá	717	San Juan la Laguna	12	San Juan la Laguna	10	Octubre	2023-09-10T00:00:00	2024-11-08T05:00:00	3	Temperatura mínima	16.7
82140	7	Sololá	717	San Juan la Laguna	12	San Juan la Laguna	10	Octubre	2023-09-10T00:00:00	2024-11-08T05:00:00	5	Humedad	90
82141	7	Sololá	717	San Juan la Laguna	12	San Juan la Laguna	10	Octubre	2023-09-10T00:00:00	2024-11-08T05:00:00	6	Velocidad del viento	3.2
82142	7	Sololá	717	San Juan la Laguna	12	San Juan la Laguna	10	Octubre	2023-09-10T00:00:00	2024-11-08T05:00:00	7	Dirección del viento	3.22
82143	7	Sololá	717	San Juan la Laguna	12	San Juan la Laguna	10	Octubre	2023-09-10T00:00:00	2024-11-08T05:00:00	1	Precipitación	0
82144	7	Sololá	717	San Juan la Laguna	12	San Juan la Laguna	10	Octubre	2023-09-10T00:00:00	2024-11-08T05:00:00	8	Radiación solar	0
82145	7	Sololá	717	San Juan la Laguna	12	San Juan la Laguna	10	Octubre	2023-09-10T00:00:00	2024-11-08T06:00:00	2	Temperatura media	17.2
82146	7	Sololá	717	San Juan la Laguna	12	San Juan la Laguna	10	Octubre	2023-09-10T00:00:00	2024-11-08T06:00:00	4	Temperatura máxima	17.2
82147	7	Sololá	717	San Juan la Laguna	12	San Juan la Laguna	10	Octubre	2023-09-10T00:00:00	2024-11-08T06:00:00	3	Temperatura mínima	16.7
82148	7	Sololá	717	San Juan la Laguna	12	San Juan la Laguna	10	Octubre	2023-09-10T00:00:00	2024-11-08T06:00:00	5	Humedad	90
82149	7	Sololá	717	San Juan la Laguna	12	San Juan la Laguna	10	Octubre	2023-09-10T00:00:00	2024-11-08T06:00:00	6	Velocidad del viento	3.2
82150	7	Sololá	717	San Juan la Laguna	12	San Juan la Laguna	10	Octubre	2023-09-10T00:00:00	2024-11-08T06:00:00	7	Dirección del viento	3.22
82151	7	Sololá	717	San Juan la Laguna	12	San Juan la Laguna	10	Octubre	2023-09-10T00:00:00	2024-11-08T06:00:00	1	Precipitación	0
82152	7	Sololá	717	San Juan la Laguna	12	San Juan la Laguna	10	Octubre	2023-09-10T00:00:00	2024-11-08T06:00:00	8	Radiación solar	0
82153	7	Sololá	717	San Juan la Laguna	12	San Juan la Laguna	10	Octubre	2023-09-10T00:00:00	2024-11-08T07:00:00	2	Temperatura media	17.5
82154	7	Sololá	717	San Juan la Laguna	12	San Juan la Laguna	10	Octubre	2023-09-10T00:00:00	2024-11-08T07:00:00	4	Temperatura máxima	17.5
82155	7	Sololá	717	San Juan la Laguna	12	San Juan la Laguna	10	Octubre	2023-09-10T00:00:00	2024-11-08T07:00:00	3	Temperatura mínima	17.2
82156	7	Sololá	717	San Juan la Laguna	12	San Juan la Laguna	10	Octubre	2023-09-10T00:00:00	2024-11-08T07:00:00	5	Humedad	90
82157	7	Sololá	717	San Juan la Laguna	12	San Juan la Laguna	10	Octubre	2023-09-10T00:00:00	2024-11-08T07:00:00	6	Velocidad del viento	0
82158	7	Sololá	717	San Juan la Laguna	12	San Juan la Laguna	10	Octubre	2023-09-10T00:00:00	2024-11-08T07:00:00	7	Dirección del viento	0
82159	7	Sololá	717	San Juan la Laguna	12	San Juan la Laguna	10	Octubre	2023-09-10T00:00:00	2024-11-08T07:00:00	1	Precipitación	0
82160	7	Sololá	717	San Juan la Laguna	12	San Juan la Laguna	10	Octubre	2023-09-10T00:00:00	2024-11-08T07:00:00	8	Radiación solar	20
82161	7	Sololá	717	San Juan la Laguna	12	San Juan la Laguna	10	Octubre	2023-09-10T00:00:00	2024-11-08T08:00:00	2	Temperatura media	19.1
82162	7	Sololá	717	San Juan la Laguna	12	San Juan la Laguna	10	Octubre	2023-09-10T00:00:00	2024-11-08T08:00:00	4	Temperatura máxima	19.1
82163	7	Sololá	717	San Juan la Laguna	12	San Juan la Laguna	10	Octubre	2023-09-10T00:00:00	2024-11-08T08:00:00	3	Temperatura mínima	17.5
82164	7	Sololá	717	San Juan la Laguna	12	San Juan la Laguna	10	Octubre	2023-09-10T00:00:00	2024-11-08T08:00:00	5	Humedad	88
82165	7	Sololá	717	San Juan la Laguna	12	San Juan la Laguna	10	Octubre	2023-09-10T00:00:00	2024-11-08T08:00:00	6	Velocidad del viento	0
82166	7	Sololá	717	San Juan la Laguna	12	San Juan la Laguna	10	Octubre	2023-09-10T00:00:00	2024-11-08T08:00:00	7	Dirección del viento	0
82167	7	Sololá	717	San Juan la Laguna	12	San Juan la Laguna	10	Octubre	2023-09-10T00:00:00	2024-11-08T08:00:00	1	Precipitación	0
82168	7	Sololá	717	San Juan la Laguna	12	San Juan la Laguna	10	Octubre	2023-09-10T00:00:00	2024-11-08T08:00:00	8	Radiación solar	117
82169	7	Sololá	717	San Juan la Laguna	12	San Juan la Laguna	10	Octubre	2023-09-10T00:00:00	2024-11-08T09:00:00	2	Temperatura media	21.9
82170	7	Sololá	717	San Juan la Laguna	12	San Juan la Laguna	10	Octubre	2023-09-10T00:00:00	2024-11-08T09:00:00	4	Temperatura máxima	22.1
82171	7	Sololá	717	San Juan la Laguna	12	San Juan la Laguna	10	Octubre	2023-09-10T00:00:00	2024-11-08T09:00:00	3	Temperatura mínima	19.1
82172	7	Sololá	717	San Juan la Laguna	12	San Juan la Laguna	10	Octubre	2023-09-10T00:00:00	2024-11-08T09:00:00	5	Humedad	77
82173	7	Sololá	717	San Juan la Laguna	12	San Juan la Laguna	10	Octubre	2023-09-10T00:00:00	2024-11-08T09:00:00	6	Velocidad del viento	0
82174	7	Sololá	717	San Juan la Laguna	12	San Juan la Laguna	10	Octubre	2023-09-10T00:00:00	2024-11-08T09:00:00	7	Dirección del viento	0
82175	7	Sololá	717	San Juan la Laguna	12	San Juan la Laguna	10	Octubre	2023-09-10T00:00:00	2024-11-08T09:00:00	1	Precipitación	0
82176	7	Sololá	717	San Juan la Laguna	12	San Juan la Laguna	10	Octubre	2023-09-10T00:00:00	2024-11-08T09:00:00	8	Radiación solar	523
82177	7	Sololá	717	San Juan la Laguna	12	San Juan la Laguna	10	Octubre	2023-09-10T00:00:00	2024-11-08T10:00:00	2	Temperatura media	22.7
82178	7	Sololá	717	San Juan la Laguna	12	San Juan la Laguna	10	Octubre	2023-09-10T00:00:00	2024-11-08T10:00:00	4	Temperatura máxima	22.7
82179	7	Sololá	717	San Juan la Laguna	12	San Juan la Laguna	10	Octubre	2023-09-10T00:00:00	2024-11-08T10:00:00	3	Temperatura mínima	21.4
82180	7	Sololá	717	San Juan la Laguna	12	San Juan la Laguna	10	Octubre	2023-09-10T00:00:00	2024-11-08T10:00:00	5	Humedad	74
82181	7	Sololá	717	San Juan la Laguna	12	San Juan la Laguna	10	Octubre	2023-09-10T00:00:00	2024-11-08T10:00:00	6	Velocidad del viento	0
82182	7	Sololá	717	San Juan la Laguna	12	San Juan la Laguna	10	Octubre	2023-09-10T00:00:00	2024-11-08T10:00:00	7	Dirección del viento	0
82183	7	Sololá	717	San Juan la Laguna	12	San Juan la Laguna	10	Octubre	2023-09-10T00:00:00	2024-11-08T10:00:00	1	Precipitación	0
82184	7	Sololá	717	San Juan la Laguna	12	San Juan la Laguna	10	Octubre	2023-09-10T00:00:00	2024-11-08T10:00:00	8	Radiación solar	445
82185	7	Sololá	717	San Juan la Laguna	12	San Juan la Laguna	10	Octubre	2023-09-10T00:00:00	2024-11-08T11:00:00	2	Temperatura media	25.6
82186	7	Sololá	717	San Juan la Laguna	12	San Juan la Laguna	10	Octubre	2023-09-10T00:00:00	2024-11-08T11:00:00	4	Temperatura máxima	25.6
82187	7	Sololá	717	San Juan la Laguna	12	San Juan la Laguna	10	Octubre	2023-09-10T00:00:00	2024-11-08T11:00:00	3	Temperatura mínima	22.7
82188	7	Sololá	717	San Juan la Laguna	12	San Juan la Laguna	10	Octubre	2023-09-10T00:00:00	2024-11-08T11:00:00	5	Humedad	62
82189	7	Sololá	717	San Juan la Laguna	12	San Juan la Laguna	10	Octubre	2023-09-10T00:00:00	2024-11-08T11:00:00	6	Velocidad del viento	0
82190	7	Sololá	717	San Juan la Laguna	12	San Juan la Laguna	10	Octubre	2023-09-10T00:00:00	2024-11-08T11:00:00	7	Dirección del viento	0
82191	7	Sololá	717	San Juan la Laguna	12	San Juan la Laguna	10	Octubre	2023-09-10T00:00:00	2024-11-08T11:00:00	1	Precipitación	0
82192	7	Sololá	717	San Juan la Laguna	12	San Juan la Laguna	10	Octubre	2023-09-10T00:00:00	2024-11-08T11:00:00	8	Radiación solar	741
82193	7	Sololá	717	San Juan la Laguna	12	San Juan la Laguna	10	Octubre	2023-09-10T00:00:00	2024-11-08T12:00:00	2	Temperatura media	24.6
82194	7	Sololá	717	San Juan la Laguna	12	San Juan la Laguna	10	Octubre	2023-09-10T00:00:00	2024-11-08T12:00:00	4	Temperatura máxima	25.8
82195	7	Sololá	717	San Juan la Laguna	12	San Juan la Laguna	10	Octubre	2023-09-10T00:00:00	2024-11-08T12:00:00	3	Temperatura mínima	24.6
82196	7	Sololá	717	San Juan la Laguna	12	San Juan la Laguna	10	Octubre	2023-09-10T00:00:00	2024-11-08T12:00:00	5	Humedad	73
82197	7	Sololá	717	San Juan la Laguna	12	San Juan la Laguna	10	Octubre	2023-09-10T00:00:00	2024-11-08T12:00:00	6	Velocidad del viento	0
82198	7	Sololá	717	San Juan la Laguna	12	San Juan la Laguna	10	Octubre	2023-09-10T00:00:00	2024-11-08T12:00:00	7	Dirección del viento	0
82199	7	Sololá	717	San Juan la Laguna	12	San Juan la Laguna	10	Octubre	2023-09-10T00:00:00	2024-11-08T12:00:00	1	Precipitación	0
82200	7	Sololá	717	San Juan la Laguna	12	San Juan la Laguna	10	Octubre	2023-09-10T00:00:00	2024-11-08T12:00:00	8	Radiación solar	793
82201	7	Sololá	717	San Juan la Laguna	12	San Juan la Laguna	10	Octubre	2023-09-10T00:00:00	2024-11-08T13:00:00	2	Temperatura media	23.6
82202	7	Sololá	717	San Juan la Laguna	12	San Juan la Laguna	10	Octubre	2023-09-10T00:00:00	2024-11-08T13:00:00	4	Temperatura máxima	24.6
82203	7	Sololá	717	San Juan la Laguna	12	San Juan la Laguna	10	Octubre	2023-09-10T00:00:00	2024-11-08T13:00:00	3	Temperatura mínima	23.3
82204	7	Sololá	717	San Juan la Laguna	12	San Juan la Laguna	10	Octubre	2023-09-10T00:00:00	2024-11-08T13:00:00	5	Humedad	75
82205	7	Sololá	717	San Juan la Laguna	12	San Juan la Laguna	10	Octubre	2023-09-10T00:00:00	2024-11-08T13:00:00	6	Velocidad del viento	8
82206	7	Sololá	717	San Juan la Laguna	12	San Juan la Laguna	10	Octubre	2023-09-10T00:00:00	2024-11-08T13:00:00	7	Dirección del viento	8.05
82207	7	Sololá	717	San Juan la Laguna	12	San Juan la Laguna	10	Octubre	2023-09-10T00:00:00	2024-11-08T13:00:00	1	Precipitación	0
82208	7	Sololá	717	San Juan la Laguna	12	San Juan la Laguna	10	Octubre	2023-09-10T00:00:00	2024-11-08T13:00:00	8	Radiación solar	896
82209	7	Sololá	717	San Juan la Laguna	12	San Juan la Laguna	10	Octubre	2023-09-10T00:00:00	2024-11-08T14:00:00	2	Temperatura media	21.5
82210	7	Sololá	717	San Juan la Laguna	12	San Juan la Laguna	10	Octubre	2023-09-10T00:00:00	2024-11-08T14:00:00	4	Temperatura máxima	24.3
82211	7	Sololá	717	San Juan la Laguna	12	San Juan la Laguna	10	Octubre	2023-09-10T00:00:00	2024-11-08T14:00:00	3	Temperatura mínima	21.4
82212	7	Sololá	717	San Juan la Laguna	12	San Juan la Laguna	10	Octubre	2023-09-10T00:00:00	2024-11-08T14:00:00	5	Humedad	82
82213	7	Sololá	717	San Juan la Laguna	12	San Juan la Laguna	10	Octubre	2023-09-10T00:00:00	2024-11-08T14:00:00	6	Velocidad del viento	6.4
82214	7	Sololá	717	San Juan la Laguna	12	San Juan la Laguna	10	Octubre	2023-09-10T00:00:00	2024-11-08T14:00:00	7	Dirección del viento	6.44
82215	7	Sololá	717	San Juan la Laguna	12	San Juan la Laguna	10	Octubre	2023-09-10T00:00:00	2024-11-08T14:00:00	1	Precipitación	0
82216	7	Sololá	717	San Juan la Laguna	12	San Juan la Laguna	10	Octubre	2023-09-10T00:00:00	2024-11-08T14:00:00	8	Radiación solar	416
82217	7	Sololá	717	San Juan la Laguna	12	San Juan la Laguna	10	Octubre	2023-09-10T00:00:00	2024-11-08T15:00:00	2	Temperatura media	19.4
82218	7	Sololá	717	San Juan la Laguna	12	San Juan la Laguna	10	Octubre	2023-09-10T00:00:00	2024-11-08T15:00:00	4	Temperatura máxima	21.4
82219	7	Sololá	717	San Juan la Laguna	12	San Juan la Laguna	10	Octubre	2023-09-10T00:00:00	2024-11-08T15:00:00	3	Temperatura mínima	19.4
82220	7	Sololá	717	San Juan la Laguna	12	San Juan la Laguna	10	Octubre	2023-09-10T00:00:00	2024-11-08T15:00:00	5	Humedad	89
82221	7	Sololá	717	San Juan la Laguna	12	San Juan la Laguna	10	Octubre	2023-09-10T00:00:00	2024-11-08T15:00:00	6	Velocidad del viento	1.6
82222	7	Sololá	717	San Juan la Laguna	12	San Juan la Laguna	10	Octubre	2023-09-10T00:00:00	2024-11-08T15:00:00	7	Dirección del viento	1.61
82223	7	Sololá	717	San Juan la Laguna	12	San Juan la Laguna	10	Octubre	2023-09-10T00:00:00	2024-11-08T15:00:00	1	Precipitación	7
82224	7	Sololá	717	San Juan la Laguna	12	San Juan la Laguna	10	Octubre	2023-09-10T00:00:00	2024-11-08T15:00:00	8	Radiación solar	20
82225	7	Sololá	717	San Juan la Laguna	12	San Juan la Laguna	10	Octubre	2023-09-10T00:00:00	2024-11-08T16:00:00	2	Temperatura media	18.6
82226	7	Sololá	717	San Juan la Laguna	12	San Juan la Laguna	10	Octubre	2023-09-10T00:00:00	2024-11-08T16:00:00	4	Temperatura máxima	19.4
82227	7	Sololá	717	San Juan la Laguna	12	San Juan la Laguna	10	Octubre	2023-09-10T00:00:00	2024-11-08T16:00:00	3	Temperatura mínima	18.6
82228	7	Sololá	717	San Juan la Laguna	12	San Juan la Laguna	10	Octubre	2023-09-10T00:00:00	2024-11-08T16:00:00	5	Humedad	87
82229	7	Sololá	717	San Juan la Laguna	12	San Juan la Laguna	10	Octubre	2023-09-10T00:00:00	2024-11-08T16:00:00	6	Velocidad del viento	3.2
82230	7	Sololá	717	San Juan la Laguna	12	San Juan la Laguna	10	Octubre	2023-09-10T00:00:00	2024-11-08T16:00:00	7	Dirección del viento	3.22
82231	7	Sololá	717	San Juan la Laguna	12	San Juan la Laguna	10	Octubre	2023-09-10T00:00:00	2024-11-08T16:00:00	1	Precipitación	1.4
82232	7	Sololá	717	San Juan la Laguna	12	San Juan la Laguna	10	Octubre	2023-09-10T00:00:00	2024-11-08T16:00:00	8	Radiación solar	11
82233	7	Sololá	717	San Juan la Laguna	12	San Juan la Laguna	10	Octubre	2023-09-10T00:00:00	2024-11-08T17:00:00	2	Temperatura media	17.9
82234	7	Sololá	717	San Juan la Laguna	12	San Juan la Laguna	10	Octubre	2023-09-10T00:00:00	2024-11-08T17:00:00	4	Temperatura máxima	18.6
82235	7	Sololá	717	San Juan la Laguna	12	San Juan la Laguna	10	Octubre	2023-09-10T00:00:00	2024-11-08T17:00:00	3	Temperatura mínima	17.8
82236	7	Sololá	717	San Juan la Laguna	12	San Juan la Laguna	10	Octubre	2023-09-10T00:00:00	2024-11-08T17:00:00	5	Humedad	91
82237	7	Sololá	717	San Juan la Laguna	12	San Juan la Laguna	10	Octubre	2023-09-10T00:00:00	2024-11-08T17:00:00	6	Velocidad del viento	0
82238	7	Sololá	717	San Juan la Laguna	12	San Juan la Laguna	10	Octubre	2023-09-10T00:00:00	2024-11-08T17:00:00	7	Dirección del viento	0
82239	7	Sololá	717	San Juan la Laguna	12	San Juan la Laguna	10	Octubre	2023-09-10T00:00:00	2024-11-08T17:00:00	1	Precipitación	5.4
82240	7	Sololá	717	San Juan la Laguna	12	San Juan la Laguna	10	Octubre	2023-09-10T00:00:00	2024-11-08T17:00:00	8	Radiación solar	7
82241	7	Sololá	717	San Juan la Laguna	12	San Juan la Laguna	10	Octubre	2023-09-10T00:00:00	2024-11-08T18:00:00	2	Temperatura media	17.8
82242	7	Sololá	717	San Juan la Laguna	12	San Juan la Laguna	10	Octubre	2023-09-10T00:00:00	2024-11-08T18:00:00	4	Temperatura máxima	18
82243	7	Sololá	717	San Juan la Laguna	12	San Juan la Laguna	10	Octubre	2023-09-10T00:00:00	2024-11-08T18:00:00	3	Temperatura mínima	17.7
82244	7	Sololá	717	San Juan la Laguna	12	San Juan la Laguna	10	Octubre	2023-09-10T00:00:00	2024-11-08T18:00:00	5	Humedad	91
82245	7	Sololá	717	San Juan la Laguna	12	San Juan la Laguna	10	Octubre	2023-09-10T00:00:00	2024-11-08T18:00:00	6	Velocidad del viento	0
82246	7	Sololá	717	San Juan la Laguna	12	San Juan la Laguna	10	Octubre	2023-09-10T00:00:00	2024-11-08T18:00:00	7	Dirección del viento	0
82247	7	Sololá	717	San Juan la Laguna	12	San Juan la Laguna	10	Octubre	2023-09-10T00:00:00	2024-11-08T18:00:00	1	Precipitación	0.6
82248	7	Sololá	717	San Juan la Laguna	12	San Juan la Laguna	10	Octubre	2023-09-10T00:00:00	2024-11-08T18:00:00	8	Radiación solar	6
82249	7	Sololá	717	San Juan la Laguna	12	San Juan la Laguna	10	Octubre	2023-09-10T00:00:00	2024-11-08T19:00:00	2	Temperatura media	17.8
82250	7	Sololá	717	San Juan la Laguna	12	San Juan la Laguna	10	Octubre	2023-09-10T00:00:00	2024-11-08T19:00:00	4	Temperatura máxima	18.1
82251	7	Sololá	717	San Juan la Laguna	12	San Juan la Laguna	10	Octubre	2023-09-10T00:00:00	2024-11-08T19:00:00	3	Temperatura mínima	17.8
82252	7	Sololá	717	San Juan la Laguna	12	San Juan la Laguna	10	Octubre	2023-09-10T00:00:00	2024-11-08T19:00:00	5	Humedad	91
82253	7	Sololá	717	San Juan la Laguna	12	San Juan la Laguna	10	Octubre	2023-09-10T00:00:00	2024-11-08T19:00:00	6	Velocidad del viento	0
82254	7	Sololá	717	San Juan la Laguna	12	San Juan la Laguna	10	Octubre	2023-09-10T00:00:00	2024-11-08T19:00:00	7	Dirección del viento	0
82255	7	Sololá	717	San Juan la Laguna	12	San Juan la Laguna	10	Octubre	2023-09-10T00:00:00	2024-11-08T19:00:00	1	Precipitación	0
82256	7	Sololá	717	San Juan la Laguna	12	San Juan la Laguna	10	Octubre	2023-09-10T00:00:00	2024-11-08T19:00:00	8	Radiación solar	0
82257	7	Sololá	717	San Juan la Laguna	12	San Juan la Laguna	10	Octubre	2023-09-10T00:00:00	2024-11-08T20:00:00	2	Temperatura media	17.8
82258	7	Sololá	717	San Juan la Laguna	12	San Juan la Laguna	10	Octubre	2023-09-10T00:00:00	2024-11-08T20:00:00	4	Temperatura máxima	17.9
82259	7	Sololá	717	San Juan la Laguna	12	San Juan la Laguna	10	Octubre	2023-09-10T00:00:00	2024-11-08T20:00:00	3	Temperatura mínima	17.7
82260	7	Sololá	717	San Juan la Laguna	12	San Juan la Laguna	10	Octubre	2023-09-10T00:00:00	2024-11-08T20:00:00	5	Humedad	90
82261	7	Sololá	717	San Juan la Laguna	12	San Juan la Laguna	10	Octubre	2023-09-10T00:00:00	2024-11-08T20:00:00	6	Velocidad del viento	1.6
82262	7	Sololá	717	San Juan la Laguna	12	San Juan la Laguna	10	Octubre	2023-09-10T00:00:00	2024-11-08T20:00:00	7	Dirección del viento	1.61
82263	7	Sololá	717	San Juan la Laguna	12	San Juan la Laguna	10	Octubre	2023-09-10T00:00:00	2024-11-08T20:00:00	1	Precipitación	0
82264	7	Sololá	717	San Juan la Laguna	12	San Juan la Laguna	10	Octubre	2023-09-10T00:00:00	2024-11-08T20:00:00	8	Radiación solar	0
82265	7	Sololá	717	San Juan la Laguna	12	San Juan la Laguna	10	Octubre	2023-09-10T00:00:00	2024-11-08T21:00:00	2	Temperatura media	17.2
82266	7	Sololá	717	San Juan la Laguna	12	San Juan la Laguna	10	Octubre	2023-09-10T00:00:00	2024-11-08T21:00:00	4	Temperatura máxima	17.9
82267	7	Sololá	717	San Juan la Laguna	12	San Juan la Laguna	10	Octubre	2023-09-10T00:00:00	2024-11-08T21:00:00	3	Temperatura mínima	17.2
82268	7	Sololá	717	San Juan la Laguna	12	San Juan la Laguna	10	Octubre	2023-09-10T00:00:00	2024-11-08T21:00:00	5	Humedad	90
82269	7	Sololá	717	San Juan la Laguna	12	San Juan la Laguna	10	Octubre	2023-09-10T00:00:00	2024-11-08T21:00:00	6	Velocidad del viento	0
82270	7	Sololá	717	San Juan la Laguna	12	San Juan la Laguna	10	Octubre	2023-09-10T00:00:00	2024-11-08T21:00:00	7	Dirección del viento	0
82271	7	Sololá	717	San Juan la Laguna	12	San Juan la Laguna	10	Octubre	2023-09-10T00:00:00	2024-11-08T21:00:00	1	Precipitación	0
82272	7	Sololá	717	San Juan la Laguna	12	San Juan la Laguna	10	Octubre	2023-09-10T00:00:00	2024-11-08T21:00:00	8	Radiación solar	0
82273	7	Sololá	717	San Juan la Laguna	12	San Juan la Laguna	10	Octubre	2023-09-10T00:00:00	2024-11-08T22:00:00	2	Temperatura media	17
82274	7	Sololá	717	San Juan la Laguna	12	San Juan la Laguna	10	Octubre	2023-09-10T00:00:00	2024-11-08T22:00:00	4	Temperatura máxima	17.3
82275	7	Sololá	717	San Juan la Laguna	12	San Juan la Laguna	10	Octubre	2023-09-10T00:00:00	2024-11-08T22:00:00	3	Temperatura mínima	17
82276	7	Sololá	717	San Juan la Laguna	12	San Juan la Laguna	10	Octubre	2023-09-10T00:00:00	2024-11-08T22:00:00	5	Humedad	90
82277	7	Sololá	717	San Juan la Laguna	12	San Juan la Laguna	10	Octubre	2023-09-10T00:00:00	2024-11-08T22:00:00	6	Velocidad del viento	0
82278	7	Sololá	717	San Juan la Laguna	12	San Juan la Laguna	10	Octubre	2023-09-10T00:00:00	2024-11-08T22:00:00	7	Dirección del viento	0
82279	7	Sololá	717	San Juan la Laguna	12	San Juan la Laguna	10	Octubre	2023-09-10T00:00:00	2024-11-08T22:00:00	1	Precipitación	0
82280	7	Sololá	717	San Juan la Laguna	12	San Juan la Laguna	10	Octubre	2023-09-10T00:00:00	2024-11-08T22:00:00	8	Radiación solar	0
82281	7	Sololá	717	San Juan la Laguna	12	San Juan la Laguna	10	Octubre	2023-09-10T00:00:00	2024-11-08T23:00:00	2	Temperatura media	17.1
82282	7	Sololá	717	San Juan la Laguna	12	San Juan la Laguna	10	Octubre	2023-09-10T00:00:00	2024-11-08T23:00:00	4	Temperatura máxima	17.1
82283	7	Sololá	717	San Juan la Laguna	12	San Juan la Laguna	10	Octubre	2023-09-10T00:00:00	2024-11-08T23:00:00	3	Temperatura mínima	16.7
82284	7	Sololá	717	San Juan la Laguna	12	San Juan la Laguna	10	Octubre	2023-09-10T00:00:00	2024-11-08T23:00:00	5	Humedad	90
82285	7	Sololá	717	San Juan la Laguna	12	San Juan la Laguna	10	Octubre	2023-09-10T00:00:00	2024-11-08T23:00:00	6	Velocidad del viento	3.2
82286	7	Sololá	717	San Juan la Laguna	12	San Juan la Laguna	10	Octubre	2023-09-10T00:00:00	2024-11-08T23:00:00	7	Dirección del viento	3.22
82287	7	Sololá	717	San Juan la Laguna	12	San Juan la Laguna	10	Octubre	2023-09-10T00:00:00	2024-11-08T23:00:00	1	Precipitación	0
82288	7	Sololá	717	San Juan la Laguna	12	San Juan la Laguna	10	Octubre	2023-09-10T00:00:00	2024-11-08T23:00:00	8	Radiación solar	0
82289	7	Sololá	717	San Juan la Laguna	12	San Juan la Laguna	10	Octubre	2023-10-10T00:00:00	2024-11-08T00:00:00	2	Temperatura media	16.9
82290	7	Sololá	717	San Juan la Laguna	12	San Juan la Laguna	10	Octubre	2023-10-10T00:00:00	2024-11-08T00:00:00	4	Temperatura máxima	17.1
82291	7	Sololá	717	San Juan la Laguna	12	San Juan la Laguna	10	Octubre	2023-10-10T00:00:00	2024-11-08T00:00:00	3	Temperatura mínima	16.9
82292	7	Sololá	717	San Juan la Laguna	12	San Juan la Laguna	10	Octubre	2023-10-10T00:00:00	2024-11-08T00:00:00	5	Humedad	90
82293	7	Sololá	717	San Juan la Laguna	12	San Juan la Laguna	10	Octubre	2023-10-10T00:00:00	2024-11-08T00:00:00	6	Velocidad del viento	0
82294	7	Sololá	717	San Juan la Laguna	12	San Juan la Laguna	10	Octubre	2023-10-10T00:00:00	2024-11-08T00:00:00	7	Dirección del viento	0
82295	7	Sololá	717	San Juan la Laguna	12	San Juan la Laguna	10	Octubre	2023-10-10T00:00:00	2024-11-08T00:00:00	1	Precipitación	0
82296	7	Sololá	717	San Juan la Laguna	12	San Juan la Laguna	10	Octubre	2023-10-10T00:00:00	2024-11-08T00:00:00	8	Radiación solar	0
82297	7	Sololá	717	San Juan la Laguna	12	San Juan la Laguna	10	Octubre	2023-10-10T00:00:00	2024-11-08T01:00:00	2	Temperatura media	16.6
82298	7	Sololá	717	San Juan la Laguna	12	San Juan la Laguna	10	Octubre	2023-10-10T00:00:00	2024-11-08T01:00:00	4	Temperatura máxima	16.9
82299	7	Sololá	717	San Juan la Laguna	12	San Juan la Laguna	10	Octubre	2023-10-10T00:00:00	2024-11-08T01:00:00	3	Temperatura mínima	16.6
82300	7	Sololá	717	San Juan la Laguna	12	San Juan la Laguna	10	Octubre	2023-10-10T00:00:00	2024-11-08T01:00:00	5	Humedad	90
82301	7	Sololá	717	San Juan la Laguna	12	San Juan la Laguna	10	Octubre	2023-10-10T00:00:00	2024-11-08T01:00:00	6	Velocidad del viento	0
82302	7	Sololá	717	San Juan la Laguna	12	San Juan la Laguna	10	Octubre	2023-10-10T00:00:00	2024-11-08T01:00:00	7	Dirección del viento	0
82303	7	Sololá	717	San Juan la Laguna	12	San Juan la Laguna	10	Octubre	2023-10-10T00:00:00	2024-11-08T01:00:00	1	Precipitación	0
82304	7	Sololá	717	San Juan la Laguna	12	San Juan la Laguna	10	Octubre	2023-10-10T00:00:00	2024-11-08T01:00:00	8	Radiación solar	0
82305	7	Sololá	717	San Juan la Laguna	12	San Juan la Laguna	10	Octubre	2023-10-10T00:00:00	2024-11-08T02:00:00	2	Temperatura media	16.4
82306	7	Sololá	717	San Juan la Laguna	12	San Juan la Laguna	10	Octubre	2023-10-10T00:00:00	2024-11-08T02:00:00	4	Temperatura máxima	16.7
82307	7	Sololá	717	San Juan la Laguna	12	San Juan la Laguna	10	Octubre	2023-10-10T00:00:00	2024-11-08T02:00:00	3	Temperatura mínima	16.4
82308	7	Sololá	717	San Juan la Laguna	12	San Juan la Laguna	10	Octubre	2023-10-10T00:00:00	2024-11-08T02:00:00	5	Humedad	90
82309	7	Sololá	717	San Juan la Laguna	12	San Juan la Laguna	10	Octubre	2023-10-10T00:00:00	2024-11-08T02:00:00	6	Velocidad del viento	1.6
82310	7	Sololá	717	San Juan la Laguna	12	San Juan la Laguna	10	Octubre	2023-10-10T00:00:00	2024-11-08T02:00:00	7	Dirección del viento	1.61
82311	7	Sololá	717	San Juan la Laguna	12	San Juan la Laguna	10	Octubre	2023-10-10T00:00:00	2024-11-08T02:00:00	1	Precipitación	0
82312	7	Sololá	717	San Juan la Laguna	12	San Juan la Laguna	10	Octubre	2023-10-10T00:00:00	2024-11-08T02:00:00	8	Radiación solar	0
82313	7	Sololá	717	San Juan la Laguna	12	San Juan la Laguna	10	Octubre	2023-10-10T00:00:00	2024-11-08T03:00:00	2	Temperatura media	16.2
82314	7	Sololá	717	San Juan la Laguna	12	San Juan la Laguna	10	Octubre	2023-10-10T00:00:00	2024-11-08T03:00:00	4	Temperatura máxima	16.6
82315	7	Sololá	717	San Juan la Laguna	12	San Juan la Laguna	10	Octubre	2023-10-10T00:00:00	2024-11-08T03:00:00	3	Temperatura mínima	16.2
82316	7	Sololá	717	San Juan la Laguna	12	San Juan la Laguna	10	Octubre	2023-10-10T00:00:00	2024-11-08T03:00:00	5	Humedad	90
82317	7	Sololá	717	San Juan la Laguna	12	San Juan la Laguna	10	Octubre	2023-10-10T00:00:00	2024-11-08T03:00:00	6	Velocidad del viento	1.6
82318	7	Sololá	717	San Juan la Laguna	12	San Juan la Laguna	10	Octubre	2023-10-10T00:00:00	2024-11-08T03:00:00	7	Dirección del viento	1.61
82319	7	Sololá	717	San Juan la Laguna	12	San Juan la Laguna	10	Octubre	2023-10-10T00:00:00	2024-11-08T03:00:00	1	Precipitación	0
82320	7	Sololá	717	San Juan la Laguna	12	San Juan la Laguna	10	Octubre	2023-10-10T00:00:00	2024-11-08T03:00:00	8	Radiación solar	0
82321	7	Sololá	717	San Juan la Laguna	12	San Juan la Laguna	10	Octubre	2023-10-10T00:00:00	2024-11-08T04:00:00	2	Temperatura media	16.3
82322	7	Sololá	717	San Juan la Laguna	12	San Juan la Laguna	10	Octubre	2023-10-10T00:00:00	2024-11-08T04:00:00	4	Temperatura máxima	16.3
82323	7	Sololá	717	San Juan la Laguna	12	San Juan la Laguna	10	Octubre	2023-10-10T00:00:00	2024-11-08T04:00:00	3	Temperatura mínima	16.1
82324	7	Sololá	717	San Juan la Laguna	12	San Juan la Laguna	10	Octubre	2023-10-10T00:00:00	2024-11-08T04:00:00	5	Humedad	89
82325	7	Sololá	717	San Juan la Laguna	12	San Juan la Laguna	10	Octubre	2023-10-10T00:00:00	2024-11-08T04:00:00	6	Velocidad del viento	1.6
82326	7	Sololá	717	San Juan la Laguna	12	San Juan la Laguna	10	Octubre	2023-10-10T00:00:00	2024-11-08T04:00:00	7	Dirección del viento	1.61
82327	7	Sololá	717	San Juan la Laguna	12	San Juan la Laguna	10	Octubre	2023-10-10T00:00:00	2024-11-08T04:00:00	1	Precipitación	0
82328	7	Sololá	717	San Juan la Laguna	12	San Juan la Laguna	10	Octubre	2023-10-10T00:00:00	2024-11-08T04:00:00	8	Radiación solar	0
82329	7	Sololá	717	San Juan la Laguna	12	San Juan la Laguna	10	Octubre	2023-10-10T00:00:00	2024-11-08T05:00:00	2	Temperatura media	16
82330	7	Sololá	717	San Juan la Laguna	12	San Juan la Laguna	10	Octubre	2023-10-10T00:00:00	2024-11-08T05:00:00	4	Temperatura máxima	16.2
82331	7	Sololá	717	San Juan la Laguna	12	San Juan la Laguna	10	Octubre	2023-10-10T00:00:00	2024-11-08T05:00:00	3	Temperatura mínima	16
82332	7	Sololá	717	San Juan la Laguna	12	San Juan la Laguna	10	Octubre	2023-10-10T00:00:00	2024-11-08T05:00:00	5	Humedad	90
82333	7	Sololá	717	San Juan la Laguna	12	San Juan la Laguna	10	Octubre	2023-10-10T00:00:00	2024-11-08T05:00:00	6	Velocidad del viento	4.8
82334	7	Sololá	717	San Juan la Laguna	12	San Juan la Laguna	10	Octubre	2023-10-10T00:00:00	2024-11-08T05:00:00	7	Dirección del viento	4.83
82335	7	Sololá	717	San Juan la Laguna	12	San Juan la Laguna	10	Octubre	2023-10-10T00:00:00	2024-11-08T05:00:00	1	Precipitación	0
82336	7	Sololá	717	San Juan la Laguna	12	San Juan la Laguna	10	Octubre	2023-10-10T00:00:00	2024-11-08T05:00:00	8	Radiación solar	0
82337	7	Sololá	717	San Juan la Laguna	12	San Juan la Laguna	10	Octubre	2023-10-10T00:00:00	2024-11-08T06:00:00	2	Temperatura media	15.9
82338	7	Sololá	717	San Juan la Laguna	12	San Juan la Laguna	10	Octubre	2023-10-10T00:00:00	2024-11-08T06:00:00	4	Temperatura máxima	16.2
82339	7	Sololá	717	San Juan la Laguna	12	San Juan la Laguna	10	Octubre	2023-10-10T00:00:00	2024-11-08T06:00:00	3	Temperatura mínima	15.9
82340	7	Sololá	717	San Juan la Laguna	12	San Juan la Laguna	10	Octubre	2023-10-10T00:00:00	2024-11-08T06:00:00	5	Humedad	90
82341	7	Sololá	717	San Juan la Laguna	12	San Juan la Laguna	10	Octubre	2023-10-10T00:00:00	2024-11-08T06:00:00	6	Velocidad del viento	1.6
82342	7	Sololá	717	San Juan la Laguna	12	San Juan la Laguna	10	Octubre	2023-10-10T00:00:00	2024-11-08T06:00:00	7	Dirección del viento	1.61
82343	7	Sololá	717	San Juan la Laguna	12	San Juan la Laguna	10	Octubre	2023-10-10T00:00:00	2024-11-08T06:00:00	1	Precipitación	0
82344	7	Sololá	717	San Juan la Laguna	12	San Juan la Laguna	10	Octubre	2023-10-10T00:00:00	2024-11-08T06:00:00	8	Radiación solar	0
82345	7	Sololá	717	San Juan la Laguna	12	San Juan la Laguna	10	Octubre	2023-10-10T00:00:00	2024-11-08T07:00:00	2	Temperatura media	17.1
82346	7	Sololá	717	San Juan la Laguna	12	San Juan la Laguna	10	Octubre	2023-10-10T00:00:00	2024-11-08T07:00:00	4	Temperatura máxima	17.1
82347	7	Sololá	717	San Juan la Laguna	12	San Juan la Laguna	10	Octubre	2023-10-10T00:00:00	2024-11-08T07:00:00	3	Temperatura mínima	15.9
82348	7	Sololá	717	San Juan la Laguna	12	San Juan la Laguna	10	Octubre	2023-10-10T00:00:00	2024-11-08T07:00:00	5	Humedad	88
82349	7	Sololá	717	San Juan la Laguna	12	San Juan la Laguna	10	Octubre	2023-10-10T00:00:00	2024-11-08T07:00:00	6	Velocidad del viento	0
82350	7	Sololá	717	San Juan la Laguna	12	San Juan la Laguna	10	Octubre	2023-10-10T00:00:00	2024-11-08T07:00:00	7	Dirección del viento	0
82351	7	Sololá	717	San Juan la Laguna	12	San Juan la Laguna	10	Octubre	2023-10-10T00:00:00	2024-11-08T07:00:00	1	Precipitación	0
82352	7	Sololá	717	San Juan la Laguna	12	San Juan la Laguna	10	Octubre	2023-10-10T00:00:00	2024-11-08T07:00:00	8	Radiación solar	42
82353	7	Sololá	717	San Juan la Laguna	12	San Juan la Laguna	10	Octubre	2023-10-10T00:00:00	2024-11-08T08:00:00	2	Temperatura media	19.3
82354	7	Sololá	717	San Juan la Laguna	12	San Juan la Laguna	10	Octubre	2023-10-10T00:00:00	2024-11-08T08:00:00	4	Temperatura máxima	19.3
82355	7	Sololá	717	San Juan la Laguna	12	San Juan la Laguna	10	Octubre	2023-10-10T00:00:00	2024-11-08T08:00:00	3	Temperatura mínima	17.1
82356	7	Sololá	717	San Juan la Laguna	12	San Juan la Laguna	10	Octubre	2023-10-10T00:00:00	2024-11-08T08:00:00	5	Humedad	86
82357	7	Sololá	717	San Juan la Laguna	12	San Juan la Laguna	10	Octubre	2023-10-10T00:00:00	2024-11-08T08:00:00	6	Velocidad del viento	0
82358	7	Sololá	717	San Juan la Laguna	12	San Juan la Laguna	10	Octubre	2023-10-10T00:00:00	2024-11-08T08:00:00	7	Dirección del viento	0
82359	7	Sololá	717	San Juan la Laguna	12	San Juan la Laguna	10	Octubre	2023-10-10T00:00:00	2024-11-08T08:00:00	1	Precipitación	0
82360	7	Sololá	717	San Juan la Laguna	12	San Juan la Laguna	10	Octubre	2023-10-10T00:00:00	2024-11-08T08:00:00	8	Radiación solar	164
82361	7	Sololá	717	San Juan la Laguna	12	San Juan la Laguna	10	Octubre	2023-10-10T00:00:00	2024-11-08T09:00:00	2	Temperatura media	22.4
82362	7	Sololá	717	San Juan la Laguna	12	San Juan la Laguna	10	Octubre	2023-10-10T00:00:00	2024-11-08T09:00:00	4	Temperatura máxima	22.4
82363	7	Sololá	717	San Juan la Laguna	12	San Juan la Laguna	10	Octubre	2023-10-10T00:00:00	2024-11-08T09:00:00	3	Temperatura mínima	19.3
82364	7	Sololá	717	San Juan la Laguna	12	San Juan la Laguna	10	Octubre	2023-10-10T00:00:00	2024-11-08T09:00:00	5	Humedad	77
82365	7	Sololá	717	San Juan la Laguna	12	San Juan la Laguna	10	Octubre	2023-10-10T00:00:00	2024-11-08T09:00:00	6	Velocidad del viento	0
82366	7	Sololá	717	San Juan la Laguna	12	San Juan la Laguna	10	Octubre	2023-10-10T00:00:00	2024-11-08T09:00:00	7	Dirección del viento	0
82367	7	Sololá	717	San Juan la Laguna	12	San Juan la Laguna	10	Octubre	2023-10-10T00:00:00	2024-11-08T09:00:00	1	Precipitación	0
82368	7	Sololá	717	San Juan la Laguna	12	San Juan la Laguna	10	Octubre	2023-10-10T00:00:00	2024-11-08T09:00:00	8	Radiación solar	485
82369	7	Sololá	717	San Juan la Laguna	12	San Juan la Laguna	10	Octubre	2023-10-10T00:00:00	2024-11-08T10:00:00	2	Temperatura media	23.1
82370	7	Sololá	717	San Juan la Laguna	12	San Juan la Laguna	10	Octubre	2023-10-10T00:00:00	2024-11-08T10:00:00	4	Temperatura máxima	23.1
82371	7	Sololá	717	San Juan la Laguna	12	San Juan la Laguna	10	Octubre	2023-10-10T00:00:00	2024-11-08T10:00:00	3	Temperatura mínima	22.1
82372	7	Sololá	717	San Juan la Laguna	12	San Juan la Laguna	10	Octubre	2023-10-10T00:00:00	2024-11-08T10:00:00	5	Humedad	74
82373	7	Sololá	717	San Juan la Laguna	12	San Juan la Laguna	10	Octubre	2023-10-10T00:00:00	2024-11-08T10:00:00	6	Velocidad del viento	0
82374	7	Sololá	717	San Juan la Laguna	12	San Juan la Laguna	10	Octubre	2023-10-10T00:00:00	2024-11-08T10:00:00	7	Dirección del viento	0
82375	7	Sololá	717	San Juan la Laguna	12	San Juan la Laguna	10	Octubre	2023-10-10T00:00:00	2024-11-08T10:00:00	1	Precipitación	0
82376	7	Sololá	717	San Juan la Laguna	12	San Juan la Laguna	10	Octubre	2023-10-10T00:00:00	2024-11-08T10:00:00	8	Radiación solar	689
82377	7	Sololá	717	San Juan la Laguna	12	San Juan la Laguna	10	Octubre	2023-10-10T00:00:00	2024-11-08T11:00:00	2	Temperatura media	23.3
82378	7	Sololá	717	San Juan la Laguna	12	San Juan la Laguna	10	Octubre	2023-10-10T00:00:00	2024-11-08T11:00:00	4	Temperatura máxima	23.3
82379	7	Sololá	717	San Juan la Laguna	12	San Juan la Laguna	10	Octubre	2023-10-10T00:00:00	2024-11-08T11:00:00	3	Temperatura mínima	22.9
82380	7	Sololá	717	San Juan la Laguna	12	San Juan la Laguna	10	Octubre	2023-10-10T00:00:00	2024-11-08T11:00:00	5	Humedad	74
82381	7	Sololá	717	San Juan la Laguna	12	San Juan la Laguna	10	Octubre	2023-10-10T00:00:00	2024-11-08T11:00:00	6	Velocidad del viento	1.6
82382	7	Sololá	717	San Juan la Laguna	12	San Juan la Laguna	10	Octubre	2023-10-10T00:00:00	2024-11-08T11:00:00	7	Dirección del viento	1.61
82383	7	Sololá	717	San Juan la Laguna	12	San Juan la Laguna	10	Octubre	2023-10-10T00:00:00	2024-11-08T11:00:00	1	Precipitación	0
82384	7	Sololá	717	San Juan la Laguna	12	San Juan la Laguna	10	Octubre	2023-10-10T00:00:00	2024-11-08T11:00:00	8	Radiación solar	645
82385	7	Sololá	717	San Juan la Laguna	12	San Juan la Laguna	10	Octubre	2023-10-10T00:00:00	2024-11-08T12:00:00	2	Temperatura media	23.3
82386	7	Sololá	717	San Juan la Laguna	12	San Juan la Laguna	10	Octubre	2023-10-10T00:00:00	2024-11-08T12:00:00	4	Temperatura máxima	23.6
82387	7	Sololá	717	San Juan la Laguna	12	San Juan la Laguna	10	Octubre	2023-10-10T00:00:00	2024-11-08T12:00:00	3	Temperatura mínima	22.4
82388	7	Sololá	717	San Juan la Laguna	12	San Juan la Laguna	10	Octubre	2023-10-10T00:00:00	2024-11-08T12:00:00	5	Humedad	74
82389	7	Sololá	717	San Juan la Laguna	12	San Juan la Laguna	10	Octubre	2023-10-10T00:00:00	2024-11-08T12:00:00	6	Velocidad del viento	0
82390	7	Sololá	717	San Juan la Laguna	12	San Juan la Laguna	10	Octubre	2023-10-10T00:00:00	2024-11-08T12:00:00	7	Dirección del viento	0
82391	7	Sololá	717	San Juan la Laguna	12	San Juan la Laguna	10	Octubre	2023-10-10T00:00:00	2024-11-08T12:00:00	1	Precipitación	0
82392	7	Sololá	717	San Juan la Laguna	12	San Juan la Laguna	10	Octubre	2023-10-10T00:00:00	2024-11-08T12:00:00	8	Radiación solar	393
82393	7	Sololá	717	San Juan la Laguna	12	San Juan la Laguna	10	Octubre	2023-10-10T00:00:00	2024-11-08T13:00:00	2	Temperatura media	22.7
82394	7	Sololá	717	San Juan la Laguna	12	San Juan la Laguna	10	Octubre	2023-10-10T00:00:00	2024-11-08T13:00:00	4	Temperatura máxima	24.1
82395	7	Sololá	717	San Juan la Laguna	12	San Juan la Laguna	10	Octubre	2023-10-10T00:00:00	2024-11-08T13:00:00	3	Temperatura mínima	22.7
82396	7	Sololá	717	San Juan la Laguna	12	San Juan la Laguna	10	Octubre	2023-10-10T00:00:00	2024-11-08T13:00:00	5	Humedad	77
82397	7	Sololá	717	San Juan la Laguna	12	San Juan la Laguna	10	Octubre	2023-10-10T00:00:00	2024-11-08T13:00:00	6	Velocidad del viento	0
82398	7	Sololá	717	San Juan la Laguna	12	San Juan la Laguna	10	Octubre	2023-10-10T00:00:00	2024-11-08T13:00:00	7	Dirección del viento	0
82399	7	Sololá	717	San Juan la Laguna	12	San Juan la Laguna	10	Octubre	2023-10-10T00:00:00	2024-11-08T13:00:00	1	Precipitación	0
82400	7	Sololá	717	San Juan la Laguna	12	San Juan la Laguna	10	Octubre	2023-10-10T00:00:00	2024-11-08T13:00:00	8	Radiación solar	207
82401	7	Sololá	717	San Juan la Laguna	12	San Juan la Laguna	10	Octubre	2023-10-10T00:00:00	2024-11-08T14:00:00	2	Temperatura media	21.8
82402	7	Sololá	717	San Juan la Laguna	12	San Juan la Laguna	10	Octubre	2023-10-10T00:00:00	2024-11-08T14:00:00	4	Temperatura máxima	23.3
82403	7	Sololá	717	San Juan la Laguna	12	San Juan la Laguna	10	Octubre	2023-10-10T00:00:00	2024-11-08T14:00:00	3	Temperatura mínima	21.2
82404	7	Sololá	717	San Juan la Laguna	12	San Juan la Laguna	10	Octubre	2023-10-10T00:00:00	2024-11-08T14:00:00	5	Humedad	76
82405	7	Sololá	717	San Juan la Laguna	12	San Juan la Laguna	10	Octubre	2023-10-10T00:00:00	2024-11-08T14:00:00	6	Velocidad del viento	1.6
82406	7	Sololá	717	San Juan la Laguna	12	San Juan la Laguna	10	Octubre	2023-10-10T00:00:00	2024-11-08T14:00:00	7	Dirección del viento	1.61
82407	7	Sololá	717	San Juan la Laguna	12	San Juan la Laguna	10	Octubre	2023-10-10T00:00:00	2024-11-08T14:00:00	1	Precipitación	0
82408	7	Sololá	717	San Juan la Laguna	12	San Juan la Laguna	10	Octubre	2023-10-10T00:00:00	2024-11-08T14:00:00	8	Radiación solar	235
82409	7	Sololá	717	San Juan la Laguna	12	San Juan la Laguna	10	Octubre	2023-10-10T00:00:00	2024-11-08T15:00:00	2	Temperatura media	22.9
82410	7	Sololá	717	San Juan la Laguna	12	San Juan la Laguna	10	Octubre	2023-10-10T00:00:00	2024-11-08T15:00:00	4	Temperatura máxima	22.9
82411	7	Sololá	717	San Juan la Laguna	12	San Juan la Laguna	10	Octubre	2023-10-10T00:00:00	2024-11-08T15:00:00	3	Temperatura mínima	21.8
82412	7	Sololá	717	San Juan la Laguna	12	San Juan la Laguna	10	Octubre	2023-10-10T00:00:00	2024-11-08T15:00:00	5	Humedad	73
82413	7	Sololá	717	San Juan la Laguna	12	San Juan la Laguna	10	Octubre	2023-10-10T00:00:00	2024-11-08T15:00:00	6	Velocidad del viento	0
82414	7	Sololá	717	San Juan la Laguna	12	San Juan la Laguna	10	Octubre	2023-10-10T00:00:00	2024-11-08T15:00:00	7	Dirección del viento	0
82415	7	Sololá	717	San Juan la Laguna	12	San Juan la Laguna	10	Octubre	2023-10-10T00:00:00	2024-11-08T15:00:00	1	Precipitación	0
82416	7	Sololá	717	San Juan la Laguna	12	San Juan la Laguna	10	Octubre	2023-10-10T00:00:00	2024-11-08T15:00:00	8	Radiación solar	270
82417	7	Sololá	717	San Juan la Laguna	12	San Juan la Laguna	10	Octubre	2023-10-10T00:00:00	2024-11-08T16:00:00	2	Temperatura media	21.5
82418	7	Sololá	717	San Juan la Laguna	12	San Juan la Laguna	10	Octubre	2023-10-10T00:00:00	2024-11-08T16:00:00	4	Temperatura máxima	22.9
82419	7	Sololá	717	San Juan la Laguna	12	San Juan la Laguna	10	Octubre	2023-10-10T00:00:00	2024-11-08T16:00:00	3	Temperatura mínima	21.5
82420	7	Sololá	717	San Juan la Laguna	12	San Juan la Laguna	10	Octubre	2023-10-10T00:00:00	2024-11-08T16:00:00	5	Humedad	79
82421	7	Sololá	717	San Juan la Laguna	12	San Juan la Laguna	10	Octubre	2023-10-10T00:00:00	2024-11-08T16:00:00	6	Velocidad del viento	0
82422	7	Sololá	717	San Juan la Laguna	12	San Juan la Laguna	10	Octubre	2023-10-10T00:00:00	2024-11-08T16:00:00	7	Dirección del viento	0
82423	7	Sololá	717	San Juan la Laguna	12	San Juan la Laguna	10	Octubre	2023-10-10T00:00:00	2024-11-08T16:00:00	1	Precipitación	0
82424	7	Sololá	717	San Juan la Laguna	12	San Juan la Laguna	10	Octubre	2023-10-10T00:00:00	2024-11-08T16:00:00	8	Radiación solar	142
82425	7	Sololá	717	San Juan la Laguna	12	San Juan la Laguna	10	Octubre	2023-10-10T00:00:00	2024-11-08T17:00:00	2	Temperatura media	20.3
82426	7	Sololá	717	San Juan la Laguna	12	San Juan la Laguna	10	Octubre	2023-10-10T00:00:00	2024-11-08T17:00:00	4	Temperatura máxima	21.5
82427	7	Sololá	717	San Juan la Laguna	12	San Juan la Laguna	10	Octubre	2023-10-10T00:00:00	2024-11-08T17:00:00	3	Temperatura mínima	20.3
82428	7	Sololá	717	San Juan la Laguna	12	San Juan la Laguna	10	Octubre	2023-10-10T00:00:00	2024-11-08T17:00:00	5	Humedad	83
82429	7	Sololá	717	San Juan la Laguna	12	San Juan la Laguna	10	Octubre	2023-10-10T00:00:00	2024-11-08T17:00:00	6	Velocidad del viento	0
82430	7	Sololá	717	San Juan la Laguna	12	San Juan la Laguna	10	Octubre	2023-10-10T00:00:00	2024-11-08T17:00:00	7	Dirección del viento	0
82431	7	Sololá	717	San Juan la Laguna	12	San Juan la Laguna	10	Octubre	2023-10-10T00:00:00	2024-11-08T17:00:00	1	Precipitación	0
82432	7	Sololá	717	San Juan la Laguna	12	San Juan la Laguna	10	Octubre	2023-10-10T00:00:00	2024-11-08T17:00:00	8	Radiación solar	32
82433	7	Sololá	717	San Juan la Laguna	12	San Juan la Laguna	10	Octubre	2023-10-10T00:00:00	2024-11-08T18:00:00	2	Temperatura media	19.7
82434	7	Sololá	717	San Juan la Laguna	12	San Juan la Laguna	10	Octubre	2023-10-10T00:00:00	2024-11-08T18:00:00	4	Temperatura máxima	20.3
82435	7	Sololá	717	San Juan la Laguna	12	San Juan la Laguna	10	Octubre	2023-10-10T00:00:00	2024-11-08T18:00:00	3	Temperatura mínima	19.7
82436	7	Sololá	717	San Juan la Laguna	12	San Juan la Laguna	10	Octubre	2023-10-10T00:00:00	2024-11-08T18:00:00	5	Humedad	85
82437	7	Sololá	717	San Juan la Laguna	12	San Juan la Laguna	10	Octubre	2023-10-10T00:00:00	2024-11-08T18:00:00	6	Velocidad del viento	0
82438	7	Sololá	717	San Juan la Laguna	12	San Juan la Laguna	10	Octubre	2023-10-10T00:00:00	2024-11-08T18:00:00	7	Dirección del viento	0
82439	7	Sololá	717	San Juan la Laguna	12	San Juan la Laguna	10	Octubre	2023-10-10T00:00:00	2024-11-08T18:00:00	1	Precipitación	0
82440	7	Sololá	717	San Juan la Laguna	12	San Juan la Laguna	10	Octubre	2023-10-10T00:00:00	2024-11-08T18:00:00	8	Radiación solar	2
82441	7	Sololá	717	San Juan la Laguna	12	San Juan la Laguna	10	Octubre	2023-10-10T00:00:00	2024-11-08T19:00:00	2	Temperatura media	19.6
82442	7	Sololá	717	San Juan la Laguna	12	San Juan la Laguna	10	Octubre	2023-10-10T00:00:00	2024-11-08T19:00:00	4	Temperatura máxima	19.8
82443	7	Sololá	717	San Juan la Laguna	12	San Juan la Laguna	10	Octubre	2023-10-10T00:00:00	2024-11-08T19:00:00	3	Temperatura mínima	19.4
82444	7	Sololá	717	San Juan la Laguna	12	San Juan la Laguna	10	Octubre	2023-10-10T00:00:00	2024-11-08T19:00:00	5	Humedad	85
82445	7	Sololá	717	San Juan la Laguna	12	San Juan la Laguna	10	Octubre	2023-10-10T00:00:00	2024-11-08T19:00:00	6	Velocidad del viento	0
82446	7	Sololá	717	San Juan la Laguna	12	San Juan la Laguna	10	Octubre	2023-10-10T00:00:00	2024-11-08T19:00:00	7	Dirección del viento	0
82447	7	Sololá	717	San Juan la Laguna	12	San Juan la Laguna	10	Octubre	2023-10-10T00:00:00	2024-11-08T19:00:00	1	Precipitación	0
82448	7	Sololá	717	San Juan la Laguna	12	San Juan la Laguna	10	Octubre	2023-10-10T00:00:00	2024-11-08T19:00:00	8	Radiación solar	0
82449	7	Sololá	717	San Juan la Laguna	12	San Juan la Laguna	10	Octubre	2023-10-10T00:00:00	2024-11-08T20:00:00	2	Temperatura media	19.1
82450	7	Sololá	717	San Juan la Laguna	12	San Juan la Laguna	10	Octubre	2023-10-10T00:00:00	2024-11-08T20:00:00	4	Temperatura máxima	19.7
82451	7	Sololá	717	San Juan la Laguna	12	San Juan la Laguna	10	Octubre	2023-10-10T00:00:00	2024-11-08T20:00:00	3	Temperatura mínima	19.1
82452	7	Sololá	717	San Juan la Laguna	12	San Juan la Laguna	10	Octubre	2023-10-10T00:00:00	2024-11-08T20:00:00	5	Humedad	88
82453	7	Sololá	717	San Juan la Laguna	12	San Juan la Laguna	10	Octubre	2023-10-10T00:00:00	2024-11-08T20:00:00	6	Velocidad del viento	0
82454	7	Sololá	717	San Juan la Laguna	12	San Juan la Laguna	10	Octubre	2023-10-10T00:00:00	2024-11-08T20:00:00	7	Dirección del viento	0
82455	7	Sololá	717	San Juan la Laguna	12	San Juan la Laguna	10	Octubre	2023-10-10T00:00:00	2024-11-08T20:00:00	1	Precipitación	0.2
82456	7	Sololá	717	San Juan la Laguna	12	San Juan la Laguna	10	Octubre	2023-10-10T00:00:00	2024-11-08T20:00:00	8	Radiación solar	0
82457	7	Sololá	717	San Juan la Laguna	12	San Juan la Laguna	10	Octubre	2023-10-10T00:00:00	2024-11-08T21:00:00	2	Temperatura media	18.5
82458	7	Sololá	717	San Juan la Laguna	12	San Juan la Laguna	10	Octubre	2023-10-10T00:00:00	2024-11-08T21:00:00	4	Temperatura máxima	19.1
82459	7	Sololá	717	San Juan la Laguna	12	San Juan la Laguna	10	Octubre	2023-10-10T00:00:00	2024-11-08T21:00:00	3	Temperatura mínima	18.5
82460	7	Sololá	717	San Juan la Laguna	12	San Juan la Laguna	10	Octubre	2023-10-10T00:00:00	2024-11-08T21:00:00	5	Humedad	89
82461	7	Sololá	717	San Juan la Laguna	12	San Juan la Laguna	10	Octubre	2023-10-10T00:00:00	2024-11-08T21:00:00	6	Velocidad del viento	0
82462	7	Sololá	717	San Juan la Laguna	12	San Juan la Laguna	10	Octubre	2023-10-10T00:00:00	2024-11-08T21:00:00	7	Dirección del viento	0
82463	7	Sololá	717	San Juan la Laguna	12	San Juan la Laguna	10	Octubre	2023-10-10T00:00:00	2024-11-08T21:00:00	1	Precipitación	0
82464	7	Sololá	717	San Juan la Laguna	12	San Juan la Laguna	10	Octubre	2023-10-10T00:00:00	2024-11-08T21:00:00	8	Radiación solar	0
82465	7	Sololá	717	San Juan la Laguna	12	San Juan la Laguna	10	Octubre	2023-10-10T00:00:00	2024-11-08T22:00:00	2	Temperatura media	18.8
82466	7	Sololá	717	San Juan la Laguna	12	San Juan la Laguna	10	Octubre	2023-10-10T00:00:00	2024-11-08T22:00:00	4	Temperatura máxima	18.8
82467	7	Sololá	717	San Juan la Laguna	12	San Juan la Laguna	10	Octubre	2023-10-10T00:00:00	2024-11-08T22:00:00	3	Temperatura mínima	18.5
82468	7	Sololá	717	San Juan la Laguna	12	San Juan la Laguna	10	Octubre	2023-10-10T00:00:00	2024-11-08T22:00:00	5	Humedad	89
82469	7	Sololá	717	San Juan la Laguna	12	San Juan la Laguna	10	Octubre	2023-10-10T00:00:00	2024-11-08T22:00:00	6	Velocidad del viento	0
82470	7	Sololá	717	San Juan la Laguna	12	San Juan la Laguna	10	Octubre	2023-10-10T00:00:00	2024-11-08T22:00:00	7	Dirección del viento	0
82471	7	Sololá	717	San Juan la Laguna	12	San Juan la Laguna	10	Octubre	2023-10-10T00:00:00	2024-11-08T22:00:00	1	Precipitación	0
82472	7	Sololá	717	San Juan la Laguna	12	San Juan la Laguna	10	Octubre	2023-10-10T00:00:00	2024-11-08T22:00:00	8	Radiación solar	0
82473	7	Sololá	717	San Juan la Laguna	12	San Juan la Laguna	10	Octubre	2023-10-10T00:00:00	2024-11-08T23:00:00	2	Temperatura media	18.4
82474	7	Sololá	717	San Juan la Laguna	12	San Juan la Laguna	10	Octubre	2023-10-10T00:00:00	2024-11-08T23:00:00	4	Temperatura máxima	18.8
82475	7	Sololá	717	San Juan la Laguna	12	San Juan la Laguna	10	Octubre	2023-10-10T00:00:00	2024-11-08T23:00:00	3	Temperatura mínima	18.4
82476	7	Sololá	717	San Juan la Laguna	12	San Juan la Laguna	10	Octubre	2023-10-10T00:00:00	2024-11-08T23:00:00	5	Humedad	90
82477	7	Sololá	717	San Juan la Laguna	12	San Juan la Laguna	10	Octubre	2023-10-10T00:00:00	2024-11-08T23:00:00	6	Velocidad del viento	0
82478	7	Sololá	717	San Juan la Laguna	12	San Juan la Laguna	10	Octubre	2023-10-10T00:00:00	2024-11-08T23:00:00	7	Dirección del viento	0
82479	7	Sololá	717	San Juan la Laguna	12	San Juan la Laguna	10	Octubre	2023-10-10T00:00:00	2024-11-08T23:00:00	1	Precipitación	0
82480	7	Sololá	717	San Juan la Laguna	12	San Juan la Laguna	10	Octubre	2023-10-10T00:00:00	2024-11-08T23:00:00	8	Radiación solar	0
82481	7	Sololá	717	San Juan la Laguna	12	San Juan la Laguna	10	Octubre	2023-11-10T00:00:00	2024-11-08T00:00:00	2	Temperatura media	18.1
82482	7	Sololá	717	San Juan la Laguna	12	San Juan la Laguna	10	Octubre	2023-11-10T00:00:00	2024-11-08T00:00:00	4	Temperatura máxima	18.5
82483	7	Sololá	717	San Juan la Laguna	12	San Juan la Laguna	10	Octubre	2023-11-10T00:00:00	2024-11-08T00:00:00	3	Temperatura mínima	18.1
82484	7	Sololá	717	San Juan la Laguna	12	San Juan la Laguna	10	Octubre	2023-11-10T00:00:00	2024-11-08T00:00:00	5	Humedad	91
82485	7	Sololá	717	San Juan la Laguna	12	San Juan la Laguna	10	Octubre	2023-11-10T00:00:00	2024-11-08T00:00:00	6	Velocidad del viento	0
82486	7	Sololá	717	San Juan la Laguna	12	San Juan la Laguna	10	Octubre	2023-11-10T00:00:00	2024-11-08T00:00:00	7	Dirección del viento	0
82487	7	Sololá	717	San Juan la Laguna	12	San Juan la Laguna	10	Octubre	2023-11-10T00:00:00	2024-11-08T00:00:00	1	Precipitación	0.4
82488	7	Sololá	717	San Juan la Laguna	12	San Juan la Laguna	10	Octubre	2023-11-10T00:00:00	2024-11-08T00:00:00	8	Radiación solar	0
82489	7	Sololá	717	San Juan la Laguna	12	San Juan la Laguna	10	Octubre	2023-11-10T00:00:00	2024-11-08T01:00:00	2	Temperatura media	17.8
82490	7	Sololá	717	San Juan la Laguna	12	San Juan la Laguna	10	Octubre	2023-11-10T00:00:00	2024-11-08T01:00:00	4	Temperatura máxima	18.1
82491	7	Sololá	717	San Juan la Laguna	12	San Juan la Laguna	10	Octubre	2023-11-10T00:00:00	2024-11-08T01:00:00	3	Temperatura mínima	17.7
82492	7	Sololá	717	San Juan la Laguna	12	San Juan la Laguna	10	Octubre	2023-11-10T00:00:00	2024-11-08T01:00:00	5	Humedad	91
82493	7	Sololá	717	San Juan la Laguna	12	San Juan la Laguna	10	Octubre	2023-11-10T00:00:00	2024-11-08T01:00:00	6	Velocidad del viento	0
82494	7	Sololá	717	San Juan la Laguna	12	San Juan la Laguna	10	Octubre	2023-11-10T00:00:00	2024-11-08T01:00:00	7	Dirección del viento	0
82495	7	Sololá	717	San Juan la Laguna	12	San Juan la Laguna	10	Octubre	2023-11-10T00:00:00	2024-11-08T01:00:00	1	Precipitación	0.4
82496	7	Sololá	717	San Juan la Laguna	12	San Juan la Laguna	10	Octubre	2023-11-10T00:00:00	2024-11-08T01:00:00	8	Radiación solar	0
82497	7	Sololá	717	San Juan la Laguna	12	San Juan la Laguna	10	Octubre	2023-11-10T00:00:00	2024-11-08T02:00:00	2	Temperatura media	17.3
82498	7	Sololá	717	San Juan la Laguna	12	San Juan la Laguna	10	Octubre	2023-11-10T00:00:00	2024-11-08T02:00:00	4	Temperatura máxima	17.8
82499	7	Sololá	717	San Juan la Laguna	12	San Juan la Laguna	10	Octubre	2023-11-10T00:00:00	2024-11-08T02:00:00	3	Temperatura mínima	17.3
82500	7	Sololá	717	San Juan la Laguna	12	San Juan la Laguna	10	Octubre	2023-11-10T00:00:00	2024-11-08T02:00:00	5	Humedad	91
82501	7	Sololá	717	San Juan la Laguna	12	San Juan la Laguna	10	Octubre	2023-11-10T00:00:00	2024-11-08T02:00:00	6	Velocidad del viento	1.6
82502	7	Sololá	717	San Juan la Laguna	12	San Juan la Laguna	10	Octubre	2023-11-10T00:00:00	2024-11-08T02:00:00	7	Dirección del viento	1.61
82503	7	Sololá	717	San Juan la Laguna	12	San Juan la Laguna	10	Octubre	2023-11-10T00:00:00	2024-11-08T02:00:00	1	Precipitación	0.2
82504	7	Sololá	717	San Juan la Laguna	12	San Juan la Laguna	10	Octubre	2023-11-10T00:00:00	2024-11-08T02:00:00	8	Radiación solar	0
82505	7	Sololá	717	San Juan la Laguna	12	San Juan la Laguna	10	Octubre	2023-11-10T00:00:00	2024-11-08T03:00:00	2	Temperatura media	17
82506	7	Sololá	717	San Juan la Laguna	12	San Juan la Laguna	10	Octubre	2023-11-10T00:00:00	2024-11-08T03:00:00	4	Temperatura máxima	17.3
82507	7	Sololá	717	San Juan la Laguna	12	San Juan la Laguna	10	Octubre	2023-11-10T00:00:00	2024-11-08T03:00:00	3	Temperatura mínima	17
82508	7	Sololá	717	San Juan la Laguna	12	San Juan la Laguna	10	Octubre	2023-11-10T00:00:00	2024-11-08T03:00:00	5	Humedad	91
82509	7	Sololá	717	San Juan la Laguna	12	San Juan la Laguna	10	Octubre	2023-11-10T00:00:00	2024-11-08T03:00:00	6	Velocidad del viento	1.6
82510	7	Sololá	717	San Juan la Laguna	12	San Juan la Laguna	10	Octubre	2023-11-10T00:00:00	2024-11-08T03:00:00	7	Dirección del viento	1.61
82511	7	Sololá	717	San Juan la Laguna	12	San Juan la Laguna	10	Octubre	2023-11-10T00:00:00	2024-11-08T03:00:00	1	Precipitación	0
82512	7	Sololá	717	San Juan la Laguna	12	San Juan la Laguna	10	Octubre	2023-11-10T00:00:00	2024-11-08T03:00:00	8	Radiación solar	0
82513	7	Sololá	717	San Juan la Laguna	12	San Juan la Laguna	10	Octubre	2023-11-10T00:00:00	2024-11-08T04:00:00	2	Temperatura media	17.3
82514	7	Sololá	717	San Juan la Laguna	12	San Juan la Laguna	10	Octubre	2023-11-10T00:00:00	2024-11-08T04:00:00	4	Temperatura máxima	17.3
82515	7	Sololá	717	San Juan la Laguna	12	San Juan la Laguna	10	Octubre	2023-11-10T00:00:00	2024-11-08T04:00:00	3	Temperatura mínima	16.9
82516	7	Sololá	717	San Juan la Laguna	12	San Juan la Laguna	10	Octubre	2023-11-10T00:00:00	2024-11-08T04:00:00	5	Humedad	90
82517	7	Sololá	717	San Juan la Laguna	12	San Juan la Laguna	10	Octubre	2023-11-10T00:00:00	2024-11-08T04:00:00	6	Velocidad del viento	1.6
82518	7	Sololá	717	San Juan la Laguna	12	San Juan la Laguna	10	Octubre	2023-11-10T00:00:00	2024-11-08T04:00:00	7	Dirección del viento	1.61
82519	7	Sololá	717	San Juan la Laguna	12	San Juan la Laguna	10	Octubre	2023-11-10T00:00:00	2024-11-08T04:00:00	1	Precipitación	0
82520	7	Sololá	717	San Juan la Laguna	12	San Juan la Laguna	10	Octubre	2023-11-10T00:00:00	2024-11-08T04:00:00	8	Radiación solar	0
82521	7	Sololá	717	San Juan la Laguna	12	San Juan la Laguna	10	Octubre	2023-11-10T00:00:00	2024-11-08T05:00:00	2	Temperatura media	17.7
82522	7	Sololá	717	San Juan la Laguna	12	San Juan la Laguna	10	Octubre	2023-11-10T00:00:00	2024-11-08T05:00:00	4	Temperatura máxima	17.9
82523	7	Sololá	717	San Juan la Laguna	12	San Juan la Laguna	10	Octubre	2023-11-10T00:00:00	2024-11-08T05:00:00	3	Temperatura mínima	17.3
82524	7	Sololá	717	San Juan la Laguna	12	San Juan la Laguna	10	Octubre	2023-11-10T00:00:00	2024-11-08T05:00:00	5	Humedad	90
82525	7	Sololá	717	San Juan la Laguna	12	San Juan la Laguna	10	Octubre	2023-11-10T00:00:00	2024-11-08T05:00:00	6	Velocidad del viento	6.4
82526	7	Sololá	717	San Juan la Laguna	12	San Juan la Laguna	10	Octubre	2023-11-10T00:00:00	2024-11-08T05:00:00	7	Dirección del viento	6.44
82527	7	Sololá	717	San Juan la Laguna	12	San Juan la Laguna	10	Octubre	2023-11-10T00:00:00	2024-11-08T05:00:00	1	Precipitación	0
82528	7	Sololá	717	San Juan la Laguna	12	San Juan la Laguna	10	Octubre	2023-11-10T00:00:00	2024-11-08T05:00:00	8	Radiación solar	0
82529	7	Sololá	717	San Juan la Laguna	12	San Juan la Laguna	10	Octubre	2023-11-10T00:00:00	2024-11-08T06:00:00	2	Temperatura media	17.2
82530	7	Sololá	717	San Juan la Laguna	12	San Juan la Laguna	10	Octubre	2023-11-10T00:00:00	2024-11-08T06:00:00	4	Temperatura máxima	17.8
82531	7	Sololá	717	San Juan la Laguna	12	San Juan la Laguna	10	Octubre	2023-11-10T00:00:00	2024-11-08T06:00:00	3	Temperatura mínima	17.2
82532	7	Sololá	717	San Juan la Laguna	12	San Juan la Laguna	10	Octubre	2023-11-10T00:00:00	2024-11-08T06:00:00	5	Humedad	90
82533	7	Sololá	717	San Juan la Laguna	12	San Juan la Laguna	10	Octubre	2023-11-10T00:00:00	2024-11-08T06:00:00	6	Velocidad del viento	4.8
82534	7	Sololá	717	San Juan la Laguna	12	San Juan la Laguna	10	Octubre	2023-11-10T00:00:00	2024-11-08T06:00:00	7	Dirección del viento	4.83
82535	7	Sololá	717	San Juan la Laguna	12	San Juan la Laguna	10	Octubre	2023-11-10T00:00:00	2024-11-08T06:00:00	1	Precipitación	0
82536	7	Sololá	717	San Juan la Laguna	12	San Juan la Laguna	10	Octubre	2023-11-10T00:00:00	2024-11-08T06:00:00	8	Radiación solar	1
82537	7	Sololá	717	San Juan la Laguna	12	San Juan la Laguna	10	Octubre	2023-11-10T00:00:00	2024-11-08T07:00:00	2	Temperatura media	17.4
82538	7	Sololá	717	San Juan la Laguna	12	San Juan la Laguna	10	Octubre	2023-11-10T00:00:00	2024-11-08T07:00:00	4	Temperatura máxima	17.4
82539	7	Sololá	717	San Juan la Laguna	12	San Juan la Laguna	10	Octubre	2023-11-10T00:00:00	2024-11-08T07:00:00	3	Temperatura mínima	17
82540	7	Sololá	717	San Juan la Laguna	12	San Juan la Laguna	10	Octubre	2023-11-10T00:00:00	2024-11-08T07:00:00	5	Humedad	90
82541	7	Sololá	717	San Juan la Laguna	12	San Juan la Laguna	10	Octubre	2023-11-10T00:00:00	2024-11-08T07:00:00	6	Velocidad del viento	1.6
82542	7	Sololá	717	San Juan la Laguna	12	San Juan la Laguna	10	Octubre	2023-11-10T00:00:00	2024-11-08T07:00:00	7	Dirección del viento	1.61
82543	7	Sololá	717	San Juan la Laguna	12	San Juan la Laguna	10	Octubre	2023-11-10T00:00:00	2024-11-08T07:00:00	1	Precipitación	0
82544	7	Sololá	717	San Juan la Laguna	12	San Juan la Laguna	10	Octubre	2023-11-10T00:00:00	2024-11-08T07:00:00	8	Radiación solar	56
82545	7	Sololá	717	San Juan la Laguna	12	San Juan la Laguna	10	Octubre	2023-11-10T00:00:00	2024-11-08T08:00:00	2	Temperatura media	20.9
82546	7	Sololá	717	San Juan la Laguna	12	San Juan la Laguna	10	Octubre	2023-11-10T00:00:00	2024-11-08T08:00:00	4	Temperatura máxima	20.9
82547	7	Sololá	717	San Juan la Laguna	12	San Juan la Laguna	10	Octubre	2023-11-10T00:00:00	2024-11-08T08:00:00	3	Temperatura mínima	17.4
82548	7	Sololá	717	San Juan la Laguna	12	San Juan la Laguna	10	Octubre	2023-11-10T00:00:00	2024-11-08T08:00:00	5	Humedad	81
82549	7	Sololá	717	San Juan la Laguna	12	San Juan la Laguna	10	Octubre	2023-11-10T00:00:00	2024-11-08T08:00:00	6	Velocidad del viento	0
82550	7	Sololá	717	San Juan la Laguna	12	San Juan la Laguna	10	Octubre	2023-11-10T00:00:00	2024-11-08T08:00:00	7	Dirección del viento	0
82551	7	Sololá	717	San Juan la Laguna	12	San Juan la Laguna	10	Octubre	2023-11-10T00:00:00	2024-11-08T08:00:00	1	Precipitación	0
82552	7	Sololá	717	San Juan la Laguna	12	San Juan la Laguna	10	Octubre	2023-11-10T00:00:00	2024-11-08T08:00:00	8	Radiación solar	228
82553	7	Sololá	717	San Juan la Laguna	12	San Juan la Laguna	10	Octubre	2023-11-10T00:00:00	2024-11-08T09:00:00	2	Temperatura media	22.3
82554	7	Sololá	717	San Juan la Laguna	12	San Juan la Laguna	10	Octubre	2023-11-10T00:00:00	2024-11-08T09:00:00	4	Temperatura máxima	22.3
82555	7	Sololá	717	San Juan la Laguna	12	San Juan la Laguna	10	Octubre	2023-11-10T00:00:00	2024-11-08T09:00:00	3	Temperatura mínima	20.9
82556	7	Sololá	717	San Juan la Laguna	12	San Juan la Laguna	10	Octubre	2023-11-10T00:00:00	2024-11-08T09:00:00	5	Humedad	76
82557	7	Sololá	717	San Juan la Laguna	12	San Juan la Laguna	10	Octubre	2023-11-10T00:00:00	2024-11-08T09:00:00	6	Velocidad del viento	0
82558	7	Sololá	717	San Juan la Laguna	12	San Juan la Laguna	10	Octubre	2023-11-10T00:00:00	2024-11-08T09:00:00	7	Dirección del viento	0
82559	7	Sololá	717	San Juan la Laguna	12	San Juan la Laguna	10	Octubre	2023-11-10T00:00:00	2024-11-08T09:00:00	1	Precipitación	0
82560	7	Sololá	717	San Juan la Laguna	12	San Juan la Laguna	10	Octubre	2023-11-10T00:00:00	2024-11-08T09:00:00	8	Radiación solar	477
82561	7	Sololá	717	San Juan la Laguna	12	San Juan la Laguna	10	Octubre	2023-11-10T00:00:00	2024-11-08T10:00:00	2	Temperatura media	21.8
82562	7	Sololá	717	San Juan la Laguna	12	San Juan la Laguna	10	Octubre	2023-11-10T00:00:00	2024-11-08T10:00:00	4	Temperatura máxima	23.1
82563	7	Sololá	717	San Juan la Laguna	12	San Juan la Laguna	10	Octubre	2023-11-10T00:00:00	2024-11-08T10:00:00	3	Temperatura mínima	21.8
82564	7	Sololá	717	San Juan la Laguna	12	San Juan la Laguna	10	Octubre	2023-11-10T00:00:00	2024-11-08T10:00:00	5	Humedad	77
82565	7	Sololá	717	San Juan la Laguna	12	San Juan la Laguna	10	Octubre	2023-11-10T00:00:00	2024-11-08T10:00:00	6	Velocidad del viento	1.6
82566	7	Sololá	717	San Juan la Laguna	12	San Juan la Laguna	10	Octubre	2023-11-10T00:00:00	2024-11-08T10:00:00	7	Dirección del viento	1.61
82567	7	Sololá	717	San Juan la Laguna	12	San Juan la Laguna	10	Octubre	2023-11-10T00:00:00	2024-11-08T10:00:00	1	Precipitación	0
82568	7	Sololá	717	San Juan la Laguna	12	San Juan la Laguna	10	Octubre	2023-11-10T00:00:00	2024-11-08T10:00:00	8	Radiación solar	439
82569	7	Sololá	717	San Juan la Laguna	12	San Juan la Laguna	10	Octubre	2023-11-10T00:00:00	2024-11-08T11:00:00	2	Temperatura media	22.6
82570	7	Sololá	717	San Juan la Laguna	12	San Juan la Laguna	10	Octubre	2023-11-10T00:00:00	2024-11-08T11:00:00	4	Temperatura máxima	22.6
82571	7	Sololá	717	San Juan la Laguna	12	San Juan la Laguna	10	Octubre	2023-11-10T00:00:00	2024-11-08T11:00:00	3	Temperatura mínima	21.4
82572	7	Sololá	717	San Juan la Laguna	12	San Juan la Laguna	10	Octubre	2023-11-10T00:00:00	2024-11-08T11:00:00	5	Humedad	76
82573	7	Sololá	717	San Juan la Laguna	12	San Juan la Laguna	10	Octubre	2023-11-10T00:00:00	2024-11-08T11:00:00	6	Velocidad del viento	0
82574	7	Sololá	717	San Juan la Laguna	12	San Juan la Laguna	10	Octubre	2023-11-10T00:00:00	2024-11-08T11:00:00	7	Dirección del viento	0
82575	7	Sololá	717	San Juan la Laguna	12	San Juan la Laguna	10	Octubre	2023-11-10T00:00:00	2024-11-08T11:00:00	1	Precipitación	0
82576	7	Sololá	717	San Juan la Laguna	12	San Juan la Laguna	10	Octubre	2023-11-10T00:00:00	2024-11-08T11:00:00	8	Radiación solar	356
82577	7	Sololá	717	San Juan la Laguna	12	San Juan la Laguna	10	Octubre	2023-11-10T00:00:00	2024-11-08T12:00:00	2	Temperatura media	21.8
82578	7	Sololá	717	San Juan la Laguna	12	San Juan la Laguna	10	Octubre	2023-11-10T00:00:00	2024-11-08T12:00:00	4	Temperatura máxima	22.8
82579	7	Sololá	717	San Juan la Laguna	12	San Juan la Laguna	10	Octubre	2023-11-10T00:00:00	2024-11-08T12:00:00	3	Temperatura mínima	21.8
82580	7	Sololá	717	San Juan la Laguna	12	San Juan la Laguna	10	Octubre	2023-11-10T00:00:00	2024-11-08T12:00:00	5	Humedad	79
82581	7	Sololá	717	San Juan la Laguna	12	San Juan la Laguna	10	Octubre	2023-11-10T00:00:00	2024-11-08T12:00:00	6	Velocidad del viento	0
82582	7	Sololá	717	San Juan la Laguna	12	San Juan la Laguna	10	Octubre	2023-11-10T00:00:00	2024-11-08T12:00:00	7	Dirección del viento	0
82583	7	Sololá	717	San Juan la Laguna	12	San Juan la Laguna	10	Octubre	2023-11-10T00:00:00	2024-11-08T12:00:00	1	Precipitación	0
82584	7	Sololá	717	San Juan la Laguna	12	San Juan la Laguna	10	Octubre	2023-11-10T00:00:00	2024-11-08T12:00:00	8	Radiación solar	394
82585	7	Sololá	717	San Juan la Laguna	12	San Juan la Laguna	10	Octubre	2023-11-10T00:00:00	2024-11-08T13:00:00	2	Temperatura media	21.7
82586	7	Sololá	717	San Juan la Laguna	12	San Juan la Laguna	10	Octubre	2023-11-10T00:00:00	2024-11-08T13:00:00	4	Temperatura máxima	21.8
82587	7	Sololá	717	San Juan la Laguna	12	San Juan la Laguna	10	Octubre	2023-11-10T00:00:00	2024-11-08T13:00:00	3	Temperatura mínima	21.4
82588	7	Sololá	717	San Juan la Laguna	12	San Juan la Laguna	10	Octubre	2023-11-10T00:00:00	2024-11-08T13:00:00	5	Humedad	78
82589	7	Sololá	717	San Juan la Laguna	12	San Juan la Laguna	10	Octubre	2023-11-10T00:00:00	2024-11-08T13:00:00	6	Velocidad del viento	1.6
82590	7	Sololá	717	San Juan la Laguna	12	San Juan la Laguna	10	Octubre	2023-11-10T00:00:00	2024-11-08T13:00:00	7	Dirección del viento	1.61
82591	7	Sololá	717	San Juan la Laguna	12	San Juan la Laguna	10	Octubre	2023-11-10T00:00:00	2024-11-08T13:00:00	1	Precipitación	0
82592	7	Sololá	717	San Juan la Laguna	12	San Juan la Laguna	10	Octubre	2023-11-10T00:00:00	2024-11-08T13:00:00	8	Radiación solar	362
82593	7	Sololá	717	San Juan la Laguna	12	San Juan la Laguna	10	Octubre	2023-11-10T00:00:00	2024-11-08T14:00:00	2	Temperatura media	20.8
82594	7	Sololá	717	San Juan la Laguna	12	San Juan la Laguna	10	Octubre	2023-11-10T00:00:00	2024-11-08T14:00:00	4	Temperatura máxima	21.7
82595	7	Sololá	717	San Juan la Laguna	12	San Juan la Laguna	10	Octubre	2023-11-10T00:00:00	2024-11-08T14:00:00	3	Temperatura mínima	20.7
82596	7	Sololá	717	San Juan la Laguna	12	San Juan la Laguna	10	Octubre	2023-11-10T00:00:00	2024-11-08T14:00:00	5	Humedad	81
82597	7	Sololá	717	San Juan la Laguna	12	San Juan la Laguna	10	Octubre	2023-11-10T00:00:00	2024-11-08T14:00:00	6	Velocidad del viento	1.6
82598	7	Sololá	717	San Juan la Laguna	12	San Juan la Laguna	10	Octubre	2023-11-10T00:00:00	2024-11-08T14:00:00	7	Dirección del viento	1.61
82599	7	Sololá	717	San Juan la Laguna	12	San Juan la Laguna	10	Octubre	2023-11-10T00:00:00	2024-11-08T14:00:00	1	Precipitación	0
82600	7	Sololá	717	San Juan la Laguna	12	San Juan la Laguna	10	Octubre	2023-11-10T00:00:00	2024-11-08T14:00:00	8	Radiación solar	169
82601	7	Sololá	717	San Juan la Laguna	12	San Juan la Laguna	10	Octubre	2023-11-10T00:00:00	2024-11-08T15:00:00	2	Temperatura media	20.3
82602	7	Sololá	717	San Juan la Laguna	12	San Juan la Laguna	10	Octubre	2023-11-10T00:00:00	2024-11-08T15:00:00	4	Temperatura máxima	20.8
82603	7	Sololá	717	San Juan la Laguna	12	San Juan la Laguna	10	Octubre	2023-11-10T00:00:00	2024-11-08T15:00:00	3	Temperatura mínima	20.2
82604	7	Sololá	717	San Juan la Laguna	12	San Juan la Laguna	10	Octubre	2023-11-10T00:00:00	2024-11-08T15:00:00	5	Humedad	83
82605	7	Sololá	717	San Juan la Laguna	12	San Juan la Laguna	10	Octubre	2023-11-10T00:00:00	2024-11-08T15:00:00	6	Velocidad del viento	0
82606	7	Sololá	717	San Juan la Laguna	12	San Juan la Laguna	10	Octubre	2023-11-10T00:00:00	2024-11-08T15:00:00	7	Dirección del viento	0
82607	7	Sololá	717	San Juan la Laguna	12	San Juan la Laguna	10	Octubre	2023-11-10T00:00:00	2024-11-08T15:00:00	1	Precipitación	0
82608	7	Sololá	717	San Juan la Laguna	12	San Juan la Laguna	10	Octubre	2023-11-10T00:00:00	2024-11-08T15:00:00	8	Radiación solar	86
82609	7	Sololá	717	San Juan la Laguna	12	San Juan la Laguna	10	Octubre	2023-11-10T00:00:00	2024-11-08T16:00:00	2	Temperatura media	20.3
82610	7	Sololá	717	San Juan la Laguna	12	San Juan la Laguna	10	Octubre	2023-11-10T00:00:00	2024-11-08T16:00:00	4	Temperatura máxima	20.4
82611	7	Sololá	717	San Juan la Laguna	12	San Juan la Laguna	10	Octubre	2023-11-10T00:00:00	2024-11-08T16:00:00	3	Temperatura mínima	20.3
82612	7	Sololá	717	San Juan la Laguna	12	San Juan la Laguna	10	Octubre	2023-11-10T00:00:00	2024-11-08T16:00:00	5	Humedad	84
82613	7	Sololá	717	San Juan la Laguna	12	San Juan la Laguna	10	Octubre	2023-11-10T00:00:00	2024-11-08T16:00:00	6	Velocidad del viento	0
82614	7	Sololá	717	San Juan la Laguna	12	San Juan la Laguna	10	Octubre	2023-11-10T00:00:00	2024-11-08T16:00:00	7	Dirección del viento	0
82615	7	Sololá	717	San Juan la Laguna	12	San Juan la Laguna	10	Octubre	2023-11-10T00:00:00	2024-11-08T16:00:00	1	Precipitación	0
82616	7	Sololá	717	San Juan la Laguna	12	San Juan la Laguna	10	Octubre	2023-11-10T00:00:00	2024-11-08T16:00:00	8	Radiación solar	45
82617	7	Sololá	717	San Juan la Laguna	12	San Juan la Laguna	10	Octubre	2023-11-10T00:00:00	2024-11-08T17:00:00	2	Temperatura media	19.9
82618	7	Sololá	717	San Juan la Laguna	12	San Juan la Laguna	10	Octubre	2023-11-10T00:00:00	2024-11-08T17:00:00	4	Temperatura máxima	20.4
82619	7	Sololá	717	San Juan la Laguna	12	San Juan la Laguna	10	Octubre	2023-11-10T00:00:00	2024-11-08T17:00:00	3	Temperatura mínima	19.8
82620	7	Sololá	717	San Juan la Laguna	12	San Juan la Laguna	10	Octubre	2023-11-10T00:00:00	2024-11-08T17:00:00	5	Humedad	87
82621	7	Sololá	717	San Juan la Laguna	12	San Juan la Laguna	10	Octubre	2023-11-10T00:00:00	2024-11-08T17:00:00	6	Velocidad del viento	0
82622	7	Sololá	717	San Juan la Laguna	12	San Juan la Laguna	10	Octubre	2023-11-10T00:00:00	2024-11-08T17:00:00	7	Dirección del viento	0
82623	7	Sololá	717	San Juan la Laguna	12	San Juan la Laguna	10	Octubre	2023-11-10T00:00:00	2024-11-08T17:00:00	1	Precipitación	0
82624	7	Sololá	717	San Juan la Laguna	12	San Juan la Laguna	10	Octubre	2023-11-10T00:00:00	2024-11-08T17:00:00	8	Radiación solar	7
82625	7	Sololá	717	San Juan la Laguna	12	San Juan la Laguna	10	Octubre	2023-11-10T00:00:00	2024-11-08T18:00:00	2	Temperatura media	18.9
82626	7	Sololá	717	San Juan la Laguna	12	San Juan la Laguna	10	Octubre	2023-11-10T00:00:00	2024-11-08T18:00:00	4	Temperatura máxima	19.9
82627	7	Sololá	717	San Juan la Laguna	12	San Juan la Laguna	10	Octubre	2023-11-10T00:00:00	2024-11-08T18:00:00	3	Temperatura mínima	18.8
82628	7	Sololá	717	San Juan la Laguna	12	San Juan la Laguna	10	Octubre	2023-11-10T00:00:00	2024-11-08T18:00:00	5	Humedad	88
82629	7	Sololá	717	San Juan la Laguna	12	San Juan la Laguna	10	Octubre	2023-11-10T00:00:00	2024-11-08T18:00:00	6	Velocidad del viento	6.4
82630	7	Sololá	717	San Juan la Laguna	12	San Juan la Laguna	10	Octubre	2023-11-10T00:00:00	2024-11-08T18:00:00	7	Dirección del viento	6.44
82631	7	Sololá	717	San Juan la Laguna	12	San Juan la Laguna	10	Octubre	2023-11-10T00:00:00	2024-11-08T18:00:00	1	Precipitación	1.4
82632	7	Sololá	717	San Juan la Laguna	12	San Juan la Laguna	10	Octubre	2023-11-10T00:00:00	2024-11-08T18:00:00	8	Radiación solar	0
82633	7	Sololá	717	San Juan la Laguna	12	San Juan la Laguna	10	Octubre	2023-11-10T00:00:00	2024-11-08T19:00:00	2	Temperatura media	18.3
82634	7	Sololá	717	San Juan la Laguna	12	San Juan la Laguna	10	Octubre	2023-11-10T00:00:00	2024-11-08T19:00:00	4	Temperatura máxima	18.9
82635	7	Sololá	717	San Juan la Laguna	12	San Juan la Laguna	10	Octubre	2023-11-10T00:00:00	2024-11-08T19:00:00	3	Temperatura mínima	18.3
82636	7	Sololá	717	San Juan la Laguna	12	San Juan la Laguna	10	Octubre	2023-11-10T00:00:00	2024-11-08T19:00:00	5	Humedad	91
82637	7	Sololá	717	San Juan la Laguna	12	San Juan la Laguna	10	Octubre	2023-11-10T00:00:00	2024-11-08T19:00:00	6	Velocidad del viento	1.6
82638	7	Sololá	717	San Juan la Laguna	12	San Juan la Laguna	10	Octubre	2023-11-10T00:00:00	2024-11-08T19:00:00	7	Dirección del viento	1.61
82639	7	Sololá	717	San Juan la Laguna	12	San Juan la Laguna	10	Octubre	2023-11-10T00:00:00	2024-11-08T19:00:00	1	Precipitación	5
82640	7	Sololá	717	San Juan la Laguna	12	San Juan la Laguna	10	Octubre	2023-11-10T00:00:00	2024-11-08T19:00:00	8	Radiación solar	0
82641	7	Sololá	717	San Juan la Laguna	12	San Juan la Laguna	10	Octubre	2023-11-10T00:00:00	2024-11-08T20:00:00	2	Temperatura media	18.1
82642	7	Sololá	717	San Juan la Laguna	12	San Juan la Laguna	10	Octubre	2023-11-10T00:00:00	2024-11-08T20:00:00	4	Temperatura máxima	18.5
82643	7	Sololá	717	San Juan la Laguna	12	San Juan la Laguna	10	Octubre	2023-11-10T00:00:00	2024-11-08T20:00:00	3	Temperatura mínima	18
82644	7	Sololá	717	San Juan la Laguna	12	San Juan la Laguna	10	Octubre	2023-11-10T00:00:00	2024-11-08T20:00:00	5	Humedad	91
82645	7	Sololá	717	San Juan la Laguna	12	San Juan la Laguna	10	Octubre	2023-11-10T00:00:00	2024-11-08T20:00:00	6	Velocidad del viento	3.2
82646	7	Sololá	717	San Juan la Laguna	12	San Juan la Laguna	10	Octubre	2023-11-10T00:00:00	2024-11-08T20:00:00	7	Dirección del viento	3.22
82647	7	Sololá	717	San Juan la Laguna	12	San Juan la Laguna	10	Octubre	2023-11-10T00:00:00	2024-11-08T20:00:00	1	Precipitación	15.2
82648	7	Sololá	717	San Juan la Laguna	12	San Juan la Laguna	10	Octubre	2023-11-10T00:00:00	2024-11-08T20:00:00	8	Radiación solar	0
82649	7	Sololá	717	San Juan la Laguna	12	San Juan la Laguna	10	Octubre	2023-11-10T00:00:00	2024-11-08T21:00:00	2	Temperatura media	17.8
82650	7	Sololá	717	San Juan la Laguna	12	San Juan la Laguna	10	Octubre	2023-11-10T00:00:00	2024-11-08T21:00:00	4	Temperatura máxima	18.1
82651	7	Sololá	717	San Juan la Laguna	12	San Juan la Laguna	10	Octubre	2023-11-10T00:00:00	2024-11-08T21:00:00	3	Temperatura mínima	17.8
82652	7	Sololá	717	San Juan la Laguna	12	San Juan la Laguna	10	Octubre	2023-11-10T00:00:00	2024-11-08T21:00:00	5	Humedad	91
82653	7	Sololá	717	San Juan la Laguna	12	San Juan la Laguna	10	Octubre	2023-11-10T00:00:00	2024-11-08T21:00:00	6	Velocidad del viento	0
82654	7	Sololá	717	San Juan la Laguna	12	San Juan la Laguna	10	Octubre	2023-11-10T00:00:00	2024-11-08T21:00:00	7	Dirección del viento	0
82655	7	Sololá	717	San Juan la Laguna	12	San Juan la Laguna	10	Octubre	2023-11-10T00:00:00	2024-11-08T21:00:00	1	Precipitación	5.6
82656	7	Sololá	717	San Juan la Laguna	12	San Juan la Laguna	10	Octubre	2023-11-10T00:00:00	2024-11-08T21:00:00	8	Radiación solar	0
82657	7	Sololá	717	San Juan la Laguna	12	San Juan la Laguna	10	Octubre	2023-11-10T00:00:00	2024-11-08T22:00:00	2	Temperatura media	17.7
82658	7	Sololá	717	San Juan la Laguna	12	San Juan la Laguna	10	Octubre	2023-11-10T00:00:00	2024-11-08T22:00:00	4	Temperatura máxima	17.8
82659	7	Sololá	717	San Juan la Laguna	12	San Juan la Laguna	10	Octubre	2023-11-10T00:00:00	2024-11-08T22:00:00	3	Temperatura mínima	17.7
82660	7	Sololá	717	San Juan la Laguna	12	San Juan la Laguna	10	Octubre	2023-11-10T00:00:00	2024-11-08T22:00:00	5	Humedad	91
82661	7	Sololá	717	San Juan la Laguna	12	San Juan la Laguna	10	Octubre	2023-11-10T00:00:00	2024-11-08T22:00:00	6	Velocidad del viento	0
82662	7	Sololá	717	San Juan la Laguna	12	San Juan la Laguna	10	Octubre	2023-11-10T00:00:00	2024-11-08T22:00:00	7	Dirección del viento	0
82663	7	Sololá	717	San Juan la Laguna	12	San Juan la Laguna	10	Octubre	2023-11-10T00:00:00	2024-11-08T22:00:00	1	Precipitación	0.8
82664	7	Sololá	717	San Juan la Laguna	12	San Juan la Laguna	10	Octubre	2023-11-10T00:00:00	2024-11-08T22:00:00	8	Radiación solar	0
82665	7	Sololá	717	San Juan la Laguna	12	San Juan la Laguna	10	Octubre	2023-11-10T00:00:00	2024-11-08T23:00:00	2	Temperatura media	17.7
82666	7	Sololá	717	San Juan la Laguna	12	San Juan la Laguna	10	Octubre	2023-11-10T00:00:00	2024-11-08T23:00:00	4	Temperatura máxima	17.8
82667	7	Sololá	717	San Juan la Laguna	12	San Juan la Laguna	10	Octubre	2023-11-10T00:00:00	2024-11-08T23:00:00	3	Temperatura mínima	17.6
82668	7	Sololá	717	San Juan la Laguna	12	San Juan la Laguna	10	Octubre	2023-11-10T00:00:00	2024-11-08T23:00:00	5	Humedad	91
82669	7	Sololá	717	San Juan la Laguna	12	San Juan la Laguna	10	Octubre	2023-11-10T00:00:00	2024-11-08T23:00:00	6	Velocidad del viento	0
82670	7	Sololá	717	San Juan la Laguna	12	San Juan la Laguna	10	Octubre	2023-11-10T00:00:00	2024-11-08T23:00:00	7	Dirección del viento	0
82671	7	Sololá	717	San Juan la Laguna	12	San Juan la Laguna	10	Octubre	2023-11-10T00:00:00	2024-11-08T23:00:00	1	Precipitación	0
82672	7	Sololá	717	San Juan la Laguna	12	San Juan la Laguna	10	Octubre	2023-11-10T00:00:00	2024-11-08T23:00:00	8	Radiación solar	0
82673	7	Sololá	717	San Juan la Laguna	12	San Juan la Laguna	10	Octubre	2023-12-10T00:00:00	2024-11-08T00:00:00	2	Temperatura media	17.7
82674	7	Sololá	717	San Juan la Laguna	12	San Juan la Laguna	10	Octubre	2023-12-10T00:00:00	2024-11-08T00:00:00	4	Temperatura máxima	18
82675	7	Sololá	717	San Juan la Laguna	12	San Juan la Laguna	10	Octubre	2023-12-10T00:00:00	2024-11-08T00:00:00	3	Temperatura mínima	17.7
82676	7	Sololá	717	San Juan la Laguna	12	San Juan la Laguna	10	Octubre	2023-12-10T00:00:00	2024-11-08T00:00:00	5	Humedad	91
82677	7	Sololá	717	San Juan la Laguna	12	San Juan la Laguna	10	Octubre	2023-12-10T00:00:00	2024-11-08T00:00:00	6	Velocidad del viento	0
82678	7	Sololá	717	San Juan la Laguna	12	San Juan la Laguna	10	Octubre	2023-12-10T00:00:00	2024-11-08T00:00:00	7	Dirección del viento	0
82679	7	Sololá	717	San Juan la Laguna	12	San Juan la Laguna	10	Octubre	2023-12-10T00:00:00	2024-11-08T00:00:00	1	Precipitación	0.2
82680	7	Sololá	717	San Juan la Laguna	12	San Juan la Laguna	10	Octubre	2023-12-10T00:00:00	2024-11-08T00:00:00	8	Radiación solar	0
82681	7	Sololá	717	San Juan la Laguna	12	San Juan la Laguna	10	Octubre	2023-12-10T00:00:00	2024-11-08T01:00:00	2	Temperatura media	17.4
82682	7	Sololá	717	San Juan la Laguna	12	San Juan la Laguna	10	Octubre	2023-12-10T00:00:00	2024-11-08T01:00:00	4	Temperatura máxima	17.8
82683	7	Sololá	717	San Juan la Laguna	12	San Juan la Laguna	10	Octubre	2023-12-10T00:00:00	2024-11-08T01:00:00	3	Temperatura mínima	17.4
82684	7	Sololá	717	San Juan la Laguna	12	San Juan la Laguna	10	Octubre	2023-12-10T00:00:00	2024-11-08T01:00:00	5	Humedad	91
82685	7	Sololá	717	San Juan la Laguna	12	San Juan la Laguna	10	Octubre	2023-12-10T00:00:00	2024-11-08T01:00:00	6	Velocidad del viento	0
82686	7	Sololá	717	San Juan la Laguna	12	San Juan la Laguna	10	Octubre	2023-12-10T00:00:00	2024-11-08T01:00:00	7	Dirección del viento	0
82687	7	Sololá	717	San Juan la Laguna	12	San Juan la Laguna	10	Octubre	2023-12-10T00:00:00	2024-11-08T01:00:00	1	Precipitación	0
82688	7	Sololá	717	San Juan la Laguna	12	San Juan la Laguna	10	Octubre	2023-12-10T00:00:00	2024-11-08T01:00:00	8	Radiación solar	0
82689	7	Sololá	717	San Juan la Laguna	12	San Juan la Laguna	10	Octubre	2023-12-10T00:00:00	2024-11-08T02:00:00	2	Temperatura media	17.3
82690	7	Sololá	717	San Juan la Laguna	12	San Juan la Laguna	10	Octubre	2023-12-10T00:00:00	2024-11-08T02:00:00	4	Temperatura máxima	17.4
82691	7	Sololá	717	San Juan la Laguna	12	San Juan la Laguna	10	Octubre	2023-12-10T00:00:00	2024-11-08T02:00:00	3	Temperatura mínima	17.1
82692	7	Sololá	717	San Juan la Laguna	12	San Juan la Laguna	10	Octubre	2023-12-10T00:00:00	2024-11-08T02:00:00	5	Humedad	91
82693	7	Sololá	717	San Juan la Laguna	12	San Juan la Laguna	10	Octubre	2023-12-10T00:00:00	2024-11-08T02:00:00	6	Velocidad del viento	1.6
82694	7	Sololá	717	San Juan la Laguna	12	San Juan la Laguna	10	Octubre	2023-12-10T00:00:00	2024-11-08T02:00:00	7	Dirección del viento	1.61
82695	7	Sololá	717	San Juan la Laguna	12	San Juan la Laguna	10	Octubre	2023-12-10T00:00:00	2024-11-08T02:00:00	1	Precipitación	0
82696	7	Sololá	717	San Juan la Laguna	12	San Juan la Laguna	10	Octubre	2023-12-10T00:00:00	2024-11-08T02:00:00	8	Radiación solar	0
82697	7	Sololá	717	San Juan la Laguna	12	San Juan la Laguna	10	Octubre	2023-12-10T00:00:00	2024-11-08T03:00:00	2	Temperatura media	17.1
82698	7	Sololá	717	San Juan la Laguna	12	San Juan la Laguna	10	Octubre	2023-12-10T00:00:00	2024-11-08T03:00:00	4	Temperatura máxima	17.3
82699	7	Sololá	717	San Juan la Laguna	12	San Juan la Laguna	10	Octubre	2023-12-10T00:00:00	2024-11-08T03:00:00	3	Temperatura mínima	16.9
82700	7	Sololá	717	San Juan la Laguna	12	San Juan la Laguna	10	Octubre	2023-12-10T00:00:00	2024-11-08T03:00:00	5	Humedad	91
82701	7	Sololá	717	San Juan la Laguna	12	San Juan la Laguna	10	Octubre	2023-12-10T00:00:00	2024-11-08T03:00:00	6	Velocidad del viento	1.6
82702	7	Sololá	717	San Juan la Laguna	12	San Juan la Laguna	10	Octubre	2023-12-10T00:00:00	2024-11-08T03:00:00	7	Dirección del viento	1.61
82703	7	Sololá	717	San Juan la Laguna	12	San Juan la Laguna	10	Octubre	2023-12-10T00:00:00	2024-11-08T03:00:00	1	Precipitación	0
82704	7	Sololá	717	San Juan la Laguna	12	San Juan la Laguna	10	Octubre	2023-12-10T00:00:00	2024-11-08T03:00:00	8	Radiación solar	0
82705	7	Sololá	717	San Juan la Laguna	12	San Juan la Laguna	10	Octubre	2023-12-10T00:00:00	2024-11-08T04:00:00	2	Temperatura media	17.3
82706	7	Sololá	717	San Juan la Laguna	12	San Juan la Laguna	10	Octubre	2023-12-10T00:00:00	2024-11-08T04:00:00	4	Temperatura máxima	17.3
82707	7	Sololá	717	San Juan la Laguna	12	San Juan la Laguna	10	Octubre	2023-12-10T00:00:00	2024-11-08T04:00:00	3	Temperatura mínima	17
82708	7	Sololá	717	San Juan la Laguna	12	San Juan la Laguna	10	Octubre	2023-12-10T00:00:00	2024-11-08T04:00:00	5	Humedad	91
82709	7	Sololá	717	San Juan la Laguna	12	San Juan la Laguna	10	Octubre	2023-12-10T00:00:00	2024-11-08T04:00:00	6	Velocidad del viento	0
82710	7	Sololá	717	San Juan la Laguna	12	San Juan la Laguna	10	Octubre	2023-12-10T00:00:00	2024-11-08T04:00:00	7	Dirección del viento	0
82711	7	Sololá	717	San Juan la Laguna	12	San Juan la Laguna	10	Octubre	2023-12-10T00:00:00	2024-11-08T04:00:00	1	Precipitación	0
82712	7	Sololá	717	San Juan la Laguna	12	San Juan la Laguna	10	Octubre	2023-12-10T00:00:00	2024-11-08T04:00:00	8	Radiación solar	0
82713	7	Sololá	717	San Juan la Laguna	12	San Juan la Laguna	10	Octubre	2023-12-10T00:00:00	2024-11-08T05:00:00	2	Temperatura media	16.7
82714	7	Sololá	717	San Juan la Laguna	12	San Juan la Laguna	10	Octubre	2023-12-10T00:00:00	2024-11-08T05:00:00	4	Temperatura máxima	17.3
82715	7	Sololá	717	San Juan la Laguna	12	San Juan la Laguna	10	Octubre	2023-12-10T00:00:00	2024-11-08T05:00:00	3	Temperatura mínima	16.7
82716	7	Sololá	717	San Juan la Laguna	12	San Juan la Laguna	10	Octubre	2023-12-10T00:00:00	2024-11-08T05:00:00	5	Humedad	91
82717	7	Sololá	717	San Juan la Laguna	12	San Juan la Laguna	10	Octubre	2023-12-10T00:00:00	2024-11-08T05:00:00	6	Velocidad del viento	0
82718	7	Sololá	717	San Juan la Laguna	12	San Juan la Laguna	10	Octubre	2023-12-10T00:00:00	2024-11-08T05:00:00	7	Dirección del viento	0
82719	7	Sololá	717	San Juan la Laguna	12	San Juan la Laguna	10	Octubre	2023-12-10T00:00:00	2024-11-08T05:00:00	1	Precipitación	0
82720	7	Sololá	717	San Juan la Laguna	12	San Juan la Laguna	10	Octubre	2023-12-10T00:00:00	2024-11-08T05:00:00	8	Radiación solar	0
82721	7	Sololá	717	San Juan la Laguna	12	San Juan la Laguna	10	Octubre	2023-12-10T00:00:00	2024-11-08T06:00:00	2	Temperatura media	16.7
82722	7	Sololá	717	San Juan la Laguna	12	San Juan la Laguna	10	Octubre	2023-12-10T00:00:00	2024-11-08T06:00:00	4	Temperatura máxima	16.7
82723	7	Sololá	717	San Juan la Laguna	12	San Juan la Laguna	10	Octubre	2023-12-10T00:00:00	2024-11-08T06:00:00	3	Temperatura mínima	16.7
82724	7	Sololá	717	San Juan la Laguna	12	San Juan la Laguna	10	Octubre	2023-12-10T00:00:00	2024-11-08T06:00:00	5	Humedad	91
82725	7	Sololá	717	San Juan la Laguna	12	San Juan la Laguna	10	Octubre	2023-12-10T00:00:00	2024-11-08T06:00:00	6	Velocidad del viento	1.6
82726	7	Sololá	717	San Juan la Laguna	12	San Juan la Laguna	10	Octubre	2023-12-10T00:00:00	2024-11-08T06:00:00	7	Dirección del viento	1.61
82727	7	Sololá	717	San Juan la Laguna	12	San Juan la Laguna	10	Octubre	2023-12-10T00:00:00	2024-11-08T06:00:00	1	Precipitación	0
82728	7	Sololá	717	San Juan la Laguna	12	San Juan la Laguna	10	Octubre	2023-12-10T00:00:00	2024-11-08T06:00:00	8	Radiación solar	1
82729	7	Sololá	717	San Juan la Laguna	12	San Juan la Laguna	10	Octubre	2023-12-10T00:00:00	2024-11-08T07:00:00	2	Temperatura media	17.8
82730	7	Sololá	717	San Juan la Laguna	12	San Juan la Laguna	10	Octubre	2023-12-10T00:00:00	2024-11-08T07:00:00	4	Temperatura máxima	17.8
82731	7	Sololá	717	San Juan la Laguna	12	San Juan la Laguna	10	Octubre	2023-12-10T00:00:00	2024-11-08T07:00:00	3	Temperatura mínima	16.7
82732	7	Sololá	717	San Juan la Laguna	12	San Juan la Laguna	10	Octubre	2023-12-10T00:00:00	2024-11-08T07:00:00	5	Humedad	91
82733	7	Sololá	717	San Juan la Laguna	12	San Juan la Laguna	10	Octubre	2023-12-10T00:00:00	2024-11-08T07:00:00	6	Velocidad del viento	0
82734	7	Sololá	717	San Juan la Laguna	12	San Juan la Laguna	10	Octubre	2023-12-10T00:00:00	2024-11-08T07:00:00	7	Dirección del viento	0
82735	7	Sololá	717	San Juan la Laguna	12	San Juan la Laguna	10	Octubre	2023-12-10T00:00:00	2024-11-08T07:00:00	1	Precipitación	0
82736	7	Sololá	717	San Juan la Laguna	12	San Juan la Laguna	10	Octubre	2023-12-10T00:00:00	2024-11-08T07:00:00	8	Radiación solar	71
82737	7	Sololá	717	San Juan la Laguna	12	San Juan la Laguna	10	Octubre	2023-12-10T00:00:00	2024-11-08T08:00:00	2	Temperatura media	20.2
82738	7	Sololá	717	San Juan la Laguna	12	San Juan la Laguna	10	Octubre	2023-12-10T00:00:00	2024-11-08T08:00:00	4	Temperatura máxima	20.2
82739	7	Sololá	717	San Juan la Laguna	12	San Juan la Laguna	10	Octubre	2023-12-10T00:00:00	2024-11-08T08:00:00	3	Temperatura mínima	17.8
82740	7	Sololá	717	San Juan la Laguna	12	San Juan la Laguna	10	Octubre	2023-12-10T00:00:00	2024-11-08T08:00:00	5	Humedad	86
82741	7	Sololá	717	San Juan la Laguna	12	San Juan la Laguna	10	Octubre	2023-12-10T00:00:00	2024-11-08T08:00:00	6	Velocidad del viento	0
82742	7	Sololá	717	San Juan la Laguna	12	San Juan la Laguna	10	Octubre	2023-12-10T00:00:00	2024-11-08T08:00:00	7	Dirección del viento	0
82743	7	Sololá	717	San Juan la Laguna	12	San Juan la Laguna	10	Octubre	2023-12-10T00:00:00	2024-11-08T08:00:00	1	Precipitación	0
82744	7	Sololá	717	San Juan la Laguna	12	San Juan la Laguna	10	Octubre	2023-12-10T00:00:00	2024-11-08T08:00:00	8	Radiación solar	246
82745	7	Sololá	717	San Juan la Laguna	12	San Juan la Laguna	10	Octubre	2023-12-10T00:00:00	2024-11-08T09:00:00	2	Temperatura media	22.2
82746	7	Sololá	717	San Juan la Laguna	12	San Juan la Laguna	10	Octubre	2023-12-10T00:00:00	2024-11-08T09:00:00	4	Temperatura máxima	22.3
82747	7	Sololá	717	San Juan la Laguna	12	San Juan la Laguna	10	Octubre	2023-12-10T00:00:00	2024-11-08T09:00:00	3	Temperatura mínima	20.2
82748	7	Sololá	717	San Juan la Laguna	12	San Juan la Laguna	10	Octubre	2023-12-10T00:00:00	2024-11-08T09:00:00	5	Humedad	80
82749	7	Sololá	717	San Juan la Laguna	12	San Juan la Laguna	10	Octubre	2023-12-10T00:00:00	2024-11-08T09:00:00	6	Velocidad del viento	0
82750	7	Sololá	717	San Juan la Laguna	12	San Juan la Laguna	10	Octubre	2023-12-10T00:00:00	2024-11-08T09:00:00	7	Dirección del viento	0
82751	7	Sololá	717	San Juan la Laguna	12	San Juan la Laguna	10	Octubre	2023-12-10T00:00:00	2024-11-08T09:00:00	1	Precipitación	0
82752	7	Sololá	717	San Juan la Laguna	12	San Juan la Laguna	10	Octubre	2023-12-10T00:00:00	2024-11-08T09:00:00	8	Radiación solar	532
82753	7	Sololá	717	San Juan la Laguna	12	San Juan la Laguna	10	Octubre	2023-12-10T00:00:00	2024-11-08T10:00:00	2	Temperatura media	22
82754	7	Sololá	717	San Juan la Laguna	12	San Juan la Laguna	10	Octubre	2023-12-10T00:00:00	2024-11-08T10:00:00	4	Temperatura máxima	22.4
82755	7	Sololá	717	San Juan la Laguna	12	San Juan la Laguna	10	Octubre	2023-12-10T00:00:00	2024-11-08T10:00:00	3	Temperatura mínima	21.7
82756	7	Sololá	717	San Juan la Laguna	12	San Juan la Laguna	10	Octubre	2023-12-10T00:00:00	2024-11-08T10:00:00	5	Humedad	80
82757	7	Sololá	717	San Juan la Laguna	12	San Juan la Laguna	10	Octubre	2023-12-10T00:00:00	2024-11-08T10:00:00	6	Velocidad del viento	0
82758	7	Sololá	717	San Juan la Laguna	12	San Juan la Laguna	10	Octubre	2023-12-10T00:00:00	2024-11-08T10:00:00	7	Dirección del viento	0
82759	7	Sololá	717	San Juan la Laguna	12	San Juan la Laguna	10	Octubre	2023-12-10T00:00:00	2024-11-08T10:00:00	1	Precipitación	0
82760	7	Sololá	717	San Juan la Laguna	12	San Juan la Laguna	10	Octubre	2023-12-10T00:00:00	2024-11-08T10:00:00	8	Radiación solar	506
82761	7	Sololá	717	San Juan la Laguna	12	San Juan la Laguna	10	Octubre	2023-12-10T00:00:00	2024-11-08T11:00:00	2	Temperatura media	22.8
82762	7	Sololá	717	San Juan la Laguna	12	San Juan la Laguna	10	Octubre	2023-12-10T00:00:00	2024-11-08T11:00:00	4	Temperatura máxima	22.8
82763	7	Sololá	717	San Juan la Laguna	12	San Juan la Laguna	10	Octubre	2023-12-10T00:00:00	2024-11-08T11:00:00	3	Temperatura mínima	21.7
82764	7	Sololá	717	San Juan la Laguna	12	San Juan la Laguna	10	Octubre	2023-12-10T00:00:00	2024-11-08T11:00:00	5	Humedad	78
82765	7	Sololá	717	San Juan la Laguna	12	San Juan la Laguna	10	Octubre	2023-12-10T00:00:00	2024-11-08T11:00:00	6	Velocidad del viento	1.6
82766	7	Sololá	717	San Juan la Laguna	12	San Juan la Laguna	10	Octubre	2023-12-10T00:00:00	2024-11-08T11:00:00	7	Dirección del viento	1.61
82767	7	Sololá	717	San Juan la Laguna	12	San Juan la Laguna	10	Octubre	2023-12-10T00:00:00	2024-11-08T11:00:00	1	Precipitación	0
82768	7	Sololá	717	San Juan la Laguna	12	San Juan la Laguna	10	Octubre	2023-12-10T00:00:00	2024-11-08T11:00:00	8	Radiación solar	624
82769	7	Sololá	717	San Juan la Laguna	12	San Juan la Laguna	10	Octubre	2023-12-10T00:00:00	2024-11-08T12:00:00	2	Temperatura media	22.7
82770	7	Sololá	717	San Juan la Laguna	12	San Juan la Laguna	10	Octubre	2023-12-10T00:00:00	2024-11-08T12:00:00	4	Temperatura máxima	23
82771	7	Sololá	717	San Juan la Laguna	12	San Juan la Laguna	10	Octubre	2023-12-10T00:00:00	2024-11-08T12:00:00	3	Temperatura mínima	22.4
82772	7	Sololá	717	San Juan la Laguna	12	San Juan la Laguna	10	Octubre	2023-12-10T00:00:00	2024-11-08T12:00:00	5	Humedad	78
82773	7	Sololá	717	San Juan la Laguna	12	San Juan la Laguna	10	Octubre	2023-12-10T00:00:00	2024-11-08T12:00:00	6	Velocidad del viento	0
82774	7	Sololá	717	San Juan la Laguna	12	San Juan la Laguna	10	Octubre	2023-12-10T00:00:00	2024-11-08T12:00:00	7	Dirección del viento	0
82775	7	Sololá	717	San Juan la Laguna	12	San Juan la Laguna	10	Octubre	2023-12-10T00:00:00	2024-11-08T12:00:00	1	Precipitación	0
82776	7	Sololá	717	San Juan la Laguna	12	San Juan la Laguna	10	Octubre	2023-12-10T00:00:00	2024-11-08T12:00:00	8	Radiación solar	661
82777	7	Sololá	717	San Juan la Laguna	12	San Juan la Laguna	10	Octubre	2023-12-10T00:00:00	2024-11-08T13:00:00	2	Temperatura media	24.2
82778	7	Sololá	717	San Juan la Laguna	12	San Juan la Laguna	10	Octubre	2023-12-10T00:00:00	2024-11-08T13:00:00	4	Temperatura máxima	24.2
82779	7	Sololá	717	San Juan la Laguna	12	San Juan la Laguna	10	Octubre	2023-12-10T00:00:00	2024-11-08T13:00:00	3	Temperatura mínima	22.4
82780	7	Sololá	717	San Juan la Laguna	12	San Juan la Laguna	10	Octubre	2023-12-10T00:00:00	2024-11-08T13:00:00	5	Humedad	74
82781	7	Sololá	717	San Juan la Laguna	12	San Juan la Laguna	10	Octubre	2023-12-10T00:00:00	2024-11-08T13:00:00	6	Velocidad del viento	0
82782	7	Sololá	717	San Juan la Laguna	12	San Juan la Laguna	10	Octubre	2023-12-10T00:00:00	2024-11-08T13:00:00	7	Dirección del viento	0
82783	7	Sololá	717	San Juan la Laguna	12	San Juan la Laguna	10	Octubre	2023-12-10T00:00:00	2024-11-08T13:00:00	1	Precipitación	0
82784	7	Sololá	717	San Juan la Laguna	12	San Juan la Laguna	10	Octubre	2023-12-10T00:00:00	2024-11-08T13:00:00	8	Radiación solar	664
82785	7	Sololá	717	San Juan la Laguna	12	San Juan la Laguna	10	Octubre	2023-12-10T00:00:00	2024-11-08T14:00:00	2	Temperatura media	19.8
82786	7	Sololá	717	San Juan la Laguna	12	San Juan la Laguna	10	Octubre	2023-12-10T00:00:00	2024-11-08T14:00:00	4	Temperatura máxima	24.6
82787	7	Sololá	717	San Juan la Laguna	12	San Juan la Laguna	10	Octubre	2023-12-10T00:00:00	2024-11-08T14:00:00	3	Temperatura mínima	19.8
82788	7	Sololá	717	San Juan la Laguna	12	San Juan la Laguna	10	Octubre	2023-12-10T00:00:00	2024-11-08T14:00:00	5	Humedad	90
82789	7	Sololá	717	San Juan la Laguna	12	San Juan la Laguna	10	Octubre	2023-12-10T00:00:00	2024-11-08T14:00:00	6	Velocidad del viento	3.2
82790	7	Sololá	717	San Juan la Laguna	12	San Juan la Laguna	10	Octubre	2023-12-10T00:00:00	2024-11-08T14:00:00	7	Dirección del viento	3.22
82791	7	Sololá	717	San Juan la Laguna	12	San Juan la Laguna	10	Octubre	2023-12-10T00:00:00	2024-11-08T14:00:00	1	Precipitación	0
82792	7	Sololá	717	San Juan la Laguna	12	San Juan la Laguna	10	Octubre	2023-12-10T00:00:00	2024-11-08T14:00:00	8	Radiación solar	687
82793	7	Sololá	717	San Juan la Laguna	12	San Juan la Laguna	10	Octubre	2023-12-10T00:00:00	2024-11-08T15:00:00	2	Temperatura media	20.2
82794	7	Sololá	717	San Juan la Laguna	12	San Juan la Laguna	10	Octubre	2023-12-10T00:00:00	2024-11-08T15:00:00	4	Temperatura máxima	20.3
82795	7	Sololá	717	San Juan la Laguna	12	San Juan la Laguna	10	Octubre	2023-12-10T00:00:00	2024-11-08T15:00:00	3	Temperatura mínima	19.2
82796	7	Sololá	717	San Juan la Laguna	12	San Juan la Laguna	10	Octubre	2023-12-10T00:00:00	2024-11-08T15:00:00	5	Humedad	86
82797	7	Sololá	717	San Juan la Laguna	12	San Juan la Laguna	10	Octubre	2023-12-10T00:00:00	2024-11-08T15:00:00	6	Velocidad del viento	1.6
82798	7	Sololá	717	San Juan la Laguna	12	San Juan la Laguna	10	Octubre	2023-12-10T00:00:00	2024-11-08T15:00:00	7	Dirección del viento	1.61
82799	7	Sololá	717	San Juan la Laguna	12	San Juan la Laguna	10	Octubre	2023-12-10T00:00:00	2024-11-08T15:00:00	1	Precipitación	0
82800	7	Sololá	717	San Juan la Laguna	12	San Juan la Laguna	10	Octubre	2023-12-10T00:00:00	2024-11-08T15:00:00	8	Radiación solar	86
82801	7	Sololá	717	San Juan la Laguna	12	San Juan la Laguna	10	Octubre	2023-12-10T00:00:00	2024-11-08T16:00:00	2	Temperatura media	20.7
82802	7	Sololá	717	San Juan la Laguna	12	San Juan la Laguna	10	Octubre	2023-12-10T00:00:00	2024-11-08T16:00:00	4	Temperatura máxima	21.1
82803	7	Sololá	717	San Juan la Laguna	12	San Juan la Laguna	10	Octubre	2023-12-10T00:00:00	2024-11-08T16:00:00	3	Temperatura mínima	20.2
82804	7	Sololá	717	San Juan la Laguna	12	San Juan la Laguna	10	Octubre	2023-12-10T00:00:00	2024-11-08T16:00:00	5	Humedad	85
82805	7	Sololá	717	San Juan la Laguna	12	San Juan la Laguna	10	Octubre	2023-12-10T00:00:00	2024-11-08T16:00:00	6	Velocidad del viento	0
82806	7	Sololá	717	San Juan la Laguna	12	San Juan la Laguna	10	Octubre	2023-12-10T00:00:00	2024-11-08T16:00:00	7	Dirección del viento	0
82807	7	Sololá	717	San Juan la Laguna	12	San Juan la Laguna	10	Octubre	2023-12-10T00:00:00	2024-11-08T16:00:00	1	Precipitación	0
82808	7	Sololá	717	San Juan la Laguna	12	San Juan la Laguna	10	Octubre	2023-12-10T00:00:00	2024-11-08T16:00:00	8	Radiación solar	119
82809	7	Sololá	717	San Juan la Laguna	12	San Juan la Laguna	10	Octubre	2023-12-10T00:00:00	2024-11-08T17:00:00	2	Temperatura media	20.7
82810	7	Sololá	717	San Juan la Laguna	12	San Juan la Laguna	10	Octubre	2023-12-10T00:00:00	2024-11-08T17:00:00	4	Temperatura máxima	20.7
82811	7	Sololá	717	San Juan la Laguna	12	San Juan la Laguna	10	Octubre	2023-12-10T00:00:00	2024-11-08T17:00:00	3	Temperatura mínima	20.5
82812	7	Sololá	717	San Juan la Laguna	12	San Juan la Laguna	10	Octubre	2023-12-10T00:00:00	2024-11-08T17:00:00	5	Humedad	86
82813	7	Sololá	717	San Juan la Laguna	12	San Juan la Laguna	10	Octubre	2023-12-10T00:00:00	2024-11-08T17:00:00	6	Velocidad del viento	0
82814	7	Sololá	717	San Juan la Laguna	12	San Juan la Laguna	10	Octubre	2023-12-10T00:00:00	2024-11-08T17:00:00	7	Dirección del viento	0
82815	7	Sololá	717	San Juan la Laguna	12	San Juan la Laguna	10	Octubre	2023-12-10T00:00:00	2024-11-08T17:00:00	1	Precipitación	0
82816	7	Sololá	717	San Juan la Laguna	12	San Juan la Laguna	10	Octubre	2023-12-10T00:00:00	2024-11-08T17:00:00	8	Radiación solar	39
82817	7	Sololá	717	San Juan la Laguna	12	San Juan la Laguna	10	Octubre	2023-12-10T00:00:00	2024-11-08T18:00:00	2	Temperatura media	20.3
82818	7	Sololá	717	San Juan la Laguna	12	San Juan la Laguna	10	Octubre	2023-12-10T00:00:00	2024-11-08T18:00:00	4	Temperatura máxima	20.7
82819	7	Sololá	717	San Juan la Laguna	12	San Juan la Laguna	10	Octubre	2023-12-10T00:00:00	2024-11-08T18:00:00	3	Temperatura mínima	20.2
82820	7	Sololá	717	San Juan la Laguna	12	San Juan la Laguna	10	Octubre	2023-12-10T00:00:00	2024-11-08T18:00:00	5	Humedad	88
82821	7	Sololá	717	San Juan la Laguna	12	San Juan la Laguna	10	Octubre	2023-12-10T00:00:00	2024-11-08T18:00:00	6	Velocidad del viento	0
82822	7	Sololá	717	San Juan la Laguna	12	San Juan la Laguna	10	Octubre	2023-12-10T00:00:00	2024-11-08T18:00:00	7	Dirección del viento	0
82823	7	Sololá	717	San Juan la Laguna	12	San Juan la Laguna	10	Octubre	2023-12-10T00:00:00	2024-11-08T18:00:00	1	Precipitación	0
82824	7	Sololá	717	San Juan la Laguna	12	San Juan la Laguna	10	Octubre	2023-12-10T00:00:00	2024-11-08T18:00:00	8	Radiación solar	2
82825	7	Sololá	717	San Juan la Laguna	12	San Juan la Laguna	10	Octubre	2023-12-10T00:00:00	2024-11-08T19:00:00	2	Temperatura media	20
82826	7	Sololá	717	San Juan la Laguna	12	San Juan la Laguna	10	Octubre	2023-12-10T00:00:00	2024-11-08T19:00:00	4	Temperatura máxima	20.3
82827	7	Sololá	717	San Juan la Laguna	12	San Juan la Laguna	10	Octubre	2023-12-10T00:00:00	2024-11-08T19:00:00	3	Temperatura mínima	19.9
82828	7	Sololá	717	San Juan la Laguna	12	San Juan la Laguna	10	Octubre	2023-12-10T00:00:00	2024-11-08T19:00:00	5	Humedad	89
82829	7	Sololá	717	San Juan la Laguna	12	San Juan la Laguna	10	Octubre	2023-12-10T00:00:00	2024-11-08T19:00:00	6	Velocidad del viento	0
82830	7	Sololá	717	San Juan la Laguna	12	San Juan la Laguna	10	Octubre	2023-12-10T00:00:00	2024-11-08T19:00:00	7	Dirección del viento	0
82831	7	Sololá	717	San Juan la Laguna	12	San Juan la Laguna	10	Octubre	2023-12-10T00:00:00	2024-11-08T19:00:00	1	Precipitación	0
82832	7	Sololá	717	San Juan la Laguna	12	San Juan la Laguna	10	Octubre	2023-12-10T00:00:00	2024-11-08T19:00:00	8	Radiación solar	0
82833	7	Sololá	717	San Juan la Laguna	12	San Juan la Laguna	10	Octubre	2023-12-10T00:00:00	2024-11-08T20:00:00	2	Temperatura media	19.7
82834	7	Sololá	717	San Juan la Laguna	12	San Juan la Laguna	10	Octubre	2023-12-10T00:00:00	2024-11-08T20:00:00	4	Temperatura máxima	20
82835	7	Sololá	717	San Juan la Laguna	12	San Juan la Laguna	10	Octubre	2023-12-10T00:00:00	2024-11-08T20:00:00	3	Temperatura mínima	19.7
82836	7	Sololá	717	San Juan la Laguna	12	San Juan la Laguna	10	Octubre	2023-12-10T00:00:00	2024-11-08T20:00:00	5	Humedad	90
82837	7	Sololá	717	San Juan la Laguna	12	San Juan la Laguna	10	Octubre	2023-12-10T00:00:00	2024-11-08T20:00:00	6	Velocidad del viento	0
82838	7	Sololá	717	San Juan la Laguna	12	San Juan la Laguna	10	Octubre	2023-12-10T00:00:00	2024-11-08T20:00:00	7	Dirección del viento	0
82839	7	Sololá	717	San Juan la Laguna	12	San Juan la Laguna	10	Octubre	2023-12-10T00:00:00	2024-11-08T20:00:00	1	Precipitación	0
82840	7	Sololá	717	San Juan la Laguna	12	San Juan la Laguna	10	Octubre	2023-12-10T00:00:00	2024-11-08T20:00:00	8	Radiación solar	0
82841	7	Sololá	717	San Juan la Laguna	12	San Juan la Laguna	10	Octubre	2023-12-10T00:00:00	2024-11-08T21:00:00	2	Temperatura media	19.2
82842	7	Sololá	717	San Juan la Laguna	12	San Juan la Laguna	10	Octubre	2023-12-10T00:00:00	2024-11-08T21:00:00	4	Temperatura máxima	19.7
82843	7	Sololá	717	San Juan la Laguna	12	San Juan la Laguna	10	Octubre	2023-12-10T00:00:00	2024-11-08T21:00:00	3	Temperatura mínima	19.2
82844	7	Sololá	717	San Juan la Laguna	12	San Juan la Laguna	10	Octubre	2023-12-10T00:00:00	2024-11-08T21:00:00	5	Humedad	91
82845	7	Sololá	717	San Juan la Laguna	12	San Juan la Laguna	10	Octubre	2023-12-10T00:00:00	2024-11-08T21:00:00	6	Velocidad del viento	0
82846	7	Sololá	717	San Juan la Laguna	12	San Juan la Laguna	10	Octubre	2023-12-10T00:00:00	2024-11-08T21:00:00	7	Dirección del viento	0
82847	7	Sololá	717	San Juan la Laguna	12	San Juan la Laguna	10	Octubre	2023-12-10T00:00:00	2024-11-08T21:00:00	1	Precipitación	0.6
82848	7	Sololá	717	San Juan la Laguna	12	San Juan la Laguna	10	Octubre	2023-12-10T00:00:00	2024-11-08T21:00:00	8	Radiación solar	0
82849	7	Sololá	717	San Juan la Laguna	12	San Juan la Laguna	10	Octubre	2023-12-10T00:00:00	2024-11-08T22:00:00	2	Temperatura media	18.6
82850	7	Sololá	717	San Juan la Laguna	12	San Juan la Laguna	10	Octubre	2023-12-10T00:00:00	2024-11-08T22:00:00	4	Temperatura máxima	19.2
82851	7	Sololá	717	San Juan la Laguna	12	San Juan la Laguna	10	Octubre	2023-12-10T00:00:00	2024-11-08T22:00:00	3	Temperatura mínima	18.6
82852	7	Sololá	717	San Juan la Laguna	12	San Juan la Laguna	10	Octubre	2023-12-10T00:00:00	2024-11-08T22:00:00	5	Humedad	91
82853	7	Sololá	717	San Juan la Laguna	12	San Juan la Laguna	10	Octubre	2023-12-10T00:00:00	2024-11-08T22:00:00	6	Velocidad del viento	0
82854	7	Sololá	717	San Juan la Laguna	12	San Juan la Laguna	10	Octubre	2023-12-10T00:00:00	2024-11-08T22:00:00	7	Dirección del viento	0
82855	7	Sololá	717	San Juan la Laguna	12	San Juan la Laguna	10	Octubre	2023-12-10T00:00:00	2024-11-08T22:00:00	1	Precipitación	0.2
82856	7	Sololá	717	San Juan la Laguna	12	San Juan la Laguna	10	Octubre	2023-12-10T00:00:00	2024-11-08T22:00:00	8	Radiación solar	0
82857	7	Sololá	717	San Juan la Laguna	12	San Juan la Laguna	10	Octubre	2023-12-10T00:00:00	2024-11-08T23:00:00	2	Temperatura media	18.1
82858	7	Sololá	717	San Juan la Laguna	12	San Juan la Laguna	10	Octubre	2023-12-10T00:00:00	2024-11-08T23:00:00	4	Temperatura máxima	18.7
82859	7	Sololá	717	San Juan la Laguna	12	San Juan la Laguna	10	Octubre	2023-12-10T00:00:00	2024-11-08T23:00:00	3	Temperatura mínima	18.1
82860	7	Sololá	717	San Juan la Laguna	12	San Juan la Laguna	10	Octubre	2023-12-10T00:00:00	2024-11-08T23:00:00	5	Humedad	91
82861	7	Sololá	717	San Juan la Laguna	12	San Juan la Laguna	10	Octubre	2023-12-10T00:00:00	2024-11-08T23:00:00	6	Velocidad del viento	0
82862	7	Sololá	717	San Juan la Laguna	12	San Juan la Laguna	10	Octubre	2023-12-10T00:00:00	2024-11-08T23:00:00	7	Dirección del viento	0
82863	7	Sololá	717	San Juan la Laguna	12	San Juan la Laguna	10	Octubre	2023-12-10T00:00:00	2024-11-08T23:00:00	1	Precipitación	0.2
82864	7	Sololá	717	San Juan la Laguna	12	San Juan la Laguna	10	Octubre	2023-12-10T00:00:00	2024-11-08T23:00:00	8	Radiación solar	0
82865	7	Sololá	717	San Juan la Laguna	12	San Juan la Laguna	10	Octubre	2023-10-13T00:00:00	2024-11-08T00:00:00	2	Temperatura media	18.5
82866	7	Sololá	717	San Juan la Laguna	12	San Juan la Laguna	10	Octubre	2023-10-13T00:00:00	2024-11-08T00:00:00	4	Temperatura máxima	18.5
82867	7	Sololá	717	San Juan la Laguna	12	San Juan la Laguna	10	Octubre	2023-10-13T00:00:00	2024-11-08T00:00:00	3	Temperatura mínima	17.9
82868	7	Sololá	717	San Juan la Laguna	12	San Juan la Laguna	10	Octubre	2023-10-13T00:00:00	2024-11-08T00:00:00	5	Humedad	90
82869	7	Sololá	717	San Juan la Laguna	12	San Juan la Laguna	10	Octubre	2023-10-13T00:00:00	2024-11-08T00:00:00	6	Velocidad del viento	0
82870	7	Sololá	717	San Juan la Laguna	12	San Juan la Laguna	10	Octubre	2023-10-13T00:00:00	2024-11-08T00:00:00	7	Dirección del viento	0
82871	7	Sololá	717	San Juan la Laguna	12	San Juan la Laguna	10	Octubre	2023-10-13T00:00:00	2024-11-08T00:00:00	1	Precipitación	0
82872	7	Sololá	717	San Juan la Laguna	12	San Juan la Laguna	10	Octubre	2023-10-13T00:00:00	2024-11-08T00:00:00	8	Radiación solar	0
82873	7	Sololá	717	San Juan la Laguna	12	San Juan la Laguna	10	Octubre	2023-10-13T00:00:00	2024-11-08T01:00:00	2	Temperatura media	18.5
82874	7	Sololá	717	San Juan la Laguna	12	San Juan la Laguna	10	Octubre	2023-10-13T00:00:00	2024-11-08T01:00:00	4	Temperatura máxima	18.6
82875	7	Sololá	717	San Juan la Laguna	12	San Juan la Laguna	10	Octubre	2023-10-13T00:00:00	2024-11-08T01:00:00	3	Temperatura mínima	18.4
82876	7	Sololá	717	San Juan la Laguna	12	San Juan la Laguna	10	Octubre	2023-10-13T00:00:00	2024-11-08T01:00:00	5	Humedad	90
82877	7	Sololá	717	San Juan la Laguna	12	San Juan la Laguna	10	Octubre	2023-10-13T00:00:00	2024-11-08T01:00:00	6	Velocidad del viento	3.2
82878	7	Sololá	717	San Juan la Laguna	12	San Juan la Laguna	10	Octubre	2023-10-13T00:00:00	2024-11-08T01:00:00	7	Dirección del viento	3.22
82879	7	Sololá	717	San Juan la Laguna	12	San Juan la Laguna	10	Octubre	2023-10-13T00:00:00	2024-11-08T01:00:00	1	Precipitación	0
82880	7	Sololá	717	San Juan la Laguna	12	San Juan la Laguna	10	Octubre	2023-10-13T00:00:00	2024-11-08T01:00:00	8	Radiación solar	0
82881	7	Sololá	717	San Juan la Laguna	12	San Juan la Laguna	10	Octubre	2023-10-13T00:00:00	2024-11-08T02:00:00	2	Temperatura media	18.3
82882	7	Sololá	717	San Juan la Laguna	12	San Juan la Laguna	10	Octubre	2023-10-13T00:00:00	2024-11-08T02:00:00	4	Temperatura máxima	18.8
82883	7	Sololá	717	San Juan la Laguna	12	San Juan la Laguna	10	Octubre	2023-10-13T00:00:00	2024-11-08T02:00:00	3	Temperatura mínima	18.3
82884	7	Sololá	717	San Juan la Laguna	12	San Juan la Laguna	10	Octubre	2023-10-13T00:00:00	2024-11-08T02:00:00	5	Humedad	91
82885	7	Sololá	717	San Juan la Laguna	12	San Juan la Laguna	10	Octubre	2023-10-13T00:00:00	2024-11-08T02:00:00	6	Velocidad del viento	1.6
82886	7	Sololá	717	San Juan la Laguna	12	San Juan la Laguna	10	Octubre	2023-10-13T00:00:00	2024-11-08T02:00:00	7	Dirección del viento	1.61
82887	7	Sololá	717	San Juan la Laguna	12	San Juan la Laguna	10	Octubre	2023-10-13T00:00:00	2024-11-08T02:00:00	1	Precipitación	0
82888	7	Sololá	717	San Juan la Laguna	12	San Juan la Laguna	10	Octubre	2023-10-13T00:00:00	2024-11-08T02:00:00	8	Radiación solar	0
82889	7	Sololá	717	San Juan la Laguna	12	San Juan la Laguna	10	Octubre	2023-10-13T00:00:00	2024-11-08T03:00:00	2	Temperatura media	17.8
82890	7	Sololá	717	San Juan la Laguna	12	San Juan la Laguna	10	Octubre	2023-10-13T00:00:00	2024-11-08T03:00:00	4	Temperatura máxima	18.3
82891	7	Sololá	717	San Juan la Laguna	12	San Juan la Laguna	10	Octubre	2023-10-13T00:00:00	2024-11-08T03:00:00	3	Temperatura mínima	17.8
82892	7	Sololá	717	San Juan la Laguna	12	San Juan la Laguna	10	Octubre	2023-10-13T00:00:00	2024-11-08T03:00:00	5	Humedad	91
82893	7	Sololá	717	San Juan la Laguna	12	San Juan la Laguna	10	Octubre	2023-10-13T00:00:00	2024-11-08T03:00:00	6	Velocidad del viento	0
82894	7	Sololá	717	San Juan la Laguna	12	San Juan la Laguna	10	Octubre	2023-10-13T00:00:00	2024-11-08T03:00:00	7	Dirección del viento	0
82895	7	Sololá	717	San Juan la Laguna	12	San Juan la Laguna	10	Octubre	2023-10-13T00:00:00	2024-11-08T03:00:00	1	Precipitación	0
82896	7	Sololá	717	San Juan la Laguna	12	San Juan la Laguna	10	Octubre	2023-10-13T00:00:00	2024-11-08T03:00:00	8	Radiación solar	0
82897	7	Sololá	717	San Juan la Laguna	12	San Juan la Laguna	10	Octubre	2023-10-13T00:00:00	2024-11-08T04:00:00	2	Temperatura media	17.6
82898	7	Sololá	717	San Juan la Laguna	12	San Juan la Laguna	10	Octubre	2023-10-13T00:00:00	2024-11-08T04:00:00	4	Temperatura máxima	17.8
82899	7	Sololá	717	San Juan la Laguna	12	San Juan la Laguna	10	Octubre	2023-10-13T00:00:00	2024-11-08T04:00:00	3	Temperatura mínima	17.4
82900	7	Sololá	717	San Juan la Laguna	12	San Juan la Laguna	10	Octubre	2023-10-13T00:00:00	2024-11-08T04:00:00	5	Humedad	91
82901	7	Sololá	717	San Juan la Laguna	12	San Juan la Laguna	10	Octubre	2023-10-13T00:00:00	2024-11-08T04:00:00	6	Velocidad del viento	0
82902	7	Sololá	717	San Juan la Laguna	12	San Juan la Laguna	10	Octubre	2023-10-13T00:00:00	2024-11-08T04:00:00	7	Dirección del viento	0
82903	7	Sololá	717	San Juan la Laguna	12	San Juan la Laguna	10	Octubre	2023-10-13T00:00:00	2024-11-08T04:00:00	1	Precipitación	0
82904	7	Sololá	717	San Juan la Laguna	12	San Juan la Laguna	10	Octubre	2023-10-13T00:00:00	2024-11-08T04:00:00	8	Radiación solar	0
82905	7	Sololá	717	San Juan la Laguna	12	San Juan la Laguna	10	Octubre	2023-10-13T00:00:00	2024-11-08T05:00:00	2	Temperatura media	17.6
82906	7	Sololá	717	San Juan la Laguna	12	San Juan la Laguna	10	Octubre	2023-10-13T00:00:00	2024-11-08T05:00:00	4	Temperatura máxima	17.9
82907	7	Sololá	717	San Juan la Laguna	12	San Juan la Laguna	10	Octubre	2023-10-13T00:00:00	2024-11-08T05:00:00	3	Temperatura mínima	17.6
82908	7	Sololá	717	San Juan la Laguna	12	San Juan la Laguna	10	Octubre	2023-10-13T00:00:00	2024-11-08T05:00:00	5	Humedad	91
82909	7	Sololá	717	San Juan la Laguna	12	San Juan la Laguna	10	Octubre	2023-10-13T00:00:00	2024-11-08T05:00:00	6	Velocidad del viento	0
82910	7	Sololá	717	San Juan la Laguna	12	San Juan la Laguna	10	Octubre	2023-10-13T00:00:00	2024-11-08T05:00:00	7	Dirección del viento	0
82911	7	Sololá	717	San Juan la Laguna	12	San Juan la Laguna	10	Octubre	2023-10-13T00:00:00	2024-11-08T05:00:00	1	Precipitación	0
82912	7	Sololá	717	San Juan la Laguna	12	San Juan la Laguna	10	Octubre	2023-10-13T00:00:00	2024-11-08T05:00:00	8	Radiación solar	0
82913	7	Sololá	717	San Juan la Laguna	12	San Juan la Laguna	10	Octubre	2023-10-13T00:00:00	2024-11-08T06:00:00	2	Temperatura media	17.4
82914	7	Sololá	717	San Juan la Laguna	12	San Juan la Laguna	10	Octubre	2023-10-13T00:00:00	2024-11-08T06:00:00	4	Temperatura máxima	17.6
82915	7	Sololá	717	San Juan la Laguna	12	San Juan la Laguna	10	Octubre	2023-10-13T00:00:00	2024-11-08T06:00:00	3	Temperatura mínima	17.1
82916	7	Sololá	717	San Juan la Laguna	12	San Juan la Laguna	10	Octubre	2023-10-13T00:00:00	2024-11-08T06:00:00	5	Humedad	89
82917	7	Sololá	717	San Juan la Laguna	12	San Juan la Laguna	10	Octubre	2023-10-13T00:00:00	2024-11-08T06:00:00	6	Velocidad del viento	3.2
82918	7	Sololá	717	San Juan la Laguna	12	San Juan la Laguna	10	Octubre	2023-10-13T00:00:00	2024-11-08T06:00:00	7	Dirección del viento	3.22
82919	7	Sololá	717	San Juan la Laguna	12	San Juan la Laguna	10	Octubre	2023-10-13T00:00:00	2024-11-08T06:00:00	1	Precipitación	0
82920	7	Sololá	717	San Juan la Laguna	12	San Juan la Laguna	10	Octubre	2023-10-13T00:00:00	2024-11-08T06:00:00	8	Radiación solar	1
82921	7	Sololá	717	San Juan la Laguna	12	San Juan la Laguna	10	Octubre	2023-10-13T00:00:00	2024-11-08T07:00:00	2	Temperatura media	18.1
82922	7	Sololá	717	San Juan la Laguna	12	San Juan la Laguna	10	Octubre	2023-10-13T00:00:00	2024-11-08T07:00:00	4	Temperatura máxima	18.1
82923	7	Sololá	717	San Juan la Laguna	12	San Juan la Laguna	10	Octubre	2023-10-13T00:00:00	2024-11-08T07:00:00	3	Temperatura mínima	17.3
82924	7	Sololá	717	San Juan la Laguna	12	San Juan la Laguna	10	Octubre	2023-10-13T00:00:00	2024-11-08T07:00:00	5	Humedad	90
82925	7	Sololá	717	San Juan la Laguna	12	San Juan la Laguna	10	Octubre	2023-10-13T00:00:00	2024-11-08T07:00:00	6	Velocidad del viento	1.6
82926	7	Sololá	717	San Juan la Laguna	12	San Juan la Laguna	10	Octubre	2023-10-13T00:00:00	2024-11-08T07:00:00	7	Dirección del viento	1.61
82927	7	Sololá	717	San Juan la Laguna	12	San Juan la Laguna	10	Octubre	2023-10-13T00:00:00	2024-11-08T07:00:00	1	Precipitación	0
82928	7	Sololá	717	San Juan la Laguna	12	San Juan la Laguna	10	Octubre	2023-10-13T00:00:00	2024-11-08T07:00:00	8	Radiación solar	65
82929	7	Sololá	717	San Juan la Laguna	12	San Juan la Laguna	10	Octubre	2023-10-13T00:00:00	2024-11-08T08:00:00	2	Temperatura media	21.4
82930	7	Sololá	717	San Juan la Laguna	12	San Juan la Laguna	10	Octubre	2023-10-13T00:00:00	2024-11-08T08:00:00	4	Temperatura máxima	21.4
82931	7	Sololá	717	San Juan la Laguna	12	San Juan la Laguna	10	Octubre	2023-10-13T00:00:00	2024-11-08T08:00:00	3	Temperatura mínima	18.1
82932	7	Sololá	717	San Juan la Laguna	12	San Juan la Laguna	10	Octubre	2023-10-13T00:00:00	2024-11-08T08:00:00	5	Humedad	81
82933	7	Sololá	717	San Juan la Laguna	12	San Juan la Laguna	10	Octubre	2023-10-13T00:00:00	2024-11-08T08:00:00	6	Velocidad del viento	1.6
82934	7	Sololá	717	San Juan la Laguna	12	San Juan la Laguna	10	Octubre	2023-10-13T00:00:00	2024-11-08T08:00:00	7	Dirección del viento	1.61
82935	7	Sololá	717	San Juan la Laguna	12	San Juan la Laguna	10	Octubre	2023-10-13T00:00:00	2024-11-08T08:00:00	1	Precipitación	0
82936	7	Sololá	717	San Juan la Laguna	12	San Juan la Laguna	10	Octubre	2023-10-13T00:00:00	2024-11-08T08:00:00	8	Radiación solar	273
82937	7	Sololá	717	San Juan la Laguna	12	San Juan la Laguna	10	Octubre	2023-10-13T00:00:00	2024-11-08T09:00:00	2	Temperatura media	22.3
82938	7	Sololá	717	San Juan la Laguna	12	San Juan la Laguna	10	Octubre	2023-10-13T00:00:00	2024-11-08T09:00:00	4	Temperatura máxima	22.7
82939	7	Sololá	717	San Juan la Laguna	12	San Juan la Laguna	10	Octubre	2023-10-13T00:00:00	2024-11-08T09:00:00	3	Temperatura mínima	21.4
82940	7	Sololá	717	San Juan la Laguna	12	San Juan la Laguna	10	Octubre	2023-10-13T00:00:00	2024-11-08T09:00:00	5	Humedad	80
82941	7	Sololá	717	San Juan la Laguna	12	San Juan la Laguna	10	Octubre	2023-10-13T00:00:00	2024-11-08T09:00:00	6	Velocidad del viento	1.6
82942	7	Sololá	717	San Juan la Laguna	12	San Juan la Laguna	10	Octubre	2023-10-13T00:00:00	2024-11-08T09:00:00	7	Dirección del viento	1.61
82943	7	Sololá	717	San Juan la Laguna	12	San Juan la Laguna	10	Octubre	2023-10-13T00:00:00	2024-11-08T09:00:00	1	Precipitación	0
82944	7	Sololá	717	San Juan la Laguna	12	San Juan la Laguna	10	Octubre	2023-10-13T00:00:00	2024-11-08T09:00:00	8	Radiación solar	501
82945	7	Sololá	717	San Juan la Laguna	12	San Juan la Laguna	10	Octubre	2023-10-13T00:00:00	2024-11-08T10:00:00	2	Temperatura media	23.9
82946	7	Sololá	717	San Juan la Laguna	12	San Juan la Laguna	10	Octubre	2023-10-13T00:00:00	2024-11-08T10:00:00	4	Temperatura máxima	24.1
82947	7	Sololá	717	San Juan la Laguna	12	San Juan la Laguna	10	Octubre	2023-10-13T00:00:00	2024-11-08T10:00:00	3	Temperatura mínima	22.3
82948	7	Sololá	717	San Juan la Laguna	12	San Juan la Laguna	10	Octubre	2023-10-13T00:00:00	2024-11-08T10:00:00	5	Humedad	72
82949	7	Sololá	717	San Juan la Laguna	12	San Juan la Laguna	10	Octubre	2023-10-13T00:00:00	2024-11-08T10:00:00	6	Velocidad del viento	0
82950	7	Sololá	717	San Juan la Laguna	12	San Juan la Laguna	10	Octubre	2023-10-13T00:00:00	2024-11-08T10:00:00	7	Dirección del viento	0
82951	7	Sololá	717	San Juan la Laguna	12	San Juan la Laguna	10	Octubre	2023-10-13T00:00:00	2024-11-08T10:00:00	1	Precipitación	0
82952	7	Sololá	717	San Juan la Laguna	12	San Juan la Laguna	10	Octubre	2023-10-13T00:00:00	2024-11-08T10:00:00	8	Radiación solar	707
82953	7	Sololá	717	San Juan la Laguna	12	San Juan la Laguna	10	Octubre	2023-10-13T00:00:00	2024-11-08T11:00:00	2	Temperatura media	24.4
82954	7	Sololá	717	San Juan la Laguna	12	San Juan la Laguna	10	Octubre	2023-10-13T00:00:00	2024-11-08T11:00:00	4	Temperatura máxima	24.7
82955	7	Sololá	717	San Juan la Laguna	12	San Juan la Laguna	10	Octubre	2023-10-13T00:00:00	2024-11-08T11:00:00	3	Temperatura mínima	23.8
82956	7	Sololá	717	San Juan la Laguna	12	San Juan la Laguna	10	Octubre	2023-10-13T00:00:00	2024-11-08T11:00:00	5	Humedad	70
82957	7	Sololá	717	San Juan la Laguna	12	San Juan la Laguna	10	Octubre	2023-10-13T00:00:00	2024-11-08T11:00:00	6	Velocidad del viento	0
82958	7	Sololá	717	San Juan la Laguna	12	San Juan la Laguna	10	Octubre	2023-10-13T00:00:00	2024-11-08T11:00:00	7	Dirección del viento	0
82959	7	Sololá	717	San Juan la Laguna	12	San Juan la Laguna	10	Octubre	2023-10-13T00:00:00	2024-11-08T11:00:00	1	Precipitación	0
82960	7	Sololá	717	San Juan la Laguna	12	San Juan la Laguna	10	Octubre	2023-10-13T00:00:00	2024-11-08T11:00:00	8	Radiación solar	772
82961	7	Sololá	717	San Juan la Laguna	12	San Juan la Laguna	10	Octubre	2023-10-13T00:00:00	2024-11-08T12:00:00	2	Temperatura media	22.8
82962	7	Sololá	717	San Juan la Laguna	12	San Juan la Laguna	10	Octubre	2023-10-13T00:00:00	2024-11-08T12:00:00	4	Temperatura máxima	24.8
82963	7	Sololá	717	San Juan la Laguna	12	San Juan la Laguna	10	Octubre	2023-10-13T00:00:00	2024-11-08T12:00:00	3	Temperatura mínima	22.8
82964	7	Sololá	717	San Juan la Laguna	12	San Juan la Laguna	10	Octubre	2023-10-13T00:00:00	2024-11-08T12:00:00	5	Humedad	77
82965	7	Sololá	717	San Juan la Laguna	12	San Juan la Laguna	10	Octubre	2023-10-13T00:00:00	2024-11-08T12:00:00	6	Velocidad del viento	0
82966	7	Sololá	717	San Juan la Laguna	12	San Juan la Laguna	10	Octubre	2023-10-13T00:00:00	2024-11-08T12:00:00	7	Dirección del viento	0
82967	7	Sololá	717	San Juan la Laguna	12	San Juan la Laguna	10	Octubre	2023-10-13T00:00:00	2024-11-08T12:00:00	1	Precipitación	0
82968	7	Sololá	717	San Juan la Laguna	12	San Juan la Laguna	10	Octubre	2023-10-13T00:00:00	2024-11-08T12:00:00	8	Radiación solar	402
82969	7	Sololá	717	San Juan la Laguna	12	San Juan la Laguna	10	Octubre	2023-10-13T00:00:00	2024-11-08T13:00:00	2	Temperatura media	23
82970	7	Sololá	717	San Juan la Laguna	12	San Juan la Laguna	10	Octubre	2023-10-13T00:00:00	2024-11-08T13:00:00	4	Temperatura máxima	23.7
82971	7	Sololá	717	San Juan la Laguna	12	San Juan la Laguna	10	Octubre	2023-10-13T00:00:00	2024-11-08T13:00:00	3	Temperatura mínima	22.5
82972	7	Sololá	717	San Juan la Laguna	12	San Juan la Laguna	10	Octubre	2023-10-13T00:00:00	2024-11-08T13:00:00	5	Humedad	79
82973	7	Sololá	717	San Juan la Laguna	12	San Juan la Laguna	10	Octubre	2023-10-13T00:00:00	2024-11-08T13:00:00	6	Velocidad del viento	1.6
82974	7	Sololá	717	San Juan la Laguna	12	San Juan la Laguna	10	Octubre	2023-10-13T00:00:00	2024-11-08T13:00:00	7	Dirección del viento	1.61
82975	7	Sololá	717	San Juan la Laguna	12	San Juan la Laguna	10	Octubre	2023-10-13T00:00:00	2024-11-08T13:00:00	1	Precipitación	0
82976	7	Sololá	717	San Juan la Laguna	12	San Juan la Laguna	10	Octubre	2023-10-13T00:00:00	2024-11-08T13:00:00	8	Radiación solar	373
82977	7	Sololá	717	San Juan la Laguna	12	San Juan la Laguna	10	Octubre	2023-10-13T00:00:00	2024-11-08T14:00:00	2	Temperatura media	24.5
82978	7	Sololá	717	San Juan la Laguna	12	San Juan la Laguna	10	Octubre	2023-10-13T00:00:00	2024-11-08T14:00:00	4	Temperatura máxima	24.5
82979	7	Sololá	717	San Juan la Laguna	12	San Juan la Laguna	10	Octubre	2023-10-13T00:00:00	2024-11-08T14:00:00	3	Temperatura mínima	21.6
82980	7	Sololá	717	San Juan la Laguna	12	San Juan la Laguna	10	Octubre	2023-10-13T00:00:00	2024-11-08T14:00:00	5	Humedad	73
82981	7	Sololá	717	San Juan la Laguna	12	San Juan la Laguna	10	Octubre	2023-10-13T00:00:00	2024-11-08T14:00:00	6	Velocidad del viento	0
82982	7	Sololá	717	San Juan la Laguna	12	San Juan la Laguna	10	Octubre	2023-10-13T00:00:00	2024-11-08T14:00:00	7	Dirección del viento	0
82983	7	Sololá	717	San Juan la Laguna	12	San Juan la Laguna	10	Octubre	2023-10-13T00:00:00	2024-11-08T14:00:00	1	Precipitación	0
82984	7	Sololá	717	San Juan la Laguna	12	San Juan la Laguna	10	Octubre	2023-10-13T00:00:00	2024-11-08T14:00:00	8	Radiación solar	394
82985	7	Sololá	717	San Juan la Laguna	12	San Juan la Laguna	10	Octubre	2023-10-13T00:00:00	2024-11-08T15:00:00	2	Temperatura media	22.1
82986	7	Sololá	717	San Juan la Laguna	12	San Juan la Laguna	10	Octubre	2023-10-13T00:00:00	2024-11-08T15:00:00	4	Temperatura máxima	24.4
82987	7	Sololá	717	San Juan la Laguna	12	San Juan la Laguna	10	Octubre	2023-10-13T00:00:00	2024-11-08T15:00:00	3	Temperatura mínima	22.1
82988	7	Sololá	717	San Juan la Laguna	12	San Juan la Laguna	10	Octubre	2023-10-13T00:00:00	2024-11-08T15:00:00	5	Humedad	81
82989	7	Sololá	717	San Juan la Laguna	12	San Juan la Laguna	10	Octubre	2023-10-13T00:00:00	2024-11-08T15:00:00	6	Velocidad del viento	0
82990	7	Sololá	717	San Juan la Laguna	12	San Juan la Laguna	10	Octubre	2023-10-13T00:00:00	2024-11-08T15:00:00	7	Dirección del viento	0
82991	7	Sololá	717	San Juan la Laguna	12	San Juan la Laguna	10	Octubre	2023-10-13T00:00:00	2024-11-08T15:00:00	1	Precipitación	0
82992	7	Sololá	717	San Juan la Laguna	12	San Juan la Laguna	10	Octubre	2023-10-13T00:00:00	2024-11-08T15:00:00	8	Radiación solar	212
82993	7	Sololá	717	San Juan la Laguna	12	San Juan la Laguna	10	Octubre	2023-10-13T00:00:00	2024-11-08T16:00:00	2	Temperatura media	21.2
82994	7	Sololá	717	San Juan la Laguna	12	San Juan la Laguna	10	Octubre	2023-10-13T00:00:00	2024-11-08T16:00:00	4	Temperatura máxima	22.2
82995	7	Sololá	717	San Juan la Laguna	12	San Juan la Laguna	10	Octubre	2023-10-13T00:00:00	2024-11-08T16:00:00	3	Temperatura mínima	21.2
82996	7	Sololá	717	San Juan la Laguna	12	San Juan la Laguna	10	Octubre	2023-10-13T00:00:00	2024-11-08T16:00:00	5	Humedad	84
82997	7	Sololá	717	San Juan la Laguna	12	San Juan la Laguna	10	Octubre	2023-10-13T00:00:00	2024-11-08T16:00:00	6	Velocidad del viento	0
82998	7	Sololá	717	San Juan la Laguna	12	San Juan la Laguna	10	Octubre	2023-10-13T00:00:00	2024-11-08T16:00:00	7	Dirección del viento	0
82999	7	Sololá	717	San Juan la Laguna	12	San Juan la Laguna	10	Octubre	2023-10-13T00:00:00	2024-11-08T16:00:00	1	Precipitación	0
83000	7	Sololá	717	San Juan la Laguna	12	San Juan la Laguna	10	Octubre	2023-10-13T00:00:00	2024-11-08T16:00:00	8	Radiación solar	47
83001	7	Sololá	717	San Juan la Laguna	12	San Juan la Laguna	10	Octubre	2023-10-13T00:00:00	2024-11-08T17:00:00	2	Temperatura media	21
83002	7	Sololá	717	San Juan la Laguna	12	San Juan la Laguna	10	Octubre	2023-10-13T00:00:00	2024-11-08T17:00:00	4	Temperatura máxima	21.2
83003	7	Sololá	717	San Juan la Laguna	12	San Juan la Laguna	10	Octubre	2023-10-13T00:00:00	2024-11-08T17:00:00	3	Temperatura mínima	21
83004	7	Sololá	717	San Juan la Laguna	12	San Juan la Laguna	10	Octubre	2023-10-13T00:00:00	2024-11-08T17:00:00	5	Humedad	85
83005	7	Sololá	717	San Juan la Laguna	12	San Juan la Laguna	10	Octubre	2023-10-13T00:00:00	2024-11-08T17:00:00	6	Velocidad del viento	0
83006	7	Sololá	717	San Juan la Laguna	12	San Juan la Laguna	10	Octubre	2023-10-13T00:00:00	2024-11-08T17:00:00	7	Dirección del viento	0
83007	7	Sololá	717	San Juan la Laguna	12	San Juan la Laguna	10	Octubre	2023-10-13T00:00:00	2024-11-08T17:00:00	1	Precipitación	0
83008	7	Sololá	717	San Juan la Laguna	12	San Juan la Laguna	10	Octubre	2023-10-13T00:00:00	2024-11-08T17:00:00	8	Radiación solar	23
83009	7	Sololá	717	San Juan la Laguna	12	San Juan la Laguna	10	Octubre	2023-10-13T00:00:00	2024-11-08T18:00:00	2	Temperatura media	20.2
83010	7	Sololá	717	San Juan la Laguna	12	San Juan la Laguna	10	Octubre	2023-10-13T00:00:00	2024-11-08T18:00:00	4	Temperatura máxima	21
83011	7	Sololá	717	San Juan la Laguna	12	San Juan la Laguna	10	Octubre	2023-10-13T00:00:00	2024-11-08T18:00:00	3	Temperatura mínima	20.2
83012	7	Sololá	717	San Juan la Laguna	12	San Juan la Laguna	10	Octubre	2023-10-13T00:00:00	2024-11-08T18:00:00	5	Humedad	88
83013	7	Sololá	717	San Juan la Laguna	12	San Juan la Laguna	10	Octubre	2023-10-13T00:00:00	2024-11-08T18:00:00	6	Velocidad del viento	0
83014	7	Sololá	717	San Juan la Laguna	12	San Juan la Laguna	10	Octubre	2023-10-13T00:00:00	2024-11-08T18:00:00	7	Dirección del viento	0
83015	7	Sololá	717	San Juan la Laguna	12	San Juan la Laguna	10	Octubre	2023-10-13T00:00:00	2024-11-08T18:00:00	1	Precipitación	0
83016	7	Sololá	717	San Juan la Laguna	12	San Juan la Laguna	10	Octubre	2023-10-13T00:00:00	2024-11-08T18:00:00	8	Radiación solar	4
83017	7	Sololá	717	San Juan la Laguna	12	San Juan la Laguna	10	Octubre	2023-10-13T00:00:00	2024-11-08T19:00:00	2	Temperatura media	20.1
83018	7	Sololá	717	San Juan la Laguna	12	San Juan la Laguna	10	Octubre	2023-10-13T00:00:00	2024-11-08T19:00:00	4	Temperatura máxima	20.2
83019	7	Sololá	717	San Juan la Laguna	12	San Juan la Laguna	10	Octubre	2023-10-13T00:00:00	2024-11-08T19:00:00	3	Temperatura mínima	20
83020	7	Sololá	717	San Juan la Laguna	12	San Juan la Laguna	10	Octubre	2023-10-13T00:00:00	2024-11-08T19:00:00	5	Humedad	88
83021	7	Sololá	717	San Juan la Laguna	12	San Juan la Laguna	10	Octubre	2023-10-13T00:00:00	2024-11-08T19:00:00	6	Velocidad del viento	0
83022	7	Sololá	717	San Juan la Laguna	12	San Juan la Laguna	10	Octubre	2023-10-13T00:00:00	2024-11-08T19:00:00	7	Dirección del viento	0
83023	7	Sololá	717	San Juan la Laguna	12	San Juan la Laguna	10	Octubre	2023-10-13T00:00:00	2024-11-08T19:00:00	1	Precipitación	0
83024	7	Sololá	717	San Juan la Laguna	12	San Juan la Laguna	10	Octubre	2023-10-13T00:00:00	2024-11-08T19:00:00	8	Radiación solar	0
83025	7	Sololá	717	San Juan la Laguna	12	San Juan la Laguna	10	Octubre	2023-10-13T00:00:00	2024-11-08T20:00:00	2	Temperatura media	19.8
83026	7	Sololá	717	San Juan la Laguna	12	San Juan la Laguna	10	Octubre	2023-10-13T00:00:00	2024-11-08T20:00:00	4	Temperatura máxima	20.1
83027	7	Sololá	717	San Juan la Laguna	12	San Juan la Laguna	10	Octubre	2023-10-13T00:00:00	2024-11-08T20:00:00	3	Temperatura mínima	19.8
83028	7	Sololá	717	San Juan la Laguna	12	San Juan la Laguna	10	Octubre	2023-10-13T00:00:00	2024-11-08T20:00:00	5	Humedad	89
83029	7	Sololá	717	San Juan la Laguna	12	San Juan la Laguna	10	Octubre	2023-10-13T00:00:00	2024-11-08T20:00:00	6	Velocidad del viento	0
83030	7	Sololá	717	San Juan la Laguna	12	San Juan la Laguna	10	Octubre	2023-10-13T00:00:00	2024-11-08T20:00:00	7	Dirección del viento	0
83031	7	Sololá	717	San Juan la Laguna	12	San Juan la Laguna	10	Octubre	2023-10-13T00:00:00	2024-11-08T20:00:00	1	Precipitación	0
83032	7	Sololá	717	San Juan la Laguna	12	San Juan la Laguna	10	Octubre	2023-10-13T00:00:00	2024-11-08T20:00:00	8	Radiación solar	0
83033	7	Sololá	717	San Juan la Laguna	12	San Juan la Laguna	10	Octubre	2023-10-13T00:00:00	2024-11-08T21:00:00	2	Temperatura media	19.1
83034	7	Sololá	717	San Juan la Laguna	12	San Juan la Laguna	10	Octubre	2023-10-13T00:00:00	2024-11-08T21:00:00	4	Temperatura máxima	19.8
83035	7	Sololá	717	San Juan la Laguna	12	San Juan la Laguna	10	Octubre	2023-10-13T00:00:00	2024-11-08T21:00:00	3	Temperatura mínima	19.1
83036	7	Sololá	717	San Juan la Laguna	12	San Juan la Laguna	10	Octubre	2023-10-13T00:00:00	2024-11-08T21:00:00	5	Humedad	87
83037	7	Sololá	717	San Juan la Laguna	12	San Juan la Laguna	10	Octubre	2023-10-13T00:00:00	2024-11-08T21:00:00	6	Velocidad del viento	0
83038	7	Sololá	717	San Juan la Laguna	12	San Juan la Laguna	10	Octubre	2023-10-13T00:00:00	2024-11-08T21:00:00	7	Dirección del viento	0
83039	7	Sololá	717	San Juan la Laguna	12	San Juan la Laguna	10	Octubre	2023-10-13T00:00:00	2024-11-08T21:00:00	1	Precipitación	0
83040	7	Sololá	717	San Juan la Laguna	12	San Juan la Laguna	10	Octubre	2023-10-13T00:00:00	2024-11-08T21:00:00	8	Radiación solar	0
83041	7	Sololá	717	San Juan la Laguna	12	San Juan la Laguna	10	Octubre	2023-10-13T00:00:00	2024-11-08T22:00:00	2	Temperatura media	18.7
83042	7	Sololá	717	San Juan la Laguna	12	San Juan la Laguna	10	Octubre	2023-10-13T00:00:00	2024-11-08T22:00:00	4	Temperatura máxima	19.1
83043	7	Sololá	717	San Juan la Laguna	12	San Juan la Laguna	10	Octubre	2023-10-13T00:00:00	2024-11-08T22:00:00	3	Temperatura mínima	18.6
83044	7	Sololá	717	San Juan la Laguna	12	San Juan la Laguna	10	Octubre	2023-10-13T00:00:00	2024-11-08T22:00:00	5	Humedad	88
83045	7	Sololá	717	San Juan la Laguna	12	San Juan la Laguna	10	Octubre	2023-10-13T00:00:00	2024-11-08T22:00:00	6	Velocidad del viento	0
83046	7	Sololá	717	San Juan la Laguna	12	San Juan la Laguna	10	Octubre	2023-10-13T00:00:00	2024-11-08T22:00:00	7	Dirección del viento	0
83047	7	Sololá	717	San Juan la Laguna	12	San Juan la Laguna	10	Octubre	2023-10-13T00:00:00	2024-11-08T22:00:00	1	Precipitación	0
83048	7	Sololá	717	San Juan la Laguna	12	San Juan la Laguna	10	Octubre	2023-10-13T00:00:00	2024-11-08T22:00:00	8	Radiación solar	0
83049	7	Sololá	717	San Juan la Laguna	12	San Juan la Laguna	10	Octubre	2023-10-13T00:00:00	2024-11-08T23:00:00	2	Temperatura media	17.9
83050	7	Sololá	717	San Juan la Laguna	12	San Juan la Laguna	10	Octubre	2023-10-13T00:00:00	2024-11-08T23:00:00	4	Temperatura máxima	18.8
83051	7	Sololá	717	San Juan la Laguna	12	San Juan la Laguna	10	Octubre	2023-10-13T00:00:00	2024-11-08T23:00:00	3	Temperatura mínima	17.9
83052	7	Sololá	717	San Juan la Laguna	12	San Juan la Laguna	10	Octubre	2023-10-13T00:00:00	2024-11-08T23:00:00	5	Humedad	89
83053	7	Sololá	717	San Juan la Laguna	12	San Juan la Laguna	10	Octubre	2023-10-13T00:00:00	2024-11-08T23:00:00	6	Velocidad del viento	0
83054	7	Sololá	717	San Juan la Laguna	12	San Juan la Laguna	10	Octubre	2023-10-13T00:00:00	2024-11-08T23:00:00	7	Dirección del viento	0
83055	7	Sololá	717	San Juan la Laguna	12	San Juan la Laguna	10	Octubre	2023-10-13T00:00:00	2024-11-08T23:00:00	1	Precipitación	0
83056	7	Sololá	717	San Juan la Laguna	12	San Juan la Laguna	10	Octubre	2023-10-13T00:00:00	2024-11-08T23:00:00	8	Radiación solar	0
83057	7	Sololá	717	San Juan la Laguna	12	San Juan la Laguna	10	Octubre	2023-10-14T00:00:00	2024-11-08T00:00:00	2	Temperatura media	17.9
83058	7	Sololá	717	San Juan la Laguna	12	San Juan la Laguna	10	Octubre	2023-10-14T00:00:00	2024-11-08T00:00:00	4	Temperatura máxima	18
83059	7	Sololá	717	San Juan la Laguna	12	San Juan la Laguna	10	Octubre	2023-10-14T00:00:00	2024-11-08T00:00:00	3	Temperatura mínima	17.6
83060	7	Sololá	717	San Juan la Laguna	12	San Juan la Laguna	10	Octubre	2023-10-14T00:00:00	2024-11-08T00:00:00	5	Humedad	90
83061	7	Sololá	717	San Juan la Laguna	12	San Juan la Laguna	10	Octubre	2023-10-14T00:00:00	2024-11-08T00:00:00	6	Velocidad del viento	0
83062	7	Sololá	717	San Juan la Laguna	12	San Juan la Laguna	10	Octubre	2023-10-14T00:00:00	2024-11-08T00:00:00	7	Dirección del viento	0
83063	7	Sololá	717	San Juan la Laguna	12	San Juan la Laguna	10	Octubre	2023-10-14T00:00:00	2024-11-08T00:00:00	1	Precipitación	0
83064	7	Sololá	717	San Juan la Laguna	12	San Juan la Laguna	10	Octubre	2023-10-14T00:00:00	2024-11-08T00:00:00	8	Radiación solar	0
83065	7	Sololá	717	San Juan la Laguna	12	San Juan la Laguna	10	Octubre	2023-10-14T00:00:00	2024-11-08T01:00:00	2	Temperatura media	18.1
83066	7	Sololá	717	San Juan la Laguna	12	San Juan la Laguna	10	Octubre	2023-10-14T00:00:00	2024-11-08T01:00:00	4	Temperatura máxima	18.3
83067	7	Sololá	717	San Juan la Laguna	12	San Juan la Laguna	10	Octubre	2023-10-14T00:00:00	2024-11-08T01:00:00	3	Temperatura mínima	18.1
83068	7	Sololá	717	San Juan la Laguna	12	San Juan la Laguna	10	Octubre	2023-10-14T00:00:00	2024-11-08T01:00:00	5	Humedad	90
83069	7	Sololá	717	San Juan la Laguna	12	San Juan la Laguna	10	Octubre	2023-10-14T00:00:00	2024-11-08T01:00:00	6	Velocidad del viento	0
83070	7	Sololá	717	San Juan la Laguna	12	San Juan la Laguna	10	Octubre	2023-10-14T00:00:00	2024-11-08T01:00:00	7	Dirección del viento	0
83071	7	Sololá	717	San Juan la Laguna	12	San Juan la Laguna	10	Octubre	2023-10-14T00:00:00	2024-11-08T01:00:00	1	Precipitación	0
83072	7	Sololá	717	San Juan la Laguna	12	San Juan la Laguna	10	Octubre	2023-10-14T00:00:00	2024-11-08T01:00:00	8	Radiación solar	0
83073	7	Sololá	717	San Juan la Laguna	12	San Juan la Laguna	10	Octubre	2023-10-14T00:00:00	2024-11-08T02:00:00	2	Temperatura media	17
83074	7	Sololá	717	San Juan la Laguna	12	San Juan la Laguna	10	Octubre	2023-10-14T00:00:00	2024-11-08T02:00:00	4	Temperatura máxima	18.1
83075	7	Sololá	717	San Juan la Laguna	12	San Juan la Laguna	10	Octubre	2023-10-14T00:00:00	2024-11-08T02:00:00	3	Temperatura mínima	17
83076	7	Sololá	717	San Juan la Laguna	12	San Juan la Laguna	10	Octubre	2023-10-14T00:00:00	2024-11-08T02:00:00	5	Humedad	91
83077	7	Sololá	717	San Juan la Laguna	12	San Juan la Laguna	10	Octubre	2023-10-14T00:00:00	2024-11-08T02:00:00	6	Velocidad del viento	0
83078	7	Sololá	717	San Juan la Laguna	12	San Juan la Laguna	10	Octubre	2023-10-14T00:00:00	2024-11-08T02:00:00	7	Dirección del viento	0
83079	7	Sololá	717	San Juan la Laguna	12	San Juan la Laguna	10	Octubre	2023-10-14T00:00:00	2024-11-08T02:00:00	1	Precipitación	0
83080	7	Sololá	717	San Juan la Laguna	12	San Juan la Laguna	10	Octubre	2023-10-14T00:00:00	2024-11-08T02:00:00	8	Radiación solar	0
83081	7	Sololá	717	San Juan la Laguna	12	San Juan la Laguna	10	Octubre	2023-10-14T00:00:00	2024-11-08T03:00:00	2	Temperatura media	17.1
83082	7	Sololá	717	San Juan la Laguna	12	San Juan la Laguna	10	Octubre	2023-10-14T00:00:00	2024-11-08T03:00:00	4	Temperatura máxima	17.1
83083	7	Sololá	717	San Juan la Laguna	12	San Juan la Laguna	10	Octubre	2023-10-14T00:00:00	2024-11-08T03:00:00	3	Temperatura mínima	16.8
83084	7	Sololá	717	San Juan la Laguna	12	San Juan la Laguna	10	Octubre	2023-10-14T00:00:00	2024-11-08T03:00:00	5	Humedad	87
83085	7	Sololá	717	San Juan la Laguna	12	San Juan la Laguna	10	Octubre	2023-10-14T00:00:00	2024-11-08T03:00:00	6	Velocidad del viento	0
83086	7	Sololá	717	San Juan la Laguna	12	San Juan la Laguna	10	Octubre	2023-10-14T00:00:00	2024-11-08T03:00:00	7	Dirección del viento	0
83087	7	Sololá	717	San Juan la Laguna	12	San Juan la Laguna	10	Octubre	2023-10-14T00:00:00	2024-11-08T03:00:00	1	Precipitación	0
83088	7	Sololá	717	San Juan la Laguna	12	San Juan la Laguna	10	Octubre	2023-10-14T00:00:00	2024-11-08T03:00:00	8	Radiación solar	0
83089	7	Sololá	717	San Juan la Laguna	12	San Juan la Laguna	10	Octubre	2023-10-14T00:00:00	2024-11-08T04:00:00	2	Temperatura media	16.3
83090	7	Sololá	717	San Juan la Laguna	12	San Juan la Laguna	10	Octubre	2023-10-14T00:00:00	2024-11-08T04:00:00	4	Temperatura máxima	17.1
83091	7	Sololá	717	San Juan la Laguna	12	San Juan la Laguna	10	Octubre	2023-10-14T00:00:00	2024-11-08T04:00:00	3	Temperatura mínima	16.3
83092	7	Sololá	717	San Juan la Laguna	12	San Juan la Laguna	10	Octubre	2023-10-14T00:00:00	2024-11-08T04:00:00	5	Humedad	90
83093	7	Sololá	717	San Juan la Laguna	12	San Juan la Laguna	10	Octubre	2023-10-14T00:00:00	2024-11-08T04:00:00	6	Velocidad del viento	0
83094	7	Sololá	717	San Juan la Laguna	12	San Juan la Laguna	10	Octubre	2023-10-14T00:00:00	2024-11-08T04:00:00	7	Dirección del viento	0
83095	7	Sololá	717	San Juan la Laguna	12	San Juan la Laguna	10	Octubre	2023-10-14T00:00:00	2024-11-08T04:00:00	1	Precipitación	0
83096	7	Sololá	717	San Juan la Laguna	12	San Juan la Laguna	10	Octubre	2023-10-14T00:00:00	2024-11-08T04:00:00	8	Radiación solar	0
83097	7	Sololá	717	San Juan la Laguna	12	San Juan la Laguna	10	Octubre	2023-10-14T00:00:00	2024-11-08T05:00:00	2	Temperatura media	16.4
83098	7	Sololá	717	San Juan la Laguna	12	San Juan la Laguna	10	Octubre	2023-10-14T00:00:00	2024-11-08T05:00:00	4	Temperatura máxima	16.7
83099	7	Sololá	717	San Juan la Laguna	12	San Juan la Laguna	10	Octubre	2023-10-14T00:00:00	2024-11-08T05:00:00	3	Temperatura mínima	16.3
83100	7	Sololá	717	San Juan la Laguna	12	San Juan la Laguna	10	Octubre	2023-10-14T00:00:00	2024-11-08T05:00:00	5	Humedad	88
83101	7	Sololá	717	San Juan la Laguna	12	San Juan la Laguna	10	Octubre	2023-10-14T00:00:00	2024-11-08T05:00:00	6	Velocidad del viento	0
83102	7	Sololá	717	San Juan la Laguna	12	San Juan la Laguna	10	Octubre	2023-10-14T00:00:00	2024-11-08T05:00:00	7	Dirección del viento	0
83103	7	Sololá	717	San Juan la Laguna	12	San Juan la Laguna	10	Octubre	2023-10-14T00:00:00	2024-11-08T05:00:00	1	Precipitación	0
83104	7	Sololá	717	San Juan la Laguna	12	San Juan la Laguna	10	Octubre	2023-10-14T00:00:00	2024-11-08T05:00:00	8	Radiación solar	0
83105	7	Sololá	717	San Juan la Laguna	12	San Juan la Laguna	10	Octubre	2023-10-14T00:00:00	2024-11-08T06:00:00	2	Temperatura media	16
83106	7	Sololá	717	San Juan la Laguna	12	San Juan la Laguna	10	Octubre	2023-10-14T00:00:00	2024-11-08T06:00:00	4	Temperatura máxima	16.4
83107	7	Sololá	717	San Juan la Laguna	12	San Juan la Laguna	10	Octubre	2023-10-14T00:00:00	2024-11-08T06:00:00	3	Temperatura mínima	15.8
83108	7	Sololá	717	San Juan la Laguna	12	San Juan la Laguna	10	Octubre	2023-10-14T00:00:00	2024-11-08T06:00:00	5	Humedad	90
83109	7	Sololá	717	San Juan la Laguna	12	San Juan la Laguna	10	Octubre	2023-10-14T00:00:00	2024-11-08T06:00:00	6	Velocidad del viento	0
83110	7	Sololá	717	San Juan la Laguna	12	San Juan la Laguna	10	Octubre	2023-10-14T00:00:00	2024-11-08T06:00:00	7	Dirección del viento	0
83111	7	Sololá	717	San Juan la Laguna	12	San Juan la Laguna	10	Octubre	2023-10-14T00:00:00	2024-11-08T06:00:00	1	Precipitación	0
83112	7	Sololá	717	San Juan la Laguna	12	San Juan la Laguna	10	Octubre	2023-10-14T00:00:00	2024-11-08T06:00:00	8	Radiación solar	0
83113	7	Sololá	717	San Juan la Laguna	12	San Juan la Laguna	10	Octubre	2023-10-14T00:00:00	2024-11-08T07:00:00	2	Temperatura media	17.8
83114	7	Sololá	717	San Juan la Laguna	12	San Juan la Laguna	10	Octubre	2023-10-14T00:00:00	2024-11-08T07:00:00	4	Temperatura máxima	17.8
83115	7	Sololá	717	San Juan la Laguna	12	San Juan la Laguna	10	Octubre	2023-10-14T00:00:00	2024-11-08T07:00:00	3	Temperatura mínima	16
83116	7	Sololá	717	San Juan la Laguna	12	San Juan la Laguna	10	Octubre	2023-10-14T00:00:00	2024-11-08T07:00:00	5	Humedad	86
83117	7	Sololá	717	San Juan la Laguna	12	San Juan la Laguna	10	Octubre	2023-10-14T00:00:00	2024-11-08T07:00:00	6	Velocidad del viento	0
83118	7	Sololá	717	San Juan la Laguna	12	San Juan la Laguna	10	Octubre	2023-10-14T00:00:00	2024-11-08T07:00:00	7	Dirección del viento	0
83119	7	Sololá	717	San Juan la Laguna	12	San Juan la Laguna	10	Octubre	2023-10-14T00:00:00	2024-11-08T07:00:00	1	Precipitación	0
83120	7	Sololá	717	San Juan la Laguna	12	San Juan la Laguna	10	Octubre	2023-10-14T00:00:00	2024-11-08T07:00:00	8	Radiación solar	65
83121	7	Sololá	717	San Juan la Laguna	12	San Juan la Laguna	10	Octubre	2023-10-14T00:00:00	2024-11-08T08:00:00	2	Temperatura media	22.3
83122	7	Sololá	717	San Juan la Laguna	12	San Juan la Laguna	10	Octubre	2023-10-14T00:00:00	2024-11-08T08:00:00	4	Temperatura máxima	22.3
83123	7	Sololá	717	San Juan la Laguna	12	San Juan la Laguna	10	Octubre	2023-10-14T00:00:00	2024-11-08T08:00:00	3	Temperatura mínima	17.8
83124	7	Sololá	717	San Juan la Laguna	12	San Juan la Laguna	10	Octubre	2023-10-14T00:00:00	2024-11-08T08:00:00	5	Humedad	77
83125	7	Sololá	717	San Juan la Laguna	12	San Juan la Laguna	10	Octubre	2023-10-14T00:00:00	2024-11-08T08:00:00	6	Velocidad del viento	0
83126	7	Sololá	717	San Juan la Laguna	12	San Juan la Laguna	10	Octubre	2023-10-14T00:00:00	2024-11-08T08:00:00	7	Dirección del viento	0
83127	7	Sololá	717	San Juan la Laguna	12	San Juan la Laguna	10	Octubre	2023-10-14T00:00:00	2024-11-08T08:00:00	1	Precipitación	0
83128	7	Sololá	717	San Juan la Laguna	12	San Juan la Laguna	10	Octubre	2023-10-14T00:00:00	2024-11-08T08:00:00	8	Radiación solar	282
83129	7	Sololá	717	San Juan la Laguna	12	San Juan la Laguna	10	Octubre	2023-10-14T00:00:00	2024-11-08T09:00:00	2	Temperatura media	23.8
83130	7	Sololá	717	San Juan la Laguna	12	San Juan la Laguna	10	Octubre	2023-10-14T00:00:00	2024-11-08T09:00:00	4	Temperatura máxima	23.8
83131	7	Sololá	717	San Juan la Laguna	12	San Juan la Laguna	10	Octubre	2023-10-14T00:00:00	2024-11-08T09:00:00	3	Temperatura mínima	22.3
83132	7	Sololá	717	San Juan la Laguna	12	San Juan la Laguna	10	Octubre	2023-10-14T00:00:00	2024-11-08T09:00:00	5	Humedad	72
83133	7	Sololá	717	San Juan la Laguna	12	San Juan la Laguna	10	Octubre	2023-10-14T00:00:00	2024-11-08T09:00:00	6	Velocidad del viento	0
83134	7	Sololá	717	San Juan la Laguna	12	San Juan la Laguna	10	Octubre	2023-10-14T00:00:00	2024-11-08T09:00:00	7	Dirección del viento	0
83135	7	Sololá	717	San Juan la Laguna	12	San Juan la Laguna	10	Octubre	2023-10-14T00:00:00	2024-11-08T09:00:00	1	Precipitación	0
83136	7	Sololá	717	San Juan la Laguna	12	San Juan la Laguna	10	Octubre	2023-10-14T00:00:00	2024-11-08T09:00:00	8	Radiación solar	490
83137	7	Sololá	717	San Juan la Laguna	12	San Juan la Laguna	10	Octubre	2023-10-14T00:00:00	2024-11-08T10:00:00	2	Temperatura media	24.8
83138	7	Sololá	717	San Juan la Laguna	12	San Juan la Laguna	10	Octubre	2023-10-14T00:00:00	2024-11-08T10:00:00	4	Temperatura máxima	25
83139	7	Sololá	717	San Juan la Laguna	12	San Juan la Laguna	10	Octubre	2023-10-14T00:00:00	2024-11-08T10:00:00	3	Temperatura mínima	23.3
83140	7	Sololá	717	San Juan la Laguna	12	San Juan la Laguna	10	Octubre	2023-10-14T00:00:00	2024-11-08T10:00:00	5	Humedad	57
83141	7	Sololá	717	San Juan la Laguna	12	San Juan la Laguna	10	Octubre	2023-10-14T00:00:00	2024-11-08T10:00:00	6	Velocidad del viento	0
83142	7	Sololá	717	San Juan la Laguna	12	San Juan la Laguna	10	Octubre	2023-10-14T00:00:00	2024-11-08T10:00:00	7	Dirección del viento	0
83143	7	Sololá	717	San Juan la Laguna	12	San Juan la Laguna	10	Octubre	2023-10-14T00:00:00	2024-11-08T10:00:00	1	Precipitación	0
83144	7	Sololá	717	San Juan la Laguna	12	San Juan la Laguna	10	Octubre	2023-10-14T00:00:00	2024-11-08T10:00:00	8	Radiación solar	669
83145	7	Sololá	717	San Juan la Laguna	12	San Juan la Laguna	10	Octubre	2023-10-14T00:00:00	2024-11-08T11:00:00	2	Temperatura media	24.1
83146	7	Sololá	717	San Juan la Laguna	12	San Juan la Laguna	10	Octubre	2023-10-14T00:00:00	2024-11-08T11:00:00	4	Temperatura máxima	25.1
83147	7	Sololá	717	San Juan la Laguna	12	San Juan la Laguna	10	Octubre	2023-10-14T00:00:00	2024-11-08T11:00:00	3	Temperatura mínima	23.6
83148	7	Sololá	717	San Juan la Laguna	12	San Juan la Laguna	10	Octubre	2023-10-14T00:00:00	2024-11-08T11:00:00	5	Humedad	70
83149	7	Sololá	717	San Juan la Laguna	12	San Juan la Laguna	10	Octubre	2023-10-14T00:00:00	2024-11-08T11:00:00	6	Velocidad del viento	0
83150	7	Sololá	717	San Juan la Laguna	12	San Juan la Laguna	10	Octubre	2023-10-14T00:00:00	2024-11-08T11:00:00	7	Dirección del viento	0
83151	7	Sololá	717	San Juan la Laguna	12	San Juan la Laguna	10	Octubre	2023-10-14T00:00:00	2024-11-08T11:00:00	1	Precipitación	0
83152	7	Sololá	717	San Juan la Laguna	12	San Juan la Laguna	10	Octubre	2023-10-14T00:00:00	2024-11-08T11:00:00	8	Radiación solar	401
83153	7	Sololá	717	San Juan la Laguna	12	San Juan la Laguna	10	Octubre	2023-10-14T00:00:00	2024-11-08T12:00:00	2	Temperatura media	21.4
83154	7	Sololá	717	San Juan la Laguna	12	San Juan la Laguna	10	Octubre	2023-10-14T00:00:00	2024-11-08T12:00:00	4	Temperatura máxima	24.1
83155	7	Sololá	717	San Juan la Laguna	12	San Juan la Laguna	10	Octubre	2023-10-14T00:00:00	2024-11-08T12:00:00	3	Temperatura mínima	21.4
83156	7	Sololá	717	San Juan la Laguna	12	San Juan la Laguna	10	Octubre	2023-10-14T00:00:00	2024-11-08T12:00:00	5	Humedad	83
83157	7	Sololá	717	San Juan la Laguna	12	San Juan la Laguna	10	Octubre	2023-10-14T00:00:00	2024-11-08T12:00:00	6	Velocidad del viento	0
83158	7	Sololá	717	San Juan la Laguna	12	San Juan la Laguna	10	Octubre	2023-10-14T00:00:00	2024-11-08T12:00:00	7	Dirección del viento	0
83159	7	Sololá	717	San Juan la Laguna	12	San Juan la Laguna	10	Octubre	2023-10-14T00:00:00	2024-11-08T12:00:00	1	Precipitación	0
83160	7	Sololá	717	San Juan la Laguna	12	San Juan la Laguna	10	Octubre	2023-10-14T00:00:00	2024-11-08T12:00:00	8	Radiación solar	156
83161	7	Sololá	717	San Juan la Laguna	12	San Juan la Laguna	10	Octubre	2023-10-14T00:00:00	2024-11-08T13:00:00	2	Temperatura media	23.6
83162	7	Sololá	717	San Juan la Laguna	12	San Juan la Laguna	10	Octubre	2023-10-14T00:00:00	2024-11-08T13:00:00	4	Temperatura máxima	23.6
83163	7	Sololá	717	San Juan la Laguna	12	San Juan la Laguna	10	Octubre	2023-10-14T00:00:00	2024-11-08T13:00:00	3	Temperatura mínima	21.4
83164	7	Sololá	717	San Juan la Laguna	12	San Juan la Laguna	10	Octubre	2023-10-14T00:00:00	2024-11-08T13:00:00	5	Humedad	76
83165	7	Sololá	717	San Juan la Laguna	12	San Juan la Laguna	10	Octubre	2023-10-14T00:00:00	2024-11-08T13:00:00	6	Velocidad del viento	0
83166	7	Sololá	717	San Juan la Laguna	12	San Juan la Laguna	10	Octubre	2023-10-14T00:00:00	2024-11-08T13:00:00	7	Dirección del viento	0
83167	7	Sololá	717	San Juan la Laguna	12	San Juan la Laguna	10	Octubre	2023-10-14T00:00:00	2024-11-08T13:00:00	1	Precipitación	0
83168	7	Sololá	717	San Juan la Laguna	12	San Juan la Laguna	10	Octubre	2023-10-14T00:00:00	2024-11-08T13:00:00	8	Radiación solar	320
83169	7	Sololá	717	San Juan la Laguna	12	San Juan la Laguna	10	Octubre	2023-10-14T00:00:00	2024-11-08T14:00:00	2	Temperatura media	23.2
83170	7	Sololá	717	San Juan la Laguna	12	San Juan la Laguna	10	Octubre	2023-10-14T00:00:00	2024-11-08T14:00:00	4	Temperatura máxima	24.5
83171	7	Sololá	717	San Juan la Laguna	12	San Juan la Laguna	10	Octubre	2023-10-14T00:00:00	2024-11-08T14:00:00	3	Temperatura mínima	23.2
83172	7	Sololá	717	San Juan la Laguna	12	San Juan la Laguna	10	Octubre	2023-10-14T00:00:00	2024-11-08T14:00:00	5	Humedad	78
83173	7	Sololá	717	San Juan la Laguna	12	San Juan la Laguna	10	Octubre	2023-10-14T00:00:00	2024-11-08T14:00:00	6	Velocidad del viento	0
83174	7	Sololá	717	San Juan la Laguna	12	San Juan la Laguna	10	Octubre	2023-10-14T00:00:00	2024-11-08T14:00:00	7	Dirección del viento	0
83175	7	Sololá	717	San Juan la Laguna	12	San Juan la Laguna	10	Octubre	2023-10-14T00:00:00	2024-11-08T14:00:00	1	Precipitación	0
83176	7	Sololá	717	San Juan la Laguna	12	San Juan la Laguna	10	Octubre	2023-10-14T00:00:00	2024-11-08T14:00:00	8	Radiación solar	488
83177	7	Sololá	717	San Juan la Laguna	12	San Juan la Laguna	10	Octubre	2023-10-14T00:00:00	2024-11-08T15:00:00	2	Temperatura media	22.9
83178	7	Sololá	717	San Juan la Laguna	12	San Juan la Laguna	10	Octubre	2023-10-14T00:00:00	2024-11-08T15:00:00	4	Temperatura máxima	23.3
83179	7	Sololá	717	San Juan la Laguna	12	San Juan la Laguna	10	Octubre	2023-10-14T00:00:00	2024-11-08T15:00:00	3	Temperatura mínima	22.6
83180	7	Sololá	717	San Juan la Laguna	12	San Juan la Laguna	10	Octubre	2023-10-14T00:00:00	2024-11-08T15:00:00	5	Humedad	81
83181	7	Sololá	717	San Juan la Laguna	12	San Juan la Laguna	10	Octubre	2023-10-14T00:00:00	2024-11-08T15:00:00	6	Velocidad del viento	0
83182	7	Sololá	717	San Juan la Laguna	12	San Juan la Laguna	10	Octubre	2023-10-14T00:00:00	2024-11-08T15:00:00	7	Dirección del viento	0
83183	7	Sololá	717	San Juan la Laguna	12	San Juan la Laguna	10	Octubre	2023-10-14T00:00:00	2024-11-08T15:00:00	1	Precipitación	0
83184	7	Sololá	717	San Juan la Laguna	12	San Juan la Laguna	10	Octubre	2023-10-14T00:00:00	2024-11-08T15:00:00	8	Radiación solar	292
83185	7	Sololá	717	San Juan la Laguna	12	San Juan la Laguna	10	Octubre	2023-10-14T00:00:00	2024-11-08T16:00:00	2	Temperatura media	22.2
83186	7	Sololá	717	San Juan la Laguna	12	San Juan la Laguna	10	Octubre	2023-10-14T00:00:00	2024-11-08T16:00:00	4	Temperatura máxima	22.9
83187	7	Sololá	717	San Juan la Laguna	12	San Juan la Laguna	10	Octubre	2023-10-14T00:00:00	2024-11-08T16:00:00	3	Temperatura mínima	21.4
83188	7	Sololá	717	San Juan la Laguna	12	San Juan la Laguna	10	Octubre	2023-10-14T00:00:00	2024-11-08T16:00:00	5	Humedad	83
83189	7	Sololá	717	San Juan la Laguna	12	San Juan la Laguna	10	Octubre	2023-10-14T00:00:00	2024-11-08T16:00:00	6	Velocidad del viento	0
83190	7	Sololá	717	San Juan la Laguna	12	San Juan la Laguna	10	Octubre	2023-10-14T00:00:00	2024-11-08T16:00:00	7	Dirección del viento	0
83191	7	Sololá	717	San Juan la Laguna	12	San Juan la Laguna	10	Octubre	2023-10-14T00:00:00	2024-11-08T16:00:00	1	Precipitación	0
83192	7	Sololá	717	San Juan la Laguna	12	San Juan la Laguna	10	Octubre	2023-10-14T00:00:00	2024-11-08T16:00:00	8	Radiación solar	249
83193	7	Sololá	717	San Juan la Laguna	12	San Juan la Laguna	10	Octubre	2023-10-14T00:00:00	2024-11-08T17:00:00	2	Temperatura media	21.5
83194	7	Sololá	717	San Juan la Laguna	12	San Juan la Laguna	10	Octubre	2023-10-14T00:00:00	2024-11-08T17:00:00	4	Temperatura máxima	22.2
83195	7	Sololá	717	San Juan la Laguna	12	San Juan la Laguna	10	Octubre	2023-10-14T00:00:00	2024-11-08T17:00:00	3	Temperatura mínima	21.4
83196	7	Sololá	717	San Juan la Laguna	12	San Juan la Laguna	10	Octubre	2023-10-14T00:00:00	2024-11-08T17:00:00	5	Humedad	85
83197	7	Sololá	717	San Juan la Laguna	12	San Juan la Laguna	10	Octubre	2023-10-14T00:00:00	2024-11-08T17:00:00	6	Velocidad del viento	0
83198	7	Sololá	717	San Juan la Laguna	12	San Juan la Laguna	10	Octubre	2023-10-14T00:00:00	2024-11-08T17:00:00	7	Dirección del viento	0
83199	7	Sololá	717	San Juan la Laguna	12	San Juan la Laguna	10	Octubre	2023-10-14T00:00:00	2024-11-08T17:00:00	1	Precipitación	0
83200	7	Sololá	717	San Juan la Laguna	12	San Juan la Laguna	10	Octubre	2023-10-14T00:00:00	2024-11-08T17:00:00	8	Radiación solar	66
83201	7	Sololá	717	San Juan la Laguna	12	San Juan la Laguna	10	Octubre	2023-10-14T00:00:00	2024-11-08T18:00:00	2	Temperatura media	20.8
83202	7	Sololá	717	San Juan la Laguna	12	San Juan la Laguna	10	Octubre	2023-10-14T00:00:00	2024-11-08T18:00:00	4	Temperatura máxima	21.5
83203	7	Sololá	717	San Juan la Laguna	12	San Juan la Laguna	10	Octubre	2023-10-14T00:00:00	2024-11-08T18:00:00	3	Temperatura mínima	20.8
83204	7	Sololá	717	San Juan la Laguna	12	San Juan la Laguna	10	Octubre	2023-10-14T00:00:00	2024-11-08T18:00:00	5	Humedad	88
83205	7	Sololá	717	San Juan la Laguna	12	San Juan la Laguna	10	Octubre	2023-10-14T00:00:00	2024-11-08T18:00:00	6	Velocidad del viento	0
83206	7	Sololá	717	San Juan la Laguna	12	San Juan la Laguna	10	Octubre	2023-10-14T00:00:00	2024-11-08T18:00:00	7	Dirección del viento	0
83207	7	Sololá	717	San Juan la Laguna	12	San Juan la Laguna	10	Octubre	2023-10-14T00:00:00	2024-11-08T18:00:00	1	Precipitación	0
83208	7	Sololá	717	San Juan la Laguna	12	San Juan la Laguna	10	Octubre	2023-10-14T00:00:00	2024-11-08T18:00:00	8	Radiación solar	11
83209	7	Sololá	717	San Juan la Laguna	12	San Juan la Laguna	10	Octubre	2023-10-14T00:00:00	2024-11-08T19:00:00	2	Temperatura media	19.6
83210	7	Sololá	717	San Juan la Laguna	12	San Juan la Laguna	10	Octubre	2023-10-14T00:00:00	2024-11-08T19:00:00	4	Temperatura máxima	20.8
83211	7	Sololá	717	San Juan la Laguna	12	San Juan la Laguna	10	Octubre	2023-10-14T00:00:00	2024-11-08T19:00:00	3	Temperatura mínima	19.6
83212	7	Sololá	717	San Juan la Laguna	12	San Juan la Laguna	10	Octubre	2023-10-14T00:00:00	2024-11-08T19:00:00	5	Humedad	89
83213	7	Sololá	717	San Juan la Laguna	12	San Juan la Laguna	10	Octubre	2023-10-14T00:00:00	2024-11-08T19:00:00	6	Velocidad del viento	0
83214	7	Sololá	717	San Juan la Laguna	12	San Juan la Laguna	10	Octubre	2023-10-14T00:00:00	2024-11-08T19:00:00	7	Dirección del viento	0
83215	7	Sololá	717	San Juan la Laguna	12	San Juan la Laguna	10	Octubre	2023-10-14T00:00:00	2024-11-08T19:00:00	1	Precipitación	0
83216	7	Sololá	717	San Juan la Laguna	12	San Juan la Laguna	10	Octubre	2023-10-14T00:00:00	2024-11-08T19:00:00	8	Radiación solar	0
83217	7	Sololá	717	San Juan la Laguna	12	San Juan la Laguna	10	Octubre	2023-10-14T00:00:00	2024-11-08T20:00:00	2	Temperatura media	19.6
83218	7	Sololá	717	San Juan la Laguna	12	San Juan la Laguna	10	Octubre	2023-10-14T00:00:00	2024-11-08T20:00:00	4	Temperatura máxima	20.3
83219	7	Sololá	717	San Juan la Laguna	12	San Juan la Laguna	10	Octubre	2023-10-14T00:00:00	2024-11-08T20:00:00	3	Temperatura mínima	19.4
83220	7	Sololá	717	San Juan la Laguna	12	San Juan la Laguna	10	Octubre	2023-10-14T00:00:00	2024-11-08T20:00:00	5	Humedad	85
83221	7	Sololá	717	San Juan la Laguna	12	San Juan la Laguna	10	Octubre	2023-10-14T00:00:00	2024-11-08T20:00:00	6	Velocidad del viento	0
83222	7	Sololá	717	San Juan la Laguna	12	San Juan la Laguna	10	Octubre	2023-10-14T00:00:00	2024-11-08T20:00:00	7	Dirección del viento	0
83223	7	Sololá	717	San Juan la Laguna	12	San Juan la Laguna	10	Octubre	2023-10-14T00:00:00	2024-11-08T20:00:00	1	Precipitación	0
83224	7	Sololá	717	San Juan la Laguna	12	San Juan la Laguna	10	Octubre	2023-10-14T00:00:00	2024-11-08T20:00:00	8	Radiación solar	0
83225	7	Sololá	717	San Juan la Laguna	12	San Juan la Laguna	10	Octubre	2023-10-14T00:00:00	2024-11-08T21:00:00	2	Temperatura media	19.2
83226	7	Sololá	717	San Juan la Laguna	12	San Juan la Laguna	10	Octubre	2023-10-14T00:00:00	2024-11-08T21:00:00	4	Temperatura máxima	19.6
83227	7	Sololá	717	San Juan la Laguna	12	San Juan la Laguna	10	Octubre	2023-10-14T00:00:00	2024-11-08T21:00:00	3	Temperatura mínima	18.9
83228	7	Sololá	717	San Juan la Laguna	12	San Juan la Laguna	10	Octubre	2023-10-14T00:00:00	2024-11-08T21:00:00	5	Humedad	85
83229	7	Sololá	717	San Juan la Laguna	12	San Juan la Laguna	10	Octubre	2023-10-14T00:00:00	2024-11-08T21:00:00	6	Velocidad del viento	0
83230	7	Sololá	717	San Juan la Laguna	12	San Juan la Laguna	10	Octubre	2023-10-14T00:00:00	2024-11-08T21:00:00	7	Dirección del viento	0
83231	7	Sololá	717	San Juan la Laguna	12	San Juan la Laguna	10	Octubre	2023-10-14T00:00:00	2024-11-08T21:00:00	1	Precipitación	0
83232	7	Sololá	717	San Juan la Laguna	12	San Juan la Laguna	10	Octubre	2023-10-14T00:00:00	2024-11-08T21:00:00	8	Radiación solar	0
83233	7	Sololá	717	San Juan la Laguna	12	San Juan la Laguna	10	Octubre	2023-10-14T00:00:00	2024-11-08T22:00:00	2	Temperatura media	18.3
83234	7	Sololá	717	San Juan la Laguna	12	San Juan la Laguna	10	Octubre	2023-10-14T00:00:00	2024-11-08T22:00:00	4	Temperatura máxima	19.3
83235	7	Sololá	717	San Juan la Laguna	12	San Juan la Laguna	10	Octubre	2023-10-14T00:00:00	2024-11-08T22:00:00	3	Temperatura mínima	18.3
83236	7	Sololá	717	San Juan la Laguna	12	San Juan la Laguna	10	Octubre	2023-10-14T00:00:00	2024-11-08T22:00:00	5	Humedad	86
83237	7	Sololá	717	San Juan la Laguna	12	San Juan la Laguna	10	Octubre	2023-10-14T00:00:00	2024-11-08T22:00:00	6	Velocidad del viento	0
83238	7	Sololá	717	San Juan la Laguna	12	San Juan la Laguna	10	Octubre	2023-10-14T00:00:00	2024-11-08T22:00:00	7	Dirección del viento	0
83239	7	Sololá	717	San Juan la Laguna	12	San Juan la Laguna	10	Octubre	2023-10-14T00:00:00	2024-11-08T22:00:00	1	Precipitación	0
83240	7	Sololá	717	San Juan la Laguna	12	San Juan la Laguna	10	Octubre	2023-10-14T00:00:00	2024-11-08T22:00:00	8	Radiación solar	0
83241	7	Sololá	717	San Juan la Laguna	12	San Juan la Laguna	10	Octubre	2023-10-14T00:00:00	2024-11-08T23:00:00	2	Temperatura media	18.4
83242	7	Sololá	717	San Juan la Laguna	12	San Juan la Laguna	10	Octubre	2023-10-14T00:00:00	2024-11-08T23:00:00	4	Temperatura máxima	18.7
83243	7	Sololá	717	San Juan la Laguna	12	San Juan la Laguna	10	Octubre	2023-10-14T00:00:00	2024-11-08T23:00:00	3	Temperatura mínima	18.3
83244	7	Sololá	717	San Juan la Laguna	12	San Juan la Laguna	10	Octubre	2023-10-14T00:00:00	2024-11-08T23:00:00	5	Humedad	86
83245	7	Sololá	717	San Juan la Laguna	12	San Juan la Laguna	10	Octubre	2023-10-14T00:00:00	2024-11-08T23:00:00	6	Velocidad del viento	0
83246	7	Sololá	717	San Juan la Laguna	12	San Juan la Laguna	10	Octubre	2023-10-14T00:00:00	2024-11-08T23:00:00	7	Dirección del viento	0
83247	7	Sololá	717	San Juan la Laguna	12	San Juan la Laguna	10	Octubre	2023-10-14T00:00:00	2024-11-08T23:00:00	1	Precipitación	0
83248	7	Sololá	717	San Juan la Laguna	12	San Juan la Laguna	10	Octubre	2023-10-14T00:00:00	2024-11-08T23:00:00	8	Radiación solar	0
83249	7	Sololá	717	San Juan la Laguna	12	San Juan la Laguna	10	Octubre	2023-10-15T00:00:00	2024-11-08T00:00:00	2	Temperatura media	18
83250	7	Sololá	717	San Juan la Laguna	12	San Juan la Laguna	10	Octubre	2023-10-15T00:00:00	2024-11-08T00:00:00	4	Temperatura máxima	18.4
83251	7	Sololá	717	San Juan la Laguna	12	San Juan la Laguna	10	Octubre	2023-10-15T00:00:00	2024-11-08T00:00:00	3	Temperatura mínima	17.7
83252	7	Sololá	717	San Juan la Laguna	12	San Juan la Laguna	10	Octubre	2023-10-15T00:00:00	2024-11-08T00:00:00	5	Humedad	87
83253	7	Sololá	717	San Juan la Laguna	12	San Juan la Laguna	10	Octubre	2023-10-15T00:00:00	2024-11-08T00:00:00	6	Velocidad del viento	0
83254	7	Sololá	717	San Juan la Laguna	12	San Juan la Laguna	10	Octubre	2023-10-15T00:00:00	2024-11-08T00:00:00	7	Dirección del viento	0
83255	7	Sololá	717	San Juan la Laguna	12	San Juan la Laguna	10	Octubre	2023-10-15T00:00:00	2024-11-08T00:00:00	1	Precipitación	0
83256	7	Sololá	717	San Juan la Laguna	12	San Juan la Laguna	10	Octubre	2023-10-15T00:00:00	2024-11-08T00:00:00	8	Radiación solar	0
83257	7	Sololá	717	San Juan la Laguna	12	San Juan la Laguna	10	Octubre	2023-10-15T00:00:00	2024-11-08T01:00:00	2	Temperatura media	16.9
83258	7	Sololá	717	San Juan la Laguna	12	San Juan la Laguna	10	Octubre	2023-10-15T00:00:00	2024-11-08T01:00:00	4	Temperatura máxima	18
83259	7	Sololá	717	San Juan la Laguna	12	San Juan la Laguna	10	Octubre	2023-10-15T00:00:00	2024-11-08T01:00:00	3	Temperatura mínima	16.9
83260	7	Sololá	717	San Juan la Laguna	12	San Juan la Laguna	10	Octubre	2023-10-15T00:00:00	2024-11-08T01:00:00	5	Humedad	89
83261	7	Sololá	717	San Juan la Laguna	12	San Juan la Laguna	10	Octubre	2023-10-15T00:00:00	2024-11-08T01:00:00	6	Velocidad del viento	0
83262	7	Sololá	717	San Juan la Laguna	12	San Juan la Laguna	10	Octubre	2023-10-15T00:00:00	2024-11-08T01:00:00	7	Dirección del viento	0
83263	7	Sololá	717	San Juan la Laguna	12	San Juan la Laguna	10	Octubre	2023-10-15T00:00:00	2024-11-08T01:00:00	1	Precipitación	0
83264	7	Sololá	717	San Juan la Laguna	12	San Juan la Laguna	10	Octubre	2023-10-15T00:00:00	2024-11-08T01:00:00	8	Radiación solar	0
83265	7	Sololá	717	San Juan la Laguna	12	San Juan la Laguna	10	Octubre	2023-10-15T00:00:00	2024-11-08T02:00:00	2	Temperatura media	17.1
83266	7	Sololá	717	San Juan la Laguna	12	San Juan la Laguna	10	Octubre	2023-10-15T00:00:00	2024-11-08T02:00:00	4	Temperatura máxima	17.2
83267	7	Sololá	717	San Juan la Laguna	12	San Juan la Laguna	10	Octubre	2023-10-15T00:00:00	2024-11-08T02:00:00	3	Temperatura mínima	16.6
83268	7	Sololá	717	San Juan la Laguna	12	San Juan la Laguna	10	Octubre	2023-10-15T00:00:00	2024-11-08T02:00:00	5	Humedad	89
83269	7	Sololá	717	San Juan la Laguna	12	San Juan la Laguna	10	Octubre	2023-10-15T00:00:00	2024-11-08T02:00:00	6	Velocidad del viento	0
83270	7	Sololá	717	San Juan la Laguna	12	San Juan la Laguna	10	Octubre	2023-10-15T00:00:00	2024-11-08T02:00:00	7	Dirección del viento	0
83271	7	Sololá	717	San Juan la Laguna	12	San Juan la Laguna	10	Octubre	2023-10-15T00:00:00	2024-11-08T02:00:00	1	Precipitación	0
83272	7	Sololá	717	San Juan la Laguna	12	San Juan la Laguna	10	Octubre	2023-10-15T00:00:00	2024-11-08T02:00:00	8	Radiación solar	0
83273	7	Sololá	717	San Juan la Laguna	12	San Juan la Laguna	10	Octubre	2023-10-15T00:00:00	2024-11-08T03:00:00	2	Temperatura media	16.8
83274	7	Sololá	717	San Juan la Laguna	12	San Juan la Laguna	10	Octubre	2023-10-15T00:00:00	2024-11-08T03:00:00	4	Temperatura máxima	17.2
83275	7	Sololá	717	San Juan la Laguna	12	San Juan la Laguna	10	Octubre	2023-10-15T00:00:00	2024-11-08T03:00:00	3	Temperatura mínima	16.7
83276	7	Sololá	717	San Juan la Laguna	12	San Juan la Laguna	10	Octubre	2023-10-15T00:00:00	2024-11-08T03:00:00	5	Humedad	88
83277	7	Sololá	717	San Juan la Laguna	12	San Juan la Laguna	10	Octubre	2023-10-15T00:00:00	2024-11-08T03:00:00	6	Velocidad del viento	0
83278	7	Sololá	717	San Juan la Laguna	12	San Juan la Laguna	10	Octubre	2023-10-15T00:00:00	2024-11-08T03:00:00	7	Dirección del viento	0
83279	7	Sololá	717	San Juan la Laguna	12	San Juan la Laguna	10	Octubre	2023-10-15T00:00:00	2024-11-08T03:00:00	1	Precipitación	0
83280	7	Sololá	717	San Juan la Laguna	12	San Juan la Laguna	10	Octubre	2023-10-15T00:00:00	2024-11-08T03:00:00	8	Radiación solar	0
83281	7	Sololá	717	San Juan la Laguna	12	San Juan la Laguna	10	Octubre	2023-10-15T00:00:00	2024-11-08T04:00:00	2	Temperatura media	16.5
83282	7	Sololá	717	San Juan la Laguna	12	San Juan la Laguna	10	Octubre	2023-10-15T00:00:00	2024-11-08T04:00:00	4	Temperatura máxima	17.1
83283	7	Sololá	717	San Juan la Laguna	12	San Juan la Laguna	10	Octubre	2023-10-15T00:00:00	2024-11-08T04:00:00	3	Temperatura mínima	16.5
83284	7	Sololá	717	San Juan la Laguna	12	San Juan la Laguna	10	Octubre	2023-10-15T00:00:00	2024-11-08T04:00:00	5	Humedad	88
83285	7	Sololá	717	San Juan la Laguna	12	San Juan la Laguna	10	Octubre	2023-10-15T00:00:00	2024-11-08T04:00:00	6	Velocidad del viento	0
83286	7	Sololá	717	San Juan la Laguna	12	San Juan la Laguna	10	Octubre	2023-10-15T00:00:00	2024-11-08T04:00:00	7	Dirección del viento	0
83287	7	Sololá	717	San Juan la Laguna	12	San Juan la Laguna	10	Octubre	2023-10-15T00:00:00	2024-11-08T04:00:00	1	Precipitación	0
83288	7	Sololá	717	San Juan la Laguna	12	San Juan la Laguna	10	Octubre	2023-10-15T00:00:00	2024-11-08T04:00:00	8	Radiación solar	0
83289	7	Sololá	717	San Juan la Laguna	12	San Juan la Laguna	10	Octubre	2023-10-15T00:00:00	2024-11-08T05:00:00	2	Temperatura media	16.1
83290	7	Sololá	717	San Juan la Laguna	12	San Juan la Laguna	10	Octubre	2023-10-15T00:00:00	2024-11-08T05:00:00	4	Temperatura máxima	16.7
83291	7	Sololá	717	San Juan la Laguna	12	San Juan la Laguna	10	Octubre	2023-10-15T00:00:00	2024-11-08T05:00:00	3	Temperatura mínima	16.1
83292	7	Sololá	717	San Juan la Laguna	12	San Juan la Laguna	10	Octubre	2023-10-15T00:00:00	2024-11-08T05:00:00	5	Humedad	88
83293	7	Sololá	717	San Juan la Laguna	12	San Juan la Laguna	10	Octubre	2023-10-15T00:00:00	2024-11-08T05:00:00	6	Velocidad del viento	3.2
83294	7	Sololá	717	San Juan la Laguna	12	San Juan la Laguna	10	Octubre	2023-10-15T00:00:00	2024-11-08T05:00:00	7	Dirección del viento	3.22
83295	7	Sololá	717	San Juan la Laguna	12	San Juan la Laguna	10	Octubre	2023-10-15T00:00:00	2024-11-08T05:00:00	1	Precipitación	0
83296	7	Sololá	717	San Juan la Laguna	12	San Juan la Laguna	10	Octubre	2023-10-15T00:00:00	2024-11-08T05:00:00	8	Radiación solar	0
83297	7	Sololá	717	San Juan la Laguna	12	San Juan la Laguna	10	Octubre	2023-10-15T00:00:00	2024-11-08T06:00:00	2	Temperatura media	16.1
83298	7	Sololá	717	San Juan la Laguna	12	San Juan la Laguna	10	Octubre	2023-10-15T00:00:00	2024-11-08T06:00:00	4	Temperatura máxima	16.1
83299	7	Sololá	717	San Juan la Laguna	12	San Juan la Laguna	10	Octubre	2023-10-15T00:00:00	2024-11-08T06:00:00	3	Temperatura mínima	15.7
83300	7	Sololá	717	San Juan la Laguna	12	San Juan la Laguna	10	Octubre	2023-10-15T00:00:00	2024-11-08T06:00:00	5	Humedad	87
83301	7	Sololá	717	San Juan la Laguna	12	San Juan la Laguna	10	Octubre	2023-10-15T00:00:00	2024-11-08T06:00:00	6	Velocidad del viento	0
83302	7	Sololá	717	San Juan la Laguna	12	San Juan la Laguna	10	Octubre	2023-10-15T00:00:00	2024-11-08T06:00:00	7	Dirección del viento	0
83303	7	Sololá	717	San Juan la Laguna	12	San Juan la Laguna	10	Octubre	2023-10-15T00:00:00	2024-11-08T06:00:00	1	Precipitación	0
83304	7	Sololá	717	San Juan la Laguna	12	San Juan la Laguna	10	Octubre	2023-10-15T00:00:00	2024-11-08T06:00:00	8	Radiación solar	0
83305	7	Sololá	717	San Juan la Laguna	12	San Juan la Laguna	10	Octubre	2023-10-15T00:00:00	2024-11-08T07:00:00	2	Temperatura media	17.6
83306	7	Sololá	717	San Juan la Laguna	12	San Juan la Laguna	10	Octubre	2023-10-15T00:00:00	2024-11-08T07:00:00	4	Temperatura máxima	17.6
83307	7	Sololá	717	San Juan la Laguna	12	San Juan la Laguna	10	Octubre	2023-10-15T00:00:00	2024-11-08T07:00:00	3	Temperatura mínima	16.1
83308	7	Sololá	717	San Juan la Laguna	12	San Juan la Laguna	10	Octubre	2023-10-15T00:00:00	2024-11-08T07:00:00	5	Humedad	87
83309	7	Sololá	717	San Juan la Laguna	12	San Juan la Laguna	10	Octubre	2023-10-15T00:00:00	2024-11-08T07:00:00	6	Velocidad del viento	1.6
83310	7	Sololá	717	San Juan la Laguna	12	San Juan la Laguna	10	Octubre	2023-10-15T00:00:00	2024-11-08T07:00:00	7	Dirección del viento	1.61
83311	7	Sololá	717	San Juan la Laguna	12	San Juan la Laguna	10	Octubre	2023-10-15T00:00:00	2024-11-08T07:00:00	1	Precipitación	0
83312	7	Sololá	717	San Juan la Laguna	12	San Juan la Laguna	10	Octubre	2023-10-15T00:00:00	2024-11-08T07:00:00	8	Radiación solar	67
83313	7	Sololá	717	San Juan la Laguna	12	San Juan la Laguna	10	Octubre	2023-10-15T00:00:00	2024-11-08T08:00:00	2	Temperatura media	22.4
83314	7	Sololá	717	San Juan la Laguna	12	San Juan la Laguna	10	Octubre	2023-10-15T00:00:00	2024-11-08T08:00:00	4	Temperatura máxima	22.4
83315	7	Sololá	717	San Juan la Laguna	12	San Juan la Laguna	10	Octubre	2023-10-15T00:00:00	2024-11-08T08:00:00	3	Temperatura mínima	17.6
83316	7	Sololá	717	San Juan la Laguna	12	San Juan la Laguna	10	Octubre	2023-10-15T00:00:00	2024-11-08T08:00:00	5	Humedad	73
83317	7	Sololá	717	San Juan la Laguna	12	San Juan la Laguna	10	Octubre	2023-10-15T00:00:00	2024-11-08T08:00:00	6	Velocidad del viento	0
83318	7	Sololá	717	San Juan la Laguna	12	San Juan la Laguna	10	Octubre	2023-10-15T00:00:00	2024-11-08T08:00:00	7	Dirección del viento	0
83319	7	Sololá	717	San Juan la Laguna	12	San Juan la Laguna	10	Octubre	2023-10-15T00:00:00	2024-11-08T08:00:00	1	Precipitación	0
83320	7	Sololá	717	San Juan la Laguna	12	San Juan la Laguna	10	Octubre	2023-10-15T00:00:00	2024-11-08T08:00:00	8	Radiación solar	289
83321	7	Sololá	717	San Juan la Laguna	12	San Juan la Laguna	10	Octubre	2023-10-15T00:00:00	2024-11-08T09:00:00	2	Temperatura media	23.1
83322	7	Sololá	717	San Juan la Laguna	12	San Juan la Laguna	10	Octubre	2023-10-15T00:00:00	2024-11-08T09:00:00	4	Temperatura máxima	23.1
83323	7	Sololá	717	San Juan la Laguna	12	San Juan la Laguna	10	Octubre	2023-10-15T00:00:00	2024-11-08T09:00:00	3	Temperatura mínima	22.3
83324	7	Sololá	717	San Juan la Laguna	12	San Juan la Laguna	10	Octubre	2023-10-15T00:00:00	2024-11-08T09:00:00	5	Humedad	71
83325	7	Sololá	717	San Juan la Laguna	12	San Juan la Laguna	10	Octubre	2023-10-15T00:00:00	2024-11-08T09:00:00	6	Velocidad del viento	0
83326	7	Sololá	717	San Juan la Laguna	12	San Juan la Laguna	10	Octubre	2023-10-15T00:00:00	2024-11-08T09:00:00	7	Dirección del viento	0
83327	7	Sololá	717	San Juan la Laguna	12	San Juan la Laguna	10	Octubre	2023-10-15T00:00:00	2024-11-08T09:00:00	1	Precipitación	0
83328	7	Sololá	717	San Juan la Laguna	12	San Juan la Laguna	10	Octubre	2023-10-15T00:00:00	2024-11-08T09:00:00	8	Radiación solar	502
83329	7	Sololá	717	San Juan la Laguna	12	San Juan la Laguna	10	Octubre	2023-10-15T00:00:00	2024-11-08T10:00:00	2	Temperatura media	23.5
83330	7	Sololá	717	San Juan la Laguna	12	San Juan la Laguna	10	Octubre	2023-10-15T00:00:00	2024-11-08T10:00:00	4	Temperatura máxima	23.5
83331	7	Sololá	717	San Juan la Laguna	12	San Juan la Laguna	10	Octubre	2023-10-15T00:00:00	2024-11-08T10:00:00	3	Temperatura mínima	22.3
83332	7	Sololá	717	San Juan la Laguna	12	San Juan la Laguna	10	Octubre	2023-10-15T00:00:00	2024-11-08T10:00:00	5	Humedad	68
83333	7	Sololá	717	San Juan la Laguna	12	San Juan la Laguna	10	Octubre	2023-10-15T00:00:00	2024-11-08T10:00:00	6	Velocidad del viento	0
83334	7	Sololá	717	San Juan la Laguna	12	San Juan la Laguna	10	Octubre	2023-10-15T00:00:00	2024-11-08T10:00:00	7	Dirección del viento	0
83335	7	Sololá	717	San Juan la Laguna	12	San Juan la Laguna	10	Octubre	2023-10-15T00:00:00	2024-11-08T10:00:00	1	Precipitación	0
83336	7	Sololá	717	San Juan la Laguna	12	San Juan la Laguna	10	Octubre	2023-10-15T00:00:00	2024-11-08T10:00:00	8	Radiación solar	689
83337	7	Sololá	717	San Juan la Laguna	12	San Juan la Laguna	10	Octubre	2023-10-15T00:00:00	2024-11-08T11:00:00	2	Temperatura media	24.1
83338	7	Sololá	717	San Juan la Laguna	12	San Juan la Laguna	10	Octubre	2023-10-15T00:00:00	2024-11-08T11:00:00	4	Temperatura máxima	24.1
83339	7	Sololá	717	San Juan la Laguna	12	San Juan la Laguna	10	Octubre	2023-10-15T00:00:00	2024-11-08T11:00:00	3	Temperatura mínima	23.2
83340	7	Sololá	717	San Juan la Laguna	12	San Juan la Laguna	10	Octubre	2023-10-15T00:00:00	2024-11-08T11:00:00	5	Humedad	70
83341	7	Sololá	717	San Juan la Laguna	12	San Juan la Laguna	10	Octubre	2023-10-15T00:00:00	2024-11-08T11:00:00	6	Velocidad del viento	0
83342	7	Sololá	717	San Juan la Laguna	12	San Juan la Laguna	10	Octubre	2023-10-15T00:00:00	2024-11-08T11:00:00	7	Dirección del viento	0
83343	7	Sololá	717	San Juan la Laguna	12	San Juan la Laguna	10	Octubre	2023-10-15T00:00:00	2024-11-08T11:00:00	1	Precipitación	0
83344	7	Sololá	717	San Juan la Laguna	12	San Juan la Laguna	10	Octubre	2023-10-15T00:00:00	2024-11-08T11:00:00	8	Radiación solar	767
83345	7	Sololá	717	San Juan la Laguna	12	San Juan la Laguna	10	Octubre	2023-10-15T00:00:00	2024-11-08T12:00:00	2	Temperatura media	24.2
83346	7	Sololá	717	San Juan la Laguna	12	San Juan la Laguna	10	Octubre	2023-10-15T00:00:00	2024-11-08T12:00:00	4	Temperatura máxima	24.3
83347	7	Sololá	717	San Juan la Laguna	12	San Juan la Laguna	10	Octubre	2023-10-15T00:00:00	2024-11-08T12:00:00	3	Temperatura mínima	23.6
83348	7	Sololá	717	San Juan la Laguna	12	San Juan la Laguna	10	Octubre	2023-10-15T00:00:00	2024-11-08T12:00:00	5	Humedad	71
83349	7	Sololá	717	San Juan la Laguna	12	San Juan la Laguna	10	Octubre	2023-10-15T00:00:00	2024-11-08T12:00:00	6	Velocidad del viento	0
83350	7	Sololá	717	San Juan la Laguna	12	San Juan la Laguna	10	Octubre	2023-10-15T00:00:00	2024-11-08T12:00:00	7	Dirección del viento	0
83351	7	Sololá	717	San Juan la Laguna	12	San Juan la Laguna	10	Octubre	2023-10-15T00:00:00	2024-11-08T12:00:00	1	Precipitación	0
83352	7	Sololá	717	San Juan la Laguna	12	San Juan la Laguna	10	Octubre	2023-10-15T00:00:00	2024-11-08T12:00:00	8	Radiación solar	936
83353	7	Sololá	717	San Juan la Laguna	12	San Juan la Laguna	10	Octubre	2023-10-15T00:00:00	2024-11-08T13:00:00	2	Temperatura media	23.7
83354	7	Sololá	717	San Juan la Laguna	12	San Juan la Laguna	10	Octubre	2023-10-15T00:00:00	2024-11-08T13:00:00	4	Temperatura máxima	24.4
83355	7	Sololá	717	San Juan la Laguna	12	San Juan la Laguna	10	Octubre	2023-10-15T00:00:00	2024-11-08T13:00:00	3	Temperatura mínima	23.3
83356	7	Sololá	717	San Juan la Laguna	12	San Juan la Laguna	10	Octubre	2023-10-15T00:00:00	2024-11-08T13:00:00	5	Humedad	73
83357	7	Sololá	717	San Juan la Laguna	12	San Juan la Laguna	10	Octubre	2023-10-15T00:00:00	2024-11-08T13:00:00	6	Velocidad del viento	0
83358	7	Sololá	717	San Juan la Laguna	12	San Juan la Laguna	10	Octubre	2023-10-15T00:00:00	2024-11-08T13:00:00	7	Dirección del viento	0
83359	7	Sololá	717	San Juan la Laguna	12	San Juan la Laguna	10	Octubre	2023-10-15T00:00:00	2024-11-08T13:00:00	1	Precipitación	0
83360	7	Sololá	717	San Juan la Laguna	12	San Juan la Laguna	10	Octubre	2023-10-15T00:00:00	2024-11-08T13:00:00	8	Radiación solar	723
83361	7	Sololá	717	San Juan la Laguna	12	San Juan la Laguna	10	Octubre	2023-10-15T00:00:00	2024-11-08T14:00:00	2	Temperatura media	22.6
83362	7	Sololá	717	San Juan la Laguna	12	San Juan la Laguna	10	Octubre	2023-10-15T00:00:00	2024-11-08T14:00:00	4	Temperatura máxima	24.3
83363	7	Sololá	717	San Juan la Laguna	12	San Juan la Laguna	10	Octubre	2023-10-15T00:00:00	2024-11-08T14:00:00	3	Temperatura mínima	22.1
83364	7	Sololá	717	San Juan la Laguna	12	San Juan la Laguna	10	Octubre	2023-10-15T00:00:00	2024-11-08T14:00:00	5	Humedad	78
83365	7	Sololá	717	San Juan la Laguna	12	San Juan la Laguna	10	Octubre	2023-10-15T00:00:00	2024-11-08T14:00:00	6	Velocidad del viento	0
83366	7	Sololá	717	San Juan la Laguna	12	San Juan la Laguna	10	Octubre	2023-10-15T00:00:00	2024-11-08T14:00:00	7	Dirección del viento	0
83367	7	Sololá	717	San Juan la Laguna	12	San Juan la Laguna	10	Octubre	2023-10-15T00:00:00	2024-11-08T14:00:00	1	Precipitación	0
83368	7	Sololá	717	San Juan la Laguna	12	San Juan la Laguna	10	Octubre	2023-10-15T00:00:00	2024-11-08T14:00:00	8	Radiación solar	409
83369	7	Sololá	717	San Juan la Laguna	12	San Juan la Laguna	10	Octubre	2023-10-15T00:00:00	2024-11-08T15:00:00	2	Temperatura media	21.5
83370	7	Sololá	717	San Juan la Laguna	12	San Juan la Laguna	10	Octubre	2023-10-15T00:00:00	2024-11-08T15:00:00	4	Temperatura máxima	23.6
83371	7	Sololá	717	San Juan la Laguna	12	San Juan la Laguna	10	Octubre	2023-10-15T00:00:00	2024-11-08T15:00:00	3	Temperatura mínima	21.5
83372	7	Sololá	717	San Juan la Laguna	12	San Juan la Laguna	10	Octubre	2023-10-15T00:00:00	2024-11-08T15:00:00	5	Humedad	80
83373	7	Sololá	717	San Juan la Laguna	12	San Juan la Laguna	10	Octubre	2023-10-15T00:00:00	2024-11-08T15:00:00	6	Velocidad del viento	0
83374	7	Sololá	717	San Juan la Laguna	12	San Juan la Laguna	10	Octubre	2023-10-15T00:00:00	2024-11-08T15:00:00	7	Dirección del viento	0
83375	7	Sololá	717	San Juan la Laguna	12	San Juan la Laguna	10	Octubre	2023-10-15T00:00:00	2024-11-08T15:00:00	1	Precipitación	0
83376	7	Sololá	717	San Juan la Laguna	12	San Juan la Laguna	10	Octubre	2023-10-15T00:00:00	2024-11-08T15:00:00	8	Radiación solar	194
83377	7	Sololá	717	San Juan la Laguna	12	San Juan la Laguna	10	Octubre	2023-10-15T00:00:00	2024-11-08T16:00:00	2	Temperatura media	21.3
83378	7	Sololá	717	San Juan la Laguna	12	San Juan la Laguna	10	Octubre	2023-10-15T00:00:00	2024-11-08T16:00:00	4	Temperatura máxima	21.5
83379	7	Sololá	717	San Juan la Laguna	12	San Juan la Laguna	10	Octubre	2023-10-15T00:00:00	2024-11-08T16:00:00	3	Temperatura mínima	21.1
83380	7	Sololá	717	San Juan la Laguna	12	San Juan la Laguna	10	Octubre	2023-10-15T00:00:00	2024-11-08T16:00:00	5	Humedad	81
83381	7	Sololá	717	San Juan la Laguna	12	San Juan la Laguna	10	Octubre	2023-10-15T00:00:00	2024-11-08T16:00:00	6	Velocidad del viento	0
83382	7	Sololá	717	San Juan la Laguna	12	San Juan la Laguna	10	Octubre	2023-10-15T00:00:00	2024-11-08T16:00:00	7	Dirección del viento	0
83383	7	Sololá	717	San Juan la Laguna	12	San Juan la Laguna	10	Octubre	2023-10-15T00:00:00	2024-11-08T16:00:00	1	Precipitación	0
83384	7	Sololá	717	San Juan la Laguna	12	San Juan la Laguna	10	Octubre	2023-10-15T00:00:00	2024-11-08T16:00:00	8	Radiación solar	132
83385	7	Sololá	717	San Juan la Laguna	12	San Juan la Laguna	10	Octubre	2023-10-15T00:00:00	2024-11-08T17:00:00	2	Temperatura media	20.3
83386	7	Sololá	717	San Juan la Laguna	12	San Juan la Laguna	10	Octubre	2023-10-15T00:00:00	2024-11-08T17:00:00	4	Temperatura máxima	21.3
83387	7	Sololá	717	San Juan la Laguna	12	San Juan la Laguna	10	Octubre	2023-10-15T00:00:00	2024-11-08T17:00:00	3	Temperatura mínima	20.3
83388	7	Sololá	717	San Juan la Laguna	12	San Juan la Laguna	10	Octubre	2023-10-15T00:00:00	2024-11-08T17:00:00	5	Humedad	86
83389	7	Sololá	717	San Juan la Laguna	12	San Juan la Laguna	10	Octubre	2023-10-15T00:00:00	2024-11-08T17:00:00	6	Velocidad del viento	0
83390	7	Sololá	717	San Juan la Laguna	12	San Juan la Laguna	10	Octubre	2023-10-15T00:00:00	2024-11-08T17:00:00	7	Dirección del viento	0
83391	7	Sololá	717	San Juan la Laguna	12	San Juan la Laguna	10	Octubre	2023-10-15T00:00:00	2024-11-08T17:00:00	1	Precipitación	0
83392	7	Sololá	717	San Juan la Laguna	12	San Juan la Laguna	10	Octubre	2023-10-15T00:00:00	2024-11-08T17:00:00	8	Radiación solar	52
83393	7	Sololá	717	San Juan la Laguna	12	San Juan la Laguna	10	Octubre	2023-10-15T00:00:00	2024-11-08T18:00:00	2	Temperatura media	19.1
83394	7	Sololá	717	San Juan la Laguna	12	San Juan la Laguna	10	Octubre	2023-10-15T00:00:00	2024-11-08T18:00:00	4	Temperatura máxima	20.3
83395	7	Sololá	717	San Juan la Laguna	12	San Juan la Laguna	10	Octubre	2023-10-15T00:00:00	2024-11-08T18:00:00	3	Temperatura mínima	18.9
83396	7	Sololá	717	San Juan la Laguna	12	San Juan la Laguna	10	Octubre	2023-10-15T00:00:00	2024-11-08T18:00:00	5	Humedad	89
83397	7	Sololá	717	San Juan la Laguna	12	San Juan la Laguna	10	Octubre	2023-10-15T00:00:00	2024-11-08T18:00:00	6	Velocidad del viento	0
83398	7	Sololá	717	San Juan la Laguna	12	San Juan la Laguna	10	Octubre	2023-10-15T00:00:00	2024-11-08T18:00:00	7	Dirección del viento	0
83399	7	Sololá	717	San Juan la Laguna	12	San Juan la Laguna	10	Octubre	2023-10-15T00:00:00	2024-11-08T18:00:00	1	Precipitación	0
83400	7	Sololá	717	San Juan la Laguna	12	San Juan la Laguna	10	Octubre	2023-10-15T00:00:00	2024-11-08T18:00:00	8	Radiación solar	4
83401	7	Sololá	717	San Juan la Laguna	12	San Juan la Laguna	10	Octubre	2023-10-15T00:00:00	2024-11-08T19:00:00	2	Temperatura media	18.6
83402	7	Sololá	717	San Juan la Laguna	12	San Juan la Laguna	10	Octubre	2023-10-15T00:00:00	2024-11-08T19:00:00	4	Temperatura máxima	19.4
83403	7	Sololá	717	San Juan la Laguna	12	San Juan la Laguna	10	Octubre	2023-10-15T00:00:00	2024-11-08T19:00:00	3	Temperatura mínima	18.4
83404	7	Sololá	717	San Juan la Laguna	12	San Juan la Laguna	10	Octubre	2023-10-15T00:00:00	2024-11-08T19:00:00	5	Humedad	90
83405	7	Sololá	717	San Juan la Laguna	12	San Juan la Laguna	10	Octubre	2023-10-15T00:00:00	2024-11-08T19:00:00	6	Velocidad del viento	0
83406	7	Sololá	717	San Juan la Laguna	12	San Juan la Laguna	10	Octubre	2023-10-15T00:00:00	2024-11-08T19:00:00	7	Dirección del viento	0
83407	7	Sololá	717	San Juan la Laguna	12	San Juan la Laguna	10	Octubre	2023-10-15T00:00:00	2024-11-08T19:00:00	1	Precipitación	0
83408	7	Sololá	717	San Juan la Laguna	12	San Juan la Laguna	10	Octubre	2023-10-15T00:00:00	2024-11-08T19:00:00	8	Radiación solar	0
83409	7	Sololá	717	San Juan la Laguna	12	San Juan la Laguna	10	Octubre	2023-10-15T00:00:00	2024-11-08T20:00:00	2	Temperatura media	19
83410	7	Sololá	717	San Juan la Laguna	12	San Juan la Laguna	10	Octubre	2023-10-15T00:00:00	2024-11-08T20:00:00	4	Temperatura máxima	19
83411	7	Sololá	717	San Juan la Laguna	12	San Juan la Laguna	10	Octubre	2023-10-15T00:00:00	2024-11-08T20:00:00	3	Temperatura mínima	18.6
83412	7	Sololá	717	San Juan la Laguna	12	San Juan la Laguna	10	Octubre	2023-10-15T00:00:00	2024-11-08T20:00:00	5	Humedad	88
83413	7	Sololá	717	San Juan la Laguna	12	San Juan la Laguna	10	Octubre	2023-10-15T00:00:00	2024-11-08T20:00:00	6	Velocidad del viento	0
83414	7	Sololá	717	San Juan la Laguna	12	San Juan la Laguna	10	Octubre	2023-10-15T00:00:00	2024-11-08T20:00:00	7	Dirección del viento	0
83415	7	Sololá	717	San Juan la Laguna	12	San Juan la Laguna	10	Octubre	2023-10-15T00:00:00	2024-11-08T20:00:00	1	Precipitación	0
83416	7	Sololá	717	San Juan la Laguna	12	San Juan la Laguna	10	Octubre	2023-10-15T00:00:00	2024-11-08T20:00:00	8	Radiación solar	0
83417	7	Sololá	717	San Juan la Laguna	12	San Juan la Laguna	10	Octubre	2023-10-15T00:00:00	2024-11-08T21:00:00	2	Temperatura media	18.4
83418	7	Sololá	717	San Juan la Laguna	12	San Juan la Laguna	10	Octubre	2023-10-15T00:00:00	2024-11-08T21:00:00	4	Temperatura máxima	19.1
83419	7	Sololá	717	San Juan la Laguna	12	San Juan la Laguna	10	Octubre	2023-10-15T00:00:00	2024-11-08T21:00:00	3	Temperatura mínima	18.4
83420	7	Sololá	717	San Juan la Laguna	12	San Juan la Laguna	10	Octubre	2023-10-15T00:00:00	2024-11-08T21:00:00	5	Humedad	90
83421	7	Sololá	717	San Juan la Laguna	12	San Juan la Laguna	10	Octubre	2023-10-15T00:00:00	2024-11-08T21:00:00	6	Velocidad del viento	0
83422	7	Sololá	717	San Juan la Laguna	12	San Juan la Laguna	10	Octubre	2023-10-15T00:00:00	2024-11-08T21:00:00	7	Dirección del viento	0
83423	7	Sololá	717	San Juan la Laguna	12	San Juan la Laguna	10	Octubre	2023-10-15T00:00:00	2024-11-08T21:00:00	1	Precipitación	0.4
83424	7	Sololá	717	San Juan la Laguna	12	San Juan la Laguna	10	Octubre	2023-10-15T00:00:00	2024-11-08T21:00:00	8	Radiación solar	0
83425	7	Sololá	717	San Juan la Laguna	12	San Juan la Laguna	10	Octubre	2023-10-15T00:00:00	2024-11-08T22:00:00	2	Temperatura media	18.6
83426	7	Sololá	717	San Juan la Laguna	12	San Juan la Laguna	10	Octubre	2023-10-15T00:00:00	2024-11-08T22:00:00	4	Temperatura máxima	18.6
83427	7	Sololá	717	San Juan la Laguna	12	San Juan la Laguna	10	Octubre	2023-10-15T00:00:00	2024-11-08T22:00:00	3	Temperatura mínima	18.1
83428	7	Sololá	717	San Juan la Laguna	12	San Juan la Laguna	10	Octubre	2023-10-15T00:00:00	2024-11-08T22:00:00	5	Humedad	89
83429	7	Sololá	717	San Juan la Laguna	12	San Juan la Laguna	10	Octubre	2023-10-15T00:00:00	2024-11-08T22:00:00	6	Velocidad del viento	0
83430	7	Sololá	717	San Juan la Laguna	12	San Juan la Laguna	10	Octubre	2023-10-15T00:00:00	2024-11-08T22:00:00	7	Dirección del viento	0
83431	7	Sololá	717	San Juan la Laguna	12	San Juan la Laguna	10	Octubre	2023-10-15T00:00:00	2024-11-08T22:00:00	1	Precipitación	0
83432	7	Sololá	717	San Juan la Laguna	12	San Juan la Laguna	10	Octubre	2023-10-15T00:00:00	2024-11-08T22:00:00	8	Radiación solar	0
83433	7	Sololá	717	San Juan la Laguna	12	San Juan la Laguna	10	Octubre	2023-10-15T00:00:00	2024-11-08T23:00:00	2	Temperatura media	18.3
83434	7	Sololá	717	San Juan la Laguna	12	San Juan la Laguna	10	Octubre	2023-10-15T00:00:00	2024-11-08T23:00:00	4	Temperatura máxima	18.7
83435	7	Sololá	717	San Juan la Laguna	12	San Juan la Laguna	10	Octubre	2023-10-15T00:00:00	2024-11-08T23:00:00	3	Temperatura mínima	18.3
83436	7	Sololá	717	San Juan la Laguna	12	San Juan la Laguna	10	Octubre	2023-10-15T00:00:00	2024-11-08T23:00:00	5	Humedad	90
83437	7	Sololá	717	San Juan la Laguna	12	San Juan la Laguna	10	Octubre	2023-10-15T00:00:00	2024-11-08T23:00:00	6	Velocidad del viento	0
83438	7	Sololá	717	San Juan la Laguna	12	San Juan la Laguna	10	Octubre	2023-10-15T00:00:00	2024-11-08T23:00:00	7	Dirección del viento	0
83439	7	Sololá	717	San Juan la Laguna	12	San Juan la Laguna	10	Octubre	2023-10-15T00:00:00	2024-11-08T23:00:00	1	Precipitación	5
83440	7	Sololá	717	San Juan la Laguna	12	San Juan la Laguna	10	Octubre	2023-10-15T00:00:00	2024-11-08T23:00:00	8	Radiación solar	0
83441	7	Sololá	717	San Juan la Laguna	12	San Juan la Laguna	10	Octubre	2023-10-16T00:00:00	2024-11-08T00:00:00	2	Temperatura media	17.2
83442	7	Sololá	717	San Juan la Laguna	12	San Juan la Laguna	10	Octubre	2023-10-16T00:00:00	2024-11-08T00:00:00	4	Temperatura máxima	18.3
83443	7	Sololá	717	San Juan la Laguna	12	San Juan la Laguna	10	Octubre	2023-10-16T00:00:00	2024-11-08T00:00:00	3	Temperatura mínima	17.1
83444	7	Sololá	717	San Juan la Laguna	12	San Juan la Laguna	10	Octubre	2023-10-16T00:00:00	2024-11-08T00:00:00	5	Humedad	91
83445	7	Sololá	717	San Juan la Laguna	12	San Juan la Laguna	10	Octubre	2023-10-16T00:00:00	2024-11-08T00:00:00	6	Velocidad del viento	0
83446	7	Sololá	717	San Juan la Laguna	12	San Juan la Laguna	10	Octubre	2023-10-16T00:00:00	2024-11-08T00:00:00	7	Dirección del viento	0
83447	7	Sololá	717	San Juan la Laguna	12	San Juan la Laguna	10	Octubre	2023-10-16T00:00:00	2024-11-08T00:00:00	1	Precipitación	4.4
83448	7	Sololá	717	San Juan la Laguna	12	San Juan la Laguna	10	Octubre	2023-10-16T00:00:00	2024-11-08T00:00:00	8	Radiación solar	0
83449	7	Sololá	717	San Juan la Laguna	12	San Juan la Laguna	10	Octubre	2023-10-16T00:00:00	2024-11-08T01:00:00	2	Temperatura media	16.6
83450	7	Sololá	717	San Juan la Laguna	12	San Juan la Laguna	10	Octubre	2023-10-16T00:00:00	2024-11-08T01:00:00	4	Temperatura máxima	17.2
83451	7	Sololá	717	San Juan la Laguna	12	San Juan la Laguna	10	Octubre	2023-10-16T00:00:00	2024-11-08T01:00:00	3	Temperatura mínima	16.6
83452	7	Sololá	717	San Juan la Laguna	12	San Juan la Laguna	10	Octubre	2023-10-16T00:00:00	2024-11-08T01:00:00	5	Humedad	91
83453	7	Sololá	717	San Juan la Laguna	12	San Juan la Laguna	10	Octubre	2023-10-16T00:00:00	2024-11-08T01:00:00	6	Velocidad del viento	0
83454	7	Sololá	717	San Juan la Laguna	12	San Juan la Laguna	10	Octubre	2023-10-16T00:00:00	2024-11-08T01:00:00	7	Dirección del viento	0
83455	7	Sololá	717	San Juan la Laguna	12	San Juan la Laguna	10	Octubre	2023-10-16T00:00:00	2024-11-08T01:00:00	1	Precipitación	0.2
83456	7	Sololá	717	San Juan la Laguna	12	San Juan la Laguna	10	Octubre	2023-10-16T00:00:00	2024-11-08T01:00:00	8	Radiación solar	0
83457	7	Sololá	717	San Juan la Laguna	12	San Juan la Laguna	10	Octubre	2023-10-16T00:00:00	2024-11-08T02:00:00	2	Temperatura media	16.2
83458	7	Sololá	717	San Juan la Laguna	12	San Juan la Laguna	10	Octubre	2023-10-16T00:00:00	2024-11-08T02:00:00	4	Temperatura máxima	16.7
83459	7	Sololá	717	San Juan la Laguna	12	San Juan la Laguna	10	Octubre	2023-10-16T00:00:00	2024-11-08T02:00:00	3	Temperatura mínima	16.2
83460	7	Sololá	717	San Juan la Laguna	12	San Juan la Laguna	10	Octubre	2023-10-16T00:00:00	2024-11-08T02:00:00	5	Humedad	91
83461	7	Sololá	717	San Juan la Laguna	12	San Juan la Laguna	10	Octubre	2023-10-16T00:00:00	2024-11-08T02:00:00	6	Velocidad del viento	0
83462	7	Sololá	717	San Juan la Laguna	12	San Juan la Laguna	10	Octubre	2023-10-16T00:00:00	2024-11-08T02:00:00	7	Dirección del viento	0
83463	7	Sololá	717	San Juan la Laguna	12	San Juan la Laguna	10	Octubre	2023-10-16T00:00:00	2024-11-08T02:00:00	1	Precipitación	0
83464	7	Sololá	717	San Juan la Laguna	12	San Juan la Laguna	10	Octubre	2023-10-16T00:00:00	2024-11-08T02:00:00	8	Radiación solar	0
83465	7	Sololá	717	San Juan la Laguna	12	San Juan la Laguna	10	Octubre	2023-10-16T00:00:00	2024-11-08T03:00:00	2	Temperatura media	15.9
83466	7	Sololá	717	San Juan la Laguna	12	San Juan la Laguna	10	Octubre	2023-10-16T00:00:00	2024-11-08T03:00:00	4	Temperatura máxima	16.6
83467	7	Sololá	717	San Juan la Laguna	12	San Juan la Laguna	10	Octubre	2023-10-16T00:00:00	2024-11-08T03:00:00	3	Temperatura mínima	15.9
83468	7	Sololá	717	San Juan la Laguna	12	San Juan la Laguna	10	Octubre	2023-10-16T00:00:00	2024-11-08T03:00:00	5	Humedad	91
83469	7	Sololá	717	San Juan la Laguna	12	San Juan la Laguna	10	Octubre	2023-10-16T00:00:00	2024-11-08T03:00:00	6	Velocidad del viento	0
83470	7	Sololá	717	San Juan la Laguna	12	San Juan la Laguna	10	Octubre	2023-10-16T00:00:00	2024-11-08T03:00:00	7	Dirección del viento	0
83471	7	Sololá	717	San Juan la Laguna	12	San Juan la Laguna	10	Octubre	2023-10-16T00:00:00	2024-11-08T03:00:00	1	Precipitación	0
83472	7	Sololá	717	San Juan la Laguna	12	San Juan la Laguna	10	Octubre	2023-10-16T00:00:00	2024-11-08T03:00:00	8	Radiación solar	0
83473	7	Sololá	717	San Juan la Laguna	12	San Juan la Laguna	10	Octubre	2023-10-16T00:00:00	2024-11-08T04:00:00	2	Temperatura media	15.4
83474	7	Sololá	717	San Juan la Laguna	12	San Juan la Laguna	10	Octubre	2023-10-16T00:00:00	2024-11-08T04:00:00	4	Temperatura máxima	15.9
83475	7	Sololá	717	San Juan la Laguna	12	San Juan la Laguna	10	Octubre	2023-10-16T00:00:00	2024-11-08T04:00:00	3	Temperatura mínima	15.4
83476	7	Sololá	717	San Juan la Laguna	12	San Juan la Laguna	10	Octubre	2023-10-16T00:00:00	2024-11-08T04:00:00	5	Humedad	90
83477	7	Sololá	717	San Juan la Laguna	12	San Juan la Laguna	10	Octubre	2023-10-16T00:00:00	2024-11-08T04:00:00	6	Velocidad del viento	0
83478	7	Sololá	717	San Juan la Laguna	12	San Juan la Laguna	10	Octubre	2023-10-16T00:00:00	2024-11-08T04:00:00	7	Dirección del viento	0
83479	7	Sololá	717	San Juan la Laguna	12	San Juan la Laguna	10	Octubre	2023-10-16T00:00:00	2024-11-08T04:00:00	1	Precipitación	0
83480	7	Sololá	717	San Juan la Laguna	12	San Juan la Laguna	10	Octubre	2023-10-16T00:00:00	2024-11-08T04:00:00	8	Radiación solar	0
83481	7	Sololá	717	San Juan la Laguna	12	San Juan la Laguna	10	Octubre	2023-10-16T00:00:00	2024-11-08T05:00:00	2	Temperatura media	15.3
83482	7	Sololá	717	San Juan la Laguna	12	San Juan la Laguna	10	Octubre	2023-10-16T00:00:00	2024-11-08T05:00:00	4	Temperatura máxima	15.6
83483	7	Sololá	717	San Juan la Laguna	12	San Juan la Laguna	10	Octubre	2023-10-16T00:00:00	2024-11-08T05:00:00	3	Temperatura mínima	15.3
83484	7	Sololá	717	San Juan la Laguna	12	San Juan la Laguna	10	Octubre	2023-10-16T00:00:00	2024-11-08T05:00:00	5	Humedad	90
83485	7	Sololá	717	San Juan la Laguna	12	San Juan la Laguna	10	Octubre	2023-10-16T00:00:00	2024-11-08T05:00:00	6	Velocidad del viento	0
83486	7	Sololá	717	San Juan la Laguna	12	San Juan la Laguna	10	Octubre	2023-10-16T00:00:00	2024-11-08T05:00:00	7	Dirección del viento	0
83487	7	Sololá	717	San Juan la Laguna	12	San Juan la Laguna	10	Octubre	2023-10-16T00:00:00	2024-11-08T05:00:00	1	Precipitación	0
83488	7	Sololá	717	San Juan la Laguna	12	San Juan la Laguna	10	Octubre	2023-10-16T00:00:00	2024-11-08T05:00:00	8	Radiación solar	0
83489	7	Sololá	717	San Juan la Laguna	12	San Juan la Laguna	10	Octubre	2023-10-16T00:00:00	2024-11-08T06:00:00	2	Temperatura media	15.2
83490	7	Sololá	717	San Juan la Laguna	12	San Juan la Laguna	10	Octubre	2023-10-16T00:00:00	2024-11-08T06:00:00	4	Temperatura máxima	15.3
83491	7	Sololá	717	San Juan la Laguna	12	San Juan la Laguna	10	Octubre	2023-10-16T00:00:00	2024-11-08T06:00:00	3	Temperatura mínima	15.1
83492	7	Sololá	717	San Juan la Laguna	12	San Juan la Laguna	10	Octubre	2023-10-16T00:00:00	2024-11-08T06:00:00	5	Humedad	89
83493	7	Sololá	717	San Juan la Laguna	12	San Juan la Laguna	10	Octubre	2023-10-16T00:00:00	2024-11-08T06:00:00	6	Velocidad del viento	0
83494	7	Sololá	717	San Juan la Laguna	12	San Juan la Laguna	10	Octubre	2023-10-16T00:00:00	2024-11-08T06:00:00	7	Dirección del viento	0
83495	7	Sololá	717	San Juan la Laguna	12	San Juan la Laguna	10	Octubre	2023-10-16T00:00:00	2024-11-08T06:00:00	1	Precipitación	0
83496	7	Sololá	717	San Juan la Laguna	12	San Juan la Laguna	10	Octubre	2023-10-16T00:00:00	2024-11-08T06:00:00	8	Radiación solar	0
83497	7	Sololá	717	San Juan la Laguna	12	San Juan la Laguna	10	Octubre	2023-10-16T00:00:00	2024-11-08T07:00:00	2	Temperatura media	16
83498	7	Sololá	717	San Juan la Laguna	12	San Juan la Laguna	10	Octubre	2023-10-16T00:00:00	2024-11-08T07:00:00	4	Temperatura máxima	16
83499	7	Sololá	717	San Juan la Laguna	12	San Juan la Laguna	10	Octubre	2023-10-16T00:00:00	2024-11-08T07:00:00	3	Temperatura mínima	15.2
83500	7	Sololá	717	San Juan la Laguna	12	San Juan la Laguna	10	Octubre	2023-10-16T00:00:00	2024-11-08T07:00:00	5	Humedad	87
83501	7	Sololá	717	San Juan la Laguna	12	San Juan la Laguna	10	Octubre	2023-10-16T00:00:00	2024-11-08T07:00:00	6	Velocidad del viento	0
83502	7	Sololá	717	San Juan la Laguna	12	San Juan la Laguna	10	Octubre	2023-10-16T00:00:00	2024-11-08T07:00:00	7	Dirección del viento	0
83503	7	Sololá	717	San Juan la Laguna	12	San Juan la Laguna	10	Octubre	2023-10-16T00:00:00	2024-11-08T07:00:00	1	Precipitación	0
83504	7	Sololá	717	San Juan la Laguna	12	San Juan la Laguna	10	Octubre	2023-10-16T00:00:00	2024-11-08T07:00:00	8	Radiación solar	47
83505	7	Sololá	717	San Juan la Laguna	12	San Juan la Laguna	10	Octubre	2023-10-16T00:00:00	2024-11-08T08:00:00	2	Temperatura media	18.3
83506	7	Sololá	717	San Juan la Laguna	12	San Juan la Laguna	10	Octubre	2023-10-16T00:00:00	2024-11-08T08:00:00	4	Temperatura máxima	18.3
83507	7	Sololá	717	San Juan la Laguna	12	San Juan la Laguna	10	Octubre	2023-10-16T00:00:00	2024-11-08T08:00:00	3	Temperatura mínima	16
83508	7	Sololá	717	San Juan la Laguna	12	San Juan la Laguna	10	Octubre	2023-10-16T00:00:00	2024-11-08T08:00:00	5	Humedad	82
83509	7	Sololá	717	San Juan la Laguna	12	San Juan la Laguna	10	Octubre	2023-10-16T00:00:00	2024-11-08T08:00:00	6	Velocidad del viento	0
83510	7	Sololá	717	San Juan la Laguna	12	San Juan la Laguna	10	Octubre	2023-10-16T00:00:00	2024-11-08T08:00:00	7	Dirección del viento	0
83511	7	Sololá	717	San Juan la Laguna	12	San Juan la Laguna	10	Octubre	2023-10-16T00:00:00	2024-11-08T08:00:00	1	Precipitación	0
83512	7	Sololá	717	San Juan la Laguna	12	San Juan la Laguna	10	Octubre	2023-10-16T00:00:00	2024-11-08T08:00:00	8	Radiación solar	187
83513	7	Sololá	717	San Juan la Laguna	12	San Juan la Laguna	10	Octubre	2023-10-16T00:00:00	2024-11-08T09:00:00	2	Temperatura media	22.3
83514	7	Sololá	717	San Juan la Laguna	12	San Juan la Laguna	10	Octubre	2023-10-16T00:00:00	2024-11-08T09:00:00	4	Temperatura máxima	22.7
83515	7	Sololá	717	San Juan la Laguna	12	San Juan la Laguna	10	Octubre	2023-10-16T00:00:00	2024-11-08T09:00:00	3	Temperatura mínima	18.3
83516	7	Sololá	717	San Juan la Laguna	12	San Juan la Laguna	10	Octubre	2023-10-16T00:00:00	2024-11-08T09:00:00	5	Humedad	67
83517	7	Sololá	717	San Juan la Laguna	12	San Juan la Laguna	10	Octubre	2023-10-16T00:00:00	2024-11-08T09:00:00	6	Velocidad del viento	0
83518	7	Sololá	717	San Juan la Laguna	12	San Juan la Laguna	10	Octubre	2023-10-16T00:00:00	2024-11-08T09:00:00	7	Dirección del viento	0
83519	7	Sololá	717	San Juan la Laguna	12	San Juan la Laguna	10	Octubre	2023-10-16T00:00:00	2024-11-08T09:00:00	1	Precipitación	0
83520	7	Sololá	717	San Juan la Laguna	12	San Juan la Laguna	10	Octubre	2023-10-16T00:00:00	2024-11-08T09:00:00	8	Radiación solar	456
83521	7	Sololá	717	San Juan la Laguna	12	San Juan la Laguna	10	Octubre	2023-10-16T00:00:00	2024-11-08T10:00:00	2	Temperatura media	22.2
83522	7	Sololá	717	San Juan la Laguna	12	San Juan la Laguna	10	Octubre	2023-10-16T00:00:00	2024-11-08T10:00:00	4	Temperatura máxima	22.8
83523	7	Sololá	717	San Juan la Laguna	12	San Juan la Laguna	10	Octubre	2023-10-16T00:00:00	2024-11-08T10:00:00	3	Temperatura mínima	21.7
83524	7	Sololá	717	San Juan la Laguna	12	San Juan la Laguna	10	Octubre	2023-10-16T00:00:00	2024-11-08T10:00:00	5	Humedad	67
83525	7	Sololá	717	San Juan la Laguna	12	San Juan la Laguna	10	Octubre	2023-10-16T00:00:00	2024-11-08T10:00:00	6	Velocidad del viento	0
83526	7	Sololá	717	San Juan la Laguna	12	San Juan la Laguna	10	Octubre	2023-10-16T00:00:00	2024-11-08T10:00:00	7	Dirección del viento	0
83527	7	Sololá	717	San Juan la Laguna	12	San Juan la Laguna	10	Octubre	2023-10-16T00:00:00	2024-11-08T10:00:00	1	Precipitación	0
83528	7	Sololá	717	San Juan la Laguna	12	San Juan la Laguna	10	Octubre	2023-10-16T00:00:00	2024-11-08T10:00:00	8	Radiación solar	487
83529	7	Sololá	717	San Juan la Laguna	12	San Juan la Laguna	10	Octubre	2023-10-16T00:00:00	2024-11-08T11:00:00	2	Temperatura media	24.6
83530	7	Sololá	717	San Juan la Laguna	12	San Juan la Laguna	10	Octubre	2023-10-16T00:00:00	2024-11-08T11:00:00	4	Temperatura máxima	24.6
83531	7	Sololá	717	San Juan la Laguna	12	San Juan la Laguna	10	Octubre	2023-10-16T00:00:00	2024-11-08T11:00:00	3	Temperatura mínima	21.8
83532	7	Sololá	717	San Juan la Laguna	12	San Juan la Laguna	10	Octubre	2023-10-16T00:00:00	2024-11-08T11:00:00	5	Humedad	59
83533	7	Sololá	717	San Juan la Laguna	12	San Juan la Laguna	10	Octubre	2023-10-16T00:00:00	2024-11-08T11:00:00	6	Velocidad del viento	0
83534	7	Sololá	717	San Juan la Laguna	12	San Juan la Laguna	10	Octubre	2023-10-16T00:00:00	2024-11-08T11:00:00	7	Dirección del viento	0
83535	7	Sololá	717	San Juan la Laguna	12	San Juan la Laguna	10	Octubre	2023-10-16T00:00:00	2024-11-08T11:00:00	1	Precipitación	0
83536	7	Sololá	717	San Juan la Laguna	12	San Juan la Laguna	10	Octubre	2023-10-16T00:00:00	2024-11-08T11:00:00	8	Radiación solar	580
83537	7	Sololá	717	San Juan la Laguna	12	San Juan la Laguna	10	Octubre	2023-10-16T00:00:00	2024-11-08T12:00:00	2	Temperatura media	24.2
83538	7	Sololá	717	San Juan la Laguna	12	San Juan la Laguna	10	Octubre	2023-10-16T00:00:00	2024-11-08T12:00:00	4	Temperatura máxima	24.9
83539	7	Sololá	717	San Juan la Laguna	12	San Juan la Laguna	10	Octubre	2023-10-16T00:00:00	2024-11-08T12:00:00	3	Temperatura mínima	24
83540	7	Sololá	717	San Juan la Laguna	12	San Juan la Laguna	10	Octubre	2023-10-16T00:00:00	2024-11-08T12:00:00	5	Humedad	59
83541	7	Sololá	717	San Juan la Laguna	12	San Juan la Laguna	10	Octubre	2023-10-16T00:00:00	2024-11-08T12:00:00	6	Velocidad del viento	0
83542	7	Sololá	717	San Juan la Laguna	12	San Juan la Laguna	10	Octubre	2023-10-16T00:00:00	2024-11-08T12:00:00	7	Dirección del viento	0
83543	7	Sololá	717	San Juan la Laguna	12	San Juan la Laguna	10	Octubre	2023-10-16T00:00:00	2024-11-08T12:00:00	1	Precipitación	0
83544	7	Sololá	717	San Juan la Laguna	12	San Juan la Laguna	10	Octubre	2023-10-16T00:00:00	2024-11-08T12:00:00	8	Radiación solar	546
83545	7	Sololá	717	San Juan la Laguna	12	San Juan la Laguna	10	Octubre	2023-10-16T00:00:00	2024-11-08T13:00:00	2	Temperatura media	24.2
83546	7	Sololá	717	San Juan la Laguna	12	San Juan la Laguna	10	Octubre	2023-10-16T00:00:00	2024-11-08T13:00:00	4	Temperatura máxima	24.8
83547	7	Sololá	717	San Juan la Laguna	12	San Juan la Laguna	10	Octubre	2023-10-16T00:00:00	2024-11-08T13:00:00	3	Temperatura mínima	24
83548	7	Sololá	717	San Juan la Laguna	12	San Juan la Laguna	10	Octubre	2023-10-16T00:00:00	2024-11-08T13:00:00	5	Humedad	63
83549	7	Sololá	717	San Juan la Laguna	12	San Juan la Laguna	10	Octubre	2023-10-16T00:00:00	2024-11-08T13:00:00	6	Velocidad del viento	0
83550	7	Sololá	717	San Juan la Laguna	12	San Juan la Laguna	10	Octubre	2023-10-16T00:00:00	2024-11-08T13:00:00	7	Dirección del viento	0
83551	7	Sololá	717	San Juan la Laguna	12	San Juan la Laguna	10	Octubre	2023-10-16T00:00:00	2024-11-08T13:00:00	1	Precipitación	0
83552	7	Sololá	717	San Juan la Laguna	12	San Juan la Laguna	10	Octubre	2023-10-16T00:00:00	2024-11-08T13:00:00	8	Radiación solar	415
83553	7	Sololá	717	San Juan la Laguna	12	San Juan la Laguna	10	Octubre	2023-10-16T00:00:00	2024-11-08T14:00:00	2	Temperatura media	24.3
83554	7	Sololá	717	San Juan la Laguna	12	San Juan la Laguna	10	Octubre	2023-10-16T00:00:00	2024-11-08T14:00:00	4	Temperatura máxima	24.6
83555	7	Sololá	717	San Juan la Laguna	12	San Juan la Laguna	10	Octubre	2023-10-16T00:00:00	2024-11-08T14:00:00	3	Temperatura mínima	23.4
83556	7	Sololá	717	San Juan la Laguna	12	San Juan la Laguna	10	Octubre	2023-10-16T00:00:00	2024-11-08T14:00:00	5	Humedad	63
83557	7	Sololá	717	San Juan la Laguna	12	San Juan la Laguna	10	Octubre	2023-10-16T00:00:00	2024-11-08T14:00:00	6	Velocidad del viento	0
83558	7	Sololá	717	San Juan la Laguna	12	San Juan la Laguna	10	Octubre	2023-10-16T00:00:00	2024-11-08T14:00:00	7	Dirección del viento	0
83559	7	Sololá	717	San Juan la Laguna	12	San Juan la Laguna	10	Octubre	2023-10-16T00:00:00	2024-11-08T14:00:00	1	Precipitación	0
83560	7	Sololá	717	San Juan la Laguna	12	San Juan la Laguna	10	Octubre	2023-10-16T00:00:00	2024-11-08T14:00:00	8	Radiación solar	636
83561	7	Sololá	717	San Juan la Laguna	12	San Juan la Laguna	10	Octubre	2023-10-16T00:00:00	2024-11-08T15:00:00	2	Temperatura media	21.6
83562	7	Sololá	717	San Juan la Laguna	12	San Juan la Laguna	10	Octubre	2023-10-16T00:00:00	2024-11-08T15:00:00	4	Temperatura máxima	24.4
83563	7	Sololá	717	San Juan la Laguna	12	San Juan la Laguna	10	Octubre	2023-10-16T00:00:00	2024-11-08T15:00:00	3	Temperatura mínima	21.4
83564	7	Sololá	717	San Juan la Laguna	12	San Juan la Laguna	10	Octubre	2023-10-16T00:00:00	2024-11-08T15:00:00	5	Humedad	78
83565	7	Sololá	717	San Juan la Laguna	12	San Juan la Laguna	10	Octubre	2023-10-16T00:00:00	2024-11-08T15:00:00	6	Velocidad del viento	1.6
83566	7	Sololá	717	San Juan la Laguna	12	San Juan la Laguna	10	Octubre	2023-10-16T00:00:00	2024-11-08T15:00:00	7	Dirección del viento	1.61
83567	7	Sololá	717	San Juan la Laguna	12	San Juan la Laguna	10	Octubre	2023-10-16T00:00:00	2024-11-08T15:00:00	1	Precipitación	0
83568	7	Sololá	717	San Juan la Laguna	12	San Juan la Laguna	10	Octubre	2023-10-16T00:00:00	2024-11-08T15:00:00	8	Radiación solar	327
83569	7	Sololá	717	San Juan la Laguna	12	San Juan la Laguna	10	Octubre	2023-10-16T00:00:00	2024-11-08T16:00:00	2	Temperatura media	21.1
83570	7	Sololá	717	San Juan la Laguna	12	San Juan la Laguna	10	Octubre	2023-10-16T00:00:00	2024-11-08T16:00:00	4	Temperatura máxima	21.9
83571	7	Sololá	717	San Juan la Laguna	12	San Juan la Laguna	10	Octubre	2023-10-16T00:00:00	2024-11-08T16:00:00	3	Temperatura mínima	20.8
83572	7	Sololá	717	San Juan la Laguna	12	San Juan la Laguna	10	Octubre	2023-10-16T00:00:00	2024-11-08T16:00:00	5	Humedad	79
83573	7	Sololá	717	San Juan la Laguna	12	San Juan la Laguna	10	Octubre	2023-10-16T00:00:00	2024-11-08T16:00:00	6	Velocidad del viento	3.2
83574	7	Sololá	717	San Juan la Laguna	12	San Juan la Laguna	10	Octubre	2023-10-16T00:00:00	2024-11-08T16:00:00	7	Dirección del viento	3.22
83575	7	Sololá	717	San Juan la Laguna	12	San Juan la Laguna	10	Octubre	2023-10-16T00:00:00	2024-11-08T16:00:00	1	Precipitación	0
83576	7	Sololá	717	San Juan la Laguna	12	San Juan la Laguna	10	Octubre	2023-10-16T00:00:00	2024-11-08T16:00:00	8	Radiación solar	202
83577	7	Sololá	717	San Juan la Laguna	12	San Juan la Laguna	10	Octubre	2023-10-16T00:00:00	2024-11-08T17:00:00	2	Temperatura media	20.3
83578	7	Sololá	717	San Juan la Laguna	12	San Juan la Laguna	10	Octubre	2023-10-16T00:00:00	2024-11-08T17:00:00	4	Temperatura máxima	21.1
83579	7	Sololá	717	San Juan la Laguna	12	San Juan la Laguna	10	Octubre	2023-10-16T00:00:00	2024-11-08T17:00:00	3	Temperatura mínima	20.3
83580	7	Sololá	717	San Juan la Laguna	12	San Juan la Laguna	10	Octubre	2023-10-16T00:00:00	2024-11-08T17:00:00	5	Humedad	82
83581	7	Sololá	717	San Juan la Laguna	12	San Juan la Laguna	10	Octubre	2023-10-16T00:00:00	2024-11-08T17:00:00	6	Velocidad del viento	0
83582	7	Sololá	717	San Juan la Laguna	12	San Juan la Laguna	10	Octubre	2023-10-16T00:00:00	2024-11-08T17:00:00	7	Dirección del viento	0
83583	7	Sololá	717	San Juan la Laguna	12	San Juan la Laguna	10	Octubre	2023-10-16T00:00:00	2024-11-08T17:00:00	1	Precipitación	0
83584	7	Sololá	717	San Juan la Laguna	12	San Juan la Laguna	10	Octubre	2023-10-16T00:00:00	2024-11-08T17:00:00	8	Radiación solar	46
83585	7	Sololá	717	San Juan la Laguna	12	San Juan la Laguna	10	Octubre	2023-10-16T00:00:00	2024-11-08T18:00:00	2	Temperatura media	19.3
83586	7	Sololá	717	San Juan la Laguna	12	San Juan la Laguna	10	Octubre	2023-10-16T00:00:00	2024-11-08T18:00:00	4	Temperatura máxima	20.3
83587	7	Sololá	717	San Juan la Laguna	12	San Juan la Laguna	10	Octubre	2023-10-16T00:00:00	2024-11-08T18:00:00	3	Temperatura mínima	19.3
83588	7	Sololá	717	San Juan la Laguna	12	San Juan la Laguna	10	Octubre	2023-10-16T00:00:00	2024-11-08T18:00:00	5	Humedad	85
83589	7	Sololá	717	San Juan la Laguna	12	San Juan la Laguna	10	Octubre	2023-10-16T00:00:00	2024-11-08T18:00:00	6	Velocidad del viento	0
83590	7	Sololá	717	San Juan la Laguna	12	San Juan la Laguna	10	Octubre	2023-10-16T00:00:00	2024-11-08T18:00:00	7	Dirección del viento	0
83591	7	Sololá	717	San Juan la Laguna	12	San Juan la Laguna	10	Octubre	2023-10-16T00:00:00	2024-11-08T18:00:00	1	Precipitación	0
83592	7	Sololá	717	San Juan la Laguna	12	San Juan la Laguna	10	Octubre	2023-10-16T00:00:00	2024-11-08T18:00:00	8	Radiación solar	7
83593	7	Sololá	717	San Juan la Laguna	12	San Juan la Laguna	10	Octubre	2023-10-16T00:00:00	2024-11-08T19:00:00	2	Temperatura media	18.9
83594	7	Sololá	717	San Juan la Laguna	12	San Juan la Laguna	10	Octubre	2023-10-16T00:00:00	2024-11-08T19:00:00	4	Temperatura máxima	19.3
83595	7	Sololá	717	San Juan la Laguna	12	San Juan la Laguna	10	Octubre	2023-10-16T00:00:00	2024-11-08T19:00:00	3	Temperatura mínima	18.9
83596	7	Sololá	717	San Juan la Laguna	12	San Juan la Laguna	10	Octubre	2023-10-16T00:00:00	2024-11-08T19:00:00	5	Humedad	83
83597	7	Sololá	717	San Juan la Laguna	12	San Juan la Laguna	10	Octubre	2023-10-16T00:00:00	2024-11-08T19:00:00	6	Velocidad del viento	0
83598	7	Sololá	717	San Juan la Laguna	12	San Juan la Laguna	10	Octubre	2023-10-16T00:00:00	2024-11-08T19:00:00	7	Dirección del viento	0
83599	7	Sololá	717	San Juan la Laguna	12	San Juan la Laguna	10	Octubre	2023-10-16T00:00:00	2024-11-08T19:00:00	1	Precipitación	0
83600	7	Sololá	717	San Juan la Laguna	12	San Juan la Laguna	10	Octubre	2023-10-16T00:00:00	2024-11-08T19:00:00	8	Radiación solar	0
83601	7	Sololá	717	San Juan la Laguna	12	San Juan la Laguna	10	Octubre	2023-10-16T00:00:00	2024-11-08T20:00:00	2	Temperatura media	19.6
83602	7	Sololá	717	San Juan la Laguna	12	San Juan la Laguna	10	Octubre	2023-10-16T00:00:00	2024-11-08T20:00:00	4	Temperatura máxima	19.7
83603	7	Sololá	717	San Juan la Laguna	12	San Juan la Laguna	10	Octubre	2023-10-16T00:00:00	2024-11-08T20:00:00	3	Temperatura mínima	18.8
83604	7	Sololá	717	San Juan la Laguna	12	San Juan la Laguna	10	Octubre	2023-10-16T00:00:00	2024-11-08T20:00:00	5	Humedad	79
83605	7	Sololá	717	San Juan la Laguna	12	San Juan la Laguna	10	Octubre	2023-10-16T00:00:00	2024-11-08T20:00:00	6	Velocidad del viento	0
83606	7	Sololá	717	San Juan la Laguna	12	San Juan la Laguna	10	Octubre	2023-10-16T00:00:00	2024-11-08T20:00:00	7	Dirección del viento	0
83607	7	Sololá	717	San Juan la Laguna	12	San Juan la Laguna	10	Octubre	2023-10-16T00:00:00	2024-11-08T20:00:00	1	Precipitación	0
83608	7	Sololá	717	San Juan la Laguna	12	San Juan la Laguna	10	Octubre	2023-10-16T00:00:00	2024-11-08T20:00:00	8	Radiación solar	0
83609	7	Sololá	717	San Juan la Laguna	12	San Juan la Laguna	10	Octubre	2023-10-16T00:00:00	2024-11-08T21:00:00	2	Temperatura media	18.7
83610	7	Sololá	717	San Juan la Laguna	12	San Juan la Laguna	10	Octubre	2023-10-16T00:00:00	2024-11-08T21:00:00	4	Temperatura máxima	19.5
83611	7	Sololá	717	San Juan la Laguna	12	San Juan la Laguna	10	Octubre	2023-10-16T00:00:00	2024-11-08T21:00:00	3	Temperatura mínima	18.6
83612	7	Sololá	717	San Juan la Laguna	12	San Juan la Laguna	10	Octubre	2023-10-16T00:00:00	2024-11-08T21:00:00	5	Humedad	80
83613	7	Sololá	717	San Juan la Laguna	12	San Juan la Laguna	10	Octubre	2023-10-16T00:00:00	2024-11-08T21:00:00	6	Velocidad del viento	0
83614	7	Sololá	717	San Juan la Laguna	12	San Juan la Laguna	10	Octubre	2023-10-16T00:00:00	2024-11-08T21:00:00	7	Dirección del viento	0
83615	7	Sololá	717	San Juan la Laguna	12	San Juan la Laguna	10	Octubre	2023-10-16T00:00:00	2024-11-08T21:00:00	1	Precipitación	0
83616	7	Sololá	717	San Juan la Laguna	12	San Juan la Laguna	10	Octubre	2023-10-16T00:00:00	2024-11-08T21:00:00	8	Radiación solar	0
83617	7	Sololá	717	San Juan la Laguna	12	San Juan la Laguna	10	Octubre	2023-10-16T00:00:00	2024-11-08T22:00:00	2	Temperatura media	17.9
83618	7	Sololá	717	San Juan la Laguna	12	San Juan la Laguna	10	Octubre	2023-10-16T00:00:00	2024-11-08T22:00:00	4	Temperatura máxima	18.7
83619	7	Sololá	717	San Juan la Laguna	12	San Juan la Laguna	10	Octubre	2023-10-16T00:00:00	2024-11-08T22:00:00	3	Temperatura mínima	17.8
83620	7	Sololá	717	San Juan la Laguna	12	San Juan la Laguna	10	Octubre	2023-10-16T00:00:00	2024-11-08T22:00:00	5	Humedad	83
83621	7	Sololá	717	San Juan la Laguna	12	San Juan la Laguna	10	Octubre	2023-10-16T00:00:00	2024-11-08T22:00:00	6	Velocidad del viento	0
83622	7	Sololá	717	San Juan la Laguna	12	San Juan la Laguna	10	Octubre	2023-10-16T00:00:00	2024-11-08T22:00:00	7	Dirección del viento	0
83623	7	Sololá	717	San Juan la Laguna	12	San Juan la Laguna	10	Octubre	2023-10-16T00:00:00	2024-11-08T22:00:00	1	Precipitación	0
83624	7	Sololá	717	San Juan la Laguna	12	San Juan la Laguna	10	Octubre	2023-10-16T00:00:00	2024-11-08T22:00:00	8	Radiación solar	0
83625	7	Sololá	717	San Juan la Laguna	12	San Juan la Laguna	10	Octubre	2023-10-16T00:00:00	2024-11-08T23:00:00	2	Temperatura media	19.2
83626	7	Sololá	717	San Juan la Laguna	12	San Juan la Laguna	10	Octubre	2023-10-16T00:00:00	2024-11-08T23:00:00	4	Temperatura máxima	19.2
83627	7	Sololá	717	San Juan la Laguna	12	San Juan la Laguna	10	Octubre	2023-10-16T00:00:00	2024-11-08T23:00:00	3	Temperatura mínima	17.8
83628	7	Sololá	717	San Juan la Laguna	12	San Juan la Laguna	10	Octubre	2023-10-16T00:00:00	2024-11-08T23:00:00	5	Humedad	75
83629	7	Sololá	717	San Juan la Laguna	12	San Juan la Laguna	10	Octubre	2023-10-16T00:00:00	2024-11-08T23:00:00	6	Velocidad del viento	0
83630	7	Sololá	717	San Juan la Laguna	12	San Juan la Laguna	10	Octubre	2023-10-16T00:00:00	2024-11-08T23:00:00	7	Dirección del viento	0
83631	7	Sololá	717	San Juan la Laguna	12	San Juan la Laguna	10	Octubre	2023-10-16T00:00:00	2024-11-08T23:00:00	1	Precipitación	0
83632	7	Sololá	717	San Juan la Laguna	12	San Juan la Laguna	10	Octubre	2023-10-16T00:00:00	2024-11-08T23:00:00	8	Radiación solar	0
83633	7	Sololá	717	San Juan la Laguna	12	San Juan la Laguna	10	Octubre	2023-10-17T00:00:00	2024-11-08T00:00:00	2	Temperatura media	18.9
83634	7	Sololá	717	San Juan la Laguna	12	San Juan la Laguna	10	Octubre	2023-10-17T00:00:00	2024-11-08T00:00:00	4	Temperatura máxima	19.7
83635	7	Sololá	717	San Juan la Laguna	12	San Juan la Laguna	10	Octubre	2023-10-17T00:00:00	2024-11-08T00:00:00	3	Temperatura mínima	18.9
83636	7	Sololá	717	San Juan la Laguna	12	San Juan la Laguna	10	Octubre	2023-10-17T00:00:00	2024-11-08T00:00:00	5	Humedad	75
83637	7	Sololá	717	San Juan la Laguna	12	San Juan la Laguna	10	Octubre	2023-10-17T00:00:00	2024-11-08T00:00:00	6	Velocidad del viento	1.6
83638	7	Sololá	717	San Juan la Laguna	12	San Juan la Laguna	10	Octubre	2023-10-17T00:00:00	2024-11-08T00:00:00	7	Dirección del viento	1.61
83639	7	Sololá	717	San Juan la Laguna	12	San Juan la Laguna	10	Octubre	2023-10-17T00:00:00	2024-11-08T00:00:00	1	Precipitación	0
83640	7	Sololá	717	San Juan la Laguna	12	San Juan la Laguna	10	Octubre	2023-10-17T00:00:00	2024-11-08T00:00:00	8	Radiación solar	0
83641	7	Sololá	717	San Juan la Laguna	12	San Juan la Laguna	10	Octubre	2023-10-17T00:00:00	2024-11-08T01:00:00	2	Temperatura media	16.9
83642	7	Sololá	717	San Juan la Laguna	12	San Juan la Laguna	10	Octubre	2023-10-17T00:00:00	2024-11-08T01:00:00	4	Temperatura máxima	18.9
83643	7	Sololá	717	San Juan la Laguna	12	San Juan la Laguna	10	Octubre	2023-10-17T00:00:00	2024-11-08T01:00:00	3	Temperatura mínima	16.9
83644	7	Sololá	717	San Juan la Laguna	12	San Juan la Laguna	10	Octubre	2023-10-17T00:00:00	2024-11-08T01:00:00	5	Humedad	83
83645	7	Sololá	717	San Juan la Laguna	12	San Juan la Laguna	10	Octubre	2023-10-17T00:00:00	2024-11-08T01:00:00	6	Velocidad del viento	0
83646	7	Sololá	717	San Juan la Laguna	12	San Juan la Laguna	10	Octubre	2023-10-17T00:00:00	2024-11-08T01:00:00	7	Dirección del viento	0
83647	7	Sololá	717	San Juan la Laguna	12	San Juan la Laguna	10	Octubre	2023-10-17T00:00:00	2024-11-08T01:00:00	1	Precipitación	0
83648	7	Sololá	717	San Juan la Laguna	12	San Juan la Laguna	10	Octubre	2023-10-17T00:00:00	2024-11-08T01:00:00	8	Radiación solar	0
83649	7	Sololá	717	San Juan la Laguna	12	San Juan la Laguna	10	Octubre	2023-10-17T00:00:00	2024-11-08T02:00:00	2	Temperatura media	16.3
83650	7	Sololá	717	San Juan la Laguna	12	San Juan la Laguna	10	Octubre	2023-10-17T00:00:00	2024-11-08T02:00:00	4	Temperatura máxima	16.9
83651	7	Sololá	717	San Juan la Laguna	12	San Juan la Laguna	10	Octubre	2023-10-17T00:00:00	2024-11-08T02:00:00	3	Temperatura mínima	16.3
83652	7	Sololá	717	San Juan la Laguna	12	San Juan la Laguna	10	Octubre	2023-10-17T00:00:00	2024-11-08T02:00:00	5	Humedad	84
83653	7	Sololá	717	San Juan la Laguna	12	San Juan la Laguna	10	Octubre	2023-10-17T00:00:00	2024-11-08T02:00:00	6	Velocidad del viento	0
83654	7	Sololá	717	San Juan la Laguna	12	San Juan la Laguna	10	Octubre	2023-10-17T00:00:00	2024-11-08T02:00:00	7	Dirección del viento	0
83655	7	Sololá	717	San Juan la Laguna	12	San Juan la Laguna	10	Octubre	2023-10-17T00:00:00	2024-11-08T02:00:00	1	Precipitación	0
83656	7	Sololá	717	San Juan la Laguna	12	San Juan la Laguna	10	Octubre	2023-10-17T00:00:00	2024-11-08T02:00:00	8	Radiación solar	0
83657	7	Sololá	717	San Juan la Laguna	12	San Juan la Laguna	10	Octubre	2023-10-17T00:00:00	2024-11-08T03:00:00	2	Temperatura media	16.2
83658	7	Sololá	717	San Juan la Laguna	12	San Juan la Laguna	10	Octubre	2023-10-17T00:00:00	2024-11-08T03:00:00	4	Temperatura máxima	16.3
83659	7	Sololá	717	San Juan la Laguna	12	San Juan la Laguna	10	Octubre	2023-10-17T00:00:00	2024-11-08T03:00:00	3	Temperatura mínima	16
83660	7	Sololá	717	San Juan la Laguna	12	San Juan la Laguna	10	Octubre	2023-10-17T00:00:00	2024-11-08T03:00:00	5	Humedad	84
83661	7	Sololá	717	San Juan la Laguna	12	San Juan la Laguna	10	Octubre	2023-10-17T00:00:00	2024-11-08T03:00:00	6	Velocidad del viento	0
83662	7	Sololá	717	San Juan la Laguna	12	San Juan la Laguna	10	Octubre	2023-10-17T00:00:00	2024-11-08T03:00:00	7	Dirección del viento	0
83663	7	Sololá	717	San Juan la Laguna	12	San Juan la Laguna	10	Octubre	2023-10-17T00:00:00	2024-11-08T03:00:00	1	Precipitación	0
83664	7	Sololá	717	San Juan la Laguna	12	San Juan la Laguna	10	Octubre	2023-10-17T00:00:00	2024-11-08T03:00:00	8	Radiación solar	0
83665	7	Sololá	717	San Juan la Laguna	12	San Juan la Laguna	10	Octubre	2023-10-17T00:00:00	2024-11-08T04:00:00	2	Temperatura media	15.4
83666	7	Sololá	717	San Juan la Laguna	12	San Juan la Laguna	10	Octubre	2023-10-17T00:00:00	2024-11-08T04:00:00	4	Temperatura máxima	16.3
83667	7	Sololá	717	San Juan la Laguna	12	San Juan la Laguna	10	Octubre	2023-10-17T00:00:00	2024-11-08T04:00:00	3	Temperatura mínima	15.4
83668	7	Sololá	717	San Juan la Laguna	12	San Juan la Laguna	10	Octubre	2023-10-17T00:00:00	2024-11-08T04:00:00	5	Humedad	86
83669	7	Sololá	717	San Juan la Laguna	12	San Juan la Laguna	10	Octubre	2023-10-17T00:00:00	2024-11-08T04:00:00	6	Velocidad del viento	0
83670	7	Sololá	717	San Juan la Laguna	12	San Juan la Laguna	10	Octubre	2023-10-17T00:00:00	2024-11-08T04:00:00	7	Dirección del viento	0
83671	7	Sololá	717	San Juan la Laguna	12	San Juan la Laguna	10	Octubre	2023-10-17T00:00:00	2024-11-08T04:00:00	1	Precipitación	0
83672	7	Sololá	717	San Juan la Laguna	12	San Juan la Laguna	10	Octubre	2023-10-17T00:00:00	2024-11-08T04:00:00	8	Radiación solar	0
83673	7	Sololá	717	San Juan la Laguna	12	San Juan la Laguna	10	Octubre	2023-10-17T00:00:00	2024-11-08T05:00:00	2	Temperatura media	15.6
83674	7	Sololá	717	San Juan la Laguna	12	San Juan la Laguna	10	Octubre	2023-10-17T00:00:00	2024-11-08T05:00:00	4	Temperatura máxima	15.6
83675	7	Sololá	717	San Juan la Laguna	12	San Juan la Laguna	10	Octubre	2023-10-17T00:00:00	2024-11-08T05:00:00	3	Temperatura mínima	15.3
83676	7	Sololá	717	San Juan la Laguna	12	San Juan la Laguna	10	Octubre	2023-10-17T00:00:00	2024-11-08T05:00:00	5	Humedad	85
83677	7	Sololá	717	San Juan la Laguna	12	San Juan la Laguna	10	Octubre	2023-10-17T00:00:00	2024-11-08T05:00:00	6	Velocidad del viento	0
83678	7	Sololá	717	San Juan la Laguna	12	San Juan la Laguna	10	Octubre	2023-10-17T00:00:00	2024-11-08T05:00:00	7	Dirección del viento	0
83679	7	Sololá	717	San Juan la Laguna	12	San Juan la Laguna	10	Octubre	2023-10-17T00:00:00	2024-11-08T05:00:00	1	Precipitación	0
83680	7	Sololá	717	San Juan la Laguna	12	San Juan la Laguna	10	Octubre	2023-10-17T00:00:00	2024-11-08T05:00:00	8	Radiación solar	0
83681	7	Sololá	717	San Juan la Laguna	12	San Juan la Laguna	10	Octubre	2023-10-17T00:00:00	2024-11-08T06:00:00	2	Temperatura media	15.3
83682	7	Sololá	717	San Juan la Laguna	12	San Juan la Laguna	10	Octubre	2023-10-17T00:00:00	2024-11-08T06:00:00	4	Temperatura máxima	15.6
83683	7	Sololá	717	San Juan la Laguna	12	San Juan la Laguna	10	Octubre	2023-10-17T00:00:00	2024-11-08T06:00:00	3	Temperatura mínima	15.2
83684	7	Sololá	717	San Juan la Laguna	12	San Juan la Laguna	10	Octubre	2023-10-17T00:00:00	2024-11-08T06:00:00	5	Humedad	85
83685	7	Sololá	717	San Juan la Laguna	12	San Juan la Laguna	10	Octubre	2023-10-17T00:00:00	2024-11-08T06:00:00	6	Velocidad del viento	0
83686	7	Sololá	717	San Juan la Laguna	12	San Juan la Laguna	10	Octubre	2023-10-17T00:00:00	2024-11-08T06:00:00	7	Dirección del viento	0
83687	7	Sololá	717	San Juan la Laguna	12	San Juan la Laguna	10	Octubre	2023-10-17T00:00:00	2024-11-08T06:00:00	1	Precipitación	0
83688	7	Sololá	717	San Juan la Laguna	12	San Juan la Laguna	10	Octubre	2023-10-17T00:00:00	2024-11-08T06:00:00	8	Radiación solar	0
83689	7	Sololá	717	San Juan la Laguna	12	San Juan la Laguna	10	Octubre	2023-10-17T00:00:00	2024-11-08T07:00:00	2	Temperatura media	16.5
83690	7	Sololá	717	San Juan la Laguna	12	San Juan la Laguna	10	Octubre	2023-10-17T00:00:00	2024-11-08T07:00:00	4	Temperatura máxima	16.5
83691	7	Sololá	717	San Juan la Laguna	12	San Juan la Laguna	10	Octubre	2023-10-17T00:00:00	2024-11-08T07:00:00	3	Temperatura mínima	15.3
83692	7	Sololá	717	San Juan la Laguna	12	San Juan la Laguna	10	Octubre	2023-10-17T00:00:00	2024-11-08T07:00:00	5	Humedad	83
83693	7	Sololá	717	San Juan la Laguna	12	San Juan la Laguna	10	Octubre	2023-10-17T00:00:00	2024-11-08T07:00:00	6	Velocidad del viento	0
83694	7	Sololá	717	San Juan la Laguna	12	San Juan la Laguna	10	Octubre	2023-10-17T00:00:00	2024-11-08T07:00:00	7	Dirección del viento	0
83695	7	Sololá	717	San Juan la Laguna	12	San Juan la Laguna	10	Octubre	2023-10-17T00:00:00	2024-11-08T07:00:00	1	Precipitación	0
83696	7	Sololá	717	San Juan la Laguna	12	San Juan la Laguna	10	Octubre	2023-10-17T00:00:00	2024-11-08T07:00:00	8	Radiación solar	64
83697	7	Sololá	717	San Juan la Laguna	12	San Juan la Laguna	10	Octubre	2023-10-17T00:00:00	2024-11-08T08:00:00	2	Temperatura media	19.4
83698	7	Sololá	717	San Juan la Laguna	12	San Juan la Laguna	10	Octubre	2023-10-17T00:00:00	2024-11-08T08:00:00	4	Temperatura máxima	19.4
83699	7	Sololá	717	San Juan la Laguna	12	San Juan la Laguna	10	Octubre	2023-10-17T00:00:00	2024-11-08T08:00:00	3	Temperatura mínima	16.6
83700	7	Sololá	717	San Juan la Laguna	12	San Juan la Laguna	10	Octubre	2023-10-17T00:00:00	2024-11-08T08:00:00	5	Humedad	72
83701	7	Sololá	717	San Juan la Laguna	12	San Juan la Laguna	10	Octubre	2023-10-17T00:00:00	2024-11-08T08:00:00	6	Velocidad del viento	0
83702	7	Sololá	717	San Juan la Laguna	12	San Juan la Laguna	10	Octubre	2023-10-17T00:00:00	2024-11-08T08:00:00	7	Dirección del viento	0
83703	7	Sololá	717	San Juan la Laguna	12	San Juan la Laguna	10	Octubre	2023-10-17T00:00:00	2024-11-08T08:00:00	1	Precipitación	0
83704	7	Sololá	717	San Juan la Laguna	12	San Juan la Laguna	10	Octubre	2023-10-17T00:00:00	2024-11-08T08:00:00	8	Radiación solar	227
83705	7	Sololá	717	San Juan la Laguna	12	San Juan la Laguna	10	Octubre	2023-10-17T00:00:00	2024-11-08T09:00:00	2	Temperatura media	22.4
83706	7	Sololá	717	San Juan la Laguna	12	San Juan la Laguna	10	Octubre	2023-10-17T00:00:00	2024-11-08T09:00:00	4	Temperatura máxima	22.5
83707	7	Sololá	717	San Juan la Laguna	12	San Juan la Laguna	10	Octubre	2023-10-17T00:00:00	2024-11-08T09:00:00	3	Temperatura mínima	19.4
83708	7	Sololá	717	San Juan la Laguna	12	San Juan la Laguna	10	Octubre	2023-10-17T00:00:00	2024-11-08T09:00:00	5	Humedad	62
83709	7	Sololá	717	San Juan la Laguna	12	San Juan la Laguna	10	Octubre	2023-10-17T00:00:00	2024-11-08T09:00:00	6	Velocidad del viento	0
83710	7	Sololá	717	San Juan la Laguna	12	San Juan la Laguna	10	Octubre	2023-10-17T00:00:00	2024-11-08T09:00:00	7	Dirección del viento	0
83711	7	Sololá	717	San Juan la Laguna	12	San Juan la Laguna	10	Octubre	2023-10-17T00:00:00	2024-11-08T09:00:00	1	Precipitación	0
83712	7	Sololá	717	San Juan la Laguna	12	San Juan la Laguna	10	Octubre	2023-10-17T00:00:00	2024-11-08T09:00:00	8	Radiación solar	494
83713	7	Sololá	717	San Juan la Laguna	12	San Juan la Laguna	10	Octubre	2023-10-17T00:00:00	2024-11-08T10:00:00	2	Temperatura media	22.8
83714	7	Sololá	717	San Juan la Laguna	12	San Juan la Laguna	10	Octubre	2023-10-17T00:00:00	2024-11-08T10:00:00	4	Temperatura máxima	23.3
83715	7	Sololá	717	San Juan la Laguna	12	San Juan la Laguna	10	Octubre	2023-10-17T00:00:00	2024-11-08T10:00:00	3	Temperatura mínima	22.4
83716	7	Sololá	717	San Juan la Laguna	12	San Juan la Laguna	10	Octubre	2023-10-17T00:00:00	2024-11-08T10:00:00	5	Humedad	57
83717	7	Sololá	717	San Juan la Laguna	12	San Juan la Laguna	10	Octubre	2023-10-17T00:00:00	2024-11-08T10:00:00	6	Velocidad del viento	1.6
83718	7	Sololá	717	San Juan la Laguna	12	San Juan la Laguna	10	Octubre	2023-10-17T00:00:00	2024-11-08T10:00:00	7	Dirección del viento	1.61
83719	7	Sololá	717	San Juan la Laguna	12	San Juan la Laguna	10	Octubre	2023-10-17T00:00:00	2024-11-08T10:00:00	1	Precipitación	0
83720	7	Sololá	717	San Juan la Laguna	12	San Juan la Laguna	10	Octubre	2023-10-17T00:00:00	2024-11-08T10:00:00	8	Radiación solar	642
83721	7	Sololá	717	San Juan la Laguna	12	San Juan la Laguna	10	Octubre	2023-10-17T00:00:00	2024-11-08T11:00:00	2	Temperatura media	23.2
83722	7	Sololá	717	San Juan la Laguna	12	San Juan la Laguna	10	Octubre	2023-10-17T00:00:00	2024-11-08T11:00:00	4	Temperatura máxima	23.2
83723	7	Sololá	717	San Juan la Laguna	12	San Juan la Laguna	10	Octubre	2023-10-17T00:00:00	2024-11-08T11:00:00	3	Temperatura mínima	22.1
83724	7	Sololá	717	San Juan la Laguna	12	San Juan la Laguna	10	Octubre	2023-10-17T00:00:00	2024-11-08T11:00:00	5	Humedad	59
83725	7	Sololá	717	San Juan la Laguna	12	San Juan la Laguna	10	Octubre	2023-10-17T00:00:00	2024-11-08T11:00:00	6	Velocidad del viento	0
83726	7	Sololá	717	San Juan la Laguna	12	San Juan la Laguna	10	Octubre	2023-10-17T00:00:00	2024-11-08T11:00:00	7	Dirección del viento	0
83727	7	Sololá	717	San Juan la Laguna	12	San Juan la Laguna	10	Octubre	2023-10-17T00:00:00	2024-11-08T11:00:00	1	Precipitación	0
83728	7	Sololá	717	San Juan la Laguna	12	San Juan la Laguna	10	Octubre	2023-10-17T00:00:00	2024-11-08T11:00:00	8	Radiación solar	441
83729	7	Sololá	717	San Juan la Laguna	12	San Juan la Laguna	10	Octubre	2023-10-17T00:00:00	2024-11-08T12:00:00	2	Temperatura media	22.8
83730	7	Sololá	717	San Juan la Laguna	12	San Juan la Laguna	10	Octubre	2023-10-17T00:00:00	2024-11-08T12:00:00	4	Temperatura máxima	23.2
83731	7	Sololá	717	San Juan la Laguna	12	San Juan la Laguna	10	Octubre	2023-10-17T00:00:00	2024-11-08T12:00:00	3	Temperatura mínima	22.3
83732	7	Sololá	717	San Juan la Laguna	12	San Juan la Laguna	10	Octubre	2023-10-17T00:00:00	2024-11-08T12:00:00	5	Humedad	61
83733	7	Sololá	717	San Juan la Laguna	12	San Juan la Laguna	10	Octubre	2023-10-17T00:00:00	2024-11-08T12:00:00	6	Velocidad del viento	1.6
83734	7	Sololá	717	San Juan la Laguna	12	San Juan la Laguna	10	Octubre	2023-10-17T00:00:00	2024-11-08T12:00:00	7	Dirección del viento	1.61
83735	7	Sololá	717	San Juan la Laguna	12	San Juan la Laguna	10	Octubre	2023-10-17T00:00:00	2024-11-08T12:00:00	1	Precipitación	0
83736	7	Sololá	717	San Juan la Laguna	12	San Juan la Laguna	10	Octubre	2023-10-17T00:00:00	2024-11-08T12:00:00	8	Radiación solar	466
83737	7	Sololá	717	San Juan la Laguna	12	San Juan la Laguna	10	Octubre	2023-10-17T00:00:00	2024-11-08T13:00:00	2	Temperatura media	22.8
83738	7	Sololá	717	San Juan la Laguna	12	San Juan la Laguna	10	Octubre	2023-10-17T00:00:00	2024-11-08T13:00:00	4	Temperatura máxima	22.9
83739	7	Sololá	717	San Juan la Laguna	12	San Juan la Laguna	10	Octubre	2023-10-17T00:00:00	2024-11-08T13:00:00	3	Temperatura mínima	22.5
83740	7	Sololá	717	San Juan la Laguna	12	San Juan la Laguna	10	Octubre	2023-10-17T00:00:00	2024-11-08T13:00:00	5	Humedad	60
83741	7	Sololá	717	San Juan la Laguna	12	San Juan la Laguna	10	Octubre	2023-10-17T00:00:00	2024-11-08T13:00:00	6	Velocidad del viento	1.6
83742	7	Sololá	717	San Juan la Laguna	12	San Juan la Laguna	10	Octubre	2023-10-17T00:00:00	2024-11-08T13:00:00	7	Dirección del viento	1.61
83743	7	Sololá	717	San Juan la Laguna	12	San Juan la Laguna	10	Octubre	2023-10-17T00:00:00	2024-11-08T13:00:00	1	Precipitación	0
83744	7	Sololá	717	San Juan la Laguna	12	San Juan la Laguna	10	Octubre	2023-10-17T00:00:00	2024-11-08T13:00:00	8	Radiación solar	471
83745	7	Sololá	717	San Juan la Laguna	12	San Juan la Laguna	10	Octubre	2023-10-17T00:00:00	2024-11-08T14:00:00	2	Temperatura media	23.2
83746	7	Sololá	717	San Juan la Laguna	12	San Juan la Laguna	10	Octubre	2023-10-17T00:00:00	2024-11-08T14:00:00	4	Temperatura máxima	23.2
83747	7	Sololá	717	San Juan la Laguna	12	San Juan la Laguna	10	Octubre	2023-10-17T00:00:00	2024-11-08T14:00:00	3	Temperatura mínima	22.7
83748	7	Sololá	717	San Juan la Laguna	12	San Juan la Laguna	10	Octubre	2023-10-17T00:00:00	2024-11-08T14:00:00	5	Humedad	59
83749	7	Sololá	717	San Juan la Laguna	12	San Juan la Laguna	10	Octubre	2023-10-17T00:00:00	2024-11-08T14:00:00	6	Velocidad del viento	0
83750	7	Sololá	717	San Juan la Laguna	12	San Juan la Laguna	10	Octubre	2023-10-17T00:00:00	2024-11-08T14:00:00	7	Dirección del viento	0
83751	7	Sololá	717	San Juan la Laguna	12	San Juan la Laguna	10	Octubre	2023-10-17T00:00:00	2024-11-08T14:00:00	1	Precipitación	0
83752	7	Sololá	717	San Juan la Laguna	12	San Juan la Laguna	10	Octubre	2023-10-17T00:00:00	2024-11-08T14:00:00	8	Radiación solar	451
83753	7	Sololá	717	San Juan la Laguna	12	San Juan la Laguna	10	Octubre	2023-10-17T00:00:00	2024-11-08T15:00:00	2	Temperatura media	23.6
83754	7	Sololá	717	San Juan la Laguna	12	San Juan la Laguna	10	Octubre	2023-10-17T00:00:00	2024-11-08T15:00:00	4	Temperatura máxima	23.7
83755	7	Sololá	717	San Juan la Laguna	12	San Juan la Laguna	10	Octubre	2023-10-17T00:00:00	2024-11-08T15:00:00	3	Temperatura mínima	23.2
83756	7	Sololá	717	San Juan la Laguna	12	San Juan la Laguna	10	Octubre	2023-10-17T00:00:00	2024-11-08T15:00:00	5	Humedad	57
83757	7	Sololá	717	San Juan la Laguna	12	San Juan la Laguna	10	Octubre	2023-10-17T00:00:00	2024-11-08T15:00:00	6	Velocidad del viento	0
83758	7	Sololá	717	San Juan la Laguna	12	San Juan la Laguna	10	Octubre	2023-10-17T00:00:00	2024-11-08T15:00:00	7	Dirección del viento	0
83759	7	Sololá	717	San Juan la Laguna	12	San Juan la Laguna	10	Octubre	2023-10-17T00:00:00	2024-11-08T15:00:00	1	Precipitación	0
83760	7	Sololá	717	San Juan la Laguna	12	San Juan la Laguna	10	Octubre	2023-10-17T00:00:00	2024-11-08T15:00:00	8	Radiación solar	315
83761	7	Sololá	717	San Juan la Laguna	12	San Juan la Laguna	10	Octubre	2023-10-17T00:00:00	2024-11-08T16:00:00	2	Temperatura media	22.1
83762	7	Sololá	717	San Juan la Laguna	12	San Juan la Laguna	10	Octubre	2023-10-17T00:00:00	2024-11-08T16:00:00	4	Temperatura máxima	23.6
83763	7	Sololá	717	San Juan la Laguna	12	San Juan la Laguna	10	Octubre	2023-10-17T00:00:00	2024-11-08T16:00:00	3	Temperatura mínima	22.1
83764	7	Sololá	717	San Juan la Laguna	12	San Juan la Laguna	10	Octubre	2023-10-17T00:00:00	2024-11-08T16:00:00	5	Humedad	65
83765	7	Sololá	717	San Juan la Laguna	12	San Juan la Laguna	10	Octubre	2023-10-17T00:00:00	2024-11-08T16:00:00	6	Velocidad del viento	1.6
83766	7	Sololá	717	San Juan la Laguna	12	San Juan la Laguna	10	Octubre	2023-10-17T00:00:00	2024-11-08T16:00:00	7	Dirección del viento	1.61
83767	7	Sololá	717	San Juan la Laguna	12	San Juan la Laguna	10	Octubre	2023-10-17T00:00:00	2024-11-08T16:00:00	1	Precipitación	0
83768	7	Sololá	717	San Juan la Laguna	12	San Juan la Laguna	10	Octubre	2023-10-17T00:00:00	2024-11-08T16:00:00	8	Radiación solar	260
83769	7	Sololá	717	San Juan la Laguna	12	San Juan la Laguna	10	Octubre	2023-10-17T00:00:00	2024-11-08T17:00:00	2	Temperatura media	21.2
83770	7	Sololá	717	San Juan la Laguna	12	San Juan la Laguna	10	Octubre	2023-10-17T00:00:00	2024-11-08T17:00:00	4	Temperatura máxima	22.2
83771	7	Sololá	717	San Juan la Laguna	12	San Juan la Laguna	10	Octubre	2023-10-17T00:00:00	2024-11-08T17:00:00	3	Temperatura mínima	21.2
83772	7	Sololá	717	San Juan la Laguna	12	San Juan la Laguna	10	Octubre	2023-10-17T00:00:00	2024-11-08T17:00:00	5	Humedad	67
83773	7	Sololá	717	San Juan la Laguna	12	San Juan la Laguna	10	Octubre	2023-10-17T00:00:00	2024-11-08T17:00:00	6	Velocidad del viento	1.6
83774	7	Sololá	717	San Juan la Laguna	12	San Juan la Laguna	10	Octubre	2023-10-17T00:00:00	2024-11-08T17:00:00	7	Dirección del viento	1.61
83775	7	Sololá	717	San Juan la Laguna	12	San Juan la Laguna	10	Octubre	2023-10-17T00:00:00	2024-11-08T17:00:00	1	Precipitación	0
83776	7	Sololá	717	San Juan la Laguna	12	San Juan la Laguna	10	Octubre	2023-10-17T00:00:00	2024-11-08T17:00:00	8	Radiación solar	127
83777	7	Sololá	717	San Juan la Laguna	12	San Juan la Laguna	10	Octubre	2023-10-17T00:00:00	2024-11-08T18:00:00	2	Temperatura media	20.2
83778	7	Sololá	717	San Juan la Laguna	12	San Juan la Laguna	10	Octubre	2023-10-17T00:00:00	2024-11-08T18:00:00	4	Temperatura máxima	21.2
83779	7	Sololá	717	San Juan la Laguna	12	San Juan la Laguna	10	Octubre	2023-10-17T00:00:00	2024-11-08T18:00:00	3	Temperatura mínima	20.2
83780	7	Sololá	717	San Juan la Laguna	12	San Juan la Laguna	10	Octubre	2023-10-17T00:00:00	2024-11-08T18:00:00	5	Humedad	70
83781	7	Sololá	717	San Juan la Laguna	12	San Juan la Laguna	10	Octubre	2023-10-17T00:00:00	2024-11-08T18:00:00	6	Velocidad del viento	4.8
83782	7	Sololá	717	San Juan la Laguna	12	San Juan la Laguna	10	Octubre	2023-10-17T00:00:00	2024-11-08T18:00:00	7	Dirección del viento	4.83
83783	7	Sololá	717	San Juan la Laguna	12	San Juan la Laguna	10	Octubre	2023-10-17T00:00:00	2024-11-08T18:00:00	1	Precipitación	0
83784	7	Sololá	717	San Juan la Laguna	12	San Juan la Laguna	10	Octubre	2023-10-17T00:00:00	2024-11-08T18:00:00	8	Radiación solar	19
83785	7	Sololá	717	San Juan la Laguna	12	San Juan la Laguna	10	Octubre	2023-10-17T00:00:00	2024-11-08T19:00:00	2	Temperatura media	19.1
83786	7	Sololá	717	San Juan la Laguna	12	San Juan la Laguna	10	Octubre	2023-10-17T00:00:00	2024-11-08T19:00:00	4	Temperatura máxima	20.2
83787	7	Sololá	717	San Juan la Laguna	12	San Juan la Laguna	10	Octubre	2023-10-17T00:00:00	2024-11-08T19:00:00	3	Temperatura mínima	19.1
83788	7	Sololá	717	San Juan la Laguna	12	San Juan la Laguna	10	Octubre	2023-10-17T00:00:00	2024-11-08T19:00:00	5	Humedad	75
83789	7	Sololá	717	San Juan la Laguna	12	San Juan la Laguna	10	Octubre	2023-10-17T00:00:00	2024-11-08T19:00:00	6	Velocidad del viento	8
83790	7	Sololá	717	San Juan la Laguna	12	San Juan la Laguna	10	Octubre	2023-10-17T00:00:00	2024-11-08T19:00:00	7	Dirección del viento	8.05
83791	7	Sololá	717	San Juan la Laguna	12	San Juan la Laguna	10	Octubre	2023-10-17T00:00:00	2024-11-08T19:00:00	1	Precipitación	0
83792	7	Sololá	717	San Juan la Laguna	12	San Juan la Laguna	10	Octubre	2023-10-17T00:00:00	2024-11-08T19:00:00	8	Radiación solar	0
83793	7	Sololá	717	San Juan la Laguna	12	San Juan la Laguna	10	Octubre	2023-10-17T00:00:00	2024-11-08T20:00:00	2	Temperatura media	17.9
83794	7	Sololá	717	San Juan la Laguna	12	San Juan la Laguna	10	Octubre	2023-10-17T00:00:00	2024-11-08T20:00:00	4	Temperatura máxima	19.1
83795	7	Sololá	717	San Juan la Laguna	12	San Juan la Laguna	10	Octubre	2023-10-17T00:00:00	2024-11-08T20:00:00	3	Temperatura mínima	17.8
83796	7	Sololá	717	San Juan la Laguna	12	San Juan la Laguna	10	Octubre	2023-10-17T00:00:00	2024-11-08T20:00:00	5	Humedad	79
83797	7	Sololá	717	San Juan la Laguna	12	San Juan la Laguna	10	Octubre	2023-10-17T00:00:00	2024-11-08T20:00:00	6	Velocidad del viento	0
83798	7	Sololá	717	San Juan la Laguna	12	San Juan la Laguna	10	Octubre	2023-10-17T00:00:00	2024-11-08T20:00:00	7	Dirección del viento	0
83799	7	Sololá	717	San Juan la Laguna	12	San Juan la Laguna	10	Octubre	2023-10-17T00:00:00	2024-11-08T20:00:00	1	Precipitación	0
83800	7	Sololá	717	San Juan la Laguna	12	San Juan la Laguna	10	Octubre	2023-10-17T00:00:00	2024-11-08T20:00:00	8	Radiación solar	0
83801	7	Sololá	717	San Juan la Laguna	12	San Juan la Laguna	10	Octubre	2023-10-17T00:00:00	2024-11-08T21:00:00	2	Temperatura media	17.1
83802	7	Sololá	717	San Juan la Laguna	12	San Juan la Laguna	10	Octubre	2023-10-17T00:00:00	2024-11-08T21:00:00	4	Temperatura máxima	17.9
83803	7	Sololá	717	San Juan la Laguna	12	San Juan la Laguna	10	Octubre	2023-10-17T00:00:00	2024-11-08T21:00:00	3	Temperatura mínima	16.9
83804	7	Sololá	717	San Juan la Laguna	12	San Juan la Laguna	10	Octubre	2023-10-17T00:00:00	2024-11-08T21:00:00	5	Humedad	81
83805	7	Sololá	717	San Juan la Laguna	12	San Juan la Laguna	10	Octubre	2023-10-17T00:00:00	2024-11-08T21:00:00	6	Velocidad del viento	0
83806	7	Sololá	717	San Juan la Laguna	12	San Juan la Laguna	10	Octubre	2023-10-17T00:00:00	2024-11-08T21:00:00	7	Dirección del viento	0
83807	7	Sololá	717	San Juan la Laguna	12	San Juan la Laguna	10	Octubre	2023-10-17T00:00:00	2024-11-08T21:00:00	1	Precipitación	0
83808	7	Sololá	717	San Juan la Laguna	12	San Juan la Laguna	10	Octubre	2023-10-17T00:00:00	2024-11-08T21:00:00	8	Radiación solar	0
83809	7	Sololá	717	San Juan la Laguna	12	San Juan la Laguna	10	Octubre	2023-10-17T00:00:00	2024-11-08T22:00:00	2	Temperatura media	18.3
83810	7	Sololá	717	San Juan la Laguna	12	San Juan la Laguna	10	Octubre	2023-10-17T00:00:00	2024-11-08T22:00:00	4	Temperatura máxima	18.7
83811	7	Sololá	717	San Juan la Laguna	12	San Juan la Laguna	10	Octubre	2023-10-17T00:00:00	2024-11-08T22:00:00	3	Temperatura mínima	17.1
83812	7	Sololá	717	San Juan la Laguna	12	San Juan la Laguna	10	Octubre	2023-10-17T00:00:00	2024-11-08T22:00:00	5	Humedad	76
83813	7	Sololá	717	San Juan la Laguna	12	San Juan la Laguna	10	Octubre	2023-10-17T00:00:00	2024-11-08T22:00:00	6	Velocidad del viento	4.8
83814	7	Sololá	717	San Juan la Laguna	12	San Juan la Laguna	10	Octubre	2023-10-17T00:00:00	2024-11-08T22:00:00	7	Dirección del viento	4.83
83815	7	Sololá	717	San Juan la Laguna	12	San Juan la Laguna	10	Octubre	2023-10-17T00:00:00	2024-11-08T22:00:00	1	Precipitación	0
83816	7	Sololá	717	San Juan la Laguna	12	San Juan la Laguna	10	Octubre	2023-10-17T00:00:00	2024-11-08T22:00:00	8	Radiación solar	0
83817	7	Sololá	717	San Juan la Laguna	12	San Juan la Laguna	10	Octubre	2023-10-17T00:00:00	2024-11-08T23:00:00	2	Temperatura media	17.6
83818	7	Sololá	717	San Juan la Laguna	12	San Juan la Laguna	10	Octubre	2023-10-17T00:00:00	2024-11-08T23:00:00	4	Temperatura máxima	18.3
83819	7	Sololá	717	San Juan la Laguna	12	San Juan la Laguna	10	Octubre	2023-10-17T00:00:00	2024-11-08T23:00:00	3	Temperatura mínima	16.6
83820	7	Sololá	717	San Juan la Laguna	12	San Juan la Laguna	10	Octubre	2023-10-17T00:00:00	2024-11-08T23:00:00	5	Humedad	77
83821	7	Sololá	717	San Juan la Laguna	12	San Juan la Laguna	10	Octubre	2023-10-17T00:00:00	2024-11-08T23:00:00	6	Velocidad del viento	0
83822	7	Sololá	717	San Juan la Laguna	12	San Juan la Laguna	10	Octubre	2023-10-17T00:00:00	2024-11-08T23:00:00	7	Dirección del viento	0
83823	7	Sololá	717	San Juan la Laguna	12	San Juan la Laguna	10	Octubre	2023-10-17T00:00:00	2024-11-08T23:00:00	1	Precipitación	0
83824	7	Sololá	717	San Juan la Laguna	12	San Juan la Laguna	10	Octubre	2023-10-17T00:00:00	2024-11-08T23:00:00	8	Radiación solar	0
83825	7	Sololá	717	San Juan la Laguna	12	San Juan la Laguna	10	Octubre	2023-10-18T00:00:00	2024-11-08T00:00:00	2	Temperatura media	17.6
83826	7	Sololá	717	San Juan la Laguna	12	San Juan la Laguna	10	Octubre	2023-10-18T00:00:00	2024-11-08T00:00:00	4	Temperatura máxima	18.1
83827	7	Sololá	717	San Juan la Laguna	12	San Juan la Laguna	10	Octubre	2023-10-18T00:00:00	2024-11-08T00:00:00	3	Temperatura mínima	17.2
83828	7	Sololá	717	San Juan la Laguna	12	San Juan la Laguna	10	Octubre	2023-10-18T00:00:00	2024-11-08T00:00:00	5	Humedad	77
83829	7	Sololá	717	San Juan la Laguna	12	San Juan la Laguna	10	Octubre	2023-10-18T00:00:00	2024-11-08T00:00:00	6	Velocidad del viento	1.6
83830	7	Sololá	717	San Juan la Laguna	12	San Juan la Laguna	10	Octubre	2023-10-18T00:00:00	2024-11-08T00:00:00	7	Dirección del viento	1.61
83831	7	Sololá	717	San Juan la Laguna	12	San Juan la Laguna	10	Octubre	2023-10-18T00:00:00	2024-11-08T00:00:00	1	Precipitación	0
83832	7	Sololá	717	San Juan la Laguna	12	San Juan la Laguna	10	Octubre	2023-10-18T00:00:00	2024-11-08T00:00:00	8	Radiación solar	0
83833	7	Sololá	717	San Juan la Laguna	12	San Juan la Laguna	10	Octubre	2023-10-18T00:00:00	2024-11-08T01:00:00	2	Temperatura media	16.6
83834	7	Sololá	717	San Juan la Laguna	12	San Juan la Laguna	10	Octubre	2023-10-18T00:00:00	2024-11-08T01:00:00	4	Temperatura máxima	17.6
83835	7	Sololá	717	San Juan la Laguna	12	San Juan la Laguna	10	Octubre	2023-10-18T00:00:00	2024-11-08T01:00:00	3	Temperatura mínima	16.4
83836	7	Sololá	717	San Juan la Laguna	12	San Juan la Laguna	10	Octubre	2023-10-18T00:00:00	2024-11-08T01:00:00	5	Humedad	82
83837	7	Sololá	717	San Juan la Laguna	12	San Juan la Laguna	10	Octubre	2023-10-18T00:00:00	2024-11-08T01:00:00	6	Velocidad del viento	0
83838	7	Sololá	717	San Juan la Laguna	12	San Juan la Laguna	10	Octubre	2023-10-18T00:00:00	2024-11-08T01:00:00	7	Dirección del viento	0
83839	7	Sololá	717	San Juan la Laguna	12	San Juan la Laguna	10	Octubre	2023-10-18T00:00:00	2024-11-08T01:00:00	1	Precipitación	0
83840	7	Sololá	717	San Juan la Laguna	12	San Juan la Laguna	10	Octubre	2023-10-18T00:00:00	2024-11-08T01:00:00	8	Radiación solar	0
83841	7	Sololá	717	San Juan la Laguna	12	San Juan la Laguna	10	Octubre	2023-10-18T00:00:00	2024-11-08T02:00:00	2	Temperatura media	16.3
83842	7	Sololá	717	San Juan la Laguna	12	San Juan la Laguna	10	Octubre	2023-10-18T00:00:00	2024-11-08T02:00:00	4	Temperatura máxima	16.9
83843	7	Sololá	717	San Juan la Laguna	12	San Juan la Laguna	10	Octubre	2023-10-18T00:00:00	2024-11-08T02:00:00	3	Temperatura mínima	16.3
83844	7	Sololá	717	San Juan la Laguna	12	San Juan la Laguna	10	Octubre	2023-10-18T00:00:00	2024-11-08T02:00:00	5	Humedad	82
83845	7	Sololá	717	San Juan la Laguna	12	San Juan la Laguna	10	Octubre	2023-10-18T00:00:00	2024-11-08T02:00:00	6	Velocidad del viento	0
83846	7	Sololá	717	San Juan la Laguna	12	San Juan la Laguna	10	Octubre	2023-10-18T00:00:00	2024-11-08T02:00:00	7	Dirección del viento	0
83847	7	Sololá	717	San Juan la Laguna	12	San Juan la Laguna	10	Octubre	2023-10-18T00:00:00	2024-11-08T02:00:00	1	Precipitación	0
83848	7	Sololá	717	San Juan la Laguna	12	San Juan la Laguna	10	Octubre	2023-10-18T00:00:00	2024-11-08T02:00:00	8	Radiación solar	0
83849	7	Sololá	717	San Juan la Laguna	12	San Juan la Laguna	10	Octubre	2023-10-18T00:00:00	2024-11-08T03:00:00	2	Temperatura media	15.3
83850	7	Sololá	717	San Juan la Laguna	12	San Juan la Laguna	10	Octubre	2023-10-18T00:00:00	2024-11-08T03:00:00	4	Temperatura máxima	16.3
83851	7	Sololá	717	San Juan la Laguna	12	San Juan la Laguna	10	Octubre	2023-10-18T00:00:00	2024-11-08T03:00:00	3	Temperatura mínima	15.3
83852	7	Sololá	717	San Juan la Laguna	12	San Juan la Laguna	10	Octubre	2023-10-18T00:00:00	2024-11-08T03:00:00	5	Humedad	83
83853	7	Sololá	717	San Juan la Laguna	12	San Juan la Laguna	10	Octubre	2023-10-18T00:00:00	2024-11-08T03:00:00	6	Velocidad del viento	0
83854	7	Sololá	717	San Juan la Laguna	12	San Juan la Laguna	10	Octubre	2023-10-18T00:00:00	2024-11-08T03:00:00	7	Dirección del viento	0
83855	7	Sololá	717	San Juan la Laguna	12	San Juan la Laguna	10	Octubre	2023-10-18T00:00:00	2024-11-08T03:00:00	1	Precipitación	0
83856	7	Sololá	717	San Juan la Laguna	12	San Juan la Laguna	10	Octubre	2023-10-18T00:00:00	2024-11-08T03:00:00	8	Radiación solar	0
83857	7	Sololá	717	San Juan la Laguna	12	San Juan la Laguna	10	Octubre	2023-10-18T00:00:00	2024-11-08T04:00:00	2	Temperatura media	14.8
83858	7	Sololá	717	San Juan la Laguna	12	San Juan la Laguna	10	Octubre	2023-10-18T00:00:00	2024-11-08T04:00:00	4	Temperatura máxima	15.3
83859	7	Sololá	717	San Juan la Laguna	12	San Juan la Laguna	10	Octubre	2023-10-18T00:00:00	2024-11-08T04:00:00	3	Temperatura mínima	14.7
83860	7	Sololá	717	San Juan la Laguna	12	San Juan la Laguna	10	Octubre	2023-10-18T00:00:00	2024-11-08T04:00:00	5	Humedad	85
83861	7	Sololá	717	San Juan la Laguna	12	San Juan la Laguna	10	Octubre	2023-10-18T00:00:00	2024-11-08T04:00:00	6	Velocidad del viento	1.6
83862	7	Sololá	717	San Juan la Laguna	12	San Juan la Laguna	10	Octubre	2023-10-18T00:00:00	2024-11-08T04:00:00	7	Dirección del viento	1.61
83863	7	Sololá	717	San Juan la Laguna	12	San Juan la Laguna	10	Octubre	2023-10-18T00:00:00	2024-11-08T04:00:00	1	Precipitación	0
83864	7	Sololá	717	San Juan la Laguna	12	San Juan la Laguna	10	Octubre	2023-10-18T00:00:00	2024-11-08T04:00:00	8	Radiación solar	0
83865	7	Sololá	717	San Juan la Laguna	12	San Juan la Laguna	10	Octubre	2023-10-18T00:00:00	2024-11-08T05:00:00	2	Temperatura media	14.3
83866	7	Sololá	717	San Juan la Laguna	12	San Juan la Laguna	10	Octubre	2023-10-18T00:00:00	2024-11-08T05:00:00	4	Temperatura máxima	14.8
83867	7	Sololá	717	San Juan la Laguna	12	San Juan la Laguna	10	Octubre	2023-10-18T00:00:00	2024-11-08T05:00:00	3	Temperatura mínima	14.2
83868	7	Sololá	717	San Juan la Laguna	12	San Juan la Laguna	10	Octubre	2023-10-18T00:00:00	2024-11-08T05:00:00	5	Humedad	85
83869	7	Sololá	717	San Juan la Laguna	12	San Juan la Laguna	10	Octubre	2023-10-18T00:00:00	2024-11-08T05:00:00	6	Velocidad del viento	0
83870	7	Sololá	717	San Juan la Laguna	12	San Juan la Laguna	10	Octubre	2023-10-18T00:00:00	2024-11-08T05:00:00	7	Dirección del viento	0
83871	7	Sololá	717	San Juan la Laguna	12	San Juan la Laguna	10	Octubre	2023-10-18T00:00:00	2024-11-08T05:00:00	1	Precipitación	0
83872	7	Sololá	717	San Juan la Laguna	12	San Juan la Laguna	10	Octubre	2023-10-18T00:00:00	2024-11-08T05:00:00	8	Radiación solar	0
83873	7	Sololá	717	San Juan la Laguna	12	San Juan la Laguna	10	Octubre	2023-10-18T00:00:00	2024-11-08T06:00:00	2	Temperatura media	14.3
83874	7	Sololá	717	San Juan la Laguna	12	San Juan la Laguna	10	Octubre	2023-10-18T00:00:00	2024-11-08T06:00:00	4	Temperatura máxima	14.4
83875	7	Sololá	717	San Juan la Laguna	12	San Juan la Laguna	10	Octubre	2023-10-18T00:00:00	2024-11-08T06:00:00	3	Temperatura mínima	14.2
83876	7	Sololá	717	San Juan la Laguna	12	San Juan la Laguna	10	Octubre	2023-10-18T00:00:00	2024-11-08T06:00:00	5	Humedad	85
83877	7	Sololá	717	San Juan la Laguna	12	San Juan la Laguna	10	Octubre	2023-10-18T00:00:00	2024-11-08T06:00:00	6	Velocidad del viento	0
83878	7	Sololá	717	San Juan la Laguna	12	San Juan la Laguna	10	Octubre	2023-10-18T00:00:00	2024-11-08T06:00:00	7	Dirección del viento	0
83879	7	Sololá	717	San Juan la Laguna	12	San Juan la Laguna	10	Octubre	2023-10-18T00:00:00	2024-11-08T06:00:00	1	Precipitación	0
83880	7	Sololá	717	San Juan la Laguna	12	San Juan la Laguna	10	Octubre	2023-10-18T00:00:00	2024-11-08T06:00:00	8	Radiación solar	0
83881	7	Sololá	717	San Juan la Laguna	12	San Juan la Laguna	10	Octubre	2023-10-18T00:00:00	2024-11-08T07:00:00	2	Temperatura media	15.7
83882	7	Sololá	717	San Juan la Laguna	12	San Juan la Laguna	10	Octubre	2023-10-18T00:00:00	2024-11-08T07:00:00	4	Temperatura máxima	15.7
83883	7	Sololá	717	San Juan la Laguna	12	San Juan la Laguna	10	Octubre	2023-10-18T00:00:00	2024-11-08T07:00:00	3	Temperatura mínima	14.2
83884	7	Sololá	717	San Juan la Laguna	12	San Juan la Laguna	10	Octubre	2023-10-18T00:00:00	2024-11-08T07:00:00	5	Humedad	83
83885	7	Sololá	717	San Juan la Laguna	12	San Juan la Laguna	10	Octubre	2023-10-18T00:00:00	2024-11-08T07:00:00	6	Velocidad del viento	1.6
83886	7	Sololá	717	San Juan la Laguna	12	San Juan la Laguna	10	Octubre	2023-10-18T00:00:00	2024-11-08T07:00:00	7	Dirección del viento	1.61
83887	7	Sololá	717	San Juan la Laguna	12	San Juan la Laguna	10	Octubre	2023-10-18T00:00:00	2024-11-08T07:00:00	1	Precipitación	0
83888	7	Sololá	717	San Juan la Laguna	12	San Juan la Laguna	10	Octubre	2023-10-18T00:00:00	2024-11-08T07:00:00	8	Radiación solar	66
83889	7	Sololá	717	San Juan la Laguna	12	San Juan la Laguna	10	Octubre	2023-10-18T00:00:00	2024-11-08T08:00:00	2	Temperatura media	19.6
83890	7	Sololá	717	San Juan la Laguna	12	San Juan la Laguna	10	Octubre	2023-10-18T00:00:00	2024-11-08T08:00:00	4	Temperatura máxima	19.6
83891	7	Sololá	717	San Juan la Laguna	12	San Juan la Laguna	10	Octubre	2023-10-18T00:00:00	2024-11-08T08:00:00	3	Temperatura mínima	15.7
83892	7	Sololá	717	San Juan la Laguna	12	San Juan la Laguna	10	Octubre	2023-10-18T00:00:00	2024-11-08T08:00:00	5	Humedad	74
83893	7	Sololá	717	San Juan la Laguna	12	San Juan la Laguna	10	Octubre	2023-10-18T00:00:00	2024-11-08T08:00:00	6	Velocidad del viento	0
83894	7	Sololá	717	San Juan la Laguna	12	San Juan la Laguna	10	Octubre	2023-10-18T00:00:00	2024-11-08T08:00:00	7	Dirección del viento	0
83895	7	Sololá	717	San Juan la Laguna	12	San Juan la Laguna	10	Octubre	2023-10-18T00:00:00	2024-11-08T08:00:00	1	Precipitación	0
83896	7	Sololá	717	San Juan la Laguna	12	San Juan la Laguna	10	Octubre	2023-10-18T00:00:00	2024-11-08T08:00:00	8	Radiación solar	275
83897	7	Sololá	717	San Juan la Laguna	12	San Juan la Laguna	10	Octubre	2023-10-18T00:00:00	2024-11-08T09:00:00	2	Temperatura media	20.9
83898	7	Sololá	717	San Juan la Laguna	12	San Juan la Laguna	10	Octubre	2023-10-18T00:00:00	2024-11-08T09:00:00	4	Temperatura máxima	21.3
83899	7	Sololá	717	San Juan la Laguna	12	San Juan la Laguna	10	Octubre	2023-10-18T00:00:00	2024-11-08T09:00:00	3	Temperatura mínima	19.6
83900	7	Sololá	717	San Juan la Laguna	12	San Juan la Laguna	10	Octubre	2023-10-18T00:00:00	2024-11-08T09:00:00	5	Humedad	72
83901	7	Sololá	717	San Juan la Laguna	12	San Juan la Laguna	10	Octubre	2023-10-18T00:00:00	2024-11-08T09:00:00	6	Velocidad del viento	0
83902	7	Sololá	717	San Juan la Laguna	12	San Juan la Laguna	10	Octubre	2023-10-18T00:00:00	2024-11-08T09:00:00	7	Dirección del viento	0
83903	7	Sololá	717	San Juan la Laguna	12	San Juan la Laguna	10	Octubre	2023-10-18T00:00:00	2024-11-08T09:00:00	1	Precipitación	0
83904	7	Sololá	717	San Juan la Laguna	12	San Juan la Laguna	10	Octubre	2023-10-18T00:00:00	2024-11-08T09:00:00	8	Radiación solar	452
83905	7	Sololá	717	San Juan la Laguna	12	San Juan la Laguna	10	Octubre	2023-10-18T00:00:00	2024-11-08T10:00:00	2	Temperatura media	21.2
83906	7	Sololá	717	San Juan la Laguna	12	San Juan la Laguna	10	Octubre	2023-10-18T00:00:00	2024-11-08T10:00:00	4	Temperatura máxima	22.3
83907	7	Sololá	717	San Juan la Laguna	12	San Juan la Laguna	10	Octubre	2023-10-18T00:00:00	2024-11-08T10:00:00	3	Temperatura mínima	20.8
83908	7	Sololá	717	San Juan la Laguna	12	San Juan la Laguna	10	Octubre	2023-10-18T00:00:00	2024-11-08T10:00:00	5	Humedad	65
83909	7	Sololá	717	San Juan la Laguna	12	San Juan la Laguna	10	Octubre	2023-10-18T00:00:00	2024-11-08T10:00:00	6	Velocidad del viento	0
83910	7	Sololá	717	San Juan la Laguna	12	San Juan la Laguna	10	Octubre	2023-10-18T00:00:00	2024-11-08T10:00:00	7	Dirección del viento	0
83911	7	Sololá	717	San Juan la Laguna	12	San Juan la Laguna	10	Octubre	2023-10-18T00:00:00	2024-11-08T10:00:00	1	Precipitación	0
83912	7	Sololá	717	San Juan la Laguna	12	San Juan la Laguna	10	Octubre	2023-10-18T00:00:00	2024-11-08T10:00:00	8	Radiación solar	408
83913	7	Sololá	717	San Juan la Laguna	12	San Juan la Laguna	10	Octubre	2023-10-18T00:00:00	2024-11-08T11:00:00	2	Temperatura media	22.8
83914	7	Sololá	717	San Juan la Laguna	12	San Juan la Laguna	10	Octubre	2023-10-18T00:00:00	2024-11-08T11:00:00	4	Temperatura máxima	23.4
83915	7	Sololá	717	San Juan la Laguna	12	San Juan la Laguna	10	Octubre	2023-10-18T00:00:00	2024-11-08T11:00:00	3	Temperatura mínima	21.3
83916	7	Sololá	717	San Juan la Laguna	12	San Juan la Laguna	10	Octubre	2023-10-18T00:00:00	2024-11-08T11:00:00	5	Humedad	57
83917	7	Sololá	717	San Juan la Laguna	12	San Juan la Laguna	10	Octubre	2023-10-18T00:00:00	2024-11-08T11:00:00	6	Velocidad del viento	0
83918	7	Sololá	717	San Juan la Laguna	12	San Juan la Laguna	10	Octubre	2023-10-18T00:00:00	2024-11-08T11:00:00	7	Dirección del viento	0
83919	7	Sololá	717	San Juan la Laguna	12	San Juan la Laguna	10	Octubre	2023-10-18T00:00:00	2024-11-08T11:00:00	1	Precipitación	0
83920	7	Sololá	717	San Juan la Laguna	12	San Juan la Laguna	10	Octubre	2023-10-18T00:00:00	2024-11-08T11:00:00	8	Radiación solar	449
83921	7	Sololá	717	San Juan la Laguna	12	San Juan la Laguna	10	Octubre	2023-10-18T00:00:00	2024-11-08T12:00:00	2	Temperatura media	24
83922	7	Sololá	717	San Juan la Laguna	12	San Juan la Laguna	10	Octubre	2023-10-18T00:00:00	2024-11-08T12:00:00	4	Temperatura máxima	24.3
83923	7	Sololá	717	San Juan la Laguna	12	San Juan la Laguna	10	Octubre	2023-10-18T00:00:00	2024-11-08T12:00:00	3	Temperatura mínima	22.8
83924	7	Sololá	717	San Juan la Laguna	12	San Juan la Laguna	10	Octubre	2023-10-18T00:00:00	2024-11-08T12:00:00	5	Humedad	57
83925	7	Sololá	717	San Juan la Laguna	12	San Juan la Laguna	10	Octubre	2023-10-18T00:00:00	2024-11-08T12:00:00	6	Velocidad del viento	0
83926	7	Sololá	717	San Juan la Laguna	12	San Juan la Laguna	10	Octubre	2023-10-18T00:00:00	2024-11-08T12:00:00	7	Dirección del viento	0
83927	7	Sololá	717	San Juan la Laguna	12	San Juan la Laguna	10	Octubre	2023-10-18T00:00:00	2024-11-08T12:00:00	1	Precipitación	0
83928	7	Sololá	717	San Juan la Laguna	12	San Juan la Laguna	10	Octubre	2023-10-18T00:00:00	2024-11-08T12:00:00	8	Radiación solar	737
83929	7	Sololá	717	San Juan la Laguna	12	San Juan la Laguna	10	Octubre	2023-10-18T00:00:00	2024-11-08T13:00:00	2	Temperatura media	24.3
83930	7	Sololá	717	San Juan la Laguna	12	San Juan la Laguna	10	Octubre	2023-10-18T00:00:00	2024-11-08T13:00:00	4	Temperatura máxima	24.3
83931	7	Sololá	717	San Juan la Laguna	12	San Juan la Laguna	10	Octubre	2023-10-18T00:00:00	2024-11-08T13:00:00	3	Temperatura mínima	23.5
83932	7	Sololá	717	San Juan la Laguna	12	San Juan la Laguna	10	Octubre	2023-10-18T00:00:00	2024-11-08T13:00:00	5	Humedad	58
83933	7	Sololá	717	San Juan la Laguna	12	San Juan la Laguna	10	Octubre	2023-10-18T00:00:00	2024-11-08T13:00:00	6	Velocidad del viento	0
83934	7	Sololá	717	San Juan la Laguna	12	San Juan la Laguna	10	Octubre	2023-10-18T00:00:00	2024-11-08T13:00:00	7	Dirección del viento	0
83935	7	Sololá	717	San Juan la Laguna	12	San Juan la Laguna	10	Octubre	2023-10-18T00:00:00	2024-11-08T13:00:00	1	Precipitación	0
83936	7	Sololá	717	San Juan la Laguna	12	San Juan la Laguna	10	Octubre	2023-10-18T00:00:00	2024-11-08T13:00:00	8	Radiación solar	366
83937	7	Sololá	717	San Juan la Laguna	12	San Juan la Laguna	10	Octubre	2023-10-18T00:00:00	2024-11-08T14:00:00	2	Temperatura media	23.9
83938	7	Sololá	717	San Juan la Laguna	12	San Juan la Laguna	10	Octubre	2023-10-18T00:00:00	2024-11-08T14:00:00	4	Temperatura máxima	24.3
83939	7	Sololá	717	San Juan la Laguna	12	San Juan la Laguna	10	Octubre	2023-10-18T00:00:00	2024-11-08T14:00:00	3	Temperatura mínima	23.4
83940	7	Sololá	717	San Juan la Laguna	12	San Juan la Laguna	10	Octubre	2023-10-18T00:00:00	2024-11-08T14:00:00	5	Humedad	62
83941	7	Sololá	717	San Juan la Laguna	12	San Juan la Laguna	10	Octubre	2023-10-18T00:00:00	2024-11-08T14:00:00	6	Velocidad del viento	0
83942	7	Sololá	717	San Juan la Laguna	12	San Juan la Laguna	10	Octubre	2023-10-18T00:00:00	2024-11-08T14:00:00	7	Dirección del viento	0
83943	7	Sololá	717	San Juan la Laguna	12	San Juan la Laguna	10	Octubre	2023-10-18T00:00:00	2024-11-08T14:00:00	1	Precipitación	0
83944	7	Sololá	717	San Juan la Laguna	12	San Juan la Laguna	10	Octubre	2023-10-18T00:00:00	2024-11-08T14:00:00	8	Radiación solar	351
83945	7	Sololá	717	San Juan la Laguna	12	San Juan la Laguna	10	Octubre	2023-10-18T00:00:00	2024-11-08T15:00:00	2	Temperatura media	23.3
83946	7	Sololá	717	San Juan la Laguna	12	San Juan la Laguna	10	Octubre	2023-10-18T00:00:00	2024-11-08T15:00:00	4	Temperatura máxima	23.9
83947	7	Sololá	717	San Juan la Laguna	12	San Juan la Laguna	10	Octubre	2023-10-18T00:00:00	2024-11-08T15:00:00	3	Temperatura mínima	23.3
83948	7	Sololá	717	San Juan la Laguna	12	San Juan la Laguna	10	Octubre	2023-10-18T00:00:00	2024-11-08T15:00:00	5	Humedad	63
83949	7	Sololá	717	San Juan la Laguna	12	San Juan la Laguna	10	Octubre	2023-10-18T00:00:00	2024-11-08T15:00:00	6	Velocidad del viento	0
83950	7	Sololá	717	San Juan la Laguna	12	San Juan la Laguna	10	Octubre	2023-10-18T00:00:00	2024-11-08T15:00:00	7	Dirección del viento	0
83951	7	Sololá	717	San Juan la Laguna	12	San Juan la Laguna	10	Octubre	2023-10-18T00:00:00	2024-11-08T15:00:00	1	Precipitación	0
83952	7	Sololá	717	San Juan la Laguna	12	San Juan la Laguna	10	Octubre	2023-10-18T00:00:00	2024-11-08T15:00:00	8	Radiación solar	225
83953	7	Sololá	717	San Juan la Laguna	12	San Juan la Laguna	10	Octubre	2023-10-18T00:00:00	2024-11-08T16:00:00	2	Temperatura media	22.9
83954	7	Sololá	717	San Juan la Laguna	12	San Juan la Laguna	10	Octubre	2023-10-18T00:00:00	2024-11-08T16:00:00	4	Temperatura máxima	23.4
83955	7	Sololá	717	San Juan la Laguna	12	San Juan la Laguna	10	Octubre	2023-10-18T00:00:00	2024-11-08T16:00:00	3	Temperatura mínima	22.9
83956	7	Sololá	717	San Juan la Laguna	12	San Juan la Laguna	10	Octubre	2023-10-18T00:00:00	2024-11-08T16:00:00	5	Humedad	67
83957	7	Sololá	717	San Juan la Laguna	12	San Juan la Laguna	10	Octubre	2023-10-18T00:00:00	2024-11-08T16:00:00	6	Velocidad del viento	0
83958	7	Sololá	717	San Juan la Laguna	12	San Juan la Laguna	10	Octubre	2023-10-18T00:00:00	2024-11-08T16:00:00	7	Dirección del viento	0
83959	7	Sololá	717	San Juan la Laguna	12	San Juan la Laguna	10	Octubre	2023-10-18T00:00:00	2024-11-08T16:00:00	1	Precipitación	0
83960	7	Sololá	717	San Juan la Laguna	12	San Juan la Laguna	10	Octubre	2023-10-18T00:00:00	2024-11-08T16:00:00	8	Radiación solar	180
83961	7	Sololá	717	San Juan la Laguna	12	San Juan la Laguna	10	Octubre	2023-10-18T00:00:00	2024-11-08T17:00:00	2	Temperatura media	21.8
83962	7	Sololá	717	San Juan la Laguna	12	San Juan la Laguna	10	Octubre	2023-10-18T00:00:00	2024-11-08T17:00:00	4	Temperatura máxima	23.1
83963	7	Sololá	717	San Juan la Laguna	12	San Juan la Laguna	10	Octubre	2023-10-18T00:00:00	2024-11-08T17:00:00	3	Temperatura mínima	21.8
83964	7	Sololá	717	San Juan la Laguna	12	San Juan la Laguna	10	Octubre	2023-10-18T00:00:00	2024-11-08T17:00:00	5	Humedad	67
83965	7	Sololá	717	San Juan la Laguna	12	San Juan la Laguna	10	Octubre	2023-10-18T00:00:00	2024-11-08T17:00:00	6	Velocidad del viento	0
83966	7	Sololá	717	San Juan la Laguna	12	San Juan la Laguna	10	Octubre	2023-10-18T00:00:00	2024-11-08T17:00:00	7	Dirección del viento	0
83967	7	Sololá	717	San Juan la Laguna	12	San Juan la Laguna	10	Octubre	2023-10-18T00:00:00	2024-11-08T17:00:00	1	Precipitación	0
83968	7	Sololá	717	San Juan la Laguna	12	San Juan la Laguna	10	Octubre	2023-10-18T00:00:00	2024-11-08T17:00:00	8	Radiación solar	82
83969	7	Sololá	717	San Juan la Laguna	12	San Juan la Laguna	10	Octubre	2023-10-18T00:00:00	2024-11-08T18:00:00	2	Temperatura media	20.9
83970	7	Sololá	717	San Juan la Laguna	12	San Juan la Laguna	10	Octubre	2023-10-18T00:00:00	2024-11-08T18:00:00	4	Temperatura máxima	21.8
83971	7	Sololá	717	San Juan la Laguna	12	San Juan la Laguna	10	Octubre	2023-10-18T00:00:00	2024-11-08T18:00:00	3	Temperatura mínima	20.9
83972	7	Sololá	717	San Juan la Laguna	12	San Juan la Laguna	10	Octubre	2023-10-18T00:00:00	2024-11-08T18:00:00	5	Humedad	68
83973	7	Sololá	717	San Juan la Laguna	12	San Juan la Laguna	10	Octubre	2023-10-18T00:00:00	2024-11-08T18:00:00	6	Velocidad del viento	0
83974	7	Sololá	717	San Juan la Laguna	12	San Juan la Laguna	10	Octubre	2023-10-18T00:00:00	2024-11-08T18:00:00	7	Dirección del viento	0
83975	7	Sololá	717	San Juan la Laguna	12	San Juan la Laguna	10	Octubre	2023-10-18T00:00:00	2024-11-08T18:00:00	1	Precipitación	0
83976	7	Sololá	717	San Juan la Laguna	12	San Juan la Laguna	10	Octubre	2023-10-18T00:00:00	2024-11-08T18:00:00	8	Radiación solar	5
83977	7	Sololá	717	San Juan la Laguna	12	San Juan la Laguna	10	Octubre	2023-10-18T00:00:00	2024-11-08T19:00:00	2	Temperatura media	20.5
83978	7	Sololá	717	San Juan la Laguna	12	San Juan la Laguna	10	Octubre	2023-10-18T00:00:00	2024-11-08T19:00:00	4	Temperatura máxima	20.9
83979	7	Sololá	717	San Juan la Laguna	12	San Juan la Laguna	10	Octubre	2023-10-18T00:00:00	2024-11-08T19:00:00	3	Temperatura mínima	20.4
83980	7	Sololá	717	San Juan la Laguna	12	San Juan la Laguna	10	Octubre	2023-10-18T00:00:00	2024-11-08T19:00:00	5	Humedad	70
83981	7	Sololá	717	San Juan la Laguna	12	San Juan la Laguna	10	Octubre	2023-10-18T00:00:00	2024-11-08T19:00:00	6	Velocidad del viento	0
83982	7	Sololá	717	San Juan la Laguna	12	San Juan la Laguna	10	Octubre	2023-10-18T00:00:00	2024-11-08T19:00:00	7	Dirección del viento	0
83983	7	Sololá	717	San Juan la Laguna	12	San Juan la Laguna	10	Octubre	2023-10-18T00:00:00	2024-11-08T19:00:00	1	Precipitación	0
83984	7	Sololá	717	San Juan la Laguna	12	San Juan la Laguna	10	Octubre	2023-10-18T00:00:00	2024-11-08T19:00:00	8	Radiación solar	0
83985	7	Sololá	717	San Juan la Laguna	12	San Juan la Laguna	10	Octubre	2023-10-18T00:00:00	2024-11-08T20:00:00	2	Temperatura media	20.4
83986	7	Sololá	717	San Juan la Laguna	12	San Juan la Laguna	10	Octubre	2023-10-18T00:00:00	2024-11-08T20:00:00	4	Temperatura máxima	20.7
83987	7	Sololá	717	San Juan la Laguna	12	San Juan la Laguna	10	Octubre	2023-10-18T00:00:00	2024-11-08T20:00:00	3	Temperatura mínima	20.2
83988	7	Sololá	717	San Juan la Laguna	12	San Juan la Laguna	10	Octubre	2023-10-18T00:00:00	2024-11-08T20:00:00	5	Humedad	70
83989	7	Sololá	717	San Juan la Laguna	12	San Juan la Laguna	10	Octubre	2023-10-18T00:00:00	2024-11-08T20:00:00	6	Velocidad del viento	0
83990	7	Sololá	717	San Juan la Laguna	12	San Juan la Laguna	10	Octubre	2023-10-18T00:00:00	2024-11-08T20:00:00	7	Dirección del viento	0
83991	7	Sololá	717	San Juan la Laguna	12	San Juan la Laguna	10	Octubre	2023-10-18T00:00:00	2024-11-08T20:00:00	1	Precipitación	0
83992	7	Sololá	717	San Juan la Laguna	12	San Juan la Laguna	10	Octubre	2023-10-18T00:00:00	2024-11-08T20:00:00	8	Radiación solar	0
83993	7	Sololá	717	San Juan la Laguna	12	San Juan la Laguna	10	Octubre	2023-10-18T00:00:00	2024-11-08T21:00:00	2	Temperatura media	19.2
83994	7	Sololá	717	San Juan la Laguna	12	San Juan la Laguna	10	Octubre	2023-10-18T00:00:00	2024-11-08T21:00:00	4	Temperatura máxima	20.4
83995	7	Sololá	717	San Juan la Laguna	12	San Juan la Laguna	10	Octubre	2023-10-18T00:00:00	2024-11-08T21:00:00	3	Temperatura mínima	18.9
83996	7	Sololá	717	San Juan la Laguna	12	San Juan la Laguna	10	Octubre	2023-10-18T00:00:00	2024-11-08T21:00:00	5	Humedad	77
83997	7	Sololá	717	San Juan la Laguna	12	San Juan la Laguna	10	Octubre	2023-10-18T00:00:00	2024-11-08T21:00:00	6	Velocidad del viento	0
83998	7	Sololá	717	San Juan la Laguna	12	San Juan la Laguna	10	Octubre	2023-10-18T00:00:00	2024-11-08T21:00:00	7	Dirección del viento	0
83999	7	Sololá	717	San Juan la Laguna	12	San Juan la Laguna	10	Octubre	2023-10-18T00:00:00	2024-11-08T21:00:00	1	Precipitación	0
84000	7	Sololá	717	San Juan la Laguna	12	San Juan la Laguna	10	Octubre	2023-10-18T00:00:00	2024-11-08T21:00:00	8	Radiación solar	0
84001	7	Sololá	717	San Juan la Laguna	12	San Juan la Laguna	10	Octubre	2023-10-18T00:00:00	2024-11-08T22:00:00	2	Temperatura media	19.8
84002	7	Sololá	717	San Juan la Laguna	12	San Juan la Laguna	10	Octubre	2023-10-18T00:00:00	2024-11-08T22:00:00	4	Temperatura máxima	20.2
84003	7	Sololá	717	San Juan la Laguna	12	San Juan la Laguna	10	Octubre	2023-10-18T00:00:00	2024-11-08T22:00:00	3	Temperatura mínima	19.2
84004	7	Sololá	717	San Juan la Laguna	12	San Juan la Laguna	10	Octubre	2023-10-18T00:00:00	2024-11-08T22:00:00	5	Humedad	73
84005	7	Sololá	717	San Juan la Laguna	12	San Juan la Laguna	10	Octubre	2023-10-18T00:00:00	2024-11-08T22:00:00	6	Velocidad del viento	0
84006	7	Sololá	717	San Juan la Laguna	12	San Juan la Laguna	10	Octubre	2023-10-18T00:00:00	2024-11-08T22:00:00	7	Dirección del viento	0
84007	7	Sololá	717	San Juan la Laguna	12	San Juan la Laguna	10	Octubre	2023-10-18T00:00:00	2024-11-08T22:00:00	1	Precipitación	0
84008	7	Sololá	717	San Juan la Laguna	12	San Juan la Laguna	10	Octubre	2023-10-18T00:00:00	2024-11-08T22:00:00	8	Radiación solar	0
84009	7	Sololá	717	San Juan la Laguna	12	San Juan la Laguna	10	Octubre	2023-10-18T00:00:00	2024-11-08T23:00:00	2	Temperatura media	17.5
84010	7	Sololá	717	San Juan la Laguna	12	San Juan la Laguna	10	Octubre	2023-10-18T00:00:00	2024-11-08T23:00:00	4	Temperatura máxima	19.8
84011	7	Sololá	717	San Juan la Laguna	12	San Juan la Laguna	10	Octubre	2023-10-18T00:00:00	2024-11-08T23:00:00	3	Temperatura mínima	17.5
84012	7	Sololá	717	San Juan la Laguna	12	San Juan la Laguna	10	Octubre	2023-10-18T00:00:00	2024-11-08T23:00:00	5	Humedad	82
84013	7	Sololá	717	San Juan la Laguna	12	San Juan la Laguna	10	Octubre	2023-10-18T00:00:00	2024-11-08T23:00:00	6	Velocidad del viento	0
84014	7	Sololá	717	San Juan la Laguna	12	San Juan la Laguna	10	Octubre	2023-10-18T00:00:00	2024-11-08T23:00:00	7	Dirección del viento	0
84015	7	Sololá	717	San Juan la Laguna	12	San Juan la Laguna	10	Octubre	2023-10-18T00:00:00	2024-11-08T23:00:00	1	Precipitación	0
84016	7	Sololá	717	San Juan la Laguna	12	San Juan la Laguna	10	Octubre	2023-10-18T00:00:00	2024-11-08T23:00:00	8	Radiación solar	0
84017	7	Sololá	717	San Juan la Laguna	12	San Juan la Laguna	10	Octubre	2023-10-19T00:00:00	2024-11-08T00:00:00	2	Temperatura media	16.7
84018	7	Sololá	717	San Juan la Laguna	12	San Juan la Laguna	10	Octubre	2023-10-19T00:00:00	2024-11-08T00:00:00	4	Temperatura máxima	17.5
84019	7	Sololá	717	San Juan la Laguna	12	San Juan la Laguna	10	Octubre	2023-10-19T00:00:00	2024-11-08T00:00:00	3	Temperatura mínima	16.7
84020	7	Sololá	717	San Juan la Laguna	12	San Juan la Laguna	10	Octubre	2023-10-19T00:00:00	2024-11-08T00:00:00	5	Humedad	83
84021	7	Sololá	717	San Juan la Laguna	12	San Juan la Laguna	10	Octubre	2023-10-19T00:00:00	2024-11-08T00:00:00	6	Velocidad del viento	0
84022	7	Sololá	717	San Juan la Laguna	12	San Juan la Laguna	10	Octubre	2023-10-19T00:00:00	2024-11-08T00:00:00	7	Dirección del viento	0
84023	7	Sololá	717	San Juan la Laguna	12	San Juan la Laguna	10	Octubre	2023-10-19T00:00:00	2024-11-08T00:00:00	1	Precipitación	0
84024	7	Sololá	717	San Juan la Laguna	12	San Juan la Laguna	10	Octubre	2023-10-19T00:00:00	2024-11-08T00:00:00	8	Radiación solar	0
84025	7	Sololá	717	San Juan la Laguna	12	San Juan la Laguna	10	Octubre	2023-10-19T00:00:00	2024-11-08T01:00:00	2	Temperatura media	16.2
84026	7	Sololá	717	San Juan la Laguna	12	San Juan la Laguna	10	Octubre	2023-10-19T00:00:00	2024-11-08T01:00:00	4	Temperatura máxima	16.7
84027	7	Sololá	717	San Juan la Laguna	12	San Juan la Laguna	10	Octubre	2023-10-19T00:00:00	2024-11-08T01:00:00	3	Temperatura mínima	16.2
84028	7	Sololá	717	San Juan la Laguna	12	San Juan la Laguna	10	Octubre	2023-10-19T00:00:00	2024-11-08T01:00:00	5	Humedad	84
84029	7	Sololá	717	San Juan la Laguna	12	San Juan la Laguna	10	Octubre	2023-10-19T00:00:00	2024-11-08T01:00:00	6	Velocidad del viento	0
84030	7	Sololá	717	San Juan la Laguna	12	San Juan la Laguna	10	Octubre	2023-10-19T00:00:00	2024-11-08T01:00:00	7	Dirección del viento	0
84031	7	Sololá	717	San Juan la Laguna	12	San Juan la Laguna	10	Octubre	2023-10-19T00:00:00	2024-11-08T01:00:00	1	Precipitación	0
84032	7	Sololá	717	San Juan la Laguna	12	San Juan la Laguna	10	Octubre	2023-10-19T00:00:00	2024-11-08T01:00:00	8	Radiación solar	0
84033	7	Sololá	717	San Juan la Laguna	12	San Juan la Laguna	10	Octubre	2023-10-19T00:00:00	2024-11-08T02:00:00	2	Temperatura media	16.1
84034	7	Sololá	717	San Juan la Laguna	12	San Juan la Laguna	10	Octubre	2023-10-19T00:00:00	2024-11-08T02:00:00	4	Temperatura máxima	16.3
84035	7	Sololá	717	San Juan la Laguna	12	San Juan la Laguna	10	Octubre	2023-10-19T00:00:00	2024-11-08T02:00:00	3	Temperatura mínima	16.1
84036	7	Sololá	717	San Juan la Laguna	12	San Juan la Laguna	10	Octubre	2023-10-19T00:00:00	2024-11-08T02:00:00	5	Humedad	84
84037	7	Sololá	717	San Juan la Laguna	12	San Juan la Laguna	10	Octubre	2023-10-19T00:00:00	2024-11-08T02:00:00	6	Velocidad del viento	0
84038	7	Sololá	717	San Juan la Laguna	12	San Juan la Laguna	10	Octubre	2023-10-19T00:00:00	2024-11-08T02:00:00	7	Dirección del viento	0
84039	7	Sololá	717	San Juan la Laguna	12	San Juan la Laguna	10	Octubre	2023-10-19T00:00:00	2024-11-08T02:00:00	1	Precipitación	0
84040	7	Sololá	717	San Juan la Laguna	12	San Juan la Laguna	10	Octubre	2023-10-19T00:00:00	2024-11-08T02:00:00	8	Radiación solar	0
84041	7	Sololá	717	San Juan la Laguna	12	San Juan la Laguna	10	Octubre	2023-10-19T00:00:00	2024-11-08T03:00:00	2	Temperatura media	15.9
84042	7	Sololá	717	San Juan la Laguna	12	San Juan la Laguna	10	Octubre	2023-10-19T00:00:00	2024-11-08T03:00:00	4	Temperatura máxima	16.1
84043	7	Sololá	717	San Juan la Laguna	12	San Juan la Laguna	10	Octubre	2023-10-19T00:00:00	2024-11-08T03:00:00	3	Temperatura mínima	15.9
84044	7	Sololá	717	San Juan la Laguna	12	San Juan la Laguna	10	Octubre	2023-10-19T00:00:00	2024-11-08T03:00:00	5	Humedad	85
84045	7	Sololá	717	San Juan la Laguna	12	San Juan la Laguna	10	Octubre	2023-10-19T00:00:00	2024-11-08T03:00:00	6	Velocidad del viento	0
84046	7	Sololá	717	San Juan la Laguna	12	San Juan la Laguna	10	Octubre	2023-10-19T00:00:00	2024-11-08T03:00:00	7	Dirección del viento	0
84047	7	Sololá	717	San Juan la Laguna	12	San Juan la Laguna	10	Octubre	2023-10-19T00:00:00	2024-11-08T03:00:00	1	Precipitación	0
84048	7	Sololá	717	San Juan la Laguna	12	San Juan la Laguna	10	Octubre	2023-10-19T00:00:00	2024-11-08T03:00:00	8	Radiación solar	0
84049	7	Sololá	717	San Juan la Laguna	12	San Juan la Laguna	10	Octubre	2023-10-19T00:00:00	2024-11-08T04:00:00	2	Temperatura media	15.8
84050	7	Sololá	717	San Juan la Laguna	12	San Juan la Laguna	10	Octubre	2023-10-19T00:00:00	2024-11-08T04:00:00	4	Temperatura máxima	16.1
84051	7	Sololá	717	San Juan la Laguna	12	San Juan la Laguna	10	Octubre	2023-10-19T00:00:00	2024-11-08T04:00:00	3	Temperatura mínima	15.8
84052	7	Sololá	717	San Juan la Laguna	12	San Juan la Laguna	10	Octubre	2023-10-19T00:00:00	2024-11-08T04:00:00	5	Humedad	84
84053	7	Sololá	717	San Juan la Laguna	12	San Juan la Laguna	10	Octubre	2023-10-19T00:00:00	2024-11-08T04:00:00	6	Velocidad del viento	0
84054	7	Sololá	717	San Juan la Laguna	12	San Juan la Laguna	10	Octubre	2023-10-19T00:00:00	2024-11-08T04:00:00	7	Dirección del viento	0
84055	7	Sololá	717	San Juan la Laguna	12	San Juan la Laguna	10	Octubre	2023-10-19T00:00:00	2024-11-08T04:00:00	1	Precipitación	0
84056	7	Sololá	717	San Juan la Laguna	12	San Juan la Laguna	10	Octubre	2023-10-19T00:00:00	2024-11-08T04:00:00	8	Radiación solar	0
84057	7	Sololá	717	San Juan la Laguna	12	San Juan la Laguna	10	Octubre	2023-10-19T00:00:00	2024-11-08T05:00:00	2	Temperatura media	15.6
84058	7	Sololá	717	San Juan la Laguna	12	San Juan la Laguna	10	Octubre	2023-10-19T00:00:00	2024-11-08T05:00:00	4	Temperatura máxima	15.8
84059	7	Sololá	717	San Juan la Laguna	12	San Juan la Laguna	10	Octubre	2023-10-19T00:00:00	2024-11-08T05:00:00	3	Temperatura mínima	15.6
84060	7	Sololá	717	San Juan la Laguna	12	San Juan la Laguna	10	Octubre	2023-10-19T00:00:00	2024-11-08T05:00:00	5	Humedad	85
84061	7	Sololá	717	San Juan la Laguna	12	San Juan la Laguna	10	Octubre	2023-10-19T00:00:00	2024-11-08T05:00:00	6	Velocidad del viento	0
84062	7	Sololá	717	San Juan la Laguna	12	San Juan la Laguna	10	Octubre	2023-10-19T00:00:00	2024-11-08T05:00:00	7	Dirección del viento	0
84063	7	Sololá	717	San Juan la Laguna	12	San Juan la Laguna	10	Octubre	2023-10-19T00:00:00	2024-11-08T05:00:00	1	Precipitación	0
84064	7	Sololá	717	San Juan la Laguna	12	San Juan la Laguna	10	Octubre	2023-10-19T00:00:00	2024-11-08T05:00:00	8	Radiación solar	0
84065	7	Sololá	717	San Juan la Laguna	12	San Juan la Laguna	10	Octubre	2023-10-19T00:00:00	2024-11-08T06:00:00	2	Temperatura media	15.2
84066	7	Sololá	717	San Juan la Laguna	12	San Juan la Laguna	10	Octubre	2023-10-19T00:00:00	2024-11-08T06:00:00	4	Temperatura máxima	15.6
84067	7	Sololá	717	San Juan la Laguna	12	San Juan la Laguna	10	Octubre	2023-10-19T00:00:00	2024-11-08T06:00:00	3	Temperatura mínima	14.9
84068	7	Sololá	717	San Juan la Laguna	12	San Juan la Laguna	10	Octubre	2023-10-19T00:00:00	2024-11-08T06:00:00	5	Humedad	87
84069	7	Sololá	717	San Juan la Laguna	12	San Juan la Laguna	10	Octubre	2023-10-19T00:00:00	2024-11-08T06:00:00	6	Velocidad del viento	0
84070	7	Sololá	717	San Juan la Laguna	12	San Juan la Laguna	10	Octubre	2023-10-19T00:00:00	2024-11-08T06:00:00	7	Dirección del viento	0
84071	7	Sololá	717	San Juan la Laguna	12	San Juan la Laguna	10	Octubre	2023-10-19T00:00:00	2024-11-08T06:00:00	1	Precipitación	0
84072	7	Sololá	717	San Juan la Laguna	12	San Juan la Laguna	10	Octubre	2023-10-19T00:00:00	2024-11-08T06:00:00	8	Radiación solar	0
84073	7	Sololá	717	San Juan la Laguna	12	San Juan la Laguna	10	Octubre	2023-10-19T00:00:00	2024-11-08T07:00:00	2	Temperatura media	16.4
84074	7	Sololá	717	San Juan la Laguna	12	San Juan la Laguna	10	Octubre	2023-10-19T00:00:00	2024-11-08T07:00:00	4	Temperatura máxima	16.4
84075	7	Sololá	717	San Juan la Laguna	12	San Juan la Laguna	10	Octubre	2023-10-19T00:00:00	2024-11-08T07:00:00	3	Temperatura mínima	15.1
84076	7	Sololá	717	San Juan la Laguna	12	San Juan la Laguna	10	Octubre	2023-10-19T00:00:00	2024-11-08T07:00:00	5	Humedad	84
84077	7	Sololá	717	San Juan la Laguna	12	San Juan la Laguna	10	Octubre	2023-10-19T00:00:00	2024-11-08T07:00:00	6	Velocidad del viento	0
84078	7	Sololá	717	San Juan la Laguna	12	San Juan la Laguna	10	Octubre	2023-10-19T00:00:00	2024-11-08T07:00:00	7	Dirección del viento	0
84079	7	Sololá	717	San Juan la Laguna	12	San Juan la Laguna	10	Octubre	2023-10-19T00:00:00	2024-11-08T07:00:00	1	Precipitación	0
84080	7	Sololá	717	San Juan la Laguna	12	San Juan la Laguna	10	Octubre	2023-10-19T00:00:00	2024-11-08T07:00:00	8	Radiación solar	47
84081	7	Sololá	717	San Juan la Laguna	12	San Juan la Laguna	10	Octubre	2023-10-19T00:00:00	2024-11-08T08:00:00	2	Temperatura media	21.2
84082	7	Sololá	717	San Juan la Laguna	12	San Juan la Laguna	10	Octubre	2023-10-19T00:00:00	2024-11-08T08:00:00	4	Temperatura máxima	21.2
84083	7	Sololá	717	San Juan la Laguna	12	San Juan la Laguna	10	Octubre	2023-10-19T00:00:00	2024-11-08T08:00:00	3	Temperatura mínima	16.4
84084	7	Sololá	717	San Juan la Laguna	12	San Juan la Laguna	10	Octubre	2023-10-19T00:00:00	2024-11-08T08:00:00	5	Humedad	72
84085	7	Sololá	717	San Juan la Laguna	12	San Juan la Laguna	10	Octubre	2023-10-19T00:00:00	2024-11-08T08:00:00	6	Velocidad del viento	0
84086	7	Sololá	717	San Juan la Laguna	12	San Juan la Laguna	10	Octubre	2023-10-19T00:00:00	2024-11-08T08:00:00	7	Dirección del viento	0
84087	7	Sololá	717	San Juan la Laguna	12	San Juan la Laguna	10	Octubre	2023-10-19T00:00:00	2024-11-08T08:00:00	1	Precipitación	0
84088	7	Sololá	717	San Juan la Laguna	12	San Juan la Laguna	10	Octubre	2023-10-19T00:00:00	2024-11-08T08:00:00	8	Radiación solar	280
84089	7	Sololá	717	San Juan la Laguna	12	San Juan la Laguna	10	Octubre	2023-10-19T00:00:00	2024-11-08T09:00:00	2	Temperatura media	23.1
84090	7	Sololá	717	San Juan la Laguna	12	San Juan la Laguna	10	Octubre	2023-10-19T00:00:00	2024-11-08T09:00:00	4	Temperatura máxima	23.1
84091	7	Sololá	717	San Juan la Laguna	12	San Juan la Laguna	10	Octubre	2023-10-19T00:00:00	2024-11-08T09:00:00	3	Temperatura mínima	21.2
84092	7	Sololá	717	San Juan la Laguna	12	San Juan la Laguna	10	Octubre	2023-10-19T00:00:00	2024-11-08T09:00:00	5	Humedad	64
84093	7	Sololá	717	San Juan la Laguna	12	San Juan la Laguna	10	Octubre	2023-10-19T00:00:00	2024-11-08T09:00:00	6	Velocidad del viento	0
84094	7	Sololá	717	San Juan la Laguna	12	San Juan la Laguna	10	Octubre	2023-10-19T00:00:00	2024-11-08T09:00:00	7	Dirección del viento	0
84095	7	Sololá	717	San Juan la Laguna	12	San Juan la Laguna	10	Octubre	2023-10-19T00:00:00	2024-11-08T09:00:00	1	Precipitación	0
84096	7	Sololá	717	San Juan la Laguna	12	San Juan la Laguna	10	Octubre	2023-10-19T00:00:00	2024-11-08T09:00:00	8	Radiación solar	495
84097	7	Sololá	717	San Juan la Laguna	12	San Juan la Laguna	10	Octubre	2023-10-19T00:00:00	2024-11-08T10:00:00	2	Temperatura media	24.3
84098	7	Sololá	717	San Juan la Laguna	12	San Juan la Laguna	10	Octubre	2023-10-19T00:00:00	2024-11-08T10:00:00	4	Temperatura máxima	24.5
84099	7	Sololá	717	San Juan la Laguna	12	San Juan la Laguna	10	Octubre	2023-10-19T00:00:00	2024-11-08T10:00:00	3	Temperatura mínima	22.9
84100	7	Sololá	717	San Juan la Laguna	12	San Juan la Laguna	10	Octubre	2023-10-19T00:00:00	2024-11-08T10:00:00	5	Humedad	57
84101	7	Sololá	717	San Juan la Laguna	12	San Juan la Laguna	10	Octubre	2023-10-19T00:00:00	2024-11-08T10:00:00	6	Velocidad del viento	0
84102	7	Sololá	717	San Juan la Laguna	12	San Juan la Laguna	10	Octubre	2023-10-19T00:00:00	2024-11-08T10:00:00	7	Dirección del viento	0
84103	7	Sololá	717	San Juan la Laguna	12	San Juan la Laguna	10	Octubre	2023-10-19T00:00:00	2024-11-08T10:00:00	1	Precipitación	0
84104	7	Sololá	717	San Juan la Laguna	12	San Juan la Laguna	10	Octubre	2023-10-19T00:00:00	2024-11-08T10:00:00	8	Radiación solar	683
84105	7	Sololá	717	San Juan la Laguna	12	San Juan la Laguna	10	Octubre	2023-10-19T00:00:00	2024-11-08T11:00:00	2	Temperatura media	24.2
84106	7	Sololá	717	San Juan la Laguna	12	San Juan la Laguna	10	Octubre	2023-10-19T00:00:00	2024-11-08T11:00:00	4	Temperatura máxima	24.4
84107	7	Sololá	717	San Juan la Laguna	12	San Juan la Laguna	10	Octubre	2023-10-19T00:00:00	2024-11-08T11:00:00	3	Temperatura mínima	23.5
84108	7	Sololá	717	San Juan la Laguna	12	San Juan la Laguna	10	Octubre	2023-10-19T00:00:00	2024-11-08T11:00:00	5	Humedad	61
84109	7	Sololá	717	San Juan la Laguna	12	San Juan la Laguna	10	Octubre	2023-10-19T00:00:00	2024-11-08T11:00:00	6	Velocidad del viento	0
84110	7	Sololá	717	San Juan la Laguna	12	San Juan la Laguna	10	Octubre	2023-10-19T00:00:00	2024-11-08T11:00:00	7	Dirección del viento	0
84111	7	Sololá	717	San Juan la Laguna	12	San Juan la Laguna	10	Octubre	2023-10-19T00:00:00	2024-11-08T11:00:00	1	Precipitación	0
84112	7	Sololá	717	San Juan la Laguna	12	San Juan la Laguna	10	Octubre	2023-10-19T00:00:00	2024-11-08T11:00:00	8	Radiación solar	457
84113	7	Sololá	717	San Juan la Laguna	12	San Juan la Laguna	10	Octubre	2023-10-19T00:00:00	2024-11-08T12:00:00	2	Temperatura media	22.9
84114	7	Sololá	717	San Juan la Laguna	12	San Juan la Laguna	10	Octubre	2023-10-19T00:00:00	2024-11-08T12:00:00	4	Temperatura máxima	24.8
84115	7	Sololá	717	San Juan la Laguna	12	San Juan la Laguna	10	Octubre	2023-10-19T00:00:00	2024-11-08T12:00:00	3	Temperatura mínima	22.9
84116	7	Sololá	717	San Juan la Laguna	12	San Juan la Laguna	10	Octubre	2023-10-19T00:00:00	2024-11-08T12:00:00	5	Humedad	68
84117	7	Sololá	717	San Juan la Laguna	12	San Juan la Laguna	10	Octubre	2023-10-19T00:00:00	2024-11-08T12:00:00	6	Velocidad del viento	0
84118	7	Sololá	717	San Juan la Laguna	12	San Juan la Laguna	10	Octubre	2023-10-19T00:00:00	2024-11-08T12:00:00	7	Dirección del viento	0
84119	7	Sololá	717	San Juan la Laguna	12	San Juan la Laguna	10	Octubre	2023-10-19T00:00:00	2024-11-08T12:00:00	1	Precipitación	0
84120	7	Sololá	717	San Juan la Laguna	12	San Juan la Laguna	10	Octubre	2023-10-19T00:00:00	2024-11-08T12:00:00	8	Radiación solar	430
84121	7	Sololá	717	San Juan la Laguna	12	San Juan la Laguna	10	Octubre	2023-10-19T00:00:00	2024-11-08T13:00:00	2	Temperatura media	21.8
84122	7	Sololá	717	San Juan la Laguna	12	San Juan la Laguna	10	Octubre	2023-10-19T00:00:00	2024-11-08T13:00:00	4	Temperatura máxima	23
84123	7	Sololá	717	San Juan la Laguna	12	San Juan la Laguna	10	Octubre	2023-10-19T00:00:00	2024-11-08T13:00:00	3	Temperatura mínima	21.8
84124	7	Sololá	717	San Juan la Laguna	12	San Juan la Laguna	10	Octubre	2023-10-19T00:00:00	2024-11-08T13:00:00	5	Humedad	77
84125	7	Sololá	717	San Juan la Laguna	12	San Juan la Laguna	10	Octubre	2023-10-19T00:00:00	2024-11-08T13:00:00	6	Velocidad del viento	0
84126	7	Sololá	717	San Juan la Laguna	12	San Juan la Laguna	10	Octubre	2023-10-19T00:00:00	2024-11-08T13:00:00	7	Dirección del viento	0
84127	7	Sololá	717	San Juan la Laguna	12	San Juan la Laguna	10	Octubre	2023-10-19T00:00:00	2024-11-08T13:00:00	1	Precipitación	0
84128	7	Sololá	717	San Juan la Laguna	12	San Juan la Laguna	10	Octubre	2023-10-19T00:00:00	2024-11-08T13:00:00	8	Radiación solar	194
84129	7	Sololá	717	San Juan la Laguna	12	San Juan la Laguna	10	Octubre	2023-10-19T00:00:00	2024-11-08T14:00:00	2	Temperatura media	21.6
84130	7	Sololá	717	San Juan la Laguna	12	San Juan la Laguna	10	Octubre	2023-10-19T00:00:00	2024-11-08T14:00:00	4	Temperatura máxima	21.8
84131	7	Sololá	717	San Juan la Laguna	12	San Juan la Laguna	10	Octubre	2023-10-19T00:00:00	2024-11-08T14:00:00	3	Temperatura mínima	21.4
84132	7	Sololá	717	San Juan la Laguna	12	San Juan la Laguna	10	Octubre	2023-10-19T00:00:00	2024-11-08T14:00:00	5	Humedad	79
84133	7	Sololá	717	San Juan la Laguna	12	San Juan la Laguna	10	Octubre	2023-10-19T00:00:00	2024-11-08T14:00:00	6	Velocidad del viento	0
84134	7	Sololá	717	San Juan la Laguna	12	San Juan la Laguna	10	Octubre	2023-10-19T00:00:00	2024-11-08T14:00:00	7	Dirección del viento	0
84135	7	Sololá	717	San Juan la Laguna	12	San Juan la Laguna	10	Octubre	2023-10-19T00:00:00	2024-11-08T14:00:00	1	Precipitación	0
84136	7	Sololá	717	San Juan la Laguna	12	San Juan la Laguna	10	Octubre	2023-10-19T00:00:00	2024-11-08T14:00:00	8	Radiación solar	155
84137	7	Sololá	717	San Juan la Laguna	12	San Juan la Laguna	10	Octubre	2023-10-19T00:00:00	2024-11-08T15:00:00	2	Temperatura media	22.1
84138	7	Sololá	717	San Juan la Laguna	12	San Juan la Laguna	10	Octubre	2023-10-19T00:00:00	2024-11-08T15:00:00	4	Temperatura máxima	22.1
84139	7	Sololá	717	San Juan la Laguna	12	San Juan la Laguna	10	Octubre	2023-10-19T00:00:00	2024-11-08T15:00:00	3	Temperatura mínima	19.9
84140	7	Sololá	717	San Juan la Laguna	12	San Juan la Laguna	10	Octubre	2023-10-19T00:00:00	2024-11-08T15:00:00	5	Humedad	78
84141	7	Sololá	717	San Juan la Laguna	12	San Juan la Laguna	10	Octubre	2023-10-19T00:00:00	2024-11-08T15:00:00	6	Velocidad del viento	0
84142	7	Sololá	717	San Juan la Laguna	12	San Juan la Laguna	10	Octubre	2023-10-19T00:00:00	2024-11-08T15:00:00	7	Dirección del viento	0
84143	7	Sololá	717	San Juan la Laguna	12	San Juan la Laguna	10	Octubre	2023-10-19T00:00:00	2024-11-08T15:00:00	1	Precipitación	0
84144	7	Sololá	717	San Juan la Laguna	12	San Juan la Laguna	10	Octubre	2023-10-19T00:00:00	2024-11-08T15:00:00	8	Radiación solar	210
84145	7	Sololá	717	San Juan la Laguna	12	San Juan la Laguna	10	Octubre	2023-10-19T00:00:00	2024-11-08T16:00:00	2	Temperatura media	20.2
84146	7	Sololá	717	San Juan la Laguna	12	San Juan la Laguna	10	Octubre	2023-10-19T00:00:00	2024-11-08T16:00:00	4	Temperatura máxima	22.1
84147	7	Sololá	717	San Juan la Laguna	12	San Juan la Laguna	10	Octubre	2023-10-19T00:00:00	2024-11-08T16:00:00	3	Temperatura mínima	20.2
84148	7	Sololá	717	San Juan la Laguna	12	San Juan la Laguna	10	Octubre	2023-10-19T00:00:00	2024-11-08T16:00:00	5	Humedad	85
84149	7	Sololá	717	San Juan la Laguna	12	San Juan la Laguna	10	Octubre	2023-10-19T00:00:00	2024-11-08T16:00:00	6	Velocidad del viento	1.6
84150	7	Sololá	717	San Juan la Laguna	12	San Juan la Laguna	10	Octubre	2023-10-19T00:00:00	2024-11-08T16:00:00	7	Dirección del viento	1.61
84151	7	Sololá	717	San Juan la Laguna	12	San Juan la Laguna	10	Octubre	2023-10-19T00:00:00	2024-11-08T16:00:00	1	Precipitación	0
84152	7	Sololá	717	San Juan la Laguna	12	San Juan la Laguna	10	Octubre	2023-10-19T00:00:00	2024-11-08T16:00:00	8	Radiación solar	144
84153	7	Sololá	717	San Juan la Laguna	12	San Juan la Laguna	10	Octubre	2023-10-19T00:00:00	2024-11-08T17:00:00	2	Temperatura media	19.4
84154	7	Sololá	717	San Juan la Laguna	12	San Juan la Laguna	10	Octubre	2023-10-19T00:00:00	2024-11-08T17:00:00	4	Temperatura máxima	20.2
84155	7	Sololá	717	San Juan la Laguna	12	San Juan la Laguna	10	Octubre	2023-10-19T00:00:00	2024-11-08T17:00:00	3	Temperatura mínima	19.4
84156	7	Sololá	717	San Juan la Laguna	12	San Juan la Laguna	10	Octubre	2023-10-19T00:00:00	2024-11-08T17:00:00	5	Humedad	85
84157	7	Sololá	717	San Juan la Laguna	12	San Juan la Laguna	10	Octubre	2023-10-19T00:00:00	2024-11-08T17:00:00	6	Velocidad del viento	0
84158	7	Sololá	717	San Juan la Laguna	12	San Juan la Laguna	10	Octubre	2023-10-19T00:00:00	2024-11-08T17:00:00	7	Dirección del viento	0
84159	7	Sololá	717	San Juan la Laguna	12	San Juan la Laguna	10	Octubre	2023-10-19T00:00:00	2024-11-08T17:00:00	1	Precipitación	0
84160	7	Sololá	717	San Juan la Laguna	12	San Juan la Laguna	10	Octubre	2023-10-19T00:00:00	2024-11-08T17:00:00	8	Radiación solar	19
84161	7	Sololá	717	San Juan la Laguna	12	San Juan la Laguna	10	Octubre	2023-10-19T00:00:00	2024-11-08T18:00:00	2	Temperatura media	19.1
84162	7	Sololá	717	San Juan la Laguna	12	San Juan la Laguna	10	Octubre	2023-10-19T00:00:00	2024-11-08T18:00:00	4	Temperatura máxima	19.4
84163	7	Sololá	717	San Juan la Laguna	12	San Juan la Laguna	10	Octubre	2023-10-19T00:00:00	2024-11-08T18:00:00	3	Temperatura mínima	19.1
84164	7	Sololá	717	San Juan la Laguna	12	San Juan la Laguna	10	Octubre	2023-10-19T00:00:00	2024-11-08T18:00:00	5	Humedad	84
84165	7	Sololá	717	San Juan la Laguna	12	San Juan la Laguna	10	Octubre	2023-10-19T00:00:00	2024-11-08T18:00:00	6	Velocidad del viento	0
84166	7	Sololá	717	San Juan la Laguna	12	San Juan la Laguna	10	Octubre	2023-10-19T00:00:00	2024-11-08T18:00:00	7	Dirección del viento	0
84167	7	Sololá	717	San Juan la Laguna	12	San Juan la Laguna	10	Octubre	2023-10-19T00:00:00	2024-11-08T18:00:00	1	Precipitación	0
84168	7	Sololá	717	San Juan la Laguna	12	San Juan la Laguna	10	Octubre	2023-10-19T00:00:00	2024-11-08T18:00:00	8	Radiación solar	3
84169	7	Sololá	717	San Juan la Laguna	12	San Juan la Laguna	10	Octubre	2023-10-19T00:00:00	2024-11-08T19:00:00	2	Temperatura media	18.9
84170	7	Sololá	717	San Juan la Laguna	12	San Juan la Laguna	10	Octubre	2023-10-19T00:00:00	2024-11-08T19:00:00	4	Temperatura máxima	19.2
84171	7	Sololá	717	San Juan la Laguna	12	San Juan la Laguna	10	Octubre	2023-10-19T00:00:00	2024-11-08T19:00:00	3	Temperatura mínima	18.9
84172	7	Sololá	717	San Juan la Laguna	12	San Juan la Laguna	10	Octubre	2023-10-19T00:00:00	2024-11-08T19:00:00	5	Humedad	86
84173	7	Sololá	717	San Juan la Laguna	12	San Juan la Laguna	10	Octubre	2023-10-19T00:00:00	2024-11-08T19:00:00	6	Velocidad del viento	0
84174	7	Sololá	717	San Juan la Laguna	12	San Juan la Laguna	10	Octubre	2023-10-19T00:00:00	2024-11-08T19:00:00	7	Dirección del viento	0
84175	7	Sololá	717	San Juan la Laguna	12	San Juan la Laguna	10	Octubre	2023-10-19T00:00:00	2024-11-08T19:00:00	1	Precipitación	0
84176	7	Sololá	717	San Juan la Laguna	12	San Juan la Laguna	10	Octubre	2023-10-19T00:00:00	2024-11-08T19:00:00	8	Radiación solar	0
84177	7	Sololá	717	San Juan la Laguna	12	San Juan la Laguna	10	Octubre	2023-10-19T00:00:00	2024-11-08T20:00:00	2	Temperatura media	18.6
84178	7	Sololá	717	San Juan la Laguna	12	San Juan la Laguna	10	Octubre	2023-10-19T00:00:00	2024-11-08T20:00:00	4	Temperatura máxima	18.9
84179	7	Sololá	717	San Juan la Laguna	12	San Juan la Laguna	10	Octubre	2023-10-19T00:00:00	2024-11-08T20:00:00	3	Temperatura mínima	18.3
84180	7	Sololá	717	San Juan la Laguna	12	San Juan la Laguna	10	Octubre	2023-10-19T00:00:00	2024-11-08T20:00:00	5	Humedad	88
84181	7	Sololá	717	San Juan la Laguna	12	San Juan la Laguna	10	Octubre	2023-10-19T00:00:00	2024-11-08T20:00:00	6	Velocidad del viento	0
84182	7	Sololá	717	San Juan la Laguna	12	San Juan la Laguna	10	Octubre	2023-10-19T00:00:00	2024-11-08T20:00:00	7	Dirección del viento	0
84183	7	Sololá	717	San Juan la Laguna	12	San Juan la Laguna	10	Octubre	2023-10-19T00:00:00	2024-11-08T20:00:00	1	Precipitación	0
84184	7	Sololá	717	San Juan la Laguna	12	San Juan la Laguna	10	Octubre	2023-10-19T00:00:00	2024-11-08T20:00:00	8	Radiación solar	0
84185	7	Sololá	717	San Juan la Laguna	12	San Juan la Laguna	10	Octubre	2023-10-19T00:00:00	2024-11-08T21:00:00	2	Temperatura media	18.2
84186	7	Sololá	717	San Juan la Laguna	12	San Juan la Laguna	10	Octubre	2023-10-19T00:00:00	2024-11-08T21:00:00	4	Temperatura máxima	18.6
84187	7	Sololá	717	San Juan la Laguna	12	San Juan la Laguna	10	Octubre	2023-10-19T00:00:00	2024-11-08T21:00:00	3	Temperatura mínima	18.2
84188	7	Sololá	717	San Juan la Laguna	12	San Juan la Laguna	10	Octubre	2023-10-19T00:00:00	2024-11-08T21:00:00	5	Humedad	87
84189	7	Sololá	717	San Juan la Laguna	12	San Juan la Laguna	10	Octubre	2023-10-19T00:00:00	2024-11-08T21:00:00	6	Velocidad del viento	0
84190	7	Sololá	717	San Juan la Laguna	12	San Juan la Laguna	10	Octubre	2023-10-19T00:00:00	2024-11-08T21:00:00	7	Dirección del viento	0
84191	7	Sololá	717	San Juan la Laguna	12	San Juan la Laguna	10	Octubre	2023-10-19T00:00:00	2024-11-08T21:00:00	1	Precipitación	0
84192	7	Sololá	717	San Juan la Laguna	12	San Juan la Laguna	10	Octubre	2023-10-19T00:00:00	2024-11-08T21:00:00	8	Radiación solar	0
84193	7	Sololá	717	San Juan la Laguna	12	San Juan la Laguna	10	Octubre	2023-10-19T00:00:00	2024-11-08T22:00:00	2	Temperatura media	18.3
84194	7	Sololá	717	San Juan la Laguna	12	San Juan la Laguna	10	Octubre	2023-10-19T00:00:00	2024-11-08T22:00:00	4	Temperatura máxima	18.3
84195	7	Sololá	717	San Juan la Laguna	12	San Juan la Laguna	10	Octubre	2023-10-19T00:00:00	2024-11-08T22:00:00	3	Temperatura mínima	17.9
84196	7	Sololá	717	San Juan la Laguna	12	San Juan la Laguna	10	Octubre	2023-10-19T00:00:00	2024-11-08T22:00:00	5	Humedad	87
84197	7	Sololá	717	San Juan la Laguna	12	San Juan la Laguna	10	Octubre	2023-10-19T00:00:00	2024-11-08T22:00:00	6	Velocidad del viento	0
84198	7	Sololá	717	San Juan la Laguna	12	San Juan la Laguna	10	Octubre	2023-10-19T00:00:00	2024-11-08T22:00:00	7	Dirección del viento	0
84199	7	Sololá	717	San Juan la Laguna	12	San Juan la Laguna	10	Octubre	2023-10-19T00:00:00	2024-11-08T22:00:00	1	Precipitación	0
84200	7	Sololá	717	San Juan la Laguna	12	San Juan la Laguna	10	Octubre	2023-10-19T00:00:00	2024-11-08T22:00:00	8	Radiación solar	0
84201	7	Sololá	717	San Juan la Laguna	12	San Juan la Laguna	10	Octubre	2023-10-19T00:00:00	2024-11-08T23:00:00	2	Temperatura media	17.7
84202	7	Sololá	717	San Juan la Laguna	12	San Juan la Laguna	10	Octubre	2023-10-19T00:00:00	2024-11-08T23:00:00	4	Temperatura máxima	18.4
84203	7	Sololá	717	San Juan la Laguna	12	San Juan la Laguna	10	Octubre	2023-10-19T00:00:00	2024-11-08T23:00:00	3	Temperatura mínima	17.7
84204	7	Sololá	717	San Juan la Laguna	12	San Juan la Laguna	10	Octubre	2023-10-19T00:00:00	2024-11-08T23:00:00	5	Humedad	90
84205	7	Sololá	717	San Juan la Laguna	12	San Juan la Laguna	10	Octubre	2023-10-19T00:00:00	2024-11-08T23:00:00	6	Velocidad del viento	0
84206	7	Sololá	717	San Juan la Laguna	12	San Juan la Laguna	10	Octubre	2023-10-19T00:00:00	2024-11-08T23:00:00	7	Dirección del viento	0
84207	7	Sololá	717	San Juan la Laguna	12	San Juan la Laguna	10	Octubre	2023-10-19T00:00:00	2024-11-08T23:00:00	1	Precipitación	0.2
84208	7	Sololá	717	San Juan la Laguna	12	San Juan la Laguna	10	Octubre	2023-10-19T00:00:00	2024-11-08T23:00:00	8	Radiación solar	0
84209	7	Sololá	717	San Juan la Laguna	12	San Juan la Laguna	10	Octubre	2023-10-20T00:00:00	2024-11-08T00:00:00	2	Temperatura media	16.4
84210	7	Sololá	717	San Juan la Laguna	12	San Juan la Laguna	10	Octubre	2023-10-20T00:00:00	2024-11-08T00:00:00	4	Temperatura máxima	17.7
84211	7	Sololá	717	San Juan la Laguna	12	San Juan la Laguna	10	Octubre	2023-10-20T00:00:00	2024-11-08T00:00:00	3	Temperatura mínima	16.4
84212	7	Sololá	717	San Juan la Laguna	12	San Juan la Laguna	10	Octubre	2023-10-20T00:00:00	2024-11-08T00:00:00	5	Humedad	90
84213	7	Sololá	717	San Juan la Laguna	12	San Juan la Laguna	10	Octubre	2023-10-20T00:00:00	2024-11-08T00:00:00	6	Velocidad del viento	0
84214	7	Sololá	717	San Juan la Laguna	12	San Juan la Laguna	10	Octubre	2023-10-20T00:00:00	2024-11-08T00:00:00	7	Dirección del viento	0
84215	7	Sololá	717	San Juan la Laguna	12	San Juan la Laguna	10	Octubre	2023-10-20T00:00:00	2024-11-08T00:00:00	1	Precipitación	0
84216	7	Sololá	717	San Juan la Laguna	12	San Juan la Laguna	10	Octubre	2023-10-20T00:00:00	2024-11-08T00:00:00	8	Radiación solar	0
84217	7	Sololá	717	San Juan la Laguna	12	San Juan la Laguna	10	Octubre	2023-10-20T00:00:00	2024-11-08T01:00:00	2	Temperatura media	16.2
84218	7	Sololá	717	San Juan la Laguna	12	San Juan la Laguna	10	Octubre	2023-10-20T00:00:00	2024-11-08T01:00:00	4	Temperatura máxima	16.4
84219	7	Sololá	717	San Juan la Laguna	12	San Juan la Laguna	10	Octubre	2023-10-20T00:00:00	2024-11-08T01:00:00	3	Temperatura mínima	16.1
84220	7	Sololá	717	San Juan la Laguna	12	San Juan la Laguna	10	Octubre	2023-10-20T00:00:00	2024-11-08T01:00:00	5	Humedad	90
84221	7	Sololá	717	San Juan la Laguna	12	San Juan la Laguna	10	Octubre	2023-10-20T00:00:00	2024-11-08T01:00:00	6	Velocidad del viento	0
84222	7	Sololá	717	San Juan la Laguna	12	San Juan la Laguna	10	Octubre	2023-10-20T00:00:00	2024-11-08T01:00:00	7	Dirección del viento	0
84223	7	Sololá	717	San Juan la Laguna	12	San Juan la Laguna	10	Octubre	2023-10-20T00:00:00	2024-11-08T01:00:00	1	Precipitación	0
84224	7	Sololá	717	San Juan la Laguna	12	San Juan la Laguna	10	Octubre	2023-10-20T00:00:00	2024-11-08T01:00:00	8	Radiación solar	0
84225	7	Sololá	717	San Juan la Laguna	12	San Juan la Laguna	10	Octubre	2023-10-20T00:00:00	2024-11-08T02:00:00	2	Temperatura media	15.8
84226	7	Sololá	717	San Juan la Laguna	12	San Juan la Laguna	10	Octubre	2023-10-20T00:00:00	2024-11-08T02:00:00	4	Temperatura máxima	16.3
84227	7	Sololá	717	San Juan la Laguna	12	San Juan la Laguna	10	Octubre	2023-10-20T00:00:00	2024-11-08T02:00:00	3	Temperatura mínima	15.8
84228	7	Sololá	717	San Juan la Laguna	12	San Juan la Laguna	10	Octubre	2023-10-20T00:00:00	2024-11-08T02:00:00	5	Humedad	90
84229	7	Sololá	717	San Juan la Laguna	12	San Juan la Laguna	10	Octubre	2023-10-20T00:00:00	2024-11-08T02:00:00	6	Velocidad del viento	0
84230	7	Sololá	717	San Juan la Laguna	12	San Juan la Laguna	10	Octubre	2023-10-20T00:00:00	2024-11-08T02:00:00	7	Dirección del viento	0
84231	7	Sololá	717	San Juan la Laguna	12	San Juan la Laguna	10	Octubre	2023-10-20T00:00:00	2024-11-08T02:00:00	1	Precipitación	0
84232	7	Sololá	717	San Juan la Laguna	12	San Juan la Laguna	10	Octubre	2023-10-20T00:00:00	2024-11-08T02:00:00	8	Radiación solar	0
84233	7	Sololá	717	San Juan la Laguna	12	San Juan la Laguna	10	Octubre	2023-10-20T00:00:00	2024-11-08T03:00:00	2	Temperatura media	15.6
84234	7	Sololá	717	San Juan la Laguna	12	San Juan la Laguna	10	Octubre	2023-10-20T00:00:00	2024-11-08T03:00:00	4	Temperatura máxima	16.1
84235	7	Sololá	717	San Juan la Laguna	12	San Juan la Laguna	10	Octubre	2023-10-20T00:00:00	2024-11-08T03:00:00	3	Temperatura mínima	15.6
84236	7	Sololá	717	San Juan la Laguna	12	San Juan la Laguna	10	Octubre	2023-10-20T00:00:00	2024-11-08T03:00:00	5	Humedad	90
84237	7	Sololá	717	San Juan la Laguna	12	San Juan la Laguna	10	Octubre	2023-10-20T00:00:00	2024-11-08T03:00:00	6	Velocidad del viento	0
84238	7	Sololá	717	San Juan la Laguna	12	San Juan la Laguna	10	Octubre	2023-10-20T00:00:00	2024-11-08T03:00:00	7	Dirección del viento	0
84239	7	Sololá	717	San Juan la Laguna	12	San Juan la Laguna	10	Octubre	2023-10-20T00:00:00	2024-11-08T03:00:00	1	Precipitación	0
84240	7	Sololá	717	San Juan la Laguna	12	San Juan la Laguna	10	Octubre	2023-10-20T00:00:00	2024-11-08T03:00:00	8	Radiación solar	0
84241	7	Sololá	717	San Juan la Laguna	12	San Juan la Laguna	10	Octubre	2023-10-20T00:00:00	2024-11-08T04:00:00	2	Temperatura media	15.4
84242	7	Sololá	717	San Juan la Laguna	12	San Juan la Laguna	10	Octubre	2023-10-20T00:00:00	2024-11-08T04:00:00	4	Temperatura máxima	15.7
84243	7	Sololá	717	San Juan la Laguna	12	San Juan la Laguna	10	Octubre	2023-10-20T00:00:00	2024-11-08T04:00:00	3	Temperatura mínima	15.3
84244	7	Sololá	717	San Juan la Laguna	12	San Juan la Laguna	10	Octubre	2023-10-20T00:00:00	2024-11-08T04:00:00	5	Humedad	89
84245	7	Sololá	717	San Juan la Laguna	12	San Juan la Laguna	10	Octubre	2023-10-20T00:00:00	2024-11-08T04:00:00	6	Velocidad del viento	3.2
84246	7	Sololá	717	San Juan la Laguna	12	San Juan la Laguna	10	Octubre	2023-10-20T00:00:00	2024-11-08T04:00:00	7	Dirección del viento	3.22
84247	7	Sololá	717	San Juan la Laguna	12	San Juan la Laguna	10	Octubre	2023-10-20T00:00:00	2024-11-08T04:00:00	1	Precipitación	0
84248	7	Sololá	717	San Juan la Laguna	12	San Juan la Laguna	10	Octubre	2023-10-20T00:00:00	2024-11-08T04:00:00	8	Radiación solar	0
84249	7	Sololá	717	San Juan la Laguna	12	San Juan la Laguna	10	Octubre	2023-10-20T00:00:00	2024-11-08T05:00:00	2	Temperatura media	15.2
84250	7	Sololá	717	San Juan la Laguna	12	San Juan la Laguna	10	Octubre	2023-10-20T00:00:00	2024-11-08T05:00:00	4	Temperatura máxima	15.4
84251	7	Sololá	717	San Juan la Laguna	12	San Juan la Laguna	10	Octubre	2023-10-20T00:00:00	2024-11-08T05:00:00	3	Temperatura mínima	15.1
84252	7	Sololá	717	San Juan la Laguna	12	San Juan la Laguna	10	Octubre	2023-10-20T00:00:00	2024-11-08T05:00:00	5	Humedad	89
84253	7	Sololá	717	San Juan la Laguna	12	San Juan la Laguna	10	Octubre	2023-10-20T00:00:00	2024-11-08T05:00:00	6	Velocidad del viento	4.8
84254	7	Sololá	717	San Juan la Laguna	12	San Juan la Laguna	10	Octubre	2023-10-20T00:00:00	2024-11-08T05:00:00	7	Dirección del viento	4.83
84255	7	Sololá	717	San Juan la Laguna	12	San Juan la Laguna	10	Octubre	2023-10-20T00:00:00	2024-11-08T05:00:00	1	Precipitación	0
84256	7	Sololá	717	San Juan la Laguna	12	San Juan la Laguna	10	Octubre	2023-10-20T00:00:00	2024-11-08T05:00:00	8	Radiación solar	0
84257	7	Sololá	717	San Juan la Laguna	12	San Juan la Laguna	10	Octubre	2023-10-20T00:00:00	2024-11-08T06:00:00	2	Temperatura media	15.1
84258	7	Sololá	717	San Juan la Laguna	12	San Juan la Laguna	10	Octubre	2023-10-20T00:00:00	2024-11-08T06:00:00	4	Temperatura máxima	15.3
84259	7	Sololá	717	San Juan la Laguna	12	San Juan la Laguna	10	Octubre	2023-10-20T00:00:00	2024-11-08T06:00:00	3	Temperatura mínima	15.1
84260	7	Sololá	717	San Juan la Laguna	12	San Juan la Laguna	10	Octubre	2023-10-20T00:00:00	2024-11-08T06:00:00	5	Humedad	89
84261	7	Sololá	717	San Juan la Laguna	12	San Juan la Laguna	10	Octubre	2023-10-20T00:00:00	2024-11-08T06:00:00	6	Velocidad del viento	6.4
84262	7	Sololá	717	San Juan la Laguna	12	San Juan la Laguna	10	Octubre	2023-10-20T00:00:00	2024-11-08T06:00:00	7	Dirección del viento	6.44
84263	7	Sololá	717	San Juan la Laguna	12	San Juan la Laguna	10	Octubre	2023-10-20T00:00:00	2024-11-08T06:00:00	1	Precipitación	0
84264	7	Sololá	717	San Juan la Laguna	12	San Juan la Laguna	10	Octubre	2023-10-20T00:00:00	2024-11-08T06:00:00	8	Radiación solar	0
84265	7	Sololá	717	San Juan la Laguna	12	San Juan la Laguna	10	Octubre	2023-10-20T00:00:00	2024-11-08T07:00:00	2	Temperatura media	15.8
84266	7	Sololá	717	San Juan la Laguna	12	San Juan la Laguna	10	Octubre	2023-10-20T00:00:00	2024-11-08T07:00:00	4	Temperatura máxima	15.8
84267	7	Sololá	717	San Juan la Laguna	12	San Juan la Laguna	10	Octubre	2023-10-20T00:00:00	2024-11-08T07:00:00	3	Temperatura mínima	14.9
84268	7	Sololá	717	San Juan la Laguna	12	San Juan la Laguna	10	Octubre	2023-10-20T00:00:00	2024-11-08T07:00:00	5	Humedad	89
84269	7	Sololá	717	San Juan la Laguna	12	San Juan la Laguna	10	Octubre	2023-10-20T00:00:00	2024-11-08T07:00:00	6	Velocidad del viento	3.2
84270	7	Sololá	717	San Juan la Laguna	12	San Juan la Laguna	10	Octubre	2023-10-20T00:00:00	2024-11-08T07:00:00	7	Dirección del viento	3.22
84271	7	Sololá	717	San Juan la Laguna	12	San Juan la Laguna	10	Octubre	2023-10-20T00:00:00	2024-11-08T07:00:00	1	Precipitación	0
84272	7	Sololá	717	San Juan la Laguna	12	San Juan la Laguna	10	Octubre	2023-10-20T00:00:00	2024-11-08T07:00:00	8	Radiación solar	49
84273	7	Sololá	717	San Juan la Laguna	12	San Juan la Laguna	10	Octubre	2023-10-20T00:00:00	2024-11-08T08:00:00	2	Temperatura media	19.4
84274	7	Sololá	717	San Juan la Laguna	12	San Juan la Laguna	10	Octubre	2023-10-20T00:00:00	2024-11-08T08:00:00	4	Temperatura máxima	19.4
84275	7	Sololá	717	San Juan la Laguna	12	San Juan la Laguna	10	Octubre	2023-10-20T00:00:00	2024-11-08T08:00:00	3	Temperatura mínima	15.8
84276	7	Sololá	717	San Juan la Laguna	12	San Juan la Laguna	10	Octubre	2023-10-20T00:00:00	2024-11-08T08:00:00	5	Humedad	81
84277	7	Sololá	717	San Juan la Laguna	12	San Juan la Laguna	10	Octubre	2023-10-20T00:00:00	2024-11-08T08:00:00	6	Velocidad del viento	0
84278	7	Sololá	717	San Juan la Laguna	12	San Juan la Laguna	10	Octubre	2023-10-20T00:00:00	2024-11-08T08:00:00	7	Dirección del viento	0
84279	7	Sololá	717	San Juan la Laguna	12	San Juan la Laguna	10	Octubre	2023-10-20T00:00:00	2024-11-08T08:00:00	1	Precipitación	0
84280	7	Sololá	717	San Juan la Laguna	12	San Juan la Laguna	10	Octubre	2023-10-20T00:00:00	2024-11-08T08:00:00	8	Radiación solar	200
84281	7	Sololá	717	San Juan la Laguna	12	San Juan la Laguna	10	Octubre	2023-10-20T00:00:00	2024-11-08T09:00:00	2	Temperatura media	21.7
84282	7	Sololá	717	San Juan la Laguna	12	San Juan la Laguna	10	Octubre	2023-10-20T00:00:00	2024-11-08T09:00:00	4	Temperatura máxima	21.8
84283	7	Sololá	717	San Juan la Laguna	12	San Juan la Laguna	10	Octubre	2023-10-20T00:00:00	2024-11-08T09:00:00	3	Temperatura mínima	19.4
84284	7	Sololá	717	San Juan la Laguna	12	San Juan la Laguna	10	Octubre	2023-10-20T00:00:00	2024-11-08T09:00:00	5	Humedad	72
84285	7	Sololá	717	San Juan la Laguna	12	San Juan la Laguna	10	Octubre	2023-10-20T00:00:00	2024-11-08T09:00:00	6	Velocidad del viento	0
84286	7	Sololá	717	San Juan la Laguna	12	San Juan la Laguna	10	Octubre	2023-10-20T00:00:00	2024-11-08T09:00:00	7	Dirección del viento	0
84287	7	Sololá	717	San Juan la Laguna	12	San Juan la Laguna	10	Octubre	2023-10-20T00:00:00	2024-11-08T09:00:00	1	Precipitación	0
84288	7	Sololá	717	San Juan la Laguna	12	San Juan la Laguna	10	Octubre	2023-10-20T00:00:00	2024-11-08T09:00:00	8	Radiación solar	450
84289	7	Sololá	717	San Juan la Laguna	12	San Juan la Laguna	10	Octubre	2023-10-20T00:00:00	2024-11-08T10:00:00	2	Temperatura media	22.2
84290	7	Sololá	717	San Juan la Laguna	12	San Juan la Laguna	10	Octubre	2023-10-20T00:00:00	2024-11-08T10:00:00	4	Temperatura máxima	22.2
84291	7	Sololá	717	San Juan la Laguna	12	San Juan la Laguna	10	Octubre	2023-10-20T00:00:00	2024-11-08T10:00:00	3	Temperatura mínima	21.3
84292	7	Sololá	717	San Juan la Laguna	12	San Juan la Laguna	10	Octubre	2023-10-20T00:00:00	2024-11-08T10:00:00	5	Humedad	67
84293	7	Sololá	717	San Juan la Laguna	12	San Juan la Laguna	10	Octubre	2023-10-20T00:00:00	2024-11-08T10:00:00	6	Velocidad del viento	0
84294	7	Sololá	717	San Juan la Laguna	12	San Juan la Laguna	10	Octubre	2023-10-20T00:00:00	2024-11-08T10:00:00	7	Dirección del viento	0
84295	7	Sololá	717	San Juan la Laguna	12	San Juan la Laguna	10	Octubre	2023-10-20T00:00:00	2024-11-08T10:00:00	1	Precipitación	0
84296	7	Sololá	717	San Juan la Laguna	12	San Juan la Laguna	10	Octubre	2023-10-20T00:00:00	2024-11-08T10:00:00	8	Radiación solar	639
84297	7	Sololá	717	San Juan la Laguna	12	San Juan la Laguna	10	Octubre	2023-10-20T00:00:00	2024-11-08T11:00:00	2	Temperatura media	23.8
84298	7	Sololá	717	San Juan la Laguna	12	San Juan la Laguna	10	Octubre	2023-10-20T00:00:00	2024-11-08T11:00:00	4	Temperatura máxima	23.8
84299	7	Sololá	717	San Juan la Laguna	12	San Juan la Laguna	10	Octubre	2023-10-20T00:00:00	2024-11-08T11:00:00	3	Temperatura mínima	22.2
84300	7	Sololá	717	San Juan la Laguna	12	San Juan la Laguna	10	Octubre	2023-10-20T00:00:00	2024-11-08T11:00:00	5	Humedad	62
84301	7	Sololá	717	San Juan la Laguna	12	San Juan la Laguna	10	Octubre	2023-10-20T00:00:00	2024-11-08T11:00:00	6	Velocidad del viento	0
84302	7	Sololá	717	San Juan la Laguna	12	San Juan la Laguna	10	Octubre	2023-10-20T00:00:00	2024-11-08T11:00:00	7	Dirección del viento	0
84303	7	Sololá	717	San Juan la Laguna	12	San Juan la Laguna	10	Octubre	2023-10-20T00:00:00	2024-11-08T11:00:00	1	Precipitación	0
84304	7	Sololá	717	San Juan la Laguna	12	San Juan la Laguna	10	Octubre	2023-10-20T00:00:00	2024-11-08T11:00:00	8	Radiación solar	731
84305	7	Sololá	717	San Juan la Laguna	12	San Juan la Laguna	10	Octubre	2023-10-20T00:00:00	2024-11-08T12:00:00	2	Temperatura media	23.7
84306	7	Sololá	717	San Juan la Laguna	12	San Juan la Laguna	10	Octubre	2023-10-20T00:00:00	2024-11-08T12:00:00	4	Temperatura máxima	24.7
84307	7	Sololá	717	San Juan la Laguna	12	San Juan la Laguna	10	Octubre	2023-10-20T00:00:00	2024-11-08T12:00:00	3	Temperatura mínima	23.2
84308	7	Sololá	717	San Juan la Laguna	12	San Juan la Laguna	10	Octubre	2023-10-20T00:00:00	2024-11-08T12:00:00	5	Humedad	70
84309	7	Sololá	717	San Juan la Laguna	12	San Juan la Laguna	10	Octubre	2023-10-20T00:00:00	2024-11-08T12:00:00	6	Velocidad del viento	0
84310	7	Sololá	717	San Juan la Laguna	12	San Juan la Laguna	10	Octubre	2023-10-20T00:00:00	2024-11-08T12:00:00	7	Dirección del viento	0
84311	7	Sololá	717	San Juan la Laguna	12	San Juan la Laguna	10	Octubre	2023-10-20T00:00:00	2024-11-08T12:00:00	1	Precipitación	0
84312	7	Sololá	717	San Juan la Laguna	12	San Juan la Laguna	10	Octubre	2023-10-20T00:00:00	2024-11-08T12:00:00	8	Radiación solar	733
84313	7	Sololá	717	San Juan la Laguna	12	San Juan la Laguna	10	Octubre	2023-10-20T00:00:00	2024-11-08T13:00:00	2	Temperatura media	22.8
84314	7	Sololá	717	San Juan la Laguna	12	San Juan la Laguna	10	Octubre	2023-10-20T00:00:00	2024-11-08T13:00:00	4	Temperatura máxima	24.7
84315	7	Sololá	717	San Juan la Laguna	12	San Juan la Laguna	10	Octubre	2023-10-20T00:00:00	2024-11-08T13:00:00	3	Temperatura mínima	22.8
84316	7	Sololá	717	San Juan la Laguna	12	San Juan la Laguna	10	Octubre	2023-10-20T00:00:00	2024-11-08T13:00:00	5	Humedad	73
84317	7	Sololá	717	San Juan la Laguna	12	San Juan la Laguna	10	Octubre	2023-10-20T00:00:00	2024-11-08T13:00:00	6	Velocidad del viento	0
84318	7	Sololá	717	San Juan la Laguna	12	San Juan la Laguna	10	Octubre	2023-10-20T00:00:00	2024-11-08T13:00:00	7	Dirección del viento	0
84319	7	Sololá	717	San Juan la Laguna	12	San Juan la Laguna	10	Octubre	2023-10-20T00:00:00	2024-11-08T13:00:00	1	Precipitación	0
84320	7	Sololá	717	San Juan la Laguna	12	San Juan la Laguna	10	Octubre	2023-10-20T00:00:00	2024-11-08T13:00:00	8	Radiación solar	651
84321	7	Sololá	717	San Juan la Laguna	12	San Juan la Laguna	10	Octubre	2023-10-20T00:00:00	2024-11-08T14:00:00	2	Temperatura media	22.2
84322	7	Sololá	717	San Juan la Laguna	12	San Juan la Laguna	10	Octubre	2023-10-20T00:00:00	2024-11-08T14:00:00	4	Temperatura máxima	23.6
84323	7	Sololá	717	San Juan la Laguna	12	San Juan la Laguna	10	Octubre	2023-10-20T00:00:00	2024-11-08T14:00:00	3	Temperatura mínima	22.2
84324	7	Sololá	717	San Juan la Laguna	12	San Juan la Laguna	10	Octubre	2023-10-20T00:00:00	2024-11-08T14:00:00	5	Humedad	76
84325	7	Sololá	717	San Juan la Laguna	12	San Juan la Laguna	10	Octubre	2023-10-20T00:00:00	2024-11-08T14:00:00	6	Velocidad del viento	1.6
84326	7	Sololá	717	San Juan la Laguna	12	San Juan la Laguna	10	Octubre	2023-10-20T00:00:00	2024-11-08T14:00:00	7	Dirección del viento	1.61
84327	7	Sololá	717	San Juan la Laguna	12	San Juan la Laguna	10	Octubre	2023-10-20T00:00:00	2024-11-08T14:00:00	1	Precipitación	0
84328	7	Sololá	717	San Juan la Laguna	12	San Juan la Laguna	10	Octubre	2023-10-20T00:00:00	2024-11-08T14:00:00	8	Radiación solar	474
84329	7	Sololá	717	San Juan la Laguna	12	San Juan la Laguna	10	Octubre	2023-10-20T00:00:00	2024-11-08T15:00:00	2	Temperatura media	20.6
84330	7	Sololá	717	San Juan la Laguna	12	San Juan la Laguna	10	Octubre	2023-10-20T00:00:00	2024-11-08T15:00:00	4	Temperatura máxima	22.2
84331	7	Sololá	717	San Juan la Laguna	12	San Juan la Laguna	10	Octubre	2023-10-20T00:00:00	2024-11-08T15:00:00	3	Temperatura mínima	20.4
84332	7	Sololá	717	San Juan la Laguna	12	San Juan la Laguna	10	Octubre	2023-10-20T00:00:00	2024-11-08T15:00:00	5	Humedad	82
84333	7	Sololá	717	San Juan la Laguna	12	San Juan la Laguna	10	Octubre	2023-10-20T00:00:00	2024-11-08T15:00:00	6	Velocidad del viento	0
84334	7	Sololá	717	San Juan la Laguna	12	San Juan la Laguna	10	Octubre	2023-10-20T00:00:00	2024-11-08T15:00:00	7	Dirección del viento	0
84335	7	Sololá	717	San Juan la Laguna	12	San Juan la Laguna	10	Octubre	2023-10-20T00:00:00	2024-11-08T15:00:00	1	Precipitación	0
84336	7	Sololá	717	San Juan la Laguna	12	San Juan la Laguna	10	Octubre	2023-10-20T00:00:00	2024-11-08T15:00:00	8	Radiación solar	130
84337	7	Sololá	717	San Juan la Laguna	12	San Juan la Laguna	10	Octubre	2023-10-20T00:00:00	2024-11-08T16:00:00	2	Temperatura media	21.7
84338	7	Sololá	717	San Juan la Laguna	12	San Juan la Laguna	10	Octubre	2023-10-20T00:00:00	2024-11-08T16:00:00	4	Temperatura máxima	21.7
84339	7	Sololá	717	San Juan la Laguna	12	San Juan la Laguna	10	Octubre	2023-10-20T00:00:00	2024-11-08T16:00:00	3	Temperatura mínima	20.4
84340	7	Sololá	717	San Juan la Laguna	12	San Juan la Laguna	10	Octubre	2023-10-20T00:00:00	2024-11-08T16:00:00	5	Humedad	77
84341	7	Sololá	717	San Juan la Laguna	12	San Juan la Laguna	10	Octubre	2023-10-20T00:00:00	2024-11-08T16:00:00	6	Velocidad del viento	0
84342	7	Sololá	717	San Juan la Laguna	12	San Juan la Laguna	10	Octubre	2023-10-20T00:00:00	2024-11-08T16:00:00	7	Dirección del viento	0
84343	7	Sololá	717	San Juan la Laguna	12	San Juan la Laguna	10	Octubre	2023-10-20T00:00:00	2024-11-08T16:00:00	1	Precipitación	0
84344	7	Sololá	717	San Juan la Laguna	12	San Juan la Laguna	10	Octubre	2023-10-20T00:00:00	2024-11-08T16:00:00	8	Radiación solar	184
84345	7	Sololá	717	San Juan la Laguna	12	San Juan la Laguna	10	Octubre	2023-10-20T00:00:00	2024-11-08T17:00:00	2	Temperatura media	21.5
84346	7	Sololá	717	San Juan la Laguna	12	San Juan la Laguna	10	Octubre	2023-10-20T00:00:00	2024-11-08T17:00:00	4	Temperatura máxima	22.7
84347	7	Sololá	717	San Juan la Laguna	12	San Juan la Laguna	10	Octubre	2023-10-20T00:00:00	2024-11-08T17:00:00	3	Temperatura mínima	21.5
84348	7	Sololá	717	San Juan la Laguna	12	San Juan la Laguna	10	Octubre	2023-10-20T00:00:00	2024-11-08T17:00:00	5	Humedad	78
84349	7	Sololá	717	San Juan la Laguna	12	San Juan la Laguna	10	Octubre	2023-10-20T00:00:00	2024-11-08T17:00:00	6	Velocidad del viento	0
84350	7	Sololá	717	San Juan la Laguna	12	San Juan la Laguna	10	Octubre	2023-10-20T00:00:00	2024-11-08T17:00:00	7	Dirección del viento	0
84351	7	Sololá	717	San Juan la Laguna	12	San Juan la Laguna	10	Octubre	2023-10-20T00:00:00	2024-11-08T17:00:00	1	Precipitación	0
84352	7	Sololá	717	San Juan la Laguna	12	San Juan la Laguna	10	Octubre	2023-10-20T00:00:00	2024-11-08T17:00:00	8	Radiación solar	192
84353	7	Sololá	717	San Juan la Laguna	12	San Juan la Laguna	10	Octubre	2023-10-20T00:00:00	2024-11-08T18:00:00	2	Temperatura media	20.1
84354	7	Sololá	717	San Juan la Laguna	12	San Juan la Laguna	10	Octubre	2023-10-20T00:00:00	2024-11-08T18:00:00	4	Temperatura máxima	21.5
84355	7	Sololá	717	San Juan la Laguna	12	San Juan la Laguna	10	Octubre	2023-10-20T00:00:00	2024-11-08T18:00:00	3	Temperatura mínima	20.1
84356	7	Sololá	717	San Juan la Laguna	12	San Juan la Laguna	10	Octubre	2023-10-20T00:00:00	2024-11-08T18:00:00	5	Humedad	85
84357	7	Sololá	717	San Juan la Laguna	12	San Juan la Laguna	10	Octubre	2023-10-20T00:00:00	2024-11-08T18:00:00	6	Velocidad del viento	0
84358	7	Sololá	717	San Juan la Laguna	12	San Juan la Laguna	10	Octubre	2023-10-20T00:00:00	2024-11-08T18:00:00	7	Dirección del viento	0
84359	7	Sololá	717	San Juan la Laguna	12	San Juan la Laguna	10	Octubre	2023-10-20T00:00:00	2024-11-08T18:00:00	1	Precipitación	0
84360	7	Sololá	717	San Juan la Laguna	12	San Juan la Laguna	10	Octubre	2023-10-20T00:00:00	2024-11-08T18:00:00	8	Radiación solar	18
84361	7	Sololá	717	San Juan la Laguna	12	San Juan la Laguna	10	Octubre	2023-10-20T00:00:00	2024-11-08T19:00:00	2	Temperatura media	19.6
84362	7	Sololá	717	San Juan la Laguna	12	San Juan la Laguna	10	Octubre	2023-10-20T00:00:00	2024-11-08T19:00:00	4	Temperatura máxima	20.1
84363	7	Sololá	717	San Juan la Laguna	12	San Juan la Laguna	10	Octubre	2023-10-20T00:00:00	2024-11-08T19:00:00	3	Temperatura mínima	19.6
84364	7	Sololá	717	San Juan la Laguna	12	San Juan la Laguna	10	Octubre	2023-10-20T00:00:00	2024-11-08T19:00:00	5	Humedad	86
84365	7	Sololá	717	San Juan la Laguna	12	San Juan la Laguna	10	Octubre	2023-10-20T00:00:00	2024-11-08T19:00:00	6	Velocidad del viento	0
84366	7	Sololá	717	San Juan la Laguna	12	San Juan la Laguna	10	Octubre	2023-10-20T00:00:00	2024-11-08T19:00:00	7	Dirección del viento	0
84367	7	Sololá	717	San Juan la Laguna	12	San Juan la Laguna	10	Octubre	2023-10-20T00:00:00	2024-11-08T19:00:00	1	Precipitación	0
84368	7	Sololá	717	San Juan la Laguna	12	San Juan la Laguna	10	Octubre	2023-10-20T00:00:00	2024-11-08T19:00:00	8	Radiación solar	0
84369	7	Sololá	717	San Juan la Laguna	12	San Juan la Laguna	10	Octubre	2023-10-20T00:00:00	2024-11-08T20:00:00	2	Temperatura media	18.6
84370	7	Sololá	717	San Juan la Laguna	12	San Juan la Laguna	10	Octubre	2023-10-20T00:00:00	2024-11-08T20:00:00	4	Temperatura máxima	19.6
84371	7	Sololá	717	San Juan la Laguna	12	San Juan la Laguna	10	Octubre	2023-10-20T00:00:00	2024-11-08T20:00:00	3	Temperatura mínima	18.6
84372	7	Sololá	717	San Juan la Laguna	12	San Juan la Laguna	10	Octubre	2023-10-20T00:00:00	2024-11-08T20:00:00	5	Humedad	89
84373	7	Sololá	717	San Juan la Laguna	12	San Juan la Laguna	10	Octubre	2023-10-20T00:00:00	2024-11-08T20:00:00	6	Velocidad del viento	0
84374	7	Sololá	717	San Juan la Laguna	12	San Juan la Laguna	10	Octubre	2023-10-20T00:00:00	2024-11-08T20:00:00	7	Dirección del viento	0
84375	7	Sololá	717	San Juan la Laguna	12	San Juan la Laguna	10	Octubre	2023-10-20T00:00:00	2024-11-08T20:00:00	1	Precipitación	0
84376	7	Sololá	717	San Juan la Laguna	12	San Juan la Laguna	10	Octubre	2023-10-20T00:00:00	2024-11-08T20:00:00	8	Radiación solar	0
84377	7	Sololá	717	San Juan la Laguna	12	San Juan la Laguna	10	Octubre	2023-10-20T00:00:00	2024-11-08T21:00:00	2	Temperatura media	17.8
84378	7	Sololá	717	San Juan la Laguna	12	San Juan la Laguna	10	Octubre	2023-10-20T00:00:00	2024-11-08T21:00:00	4	Temperatura máxima	18.6
84379	7	Sololá	717	San Juan la Laguna	12	San Juan la Laguna	10	Octubre	2023-10-20T00:00:00	2024-11-08T21:00:00	3	Temperatura mínima	17.8
84380	7	Sololá	717	San Juan la Laguna	12	San Juan la Laguna	10	Octubre	2023-10-20T00:00:00	2024-11-08T21:00:00	5	Humedad	88
84381	7	Sololá	717	San Juan la Laguna	12	San Juan la Laguna	10	Octubre	2023-10-20T00:00:00	2024-11-08T21:00:00	6	Velocidad del viento	0
84382	7	Sololá	717	San Juan la Laguna	12	San Juan la Laguna	10	Octubre	2023-10-20T00:00:00	2024-11-08T21:00:00	7	Dirección del viento	0
84383	7	Sololá	717	San Juan la Laguna	12	San Juan la Laguna	10	Octubre	2023-10-20T00:00:00	2024-11-08T21:00:00	1	Precipitación	0
84384	7	Sololá	717	San Juan la Laguna	12	San Juan la Laguna	10	Octubre	2023-10-20T00:00:00	2024-11-08T21:00:00	8	Radiación solar	0
84385	7	Sololá	717	San Juan la Laguna	12	San Juan la Laguna	10	Octubre	2023-10-20T00:00:00	2024-11-08T22:00:00	2	Temperatura media	17.3
84386	7	Sololá	717	San Juan la Laguna	12	San Juan la Laguna	10	Octubre	2023-10-20T00:00:00	2024-11-08T22:00:00	4	Temperatura máxima	17.9
84387	7	Sololá	717	San Juan la Laguna	12	San Juan la Laguna	10	Octubre	2023-10-20T00:00:00	2024-11-08T22:00:00	3	Temperatura mínima	17.3
84388	7	Sololá	717	San Juan la Laguna	12	San Juan la Laguna	10	Octubre	2023-10-20T00:00:00	2024-11-08T22:00:00	5	Humedad	87
84389	7	Sololá	717	San Juan la Laguna	12	San Juan la Laguna	10	Octubre	2023-10-20T00:00:00	2024-11-08T22:00:00	6	Velocidad del viento	0
84390	7	Sololá	717	San Juan la Laguna	12	San Juan la Laguna	10	Octubre	2023-10-20T00:00:00	2024-11-08T22:00:00	7	Dirección del viento	0
84391	7	Sololá	717	San Juan la Laguna	12	San Juan la Laguna	10	Octubre	2023-10-20T00:00:00	2024-11-08T22:00:00	1	Precipitación	0
84392	7	Sololá	717	San Juan la Laguna	12	San Juan la Laguna	10	Octubre	2023-10-20T00:00:00	2024-11-08T22:00:00	8	Radiación solar	0
84393	7	Sololá	717	San Juan la Laguna	12	San Juan la Laguna	10	Octubre	2023-10-20T00:00:00	2024-11-08T23:00:00	2	Temperatura media	17
84394	7	Sololá	717	San Juan la Laguna	12	San Juan la Laguna	10	Octubre	2023-10-20T00:00:00	2024-11-08T23:00:00	4	Temperatura máxima	17.3
84395	7	Sololá	717	San Juan la Laguna	12	San Juan la Laguna	10	Octubre	2023-10-20T00:00:00	2024-11-08T23:00:00	3	Temperatura mínima	17
84396	7	Sololá	717	San Juan la Laguna	12	San Juan la Laguna	10	Octubre	2023-10-20T00:00:00	2024-11-08T23:00:00	5	Humedad	87
84397	7	Sololá	717	San Juan la Laguna	12	San Juan la Laguna	10	Octubre	2023-10-20T00:00:00	2024-11-08T23:00:00	6	Velocidad del viento	0
84398	7	Sololá	717	San Juan la Laguna	12	San Juan la Laguna	10	Octubre	2023-10-20T00:00:00	2024-11-08T23:00:00	7	Dirección del viento	0
84399	7	Sololá	717	San Juan la Laguna	12	San Juan la Laguna	10	Octubre	2023-10-20T00:00:00	2024-11-08T23:00:00	1	Precipitación	0
84400	7	Sololá	717	San Juan la Laguna	12	San Juan la Laguna	10	Octubre	2023-10-20T00:00:00	2024-11-08T23:00:00	8	Radiación solar	0
84401	7	Sololá	717	San Juan la Laguna	12	San Juan la Laguna	10	Octubre	2023-10-21T00:00:00	2024-11-08T00:00:00	2	Temperatura media	16.7
84402	7	Sololá	717	San Juan la Laguna	12	San Juan la Laguna	10	Octubre	2023-10-21T00:00:00	2024-11-08T00:00:00	4	Temperatura máxima	17
84403	7	Sololá	717	San Juan la Laguna	12	San Juan la Laguna	10	Octubre	2023-10-21T00:00:00	2024-11-08T00:00:00	3	Temperatura mínima	16.7
84404	7	Sololá	717	San Juan la Laguna	12	San Juan la Laguna	10	Octubre	2023-10-21T00:00:00	2024-11-08T00:00:00	5	Humedad	88
84405	7	Sololá	717	San Juan la Laguna	12	San Juan la Laguna	10	Octubre	2023-10-21T00:00:00	2024-11-08T00:00:00	6	Velocidad del viento	0
84406	7	Sololá	717	San Juan la Laguna	12	San Juan la Laguna	10	Octubre	2023-10-21T00:00:00	2024-11-08T00:00:00	7	Dirección del viento	0
84407	7	Sololá	717	San Juan la Laguna	12	San Juan la Laguna	10	Octubre	2023-10-21T00:00:00	2024-11-08T00:00:00	1	Precipitación	0
84408	7	Sololá	717	San Juan la Laguna	12	San Juan la Laguna	10	Octubre	2023-10-21T00:00:00	2024-11-08T00:00:00	8	Radiación solar	0
84409	7	Sololá	717	San Juan la Laguna	12	San Juan la Laguna	10	Octubre	2023-10-21T00:00:00	2024-11-08T01:00:00	2	Temperatura media	16.4
84410	7	Sololá	717	San Juan la Laguna	12	San Juan la Laguna	10	Octubre	2023-10-21T00:00:00	2024-11-08T01:00:00	4	Temperatura máxima	16.7
84411	7	Sololá	717	San Juan la Laguna	12	San Juan la Laguna	10	Octubre	2023-10-21T00:00:00	2024-11-08T01:00:00	3	Temperatura mínima	16.3
84412	7	Sololá	717	San Juan la Laguna	12	San Juan la Laguna	10	Octubre	2023-10-21T00:00:00	2024-11-08T01:00:00	5	Humedad	86
84413	7	Sololá	717	San Juan la Laguna	12	San Juan la Laguna	10	Octubre	2023-10-21T00:00:00	2024-11-08T01:00:00	6	Velocidad del viento	0
84414	7	Sololá	717	San Juan la Laguna	12	San Juan la Laguna	10	Octubre	2023-10-21T00:00:00	2024-11-08T01:00:00	7	Dirección del viento	0
84415	7	Sololá	717	San Juan la Laguna	12	San Juan la Laguna	10	Octubre	2023-10-21T00:00:00	2024-11-08T01:00:00	1	Precipitación	0
84416	7	Sololá	717	San Juan la Laguna	12	San Juan la Laguna	10	Octubre	2023-10-21T00:00:00	2024-11-08T01:00:00	8	Radiación solar	0
84417	7	Sololá	717	San Juan la Laguna	12	San Juan la Laguna	10	Octubre	2023-10-21T00:00:00	2024-11-08T02:00:00	2	Temperatura media	15.8
84418	7	Sololá	717	San Juan la Laguna	12	San Juan la Laguna	10	Octubre	2023-10-21T00:00:00	2024-11-08T02:00:00	4	Temperatura máxima	16.4
84419	7	Sololá	717	San Juan la Laguna	12	San Juan la Laguna	10	Octubre	2023-10-21T00:00:00	2024-11-08T02:00:00	3	Temperatura mínima	15.8
84420	7	Sololá	717	San Juan la Laguna	12	San Juan la Laguna	10	Octubre	2023-10-21T00:00:00	2024-11-08T02:00:00	5	Humedad	87
84421	7	Sololá	717	San Juan la Laguna	12	San Juan la Laguna	10	Octubre	2023-10-21T00:00:00	2024-11-08T02:00:00	6	Velocidad del viento	0
84422	7	Sololá	717	San Juan la Laguna	12	San Juan la Laguna	10	Octubre	2023-10-21T00:00:00	2024-11-08T02:00:00	7	Dirección del viento	0
84423	7	Sololá	717	San Juan la Laguna	12	San Juan la Laguna	10	Octubre	2023-10-21T00:00:00	2024-11-08T02:00:00	1	Precipitación	0
84424	7	Sololá	717	San Juan la Laguna	12	San Juan la Laguna	10	Octubre	2023-10-21T00:00:00	2024-11-08T02:00:00	8	Radiación solar	0
84425	7	Sololá	717	San Juan la Laguna	12	San Juan la Laguna	10	Octubre	2023-10-21T00:00:00	2024-11-08T03:00:00	2	Temperatura media	15.6
84426	7	Sololá	717	San Juan la Laguna	12	San Juan la Laguna	10	Octubre	2023-10-21T00:00:00	2024-11-08T03:00:00	4	Temperatura máxima	15.9
84427	7	Sololá	717	San Juan la Laguna	12	San Juan la Laguna	10	Octubre	2023-10-21T00:00:00	2024-11-08T03:00:00	3	Temperatura mínima	15.6
84428	7	Sololá	717	San Juan la Laguna	12	San Juan la Laguna	10	Octubre	2023-10-21T00:00:00	2024-11-08T03:00:00	5	Humedad	87
84429	7	Sololá	717	San Juan la Laguna	12	San Juan la Laguna	10	Octubre	2023-10-21T00:00:00	2024-11-08T03:00:00	6	Velocidad del viento	0
84430	7	Sololá	717	San Juan la Laguna	12	San Juan la Laguna	10	Octubre	2023-10-21T00:00:00	2024-11-08T03:00:00	7	Dirección del viento	0
84431	7	Sololá	717	San Juan la Laguna	12	San Juan la Laguna	10	Octubre	2023-10-21T00:00:00	2024-11-08T03:00:00	1	Precipitación	0
84432	7	Sololá	717	San Juan la Laguna	12	San Juan la Laguna	10	Octubre	2023-10-21T00:00:00	2024-11-08T03:00:00	8	Radiación solar	0
84433	7	Sololá	717	San Juan la Laguna	12	San Juan la Laguna	10	Octubre	2023-10-21T00:00:00	2024-11-08T04:00:00	2	Temperatura media	15.2
84434	7	Sololá	717	San Juan la Laguna	12	San Juan la Laguna	10	Octubre	2023-10-21T00:00:00	2024-11-08T04:00:00	4	Temperatura máxima	15.6
84435	7	Sololá	717	San Juan la Laguna	12	San Juan la Laguna	10	Octubre	2023-10-21T00:00:00	2024-11-08T04:00:00	3	Temperatura mínima	15.2
84436	7	Sololá	717	San Juan la Laguna	12	San Juan la Laguna	10	Octubre	2023-10-21T00:00:00	2024-11-08T04:00:00	5	Humedad	87
84437	7	Sololá	717	San Juan la Laguna	12	San Juan la Laguna	10	Octubre	2023-10-21T00:00:00	2024-11-08T04:00:00	6	Velocidad del viento	0
84438	7	Sololá	717	San Juan la Laguna	12	San Juan la Laguna	10	Octubre	2023-10-21T00:00:00	2024-11-08T04:00:00	7	Dirección del viento	0
84439	7	Sololá	717	San Juan la Laguna	12	San Juan la Laguna	10	Octubre	2023-10-21T00:00:00	2024-11-08T04:00:00	1	Precipitación	0
84440	7	Sololá	717	San Juan la Laguna	12	San Juan la Laguna	10	Octubre	2023-10-21T00:00:00	2024-11-08T04:00:00	8	Radiación solar	0
84441	7	Sololá	717	San Juan la Laguna	12	San Juan la Laguna	10	Octubre	2023-10-21T00:00:00	2024-11-08T05:00:00	2	Temperatura media	15.2
84442	7	Sololá	717	San Juan la Laguna	12	San Juan la Laguna	10	Octubre	2023-10-21T00:00:00	2024-11-08T05:00:00	4	Temperatura máxima	15.2
84443	7	Sololá	717	San Juan la Laguna	12	San Juan la Laguna	10	Octubre	2023-10-21T00:00:00	2024-11-08T05:00:00	3	Temperatura mínima	14.9
84444	7	Sololá	717	San Juan la Laguna	12	San Juan la Laguna	10	Octubre	2023-10-21T00:00:00	2024-11-08T05:00:00	5	Humedad	86
84445	7	Sololá	717	San Juan la Laguna	12	San Juan la Laguna	10	Octubre	2023-10-21T00:00:00	2024-11-08T05:00:00	6	Velocidad del viento	0
84446	7	Sololá	717	San Juan la Laguna	12	San Juan la Laguna	10	Octubre	2023-10-21T00:00:00	2024-11-08T05:00:00	7	Dirección del viento	0
84447	7	Sololá	717	San Juan la Laguna	12	San Juan la Laguna	10	Octubre	2023-10-21T00:00:00	2024-11-08T05:00:00	1	Precipitación	0
84448	7	Sololá	717	San Juan la Laguna	12	San Juan la Laguna	10	Octubre	2023-10-21T00:00:00	2024-11-08T05:00:00	8	Radiación solar	0
84449	7	Sololá	717	San Juan la Laguna	12	San Juan la Laguna	10	Octubre	2023-10-21T00:00:00	2024-11-08T06:00:00	2	Temperatura media	14.7
84450	7	Sololá	717	San Juan la Laguna	12	San Juan la Laguna	10	Octubre	2023-10-21T00:00:00	2024-11-08T06:00:00	4	Temperatura máxima	15.2
84451	7	Sololá	717	San Juan la Laguna	12	San Juan la Laguna	10	Octubre	2023-10-21T00:00:00	2024-11-08T06:00:00	3	Temperatura mínima	14.6
84452	7	Sololá	717	San Juan la Laguna	12	San Juan la Laguna	10	Octubre	2023-10-21T00:00:00	2024-11-08T06:00:00	5	Humedad	88
84453	7	Sololá	717	San Juan la Laguna	12	San Juan la Laguna	10	Octubre	2023-10-21T00:00:00	2024-11-08T06:00:00	6	Velocidad del viento	0
84454	7	Sololá	717	San Juan la Laguna	12	San Juan la Laguna	10	Octubre	2023-10-21T00:00:00	2024-11-08T06:00:00	7	Dirección del viento	0
84455	7	Sololá	717	San Juan la Laguna	12	San Juan la Laguna	10	Octubre	2023-10-21T00:00:00	2024-11-08T06:00:00	1	Precipitación	0
84456	7	Sololá	717	San Juan la Laguna	12	San Juan la Laguna	10	Octubre	2023-10-21T00:00:00	2024-11-08T06:00:00	8	Radiación solar	0
84457	7	Sololá	717	San Juan la Laguna	12	San Juan la Laguna	10	Octubre	2023-10-21T00:00:00	2024-11-08T07:00:00	2	Temperatura media	16.2
84458	7	Sololá	717	San Juan la Laguna	12	San Juan la Laguna	10	Octubre	2023-10-21T00:00:00	2024-11-08T07:00:00	4	Temperatura máxima	16.2
84459	7	Sololá	717	San Juan la Laguna	12	San Juan la Laguna	10	Octubre	2023-10-21T00:00:00	2024-11-08T07:00:00	3	Temperatura mínima	14.7
84460	7	Sololá	717	San Juan la Laguna	12	San Juan la Laguna	10	Octubre	2023-10-21T00:00:00	2024-11-08T07:00:00	5	Humedad	85
84461	7	Sololá	717	San Juan la Laguna	12	San Juan la Laguna	10	Octubre	2023-10-21T00:00:00	2024-11-08T07:00:00	6	Velocidad del viento	0
84462	7	Sololá	717	San Juan la Laguna	12	San Juan la Laguna	10	Octubre	2023-10-21T00:00:00	2024-11-08T07:00:00	7	Dirección del viento	0
84463	7	Sololá	717	San Juan la Laguna	12	San Juan la Laguna	10	Octubre	2023-10-21T00:00:00	2024-11-08T07:00:00	1	Precipitación	0
84464	7	Sololá	717	San Juan la Laguna	12	San Juan la Laguna	10	Octubre	2023-10-21T00:00:00	2024-11-08T07:00:00	8	Radiación solar	57
84465	7	Sololá	717	San Juan la Laguna	12	San Juan la Laguna	10	Octubre	2023-10-21T00:00:00	2024-11-08T08:00:00	2	Temperatura media	18.3
84466	7	Sololá	717	San Juan la Laguna	12	San Juan la Laguna	10	Octubre	2023-10-21T00:00:00	2024-11-08T08:00:00	4	Temperatura máxima	18.3
84467	7	Sololá	717	San Juan la Laguna	12	San Juan la Laguna	10	Octubre	2023-10-21T00:00:00	2024-11-08T08:00:00	3	Temperatura mínima	16
84468	7	Sololá	717	San Juan la Laguna	12	San Juan la Laguna	10	Octubre	2023-10-21T00:00:00	2024-11-08T08:00:00	5	Humedad	81
84469	7	Sololá	717	San Juan la Laguna	12	San Juan la Laguna	10	Octubre	2023-10-21T00:00:00	2024-11-08T08:00:00	6	Velocidad del viento	0
84470	7	Sololá	717	San Juan la Laguna	12	San Juan la Laguna	10	Octubre	2023-10-21T00:00:00	2024-11-08T08:00:00	7	Dirección del viento	0
84471	7	Sololá	717	San Juan la Laguna	12	San Juan la Laguna	10	Octubre	2023-10-21T00:00:00	2024-11-08T08:00:00	1	Precipitación	0
84472	7	Sololá	717	San Juan la Laguna	12	San Juan la Laguna	10	Octubre	2023-10-21T00:00:00	2024-11-08T08:00:00	8	Radiación solar	149
84473	7	Sololá	717	San Juan la Laguna	12	San Juan la Laguna	10	Octubre	2023-10-21T00:00:00	2024-11-08T09:00:00	2	Temperatura media	20.1
84474	7	Sololá	717	San Juan la Laguna	12	San Juan la Laguna	10	Octubre	2023-10-21T00:00:00	2024-11-08T09:00:00	4	Temperatura máxima	20.1
84475	7	Sololá	717	San Juan la Laguna	12	San Juan la Laguna	10	Octubre	2023-10-21T00:00:00	2024-11-08T09:00:00	3	Temperatura mínima	18.3
84476	7	Sololá	717	San Juan la Laguna	12	San Juan la Laguna	10	Octubre	2023-10-21T00:00:00	2024-11-08T09:00:00	5	Humedad	73
84477	7	Sololá	717	San Juan la Laguna	12	San Juan la Laguna	10	Octubre	2023-10-21T00:00:00	2024-11-08T09:00:00	6	Velocidad del viento	0
84478	7	Sololá	717	San Juan la Laguna	12	San Juan la Laguna	10	Octubre	2023-10-21T00:00:00	2024-11-08T09:00:00	7	Dirección del viento	0
84479	7	Sololá	717	San Juan la Laguna	12	San Juan la Laguna	10	Octubre	2023-10-21T00:00:00	2024-11-08T09:00:00	1	Precipitación	0
84480	7	Sololá	717	San Juan la Laguna	12	San Juan la Laguna	10	Octubre	2023-10-21T00:00:00	2024-11-08T09:00:00	8	Radiación solar	303
84481	7	Sololá	717	San Juan la Laguna	12	San Juan la Laguna	10	Octubre	2023-10-21T00:00:00	2024-11-08T10:00:00	2	Temperatura media	20.7
84482	7	Sololá	717	San Juan la Laguna	12	San Juan la Laguna	10	Octubre	2023-10-21T00:00:00	2024-11-08T10:00:00	4	Temperatura máxima	20.7
84483	7	Sololá	717	San Juan la Laguna	12	San Juan la Laguna	10	Octubre	2023-10-21T00:00:00	2024-11-08T10:00:00	3	Temperatura mínima	20.1
84484	7	Sololá	717	San Juan la Laguna	12	San Juan la Laguna	10	Octubre	2023-10-21T00:00:00	2024-11-08T10:00:00	5	Humedad	71
84485	7	Sololá	717	San Juan la Laguna	12	San Juan la Laguna	10	Octubre	2023-10-21T00:00:00	2024-11-08T10:00:00	6	Velocidad del viento	0
84486	7	Sololá	717	San Juan la Laguna	12	San Juan la Laguna	10	Octubre	2023-10-21T00:00:00	2024-11-08T10:00:00	7	Dirección del viento	0
84487	7	Sololá	717	San Juan la Laguna	12	San Juan la Laguna	10	Octubre	2023-10-21T00:00:00	2024-11-08T10:00:00	1	Precipitación	0
84488	7	Sololá	717	San Juan la Laguna	12	San Juan la Laguna	10	Octubre	2023-10-21T00:00:00	2024-11-08T10:00:00	8	Radiación solar	311
84489	7	Sololá	717	San Juan la Laguna	12	San Juan la Laguna	10	Octubre	2023-10-21T00:00:00	2024-11-08T11:00:00	2	Temperatura media	22.5
84490	7	Sololá	717	San Juan la Laguna	12	San Juan la Laguna	10	Octubre	2023-10-21T00:00:00	2024-11-08T11:00:00	4	Temperatura máxima	22.6
84491	7	Sololá	717	San Juan la Laguna	12	San Juan la Laguna	10	Octubre	2023-10-21T00:00:00	2024-11-08T11:00:00	3	Temperatura mínima	20.7
84492	7	Sololá	717	San Juan la Laguna	12	San Juan la Laguna	10	Octubre	2023-10-21T00:00:00	2024-11-08T11:00:00	5	Humedad	63
84493	7	Sololá	717	San Juan la Laguna	12	San Juan la Laguna	10	Octubre	2023-10-21T00:00:00	2024-11-08T11:00:00	6	Velocidad del viento	0
84494	7	Sololá	717	San Juan la Laguna	12	San Juan la Laguna	10	Octubre	2023-10-21T00:00:00	2024-11-08T11:00:00	7	Dirección del viento	0
84495	7	Sololá	717	San Juan la Laguna	12	San Juan la Laguna	10	Octubre	2023-10-21T00:00:00	2024-11-08T11:00:00	1	Precipitación	0
84496	7	Sololá	717	San Juan la Laguna	12	San Juan la Laguna	10	Octubre	2023-10-21T00:00:00	2024-11-08T11:00:00	8	Radiación solar	751
84497	7	Sololá	717	San Juan la Laguna	12	San Juan la Laguna	10	Octubre	2023-10-21T00:00:00	2024-11-08T12:00:00	2	Temperatura media	22.8
84498	7	Sololá	717	San Juan la Laguna	12	San Juan la Laguna	10	Octubre	2023-10-21T00:00:00	2024-11-08T12:00:00	4	Temperatura máxima	23.2
84499	7	Sololá	717	San Juan la Laguna	12	San Juan la Laguna	10	Octubre	2023-10-21T00:00:00	2024-11-08T12:00:00	3	Temperatura mínima	22.5
84500	7	Sololá	717	San Juan la Laguna	12	San Juan la Laguna	10	Octubre	2023-10-21T00:00:00	2024-11-08T12:00:00	5	Humedad	61
84501	7	Sololá	717	San Juan la Laguna	12	San Juan la Laguna	10	Octubre	2023-10-21T00:00:00	2024-11-08T12:00:00	6	Velocidad del viento	0
84502	7	Sololá	717	San Juan la Laguna	12	San Juan la Laguna	10	Octubre	2023-10-21T00:00:00	2024-11-08T12:00:00	7	Dirección del viento	0
84503	7	Sololá	717	San Juan la Laguna	12	San Juan la Laguna	10	Octubre	2023-10-21T00:00:00	2024-11-08T12:00:00	1	Precipitación	0
84504	7	Sololá	717	San Juan la Laguna	12	San Juan la Laguna	10	Octubre	2023-10-21T00:00:00	2024-11-08T12:00:00	8	Radiación solar	551
84505	7	Sololá	717	San Juan la Laguna	12	San Juan la Laguna	10	Octubre	2023-10-21T00:00:00	2024-11-08T13:00:00	2	Temperatura media	23.4
84506	7	Sololá	717	San Juan la Laguna	12	San Juan la Laguna	10	Octubre	2023-10-21T00:00:00	2024-11-08T13:00:00	4	Temperatura máxima	24.8
84507	7	Sololá	717	San Juan la Laguna	12	San Juan la Laguna	10	Octubre	2023-10-21T00:00:00	2024-11-08T13:00:00	3	Temperatura mínima	22.7
84508	7	Sololá	717	San Juan la Laguna	12	San Juan la Laguna	10	Octubre	2023-10-21T00:00:00	2024-11-08T13:00:00	5	Humedad	70
84509	7	Sololá	717	San Juan la Laguna	12	San Juan la Laguna	10	Octubre	2023-10-21T00:00:00	2024-11-08T13:00:00	6	Velocidad del viento	0
84510	7	Sololá	717	San Juan la Laguna	12	San Juan la Laguna	10	Octubre	2023-10-21T00:00:00	2024-11-08T13:00:00	7	Dirección del viento	0
84511	7	Sololá	717	San Juan la Laguna	12	San Juan la Laguna	10	Octubre	2023-10-21T00:00:00	2024-11-08T13:00:00	1	Precipitación	0
84512	7	Sololá	717	San Juan la Laguna	12	San Juan la Laguna	10	Octubre	2023-10-21T00:00:00	2024-11-08T13:00:00	8	Radiación solar	697
84513	7	Sololá	717	San Juan la Laguna	12	San Juan la Laguna	10	Octubre	2023-10-21T00:00:00	2024-11-08T14:00:00	2	Temperatura media	24.2
84514	7	Sololá	717	San Juan la Laguna	12	San Juan la Laguna	10	Octubre	2023-10-21T00:00:00	2024-11-08T14:00:00	4	Temperatura máxima	24.2
84515	7	Sololá	717	San Juan la Laguna	12	San Juan la Laguna	10	Octubre	2023-10-21T00:00:00	2024-11-08T14:00:00	3	Temperatura mínima	22.8
84516	7	Sololá	717	San Juan la Laguna	12	San Juan la Laguna	10	Octubre	2023-10-21T00:00:00	2024-11-08T14:00:00	5	Humedad	68
84517	7	Sololá	717	San Juan la Laguna	12	San Juan la Laguna	10	Octubre	2023-10-21T00:00:00	2024-11-08T14:00:00	6	Velocidad del viento	1.6
84518	7	Sololá	717	San Juan la Laguna	12	San Juan la Laguna	10	Octubre	2023-10-21T00:00:00	2024-11-08T14:00:00	7	Dirección del viento	1.61
84519	7	Sololá	717	San Juan la Laguna	12	San Juan la Laguna	10	Octubre	2023-10-21T00:00:00	2024-11-08T14:00:00	1	Precipitación	0
84520	7	Sololá	717	San Juan la Laguna	12	San Juan la Laguna	10	Octubre	2023-10-21T00:00:00	2024-11-08T14:00:00	8	Radiación solar	802
84521	7	Sololá	717	San Juan la Laguna	12	San Juan la Laguna	10	Octubre	2023-10-21T00:00:00	2024-11-08T15:00:00	2	Temperatura media	22.3
84522	7	Sololá	717	San Juan la Laguna	12	San Juan la Laguna	10	Octubre	2023-10-21T00:00:00	2024-11-08T15:00:00	4	Temperatura máxima	24.2
84523	7	Sololá	717	San Juan la Laguna	12	San Juan la Laguna	10	Octubre	2023-10-21T00:00:00	2024-11-08T15:00:00	3	Temperatura mínima	21.9
84524	7	Sololá	717	San Juan la Laguna	12	San Juan la Laguna	10	Octubre	2023-10-21T00:00:00	2024-11-08T15:00:00	5	Humedad	73
84525	7	Sololá	717	San Juan la Laguna	12	San Juan la Laguna	10	Octubre	2023-10-21T00:00:00	2024-11-08T15:00:00	6	Velocidad del viento	0
84526	7	Sololá	717	San Juan la Laguna	12	San Juan la Laguna	10	Octubre	2023-10-21T00:00:00	2024-11-08T15:00:00	7	Dirección del viento	0
84527	7	Sololá	717	San Juan la Laguna	12	San Juan la Laguna	10	Octubre	2023-10-21T00:00:00	2024-11-08T15:00:00	1	Precipitación	0
84528	7	Sololá	717	San Juan la Laguna	12	San Juan la Laguna	10	Octubre	2023-10-21T00:00:00	2024-11-08T15:00:00	8	Radiación solar	220
84529	7	Sololá	717	San Juan la Laguna	12	San Juan la Laguna	10	Octubre	2023-10-21T00:00:00	2024-11-08T16:00:00	2	Temperatura media	20.8
84530	7	Sololá	717	San Juan la Laguna	12	San Juan la Laguna	10	Octubre	2023-10-21T00:00:00	2024-11-08T16:00:00	4	Temperatura máxima	22.8
84531	7	Sololá	717	San Juan la Laguna	12	San Juan la Laguna	10	Octubre	2023-10-21T00:00:00	2024-11-08T16:00:00	3	Temperatura mínima	20.8
84532	7	Sololá	717	San Juan la Laguna	12	San Juan la Laguna	10	Octubre	2023-10-21T00:00:00	2024-11-08T16:00:00	5	Humedad	79
84533	7	Sololá	717	San Juan la Laguna	12	San Juan la Laguna	10	Octubre	2023-10-21T00:00:00	2024-11-08T16:00:00	6	Velocidad del viento	0
84534	7	Sololá	717	San Juan la Laguna	12	San Juan la Laguna	10	Octubre	2023-10-21T00:00:00	2024-11-08T16:00:00	7	Dirección del viento	0
84535	7	Sololá	717	San Juan la Laguna	12	San Juan la Laguna	10	Octubre	2023-10-21T00:00:00	2024-11-08T16:00:00	1	Precipitación	0
84536	7	Sololá	717	San Juan la Laguna	12	San Juan la Laguna	10	Octubre	2023-10-21T00:00:00	2024-11-08T16:00:00	8	Radiación solar	183
84537	7	Sololá	717	San Juan la Laguna	12	San Juan la Laguna	10	Octubre	2023-10-21T00:00:00	2024-11-08T17:00:00	2	Temperatura media	19.4
84538	7	Sololá	717	San Juan la Laguna	12	San Juan la Laguna	10	Octubre	2023-10-21T00:00:00	2024-11-08T17:00:00	4	Temperatura máxima	20.8
84539	7	Sololá	717	San Juan la Laguna	12	San Juan la Laguna	10	Octubre	2023-10-21T00:00:00	2024-11-08T17:00:00	3	Temperatura mínima	19.4
84540	7	Sololá	717	San Juan la Laguna	12	San Juan la Laguna	10	Octubre	2023-10-21T00:00:00	2024-11-08T17:00:00	5	Humedad	85
84541	7	Sololá	717	San Juan la Laguna	12	San Juan la Laguna	10	Octubre	2023-10-21T00:00:00	2024-11-08T17:00:00	6	Velocidad del viento	1.6
84542	7	Sololá	717	San Juan la Laguna	12	San Juan la Laguna	10	Octubre	2023-10-21T00:00:00	2024-11-08T17:00:00	7	Dirección del viento	1.61
84543	7	Sololá	717	San Juan la Laguna	12	San Juan la Laguna	10	Octubre	2023-10-21T00:00:00	2024-11-08T17:00:00	1	Precipitación	0
84544	7	Sololá	717	San Juan la Laguna	12	San Juan la Laguna	10	Octubre	2023-10-21T00:00:00	2024-11-08T17:00:00	8	Radiación solar	30
84545	7	Sololá	717	San Juan la Laguna	12	San Juan la Laguna	10	Octubre	2023-10-21T00:00:00	2024-11-08T18:00:00	2	Temperatura media	19.3
84546	7	Sololá	717	San Juan la Laguna	12	San Juan la Laguna	10	Octubre	2023-10-21T00:00:00	2024-11-08T18:00:00	4	Temperatura máxima	19.7
84547	7	Sololá	717	San Juan la Laguna	12	San Juan la Laguna	10	Octubre	2023-10-21T00:00:00	2024-11-08T18:00:00	3	Temperatura mínima	19.3
84548	7	Sololá	717	San Juan la Laguna	12	San Juan la Laguna	10	Octubre	2023-10-21T00:00:00	2024-11-08T18:00:00	5	Humedad	84
84549	7	Sololá	717	San Juan la Laguna	12	San Juan la Laguna	10	Octubre	2023-10-21T00:00:00	2024-11-08T18:00:00	6	Velocidad del viento	0
84550	7	Sololá	717	San Juan la Laguna	12	San Juan la Laguna	10	Octubre	2023-10-21T00:00:00	2024-11-08T18:00:00	7	Dirección del viento	0
84551	7	Sololá	717	San Juan la Laguna	12	San Juan la Laguna	10	Octubre	2023-10-21T00:00:00	2024-11-08T18:00:00	1	Precipitación	0
84552	7	Sololá	717	San Juan la Laguna	12	San Juan la Laguna	10	Octubre	2023-10-21T00:00:00	2024-11-08T18:00:00	8	Radiación solar	9
84553	7	Sololá	717	San Juan la Laguna	12	San Juan la Laguna	10	Octubre	2023-10-21T00:00:00	2024-11-08T19:00:00	2	Temperatura media	18.5
84554	7	Sololá	717	San Juan la Laguna	12	San Juan la Laguna	10	Octubre	2023-10-21T00:00:00	2024-11-08T19:00:00	4	Temperatura máxima	19.3
84555	7	Sololá	717	San Juan la Laguna	12	San Juan la Laguna	10	Octubre	2023-10-21T00:00:00	2024-11-08T19:00:00	3	Temperatura mínima	18.4
84556	7	Sololá	717	San Juan la Laguna	12	San Juan la Laguna	10	Octubre	2023-10-21T00:00:00	2024-11-08T19:00:00	5	Humedad	88
84557	7	Sololá	717	San Juan la Laguna	12	San Juan la Laguna	10	Octubre	2023-10-21T00:00:00	2024-11-08T19:00:00	6	Velocidad del viento	0
84558	7	Sololá	717	San Juan la Laguna	12	San Juan la Laguna	10	Octubre	2023-10-21T00:00:00	2024-11-08T19:00:00	7	Dirección del viento	0
84559	7	Sololá	717	San Juan la Laguna	12	San Juan la Laguna	10	Octubre	2023-10-21T00:00:00	2024-11-08T19:00:00	1	Precipitación	0.4
84560	7	Sololá	717	San Juan la Laguna	12	San Juan la Laguna	10	Octubre	2023-10-21T00:00:00	2024-11-08T19:00:00	8	Radiación solar	0
84561	7	Sololá	717	San Juan la Laguna	12	San Juan la Laguna	10	Octubre	2023-10-21T00:00:00	2024-11-08T20:00:00	2	Temperatura media	16.3
84562	7	Sololá	717	San Juan la Laguna	12	San Juan la Laguna	10	Octubre	2023-10-21T00:00:00	2024-11-08T20:00:00	4	Temperatura máxima	18.4
84563	7	Sololá	717	San Juan la Laguna	12	San Juan la Laguna	10	Octubre	2023-10-21T00:00:00	2024-11-08T20:00:00	3	Temperatura mínima	16.3
84564	7	Sololá	717	San Juan la Laguna	12	San Juan la Laguna	10	Octubre	2023-10-21T00:00:00	2024-11-08T20:00:00	5	Humedad	89
84565	7	Sololá	717	San Juan la Laguna	12	San Juan la Laguna	10	Octubre	2023-10-21T00:00:00	2024-11-08T20:00:00	6	Velocidad del viento	0
84566	7	Sololá	717	San Juan la Laguna	12	San Juan la Laguna	10	Octubre	2023-10-21T00:00:00	2024-11-08T20:00:00	7	Dirección del viento	0
84567	7	Sololá	717	San Juan la Laguna	12	San Juan la Laguna	10	Octubre	2023-10-21T00:00:00	2024-11-08T20:00:00	1	Precipitación	1.6
84568	7	Sololá	717	San Juan la Laguna	12	San Juan la Laguna	10	Octubre	2023-10-21T00:00:00	2024-11-08T20:00:00	8	Radiación solar	0
84569	7	Sololá	717	San Juan la Laguna	12	San Juan la Laguna	10	Octubre	2023-10-21T00:00:00	2024-11-08T21:00:00	2	Temperatura media	16.6
84570	7	Sololá	717	San Juan la Laguna	12	San Juan la Laguna	10	Octubre	2023-10-21T00:00:00	2024-11-08T21:00:00	4	Temperatura máxima	16.6
84571	7	Sololá	717	San Juan la Laguna	12	San Juan la Laguna	10	Octubre	2023-10-21T00:00:00	2024-11-08T21:00:00	3	Temperatura mínima	16.2
84572	7	Sololá	717	San Juan la Laguna	12	San Juan la Laguna	10	Octubre	2023-10-21T00:00:00	2024-11-08T21:00:00	5	Humedad	90
84573	7	Sololá	717	San Juan la Laguna	12	San Juan la Laguna	10	Octubre	2023-10-21T00:00:00	2024-11-08T21:00:00	6	Velocidad del viento	0
84574	7	Sololá	717	San Juan la Laguna	12	San Juan la Laguna	10	Octubre	2023-10-21T00:00:00	2024-11-08T21:00:00	7	Dirección del viento	0
84575	7	Sololá	717	San Juan la Laguna	12	San Juan la Laguna	10	Octubre	2023-10-21T00:00:00	2024-11-08T21:00:00	1	Precipitación	0
84576	7	Sololá	717	San Juan la Laguna	12	San Juan la Laguna	10	Octubre	2023-10-21T00:00:00	2024-11-08T21:00:00	8	Radiación solar	0
84577	7	Sololá	717	San Juan la Laguna	12	San Juan la Laguna	10	Octubre	2023-10-21T00:00:00	2024-11-08T22:00:00	2	Temperatura media	16.3
84578	7	Sololá	717	San Juan la Laguna	12	San Juan la Laguna	10	Octubre	2023-10-21T00:00:00	2024-11-08T22:00:00	4	Temperatura máxima	16.9
84579	7	Sololá	717	San Juan la Laguna	12	San Juan la Laguna	10	Octubre	2023-10-21T00:00:00	2024-11-08T22:00:00	3	Temperatura mínima	16.2
84580	7	Sololá	717	San Juan la Laguna	12	San Juan la Laguna	10	Octubre	2023-10-21T00:00:00	2024-11-08T22:00:00	5	Humedad	90
84581	7	Sololá	717	San Juan la Laguna	12	San Juan la Laguna	10	Octubre	2023-10-21T00:00:00	2024-11-08T22:00:00	6	Velocidad del viento	0
84582	7	Sololá	717	San Juan la Laguna	12	San Juan la Laguna	10	Octubre	2023-10-21T00:00:00	2024-11-08T22:00:00	7	Dirección del viento	0
84583	7	Sololá	717	San Juan la Laguna	12	San Juan la Laguna	10	Octubre	2023-10-21T00:00:00	2024-11-08T22:00:00	1	Precipitación	0
84584	7	Sololá	717	San Juan la Laguna	12	San Juan la Laguna	10	Octubre	2023-10-21T00:00:00	2024-11-08T22:00:00	8	Radiación solar	0
84585	7	Sololá	717	San Juan la Laguna	12	San Juan la Laguna	10	Octubre	2023-10-21T00:00:00	2024-11-08T23:00:00	2	Temperatura media	16.1
84586	7	Sololá	717	San Juan la Laguna	12	San Juan la Laguna	10	Octubre	2023-10-21T00:00:00	2024-11-08T23:00:00	4	Temperatura máxima	16.3
84587	7	Sololá	717	San Juan la Laguna	12	San Juan la Laguna	10	Octubre	2023-10-21T00:00:00	2024-11-08T23:00:00	3	Temperatura mínima	16
84588	7	Sololá	717	San Juan la Laguna	12	San Juan la Laguna	10	Octubre	2023-10-21T00:00:00	2024-11-08T23:00:00	5	Humedad	89
84589	7	Sololá	717	San Juan la Laguna	12	San Juan la Laguna	10	Octubre	2023-10-21T00:00:00	2024-11-08T23:00:00	6	Velocidad del viento	0
84590	7	Sololá	717	San Juan la Laguna	12	San Juan la Laguna	10	Octubre	2023-10-21T00:00:00	2024-11-08T23:00:00	7	Dirección del viento	0
84591	7	Sololá	717	San Juan la Laguna	12	San Juan la Laguna	10	Octubre	2023-10-21T00:00:00	2024-11-08T23:00:00	1	Precipitación	0
84592	7	Sololá	717	San Juan la Laguna	12	San Juan la Laguna	10	Octubre	2023-10-21T00:00:00	2024-11-08T23:00:00	8	Radiación solar	0
84593	7	Sololá	717	San Juan la Laguna	12	San Juan la Laguna	10	Octubre	2023-10-22T00:00:00	2024-11-08T00:00:00	2	Temperatura media	16.9
84594	7	Sololá	717	San Juan la Laguna	12	San Juan la Laguna	10	Octubre	2023-10-22T00:00:00	2024-11-08T00:00:00	4	Temperatura máxima	17.1
84595	7	Sololá	717	San Juan la Laguna	12	San Juan la Laguna	10	Octubre	2023-10-22T00:00:00	2024-11-08T00:00:00	3	Temperatura mínima	16.1
84596	7	Sololá	717	San Juan la Laguna	12	San Juan la Laguna	10	Octubre	2023-10-22T00:00:00	2024-11-08T00:00:00	5	Humedad	88
84597	7	Sololá	717	San Juan la Laguna	12	San Juan la Laguna	10	Octubre	2023-10-22T00:00:00	2024-11-08T00:00:00	6	Velocidad del viento	0
84598	7	Sololá	717	San Juan la Laguna	12	San Juan la Laguna	10	Octubre	2023-10-22T00:00:00	2024-11-08T00:00:00	7	Dirección del viento	0
84599	7	Sololá	717	San Juan la Laguna	12	San Juan la Laguna	10	Octubre	2023-10-22T00:00:00	2024-11-08T00:00:00	1	Precipitación	0
84600	7	Sololá	717	San Juan la Laguna	12	San Juan la Laguna	10	Octubre	2023-10-22T00:00:00	2024-11-08T00:00:00	8	Radiación solar	0
84601	7	Sololá	717	San Juan la Laguna	12	San Juan la Laguna	10	Octubre	2023-10-22T00:00:00	2024-11-08T01:00:00	2	Temperatura media	16.8
84602	7	Sololá	717	San Juan la Laguna	12	San Juan la Laguna	10	Octubre	2023-10-22T00:00:00	2024-11-08T01:00:00	4	Temperatura máxima	17.2
84603	7	Sololá	717	San Juan la Laguna	12	San Juan la Laguna	10	Octubre	2023-10-22T00:00:00	2024-11-08T01:00:00	3	Temperatura mínima	16.8
84604	7	Sololá	717	San Juan la Laguna	12	San Juan la Laguna	10	Octubre	2023-10-22T00:00:00	2024-11-08T01:00:00	5	Humedad	89
84605	7	Sololá	717	San Juan la Laguna	12	San Juan la Laguna	10	Octubre	2023-10-22T00:00:00	2024-11-08T01:00:00	6	Velocidad del viento	0
84606	7	Sololá	717	San Juan la Laguna	12	San Juan la Laguna	10	Octubre	2023-10-22T00:00:00	2024-11-08T01:00:00	7	Dirección del viento	0
84607	7	Sololá	717	San Juan la Laguna	12	San Juan la Laguna	10	Octubre	2023-10-22T00:00:00	2024-11-08T01:00:00	1	Precipitación	0
84608	7	Sololá	717	San Juan la Laguna	12	San Juan la Laguna	10	Octubre	2023-10-22T00:00:00	2024-11-08T01:00:00	8	Radiación solar	0
84609	7	Sololá	717	San Juan la Laguna	12	San Juan la Laguna	10	Octubre	2023-10-22T00:00:00	2024-11-08T02:00:00	2	Temperatura media	16.8
84610	7	Sololá	717	San Juan la Laguna	12	San Juan la Laguna	10	Octubre	2023-10-22T00:00:00	2024-11-08T02:00:00	4	Temperatura máxima	17.2
84611	7	Sololá	717	San Juan la Laguna	12	San Juan la Laguna	10	Octubre	2023-10-22T00:00:00	2024-11-08T02:00:00	3	Temperatura mínima	16.7
84612	7	Sololá	717	San Juan la Laguna	12	San Juan la Laguna	10	Octubre	2023-10-22T00:00:00	2024-11-08T02:00:00	5	Humedad	90
84613	7	Sololá	717	San Juan la Laguna	12	San Juan la Laguna	10	Octubre	2023-10-22T00:00:00	2024-11-08T02:00:00	6	Velocidad del viento	0
84614	7	Sololá	717	San Juan la Laguna	12	San Juan la Laguna	10	Octubre	2023-10-22T00:00:00	2024-11-08T02:00:00	7	Dirección del viento	0
84615	7	Sololá	717	San Juan la Laguna	12	San Juan la Laguna	10	Octubre	2023-10-22T00:00:00	2024-11-08T02:00:00	1	Precipitación	0
84616	7	Sololá	717	San Juan la Laguna	12	San Juan la Laguna	10	Octubre	2023-10-22T00:00:00	2024-11-08T02:00:00	8	Radiación solar	0
84617	7	Sololá	717	San Juan la Laguna	12	San Juan la Laguna	10	Octubre	2023-10-22T00:00:00	2024-11-08T03:00:00	2	Temperatura media	16.8
84618	7	Sololá	717	San Juan la Laguna	12	San Juan la Laguna	10	Octubre	2023-10-22T00:00:00	2024-11-08T03:00:00	4	Temperatura máxima	16.8
84619	7	Sololá	717	San Juan la Laguna	12	San Juan la Laguna	10	Octubre	2023-10-22T00:00:00	2024-11-08T03:00:00	3	Temperatura mínima	16.6
84620	7	Sololá	717	San Juan la Laguna	12	San Juan la Laguna	10	Octubre	2023-10-22T00:00:00	2024-11-08T03:00:00	5	Humedad	89
84621	7	Sololá	717	San Juan la Laguna	12	San Juan la Laguna	10	Octubre	2023-10-22T00:00:00	2024-11-08T03:00:00	6	Velocidad del viento	0
84622	7	Sololá	717	San Juan la Laguna	12	San Juan la Laguna	10	Octubre	2023-10-22T00:00:00	2024-11-08T03:00:00	7	Dirección del viento	0
84623	7	Sololá	717	San Juan la Laguna	12	San Juan la Laguna	10	Octubre	2023-10-22T00:00:00	2024-11-08T03:00:00	1	Precipitación	0
84624	7	Sololá	717	San Juan la Laguna	12	San Juan la Laguna	10	Octubre	2023-10-22T00:00:00	2024-11-08T03:00:00	8	Radiación solar	0
84625	7	Sololá	717	San Juan la Laguna	12	San Juan la Laguna	10	Octubre	2023-10-22T00:00:00	2024-11-08T04:00:00	2	Temperatura media	15.8
84626	7	Sololá	717	San Juan la Laguna	12	San Juan la Laguna	10	Octubre	2023-10-22T00:00:00	2024-11-08T04:00:00	4	Temperatura máxima	16.8
84627	7	Sololá	717	San Juan la Laguna	12	San Juan la Laguna	10	Octubre	2023-10-22T00:00:00	2024-11-08T04:00:00	3	Temperatura mínima	15.8
84628	7	Sololá	717	San Juan la Laguna	12	San Juan la Laguna	10	Octubre	2023-10-22T00:00:00	2024-11-08T04:00:00	5	Humedad	90
84629	7	Sololá	717	San Juan la Laguna	12	San Juan la Laguna	10	Octubre	2023-10-22T00:00:00	2024-11-08T04:00:00	6	Velocidad del viento	0
84630	7	Sololá	717	San Juan la Laguna	12	San Juan la Laguna	10	Octubre	2023-10-22T00:00:00	2024-11-08T04:00:00	7	Dirección del viento	0
84631	7	Sololá	717	San Juan la Laguna	12	San Juan la Laguna	10	Octubre	2023-10-22T00:00:00	2024-11-08T04:00:00	1	Precipitación	0
84632	7	Sololá	717	San Juan la Laguna	12	San Juan la Laguna	10	Octubre	2023-10-22T00:00:00	2024-11-08T04:00:00	8	Radiación solar	0
84633	7	Sololá	717	San Juan la Laguna	12	San Juan la Laguna	10	Octubre	2023-10-22T00:00:00	2024-11-08T05:00:00	2	Temperatura media	15.4
84634	7	Sololá	717	San Juan la Laguna	12	San Juan la Laguna	10	Octubre	2023-10-22T00:00:00	2024-11-08T05:00:00	4	Temperatura máxima	15.8
84635	7	Sololá	717	San Juan la Laguna	12	San Juan la Laguna	10	Octubre	2023-10-22T00:00:00	2024-11-08T05:00:00	3	Temperatura mínima	15.4
84636	7	Sololá	717	San Juan la Laguna	12	San Juan la Laguna	10	Octubre	2023-10-22T00:00:00	2024-11-08T05:00:00	5	Humedad	89
84637	7	Sololá	717	San Juan la Laguna	12	San Juan la Laguna	10	Octubre	2023-10-22T00:00:00	2024-11-08T05:00:00	6	Velocidad del viento	0
84638	7	Sololá	717	San Juan la Laguna	12	San Juan la Laguna	10	Octubre	2023-10-22T00:00:00	2024-11-08T05:00:00	7	Dirección del viento	0
84639	7	Sololá	717	San Juan la Laguna	12	San Juan la Laguna	10	Octubre	2023-10-22T00:00:00	2024-11-08T05:00:00	1	Precipitación	0
84640	7	Sololá	717	San Juan la Laguna	12	San Juan la Laguna	10	Octubre	2023-10-22T00:00:00	2024-11-08T05:00:00	8	Radiación solar	0
84641	7	Sololá	717	San Juan la Laguna	12	San Juan la Laguna	10	Octubre	2023-10-22T00:00:00	2024-11-08T06:00:00	2	Temperatura media	15.6
84642	7	Sololá	717	San Juan la Laguna	12	San Juan la Laguna	10	Octubre	2023-10-22T00:00:00	2024-11-08T06:00:00	4	Temperatura máxima	15.7
84643	7	Sololá	717	San Juan la Laguna	12	San Juan la Laguna	10	Octubre	2023-10-22T00:00:00	2024-11-08T06:00:00	3	Temperatura mínima	15.4
84644	7	Sololá	717	San Juan la Laguna	12	San Juan la Laguna	10	Octubre	2023-10-22T00:00:00	2024-11-08T06:00:00	5	Humedad	88
84645	7	Sololá	717	San Juan la Laguna	12	San Juan la Laguna	10	Octubre	2023-10-22T00:00:00	2024-11-08T06:00:00	6	Velocidad del viento	3.2
84646	7	Sololá	717	San Juan la Laguna	12	San Juan la Laguna	10	Octubre	2023-10-22T00:00:00	2024-11-08T06:00:00	7	Dirección del viento	3.22
84647	7	Sololá	717	San Juan la Laguna	12	San Juan la Laguna	10	Octubre	2023-10-22T00:00:00	2024-11-08T06:00:00	1	Precipitación	0
84648	7	Sololá	717	San Juan la Laguna	12	San Juan la Laguna	10	Octubre	2023-10-22T00:00:00	2024-11-08T06:00:00	8	Radiación solar	0
84649	7	Sololá	717	San Juan la Laguna	12	San Juan la Laguna	10	Octubre	2023-10-22T00:00:00	2024-11-08T07:00:00	2	Temperatura media	16.6
84650	7	Sololá	717	San Juan la Laguna	12	San Juan la Laguna	10	Octubre	2023-10-22T00:00:00	2024-11-08T07:00:00	4	Temperatura máxima	16.6
84651	7	Sololá	717	San Juan la Laguna	12	San Juan la Laguna	10	Octubre	2023-10-22T00:00:00	2024-11-08T07:00:00	3	Temperatura mínima	15.3
84652	7	Sololá	717	San Juan la Laguna	12	San Juan la Laguna	10	Octubre	2023-10-22T00:00:00	2024-11-08T07:00:00	5	Humedad	87
84653	7	Sololá	717	San Juan la Laguna	12	San Juan la Laguna	10	Octubre	2023-10-22T00:00:00	2024-11-08T07:00:00	6	Velocidad del viento	1.6
84654	7	Sololá	717	San Juan la Laguna	12	San Juan la Laguna	10	Octubre	2023-10-22T00:00:00	2024-11-08T07:00:00	7	Dirección del viento	1.61
84655	7	Sololá	717	San Juan la Laguna	12	San Juan la Laguna	10	Octubre	2023-10-22T00:00:00	2024-11-08T07:00:00	1	Precipitación	0
84656	7	Sololá	717	San Juan la Laguna	12	San Juan la Laguna	10	Octubre	2023-10-22T00:00:00	2024-11-08T07:00:00	8	Radiación solar	55
84657	7	Sololá	717	San Juan la Laguna	12	San Juan la Laguna	10	Octubre	2023-10-22T00:00:00	2024-11-08T08:00:00	2	Temperatura media	20.5
84658	7	Sololá	717	San Juan la Laguna	12	San Juan la Laguna	10	Octubre	2023-10-22T00:00:00	2024-11-08T08:00:00	4	Temperatura máxima	20.5
84659	7	Sololá	717	San Juan la Laguna	12	San Juan la Laguna	10	Octubre	2023-10-22T00:00:00	2024-11-08T08:00:00	3	Temperatura mínima	16.6
84660	7	Sololá	717	San Juan la Laguna	12	San Juan la Laguna	10	Octubre	2023-10-22T00:00:00	2024-11-08T08:00:00	5	Humedad	78
84661	7	Sololá	717	San Juan la Laguna	12	San Juan la Laguna	10	Octubre	2023-10-22T00:00:00	2024-11-08T08:00:00	6	Velocidad del viento	0
84662	7	Sololá	717	San Juan la Laguna	12	San Juan la Laguna	10	Octubre	2023-10-22T00:00:00	2024-11-08T08:00:00	7	Dirección del viento	0
84663	7	Sololá	717	San Juan la Laguna	12	San Juan la Laguna	10	Octubre	2023-10-22T00:00:00	2024-11-08T08:00:00	1	Precipitación	0
84664	7	Sololá	717	San Juan la Laguna	12	San Juan la Laguna	10	Octubre	2023-10-22T00:00:00	2024-11-08T08:00:00	8	Radiación solar	254
84665	7	Sololá	717	San Juan la Laguna	12	San Juan la Laguna	10	Octubre	2023-10-22T00:00:00	2024-11-08T09:00:00	2	Temperatura media	21.2
84666	7	Sololá	717	San Juan la Laguna	12	San Juan la Laguna	10	Octubre	2023-10-22T00:00:00	2024-11-08T09:00:00	4	Temperatura máxima	21.4
84667	7	Sololá	717	San Juan la Laguna	12	San Juan la Laguna	10	Octubre	2023-10-22T00:00:00	2024-11-08T09:00:00	3	Temperatura mínima	20.5
84668	7	Sololá	717	San Juan la Laguna	12	San Juan la Laguna	10	Octubre	2023-10-22T00:00:00	2024-11-08T09:00:00	5	Humedad	79
84669	7	Sololá	717	San Juan la Laguna	12	San Juan la Laguna	10	Octubre	2023-10-22T00:00:00	2024-11-08T09:00:00	6	Velocidad del viento	0
84670	7	Sololá	717	San Juan la Laguna	12	San Juan la Laguna	10	Octubre	2023-10-22T00:00:00	2024-11-08T09:00:00	7	Dirección del viento	0
84671	7	Sololá	717	San Juan la Laguna	12	San Juan la Laguna	10	Octubre	2023-10-22T00:00:00	2024-11-08T09:00:00	1	Precipitación	0
84672	7	Sololá	717	San Juan la Laguna	12	San Juan la Laguna	10	Octubre	2023-10-22T00:00:00	2024-11-08T09:00:00	8	Radiación solar	465
84673	7	Sololá	717	San Juan la Laguna	12	San Juan la Laguna	10	Octubre	2023-10-22T00:00:00	2024-11-08T10:00:00	2	Temperatura media	22.3
84674	7	Sololá	717	San Juan la Laguna	12	San Juan la Laguna	10	Octubre	2023-10-22T00:00:00	2024-11-08T10:00:00	4	Temperatura máxima	22.7
84675	7	Sololá	717	San Juan la Laguna	12	San Juan la Laguna	10	Octubre	2023-10-22T00:00:00	2024-11-08T10:00:00	3	Temperatura mínima	21.2
84676	7	Sololá	717	San Juan la Laguna	12	San Juan la Laguna	10	Octubre	2023-10-22T00:00:00	2024-11-08T10:00:00	5	Humedad	70
84677	7	Sololá	717	San Juan la Laguna	12	San Juan la Laguna	10	Octubre	2023-10-22T00:00:00	2024-11-08T10:00:00	6	Velocidad del viento	0
84678	7	Sololá	717	San Juan la Laguna	12	San Juan la Laguna	10	Octubre	2023-10-22T00:00:00	2024-11-08T10:00:00	7	Dirección del viento	0
84679	7	Sololá	717	San Juan la Laguna	12	San Juan la Laguna	10	Octubre	2023-10-22T00:00:00	2024-11-08T10:00:00	1	Precipitación	0
84680	7	Sololá	717	San Juan la Laguna	12	San Juan la Laguna	10	Octubre	2023-10-22T00:00:00	2024-11-08T10:00:00	8	Radiación solar	653
84681	7	Sololá	717	San Juan la Laguna	12	San Juan la Laguna	10	Octubre	2023-10-22T00:00:00	2024-11-08T11:00:00	2	Temperatura media	23.6
84682	7	Sololá	717	San Juan la Laguna	12	San Juan la Laguna	10	Octubre	2023-10-22T00:00:00	2024-11-08T11:00:00	4	Temperatura máxima	23.6
84683	7	Sololá	717	San Juan la Laguna	12	San Juan la Laguna	10	Octubre	2023-10-22T00:00:00	2024-11-08T11:00:00	3	Temperatura mínima	22.3
84684	7	Sololá	717	San Juan la Laguna	12	San Juan la Laguna	10	Octubre	2023-10-22T00:00:00	2024-11-08T11:00:00	5	Humedad	67
84685	7	Sololá	717	San Juan la Laguna	12	San Juan la Laguna	10	Octubre	2023-10-22T00:00:00	2024-11-08T11:00:00	6	Velocidad del viento	0
84686	7	Sololá	717	San Juan la Laguna	12	San Juan la Laguna	10	Octubre	2023-10-22T00:00:00	2024-11-08T11:00:00	7	Dirección del viento	0
84687	7	Sololá	717	San Juan la Laguna	12	San Juan la Laguna	10	Octubre	2023-10-22T00:00:00	2024-11-08T11:00:00	1	Precipitación	0
84688	7	Sololá	717	San Juan la Laguna	12	San Juan la Laguna	10	Octubre	2023-10-22T00:00:00	2024-11-08T11:00:00	8	Radiación solar	738
84689	7	Sololá	717	San Juan la Laguna	12	San Juan la Laguna	10	Octubre	2023-10-22T00:00:00	2024-11-08T12:00:00	2	Temperatura media	24
84690	7	Sololá	717	San Juan la Laguna	12	San Juan la Laguna	10	Octubre	2023-10-22T00:00:00	2024-11-08T12:00:00	4	Temperatura máxima	24.1
84691	7	Sololá	717	San Juan la Laguna	12	San Juan la Laguna	10	Octubre	2023-10-22T00:00:00	2024-11-08T12:00:00	3	Temperatura mínima	22.9
84692	7	Sololá	717	San Juan la Laguna	12	San Juan la Laguna	10	Octubre	2023-10-22T00:00:00	2024-11-08T12:00:00	5	Humedad	68
84693	7	Sololá	717	San Juan la Laguna	12	San Juan la Laguna	10	Octubre	2023-10-22T00:00:00	2024-11-08T12:00:00	6	Velocidad del viento	1.6
84694	7	Sololá	717	San Juan la Laguna	12	San Juan la Laguna	10	Octubre	2023-10-22T00:00:00	2024-11-08T12:00:00	7	Dirección del viento	1.61
84695	7	Sololá	717	San Juan la Laguna	12	San Juan la Laguna	10	Octubre	2023-10-22T00:00:00	2024-11-08T12:00:00	1	Precipitación	0
84696	7	Sololá	717	San Juan la Laguna	12	San Juan la Laguna	10	Octubre	2023-10-22T00:00:00	2024-11-08T12:00:00	8	Radiación solar	807
84697	7	Sololá	717	San Juan la Laguna	12	San Juan la Laguna	10	Octubre	2023-10-22T00:00:00	2024-11-08T13:00:00	2	Temperatura media	24.1
84698	7	Sololá	717	San Juan la Laguna	12	San Juan la Laguna	10	Octubre	2023-10-22T00:00:00	2024-11-08T13:00:00	4	Temperatura máxima	24.4
84699	7	Sololá	717	San Juan la Laguna	12	San Juan la Laguna	10	Octubre	2023-10-22T00:00:00	2024-11-08T13:00:00	3	Temperatura mínima	23.7
84700	7	Sololá	717	San Juan la Laguna	12	San Juan la Laguna	10	Octubre	2023-10-22T00:00:00	2024-11-08T13:00:00	5	Humedad	67
84701	7	Sololá	717	San Juan la Laguna	12	San Juan la Laguna	10	Octubre	2023-10-22T00:00:00	2024-11-08T13:00:00	6	Velocidad del viento	1.6
84702	7	Sololá	717	San Juan la Laguna	12	San Juan la Laguna	10	Octubre	2023-10-22T00:00:00	2024-11-08T13:00:00	7	Dirección del viento	1.61
84703	7	Sololá	717	San Juan la Laguna	12	San Juan la Laguna	10	Octubre	2023-10-22T00:00:00	2024-11-08T13:00:00	1	Precipitación	0
84704	7	Sololá	717	San Juan la Laguna	12	San Juan la Laguna	10	Octubre	2023-10-22T00:00:00	2024-11-08T13:00:00	8	Radiación solar	905
84705	7	Sololá	717	San Juan la Laguna	12	San Juan la Laguna	10	Octubre	2023-10-22T00:00:00	2024-11-08T14:00:00	2	Temperatura media	18.9
84706	7	Sololá	717	San Juan la Laguna	12	San Juan la Laguna	10	Octubre	2023-10-22T00:00:00	2024-11-08T14:00:00	4	Temperatura máxima	24.1
84707	7	Sololá	717	San Juan la Laguna	12	San Juan la Laguna	10	Octubre	2023-10-22T00:00:00	2024-11-08T14:00:00	3	Temperatura mínima	18.8
84708	7	Sololá	717	San Juan la Laguna	12	San Juan la Laguna	10	Octubre	2023-10-22T00:00:00	2024-11-08T14:00:00	5	Humedad	86
84709	7	Sololá	717	San Juan la Laguna	12	San Juan la Laguna	10	Octubre	2023-10-22T00:00:00	2024-11-08T14:00:00	6	Velocidad del viento	1.6
84710	7	Sololá	717	San Juan la Laguna	12	San Juan la Laguna	10	Octubre	2023-10-22T00:00:00	2024-11-08T14:00:00	7	Dirección del viento	1.61
84711	7	Sololá	717	San Juan la Laguna	12	San Juan la Laguna	10	Octubre	2023-10-22T00:00:00	2024-11-08T14:00:00	1	Precipitación	2.4
84712	7	Sololá	717	San Juan la Laguna	12	San Juan la Laguna	10	Octubre	2023-10-22T00:00:00	2024-11-08T14:00:00	8	Radiación solar	132
84713	7	Sololá	717	San Juan la Laguna	12	San Juan la Laguna	10	Octubre	2023-10-22T00:00:00	2024-11-08T15:00:00	2	Temperatura media	18.8
84714	7	Sololá	717	San Juan la Laguna	12	San Juan la Laguna	10	Octubre	2023-10-22T00:00:00	2024-11-08T15:00:00	4	Temperatura máxima	19.3
84715	7	Sololá	717	San Juan la Laguna	12	San Juan la Laguna	10	Octubre	2023-10-22T00:00:00	2024-11-08T15:00:00	3	Temperatura mínima	18.7
84716	7	Sololá	717	San Juan la Laguna	12	San Juan la Laguna	10	Octubre	2023-10-22T00:00:00	2024-11-08T15:00:00	5	Humedad	86
84717	7	Sololá	717	San Juan la Laguna	12	San Juan la Laguna	10	Octubre	2023-10-22T00:00:00	2024-11-08T15:00:00	6	Velocidad del viento	1.6
84718	7	Sololá	717	San Juan la Laguna	12	San Juan la Laguna	10	Octubre	2023-10-22T00:00:00	2024-11-08T15:00:00	7	Dirección del viento	1.61
84719	7	Sololá	717	San Juan la Laguna	12	San Juan la Laguna	10	Octubre	2023-10-22T00:00:00	2024-11-08T15:00:00	1	Precipitación	1
84720	7	Sololá	717	San Juan la Laguna	12	San Juan la Laguna	10	Octubre	2023-10-22T00:00:00	2024-11-08T15:00:00	8	Radiación solar	130
84721	7	Sololá	717	San Juan la Laguna	12	San Juan la Laguna	10	Octubre	2023-10-22T00:00:00	2024-11-08T16:00:00	2	Temperatura media	18.8
84722	7	Sololá	717	San Juan la Laguna	12	San Juan la Laguna	10	Octubre	2023-10-22T00:00:00	2024-11-08T16:00:00	4	Temperatura máxima	19.3
84723	7	Sololá	717	San Juan la Laguna	12	San Juan la Laguna	10	Octubre	2023-10-22T00:00:00	2024-11-08T16:00:00	3	Temperatura mínima	18.8
84724	7	Sololá	717	San Juan la Laguna	12	San Juan la Laguna	10	Octubre	2023-10-22T00:00:00	2024-11-08T16:00:00	5	Humedad	89
84725	7	Sololá	717	San Juan la Laguna	12	San Juan la Laguna	10	Octubre	2023-10-22T00:00:00	2024-11-08T16:00:00	6	Velocidad del viento	0
84726	7	Sololá	717	San Juan la Laguna	12	San Juan la Laguna	10	Octubre	2023-10-22T00:00:00	2024-11-08T16:00:00	7	Dirección del viento	0
84727	7	Sololá	717	San Juan la Laguna	12	San Juan la Laguna	10	Octubre	2023-10-22T00:00:00	2024-11-08T16:00:00	1	Precipitación	0.8
84728	7	Sololá	717	San Juan la Laguna	12	San Juan la Laguna	10	Octubre	2023-10-22T00:00:00	2024-11-08T16:00:00	8	Radiación solar	81
84729	7	Sololá	717	San Juan la Laguna	12	San Juan la Laguna	10	Octubre	2023-10-22T00:00:00	2024-11-08T17:00:00	2	Temperatura media	18.6
84730	7	Sololá	717	San Juan la Laguna	12	San Juan la Laguna	10	Octubre	2023-10-22T00:00:00	2024-11-08T17:00:00	4	Temperatura máxima	18.8
84731	7	Sololá	717	San Juan la Laguna	12	San Juan la Laguna	10	Octubre	2023-10-22T00:00:00	2024-11-08T17:00:00	3	Temperatura mínima	18.6
84732	7	Sololá	717	San Juan la Laguna	12	San Juan la Laguna	10	Octubre	2023-10-22T00:00:00	2024-11-08T17:00:00	5	Humedad	90
84733	7	Sololá	717	San Juan la Laguna	12	San Juan la Laguna	10	Octubre	2023-10-22T00:00:00	2024-11-08T17:00:00	6	Velocidad del viento	0
84734	7	Sololá	717	San Juan la Laguna	12	San Juan la Laguna	10	Octubre	2023-10-22T00:00:00	2024-11-08T17:00:00	7	Dirección del viento	0
84735	7	Sololá	717	San Juan la Laguna	12	San Juan la Laguna	10	Octubre	2023-10-22T00:00:00	2024-11-08T17:00:00	1	Precipitación	0.4
84736	7	Sololá	717	San Juan la Laguna	12	San Juan la Laguna	10	Octubre	2023-10-22T00:00:00	2024-11-08T17:00:00	8	Radiación solar	44
84737	7	Sololá	717	San Juan la Laguna	12	San Juan la Laguna	10	Octubre	2023-10-22T00:00:00	2024-11-08T18:00:00	2	Temperatura media	17.8
84738	7	Sololá	717	San Juan la Laguna	12	San Juan la Laguna	10	Octubre	2023-10-22T00:00:00	2024-11-08T18:00:00	4	Temperatura máxima	18.6
84739	7	Sololá	717	San Juan la Laguna	12	San Juan la Laguna	10	Octubre	2023-10-22T00:00:00	2024-11-08T18:00:00	3	Temperatura mínima	17.8
84740	7	Sololá	717	San Juan la Laguna	12	San Juan la Laguna	10	Octubre	2023-10-22T00:00:00	2024-11-08T18:00:00	5	Humedad	90
84741	7	Sololá	717	San Juan la Laguna	12	San Juan la Laguna	10	Octubre	2023-10-22T00:00:00	2024-11-08T18:00:00	6	Velocidad del viento	0
84742	7	Sololá	717	San Juan la Laguna	12	San Juan la Laguna	10	Octubre	2023-10-22T00:00:00	2024-11-08T18:00:00	7	Dirección del viento	0
84743	7	Sololá	717	San Juan la Laguna	12	San Juan la Laguna	10	Octubre	2023-10-22T00:00:00	2024-11-08T18:00:00	1	Precipitación	0.6
84744	7	Sololá	717	San Juan la Laguna	12	San Juan la Laguna	10	Octubre	2023-10-22T00:00:00	2024-11-08T18:00:00	8	Radiación solar	0
84745	7	Sololá	717	San Juan la Laguna	12	San Juan la Laguna	10	Octubre	2023-10-22T00:00:00	2024-11-08T19:00:00	2	Temperatura media	17.4
84746	7	Sololá	717	San Juan la Laguna	12	San Juan la Laguna	10	Octubre	2023-10-22T00:00:00	2024-11-08T19:00:00	4	Temperatura máxima	17.9
84747	7	Sololá	717	San Juan la Laguna	12	San Juan la Laguna	10	Octubre	2023-10-22T00:00:00	2024-11-08T19:00:00	3	Temperatura mínima	17.4
84748	7	Sololá	717	San Juan la Laguna	12	San Juan la Laguna	10	Octubre	2023-10-22T00:00:00	2024-11-08T19:00:00	5	Humedad	91
84749	7	Sololá	717	San Juan la Laguna	12	San Juan la Laguna	10	Octubre	2023-10-22T00:00:00	2024-11-08T19:00:00	6	Velocidad del viento	0
84750	7	Sololá	717	San Juan la Laguna	12	San Juan la Laguna	10	Octubre	2023-10-22T00:00:00	2024-11-08T19:00:00	7	Dirección del viento	0
84751	7	Sololá	717	San Juan la Laguna	12	San Juan la Laguna	10	Octubre	2023-10-22T00:00:00	2024-11-08T19:00:00	1	Precipitación	2.2
84752	7	Sololá	717	San Juan la Laguna	12	San Juan la Laguna	10	Octubre	2023-10-22T00:00:00	2024-11-08T19:00:00	8	Radiación solar	0
84753	7	Sololá	717	San Juan la Laguna	12	San Juan la Laguna	10	Octubre	2023-10-22T00:00:00	2024-11-08T20:00:00	2	Temperatura media	17.2
84754	7	Sololá	717	San Juan la Laguna	12	San Juan la Laguna	10	Octubre	2023-10-22T00:00:00	2024-11-08T20:00:00	4	Temperatura máxima	17.4
84755	7	Sololá	717	San Juan la Laguna	12	San Juan la Laguna	10	Octubre	2023-10-22T00:00:00	2024-11-08T20:00:00	3	Temperatura mínima	17.2
84756	7	Sololá	717	San Juan la Laguna	12	San Juan la Laguna	10	Octubre	2023-10-22T00:00:00	2024-11-08T20:00:00	5	Humedad	91
84757	7	Sololá	717	San Juan la Laguna	12	San Juan la Laguna	10	Octubre	2023-10-22T00:00:00	2024-11-08T20:00:00	6	Velocidad del viento	0
84758	7	Sololá	717	San Juan la Laguna	12	San Juan la Laguna	10	Octubre	2023-10-22T00:00:00	2024-11-08T20:00:00	7	Dirección del viento	0
84759	7	Sololá	717	San Juan la Laguna	12	San Juan la Laguna	10	Octubre	2023-10-22T00:00:00	2024-11-08T20:00:00	1	Precipitación	0.4
84760	7	Sololá	717	San Juan la Laguna	12	San Juan la Laguna	10	Octubre	2023-10-22T00:00:00	2024-11-08T20:00:00	8	Radiación solar	0
84761	7	Sololá	717	San Juan la Laguna	12	San Juan la Laguna	10	Octubre	2023-10-22T00:00:00	2024-11-08T21:00:00	2	Temperatura media	17.2
84762	7	Sololá	717	San Juan la Laguna	12	San Juan la Laguna	10	Octubre	2023-10-22T00:00:00	2024-11-08T21:00:00	4	Temperatura máxima	17.3
84763	7	Sololá	717	San Juan la Laguna	12	San Juan la Laguna	10	Octubre	2023-10-22T00:00:00	2024-11-08T21:00:00	3	Temperatura mínima	16.9
84764	7	Sololá	717	San Juan la Laguna	12	San Juan la Laguna	10	Octubre	2023-10-22T00:00:00	2024-11-08T21:00:00	5	Humedad	91
84765	7	Sololá	717	San Juan la Laguna	12	San Juan la Laguna	10	Octubre	2023-10-22T00:00:00	2024-11-08T21:00:00	6	Velocidad del viento	0
84766	7	Sololá	717	San Juan la Laguna	12	San Juan la Laguna	10	Octubre	2023-10-22T00:00:00	2024-11-08T21:00:00	7	Dirección del viento	0
84767	7	Sololá	717	San Juan la Laguna	12	San Juan la Laguna	10	Octubre	2023-10-22T00:00:00	2024-11-08T21:00:00	1	Precipitación	0
84768	7	Sololá	717	San Juan la Laguna	12	San Juan la Laguna	10	Octubre	2023-10-22T00:00:00	2024-11-08T21:00:00	8	Radiación solar	0
84769	7	Sololá	717	San Juan la Laguna	12	San Juan la Laguna	10	Octubre	2023-10-22T00:00:00	2024-11-08T22:00:00	2	Temperatura media	17.2
84770	7	Sololá	717	San Juan la Laguna	12	San Juan la Laguna	10	Octubre	2023-10-22T00:00:00	2024-11-08T22:00:00	4	Temperatura máxima	17.3
84771	7	Sololá	717	San Juan la Laguna	12	San Juan la Laguna	10	Octubre	2023-10-22T00:00:00	2024-11-08T22:00:00	3	Temperatura mínima	17
84772	7	Sololá	717	San Juan la Laguna	12	San Juan la Laguna	10	Octubre	2023-10-22T00:00:00	2024-11-08T22:00:00	5	Humedad	91
84773	7	Sololá	717	San Juan la Laguna	12	San Juan la Laguna	10	Octubre	2023-10-22T00:00:00	2024-11-08T22:00:00	6	Velocidad del viento	0
84774	7	Sololá	717	San Juan la Laguna	12	San Juan la Laguna	10	Octubre	2023-10-22T00:00:00	2024-11-08T22:00:00	7	Dirección del viento	0
84775	7	Sololá	717	San Juan la Laguna	12	San Juan la Laguna	10	Octubre	2023-10-22T00:00:00	2024-11-08T22:00:00	1	Precipitación	0
84776	7	Sololá	717	San Juan la Laguna	12	San Juan la Laguna	10	Octubre	2023-10-22T00:00:00	2024-11-08T22:00:00	8	Radiación solar	0
84777	7	Sololá	717	San Juan la Laguna	12	San Juan la Laguna	10	Octubre	2023-10-22T00:00:00	2024-11-08T23:00:00	2	Temperatura media	17.1
84778	7	Sololá	717	San Juan la Laguna	12	San Juan la Laguna	10	Octubre	2023-10-22T00:00:00	2024-11-08T23:00:00	4	Temperatura máxima	17.3
84779	7	Sololá	717	San Juan la Laguna	12	San Juan la Laguna	10	Octubre	2023-10-22T00:00:00	2024-11-08T23:00:00	3	Temperatura mínima	17.1
84780	7	Sololá	717	San Juan la Laguna	12	San Juan la Laguna	10	Octubre	2023-10-22T00:00:00	2024-11-08T23:00:00	5	Humedad	91
84781	7	Sololá	717	San Juan la Laguna	12	San Juan la Laguna	10	Octubre	2023-10-22T00:00:00	2024-11-08T23:00:00	6	Velocidad del viento	0
84782	7	Sololá	717	San Juan la Laguna	12	San Juan la Laguna	10	Octubre	2023-10-22T00:00:00	2024-11-08T23:00:00	7	Dirección del viento	0
84783	7	Sololá	717	San Juan la Laguna	12	San Juan la Laguna	10	Octubre	2023-10-22T00:00:00	2024-11-08T23:00:00	1	Precipitación	0
84784	7	Sololá	717	San Juan la Laguna	12	San Juan la Laguna	10	Octubre	2023-10-22T00:00:00	2024-11-08T23:00:00	8	Radiación solar	0
84785	7	Sololá	717	San Juan la Laguna	12	San Juan la Laguna	10	Octubre	2023-10-23T00:00:00	2024-11-08T00:00:00	2	Temperatura media	16.1
84786	7	Sololá	717	San Juan la Laguna	12	San Juan la Laguna	10	Octubre	2023-10-23T00:00:00	2024-11-08T00:00:00	4	Temperatura máxima	17.1
84787	7	Sololá	717	San Juan la Laguna	12	San Juan la Laguna	10	Octubre	2023-10-23T00:00:00	2024-11-08T00:00:00	3	Temperatura mínima	16.1
84788	7	Sololá	717	San Juan la Laguna	12	San Juan la Laguna	10	Octubre	2023-10-23T00:00:00	2024-11-08T00:00:00	5	Humedad	91
84789	7	Sololá	717	San Juan la Laguna	12	San Juan la Laguna	10	Octubre	2023-10-23T00:00:00	2024-11-08T00:00:00	6	Velocidad del viento	0
84790	7	Sololá	717	San Juan la Laguna	12	San Juan la Laguna	10	Octubre	2023-10-23T00:00:00	2024-11-08T00:00:00	7	Dirección del viento	0
84791	7	Sololá	717	San Juan la Laguna	12	San Juan la Laguna	10	Octubre	2023-10-23T00:00:00	2024-11-08T00:00:00	1	Precipitación	0
84792	7	Sololá	717	San Juan la Laguna	12	San Juan la Laguna	10	Octubre	2023-10-23T00:00:00	2024-11-08T00:00:00	8	Radiación solar	0
84793	7	Sololá	717	San Juan la Laguna	12	San Juan la Laguna	10	Octubre	2023-10-23T00:00:00	2024-11-08T01:00:00	2	Temperatura media	15.7
84794	7	Sololá	717	San Juan la Laguna	12	San Juan la Laguna	10	Octubre	2023-10-23T00:00:00	2024-11-08T01:00:00	4	Temperatura máxima	16.1
84795	7	Sololá	717	San Juan la Laguna	12	San Juan la Laguna	10	Octubre	2023-10-23T00:00:00	2024-11-08T01:00:00	3	Temperatura mínima	15.7
84796	7	Sololá	717	San Juan la Laguna	12	San Juan la Laguna	10	Octubre	2023-10-23T00:00:00	2024-11-08T01:00:00	5	Humedad	91
84797	7	Sololá	717	San Juan la Laguna	12	San Juan la Laguna	10	Octubre	2023-10-23T00:00:00	2024-11-08T01:00:00	6	Velocidad del viento	0
84798	7	Sololá	717	San Juan la Laguna	12	San Juan la Laguna	10	Octubre	2023-10-23T00:00:00	2024-11-08T01:00:00	7	Dirección del viento	0
84799	7	Sololá	717	San Juan la Laguna	12	San Juan la Laguna	10	Octubre	2023-10-23T00:00:00	2024-11-08T01:00:00	1	Precipitación	0
84800	7	Sololá	717	San Juan la Laguna	12	San Juan la Laguna	10	Octubre	2023-10-23T00:00:00	2024-11-08T01:00:00	8	Radiación solar	0
84801	7	Sololá	717	San Juan la Laguna	12	San Juan la Laguna	10	Octubre	2023-10-23T00:00:00	2024-11-08T02:00:00	2	Temperatura media	15.6
84802	7	Sololá	717	San Juan la Laguna	12	San Juan la Laguna	10	Octubre	2023-10-23T00:00:00	2024-11-08T02:00:00	4	Temperatura máxima	15.8
84803	7	Sololá	717	San Juan la Laguna	12	San Juan la Laguna	10	Octubre	2023-10-23T00:00:00	2024-11-08T02:00:00	3	Temperatura mínima	15.6
84804	7	Sololá	717	San Juan la Laguna	12	San Juan la Laguna	10	Octubre	2023-10-23T00:00:00	2024-11-08T02:00:00	5	Humedad	91
84805	7	Sololá	717	San Juan la Laguna	12	San Juan la Laguna	10	Octubre	2023-10-23T00:00:00	2024-11-08T02:00:00	6	Velocidad del viento	0
84806	7	Sololá	717	San Juan la Laguna	12	San Juan la Laguna	10	Octubre	2023-10-23T00:00:00	2024-11-08T02:00:00	7	Dirección del viento	0
84807	7	Sololá	717	San Juan la Laguna	12	San Juan la Laguna	10	Octubre	2023-10-23T00:00:00	2024-11-08T02:00:00	1	Precipitación	0
84808	7	Sololá	717	San Juan la Laguna	12	San Juan la Laguna	10	Octubre	2023-10-23T00:00:00	2024-11-08T02:00:00	8	Radiación solar	0
84809	7	Sololá	717	San Juan la Laguna	12	San Juan la Laguna	10	Octubre	2023-10-23T00:00:00	2024-11-08T03:00:00	2	Temperatura media	15.6
84810	7	Sololá	717	San Juan la Laguna	12	San Juan la Laguna	10	Octubre	2023-10-23T00:00:00	2024-11-08T03:00:00	4	Temperatura máxima	15.6
84811	7	Sololá	717	San Juan la Laguna	12	San Juan la Laguna	10	Octubre	2023-10-23T00:00:00	2024-11-08T03:00:00	3	Temperatura mínima	15.5
84812	7	Sololá	717	San Juan la Laguna	12	San Juan la Laguna	10	Octubre	2023-10-23T00:00:00	2024-11-08T03:00:00	5	Humedad	91
84813	7	Sololá	717	San Juan la Laguna	12	San Juan la Laguna	10	Octubre	2023-10-23T00:00:00	2024-11-08T03:00:00	6	Velocidad del viento	3.2
84814	7	Sololá	717	San Juan la Laguna	12	San Juan la Laguna	10	Octubre	2023-10-23T00:00:00	2024-11-08T03:00:00	7	Dirección del viento	3.22
84815	7	Sololá	717	San Juan la Laguna	12	San Juan la Laguna	10	Octubre	2023-10-23T00:00:00	2024-11-08T03:00:00	1	Precipitación	0
84816	7	Sololá	717	San Juan la Laguna	12	San Juan la Laguna	10	Octubre	2023-10-23T00:00:00	2024-11-08T03:00:00	8	Radiación solar	0
84817	7	Sololá	717	San Juan la Laguna	12	San Juan la Laguna	10	Octubre	2023-10-23T00:00:00	2024-11-08T04:00:00	2	Temperatura media	15.8
84818	7	Sololá	717	San Juan la Laguna	12	San Juan la Laguna	10	Octubre	2023-10-23T00:00:00	2024-11-08T04:00:00	4	Temperatura máxima	15.8
84819	7	Sololá	717	San Juan la Laguna	12	San Juan la Laguna	10	Octubre	2023-10-23T00:00:00	2024-11-08T04:00:00	3	Temperatura mínima	15.5
84820	7	Sololá	717	San Juan la Laguna	12	San Juan la Laguna	10	Octubre	2023-10-23T00:00:00	2024-11-08T04:00:00	5	Humedad	90
84821	7	Sololá	717	San Juan la Laguna	12	San Juan la Laguna	10	Octubre	2023-10-23T00:00:00	2024-11-08T04:00:00	6	Velocidad del viento	3.2
84822	7	Sololá	717	San Juan la Laguna	12	San Juan la Laguna	10	Octubre	2023-10-23T00:00:00	2024-11-08T04:00:00	7	Dirección del viento	3.22
84823	7	Sololá	717	San Juan la Laguna	12	San Juan la Laguna	10	Octubre	2023-10-23T00:00:00	2024-11-08T04:00:00	1	Precipitación	0
84824	7	Sololá	717	San Juan la Laguna	12	San Juan la Laguna	10	Octubre	2023-10-23T00:00:00	2024-11-08T04:00:00	8	Radiación solar	0
84825	7	Sololá	717	San Juan la Laguna	12	San Juan la Laguna	10	Octubre	2023-10-23T00:00:00	2024-11-08T05:00:00	2	Temperatura media	15.7
84826	7	Sololá	717	San Juan la Laguna	12	San Juan la Laguna	10	Octubre	2023-10-23T00:00:00	2024-11-08T05:00:00	4	Temperatura máxima	15.8
84827	7	Sololá	717	San Juan la Laguna	12	San Juan la Laguna	10	Octubre	2023-10-23T00:00:00	2024-11-08T05:00:00	3	Temperatura mínima	15.6
84828	7	Sololá	717	San Juan la Laguna	12	San Juan la Laguna	10	Octubre	2023-10-23T00:00:00	2024-11-08T05:00:00	5	Humedad	90
84829	7	Sololá	717	San Juan la Laguna	12	San Juan la Laguna	10	Octubre	2023-10-23T00:00:00	2024-11-08T05:00:00	6	Velocidad del viento	0
84830	7	Sololá	717	San Juan la Laguna	12	San Juan la Laguna	10	Octubre	2023-10-23T00:00:00	2024-11-08T05:00:00	7	Dirección del viento	0
84831	7	Sololá	717	San Juan la Laguna	12	San Juan la Laguna	10	Octubre	2023-10-23T00:00:00	2024-11-08T05:00:00	1	Precipitación	0
84832	7	Sololá	717	San Juan la Laguna	12	San Juan la Laguna	10	Octubre	2023-10-23T00:00:00	2024-11-08T05:00:00	8	Radiación solar	0
84833	7	Sololá	717	San Juan la Laguna	12	San Juan la Laguna	10	Octubre	2023-10-23T00:00:00	2024-11-08T06:00:00	2	Temperatura media	15.2
84834	7	Sololá	717	San Juan la Laguna	12	San Juan la Laguna	10	Octubre	2023-10-23T00:00:00	2024-11-08T06:00:00	4	Temperatura máxima	15.7
84835	7	Sololá	717	San Juan la Laguna	12	San Juan la Laguna	10	Octubre	2023-10-23T00:00:00	2024-11-08T06:00:00	3	Temperatura mínima	15.2
84836	7	Sololá	717	San Juan la Laguna	12	San Juan la Laguna	10	Octubre	2023-10-23T00:00:00	2024-11-08T06:00:00	5	Humedad	90
84837	7	Sololá	717	San Juan la Laguna	12	San Juan la Laguna	10	Octubre	2023-10-23T00:00:00	2024-11-08T06:00:00	6	Velocidad del viento	0
84838	7	Sololá	717	San Juan la Laguna	12	San Juan la Laguna	10	Octubre	2023-10-23T00:00:00	2024-11-08T06:00:00	7	Dirección del viento	0
84839	7	Sololá	717	San Juan la Laguna	12	San Juan la Laguna	10	Octubre	2023-10-23T00:00:00	2024-11-08T06:00:00	1	Precipitación	0
84840	7	Sololá	717	San Juan la Laguna	12	San Juan la Laguna	10	Octubre	2023-10-23T00:00:00	2024-11-08T06:00:00	8	Radiación solar	0
84841	7	Sololá	717	San Juan la Laguna	12	San Juan la Laguna	10	Octubre	2023-10-23T00:00:00	2024-11-08T07:00:00	2	Temperatura media	15.9
84842	7	Sololá	717	San Juan la Laguna	12	San Juan la Laguna	10	Octubre	2023-10-23T00:00:00	2024-11-08T07:00:00	4	Temperatura máxima	15.9
84843	7	Sololá	717	San Juan la Laguna	12	San Juan la Laguna	10	Octubre	2023-10-23T00:00:00	2024-11-08T07:00:00	3	Temperatura mínima	15
84844	7	Sololá	717	San Juan la Laguna	12	San Juan la Laguna	10	Octubre	2023-10-23T00:00:00	2024-11-08T07:00:00	5	Humedad	89
84845	7	Sololá	717	San Juan la Laguna	12	San Juan la Laguna	10	Octubre	2023-10-23T00:00:00	2024-11-08T07:00:00	6	Velocidad del viento	0
84846	7	Sololá	717	San Juan la Laguna	12	San Juan la Laguna	10	Octubre	2023-10-23T00:00:00	2024-11-08T07:00:00	7	Dirección del viento	0
84847	7	Sololá	717	San Juan la Laguna	12	San Juan la Laguna	10	Octubre	2023-10-23T00:00:00	2024-11-08T07:00:00	1	Precipitación	0
84848	7	Sololá	717	San Juan la Laguna	12	San Juan la Laguna	10	Octubre	2023-10-23T00:00:00	2024-11-08T07:00:00	8	Radiación solar	54
84849	7	Sololá	717	San Juan la Laguna	12	San Juan la Laguna	10	Octubre	2023-10-23T00:00:00	2024-11-08T08:00:00	2	Temperatura media	18.9
84850	7	Sololá	717	San Juan la Laguna	12	San Juan la Laguna	10	Octubre	2023-10-23T00:00:00	2024-11-08T08:00:00	4	Temperatura máxima	19
84851	7	Sololá	717	San Juan la Laguna	12	San Juan la Laguna	10	Octubre	2023-10-23T00:00:00	2024-11-08T08:00:00	3	Temperatura mínima	15.9
84852	7	Sololá	717	San Juan la Laguna	12	San Juan la Laguna	10	Octubre	2023-10-23T00:00:00	2024-11-08T08:00:00	5	Humedad	83
84853	7	Sololá	717	San Juan la Laguna	12	San Juan la Laguna	10	Octubre	2023-10-23T00:00:00	2024-11-08T08:00:00	6	Velocidad del viento	0
84854	7	Sololá	717	San Juan la Laguna	12	San Juan la Laguna	10	Octubre	2023-10-23T00:00:00	2024-11-08T08:00:00	7	Dirección del viento	0
84855	7	Sololá	717	San Juan la Laguna	12	San Juan la Laguna	10	Octubre	2023-10-23T00:00:00	2024-11-08T08:00:00	1	Precipitación	0
84856	7	Sololá	717	San Juan la Laguna	12	San Juan la Laguna	10	Octubre	2023-10-23T00:00:00	2024-11-08T08:00:00	8	Radiación solar	216
84857	7	Sololá	717	San Juan la Laguna	12	San Juan la Laguna	10	Octubre	2023-10-23T00:00:00	2024-11-08T09:00:00	2	Temperatura media	20.4
84858	7	Sololá	717	San Juan la Laguna	12	San Juan la Laguna	10	Octubre	2023-10-23T00:00:00	2024-11-08T09:00:00	4	Temperatura máxima	20.7
84859	7	Sololá	717	San Juan la Laguna	12	San Juan la Laguna	10	Octubre	2023-10-23T00:00:00	2024-11-08T09:00:00	3	Temperatura mínima	18.8
84860	7	Sololá	717	San Juan la Laguna	12	San Juan la Laguna	10	Octubre	2023-10-23T00:00:00	2024-11-08T09:00:00	5	Humedad	79
84861	7	Sololá	717	San Juan la Laguna	12	San Juan la Laguna	10	Octubre	2023-10-23T00:00:00	2024-11-08T09:00:00	6	Velocidad del viento	0
84862	7	Sololá	717	San Juan la Laguna	12	San Juan la Laguna	10	Octubre	2023-10-23T00:00:00	2024-11-08T09:00:00	7	Dirección del viento	0
84863	7	Sololá	717	San Juan la Laguna	12	San Juan la Laguna	10	Octubre	2023-10-23T00:00:00	2024-11-08T09:00:00	1	Precipitación	0
84864	7	Sololá	717	San Juan la Laguna	12	San Juan la Laguna	10	Octubre	2023-10-23T00:00:00	2024-11-08T09:00:00	8	Radiación solar	431
84865	7	Sololá	717	San Juan la Laguna	12	San Juan la Laguna	10	Octubre	2023-10-23T00:00:00	2024-11-08T10:00:00	2	Temperatura media	22.3
84866	7	Sololá	717	San Juan la Laguna	12	San Juan la Laguna	10	Octubre	2023-10-23T00:00:00	2024-11-08T10:00:00	4	Temperatura máxima	22.4
84867	7	Sololá	717	San Juan la Laguna	12	San Juan la Laguna	10	Octubre	2023-10-23T00:00:00	2024-11-08T10:00:00	3	Temperatura mínima	20.3
84868	7	Sololá	717	San Juan la Laguna	12	San Juan la Laguna	10	Octubre	2023-10-23T00:00:00	2024-11-08T10:00:00	5	Humedad	72
84869	7	Sololá	717	San Juan la Laguna	12	San Juan la Laguna	10	Octubre	2023-10-23T00:00:00	2024-11-08T10:00:00	6	Velocidad del viento	0
84870	7	Sololá	717	San Juan la Laguna	12	San Juan la Laguna	10	Octubre	2023-10-23T00:00:00	2024-11-08T10:00:00	7	Dirección del viento	0
84871	7	Sololá	717	San Juan la Laguna	12	San Juan la Laguna	10	Octubre	2023-10-23T00:00:00	2024-11-08T10:00:00	1	Precipitación	0
84872	7	Sololá	717	San Juan la Laguna	12	San Juan la Laguna	10	Octubre	2023-10-23T00:00:00	2024-11-08T10:00:00	8	Radiación solar	448
84873	7	Sololá	717	San Juan la Laguna	12	San Juan la Laguna	10	Octubre	2023-10-23T00:00:00	2024-11-08T11:00:00	2	Temperatura media	22.7
84874	7	Sololá	717	San Juan la Laguna	12	San Juan la Laguna	10	Octubre	2023-10-23T00:00:00	2024-11-08T11:00:00	4	Temperatura máxima	23.4
84875	7	Sololá	717	San Juan la Laguna	12	San Juan la Laguna	10	Octubre	2023-10-23T00:00:00	2024-11-08T11:00:00	3	Temperatura mínima	22.3
84876	7	Sololá	717	San Juan la Laguna	12	San Juan la Laguna	10	Octubre	2023-10-23T00:00:00	2024-11-08T11:00:00	5	Humedad	65
84877	7	Sololá	717	San Juan la Laguna	12	San Juan la Laguna	10	Octubre	2023-10-23T00:00:00	2024-11-08T11:00:00	6	Velocidad del viento	1.6
84878	7	Sololá	717	San Juan la Laguna	12	San Juan la Laguna	10	Octubre	2023-10-23T00:00:00	2024-11-08T11:00:00	7	Dirección del viento	1.61
84879	7	Sololá	717	San Juan la Laguna	12	San Juan la Laguna	10	Octubre	2023-10-23T00:00:00	2024-11-08T11:00:00	1	Precipitación	0
84880	7	Sololá	717	San Juan la Laguna	12	San Juan la Laguna	10	Octubre	2023-10-23T00:00:00	2024-11-08T11:00:00	8	Radiación solar	552
84881	7	Sololá	717	San Juan la Laguna	12	San Juan la Laguna	10	Octubre	2023-10-23T00:00:00	2024-11-08T12:00:00	2	Temperatura media	23.1
84882	7	Sololá	717	San Juan la Laguna	12	San Juan la Laguna	10	Octubre	2023-10-23T00:00:00	2024-11-08T12:00:00	4	Temperatura máxima	23.6
84883	7	Sololá	717	San Juan la Laguna	12	San Juan la Laguna	10	Octubre	2023-10-23T00:00:00	2024-11-08T12:00:00	3	Temperatura mínima	22.7
84884	7	Sololá	717	San Juan la Laguna	12	San Juan la Laguna	10	Octubre	2023-10-23T00:00:00	2024-11-08T12:00:00	5	Humedad	68
84885	7	Sololá	717	San Juan la Laguna	12	San Juan la Laguna	10	Octubre	2023-10-23T00:00:00	2024-11-08T12:00:00	6	Velocidad del viento	0
84886	7	Sololá	717	San Juan la Laguna	12	San Juan la Laguna	10	Octubre	2023-10-23T00:00:00	2024-11-08T12:00:00	7	Dirección del viento	0
84887	7	Sololá	717	San Juan la Laguna	12	San Juan la Laguna	10	Octubre	2023-10-23T00:00:00	2024-11-08T12:00:00	1	Precipitación	0
84888	7	Sololá	717	San Juan la Laguna	12	San Juan la Laguna	10	Octubre	2023-10-23T00:00:00	2024-11-08T12:00:00	8	Radiación solar	892
84889	7	Sololá	717	San Juan la Laguna	12	San Juan la Laguna	10	Octubre	2023-10-23T00:00:00	2024-11-08T13:00:00	2	Temperatura media	23.9
84890	7	Sololá	717	San Juan la Laguna	12	San Juan la Laguna	10	Octubre	2023-10-23T00:00:00	2024-11-08T13:00:00	4	Temperatura máxima	24.5
84891	7	Sololá	717	San Juan la Laguna	12	San Juan la Laguna	10	Octubre	2023-10-23T00:00:00	2024-11-08T13:00:00	3	Temperatura mínima	23.1
84892	7	Sololá	717	San Juan la Laguna	12	San Juan la Laguna	10	Octubre	2023-10-23T00:00:00	2024-11-08T13:00:00	5	Humedad	70
84893	7	Sololá	717	San Juan la Laguna	12	San Juan la Laguna	10	Octubre	2023-10-23T00:00:00	2024-11-08T13:00:00	6	Velocidad del viento	0
84894	7	Sololá	717	San Juan la Laguna	12	San Juan la Laguna	10	Octubre	2023-10-23T00:00:00	2024-11-08T13:00:00	7	Dirección del viento	0
84895	7	Sololá	717	San Juan la Laguna	12	San Juan la Laguna	10	Octubre	2023-10-23T00:00:00	2024-11-08T13:00:00	1	Precipitación	0
84896	7	Sololá	717	San Juan la Laguna	12	San Juan la Laguna	10	Octubre	2023-10-23T00:00:00	2024-11-08T13:00:00	8	Radiación solar	838
84897	7	Sololá	717	San Juan la Laguna	12	San Juan la Laguna	10	Octubre	2023-10-23T00:00:00	2024-11-08T14:00:00	2	Temperatura media	23.4
84898	7	Sololá	717	San Juan la Laguna	12	San Juan la Laguna	10	Octubre	2023-10-23T00:00:00	2024-11-08T14:00:00	4	Temperatura máxima	24.1
84899	7	Sololá	717	San Juan la Laguna	12	San Juan la Laguna	10	Octubre	2023-10-23T00:00:00	2024-11-08T14:00:00	3	Temperatura mínima	23.1
84900	7	Sololá	717	San Juan la Laguna	12	San Juan la Laguna	10	Octubre	2023-10-23T00:00:00	2024-11-08T14:00:00	5	Humedad	73
84901	7	Sololá	717	San Juan la Laguna	12	San Juan la Laguna	10	Octubre	2023-10-23T00:00:00	2024-11-08T14:00:00	6	Velocidad del viento	3.2
84902	7	Sololá	717	San Juan la Laguna	12	San Juan la Laguna	10	Octubre	2023-10-23T00:00:00	2024-11-08T14:00:00	7	Dirección del viento	3.22
84903	7	Sololá	717	San Juan la Laguna	12	San Juan la Laguna	10	Octubre	2023-10-23T00:00:00	2024-11-08T14:00:00	1	Precipitación	0
84904	7	Sololá	717	San Juan la Laguna	12	San Juan la Laguna	10	Octubre	2023-10-23T00:00:00	2024-11-08T14:00:00	8	Radiación solar	806
84905	7	Sololá	717	San Juan la Laguna	12	San Juan la Laguna	10	Octubre	2023-10-23T00:00:00	2024-11-08T15:00:00	2	Temperatura media	22.3
84906	7	Sololá	717	San Juan la Laguna	12	San Juan la Laguna	10	Octubre	2023-10-23T00:00:00	2024-11-08T15:00:00	4	Temperatura máxima	23.4
84907	7	Sololá	717	San Juan la Laguna	12	San Juan la Laguna	10	Octubre	2023-10-23T00:00:00	2024-11-08T15:00:00	3	Temperatura mínima	21.3
84908	7	Sololá	717	San Juan la Laguna	12	San Juan la Laguna	10	Octubre	2023-10-23T00:00:00	2024-11-08T15:00:00	5	Humedad	76
84909	7	Sololá	717	San Juan la Laguna	12	San Juan la Laguna	10	Octubre	2023-10-23T00:00:00	2024-11-08T15:00:00	6	Velocidad del viento	3.2
84910	7	Sololá	717	San Juan la Laguna	12	San Juan la Laguna	10	Octubre	2023-10-23T00:00:00	2024-11-08T15:00:00	7	Dirección del viento	3.22
84911	7	Sololá	717	San Juan la Laguna	12	San Juan la Laguna	10	Octubre	2023-10-23T00:00:00	2024-11-08T15:00:00	1	Precipitación	0
84912	7	Sololá	717	San Juan la Laguna	12	San Juan la Laguna	10	Octubre	2023-10-23T00:00:00	2024-11-08T15:00:00	8	Radiación solar	437
84913	7	Sololá	717	San Juan la Laguna	12	San Juan la Laguna	10	Octubre	2023-10-23T00:00:00	2024-11-08T16:00:00	2	Temperatura media	22.1
84914	7	Sololá	717	San Juan la Laguna	12	San Juan la Laguna	10	Octubre	2023-10-23T00:00:00	2024-11-08T16:00:00	4	Temperatura máxima	22.6
84915	7	Sololá	717	San Juan la Laguna	12	San Juan la Laguna	10	Octubre	2023-10-23T00:00:00	2024-11-08T16:00:00	3	Temperatura mínima	21.8
84916	7	Sololá	717	San Juan la Laguna	12	San Juan la Laguna	10	Octubre	2023-10-23T00:00:00	2024-11-08T16:00:00	5	Humedad	77
84917	7	Sololá	717	San Juan la Laguna	12	San Juan la Laguna	10	Octubre	2023-10-23T00:00:00	2024-11-08T16:00:00	6	Velocidad del viento	0
84918	7	Sololá	717	San Juan la Laguna	12	San Juan la Laguna	10	Octubre	2023-10-23T00:00:00	2024-11-08T16:00:00	7	Dirección del viento	0
84919	7	Sololá	717	San Juan la Laguna	12	San Juan la Laguna	10	Octubre	2023-10-23T00:00:00	2024-11-08T16:00:00	1	Precipitación	0
84920	7	Sololá	717	San Juan la Laguna	12	San Juan la Laguna	10	Octubre	2023-10-23T00:00:00	2024-11-08T16:00:00	8	Radiación solar	364
84921	7	Sololá	717	San Juan la Laguna	12	San Juan la Laguna	10	Octubre	2023-10-23T00:00:00	2024-11-08T17:00:00	2	Temperatura media	21.4
84922	7	Sololá	717	San Juan la Laguna	12	San Juan la Laguna	10	Octubre	2023-10-23T00:00:00	2024-11-08T17:00:00	4	Temperatura máxima	23.1
84923	7	Sololá	717	San Juan la Laguna	12	San Juan la Laguna	10	Octubre	2023-10-23T00:00:00	2024-11-08T17:00:00	3	Temperatura mínima	21.4
84924	7	Sololá	717	San Juan la Laguna	12	San Juan la Laguna	10	Octubre	2023-10-23T00:00:00	2024-11-08T17:00:00	5	Humedad	80
84925	7	Sololá	717	San Juan la Laguna	12	San Juan la Laguna	10	Octubre	2023-10-23T00:00:00	2024-11-08T17:00:00	6	Velocidad del viento	0
84926	7	Sololá	717	San Juan la Laguna	12	San Juan la Laguna	10	Octubre	2023-10-23T00:00:00	2024-11-08T17:00:00	7	Dirección del viento	0
84927	7	Sololá	717	San Juan la Laguna	12	San Juan la Laguna	10	Octubre	2023-10-23T00:00:00	2024-11-08T17:00:00	1	Precipitación	0
84928	7	Sololá	717	San Juan la Laguna	12	San Juan la Laguna	10	Octubre	2023-10-23T00:00:00	2024-11-08T17:00:00	8	Radiación solar	185
84929	7	Sololá	717	San Juan la Laguna	12	San Juan la Laguna	10	Octubre	2023-10-23T00:00:00	2024-11-08T18:00:00	2	Temperatura media	20.1
84930	7	Sololá	717	San Juan la Laguna	12	San Juan la Laguna	10	Octubre	2023-10-23T00:00:00	2024-11-08T18:00:00	4	Temperatura máxima	21.4
84931	7	Sololá	717	San Juan la Laguna	12	San Juan la Laguna	10	Octubre	2023-10-23T00:00:00	2024-11-08T18:00:00	3	Temperatura mínima	20.1
84932	7	Sololá	717	San Juan la Laguna	12	San Juan la Laguna	10	Octubre	2023-10-23T00:00:00	2024-11-08T18:00:00	5	Humedad	84
84933	7	Sololá	717	San Juan la Laguna	12	San Juan la Laguna	10	Octubre	2023-10-23T00:00:00	2024-11-08T18:00:00	6	Velocidad del viento	0
84934	7	Sololá	717	San Juan la Laguna	12	San Juan la Laguna	10	Octubre	2023-10-23T00:00:00	2024-11-08T18:00:00	7	Dirección del viento	0
84935	7	Sololá	717	San Juan la Laguna	12	San Juan la Laguna	10	Octubre	2023-10-23T00:00:00	2024-11-08T18:00:00	1	Precipitación	0
84936	7	Sololá	717	San Juan la Laguna	12	San Juan la Laguna	10	Octubre	2023-10-23T00:00:00	2024-11-08T18:00:00	8	Radiación solar	8
84937	7	Sololá	717	San Juan la Laguna	12	San Juan la Laguna	10	Octubre	2023-10-23T00:00:00	2024-11-08T19:00:00	2	Temperatura media	19.2
84938	7	Sololá	717	San Juan la Laguna	12	San Juan la Laguna	10	Octubre	2023-10-23T00:00:00	2024-11-08T19:00:00	4	Temperatura máxima	20.1
84939	7	Sololá	717	San Juan la Laguna	12	San Juan la Laguna	10	Octubre	2023-10-23T00:00:00	2024-11-08T19:00:00	3	Temperatura mínima	19.2
84940	7	Sololá	717	San Juan la Laguna	12	San Juan la Laguna	10	Octubre	2023-10-23T00:00:00	2024-11-08T19:00:00	5	Humedad	87
84941	7	Sololá	717	San Juan la Laguna	12	San Juan la Laguna	10	Octubre	2023-10-23T00:00:00	2024-11-08T19:00:00	6	Velocidad del viento	0
84942	7	Sololá	717	San Juan la Laguna	12	San Juan la Laguna	10	Octubre	2023-10-23T00:00:00	2024-11-08T19:00:00	7	Dirección del viento	0
84943	7	Sololá	717	San Juan la Laguna	12	San Juan la Laguna	10	Octubre	2023-10-23T00:00:00	2024-11-08T19:00:00	1	Precipitación	0
84944	7	Sololá	717	San Juan la Laguna	12	San Juan la Laguna	10	Octubre	2023-10-23T00:00:00	2024-11-08T19:00:00	8	Radiación solar	0
84945	7	Sololá	717	San Juan la Laguna	12	San Juan la Laguna	10	Octubre	2023-10-23T00:00:00	2024-11-08T20:00:00	2	Temperatura media	19.1
84946	7	Sololá	717	San Juan la Laguna	12	San Juan la Laguna	10	Octubre	2023-10-23T00:00:00	2024-11-08T20:00:00	4	Temperatura máxima	19.3
84947	7	Sololá	717	San Juan la Laguna	12	San Juan la Laguna	10	Octubre	2023-10-23T00:00:00	2024-11-08T20:00:00	3	Temperatura mínima	18.9
84948	7	Sololá	717	San Juan la Laguna	12	San Juan la Laguna	10	Octubre	2023-10-23T00:00:00	2024-11-08T20:00:00	5	Humedad	86
84949	7	Sololá	717	San Juan la Laguna	12	San Juan la Laguna	10	Octubre	2023-10-23T00:00:00	2024-11-08T20:00:00	6	Velocidad del viento	0
84950	7	Sololá	717	San Juan la Laguna	12	San Juan la Laguna	10	Octubre	2023-10-23T00:00:00	2024-11-08T20:00:00	7	Dirección del viento	0
84951	7	Sololá	717	San Juan la Laguna	12	San Juan la Laguna	10	Octubre	2023-10-23T00:00:00	2024-11-08T20:00:00	1	Precipitación	0
84952	7	Sololá	717	San Juan la Laguna	12	San Juan la Laguna	10	Octubre	2023-10-23T00:00:00	2024-11-08T20:00:00	8	Radiación solar	0
84953	7	Sololá	717	San Juan la Laguna	12	San Juan la Laguna	10	Octubre	2023-10-23T00:00:00	2024-11-08T21:00:00	2	Temperatura media	19.3
84954	7	Sololá	717	San Juan la Laguna	12	San Juan la Laguna	10	Octubre	2023-10-23T00:00:00	2024-11-08T21:00:00	4	Temperatura máxima	19.5
84955	7	Sololá	717	San Juan la Laguna	12	San Juan la Laguna	10	Octubre	2023-10-23T00:00:00	2024-11-08T21:00:00	3	Temperatura mínima	18.9
84956	7	Sololá	717	San Juan la Laguna	12	San Juan la Laguna	10	Octubre	2023-10-23T00:00:00	2024-11-08T21:00:00	5	Humedad	87
84957	7	Sololá	717	San Juan la Laguna	12	San Juan la Laguna	10	Octubre	2023-10-23T00:00:00	2024-11-08T21:00:00	6	Velocidad del viento	0
84958	7	Sololá	717	San Juan la Laguna	12	San Juan la Laguna	10	Octubre	2023-10-23T00:00:00	2024-11-08T21:00:00	7	Dirección del viento	0
84959	7	Sololá	717	San Juan la Laguna	12	San Juan la Laguna	10	Octubre	2023-10-23T00:00:00	2024-11-08T21:00:00	1	Precipitación	0
84960	7	Sololá	717	San Juan la Laguna	12	San Juan la Laguna	10	Octubre	2023-10-23T00:00:00	2024-11-08T21:00:00	8	Radiación solar	0
84961	7	Sololá	717	San Juan la Laguna	12	San Juan la Laguna	10	Octubre	2023-10-23T00:00:00	2024-11-08T22:00:00	2	Temperatura media	18.9
84962	7	Sololá	717	San Juan la Laguna	12	San Juan la Laguna	10	Octubre	2023-10-23T00:00:00	2024-11-08T22:00:00	4	Temperatura máxima	19.3
84963	7	Sololá	717	San Juan la Laguna	12	San Juan la Laguna	10	Octubre	2023-10-23T00:00:00	2024-11-08T22:00:00	3	Temperatura mínima	18.9
84964	7	Sololá	717	San Juan la Laguna	12	San Juan la Laguna	10	Octubre	2023-10-23T00:00:00	2024-11-08T22:00:00	5	Humedad	87
84965	7	Sololá	717	San Juan la Laguna	12	San Juan la Laguna	10	Octubre	2023-10-23T00:00:00	2024-11-08T22:00:00	6	Velocidad del viento	0
84966	7	Sololá	717	San Juan la Laguna	12	San Juan la Laguna	10	Octubre	2023-10-23T00:00:00	2024-11-08T22:00:00	7	Dirección del viento	0
84967	7	Sololá	717	San Juan la Laguna	12	San Juan la Laguna	10	Octubre	2023-10-23T00:00:00	2024-11-08T22:00:00	1	Precipitación	0
84968	7	Sololá	717	San Juan la Laguna	12	San Juan la Laguna	10	Octubre	2023-10-23T00:00:00	2024-11-08T22:00:00	8	Radiación solar	0
84969	7	Sololá	717	San Juan la Laguna	12	San Juan la Laguna	10	Octubre	2023-10-23T00:00:00	2024-11-08T23:00:00	2	Temperatura media	18.6
84970	7	Sololá	717	San Juan la Laguna	12	San Juan la Laguna	10	Octubre	2023-10-23T00:00:00	2024-11-08T23:00:00	4	Temperatura máxima	19
84971	7	Sololá	717	San Juan la Laguna	12	San Juan la Laguna	10	Octubre	2023-10-23T00:00:00	2024-11-08T23:00:00	3	Temperatura mínima	18.6
84972	7	Sololá	717	San Juan la Laguna	12	San Juan la Laguna	10	Octubre	2023-10-23T00:00:00	2024-11-08T23:00:00	5	Humedad	88
84973	7	Sololá	717	San Juan la Laguna	12	San Juan la Laguna	10	Octubre	2023-10-23T00:00:00	2024-11-08T23:00:00	6	Velocidad del viento	0
84974	7	Sololá	717	San Juan la Laguna	12	San Juan la Laguna	10	Octubre	2023-10-23T00:00:00	2024-11-08T23:00:00	7	Dirección del viento	0
84975	7	Sololá	717	San Juan la Laguna	12	San Juan la Laguna	10	Octubre	2023-10-23T00:00:00	2024-11-08T23:00:00	1	Precipitación	0
84976	7	Sololá	717	San Juan la Laguna	12	San Juan la Laguna	10	Octubre	2023-10-23T00:00:00	2024-11-08T23:00:00	8	Radiación solar	0
84977	7	Sololá	717	San Juan la Laguna	12	San Juan la Laguna	10	Octubre	2023-10-24T00:00:00	2024-11-08T00:00:00	2	Temperatura media	18.4
84978	7	Sololá	717	San Juan la Laguna	12	San Juan la Laguna	10	Octubre	2023-10-24T00:00:00	2024-11-08T00:00:00	4	Temperatura máxima	18.6
84979	7	Sololá	717	San Juan la Laguna	12	San Juan la Laguna	10	Octubre	2023-10-24T00:00:00	2024-11-08T00:00:00	3	Temperatura mínima	18.3
84980	7	Sololá	717	San Juan la Laguna	12	San Juan la Laguna	10	Octubre	2023-10-24T00:00:00	2024-11-08T00:00:00	5	Humedad	89
84981	7	Sololá	717	San Juan la Laguna	12	San Juan la Laguna	10	Octubre	2023-10-24T00:00:00	2024-11-08T00:00:00	6	Velocidad del viento	0
84982	7	Sololá	717	San Juan la Laguna	12	San Juan la Laguna	10	Octubre	2023-10-24T00:00:00	2024-11-08T00:00:00	7	Dirección del viento	0
84983	7	Sololá	717	San Juan la Laguna	12	San Juan la Laguna	10	Octubre	2023-10-24T00:00:00	2024-11-08T00:00:00	1	Precipitación	0
84984	7	Sololá	717	San Juan la Laguna	12	San Juan la Laguna	10	Octubre	2023-10-24T00:00:00	2024-11-08T00:00:00	8	Radiación solar	0
84985	7	Sololá	717	San Juan la Laguna	12	San Juan la Laguna	10	Octubre	2023-10-24T00:00:00	2024-11-08T01:00:00	2	Temperatura media	18.2
84986	7	Sololá	717	San Juan la Laguna	12	San Juan la Laguna	10	Octubre	2023-10-24T00:00:00	2024-11-08T01:00:00	4	Temperatura máxima	18.5
84987	7	Sololá	717	San Juan la Laguna	12	San Juan la Laguna	10	Octubre	2023-10-24T00:00:00	2024-11-08T01:00:00	3	Temperatura mínima	18.2
84988	7	Sololá	717	San Juan la Laguna	12	San Juan la Laguna	10	Octubre	2023-10-24T00:00:00	2024-11-08T01:00:00	5	Humedad	89
84989	7	Sololá	717	San Juan la Laguna	12	San Juan la Laguna	10	Octubre	2023-10-24T00:00:00	2024-11-08T01:00:00	6	Velocidad del viento	0
84990	7	Sololá	717	San Juan la Laguna	12	San Juan la Laguna	10	Octubre	2023-10-24T00:00:00	2024-11-08T01:00:00	7	Dirección del viento	0
84991	7	Sololá	717	San Juan la Laguna	12	San Juan la Laguna	10	Octubre	2023-10-24T00:00:00	2024-11-08T01:00:00	1	Precipitación	0
84992	7	Sololá	717	San Juan la Laguna	12	San Juan la Laguna	10	Octubre	2023-10-24T00:00:00	2024-11-08T01:00:00	8	Radiación solar	0
84993	7	Sololá	717	San Juan la Laguna	12	San Juan la Laguna	10	Octubre	2023-10-24T00:00:00	2024-11-08T02:00:00	2	Temperatura media	18.2
84994	7	Sololá	717	San Juan la Laguna	12	San Juan la Laguna	10	Octubre	2023-10-24T00:00:00	2024-11-08T02:00:00	4	Temperatura máxima	18.3
84995	7	Sololá	717	San Juan la Laguna	12	San Juan la Laguna	10	Octubre	2023-10-24T00:00:00	2024-11-08T02:00:00	3	Temperatura mínima	18.1
84996	7	Sololá	717	San Juan la Laguna	12	San Juan la Laguna	10	Octubre	2023-10-24T00:00:00	2024-11-08T02:00:00	5	Humedad	90
84997	7	Sololá	717	San Juan la Laguna	12	San Juan la Laguna	10	Octubre	2023-10-24T00:00:00	2024-11-08T02:00:00	6	Velocidad del viento	0
84998	7	Sololá	717	San Juan la Laguna	12	San Juan la Laguna	10	Octubre	2023-10-24T00:00:00	2024-11-08T02:00:00	7	Dirección del viento	0
84999	7	Sololá	717	San Juan la Laguna	12	San Juan la Laguna	10	Octubre	2023-10-24T00:00:00	2024-11-08T02:00:00	1	Precipitación	0
85000	7	Sololá	717	San Juan la Laguna	12	San Juan la Laguna	10	Octubre	2023-10-24T00:00:00	2024-11-08T02:00:00	8	Radiación solar	0
85001	7	Sololá	717	San Juan la Laguna	12	San Juan la Laguna	10	Octubre	2023-10-24T00:00:00	2024-11-08T03:00:00	2	Temperatura media	17.6
85002	7	Sololá	717	San Juan la Laguna	12	San Juan la Laguna	10	Octubre	2023-10-24T00:00:00	2024-11-08T03:00:00	4	Temperatura máxima	18.2
85003	7	Sololá	717	San Juan la Laguna	12	San Juan la Laguna	10	Octubre	2023-10-24T00:00:00	2024-11-08T03:00:00	3	Temperatura mínima	17.6
85004	7	Sololá	717	San Juan la Laguna	12	San Juan la Laguna	10	Octubre	2023-10-24T00:00:00	2024-11-08T03:00:00	5	Humedad	90
85005	7	Sololá	717	San Juan la Laguna	12	San Juan la Laguna	10	Octubre	2023-10-24T00:00:00	2024-11-08T03:00:00	6	Velocidad del viento	0
85006	7	Sololá	717	San Juan la Laguna	12	San Juan la Laguna	10	Octubre	2023-10-24T00:00:00	2024-11-08T03:00:00	7	Dirección del viento	0
85007	7	Sololá	717	San Juan la Laguna	12	San Juan la Laguna	10	Octubre	2023-10-24T00:00:00	2024-11-08T03:00:00	1	Precipitación	0
85008	7	Sololá	717	San Juan la Laguna	12	San Juan la Laguna	10	Octubre	2023-10-24T00:00:00	2024-11-08T03:00:00	8	Radiación solar	0
85009	7	Sololá	717	San Juan la Laguna	12	San Juan la Laguna	10	Octubre	2023-10-24T00:00:00	2024-11-08T04:00:00	2	Temperatura media	17.1
85010	7	Sololá	717	San Juan la Laguna	12	San Juan la Laguna	10	Octubre	2023-10-24T00:00:00	2024-11-08T04:00:00	4	Temperatura máxima	17.6
85011	7	Sololá	717	San Juan la Laguna	12	San Juan la Laguna	10	Octubre	2023-10-24T00:00:00	2024-11-08T04:00:00	3	Temperatura mínima	17.1
85012	7	Sololá	717	San Juan la Laguna	12	San Juan la Laguna	10	Octubre	2023-10-24T00:00:00	2024-11-08T04:00:00	5	Humedad	89
85013	7	Sololá	717	San Juan la Laguna	12	San Juan la Laguna	10	Octubre	2023-10-24T00:00:00	2024-11-08T04:00:00	6	Velocidad del viento	0
85014	7	Sololá	717	San Juan la Laguna	12	San Juan la Laguna	10	Octubre	2023-10-24T00:00:00	2024-11-08T04:00:00	7	Dirección del viento	0
85015	7	Sololá	717	San Juan la Laguna	12	San Juan la Laguna	10	Octubre	2023-10-24T00:00:00	2024-11-08T04:00:00	1	Precipitación	0
85016	7	Sololá	717	San Juan la Laguna	12	San Juan la Laguna	10	Octubre	2023-10-24T00:00:00	2024-11-08T04:00:00	8	Radiación solar	0
85017	7	Sololá	717	San Juan la Laguna	12	San Juan la Laguna	10	Octubre	2023-10-24T00:00:00	2024-11-08T05:00:00	2	Temperatura media	16.8
85018	7	Sololá	717	San Juan la Laguna	12	San Juan la Laguna	10	Octubre	2023-10-24T00:00:00	2024-11-08T05:00:00	4	Temperatura máxima	17.1
85019	7	Sololá	717	San Juan la Laguna	12	San Juan la Laguna	10	Octubre	2023-10-24T00:00:00	2024-11-08T05:00:00	3	Temperatura mínima	16.7
85020	7	Sololá	717	San Juan la Laguna	12	San Juan la Laguna	10	Octubre	2023-10-24T00:00:00	2024-11-08T05:00:00	5	Humedad	88
85021	7	Sololá	717	San Juan la Laguna	12	San Juan la Laguna	10	Octubre	2023-10-24T00:00:00	2024-11-08T05:00:00	6	Velocidad del viento	0
85022	7	Sololá	717	San Juan la Laguna	12	San Juan la Laguna	10	Octubre	2023-10-24T00:00:00	2024-11-08T05:00:00	7	Dirección del viento	0
85023	7	Sololá	717	San Juan la Laguna	12	San Juan la Laguna	10	Octubre	2023-10-24T00:00:00	2024-11-08T05:00:00	1	Precipitación	0
85024	7	Sololá	717	San Juan la Laguna	12	San Juan la Laguna	10	Octubre	2023-10-24T00:00:00	2024-11-08T05:00:00	8	Radiación solar	0
85025	7	Sololá	717	San Juan la Laguna	12	San Juan la Laguna	10	Octubre	2023-10-24T00:00:00	2024-11-08T06:00:00	2	Temperatura media	16.6
85026	7	Sololá	717	San Juan la Laguna	12	San Juan la Laguna	10	Octubre	2023-10-24T00:00:00	2024-11-08T06:00:00	4	Temperatura máxima	16.8
85027	7	Sololá	717	San Juan la Laguna	12	San Juan la Laguna	10	Octubre	2023-10-24T00:00:00	2024-11-08T06:00:00	3	Temperatura mínima	16.4
85028	7	Sololá	717	San Juan la Laguna	12	San Juan la Laguna	10	Octubre	2023-10-24T00:00:00	2024-11-08T06:00:00	5	Humedad	89
85029	7	Sololá	717	San Juan la Laguna	12	San Juan la Laguna	10	Octubre	2023-10-24T00:00:00	2024-11-08T06:00:00	6	Velocidad del viento	0
85030	7	Sololá	717	San Juan la Laguna	12	San Juan la Laguna	10	Octubre	2023-10-24T00:00:00	2024-11-08T06:00:00	7	Dirección del viento	0
85031	7	Sololá	717	San Juan la Laguna	12	San Juan la Laguna	10	Octubre	2023-10-24T00:00:00	2024-11-08T06:00:00	1	Precipitación	0
85032	7	Sololá	717	San Juan la Laguna	12	San Juan la Laguna	10	Octubre	2023-10-24T00:00:00	2024-11-08T06:00:00	8	Radiación solar	0
85033	7	Sololá	717	San Juan la Laguna	12	San Juan la Laguna	10	Octubre	2023-10-24T00:00:00	2024-11-08T07:00:00	2	Temperatura media	18
85034	7	Sololá	717	San Juan la Laguna	12	San Juan la Laguna	10	Octubre	2023-10-24T00:00:00	2024-11-08T07:00:00	4	Temperatura máxima	18
85035	7	Sololá	717	San Juan la Laguna	12	San Juan la Laguna	10	Octubre	2023-10-24T00:00:00	2024-11-08T07:00:00	3	Temperatura mínima	16.6
85036	7	Sololá	717	San Juan la Laguna	12	San Juan la Laguna	10	Octubre	2023-10-24T00:00:00	2024-11-08T07:00:00	5	Humedad	87
85037	7	Sololá	717	San Juan la Laguna	12	San Juan la Laguna	10	Octubre	2023-10-24T00:00:00	2024-11-08T07:00:00	6	Velocidad del viento	0
85038	7	Sololá	717	San Juan la Laguna	12	San Juan la Laguna	10	Octubre	2023-10-24T00:00:00	2024-11-08T07:00:00	7	Dirección del viento	0
85039	7	Sololá	717	San Juan la Laguna	12	San Juan la Laguna	10	Octubre	2023-10-24T00:00:00	2024-11-08T07:00:00	1	Precipitación	0
85040	7	Sololá	717	San Juan la Laguna	12	San Juan la Laguna	10	Octubre	2023-10-24T00:00:00	2024-11-08T07:00:00	8	Radiación solar	63
85041	7	Sololá	717	San Juan la Laguna	12	San Juan la Laguna	10	Octubre	2023-10-24T00:00:00	2024-11-08T08:00:00	2	Temperatura media	21.1
85042	7	Sololá	717	San Juan la Laguna	12	San Juan la Laguna	10	Octubre	2023-10-24T00:00:00	2024-11-08T08:00:00	4	Temperatura máxima	21.2
85043	7	Sololá	717	San Juan la Laguna	12	San Juan la Laguna	10	Octubre	2023-10-24T00:00:00	2024-11-08T08:00:00	3	Temperatura mínima	18
85044	7	Sololá	717	San Juan la Laguna	12	San Juan la Laguna	10	Octubre	2023-10-24T00:00:00	2024-11-08T08:00:00	5	Humedad	79
85045	7	Sololá	717	San Juan la Laguna	12	San Juan la Laguna	10	Octubre	2023-10-24T00:00:00	2024-11-08T08:00:00	6	Velocidad del viento	0
85046	7	Sololá	717	San Juan la Laguna	12	San Juan la Laguna	10	Octubre	2023-10-24T00:00:00	2024-11-08T08:00:00	7	Dirección del viento	0
85047	7	Sololá	717	San Juan la Laguna	12	San Juan la Laguna	10	Octubre	2023-10-24T00:00:00	2024-11-08T08:00:00	1	Precipitación	0
85048	7	Sololá	717	San Juan la Laguna	12	San Juan la Laguna	10	Octubre	2023-10-24T00:00:00	2024-11-08T08:00:00	8	Radiación solar	264
85049	7	Sololá	717	San Juan la Laguna	12	San Juan la Laguna	10	Octubre	2023-10-24T00:00:00	2024-11-08T09:00:00	2	Temperatura media	21.9
85050	7	Sololá	717	San Juan la Laguna	12	San Juan la Laguna	10	Octubre	2023-10-24T00:00:00	2024-11-08T09:00:00	4	Temperatura máxima	22
85051	7	Sololá	717	San Juan la Laguna	12	San Juan la Laguna	10	Octubre	2023-10-24T00:00:00	2024-11-08T09:00:00	3	Temperatura mínima	20.9
85052	7	Sololá	717	San Juan la Laguna	12	San Juan la Laguna	10	Octubre	2023-10-24T00:00:00	2024-11-08T09:00:00	5	Humedad	75
85053	7	Sololá	717	San Juan la Laguna	12	San Juan la Laguna	10	Octubre	2023-10-24T00:00:00	2024-11-08T09:00:00	6	Velocidad del viento	0
85054	7	Sololá	717	San Juan la Laguna	12	San Juan la Laguna	10	Octubre	2023-10-24T00:00:00	2024-11-08T09:00:00	7	Dirección del viento	0
85055	7	Sololá	717	San Juan la Laguna	12	San Juan la Laguna	10	Octubre	2023-10-24T00:00:00	2024-11-08T09:00:00	1	Precipitación	0
85056	7	Sololá	717	San Juan la Laguna	12	San Juan la Laguna	10	Octubre	2023-10-24T00:00:00	2024-11-08T09:00:00	8	Radiación solar	478
85057	7	Sololá	717	San Juan la Laguna	12	San Juan la Laguna	10	Octubre	2023-10-24T00:00:00	2024-11-08T10:00:00	2	Temperatura media	23.7
85058	7	Sololá	717	San Juan la Laguna	12	San Juan la Laguna	10	Octubre	2023-10-24T00:00:00	2024-11-08T10:00:00	4	Temperatura máxima	23.7
85059	7	Sololá	717	San Juan la Laguna	12	San Juan la Laguna	10	Octubre	2023-10-24T00:00:00	2024-11-08T10:00:00	3	Temperatura mínima	21.9
85060	7	Sololá	717	San Juan la Laguna	12	San Juan la Laguna	10	Octubre	2023-10-24T00:00:00	2024-11-08T10:00:00	5	Humedad	71
85061	7	Sololá	717	San Juan la Laguna	12	San Juan la Laguna	10	Octubre	2023-10-24T00:00:00	2024-11-08T10:00:00	6	Velocidad del viento	0
85062	7	Sololá	717	San Juan la Laguna	12	San Juan la Laguna	10	Octubre	2023-10-24T00:00:00	2024-11-08T10:00:00	7	Dirección del viento	0
85063	7	Sololá	717	San Juan la Laguna	12	San Juan la Laguna	10	Octubre	2023-10-24T00:00:00	2024-11-08T10:00:00	1	Precipitación	0
85064	7	Sololá	717	San Juan la Laguna	12	San Juan la Laguna	10	Octubre	2023-10-24T00:00:00	2024-11-08T10:00:00	8	Radiación solar	646
85065	7	Sololá	717	San Juan la Laguna	12	San Juan la Laguna	10	Octubre	2023-10-24T00:00:00	2024-11-08T11:00:00	2	Temperatura media	24.6
85066	7	Sololá	717	San Juan la Laguna	12	San Juan la Laguna	10	Octubre	2023-10-24T00:00:00	2024-11-08T11:00:00	4	Temperatura máxima	24.6
85067	7	Sololá	717	San Juan la Laguna	12	San Juan la Laguna	10	Octubre	2023-10-24T00:00:00	2024-11-08T11:00:00	3	Temperatura mínima	23.4
85068	7	Sololá	717	San Juan la Laguna	12	San Juan la Laguna	10	Octubre	2023-10-24T00:00:00	2024-11-08T11:00:00	5	Humedad	65
85069	7	Sololá	717	San Juan la Laguna	12	San Juan la Laguna	10	Octubre	2023-10-24T00:00:00	2024-11-08T11:00:00	6	Velocidad del viento	0
85070	7	Sololá	717	San Juan la Laguna	12	San Juan la Laguna	10	Octubre	2023-10-24T00:00:00	2024-11-08T11:00:00	7	Dirección del viento	0
85071	7	Sololá	717	San Juan la Laguna	12	San Juan la Laguna	10	Octubre	2023-10-24T00:00:00	2024-11-08T11:00:00	1	Precipitación	0
85072	7	Sololá	717	San Juan la Laguna	12	San Juan la Laguna	10	Octubre	2023-10-24T00:00:00	2024-11-08T11:00:00	8	Radiación solar	719
85073	7	Sololá	717	San Juan la Laguna	12	San Juan la Laguna	10	Octubre	2023-10-24T00:00:00	2024-11-08T12:00:00	2	Temperatura media	23.2
85074	7	Sololá	717	San Juan la Laguna	12	San Juan la Laguna	10	Octubre	2023-10-24T00:00:00	2024-11-08T12:00:00	4	Temperatura máxima	24.8
85075	7	Sololá	717	San Juan la Laguna	12	San Juan la Laguna	10	Octubre	2023-10-24T00:00:00	2024-11-08T12:00:00	3	Temperatura mínima	23.2
85076	7	Sololá	717	San Juan la Laguna	12	San Juan la Laguna	10	Octubre	2023-10-24T00:00:00	2024-11-08T12:00:00	5	Humedad	74
85077	7	Sololá	717	San Juan la Laguna	12	San Juan la Laguna	10	Octubre	2023-10-24T00:00:00	2024-11-08T12:00:00	6	Velocidad del viento	0
85078	7	Sololá	717	San Juan la Laguna	12	San Juan la Laguna	10	Octubre	2023-10-24T00:00:00	2024-11-08T12:00:00	7	Dirección del viento	0
85079	7	Sololá	717	San Juan la Laguna	12	San Juan la Laguna	10	Octubre	2023-10-24T00:00:00	2024-11-08T12:00:00	1	Precipitación	0
85080	7	Sololá	717	San Juan la Laguna	12	San Juan la Laguna	10	Octubre	2023-10-24T00:00:00	2024-11-08T12:00:00	8	Radiación solar	614
85081	7	Sololá	717	San Juan la Laguna	12	San Juan la Laguna	10	Octubre	2023-10-24T00:00:00	2024-11-08T13:00:00	2	Temperatura media	21.7
85082	7	Sololá	717	San Juan la Laguna	12	San Juan la Laguna	10	Octubre	2023-10-24T00:00:00	2024-11-08T13:00:00	4	Temperatura máxima	23.2
85083	7	Sololá	717	San Juan la Laguna	12	San Juan la Laguna	10	Octubre	2023-10-24T00:00:00	2024-11-08T13:00:00	3	Temperatura mínima	21.3
85084	7	Sololá	717	San Juan la Laguna	12	San Juan la Laguna	10	Octubre	2023-10-24T00:00:00	2024-11-08T13:00:00	5	Humedad	82
85085	7	Sololá	717	San Juan la Laguna	12	San Juan la Laguna	10	Octubre	2023-10-24T00:00:00	2024-11-08T13:00:00	6	Velocidad del viento	4.8
85086	7	Sololá	717	San Juan la Laguna	12	San Juan la Laguna	10	Octubre	2023-10-24T00:00:00	2024-11-08T13:00:00	7	Dirección del viento	4.83
85087	7	Sololá	717	San Juan la Laguna	12	San Juan la Laguna	10	Octubre	2023-10-24T00:00:00	2024-11-08T13:00:00	1	Precipitación	0
85088	7	Sololá	717	San Juan la Laguna	12	San Juan la Laguna	10	Octubre	2023-10-24T00:00:00	2024-11-08T13:00:00	8	Radiación solar	452
85089	7	Sololá	717	San Juan la Laguna	12	San Juan la Laguna	10	Octubre	2023-10-24T00:00:00	2024-11-08T14:00:00	2	Temperatura media	20.3
85090	7	Sololá	717	San Juan la Laguna	12	San Juan la Laguna	10	Octubre	2023-10-24T00:00:00	2024-11-08T14:00:00	4	Temperatura máxima	23.1
85091	7	Sololá	717	San Juan la Laguna	12	San Juan la Laguna	10	Octubre	2023-10-24T00:00:00	2024-11-08T14:00:00	3	Temperatura mínima	20.3
85092	7	Sololá	717	San Juan la Laguna	12	San Juan la Laguna	10	Octubre	2023-10-24T00:00:00	2024-11-08T14:00:00	5	Humedad	87
85093	7	Sololá	717	San Juan la Laguna	12	San Juan la Laguna	10	Octubre	2023-10-24T00:00:00	2024-11-08T14:00:00	6	Velocidad del viento	1.6
85094	7	Sololá	717	San Juan la Laguna	12	San Juan la Laguna	10	Octubre	2023-10-24T00:00:00	2024-11-08T14:00:00	7	Dirección del viento	1.61
85095	7	Sololá	717	San Juan la Laguna	12	San Juan la Laguna	10	Octubre	2023-10-24T00:00:00	2024-11-08T14:00:00	1	Precipitación	0.8
85096	7	Sololá	717	San Juan la Laguna	12	San Juan la Laguna	10	Octubre	2023-10-24T00:00:00	2024-11-08T14:00:00	8	Radiación solar	268
85097	7	Sololá	717	San Juan la Laguna	12	San Juan la Laguna	10	Octubre	2023-10-24T00:00:00	2024-11-08T15:00:00	2	Temperatura media	19.1
85098	7	Sololá	717	San Juan la Laguna	12	San Juan la Laguna	10	Octubre	2023-10-24T00:00:00	2024-11-08T15:00:00	4	Temperatura máxima	20.3
85099	7	Sololá	717	San Juan la Laguna	12	San Juan la Laguna	10	Octubre	2023-10-24T00:00:00	2024-11-08T15:00:00	3	Temperatura mínima	18.8
85100	7	Sololá	717	San Juan la Laguna	12	San Juan la Laguna	10	Octubre	2023-10-24T00:00:00	2024-11-08T15:00:00	5	Humedad	89
85101	7	Sololá	717	San Juan la Laguna	12	San Juan la Laguna	10	Octubre	2023-10-24T00:00:00	2024-11-08T15:00:00	6	Velocidad del viento	0
85102	7	Sololá	717	San Juan la Laguna	12	San Juan la Laguna	10	Octubre	2023-10-24T00:00:00	2024-11-08T15:00:00	7	Dirección del viento	0
85103	7	Sololá	717	San Juan la Laguna	12	San Juan la Laguna	10	Octubre	2023-10-24T00:00:00	2024-11-08T15:00:00	1	Precipitación	2
85104	7	Sololá	717	San Juan la Laguna	12	San Juan la Laguna	10	Octubre	2023-10-24T00:00:00	2024-11-08T15:00:00	8	Radiación solar	25
85105	7	Sololá	717	San Juan la Laguna	12	San Juan la Laguna	10	Octubre	2023-10-24T00:00:00	2024-11-08T16:00:00	2	Temperatura media	19.6
85106	7	Sololá	717	San Juan la Laguna	12	San Juan la Laguna	10	Octubre	2023-10-24T00:00:00	2024-11-08T16:00:00	4	Temperatura máxima	19.7
85107	7	Sololá	717	San Juan la Laguna	12	San Juan la Laguna	10	Octubre	2023-10-24T00:00:00	2024-11-08T16:00:00	3	Temperatura mínima	19.1
85108	7	Sololá	717	San Juan la Laguna	12	San Juan la Laguna	10	Octubre	2023-10-24T00:00:00	2024-11-08T16:00:00	5	Humedad	87
85109	7	Sololá	717	San Juan la Laguna	12	San Juan la Laguna	10	Octubre	2023-10-24T00:00:00	2024-11-08T16:00:00	6	Velocidad del viento	1.6
85110	7	Sololá	717	San Juan la Laguna	12	San Juan la Laguna	10	Octubre	2023-10-24T00:00:00	2024-11-08T16:00:00	7	Dirección del viento	1.61
85111	7	Sololá	717	San Juan la Laguna	12	San Juan la Laguna	10	Octubre	2023-10-24T00:00:00	2024-11-08T16:00:00	1	Precipitación	0.2
85112	7	Sololá	717	San Juan la Laguna	12	San Juan la Laguna	10	Octubre	2023-10-24T00:00:00	2024-11-08T16:00:00	8	Radiación solar	82
85113	7	Sololá	717	San Juan la Laguna	12	San Juan la Laguna	10	Octubre	2023-10-24T00:00:00	2024-11-08T17:00:00	2	Temperatura media	19.2
85114	7	Sololá	717	San Juan la Laguna	12	San Juan la Laguna	10	Octubre	2023-10-24T00:00:00	2024-11-08T17:00:00	4	Temperatura máxima	19.7
85115	7	Sololá	717	San Juan la Laguna	12	San Juan la Laguna	10	Octubre	2023-10-24T00:00:00	2024-11-08T17:00:00	3	Temperatura mínima	19.2
85116	7	Sololá	717	San Juan la Laguna	12	San Juan la Laguna	10	Octubre	2023-10-24T00:00:00	2024-11-08T17:00:00	5	Humedad	89
85117	7	Sololá	717	San Juan la Laguna	12	San Juan la Laguna	10	Octubre	2023-10-24T00:00:00	2024-11-08T17:00:00	6	Velocidad del viento	0
85118	7	Sololá	717	San Juan la Laguna	12	San Juan la Laguna	10	Octubre	2023-10-24T00:00:00	2024-11-08T17:00:00	7	Dirección del viento	0
85119	7	Sololá	717	San Juan la Laguna	12	San Juan la Laguna	10	Octubre	2023-10-24T00:00:00	2024-11-08T17:00:00	1	Precipitación	0
85120	7	Sololá	717	San Juan la Laguna	12	San Juan la Laguna	10	Octubre	2023-10-24T00:00:00	2024-11-08T17:00:00	8	Radiación solar	51
85121	7	Sololá	717	San Juan la Laguna	12	San Juan la Laguna	10	Octubre	2023-10-24T00:00:00	2024-11-08T18:00:00	2	Temperatura media	17.9
85122	7	Sololá	717	San Juan la Laguna	12	San Juan la Laguna	10	Octubre	2023-10-24T00:00:00	2024-11-08T18:00:00	4	Temperatura máxima	19.2
85123	7	Sololá	717	San Juan la Laguna	12	San Juan la Laguna	10	Octubre	2023-10-24T00:00:00	2024-11-08T18:00:00	3	Temperatura mínima	17.9
85124	7	Sololá	717	San Juan la Laguna	12	San Juan la Laguna	10	Octubre	2023-10-24T00:00:00	2024-11-08T18:00:00	5	Humedad	89
85125	7	Sololá	717	San Juan la Laguna	12	San Juan la Laguna	10	Octubre	2023-10-24T00:00:00	2024-11-08T18:00:00	6	Velocidad del viento	1.6
85126	7	Sololá	717	San Juan la Laguna	12	San Juan la Laguna	10	Octubre	2023-10-24T00:00:00	2024-11-08T18:00:00	7	Dirección del viento	1.61
85127	7	Sololá	717	San Juan la Laguna	12	San Juan la Laguna	10	Octubre	2023-10-24T00:00:00	2024-11-08T18:00:00	1	Precipitación	0
85128	7	Sololá	717	San Juan la Laguna	12	San Juan la Laguna	10	Octubre	2023-10-24T00:00:00	2024-11-08T18:00:00	8	Radiación solar	13
85129	7	Sololá	717	San Juan la Laguna	12	San Juan la Laguna	10	Octubre	2023-10-24T00:00:00	2024-11-08T19:00:00	2	Temperatura media	17.7
85130	7	Sololá	717	San Juan la Laguna	12	San Juan la Laguna	10	Octubre	2023-10-24T00:00:00	2024-11-08T19:00:00	4	Temperatura máxima	18
85131	7	Sololá	717	San Juan la Laguna	12	San Juan la Laguna	10	Octubre	2023-10-24T00:00:00	2024-11-08T19:00:00	3	Temperatura mínima	17.7
85132	7	Sololá	717	San Juan la Laguna	12	San Juan la Laguna	10	Octubre	2023-10-24T00:00:00	2024-11-08T19:00:00	5	Humedad	90
85133	7	Sololá	717	San Juan la Laguna	12	San Juan la Laguna	10	Octubre	2023-10-24T00:00:00	2024-11-08T19:00:00	6	Velocidad del viento	3.2
85134	7	Sololá	717	San Juan la Laguna	12	San Juan la Laguna	10	Octubre	2023-10-24T00:00:00	2024-11-08T19:00:00	7	Dirección del viento	3.22
85135	7	Sololá	717	San Juan la Laguna	12	San Juan la Laguna	10	Octubre	2023-10-24T00:00:00	2024-11-08T19:00:00	1	Precipitación	0
85136	7	Sololá	717	San Juan la Laguna	12	San Juan la Laguna	10	Octubre	2023-10-24T00:00:00	2024-11-08T19:00:00	8	Radiación solar	0
85137	7	Sololá	717	San Juan la Laguna	12	San Juan la Laguna	10	Octubre	2023-10-24T00:00:00	2024-11-08T20:00:00	2	Temperatura media	17.7
85138	7	Sololá	717	San Juan la Laguna	12	San Juan la Laguna	10	Octubre	2023-10-24T00:00:00	2024-11-08T20:00:00	4	Temperatura máxima	17.8
85139	7	Sololá	717	San Juan la Laguna	12	San Juan la Laguna	10	Octubre	2023-10-24T00:00:00	2024-11-08T20:00:00	3	Temperatura mínima	17.7
85140	7	Sololá	717	San Juan la Laguna	12	San Juan la Laguna	10	Octubre	2023-10-24T00:00:00	2024-11-08T20:00:00	5	Humedad	89
85141	7	Sololá	717	San Juan la Laguna	12	San Juan la Laguna	10	Octubre	2023-10-24T00:00:00	2024-11-08T20:00:00	6	Velocidad del viento	4.8
85142	7	Sololá	717	San Juan la Laguna	12	San Juan la Laguna	10	Octubre	2023-10-24T00:00:00	2024-11-08T20:00:00	7	Dirección del viento	4.83
85143	7	Sololá	717	San Juan la Laguna	12	San Juan la Laguna	10	Octubre	2023-10-24T00:00:00	2024-11-08T20:00:00	1	Precipitación	0
85144	7	Sololá	717	San Juan la Laguna	12	San Juan la Laguna	10	Octubre	2023-10-24T00:00:00	2024-11-08T20:00:00	8	Radiación solar	0
85145	7	Sololá	717	San Juan la Laguna	12	San Juan la Laguna	10	Octubre	2023-10-24T00:00:00	2024-11-08T21:00:00	2	Temperatura media	17.6
85146	7	Sololá	717	San Juan la Laguna	12	San Juan la Laguna	10	Octubre	2023-10-24T00:00:00	2024-11-08T21:00:00	4	Temperatura máxima	17.9
85147	7	Sololá	717	San Juan la Laguna	12	San Juan la Laguna	10	Octubre	2023-10-24T00:00:00	2024-11-08T21:00:00	3	Temperatura mínima	17.6
85148	7	Sololá	717	San Juan la Laguna	12	San Juan la Laguna	10	Octubre	2023-10-24T00:00:00	2024-11-08T21:00:00	5	Humedad	90
85149	7	Sololá	717	San Juan la Laguna	12	San Juan la Laguna	10	Octubre	2023-10-24T00:00:00	2024-11-08T21:00:00	6	Velocidad del viento	3.2
85150	7	Sololá	717	San Juan la Laguna	12	San Juan la Laguna	10	Octubre	2023-10-24T00:00:00	2024-11-08T21:00:00	7	Dirección del viento	3.22
85151	7	Sololá	717	San Juan la Laguna	12	San Juan la Laguna	10	Octubre	2023-10-24T00:00:00	2024-11-08T21:00:00	1	Precipitación	0
85152	7	Sololá	717	San Juan la Laguna	12	San Juan la Laguna	10	Octubre	2023-10-24T00:00:00	2024-11-08T21:00:00	8	Radiación solar	0
85153	7	Sololá	717	San Juan la Laguna	12	San Juan la Laguna	10	Octubre	2023-10-24T00:00:00	2024-11-08T22:00:00	2	Temperatura media	17.7
85154	7	Sololá	717	San Juan la Laguna	12	San Juan la Laguna	10	Octubre	2023-10-24T00:00:00	2024-11-08T22:00:00	4	Temperatura máxima	17.8
85155	7	Sololá	717	San Juan la Laguna	12	San Juan la Laguna	10	Octubre	2023-10-24T00:00:00	2024-11-08T22:00:00	3	Temperatura mínima	17.4
85156	7	Sololá	717	San Juan la Laguna	12	San Juan la Laguna	10	Octubre	2023-10-24T00:00:00	2024-11-08T22:00:00	5	Humedad	90
85157	7	Sololá	717	San Juan la Laguna	12	San Juan la Laguna	10	Octubre	2023-10-24T00:00:00	2024-11-08T22:00:00	6	Velocidad del viento	4.8
85158	7	Sololá	717	San Juan la Laguna	12	San Juan la Laguna	10	Octubre	2023-10-24T00:00:00	2024-11-08T22:00:00	7	Dirección del viento	4.83
85159	7	Sololá	717	San Juan la Laguna	12	San Juan la Laguna	10	Octubre	2023-10-24T00:00:00	2024-11-08T22:00:00	1	Precipitación	0
85160	7	Sololá	717	San Juan la Laguna	12	San Juan la Laguna	10	Octubre	2023-10-24T00:00:00	2024-11-08T22:00:00	8	Radiación solar	0
85161	7	Sololá	717	San Juan la Laguna	12	San Juan la Laguna	10	Octubre	2023-10-24T00:00:00	2024-11-08T23:00:00	2	Temperatura media	17.2
85162	7	Sololá	717	San Juan la Laguna	12	San Juan la Laguna	10	Octubre	2023-10-24T00:00:00	2024-11-08T23:00:00	4	Temperatura máxima	17.7
85163	7	Sololá	717	San Juan la Laguna	12	San Juan la Laguna	10	Octubre	2023-10-24T00:00:00	2024-11-08T23:00:00	3	Temperatura mínima	17.2
85164	7	Sololá	717	San Juan la Laguna	12	San Juan la Laguna	10	Octubre	2023-10-24T00:00:00	2024-11-08T23:00:00	5	Humedad	90
85165	7	Sololá	717	San Juan la Laguna	12	San Juan la Laguna	10	Octubre	2023-10-24T00:00:00	2024-11-08T23:00:00	6	Velocidad del viento	3.2
85166	7	Sololá	717	San Juan la Laguna	12	San Juan la Laguna	10	Octubre	2023-10-24T00:00:00	2024-11-08T23:00:00	7	Dirección del viento	3.22
85167	7	Sololá	717	San Juan la Laguna	12	San Juan la Laguna	10	Octubre	2023-10-24T00:00:00	2024-11-08T23:00:00	1	Precipitación	0
85168	7	Sololá	717	San Juan la Laguna	12	San Juan la Laguna	10	Octubre	2023-10-24T00:00:00	2024-11-08T23:00:00	8	Radiación solar	0
85169	7	Sololá	717	San Juan la Laguna	12	San Juan la Laguna	10	Octubre	2023-10-25T00:00:00	2024-11-08T00:00:00	2	Temperatura media	16.9
85170	7	Sololá	717	San Juan la Laguna	12	San Juan la Laguna	10	Octubre	2023-10-25T00:00:00	2024-11-08T00:00:00	4	Temperatura máxima	17.3
85171	7	Sololá	717	San Juan la Laguna	12	San Juan la Laguna	10	Octubre	2023-10-25T00:00:00	2024-11-08T00:00:00	3	Temperatura mínima	16.9
85172	7	Sololá	717	San Juan la Laguna	12	San Juan la Laguna	10	Octubre	2023-10-25T00:00:00	2024-11-08T00:00:00	5	Humedad	90
85173	7	Sololá	717	San Juan la Laguna	12	San Juan la Laguna	10	Octubre	2023-10-25T00:00:00	2024-11-08T00:00:00	6	Velocidad del viento	3.2
85174	7	Sololá	717	San Juan la Laguna	12	San Juan la Laguna	10	Octubre	2023-10-25T00:00:00	2024-11-08T00:00:00	7	Dirección del viento	3.22
85175	7	Sololá	717	San Juan la Laguna	12	San Juan la Laguna	10	Octubre	2023-10-25T00:00:00	2024-11-08T00:00:00	1	Precipitación	0
85176	7	Sololá	717	San Juan la Laguna	12	San Juan la Laguna	10	Octubre	2023-10-25T00:00:00	2024-11-08T00:00:00	8	Radiación solar	0
85177	7	Sololá	717	San Juan la Laguna	12	San Juan la Laguna	10	Octubre	2023-10-25T00:00:00	2024-11-08T01:00:00	2	Temperatura media	17.1
85178	7	Sololá	717	San Juan la Laguna	12	San Juan la Laguna	10	Octubre	2023-10-25T00:00:00	2024-11-08T01:00:00	4	Temperatura máxima	17.3
85179	7	Sololá	717	San Juan la Laguna	12	San Juan la Laguna	10	Octubre	2023-10-25T00:00:00	2024-11-08T01:00:00	3	Temperatura mínima	16.8
85180	7	Sololá	717	San Juan la Laguna	12	San Juan la Laguna	10	Octubre	2023-10-25T00:00:00	2024-11-08T01:00:00	5	Humedad	91
85181	7	Sololá	717	San Juan la Laguna	12	San Juan la Laguna	10	Octubre	2023-10-25T00:00:00	2024-11-08T01:00:00	6	Velocidad del viento	1.6
85182	7	Sololá	717	San Juan la Laguna	12	San Juan la Laguna	10	Octubre	2023-10-25T00:00:00	2024-11-08T01:00:00	7	Dirección del viento	1.61
85183	7	Sololá	717	San Juan la Laguna	12	San Juan la Laguna	10	Octubre	2023-10-25T00:00:00	2024-11-08T01:00:00	1	Precipitación	0
85184	7	Sololá	717	San Juan la Laguna	12	San Juan la Laguna	10	Octubre	2023-10-25T00:00:00	2024-11-08T01:00:00	8	Radiación solar	0
85185	7	Sololá	717	San Juan la Laguna	12	San Juan la Laguna	10	Octubre	2023-10-25T00:00:00	2024-11-08T02:00:00	2	Temperatura media	17.2
85186	7	Sololá	717	San Juan la Laguna	12	San Juan la Laguna	10	Octubre	2023-10-25T00:00:00	2024-11-08T02:00:00	4	Temperatura máxima	17.2
85187	7	Sololá	717	San Juan la Laguna	12	San Juan la Laguna	10	Octubre	2023-10-25T00:00:00	2024-11-08T02:00:00	3	Temperatura mínima	17
85188	7	Sololá	717	San Juan la Laguna	12	San Juan la Laguna	10	Octubre	2023-10-25T00:00:00	2024-11-08T02:00:00	5	Humedad	90
85189	7	Sololá	717	San Juan la Laguna	12	San Juan la Laguna	10	Octubre	2023-10-25T00:00:00	2024-11-08T02:00:00	6	Velocidad del viento	1.6
85190	7	Sololá	717	San Juan la Laguna	12	San Juan la Laguna	10	Octubre	2023-10-25T00:00:00	2024-11-08T02:00:00	7	Dirección del viento	1.61
85191	7	Sololá	717	San Juan la Laguna	12	San Juan la Laguna	10	Octubre	2023-10-25T00:00:00	2024-11-08T02:00:00	1	Precipitación	0
85192	7	Sololá	717	San Juan la Laguna	12	San Juan la Laguna	10	Octubre	2023-10-25T00:00:00	2024-11-08T02:00:00	8	Radiación solar	0
85193	7	Sololá	717	San Juan la Laguna	12	San Juan la Laguna	10	Octubre	2023-10-25T00:00:00	2024-11-08T03:00:00	2	Temperatura media	16.8
85194	7	Sololá	717	San Juan la Laguna	12	San Juan la Laguna	10	Octubre	2023-10-25T00:00:00	2024-11-08T03:00:00	4	Temperatura máxima	17.2
85195	7	Sololá	717	San Juan la Laguna	12	San Juan la Laguna	10	Octubre	2023-10-25T00:00:00	2024-11-08T03:00:00	3	Temperatura mínima	16.6
85196	7	Sololá	717	San Juan la Laguna	12	San Juan la Laguna	10	Octubre	2023-10-25T00:00:00	2024-11-08T03:00:00	5	Humedad	90
85197	7	Sololá	717	San Juan la Laguna	12	San Juan la Laguna	10	Octubre	2023-10-25T00:00:00	2024-11-08T03:00:00	6	Velocidad del viento	3.2
85198	7	Sololá	717	San Juan la Laguna	12	San Juan la Laguna	10	Octubre	2023-10-25T00:00:00	2024-11-08T03:00:00	7	Dirección del viento	3.22
85199	7	Sololá	717	San Juan la Laguna	12	San Juan la Laguna	10	Octubre	2023-10-25T00:00:00	2024-11-08T03:00:00	1	Precipitación	0
85200	7	Sololá	717	San Juan la Laguna	12	San Juan la Laguna	10	Octubre	2023-10-25T00:00:00	2024-11-08T03:00:00	8	Radiación solar	0
85201	7	Sololá	717	San Juan la Laguna	12	San Juan la Laguna	10	Octubre	2023-10-25T00:00:00	2024-11-08T04:00:00	2	Temperatura media	16.8
85202	7	Sololá	717	San Juan la Laguna	12	San Juan la Laguna	10	Octubre	2023-10-25T00:00:00	2024-11-08T04:00:00	4	Temperatura máxima	17.6
85203	7	Sololá	717	San Juan la Laguna	12	San Juan la Laguna	10	Octubre	2023-10-25T00:00:00	2024-11-08T04:00:00	3	Temperatura mínima	16.7
85204	7	Sololá	717	San Juan la Laguna	12	San Juan la Laguna	10	Octubre	2023-10-25T00:00:00	2024-11-08T04:00:00	5	Humedad	89
85205	7	Sololá	717	San Juan la Laguna	12	San Juan la Laguna	10	Octubre	2023-10-25T00:00:00	2024-11-08T04:00:00	6	Velocidad del viento	1.6
85206	7	Sololá	717	San Juan la Laguna	12	San Juan la Laguna	10	Octubre	2023-10-25T00:00:00	2024-11-08T04:00:00	7	Dirección del viento	1.61
85207	7	Sololá	717	San Juan la Laguna	12	San Juan la Laguna	10	Octubre	2023-10-25T00:00:00	2024-11-08T04:00:00	1	Precipitación	0
85208	7	Sololá	717	San Juan la Laguna	12	San Juan la Laguna	10	Octubre	2023-10-25T00:00:00	2024-11-08T04:00:00	8	Radiación solar	0
85209	7	Sololá	717	San Juan la Laguna	12	San Juan la Laguna	10	Octubre	2023-10-25T00:00:00	2024-11-08T05:00:00	2	Temperatura media	16.3
85210	7	Sololá	717	San Juan la Laguna	12	San Juan la Laguna	10	Octubre	2023-10-25T00:00:00	2024-11-08T05:00:00	4	Temperatura máxima	16.8
85211	7	Sololá	717	San Juan la Laguna	12	San Juan la Laguna	10	Octubre	2023-10-25T00:00:00	2024-11-08T05:00:00	3	Temperatura mínima	16.2
85212	7	Sololá	717	San Juan la Laguna	12	San Juan la Laguna	10	Octubre	2023-10-25T00:00:00	2024-11-08T05:00:00	5	Humedad	89
85213	7	Sololá	717	San Juan la Laguna	12	San Juan la Laguna	10	Octubre	2023-10-25T00:00:00	2024-11-08T05:00:00	6	Velocidad del viento	1.6
85214	7	Sololá	717	San Juan la Laguna	12	San Juan la Laguna	10	Octubre	2023-10-25T00:00:00	2024-11-08T05:00:00	7	Dirección del viento	1.61
85215	7	Sololá	717	San Juan la Laguna	12	San Juan la Laguna	10	Octubre	2023-10-25T00:00:00	2024-11-08T05:00:00	1	Precipitación	0
85216	7	Sololá	717	San Juan la Laguna	12	San Juan la Laguna	10	Octubre	2023-10-25T00:00:00	2024-11-08T05:00:00	8	Radiación solar	0
85217	7	Sololá	717	San Juan la Laguna	12	San Juan la Laguna	10	Octubre	2023-10-25T00:00:00	2024-11-08T06:00:00	2	Temperatura media	16.4
85218	7	Sololá	717	San Juan la Laguna	12	San Juan la Laguna	10	Octubre	2023-10-25T00:00:00	2024-11-08T06:00:00	4	Temperatura máxima	16.4
85219	7	Sololá	717	San Juan la Laguna	12	San Juan la Laguna	10	Octubre	2023-10-25T00:00:00	2024-11-08T06:00:00	3	Temperatura mínima	15.8
85220	7	Sololá	717	San Juan la Laguna	12	San Juan la Laguna	10	Octubre	2023-10-25T00:00:00	2024-11-08T06:00:00	5	Humedad	89
85221	7	Sololá	717	San Juan la Laguna	12	San Juan la Laguna	10	Octubre	2023-10-25T00:00:00	2024-11-08T06:00:00	6	Velocidad del viento	3.2
85222	7	Sololá	717	San Juan la Laguna	12	San Juan la Laguna	10	Octubre	2023-10-25T00:00:00	2024-11-08T06:00:00	7	Dirección del viento	3.22
85223	7	Sololá	717	San Juan la Laguna	12	San Juan la Laguna	10	Octubre	2023-10-25T00:00:00	2024-11-08T06:00:00	1	Precipitación	0
85224	7	Sololá	717	San Juan la Laguna	12	San Juan la Laguna	10	Octubre	2023-10-25T00:00:00	2024-11-08T06:00:00	8	Radiación solar	0
85225	7	Sololá	717	San Juan la Laguna	12	San Juan la Laguna	10	Octubre	2023-10-25T00:00:00	2024-11-08T07:00:00	2	Temperatura media	17.3
85226	7	Sololá	717	San Juan la Laguna	12	San Juan la Laguna	10	Octubre	2023-10-25T00:00:00	2024-11-08T07:00:00	4	Temperatura máxima	17.3
85227	7	Sololá	717	San Juan la Laguna	12	San Juan la Laguna	10	Octubre	2023-10-25T00:00:00	2024-11-08T07:00:00	3	Temperatura mínima	16.3
85228	7	Sololá	717	San Juan la Laguna	12	San Juan la Laguna	10	Octubre	2023-10-25T00:00:00	2024-11-08T07:00:00	5	Humedad	89
85229	7	Sololá	717	San Juan la Laguna	12	San Juan la Laguna	10	Octubre	2023-10-25T00:00:00	2024-11-08T07:00:00	6	Velocidad del viento	3.2
85230	7	Sololá	717	San Juan la Laguna	12	San Juan la Laguna	10	Octubre	2023-10-25T00:00:00	2024-11-08T07:00:00	7	Dirección del viento	3.22
85231	7	Sololá	717	San Juan la Laguna	12	San Juan la Laguna	10	Octubre	2023-10-25T00:00:00	2024-11-08T07:00:00	1	Precipitación	0
85232	7	Sololá	717	San Juan la Laguna	12	San Juan la Laguna	10	Octubre	2023-10-25T00:00:00	2024-11-08T07:00:00	8	Radiación solar	44
85233	7	Sololá	717	San Juan la Laguna	12	San Juan la Laguna	10	Octubre	2023-10-25T00:00:00	2024-11-08T08:00:00	2	Temperatura media	20.6
85234	7	Sololá	717	San Juan la Laguna	12	San Juan la Laguna	10	Octubre	2023-10-25T00:00:00	2024-11-08T08:00:00	4	Temperatura máxima	20.6
85235	7	Sololá	717	San Juan la Laguna	12	San Juan la Laguna	10	Octubre	2023-10-25T00:00:00	2024-11-08T08:00:00	3	Temperatura mínima	17.3
85236	7	Sololá	717	San Juan la Laguna	12	San Juan la Laguna	10	Octubre	2023-10-25T00:00:00	2024-11-08T08:00:00	5	Humedad	81
85237	7	Sololá	717	San Juan la Laguna	12	San Juan la Laguna	10	Octubre	2023-10-25T00:00:00	2024-11-08T08:00:00	6	Velocidad del viento	1.6
85238	7	Sololá	717	San Juan la Laguna	12	San Juan la Laguna	10	Octubre	2023-10-25T00:00:00	2024-11-08T08:00:00	7	Dirección del viento	1.61
85239	7	Sololá	717	San Juan la Laguna	12	San Juan la Laguna	10	Octubre	2023-10-25T00:00:00	2024-11-08T08:00:00	1	Precipitación	0
85240	7	Sololá	717	San Juan la Laguna	12	San Juan la Laguna	10	Octubre	2023-10-25T00:00:00	2024-11-08T08:00:00	8	Radiación solar	222
85241	7	Sololá	717	San Juan la Laguna	12	San Juan la Laguna	10	Octubre	2023-10-25T00:00:00	2024-11-08T09:00:00	2	Temperatura media	22.1
85242	7	Sololá	717	San Juan la Laguna	12	San Juan la Laguna	10	Octubre	2023-10-25T00:00:00	2024-11-08T09:00:00	4	Temperatura máxima	22.1
85243	7	Sololá	717	San Juan la Laguna	12	San Juan la Laguna	10	Octubre	2023-10-25T00:00:00	2024-11-08T09:00:00	3	Temperatura mínima	20.5
85244	7	Sololá	717	San Juan la Laguna	12	San Juan la Laguna	10	Octubre	2023-10-25T00:00:00	2024-11-08T09:00:00	5	Humedad	75
85245	7	Sololá	717	San Juan la Laguna	12	San Juan la Laguna	10	Octubre	2023-10-25T00:00:00	2024-11-08T09:00:00	6	Velocidad del viento	0
85246	7	Sololá	717	San Juan la Laguna	12	San Juan la Laguna	10	Octubre	2023-10-25T00:00:00	2024-11-08T09:00:00	7	Dirección del viento	0
85247	7	Sololá	717	San Juan la Laguna	12	San Juan la Laguna	10	Octubre	2023-10-25T00:00:00	2024-11-08T09:00:00	1	Precipitación	0
85248	7	Sololá	717	San Juan la Laguna	12	San Juan la Laguna	10	Octubre	2023-10-25T00:00:00	2024-11-08T09:00:00	8	Radiación solar	333
85249	7	Sololá	717	San Juan la Laguna	12	San Juan la Laguna	10	Octubre	2023-10-25T00:00:00	2024-11-08T10:00:00	2	Temperatura media	24.1
85250	7	Sololá	717	San Juan la Laguna	12	San Juan la Laguna	10	Octubre	2023-10-25T00:00:00	2024-11-08T10:00:00	4	Temperatura máxima	24.1
85251	7	Sololá	717	San Juan la Laguna	12	San Juan la Laguna	10	Octubre	2023-10-25T00:00:00	2024-11-08T10:00:00	3	Temperatura mínima	21.9
85252	7	Sololá	717	San Juan la Laguna	12	San Juan la Laguna	10	Octubre	2023-10-25T00:00:00	2024-11-08T10:00:00	5	Humedad	66
85253	7	Sololá	717	San Juan la Laguna	12	San Juan la Laguna	10	Octubre	2023-10-25T00:00:00	2024-11-08T10:00:00	6	Velocidad del viento	0
85254	7	Sololá	717	San Juan la Laguna	12	San Juan la Laguna	10	Octubre	2023-10-25T00:00:00	2024-11-08T10:00:00	7	Dirección del viento	0
85255	7	Sololá	717	San Juan la Laguna	12	San Juan la Laguna	10	Octubre	2023-10-25T00:00:00	2024-11-08T10:00:00	1	Precipitación	0
85256	7	Sololá	717	San Juan la Laguna	12	San Juan la Laguna	10	Octubre	2023-10-25T00:00:00	2024-11-08T10:00:00	8	Radiación solar	618
85257	7	Sololá	717	San Juan la Laguna	12	San Juan la Laguna	10	Octubre	2023-10-25T00:00:00	2024-11-08T11:00:00	2	Temperatura media	23.1
85258	7	Sololá	717	San Juan la Laguna	12	San Juan la Laguna	10	Octubre	2023-10-25T00:00:00	2024-11-08T11:00:00	4	Temperatura máxima	24.6
85259	7	Sololá	717	San Juan la Laguna	12	San Juan la Laguna	10	Octubre	2023-10-25T00:00:00	2024-11-08T11:00:00	3	Temperatura mínima	23.1
85260	7	Sololá	717	San Juan la Laguna	12	San Juan la Laguna	10	Octubre	2023-10-25T00:00:00	2024-11-08T11:00:00	5	Humedad	67
85261	7	Sololá	717	San Juan la Laguna	12	San Juan la Laguna	10	Octubre	2023-10-25T00:00:00	2024-11-08T11:00:00	6	Velocidad del viento	1.6
85262	7	Sololá	717	San Juan la Laguna	12	San Juan la Laguna	10	Octubre	2023-10-25T00:00:00	2024-11-08T11:00:00	7	Dirección del viento	1.61
85263	7	Sololá	717	San Juan la Laguna	12	San Juan la Laguna	10	Octubre	2023-10-25T00:00:00	2024-11-08T11:00:00	1	Precipitación	0
85264	7	Sololá	717	San Juan la Laguna	12	San Juan la Laguna	10	Octubre	2023-10-25T00:00:00	2024-11-08T11:00:00	8	Radiación solar	416
85265	7	Sololá	717	San Juan la Laguna	12	San Juan la Laguna	10	Octubre	2023-10-25T00:00:00	2024-11-08T12:00:00	2	Temperatura media	24.7
85266	7	Sololá	717	San Juan la Laguna	12	San Juan la Laguna	10	Octubre	2023-10-25T00:00:00	2024-11-08T12:00:00	4	Temperatura máxima	24.7
85267	7	Sololá	717	San Juan la Laguna	12	San Juan la Laguna	10	Octubre	2023-10-25T00:00:00	2024-11-08T12:00:00	3	Temperatura mínima	23.1
85268	7	Sololá	717	San Juan la Laguna	12	San Juan la Laguna	10	Octubre	2023-10-25T00:00:00	2024-11-08T12:00:00	5	Humedad	61
85269	7	Sololá	717	San Juan la Laguna	12	San Juan la Laguna	10	Octubre	2023-10-25T00:00:00	2024-11-08T12:00:00	6	Velocidad del viento	0
85270	7	Sololá	717	San Juan la Laguna	12	San Juan la Laguna	10	Octubre	2023-10-25T00:00:00	2024-11-08T12:00:00	7	Dirección del viento	0
85271	7	Sololá	717	San Juan la Laguna	12	San Juan la Laguna	10	Octubre	2023-10-25T00:00:00	2024-11-08T12:00:00	1	Precipitación	0
85272	7	Sololá	717	San Juan la Laguna	12	San Juan la Laguna	10	Octubre	2023-10-25T00:00:00	2024-11-08T12:00:00	8	Radiación solar	412
85273	7	Sololá	717	San Juan la Laguna	12	San Juan la Laguna	10	Octubre	2023-10-25T00:00:00	2024-11-08T13:00:00	2	Temperatura media	24.8
85274	7	Sololá	717	San Juan la Laguna	12	San Juan la Laguna	10	Octubre	2023-10-25T00:00:00	2024-11-08T13:00:00	4	Temperatura máxima	24.8
85275	7	Sololá	717	San Juan la Laguna	12	San Juan la Laguna	10	Octubre	2023-10-25T00:00:00	2024-11-08T13:00:00	3	Temperatura mínima	24.4
85276	7	Sololá	717	San Juan la Laguna	12	San Juan la Laguna	10	Octubre	2023-10-25T00:00:00	2024-11-08T13:00:00	5	Humedad	59
85277	7	Sololá	717	San Juan la Laguna	12	San Juan la Laguna	10	Octubre	2023-10-25T00:00:00	2024-11-08T13:00:00	6	Velocidad del viento	0
85278	7	Sololá	717	San Juan la Laguna	12	San Juan la Laguna	10	Octubre	2023-10-25T00:00:00	2024-11-08T13:00:00	7	Dirección del viento	0
85279	7	Sololá	717	San Juan la Laguna	12	San Juan la Laguna	10	Octubre	2023-10-25T00:00:00	2024-11-08T13:00:00	1	Precipitación	0
85280	7	Sololá	717	San Juan la Laguna	12	San Juan la Laguna	10	Octubre	2023-10-25T00:00:00	2024-11-08T13:00:00	8	Radiación solar	371
85281	7	Sololá	717	San Juan la Laguna	12	San Juan la Laguna	10	Octubre	2023-10-25T00:00:00	2024-11-08T14:00:00	2	Temperatura media	24.8
85282	7	Sololá	717	San Juan la Laguna	12	San Juan la Laguna	10	Octubre	2023-10-25T00:00:00	2024-11-08T14:00:00	4	Temperatura máxima	25.1
85283	7	Sololá	717	San Juan la Laguna	12	San Juan la Laguna	10	Octubre	2023-10-25T00:00:00	2024-11-08T14:00:00	3	Temperatura mínima	24.7
85284	7	Sololá	717	San Juan la Laguna	12	San Juan la Laguna	10	Octubre	2023-10-25T00:00:00	2024-11-08T14:00:00	5	Humedad	62
85285	7	Sololá	717	San Juan la Laguna	12	San Juan la Laguna	10	Octubre	2023-10-25T00:00:00	2024-11-08T14:00:00	6	Velocidad del viento	0
85286	7	Sololá	717	San Juan la Laguna	12	San Juan la Laguna	10	Octubre	2023-10-25T00:00:00	2024-11-08T14:00:00	7	Dirección del viento	0
85287	7	Sololá	717	San Juan la Laguna	12	San Juan la Laguna	10	Octubre	2023-10-25T00:00:00	2024-11-08T14:00:00	1	Precipitación	0
85288	7	Sololá	717	San Juan la Laguna	12	San Juan la Laguna	10	Octubre	2023-10-25T00:00:00	2024-11-08T14:00:00	8	Radiación solar	372
85289	7	Sololá	717	San Juan la Laguna	12	San Juan la Laguna	10	Octubre	2023-10-25T00:00:00	2024-11-08T15:00:00	2	Temperatura media	23.9
85290	7	Sololá	717	San Juan la Laguna	12	San Juan la Laguna	10	Octubre	2023-10-25T00:00:00	2024-11-08T15:00:00	4	Temperatura máxima	25.5
85291	7	Sololá	717	San Juan la Laguna	12	San Juan la Laguna	10	Octubre	2023-10-25T00:00:00	2024-11-08T15:00:00	3	Temperatura mínima	23.9
85292	7	Sololá	717	San Juan la Laguna	12	San Juan la Laguna	10	Octubre	2023-10-25T00:00:00	2024-11-08T15:00:00	5	Humedad	70
85293	7	Sololá	717	San Juan la Laguna	12	San Juan la Laguna	10	Octubre	2023-10-25T00:00:00	2024-11-08T15:00:00	6	Velocidad del viento	0
85294	7	Sololá	717	San Juan la Laguna	12	San Juan la Laguna	10	Octubre	2023-10-25T00:00:00	2024-11-08T15:00:00	7	Dirección del viento	0
85295	7	Sololá	717	San Juan la Laguna	12	San Juan la Laguna	10	Octubre	2023-10-25T00:00:00	2024-11-08T15:00:00	1	Precipitación	0
85296	7	Sololá	717	San Juan la Laguna	12	San Juan la Laguna	10	Octubre	2023-10-25T00:00:00	2024-11-08T15:00:00	8	Radiación solar	344
85297	7	Sololá	717	San Juan la Laguna	12	San Juan la Laguna	10	Octubre	2023-10-25T00:00:00	2024-11-08T16:00:00	2	Temperatura media	19.9
85298	7	Sololá	717	San Juan la Laguna	12	San Juan la Laguna	10	Octubre	2023-10-25T00:00:00	2024-11-08T16:00:00	4	Temperatura máxima	23.9
85299	7	Sololá	717	San Juan la Laguna	12	San Juan la Laguna	10	Octubre	2023-10-25T00:00:00	2024-11-08T16:00:00	3	Temperatura mínima	19.9
85300	7	Sololá	717	San Juan la Laguna	12	San Juan la Laguna	10	Octubre	2023-10-25T00:00:00	2024-11-08T16:00:00	5	Humedad	88
85301	7	Sololá	717	San Juan la Laguna	12	San Juan la Laguna	10	Octubre	2023-10-25T00:00:00	2024-11-08T16:00:00	6	Velocidad del viento	0
85302	7	Sololá	717	San Juan la Laguna	12	San Juan la Laguna	10	Octubre	2023-10-25T00:00:00	2024-11-08T16:00:00	7	Dirección del viento	0
85303	7	Sololá	717	San Juan la Laguna	12	San Juan la Laguna	10	Octubre	2023-10-25T00:00:00	2024-11-08T16:00:00	1	Precipitación	1.2
85304	7	Sololá	717	San Juan la Laguna	12	San Juan la Laguna	10	Octubre	2023-10-25T00:00:00	2024-11-08T16:00:00	8	Radiación solar	55
85305	7	Sololá	717	San Juan la Laguna	12	San Juan la Laguna	10	Octubre	2023-10-25T00:00:00	2024-11-08T17:00:00	2	Temperatura media	19.9
85306	7	Sololá	717	San Juan la Laguna	12	San Juan la Laguna	10	Octubre	2023-10-25T00:00:00	2024-11-08T17:00:00	4	Temperatura máxima	20.3
85307	7	Sololá	717	San Juan la Laguna	12	San Juan la Laguna	10	Octubre	2023-10-25T00:00:00	2024-11-08T17:00:00	3	Temperatura mínima	19.8
85308	7	Sololá	717	San Juan la Laguna	12	San Juan la Laguna	10	Octubre	2023-10-25T00:00:00	2024-11-08T17:00:00	5	Humedad	86
85309	7	Sololá	717	San Juan la Laguna	12	San Juan la Laguna	10	Octubre	2023-10-25T00:00:00	2024-11-08T17:00:00	6	Velocidad del viento	0
85310	7	Sololá	717	San Juan la Laguna	12	San Juan la Laguna	10	Octubre	2023-10-25T00:00:00	2024-11-08T17:00:00	7	Dirección del viento	0
85311	7	Sololá	717	San Juan la Laguna	12	San Juan la Laguna	10	Octubre	2023-10-25T00:00:00	2024-11-08T17:00:00	1	Precipitación	0
85312	7	Sololá	717	San Juan la Laguna	12	San Juan la Laguna	10	Octubre	2023-10-25T00:00:00	2024-11-08T17:00:00	8	Radiación solar	55
85313	7	Sololá	717	San Juan la Laguna	12	San Juan la Laguna	10	Octubre	2023-10-25T00:00:00	2024-11-08T18:00:00	2	Temperatura media	19.1
85314	7	Sololá	717	San Juan la Laguna	12	San Juan la Laguna	10	Octubre	2023-10-25T00:00:00	2024-11-08T18:00:00	4	Temperatura máxima	19.9
85315	7	Sololá	717	San Juan la Laguna	12	San Juan la Laguna	10	Octubre	2023-10-25T00:00:00	2024-11-08T18:00:00	3	Temperatura mínima	19.1
85316	7	Sololá	717	San Juan la Laguna	12	San Juan la Laguna	10	Octubre	2023-10-25T00:00:00	2024-11-08T18:00:00	5	Humedad	88
85317	7	Sololá	717	San Juan la Laguna	12	San Juan la Laguna	10	Octubre	2023-10-25T00:00:00	2024-11-08T18:00:00	6	Velocidad del viento	0
85318	7	Sololá	717	San Juan la Laguna	12	San Juan la Laguna	10	Octubre	2023-10-25T00:00:00	2024-11-08T18:00:00	7	Dirección del viento	0
85319	7	Sololá	717	San Juan la Laguna	12	San Juan la Laguna	10	Octubre	2023-10-25T00:00:00	2024-11-08T18:00:00	1	Precipitación	0
85320	7	Sololá	717	San Juan la Laguna	12	San Juan la Laguna	10	Octubre	2023-10-25T00:00:00	2024-11-08T18:00:00	8	Radiación solar	10
85321	7	Sololá	717	San Juan la Laguna	12	San Juan la Laguna	10	Octubre	2023-10-25T00:00:00	2024-11-08T19:00:00	2	Temperatura media	18.2
85322	7	Sololá	717	San Juan la Laguna	12	San Juan la Laguna	10	Octubre	2023-10-25T00:00:00	2024-11-08T19:00:00	4	Temperatura máxima	19.1
85323	7	Sololá	717	San Juan la Laguna	12	San Juan la Laguna	10	Octubre	2023-10-25T00:00:00	2024-11-08T19:00:00	3	Temperatura mínima	18.2
85324	7	Sololá	717	San Juan la Laguna	12	San Juan la Laguna	10	Octubre	2023-10-25T00:00:00	2024-11-08T19:00:00	5	Humedad	90
85325	7	Sololá	717	San Juan la Laguna	12	San Juan la Laguna	10	Octubre	2023-10-25T00:00:00	2024-11-08T19:00:00	6	Velocidad del viento	0
85326	7	Sololá	717	San Juan la Laguna	12	San Juan la Laguna	10	Octubre	2023-10-25T00:00:00	2024-11-08T19:00:00	7	Dirección del viento	0
85327	7	Sololá	717	San Juan la Laguna	12	San Juan la Laguna	10	Octubre	2023-10-25T00:00:00	2024-11-08T19:00:00	1	Precipitación	0
85328	7	Sololá	717	San Juan la Laguna	12	San Juan la Laguna	10	Octubre	2023-10-25T00:00:00	2024-11-08T19:00:00	8	Radiación solar	0
85329	7	Sololá	717	San Juan la Laguna	12	San Juan la Laguna	10	Octubre	2023-10-25T00:00:00	2024-11-08T20:00:00	2	Temperatura media	18.2
85330	7	Sololá	717	San Juan la Laguna	12	San Juan la Laguna	10	Octubre	2023-10-25T00:00:00	2024-11-08T20:00:00	4	Temperatura máxima	18.4
85331	7	Sololá	717	San Juan la Laguna	12	San Juan la Laguna	10	Octubre	2023-10-25T00:00:00	2024-11-08T20:00:00	3	Temperatura mínima	18.1
85332	7	Sololá	717	San Juan la Laguna	12	San Juan la Laguna	10	Octubre	2023-10-25T00:00:00	2024-11-08T20:00:00	5	Humedad	88
85333	7	Sololá	717	San Juan la Laguna	12	San Juan la Laguna	10	Octubre	2023-10-25T00:00:00	2024-11-08T20:00:00	6	Velocidad del viento	0
85334	7	Sololá	717	San Juan la Laguna	12	San Juan la Laguna	10	Octubre	2023-10-25T00:00:00	2024-11-08T20:00:00	7	Dirección del viento	0
85335	7	Sololá	717	San Juan la Laguna	12	San Juan la Laguna	10	Octubre	2023-10-25T00:00:00	2024-11-08T20:00:00	1	Precipitación	0
85336	7	Sololá	717	San Juan la Laguna	12	San Juan la Laguna	10	Octubre	2023-10-25T00:00:00	2024-11-08T20:00:00	8	Radiación solar	0
85337	7	Sololá	717	San Juan la Laguna	12	San Juan la Laguna	10	Octubre	2023-10-25T00:00:00	2024-11-08T21:00:00	2	Temperatura media	17.6
85338	7	Sololá	717	San Juan la Laguna	12	San Juan la Laguna	10	Octubre	2023-10-25T00:00:00	2024-11-08T21:00:00	4	Temperatura máxima	18.2
85339	7	Sololá	717	San Juan la Laguna	12	San Juan la Laguna	10	Octubre	2023-10-25T00:00:00	2024-11-08T21:00:00	3	Temperatura mínima	17.6
85340	7	Sololá	717	San Juan la Laguna	12	San Juan la Laguna	10	Octubre	2023-10-25T00:00:00	2024-11-08T21:00:00	5	Humedad	89
85341	7	Sololá	717	San Juan la Laguna	12	San Juan la Laguna	10	Octubre	2023-10-25T00:00:00	2024-11-08T21:00:00	6	Velocidad del viento	0
85342	7	Sololá	717	San Juan la Laguna	12	San Juan la Laguna	10	Octubre	2023-10-25T00:00:00	2024-11-08T21:00:00	7	Dirección del viento	0
85343	7	Sololá	717	San Juan la Laguna	12	San Juan la Laguna	10	Octubre	2023-10-25T00:00:00	2024-11-08T21:00:00	1	Precipitación	0
85344	7	Sololá	717	San Juan la Laguna	12	San Juan la Laguna	10	Octubre	2023-10-25T00:00:00	2024-11-08T21:00:00	8	Radiación solar	0
85345	7	Sololá	717	San Juan la Laguna	12	San Juan la Laguna	10	Octubre	2023-10-25T00:00:00	2024-11-08T22:00:00	2	Temperatura media	17.4
85346	7	Sololá	717	San Juan la Laguna	12	San Juan la Laguna	10	Octubre	2023-10-25T00:00:00	2024-11-08T22:00:00	4	Temperatura máxima	17.8
85347	7	Sololá	717	San Juan la Laguna	12	San Juan la Laguna	10	Octubre	2023-10-25T00:00:00	2024-11-08T22:00:00	3	Temperatura mínima	17.4
85348	7	Sololá	717	San Juan la Laguna	12	San Juan la Laguna	10	Octubre	2023-10-25T00:00:00	2024-11-08T22:00:00	5	Humedad	88
85349	7	Sololá	717	San Juan la Laguna	12	San Juan la Laguna	10	Octubre	2023-10-25T00:00:00	2024-11-08T22:00:00	6	Velocidad del viento	0
85350	7	Sololá	717	San Juan la Laguna	12	San Juan la Laguna	10	Octubre	2023-10-25T00:00:00	2024-11-08T22:00:00	7	Dirección del viento	0
85351	7	Sololá	717	San Juan la Laguna	12	San Juan la Laguna	10	Octubre	2023-10-25T00:00:00	2024-11-08T22:00:00	1	Precipitación	0
85352	7	Sololá	717	San Juan la Laguna	12	San Juan la Laguna	10	Octubre	2023-10-25T00:00:00	2024-11-08T22:00:00	8	Radiación solar	0
85353	7	Sololá	717	San Juan la Laguna	12	San Juan la Laguna	10	Octubre	2023-10-25T00:00:00	2024-11-08T23:00:00	2	Temperatura media	17.4
85354	7	Sololá	717	San Juan la Laguna	12	San Juan la Laguna	10	Octubre	2023-10-25T00:00:00	2024-11-08T23:00:00	4	Temperatura máxima	17.8
85355	7	Sololá	717	San Juan la Laguna	12	San Juan la Laguna	10	Octubre	2023-10-25T00:00:00	2024-11-08T23:00:00	3	Temperatura mínima	17.3
85356	7	Sololá	717	San Juan la Laguna	12	San Juan la Laguna	10	Octubre	2023-10-25T00:00:00	2024-11-08T23:00:00	5	Humedad	88
85357	7	Sololá	717	San Juan la Laguna	12	San Juan la Laguna	10	Octubre	2023-10-25T00:00:00	2024-11-08T23:00:00	6	Velocidad del viento	0
85358	7	Sololá	717	San Juan la Laguna	12	San Juan la Laguna	10	Octubre	2023-10-25T00:00:00	2024-11-08T23:00:00	7	Dirección del viento	0
85359	7	Sololá	717	San Juan la Laguna	12	San Juan la Laguna	10	Octubre	2023-10-25T00:00:00	2024-11-08T23:00:00	1	Precipitación	0
85360	7	Sololá	717	San Juan la Laguna	12	San Juan la Laguna	10	Octubre	2023-10-25T00:00:00	2024-11-08T23:00:00	8	Radiación solar	0
85361	7	Sololá	717	San Juan la Laguna	12	San Juan la Laguna	10	Octubre	2023-10-26T00:00:00	2024-11-08T00:00:00	2	Temperatura media	16.9
85362	7	Sololá	717	San Juan la Laguna	12	San Juan la Laguna	10	Octubre	2023-10-26T00:00:00	2024-11-08T00:00:00	4	Temperatura máxima	17.4
85363	7	Sololá	717	San Juan la Laguna	12	San Juan la Laguna	10	Octubre	2023-10-26T00:00:00	2024-11-08T00:00:00	3	Temperatura mínima	16.8
85364	7	Sololá	717	San Juan la Laguna	12	San Juan la Laguna	10	Octubre	2023-10-26T00:00:00	2024-11-08T00:00:00	5	Humedad	89
85365	7	Sololá	717	San Juan la Laguna	12	San Juan la Laguna	10	Octubre	2023-10-26T00:00:00	2024-11-08T00:00:00	6	Velocidad del viento	0
85366	7	Sololá	717	San Juan la Laguna	12	San Juan la Laguna	10	Octubre	2023-10-26T00:00:00	2024-11-08T00:00:00	7	Dirección del viento	0
85367	7	Sololá	717	San Juan la Laguna	12	San Juan la Laguna	10	Octubre	2023-10-26T00:00:00	2024-11-08T00:00:00	1	Precipitación	0
85368	7	Sololá	717	San Juan la Laguna	12	San Juan la Laguna	10	Octubre	2023-10-26T00:00:00	2024-11-08T00:00:00	8	Radiación solar	0
85369	7	Sololá	717	San Juan la Laguna	12	San Juan la Laguna	10	Octubre	2023-10-26T00:00:00	2024-11-08T01:00:00	2	Temperatura media	16.6
85370	7	Sololá	717	San Juan la Laguna	12	San Juan la Laguna	10	Octubre	2023-10-26T00:00:00	2024-11-08T01:00:00	4	Temperatura máxima	17.2
85371	7	Sololá	717	San Juan la Laguna	12	San Juan la Laguna	10	Octubre	2023-10-26T00:00:00	2024-11-08T01:00:00	3	Temperatura mínima	16.6
85372	7	Sololá	717	San Juan la Laguna	12	San Juan la Laguna	10	Octubre	2023-10-26T00:00:00	2024-11-08T01:00:00	5	Humedad	88
85373	7	Sololá	717	San Juan la Laguna	12	San Juan la Laguna	10	Octubre	2023-10-26T00:00:00	2024-11-08T01:00:00	6	Velocidad del viento	0
85374	7	Sololá	717	San Juan la Laguna	12	San Juan la Laguna	10	Octubre	2023-10-26T00:00:00	2024-11-08T01:00:00	7	Dirección del viento	0
85375	7	Sololá	717	San Juan la Laguna	12	San Juan la Laguna	10	Octubre	2023-10-26T00:00:00	2024-11-08T01:00:00	1	Precipitación	0
85376	7	Sololá	717	San Juan la Laguna	12	San Juan la Laguna	10	Octubre	2023-10-26T00:00:00	2024-11-08T01:00:00	8	Radiación solar	0
85377	7	Sololá	717	San Juan la Laguna	12	San Juan la Laguna	10	Octubre	2023-10-26T00:00:00	2024-11-08T02:00:00	2	Temperatura media	16.7
85378	7	Sololá	717	San Juan la Laguna	12	San Juan la Laguna	10	Octubre	2023-10-26T00:00:00	2024-11-08T02:00:00	4	Temperatura máxima	16.8
85379	7	Sololá	717	San Juan la Laguna	12	San Juan la Laguna	10	Octubre	2023-10-26T00:00:00	2024-11-08T02:00:00	3	Temperatura mínima	16.2
85380	7	Sololá	717	San Juan la Laguna	12	San Juan la Laguna	10	Octubre	2023-10-26T00:00:00	2024-11-08T02:00:00	5	Humedad	88
85381	7	Sololá	717	San Juan la Laguna	12	San Juan la Laguna	10	Octubre	2023-10-26T00:00:00	2024-11-08T02:00:00	6	Velocidad del viento	0
85382	7	Sololá	717	San Juan la Laguna	12	San Juan la Laguna	10	Octubre	2023-10-26T00:00:00	2024-11-08T02:00:00	7	Dirección del viento	0
85383	7	Sololá	717	San Juan la Laguna	12	San Juan la Laguna	10	Octubre	2023-10-26T00:00:00	2024-11-08T02:00:00	1	Precipitación	0
85384	7	Sololá	717	San Juan la Laguna	12	San Juan la Laguna	10	Octubre	2023-10-26T00:00:00	2024-11-08T02:00:00	8	Radiación solar	0
85385	7	Sololá	717	San Juan la Laguna	12	San Juan la Laguna	10	Octubre	2023-10-26T00:00:00	2024-11-08T03:00:00	2	Temperatura media	16.2
85386	7	Sololá	717	San Juan la Laguna	12	San Juan la Laguna	10	Octubre	2023-10-26T00:00:00	2024-11-08T03:00:00	4	Temperatura máxima	17
85387	7	Sololá	717	San Juan la Laguna	12	San Juan la Laguna	10	Octubre	2023-10-26T00:00:00	2024-11-08T03:00:00	3	Temperatura mínima	16.2
85388	7	Sololá	717	San Juan la Laguna	12	San Juan la Laguna	10	Octubre	2023-10-26T00:00:00	2024-11-08T03:00:00	5	Humedad	90
85389	7	Sololá	717	San Juan la Laguna	12	San Juan la Laguna	10	Octubre	2023-10-26T00:00:00	2024-11-08T03:00:00	6	Velocidad del viento	0
85390	7	Sololá	717	San Juan la Laguna	12	San Juan la Laguna	10	Octubre	2023-10-26T00:00:00	2024-11-08T03:00:00	7	Dirección del viento	0
85391	7	Sololá	717	San Juan la Laguna	12	San Juan la Laguna	10	Octubre	2023-10-26T00:00:00	2024-11-08T03:00:00	1	Precipitación	0
85392	7	Sololá	717	San Juan la Laguna	12	San Juan la Laguna	10	Octubre	2023-10-26T00:00:00	2024-11-08T03:00:00	8	Radiación solar	0
85393	7	Sololá	717	San Juan la Laguna	12	San Juan la Laguna	10	Octubre	2023-10-26T00:00:00	2024-11-08T04:00:00	2	Temperatura media	16.2
85394	7	Sololá	717	San Juan la Laguna	12	San Juan la Laguna	10	Octubre	2023-10-26T00:00:00	2024-11-08T04:00:00	4	Temperatura máxima	16.3
85395	7	Sololá	717	San Juan la Laguna	12	San Juan la Laguna	10	Octubre	2023-10-26T00:00:00	2024-11-08T04:00:00	3	Temperatura mínima	16.1
85396	7	Sololá	717	San Juan la Laguna	12	San Juan la Laguna	10	Octubre	2023-10-26T00:00:00	2024-11-08T04:00:00	5	Humedad	88
85397	7	Sololá	717	San Juan la Laguna	12	San Juan la Laguna	10	Octubre	2023-10-26T00:00:00	2024-11-08T04:00:00	6	Velocidad del viento	0
85398	7	Sololá	717	San Juan la Laguna	12	San Juan la Laguna	10	Octubre	2023-10-26T00:00:00	2024-11-08T04:00:00	7	Dirección del viento	0
85399	7	Sololá	717	San Juan la Laguna	12	San Juan la Laguna	10	Octubre	2023-10-26T00:00:00	2024-11-08T04:00:00	1	Precipitación	0
85400	7	Sololá	717	San Juan la Laguna	12	San Juan la Laguna	10	Octubre	2023-10-26T00:00:00	2024-11-08T04:00:00	8	Radiación solar	0
85401	7	Sololá	717	San Juan la Laguna	12	San Juan la Laguna	10	Octubre	2023-10-26T00:00:00	2024-11-08T05:00:00	2	Temperatura media	15.7
85402	7	Sololá	717	San Juan la Laguna	12	San Juan la Laguna	10	Octubre	2023-10-26T00:00:00	2024-11-08T05:00:00	4	Temperatura máxima	16.2
85403	7	Sololá	717	San Juan la Laguna	12	San Juan la Laguna	10	Octubre	2023-10-26T00:00:00	2024-11-08T05:00:00	3	Temperatura mínima	15.7
85404	7	Sololá	717	San Juan la Laguna	12	San Juan la Laguna	10	Octubre	2023-10-26T00:00:00	2024-11-08T05:00:00	5	Humedad	90
85405	7	Sololá	717	San Juan la Laguna	12	San Juan la Laguna	10	Octubre	2023-10-26T00:00:00	2024-11-08T05:00:00	6	Velocidad del viento	0
85406	7	Sololá	717	San Juan la Laguna	12	San Juan la Laguna	10	Octubre	2023-10-26T00:00:00	2024-11-08T05:00:00	7	Dirección del viento	0
85407	7	Sololá	717	San Juan la Laguna	12	San Juan la Laguna	10	Octubre	2023-10-26T00:00:00	2024-11-08T05:00:00	1	Precipitación	0
85408	7	Sololá	717	San Juan la Laguna	12	San Juan la Laguna	10	Octubre	2023-10-26T00:00:00	2024-11-08T05:00:00	8	Radiación solar	0
85409	7	Sololá	717	San Juan la Laguna	12	San Juan la Laguna	10	Octubre	2023-10-26T00:00:00	2024-11-08T06:00:00	2	Temperatura media	15.6
85410	7	Sololá	717	San Juan la Laguna	12	San Juan la Laguna	10	Octubre	2023-10-26T00:00:00	2024-11-08T06:00:00	4	Temperatura máxima	15.8
85411	7	Sololá	717	San Juan la Laguna	12	San Juan la Laguna	10	Octubre	2023-10-26T00:00:00	2024-11-08T06:00:00	3	Temperatura mínima	15.6
85412	7	Sololá	717	San Juan la Laguna	12	San Juan la Laguna	10	Octubre	2023-10-26T00:00:00	2024-11-08T06:00:00	5	Humedad	89
85413	7	Sololá	717	San Juan la Laguna	12	San Juan la Laguna	10	Octubre	2023-10-26T00:00:00	2024-11-08T06:00:00	6	Velocidad del viento	0
85414	7	Sololá	717	San Juan la Laguna	12	San Juan la Laguna	10	Octubre	2023-10-26T00:00:00	2024-11-08T06:00:00	7	Dirección del viento	0
85415	7	Sololá	717	San Juan la Laguna	12	San Juan la Laguna	10	Octubre	2023-10-26T00:00:00	2024-11-08T06:00:00	1	Precipitación	0
85416	7	Sololá	717	San Juan la Laguna	12	San Juan la Laguna	10	Octubre	2023-10-26T00:00:00	2024-11-08T06:00:00	8	Radiación solar	0
85417	7	Sololá	717	San Juan la Laguna	12	San Juan la Laguna	10	Octubre	2023-10-26T00:00:00	2024-11-08T07:00:00	2	Temperatura media	17.3
85418	7	Sololá	717	San Juan la Laguna	12	San Juan la Laguna	10	Octubre	2023-10-26T00:00:00	2024-11-08T07:00:00	4	Temperatura máxima	17.3
85419	7	Sololá	717	San Juan la Laguna	12	San Juan la Laguna	10	Octubre	2023-10-26T00:00:00	2024-11-08T07:00:00	3	Temperatura mínima	15.4
85420	7	Sololá	717	San Juan la Laguna	12	San Juan la Laguna	10	Octubre	2023-10-26T00:00:00	2024-11-08T07:00:00	5	Humedad	87
85421	7	Sololá	717	San Juan la Laguna	12	San Juan la Laguna	10	Octubre	2023-10-26T00:00:00	2024-11-08T07:00:00	6	Velocidad del viento	0
85422	7	Sololá	717	San Juan la Laguna	12	San Juan la Laguna	10	Octubre	2023-10-26T00:00:00	2024-11-08T07:00:00	7	Dirección del viento	0
85423	7	Sololá	717	San Juan la Laguna	12	San Juan la Laguna	10	Octubre	2023-10-26T00:00:00	2024-11-08T07:00:00	1	Precipitación	0
85424	7	Sololá	717	San Juan la Laguna	12	San Juan la Laguna	10	Octubre	2023-10-26T00:00:00	2024-11-08T07:00:00	8	Radiación solar	71
85425	7	Sololá	717	San Juan la Laguna	12	San Juan la Laguna	10	Octubre	2023-10-26T00:00:00	2024-11-08T08:00:00	2	Temperatura media	21.2
85426	7	Sololá	717	San Juan la Laguna	12	San Juan la Laguna	10	Octubre	2023-10-26T00:00:00	2024-11-08T08:00:00	4	Temperatura máxima	21.2
85427	7	Sololá	717	San Juan la Laguna	12	San Juan la Laguna	10	Octubre	2023-10-26T00:00:00	2024-11-08T08:00:00	3	Temperatura mínima	17.3
85428	7	Sololá	717	San Juan la Laguna	12	San Juan la Laguna	10	Octubre	2023-10-26T00:00:00	2024-11-08T08:00:00	5	Humedad	77
85429	7	Sololá	717	San Juan la Laguna	12	San Juan la Laguna	10	Octubre	2023-10-26T00:00:00	2024-11-08T08:00:00	6	Velocidad del viento	0
85430	7	Sololá	717	San Juan la Laguna	12	San Juan la Laguna	10	Octubre	2023-10-26T00:00:00	2024-11-08T08:00:00	7	Dirección del viento	0
85431	7	Sololá	717	San Juan la Laguna	12	San Juan la Laguna	10	Octubre	2023-10-26T00:00:00	2024-11-08T08:00:00	1	Precipitación	0
85432	7	Sololá	717	San Juan la Laguna	12	San Juan la Laguna	10	Octubre	2023-10-26T00:00:00	2024-11-08T08:00:00	8	Radiación solar	241
85433	7	Sololá	717	San Juan la Laguna	12	San Juan la Laguna	10	Octubre	2023-10-26T00:00:00	2024-11-08T09:00:00	2	Temperatura media	23.3
85434	7	Sololá	717	San Juan la Laguna	12	San Juan la Laguna	10	Octubre	2023-10-26T00:00:00	2024-11-08T09:00:00	4	Temperatura máxima	23.8
85435	7	Sololá	717	San Juan la Laguna	12	San Juan la Laguna	10	Octubre	2023-10-26T00:00:00	2024-11-08T09:00:00	3	Temperatura mínima	21.2
85436	7	Sololá	717	San Juan la Laguna	12	San Juan la Laguna	10	Octubre	2023-10-26T00:00:00	2024-11-08T09:00:00	5	Humedad	63
85437	7	Sololá	717	San Juan la Laguna	12	San Juan la Laguna	10	Octubre	2023-10-26T00:00:00	2024-11-08T09:00:00	6	Velocidad del viento	0
85438	7	Sololá	717	San Juan la Laguna	12	San Juan la Laguna	10	Octubre	2023-10-26T00:00:00	2024-11-08T09:00:00	7	Dirección del viento	0
85439	7	Sololá	717	San Juan la Laguna	12	San Juan la Laguna	10	Octubre	2023-10-26T00:00:00	2024-11-08T09:00:00	1	Precipitación	0
85440	7	Sololá	717	San Juan la Laguna	12	San Juan la Laguna	10	Octubre	2023-10-26T00:00:00	2024-11-08T09:00:00	8	Radiación solar	517
85441	7	Sololá	717	San Juan la Laguna	12	San Juan la Laguna	10	Octubre	2023-10-26T00:00:00	2024-11-08T10:00:00	2	Temperatura media	23.7
85442	7	Sololá	717	San Juan la Laguna	12	San Juan la Laguna	10	Octubre	2023-10-26T00:00:00	2024-11-08T10:00:00	4	Temperatura máxima	23.8
85443	7	Sololá	717	San Juan la Laguna	12	San Juan la Laguna	10	Octubre	2023-10-26T00:00:00	2024-11-08T10:00:00	3	Temperatura mínima	23.1
85444	7	Sololá	717	San Juan la Laguna	12	San Juan la Laguna	10	Octubre	2023-10-26T00:00:00	2024-11-08T10:00:00	5	Humedad	61
85445	7	Sololá	717	San Juan la Laguna	12	San Juan la Laguna	10	Octubre	2023-10-26T00:00:00	2024-11-08T10:00:00	6	Velocidad del viento	0
85446	7	Sololá	717	San Juan la Laguna	12	San Juan la Laguna	10	Octubre	2023-10-26T00:00:00	2024-11-08T10:00:00	7	Dirección del viento	0
85447	7	Sololá	717	San Juan la Laguna	12	San Juan la Laguna	10	Octubre	2023-10-26T00:00:00	2024-11-08T10:00:00	1	Precipitación	0
85448	7	Sololá	717	San Juan la Laguna	12	San Juan la Laguna	10	Octubre	2023-10-26T00:00:00	2024-11-08T10:00:00	8	Radiación solar	637
85449	7	Sololá	717	San Juan la Laguna	12	San Juan la Laguna	10	Octubre	2023-10-26T00:00:00	2024-11-08T11:00:00	2	Temperatura media	23.8
85450	7	Sololá	717	San Juan la Laguna	12	San Juan la Laguna	10	Octubre	2023-10-26T00:00:00	2024-11-08T11:00:00	4	Temperatura máxima	23.8
85451	7	Sololá	717	San Juan la Laguna	12	San Juan la Laguna	10	Octubre	2023-10-26T00:00:00	2024-11-08T11:00:00	3	Temperatura mínima	22.7
85452	7	Sololá	717	San Juan la Laguna	12	San Juan la Laguna	10	Octubre	2023-10-26T00:00:00	2024-11-08T11:00:00	5	Humedad	62
85453	7	Sololá	717	San Juan la Laguna	12	San Juan la Laguna	10	Octubre	2023-10-26T00:00:00	2024-11-08T11:00:00	6	Velocidad del viento	0
85454	7	Sololá	717	San Juan la Laguna	12	San Juan la Laguna	10	Octubre	2023-10-26T00:00:00	2024-11-08T11:00:00	7	Dirección del viento	0
85455	7	Sololá	717	San Juan la Laguna	12	San Juan la Laguna	10	Octubre	2023-10-26T00:00:00	2024-11-08T11:00:00	1	Precipitación	0
85456	7	Sololá	717	San Juan la Laguna	12	San Juan la Laguna	10	Octubre	2023-10-26T00:00:00	2024-11-08T11:00:00	8	Radiación solar	435
85457	7	Sololá	717	San Juan la Laguna	12	San Juan la Laguna	10	Octubre	2023-10-26T00:00:00	2024-11-08T12:00:00	2	Temperatura media	24.9
85458	7	Sololá	717	San Juan la Laguna	12	San Juan la Laguna	10	Octubre	2023-10-26T00:00:00	2024-11-08T12:00:00	4	Temperatura máxima	24.9
85459	7	Sololá	717	San Juan la Laguna	12	San Juan la Laguna	10	Octubre	2023-10-26T00:00:00	2024-11-08T12:00:00	3	Temperatura mínima	23.6
85460	7	Sololá	717	San Juan la Laguna	12	San Juan la Laguna	10	Octubre	2023-10-26T00:00:00	2024-11-08T12:00:00	5	Humedad	59
85461	7	Sololá	717	San Juan la Laguna	12	San Juan la Laguna	10	Octubre	2023-10-26T00:00:00	2024-11-08T12:00:00	6	Velocidad del viento	0
85462	7	Sololá	717	San Juan la Laguna	12	San Juan la Laguna	10	Octubre	2023-10-26T00:00:00	2024-11-08T12:00:00	7	Dirección del viento	0
85463	7	Sololá	717	San Juan la Laguna	12	San Juan la Laguna	10	Octubre	2023-10-26T00:00:00	2024-11-08T12:00:00	1	Precipitación	0
85464	7	Sololá	717	San Juan la Laguna	12	San Juan la Laguna	10	Octubre	2023-10-26T00:00:00	2024-11-08T12:00:00	8	Radiación solar	456
85465	7	Sololá	717	San Juan la Laguna	12	San Juan la Laguna	10	Octubre	2023-10-26T00:00:00	2024-11-08T13:00:00	2	Temperatura media	24.5
85466	7	Sololá	717	San Juan la Laguna	12	San Juan la Laguna	10	Octubre	2023-10-26T00:00:00	2024-11-08T13:00:00	4	Temperatura máxima	24.9
85467	7	Sololá	717	San Juan la Laguna	12	San Juan la Laguna	10	Octubre	2023-10-26T00:00:00	2024-11-08T13:00:00	3	Temperatura mínima	24.1
85468	7	Sololá	717	San Juan la Laguna	12	San Juan la Laguna	10	Octubre	2023-10-26T00:00:00	2024-11-08T13:00:00	5	Humedad	67
85469	7	Sololá	717	San Juan la Laguna	12	San Juan la Laguna	10	Octubre	2023-10-26T00:00:00	2024-11-08T13:00:00	6	Velocidad del viento	0
85470	7	Sololá	717	San Juan la Laguna	12	San Juan la Laguna	10	Octubre	2023-10-26T00:00:00	2024-11-08T13:00:00	7	Dirección del viento	0
85471	7	Sololá	717	San Juan la Laguna	12	San Juan la Laguna	10	Octubre	2023-10-26T00:00:00	2024-11-08T13:00:00	1	Precipitación	0
85472	7	Sololá	717	San Juan la Laguna	12	San Juan la Laguna	10	Octubre	2023-10-26T00:00:00	2024-11-08T13:00:00	8	Radiación solar	665
85473	7	Sololá	717	San Juan la Laguna	12	San Juan la Laguna	10	Octubre	2023-10-26T00:00:00	2024-11-08T14:00:00	2	Temperatura media	24.4
85474	7	Sololá	717	San Juan la Laguna	12	San Juan la Laguna	10	Octubre	2023-10-26T00:00:00	2024-11-08T14:00:00	4	Temperatura máxima	25.2
85475	7	Sololá	717	San Juan la Laguna	12	San Juan la Laguna	10	Octubre	2023-10-26T00:00:00	2024-11-08T14:00:00	3	Temperatura mínima	24
85476	7	Sololá	717	San Juan la Laguna	12	San Juan la Laguna	10	Octubre	2023-10-26T00:00:00	2024-11-08T14:00:00	5	Humedad	69
85477	7	Sololá	717	San Juan la Laguna	12	San Juan la Laguna	10	Octubre	2023-10-26T00:00:00	2024-11-08T14:00:00	6	Velocidad del viento	0
85478	7	Sololá	717	San Juan la Laguna	12	San Juan la Laguna	10	Octubre	2023-10-26T00:00:00	2024-11-08T14:00:00	7	Dirección del viento	0
85479	7	Sololá	717	San Juan la Laguna	12	San Juan la Laguna	10	Octubre	2023-10-26T00:00:00	2024-11-08T14:00:00	1	Precipitación	0
85480	7	Sololá	717	San Juan la Laguna	12	San Juan la Laguna	10	Octubre	2023-10-26T00:00:00	2024-11-08T14:00:00	8	Radiación solar	721
85481	7	Sololá	717	San Juan la Laguna	12	San Juan la Laguna	10	Octubre	2023-10-26T00:00:00	2024-11-08T15:00:00	2	Temperatura media	24.3
85482	7	Sololá	717	San Juan la Laguna	12	San Juan la Laguna	10	Octubre	2023-10-26T00:00:00	2024-11-08T15:00:00	4	Temperatura máxima	25
85483	7	Sololá	717	San Juan la Laguna	12	San Juan la Laguna	10	Octubre	2023-10-26T00:00:00	2024-11-08T15:00:00	3	Temperatura mínima	23.7
85484	7	Sololá	717	San Juan la Laguna	12	San Juan la Laguna	10	Octubre	2023-10-26T00:00:00	2024-11-08T15:00:00	5	Humedad	69
85485	7	Sololá	717	San Juan la Laguna	12	San Juan la Laguna	10	Octubre	2023-10-26T00:00:00	2024-11-08T15:00:00	6	Velocidad del viento	0
85486	7	Sololá	717	San Juan la Laguna	12	San Juan la Laguna	10	Octubre	2023-10-26T00:00:00	2024-11-08T15:00:00	7	Dirección del viento	0
85487	7	Sololá	717	San Juan la Laguna	12	San Juan la Laguna	10	Octubre	2023-10-26T00:00:00	2024-11-08T15:00:00	1	Precipitación	0
85488	7	Sololá	717	San Juan la Laguna	12	San Juan la Laguna	10	Octubre	2023-10-26T00:00:00	2024-11-08T15:00:00	8	Radiación solar	642
85489	7	Sololá	717	San Juan la Laguna	12	San Juan la Laguna	10	Octubre	2023-10-26T00:00:00	2024-11-08T16:00:00	2	Temperatura media	22.8
85490	7	Sololá	717	San Juan la Laguna	12	San Juan la Laguna	10	Octubre	2023-10-26T00:00:00	2024-11-08T16:00:00	4	Temperatura máxima	24.3
85491	7	Sololá	717	San Juan la Laguna	12	San Juan la Laguna	10	Octubre	2023-10-26T00:00:00	2024-11-08T16:00:00	3	Temperatura mínima	22.8
85492	7	Sololá	717	San Juan la Laguna	12	San Juan la Laguna	10	Octubre	2023-10-26T00:00:00	2024-11-08T16:00:00	5	Humedad	76
85493	7	Sololá	717	San Juan la Laguna	12	San Juan la Laguna	10	Octubre	2023-10-26T00:00:00	2024-11-08T16:00:00	6	Velocidad del viento	0
85494	7	Sololá	717	San Juan la Laguna	12	San Juan la Laguna	10	Octubre	2023-10-26T00:00:00	2024-11-08T16:00:00	7	Dirección del viento	0
85495	7	Sololá	717	San Juan la Laguna	12	San Juan la Laguna	10	Octubre	2023-10-26T00:00:00	2024-11-08T16:00:00	1	Precipitación	0
85496	7	Sololá	717	San Juan la Laguna	12	San Juan la Laguna	10	Octubre	2023-10-26T00:00:00	2024-11-08T16:00:00	8	Radiación solar	396
85497	7	Sololá	717	San Juan la Laguna	12	San Juan la Laguna	10	Octubre	2023-10-26T00:00:00	2024-11-08T17:00:00	2	Temperatura media	21.3
85498	7	Sololá	717	San Juan la Laguna	12	San Juan la Laguna	10	Octubre	2023-10-26T00:00:00	2024-11-08T17:00:00	4	Temperatura máxima	23.1
85499	7	Sololá	717	San Juan la Laguna	12	San Juan la Laguna	10	Octubre	2023-10-26T00:00:00	2024-11-08T17:00:00	3	Temperatura mínima	21.2
85500	7	Sololá	717	San Juan la Laguna	12	San Juan la Laguna	10	Octubre	2023-10-26T00:00:00	2024-11-08T17:00:00	5	Humedad	82
85501	7	Sololá	717	San Juan la Laguna	12	San Juan la Laguna	10	Octubre	2023-10-26T00:00:00	2024-11-08T17:00:00	6	Velocidad del viento	0
85502	7	Sololá	717	San Juan la Laguna	12	San Juan la Laguna	10	Octubre	2023-10-26T00:00:00	2024-11-08T17:00:00	7	Dirección del viento	0
85503	7	Sololá	717	San Juan la Laguna	12	San Juan la Laguna	10	Octubre	2023-10-26T00:00:00	2024-11-08T17:00:00	1	Precipitación	0
85504	7	Sololá	717	San Juan la Laguna	12	San Juan la Laguna	10	Octubre	2023-10-26T00:00:00	2024-11-08T17:00:00	8	Radiación solar	120
85505	7	Sololá	717	San Juan la Laguna	12	San Juan la Laguna	10	Octubre	2023-10-26T00:00:00	2024-11-08T18:00:00	2	Temperatura media	20.7
85506	7	Sololá	717	San Juan la Laguna	12	San Juan la Laguna	10	Octubre	2023-10-26T00:00:00	2024-11-08T18:00:00	4	Temperatura máxima	21.4
85507	7	Sololá	717	San Juan la Laguna	12	San Juan la Laguna	10	Octubre	2023-10-26T00:00:00	2024-11-08T18:00:00	3	Temperatura mínima	20.7
85508	7	Sololá	717	San Juan la Laguna	12	San Juan la Laguna	10	Octubre	2023-10-26T00:00:00	2024-11-08T18:00:00	5	Humedad	84
85509	7	Sololá	717	San Juan la Laguna	12	San Juan la Laguna	10	Octubre	2023-10-26T00:00:00	2024-11-08T18:00:00	6	Velocidad del viento	0
85510	7	Sololá	717	San Juan la Laguna	12	San Juan la Laguna	10	Octubre	2023-10-26T00:00:00	2024-11-08T18:00:00	7	Dirección del viento	0
85511	7	Sololá	717	San Juan la Laguna	12	San Juan la Laguna	10	Octubre	2023-10-26T00:00:00	2024-11-08T18:00:00	1	Precipitación	0
85512	7	Sololá	717	San Juan la Laguna	12	San Juan la Laguna	10	Octubre	2023-10-26T00:00:00	2024-11-08T18:00:00	8	Radiación solar	1
85513	7	Sololá	717	San Juan la Laguna	12	San Juan la Laguna	10	Octubre	2023-10-26T00:00:00	2024-11-08T19:00:00	2	Temperatura media	19.8
85514	7	Sololá	717	San Juan la Laguna	12	San Juan la Laguna	10	Octubre	2023-10-26T00:00:00	2024-11-08T19:00:00	4	Temperatura máxima	20.7
85515	7	Sololá	717	San Juan la Laguna	12	San Juan la Laguna	10	Octubre	2023-10-26T00:00:00	2024-11-08T19:00:00	3	Temperatura mínima	19.8
85516	7	Sololá	717	San Juan la Laguna	12	San Juan la Laguna	10	Octubre	2023-10-26T00:00:00	2024-11-08T19:00:00	5	Humedad	87
85517	7	Sololá	717	San Juan la Laguna	12	San Juan la Laguna	10	Octubre	2023-10-26T00:00:00	2024-11-08T19:00:00	6	Velocidad del viento	0
85518	7	Sololá	717	San Juan la Laguna	12	San Juan la Laguna	10	Octubre	2023-10-26T00:00:00	2024-11-08T19:00:00	7	Dirección del viento	0
85519	7	Sololá	717	San Juan la Laguna	12	San Juan la Laguna	10	Octubre	2023-10-26T00:00:00	2024-11-08T19:00:00	1	Precipitación	0
85520	7	Sololá	717	San Juan la Laguna	12	San Juan la Laguna	10	Octubre	2023-10-26T00:00:00	2024-11-08T19:00:00	8	Radiación solar	0
85521	7	Sololá	717	San Juan la Laguna	12	San Juan la Laguna	10	Octubre	2023-10-26T00:00:00	2024-11-08T20:00:00	2	Temperatura media	18.3
85522	7	Sololá	717	San Juan la Laguna	12	San Juan la Laguna	10	Octubre	2023-10-26T00:00:00	2024-11-08T20:00:00	4	Temperatura máxima	19.9
85523	7	Sololá	717	San Juan la Laguna	12	San Juan la Laguna	10	Octubre	2023-10-26T00:00:00	2024-11-08T20:00:00	3	Temperatura mínima	18.3
85524	7	Sololá	717	San Juan la Laguna	12	San Juan la Laguna	10	Octubre	2023-10-26T00:00:00	2024-11-08T20:00:00	5	Humedad	88
85525	7	Sololá	717	San Juan la Laguna	12	San Juan la Laguna	10	Octubre	2023-10-26T00:00:00	2024-11-08T20:00:00	6	Velocidad del viento	0
85526	7	Sololá	717	San Juan la Laguna	12	San Juan la Laguna	10	Octubre	2023-10-26T00:00:00	2024-11-08T20:00:00	7	Dirección del viento	0
85527	7	Sololá	717	San Juan la Laguna	12	San Juan la Laguna	10	Octubre	2023-10-26T00:00:00	2024-11-08T20:00:00	1	Precipitación	0
85528	7	Sololá	717	San Juan la Laguna	12	San Juan la Laguna	10	Octubre	2023-10-26T00:00:00	2024-11-08T20:00:00	8	Radiación solar	0
85529	7	Sololá	717	San Juan la Laguna	12	San Juan la Laguna	10	Octubre	2023-10-26T00:00:00	2024-11-08T21:00:00	2	Temperatura media	17.9
85530	7	Sololá	717	San Juan la Laguna	12	San Juan la Laguna	10	Octubre	2023-10-26T00:00:00	2024-11-08T21:00:00	4	Temperatura máxima	18.3
85531	7	Sololá	717	San Juan la Laguna	12	San Juan la Laguna	10	Octubre	2023-10-26T00:00:00	2024-11-08T21:00:00	3	Temperatura mínima	17.9
85532	7	Sololá	717	San Juan la Laguna	12	San Juan la Laguna	10	Octubre	2023-10-26T00:00:00	2024-11-08T21:00:00	5	Humedad	85
85533	7	Sololá	717	San Juan la Laguna	12	San Juan la Laguna	10	Octubre	2023-10-26T00:00:00	2024-11-08T21:00:00	6	Velocidad del viento	0
85534	7	Sololá	717	San Juan la Laguna	12	San Juan la Laguna	10	Octubre	2023-10-26T00:00:00	2024-11-08T21:00:00	7	Dirección del viento	0
85535	7	Sololá	717	San Juan la Laguna	12	San Juan la Laguna	10	Octubre	2023-10-26T00:00:00	2024-11-08T21:00:00	1	Precipitación	0
85536	7	Sololá	717	San Juan la Laguna	12	San Juan la Laguna	10	Octubre	2023-10-26T00:00:00	2024-11-08T21:00:00	8	Radiación solar	0
85537	7	Sololá	717	San Juan la Laguna	12	San Juan la Laguna	10	Octubre	2023-10-26T00:00:00	2024-11-08T22:00:00	2	Temperatura media	17.4
85538	7	Sololá	717	San Juan la Laguna	12	San Juan la Laguna	10	Octubre	2023-10-26T00:00:00	2024-11-08T22:00:00	4	Temperatura máxima	17.8
85539	7	Sololá	717	San Juan la Laguna	12	San Juan la Laguna	10	Octubre	2023-10-26T00:00:00	2024-11-08T22:00:00	3	Temperatura mínima	17.1
85540	7	Sololá	717	San Juan la Laguna	12	San Juan la Laguna	10	Octubre	2023-10-26T00:00:00	2024-11-08T22:00:00	5	Humedad	88
85541	7	Sololá	717	San Juan la Laguna	12	San Juan la Laguna	10	Octubre	2023-10-26T00:00:00	2024-11-08T22:00:00	6	Velocidad del viento	0
85542	7	Sololá	717	San Juan la Laguna	12	San Juan la Laguna	10	Octubre	2023-10-26T00:00:00	2024-11-08T22:00:00	7	Dirección del viento	0
85543	7	Sololá	717	San Juan la Laguna	12	San Juan la Laguna	10	Octubre	2023-10-26T00:00:00	2024-11-08T22:00:00	1	Precipitación	0
85544	7	Sololá	717	San Juan la Laguna	12	San Juan la Laguna	10	Octubre	2023-10-26T00:00:00	2024-11-08T22:00:00	8	Radiación solar	0
85545	7	Sololá	717	San Juan la Laguna	12	San Juan la Laguna	10	Octubre	2023-10-26T00:00:00	2024-11-08T23:00:00	2	Temperatura media	16.9
85546	7	Sololá	717	San Juan la Laguna	12	San Juan la Laguna	10	Octubre	2023-10-26T00:00:00	2024-11-08T23:00:00	4	Temperatura máxima	17.8
85547	7	Sololá	717	San Juan la Laguna	12	San Juan la Laguna	10	Octubre	2023-10-26T00:00:00	2024-11-08T23:00:00	3	Temperatura mínima	16.9
85548	7	Sololá	717	San Juan la Laguna	12	San Juan la Laguna	10	Octubre	2023-10-26T00:00:00	2024-11-08T23:00:00	5	Humedad	89
85549	7	Sololá	717	San Juan la Laguna	12	San Juan la Laguna	10	Octubre	2023-10-26T00:00:00	2024-11-08T23:00:00	6	Velocidad del viento	0
85550	7	Sololá	717	San Juan la Laguna	12	San Juan la Laguna	10	Octubre	2023-10-26T00:00:00	2024-11-08T23:00:00	7	Dirección del viento	0
85551	7	Sololá	717	San Juan la Laguna	12	San Juan la Laguna	10	Octubre	2023-10-26T00:00:00	2024-11-08T23:00:00	1	Precipitación	0
85552	7	Sololá	717	San Juan la Laguna	12	San Juan la Laguna	10	Octubre	2023-10-26T00:00:00	2024-11-08T23:00:00	8	Radiación solar	0
85553	7	Sololá	717	San Juan la Laguna	12	San Juan la Laguna	10	Octubre	2023-10-27T00:00:00	2024-11-08T00:00:00	2	Temperatura media	17.3
85554	7	Sololá	717	San Juan la Laguna	12	San Juan la Laguna	10	Octubre	2023-10-27T00:00:00	2024-11-08T00:00:00	4	Temperatura máxima	17.7
85555	7	Sololá	717	San Juan la Laguna	12	San Juan la Laguna	10	Octubre	2023-10-27T00:00:00	2024-11-08T00:00:00	3	Temperatura mínima	16.9
85556	7	Sololá	717	San Juan la Laguna	12	San Juan la Laguna	10	Octubre	2023-10-27T00:00:00	2024-11-08T00:00:00	5	Humedad	88
85557	7	Sololá	717	San Juan la Laguna	12	San Juan la Laguna	10	Octubre	2023-10-27T00:00:00	2024-11-08T00:00:00	6	Velocidad del viento	0
85558	7	Sololá	717	San Juan la Laguna	12	San Juan la Laguna	10	Octubre	2023-10-27T00:00:00	2024-11-08T00:00:00	7	Dirección del viento	0
85559	7	Sololá	717	San Juan la Laguna	12	San Juan la Laguna	10	Octubre	2023-10-27T00:00:00	2024-11-08T00:00:00	1	Precipitación	0
85560	7	Sololá	717	San Juan la Laguna	12	San Juan la Laguna	10	Octubre	2023-10-27T00:00:00	2024-11-08T00:00:00	8	Radiación solar	0
85561	7	Sololá	717	San Juan la Laguna	12	San Juan la Laguna	10	Octubre	2023-10-27T00:00:00	2024-11-08T01:00:00	2	Temperatura media	16.8
85562	7	Sololá	717	San Juan la Laguna	12	San Juan la Laguna	10	Octubre	2023-10-27T00:00:00	2024-11-08T01:00:00	4	Temperatura máxima	17.3
85563	7	Sololá	717	San Juan la Laguna	12	San Juan la Laguna	10	Octubre	2023-10-27T00:00:00	2024-11-08T01:00:00	3	Temperatura mínima	16.8
85564	7	Sololá	717	San Juan la Laguna	12	San Juan la Laguna	10	Octubre	2023-10-27T00:00:00	2024-11-08T01:00:00	5	Humedad	89
85565	7	Sololá	717	San Juan la Laguna	12	San Juan la Laguna	10	Octubre	2023-10-27T00:00:00	2024-11-08T01:00:00	6	Velocidad del viento	0
85566	7	Sololá	717	San Juan la Laguna	12	San Juan la Laguna	10	Octubre	2023-10-27T00:00:00	2024-11-08T01:00:00	7	Dirección del viento	0
85567	7	Sololá	717	San Juan la Laguna	12	San Juan la Laguna	10	Octubre	2023-10-27T00:00:00	2024-11-08T01:00:00	1	Precipitación	0
85568	7	Sololá	717	San Juan la Laguna	12	San Juan la Laguna	10	Octubre	2023-10-27T00:00:00	2024-11-08T01:00:00	8	Radiación solar	0
85569	7	Sololá	717	San Juan la Laguna	12	San Juan la Laguna	10	Octubre	2023-10-27T00:00:00	2024-11-08T02:00:00	2	Temperatura media	16.9
85570	7	Sololá	717	San Juan la Laguna	12	San Juan la Laguna	10	Octubre	2023-10-27T00:00:00	2024-11-08T02:00:00	4	Temperatura máxima	17.2
85571	7	Sololá	717	San Juan la Laguna	12	San Juan la Laguna	10	Octubre	2023-10-27T00:00:00	2024-11-08T02:00:00	3	Temperatura mínima	16.7
85572	7	Sololá	717	San Juan la Laguna	12	San Juan la Laguna	10	Octubre	2023-10-27T00:00:00	2024-11-08T02:00:00	5	Humedad	88
85573	7	Sololá	717	San Juan la Laguna	12	San Juan la Laguna	10	Octubre	2023-10-27T00:00:00	2024-11-08T02:00:00	6	Velocidad del viento	0
85574	7	Sololá	717	San Juan la Laguna	12	San Juan la Laguna	10	Octubre	2023-10-27T00:00:00	2024-11-08T02:00:00	7	Dirección del viento	0
85575	7	Sololá	717	San Juan la Laguna	12	San Juan la Laguna	10	Octubre	2023-10-27T00:00:00	2024-11-08T02:00:00	1	Precipitación	0
85576	7	Sololá	717	San Juan la Laguna	12	San Juan la Laguna	10	Octubre	2023-10-27T00:00:00	2024-11-08T02:00:00	8	Radiación solar	0
85577	7	Sololá	717	San Juan la Laguna	12	San Juan la Laguna	10	Octubre	2023-10-27T00:00:00	2024-11-08T03:00:00	2	Temperatura media	16.6
85578	7	Sololá	717	San Juan la Laguna	12	San Juan la Laguna	10	Octubre	2023-10-27T00:00:00	2024-11-08T03:00:00	4	Temperatura máxima	16.9
85579	7	Sololá	717	San Juan la Laguna	12	San Juan la Laguna	10	Octubre	2023-10-27T00:00:00	2024-11-08T03:00:00	3	Temperatura mínima	16.3
85580	7	Sololá	717	San Juan la Laguna	12	San Juan la Laguna	10	Octubre	2023-10-27T00:00:00	2024-11-08T03:00:00	5	Humedad	89
85581	7	Sololá	717	San Juan la Laguna	12	San Juan la Laguna	10	Octubre	2023-10-27T00:00:00	2024-11-08T03:00:00	6	Velocidad del viento	0
85582	7	Sololá	717	San Juan la Laguna	12	San Juan la Laguna	10	Octubre	2023-10-27T00:00:00	2024-11-08T03:00:00	7	Dirección del viento	0
85583	7	Sololá	717	San Juan la Laguna	12	San Juan la Laguna	10	Octubre	2023-10-27T00:00:00	2024-11-08T03:00:00	1	Precipitación	0
85584	7	Sololá	717	San Juan la Laguna	12	San Juan la Laguna	10	Octubre	2023-10-27T00:00:00	2024-11-08T03:00:00	8	Radiación solar	0
85585	7	Sololá	717	San Juan la Laguna	12	San Juan la Laguna	10	Octubre	2023-10-27T00:00:00	2024-11-08T04:00:00	2	Temperatura media	16.6
85586	7	Sololá	717	San Juan la Laguna	12	San Juan la Laguna	10	Octubre	2023-10-27T00:00:00	2024-11-08T04:00:00	4	Temperatura máxima	17.2
85587	7	Sololá	717	San Juan la Laguna	12	San Juan la Laguna	10	Octubre	2023-10-27T00:00:00	2024-11-08T04:00:00	3	Temperatura mínima	16.6
85588	7	Sololá	717	San Juan la Laguna	12	San Juan la Laguna	10	Octubre	2023-10-27T00:00:00	2024-11-08T04:00:00	5	Humedad	88
85589	7	Sololá	717	San Juan la Laguna	12	San Juan la Laguna	10	Octubre	2023-10-27T00:00:00	2024-11-08T04:00:00	6	Velocidad del viento	0
85590	7	Sololá	717	San Juan la Laguna	12	San Juan la Laguna	10	Octubre	2023-10-27T00:00:00	2024-11-08T04:00:00	7	Dirección del viento	0
85591	7	Sololá	717	San Juan la Laguna	12	San Juan la Laguna	10	Octubre	2023-10-27T00:00:00	2024-11-08T04:00:00	1	Precipitación	0
85592	7	Sololá	717	San Juan la Laguna	12	San Juan la Laguna	10	Octubre	2023-10-27T00:00:00	2024-11-08T04:00:00	8	Radiación solar	0
85593	7	Sololá	717	San Juan la Laguna	12	San Juan la Laguna	10	Octubre	2023-10-27T00:00:00	2024-11-08T05:00:00	2	Temperatura media	17.1
85594	7	Sololá	717	San Juan la Laguna	12	San Juan la Laguna	10	Octubre	2023-10-27T00:00:00	2024-11-08T05:00:00	4	Temperatura máxima	17.1
85595	7	Sololá	717	San Juan la Laguna	12	San Juan la Laguna	10	Octubre	2023-10-27T00:00:00	2024-11-08T05:00:00	3	Temperatura mínima	16.2
85596	7	Sololá	717	San Juan la Laguna	12	San Juan la Laguna	10	Octubre	2023-10-27T00:00:00	2024-11-08T05:00:00	5	Humedad	85
85597	7	Sololá	717	San Juan la Laguna	12	San Juan la Laguna	10	Octubre	2023-10-27T00:00:00	2024-11-08T05:00:00	6	Velocidad del viento	0
85598	7	Sololá	717	San Juan la Laguna	12	San Juan la Laguna	10	Octubre	2023-10-27T00:00:00	2024-11-08T05:00:00	7	Dirección del viento	0
85599	7	Sololá	717	San Juan la Laguna	12	San Juan la Laguna	10	Octubre	2023-10-27T00:00:00	2024-11-08T05:00:00	1	Precipitación	0
85600	7	Sololá	717	San Juan la Laguna	12	San Juan la Laguna	10	Octubre	2023-10-27T00:00:00	2024-11-08T05:00:00	8	Radiación solar	0
85601	7	Sololá	717	San Juan la Laguna	12	San Juan la Laguna	10	Octubre	2023-10-27T00:00:00	2024-11-08T06:00:00	2	Temperatura media	16.9
85602	7	Sololá	717	San Juan la Laguna	12	San Juan la Laguna	10	Octubre	2023-10-27T00:00:00	2024-11-08T06:00:00	4	Temperatura máxima	17.8
85603	7	Sololá	717	San Juan la Laguna	12	San Juan la Laguna	10	Octubre	2023-10-27T00:00:00	2024-11-08T06:00:00	3	Temperatura mínima	16.9
85604	7	Sololá	717	San Juan la Laguna	12	San Juan la Laguna	10	Octubre	2023-10-27T00:00:00	2024-11-08T06:00:00	5	Humedad	86
85605	7	Sololá	717	San Juan la Laguna	12	San Juan la Laguna	10	Octubre	2023-10-27T00:00:00	2024-11-08T06:00:00	6	Velocidad del viento	0
85606	7	Sololá	717	San Juan la Laguna	12	San Juan la Laguna	10	Octubre	2023-10-27T00:00:00	2024-11-08T06:00:00	7	Dirección del viento	0
85607	7	Sololá	717	San Juan la Laguna	12	San Juan la Laguna	10	Octubre	2023-10-27T00:00:00	2024-11-08T06:00:00	1	Precipitación	0
85608	7	Sololá	717	San Juan la Laguna	12	San Juan la Laguna	10	Octubre	2023-10-27T00:00:00	2024-11-08T06:00:00	8	Radiación solar	0
85609	7	Sololá	717	San Juan la Laguna	12	San Juan la Laguna	10	Octubre	2023-10-27T00:00:00	2024-11-08T07:00:00	2	Temperatura media	17.7
85610	7	Sololá	717	San Juan la Laguna	12	San Juan la Laguna	10	Octubre	2023-10-27T00:00:00	2024-11-08T07:00:00	4	Temperatura máxima	17.7
85611	7	Sololá	717	San Juan la Laguna	12	San Juan la Laguna	10	Octubre	2023-10-27T00:00:00	2024-11-08T07:00:00	3	Temperatura mínima	16.5
85612	7	Sololá	717	San Juan la Laguna	12	San Juan la Laguna	10	Octubre	2023-10-27T00:00:00	2024-11-08T07:00:00	5	Humedad	86
85613	7	Sololá	717	San Juan la Laguna	12	San Juan la Laguna	10	Octubre	2023-10-27T00:00:00	2024-11-08T07:00:00	6	Velocidad del viento	0
85614	7	Sololá	717	San Juan la Laguna	12	San Juan la Laguna	10	Octubre	2023-10-27T00:00:00	2024-11-08T07:00:00	7	Dirección del viento	0
85615	7	Sololá	717	San Juan la Laguna	12	San Juan la Laguna	10	Octubre	2023-10-27T00:00:00	2024-11-08T07:00:00	1	Precipitación	0
85616	7	Sololá	717	San Juan la Laguna	12	San Juan la Laguna	10	Octubre	2023-10-27T00:00:00	2024-11-08T07:00:00	8	Radiación solar	42
85617	7	Sololá	717	San Juan la Laguna	12	San Juan la Laguna	10	Octubre	2023-10-27T00:00:00	2024-11-08T08:00:00	2	Temperatura media	22
85618	7	Sololá	717	San Juan la Laguna	12	San Juan la Laguna	10	Octubre	2023-10-27T00:00:00	2024-11-08T08:00:00	4	Temperatura máxima	22
85619	7	Sololá	717	San Juan la Laguna	12	San Juan la Laguna	10	Octubre	2023-10-27T00:00:00	2024-11-08T08:00:00	3	Temperatura mínima	17.8
85620	7	Sololá	717	San Juan la Laguna	12	San Juan la Laguna	10	Octubre	2023-10-27T00:00:00	2024-11-08T08:00:00	5	Humedad	73
85621	7	Sololá	717	San Juan la Laguna	12	San Juan la Laguna	10	Octubre	2023-10-27T00:00:00	2024-11-08T08:00:00	6	Velocidad del viento	0
85622	7	Sololá	717	San Juan la Laguna	12	San Juan la Laguna	10	Octubre	2023-10-27T00:00:00	2024-11-08T08:00:00	7	Dirección del viento	0
85623	7	Sololá	717	San Juan la Laguna	12	San Juan la Laguna	10	Octubre	2023-10-27T00:00:00	2024-11-08T08:00:00	1	Precipitación	0
85624	7	Sololá	717	San Juan la Laguna	12	San Juan la Laguna	10	Octubre	2023-10-27T00:00:00	2024-11-08T08:00:00	8	Radiación solar	201
85625	7	Sololá	717	San Juan la Laguna	12	San Juan la Laguna	10	Octubre	2023-10-27T00:00:00	2024-11-08T09:00:00	2	Temperatura media	22.7
85626	7	Sololá	717	San Juan la Laguna	12	San Juan la Laguna	10	Octubre	2023-10-27T00:00:00	2024-11-08T09:00:00	4	Temperatura máxima	22.7
85627	7	Sololá	717	San Juan la Laguna	12	San Juan la Laguna	10	Octubre	2023-10-27T00:00:00	2024-11-08T09:00:00	3	Temperatura mínima	22
85628	7	Sololá	717	San Juan la Laguna	12	San Juan la Laguna	10	Octubre	2023-10-27T00:00:00	2024-11-08T09:00:00	5	Humedad	68
85629	7	Sololá	717	San Juan la Laguna	12	San Juan la Laguna	10	Octubre	2023-10-27T00:00:00	2024-11-08T09:00:00	6	Velocidad del viento	0
85630	7	Sololá	717	San Juan la Laguna	12	San Juan la Laguna	10	Octubre	2023-10-27T00:00:00	2024-11-08T09:00:00	7	Dirección del viento	0
85631	7	Sololá	717	San Juan la Laguna	12	San Juan la Laguna	10	Octubre	2023-10-27T00:00:00	2024-11-08T09:00:00	1	Precipitación	0
85632	7	Sololá	717	San Juan la Laguna	12	San Juan la Laguna	10	Octubre	2023-10-27T00:00:00	2024-11-08T09:00:00	8	Radiación solar	286
85633	7	Sololá	717	San Juan la Laguna	12	San Juan la Laguna	10	Octubre	2023-10-27T00:00:00	2024-11-08T10:00:00	2	Temperatura media	22.4
85634	7	Sololá	717	San Juan la Laguna	12	San Juan la Laguna	10	Octubre	2023-10-27T00:00:00	2024-11-08T10:00:00	4	Temperatura máxima	22.8
85635	7	Sololá	717	San Juan la Laguna	12	San Juan la Laguna	10	Octubre	2023-10-27T00:00:00	2024-11-08T10:00:00	3	Temperatura mínima	22.3
85636	7	Sololá	717	San Juan la Laguna	12	San Juan la Laguna	10	Octubre	2023-10-27T00:00:00	2024-11-08T10:00:00	5	Humedad	70
85637	7	Sololá	717	San Juan la Laguna	12	San Juan la Laguna	10	Octubre	2023-10-27T00:00:00	2024-11-08T10:00:00	6	Velocidad del viento	0
85638	7	Sololá	717	San Juan la Laguna	12	San Juan la Laguna	10	Octubre	2023-10-27T00:00:00	2024-11-08T10:00:00	7	Dirección del viento	0
85639	7	Sololá	717	San Juan la Laguna	12	San Juan la Laguna	10	Octubre	2023-10-27T00:00:00	2024-11-08T10:00:00	1	Precipitación	0
85640	7	Sololá	717	San Juan la Laguna	12	San Juan la Laguna	10	Octubre	2023-10-27T00:00:00	2024-11-08T10:00:00	8	Radiación solar	200
85641	7	Sololá	717	San Juan la Laguna	12	San Juan la Laguna	10	Octubre	2023-10-27T00:00:00	2024-11-08T11:00:00	2	Temperatura media	23.7
85642	7	Sololá	717	San Juan la Laguna	12	San Juan la Laguna	10	Octubre	2023-10-27T00:00:00	2024-11-08T11:00:00	4	Temperatura máxima	23.7
85643	7	Sololá	717	San Juan la Laguna	12	San Juan la Laguna	10	Octubre	2023-10-27T00:00:00	2024-11-08T11:00:00	3	Temperatura mínima	22.4
85644	7	Sololá	717	San Juan la Laguna	12	San Juan la Laguna	10	Octubre	2023-10-27T00:00:00	2024-11-08T11:00:00	5	Humedad	60
85645	7	Sololá	717	San Juan la Laguna	12	San Juan la Laguna	10	Octubre	2023-10-27T00:00:00	2024-11-08T11:00:00	6	Velocidad del viento	1.6
85646	7	Sololá	717	San Juan la Laguna	12	San Juan la Laguna	10	Octubre	2023-10-27T00:00:00	2024-11-08T11:00:00	7	Dirección del viento	1.61
85647	7	Sololá	717	San Juan la Laguna	12	San Juan la Laguna	10	Octubre	2023-10-27T00:00:00	2024-11-08T11:00:00	1	Precipitación	0
85648	7	Sololá	717	San Juan la Laguna	12	San Juan la Laguna	10	Octubre	2023-10-27T00:00:00	2024-11-08T11:00:00	8	Radiación solar	356
85649	7	Sololá	717	San Juan la Laguna	12	San Juan la Laguna	10	Octubre	2023-10-27T00:00:00	2024-11-08T12:00:00	2	Temperatura media	24.1
85650	7	Sololá	717	San Juan la Laguna	12	San Juan la Laguna	10	Octubre	2023-10-27T00:00:00	2024-11-08T12:00:00	4	Temperatura máxima	24.9
85651	7	Sololá	717	San Juan la Laguna	12	San Juan la Laguna	10	Octubre	2023-10-27T00:00:00	2024-11-08T12:00:00	3	Temperatura mínima	23.7
85652	7	Sololá	717	San Juan la Laguna	12	San Juan la Laguna	10	Octubre	2023-10-27T00:00:00	2024-11-08T12:00:00	5	Humedad	59
85653	7	Sololá	717	San Juan la Laguna	12	San Juan la Laguna	10	Octubre	2023-10-27T00:00:00	2024-11-08T12:00:00	6	Velocidad del viento	1.6
85654	7	Sololá	717	San Juan la Laguna	12	San Juan la Laguna	10	Octubre	2023-10-27T00:00:00	2024-11-08T12:00:00	7	Dirección del viento	1.61
85655	7	Sololá	717	San Juan la Laguna	12	San Juan la Laguna	10	Octubre	2023-10-27T00:00:00	2024-11-08T12:00:00	1	Precipitación	0
85656	7	Sololá	717	San Juan la Laguna	12	San Juan la Laguna	10	Octubre	2023-10-27T00:00:00	2024-11-08T12:00:00	8	Radiación solar	469
85657	7	Sololá	717	San Juan la Laguna	12	San Juan la Laguna	10	Octubre	2023-10-27T00:00:00	2024-11-08T13:00:00	2	Temperatura media	26
85658	7	Sololá	717	San Juan la Laguna	12	San Juan la Laguna	10	Octubre	2023-10-27T00:00:00	2024-11-08T13:00:00	4	Temperatura máxima	26
85659	7	Sololá	717	San Juan la Laguna	12	San Juan la Laguna	10	Octubre	2023-10-27T00:00:00	2024-11-08T13:00:00	3	Temperatura mínima	24
85660	7	Sololá	717	San Juan la Laguna	12	San Juan la Laguna	10	Octubre	2023-10-27T00:00:00	2024-11-08T13:00:00	5	Humedad	53
85661	7	Sololá	717	San Juan la Laguna	12	San Juan la Laguna	10	Octubre	2023-10-27T00:00:00	2024-11-08T13:00:00	6	Velocidad del viento	0
85662	7	Sololá	717	San Juan la Laguna	12	San Juan la Laguna	10	Octubre	2023-10-27T00:00:00	2024-11-08T13:00:00	7	Dirección del viento	0
85663	7	Sololá	717	San Juan la Laguna	12	San Juan la Laguna	10	Octubre	2023-10-27T00:00:00	2024-11-08T13:00:00	1	Precipitación	0
85664	7	Sololá	717	San Juan la Laguna	12	San Juan la Laguna	10	Octubre	2023-10-27T00:00:00	2024-11-08T13:00:00	8	Radiación solar	629
85665	7	Sololá	717	San Juan la Laguna	12	San Juan la Laguna	10	Octubre	2023-10-27T00:00:00	2024-11-08T14:00:00	2	Temperatura media	23.5
85666	7	Sololá	717	San Juan la Laguna	12	San Juan la Laguna	10	Octubre	2023-10-27T00:00:00	2024-11-08T14:00:00	4	Temperatura máxima	26.1
85667	7	Sololá	717	San Juan la Laguna	12	San Juan la Laguna	10	Octubre	2023-10-27T00:00:00	2024-11-08T14:00:00	3	Temperatura mínima	23.5
85668	7	Sololá	717	San Juan la Laguna	12	San Juan la Laguna	10	Octubre	2023-10-27T00:00:00	2024-11-08T14:00:00	5	Humedad	66
85669	7	Sololá	717	San Juan la Laguna	12	San Juan la Laguna	10	Octubre	2023-10-27T00:00:00	2024-11-08T14:00:00	6	Velocidad del viento	1.6
85670	7	Sololá	717	San Juan la Laguna	12	San Juan la Laguna	10	Octubre	2023-10-27T00:00:00	2024-11-08T14:00:00	7	Dirección del viento	1.61
85671	7	Sololá	717	San Juan la Laguna	12	San Juan la Laguna	10	Octubre	2023-10-27T00:00:00	2024-11-08T14:00:00	1	Precipitación	0
85672	7	Sololá	717	San Juan la Laguna	12	San Juan la Laguna	10	Octubre	2023-10-27T00:00:00	2024-11-08T14:00:00	8	Radiación solar	480
85673	7	Sololá	717	San Juan la Laguna	12	San Juan la Laguna	10	Octubre	2023-10-27T00:00:00	2024-11-08T15:00:00	2	Temperatura media	23.1
85674	7	Sololá	717	San Juan la Laguna	12	San Juan la Laguna	10	Octubre	2023-10-27T00:00:00	2024-11-08T15:00:00	4	Temperatura máxima	23.6
85675	7	Sololá	717	San Juan la Laguna	12	San Juan la Laguna	10	Octubre	2023-10-27T00:00:00	2024-11-08T15:00:00	3	Temperatura mínima	21.8
85676	7	Sololá	717	San Juan la Laguna	12	San Juan la Laguna	10	Octubre	2023-10-27T00:00:00	2024-11-08T15:00:00	5	Humedad	65
85677	7	Sololá	717	San Juan la Laguna	12	San Juan la Laguna	10	Octubre	2023-10-27T00:00:00	2024-11-08T15:00:00	6	Velocidad del viento	1.6
85678	7	Sololá	717	San Juan la Laguna	12	San Juan la Laguna	10	Octubre	2023-10-27T00:00:00	2024-11-08T15:00:00	7	Dirección del viento	1.61
85679	7	Sololá	717	San Juan la Laguna	12	San Juan la Laguna	10	Octubre	2023-10-27T00:00:00	2024-11-08T15:00:00	1	Precipitación	0
85680	7	Sololá	717	San Juan la Laguna	12	San Juan la Laguna	10	Octubre	2023-10-27T00:00:00	2024-11-08T15:00:00	8	Radiación solar	359
85681	7	Sololá	717	San Juan la Laguna	12	San Juan la Laguna	10	Octubre	2023-10-27T00:00:00	2024-11-08T16:00:00	2	Temperatura media	22.8
85682	7	Sololá	717	San Juan la Laguna	12	San Juan la Laguna	10	Octubre	2023-10-27T00:00:00	2024-11-08T16:00:00	4	Temperatura máxima	23.2
85683	7	Sololá	717	San Juan la Laguna	12	San Juan la Laguna	10	Octubre	2023-10-27T00:00:00	2024-11-08T16:00:00	3	Temperatura mínima	22.1
85684	7	Sololá	717	San Juan la Laguna	12	San Juan la Laguna	10	Octubre	2023-10-27T00:00:00	2024-11-08T16:00:00	5	Humedad	65
85685	7	Sololá	717	San Juan la Laguna	12	San Juan la Laguna	10	Octubre	2023-10-27T00:00:00	2024-11-08T16:00:00	6	Velocidad del viento	0
85686	7	Sololá	717	San Juan la Laguna	12	San Juan la Laguna	10	Octubre	2023-10-27T00:00:00	2024-11-08T16:00:00	7	Dirección del viento	0
85687	7	Sololá	717	San Juan la Laguna	12	San Juan la Laguna	10	Octubre	2023-10-27T00:00:00	2024-11-08T16:00:00	1	Precipitación	0
85688	7	Sololá	717	San Juan la Laguna	12	San Juan la Laguna	10	Octubre	2023-10-27T00:00:00	2024-11-08T16:00:00	8	Radiación solar	272
85689	7	Sololá	717	San Juan la Laguna	12	San Juan la Laguna	10	Octubre	2023-10-27T00:00:00	2024-11-08T17:00:00	2	Temperatura media	22.2
85690	7	Sololá	717	San Juan la Laguna	12	San Juan la Laguna	10	Octubre	2023-10-27T00:00:00	2024-11-08T17:00:00	4	Temperatura máxima	22.8
85691	7	Sololá	717	San Juan la Laguna	12	San Juan la Laguna	10	Octubre	2023-10-27T00:00:00	2024-11-08T17:00:00	3	Temperatura mínima	21.9
85692	7	Sololá	717	San Juan la Laguna	12	San Juan la Laguna	10	Octubre	2023-10-27T00:00:00	2024-11-08T17:00:00	5	Humedad	69
85693	7	Sololá	717	San Juan la Laguna	12	San Juan la Laguna	10	Octubre	2023-10-27T00:00:00	2024-11-08T17:00:00	6	Velocidad del viento	0
85694	7	Sololá	717	San Juan la Laguna	12	San Juan la Laguna	10	Octubre	2023-10-27T00:00:00	2024-11-08T17:00:00	7	Dirección del viento	0
85695	7	Sololá	717	San Juan la Laguna	12	San Juan la Laguna	10	Octubre	2023-10-27T00:00:00	2024-11-08T17:00:00	1	Precipitación	0
85696	7	Sololá	717	San Juan la Laguna	12	San Juan la Laguna	10	Octubre	2023-10-27T00:00:00	2024-11-08T17:00:00	8	Radiación solar	96
85697	7	Sololá	717	San Juan la Laguna	12	San Juan la Laguna	10	Octubre	2023-10-27T00:00:00	2024-11-08T18:00:00	2	Temperatura media	21.3
85698	7	Sololá	717	San Juan la Laguna	12	San Juan la Laguna	10	Octubre	2023-10-27T00:00:00	2024-11-08T18:00:00	4	Temperatura máxima	22.2
85699	7	Sololá	717	San Juan la Laguna	12	San Juan la Laguna	10	Octubre	2023-10-27T00:00:00	2024-11-08T18:00:00	3	Temperatura mínima	21.3
85700	7	Sololá	717	San Juan la Laguna	12	San Juan la Laguna	10	Octubre	2023-10-27T00:00:00	2024-11-08T18:00:00	5	Humedad	72
85701	7	Sololá	717	San Juan la Laguna	12	San Juan la Laguna	10	Octubre	2023-10-27T00:00:00	2024-11-08T18:00:00	6	Velocidad del viento	0
85702	7	Sololá	717	San Juan la Laguna	12	San Juan la Laguna	10	Octubre	2023-10-27T00:00:00	2024-11-08T18:00:00	7	Dirección del viento	0
85703	7	Sololá	717	San Juan la Laguna	12	San Juan la Laguna	10	Octubre	2023-10-27T00:00:00	2024-11-08T18:00:00	1	Precipitación	0
85704	7	Sololá	717	San Juan la Laguna	12	San Juan la Laguna	10	Octubre	2023-10-27T00:00:00	2024-11-08T18:00:00	8	Radiación solar	19
85705	7	Sololá	717	San Juan la Laguna	12	San Juan la Laguna	10	Octubre	2023-10-27T00:00:00	2024-11-08T19:00:00	2	Temperatura media	20.6
85706	7	Sololá	717	San Juan la Laguna	12	San Juan la Laguna	10	Octubre	2023-10-27T00:00:00	2024-11-08T19:00:00	4	Temperatura máxima	21.3
85707	7	Sololá	717	San Juan la Laguna	12	San Juan la Laguna	10	Octubre	2023-10-27T00:00:00	2024-11-08T19:00:00	3	Temperatura mínima	20.6
85708	7	Sololá	717	San Juan la Laguna	12	San Juan la Laguna	10	Octubre	2023-10-27T00:00:00	2024-11-08T19:00:00	5	Humedad	75
85709	7	Sololá	717	San Juan la Laguna	12	San Juan la Laguna	10	Octubre	2023-10-27T00:00:00	2024-11-08T19:00:00	6	Velocidad del viento	0
85710	7	Sololá	717	San Juan la Laguna	12	San Juan la Laguna	10	Octubre	2023-10-27T00:00:00	2024-11-08T19:00:00	7	Dirección del viento	0
85711	7	Sololá	717	San Juan la Laguna	12	San Juan la Laguna	10	Octubre	2023-10-27T00:00:00	2024-11-08T19:00:00	1	Precipitación	0
85712	7	Sololá	717	San Juan la Laguna	12	San Juan la Laguna	10	Octubre	2023-10-27T00:00:00	2024-11-08T19:00:00	8	Radiación solar	0
85713	7	Sololá	717	San Juan la Laguna	12	San Juan la Laguna	10	Octubre	2023-10-27T00:00:00	2024-11-08T20:00:00	2	Temperatura media	20.7
85714	7	Sololá	717	San Juan la Laguna	12	San Juan la Laguna	10	Octubre	2023-10-27T00:00:00	2024-11-08T20:00:00	4	Temperatura máxima	20.9
85715	7	Sololá	717	San Juan la Laguna	12	San Juan la Laguna	10	Octubre	2023-10-27T00:00:00	2024-11-08T20:00:00	3	Temperatura mínima	20.4
85716	7	Sololá	717	San Juan la Laguna	12	San Juan la Laguna	10	Octubre	2023-10-27T00:00:00	2024-11-08T20:00:00	5	Humedad	76
85717	7	Sololá	717	San Juan la Laguna	12	San Juan la Laguna	10	Octubre	2023-10-27T00:00:00	2024-11-08T20:00:00	6	Velocidad del viento	0
85718	7	Sololá	717	San Juan la Laguna	12	San Juan la Laguna	10	Octubre	2023-10-27T00:00:00	2024-11-08T20:00:00	7	Dirección del viento	0
85719	7	Sololá	717	San Juan la Laguna	12	San Juan la Laguna	10	Octubre	2023-10-27T00:00:00	2024-11-08T20:00:00	1	Precipitación	0
85720	7	Sololá	717	San Juan la Laguna	12	San Juan la Laguna	10	Octubre	2023-10-27T00:00:00	2024-11-08T20:00:00	8	Radiación solar	0
85721	7	Sololá	717	San Juan la Laguna	12	San Juan la Laguna	10	Octubre	2023-10-27T00:00:00	2024-11-08T21:00:00	2	Temperatura media	20.3
85722	7	Sololá	717	San Juan la Laguna	12	San Juan la Laguna	10	Octubre	2023-10-27T00:00:00	2024-11-08T21:00:00	4	Temperatura máxima	20.7
85723	7	Sololá	717	San Juan la Laguna	12	San Juan la Laguna	10	Octubre	2023-10-27T00:00:00	2024-11-08T21:00:00	3	Temperatura mínima	19.9
85724	7	Sololá	717	San Juan la Laguna	12	San Juan la Laguna	10	Octubre	2023-10-27T00:00:00	2024-11-08T21:00:00	5	Humedad	74
85725	7	Sololá	717	San Juan la Laguna	12	San Juan la Laguna	10	Octubre	2023-10-27T00:00:00	2024-11-08T21:00:00	6	Velocidad del viento	1.6
85726	7	Sololá	717	San Juan la Laguna	12	San Juan la Laguna	10	Octubre	2023-10-27T00:00:00	2024-11-08T21:00:00	7	Dirección del viento	1.61
85727	7	Sololá	717	San Juan la Laguna	12	San Juan la Laguna	10	Octubre	2023-10-27T00:00:00	2024-11-08T21:00:00	1	Precipitación	0
85728	7	Sololá	717	San Juan la Laguna	12	San Juan la Laguna	10	Octubre	2023-10-27T00:00:00	2024-11-08T21:00:00	8	Radiación solar	0
85729	7	Sololá	717	San Juan la Laguna	12	San Juan la Laguna	10	Octubre	2023-10-27T00:00:00	2024-11-08T22:00:00	2	Temperatura media	17.9
85730	7	Sololá	717	San Juan la Laguna	12	San Juan la Laguna	10	Octubre	2023-10-27T00:00:00	2024-11-08T22:00:00	4	Temperatura máxima	20.4
85731	7	Sololá	717	San Juan la Laguna	12	San Juan la Laguna	10	Octubre	2023-10-27T00:00:00	2024-11-08T22:00:00	3	Temperatura mínima	17.9
85732	7	Sololá	717	San Juan la Laguna	12	San Juan la Laguna	10	Octubre	2023-10-27T00:00:00	2024-11-08T22:00:00	5	Humedad	84
85733	7	Sololá	717	San Juan la Laguna	12	San Juan la Laguna	10	Octubre	2023-10-27T00:00:00	2024-11-08T22:00:00	6	Velocidad del viento	0
85734	7	Sololá	717	San Juan la Laguna	12	San Juan la Laguna	10	Octubre	2023-10-27T00:00:00	2024-11-08T22:00:00	7	Dirección del viento	0
85735	7	Sololá	717	San Juan la Laguna	12	San Juan la Laguna	10	Octubre	2023-10-27T00:00:00	2024-11-08T22:00:00	1	Precipitación	0
85736	7	Sololá	717	San Juan la Laguna	12	San Juan la Laguna	10	Octubre	2023-10-27T00:00:00	2024-11-08T22:00:00	8	Radiación solar	0
85737	7	Sololá	717	San Juan la Laguna	12	San Juan la Laguna	10	Octubre	2023-10-27T00:00:00	2024-11-08T23:00:00	2	Temperatura media	18.6
85738	7	Sololá	717	San Juan la Laguna	12	San Juan la Laguna	10	Octubre	2023-10-27T00:00:00	2024-11-08T23:00:00	4	Temperatura máxima	18.7
85739	7	Sololá	717	San Juan la Laguna	12	San Juan la Laguna	10	Octubre	2023-10-27T00:00:00	2024-11-08T23:00:00	3	Temperatura mínima	17.7
85740	7	Sololá	717	San Juan la Laguna	12	San Juan la Laguna	10	Octubre	2023-10-27T00:00:00	2024-11-08T23:00:00	5	Humedad	81
85741	7	Sololá	717	San Juan la Laguna	12	San Juan la Laguna	10	Octubre	2023-10-27T00:00:00	2024-11-08T23:00:00	6	Velocidad del viento	0
85742	7	Sololá	717	San Juan la Laguna	12	San Juan la Laguna	10	Octubre	2023-10-27T00:00:00	2024-11-08T23:00:00	7	Dirección del viento	0
85743	7	Sololá	717	San Juan la Laguna	12	San Juan la Laguna	10	Octubre	2023-10-27T00:00:00	2024-11-08T23:00:00	1	Precipitación	0
85744	7	Sololá	717	San Juan la Laguna	12	San Juan la Laguna	10	Octubre	2023-10-27T00:00:00	2024-11-08T23:00:00	8	Radiación solar	0
85745	7	Sololá	717	San Juan la Laguna	12	San Juan la Laguna	10	Octubre	2023-10-28T00:00:00	2024-11-08T00:00:00	2	Temperatura media	18.9
85746	7	Sololá	717	San Juan la Laguna	12	San Juan la Laguna	10	Octubre	2023-10-28T00:00:00	2024-11-08T00:00:00	4	Temperatura máxima	18.9
85747	7	Sololá	717	San Juan la Laguna	12	San Juan la Laguna	10	Octubre	2023-10-28T00:00:00	2024-11-08T00:00:00	3	Temperatura mínima	18.3
85748	7	Sololá	717	San Juan la Laguna	12	San Juan la Laguna	10	Octubre	2023-10-28T00:00:00	2024-11-08T00:00:00	5	Humedad	81
85749	7	Sololá	717	San Juan la Laguna	12	San Juan la Laguna	10	Octubre	2023-10-28T00:00:00	2024-11-08T00:00:00	6	Velocidad del viento	0
85750	7	Sololá	717	San Juan la Laguna	12	San Juan la Laguna	10	Octubre	2023-10-28T00:00:00	2024-11-08T00:00:00	7	Dirección del viento	0
85751	7	Sololá	717	San Juan la Laguna	12	San Juan la Laguna	10	Octubre	2023-10-28T00:00:00	2024-11-08T00:00:00	1	Precipitación	0
85752	7	Sololá	717	San Juan la Laguna	12	San Juan la Laguna	10	Octubre	2023-10-28T00:00:00	2024-11-08T00:00:00	8	Radiación solar	0
85753	7	Sololá	717	San Juan la Laguna	12	San Juan la Laguna	10	Octubre	2023-10-28T00:00:00	2024-11-08T01:00:00	2	Temperatura media	19.6
85754	7	Sololá	717	San Juan la Laguna	12	San Juan la Laguna	10	Octubre	2023-10-28T00:00:00	2024-11-08T01:00:00	4	Temperatura máxima	19.9
85755	7	Sololá	717	San Juan la Laguna	12	San Juan la Laguna	10	Octubre	2023-10-28T00:00:00	2024-11-08T01:00:00	3	Temperatura mínima	18.9
85756	7	Sololá	717	San Juan la Laguna	12	San Juan la Laguna	10	Octubre	2023-10-28T00:00:00	2024-11-08T01:00:00	5	Humedad	78
85757	7	Sololá	717	San Juan la Laguna	12	San Juan la Laguna	10	Octubre	2023-10-28T00:00:00	2024-11-08T01:00:00	6	Velocidad del viento	0
85758	7	Sololá	717	San Juan la Laguna	12	San Juan la Laguna	10	Octubre	2023-10-28T00:00:00	2024-11-08T01:00:00	7	Dirección del viento	0
85759	7	Sololá	717	San Juan la Laguna	12	San Juan la Laguna	10	Octubre	2023-10-28T00:00:00	2024-11-08T01:00:00	1	Precipitación	0
85760	7	Sololá	717	San Juan la Laguna	12	San Juan la Laguna	10	Octubre	2023-10-28T00:00:00	2024-11-08T01:00:00	8	Radiación solar	0
85761	7	Sololá	717	San Juan la Laguna	12	San Juan la Laguna	10	Octubre	2023-10-28T00:00:00	2024-11-08T02:00:00	2	Temperatura media	19.9
85762	7	Sololá	717	San Juan la Laguna	12	San Juan la Laguna	10	Octubre	2023-10-28T00:00:00	2024-11-08T02:00:00	4	Temperatura máxima	19.9
85763	7	Sololá	717	San Juan la Laguna	12	San Juan la Laguna	10	Octubre	2023-10-28T00:00:00	2024-11-08T02:00:00	3	Temperatura mínima	19.4
85764	7	Sololá	717	San Juan la Laguna	12	San Juan la Laguna	10	Octubre	2023-10-28T00:00:00	2024-11-08T02:00:00	5	Humedad	73
85765	7	Sololá	717	San Juan la Laguna	12	San Juan la Laguna	10	Octubre	2023-10-28T00:00:00	2024-11-08T02:00:00	6	Velocidad del viento	0
85766	7	Sololá	717	San Juan la Laguna	12	San Juan la Laguna	10	Octubre	2023-10-28T00:00:00	2024-11-08T02:00:00	7	Dirección del viento	0
85767	7	Sololá	717	San Juan la Laguna	12	San Juan la Laguna	10	Octubre	2023-10-28T00:00:00	2024-11-08T02:00:00	1	Precipitación	0
85768	7	Sololá	717	San Juan la Laguna	12	San Juan la Laguna	10	Octubre	2023-10-28T00:00:00	2024-11-08T02:00:00	8	Radiación solar	0
85769	7	Sololá	717	San Juan la Laguna	12	San Juan la Laguna	10	Octubre	2023-10-28T00:00:00	2024-11-08T03:00:00	2	Temperatura media	20.4
85770	7	Sololá	717	San Juan la Laguna	12	San Juan la Laguna	10	Octubre	2023-10-28T00:00:00	2024-11-08T03:00:00	4	Temperatura máxima	20.4
85771	7	Sololá	717	San Juan la Laguna	12	San Juan la Laguna	10	Octubre	2023-10-28T00:00:00	2024-11-08T03:00:00	3	Temperatura mínima	19.9
85772	7	Sololá	717	San Juan la Laguna	12	San Juan la Laguna	10	Octubre	2023-10-28T00:00:00	2024-11-08T03:00:00	5	Humedad	70
85773	7	Sololá	717	San Juan la Laguna	12	San Juan la Laguna	10	Octubre	2023-10-28T00:00:00	2024-11-08T03:00:00	6	Velocidad del viento	1.6
85774	7	Sololá	717	San Juan la Laguna	12	San Juan la Laguna	10	Octubre	2023-10-28T00:00:00	2024-11-08T03:00:00	7	Dirección del viento	1.61
85775	7	Sololá	717	San Juan la Laguna	12	San Juan la Laguna	10	Octubre	2023-10-28T00:00:00	2024-11-08T03:00:00	1	Precipitación	0
85776	7	Sololá	717	San Juan la Laguna	12	San Juan la Laguna	10	Octubre	2023-10-28T00:00:00	2024-11-08T03:00:00	8	Radiación solar	0
85777	7	Sololá	717	San Juan la Laguna	12	San Juan la Laguna	10	Octubre	2023-10-28T00:00:00	2024-11-08T04:00:00	2	Temperatura media	19.8
85778	7	Sololá	717	San Juan la Laguna	12	San Juan la Laguna	10	Octubre	2023-10-28T00:00:00	2024-11-08T04:00:00	4	Temperatura máxima	20.7
85779	7	Sololá	717	San Juan la Laguna	12	San Juan la Laguna	10	Octubre	2023-10-28T00:00:00	2024-11-08T04:00:00	3	Temperatura mínima	19.7
85780	7	Sololá	717	San Juan la Laguna	12	San Juan la Laguna	10	Octubre	2023-10-28T00:00:00	2024-11-08T04:00:00	5	Humedad	74
85781	7	Sololá	717	San Juan la Laguna	12	San Juan la Laguna	10	Octubre	2023-10-28T00:00:00	2024-11-08T04:00:00	6	Velocidad del viento	1.6
85782	7	Sololá	717	San Juan la Laguna	12	San Juan la Laguna	10	Octubre	2023-10-28T00:00:00	2024-11-08T04:00:00	7	Dirección del viento	1.61
85783	7	Sololá	717	San Juan la Laguna	12	San Juan la Laguna	10	Octubre	2023-10-28T00:00:00	2024-11-08T04:00:00	1	Precipitación	0
85784	7	Sololá	717	San Juan la Laguna	12	San Juan la Laguna	10	Octubre	2023-10-28T00:00:00	2024-11-08T04:00:00	8	Radiación solar	0
85785	7	Sololá	717	San Juan la Laguna	12	San Juan la Laguna	10	Octubre	2023-10-28T00:00:00	2024-11-08T05:00:00	2	Temperatura media	19.4
85786	7	Sololá	717	San Juan la Laguna	12	San Juan la Laguna	10	Octubre	2023-10-28T00:00:00	2024-11-08T05:00:00	4	Temperatura máxima	19.8
85787	7	Sololá	717	San Juan la Laguna	12	San Juan la Laguna	10	Octubre	2023-10-28T00:00:00	2024-11-08T05:00:00	3	Temperatura mínima	19.4
85788	7	Sololá	717	San Juan la Laguna	12	San Juan la Laguna	10	Octubre	2023-10-28T00:00:00	2024-11-08T05:00:00	5	Humedad	75
85789	7	Sololá	717	San Juan la Laguna	12	San Juan la Laguna	10	Octubre	2023-10-28T00:00:00	2024-11-08T05:00:00	6	Velocidad del viento	0
85790	7	Sololá	717	San Juan la Laguna	12	San Juan la Laguna	10	Octubre	2023-10-28T00:00:00	2024-11-08T05:00:00	7	Dirección del viento	0
85791	7	Sololá	717	San Juan la Laguna	12	San Juan la Laguna	10	Octubre	2023-10-28T00:00:00	2024-11-08T05:00:00	1	Precipitación	0
85792	7	Sololá	717	San Juan la Laguna	12	San Juan la Laguna	10	Octubre	2023-10-28T00:00:00	2024-11-08T05:00:00	8	Radiación solar	0
85793	7	Sololá	717	San Juan la Laguna	12	San Juan la Laguna	10	Octubre	2023-10-28T00:00:00	2024-11-08T06:00:00	2	Temperatura media	18.8
85794	7	Sololá	717	San Juan la Laguna	12	San Juan la Laguna	10	Octubre	2023-10-28T00:00:00	2024-11-08T06:00:00	4	Temperatura máxima	19.4
85795	7	Sololá	717	San Juan la Laguna	12	San Juan la Laguna	10	Octubre	2023-10-28T00:00:00	2024-11-08T06:00:00	3	Temperatura mínima	18.8
85796	7	Sololá	717	San Juan la Laguna	12	San Juan la Laguna	10	Octubre	2023-10-28T00:00:00	2024-11-08T06:00:00	5	Humedad	74
85797	7	Sololá	717	San Juan la Laguna	12	San Juan la Laguna	10	Octubre	2023-10-28T00:00:00	2024-11-08T06:00:00	6	Velocidad del viento	0
85798	7	Sololá	717	San Juan la Laguna	12	San Juan la Laguna	10	Octubre	2023-10-28T00:00:00	2024-11-08T06:00:00	7	Dirección del viento	0
85799	7	Sololá	717	San Juan la Laguna	12	San Juan la Laguna	10	Octubre	2023-10-28T00:00:00	2024-11-08T06:00:00	1	Precipitación	0
85800	7	Sololá	717	San Juan la Laguna	12	San Juan la Laguna	10	Octubre	2023-10-28T00:00:00	2024-11-08T06:00:00	8	Radiación solar	0
85801	7	Sololá	717	San Juan la Laguna	12	San Juan la Laguna	10	Octubre	2023-10-28T00:00:00	2024-11-08T07:00:00	2	Temperatura media	19.5
85802	7	Sololá	717	San Juan la Laguna	12	San Juan la Laguna	10	Octubre	2023-10-28T00:00:00	2024-11-08T07:00:00	4	Temperatura máxima	19.5
85803	7	Sololá	717	San Juan la Laguna	12	San Juan la Laguna	10	Octubre	2023-10-28T00:00:00	2024-11-08T07:00:00	3	Temperatura mínima	18.8
85804	7	Sololá	717	San Juan la Laguna	12	San Juan la Laguna	10	Octubre	2023-10-28T00:00:00	2024-11-08T07:00:00	5	Humedad	69
85805	7	Sololá	717	San Juan la Laguna	12	San Juan la Laguna	10	Octubre	2023-10-28T00:00:00	2024-11-08T07:00:00	6	Velocidad del viento	0
85806	7	Sololá	717	San Juan la Laguna	12	San Juan la Laguna	10	Octubre	2023-10-28T00:00:00	2024-11-08T07:00:00	7	Dirección del viento	0
85807	7	Sololá	717	San Juan la Laguna	12	San Juan la Laguna	10	Octubre	2023-10-28T00:00:00	2024-11-08T07:00:00	1	Precipitación	0
85808	7	Sololá	717	San Juan la Laguna	12	San Juan la Laguna	10	Octubre	2023-10-28T00:00:00	2024-11-08T07:00:00	8	Radiación solar	48
85809	7	Sololá	717	San Juan la Laguna	12	San Juan la Laguna	10	Octubre	2023-10-28T00:00:00	2024-11-08T08:00:00	2	Temperatura media	21.1
85810	7	Sololá	717	San Juan la Laguna	12	San Juan la Laguna	10	Octubre	2023-10-28T00:00:00	2024-11-08T08:00:00	4	Temperatura máxima	21.1
85811	7	Sololá	717	San Juan la Laguna	12	San Juan la Laguna	10	Octubre	2023-10-28T00:00:00	2024-11-08T08:00:00	3	Temperatura mínima	19.5
85812	7	Sololá	717	San Juan la Laguna	12	San Juan la Laguna	10	Octubre	2023-10-28T00:00:00	2024-11-08T08:00:00	5	Humedad	65
85813	7	Sololá	717	San Juan la Laguna	12	San Juan la Laguna	10	Octubre	2023-10-28T00:00:00	2024-11-08T08:00:00	6	Velocidad del viento	0
85814	7	Sololá	717	San Juan la Laguna	12	San Juan la Laguna	10	Octubre	2023-10-28T00:00:00	2024-11-08T08:00:00	7	Dirección del viento	0
85815	7	Sololá	717	San Juan la Laguna	12	San Juan la Laguna	10	Octubre	2023-10-28T00:00:00	2024-11-08T08:00:00	1	Precipitación	0
85816	7	Sololá	717	San Juan la Laguna	12	San Juan la Laguna	10	Octubre	2023-10-28T00:00:00	2024-11-08T08:00:00	8	Radiación solar	234
85817	7	Sololá	717	San Juan la Laguna	12	San Juan la Laguna	10	Octubre	2023-10-28T00:00:00	2024-11-08T09:00:00	2	Temperatura media	22.1
85818	7	Sololá	717	San Juan la Laguna	12	San Juan la Laguna	10	Octubre	2023-10-28T00:00:00	2024-11-08T09:00:00	4	Temperatura máxima	22.3
85819	7	Sololá	717	San Juan la Laguna	12	San Juan la Laguna	10	Octubre	2023-10-28T00:00:00	2024-11-08T09:00:00	3	Temperatura mínima	21.1
85820	7	Sololá	717	San Juan la Laguna	12	San Juan la Laguna	10	Octubre	2023-10-28T00:00:00	2024-11-08T09:00:00	5	Humedad	64
85821	7	Sololá	717	San Juan la Laguna	12	San Juan la Laguna	10	Octubre	2023-10-28T00:00:00	2024-11-08T09:00:00	6	Velocidad del viento	3.2
85822	7	Sololá	717	San Juan la Laguna	12	San Juan la Laguna	10	Octubre	2023-10-28T00:00:00	2024-11-08T09:00:00	7	Dirección del viento	3.22
85823	7	Sololá	717	San Juan la Laguna	12	San Juan la Laguna	10	Octubre	2023-10-28T00:00:00	2024-11-08T09:00:00	1	Precipitación	0
85824	7	Sololá	717	San Juan la Laguna	12	San Juan la Laguna	10	Octubre	2023-10-28T00:00:00	2024-11-08T09:00:00	8	Radiación solar	470
85825	7	Sololá	717	San Juan la Laguna	12	San Juan la Laguna	10	Octubre	2023-10-28T00:00:00	2024-11-08T10:00:00	2	Temperatura media	23.3
85826	7	Sololá	717	San Juan la Laguna	12	San Juan la Laguna	10	Octubre	2023-10-28T00:00:00	2024-11-08T10:00:00	4	Temperatura máxima	23.4
85827	7	Sololá	717	San Juan la Laguna	12	San Juan la Laguna	10	Octubre	2023-10-28T00:00:00	2024-11-08T10:00:00	3	Temperatura mínima	21
85828	7	Sololá	717	San Juan la Laguna	12	San Juan la Laguna	10	Octubre	2023-10-28T00:00:00	2024-11-08T10:00:00	5	Humedad	61
85829	7	Sololá	717	San Juan la Laguna	12	San Juan la Laguna	10	Octubre	2023-10-28T00:00:00	2024-11-08T10:00:00	6	Velocidad del viento	3.2
85830	7	Sololá	717	San Juan la Laguna	12	San Juan la Laguna	10	Octubre	2023-10-28T00:00:00	2024-11-08T10:00:00	7	Dirección del viento	3.22
85831	7	Sololá	717	San Juan la Laguna	12	San Juan la Laguna	10	Octubre	2023-10-28T00:00:00	2024-11-08T10:00:00	1	Precipitación	0
85832	7	Sololá	717	San Juan la Laguna	12	San Juan la Laguna	10	Octubre	2023-10-28T00:00:00	2024-11-08T10:00:00	8	Radiación solar	502
85833	7	Sololá	717	San Juan la Laguna	12	San Juan la Laguna	10	Octubre	2023-10-28T00:00:00	2024-11-08T11:00:00	2	Temperatura media	24.1
85834	7	Sololá	717	San Juan la Laguna	12	San Juan la Laguna	10	Octubre	2023-10-28T00:00:00	2024-11-08T11:00:00	4	Temperatura máxima	24.2
85835	7	Sololá	717	San Juan la Laguna	12	San Juan la Laguna	10	Octubre	2023-10-28T00:00:00	2024-11-08T11:00:00	3	Temperatura mínima	23.3
85836	7	Sololá	717	San Juan la Laguna	12	San Juan la Laguna	10	Octubre	2023-10-28T00:00:00	2024-11-08T11:00:00	5	Humedad	60
85837	7	Sololá	717	San Juan la Laguna	12	San Juan la Laguna	10	Octubre	2023-10-28T00:00:00	2024-11-08T11:00:00	6	Velocidad del viento	3.2
85838	7	Sololá	717	San Juan la Laguna	12	San Juan la Laguna	10	Octubre	2023-10-28T00:00:00	2024-11-08T11:00:00	7	Dirección del viento	3.22
85839	7	Sololá	717	San Juan la Laguna	12	San Juan la Laguna	10	Octubre	2023-10-28T00:00:00	2024-11-08T11:00:00	1	Precipitación	0
85840	7	Sololá	717	San Juan la Laguna	12	San Juan la Laguna	10	Octubre	2023-10-28T00:00:00	2024-11-08T11:00:00	8	Radiación solar	720
85841	7	Sololá	717	San Juan la Laguna	12	San Juan la Laguna	10	Octubre	2023-10-28T00:00:00	2024-11-08T12:00:00	2	Temperatura media	23.9
85842	7	Sololá	717	San Juan la Laguna	12	San Juan la Laguna	10	Octubre	2023-10-28T00:00:00	2024-11-08T12:00:00	4	Temperatura máxima	24.8
85843	7	Sololá	717	San Juan la Laguna	12	San Juan la Laguna	10	Octubre	2023-10-28T00:00:00	2024-11-08T12:00:00	3	Temperatura mínima	23.9
85844	7	Sololá	717	San Juan la Laguna	12	San Juan la Laguna	10	Octubre	2023-10-28T00:00:00	2024-11-08T12:00:00	5	Humedad	62
85845	7	Sololá	717	San Juan la Laguna	12	San Juan la Laguna	10	Octubre	2023-10-28T00:00:00	2024-11-08T12:00:00	6	Velocidad del viento	3.2
85846	7	Sololá	717	San Juan la Laguna	12	San Juan la Laguna	10	Octubre	2023-10-28T00:00:00	2024-11-08T12:00:00	7	Dirección del viento	3.22
85847	7	Sololá	717	San Juan la Laguna	12	San Juan la Laguna	10	Octubre	2023-10-28T00:00:00	2024-11-08T12:00:00	1	Precipitación	0
85848	7	Sololá	717	San Juan la Laguna	12	San Juan la Laguna	10	Octubre	2023-10-28T00:00:00	2024-11-08T12:00:00	8	Radiación solar	818
85849	7	Sololá	717	San Juan la Laguna	12	San Juan la Laguna	10	Octubre	2023-10-28T00:00:00	2024-11-08T13:00:00	2	Temperatura media	24.6
85850	7	Sololá	717	San Juan la Laguna	12	San Juan la Laguna	10	Octubre	2023-10-28T00:00:00	2024-11-08T13:00:00	4	Temperatura máxima	24.7
85851	7	Sololá	717	San Juan la Laguna	12	San Juan la Laguna	10	Octubre	2023-10-28T00:00:00	2024-11-08T13:00:00	3	Temperatura mínima	23.7
85852	7	Sololá	717	San Juan la Laguna	12	San Juan la Laguna	10	Octubre	2023-10-28T00:00:00	2024-11-08T13:00:00	5	Humedad	60
85853	7	Sololá	717	San Juan la Laguna	12	San Juan la Laguna	10	Octubre	2023-10-28T00:00:00	2024-11-08T13:00:00	6	Velocidad del viento	3.2
85854	7	Sololá	717	San Juan la Laguna	12	San Juan la Laguna	10	Octubre	2023-10-28T00:00:00	2024-11-08T13:00:00	7	Dirección del viento	3.22
85855	7	Sololá	717	San Juan la Laguna	12	San Juan la Laguna	10	Octubre	2023-10-28T00:00:00	2024-11-08T13:00:00	1	Precipitación	0
85856	7	Sololá	717	San Juan la Laguna	12	San Juan la Laguna	10	Octubre	2023-10-28T00:00:00	2024-11-08T13:00:00	8	Radiación solar	727
85857	7	Sololá	717	San Juan la Laguna	12	San Juan la Laguna	10	Octubre	2023-10-28T00:00:00	2024-11-08T14:00:00	2	Temperatura media	24.7
85858	7	Sololá	717	San Juan la Laguna	12	San Juan la Laguna	10	Octubre	2023-10-28T00:00:00	2024-11-08T14:00:00	4	Temperatura máxima	25.6
85859	7	Sololá	717	San Juan la Laguna	12	San Juan la Laguna	10	Octubre	2023-10-28T00:00:00	2024-11-08T14:00:00	3	Temperatura mínima	24.5
85860	7	Sololá	717	San Juan la Laguna	12	San Juan la Laguna	10	Octubre	2023-10-28T00:00:00	2024-11-08T14:00:00	5	Humedad	57
85861	7	Sololá	717	San Juan la Laguna	12	San Juan la Laguna	10	Octubre	2023-10-28T00:00:00	2024-11-08T14:00:00	6	Velocidad del viento	3.2
85862	7	Sololá	717	San Juan la Laguna	12	San Juan la Laguna	10	Octubre	2023-10-28T00:00:00	2024-11-08T14:00:00	7	Dirección del viento	3.22
85863	7	Sololá	717	San Juan la Laguna	12	San Juan la Laguna	10	Octubre	2023-10-28T00:00:00	2024-11-08T14:00:00	1	Precipitación	0
85864	7	Sololá	717	San Juan la Laguna	12	San Juan la Laguna	10	Octubre	2023-10-28T00:00:00	2024-11-08T14:00:00	8	Radiación solar	603
85865	7	Sololá	717	San Juan la Laguna	12	San Juan la Laguna	10	Octubre	2023-10-28T00:00:00	2024-11-08T15:00:00	2	Temperatura media	24.6
85866	7	Sololá	717	San Juan la Laguna	12	San Juan la Laguna	10	Octubre	2023-10-28T00:00:00	2024-11-08T15:00:00	4	Temperatura máxima	25
85867	7	Sololá	717	San Juan la Laguna	12	San Juan la Laguna	10	Octubre	2023-10-28T00:00:00	2024-11-08T15:00:00	3	Temperatura mínima	24.1
85868	7	Sololá	717	San Juan la Laguna	12	San Juan la Laguna	10	Octubre	2023-10-28T00:00:00	2024-11-08T15:00:00	5	Humedad	59
85869	7	Sololá	717	San Juan la Laguna	12	San Juan la Laguna	10	Octubre	2023-10-28T00:00:00	2024-11-08T15:00:00	6	Velocidad del viento	0
85870	7	Sololá	717	San Juan la Laguna	12	San Juan la Laguna	10	Octubre	2023-10-28T00:00:00	2024-11-08T15:00:00	7	Dirección del viento	0
85871	7	Sololá	717	San Juan la Laguna	12	San Juan la Laguna	10	Octubre	2023-10-28T00:00:00	2024-11-08T15:00:00	1	Precipitación	0
85872	7	Sololá	717	San Juan la Laguna	12	San Juan la Laguna	10	Octubre	2023-10-28T00:00:00	2024-11-08T15:00:00	8	Radiación solar	446
85873	7	Sololá	717	San Juan la Laguna	12	San Juan la Laguna	10	Octubre	2023-10-28T00:00:00	2024-11-08T16:00:00	2	Temperatura media	23.9
85874	7	Sololá	717	San Juan la Laguna	12	San Juan la Laguna	10	Octubre	2023-10-28T00:00:00	2024-11-08T16:00:00	4	Temperatura máxima	24.9
85875	7	Sololá	717	San Juan la Laguna	12	San Juan la Laguna	10	Octubre	2023-10-28T00:00:00	2024-11-08T16:00:00	3	Temperatura mínima	23.9
85876	7	Sololá	717	San Juan la Laguna	12	San Juan la Laguna	10	Octubre	2023-10-28T00:00:00	2024-11-08T16:00:00	5	Humedad	61
85877	7	Sololá	717	San Juan la Laguna	12	San Juan la Laguna	10	Octubre	2023-10-28T00:00:00	2024-11-08T16:00:00	6	Velocidad del viento	0
85878	7	Sololá	717	San Juan la Laguna	12	San Juan la Laguna	10	Octubre	2023-10-28T00:00:00	2024-11-08T16:00:00	7	Dirección del viento	0
85879	7	Sololá	717	San Juan la Laguna	12	San Juan la Laguna	10	Octubre	2023-10-28T00:00:00	2024-11-08T16:00:00	1	Precipitación	0
85880	7	Sololá	717	San Juan la Laguna	12	San Juan la Laguna	10	Octubre	2023-10-28T00:00:00	2024-11-08T16:00:00	8	Radiación solar	220
85881	7	Sololá	717	San Juan la Laguna	12	San Juan la Laguna	10	Octubre	2023-10-28T00:00:00	2024-11-08T17:00:00	2	Temperatura media	22.7
85882	7	Sololá	717	San Juan la Laguna	12	San Juan la Laguna	10	Octubre	2023-10-28T00:00:00	2024-11-08T17:00:00	4	Temperatura máxima	23.9
85883	7	Sololá	717	San Juan la Laguna	12	San Juan la Laguna	10	Octubre	2023-10-28T00:00:00	2024-11-08T17:00:00	3	Temperatura mínima	22.7
85884	7	Sololá	717	San Juan la Laguna	12	San Juan la Laguna	10	Octubre	2023-10-28T00:00:00	2024-11-08T17:00:00	5	Humedad	66
85885	7	Sololá	717	San Juan la Laguna	12	San Juan la Laguna	10	Octubre	2023-10-28T00:00:00	2024-11-08T17:00:00	6	Velocidad del viento	0
85886	7	Sololá	717	San Juan la Laguna	12	San Juan la Laguna	10	Octubre	2023-10-28T00:00:00	2024-11-08T17:00:00	7	Dirección del viento	0
85887	7	Sololá	717	San Juan la Laguna	12	San Juan la Laguna	10	Octubre	2023-10-28T00:00:00	2024-11-08T17:00:00	1	Precipitación	0
85888	7	Sololá	717	San Juan la Laguna	12	San Juan la Laguna	10	Octubre	2023-10-28T00:00:00	2024-11-08T17:00:00	8	Radiación solar	40
85889	7	Sololá	717	San Juan la Laguna	12	San Juan la Laguna	10	Octubre	2023-10-28T00:00:00	2024-11-08T18:00:00	2	Temperatura media	21.2
85890	7	Sololá	717	San Juan la Laguna	12	San Juan la Laguna	10	Octubre	2023-10-28T00:00:00	2024-11-08T18:00:00	4	Temperatura máxima	22.8
85891	7	Sololá	717	San Juan la Laguna	12	San Juan la Laguna	10	Octubre	2023-10-28T00:00:00	2024-11-08T18:00:00	3	Temperatura mínima	21.2
85892	7	Sololá	717	San Juan la Laguna	12	San Juan la Laguna	10	Octubre	2023-10-28T00:00:00	2024-11-08T18:00:00	5	Humedad	73
85893	7	Sololá	717	San Juan la Laguna	12	San Juan la Laguna	10	Octubre	2023-10-28T00:00:00	2024-11-08T18:00:00	6	Velocidad del viento	0
85894	7	Sololá	717	San Juan la Laguna	12	San Juan la Laguna	10	Octubre	2023-10-28T00:00:00	2024-11-08T18:00:00	7	Dirección del viento	0
85895	7	Sololá	717	San Juan la Laguna	12	San Juan la Laguna	10	Octubre	2023-10-28T00:00:00	2024-11-08T18:00:00	1	Precipitación	0
85896	7	Sololá	717	San Juan la Laguna	12	San Juan la Laguna	10	Octubre	2023-10-28T00:00:00	2024-11-08T18:00:00	8	Radiación solar	7
85897	7	Sololá	717	San Juan la Laguna	12	San Juan la Laguna	10	Octubre	2023-10-28T00:00:00	2024-11-08T19:00:00	2	Temperatura media	20.9
85898	7	Sololá	717	San Juan la Laguna	12	San Juan la Laguna	10	Octubre	2023-10-28T00:00:00	2024-11-08T19:00:00	4	Temperatura máxima	21.5
85899	7	Sololá	717	San Juan la Laguna	12	San Juan la Laguna	10	Octubre	2023-10-28T00:00:00	2024-11-08T19:00:00	3	Temperatura mínima	20.9
85900	7	Sololá	717	San Juan la Laguna	12	San Juan la Laguna	10	Octubre	2023-10-28T00:00:00	2024-11-08T19:00:00	5	Humedad	72
85901	7	Sololá	717	San Juan la Laguna	12	San Juan la Laguna	10	Octubre	2023-10-28T00:00:00	2024-11-08T19:00:00	6	Velocidad del viento	0
85902	7	Sololá	717	San Juan la Laguna	12	San Juan la Laguna	10	Octubre	2023-10-28T00:00:00	2024-11-08T19:00:00	7	Dirección del viento	0
85903	7	Sololá	717	San Juan la Laguna	12	San Juan la Laguna	10	Octubre	2023-10-28T00:00:00	2024-11-08T19:00:00	1	Precipitación	0
85904	7	Sololá	717	San Juan la Laguna	12	San Juan la Laguna	10	Octubre	2023-10-28T00:00:00	2024-11-08T19:00:00	8	Radiación solar	0
85905	7	Sololá	717	San Juan la Laguna	12	San Juan la Laguna	10	Octubre	2023-10-28T00:00:00	2024-11-08T20:00:00	2	Temperatura media	19.8
85906	7	Sololá	717	San Juan la Laguna	12	San Juan la Laguna	10	Octubre	2023-10-28T00:00:00	2024-11-08T20:00:00	4	Temperatura máxima	21.1
85907	7	Sololá	717	San Juan la Laguna	12	San Juan la Laguna	10	Octubre	2023-10-28T00:00:00	2024-11-08T20:00:00	3	Temperatura mínima	19.8
85908	7	Sololá	717	San Juan la Laguna	12	San Juan la Laguna	10	Octubre	2023-10-28T00:00:00	2024-11-08T20:00:00	5	Humedad	77
85909	7	Sololá	717	San Juan la Laguna	12	San Juan la Laguna	10	Octubre	2023-10-28T00:00:00	2024-11-08T20:00:00	6	Velocidad del viento	0
85910	7	Sololá	717	San Juan la Laguna	12	San Juan la Laguna	10	Octubre	2023-10-28T00:00:00	2024-11-08T20:00:00	7	Dirección del viento	0
85911	7	Sololá	717	San Juan la Laguna	12	San Juan la Laguna	10	Octubre	2023-10-28T00:00:00	2024-11-08T20:00:00	1	Precipitación	0
85912	7	Sololá	717	San Juan la Laguna	12	San Juan la Laguna	10	Octubre	2023-10-28T00:00:00	2024-11-08T20:00:00	8	Radiación solar	0
85913	7	Sololá	717	San Juan la Laguna	12	San Juan la Laguna	10	Octubre	2023-10-28T00:00:00	2024-11-08T21:00:00	2	Temperatura media	19.6
85914	7	Sololá	717	San Juan la Laguna	12	San Juan la Laguna	10	Octubre	2023-10-28T00:00:00	2024-11-08T21:00:00	4	Temperatura máxima	19.8
85915	7	Sololá	717	San Juan la Laguna	12	San Juan la Laguna	10	Octubre	2023-10-28T00:00:00	2024-11-08T21:00:00	3	Temperatura mínima	19.2
85916	7	Sololá	717	San Juan la Laguna	12	San Juan la Laguna	10	Octubre	2023-10-28T00:00:00	2024-11-08T21:00:00	5	Humedad	80
85917	7	Sololá	717	San Juan la Laguna	12	San Juan la Laguna	10	Octubre	2023-10-28T00:00:00	2024-11-08T21:00:00	6	Velocidad del viento	0
85918	7	Sololá	717	San Juan la Laguna	12	San Juan la Laguna	10	Octubre	2023-10-28T00:00:00	2024-11-08T21:00:00	7	Dirección del viento	0
85919	7	Sololá	717	San Juan la Laguna	12	San Juan la Laguna	10	Octubre	2023-10-28T00:00:00	2024-11-08T21:00:00	1	Precipitación	0
85920	7	Sololá	717	San Juan la Laguna	12	San Juan la Laguna	10	Octubre	2023-10-28T00:00:00	2024-11-08T21:00:00	8	Radiación solar	0
85921	7	Sololá	717	San Juan la Laguna	12	San Juan la Laguna	10	Octubre	2023-10-28T00:00:00	2024-11-08T22:00:00	2	Temperatura media	20.2
85922	7	Sololá	717	San Juan la Laguna	12	San Juan la Laguna	10	Octubre	2023-10-28T00:00:00	2024-11-08T22:00:00	4	Temperatura máxima	20.3
85923	7	Sololá	717	San Juan la Laguna	12	San Juan la Laguna	10	Octubre	2023-10-28T00:00:00	2024-11-08T22:00:00	3	Temperatura mínima	19.6
85924	7	Sololá	717	San Juan la Laguna	12	San Juan la Laguna	10	Octubre	2023-10-28T00:00:00	2024-11-08T22:00:00	5	Humedad	78
85925	7	Sololá	717	San Juan la Laguna	12	San Juan la Laguna	10	Octubre	2023-10-28T00:00:00	2024-11-08T22:00:00	6	Velocidad del viento	0
85926	7	Sololá	717	San Juan la Laguna	12	San Juan la Laguna	10	Octubre	2023-10-28T00:00:00	2024-11-08T22:00:00	7	Dirección del viento	0
85927	7	Sololá	717	San Juan la Laguna	12	San Juan la Laguna	10	Octubre	2023-10-28T00:00:00	2024-11-08T22:00:00	1	Precipitación	0
85928	7	Sololá	717	San Juan la Laguna	12	San Juan la Laguna	10	Octubre	2023-10-28T00:00:00	2024-11-08T22:00:00	8	Radiación solar	0
85929	7	Sololá	717	San Juan la Laguna	12	San Juan la Laguna	10	Octubre	2023-10-28T00:00:00	2024-11-08T23:00:00	2	Temperatura media	21.1
85930	7	Sololá	717	San Juan la Laguna	12	San Juan la Laguna	10	Octubre	2023-10-28T00:00:00	2024-11-08T23:00:00	4	Temperatura máxima	21.1
85931	7	Sololá	717	San Juan la Laguna	12	San Juan la Laguna	10	Octubre	2023-10-28T00:00:00	2024-11-08T23:00:00	3	Temperatura mínima	19.8
85932	7	Sololá	717	San Juan la Laguna	12	San Juan la Laguna	10	Octubre	2023-10-28T00:00:00	2024-11-08T23:00:00	5	Humedad	70
85933	7	Sololá	717	San Juan la Laguna	12	San Juan la Laguna	10	Octubre	2023-10-28T00:00:00	2024-11-08T23:00:00	6	Velocidad del viento	0
85934	7	Sololá	717	San Juan la Laguna	12	San Juan la Laguna	10	Octubre	2023-10-28T00:00:00	2024-11-08T23:00:00	7	Dirección del viento	0
85935	7	Sololá	717	San Juan la Laguna	12	San Juan la Laguna	10	Octubre	2023-10-28T00:00:00	2024-11-08T23:00:00	1	Precipitación	0
85936	7	Sololá	717	San Juan la Laguna	12	San Juan la Laguna	10	Octubre	2023-10-28T00:00:00	2024-11-08T23:00:00	8	Radiación solar	0
85937	7	Sololá	717	San Juan la Laguna	12	San Juan la Laguna	10	Octubre	2023-10-29T00:00:00	2024-11-08T00:00:00	2	Temperatura media	20.7
85938	7	Sololá	717	San Juan la Laguna	12	San Juan la Laguna	10	Octubre	2023-10-29T00:00:00	2024-11-08T00:00:00	4	Temperatura máxima	21.2
85939	7	Sololá	717	San Juan la Laguna	12	San Juan la Laguna	10	Octubre	2023-10-29T00:00:00	2024-11-08T00:00:00	3	Temperatura mínima	20.7
85940	7	Sololá	717	San Juan la Laguna	12	San Juan la Laguna	10	Octubre	2023-10-29T00:00:00	2024-11-08T00:00:00	5	Humedad	70
85941	7	Sololá	717	San Juan la Laguna	12	San Juan la Laguna	10	Octubre	2023-10-29T00:00:00	2024-11-08T00:00:00	6	Velocidad del viento	0
85942	7	Sololá	717	San Juan la Laguna	12	San Juan la Laguna	10	Octubre	2023-10-29T00:00:00	2024-11-08T00:00:00	7	Dirección del viento	0
85943	7	Sololá	717	San Juan la Laguna	12	San Juan la Laguna	10	Octubre	2023-10-29T00:00:00	2024-11-08T00:00:00	1	Precipitación	0
85944	7	Sololá	717	San Juan la Laguna	12	San Juan la Laguna	10	Octubre	2023-10-29T00:00:00	2024-11-08T00:00:00	8	Radiación solar	0
85945	7	Sololá	717	San Juan la Laguna	12	San Juan la Laguna	10	Octubre	2023-10-29T00:00:00	2024-11-08T01:00:00	2	Temperatura media	18.9
85946	7	Sololá	717	San Juan la Laguna	12	San Juan la Laguna	10	Octubre	2023-10-29T00:00:00	2024-11-08T01:00:00	4	Temperatura máxima	20.7
85947	7	Sololá	717	San Juan la Laguna	12	San Juan la Laguna	10	Octubre	2023-10-29T00:00:00	2024-11-08T01:00:00	3	Temperatura mínima	18.7
85948	7	Sololá	717	San Juan la Laguna	12	San Juan la Laguna	10	Octubre	2023-10-29T00:00:00	2024-11-08T01:00:00	5	Humedad	78
85949	7	Sololá	717	San Juan la Laguna	12	San Juan la Laguna	10	Octubre	2023-10-29T00:00:00	2024-11-08T01:00:00	6	Velocidad del viento	0
85950	7	Sololá	717	San Juan la Laguna	12	San Juan la Laguna	10	Octubre	2023-10-29T00:00:00	2024-11-08T01:00:00	7	Dirección del viento	0
85951	7	Sololá	717	San Juan la Laguna	12	San Juan la Laguna	10	Octubre	2023-10-29T00:00:00	2024-11-08T01:00:00	1	Precipitación	0
85952	7	Sololá	717	San Juan la Laguna	12	San Juan la Laguna	10	Octubre	2023-10-29T00:00:00	2024-11-08T01:00:00	8	Radiación solar	0
85953	7	Sololá	717	San Juan la Laguna	12	San Juan la Laguna	10	Octubre	2023-10-29T00:00:00	2024-11-08T02:00:00	2	Temperatura media	19.6
85954	7	Sololá	717	San Juan la Laguna	12	San Juan la Laguna	10	Octubre	2023-10-29T00:00:00	2024-11-08T02:00:00	4	Temperatura máxima	20.4
85955	7	Sololá	717	San Juan la Laguna	12	San Juan la Laguna	10	Octubre	2023-10-29T00:00:00	2024-11-08T02:00:00	3	Temperatura mínima	18.9
85956	7	Sololá	717	San Juan la Laguna	12	San Juan la Laguna	10	Octubre	2023-10-29T00:00:00	2024-11-08T02:00:00	5	Humedad	75
85957	7	Sololá	717	San Juan la Laguna	12	San Juan la Laguna	10	Octubre	2023-10-29T00:00:00	2024-11-08T02:00:00	6	Velocidad del viento	0
85958	7	Sololá	717	San Juan la Laguna	12	San Juan la Laguna	10	Octubre	2023-10-29T00:00:00	2024-11-08T02:00:00	7	Dirección del viento	0
85959	7	Sololá	717	San Juan la Laguna	12	San Juan la Laguna	10	Octubre	2023-10-29T00:00:00	2024-11-08T02:00:00	1	Precipitación	0
85960	7	Sololá	717	San Juan la Laguna	12	San Juan la Laguna	10	Octubre	2023-10-29T00:00:00	2024-11-08T02:00:00	8	Radiación solar	0
85961	7	Sololá	717	San Juan la Laguna	12	San Juan la Laguna	10	Octubre	2023-10-29T00:00:00	2024-11-08T03:00:00	2	Temperatura media	19.1
85962	7	Sololá	717	San Juan la Laguna	12	San Juan la Laguna	10	Octubre	2023-10-29T00:00:00	2024-11-08T03:00:00	4	Temperatura máxima	19.8
85963	7	Sololá	717	San Juan la Laguna	12	San Juan la Laguna	10	Octubre	2023-10-29T00:00:00	2024-11-08T03:00:00	3	Temperatura mínima	19.1
85964	7	Sololá	717	San Juan la Laguna	12	San Juan la Laguna	10	Octubre	2023-10-29T00:00:00	2024-11-08T03:00:00	5	Humedad	77
85965	7	Sololá	717	San Juan la Laguna	12	San Juan la Laguna	10	Octubre	2023-10-29T00:00:00	2024-11-08T03:00:00	6	Velocidad del viento	0
85966	7	Sololá	717	San Juan la Laguna	12	San Juan la Laguna	10	Octubre	2023-10-29T00:00:00	2024-11-08T03:00:00	7	Dirección del viento	0
85967	7	Sololá	717	San Juan la Laguna	12	San Juan la Laguna	10	Octubre	2023-10-29T00:00:00	2024-11-08T03:00:00	1	Precipitación	0
85968	7	Sololá	717	San Juan la Laguna	12	San Juan la Laguna	10	Octubre	2023-10-29T00:00:00	2024-11-08T03:00:00	8	Radiación solar	0
85969	7	Sololá	717	San Juan la Laguna	12	San Juan la Laguna	10	Octubre	2023-10-29T00:00:00	2024-11-08T04:00:00	2	Temperatura media	17.1
85970	7	Sololá	717	San Juan la Laguna	12	San Juan la Laguna	10	Octubre	2023-10-29T00:00:00	2024-11-08T04:00:00	4	Temperatura máxima	19.1
85971	7	Sololá	717	San Juan la Laguna	12	San Juan la Laguna	10	Octubre	2023-10-29T00:00:00	2024-11-08T04:00:00	3	Temperatura mínima	17
85972	7	Sololá	717	San Juan la Laguna	12	San Juan la Laguna	10	Octubre	2023-10-29T00:00:00	2024-11-08T04:00:00	5	Humedad	84
85973	7	Sololá	717	San Juan la Laguna	12	San Juan la Laguna	10	Octubre	2023-10-29T00:00:00	2024-11-08T04:00:00	6	Velocidad del viento	0
85974	7	Sololá	717	San Juan la Laguna	12	San Juan la Laguna	10	Octubre	2023-10-29T00:00:00	2024-11-08T04:00:00	7	Dirección del viento	0
85975	7	Sololá	717	San Juan la Laguna	12	San Juan la Laguna	10	Octubre	2023-10-29T00:00:00	2024-11-08T04:00:00	1	Precipitación	0
85976	7	Sololá	717	San Juan la Laguna	12	San Juan la Laguna	10	Octubre	2023-10-29T00:00:00	2024-11-08T04:00:00	8	Radiación solar	0
85977	7	Sololá	717	San Juan la Laguna	12	San Juan la Laguna	10	Octubre	2023-10-29T00:00:00	2024-11-08T05:00:00	2	Temperatura media	16.5
85978	7	Sololá	717	San Juan la Laguna	12	San Juan la Laguna	10	Octubre	2023-10-29T00:00:00	2024-11-08T05:00:00	4	Temperatura máxima	17.2
85979	7	Sololá	717	San Juan la Laguna	12	San Juan la Laguna	10	Octubre	2023-10-29T00:00:00	2024-11-08T05:00:00	3	Temperatura mínima	16.5
85980	7	Sololá	717	San Juan la Laguna	12	San Juan la Laguna	10	Octubre	2023-10-29T00:00:00	2024-11-08T05:00:00	5	Humedad	87
85981	7	Sololá	717	San Juan la Laguna	12	San Juan la Laguna	10	Octubre	2023-10-29T00:00:00	2024-11-08T05:00:00	6	Velocidad del viento	0
85982	7	Sololá	717	San Juan la Laguna	12	San Juan la Laguna	10	Octubre	2023-10-29T00:00:00	2024-11-08T05:00:00	7	Dirección del viento	0
85983	7	Sololá	717	San Juan la Laguna	12	San Juan la Laguna	10	Octubre	2023-10-29T00:00:00	2024-11-08T05:00:00	1	Precipitación	0
85984	7	Sololá	717	San Juan la Laguna	12	San Juan la Laguna	10	Octubre	2023-10-29T00:00:00	2024-11-08T05:00:00	8	Radiación solar	0
85985	7	Sololá	717	San Juan la Laguna	12	San Juan la Laguna	10	Octubre	2023-10-29T00:00:00	2024-11-08T06:00:00	2	Temperatura media	15.9
85986	7	Sololá	717	San Juan la Laguna	12	San Juan la Laguna	10	Octubre	2023-10-29T00:00:00	2024-11-08T06:00:00	4	Temperatura máxima	16.5
85987	7	Sololá	717	San Juan la Laguna	12	San Juan la Laguna	10	Octubre	2023-10-29T00:00:00	2024-11-08T06:00:00	3	Temperatura mínima	15.8
85988	7	Sololá	717	San Juan la Laguna	12	San Juan la Laguna	10	Octubre	2023-10-29T00:00:00	2024-11-08T06:00:00	5	Humedad	88
85989	7	Sololá	717	San Juan la Laguna	12	San Juan la Laguna	10	Octubre	2023-10-29T00:00:00	2024-11-08T06:00:00	6	Velocidad del viento	0
85990	7	Sololá	717	San Juan la Laguna	12	San Juan la Laguna	10	Octubre	2023-10-29T00:00:00	2024-11-08T06:00:00	7	Dirección del viento	0
85991	7	Sololá	717	San Juan la Laguna	12	San Juan la Laguna	10	Octubre	2023-10-29T00:00:00	2024-11-08T06:00:00	1	Precipitación	0
85992	7	Sololá	717	San Juan la Laguna	12	San Juan la Laguna	10	Octubre	2023-10-29T00:00:00	2024-11-08T06:00:00	8	Radiación solar	0
85993	7	Sololá	717	San Juan la Laguna	12	San Juan la Laguna	10	Octubre	2023-10-29T00:00:00	2024-11-08T07:00:00	2	Temperatura media	19.8
85994	7	Sololá	717	San Juan la Laguna	12	San Juan la Laguna	10	Octubre	2023-10-29T00:00:00	2024-11-08T07:00:00	4	Temperatura máxima	19.8
85995	7	Sololá	717	San Juan la Laguna	12	San Juan la Laguna	10	Octubre	2023-10-29T00:00:00	2024-11-08T07:00:00	3	Temperatura mínima	15.7
85996	7	Sololá	717	San Juan la Laguna	12	San Juan la Laguna	10	Octubre	2023-10-29T00:00:00	2024-11-08T07:00:00	5	Humedad	72
85997	7	Sololá	717	San Juan la Laguna	12	San Juan la Laguna	10	Octubre	2023-10-29T00:00:00	2024-11-08T07:00:00	6	Velocidad del viento	0
85998	7	Sololá	717	San Juan la Laguna	12	San Juan la Laguna	10	Octubre	2023-10-29T00:00:00	2024-11-08T07:00:00	7	Dirección del viento	0
85999	7	Sololá	717	San Juan la Laguna	12	San Juan la Laguna	10	Octubre	2023-10-29T00:00:00	2024-11-08T07:00:00	1	Precipitación	0
86000	7	Sololá	717	San Juan la Laguna	12	San Juan la Laguna	10	Octubre	2023-10-29T00:00:00	2024-11-08T07:00:00	8	Radiación solar	56
86001	7	Sololá	717	San Juan la Laguna	12	San Juan la Laguna	10	Octubre	2023-10-29T00:00:00	2024-11-08T08:00:00	2	Temperatura media	21.6
86002	7	Sololá	717	San Juan la Laguna	12	San Juan la Laguna	10	Octubre	2023-10-29T00:00:00	2024-11-08T08:00:00	4	Temperatura máxima	21.6
86003	7	Sololá	717	San Juan la Laguna	12	San Juan la Laguna	10	Octubre	2023-10-29T00:00:00	2024-11-08T08:00:00	3	Temperatura mínima	19.8
86004	7	Sololá	717	San Juan la Laguna	12	San Juan la Laguna	10	Octubre	2023-10-29T00:00:00	2024-11-08T08:00:00	5	Humedad	69
86005	7	Sololá	717	San Juan la Laguna	12	San Juan la Laguna	10	Octubre	2023-10-29T00:00:00	2024-11-08T08:00:00	6	Velocidad del viento	0
86006	7	Sololá	717	San Juan la Laguna	12	San Juan la Laguna	10	Octubre	2023-10-29T00:00:00	2024-11-08T08:00:00	7	Dirección del viento	0
86007	7	Sololá	717	San Juan la Laguna	12	San Juan la Laguna	10	Octubre	2023-10-29T00:00:00	2024-11-08T08:00:00	1	Precipitación	0
86008	7	Sololá	717	San Juan la Laguna	12	San Juan la Laguna	10	Octubre	2023-10-29T00:00:00	2024-11-08T08:00:00	8	Radiación solar	218
86009	7	Sololá	717	San Juan la Laguna	12	San Juan la Laguna	10	Octubre	2023-10-29T00:00:00	2024-11-08T09:00:00	2	Temperatura media	23.2
86010	7	Sololá	717	San Juan la Laguna	12	San Juan la Laguna	10	Octubre	2023-10-29T00:00:00	2024-11-08T09:00:00	4	Temperatura máxima	23.5
86011	7	Sololá	717	San Juan la Laguna	12	San Juan la Laguna	10	Octubre	2023-10-29T00:00:00	2024-11-08T09:00:00	3	Temperatura mínima	21.5
86012	7	Sololá	717	San Juan la Laguna	12	San Juan la Laguna	10	Octubre	2023-10-29T00:00:00	2024-11-08T09:00:00	5	Humedad	63
86013	7	Sololá	717	San Juan la Laguna	12	San Juan la Laguna	10	Octubre	2023-10-29T00:00:00	2024-11-08T09:00:00	6	Velocidad del viento	0
86014	7	Sololá	717	San Juan la Laguna	12	San Juan la Laguna	10	Octubre	2023-10-29T00:00:00	2024-11-08T09:00:00	7	Dirección del viento	0
86015	7	Sololá	717	San Juan la Laguna	12	San Juan la Laguna	10	Octubre	2023-10-29T00:00:00	2024-11-08T09:00:00	1	Precipitación	0
86016	7	Sololá	717	San Juan la Laguna	12	San Juan la Laguna	10	Octubre	2023-10-29T00:00:00	2024-11-08T09:00:00	8	Radiación solar	455
86017	7	Sololá	717	San Juan la Laguna	12	San Juan la Laguna	10	Octubre	2023-10-29T00:00:00	2024-11-08T10:00:00	2	Temperatura media	23.8
86018	7	Sololá	717	San Juan la Laguna	12	San Juan la Laguna	10	Octubre	2023-10-29T00:00:00	2024-11-08T10:00:00	4	Temperatura máxima	23.9
86019	7	Sololá	717	San Juan la Laguna	12	San Juan la Laguna	10	Octubre	2023-10-29T00:00:00	2024-11-08T10:00:00	3	Temperatura mínima	22.8
86020	7	Sololá	717	San Juan la Laguna	12	San Juan la Laguna	10	Octubre	2023-10-29T00:00:00	2024-11-08T10:00:00	5	Humedad	61
86021	7	Sololá	717	San Juan la Laguna	12	San Juan la Laguna	10	Octubre	2023-10-29T00:00:00	2024-11-08T10:00:00	6	Velocidad del viento	0
86022	7	Sololá	717	San Juan la Laguna	12	San Juan la Laguna	10	Octubre	2023-10-29T00:00:00	2024-11-08T10:00:00	7	Dirección del viento	0
86023	7	Sololá	717	San Juan la Laguna	12	San Juan la Laguna	10	Octubre	2023-10-29T00:00:00	2024-11-08T10:00:00	1	Precipitación	0
86024	7	Sololá	717	San Juan la Laguna	12	San Juan la Laguna	10	Octubre	2023-10-29T00:00:00	2024-11-08T10:00:00	8	Radiación solar	453
86025	7	Sololá	717	San Juan la Laguna	12	San Juan la Laguna	10	Octubre	2023-10-29T00:00:00	2024-11-08T11:00:00	2	Temperatura media	25.4
86026	7	Sololá	717	San Juan la Laguna	12	San Juan la Laguna	10	Octubre	2023-10-29T00:00:00	2024-11-08T11:00:00	4	Temperatura máxima	25.4
86027	7	Sololá	717	San Juan la Laguna	12	San Juan la Laguna	10	Octubre	2023-10-29T00:00:00	2024-11-08T11:00:00	3	Temperatura mínima	23.6
86028	7	Sololá	717	San Juan la Laguna	12	San Juan la Laguna	10	Octubre	2023-10-29T00:00:00	2024-11-08T11:00:00	5	Humedad	56
86029	7	Sololá	717	San Juan la Laguna	12	San Juan la Laguna	10	Octubre	2023-10-29T00:00:00	2024-11-08T11:00:00	6	Velocidad del viento	0
86030	7	Sololá	717	San Juan la Laguna	12	San Juan la Laguna	10	Octubre	2023-10-29T00:00:00	2024-11-08T11:00:00	7	Dirección del viento	0
86031	7	Sololá	717	San Juan la Laguna	12	San Juan la Laguna	10	Octubre	2023-10-29T00:00:00	2024-11-08T11:00:00	1	Precipitación	0
86032	7	Sololá	717	San Juan la Laguna	12	San Juan la Laguna	10	Octubre	2023-10-29T00:00:00	2024-11-08T11:00:00	8	Radiación solar	684
86033	7	Sololá	717	San Juan la Laguna	12	San Juan la Laguna	10	Octubre	2023-10-29T00:00:00	2024-11-08T12:00:00	2	Temperatura media	25.7
86034	7	Sololá	717	San Juan la Laguna	12	San Juan la Laguna	10	Octubre	2023-10-29T00:00:00	2024-11-08T12:00:00	4	Temperatura máxima	25.7
86035	7	Sololá	717	San Juan la Laguna	12	San Juan la Laguna	10	Octubre	2023-10-29T00:00:00	2024-11-08T12:00:00	3	Temperatura mínima	24.9
86036	7	Sololá	717	San Juan la Laguna	12	San Juan la Laguna	10	Octubre	2023-10-29T00:00:00	2024-11-08T12:00:00	5	Humedad	54
86037	7	Sololá	717	San Juan la Laguna	12	San Juan la Laguna	10	Octubre	2023-10-29T00:00:00	2024-11-08T12:00:00	6	Velocidad del viento	1.6
86038	7	Sololá	717	San Juan la Laguna	12	San Juan la Laguna	10	Octubre	2023-10-29T00:00:00	2024-11-08T12:00:00	7	Dirección del viento	1.61
86039	7	Sololá	717	San Juan la Laguna	12	San Juan la Laguna	10	Octubre	2023-10-29T00:00:00	2024-11-08T12:00:00	1	Precipitación	0
86040	7	Sololá	717	San Juan la Laguna	12	San Juan la Laguna	10	Octubre	2023-10-29T00:00:00	2024-11-08T12:00:00	8	Radiación solar	866
86041	7	Sololá	717	San Juan la Laguna	12	San Juan la Laguna	10	Octubre	2023-10-29T00:00:00	2024-11-08T13:00:00	2	Temperatura media	25.1
86042	7	Sololá	717	San Juan la Laguna	12	San Juan la Laguna	10	Octubre	2023-10-29T00:00:00	2024-11-08T13:00:00	4	Temperatura máxima	25.8
86043	7	Sololá	717	San Juan la Laguna	12	San Juan la Laguna	10	Octubre	2023-10-29T00:00:00	2024-11-08T13:00:00	3	Temperatura mínima	24.3
86044	7	Sololá	717	San Juan la Laguna	12	San Juan la Laguna	10	Octubre	2023-10-29T00:00:00	2024-11-08T13:00:00	5	Humedad	56
86045	7	Sololá	717	San Juan la Laguna	12	San Juan la Laguna	10	Octubre	2023-10-29T00:00:00	2024-11-08T13:00:00	6	Velocidad del viento	1.6
86046	7	Sololá	717	San Juan la Laguna	12	San Juan la Laguna	10	Octubre	2023-10-29T00:00:00	2024-11-08T13:00:00	7	Dirección del viento	1.61
86047	7	Sololá	717	San Juan la Laguna	12	San Juan la Laguna	10	Octubre	2023-10-29T00:00:00	2024-11-08T13:00:00	1	Precipitación	0
86048	7	Sololá	717	San Juan la Laguna	12	San Juan la Laguna	10	Octubre	2023-10-29T00:00:00	2024-11-08T13:00:00	8	Radiación solar	448
86049	7	Sololá	717	San Juan la Laguna	12	San Juan la Laguna	10	Octubre	2023-10-29T00:00:00	2024-11-08T14:00:00	2	Temperatura media	23.9
86050	7	Sololá	717	San Juan la Laguna	12	San Juan la Laguna	10	Octubre	2023-10-29T00:00:00	2024-11-08T14:00:00	4	Temperatura máxima	26
86051	7	Sololá	717	San Juan la Laguna	12	San Juan la Laguna	10	Octubre	2023-10-29T00:00:00	2024-11-08T14:00:00	3	Temperatura mínima	23.4
86052	7	Sololá	717	San Juan la Laguna	12	San Juan la Laguna	10	Octubre	2023-10-29T00:00:00	2024-11-08T14:00:00	5	Humedad	62
86053	7	Sololá	717	San Juan la Laguna	12	San Juan la Laguna	10	Octubre	2023-10-29T00:00:00	2024-11-08T14:00:00	6	Velocidad del viento	0
86054	7	Sololá	717	San Juan la Laguna	12	San Juan la Laguna	10	Octubre	2023-10-29T00:00:00	2024-11-08T14:00:00	7	Dirección del viento	0
86055	7	Sololá	717	San Juan la Laguna	12	San Juan la Laguna	10	Octubre	2023-10-29T00:00:00	2024-11-08T14:00:00	1	Precipitación	0
86056	7	Sololá	717	San Juan la Laguna	12	San Juan la Laguna	10	Octubre	2023-10-29T00:00:00	2024-11-08T14:00:00	8	Radiación solar	424
86057	7	Sololá	717	San Juan la Laguna	12	San Juan la Laguna	10	Octubre	2023-10-29T00:00:00	2024-11-08T15:00:00	2	Temperatura media	23.6
86058	7	Sololá	717	San Juan la Laguna	12	San Juan la Laguna	10	Octubre	2023-10-29T00:00:00	2024-11-08T15:00:00	4	Temperatura máxima	24.1
86059	7	Sololá	717	San Juan la Laguna	12	San Juan la Laguna	10	Octubre	2023-10-29T00:00:00	2024-11-08T15:00:00	3	Temperatura mínima	23.1
86060	7	Sololá	717	San Juan la Laguna	12	San Juan la Laguna	10	Octubre	2023-10-29T00:00:00	2024-11-08T15:00:00	5	Humedad	64
86061	7	Sololá	717	San Juan la Laguna	12	San Juan la Laguna	10	Octubre	2023-10-29T00:00:00	2024-11-08T15:00:00	6	Velocidad del viento	0
86062	7	Sololá	717	San Juan la Laguna	12	San Juan la Laguna	10	Octubre	2023-10-29T00:00:00	2024-11-08T15:00:00	7	Dirección del viento	0
86063	7	Sololá	717	San Juan la Laguna	12	San Juan la Laguna	10	Octubre	2023-10-29T00:00:00	2024-11-08T15:00:00	1	Precipitación	0
86064	7	Sololá	717	San Juan la Laguna	12	San Juan la Laguna	10	Octubre	2023-10-29T00:00:00	2024-11-08T15:00:00	8	Radiación solar	313
86065	7	Sololá	717	San Juan la Laguna	12	San Juan la Laguna	10	Octubre	2023-10-29T00:00:00	2024-11-08T16:00:00	2	Temperatura media	22.6
86066	7	Sololá	717	San Juan la Laguna	12	San Juan la Laguna	10	Octubre	2023-10-29T00:00:00	2024-11-08T16:00:00	4	Temperatura máxima	23.7
86067	7	Sololá	717	San Juan la Laguna	12	San Juan la Laguna	10	Octubre	2023-10-29T00:00:00	2024-11-08T16:00:00	3	Temperatura mínima	22.3
86068	7	Sololá	717	San Juan la Laguna	12	San Juan la Laguna	10	Octubre	2023-10-29T00:00:00	2024-11-08T16:00:00	5	Humedad	66
86069	7	Sololá	717	San Juan la Laguna	12	San Juan la Laguna	10	Octubre	2023-10-29T00:00:00	2024-11-08T16:00:00	6	Velocidad del viento	0
86070	7	Sololá	717	San Juan la Laguna	12	San Juan la Laguna	10	Octubre	2023-10-29T00:00:00	2024-11-08T16:00:00	7	Dirección del viento	0
86071	7	Sololá	717	San Juan la Laguna	12	San Juan la Laguna	10	Octubre	2023-10-29T00:00:00	2024-11-08T16:00:00	1	Precipitación	0
86072	7	Sololá	717	San Juan la Laguna	12	San Juan la Laguna	10	Octubre	2023-10-29T00:00:00	2024-11-08T16:00:00	8	Radiación solar	133
86073	7	Sololá	717	San Juan la Laguna	12	San Juan la Laguna	10	Octubre	2023-10-29T00:00:00	2024-11-08T17:00:00	2	Temperatura media	21.6
86074	7	Sololá	717	San Juan la Laguna	12	San Juan la Laguna	10	Octubre	2023-10-29T00:00:00	2024-11-08T17:00:00	4	Temperatura máxima	22.6
86075	7	Sololá	717	San Juan la Laguna	12	San Juan la Laguna	10	Octubre	2023-10-29T00:00:00	2024-11-08T17:00:00	3	Temperatura mínima	21.6
86076	7	Sololá	717	San Juan la Laguna	12	San Juan la Laguna	10	Octubre	2023-10-29T00:00:00	2024-11-08T17:00:00	5	Humedad	67
86077	7	Sololá	717	San Juan la Laguna	12	San Juan la Laguna	10	Octubre	2023-10-29T00:00:00	2024-11-08T17:00:00	6	Velocidad del viento	1.6
86078	7	Sololá	717	San Juan la Laguna	12	San Juan la Laguna	10	Octubre	2023-10-29T00:00:00	2024-11-08T17:00:00	7	Dirección del viento	1.61
86079	7	Sololá	717	San Juan la Laguna	12	San Juan la Laguna	10	Octubre	2023-10-29T00:00:00	2024-11-08T17:00:00	1	Precipitación	0
86080	7	Sololá	717	San Juan la Laguna	12	San Juan la Laguna	10	Octubre	2023-10-29T00:00:00	2024-11-08T17:00:00	8	Radiación solar	33
86081	7	Sololá	717	San Juan la Laguna	12	San Juan la Laguna	10	Octubre	2023-10-29T00:00:00	2024-11-08T18:00:00	2	Temperatura media	20.9
86082	7	Sololá	717	San Juan la Laguna	12	San Juan la Laguna	10	Octubre	2023-10-29T00:00:00	2024-11-08T18:00:00	4	Temperatura máxima	21.7
86083	7	Sololá	717	San Juan la Laguna	12	San Juan la Laguna	10	Octubre	2023-10-29T00:00:00	2024-11-08T18:00:00	3	Temperatura mínima	20.7
86084	7	Sololá	717	San Juan la Laguna	12	San Juan la Laguna	10	Octubre	2023-10-29T00:00:00	2024-11-08T18:00:00	5	Humedad	71
86085	7	Sololá	717	San Juan la Laguna	12	San Juan la Laguna	10	Octubre	2023-10-29T00:00:00	2024-11-08T18:00:00	6	Velocidad del viento	0
86086	7	Sololá	717	San Juan la Laguna	12	San Juan la Laguna	10	Octubre	2023-10-29T00:00:00	2024-11-08T18:00:00	7	Dirección del viento	0
86087	7	Sololá	717	San Juan la Laguna	12	San Juan la Laguna	10	Octubre	2023-10-29T00:00:00	2024-11-08T18:00:00	1	Precipitación	0
86088	7	Sololá	717	San Juan la Laguna	12	San Juan la Laguna	10	Octubre	2023-10-29T00:00:00	2024-11-08T18:00:00	8	Radiación solar	2
86089	7	Sololá	717	San Juan la Laguna	12	San Juan la Laguna	10	Octubre	2023-10-29T00:00:00	2024-11-08T19:00:00	2	Temperatura media	21.2
86090	7	Sololá	717	San Juan la Laguna	12	San Juan la Laguna	10	Octubre	2023-10-29T00:00:00	2024-11-08T19:00:00	4	Temperatura máxima	21.3
86091	7	Sololá	717	San Juan la Laguna	12	San Juan la Laguna	10	Octubre	2023-10-29T00:00:00	2024-11-08T19:00:00	3	Temperatura mínima	20.9
86092	7	Sololá	717	San Juan la Laguna	12	San Juan la Laguna	10	Octubre	2023-10-29T00:00:00	2024-11-08T19:00:00	5	Humedad	69
86093	7	Sololá	717	San Juan la Laguna	12	San Juan la Laguna	10	Octubre	2023-10-29T00:00:00	2024-11-08T19:00:00	6	Velocidad del viento	0
86094	7	Sololá	717	San Juan la Laguna	12	San Juan la Laguna	10	Octubre	2023-10-29T00:00:00	2024-11-08T19:00:00	7	Dirección del viento	0
86095	7	Sololá	717	San Juan la Laguna	12	San Juan la Laguna	10	Octubre	2023-10-29T00:00:00	2024-11-08T19:00:00	1	Precipitación	0
86096	7	Sololá	717	San Juan la Laguna	12	San Juan la Laguna	10	Octubre	2023-10-29T00:00:00	2024-11-08T19:00:00	8	Radiación solar	0
86097	7	Sololá	717	San Juan la Laguna	12	San Juan la Laguna	10	Octubre	2023-10-29T00:00:00	2024-11-08T20:00:00	2	Temperatura media	20.8
86098	7	Sololá	717	San Juan la Laguna	12	San Juan la Laguna	10	Octubre	2023-10-29T00:00:00	2024-11-08T20:00:00	4	Temperatura máxima	21.3
86099	7	Sololá	717	San Juan la Laguna	12	San Juan la Laguna	10	Octubre	2023-10-29T00:00:00	2024-11-08T20:00:00	3	Temperatura mínima	20.8
86100	7	Sololá	717	San Juan la Laguna	12	San Juan la Laguna	10	Octubre	2023-10-29T00:00:00	2024-11-08T20:00:00	5	Humedad	71
86101	7	Sololá	717	San Juan la Laguna	12	San Juan la Laguna	10	Octubre	2023-10-29T00:00:00	2024-11-08T20:00:00	6	Velocidad del viento	0
86102	7	Sololá	717	San Juan la Laguna	12	San Juan la Laguna	10	Octubre	2023-10-29T00:00:00	2024-11-08T20:00:00	7	Dirección del viento	0
86103	7	Sololá	717	San Juan la Laguna	12	San Juan la Laguna	10	Octubre	2023-10-29T00:00:00	2024-11-08T20:00:00	1	Precipitación	0
86104	7	Sololá	717	San Juan la Laguna	12	San Juan la Laguna	10	Octubre	2023-10-29T00:00:00	2024-11-08T20:00:00	8	Radiación solar	0
86105	7	Sololá	717	San Juan la Laguna	12	San Juan la Laguna	10	Octubre	2023-10-29T00:00:00	2024-11-08T21:00:00	2	Temperatura media	19.9
86106	7	Sololá	717	San Juan la Laguna	12	San Juan la Laguna	10	Octubre	2023-10-29T00:00:00	2024-11-08T21:00:00	4	Temperatura máxima	20.8
86107	7	Sololá	717	San Juan la Laguna	12	San Juan la Laguna	10	Octubre	2023-10-29T00:00:00	2024-11-08T21:00:00	3	Temperatura mínima	19.9
86108	7	Sololá	717	San Juan la Laguna	12	San Juan la Laguna	10	Octubre	2023-10-29T00:00:00	2024-11-08T21:00:00	5	Humedad	74
86109	7	Sololá	717	San Juan la Laguna	12	San Juan la Laguna	10	Octubre	2023-10-29T00:00:00	2024-11-08T21:00:00	6	Velocidad del viento	0
86110	7	Sololá	717	San Juan la Laguna	12	San Juan la Laguna	10	Octubre	2023-10-29T00:00:00	2024-11-08T21:00:00	7	Dirección del viento	0
86111	7	Sololá	717	San Juan la Laguna	12	San Juan la Laguna	10	Octubre	2023-10-29T00:00:00	2024-11-08T21:00:00	1	Precipitación	0
86112	7	Sololá	717	San Juan la Laguna	12	San Juan la Laguna	10	Octubre	2023-10-29T00:00:00	2024-11-08T21:00:00	8	Radiación solar	0
86113	7	Sololá	717	San Juan la Laguna	12	San Juan la Laguna	10	Octubre	2023-10-29T00:00:00	2024-11-08T22:00:00	2	Temperatura media	20.2
86114	7	Sololá	717	San Juan la Laguna	12	San Juan la Laguna	10	Octubre	2023-10-29T00:00:00	2024-11-08T22:00:00	4	Temperatura máxima	20.5
86115	7	Sololá	717	San Juan la Laguna	12	San Juan la Laguna	10	Octubre	2023-10-29T00:00:00	2024-11-08T22:00:00	3	Temperatura mínima	19.4
86116	7	Sololá	717	San Juan la Laguna	12	San Juan la Laguna	10	Octubre	2023-10-29T00:00:00	2024-11-08T22:00:00	5	Humedad	72
86117	7	Sololá	717	San Juan la Laguna	12	San Juan la Laguna	10	Octubre	2023-10-29T00:00:00	2024-11-08T22:00:00	6	Velocidad del viento	0
86118	7	Sololá	717	San Juan la Laguna	12	San Juan la Laguna	10	Octubre	2023-10-29T00:00:00	2024-11-08T22:00:00	7	Dirección del viento	0
86119	7	Sololá	717	San Juan la Laguna	12	San Juan la Laguna	10	Octubre	2023-10-29T00:00:00	2024-11-08T22:00:00	1	Precipitación	0
86120	7	Sololá	717	San Juan la Laguna	12	San Juan la Laguna	10	Octubre	2023-10-29T00:00:00	2024-11-08T22:00:00	8	Radiación solar	0
86121	7	Sololá	717	San Juan la Laguna	12	San Juan la Laguna	10	Octubre	2023-10-29T00:00:00	2024-11-08T23:00:00	2	Temperatura media	18.6
86122	7	Sololá	717	San Juan la Laguna	12	San Juan la Laguna	10	Octubre	2023-10-29T00:00:00	2024-11-08T23:00:00	4	Temperatura máxima	20.2
86123	7	Sololá	717	San Juan la Laguna	12	San Juan la Laguna	10	Octubre	2023-10-29T00:00:00	2024-11-08T23:00:00	3	Temperatura mínima	18.6
86124	7	Sololá	717	San Juan la Laguna	12	San Juan la Laguna	10	Octubre	2023-10-29T00:00:00	2024-11-08T23:00:00	5	Humedad	80
86125	7	Sololá	717	San Juan la Laguna	12	San Juan la Laguna	10	Octubre	2023-10-29T00:00:00	2024-11-08T23:00:00	6	Velocidad del viento	0
86126	7	Sololá	717	San Juan la Laguna	12	San Juan la Laguna	10	Octubre	2023-10-29T00:00:00	2024-11-08T23:00:00	7	Dirección del viento	0
86127	7	Sololá	717	San Juan la Laguna	12	San Juan la Laguna	10	Octubre	2023-10-29T00:00:00	2024-11-08T23:00:00	1	Precipitación	0
86128	7	Sololá	717	San Juan la Laguna	12	San Juan la Laguna	10	Octubre	2023-10-29T00:00:00	2024-11-08T23:00:00	8	Radiación solar	0
86129	7	Sololá	717	San Juan la Laguna	12	San Juan la Laguna	10	Octubre	2023-10-30T00:00:00	2024-11-08T00:00:00	2	Temperatura media	17.8
86130	7	Sololá	717	San Juan la Laguna	12	San Juan la Laguna	10	Octubre	2023-10-30T00:00:00	2024-11-08T00:00:00	4	Temperatura máxima	18.6
86131	7	Sololá	717	San Juan la Laguna	12	San Juan la Laguna	10	Octubre	2023-10-30T00:00:00	2024-11-08T00:00:00	3	Temperatura mínima	17.7
86132	7	Sololá	717	San Juan la Laguna	12	San Juan la Laguna	10	Octubre	2023-10-30T00:00:00	2024-11-08T00:00:00	5	Humedad	83
86133	7	Sololá	717	San Juan la Laguna	12	San Juan la Laguna	10	Octubre	2023-10-30T00:00:00	2024-11-08T00:00:00	6	Velocidad del viento	0
86134	7	Sololá	717	San Juan la Laguna	12	San Juan la Laguna	10	Octubre	2023-10-30T00:00:00	2024-11-08T00:00:00	7	Dirección del viento	0
86135	7	Sololá	717	San Juan la Laguna	12	San Juan la Laguna	10	Octubre	2023-10-30T00:00:00	2024-11-08T00:00:00	1	Precipitación	0
86136	7	Sololá	717	San Juan la Laguna	12	San Juan la Laguna	10	Octubre	2023-10-30T00:00:00	2024-11-08T00:00:00	8	Radiación solar	0
86137	7	Sololá	717	San Juan la Laguna	12	San Juan la Laguna	10	Octubre	2023-10-30T00:00:00	2024-11-08T01:00:00	2	Temperatura media	17.8
86138	7	Sololá	717	San Juan la Laguna	12	San Juan la Laguna	10	Octubre	2023-10-30T00:00:00	2024-11-08T01:00:00	4	Temperatura máxima	18.2
86139	7	Sololá	717	San Juan la Laguna	12	San Juan la Laguna	10	Octubre	2023-10-30T00:00:00	2024-11-08T01:00:00	3	Temperatura mínima	17.7
86140	7	Sololá	717	San Juan la Laguna	12	San Juan la Laguna	10	Octubre	2023-10-30T00:00:00	2024-11-08T01:00:00	5	Humedad	84
86141	7	Sololá	717	San Juan la Laguna	12	San Juan la Laguna	10	Octubre	2023-10-30T00:00:00	2024-11-08T01:00:00	6	Velocidad del viento	0
86142	7	Sololá	717	San Juan la Laguna	12	San Juan la Laguna	10	Octubre	2023-10-30T00:00:00	2024-11-08T01:00:00	7	Dirección del viento	0
86143	7	Sololá	717	San Juan la Laguna	12	San Juan la Laguna	10	Octubre	2023-10-30T00:00:00	2024-11-08T01:00:00	1	Precipitación	0
86144	7	Sololá	717	San Juan la Laguna	12	San Juan la Laguna	10	Octubre	2023-10-30T00:00:00	2024-11-08T01:00:00	8	Radiación solar	0
86145	7	Sololá	717	San Juan la Laguna	12	San Juan la Laguna	10	Octubre	2023-10-30T00:00:00	2024-11-08T02:00:00	2	Temperatura media	17.5
86146	7	Sololá	717	San Juan la Laguna	12	San Juan la Laguna	10	Octubre	2023-10-30T00:00:00	2024-11-08T02:00:00	4	Temperatura máxima	17.9
86147	7	Sololá	717	San Juan la Laguna	12	San Juan la Laguna	10	Octubre	2023-10-30T00:00:00	2024-11-08T02:00:00	3	Temperatura mínima	17.5
86148	7	Sololá	717	San Juan la Laguna	12	San Juan la Laguna	10	Octubre	2023-10-30T00:00:00	2024-11-08T02:00:00	5	Humedad	85
86149	7	Sololá	717	San Juan la Laguna	12	San Juan la Laguna	10	Octubre	2023-10-30T00:00:00	2024-11-08T02:00:00	6	Velocidad del viento	0
86150	7	Sololá	717	San Juan la Laguna	12	San Juan la Laguna	10	Octubre	2023-10-30T00:00:00	2024-11-08T02:00:00	7	Dirección del viento	0
86151	7	Sololá	717	San Juan la Laguna	12	San Juan la Laguna	10	Octubre	2023-10-30T00:00:00	2024-11-08T02:00:00	1	Precipitación	0
86152	7	Sololá	717	San Juan la Laguna	12	San Juan la Laguna	10	Octubre	2023-10-30T00:00:00	2024-11-08T02:00:00	8	Radiación solar	0
86153	7	Sololá	717	San Juan la Laguna	12	San Juan la Laguna	10	Octubre	2023-10-30T00:00:00	2024-11-08T03:00:00	2	Temperatura media	17.1
86154	7	Sololá	717	San Juan la Laguna	12	San Juan la Laguna	10	Octubre	2023-10-30T00:00:00	2024-11-08T03:00:00	4	Temperatura máxima	17.5
86155	7	Sololá	717	San Juan la Laguna	12	San Juan la Laguna	10	Octubre	2023-10-30T00:00:00	2024-11-08T03:00:00	3	Temperatura mínima	17.1
86156	7	Sololá	717	San Juan la Laguna	12	San Juan la Laguna	10	Octubre	2023-10-30T00:00:00	2024-11-08T03:00:00	5	Humedad	86
86157	7	Sololá	717	San Juan la Laguna	12	San Juan la Laguna	10	Octubre	2023-10-30T00:00:00	2024-11-08T03:00:00	6	Velocidad del viento	0
86158	7	Sololá	717	San Juan la Laguna	12	San Juan la Laguna	10	Octubre	2023-10-30T00:00:00	2024-11-08T03:00:00	7	Dirección del viento	0
86159	7	Sololá	717	San Juan la Laguna	12	San Juan la Laguna	10	Octubre	2023-10-30T00:00:00	2024-11-08T03:00:00	1	Precipitación	0
86160	7	Sololá	717	San Juan la Laguna	12	San Juan la Laguna	10	Octubre	2023-10-30T00:00:00	2024-11-08T03:00:00	8	Radiación solar	0
86161	7	Sololá	717	San Juan la Laguna	12	San Juan la Laguna	10	Octubre	2023-10-30T00:00:00	2024-11-08T04:00:00	2	Temperatura media	16.7
86162	7	Sololá	717	San Juan la Laguna	12	San Juan la Laguna	10	Octubre	2023-10-30T00:00:00	2024-11-08T04:00:00	4	Temperatura máxima	17.1
86163	7	Sololá	717	San Juan la Laguna	12	San Juan la Laguna	10	Octubre	2023-10-30T00:00:00	2024-11-08T04:00:00	3	Temperatura mínima	16.7
86164	7	Sololá	717	San Juan la Laguna	12	San Juan la Laguna	10	Octubre	2023-10-30T00:00:00	2024-11-08T04:00:00	5	Humedad	87
86165	7	Sololá	717	San Juan la Laguna	12	San Juan la Laguna	10	Octubre	2023-10-30T00:00:00	2024-11-08T04:00:00	6	Velocidad del viento	0
86166	7	Sololá	717	San Juan la Laguna	12	San Juan la Laguna	10	Octubre	2023-10-30T00:00:00	2024-11-08T04:00:00	7	Dirección del viento	0
86167	7	Sololá	717	San Juan la Laguna	12	San Juan la Laguna	10	Octubre	2023-10-30T00:00:00	2024-11-08T04:00:00	1	Precipitación	0
86168	7	Sololá	717	San Juan la Laguna	12	San Juan la Laguna	10	Octubre	2023-10-30T00:00:00	2024-11-08T04:00:00	8	Radiación solar	0
86169	7	Sololá	717	San Juan la Laguna	12	San Juan la Laguna	10	Octubre	2023-10-30T00:00:00	2024-11-08T05:00:00	2	Temperatura media	16.9
86170	7	Sololá	717	San Juan la Laguna	12	San Juan la Laguna	10	Octubre	2023-10-30T00:00:00	2024-11-08T05:00:00	4	Temperatura máxima	16.9
86171	7	Sololá	717	San Juan la Laguna	12	San Juan la Laguna	10	Octubre	2023-10-30T00:00:00	2024-11-08T05:00:00	3	Temperatura mínima	16.6
86172	7	Sololá	717	San Juan la Laguna	12	San Juan la Laguna	10	Octubre	2023-10-30T00:00:00	2024-11-08T05:00:00	5	Humedad	87
86173	7	Sololá	717	San Juan la Laguna	12	San Juan la Laguna	10	Octubre	2023-10-30T00:00:00	2024-11-08T05:00:00	6	Velocidad del viento	0
86174	7	Sololá	717	San Juan la Laguna	12	San Juan la Laguna	10	Octubre	2023-10-30T00:00:00	2024-11-08T05:00:00	7	Dirección del viento	0
86175	7	Sololá	717	San Juan la Laguna	12	San Juan la Laguna	10	Octubre	2023-10-30T00:00:00	2024-11-08T05:00:00	1	Precipitación	0
86176	7	Sololá	717	San Juan la Laguna	12	San Juan la Laguna	10	Octubre	2023-10-30T00:00:00	2024-11-08T05:00:00	8	Radiación solar	0
86177	7	Sololá	717	San Juan la Laguna	12	San Juan la Laguna	10	Octubre	2023-10-30T00:00:00	2024-11-08T06:00:00	2	Temperatura media	16.5
86178	7	Sololá	717	San Juan la Laguna	12	San Juan la Laguna	10	Octubre	2023-10-30T00:00:00	2024-11-08T06:00:00	4	Temperatura máxima	17.2
86179	7	Sololá	717	San Juan la Laguna	12	San Juan la Laguna	10	Octubre	2023-10-30T00:00:00	2024-11-08T06:00:00	3	Temperatura mínima	16.5
86180	7	Sololá	717	San Juan la Laguna	12	San Juan la Laguna	10	Octubre	2023-10-30T00:00:00	2024-11-08T06:00:00	5	Humedad	88
86181	7	Sololá	717	San Juan la Laguna	12	San Juan la Laguna	10	Octubre	2023-10-30T00:00:00	2024-11-08T06:00:00	6	Velocidad del viento	0
86182	7	Sololá	717	San Juan la Laguna	12	San Juan la Laguna	10	Octubre	2023-10-30T00:00:00	2024-11-08T06:00:00	7	Dirección del viento	0
86183	7	Sololá	717	San Juan la Laguna	12	San Juan la Laguna	10	Octubre	2023-10-30T00:00:00	2024-11-08T06:00:00	1	Precipitación	0
86184	7	Sololá	717	San Juan la Laguna	12	San Juan la Laguna	10	Octubre	2023-10-30T00:00:00	2024-11-08T06:00:00	8	Radiación solar	0
86185	7	Sololá	717	San Juan la Laguna	12	San Juan la Laguna	10	Octubre	2023-10-30T00:00:00	2024-11-08T07:00:00	2	Temperatura media	17.2
86186	7	Sololá	717	San Juan la Laguna	12	San Juan la Laguna	10	Octubre	2023-10-30T00:00:00	2024-11-08T07:00:00	4	Temperatura máxima	17.2
86187	7	Sololá	717	San Juan la Laguna	12	San Juan la Laguna	10	Octubre	2023-10-30T00:00:00	2024-11-08T07:00:00	3	Temperatura mínima	16.2
86188	7	Sololá	717	San Juan la Laguna	12	San Juan la Laguna	10	Octubre	2023-10-30T00:00:00	2024-11-08T07:00:00	5	Humedad	86
86189	7	Sololá	717	San Juan la Laguna	12	San Juan la Laguna	10	Octubre	2023-10-30T00:00:00	2024-11-08T07:00:00	6	Velocidad del viento	0
86190	7	Sololá	717	San Juan la Laguna	12	San Juan la Laguna	10	Octubre	2023-10-30T00:00:00	2024-11-08T07:00:00	7	Dirección del viento	0
86191	7	Sololá	717	San Juan la Laguna	12	San Juan la Laguna	10	Octubre	2023-10-30T00:00:00	2024-11-08T07:00:00	1	Precipitación	0
86192	7	Sololá	717	San Juan la Laguna	12	San Juan la Laguna	10	Octubre	2023-10-30T00:00:00	2024-11-08T07:00:00	8	Radiación solar	42
86193	7	Sololá	717	San Juan la Laguna	12	San Juan la Laguna	10	Octubre	2023-10-30T00:00:00	2024-11-08T08:00:00	2	Temperatura media	19.3
86194	7	Sololá	717	San Juan la Laguna	12	San Juan la Laguna	10	Octubre	2023-10-30T00:00:00	2024-11-08T08:00:00	4	Temperatura máxima	19.3
86195	7	Sololá	717	San Juan la Laguna	12	San Juan la Laguna	10	Octubre	2023-10-30T00:00:00	2024-11-08T08:00:00	3	Temperatura mínima	17.2
86196	7	Sololá	717	San Juan la Laguna	12	San Juan la Laguna	10	Octubre	2023-10-30T00:00:00	2024-11-08T08:00:00	5	Humedad	83
86197	7	Sololá	717	San Juan la Laguna	12	San Juan la Laguna	10	Octubre	2023-10-30T00:00:00	2024-11-08T08:00:00	6	Velocidad del viento	0
86198	7	Sololá	717	San Juan la Laguna	12	San Juan la Laguna	10	Octubre	2023-10-30T00:00:00	2024-11-08T08:00:00	7	Dirección del viento	0
86199	7	Sololá	717	San Juan la Laguna	12	San Juan la Laguna	10	Octubre	2023-10-30T00:00:00	2024-11-08T08:00:00	1	Precipitación	0
86200	7	Sololá	717	San Juan la Laguna	12	San Juan la Laguna	10	Octubre	2023-10-30T00:00:00	2024-11-08T08:00:00	8	Radiación solar	111
86201	7	Sololá	717	San Juan la Laguna	12	San Juan la Laguna	10	Octubre	2023-10-30T00:00:00	2024-11-08T09:00:00	2	Temperatura media	22.8
86202	7	Sololá	717	San Juan la Laguna	12	San Juan la Laguna	10	Octubre	2023-10-30T00:00:00	2024-11-08T09:00:00	4	Temperatura máxima	22.8
86203	7	Sololá	717	San Juan la Laguna	12	San Juan la Laguna	10	Octubre	2023-10-30T00:00:00	2024-11-08T09:00:00	3	Temperatura mínima	19.3
86204	7	Sololá	717	San Juan la Laguna	12	San Juan la Laguna	10	Octubre	2023-10-30T00:00:00	2024-11-08T09:00:00	5	Humedad	64
86205	7	Sololá	717	San Juan la Laguna	12	San Juan la Laguna	10	Octubre	2023-10-30T00:00:00	2024-11-08T09:00:00	6	Velocidad del viento	0
86206	7	Sololá	717	San Juan la Laguna	12	San Juan la Laguna	10	Octubre	2023-10-30T00:00:00	2024-11-08T09:00:00	7	Dirección del viento	0
86207	7	Sololá	717	San Juan la Laguna	12	San Juan la Laguna	10	Octubre	2023-10-30T00:00:00	2024-11-08T09:00:00	1	Precipitación	0
86208	7	Sololá	717	San Juan la Laguna	12	San Juan la Laguna	10	Octubre	2023-10-30T00:00:00	2024-11-08T09:00:00	8	Radiación solar	453
86209	7	Sololá	717	San Juan la Laguna	12	San Juan la Laguna	10	Octubre	2023-10-30T00:00:00	2024-11-08T10:00:00	2	Temperatura media	24.2
86210	7	Sololá	717	San Juan la Laguna	12	San Juan la Laguna	10	Octubre	2023-10-30T00:00:00	2024-11-08T10:00:00	4	Temperatura máxima	24.3
86211	7	Sololá	717	San Juan la Laguna	12	San Juan la Laguna	10	Octubre	2023-10-30T00:00:00	2024-11-08T10:00:00	3	Temperatura mínima	22.7
86212	7	Sololá	717	San Juan la Laguna	12	San Juan la Laguna	10	Octubre	2023-10-30T00:00:00	2024-11-08T10:00:00	5	Humedad	59
86213	7	Sololá	717	San Juan la Laguna	12	San Juan la Laguna	10	Octubre	2023-10-30T00:00:00	2024-11-08T10:00:00	6	Velocidad del viento	1.6
86214	7	Sololá	717	San Juan la Laguna	12	San Juan la Laguna	10	Octubre	2023-10-30T00:00:00	2024-11-08T10:00:00	7	Dirección del viento	1.61
86215	7	Sololá	717	San Juan la Laguna	12	San Juan la Laguna	10	Octubre	2023-10-30T00:00:00	2024-11-08T10:00:00	1	Precipitación	0
86216	7	Sololá	717	San Juan la Laguna	12	San Juan la Laguna	10	Octubre	2023-10-30T00:00:00	2024-11-08T10:00:00	8	Radiación solar	676
86217	7	Sololá	717	San Juan la Laguna	12	San Juan la Laguna	10	Octubre	2023-10-30T00:00:00	2024-11-08T11:00:00	2	Temperatura media	24
86218	7	Sololá	717	San Juan la Laguna	12	San Juan la Laguna	10	Octubre	2023-10-30T00:00:00	2024-11-08T11:00:00	4	Temperatura máxima	24.9
86219	7	Sololá	717	San Juan la Laguna	12	San Juan la Laguna	10	Octubre	2023-10-30T00:00:00	2024-11-08T11:00:00	3	Temperatura mínima	23.8
86220	7	Sololá	717	San Juan la Laguna	12	San Juan la Laguna	10	Octubre	2023-10-30T00:00:00	2024-11-08T11:00:00	5	Humedad	56
86221	7	Sololá	717	San Juan la Laguna	12	San Juan la Laguna	10	Octubre	2023-10-30T00:00:00	2024-11-08T11:00:00	6	Velocidad del viento	4.8
86222	7	Sololá	717	San Juan la Laguna	12	San Juan la Laguna	10	Octubre	2023-10-30T00:00:00	2024-11-08T11:00:00	7	Dirección del viento	4.83
86223	7	Sololá	717	San Juan la Laguna	12	San Juan la Laguna	10	Octubre	2023-10-30T00:00:00	2024-11-08T11:00:00	1	Precipitación	0
86224	7	Sololá	717	San Juan la Laguna	12	San Juan la Laguna	10	Octubre	2023-10-30T00:00:00	2024-11-08T11:00:00	8	Radiación solar	712
86225	7	Sololá	717	San Juan la Laguna	12	San Juan la Laguna	10	Octubre	2023-10-30T00:00:00	2024-11-08T12:00:00	2	Temperatura media	24.9
86226	7	Sololá	717	San Juan la Laguna	12	San Juan la Laguna	10	Octubre	2023-10-30T00:00:00	2024-11-08T12:00:00	4	Temperatura máxima	25.4
86227	7	Sololá	717	San Juan la Laguna	12	San Juan la Laguna	10	Octubre	2023-10-30T00:00:00	2024-11-08T12:00:00	3	Temperatura mínima	24
86228	7	Sololá	717	San Juan la Laguna	12	San Juan la Laguna	10	Octubre	2023-10-30T00:00:00	2024-11-08T12:00:00	5	Humedad	54
86229	7	Sololá	717	San Juan la Laguna	12	San Juan la Laguna	10	Octubre	2023-10-30T00:00:00	2024-11-08T12:00:00	6	Velocidad del viento	6.4
86230	7	Sololá	717	San Juan la Laguna	12	San Juan la Laguna	10	Octubre	2023-10-30T00:00:00	2024-11-08T12:00:00	7	Dirección del viento	6.44
86231	7	Sololá	717	San Juan la Laguna	12	San Juan la Laguna	10	Octubre	2023-10-30T00:00:00	2024-11-08T12:00:00	1	Precipitación	0
86232	7	Sololá	717	San Juan la Laguna	12	San Juan la Laguna	10	Octubre	2023-10-30T00:00:00	2024-11-08T12:00:00	8	Radiación solar	827
86233	7	Sololá	717	San Juan la Laguna	12	San Juan la Laguna	10	Octubre	2023-10-30T00:00:00	2024-11-08T13:00:00	2	Temperatura media	25.8
86234	7	Sololá	717	San Juan la Laguna	12	San Juan la Laguna	10	Octubre	2023-10-30T00:00:00	2024-11-08T13:00:00	4	Temperatura máxima	25.9
86235	7	Sololá	717	San Juan la Laguna	12	San Juan la Laguna	10	Octubre	2023-10-30T00:00:00	2024-11-08T13:00:00	3	Temperatura mínima	24.9
86236	7	Sololá	717	San Juan la Laguna	12	San Juan la Laguna	10	Octubre	2023-10-30T00:00:00	2024-11-08T13:00:00	5	Humedad	49
86237	7	Sololá	717	San Juan la Laguna	12	San Juan la Laguna	10	Octubre	2023-10-30T00:00:00	2024-11-08T13:00:00	6	Velocidad del viento	3.2
86238	7	Sololá	717	San Juan la Laguna	12	San Juan la Laguna	10	Octubre	2023-10-30T00:00:00	2024-11-08T13:00:00	7	Dirección del viento	3.22
86239	7	Sololá	717	San Juan la Laguna	12	San Juan la Laguna	10	Octubre	2023-10-30T00:00:00	2024-11-08T13:00:00	1	Precipitación	0
86240	7	Sololá	717	San Juan la Laguna	12	San Juan la Laguna	10	Octubre	2023-10-30T00:00:00	2024-11-08T13:00:00	8	Radiación solar	831
86241	7	Sololá	717	San Juan la Laguna	12	San Juan la Laguna	10	Octubre	2023-10-30T00:00:00	2024-11-08T14:00:00	2	Temperatura media	26.8
86242	7	Sololá	717	San Juan la Laguna	12	San Juan la Laguna	10	Octubre	2023-10-30T00:00:00	2024-11-08T14:00:00	4	Temperatura máxima	27.1
86243	7	Sololá	717	San Juan la Laguna	12	San Juan la Laguna	10	Octubre	2023-10-30T00:00:00	2024-11-08T14:00:00	3	Temperatura mínima	25.4
86244	7	Sololá	717	San Juan la Laguna	12	San Juan la Laguna	10	Octubre	2023-10-30T00:00:00	2024-11-08T14:00:00	5	Humedad	48
86245	7	Sololá	717	San Juan la Laguna	12	San Juan la Laguna	10	Octubre	2023-10-30T00:00:00	2024-11-08T14:00:00	6	Velocidad del viento	1.6
86246	7	Sololá	717	San Juan la Laguna	12	San Juan la Laguna	10	Octubre	2023-10-30T00:00:00	2024-11-08T14:00:00	7	Dirección del viento	1.61
86247	7	Sololá	717	San Juan la Laguna	12	San Juan la Laguna	10	Octubre	2023-10-30T00:00:00	2024-11-08T14:00:00	1	Precipitación	0
86248	7	Sololá	717	San Juan la Laguna	12	San Juan la Laguna	10	Octubre	2023-10-30T00:00:00	2024-11-08T14:00:00	8	Radiación solar	794
86249	7	Sololá	717	San Juan la Laguna	12	San Juan la Laguna	10	Octubre	2023-10-30T00:00:00	2024-11-08T15:00:00	2	Temperatura media	25.1
86250	7	Sololá	717	San Juan la Laguna	12	San Juan la Laguna	10	Octubre	2023-10-30T00:00:00	2024-11-08T15:00:00	4	Temperatura máxima	26.8
86251	7	Sololá	717	San Juan la Laguna	12	San Juan la Laguna	10	Octubre	2023-10-30T00:00:00	2024-11-08T15:00:00	3	Temperatura mínima	25.1
86252	7	Sololá	717	San Juan la Laguna	12	San Juan la Laguna	10	Octubre	2023-10-30T00:00:00	2024-11-08T15:00:00	5	Humedad	54
86253	7	Sololá	717	San Juan la Laguna	12	San Juan la Laguna	10	Octubre	2023-10-30T00:00:00	2024-11-08T15:00:00	6	Velocidad del viento	0
86254	7	Sololá	717	San Juan la Laguna	12	San Juan la Laguna	10	Octubre	2023-10-30T00:00:00	2024-11-08T15:00:00	7	Dirección del viento	0
86255	7	Sololá	717	San Juan la Laguna	12	San Juan la Laguna	10	Octubre	2023-10-30T00:00:00	2024-11-08T15:00:00	1	Precipitación	0
86256	7	Sololá	717	San Juan la Laguna	12	San Juan la Laguna	10	Octubre	2023-10-30T00:00:00	2024-11-08T15:00:00	8	Radiación solar	633
86257	7	Sololá	717	San Juan la Laguna	12	San Juan la Laguna	10	Octubre	2023-10-30T00:00:00	2024-11-08T16:00:00	2	Temperatura media	22.8
86258	7	Sololá	717	San Juan la Laguna	12	San Juan la Laguna	10	Octubre	2023-10-30T00:00:00	2024-11-08T16:00:00	4	Temperatura máxima	25
86259	7	Sololá	717	San Juan la Laguna	12	San Juan la Laguna	10	Octubre	2023-10-30T00:00:00	2024-11-08T16:00:00	3	Temperatura mínima	22.8
86260	7	Sololá	717	San Juan la Laguna	12	San Juan la Laguna	10	Octubre	2023-10-30T00:00:00	2024-11-08T16:00:00	5	Humedad	64
86261	7	Sololá	717	San Juan la Laguna	12	San Juan la Laguna	10	Octubre	2023-10-30T00:00:00	2024-11-08T16:00:00	6	Velocidad del viento	0
86262	7	Sololá	717	San Juan la Laguna	12	San Juan la Laguna	10	Octubre	2023-10-30T00:00:00	2024-11-08T16:00:00	7	Dirección del viento	0
86263	7	Sololá	717	San Juan la Laguna	12	San Juan la Laguna	10	Octubre	2023-10-30T00:00:00	2024-11-08T16:00:00	1	Precipitación	0
86264	7	Sololá	717	San Juan la Laguna	12	San Juan la Laguna	10	Octubre	2023-10-30T00:00:00	2024-11-08T16:00:00	8	Radiación solar	157
86265	7	Sololá	717	San Juan la Laguna	12	San Juan la Laguna	10	Octubre	2023-10-30T00:00:00	2024-11-08T17:00:00	2	Temperatura media	22.1
86266	7	Sololá	717	San Juan la Laguna	12	San Juan la Laguna	10	Octubre	2023-10-30T00:00:00	2024-11-08T17:00:00	4	Temperatura máxima	22.8
86267	7	Sololá	717	San Juan la Laguna	12	San Juan la Laguna	10	Octubre	2023-10-30T00:00:00	2024-11-08T17:00:00	3	Temperatura mínima	21.4
86268	7	Sololá	717	San Juan la Laguna	12	San Juan la Laguna	10	Octubre	2023-10-30T00:00:00	2024-11-08T17:00:00	5	Humedad	63
86269	7	Sololá	717	San Juan la Laguna	12	San Juan la Laguna	10	Octubre	2023-10-30T00:00:00	2024-11-08T17:00:00	6	Velocidad del viento	0
86270	7	Sololá	717	San Juan la Laguna	12	San Juan la Laguna	10	Octubre	2023-10-30T00:00:00	2024-11-08T17:00:00	7	Dirección del viento	0
86271	7	Sololá	717	San Juan la Laguna	12	San Juan la Laguna	10	Octubre	2023-10-30T00:00:00	2024-11-08T17:00:00	1	Precipitación	0
86272	7	Sololá	717	San Juan la Laguna	12	San Juan la Laguna	10	Octubre	2023-10-30T00:00:00	2024-11-08T17:00:00	8	Radiación solar	42
86273	7	Sololá	717	San Juan la Laguna	12	San Juan la Laguna	10	Octubre	2023-10-30T00:00:00	2024-11-08T18:00:00	2	Temperatura media	21.4
86274	7	Sololá	717	San Juan la Laguna	12	San Juan la Laguna	10	Octubre	2023-10-30T00:00:00	2024-11-08T18:00:00	4	Temperatura máxima	22.1
86275	7	Sololá	717	San Juan la Laguna	12	San Juan la Laguna	10	Octubre	2023-10-30T00:00:00	2024-11-08T18:00:00	3	Temperatura mínima	21.4
86276	7	Sololá	717	San Juan la Laguna	12	San Juan la Laguna	10	Octubre	2023-10-30T00:00:00	2024-11-08T18:00:00	5	Humedad	64
86277	7	Sololá	717	San Juan la Laguna	12	San Juan la Laguna	10	Octubre	2023-10-30T00:00:00	2024-11-08T18:00:00	6	Velocidad del viento	0
86278	7	Sololá	717	San Juan la Laguna	12	San Juan la Laguna	10	Octubre	2023-10-30T00:00:00	2024-11-08T18:00:00	7	Dirección del viento	0
86279	7	Sololá	717	San Juan la Laguna	12	San Juan la Laguna	10	Octubre	2023-10-30T00:00:00	2024-11-08T18:00:00	1	Precipitación	0
86280	7	Sololá	717	San Juan la Laguna	12	San Juan la Laguna	10	Octubre	2023-10-30T00:00:00	2024-11-08T18:00:00	8	Radiación solar	7
86281	7	Sololá	717	San Juan la Laguna	12	San Juan la Laguna	10	Octubre	2023-10-30T00:00:00	2024-11-08T19:00:00	2	Temperatura media	20.8
86282	7	Sololá	717	San Juan la Laguna	12	San Juan la Laguna	10	Octubre	2023-10-30T00:00:00	2024-11-08T19:00:00	4	Temperatura máxima	21.4
86283	7	Sololá	717	San Juan la Laguna	12	San Juan la Laguna	10	Octubre	2023-10-30T00:00:00	2024-11-08T19:00:00	3	Temperatura mínima	20.8
86284	7	Sololá	717	San Juan la Laguna	12	San Juan la Laguna	10	Octubre	2023-10-30T00:00:00	2024-11-08T19:00:00	5	Humedad	63
86285	7	Sololá	717	San Juan la Laguna	12	San Juan la Laguna	10	Octubre	2023-10-30T00:00:00	2024-11-08T19:00:00	6	Velocidad del viento	0
86286	7	Sololá	717	San Juan la Laguna	12	San Juan la Laguna	10	Octubre	2023-10-30T00:00:00	2024-11-08T19:00:00	7	Dirección del viento	0
86287	7	Sololá	717	San Juan la Laguna	12	San Juan la Laguna	10	Octubre	2023-10-30T00:00:00	2024-11-08T19:00:00	1	Precipitación	0
86288	7	Sololá	717	San Juan la Laguna	12	San Juan la Laguna	10	Octubre	2023-10-30T00:00:00	2024-11-08T19:00:00	8	Radiación solar	0
86289	7	Sololá	717	San Juan la Laguna	12	San Juan la Laguna	10	Octubre	2023-10-30T00:00:00	2024-11-08T20:00:00	2	Temperatura media	19.4
86290	7	Sololá	717	San Juan la Laguna	12	San Juan la Laguna	10	Octubre	2023-10-30T00:00:00	2024-11-08T20:00:00	4	Temperatura máxima	20.8
86291	7	Sololá	717	San Juan la Laguna	12	San Juan la Laguna	10	Octubre	2023-10-30T00:00:00	2024-11-08T20:00:00	3	Temperatura mínima	19.2
86292	7	Sololá	717	San Juan la Laguna	12	San Juan la Laguna	10	Octubre	2023-10-30T00:00:00	2024-11-08T20:00:00	5	Humedad	69
86293	7	Sololá	717	San Juan la Laguna	12	San Juan la Laguna	10	Octubre	2023-10-30T00:00:00	2024-11-08T20:00:00	6	Velocidad del viento	0
86294	7	Sololá	717	San Juan la Laguna	12	San Juan la Laguna	10	Octubre	2023-10-30T00:00:00	2024-11-08T20:00:00	7	Dirección del viento	0
86295	7	Sololá	717	San Juan la Laguna	12	San Juan la Laguna	10	Octubre	2023-10-30T00:00:00	2024-11-08T20:00:00	1	Precipitación	0
86296	7	Sololá	717	San Juan la Laguna	12	San Juan la Laguna	10	Octubre	2023-10-30T00:00:00	2024-11-08T20:00:00	8	Radiación solar	0
86297	7	Sololá	717	San Juan la Laguna	12	San Juan la Laguna	10	Octubre	2023-10-30T00:00:00	2024-11-08T21:00:00	2	Temperatura media	20.1
86298	7	Sololá	717	San Juan la Laguna	12	San Juan la Laguna	10	Octubre	2023-10-30T00:00:00	2024-11-08T21:00:00	4	Temperatura máxima	20.3
86299	7	Sololá	717	San Juan la Laguna	12	San Juan la Laguna	10	Octubre	2023-10-30T00:00:00	2024-11-08T21:00:00	3	Temperatura mínima	19.4
86300	7	Sololá	717	San Juan la Laguna	12	San Juan la Laguna	10	Octubre	2023-10-30T00:00:00	2024-11-08T21:00:00	5	Humedad	69
86301	7	Sololá	717	San Juan la Laguna	12	San Juan la Laguna	10	Octubre	2023-10-30T00:00:00	2024-11-08T21:00:00	6	Velocidad del viento	0
86302	7	Sololá	717	San Juan la Laguna	12	San Juan la Laguna	10	Octubre	2023-10-30T00:00:00	2024-11-08T21:00:00	7	Dirección del viento	0
86303	7	Sololá	717	San Juan la Laguna	12	San Juan la Laguna	10	Octubre	2023-10-30T00:00:00	2024-11-08T21:00:00	1	Precipitación	0
86304	7	Sololá	717	San Juan la Laguna	12	San Juan la Laguna	10	Octubre	2023-10-30T00:00:00	2024-11-08T21:00:00	8	Radiación solar	0
86305	7	Sololá	717	San Juan la Laguna	12	San Juan la Laguna	10	Octubre	2023-10-30T00:00:00	2024-11-08T22:00:00	2	Temperatura media	19.9
86306	7	Sololá	717	San Juan la Laguna	12	San Juan la Laguna	10	Octubre	2023-10-30T00:00:00	2024-11-08T22:00:00	4	Temperatura máxima	20.2
86307	7	Sololá	717	San Juan la Laguna	12	San Juan la Laguna	10	Octubre	2023-10-30T00:00:00	2024-11-08T22:00:00	3	Temperatura mínima	19.8
86308	7	Sololá	717	San Juan la Laguna	12	San Juan la Laguna	10	Octubre	2023-10-30T00:00:00	2024-11-08T22:00:00	5	Humedad	68
86309	7	Sololá	717	San Juan la Laguna	12	San Juan la Laguna	10	Octubre	2023-10-30T00:00:00	2024-11-08T22:00:00	6	Velocidad del viento	0
86310	7	Sololá	717	San Juan la Laguna	12	San Juan la Laguna	10	Octubre	2023-10-30T00:00:00	2024-11-08T22:00:00	7	Dirección del viento	0
86311	7	Sololá	717	San Juan la Laguna	12	San Juan la Laguna	10	Octubre	2023-10-30T00:00:00	2024-11-08T22:00:00	1	Precipitación	0
86312	7	Sololá	717	San Juan la Laguna	12	San Juan la Laguna	10	Octubre	2023-10-30T00:00:00	2024-11-08T22:00:00	8	Radiación solar	0
86313	7	Sololá	717	San Juan la Laguna	12	San Juan la Laguna	10	Octubre	2023-10-30T00:00:00	2024-11-08T23:00:00	2	Temperatura media	18.4
86314	7	Sololá	717	San Juan la Laguna	12	San Juan la Laguna	10	Octubre	2023-10-30T00:00:00	2024-11-08T23:00:00	4	Temperatura máxima	19.9
86315	7	Sololá	717	San Juan la Laguna	12	San Juan la Laguna	10	Octubre	2023-10-30T00:00:00	2024-11-08T23:00:00	3	Temperatura mínima	18.4
86316	7	Sololá	717	San Juan la Laguna	12	San Juan la Laguna	10	Octubre	2023-10-30T00:00:00	2024-11-08T23:00:00	5	Humedad	75
86317	7	Sololá	717	San Juan la Laguna	12	San Juan la Laguna	10	Octubre	2023-10-30T00:00:00	2024-11-08T23:00:00	6	Velocidad del viento	0
86318	7	Sololá	717	San Juan la Laguna	12	San Juan la Laguna	10	Octubre	2023-10-30T00:00:00	2024-11-08T23:00:00	7	Dirección del viento	0
86319	7	Sololá	717	San Juan la Laguna	12	San Juan la Laguna	10	Octubre	2023-10-30T00:00:00	2024-11-08T23:00:00	1	Precipitación	0
86320	7	Sololá	717	San Juan la Laguna	12	San Juan la Laguna	10	Octubre	2023-10-30T00:00:00	2024-11-08T23:00:00	8	Radiación solar	0
86321	7	Sololá	717	San Juan la Laguna	12	San Juan la Laguna	10	Octubre	2023-10-31T00:00:00	2024-11-08T00:00:00	2	Temperatura media	17.8
86322	7	Sololá	717	San Juan la Laguna	12	San Juan la Laguna	10	Octubre	2023-10-31T00:00:00	2024-11-08T00:00:00	4	Temperatura máxima	18.5
86323	7	Sololá	717	San Juan la Laguna	12	San Juan la Laguna	10	Octubre	2023-10-31T00:00:00	2024-11-08T00:00:00	3	Temperatura mínima	17.8
86324	7	Sololá	717	San Juan la Laguna	12	San Juan la Laguna	10	Octubre	2023-10-31T00:00:00	2024-11-08T00:00:00	5	Humedad	77
86325	7	Sololá	717	San Juan la Laguna	12	San Juan la Laguna	10	Octubre	2023-10-31T00:00:00	2024-11-08T00:00:00	6	Velocidad del viento	0
86326	7	Sololá	717	San Juan la Laguna	12	San Juan la Laguna	10	Octubre	2023-10-31T00:00:00	2024-11-08T00:00:00	7	Dirección del viento	0
86327	7	Sololá	717	San Juan la Laguna	12	San Juan la Laguna	10	Octubre	2023-10-31T00:00:00	2024-11-08T00:00:00	1	Precipitación	0
86328	7	Sololá	717	San Juan la Laguna	12	San Juan la Laguna	10	Octubre	2023-10-31T00:00:00	2024-11-08T00:00:00	8	Radiación solar	0
86329	7	Sololá	717	San Juan la Laguna	12	San Juan la Laguna	10	Octubre	2023-10-31T00:00:00	2024-11-08T01:00:00	2	Temperatura media	18.1
86330	7	Sololá	717	San Juan la Laguna	12	San Juan la Laguna	10	Octubre	2023-10-31T00:00:00	2024-11-08T01:00:00	4	Temperatura máxima	18.3
86331	7	Sololá	717	San Juan la Laguna	12	San Juan la Laguna	10	Octubre	2023-10-31T00:00:00	2024-11-08T01:00:00	3	Temperatura mínima	17.8
86332	7	Sololá	717	San Juan la Laguna	12	San Juan la Laguna	10	Octubre	2023-10-31T00:00:00	2024-11-08T01:00:00	5	Humedad	76
86333	7	Sololá	717	San Juan la Laguna	12	San Juan la Laguna	10	Octubre	2023-10-31T00:00:00	2024-11-08T01:00:00	6	Velocidad del viento	0
86334	7	Sololá	717	San Juan la Laguna	12	San Juan la Laguna	10	Octubre	2023-10-31T00:00:00	2024-11-08T01:00:00	7	Dirección del viento	0
86335	7	Sololá	717	San Juan la Laguna	12	San Juan la Laguna	10	Octubre	2023-10-31T00:00:00	2024-11-08T01:00:00	1	Precipitación	0
86336	7	Sololá	717	San Juan la Laguna	12	San Juan la Laguna	10	Octubre	2023-10-31T00:00:00	2024-11-08T01:00:00	8	Radiación solar	0
86337	7	Sololá	717	San Juan la Laguna	12	San Juan la Laguna	10	Octubre	2023-10-31T00:00:00	2024-11-08T02:00:00	2	Temperatura media	18.2
86338	7	Sololá	717	San Juan la Laguna	12	San Juan la Laguna	10	Octubre	2023-10-31T00:00:00	2024-11-08T02:00:00	4	Temperatura máxima	18.2
86339	7	Sololá	717	San Juan la Laguna	12	San Juan la Laguna	10	Octubre	2023-10-31T00:00:00	2024-11-08T02:00:00	3	Temperatura mínima	17.3
86340	7	Sololá	717	San Juan la Laguna	12	San Juan la Laguna	10	Octubre	2023-10-31T00:00:00	2024-11-08T02:00:00	5	Humedad	74
86341	7	Sololá	717	San Juan la Laguna	12	San Juan la Laguna	10	Octubre	2023-10-31T00:00:00	2024-11-08T02:00:00	6	Velocidad del viento	0
86342	7	Sololá	717	San Juan la Laguna	12	San Juan la Laguna	10	Octubre	2023-10-31T00:00:00	2024-11-08T02:00:00	7	Dirección del viento	0
86343	7	Sololá	717	San Juan la Laguna	12	San Juan la Laguna	10	Octubre	2023-10-31T00:00:00	2024-11-08T02:00:00	1	Precipitación	0
86344	7	Sololá	717	San Juan la Laguna	12	San Juan la Laguna	10	Octubre	2023-10-31T00:00:00	2024-11-08T02:00:00	8	Radiación solar	0
86345	7	Sololá	717	San Juan la Laguna	12	San Juan la Laguna	10	Octubre	2023-10-31T00:00:00	2024-11-08T03:00:00	2	Temperatura media	17.9
86346	7	Sololá	717	San Juan la Laguna	12	San Juan la Laguna	10	Octubre	2023-10-31T00:00:00	2024-11-08T03:00:00	4	Temperatura máxima	18.4
86347	7	Sololá	717	San Juan la Laguna	12	San Juan la Laguna	10	Octubre	2023-10-31T00:00:00	2024-11-08T03:00:00	3	Temperatura mínima	17.9
86348	7	Sololá	717	San Juan la Laguna	12	San Juan la Laguna	10	Octubre	2023-10-31T00:00:00	2024-11-08T03:00:00	5	Humedad	74
86349	7	Sololá	717	San Juan la Laguna	12	San Juan la Laguna	10	Octubre	2023-10-31T00:00:00	2024-11-08T03:00:00	6	Velocidad del viento	0
86350	7	Sololá	717	San Juan la Laguna	12	San Juan la Laguna	10	Octubre	2023-10-31T00:00:00	2024-11-08T03:00:00	7	Dirección del viento	0
86351	7	Sololá	717	San Juan la Laguna	12	San Juan la Laguna	10	Octubre	2023-10-31T00:00:00	2024-11-08T03:00:00	1	Precipitación	0
86352	7	Sololá	717	San Juan la Laguna	12	San Juan la Laguna	10	Octubre	2023-10-31T00:00:00	2024-11-08T03:00:00	8	Radiación solar	0
86353	7	Sololá	717	San Juan la Laguna	12	San Juan la Laguna	10	Octubre	2023-10-31T00:00:00	2024-11-08T04:00:00	2	Temperatura media	17.2
86354	7	Sololá	717	San Juan la Laguna	12	San Juan la Laguna	10	Octubre	2023-10-31T00:00:00	2024-11-08T04:00:00	4	Temperatura máxima	18
86355	7	Sololá	717	San Juan la Laguna	12	San Juan la Laguna	10	Octubre	2023-10-31T00:00:00	2024-11-08T04:00:00	3	Temperatura mínima	17.1
86356	7	Sololá	717	San Juan la Laguna	12	San Juan la Laguna	10	Octubre	2023-10-31T00:00:00	2024-11-08T04:00:00	5	Humedad	78
86357	7	Sololá	717	San Juan la Laguna	12	San Juan la Laguna	10	Octubre	2023-10-31T00:00:00	2024-11-08T04:00:00	6	Velocidad del viento	0
86358	7	Sololá	717	San Juan la Laguna	12	San Juan la Laguna	10	Octubre	2023-10-31T00:00:00	2024-11-08T04:00:00	7	Dirección del viento	0
86359	7	Sololá	717	San Juan la Laguna	12	San Juan la Laguna	10	Octubre	2023-10-31T00:00:00	2024-11-08T04:00:00	1	Precipitación	0
86360	7	Sololá	717	San Juan la Laguna	12	San Juan la Laguna	10	Octubre	2023-10-31T00:00:00	2024-11-08T04:00:00	8	Radiación solar	0
86361	7	Sololá	717	San Juan la Laguna	12	San Juan la Laguna	10	Octubre	2023-10-31T00:00:00	2024-11-08T05:00:00	2	Temperatura media	17.8
86362	7	Sololá	717	San Juan la Laguna	12	San Juan la Laguna	10	Octubre	2023-10-31T00:00:00	2024-11-08T05:00:00	4	Temperatura máxima	17.8
86363	7	Sololá	717	San Juan la Laguna	12	San Juan la Laguna	10	Octubre	2023-10-31T00:00:00	2024-11-08T05:00:00	3	Temperatura mínima	17.1
86364	7	Sololá	717	San Juan la Laguna	12	San Juan la Laguna	10	Octubre	2023-10-31T00:00:00	2024-11-08T05:00:00	5	Humedad	73
86365	7	Sololá	717	San Juan la Laguna	12	San Juan la Laguna	10	Octubre	2023-10-31T00:00:00	2024-11-08T05:00:00	6	Velocidad del viento	0
86366	7	Sololá	717	San Juan la Laguna	12	San Juan la Laguna	10	Octubre	2023-10-31T00:00:00	2024-11-08T05:00:00	7	Dirección del viento	0
86367	7	Sololá	717	San Juan la Laguna	12	San Juan la Laguna	10	Octubre	2023-10-31T00:00:00	2024-11-08T05:00:00	1	Precipitación	0
86368	7	Sololá	717	San Juan la Laguna	12	San Juan la Laguna	10	Octubre	2023-10-31T00:00:00	2024-11-08T05:00:00	8	Radiación solar	0
86369	7	Sololá	717	San Juan la Laguna	12	San Juan la Laguna	10	Octubre	2023-10-31T00:00:00	2024-11-08T06:00:00	2	Temperatura media	18.6
86370	7	Sololá	717	San Juan la Laguna	12	San Juan la Laguna	10	Octubre	2023-10-31T00:00:00	2024-11-08T06:00:00	4	Temperatura máxima	18.8
86371	7	Sololá	717	San Juan la Laguna	12	San Juan la Laguna	10	Octubre	2023-10-31T00:00:00	2024-11-08T06:00:00	3	Temperatura mínima	17.9
86372	7	Sololá	717	San Juan la Laguna	12	San Juan la Laguna	10	Octubre	2023-10-31T00:00:00	2024-11-08T06:00:00	5	Humedad	69
86373	7	Sololá	717	San Juan la Laguna	12	San Juan la Laguna	10	Octubre	2023-10-31T00:00:00	2024-11-08T06:00:00	6	Velocidad del viento	0
86374	7	Sololá	717	San Juan la Laguna	12	San Juan la Laguna	10	Octubre	2023-10-31T00:00:00	2024-11-08T06:00:00	7	Dirección del viento	0
86375	7	Sololá	717	San Juan la Laguna	12	San Juan la Laguna	10	Octubre	2023-10-31T00:00:00	2024-11-08T06:00:00	1	Precipitación	0
86376	7	Sololá	717	San Juan la Laguna	12	San Juan la Laguna	10	Octubre	2023-10-31T00:00:00	2024-11-08T06:00:00	8	Radiación solar	0
86377	7	Sololá	717	San Juan la Laguna	12	San Juan la Laguna	10	Octubre	2023-10-31T00:00:00	2024-11-08T07:00:00	2	Temperatura media	18.1
86378	7	Sololá	717	San Juan la Laguna	12	San Juan la Laguna	10	Octubre	2023-10-31T00:00:00	2024-11-08T07:00:00	4	Temperatura máxima	18.7
86379	7	Sololá	717	San Juan la Laguna	12	San Juan la Laguna	10	Octubre	2023-10-31T00:00:00	2024-11-08T07:00:00	3	Temperatura mínima	17.7
86380	7	Sololá	717	San Juan la Laguna	12	San Juan la Laguna	10	Octubre	2023-10-31T00:00:00	2024-11-08T07:00:00	5	Humedad	75
86381	7	Sololá	717	San Juan la Laguna	12	San Juan la Laguna	10	Octubre	2023-10-31T00:00:00	2024-11-08T07:00:00	6	Velocidad del viento	0
86382	7	Sololá	717	San Juan la Laguna	12	San Juan la Laguna	10	Octubre	2023-10-31T00:00:00	2024-11-08T07:00:00	7	Dirección del viento	0
86383	7	Sololá	717	San Juan la Laguna	12	San Juan la Laguna	10	Octubre	2023-10-31T00:00:00	2024-11-08T07:00:00	1	Precipitación	0
86384	7	Sololá	717	San Juan la Laguna	12	San Juan la Laguna	10	Octubre	2023-10-31T00:00:00	2024-11-08T07:00:00	8	Radiación solar	8
86385	7	Sololá	717	San Juan la Laguna	12	San Juan la Laguna	10	Octubre	2023-10-31T00:00:00	2024-11-08T08:00:00	2	Temperatura media	19.8
86386	7	Sololá	717	San Juan la Laguna	12	San Juan la Laguna	10	Octubre	2023-10-31T00:00:00	2024-11-08T08:00:00	4	Temperatura máxima	19.8
86387	7	Sololá	717	San Juan la Laguna	12	San Juan la Laguna	10	Octubre	2023-10-31T00:00:00	2024-11-08T08:00:00	3	Temperatura mínima	17.9
86388	7	Sololá	717	San Juan la Laguna	12	San Juan la Laguna	10	Octubre	2023-10-31T00:00:00	2024-11-08T08:00:00	5	Humedad	66
86389	7	Sololá	717	San Juan la Laguna	12	San Juan la Laguna	10	Octubre	2023-10-31T00:00:00	2024-11-08T08:00:00	6	Velocidad del viento	0
86390	7	Sololá	717	San Juan la Laguna	12	San Juan la Laguna	10	Octubre	2023-10-31T00:00:00	2024-11-08T08:00:00	7	Dirección del viento	0
86391	7	Sololá	717	San Juan la Laguna	12	San Juan la Laguna	10	Octubre	2023-10-31T00:00:00	2024-11-08T08:00:00	1	Precipitación	0
86392	7	Sololá	717	San Juan la Laguna	12	San Juan la Laguna	10	Octubre	2023-10-31T00:00:00	2024-11-08T08:00:00	8	Radiación solar	81
86393	7	Sololá	717	San Juan la Laguna	12	San Juan la Laguna	10	Octubre	2023-10-31T00:00:00	2024-11-08T09:00:00	2	Temperatura media	20.3
86394	7	Sololá	717	San Juan la Laguna	12	San Juan la Laguna	10	Octubre	2023-10-31T00:00:00	2024-11-08T09:00:00	4	Temperatura máxima	20.3
86395	7	Sololá	717	San Juan la Laguna	12	San Juan la Laguna	10	Octubre	2023-10-31T00:00:00	2024-11-08T09:00:00	3	Temperatura mínima	19.8
86396	7	Sololá	717	San Juan la Laguna	12	San Juan la Laguna	10	Octubre	2023-10-31T00:00:00	2024-11-08T09:00:00	5	Humedad	67
86397	7	Sololá	717	San Juan la Laguna	12	San Juan la Laguna	10	Octubre	2023-10-31T00:00:00	2024-11-08T09:00:00	6	Velocidad del viento	0
86398	7	Sololá	717	San Juan la Laguna	12	San Juan la Laguna	10	Octubre	2023-10-31T00:00:00	2024-11-08T09:00:00	7	Dirección del viento	0
86399	7	Sololá	717	San Juan la Laguna	12	San Juan la Laguna	10	Octubre	2023-10-31T00:00:00	2024-11-08T09:00:00	1	Precipitación	0
86400	7	Sololá	717	San Juan la Laguna	12	San Juan la Laguna	10	Octubre	2023-10-31T00:00:00	2024-11-08T09:00:00	8	Radiación solar	110
86401	7	Sololá	717	San Juan la Laguna	12	San Juan la Laguna	10	Octubre	2023-10-31T00:00:00	2024-11-08T10:00:00	2	Temperatura media	21.1
86402	7	Sololá	717	San Juan la Laguna	12	San Juan la Laguna	10	Octubre	2023-10-31T00:00:00	2024-11-08T10:00:00	4	Temperatura máxima	21.1
86403	7	Sololá	717	San Juan la Laguna	12	San Juan la Laguna	10	Octubre	2023-10-31T00:00:00	2024-11-08T10:00:00	3	Temperatura mínima	19.8
86404	7	Sololá	717	San Juan la Laguna	12	San Juan la Laguna	10	Octubre	2023-10-31T00:00:00	2024-11-08T10:00:00	5	Humedad	63
86405	7	Sololá	717	San Juan la Laguna	12	San Juan la Laguna	10	Octubre	2023-10-31T00:00:00	2024-11-08T10:00:00	6	Velocidad del viento	0
86406	7	Sololá	717	San Juan la Laguna	12	San Juan la Laguna	10	Octubre	2023-10-31T00:00:00	2024-11-08T10:00:00	7	Dirección del viento	0
86407	7	Sololá	717	San Juan la Laguna	12	San Juan la Laguna	10	Octubre	2023-10-31T00:00:00	2024-11-08T10:00:00	1	Precipitación	0
86408	7	Sololá	717	San Juan la Laguna	12	San Juan la Laguna	10	Octubre	2023-10-31T00:00:00	2024-11-08T10:00:00	8	Radiación solar	153
86409	7	Sololá	717	San Juan la Laguna	12	San Juan la Laguna	10	Octubre	2023-10-31T00:00:00	2024-11-08T11:00:00	2	Temperatura media	20.9
86410	7	Sololá	717	San Juan la Laguna	12	San Juan la Laguna	10	Octubre	2023-10-31T00:00:00	2024-11-08T11:00:00	4	Temperatura máxima	21.1
86411	7	Sololá	717	San Juan la Laguna	12	San Juan la Laguna	10	Octubre	2023-10-31T00:00:00	2024-11-08T11:00:00	3	Temperatura mínima	20.9
86412	7	Sololá	717	San Juan la Laguna	12	San Juan la Laguna	10	Octubre	2023-10-31T00:00:00	2024-11-08T11:00:00	5	Humedad	65
86413	7	Sololá	717	San Juan la Laguna	12	San Juan la Laguna	10	Octubre	2023-10-31T00:00:00	2024-11-08T11:00:00	6	Velocidad del viento	0
86414	7	Sololá	717	San Juan la Laguna	12	San Juan la Laguna	10	Octubre	2023-10-31T00:00:00	2024-11-08T11:00:00	7	Dirección del viento	0
86415	7	Sololá	717	San Juan la Laguna	12	San Juan la Laguna	10	Octubre	2023-10-31T00:00:00	2024-11-08T11:00:00	1	Precipitación	0
86416	7	Sololá	717	San Juan la Laguna	12	San Juan la Laguna	10	Octubre	2023-10-31T00:00:00	2024-11-08T11:00:00	8	Radiación solar	156
86417	7	Sololá	717	San Juan la Laguna	12	San Juan la Laguna	10	Octubre	2023-10-31T00:00:00	2024-11-08T12:00:00	2	Temperatura media	21.6
86418	7	Sololá	717	San Juan la Laguna	12	San Juan la Laguna	10	Octubre	2023-10-31T00:00:00	2024-11-08T12:00:00	4	Temperatura máxima	21.6
86419	7	Sololá	717	San Juan la Laguna	12	San Juan la Laguna	10	Octubre	2023-10-31T00:00:00	2024-11-08T12:00:00	3	Temperatura mínima	20.9
86420	7	Sololá	717	San Juan la Laguna	12	San Juan la Laguna	10	Octubre	2023-10-31T00:00:00	2024-11-08T12:00:00	5	Humedad	63
86421	7	Sololá	717	San Juan la Laguna	12	San Juan la Laguna	10	Octubre	2023-10-31T00:00:00	2024-11-08T12:00:00	6	Velocidad del viento	3.2
86422	7	Sololá	717	San Juan la Laguna	12	San Juan la Laguna	10	Octubre	2023-10-31T00:00:00	2024-11-08T12:00:00	7	Dirección del viento	3.22
86423	7	Sololá	717	San Juan la Laguna	12	San Juan la Laguna	10	Octubre	2023-10-31T00:00:00	2024-11-08T12:00:00	1	Precipitación	0
86424	7	Sololá	717	San Juan la Laguna	12	San Juan la Laguna	10	Octubre	2023-10-31T00:00:00	2024-11-08T12:00:00	8	Radiación solar	282
86425	7	Sololá	717	San Juan la Laguna	12	San Juan la Laguna	10	Octubre	2023-10-31T00:00:00	2024-11-08T13:00:00	2	Temperatura media	21.6
86426	7	Sololá	717	San Juan la Laguna	12	San Juan la Laguna	10	Octubre	2023-10-31T00:00:00	2024-11-08T13:00:00	4	Temperatura máxima	21.7
86427	7	Sololá	717	San Juan la Laguna	12	San Juan la Laguna	10	Octubre	2023-10-31T00:00:00	2024-11-08T13:00:00	3	Temperatura mínima	21.4
86428	7	Sololá	717	San Juan la Laguna	12	San Juan la Laguna	10	Octubre	2023-10-31T00:00:00	2024-11-08T13:00:00	5	Humedad	64
86429	7	Sololá	717	San Juan la Laguna	12	San Juan la Laguna	10	Octubre	2023-10-31T00:00:00	2024-11-08T13:00:00	6	Velocidad del viento	1.6
86430	7	Sololá	717	San Juan la Laguna	12	San Juan la Laguna	10	Octubre	2023-10-31T00:00:00	2024-11-08T13:00:00	7	Dirección del viento	1.61
86431	7	Sololá	717	San Juan la Laguna	12	San Juan la Laguna	10	Octubre	2023-10-31T00:00:00	2024-11-08T13:00:00	1	Precipitación	0
86432	7	Sololá	717	San Juan la Laguna	12	San Juan la Laguna	10	Octubre	2023-10-31T00:00:00	2024-11-08T13:00:00	8	Radiación solar	257
86433	7	Sololá	717	San Juan la Laguna	12	San Juan la Laguna	10	Octubre	2023-10-31T00:00:00	2024-11-08T14:00:00	2	Temperatura media	19.9
86434	7	Sololá	717	San Juan la Laguna	12	San Juan la Laguna	10	Octubre	2023-10-31T00:00:00	2024-11-08T14:00:00	4	Temperatura máxima	21.6
86435	7	Sololá	717	San Juan la Laguna	12	San Juan la Laguna	10	Octubre	2023-10-31T00:00:00	2024-11-08T14:00:00	3	Temperatura mínima	19.9
86436	7	Sololá	717	San Juan la Laguna	12	San Juan la Laguna	10	Octubre	2023-10-31T00:00:00	2024-11-08T14:00:00	5	Humedad	70
86437	7	Sololá	717	San Juan la Laguna	12	San Juan la Laguna	10	Octubre	2023-10-31T00:00:00	2024-11-08T14:00:00	6	Velocidad del viento	1.6
86438	7	Sololá	717	San Juan la Laguna	12	San Juan la Laguna	10	Octubre	2023-10-31T00:00:00	2024-11-08T14:00:00	7	Dirección del viento	1.61
86439	7	Sololá	717	San Juan la Laguna	12	San Juan la Laguna	10	Octubre	2023-10-31T00:00:00	2024-11-08T14:00:00	1	Precipitación	0
86440	7	Sololá	717	San Juan la Laguna	12	San Juan la Laguna	10	Octubre	2023-10-31T00:00:00	2024-11-08T14:00:00	8	Radiación solar	166
86441	7	Sololá	717	San Juan la Laguna	12	San Juan la Laguna	10	Octubre	2023-10-31T00:00:00	2024-11-08T15:00:00	2	Temperatura media	19.1
86442	7	Sololá	717	San Juan la Laguna	12	San Juan la Laguna	10	Octubre	2023-10-31T00:00:00	2024-11-08T15:00:00	4	Temperatura máxima	19.9
86443	7	Sololá	717	San Juan la Laguna	12	San Juan la Laguna	10	Octubre	2023-10-31T00:00:00	2024-11-08T15:00:00	3	Temperatura mínima	19.1
86444	7	Sololá	717	San Juan la Laguna	12	San Juan la Laguna	10	Octubre	2023-10-31T00:00:00	2024-11-08T15:00:00	5	Humedad	78
86445	7	Sololá	717	San Juan la Laguna	12	San Juan la Laguna	10	Octubre	2023-10-31T00:00:00	2024-11-08T15:00:00	6	Velocidad del viento	0
86446	7	Sololá	717	San Juan la Laguna	12	San Juan la Laguna	10	Octubre	2023-10-31T00:00:00	2024-11-08T15:00:00	7	Dirección del viento	0
86447	7	Sololá	717	San Juan la Laguna	12	San Juan la Laguna	10	Octubre	2023-10-31T00:00:00	2024-11-08T15:00:00	1	Precipitación	0
86448	7	Sololá	717	San Juan la Laguna	12	San Juan la Laguna	10	Octubre	2023-10-31T00:00:00	2024-11-08T15:00:00	8	Radiación solar	102
86449	7	Sololá	717	San Juan la Laguna	12	San Juan la Laguna	10	Octubre	2023-10-31T00:00:00	2024-11-08T16:00:00	2	Temperatura media	17.6
86450	7	Sololá	717	San Juan la Laguna	12	San Juan la Laguna	10	Octubre	2023-10-31T00:00:00	2024-11-08T16:00:00	4	Temperatura máxima	19.2
86451	7	Sololá	717	San Juan la Laguna	12	San Juan la Laguna	10	Octubre	2023-10-31T00:00:00	2024-11-08T16:00:00	3	Temperatura mínima	17.5
86452	7	Sololá	717	San Juan la Laguna	12	San Juan la Laguna	10	Octubre	2023-10-31T00:00:00	2024-11-08T16:00:00	5	Humedad	87
86453	7	Sololá	717	San Juan la Laguna	12	San Juan la Laguna	10	Octubre	2023-10-31T00:00:00	2024-11-08T16:00:00	6	Velocidad del viento	0
86454	7	Sololá	717	San Juan la Laguna	12	San Juan la Laguna	10	Octubre	2023-10-31T00:00:00	2024-11-08T16:00:00	7	Dirección del viento	0
86455	7	Sololá	717	San Juan la Laguna	12	San Juan la Laguna	10	Octubre	2023-10-31T00:00:00	2024-11-08T16:00:00	1	Precipitación	0.6
86456	7	Sololá	717	San Juan la Laguna	12	San Juan la Laguna	10	Octubre	2023-10-31T00:00:00	2024-11-08T16:00:00	8	Radiación solar	54
86457	7	Sololá	717	San Juan la Laguna	12	San Juan la Laguna	10	Octubre	2023-10-31T00:00:00	2024-11-08T17:00:00	2	Temperatura media	16.9
86458	7	Sololá	717	San Juan la Laguna	12	San Juan la Laguna	10	Octubre	2023-10-31T00:00:00	2024-11-08T17:00:00	4	Temperatura máxima	17.6
86459	7	Sololá	717	San Juan la Laguna	12	San Juan la Laguna	10	Octubre	2023-10-31T00:00:00	2024-11-08T17:00:00	3	Temperatura mínima	16.8
86460	7	Sololá	717	San Juan la Laguna	12	San Juan la Laguna	10	Octubre	2023-10-31T00:00:00	2024-11-08T17:00:00	5	Humedad	89
86461	7	Sololá	717	San Juan la Laguna	12	San Juan la Laguna	10	Octubre	2023-10-31T00:00:00	2024-11-08T17:00:00	6	Velocidad del viento	0
86462	7	Sololá	717	San Juan la Laguna	12	San Juan la Laguna	10	Octubre	2023-10-31T00:00:00	2024-11-08T17:00:00	7	Dirección del viento	0
86463	7	Sololá	717	San Juan la Laguna	12	San Juan la Laguna	10	Octubre	2023-10-31T00:00:00	2024-11-08T17:00:00	1	Precipitación	1
86464	7	Sololá	717	San Juan la Laguna	12	San Juan la Laguna	10	Octubre	2023-10-31T00:00:00	2024-11-08T17:00:00	8	Radiación solar	24
86465	7	Sololá	717	San Juan la Laguna	12	San Juan la Laguna	10	Octubre	2023-10-31T00:00:00	2024-11-08T18:00:00	2	Temperatura media	16.5
86466	7	Sololá	717	San Juan la Laguna	12	San Juan la Laguna	10	Octubre	2023-10-31T00:00:00	2024-11-08T18:00:00	4	Temperatura máxima	16.9
86467	7	Sololá	717	San Juan la Laguna	12	San Juan la Laguna	10	Octubre	2023-10-31T00:00:00	2024-11-08T18:00:00	3	Temperatura mínima	16.5
86468	7	Sololá	717	San Juan la Laguna	12	San Juan la Laguna	10	Octubre	2023-10-31T00:00:00	2024-11-08T18:00:00	5	Humedad	90
86469	7	Sololá	717	San Juan la Laguna	12	San Juan la Laguna	10	Octubre	2023-10-31T00:00:00	2024-11-08T18:00:00	6	Velocidad del viento	0
86470	7	Sololá	717	San Juan la Laguna	12	San Juan la Laguna	10	Octubre	2023-10-31T00:00:00	2024-11-08T18:00:00	7	Dirección del viento	0
86471	7	Sololá	717	San Juan la Laguna	12	San Juan la Laguna	10	Octubre	2023-10-31T00:00:00	2024-11-08T18:00:00	1	Precipitación	0.4
86472	7	Sololá	717	San Juan la Laguna	12	San Juan la Laguna	10	Octubre	2023-10-31T00:00:00	2024-11-08T18:00:00	8	Radiación solar	3
86473	7	Sololá	717	San Juan la Laguna	12	San Juan la Laguna	10	Octubre	2023-10-31T00:00:00	2024-11-08T19:00:00	2	Temperatura media	16.2
86474	7	Sololá	717	San Juan la Laguna	12	San Juan la Laguna	10	Octubre	2023-10-31T00:00:00	2024-11-08T19:00:00	4	Temperatura máxima	16.5
86475	7	Sololá	717	San Juan la Laguna	12	San Juan la Laguna	10	Octubre	2023-10-31T00:00:00	2024-11-08T19:00:00	3	Temperatura mínima	16.2
86476	7	Sololá	717	San Juan la Laguna	12	San Juan la Laguna	10	Octubre	2023-10-31T00:00:00	2024-11-08T19:00:00	5	Humedad	90
86477	7	Sololá	717	San Juan la Laguna	12	San Juan la Laguna	10	Octubre	2023-10-31T00:00:00	2024-11-08T19:00:00	6	Velocidad del viento	0
86478	7	Sololá	717	San Juan la Laguna	12	San Juan la Laguna	10	Octubre	2023-10-31T00:00:00	2024-11-08T19:00:00	7	Dirección del viento	0
86479	7	Sololá	717	San Juan la Laguna	12	San Juan la Laguna	10	Octubre	2023-10-31T00:00:00	2024-11-08T19:00:00	1	Precipitación	0.6
86480	7	Sololá	717	San Juan la Laguna	12	San Juan la Laguna	10	Octubre	2023-10-31T00:00:00	2024-11-08T19:00:00	8	Radiación solar	0
86481	7	Sololá	717	San Juan la Laguna	12	San Juan la Laguna	10	Octubre	2023-10-31T00:00:00	2024-11-08T20:00:00	2	Temperatura media	15.9
86482	7	Sololá	717	San Juan la Laguna	12	San Juan la Laguna	10	Octubre	2023-10-31T00:00:00	2024-11-08T20:00:00	4	Temperatura máxima	16.2
86483	7	Sololá	717	San Juan la Laguna	12	San Juan la Laguna	10	Octubre	2023-10-31T00:00:00	2024-11-08T20:00:00	3	Temperatura mínima	15.9
86484	7	Sololá	717	San Juan la Laguna	12	San Juan la Laguna	10	Octubre	2023-10-31T00:00:00	2024-11-08T20:00:00	5	Humedad	89
86485	7	Sololá	717	San Juan la Laguna	12	San Juan la Laguna	10	Octubre	2023-10-31T00:00:00	2024-11-08T20:00:00	6	Velocidad del viento	0
86486	7	Sololá	717	San Juan la Laguna	12	San Juan la Laguna	10	Octubre	2023-10-31T00:00:00	2024-11-08T20:00:00	7	Dirección del viento	0
86487	7	Sololá	717	San Juan la Laguna	12	San Juan la Laguna	10	Octubre	2023-10-31T00:00:00	2024-11-08T20:00:00	1	Precipitación	0.2
86488	7	Sololá	717	San Juan la Laguna	12	San Juan la Laguna	10	Octubre	2023-10-31T00:00:00	2024-11-08T20:00:00	8	Radiación solar	0
86489	7	Sololá	717	San Juan la Laguna	12	San Juan la Laguna	10	Octubre	2023-10-31T00:00:00	2024-11-08T21:00:00	2	Temperatura media	15.8
86490	7	Sololá	717	San Juan la Laguna	12	San Juan la Laguna	10	Octubre	2023-10-31T00:00:00	2024-11-08T21:00:00	4	Temperatura máxima	16
86491	7	Sololá	717	San Juan la Laguna	12	San Juan la Laguna	10	Octubre	2023-10-31T00:00:00	2024-11-08T21:00:00	3	Temperatura mínima	15.8
86492	7	Sololá	717	San Juan la Laguna	12	San Juan la Laguna	10	Octubre	2023-10-31T00:00:00	2024-11-08T21:00:00	5	Humedad	89
86493	7	Sololá	717	San Juan la Laguna	12	San Juan la Laguna	10	Octubre	2023-10-31T00:00:00	2024-11-08T21:00:00	6	Velocidad del viento	0
86494	7	Sololá	717	San Juan la Laguna	12	San Juan la Laguna	10	Octubre	2023-10-31T00:00:00	2024-11-08T21:00:00	7	Dirección del viento	0
86495	7	Sololá	717	San Juan la Laguna	12	San Juan la Laguna	10	Octubre	2023-10-31T00:00:00	2024-11-08T21:00:00	1	Precipitación	0.2
86496	7	Sololá	717	San Juan la Laguna	12	San Juan la Laguna	10	Octubre	2023-10-31T00:00:00	2024-11-08T21:00:00	8	Radiación solar	0
86497	7	Sololá	717	San Juan la Laguna	12	San Juan la Laguna	10	Octubre	2023-10-31T00:00:00	2024-11-08T22:00:00	2	Temperatura media	16.3
86498	7	Sololá	717	San Juan la Laguna	12	San Juan la Laguna	10	Octubre	2023-10-31T00:00:00	2024-11-08T22:00:00	4	Temperatura máxima	16.5
86499	7	Sololá	717	San Juan la Laguna	12	San Juan la Laguna	10	Octubre	2023-10-31T00:00:00	2024-11-08T22:00:00	3	Temperatura mínima	15.8
86500	7	Sololá	717	San Juan la Laguna	12	San Juan la Laguna	10	Octubre	2023-10-31T00:00:00	2024-11-08T22:00:00	5	Humedad	86
86501	7	Sololá	717	San Juan la Laguna	12	San Juan la Laguna	10	Octubre	2023-10-31T00:00:00	2024-11-08T22:00:00	6	Velocidad del viento	0
86502	7	Sololá	717	San Juan la Laguna	12	San Juan la Laguna	10	Octubre	2023-10-31T00:00:00	2024-11-08T22:00:00	7	Dirección del viento	0
86503	7	Sololá	717	San Juan la Laguna	12	San Juan la Laguna	10	Octubre	2023-10-31T00:00:00	2024-11-08T22:00:00	1	Precipitación	0
86504	7	Sololá	717	San Juan la Laguna	12	San Juan la Laguna	10	Octubre	2023-10-31T00:00:00	2024-11-08T22:00:00	8	Radiación solar	0
86505	7	Sololá	717	San Juan la Laguna	12	San Juan la Laguna	10	Octubre	2023-10-31T00:00:00	2024-11-08T23:00:00	2	Temperatura media	15.9
86506	7	Sololá	717	San Juan la Laguna	12	San Juan la Laguna	10	Octubre	2023-10-31T00:00:00	2024-11-08T23:00:00	4	Temperatura máxima	16.3
86507	7	Sololá	717	San Juan la Laguna	12	San Juan la Laguna	10	Octubre	2023-10-31T00:00:00	2024-11-08T23:00:00	3	Temperatura mínima	15.8
86508	7	Sololá	717	San Juan la Laguna	12	San Juan la Laguna	10	Octubre	2023-10-31T00:00:00	2024-11-08T23:00:00	5	Humedad	88
86509	7	Sololá	717	San Juan la Laguna	12	San Juan la Laguna	10	Octubre	2023-10-31T00:00:00	2024-11-08T23:00:00	6	Velocidad del viento	0
86510	7	Sololá	717	San Juan la Laguna	12	San Juan la Laguna	10	Octubre	2023-10-31T00:00:00	2024-11-08T23:00:00	7	Dirección del viento	0
86511	7	Sololá	717	San Juan la Laguna	12	San Juan la Laguna	10	Octubre	2023-10-31T00:00:00	2024-11-08T23:00:00	1	Precipitación	0
86512	7	Sololá	717	San Juan la Laguna	12	San Juan la Laguna	10	Octubre	2023-10-31T00:00:00	2024-11-08T23:00:00	8	Radiación solar	0
86513	7	Sololá	717	San Juan la Laguna	12	San Juan la Laguna	11	Noviembre	2023-01-11T00:00:00	2024-11-08T00:00:00	2	Temperatura media	15.8
86514	7	Sololá	717	San Juan la Laguna	12	San Juan la Laguna	11	Noviembre	2023-01-11T00:00:00	2024-11-08T00:00:00	4	Temperatura máxima	15.9
86515	7	Sololá	717	San Juan la Laguna	12	San Juan la Laguna	11	Noviembre	2023-01-11T00:00:00	2024-11-08T00:00:00	3	Temperatura mínima	15.6
86516	7	Sololá	717	San Juan la Laguna	12	San Juan la Laguna	11	Noviembre	2023-01-11T00:00:00	2024-11-08T00:00:00	5	Humedad	88
86517	7	Sololá	717	San Juan la Laguna	12	San Juan la Laguna	11	Noviembre	2023-01-11T00:00:00	2024-11-08T00:00:00	6	Velocidad del viento	1.6
86518	7	Sololá	717	San Juan la Laguna	12	San Juan la Laguna	11	Noviembre	2023-01-11T00:00:00	2024-11-08T00:00:00	7	Dirección del viento	1.61
86519	7	Sololá	717	San Juan la Laguna	12	San Juan la Laguna	11	Noviembre	2023-01-11T00:00:00	2024-11-08T00:00:00	1	Precipitación	0
86520	7	Sololá	717	San Juan la Laguna	12	San Juan la Laguna	11	Noviembre	2023-01-11T00:00:00	2024-11-08T00:00:00	8	Radiación solar	0
86521	7	Sololá	717	San Juan la Laguna	12	San Juan la Laguna	11	Noviembre	2023-01-11T00:00:00	2024-11-08T01:00:00	2	Temperatura media	16.7
86522	7	Sololá	717	San Juan la Laguna	12	San Juan la Laguna	11	Noviembre	2023-01-11T00:00:00	2024-11-08T01:00:00	4	Temperatura máxima	16.7
86523	7	Sololá	717	San Juan la Laguna	12	San Juan la Laguna	11	Noviembre	2023-01-11T00:00:00	2024-11-08T01:00:00	3	Temperatura mínima	15.7
86524	7	Sololá	717	San Juan la Laguna	12	San Juan la Laguna	11	Noviembre	2023-01-11T00:00:00	2024-11-08T01:00:00	5	Humedad	84
86525	7	Sololá	717	San Juan la Laguna	12	San Juan la Laguna	11	Noviembre	2023-01-11T00:00:00	2024-11-08T01:00:00	6	Velocidad del viento	1.6
86526	7	Sololá	717	San Juan la Laguna	12	San Juan la Laguna	11	Noviembre	2023-01-11T00:00:00	2024-11-08T01:00:00	7	Dirección del viento	1.61
86527	7	Sololá	717	San Juan la Laguna	12	San Juan la Laguna	11	Noviembre	2023-01-11T00:00:00	2024-11-08T01:00:00	1	Precipitación	0.2
86528	7	Sololá	717	San Juan la Laguna	12	San Juan la Laguna	11	Noviembre	2023-01-11T00:00:00	2024-11-08T01:00:00	8	Radiación solar	0
86529	7	Sololá	717	San Juan la Laguna	12	San Juan la Laguna	11	Noviembre	2023-01-11T00:00:00	2024-11-08T02:00:00	2	Temperatura media	17.2
86530	7	Sololá	717	San Juan la Laguna	12	San Juan la Laguna	11	Noviembre	2023-01-11T00:00:00	2024-11-08T02:00:00	4	Temperatura máxima	17.2
86531	7	Sololá	717	San Juan la Laguna	12	San Juan la Laguna	11	Noviembre	2023-01-11T00:00:00	2024-11-08T02:00:00	3	Temperatura mínima	15.4
86532	7	Sololá	717	San Juan la Laguna	12	San Juan la Laguna	11	Noviembre	2023-01-11T00:00:00	2024-11-08T02:00:00	5	Humedad	74
86533	7	Sololá	717	San Juan la Laguna	12	San Juan la Laguna	11	Noviembre	2023-01-11T00:00:00	2024-11-08T02:00:00	6	Velocidad del viento	0
86534	7	Sololá	717	San Juan la Laguna	12	San Juan la Laguna	11	Noviembre	2023-01-11T00:00:00	2024-11-08T02:00:00	7	Dirección del viento	0
86535	7	Sololá	717	San Juan la Laguna	12	San Juan la Laguna	11	Noviembre	2023-01-11T00:00:00	2024-11-08T02:00:00	1	Precipitación	0.2
86536	7	Sololá	717	San Juan la Laguna	12	San Juan la Laguna	11	Noviembre	2023-01-11T00:00:00	2024-11-08T02:00:00	8	Radiación solar	0
86537	7	Sololá	717	San Juan la Laguna	12	San Juan la Laguna	11	Noviembre	2023-01-11T00:00:00	2024-11-08T03:00:00	2	Temperatura media	17.2
86538	7	Sololá	717	San Juan la Laguna	12	San Juan la Laguna	11	Noviembre	2023-01-11T00:00:00	2024-11-08T03:00:00	4	Temperatura máxima	17.6
86539	7	Sololá	717	San Juan la Laguna	12	San Juan la Laguna	11	Noviembre	2023-01-11T00:00:00	2024-11-08T03:00:00	3	Temperatura mínima	16.9
86540	7	Sololá	717	San Juan la Laguna	12	San Juan la Laguna	11	Noviembre	2023-01-11T00:00:00	2024-11-08T03:00:00	5	Humedad	76
86541	7	Sololá	717	San Juan la Laguna	12	San Juan la Laguna	11	Noviembre	2023-01-11T00:00:00	2024-11-08T03:00:00	6	Velocidad del viento	0
86542	7	Sololá	717	San Juan la Laguna	12	San Juan la Laguna	11	Noviembre	2023-01-11T00:00:00	2024-11-08T03:00:00	7	Dirección del viento	0
86543	7	Sololá	717	San Juan la Laguna	12	San Juan la Laguna	11	Noviembre	2023-01-11T00:00:00	2024-11-08T03:00:00	1	Precipitación	0
86544	7	Sololá	717	San Juan la Laguna	12	San Juan la Laguna	11	Noviembre	2023-01-11T00:00:00	2024-11-08T03:00:00	8	Radiación solar	0
86545	7	Sololá	717	San Juan la Laguna	12	San Juan la Laguna	11	Noviembre	2023-01-11T00:00:00	2024-11-08T04:00:00	2	Temperatura media	17.3
86546	7	Sololá	717	San Juan la Laguna	12	San Juan la Laguna	11	Noviembre	2023-01-11T00:00:00	2024-11-08T04:00:00	4	Temperatura máxima	17.6
86547	7	Sololá	717	San Juan la Laguna	12	San Juan la Laguna	11	Noviembre	2023-01-11T00:00:00	2024-11-08T04:00:00	3	Temperatura mínima	16.8
86548	7	Sololá	717	San Juan la Laguna	12	San Juan la Laguna	11	Noviembre	2023-01-11T00:00:00	2024-11-08T04:00:00	5	Humedad	74
86549	7	Sololá	717	San Juan la Laguna	12	San Juan la Laguna	11	Noviembre	2023-01-11T00:00:00	2024-11-08T04:00:00	6	Velocidad del viento	0
86550	7	Sololá	717	San Juan la Laguna	12	San Juan la Laguna	11	Noviembre	2023-01-11T00:00:00	2024-11-08T04:00:00	7	Dirección del viento	0
86551	7	Sololá	717	San Juan la Laguna	12	San Juan la Laguna	11	Noviembre	2023-01-11T00:00:00	2024-11-08T04:00:00	1	Precipitación	0
86552	7	Sololá	717	San Juan la Laguna	12	San Juan la Laguna	11	Noviembre	2023-01-11T00:00:00	2024-11-08T04:00:00	8	Radiación solar	0
86553	7	Sololá	717	San Juan la Laguna	12	San Juan la Laguna	11	Noviembre	2023-01-11T00:00:00	2024-11-08T05:00:00	2	Temperatura media	16.2
86554	7	Sololá	717	San Juan la Laguna	12	San Juan la Laguna	11	Noviembre	2023-01-11T00:00:00	2024-11-08T05:00:00	4	Temperatura máxima	17.3
86555	7	Sololá	717	San Juan la Laguna	12	San Juan la Laguna	11	Noviembre	2023-01-11T00:00:00	2024-11-08T05:00:00	3	Temperatura mínima	15.7
86556	7	Sololá	717	San Juan la Laguna	12	San Juan la Laguna	11	Noviembre	2023-01-11T00:00:00	2024-11-08T05:00:00	5	Humedad	83
86557	7	Sololá	717	San Juan la Laguna	12	San Juan la Laguna	11	Noviembre	2023-01-11T00:00:00	2024-11-08T05:00:00	6	Velocidad del viento	0
86558	7	Sololá	717	San Juan la Laguna	12	San Juan la Laguna	11	Noviembre	2023-01-11T00:00:00	2024-11-08T05:00:00	7	Dirección del viento	0
86559	7	Sololá	717	San Juan la Laguna	12	San Juan la Laguna	11	Noviembre	2023-01-11T00:00:00	2024-11-08T05:00:00	1	Precipitación	0.2
86560	7	Sololá	717	San Juan la Laguna	12	San Juan la Laguna	11	Noviembre	2023-01-11T00:00:00	2024-11-08T05:00:00	8	Radiación solar	0
86561	7	Sololá	717	San Juan la Laguna	12	San Juan la Laguna	11	Noviembre	2023-01-11T00:00:00	2024-11-08T06:00:00	2	Temperatura media	15.4
86562	7	Sololá	717	San Juan la Laguna	12	San Juan la Laguna	11	Noviembre	2023-01-11T00:00:00	2024-11-08T06:00:00	4	Temperatura máxima	16.2
86563	7	Sololá	717	San Juan la Laguna	12	San Juan la Laguna	11	Noviembre	2023-01-11T00:00:00	2024-11-08T06:00:00	3	Temperatura mínima	15.2
86564	7	Sololá	717	San Juan la Laguna	12	San Juan la Laguna	11	Noviembre	2023-01-11T00:00:00	2024-11-08T06:00:00	5	Humedad	89
86565	7	Sololá	717	San Juan la Laguna	12	San Juan la Laguna	11	Noviembre	2023-01-11T00:00:00	2024-11-08T06:00:00	6	Velocidad del viento	0
86566	7	Sololá	717	San Juan la Laguna	12	San Juan la Laguna	11	Noviembre	2023-01-11T00:00:00	2024-11-08T06:00:00	7	Dirección del viento	0
86567	7	Sololá	717	San Juan la Laguna	12	San Juan la Laguna	11	Noviembre	2023-01-11T00:00:00	2024-11-08T06:00:00	1	Precipitación	0
86568	7	Sololá	717	San Juan la Laguna	12	San Juan la Laguna	11	Noviembre	2023-01-11T00:00:00	2024-11-08T06:00:00	8	Radiación solar	0
86569	7	Sololá	717	San Juan la Laguna	12	San Juan la Laguna	11	Noviembre	2023-01-11T00:00:00	2024-11-08T07:00:00	2	Temperatura media	17.1
86570	7	Sololá	717	San Juan la Laguna	12	San Juan la Laguna	11	Noviembre	2023-01-11T00:00:00	2024-11-08T07:00:00	4	Temperatura máxima	17.1
86571	7	Sololá	717	San Juan la Laguna	12	San Juan la Laguna	11	Noviembre	2023-01-11T00:00:00	2024-11-08T07:00:00	3	Temperatura mínima	15.3
86572	7	Sololá	717	San Juan la Laguna	12	San Juan la Laguna	11	Noviembre	2023-01-11T00:00:00	2024-11-08T07:00:00	5	Humedad	82
86573	7	Sololá	717	San Juan la Laguna	12	San Juan la Laguna	11	Noviembre	2023-01-11T00:00:00	2024-11-08T07:00:00	6	Velocidad del viento	0
86574	7	Sololá	717	San Juan la Laguna	12	San Juan la Laguna	11	Noviembre	2023-01-11T00:00:00	2024-11-08T07:00:00	7	Dirección del viento	0
86575	7	Sololá	717	San Juan la Laguna	12	San Juan la Laguna	11	Noviembre	2023-01-11T00:00:00	2024-11-08T07:00:00	1	Precipitación	0.8
86576	7	Sololá	717	San Juan la Laguna	12	San Juan la Laguna	11	Noviembre	2023-01-11T00:00:00	2024-11-08T07:00:00	8	Radiación solar	6
86577	7	Sololá	717	San Juan la Laguna	12	San Juan la Laguna	11	Noviembre	2023-01-11T00:00:00	2024-11-08T08:00:00	2	Temperatura media	17.7
86578	7	Sololá	717	San Juan la Laguna	12	San Juan la Laguna	11	Noviembre	2023-01-11T00:00:00	2024-11-08T08:00:00	4	Temperatura máxima	17.7
86579	7	Sololá	717	San Juan la Laguna	12	San Juan la Laguna	11	Noviembre	2023-01-11T00:00:00	2024-11-08T08:00:00	3	Temperatura mínima	16.9
86580	7	Sololá	717	San Juan la Laguna	12	San Juan la Laguna	11	Noviembre	2023-01-11T00:00:00	2024-11-08T08:00:00	5	Humedad	80
86581	7	Sololá	717	San Juan la Laguna	12	San Juan la Laguna	11	Noviembre	2023-01-11T00:00:00	2024-11-08T08:00:00	6	Velocidad del viento	0
86582	7	Sololá	717	San Juan la Laguna	12	San Juan la Laguna	11	Noviembre	2023-01-11T00:00:00	2024-11-08T08:00:00	7	Dirección del viento	0
86583	7	Sololá	717	San Juan la Laguna	12	San Juan la Laguna	11	Noviembre	2023-01-11T00:00:00	2024-11-08T08:00:00	1	Precipitación	0.4
86584	7	Sololá	717	San Juan la Laguna	12	San Juan la Laguna	11	Noviembre	2023-01-11T00:00:00	2024-11-08T08:00:00	8	Radiación solar	50
86585	7	Sololá	717	San Juan la Laguna	12	San Juan la Laguna	11	Noviembre	2023-01-11T00:00:00	2024-11-08T09:00:00	2	Temperatura media	18.1
86586	7	Sololá	717	San Juan la Laguna	12	San Juan la Laguna	11	Noviembre	2023-01-11T00:00:00	2024-11-08T09:00:00	4	Temperatura máxima	18.3
86587	7	Sololá	717	San Juan la Laguna	12	San Juan la Laguna	11	Noviembre	2023-01-11T00:00:00	2024-11-08T09:00:00	3	Temperatura mínima	17.7
86588	7	Sololá	717	San Juan la Laguna	12	San Juan la Laguna	11	Noviembre	2023-01-11T00:00:00	2024-11-08T09:00:00	5	Humedad	78
86589	7	Sololá	717	San Juan la Laguna	12	San Juan la Laguna	11	Noviembre	2023-01-11T00:00:00	2024-11-08T09:00:00	6	Velocidad del viento	3.2
86590	7	Sololá	717	San Juan la Laguna	12	San Juan la Laguna	11	Noviembre	2023-01-11T00:00:00	2024-11-08T09:00:00	7	Dirección del viento	3.22
86591	7	Sololá	717	San Juan la Laguna	12	San Juan la Laguna	11	Noviembre	2023-01-11T00:00:00	2024-11-08T09:00:00	1	Precipitación	0.2
86592	7	Sololá	717	San Juan la Laguna	12	San Juan la Laguna	11	Noviembre	2023-01-11T00:00:00	2024-11-08T09:00:00	8	Radiación solar	94
86593	7	Sololá	717	San Juan la Laguna	12	San Juan la Laguna	11	Noviembre	2023-01-11T00:00:00	2024-11-08T10:00:00	2	Temperatura media	18.8
86594	7	Sololá	717	San Juan la Laguna	12	San Juan la Laguna	11	Noviembre	2023-01-11T00:00:00	2024-11-08T10:00:00	4	Temperatura máxima	18.8
86595	7	Sololá	717	San Juan la Laguna	12	San Juan la Laguna	11	Noviembre	2023-01-11T00:00:00	2024-11-08T10:00:00	3	Temperatura mínima	18.1
86596	7	Sololá	717	San Juan la Laguna	12	San Juan la Laguna	11	Noviembre	2023-01-11T00:00:00	2024-11-08T10:00:00	5	Humedad	75
86597	7	Sololá	717	San Juan la Laguna	12	San Juan la Laguna	11	Noviembre	2023-01-11T00:00:00	2024-11-08T10:00:00	6	Velocidad del viento	4.8
86598	7	Sololá	717	San Juan la Laguna	12	San Juan la Laguna	11	Noviembre	2023-01-11T00:00:00	2024-11-08T10:00:00	7	Dirección del viento	4.83
86599	7	Sololá	717	San Juan la Laguna	12	San Juan la Laguna	11	Noviembre	2023-01-11T00:00:00	2024-11-08T10:00:00	1	Precipitación	0.2
86600	7	Sololá	717	San Juan la Laguna	12	San Juan la Laguna	11	Noviembre	2023-01-11T00:00:00	2024-11-08T10:00:00	8	Radiación solar	101
86601	7	Sololá	717	San Juan la Laguna	12	San Juan la Laguna	11	Noviembre	2023-01-11T00:00:00	2024-11-08T11:00:00	2	Temperatura media	20
86602	7	Sololá	717	San Juan la Laguna	12	San Juan la Laguna	11	Noviembre	2023-01-11T00:00:00	2024-11-08T11:00:00	4	Temperatura máxima	20.1
86603	7	Sololá	717	San Juan la Laguna	12	San Juan la Laguna	11	Noviembre	2023-01-11T00:00:00	2024-11-08T11:00:00	3	Temperatura mínima	18.8
86604	7	Sololá	717	San Juan la Laguna	12	San Juan la Laguna	11	Noviembre	2023-01-11T00:00:00	2024-11-08T11:00:00	5	Humedad	69
86605	7	Sololá	717	San Juan la Laguna	12	San Juan la Laguna	11	Noviembre	2023-01-11T00:00:00	2024-11-08T11:00:00	6	Velocidad del viento	3.2
86606	7	Sololá	717	San Juan la Laguna	12	San Juan la Laguna	11	Noviembre	2023-01-11T00:00:00	2024-11-08T11:00:00	7	Dirección del viento	3.22
86607	7	Sololá	717	San Juan la Laguna	12	San Juan la Laguna	11	Noviembre	2023-01-11T00:00:00	2024-11-08T11:00:00	1	Precipitación	0
86608	7	Sololá	717	San Juan la Laguna	12	San Juan la Laguna	11	Noviembre	2023-01-11T00:00:00	2024-11-08T11:00:00	8	Radiación solar	171
86609	7	Sololá	717	San Juan la Laguna	12	San Juan la Laguna	11	Noviembre	2023-01-11T00:00:00	2024-11-08T12:00:00	2	Temperatura media	19.9
86610	7	Sololá	717	San Juan la Laguna	12	San Juan la Laguna	11	Noviembre	2023-01-11T00:00:00	2024-11-08T12:00:00	4	Temperatura máxima	20.2
86611	7	Sololá	717	San Juan la Laguna	12	San Juan la Laguna	11	Noviembre	2023-01-11T00:00:00	2024-11-08T12:00:00	3	Temperatura mínima	19.8
86612	7	Sololá	717	San Juan la Laguna	12	San Juan la Laguna	11	Noviembre	2023-01-11T00:00:00	2024-11-08T12:00:00	5	Humedad	70
86613	7	Sololá	717	San Juan la Laguna	12	San Juan la Laguna	11	Noviembre	2023-01-11T00:00:00	2024-11-08T12:00:00	6	Velocidad del viento	4.8
86614	7	Sololá	717	San Juan la Laguna	12	San Juan la Laguna	11	Noviembre	2023-01-11T00:00:00	2024-11-08T12:00:00	7	Dirección del viento	4.83
86615	7	Sololá	717	San Juan la Laguna	12	San Juan la Laguna	11	Noviembre	2023-01-11T00:00:00	2024-11-08T12:00:00	1	Precipitación	0
86616	7	Sololá	717	San Juan la Laguna	12	San Juan la Laguna	11	Noviembre	2023-01-11T00:00:00	2024-11-08T12:00:00	8	Radiación solar	147
86617	7	Sololá	717	San Juan la Laguna	12	San Juan la Laguna	11	Noviembre	2023-01-11T00:00:00	2024-11-08T13:00:00	2	Temperatura media	19.7
86618	7	Sololá	717	San Juan la Laguna	12	San Juan la Laguna	11	Noviembre	2023-01-11T00:00:00	2024-11-08T13:00:00	4	Temperatura máxima	20.1
86619	7	Sololá	717	San Juan la Laguna	12	San Juan la Laguna	11	Noviembre	2023-01-11T00:00:00	2024-11-08T13:00:00	3	Temperatura mínima	19.6
86620	7	Sololá	717	San Juan la Laguna	12	San Juan la Laguna	11	Noviembre	2023-01-11T00:00:00	2024-11-08T13:00:00	5	Humedad	72
86621	7	Sololá	717	San Juan la Laguna	12	San Juan la Laguna	11	Noviembre	2023-01-11T00:00:00	2024-11-08T13:00:00	6	Velocidad del viento	3.2
86622	7	Sololá	717	San Juan la Laguna	12	San Juan la Laguna	11	Noviembre	2023-01-11T00:00:00	2024-11-08T13:00:00	7	Dirección del viento	3.22
86623	7	Sololá	717	San Juan la Laguna	12	San Juan la Laguna	11	Noviembre	2023-01-11T00:00:00	2024-11-08T13:00:00	1	Precipitación	0
86624	7	Sololá	717	San Juan la Laguna	12	San Juan la Laguna	11	Noviembre	2023-01-11T00:00:00	2024-11-08T13:00:00	8	Radiación solar	120
86625	7	Sololá	717	San Juan la Laguna	12	San Juan la Laguna	11	Noviembre	2023-01-11T00:00:00	2024-11-08T14:00:00	2	Temperatura media	19.9
86626	7	Sololá	717	San Juan la Laguna	12	San Juan la Laguna	11	Noviembre	2023-01-11T00:00:00	2024-11-08T14:00:00	4	Temperatura máxima	20.3
86627	7	Sololá	717	San Juan la Laguna	12	San Juan la Laguna	11	Noviembre	2023-01-11T00:00:00	2024-11-08T14:00:00	3	Temperatura mínima	19.7
86628	7	Sololá	717	San Juan la Laguna	12	San Juan la Laguna	11	Noviembre	2023-01-11T00:00:00	2024-11-08T14:00:00	5	Humedad	71
86629	7	Sololá	717	San Juan la Laguna	12	San Juan la Laguna	11	Noviembre	2023-01-11T00:00:00	2024-11-08T14:00:00	6	Velocidad del viento	4.8
86630	7	Sololá	717	San Juan la Laguna	12	San Juan la Laguna	11	Noviembre	2023-01-11T00:00:00	2024-11-08T14:00:00	7	Dirección del viento	4.83
86631	7	Sololá	717	San Juan la Laguna	12	San Juan la Laguna	11	Noviembre	2023-01-11T00:00:00	2024-11-08T14:00:00	1	Precipitación	0
86632	7	Sololá	717	San Juan la Laguna	12	San Juan la Laguna	11	Noviembre	2023-01-11T00:00:00	2024-11-08T14:00:00	8	Radiación solar	172
86633	7	Sololá	717	San Juan la Laguna	12	San Juan la Laguna	11	Noviembre	2023-01-11T00:00:00	2024-11-08T15:00:00	2	Temperatura media	19.8
86634	7	Sololá	717	San Juan la Laguna	12	San Juan la Laguna	11	Noviembre	2023-01-11T00:00:00	2024-11-08T15:00:00	4	Temperatura máxima	19.9
86635	7	Sololá	717	San Juan la Laguna	12	San Juan la Laguna	11	Noviembre	2023-01-11T00:00:00	2024-11-08T15:00:00	3	Temperatura mínima	19.7
86636	7	Sololá	717	San Juan la Laguna	12	San Juan la Laguna	11	Noviembre	2023-01-11T00:00:00	2024-11-08T15:00:00	5	Humedad	67
86637	7	Sololá	717	San Juan la Laguna	12	San Juan la Laguna	11	Noviembre	2023-01-11T00:00:00	2024-11-08T15:00:00	6	Velocidad del viento	1.6
86638	7	Sololá	717	San Juan la Laguna	12	San Juan la Laguna	11	Noviembre	2023-01-11T00:00:00	2024-11-08T15:00:00	7	Dirección del viento	1.61
86639	7	Sololá	717	San Juan la Laguna	12	San Juan la Laguna	11	Noviembre	2023-01-11T00:00:00	2024-11-08T15:00:00	1	Precipitación	0
86640	7	Sololá	717	San Juan la Laguna	12	San Juan la Laguna	11	Noviembre	2023-01-11T00:00:00	2024-11-08T15:00:00	8	Radiación solar	107
86641	7	Sololá	717	San Juan la Laguna	12	San Juan la Laguna	11	Noviembre	2023-01-11T00:00:00	2024-11-08T16:00:00	2	Temperatura media	19.7
86642	7	Sololá	717	San Juan la Laguna	12	San Juan la Laguna	11	Noviembre	2023-01-11T00:00:00	2024-11-08T16:00:00	4	Temperatura máxima	19.8
86643	7	Sololá	717	San Juan la Laguna	12	San Juan la Laguna	11	Noviembre	2023-01-11T00:00:00	2024-11-08T16:00:00	3	Temperatura mínima	19.3
86644	7	Sololá	717	San Juan la Laguna	12	San Juan la Laguna	11	Noviembre	2023-01-11T00:00:00	2024-11-08T16:00:00	5	Humedad	67
86645	7	Sololá	717	San Juan la Laguna	12	San Juan la Laguna	11	Noviembre	2023-01-11T00:00:00	2024-11-08T16:00:00	6	Velocidad del viento	3.2
86646	7	Sololá	717	San Juan la Laguna	12	San Juan la Laguna	11	Noviembre	2023-01-11T00:00:00	2024-11-08T16:00:00	7	Dirección del viento	3.22
86647	7	Sololá	717	San Juan la Laguna	12	San Juan la Laguna	11	Noviembre	2023-01-11T00:00:00	2024-11-08T16:00:00	1	Precipitación	0
86648	7	Sololá	717	San Juan la Laguna	12	San Juan la Laguna	11	Noviembre	2023-01-11T00:00:00	2024-11-08T16:00:00	8	Radiación solar	48
86649	7	Sololá	717	San Juan la Laguna	12	San Juan la Laguna	11	Noviembre	2023-01-11T00:00:00	2024-11-08T17:00:00	2	Temperatura media	19.3
86650	7	Sololá	717	San Juan la Laguna	12	San Juan la Laguna	11	Noviembre	2023-01-11T00:00:00	2024-11-08T17:00:00	4	Temperatura máxima	20.1
86651	7	Sololá	717	San Juan la Laguna	12	San Juan la Laguna	11	Noviembre	2023-01-11T00:00:00	2024-11-08T17:00:00	3	Temperatura mínima	19.3
86652	7	Sololá	717	San Juan la Laguna	12	San Juan la Laguna	11	Noviembre	2023-01-11T00:00:00	2024-11-08T17:00:00	5	Humedad	70
86653	7	Sololá	717	San Juan la Laguna	12	San Juan la Laguna	11	Noviembre	2023-01-11T00:00:00	2024-11-08T17:00:00	6	Velocidad del viento	3.2
86654	7	Sololá	717	San Juan la Laguna	12	San Juan la Laguna	11	Noviembre	2023-01-11T00:00:00	2024-11-08T17:00:00	7	Dirección del viento	3.22
86655	7	Sololá	717	San Juan la Laguna	12	San Juan la Laguna	11	Noviembre	2023-01-11T00:00:00	2024-11-08T17:00:00	1	Precipitación	0
86656	7	Sololá	717	San Juan la Laguna	12	San Juan la Laguna	11	Noviembre	2023-01-11T00:00:00	2024-11-08T17:00:00	8	Radiación solar	43
86657	7	Sololá	717	San Juan la Laguna	12	San Juan la Laguna	11	Noviembre	2023-01-11T00:00:00	2024-11-08T18:00:00	2	Temperatura media	19.2
86658	7	Sololá	717	San Juan la Laguna	12	San Juan la Laguna	11	Noviembre	2023-01-11T00:00:00	2024-11-08T18:00:00	4	Temperatura máxima	19.3
86659	7	Sololá	717	San Juan la Laguna	12	San Juan la Laguna	11	Noviembre	2023-01-11T00:00:00	2024-11-08T18:00:00	3	Temperatura mínima	18.7
86660	7	Sololá	717	San Juan la Laguna	12	San Juan la Laguna	11	Noviembre	2023-01-11T00:00:00	2024-11-08T18:00:00	5	Humedad	70
86661	7	Sololá	717	San Juan la Laguna	12	San Juan la Laguna	11	Noviembre	2023-01-11T00:00:00	2024-11-08T18:00:00	6	Velocidad del viento	4.8
86662	7	Sololá	717	San Juan la Laguna	12	San Juan la Laguna	11	Noviembre	2023-01-11T00:00:00	2024-11-08T18:00:00	7	Dirección del viento	4.83
86663	7	Sololá	717	San Juan la Laguna	12	San Juan la Laguna	11	Noviembre	2023-01-11T00:00:00	2024-11-08T18:00:00	1	Precipitación	0
86664	7	Sololá	717	San Juan la Laguna	12	San Juan la Laguna	11	Noviembre	2023-01-11T00:00:00	2024-11-08T18:00:00	8	Radiación solar	6
86665	7	Sololá	717	San Juan la Laguna	12	San Juan la Laguna	11	Noviembre	2023-01-11T00:00:00	2024-11-08T19:00:00	2	Temperatura media	19.7
86666	7	Sololá	717	San Juan la Laguna	12	San Juan la Laguna	11	Noviembre	2023-01-11T00:00:00	2024-11-08T19:00:00	4	Temperatura máxima	19.9
86667	7	Sololá	717	San Juan la Laguna	12	San Juan la Laguna	11	Noviembre	2023-01-11T00:00:00	2024-11-08T19:00:00	3	Temperatura mínima	19.2
86668	7	Sololá	717	San Juan la Laguna	12	San Juan la Laguna	11	Noviembre	2023-01-11T00:00:00	2024-11-08T19:00:00	5	Humedad	67
86669	7	Sololá	717	San Juan la Laguna	12	San Juan la Laguna	11	Noviembre	2023-01-11T00:00:00	2024-11-08T19:00:00	6	Velocidad del viento	6.4
86670	7	Sololá	717	San Juan la Laguna	12	San Juan la Laguna	11	Noviembre	2023-01-11T00:00:00	2024-11-08T19:00:00	7	Dirección del viento	6.44
86671	7	Sololá	717	San Juan la Laguna	12	San Juan la Laguna	11	Noviembre	2023-01-11T00:00:00	2024-11-08T19:00:00	1	Precipitación	0
86672	7	Sololá	717	San Juan la Laguna	12	San Juan la Laguna	11	Noviembre	2023-01-11T00:00:00	2024-11-08T19:00:00	8	Radiación solar	0
86673	7	Sololá	717	San Juan la Laguna	12	San Juan la Laguna	11	Noviembre	2023-01-11T00:00:00	2024-11-08T20:00:00	2	Temperatura media	19.3
86674	7	Sololá	717	San Juan la Laguna	12	San Juan la Laguna	11	Noviembre	2023-01-11T00:00:00	2024-11-08T20:00:00	4	Temperatura máxima	19.7
86675	7	Sololá	717	San Juan la Laguna	12	San Juan la Laguna	11	Noviembre	2023-01-11T00:00:00	2024-11-08T20:00:00	3	Temperatura mínima	19.2
86676	7	Sololá	717	San Juan la Laguna	12	San Juan la Laguna	11	Noviembre	2023-01-11T00:00:00	2024-11-08T20:00:00	5	Humedad	71
86677	7	Sololá	717	San Juan la Laguna	12	San Juan la Laguna	11	Noviembre	2023-01-11T00:00:00	2024-11-08T20:00:00	6	Velocidad del viento	4.8
86678	7	Sololá	717	San Juan la Laguna	12	San Juan la Laguna	11	Noviembre	2023-01-11T00:00:00	2024-11-08T20:00:00	7	Dirección del viento	4.83
86679	7	Sololá	717	San Juan la Laguna	12	San Juan la Laguna	11	Noviembre	2023-01-11T00:00:00	2024-11-08T20:00:00	1	Precipitación	0
86680	7	Sololá	717	San Juan la Laguna	12	San Juan la Laguna	11	Noviembre	2023-01-11T00:00:00	2024-11-08T20:00:00	8	Radiación solar	0
86681	7	Sololá	717	San Juan la Laguna	12	San Juan la Laguna	11	Noviembre	2023-01-11T00:00:00	2024-11-08T21:00:00	2	Temperatura media	19.6
86682	7	Sololá	717	San Juan la Laguna	12	San Juan la Laguna	11	Noviembre	2023-01-11T00:00:00	2024-11-08T21:00:00	4	Temperatura máxima	19.6
86683	7	Sololá	717	San Juan la Laguna	12	San Juan la Laguna	11	Noviembre	2023-01-11T00:00:00	2024-11-08T21:00:00	3	Temperatura mínima	19.1
86684	7	Sololá	717	San Juan la Laguna	12	San Juan la Laguna	11	Noviembre	2023-01-11T00:00:00	2024-11-08T21:00:00	5	Humedad	69
86685	7	Sololá	717	San Juan la Laguna	12	San Juan la Laguna	11	Noviembre	2023-01-11T00:00:00	2024-11-08T21:00:00	6	Velocidad del viento	1.6
86686	7	Sololá	717	San Juan la Laguna	12	San Juan la Laguna	11	Noviembre	2023-01-11T00:00:00	2024-11-08T21:00:00	7	Dirección del viento	1.61
86687	7	Sololá	717	San Juan la Laguna	12	San Juan la Laguna	11	Noviembre	2023-01-11T00:00:00	2024-11-08T21:00:00	1	Precipitación	0
86688	7	Sololá	717	San Juan la Laguna	12	San Juan la Laguna	11	Noviembre	2023-01-11T00:00:00	2024-11-08T21:00:00	8	Radiación solar	0
86689	7	Sololá	717	San Juan la Laguna	12	San Juan la Laguna	11	Noviembre	2023-01-11T00:00:00	2024-11-08T22:00:00	2	Temperatura media	19.6
86690	7	Sololá	717	San Juan la Laguna	12	San Juan la Laguna	11	Noviembre	2023-01-11T00:00:00	2024-11-08T22:00:00	4	Temperatura máxima	19.8
86691	7	Sololá	717	San Juan la Laguna	12	San Juan la Laguna	11	Noviembre	2023-01-11T00:00:00	2024-11-08T22:00:00	3	Temperatura mínima	19.4
86692	7	Sololá	717	San Juan la Laguna	12	San Juan la Laguna	11	Noviembre	2023-01-11T00:00:00	2024-11-08T22:00:00	5	Humedad	69
86693	7	Sololá	717	San Juan la Laguna	12	San Juan la Laguna	11	Noviembre	2023-01-11T00:00:00	2024-11-08T22:00:00	6	Velocidad del viento	1.6
86694	7	Sololá	717	San Juan la Laguna	12	San Juan la Laguna	11	Noviembre	2023-01-11T00:00:00	2024-11-08T22:00:00	7	Dirección del viento	1.61
86695	7	Sololá	717	San Juan la Laguna	12	San Juan la Laguna	11	Noviembre	2023-01-11T00:00:00	2024-11-08T22:00:00	1	Precipitación	0
86696	7	Sololá	717	San Juan la Laguna	12	San Juan la Laguna	11	Noviembre	2023-01-11T00:00:00	2024-11-08T22:00:00	8	Radiación solar	0
86697	7	Sololá	717	San Juan la Laguna	12	San Juan la Laguna	11	Noviembre	2023-01-11T00:00:00	2024-11-08T23:00:00	2	Temperatura media	19
86698	7	Sololá	717	San Juan la Laguna	12	San Juan la Laguna	11	Noviembre	2023-01-11T00:00:00	2024-11-08T23:00:00	4	Temperatura máxima	19.6
86699	7	Sololá	717	San Juan la Laguna	12	San Juan la Laguna	11	Noviembre	2023-01-11T00:00:00	2024-11-08T23:00:00	3	Temperatura mínima	19
86700	7	Sololá	717	San Juan la Laguna	12	San Juan la Laguna	11	Noviembre	2023-01-11T00:00:00	2024-11-08T23:00:00	5	Humedad	65
86701	7	Sololá	717	San Juan la Laguna	12	San Juan la Laguna	11	Noviembre	2023-01-11T00:00:00	2024-11-08T23:00:00	6	Velocidad del viento	1.6
86702	7	Sololá	717	San Juan la Laguna	12	San Juan la Laguna	11	Noviembre	2023-01-11T00:00:00	2024-11-08T23:00:00	7	Dirección del viento	1.61
86703	7	Sololá	717	San Juan la Laguna	12	San Juan la Laguna	11	Noviembre	2023-01-11T00:00:00	2024-11-08T23:00:00	1	Precipitación	0
86704	7	Sololá	717	San Juan la Laguna	12	San Juan la Laguna	11	Noviembre	2023-01-11T00:00:00	2024-11-08T23:00:00	8	Radiación solar	0
86705	7	Sololá	717	San Juan la Laguna	12	San Juan la Laguna	11	Noviembre	2023-02-11T00:00:00	2024-11-08T00:00:00	2	Temperatura media	19.2
86706	7	Sololá	717	San Juan la Laguna	12	San Juan la Laguna	11	Noviembre	2023-02-11T00:00:00	2024-11-08T00:00:00	4	Temperatura máxima	19.2
86707	7	Sololá	717	San Juan la Laguna	12	San Juan la Laguna	11	Noviembre	2023-02-11T00:00:00	2024-11-08T00:00:00	3	Temperatura mínima	19
86708	7	Sololá	717	San Juan la Laguna	12	San Juan la Laguna	11	Noviembre	2023-02-11T00:00:00	2024-11-08T00:00:00	5	Humedad	65
86709	7	Sololá	717	San Juan la Laguna	12	San Juan la Laguna	11	Noviembre	2023-02-11T00:00:00	2024-11-08T00:00:00	6	Velocidad del viento	1.6
86710	7	Sololá	717	San Juan la Laguna	12	San Juan la Laguna	11	Noviembre	2023-02-11T00:00:00	2024-11-08T00:00:00	7	Dirección del viento	1.61
86711	7	Sololá	717	San Juan la Laguna	12	San Juan la Laguna	11	Noviembre	2023-02-11T00:00:00	2024-11-08T00:00:00	1	Precipitación	0
86712	7	Sololá	717	San Juan la Laguna	12	San Juan la Laguna	11	Noviembre	2023-02-11T00:00:00	2024-11-08T00:00:00	8	Radiación solar	0
86713	7	Sololá	717	San Juan la Laguna	12	San Juan la Laguna	11	Noviembre	2023-02-11T00:00:00	2024-11-08T01:00:00	2	Temperatura media	19.2
86714	7	Sololá	717	San Juan la Laguna	12	San Juan la Laguna	11	Noviembre	2023-02-11T00:00:00	2024-11-08T01:00:00	4	Temperatura máxima	19.4
86715	7	Sololá	717	San Juan la Laguna	12	San Juan la Laguna	11	Noviembre	2023-02-11T00:00:00	2024-11-08T01:00:00	3	Temperatura mínima	19
86716	7	Sololá	717	San Juan la Laguna	12	San Juan la Laguna	11	Noviembre	2023-02-11T00:00:00	2024-11-08T01:00:00	5	Humedad	69
86717	7	Sololá	717	San Juan la Laguna	12	San Juan la Laguna	11	Noviembre	2023-02-11T00:00:00	2024-11-08T01:00:00	6	Velocidad del viento	1.6
86718	7	Sololá	717	San Juan la Laguna	12	San Juan la Laguna	11	Noviembre	2023-02-11T00:00:00	2024-11-08T01:00:00	7	Dirección del viento	1.61
86719	7	Sololá	717	San Juan la Laguna	12	San Juan la Laguna	11	Noviembre	2023-02-11T00:00:00	2024-11-08T01:00:00	1	Precipitación	0
86720	7	Sololá	717	San Juan la Laguna	12	San Juan la Laguna	11	Noviembre	2023-02-11T00:00:00	2024-11-08T01:00:00	8	Radiación solar	0
86721	7	Sololá	717	San Juan la Laguna	12	San Juan la Laguna	11	Noviembre	2023-02-11T00:00:00	2024-11-08T02:00:00	2	Temperatura media	18.1
86722	7	Sololá	717	San Juan la Laguna	12	San Juan la Laguna	11	Noviembre	2023-02-11T00:00:00	2024-11-08T02:00:00	4	Temperatura máxima	19.2
86723	7	Sololá	717	San Juan la Laguna	12	San Juan la Laguna	11	Noviembre	2023-02-11T00:00:00	2024-11-08T02:00:00	3	Temperatura mínima	18.1
86724	7	Sololá	717	San Juan la Laguna	12	San Juan la Laguna	11	Noviembre	2023-02-11T00:00:00	2024-11-08T02:00:00	5	Humedad	75
86725	7	Sololá	717	San Juan la Laguna	12	San Juan la Laguna	11	Noviembre	2023-02-11T00:00:00	2024-11-08T02:00:00	6	Velocidad del viento	0
86726	7	Sololá	717	San Juan la Laguna	12	San Juan la Laguna	11	Noviembre	2023-02-11T00:00:00	2024-11-08T02:00:00	7	Dirección del viento	0
86727	7	Sololá	717	San Juan la Laguna	12	San Juan la Laguna	11	Noviembre	2023-02-11T00:00:00	2024-11-08T02:00:00	1	Precipitación	0
86728	7	Sololá	717	San Juan la Laguna	12	San Juan la Laguna	11	Noviembre	2023-02-11T00:00:00	2024-11-08T02:00:00	8	Radiación solar	0
86729	7	Sololá	717	San Juan la Laguna	12	San Juan la Laguna	11	Noviembre	2023-02-11T00:00:00	2024-11-08T03:00:00	2	Temperatura media	17.1
86730	7	Sololá	717	San Juan la Laguna	12	San Juan la Laguna	11	Noviembre	2023-02-11T00:00:00	2024-11-08T03:00:00	4	Temperatura máxima	18.3
86731	7	Sololá	717	San Juan la Laguna	12	San Juan la Laguna	11	Noviembre	2023-02-11T00:00:00	2024-11-08T03:00:00	3	Temperatura mínima	17.1
86732	7	Sololá	717	San Juan la Laguna	12	San Juan la Laguna	11	Noviembre	2023-02-11T00:00:00	2024-11-08T03:00:00	5	Humedad	80
86733	7	Sololá	717	San Juan la Laguna	12	San Juan la Laguna	11	Noviembre	2023-02-11T00:00:00	2024-11-08T03:00:00	6	Velocidad del viento	0
86734	7	Sololá	717	San Juan la Laguna	12	San Juan la Laguna	11	Noviembre	2023-02-11T00:00:00	2024-11-08T03:00:00	7	Dirección del viento	0
86735	7	Sololá	717	San Juan la Laguna	12	San Juan la Laguna	11	Noviembre	2023-02-11T00:00:00	2024-11-08T03:00:00	1	Precipitación	0
86736	7	Sololá	717	San Juan la Laguna	12	San Juan la Laguna	11	Noviembre	2023-02-11T00:00:00	2024-11-08T03:00:00	8	Radiación solar	0
86737	7	Sololá	717	San Juan la Laguna	12	San Juan la Laguna	11	Noviembre	2023-02-11T00:00:00	2024-11-08T04:00:00	2	Temperatura media	17.3
86738	7	Sololá	717	San Juan la Laguna	12	San Juan la Laguna	11	Noviembre	2023-02-11T00:00:00	2024-11-08T04:00:00	4	Temperatura máxima	17.4
86739	7	Sololá	717	San Juan la Laguna	12	San Juan la Laguna	11	Noviembre	2023-02-11T00:00:00	2024-11-08T04:00:00	3	Temperatura mínima	16.6
86740	7	Sololá	717	San Juan la Laguna	12	San Juan la Laguna	11	Noviembre	2023-02-11T00:00:00	2024-11-08T04:00:00	5	Humedad	79
86741	7	Sololá	717	San Juan la Laguna	12	San Juan la Laguna	11	Noviembre	2023-02-11T00:00:00	2024-11-08T04:00:00	6	Velocidad del viento	0
86742	7	Sololá	717	San Juan la Laguna	12	San Juan la Laguna	11	Noviembre	2023-02-11T00:00:00	2024-11-08T04:00:00	7	Dirección del viento	0
86743	7	Sololá	717	San Juan la Laguna	12	San Juan la Laguna	11	Noviembre	2023-02-11T00:00:00	2024-11-08T04:00:00	1	Precipitación	0
86744	7	Sololá	717	San Juan la Laguna	12	San Juan la Laguna	11	Noviembre	2023-02-11T00:00:00	2024-11-08T04:00:00	8	Radiación solar	0
86745	7	Sololá	717	San Juan la Laguna	12	San Juan la Laguna	11	Noviembre	2023-02-11T00:00:00	2024-11-08T05:00:00	2	Temperatura media	19.6
86746	7	Sololá	717	San Juan la Laguna	12	San Juan la Laguna	11	Noviembre	2023-02-11T00:00:00	2024-11-08T05:00:00	4	Temperatura máxima	19.6
86747	7	Sololá	717	San Juan la Laguna	12	San Juan la Laguna	11	Noviembre	2023-02-11T00:00:00	2024-11-08T05:00:00	3	Temperatura mínima	17.1
86748	7	Sololá	717	San Juan la Laguna	12	San Juan la Laguna	11	Noviembre	2023-02-11T00:00:00	2024-11-08T05:00:00	5	Humedad	70
86749	7	Sololá	717	San Juan la Laguna	12	San Juan la Laguna	11	Noviembre	2023-02-11T00:00:00	2024-11-08T05:00:00	6	Velocidad del viento	0
86750	7	Sololá	717	San Juan la Laguna	12	San Juan la Laguna	11	Noviembre	2023-02-11T00:00:00	2024-11-08T05:00:00	7	Dirección del viento	0
86751	7	Sololá	717	San Juan la Laguna	12	San Juan la Laguna	11	Noviembre	2023-02-11T00:00:00	2024-11-08T05:00:00	1	Precipitación	0
86752	7	Sololá	717	San Juan la Laguna	12	San Juan la Laguna	11	Noviembre	2023-02-11T00:00:00	2024-11-08T05:00:00	8	Radiación solar	0
86753	7	Sololá	717	San Juan la Laguna	12	San Juan la Laguna	11	Noviembre	2023-02-11T00:00:00	2024-11-08T06:00:00	2	Temperatura media	20.5
86754	7	Sololá	717	San Juan la Laguna	12	San Juan la Laguna	11	Noviembre	2023-02-11T00:00:00	2024-11-08T06:00:00	4	Temperatura máxima	20.5
86755	7	Sololá	717	San Juan la Laguna	12	San Juan la Laguna	11	Noviembre	2023-02-11T00:00:00	2024-11-08T06:00:00	3	Temperatura mínima	19.6
86756	7	Sololá	717	San Juan la Laguna	12	San Juan la Laguna	11	Noviembre	2023-02-11T00:00:00	2024-11-08T06:00:00	5	Humedad	67
86757	7	Sololá	717	San Juan la Laguna	12	San Juan la Laguna	11	Noviembre	2023-02-11T00:00:00	2024-11-08T06:00:00	6	Velocidad del viento	3.2
86758	7	Sololá	717	San Juan la Laguna	12	San Juan la Laguna	11	Noviembre	2023-02-11T00:00:00	2024-11-08T06:00:00	7	Dirección del viento	3.22
86759	7	Sololá	717	San Juan la Laguna	12	San Juan la Laguna	11	Noviembre	2023-02-11T00:00:00	2024-11-08T06:00:00	1	Precipitación	0
86760	7	Sololá	717	San Juan la Laguna	12	San Juan la Laguna	11	Noviembre	2023-02-11T00:00:00	2024-11-08T06:00:00	8	Radiación solar	0
86761	7	Sololá	717	San Juan la Laguna	12	San Juan la Laguna	11	Noviembre	2023-02-11T00:00:00	2024-11-08T07:00:00	2	Temperatura media	20.2
86762	7	Sololá	717	San Juan la Laguna	12	San Juan la Laguna	11	Noviembre	2023-02-11T00:00:00	2024-11-08T07:00:00	4	Temperatura máxima	20.7
86763	7	Sololá	717	San Juan la Laguna	12	San Juan la Laguna	11	Noviembre	2023-02-11T00:00:00	2024-11-08T07:00:00	3	Temperatura mínima	20.2
86764	7	Sololá	717	San Juan la Laguna	12	San Juan la Laguna	11	Noviembre	2023-02-11T00:00:00	2024-11-08T07:00:00	5	Humedad	69
86765	7	Sololá	717	San Juan la Laguna	12	San Juan la Laguna	11	Noviembre	2023-02-11T00:00:00	2024-11-08T07:00:00	6	Velocidad del viento	1.6
86766	7	Sololá	717	San Juan la Laguna	12	San Juan la Laguna	11	Noviembre	2023-02-11T00:00:00	2024-11-08T07:00:00	7	Dirección del viento	1.61
86767	7	Sololá	717	San Juan la Laguna	12	San Juan la Laguna	11	Noviembre	2023-02-11T00:00:00	2024-11-08T07:00:00	1	Precipitación	0
86768	7	Sololá	717	San Juan la Laguna	12	San Juan la Laguna	11	Noviembre	2023-02-11T00:00:00	2024-11-08T07:00:00	8	Radiación solar	36
86769	7	Sololá	717	San Juan la Laguna	12	San Juan la Laguna	11	Noviembre	2023-02-11T00:00:00	2024-11-08T08:00:00	2	Temperatura media	20.7
86770	7	Sololá	717	San Juan la Laguna	12	San Juan la Laguna	11	Noviembre	2023-02-11T00:00:00	2024-11-08T08:00:00	4	Temperatura máxima	20.7
86771	7	Sololá	717	San Juan la Laguna	12	San Juan la Laguna	11	Noviembre	2023-02-11T00:00:00	2024-11-08T08:00:00	3	Temperatura mínima	20.2
86772	7	Sololá	717	San Juan la Laguna	12	San Juan la Laguna	11	Noviembre	2023-02-11T00:00:00	2024-11-08T08:00:00	5	Humedad	69
86773	7	Sololá	717	San Juan la Laguna	12	San Juan la Laguna	11	Noviembre	2023-02-11T00:00:00	2024-11-08T08:00:00	6	Velocidad del viento	0
86774	7	Sololá	717	San Juan la Laguna	12	San Juan la Laguna	11	Noviembre	2023-02-11T00:00:00	2024-11-08T08:00:00	7	Dirección del viento	0
86775	7	Sololá	717	San Juan la Laguna	12	San Juan la Laguna	11	Noviembre	2023-02-11T00:00:00	2024-11-08T08:00:00	1	Precipitación	0
86776	7	Sololá	717	San Juan la Laguna	12	San Juan la Laguna	11	Noviembre	2023-02-11T00:00:00	2024-11-08T08:00:00	8	Radiación solar	89
86777	7	Sololá	717	San Juan la Laguna	12	San Juan la Laguna	11	Noviembre	2023-02-11T00:00:00	2024-11-08T09:00:00	2	Temperatura media	21.5
86778	7	Sololá	717	San Juan la Laguna	12	San Juan la Laguna	11	Noviembre	2023-02-11T00:00:00	2024-11-08T09:00:00	4	Temperatura máxima	21.7
86779	7	Sololá	717	San Juan la Laguna	12	San Juan la Laguna	11	Noviembre	2023-02-11T00:00:00	2024-11-08T09:00:00	3	Temperatura mínima	20.7
86780	7	Sololá	717	San Juan la Laguna	12	San Juan la Laguna	11	Noviembre	2023-02-11T00:00:00	2024-11-08T09:00:00	5	Humedad	67
86781	7	Sololá	717	San Juan la Laguna	12	San Juan la Laguna	11	Noviembre	2023-02-11T00:00:00	2024-11-08T09:00:00	6	Velocidad del viento	3.2
86782	7	Sololá	717	San Juan la Laguna	12	San Juan la Laguna	11	Noviembre	2023-02-11T00:00:00	2024-11-08T09:00:00	7	Dirección del viento	3.22
86783	7	Sololá	717	San Juan la Laguna	12	San Juan la Laguna	11	Noviembre	2023-02-11T00:00:00	2024-11-08T09:00:00	1	Precipitación	0
86784	7	Sololá	717	San Juan la Laguna	12	San Juan la Laguna	11	Noviembre	2023-02-11T00:00:00	2024-11-08T09:00:00	8	Radiación solar	156
86785	7	Sololá	717	San Juan la Laguna	12	San Juan la Laguna	11	Noviembre	2023-02-11T00:00:00	2024-11-08T10:00:00	2	Temperatura media	22.1
86786	7	Sololá	717	San Juan la Laguna	12	San Juan la Laguna	11	Noviembre	2023-02-11T00:00:00	2024-11-08T10:00:00	4	Temperatura máxima	22.1
86787	7	Sololá	717	San Juan la Laguna	12	San Juan la Laguna	11	Noviembre	2023-02-11T00:00:00	2024-11-08T10:00:00	3	Temperatura mínima	21.4
86788	7	Sololá	717	San Juan la Laguna	12	San Juan la Laguna	11	Noviembre	2023-02-11T00:00:00	2024-11-08T10:00:00	5	Humedad	65
86789	7	Sololá	717	San Juan la Laguna	12	San Juan la Laguna	11	Noviembre	2023-02-11T00:00:00	2024-11-08T10:00:00	6	Velocidad del viento	6.4
86790	7	Sololá	717	San Juan la Laguna	12	San Juan la Laguna	11	Noviembre	2023-02-11T00:00:00	2024-11-08T10:00:00	7	Dirección del viento	6.44
86791	7	Sololá	717	San Juan la Laguna	12	San Juan la Laguna	11	Noviembre	2023-02-11T00:00:00	2024-11-08T10:00:00	1	Precipitación	0
86792	7	Sololá	717	San Juan la Laguna	12	San Juan la Laguna	11	Noviembre	2023-02-11T00:00:00	2024-11-08T10:00:00	8	Radiación solar	265
86793	7	Sololá	717	San Juan la Laguna	12	San Juan la Laguna	11	Noviembre	2023-02-11T00:00:00	2024-11-08T11:00:00	2	Temperatura media	22.6
86794	7	Sololá	717	San Juan la Laguna	12	San Juan la Laguna	11	Noviembre	2023-02-11T00:00:00	2024-11-08T11:00:00	4	Temperatura máxima	22.9
86795	7	Sololá	717	San Juan la Laguna	12	San Juan la Laguna	11	Noviembre	2023-02-11T00:00:00	2024-11-08T11:00:00	3	Temperatura mínima	22.1
86796	7	Sololá	717	San Juan la Laguna	12	San Juan la Laguna	11	Noviembre	2023-02-11T00:00:00	2024-11-08T11:00:00	5	Humedad	64
86797	7	Sololá	717	San Juan la Laguna	12	San Juan la Laguna	11	Noviembre	2023-02-11T00:00:00	2024-11-08T11:00:00	6	Velocidad del viento	4.8
86798	7	Sololá	717	San Juan la Laguna	12	San Juan la Laguna	11	Noviembre	2023-02-11T00:00:00	2024-11-08T11:00:00	7	Dirección del viento	4.83
86799	7	Sololá	717	San Juan la Laguna	12	San Juan la Laguna	11	Noviembre	2023-02-11T00:00:00	2024-11-08T11:00:00	1	Precipitación	0
86800	7	Sololá	717	San Juan la Laguna	12	San Juan la Laguna	11	Noviembre	2023-02-11T00:00:00	2024-11-08T11:00:00	8	Radiación solar	324
86801	7	Sololá	717	San Juan la Laguna	12	San Juan la Laguna	11	Noviembre	2023-02-11T00:00:00	2024-11-08T12:00:00	2	Temperatura media	24
86802	7	Sololá	717	San Juan la Laguna	12	San Juan la Laguna	11	Noviembre	2023-02-11T00:00:00	2024-11-08T12:00:00	4	Temperatura máxima	24.1
86803	7	Sololá	717	San Juan la Laguna	12	San Juan la Laguna	11	Noviembre	2023-02-11T00:00:00	2024-11-08T12:00:00	3	Temperatura mínima	22.6
86804	7	Sololá	717	San Juan la Laguna	12	San Juan la Laguna	11	Noviembre	2023-02-11T00:00:00	2024-11-08T12:00:00	5	Humedad	59
86805	7	Sololá	717	San Juan la Laguna	12	San Juan la Laguna	11	Noviembre	2023-02-11T00:00:00	2024-11-08T12:00:00	6	Velocidad del viento	8
86806	7	Sololá	717	San Juan la Laguna	12	San Juan la Laguna	11	Noviembre	2023-02-11T00:00:00	2024-11-08T12:00:00	7	Dirección del viento	8.05
86807	7	Sololá	717	San Juan la Laguna	12	San Juan la Laguna	11	Noviembre	2023-02-11T00:00:00	2024-11-08T12:00:00	1	Precipitación	0
86808	7	Sololá	717	San Juan la Laguna	12	San Juan la Laguna	11	Noviembre	2023-02-11T00:00:00	2024-11-08T12:00:00	8	Radiación solar	679
86809	7	Sololá	717	San Juan la Laguna	12	San Juan la Laguna	11	Noviembre	2023-02-11T00:00:00	2024-11-08T13:00:00	2	Temperatura media	22.4
86810	7	Sololá	717	San Juan la Laguna	12	San Juan la Laguna	11	Noviembre	2023-02-11T00:00:00	2024-11-08T13:00:00	4	Temperatura máxima	24.1
86811	7	Sololá	717	San Juan la Laguna	12	San Juan la Laguna	11	Noviembre	2023-02-11T00:00:00	2024-11-08T13:00:00	3	Temperatura mínima	22.4
86812	7	Sololá	717	San Juan la Laguna	12	San Juan la Laguna	11	Noviembre	2023-02-11T00:00:00	2024-11-08T13:00:00	5	Humedad	64
86813	7	Sololá	717	San Juan la Laguna	12	San Juan la Laguna	11	Noviembre	2023-02-11T00:00:00	2024-11-08T13:00:00	6	Velocidad del viento	4.8
86814	7	Sololá	717	San Juan la Laguna	12	San Juan la Laguna	11	Noviembre	2023-02-11T00:00:00	2024-11-08T13:00:00	7	Dirección del viento	4.83
86815	7	Sololá	717	San Juan la Laguna	12	San Juan la Laguna	11	Noviembre	2023-02-11T00:00:00	2024-11-08T13:00:00	1	Precipitación	0
86816	7	Sololá	717	San Juan la Laguna	12	San Juan la Laguna	11	Noviembre	2023-02-11T00:00:00	2024-11-08T13:00:00	8	Radiación solar	361
86817	7	Sololá	717	San Juan la Laguna	12	San Juan la Laguna	11	Noviembre	2023-02-11T00:00:00	2024-11-08T14:00:00	2	Temperatura media	21.3
86818	7	Sololá	717	San Juan la Laguna	12	San Juan la Laguna	11	Noviembre	2023-02-11T00:00:00	2024-11-08T14:00:00	4	Temperatura máxima	22.4
86819	7	Sololá	717	San Juan la Laguna	12	San Juan la Laguna	11	Noviembre	2023-02-11T00:00:00	2024-11-08T14:00:00	3	Temperatura mínima	21.3
86820	7	Sololá	717	San Juan la Laguna	12	San Juan la Laguna	11	Noviembre	2023-02-11T00:00:00	2024-11-08T14:00:00	5	Humedad	69
86821	7	Sololá	717	San Juan la Laguna	12	San Juan la Laguna	11	Noviembre	2023-02-11T00:00:00	2024-11-08T14:00:00	6	Velocidad del viento	3.2
86822	7	Sololá	717	San Juan la Laguna	12	San Juan la Laguna	11	Noviembre	2023-02-11T00:00:00	2024-11-08T14:00:00	7	Dirección del viento	3.22
86823	7	Sololá	717	San Juan la Laguna	12	San Juan la Laguna	11	Noviembre	2023-02-11T00:00:00	2024-11-08T14:00:00	1	Precipitación	0
86824	7	Sololá	717	San Juan la Laguna	12	San Juan la Laguna	11	Noviembre	2023-02-11T00:00:00	2024-11-08T14:00:00	8	Radiación solar	200
86825	7	Sololá	717	San Juan la Laguna	12	San Juan la Laguna	11	Noviembre	2023-02-11T00:00:00	2024-11-08T15:00:00	2	Temperatura media	22
86826	7	Sololá	717	San Juan la Laguna	12	San Juan la Laguna	11	Noviembre	2023-02-11T00:00:00	2024-11-08T15:00:00	4	Temperatura máxima	22.1
86827	7	Sololá	717	San Juan la Laguna	12	San Juan la Laguna	11	Noviembre	2023-02-11T00:00:00	2024-11-08T15:00:00	3	Temperatura mínima	21.3
86828	7	Sololá	717	San Juan la Laguna	12	San Juan la Laguna	11	Noviembre	2023-02-11T00:00:00	2024-11-08T15:00:00	5	Humedad	64
86829	7	Sololá	717	San Juan la Laguna	12	San Juan la Laguna	11	Noviembre	2023-02-11T00:00:00	2024-11-08T15:00:00	6	Velocidad del viento	1.6
86830	7	Sololá	717	San Juan la Laguna	12	San Juan la Laguna	11	Noviembre	2023-02-11T00:00:00	2024-11-08T15:00:00	7	Dirección del viento	1.61
86831	7	Sololá	717	San Juan la Laguna	12	San Juan la Laguna	11	Noviembre	2023-02-11T00:00:00	2024-11-08T15:00:00	1	Precipitación	0
86832	7	Sololá	717	San Juan la Laguna	12	San Juan la Laguna	11	Noviembre	2023-02-11T00:00:00	2024-11-08T15:00:00	8	Radiación solar	186
86833	7	Sololá	717	San Juan la Laguna	12	San Juan la Laguna	11	Noviembre	2023-02-11T00:00:00	2024-11-08T16:00:00	2	Temperatura media	21.1
86834	7	Sololá	717	San Juan la Laguna	12	San Juan la Laguna	11	Noviembre	2023-02-11T00:00:00	2024-11-08T16:00:00	4	Temperatura máxima	22.2
86835	7	Sololá	717	San Juan la Laguna	12	San Juan la Laguna	11	Noviembre	2023-02-11T00:00:00	2024-11-08T16:00:00	3	Temperatura mínima	21.1
86836	7	Sololá	717	San Juan la Laguna	12	San Juan la Laguna	11	Noviembre	2023-02-11T00:00:00	2024-11-08T16:00:00	5	Humedad	70
86837	7	Sololá	717	San Juan la Laguna	12	San Juan la Laguna	11	Noviembre	2023-02-11T00:00:00	2024-11-08T16:00:00	6	Velocidad del viento	0
86838	7	Sololá	717	San Juan la Laguna	12	San Juan la Laguna	11	Noviembre	2023-02-11T00:00:00	2024-11-08T16:00:00	7	Dirección del viento	0
86839	7	Sololá	717	San Juan la Laguna	12	San Juan la Laguna	11	Noviembre	2023-02-11T00:00:00	2024-11-08T16:00:00	1	Precipitación	0
86840	7	Sololá	717	San Juan la Laguna	12	San Juan la Laguna	11	Noviembre	2023-02-11T00:00:00	2024-11-08T16:00:00	8	Radiación solar	224
86841	7	Sololá	717	San Juan la Laguna	12	San Juan la Laguna	11	Noviembre	2023-02-11T00:00:00	2024-11-08T17:00:00	2	Temperatura media	20.6
86842	7	Sololá	717	San Juan la Laguna	12	San Juan la Laguna	11	Noviembre	2023-02-11T00:00:00	2024-11-08T17:00:00	4	Temperatura máxima	21.2
86843	7	Sololá	717	San Juan la Laguna	12	San Juan la Laguna	11	Noviembre	2023-02-11T00:00:00	2024-11-08T17:00:00	3	Temperatura mínima	20.6
86844	7	Sololá	717	San Juan la Laguna	12	San Juan la Laguna	11	Noviembre	2023-02-11T00:00:00	2024-11-08T17:00:00	5	Humedad	74
86845	7	Sololá	717	San Juan la Laguna	12	San Juan la Laguna	11	Noviembre	2023-02-11T00:00:00	2024-11-08T17:00:00	6	Velocidad del viento	0
86846	7	Sololá	717	San Juan la Laguna	12	San Juan la Laguna	11	Noviembre	2023-02-11T00:00:00	2024-11-08T17:00:00	7	Dirección del viento	0
86847	7	Sololá	717	San Juan la Laguna	12	San Juan la Laguna	11	Noviembre	2023-02-11T00:00:00	2024-11-08T17:00:00	1	Precipitación	0
86848	7	Sololá	717	San Juan la Laguna	12	San Juan la Laguna	11	Noviembre	2023-02-11T00:00:00	2024-11-08T17:00:00	8	Radiación solar	123
86849	7	Sololá	717	San Juan la Laguna	12	San Juan la Laguna	11	Noviembre	2023-02-11T00:00:00	2024-11-08T18:00:00	2	Temperatura media	20.7
86850	7	Sololá	717	San Juan la Laguna	12	San Juan la Laguna	11	Noviembre	2023-02-11T00:00:00	2024-11-08T18:00:00	4	Temperatura máxima	21.2
86851	7	Sololá	717	San Juan la Laguna	12	San Juan la Laguna	11	Noviembre	2023-02-11T00:00:00	2024-11-08T18:00:00	3	Temperatura mínima	20.6
86852	7	Sololá	717	San Juan la Laguna	12	San Juan la Laguna	11	Noviembre	2023-02-11T00:00:00	2024-11-08T18:00:00	5	Humedad	70
86853	7	Sololá	717	San Juan la Laguna	12	San Juan la Laguna	11	Noviembre	2023-02-11T00:00:00	2024-11-08T18:00:00	6	Velocidad del viento	0
86854	7	Sololá	717	San Juan la Laguna	12	San Juan la Laguna	11	Noviembre	2023-02-11T00:00:00	2024-11-08T18:00:00	7	Dirección del viento	0
86855	7	Sololá	717	San Juan la Laguna	12	San Juan la Laguna	11	Noviembre	2023-02-11T00:00:00	2024-11-08T18:00:00	1	Precipitación	0
86856	7	Sololá	717	San Juan la Laguna	12	San Juan la Laguna	11	Noviembre	2023-02-11T00:00:00	2024-11-08T18:00:00	8	Radiación solar	16
86857	7	Sololá	717	San Juan la Laguna	12	San Juan la Laguna	11	Noviembre	2023-02-11T00:00:00	2024-11-08T19:00:00	2	Temperatura media	20.3
86858	7	Sololá	717	San Juan la Laguna	12	San Juan la Laguna	11	Noviembre	2023-02-11T00:00:00	2024-11-08T19:00:00	4	Temperatura máxima	20.7
86859	7	Sololá	717	San Juan la Laguna	12	San Juan la Laguna	11	Noviembre	2023-02-11T00:00:00	2024-11-08T19:00:00	3	Temperatura mínima	20.2
86860	7	Sololá	717	San Juan la Laguna	12	San Juan la Laguna	11	Noviembre	2023-02-11T00:00:00	2024-11-08T19:00:00	5	Humedad	69
86861	7	Sololá	717	San Juan la Laguna	12	San Juan la Laguna	11	Noviembre	2023-02-11T00:00:00	2024-11-08T19:00:00	6	Velocidad del viento	1.6
86862	7	Sololá	717	San Juan la Laguna	12	San Juan la Laguna	11	Noviembre	2023-02-11T00:00:00	2024-11-08T19:00:00	7	Dirección del viento	1.61
86863	7	Sololá	717	San Juan la Laguna	12	San Juan la Laguna	11	Noviembre	2023-02-11T00:00:00	2024-11-08T19:00:00	1	Precipitación	0
86864	7	Sololá	717	San Juan la Laguna	12	San Juan la Laguna	11	Noviembre	2023-02-11T00:00:00	2024-11-08T19:00:00	8	Radiación solar	0
86865	7	Sololá	717	San Juan la Laguna	12	San Juan la Laguna	11	Noviembre	2023-02-11T00:00:00	2024-11-08T20:00:00	2	Temperatura media	20.4
86866	7	Sololá	717	San Juan la Laguna	12	San Juan la Laguna	11	Noviembre	2023-02-11T00:00:00	2024-11-08T20:00:00	4	Temperatura máxima	20.5
86867	7	Sololá	717	San Juan la Laguna	12	San Juan la Laguna	11	Noviembre	2023-02-11T00:00:00	2024-11-08T20:00:00	3	Temperatura mínima	20.1
86868	7	Sololá	717	San Juan la Laguna	12	San Juan la Laguna	11	Noviembre	2023-02-11T00:00:00	2024-11-08T20:00:00	5	Humedad	68
86869	7	Sololá	717	San Juan la Laguna	12	San Juan la Laguna	11	Noviembre	2023-02-11T00:00:00	2024-11-08T20:00:00	6	Velocidad del viento	1.6
86870	7	Sololá	717	San Juan la Laguna	12	San Juan la Laguna	11	Noviembre	2023-02-11T00:00:00	2024-11-08T20:00:00	7	Dirección del viento	1.61
86871	7	Sololá	717	San Juan la Laguna	12	San Juan la Laguna	11	Noviembre	2023-02-11T00:00:00	2024-11-08T20:00:00	1	Precipitación	0
86872	7	Sololá	717	San Juan la Laguna	12	San Juan la Laguna	11	Noviembre	2023-02-11T00:00:00	2024-11-08T20:00:00	8	Radiación solar	0
86873	7	Sololá	717	San Juan la Laguna	12	San Juan la Laguna	11	Noviembre	2023-02-11T00:00:00	2024-11-08T21:00:00	2	Temperatura media	19.8
86874	7	Sololá	717	San Juan la Laguna	12	San Juan la Laguna	11	Noviembre	2023-02-11T00:00:00	2024-11-08T21:00:00	4	Temperatura máxima	20.4
86875	7	Sololá	717	San Juan la Laguna	12	San Juan la Laguna	11	Noviembre	2023-02-11T00:00:00	2024-11-08T21:00:00	3	Temperatura mínima	19.8
86876	7	Sololá	717	San Juan la Laguna	12	San Juan la Laguna	11	Noviembre	2023-02-11T00:00:00	2024-11-08T21:00:00	5	Humedad	71
86877	7	Sololá	717	San Juan la Laguna	12	San Juan la Laguna	11	Noviembre	2023-02-11T00:00:00	2024-11-08T21:00:00	6	Velocidad del viento	0
86878	7	Sololá	717	San Juan la Laguna	12	San Juan la Laguna	11	Noviembre	2023-02-11T00:00:00	2024-11-08T21:00:00	7	Dirección del viento	0
86879	7	Sololá	717	San Juan la Laguna	12	San Juan la Laguna	11	Noviembre	2023-02-11T00:00:00	2024-11-08T21:00:00	1	Precipitación	0
86880	7	Sololá	717	San Juan la Laguna	12	San Juan la Laguna	11	Noviembre	2023-02-11T00:00:00	2024-11-08T21:00:00	8	Radiación solar	0
86881	7	Sololá	717	San Juan la Laguna	12	San Juan la Laguna	11	Noviembre	2023-02-11T00:00:00	2024-11-08T22:00:00	2	Temperatura media	19.9
86882	7	Sololá	717	San Juan la Laguna	12	San Juan la Laguna	11	Noviembre	2023-02-11T00:00:00	2024-11-08T22:00:00	4	Temperatura máxima	20.2
86883	7	Sololá	717	San Juan la Laguna	12	San Juan la Laguna	11	Noviembre	2023-02-11T00:00:00	2024-11-08T22:00:00	3	Temperatura mínima	19.4
86884	7	Sololá	717	San Juan la Laguna	12	San Juan la Laguna	11	Noviembre	2023-02-11T00:00:00	2024-11-08T22:00:00	5	Humedad	73
86885	7	Sololá	717	San Juan la Laguna	12	San Juan la Laguna	11	Noviembre	2023-02-11T00:00:00	2024-11-08T22:00:00	6	Velocidad del viento	0
86886	7	Sololá	717	San Juan la Laguna	12	San Juan la Laguna	11	Noviembre	2023-02-11T00:00:00	2024-11-08T22:00:00	7	Dirección del viento	0
86887	7	Sololá	717	San Juan la Laguna	12	San Juan la Laguna	11	Noviembre	2023-02-11T00:00:00	2024-11-08T22:00:00	1	Precipitación	0
86888	7	Sololá	717	San Juan la Laguna	12	San Juan la Laguna	11	Noviembre	2023-02-11T00:00:00	2024-11-08T22:00:00	8	Radiación solar	0
86889	7	Sololá	717	San Juan la Laguna	12	San Juan la Laguna	11	Noviembre	2023-02-11T00:00:00	2024-11-08T23:00:00	2	Temperatura media	19.7
86890	7	Sololá	717	San Juan la Laguna	12	San Juan la Laguna	11	Noviembre	2023-02-11T00:00:00	2024-11-08T23:00:00	4	Temperatura máxima	20.2
86891	7	Sololá	717	San Juan la Laguna	12	San Juan la Laguna	11	Noviembre	2023-02-11T00:00:00	2024-11-08T23:00:00	3	Temperatura mínima	19.7
86892	7	Sololá	717	San Juan la Laguna	12	San Juan la Laguna	11	Noviembre	2023-02-11T00:00:00	2024-11-08T23:00:00	5	Humedad	72
86893	7	Sololá	717	San Juan la Laguna	12	San Juan la Laguna	11	Noviembre	2023-02-11T00:00:00	2024-11-08T23:00:00	6	Velocidad del viento	0
86894	7	Sololá	717	San Juan la Laguna	12	San Juan la Laguna	11	Noviembre	2023-02-11T00:00:00	2024-11-08T23:00:00	7	Dirección del viento	0
86895	7	Sololá	717	San Juan la Laguna	12	San Juan la Laguna	11	Noviembre	2023-02-11T00:00:00	2024-11-08T23:00:00	1	Precipitación	0
86896	7	Sololá	717	San Juan la Laguna	12	San Juan la Laguna	11	Noviembre	2023-02-11T00:00:00	2024-11-08T23:00:00	8	Radiación solar	0
86897	7	Sololá	717	San Juan la Laguna	12	San Juan la Laguna	11	Noviembre	2023-03-11T00:00:00	2024-11-08T00:00:00	2	Temperatura media	19.6
86898	7	Sololá	717	San Juan la Laguna	12	San Juan la Laguna	11	Noviembre	2023-03-11T00:00:00	2024-11-08T00:00:00	4	Temperatura máxima	19.9
86899	7	Sololá	717	San Juan la Laguna	12	San Juan la Laguna	11	Noviembre	2023-03-11T00:00:00	2024-11-08T00:00:00	3	Temperatura mínima	19.6
86900	7	Sololá	717	San Juan la Laguna	12	San Juan la Laguna	11	Noviembre	2023-03-11T00:00:00	2024-11-08T00:00:00	5	Humedad	70
86901	7	Sololá	717	San Juan la Laguna	12	San Juan la Laguna	11	Noviembre	2023-03-11T00:00:00	2024-11-08T00:00:00	6	Velocidad del viento	0
86902	7	Sololá	717	San Juan la Laguna	12	San Juan la Laguna	11	Noviembre	2023-03-11T00:00:00	2024-11-08T00:00:00	7	Dirección del viento	0
86903	7	Sololá	717	San Juan la Laguna	12	San Juan la Laguna	11	Noviembre	2023-03-11T00:00:00	2024-11-08T00:00:00	1	Precipitación	0
86904	7	Sololá	717	San Juan la Laguna	12	San Juan la Laguna	11	Noviembre	2023-03-11T00:00:00	2024-11-08T00:00:00	8	Radiación solar	0
86905	7	Sololá	717	San Juan la Laguna	12	San Juan la Laguna	11	Noviembre	2023-03-11T00:00:00	2024-11-08T01:00:00	2	Temperatura media	19.3
86906	7	Sololá	717	San Juan la Laguna	12	San Juan la Laguna	11	Noviembre	2023-03-11T00:00:00	2024-11-08T01:00:00	4	Temperatura máxima	19.6
86907	7	Sololá	717	San Juan la Laguna	12	San Juan la Laguna	11	Noviembre	2023-03-11T00:00:00	2024-11-08T01:00:00	3	Temperatura mínima	19.3
86908	7	Sololá	717	San Juan la Laguna	12	San Juan la Laguna	11	Noviembre	2023-03-11T00:00:00	2024-11-08T01:00:00	5	Humedad	71
86909	7	Sololá	717	San Juan la Laguna	12	San Juan la Laguna	11	Noviembre	2023-03-11T00:00:00	2024-11-08T01:00:00	6	Velocidad del viento	0
86910	7	Sololá	717	San Juan la Laguna	12	San Juan la Laguna	11	Noviembre	2023-03-11T00:00:00	2024-11-08T01:00:00	7	Dirección del viento	0
86911	7	Sololá	717	San Juan la Laguna	12	San Juan la Laguna	11	Noviembre	2023-03-11T00:00:00	2024-11-08T01:00:00	1	Precipitación	0
86912	7	Sololá	717	San Juan la Laguna	12	San Juan la Laguna	11	Noviembre	2023-03-11T00:00:00	2024-11-08T01:00:00	8	Radiación solar	0
86913	7	Sololá	717	San Juan la Laguna	12	San Juan la Laguna	11	Noviembre	2023-03-11T00:00:00	2024-11-08T02:00:00	2	Temperatura media	17.5
86914	7	Sololá	717	San Juan la Laguna	12	San Juan la Laguna	11	Noviembre	2023-03-11T00:00:00	2024-11-08T02:00:00	4	Temperatura máxima	19.3
86915	7	Sololá	717	San Juan la Laguna	12	San Juan la Laguna	11	Noviembre	2023-03-11T00:00:00	2024-11-08T02:00:00	3	Temperatura mínima	17.4
86916	7	Sololá	717	San Juan la Laguna	12	San Juan la Laguna	11	Noviembre	2023-03-11T00:00:00	2024-11-08T02:00:00	5	Humedad	79
86917	7	Sololá	717	San Juan la Laguna	12	San Juan la Laguna	11	Noviembre	2023-03-11T00:00:00	2024-11-08T02:00:00	6	Velocidad del viento	0
86918	7	Sololá	717	San Juan la Laguna	12	San Juan la Laguna	11	Noviembre	2023-03-11T00:00:00	2024-11-08T02:00:00	7	Dirección del viento	0
86919	7	Sololá	717	San Juan la Laguna	12	San Juan la Laguna	11	Noviembre	2023-03-11T00:00:00	2024-11-08T02:00:00	1	Precipitación	0
86920	7	Sololá	717	San Juan la Laguna	12	San Juan la Laguna	11	Noviembre	2023-03-11T00:00:00	2024-11-08T02:00:00	8	Radiación solar	0
86921	7	Sololá	717	San Juan la Laguna	12	San Juan la Laguna	11	Noviembre	2023-03-11T00:00:00	2024-11-08T03:00:00	2	Temperatura media	19
86922	7	Sololá	717	San Juan la Laguna	12	San Juan la Laguna	11	Noviembre	2023-03-11T00:00:00	2024-11-08T03:00:00	4	Temperatura máxima	19
86923	7	Sololá	717	San Juan la Laguna	12	San Juan la Laguna	11	Noviembre	2023-03-11T00:00:00	2024-11-08T03:00:00	3	Temperatura mínima	17.1
86924	7	Sololá	717	San Juan la Laguna	12	San Juan la Laguna	11	Noviembre	2023-03-11T00:00:00	2024-11-08T03:00:00	5	Humedad	70
86925	7	Sololá	717	San Juan la Laguna	12	San Juan la Laguna	11	Noviembre	2023-03-11T00:00:00	2024-11-08T03:00:00	6	Velocidad del viento	0
86926	7	Sololá	717	San Juan la Laguna	12	San Juan la Laguna	11	Noviembre	2023-03-11T00:00:00	2024-11-08T03:00:00	7	Dirección del viento	0
86927	7	Sololá	717	San Juan la Laguna	12	San Juan la Laguna	11	Noviembre	2023-03-11T00:00:00	2024-11-08T03:00:00	1	Precipitación	0
86928	7	Sololá	717	San Juan la Laguna	12	San Juan la Laguna	11	Noviembre	2023-03-11T00:00:00	2024-11-08T03:00:00	8	Radiación solar	0
86929	7	Sololá	717	San Juan la Laguna	12	San Juan la Laguna	11	Noviembre	2023-03-11T00:00:00	2024-11-08T04:00:00	2	Temperatura media	17.8
86930	7	Sololá	717	San Juan la Laguna	12	San Juan la Laguna	11	Noviembre	2023-03-11T00:00:00	2024-11-08T04:00:00	4	Temperatura máxima	19.1
86931	7	Sololá	717	San Juan la Laguna	12	San Juan la Laguna	11	Noviembre	2023-03-11T00:00:00	2024-11-08T04:00:00	3	Temperatura mínima	17.8
86932	7	Sololá	717	San Juan la Laguna	12	San Juan la Laguna	11	Noviembre	2023-03-11T00:00:00	2024-11-08T04:00:00	5	Humedad	75
86933	7	Sololá	717	San Juan la Laguna	12	San Juan la Laguna	11	Noviembre	2023-03-11T00:00:00	2024-11-08T04:00:00	6	Velocidad del viento	1.6
86934	7	Sololá	717	San Juan la Laguna	12	San Juan la Laguna	11	Noviembre	2023-03-11T00:00:00	2024-11-08T04:00:00	7	Dirección del viento	1.61
86935	7	Sololá	717	San Juan la Laguna	12	San Juan la Laguna	11	Noviembre	2023-03-11T00:00:00	2024-11-08T04:00:00	1	Precipitación	0
86936	7	Sololá	717	San Juan la Laguna	12	San Juan la Laguna	11	Noviembre	2023-03-11T00:00:00	2024-11-08T04:00:00	8	Radiación solar	0
86937	7	Sololá	717	San Juan la Laguna	12	San Juan la Laguna	11	Noviembre	2023-03-11T00:00:00	2024-11-08T05:00:00	2	Temperatura media	18.6
86938	7	Sololá	717	San Juan la Laguna	12	San Juan la Laguna	11	Noviembre	2023-03-11T00:00:00	2024-11-08T05:00:00	4	Temperatura máxima	18.8
86939	7	Sololá	717	San Juan la Laguna	12	San Juan la Laguna	11	Noviembre	2023-03-11T00:00:00	2024-11-08T05:00:00	3	Temperatura mínima	17.8
86940	7	Sololá	717	San Juan la Laguna	12	San Juan la Laguna	11	Noviembre	2023-03-11T00:00:00	2024-11-08T05:00:00	5	Humedad	70
86941	7	Sololá	717	San Juan la Laguna	12	San Juan la Laguna	11	Noviembre	2023-03-11T00:00:00	2024-11-08T05:00:00	6	Velocidad del viento	0
86942	7	Sololá	717	San Juan la Laguna	12	San Juan la Laguna	11	Noviembre	2023-03-11T00:00:00	2024-11-08T05:00:00	7	Dirección del viento	0
86943	7	Sololá	717	San Juan la Laguna	12	San Juan la Laguna	11	Noviembre	2023-03-11T00:00:00	2024-11-08T05:00:00	1	Precipitación	0
86944	7	Sololá	717	San Juan la Laguna	12	San Juan la Laguna	11	Noviembre	2023-03-11T00:00:00	2024-11-08T05:00:00	8	Radiación solar	0
86945	7	Sololá	717	San Juan la Laguna	12	San Juan la Laguna	11	Noviembre	2023-03-11T00:00:00	2024-11-08T06:00:00	2	Temperatura media	18.7
86946	7	Sololá	717	San Juan la Laguna	12	San Juan la Laguna	11	Noviembre	2023-03-11T00:00:00	2024-11-08T06:00:00	4	Temperatura máxima	18.7
86947	7	Sololá	717	San Juan la Laguna	12	San Juan la Laguna	11	Noviembre	2023-03-11T00:00:00	2024-11-08T06:00:00	3	Temperatura mínima	18.3
86948	7	Sololá	717	San Juan la Laguna	12	San Juan la Laguna	11	Noviembre	2023-03-11T00:00:00	2024-11-08T06:00:00	5	Humedad	70
86949	7	Sololá	717	San Juan la Laguna	12	San Juan la Laguna	11	Noviembre	2023-03-11T00:00:00	2024-11-08T06:00:00	6	Velocidad del viento	1.6
86950	7	Sololá	717	San Juan la Laguna	12	San Juan la Laguna	11	Noviembre	2023-03-11T00:00:00	2024-11-08T06:00:00	7	Dirección del viento	1.61
86951	7	Sololá	717	San Juan la Laguna	12	San Juan la Laguna	11	Noviembre	2023-03-11T00:00:00	2024-11-08T06:00:00	1	Precipitación	0
86952	7	Sololá	717	San Juan la Laguna	12	San Juan la Laguna	11	Noviembre	2023-03-11T00:00:00	2024-11-08T06:00:00	8	Radiación solar	0
86953	7	Sololá	717	San Juan la Laguna	12	San Juan la Laguna	11	Noviembre	2023-03-11T00:00:00	2024-11-08T07:00:00	2	Temperatura media	18.5
86954	7	Sololá	717	San Juan la Laguna	12	San Juan la Laguna	11	Noviembre	2023-03-11T00:00:00	2024-11-08T07:00:00	4	Temperatura máxima	18.9
86955	7	Sololá	717	San Juan la Laguna	12	San Juan la Laguna	11	Noviembre	2023-03-11T00:00:00	2024-11-08T07:00:00	3	Temperatura mínima	18.5
86956	7	Sololá	717	San Juan la Laguna	12	San Juan la Laguna	11	Noviembre	2023-03-11T00:00:00	2024-11-08T07:00:00	5	Humedad	72
86957	7	Sololá	717	San Juan la Laguna	12	San Juan la Laguna	11	Noviembre	2023-03-11T00:00:00	2024-11-08T07:00:00	6	Velocidad del viento	1.6
86958	7	Sololá	717	San Juan la Laguna	12	San Juan la Laguna	11	Noviembre	2023-03-11T00:00:00	2024-11-08T07:00:00	7	Dirección del viento	1.61
86959	7	Sololá	717	San Juan la Laguna	12	San Juan la Laguna	11	Noviembre	2023-03-11T00:00:00	2024-11-08T07:00:00	1	Precipitación	0
86960	7	Sololá	717	San Juan la Laguna	12	San Juan la Laguna	11	Noviembre	2023-03-11T00:00:00	2024-11-08T07:00:00	8	Radiación solar	25
86961	7	Sololá	717	San Juan la Laguna	12	San Juan la Laguna	11	Noviembre	2023-03-11T00:00:00	2024-11-08T08:00:00	2	Temperatura media	19.4
86962	7	Sololá	717	San Juan la Laguna	12	San Juan la Laguna	11	Noviembre	2023-03-11T00:00:00	2024-11-08T08:00:00	4	Temperatura máxima	19.5
86963	7	Sololá	717	San Juan la Laguna	12	San Juan la Laguna	11	Noviembre	2023-03-11T00:00:00	2024-11-08T08:00:00	3	Temperatura mínima	18.3
86964	7	Sololá	717	San Juan la Laguna	12	San Juan la Laguna	11	Noviembre	2023-03-11T00:00:00	2024-11-08T08:00:00	5	Humedad	68
86965	7	Sololá	717	San Juan la Laguna	12	San Juan la Laguna	11	Noviembre	2023-03-11T00:00:00	2024-11-08T08:00:00	6	Velocidad del viento	0
86966	7	Sololá	717	San Juan la Laguna	12	San Juan la Laguna	11	Noviembre	2023-03-11T00:00:00	2024-11-08T08:00:00	7	Dirección del viento	0
86967	7	Sololá	717	San Juan la Laguna	12	San Juan la Laguna	11	Noviembre	2023-03-11T00:00:00	2024-11-08T08:00:00	1	Precipitación	0
86968	7	Sololá	717	San Juan la Laguna	12	San Juan la Laguna	11	Noviembre	2023-03-11T00:00:00	2024-11-08T08:00:00	8	Radiación solar	82
86969	7	Sololá	717	San Juan la Laguna	12	San Juan la Laguna	11	Noviembre	2023-03-11T00:00:00	2024-11-08T09:00:00	2	Temperatura media	22
86970	7	Sololá	717	San Juan la Laguna	12	San Juan la Laguna	11	Noviembre	2023-03-11T00:00:00	2024-11-08T09:00:00	4	Temperatura máxima	22
86971	7	Sololá	717	San Juan la Laguna	12	San Juan la Laguna	11	Noviembre	2023-03-11T00:00:00	2024-11-08T09:00:00	3	Temperatura mínima	19.4
86972	7	Sololá	717	San Juan la Laguna	12	San Juan la Laguna	11	Noviembre	2023-03-11T00:00:00	2024-11-08T09:00:00	5	Humedad	59
86973	7	Sololá	717	San Juan la Laguna	12	San Juan la Laguna	11	Noviembre	2023-03-11T00:00:00	2024-11-08T09:00:00	6	Velocidad del viento	0
86974	7	Sololá	717	San Juan la Laguna	12	San Juan la Laguna	11	Noviembre	2023-03-11T00:00:00	2024-11-08T09:00:00	7	Dirección del viento	0
86975	7	Sololá	717	San Juan la Laguna	12	San Juan la Laguna	11	Noviembre	2023-03-11T00:00:00	2024-11-08T09:00:00	1	Precipitación	0
86976	7	Sololá	717	San Juan la Laguna	12	San Juan la Laguna	11	Noviembre	2023-03-11T00:00:00	2024-11-08T09:00:00	8	Radiación solar	351
86977	7	Sololá	717	San Juan la Laguna	12	San Juan la Laguna	11	Noviembre	2023-03-11T00:00:00	2024-11-08T10:00:00	2	Temperatura media	22.3
86978	7	Sololá	717	San Juan la Laguna	12	San Juan la Laguna	11	Noviembre	2023-03-11T00:00:00	2024-11-08T10:00:00	4	Temperatura máxima	22.9
86979	7	Sololá	717	San Juan la Laguna	12	San Juan la Laguna	11	Noviembre	2023-03-11T00:00:00	2024-11-08T10:00:00	3	Temperatura mínima	22
86980	7	Sololá	717	San Juan la Laguna	12	San Juan la Laguna	11	Noviembre	2023-03-11T00:00:00	2024-11-08T10:00:00	5	Humedad	60
86981	7	Sololá	717	San Juan la Laguna	12	San Juan la Laguna	11	Noviembre	2023-03-11T00:00:00	2024-11-08T10:00:00	6	Velocidad del viento	0
86982	7	Sololá	717	San Juan la Laguna	12	San Juan la Laguna	11	Noviembre	2023-03-11T00:00:00	2024-11-08T10:00:00	7	Dirección del viento	0
86983	7	Sololá	717	San Juan la Laguna	12	San Juan la Laguna	11	Noviembre	2023-03-11T00:00:00	2024-11-08T10:00:00	1	Precipitación	0
86984	7	Sololá	717	San Juan la Laguna	12	San Juan la Laguna	11	Noviembre	2023-03-11T00:00:00	2024-11-08T10:00:00	8	Radiación solar	404
86985	7	Sololá	717	San Juan la Laguna	12	San Juan la Laguna	11	Noviembre	2023-03-11T00:00:00	2024-11-08T11:00:00	2	Temperatura media	22.9
86986	7	Sololá	717	San Juan la Laguna	12	San Juan la Laguna	11	Noviembre	2023-03-11T00:00:00	2024-11-08T11:00:00	4	Temperatura máxima	22.9
86987	7	Sololá	717	San Juan la Laguna	12	San Juan la Laguna	11	Noviembre	2023-03-11T00:00:00	2024-11-08T11:00:00	3	Temperatura mínima	22.2
86988	7	Sololá	717	San Juan la Laguna	12	San Juan la Laguna	11	Noviembre	2023-03-11T00:00:00	2024-11-08T11:00:00	5	Humedad	60
86989	7	Sololá	717	San Juan la Laguna	12	San Juan la Laguna	11	Noviembre	2023-03-11T00:00:00	2024-11-08T11:00:00	6	Velocidad del viento	0
86990	7	Sololá	717	San Juan la Laguna	12	San Juan la Laguna	11	Noviembre	2023-03-11T00:00:00	2024-11-08T11:00:00	7	Dirección del viento	0
86991	7	Sololá	717	San Juan la Laguna	12	San Juan la Laguna	11	Noviembre	2023-03-11T00:00:00	2024-11-08T11:00:00	1	Precipitación	0
86992	7	Sololá	717	San Juan la Laguna	12	San Juan la Laguna	11	Noviembre	2023-03-11T00:00:00	2024-11-08T11:00:00	8	Radiación solar	367
86993	7	Sololá	717	San Juan la Laguna	12	San Juan la Laguna	11	Noviembre	2023-03-11T00:00:00	2024-11-08T12:00:00	2	Temperatura media	23.8
86994	7	Sololá	717	San Juan la Laguna	12	San Juan la Laguna	11	Noviembre	2023-03-11T00:00:00	2024-11-08T12:00:00	4	Temperatura máxima	24.4
86995	7	Sololá	717	San Juan la Laguna	12	San Juan la Laguna	11	Noviembre	2023-03-11T00:00:00	2024-11-08T12:00:00	3	Temperatura mínima	22.9
86996	7	Sololá	717	San Juan la Laguna	12	San Juan la Laguna	11	Noviembre	2023-03-11T00:00:00	2024-11-08T12:00:00	5	Humedad	56
86997	7	Sololá	717	San Juan la Laguna	12	San Juan la Laguna	11	Noviembre	2023-03-11T00:00:00	2024-11-08T12:00:00	6	Velocidad del viento	0
86998	7	Sololá	717	San Juan la Laguna	12	San Juan la Laguna	11	Noviembre	2023-03-11T00:00:00	2024-11-08T12:00:00	7	Dirección del viento	0
86999	7	Sololá	717	San Juan la Laguna	12	San Juan la Laguna	11	Noviembre	2023-03-11T00:00:00	2024-11-08T12:00:00	1	Precipitación	0
87000	7	Sololá	717	San Juan la Laguna	12	San Juan la Laguna	11	Noviembre	2023-03-11T00:00:00	2024-11-08T12:00:00	8	Radiación solar	586
87001	7	Sololá	717	San Juan la Laguna	12	San Juan la Laguna	11	Noviembre	2023-03-11T00:00:00	2024-11-08T13:00:00	2	Temperatura media	24.2
87002	7	Sololá	717	San Juan la Laguna	12	San Juan la Laguna	11	Noviembre	2023-03-11T00:00:00	2024-11-08T13:00:00	4	Temperatura máxima	24.6
87003	7	Sololá	717	San Juan la Laguna	12	San Juan la Laguna	11	Noviembre	2023-03-11T00:00:00	2024-11-08T13:00:00	3	Temperatura mínima	23.7
87004	7	Sololá	717	San Juan la Laguna	12	San Juan la Laguna	11	Noviembre	2023-03-11T00:00:00	2024-11-08T13:00:00	5	Humedad	57
87005	7	Sololá	717	San Juan la Laguna	12	San Juan la Laguna	11	Noviembre	2023-03-11T00:00:00	2024-11-08T13:00:00	6	Velocidad del viento	1.6
87006	7	Sololá	717	San Juan la Laguna	12	San Juan la Laguna	11	Noviembre	2023-03-11T00:00:00	2024-11-08T13:00:00	7	Dirección del viento	1.61
87007	7	Sololá	717	San Juan la Laguna	12	San Juan la Laguna	11	Noviembre	2023-03-11T00:00:00	2024-11-08T13:00:00	1	Precipitación	0
87008	7	Sololá	717	San Juan la Laguna	12	San Juan la Laguna	11	Noviembre	2023-03-11T00:00:00	2024-11-08T13:00:00	8	Radiación solar	464
87009	7	Sololá	717	San Juan la Laguna	12	San Juan la Laguna	11	Noviembre	2023-03-11T00:00:00	2024-11-08T14:00:00	2	Temperatura media	23
87010	7	Sololá	717	San Juan la Laguna	12	San Juan la Laguna	11	Noviembre	2023-03-11T00:00:00	2024-11-08T14:00:00	4	Temperatura máxima	24.3
87011	7	Sololá	717	San Juan la Laguna	12	San Juan la Laguna	11	Noviembre	2023-03-11T00:00:00	2024-11-08T14:00:00	3	Temperatura mínima	23
87012	7	Sololá	717	San Juan la Laguna	12	San Juan la Laguna	11	Noviembre	2023-03-11T00:00:00	2024-11-08T14:00:00	5	Humedad	59
87013	7	Sololá	717	San Juan la Laguna	12	San Juan la Laguna	11	Noviembre	2023-03-11T00:00:00	2024-11-08T14:00:00	6	Velocidad del viento	1.6
87014	7	Sololá	717	San Juan la Laguna	12	San Juan la Laguna	11	Noviembre	2023-03-11T00:00:00	2024-11-08T14:00:00	7	Dirección del viento	1.61
87015	7	Sololá	717	San Juan la Laguna	12	San Juan la Laguna	11	Noviembre	2023-03-11T00:00:00	2024-11-08T14:00:00	1	Precipitación	0
87016	7	Sololá	717	San Juan la Laguna	12	San Juan la Laguna	11	Noviembre	2023-03-11T00:00:00	2024-11-08T14:00:00	8	Radiación solar	351
87017	7	Sololá	717	San Juan la Laguna	12	San Juan la Laguna	11	Noviembre	2023-03-11T00:00:00	2024-11-08T15:00:00	2	Temperatura media	22.7
87018	7	Sololá	717	San Juan la Laguna	12	San Juan la Laguna	11	Noviembre	2023-03-11T00:00:00	2024-11-08T15:00:00	4	Temperatura máxima	23.1
87019	7	Sololá	717	San Juan la Laguna	12	San Juan la Laguna	11	Noviembre	2023-03-11T00:00:00	2024-11-08T15:00:00	3	Temperatura mínima	22.6
87020	7	Sololá	717	San Juan la Laguna	12	San Juan la Laguna	11	Noviembre	2023-03-11T00:00:00	2024-11-08T15:00:00	5	Humedad	60
87021	7	Sololá	717	San Juan la Laguna	12	San Juan la Laguna	11	Noviembre	2023-03-11T00:00:00	2024-11-08T15:00:00	6	Velocidad del viento	3.2
87022	7	Sololá	717	San Juan la Laguna	12	San Juan la Laguna	11	Noviembre	2023-03-11T00:00:00	2024-11-08T15:00:00	7	Dirección del viento	3.22
87023	7	Sololá	717	San Juan la Laguna	12	San Juan la Laguna	11	Noviembre	2023-03-11T00:00:00	2024-11-08T15:00:00	1	Precipitación	0
87024	7	Sololá	717	San Juan la Laguna	12	San Juan la Laguna	11	Noviembre	2023-03-11T00:00:00	2024-11-08T15:00:00	8	Radiación solar	284
87025	7	Sololá	717	San Juan la Laguna	12	San Juan la Laguna	11	Noviembre	2023-03-11T00:00:00	2024-11-08T16:00:00	2	Temperatura media	22.7
87026	7	Sololá	717	San Juan la Laguna	12	San Juan la Laguna	11	Noviembre	2023-03-11T00:00:00	2024-11-08T16:00:00	4	Temperatura máxima	22.7
87027	7	Sololá	717	San Juan la Laguna	12	San Juan la Laguna	11	Noviembre	2023-03-11T00:00:00	2024-11-08T16:00:00	3	Temperatura mínima	22.2
87028	7	Sololá	717	San Juan la Laguna	12	San Juan la Laguna	11	Noviembre	2023-03-11T00:00:00	2024-11-08T16:00:00	5	Humedad	63
87029	7	Sololá	717	San Juan la Laguna	12	San Juan la Laguna	11	Noviembre	2023-03-11T00:00:00	2024-11-08T16:00:00	6	Velocidad del viento	1.6
87030	7	Sololá	717	San Juan la Laguna	12	San Juan la Laguna	11	Noviembre	2023-03-11T00:00:00	2024-11-08T16:00:00	7	Dirección del viento	1.61
87031	7	Sololá	717	San Juan la Laguna	12	San Juan la Laguna	11	Noviembre	2023-03-11T00:00:00	2024-11-08T16:00:00	1	Precipitación	0
87032	7	Sololá	717	San Juan la Laguna	12	San Juan la Laguna	11	Noviembre	2023-03-11T00:00:00	2024-11-08T16:00:00	8	Radiación solar	193
87033	7	Sololá	717	San Juan la Laguna	12	San Juan la Laguna	11	Noviembre	2023-03-11T00:00:00	2024-11-08T17:00:00	2	Temperatura media	22.2
87034	7	Sololá	717	San Juan la Laguna	12	San Juan la Laguna	11	Noviembre	2023-03-11T00:00:00	2024-11-08T17:00:00	4	Temperatura máxima	23.2
87035	7	Sololá	717	San Juan la Laguna	12	San Juan la Laguna	11	Noviembre	2023-03-11T00:00:00	2024-11-08T17:00:00	3	Temperatura mínima	22.2
87036	7	Sololá	717	San Juan la Laguna	12	San Juan la Laguna	11	Noviembre	2023-03-11T00:00:00	2024-11-08T17:00:00	5	Humedad	61
87037	7	Sololá	717	San Juan la Laguna	12	San Juan la Laguna	11	Noviembre	2023-03-11T00:00:00	2024-11-08T17:00:00	6	Velocidad del viento	1.6
87038	7	Sololá	717	San Juan la Laguna	12	San Juan la Laguna	11	Noviembre	2023-03-11T00:00:00	2024-11-08T17:00:00	7	Dirección del viento	1.61
87039	7	Sololá	717	San Juan la Laguna	12	San Juan la Laguna	11	Noviembre	2023-03-11T00:00:00	2024-11-08T17:00:00	1	Precipitación	0
87040	7	Sololá	717	San Juan la Laguna	12	San Juan la Laguna	11	Noviembre	2023-03-11T00:00:00	2024-11-08T17:00:00	8	Radiación solar	204
87041	7	Sololá	717	San Juan la Laguna	12	San Juan la Laguna	11	Noviembre	2023-03-11T00:00:00	2024-11-08T18:00:00	2	Temperatura media	20.9
87042	7	Sololá	717	San Juan la Laguna	12	San Juan la Laguna	11	Noviembre	2023-03-11T00:00:00	2024-11-08T18:00:00	4	Temperatura máxima	22.1
87043	7	Sololá	717	San Juan la Laguna	12	San Juan la Laguna	11	Noviembre	2023-03-11T00:00:00	2024-11-08T18:00:00	3	Temperatura mínima	20.9
87044	7	Sololá	717	San Juan la Laguna	12	San Juan la Laguna	11	Noviembre	2023-03-11T00:00:00	2024-11-08T18:00:00	5	Humedad	61
87045	7	Sololá	717	San Juan la Laguna	12	San Juan la Laguna	11	Noviembre	2023-03-11T00:00:00	2024-11-08T18:00:00	6	Velocidad del viento	1.6
87046	7	Sololá	717	San Juan la Laguna	12	San Juan la Laguna	11	Noviembre	2023-03-11T00:00:00	2024-11-08T18:00:00	7	Dirección del viento	1.61
87047	7	Sololá	717	San Juan la Laguna	12	San Juan la Laguna	11	Noviembre	2023-03-11T00:00:00	2024-11-08T18:00:00	1	Precipitación	0
87048	7	Sololá	717	San Juan la Laguna	12	San Juan la Laguna	11	Noviembre	2023-03-11T00:00:00	2024-11-08T18:00:00	8	Radiación solar	20
87049	7	Sololá	717	San Juan la Laguna	12	San Juan la Laguna	11	Noviembre	2023-03-11T00:00:00	2024-11-08T19:00:00	2	Temperatura media	20.5
87050	7	Sololá	717	San Juan la Laguna	12	San Juan la Laguna	11	Noviembre	2023-03-11T00:00:00	2024-11-08T19:00:00	4	Temperatura máxima	21
87051	7	Sololá	717	San Juan la Laguna	12	San Juan la Laguna	11	Noviembre	2023-03-11T00:00:00	2024-11-08T19:00:00	3	Temperatura mínima	20.3
87052	7	Sololá	717	San Juan la Laguna	12	San Juan la Laguna	11	Noviembre	2023-03-11T00:00:00	2024-11-08T19:00:00	5	Humedad	60
87053	7	Sololá	717	San Juan la Laguna	12	San Juan la Laguna	11	Noviembre	2023-03-11T00:00:00	2024-11-08T19:00:00	6	Velocidad del viento	0
87054	7	Sololá	717	San Juan la Laguna	12	San Juan la Laguna	11	Noviembre	2023-03-11T00:00:00	2024-11-08T19:00:00	7	Dirección del viento	0
87055	7	Sololá	717	San Juan la Laguna	12	San Juan la Laguna	11	Noviembre	2023-03-11T00:00:00	2024-11-08T19:00:00	1	Precipitación	0
87056	7	Sololá	717	San Juan la Laguna	12	San Juan la Laguna	11	Noviembre	2023-03-11T00:00:00	2024-11-08T19:00:00	8	Radiación solar	0
87057	7	Sololá	717	San Juan la Laguna	12	San Juan la Laguna	11	Noviembre	2023-03-11T00:00:00	2024-11-08T20:00:00	2	Temperatura media	21.4
87058	7	Sololá	717	San Juan la Laguna	12	San Juan la Laguna	11	Noviembre	2023-03-11T00:00:00	2024-11-08T20:00:00	4	Temperatura máxima	21.4
87059	7	Sololá	717	San Juan la Laguna	12	San Juan la Laguna	11	Noviembre	2023-03-11T00:00:00	2024-11-08T20:00:00	3	Temperatura mínima	19.7
87060	7	Sololá	717	San Juan la Laguna	12	San Juan la Laguna	11	Noviembre	2023-03-11T00:00:00	2024-11-08T20:00:00	5	Humedad	54
87061	7	Sololá	717	San Juan la Laguna	12	San Juan la Laguna	11	Noviembre	2023-03-11T00:00:00	2024-11-08T20:00:00	6	Velocidad del viento	0
87062	7	Sololá	717	San Juan la Laguna	12	San Juan la Laguna	11	Noviembre	2023-03-11T00:00:00	2024-11-08T20:00:00	7	Dirección del viento	0
87063	7	Sololá	717	San Juan la Laguna	12	San Juan la Laguna	11	Noviembre	2023-03-11T00:00:00	2024-11-08T20:00:00	1	Precipitación	0
87064	7	Sololá	717	San Juan la Laguna	12	San Juan la Laguna	11	Noviembre	2023-03-11T00:00:00	2024-11-08T20:00:00	8	Radiación solar	0
87065	7	Sololá	717	San Juan la Laguna	12	San Juan la Laguna	11	Noviembre	2023-03-11T00:00:00	2024-11-08T21:00:00	2	Temperatura media	21.8
87066	7	Sololá	717	San Juan la Laguna	12	San Juan la Laguna	11	Noviembre	2023-03-11T00:00:00	2024-11-08T21:00:00	4	Temperatura máxima	21.9
87067	7	Sololá	717	San Juan la Laguna	12	San Juan la Laguna	11	Noviembre	2023-03-11T00:00:00	2024-11-08T21:00:00	3	Temperatura mínima	21.4
87068	7	Sololá	717	San Juan la Laguna	12	San Juan la Laguna	11	Noviembre	2023-03-11T00:00:00	2024-11-08T21:00:00	5	Humedad	56
87069	7	Sololá	717	San Juan la Laguna	12	San Juan la Laguna	11	Noviembre	2023-03-11T00:00:00	2024-11-08T21:00:00	6	Velocidad del viento	3.2
87070	7	Sololá	717	San Juan la Laguna	12	San Juan la Laguna	11	Noviembre	2023-03-11T00:00:00	2024-11-08T21:00:00	7	Dirección del viento	3.22
87071	7	Sololá	717	San Juan la Laguna	12	San Juan la Laguna	11	Noviembre	2023-03-11T00:00:00	2024-11-08T21:00:00	1	Precipitación	0
87072	7	Sololá	717	San Juan la Laguna	12	San Juan la Laguna	11	Noviembre	2023-03-11T00:00:00	2024-11-08T21:00:00	8	Radiación solar	0
87073	7	Sololá	717	San Juan la Laguna	12	San Juan la Laguna	11	Noviembre	2023-03-11T00:00:00	2024-11-08T22:00:00	2	Temperatura media	21.4
87074	7	Sololá	717	San Juan la Laguna	12	San Juan la Laguna	11	Noviembre	2023-03-11T00:00:00	2024-11-08T22:00:00	4	Temperatura máxima	21.8
87075	7	Sololá	717	San Juan la Laguna	12	San Juan la Laguna	11	Noviembre	2023-03-11T00:00:00	2024-11-08T22:00:00	3	Temperatura mínima	21.3
87076	7	Sololá	717	San Juan la Laguna	12	San Juan la Laguna	11	Noviembre	2023-03-11T00:00:00	2024-11-08T22:00:00	5	Humedad	59
87077	7	Sololá	717	San Juan la Laguna	12	San Juan la Laguna	11	Noviembre	2023-03-11T00:00:00	2024-11-08T22:00:00	6	Velocidad del viento	3.2
87078	7	Sololá	717	San Juan la Laguna	12	San Juan la Laguna	11	Noviembre	2023-03-11T00:00:00	2024-11-08T22:00:00	7	Dirección del viento	3.22
87079	7	Sololá	717	San Juan la Laguna	12	San Juan la Laguna	11	Noviembre	2023-03-11T00:00:00	2024-11-08T22:00:00	1	Precipitación	0
87080	7	Sololá	717	San Juan la Laguna	12	San Juan la Laguna	11	Noviembre	2023-03-11T00:00:00	2024-11-08T22:00:00	8	Radiación solar	0
87081	7	Sololá	717	San Juan la Laguna	12	San Juan la Laguna	11	Noviembre	2023-03-11T00:00:00	2024-11-08T23:00:00	2	Temperatura media	21.3
87082	7	Sololá	717	San Juan la Laguna	12	San Juan la Laguna	11	Noviembre	2023-03-11T00:00:00	2024-11-08T23:00:00	4	Temperatura máxima	21.7
87083	7	Sololá	717	San Juan la Laguna	12	San Juan la Laguna	11	Noviembre	2023-03-11T00:00:00	2024-11-08T23:00:00	3	Temperatura mínima	21
87084	7	Sololá	717	San Juan la Laguna	12	San Juan la Laguna	11	Noviembre	2023-03-11T00:00:00	2024-11-08T23:00:00	5	Humedad	60
87085	7	Sololá	717	San Juan la Laguna	12	San Juan la Laguna	11	Noviembre	2023-03-11T00:00:00	2024-11-08T23:00:00	6	Velocidad del viento	1.6
87086	7	Sololá	717	San Juan la Laguna	12	San Juan la Laguna	11	Noviembre	2023-03-11T00:00:00	2024-11-08T23:00:00	7	Dirección del viento	1.61
87087	7	Sololá	717	San Juan la Laguna	12	San Juan la Laguna	11	Noviembre	2023-03-11T00:00:00	2024-11-08T23:00:00	1	Precipitación	0
87088	7	Sololá	717	San Juan la Laguna	12	San Juan la Laguna	11	Noviembre	2023-03-11T00:00:00	2024-11-08T23:00:00	8	Radiación solar	0
87089	7	Sololá	717	San Juan la Laguna	12	San Juan la Laguna	11	Noviembre	2023-04-11T00:00:00	2024-11-08T00:00:00	2	Temperatura media	22.2
87090	7	Sololá	717	San Juan la Laguna	12	San Juan la Laguna	11	Noviembre	2023-04-11T00:00:00	2024-11-08T00:00:00	4	Temperatura máxima	22.3
87091	7	Sololá	717	San Juan la Laguna	12	San Juan la Laguna	11	Noviembre	2023-04-11T00:00:00	2024-11-08T00:00:00	3	Temperatura mínima	21.3
87092	7	Sololá	717	San Juan la Laguna	12	San Juan la Laguna	11	Noviembre	2023-04-11T00:00:00	2024-11-08T00:00:00	5	Humedad	56
87093	7	Sololá	717	San Juan la Laguna	12	San Juan la Laguna	11	Noviembre	2023-04-11T00:00:00	2024-11-08T00:00:00	6	Velocidad del viento	1.6
87094	7	Sololá	717	San Juan la Laguna	12	San Juan la Laguna	11	Noviembre	2023-04-11T00:00:00	2024-11-08T00:00:00	7	Dirección del viento	1.61
87095	7	Sololá	717	San Juan la Laguna	12	San Juan la Laguna	11	Noviembre	2023-04-11T00:00:00	2024-11-08T00:00:00	1	Precipitación	0
87096	7	Sololá	717	San Juan la Laguna	12	San Juan la Laguna	11	Noviembre	2023-04-11T00:00:00	2024-11-08T00:00:00	8	Radiación solar	0
87097	7	Sololá	717	San Juan la Laguna	12	San Juan la Laguna	11	Noviembre	2023-04-11T00:00:00	2024-11-08T01:00:00	2	Temperatura media	21.1
87098	7	Sololá	717	San Juan la Laguna	12	San Juan la Laguna	11	Noviembre	2023-04-11T00:00:00	2024-11-08T01:00:00	4	Temperatura máxima	22.3
87099	7	Sololá	717	San Juan la Laguna	12	San Juan la Laguna	11	Noviembre	2023-04-11T00:00:00	2024-11-08T01:00:00	3	Temperatura mínima	20.7
87100	7	Sololá	717	San Juan la Laguna	12	San Juan la Laguna	11	Noviembre	2023-04-11T00:00:00	2024-11-08T01:00:00	5	Humedad	61
87101	7	Sololá	717	San Juan la Laguna	12	San Juan la Laguna	11	Noviembre	2023-04-11T00:00:00	2024-11-08T01:00:00	6	Velocidad del viento	1.6
87102	7	Sololá	717	San Juan la Laguna	12	San Juan la Laguna	11	Noviembre	2023-04-11T00:00:00	2024-11-08T01:00:00	7	Dirección del viento	1.61
87103	7	Sololá	717	San Juan la Laguna	12	San Juan la Laguna	11	Noviembre	2023-04-11T00:00:00	2024-11-08T01:00:00	1	Precipitación	0
87104	7	Sololá	717	San Juan la Laguna	12	San Juan la Laguna	11	Noviembre	2023-04-11T00:00:00	2024-11-08T01:00:00	8	Radiación solar	0
87105	7	Sololá	717	San Juan la Laguna	12	San Juan la Laguna	11	Noviembre	2023-04-11T00:00:00	2024-11-08T02:00:00	2	Temperatura media	19.1
87106	7	Sololá	717	San Juan la Laguna	12	San Juan la Laguna	11	Noviembre	2023-04-11T00:00:00	2024-11-08T02:00:00	4	Temperatura máxima	21.1
87107	7	Sololá	717	San Juan la Laguna	12	San Juan la Laguna	11	Noviembre	2023-04-11T00:00:00	2024-11-08T02:00:00	3	Temperatura mínima	19.1
87108	7	Sololá	717	San Juan la Laguna	12	San Juan la Laguna	11	Noviembre	2023-04-11T00:00:00	2024-11-08T02:00:00	5	Humedad	71
87109	7	Sololá	717	San Juan la Laguna	12	San Juan la Laguna	11	Noviembre	2023-04-11T00:00:00	2024-11-08T02:00:00	6	Velocidad del viento	0
87110	7	Sololá	717	San Juan la Laguna	12	San Juan la Laguna	11	Noviembre	2023-04-11T00:00:00	2024-11-08T02:00:00	7	Dirección del viento	0
87111	7	Sololá	717	San Juan la Laguna	12	San Juan la Laguna	11	Noviembre	2023-04-11T00:00:00	2024-11-08T02:00:00	1	Precipitación	0
87112	7	Sololá	717	San Juan la Laguna	12	San Juan la Laguna	11	Noviembre	2023-04-11T00:00:00	2024-11-08T02:00:00	8	Radiación solar	0
87113	7	Sololá	717	San Juan la Laguna	12	San Juan la Laguna	11	Noviembre	2023-04-11T00:00:00	2024-11-08T03:00:00	2	Temperatura media	19.1
87114	7	Sololá	717	San Juan la Laguna	12	San Juan la Laguna	11	Noviembre	2023-04-11T00:00:00	2024-11-08T03:00:00	4	Temperatura máxima	19.6
87115	7	Sololá	717	San Juan la Laguna	12	San Juan la Laguna	11	Noviembre	2023-04-11T00:00:00	2024-11-08T03:00:00	3	Temperatura mínima	18.4
87116	7	Sololá	717	San Juan la Laguna	12	San Juan la Laguna	11	Noviembre	2023-04-11T00:00:00	2024-11-08T03:00:00	5	Humedad	70
87117	7	Sololá	717	San Juan la Laguna	12	San Juan la Laguna	11	Noviembre	2023-04-11T00:00:00	2024-11-08T03:00:00	6	Velocidad del viento	0
87118	7	Sololá	717	San Juan la Laguna	12	San Juan la Laguna	11	Noviembre	2023-04-11T00:00:00	2024-11-08T03:00:00	7	Dirección del viento	0
87119	7	Sololá	717	San Juan la Laguna	12	San Juan la Laguna	11	Noviembre	2023-04-11T00:00:00	2024-11-08T03:00:00	1	Precipitación	0
87120	7	Sololá	717	San Juan la Laguna	12	San Juan la Laguna	11	Noviembre	2023-04-11T00:00:00	2024-11-08T03:00:00	8	Radiación solar	0
87121	7	Sololá	717	San Juan la Laguna	12	San Juan la Laguna	11	Noviembre	2023-04-11T00:00:00	2024-11-08T04:00:00	2	Temperatura media	19.6
87122	7	Sololá	717	San Juan la Laguna	12	San Juan la Laguna	11	Noviembre	2023-04-11T00:00:00	2024-11-08T04:00:00	4	Temperatura máxima	20.2
87123	7	Sololá	717	San Juan la Laguna	12	San Juan la Laguna	11	Noviembre	2023-04-11T00:00:00	2024-11-08T04:00:00	3	Temperatura mínima	19.1
87124	7	Sololá	717	San Juan la Laguna	12	San Juan la Laguna	11	Noviembre	2023-04-11T00:00:00	2024-11-08T04:00:00	5	Humedad	69
87125	7	Sololá	717	San Juan la Laguna	12	San Juan la Laguna	11	Noviembre	2023-04-11T00:00:00	2024-11-08T04:00:00	6	Velocidad del viento	0
87126	7	Sololá	717	San Juan la Laguna	12	San Juan la Laguna	11	Noviembre	2023-04-11T00:00:00	2024-11-08T04:00:00	7	Dirección del viento	0
87127	7	Sololá	717	San Juan la Laguna	12	San Juan la Laguna	11	Noviembre	2023-04-11T00:00:00	2024-11-08T04:00:00	1	Precipitación	0
87128	7	Sololá	717	San Juan la Laguna	12	San Juan la Laguna	11	Noviembre	2023-04-11T00:00:00	2024-11-08T04:00:00	8	Radiación solar	0
87129	7	Sololá	717	San Juan la Laguna	12	San Juan la Laguna	11	Noviembre	2023-04-11T00:00:00	2024-11-08T05:00:00	2	Temperatura media	19.5
87130	7	Sololá	717	San Juan la Laguna	12	San Juan la Laguna	11	Noviembre	2023-04-11T00:00:00	2024-11-08T05:00:00	4	Temperatura máxima	20.3
87131	7	Sololá	717	San Juan la Laguna	12	San Juan la Laguna	11	Noviembre	2023-04-11T00:00:00	2024-11-08T05:00:00	3	Temperatura mínima	19.5
87132	7	Sololá	717	San Juan la Laguna	12	San Juan la Laguna	11	Noviembre	2023-04-11T00:00:00	2024-11-08T05:00:00	5	Humedad	70
87133	7	Sololá	717	San Juan la Laguna	12	San Juan la Laguna	11	Noviembre	2023-04-11T00:00:00	2024-11-08T05:00:00	6	Velocidad del viento	0
87134	7	Sololá	717	San Juan la Laguna	12	San Juan la Laguna	11	Noviembre	2023-04-11T00:00:00	2024-11-08T05:00:00	7	Dirección del viento	0
87135	7	Sololá	717	San Juan la Laguna	12	San Juan la Laguna	11	Noviembre	2023-04-11T00:00:00	2024-11-08T05:00:00	1	Precipitación	0
87136	7	Sololá	717	San Juan la Laguna	12	San Juan la Laguna	11	Noviembre	2023-04-11T00:00:00	2024-11-08T05:00:00	8	Radiación solar	0
87137	7	Sololá	717	San Juan la Laguna	12	San Juan la Laguna	11	Noviembre	2023-04-11T00:00:00	2024-11-08T06:00:00	2	Temperatura media	20.2
87138	7	Sololá	717	San Juan la Laguna	12	San Juan la Laguna	11	Noviembre	2023-04-11T00:00:00	2024-11-08T06:00:00	4	Temperatura máxima	20.2
87139	7	Sololá	717	San Juan la Laguna	12	San Juan la Laguna	11	Noviembre	2023-04-11T00:00:00	2024-11-08T06:00:00	3	Temperatura mínima	19.1
87140	7	Sololá	717	San Juan la Laguna	12	San Juan la Laguna	11	Noviembre	2023-04-11T00:00:00	2024-11-08T06:00:00	5	Humedad	69
87141	7	Sololá	717	San Juan la Laguna	12	San Juan la Laguna	11	Noviembre	2023-04-11T00:00:00	2024-11-08T06:00:00	6	Velocidad del viento	0
87142	7	Sololá	717	San Juan la Laguna	12	San Juan la Laguna	11	Noviembre	2023-04-11T00:00:00	2024-11-08T06:00:00	7	Dirección del viento	0
87143	7	Sololá	717	San Juan la Laguna	12	San Juan la Laguna	11	Noviembre	2023-04-11T00:00:00	2024-11-08T06:00:00	1	Precipitación	0
87144	7	Sololá	717	San Juan la Laguna	12	San Juan la Laguna	11	Noviembre	2023-04-11T00:00:00	2024-11-08T06:00:00	8	Radiación solar	0
87145	7	Sololá	717	San Juan la Laguna	12	San Juan la Laguna	11	Noviembre	2023-04-11T00:00:00	2024-11-08T07:00:00	2	Temperatura media	19.6
87146	7	Sololá	717	San Juan la Laguna	12	San Juan la Laguna	11	Noviembre	2023-04-11T00:00:00	2024-11-08T07:00:00	4	Temperatura máxima	20.4
87147	7	Sololá	717	San Juan la Laguna	12	San Juan la Laguna	11	Noviembre	2023-04-11T00:00:00	2024-11-08T07:00:00	3	Temperatura mínima	19.3
87148	7	Sololá	717	San Juan la Laguna	12	San Juan la Laguna	11	Noviembre	2023-04-11T00:00:00	2024-11-08T07:00:00	5	Humedad	74
87149	7	Sololá	717	San Juan la Laguna	12	San Juan la Laguna	11	Noviembre	2023-04-11T00:00:00	2024-11-08T07:00:00	6	Velocidad del viento	0
87150	7	Sololá	717	San Juan la Laguna	12	San Juan la Laguna	11	Noviembre	2023-04-11T00:00:00	2024-11-08T07:00:00	7	Dirección del viento	0
87151	7	Sololá	717	San Juan la Laguna	12	San Juan la Laguna	11	Noviembre	2023-04-11T00:00:00	2024-11-08T07:00:00	1	Precipitación	0
87152	7	Sololá	717	San Juan la Laguna	12	San Juan la Laguna	11	Noviembre	2023-04-11T00:00:00	2024-11-08T07:00:00	8	Radiación solar	31
87153	7	Sololá	717	San Juan la Laguna	12	San Juan la Laguna	11	Noviembre	2023-04-11T00:00:00	2024-11-08T08:00:00	2	Temperatura media	21
87154	7	Sololá	717	San Juan la Laguna	12	San Juan la Laguna	11	Noviembre	2023-04-11T00:00:00	2024-11-08T08:00:00	4	Temperatura máxima	21
87155	7	Sololá	717	San Juan la Laguna	12	San Juan la Laguna	11	Noviembre	2023-04-11T00:00:00	2024-11-08T08:00:00	3	Temperatura mínima	19.6
87156	7	Sololá	717	San Juan la Laguna	12	San Juan la Laguna	11	Noviembre	2023-04-11T00:00:00	2024-11-08T08:00:00	5	Humedad	69
87157	7	Sololá	717	San Juan la Laguna	12	San Juan la Laguna	11	Noviembre	2023-04-11T00:00:00	2024-11-08T08:00:00	6	Velocidad del viento	0
87158	7	Sololá	717	San Juan la Laguna	12	San Juan la Laguna	11	Noviembre	2023-04-11T00:00:00	2024-11-08T08:00:00	7	Dirección del viento	0
87159	7	Sololá	717	San Juan la Laguna	12	San Juan la Laguna	11	Noviembre	2023-04-11T00:00:00	2024-11-08T08:00:00	1	Precipitación	0
87160	7	Sololá	717	San Juan la Laguna	12	San Juan la Laguna	11	Noviembre	2023-04-11T00:00:00	2024-11-08T08:00:00	8	Radiación solar	88
87161	7	Sololá	717	San Juan la Laguna	12	San Juan la Laguna	11	Noviembre	2023-04-11T00:00:00	2024-11-08T09:00:00	2	Temperatura media	21.9
87162	7	Sololá	717	San Juan la Laguna	12	San Juan la Laguna	11	Noviembre	2023-04-11T00:00:00	2024-11-08T09:00:00	4	Temperatura máxima	22.9
87163	7	Sololá	717	San Juan la Laguna	12	San Juan la Laguna	11	Noviembre	2023-04-11T00:00:00	2024-11-08T09:00:00	3	Temperatura mínima	21.1
87164	7	Sololá	717	San Juan la Laguna	12	San Juan la Laguna	11	Noviembre	2023-04-11T00:00:00	2024-11-08T09:00:00	5	Humedad	67
87165	7	Sololá	717	San Juan la Laguna	12	San Juan la Laguna	11	Noviembre	2023-04-11T00:00:00	2024-11-08T09:00:00	6	Velocidad del viento	3.2
87166	7	Sololá	717	San Juan la Laguna	12	San Juan la Laguna	11	Noviembre	2023-04-11T00:00:00	2024-11-08T09:00:00	7	Dirección del viento	3.22
87167	7	Sololá	717	San Juan la Laguna	12	San Juan la Laguna	11	Noviembre	2023-04-11T00:00:00	2024-11-08T09:00:00	1	Precipitación	0
87168	7	Sololá	717	San Juan la Laguna	12	San Juan la Laguna	11	Noviembre	2023-04-11T00:00:00	2024-11-08T09:00:00	8	Radiación solar	201
87169	7	Sololá	717	San Juan la Laguna	12	San Juan la Laguna	11	Noviembre	2023-04-11T00:00:00	2024-11-08T10:00:00	2	Temperatura media	21.8
87170	7	Sololá	717	San Juan la Laguna	12	San Juan la Laguna	11	Noviembre	2023-04-11T00:00:00	2024-11-08T10:00:00	4	Temperatura máxima	21.9
87171	7	Sololá	717	San Juan la Laguna	12	San Juan la Laguna	11	Noviembre	2023-04-11T00:00:00	2024-11-08T10:00:00	3	Temperatura mínima	21.5
87172	7	Sololá	717	San Juan la Laguna	12	San Juan la Laguna	11	Noviembre	2023-04-11T00:00:00	2024-11-08T10:00:00	5	Humedad	70
87173	7	Sololá	717	San Juan la Laguna	12	San Juan la Laguna	11	Noviembre	2023-04-11T00:00:00	2024-11-08T10:00:00	6	Velocidad del viento	1.6
87174	7	Sololá	717	San Juan la Laguna	12	San Juan la Laguna	11	Noviembre	2023-04-11T00:00:00	2024-11-08T10:00:00	7	Dirección del viento	1.61
87175	7	Sololá	717	San Juan la Laguna	12	San Juan la Laguna	11	Noviembre	2023-04-11T00:00:00	2024-11-08T10:00:00	1	Precipitación	0
87176	7	Sololá	717	San Juan la Laguna	12	San Juan la Laguna	11	Noviembre	2023-04-11T00:00:00	2024-11-08T10:00:00	8	Radiación solar	132
87177	7	Sololá	717	San Juan la Laguna	12	San Juan la Laguna	11	Noviembre	2023-04-11T00:00:00	2024-11-08T11:00:00	2	Temperatura media	22.7
87178	7	Sololá	717	San Juan la Laguna	12	San Juan la Laguna	11	Noviembre	2023-04-11T00:00:00	2024-11-08T11:00:00	4	Temperatura máxima	22.8
87179	7	Sololá	717	San Juan la Laguna	12	San Juan la Laguna	11	Noviembre	2023-04-11T00:00:00	2024-11-08T11:00:00	3	Temperatura mínima	21.8
87180	7	Sololá	717	San Juan la Laguna	12	San Juan la Laguna	11	Noviembre	2023-04-11T00:00:00	2024-11-08T11:00:00	5	Humedad	66
87181	7	Sololá	717	San Juan la Laguna	12	San Juan la Laguna	11	Noviembre	2023-04-11T00:00:00	2024-11-08T11:00:00	6	Velocidad del viento	0
87182	7	Sololá	717	San Juan la Laguna	12	San Juan la Laguna	11	Noviembre	2023-04-11T00:00:00	2024-11-08T11:00:00	7	Dirección del viento	0
87183	7	Sololá	717	San Juan la Laguna	12	San Juan la Laguna	11	Noviembre	2023-04-11T00:00:00	2024-11-08T11:00:00	1	Precipitación	0
87184	7	Sololá	717	San Juan la Laguna	12	San Juan la Laguna	11	Noviembre	2023-04-11T00:00:00	2024-11-08T11:00:00	8	Radiación solar	303
87185	7	Sololá	717	San Juan la Laguna	12	San Juan la Laguna	11	Noviembre	2023-04-11T00:00:00	2024-11-08T12:00:00	2	Temperatura media	23.2
87186	7	Sololá	717	San Juan la Laguna	12	San Juan la Laguna	11	Noviembre	2023-04-11T00:00:00	2024-11-08T12:00:00	4	Temperatura máxima	24.1
87187	7	Sololá	717	San Juan la Laguna	12	San Juan la Laguna	11	Noviembre	2023-04-11T00:00:00	2024-11-08T12:00:00	3	Temperatura mínima	22.7
87188	7	Sololá	717	San Juan la Laguna	12	San Juan la Laguna	11	Noviembre	2023-04-11T00:00:00	2024-11-08T12:00:00	5	Humedad	66
87189	7	Sololá	717	San Juan la Laguna	12	San Juan la Laguna	11	Noviembre	2023-04-11T00:00:00	2024-11-08T12:00:00	6	Velocidad del viento	0
87190	7	Sololá	717	San Juan la Laguna	12	San Juan la Laguna	11	Noviembre	2023-04-11T00:00:00	2024-11-08T12:00:00	7	Dirección del viento	0
87191	7	Sololá	717	San Juan la Laguna	12	San Juan la Laguna	11	Noviembre	2023-04-11T00:00:00	2024-11-08T12:00:00	1	Precipitación	0
87192	7	Sololá	717	San Juan la Laguna	12	San Juan la Laguna	11	Noviembre	2023-04-11T00:00:00	2024-11-08T12:00:00	8	Radiación solar	396
87193	7	Sololá	717	San Juan la Laguna	12	San Juan la Laguna	11	Noviembre	2023-04-11T00:00:00	2024-11-08T13:00:00	2	Temperatura media	22.8
87194	7	Sololá	717	San Juan la Laguna	12	San Juan la Laguna	11	Noviembre	2023-04-11T00:00:00	2024-11-08T13:00:00	4	Temperatura máxima	23.4
87195	7	Sololá	717	San Juan la Laguna	12	San Juan la Laguna	11	Noviembre	2023-04-11T00:00:00	2024-11-08T13:00:00	3	Temperatura mínima	22.8
87196	7	Sololá	717	San Juan la Laguna	12	San Juan la Laguna	11	Noviembre	2023-04-11T00:00:00	2024-11-08T13:00:00	5	Humedad	67
87197	7	Sololá	717	San Juan la Laguna	12	San Juan la Laguna	11	Noviembre	2023-04-11T00:00:00	2024-11-08T13:00:00	6	Velocidad del viento	0
87198	7	Sololá	717	San Juan la Laguna	12	San Juan la Laguna	11	Noviembre	2023-04-11T00:00:00	2024-11-08T13:00:00	7	Dirección del viento	0
87199	7	Sololá	717	San Juan la Laguna	12	San Juan la Laguna	11	Noviembre	2023-04-11T00:00:00	2024-11-08T13:00:00	1	Precipitación	0
87200	7	Sololá	717	San Juan la Laguna	12	San Juan la Laguna	11	Noviembre	2023-04-11T00:00:00	2024-11-08T13:00:00	8	Radiación solar	211
87201	7	Sololá	717	San Juan la Laguna	12	San Juan la Laguna	11	Noviembre	2023-04-11T00:00:00	2024-11-08T14:00:00	2	Temperatura media	19.9
87202	7	Sololá	717	San Juan la Laguna	12	San Juan la Laguna	11	Noviembre	2023-04-11T00:00:00	2024-11-08T14:00:00	4	Temperatura máxima	22.8
87203	7	Sololá	717	San Juan la Laguna	12	San Juan la Laguna	11	Noviembre	2023-04-11T00:00:00	2024-11-08T14:00:00	3	Temperatura mínima	19.7
87204	7	Sololá	717	San Juan la Laguna	12	San Juan la Laguna	11	Noviembre	2023-04-11T00:00:00	2024-11-08T14:00:00	5	Humedad	82
87205	7	Sololá	717	San Juan la Laguna	12	San Juan la Laguna	11	Noviembre	2023-04-11T00:00:00	2024-11-08T14:00:00	6	Velocidad del viento	1.6
87206	7	Sololá	717	San Juan la Laguna	12	San Juan la Laguna	11	Noviembre	2023-04-11T00:00:00	2024-11-08T14:00:00	7	Dirección del viento	1.61
87207	7	Sololá	717	San Juan la Laguna	12	San Juan la Laguna	11	Noviembre	2023-04-11T00:00:00	2024-11-08T14:00:00	1	Precipitación	0.2
87208	7	Sololá	717	San Juan la Laguna	12	San Juan la Laguna	11	Noviembre	2023-04-11T00:00:00	2024-11-08T14:00:00	8	Radiación solar	132
87209	7	Sololá	717	San Juan la Laguna	12	San Juan la Laguna	11	Noviembre	2023-04-11T00:00:00	2024-11-08T15:00:00	2	Temperatura media	21.4
87210	7	Sololá	717	San Juan la Laguna	12	San Juan la Laguna	11	Noviembre	2023-04-11T00:00:00	2024-11-08T15:00:00	4	Temperatura máxima	21.4
87211	7	Sololá	717	San Juan la Laguna	12	San Juan la Laguna	11	Noviembre	2023-04-11T00:00:00	2024-11-08T15:00:00	3	Temperatura mínima	19.9
87212	7	Sololá	717	San Juan la Laguna	12	San Juan la Laguna	11	Noviembre	2023-04-11T00:00:00	2024-11-08T15:00:00	5	Humedad	72
87213	7	Sololá	717	San Juan la Laguna	12	San Juan la Laguna	11	Noviembre	2023-04-11T00:00:00	2024-11-08T15:00:00	6	Velocidad del viento	0
87214	7	Sololá	717	San Juan la Laguna	12	San Juan la Laguna	11	Noviembre	2023-04-11T00:00:00	2024-11-08T15:00:00	7	Dirección del viento	0
87215	7	Sololá	717	San Juan la Laguna	12	San Juan la Laguna	11	Noviembre	2023-04-11T00:00:00	2024-11-08T15:00:00	1	Precipitación	0
87216	7	Sololá	717	San Juan la Laguna	12	San Juan la Laguna	11	Noviembre	2023-04-11T00:00:00	2024-11-08T15:00:00	8	Radiación solar	84
87217	7	Sololá	717	San Juan la Laguna	12	San Juan la Laguna	11	Noviembre	2023-04-11T00:00:00	2024-11-08T16:00:00	2	Temperatura media	22.2
87218	7	Sololá	717	San Juan la Laguna	12	San Juan la Laguna	11	Noviembre	2023-04-11T00:00:00	2024-11-08T16:00:00	4	Temperatura máxima	22.3
87219	7	Sololá	717	San Juan la Laguna	12	San Juan la Laguna	11	Noviembre	2023-04-11T00:00:00	2024-11-08T16:00:00	3	Temperatura mínima	21.4
87220	7	Sololá	717	San Juan la Laguna	12	San Juan la Laguna	11	Noviembre	2023-04-11T00:00:00	2024-11-08T16:00:00	5	Humedad	67
87221	7	Sololá	717	San Juan la Laguna	12	San Juan la Laguna	11	Noviembre	2023-04-11T00:00:00	2024-11-08T16:00:00	6	Velocidad del viento	0
87222	7	Sololá	717	San Juan la Laguna	12	San Juan la Laguna	11	Noviembre	2023-04-11T00:00:00	2024-11-08T16:00:00	7	Dirección del viento	0
87223	7	Sololá	717	San Juan la Laguna	12	San Juan la Laguna	11	Noviembre	2023-04-11T00:00:00	2024-11-08T16:00:00	1	Precipitación	0
87224	7	Sololá	717	San Juan la Laguna	12	San Juan la Laguna	11	Noviembre	2023-04-11T00:00:00	2024-11-08T16:00:00	8	Radiación solar	177
87225	7	Sololá	717	San Juan la Laguna	12	San Juan la Laguna	11	Noviembre	2023-04-11T00:00:00	2024-11-08T17:00:00	2	Temperatura media	21.7
87226	7	Sololá	717	San Juan la Laguna	12	San Juan la Laguna	11	Noviembre	2023-04-11T00:00:00	2024-11-08T17:00:00	4	Temperatura máxima	22.2
87227	7	Sololá	717	San Juan la Laguna	12	San Juan la Laguna	11	Noviembre	2023-04-11T00:00:00	2024-11-08T17:00:00	3	Temperatura mínima	21.7
87228	7	Sololá	717	San Juan la Laguna	12	San Juan la Laguna	11	Noviembre	2023-04-11T00:00:00	2024-11-08T17:00:00	5	Humedad	70
87229	7	Sololá	717	San Juan la Laguna	12	San Juan la Laguna	11	Noviembre	2023-04-11T00:00:00	2024-11-08T17:00:00	6	Velocidad del viento	1.6
87230	7	Sololá	717	San Juan la Laguna	12	San Juan la Laguna	11	Noviembre	2023-04-11T00:00:00	2024-11-08T17:00:00	7	Dirección del viento	1.61
87231	7	Sololá	717	San Juan la Laguna	12	San Juan la Laguna	11	Noviembre	2023-04-11T00:00:00	2024-11-08T17:00:00	1	Precipitación	0
87232	7	Sololá	717	San Juan la Laguna	12	San Juan la Laguna	11	Noviembre	2023-04-11T00:00:00	2024-11-08T17:00:00	8	Radiación solar	114
87233	7	Sololá	717	San Juan la Laguna	12	San Juan la Laguna	11	Noviembre	2023-04-11T00:00:00	2024-11-08T18:00:00	2	Temperatura media	21.4
87234	7	Sololá	717	San Juan la Laguna	12	San Juan la Laguna	11	Noviembre	2023-04-11T00:00:00	2024-11-08T18:00:00	4	Temperatura máxima	21.7
87235	7	Sololá	717	San Juan la Laguna	12	San Juan la Laguna	11	Noviembre	2023-04-11T00:00:00	2024-11-08T18:00:00	3	Temperatura mínima	21.4
87236	7	Sololá	717	San Juan la Laguna	12	San Juan la Laguna	11	Noviembre	2023-04-11T00:00:00	2024-11-08T18:00:00	5	Humedad	69
87237	7	Sololá	717	San Juan la Laguna	12	San Juan la Laguna	11	Noviembre	2023-04-11T00:00:00	2024-11-08T18:00:00	6	Velocidad del viento	1.6
87238	7	Sololá	717	San Juan la Laguna	12	San Juan la Laguna	11	Noviembre	2023-04-11T00:00:00	2024-11-08T18:00:00	7	Dirección del viento	1.61
87239	7	Sololá	717	San Juan la Laguna	12	San Juan la Laguna	11	Noviembre	2023-04-11T00:00:00	2024-11-08T18:00:00	1	Precipitación	0
87240	7	Sololá	717	San Juan la Laguna	12	San Juan la Laguna	11	Noviembre	2023-04-11T00:00:00	2024-11-08T18:00:00	8	Radiación solar	14
87241	7	Sololá	717	San Juan la Laguna	12	San Juan la Laguna	11	Noviembre	2023-04-11T00:00:00	2024-11-08T19:00:00	2	Temperatura media	21.2
87242	7	Sololá	717	San Juan la Laguna	12	San Juan la Laguna	11	Noviembre	2023-04-11T00:00:00	2024-11-08T19:00:00	4	Temperatura máxima	21.4
87243	7	Sololá	717	San Juan la Laguna	12	San Juan la Laguna	11	Noviembre	2023-04-11T00:00:00	2024-11-08T19:00:00	3	Temperatura mínima	21.1
87244	7	Sololá	717	San Juan la Laguna	12	San Juan la Laguna	11	Noviembre	2023-04-11T00:00:00	2024-11-08T19:00:00	5	Humedad	70
87245	7	Sololá	717	San Juan la Laguna	12	San Juan la Laguna	11	Noviembre	2023-04-11T00:00:00	2024-11-08T19:00:00	6	Velocidad del viento	3.2
87246	7	Sololá	717	San Juan la Laguna	12	San Juan la Laguna	11	Noviembre	2023-04-11T00:00:00	2024-11-08T19:00:00	7	Dirección del viento	3.22
87247	7	Sololá	717	San Juan la Laguna	12	San Juan la Laguna	11	Noviembre	2023-04-11T00:00:00	2024-11-08T19:00:00	1	Precipitación	0
87248	7	Sololá	717	San Juan la Laguna	12	San Juan la Laguna	11	Noviembre	2023-04-11T00:00:00	2024-11-08T19:00:00	8	Radiación solar	0
87249	7	Sololá	717	San Juan la Laguna	12	San Juan la Laguna	11	Noviembre	2023-04-11T00:00:00	2024-11-08T20:00:00	2	Temperatura media	21.1
87250	7	Sololá	717	San Juan la Laguna	12	San Juan la Laguna	11	Noviembre	2023-04-11T00:00:00	2024-11-08T20:00:00	4	Temperatura máxima	21.3
87251	7	Sololá	717	San Juan la Laguna	12	San Juan la Laguna	11	Noviembre	2023-04-11T00:00:00	2024-11-08T20:00:00	3	Temperatura mínima	21.1
87252	7	Sololá	717	San Juan la Laguna	12	San Juan la Laguna	11	Noviembre	2023-04-11T00:00:00	2024-11-08T20:00:00	5	Humedad	71
87253	7	Sololá	717	San Juan la Laguna	12	San Juan la Laguna	11	Noviembre	2023-04-11T00:00:00	2024-11-08T20:00:00	6	Velocidad del viento	3.2
87254	7	Sololá	717	San Juan la Laguna	12	San Juan la Laguna	11	Noviembre	2023-04-11T00:00:00	2024-11-08T20:00:00	7	Dirección del viento	3.22
87255	7	Sololá	717	San Juan la Laguna	12	San Juan la Laguna	11	Noviembre	2023-04-11T00:00:00	2024-11-08T20:00:00	1	Precipitación	0
87256	7	Sololá	717	San Juan la Laguna	12	San Juan la Laguna	11	Noviembre	2023-04-11T00:00:00	2024-11-08T20:00:00	8	Radiación solar	0
87257	7	Sololá	717	San Juan la Laguna	12	San Juan la Laguna	11	Noviembre	2023-04-11T00:00:00	2024-11-08T21:00:00	2	Temperatura media	21.1
87258	7	Sololá	717	San Juan la Laguna	12	San Juan la Laguna	11	Noviembre	2023-04-11T00:00:00	2024-11-08T21:00:00	4	Temperatura máxima	21.2
87259	7	Sololá	717	San Juan la Laguna	12	San Juan la Laguna	11	Noviembre	2023-04-11T00:00:00	2024-11-08T21:00:00	3	Temperatura mínima	20.9
87260	7	Sololá	717	San Juan la Laguna	12	San Juan la Laguna	11	Noviembre	2023-04-11T00:00:00	2024-11-08T21:00:00	5	Humedad	70
87261	7	Sololá	717	San Juan la Laguna	12	San Juan la Laguna	11	Noviembre	2023-04-11T00:00:00	2024-11-08T21:00:00	6	Velocidad del viento	3.2
87262	7	Sololá	717	San Juan la Laguna	12	San Juan la Laguna	11	Noviembre	2023-04-11T00:00:00	2024-11-08T21:00:00	7	Dirección del viento	3.22
87263	7	Sololá	717	San Juan la Laguna	12	San Juan la Laguna	11	Noviembre	2023-04-11T00:00:00	2024-11-08T21:00:00	1	Precipitación	0
87264	7	Sololá	717	San Juan la Laguna	12	San Juan la Laguna	11	Noviembre	2023-04-11T00:00:00	2024-11-08T21:00:00	8	Radiación solar	0
87265	7	Sololá	717	San Juan la Laguna	12	San Juan la Laguna	11	Noviembre	2023-04-11T00:00:00	2024-11-08T22:00:00	2	Temperatura media	20.9
87266	7	Sololá	717	San Juan la Laguna	12	San Juan la Laguna	11	Noviembre	2023-04-11T00:00:00	2024-11-08T22:00:00	4	Temperatura máxima	21.3
87267	7	Sololá	717	San Juan la Laguna	12	San Juan la Laguna	11	Noviembre	2023-04-11T00:00:00	2024-11-08T22:00:00	3	Temperatura mínima	20.8
87268	7	Sololá	717	San Juan la Laguna	12	San Juan la Laguna	11	Noviembre	2023-04-11T00:00:00	2024-11-08T22:00:00	5	Humedad	70
87269	7	Sololá	717	San Juan la Laguna	12	San Juan la Laguna	11	Noviembre	2023-04-11T00:00:00	2024-11-08T22:00:00	6	Velocidad del viento	1.6
87270	7	Sololá	717	San Juan la Laguna	12	San Juan la Laguna	11	Noviembre	2023-04-11T00:00:00	2024-11-08T22:00:00	7	Dirección del viento	1.61
87271	7	Sololá	717	San Juan la Laguna	12	San Juan la Laguna	11	Noviembre	2023-04-11T00:00:00	2024-11-08T22:00:00	1	Precipitación	0
87272	7	Sololá	717	San Juan la Laguna	12	San Juan la Laguna	11	Noviembre	2023-04-11T00:00:00	2024-11-08T22:00:00	8	Radiación solar	0
87273	7	Sololá	717	San Juan la Laguna	12	San Juan la Laguna	11	Noviembre	2023-04-11T00:00:00	2024-11-08T23:00:00	2	Temperatura media	20.8
87274	7	Sololá	717	San Juan la Laguna	12	San Juan la Laguna	11	Noviembre	2023-04-11T00:00:00	2024-11-08T23:00:00	4	Temperatura máxima	21
87275	7	Sololá	717	San Juan la Laguna	12	San Juan la Laguna	11	Noviembre	2023-04-11T00:00:00	2024-11-08T23:00:00	3	Temperatura mínima	20.8
87276	7	Sololá	717	San Juan la Laguna	12	San Juan la Laguna	11	Noviembre	2023-04-11T00:00:00	2024-11-08T23:00:00	5	Humedad	70
87277	7	Sololá	717	San Juan la Laguna	12	San Juan la Laguna	11	Noviembre	2023-04-11T00:00:00	2024-11-08T23:00:00	6	Velocidad del viento	1.6
87278	7	Sololá	717	San Juan la Laguna	12	San Juan la Laguna	11	Noviembre	2023-04-11T00:00:00	2024-11-08T23:00:00	7	Dirección del viento	1.61
87279	7	Sololá	717	San Juan la Laguna	12	San Juan la Laguna	11	Noviembre	2023-04-11T00:00:00	2024-11-08T23:00:00	1	Precipitación	0
87280	7	Sololá	717	San Juan la Laguna	12	San Juan la Laguna	11	Noviembre	2023-04-11T00:00:00	2024-11-08T23:00:00	8	Radiación solar	0
87281	7	Sololá	717	San Juan la Laguna	12	San Juan la Laguna	11	Noviembre	2023-05-11T00:00:00	2024-11-08T00:00:00	2	Temperatura media	20.7
87282	7	Sololá	717	San Juan la Laguna	12	San Juan la Laguna	11	Noviembre	2023-05-11T00:00:00	2024-11-08T00:00:00	4	Temperatura máxima	21.1
87283	7	Sololá	717	San Juan la Laguna	12	San Juan la Laguna	11	Noviembre	2023-05-11T00:00:00	2024-11-08T00:00:00	3	Temperatura mínima	20.7
87284	7	Sololá	717	San Juan la Laguna	12	San Juan la Laguna	11	Noviembre	2023-05-11T00:00:00	2024-11-08T00:00:00	5	Humedad	69
87285	7	Sololá	717	San Juan la Laguna	12	San Juan la Laguna	11	Noviembre	2023-05-11T00:00:00	2024-11-08T00:00:00	6	Velocidad del viento	3.2
87286	7	Sololá	717	San Juan la Laguna	12	San Juan la Laguna	11	Noviembre	2023-05-11T00:00:00	2024-11-08T00:00:00	7	Dirección del viento	3.22
87287	7	Sololá	717	San Juan la Laguna	12	San Juan la Laguna	11	Noviembre	2023-05-11T00:00:00	2024-11-08T00:00:00	1	Precipitación	0
87288	7	Sololá	717	San Juan la Laguna	12	San Juan la Laguna	11	Noviembre	2023-05-11T00:00:00	2024-11-08T00:00:00	8	Radiación solar	0
87289	7	Sololá	717	San Juan la Laguna	12	San Juan la Laguna	11	Noviembre	2023-05-11T00:00:00	2024-11-08T01:00:00	2	Temperatura media	20.4
87290	7	Sololá	717	San Juan la Laguna	12	San Juan la Laguna	11	Noviembre	2023-05-11T00:00:00	2024-11-08T01:00:00	4	Temperatura máxima	20.7
87291	7	Sololá	717	San Juan la Laguna	12	San Juan la Laguna	11	Noviembre	2023-05-11T00:00:00	2024-11-08T01:00:00	3	Temperatura mínima	20.3
87292	7	Sololá	717	San Juan la Laguna	12	San Juan la Laguna	11	Noviembre	2023-05-11T00:00:00	2024-11-08T01:00:00	5	Humedad	72
87293	7	Sololá	717	San Juan la Laguna	12	San Juan la Laguna	11	Noviembre	2023-05-11T00:00:00	2024-11-08T01:00:00	6	Velocidad del viento	3.2
87294	7	Sololá	717	San Juan la Laguna	12	San Juan la Laguna	11	Noviembre	2023-05-11T00:00:00	2024-11-08T01:00:00	7	Dirección del viento	3.22
87295	7	Sololá	717	San Juan la Laguna	12	San Juan la Laguna	11	Noviembre	2023-05-11T00:00:00	2024-11-08T01:00:00	1	Precipitación	0
87296	7	Sololá	717	San Juan la Laguna	12	San Juan la Laguna	11	Noviembre	2023-05-11T00:00:00	2024-11-08T01:00:00	8	Radiación solar	0
87297	7	Sololá	717	San Juan la Laguna	12	San Juan la Laguna	11	Noviembre	2023-05-11T00:00:00	2024-11-08T02:00:00	2	Temperatura media	20.4
87298	7	Sololá	717	San Juan la Laguna	12	San Juan la Laguna	11	Noviembre	2023-05-11T00:00:00	2024-11-08T02:00:00	4	Temperatura máxima	20.8
87299	7	Sololá	717	San Juan la Laguna	12	San Juan la Laguna	11	Noviembre	2023-05-11T00:00:00	2024-11-08T02:00:00	3	Temperatura mínima	20.4
87300	7	Sololá	717	San Juan la Laguna	12	San Juan la Laguna	11	Noviembre	2023-05-11T00:00:00	2024-11-08T02:00:00	5	Humedad	70
87301	7	Sololá	717	San Juan la Laguna	12	San Juan la Laguna	11	Noviembre	2023-05-11T00:00:00	2024-11-08T02:00:00	6	Velocidad del viento	3.2
87302	7	Sololá	717	San Juan la Laguna	12	San Juan la Laguna	11	Noviembre	2023-05-11T00:00:00	2024-11-08T02:00:00	7	Dirección del viento	3.22
87303	7	Sololá	717	San Juan la Laguna	12	San Juan la Laguna	11	Noviembre	2023-05-11T00:00:00	2024-11-08T02:00:00	1	Precipitación	0
87304	7	Sololá	717	San Juan la Laguna	12	San Juan la Laguna	11	Noviembre	2023-05-11T00:00:00	2024-11-08T02:00:00	8	Radiación solar	0
87305	7	Sololá	717	San Juan la Laguna	12	San Juan la Laguna	11	Noviembre	2023-05-11T00:00:00	2024-11-08T03:00:00	2	Temperatura media	21
87306	7	Sololá	717	San Juan la Laguna	12	San Juan la Laguna	11	Noviembre	2023-05-11T00:00:00	2024-11-08T03:00:00	4	Temperatura máxima	21
87307	7	Sololá	717	San Juan la Laguna	12	San Juan la Laguna	11	Noviembre	2023-05-11T00:00:00	2024-11-08T03:00:00	3	Temperatura mínima	20.4
87308	7	Sololá	717	San Juan la Laguna	12	San Juan la Laguna	11	Noviembre	2023-05-11T00:00:00	2024-11-08T03:00:00	5	Humedad	67
87309	7	Sololá	717	San Juan la Laguna	12	San Juan la Laguna	11	Noviembre	2023-05-11T00:00:00	2024-11-08T03:00:00	6	Velocidad del viento	1.6
87310	7	Sololá	717	San Juan la Laguna	12	San Juan la Laguna	11	Noviembre	2023-05-11T00:00:00	2024-11-08T03:00:00	7	Dirección del viento	1.61
87311	7	Sololá	717	San Juan la Laguna	12	San Juan la Laguna	11	Noviembre	2023-05-11T00:00:00	2024-11-08T03:00:00	1	Precipitación	0
87312	7	Sololá	717	San Juan la Laguna	12	San Juan la Laguna	11	Noviembre	2023-05-11T00:00:00	2024-11-08T03:00:00	8	Radiación solar	0
87313	7	Sololá	717	San Juan la Laguna	12	San Juan la Laguna	11	Noviembre	2023-05-11T00:00:00	2024-11-08T04:00:00	2	Temperatura media	20.7
87314	7	Sololá	717	San Juan la Laguna	12	San Juan la Laguna	11	Noviembre	2023-05-11T00:00:00	2024-11-08T04:00:00	4	Temperatura máxima	21.1
87315	7	Sololá	717	San Juan la Laguna	12	San Juan la Laguna	11	Noviembre	2023-05-11T00:00:00	2024-11-08T04:00:00	3	Temperatura mínima	20.7
87316	7	Sololá	717	San Juan la Laguna	12	San Juan la Laguna	11	Noviembre	2023-05-11T00:00:00	2024-11-08T04:00:00	5	Humedad	70
87317	7	Sololá	717	San Juan la Laguna	12	San Juan la Laguna	11	Noviembre	2023-05-11T00:00:00	2024-11-08T04:00:00	6	Velocidad del viento	0
87318	7	Sololá	717	San Juan la Laguna	12	San Juan la Laguna	11	Noviembre	2023-05-11T00:00:00	2024-11-08T04:00:00	7	Dirección del viento	0
87319	7	Sololá	717	San Juan la Laguna	12	San Juan la Laguna	11	Noviembre	2023-05-11T00:00:00	2024-11-08T04:00:00	1	Precipitación	0
87320	7	Sololá	717	San Juan la Laguna	12	San Juan la Laguna	11	Noviembre	2023-05-11T00:00:00	2024-11-08T04:00:00	8	Radiación solar	0
87321	7	Sololá	717	San Juan la Laguna	12	San Juan la Laguna	11	Noviembre	2023-05-11T00:00:00	2024-11-08T05:00:00	2	Temperatura media	19.2
87322	7	Sololá	717	San Juan la Laguna	12	San Juan la Laguna	11	Noviembre	2023-05-11T00:00:00	2024-11-08T05:00:00	4	Temperatura máxima	20.7
87323	7	Sololá	717	San Juan la Laguna	12	San Juan la Laguna	11	Noviembre	2023-05-11T00:00:00	2024-11-08T05:00:00	3	Temperatura mínima	19.2
87324	7	Sololá	717	San Juan la Laguna	12	San Juan la Laguna	11	Noviembre	2023-05-11T00:00:00	2024-11-08T05:00:00	5	Humedad	80
87325	7	Sololá	717	San Juan la Laguna	12	San Juan la Laguna	11	Noviembre	2023-05-11T00:00:00	2024-11-08T05:00:00	6	Velocidad del viento	0
87326	7	Sololá	717	San Juan la Laguna	12	San Juan la Laguna	11	Noviembre	2023-05-11T00:00:00	2024-11-08T05:00:00	7	Dirección del viento	0
87327	7	Sololá	717	San Juan la Laguna	12	San Juan la Laguna	11	Noviembre	2023-05-11T00:00:00	2024-11-08T05:00:00	1	Precipitación	0
87328	7	Sololá	717	San Juan la Laguna	12	San Juan la Laguna	11	Noviembre	2023-05-11T00:00:00	2024-11-08T05:00:00	8	Radiación solar	0
87329	7	Sololá	717	San Juan la Laguna	12	San Juan la Laguna	11	Noviembre	2023-05-11T00:00:00	2024-11-08T06:00:00	2	Temperatura media	17.9
87330	7	Sololá	717	San Juan la Laguna	12	San Juan la Laguna	11	Noviembre	2023-05-11T00:00:00	2024-11-08T06:00:00	4	Temperatura máxima	19.2
87331	7	Sololá	717	San Juan la Laguna	12	San Juan la Laguna	11	Noviembre	2023-05-11T00:00:00	2024-11-08T06:00:00	3	Temperatura mínima	17.8
87332	7	Sololá	717	San Juan la Laguna	12	San Juan la Laguna	11	Noviembre	2023-05-11T00:00:00	2024-11-08T06:00:00	5	Humedad	85
87333	7	Sololá	717	San Juan la Laguna	12	San Juan la Laguna	11	Noviembre	2023-05-11T00:00:00	2024-11-08T06:00:00	6	Velocidad del viento	0
87334	7	Sololá	717	San Juan la Laguna	12	San Juan la Laguna	11	Noviembre	2023-05-11T00:00:00	2024-11-08T06:00:00	7	Dirección del viento	0
87335	7	Sololá	717	San Juan la Laguna	12	San Juan la Laguna	11	Noviembre	2023-05-11T00:00:00	2024-11-08T06:00:00	1	Precipitación	0
87336	7	Sololá	717	San Juan la Laguna	12	San Juan la Laguna	11	Noviembre	2023-05-11T00:00:00	2024-11-08T06:00:00	8	Radiación solar	0
87337	7	Sololá	717	San Juan la Laguna	12	San Juan la Laguna	11	Noviembre	2023-05-11T00:00:00	2024-11-08T07:00:00	2	Temperatura media	18.5
87338	7	Sololá	717	San Juan la Laguna	12	San Juan la Laguna	11	Noviembre	2023-05-11T00:00:00	2024-11-08T07:00:00	4	Temperatura máxima	18.6
87339	7	Sololá	717	San Juan la Laguna	12	San Juan la Laguna	11	Noviembre	2023-05-11T00:00:00	2024-11-08T07:00:00	3	Temperatura mínima	17.9
87340	7	Sololá	717	San Juan la Laguna	12	San Juan la Laguna	11	Noviembre	2023-05-11T00:00:00	2024-11-08T07:00:00	5	Humedad	84
87341	7	Sololá	717	San Juan la Laguna	12	San Juan la Laguna	11	Noviembre	2023-05-11T00:00:00	2024-11-08T07:00:00	6	Velocidad del viento	0
87342	7	Sololá	717	San Juan la Laguna	12	San Juan la Laguna	11	Noviembre	2023-05-11T00:00:00	2024-11-08T07:00:00	7	Dirección del viento	0
87343	7	Sololá	717	San Juan la Laguna	12	San Juan la Laguna	11	Noviembre	2023-05-11T00:00:00	2024-11-08T07:00:00	1	Precipitación	0
87344	7	Sololá	717	San Juan la Laguna	12	San Juan la Laguna	11	Noviembre	2023-05-11T00:00:00	2024-11-08T07:00:00	8	Radiación solar	13
87345	7	Sololá	717	San Juan la Laguna	12	San Juan la Laguna	11	Noviembre	2023-05-11T00:00:00	2024-11-08T08:00:00	2	Temperatura media	20.5
87346	7	Sololá	717	San Juan la Laguna	12	San Juan la Laguna	11	Noviembre	2023-05-11T00:00:00	2024-11-08T08:00:00	4	Temperatura máxima	20.5
87347	7	Sololá	717	San Juan la Laguna	12	San Juan la Laguna	11	Noviembre	2023-05-11T00:00:00	2024-11-08T08:00:00	3	Temperatura mínima	18.5
87348	7	Sololá	717	San Juan la Laguna	12	San Juan la Laguna	11	Noviembre	2023-05-11T00:00:00	2024-11-08T08:00:00	5	Humedad	75
87349	7	Sololá	717	San Juan la Laguna	12	San Juan la Laguna	11	Noviembre	2023-05-11T00:00:00	2024-11-08T08:00:00	6	Velocidad del viento	0
87350	7	Sololá	717	San Juan la Laguna	12	San Juan la Laguna	11	Noviembre	2023-05-11T00:00:00	2024-11-08T08:00:00	7	Dirección del viento	0
87351	7	Sololá	717	San Juan la Laguna	12	San Juan la Laguna	11	Noviembre	2023-05-11T00:00:00	2024-11-08T08:00:00	1	Precipitación	0
87352	7	Sololá	717	San Juan la Laguna	12	San Juan la Laguna	11	Noviembre	2023-05-11T00:00:00	2024-11-08T08:00:00	8	Radiación solar	66
87353	7	Sololá	717	San Juan la Laguna	12	San Juan la Laguna	11	Noviembre	2023-05-11T00:00:00	2024-11-08T09:00:00	2	Temperatura media	21.3
87354	7	Sololá	717	San Juan la Laguna	12	San Juan la Laguna	11	Noviembre	2023-05-11T00:00:00	2024-11-08T09:00:00	4	Temperatura máxima	21.4
87355	7	Sololá	717	San Juan la Laguna	12	San Juan la Laguna	11	Noviembre	2023-05-11T00:00:00	2024-11-08T09:00:00	3	Temperatura mínima	20.5
87356	7	Sololá	717	San Juan la Laguna	12	San Juan la Laguna	11	Noviembre	2023-05-11T00:00:00	2024-11-08T09:00:00	5	Humedad	71
87357	7	Sololá	717	San Juan la Laguna	12	San Juan la Laguna	11	Noviembre	2023-05-11T00:00:00	2024-11-08T09:00:00	6	Velocidad del viento	1.6
87358	7	Sololá	717	San Juan la Laguna	12	San Juan la Laguna	11	Noviembre	2023-05-11T00:00:00	2024-11-08T09:00:00	7	Dirección del viento	1.61
87359	7	Sololá	717	San Juan la Laguna	12	San Juan la Laguna	11	Noviembre	2023-05-11T00:00:00	2024-11-08T09:00:00	1	Precipitación	0
87360	7	Sololá	717	San Juan la Laguna	12	San Juan la Laguna	11	Noviembre	2023-05-11T00:00:00	2024-11-08T09:00:00	8	Radiación solar	127
87361	7	Sololá	717	San Juan la Laguna	12	San Juan la Laguna	11	Noviembre	2023-05-11T00:00:00	2024-11-08T10:00:00	2	Temperatura media	22.1
87362	7	Sololá	717	San Juan la Laguna	12	San Juan la Laguna	11	Noviembre	2023-05-11T00:00:00	2024-11-08T10:00:00	4	Temperatura máxima	22.1
87363	7	Sololá	717	San Juan la Laguna	12	San Juan la Laguna	11	Noviembre	2023-05-11T00:00:00	2024-11-08T10:00:00	3	Temperatura mínima	21.3
87364	7	Sololá	717	San Juan la Laguna	12	San Juan la Laguna	11	Noviembre	2023-05-11T00:00:00	2024-11-08T10:00:00	5	Humedad	68
87365	7	Sololá	717	San Juan la Laguna	12	San Juan la Laguna	11	Noviembre	2023-05-11T00:00:00	2024-11-08T10:00:00	6	Velocidad del viento	1.6
87366	7	Sololá	717	San Juan la Laguna	12	San Juan la Laguna	11	Noviembre	2023-05-11T00:00:00	2024-11-08T10:00:00	7	Dirección del viento	1.61
87367	7	Sololá	717	San Juan la Laguna	12	San Juan la Laguna	11	Noviembre	2023-05-11T00:00:00	2024-11-08T10:00:00	1	Precipitación	0
87368	7	Sololá	717	San Juan la Laguna	12	San Juan la Laguna	11	Noviembre	2023-05-11T00:00:00	2024-11-08T10:00:00	8	Radiación solar	163
87369	7	Sololá	717	San Juan la Laguna	12	San Juan la Laguna	11	Noviembre	2023-05-11T00:00:00	2024-11-08T11:00:00	2	Temperatura media	22.7
87370	7	Sololá	717	San Juan la Laguna	12	San Juan la Laguna	11	Noviembre	2023-05-11T00:00:00	2024-11-08T11:00:00	4	Temperatura máxima	22.8
87371	7	Sololá	717	San Juan la Laguna	12	San Juan la Laguna	11	Noviembre	2023-05-11T00:00:00	2024-11-08T11:00:00	3	Temperatura mínima	22.1
87372	7	Sololá	717	San Juan la Laguna	12	San Juan la Laguna	11	Noviembre	2023-05-11T00:00:00	2024-11-08T11:00:00	5	Humedad	68
87373	7	Sololá	717	San Juan la Laguna	12	San Juan la Laguna	11	Noviembre	2023-05-11T00:00:00	2024-11-08T11:00:00	6	Velocidad del viento	1.6
87374	7	Sololá	717	San Juan la Laguna	12	San Juan la Laguna	11	Noviembre	2023-05-11T00:00:00	2024-11-08T11:00:00	7	Dirección del viento	1.61
87375	7	Sololá	717	San Juan la Laguna	12	San Juan la Laguna	11	Noviembre	2023-05-11T00:00:00	2024-11-08T11:00:00	1	Precipitación	0
87376	7	Sololá	717	San Juan la Laguna	12	San Juan la Laguna	11	Noviembre	2023-05-11T00:00:00	2024-11-08T11:00:00	8	Radiación solar	298
87377	7	Sololá	717	San Juan la Laguna	12	San Juan la Laguna	11	Noviembre	2023-05-11T00:00:00	2024-11-08T12:00:00	2	Temperatura media	22.3
87378	7	Sololá	717	San Juan la Laguna	12	San Juan la Laguna	11	Noviembre	2023-05-11T00:00:00	2024-11-08T12:00:00	4	Temperatura máxima	22.8
87379	7	Sololá	717	San Juan la Laguna	12	San Juan la Laguna	11	Noviembre	2023-05-11T00:00:00	2024-11-08T12:00:00	3	Temperatura mínima	22.2
87380	7	Sololá	717	San Juan la Laguna	12	San Juan la Laguna	11	Noviembre	2023-05-11T00:00:00	2024-11-08T12:00:00	5	Humedad	70
87381	7	Sololá	717	San Juan la Laguna	12	San Juan la Laguna	11	Noviembre	2023-05-11T00:00:00	2024-11-08T12:00:00	6	Velocidad del viento	3.2
87382	7	Sololá	717	San Juan la Laguna	12	San Juan la Laguna	11	Noviembre	2023-05-11T00:00:00	2024-11-08T12:00:00	7	Dirección del viento	3.22
87383	7	Sololá	717	San Juan la Laguna	12	San Juan la Laguna	11	Noviembre	2023-05-11T00:00:00	2024-11-08T12:00:00	1	Precipitación	0
87384	7	Sololá	717	San Juan la Laguna	12	San Juan la Laguna	11	Noviembre	2023-05-11T00:00:00	2024-11-08T12:00:00	8	Radiación solar	173
87385	7	Sololá	717	San Juan la Laguna	12	San Juan la Laguna	11	Noviembre	2023-05-11T00:00:00	2024-11-08T13:00:00	2	Temperatura media	22.9
87386	7	Sololá	717	San Juan la Laguna	12	San Juan la Laguna	11	Noviembre	2023-05-11T00:00:00	2024-11-08T13:00:00	4	Temperatura máxima	23.1
87387	7	Sololá	717	San Juan la Laguna	12	San Juan la Laguna	11	Noviembre	2023-05-11T00:00:00	2024-11-08T13:00:00	3	Temperatura mínima	22.2
87388	7	Sololá	717	San Juan la Laguna	12	San Juan la Laguna	11	Noviembre	2023-05-11T00:00:00	2024-11-08T13:00:00	5	Humedad	67
87389	7	Sololá	717	San Juan la Laguna	12	San Juan la Laguna	11	Noviembre	2023-05-11T00:00:00	2024-11-08T13:00:00	6	Velocidad del viento	3.2
87390	7	Sololá	717	San Juan la Laguna	12	San Juan la Laguna	11	Noviembre	2023-05-11T00:00:00	2024-11-08T13:00:00	7	Dirección del viento	3.22
87391	7	Sololá	717	San Juan la Laguna	12	San Juan la Laguna	11	Noviembre	2023-05-11T00:00:00	2024-11-08T13:00:00	1	Precipitación	0
87392	7	Sololá	717	San Juan la Laguna	12	San Juan la Laguna	11	Noviembre	2023-05-11T00:00:00	2024-11-08T13:00:00	8	Radiación solar	232
87393	7	Sololá	717	San Juan la Laguna	12	San Juan la Laguna	11	Noviembre	2023-05-11T00:00:00	2024-11-08T14:00:00	2	Temperatura media	23.7
87394	7	Sololá	717	San Juan la Laguna	12	San Juan la Laguna	11	Noviembre	2023-05-11T00:00:00	2024-11-08T14:00:00	4	Temperatura máxima	23.8
87395	7	Sololá	717	San Juan la Laguna	12	San Juan la Laguna	11	Noviembre	2023-05-11T00:00:00	2024-11-08T14:00:00	3	Temperatura mínima	22.8
87396	7	Sololá	717	San Juan la Laguna	12	San Juan la Laguna	11	Noviembre	2023-05-11T00:00:00	2024-11-08T14:00:00	5	Humedad	64
87397	7	Sololá	717	San Juan la Laguna	12	San Juan la Laguna	11	Noviembre	2023-05-11T00:00:00	2024-11-08T14:00:00	6	Velocidad del viento	1.6
87398	7	Sololá	717	San Juan la Laguna	12	San Juan la Laguna	11	Noviembre	2023-05-11T00:00:00	2024-11-08T14:00:00	7	Dirección del viento	1.61
87399	7	Sololá	717	San Juan la Laguna	12	San Juan la Laguna	11	Noviembre	2023-05-11T00:00:00	2024-11-08T14:00:00	1	Precipitación	0
87400	7	Sololá	717	San Juan la Laguna	12	San Juan la Laguna	11	Noviembre	2023-05-11T00:00:00	2024-11-08T14:00:00	8	Radiación solar	304
87401	7	Sololá	717	San Juan la Laguna	12	San Juan la Laguna	11	Noviembre	2023-05-11T00:00:00	2024-11-08T15:00:00	2	Temperatura media	23.8
87402	7	Sololá	717	San Juan la Laguna	12	San Juan la Laguna	11	Noviembre	2023-05-11T00:00:00	2024-11-08T15:00:00	4	Temperatura máxima	23.8
87403	7	Sololá	717	San Juan la Laguna	12	San Juan la Laguna	11	Noviembre	2023-05-11T00:00:00	2024-11-08T15:00:00	3	Temperatura mínima	23.4
87404	7	Sololá	717	San Juan la Laguna	12	San Juan la Laguna	11	Noviembre	2023-05-11T00:00:00	2024-11-08T15:00:00	5	Humedad	64
87405	7	Sololá	717	San Juan la Laguna	12	San Juan la Laguna	11	Noviembre	2023-05-11T00:00:00	2024-11-08T15:00:00	6	Velocidad del viento	1.6
87406	7	Sololá	717	San Juan la Laguna	12	San Juan la Laguna	11	Noviembre	2023-05-11T00:00:00	2024-11-08T15:00:00	7	Dirección del viento	1.61
87407	7	Sololá	717	San Juan la Laguna	12	San Juan la Laguna	11	Noviembre	2023-05-11T00:00:00	2024-11-08T15:00:00	1	Precipitación	0
87408	7	Sololá	717	San Juan la Laguna	12	San Juan la Laguna	11	Noviembre	2023-05-11T00:00:00	2024-11-08T15:00:00	8	Radiación solar	235
87409	7	Sololá	717	San Juan la Laguna	12	San Juan la Laguna	11	Noviembre	2023-05-11T00:00:00	2024-11-08T16:00:00	2	Temperatura media	23.4
87410	7	Sololá	717	San Juan la Laguna	12	San Juan la Laguna	11	Noviembre	2023-05-11T00:00:00	2024-11-08T16:00:00	4	Temperatura máxima	24
87411	7	Sololá	717	San Juan la Laguna	12	San Juan la Laguna	11	Noviembre	2023-05-11T00:00:00	2024-11-08T16:00:00	3	Temperatura mínima	23.4
87412	7	Sololá	717	San Juan la Laguna	12	San Juan la Laguna	11	Noviembre	2023-05-11T00:00:00	2024-11-08T16:00:00	5	Humedad	69
87413	7	Sololá	717	San Juan la Laguna	12	San Juan la Laguna	11	Noviembre	2023-05-11T00:00:00	2024-11-08T16:00:00	6	Velocidad del viento	0
87414	7	Sololá	717	San Juan la Laguna	12	San Juan la Laguna	11	Noviembre	2023-05-11T00:00:00	2024-11-08T16:00:00	7	Dirección del viento	0
87415	7	Sololá	717	San Juan la Laguna	12	San Juan la Laguna	11	Noviembre	2023-05-11T00:00:00	2024-11-08T16:00:00	1	Precipitación	0
87416	7	Sololá	717	San Juan la Laguna	12	San Juan la Laguna	11	Noviembre	2023-05-11T00:00:00	2024-11-08T16:00:00	8	Radiación solar	155
87417	7	Sololá	717	San Juan la Laguna	12	San Juan la Laguna	11	Noviembre	2023-05-11T00:00:00	2024-11-08T17:00:00	2	Temperatura media	22.1
87418	7	Sololá	717	San Juan la Laguna	12	San Juan la Laguna	11	Noviembre	2023-05-11T00:00:00	2024-11-08T17:00:00	4	Temperatura máxima	23.3
87419	7	Sololá	717	San Juan la Laguna	12	San Juan la Laguna	11	Noviembre	2023-05-11T00:00:00	2024-11-08T17:00:00	3	Temperatura mínima	22.1
87420	7	Sololá	717	San Juan la Laguna	12	San Juan la Laguna	11	Noviembre	2023-05-11T00:00:00	2024-11-08T17:00:00	5	Humedad	72
87421	7	Sololá	717	San Juan la Laguna	12	San Juan la Laguna	11	Noviembre	2023-05-11T00:00:00	2024-11-08T17:00:00	6	Velocidad del viento	0
87422	7	Sololá	717	San Juan la Laguna	12	San Juan la Laguna	11	Noviembre	2023-05-11T00:00:00	2024-11-08T17:00:00	7	Dirección del viento	0
87423	7	Sololá	717	San Juan la Laguna	12	San Juan la Laguna	11	Noviembre	2023-05-11T00:00:00	2024-11-08T17:00:00	1	Precipitación	0
87424	7	Sololá	717	San Juan la Laguna	12	San Juan la Laguna	11	Noviembre	2023-05-11T00:00:00	2024-11-08T17:00:00	8	Radiación solar	77
87425	7	Sololá	717	San Juan la Laguna	12	San Juan la Laguna	11	Noviembre	2023-05-11T00:00:00	2024-11-08T18:00:00	2	Temperatura media	21.7
87426	7	Sololá	717	San Juan la Laguna	12	San Juan la Laguna	11	Noviembre	2023-05-11T00:00:00	2024-11-08T18:00:00	4	Temperatura máxima	22
87427	7	Sololá	717	San Juan la Laguna	12	San Juan la Laguna	11	Noviembre	2023-05-11T00:00:00	2024-11-08T18:00:00	3	Temperatura mínima	21.6
87428	7	Sololá	717	San Juan la Laguna	12	San Juan la Laguna	11	Noviembre	2023-05-11T00:00:00	2024-11-08T18:00:00	5	Humedad	71
87429	7	Sololá	717	San Juan la Laguna	12	San Juan la Laguna	11	Noviembre	2023-05-11T00:00:00	2024-11-08T18:00:00	6	Velocidad del viento	1.6
87430	7	Sololá	717	San Juan la Laguna	12	San Juan la Laguna	11	Noviembre	2023-05-11T00:00:00	2024-11-08T18:00:00	7	Dirección del viento	1.61
87431	7	Sololá	717	San Juan la Laguna	12	San Juan la Laguna	11	Noviembre	2023-05-11T00:00:00	2024-11-08T18:00:00	1	Precipitación	0
87432	7	Sololá	717	San Juan la Laguna	12	San Juan la Laguna	11	Noviembre	2023-05-11T00:00:00	2024-11-08T18:00:00	8	Radiación solar	10
87433	7	Sololá	717	San Juan la Laguna	12	San Juan la Laguna	11	Noviembre	2023-05-11T00:00:00	2024-11-08T19:00:00	2	Temperatura media	21.1
87434	7	Sololá	717	San Juan la Laguna	12	San Juan la Laguna	11	Noviembre	2023-05-11T00:00:00	2024-11-08T19:00:00	4	Temperatura máxima	21.7
87435	7	Sololá	717	San Juan la Laguna	12	San Juan la Laguna	11	Noviembre	2023-05-11T00:00:00	2024-11-08T19:00:00	3	Temperatura mínima	21.1
87436	7	Sololá	717	San Juan la Laguna	12	San Juan la Laguna	11	Noviembre	2023-05-11T00:00:00	2024-11-08T19:00:00	5	Humedad	72
87437	7	Sololá	717	San Juan la Laguna	12	San Juan la Laguna	11	Noviembre	2023-05-11T00:00:00	2024-11-08T19:00:00	6	Velocidad del viento	1.6
87438	7	Sololá	717	San Juan la Laguna	12	San Juan la Laguna	11	Noviembre	2023-05-11T00:00:00	2024-11-08T19:00:00	7	Dirección del viento	1.61
87439	7	Sololá	717	San Juan la Laguna	12	San Juan la Laguna	11	Noviembre	2023-05-11T00:00:00	2024-11-08T19:00:00	1	Precipitación	0
87440	7	Sololá	717	San Juan la Laguna	12	San Juan la Laguna	11	Noviembre	2023-05-11T00:00:00	2024-11-08T19:00:00	8	Radiación solar	0
87441	7	Sololá	717	San Juan la Laguna	12	San Juan la Laguna	11	Noviembre	2023-05-11T00:00:00	2024-11-08T20:00:00	2	Temperatura media	21
87442	7	Sololá	717	San Juan la Laguna	12	San Juan la Laguna	11	Noviembre	2023-05-11T00:00:00	2024-11-08T20:00:00	4	Temperatura máxima	21.1
87443	7	Sololá	717	San Juan la Laguna	12	San Juan la Laguna	11	Noviembre	2023-05-11T00:00:00	2024-11-08T20:00:00	3	Temperatura mínima	20.9
87444	7	Sololá	717	San Juan la Laguna	12	San Juan la Laguna	11	Noviembre	2023-05-11T00:00:00	2024-11-08T20:00:00	5	Humedad	73
87445	7	Sololá	717	San Juan la Laguna	12	San Juan la Laguna	11	Noviembre	2023-05-11T00:00:00	2024-11-08T20:00:00	6	Velocidad del viento	0
87446	7	Sololá	717	San Juan la Laguna	12	San Juan la Laguna	11	Noviembre	2023-05-11T00:00:00	2024-11-08T20:00:00	7	Dirección del viento	0
87447	7	Sololá	717	San Juan la Laguna	12	San Juan la Laguna	11	Noviembre	2023-05-11T00:00:00	2024-11-08T20:00:00	1	Precipitación	0
87448	7	Sololá	717	San Juan la Laguna	12	San Juan la Laguna	11	Noviembre	2023-05-11T00:00:00	2024-11-08T20:00:00	8	Radiación solar	0
87449	7	Sololá	717	San Juan la Laguna	12	San Juan la Laguna	11	Noviembre	2023-05-11T00:00:00	2024-11-08T21:00:00	2	Temperatura media	21.1
87450	7	Sololá	717	San Juan la Laguna	12	San Juan la Laguna	11	Noviembre	2023-05-11T00:00:00	2024-11-08T21:00:00	4	Temperatura máxima	21.1
87451	7	Sololá	717	San Juan la Laguna	12	San Juan la Laguna	11	Noviembre	2023-05-11T00:00:00	2024-11-08T21:00:00	3	Temperatura mínima	20.7
87452	7	Sololá	717	San Juan la Laguna	12	San Juan la Laguna	11	Noviembre	2023-05-11T00:00:00	2024-11-08T21:00:00	5	Humedad	71
87453	7	Sololá	717	San Juan la Laguna	12	San Juan la Laguna	11	Noviembre	2023-05-11T00:00:00	2024-11-08T21:00:00	6	Velocidad del viento	1.6
87454	7	Sololá	717	San Juan la Laguna	12	San Juan la Laguna	11	Noviembre	2023-05-11T00:00:00	2024-11-08T21:00:00	7	Dirección del viento	1.61
87455	7	Sololá	717	San Juan la Laguna	12	San Juan la Laguna	11	Noviembre	2023-05-11T00:00:00	2024-11-08T21:00:00	1	Precipitación	0
87456	7	Sololá	717	San Juan la Laguna	12	San Juan la Laguna	11	Noviembre	2023-05-11T00:00:00	2024-11-08T21:00:00	8	Radiación solar	0
87457	7	Sololá	717	San Juan la Laguna	12	San Juan la Laguna	11	Noviembre	2023-05-11T00:00:00	2024-11-08T22:00:00	2	Temperatura media	20.9
87458	7	Sololá	717	San Juan la Laguna	12	San Juan la Laguna	11	Noviembre	2023-05-11T00:00:00	2024-11-08T22:00:00	4	Temperatura máxima	21.1
87459	7	Sololá	717	San Juan la Laguna	12	San Juan la Laguna	11	Noviembre	2023-05-11T00:00:00	2024-11-08T22:00:00	3	Temperatura mínima	20.8
87460	7	Sololá	717	San Juan la Laguna	12	San Juan la Laguna	11	Noviembre	2023-05-11T00:00:00	2024-11-08T22:00:00	5	Humedad	71
87461	7	Sololá	717	San Juan la Laguna	12	San Juan la Laguna	11	Noviembre	2023-05-11T00:00:00	2024-11-08T22:00:00	6	Velocidad del viento	3.2
87462	7	Sololá	717	San Juan la Laguna	12	San Juan la Laguna	11	Noviembre	2023-05-11T00:00:00	2024-11-08T22:00:00	7	Dirección del viento	3.22
87463	7	Sololá	717	San Juan la Laguna	12	San Juan la Laguna	11	Noviembre	2023-05-11T00:00:00	2024-11-08T22:00:00	1	Precipitación	0
87464	7	Sololá	717	San Juan la Laguna	12	San Juan la Laguna	11	Noviembre	2023-05-11T00:00:00	2024-11-08T22:00:00	8	Radiación solar	0
87465	7	Sololá	717	San Juan la Laguna	12	San Juan la Laguna	11	Noviembre	2023-05-11T00:00:00	2024-11-08T23:00:00	2	Temperatura media	20.4
87466	7	Sololá	717	San Juan la Laguna	12	San Juan la Laguna	11	Noviembre	2023-05-11T00:00:00	2024-11-08T23:00:00	4	Temperatura máxima	21
87467	7	Sololá	717	San Juan la Laguna	12	San Juan la Laguna	11	Noviembre	2023-05-11T00:00:00	2024-11-08T23:00:00	3	Temperatura mínima	20.3
87468	7	Sololá	717	San Juan la Laguna	12	San Juan la Laguna	11	Noviembre	2023-05-11T00:00:00	2024-11-08T23:00:00	5	Humedad	73
87469	7	Sololá	717	San Juan la Laguna	12	San Juan la Laguna	11	Noviembre	2023-05-11T00:00:00	2024-11-08T23:00:00	6	Velocidad del viento	4.8
87470	7	Sololá	717	San Juan la Laguna	12	San Juan la Laguna	11	Noviembre	2023-05-11T00:00:00	2024-11-08T23:00:00	7	Dirección del viento	4.83
87471	7	Sololá	717	San Juan la Laguna	12	San Juan la Laguna	11	Noviembre	2023-05-11T00:00:00	2024-11-08T23:00:00	1	Precipitación	0
87472	7	Sololá	717	San Juan la Laguna	12	San Juan la Laguna	11	Noviembre	2023-05-11T00:00:00	2024-11-08T23:00:00	8	Radiación solar	0
87473	7	Sololá	717	San Juan la Laguna	12	San Juan la Laguna	11	Noviembre	2023-06-11T00:00:00	2024-11-08T00:00:00	2	Temperatura media	20.7
87474	7	Sololá	717	San Juan la Laguna	12	San Juan la Laguna	11	Noviembre	2023-06-11T00:00:00	2024-11-08T00:00:00	4	Temperatura máxima	20.8
87475	7	Sololá	717	San Juan la Laguna	12	San Juan la Laguna	11	Noviembre	2023-06-11T00:00:00	2024-11-08T00:00:00	3	Temperatura mínima	20.3
87476	7	Sololá	717	San Juan la Laguna	12	San Juan la Laguna	11	Noviembre	2023-06-11T00:00:00	2024-11-08T00:00:00	5	Humedad	71
87477	7	Sololá	717	San Juan la Laguna	12	San Juan la Laguna	11	Noviembre	2023-06-11T00:00:00	2024-11-08T00:00:00	6	Velocidad del viento	1.6
87478	7	Sololá	717	San Juan la Laguna	12	San Juan la Laguna	11	Noviembre	2023-06-11T00:00:00	2024-11-08T00:00:00	7	Dirección del viento	1.61
87479	7	Sololá	717	San Juan la Laguna	12	San Juan la Laguna	11	Noviembre	2023-06-11T00:00:00	2024-11-08T00:00:00	1	Precipitación	0
87480	7	Sololá	717	San Juan la Laguna	12	San Juan la Laguna	11	Noviembre	2023-06-11T00:00:00	2024-11-08T00:00:00	8	Radiación solar	0
87481	7	Sololá	717	San Juan la Laguna	12	San Juan la Laguna	11	Noviembre	2023-06-11T00:00:00	2024-11-08T01:00:00	2	Temperatura media	20.7
87482	7	Sololá	717	San Juan la Laguna	12	San Juan la Laguna	11	Noviembre	2023-06-11T00:00:00	2024-11-08T01:00:00	4	Temperatura máxima	20.8
87483	7	Sololá	717	San Juan la Laguna	12	San Juan la Laguna	11	Noviembre	2023-06-11T00:00:00	2024-11-08T01:00:00	3	Temperatura mínima	20.7
87484	7	Sololá	717	San Juan la Laguna	12	San Juan la Laguna	11	Noviembre	2023-06-11T00:00:00	2024-11-08T01:00:00	5	Humedad	71
87485	7	Sololá	717	San Juan la Laguna	12	San Juan la Laguna	11	Noviembre	2023-06-11T00:00:00	2024-11-08T01:00:00	6	Velocidad del viento	1.6
87486	7	Sololá	717	San Juan la Laguna	12	San Juan la Laguna	11	Noviembre	2023-06-11T00:00:00	2024-11-08T01:00:00	7	Dirección del viento	1.61
87487	7	Sololá	717	San Juan la Laguna	12	San Juan la Laguna	11	Noviembre	2023-06-11T00:00:00	2024-11-08T01:00:00	1	Precipitación	0
87488	7	Sololá	717	San Juan la Laguna	12	San Juan la Laguna	11	Noviembre	2023-06-11T00:00:00	2024-11-08T01:00:00	8	Radiación solar	0
87489	7	Sololá	717	San Juan la Laguna	12	San Juan la Laguna	11	Noviembre	2023-06-11T00:00:00	2024-11-08T02:00:00	2	Temperatura media	20.3
87490	7	Sololá	717	San Juan la Laguna	12	San Juan la Laguna	11	Noviembre	2023-06-11T00:00:00	2024-11-08T02:00:00	4	Temperatura máxima	20.9
87491	7	Sololá	717	San Juan la Laguna	12	San Juan la Laguna	11	Noviembre	2023-06-11T00:00:00	2024-11-08T02:00:00	3	Temperatura mínima	20.3
87492	7	Sololá	717	San Juan la Laguna	12	San Juan la Laguna	11	Noviembre	2023-06-11T00:00:00	2024-11-08T02:00:00	5	Humedad	74
87493	7	Sololá	717	San Juan la Laguna	12	San Juan la Laguna	11	Noviembre	2023-06-11T00:00:00	2024-11-08T02:00:00	6	Velocidad del viento	1.6
87494	7	Sololá	717	San Juan la Laguna	12	San Juan la Laguna	11	Noviembre	2023-06-11T00:00:00	2024-11-08T02:00:00	7	Dirección del viento	1.61
87495	7	Sololá	717	San Juan la Laguna	12	San Juan la Laguna	11	Noviembre	2023-06-11T00:00:00	2024-11-08T02:00:00	1	Precipitación	0
87496	7	Sololá	717	San Juan la Laguna	12	San Juan la Laguna	11	Noviembre	2023-06-11T00:00:00	2024-11-08T02:00:00	8	Radiación solar	0
87497	7	Sololá	717	San Juan la Laguna	12	San Juan la Laguna	11	Noviembre	2023-06-11T00:00:00	2024-11-08T03:00:00	2	Temperatura media	20.2
87498	7	Sololá	717	San Juan la Laguna	12	San Juan la Laguna	11	Noviembre	2023-06-11T00:00:00	2024-11-08T03:00:00	4	Temperatura máxima	20.3
87499	7	Sololá	717	San Juan la Laguna	12	San Juan la Laguna	11	Noviembre	2023-06-11T00:00:00	2024-11-08T03:00:00	3	Temperatura mínima	20.2
87500	7	Sololá	717	San Juan la Laguna	12	San Juan la Laguna	11	Noviembre	2023-06-11T00:00:00	2024-11-08T03:00:00	5	Humedad	75
87501	7	Sololá	717	San Juan la Laguna	12	San Juan la Laguna	11	Noviembre	2023-06-11T00:00:00	2024-11-08T03:00:00	6	Velocidad del viento	0
87502	7	Sololá	717	San Juan la Laguna	12	San Juan la Laguna	11	Noviembre	2023-06-11T00:00:00	2024-11-08T03:00:00	7	Dirección del viento	0
87503	7	Sololá	717	San Juan la Laguna	12	San Juan la Laguna	11	Noviembre	2023-06-11T00:00:00	2024-11-08T03:00:00	1	Precipitación	0
87504	7	Sololá	717	San Juan la Laguna	12	San Juan la Laguna	11	Noviembre	2023-06-11T00:00:00	2024-11-08T03:00:00	8	Radiación solar	0
87505	7	Sololá	717	San Juan la Laguna	12	San Juan la Laguna	11	Noviembre	2023-06-11T00:00:00	2024-11-08T04:00:00	2	Temperatura media	20.9
87506	7	Sololá	717	San Juan la Laguna	12	San Juan la Laguna	11	Noviembre	2023-06-11T00:00:00	2024-11-08T04:00:00	4	Temperatura máxima	20.9
87507	7	Sololá	717	San Juan la Laguna	12	San Juan la Laguna	11	Noviembre	2023-06-11T00:00:00	2024-11-08T04:00:00	3	Temperatura mínima	19.3
87508	7	Sololá	717	San Juan la Laguna	12	San Juan la Laguna	11	Noviembre	2023-06-11T00:00:00	2024-11-08T04:00:00	5	Humedad	72
87509	7	Sololá	717	San Juan la Laguna	12	San Juan la Laguna	11	Noviembre	2023-06-11T00:00:00	2024-11-08T04:00:00	6	Velocidad del viento	0
87510	7	Sololá	717	San Juan la Laguna	12	San Juan la Laguna	11	Noviembre	2023-06-11T00:00:00	2024-11-08T04:00:00	7	Dirección del viento	0
87511	7	Sololá	717	San Juan la Laguna	12	San Juan la Laguna	11	Noviembre	2023-06-11T00:00:00	2024-11-08T04:00:00	1	Precipitación	0
87512	7	Sololá	717	San Juan la Laguna	12	San Juan la Laguna	11	Noviembre	2023-06-11T00:00:00	2024-11-08T04:00:00	8	Radiación solar	0
87513	7	Sololá	717	San Juan la Laguna	12	San Juan la Laguna	11	Noviembre	2023-06-11T00:00:00	2024-11-08T05:00:00	2	Temperatura media	20.4
87514	7	Sololá	717	San Juan la Laguna	12	San Juan la Laguna	11	Noviembre	2023-06-11T00:00:00	2024-11-08T05:00:00	4	Temperatura máxima	20.9
87515	7	Sololá	717	San Juan la Laguna	12	San Juan la Laguna	11	Noviembre	2023-06-11T00:00:00	2024-11-08T05:00:00	3	Temperatura mínima	20.3
87516	7	Sololá	717	San Juan la Laguna	12	San Juan la Laguna	11	Noviembre	2023-06-11T00:00:00	2024-11-08T05:00:00	5	Humedad	74
87517	7	Sololá	717	San Juan la Laguna	12	San Juan la Laguna	11	Noviembre	2023-06-11T00:00:00	2024-11-08T05:00:00	6	Velocidad del viento	0
87518	7	Sololá	717	San Juan la Laguna	12	San Juan la Laguna	11	Noviembre	2023-06-11T00:00:00	2024-11-08T05:00:00	7	Dirección del viento	0
87519	7	Sololá	717	San Juan la Laguna	12	San Juan la Laguna	11	Noviembre	2023-06-11T00:00:00	2024-11-08T05:00:00	1	Precipitación	0
87520	7	Sololá	717	San Juan la Laguna	12	San Juan la Laguna	11	Noviembre	2023-06-11T00:00:00	2024-11-08T05:00:00	8	Radiación solar	0
87521	7	Sololá	717	San Juan la Laguna	12	San Juan la Laguna	11	Noviembre	2023-06-11T00:00:00	2024-11-08T06:00:00	2	Temperatura media	20.3
87522	7	Sololá	717	San Juan la Laguna	12	San Juan la Laguna	11	Noviembre	2023-06-11T00:00:00	2024-11-08T06:00:00	4	Temperatura máxima	20.4
87523	7	Sololá	717	San Juan la Laguna	12	San Juan la Laguna	11	Noviembre	2023-06-11T00:00:00	2024-11-08T06:00:00	3	Temperatura mínima	20.2
87524	7	Sololá	717	San Juan la Laguna	12	San Juan la Laguna	11	Noviembre	2023-06-11T00:00:00	2024-11-08T06:00:00	5	Humedad	75
87525	7	Sololá	717	San Juan la Laguna	12	San Juan la Laguna	11	Noviembre	2023-06-11T00:00:00	2024-11-08T06:00:00	6	Velocidad del viento	0
87526	7	Sololá	717	San Juan la Laguna	12	San Juan la Laguna	11	Noviembre	2023-06-11T00:00:00	2024-11-08T06:00:00	7	Dirección del viento	0
87527	7	Sololá	717	San Juan la Laguna	12	San Juan la Laguna	11	Noviembre	2023-06-11T00:00:00	2024-11-08T06:00:00	1	Precipitación	0
87528	7	Sololá	717	San Juan la Laguna	12	San Juan la Laguna	11	Noviembre	2023-06-11T00:00:00	2024-11-08T06:00:00	8	Radiación solar	0
87529	7	Sololá	717	San Juan la Laguna	12	San Juan la Laguna	11	Noviembre	2023-06-11T00:00:00	2024-11-08T07:00:00	2	Temperatura media	20.6
87530	7	Sololá	717	San Juan la Laguna	12	San Juan la Laguna	11	Noviembre	2023-06-11T00:00:00	2024-11-08T07:00:00	4	Temperatura máxima	20.6
87531	7	Sololá	717	San Juan la Laguna	12	San Juan la Laguna	11	Noviembre	2023-06-11T00:00:00	2024-11-08T07:00:00	3	Temperatura mínima	20.2
87532	7	Sololá	717	San Juan la Laguna	12	San Juan la Laguna	11	Noviembre	2023-06-11T00:00:00	2024-11-08T07:00:00	5	Humedad	74
87533	7	Sololá	717	San Juan la Laguna	12	San Juan la Laguna	11	Noviembre	2023-06-11T00:00:00	2024-11-08T07:00:00	6	Velocidad del viento	0
87534	7	Sololá	717	San Juan la Laguna	12	San Juan la Laguna	11	Noviembre	2023-06-11T00:00:00	2024-11-08T07:00:00	7	Dirección del viento	0
87535	7	Sololá	717	San Juan la Laguna	12	San Juan la Laguna	11	Noviembre	2023-06-11T00:00:00	2024-11-08T07:00:00	1	Precipitación	0
87536	7	Sololá	717	San Juan la Laguna	12	San Juan la Laguna	11	Noviembre	2023-06-11T00:00:00	2024-11-08T07:00:00	8	Radiación solar	24
87537	7	Sololá	717	San Juan la Laguna	12	San Juan la Laguna	11	Noviembre	2023-06-11T00:00:00	2024-11-08T08:00:00	2	Temperatura media	21.7
87538	7	Sololá	717	San Juan la Laguna	12	San Juan la Laguna	11	Noviembre	2023-06-11T00:00:00	2024-11-08T08:00:00	4	Temperatura máxima	21.7
87539	7	Sololá	717	San Juan la Laguna	12	San Juan la Laguna	11	Noviembre	2023-06-11T00:00:00	2024-11-08T08:00:00	3	Temperatura mínima	20.6
87540	7	Sololá	717	San Juan la Laguna	12	San Juan la Laguna	11	Noviembre	2023-06-11T00:00:00	2024-11-08T08:00:00	5	Humedad	70
87541	7	Sololá	717	San Juan la Laguna	12	San Juan la Laguna	11	Noviembre	2023-06-11T00:00:00	2024-11-08T08:00:00	6	Velocidad del viento	0
87542	7	Sololá	717	San Juan la Laguna	12	San Juan la Laguna	11	Noviembre	2023-06-11T00:00:00	2024-11-08T08:00:00	7	Dirección del viento	0
87543	7	Sololá	717	San Juan la Laguna	12	San Juan la Laguna	11	Noviembre	2023-06-11T00:00:00	2024-11-08T08:00:00	1	Precipitación	0
87544	7	Sololá	717	San Juan la Laguna	12	San Juan la Laguna	11	Noviembre	2023-06-11T00:00:00	2024-11-08T08:00:00	8	Radiación solar	121
87545	7	Sololá	717	San Juan la Laguna	12	San Juan la Laguna	11	Noviembre	2023-06-11T00:00:00	2024-11-08T09:00:00	2	Temperatura media	22.6
87546	7	Sololá	717	San Juan la Laguna	12	San Juan la Laguna	11	Noviembre	2023-06-11T00:00:00	2024-11-08T09:00:00	4	Temperatura máxima	22.6
87547	7	Sololá	717	San Juan la Laguna	12	San Juan la Laguna	11	Noviembre	2023-06-11T00:00:00	2024-11-08T09:00:00	3	Temperatura mínima	21.7
87548	7	Sololá	717	San Juan la Laguna	12	San Juan la Laguna	11	Noviembre	2023-06-11T00:00:00	2024-11-08T09:00:00	5	Humedad	69
87549	7	Sololá	717	San Juan la Laguna	12	San Juan la Laguna	11	Noviembre	2023-06-11T00:00:00	2024-11-08T09:00:00	6	Velocidad del viento	0
87550	7	Sololá	717	San Juan la Laguna	12	San Juan la Laguna	11	Noviembre	2023-06-11T00:00:00	2024-11-08T09:00:00	7	Dirección del viento	0
87551	7	Sololá	717	San Juan la Laguna	12	San Juan la Laguna	11	Noviembre	2023-06-11T00:00:00	2024-11-08T09:00:00	1	Precipitación	0
87552	7	Sololá	717	San Juan la Laguna	12	San Juan la Laguna	11	Noviembre	2023-06-11T00:00:00	2024-11-08T09:00:00	8	Radiación solar	209
87553	7	Sololá	717	San Juan la Laguna	12	San Juan la Laguna	11	Noviembre	2023-06-11T00:00:00	2024-11-08T10:00:00	2	Temperatura media	23.3
87554	7	Sololá	717	San Juan la Laguna	12	San Juan la Laguna	11	Noviembre	2023-06-11T00:00:00	2024-11-08T10:00:00	4	Temperatura máxima	23.3
87555	7	Sololá	717	San Juan la Laguna	12	San Juan la Laguna	11	Noviembre	2023-06-11T00:00:00	2024-11-08T10:00:00	3	Temperatura mínima	22.5
87556	7	Sololá	717	San Juan la Laguna	12	San Juan la Laguna	11	Noviembre	2023-06-11T00:00:00	2024-11-08T10:00:00	5	Humedad	65
87557	7	Sololá	717	San Juan la Laguna	12	San Juan la Laguna	11	Noviembre	2023-06-11T00:00:00	2024-11-08T10:00:00	6	Velocidad del viento	1.6
87558	7	Sololá	717	San Juan la Laguna	12	San Juan la Laguna	11	Noviembre	2023-06-11T00:00:00	2024-11-08T10:00:00	7	Dirección del viento	1.61
87559	7	Sololá	717	San Juan la Laguna	12	San Juan la Laguna	11	Noviembre	2023-06-11T00:00:00	2024-11-08T10:00:00	1	Precipitación	0
87560	7	Sololá	717	San Juan la Laguna	12	San Juan la Laguna	11	Noviembre	2023-06-11T00:00:00	2024-11-08T10:00:00	8	Radiación solar	278
87561	7	Sololá	717	San Juan la Laguna	12	San Juan la Laguna	11	Noviembre	2023-06-11T00:00:00	2024-11-08T11:00:00	2	Temperatura media	23.3
87562	7	Sololá	717	San Juan la Laguna	12	San Juan la Laguna	11	Noviembre	2023-06-11T00:00:00	2024-11-08T11:00:00	4	Temperatura máxima	23.7
87563	7	Sololá	717	San Juan la Laguna	12	San Juan la Laguna	11	Noviembre	2023-06-11T00:00:00	2024-11-08T11:00:00	3	Temperatura mínima	23.3
87564	7	Sololá	717	San Juan la Laguna	12	San Juan la Laguna	11	Noviembre	2023-06-11T00:00:00	2024-11-08T11:00:00	5	Humedad	65
87565	7	Sololá	717	San Juan la Laguna	12	San Juan la Laguna	11	Noviembre	2023-06-11T00:00:00	2024-11-08T11:00:00	6	Velocidad del viento	1.6
87566	7	Sololá	717	San Juan la Laguna	12	San Juan la Laguna	11	Noviembre	2023-06-11T00:00:00	2024-11-08T11:00:00	7	Dirección del viento	1.61
87567	7	Sololá	717	San Juan la Laguna	12	San Juan la Laguna	11	Noviembre	2023-06-11T00:00:00	2024-11-08T11:00:00	1	Precipitación	0
87568	7	Sololá	717	San Juan la Laguna	12	San Juan la Laguna	11	Noviembre	2023-06-11T00:00:00	2024-11-08T11:00:00	8	Radiación solar	333
87569	7	Sololá	717	San Juan la Laguna	12	San Juan la Laguna	11	Noviembre	2023-06-11T00:00:00	2024-11-08T12:00:00	2	Temperatura media	24.2
87570	7	Sololá	717	San Juan la Laguna	12	San Juan la Laguna	11	Noviembre	2023-06-11T00:00:00	2024-11-08T12:00:00	4	Temperatura máxima	24.9
87571	7	Sololá	717	San Juan la Laguna	12	San Juan la Laguna	11	Noviembre	2023-06-11T00:00:00	2024-11-08T12:00:00	3	Temperatura mínima	23.3
87572	7	Sololá	717	San Juan la Laguna	12	San Juan la Laguna	11	Noviembre	2023-06-11T00:00:00	2024-11-08T12:00:00	5	Humedad	63
87573	7	Sololá	717	San Juan la Laguna	12	San Juan la Laguna	11	Noviembre	2023-06-11T00:00:00	2024-11-08T12:00:00	6	Velocidad del viento	1.6
87574	7	Sololá	717	San Juan la Laguna	12	San Juan la Laguna	11	Noviembre	2023-06-11T00:00:00	2024-11-08T12:00:00	7	Dirección del viento	1.61
87575	7	Sololá	717	San Juan la Laguna	12	San Juan la Laguna	11	Noviembre	2023-06-11T00:00:00	2024-11-08T12:00:00	1	Precipitación	0
87576	7	Sololá	717	San Juan la Laguna	12	San Juan la Laguna	11	Noviembre	2023-06-11T00:00:00	2024-11-08T12:00:00	8	Radiación solar	461
87577	7	Sololá	717	San Juan la Laguna	12	San Juan la Laguna	11	Noviembre	2023-06-11T00:00:00	2024-11-08T13:00:00	2	Temperatura media	23.5
87578	7	Sololá	717	San Juan la Laguna	12	San Juan la Laguna	11	Noviembre	2023-06-11T00:00:00	2024-11-08T13:00:00	4	Temperatura máxima	24.3
87579	7	Sololá	717	San Juan la Laguna	12	San Juan la Laguna	11	Noviembre	2023-06-11T00:00:00	2024-11-08T13:00:00	3	Temperatura mínima	23.5
87580	7	Sololá	717	San Juan la Laguna	12	San Juan la Laguna	11	Noviembre	2023-06-11T00:00:00	2024-11-08T13:00:00	5	Humedad	64
87581	7	Sololá	717	San Juan la Laguna	12	San Juan la Laguna	11	Noviembre	2023-06-11T00:00:00	2024-11-08T13:00:00	6	Velocidad del viento	1.6
87582	7	Sololá	717	San Juan la Laguna	12	San Juan la Laguna	11	Noviembre	2023-06-11T00:00:00	2024-11-08T13:00:00	7	Dirección del viento	1.61
87583	7	Sololá	717	San Juan la Laguna	12	San Juan la Laguna	11	Noviembre	2023-06-11T00:00:00	2024-11-08T13:00:00	1	Precipitación	0
87584	7	Sololá	717	San Juan la Laguna	12	San Juan la Laguna	11	Noviembre	2023-06-11T00:00:00	2024-11-08T13:00:00	8	Radiación solar	260
87585	7	Sololá	717	San Juan la Laguna	12	San Juan la Laguna	11	Noviembre	2023-06-11T00:00:00	2024-11-08T14:00:00	2	Temperatura media	23.9
87586	7	Sololá	717	San Juan la Laguna	12	San Juan la Laguna	11	Noviembre	2023-06-11T00:00:00	2024-11-08T14:00:00	4	Temperatura máxima	24.5
87587	7	Sololá	717	San Juan la Laguna	12	San Juan la Laguna	11	Noviembre	2023-06-11T00:00:00	2024-11-08T14:00:00	3	Temperatura mínima	23.4
87588	7	Sololá	717	San Juan la Laguna	12	San Juan la Laguna	11	Noviembre	2023-06-11T00:00:00	2024-11-08T14:00:00	5	Humedad	64
87589	7	Sololá	717	San Juan la Laguna	12	San Juan la Laguna	11	Noviembre	2023-06-11T00:00:00	2024-11-08T14:00:00	6	Velocidad del viento	0
87590	7	Sololá	717	San Juan la Laguna	12	San Juan la Laguna	11	Noviembre	2023-06-11T00:00:00	2024-11-08T14:00:00	7	Dirección del viento	0
87591	7	Sololá	717	San Juan la Laguna	12	San Juan la Laguna	11	Noviembre	2023-06-11T00:00:00	2024-11-08T14:00:00	1	Precipitación	0
87592	7	Sololá	717	San Juan la Laguna	12	San Juan la Laguna	11	Noviembre	2023-06-11T00:00:00	2024-11-08T14:00:00	8	Radiación solar	307
87593	7	Sololá	717	San Juan la Laguna	12	San Juan la Laguna	11	Noviembre	2023-06-11T00:00:00	2024-11-08T15:00:00	2	Temperatura media	23.8
87594	7	Sololá	717	San Juan la Laguna	12	San Juan la Laguna	11	Noviembre	2023-06-11T00:00:00	2024-11-08T15:00:00	4	Temperatura máxima	23.9
87595	7	Sololá	717	San Juan la Laguna	12	San Juan la Laguna	11	Noviembre	2023-06-11T00:00:00	2024-11-08T15:00:00	3	Temperatura mínima	23.4
87596	7	Sololá	717	San Juan la Laguna	12	San Juan la Laguna	11	Noviembre	2023-06-11T00:00:00	2024-11-08T15:00:00	5	Humedad	65
87597	7	Sololá	717	San Juan la Laguna	12	San Juan la Laguna	11	Noviembre	2023-06-11T00:00:00	2024-11-08T15:00:00	6	Velocidad del viento	0
87598	7	Sololá	717	San Juan la Laguna	12	San Juan la Laguna	11	Noviembre	2023-06-11T00:00:00	2024-11-08T15:00:00	7	Dirección del viento	0
87599	7	Sololá	717	San Juan la Laguna	12	San Juan la Laguna	11	Noviembre	2023-06-11T00:00:00	2024-11-08T15:00:00	1	Precipitación	0
87600	7	Sololá	717	San Juan la Laguna	12	San Juan la Laguna	11	Noviembre	2023-06-11T00:00:00	2024-11-08T15:00:00	8	Radiación solar	172
87601	7	Sololá	717	San Juan la Laguna	12	San Juan la Laguna	11	Noviembre	2023-06-11T00:00:00	2024-11-08T16:00:00	2	Temperatura media	23.4
87602	7	Sololá	717	San Juan la Laguna	12	San Juan la Laguna	11	Noviembre	2023-06-11T00:00:00	2024-11-08T16:00:00	4	Temperatura máxima	23.8
87603	7	Sololá	717	San Juan la Laguna	12	San Juan la Laguna	11	Noviembre	2023-06-11T00:00:00	2024-11-08T16:00:00	3	Temperatura mínima	22
87604	7	Sololá	717	San Juan la Laguna	12	San Juan la Laguna	11	Noviembre	2023-06-11T00:00:00	2024-11-08T16:00:00	5	Humedad	66
87605	7	Sololá	717	San Juan la Laguna	12	San Juan la Laguna	11	Noviembre	2023-06-11T00:00:00	2024-11-08T16:00:00	6	Velocidad del viento	1.6
87606	7	Sololá	717	San Juan la Laguna	12	San Juan la Laguna	11	Noviembre	2023-06-11T00:00:00	2024-11-08T16:00:00	7	Dirección del viento	1.61
87607	7	Sololá	717	San Juan la Laguna	12	San Juan la Laguna	11	Noviembre	2023-06-11T00:00:00	2024-11-08T16:00:00	1	Precipitación	0
87608	7	Sololá	717	San Juan la Laguna	12	San Juan la Laguna	11	Noviembre	2023-06-11T00:00:00	2024-11-08T16:00:00	8	Radiación solar	206
87609	7	Sololá	717	San Juan la Laguna	12	San Juan la Laguna	11	Noviembre	2023-06-11T00:00:00	2024-11-08T17:00:00	2	Temperatura media	22.7
87610	7	Sololá	717	San Juan la Laguna	12	San Juan la Laguna	11	Noviembre	2023-06-11T00:00:00	2024-11-08T17:00:00	4	Temperatura máxima	23.4
87611	7	Sololá	717	San Juan la Laguna	12	San Juan la Laguna	11	Noviembre	2023-06-11T00:00:00	2024-11-08T17:00:00	3	Temperatura mínima	22.6
87612	7	Sololá	717	San Juan la Laguna	12	San Juan la Laguna	11	Noviembre	2023-06-11T00:00:00	2024-11-08T17:00:00	5	Humedad	68
87613	7	Sololá	717	San Juan la Laguna	12	San Juan la Laguna	11	Noviembre	2023-06-11T00:00:00	2024-11-08T17:00:00	6	Velocidad del viento	0
87614	7	Sololá	717	San Juan la Laguna	12	San Juan la Laguna	11	Noviembre	2023-06-11T00:00:00	2024-11-08T17:00:00	7	Dirección del viento	0
87615	7	Sololá	717	San Juan la Laguna	12	San Juan la Laguna	11	Noviembre	2023-06-11T00:00:00	2024-11-08T17:00:00	1	Precipitación	0
87616	7	Sololá	717	San Juan la Laguna	12	San Juan la Laguna	11	Noviembre	2023-06-11T00:00:00	2024-11-08T17:00:00	8	Radiación solar	34
87617	7	Sololá	717	San Juan la Laguna	12	San Juan la Laguna	11	Noviembre	2023-06-11T00:00:00	2024-11-08T18:00:00	2	Temperatura media	21.8
87618	7	Sololá	717	San Juan la Laguna	12	San Juan la Laguna	11	Noviembre	2023-06-11T00:00:00	2024-11-08T18:00:00	4	Temperatura máxima	22.7
87619	7	Sololá	717	San Juan la Laguna	12	San Juan la Laguna	11	Noviembre	2023-06-11T00:00:00	2024-11-08T18:00:00	3	Temperatura mínima	21.8
87620	7	Sololá	717	San Juan la Laguna	12	San Juan la Laguna	11	Noviembre	2023-06-11T00:00:00	2024-11-08T18:00:00	5	Humedad	74
87621	7	Sololá	717	San Juan la Laguna	12	San Juan la Laguna	11	Noviembre	2023-06-11T00:00:00	2024-11-08T18:00:00	6	Velocidad del viento	0
87622	7	Sololá	717	San Juan la Laguna	12	San Juan la Laguna	11	Noviembre	2023-06-11T00:00:00	2024-11-08T18:00:00	7	Dirección del viento	0
87623	7	Sololá	717	San Juan la Laguna	12	San Juan la Laguna	11	Noviembre	2023-06-11T00:00:00	2024-11-08T18:00:00	1	Precipitación	0
87624	7	Sololá	717	San Juan la Laguna	12	San Juan la Laguna	11	Noviembre	2023-06-11T00:00:00	2024-11-08T18:00:00	8	Radiación solar	1
87625	7	Sololá	717	San Juan la Laguna	12	San Juan la Laguna	11	Noviembre	2023-06-11T00:00:00	2024-11-08T19:00:00	2	Temperatura media	21.7
87626	7	Sololá	717	San Juan la Laguna	12	San Juan la Laguna	11	Noviembre	2023-06-11T00:00:00	2024-11-08T19:00:00	4	Temperatura máxima	21.7
87627	7	Sololá	717	San Juan la Laguna	12	San Juan la Laguna	11	Noviembre	2023-06-11T00:00:00	2024-11-08T19:00:00	3	Temperatura mínima	21.5
87628	7	Sololá	717	San Juan la Laguna	12	San Juan la Laguna	11	Noviembre	2023-06-11T00:00:00	2024-11-08T19:00:00	5	Humedad	71
87629	7	Sololá	717	San Juan la Laguna	12	San Juan la Laguna	11	Noviembre	2023-06-11T00:00:00	2024-11-08T19:00:00	6	Velocidad del viento	0
87630	7	Sololá	717	San Juan la Laguna	12	San Juan la Laguna	11	Noviembre	2023-06-11T00:00:00	2024-11-08T19:00:00	7	Dirección del viento	0
87631	7	Sololá	717	San Juan la Laguna	12	San Juan la Laguna	11	Noviembre	2023-06-11T00:00:00	2024-11-08T19:00:00	1	Precipitación	0
87632	7	Sololá	717	San Juan la Laguna	12	San Juan la Laguna	11	Noviembre	2023-06-11T00:00:00	2024-11-08T19:00:00	8	Radiación solar	0
87633	7	Sololá	717	San Juan la Laguna	12	San Juan la Laguna	11	Noviembre	2023-06-11T00:00:00	2024-11-08T20:00:00	2	Temperatura media	21.3
87634	7	Sololá	717	San Juan la Laguna	12	San Juan la Laguna	11	Noviembre	2023-06-11T00:00:00	2024-11-08T20:00:00	4	Temperatura máxima	21.7
87635	7	Sololá	717	San Juan la Laguna	12	San Juan la Laguna	11	Noviembre	2023-06-11T00:00:00	2024-11-08T20:00:00	3	Temperatura mínima	21.3
87636	7	Sololá	717	San Juan la Laguna	12	San Juan la Laguna	11	Noviembre	2023-06-11T00:00:00	2024-11-08T20:00:00	5	Humedad	72
87637	7	Sololá	717	San Juan la Laguna	12	San Juan la Laguna	11	Noviembre	2023-06-11T00:00:00	2024-11-08T20:00:00	6	Velocidad del viento	0
87638	7	Sololá	717	San Juan la Laguna	12	San Juan la Laguna	11	Noviembre	2023-06-11T00:00:00	2024-11-08T20:00:00	7	Dirección del viento	0
87639	7	Sololá	717	San Juan la Laguna	12	San Juan la Laguna	11	Noviembre	2023-06-11T00:00:00	2024-11-08T20:00:00	1	Precipitación	0
87640	7	Sololá	717	San Juan la Laguna	12	San Juan la Laguna	11	Noviembre	2023-06-11T00:00:00	2024-11-08T20:00:00	8	Radiación solar	0
87641	7	Sololá	717	San Juan la Laguna	12	San Juan la Laguna	11	Noviembre	2023-06-11T00:00:00	2024-11-08T21:00:00	2	Temperatura media	21.3
87642	7	Sololá	717	San Juan la Laguna	12	San Juan la Laguna	11	Noviembre	2023-06-11T00:00:00	2024-11-08T21:00:00	4	Temperatura máxima	21.4
87643	7	Sololá	717	San Juan la Laguna	12	San Juan la Laguna	11	Noviembre	2023-06-11T00:00:00	2024-11-08T21:00:00	3	Temperatura mínima	21.2
87644	7	Sololá	717	San Juan la Laguna	12	San Juan la Laguna	11	Noviembre	2023-06-11T00:00:00	2024-11-08T21:00:00	5	Humedad	72
87645	7	Sololá	717	San Juan la Laguna	12	San Juan la Laguna	11	Noviembre	2023-06-11T00:00:00	2024-11-08T21:00:00	6	Velocidad del viento	0
87646	7	Sololá	717	San Juan la Laguna	12	San Juan la Laguna	11	Noviembre	2023-06-11T00:00:00	2024-11-08T21:00:00	7	Dirección del viento	0
87647	7	Sololá	717	San Juan la Laguna	12	San Juan la Laguna	11	Noviembre	2023-06-11T00:00:00	2024-11-08T21:00:00	1	Precipitación	0
87648	7	Sololá	717	San Juan la Laguna	12	San Juan la Laguna	11	Noviembre	2023-06-11T00:00:00	2024-11-08T21:00:00	8	Radiación solar	0
87649	7	Sololá	717	San Juan la Laguna	12	San Juan la Laguna	11	Noviembre	2023-06-11T00:00:00	2024-11-08T22:00:00	2	Temperatura media	21.1
87650	7	Sololá	717	San Juan la Laguna	12	San Juan la Laguna	11	Noviembre	2023-06-11T00:00:00	2024-11-08T22:00:00	4	Temperatura máxima	21.3
87651	7	Sololá	717	San Juan la Laguna	12	San Juan la Laguna	11	Noviembre	2023-06-11T00:00:00	2024-11-08T22:00:00	3	Temperatura mínima	21
87652	7	Sololá	717	San Juan la Laguna	12	San Juan la Laguna	11	Noviembre	2023-06-11T00:00:00	2024-11-08T22:00:00	5	Humedad	72
87653	7	Sololá	717	San Juan la Laguna	12	San Juan la Laguna	11	Noviembre	2023-06-11T00:00:00	2024-11-08T22:00:00	6	Velocidad del viento	0
87654	7	Sololá	717	San Juan la Laguna	12	San Juan la Laguna	11	Noviembre	2023-06-11T00:00:00	2024-11-08T22:00:00	7	Dirección del viento	0
87655	7	Sololá	717	San Juan la Laguna	12	San Juan la Laguna	11	Noviembre	2023-06-11T00:00:00	2024-11-08T22:00:00	1	Precipitación	0
87656	7	Sololá	717	San Juan la Laguna	12	San Juan la Laguna	11	Noviembre	2023-06-11T00:00:00	2024-11-08T22:00:00	8	Radiación solar	0
87657	7	Sololá	717	San Juan la Laguna	12	San Juan la Laguna	11	Noviembre	2023-06-11T00:00:00	2024-11-08T23:00:00	2	Temperatura media	21.2
87658	7	Sololá	717	San Juan la Laguna	12	San Juan la Laguna	11	Noviembre	2023-06-11T00:00:00	2024-11-08T23:00:00	4	Temperatura máxima	21.4
87659	7	Sololá	717	San Juan la Laguna	12	San Juan la Laguna	11	Noviembre	2023-06-11T00:00:00	2024-11-08T23:00:00	3	Temperatura mínima	21.1
87660	7	Sololá	717	San Juan la Laguna	12	San Juan la Laguna	11	Noviembre	2023-06-11T00:00:00	2024-11-08T23:00:00	5	Humedad	74
87661	7	Sololá	717	San Juan la Laguna	12	San Juan la Laguna	11	Noviembre	2023-06-11T00:00:00	2024-11-08T23:00:00	6	Velocidad del viento	0
87662	7	Sololá	717	San Juan la Laguna	12	San Juan la Laguna	11	Noviembre	2023-06-11T00:00:00	2024-11-08T23:00:00	7	Dirección del viento	0
87663	7	Sololá	717	San Juan la Laguna	12	San Juan la Laguna	11	Noviembre	2023-06-11T00:00:00	2024-11-08T23:00:00	1	Precipitación	0
87664	7	Sololá	717	San Juan la Laguna	12	San Juan la Laguna	11	Noviembre	2023-06-11T00:00:00	2024-11-08T23:00:00	8	Radiación solar	0
87665	7	Sololá	717	San Juan la Laguna	12	San Juan la Laguna	11	Noviembre	2023-07-11T00:00:00	2024-11-08T00:00:00	2	Temperatura media	18.6
87666	7	Sololá	717	San Juan la Laguna	12	San Juan la Laguna	11	Noviembre	2023-07-11T00:00:00	2024-11-08T00:00:00	4	Temperatura máxima	21.2
87667	7	Sololá	717	San Juan la Laguna	12	San Juan la Laguna	11	Noviembre	2023-07-11T00:00:00	2024-11-08T00:00:00	3	Temperatura mínima	18.6
87668	7	Sololá	717	San Juan la Laguna	12	San Juan la Laguna	11	Noviembre	2023-07-11T00:00:00	2024-11-08T00:00:00	5	Humedad	82
87669	7	Sololá	717	San Juan la Laguna	12	San Juan la Laguna	11	Noviembre	2023-07-11T00:00:00	2024-11-08T00:00:00	6	Velocidad del viento	0
87670	7	Sololá	717	San Juan la Laguna	12	San Juan la Laguna	11	Noviembre	2023-07-11T00:00:00	2024-11-08T00:00:00	7	Dirección del viento	0
87671	7	Sololá	717	San Juan la Laguna	12	San Juan la Laguna	11	Noviembre	2023-07-11T00:00:00	2024-11-08T00:00:00	1	Precipitación	0
87672	7	Sololá	717	San Juan la Laguna	12	San Juan la Laguna	11	Noviembre	2023-07-11T00:00:00	2024-11-08T00:00:00	8	Radiación solar	0
87673	7	Sololá	717	San Juan la Laguna	12	San Juan la Laguna	11	Noviembre	2023-07-11T00:00:00	2024-11-08T01:00:00	2	Temperatura media	18.8
87674	7	Sololá	717	San Juan la Laguna	12	San Juan la Laguna	11	Noviembre	2023-07-11T00:00:00	2024-11-08T01:00:00	4	Temperatura máxima	18.8
87675	7	Sololá	717	San Juan la Laguna	12	San Juan la Laguna	11	Noviembre	2023-07-11T00:00:00	2024-11-08T01:00:00	3	Temperatura mínima	18.5
87676	7	Sololá	717	San Juan la Laguna	12	San Juan la Laguna	11	Noviembre	2023-07-11T00:00:00	2024-11-08T01:00:00	5	Humedad	82
87677	7	Sololá	717	San Juan la Laguna	12	San Juan la Laguna	11	Noviembre	2023-07-11T00:00:00	2024-11-08T01:00:00	6	Velocidad del viento	0
87678	7	Sololá	717	San Juan la Laguna	12	San Juan la Laguna	11	Noviembre	2023-07-11T00:00:00	2024-11-08T01:00:00	7	Dirección del viento	0
87679	7	Sololá	717	San Juan la Laguna	12	San Juan la Laguna	11	Noviembre	2023-07-11T00:00:00	2024-11-08T01:00:00	1	Precipitación	0
87680	7	Sololá	717	San Juan la Laguna	12	San Juan la Laguna	11	Noviembre	2023-07-11T00:00:00	2024-11-08T01:00:00	8	Radiación solar	0
87681	7	Sololá	717	San Juan la Laguna	12	San Juan la Laguna	11	Noviembre	2023-07-11T00:00:00	2024-11-08T02:00:00	2	Temperatura media	19.8
87682	7	Sololá	717	San Juan la Laguna	12	San Juan la Laguna	11	Noviembre	2023-07-11T00:00:00	2024-11-08T02:00:00	4	Temperatura máxima	19.9
87683	7	Sololá	717	San Juan la Laguna	12	San Juan la Laguna	11	Noviembre	2023-07-11T00:00:00	2024-11-08T02:00:00	3	Temperatura mínima	18.2
87684	7	Sololá	717	San Juan la Laguna	12	San Juan la Laguna	11	Noviembre	2023-07-11T00:00:00	2024-11-08T02:00:00	5	Humedad	77
87685	7	Sololá	717	San Juan la Laguna	12	San Juan la Laguna	11	Noviembre	2023-07-11T00:00:00	2024-11-08T02:00:00	6	Velocidad del viento	0
87686	7	Sololá	717	San Juan la Laguna	12	San Juan la Laguna	11	Noviembre	2023-07-11T00:00:00	2024-11-08T02:00:00	7	Dirección del viento	0
87687	7	Sololá	717	San Juan la Laguna	12	San Juan la Laguna	11	Noviembre	2023-07-11T00:00:00	2024-11-08T02:00:00	1	Precipitación	0
87688	7	Sololá	717	San Juan la Laguna	12	San Juan la Laguna	11	Noviembre	2023-07-11T00:00:00	2024-11-08T02:00:00	8	Radiación solar	0
87689	7	Sololá	717	San Juan la Laguna	12	San Juan la Laguna	11	Noviembre	2023-07-11T00:00:00	2024-11-08T03:00:00	2	Temperatura media	19.3
87690	7	Sololá	717	San Juan la Laguna	12	San Juan la Laguna	11	Noviembre	2023-07-11T00:00:00	2024-11-08T03:00:00	4	Temperatura máxima	19.8
87691	7	Sololá	717	San Juan la Laguna	12	San Juan la Laguna	11	Noviembre	2023-07-11T00:00:00	2024-11-08T03:00:00	3	Temperatura mínima	19.1
87692	7	Sololá	717	San Juan la Laguna	12	San Juan la Laguna	11	Noviembre	2023-07-11T00:00:00	2024-11-08T03:00:00	5	Humedad	78
87693	7	Sololá	717	San Juan la Laguna	12	San Juan la Laguna	11	Noviembre	2023-07-11T00:00:00	2024-11-08T03:00:00	6	Velocidad del viento	0
87694	7	Sololá	717	San Juan la Laguna	12	San Juan la Laguna	11	Noviembre	2023-07-11T00:00:00	2024-11-08T03:00:00	7	Dirección del viento	0
87695	7	Sololá	717	San Juan la Laguna	12	San Juan la Laguna	11	Noviembre	2023-07-11T00:00:00	2024-11-08T03:00:00	1	Precipitación	0
87696	7	Sololá	717	San Juan la Laguna	12	San Juan la Laguna	11	Noviembre	2023-07-11T00:00:00	2024-11-08T03:00:00	8	Radiación solar	0
87697	7	Sololá	717	San Juan la Laguna	12	San Juan la Laguna	11	Noviembre	2023-07-11T00:00:00	2024-11-08T04:00:00	2	Temperatura media	20.2
87698	7	Sololá	717	San Juan la Laguna	12	San Juan la Laguna	11	Noviembre	2023-07-11T00:00:00	2024-11-08T04:00:00	4	Temperatura máxima	20.2
87699	7	Sololá	717	San Juan la Laguna	12	San Juan la Laguna	11	Noviembre	2023-07-11T00:00:00	2024-11-08T04:00:00	3	Temperatura mínima	18.8
87700	7	Sololá	717	San Juan la Laguna	12	San Juan la Laguna	11	Noviembre	2023-07-11T00:00:00	2024-11-08T04:00:00	5	Humedad	76
87701	7	Sololá	717	San Juan la Laguna	12	San Juan la Laguna	11	Noviembre	2023-07-11T00:00:00	2024-11-08T04:00:00	6	Velocidad del viento	0
87702	7	Sololá	717	San Juan la Laguna	12	San Juan la Laguna	11	Noviembre	2023-07-11T00:00:00	2024-11-08T04:00:00	7	Dirección del viento	0
87703	7	Sololá	717	San Juan la Laguna	12	San Juan la Laguna	11	Noviembre	2023-07-11T00:00:00	2024-11-08T04:00:00	1	Precipitación	0
87704	7	Sololá	717	San Juan la Laguna	12	San Juan la Laguna	11	Noviembre	2023-07-11T00:00:00	2024-11-08T04:00:00	8	Radiación solar	0
87705	7	Sololá	717	San Juan la Laguna	12	San Juan la Laguna	11	Noviembre	2023-07-11T00:00:00	2024-11-08T05:00:00	2	Temperatura media	18.1
87706	7	Sololá	717	San Juan la Laguna	12	San Juan la Laguna	11	Noviembre	2023-07-11T00:00:00	2024-11-08T05:00:00	4	Temperatura máxima	20.2
87707	7	Sololá	717	San Juan la Laguna	12	San Juan la Laguna	11	Noviembre	2023-07-11T00:00:00	2024-11-08T05:00:00	3	Temperatura mínima	18.1
87708	7	Sololá	717	San Juan la Laguna	12	San Juan la Laguna	11	Noviembre	2023-07-11T00:00:00	2024-11-08T05:00:00	5	Humedad	83
87709	7	Sololá	717	San Juan la Laguna	12	San Juan la Laguna	11	Noviembre	2023-07-11T00:00:00	2024-11-08T05:00:00	6	Velocidad del viento	0
87710	7	Sololá	717	San Juan la Laguna	12	San Juan la Laguna	11	Noviembre	2023-07-11T00:00:00	2024-11-08T05:00:00	7	Dirección del viento	0
87711	7	Sololá	717	San Juan la Laguna	12	San Juan la Laguna	11	Noviembre	2023-07-11T00:00:00	2024-11-08T05:00:00	1	Precipitación	0
87712	7	Sololá	717	San Juan la Laguna	12	San Juan la Laguna	11	Noviembre	2023-07-11T00:00:00	2024-11-08T05:00:00	8	Radiación solar	0
87713	7	Sololá	717	San Juan la Laguna	12	San Juan la Laguna	11	Noviembre	2023-07-11T00:00:00	2024-11-08T06:00:00	2	Temperatura media	16.8
87714	7	Sololá	717	San Juan la Laguna	12	San Juan la Laguna	11	Noviembre	2023-07-11T00:00:00	2024-11-08T06:00:00	4	Temperatura máxima	18
87715	7	Sololá	717	San Juan la Laguna	12	San Juan la Laguna	11	Noviembre	2023-07-11T00:00:00	2024-11-08T06:00:00	3	Temperatura mínima	16.8
87716	7	Sololá	717	San Juan la Laguna	12	San Juan la Laguna	11	Noviembre	2023-07-11T00:00:00	2024-11-08T06:00:00	5	Humedad	86
87717	7	Sololá	717	San Juan la Laguna	12	San Juan la Laguna	11	Noviembre	2023-07-11T00:00:00	2024-11-08T06:00:00	6	Velocidad del viento	0
87718	7	Sololá	717	San Juan la Laguna	12	San Juan la Laguna	11	Noviembre	2023-07-11T00:00:00	2024-11-08T06:00:00	7	Dirección del viento	0
87719	7	Sololá	717	San Juan la Laguna	12	San Juan la Laguna	11	Noviembre	2023-07-11T00:00:00	2024-11-08T06:00:00	1	Precipitación	0
87720	7	Sololá	717	San Juan la Laguna	12	San Juan la Laguna	11	Noviembre	2023-07-11T00:00:00	2024-11-08T06:00:00	8	Radiación solar	0
87721	7	Sololá	717	San Juan la Laguna	12	San Juan la Laguna	11	Noviembre	2023-07-11T00:00:00	2024-11-08T07:00:00	2	Temperatura media	17.6
87722	7	Sololá	717	San Juan la Laguna	12	San Juan la Laguna	11	Noviembre	2023-07-11T00:00:00	2024-11-08T07:00:00	4	Temperatura máxima	17.6
87723	7	Sololá	717	San Juan la Laguna	12	San Juan la Laguna	11	Noviembre	2023-07-11T00:00:00	2024-11-08T07:00:00	3	Temperatura mínima	16.7
87724	7	Sololá	717	San Juan la Laguna	12	San Juan la Laguna	11	Noviembre	2023-07-11T00:00:00	2024-11-08T07:00:00	5	Humedad	86
87725	7	Sololá	717	San Juan la Laguna	12	San Juan la Laguna	11	Noviembre	2023-07-11T00:00:00	2024-11-08T07:00:00	6	Velocidad del viento	0
87726	7	Sololá	717	San Juan la Laguna	12	San Juan la Laguna	11	Noviembre	2023-07-11T00:00:00	2024-11-08T07:00:00	7	Dirección del viento	0
87727	7	Sololá	717	San Juan la Laguna	12	San Juan la Laguna	11	Noviembre	2023-07-11T00:00:00	2024-11-08T07:00:00	1	Precipitación	0
87728	7	Sololá	717	San Juan la Laguna	12	San Juan la Laguna	11	Noviembre	2023-07-11T00:00:00	2024-11-08T07:00:00	8	Radiación solar	32
87729	7	Sololá	717	San Juan la Laguna	12	San Juan la Laguna	11	Noviembre	2023-07-11T00:00:00	2024-11-08T08:00:00	2	Temperatura media	22.6
87730	7	Sololá	717	San Juan la Laguna	12	San Juan la Laguna	11	Noviembre	2023-07-11T00:00:00	2024-11-08T08:00:00	4	Temperatura máxima	22.6
87731	7	Sololá	717	San Juan la Laguna	12	San Juan la Laguna	11	Noviembre	2023-07-11T00:00:00	2024-11-08T08:00:00	3	Temperatura mínima	17.6
87732	7	Sololá	717	San Juan la Laguna	12	San Juan la Laguna	11	Noviembre	2023-07-11T00:00:00	2024-11-08T08:00:00	5	Humedad	70
87733	7	Sololá	717	San Juan la Laguna	12	San Juan la Laguna	11	Noviembre	2023-07-11T00:00:00	2024-11-08T08:00:00	6	Velocidad del viento	0
87734	7	Sololá	717	San Juan la Laguna	12	San Juan la Laguna	11	Noviembre	2023-07-11T00:00:00	2024-11-08T08:00:00	7	Dirección del viento	0
87735	7	Sololá	717	San Juan la Laguna	12	San Juan la Laguna	11	Noviembre	2023-07-11T00:00:00	2024-11-08T08:00:00	1	Precipitación	0
87736	7	Sololá	717	San Juan la Laguna	12	San Juan la Laguna	11	Noviembre	2023-07-11T00:00:00	2024-11-08T08:00:00	8	Radiación solar	240
87737	7	Sololá	717	San Juan la Laguna	12	San Juan la Laguna	11	Noviembre	2023-07-11T00:00:00	2024-11-08T09:00:00	2	Temperatura media	23.6
87738	7	Sololá	717	San Juan la Laguna	12	San Juan la Laguna	11	Noviembre	2023-07-11T00:00:00	2024-11-08T09:00:00	4	Temperatura máxima	23.7
87739	7	Sololá	717	San Juan la Laguna	12	San Juan la Laguna	11	Noviembre	2023-07-11T00:00:00	2024-11-08T09:00:00	3	Temperatura mínima	22.6
87740	7	Sololá	717	San Juan la Laguna	12	San Juan la Laguna	11	Noviembre	2023-07-11T00:00:00	2024-11-08T09:00:00	5	Humedad	64
87741	7	Sololá	717	San Juan la Laguna	12	San Juan la Laguna	11	Noviembre	2023-07-11T00:00:00	2024-11-08T09:00:00	6	Velocidad del viento	1.6
87742	7	Sololá	717	San Juan la Laguna	12	San Juan la Laguna	11	Noviembre	2023-07-11T00:00:00	2024-11-08T09:00:00	7	Dirección del viento	1.61
87743	7	Sololá	717	San Juan la Laguna	12	San Juan la Laguna	11	Noviembre	2023-07-11T00:00:00	2024-11-08T09:00:00	1	Precipitación	0
87744	7	Sololá	717	San Juan la Laguna	12	San Juan la Laguna	11	Noviembre	2023-07-11T00:00:00	2024-11-08T09:00:00	8	Radiación solar	472
87745	7	Sololá	717	San Juan la Laguna	12	San Juan la Laguna	11	Noviembre	2023-07-11T00:00:00	2024-11-08T10:00:00	2	Temperatura media	23.2
87746	7	Sololá	717	San Juan la Laguna	12	San Juan la Laguna	11	Noviembre	2023-07-11T00:00:00	2024-11-08T10:00:00	4	Temperatura máxima	23.6
87747	7	Sololá	717	San Juan la Laguna	12	San Juan la Laguna	11	Noviembre	2023-07-11T00:00:00	2024-11-08T10:00:00	3	Temperatura mínima	23
87748	7	Sololá	717	San Juan la Laguna	12	San Juan la Laguna	11	Noviembre	2023-07-11T00:00:00	2024-11-08T10:00:00	5	Humedad	66
87749	7	Sololá	717	San Juan la Laguna	12	San Juan la Laguna	11	Noviembre	2023-07-11T00:00:00	2024-11-08T10:00:00	6	Velocidad del viento	1.6
87750	7	Sololá	717	San Juan la Laguna	12	San Juan la Laguna	11	Noviembre	2023-07-11T00:00:00	2024-11-08T10:00:00	7	Dirección del viento	1.61
87751	7	Sololá	717	San Juan la Laguna	12	San Juan la Laguna	11	Noviembre	2023-07-11T00:00:00	2024-11-08T10:00:00	1	Precipitación	0
87752	7	Sololá	717	San Juan la Laguna	12	San Juan la Laguna	11	Noviembre	2023-07-11T00:00:00	2024-11-08T10:00:00	8	Radiación solar	305
87753	7	Sololá	717	San Juan la Laguna	12	San Juan la Laguna	11	Noviembre	2023-07-11T00:00:00	2024-11-08T11:00:00	2	Temperatura media	24.2
87754	7	Sololá	717	San Juan la Laguna	12	San Juan la Laguna	11	Noviembre	2023-07-11T00:00:00	2024-11-08T11:00:00	4	Temperatura máxima	24.2
87755	7	Sololá	717	San Juan la Laguna	12	San Juan la Laguna	11	Noviembre	2023-07-11T00:00:00	2024-11-08T11:00:00	3	Temperatura mínima	23.2
87756	7	Sololá	717	San Juan la Laguna	12	San Juan la Laguna	11	Noviembre	2023-07-11T00:00:00	2024-11-08T11:00:00	5	Humedad	63
87757	7	Sololá	717	San Juan la Laguna	12	San Juan la Laguna	11	Noviembre	2023-07-11T00:00:00	2024-11-08T11:00:00	6	Velocidad del viento	1.6
87758	7	Sololá	717	San Juan la Laguna	12	San Juan la Laguna	11	Noviembre	2023-07-11T00:00:00	2024-11-08T11:00:00	7	Dirección del viento	1.61
87759	7	Sololá	717	San Juan la Laguna	12	San Juan la Laguna	11	Noviembre	2023-07-11T00:00:00	2024-11-08T11:00:00	1	Precipitación	0
87760	7	Sololá	717	San Juan la Laguna	12	San Juan la Laguna	11	Noviembre	2023-07-11T00:00:00	2024-11-08T11:00:00	8	Radiación solar	383
87761	7	Sololá	717	San Juan la Laguna	12	San Juan la Laguna	11	Noviembre	2023-07-11T00:00:00	2024-11-08T12:00:00	2	Temperatura media	24.9
87762	7	Sololá	717	San Juan la Laguna	12	San Juan la Laguna	11	Noviembre	2023-07-11T00:00:00	2024-11-08T12:00:00	4	Temperatura máxima	25.6
87763	7	Sololá	717	San Juan la Laguna	12	San Juan la Laguna	11	Noviembre	2023-07-11T00:00:00	2024-11-08T12:00:00	3	Temperatura mínima	24.2
87764	7	Sololá	717	San Juan la Laguna	12	San Juan la Laguna	11	Noviembre	2023-07-11T00:00:00	2024-11-08T12:00:00	5	Humedad	60
87765	7	Sololá	717	San Juan la Laguna	12	San Juan la Laguna	11	Noviembre	2023-07-11T00:00:00	2024-11-08T12:00:00	6	Velocidad del viento	3.2
87766	7	Sololá	717	San Juan la Laguna	12	San Juan la Laguna	11	Noviembre	2023-07-11T00:00:00	2024-11-08T12:00:00	7	Dirección del viento	3.22
87767	7	Sololá	717	San Juan la Laguna	12	San Juan la Laguna	11	Noviembre	2023-07-11T00:00:00	2024-11-08T12:00:00	1	Precipitación	0
87768	7	Sololá	717	San Juan la Laguna	12	San Juan la Laguna	11	Noviembre	2023-07-11T00:00:00	2024-11-08T12:00:00	8	Radiación solar	775
87769	7	Sololá	717	San Juan la Laguna	12	San Juan la Laguna	11	Noviembre	2023-07-11T00:00:00	2024-11-08T13:00:00	2	Temperatura media	25.7
87770	7	Sololá	717	San Juan la Laguna	12	San Juan la Laguna	11	Noviembre	2023-07-11T00:00:00	2024-11-08T13:00:00	4	Temperatura máxima	25.7
87771	7	Sololá	717	San Juan la Laguna	12	San Juan la Laguna	11	Noviembre	2023-07-11T00:00:00	2024-11-08T13:00:00	3	Temperatura mínima	24.6
87772	7	Sololá	717	San Juan la Laguna	12	San Juan la Laguna	11	Noviembre	2023-07-11T00:00:00	2024-11-08T13:00:00	5	Humedad	59
87773	7	Sololá	717	San Juan la Laguna	12	San Juan la Laguna	11	Noviembre	2023-07-11T00:00:00	2024-11-08T13:00:00	6	Velocidad del viento	4.8
87774	7	Sololá	717	San Juan la Laguna	12	San Juan la Laguna	11	Noviembre	2023-07-11T00:00:00	2024-11-08T13:00:00	7	Dirección del viento	4.83
87775	7	Sololá	717	San Juan la Laguna	12	San Juan la Laguna	11	Noviembre	2023-07-11T00:00:00	2024-11-08T13:00:00	1	Precipitación	0
87776	7	Sololá	717	San Juan la Laguna	12	San Juan la Laguna	11	Noviembre	2023-07-11T00:00:00	2024-11-08T13:00:00	8	Radiación solar	714
87777	7	Sololá	717	San Juan la Laguna	12	San Juan la Laguna	11	Noviembre	2023-07-11T00:00:00	2024-11-08T14:00:00	2	Temperatura media	25.7
87778	7	Sololá	717	San Juan la Laguna	12	San Juan la Laguna	11	Noviembre	2023-07-11T00:00:00	2024-11-08T14:00:00	4	Temperatura máxima	26.6
87779	7	Sololá	717	San Juan la Laguna	12	San Juan la Laguna	11	Noviembre	2023-07-11T00:00:00	2024-11-08T14:00:00	3	Temperatura mínima	25.7
87780	7	Sololá	717	San Juan la Laguna	12	San Juan la Laguna	11	Noviembre	2023-07-11T00:00:00	2024-11-08T14:00:00	5	Humedad	58
87781	7	Sololá	717	San Juan la Laguna	12	San Juan la Laguna	11	Noviembre	2023-07-11T00:00:00	2024-11-08T14:00:00	6	Velocidad del viento	4.8
87782	7	Sololá	717	San Juan la Laguna	12	San Juan la Laguna	11	Noviembre	2023-07-11T00:00:00	2024-11-08T14:00:00	7	Dirección del viento	4.83
87783	7	Sololá	717	San Juan la Laguna	12	San Juan la Laguna	11	Noviembre	2023-07-11T00:00:00	2024-11-08T14:00:00	1	Precipitación	0
87784	7	Sololá	717	San Juan la Laguna	12	San Juan la Laguna	11	Noviembre	2023-07-11T00:00:00	2024-11-08T14:00:00	8	Radiación solar	829
87785	7	Sololá	717	San Juan la Laguna	12	San Juan la Laguna	11	Noviembre	2023-07-11T00:00:00	2024-11-08T15:00:00	2	Temperatura media	25.6
87786	7	Sololá	717	San Juan la Laguna	12	San Juan la Laguna	11	Noviembre	2023-07-11T00:00:00	2024-11-08T15:00:00	4	Temperatura máxima	26.1
87787	7	Sololá	717	San Juan la Laguna	12	San Juan la Laguna	11	Noviembre	2023-07-11T00:00:00	2024-11-08T15:00:00	3	Temperatura mínima	24.8
87788	7	Sololá	717	San Juan la Laguna	12	San Juan la Laguna	11	Noviembre	2023-07-11T00:00:00	2024-11-08T15:00:00	5	Humedad	57
87789	7	Sololá	717	San Juan la Laguna	12	San Juan la Laguna	11	Noviembre	2023-07-11T00:00:00	2024-11-08T15:00:00	6	Velocidad del viento	4.8
87790	7	Sololá	717	San Juan la Laguna	12	San Juan la Laguna	11	Noviembre	2023-07-11T00:00:00	2024-11-08T15:00:00	7	Dirección del viento	4.83
87791	7	Sololá	717	San Juan la Laguna	12	San Juan la Laguna	11	Noviembre	2023-07-11T00:00:00	2024-11-08T15:00:00	1	Precipitación	0
87792	7	Sololá	717	San Juan la Laguna	12	San Juan la Laguna	11	Noviembre	2023-07-11T00:00:00	2024-11-08T15:00:00	8	Radiación solar	457
87793	7	Sololá	717	San Juan la Laguna	12	San Juan la Laguna	11	Noviembre	2023-07-11T00:00:00	2024-11-08T16:00:00	2	Temperatura media	24
87794	7	Sololá	717	San Juan la Laguna	12	San Juan la Laguna	11	Noviembre	2023-07-11T00:00:00	2024-11-08T16:00:00	4	Temperatura máxima	25.6
87795	7	Sololá	717	San Juan la Laguna	12	San Juan la Laguna	11	Noviembre	2023-07-11T00:00:00	2024-11-08T16:00:00	3	Temperatura mínima	23.9
87796	7	Sololá	717	San Juan la Laguna	12	San Juan la Laguna	11	Noviembre	2023-07-11T00:00:00	2024-11-08T16:00:00	5	Humedad	63
87797	7	Sololá	717	San Juan la Laguna	12	San Juan la Laguna	11	Noviembre	2023-07-11T00:00:00	2024-11-08T16:00:00	6	Velocidad del viento	8
87798	7	Sololá	717	San Juan la Laguna	12	San Juan la Laguna	11	Noviembre	2023-07-11T00:00:00	2024-11-08T16:00:00	7	Dirección del viento	8.05
87799	7	Sololá	717	San Juan la Laguna	12	San Juan la Laguna	11	Noviembre	2023-07-11T00:00:00	2024-11-08T16:00:00	1	Precipitación	0
87800	7	Sololá	717	San Juan la Laguna	12	San Juan la Laguna	11	Noviembre	2023-07-11T00:00:00	2024-11-08T16:00:00	8	Radiación solar	436
87801	7	Sololá	717	San Juan la Laguna	12	San Juan la Laguna	11	Noviembre	2023-07-11T00:00:00	2024-11-08T17:00:00	2	Temperatura media	23.4
87802	7	Sololá	717	San Juan la Laguna	12	San Juan la Laguna	11	Noviembre	2023-07-11T00:00:00	2024-11-08T17:00:00	4	Temperatura máxima	24.1
87803	7	Sololá	717	San Juan la Laguna	12	San Juan la Laguna	11	Noviembre	2023-07-11T00:00:00	2024-11-08T17:00:00	3	Temperatura mínima	23.4
87804	7	Sololá	717	San Juan la Laguna	12	San Juan la Laguna	11	Noviembre	2023-07-11T00:00:00	2024-11-08T17:00:00	5	Humedad	62
87805	7	Sololá	717	San Juan la Laguna	12	San Juan la Laguna	11	Noviembre	2023-07-11T00:00:00	2024-11-08T17:00:00	6	Velocidad del viento	3.2
87806	7	Sololá	717	San Juan la Laguna	12	San Juan la Laguna	11	Noviembre	2023-07-11T00:00:00	2024-11-08T17:00:00	7	Dirección del viento	3.22
87807	7	Sololá	717	San Juan la Laguna	12	San Juan la Laguna	11	Noviembre	2023-07-11T00:00:00	2024-11-08T17:00:00	1	Precipitación	0
87808	7	Sololá	717	San Juan la Laguna	12	San Juan la Laguna	11	Noviembre	2023-07-11T00:00:00	2024-11-08T17:00:00	8	Radiación solar	111
87809	7	Sololá	717	San Juan la Laguna	12	San Juan la Laguna	11	Noviembre	2023-07-11T00:00:00	2024-11-08T18:00:00	2	Temperatura media	22.5
87810	7	Sololá	717	San Juan la Laguna	12	San Juan la Laguna	11	Noviembre	2023-07-11T00:00:00	2024-11-08T18:00:00	4	Temperatura máxima	23.4
87811	7	Sololá	717	San Juan la Laguna	12	San Juan la Laguna	11	Noviembre	2023-07-11T00:00:00	2024-11-08T18:00:00	3	Temperatura mínima	22.5
87812	7	Sololá	717	San Juan la Laguna	12	San Juan la Laguna	11	Noviembre	2023-07-11T00:00:00	2024-11-08T18:00:00	5	Humedad	66
87813	7	Sololá	717	San Juan la Laguna	12	San Juan la Laguna	11	Noviembre	2023-07-11T00:00:00	2024-11-08T18:00:00	6	Velocidad del viento	6.4
87814	7	Sololá	717	San Juan la Laguna	12	San Juan la Laguna	11	Noviembre	2023-07-11T00:00:00	2024-11-08T18:00:00	7	Dirección del viento	6.44
87815	7	Sololá	717	San Juan la Laguna	12	San Juan la Laguna	11	Noviembre	2023-07-11T00:00:00	2024-11-08T18:00:00	1	Precipitación	0
87816	7	Sololá	717	San Juan la Laguna	12	San Juan la Laguna	11	Noviembre	2023-07-11T00:00:00	2024-11-08T18:00:00	8	Radiación solar	7
87817	7	Sololá	717	San Juan la Laguna	12	San Juan la Laguna	11	Noviembre	2023-07-11T00:00:00	2024-11-08T19:00:00	2	Temperatura media	22.3
87818	7	Sololá	717	San Juan la Laguna	12	San Juan la Laguna	11	Noviembre	2023-07-11T00:00:00	2024-11-08T19:00:00	4	Temperatura máxima	22.5
87819	7	Sololá	717	San Juan la Laguna	12	San Juan la Laguna	11	Noviembre	2023-07-11T00:00:00	2024-11-08T19:00:00	3	Temperatura mínima	22.3
87820	7	Sololá	717	San Juan la Laguna	12	San Juan la Laguna	11	Noviembre	2023-07-11T00:00:00	2024-11-08T19:00:00	5	Humedad	63
87821	7	Sololá	717	San Juan la Laguna	12	San Juan la Laguna	11	Noviembre	2023-07-11T00:00:00	2024-11-08T19:00:00	6	Velocidad del viento	8
87822	7	Sololá	717	San Juan la Laguna	12	San Juan la Laguna	11	Noviembre	2023-07-11T00:00:00	2024-11-08T19:00:00	7	Dirección del viento	8.05
87823	7	Sololá	717	San Juan la Laguna	12	San Juan la Laguna	11	Noviembre	2023-07-11T00:00:00	2024-11-08T19:00:00	1	Precipitación	0
87824	7	Sololá	717	San Juan la Laguna	12	San Juan la Laguna	11	Noviembre	2023-07-11T00:00:00	2024-11-08T19:00:00	8	Radiación solar	0
87825	7	Sololá	717	San Juan la Laguna	12	San Juan la Laguna	11	Noviembre	2023-07-11T00:00:00	2024-11-08T20:00:00	2	Temperatura media	21.7
87826	7	Sololá	717	San Juan la Laguna	12	San Juan la Laguna	11	Noviembre	2023-07-11T00:00:00	2024-11-08T20:00:00	4	Temperatura máxima	22.4
87827	7	Sololá	717	San Juan la Laguna	12	San Juan la Laguna	11	Noviembre	2023-07-11T00:00:00	2024-11-08T20:00:00	3	Temperatura mínima	21.7
87828	7	Sololá	717	San Juan la Laguna	12	San Juan la Laguna	11	Noviembre	2023-07-11T00:00:00	2024-11-08T20:00:00	5	Humedad	69
87829	7	Sololá	717	San Juan la Laguna	12	San Juan la Laguna	11	Noviembre	2023-07-11T00:00:00	2024-11-08T20:00:00	6	Velocidad del viento	11.3
87830	7	Sololá	717	San Juan la Laguna	12	San Juan la Laguna	11	Noviembre	2023-07-11T00:00:00	2024-11-08T20:00:00	7	Dirección del viento	11.27
87831	7	Sololá	717	San Juan la Laguna	12	San Juan la Laguna	11	Noviembre	2023-07-11T00:00:00	2024-11-08T20:00:00	1	Precipitación	0
87832	7	Sololá	717	San Juan la Laguna	12	San Juan la Laguna	11	Noviembre	2023-07-11T00:00:00	2024-11-08T20:00:00	8	Radiación solar	0
87833	7	Sololá	717	San Juan la Laguna	12	San Juan la Laguna	11	Noviembre	2023-07-11T00:00:00	2024-11-08T21:00:00	2	Temperatura media	22.2
87834	7	Sololá	717	San Juan la Laguna	12	San Juan la Laguna	11	Noviembre	2023-07-11T00:00:00	2024-11-08T21:00:00	4	Temperatura máxima	22.2
87835	7	Sololá	717	San Juan la Laguna	12	San Juan la Laguna	11	Noviembre	2023-07-11T00:00:00	2024-11-08T21:00:00	3	Temperatura mínima	21.7
87836	7	Sololá	717	San Juan la Laguna	12	San Juan la Laguna	11	Noviembre	2023-07-11T00:00:00	2024-11-08T21:00:00	5	Humedad	66
87837	7	Sololá	717	San Juan la Laguna	12	San Juan la Laguna	11	Noviembre	2023-07-11T00:00:00	2024-11-08T21:00:00	6	Velocidad del viento	4.8
87838	7	Sololá	717	San Juan la Laguna	12	San Juan la Laguna	11	Noviembre	2023-07-11T00:00:00	2024-11-08T21:00:00	7	Dirección del viento	4.83
87839	7	Sololá	717	San Juan la Laguna	12	San Juan la Laguna	11	Noviembre	2023-07-11T00:00:00	2024-11-08T21:00:00	1	Precipitación	0
87840	7	Sololá	717	San Juan la Laguna	12	San Juan la Laguna	11	Noviembre	2023-07-11T00:00:00	2024-11-08T21:00:00	8	Radiación solar	0
87841	7	Sololá	717	San Juan la Laguna	12	San Juan la Laguna	11	Noviembre	2023-07-11T00:00:00	2024-11-08T22:00:00	2	Temperatura media	21.7
87842	7	Sololá	717	San Juan la Laguna	12	San Juan la Laguna	11	Noviembre	2023-07-11T00:00:00	2024-11-08T22:00:00	4	Temperatura máxima	22.2
87843	7	Sololá	717	San Juan la Laguna	12	San Juan la Laguna	11	Noviembre	2023-07-11T00:00:00	2024-11-08T22:00:00	3	Temperatura mínima	21.7
87844	7	Sololá	717	San Juan la Laguna	12	San Juan la Laguna	11	Noviembre	2023-07-11T00:00:00	2024-11-08T22:00:00	5	Humedad	69
87845	7	Sololá	717	San Juan la Laguna	12	San Juan la Laguna	11	Noviembre	2023-07-11T00:00:00	2024-11-08T22:00:00	6	Velocidad del viento	4.8
87846	7	Sololá	717	San Juan la Laguna	12	San Juan la Laguna	11	Noviembre	2023-07-11T00:00:00	2024-11-08T22:00:00	7	Dirección del viento	4.83
87847	7	Sololá	717	San Juan la Laguna	12	San Juan la Laguna	11	Noviembre	2023-07-11T00:00:00	2024-11-08T22:00:00	1	Precipitación	0
87848	7	Sololá	717	San Juan la Laguna	12	San Juan la Laguna	11	Noviembre	2023-07-11T00:00:00	2024-11-08T22:00:00	8	Radiación solar	0
87849	7	Sololá	717	San Juan la Laguna	12	San Juan la Laguna	11	Noviembre	2023-07-11T00:00:00	2024-11-08T23:00:00	2	Temperatura media	22
87850	7	Sololá	717	San Juan la Laguna	12	San Juan la Laguna	11	Noviembre	2023-07-11T00:00:00	2024-11-08T23:00:00	4	Temperatura máxima	22
87851	7	Sololá	717	San Juan la Laguna	12	San Juan la Laguna	11	Noviembre	2023-07-11T00:00:00	2024-11-08T23:00:00	3	Temperatura mínima	21.6
87852	7	Sololá	717	San Juan la Laguna	12	San Juan la Laguna	11	Noviembre	2023-07-11T00:00:00	2024-11-08T23:00:00	5	Humedad	66
87853	7	Sololá	717	San Juan la Laguna	12	San Juan la Laguna	11	Noviembre	2023-07-11T00:00:00	2024-11-08T23:00:00	6	Velocidad del viento	4.8
87854	7	Sololá	717	San Juan la Laguna	12	San Juan la Laguna	11	Noviembre	2023-07-11T00:00:00	2024-11-08T23:00:00	7	Dirección del viento	4.83
87855	7	Sololá	717	San Juan la Laguna	12	San Juan la Laguna	11	Noviembre	2023-07-11T00:00:00	2024-11-08T23:00:00	1	Precipitación	0
87856	7	Sololá	717	San Juan la Laguna	12	San Juan la Laguna	11	Noviembre	2023-07-11T00:00:00	2024-11-08T23:00:00	8	Radiación solar	0
87857	7	Sololá	717	San Juan la Laguna	12	San Juan la Laguna	11	Noviembre	2023-08-11T00:00:00	2024-11-08T00:00:00	2	Temperatura media	21.6
87858	7	Sololá	717	San Juan la Laguna	12	San Juan la Laguna	11	Noviembre	2023-08-11T00:00:00	2024-11-08T00:00:00	4	Temperatura máxima	22.2
87859	7	Sololá	717	San Juan la Laguna	12	San Juan la Laguna	11	Noviembre	2023-08-11T00:00:00	2024-11-08T00:00:00	3	Temperatura mínima	21.6
87860	7	Sololá	717	San Juan la Laguna	12	San Juan la Laguna	11	Noviembre	2023-08-11T00:00:00	2024-11-08T00:00:00	5	Humedad	68
87861	7	Sololá	717	San Juan la Laguna	12	San Juan la Laguna	11	Noviembre	2023-08-11T00:00:00	2024-11-08T00:00:00	6	Velocidad del viento	6.4
87862	7	Sololá	717	San Juan la Laguna	12	San Juan la Laguna	11	Noviembre	2023-08-11T00:00:00	2024-11-08T00:00:00	7	Dirección del viento	6.44
87863	7	Sololá	717	San Juan la Laguna	12	San Juan la Laguna	11	Noviembre	2023-08-11T00:00:00	2024-11-08T00:00:00	1	Precipitación	0
87864	7	Sololá	717	San Juan la Laguna	12	San Juan la Laguna	11	Noviembre	2023-08-11T00:00:00	2024-11-08T00:00:00	8	Radiación solar	0
87865	7	Sololá	717	San Juan la Laguna	12	San Juan la Laguna	11	Noviembre	2023-08-11T00:00:00	2024-11-08T01:00:00	2	Temperatura media	22.1
87866	7	Sololá	717	San Juan la Laguna	12	San Juan la Laguna	11	Noviembre	2023-08-11T00:00:00	2024-11-08T01:00:00	4	Temperatura máxima	22.1
87867	7	Sololá	717	San Juan la Laguna	12	San Juan la Laguna	11	Noviembre	2023-08-11T00:00:00	2024-11-08T01:00:00	3	Temperatura mínima	21.5
87868	7	Sololá	717	San Juan la Laguna	12	San Juan la Laguna	11	Noviembre	2023-08-11T00:00:00	2024-11-08T01:00:00	5	Humedad	65
87869	7	Sololá	717	San Juan la Laguna	12	San Juan la Laguna	11	Noviembre	2023-08-11T00:00:00	2024-11-08T01:00:00	6	Velocidad del viento	3.2
87870	7	Sololá	717	San Juan la Laguna	12	San Juan la Laguna	11	Noviembre	2023-08-11T00:00:00	2024-11-08T01:00:00	7	Dirección del viento	3.22
87871	7	Sololá	717	San Juan la Laguna	12	San Juan la Laguna	11	Noviembre	2023-08-11T00:00:00	2024-11-08T01:00:00	1	Precipitación	0
87872	7	Sololá	717	San Juan la Laguna	12	San Juan la Laguna	11	Noviembre	2023-08-11T00:00:00	2024-11-08T01:00:00	8	Radiación solar	0
87873	7	Sololá	717	San Juan la Laguna	12	San Juan la Laguna	11	Noviembre	2023-08-11T00:00:00	2024-11-08T02:00:00	2	Temperatura media	21.6
87874	7	Sololá	717	San Juan la Laguna	12	San Juan la Laguna	11	Noviembre	2023-08-11T00:00:00	2024-11-08T02:00:00	4	Temperatura máxima	22.2
87875	7	Sololá	717	San Juan la Laguna	12	San Juan la Laguna	11	Noviembre	2023-08-11T00:00:00	2024-11-08T02:00:00	3	Temperatura mínima	21.6
87876	7	Sololá	717	San Juan la Laguna	12	San Juan la Laguna	11	Noviembre	2023-08-11T00:00:00	2024-11-08T02:00:00	5	Humedad	66
87877	7	Sololá	717	San Juan la Laguna	12	San Juan la Laguna	11	Noviembre	2023-08-11T00:00:00	2024-11-08T02:00:00	6	Velocidad del viento	4.8
87878	7	Sololá	717	San Juan la Laguna	12	San Juan la Laguna	11	Noviembre	2023-08-11T00:00:00	2024-11-08T02:00:00	7	Dirección del viento	4.83
87879	7	Sololá	717	San Juan la Laguna	12	San Juan la Laguna	11	Noviembre	2023-08-11T00:00:00	2024-11-08T02:00:00	1	Precipitación	0
87880	7	Sololá	717	San Juan la Laguna	12	San Juan la Laguna	11	Noviembre	2023-08-11T00:00:00	2024-11-08T02:00:00	8	Radiación solar	0
87881	7	Sololá	717	San Juan la Laguna	12	San Juan la Laguna	11	Noviembre	2023-08-11T00:00:00	2024-11-08T03:00:00	2	Temperatura media	19.5
87882	7	Sololá	717	San Juan la Laguna	12	San Juan la Laguna	11	Noviembre	2023-08-11T00:00:00	2024-11-08T03:00:00	4	Temperatura máxima	21.6
87883	7	Sololá	717	San Juan la Laguna	12	San Juan la Laguna	11	Noviembre	2023-08-11T00:00:00	2024-11-08T03:00:00	3	Temperatura mínima	19.5
87884	7	Sololá	717	San Juan la Laguna	12	San Juan la Laguna	11	Noviembre	2023-08-11T00:00:00	2024-11-08T03:00:00	5	Humedad	74
87885	7	Sololá	717	San Juan la Laguna	12	San Juan la Laguna	11	Noviembre	2023-08-11T00:00:00	2024-11-08T03:00:00	6	Velocidad del viento	0
87886	7	Sololá	717	San Juan la Laguna	12	San Juan la Laguna	11	Noviembre	2023-08-11T00:00:00	2024-11-08T03:00:00	7	Dirección del viento	0
87887	7	Sololá	717	San Juan la Laguna	12	San Juan la Laguna	11	Noviembre	2023-08-11T00:00:00	2024-11-08T03:00:00	1	Precipitación	0
87888	7	Sololá	717	San Juan la Laguna	12	San Juan la Laguna	11	Noviembre	2023-08-11T00:00:00	2024-11-08T03:00:00	8	Radiación solar	0
87889	7	Sololá	717	San Juan la Laguna	12	San Juan la Laguna	11	Noviembre	2023-08-11T00:00:00	2024-11-08T04:00:00	2	Temperatura media	18.7
87890	7	Sololá	717	San Juan la Laguna	12	San Juan la Laguna	11	Noviembre	2023-08-11T00:00:00	2024-11-08T04:00:00	4	Temperatura máxima	20.1
87891	7	Sololá	717	San Juan la Laguna	12	San Juan la Laguna	11	Noviembre	2023-08-11T00:00:00	2024-11-08T04:00:00	3	Temperatura mínima	18.7
87892	7	Sololá	717	San Juan la Laguna	12	San Juan la Laguna	11	Noviembre	2023-08-11T00:00:00	2024-11-08T04:00:00	5	Humedad	76
87893	7	Sololá	717	San Juan la Laguna	12	San Juan la Laguna	11	Noviembre	2023-08-11T00:00:00	2024-11-08T04:00:00	6	Velocidad del viento	0
87894	7	Sololá	717	San Juan la Laguna	12	San Juan la Laguna	11	Noviembre	2023-08-11T00:00:00	2024-11-08T04:00:00	7	Dirección del viento	0
87895	7	Sololá	717	San Juan la Laguna	12	San Juan la Laguna	11	Noviembre	2023-08-11T00:00:00	2024-11-08T04:00:00	1	Precipitación	0
87896	7	Sololá	717	San Juan la Laguna	12	San Juan la Laguna	11	Noviembre	2023-08-11T00:00:00	2024-11-08T04:00:00	8	Radiación solar	0
87897	7	Sololá	717	San Juan la Laguna	12	San Juan la Laguna	11	Noviembre	2023-08-11T00:00:00	2024-11-08T05:00:00	2	Temperatura media	17.7
87898	7	Sololá	717	San Juan la Laguna	12	San Juan la Laguna	11	Noviembre	2023-08-11T00:00:00	2024-11-08T05:00:00	4	Temperatura máxima	18.7
87899	7	Sololá	717	San Juan la Laguna	12	San Juan la Laguna	11	Noviembre	2023-08-11T00:00:00	2024-11-08T05:00:00	3	Temperatura mínima	17.5
87900	7	Sololá	717	San Juan la Laguna	12	San Juan la Laguna	11	Noviembre	2023-08-11T00:00:00	2024-11-08T05:00:00	5	Humedad	79
87901	7	Sololá	717	San Juan la Laguna	12	San Juan la Laguna	11	Noviembre	2023-08-11T00:00:00	2024-11-08T05:00:00	6	Velocidad del viento	0
87902	7	Sololá	717	San Juan la Laguna	12	San Juan la Laguna	11	Noviembre	2023-08-11T00:00:00	2024-11-08T05:00:00	7	Dirección del viento	0
87903	7	Sololá	717	San Juan la Laguna	12	San Juan la Laguna	11	Noviembre	2023-08-11T00:00:00	2024-11-08T05:00:00	1	Precipitación	0
87904	7	Sololá	717	San Juan la Laguna	12	San Juan la Laguna	11	Noviembre	2023-08-11T00:00:00	2024-11-08T05:00:00	8	Radiación solar	0
87905	7	Sololá	717	San Juan la Laguna	12	San Juan la Laguna	11	Noviembre	2023-08-11T00:00:00	2024-11-08T06:00:00	2	Temperatura media	18
87906	7	Sololá	717	San Juan la Laguna	12	San Juan la Laguna	11	Noviembre	2023-08-11T00:00:00	2024-11-08T06:00:00	4	Temperatura máxima	18
87907	7	Sololá	717	San Juan la Laguna	12	San Juan la Laguna	11	Noviembre	2023-08-11T00:00:00	2024-11-08T06:00:00	3	Temperatura mínima	17.6
87908	7	Sololá	717	San Juan la Laguna	12	San Juan la Laguna	11	Noviembre	2023-08-11T00:00:00	2024-11-08T06:00:00	5	Humedad	79
87909	7	Sololá	717	San Juan la Laguna	12	San Juan la Laguna	11	Noviembre	2023-08-11T00:00:00	2024-11-08T06:00:00	6	Velocidad del viento	0
87910	7	Sololá	717	San Juan la Laguna	12	San Juan la Laguna	11	Noviembre	2023-08-11T00:00:00	2024-11-08T06:00:00	7	Dirección del viento	0
87911	7	Sololá	717	San Juan la Laguna	12	San Juan la Laguna	11	Noviembre	2023-08-11T00:00:00	2024-11-08T06:00:00	1	Precipitación	0
87912	7	Sololá	717	San Juan la Laguna	12	San Juan la Laguna	11	Noviembre	2023-08-11T00:00:00	2024-11-08T06:00:00	8	Radiación solar	0
87913	7	Sololá	717	San Juan la Laguna	12	San Juan la Laguna	11	Noviembre	2023-08-11T00:00:00	2024-11-08T07:00:00	2	Temperatura media	18.2
87914	7	Sololá	717	San Juan la Laguna	12	San Juan la Laguna	11	Noviembre	2023-08-11T00:00:00	2024-11-08T07:00:00	4	Temperatura máxima	18.2
87915	7	Sololá	717	San Juan la Laguna	12	San Juan la Laguna	11	Noviembre	2023-08-11T00:00:00	2024-11-08T07:00:00	3	Temperatura mínima	17.8
87916	7	Sololá	717	San Juan la Laguna	12	San Juan la Laguna	11	Noviembre	2023-08-11T00:00:00	2024-11-08T07:00:00	5	Humedad	82
87917	7	Sololá	717	San Juan la Laguna	12	San Juan la Laguna	11	Noviembre	2023-08-11T00:00:00	2024-11-08T07:00:00	6	Velocidad del viento	0
87918	7	Sololá	717	San Juan la Laguna	12	San Juan la Laguna	11	Noviembre	2023-08-11T00:00:00	2024-11-08T07:00:00	7	Dirección del viento	0
87919	7	Sololá	717	San Juan la Laguna	12	San Juan la Laguna	11	Noviembre	2023-08-11T00:00:00	2024-11-08T07:00:00	1	Precipitación	0
87920	7	Sololá	717	San Juan la Laguna	12	San Juan la Laguna	11	Noviembre	2023-08-11T00:00:00	2024-11-08T07:00:00	8	Radiación solar	27
87921	7	Sololá	717	San Juan la Laguna	12	San Juan la Laguna	11	Noviembre	2023-08-11T00:00:00	2024-11-08T08:00:00	2	Temperatura media	19.8
87922	7	Sololá	717	San Juan la Laguna	12	San Juan la Laguna	11	Noviembre	2023-08-11T00:00:00	2024-11-08T08:00:00	4	Temperatura máxima	19.8
87923	7	Sololá	717	San Juan la Laguna	12	San Juan la Laguna	11	Noviembre	2023-08-11T00:00:00	2024-11-08T08:00:00	3	Temperatura mínima	18.2
87924	7	Sololá	717	San Juan la Laguna	12	San Juan la Laguna	11	Noviembre	2023-08-11T00:00:00	2024-11-08T08:00:00	5	Humedad	78
87925	7	Sololá	717	San Juan la Laguna	12	San Juan la Laguna	11	Noviembre	2023-08-11T00:00:00	2024-11-08T08:00:00	6	Velocidad del viento	0
87926	7	Sololá	717	San Juan la Laguna	12	San Juan la Laguna	11	Noviembre	2023-08-11T00:00:00	2024-11-08T08:00:00	7	Dirección del viento	0
87927	7	Sololá	717	San Juan la Laguna	12	San Juan la Laguna	11	Noviembre	2023-08-11T00:00:00	2024-11-08T08:00:00	1	Precipitación	0
87928	7	Sololá	717	San Juan la Laguna	12	San Juan la Laguna	11	Noviembre	2023-08-11T00:00:00	2024-11-08T08:00:00	8	Radiación solar	99
87929	7	Sololá	717	San Juan la Laguna	12	San Juan la Laguna	11	Noviembre	2023-08-11T00:00:00	2024-11-08T09:00:00	2	Temperatura media	22.6
87930	7	Sololá	717	San Juan la Laguna	12	San Juan la Laguna	11	Noviembre	2023-08-11T00:00:00	2024-11-08T09:00:00	4	Temperatura máxima	22.7
87931	7	Sololá	717	San Juan la Laguna	12	San Juan la Laguna	11	Noviembre	2023-08-11T00:00:00	2024-11-08T09:00:00	3	Temperatura mínima	19.8
87932	7	Sololá	717	San Juan la Laguna	12	San Juan la Laguna	11	Noviembre	2023-08-11T00:00:00	2024-11-08T09:00:00	5	Humedad	66
87933	7	Sololá	717	San Juan la Laguna	12	San Juan la Laguna	11	Noviembre	2023-08-11T00:00:00	2024-11-08T09:00:00	6	Velocidad del viento	0
87934	7	Sololá	717	San Juan la Laguna	12	San Juan la Laguna	11	Noviembre	2023-08-11T00:00:00	2024-11-08T09:00:00	7	Dirección del viento	0
87935	7	Sololá	717	San Juan la Laguna	12	San Juan la Laguna	11	Noviembre	2023-08-11T00:00:00	2024-11-08T09:00:00	1	Precipitación	0
87936	7	Sololá	717	San Juan la Laguna	12	San Juan la Laguna	11	Noviembre	2023-08-11T00:00:00	2024-11-08T09:00:00	8	Radiación solar	310
87937	7	Sololá	717	San Juan la Laguna	12	San Juan la Laguna	11	Noviembre	2023-08-11T00:00:00	2024-11-08T10:00:00	2	Temperatura media	24
87938	7	Sololá	717	San Juan la Laguna	12	San Juan la Laguna	11	Noviembre	2023-08-11T00:00:00	2024-11-08T10:00:00	4	Temperatura máxima	24
87939	7	Sololá	717	San Juan la Laguna	12	San Juan la Laguna	11	Noviembre	2023-08-11T00:00:00	2024-11-08T10:00:00	3	Temperatura mínima	22.3
87940	7	Sololá	717	San Juan la Laguna	12	San Juan la Laguna	11	Noviembre	2023-08-11T00:00:00	2024-11-08T10:00:00	5	Humedad	63
87941	7	Sololá	717	San Juan la Laguna	12	San Juan la Laguna	11	Noviembre	2023-08-11T00:00:00	2024-11-08T10:00:00	6	Velocidad del viento	1.6
87942	7	Sololá	717	San Juan la Laguna	12	San Juan la Laguna	11	Noviembre	2023-08-11T00:00:00	2024-11-08T10:00:00	7	Dirección del viento	1.61
87943	7	Sololá	717	San Juan la Laguna	12	San Juan la Laguna	11	Noviembre	2023-08-11T00:00:00	2024-11-08T10:00:00	1	Precipitación	0
87944	7	Sololá	717	San Juan la Laguna	12	San Juan la Laguna	11	Noviembre	2023-08-11T00:00:00	2024-11-08T10:00:00	8	Radiación solar	616
87945	7	Sololá	717	San Juan la Laguna	12	San Juan la Laguna	11	Noviembre	2023-08-11T00:00:00	2024-11-08T11:00:00	2	Temperatura media	25
87946	7	Sololá	717	San Juan la Laguna	12	San Juan la Laguna	11	Noviembre	2023-08-11T00:00:00	2024-11-08T11:00:00	4	Temperatura máxima	25
87947	7	Sololá	717	San Juan la Laguna	12	San Juan la Laguna	11	Noviembre	2023-08-11T00:00:00	2024-11-08T11:00:00	3	Temperatura mínima	24
87948	7	Sololá	717	San Juan la Laguna	12	San Juan la Laguna	11	Noviembre	2023-08-11T00:00:00	2024-11-08T11:00:00	5	Humedad	59
87949	7	Sololá	717	San Juan la Laguna	12	San Juan la Laguna	11	Noviembre	2023-08-11T00:00:00	2024-11-08T11:00:00	6	Velocidad del viento	1.6
87950	7	Sololá	717	San Juan la Laguna	12	San Juan la Laguna	11	Noviembre	2023-08-11T00:00:00	2024-11-08T11:00:00	7	Dirección del viento	1.61
87951	7	Sololá	717	San Juan la Laguna	12	San Juan la Laguna	11	Noviembre	2023-08-11T00:00:00	2024-11-08T11:00:00	1	Precipitación	0
87952	7	Sololá	717	San Juan la Laguna	12	San Juan la Laguna	11	Noviembre	2023-08-11T00:00:00	2024-11-08T11:00:00	8	Radiación solar	627
87953	7	Sololá	717	San Juan la Laguna	12	San Juan la Laguna	11	Noviembre	2023-08-11T00:00:00	2024-11-08T12:00:00	2	Temperatura media	25.7
87954	7	Sololá	717	San Juan la Laguna	12	San Juan la Laguna	11	Noviembre	2023-08-11T00:00:00	2024-11-08T12:00:00	4	Temperatura máxima	25.9
87955	7	Sololá	717	San Juan la Laguna	12	San Juan la Laguna	11	Noviembre	2023-08-11T00:00:00	2024-11-08T12:00:00	3	Temperatura mínima	24.3
87956	7	Sololá	717	San Juan la Laguna	12	San Juan la Laguna	11	Noviembre	2023-08-11T00:00:00	2024-11-08T12:00:00	5	Humedad	59
87957	7	Sololá	717	San Juan la Laguna	12	San Juan la Laguna	11	Noviembre	2023-08-11T00:00:00	2024-11-08T12:00:00	6	Velocidad del viento	1.6
87958	7	Sololá	717	San Juan la Laguna	12	San Juan la Laguna	11	Noviembre	2023-08-11T00:00:00	2024-11-08T12:00:00	7	Dirección del viento	1.61
87959	7	Sololá	717	San Juan la Laguna	12	San Juan la Laguna	11	Noviembre	2023-08-11T00:00:00	2024-11-08T12:00:00	1	Precipitación	0
87960	7	Sololá	717	San Juan la Laguna	12	San Juan la Laguna	11	Noviembre	2023-08-11T00:00:00	2024-11-08T12:00:00	8	Radiación solar	445
87961	7	Sololá	717	San Juan la Laguna	12	San Juan la Laguna	11	Noviembre	2023-08-11T00:00:00	2024-11-08T13:00:00	2	Temperatura media	25.9
87962	7	Sololá	717	San Juan la Laguna	12	San Juan la Laguna	11	Noviembre	2023-08-11T00:00:00	2024-11-08T13:00:00	4	Temperatura máxima	25.9
87963	7	Sololá	717	San Juan la Laguna	12	San Juan la Laguna	11	Noviembre	2023-08-11T00:00:00	2024-11-08T13:00:00	3	Temperatura mínima	24.4
87964	7	Sololá	717	San Juan la Laguna	12	San Juan la Laguna	11	Noviembre	2023-08-11T00:00:00	2024-11-08T13:00:00	5	Humedad	59
87965	7	Sololá	717	San Juan la Laguna	12	San Juan la Laguna	11	Noviembre	2023-08-11T00:00:00	2024-11-08T13:00:00	6	Velocidad del viento	1.6
87966	7	Sololá	717	San Juan la Laguna	12	San Juan la Laguna	11	Noviembre	2023-08-11T00:00:00	2024-11-08T13:00:00	7	Dirección del viento	1.61
87967	7	Sololá	717	San Juan la Laguna	12	San Juan la Laguna	11	Noviembre	2023-08-11T00:00:00	2024-11-08T13:00:00	1	Precipitación	0
87968	7	Sololá	717	San Juan la Laguna	12	San Juan la Laguna	11	Noviembre	2023-08-11T00:00:00	2024-11-08T13:00:00	8	Radiación solar	392
87969	7	Sololá	717	San Juan la Laguna	12	San Juan la Laguna	11	Noviembre	2023-08-11T00:00:00	2024-11-08T14:00:00	2	Temperatura media	25.3
87970	7	Sololá	717	San Juan la Laguna	12	San Juan la Laguna	11	Noviembre	2023-08-11T00:00:00	2024-11-08T14:00:00	4	Temperatura máxima	26.3
87971	7	Sololá	717	San Juan la Laguna	12	San Juan la Laguna	11	Noviembre	2023-08-11T00:00:00	2024-11-08T14:00:00	3	Temperatura mínima	25.3
87972	7	Sololá	717	San Juan la Laguna	12	San Juan la Laguna	11	Noviembre	2023-08-11T00:00:00	2024-11-08T14:00:00	5	Humedad	60
87973	7	Sololá	717	San Juan la Laguna	12	San Juan la Laguna	11	Noviembre	2023-08-11T00:00:00	2024-11-08T14:00:00	6	Velocidad del viento	1.6
87974	7	Sololá	717	San Juan la Laguna	12	San Juan la Laguna	11	Noviembre	2023-08-11T00:00:00	2024-11-08T14:00:00	7	Dirección del viento	1.61
87975	7	Sololá	717	San Juan la Laguna	12	San Juan la Laguna	11	Noviembre	2023-08-11T00:00:00	2024-11-08T14:00:00	1	Precipitación	0
87976	7	Sololá	717	San Juan la Laguna	12	San Juan la Laguna	11	Noviembre	2023-08-11T00:00:00	2024-11-08T14:00:00	8	Radiación solar	372
87977	7	Sololá	717	San Juan la Laguna	12	San Juan la Laguna	11	Noviembre	2023-08-11T00:00:00	2024-11-08T15:00:00	2	Temperatura media	24.4
87978	7	Sololá	717	San Juan la Laguna	12	San Juan la Laguna	11	Noviembre	2023-08-11T00:00:00	2024-11-08T15:00:00	4	Temperatura máxima	26.1
87979	7	Sololá	717	San Juan la Laguna	12	San Juan la Laguna	11	Noviembre	2023-08-11T00:00:00	2024-11-08T15:00:00	3	Temperatura mínima	24.4
87980	7	Sololá	717	San Juan la Laguna	12	San Juan la Laguna	11	Noviembre	2023-08-11T00:00:00	2024-11-08T15:00:00	5	Humedad	69
87981	7	Sololá	717	San Juan la Laguna	12	San Juan la Laguna	11	Noviembre	2023-08-11T00:00:00	2024-11-08T15:00:00	6	Velocidad del viento	0
87982	7	Sololá	717	San Juan la Laguna	12	San Juan la Laguna	11	Noviembre	2023-08-11T00:00:00	2024-11-08T15:00:00	7	Dirección del viento	0
87983	7	Sololá	717	San Juan la Laguna	12	San Juan la Laguna	11	Noviembre	2023-08-11T00:00:00	2024-11-08T15:00:00	1	Precipitación	0
87984	7	Sololá	717	San Juan la Laguna	12	San Juan la Laguna	11	Noviembre	2023-08-11T00:00:00	2024-11-08T15:00:00	8	Radiación solar	304
87985	7	Sololá	717	San Juan la Laguna	12	San Juan la Laguna	11	Noviembre	2023-08-11T00:00:00	2024-11-08T16:00:00	2	Temperatura media	23.8
87986	7	Sololá	717	San Juan la Laguna	12	San Juan la Laguna	11	Noviembre	2023-08-11T00:00:00	2024-11-08T16:00:00	4	Temperatura máxima	24.8
87987	7	Sololá	717	San Juan la Laguna	12	San Juan la Laguna	11	Noviembre	2023-08-11T00:00:00	2024-11-08T16:00:00	3	Temperatura mínima	23.8
87988	7	Sololá	717	San Juan la Laguna	12	San Juan la Laguna	11	Noviembre	2023-08-11T00:00:00	2024-11-08T16:00:00	5	Humedad	72
87989	7	Sololá	717	San Juan la Laguna	12	San Juan la Laguna	11	Noviembre	2023-08-11T00:00:00	2024-11-08T16:00:00	6	Velocidad del viento	0
87990	7	Sololá	717	San Juan la Laguna	12	San Juan la Laguna	11	Noviembre	2023-08-11T00:00:00	2024-11-08T16:00:00	7	Dirección del viento	0
87991	7	Sololá	717	San Juan la Laguna	12	San Juan la Laguna	11	Noviembre	2023-08-11T00:00:00	2024-11-08T16:00:00	1	Precipitación	0
87992	7	Sololá	717	San Juan la Laguna	12	San Juan la Laguna	11	Noviembre	2023-08-11T00:00:00	2024-11-08T16:00:00	8	Radiación solar	269
87993	7	Sololá	717	San Juan la Laguna	12	San Juan la Laguna	11	Noviembre	2023-08-11T00:00:00	2024-11-08T17:00:00	2	Temperatura media	23.1
87994	7	Sololá	717	San Juan la Laguna	12	San Juan la Laguna	11	Noviembre	2023-08-11T00:00:00	2024-11-08T17:00:00	4	Temperatura máxima	23.8
87995	7	Sololá	717	San Juan la Laguna	12	San Juan la Laguna	11	Noviembre	2023-08-11T00:00:00	2024-11-08T17:00:00	3	Temperatura mínima	23.1
87996	7	Sololá	717	San Juan la Laguna	12	San Juan la Laguna	11	Noviembre	2023-08-11T00:00:00	2024-11-08T17:00:00	5	Humedad	74
87997	7	Sololá	717	San Juan la Laguna	12	San Juan la Laguna	11	Noviembre	2023-08-11T00:00:00	2024-11-08T17:00:00	6	Velocidad del viento	0
87998	7	Sololá	717	San Juan la Laguna	12	San Juan la Laguna	11	Noviembre	2023-08-11T00:00:00	2024-11-08T17:00:00	7	Dirección del viento	0
87999	7	Sololá	717	San Juan la Laguna	12	San Juan la Laguna	11	Noviembre	2023-08-11T00:00:00	2024-11-08T17:00:00	1	Precipitación	0
88000	7	Sololá	717	San Juan la Laguna	12	San Juan la Laguna	11	Noviembre	2023-08-11T00:00:00	2024-11-08T17:00:00	8	Radiación solar	100
88001	7	Sololá	717	San Juan la Laguna	12	San Juan la Laguna	11	Noviembre	2023-08-11T00:00:00	2024-11-08T18:00:00	2	Temperatura media	21.7
88002	7	Sololá	717	San Juan la Laguna	12	San Juan la Laguna	11	Noviembre	2023-08-11T00:00:00	2024-11-08T18:00:00	4	Temperatura máxima	23.1
88003	7	Sololá	717	San Juan la Laguna	12	San Juan la Laguna	11	Noviembre	2023-08-11T00:00:00	2024-11-08T18:00:00	3	Temperatura mínima	21.7
88004	7	Sololá	717	San Juan la Laguna	12	San Juan la Laguna	11	Noviembre	2023-08-11T00:00:00	2024-11-08T18:00:00	5	Humedad	81
88005	7	Sololá	717	San Juan la Laguna	12	San Juan la Laguna	11	Noviembre	2023-08-11T00:00:00	2024-11-08T18:00:00	6	Velocidad del viento	0
88006	7	Sololá	717	San Juan la Laguna	12	San Juan la Laguna	11	Noviembre	2023-08-11T00:00:00	2024-11-08T18:00:00	7	Dirección del viento	0
88007	7	Sololá	717	San Juan la Laguna	12	San Juan la Laguna	11	Noviembre	2023-08-11T00:00:00	2024-11-08T18:00:00	1	Precipitación	0
88008	7	Sololá	717	San Juan la Laguna	12	San Juan la Laguna	11	Noviembre	2023-08-11T00:00:00	2024-11-08T18:00:00	8	Radiación solar	18
88009	7	Sololá	717	San Juan la Laguna	12	San Juan la Laguna	11	Noviembre	2023-08-11T00:00:00	2024-11-08T19:00:00	2	Temperatura media	19.7
88010	7	Sololá	717	San Juan la Laguna	12	San Juan la Laguna	11	Noviembre	2023-08-11T00:00:00	2024-11-08T19:00:00	4	Temperatura máxima	21.7
88011	7	Sololá	717	San Juan la Laguna	12	San Juan la Laguna	11	Noviembre	2023-08-11T00:00:00	2024-11-08T19:00:00	3	Temperatura mínima	19.7
88012	7	Sololá	717	San Juan la Laguna	12	San Juan la Laguna	11	Noviembre	2023-08-11T00:00:00	2024-11-08T19:00:00	5	Humedad	86
88013	7	Sololá	717	San Juan la Laguna	12	San Juan la Laguna	11	Noviembre	2023-08-11T00:00:00	2024-11-08T19:00:00	6	Velocidad del viento	0
88014	7	Sololá	717	San Juan la Laguna	12	San Juan la Laguna	11	Noviembre	2023-08-11T00:00:00	2024-11-08T19:00:00	7	Dirección del viento	0
88015	7	Sololá	717	San Juan la Laguna	12	San Juan la Laguna	11	Noviembre	2023-08-11T00:00:00	2024-11-08T19:00:00	1	Precipitación	0
88016	7	Sololá	717	San Juan la Laguna	12	San Juan la Laguna	11	Noviembre	2023-08-11T00:00:00	2024-11-08T19:00:00	8	Radiación solar	0
88017	7	Sololá	717	San Juan la Laguna	12	San Juan la Laguna	11	Noviembre	2023-08-11T00:00:00	2024-11-08T20:00:00	2	Temperatura media	18.9
88018	7	Sololá	717	San Juan la Laguna	12	San Juan la Laguna	11	Noviembre	2023-08-11T00:00:00	2024-11-08T20:00:00	4	Temperatura máxima	19.7
88019	7	Sololá	717	San Juan la Laguna	12	San Juan la Laguna	11	Noviembre	2023-08-11T00:00:00	2024-11-08T20:00:00	3	Temperatura mínima	18.8
88020	7	Sololá	717	San Juan la Laguna	12	San Juan la Laguna	11	Noviembre	2023-08-11T00:00:00	2024-11-08T20:00:00	5	Humedad	87
88021	7	Sololá	717	San Juan la Laguna	12	San Juan la Laguna	11	Noviembre	2023-08-11T00:00:00	2024-11-08T20:00:00	6	Velocidad del viento	0
88022	7	Sololá	717	San Juan la Laguna	12	San Juan la Laguna	11	Noviembre	2023-08-11T00:00:00	2024-11-08T20:00:00	7	Dirección del viento	0
88023	7	Sololá	717	San Juan la Laguna	12	San Juan la Laguna	11	Noviembre	2023-08-11T00:00:00	2024-11-08T20:00:00	1	Precipitación	0
88024	7	Sololá	717	San Juan la Laguna	12	San Juan la Laguna	11	Noviembre	2023-08-11T00:00:00	2024-11-08T20:00:00	8	Radiación solar	0
88025	7	Sololá	717	San Juan la Laguna	12	San Juan la Laguna	11	Noviembre	2023-08-11T00:00:00	2024-11-08T21:00:00	2	Temperatura media	18.1
88026	7	Sololá	717	San Juan la Laguna	12	San Juan la Laguna	11	Noviembre	2023-08-11T00:00:00	2024-11-08T21:00:00	4	Temperatura máxima	18.9
88027	7	Sololá	717	San Juan la Laguna	12	San Juan la Laguna	11	Noviembre	2023-08-11T00:00:00	2024-11-08T21:00:00	3	Temperatura mínima	18.1
88028	7	Sololá	717	San Juan la Laguna	12	San Juan la Laguna	11	Noviembre	2023-08-11T00:00:00	2024-11-08T21:00:00	5	Humedad	88
88029	7	Sololá	717	San Juan la Laguna	12	San Juan la Laguna	11	Noviembre	2023-08-11T00:00:00	2024-11-08T21:00:00	6	Velocidad del viento	0
88030	7	Sololá	717	San Juan la Laguna	12	San Juan la Laguna	11	Noviembre	2023-08-11T00:00:00	2024-11-08T21:00:00	7	Dirección del viento	0
88031	7	Sololá	717	San Juan la Laguna	12	San Juan la Laguna	11	Noviembre	2023-08-11T00:00:00	2024-11-08T21:00:00	1	Precipitación	0
88032	7	Sololá	717	San Juan la Laguna	12	San Juan la Laguna	11	Noviembre	2023-08-11T00:00:00	2024-11-08T21:00:00	8	Radiación solar	0
88033	7	Sololá	717	San Juan la Laguna	12	San Juan la Laguna	11	Noviembre	2023-08-11T00:00:00	2024-11-08T22:00:00	2	Temperatura media	17.8
88034	7	Sololá	717	San Juan la Laguna	12	San Juan la Laguna	11	Noviembre	2023-08-11T00:00:00	2024-11-08T22:00:00	4	Temperatura máxima	18.2
88035	7	Sololá	717	San Juan la Laguna	12	San Juan la Laguna	11	Noviembre	2023-08-11T00:00:00	2024-11-08T22:00:00	3	Temperatura mínima	17.7
88036	7	Sololá	717	San Juan la Laguna	12	San Juan la Laguna	11	Noviembre	2023-08-11T00:00:00	2024-11-08T22:00:00	5	Humedad	87
88037	7	Sololá	717	San Juan la Laguna	12	San Juan la Laguna	11	Noviembre	2023-08-11T00:00:00	2024-11-08T22:00:00	6	Velocidad del viento	0
88038	7	Sololá	717	San Juan la Laguna	12	San Juan la Laguna	11	Noviembre	2023-08-11T00:00:00	2024-11-08T22:00:00	7	Dirección del viento	0
88039	7	Sololá	717	San Juan la Laguna	12	San Juan la Laguna	11	Noviembre	2023-08-11T00:00:00	2024-11-08T22:00:00	1	Precipitación	0
88040	7	Sololá	717	San Juan la Laguna	12	San Juan la Laguna	11	Noviembre	2023-08-11T00:00:00	2024-11-08T22:00:00	8	Radiación solar	0
88041	7	Sololá	717	San Juan la Laguna	12	San Juan la Laguna	11	Noviembre	2023-08-11T00:00:00	2024-11-08T23:00:00	2	Temperatura media	17.5
88042	7	Sololá	717	San Juan la Laguna	12	San Juan la Laguna	11	Noviembre	2023-08-11T00:00:00	2024-11-08T23:00:00	4	Temperatura máxima	17.9
88043	7	Sololá	717	San Juan la Laguna	12	San Juan la Laguna	11	Noviembre	2023-08-11T00:00:00	2024-11-08T23:00:00	3	Temperatura mínima	17.5
88044	7	Sololá	717	San Juan la Laguna	12	San Juan la Laguna	11	Noviembre	2023-08-11T00:00:00	2024-11-08T23:00:00	5	Humedad	87
88045	7	Sololá	717	San Juan la Laguna	12	San Juan la Laguna	11	Noviembre	2023-08-11T00:00:00	2024-11-08T23:00:00	6	Velocidad del viento	0
88046	7	Sololá	717	San Juan la Laguna	12	San Juan la Laguna	11	Noviembre	2023-08-11T00:00:00	2024-11-08T23:00:00	7	Dirección del viento	0
88047	7	Sololá	717	San Juan la Laguna	12	San Juan la Laguna	11	Noviembre	2023-08-11T00:00:00	2024-11-08T23:00:00	1	Precipitación	0
88048	7	Sololá	717	San Juan la Laguna	12	San Juan la Laguna	11	Noviembre	2023-08-11T00:00:00	2024-11-08T23:00:00	8	Radiación solar	0
88049	7	Sololá	717	San Juan la Laguna	12	San Juan la Laguna	11	Noviembre	2023-09-11T00:00:00	2024-11-08T00:00:00	2	Temperatura media	17.4
88050	7	Sololá	717	San Juan la Laguna	12	San Juan la Laguna	11	Noviembre	2023-09-11T00:00:00	2024-11-08T00:00:00	4	Temperatura máxima	17.7
88051	7	Sololá	717	San Juan la Laguna	12	San Juan la Laguna	11	Noviembre	2023-09-11T00:00:00	2024-11-08T00:00:00	3	Temperatura mínima	17.4
88052	7	Sololá	717	San Juan la Laguna	12	San Juan la Laguna	11	Noviembre	2023-09-11T00:00:00	2024-11-08T00:00:00	5	Humedad	86
88053	7	Sololá	717	San Juan la Laguna	12	San Juan la Laguna	11	Noviembre	2023-09-11T00:00:00	2024-11-08T00:00:00	6	Velocidad del viento	0
88054	7	Sololá	717	San Juan la Laguna	12	San Juan la Laguna	11	Noviembre	2023-09-11T00:00:00	2024-11-08T00:00:00	7	Dirección del viento	0
88055	7	Sololá	717	San Juan la Laguna	12	San Juan la Laguna	11	Noviembre	2023-09-11T00:00:00	2024-11-08T00:00:00	1	Precipitación	0
88056	7	Sololá	717	San Juan la Laguna	12	San Juan la Laguna	11	Noviembre	2023-09-11T00:00:00	2024-11-08T00:00:00	8	Radiación solar	0
88057	7	Sololá	717	San Juan la Laguna	12	San Juan la Laguna	11	Noviembre	2023-09-11T00:00:00	2024-11-08T01:00:00	2	Temperatura media	16.9
88058	7	Sololá	717	San Juan la Laguna	12	San Juan la Laguna	11	Noviembre	2023-09-11T00:00:00	2024-11-08T01:00:00	4	Temperatura máxima	17.6
88059	7	Sololá	717	San Juan la Laguna	12	San Juan la Laguna	11	Noviembre	2023-09-11T00:00:00	2024-11-08T01:00:00	3	Temperatura mínima	16.9
88060	7	Sololá	717	San Juan la Laguna	12	San Juan la Laguna	11	Noviembre	2023-09-11T00:00:00	2024-11-08T01:00:00	5	Humedad	87
88061	7	Sololá	717	San Juan la Laguna	12	San Juan la Laguna	11	Noviembre	2023-09-11T00:00:00	2024-11-08T01:00:00	6	Velocidad del viento	0
88062	7	Sololá	717	San Juan la Laguna	12	San Juan la Laguna	11	Noviembre	2023-09-11T00:00:00	2024-11-08T01:00:00	7	Dirección del viento	0
88063	7	Sololá	717	San Juan la Laguna	12	San Juan la Laguna	11	Noviembre	2023-09-11T00:00:00	2024-11-08T01:00:00	1	Precipitación	0
88064	7	Sololá	717	San Juan la Laguna	12	San Juan la Laguna	11	Noviembre	2023-09-11T00:00:00	2024-11-08T01:00:00	8	Radiación solar	0
88065	7	Sololá	717	San Juan la Laguna	12	San Juan la Laguna	11	Noviembre	2023-09-11T00:00:00	2024-11-08T02:00:00	2	Temperatura media	16.7
88066	7	Sololá	717	San Juan la Laguna	12	San Juan la Laguna	11	Noviembre	2023-09-11T00:00:00	2024-11-08T02:00:00	4	Temperatura máxima	16.9
88067	7	Sololá	717	San Juan la Laguna	12	San Juan la Laguna	11	Noviembre	2023-09-11T00:00:00	2024-11-08T02:00:00	3	Temperatura mínima	16.6
88068	7	Sololá	717	San Juan la Laguna	12	San Juan la Laguna	11	Noviembre	2023-09-11T00:00:00	2024-11-08T02:00:00	5	Humedad	87
88069	7	Sololá	717	San Juan la Laguna	12	San Juan la Laguna	11	Noviembre	2023-09-11T00:00:00	2024-11-08T02:00:00	6	Velocidad del viento	0
88070	7	Sololá	717	San Juan la Laguna	12	San Juan la Laguna	11	Noviembre	2023-09-11T00:00:00	2024-11-08T02:00:00	7	Dirección del viento	0
88071	7	Sololá	717	San Juan la Laguna	12	San Juan la Laguna	11	Noviembre	2023-09-11T00:00:00	2024-11-08T02:00:00	1	Precipitación	0
88072	7	Sololá	717	San Juan la Laguna	12	San Juan la Laguna	11	Noviembre	2023-09-11T00:00:00	2024-11-08T02:00:00	8	Radiación solar	0
88073	7	Sololá	717	San Juan la Laguna	12	San Juan la Laguna	11	Noviembre	2023-09-11T00:00:00	2024-11-08T03:00:00	2	Temperatura media	16.3
88074	7	Sololá	717	San Juan la Laguna	12	San Juan la Laguna	11	Noviembre	2023-09-11T00:00:00	2024-11-08T03:00:00	4	Temperatura máxima	16.7
88075	7	Sololá	717	San Juan la Laguna	12	San Juan la Laguna	11	Noviembre	2023-09-11T00:00:00	2024-11-08T03:00:00	3	Temperatura mínima	16.3
88076	7	Sololá	717	San Juan la Laguna	12	San Juan la Laguna	11	Noviembre	2023-09-11T00:00:00	2024-11-08T03:00:00	5	Humedad	88
88077	7	Sololá	717	San Juan la Laguna	12	San Juan la Laguna	11	Noviembre	2023-09-11T00:00:00	2024-11-08T03:00:00	6	Velocidad del viento	0
88078	7	Sololá	717	San Juan la Laguna	12	San Juan la Laguna	11	Noviembre	2023-09-11T00:00:00	2024-11-08T03:00:00	7	Dirección del viento	0
88079	7	Sololá	717	San Juan la Laguna	12	San Juan la Laguna	11	Noviembre	2023-09-11T00:00:00	2024-11-08T03:00:00	1	Precipitación	0
88080	7	Sololá	717	San Juan la Laguna	12	San Juan la Laguna	11	Noviembre	2023-09-11T00:00:00	2024-11-08T03:00:00	8	Radiación solar	0
88081	7	Sololá	717	San Juan la Laguna	12	San Juan la Laguna	11	Noviembre	2023-09-11T00:00:00	2024-11-08T04:00:00	2	Temperatura media	16.2
88082	7	Sololá	717	San Juan la Laguna	12	San Juan la Laguna	11	Noviembre	2023-09-11T00:00:00	2024-11-08T04:00:00	4	Temperatura máxima	16.7
88083	7	Sololá	717	San Juan la Laguna	12	San Juan la Laguna	11	Noviembre	2023-09-11T00:00:00	2024-11-08T04:00:00	3	Temperatura mínima	16.2
88084	7	Sololá	717	San Juan la Laguna	12	San Juan la Laguna	11	Noviembre	2023-09-11T00:00:00	2024-11-08T04:00:00	5	Humedad	87
88085	7	Sololá	717	San Juan la Laguna	12	San Juan la Laguna	11	Noviembre	2023-09-11T00:00:00	2024-11-08T04:00:00	6	Velocidad del viento	0
88086	7	Sololá	717	San Juan la Laguna	12	San Juan la Laguna	11	Noviembre	2023-09-11T00:00:00	2024-11-08T04:00:00	7	Dirección del viento	0
88087	7	Sololá	717	San Juan la Laguna	12	San Juan la Laguna	11	Noviembre	2023-09-11T00:00:00	2024-11-08T04:00:00	1	Precipitación	0
88088	7	Sololá	717	San Juan la Laguna	12	San Juan la Laguna	11	Noviembre	2023-09-11T00:00:00	2024-11-08T04:00:00	8	Radiación solar	0
88089	7	Sololá	717	San Juan la Laguna	12	San Juan la Laguna	11	Noviembre	2023-09-11T00:00:00	2024-11-08T05:00:00	2	Temperatura media	16.2
88090	7	Sololá	717	San Juan la Laguna	12	San Juan la Laguna	11	Noviembre	2023-09-11T00:00:00	2024-11-08T05:00:00	4	Temperatura máxima	16.2
88091	7	Sololá	717	San Juan la Laguna	12	San Juan la Laguna	11	Noviembre	2023-09-11T00:00:00	2024-11-08T05:00:00	3	Temperatura mínima	15.7
88092	7	Sololá	717	San Juan la Laguna	12	San Juan la Laguna	11	Noviembre	2023-09-11T00:00:00	2024-11-08T05:00:00	5	Humedad	87
88093	7	Sololá	717	San Juan la Laguna	12	San Juan la Laguna	11	Noviembre	2023-09-11T00:00:00	2024-11-08T05:00:00	6	Velocidad del viento	0
88094	7	Sololá	717	San Juan la Laguna	12	San Juan la Laguna	11	Noviembre	2023-09-11T00:00:00	2024-11-08T05:00:00	7	Dirección del viento	0
88095	7	Sololá	717	San Juan la Laguna	12	San Juan la Laguna	11	Noviembre	2023-09-11T00:00:00	2024-11-08T05:00:00	1	Precipitación	0
88096	7	Sololá	717	San Juan la Laguna	12	San Juan la Laguna	11	Noviembre	2023-09-11T00:00:00	2024-11-08T05:00:00	8	Radiación solar	0
88097	7	Sololá	717	San Juan la Laguna	12	San Juan la Laguna	11	Noviembre	2023-09-11T00:00:00	2024-11-08T06:00:00	2	Temperatura media	15.7
88098	7	Sololá	717	San Juan la Laguna	12	San Juan la Laguna	11	Noviembre	2023-09-11T00:00:00	2024-11-08T06:00:00	4	Temperatura máxima	16.4
88099	7	Sololá	717	San Juan la Laguna	12	San Juan la Laguna	11	Noviembre	2023-09-11T00:00:00	2024-11-08T06:00:00	3	Temperatura mínima	15.7
88100	7	Sololá	717	San Juan la Laguna	12	San Juan la Laguna	11	Noviembre	2023-09-11T00:00:00	2024-11-08T06:00:00	5	Humedad	87
88101	7	Sololá	717	San Juan la Laguna	12	San Juan la Laguna	11	Noviembre	2023-09-11T00:00:00	2024-11-08T06:00:00	6	Velocidad del viento	0
88102	7	Sololá	717	San Juan la Laguna	12	San Juan la Laguna	11	Noviembre	2023-09-11T00:00:00	2024-11-08T06:00:00	7	Dirección del viento	0
88103	7	Sololá	717	San Juan la Laguna	12	San Juan la Laguna	11	Noviembre	2023-09-11T00:00:00	2024-11-08T06:00:00	1	Precipitación	0
88104	7	Sololá	717	San Juan la Laguna	12	San Juan la Laguna	11	Noviembre	2023-09-11T00:00:00	2024-11-08T06:00:00	8	Radiación solar	0
88105	7	Sololá	717	San Juan la Laguna	12	San Juan la Laguna	11	Noviembre	2023-09-11T00:00:00	2024-11-08T07:00:00	2	Temperatura media	15.7
88106	7	Sololá	717	San Juan la Laguna	12	San Juan la Laguna	11	Noviembre	2023-09-11T00:00:00	2024-11-08T07:00:00	4	Temperatura máxima	15.8
88107	7	Sololá	717	San Juan la Laguna	12	San Juan la Laguna	11	Noviembre	2023-09-11T00:00:00	2024-11-08T07:00:00	3	Temperatura mínima	15.6
88108	7	Sololá	717	San Juan la Laguna	12	San Juan la Laguna	11	Noviembre	2023-09-11T00:00:00	2024-11-08T07:00:00	5	Humedad	87
88109	7	Sololá	717	San Juan la Laguna	12	San Juan la Laguna	11	Noviembre	2023-09-11T00:00:00	2024-11-08T07:00:00	6	Velocidad del viento	0
88110	7	Sololá	717	San Juan la Laguna	12	San Juan la Laguna	11	Noviembre	2023-09-11T00:00:00	2024-11-08T07:00:00	7	Dirección del viento	0
88111	7	Sololá	717	San Juan la Laguna	12	San Juan la Laguna	11	Noviembre	2023-09-11T00:00:00	2024-11-08T07:00:00	1	Precipitación	0
88112	7	Sololá	717	San Juan la Laguna	12	San Juan la Laguna	11	Noviembre	2023-09-11T00:00:00	2024-11-08T07:00:00	8	Radiación solar	24
88113	7	Sololá	717	San Juan la Laguna	12	San Juan la Laguna	11	Noviembre	2023-09-11T00:00:00	2024-11-08T08:00:00	2	Temperatura media	19.7
88114	7	Sololá	717	San Juan la Laguna	12	San Juan la Laguna	11	Noviembre	2023-09-11T00:00:00	2024-11-08T08:00:00	4	Temperatura máxima	19.7
88115	7	Sololá	717	San Juan la Laguna	12	San Juan la Laguna	11	Noviembre	2023-09-11T00:00:00	2024-11-08T08:00:00	3	Temperatura mínima	15.7
88116	7	Sololá	717	San Juan la Laguna	12	San Juan la Laguna	11	Noviembre	2023-09-11T00:00:00	2024-11-08T08:00:00	5	Humedad	81
88117	7	Sololá	717	San Juan la Laguna	12	San Juan la Laguna	11	Noviembre	2023-09-11T00:00:00	2024-11-08T08:00:00	6	Velocidad del viento	0
88118	7	Sololá	717	San Juan la Laguna	12	San Juan la Laguna	11	Noviembre	2023-09-11T00:00:00	2024-11-08T08:00:00	7	Dirección del viento	0
88119	7	Sololá	717	San Juan la Laguna	12	San Juan la Laguna	11	Noviembre	2023-09-11T00:00:00	2024-11-08T08:00:00	1	Precipitación	0
88120	7	Sololá	717	San Juan la Laguna	12	San Juan la Laguna	11	Noviembre	2023-09-11T00:00:00	2024-11-08T08:00:00	8	Radiación solar	211
88121	7	Sololá	717	San Juan la Laguna	12	San Juan la Laguna	11	Noviembre	2023-09-11T00:00:00	2024-11-08T09:00:00	2	Temperatura media	21.2
88122	7	Sololá	717	San Juan la Laguna	12	San Juan la Laguna	11	Noviembre	2023-09-11T00:00:00	2024-11-08T09:00:00	4	Temperatura máxima	21.2
88123	7	Sololá	717	San Juan la Laguna	12	San Juan la Laguna	11	Noviembre	2023-09-11T00:00:00	2024-11-08T09:00:00	3	Temperatura mínima	19.7
88124	7	Sololá	717	San Juan la Laguna	12	San Juan la Laguna	11	Noviembre	2023-09-11T00:00:00	2024-11-08T09:00:00	5	Humedad	75
88125	7	Sololá	717	San Juan la Laguna	12	San Juan la Laguna	11	Noviembre	2023-09-11T00:00:00	2024-11-08T09:00:00	6	Velocidad del viento	0
88126	7	Sololá	717	San Juan la Laguna	12	San Juan la Laguna	11	Noviembre	2023-09-11T00:00:00	2024-11-08T09:00:00	7	Dirección del viento	0
88127	7	Sololá	717	San Juan la Laguna	12	San Juan la Laguna	11	Noviembre	2023-09-11T00:00:00	2024-11-08T09:00:00	1	Precipitación	0
88128	7	Sololá	717	San Juan la Laguna	12	San Juan la Laguna	11	Noviembre	2023-09-11T00:00:00	2024-11-08T09:00:00	8	Radiación solar	452
88129	7	Sololá	717	San Juan la Laguna	12	San Juan la Laguna	11	Noviembre	2023-09-11T00:00:00	2024-11-08T10:00:00	2	Temperatura media	21.7
88130	7	Sololá	717	San Juan la Laguna	12	San Juan la Laguna	11	Noviembre	2023-09-11T00:00:00	2024-11-08T10:00:00	4	Temperatura máxima	21.9
88131	7	Sololá	717	San Juan la Laguna	12	San Juan la Laguna	11	Noviembre	2023-09-11T00:00:00	2024-11-08T10:00:00	3	Temperatura mínima	21.1
88132	7	Sololá	717	San Juan la Laguna	12	San Juan la Laguna	11	Noviembre	2023-09-11T00:00:00	2024-11-08T10:00:00	5	Humedad	73
88133	7	Sololá	717	San Juan la Laguna	12	San Juan la Laguna	11	Noviembre	2023-09-11T00:00:00	2024-11-08T10:00:00	6	Velocidad del viento	0
88134	7	Sololá	717	San Juan la Laguna	12	San Juan la Laguna	11	Noviembre	2023-09-11T00:00:00	2024-11-08T10:00:00	7	Dirección del viento	0
88135	7	Sololá	717	San Juan la Laguna	12	San Juan la Laguna	11	Noviembre	2023-09-11T00:00:00	2024-11-08T10:00:00	1	Precipitación	0
88136	7	Sololá	717	San Juan la Laguna	12	San Juan la Laguna	11	Noviembre	2023-09-11T00:00:00	2024-11-08T10:00:00	8	Radiación solar	522
88137	7	Sololá	717	San Juan la Laguna	12	San Juan la Laguna	11	Noviembre	2023-09-11T00:00:00	2024-11-08T11:00:00	2	Temperatura media	22.9
88138	7	Sololá	717	San Juan la Laguna	12	San Juan la Laguna	11	Noviembre	2023-09-11T00:00:00	2024-11-08T11:00:00	4	Temperatura máxima	22.9
88139	7	Sololá	717	San Juan la Laguna	12	San Juan la Laguna	11	Noviembre	2023-09-11T00:00:00	2024-11-08T11:00:00	3	Temperatura mínima	21.7
88140	7	Sololá	717	San Juan la Laguna	12	San Juan la Laguna	11	Noviembre	2023-09-11T00:00:00	2024-11-08T11:00:00	5	Humedad	68
88141	7	Sololá	717	San Juan la Laguna	12	San Juan la Laguna	11	Noviembre	2023-09-11T00:00:00	2024-11-08T11:00:00	6	Velocidad del viento	1.6
88142	7	Sololá	717	San Juan la Laguna	12	San Juan la Laguna	11	Noviembre	2023-09-11T00:00:00	2024-11-08T11:00:00	7	Dirección del viento	1.61
88143	7	Sololá	717	San Juan la Laguna	12	San Juan la Laguna	11	Noviembre	2023-09-11T00:00:00	2024-11-08T11:00:00	1	Precipitación	0
88144	7	Sololá	717	San Juan la Laguna	12	San Juan la Laguna	11	Noviembre	2023-09-11T00:00:00	2024-11-08T11:00:00	8	Radiación solar	631
88145	7	Sololá	717	San Juan la Laguna	12	San Juan la Laguna	11	Noviembre	2023-09-11T00:00:00	2024-11-08T12:00:00	2	Temperatura media	23.7
88146	7	Sololá	717	San Juan la Laguna	12	San Juan la Laguna	11	Noviembre	2023-09-11T00:00:00	2024-11-08T12:00:00	4	Temperatura máxima	23.8
88147	7	Sololá	717	San Juan la Laguna	12	San Juan la Laguna	11	Noviembre	2023-09-11T00:00:00	2024-11-08T12:00:00	3	Temperatura mínima	22.9
88148	7	Sololá	717	San Juan la Laguna	12	San Juan la Laguna	11	Noviembre	2023-09-11T00:00:00	2024-11-08T12:00:00	5	Humedad	64
88149	7	Sololá	717	San Juan la Laguna	12	San Juan la Laguna	11	Noviembre	2023-09-11T00:00:00	2024-11-08T12:00:00	6	Velocidad del viento	1.6
88150	7	Sololá	717	San Juan la Laguna	12	San Juan la Laguna	11	Noviembre	2023-09-11T00:00:00	2024-11-08T12:00:00	7	Dirección del viento	1.61
88151	7	Sololá	717	San Juan la Laguna	12	San Juan la Laguna	11	Noviembre	2023-09-11T00:00:00	2024-11-08T12:00:00	1	Precipitación	0
88152	7	Sololá	717	San Juan la Laguna	12	San Juan la Laguna	11	Noviembre	2023-09-11T00:00:00	2024-11-08T12:00:00	8	Radiación solar	820
88153	7	Sololá	717	San Juan la Laguna	12	San Juan la Laguna	11	Noviembre	2023-09-11T00:00:00	2024-11-08T13:00:00	2	Temperatura media	24.3
88154	7	Sololá	717	San Juan la Laguna	12	San Juan la Laguna	11	Noviembre	2023-09-11T00:00:00	2024-11-08T13:00:00	4	Temperatura máxima	24.8
88155	7	Sololá	717	San Juan la Laguna	12	San Juan la Laguna	11	Noviembre	2023-09-11T00:00:00	2024-11-08T13:00:00	3	Temperatura mínima	23.7
88156	7	Sololá	717	San Juan la Laguna	12	San Juan la Laguna	11	Noviembre	2023-09-11T00:00:00	2024-11-08T13:00:00	5	Humedad	66
88157	7	Sololá	717	San Juan la Laguna	12	San Juan la Laguna	11	Noviembre	2023-09-11T00:00:00	2024-11-08T13:00:00	6	Velocidad del viento	1.6
88158	7	Sololá	717	San Juan la Laguna	12	San Juan la Laguna	11	Noviembre	2023-09-11T00:00:00	2024-11-08T13:00:00	7	Dirección del viento	1.61
88159	7	Sololá	717	San Juan la Laguna	12	San Juan la Laguna	11	Noviembre	2023-09-11T00:00:00	2024-11-08T13:00:00	1	Precipitación	0
88160	7	Sololá	717	San Juan la Laguna	12	San Juan la Laguna	11	Noviembre	2023-09-11T00:00:00	2024-11-08T13:00:00	8	Radiación solar	822
88161	7	Sololá	717	San Juan la Laguna	12	San Juan la Laguna	11	Noviembre	2023-09-11T00:00:00	2024-11-08T14:00:00	2	Temperatura media	24.8
88162	7	Sololá	717	San Juan la Laguna	12	San Juan la Laguna	11	Noviembre	2023-09-11T00:00:00	2024-11-08T14:00:00	4	Temperatura máxima	24.8
88163	7	Sololá	717	San Juan la Laguna	12	San Juan la Laguna	11	Noviembre	2023-09-11T00:00:00	2024-11-08T14:00:00	3	Temperatura mínima	24
88164	7	Sololá	717	San Juan la Laguna	12	San Juan la Laguna	11	Noviembre	2023-09-11T00:00:00	2024-11-08T14:00:00	5	Humedad	69
88165	7	Sololá	717	San Juan la Laguna	12	San Juan la Laguna	11	Noviembre	2023-09-11T00:00:00	2024-11-08T14:00:00	6	Velocidad del viento	0
88166	7	Sololá	717	San Juan la Laguna	12	San Juan la Laguna	11	Noviembre	2023-09-11T00:00:00	2024-11-08T14:00:00	7	Dirección del viento	0
88167	7	Sololá	717	San Juan la Laguna	12	San Juan la Laguna	11	Noviembre	2023-09-11T00:00:00	2024-11-08T14:00:00	1	Precipitación	0
88168	7	Sololá	717	San Juan la Laguna	12	San Juan la Laguna	11	Noviembre	2023-09-11T00:00:00	2024-11-08T14:00:00	8	Radiación solar	721
88169	7	Sololá	717	San Juan la Laguna	12	San Juan la Laguna	11	Noviembre	2023-09-11T00:00:00	2024-11-08T15:00:00	2	Temperatura media	24.3
88170	7	Sololá	717	San Juan la Laguna	12	San Juan la Laguna	11	Noviembre	2023-09-11T00:00:00	2024-11-08T15:00:00	4	Temperatura máxima	24.9
88171	7	Sololá	717	San Juan la Laguna	12	San Juan la Laguna	11	Noviembre	2023-09-11T00:00:00	2024-11-08T15:00:00	3	Temperatura mínima	23.3
88172	7	Sololá	717	San Juan la Laguna	12	San Juan la Laguna	11	Noviembre	2023-09-11T00:00:00	2024-11-08T15:00:00	5	Humedad	70
88173	7	Sololá	717	San Juan la Laguna	12	San Juan la Laguna	11	Noviembre	2023-09-11T00:00:00	2024-11-08T15:00:00	6	Velocidad del viento	0
88174	7	Sololá	717	San Juan la Laguna	12	San Juan la Laguna	11	Noviembre	2023-09-11T00:00:00	2024-11-08T15:00:00	7	Dirección del viento	0
88175	7	Sololá	717	San Juan la Laguna	12	San Juan la Laguna	11	Noviembre	2023-09-11T00:00:00	2024-11-08T15:00:00	1	Precipitación	0
88176	7	Sololá	717	San Juan la Laguna	12	San Juan la Laguna	11	Noviembre	2023-09-11T00:00:00	2024-11-08T15:00:00	8	Radiación solar	482
88177	7	Sololá	717	San Juan la Laguna	12	San Juan la Laguna	11	Noviembre	2023-09-11T00:00:00	2024-11-08T16:00:00	2	Temperatura media	23.7
88178	7	Sololá	717	San Juan la Laguna	12	San Juan la Laguna	11	Noviembre	2023-09-11T00:00:00	2024-11-08T16:00:00	4	Temperatura máxima	24.7
88179	7	Sololá	717	San Juan la Laguna	12	San Juan la Laguna	11	Noviembre	2023-09-11T00:00:00	2024-11-08T16:00:00	3	Temperatura mínima	23.4
88180	7	Sololá	717	San Juan la Laguna	12	San Juan la Laguna	11	Noviembre	2023-09-11T00:00:00	2024-11-08T16:00:00	5	Humedad	74
88181	7	Sololá	717	San Juan la Laguna	12	San Juan la Laguna	11	Noviembre	2023-09-11T00:00:00	2024-11-08T16:00:00	6	Velocidad del viento	0
88182	7	Sololá	717	San Juan la Laguna	12	San Juan la Laguna	11	Noviembre	2023-09-11T00:00:00	2024-11-08T16:00:00	7	Dirección del viento	0
88183	7	Sololá	717	San Juan la Laguna	12	San Juan la Laguna	11	Noviembre	2023-09-11T00:00:00	2024-11-08T16:00:00	1	Precipitación	0
88184	7	Sololá	717	San Juan la Laguna	12	San Juan la Laguna	11	Noviembre	2023-09-11T00:00:00	2024-11-08T16:00:00	8	Radiación solar	406
88185	7	Sololá	717	San Juan la Laguna	12	San Juan la Laguna	11	Noviembre	2023-09-11T00:00:00	2024-11-08T17:00:00	2	Temperatura media	21.5
88186	7	Sololá	717	San Juan la Laguna	12	San Juan la Laguna	11	Noviembre	2023-09-11T00:00:00	2024-11-08T17:00:00	4	Temperatura máxima	23.7
88187	7	Sololá	717	San Juan la Laguna	12	San Juan la Laguna	11	Noviembre	2023-09-11T00:00:00	2024-11-08T17:00:00	3	Temperatura mínima	21.5
88188	7	Sololá	717	San Juan la Laguna	12	San Juan la Laguna	11	Noviembre	2023-09-11T00:00:00	2024-11-08T17:00:00	5	Humedad	80
88189	7	Sololá	717	San Juan la Laguna	12	San Juan la Laguna	11	Noviembre	2023-09-11T00:00:00	2024-11-08T17:00:00	6	Velocidad del viento	0
88190	7	Sololá	717	San Juan la Laguna	12	San Juan la Laguna	11	Noviembre	2023-09-11T00:00:00	2024-11-08T17:00:00	7	Dirección del viento	0
88191	7	Sololá	717	San Juan la Laguna	12	San Juan la Laguna	11	Noviembre	2023-09-11T00:00:00	2024-11-08T17:00:00	1	Precipitación	0
88192	7	Sololá	717	San Juan la Laguna	12	San Juan la Laguna	11	Noviembre	2023-09-11T00:00:00	2024-11-08T17:00:00	8	Radiación solar	69
88193	7	Sololá	717	San Juan la Laguna	12	San Juan la Laguna	11	Noviembre	2023-09-11T00:00:00	2024-11-08T18:00:00	2	Temperatura media	21.3
88194	7	Sololá	717	San Juan la Laguna	12	San Juan la Laguna	11	Noviembre	2023-09-11T00:00:00	2024-11-08T18:00:00	4	Temperatura máxima	21.6
88195	7	Sololá	717	San Juan la Laguna	12	San Juan la Laguna	11	Noviembre	2023-09-11T00:00:00	2024-11-08T18:00:00	3	Temperatura mínima	21.3
88196	7	Sololá	717	San Juan la Laguna	12	San Juan la Laguna	11	Noviembre	2023-09-11T00:00:00	2024-11-08T18:00:00	5	Humedad	82
88197	7	Sololá	717	San Juan la Laguna	12	San Juan la Laguna	11	Noviembre	2023-09-11T00:00:00	2024-11-08T18:00:00	6	Velocidad del viento	0
88198	7	Sololá	717	San Juan la Laguna	12	San Juan la Laguna	11	Noviembre	2023-09-11T00:00:00	2024-11-08T18:00:00	7	Dirección del viento	0
88199	7	Sololá	717	San Juan la Laguna	12	San Juan la Laguna	11	Noviembre	2023-09-11T00:00:00	2024-11-08T18:00:00	1	Precipitación	0
88200	7	Sololá	717	San Juan la Laguna	12	San Juan la Laguna	11	Noviembre	2023-09-11T00:00:00	2024-11-08T18:00:00	8	Radiación solar	7
88201	7	Sololá	717	San Juan la Laguna	12	San Juan la Laguna	11	Noviembre	2023-09-11T00:00:00	2024-11-08T19:00:00	2	Temperatura media	20.7
88202	7	Sololá	717	San Juan la Laguna	12	San Juan la Laguna	11	Noviembre	2023-09-11T00:00:00	2024-11-08T19:00:00	4	Temperatura máxima	21.3
88203	7	Sololá	717	San Juan la Laguna	12	San Juan la Laguna	11	Noviembre	2023-09-11T00:00:00	2024-11-08T19:00:00	3	Temperatura mínima	20.7
88204	7	Sololá	717	San Juan la Laguna	12	San Juan la Laguna	11	Noviembre	2023-09-11T00:00:00	2024-11-08T19:00:00	5	Humedad	86
88205	7	Sololá	717	San Juan la Laguna	12	San Juan la Laguna	11	Noviembre	2023-09-11T00:00:00	2024-11-08T19:00:00	6	Velocidad del viento	0
88206	7	Sololá	717	San Juan la Laguna	12	San Juan la Laguna	11	Noviembre	2023-09-11T00:00:00	2024-11-08T19:00:00	7	Dirección del viento	0
88207	7	Sololá	717	San Juan la Laguna	12	San Juan la Laguna	11	Noviembre	2023-09-11T00:00:00	2024-11-08T19:00:00	1	Precipitación	0
88208	7	Sololá	717	San Juan la Laguna	12	San Juan la Laguna	11	Noviembre	2023-09-11T00:00:00	2024-11-08T19:00:00	8	Radiación solar	0
88209	7	Sololá	717	San Juan la Laguna	12	San Juan la Laguna	11	Noviembre	2023-09-11T00:00:00	2024-11-08T20:00:00	2	Temperatura media	19.7
88210	7	Sololá	717	San Juan la Laguna	12	San Juan la Laguna	11	Noviembre	2023-09-11T00:00:00	2024-11-08T20:00:00	4	Temperatura máxima	20.7
88211	7	Sololá	717	San Juan la Laguna	12	San Juan la Laguna	11	Noviembre	2023-09-11T00:00:00	2024-11-08T20:00:00	3	Temperatura mínima	19.7
88212	7	Sololá	717	San Juan la Laguna	12	San Juan la Laguna	11	Noviembre	2023-09-11T00:00:00	2024-11-08T20:00:00	5	Humedad	85
88213	7	Sololá	717	San Juan la Laguna	12	San Juan la Laguna	11	Noviembre	2023-09-11T00:00:00	2024-11-08T20:00:00	6	Velocidad del viento	0
88214	7	Sololá	717	San Juan la Laguna	12	San Juan la Laguna	11	Noviembre	2023-09-11T00:00:00	2024-11-08T20:00:00	7	Dirección del viento	0
88215	7	Sololá	717	San Juan la Laguna	12	San Juan la Laguna	11	Noviembre	2023-09-11T00:00:00	2024-11-08T20:00:00	1	Precipitación	0
88216	7	Sololá	717	San Juan la Laguna	12	San Juan la Laguna	11	Noviembre	2023-09-11T00:00:00	2024-11-08T20:00:00	8	Radiación solar	0
88217	7	Sololá	717	San Juan la Laguna	12	San Juan la Laguna	11	Noviembre	2023-09-11T00:00:00	2024-11-08T21:00:00	2	Temperatura media	19
88218	7	Sololá	717	San Juan la Laguna	12	San Juan la Laguna	11	Noviembre	2023-09-11T00:00:00	2024-11-08T21:00:00	4	Temperatura máxima	19.7
88219	7	Sololá	717	San Juan la Laguna	12	San Juan la Laguna	11	Noviembre	2023-09-11T00:00:00	2024-11-08T21:00:00	3	Temperatura mínima	19
88220	7	Sololá	717	San Juan la Laguna	12	San Juan la Laguna	11	Noviembre	2023-09-11T00:00:00	2024-11-08T21:00:00	5	Humedad	86
88221	7	Sololá	717	San Juan la Laguna	12	San Juan la Laguna	11	Noviembre	2023-09-11T00:00:00	2024-11-08T21:00:00	6	Velocidad del viento	0
88222	7	Sololá	717	San Juan la Laguna	12	San Juan la Laguna	11	Noviembre	2023-09-11T00:00:00	2024-11-08T21:00:00	7	Dirección del viento	0
88223	7	Sololá	717	San Juan la Laguna	12	San Juan la Laguna	11	Noviembre	2023-09-11T00:00:00	2024-11-08T21:00:00	1	Precipitación	0
88224	7	Sololá	717	San Juan la Laguna	12	San Juan la Laguna	11	Noviembre	2023-09-11T00:00:00	2024-11-08T21:00:00	8	Radiación solar	0
88225	7	Sololá	717	San Juan la Laguna	12	San Juan la Laguna	11	Noviembre	2023-09-11T00:00:00	2024-11-08T22:00:00	2	Temperatura media	18.9
88226	7	Sololá	717	San Juan la Laguna	12	San Juan la Laguna	11	Noviembre	2023-09-11T00:00:00	2024-11-08T22:00:00	4	Temperatura máxima	19.2
88227	7	Sololá	717	San Juan la Laguna	12	San Juan la Laguna	11	Noviembre	2023-09-11T00:00:00	2024-11-08T22:00:00	3	Temperatura mínima	18.9
88228	7	Sololá	717	San Juan la Laguna	12	San Juan la Laguna	11	Noviembre	2023-09-11T00:00:00	2024-11-08T22:00:00	5	Humedad	84
88229	7	Sololá	717	San Juan la Laguna	12	San Juan la Laguna	11	Noviembre	2023-09-11T00:00:00	2024-11-08T22:00:00	6	Velocidad del viento	0
88230	7	Sololá	717	San Juan la Laguna	12	San Juan la Laguna	11	Noviembre	2023-09-11T00:00:00	2024-11-08T22:00:00	7	Dirección del viento	0
88231	7	Sololá	717	San Juan la Laguna	12	San Juan la Laguna	11	Noviembre	2023-09-11T00:00:00	2024-11-08T22:00:00	1	Precipitación	0
88232	7	Sololá	717	San Juan la Laguna	12	San Juan la Laguna	11	Noviembre	2023-09-11T00:00:00	2024-11-08T22:00:00	8	Radiación solar	0
88233	7	Sololá	717	San Juan la Laguna	12	San Juan la Laguna	11	Noviembre	2023-09-11T00:00:00	2024-11-08T23:00:00	2	Temperatura media	19.1
88234	7	Sololá	717	San Juan la Laguna	12	San Juan la Laguna	11	Noviembre	2023-09-11T00:00:00	2024-11-08T23:00:00	4	Temperatura máxima	19.2
88235	7	Sololá	717	San Juan la Laguna	12	San Juan la Laguna	11	Noviembre	2023-09-11T00:00:00	2024-11-08T23:00:00	3	Temperatura mínima	18.9
88236	7	Sololá	717	San Juan la Laguna	12	San Juan la Laguna	11	Noviembre	2023-09-11T00:00:00	2024-11-08T23:00:00	5	Humedad	83
88237	7	Sololá	717	San Juan la Laguna	12	San Juan la Laguna	11	Noviembre	2023-09-11T00:00:00	2024-11-08T23:00:00	6	Velocidad del viento	0
88238	7	Sololá	717	San Juan la Laguna	12	San Juan la Laguna	11	Noviembre	2023-09-11T00:00:00	2024-11-08T23:00:00	7	Dirección del viento	0
88239	7	Sololá	717	San Juan la Laguna	12	San Juan la Laguna	11	Noviembre	2023-09-11T00:00:00	2024-11-08T23:00:00	1	Precipitación	0
88240	7	Sololá	717	San Juan la Laguna	12	San Juan la Laguna	11	Noviembre	2023-09-11T00:00:00	2024-11-08T23:00:00	8	Radiación solar	0
88241	7	Sololá	717	San Juan la Laguna	12	San Juan la Laguna	11	Noviembre	2023-10-11T00:00:00	2024-11-08T00:00:00	2	Temperatura media	18.4
88242	7	Sololá	717	San Juan la Laguna	12	San Juan la Laguna	11	Noviembre	2023-10-11T00:00:00	2024-11-08T00:00:00	4	Temperatura máxima	19.2
88243	7	Sololá	717	San Juan la Laguna	12	San Juan la Laguna	11	Noviembre	2023-10-11T00:00:00	2024-11-08T00:00:00	3	Temperatura mínima	18.4
88244	7	Sololá	717	San Juan la Laguna	12	San Juan la Laguna	11	Noviembre	2023-10-11T00:00:00	2024-11-08T00:00:00	5	Humedad	86
88245	7	Sololá	717	San Juan la Laguna	12	San Juan la Laguna	11	Noviembre	2023-10-11T00:00:00	2024-11-08T00:00:00	6	Velocidad del viento	0
88246	7	Sololá	717	San Juan la Laguna	12	San Juan la Laguna	11	Noviembre	2023-10-11T00:00:00	2024-11-08T00:00:00	7	Dirección del viento	0
88247	7	Sololá	717	San Juan la Laguna	12	San Juan la Laguna	11	Noviembre	2023-10-11T00:00:00	2024-11-08T00:00:00	1	Precipitación	0
88248	7	Sololá	717	San Juan la Laguna	12	San Juan la Laguna	11	Noviembre	2023-10-11T00:00:00	2024-11-08T00:00:00	8	Radiación solar	0
88249	7	Sololá	717	San Juan la Laguna	12	San Juan la Laguna	11	Noviembre	2023-10-11T00:00:00	2024-11-08T01:00:00	2	Temperatura media	17.2
88250	7	Sololá	717	San Juan la Laguna	12	San Juan la Laguna	11	Noviembre	2023-10-11T00:00:00	2024-11-08T01:00:00	4	Temperatura máxima	18.4
88251	7	Sololá	717	San Juan la Laguna	12	San Juan la Laguna	11	Noviembre	2023-10-11T00:00:00	2024-11-08T01:00:00	3	Temperatura mínima	17.1
88252	7	Sololá	717	San Juan la Laguna	12	San Juan la Laguna	11	Noviembre	2023-10-11T00:00:00	2024-11-08T01:00:00	5	Humedad	88
88253	7	Sololá	717	San Juan la Laguna	12	San Juan la Laguna	11	Noviembre	2023-10-11T00:00:00	2024-11-08T01:00:00	6	Velocidad del viento	0
88254	7	Sololá	717	San Juan la Laguna	12	San Juan la Laguna	11	Noviembre	2023-10-11T00:00:00	2024-11-08T01:00:00	7	Dirección del viento	0
88255	7	Sololá	717	San Juan la Laguna	12	San Juan la Laguna	11	Noviembre	2023-10-11T00:00:00	2024-11-08T01:00:00	1	Precipitación	0
88256	7	Sololá	717	San Juan la Laguna	12	San Juan la Laguna	11	Noviembre	2023-10-11T00:00:00	2024-11-08T01:00:00	8	Radiación solar	0
88257	7	Sololá	717	San Juan la Laguna	12	San Juan la Laguna	11	Noviembre	2023-10-11T00:00:00	2024-11-08T02:00:00	2	Temperatura media	17.1
88258	7	Sololá	717	San Juan la Laguna	12	San Juan la Laguna	11	Noviembre	2023-10-11T00:00:00	2024-11-08T02:00:00	4	Temperatura máxima	17.4
88259	7	Sololá	717	San Juan la Laguna	12	San Juan la Laguna	11	Noviembre	2023-10-11T00:00:00	2024-11-08T02:00:00	3	Temperatura mínima	17.1
88260	7	Sololá	717	San Juan la Laguna	12	San Juan la Laguna	11	Noviembre	2023-10-11T00:00:00	2024-11-08T02:00:00	5	Humedad	88
88261	7	Sololá	717	San Juan la Laguna	12	San Juan la Laguna	11	Noviembre	2023-10-11T00:00:00	2024-11-08T02:00:00	6	Velocidad del viento	0
88262	7	Sololá	717	San Juan la Laguna	12	San Juan la Laguna	11	Noviembre	2023-10-11T00:00:00	2024-11-08T02:00:00	7	Dirección del viento	0
88263	7	Sololá	717	San Juan la Laguna	12	San Juan la Laguna	11	Noviembre	2023-10-11T00:00:00	2024-11-08T02:00:00	1	Precipitación	0
88264	7	Sololá	717	San Juan la Laguna	12	San Juan la Laguna	11	Noviembre	2023-10-11T00:00:00	2024-11-08T02:00:00	8	Radiación solar	0
88265	7	Sololá	717	San Juan la Laguna	12	San Juan la Laguna	11	Noviembre	2023-10-11T00:00:00	2024-11-08T03:00:00	2	Temperatura media	16.8
88266	7	Sololá	717	San Juan la Laguna	12	San Juan la Laguna	11	Noviembre	2023-10-11T00:00:00	2024-11-08T03:00:00	4	Temperatura máxima	17.1
88267	7	Sololá	717	San Juan la Laguna	12	San Juan la Laguna	11	Noviembre	2023-10-11T00:00:00	2024-11-08T03:00:00	3	Temperatura mínima	16.7
88268	7	Sololá	717	San Juan la Laguna	12	San Juan la Laguna	11	Noviembre	2023-10-11T00:00:00	2024-11-08T03:00:00	5	Humedad	88
88269	7	Sololá	717	San Juan la Laguna	12	San Juan la Laguna	11	Noviembre	2023-10-11T00:00:00	2024-11-08T03:00:00	6	Velocidad del viento	0
88270	7	Sololá	717	San Juan la Laguna	12	San Juan la Laguna	11	Noviembre	2023-10-11T00:00:00	2024-11-08T03:00:00	7	Dirección del viento	0
88271	7	Sololá	717	San Juan la Laguna	12	San Juan la Laguna	11	Noviembre	2023-10-11T00:00:00	2024-11-08T03:00:00	1	Precipitación	0
88272	7	Sololá	717	San Juan la Laguna	12	San Juan la Laguna	11	Noviembre	2023-10-11T00:00:00	2024-11-08T03:00:00	8	Radiación solar	0
88273	7	Sololá	717	San Juan la Laguna	12	San Juan la Laguna	11	Noviembre	2023-10-11T00:00:00	2024-11-08T04:00:00	2	Temperatura media	15.6
88274	7	Sololá	717	San Juan la Laguna	12	San Juan la Laguna	11	Noviembre	2023-10-11T00:00:00	2024-11-08T04:00:00	4	Temperatura máxima	16.8
88275	7	Sololá	717	San Juan la Laguna	12	San Juan la Laguna	11	Noviembre	2023-10-11T00:00:00	2024-11-08T04:00:00	3	Temperatura mínima	15.6
88276	7	Sololá	717	San Juan la Laguna	12	San Juan la Laguna	11	Noviembre	2023-10-11T00:00:00	2024-11-08T04:00:00	5	Humedad	88
88277	7	Sololá	717	San Juan la Laguna	12	San Juan la Laguna	11	Noviembre	2023-10-11T00:00:00	2024-11-08T04:00:00	6	Velocidad del viento	0
88278	7	Sololá	717	San Juan la Laguna	12	San Juan la Laguna	11	Noviembre	2023-10-11T00:00:00	2024-11-08T04:00:00	7	Dirección del viento	0
88279	7	Sololá	717	San Juan la Laguna	12	San Juan la Laguna	11	Noviembre	2023-10-11T00:00:00	2024-11-08T04:00:00	1	Precipitación	0
88280	7	Sololá	717	San Juan la Laguna	12	San Juan la Laguna	11	Noviembre	2023-10-11T00:00:00	2024-11-08T04:00:00	8	Radiación solar	0
88281	7	Sololá	717	San Juan la Laguna	12	San Juan la Laguna	11	Noviembre	2023-10-11T00:00:00	2024-11-08T05:00:00	2	Temperatura media	14.8
88282	7	Sololá	717	San Juan la Laguna	12	San Juan la Laguna	11	Noviembre	2023-10-11T00:00:00	2024-11-08T05:00:00	4	Temperatura máxima	15.6
88283	7	Sololá	717	San Juan la Laguna	12	San Juan la Laguna	11	Noviembre	2023-10-11T00:00:00	2024-11-08T05:00:00	3	Temperatura mínima	14.8
88284	7	Sololá	717	San Juan la Laguna	12	San Juan la Laguna	11	Noviembre	2023-10-11T00:00:00	2024-11-08T05:00:00	5	Humedad	88
88285	7	Sololá	717	San Juan la Laguna	12	San Juan la Laguna	11	Noviembre	2023-10-11T00:00:00	2024-11-08T05:00:00	6	Velocidad del viento	0
88286	7	Sololá	717	San Juan la Laguna	12	San Juan la Laguna	11	Noviembre	2023-10-11T00:00:00	2024-11-08T05:00:00	7	Dirección del viento	0
88287	7	Sololá	717	San Juan la Laguna	12	San Juan la Laguna	11	Noviembre	2023-10-11T00:00:00	2024-11-08T05:00:00	1	Precipitación	0
88288	7	Sololá	717	San Juan la Laguna	12	San Juan la Laguna	11	Noviembre	2023-10-11T00:00:00	2024-11-08T05:00:00	8	Radiación solar	0
88289	7	Sololá	717	San Juan la Laguna	12	San Juan la Laguna	11	Noviembre	2023-10-11T00:00:00	2024-11-08T06:00:00	2	Temperatura media	14.2
88290	7	Sololá	717	San Juan la Laguna	12	San Juan la Laguna	11	Noviembre	2023-10-11T00:00:00	2024-11-08T06:00:00	4	Temperatura máxima	14.7
88291	7	Sololá	717	San Juan la Laguna	12	San Juan la Laguna	11	Noviembre	2023-10-11T00:00:00	2024-11-08T06:00:00	3	Temperatura mínima	14.2
88292	7	Sololá	717	San Juan la Laguna	12	San Juan la Laguna	11	Noviembre	2023-10-11T00:00:00	2024-11-08T06:00:00	5	Humedad	86
88293	7	Sololá	717	San Juan la Laguna	12	San Juan la Laguna	11	Noviembre	2023-10-11T00:00:00	2024-11-08T06:00:00	6	Velocidad del viento	0
88294	7	Sololá	717	San Juan la Laguna	12	San Juan la Laguna	11	Noviembre	2023-10-11T00:00:00	2024-11-08T06:00:00	7	Dirección del viento	0
88295	7	Sololá	717	San Juan la Laguna	12	San Juan la Laguna	11	Noviembre	2023-10-11T00:00:00	2024-11-08T06:00:00	1	Precipitación	0
88296	7	Sololá	717	San Juan la Laguna	12	San Juan la Laguna	11	Noviembre	2023-10-11T00:00:00	2024-11-08T06:00:00	8	Radiación solar	0
88297	7	Sololá	717	San Juan la Laguna	12	San Juan la Laguna	11	Noviembre	2023-10-11T00:00:00	2024-11-08T07:00:00	2	Temperatura media	14.6
88298	7	Sololá	717	San Juan la Laguna	12	San Juan la Laguna	11	Noviembre	2023-10-11T00:00:00	2024-11-08T07:00:00	4	Temperatura máxima	14.6
88299	7	Sololá	717	San Juan la Laguna	12	San Juan la Laguna	11	Noviembre	2023-10-11T00:00:00	2024-11-08T07:00:00	3	Temperatura mínima	13.9
88300	7	Sololá	717	San Juan la Laguna	12	San Juan la Laguna	11	Noviembre	2023-10-11T00:00:00	2024-11-08T07:00:00	5	Humedad	86
88301	7	Sololá	717	San Juan la Laguna	12	San Juan la Laguna	11	Noviembre	2023-10-11T00:00:00	2024-11-08T07:00:00	6	Velocidad del viento	0
88302	7	Sololá	717	San Juan la Laguna	12	San Juan la Laguna	11	Noviembre	2023-10-11T00:00:00	2024-11-08T07:00:00	7	Dirección del viento	0
88303	7	Sololá	717	San Juan la Laguna	12	San Juan la Laguna	11	Noviembre	2023-10-11T00:00:00	2024-11-08T07:00:00	1	Precipitación	0
88304	7	Sololá	717	San Juan la Laguna	12	San Juan la Laguna	11	Noviembre	2023-10-11T00:00:00	2024-11-08T07:00:00	8	Radiación solar	37
88305	7	Sololá	717	San Juan la Laguna	12	San Juan la Laguna	11	Noviembre	2023-10-11T00:00:00	2024-11-08T08:00:00	2	Temperatura media	18.7
88306	7	Sololá	717	San Juan la Laguna	12	San Juan la Laguna	11	Noviembre	2023-10-11T00:00:00	2024-11-08T08:00:00	4	Temperatura máxima	18.7
88307	7	Sololá	717	San Juan la Laguna	12	San Juan la Laguna	11	Noviembre	2023-10-11T00:00:00	2024-11-08T08:00:00	3	Temperatura mínima	14.6
88308	7	Sololá	717	San Juan la Laguna	12	San Juan la Laguna	11	Noviembre	2023-10-11T00:00:00	2024-11-08T08:00:00	5	Humedad	77
88309	7	Sololá	717	San Juan la Laguna	12	San Juan la Laguna	11	Noviembre	2023-10-11T00:00:00	2024-11-08T08:00:00	6	Velocidad del viento	0
88310	7	Sololá	717	San Juan la Laguna	12	San Juan la Laguna	11	Noviembre	2023-10-11T00:00:00	2024-11-08T08:00:00	7	Dirección del viento	0
88311	7	Sololá	717	San Juan la Laguna	12	San Juan la Laguna	11	Noviembre	2023-10-11T00:00:00	2024-11-08T08:00:00	1	Precipitación	0
88312	7	Sololá	717	San Juan la Laguna	12	San Juan la Laguna	11	Noviembre	2023-10-11T00:00:00	2024-11-08T08:00:00	8	Radiación solar	242
88313	7	Sololá	717	San Juan la Laguna	12	San Juan la Laguna	11	Noviembre	2023-10-11T00:00:00	2024-11-08T09:00:00	2	Temperatura media	21
88314	7	Sololá	717	San Juan la Laguna	12	San Juan la Laguna	11	Noviembre	2023-10-11T00:00:00	2024-11-08T09:00:00	4	Temperatura máxima	21
88315	7	Sololá	717	San Juan la Laguna	12	San Juan la Laguna	11	Noviembre	2023-10-11T00:00:00	2024-11-08T09:00:00	3	Temperatura mínima	18.7
88316	7	Sololá	717	San Juan la Laguna	12	San Juan la Laguna	11	Noviembre	2023-10-11T00:00:00	2024-11-08T09:00:00	5	Humedad	69
88317	7	Sololá	717	San Juan la Laguna	12	San Juan la Laguna	11	Noviembre	2023-10-11T00:00:00	2024-11-08T09:00:00	6	Velocidad del viento	0
88318	7	Sololá	717	San Juan la Laguna	12	San Juan la Laguna	11	Noviembre	2023-10-11T00:00:00	2024-11-08T09:00:00	7	Dirección del viento	0
88319	7	Sololá	717	San Juan la Laguna	12	San Juan la Laguna	11	Noviembre	2023-10-11T00:00:00	2024-11-08T09:00:00	1	Precipitación	0
88320	7	Sololá	717	San Juan la Laguna	12	San Juan la Laguna	11	Noviembre	2023-10-11T00:00:00	2024-11-08T09:00:00	8	Radiación solar	459
88321	7	Sololá	717	San Juan la Laguna	12	San Juan la Laguna	11	Noviembre	2023-10-11T00:00:00	2024-11-08T10:00:00	2	Temperatura media	21.4
88322	7	Sololá	717	San Juan la Laguna	12	San Juan la Laguna	11	Noviembre	2023-10-11T00:00:00	2024-11-08T10:00:00	4	Temperatura máxima	21.8
88323	7	Sololá	717	San Juan la Laguna	12	San Juan la Laguna	11	Noviembre	2023-10-11T00:00:00	2024-11-08T10:00:00	3	Temperatura mínima	20.7
88324	7	Sololá	717	San Juan la Laguna	12	San Juan la Laguna	11	Noviembre	2023-10-11T00:00:00	2024-11-08T10:00:00	5	Humedad	65
88325	7	Sololá	717	San Juan la Laguna	12	San Juan la Laguna	11	Noviembre	2023-10-11T00:00:00	2024-11-08T10:00:00	6	Velocidad del viento	0
88326	7	Sololá	717	San Juan la Laguna	12	San Juan la Laguna	11	Noviembre	2023-10-11T00:00:00	2024-11-08T10:00:00	7	Dirección del viento	0
88327	7	Sololá	717	San Juan la Laguna	12	San Juan la Laguna	11	Noviembre	2023-10-11T00:00:00	2024-11-08T10:00:00	1	Precipitación	0
88328	7	Sololá	717	San Juan la Laguna	12	San Juan la Laguna	11	Noviembre	2023-10-11T00:00:00	2024-11-08T10:00:00	8	Radiación solar	634
88329	7	Sololá	717	San Juan la Laguna	12	San Juan la Laguna	11	Noviembre	2023-10-11T00:00:00	2024-11-08T11:00:00	2	Temperatura media	25
88330	7	Sololá	717	San Juan la Laguna	12	San Juan la Laguna	11	Noviembre	2023-10-11T00:00:00	2024-11-08T11:00:00	4	Temperatura máxima	25
88331	7	Sololá	717	San Juan la Laguna	12	San Juan la Laguna	11	Noviembre	2023-10-11T00:00:00	2024-11-08T11:00:00	3	Temperatura mínima	21.4
88332	7	Sololá	717	San Juan la Laguna	12	San Juan la Laguna	11	Noviembre	2023-10-11T00:00:00	2024-11-08T11:00:00	5	Humedad	36
88333	7	Sololá	717	San Juan la Laguna	12	San Juan la Laguna	11	Noviembre	2023-10-11T00:00:00	2024-11-08T11:00:00	6	Velocidad del viento	0
88334	7	Sololá	717	San Juan la Laguna	12	San Juan la Laguna	11	Noviembre	2023-10-11T00:00:00	2024-11-08T11:00:00	7	Dirección del viento	0
88335	7	Sololá	717	San Juan la Laguna	12	San Juan la Laguna	11	Noviembre	2023-10-11T00:00:00	2024-11-08T11:00:00	1	Precipitación	0
88336	7	Sololá	717	San Juan la Laguna	12	San Juan la Laguna	11	Noviembre	2023-10-11T00:00:00	2024-11-08T11:00:00	8	Radiación solar	647
88337	7	Sololá	717	San Juan la Laguna	12	San Juan la Laguna	11	Noviembre	2023-10-11T00:00:00	2024-11-08T12:00:00	2	Temperatura media	23.3
88338	7	Sololá	717	San Juan la Laguna	12	San Juan la Laguna	11	Noviembre	2023-10-11T00:00:00	2024-11-08T12:00:00	4	Temperatura máxima	25.7
88339	7	Sololá	717	San Juan la Laguna	12	San Juan la Laguna	11	Noviembre	2023-10-11T00:00:00	2024-11-08T12:00:00	3	Temperatura mínima	23.3
88340	7	Sololá	717	San Juan la Laguna	12	San Juan la Laguna	11	Noviembre	2023-10-11T00:00:00	2024-11-08T12:00:00	5	Humedad	56
88341	7	Sololá	717	San Juan la Laguna	12	San Juan la Laguna	11	Noviembre	2023-10-11T00:00:00	2024-11-08T12:00:00	6	Velocidad del viento	4.8
88342	7	Sololá	717	San Juan la Laguna	12	San Juan la Laguna	11	Noviembre	2023-10-11T00:00:00	2024-11-08T12:00:00	7	Dirección del viento	4.83
88343	7	Sololá	717	San Juan la Laguna	12	San Juan la Laguna	11	Noviembre	2023-10-11T00:00:00	2024-11-08T12:00:00	1	Precipitación	0
88344	7	Sololá	717	San Juan la Laguna	12	San Juan la Laguna	11	Noviembre	2023-10-11T00:00:00	2024-11-08T12:00:00	8	Radiación solar	804
88345	7	Sololá	717	San Juan la Laguna	12	San Juan la Laguna	11	Noviembre	2023-10-11T00:00:00	2024-11-08T13:00:00	2	Temperatura media	24
88346	7	Sololá	717	San Juan la Laguna	12	San Juan la Laguna	11	Noviembre	2023-10-11T00:00:00	2024-11-08T13:00:00	4	Temperatura máxima	24.1
88347	7	Sololá	717	San Juan la Laguna	12	San Juan la Laguna	11	Noviembre	2023-10-11T00:00:00	2024-11-08T13:00:00	3	Temperatura mínima	23.1
88348	7	Sololá	717	San Juan la Laguna	12	San Juan la Laguna	11	Noviembre	2023-10-11T00:00:00	2024-11-08T13:00:00	5	Humedad	63
88349	7	Sololá	717	San Juan la Laguna	12	San Juan la Laguna	11	Noviembre	2023-10-11T00:00:00	2024-11-08T13:00:00	6	Velocidad del viento	0
88350	7	Sololá	717	San Juan la Laguna	12	San Juan la Laguna	11	Noviembre	2023-10-11T00:00:00	2024-11-08T13:00:00	7	Dirección del viento	0
88351	7	Sololá	717	San Juan la Laguna	12	San Juan la Laguna	11	Noviembre	2023-10-11T00:00:00	2024-11-08T13:00:00	1	Precipitación	0
88352	7	Sololá	717	San Juan la Laguna	12	San Juan la Laguna	11	Noviembre	2023-10-11T00:00:00	2024-11-08T13:00:00	8	Radiación solar	803
88353	7	Sololá	717	San Juan la Laguna	12	San Juan la Laguna	11	Noviembre	2023-10-11T00:00:00	2024-11-08T14:00:00	2	Temperatura media	24.5
88354	7	Sololá	717	San Juan la Laguna	12	San Juan la Laguna	11	Noviembre	2023-10-11T00:00:00	2024-11-08T14:00:00	4	Temperatura máxima	25.2
88355	7	Sololá	717	San Juan la Laguna	12	San Juan la Laguna	11	Noviembre	2023-10-11T00:00:00	2024-11-08T14:00:00	3	Temperatura mínima	23.8
88356	7	Sololá	717	San Juan la Laguna	12	San Juan la Laguna	11	Noviembre	2023-10-11T00:00:00	2024-11-08T14:00:00	5	Humedad	63
88357	7	Sololá	717	San Juan la Laguna	12	San Juan la Laguna	11	Noviembre	2023-10-11T00:00:00	2024-11-08T14:00:00	6	Velocidad del viento	0
88358	7	Sololá	717	San Juan la Laguna	12	San Juan la Laguna	11	Noviembre	2023-10-11T00:00:00	2024-11-08T14:00:00	7	Dirección del viento	0
88359	7	Sololá	717	San Juan la Laguna	12	San Juan la Laguna	11	Noviembre	2023-10-11T00:00:00	2024-11-08T14:00:00	1	Precipitación	0
88360	7	Sololá	717	San Juan la Laguna	12	San Juan la Laguna	11	Noviembre	2023-10-11T00:00:00	2024-11-08T14:00:00	8	Radiación solar	723
88361	7	Sololá	717	San Juan la Laguna	12	San Juan la Laguna	11	Noviembre	2023-10-11T00:00:00	2024-11-08T15:00:00	2	Temperatura media	24.9
88362	7	Sololá	717	San Juan la Laguna	12	San Juan la Laguna	11	Noviembre	2023-10-11T00:00:00	2024-11-08T15:00:00	4	Temperatura máxima	25.1
88363	7	Sololá	717	San Juan la Laguna	12	San Juan la Laguna	11	Noviembre	2023-10-11T00:00:00	2024-11-08T15:00:00	3	Temperatura mínima	24.2
88364	7	Sololá	717	San Juan la Laguna	12	San Juan la Laguna	11	Noviembre	2023-10-11T00:00:00	2024-11-08T15:00:00	5	Humedad	65
88365	7	Sololá	717	San Juan la Laguna	12	San Juan la Laguna	11	Noviembre	2023-10-11T00:00:00	2024-11-08T15:00:00	6	Velocidad del viento	0
88366	7	Sololá	717	San Juan la Laguna	12	San Juan la Laguna	11	Noviembre	2023-10-11T00:00:00	2024-11-08T15:00:00	7	Dirección del viento	0
88367	7	Sololá	717	San Juan la Laguna	12	San Juan la Laguna	11	Noviembre	2023-10-11T00:00:00	2024-11-08T15:00:00	1	Precipitación	0
88368	7	Sololá	717	San Juan la Laguna	12	San Juan la Laguna	11	Noviembre	2023-10-11T00:00:00	2024-11-08T15:00:00	8	Radiación solar	572
88369	7	Sololá	717	San Juan la Laguna	12	San Juan la Laguna	11	Noviembre	2023-10-11T00:00:00	2024-11-08T16:00:00	2	Temperatura media	22.9
88370	7	Sololá	717	San Juan la Laguna	12	San Juan la Laguna	11	Noviembre	2023-10-11T00:00:00	2024-11-08T16:00:00	4	Temperatura máxima	25
88371	7	Sololá	717	San Juan la Laguna	12	San Juan la Laguna	11	Noviembre	2023-10-11T00:00:00	2024-11-08T16:00:00	3	Temperatura mínima	22.9
88372	7	Sololá	717	San Juan la Laguna	12	San Juan la Laguna	11	Noviembre	2023-10-11T00:00:00	2024-11-08T16:00:00	5	Humedad	73
88373	7	Sololá	717	San Juan la Laguna	12	San Juan la Laguna	11	Noviembre	2023-10-11T00:00:00	2024-11-08T16:00:00	6	Velocidad del viento	0
88374	7	Sololá	717	San Juan la Laguna	12	San Juan la Laguna	11	Noviembre	2023-10-11T00:00:00	2024-11-08T16:00:00	7	Dirección del viento	0
88375	7	Sololá	717	San Juan la Laguna	12	San Juan la Laguna	11	Noviembre	2023-10-11T00:00:00	2024-11-08T16:00:00	1	Precipitación	0
88376	7	Sololá	717	San Juan la Laguna	12	San Juan la Laguna	11	Noviembre	2023-10-11T00:00:00	2024-11-08T16:00:00	8	Radiación solar	292
88377	7	Sololá	717	San Juan la Laguna	12	San Juan la Laguna	11	Noviembre	2023-10-11T00:00:00	2024-11-08T17:00:00	2	Temperatura media	22
88378	7	Sololá	717	San Juan la Laguna	12	San Juan la Laguna	11	Noviembre	2023-10-11T00:00:00	2024-11-08T17:00:00	4	Temperatura máxima	23.5
88379	7	Sololá	717	San Juan la Laguna	12	San Juan la Laguna	11	Noviembre	2023-10-11T00:00:00	2024-11-08T17:00:00	3	Temperatura mínima	22
88380	7	Sololá	717	San Juan la Laguna	12	San Juan la Laguna	11	Noviembre	2023-10-11T00:00:00	2024-11-08T17:00:00	5	Humedad	78
88381	7	Sololá	717	San Juan la Laguna	12	San Juan la Laguna	11	Noviembre	2023-10-11T00:00:00	2024-11-08T17:00:00	6	Velocidad del viento	0
88382	7	Sololá	717	San Juan la Laguna	12	San Juan la Laguna	11	Noviembre	2023-10-11T00:00:00	2024-11-08T17:00:00	7	Dirección del viento	0
88383	7	Sololá	717	San Juan la Laguna	12	San Juan la Laguna	11	Noviembre	2023-10-11T00:00:00	2024-11-08T17:00:00	1	Precipitación	0
88384	7	Sololá	717	San Juan la Laguna	12	San Juan la Laguna	11	Noviembre	2023-10-11T00:00:00	2024-11-08T17:00:00	8	Radiación solar	83
88385	7	Sololá	717	San Juan la Laguna	12	San Juan la Laguna	11	Noviembre	2023-10-11T00:00:00	2024-11-08T18:00:00	2	Temperatura media	21.1
88386	7	Sololá	717	San Juan la Laguna	12	San Juan la Laguna	11	Noviembre	2023-10-11T00:00:00	2024-11-08T18:00:00	4	Temperatura máxima	22
88387	7	Sololá	717	San Juan la Laguna	12	San Juan la Laguna	11	Noviembre	2023-10-11T00:00:00	2024-11-08T18:00:00	3	Temperatura mínima	21
88388	7	Sololá	717	San Juan la Laguna	12	San Juan la Laguna	11	Noviembre	2023-10-11T00:00:00	2024-11-08T18:00:00	5	Humedad	82
88389	7	Sololá	717	San Juan la Laguna	12	San Juan la Laguna	11	Noviembre	2023-10-11T00:00:00	2024-11-08T18:00:00	6	Velocidad del viento	0
88390	7	Sololá	717	San Juan la Laguna	12	San Juan la Laguna	11	Noviembre	2023-10-11T00:00:00	2024-11-08T18:00:00	7	Dirección del viento	0
88391	7	Sololá	717	San Juan la Laguna	12	San Juan la Laguna	11	Noviembre	2023-10-11T00:00:00	2024-11-08T18:00:00	1	Precipitación	0
88392	7	Sololá	717	San Juan la Laguna	12	San Juan la Laguna	11	Noviembre	2023-10-11T00:00:00	2024-11-08T18:00:00	8	Radiación solar	9
88393	7	Sololá	717	San Juan la Laguna	12	San Juan la Laguna	11	Noviembre	2023-10-11T00:00:00	2024-11-08T19:00:00	2	Temperatura media	20.9
88394	7	Sololá	717	San Juan la Laguna	12	San Juan la Laguna	11	Noviembre	2023-10-11T00:00:00	2024-11-08T19:00:00	4	Temperatura máxima	21.2
88395	7	Sololá	717	San Juan la Laguna	12	San Juan la Laguna	11	Noviembre	2023-10-11T00:00:00	2024-11-08T19:00:00	3	Temperatura mínima	20.9
88396	7	Sololá	717	San Juan la Laguna	12	San Juan la Laguna	11	Noviembre	2023-10-11T00:00:00	2024-11-08T19:00:00	5	Humedad	80
88397	7	Sololá	717	San Juan la Laguna	12	San Juan la Laguna	11	Noviembre	2023-10-11T00:00:00	2024-11-08T19:00:00	6	Velocidad del viento	0
88398	7	Sololá	717	San Juan la Laguna	12	San Juan la Laguna	11	Noviembre	2023-10-11T00:00:00	2024-11-08T19:00:00	7	Dirección del viento	0
88399	7	Sololá	717	San Juan la Laguna	12	San Juan la Laguna	11	Noviembre	2023-10-11T00:00:00	2024-11-08T19:00:00	1	Precipitación	0
88400	7	Sololá	717	San Juan la Laguna	12	San Juan la Laguna	11	Noviembre	2023-10-11T00:00:00	2024-11-08T19:00:00	8	Radiación solar	0
88401	7	Sololá	717	San Juan la Laguna	12	San Juan la Laguna	11	Noviembre	2023-10-11T00:00:00	2024-11-08T20:00:00	2	Temperatura media	19.3
88402	7	Sololá	717	San Juan la Laguna	12	San Juan la Laguna	11	Noviembre	2023-10-11T00:00:00	2024-11-08T20:00:00	4	Temperatura máxima	20.9
88403	7	Sololá	717	San Juan la Laguna	12	San Juan la Laguna	11	Noviembre	2023-10-11T00:00:00	2024-11-08T20:00:00	3	Temperatura mínima	19.3
88404	7	Sololá	717	San Juan la Laguna	12	San Juan la Laguna	11	Noviembre	2023-10-11T00:00:00	2024-11-08T20:00:00	5	Humedad	80
88405	7	Sololá	717	San Juan la Laguna	12	San Juan la Laguna	11	Noviembre	2023-10-11T00:00:00	2024-11-08T20:00:00	6	Velocidad del viento	0
88406	7	Sololá	717	San Juan la Laguna	12	San Juan la Laguna	11	Noviembre	2023-10-11T00:00:00	2024-11-08T20:00:00	7	Dirección del viento	0
88407	7	Sololá	717	San Juan la Laguna	12	San Juan la Laguna	11	Noviembre	2023-10-11T00:00:00	2024-11-08T20:00:00	1	Precipitación	0
88408	7	Sololá	717	San Juan la Laguna	12	San Juan la Laguna	11	Noviembre	2023-10-11T00:00:00	2024-11-08T20:00:00	8	Radiación solar	0
88409	7	Sololá	717	San Juan la Laguna	12	San Juan la Laguna	11	Noviembre	2023-10-11T00:00:00	2024-11-08T21:00:00	2	Temperatura media	18.1
88410	7	Sololá	717	San Juan la Laguna	12	San Juan la Laguna	11	Noviembre	2023-10-11T00:00:00	2024-11-08T21:00:00	4	Temperatura máxima	19.3
88411	7	Sololá	717	San Juan la Laguna	12	San Juan la Laguna	11	Noviembre	2023-10-11T00:00:00	2024-11-08T21:00:00	3	Temperatura mínima	18.1
88412	7	Sololá	717	San Juan la Laguna	12	San Juan la Laguna	11	Noviembre	2023-10-11T00:00:00	2024-11-08T21:00:00	5	Humedad	82
88413	7	Sololá	717	San Juan la Laguna	12	San Juan la Laguna	11	Noviembre	2023-10-11T00:00:00	2024-11-08T21:00:00	6	Velocidad del viento	0
88414	7	Sololá	717	San Juan la Laguna	12	San Juan la Laguna	11	Noviembre	2023-10-11T00:00:00	2024-11-08T21:00:00	7	Dirección del viento	0
88415	7	Sololá	717	San Juan la Laguna	12	San Juan la Laguna	11	Noviembre	2023-10-11T00:00:00	2024-11-08T21:00:00	1	Precipitación	0
88416	7	Sololá	717	San Juan la Laguna	12	San Juan la Laguna	11	Noviembre	2023-10-11T00:00:00	2024-11-08T21:00:00	8	Radiación solar	0
88417	7	Sololá	717	San Juan la Laguna	12	San Juan la Laguna	11	Noviembre	2023-10-11T00:00:00	2024-11-08T22:00:00	2	Temperatura media	21.2
88418	7	Sololá	717	San Juan la Laguna	12	San Juan la Laguna	11	Noviembre	2023-10-11T00:00:00	2024-11-08T22:00:00	4	Temperatura máxima	21.3
88419	7	Sololá	717	San Juan la Laguna	12	San Juan la Laguna	11	Noviembre	2023-10-11T00:00:00	2024-11-08T22:00:00	3	Temperatura mínima	17.8
88420	7	Sololá	717	San Juan la Laguna	12	San Juan la Laguna	11	Noviembre	2023-10-11T00:00:00	2024-11-08T22:00:00	5	Humedad	75
88421	7	Sololá	717	San Juan la Laguna	12	San Juan la Laguna	11	Noviembre	2023-10-11T00:00:00	2024-11-08T22:00:00	6	Velocidad del viento	0
88422	7	Sololá	717	San Juan la Laguna	12	San Juan la Laguna	11	Noviembre	2023-10-11T00:00:00	2024-11-08T22:00:00	7	Dirección del viento	0
88423	7	Sololá	717	San Juan la Laguna	12	San Juan la Laguna	11	Noviembre	2023-10-11T00:00:00	2024-11-08T22:00:00	1	Precipitación	0
88424	7	Sololá	717	San Juan la Laguna	12	San Juan la Laguna	11	Noviembre	2023-10-11T00:00:00	2024-11-08T22:00:00	8	Radiación solar	0
88425	7	Sololá	717	San Juan la Laguna	12	San Juan la Laguna	11	Noviembre	2023-10-11T00:00:00	2024-11-08T23:00:00	2	Temperatura media	20.2
88426	7	Sololá	717	San Juan la Laguna	12	San Juan la Laguna	11	Noviembre	2023-10-11T00:00:00	2024-11-08T23:00:00	4	Temperatura máxima	21.2
88427	7	Sololá	717	San Juan la Laguna	12	San Juan la Laguna	11	Noviembre	2023-10-11T00:00:00	2024-11-08T23:00:00	3	Temperatura mínima	19.3
88428	7	Sololá	717	San Juan la Laguna	12	San Juan la Laguna	11	Noviembre	2023-10-11T00:00:00	2024-11-08T23:00:00	5	Humedad	77
88429	7	Sololá	717	San Juan la Laguna	12	San Juan la Laguna	11	Noviembre	2023-10-11T00:00:00	2024-11-08T23:00:00	6	Velocidad del viento	1.6
88430	7	Sololá	717	San Juan la Laguna	12	San Juan la Laguna	11	Noviembre	2023-10-11T00:00:00	2024-11-08T23:00:00	7	Dirección del viento	1.61
88431	7	Sololá	717	San Juan la Laguna	12	San Juan la Laguna	11	Noviembre	2023-10-11T00:00:00	2024-11-08T23:00:00	1	Precipitación	0
88432	7	Sololá	717	San Juan la Laguna	12	San Juan la Laguna	11	Noviembre	2023-10-11T00:00:00	2024-11-08T23:00:00	8	Radiación solar	0
88433	7	Sololá	717	San Juan la Laguna	12	San Juan la Laguna	11	Noviembre	2023-11-11T00:00:00	2024-11-08T00:00:00	2	Temperatura media	18.8
88434	7	Sololá	717	San Juan la Laguna	12	San Juan la Laguna	11	Noviembre	2023-11-11T00:00:00	2024-11-08T00:00:00	4	Temperatura máxima	20.2
88435	7	Sololá	717	San Juan la Laguna	12	San Juan la Laguna	11	Noviembre	2023-11-11T00:00:00	2024-11-08T00:00:00	3	Temperatura mínima	18.8
88436	7	Sololá	717	San Juan la Laguna	12	San Juan la Laguna	11	Noviembre	2023-11-11T00:00:00	2024-11-08T00:00:00	5	Humedad	81
88437	7	Sololá	717	San Juan la Laguna	12	San Juan la Laguna	11	Noviembre	2023-11-11T00:00:00	2024-11-08T00:00:00	6	Velocidad del viento	0
88438	7	Sololá	717	San Juan la Laguna	12	San Juan la Laguna	11	Noviembre	2023-11-11T00:00:00	2024-11-08T00:00:00	7	Dirección del viento	0
88439	7	Sololá	717	San Juan la Laguna	12	San Juan la Laguna	11	Noviembre	2023-11-11T00:00:00	2024-11-08T00:00:00	1	Precipitación	0
88440	7	Sololá	717	San Juan la Laguna	12	San Juan la Laguna	11	Noviembre	2023-11-11T00:00:00	2024-11-08T00:00:00	8	Radiación solar	0
88441	7	Sololá	717	San Juan la Laguna	12	San Juan la Laguna	11	Noviembre	2023-11-11T00:00:00	2024-11-08T01:00:00	2	Temperatura media	17.1
88442	7	Sololá	717	San Juan la Laguna	12	San Juan la Laguna	11	Noviembre	2023-11-11T00:00:00	2024-11-08T01:00:00	4	Temperatura máxima	18.8
88443	7	Sololá	717	San Juan la Laguna	12	San Juan la Laguna	11	Noviembre	2023-11-11T00:00:00	2024-11-08T01:00:00	3	Temperatura mínima	17.1
88444	7	Sololá	717	San Juan la Laguna	12	San Juan la Laguna	11	Noviembre	2023-11-11T00:00:00	2024-11-08T01:00:00	5	Humedad	86
88445	7	Sololá	717	San Juan la Laguna	12	San Juan la Laguna	11	Noviembre	2023-11-11T00:00:00	2024-11-08T01:00:00	6	Velocidad del viento	0
88446	7	Sololá	717	San Juan la Laguna	12	San Juan la Laguna	11	Noviembre	2023-11-11T00:00:00	2024-11-08T01:00:00	7	Dirección del viento	0
88447	7	Sololá	717	San Juan la Laguna	12	San Juan la Laguna	11	Noviembre	2023-11-11T00:00:00	2024-11-08T01:00:00	1	Precipitación	0
88448	7	Sololá	717	San Juan la Laguna	12	San Juan la Laguna	11	Noviembre	2023-11-11T00:00:00	2024-11-08T01:00:00	8	Radiación solar	0
88449	7	Sololá	717	San Juan la Laguna	12	San Juan la Laguna	11	Noviembre	2023-11-11T00:00:00	2024-11-08T02:00:00	2	Temperatura media	17.5
88450	7	Sololá	717	San Juan la Laguna	12	San Juan la Laguna	11	Noviembre	2023-11-11T00:00:00	2024-11-08T02:00:00	4	Temperatura máxima	17.8
88451	7	Sololá	717	San Juan la Laguna	12	San Juan la Laguna	11	Noviembre	2023-11-11T00:00:00	2024-11-08T02:00:00	3	Temperatura mínima	17
88452	7	Sololá	717	San Juan la Laguna	12	San Juan la Laguna	11	Noviembre	2023-11-11T00:00:00	2024-11-08T02:00:00	5	Humedad	84
88453	7	Sololá	717	San Juan la Laguna	12	San Juan la Laguna	11	Noviembre	2023-11-11T00:00:00	2024-11-08T02:00:00	6	Velocidad del viento	0
88454	7	Sololá	717	San Juan la Laguna	12	San Juan la Laguna	11	Noviembre	2023-11-11T00:00:00	2024-11-08T02:00:00	7	Dirección del viento	0
88455	7	Sololá	717	San Juan la Laguna	12	San Juan la Laguna	11	Noviembre	2023-11-11T00:00:00	2024-11-08T02:00:00	1	Precipitación	0
88456	7	Sololá	717	San Juan la Laguna	12	San Juan la Laguna	11	Noviembre	2023-11-11T00:00:00	2024-11-08T02:00:00	8	Radiación solar	0
88457	7	Sololá	717	San Juan la Laguna	12	San Juan la Laguna	11	Noviembre	2023-11-11T00:00:00	2024-11-08T03:00:00	2	Temperatura media	17.1
88458	7	Sololá	717	San Juan la Laguna	12	San Juan la Laguna	11	Noviembre	2023-11-11T00:00:00	2024-11-08T03:00:00	4	Temperatura máxima	17.5
88459	7	Sololá	717	San Juan la Laguna	12	San Juan la Laguna	11	Noviembre	2023-11-11T00:00:00	2024-11-08T03:00:00	3	Temperatura mínima	17.1
88460	7	Sololá	717	San Juan la Laguna	12	San Juan la Laguna	11	Noviembre	2023-11-11T00:00:00	2024-11-08T03:00:00	5	Humedad	84
88461	7	Sololá	717	San Juan la Laguna	12	San Juan la Laguna	11	Noviembre	2023-11-11T00:00:00	2024-11-08T03:00:00	6	Velocidad del viento	0
88462	7	Sololá	717	San Juan la Laguna	12	San Juan la Laguna	11	Noviembre	2023-11-11T00:00:00	2024-11-08T03:00:00	7	Dirección del viento	0
88463	7	Sololá	717	San Juan la Laguna	12	San Juan la Laguna	11	Noviembre	2023-11-11T00:00:00	2024-11-08T03:00:00	1	Precipitación	0
88464	7	Sololá	717	San Juan la Laguna	12	San Juan la Laguna	11	Noviembre	2023-11-11T00:00:00	2024-11-08T03:00:00	8	Radiación solar	0
88465	7	Sololá	717	San Juan la Laguna	12	San Juan la Laguna	11	Noviembre	2023-11-11T00:00:00	2024-11-08T04:00:00	2	Temperatura media	16.4
88466	7	Sololá	717	San Juan la Laguna	12	San Juan la Laguna	11	Noviembre	2023-11-11T00:00:00	2024-11-08T04:00:00	4	Temperatura máxima	17.2
88467	7	Sololá	717	San Juan la Laguna	12	San Juan la Laguna	11	Noviembre	2023-11-11T00:00:00	2024-11-08T04:00:00	3	Temperatura mínima	16.4
88468	7	Sololá	717	San Juan la Laguna	12	San Juan la Laguna	11	Noviembre	2023-11-11T00:00:00	2024-11-08T04:00:00	5	Humedad	86
88469	7	Sololá	717	San Juan la Laguna	12	San Juan la Laguna	11	Noviembre	2023-11-11T00:00:00	2024-11-08T04:00:00	6	Velocidad del viento	0
88470	7	Sololá	717	San Juan la Laguna	12	San Juan la Laguna	11	Noviembre	2023-11-11T00:00:00	2024-11-08T04:00:00	7	Dirección del viento	0
88471	7	Sololá	717	San Juan la Laguna	12	San Juan la Laguna	11	Noviembre	2023-11-11T00:00:00	2024-11-08T04:00:00	1	Precipitación	0
88472	7	Sololá	717	San Juan la Laguna	12	San Juan la Laguna	11	Noviembre	2023-11-11T00:00:00	2024-11-08T04:00:00	8	Radiación solar	0
88473	7	Sololá	717	San Juan la Laguna	12	San Juan la Laguna	11	Noviembre	2023-11-11T00:00:00	2024-11-08T05:00:00	2	Temperatura media	16.4
88474	7	Sololá	717	San Juan la Laguna	12	San Juan la Laguna	11	Noviembre	2023-11-11T00:00:00	2024-11-08T05:00:00	4	Temperatura máxima	16.5
88475	7	Sololá	717	San Juan la Laguna	12	San Juan la Laguna	11	Noviembre	2023-11-11T00:00:00	2024-11-08T05:00:00	3	Temperatura mínima	16
88476	7	Sololá	717	San Juan la Laguna	12	San Juan la Laguna	11	Noviembre	2023-11-11T00:00:00	2024-11-08T05:00:00	5	Humedad	86
88477	7	Sololá	717	San Juan la Laguna	12	San Juan la Laguna	11	Noviembre	2023-11-11T00:00:00	2024-11-08T05:00:00	6	Velocidad del viento	0
88478	7	Sololá	717	San Juan la Laguna	12	San Juan la Laguna	11	Noviembre	2023-11-11T00:00:00	2024-11-08T05:00:00	7	Dirección del viento	0
88479	7	Sololá	717	San Juan la Laguna	12	San Juan la Laguna	11	Noviembre	2023-11-11T00:00:00	2024-11-08T05:00:00	1	Precipitación	0
88480	7	Sololá	717	San Juan la Laguna	12	San Juan la Laguna	11	Noviembre	2023-11-11T00:00:00	2024-11-08T05:00:00	8	Radiación solar	0
88481	7	Sololá	717	San Juan la Laguna	12	San Juan la Laguna	11	Noviembre	2023-11-11T00:00:00	2024-11-08T06:00:00	2	Temperatura media	16.5
88482	7	Sololá	717	San Juan la Laguna	12	San Juan la Laguna	11	Noviembre	2023-11-11T00:00:00	2024-11-08T06:00:00	4	Temperatura máxima	16.6
88483	7	Sololá	717	San Juan la Laguna	12	San Juan la Laguna	11	Noviembre	2023-11-11T00:00:00	2024-11-08T06:00:00	3	Temperatura mínima	16.3
88484	7	Sololá	717	San Juan la Laguna	12	San Juan la Laguna	11	Noviembre	2023-11-11T00:00:00	2024-11-08T06:00:00	5	Humedad	88
88485	7	Sololá	717	San Juan la Laguna	12	San Juan la Laguna	11	Noviembre	2023-11-11T00:00:00	2024-11-08T06:00:00	6	Velocidad del viento	0
88486	7	Sololá	717	San Juan la Laguna	12	San Juan la Laguna	11	Noviembre	2023-11-11T00:00:00	2024-11-08T06:00:00	7	Dirección del viento	0
88487	7	Sololá	717	San Juan la Laguna	12	San Juan la Laguna	11	Noviembre	2023-11-11T00:00:00	2024-11-08T06:00:00	1	Precipitación	0
88488	7	Sololá	717	San Juan la Laguna	12	San Juan la Laguna	11	Noviembre	2023-11-11T00:00:00	2024-11-08T06:00:00	8	Radiación solar	0
88489	7	Sololá	717	San Juan la Laguna	12	San Juan la Laguna	11	Noviembre	2023-11-11T00:00:00	2024-11-08T07:00:00	2	Temperatura media	18.1
88490	7	Sololá	717	San Juan la Laguna	12	San Juan la Laguna	11	Noviembre	2023-11-11T00:00:00	2024-11-08T07:00:00	4	Temperatura máxima	18.1
88491	7	Sololá	717	San Juan la Laguna	12	San Juan la Laguna	11	Noviembre	2023-11-11T00:00:00	2024-11-08T07:00:00	3	Temperatura mínima	16.2
88492	7	Sololá	717	San Juan la Laguna	12	San Juan la Laguna	11	Noviembre	2023-11-11T00:00:00	2024-11-08T07:00:00	5	Humedad	84
88493	7	Sololá	717	San Juan la Laguna	12	San Juan la Laguna	11	Noviembre	2023-11-11T00:00:00	2024-11-08T07:00:00	6	Velocidad del viento	0
88494	7	Sololá	717	San Juan la Laguna	12	San Juan la Laguna	11	Noviembre	2023-11-11T00:00:00	2024-11-08T07:00:00	7	Dirección del viento	0
88495	7	Sololá	717	San Juan la Laguna	12	San Juan la Laguna	11	Noviembre	2023-11-11T00:00:00	2024-11-08T07:00:00	1	Precipitación	0
88496	7	Sololá	717	San Juan la Laguna	12	San Juan la Laguna	11	Noviembre	2023-11-11T00:00:00	2024-11-08T07:00:00	8	Radiación solar	22
88497	7	Sololá	717	San Juan la Laguna	12	San Juan la Laguna	11	Noviembre	2023-11-11T00:00:00	2024-11-08T08:00:00	2	Temperatura media	23.3
88498	7	Sololá	717	San Juan la Laguna	12	San Juan la Laguna	11	Noviembre	2023-11-11T00:00:00	2024-11-08T08:00:00	4	Temperatura máxima	23.3
88499	7	Sololá	717	San Juan la Laguna	12	San Juan la Laguna	11	Noviembre	2023-11-11T00:00:00	2024-11-08T08:00:00	3	Temperatura mínima	18.1
88500	7	Sololá	717	San Juan la Laguna	12	San Juan la Laguna	11	Noviembre	2023-11-11T00:00:00	2024-11-08T08:00:00	5	Humedad	62
88501	7	Sololá	717	San Juan la Laguna	12	San Juan la Laguna	11	Noviembre	2023-11-11T00:00:00	2024-11-08T08:00:00	6	Velocidad del viento	1.6
88502	7	Sololá	717	San Juan la Laguna	12	San Juan la Laguna	11	Noviembre	2023-11-11T00:00:00	2024-11-08T08:00:00	7	Dirección del viento	1.61
88503	7	Sololá	717	San Juan la Laguna	12	San Juan la Laguna	11	Noviembre	2023-11-11T00:00:00	2024-11-08T08:00:00	1	Precipitación	0
88504	7	Sololá	717	San Juan la Laguna	12	San Juan la Laguna	11	Noviembre	2023-11-11T00:00:00	2024-11-08T08:00:00	8	Radiación solar	238
88505	7	Sololá	717	San Juan la Laguna	12	San Juan la Laguna	11	Noviembre	2023-11-11T00:00:00	2024-11-08T09:00:00	2	Temperatura media	23.4
88506	7	Sololá	717	San Juan la Laguna	12	San Juan la Laguna	11	Noviembre	2023-11-11T00:00:00	2024-11-08T09:00:00	4	Temperatura máxima	24.2
88507	7	Sololá	717	San Juan la Laguna	12	San Juan la Laguna	11	Noviembre	2023-11-11T00:00:00	2024-11-08T09:00:00	3	Temperatura mínima	23.3
88508	7	Sololá	717	San Juan la Laguna	12	San Juan la Laguna	11	Noviembre	2023-11-11T00:00:00	2024-11-08T09:00:00	5	Humedad	61
88509	7	Sololá	717	San Juan la Laguna	12	San Juan la Laguna	11	Noviembre	2023-11-11T00:00:00	2024-11-08T09:00:00	6	Velocidad del viento	6.4
88510	7	Sololá	717	San Juan la Laguna	12	San Juan la Laguna	11	Noviembre	2023-11-11T00:00:00	2024-11-08T09:00:00	7	Dirección del viento	6.44
88511	7	Sololá	717	San Juan la Laguna	12	San Juan la Laguna	11	Noviembre	2023-11-11T00:00:00	2024-11-08T09:00:00	1	Precipitación	0
88512	7	Sololá	717	San Juan la Laguna	12	San Juan la Laguna	11	Noviembre	2023-11-11T00:00:00	2024-11-08T09:00:00	8	Radiación solar	407
88513	7	Sololá	717	San Juan la Laguna	12	San Juan la Laguna	11	Noviembre	2023-11-11T00:00:00	2024-11-08T10:00:00	2	Temperatura media	25.3
88514	7	Sololá	717	San Juan la Laguna	12	San Juan la Laguna	11	Noviembre	2023-11-11T00:00:00	2024-11-08T10:00:00	4	Temperatura máxima	25.3
88515	7	Sololá	717	San Juan la Laguna	12	San Juan la Laguna	11	Noviembre	2023-11-11T00:00:00	2024-11-08T10:00:00	3	Temperatura mínima	23.3
88516	7	Sololá	717	San Juan la Laguna	12	San Juan la Laguna	11	Noviembre	2023-11-11T00:00:00	2024-11-08T10:00:00	5	Humedad	58
88517	7	Sololá	717	San Juan la Laguna	12	San Juan la Laguna	11	Noviembre	2023-11-11T00:00:00	2024-11-08T10:00:00	6	Velocidad del viento	8
88518	7	Sololá	717	San Juan la Laguna	12	San Juan la Laguna	11	Noviembre	2023-11-11T00:00:00	2024-11-08T10:00:00	7	Dirección del viento	8.05
88519	7	Sololá	717	San Juan la Laguna	12	San Juan la Laguna	11	Noviembre	2023-11-11T00:00:00	2024-11-08T10:00:00	1	Precipitación	0
88520	7	Sololá	717	San Juan la Laguna	12	San Juan la Laguna	11	Noviembre	2023-11-11T00:00:00	2024-11-08T10:00:00	8	Radiación solar	530
88521	7	Sololá	717	San Juan la Laguna	12	San Juan la Laguna	11	Noviembre	2023-11-11T00:00:00	2024-11-08T11:00:00	2	Temperatura media	25.7
88522	7	Sololá	717	San Juan la Laguna	12	San Juan la Laguna	11	Noviembre	2023-11-11T00:00:00	2024-11-08T11:00:00	4	Temperatura máxima	26.3
88523	7	Sololá	717	San Juan la Laguna	12	San Juan la Laguna	11	Noviembre	2023-11-11T00:00:00	2024-11-08T11:00:00	3	Temperatura mínima	25.3
88524	7	Sololá	717	San Juan la Laguna	12	San Juan la Laguna	11	Noviembre	2023-11-11T00:00:00	2024-11-08T11:00:00	5	Humedad	57
88525	7	Sololá	717	San Juan la Laguna	12	San Juan la Laguna	11	Noviembre	2023-11-11T00:00:00	2024-11-08T11:00:00	6	Velocidad del viento	8
88526	7	Sololá	717	San Juan la Laguna	12	San Juan la Laguna	11	Noviembre	2023-11-11T00:00:00	2024-11-08T11:00:00	7	Dirección del viento	8.05
88527	7	Sololá	717	San Juan la Laguna	12	San Juan la Laguna	11	Noviembre	2023-11-11T00:00:00	2024-11-08T11:00:00	1	Precipitación	0
88528	7	Sololá	717	San Juan la Laguna	12	San Juan la Laguna	11	Noviembre	2023-11-11T00:00:00	2024-11-08T11:00:00	8	Radiación solar	668
88529	7	Sololá	717	San Juan la Laguna	12	San Juan la Laguna	11	Noviembre	2023-11-11T00:00:00	2024-11-08T12:00:00	2	Temperatura media	26.8
88530	7	Sololá	717	San Juan la Laguna	12	San Juan la Laguna	11	Noviembre	2023-11-11T00:00:00	2024-11-08T12:00:00	4	Temperatura máxima	26.9
88531	7	Sololá	717	San Juan la Laguna	12	San Juan la Laguna	11	Noviembre	2023-11-11T00:00:00	2024-11-08T12:00:00	3	Temperatura mínima	25
88532	7	Sololá	717	San Juan la Laguna	12	San Juan la Laguna	11	Noviembre	2023-11-11T00:00:00	2024-11-08T12:00:00	5	Humedad	53
88533	7	Sololá	717	San Juan la Laguna	12	San Juan la Laguna	11	Noviembre	2023-11-11T00:00:00	2024-11-08T12:00:00	6	Velocidad del viento	6.4
88534	7	Sololá	717	San Juan la Laguna	12	San Juan la Laguna	11	Noviembre	2023-11-11T00:00:00	2024-11-08T12:00:00	7	Dirección del viento	6.44
88535	7	Sololá	717	San Juan la Laguna	12	San Juan la Laguna	11	Noviembre	2023-11-11T00:00:00	2024-11-08T12:00:00	1	Precipitación	0
88536	7	Sololá	717	San Juan la Laguna	12	San Juan la Laguna	11	Noviembre	2023-11-11T00:00:00	2024-11-08T12:00:00	8	Radiación solar	756
88537	7	Sololá	717	San Juan la Laguna	12	San Juan la Laguna	11	Noviembre	2023-11-11T00:00:00	2024-11-08T13:00:00	2	Temperatura media	26.8
88538	7	Sololá	717	San Juan la Laguna	12	San Juan la Laguna	11	Noviembre	2023-11-11T00:00:00	2024-11-08T13:00:00	4	Temperatura máxima	27.4
88539	7	Sololá	717	San Juan la Laguna	12	San Juan la Laguna	11	Noviembre	2023-11-11T00:00:00	2024-11-08T13:00:00	3	Temperatura mínima	26.3
88540	7	Sololá	717	San Juan la Laguna	12	San Juan la Laguna	11	Noviembre	2023-11-11T00:00:00	2024-11-08T13:00:00	5	Humedad	54
88541	7	Sololá	717	San Juan la Laguna	12	San Juan la Laguna	11	Noviembre	2023-11-11T00:00:00	2024-11-08T13:00:00	6	Velocidad del viento	6.4
88542	7	Sololá	717	San Juan la Laguna	12	San Juan la Laguna	11	Noviembre	2023-11-11T00:00:00	2024-11-08T13:00:00	7	Dirección del viento	6.44
88543	7	Sololá	717	San Juan la Laguna	12	San Juan la Laguna	11	Noviembre	2023-11-11T00:00:00	2024-11-08T13:00:00	1	Precipitación	0
88544	7	Sololá	717	San Juan la Laguna	12	San Juan la Laguna	11	Noviembre	2023-11-11T00:00:00	2024-11-08T13:00:00	8	Radiación solar	768
88545	7	Sololá	717	San Juan la Laguna	12	San Juan la Laguna	11	Noviembre	2023-11-11T00:00:00	2024-11-08T14:00:00	2	Temperatura media	27.3
88546	7	Sololá	717	San Juan la Laguna	12	San Juan la Laguna	11	Noviembre	2023-11-11T00:00:00	2024-11-08T14:00:00	4	Temperatura máxima	27.4
88547	7	Sololá	717	San Juan la Laguna	12	San Juan la Laguna	11	Noviembre	2023-11-11T00:00:00	2024-11-08T14:00:00	3	Temperatura mínima	26.3
88548	7	Sololá	717	San Juan la Laguna	12	San Juan la Laguna	11	Noviembre	2023-11-11T00:00:00	2024-11-08T14:00:00	5	Humedad	48
88549	7	Sololá	717	San Juan la Laguna	12	San Juan la Laguna	11	Noviembre	2023-11-11T00:00:00	2024-11-08T14:00:00	6	Velocidad del viento	4.8
88550	7	Sololá	717	San Juan la Laguna	12	San Juan la Laguna	11	Noviembre	2023-11-11T00:00:00	2024-11-08T14:00:00	7	Dirección del viento	4.83
88551	7	Sololá	717	San Juan la Laguna	12	San Juan la Laguna	11	Noviembre	2023-11-11T00:00:00	2024-11-08T14:00:00	1	Precipitación	0
88552	7	Sololá	717	San Juan la Laguna	12	San Juan la Laguna	11	Noviembre	2023-11-11T00:00:00	2024-11-08T14:00:00	8	Radiación solar	670
88553	7	Sololá	717	San Juan la Laguna	12	San Juan la Laguna	11	Noviembre	2023-11-11T00:00:00	2024-11-08T15:00:00	2	Temperatura media	26.8
88554	7	Sololá	717	San Juan la Laguna	12	San Juan la Laguna	11	Noviembre	2023-11-11T00:00:00	2024-11-08T15:00:00	4	Temperatura máxima	27.3
88555	7	Sololá	717	San Juan la Laguna	12	San Juan la Laguna	11	Noviembre	2023-11-11T00:00:00	2024-11-08T15:00:00	3	Temperatura mínima	26.5
88556	7	Sololá	717	San Juan la Laguna	12	San Juan la Laguna	11	Noviembre	2023-11-11T00:00:00	2024-11-08T15:00:00	5	Humedad	51
88557	7	Sololá	717	San Juan la Laguna	12	San Juan la Laguna	11	Noviembre	2023-11-11T00:00:00	2024-11-08T15:00:00	6	Velocidad del viento	3.2
88558	7	Sololá	717	San Juan la Laguna	12	San Juan la Laguna	11	Noviembre	2023-11-11T00:00:00	2024-11-08T15:00:00	7	Dirección del viento	3.22
88559	7	Sololá	717	San Juan la Laguna	12	San Juan la Laguna	11	Noviembre	2023-11-11T00:00:00	2024-11-08T15:00:00	1	Precipitación	0
88560	7	Sololá	717	San Juan la Laguna	12	San Juan la Laguna	11	Noviembre	2023-11-11T00:00:00	2024-11-08T15:00:00	8	Radiación solar	557
88561	7	Sololá	717	San Juan la Laguna	12	San Juan la Laguna	11	Noviembre	2023-11-11T00:00:00	2024-11-08T16:00:00	2	Temperatura media	25.6
88562	7	Sololá	717	San Juan la Laguna	12	San Juan la Laguna	11	Noviembre	2023-11-11T00:00:00	2024-11-08T16:00:00	4	Temperatura máxima	26.9
88563	7	Sololá	717	San Juan la Laguna	12	San Juan la Laguna	11	Noviembre	2023-11-11T00:00:00	2024-11-08T16:00:00	3	Temperatura mínima	25.6
88564	7	Sololá	717	San Juan la Laguna	12	San Juan la Laguna	11	Noviembre	2023-11-11T00:00:00	2024-11-08T16:00:00	5	Humedad	57
88565	7	Sololá	717	San Juan la Laguna	12	San Juan la Laguna	11	Noviembre	2023-11-11T00:00:00	2024-11-08T16:00:00	6	Velocidad del viento	3.2
88566	7	Sololá	717	San Juan la Laguna	12	San Juan la Laguna	11	Noviembre	2023-11-11T00:00:00	2024-11-08T16:00:00	7	Dirección del viento	3.22
88567	7	Sololá	717	San Juan la Laguna	12	San Juan la Laguna	11	Noviembre	2023-11-11T00:00:00	2024-11-08T16:00:00	1	Precipitación	0
88568	7	Sololá	717	San Juan la Laguna	12	San Juan la Laguna	11	Noviembre	2023-11-11T00:00:00	2024-11-08T16:00:00	8	Radiación solar	291
88569	7	Sololá	717	San Juan la Laguna	12	San Juan la Laguna	11	Noviembre	2023-11-11T00:00:00	2024-11-08T17:00:00	2	Temperatura media	23.8
88570	7	Sololá	717	San Juan la Laguna	12	San Juan la Laguna	11	Noviembre	2023-11-11T00:00:00	2024-11-08T17:00:00	4	Temperatura máxima	25.7
88571	7	Sololá	717	San Juan la Laguna	12	San Juan la Laguna	11	Noviembre	2023-11-11T00:00:00	2024-11-08T17:00:00	3	Temperatura mínima	23.8
88572	7	Sololá	717	San Juan la Laguna	12	San Juan la Laguna	11	Noviembre	2023-11-11T00:00:00	2024-11-08T17:00:00	5	Humedad	61
88573	7	Sololá	717	San Juan la Laguna	12	San Juan la Laguna	11	Noviembre	2023-11-11T00:00:00	2024-11-08T17:00:00	6	Velocidad del viento	4.8
88574	7	Sololá	717	San Juan la Laguna	12	San Juan la Laguna	11	Noviembre	2023-11-11T00:00:00	2024-11-08T17:00:00	7	Dirección del viento	4.83
88575	7	Sololá	717	San Juan la Laguna	12	San Juan la Laguna	11	Noviembre	2023-11-11T00:00:00	2024-11-08T17:00:00	1	Precipitación	0
88576	7	Sololá	717	San Juan la Laguna	12	San Juan la Laguna	11	Noviembre	2023-11-11T00:00:00	2024-11-08T17:00:00	8	Radiación solar	77
88577	7	Sololá	717	San Juan la Laguna	12	San Juan la Laguna	11	Noviembre	2023-11-11T00:00:00	2024-11-08T18:00:00	2	Temperatura media	22.9
88578	7	Sololá	717	San Juan la Laguna	12	San Juan la Laguna	11	Noviembre	2023-11-11T00:00:00	2024-11-08T18:00:00	4	Temperatura máxima	23.8
88579	7	Sololá	717	San Juan la Laguna	12	San Juan la Laguna	11	Noviembre	2023-11-11T00:00:00	2024-11-08T18:00:00	3	Temperatura mínima	22.9
88580	7	Sololá	717	San Juan la Laguna	12	San Juan la Laguna	11	Noviembre	2023-11-11T00:00:00	2024-11-08T18:00:00	5	Humedad	66
88581	7	Sololá	717	San Juan la Laguna	12	San Juan la Laguna	11	Noviembre	2023-11-11T00:00:00	2024-11-08T18:00:00	6	Velocidad del viento	1.6
88582	7	Sololá	717	San Juan la Laguna	12	San Juan la Laguna	11	Noviembre	2023-11-11T00:00:00	2024-11-08T18:00:00	7	Dirección del viento	1.61
88583	7	Sololá	717	San Juan la Laguna	12	San Juan la Laguna	11	Noviembre	2023-11-11T00:00:00	2024-11-08T18:00:00	1	Precipitación	0
88584	7	Sololá	717	San Juan la Laguna	12	San Juan la Laguna	11	Noviembre	2023-11-11T00:00:00	2024-11-08T18:00:00	8	Radiación solar	6
88585	7	Sololá	717	San Juan la Laguna	12	San Juan la Laguna	11	Noviembre	2023-11-11T00:00:00	2024-11-08T19:00:00	2	Temperatura media	22.7
88586	7	Sololá	717	San Juan la Laguna	12	San Juan la Laguna	11	Noviembre	2023-11-11T00:00:00	2024-11-08T19:00:00	4	Temperatura máxima	22.9
88587	7	Sololá	717	San Juan la Laguna	12	San Juan la Laguna	11	Noviembre	2023-11-11T00:00:00	2024-11-08T19:00:00	3	Temperatura mínima	22.7
88588	7	Sololá	717	San Juan la Laguna	12	San Juan la Laguna	11	Noviembre	2023-11-11T00:00:00	2024-11-08T19:00:00	5	Humedad	64
88589	7	Sololá	717	San Juan la Laguna	12	San Juan la Laguna	11	Noviembre	2023-11-11T00:00:00	2024-11-08T19:00:00	6	Velocidad del viento	1.6
88590	7	Sololá	717	San Juan la Laguna	12	San Juan la Laguna	11	Noviembre	2023-11-11T00:00:00	2024-11-08T19:00:00	7	Dirección del viento	1.61
88591	7	Sololá	717	San Juan la Laguna	12	San Juan la Laguna	11	Noviembre	2023-11-11T00:00:00	2024-11-08T19:00:00	1	Precipitación	0
88592	7	Sololá	717	San Juan la Laguna	12	San Juan la Laguna	11	Noviembre	2023-11-11T00:00:00	2024-11-08T19:00:00	8	Radiación solar	0
88593	7	Sololá	717	San Juan la Laguna	12	San Juan la Laguna	11	Noviembre	2023-11-11T00:00:00	2024-11-08T20:00:00	2	Temperatura media	21.9
88594	7	Sololá	717	San Juan la Laguna	12	San Juan la Laguna	11	Noviembre	2023-11-11T00:00:00	2024-11-08T20:00:00	4	Temperatura máxima	22.7
88595	7	Sololá	717	San Juan la Laguna	12	San Juan la Laguna	11	Noviembre	2023-11-11T00:00:00	2024-11-08T20:00:00	3	Temperatura mínima	21.9
88596	7	Sololá	717	San Juan la Laguna	12	San Juan la Laguna	11	Noviembre	2023-11-11T00:00:00	2024-11-08T20:00:00	5	Humedad	66
88597	7	Sololá	717	San Juan la Laguna	12	San Juan la Laguna	11	Noviembre	2023-11-11T00:00:00	2024-11-08T20:00:00	6	Velocidad del viento	4.8
88598	7	Sololá	717	San Juan la Laguna	12	San Juan la Laguna	11	Noviembre	2023-11-11T00:00:00	2024-11-08T20:00:00	7	Dirección del viento	4.83
88599	7	Sololá	717	San Juan la Laguna	12	San Juan la Laguna	11	Noviembre	2023-11-11T00:00:00	2024-11-08T20:00:00	1	Precipitación	0
88600	7	Sololá	717	San Juan la Laguna	12	San Juan la Laguna	11	Noviembre	2023-11-11T00:00:00	2024-11-08T20:00:00	8	Radiación solar	0
88601	7	Sololá	717	San Juan la Laguna	12	San Juan la Laguna	11	Noviembre	2023-11-11T00:00:00	2024-11-08T21:00:00	2	Temperatura media	21.4
88602	7	Sololá	717	San Juan la Laguna	12	San Juan la Laguna	11	Noviembre	2023-11-11T00:00:00	2024-11-08T21:00:00	4	Temperatura máxima	22
88603	7	Sololá	717	San Juan la Laguna	12	San Juan la Laguna	11	Noviembre	2023-11-11T00:00:00	2024-11-08T21:00:00	3	Temperatura mínima	21.4
88604	7	Sololá	717	San Juan la Laguna	12	San Juan la Laguna	11	Noviembre	2023-11-11T00:00:00	2024-11-08T21:00:00	5	Humedad	67
88605	7	Sololá	717	San Juan la Laguna	12	San Juan la Laguna	11	Noviembre	2023-11-11T00:00:00	2024-11-08T21:00:00	6	Velocidad del viento	3.2
88606	7	Sololá	717	San Juan la Laguna	12	San Juan la Laguna	11	Noviembre	2023-11-11T00:00:00	2024-11-08T21:00:00	7	Dirección del viento	3.22
88607	7	Sololá	717	San Juan la Laguna	12	San Juan la Laguna	11	Noviembre	2023-11-11T00:00:00	2024-11-08T21:00:00	1	Precipitación	0
88608	7	Sololá	717	San Juan la Laguna	12	San Juan la Laguna	11	Noviembre	2023-11-11T00:00:00	2024-11-08T21:00:00	8	Radiación solar	0
88609	7	Sololá	717	San Juan la Laguna	12	San Juan la Laguna	11	Noviembre	2023-11-11T00:00:00	2024-11-08T22:00:00	2	Temperatura media	21.5
88610	7	Sololá	717	San Juan la Laguna	12	San Juan la Laguna	11	Noviembre	2023-11-11T00:00:00	2024-11-08T22:00:00	4	Temperatura máxima	21.7
88611	7	Sololá	717	San Juan la Laguna	12	San Juan la Laguna	11	Noviembre	2023-11-11T00:00:00	2024-11-08T22:00:00	3	Temperatura mínima	21.3
88612	7	Sololá	717	San Juan la Laguna	12	San Juan la Laguna	11	Noviembre	2023-11-11T00:00:00	2024-11-08T22:00:00	5	Humedad	67
88613	7	Sololá	717	San Juan la Laguna	12	San Juan la Laguna	11	Noviembre	2023-11-11T00:00:00	2024-11-08T22:00:00	6	Velocidad del viento	0
88614	7	Sololá	717	San Juan la Laguna	12	San Juan la Laguna	11	Noviembre	2023-11-11T00:00:00	2024-11-08T22:00:00	7	Dirección del viento	0
88615	7	Sololá	717	San Juan la Laguna	12	San Juan la Laguna	11	Noviembre	2023-11-11T00:00:00	2024-11-08T22:00:00	1	Precipitación	0
88616	7	Sololá	717	San Juan la Laguna	12	San Juan la Laguna	11	Noviembre	2023-11-11T00:00:00	2024-11-08T22:00:00	8	Radiación solar	0
88617	7	Sololá	717	San Juan la Laguna	12	San Juan la Laguna	11	Noviembre	2023-11-11T00:00:00	2024-11-08T23:00:00	2	Temperatura media	21.5
88618	7	Sololá	717	San Juan la Laguna	12	San Juan la Laguna	11	Noviembre	2023-11-11T00:00:00	2024-11-08T23:00:00	4	Temperatura máxima	21.5
88619	7	Sololá	717	San Juan la Laguna	12	San Juan la Laguna	11	Noviembre	2023-11-11T00:00:00	2024-11-08T23:00:00	3	Temperatura mínima	21.2
88620	7	Sololá	717	San Juan la Laguna	12	San Juan la Laguna	11	Noviembre	2023-11-11T00:00:00	2024-11-08T23:00:00	5	Humedad	69
88621	7	Sololá	717	San Juan la Laguna	12	San Juan la Laguna	11	Noviembre	2023-11-11T00:00:00	2024-11-08T23:00:00	6	Velocidad del viento	0
88622	7	Sololá	717	San Juan la Laguna	12	San Juan la Laguna	11	Noviembre	2023-11-11T00:00:00	2024-11-08T23:00:00	7	Dirección del viento	0
88623	7	Sololá	717	San Juan la Laguna	12	San Juan la Laguna	11	Noviembre	2023-11-11T00:00:00	2024-11-08T23:00:00	1	Precipitación	0
88624	7	Sololá	717	San Juan la Laguna	12	San Juan la Laguna	11	Noviembre	2023-11-11T00:00:00	2024-11-08T23:00:00	8	Radiación solar	0
88625	7	Sololá	717	San Juan la Laguna	12	San Juan la Laguna	11	Noviembre	2023-12-11T00:00:00	2024-11-08T00:00:00	2	Temperatura media	20.3
88626	7	Sololá	717	San Juan la Laguna	12	San Juan la Laguna	11	Noviembre	2023-12-11T00:00:00	2024-11-08T00:00:00	4	Temperatura máxima	21.6
88627	7	Sololá	717	San Juan la Laguna	12	San Juan la Laguna	11	Noviembre	2023-12-11T00:00:00	2024-11-08T00:00:00	3	Temperatura mínima	20.1
88628	7	Sololá	717	San Juan la Laguna	12	San Juan la Laguna	11	Noviembre	2023-12-11T00:00:00	2024-11-08T00:00:00	5	Humedad	73
88629	7	Sololá	717	San Juan la Laguna	12	San Juan la Laguna	11	Noviembre	2023-12-11T00:00:00	2024-11-08T00:00:00	6	Velocidad del viento	0
88630	7	Sololá	717	San Juan la Laguna	12	San Juan la Laguna	11	Noviembre	2023-12-11T00:00:00	2024-11-08T00:00:00	7	Dirección del viento	0
88631	7	Sololá	717	San Juan la Laguna	12	San Juan la Laguna	11	Noviembre	2023-12-11T00:00:00	2024-11-08T00:00:00	1	Precipitación	0
88632	7	Sololá	717	San Juan la Laguna	12	San Juan la Laguna	11	Noviembre	2023-12-11T00:00:00	2024-11-08T00:00:00	8	Radiación solar	0
88633	7	Sololá	717	San Juan la Laguna	12	San Juan la Laguna	11	Noviembre	2023-12-11T00:00:00	2024-11-08T01:00:00	2	Temperatura media	21
88634	7	Sololá	717	San Juan la Laguna	12	San Juan la Laguna	11	Noviembre	2023-12-11T00:00:00	2024-11-08T01:00:00	4	Temperatura máxima	21
88635	7	Sololá	717	San Juan la Laguna	12	San Juan la Laguna	11	Noviembre	2023-12-11T00:00:00	2024-11-08T01:00:00	3	Temperatura mínima	19.7
88636	7	Sololá	717	San Juan la Laguna	12	San Juan la Laguna	11	Noviembre	2023-12-11T00:00:00	2024-11-08T01:00:00	5	Humedad	72
88637	7	Sololá	717	San Juan la Laguna	12	San Juan la Laguna	11	Noviembre	2023-12-11T00:00:00	2024-11-08T01:00:00	6	Velocidad del viento	0
88638	7	Sololá	717	San Juan la Laguna	12	San Juan la Laguna	11	Noviembre	2023-12-11T00:00:00	2024-11-08T01:00:00	7	Dirección del viento	0
88639	7	Sololá	717	San Juan la Laguna	12	San Juan la Laguna	11	Noviembre	2023-12-11T00:00:00	2024-11-08T01:00:00	1	Precipitación	0
88640	7	Sololá	717	San Juan la Laguna	12	San Juan la Laguna	11	Noviembre	2023-12-11T00:00:00	2024-11-08T01:00:00	8	Radiación solar	0
88641	7	Sololá	717	San Juan la Laguna	12	San Juan la Laguna	11	Noviembre	2023-12-11T00:00:00	2024-11-08T02:00:00	2	Temperatura media	21
88642	7	Sololá	717	San Juan la Laguna	12	San Juan la Laguna	11	Noviembre	2023-12-11T00:00:00	2024-11-08T02:00:00	4	Temperatura máxima	21.2
88643	7	Sololá	717	San Juan la Laguna	12	San Juan la Laguna	11	Noviembre	2023-12-11T00:00:00	2024-11-08T02:00:00	3	Temperatura mínima	21
88644	7	Sololá	717	San Juan la Laguna	12	San Juan la Laguna	11	Noviembre	2023-12-11T00:00:00	2024-11-08T02:00:00	5	Humedad	71
88645	7	Sololá	717	San Juan la Laguna	12	San Juan la Laguna	11	Noviembre	2023-12-11T00:00:00	2024-11-08T02:00:00	6	Velocidad del viento	1.6
88646	7	Sololá	717	San Juan la Laguna	12	San Juan la Laguna	11	Noviembre	2023-12-11T00:00:00	2024-11-08T02:00:00	7	Dirección del viento	1.61
88647	7	Sololá	717	San Juan la Laguna	12	San Juan la Laguna	11	Noviembre	2023-12-11T00:00:00	2024-11-08T02:00:00	1	Precipitación	0
88648	7	Sololá	717	San Juan la Laguna	12	San Juan la Laguna	11	Noviembre	2023-12-11T00:00:00	2024-11-08T02:00:00	8	Radiación solar	0
88649	7	Sololá	717	San Juan la Laguna	12	San Juan la Laguna	11	Noviembre	2023-12-11T00:00:00	2024-11-08T03:00:00	2	Temperatura media	18.9
88650	7	Sololá	717	San Juan la Laguna	12	San Juan la Laguna	11	Noviembre	2023-12-11T00:00:00	2024-11-08T03:00:00	4	Temperatura máxima	21
88651	7	Sololá	717	San Juan la Laguna	12	San Juan la Laguna	11	Noviembre	2023-12-11T00:00:00	2024-11-08T03:00:00	3	Temperatura mínima	18.9
88652	7	Sololá	717	San Juan la Laguna	12	San Juan la Laguna	11	Noviembre	2023-12-11T00:00:00	2024-11-08T03:00:00	5	Humedad	79
88653	7	Sololá	717	San Juan la Laguna	12	San Juan la Laguna	11	Noviembre	2023-12-11T00:00:00	2024-11-08T03:00:00	6	Velocidad del viento	0
88654	7	Sololá	717	San Juan la Laguna	12	San Juan la Laguna	11	Noviembre	2023-12-11T00:00:00	2024-11-08T03:00:00	7	Dirección del viento	0
88655	7	Sololá	717	San Juan la Laguna	12	San Juan la Laguna	11	Noviembre	2023-12-11T00:00:00	2024-11-08T03:00:00	1	Precipitación	0
88656	7	Sololá	717	San Juan la Laguna	12	San Juan la Laguna	11	Noviembre	2023-12-11T00:00:00	2024-11-08T03:00:00	8	Radiación solar	0
88657	7	Sololá	717	San Juan la Laguna	12	San Juan la Laguna	11	Noviembre	2023-12-11T00:00:00	2024-11-08T04:00:00	2	Temperatura media	18.3
88658	7	Sololá	717	San Juan la Laguna	12	San Juan la Laguna	11	Noviembre	2023-12-11T00:00:00	2024-11-08T04:00:00	4	Temperatura máxima	18.9
88659	7	Sololá	717	San Juan la Laguna	12	San Juan la Laguna	11	Noviembre	2023-12-11T00:00:00	2024-11-08T04:00:00	3	Temperatura mínima	18.3
88660	7	Sololá	717	San Juan la Laguna	12	San Juan la Laguna	11	Noviembre	2023-12-11T00:00:00	2024-11-08T04:00:00	5	Humedad	81
88661	7	Sololá	717	San Juan la Laguna	12	San Juan la Laguna	11	Noviembre	2023-12-11T00:00:00	2024-11-08T04:00:00	6	Velocidad del viento	0
88662	7	Sololá	717	San Juan la Laguna	12	San Juan la Laguna	11	Noviembre	2023-12-11T00:00:00	2024-11-08T04:00:00	7	Dirección del viento	0
88663	7	Sololá	717	San Juan la Laguna	12	San Juan la Laguna	11	Noviembre	2023-12-11T00:00:00	2024-11-08T04:00:00	1	Precipitación	0
88664	7	Sololá	717	San Juan la Laguna	12	San Juan la Laguna	11	Noviembre	2023-12-11T00:00:00	2024-11-08T04:00:00	8	Radiación solar	0
88665	7	Sololá	717	San Juan la Laguna	12	San Juan la Laguna	11	Noviembre	2023-12-11T00:00:00	2024-11-08T05:00:00	2	Temperatura media	18.3
88666	7	Sololá	717	San Juan la Laguna	12	San Juan la Laguna	11	Noviembre	2023-12-11T00:00:00	2024-11-08T05:00:00	4	Temperatura máxima	18.4
88667	7	Sololá	717	San Juan la Laguna	12	San Juan la Laguna	11	Noviembre	2023-12-11T00:00:00	2024-11-08T05:00:00	3	Temperatura mínima	17.4
88668	7	Sololá	717	San Juan la Laguna	12	San Juan la Laguna	11	Noviembre	2023-12-11T00:00:00	2024-11-08T05:00:00	5	Humedad	82
88669	7	Sololá	717	San Juan la Laguna	12	San Juan la Laguna	11	Noviembre	2023-12-11T00:00:00	2024-11-08T05:00:00	6	Velocidad del viento	0
88670	7	Sololá	717	San Juan la Laguna	12	San Juan la Laguna	11	Noviembre	2023-12-11T00:00:00	2024-11-08T05:00:00	7	Dirección del viento	0
88671	7	Sololá	717	San Juan la Laguna	12	San Juan la Laguna	11	Noviembre	2023-12-11T00:00:00	2024-11-08T05:00:00	1	Precipitación	0
88672	7	Sololá	717	San Juan la Laguna	12	San Juan la Laguna	11	Noviembre	2023-12-11T00:00:00	2024-11-08T05:00:00	8	Radiación solar	0
88673	7	Sololá	717	San Juan la Laguna	12	San Juan la Laguna	11	Noviembre	2023-12-11T00:00:00	2024-11-08T06:00:00	2	Temperatura media	20.7
88674	7	Sololá	717	San Juan la Laguna	12	San Juan la Laguna	11	Noviembre	2023-12-11T00:00:00	2024-11-08T06:00:00	4	Temperatura máxima	20.7
88675	7	Sololá	717	San Juan la Laguna	12	San Juan la Laguna	11	Noviembre	2023-12-11T00:00:00	2024-11-08T06:00:00	3	Temperatura mínima	18.3
88676	7	Sololá	717	San Juan la Laguna	12	San Juan la Laguna	11	Noviembre	2023-12-11T00:00:00	2024-11-08T06:00:00	5	Humedad	72
88677	7	Sololá	717	San Juan la Laguna	12	San Juan la Laguna	11	Noviembre	2023-12-11T00:00:00	2024-11-08T06:00:00	6	Velocidad del viento	1.6
88678	7	Sololá	717	San Juan la Laguna	12	San Juan la Laguna	11	Noviembre	2023-12-11T00:00:00	2024-11-08T06:00:00	7	Dirección del viento	1.61
88679	7	Sololá	717	San Juan la Laguna	12	San Juan la Laguna	11	Noviembre	2023-12-11T00:00:00	2024-11-08T06:00:00	1	Precipitación	0
88680	7	Sololá	717	San Juan la Laguna	12	San Juan la Laguna	11	Noviembre	2023-12-11T00:00:00	2024-11-08T06:00:00	8	Radiación solar	0
88681	7	Sololá	717	San Juan la Laguna	12	San Juan la Laguna	11	Noviembre	2023-12-11T00:00:00	2024-11-08T07:00:00	2	Temperatura media	21.6
88682	7	Sololá	717	San Juan la Laguna	12	San Juan la Laguna	11	Noviembre	2023-12-11T00:00:00	2024-11-08T07:00:00	4	Temperatura máxima	21.8
88683	7	Sololá	717	San Juan la Laguna	12	San Juan la Laguna	11	Noviembre	2023-12-11T00:00:00	2024-11-08T07:00:00	3	Temperatura mínima	20.8
88684	7	Sololá	717	San Juan la Laguna	12	San Juan la Laguna	11	Noviembre	2023-12-11T00:00:00	2024-11-08T07:00:00	5	Humedad	67
88685	7	Sololá	717	San Juan la Laguna	12	San Juan la Laguna	11	Noviembre	2023-12-11T00:00:00	2024-11-08T07:00:00	6	Velocidad del viento	4.8
88686	7	Sololá	717	San Juan la Laguna	12	San Juan la Laguna	11	Noviembre	2023-12-11T00:00:00	2024-11-08T07:00:00	7	Dirección del viento	4.83
88687	7	Sololá	717	San Juan la Laguna	12	San Juan la Laguna	11	Noviembre	2023-12-11T00:00:00	2024-11-08T07:00:00	1	Precipitación	0
88688	7	Sololá	717	San Juan la Laguna	12	San Juan la Laguna	11	Noviembre	2023-12-11T00:00:00	2024-11-08T07:00:00	8	Radiación solar	37
88689	7	Sololá	717	San Juan la Laguna	12	San Juan la Laguna	11	Noviembre	2023-12-11T00:00:00	2024-11-08T08:00:00	2	Temperatura media	22.8
88690	7	Sololá	717	San Juan la Laguna	12	San Juan la Laguna	11	Noviembre	2023-12-11T00:00:00	2024-11-08T08:00:00	4	Temperatura máxima	22.8
88691	7	Sololá	717	San Juan la Laguna	12	San Juan la Laguna	11	Noviembre	2023-12-11T00:00:00	2024-11-08T08:00:00	3	Temperatura mínima	21.5
88692	7	Sololá	717	San Juan la Laguna	12	San Juan la Laguna	11	Noviembre	2023-12-11T00:00:00	2024-11-08T08:00:00	5	Humedad	64
88693	7	Sololá	717	San Juan la Laguna	12	San Juan la Laguna	11	Noviembre	2023-12-11T00:00:00	2024-11-08T08:00:00	6	Velocidad del viento	1.6
88694	7	Sololá	717	San Juan la Laguna	12	San Juan la Laguna	11	Noviembre	2023-12-11T00:00:00	2024-11-08T08:00:00	7	Dirección del viento	1.61
88695	7	Sololá	717	San Juan la Laguna	12	San Juan la Laguna	11	Noviembre	2023-12-11T00:00:00	2024-11-08T08:00:00	1	Precipitación	0
88696	7	Sololá	717	San Juan la Laguna	12	San Juan la Laguna	11	Noviembre	2023-12-11T00:00:00	2024-11-08T08:00:00	8	Radiación solar	241
88697	7	Sololá	717	San Juan la Laguna	12	San Juan la Laguna	11	Noviembre	2023-12-11T00:00:00	2024-11-08T09:00:00	2	Temperatura media	24.3
88698	7	Sololá	717	San Juan la Laguna	12	San Juan la Laguna	11	Noviembre	2023-12-11T00:00:00	2024-11-08T09:00:00	4	Temperatura máxima	24.3
88699	7	Sololá	717	San Juan la Laguna	12	San Juan la Laguna	11	Noviembre	2023-12-11T00:00:00	2024-11-08T09:00:00	3	Temperatura mínima	22.8
88700	7	Sololá	717	San Juan la Laguna	12	San Juan la Laguna	11	Noviembre	2023-12-11T00:00:00	2024-11-08T09:00:00	5	Humedad	56
88701	7	Sololá	717	San Juan la Laguna	12	San Juan la Laguna	11	Noviembre	2023-12-11T00:00:00	2024-11-08T09:00:00	6	Velocidad del viento	4.8
88702	7	Sololá	717	San Juan la Laguna	12	San Juan la Laguna	11	Noviembre	2023-12-11T00:00:00	2024-11-08T09:00:00	7	Dirección del viento	4.83
88703	7	Sololá	717	San Juan la Laguna	12	San Juan la Laguna	11	Noviembre	2023-12-11T00:00:00	2024-11-08T09:00:00	1	Precipitación	0
88704	7	Sololá	717	San Juan la Laguna	12	San Juan la Laguna	11	Noviembre	2023-12-11T00:00:00	2024-11-08T09:00:00	8	Radiación solar	447
88705	7	Sololá	717	San Juan la Laguna	12	San Juan la Laguna	11	Noviembre	2023-12-11T00:00:00	2024-11-08T10:00:00	2	Temperatura media	25.3
88706	7	Sololá	717	San Juan la Laguna	12	San Juan la Laguna	11	Noviembre	2023-12-11T00:00:00	2024-11-08T10:00:00	4	Temperatura máxima	25.3
88707	7	Sololá	717	San Juan la Laguna	12	San Juan la Laguna	11	Noviembre	2023-12-11T00:00:00	2024-11-08T10:00:00	3	Temperatura mínima	24.2
88708	7	Sololá	717	San Juan la Laguna	12	San Juan la Laguna	11	Noviembre	2023-12-11T00:00:00	2024-11-08T10:00:00	5	Humedad	54
88709	7	Sololá	717	San Juan la Laguna	12	San Juan la Laguna	11	Noviembre	2023-12-11T00:00:00	2024-11-08T10:00:00	6	Velocidad del viento	3.2
88710	7	Sololá	717	San Juan la Laguna	12	San Juan la Laguna	11	Noviembre	2023-12-11T00:00:00	2024-11-08T10:00:00	7	Dirección del viento	3.22
88711	7	Sololá	717	San Juan la Laguna	12	San Juan la Laguna	11	Noviembre	2023-12-11T00:00:00	2024-11-08T10:00:00	1	Precipitación	0
88712	7	Sololá	717	San Juan la Laguna	12	San Juan la Laguna	11	Noviembre	2023-12-11T00:00:00	2024-11-08T10:00:00	8	Radiación solar	612
88713	7	Sololá	717	San Juan la Laguna	12	San Juan la Laguna	11	Noviembre	2023-12-11T00:00:00	2024-11-08T11:00:00	2	Temperatura media	25.4
88714	7	Sololá	717	San Juan la Laguna	12	San Juan la Laguna	11	Noviembre	2023-12-11T00:00:00	2024-11-08T11:00:00	4	Temperatura máxima	25.8
88715	7	Sololá	717	San Juan la Laguna	12	San Juan la Laguna	11	Noviembre	2023-12-11T00:00:00	2024-11-08T11:00:00	3	Temperatura mínima	24.9
88716	7	Sololá	717	San Juan la Laguna	12	San Juan la Laguna	11	Noviembre	2023-12-11T00:00:00	2024-11-08T11:00:00	5	Humedad	54
88717	7	Sololá	717	San Juan la Laguna	12	San Juan la Laguna	11	Noviembre	2023-12-11T00:00:00	2024-11-08T11:00:00	6	Velocidad del viento	4.8
88718	7	Sololá	717	San Juan la Laguna	12	San Juan la Laguna	11	Noviembre	2023-12-11T00:00:00	2024-11-08T11:00:00	7	Dirección del viento	4.83
88719	7	Sololá	717	San Juan la Laguna	12	San Juan la Laguna	11	Noviembre	2023-12-11T00:00:00	2024-11-08T11:00:00	1	Precipitación	0
88720	7	Sololá	717	San Juan la Laguna	12	San Juan la Laguna	11	Noviembre	2023-12-11T00:00:00	2024-11-08T11:00:00	8	Radiación solar	615
88721	7	Sololá	717	San Juan la Laguna	12	San Juan la Laguna	11	Noviembre	2023-12-11T00:00:00	2024-11-08T12:00:00	2	Temperatura media	26.2
88722	7	Sololá	717	San Juan la Laguna	12	San Juan la Laguna	11	Noviembre	2023-12-11T00:00:00	2024-11-08T12:00:00	4	Temperatura máxima	26.3
88723	7	Sololá	717	San Juan la Laguna	12	San Juan la Laguna	11	Noviembre	2023-12-11T00:00:00	2024-11-08T12:00:00	3	Temperatura mínima	25.3
88724	7	Sololá	717	San Juan la Laguna	12	San Juan la Laguna	11	Noviembre	2023-12-11T00:00:00	2024-11-08T12:00:00	5	Humedad	52
88725	7	Sololá	717	San Juan la Laguna	12	San Juan la Laguna	11	Noviembre	2023-12-11T00:00:00	2024-11-08T12:00:00	6	Velocidad del viento	8
88726	7	Sololá	717	San Juan la Laguna	12	San Juan la Laguna	11	Noviembre	2023-12-11T00:00:00	2024-11-08T12:00:00	7	Dirección del viento	8.05
88727	7	Sololá	717	San Juan la Laguna	12	San Juan la Laguna	11	Noviembre	2023-12-11T00:00:00	2024-11-08T12:00:00	1	Precipitación	0
88728	7	Sololá	717	San Juan la Laguna	12	San Juan la Laguna	11	Noviembre	2023-12-11T00:00:00	2024-11-08T12:00:00	8	Radiación solar	813
88729	7	Sololá	717	San Juan la Laguna	12	San Juan la Laguna	11	Noviembre	2023-12-11T00:00:00	2024-11-08T13:00:00	2	Temperatura media	27.1
88730	7	Sololá	717	San Juan la Laguna	12	San Juan la Laguna	11	Noviembre	2023-12-11T00:00:00	2024-11-08T13:00:00	4	Temperatura máxima	27.1
88731	7	Sololá	717	San Juan la Laguna	12	San Juan la Laguna	11	Noviembre	2023-12-11T00:00:00	2024-11-08T13:00:00	3	Temperatura mínima	26.1
88732	7	Sololá	717	San Juan la Laguna	12	San Juan la Laguna	11	Noviembre	2023-12-11T00:00:00	2024-11-08T13:00:00	5	Humedad	47
88733	7	Sololá	717	San Juan la Laguna	12	San Juan la Laguna	11	Noviembre	2023-12-11T00:00:00	2024-11-08T13:00:00	6	Velocidad del viento	8
88734	7	Sololá	717	San Juan la Laguna	12	San Juan la Laguna	11	Noviembre	2023-12-11T00:00:00	2024-11-08T13:00:00	7	Dirección del viento	8.05
88735	7	Sololá	717	San Juan la Laguna	12	San Juan la Laguna	11	Noviembre	2023-12-11T00:00:00	2024-11-08T13:00:00	1	Precipitación	0
88736	7	Sololá	717	San Juan la Laguna	12	San Juan la Laguna	11	Noviembre	2023-12-11T00:00:00	2024-11-08T13:00:00	8	Radiación solar	841
88737	7	Sololá	717	San Juan la Laguna	12	San Juan la Laguna	11	Noviembre	2023-12-11T00:00:00	2024-11-08T14:00:00	2	Temperatura media	26.9
88738	7	Sololá	717	San Juan la Laguna	12	San Juan la Laguna	11	Noviembre	2023-12-11T00:00:00	2024-11-08T14:00:00	4	Temperatura máxima	27.2
88739	7	Sololá	717	San Juan la Laguna	12	San Juan la Laguna	11	Noviembre	2023-12-11T00:00:00	2024-11-08T14:00:00	3	Temperatura mínima	26.8
88740	7	Sololá	717	San Juan la Laguna	12	San Juan la Laguna	11	Noviembre	2023-12-11T00:00:00	2024-11-08T14:00:00	5	Humedad	47
88741	7	Sololá	717	San Juan la Laguna	12	San Juan la Laguna	11	Noviembre	2023-12-11T00:00:00	2024-11-08T14:00:00	6	Velocidad del viento	8
88742	7	Sololá	717	San Juan la Laguna	12	San Juan la Laguna	11	Noviembre	2023-12-11T00:00:00	2024-11-08T14:00:00	7	Dirección del viento	8.05
88743	7	Sololá	717	San Juan la Laguna	12	San Juan la Laguna	11	Noviembre	2023-12-11T00:00:00	2024-11-08T14:00:00	1	Precipitación	0
88744	7	Sololá	717	San Juan la Laguna	12	San Juan la Laguna	11	Noviembre	2023-12-11T00:00:00	2024-11-08T14:00:00	8	Radiación solar	774
88745	7	Sololá	717	San Juan la Laguna	12	San Juan la Laguna	11	Noviembre	2023-12-11T00:00:00	2024-11-08T15:00:00	2	Temperatura media	27.2
88746	7	Sololá	717	San Juan la Laguna	12	San Juan la Laguna	11	Noviembre	2023-12-11T00:00:00	2024-11-08T15:00:00	4	Temperatura máxima	27.2
88747	7	Sololá	717	San Juan la Laguna	12	San Juan la Laguna	11	Noviembre	2023-12-11T00:00:00	2024-11-08T15:00:00	3	Temperatura mínima	26.3
88748	7	Sololá	717	San Juan la Laguna	12	San Juan la Laguna	11	Noviembre	2023-12-11T00:00:00	2024-11-08T15:00:00	5	Humedad	48
88749	7	Sololá	717	San Juan la Laguna	12	San Juan la Laguna	11	Noviembre	2023-12-11T00:00:00	2024-11-08T15:00:00	6	Velocidad del viento	6.4
88750	7	Sololá	717	San Juan la Laguna	12	San Juan la Laguna	11	Noviembre	2023-12-11T00:00:00	2024-11-08T15:00:00	7	Dirección del viento	6.44
88751	7	Sololá	717	San Juan la Laguna	12	San Juan la Laguna	11	Noviembre	2023-12-11T00:00:00	2024-11-08T15:00:00	1	Precipitación	0
88752	7	Sololá	717	San Juan la Laguna	12	San Juan la Laguna	11	Noviembre	2023-12-11T00:00:00	2024-11-08T15:00:00	8	Radiación solar	536
88753	7	Sololá	717	San Juan la Laguna	12	San Juan la Laguna	11	Noviembre	2023-12-11T00:00:00	2024-11-08T16:00:00	2	Temperatura media	24.8
88754	7	Sololá	717	San Juan la Laguna	12	San Juan la Laguna	11	Noviembre	2023-12-11T00:00:00	2024-11-08T16:00:00	4	Temperatura máxima	27.2
88755	7	Sololá	717	San Juan la Laguna	12	San Juan la Laguna	11	Noviembre	2023-12-11T00:00:00	2024-11-08T16:00:00	3	Temperatura mínima	24.8
88756	7	Sololá	717	San Juan la Laguna	12	San Juan la Laguna	11	Noviembre	2023-12-11T00:00:00	2024-11-08T16:00:00	5	Humedad	57
88757	7	Sololá	717	San Juan la Laguna	12	San Juan la Laguna	11	Noviembre	2023-12-11T00:00:00	2024-11-08T16:00:00	6	Velocidad del viento	8
88758	7	Sololá	717	San Juan la Laguna	12	San Juan la Laguna	11	Noviembre	2023-12-11T00:00:00	2024-11-08T16:00:00	7	Dirección del viento	8.05
88759	7	Sololá	717	San Juan la Laguna	12	San Juan la Laguna	11	Noviembre	2023-12-11T00:00:00	2024-11-08T16:00:00	1	Precipitación	0
88760	7	Sololá	717	San Juan la Laguna	12	San Juan la Laguna	11	Noviembre	2023-12-11T00:00:00	2024-11-08T16:00:00	8	Radiación solar	300
88761	7	Sololá	717	San Juan la Laguna	12	San Juan la Laguna	11	Noviembre	2023-12-11T00:00:00	2024-11-08T17:00:00	2	Temperatura media	23.2
88762	7	Sololá	717	San Juan la Laguna	12	San Juan la Laguna	11	Noviembre	2023-12-11T00:00:00	2024-11-08T17:00:00	4	Temperatura máxima	24.8
88763	7	Sololá	717	San Juan la Laguna	12	San Juan la Laguna	11	Noviembre	2023-12-11T00:00:00	2024-11-08T17:00:00	3	Temperatura mínima	23.2
88764	7	Sololá	717	San Juan la Laguna	12	San Juan la Laguna	11	Noviembre	2023-12-11T00:00:00	2024-11-08T17:00:00	5	Humedad	61
88765	7	Sololá	717	San Juan la Laguna	12	San Juan la Laguna	11	Noviembre	2023-12-11T00:00:00	2024-11-08T17:00:00	6	Velocidad del viento	11.3
88766	7	Sololá	717	San Juan la Laguna	12	San Juan la Laguna	11	Noviembre	2023-12-11T00:00:00	2024-11-08T17:00:00	7	Dirección del viento	11.27
88767	7	Sololá	717	San Juan la Laguna	12	San Juan la Laguna	11	Noviembre	2023-12-11T00:00:00	2024-11-08T17:00:00	1	Precipitación	0
88768	7	Sololá	717	San Juan la Laguna	12	San Juan la Laguna	11	Noviembre	2023-12-11T00:00:00	2024-11-08T17:00:00	8	Radiación solar	54
88769	7	Sololá	717	San Juan la Laguna	12	San Juan la Laguna	11	Noviembre	2023-12-11T00:00:00	2024-11-08T18:00:00	2	Temperatura media	22.8
88770	7	Sololá	717	San Juan la Laguna	12	San Juan la Laguna	11	Noviembre	2023-12-11T00:00:00	2024-11-08T18:00:00	4	Temperatura máxima	23.3
88771	7	Sololá	717	San Juan la Laguna	12	San Juan la Laguna	11	Noviembre	2023-12-11T00:00:00	2024-11-08T18:00:00	3	Temperatura mínima	22.8
88772	7	Sololá	717	San Juan la Laguna	12	San Juan la Laguna	11	Noviembre	2023-12-11T00:00:00	2024-11-08T18:00:00	5	Humedad	66
88773	7	Sololá	717	San Juan la Laguna	12	San Juan la Laguna	11	Noviembre	2023-12-11T00:00:00	2024-11-08T18:00:00	6	Velocidad del viento	6.4
88774	7	Sololá	717	San Juan la Laguna	12	San Juan la Laguna	11	Noviembre	2023-12-11T00:00:00	2024-11-08T18:00:00	7	Dirección del viento	6.44
88775	7	Sololá	717	San Juan la Laguna	12	San Juan la Laguna	11	Noviembre	2023-12-11T00:00:00	2024-11-08T18:00:00	1	Precipitación	0
88776	7	Sololá	717	San Juan la Laguna	12	San Juan la Laguna	11	Noviembre	2023-12-11T00:00:00	2024-11-08T18:00:00	8	Radiación solar	7
88777	7	Sololá	717	San Juan la Laguna	12	San Juan la Laguna	11	Noviembre	2023-12-11T00:00:00	2024-11-08T19:00:00	2	Temperatura media	22.3
88778	7	Sololá	717	San Juan la Laguna	12	San Juan la Laguna	11	Noviembre	2023-12-11T00:00:00	2024-11-08T19:00:00	4	Temperatura máxima	22.8
88779	7	Sololá	717	San Juan la Laguna	12	San Juan la Laguna	11	Noviembre	2023-12-11T00:00:00	2024-11-08T19:00:00	3	Temperatura mínima	22.2
88780	7	Sololá	717	San Juan la Laguna	12	San Juan la Laguna	11	Noviembre	2023-12-11T00:00:00	2024-11-08T19:00:00	5	Humedad	62
88781	7	Sololá	717	San Juan la Laguna	12	San Juan la Laguna	11	Noviembre	2023-12-11T00:00:00	2024-11-08T19:00:00	6	Velocidad del viento	8
88782	7	Sololá	717	San Juan la Laguna	12	San Juan la Laguna	11	Noviembre	2023-12-11T00:00:00	2024-11-08T19:00:00	7	Dirección del viento	8.05
88783	7	Sololá	717	San Juan la Laguna	12	San Juan la Laguna	11	Noviembre	2023-12-11T00:00:00	2024-11-08T19:00:00	1	Precipitación	0
88784	7	Sololá	717	San Juan la Laguna	12	San Juan la Laguna	11	Noviembre	2023-12-11T00:00:00	2024-11-08T19:00:00	8	Radiación solar	0
88785	7	Sololá	717	San Juan la Laguna	12	San Juan la Laguna	11	Noviembre	2023-12-11T00:00:00	2024-11-08T20:00:00	2	Temperatura media	21.8
88786	7	Sololá	717	San Juan la Laguna	12	San Juan la Laguna	11	Noviembre	2023-12-11T00:00:00	2024-11-08T20:00:00	4	Temperatura máxima	22.3
88787	7	Sololá	717	San Juan la Laguna	12	San Juan la Laguna	11	Noviembre	2023-12-11T00:00:00	2024-11-08T20:00:00	3	Temperatura mínima	21.8
88788	7	Sololá	717	San Juan la Laguna	12	San Juan la Laguna	11	Noviembre	2023-12-11T00:00:00	2024-11-08T20:00:00	5	Humedad	62
88789	7	Sololá	717	San Juan la Laguna	12	San Juan la Laguna	11	Noviembre	2023-12-11T00:00:00	2024-11-08T20:00:00	6	Velocidad del viento	8
88790	7	Sololá	717	San Juan la Laguna	12	San Juan la Laguna	11	Noviembre	2023-12-11T00:00:00	2024-11-08T20:00:00	7	Dirección del viento	8.05
88791	7	Sololá	717	San Juan la Laguna	12	San Juan la Laguna	11	Noviembre	2023-12-11T00:00:00	2024-11-08T20:00:00	1	Precipitación	0
88792	7	Sololá	717	San Juan la Laguna	12	San Juan la Laguna	11	Noviembre	2023-12-11T00:00:00	2024-11-08T20:00:00	8	Radiación solar	0
88793	7	Sololá	717	San Juan la Laguna	12	San Juan la Laguna	11	Noviembre	2023-12-11T00:00:00	2024-11-08T21:00:00	2	Temperatura media	21.3
88794	7	Sololá	717	San Juan la Laguna	12	San Juan la Laguna	11	Noviembre	2023-12-11T00:00:00	2024-11-08T21:00:00	4	Temperatura máxima	21.8
88795	7	Sololá	717	San Juan la Laguna	12	San Juan la Laguna	11	Noviembre	2023-12-11T00:00:00	2024-11-08T21:00:00	3	Temperatura mínima	21.1
88796	7	Sololá	717	San Juan la Laguna	12	San Juan la Laguna	11	Noviembre	2023-12-11T00:00:00	2024-11-08T21:00:00	5	Humedad	64
88797	7	Sololá	717	San Juan la Laguna	12	San Juan la Laguna	11	Noviembre	2023-12-11T00:00:00	2024-11-08T21:00:00	6	Velocidad del viento	9.7
88798	7	Sololá	717	San Juan la Laguna	12	San Juan la Laguna	11	Noviembre	2023-12-11T00:00:00	2024-11-08T21:00:00	7	Dirección del viento	9.66
88799	7	Sololá	717	San Juan la Laguna	12	San Juan la Laguna	11	Noviembre	2023-12-11T00:00:00	2024-11-08T21:00:00	1	Precipitación	0
88800	7	Sololá	717	San Juan la Laguna	12	San Juan la Laguna	11	Noviembre	2023-12-11T00:00:00	2024-11-08T21:00:00	8	Radiación solar	0
88801	7	Sololá	717	San Juan la Laguna	12	San Juan la Laguna	11	Noviembre	2023-12-11T00:00:00	2024-11-08T22:00:00	2	Temperatura media	21.2
88802	7	Sololá	717	San Juan la Laguna	12	San Juan la Laguna	11	Noviembre	2023-12-11T00:00:00	2024-11-08T22:00:00	4	Temperatura máxima	21.3
88803	7	Sololá	717	San Juan la Laguna	12	San Juan la Laguna	11	Noviembre	2023-12-11T00:00:00	2024-11-08T22:00:00	3	Temperatura mínima	20.8
88804	7	Sololá	717	San Juan la Laguna	12	San Juan la Laguna	11	Noviembre	2023-12-11T00:00:00	2024-11-08T22:00:00	5	Humedad	67
88805	7	Sololá	717	San Juan la Laguna	12	San Juan la Laguna	11	Noviembre	2023-12-11T00:00:00	2024-11-08T22:00:00	6	Velocidad del viento	9.7
88806	7	Sololá	717	San Juan la Laguna	12	San Juan la Laguna	11	Noviembre	2023-12-11T00:00:00	2024-11-08T22:00:00	7	Dirección del viento	9.66
88807	7	Sololá	717	San Juan la Laguna	12	San Juan la Laguna	11	Noviembre	2023-12-11T00:00:00	2024-11-08T22:00:00	1	Precipitación	0
88808	7	Sololá	717	San Juan la Laguna	12	San Juan la Laguna	11	Noviembre	2023-12-11T00:00:00	2024-11-08T22:00:00	8	Radiación solar	0
88809	7	Sololá	717	San Juan la Laguna	12	San Juan la Laguna	11	Noviembre	2023-12-11T00:00:00	2024-11-08T23:00:00	2	Temperatura media	20.7
88810	7	Sololá	717	San Juan la Laguna	12	San Juan la Laguna	11	Noviembre	2023-12-11T00:00:00	2024-11-08T23:00:00	4	Temperatura máxima	21.2
88811	7	Sololá	717	San Juan la Laguna	12	San Juan la Laguna	11	Noviembre	2023-12-11T00:00:00	2024-11-08T23:00:00	3	Temperatura mínima	20.6
88812	7	Sololá	717	San Juan la Laguna	12	San Juan la Laguna	11	Noviembre	2023-12-11T00:00:00	2024-11-08T23:00:00	5	Humedad	68
88813	7	Sololá	717	San Juan la Laguna	12	San Juan la Laguna	11	Noviembre	2023-12-11T00:00:00	2024-11-08T23:00:00	6	Velocidad del viento	8
88814	7	Sololá	717	San Juan la Laguna	12	San Juan la Laguna	11	Noviembre	2023-12-11T00:00:00	2024-11-08T23:00:00	7	Dirección del viento	8.05
88815	7	Sololá	717	San Juan la Laguna	12	San Juan la Laguna	11	Noviembre	2023-12-11T00:00:00	2024-11-08T23:00:00	1	Precipitación	0
88816	7	Sololá	717	San Juan la Laguna	12	San Juan la Laguna	11	Noviembre	2023-12-11T00:00:00	2024-11-08T23:00:00	8	Radiación solar	0
88817	7	Sololá	717	San Juan la Laguna	12	San Juan la Laguna	11	Noviembre	2023-11-13T00:00:00	2024-11-08T00:00:00	2	Temperatura media	20.6
88818	7	Sololá	717	San Juan la Laguna	12	San Juan la Laguna	11	Noviembre	2023-11-13T00:00:00	2024-11-08T00:00:00	4	Temperatura máxima	20.8
88819	7	Sololá	717	San Juan la Laguna	12	San Juan la Laguna	11	Noviembre	2023-11-13T00:00:00	2024-11-08T00:00:00	3	Temperatura mínima	20.6
88820	7	Sololá	717	San Juan la Laguna	12	San Juan la Laguna	11	Noviembre	2023-11-13T00:00:00	2024-11-08T00:00:00	5	Humedad	69
88821	7	Sololá	717	San Juan la Laguna	12	San Juan la Laguna	11	Noviembre	2023-11-13T00:00:00	2024-11-08T00:00:00	6	Velocidad del viento	6.4
88822	7	Sololá	717	San Juan la Laguna	12	San Juan la Laguna	11	Noviembre	2023-11-13T00:00:00	2024-11-08T00:00:00	7	Dirección del viento	6.44
88823	7	Sololá	717	San Juan la Laguna	12	San Juan la Laguna	11	Noviembre	2023-11-13T00:00:00	2024-11-08T00:00:00	1	Precipitación	0
88824	7	Sololá	717	San Juan la Laguna	12	San Juan la Laguna	11	Noviembre	2023-11-13T00:00:00	2024-11-08T00:00:00	8	Radiación solar	0
88825	7	Sololá	717	San Juan la Laguna	12	San Juan la Laguna	11	Noviembre	2023-11-13T00:00:00	2024-11-08T01:00:00	2	Temperatura media	20.3
88826	7	Sololá	717	San Juan la Laguna	12	San Juan la Laguna	11	Noviembre	2023-11-13T00:00:00	2024-11-08T01:00:00	4	Temperatura máxima	20.7
88827	7	Sololá	717	San Juan la Laguna	12	San Juan la Laguna	11	Noviembre	2023-11-13T00:00:00	2024-11-08T01:00:00	3	Temperatura mínima	20.3
88828	7	Sololá	717	San Juan la Laguna	12	San Juan la Laguna	11	Noviembre	2023-11-13T00:00:00	2024-11-08T01:00:00	5	Humedad	70
88829	7	Sololá	717	San Juan la Laguna	12	San Juan la Laguna	11	Noviembre	2023-11-13T00:00:00	2024-11-08T01:00:00	6	Velocidad del viento	1.6
88830	7	Sololá	717	San Juan la Laguna	12	San Juan la Laguna	11	Noviembre	2023-11-13T00:00:00	2024-11-08T01:00:00	7	Dirección del viento	1.61
88831	7	Sololá	717	San Juan la Laguna	12	San Juan la Laguna	11	Noviembre	2023-11-13T00:00:00	2024-11-08T01:00:00	1	Precipitación	0
88832	7	Sololá	717	San Juan la Laguna	12	San Juan la Laguna	11	Noviembre	2023-11-13T00:00:00	2024-11-08T01:00:00	8	Radiación solar	0
88833	7	Sololá	717	San Juan la Laguna	12	San Juan la Laguna	11	Noviembre	2023-11-13T00:00:00	2024-11-08T02:00:00	2	Temperatura media	20.1
88834	7	Sololá	717	San Juan la Laguna	12	San Juan la Laguna	11	Noviembre	2023-11-13T00:00:00	2024-11-08T02:00:00	4	Temperatura máxima	20.3
88835	7	Sololá	717	San Juan la Laguna	12	San Juan la Laguna	11	Noviembre	2023-11-13T00:00:00	2024-11-08T02:00:00	3	Temperatura mínima	20
88836	7	Sololá	717	San Juan la Laguna	12	San Juan la Laguna	11	Noviembre	2023-11-13T00:00:00	2024-11-08T02:00:00	5	Humedad	69
88837	7	Sololá	717	San Juan la Laguna	12	San Juan la Laguna	11	Noviembre	2023-11-13T00:00:00	2024-11-08T02:00:00	6	Velocidad del viento	1.6
88838	7	Sololá	717	San Juan la Laguna	12	San Juan la Laguna	11	Noviembre	2023-11-13T00:00:00	2024-11-08T02:00:00	7	Dirección del viento	1.61
88839	7	Sololá	717	San Juan la Laguna	12	San Juan la Laguna	11	Noviembre	2023-11-13T00:00:00	2024-11-08T02:00:00	1	Precipitación	0
88840	7	Sololá	717	San Juan la Laguna	12	San Juan la Laguna	11	Noviembre	2023-11-13T00:00:00	2024-11-08T02:00:00	8	Radiación solar	0
88841	7	Sololá	717	San Juan la Laguna	12	San Juan la Laguna	11	Noviembre	2023-11-13T00:00:00	2024-11-08T03:00:00	2	Temperatura media	19.8
88842	7	Sololá	717	San Juan la Laguna	12	San Juan la Laguna	11	Noviembre	2023-11-13T00:00:00	2024-11-08T03:00:00	4	Temperatura máxima	20.1
88843	7	Sololá	717	San Juan la Laguna	12	San Juan la Laguna	11	Noviembre	2023-11-13T00:00:00	2024-11-08T03:00:00	3	Temperatura mínima	19.8
88844	7	Sololá	717	San Juan la Laguna	12	San Juan la Laguna	11	Noviembre	2023-11-13T00:00:00	2024-11-08T03:00:00	5	Humedad	67
88845	7	Sololá	717	San Juan la Laguna	12	San Juan la Laguna	11	Noviembre	2023-11-13T00:00:00	2024-11-08T03:00:00	6	Velocidad del viento	1.6
88846	7	Sololá	717	San Juan la Laguna	12	San Juan la Laguna	11	Noviembre	2023-11-13T00:00:00	2024-11-08T03:00:00	7	Dirección del viento	1.61
88847	7	Sololá	717	San Juan la Laguna	12	San Juan la Laguna	11	Noviembre	2023-11-13T00:00:00	2024-11-08T03:00:00	1	Precipitación	0
88848	7	Sololá	717	San Juan la Laguna	12	San Juan la Laguna	11	Noviembre	2023-11-13T00:00:00	2024-11-08T03:00:00	8	Radiación solar	0
88849	7	Sololá	717	San Juan la Laguna	12	San Juan la Laguna	11	Noviembre	2023-11-13T00:00:00	2024-11-08T04:00:00	2	Temperatura media	19.6
88850	7	Sololá	717	San Juan la Laguna	12	San Juan la Laguna	11	Noviembre	2023-11-13T00:00:00	2024-11-08T04:00:00	4	Temperatura máxima	19.9
88851	7	Sololá	717	San Juan la Laguna	12	San Juan la Laguna	11	Noviembre	2023-11-13T00:00:00	2024-11-08T04:00:00	3	Temperatura mínima	19.6
88852	7	Sololá	717	San Juan la Laguna	12	San Juan la Laguna	11	Noviembre	2023-11-13T00:00:00	2024-11-08T04:00:00	5	Humedad	65
88853	7	Sololá	717	San Juan la Laguna	12	San Juan la Laguna	11	Noviembre	2023-11-13T00:00:00	2024-11-08T04:00:00	6	Velocidad del viento	1.6
88854	7	Sololá	717	San Juan la Laguna	12	San Juan la Laguna	11	Noviembre	2023-11-13T00:00:00	2024-11-08T04:00:00	7	Dirección del viento	1.61
88855	7	Sololá	717	San Juan la Laguna	12	San Juan la Laguna	11	Noviembre	2023-11-13T00:00:00	2024-11-08T04:00:00	1	Precipitación	0
88856	7	Sololá	717	San Juan la Laguna	12	San Juan la Laguna	11	Noviembre	2023-11-13T00:00:00	2024-11-08T04:00:00	8	Radiación solar	0
88857	7	Sololá	717	San Juan la Laguna	12	San Juan la Laguna	11	Noviembre	2023-11-13T00:00:00	2024-11-08T05:00:00	2	Temperatura media	17.9
88858	7	Sololá	717	San Juan la Laguna	12	San Juan la Laguna	11	Noviembre	2023-11-13T00:00:00	2024-11-08T05:00:00	4	Temperatura máxima	19.7
88859	7	Sololá	717	San Juan la Laguna	12	San Juan la Laguna	11	Noviembre	2023-11-13T00:00:00	2024-11-08T05:00:00	3	Temperatura mínima	17.9
88860	7	Sololá	717	San Juan la Laguna	12	San Juan la Laguna	11	Noviembre	2023-11-13T00:00:00	2024-11-08T05:00:00	5	Humedad	74
88861	7	Sololá	717	San Juan la Laguna	12	San Juan la Laguna	11	Noviembre	2023-11-13T00:00:00	2024-11-08T05:00:00	6	Velocidad del viento	0
88862	7	Sololá	717	San Juan la Laguna	12	San Juan la Laguna	11	Noviembre	2023-11-13T00:00:00	2024-11-08T05:00:00	7	Dirección del viento	0
88863	7	Sololá	717	San Juan la Laguna	12	San Juan la Laguna	11	Noviembre	2023-11-13T00:00:00	2024-11-08T05:00:00	1	Precipitación	0
88864	7	Sololá	717	San Juan la Laguna	12	San Juan la Laguna	11	Noviembre	2023-11-13T00:00:00	2024-11-08T05:00:00	8	Radiación solar	0
88865	7	Sololá	717	San Juan la Laguna	12	San Juan la Laguna	11	Noviembre	2023-11-13T00:00:00	2024-11-08T06:00:00	2	Temperatura media	16.5
88866	7	Sololá	717	San Juan la Laguna	12	San Juan la Laguna	11	Noviembre	2023-11-13T00:00:00	2024-11-08T06:00:00	4	Temperatura máxima	17.9
88867	7	Sololá	717	San Juan la Laguna	12	San Juan la Laguna	11	Noviembre	2023-11-13T00:00:00	2024-11-08T06:00:00	3	Temperatura mínima	16.4
88868	7	Sololá	717	San Juan la Laguna	12	San Juan la Laguna	11	Noviembre	2023-11-13T00:00:00	2024-11-08T06:00:00	5	Humedad	81
88869	7	Sololá	717	San Juan la Laguna	12	San Juan la Laguna	11	Noviembre	2023-11-13T00:00:00	2024-11-08T06:00:00	6	Velocidad del viento	0
88870	7	Sololá	717	San Juan la Laguna	12	San Juan la Laguna	11	Noviembre	2023-11-13T00:00:00	2024-11-08T06:00:00	7	Dirección del viento	0
88871	7	Sololá	717	San Juan la Laguna	12	San Juan la Laguna	11	Noviembre	2023-11-13T00:00:00	2024-11-08T06:00:00	1	Precipitación	0
88872	7	Sololá	717	San Juan la Laguna	12	San Juan la Laguna	11	Noviembre	2023-11-13T00:00:00	2024-11-08T06:00:00	8	Radiación solar	0
88873	7	Sololá	717	San Juan la Laguna	12	San Juan la Laguna	11	Noviembre	2023-11-13T00:00:00	2024-11-08T07:00:00	2	Temperatura media	19.2
88874	7	Sololá	717	San Juan la Laguna	12	San Juan la Laguna	11	Noviembre	2023-11-13T00:00:00	2024-11-08T07:00:00	4	Temperatura máxima	19.2
88875	7	Sololá	717	San Juan la Laguna	12	San Juan la Laguna	11	Noviembre	2023-11-13T00:00:00	2024-11-08T07:00:00	3	Temperatura mínima	16.4
88876	7	Sololá	717	San Juan la Laguna	12	San Juan la Laguna	11	Noviembre	2023-11-13T00:00:00	2024-11-08T07:00:00	5	Humedad	76
88877	7	Sololá	717	San Juan la Laguna	12	San Juan la Laguna	11	Noviembre	2023-11-13T00:00:00	2024-11-08T07:00:00	6	Velocidad del viento	0
88878	7	Sololá	717	San Juan la Laguna	12	San Juan la Laguna	11	Noviembre	2023-11-13T00:00:00	2024-11-08T07:00:00	7	Dirección del viento	0
88879	7	Sololá	717	San Juan la Laguna	12	San Juan la Laguna	11	Noviembre	2023-11-13T00:00:00	2024-11-08T07:00:00	1	Precipitación	0
88880	7	Sololá	717	San Juan la Laguna	12	San Juan la Laguna	11	Noviembre	2023-11-13T00:00:00	2024-11-08T07:00:00	8	Radiación solar	42
88881	7	Sololá	717	San Juan la Laguna	12	San Juan la Laguna	11	Noviembre	2023-11-13T00:00:00	2024-11-08T08:00:00	2	Temperatura media	22.5
88882	7	Sololá	717	San Juan la Laguna	12	San Juan la Laguna	11	Noviembre	2023-11-13T00:00:00	2024-11-08T08:00:00	4	Temperatura máxima	22.5
88883	7	Sololá	717	San Juan la Laguna	12	San Juan la Laguna	11	Noviembre	2023-11-13T00:00:00	2024-11-08T08:00:00	3	Temperatura mínima	19.3
88884	7	Sololá	717	San Juan la Laguna	12	San Juan la Laguna	11	Noviembre	2023-11-13T00:00:00	2024-11-08T08:00:00	5	Humedad	66
88885	7	Sololá	717	San Juan la Laguna	12	San Juan la Laguna	11	Noviembre	2023-11-13T00:00:00	2024-11-08T08:00:00	6	Velocidad del viento	0
88886	7	Sololá	717	San Juan la Laguna	12	San Juan la Laguna	11	Noviembre	2023-11-13T00:00:00	2024-11-08T08:00:00	7	Dirección del viento	0
88887	7	Sololá	717	San Juan la Laguna	12	San Juan la Laguna	11	Noviembre	2023-11-13T00:00:00	2024-11-08T08:00:00	1	Precipitación	0
88888	7	Sololá	717	San Juan la Laguna	12	San Juan la Laguna	11	Noviembre	2023-11-13T00:00:00	2024-11-08T08:00:00	8	Radiación solar	243
88889	7	Sololá	717	San Juan la Laguna	12	San Juan la Laguna	11	Noviembre	2023-11-13T00:00:00	2024-11-08T09:00:00	2	Temperatura media	23.1
88890	7	Sololá	717	San Juan la Laguna	12	San Juan la Laguna	11	Noviembre	2023-11-13T00:00:00	2024-11-08T09:00:00	4	Temperatura máxima	23.5
88891	7	Sololá	717	San Juan la Laguna	12	San Juan la Laguna	11	Noviembre	2023-11-13T00:00:00	2024-11-08T09:00:00	3	Temperatura mínima	22.5
88892	7	Sololá	717	San Juan la Laguna	12	San Juan la Laguna	11	Noviembre	2023-11-13T00:00:00	2024-11-08T09:00:00	5	Humedad	62
88893	7	Sololá	717	San Juan la Laguna	12	San Juan la Laguna	11	Noviembre	2023-11-13T00:00:00	2024-11-08T09:00:00	6	Velocidad del viento	3.2
88894	7	Sololá	717	San Juan la Laguna	12	San Juan la Laguna	11	Noviembre	2023-11-13T00:00:00	2024-11-08T09:00:00	7	Dirección del viento	3.22
88895	7	Sololá	717	San Juan la Laguna	12	San Juan la Laguna	11	Noviembre	2023-11-13T00:00:00	2024-11-08T09:00:00	1	Precipitación	0
88896	7	Sololá	717	San Juan la Laguna	12	San Juan la Laguna	11	Noviembre	2023-11-13T00:00:00	2024-11-08T09:00:00	8	Radiación solar	376
88897	7	Sololá	717	San Juan la Laguna	12	San Juan la Laguna	11	Noviembre	2023-11-13T00:00:00	2024-11-08T10:00:00	2	Temperatura media	24.9
88898	7	Sololá	717	San Juan la Laguna	12	San Juan la Laguna	11	Noviembre	2023-11-13T00:00:00	2024-11-08T10:00:00	4	Temperatura máxima	24.9
88899	7	Sololá	717	San Juan la Laguna	12	San Juan la Laguna	11	Noviembre	2023-11-13T00:00:00	2024-11-08T10:00:00	3	Temperatura mínima	23.1
88900	7	Sololá	717	San Juan la Laguna	12	San Juan la Laguna	11	Noviembre	2023-11-13T00:00:00	2024-11-08T10:00:00	5	Humedad	57
88901	7	Sololá	717	San Juan la Laguna	12	San Juan la Laguna	11	Noviembre	2023-11-13T00:00:00	2024-11-08T10:00:00	6	Velocidad del viento	6.4
88902	7	Sololá	717	San Juan la Laguna	12	San Juan la Laguna	11	Noviembre	2023-11-13T00:00:00	2024-11-08T10:00:00	7	Dirección del viento	6.44
88903	7	Sololá	717	San Juan la Laguna	12	San Juan la Laguna	11	Noviembre	2023-11-13T00:00:00	2024-11-08T10:00:00	1	Precipitación	0
88904	7	Sololá	717	San Juan la Laguna	12	San Juan la Laguna	11	Noviembre	2023-11-13T00:00:00	2024-11-08T10:00:00	8	Radiación solar	616
88905	7	Sololá	717	San Juan la Laguna	12	San Juan la Laguna	11	Noviembre	2023-11-13T00:00:00	2024-11-08T11:00:00	2	Temperatura media	25.9
88906	7	Sololá	717	San Juan la Laguna	12	San Juan la Laguna	11	Noviembre	2023-11-13T00:00:00	2024-11-08T11:00:00	4	Temperatura máxima	25.9
88907	7	Sololá	717	San Juan la Laguna	12	San Juan la Laguna	11	Noviembre	2023-11-13T00:00:00	2024-11-08T11:00:00	3	Temperatura mínima	24.9
88908	7	Sololá	717	San Juan la Laguna	12	San Juan la Laguna	11	Noviembre	2023-11-13T00:00:00	2024-11-08T11:00:00	5	Humedad	55
88909	7	Sololá	717	San Juan la Laguna	12	San Juan la Laguna	11	Noviembre	2023-11-13T00:00:00	2024-11-08T11:00:00	6	Velocidad del viento	6.4
88910	7	Sololá	717	San Juan la Laguna	12	San Juan la Laguna	11	Noviembre	2023-11-13T00:00:00	2024-11-08T11:00:00	7	Dirección del viento	6.44
88911	7	Sololá	717	San Juan la Laguna	12	San Juan la Laguna	11	Noviembre	2023-11-13T00:00:00	2024-11-08T11:00:00	1	Precipitación	0
88912	7	Sololá	717	San Juan la Laguna	12	San Juan la Laguna	11	Noviembre	2023-11-13T00:00:00	2024-11-08T11:00:00	8	Radiación solar	628
88913	7	Sololá	717	San Juan la Laguna	12	San Juan la Laguna	11	Noviembre	2023-11-13T00:00:00	2024-11-08T12:00:00	2	Temperatura media	26.6
88914	7	Sololá	717	San Juan la Laguna	12	San Juan la Laguna	11	Noviembre	2023-11-13T00:00:00	2024-11-08T12:00:00	4	Temperatura máxima	26.6
88915	7	Sololá	717	San Juan la Laguna	12	San Juan la Laguna	11	Noviembre	2023-11-13T00:00:00	2024-11-08T12:00:00	3	Temperatura mínima	25.8
88916	7	Sololá	717	San Juan la Laguna	12	San Juan la Laguna	11	Noviembre	2023-11-13T00:00:00	2024-11-08T12:00:00	5	Humedad	54
88917	7	Sololá	717	San Juan la Laguna	12	San Juan la Laguna	11	Noviembre	2023-11-13T00:00:00	2024-11-08T12:00:00	6	Velocidad del viento	11.3
88918	7	Sololá	717	San Juan la Laguna	12	San Juan la Laguna	11	Noviembre	2023-11-13T00:00:00	2024-11-08T12:00:00	7	Dirección del viento	11.27
88919	7	Sololá	717	San Juan la Laguna	12	San Juan la Laguna	11	Noviembre	2023-11-13T00:00:00	2024-11-08T12:00:00	1	Precipitación	0
88920	7	Sololá	717	San Juan la Laguna	12	San Juan la Laguna	11	Noviembre	2023-11-13T00:00:00	2024-11-08T12:00:00	8	Radiación solar	798
88921	7	Sololá	717	San Juan la Laguna	12	San Juan la Laguna	11	Noviembre	2023-11-13T00:00:00	2024-11-08T13:00:00	2	Temperatura media	26.3
88922	7	Sololá	717	San Juan la Laguna	12	San Juan la Laguna	11	Noviembre	2023-11-13T00:00:00	2024-11-08T13:00:00	4	Temperatura máxima	26.8
88923	7	Sololá	717	San Juan la Laguna	12	San Juan la Laguna	11	Noviembre	2023-11-13T00:00:00	2024-11-08T13:00:00	3	Temperatura mínima	26.3
88924	7	Sololá	717	San Juan la Laguna	12	San Juan la Laguna	11	Noviembre	2023-11-13T00:00:00	2024-11-08T13:00:00	5	Humedad	55
88925	7	Sololá	717	San Juan la Laguna	12	San Juan la Laguna	11	Noviembre	2023-11-13T00:00:00	2024-11-08T13:00:00	6	Velocidad del viento	11.3
88926	7	Sololá	717	San Juan la Laguna	12	San Juan la Laguna	11	Noviembre	2023-11-13T00:00:00	2024-11-08T13:00:00	7	Dirección del viento	11.27
88927	7	Sololá	717	San Juan la Laguna	12	San Juan la Laguna	11	Noviembre	2023-11-13T00:00:00	2024-11-08T13:00:00	1	Precipitación	0
88928	7	Sololá	717	San Juan la Laguna	12	San Juan la Laguna	11	Noviembre	2023-11-13T00:00:00	2024-11-08T13:00:00	8	Radiación solar	764
88929	7	Sololá	717	San Juan la Laguna	12	San Juan la Laguna	11	Noviembre	2023-11-13T00:00:00	2024-11-08T14:00:00	2	Temperatura media	25.6
88930	7	Sololá	717	San Juan la Laguna	12	San Juan la Laguna	11	Noviembre	2023-11-13T00:00:00	2024-11-08T14:00:00	4	Temperatura máxima	26.3
88931	7	Sololá	717	San Juan la Laguna	12	San Juan la Laguna	11	Noviembre	2023-11-13T00:00:00	2024-11-08T14:00:00	3	Temperatura mínima	25.6
88932	7	Sololá	717	San Juan la Laguna	12	San Juan la Laguna	11	Noviembre	2023-11-13T00:00:00	2024-11-08T14:00:00	5	Humedad	57
88933	7	Sololá	717	San Juan la Laguna	12	San Juan la Laguna	11	Noviembre	2023-11-13T00:00:00	2024-11-08T14:00:00	6	Velocidad del viento	8
88934	7	Sololá	717	San Juan la Laguna	12	San Juan la Laguna	11	Noviembre	2023-11-13T00:00:00	2024-11-08T14:00:00	7	Dirección del viento	8.05
88935	7	Sololá	717	San Juan la Laguna	12	San Juan la Laguna	11	Noviembre	2023-11-13T00:00:00	2024-11-08T14:00:00	1	Precipitación	0
88936	7	Sololá	717	San Juan la Laguna	12	San Juan la Laguna	11	Noviembre	2023-11-13T00:00:00	2024-11-08T14:00:00	8	Radiación solar	296
88937	7	Sololá	717	San Juan la Laguna	12	San Juan la Laguna	11	Noviembre	2023-11-13T00:00:00	2024-11-08T15:00:00	2	Temperatura media	24.8
88938	7	Sololá	717	San Juan la Laguna	12	San Juan la Laguna	11	Noviembre	2023-11-13T00:00:00	2024-11-08T15:00:00	4	Temperatura máxima	25.9
88939	7	Sololá	717	San Juan la Laguna	12	San Juan la Laguna	11	Noviembre	2023-11-13T00:00:00	2024-11-08T15:00:00	3	Temperatura mínima	24.7
88940	7	Sololá	717	San Juan la Laguna	12	San Juan la Laguna	11	Noviembre	2023-11-13T00:00:00	2024-11-08T15:00:00	5	Humedad	63
88941	7	Sololá	717	San Juan la Laguna	12	San Juan la Laguna	11	Noviembre	2023-11-13T00:00:00	2024-11-08T15:00:00	6	Velocidad del viento	6.4
88942	7	Sololá	717	San Juan la Laguna	12	San Juan la Laguna	11	Noviembre	2023-11-13T00:00:00	2024-11-08T15:00:00	7	Dirección del viento	6.44
88943	7	Sololá	717	San Juan la Laguna	12	San Juan la Laguna	11	Noviembre	2023-11-13T00:00:00	2024-11-08T15:00:00	1	Precipitación	0
88944	7	Sololá	717	San Juan la Laguna	12	San Juan la Laguna	11	Noviembre	2023-11-13T00:00:00	2024-11-08T15:00:00	8	Radiación solar	236
88945	7	Sololá	717	San Juan la Laguna	12	San Juan la Laguna	11	Noviembre	2023-11-13T00:00:00	2024-11-08T16:00:00	2	Temperatura media	23.4
88946	7	Sololá	717	San Juan la Laguna	12	San Juan la Laguna	11	Noviembre	2023-11-13T00:00:00	2024-11-08T16:00:00	4	Temperatura máxima	24.8
88947	7	Sololá	717	San Juan la Laguna	12	San Juan la Laguna	11	Noviembre	2023-11-13T00:00:00	2024-11-08T16:00:00	3	Temperatura mínima	23.4
88948	7	Sololá	717	San Juan la Laguna	12	San Juan la Laguna	11	Noviembre	2023-11-13T00:00:00	2024-11-08T16:00:00	5	Humedad	68
88949	7	Sololá	717	San Juan la Laguna	12	San Juan la Laguna	11	Noviembre	2023-11-13T00:00:00	2024-11-08T16:00:00	6	Velocidad del viento	3.2
88950	7	Sololá	717	San Juan la Laguna	12	San Juan la Laguna	11	Noviembre	2023-11-13T00:00:00	2024-11-08T16:00:00	7	Dirección del viento	3.22
88951	7	Sololá	717	San Juan la Laguna	12	San Juan la Laguna	11	Noviembre	2023-11-13T00:00:00	2024-11-08T16:00:00	1	Precipitación	0
88952	7	Sololá	717	San Juan la Laguna	12	San Juan la Laguna	11	Noviembre	2023-11-13T00:00:00	2024-11-08T16:00:00	8	Radiación solar	131
88953	7	Sololá	717	San Juan la Laguna	12	San Juan la Laguna	11	Noviembre	2023-11-13T00:00:00	2024-11-08T17:00:00	2	Temperatura media	22.1
88954	7	Sololá	717	San Juan la Laguna	12	San Juan la Laguna	11	Noviembre	2023-11-13T00:00:00	2024-11-08T17:00:00	4	Temperatura máxima	23.4
88955	7	Sololá	717	San Juan la Laguna	12	San Juan la Laguna	11	Noviembre	2023-11-13T00:00:00	2024-11-08T17:00:00	3	Temperatura mínima	22
88956	7	Sololá	717	San Juan la Laguna	12	San Juan la Laguna	11	Noviembre	2023-11-13T00:00:00	2024-11-08T17:00:00	5	Humedad	78
88957	7	Sololá	717	San Juan la Laguna	12	San Juan la Laguna	11	Noviembre	2023-11-13T00:00:00	2024-11-08T17:00:00	6	Velocidad del viento	1.6
88958	7	Sololá	717	San Juan la Laguna	12	San Juan la Laguna	11	Noviembre	2023-11-13T00:00:00	2024-11-08T17:00:00	7	Dirección del viento	1.61
88959	7	Sololá	717	San Juan la Laguna	12	San Juan la Laguna	11	Noviembre	2023-11-13T00:00:00	2024-11-08T17:00:00	1	Precipitación	0
88960	7	Sololá	717	San Juan la Laguna	12	San Juan la Laguna	11	Noviembre	2023-11-13T00:00:00	2024-11-08T17:00:00	8	Radiación solar	71
88961	7	Sololá	717	San Juan la Laguna	12	San Juan la Laguna	11	Noviembre	2023-11-13T00:00:00	2024-11-08T18:00:00	2	Temperatura media	21.3
88962	7	Sololá	717	San Juan la Laguna	12	San Juan la Laguna	11	Noviembre	2023-11-13T00:00:00	2024-11-08T18:00:00	4	Temperatura máxima	22.2
88963	7	Sololá	717	San Juan la Laguna	12	San Juan la Laguna	11	Noviembre	2023-11-13T00:00:00	2024-11-08T18:00:00	3	Temperatura mínima	21.3
88964	7	Sololá	717	San Juan la Laguna	12	San Juan la Laguna	11	Noviembre	2023-11-13T00:00:00	2024-11-08T18:00:00	5	Humedad	81
88965	7	Sololá	717	San Juan la Laguna	12	San Juan la Laguna	11	Noviembre	2023-11-13T00:00:00	2024-11-08T18:00:00	6	Velocidad del viento	0
88966	7	Sololá	717	San Juan la Laguna	12	San Juan la Laguna	11	Noviembre	2023-11-13T00:00:00	2024-11-08T18:00:00	7	Dirección del viento	0
88967	7	Sololá	717	San Juan la Laguna	12	San Juan la Laguna	11	Noviembre	2023-11-13T00:00:00	2024-11-08T18:00:00	1	Precipitación	0
88968	7	Sololá	717	San Juan la Laguna	12	San Juan la Laguna	11	Noviembre	2023-11-13T00:00:00	2024-11-08T18:00:00	8	Radiación solar	11
88969	7	Sololá	717	San Juan la Laguna	12	San Juan la Laguna	11	Noviembre	2023-11-13T00:00:00	2024-11-08T19:00:00	2	Temperatura media	20.3
88970	7	Sololá	717	San Juan la Laguna	12	San Juan la Laguna	11	Noviembre	2023-11-13T00:00:00	2024-11-08T19:00:00	4	Temperatura máxima	21.3
88971	7	Sololá	717	San Juan la Laguna	12	San Juan la Laguna	11	Noviembre	2023-11-13T00:00:00	2024-11-08T19:00:00	3	Temperatura mínima	20.3
88972	7	Sololá	717	San Juan la Laguna	12	San Juan la Laguna	11	Noviembre	2023-11-13T00:00:00	2024-11-08T19:00:00	5	Humedad	84
88973	7	Sololá	717	San Juan la Laguna	12	San Juan la Laguna	11	Noviembre	2023-11-13T00:00:00	2024-11-08T19:00:00	6	Velocidad del viento	0
88974	7	Sololá	717	San Juan la Laguna	12	San Juan la Laguna	11	Noviembre	2023-11-13T00:00:00	2024-11-08T19:00:00	7	Dirección del viento	0
88975	7	Sololá	717	San Juan la Laguna	12	San Juan la Laguna	11	Noviembre	2023-11-13T00:00:00	2024-11-08T19:00:00	1	Precipitación	0
88976	7	Sololá	717	San Juan la Laguna	12	San Juan la Laguna	11	Noviembre	2023-11-13T00:00:00	2024-11-08T19:00:00	8	Radiación solar	0
88977	7	Sololá	717	San Juan la Laguna	12	San Juan la Laguna	11	Noviembre	2023-11-13T00:00:00	2024-11-08T20:00:00	2	Temperatura media	20.2
88978	7	Sololá	717	San Juan la Laguna	12	San Juan la Laguna	11	Noviembre	2023-11-13T00:00:00	2024-11-08T20:00:00	4	Temperatura máxima	20.3
88979	7	Sololá	717	San Juan la Laguna	12	San Juan la Laguna	11	Noviembre	2023-11-13T00:00:00	2024-11-08T20:00:00	3	Temperatura mínima	19.8
88980	7	Sololá	717	San Juan la Laguna	12	San Juan la Laguna	11	Noviembre	2023-11-13T00:00:00	2024-11-08T20:00:00	5	Humedad	81
88981	7	Sololá	717	San Juan la Laguna	12	San Juan la Laguna	11	Noviembre	2023-11-13T00:00:00	2024-11-08T20:00:00	6	Velocidad del viento	0
88982	7	Sololá	717	San Juan la Laguna	12	San Juan la Laguna	11	Noviembre	2023-11-13T00:00:00	2024-11-08T20:00:00	7	Dirección del viento	0
88983	7	Sololá	717	San Juan la Laguna	12	San Juan la Laguna	11	Noviembre	2023-11-13T00:00:00	2024-11-08T20:00:00	1	Precipitación	0
88984	7	Sololá	717	San Juan la Laguna	12	San Juan la Laguna	11	Noviembre	2023-11-13T00:00:00	2024-11-08T20:00:00	8	Radiación solar	0
88985	7	Sololá	717	San Juan la Laguna	12	San Juan la Laguna	11	Noviembre	2023-11-13T00:00:00	2024-11-08T21:00:00	2	Temperatura media	20.8
88986	7	Sololá	717	San Juan la Laguna	12	San Juan la Laguna	11	Noviembre	2023-11-13T00:00:00	2024-11-08T21:00:00	4	Temperatura máxima	21.3
88987	7	Sololá	717	San Juan la Laguna	12	San Juan la Laguna	11	Noviembre	2023-11-13T00:00:00	2024-11-08T21:00:00	3	Temperatura mínima	20.2
88988	7	Sololá	717	San Juan la Laguna	12	San Juan la Laguna	11	Noviembre	2023-11-13T00:00:00	2024-11-08T21:00:00	5	Humedad	75
88989	7	Sololá	717	San Juan la Laguna	12	San Juan la Laguna	11	Noviembre	2023-11-13T00:00:00	2024-11-08T21:00:00	6	Velocidad del viento	0
88990	7	Sololá	717	San Juan la Laguna	12	San Juan la Laguna	11	Noviembre	2023-11-13T00:00:00	2024-11-08T21:00:00	7	Dirección del viento	0
88991	7	Sololá	717	San Juan la Laguna	12	San Juan la Laguna	11	Noviembre	2023-11-13T00:00:00	2024-11-08T21:00:00	1	Precipitación	0
88992	7	Sololá	717	San Juan la Laguna	12	San Juan la Laguna	11	Noviembre	2023-11-13T00:00:00	2024-11-08T21:00:00	8	Radiación solar	0
88993	7	Sololá	717	San Juan la Laguna	12	San Juan la Laguna	11	Noviembre	2023-11-13T00:00:00	2024-11-08T22:00:00	2	Temperatura media	21.8
88994	7	Sololá	717	San Juan la Laguna	12	San Juan la Laguna	11	Noviembre	2023-11-13T00:00:00	2024-11-08T22:00:00	4	Temperatura máxima	21.8
88995	7	Sololá	717	San Juan la Laguna	12	San Juan la Laguna	11	Noviembre	2023-11-13T00:00:00	2024-11-08T22:00:00	3	Temperatura mínima	20.1
88996	7	Sololá	717	San Juan la Laguna	12	San Juan la Laguna	11	Noviembre	2023-11-13T00:00:00	2024-11-08T22:00:00	5	Humedad	70
88997	7	Sololá	717	San Juan la Laguna	12	San Juan la Laguna	11	Noviembre	2023-11-13T00:00:00	2024-11-08T22:00:00	6	Velocidad del viento	1.6
88998	7	Sololá	717	San Juan la Laguna	12	San Juan la Laguna	11	Noviembre	2023-11-13T00:00:00	2024-11-08T22:00:00	7	Dirección del viento	1.61
88999	7	Sololá	717	San Juan la Laguna	12	San Juan la Laguna	11	Noviembre	2023-11-13T00:00:00	2024-11-08T22:00:00	1	Precipitación	0
89000	7	Sololá	717	San Juan la Laguna	12	San Juan la Laguna	11	Noviembre	2023-11-13T00:00:00	2024-11-08T22:00:00	8	Radiación solar	0
89001	7	Sololá	717	San Juan la Laguna	12	San Juan la Laguna	11	Noviembre	2023-11-13T00:00:00	2024-11-08T23:00:00	2	Temperatura media	21.4
89002	7	Sololá	717	San Juan la Laguna	12	San Juan la Laguna	11	Noviembre	2023-11-13T00:00:00	2024-11-08T23:00:00	4	Temperatura máxima	21.8
89003	7	Sololá	717	San Juan la Laguna	12	San Juan la Laguna	11	Noviembre	2023-11-13T00:00:00	2024-11-08T23:00:00	3	Temperatura mínima	21.3
89004	7	Sololá	717	San Juan la Laguna	12	San Juan la Laguna	11	Noviembre	2023-11-13T00:00:00	2024-11-08T23:00:00	5	Humedad	72
89005	7	Sololá	717	San Juan la Laguna	12	San Juan la Laguna	11	Noviembre	2023-11-13T00:00:00	2024-11-08T23:00:00	6	Velocidad del viento	3.2
89006	7	Sololá	717	San Juan la Laguna	12	San Juan la Laguna	11	Noviembre	2023-11-13T00:00:00	2024-11-08T23:00:00	7	Dirección del viento	3.22
89007	7	Sololá	717	San Juan la Laguna	12	San Juan la Laguna	11	Noviembre	2023-11-13T00:00:00	2024-11-08T23:00:00	1	Precipitación	0
89008	7	Sololá	717	San Juan la Laguna	12	San Juan la Laguna	11	Noviembre	2023-11-13T00:00:00	2024-11-08T23:00:00	8	Radiación solar	0
89009	7	Sololá	717	San Juan la Laguna	12	San Juan la Laguna	11	Noviembre	2023-11-14T00:00:00	2024-11-08T00:00:00	2	Temperatura media	19.6
89010	7	Sololá	717	San Juan la Laguna	12	San Juan la Laguna	11	Noviembre	2023-11-14T00:00:00	2024-11-08T00:00:00	4	Temperatura máxima	21.4
89011	7	Sololá	717	San Juan la Laguna	12	San Juan la Laguna	11	Noviembre	2023-11-14T00:00:00	2024-11-08T00:00:00	3	Temperatura mínima	19.6
89012	7	Sololá	717	San Juan la Laguna	12	San Juan la Laguna	11	Noviembre	2023-11-14T00:00:00	2024-11-08T00:00:00	5	Humedad	83
89013	7	Sololá	717	San Juan la Laguna	12	San Juan la Laguna	11	Noviembre	2023-11-14T00:00:00	2024-11-08T00:00:00	6	Velocidad del viento	1.6
89014	7	Sololá	717	San Juan la Laguna	12	San Juan la Laguna	11	Noviembre	2023-11-14T00:00:00	2024-11-08T00:00:00	7	Dirección del viento	1.61
89015	7	Sololá	717	San Juan la Laguna	12	San Juan la Laguna	11	Noviembre	2023-11-14T00:00:00	2024-11-08T00:00:00	1	Precipitación	0
89016	7	Sololá	717	San Juan la Laguna	12	San Juan la Laguna	11	Noviembre	2023-11-14T00:00:00	2024-11-08T00:00:00	8	Radiación solar	0
89017	7	Sololá	717	San Juan la Laguna	12	San Juan la Laguna	11	Noviembre	2023-11-14T00:00:00	2024-11-08T01:00:00	2	Temperatura media	18.8
89018	7	Sololá	717	San Juan la Laguna	12	San Juan la Laguna	11	Noviembre	2023-11-14T00:00:00	2024-11-08T01:00:00	4	Temperatura máxima	19.6
89019	7	Sololá	717	San Juan la Laguna	12	San Juan la Laguna	11	Noviembre	2023-11-14T00:00:00	2024-11-08T01:00:00	3	Temperatura mínima	18.7
89020	7	Sololá	717	San Juan la Laguna	12	San Juan la Laguna	11	Noviembre	2023-11-14T00:00:00	2024-11-08T01:00:00	5	Humedad	84
89021	7	Sololá	717	San Juan la Laguna	12	San Juan la Laguna	11	Noviembre	2023-11-14T00:00:00	2024-11-08T01:00:00	6	Velocidad del viento	0
89022	7	Sololá	717	San Juan la Laguna	12	San Juan la Laguna	11	Noviembre	2023-11-14T00:00:00	2024-11-08T01:00:00	7	Dirección del viento	0
89023	7	Sololá	717	San Juan la Laguna	12	San Juan la Laguna	11	Noviembre	2023-11-14T00:00:00	2024-11-08T01:00:00	1	Precipitación	0
89024	7	Sololá	717	San Juan la Laguna	12	San Juan la Laguna	11	Noviembre	2023-11-14T00:00:00	2024-11-08T01:00:00	8	Radiación solar	0
89025	7	Sololá	717	San Juan la Laguna	12	San Juan la Laguna	11	Noviembre	2023-11-14T00:00:00	2024-11-08T02:00:00	2	Temperatura media	17.7
89026	7	Sololá	717	San Juan la Laguna	12	San Juan la Laguna	11	Noviembre	2023-11-14T00:00:00	2024-11-08T02:00:00	4	Temperatura máxima	19.3
89027	7	Sololá	717	San Juan la Laguna	12	San Juan la Laguna	11	Noviembre	2023-11-14T00:00:00	2024-11-08T02:00:00	3	Temperatura mínima	17.7
89028	7	Sololá	717	San Juan la Laguna	12	San Juan la Laguna	11	Noviembre	2023-11-14T00:00:00	2024-11-08T02:00:00	5	Humedad	87
89029	7	Sololá	717	San Juan la Laguna	12	San Juan la Laguna	11	Noviembre	2023-11-14T00:00:00	2024-11-08T02:00:00	6	Velocidad del viento	0
89030	7	Sololá	717	San Juan la Laguna	12	San Juan la Laguna	11	Noviembre	2023-11-14T00:00:00	2024-11-08T02:00:00	7	Dirección del viento	0
89031	7	Sololá	717	San Juan la Laguna	12	San Juan la Laguna	11	Noviembre	2023-11-14T00:00:00	2024-11-08T02:00:00	1	Precipitación	0
89032	7	Sololá	717	San Juan la Laguna	12	San Juan la Laguna	11	Noviembre	2023-11-14T00:00:00	2024-11-08T02:00:00	8	Radiación solar	0
89033	7	Sololá	717	San Juan la Laguna	12	San Juan la Laguna	11	Noviembre	2023-11-14T00:00:00	2024-11-08T03:00:00	2	Temperatura media	17.6
89034	7	Sololá	717	San Juan la Laguna	12	San Juan la Laguna	11	Noviembre	2023-11-14T00:00:00	2024-11-08T03:00:00	4	Temperatura máxima	17.9
89035	7	Sololá	717	San Juan la Laguna	12	San Juan la Laguna	11	Noviembre	2023-11-14T00:00:00	2024-11-08T03:00:00	3	Temperatura mínima	17.6
89036	7	Sololá	717	San Juan la Laguna	12	San Juan la Laguna	11	Noviembre	2023-11-14T00:00:00	2024-11-08T03:00:00	5	Humedad	86
89037	7	Sololá	717	San Juan la Laguna	12	San Juan la Laguna	11	Noviembre	2023-11-14T00:00:00	2024-11-08T03:00:00	6	Velocidad del viento	0
89038	7	Sololá	717	San Juan la Laguna	12	San Juan la Laguna	11	Noviembre	2023-11-14T00:00:00	2024-11-08T03:00:00	7	Dirección del viento	0
89039	7	Sololá	717	San Juan la Laguna	12	San Juan la Laguna	11	Noviembre	2023-11-14T00:00:00	2024-11-08T03:00:00	1	Precipitación	0
89040	7	Sololá	717	San Juan la Laguna	12	San Juan la Laguna	11	Noviembre	2023-11-14T00:00:00	2024-11-08T03:00:00	8	Radiación solar	0
89041	7	Sololá	717	San Juan la Laguna	12	San Juan la Laguna	11	Noviembre	2023-11-14T00:00:00	2024-11-08T04:00:00	2	Temperatura media	17.4
89042	7	Sololá	717	San Juan la Laguna	12	San Juan la Laguna	11	Noviembre	2023-11-14T00:00:00	2024-11-08T04:00:00	4	Temperatura máxima	17.6
89043	7	Sololá	717	San Juan la Laguna	12	San Juan la Laguna	11	Noviembre	2023-11-14T00:00:00	2024-11-08T04:00:00	3	Temperatura mínima	17.4
89044	7	Sololá	717	San Juan la Laguna	12	San Juan la Laguna	11	Noviembre	2023-11-14T00:00:00	2024-11-08T04:00:00	5	Humedad	86
89045	7	Sololá	717	San Juan la Laguna	12	San Juan la Laguna	11	Noviembre	2023-11-14T00:00:00	2024-11-08T04:00:00	6	Velocidad del viento	0
89046	7	Sololá	717	San Juan la Laguna	12	San Juan la Laguna	11	Noviembre	2023-11-14T00:00:00	2024-11-08T04:00:00	7	Dirección del viento	0
89047	7	Sololá	717	San Juan la Laguna	12	San Juan la Laguna	11	Noviembre	2023-11-14T00:00:00	2024-11-08T04:00:00	1	Precipitación	0
89048	7	Sololá	717	San Juan la Laguna	12	San Juan la Laguna	11	Noviembre	2023-11-14T00:00:00	2024-11-08T04:00:00	8	Radiación solar	0
89049	7	Sololá	717	San Juan la Laguna	12	San Juan la Laguna	11	Noviembre	2023-11-14T00:00:00	2024-11-08T05:00:00	2	Temperatura media	18.3
89050	7	Sololá	717	San Juan la Laguna	12	San Juan la Laguna	11	Noviembre	2023-11-14T00:00:00	2024-11-08T05:00:00	4	Temperatura máxima	18.4
89051	7	Sololá	717	San Juan la Laguna	12	San Juan la Laguna	11	Noviembre	2023-11-14T00:00:00	2024-11-08T05:00:00	3	Temperatura mínima	17.3
89052	7	Sololá	717	San Juan la Laguna	12	San Juan la Laguna	11	Noviembre	2023-11-14T00:00:00	2024-11-08T05:00:00	5	Humedad	82
89053	7	Sololá	717	San Juan la Laguna	12	San Juan la Laguna	11	Noviembre	2023-11-14T00:00:00	2024-11-08T05:00:00	6	Velocidad del viento	0
89054	7	Sololá	717	San Juan la Laguna	12	San Juan la Laguna	11	Noviembre	2023-11-14T00:00:00	2024-11-08T05:00:00	7	Dirección del viento	0
89055	7	Sololá	717	San Juan la Laguna	12	San Juan la Laguna	11	Noviembre	2023-11-14T00:00:00	2024-11-08T05:00:00	1	Precipitación	0
89056	7	Sololá	717	San Juan la Laguna	12	San Juan la Laguna	11	Noviembre	2023-11-14T00:00:00	2024-11-08T05:00:00	8	Radiación solar	0
89057	7	Sololá	717	San Juan la Laguna	12	San Juan la Laguna	11	Noviembre	2023-11-14T00:00:00	2024-11-08T06:00:00	2	Temperatura media	17.3
89058	7	Sololá	717	San Juan la Laguna	12	San Juan la Laguna	11	Noviembre	2023-11-14T00:00:00	2024-11-08T06:00:00	4	Temperatura máxima	18.3
89059	7	Sololá	717	San Juan la Laguna	12	San Juan la Laguna	11	Noviembre	2023-11-14T00:00:00	2024-11-08T06:00:00	3	Temperatura mínima	17.2
89060	7	Sololá	717	San Juan la Laguna	12	San Juan la Laguna	11	Noviembre	2023-11-14T00:00:00	2024-11-08T06:00:00	5	Humedad	84
89061	7	Sololá	717	San Juan la Laguna	12	San Juan la Laguna	11	Noviembre	2023-11-14T00:00:00	2024-11-08T06:00:00	6	Velocidad del viento	0
89062	7	Sololá	717	San Juan la Laguna	12	San Juan la Laguna	11	Noviembre	2023-11-14T00:00:00	2024-11-08T06:00:00	7	Dirección del viento	0
89063	7	Sololá	717	San Juan la Laguna	12	San Juan la Laguna	11	Noviembre	2023-11-14T00:00:00	2024-11-08T06:00:00	1	Precipitación	0
89064	7	Sololá	717	San Juan la Laguna	12	San Juan la Laguna	11	Noviembre	2023-11-14T00:00:00	2024-11-08T06:00:00	8	Radiación solar	0
89065	7	Sololá	717	San Juan la Laguna	12	San Juan la Laguna	11	Noviembre	2023-11-14T00:00:00	2024-11-08T07:00:00	2	Temperatura media	17.6
89066	7	Sololá	717	San Juan la Laguna	12	San Juan la Laguna	11	Noviembre	2023-11-14T00:00:00	2024-11-08T07:00:00	4	Temperatura máxima	17.6
89067	7	Sololá	717	San Juan la Laguna	12	San Juan la Laguna	11	Noviembre	2023-11-14T00:00:00	2024-11-08T07:00:00	3	Temperatura mínima	17.2
89068	7	Sololá	717	San Juan la Laguna	12	San Juan la Laguna	11	Noviembre	2023-11-14T00:00:00	2024-11-08T07:00:00	5	Humedad	83
89069	7	Sololá	717	San Juan la Laguna	12	San Juan la Laguna	11	Noviembre	2023-11-14T00:00:00	2024-11-08T07:00:00	6	Velocidad del viento	0
89070	7	Sololá	717	San Juan la Laguna	12	San Juan la Laguna	11	Noviembre	2023-11-14T00:00:00	2024-11-08T07:00:00	7	Dirección del viento	0
89071	7	Sololá	717	San Juan la Laguna	12	San Juan la Laguna	11	Noviembre	2023-11-14T00:00:00	2024-11-08T07:00:00	1	Precipitación	0
89072	7	Sololá	717	San Juan la Laguna	12	San Juan la Laguna	11	Noviembre	2023-11-14T00:00:00	2024-11-08T07:00:00	8	Radiación solar	22
89073	7	Sololá	717	San Juan la Laguna	12	San Juan la Laguna	11	Noviembre	2023-11-14T00:00:00	2024-11-08T08:00:00	2	Temperatura media	21.1
89074	7	Sololá	717	San Juan la Laguna	12	San Juan la Laguna	11	Noviembre	2023-11-14T00:00:00	2024-11-08T08:00:00	4	Temperatura máxima	21.1
89075	7	Sololá	717	San Juan la Laguna	12	San Juan la Laguna	11	Noviembre	2023-11-14T00:00:00	2024-11-08T08:00:00	3	Temperatura mínima	17.6
89076	7	Sololá	717	San Juan la Laguna	12	San Juan la Laguna	11	Noviembre	2023-11-14T00:00:00	2024-11-08T08:00:00	5	Humedad	75
89077	7	Sololá	717	San Juan la Laguna	12	San Juan la Laguna	11	Noviembre	2023-11-14T00:00:00	2024-11-08T08:00:00	6	Velocidad del viento	0
89078	7	Sololá	717	San Juan la Laguna	12	San Juan la Laguna	11	Noviembre	2023-11-14T00:00:00	2024-11-08T08:00:00	7	Dirección del viento	0
89079	7	Sololá	717	San Juan la Laguna	12	San Juan la Laguna	11	Noviembre	2023-11-14T00:00:00	2024-11-08T08:00:00	1	Precipitación	0
89080	7	Sololá	717	San Juan la Laguna	12	San Juan la Laguna	11	Noviembre	2023-11-14T00:00:00	2024-11-08T08:00:00	8	Radiación solar	202
89081	7	Sololá	717	San Juan la Laguna	12	San Juan la Laguna	11	Noviembre	2023-11-14T00:00:00	2024-11-08T09:00:00	2	Temperatura media	23.7
89082	7	Sololá	717	San Juan la Laguna	12	San Juan la Laguna	11	Noviembre	2023-11-14T00:00:00	2024-11-08T09:00:00	4	Temperatura máxima	24
89083	7	Sololá	717	San Juan la Laguna	12	San Juan la Laguna	11	Noviembre	2023-11-14T00:00:00	2024-11-08T09:00:00	3	Temperatura mínima	21.1
89084	7	Sololá	717	San Juan la Laguna	12	San Juan la Laguna	11	Noviembre	2023-11-14T00:00:00	2024-11-08T09:00:00	5	Humedad	64
89085	7	Sololá	717	San Juan la Laguna	12	San Juan la Laguna	11	Noviembre	2023-11-14T00:00:00	2024-11-08T09:00:00	6	Velocidad del viento	1.6
89086	7	Sololá	717	San Juan la Laguna	12	San Juan la Laguna	11	Noviembre	2023-11-14T00:00:00	2024-11-08T09:00:00	7	Dirección del viento	1.61
89087	7	Sololá	717	San Juan la Laguna	12	San Juan la Laguna	11	Noviembre	2023-11-14T00:00:00	2024-11-08T09:00:00	1	Precipitación	0
89088	7	Sololá	717	San Juan la Laguna	12	San Juan la Laguna	11	Noviembre	2023-11-14T00:00:00	2024-11-08T09:00:00	8	Radiación solar	450
89089	7	Sololá	717	San Juan la Laguna	12	San Juan la Laguna	11	Noviembre	2023-11-14T00:00:00	2024-11-08T10:00:00	2	Temperatura media	24.2
89090	7	Sololá	717	San Juan la Laguna	12	San Juan la Laguna	11	Noviembre	2023-11-14T00:00:00	2024-11-08T10:00:00	4	Temperatura máxima	24.4
89091	7	Sololá	717	San Juan la Laguna	12	San Juan la Laguna	11	Noviembre	2023-11-14T00:00:00	2024-11-08T10:00:00	3	Temperatura mínima	23.3
89092	7	Sololá	717	San Juan la Laguna	12	San Juan la Laguna	11	Noviembre	2023-11-14T00:00:00	2024-11-08T10:00:00	5	Humedad	62
89093	7	Sololá	717	San Juan la Laguna	12	San Juan la Laguna	11	Noviembre	2023-11-14T00:00:00	2024-11-08T10:00:00	6	Velocidad del viento	1.6
89094	7	Sololá	717	San Juan la Laguna	12	San Juan la Laguna	11	Noviembre	2023-11-14T00:00:00	2024-11-08T10:00:00	7	Dirección del viento	1.61
89095	7	Sololá	717	San Juan la Laguna	12	San Juan la Laguna	11	Noviembre	2023-11-14T00:00:00	2024-11-08T10:00:00	1	Precipitación	0
89096	7	Sololá	717	San Juan la Laguna	12	San Juan la Laguna	11	Noviembre	2023-11-14T00:00:00	2024-11-08T10:00:00	8	Radiación solar	604
89097	7	Sololá	717	San Juan la Laguna	12	San Juan la Laguna	11	Noviembre	2023-11-14T00:00:00	2024-11-08T11:00:00	2	Temperatura media	25.6
89098	7	Sololá	717	San Juan la Laguna	12	San Juan la Laguna	11	Noviembre	2023-11-14T00:00:00	2024-11-08T11:00:00	4	Temperatura máxima	25.6
89099	7	Sololá	717	San Juan la Laguna	12	San Juan la Laguna	11	Noviembre	2023-11-14T00:00:00	2024-11-08T11:00:00	3	Temperatura mínima	24.1
89100	7	Sololá	717	San Juan la Laguna	12	San Juan la Laguna	11	Noviembre	2023-11-14T00:00:00	2024-11-08T11:00:00	5	Humedad	57
89101	7	Sololá	717	San Juan la Laguna	12	San Juan la Laguna	11	Noviembre	2023-11-14T00:00:00	2024-11-08T11:00:00	6	Velocidad del viento	3.2
89102	7	Sololá	717	San Juan la Laguna	12	San Juan la Laguna	11	Noviembre	2023-11-14T00:00:00	2024-11-08T11:00:00	7	Dirección del viento	3.22
89103	7	Sololá	717	San Juan la Laguna	12	San Juan la Laguna	11	Noviembre	2023-11-14T00:00:00	2024-11-08T11:00:00	1	Precipitación	0
89104	7	Sololá	717	San Juan la Laguna	12	San Juan la Laguna	11	Noviembre	2023-11-14T00:00:00	2024-11-08T11:00:00	8	Radiación solar	481
89105	7	Sololá	717	San Juan la Laguna	12	San Juan la Laguna	11	Noviembre	2023-11-14T00:00:00	2024-11-08T12:00:00	2	Temperatura media	26
89106	7	Sololá	717	San Juan la Laguna	12	San Juan la Laguna	11	Noviembre	2023-11-14T00:00:00	2024-11-08T12:00:00	4	Temperatura máxima	26.6
89107	7	Sololá	717	San Juan la Laguna	12	San Juan la Laguna	11	Noviembre	2023-11-14T00:00:00	2024-11-08T12:00:00	3	Temperatura mínima	25.7
89108	7	Sololá	717	San Juan la Laguna	12	San Juan la Laguna	11	Noviembre	2023-11-14T00:00:00	2024-11-08T12:00:00	5	Humedad	57
89109	7	Sololá	717	San Juan la Laguna	12	San Juan la Laguna	11	Noviembre	2023-11-14T00:00:00	2024-11-08T12:00:00	6	Velocidad del viento	3.2
89110	7	Sololá	717	San Juan la Laguna	12	San Juan la Laguna	11	Noviembre	2023-11-14T00:00:00	2024-11-08T12:00:00	7	Dirección del viento	3.22
89111	7	Sololá	717	San Juan la Laguna	12	San Juan la Laguna	11	Noviembre	2023-11-14T00:00:00	2024-11-08T12:00:00	1	Precipitación	0
89112	7	Sololá	717	San Juan la Laguna	12	San Juan la Laguna	11	Noviembre	2023-11-14T00:00:00	2024-11-08T12:00:00	8	Radiación solar	650
89113	7	Sololá	717	San Juan la Laguna	12	San Juan la Laguna	11	Noviembre	2023-11-14T00:00:00	2024-11-08T13:00:00	2	Temperatura media	25.1
89114	7	Sololá	717	San Juan la Laguna	12	San Juan la Laguna	11	Noviembre	2023-11-14T00:00:00	2024-11-08T13:00:00	4	Temperatura máxima	26.2
89115	7	Sololá	717	San Juan la Laguna	12	San Juan la Laguna	11	Noviembre	2023-11-14T00:00:00	2024-11-08T13:00:00	3	Temperatura mínima	25.1
89116	7	Sololá	717	San Juan la Laguna	12	San Juan la Laguna	11	Noviembre	2023-11-14T00:00:00	2024-11-08T13:00:00	5	Humedad	60
89117	7	Sololá	717	San Juan la Laguna	12	San Juan la Laguna	11	Noviembre	2023-11-14T00:00:00	2024-11-08T13:00:00	6	Velocidad del viento	3.2
89118	7	Sololá	717	San Juan la Laguna	12	San Juan la Laguna	11	Noviembre	2023-11-14T00:00:00	2024-11-08T13:00:00	7	Dirección del viento	3.22
89119	7	Sololá	717	San Juan la Laguna	12	San Juan la Laguna	11	Noviembre	2023-11-14T00:00:00	2024-11-08T13:00:00	1	Precipitación	0
89120	7	Sololá	717	San Juan la Laguna	12	San Juan la Laguna	11	Noviembre	2023-11-14T00:00:00	2024-11-08T13:00:00	8	Radiación solar	365
89121	7	Sololá	717	San Juan la Laguna	12	San Juan la Laguna	11	Noviembre	2023-11-14T00:00:00	2024-11-08T14:00:00	2	Temperatura media	23.3
89122	7	Sololá	717	San Juan la Laguna	12	San Juan la Laguna	11	Noviembre	2023-11-14T00:00:00	2024-11-08T14:00:00	4	Temperatura máxima	25.1
89123	7	Sololá	717	San Juan la Laguna	12	San Juan la Laguna	11	Noviembre	2023-11-14T00:00:00	2024-11-08T14:00:00	3	Temperatura mínima	23.3
89124	7	Sololá	717	San Juan la Laguna	12	San Juan la Laguna	11	Noviembre	2023-11-14T00:00:00	2024-11-08T14:00:00	5	Humedad	71
89125	7	Sololá	717	San Juan la Laguna	12	San Juan la Laguna	11	Noviembre	2023-11-14T00:00:00	2024-11-08T14:00:00	6	Velocidad del viento	1.6
89126	7	Sololá	717	San Juan la Laguna	12	San Juan la Laguna	11	Noviembre	2023-11-14T00:00:00	2024-11-08T14:00:00	7	Dirección del viento	1.61
89127	7	Sololá	717	San Juan la Laguna	12	San Juan la Laguna	11	Noviembre	2023-11-14T00:00:00	2024-11-08T14:00:00	1	Precipitación	0
89128	7	Sololá	717	San Juan la Laguna	12	San Juan la Laguna	11	Noviembre	2023-11-14T00:00:00	2024-11-08T14:00:00	8	Radiación solar	282
89129	7	Sololá	717	San Juan la Laguna	12	San Juan la Laguna	11	Noviembre	2023-11-14T00:00:00	2024-11-08T15:00:00	2	Temperatura media	22.9
89130	7	Sololá	717	San Juan la Laguna	12	San Juan la Laguna	11	Noviembre	2023-11-14T00:00:00	2024-11-08T15:00:00	4	Temperatura máxima	23.3
89131	7	Sololá	717	San Juan la Laguna	12	San Juan la Laguna	11	Noviembre	2023-11-14T00:00:00	2024-11-08T15:00:00	3	Temperatura mínima	22.8
89132	7	Sololá	717	San Juan la Laguna	12	San Juan la Laguna	11	Noviembre	2023-11-14T00:00:00	2024-11-08T15:00:00	5	Humedad	75
89133	7	Sololá	717	San Juan la Laguna	12	San Juan la Laguna	11	Noviembre	2023-11-14T00:00:00	2024-11-08T15:00:00	6	Velocidad del viento	0
89134	7	Sololá	717	San Juan la Laguna	12	San Juan la Laguna	11	Noviembre	2023-11-14T00:00:00	2024-11-08T15:00:00	7	Dirección del viento	0
89135	7	Sololá	717	San Juan la Laguna	12	San Juan la Laguna	11	Noviembre	2023-11-14T00:00:00	2024-11-08T15:00:00	1	Precipitación	0
89136	7	Sololá	717	San Juan la Laguna	12	San Juan la Laguna	11	Noviembre	2023-11-14T00:00:00	2024-11-08T15:00:00	8	Radiación solar	129
89137	7	Sololá	717	San Juan la Laguna	12	San Juan la Laguna	11	Noviembre	2023-11-14T00:00:00	2024-11-08T16:00:00	2	Temperatura media	22.3
89138	7	Sololá	717	San Juan la Laguna	12	San Juan la Laguna	11	Noviembre	2023-11-14T00:00:00	2024-11-08T16:00:00	4	Temperatura máxima	22.9
89139	7	Sololá	717	San Juan la Laguna	12	San Juan la Laguna	11	Noviembre	2023-11-14T00:00:00	2024-11-08T16:00:00	3	Temperatura mínima	22.3
89140	7	Sololá	717	San Juan la Laguna	12	San Juan la Laguna	11	Noviembre	2023-11-14T00:00:00	2024-11-08T16:00:00	5	Humedad	75
89141	7	Sololá	717	San Juan la Laguna	12	San Juan la Laguna	11	Noviembre	2023-11-14T00:00:00	2024-11-08T16:00:00	6	Velocidad del viento	0
89142	7	Sololá	717	San Juan la Laguna	12	San Juan la Laguna	11	Noviembre	2023-11-14T00:00:00	2024-11-08T16:00:00	7	Dirección del viento	0
89143	7	Sololá	717	San Juan la Laguna	12	San Juan la Laguna	11	Noviembre	2023-11-14T00:00:00	2024-11-08T16:00:00	1	Precipitación	0
89144	7	Sololá	717	San Juan la Laguna	12	San Juan la Laguna	11	Noviembre	2023-11-14T00:00:00	2024-11-08T16:00:00	8	Radiación solar	87
89145	7	Sololá	717	San Juan la Laguna	12	San Juan la Laguna	11	Noviembre	2023-11-14T00:00:00	2024-11-08T17:00:00	2	Temperatura media	22.5
89146	7	Sololá	717	San Juan la Laguna	12	San Juan la Laguna	11	Noviembre	2023-11-14T00:00:00	2024-11-08T17:00:00	4	Temperatura máxima	22.6
89147	7	Sololá	717	San Juan la Laguna	12	San Juan la Laguna	11	Noviembre	2023-11-14T00:00:00	2024-11-08T17:00:00	3	Temperatura mínima	22.3
89148	7	Sololá	717	San Juan la Laguna	12	San Juan la Laguna	11	Noviembre	2023-11-14T00:00:00	2024-11-08T17:00:00	5	Humedad	73
89149	7	Sololá	717	San Juan la Laguna	12	San Juan la Laguna	11	Noviembre	2023-11-14T00:00:00	2024-11-08T17:00:00	6	Velocidad del viento	0
89150	7	Sololá	717	San Juan la Laguna	12	San Juan la Laguna	11	Noviembre	2023-11-14T00:00:00	2024-11-08T17:00:00	7	Dirección del viento	0
89151	7	Sololá	717	San Juan la Laguna	12	San Juan la Laguna	11	Noviembre	2023-11-14T00:00:00	2024-11-08T17:00:00	1	Precipitación	0
89152	7	Sololá	717	San Juan la Laguna	12	San Juan la Laguna	11	Noviembre	2023-11-14T00:00:00	2024-11-08T17:00:00	8	Radiación solar	48
89153	7	Sololá	717	San Juan la Laguna	12	San Juan la Laguna	11	Noviembre	2023-11-14T00:00:00	2024-11-08T18:00:00	2	Temperatura media	22.3
89154	7	Sololá	717	San Juan la Laguna	12	San Juan la Laguna	11	Noviembre	2023-11-14T00:00:00	2024-11-08T18:00:00	4	Temperatura máxima	22.6
89155	7	Sololá	717	San Juan la Laguna	12	San Juan la Laguna	11	Noviembre	2023-11-14T00:00:00	2024-11-08T18:00:00	3	Temperatura mínima	22.1
89156	7	Sololá	717	San Juan la Laguna	12	San Juan la Laguna	11	Noviembre	2023-11-14T00:00:00	2024-11-08T18:00:00	5	Humedad	67
89157	7	Sololá	717	San Juan la Laguna	12	San Juan la Laguna	11	Noviembre	2023-11-14T00:00:00	2024-11-08T18:00:00	6	Velocidad del viento	1.6
89158	7	Sololá	717	San Juan la Laguna	12	San Juan la Laguna	11	Noviembre	2023-11-14T00:00:00	2024-11-08T18:00:00	7	Dirección del viento	1.61
89159	7	Sololá	717	San Juan la Laguna	12	San Juan la Laguna	11	Noviembre	2023-11-14T00:00:00	2024-11-08T18:00:00	1	Precipitación	0
89160	7	Sololá	717	San Juan la Laguna	12	San Juan la Laguna	11	Noviembre	2023-11-14T00:00:00	2024-11-08T18:00:00	8	Radiación solar	4
89161	7	Sololá	717	San Juan la Laguna	12	San Juan la Laguna	11	Noviembre	2023-11-14T00:00:00	2024-11-08T19:00:00	2	Temperatura media	21.6
89162	7	Sololá	717	San Juan la Laguna	12	San Juan la Laguna	11	Noviembre	2023-11-14T00:00:00	2024-11-08T19:00:00	4	Temperatura máxima	22.3
89163	7	Sololá	717	San Juan la Laguna	12	San Juan la Laguna	11	Noviembre	2023-11-14T00:00:00	2024-11-08T19:00:00	3	Temperatura mínima	21.6
89164	7	Sololá	717	San Juan la Laguna	12	San Juan la Laguna	11	Noviembre	2023-11-14T00:00:00	2024-11-08T19:00:00	5	Humedad	70
89165	7	Sololá	717	San Juan la Laguna	12	San Juan la Laguna	11	Noviembre	2023-11-14T00:00:00	2024-11-08T19:00:00	6	Velocidad del viento	0
89166	7	Sololá	717	San Juan la Laguna	12	San Juan la Laguna	11	Noviembre	2023-11-14T00:00:00	2024-11-08T19:00:00	7	Dirección del viento	0
89167	7	Sololá	717	San Juan la Laguna	12	San Juan la Laguna	11	Noviembre	2023-11-14T00:00:00	2024-11-08T19:00:00	1	Precipitación	0
89168	7	Sololá	717	San Juan la Laguna	12	San Juan la Laguna	11	Noviembre	2023-11-14T00:00:00	2024-11-08T19:00:00	8	Radiación solar	0
89169	7	Sololá	717	San Juan la Laguna	12	San Juan la Laguna	11	Noviembre	2023-11-14T00:00:00	2024-11-08T20:00:00	2	Temperatura media	20.9
89170	7	Sololá	717	San Juan la Laguna	12	San Juan la Laguna	11	Noviembre	2023-11-14T00:00:00	2024-11-08T20:00:00	4	Temperatura máxima	21.6
89171	7	Sololá	717	San Juan la Laguna	12	San Juan la Laguna	11	Noviembre	2023-11-14T00:00:00	2024-11-08T20:00:00	3	Temperatura mínima	20.7
89172	7	Sololá	717	San Juan la Laguna	12	San Juan la Laguna	11	Noviembre	2023-11-14T00:00:00	2024-11-08T20:00:00	5	Humedad	72
89173	7	Sololá	717	San Juan la Laguna	12	San Juan la Laguna	11	Noviembre	2023-11-14T00:00:00	2024-11-08T20:00:00	6	Velocidad del viento	0
89174	7	Sololá	717	San Juan la Laguna	12	San Juan la Laguna	11	Noviembre	2023-11-14T00:00:00	2024-11-08T20:00:00	7	Dirección del viento	0
89175	7	Sololá	717	San Juan la Laguna	12	San Juan la Laguna	11	Noviembre	2023-11-14T00:00:00	2024-11-08T20:00:00	1	Precipitación	0
89176	7	Sololá	717	San Juan la Laguna	12	San Juan la Laguna	11	Noviembre	2023-11-14T00:00:00	2024-11-08T20:00:00	8	Radiación solar	0
89177	7	Sololá	717	San Juan la Laguna	12	San Juan la Laguna	11	Noviembre	2023-11-14T00:00:00	2024-11-08T21:00:00	2	Temperatura media	19.2
89178	7	Sololá	717	San Juan la Laguna	12	San Juan la Laguna	11	Noviembre	2023-11-14T00:00:00	2024-11-08T21:00:00	4	Temperatura máxima	20.9
89179	7	Sololá	717	San Juan la Laguna	12	San Juan la Laguna	11	Noviembre	2023-11-14T00:00:00	2024-11-08T21:00:00	3	Temperatura mínima	19
89180	7	Sololá	717	San Juan la Laguna	12	San Juan la Laguna	11	Noviembre	2023-11-14T00:00:00	2024-11-08T21:00:00	5	Humedad	78
89181	7	Sololá	717	San Juan la Laguna	12	San Juan la Laguna	11	Noviembre	2023-11-14T00:00:00	2024-11-08T21:00:00	6	Velocidad del viento	0
89182	7	Sololá	717	San Juan la Laguna	12	San Juan la Laguna	11	Noviembre	2023-11-14T00:00:00	2024-11-08T21:00:00	7	Dirección del viento	0
89183	7	Sololá	717	San Juan la Laguna	12	San Juan la Laguna	11	Noviembre	2023-11-14T00:00:00	2024-11-08T21:00:00	1	Precipitación	0
89184	7	Sololá	717	San Juan la Laguna	12	San Juan la Laguna	11	Noviembre	2023-11-14T00:00:00	2024-11-08T21:00:00	8	Radiación solar	0
89185	7	Sololá	717	San Juan la Laguna	12	San Juan la Laguna	11	Noviembre	2023-11-14T00:00:00	2024-11-08T22:00:00	2	Temperatura media	18.9
89186	7	Sololá	717	San Juan la Laguna	12	San Juan la Laguna	11	Noviembre	2023-11-14T00:00:00	2024-11-08T22:00:00	4	Temperatura máxima	19.2
89187	7	Sololá	717	San Juan la Laguna	12	San Juan la Laguna	11	Noviembre	2023-11-14T00:00:00	2024-11-08T22:00:00	3	Temperatura mínima	18.8
89188	7	Sololá	717	San Juan la Laguna	12	San Juan la Laguna	11	Noviembre	2023-11-14T00:00:00	2024-11-08T22:00:00	5	Humedad	80
89189	7	Sololá	717	San Juan la Laguna	12	San Juan la Laguna	11	Noviembre	2023-11-14T00:00:00	2024-11-08T22:00:00	6	Velocidad del viento	0
89190	7	Sololá	717	San Juan la Laguna	12	San Juan la Laguna	11	Noviembre	2023-11-14T00:00:00	2024-11-08T22:00:00	7	Dirección del viento	0
89191	7	Sololá	717	San Juan la Laguna	12	San Juan la Laguna	11	Noviembre	2023-11-14T00:00:00	2024-11-08T22:00:00	1	Precipitación	0
89192	7	Sololá	717	San Juan la Laguna	12	San Juan la Laguna	11	Noviembre	2023-11-14T00:00:00	2024-11-08T22:00:00	8	Radiación solar	0
89193	7	Sololá	717	San Juan la Laguna	12	San Juan la Laguna	11	Noviembre	2023-11-14T00:00:00	2024-11-08T23:00:00	2	Temperatura media	18.4
89194	7	Sololá	717	San Juan la Laguna	12	San Juan la Laguna	11	Noviembre	2023-11-14T00:00:00	2024-11-08T23:00:00	4	Temperatura máxima	19.1
89195	7	Sololá	717	San Juan la Laguna	12	San Juan la Laguna	11	Noviembre	2023-11-14T00:00:00	2024-11-08T23:00:00	3	Temperatura mínima	18.3
89196	7	Sololá	717	San Juan la Laguna	12	San Juan la Laguna	11	Noviembre	2023-11-14T00:00:00	2024-11-08T23:00:00	5	Humedad	79
89197	7	Sololá	717	San Juan la Laguna	12	San Juan la Laguna	11	Noviembre	2023-11-14T00:00:00	2024-11-08T23:00:00	6	Velocidad del viento	0
89198	7	Sololá	717	San Juan la Laguna	12	San Juan la Laguna	11	Noviembre	2023-11-14T00:00:00	2024-11-08T23:00:00	7	Dirección del viento	0
89199	7	Sololá	717	San Juan la Laguna	12	San Juan la Laguna	11	Noviembre	2023-11-14T00:00:00	2024-11-08T23:00:00	1	Precipitación	0
89200	7	Sololá	717	San Juan la Laguna	12	San Juan la Laguna	11	Noviembre	2023-11-14T00:00:00	2024-11-08T23:00:00	8	Radiación solar	0
89201	7	Sololá	717	San Juan la Laguna	12	San Juan la Laguna	11	Noviembre	2023-11-15T00:00:00	2024-11-08T00:00:00	2	Temperatura media	19.1
89202	7	Sololá	717	San Juan la Laguna	12	San Juan la Laguna	11	Noviembre	2023-11-15T00:00:00	2024-11-08T00:00:00	4	Temperatura máxima	19.1
89203	7	Sololá	717	San Juan la Laguna	12	San Juan la Laguna	11	Noviembre	2023-11-15T00:00:00	2024-11-08T00:00:00	3	Temperatura mínima	18.3
89204	7	Sololá	717	San Juan la Laguna	12	San Juan la Laguna	11	Noviembre	2023-11-15T00:00:00	2024-11-08T00:00:00	5	Humedad	79
89205	7	Sololá	717	San Juan la Laguna	12	San Juan la Laguna	11	Noviembre	2023-11-15T00:00:00	2024-11-08T00:00:00	6	Velocidad del viento	0
89206	7	Sololá	717	San Juan la Laguna	12	San Juan la Laguna	11	Noviembre	2023-11-15T00:00:00	2024-11-08T00:00:00	7	Dirección del viento	0
89207	7	Sololá	717	San Juan la Laguna	12	San Juan la Laguna	11	Noviembre	2023-11-15T00:00:00	2024-11-08T00:00:00	1	Precipitación	0
89208	7	Sololá	717	San Juan la Laguna	12	San Juan la Laguna	11	Noviembre	2023-11-15T00:00:00	2024-11-08T00:00:00	8	Radiación solar	0
89209	7	Sololá	717	San Juan la Laguna	12	San Juan la Laguna	11	Noviembre	2023-11-15T00:00:00	2024-11-08T01:00:00	2	Temperatura media	18.2
89210	7	Sololá	717	San Juan la Laguna	12	San Juan la Laguna	11	Noviembre	2023-11-15T00:00:00	2024-11-08T01:00:00	4	Temperatura máxima	19.3
89211	7	Sololá	717	San Juan la Laguna	12	San Juan la Laguna	11	Noviembre	2023-11-15T00:00:00	2024-11-08T01:00:00	3	Temperatura mínima	18.2
89212	7	Sololá	717	San Juan la Laguna	12	San Juan la Laguna	11	Noviembre	2023-11-15T00:00:00	2024-11-08T01:00:00	5	Humedad	81
89213	7	Sololá	717	San Juan la Laguna	12	San Juan la Laguna	11	Noviembre	2023-11-15T00:00:00	2024-11-08T01:00:00	6	Velocidad del viento	0
89214	7	Sololá	717	San Juan la Laguna	12	San Juan la Laguna	11	Noviembre	2023-11-15T00:00:00	2024-11-08T01:00:00	7	Dirección del viento	0
89215	7	Sololá	717	San Juan la Laguna	12	San Juan la Laguna	11	Noviembre	2023-11-15T00:00:00	2024-11-08T01:00:00	1	Precipitación	0
89216	7	Sololá	717	San Juan la Laguna	12	San Juan la Laguna	11	Noviembre	2023-11-15T00:00:00	2024-11-08T01:00:00	8	Radiación solar	0
89217	7	Sololá	717	San Juan la Laguna	12	San Juan la Laguna	11	Noviembre	2023-11-15T00:00:00	2024-11-08T02:00:00	2	Temperatura media	18.1
89218	7	Sololá	717	San Juan la Laguna	12	San Juan la Laguna	11	Noviembre	2023-11-15T00:00:00	2024-11-08T02:00:00	4	Temperatura máxima	18.2
89219	7	Sololá	717	San Juan la Laguna	12	San Juan la Laguna	11	Noviembre	2023-11-15T00:00:00	2024-11-08T02:00:00	3	Temperatura mínima	18
89220	7	Sololá	717	San Juan la Laguna	12	San Juan la Laguna	11	Noviembre	2023-11-15T00:00:00	2024-11-08T02:00:00	5	Humedad	81
89221	7	Sololá	717	San Juan la Laguna	12	San Juan la Laguna	11	Noviembre	2023-11-15T00:00:00	2024-11-08T02:00:00	6	Velocidad del viento	1.6
89222	7	Sololá	717	San Juan la Laguna	12	San Juan la Laguna	11	Noviembre	2023-11-15T00:00:00	2024-11-08T02:00:00	7	Dirección del viento	1.61
89223	7	Sololá	717	San Juan la Laguna	12	San Juan la Laguna	11	Noviembre	2023-11-15T00:00:00	2024-11-08T02:00:00	1	Precipitación	0
89224	7	Sololá	717	San Juan la Laguna	12	San Juan la Laguna	11	Noviembre	2023-11-15T00:00:00	2024-11-08T02:00:00	8	Radiación solar	0
89225	7	Sololá	717	San Juan la Laguna	12	San Juan la Laguna	11	Noviembre	2023-11-15T00:00:00	2024-11-08T03:00:00	2	Temperatura media	17.4
89226	7	Sololá	717	San Juan la Laguna	12	San Juan la Laguna	11	Noviembre	2023-11-15T00:00:00	2024-11-08T03:00:00	4	Temperatura máxima	18.1
89227	7	Sololá	717	San Juan la Laguna	12	San Juan la Laguna	11	Noviembre	2023-11-15T00:00:00	2024-11-08T03:00:00	3	Temperatura mínima	17.2
89228	7	Sololá	717	San Juan la Laguna	12	San Juan la Laguna	11	Noviembre	2023-11-15T00:00:00	2024-11-08T03:00:00	5	Humedad	82
89229	7	Sololá	717	San Juan la Laguna	12	San Juan la Laguna	11	Noviembre	2023-11-15T00:00:00	2024-11-08T03:00:00	6	Velocidad del viento	0
89230	7	Sololá	717	San Juan la Laguna	12	San Juan la Laguna	11	Noviembre	2023-11-15T00:00:00	2024-11-08T03:00:00	7	Dirección del viento	0
89231	7	Sololá	717	San Juan la Laguna	12	San Juan la Laguna	11	Noviembre	2023-11-15T00:00:00	2024-11-08T03:00:00	1	Precipitación	0
89232	7	Sololá	717	San Juan la Laguna	12	San Juan la Laguna	11	Noviembre	2023-11-15T00:00:00	2024-11-08T03:00:00	8	Radiación solar	0
89233	7	Sololá	717	San Juan la Laguna	12	San Juan la Laguna	11	Noviembre	2023-11-15T00:00:00	2024-11-08T04:00:00	2	Temperatura media	17.6
89234	7	Sololá	717	San Juan la Laguna	12	San Juan la Laguna	11	Noviembre	2023-11-15T00:00:00	2024-11-08T04:00:00	4	Temperatura máxima	17.7
89235	7	Sololá	717	San Juan la Laguna	12	San Juan la Laguna	11	Noviembre	2023-11-15T00:00:00	2024-11-08T04:00:00	3	Temperatura mínima	17.4
89236	7	Sololá	717	San Juan la Laguna	12	San Juan la Laguna	11	Noviembre	2023-11-15T00:00:00	2024-11-08T04:00:00	5	Humedad	81
89237	7	Sololá	717	San Juan la Laguna	12	San Juan la Laguna	11	Noviembre	2023-11-15T00:00:00	2024-11-08T04:00:00	6	Velocidad del viento	0
89238	7	Sololá	717	San Juan la Laguna	12	San Juan la Laguna	11	Noviembre	2023-11-15T00:00:00	2024-11-08T04:00:00	7	Dirección del viento	0
89239	7	Sololá	717	San Juan la Laguna	12	San Juan la Laguna	11	Noviembre	2023-11-15T00:00:00	2024-11-08T04:00:00	1	Precipitación	0
89240	7	Sololá	717	San Juan la Laguna	12	San Juan la Laguna	11	Noviembre	2023-11-15T00:00:00	2024-11-08T04:00:00	8	Radiación solar	0
89241	7	Sololá	717	San Juan la Laguna	12	San Juan la Laguna	11	Noviembre	2023-11-15T00:00:00	2024-11-08T05:00:00	2	Temperatura media	17.1
89242	7	Sololá	717	San Juan la Laguna	12	San Juan la Laguna	11	Noviembre	2023-11-15T00:00:00	2024-11-08T05:00:00	4	Temperatura máxima	17.6
89243	7	Sololá	717	San Juan la Laguna	12	San Juan la Laguna	11	Noviembre	2023-11-15T00:00:00	2024-11-08T05:00:00	3	Temperatura mínima	17
89244	7	Sololá	717	San Juan la Laguna	12	San Juan la Laguna	11	Noviembre	2023-11-15T00:00:00	2024-11-08T05:00:00	5	Humedad	82
89245	7	Sololá	717	San Juan la Laguna	12	San Juan la Laguna	11	Noviembre	2023-11-15T00:00:00	2024-11-08T05:00:00	6	Velocidad del viento	0
89246	7	Sololá	717	San Juan la Laguna	12	San Juan la Laguna	11	Noviembre	2023-11-15T00:00:00	2024-11-08T05:00:00	7	Dirección del viento	0
89247	7	Sololá	717	San Juan la Laguna	12	San Juan la Laguna	11	Noviembre	2023-11-15T00:00:00	2024-11-08T05:00:00	1	Precipitación	0
89248	7	Sololá	717	San Juan la Laguna	12	San Juan la Laguna	11	Noviembre	2023-11-15T00:00:00	2024-11-08T05:00:00	8	Radiación solar	0
89249	7	Sololá	717	San Juan la Laguna	12	San Juan la Laguna	11	Noviembre	2023-11-15T00:00:00	2024-11-08T06:00:00	2	Temperatura media	16.7
89250	7	Sololá	717	San Juan la Laguna	12	San Juan la Laguna	11	Noviembre	2023-11-15T00:00:00	2024-11-08T06:00:00	4	Temperatura máxima	17.1
89251	7	Sololá	717	San Juan la Laguna	12	San Juan la Laguna	11	Noviembre	2023-11-15T00:00:00	2024-11-08T06:00:00	3	Temperatura mínima	16.7
89252	7	Sololá	717	San Juan la Laguna	12	San Juan la Laguna	11	Noviembre	2023-11-15T00:00:00	2024-11-08T06:00:00	5	Humedad	83
89253	7	Sololá	717	San Juan la Laguna	12	San Juan la Laguna	11	Noviembre	2023-11-15T00:00:00	2024-11-08T06:00:00	6	Velocidad del viento	0
89254	7	Sololá	717	San Juan la Laguna	12	San Juan la Laguna	11	Noviembre	2023-11-15T00:00:00	2024-11-08T06:00:00	7	Dirección del viento	0
89255	7	Sololá	717	San Juan la Laguna	12	San Juan la Laguna	11	Noviembre	2023-11-15T00:00:00	2024-11-08T06:00:00	1	Precipitación	0
89256	7	Sololá	717	San Juan la Laguna	12	San Juan la Laguna	11	Noviembre	2023-11-15T00:00:00	2024-11-08T06:00:00	8	Radiación solar	0
89257	7	Sololá	717	San Juan la Laguna	12	San Juan la Laguna	11	Noviembre	2023-11-15T00:00:00	2024-11-08T07:00:00	2	Temperatura media	17.8
89258	7	Sololá	717	San Juan la Laguna	12	San Juan la Laguna	11	Noviembre	2023-11-15T00:00:00	2024-11-08T07:00:00	4	Temperatura máxima	17.8
89259	7	Sololá	717	San Juan la Laguna	12	San Juan la Laguna	11	Noviembre	2023-11-15T00:00:00	2024-11-08T07:00:00	3	Temperatura mínima	16.5
89260	7	Sololá	717	San Juan la Laguna	12	San Juan la Laguna	11	Noviembre	2023-11-15T00:00:00	2024-11-08T07:00:00	5	Humedad	80
89261	7	Sololá	717	San Juan la Laguna	12	San Juan la Laguna	11	Noviembre	2023-11-15T00:00:00	2024-11-08T07:00:00	6	Velocidad del viento	0
89262	7	Sololá	717	San Juan la Laguna	12	San Juan la Laguna	11	Noviembre	2023-11-15T00:00:00	2024-11-08T07:00:00	7	Dirección del viento	0
89263	7	Sololá	717	San Juan la Laguna	12	San Juan la Laguna	11	Noviembre	2023-11-15T00:00:00	2024-11-08T07:00:00	1	Precipitación	0
89264	7	Sololá	717	San Juan la Laguna	12	San Juan la Laguna	11	Noviembre	2023-11-15T00:00:00	2024-11-08T07:00:00	8	Radiación solar	43
89265	7	Sololá	717	San Juan la Laguna	12	San Juan la Laguna	11	Noviembre	2023-11-15T00:00:00	2024-11-08T08:00:00	2	Temperatura media	21.2
89266	7	Sololá	717	San Juan la Laguna	12	San Juan la Laguna	11	Noviembre	2023-11-15T00:00:00	2024-11-08T08:00:00	4	Temperatura máxima	21.2
89267	7	Sololá	717	San Juan la Laguna	12	San Juan la Laguna	11	Noviembre	2023-11-15T00:00:00	2024-11-08T08:00:00	3	Temperatura mínima	17.8
89268	7	Sololá	717	San Juan la Laguna	12	San Juan la Laguna	11	Noviembre	2023-11-15T00:00:00	2024-11-08T08:00:00	5	Humedad	71
89269	7	Sololá	717	San Juan la Laguna	12	San Juan la Laguna	11	Noviembre	2023-11-15T00:00:00	2024-11-08T08:00:00	6	Velocidad del viento	1.6
89270	7	Sololá	717	San Juan la Laguna	12	San Juan la Laguna	11	Noviembre	2023-11-15T00:00:00	2024-11-08T08:00:00	7	Dirección del viento	1.61
89271	7	Sololá	717	San Juan la Laguna	12	San Juan la Laguna	11	Noviembre	2023-11-15T00:00:00	2024-11-08T08:00:00	1	Precipitación	0
89272	7	Sololá	717	San Juan la Laguna	12	San Juan la Laguna	11	Noviembre	2023-11-15T00:00:00	2024-11-08T08:00:00	8	Radiación solar	235
89273	7	Sololá	717	San Juan la Laguna	12	San Juan la Laguna	11	Noviembre	2023-11-15T00:00:00	2024-11-08T09:00:00	2	Temperatura media	22.7
89274	7	Sololá	717	San Juan la Laguna	12	San Juan la Laguna	11	Noviembre	2023-11-15T00:00:00	2024-11-08T09:00:00	4	Temperatura máxima	22.7
89275	7	Sololá	717	San Juan la Laguna	12	San Juan la Laguna	11	Noviembre	2023-11-15T00:00:00	2024-11-08T09:00:00	3	Temperatura mínima	21.2
89276	7	Sololá	717	San Juan la Laguna	12	San Juan la Laguna	11	Noviembre	2023-11-15T00:00:00	2024-11-08T09:00:00	5	Humedad	67
89277	7	Sololá	717	San Juan la Laguna	12	San Juan la Laguna	11	Noviembre	2023-11-15T00:00:00	2024-11-08T09:00:00	6	Velocidad del viento	0
89278	7	Sololá	717	San Juan la Laguna	12	San Juan la Laguna	11	Noviembre	2023-11-15T00:00:00	2024-11-08T09:00:00	7	Dirección del viento	0
89279	7	Sololá	717	San Juan la Laguna	12	San Juan la Laguna	11	Noviembre	2023-11-15T00:00:00	2024-11-08T09:00:00	1	Precipitación	0
89280	7	Sololá	717	San Juan la Laguna	12	San Juan la Laguna	11	Noviembre	2023-11-15T00:00:00	2024-11-08T09:00:00	8	Radiación solar	365
89281	7	Sololá	717	San Juan la Laguna	12	San Juan la Laguna	11	Noviembre	2023-11-15T00:00:00	2024-11-08T10:00:00	2	Temperatura media	23.8
89282	7	Sololá	717	San Juan la Laguna	12	San Juan la Laguna	11	Noviembre	2023-11-15T00:00:00	2024-11-08T10:00:00	4	Temperatura máxima	23.8
89283	7	Sololá	717	San Juan la Laguna	12	San Juan la Laguna	11	Noviembre	2023-11-15T00:00:00	2024-11-08T10:00:00	3	Temperatura mínima	22.4
89284	7	Sololá	717	San Juan la Laguna	12	San Juan la Laguna	11	Noviembre	2023-11-15T00:00:00	2024-11-08T10:00:00	5	Humedad	63
89285	7	Sololá	717	San Juan la Laguna	12	San Juan la Laguna	11	Noviembre	2023-11-15T00:00:00	2024-11-08T10:00:00	6	Velocidad del viento	1.6
89286	7	Sololá	717	San Juan la Laguna	12	San Juan la Laguna	11	Noviembre	2023-11-15T00:00:00	2024-11-08T10:00:00	7	Dirección del viento	1.61
89287	7	Sololá	717	San Juan la Laguna	12	San Juan la Laguna	11	Noviembre	2023-11-15T00:00:00	2024-11-08T10:00:00	1	Precipitación	0
89288	7	Sololá	717	San Juan la Laguna	12	San Juan la Laguna	11	Noviembre	2023-11-15T00:00:00	2024-11-08T10:00:00	8	Radiación solar	568
89289	7	Sololá	717	San Juan la Laguna	12	San Juan la Laguna	11	Noviembre	2023-11-15T00:00:00	2024-11-08T11:00:00	2	Temperatura media	25.8
89290	7	Sololá	717	San Juan la Laguna	12	San Juan la Laguna	11	Noviembre	2023-11-15T00:00:00	2024-11-08T11:00:00	4	Temperatura máxima	25.8
89291	7	Sololá	717	San Juan la Laguna	12	San Juan la Laguna	11	Noviembre	2023-11-15T00:00:00	2024-11-08T11:00:00	3	Temperatura mínima	23.8
89292	7	Sololá	717	San Juan la Laguna	12	San Juan la Laguna	11	Noviembre	2023-11-15T00:00:00	2024-11-08T11:00:00	5	Humedad	55
89293	7	Sololá	717	San Juan la Laguna	12	San Juan la Laguna	11	Noviembre	2023-11-15T00:00:00	2024-11-08T11:00:00	6	Velocidad del viento	4.8
89294	7	Sololá	717	San Juan la Laguna	12	San Juan la Laguna	11	Noviembre	2023-11-15T00:00:00	2024-11-08T11:00:00	7	Dirección del viento	4.83
89295	7	Sololá	717	San Juan la Laguna	12	San Juan la Laguna	11	Noviembre	2023-11-15T00:00:00	2024-11-08T11:00:00	1	Precipitación	0
89296	7	Sololá	717	San Juan la Laguna	12	San Juan la Laguna	11	Noviembre	2023-11-15T00:00:00	2024-11-08T11:00:00	8	Radiación solar	573
89297	7	Sololá	717	San Juan la Laguna	12	San Juan la Laguna	11	Noviembre	2023-11-15T00:00:00	2024-11-08T12:00:00	2	Temperatura media	26.8
89298	7	Sololá	717	San Juan la Laguna	12	San Juan la Laguna	11	Noviembre	2023-11-15T00:00:00	2024-11-08T12:00:00	4	Temperatura máxima	26.8
89299	7	Sololá	717	San Juan la Laguna	12	San Juan la Laguna	11	Noviembre	2023-11-15T00:00:00	2024-11-08T12:00:00	3	Temperatura mínima	25.8
89300	7	Sololá	717	San Juan la Laguna	12	San Juan la Laguna	11	Noviembre	2023-11-15T00:00:00	2024-11-08T12:00:00	5	Humedad	51
89301	7	Sololá	717	San Juan la Laguna	12	San Juan la Laguna	11	Noviembre	2023-11-15T00:00:00	2024-11-08T12:00:00	6	Velocidad del viento	3.2
89302	7	Sololá	717	San Juan la Laguna	12	San Juan la Laguna	11	Noviembre	2023-11-15T00:00:00	2024-11-08T12:00:00	7	Dirección del viento	3.22
89303	7	Sololá	717	San Juan la Laguna	12	San Juan la Laguna	11	Noviembre	2023-11-15T00:00:00	2024-11-08T12:00:00	1	Precipitación	0
89304	7	Sololá	717	San Juan la Laguna	12	San Juan la Laguna	11	Noviembre	2023-11-15T00:00:00	2024-11-08T12:00:00	8	Radiación solar	783
89305	7	Sololá	717	San Juan la Laguna	12	San Juan la Laguna	11	Noviembre	2023-11-15T00:00:00	2024-11-08T13:00:00	2	Temperatura media	27.1
89306	7	Sololá	717	San Juan la Laguna	12	San Juan la Laguna	11	Noviembre	2023-11-15T00:00:00	2024-11-08T13:00:00	4	Temperatura máxima	27.3
89307	7	Sololá	717	San Juan la Laguna	12	San Juan la Laguna	11	Noviembre	2023-11-15T00:00:00	2024-11-08T13:00:00	3	Temperatura mínima	26.7
89308	7	Sololá	717	San Juan la Laguna	12	San Juan la Laguna	11	Noviembre	2023-11-15T00:00:00	2024-11-08T13:00:00	5	Humedad	50
89309	7	Sololá	717	San Juan la Laguna	12	San Juan la Laguna	11	Noviembre	2023-11-15T00:00:00	2024-11-08T13:00:00	6	Velocidad del viento	4.8
89310	7	Sololá	717	San Juan la Laguna	12	San Juan la Laguna	11	Noviembre	2023-11-15T00:00:00	2024-11-08T13:00:00	7	Dirección del viento	4.83
89311	7	Sololá	717	San Juan la Laguna	12	San Juan la Laguna	11	Noviembre	2023-11-15T00:00:00	2024-11-08T13:00:00	1	Precipitación	0
89312	7	Sololá	717	San Juan la Laguna	12	San Juan la Laguna	11	Noviembre	2023-11-15T00:00:00	2024-11-08T13:00:00	8	Radiación solar	807
89313	7	Sololá	717	San Juan la Laguna	12	San Juan la Laguna	11	Noviembre	2023-11-15T00:00:00	2024-11-08T14:00:00	2	Temperatura media	27.3
89314	7	Sololá	717	San Juan la Laguna	12	San Juan la Laguna	11	Noviembre	2023-11-15T00:00:00	2024-11-08T14:00:00	4	Temperatura máxima	27.8
89315	7	Sololá	717	San Juan la Laguna	12	San Juan la Laguna	11	Noviembre	2023-11-15T00:00:00	2024-11-08T14:00:00	3	Temperatura mínima	26.9
89316	7	Sololá	717	San Juan la Laguna	12	San Juan la Laguna	11	Noviembre	2023-11-15T00:00:00	2024-11-08T14:00:00	5	Humedad	52
89317	7	Sololá	717	San Juan la Laguna	12	San Juan la Laguna	11	Noviembre	2023-11-15T00:00:00	2024-11-08T14:00:00	6	Velocidad del viento	6.4
89318	7	Sololá	717	San Juan la Laguna	12	San Juan la Laguna	11	Noviembre	2023-11-15T00:00:00	2024-11-08T14:00:00	7	Dirección del viento	6.44
89319	7	Sololá	717	San Juan la Laguna	12	San Juan la Laguna	11	Noviembre	2023-11-15T00:00:00	2024-11-08T14:00:00	1	Precipitación	0
89320	7	Sololá	717	San Juan la Laguna	12	San Juan la Laguna	11	Noviembre	2023-11-15T00:00:00	2024-11-08T14:00:00	8	Radiación solar	756
89321	7	Sololá	717	San Juan la Laguna	12	San Juan la Laguna	11	Noviembre	2023-11-15T00:00:00	2024-11-08T15:00:00	2	Temperatura media	26.3
89322	7	Sololá	717	San Juan la Laguna	12	San Juan la Laguna	11	Noviembre	2023-11-15T00:00:00	2024-11-08T15:00:00	4	Temperatura máxima	27.3
89323	7	Sololá	717	San Juan la Laguna	12	San Juan la Laguna	11	Noviembre	2023-11-15T00:00:00	2024-11-08T15:00:00	3	Temperatura mínima	25.7
89324	7	Sololá	717	San Juan la Laguna	12	San Juan la Laguna	11	Noviembre	2023-11-15T00:00:00	2024-11-08T15:00:00	5	Humedad	54
89325	7	Sololá	717	San Juan la Laguna	12	San Juan la Laguna	11	Noviembre	2023-11-15T00:00:00	2024-11-08T15:00:00	6	Velocidad del viento	8
89326	7	Sololá	717	San Juan la Laguna	12	San Juan la Laguna	11	Noviembre	2023-11-15T00:00:00	2024-11-08T15:00:00	7	Dirección del viento	8.05
89327	7	Sololá	717	San Juan la Laguna	12	San Juan la Laguna	11	Noviembre	2023-11-15T00:00:00	2024-11-08T15:00:00	1	Precipitación	0
89328	7	Sololá	717	San Juan la Laguna	12	San Juan la Laguna	11	Noviembre	2023-11-15T00:00:00	2024-11-08T15:00:00	8	Radiación solar	430
89329	7	Sololá	717	San Juan la Laguna	12	San Juan la Laguna	11	Noviembre	2023-11-15T00:00:00	2024-11-08T16:00:00	2	Temperatura media	24.2
89330	7	Sololá	717	San Juan la Laguna	12	San Juan la Laguna	11	Noviembre	2023-11-15T00:00:00	2024-11-08T16:00:00	4	Temperatura máxima	26.6
89331	7	Sololá	717	San Juan la Laguna	12	San Juan la Laguna	11	Noviembre	2023-11-15T00:00:00	2024-11-08T16:00:00	3	Temperatura mínima	23.8
89332	7	Sololá	717	San Juan la Laguna	12	San Juan la Laguna	11	Noviembre	2023-11-15T00:00:00	2024-11-08T16:00:00	5	Humedad	70
89333	7	Sololá	717	San Juan la Laguna	12	San Juan la Laguna	11	Noviembre	2023-11-15T00:00:00	2024-11-08T16:00:00	6	Velocidad del viento	6.4
89334	7	Sololá	717	San Juan la Laguna	12	San Juan la Laguna	11	Noviembre	2023-11-15T00:00:00	2024-11-08T16:00:00	7	Dirección del viento	6.44
89335	7	Sololá	717	San Juan la Laguna	12	San Juan la Laguna	11	Noviembre	2023-11-15T00:00:00	2024-11-08T16:00:00	1	Precipitación	0
89336	7	Sololá	717	San Juan la Laguna	12	San Juan la Laguna	11	Noviembre	2023-11-15T00:00:00	2024-11-08T16:00:00	8	Radiación solar	364
89337	7	Sololá	717	San Juan la Laguna	12	San Juan la Laguna	11	Noviembre	2023-11-15T00:00:00	2024-11-08T17:00:00	2	Temperatura media	23.7
89338	7	Sololá	717	San Juan la Laguna	12	San Juan la Laguna	11	Noviembre	2023-11-15T00:00:00	2024-11-08T17:00:00	4	Temperatura máxima	25.1
89339	7	Sololá	717	San Juan la Laguna	12	San Juan la Laguna	11	Noviembre	2023-11-15T00:00:00	2024-11-08T17:00:00	3	Temperatura mínima	23.7
89340	7	Sololá	717	San Juan la Laguna	12	San Juan la Laguna	11	Noviembre	2023-11-15T00:00:00	2024-11-08T17:00:00	5	Humedad	66
89341	7	Sololá	717	San Juan la Laguna	12	San Juan la Laguna	11	Noviembre	2023-11-15T00:00:00	2024-11-08T17:00:00	6	Velocidad del viento	1.6
89342	7	Sololá	717	San Juan la Laguna	12	San Juan la Laguna	11	Noviembre	2023-11-15T00:00:00	2024-11-08T17:00:00	7	Dirección del viento	1.61
89343	7	Sololá	717	San Juan la Laguna	12	San Juan la Laguna	11	Noviembre	2023-11-15T00:00:00	2024-11-08T17:00:00	1	Precipitación	0
89344	7	Sololá	717	San Juan la Laguna	12	San Juan la Laguna	11	Noviembre	2023-11-15T00:00:00	2024-11-08T17:00:00	8	Radiación solar	117
89345	7	Sololá	717	San Juan la Laguna	12	San Juan la Laguna	11	Noviembre	2023-11-15T00:00:00	2024-11-08T18:00:00	2	Temperatura media	22.1
89346	7	Sololá	717	San Juan la Laguna	12	San Juan la Laguna	11	Noviembre	2023-11-15T00:00:00	2024-11-08T18:00:00	4	Temperatura máxima	23.7
89347	7	Sololá	717	San Juan la Laguna	12	San Juan la Laguna	11	Noviembre	2023-11-15T00:00:00	2024-11-08T18:00:00	3	Temperatura mínima	22.1
89348	7	Sololá	717	San Juan la Laguna	12	San Juan la Laguna	11	Noviembre	2023-11-15T00:00:00	2024-11-08T18:00:00	5	Humedad	69
89349	7	Sololá	717	San Juan la Laguna	12	San Juan la Laguna	11	Noviembre	2023-11-15T00:00:00	2024-11-08T18:00:00	6	Velocidad del viento	1.6
89350	7	Sololá	717	San Juan la Laguna	12	San Juan la Laguna	11	Noviembre	2023-11-15T00:00:00	2024-11-08T18:00:00	7	Dirección del viento	1.61
89351	7	Sololá	717	San Juan la Laguna	12	San Juan la Laguna	11	Noviembre	2023-11-15T00:00:00	2024-11-08T18:00:00	1	Precipitación	0
89352	7	Sololá	717	San Juan la Laguna	12	San Juan la Laguna	11	Noviembre	2023-11-15T00:00:00	2024-11-08T18:00:00	8	Radiación solar	6
89353	7	Sololá	717	San Juan la Laguna	12	San Juan la Laguna	11	Noviembre	2023-11-15T00:00:00	2024-11-08T19:00:00	2	Temperatura media	21.4
89354	7	Sololá	717	San Juan la Laguna	12	San Juan la Laguna	11	Noviembre	2023-11-15T00:00:00	2024-11-08T19:00:00	4	Temperatura máxima	22.1
89355	7	Sololá	717	San Juan la Laguna	12	San Juan la Laguna	11	Noviembre	2023-11-15T00:00:00	2024-11-08T19:00:00	3	Temperatura mínima	21.4
89356	7	Sololá	717	San Juan la Laguna	12	San Juan la Laguna	11	Noviembre	2023-11-15T00:00:00	2024-11-08T19:00:00	5	Humedad	70
89357	7	Sololá	717	San Juan la Laguna	12	San Juan la Laguna	11	Noviembre	2023-11-15T00:00:00	2024-11-08T19:00:00	6	Velocidad del viento	3.2
89358	7	Sololá	717	San Juan la Laguna	12	San Juan la Laguna	11	Noviembre	2023-11-15T00:00:00	2024-11-08T19:00:00	7	Dirección del viento	3.22
89359	7	Sololá	717	San Juan la Laguna	12	San Juan la Laguna	11	Noviembre	2023-11-15T00:00:00	2024-11-08T19:00:00	1	Precipitación	0
89360	7	Sololá	717	San Juan la Laguna	12	San Juan la Laguna	11	Noviembre	2023-11-15T00:00:00	2024-11-08T19:00:00	8	Radiación solar	0
89361	7	Sololá	717	San Juan la Laguna	12	San Juan la Laguna	11	Noviembre	2023-11-15T00:00:00	2024-11-08T20:00:00	2	Temperatura media	19.4
89362	7	Sololá	717	San Juan la Laguna	12	San Juan la Laguna	11	Noviembre	2023-11-15T00:00:00	2024-11-08T20:00:00	4	Temperatura máxima	21.4
89363	7	Sololá	717	San Juan la Laguna	12	San Juan la Laguna	11	Noviembre	2023-11-15T00:00:00	2024-11-08T20:00:00	3	Temperatura mínima	19.3
89364	7	Sololá	717	San Juan la Laguna	12	San Juan la Laguna	11	Noviembre	2023-11-15T00:00:00	2024-11-08T20:00:00	5	Humedad	79
89365	7	Sololá	717	San Juan la Laguna	12	San Juan la Laguna	11	Noviembre	2023-11-15T00:00:00	2024-11-08T20:00:00	6	Velocidad del viento	1.6
89366	7	Sololá	717	San Juan la Laguna	12	San Juan la Laguna	11	Noviembre	2023-11-15T00:00:00	2024-11-08T20:00:00	7	Dirección del viento	1.61
89367	7	Sololá	717	San Juan la Laguna	12	San Juan la Laguna	11	Noviembre	2023-11-15T00:00:00	2024-11-08T20:00:00	1	Precipitación	0
89368	7	Sololá	717	San Juan la Laguna	12	San Juan la Laguna	11	Noviembre	2023-11-15T00:00:00	2024-11-08T20:00:00	8	Radiación solar	0
89369	7	Sololá	717	San Juan la Laguna	12	San Juan la Laguna	11	Noviembre	2023-11-15T00:00:00	2024-11-08T21:00:00	2	Temperatura media	18.6
89370	7	Sololá	717	San Juan la Laguna	12	San Juan la Laguna	11	Noviembre	2023-11-15T00:00:00	2024-11-08T21:00:00	4	Temperatura máxima	19.6
89371	7	Sololá	717	San Juan la Laguna	12	San Juan la Laguna	11	Noviembre	2023-11-15T00:00:00	2024-11-08T21:00:00	3	Temperatura mínima	18.6
89372	7	Sololá	717	San Juan la Laguna	12	San Juan la Laguna	11	Noviembre	2023-11-15T00:00:00	2024-11-08T21:00:00	5	Humedad	81
89373	7	Sololá	717	San Juan la Laguna	12	San Juan la Laguna	11	Noviembre	2023-11-15T00:00:00	2024-11-08T21:00:00	6	Velocidad del viento	0
89374	7	Sololá	717	San Juan la Laguna	12	San Juan la Laguna	11	Noviembre	2023-11-15T00:00:00	2024-11-08T21:00:00	7	Dirección del viento	0
89375	7	Sololá	717	San Juan la Laguna	12	San Juan la Laguna	11	Noviembre	2023-11-15T00:00:00	2024-11-08T21:00:00	1	Precipitación	0
89376	7	Sololá	717	San Juan la Laguna	12	San Juan la Laguna	11	Noviembre	2023-11-15T00:00:00	2024-11-08T21:00:00	8	Radiación solar	0
89377	7	Sololá	717	San Juan la Laguna	12	San Juan la Laguna	11	Noviembre	2023-11-15T00:00:00	2024-11-08T22:00:00	2	Temperatura media	18.1
89378	7	Sololá	717	San Juan la Laguna	12	San Juan la Laguna	11	Noviembre	2023-11-15T00:00:00	2024-11-08T22:00:00	4	Temperatura máxima	18.8
89379	7	Sololá	717	San Juan la Laguna	12	San Juan la Laguna	11	Noviembre	2023-11-15T00:00:00	2024-11-08T22:00:00	3	Temperatura mínima	18.1
89380	7	Sololá	717	San Juan la Laguna	12	San Juan la Laguna	11	Noviembre	2023-11-15T00:00:00	2024-11-08T22:00:00	5	Humedad	81
89381	7	Sololá	717	San Juan la Laguna	12	San Juan la Laguna	11	Noviembre	2023-11-15T00:00:00	2024-11-08T22:00:00	6	Velocidad del viento	1.6
89382	7	Sololá	717	San Juan la Laguna	12	San Juan la Laguna	11	Noviembre	2023-11-15T00:00:00	2024-11-08T22:00:00	7	Dirección del viento	1.61
89383	7	Sololá	717	San Juan la Laguna	12	San Juan la Laguna	11	Noviembre	2023-11-15T00:00:00	2024-11-08T22:00:00	1	Precipitación	0
89384	7	Sololá	717	San Juan la Laguna	12	San Juan la Laguna	11	Noviembre	2023-11-15T00:00:00	2024-11-08T22:00:00	8	Radiación solar	0
89385	7	Sololá	717	San Juan la Laguna	12	San Juan la Laguna	11	Noviembre	2023-11-15T00:00:00	2024-11-08T23:00:00	2	Temperatura media	17.7
89386	7	Sololá	717	San Juan la Laguna	12	San Juan la Laguna	11	Noviembre	2023-11-15T00:00:00	2024-11-08T23:00:00	4	Temperatura máxima	18.3
89387	7	Sololá	717	San Juan la Laguna	12	San Juan la Laguna	11	Noviembre	2023-11-15T00:00:00	2024-11-08T23:00:00	3	Temperatura mínima	17.7
89388	7	Sololá	717	San Juan la Laguna	12	San Juan la Laguna	11	Noviembre	2023-11-15T00:00:00	2024-11-08T23:00:00	5	Humedad	80
89389	7	Sololá	717	San Juan la Laguna	12	San Juan la Laguna	11	Noviembre	2023-11-15T00:00:00	2024-11-08T23:00:00	6	Velocidad del viento	1.6
89390	7	Sololá	717	San Juan la Laguna	12	San Juan la Laguna	11	Noviembre	2023-11-15T00:00:00	2024-11-08T23:00:00	7	Dirección del viento	1.61
89391	7	Sololá	717	San Juan la Laguna	12	San Juan la Laguna	11	Noviembre	2023-11-15T00:00:00	2024-11-08T23:00:00	1	Precipitación	0
89392	7	Sololá	717	San Juan la Laguna	12	San Juan la Laguna	11	Noviembre	2023-11-15T00:00:00	2024-11-08T23:00:00	8	Radiación solar	0
89393	7	Sololá	717	San Juan la Laguna	12	San Juan la Laguna	11	Noviembre	2023-11-16T00:00:00	2024-11-08T00:00:00	2	Temperatura media	17
89394	7	Sololá	717	San Juan la Laguna	12	San Juan la Laguna	11	Noviembre	2023-11-16T00:00:00	2024-11-08T00:00:00	4	Temperatura máxima	17.7
89395	7	Sololá	717	San Juan la Laguna	12	San Juan la Laguna	11	Noviembre	2023-11-16T00:00:00	2024-11-08T00:00:00	3	Temperatura mínima	16.9
89396	7	Sololá	717	San Juan la Laguna	12	San Juan la Laguna	11	Noviembre	2023-11-16T00:00:00	2024-11-08T00:00:00	5	Humedad	78
89397	7	Sololá	717	San Juan la Laguna	12	San Juan la Laguna	11	Noviembre	2023-11-16T00:00:00	2024-11-08T00:00:00	6	Velocidad del viento	0
89398	7	Sololá	717	San Juan la Laguna	12	San Juan la Laguna	11	Noviembre	2023-11-16T00:00:00	2024-11-08T00:00:00	7	Dirección del viento	0
89399	7	Sololá	717	San Juan la Laguna	12	San Juan la Laguna	11	Noviembre	2023-11-16T00:00:00	2024-11-08T00:00:00	1	Precipitación	0
89400	7	Sololá	717	San Juan la Laguna	12	San Juan la Laguna	11	Noviembre	2023-11-16T00:00:00	2024-11-08T00:00:00	8	Radiación solar	0
89401	7	Sololá	717	San Juan la Laguna	12	San Juan la Laguna	11	Noviembre	2023-11-16T00:00:00	2024-11-08T01:00:00	2	Temperatura media	16.2
89402	7	Sololá	717	San Juan la Laguna	12	San Juan la Laguna	11	Noviembre	2023-11-16T00:00:00	2024-11-08T01:00:00	4	Temperatura máxima	17.4
89403	7	Sololá	717	San Juan la Laguna	12	San Juan la Laguna	11	Noviembre	2023-11-16T00:00:00	2024-11-08T01:00:00	3	Temperatura mínima	16.2
89404	7	Sololá	717	San Juan la Laguna	12	San Juan la Laguna	11	Noviembre	2023-11-16T00:00:00	2024-11-08T01:00:00	5	Humedad	78
89405	7	Sololá	717	San Juan la Laguna	12	San Juan la Laguna	11	Noviembre	2023-11-16T00:00:00	2024-11-08T01:00:00	6	Velocidad del viento	1.6
89406	7	Sololá	717	San Juan la Laguna	12	San Juan la Laguna	11	Noviembre	2023-11-16T00:00:00	2024-11-08T01:00:00	7	Dirección del viento	1.61
89407	7	Sololá	717	San Juan la Laguna	12	San Juan la Laguna	11	Noviembre	2023-11-16T00:00:00	2024-11-08T01:00:00	1	Precipitación	0
89408	7	Sololá	717	San Juan la Laguna	12	San Juan la Laguna	11	Noviembre	2023-11-16T00:00:00	2024-11-08T01:00:00	8	Radiación solar	0
89409	7	Sololá	717	San Juan la Laguna	12	San Juan la Laguna	11	Noviembre	2023-11-16T00:00:00	2024-11-08T02:00:00	2	Temperatura media	17.2
89410	7	Sololá	717	San Juan la Laguna	12	San Juan la Laguna	11	Noviembre	2023-11-16T00:00:00	2024-11-08T02:00:00	4	Temperatura máxima	17.3
89411	7	Sololá	717	San Juan la Laguna	12	San Juan la Laguna	11	Noviembre	2023-11-16T00:00:00	2024-11-08T02:00:00	3	Temperatura mínima	16.1
89412	7	Sololá	717	San Juan la Laguna	12	San Juan la Laguna	11	Noviembre	2023-11-16T00:00:00	2024-11-08T02:00:00	5	Humedad	73
89413	7	Sololá	717	San Juan la Laguna	12	San Juan la Laguna	11	Noviembre	2023-11-16T00:00:00	2024-11-08T02:00:00	6	Velocidad del viento	3.2
89414	7	Sololá	717	San Juan la Laguna	12	San Juan la Laguna	11	Noviembre	2023-11-16T00:00:00	2024-11-08T02:00:00	7	Dirección del viento	3.22
89415	7	Sololá	717	San Juan la Laguna	12	San Juan la Laguna	11	Noviembre	2023-11-16T00:00:00	2024-11-08T02:00:00	1	Precipitación	0
89416	7	Sololá	717	San Juan la Laguna	12	San Juan la Laguna	11	Noviembre	2023-11-16T00:00:00	2024-11-08T02:00:00	8	Radiación solar	0
89417	7	Sololá	717	San Juan la Laguna	12	San Juan la Laguna	11	Noviembre	2023-11-16T00:00:00	2024-11-08T03:00:00	2	Temperatura media	15.2
89418	7	Sololá	717	San Juan la Laguna	12	San Juan la Laguna	11	Noviembre	2023-11-16T00:00:00	2024-11-08T03:00:00	4	Temperatura máxima	17.2
89419	7	Sololá	717	San Juan la Laguna	12	San Juan la Laguna	11	Noviembre	2023-11-16T00:00:00	2024-11-08T03:00:00	3	Temperatura mínima	15.2
89420	7	Sololá	717	San Juan la Laguna	12	San Juan la Laguna	11	Noviembre	2023-11-16T00:00:00	2024-11-08T03:00:00	5	Humedad	80
89421	7	Sololá	717	San Juan la Laguna	12	San Juan la Laguna	11	Noviembre	2023-11-16T00:00:00	2024-11-08T03:00:00	6	Velocidad del viento	0
89422	7	Sololá	717	San Juan la Laguna	12	San Juan la Laguna	11	Noviembre	2023-11-16T00:00:00	2024-11-08T03:00:00	7	Dirección del viento	0
89423	7	Sololá	717	San Juan la Laguna	12	San Juan la Laguna	11	Noviembre	2023-11-16T00:00:00	2024-11-08T03:00:00	1	Precipitación	0
89424	7	Sololá	717	San Juan la Laguna	12	San Juan la Laguna	11	Noviembre	2023-11-16T00:00:00	2024-11-08T03:00:00	8	Radiación solar	0
89425	7	Sololá	717	San Juan la Laguna	12	San Juan la Laguna	11	Noviembre	2023-11-16T00:00:00	2024-11-08T04:00:00	2	Temperatura media	15.8
89426	7	Sololá	717	San Juan la Laguna	12	San Juan la Laguna	11	Noviembre	2023-11-16T00:00:00	2024-11-08T04:00:00	4	Temperatura máxima	15.9
89427	7	Sololá	717	San Juan la Laguna	12	San Juan la Laguna	11	Noviembre	2023-11-16T00:00:00	2024-11-08T04:00:00	3	Temperatura mínima	15.1
89428	7	Sololá	717	San Juan la Laguna	12	San Juan la Laguna	11	Noviembre	2023-11-16T00:00:00	2024-11-08T04:00:00	5	Humedad	77
89429	7	Sololá	717	San Juan la Laguna	12	San Juan la Laguna	11	Noviembre	2023-11-16T00:00:00	2024-11-08T04:00:00	6	Velocidad del viento	1.6
89430	7	Sololá	717	San Juan la Laguna	12	San Juan la Laguna	11	Noviembre	2023-11-16T00:00:00	2024-11-08T04:00:00	7	Dirección del viento	1.61
89431	7	Sololá	717	San Juan la Laguna	12	San Juan la Laguna	11	Noviembre	2023-11-16T00:00:00	2024-11-08T04:00:00	1	Precipitación	0
89432	7	Sololá	717	San Juan la Laguna	12	San Juan la Laguna	11	Noviembre	2023-11-16T00:00:00	2024-11-08T04:00:00	8	Radiación solar	0
89433	7	Sololá	717	San Juan la Laguna	12	San Juan la Laguna	11	Noviembre	2023-11-16T00:00:00	2024-11-08T05:00:00	2	Temperatura media	15.6
89434	7	Sololá	717	San Juan la Laguna	12	San Juan la Laguna	11	Noviembre	2023-11-16T00:00:00	2024-11-08T05:00:00	4	Temperatura máxima	15.8
89435	7	Sololá	717	San Juan la Laguna	12	San Juan la Laguna	11	Noviembre	2023-11-16T00:00:00	2024-11-08T05:00:00	3	Temperatura mínima	15.2
89436	7	Sololá	717	San Juan la Laguna	12	San Juan la Laguna	11	Noviembre	2023-11-16T00:00:00	2024-11-08T05:00:00	5	Humedad	78
89437	7	Sololá	717	San Juan la Laguna	12	San Juan la Laguna	11	Noviembre	2023-11-16T00:00:00	2024-11-08T05:00:00	6	Velocidad del viento	0
89438	7	Sololá	717	San Juan la Laguna	12	San Juan la Laguna	11	Noviembre	2023-11-16T00:00:00	2024-11-08T05:00:00	7	Dirección del viento	0
89439	7	Sololá	717	San Juan la Laguna	12	San Juan la Laguna	11	Noviembre	2023-11-16T00:00:00	2024-11-08T05:00:00	1	Precipitación	0
89440	7	Sololá	717	San Juan la Laguna	12	San Juan la Laguna	11	Noviembre	2023-11-16T00:00:00	2024-11-08T05:00:00	8	Radiación solar	0
89441	7	Sololá	717	San Juan la Laguna	12	San Juan la Laguna	11	Noviembre	2023-11-16T00:00:00	2024-11-08T06:00:00	2	Temperatura media	14.8
89442	7	Sololá	717	San Juan la Laguna	12	San Juan la Laguna	11	Noviembre	2023-11-16T00:00:00	2024-11-08T06:00:00	4	Temperatura máxima	15.9
89443	7	Sololá	717	San Juan la Laguna	12	San Juan la Laguna	11	Noviembre	2023-11-16T00:00:00	2024-11-08T06:00:00	3	Temperatura mínima	14.8
89444	7	Sololá	717	San Juan la Laguna	12	San Juan la Laguna	11	Noviembre	2023-11-16T00:00:00	2024-11-08T06:00:00	5	Humedad	81
89445	7	Sololá	717	San Juan la Laguna	12	San Juan la Laguna	11	Noviembre	2023-11-16T00:00:00	2024-11-08T06:00:00	6	Velocidad del viento	0
89446	7	Sololá	717	San Juan la Laguna	12	San Juan la Laguna	11	Noviembre	2023-11-16T00:00:00	2024-11-08T06:00:00	7	Dirección del viento	0
89447	7	Sololá	717	San Juan la Laguna	12	San Juan la Laguna	11	Noviembre	2023-11-16T00:00:00	2024-11-08T06:00:00	1	Precipitación	0
89448	7	Sololá	717	San Juan la Laguna	12	San Juan la Laguna	11	Noviembre	2023-11-16T00:00:00	2024-11-08T06:00:00	8	Radiación solar	0
89449	7	Sololá	717	San Juan la Laguna	12	San Juan la Laguna	11	Noviembre	2023-11-16T00:00:00	2024-11-08T07:00:00	2	Temperatura media	16.2
89450	7	Sololá	717	San Juan la Laguna	12	San Juan la Laguna	11	Noviembre	2023-11-16T00:00:00	2024-11-08T07:00:00	4	Temperatura máxima	16.2
89451	7	Sololá	717	San Juan la Laguna	12	San Juan la Laguna	11	Noviembre	2023-11-16T00:00:00	2024-11-08T07:00:00	3	Temperatura mínima	14.7
89452	7	Sololá	717	San Juan la Laguna	12	San Juan la Laguna	11	Noviembre	2023-11-16T00:00:00	2024-11-08T07:00:00	5	Humedad	76
89453	7	Sololá	717	San Juan la Laguna	12	San Juan la Laguna	11	Noviembre	2023-11-16T00:00:00	2024-11-08T07:00:00	6	Velocidad del viento	1.6
89454	7	Sololá	717	San Juan la Laguna	12	San Juan la Laguna	11	Noviembre	2023-11-16T00:00:00	2024-11-08T07:00:00	7	Dirección del viento	1.61
89455	7	Sololá	717	San Juan la Laguna	12	San Juan la Laguna	11	Noviembre	2023-11-16T00:00:00	2024-11-08T07:00:00	1	Precipitación	0
89456	7	Sololá	717	San Juan la Laguna	12	San Juan la Laguna	11	Noviembre	2023-11-16T00:00:00	2024-11-08T07:00:00	8	Radiación solar	31
89457	7	Sololá	717	San Juan la Laguna	12	San Juan la Laguna	11	Noviembre	2023-11-16T00:00:00	2024-11-08T08:00:00	2	Temperatura media	19.7
89458	7	Sololá	717	San Juan la Laguna	12	San Juan la Laguna	11	Noviembre	2023-11-16T00:00:00	2024-11-08T08:00:00	4	Temperatura máxima	19.7
89459	7	Sololá	717	San Juan la Laguna	12	San Juan la Laguna	11	Noviembre	2023-11-16T00:00:00	2024-11-08T08:00:00	3	Temperatura mínima	16.2
89460	7	Sololá	717	San Juan la Laguna	12	San Juan la Laguna	11	Noviembre	2023-11-16T00:00:00	2024-11-08T08:00:00	5	Humedad	69
89461	7	Sololá	717	San Juan la Laguna	12	San Juan la Laguna	11	Noviembre	2023-11-16T00:00:00	2024-11-08T08:00:00	6	Velocidad del viento	0
89462	7	Sololá	717	San Juan la Laguna	12	San Juan la Laguna	11	Noviembre	2023-11-16T00:00:00	2024-11-08T08:00:00	7	Dirección del viento	0
89463	7	Sololá	717	San Juan la Laguna	12	San Juan la Laguna	11	Noviembre	2023-11-16T00:00:00	2024-11-08T08:00:00	1	Precipitación	0
89464	7	Sololá	717	San Juan la Laguna	12	San Juan la Laguna	11	Noviembre	2023-11-16T00:00:00	2024-11-08T08:00:00	8	Radiación solar	230
89465	7	Sololá	717	San Juan la Laguna	12	San Juan la Laguna	11	Noviembre	2023-11-16T00:00:00	2024-11-08T09:00:00	2	Temperatura media	22.9
89466	7	Sololá	717	San Juan la Laguna	12	San Juan la Laguna	11	Noviembre	2023-11-16T00:00:00	2024-11-08T09:00:00	4	Temperatura máxima	23
89467	7	Sololá	717	San Juan la Laguna	12	San Juan la Laguna	11	Noviembre	2023-11-16T00:00:00	2024-11-08T09:00:00	3	Temperatura mínima	19.7
89468	7	Sololá	717	San Juan la Laguna	12	San Juan la Laguna	11	Noviembre	2023-11-16T00:00:00	2024-11-08T09:00:00	5	Humedad	59
89469	7	Sololá	717	San Juan la Laguna	12	San Juan la Laguna	11	Noviembre	2023-11-16T00:00:00	2024-11-08T09:00:00	6	Velocidad del viento	0
89470	7	Sololá	717	San Juan la Laguna	12	San Juan la Laguna	11	Noviembre	2023-11-16T00:00:00	2024-11-08T09:00:00	7	Dirección del viento	0
89471	7	Sololá	717	San Juan la Laguna	12	San Juan la Laguna	11	Noviembre	2023-11-16T00:00:00	2024-11-08T09:00:00	1	Precipitación	0
89472	7	Sololá	717	San Juan la Laguna	12	San Juan la Laguna	11	Noviembre	2023-11-16T00:00:00	2024-11-08T09:00:00	8	Radiación solar	434
89473	7	Sololá	717	San Juan la Laguna	12	San Juan la Laguna	11	Noviembre	2023-11-16T00:00:00	2024-11-08T10:00:00	2	Temperatura media	23.9
89474	7	Sololá	717	San Juan la Laguna	12	San Juan la Laguna	11	Noviembre	2023-11-16T00:00:00	2024-11-08T10:00:00	4	Temperatura máxima	23.9
89475	7	Sololá	717	San Juan la Laguna	12	San Juan la Laguna	11	Noviembre	2023-11-16T00:00:00	2024-11-08T10:00:00	3	Temperatura mínima	22.8
89476	7	Sololá	717	San Juan la Laguna	12	San Juan la Laguna	11	Noviembre	2023-11-16T00:00:00	2024-11-08T10:00:00	5	Humedad	55
89477	7	Sololá	717	San Juan la Laguna	12	San Juan la Laguna	11	Noviembre	2023-11-16T00:00:00	2024-11-08T10:00:00	6	Velocidad del viento	0
89478	7	Sololá	717	San Juan la Laguna	12	San Juan la Laguna	11	Noviembre	2023-11-16T00:00:00	2024-11-08T10:00:00	7	Dirección del viento	0
89479	7	Sololá	717	San Juan la Laguna	12	San Juan la Laguna	11	Noviembre	2023-11-16T00:00:00	2024-11-08T10:00:00	1	Precipitación	0
89480	7	Sololá	717	San Juan la Laguna	12	San Juan la Laguna	11	Noviembre	2023-11-16T00:00:00	2024-11-08T10:00:00	8	Radiación solar	608
89481	7	Sololá	717	San Juan la Laguna	12	San Juan la Laguna	11	Noviembre	2023-11-16T00:00:00	2024-11-08T11:00:00	2	Temperatura media	25.8
89482	7	Sololá	717	San Juan la Laguna	12	San Juan la Laguna	11	Noviembre	2023-11-16T00:00:00	2024-11-08T11:00:00	4	Temperatura máxima	25.8
89483	7	Sololá	717	San Juan la Laguna	12	San Juan la Laguna	11	Noviembre	2023-11-16T00:00:00	2024-11-08T11:00:00	3	Temperatura mínima	23.6
89484	7	Sololá	717	San Juan la Laguna	12	San Juan la Laguna	11	Noviembre	2023-11-16T00:00:00	2024-11-08T11:00:00	5	Humedad	48
89485	7	Sololá	717	San Juan la Laguna	12	San Juan la Laguna	11	Noviembre	2023-11-16T00:00:00	2024-11-08T11:00:00	6	Velocidad del viento	3.2
89486	7	Sololá	717	San Juan la Laguna	12	San Juan la Laguna	11	Noviembre	2023-11-16T00:00:00	2024-11-08T11:00:00	7	Dirección del viento	3.22
89487	7	Sololá	717	San Juan la Laguna	12	San Juan la Laguna	11	Noviembre	2023-11-16T00:00:00	2024-11-08T11:00:00	1	Precipitación	0
89488	7	Sololá	717	San Juan la Laguna	12	San Juan la Laguna	11	Noviembre	2023-11-16T00:00:00	2024-11-08T11:00:00	8	Radiación solar	619
89489	7	Sololá	717	San Juan la Laguna	12	San Juan la Laguna	11	Noviembre	2023-11-16T00:00:00	2024-11-08T12:00:00	2	Temperatura media	26.4
89490	7	Sololá	717	San Juan la Laguna	12	San Juan la Laguna	11	Noviembre	2023-11-16T00:00:00	2024-11-08T12:00:00	4	Temperatura máxima	26.4
89491	7	Sololá	717	San Juan la Laguna	12	San Juan la Laguna	11	Noviembre	2023-11-16T00:00:00	2024-11-08T12:00:00	3	Temperatura mínima	25.7
89492	7	Sololá	717	San Juan la Laguna	12	San Juan la Laguna	11	Noviembre	2023-11-16T00:00:00	2024-11-08T12:00:00	5	Humedad	49
89493	7	Sololá	717	San Juan la Laguna	12	San Juan la Laguna	11	Noviembre	2023-11-16T00:00:00	2024-11-08T12:00:00	6	Velocidad del viento	4.8
89494	7	Sololá	717	San Juan la Laguna	12	San Juan la Laguna	11	Noviembre	2023-11-16T00:00:00	2024-11-08T12:00:00	7	Dirección del viento	4.83
89495	7	Sololá	717	San Juan la Laguna	12	San Juan la Laguna	11	Noviembre	2023-11-16T00:00:00	2024-11-08T12:00:00	1	Precipitación	0
89496	7	Sololá	717	San Juan la Laguna	12	San Juan la Laguna	11	Noviembre	2023-11-16T00:00:00	2024-11-08T12:00:00	8	Radiación solar	782
89497	7	Sololá	717	San Juan la Laguna	12	San Juan la Laguna	11	Noviembre	2023-11-16T00:00:00	2024-11-08T13:00:00	2	Temperatura media	27.1
89498	7	Sololá	717	San Juan la Laguna	12	San Juan la Laguna	11	Noviembre	2023-11-16T00:00:00	2024-11-08T13:00:00	4	Temperatura máxima	27.5
89499	7	Sololá	717	San Juan la Laguna	12	San Juan la Laguna	11	Noviembre	2023-11-16T00:00:00	2024-11-08T13:00:00	3	Temperatura mínima	26.3
89500	7	Sololá	717	San Juan la Laguna	12	San Juan la Laguna	11	Noviembre	2023-11-16T00:00:00	2024-11-08T13:00:00	5	Humedad	47
89501	7	Sololá	717	San Juan la Laguna	12	San Juan la Laguna	11	Noviembre	2023-11-16T00:00:00	2024-11-08T13:00:00	6	Velocidad del viento	4.8
89502	7	Sololá	717	San Juan la Laguna	12	San Juan la Laguna	11	Noviembre	2023-11-16T00:00:00	2024-11-08T13:00:00	7	Dirección del viento	4.83
89503	7	Sololá	717	San Juan la Laguna	12	San Juan la Laguna	11	Noviembre	2023-11-16T00:00:00	2024-11-08T13:00:00	1	Precipitación	0
89504	7	Sololá	717	San Juan la Laguna	12	San Juan la Laguna	11	Noviembre	2023-11-16T00:00:00	2024-11-08T13:00:00	8	Radiación solar	788
89505	7	Sololá	717	San Juan la Laguna	12	San Juan la Laguna	11	Noviembre	2023-11-16T00:00:00	2024-11-08T14:00:00	2	Temperatura media	25.1
89506	7	Sololá	717	San Juan la Laguna	12	San Juan la Laguna	11	Noviembre	2023-11-16T00:00:00	2024-11-08T14:00:00	4	Temperatura máxima	27.1
89507	7	Sololá	717	San Juan la Laguna	12	San Juan la Laguna	11	Noviembre	2023-11-16T00:00:00	2024-11-08T14:00:00	3	Temperatura mínima	25
89508	7	Sololá	717	San Juan la Laguna	12	San Juan la Laguna	11	Noviembre	2023-11-16T00:00:00	2024-11-08T14:00:00	5	Humedad	65
89509	7	Sololá	717	San Juan la Laguna	12	San Juan la Laguna	11	Noviembre	2023-11-16T00:00:00	2024-11-08T14:00:00	6	Velocidad del viento	4.8
89510	7	Sololá	717	San Juan la Laguna	12	San Juan la Laguna	11	Noviembre	2023-11-16T00:00:00	2024-11-08T14:00:00	7	Dirección del viento	4.83
89511	7	Sololá	717	San Juan la Laguna	12	San Juan la Laguna	11	Noviembre	2023-11-16T00:00:00	2024-11-08T14:00:00	1	Precipitación	0
89512	7	Sololá	717	San Juan la Laguna	12	San Juan la Laguna	11	Noviembre	2023-11-16T00:00:00	2024-11-08T14:00:00	8	Radiación solar	700
89513	7	Sololá	717	San Juan la Laguna	12	San Juan la Laguna	11	Noviembre	2023-11-16T00:00:00	2024-11-08T15:00:00	2	Temperatura media	23.2
89514	7	Sololá	717	San Juan la Laguna	12	San Juan la Laguna	11	Noviembre	2023-11-16T00:00:00	2024-11-08T15:00:00	4	Temperatura máxima	25.1
89515	7	Sololá	717	San Juan la Laguna	12	San Juan la Laguna	11	Noviembre	2023-11-16T00:00:00	2024-11-08T15:00:00	3	Temperatura mínima	23.2
89516	7	Sololá	717	San Juan la Laguna	12	San Juan la Laguna	11	Noviembre	2023-11-16T00:00:00	2024-11-08T15:00:00	5	Humedad	72
89517	7	Sololá	717	San Juan la Laguna	12	San Juan la Laguna	11	Noviembre	2023-11-16T00:00:00	2024-11-08T15:00:00	6	Velocidad del viento	6.4
89518	7	Sololá	717	San Juan la Laguna	12	San Juan la Laguna	11	Noviembre	2023-11-16T00:00:00	2024-11-08T15:00:00	7	Dirección del viento	6.44
89519	7	Sololá	717	San Juan la Laguna	12	San Juan la Laguna	11	Noviembre	2023-11-16T00:00:00	2024-11-08T15:00:00	1	Precipitación	0
89520	7	Sololá	717	San Juan la Laguna	12	San Juan la Laguna	11	Noviembre	2023-11-16T00:00:00	2024-11-08T15:00:00	8	Radiación solar	567
89521	7	Sololá	717	San Juan la Laguna	12	San Juan la Laguna	11	Noviembre	2023-11-16T00:00:00	2024-11-08T16:00:00	2	Temperatura media	22.7
89522	7	Sololá	717	San Juan la Laguna	12	San Juan la Laguna	11	Noviembre	2023-11-16T00:00:00	2024-11-08T16:00:00	4	Temperatura máxima	23.6
89523	7	Sololá	717	San Juan la Laguna	12	San Juan la Laguna	11	Noviembre	2023-11-16T00:00:00	2024-11-08T16:00:00	3	Temperatura mínima	22.4
89524	7	Sololá	717	San Juan la Laguna	12	San Juan la Laguna	11	Noviembre	2023-11-16T00:00:00	2024-11-08T16:00:00	5	Humedad	74
89525	7	Sololá	717	San Juan la Laguna	12	San Juan la Laguna	11	Noviembre	2023-11-16T00:00:00	2024-11-08T16:00:00	6	Velocidad del viento	4.8
89526	7	Sololá	717	San Juan la Laguna	12	San Juan la Laguna	11	Noviembre	2023-11-16T00:00:00	2024-11-08T16:00:00	7	Dirección del viento	4.83
89527	7	Sololá	717	San Juan la Laguna	12	San Juan la Laguna	11	Noviembre	2023-11-16T00:00:00	2024-11-08T16:00:00	1	Precipitación	0
89528	7	Sololá	717	San Juan la Laguna	12	San Juan la Laguna	11	Noviembre	2023-11-16T00:00:00	2024-11-08T16:00:00	8	Radiación solar	371
89529	7	Sololá	717	San Juan la Laguna	12	San Juan la Laguna	11	Noviembre	2023-11-16T00:00:00	2024-11-08T17:00:00	2	Temperatura media	21.6
89530	7	Sololá	717	San Juan la Laguna	12	San Juan la Laguna	11	Noviembre	2023-11-16T00:00:00	2024-11-08T17:00:00	4	Temperatura máxima	22.8
89531	7	Sololá	717	San Juan la Laguna	12	San Juan la Laguna	11	Noviembre	2023-11-16T00:00:00	2024-11-08T17:00:00	3	Temperatura mínima	21.4
89532	7	Sololá	717	San Juan la Laguna	12	San Juan la Laguna	11	Noviembre	2023-11-16T00:00:00	2024-11-08T17:00:00	5	Humedad	79
89533	7	Sololá	717	San Juan la Laguna	12	San Juan la Laguna	11	Noviembre	2023-11-16T00:00:00	2024-11-08T17:00:00	6	Velocidad del viento	0
89534	7	Sololá	717	San Juan la Laguna	12	San Juan la Laguna	11	Noviembre	2023-11-16T00:00:00	2024-11-08T17:00:00	7	Dirección del viento	0
89535	7	Sololá	717	San Juan la Laguna	12	San Juan la Laguna	11	Noviembre	2023-11-16T00:00:00	2024-11-08T17:00:00	1	Precipitación	0
89536	7	Sololá	717	San Juan la Laguna	12	San Juan la Laguna	11	Noviembre	2023-11-16T00:00:00	2024-11-08T17:00:00	8	Radiación solar	32
89537	7	Sololá	717	San Juan la Laguna	12	San Juan la Laguna	11	Noviembre	2023-11-16T00:00:00	2024-11-08T18:00:00	2	Temperatura media	21.1
89538	7	Sololá	717	San Juan la Laguna	12	San Juan la Laguna	11	Noviembre	2023-11-16T00:00:00	2024-11-08T18:00:00	4	Temperatura máxima	21.6
89539	7	Sololá	717	San Juan la Laguna	12	San Juan la Laguna	11	Noviembre	2023-11-16T00:00:00	2024-11-08T18:00:00	3	Temperatura mínima	21.1
89540	7	Sololá	717	San Juan la Laguna	12	San Juan la Laguna	11	Noviembre	2023-11-16T00:00:00	2024-11-08T18:00:00	5	Humedad	83
89541	7	Sololá	717	San Juan la Laguna	12	San Juan la Laguna	11	Noviembre	2023-11-16T00:00:00	2024-11-08T18:00:00	6	Velocidad del viento	0
89542	7	Sololá	717	San Juan la Laguna	12	San Juan la Laguna	11	Noviembre	2023-11-16T00:00:00	2024-11-08T18:00:00	7	Dirección del viento	0
89543	7	Sololá	717	San Juan la Laguna	12	San Juan la Laguna	11	Noviembre	2023-11-16T00:00:00	2024-11-08T18:00:00	1	Precipitación	0
89544	7	Sololá	717	San Juan la Laguna	12	San Juan la Laguna	11	Noviembre	2023-11-16T00:00:00	2024-11-08T18:00:00	8	Radiación solar	2
89545	7	Sololá	717	San Juan la Laguna	12	San Juan la Laguna	11	Noviembre	2023-11-16T00:00:00	2024-11-08T19:00:00	2	Temperatura media	21
89546	7	Sololá	717	San Juan la Laguna	12	San Juan la Laguna	11	Noviembre	2023-11-16T00:00:00	2024-11-08T19:00:00	4	Temperatura máxima	21.1
89547	7	Sololá	717	San Juan la Laguna	12	San Juan la Laguna	11	Noviembre	2023-11-16T00:00:00	2024-11-08T19:00:00	3	Temperatura mínima	20.9
89548	7	Sololá	717	San Juan la Laguna	12	San Juan la Laguna	11	Noviembre	2023-11-16T00:00:00	2024-11-08T19:00:00	5	Humedad	83
89549	7	Sololá	717	San Juan la Laguna	12	San Juan la Laguna	11	Noviembre	2023-11-16T00:00:00	2024-11-08T19:00:00	6	Velocidad del viento	0
89550	7	Sololá	717	San Juan la Laguna	12	San Juan la Laguna	11	Noviembre	2023-11-16T00:00:00	2024-11-08T19:00:00	7	Dirección del viento	0
89551	7	Sololá	717	San Juan la Laguna	12	San Juan la Laguna	11	Noviembre	2023-11-16T00:00:00	2024-11-08T19:00:00	1	Precipitación	0
89552	7	Sololá	717	San Juan la Laguna	12	San Juan la Laguna	11	Noviembre	2023-11-16T00:00:00	2024-11-08T19:00:00	8	Radiación solar	0
89553	7	Sololá	717	San Juan la Laguna	12	San Juan la Laguna	11	Noviembre	2023-11-16T00:00:00	2024-11-08T20:00:00	2	Temperatura media	20.4
89554	7	Sololá	717	San Juan la Laguna	12	San Juan la Laguna	11	Noviembre	2023-11-16T00:00:00	2024-11-08T20:00:00	4	Temperatura máxima	21.1
89555	7	Sololá	717	San Juan la Laguna	12	San Juan la Laguna	11	Noviembre	2023-11-16T00:00:00	2024-11-08T20:00:00	3	Temperatura mínima	20.4
89556	7	Sololá	717	San Juan la Laguna	12	San Juan la Laguna	11	Noviembre	2023-11-16T00:00:00	2024-11-08T20:00:00	5	Humedad	84
89557	7	Sololá	717	San Juan la Laguna	12	San Juan la Laguna	11	Noviembre	2023-11-16T00:00:00	2024-11-08T20:00:00	6	Velocidad del viento	0
89558	7	Sololá	717	San Juan la Laguna	12	San Juan la Laguna	11	Noviembre	2023-11-16T00:00:00	2024-11-08T20:00:00	7	Dirección del viento	0
89559	7	Sololá	717	San Juan la Laguna	12	San Juan la Laguna	11	Noviembre	2023-11-16T00:00:00	2024-11-08T20:00:00	1	Precipitación	0
89560	7	Sololá	717	San Juan la Laguna	12	San Juan la Laguna	11	Noviembre	2023-11-16T00:00:00	2024-11-08T20:00:00	8	Radiación solar	0
89561	7	Sololá	717	San Juan la Laguna	12	San Juan la Laguna	11	Noviembre	2023-11-16T00:00:00	2024-11-08T21:00:00	2	Temperatura media	19.9
89562	7	Sololá	717	San Juan la Laguna	12	San Juan la Laguna	11	Noviembre	2023-11-16T00:00:00	2024-11-08T21:00:00	4	Temperatura máxima	20.4
89563	7	Sololá	717	San Juan la Laguna	12	San Juan la Laguna	11	Noviembre	2023-11-16T00:00:00	2024-11-08T21:00:00	3	Temperatura mínima	19.9
89564	7	Sololá	717	San Juan la Laguna	12	San Juan la Laguna	11	Noviembre	2023-11-16T00:00:00	2024-11-08T21:00:00	5	Humedad	81
89565	7	Sololá	717	San Juan la Laguna	12	San Juan la Laguna	11	Noviembre	2023-11-16T00:00:00	2024-11-08T21:00:00	6	Velocidad del viento	0
89566	7	Sololá	717	San Juan la Laguna	12	San Juan la Laguna	11	Noviembre	2023-11-16T00:00:00	2024-11-08T21:00:00	7	Dirección del viento	0
89567	7	Sololá	717	San Juan la Laguna	12	San Juan la Laguna	11	Noviembre	2023-11-16T00:00:00	2024-11-08T21:00:00	1	Precipitación	0
89568	7	Sololá	717	San Juan la Laguna	12	San Juan la Laguna	11	Noviembre	2023-11-16T00:00:00	2024-11-08T21:00:00	8	Radiación solar	0
89569	7	Sololá	717	San Juan la Laguna	12	San Juan la Laguna	11	Noviembre	2023-11-16T00:00:00	2024-11-08T22:00:00	2	Temperatura media	19.1
89570	7	Sololá	717	San Juan la Laguna	12	San Juan la Laguna	11	Noviembre	2023-11-16T00:00:00	2024-11-08T22:00:00	4	Temperatura máxima	20.1
89571	7	Sololá	717	San Juan la Laguna	12	San Juan la Laguna	11	Noviembre	2023-11-16T00:00:00	2024-11-08T22:00:00	3	Temperatura mínima	19.1
89572	7	Sololá	717	San Juan la Laguna	12	San Juan la Laguna	11	Noviembre	2023-11-16T00:00:00	2024-11-08T22:00:00	5	Humedad	83
89573	7	Sololá	717	San Juan la Laguna	12	San Juan la Laguna	11	Noviembre	2023-11-16T00:00:00	2024-11-08T22:00:00	6	Velocidad del viento	0
89574	7	Sololá	717	San Juan la Laguna	12	San Juan la Laguna	11	Noviembre	2023-11-16T00:00:00	2024-11-08T22:00:00	7	Dirección del viento	0
89575	7	Sololá	717	San Juan la Laguna	12	San Juan la Laguna	11	Noviembre	2023-11-16T00:00:00	2024-11-08T22:00:00	1	Precipitación	0
89576	7	Sololá	717	San Juan la Laguna	12	San Juan la Laguna	11	Noviembre	2023-11-16T00:00:00	2024-11-08T22:00:00	8	Radiación solar	0
89577	7	Sololá	717	San Juan la Laguna	12	San Juan la Laguna	11	Noviembre	2023-11-16T00:00:00	2024-11-08T23:00:00	2	Temperatura media	18.8
89578	7	Sololá	717	San Juan la Laguna	12	San Juan la Laguna	11	Noviembre	2023-11-16T00:00:00	2024-11-08T23:00:00	4	Temperatura máxima	19.4
89579	7	Sololá	717	San Juan la Laguna	12	San Juan la Laguna	11	Noviembre	2023-11-16T00:00:00	2024-11-08T23:00:00	3	Temperatura mínima	18.8
89580	7	Sololá	717	San Juan la Laguna	12	San Juan la Laguna	11	Noviembre	2023-11-16T00:00:00	2024-11-08T23:00:00	5	Humedad	84
89581	7	Sololá	717	San Juan la Laguna	12	San Juan la Laguna	11	Noviembre	2023-11-16T00:00:00	2024-11-08T23:00:00	6	Velocidad del viento	0
89582	7	Sololá	717	San Juan la Laguna	12	San Juan la Laguna	11	Noviembre	2023-11-16T00:00:00	2024-11-08T23:00:00	7	Dirección del viento	0
89583	7	Sololá	717	San Juan la Laguna	12	San Juan la Laguna	11	Noviembre	2023-11-16T00:00:00	2024-11-08T23:00:00	1	Precipitación	0
89584	7	Sololá	717	San Juan la Laguna	12	San Juan la Laguna	11	Noviembre	2023-11-16T00:00:00	2024-11-08T23:00:00	8	Radiación solar	0
89585	7	Sololá	717	San Juan la Laguna	12	San Juan la Laguna	11	Noviembre	2023-11-17T00:00:00	2024-11-08T00:00:00	2	Temperatura media	17.7
89586	7	Sololá	717	San Juan la Laguna	12	San Juan la Laguna	11	Noviembre	2023-11-17T00:00:00	2024-11-08T00:00:00	4	Temperatura máxima	18.8
89587	7	Sololá	717	San Juan la Laguna	12	San Juan la Laguna	11	Noviembre	2023-11-17T00:00:00	2024-11-08T00:00:00	3	Temperatura mínima	17.7
89588	7	Sololá	717	San Juan la Laguna	12	San Juan la Laguna	11	Noviembre	2023-11-17T00:00:00	2024-11-08T00:00:00	5	Humedad	90
89589	7	Sololá	717	San Juan la Laguna	12	San Juan la Laguna	11	Noviembre	2023-11-17T00:00:00	2024-11-08T00:00:00	6	Velocidad del viento	0
89590	7	Sololá	717	San Juan la Laguna	12	San Juan la Laguna	11	Noviembre	2023-11-17T00:00:00	2024-11-08T00:00:00	7	Dirección del viento	0
89591	7	Sololá	717	San Juan la Laguna	12	San Juan la Laguna	11	Noviembre	2023-11-17T00:00:00	2024-11-08T00:00:00	1	Precipitación	2.8
89592	7	Sololá	717	San Juan la Laguna	12	San Juan la Laguna	11	Noviembre	2023-11-17T00:00:00	2024-11-08T00:00:00	8	Radiación solar	0
89593	7	Sololá	717	San Juan la Laguna	12	San Juan la Laguna	11	Noviembre	2023-11-17T00:00:00	2024-11-08T01:00:00	2	Temperatura media	17.1
89594	7	Sololá	717	San Juan la Laguna	12	San Juan la Laguna	11	Noviembre	2023-11-17T00:00:00	2024-11-08T01:00:00	4	Temperatura máxima	17.7
89595	7	Sololá	717	San Juan la Laguna	12	San Juan la Laguna	11	Noviembre	2023-11-17T00:00:00	2024-11-08T01:00:00	3	Temperatura mínima	17.1
89596	7	Sololá	717	San Juan la Laguna	12	San Juan la Laguna	11	Noviembre	2023-11-17T00:00:00	2024-11-08T01:00:00	5	Humedad	91
89597	7	Sololá	717	San Juan la Laguna	12	San Juan la Laguna	11	Noviembre	2023-11-17T00:00:00	2024-11-08T01:00:00	6	Velocidad del viento	0
89598	7	Sololá	717	San Juan la Laguna	12	San Juan la Laguna	11	Noviembre	2023-11-17T00:00:00	2024-11-08T01:00:00	7	Dirección del viento	0
89599	7	Sololá	717	San Juan la Laguna	12	San Juan la Laguna	11	Noviembre	2023-11-17T00:00:00	2024-11-08T01:00:00	1	Precipitación	4
89600	7	Sololá	717	San Juan la Laguna	12	San Juan la Laguna	11	Noviembre	2023-11-17T00:00:00	2024-11-08T01:00:00	8	Radiación solar	0
89601	7	Sololá	717	San Juan la Laguna	12	San Juan la Laguna	11	Noviembre	2023-11-17T00:00:00	2024-11-08T02:00:00	2	Temperatura media	17.2
89602	7	Sololá	717	San Juan la Laguna	12	San Juan la Laguna	11	Noviembre	2023-11-17T00:00:00	2024-11-08T02:00:00	4	Temperatura máxima	17.2
89603	7	Sololá	717	San Juan la Laguna	12	San Juan la Laguna	11	Noviembre	2023-11-17T00:00:00	2024-11-08T02:00:00	3	Temperatura mínima	17
89604	7	Sololá	717	San Juan la Laguna	12	San Juan la Laguna	11	Noviembre	2023-11-17T00:00:00	2024-11-08T02:00:00	5	Humedad	91
89605	7	Sololá	717	San Juan la Laguna	12	San Juan la Laguna	11	Noviembre	2023-11-17T00:00:00	2024-11-08T02:00:00	6	Velocidad del viento	0
89606	7	Sololá	717	San Juan la Laguna	12	San Juan la Laguna	11	Noviembre	2023-11-17T00:00:00	2024-11-08T02:00:00	7	Dirección del viento	0
89607	7	Sololá	717	San Juan la Laguna	12	San Juan la Laguna	11	Noviembre	2023-11-17T00:00:00	2024-11-08T02:00:00	1	Precipitación	0
89608	7	Sololá	717	San Juan la Laguna	12	San Juan la Laguna	11	Noviembre	2023-11-17T00:00:00	2024-11-08T02:00:00	8	Radiación solar	0
89609	7	Sololá	717	San Juan la Laguna	12	San Juan la Laguna	11	Noviembre	2023-11-17T00:00:00	2024-11-08T03:00:00	2	Temperatura media	16.6
89610	7	Sololá	717	San Juan la Laguna	12	San Juan la Laguna	11	Noviembre	2023-11-17T00:00:00	2024-11-08T03:00:00	4	Temperatura máxima	17.2
89611	7	Sololá	717	San Juan la Laguna	12	San Juan la Laguna	11	Noviembre	2023-11-17T00:00:00	2024-11-08T03:00:00	3	Temperatura mínima	16.6
89612	7	Sololá	717	San Juan la Laguna	12	San Juan la Laguna	11	Noviembre	2023-11-17T00:00:00	2024-11-08T03:00:00	5	Humedad	91
89613	7	Sololá	717	San Juan la Laguna	12	San Juan la Laguna	11	Noviembre	2023-11-17T00:00:00	2024-11-08T03:00:00	6	Velocidad del viento	0
89614	7	Sololá	717	San Juan la Laguna	12	San Juan la Laguna	11	Noviembre	2023-11-17T00:00:00	2024-11-08T03:00:00	7	Dirección del viento	0
89615	7	Sololá	717	San Juan la Laguna	12	San Juan la Laguna	11	Noviembre	2023-11-17T00:00:00	2024-11-08T03:00:00	1	Precipitación	0
89616	7	Sololá	717	San Juan la Laguna	12	San Juan la Laguna	11	Noviembre	2023-11-17T00:00:00	2024-11-08T03:00:00	8	Radiación solar	0
89617	7	Sololá	717	San Juan la Laguna	12	San Juan la Laguna	11	Noviembre	2023-11-17T00:00:00	2024-11-08T04:00:00	2	Temperatura media	15.8
89618	7	Sololá	717	San Juan la Laguna	12	San Juan la Laguna	11	Noviembre	2023-11-17T00:00:00	2024-11-08T04:00:00	4	Temperatura máxima	16.6
89619	7	Sololá	717	San Juan la Laguna	12	San Juan la Laguna	11	Noviembre	2023-11-17T00:00:00	2024-11-08T04:00:00	3	Temperatura mínima	15.8
89620	7	Sololá	717	San Juan la Laguna	12	San Juan la Laguna	11	Noviembre	2023-11-17T00:00:00	2024-11-08T04:00:00	5	Humedad	91
89621	7	Sololá	717	San Juan la Laguna	12	San Juan la Laguna	11	Noviembre	2023-11-17T00:00:00	2024-11-08T04:00:00	6	Velocidad del viento	0
89622	7	Sololá	717	San Juan la Laguna	12	San Juan la Laguna	11	Noviembre	2023-11-17T00:00:00	2024-11-08T04:00:00	7	Dirección del viento	0
89623	7	Sololá	717	San Juan la Laguna	12	San Juan la Laguna	11	Noviembre	2023-11-17T00:00:00	2024-11-08T04:00:00	1	Precipitación	0
89624	7	Sololá	717	San Juan la Laguna	12	San Juan la Laguna	11	Noviembre	2023-11-17T00:00:00	2024-11-08T04:00:00	8	Radiación solar	0
89625	7	Sololá	717	San Juan la Laguna	12	San Juan la Laguna	11	Noviembre	2023-11-17T00:00:00	2024-11-08T05:00:00	2	Temperatura media	15.6
89626	7	Sololá	717	San Juan la Laguna	12	San Juan la Laguna	11	Noviembre	2023-11-17T00:00:00	2024-11-08T05:00:00	4	Temperatura máxima	15.9
89627	7	Sololá	717	San Juan la Laguna	12	San Juan la Laguna	11	Noviembre	2023-11-17T00:00:00	2024-11-08T05:00:00	3	Temperatura mínima	15.6
89628	7	Sololá	717	San Juan la Laguna	12	San Juan la Laguna	11	Noviembre	2023-11-17T00:00:00	2024-11-08T05:00:00	5	Humedad	90
89629	7	Sololá	717	San Juan la Laguna	12	San Juan la Laguna	11	Noviembre	2023-11-17T00:00:00	2024-11-08T05:00:00	6	Velocidad del viento	0
89630	7	Sololá	717	San Juan la Laguna	12	San Juan la Laguna	11	Noviembre	2023-11-17T00:00:00	2024-11-08T05:00:00	7	Dirección del viento	0
89631	7	Sololá	717	San Juan la Laguna	12	San Juan la Laguna	11	Noviembre	2023-11-17T00:00:00	2024-11-08T05:00:00	1	Precipitación	0
89632	7	Sololá	717	San Juan la Laguna	12	San Juan la Laguna	11	Noviembre	2023-11-17T00:00:00	2024-11-08T05:00:00	8	Radiación solar	0
89633	7	Sololá	717	San Juan la Laguna	12	San Juan la Laguna	11	Noviembre	2023-11-17T00:00:00	2024-11-08T06:00:00	2	Temperatura media	15.1
89634	7	Sololá	717	San Juan la Laguna	12	San Juan la Laguna	11	Noviembre	2023-11-17T00:00:00	2024-11-08T06:00:00	4	Temperatura máxima	15.6
89635	7	Sololá	717	San Juan la Laguna	12	San Juan la Laguna	11	Noviembre	2023-11-17T00:00:00	2024-11-08T06:00:00	3	Temperatura mínima	15.1
89636	7	Sololá	717	San Juan la Laguna	12	San Juan la Laguna	11	Noviembre	2023-11-17T00:00:00	2024-11-08T06:00:00	5	Humedad	90
89637	7	Sololá	717	San Juan la Laguna	12	San Juan la Laguna	11	Noviembre	2023-11-17T00:00:00	2024-11-08T06:00:00	6	Velocidad del viento	0
89638	7	Sololá	717	San Juan la Laguna	12	San Juan la Laguna	11	Noviembre	2023-11-17T00:00:00	2024-11-08T06:00:00	7	Dirección del viento	0
89639	7	Sololá	717	San Juan la Laguna	12	San Juan la Laguna	11	Noviembre	2023-11-17T00:00:00	2024-11-08T06:00:00	1	Precipitación	0
89640	7	Sololá	717	San Juan la Laguna	12	San Juan la Laguna	11	Noviembre	2023-11-17T00:00:00	2024-11-08T06:00:00	8	Radiación solar	0
89641	7	Sololá	717	San Juan la Laguna	12	San Juan la Laguna	11	Noviembre	2023-11-17T00:00:00	2024-11-08T07:00:00	2	Temperatura media	15.3
89642	7	Sololá	717	San Juan la Laguna	12	San Juan la Laguna	11	Noviembre	2023-11-17T00:00:00	2024-11-08T07:00:00	4	Temperatura máxima	15.3
89643	7	Sololá	717	San Juan la Laguna	12	San Juan la Laguna	11	Noviembre	2023-11-17T00:00:00	2024-11-08T07:00:00	3	Temperatura mínima	14.9
89644	7	Sololá	717	San Juan la Laguna	12	San Juan la Laguna	11	Noviembre	2023-11-17T00:00:00	2024-11-08T07:00:00	5	Humedad	89
89645	7	Sololá	717	San Juan la Laguna	12	San Juan la Laguna	11	Noviembre	2023-11-17T00:00:00	2024-11-08T07:00:00	6	Velocidad del viento	0
89646	7	Sololá	717	San Juan la Laguna	12	San Juan la Laguna	11	Noviembre	2023-11-17T00:00:00	2024-11-08T07:00:00	7	Dirección del viento	0
89647	7	Sololá	717	San Juan la Laguna	12	San Juan la Laguna	11	Noviembre	2023-11-17T00:00:00	2024-11-08T07:00:00	1	Precipitación	0
89648	7	Sololá	717	San Juan la Laguna	12	San Juan la Laguna	11	Noviembre	2023-11-17T00:00:00	2024-11-08T07:00:00	8	Radiación solar	37
89649	7	Sololá	717	San Juan la Laguna	12	San Juan la Laguna	11	Noviembre	2023-11-17T00:00:00	2024-11-08T08:00:00	2	Temperatura media	19.2
89650	7	Sololá	717	San Juan la Laguna	12	San Juan la Laguna	11	Noviembre	2023-11-17T00:00:00	2024-11-08T08:00:00	4	Temperatura máxima	19.2
89651	7	Sololá	717	San Juan la Laguna	12	San Juan la Laguna	11	Noviembre	2023-11-17T00:00:00	2024-11-08T08:00:00	3	Temperatura mínima	15.4
89652	7	Sololá	717	San Juan la Laguna	12	San Juan la Laguna	11	Noviembre	2023-11-17T00:00:00	2024-11-08T08:00:00	5	Humedad	83
89653	7	Sololá	717	San Juan la Laguna	12	San Juan la Laguna	11	Noviembre	2023-11-17T00:00:00	2024-11-08T08:00:00	6	Velocidad del viento	0
89654	7	Sololá	717	San Juan la Laguna	12	San Juan la Laguna	11	Noviembre	2023-11-17T00:00:00	2024-11-08T08:00:00	7	Dirección del viento	0
89655	7	Sololá	717	San Juan la Laguna	12	San Juan la Laguna	11	Noviembre	2023-11-17T00:00:00	2024-11-08T08:00:00	1	Precipitación	0
89656	7	Sololá	717	San Juan la Laguna	12	San Juan la Laguna	11	Noviembre	2023-11-17T00:00:00	2024-11-08T08:00:00	8	Radiación solar	246
89657	7	Sololá	717	San Juan la Laguna	12	San Juan la Laguna	11	Noviembre	2023-11-17T00:00:00	2024-11-08T09:00:00	2	Temperatura media	20.8
89658	7	Sololá	717	San Juan la Laguna	12	San Juan la Laguna	11	Noviembre	2023-11-17T00:00:00	2024-11-08T09:00:00	4	Temperatura máxima	20.8
89659	7	Sololá	717	San Juan la Laguna	12	San Juan la Laguna	11	Noviembre	2023-11-17T00:00:00	2024-11-08T09:00:00	3	Temperatura mínima	19.2
89660	7	Sololá	717	San Juan la Laguna	12	San Juan la Laguna	11	Noviembre	2023-11-17T00:00:00	2024-11-08T09:00:00	5	Humedad	79
89661	7	Sololá	717	San Juan la Laguna	12	San Juan la Laguna	11	Noviembre	2023-11-17T00:00:00	2024-11-08T09:00:00	6	Velocidad del viento	0
89662	7	Sololá	717	San Juan la Laguna	12	San Juan la Laguna	11	Noviembre	2023-11-17T00:00:00	2024-11-08T09:00:00	7	Dirección del viento	0
89663	7	Sololá	717	San Juan la Laguna	12	San Juan la Laguna	11	Noviembre	2023-11-17T00:00:00	2024-11-08T09:00:00	1	Precipitación	0
89664	7	Sololá	717	San Juan la Laguna	12	San Juan la Laguna	11	Noviembre	2023-11-17T00:00:00	2024-11-08T09:00:00	8	Radiación solar	478
89665	7	Sololá	717	San Juan la Laguna	12	San Juan la Laguna	11	Noviembre	2023-11-17T00:00:00	2024-11-08T10:00:00	2	Temperatura media	21.1
89666	7	Sololá	717	San Juan la Laguna	12	San Juan la Laguna	11	Noviembre	2023-11-17T00:00:00	2024-11-08T10:00:00	4	Temperatura máxima	21.2
89667	7	Sololá	717	San Juan la Laguna	12	San Juan la Laguna	11	Noviembre	2023-11-17T00:00:00	2024-11-08T10:00:00	3	Temperatura mínima	20.7
89668	7	Sololá	717	San Juan la Laguna	12	San Juan la Laguna	11	Noviembre	2023-11-17T00:00:00	2024-11-08T10:00:00	5	Humedad	78
89669	7	Sololá	717	San Juan la Laguna	12	San Juan la Laguna	11	Noviembre	2023-11-17T00:00:00	2024-11-08T10:00:00	6	Velocidad del viento	3.2
89670	7	Sololá	717	San Juan la Laguna	12	San Juan la Laguna	11	Noviembre	2023-11-17T00:00:00	2024-11-08T10:00:00	7	Dirección del viento	3.22
89671	7	Sololá	717	San Juan la Laguna	12	San Juan la Laguna	11	Noviembre	2023-11-17T00:00:00	2024-11-08T10:00:00	1	Precipitación	0
89672	7	Sololá	717	San Juan la Laguna	12	San Juan la Laguna	11	Noviembre	2023-11-17T00:00:00	2024-11-08T10:00:00	8	Radiación solar	621
89673	7	Sololá	717	San Juan la Laguna	12	San Juan la Laguna	11	Noviembre	2023-11-17T00:00:00	2024-11-08T11:00:00	2	Temperatura media	22.2
89674	7	Sololá	717	San Juan la Laguna	12	San Juan la Laguna	11	Noviembre	2023-11-17T00:00:00	2024-11-08T11:00:00	4	Temperatura máxima	22.2
89675	7	Sololá	717	San Juan la Laguna	12	San Juan la Laguna	11	Noviembre	2023-11-17T00:00:00	2024-11-08T11:00:00	3	Temperatura mínima	20.7
89676	7	Sololá	717	San Juan la Laguna	12	San Juan la Laguna	11	Noviembre	2023-11-17T00:00:00	2024-11-08T11:00:00	5	Humedad	70
89677	7	Sololá	717	San Juan la Laguna	12	San Juan la Laguna	11	Noviembre	2023-11-17T00:00:00	2024-11-08T11:00:00	6	Velocidad del viento	1.6
89678	7	Sololá	717	San Juan la Laguna	12	San Juan la Laguna	11	Noviembre	2023-11-17T00:00:00	2024-11-08T11:00:00	7	Dirección del viento	1.61
89679	7	Sololá	717	San Juan la Laguna	12	San Juan la Laguna	11	Noviembre	2023-11-17T00:00:00	2024-11-08T11:00:00	1	Precipitación	0
89680	7	Sololá	717	San Juan la Laguna	12	San Juan la Laguna	11	Noviembre	2023-11-17T00:00:00	2024-11-08T11:00:00	8	Radiación solar	433
89681	7	Sololá	717	San Juan la Laguna	12	San Juan la Laguna	11	Noviembre	2023-11-17T00:00:00	2024-11-08T12:00:00	2	Temperatura media	23.7
89682	7	Sololá	717	San Juan la Laguna	12	San Juan la Laguna	11	Noviembre	2023-11-17T00:00:00	2024-11-08T12:00:00	4	Temperatura máxima	24.1
89683	7	Sololá	717	San Juan la Laguna	12	San Juan la Laguna	11	Noviembre	2023-11-17T00:00:00	2024-11-08T12:00:00	3	Temperatura mínima	22.2
89684	7	Sololá	717	San Juan la Laguna	12	San Juan la Laguna	11	Noviembre	2023-11-17T00:00:00	2024-11-08T12:00:00	5	Humedad	65
89685	7	Sololá	717	San Juan la Laguna	12	San Juan la Laguna	11	Noviembre	2023-11-17T00:00:00	2024-11-08T12:00:00	6	Velocidad del viento	4.8
89686	7	Sololá	717	San Juan la Laguna	12	San Juan la Laguna	11	Noviembre	2023-11-17T00:00:00	2024-11-08T12:00:00	7	Dirección del viento	4.83
89687	7	Sololá	717	San Juan la Laguna	12	San Juan la Laguna	11	Noviembre	2023-11-17T00:00:00	2024-11-08T12:00:00	1	Precipitación	0
89688	7	Sololá	717	San Juan la Laguna	12	San Juan la Laguna	11	Noviembre	2023-11-17T00:00:00	2024-11-08T12:00:00	8	Radiación solar	830
89689	7	Sololá	717	San Juan la Laguna	12	San Juan la Laguna	11	Noviembre	2023-11-17T00:00:00	2024-11-08T13:00:00	2	Temperatura media	22.3
89690	7	Sololá	717	San Juan la Laguna	12	San Juan la Laguna	11	Noviembre	2023-11-17T00:00:00	2024-11-08T13:00:00	4	Temperatura máxima	23.7
89691	7	Sololá	717	San Juan la Laguna	12	San Juan la Laguna	11	Noviembre	2023-11-17T00:00:00	2024-11-08T13:00:00	3	Temperatura mínima	21.9
89692	7	Sololá	717	San Juan la Laguna	12	San Juan la Laguna	11	Noviembre	2023-11-17T00:00:00	2024-11-08T13:00:00	5	Humedad	71
89693	7	Sololá	717	San Juan la Laguna	12	San Juan la Laguna	11	Noviembre	2023-11-17T00:00:00	2024-11-08T13:00:00	6	Velocidad del viento	6.4
89694	7	Sololá	717	San Juan la Laguna	12	San Juan la Laguna	11	Noviembre	2023-11-17T00:00:00	2024-11-08T13:00:00	7	Dirección del viento	6.44
89695	7	Sololá	717	San Juan la Laguna	12	San Juan la Laguna	11	Noviembre	2023-11-17T00:00:00	2024-11-08T13:00:00	1	Precipitación	0
89696	7	Sololá	717	San Juan la Laguna	12	San Juan la Laguna	11	Noviembre	2023-11-17T00:00:00	2024-11-08T13:00:00	8	Radiación solar	714
89697	7	Sololá	717	San Juan la Laguna	12	San Juan la Laguna	11	Noviembre	2023-11-17T00:00:00	2024-11-08T14:00:00	2	Temperatura media	21.6
89698	7	Sololá	717	San Juan la Laguna	12	San Juan la Laguna	11	Noviembre	2023-11-17T00:00:00	2024-11-08T14:00:00	4	Temperatura máxima	22.3
89699	7	Sololá	717	San Juan la Laguna	12	San Juan la Laguna	11	Noviembre	2023-11-17T00:00:00	2024-11-08T14:00:00	3	Temperatura mínima	21.4
89700	7	Sololá	717	San Juan la Laguna	12	San Juan la Laguna	11	Noviembre	2023-11-17T00:00:00	2024-11-08T14:00:00	5	Humedad	77
89701	7	Sololá	717	San Juan la Laguna	12	San Juan la Laguna	11	Noviembre	2023-11-17T00:00:00	2024-11-08T14:00:00	6	Velocidad del viento	8
89702	7	Sololá	717	San Juan la Laguna	12	San Juan la Laguna	11	Noviembre	2023-11-17T00:00:00	2024-11-08T14:00:00	7	Dirección del viento	8.05
89703	7	Sololá	717	San Juan la Laguna	12	San Juan la Laguna	11	Noviembre	2023-11-17T00:00:00	2024-11-08T14:00:00	1	Precipitación	0
89704	7	Sololá	717	San Juan la Laguna	12	San Juan la Laguna	11	Noviembre	2023-11-17T00:00:00	2024-11-08T14:00:00	8	Radiación solar	309
89705	7	Sololá	717	San Juan la Laguna	12	San Juan la Laguna	11	Noviembre	2023-11-17T00:00:00	2024-11-08T15:00:00	2	Temperatura media	21.6
89706	7	Sololá	717	San Juan la Laguna	12	San Juan la Laguna	11	Noviembre	2023-11-17T00:00:00	2024-11-08T15:00:00	4	Temperatura máxima	22.3
89707	7	Sololá	717	San Juan la Laguna	12	San Juan la Laguna	11	Noviembre	2023-11-17T00:00:00	2024-11-08T15:00:00	3	Temperatura mínima	21.3
89708	7	Sololá	717	San Juan la Laguna	12	San Juan la Laguna	11	Noviembre	2023-11-17T00:00:00	2024-11-08T15:00:00	5	Humedad	76
89709	7	Sololá	717	San Juan la Laguna	12	San Juan la Laguna	11	Noviembre	2023-11-17T00:00:00	2024-11-08T15:00:00	6	Velocidad del viento	11.3
89710	7	Sololá	717	San Juan la Laguna	12	San Juan la Laguna	11	Noviembre	2023-11-17T00:00:00	2024-11-08T15:00:00	7	Dirección del viento	11.27
89711	7	Sololá	717	San Juan la Laguna	12	San Juan la Laguna	11	Noviembre	2023-11-17T00:00:00	2024-11-08T15:00:00	1	Precipitación	0
89712	7	Sololá	717	San Juan la Laguna	12	San Juan la Laguna	11	Noviembre	2023-11-17T00:00:00	2024-11-08T15:00:00	8	Radiación solar	411
89713	7	Sololá	717	San Juan la Laguna	12	San Juan la Laguna	11	Noviembre	2023-11-17T00:00:00	2024-11-08T16:00:00	2	Temperatura media	20.8
89714	7	Sololá	717	San Juan la Laguna	12	San Juan la Laguna	11	Noviembre	2023-11-17T00:00:00	2024-11-08T16:00:00	4	Temperatura máxima	21.8
89715	7	Sololá	717	San Juan la Laguna	12	San Juan la Laguna	11	Noviembre	2023-11-17T00:00:00	2024-11-08T16:00:00	3	Temperatura mínima	20.8
89716	7	Sololá	717	San Juan la Laguna	12	San Juan la Laguna	11	Noviembre	2023-11-17T00:00:00	2024-11-08T16:00:00	5	Humedad	79
89717	7	Sololá	717	San Juan la Laguna	12	San Juan la Laguna	11	Noviembre	2023-11-17T00:00:00	2024-11-08T16:00:00	6	Velocidad del viento	3.2
89718	7	Sololá	717	San Juan la Laguna	12	San Juan la Laguna	11	Noviembre	2023-11-17T00:00:00	2024-11-08T16:00:00	7	Dirección del viento	3.22
89719	7	Sololá	717	San Juan la Laguna	12	San Juan la Laguna	11	Noviembre	2023-11-17T00:00:00	2024-11-08T16:00:00	1	Precipitación	0
89720	7	Sololá	717	San Juan la Laguna	12	San Juan la Laguna	11	Noviembre	2023-11-17T00:00:00	2024-11-08T16:00:00	8	Radiación solar	176
89721	7	Sololá	717	San Juan la Laguna	12	San Juan la Laguna	11	Noviembre	2023-11-17T00:00:00	2024-11-08T17:00:00	2	Temperatura media	20.4
89722	7	Sololá	717	San Juan la Laguna	12	San Juan la Laguna	11	Noviembre	2023-11-17T00:00:00	2024-11-08T17:00:00	4	Temperatura máxima	20.8
89723	7	Sololá	717	San Juan la Laguna	12	San Juan la Laguna	11	Noviembre	2023-11-17T00:00:00	2024-11-08T17:00:00	3	Temperatura mínima	20.3
89724	7	Sololá	717	San Juan la Laguna	12	San Juan la Laguna	11	Noviembre	2023-11-17T00:00:00	2024-11-08T17:00:00	5	Humedad	81
89725	7	Sololá	717	San Juan la Laguna	12	San Juan la Laguna	11	Noviembre	2023-11-17T00:00:00	2024-11-08T17:00:00	6	Velocidad del viento	1.6
89726	7	Sololá	717	San Juan la Laguna	12	San Juan la Laguna	11	Noviembre	2023-11-17T00:00:00	2024-11-08T17:00:00	7	Dirección del viento	1.61
89727	7	Sololá	717	San Juan la Laguna	12	San Juan la Laguna	11	Noviembre	2023-11-17T00:00:00	2024-11-08T17:00:00	1	Precipitación	0
89728	7	Sololá	717	San Juan la Laguna	12	San Juan la Laguna	11	Noviembre	2023-11-17T00:00:00	2024-11-08T17:00:00	8	Radiación solar	60
89729	7	Sololá	717	San Juan la Laguna	12	San Juan la Laguna	11	Noviembre	2023-11-17T00:00:00	2024-11-08T18:00:00	2	Temperatura media	19.6
89730	7	Sololá	717	San Juan la Laguna	12	San Juan la Laguna	11	Noviembre	2023-11-17T00:00:00	2024-11-08T18:00:00	4	Temperatura máxima	20.4
89731	7	Sololá	717	San Juan la Laguna	12	San Juan la Laguna	11	Noviembre	2023-11-17T00:00:00	2024-11-08T18:00:00	3	Temperatura mínima	19.6
89732	7	Sololá	717	San Juan la Laguna	12	San Juan la Laguna	11	Noviembre	2023-11-17T00:00:00	2024-11-08T18:00:00	5	Humedad	85
89733	7	Sololá	717	San Juan la Laguna	12	San Juan la Laguna	11	Noviembre	2023-11-17T00:00:00	2024-11-08T18:00:00	6	Velocidad del viento	0
89734	7	Sololá	717	San Juan la Laguna	12	San Juan la Laguna	11	Noviembre	2023-11-17T00:00:00	2024-11-08T18:00:00	7	Dirección del viento	0
89735	7	Sololá	717	San Juan la Laguna	12	San Juan la Laguna	11	Noviembre	2023-11-17T00:00:00	2024-11-08T18:00:00	1	Precipitación	0
89736	7	Sololá	717	San Juan la Laguna	12	San Juan la Laguna	11	Noviembre	2023-11-17T00:00:00	2024-11-08T18:00:00	8	Radiación solar	2
89737	7	Sololá	717	San Juan la Laguna	12	San Juan la Laguna	11	Noviembre	2023-11-17T00:00:00	2024-11-08T19:00:00	2	Temperatura media	18.3
89738	7	Sololá	717	San Juan la Laguna	12	San Juan la Laguna	11	Noviembre	2023-11-17T00:00:00	2024-11-08T19:00:00	4	Temperatura máxima	19.6
89739	7	Sololá	717	San Juan la Laguna	12	San Juan la Laguna	11	Noviembre	2023-11-17T00:00:00	2024-11-08T19:00:00	3	Temperatura mínima	18.3
89740	7	Sololá	717	San Juan la Laguna	12	San Juan la Laguna	11	Noviembre	2023-11-17T00:00:00	2024-11-08T19:00:00	5	Humedad	89
89741	7	Sololá	717	San Juan la Laguna	12	San Juan la Laguna	11	Noviembre	2023-11-17T00:00:00	2024-11-08T19:00:00	6	Velocidad del viento	0
89742	7	Sololá	717	San Juan la Laguna	12	San Juan la Laguna	11	Noviembre	2023-11-17T00:00:00	2024-11-08T19:00:00	7	Dirección del viento	0
89743	7	Sololá	717	San Juan la Laguna	12	San Juan la Laguna	11	Noviembre	2023-11-17T00:00:00	2024-11-08T19:00:00	1	Precipitación	1.2
89744	7	Sololá	717	San Juan la Laguna	12	San Juan la Laguna	11	Noviembre	2023-11-17T00:00:00	2024-11-08T19:00:00	8	Radiación solar	0
89745	7	Sololá	717	San Juan la Laguna	12	San Juan la Laguna	11	Noviembre	2023-11-17T00:00:00	2024-11-08T20:00:00	2	Temperatura media	18.1
89746	7	Sololá	717	San Juan la Laguna	12	San Juan la Laguna	11	Noviembre	2023-11-17T00:00:00	2024-11-08T20:00:00	4	Temperatura máxima	18.4
89747	7	Sololá	717	San Juan la Laguna	12	San Juan la Laguna	11	Noviembre	2023-11-17T00:00:00	2024-11-08T20:00:00	3	Temperatura mínima	18.1
89748	7	Sololá	717	San Juan la Laguna	12	San Juan la Laguna	11	Noviembre	2023-11-17T00:00:00	2024-11-08T20:00:00	5	Humedad	89
89749	7	Sololá	717	San Juan la Laguna	12	San Juan la Laguna	11	Noviembre	2023-11-17T00:00:00	2024-11-08T20:00:00	6	Velocidad del viento	0
89750	7	Sololá	717	San Juan la Laguna	12	San Juan la Laguna	11	Noviembre	2023-11-17T00:00:00	2024-11-08T20:00:00	7	Dirección del viento	0
89751	7	Sololá	717	San Juan la Laguna	12	San Juan la Laguna	11	Noviembre	2023-11-17T00:00:00	2024-11-08T20:00:00	1	Precipitación	0
89752	7	Sololá	717	San Juan la Laguna	12	San Juan la Laguna	11	Noviembre	2023-11-17T00:00:00	2024-11-08T20:00:00	8	Radiación solar	0
89753	7	Sololá	717	San Juan la Laguna	12	San Juan la Laguna	11	Noviembre	2023-11-17T00:00:00	2024-11-08T21:00:00	2	Temperatura media	17.7
89754	7	Sololá	717	San Juan la Laguna	12	San Juan la Laguna	11	Noviembre	2023-11-17T00:00:00	2024-11-08T21:00:00	4	Temperatura máxima	18.1
89755	7	Sololá	717	San Juan la Laguna	12	San Juan la Laguna	11	Noviembre	2023-11-17T00:00:00	2024-11-08T21:00:00	3	Temperatura mínima	17.7
89756	7	Sololá	717	San Juan la Laguna	12	San Juan la Laguna	11	Noviembre	2023-11-17T00:00:00	2024-11-08T21:00:00	5	Humedad	89
89757	7	Sololá	717	San Juan la Laguna	12	San Juan la Laguna	11	Noviembre	2023-11-17T00:00:00	2024-11-08T21:00:00	6	Velocidad del viento	0
89758	7	Sololá	717	San Juan la Laguna	12	San Juan la Laguna	11	Noviembre	2023-11-17T00:00:00	2024-11-08T21:00:00	7	Dirección del viento	0
89759	7	Sololá	717	San Juan la Laguna	12	San Juan la Laguna	11	Noviembre	2023-11-17T00:00:00	2024-11-08T21:00:00	1	Precipitación	0.2
89760	7	Sololá	717	San Juan la Laguna	12	San Juan la Laguna	11	Noviembre	2023-11-17T00:00:00	2024-11-08T21:00:00	8	Radiación solar	0
89761	7	Sololá	717	San Juan la Laguna	12	San Juan la Laguna	11	Noviembre	2023-11-17T00:00:00	2024-11-08T22:00:00	2	Temperatura media	17.7
89762	7	Sololá	717	San Juan la Laguna	12	San Juan la Laguna	11	Noviembre	2023-11-17T00:00:00	2024-11-08T22:00:00	4	Temperatura máxima	17.8
89763	7	Sololá	717	San Juan la Laguna	12	San Juan la Laguna	11	Noviembre	2023-11-17T00:00:00	2024-11-08T22:00:00	3	Temperatura mínima	17.6
89764	7	Sololá	717	San Juan la Laguna	12	San Juan la Laguna	11	Noviembre	2023-11-17T00:00:00	2024-11-08T22:00:00	5	Humedad	89
89765	7	Sololá	717	San Juan la Laguna	12	San Juan la Laguna	11	Noviembre	2023-11-17T00:00:00	2024-11-08T22:00:00	6	Velocidad del viento	0
89766	7	Sololá	717	San Juan la Laguna	12	San Juan la Laguna	11	Noviembre	2023-11-17T00:00:00	2024-11-08T22:00:00	7	Dirección del viento	0
89767	7	Sololá	717	San Juan la Laguna	12	San Juan la Laguna	11	Noviembre	2023-11-17T00:00:00	2024-11-08T22:00:00	1	Precipitación	0
89768	7	Sololá	717	San Juan la Laguna	12	San Juan la Laguna	11	Noviembre	2023-11-17T00:00:00	2024-11-08T22:00:00	8	Radiación solar	0
89769	7	Sololá	717	San Juan la Laguna	12	San Juan la Laguna	11	Noviembre	2023-11-17T00:00:00	2024-11-08T23:00:00	2	Temperatura media	17.4
89770	7	Sololá	717	San Juan la Laguna	12	San Juan la Laguna	11	Noviembre	2023-11-17T00:00:00	2024-11-08T23:00:00	4	Temperatura máxima	17.8
89771	7	Sololá	717	San Juan la Laguna	12	San Juan la Laguna	11	Noviembre	2023-11-17T00:00:00	2024-11-08T23:00:00	3	Temperatura mínima	17.4
89772	7	Sololá	717	San Juan la Laguna	12	San Juan la Laguna	11	Noviembre	2023-11-17T00:00:00	2024-11-08T23:00:00	5	Humedad	89
89773	7	Sololá	717	San Juan la Laguna	12	San Juan la Laguna	11	Noviembre	2023-11-17T00:00:00	2024-11-08T23:00:00	6	Velocidad del viento	0
89774	7	Sololá	717	San Juan la Laguna	12	San Juan la Laguna	11	Noviembre	2023-11-17T00:00:00	2024-11-08T23:00:00	7	Dirección del viento	0
89775	7	Sololá	717	San Juan la Laguna	12	San Juan la Laguna	11	Noviembre	2023-11-17T00:00:00	2024-11-08T23:00:00	1	Precipitación	0
89776	7	Sololá	717	San Juan la Laguna	12	San Juan la Laguna	11	Noviembre	2023-11-17T00:00:00	2024-11-08T23:00:00	8	Radiación solar	0
89777	7	Sololá	717	San Juan la Laguna	12	San Juan la Laguna	11	Noviembre	2023-11-18T00:00:00	2024-11-08T00:00:00	2	Temperatura media	17.5
89778	7	Sololá	717	San Juan la Laguna	12	San Juan la Laguna	11	Noviembre	2023-11-18T00:00:00	2024-11-08T00:00:00	4	Temperatura máxima	17.7
89779	7	Sololá	717	San Juan la Laguna	12	San Juan la Laguna	11	Noviembre	2023-11-18T00:00:00	2024-11-08T00:00:00	3	Temperatura mínima	17.4
89780	7	Sololá	717	San Juan la Laguna	12	San Juan la Laguna	11	Noviembre	2023-11-18T00:00:00	2024-11-08T00:00:00	5	Humedad	88
89781	7	Sololá	717	San Juan la Laguna	12	San Juan la Laguna	11	Noviembre	2023-11-18T00:00:00	2024-11-08T00:00:00	6	Velocidad del viento	0
89782	7	Sololá	717	San Juan la Laguna	12	San Juan la Laguna	11	Noviembre	2023-11-18T00:00:00	2024-11-08T00:00:00	7	Dirección del viento	0
89783	7	Sololá	717	San Juan la Laguna	12	San Juan la Laguna	11	Noviembre	2023-11-18T00:00:00	2024-11-08T00:00:00	1	Precipitación	0.2
89784	7	Sololá	717	San Juan la Laguna	12	San Juan la Laguna	11	Noviembre	2023-11-18T00:00:00	2024-11-08T00:00:00	8	Radiación solar	0
89785	7	Sololá	717	San Juan la Laguna	12	San Juan la Laguna	11	Noviembre	2023-11-18T00:00:00	2024-11-08T01:00:00	2	Temperatura media	17.3
89786	7	Sololá	717	San Juan la Laguna	12	San Juan la Laguna	11	Noviembre	2023-11-18T00:00:00	2024-11-08T01:00:00	4	Temperatura máxima	17.6
89787	7	Sololá	717	San Juan la Laguna	12	San Juan la Laguna	11	Noviembre	2023-11-18T00:00:00	2024-11-08T01:00:00	3	Temperatura mínima	17.3
89788	7	Sololá	717	San Juan la Laguna	12	San Juan la Laguna	11	Noviembre	2023-11-18T00:00:00	2024-11-08T01:00:00	5	Humedad	89
89789	7	Sololá	717	San Juan la Laguna	12	San Juan la Laguna	11	Noviembre	2023-11-18T00:00:00	2024-11-08T01:00:00	6	Velocidad del viento	0
89790	7	Sololá	717	San Juan la Laguna	12	San Juan la Laguna	11	Noviembre	2023-11-18T00:00:00	2024-11-08T01:00:00	7	Dirección del viento	0
89791	7	Sololá	717	San Juan la Laguna	12	San Juan la Laguna	11	Noviembre	2023-11-18T00:00:00	2024-11-08T01:00:00	1	Precipitación	0
89792	7	Sololá	717	San Juan la Laguna	12	San Juan la Laguna	11	Noviembre	2023-11-18T00:00:00	2024-11-08T01:00:00	8	Radiación solar	0
89793	7	Sololá	717	San Juan la Laguna	12	San Juan la Laguna	11	Noviembre	2023-11-18T00:00:00	2024-11-08T02:00:00	2	Temperatura media	17
89794	7	Sololá	717	San Juan la Laguna	12	San Juan la Laguna	11	Noviembre	2023-11-18T00:00:00	2024-11-08T02:00:00	4	Temperatura máxima	17.4
89795	7	Sololá	717	San Juan la Laguna	12	San Juan la Laguna	11	Noviembre	2023-11-18T00:00:00	2024-11-08T02:00:00	3	Temperatura mínima	17
89796	7	Sololá	717	San Juan la Laguna	12	San Juan la Laguna	11	Noviembre	2023-11-18T00:00:00	2024-11-08T02:00:00	5	Humedad	89
89797	7	Sololá	717	San Juan la Laguna	12	San Juan la Laguna	11	Noviembre	2023-11-18T00:00:00	2024-11-08T02:00:00	6	Velocidad del viento	0
89798	7	Sololá	717	San Juan la Laguna	12	San Juan la Laguna	11	Noviembre	2023-11-18T00:00:00	2024-11-08T02:00:00	7	Dirección del viento	0
89799	7	Sololá	717	San Juan la Laguna	12	San Juan la Laguna	11	Noviembre	2023-11-18T00:00:00	2024-11-08T02:00:00	1	Precipitación	0
89800	7	Sololá	717	San Juan la Laguna	12	San Juan la Laguna	11	Noviembre	2023-11-18T00:00:00	2024-11-08T02:00:00	8	Radiación solar	0
89801	7	Sololá	717	San Juan la Laguna	12	San Juan la Laguna	11	Noviembre	2023-11-18T00:00:00	2024-11-08T03:00:00	2	Temperatura media	17.3
89802	7	Sololá	717	San Juan la Laguna	12	San Juan la Laguna	11	Noviembre	2023-11-18T00:00:00	2024-11-08T03:00:00	4	Temperatura máxima	17.3
89803	7	Sololá	717	San Juan la Laguna	12	San Juan la Laguna	11	Noviembre	2023-11-18T00:00:00	2024-11-08T03:00:00	3	Temperatura mínima	16.8
89804	7	Sololá	717	San Juan la Laguna	12	San Juan la Laguna	11	Noviembre	2023-11-18T00:00:00	2024-11-08T03:00:00	5	Humedad	88
89805	7	Sololá	717	San Juan la Laguna	12	San Juan la Laguna	11	Noviembre	2023-11-18T00:00:00	2024-11-08T03:00:00	6	Velocidad del viento	0
89806	7	Sololá	717	San Juan la Laguna	12	San Juan la Laguna	11	Noviembre	2023-11-18T00:00:00	2024-11-08T03:00:00	7	Dirección del viento	0
89807	7	Sololá	717	San Juan la Laguna	12	San Juan la Laguna	11	Noviembre	2023-11-18T00:00:00	2024-11-08T03:00:00	1	Precipitación	0
89808	7	Sololá	717	San Juan la Laguna	12	San Juan la Laguna	11	Noviembre	2023-11-18T00:00:00	2024-11-08T03:00:00	8	Radiación solar	0
89809	7	Sololá	717	San Juan la Laguna	12	San Juan la Laguna	11	Noviembre	2023-11-18T00:00:00	2024-11-08T04:00:00	2	Temperatura media	16.6
89810	7	Sololá	717	San Juan la Laguna	12	San Juan la Laguna	11	Noviembre	2023-11-18T00:00:00	2024-11-08T04:00:00	4	Temperatura máxima	17.3
89811	7	Sololá	717	San Juan la Laguna	12	San Juan la Laguna	11	Noviembre	2023-11-18T00:00:00	2024-11-08T04:00:00	3	Temperatura mínima	16.6
89812	7	Sololá	717	San Juan la Laguna	12	San Juan la Laguna	11	Noviembre	2023-11-18T00:00:00	2024-11-08T04:00:00	5	Humedad	90
89813	7	Sololá	717	San Juan la Laguna	12	San Juan la Laguna	11	Noviembre	2023-11-18T00:00:00	2024-11-08T04:00:00	6	Velocidad del viento	0
89814	7	Sololá	717	San Juan la Laguna	12	San Juan la Laguna	11	Noviembre	2023-11-18T00:00:00	2024-11-08T04:00:00	7	Dirección del viento	0
89815	7	Sololá	717	San Juan la Laguna	12	San Juan la Laguna	11	Noviembre	2023-11-18T00:00:00	2024-11-08T04:00:00	1	Precipitación	0
89816	7	Sololá	717	San Juan la Laguna	12	San Juan la Laguna	11	Noviembre	2023-11-18T00:00:00	2024-11-08T04:00:00	8	Radiación solar	0
89817	7	Sololá	717	San Juan la Laguna	12	San Juan la Laguna	11	Noviembre	2023-11-18T00:00:00	2024-11-08T05:00:00	2	Temperatura media	15.1
89818	7	Sololá	717	San Juan la Laguna	12	San Juan la Laguna	11	Noviembre	2023-11-18T00:00:00	2024-11-08T05:00:00	4	Temperatura máxima	16.6
89819	7	Sololá	717	San Juan la Laguna	12	San Juan la Laguna	11	Noviembre	2023-11-18T00:00:00	2024-11-08T05:00:00	3	Temperatura mínima	15.1
89820	7	Sololá	717	San Juan la Laguna	12	San Juan la Laguna	11	Noviembre	2023-11-18T00:00:00	2024-11-08T05:00:00	5	Humedad	89
89821	7	Sololá	717	San Juan la Laguna	12	San Juan la Laguna	11	Noviembre	2023-11-18T00:00:00	2024-11-08T05:00:00	6	Velocidad del viento	0
89822	7	Sololá	717	San Juan la Laguna	12	San Juan la Laguna	11	Noviembre	2023-11-18T00:00:00	2024-11-08T05:00:00	7	Dirección del viento	0
89823	7	Sololá	717	San Juan la Laguna	12	San Juan la Laguna	11	Noviembre	2023-11-18T00:00:00	2024-11-08T05:00:00	1	Precipitación	0
89824	7	Sololá	717	San Juan la Laguna	12	San Juan la Laguna	11	Noviembre	2023-11-18T00:00:00	2024-11-08T05:00:00	8	Radiación solar	0
89825	7	Sololá	717	San Juan la Laguna	12	San Juan la Laguna	11	Noviembre	2023-11-18T00:00:00	2024-11-08T06:00:00	2	Temperatura media	14.5
89826	7	Sololá	717	San Juan la Laguna	12	San Juan la Laguna	11	Noviembre	2023-11-18T00:00:00	2024-11-08T06:00:00	4	Temperatura máxima	15.1
89827	7	Sololá	717	San Juan la Laguna	12	San Juan la Laguna	11	Noviembre	2023-11-18T00:00:00	2024-11-08T06:00:00	3	Temperatura mínima	14.5
89828	7	Sololá	717	San Juan la Laguna	12	San Juan la Laguna	11	Noviembre	2023-11-18T00:00:00	2024-11-08T06:00:00	5	Humedad	88
89829	7	Sololá	717	San Juan la Laguna	12	San Juan la Laguna	11	Noviembre	2023-11-18T00:00:00	2024-11-08T06:00:00	6	Velocidad del viento	0
89830	7	Sololá	717	San Juan la Laguna	12	San Juan la Laguna	11	Noviembre	2023-11-18T00:00:00	2024-11-08T06:00:00	7	Dirección del viento	0
89831	7	Sololá	717	San Juan la Laguna	12	San Juan la Laguna	11	Noviembre	2023-11-18T00:00:00	2024-11-08T06:00:00	1	Precipitación	0
89832	7	Sololá	717	San Juan la Laguna	12	San Juan la Laguna	11	Noviembre	2023-11-18T00:00:00	2024-11-08T06:00:00	8	Radiación solar	0
89833	7	Sololá	717	San Juan la Laguna	12	San Juan la Laguna	11	Noviembre	2023-11-18T00:00:00	2024-11-08T07:00:00	2	Temperatura media	15
89834	7	Sololá	717	San Juan la Laguna	12	San Juan la Laguna	11	Noviembre	2023-11-18T00:00:00	2024-11-08T07:00:00	4	Temperatura máxima	15
89835	7	Sololá	717	San Juan la Laguna	12	San Juan la Laguna	11	Noviembre	2023-11-18T00:00:00	2024-11-08T07:00:00	3	Temperatura mínima	14.4
89836	7	Sololá	717	San Juan la Laguna	12	San Juan la Laguna	11	Noviembre	2023-11-18T00:00:00	2024-11-08T07:00:00	5	Humedad	88
89837	7	Sololá	717	San Juan la Laguna	12	San Juan la Laguna	11	Noviembre	2023-11-18T00:00:00	2024-11-08T07:00:00	6	Velocidad del viento	0
89838	7	Sololá	717	San Juan la Laguna	12	San Juan la Laguna	11	Noviembre	2023-11-18T00:00:00	2024-11-08T07:00:00	7	Dirección del viento	0
89839	7	Sololá	717	San Juan la Laguna	12	San Juan la Laguna	11	Noviembre	2023-11-18T00:00:00	2024-11-08T07:00:00	1	Precipitación	0
89840	7	Sololá	717	San Juan la Laguna	12	San Juan la Laguna	11	Noviembre	2023-11-18T00:00:00	2024-11-08T07:00:00	8	Radiación solar	34
89841	7	Sololá	717	San Juan la Laguna	12	San Juan la Laguna	11	Noviembre	2023-11-18T00:00:00	2024-11-08T08:00:00	2	Temperatura media	18.1
89842	7	Sololá	717	San Juan la Laguna	12	San Juan la Laguna	11	Noviembre	2023-11-18T00:00:00	2024-11-08T08:00:00	4	Temperatura máxima	18.1
89843	7	Sololá	717	San Juan la Laguna	12	San Juan la Laguna	11	Noviembre	2023-11-18T00:00:00	2024-11-08T08:00:00	3	Temperatura mínima	15
89844	7	Sololá	717	San Juan la Laguna	12	San Juan la Laguna	11	Noviembre	2023-11-18T00:00:00	2024-11-08T08:00:00	5	Humedad	85
89845	7	Sololá	717	San Juan la Laguna	12	San Juan la Laguna	11	Noviembre	2023-11-18T00:00:00	2024-11-08T08:00:00	6	Velocidad del viento	0
89846	7	Sololá	717	San Juan la Laguna	12	San Juan la Laguna	11	Noviembre	2023-11-18T00:00:00	2024-11-08T08:00:00	7	Dirección del viento	0
89847	7	Sololá	717	San Juan la Laguna	12	San Juan la Laguna	11	Noviembre	2023-11-18T00:00:00	2024-11-08T08:00:00	1	Precipitación	0
89848	7	Sololá	717	San Juan la Laguna	12	San Juan la Laguna	11	Noviembre	2023-11-18T00:00:00	2024-11-08T08:00:00	8	Radiación solar	181
89849	7	Sololá	717	San Juan la Laguna	12	San Juan la Laguna	11	Noviembre	2023-11-18T00:00:00	2024-11-08T09:00:00	2	Temperatura media	19.4
89850	7	Sololá	717	San Juan la Laguna	12	San Juan la Laguna	11	Noviembre	2023-11-18T00:00:00	2024-11-08T09:00:00	4	Temperatura máxima	19.8
89851	7	Sololá	717	San Juan la Laguna	12	San Juan la Laguna	11	Noviembre	2023-11-18T00:00:00	2024-11-08T09:00:00	3	Temperatura mínima	18.1
89852	7	Sololá	717	San Juan la Laguna	12	San Juan la Laguna	11	Noviembre	2023-11-18T00:00:00	2024-11-08T09:00:00	5	Humedad	82
89853	7	Sololá	717	San Juan la Laguna	12	San Juan la Laguna	11	Noviembre	2023-11-18T00:00:00	2024-11-08T09:00:00	6	Velocidad del viento	0
89854	7	Sololá	717	San Juan la Laguna	12	San Juan la Laguna	11	Noviembre	2023-11-18T00:00:00	2024-11-08T09:00:00	7	Dirección del viento	0
89855	7	Sololá	717	San Juan la Laguna	12	San Juan la Laguna	11	Noviembre	2023-11-18T00:00:00	2024-11-08T09:00:00	1	Precipitación	0
89856	7	Sololá	717	San Juan la Laguna	12	San Juan la Laguna	11	Noviembre	2023-11-18T00:00:00	2024-11-08T09:00:00	8	Radiación solar	356
89857	7	Sololá	717	San Juan la Laguna	12	San Juan la Laguna	11	Noviembre	2023-11-18T00:00:00	2024-11-08T10:00:00	2	Temperatura media	21.1
89858	7	Sololá	717	San Juan la Laguna	12	San Juan la Laguna	11	Noviembre	2023-11-18T00:00:00	2024-11-08T10:00:00	4	Temperatura máxima	21.1
89859	7	Sololá	717	San Juan la Laguna	12	San Juan la Laguna	11	Noviembre	2023-11-18T00:00:00	2024-11-08T10:00:00	3	Temperatura mínima	19.4
89860	7	Sololá	717	San Juan la Laguna	12	San Juan la Laguna	11	Noviembre	2023-11-18T00:00:00	2024-11-08T10:00:00	5	Humedad	71
89861	7	Sololá	717	San Juan la Laguna	12	San Juan la Laguna	11	Noviembre	2023-11-18T00:00:00	2024-11-08T10:00:00	6	Velocidad del viento	0
89862	7	Sololá	717	San Juan la Laguna	12	San Juan la Laguna	11	Noviembre	2023-11-18T00:00:00	2024-11-08T10:00:00	7	Dirección del viento	0
89863	7	Sololá	717	San Juan la Laguna	12	San Juan la Laguna	11	Noviembre	2023-11-18T00:00:00	2024-11-08T10:00:00	1	Precipitación	0
89864	7	Sololá	717	San Juan la Laguna	12	San Juan la Laguna	11	Noviembre	2023-11-18T00:00:00	2024-11-08T10:00:00	8	Radiación solar	628
89865	7	Sololá	717	San Juan la Laguna	12	San Juan la Laguna	11	Noviembre	2023-11-18T00:00:00	2024-11-08T11:00:00	2	Temperatura media	21.4
89866	7	Sololá	717	San Juan la Laguna	12	San Juan la Laguna	11	Noviembre	2023-11-18T00:00:00	2024-11-08T11:00:00	4	Temperatura máxima	21.4
89867	7	Sololá	717	San Juan la Laguna	12	San Juan la Laguna	11	Noviembre	2023-11-18T00:00:00	2024-11-08T11:00:00	3	Temperatura mínima	20.9
89868	7	Sololá	717	San Juan la Laguna	12	San Juan la Laguna	11	Noviembre	2023-11-18T00:00:00	2024-11-08T11:00:00	5	Humedad	73
89869	7	Sololá	717	San Juan la Laguna	12	San Juan la Laguna	11	Noviembre	2023-11-18T00:00:00	2024-11-08T11:00:00	6	Velocidad del viento	0
89870	7	Sololá	717	San Juan la Laguna	12	San Juan la Laguna	11	Noviembre	2023-11-18T00:00:00	2024-11-08T11:00:00	7	Dirección del viento	0
89871	7	Sololá	717	San Juan la Laguna	12	San Juan la Laguna	11	Noviembre	2023-11-18T00:00:00	2024-11-08T11:00:00	1	Precipitación	0
89872	7	Sololá	717	San Juan la Laguna	12	San Juan la Laguna	11	Noviembre	2023-11-18T00:00:00	2024-11-08T11:00:00	8	Radiación solar	595
89873	7	Sololá	717	San Juan la Laguna	12	San Juan la Laguna	11	Noviembre	2023-11-18T00:00:00	2024-11-08T12:00:00	2	Temperatura media	21.1
89874	7	Sololá	717	San Juan la Laguna	12	San Juan la Laguna	11	Noviembre	2023-11-18T00:00:00	2024-11-08T12:00:00	4	Temperatura máxima	22.2
89875	7	Sololá	717	San Juan la Laguna	12	San Juan la Laguna	11	Noviembre	2023-11-18T00:00:00	2024-11-08T12:00:00	3	Temperatura mínima	20.9
89876	7	Sololá	717	San Juan la Laguna	12	San Juan la Laguna	11	Noviembre	2023-11-18T00:00:00	2024-11-08T12:00:00	5	Humedad	74
89877	7	Sololá	717	San Juan la Laguna	12	San Juan la Laguna	11	Noviembre	2023-11-18T00:00:00	2024-11-08T12:00:00	6	Velocidad del viento	0
89878	7	Sololá	717	San Juan la Laguna	12	San Juan la Laguna	11	Noviembre	2023-11-18T00:00:00	2024-11-08T12:00:00	7	Dirección del viento	0
89879	7	Sololá	717	San Juan la Laguna	12	San Juan la Laguna	11	Noviembre	2023-11-18T00:00:00	2024-11-08T12:00:00	1	Precipitación	0
89880	7	Sololá	717	San Juan la Laguna	12	San Juan la Laguna	11	Noviembre	2023-11-18T00:00:00	2024-11-08T12:00:00	8	Radiación solar	617
89881	7	Sololá	717	San Juan la Laguna	12	San Juan la Laguna	11	Noviembre	2023-11-18T00:00:00	2024-11-08T13:00:00	2	Temperatura media	22.5
89882	7	Sololá	717	San Juan la Laguna	12	San Juan la Laguna	11	Noviembre	2023-11-18T00:00:00	2024-11-08T13:00:00	4	Temperatura máxima	23.1
89883	7	Sololá	717	San Juan la Laguna	12	San Juan la Laguna	11	Noviembre	2023-11-18T00:00:00	2024-11-08T13:00:00	3	Temperatura mínima	21.1
89884	7	Sololá	717	San Juan la Laguna	12	San Juan la Laguna	11	Noviembre	2023-11-18T00:00:00	2024-11-08T13:00:00	5	Humedad	66
89885	7	Sololá	717	San Juan la Laguna	12	San Juan la Laguna	11	Noviembre	2023-11-18T00:00:00	2024-11-08T13:00:00	6	Velocidad del viento	1.6
89886	7	Sololá	717	San Juan la Laguna	12	San Juan la Laguna	11	Noviembre	2023-11-18T00:00:00	2024-11-08T13:00:00	7	Dirección del viento	1.61
89887	7	Sololá	717	San Juan la Laguna	12	San Juan la Laguna	11	Noviembre	2023-11-18T00:00:00	2024-11-08T13:00:00	1	Precipitación	0
89888	7	Sololá	717	San Juan la Laguna	12	San Juan la Laguna	11	Noviembre	2023-11-18T00:00:00	2024-11-08T13:00:00	8	Radiación solar	584
89889	7	Sololá	717	San Juan la Laguna	12	San Juan la Laguna	11	Noviembre	2023-11-18T00:00:00	2024-11-08T14:00:00	2	Temperatura media	22.1
89890	7	Sololá	717	San Juan la Laguna	12	San Juan la Laguna	11	Noviembre	2023-11-18T00:00:00	2024-11-08T14:00:00	4	Temperatura máxima	22.8
89891	7	Sololá	717	San Juan la Laguna	12	San Juan la Laguna	11	Noviembre	2023-11-18T00:00:00	2024-11-08T14:00:00	3	Temperatura mínima	21.7
89892	7	Sololá	717	San Juan la Laguna	12	San Juan la Laguna	11	Noviembre	2023-11-18T00:00:00	2024-11-08T14:00:00	5	Humedad	73
89893	7	Sololá	717	San Juan la Laguna	12	San Juan la Laguna	11	Noviembre	2023-11-18T00:00:00	2024-11-08T14:00:00	6	Velocidad del viento	1.6
89894	7	Sololá	717	San Juan la Laguna	12	San Juan la Laguna	11	Noviembre	2023-11-18T00:00:00	2024-11-08T14:00:00	7	Dirección del viento	1.61
89895	7	Sololá	717	San Juan la Laguna	12	San Juan la Laguna	11	Noviembre	2023-11-18T00:00:00	2024-11-08T14:00:00	1	Precipitación	0
89896	7	Sololá	717	San Juan la Laguna	12	San Juan la Laguna	11	Noviembre	2023-11-18T00:00:00	2024-11-08T14:00:00	8	Radiación solar	317
89897	7	Sololá	717	San Juan la Laguna	12	San Juan la Laguna	11	Noviembre	2023-11-18T00:00:00	2024-11-08T15:00:00	2	Temperatura media	21.7
89898	7	Sololá	717	San Juan la Laguna	12	San Juan la Laguna	11	Noviembre	2023-11-18T00:00:00	2024-11-08T15:00:00	4	Temperatura máxima	22.8
89899	7	Sololá	717	San Juan la Laguna	12	San Juan la Laguna	11	Noviembre	2023-11-18T00:00:00	2024-11-08T15:00:00	3	Temperatura mínima	21.6
89900	7	Sololá	717	San Juan la Laguna	12	San Juan la Laguna	11	Noviembre	2023-11-18T00:00:00	2024-11-08T15:00:00	5	Humedad	77
89901	7	Sololá	717	San Juan la Laguna	12	San Juan la Laguna	11	Noviembre	2023-11-18T00:00:00	2024-11-08T15:00:00	6	Velocidad del viento	1.6
89902	7	Sololá	717	San Juan la Laguna	12	San Juan la Laguna	11	Noviembre	2023-11-18T00:00:00	2024-11-08T15:00:00	7	Dirección del viento	1.61
89903	7	Sololá	717	San Juan la Laguna	12	San Juan la Laguna	11	Noviembre	2023-11-18T00:00:00	2024-11-08T15:00:00	1	Precipitación	0
89904	7	Sololá	717	San Juan la Laguna	12	San Juan la Laguna	11	Noviembre	2023-11-18T00:00:00	2024-11-08T15:00:00	8	Radiación solar	390
89905	7	Sololá	717	San Juan la Laguna	12	San Juan la Laguna	11	Noviembre	2023-11-18T00:00:00	2024-11-08T16:00:00	2	Temperatura media	21.3
89906	7	Sololá	717	San Juan la Laguna	12	San Juan la Laguna	11	Noviembre	2023-11-18T00:00:00	2024-11-08T16:00:00	4	Temperatura máxima	21.9
89907	7	Sololá	717	San Juan la Laguna	12	San Juan la Laguna	11	Noviembre	2023-11-18T00:00:00	2024-11-08T16:00:00	3	Temperatura mínima	21.3
89908	7	Sololá	717	San Juan la Laguna	12	San Juan la Laguna	11	Noviembre	2023-11-18T00:00:00	2024-11-08T16:00:00	5	Humedad	78
89909	7	Sololá	717	San Juan la Laguna	12	San Juan la Laguna	11	Noviembre	2023-11-18T00:00:00	2024-11-08T16:00:00	6	Velocidad del viento	0
89910	7	Sololá	717	San Juan la Laguna	12	San Juan la Laguna	11	Noviembre	2023-11-18T00:00:00	2024-11-08T16:00:00	7	Dirección del viento	0
89911	7	Sololá	717	San Juan la Laguna	12	San Juan la Laguna	11	Noviembre	2023-11-18T00:00:00	2024-11-08T16:00:00	1	Precipitación	0
89912	7	Sololá	717	San Juan la Laguna	12	San Juan la Laguna	11	Noviembre	2023-11-18T00:00:00	2024-11-08T16:00:00	8	Radiación solar	337
89913	7	Sololá	717	San Juan la Laguna	12	San Juan la Laguna	11	Noviembre	2023-11-18T00:00:00	2024-11-08T17:00:00	2	Temperatura media	20.1
89914	7	Sololá	717	San Juan la Laguna	12	San Juan la Laguna	11	Noviembre	2023-11-18T00:00:00	2024-11-08T17:00:00	4	Temperatura máxima	21.3
89915	7	Sololá	717	San Juan la Laguna	12	San Juan la Laguna	11	Noviembre	2023-11-18T00:00:00	2024-11-08T17:00:00	3	Temperatura mínima	20.1
89916	7	Sololá	717	San Juan la Laguna	12	San Juan la Laguna	11	Noviembre	2023-11-18T00:00:00	2024-11-08T17:00:00	5	Humedad	82
89917	7	Sololá	717	San Juan la Laguna	12	San Juan la Laguna	11	Noviembre	2023-11-18T00:00:00	2024-11-08T17:00:00	6	Velocidad del viento	0
89918	7	Sololá	717	San Juan la Laguna	12	San Juan la Laguna	11	Noviembre	2023-11-18T00:00:00	2024-11-08T17:00:00	7	Dirección del viento	0
89919	7	Sololá	717	San Juan la Laguna	12	San Juan la Laguna	11	Noviembre	2023-11-18T00:00:00	2024-11-08T17:00:00	1	Precipitación	0
89920	7	Sololá	717	San Juan la Laguna	12	San Juan la Laguna	11	Noviembre	2023-11-18T00:00:00	2024-11-08T17:00:00	8	Radiación solar	114
89921	7	Sololá	717	San Juan la Laguna	12	San Juan la Laguna	11	Noviembre	2023-11-18T00:00:00	2024-11-08T18:00:00	2	Temperatura media	19.5
89922	7	Sololá	717	San Juan la Laguna	12	San Juan la Laguna	11	Noviembre	2023-11-18T00:00:00	2024-11-08T18:00:00	4	Temperatura máxima	20
89923	7	Sololá	717	San Juan la Laguna	12	San Juan la Laguna	11	Noviembre	2023-11-18T00:00:00	2024-11-08T18:00:00	3	Temperatura mínima	19.5
89924	7	Sololá	717	San Juan la Laguna	12	San Juan la Laguna	11	Noviembre	2023-11-18T00:00:00	2024-11-08T18:00:00	5	Humedad	84
89925	7	Sololá	717	San Juan la Laguna	12	San Juan la Laguna	11	Noviembre	2023-11-18T00:00:00	2024-11-08T18:00:00	6	Velocidad del viento	0
89926	7	Sololá	717	San Juan la Laguna	12	San Juan la Laguna	11	Noviembre	2023-11-18T00:00:00	2024-11-08T18:00:00	7	Dirección del viento	0
89927	7	Sololá	717	San Juan la Laguna	12	San Juan la Laguna	11	Noviembre	2023-11-18T00:00:00	2024-11-08T18:00:00	1	Precipitación	0
89928	7	Sololá	717	San Juan la Laguna	12	San Juan la Laguna	11	Noviembre	2023-11-18T00:00:00	2024-11-08T18:00:00	8	Radiación solar	16
89929	7	Sololá	717	San Juan la Laguna	12	San Juan la Laguna	11	Noviembre	2023-11-18T00:00:00	2024-11-08T19:00:00	2	Temperatura media	18.5
89930	7	Sololá	717	San Juan la Laguna	12	San Juan la Laguna	11	Noviembre	2023-11-18T00:00:00	2024-11-08T19:00:00	4	Temperatura máxima	19.5
89931	7	Sololá	717	San Juan la Laguna	12	San Juan la Laguna	11	Noviembre	2023-11-18T00:00:00	2024-11-08T19:00:00	3	Temperatura mínima	18.5
89932	7	Sololá	717	San Juan la Laguna	12	San Juan la Laguna	11	Noviembre	2023-11-18T00:00:00	2024-11-08T19:00:00	5	Humedad	87
89933	7	Sololá	717	San Juan la Laguna	12	San Juan la Laguna	11	Noviembre	2023-11-18T00:00:00	2024-11-08T19:00:00	6	Velocidad del viento	0
89934	7	Sololá	717	San Juan la Laguna	12	San Juan la Laguna	11	Noviembre	2023-11-18T00:00:00	2024-11-08T19:00:00	7	Dirección del viento	0
89935	7	Sololá	717	San Juan la Laguna	12	San Juan la Laguna	11	Noviembre	2023-11-18T00:00:00	2024-11-08T19:00:00	1	Precipitación	0
89936	7	Sololá	717	San Juan la Laguna	12	San Juan la Laguna	11	Noviembre	2023-11-18T00:00:00	2024-11-08T19:00:00	8	Radiación solar	0
89937	7	Sololá	717	San Juan la Laguna	12	San Juan la Laguna	11	Noviembre	2023-11-18T00:00:00	2024-11-08T20:00:00	2	Temperatura media	18.4
89938	7	Sololá	717	San Juan la Laguna	12	San Juan la Laguna	11	Noviembre	2023-11-18T00:00:00	2024-11-08T20:00:00	4	Temperatura máxima	18.5
89939	7	Sololá	717	San Juan la Laguna	12	San Juan la Laguna	11	Noviembre	2023-11-18T00:00:00	2024-11-08T20:00:00	3	Temperatura mínima	18.3
89940	7	Sololá	717	San Juan la Laguna	12	San Juan la Laguna	11	Noviembre	2023-11-18T00:00:00	2024-11-08T20:00:00	5	Humedad	87
89941	7	Sololá	717	San Juan la Laguna	12	San Juan la Laguna	11	Noviembre	2023-11-18T00:00:00	2024-11-08T20:00:00	6	Velocidad del viento	0
89942	7	Sololá	717	San Juan la Laguna	12	San Juan la Laguna	11	Noviembre	2023-11-18T00:00:00	2024-11-08T20:00:00	7	Dirección del viento	0
89943	7	Sololá	717	San Juan la Laguna	12	San Juan la Laguna	11	Noviembre	2023-11-18T00:00:00	2024-11-08T20:00:00	1	Precipitación	0
89944	7	Sololá	717	San Juan la Laguna	12	San Juan la Laguna	11	Noviembre	2023-11-18T00:00:00	2024-11-08T20:00:00	8	Radiación solar	0
89945	7	Sololá	717	San Juan la Laguna	12	San Juan la Laguna	11	Noviembre	2023-11-18T00:00:00	2024-11-08T21:00:00	2	Temperatura media	18.6
89946	7	Sololá	717	San Juan la Laguna	12	San Juan la Laguna	11	Noviembre	2023-11-18T00:00:00	2024-11-08T21:00:00	4	Temperatura máxima	18.6
89947	7	Sololá	717	San Juan la Laguna	12	San Juan la Laguna	11	Noviembre	2023-11-18T00:00:00	2024-11-08T21:00:00	3	Temperatura mínima	18.2
89948	7	Sololá	717	San Juan la Laguna	12	San Juan la Laguna	11	Noviembre	2023-11-18T00:00:00	2024-11-08T21:00:00	5	Humedad	84
89949	7	Sololá	717	San Juan la Laguna	12	San Juan la Laguna	11	Noviembre	2023-11-18T00:00:00	2024-11-08T21:00:00	6	Velocidad del viento	0
89950	7	Sololá	717	San Juan la Laguna	12	San Juan la Laguna	11	Noviembre	2023-11-18T00:00:00	2024-11-08T21:00:00	7	Dirección del viento	0
89951	7	Sololá	717	San Juan la Laguna	12	San Juan la Laguna	11	Noviembre	2023-11-18T00:00:00	2024-11-08T21:00:00	1	Precipitación	0
89952	7	Sololá	717	San Juan la Laguna	12	San Juan la Laguna	11	Noviembre	2023-11-18T00:00:00	2024-11-08T21:00:00	8	Radiación solar	0
89953	7	Sololá	717	San Juan la Laguna	12	San Juan la Laguna	11	Noviembre	2023-11-18T00:00:00	2024-11-08T22:00:00	2	Temperatura media	18.3
89954	7	Sololá	717	San Juan la Laguna	12	San Juan la Laguna	11	Noviembre	2023-11-18T00:00:00	2024-11-08T22:00:00	4	Temperatura máxima	18.9
89955	7	Sololá	717	San Juan la Laguna	12	San Juan la Laguna	11	Noviembre	2023-11-18T00:00:00	2024-11-08T22:00:00	3	Temperatura mínima	18.3
89956	7	Sololá	717	San Juan la Laguna	12	San Juan la Laguna	11	Noviembre	2023-11-18T00:00:00	2024-11-08T22:00:00	5	Humedad	73
89957	7	Sololá	717	San Juan la Laguna	12	San Juan la Laguna	11	Noviembre	2023-11-18T00:00:00	2024-11-08T22:00:00	6	Velocidad del viento	0
89958	7	Sololá	717	San Juan la Laguna	12	San Juan la Laguna	11	Noviembre	2023-11-18T00:00:00	2024-11-08T22:00:00	7	Dirección del viento	0
89959	7	Sololá	717	San Juan la Laguna	12	San Juan la Laguna	11	Noviembre	2023-11-18T00:00:00	2024-11-08T22:00:00	1	Precipitación	0
89960	7	Sololá	717	San Juan la Laguna	12	San Juan la Laguna	11	Noviembre	2023-11-18T00:00:00	2024-11-08T22:00:00	8	Radiación solar	0
89961	7	Sololá	717	San Juan la Laguna	12	San Juan la Laguna	11	Noviembre	2023-11-18T00:00:00	2024-11-08T23:00:00	2	Temperatura media	15.7
89962	7	Sololá	717	San Juan la Laguna	12	San Juan la Laguna	11	Noviembre	2023-11-18T00:00:00	2024-11-08T23:00:00	4	Temperatura máxima	18.3
89963	7	Sololá	717	San Juan la Laguna	12	San Juan la Laguna	11	Noviembre	2023-11-18T00:00:00	2024-11-08T23:00:00	3	Temperatura mínima	15.7
89964	7	Sololá	717	San Juan la Laguna	12	San Juan la Laguna	11	Noviembre	2023-11-18T00:00:00	2024-11-08T23:00:00	5	Humedad	84
89965	7	Sololá	717	San Juan la Laguna	12	San Juan la Laguna	11	Noviembre	2023-11-18T00:00:00	2024-11-08T23:00:00	6	Velocidad del viento	0
89966	7	Sololá	717	San Juan la Laguna	12	San Juan la Laguna	11	Noviembre	2023-11-18T00:00:00	2024-11-08T23:00:00	7	Dirección del viento	0
89967	7	Sololá	717	San Juan la Laguna	12	San Juan la Laguna	11	Noviembre	2023-11-18T00:00:00	2024-11-08T23:00:00	1	Precipitación	0
89968	7	Sololá	717	San Juan la Laguna	12	San Juan la Laguna	11	Noviembre	2023-11-18T00:00:00	2024-11-08T23:00:00	8	Radiación solar	0
89969	7	Sololá	717	San Juan la Laguna	12	San Juan la Laguna	11	Noviembre	2023-11-19T00:00:00	2024-11-08T00:00:00	2	Temperatura media	14.9
89970	7	Sololá	717	San Juan la Laguna	12	San Juan la Laguna	11	Noviembre	2023-11-19T00:00:00	2024-11-08T00:00:00	4	Temperatura máxima	15.7
89971	7	Sololá	717	San Juan la Laguna	12	San Juan la Laguna	11	Noviembre	2023-11-19T00:00:00	2024-11-08T00:00:00	3	Temperatura mínima	14.9
89972	7	Sololá	717	San Juan la Laguna	12	San Juan la Laguna	11	Noviembre	2023-11-19T00:00:00	2024-11-08T00:00:00	5	Humedad	86
89973	7	Sololá	717	San Juan la Laguna	12	San Juan la Laguna	11	Noviembre	2023-11-19T00:00:00	2024-11-08T00:00:00	6	Velocidad del viento	0
89974	7	Sololá	717	San Juan la Laguna	12	San Juan la Laguna	11	Noviembre	2023-11-19T00:00:00	2024-11-08T00:00:00	7	Dirección del viento	0
89975	7	Sololá	717	San Juan la Laguna	12	San Juan la Laguna	11	Noviembre	2023-11-19T00:00:00	2024-11-08T00:00:00	1	Precipitación	0
89976	7	Sololá	717	San Juan la Laguna	12	San Juan la Laguna	11	Noviembre	2023-11-19T00:00:00	2024-11-08T00:00:00	8	Radiación solar	0
89977	7	Sololá	717	San Juan la Laguna	12	San Juan la Laguna	11	Noviembre	2023-11-19T00:00:00	2024-11-08T01:00:00	2	Temperatura media	14.6
89978	7	Sololá	717	San Juan la Laguna	12	San Juan la Laguna	11	Noviembre	2023-11-19T00:00:00	2024-11-08T01:00:00	4	Temperatura máxima	14.9
89979	7	Sololá	717	San Juan la Laguna	12	San Juan la Laguna	11	Noviembre	2023-11-19T00:00:00	2024-11-08T01:00:00	3	Temperatura mínima	14.5
89980	7	Sololá	717	San Juan la Laguna	12	San Juan la Laguna	11	Noviembre	2023-11-19T00:00:00	2024-11-08T01:00:00	5	Humedad	86
89981	7	Sololá	717	San Juan la Laguna	12	San Juan la Laguna	11	Noviembre	2023-11-19T00:00:00	2024-11-08T01:00:00	6	Velocidad del viento	0
89982	7	Sololá	717	San Juan la Laguna	12	San Juan la Laguna	11	Noviembre	2023-11-19T00:00:00	2024-11-08T01:00:00	7	Dirección del viento	0
89983	7	Sololá	717	San Juan la Laguna	12	San Juan la Laguna	11	Noviembre	2023-11-19T00:00:00	2024-11-08T01:00:00	1	Precipitación	0
89984	7	Sololá	717	San Juan la Laguna	12	San Juan la Laguna	11	Noviembre	2023-11-19T00:00:00	2024-11-08T01:00:00	8	Radiación solar	0
89985	7	Sololá	717	San Juan la Laguna	12	San Juan la Laguna	11	Noviembre	2023-11-19T00:00:00	2024-11-08T02:00:00	2	Temperatura media	14.7
89986	7	Sololá	717	San Juan la Laguna	12	San Juan la Laguna	11	Noviembre	2023-11-19T00:00:00	2024-11-08T02:00:00	4	Temperatura máxima	15
89987	7	Sololá	717	San Juan la Laguna	12	San Juan la Laguna	11	Noviembre	2023-11-19T00:00:00	2024-11-08T02:00:00	3	Temperatura mínima	14.5
89988	7	Sololá	717	San Juan la Laguna	12	San Juan la Laguna	11	Noviembre	2023-11-19T00:00:00	2024-11-08T02:00:00	5	Humedad	86
89989	7	Sololá	717	San Juan la Laguna	12	San Juan la Laguna	11	Noviembre	2023-11-19T00:00:00	2024-11-08T02:00:00	6	Velocidad del viento	0
89990	7	Sololá	717	San Juan la Laguna	12	San Juan la Laguna	11	Noviembre	2023-11-19T00:00:00	2024-11-08T02:00:00	7	Dirección del viento	0
89991	7	Sololá	717	San Juan la Laguna	12	San Juan la Laguna	11	Noviembre	2023-11-19T00:00:00	2024-11-08T02:00:00	1	Precipitación	0
89992	7	Sololá	717	San Juan la Laguna	12	San Juan la Laguna	11	Noviembre	2023-11-19T00:00:00	2024-11-08T02:00:00	8	Radiación solar	0
89993	7	Sololá	717	San Juan la Laguna	12	San Juan la Laguna	11	Noviembre	2023-11-19T00:00:00	2024-11-08T03:00:00	2	Temperatura media	14.4
89994	7	Sololá	717	San Juan la Laguna	12	San Juan la Laguna	11	Noviembre	2023-11-19T00:00:00	2024-11-08T03:00:00	4	Temperatura máxima	14.7
89995	7	Sololá	717	San Juan la Laguna	12	San Juan la Laguna	11	Noviembre	2023-11-19T00:00:00	2024-11-08T03:00:00	3	Temperatura mínima	14.4
89996	7	Sololá	717	San Juan la Laguna	12	San Juan la Laguna	11	Noviembre	2023-11-19T00:00:00	2024-11-08T03:00:00	5	Humedad	86
89997	7	Sololá	717	San Juan la Laguna	12	San Juan la Laguna	11	Noviembre	2023-11-19T00:00:00	2024-11-08T03:00:00	6	Velocidad del viento	0
89998	7	Sololá	717	San Juan la Laguna	12	San Juan la Laguna	11	Noviembre	2023-11-19T00:00:00	2024-11-08T03:00:00	7	Dirección del viento	0
89999	7	Sololá	717	San Juan la Laguna	12	San Juan la Laguna	11	Noviembre	2023-11-19T00:00:00	2024-11-08T03:00:00	1	Precipitación	0
90000	7	Sololá	717	San Juan la Laguna	12	San Juan la Laguna	11	Noviembre	2023-11-19T00:00:00	2024-11-08T03:00:00	8	Radiación solar	0
90001	7	Sololá	717	San Juan la Laguna	12	San Juan la Laguna	11	Noviembre	2023-11-19T00:00:00	2024-11-08T04:00:00	2	Temperatura media	13.6
90002	7	Sololá	717	San Juan la Laguna	12	San Juan la Laguna	11	Noviembre	2023-11-19T00:00:00	2024-11-08T04:00:00	4	Temperatura máxima	14.4
90003	7	Sololá	717	San Juan la Laguna	12	San Juan la Laguna	11	Noviembre	2023-11-19T00:00:00	2024-11-08T04:00:00	3	Temperatura mínima	13.6
90004	7	Sololá	717	San Juan la Laguna	12	San Juan la Laguna	11	Noviembre	2023-11-19T00:00:00	2024-11-08T04:00:00	5	Humedad	88
90005	7	Sololá	717	San Juan la Laguna	12	San Juan la Laguna	11	Noviembre	2023-11-19T00:00:00	2024-11-08T04:00:00	6	Velocidad del viento	0
90006	7	Sololá	717	San Juan la Laguna	12	San Juan la Laguna	11	Noviembre	2023-11-19T00:00:00	2024-11-08T04:00:00	7	Dirección del viento	0
90007	7	Sololá	717	San Juan la Laguna	12	San Juan la Laguna	11	Noviembre	2023-11-19T00:00:00	2024-11-08T04:00:00	1	Precipitación	0
90008	7	Sololá	717	San Juan la Laguna	12	San Juan la Laguna	11	Noviembre	2023-11-19T00:00:00	2024-11-08T04:00:00	8	Radiación solar	0
90009	7	Sololá	717	San Juan la Laguna	12	San Juan la Laguna	11	Noviembre	2023-11-19T00:00:00	2024-11-08T05:00:00	2	Temperatura media	13.5
90010	7	Sololá	717	San Juan la Laguna	12	San Juan la Laguna	11	Noviembre	2023-11-19T00:00:00	2024-11-08T05:00:00	4	Temperatura máxima	13.7
90011	7	Sololá	717	San Juan la Laguna	12	San Juan la Laguna	11	Noviembre	2023-11-19T00:00:00	2024-11-08T05:00:00	3	Temperatura mínima	13.3
90012	7	Sololá	717	San Juan la Laguna	12	San Juan la Laguna	11	Noviembre	2023-11-19T00:00:00	2024-11-08T05:00:00	5	Humedad	89
90013	7	Sololá	717	San Juan la Laguna	12	San Juan la Laguna	11	Noviembre	2023-11-19T00:00:00	2024-11-08T05:00:00	6	Velocidad del viento	0
90014	7	Sololá	717	San Juan la Laguna	12	San Juan la Laguna	11	Noviembre	2023-11-19T00:00:00	2024-11-08T05:00:00	7	Dirección del viento	0
90015	7	Sololá	717	San Juan la Laguna	12	San Juan la Laguna	11	Noviembre	2023-11-19T00:00:00	2024-11-08T05:00:00	1	Precipitación	0
90016	7	Sololá	717	San Juan la Laguna	12	San Juan la Laguna	11	Noviembre	2023-11-19T00:00:00	2024-11-08T05:00:00	8	Radiación solar	0
90017	7	Sololá	717	San Juan la Laguna	12	San Juan la Laguna	11	Noviembre	2023-11-19T00:00:00	2024-11-08T06:00:00	2	Temperatura media	13.2
90018	7	Sololá	717	San Juan la Laguna	12	San Juan la Laguna	11	Noviembre	2023-11-19T00:00:00	2024-11-08T06:00:00	4	Temperatura máxima	13.6
90019	7	Sololá	717	San Juan la Laguna	12	San Juan la Laguna	11	Noviembre	2023-11-19T00:00:00	2024-11-08T06:00:00	3	Temperatura mínima	13.1
90020	7	Sololá	717	San Juan la Laguna	12	San Juan la Laguna	11	Noviembre	2023-11-19T00:00:00	2024-11-08T06:00:00	5	Humedad	89
90021	7	Sololá	717	San Juan la Laguna	12	San Juan la Laguna	11	Noviembre	2023-11-19T00:00:00	2024-11-08T06:00:00	6	Velocidad del viento	0
90022	7	Sololá	717	San Juan la Laguna	12	San Juan la Laguna	11	Noviembre	2023-11-19T00:00:00	2024-11-08T06:00:00	7	Dirección del viento	0
90023	7	Sololá	717	San Juan la Laguna	12	San Juan la Laguna	11	Noviembre	2023-11-19T00:00:00	2024-11-08T06:00:00	1	Precipitación	0
90024	7	Sololá	717	San Juan la Laguna	12	San Juan la Laguna	11	Noviembre	2023-11-19T00:00:00	2024-11-08T06:00:00	8	Radiación solar	0
90025	7	Sololá	717	San Juan la Laguna	12	San Juan la Laguna	11	Noviembre	2023-11-19T00:00:00	2024-11-08T07:00:00	2	Temperatura media	13.8
90026	7	Sololá	717	San Juan la Laguna	12	San Juan la Laguna	11	Noviembre	2023-11-19T00:00:00	2024-11-08T07:00:00	4	Temperatura máxima	13.8
90027	7	Sololá	717	San Juan la Laguna	12	San Juan la Laguna	11	Noviembre	2023-11-19T00:00:00	2024-11-08T07:00:00	3	Temperatura mínima	13.1
90028	7	Sololá	717	San Juan la Laguna	12	San Juan la Laguna	11	Noviembre	2023-11-19T00:00:00	2024-11-08T07:00:00	5	Humedad	88
90029	7	Sololá	717	San Juan la Laguna	12	San Juan la Laguna	11	Noviembre	2023-11-19T00:00:00	2024-11-08T07:00:00	6	Velocidad del viento	0
90030	7	Sololá	717	San Juan la Laguna	12	San Juan la Laguna	11	Noviembre	2023-11-19T00:00:00	2024-11-08T07:00:00	7	Dirección del viento	0
90031	7	Sololá	717	San Juan la Laguna	12	San Juan la Laguna	11	Noviembre	2023-11-19T00:00:00	2024-11-08T07:00:00	1	Precipitación	0
90032	7	Sololá	717	San Juan la Laguna	12	San Juan la Laguna	11	Noviembre	2023-11-19T00:00:00	2024-11-08T07:00:00	8	Radiación solar	33
90033	7	Sololá	717	San Juan la Laguna	12	San Juan la Laguna	11	Noviembre	2023-11-19T00:00:00	2024-11-08T08:00:00	2	Temperatura media	18.3
90034	7	Sololá	717	San Juan la Laguna	12	San Juan la Laguna	11	Noviembre	2023-11-19T00:00:00	2024-11-08T08:00:00	4	Temperatura máxima	18.3
90035	7	Sololá	717	San Juan la Laguna	12	San Juan la Laguna	11	Noviembre	2023-11-19T00:00:00	2024-11-08T08:00:00	3	Temperatura mínima	13.8
90036	7	Sololá	717	San Juan la Laguna	12	San Juan la Laguna	11	Noviembre	2023-11-19T00:00:00	2024-11-08T08:00:00	5	Humedad	76
90037	7	Sololá	717	San Juan la Laguna	12	San Juan la Laguna	11	Noviembre	2023-11-19T00:00:00	2024-11-08T08:00:00	6	Velocidad del viento	0
90038	7	Sololá	717	San Juan la Laguna	12	San Juan la Laguna	11	Noviembre	2023-11-19T00:00:00	2024-11-08T08:00:00	7	Dirección del viento	0
90039	7	Sololá	717	San Juan la Laguna	12	San Juan la Laguna	11	Noviembre	2023-11-19T00:00:00	2024-11-08T08:00:00	1	Precipitación	0
90040	7	Sololá	717	San Juan la Laguna	12	San Juan la Laguna	11	Noviembre	2023-11-19T00:00:00	2024-11-08T08:00:00	8	Radiación solar	220
90041	7	Sololá	717	San Juan la Laguna	12	San Juan la Laguna	11	Noviembre	2023-11-19T00:00:00	2024-11-08T09:00:00	2	Temperatura media	19.1
90042	7	Sololá	717	San Juan la Laguna	12	San Juan la Laguna	11	Noviembre	2023-11-19T00:00:00	2024-11-08T09:00:00	4	Temperatura máxima	19.4
90043	7	Sololá	717	San Juan la Laguna	12	San Juan la Laguna	11	Noviembre	2023-11-19T00:00:00	2024-11-08T09:00:00	3	Temperatura mínima	18.3
90044	7	Sololá	717	San Juan la Laguna	12	San Juan la Laguna	11	Noviembre	2023-11-19T00:00:00	2024-11-08T09:00:00	5	Humedad	76
90045	7	Sololá	717	San Juan la Laguna	12	San Juan la Laguna	11	Noviembre	2023-11-19T00:00:00	2024-11-08T09:00:00	6	Velocidad del viento	0
90046	7	Sololá	717	San Juan la Laguna	12	San Juan la Laguna	11	Noviembre	2023-11-19T00:00:00	2024-11-08T09:00:00	7	Dirección del viento	0
90047	7	Sololá	717	San Juan la Laguna	12	San Juan la Laguna	11	Noviembre	2023-11-19T00:00:00	2024-11-08T09:00:00	1	Precipitación	0
90048	7	Sololá	717	San Juan la Laguna	12	San Juan la Laguna	11	Noviembre	2023-11-19T00:00:00	2024-11-08T09:00:00	8	Radiación solar	428
90049	7	Sololá	717	San Juan la Laguna	12	San Juan la Laguna	11	Noviembre	2023-11-19T00:00:00	2024-11-08T10:00:00	2	Temperatura media	20.4
90050	7	Sololá	717	San Juan la Laguna	12	San Juan la Laguna	11	Noviembre	2023-11-19T00:00:00	2024-11-08T10:00:00	4	Temperatura máxima	20.8
90051	7	Sololá	717	San Juan la Laguna	12	San Juan la Laguna	11	Noviembre	2023-11-19T00:00:00	2024-11-08T10:00:00	3	Temperatura mínima	19.1
90052	7	Sololá	717	San Juan la Laguna	12	San Juan la Laguna	11	Noviembre	2023-11-19T00:00:00	2024-11-08T10:00:00	5	Humedad	70
90053	7	Sololá	717	San Juan la Laguna	12	San Juan la Laguna	11	Noviembre	2023-11-19T00:00:00	2024-11-08T10:00:00	6	Velocidad del viento	0
90054	7	Sololá	717	San Juan la Laguna	12	San Juan la Laguna	11	Noviembre	2023-11-19T00:00:00	2024-11-08T10:00:00	7	Dirección del viento	0
90055	7	Sololá	717	San Juan la Laguna	12	San Juan la Laguna	11	Noviembre	2023-11-19T00:00:00	2024-11-08T10:00:00	1	Precipitación	0
90056	7	Sololá	717	San Juan la Laguna	12	San Juan la Laguna	11	Noviembre	2023-11-19T00:00:00	2024-11-08T10:00:00	8	Radiación solar	604
90057	7	Sololá	717	San Juan la Laguna	12	San Juan la Laguna	11	Noviembre	2023-11-19T00:00:00	2024-11-08T11:00:00	2	Temperatura media	21.7
90058	7	Sololá	717	San Juan la Laguna	12	San Juan la Laguna	11	Noviembre	2023-11-19T00:00:00	2024-11-08T11:00:00	4	Temperatura máxima	21.7
90059	7	Sololá	717	San Juan la Laguna	12	San Juan la Laguna	11	Noviembre	2023-11-19T00:00:00	2024-11-08T11:00:00	3	Temperatura mínima	20.3
90060	7	Sololá	717	San Juan la Laguna	12	San Juan la Laguna	11	Noviembre	2023-11-19T00:00:00	2024-11-08T11:00:00	5	Humedad	70
90061	7	Sololá	717	San Juan la Laguna	12	San Juan la Laguna	11	Noviembre	2023-11-19T00:00:00	2024-11-08T11:00:00	6	Velocidad del viento	0
90062	7	Sololá	717	San Juan la Laguna	12	San Juan la Laguna	11	Noviembre	2023-11-19T00:00:00	2024-11-08T11:00:00	7	Dirección del viento	0
90063	7	Sololá	717	San Juan la Laguna	12	San Juan la Laguna	11	Noviembre	2023-11-19T00:00:00	2024-11-08T11:00:00	1	Precipitación	0
90064	7	Sololá	717	San Juan la Laguna	12	San Juan la Laguna	11	Noviembre	2023-11-19T00:00:00	2024-11-08T11:00:00	8	Radiación solar	659
90065	7	Sololá	717	San Juan la Laguna	12	San Juan la Laguna	11	Noviembre	2023-11-19T00:00:00	2024-11-08T12:00:00	2	Temperatura media	21.3
90066	7	Sololá	717	San Juan la Laguna	12	San Juan la Laguna	11	Noviembre	2023-11-19T00:00:00	2024-11-08T12:00:00	4	Temperatura máxima	22.4
90067	7	Sololá	717	San Juan la Laguna	12	San Juan la Laguna	11	Noviembre	2023-11-19T00:00:00	2024-11-08T12:00:00	3	Temperatura mínima	21.2
90068	7	Sololá	717	San Juan la Laguna	12	San Juan la Laguna	11	Noviembre	2023-11-19T00:00:00	2024-11-08T12:00:00	5	Humedad	70
90069	7	Sololá	717	San Juan la Laguna	12	San Juan la Laguna	11	Noviembre	2023-11-19T00:00:00	2024-11-08T12:00:00	6	Velocidad del viento	0
90070	7	Sololá	717	San Juan la Laguna	12	San Juan la Laguna	11	Noviembre	2023-11-19T00:00:00	2024-11-08T12:00:00	7	Dirección del viento	0
90071	7	Sololá	717	San Juan la Laguna	12	San Juan la Laguna	11	Noviembre	2023-11-19T00:00:00	2024-11-08T12:00:00	1	Precipitación	0
90072	7	Sololá	717	San Juan la Laguna	12	San Juan la Laguna	11	Noviembre	2023-11-19T00:00:00	2024-11-08T12:00:00	8	Radiación solar	667
90073	7	Sololá	717	San Juan la Laguna	12	San Juan la Laguna	11	Noviembre	2023-11-19T00:00:00	2024-11-08T13:00:00	2	Temperatura media	22.2
90074	7	Sololá	717	San Juan la Laguna	12	San Juan la Laguna	11	Noviembre	2023-11-19T00:00:00	2024-11-08T13:00:00	4	Temperatura máxima	23.1
90075	7	Sololá	717	San Juan la Laguna	12	San Juan la Laguna	11	Noviembre	2023-11-19T00:00:00	2024-11-08T13:00:00	3	Temperatura mínima	21.3
90076	7	Sololá	717	San Juan la Laguna	12	San Juan la Laguna	11	Noviembre	2023-11-19T00:00:00	2024-11-08T13:00:00	5	Humedad	69
90077	7	Sololá	717	San Juan la Laguna	12	San Juan la Laguna	11	Noviembre	2023-11-19T00:00:00	2024-11-08T13:00:00	6	Velocidad del viento	0
90078	7	Sololá	717	San Juan la Laguna	12	San Juan la Laguna	11	Noviembre	2023-11-19T00:00:00	2024-11-08T13:00:00	7	Dirección del viento	0
90079	7	Sololá	717	San Juan la Laguna	12	San Juan la Laguna	11	Noviembre	2023-11-19T00:00:00	2024-11-08T13:00:00	1	Precipitación	0
90080	7	Sololá	717	San Juan la Laguna	12	San Juan la Laguna	11	Noviembre	2023-11-19T00:00:00	2024-11-08T13:00:00	8	Radiación solar	410
90081	7	Sololá	717	San Juan la Laguna	12	San Juan la Laguna	11	Noviembre	2023-11-19T00:00:00	2024-11-08T14:00:00	2	Temperatura media	21.1
90082	7	Sololá	717	San Juan la Laguna	12	San Juan la Laguna	11	Noviembre	2023-11-19T00:00:00	2024-11-08T14:00:00	4	Temperatura máxima	22.2
90083	7	Sololá	717	San Juan la Laguna	12	San Juan la Laguna	11	Noviembre	2023-11-19T00:00:00	2024-11-08T14:00:00	3	Temperatura mínima	21
90084	7	Sololá	717	San Juan la Laguna	12	San Juan la Laguna	11	Noviembre	2023-11-19T00:00:00	2024-11-08T14:00:00	5	Humedad	76
90085	7	Sololá	717	San Juan la Laguna	12	San Juan la Laguna	11	Noviembre	2023-11-19T00:00:00	2024-11-08T14:00:00	6	Velocidad del viento	0
90086	7	Sololá	717	San Juan la Laguna	12	San Juan la Laguna	11	Noviembre	2023-11-19T00:00:00	2024-11-08T14:00:00	7	Dirección del viento	0
90087	7	Sololá	717	San Juan la Laguna	12	San Juan la Laguna	11	Noviembre	2023-11-19T00:00:00	2024-11-08T14:00:00	1	Precipitación	0
90088	7	Sololá	717	San Juan la Laguna	12	San Juan la Laguna	11	Noviembre	2023-11-19T00:00:00	2024-11-08T14:00:00	8	Radiación solar	213
90089	7	Sololá	717	San Juan la Laguna	12	San Juan la Laguna	11	Noviembre	2023-11-19T00:00:00	2024-11-08T15:00:00	2	Temperatura media	19.7
90090	7	Sololá	717	San Juan la Laguna	12	San Juan la Laguna	11	Noviembre	2023-11-19T00:00:00	2024-11-08T15:00:00	4	Temperatura máxima	21.1
90091	7	Sololá	717	San Juan la Laguna	12	San Juan la Laguna	11	Noviembre	2023-11-19T00:00:00	2024-11-08T15:00:00	3	Temperatura mínima	19.7
90092	7	Sololá	717	San Juan la Laguna	12	San Juan la Laguna	11	Noviembre	2023-11-19T00:00:00	2024-11-08T15:00:00	5	Humedad	82
90093	7	Sololá	717	San Juan la Laguna	12	San Juan la Laguna	11	Noviembre	2023-11-19T00:00:00	2024-11-08T15:00:00	6	Velocidad del viento	0
90094	7	Sololá	717	San Juan la Laguna	12	San Juan la Laguna	11	Noviembre	2023-11-19T00:00:00	2024-11-08T15:00:00	7	Dirección del viento	0
90095	7	Sololá	717	San Juan la Laguna	12	San Juan la Laguna	11	Noviembre	2023-11-19T00:00:00	2024-11-08T15:00:00	1	Precipitación	0
90096	7	Sololá	717	San Juan la Laguna	12	San Juan la Laguna	11	Noviembre	2023-11-19T00:00:00	2024-11-08T15:00:00	8	Radiación solar	154
90097	7	Sololá	717	San Juan la Laguna	12	San Juan la Laguna	11	Noviembre	2023-11-19T00:00:00	2024-11-08T16:00:00	2	Temperatura media	19.1
90098	7	Sololá	717	San Juan la Laguna	12	San Juan la Laguna	11	Noviembre	2023-11-19T00:00:00	2024-11-08T16:00:00	4	Temperatura máxima	19.7
90099	7	Sololá	717	San Juan la Laguna	12	San Juan la Laguna	11	Noviembre	2023-11-19T00:00:00	2024-11-08T16:00:00	3	Temperatura mínima	19.1
90100	7	Sololá	717	San Juan la Laguna	12	San Juan la Laguna	11	Noviembre	2023-11-19T00:00:00	2024-11-08T16:00:00	5	Humedad	84
90101	7	Sololá	717	San Juan la Laguna	12	San Juan la Laguna	11	Noviembre	2023-11-19T00:00:00	2024-11-08T16:00:00	6	Velocidad del viento	0
90102	7	Sololá	717	San Juan la Laguna	12	San Juan la Laguna	11	Noviembre	2023-11-19T00:00:00	2024-11-08T16:00:00	7	Dirección del viento	0
90103	7	Sololá	717	San Juan la Laguna	12	San Juan la Laguna	11	Noviembre	2023-11-19T00:00:00	2024-11-08T16:00:00	1	Precipitación	0
90104	7	Sololá	717	San Juan la Laguna	12	San Juan la Laguna	11	Noviembre	2023-11-19T00:00:00	2024-11-08T16:00:00	8	Radiación solar	108
90105	7	Sololá	717	San Juan la Laguna	12	San Juan la Laguna	11	Noviembre	2023-11-19T00:00:00	2024-11-08T17:00:00	2	Temperatura media	18.9
90106	7	Sololá	717	San Juan la Laguna	12	San Juan la Laguna	11	Noviembre	2023-11-19T00:00:00	2024-11-08T17:00:00	4	Temperatura máxima	19.1
90107	7	Sololá	717	San Juan la Laguna	12	San Juan la Laguna	11	Noviembre	2023-11-19T00:00:00	2024-11-08T17:00:00	3	Temperatura mínima	18.7
90108	7	Sololá	717	San Juan la Laguna	12	San Juan la Laguna	11	Noviembre	2023-11-19T00:00:00	2024-11-08T17:00:00	5	Humedad	83
90109	7	Sololá	717	San Juan la Laguna	12	San Juan la Laguna	11	Noviembre	2023-11-19T00:00:00	2024-11-08T17:00:00	6	Velocidad del viento	0
90110	7	Sololá	717	San Juan la Laguna	12	San Juan la Laguna	11	Noviembre	2023-11-19T00:00:00	2024-11-08T17:00:00	7	Dirección del viento	0
90111	7	Sololá	717	San Juan la Laguna	12	San Juan la Laguna	11	Noviembre	2023-11-19T00:00:00	2024-11-08T17:00:00	1	Precipitación	0
90112	7	Sololá	717	San Juan la Laguna	12	San Juan la Laguna	11	Noviembre	2023-11-19T00:00:00	2024-11-08T17:00:00	8	Radiación solar	47
90113	7	Sololá	717	San Juan la Laguna	12	San Juan la Laguna	11	Noviembre	2023-11-19T00:00:00	2024-11-08T18:00:00	2	Temperatura media	18.7
90114	7	Sololá	717	San Juan la Laguna	12	San Juan la Laguna	11	Noviembre	2023-11-19T00:00:00	2024-11-08T18:00:00	4	Temperatura máxima	19
90115	7	Sololá	717	San Juan la Laguna	12	San Juan la Laguna	11	Noviembre	2023-11-19T00:00:00	2024-11-08T18:00:00	3	Temperatura mínima	18.6
90116	7	Sololá	717	San Juan la Laguna	12	San Juan la Laguna	11	Noviembre	2023-11-19T00:00:00	2024-11-08T18:00:00	5	Humedad	83
90117	7	Sololá	717	San Juan la Laguna	12	San Juan la Laguna	11	Noviembre	2023-11-19T00:00:00	2024-11-08T18:00:00	6	Velocidad del viento	0
90118	7	Sololá	717	San Juan la Laguna	12	San Juan la Laguna	11	Noviembre	2023-11-19T00:00:00	2024-11-08T18:00:00	7	Dirección del viento	0
90119	7	Sololá	717	San Juan la Laguna	12	San Juan la Laguna	11	Noviembre	2023-11-19T00:00:00	2024-11-08T18:00:00	1	Precipitación	0
90120	7	Sololá	717	San Juan la Laguna	12	San Juan la Laguna	11	Noviembre	2023-11-19T00:00:00	2024-11-08T18:00:00	8	Radiación solar	4
90121	7	Sololá	717	San Juan la Laguna	12	San Juan la Laguna	11	Noviembre	2023-11-19T00:00:00	2024-11-08T19:00:00	2	Temperatura media	18.3
90122	7	Sololá	717	San Juan la Laguna	12	San Juan la Laguna	11	Noviembre	2023-11-19T00:00:00	2024-11-08T19:00:00	4	Temperatura máxima	18.6
90123	7	Sololá	717	San Juan la Laguna	12	San Juan la Laguna	11	Noviembre	2023-11-19T00:00:00	2024-11-08T19:00:00	3	Temperatura mínima	18.3
90124	7	Sololá	717	San Juan la Laguna	12	San Juan la Laguna	11	Noviembre	2023-11-19T00:00:00	2024-11-08T19:00:00	5	Humedad	84
90125	7	Sololá	717	San Juan la Laguna	12	San Juan la Laguna	11	Noviembre	2023-11-19T00:00:00	2024-11-08T19:00:00	6	Velocidad del viento	0
90126	7	Sololá	717	San Juan la Laguna	12	San Juan la Laguna	11	Noviembre	2023-11-19T00:00:00	2024-11-08T19:00:00	7	Dirección del viento	0
90127	7	Sololá	717	San Juan la Laguna	12	San Juan la Laguna	11	Noviembre	2023-11-19T00:00:00	2024-11-08T19:00:00	1	Precipitación	0
90128	7	Sololá	717	San Juan la Laguna	12	San Juan la Laguna	11	Noviembre	2023-11-19T00:00:00	2024-11-08T19:00:00	8	Radiación solar	0
90129	7	Sololá	717	San Juan la Laguna	12	San Juan la Laguna	11	Noviembre	2023-11-19T00:00:00	2024-11-08T20:00:00	2	Temperatura media	18.3
90130	7	Sololá	717	San Juan la Laguna	12	San Juan la Laguna	11	Noviembre	2023-11-19T00:00:00	2024-11-08T20:00:00	4	Temperatura máxima	18.4
90131	7	Sololá	717	San Juan la Laguna	12	San Juan la Laguna	11	Noviembre	2023-11-19T00:00:00	2024-11-08T20:00:00	3	Temperatura mínima	18.3
90132	7	Sololá	717	San Juan la Laguna	12	San Juan la Laguna	11	Noviembre	2023-11-19T00:00:00	2024-11-08T20:00:00	5	Humedad	84
90133	7	Sololá	717	San Juan la Laguna	12	San Juan la Laguna	11	Noviembre	2023-11-19T00:00:00	2024-11-08T20:00:00	6	Velocidad del viento	0
90134	7	Sololá	717	San Juan la Laguna	12	San Juan la Laguna	11	Noviembre	2023-11-19T00:00:00	2024-11-08T20:00:00	7	Dirección del viento	0
90135	7	Sololá	717	San Juan la Laguna	12	San Juan la Laguna	11	Noviembre	2023-11-19T00:00:00	2024-11-08T20:00:00	1	Precipitación	0
90136	7	Sololá	717	San Juan la Laguna	12	San Juan la Laguna	11	Noviembre	2023-11-19T00:00:00	2024-11-08T20:00:00	8	Radiación solar	0
90137	7	Sololá	717	San Juan la Laguna	12	San Juan la Laguna	11	Noviembre	2023-11-19T00:00:00	2024-11-08T21:00:00	2	Temperatura media	18.3
90138	7	Sololá	717	San Juan la Laguna	12	San Juan la Laguna	11	Noviembre	2023-11-19T00:00:00	2024-11-08T21:00:00	4	Temperatura máxima	18.3
90139	7	Sololá	717	San Juan la Laguna	12	San Juan la Laguna	11	Noviembre	2023-11-19T00:00:00	2024-11-08T21:00:00	3	Temperatura mínima	18.2
90140	7	Sololá	717	San Juan la Laguna	12	San Juan la Laguna	11	Noviembre	2023-11-19T00:00:00	2024-11-08T21:00:00	5	Humedad	85
90141	7	Sololá	717	San Juan la Laguna	12	San Juan la Laguna	11	Noviembre	2023-11-19T00:00:00	2024-11-08T21:00:00	6	Velocidad del viento	0
90142	7	Sololá	717	San Juan la Laguna	12	San Juan la Laguna	11	Noviembre	2023-11-19T00:00:00	2024-11-08T21:00:00	7	Dirección del viento	0
90143	7	Sololá	717	San Juan la Laguna	12	San Juan la Laguna	11	Noviembre	2023-11-19T00:00:00	2024-11-08T21:00:00	1	Precipitación	0
90144	7	Sololá	717	San Juan la Laguna	12	San Juan la Laguna	11	Noviembre	2023-11-19T00:00:00	2024-11-08T21:00:00	8	Radiación solar	0
90145	7	Sololá	717	San Juan la Laguna	12	San Juan la Laguna	11	Noviembre	2023-11-19T00:00:00	2024-11-08T22:00:00	2	Temperatura media	17.6
90146	7	Sololá	717	San Juan la Laguna	12	San Juan la Laguna	11	Noviembre	2023-11-19T00:00:00	2024-11-08T22:00:00	4	Temperatura máxima	18.3
90147	7	Sololá	717	San Juan la Laguna	12	San Juan la Laguna	11	Noviembre	2023-11-19T00:00:00	2024-11-08T22:00:00	3	Temperatura mínima	17.6
90148	7	Sololá	717	San Juan la Laguna	12	San Juan la Laguna	11	Noviembre	2023-11-19T00:00:00	2024-11-08T22:00:00	5	Humedad	86
90149	7	Sololá	717	San Juan la Laguna	12	San Juan la Laguna	11	Noviembre	2023-11-19T00:00:00	2024-11-08T22:00:00	6	Velocidad del viento	0
90150	7	Sololá	717	San Juan la Laguna	12	San Juan la Laguna	11	Noviembre	2023-11-19T00:00:00	2024-11-08T22:00:00	7	Dirección del viento	0
90151	7	Sololá	717	San Juan la Laguna	12	San Juan la Laguna	11	Noviembre	2023-11-19T00:00:00	2024-11-08T22:00:00	1	Precipitación	0
90152	7	Sololá	717	San Juan la Laguna	12	San Juan la Laguna	11	Noviembre	2023-11-19T00:00:00	2024-11-08T22:00:00	8	Radiación solar	0
90153	7	Sololá	717	San Juan la Laguna	12	San Juan la Laguna	11	Noviembre	2023-11-19T00:00:00	2024-11-08T23:00:00	2	Temperatura media	17.2
90154	7	Sololá	717	San Juan la Laguna	12	San Juan la Laguna	11	Noviembre	2023-11-19T00:00:00	2024-11-08T23:00:00	4	Temperatura máxima	17.6
90155	7	Sololá	717	San Juan la Laguna	12	San Juan la Laguna	11	Noviembre	2023-11-19T00:00:00	2024-11-08T23:00:00	3	Temperatura mínima	17.2
90156	7	Sololá	717	San Juan la Laguna	12	San Juan la Laguna	11	Noviembre	2023-11-19T00:00:00	2024-11-08T23:00:00	5	Humedad	85
90157	7	Sololá	717	San Juan la Laguna	12	San Juan la Laguna	11	Noviembre	2023-11-19T00:00:00	2024-11-08T23:00:00	6	Velocidad del viento	0
90158	7	Sololá	717	San Juan la Laguna	12	San Juan la Laguna	11	Noviembre	2023-11-19T00:00:00	2024-11-08T23:00:00	7	Dirección del viento	0
90159	7	Sololá	717	San Juan la Laguna	12	San Juan la Laguna	11	Noviembre	2023-11-19T00:00:00	2024-11-08T23:00:00	1	Precipitación	0
90160	7	Sololá	717	San Juan la Laguna	12	San Juan la Laguna	11	Noviembre	2023-11-19T00:00:00	2024-11-08T23:00:00	8	Radiación solar	0
90161	7	Sololá	717	San Juan la Laguna	12	San Juan la Laguna	11	Noviembre	2023-11-20T00:00:00	2024-11-08T00:00:00	2	Temperatura media	17.2
90162	7	Sololá	717	San Juan la Laguna	12	San Juan la Laguna	11	Noviembre	2023-11-20T00:00:00	2024-11-08T00:00:00	4	Temperatura máxima	17.4
90163	7	Sololá	717	San Juan la Laguna	12	San Juan la Laguna	11	Noviembre	2023-11-20T00:00:00	2024-11-08T00:00:00	3	Temperatura mínima	17.2
90164	7	Sololá	717	San Juan la Laguna	12	San Juan la Laguna	11	Noviembre	2023-11-20T00:00:00	2024-11-08T00:00:00	5	Humedad	83
90165	7	Sololá	717	San Juan la Laguna	12	San Juan la Laguna	11	Noviembre	2023-11-20T00:00:00	2024-11-08T00:00:00	6	Velocidad del viento	0
90166	7	Sololá	717	San Juan la Laguna	12	San Juan la Laguna	11	Noviembre	2023-11-20T00:00:00	2024-11-08T00:00:00	7	Dirección del viento	0
90167	7	Sololá	717	San Juan la Laguna	12	San Juan la Laguna	11	Noviembre	2023-11-20T00:00:00	2024-11-08T00:00:00	1	Precipitación	0
90168	7	Sololá	717	San Juan la Laguna	12	San Juan la Laguna	11	Noviembre	2023-11-20T00:00:00	2024-11-08T00:00:00	8	Radiación solar	0
90169	7	Sololá	717	San Juan la Laguna	12	San Juan la Laguna	11	Noviembre	2023-11-20T00:00:00	2024-11-08T01:00:00	2	Temperatura media	17.1
90170	7	Sololá	717	San Juan la Laguna	12	San Juan la Laguna	11	Noviembre	2023-11-20T00:00:00	2024-11-08T01:00:00	4	Temperatura máxima	17.3
90171	7	Sololá	717	San Juan la Laguna	12	San Juan la Laguna	11	Noviembre	2023-11-20T00:00:00	2024-11-08T01:00:00	3	Temperatura mínima	17.1
90172	7	Sololá	717	San Juan la Laguna	12	San Juan la Laguna	11	Noviembre	2023-11-20T00:00:00	2024-11-08T01:00:00	5	Humedad	82
90173	7	Sololá	717	San Juan la Laguna	12	San Juan la Laguna	11	Noviembre	2023-11-20T00:00:00	2024-11-08T01:00:00	6	Velocidad del viento	0
90174	7	Sololá	717	San Juan la Laguna	12	San Juan la Laguna	11	Noviembre	2023-11-20T00:00:00	2024-11-08T01:00:00	7	Dirección del viento	0
90175	7	Sololá	717	San Juan la Laguna	12	San Juan la Laguna	11	Noviembre	2023-11-20T00:00:00	2024-11-08T01:00:00	1	Precipitación	0
90176	7	Sololá	717	San Juan la Laguna	12	San Juan la Laguna	11	Noviembre	2023-11-20T00:00:00	2024-11-08T01:00:00	8	Radiación solar	0
90177	7	Sololá	717	San Juan la Laguna	12	San Juan la Laguna	11	Noviembre	2023-11-20T00:00:00	2024-11-08T02:00:00	2	Temperatura media	16.4
90178	7	Sololá	717	San Juan la Laguna	12	San Juan la Laguna	11	Noviembre	2023-11-20T00:00:00	2024-11-08T02:00:00	4	Temperatura máxima	17.2
90179	7	Sololá	717	San Juan la Laguna	12	San Juan la Laguna	11	Noviembre	2023-11-20T00:00:00	2024-11-08T02:00:00	3	Temperatura mínima	16.4
90180	7	Sololá	717	San Juan la Laguna	12	San Juan la Laguna	11	Noviembre	2023-11-20T00:00:00	2024-11-08T02:00:00	5	Humedad	82
90181	7	Sololá	717	San Juan la Laguna	12	San Juan la Laguna	11	Noviembre	2023-11-20T00:00:00	2024-11-08T02:00:00	6	Velocidad del viento	0
90182	7	Sololá	717	San Juan la Laguna	12	San Juan la Laguna	11	Noviembre	2023-11-20T00:00:00	2024-11-08T02:00:00	7	Dirección del viento	0
90183	7	Sololá	717	San Juan la Laguna	12	San Juan la Laguna	11	Noviembre	2023-11-20T00:00:00	2024-11-08T02:00:00	1	Precipitación	0
90184	7	Sololá	717	San Juan la Laguna	12	San Juan la Laguna	11	Noviembre	2023-11-20T00:00:00	2024-11-08T02:00:00	8	Radiación solar	0
90185	7	Sololá	717	San Juan la Laguna	12	San Juan la Laguna	11	Noviembre	2023-11-20T00:00:00	2024-11-08T03:00:00	2	Temperatura media	15
90186	7	Sololá	717	San Juan la Laguna	12	San Juan la Laguna	11	Noviembre	2023-11-20T00:00:00	2024-11-08T03:00:00	4	Temperatura máxima	16.4
90187	7	Sololá	717	San Juan la Laguna	12	San Juan la Laguna	11	Noviembre	2023-11-20T00:00:00	2024-11-08T03:00:00	3	Temperatura mínima	15
90188	7	Sololá	717	San Juan la Laguna	12	San Juan la Laguna	11	Noviembre	2023-11-20T00:00:00	2024-11-08T03:00:00	5	Humedad	84
90189	7	Sololá	717	San Juan la Laguna	12	San Juan la Laguna	11	Noviembre	2023-11-20T00:00:00	2024-11-08T03:00:00	6	Velocidad del viento	0
90190	7	Sololá	717	San Juan la Laguna	12	San Juan la Laguna	11	Noviembre	2023-11-20T00:00:00	2024-11-08T03:00:00	7	Dirección del viento	0
90191	7	Sololá	717	San Juan la Laguna	12	San Juan la Laguna	11	Noviembre	2023-11-20T00:00:00	2024-11-08T03:00:00	1	Precipitación	0
90192	7	Sololá	717	San Juan la Laguna	12	San Juan la Laguna	11	Noviembre	2023-11-20T00:00:00	2024-11-08T03:00:00	8	Radiación solar	0
90193	7	Sololá	717	San Juan la Laguna	12	San Juan la Laguna	11	Noviembre	2023-11-20T00:00:00	2024-11-08T04:00:00	2	Temperatura media	14.2
90194	7	Sololá	717	San Juan la Laguna	12	San Juan la Laguna	11	Noviembre	2023-11-20T00:00:00	2024-11-08T04:00:00	4	Temperatura máxima	15
90195	7	Sololá	717	San Juan la Laguna	12	San Juan la Laguna	11	Noviembre	2023-11-20T00:00:00	2024-11-08T04:00:00	3	Temperatura mínima	14.2
90196	7	Sololá	717	San Juan la Laguna	12	San Juan la Laguna	11	Noviembre	2023-11-20T00:00:00	2024-11-08T04:00:00	5	Humedad	86
90197	7	Sololá	717	San Juan la Laguna	12	San Juan la Laguna	11	Noviembre	2023-11-20T00:00:00	2024-11-08T04:00:00	6	Velocidad del viento	0
90198	7	Sololá	717	San Juan la Laguna	12	San Juan la Laguna	11	Noviembre	2023-11-20T00:00:00	2024-11-08T04:00:00	7	Dirección del viento	0
90199	7	Sololá	717	San Juan la Laguna	12	San Juan la Laguna	11	Noviembre	2023-11-20T00:00:00	2024-11-08T04:00:00	1	Precipitación	0
90200	7	Sololá	717	San Juan la Laguna	12	San Juan la Laguna	11	Noviembre	2023-11-20T00:00:00	2024-11-08T04:00:00	8	Radiación solar	0
90201	7	Sololá	717	San Juan la Laguna	12	San Juan la Laguna	11	Noviembre	2023-11-20T00:00:00	2024-11-08T05:00:00	2	Temperatura media	13.6
90202	7	Sololá	717	San Juan la Laguna	12	San Juan la Laguna	11	Noviembre	2023-11-20T00:00:00	2024-11-08T05:00:00	4	Temperatura máxima	14.2
90203	7	Sololá	717	San Juan la Laguna	12	San Juan la Laguna	11	Noviembre	2023-11-20T00:00:00	2024-11-08T05:00:00	3	Temperatura mínima	13.6
90204	7	Sololá	717	San Juan la Laguna	12	San Juan la Laguna	11	Noviembre	2023-11-20T00:00:00	2024-11-08T05:00:00	5	Humedad	87
90205	7	Sololá	717	San Juan la Laguna	12	San Juan la Laguna	11	Noviembre	2023-11-20T00:00:00	2024-11-08T05:00:00	6	Velocidad del viento	0
90206	7	Sololá	717	San Juan la Laguna	12	San Juan la Laguna	11	Noviembre	2023-11-20T00:00:00	2024-11-08T05:00:00	7	Dirección del viento	0
90207	7	Sololá	717	San Juan la Laguna	12	San Juan la Laguna	11	Noviembre	2023-11-20T00:00:00	2024-11-08T05:00:00	1	Precipitación	0
90208	7	Sololá	717	San Juan la Laguna	12	San Juan la Laguna	11	Noviembre	2023-11-20T00:00:00	2024-11-08T05:00:00	8	Radiación solar	0
90209	7	Sololá	717	San Juan la Laguna	12	San Juan la Laguna	11	Noviembre	2023-11-20T00:00:00	2024-11-08T06:00:00	2	Temperatura media	13.2
90210	7	Sololá	717	San Juan la Laguna	12	San Juan la Laguna	11	Noviembre	2023-11-20T00:00:00	2024-11-08T06:00:00	4	Temperatura máxima	13.6
90211	7	Sololá	717	San Juan la Laguna	12	San Juan la Laguna	11	Noviembre	2023-11-20T00:00:00	2024-11-08T06:00:00	3	Temperatura mínima	13.2
90212	7	Sololá	717	San Juan la Laguna	12	San Juan la Laguna	11	Noviembre	2023-11-20T00:00:00	2024-11-08T06:00:00	5	Humedad	86
90213	7	Sololá	717	San Juan la Laguna	12	San Juan la Laguna	11	Noviembre	2023-11-20T00:00:00	2024-11-08T06:00:00	6	Velocidad del viento	0
90214	7	Sololá	717	San Juan la Laguna	12	San Juan la Laguna	11	Noviembre	2023-11-20T00:00:00	2024-11-08T06:00:00	7	Dirección del viento	0
90215	7	Sololá	717	San Juan la Laguna	12	San Juan la Laguna	11	Noviembre	2023-11-20T00:00:00	2024-11-08T06:00:00	1	Precipitación	0
90216	7	Sololá	717	San Juan la Laguna	12	San Juan la Laguna	11	Noviembre	2023-11-20T00:00:00	2024-11-08T06:00:00	8	Radiación solar	0
90217	7	Sololá	717	San Juan la Laguna	12	San Juan la Laguna	11	Noviembre	2023-11-20T00:00:00	2024-11-08T07:00:00	2	Temperatura media	13.6
90218	7	Sololá	717	San Juan la Laguna	12	San Juan la Laguna	11	Noviembre	2023-11-20T00:00:00	2024-11-08T07:00:00	4	Temperatura máxima	13.6
90219	7	Sololá	717	San Juan la Laguna	12	San Juan la Laguna	11	Noviembre	2023-11-20T00:00:00	2024-11-08T07:00:00	3	Temperatura mínima	13.1
90220	7	Sololá	717	San Juan la Laguna	12	San Juan la Laguna	11	Noviembre	2023-11-20T00:00:00	2024-11-08T07:00:00	5	Humedad	86
90221	7	Sololá	717	San Juan la Laguna	12	San Juan la Laguna	11	Noviembre	2023-11-20T00:00:00	2024-11-08T07:00:00	6	Velocidad del viento	0
90222	7	Sololá	717	San Juan la Laguna	12	San Juan la Laguna	11	Noviembre	2023-11-20T00:00:00	2024-11-08T07:00:00	7	Dirección del viento	0
90223	7	Sololá	717	San Juan la Laguna	12	San Juan la Laguna	11	Noviembre	2023-11-20T00:00:00	2024-11-08T07:00:00	1	Precipitación	0
90224	7	Sololá	717	San Juan la Laguna	12	San Juan la Laguna	11	Noviembre	2023-11-20T00:00:00	2024-11-08T07:00:00	8	Radiación solar	31
90225	7	Sololá	717	San Juan la Laguna	12	San Juan la Laguna	11	Noviembre	2023-11-20T00:00:00	2024-11-08T08:00:00	2	Temperatura media	17.2
90226	7	Sololá	717	San Juan la Laguna	12	San Juan la Laguna	11	Noviembre	2023-11-20T00:00:00	2024-11-08T08:00:00	4	Temperatura máxima	17.2
90227	7	Sololá	717	San Juan la Laguna	12	San Juan la Laguna	11	Noviembre	2023-11-20T00:00:00	2024-11-08T08:00:00	3	Temperatura mínima	13.6
90228	7	Sololá	717	San Juan la Laguna	12	San Juan la Laguna	11	Noviembre	2023-11-20T00:00:00	2024-11-08T08:00:00	5	Humedad	79
90229	7	Sololá	717	San Juan la Laguna	12	San Juan la Laguna	11	Noviembre	2023-11-20T00:00:00	2024-11-08T08:00:00	6	Velocidad del viento	0
90230	7	Sololá	717	San Juan la Laguna	12	San Juan la Laguna	11	Noviembre	2023-11-20T00:00:00	2024-11-08T08:00:00	7	Dirección del viento	0
90231	7	Sololá	717	San Juan la Laguna	12	San Juan la Laguna	11	Noviembre	2023-11-20T00:00:00	2024-11-08T08:00:00	1	Precipitación	0
90232	7	Sololá	717	San Juan la Laguna	12	San Juan la Laguna	11	Noviembre	2023-11-20T00:00:00	2024-11-08T08:00:00	8	Radiación solar	211
90233	7	Sololá	717	San Juan la Laguna	12	San Juan la Laguna	11	Noviembre	2023-11-20T00:00:00	2024-11-08T09:00:00	2	Temperatura media	19.3
90234	7	Sololá	717	San Juan la Laguna	12	San Juan la Laguna	11	Noviembre	2023-11-20T00:00:00	2024-11-08T09:00:00	4	Temperatura máxima	19.5
90235	7	Sololá	717	San Juan la Laguna	12	San Juan la Laguna	11	Noviembre	2023-11-20T00:00:00	2024-11-08T09:00:00	3	Temperatura mínima	17.2
90236	7	Sololá	717	San Juan la Laguna	12	San Juan la Laguna	11	Noviembre	2023-11-20T00:00:00	2024-11-08T09:00:00	5	Humedad	74
90237	7	Sololá	717	San Juan la Laguna	12	San Juan la Laguna	11	Noviembre	2023-11-20T00:00:00	2024-11-08T09:00:00	6	Velocidad del viento	0
90238	7	Sololá	717	San Juan la Laguna	12	San Juan la Laguna	11	Noviembre	2023-11-20T00:00:00	2024-11-08T09:00:00	7	Dirección del viento	0
90239	7	Sololá	717	San Juan la Laguna	12	San Juan la Laguna	11	Noviembre	2023-11-20T00:00:00	2024-11-08T09:00:00	1	Precipitación	0
90240	7	Sololá	717	San Juan la Laguna	12	San Juan la Laguna	11	Noviembre	2023-11-20T00:00:00	2024-11-08T09:00:00	8	Radiación solar	420
90241	7	Sololá	717	San Juan la Laguna	12	San Juan la Laguna	11	Noviembre	2023-11-20T00:00:00	2024-11-08T10:00:00	2	Temperatura media	19.9
90242	7	Sololá	717	San Juan la Laguna	12	San Juan la Laguna	11	Noviembre	2023-11-20T00:00:00	2024-11-08T10:00:00	4	Temperatura máxima	20.3
90243	7	Sololá	717	San Juan la Laguna	12	San Juan la Laguna	11	Noviembre	2023-11-20T00:00:00	2024-11-08T10:00:00	3	Temperatura mínima	19
90244	7	Sololá	717	San Juan la Laguna	12	San Juan la Laguna	11	Noviembre	2023-11-20T00:00:00	2024-11-08T10:00:00	5	Humedad	74
90245	7	Sololá	717	San Juan la Laguna	12	San Juan la Laguna	11	Noviembre	2023-11-20T00:00:00	2024-11-08T10:00:00	6	Velocidad del viento	0
90246	7	Sololá	717	San Juan la Laguna	12	San Juan la Laguna	11	Noviembre	2023-11-20T00:00:00	2024-11-08T10:00:00	7	Dirección del viento	0
90247	7	Sololá	717	San Juan la Laguna	12	San Juan la Laguna	11	Noviembre	2023-11-20T00:00:00	2024-11-08T10:00:00	1	Precipitación	0
90248	7	Sololá	717	San Juan la Laguna	12	San Juan la Laguna	11	Noviembre	2023-11-20T00:00:00	2024-11-08T10:00:00	8	Radiación solar	594
90249	7	Sololá	717	San Juan la Laguna	12	San Juan la Laguna	11	Noviembre	2023-11-20T00:00:00	2024-11-08T11:00:00	2	Temperatura media	21.4
90250	7	Sololá	717	San Juan la Laguna	12	San Juan la Laguna	11	Noviembre	2023-11-20T00:00:00	2024-11-08T11:00:00	4	Temperatura máxima	21.4
90251	7	Sololá	717	San Juan la Laguna	12	San Juan la Laguna	11	Noviembre	2023-11-20T00:00:00	2024-11-08T11:00:00	3	Temperatura mínima	19.7
90252	7	Sololá	717	San Juan la Laguna	12	San Juan la Laguna	11	Noviembre	2023-11-20T00:00:00	2024-11-08T11:00:00	5	Humedad	67
90253	7	Sololá	717	San Juan la Laguna	12	San Juan la Laguna	11	Noviembre	2023-11-20T00:00:00	2024-11-08T11:00:00	6	Velocidad del viento	0
90254	7	Sololá	717	San Juan la Laguna	12	San Juan la Laguna	11	Noviembre	2023-11-20T00:00:00	2024-11-08T11:00:00	7	Dirección del viento	0
90255	7	Sololá	717	San Juan la Laguna	12	San Juan la Laguna	11	Noviembre	2023-11-20T00:00:00	2024-11-08T11:00:00	1	Precipitación	0
90256	7	Sololá	717	San Juan la Laguna	12	San Juan la Laguna	11	Noviembre	2023-11-20T00:00:00	2024-11-08T11:00:00	8	Radiación solar	613
90257	7	Sololá	717	San Juan la Laguna	12	San Juan la Laguna	11	Noviembre	2023-11-20T00:00:00	2024-11-08T12:00:00	2	Temperatura media	21.7
90258	7	Sololá	717	San Juan la Laguna	12	San Juan la Laguna	11	Noviembre	2023-11-20T00:00:00	2024-11-08T12:00:00	4	Temperatura máxima	21.7
90259	7	Sololá	717	San Juan la Laguna	12	San Juan la Laguna	11	Noviembre	2023-11-20T00:00:00	2024-11-08T12:00:00	3	Temperatura mínima	21.1
90260	7	Sololá	717	San Juan la Laguna	12	San Juan la Laguna	11	Noviembre	2023-11-20T00:00:00	2024-11-08T12:00:00	5	Humedad	70
90261	7	Sololá	717	San Juan la Laguna	12	San Juan la Laguna	11	Noviembre	2023-11-20T00:00:00	2024-11-08T12:00:00	6	Velocidad del viento	0
90262	7	Sololá	717	San Juan la Laguna	12	San Juan la Laguna	11	Noviembre	2023-11-20T00:00:00	2024-11-08T12:00:00	7	Dirección del viento	0
90263	7	Sololá	717	San Juan la Laguna	12	San Juan la Laguna	11	Noviembre	2023-11-20T00:00:00	2024-11-08T12:00:00	1	Precipitación	0
90264	7	Sololá	717	San Juan la Laguna	12	San Juan la Laguna	11	Noviembre	2023-11-20T00:00:00	2024-11-08T12:00:00	8	Radiación solar	773
90265	7	Sololá	717	San Juan la Laguna	12	San Juan la Laguna	11	Noviembre	2023-11-20T00:00:00	2024-11-08T13:00:00	2	Temperatura media	21.8
90266	7	Sololá	717	San Juan la Laguna	12	San Juan la Laguna	11	Noviembre	2023-11-20T00:00:00	2024-11-08T13:00:00	4	Temperatura máxima	22.3
90267	7	Sololá	717	San Juan la Laguna	12	San Juan la Laguna	11	Noviembre	2023-11-20T00:00:00	2024-11-08T13:00:00	3	Temperatura mínima	21.5
90268	7	Sololá	717	San Juan la Laguna	12	San Juan la Laguna	11	Noviembre	2023-11-20T00:00:00	2024-11-08T13:00:00	5	Humedad	70
90269	7	Sololá	717	San Juan la Laguna	12	San Juan la Laguna	11	Noviembre	2023-11-20T00:00:00	2024-11-08T13:00:00	6	Velocidad del viento	0
90270	7	Sololá	717	San Juan la Laguna	12	San Juan la Laguna	11	Noviembre	2023-11-20T00:00:00	2024-11-08T13:00:00	7	Dirección del viento	0
90271	7	Sololá	717	San Juan la Laguna	12	San Juan la Laguna	11	Noviembre	2023-11-20T00:00:00	2024-11-08T13:00:00	1	Precipitación	0
90272	7	Sololá	717	San Juan la Laguna	12	San Juan la Laguna	11	Noviembre	2023-11-20T00:00:00	2024-11-08T13:00:00	8	Radiación solar	713
90273	7	Sololá	717	San Juan la Laguna	12	San Juan la Laguna	11	Noviembre	2023-11-20T00:00:00	2024-11-08T14:00:00	2	Temperatura media	22.4
90274	7	Sololá	717	San Juan la Laguna	12	San Juan la Laguna	11	Noviembre	2023-11-20T00:00:00	2024-11-08T14:00:00	4	Temperatura máxima	23
90275	7	Sololá	717	San Juan la Laguna	12	San Juan la Laguna	11	Noviembre	2023-11-20T00:00:00	2024-11-08T14:00:00	3	Temperatura mínima	21.8
90276	7	Sololá	717	San Juan la Laguna	12	San Juan la Laguna	11	Noviembre	2023-11-20T00:00:00	2024-11-08T14:00:00	5	Humedad	68
90277	7	Sololá	717	San Juan la Laguna	12	San Juan la Laguna	11	Noviembre	2023-11-20T00:00:00	2024-11-08T14:00:00	6	Velocidad del viento	1.6
90278	7	Sololá	717	San Juan la Laguna	12	San Juan la Laguna	11	Noviembre	2023-11-20T00:00:00	2024-11-08T14:00:00	7	Dirección del viento	1.61
90279	7	Sololá	717	San Juan la Laguna	12	San Juan la Laguna	11	Noviembre	2023-11-20T00:00:00	2024-11-08T14:00:00	1	Precipitación	0
90280	7	Sololá	717	San Juan la Laguna	12	San Juan la Laguna	11	Noviembre	2023-11-20T00:00:00	2024-11-08T14:00:00	8	Radiación solar	760
90281	7	Sololá	717	San Juan la Laguna	12	San Juan la Laguna	11	Noviembre	2023-11-20T00:00:00	2024-11-08T15:00:00	2	Temperatura media	21
90282	7	Sololá	717	San Juan la Laguna	12	San Juan la Laguna	11	Noviembre	2023-11-20T00:00:00	2024-11-08T15:00:00	4	Temperatura máxima	22.5
90283	7	Sololá	717	San Juan la Laguna	12	San Juan la Laguna	11	Noviembre	2023-11-20T00:00:00	2024-11-08T15:00:00	3	Temperatura mínima	21
90284	7	Sololá	717	San Juan la Laguna	12	San Juan la Laguna	11	Noviembre	2023-11-20T00:00:00	2024-11-08T15:00:00	5	Humedad	75
90285	7	Sololá	717	San Juan la Laguna	12	San Juan la Laguna	11	Noviembre	2023-11-20T00:00:00	2024-11-08T15:00:00	6	Velocidad del viento	3.2
90286	7	Sololá	717	San Juan la Laguna	12	San Juan la Laguna	11	Noviembre	2023-11-20T00:00:00	2024-11-08T15:00:00	7	Dirección del viento	3.22
90287	7	Sololá	717	San Juan la Laguna	12	San Juan la Laguna	11	Noviembre	2023-11-20T00:00:00	2024-11-08T15:00:00	1	Precipitación	0
90288	7	Sololá	717	San Juan la Laguna	12	San Juan la Laguna	11	Noviembre	2023-11-20T00:00:00	2024-11-08T15:00:00	8	Radiación solar	443
90289	7	Sololá	717	San Juan la Laguna	12	San Juan la Laguna	11	Noviembre	2023-11-20T00:00:00	2024-11-08T16:00:00	2	Temperatura media	19.2
90290	7	Sololá	717	San Juan la Laguna	12	San Juan la Laguna	11	Noviembre	2023-11-20T00:00:00	2024-11-08T16:00:00	4	Temperatura máxima	20.9
90291	7	Sololá	717	San Juan la Laguna	12	San Juan la Laguna	11	Noviembre	2023-11-20T00:00:00	2024-11-08T16:00:00	3	Temperatura mínima	19.2
90292	7	Sololá	717	San Juan la Laguna	12	San Juan la Laguna	11	Noviembre	2023-11-20T00:00:00	2024-11-08T16:00:00	5	Humedad	83
90293	7	Sololá	717	San Juan la Laguna	12	San Juan la Laguna	11	Noviembre	2023-11-20T00:00:00	2024-11-08T16:00:00	6	Velocidad del viento	1.6
90294	7	Sololá	717	San Juan la Laguna	12	San Juan la Laguna	11	Noviembre	2023-11-20T00:00:00	2024-11-08T16:00:00	7	Dirección del viento	1.61
90295	7	Sololá	717	San Juan la Laguna	12	San Juan la Laguna	11	Noviembre	2023-11-20T00:00:00	2024-11-08T16:00:00	1	Precipitación	0
90296	7	Sololá	717	San Juan la Laguna	12	San Juan la Laguna	11	Noviembre	2023-11-20T00:00:00	2024-11-08T16:00:00	8	Radiación solar	106
90297	7	Sololá	717	San Juan la Laguna	12	San Juan la Laguna	11	Noviembre	2023-11-20T00:00:00	2024-11-08T17:00:00	2	Temperatura media	18.9
90298	7	Sololá	717	San Juan la Laguna	12	San Juan la Laguna	11	Noviembre	2023-11-20T00:00:00	2024-11-08T17:00:00	4	Temperatura máxima	19.2
90299	7	Sololá	717	San Juan la Laguna	12	San Juan la Laguna	11	Noviembre	2023-11-20T00:00:00	2024-11-08T17:00:00	3	Temperatura mínima	18.6
90300	7	Sololá	717	San Juan la Laguna	12	San Juan la Laguna	11	Noviembre	2023-11-20T00:00:00	2024-11-08T17:00:00	5	Humedad	85
90301	7	Sololá	717	San Juan la Laguna	12	San Juan la Laguna	11	Noviembre	2023-11-20T00:00:00	2024-11-08T17:00:00	6	Velocidad del viento	0
90302	7	Sololá	717	San Juan la Laguna	12	San Juan la Laguna	11	Noviembre	2023-11-20T00:00:00	2024-11-08T17:00:00	7	Dirección del viento	0
90303	7	Sololá	717	San Juan la Laguna	12	San Juan la Laguna	11	Noviembre	2023-11-20T00:00:00	2024-11-08T17:00:00	1	Precipitación	0
90304	7	Sololá	717	San Juan la Laguna	12	San Juan la Laguna	11	Noviembre	2023-11-20T00:00:00	2024-11-08T17:00:00	8	Radiación solar	25
90305	7	Sololá	717	San Juan la Laguna	12	San Juan la Laguna	11	Noviembre	2023-11-20T00:00:00	2024-11-08T18:00:00	2	Temperatura media	18.6
90306	7	Sololá	717	San Juan la Laguna	12	San Juan la Laguna	11	Noviembre	2023-11-20T00:00:00	2024-11-08T18:00:00	4	Temperatura máxima	18.9
90307	7	Sololá	717	San Juan la Laguna	12	San Juan la Laguna	11	Noviembre	2023-11-20T00:00:00	2024-11-08T18:00:00	3	Temperatura mínima	18.4
90308	7	Sololá	717	San Juan la Laguna	12	San Juan la Laguna	11	Noviembre	2023-11-20T00:00:00	2024-11-08T18:00:00	5	Humedad	85
90309	7	Sololá	717	San Juan la Laguna	12	San Juan la Laguna	11	Noviembre	2023-11-20T00:00:00	2024-11-08T18:00:00	6	Velocidad del viento	0
90310	7	Sololá	717	San Juan la Laguna	12	San Juan la Laguna	11	Noviembre	2023-11-20T00:00:00	2024-11-08T18:00:00	7	Dirección del viento	0
90311	7	Sololá	717	San Juan la Laguna	12	San Juan la Laguna	11	Noviembre	2023-11-20T00:00:00	2024-11-08T18:00:00	1	Precipitación	0
90312	7	Sololá	717	San Juan la Laguna	12	San Juan la Laguna	11	Noviembre	2023-11-20T00:00:00	2024-11-08T18:00:00	8	Radiación solar	5
90313	7	Sololá	717	San Juan la Laguna	12	San Juan la Laguna	11	Noviembre	2023-11-20T00:00:00	2024-11-08T19:00:00	2	Temperatura media	17.6
90314	7	Sololá	717	San Juan la Laguna	12	San Juan la Laguna	11	Noviembre	2023-11-20T00:00:00	2024-11-08T19:00:00	4	Temperatura máxima	18.9
90315	7	Sololá	717	San Juan la Laguna	12	San Juan la Laguna	11	Noviembre	2023-11-20T00:00:00	2024-11-08T19:00:00	3	Temperatura mínima	17.6
90316	7	Sololá	717	San Juan la Laguna	12	San Juan la Laguna	11	Noviembre	2023-11-20T00:00:00	2024-11-08T19:00:00	5	Humedad	87
90317	7	Sololá	717	San Juan la Laguna	12	San Juan la Laguna	11	Noviembre	2023-11-20T00:00:00	2024-11-08T19:00:00	6	Velocidad del viento	0
90318	7	Sololá	717	San Juan la Laguna	12	San Juan la Laguna	11	Noviembre	2023-11-20T00:00:00	2024-11-08T19:00:00	7	Dirección del viento	0
90319	7	Sololá	717	San Juan la Laguna	12	San Juan la Laguna	11	Noviembre	2023-11-20T00:00:00	2024-11-08T19:00:00	1	Precipitación	0
90320	7	Sololá	717	San Juan la Laguna	12	San Juan la Laguna	11	Noviembre	2023-11-20T00:00:00	2024-11-08T19:00:00	8	Radiación solar	0
90321	7	Sololá	717	San Juan la Laguna	12	San Juan la Laguna	11	Noviembre	2023-11-20T00:00:00	2024-11-08T20:00:00	2	Temperatura media	17.2
90322	7	Sololá	717	San Juan la Laguna	12	San Juan la Laguna	11	Noviembre	2023-11-20T00:00:00	2024-11-08T20:00:00	4	Temperatura máxima	17.6
90323	7	Sololá	717	San Juan la Laguna	12	San Juan la Laguna	11	Noviembre	2023-11-20T00:00:00	2024-11-08T20:00:00	3	Temperatura mínima	16.9
90324	7	Sololá	717	San Juan la Laguna	12	San Juan la Laguna	11	Noviembre	2023-11-20T00:00:00	2024-11-08T20:00:00	5	Humedad	86
90325	7	Sololá	717	San Juan la Laguna	12	San Juan la Laguna	11	Noviembre	2023-11-20T00:00:00	2024-11-08T20:00:00	6	Velocidad del viento	0
90326	7	Sololá	717	San Juan la Laguna	12	San Juan la Laguna	11	Noviembre	2023-11-20T00:00:00	2024-11-08T20:00:00	7	Dirección del viento	0
90327	7	Sololá	717	San Juan la Laguna	12	San Juan la Laguna	11	Noviembre	2023-11-20T00:00:00	2024-11-08T20:00:00	1	Precipitación	0
90328	7	Sololá	717	San Juan la Laguna	12	San Juan la Laguna	11	Noviembre	2023-11-20T00:00:00	2024-11-08T20:00:00	8	Radiación solar	0
90329	7	Sololá	717	San Juan la Laguna	12	San Juan la Laguna	11	Noviembre	2023-11-20T00:00:00	2024-11-08T21:00:00	2	Temperatura media	17.6
90330	7	Sololá	717	San Juan la Laguna	12	San Juan la Laguna	11	Noviembre	2023-11-20T00:00:00	2024-11-08T21:00:00	4	Temperatura máxima	17.8
90331	7	Sololá	717	San Juan la Laguna	12	San Juan la Laguna	11	Noviembre	2023-11-20T00:00:00	2024-11-08T21:00:00	3	Temperatura mínima	17.2
90332	7	Sololá	717	San Juan la Laguna	12	San Juan la Laguna	11	Noviembre	2023-11-20T00:00:00	2024-11-08T21:00:00	5	Humedad	84
90333	7	Sololá	717	San Juan la Laguna	12	San Juan la Laguna	11	Noviembre	2023-11-20T00:00:00	2024-11-08T21:00:00	6	Velocidad del viento	0
90334	7	Sololá	717	San Juan la Laguna	12	San Juan la Laguna	11	Noviembre	2023-11-20T00:00:00	2024-11-08T21:00:00	7	Dirección del viento	0
90335	7	Sololá	717	San Juan la Laguna	12	San Juan la Laguna	11	Noviembre	2023-11-20T00:00:00	2024-11-08T21:00:00	1	Precipitación	0
90336	7	Sololá	717	San Juan la Laguna	12	San Juan la Laguna	11	Noviembre	2023-11-20T00:00:00	2024-11-08T21:00:00	8	Radiación solar	0
90337	7	Sololá	717	San Juan la Laguna	12	San Juan la Laguna	11	Noviembre	2023-11-20T00:00:00	2024-11-08T22:00:00	2	Temperatura media	17.1
90338	7	Sololá	717	San Juan la Laguna	12	San Juan la Laguna	11	Noviembre	2023-11-20T00:00:00	2024-11-08T22:00:00	4	Temperatura máxima	17.6
90339	7	Sololá	717	San Juan la Laguna	12	San Juan la Laguna	11	Noviembre	2023-11-20T00:00:00	2024-11-08T22:00:00	3	Temperatura mínima	17.1
90340	7	Sololá	717	San Juan la Laguna	12	San Juan la Laguna	11	Noviembre	2023-11-20T00:00:00	2024-11-08T22:00:00	5	Humedad	85
90341	7	Sololá	717	San Juan la Laguna	12	San Juan la Laguna	11	Noviembre	2023-11-20T00:00:00	2024-11-08T22:00:00	6	Velocidad del viento	0
90342	7	Sololá	717	San Juan la Laguna	12	San Juan la Laguna	11	Noviembre	2023-11-20T00:00:00	2024-11-08T22:00:00	7	Dirección del viento	0
90343	7	Sololá	717	San Juan la Laguna	12	San Juan la Laguna	11	Noviembre	2023-11-20T00:00:00	2024-11-08T22:00:00	1	Precipitación	0
90344	7	Sololá	717	San Juan la Laguna	12	San Juan la Laguna	11	Noviembre	2023-11-20T00:00:00	2024-11-08T22:00:00	8	Radiación solar	0
90345	7	Sololá	717	San Juan la Laguna	12	San Juan la Laguna	11	Noviembre	2023-11-20T00:00:00	2024-11-08T23:00:00	2	Temperatura media	16.9
90346	7	Sololá	717	San Juan la Laguna	12	San Juan la Laguna	11	Noviembre	2023-11-20T00:00:00	2024-11-08T23:00:00	4	Temperatura máxima	17.3
90347	7	Sololá	717	San Juan la Laguna	12	San Juan la Laguna	11	Noviembre	2023-11-20T00:00:00	2024-11-08T23:00:00	3	Temperatura mínima	16.9
90348	7	Sololá	717	San Juan la Laguna	12	San Juan la Laguna	11	Noviembre	2023-11-20T00:00:00	2024-11-08T23:00:00	5	Humedad	83
90349	7	Sololá	717	San Juan la Laguna	12	San Juan la Laguna	11	Noviembre	2023-11-20T00:00:00	2024-11-08T23:00:00	6	Velocidad del viento	0
90350	7	Sololá	717	San Juan la Laguna	12	San Juan la Laguna	11	Noviembre	2023-11-20T00:00:00	2024-11-08T23:00:00	7	Dirección del viento	0
90351	7	Sololá	717	San Juan la Laguna	12	San Juan la Laguna	11	Noviembre	2023-11-20T00:00:00	2024-11-08T23:00:00	1	Precipitación	0
90352	7	Sololá	717	San Juan la Laguna	12	San Juan la Laguna	11	Noviembre	2023-11-20T00:00:00	2024-11-08T23:00:00	8	Radiación solar	0
90353	7	Sololá	717	San Juan la Laguna	12	San Juan la Laguna	11	Noviembre	2023-11-21T00:00:00	2024-11-08T00:00:00	2	Temperatura media	16.4
90354	7	Sololá	717	San Juan la Laguna	12	San Juan la Laguna	11	Noviembre	2023-11-21T00:00:00	2024-11-08T00:00:00	4	Temperatura máxima	16.9
90355	7	Sololá	717	San Juan la Laguna	12	San Juan la Laguna	11	Noviembre	2023-11-21T00:00:00	2024-11-08T00:00:00	3	Temperatura mínima	16.4
90356	7	Sololá	717	San Juan la Laguna	12	San Juan la Laguna	11	Noviembre	2023-11-21T00:00:00	2024-11-08T00:00:00	5	Humedad	83
90357	7	Sololá	717	San Juan la Laguna	12	San Juan la Laguna	11	Noviembre	2023-11-21T00:00:00	2024-11-08T00:00:00	6	Velocidad del viento	0
90358	7	Sololá	717	San Juan la Laguna	12	San Juan la Laguna	11	Noviembre	2023-11-21T00:00:00	2024-11-08T00:00:00	7	Dirección del viento	0
90359	7	Sololá	717	San Juan la Laguna	12	San Juan la Laguna	11	Noviembre	2023-11-21T00:00:00	2024-11-08T00:00:00	1	Precipitación	0
90360	7	Sololá	717	San Juan la Laguna	12	San Juan la Laguna	11	Noviembre	2023-11-21T00:00:00	2024-11-08T00:00:00	8	Radiación solar	0
90361	7	Sololá	717	San Juan la Laguna	12	San Juan la Laguna	11	Noviembre	2023-11-21T00:00:00	2024-11-08T01:00:00	2	Temperatura media	15.4
90362	7	Sololá	717	San Juan la Laguna	12	San Juan la Laguna	11	Noviembre	2023-11-21T00:00:00	2024-11-08T01:00:00	4	Temperatura máxima	16.5
90363	7	Sololá	717	San Juan la Laguna	12	San Juan la Laguna	11	Noviembre	2023-11-21T00:00:00	2024-11-08T01:00:00	3	Temperatura mínima	15.4
90364	7	Sololá	717	San Juan la Laguna	12	San Juan la Laguna	11	Noviembre	2023-11-21T00:00:00	2024-11-08T01:00:00	5	Humedad	85
90365	7	Sololá	717	San Juan la Laguna	12	San Juan la Laguna	11	Noviembre	2023-11-21T00:00:00	2024-11-08T01:00:00	6	Velocidad del viento	0
90366	7	Sololá	717	San Juan la Laguna	12	San Juan la Laguna	11	Noviembre	2023-11-21T00:00:00	2024-11-08T01:00:00	7	Dirección del viento	0
90367	7	Sololá	717	San Juan la Laguna	12	San Juan la Laguna	11	Noviembre	2023-11-21T00:00:00	2024-11-08T01:00:00	1	Precipitación	0
90368	7	Sololá	717	San Juan la Laguna	12	San Juan la Laguna	11	Noviembre	2023-11-21T00:00:00	2024-11-08T01:00:00	8	Radiación solar	0
90369	7	Sololá	717	San Juan la Laguna	12	San Juan la Laguna	11	Noviembre	2023-11-21T00:00:00	2024-11-08T02:00:00	2	Temperatura media	15.2
90370	7	Sololá	717	San Juan la Laguna	12	San Juan la Laguna	11	Noviembre	2023-11-21T00:00:00	2024-11-08T02:00:00	4	Temperatura máxima	15.4
90371	7	Sololá	717	San Juan la Laguna	12	San Juan la Laguna	11	Noviembre	2023-11-21T00:00:00	2024-11-08T02:00:00	3	Temperatura mínima	15.1
90372	7	Sololá	717	San Juan la Laguna	12	San Juan la Laguna	11	Noviembre	2023-11-21T00:00:00	2024-11-08T02:00:00	5	Humedad	86
90373	7	Sololá	717	San Juan la Laguna	12	San Juan la Laguna	11	Noviembre	2023-11-21T00:00:00	2024-11-08T02:00:00	6	Velocidad del viento	0
90374	7	Sololá	717	San Juan la Laguna	12	San Juan la Laguna	11	Noviembre	2023-11-21T00:00:00	2024-11-08T02:00:00	7	Dirección del viento	0
90375	7	Sololá	717	San Juan la Laguna	12	San Juan la Laguna	11	Noviembre	2023-11-21T00:00:00	2024-11-08T02:00:00	1	Precipitación	0
90376	7	Sololá	717	San Juan la Laguna	12	San Juan la Laguna	11	Noviembre	2023-11-21T00:00:00	2024-11-08T02:00:00	8	Radiación solar	0
90377	7	Sololá	717	San Juan la Laguna	12	San Juan la Laguna	11	Noviembre	2023-11-21T00:00:00	2024-11-08T03:00:00	2	Temperatura media	14.8
90378	7	Sololá	717	San Juan la Laguna	12	San Juan la Laguna	11	Noviembre	2023-11-21T00:00:00	2024-11-08T03:00:00	4	Temperatura máxima	15.2
90379	7	Sololá	717	San Juan la Laguna	12	San Juan la Laguna	11	Noviembre	2023-11-21T00:00:00	2024-11-08T03:00:00	3	Temperatura mínima	14.7
90380	7	Sololá	717	San Juan la Laguna	12	San Juan la Laguna	11	Noviembre	2023-11-21T00:00:00	2024-11-08T03:00:00	5	Humedad	88
90381	7	Sololá	717	San Juan la Laguna	12	San Juan la Laguna	11	Noviembre	2023-11-21T00:00:00	2024-11-08T03:00:00	6	Velocidad del viento	0
90382	7	Sololá	717	San Juan la Laguna	12	San Juan la Laguna	11	Noviembre	2023-11-21T00:00:00	2024-11-08T03:00:00	7	Dirección del viento	0
90383	7	Sololá	717	San Juan la Laguna	12	San Juan la Laguna	11	Noviembre	2023-11-21T00:00:00	2024-11-08T03:00:00	1	Precipitación	0
90384	7	Sololá	717	San Juan la Laguna	12	San Juan la Laguna	11	Noviembre	2023-11-21T00:00:00	2024-11-08T03:00:00	8	Radiación solar	0
90385	7	Sololá	717	San Juan la Laguna	12	San Juan la Laguna	11	Noviembre	2023-11-21T00:00:00	2024-11-08T04:00:00	2	Temperatura media	14.2
90386	7	Sololá	717	San Juan la Laguna	12	San Juan la Laguna	11	Noviembre	2023-11-21T00:00:00	2024-11-08T04:00:00	4	Temperatura máxima	14.8
90387	7	Sololá	717	San Juan la Laguna	12	San Juan la Laguna	11	Noviembre	2023-11-21T00:00:00	2024-11-08T04:00:00	3	Temperatura mínima	14.2
90388	7	Sololá	717	San Juan la Laguna	12	San Juan la Laguna	11	Noviembre	2023-11-21T00:00:00	2024-11-08T04:00:00	5	Humedad	86
90389	7	Sololá	717	San Juan la Laguna	12	San Juan la Laguna	11	Noviembre	2023-11-21T00:00:00	2024-11-08T04:00:00	6	Velocidad del viento	0
90390	7	Sololá	717	San Juan la Laguna	12	San Juan la Laguna	11	Noviembre	2023-11-21T00:00:00	2024-11-08T04:00:00	7	Dirección del viento	0
90391	7	Sololá	717	San Juan la Laguna	12	San Juan la Laguna	11	Noviembre	2023-11-21T00:00:00	2024-11-08T04:00:00	1	Precipitación	0
90392	7	Sololá	717	San Juan la Laguna	12	San Juan la Laguna	11	Noviembre	2023-11-21T00:00:00	2024-11-08T04:00:00	8	Radiación solar	0
90393	7	Sololá	717	San Juan la Laguna	12	San Juan la Laguna	11	Noviembre	2023-11-21T00:00:00	2024-11-08T05:00:00	2	Temperatura media	13.7
90394	7	Sololá	717	San Juan la Laguna	12	San Juan la Laguna	11	Noviembre	2023-11-21T00:00:00	2024-11-08T05:00:00	4	Temperatura máxima	14.3
90395	7	Sololá	717	San Juan la Laguna	12	San Juan la Laguna	11	Noviembre	2023-11-21T00:00:00	2024-11-08T05:00:00	3	Temperatura mínima	13.6
90396	7	Sololá	717	San Juan la Laguna	12	San Juan la Laguna	11	Noviembre	2023-11-21T00:00:00	2024-11-08T05:00:00	5	Humedad	86
90397	7	Sololá	717	San Juan la Laguna	12	San Juan la Laguna	11	Noviembre	2023-11-21T00:00:00	2024-11-08T05:00:00	6	Velocidad del viento	0
90398	7	Sololá	717	San Juan la Laguna	12	San Juan la Laguna	11	Noviembre	2023-11-21T00:00:00	2024-11-08T05:00:00	7	Dirección del viento	0
90399	7	Sololá	717	San Juan la Laguna	12	San Juan la Laguna	11	Noviembre	2023-11-21T00:00:00	2024-11-08T05:00:00	1	Precipitación	0
90400	7	Sololá	717	San Juan la Laguna	12	San Juan la Laguna	11	Noviembre	2023-11-21T00:00:00	2024-11-08T05:00:00	8	Radiación solar	0
90401	7	Sololá	717	San Juan la Laguna	12	San Juan la Laguna	11	Noviembre	2023-11-21T00:00:00	2024-11-08T06:00:00	2	Temperatura media	13.3
90402	7	Sololá	717	San Juan la Laguna	12	San Juan la Laguna	11	Noviembre	2023-11-21T00:00:00	2024-11-08T06:00:00	4	Temperatura máxima	14.2
90403	7	Sololá	717	San Juan la Laguna	12	San Juan la Laguna	11	Noviembre	2023-11-21T00:00:00	2024-11-08T06:00:00	3	Temperatura mínima	13.3
90404	7	Sololá	717	San Juan la Laguna	12	San Juan la Laguna	11	Noviembre	2023-11-21T00:00:00	2024-11-08T06:00:00	5	Humedad	86
90405	7	Sololá	717	San Juan la Laguna	12	San Juan la Laguna	11	Noviembre	2023-11-21T00:00:00	2024-11-08T06:00:00	6	Velocidad del viento	0
90406	7	Sololá	717	San Juan la Laguna	12	San Juan la Laguna	11	Noviembre	2023-11-21T00:00:00	2024-11-08T06:00:00	7	Dirección del viento	0
90407	7	Sololá	717	San Juan la Laguna	12	San Juan la Laguna	11	Noviembre	2023-11-21T00:00:00	2024-11-08T06:00:00	1	Precipitación	0
90408	7	Sololá	717	San Juan la Laguna	12	San Juan la Laguna	11	Noviembre	2023-11-21T00:00:00	2024-11-08T06:00:00	8	Radiación solar	0
90409	7	Sololá	717	San Juan la Laguna	12	San Juan la Laguna	11	Noviembre	2023-11-21T00:00:00	2024-11-08T07:00:00	2	Temperatura media	13.4
90410	7	Sololá	717	San Juan la Laguna	12	San Juan la Laguna	11	Noviembre	2023-11-21T00:00:00	2024-11-08T07:00:00	4	Temperatura máxima	13.4
90411	7	Sololá	717	San Juan la Laguna	12	San Juan la Laguna	11	Noviembre	2023-11-21T00:00:00	2024-11-08T07:00:00	3	Temperatura mínima	12.9
90412	7	Sololá	717	San Juan la Laguna	12	San Juan la Laguna	11	Noviembre	2023-11-21T00:00:00	2024-11-08T07:00:00	5	Humedad	86
90413	7	Sololá	717	San Juan la Laguna	12	San Juan la Laguna	11	Noviembre	2023-11-21T00:00:00	2024-11-08T07:00:00	6	Velocidad del viento	0
90414	7	Sololá	717	San Juan la Laguna	12	San Juan la Laguna	11	Noviembre	2023-11-21T00:00:00	2024-11-08T07:00:00	7	Dirección del viento	0
90415	7	Sololá	717	San Juan la Laguna	12	San Juan la Laguna	11	Noviembre	2023-11-21T00:00:00	2024-11-08T07:00:00	1	Precipitación	0
90416	7	Sololá	717	San Juan la Laguna	12	San Juan la Laguna	11	Noviembre	2023-11-21T00:00:00	2024-11-08T07:00:00	8	Radiación solar	29
90417	7	Sololá	717	San Juan la Laguna	12	San Juan la Laguna	11	Noviembre	2023-11-21T00:00:00	2024-11-08T08:00:00	2	Temperatura media	16.7
90418	7	Sololá	717	San Juan la Laguna	12	San Juan la Laguna	11	Noviembre	2023-11-21T00:00:00	2024-11-08T08:00:00	4	Temperatura máxima	16.7
90419	7	Sololá	717	San Juan la Laguna	12	San Juan la Laguna	11	Noviembre	2023-11-21T00:00:00	2024-11-08T08:00:00	3	Temperatura mínima	13.4
90420	7	Sololá	717	San Juan la Laguna	12	San Juan la Laguna	11	Noviembre	2023-11-21T00:00:00	2024-11-08T08:00:00	5	Humedad	81
90421	7	Sololá	717	San Juan la Laguna	12	San Juan la Laguna	11	Noviembre	2023-11-21T00:00:00	2024-11-08T08:00:00	6	Velocidad del viento	0
90422	7	Sololá	717	San Juan la Laguna	12	San Juan la Laguna	11	Noviembre	2023-11-21T00:00:00	2024-11-08T08:00:00	7	Dirección del viento	0
90423	7	Sololá	717	San Juan la Laguna	12	San Juan la Laguna	11	Noviembre	2023-11-21T00:00:00	2024-11-08T08:00:00	1	Precipitación	0
90424	7	Sololá	717	San Juan la Laguna	12	San Juan la Laguna	11	Noviembre	2023-11-21T00:00:00	2024-11-08T08:00:00	8	Radiación solar	176
90425	7	Sololá	717	San Juan la Laguna	12	San Juan la Laguna	11	Noviembre	2023-11-21T00:00:00	2024-11-08T09:00:00	2	Temperatura media	20.5
90426	7	Sololá	717	San Juan la Laguna	12	San Juan la Laguna	11	Noviembre	2023-11-21T00:00:00	2024-11-08T09:00:00	4	Temperatura máxima	20.5
90427	7	Sololá	717	San Juan la Laguna	12	San Juan la Laguna	11	Noviembre	2023-11-21T00:00:00	2024-11-08T09:00:00	3	Temperatura mínima	16.7
90428	7	Sololá	717	San Juan la Laguna	12	San Juan la Laguna	11	Noviembre	2023-11-21T00:00:00	2024-11-08T09:00:00	5	Humedad	73
90429	7	Sololá	717	San Juan la Laguna	12	San Juan la Laguna	11	Noviembre	2023-11-21T00:00:00	2024-11-08T09:00:00	6	Velocidad del viento	0
90430	7	Sololá	717	San Juan la Laguna	12	San Juan la Laguna	11	Noviembre	2023-11-21T00:00:00	2024-11-08T09:00:00	7	Dirección del viento	0
90431	7	Sololá	717	San Juan la Laguna	12	San Juan la Laguna	11	Noviembre	2023-11-21T00:00:00	2024-11-08T09:00:00	1	Precipitación	0
90432	7	Sololá	717	San Juan la Laguna	12	San Juan la Laguna	11	Noviembre	2023-11-21T00:00:00	2024-11-08T09:00:00	8	Radiación solar	411
90433	7	Sololá	717	San Juan la Laguna	12	San Juan la Laguna	11	Noviembre	2023-11-21T00:00:00	2024-11-08T10:00:00	2	Temperatura media	19.7
90434	7	Sololá	717	San Juan la Laguna	12	San Juan la Laguna	11	Noviembre	2023-11-21T00:00:00	2024-11-08T10:00:00	4	Temperatura máxima	20.5
90435	7	Sololá	717	San Juan la Laguna	12	San Juan la Laguna	11	Noviembre	2023-11-21T00:00:00	2024-11-08T10:00:00	3	Temperatura mínima	19.6
90436	7	Sololá	717	San Juan la Laguna	12	San Juan la Laguna	11	Noviembre	2023-11-21T00:00:00	2024-11-08T10:00:00	5	Humedad	75
90437	7	Sololá	717	San Juan la Laguna	12	San Juan la Laguna	11	Noviembre	2023-11-21T00:00:00	2024-11-08T10:00:00	6	Velocidad del viento	0
90438	7	Sololá	717	San Juan la Laguna	12	San Juan la Laguna	11	Noviembre	2023-11-21T00:00:00	2024-11-08T10:00:00	7	Dirección del viento	0
90439	7	Sololá	717	San Juan la Laguna	12	San Juan la Laguna	11	Noviembre	2023-11-21T00:00:00	2024-11-08T10:00:00	1	Precipitación	0
90440	7	Sololá	717	San Juan la Laguna	12	San Juan la Laguna	11	Noviembre	2023-11-21T00:00:00	2024-11-08T10:00:00	8	Radiación solar	595
90441	7	Sololá	717	San Juan la Laguna	12	San Juan la Laguna	11	Noviembre	2023-11-21T00:00:00	2024-11-08T11:00:00	2	Temperatura media	21.4
90442	7	Sololá	717	San Juan la Laguna	12	San Juan la Laguna	11	Noviembre	2023-11-21T00:00:00	2024-11-08T11:00:00	4	Temperatura máxima	21.4
90443	7	Sololá	717	San Juan la Laguna	12	San Juan la Laguna	11	Noviembre	2023-11-21T00:00:00	2024-11-08T11:00:00	3	Temperatura mínima	19.7
90444	7	Sololá	717	San Juan la Laguna	12	San Juan la Laguna	11	Noviembre	2023-11-21T00:00:00	2024-11-08T11:00:00	5	Humedad	70
90445	7	Sololá	717	San Juan la Laguna	12	San Juan la Laguna	11	Noviembre	2023-11-21T00:00:00	2024-11-08T11:00:00	6	Velocidad del viento	0
90446	7	Sololá	717	San Juan la Laguna	12	San Juan la Laguna	11	Noviembre	2023-11-21T00:00:00	2024-11-08T11:00:00	7	Dirección del viento	0
90447	7	Sololá	717	San Juan la Laguna	12	San Juan la Laguna	11	Noviembre	2023-11-21T00:00:00	2024-11-08T11:00:00	1	Precipitación	0
90448	7	Sololá	717	San Juan la Laguna	12	San Juan la Laguna	11	Noviembre	2023-11-21T00:00:00	2024-11-08T11:00:00	8	Radiación solar	616
90449	7	Sololá	717	San Juan la Laguna	12	San Juan la Laguna	11	Noviembre	2023-11-21T00:00:00	2024-11-08T12:00:00	2	Temperatura media	21.4
90450	7	Sololá	717	San Juan la Laguna	12	San Juan la Laguna	11	Noviembre	2023-11-21T00:00:00	2024-11-08T12:00:00	4	Temperatura máxima	21.4
90451	7	Sololá	717	San Juan la Laguna	12	San Juan la Laguna	11	Noviembre	2023-11-21T00:00:00	2024-11-08T12:00:00	3	Temperatura mínima	20.6
90452	7	Sololá	717	San Juan la Laguna	12	San Juan la Laguna	11	Noviembre	2023-11-21T00:00:00	2024-11-08T12:00:00	5	Humedad	74
90453	7	Sololá	717	San Juan la Laguna	12	San Juan la Laguna	11	Noviembre	2023-11-21T00:00:00	2024-11-08T12:00:00	6	Velocidad del viento	0
90454	7	Sololá	717	San Juan la Laguna	12	San Juan la Laguna	11	Noviembre	2023-11-21T00:00:00	2024-11-08T12:00:00	7	Dirección del viento	0
90455	7	Sololá	717	San Juan la Laguna	12	San Juan la Laguna	11	Noviembre	2023-11-21T00:00:00	2024-11-08T12:00:00	1	Precipitación	0
90456	7	Sololá	717	San Juan la Laguna	12	San Juan la Laguna	11	Noviembre	2023-11-21T00:00:00	2024-11-08T12:00:00	8	Radiación solar	764
90457	7	Sololá	717	San Juan la Laguna	12	San Juan la Laguna	11	Noviembre	2023-11-21T00:00:00	2024-11-08T13:00:00	2	Temperatura media	22.2
90458	7	Sololá	717	San Juan la Laguna	12	San Juan la Laguna	11	Noviembre	2023-11-21T00:00:00	2024-11-08T13:00:00	4	Temperatura máxima	25.1
90459	7	Sololá	717	San Juan la Laguna	12	San Juan la Laguna	11	Noviembre	2023-11-21T00:00:00	2024-11-08T13:00:00	3	Temperatura mínima	21.2
90460	7	Sololá	717	San Juan la Laguna	12	San Juan la Laguna	11	Noviembre	2023-11-21T00:00:00	2024-11-08T13:00:00	5	Humedad	74
90461	7	Sololá	717	San Juan la Laguna	12	San Juan la Laguna	11	Noviembre	2023-11-21T00:00:00	2024-11-08T13:00:00	6	Velocidad del viento	1.6
90462	7	Sololá	717	San Juan la Laguna	12	San Juan la Laguna	11	Noviembre	2023-11-21T00:00:00	2024-11-08T13:00:00	7	Dirección del viento	1.61
90463	7	Sololá	717	San Juan la Laguna	12	San Juan la Laguna	11	Noviembre	2023-11-21T00:00:00	2024-11-08T13:00:00	1	Precipitación	0
90464	7	Sololá	717	San Juan la Laguna	12	San Juan la Laguna	11	Noviembre	2023-11-21T00:00:00	2024-11-08T13:00:00	8	Radiación solar	765
90465	7	Sololá	717	San Juan la Laguna	12	San Juan la Laguna	11	Noviembre	2023-11-21T00:00:00	2024-11-08T14:00:00	2	Temperatura media	21.4
90466	7	Sololá	717	San Juan la Laguna	12	San Juan la Laguna	11	Noviembre	2023-11-21T00:00:00	2024-11-08T14:00:00	4	Temperatura máxima	22.4
90467	7	Sololá	717	San Juan la Laguna	12	San Juan la Laguna	11	Noviembre	2023-11-21T00:00:00	2024-11-08T14:00:00	3	Temperatura mínima	21.4
90468	7	Sololá	717	San Juan la Laguna	12	San Juan la Laguna	11	Noviembre	2023-11-21T00:00:00	2024-11-08T14:00:00	5	Humedad	74
90469	7	Sololá	717	San Juan la Laguna	12	San Juan la Laguna	11	Noviembre	2023-11-21T00:00:00	2024-11-08T14:00:00	6	Velocidad del viento	6.4
90470	7	Sololá	717	San Juan la Laguna	12	San Juan la Laguna	11	Noviembre	2023-11-21T00:00:00	2024-11-08T14:00:00	7	Dirección del viento	6.44
90471	7	Sololá	717	San Juan la Laguna	12	San Juan la Laguna	11	Noviembre	2023-11-21T00:00:00	2024-11-08T14:00:00	1	Precipitación	0
90472	7	Sololá	717	San Juan la Laguna	12	San Juan la Laguna	11	Noviembre	2023-11-21T00:00:00	2024-11-08T14:00:00	8	Radiación solar	682
90473	7	Sololá	717	San Juan la Laguna	12	San Juan la Laguna	11	Noviembre	2023-11-21T00:00:00	2024-11-08T15:00:00	2	Temperatura media	21.6
90474	7	Sololá	717	San Juan la Laguna	12	San Juan la Laguna	11	Noviembre	2023-11-21T00:00:00	2024-11-08T15:00:00	4	Temperatura máxima	22.2
90475	7	Sololá	717	San Juan la Laguna	12	San Juan la Laguna	11	Noviembre	2023-11-21T00:00:00	2024-11-08T15:00:00	3	Temperatura mínima	21.3
90476	7	Sololá	717	San Juan la Laguna	12	San Juan la Laguna	11	Noviembre	2023-11-21T00:00:00	2024-11-08T15:00:00	5	Humedad	76
90477	7	Sololá	717	San Juan la Laguna	12	San Juan la Laguna	11	Noviembre	2023-11-21T00:00:00	2024-11-08T15:00:00	6	Velocidad del viento	6.4
90478	7	Sololá	717	San Juan la Laguna	12	San Juan la Laguna	11	Noviembre	2023-11-21T00:00:00	2024-11-08T15:00:00	7	Dirección del viento	6.44
90479	7	Sololá	717	San Juan la Laguna	12	San Juan la Laguna	11	Noviembre	2023-11-21T00:00:00	2024-11-08T15:00:00	1	Precipitación	0
90480	7	Sololá	717	San Juan la Laguna	12	San Juan la Laguna	11	Noviembre	2023-11-21T00:00:00	2024-11-08T15:00:00	8	Radiación solar	523
90481	7	Sololá	717	San Juan la Laguna	12	San Juan la Laguna	11	Noviembre	2023-11-21T00:00:00	2024-11-08T16:00:00	2	Temperatura media	21
90482	7	Sololá	717	San Juan la Laguna	12	San Juan la Laguna	11	Noviembre	2023-11-21T00:00:00	2024-11-08T16:00:00	4	Temperatura máxima	21.7
90483	7	Sololá	717	San Juan la Laguna	12	San Juan la Laguna	11	Noviembre	2023-11-21T00:00:00	2024-11-08T16:00:00	3	Temperatura mínima	21
90484	7	Sololá	717	San Juan la Laguna	12	San Juan la Laguna	11	Noviembre	2023-11-21T00:00:00	2024-11-08T16:00:00	5	Humedad	79
90485	7	Sololá	717	San Juan la Laguna	12	San Juan la Laguna	11	Noviembre	2023-11-21T00:00:00	2024-11-08T16:00:00	6	Velocidad del viento	4.8
90486	7	Sololá	717	San Juan la Laguna	12	San Juan la Laguna	11	Noviembre	2023-11-21T00:00:00	2024-11-08T16:00:00	7	Dirección del viento	4.83
90487	7	Sololá	717	San Juan la Laguna	12	San Juan la Laguna	11	Noviembre	2023-11-21T00:00:00	2024-11-08T16:00:00	1	Precipitación	0
90488	7	Sololá	717	San Juan la Laguna	12	San Juan la Laguna	11	Noviembre	2023-11-21T00:00:00	2024-11-08T16:00:00	8	Radiación solar	320
90489	7	Sololá	717	San Juan la Laguna	12	San Juan la Laguna	11	Noviembre	2023-11-21T00:00:00	2024-11-08T17:00:00	2	Temperatura media	19.7
90490	7	Sololá	717	San Juan la Laguna	12	San Juan la Laguna	11	Noviembre	2023-11-21T00:00:00	2024-11-08T17:00:00	4	Temperatura máxima	21
90491	7	Sololá	717	San Juan la Laguna	12	San Juan la Laguna	11	Noviembre	2023-11-21T00:00:00	2024-11-08T17:00:00	3	Temperatura mínima	19.6
90492	7	Sololá	717	San Juan la Laguna	12	San Juan la Laguna	11	Noviembre	2023-11-21T00:00:00	2024-11-08T17:00:00	5	Humedad	84
90493	7	Sololá	717	San Juan la Laguna	12	San Juan la Laguna	11	Noviembre	2023-11-21T00:00:00	2024-11-08T17:00:00	6	Velocidad del viento	3.2
90494	7	Sololá	717	San Juan la Laguna	12	San Juan la Laguna	11	Noviembre	2023-11-21T00:00:00	2024-11-08T17:00:00	7	Dirección del viento	3.22
90495	7	Sololá	717	San Juan la Laguna	12	San Juan la Laguna	11	Noviembre	2023-11-21T00:00:00	2024-11-08T17:00:00	1	Precipitación	0
90496	7	Sololá	717	San Juan la Laguna	12	San Juan la Laguna	11	Noviembre	2023-11-21T00:00:00	2024-11-08T17:00:00	8	Radiación solar	60
90497	7	Sololá	717	San Juan la Laguna	12	San Juan la Laguna	11	Noviembre	2023-11-21T00:00:00	2024-11-08T18:00:00	2	Temperatura media	19.5
90498	7	Sololá	717	San Juan la Laguna	12	San Juan la Laguna	11	Noviembre	2023-11-21T00:00:00	2024-11-08T18:00:00	4	Temperatura máxima	19.7
90499	7	Sololá	717	San Juan la Laguna	12	San Juan la Laguna	11	Noviembre	2023-11-21T00:00:00	2024-11-08T18:00:00	3	Temperatura mínima	19.4
90500	7	Sololá	717	San Juan la Laguna	12	San Juan la Laguna	11	Noviembre	2023-11-21T00:00:00	2024-11-08T18:00:00	5	Humedad	85
90501	7	Sololá	717	San Juan la Laguna	12	San Juan la Laguna	11	Noviembre	2023-11-21T00:00:00	2024-11-08T18:00:00	6	Velocidad del viento	1.6
90502	7	Sololá	717	San Juan la Laguna	12	San Juan la Laguna	11	Noviembre	2023-11-21T00:00:00	2024-11-08T18:00:00	7	Dirección del viento	1.61
90503	7	Sololá	717	San Juan la Laguna	12	San Juan la Laguna	11	Noviembre	2023-11-21T00:00:00	2024-11-08T18:00:00	1	Precipitación	0
90504	7	Sololá	717	San Juan la Laguna	12	San Juan la Laguna	11	Noviembre	2023-11-21T00:00:00	2024-11-08T18:00:00	8	Radiación solar	2
90505	7	Sololá	717	San Juan la Laguna	12	San Juan la Laguna	11	Noviembre	2023-11-21T00:00:00	2024-11-08T19:00:00	2	Temperatura media	18.4
90506	7	Sololá	717	San Juan la Laguna	12	San Juan la Laguna	11	Noviembre	2023-11-21T00:00:00	2024-11-08T19:00:00	4	Temperatura máxima	19.5
90507	7	Sololá	717	San Juan la Laguna	12	San Juan la Laguna	11	Noviembre	2023-11-21T00:00:00	2024-11-08T19:00:00	3	Temperatura mínima	18.4
90508	7	Sololá	717	San Juan la Laguna	12	San Juan la Laguna	11	Noviembre	2023-11-21T00:00:00	2024-11-08T19:00:00	5	Humedad	87
90509	7	Sololá	717	San Juan la Laguna	12	San Juan la Laguna	11	Noviembre	2023-11-21T00:00:00	2024-11-08T19:00:00	6	Velocidad del viento	0
90510	7	Sololá	717	San Juan la Laguna	12	San Juan la Laguna	11	Noviembre	2023-11-21T00:00:00	2024-11-08T19:00:00	7	Dirección del viento	0
90511	7	Sololá	717	San Juan la Laguna	12	San Juan la Laguna	11	Noviembre	2023-11-21T00:00:00	2024-11-08T19:00:00	1	Precipitación	0
90512	7	Sololá	717	San Juan la Laguna	12	San Juan la Laguna	11	Noviembre	2023-11-21T00:00:00	2024-11-08T19:00:00	8	Radiación solar	0
90513	7	Sololá	717	San Juan la Laguna	12	San Juan la Laguna	11	Noviembre	2023-11-21T00:00:00	2024-11-08T20:00:00	2	Temperatura media	17.1
90514	7	Sololá	717	San Juan la Laguna	12	San Juan la Laguna	11	Noviembre	2023-11-21T00:00:00	2024-11-08T20:00:00	4	Temperatura máxima	18.4
90515	7	Sololá	717	San Juan la Laguna	12	San Juan la Laguna	11	Noviembre	2023-11-21T00:00:00	2024-11-08T20:00:00	3	Temperatura mínima	17.1
90516	7	Sololá	717	San Juan la Laguna	12	San Juan la Laguna	11	Noviembre	2023-11-21T00:00:00	2024-11-08T20:00:00	5	Humedad	83
90517	7	Sololá	717	San Juan la Laguna	12	San Juan la Laguna	11	Noviembre	2023-11-21T00:00:00	2024-11-08T20:00:00	6	Velocidad del viento	1.6
90518	7	Sololá	717	San Juan la Laguna	12	San Juan la Laguna	11	Noviembre	2023-11-21T00:00:00	2024-11-08T20:00:00	7	Dirección del viento	1.61
90519	7	Sololá	717	San Juan la Laguna	12	San Juan la Laguna	11	Noviembre	2023-11-21T00:00:00	2024-11-08T20:00:00	1	Precipitación	0
90520	7	Sololá	717	San Juan la Laguna	12	San Juan la Laguna	11	Noviembre	2023-11-21T00:00:00	2024-11-08T20:00:00	8	Radiación solar	0
90521	7	Sololá	717	San Juan la Laguna	12	San Juan la Laguna	11	Noviembre	2023-11-21T00:00:00	2024-11-08T21:00:00	2	Temperatura media	16.8
90522	7	Sololá	717	San Juan la Laguna	12	San Juan la Laguna	11	Noviembre	2023-11-21T00:00:00	2024-11-08T21:00:00	4	Temperatura máxima	18.2
90523	7	Sololá	717	San Juan la Laguna	12	San Juan la Laguna	11	Noviembre	2023-11-21T00:00:00	2024-11-08T21:00:00	3	Temperatura mínima	16.8
90524	7	Sololá	717	San Juan la Laguna	12	San Juan la Laguna	11	Noviembre	2023-11-21T00:00:00	2024-11-08T21:00:00	5	Humedad	76
90525	7	Sololá	717	San Juan la Laguna	12	San Juan la Laguna	11	Noviembre	2023-11-21T00:00:00	2024-11-08T21:00:00	6	Velocidad del viento	1.6
90526	7	Sololá	717	San Juan la Laguna	12	San Juan la Laguna	11	Noviembre	2023-11-21T00:00:00	2024-11-08T21:00:00	7	Dirección del viento	1.61
90527	7	Sololá	717	San Juan la Laguna	12	San Juan la Laguna	11	Noviembre	2023-11-21T00:00:00	2024-11-08T21:00:00	1	Precipitación	0
90528	7	Sololá	717	San Juan la Laguna	12	San Juan la Laguna	11	Noviembre	2023-11-21T00:00:00	2024-11-08T21:00:00	8	Radiación solar	0
90529	7	Sololá	717	San Juan la Laguna	12	San Juan la Laguna	11	Noviembre	2023-11-21T00:00:00	2024-11-08T22:00:00	2	Temperatura media	15.4
90530	7	Sololá	717	San Juan la Laguna	12	San Juan la Laguna	11	Noviembre	2023-11-21T00:00:00	2024-11-08T22:00:00	4	Temperatura máxima	16.8
90531	7	Sololá	717	San Juan la Laguna	12	San Juan la Laguna	11	Noviembre	2023-11-21T00:00:00	2024-11-08T22:00:00	3	Temperatura mínima	15.4
90532	7	Sololá	717	San Juan la Laguna	12	San Juan la Laguna	11	Noviembre	2023-11-21T00:00:00	2024-11-08T22:00:00	5	Humedad	81
90533	7	Sololá	717	San Juan la Laguna	12	San Juan la Laguna	11	Noviembre	2023-11-21T00:00:00	2024-11-08T22:00:00	6	Velocidad del viento	3.2
90534	7	Sololá	717	San Juan la Laguna	12	San Juan la Laguna	11	Noviembre	2023-11-21T00:00:00	2024-11-08T22:00:00	7	Dirección del viento	3.22
90535	7	Sololá	717	San Juan la Laguna	12	San Juan la Laguna	11	Noviembre	2023-11-21T00:00:00	2024-11-08T22:00:00	1	Precipitación	0
90536	7	Sololá	717	San Juan la Laguna	12	San Juan la Laguna	11	Noviembre	2023-11-21T00:00:00	2024-11-08T22:00:00	8	Radiación solar	0
90537	7	Sololá	717	San Juan la Laguna	12	San Juan la Laguna	11	Noviembre	2023-11-21T00:00:00	2024-11-08T23:00:00	2	Temperatura media	14.8
90538	7	Sololá	717	San Juan la Laguna	12	San Juan la Laguna	11	Noviembre	2023-11-21T00:00:00	2024-11-08T23:00:00	4	Temperatura máxima	15.5
90539	7	Sololá	717	San Juan la Laguna	12	San Juan la Laguna	11	Noviembre	2023-11-21T00:00:00	2024-11-08T23:00:00	3	Temperatura mínima	14.8
90540	7	Sololá	717	San Juan la Laguna	12	San Juan la Laguna	11	Noviembre	2023-11-21T00:00:00	2024-11-08T23:00:00	5	Humedad	83
90541	7	Sololá	717	San Juan la Laguna	12	San Juan la Laguna	11	Noviembre	2023-11-21T00:00:00	2024-11-08T23:00:00	6	Velocidad del viento	3.2
90542	7	Sololá	717	San Juan la Laguna	12	San Juan la Laguna	11	Noviembre	2023-11-21T00:00:00	2024-11-08T23:00:00	7	Dirección del viento	3.22
90543	7	Sololá	717	San Juan la Laguna	12	San Juan la Laguna	11	Noviembre	2023-11-21T00:00:00	2024-11-08T23:00:00	1	Precipitación	0
90544	7	Sololá	717	San Juan la Laguna	12	San Juan la Laguna	11	Noviembre	2023-11-21T00:00:00	2024-11-08T23:00:00	8	Radiación solar	0
90545	7	Sololá	717	San Juan la Laguna	12	San Juan la Laguna	11	Noviembre	2023-11-22T00:00:00	2024-11-08T00:00:00	2	Temperatura media	14.3
90546	7	Sololá	717	San Juan la Laguna	12	San Juan la Laguna	11	Noviembre	2023-11-22T00:00:00	2024-11-08T00:00:00	4	Temperatura máxima	14.8
90547	7	Sololá	717	San Juan la Laguna	12	San Juan la Laguna	11	Noviembre	2023-11-22T00:00:00	2024-11-08T00:00:00	3	Temperatura mínima	14.3
90548	7	Sololá	717	San Juan la Laguna	12	San Juan la Laguna	11	Noviembre	2023-11-22T00:00:00	2024-11-08T00:00:00	5	Humedad	83
90549	7	Sololá	717	San Juan la Laguna	12	San Juan la Laguna	11	Noviembre	2023-11-22T00:00:00	2024-11-08T00:00:00	6	Velocidad del viento	4.8
90550	7	Sololá	717	San Juan la Laguna	12	San Juan la Laguna	11	Noviembre	2023-11-22T00:00:00	2024-11-08T00:00:00	7	Dirección del viento	4.83
90551	7	Sololá	717	San Juan la Laguna	12	San Juan la Laguna	11	Noviembre	2023-11-22T00:00:00	2024-11-08T00:00:00	1	Precipitación	0
90552	7	Sololá	717	San Juan la Laguna	12	San Juan la Laguna	11	Noviembre	2023-11-22T00:00:00	2024-11-08T00:00:00	8	Radiación solar	0
90553	7	Sololá	717	San Juan la Laguna	12	San Juan la Laguna	11	Noviembre	2023-11-22T00:00:00	2024-11-08T01:00:00	2	Temperatura media	13.7
90554	7	Sololá	717	San Juan la Laguna	12	San Juan la Laguna	11	Noviembre	2023-11-22T00:00:00	2024-11-08T01:00:00	4	Temperatura máxima	14.6
90555	7	Sololá	717	San Juan la Laguna	12	San Juan la Laguna	11	Noviembre	2023-11-22T00:00:00	2024-11-08T01:00:00	3	Temperatura mínima	13.7
90556	7	Sololá	717	San Juan la Laguna	12	San Juan la Laguna	11	Noviembre	2023-11-22T00:00:00	2024-11-08T01:00:00	5	Humedad	84
90557	7	Sololá	717	San Juan la Laguna	12	San Juan la Laguna	11	Noviembre	2023-11-22T00:00:00	2024-11-08T01:00:00	6	Velocidad del viento	4.8
90558	7	Sololá	717	San Juan la Laguna	12	San Juan la Laguna	11	Noviembre	2023-11-22T00:00:00	2024-11-08T01:00:00	7	Dirección del viento	4.83
90559	7	Sololá	717	San Juan la Laguna	12	San Juan la Laguna	11	Noviembre	2023-11-22T00:00:00	2024-11-08T01:00:00	1	Precipitación	0
90560	7	Sololá	717	San Juan la Laguna	12	San Juan la Laguna	11	Noviembre	2023-11-22T00:00:00	2024-11-08T01:00:00	8	Radiación solar	0
90561	7	Sololá	717	San Juan la Laguna	12	San Juan la Laguna	11	Noviembre	2023-11-22T00:00:00	2024-11-08T02:00:00	2	Temperatura media	13.7
90562	7	Sololá	717	San Juan la Laguna	12	San Juan la Laguna	11	Noviembre	2023-11-22T00:00:00	2024-11-08T02:00:00	4	Temperatura máxima	13.8
90563	7	Sololá	717	San Juan la Laguna	12	San Juan la Laguna	11	Noviembre	2023-11-22T00:00:00	2024-11-08T02:00:00	3	Temperatura mínima	13.6
90564	7	Sololá	717	San Juan la Laguna	12	San Juan la Laguna	11	Noviembre	2023-11-22T00:00:00	2024-11-08T02:00:00	5	Humedad	84
90565	7	Sololá	717	San Juan la Laguna	12	San Juan la Laguna	11	Noviembre	2023-11-22T00:00:00	2024-11-08T02:00:00	6	Velocidad del viento	4.8
90566	7	Sololá	717	San Juan la Laguna	12	San Juan la Laguna	11	Noviembre	2023-11-22T00:00:00	2024-11-08T02:00:00	7	Dirección del viento	4.83
90567	7	Sololá	717	San Juan la Laguna	12	San Juan la Laguna	11	Noviembre	2023-11-22T00:00:00	2024-11-08T02:00:00	1	Precipitación	0
90568	7	Sololá	717	San Juan la Laguna	12	San Juan la Laguna	11	Noviembre	2023-11-22T00:00:00	2024-11-08T02:00:00	8	Radiación solar	0
90569	7	Sololá	717	San Juan la Laguna	12	San Juan la Laguna	11	Noviembre	2023-11-22T00:00:00	2024-11-08T03:00:00	2	Temperatura media	13.6
90570	7	Sololá	717	San Juan la Laguna	12	San Juan la Laguna	11	Noviembre	2023-11-22T00:00:00	2024-11-08T03:00:00	4	Temperatura máxima	14.7
90571	7	Sololá	717	San Juan la Laguna	12	San Juan la Laguna	11	Noviembre	2023-11-22T00:00:00	2024-11-08T03:00:00	3	Temperatura mínima	13.5
90572	7	Sololá	717	San Juan la Laguna	12	San Juan la Laguna	11	Noviembre	2023-11-22T00:00:00	2024-11-08T03:00:00	5	Humedad	83
90573	7	Sololá	717	San Juan la Laguna	12	San Juan la Laguna	11	Noviembre	2023-11-22T00:00:00	2024-11-08T03:00:00	6	Velocidad del viento	4.8
90574	7	Sololá	717	San Juan la Laguna	12	San Juan la Laguna	11	Noviembre	2023-11-22T00:00:00	2024-11-08T03:00:00	7	Dirección del viento	4.83
90575	7	Sololá	717	San Juan la Laguna	12	San Juan la Laguna	11	Noviembre	2023-11-22T00:00:00	2024-11-08T03:00:00	1	Precipitación	0
90576	7	Sololá	717	San Juan la Laguna	12	San Juan la Laguna	11	Noviembre	2023-11-22T00:00:00	2024-11-08T03:00:00	8	Radiación solar	0
90577	7	Sololá	717	San Juan la Laguna	12	San Juan la Laguna	11	Noviembre	2023-11-22T00:00:00	2024-11-08T04:00:00	2	Temperatura media	13.9
90578	7	Sololá	717	San Juan la Laguna	12	San Juan la Laguna	11	Noviembre	2023-11-22T00:00:00	2024-11-08T04:00:00	4	Temperatura máxima	14.1
90579	7	Sololá	717	San Juan la Laguna	12	San Juan la Laguna	11	Noviembre	2023-11-22T00:00:00	2024-11-08T04:00:00	3	Temperatura mínima	13.4
90580	7	Sololá	717	San Juan la Laguna	12	San Juan la Laguna	11	Noviembre	2023-11-22T00:00:00	2024-11-08T04:00:00	5	Humedad	82
90581	7	Sololá	717	San Juan la Laguna	12	San Juan la Laguna	11	Noviembre	2023-11-22T00:00:00	2024-11-08T04:00:00	6	Velocidad del viento	4.8
90582	7	Sololá	717	San Juan la Laguna	12	San Juan la Laguna	11	Noviembre	2023-11-22T00:00:00	2024-11-08T04:00:00	7	Dirección del viento	4.83
90583	7	Sololá	717	San Juan la Laguna	12	San Juan la Laguna	11	Noviembre	2023-11-22T00:00:00	2024-11-08T04:00:00	1	Precipitación	0
90584	7	Sololá	717	San Juan la Laguna	12	San Juan la Laguna	11	Noviembre	2023-11-22T00:00:00	2024-11-08T04:00:00	8	Radiación solar	0
90585	7	Sololá	717	San Juan la Laguna	12	San Juan la Laguna	11	Noviembre	2023-11-22T00:00:00	2024-11-08T05:00:00	2	Temperatura media	13.8
90586	7	Sololá	717	San Juan la Laguna	12	San Juan la Laguna	11	Noviembre	2023-11-22T00:00:00	2024-11-08T05:00:00	4	Temperatura máxima	14
90587	7	Sololá	717	San Juan la Laguna	12	San Juan la Laguna	11	Noviembre	2023-11-22T00:00:00	2024-11-08T05:00:00	3	Temperatura mínima	13.7
90588	7	Sololá	717	San Juan la Laguna	12	San Juan la Laguna	11	Noviembre	2023-11-22T00:00:00	2024-11-08T05:00:00	5	Humedad	83
90589	7	Sololá	717	San Juan la Laguna	12	San Juan la Laguna	11	Noviembre	2023-11-22T00:00:00	2024-11-08T05:00:00	6	Velocidad del viento	4.8
90590	7	Sololá	717	San Juan la Laguna	12	San Juan la Laguna	11	Noviembre	2023-11-22T00:00:00	2024-11-08T05:00:00	7	Dirección del viento	4.83
90591	7	Sololá	717	San Juan la Laguna	12	San Juan la Laguna	11	Noviembre	2023-11-22T00:00:00	2024-11-08T05:00:00	1	Precipitación	0
90592	7	Sololá	717	San Juan la Laguna	12	San Juan la Laguna	11	Noviembre	2023-11-22T00:00:00	2024-11-08T05:00:00	8	Radiación solar	0
90593	7	Sololá	717	San Juan la Laguna	12	San Juan la Laguna	11	Noviembre	2023-11-22T00:00:00	2024-11-08T06:00:00	2	Temperatura media	13.7
90594	7	Sololá	717	San Juan la Laguna	12	San Juan la Laguna	11	Noviembre	2023-11-22T00:00:00	2024-11-08T06:00:00	4	Temperatura máxima	14.6
90595	7	Sololá	717	San Juan la Laguna	12	San Juan la Laguna	11	Noviembre	2023-11-22T00:00:00	2024-11-08T06:00:00	3	Temperatura mínima	13.6
90596	7	Sololá	717	San Juan la Laguna	12	San Juan la Laguna	11	Noviembre	2023-11-22T00:00:00	2024-11-08T06:00:00	5	Humedad	84
90597	7	Sololá	717	San Juan la Laguna	12	San Juan la Laguna	11	Noviembre	2023-11-22T00:00:00	2024-11-08T06:00:00	6	Velocidad del viento	4.8
90598	7	Sololá	717	San Juan la Laguna	12	San Juan la Laguna	11	Noviembre	2023-11-22T00:00:00	2024-11-08T06:00:00	7	Dirección del viento	4.83
90599	7	Sololá	717	San Juan la Laguna	12	San Juan la Laguna	11	Noviembre	2023-11-22T00:00:00	2024-11-08T06:00:00	1	Precipitación	0
90600	7	Sololá	717	San Juan la Laguna	12	San Juan la Laguna	11	Noviembre	2023-11-22T00:00:00	2024-11-08T06:00:00	8	Radiación solar	0
90601	7	Sololá	717	San Juan la Laguna	12	San Juan la Laguna	11	Noviembre	2023-11-22T00:00:00	2024-11-08T07:00:00	2	Temperatura media	14.3
90602	7	Sololá	717	San Juan la Laguna	12	San Juan la Laguna	11	Noviembre	2023-11-22T00:00:00	2024-11-08T07:00:00	4	Temperatura máxima	14.3
90603	7	Sololá	717	San Juan la Laguna	12	San Juan la Laguna	11	Noviembre	2023-11-22T00:00:00	2024-11-08T07:00:00	3	Temperatura mínima	13.4
90604	7	Sololá	717	San Juan la Laguna	12	San Juan la Laguna	11	Noviembre	2023-11-22T00:00:00	2024-11-08T07:00:00	5	Humedad	84
90605	7	Sololá	717	San Juan la Laguna	12	San Juan la Laguna	11	Noviembre	2023-11-22T00:00:00	2024-11-08T07:00:00	6	Velocidad del viento	4.8
90606	7	Sololá	717	San Juan la Laguna	12	San Juan la Laguna	11	Noviembre	2023-11-22T00:00:00	2024-11-08T07:00:00	7	Dirección del viento	4.83
90607	7	Sololá	717	San Juan la Laguna	12	San Juan la Laguna	11	Noviembre	2023-11-22T00:00:00	2024-11-08T07:00:00	1	Precipitación	0
90608	7	Sololá	717	San Juan la Laguna	12	San Juan la Laguna	11	Noviembre	2023-11-22T00:00:00	2024-11-08T07:00:00	8	Radiación solar	24
90609	7	Sololá	717	San Juan la Laguna	12	San Juan la Laguna	11	Noviembre	2023-11-22T00:00:00	2024-11-08T08:00:00	2	Temperatura media	18.4
90610	7	Sololá	717	San Juan la Laguna	12	San Juan la Laguna	11	Noviembre	2023-11-22T00:00:00	2024-11-08T08:00:00	4	Temperatura máxima	18.4
90611	7	Sololá	717	San Juan la Laguna	12	San Juan la Laguna	11	Noviembre	2023-11-22T00:00:00	2024-11-08T08:00:00	3	Temperatura mínima	14.3
90612	7	Sololá	717	San Juan la Laguna	12	San Juan la Laguna	11	Noviembre	2023-11-22T00:00:00	2024-11-08T08:00:00	5	Humedad	75
90613	7	Sololá	717	San Juan la Laguna	12	San Juan la Laguna	11	Noviembre	2023-11-22T00:00:00	2024-11-08T08:00:00	6	Velocidad del viento	3.2
90614	7	Sololá	717	San Juan la Laguna	12	San Juan la Laguna	11	Noviembre	2023-11-22T00:00:00	2024-11-08T08:00:00	7	Dirección del viento	3.22
90615	7	Sololá	717	San Juan la Laguna	12	San Juan la Laguna	11	Noviembre	2023-11-22T00:00:00	2024-11-08T08:00:00	1	Precipitación	0
90616	7	Sololá	717	San Juan la Laguna	12	San Juan la Laguna	11	Noviembre	2023-11-22T00:00:00	2024-11-08T08:00:00	8	Radiación solar	203
90617	7	Sololá	717	San Juan la Laguna	12	San Juan la Laguna	11	Noviembre	2023-11-22T00:00:00	2024-11-08T09:00:00	2	Temperatura media	22
90618	7	Sololá	717	San Juan la Laguna	12	San Juan la Laguna	11	Noviembre	2023-11-22T00:00:00	2024-11-08T09:00:00	4	Temperatura máxima	22
90619	7	Sololá	717	San Juan la Laguna	12	San Juan la Laguna	11	Noviembre	2023-11-22T00:00:00	2024-11-08T09:00:00	3	Temperatura mínima	18.5
90620	7	Sololá	717	San Juan la Laguna	12	San Juan la Laguna	11	Noviembre	2023-11-22T00:00:00	2024-11-08T09:00:00	5	Humedad	61
90621	7	Sololá	717	San Juan la Laguna	12	San Juan la Laguna	11	Noviembre	2023-11-22T00:00:00	2024-11-08T09:00:00	6	Velocidad del viento	3.2
90622	7	Sololá	717	San Juan la Laguna	12	San Juan la Laguna	11	Noviembre	2023-11-22T00:00:00	2024-11-08T09:00:00	7	Dirección del viento	3.22
90623	7	Sololá	717	San Juan la Laguna	12	San Juan la Laguna	11	Noviembre	2023-11-22T00:00:00	2024-11-08T09:00:00	1	Precipitación	0
90624	7	Sololá	717	San Juan la Laguna	12	San Juan la Laguna	11	Noviembre	2023-11-22T00:00:00	2024-11-08T09:00:00	8	Radiación solar	418
90625	7	Sololá	717	San Juan la Laguna	12	San Juan la Laguna	11	Noviembre	2023-11-22T00:00:00	2024-11-08T10:00:00	2	Temperatura media	23.8
90626	7	Sololá	717	San Juan la Laguna	12	San Juan la Laguna	11	Noviembre	2023-11-22T00:00:00	2024-11-08T10:00:00	4	Temperatura máxima	23.8
90627	7	Sololá	717	San Juan la Laguna	12	San Juan la Laguna	11	Noviembre	2023-11-22T00:00:00	2024-11-08T10:00:00	3	Temperatura mínima	22
90628	7	Sololá	717	San Juan la Laguna	12	San Juan la Laguna	11	Noviembre	2023-11-22T00:00:00	2024-11-08T10:00:00	5	Humedad	58
90629	7	Sololá	717	San Juan la Laguna	12	San Juan la Laguna	11	Noviembre	2023-11-22T00:00:00	2024-11-08T10:00:00	6	Velocidad del viento	4.8
90630	7	Sololá	717	San Juan la Laguna	12	San Juan la Laguna	11	Noviembre	2023-11-22T00:00:00	2024-11-08T10:00:00	7	Dirección del viento	4.83
90631	7	Sololá	717	San Juan la Laguna	12	San Juan la Laguna	11	Noviembre	2023-11-22T00:00:00	2024-11-08T10:00:00	1	Precipitación	0
90632	7	Sololá	717	San Juan la Laguna	12	San Juan la Laguna	11	Noviembre	2023-11-22T00:00:00	2024-11-08T10:00:00	8	Radiación solar	582
90633	7	Sololá	717	San Juan la Laguna	12	San Juan la Laguna	11	Noviembre	2023-11-22T00:00:00	2024-11-08T11:00:00	2	Temperatura media	24.9
90634	7	Sololá	717	San Juan la Laguna	12	San Juan la Laguna	11	Noviembre	2023-11-22T00:00:00	2024-11-08T11:00:00	4	Temperatura máxima	25
90635	7	Sololá	717	San Juan la Laguna	12	San Juan la Laguna	11	Noviembre	2023-11-22T00:00:00	2024-11-08T11:00:00	3	Temperatura mínima	23.4
90636	7	Sololá	717	San Juan la Laguna	12	San Juan la Laguna	11	Noviembre	2023-11-22T00:00:00	2024-11-08T11:00:00	5	Humedad	55
90637	7	Sololá	717	San Juan la Laguna	12	San Juan la Laguna	11	Noviembre	2023-11-22T00:00:00	2024-11-08T11:00:00	6	Velocidad del viento	6.4
90638	7	Sololá	717	San Juan la Laguna	12	San Juan la Laguna	11	Noviembre	2023-11-22T00:00:00	2024-11-08T11:00:00	7	Dirección del viento	6.44
90639	7	Sololá	717	San Juan la Laguna	12	San Juan la Laguna	11	Noviembre	2023-11-22T00:00:00	2024-11-08T11:00:00	1	Precipitación	0
90640	7	Sololá	717	San Juan la Laguna	12	San Juan la Laguna	11	Noviembre	2023-11-22T00:00:00	2024-11-08T11:00:00	8	Radiación solar	611
90641	7	Sololá	717	San Juan la Laguna	12	San Juan la Laguna	11	Noviembre	2023-11-22T00:00:00	2024-11-08T12:00:00	2	Temperatura media	24.5
90642	7	Sololá	717	San Juan la Laguna	12	San Juan la Laguna	11	Noviembre	2023-11-22T00:00:00	2024-11-08T12:00:00	4	Temperatura máxima	25
90643	7	Sololá	717	San Juan la Laguna	12	San Juan la Laguna	11	Noviembre	2023-11-22T00:00:00	2024-11-08T12:00:00	3	Temperatura mínima	24.5
90644	7	Sololá	717	San Juan la Laguna	12	San Juan la Laguna	11	Noviembre	2023-11-22T00:00:00	2024-11-08T12:00:00	5	Humedad	57
90645	7	Sololá	717	San Juan la Laguna	12	San Juan la Laguna	11	Noviembre	2023-11-22T00:00:00	2024-11-08T12:00:00	6	Velocidad del viento	9.7
90646	7	Sololá	717	San Juan la Laguna	12	San Juan la Laguna	11	Noviembre	2023-11-22T00:00:00	2024-11-08T12:00:00	7	Dirección del viento	9.66
90647	7	Sololá	717	San Juan la Laguna	12	San Juan la Laguna	11	Noviembre	2023-11-22T00:00:00	2024-11-08T12:00:00	1	Precipitación	0
90648	7	Sololá	717	San Juan la Laguna	12	San Juan la Laguna	11	Noviembre	2023-11-22T00:00:00	2024-11-08T12:00:00	8	Radiación solar	766
90649	7	Sololá	717	San Juan la Laguna	12	San Juan la Laguna	11	Noviembre	2023-11-22T00:00:00	2024-11-08T13:00:00	2	Temperatura media	25
90650	7	Sololá	717	San Juan la Laguna	12	San Juan la Laguna	11	Noviembre	2023-11-22T00:00:00	2024-11-08T13:00:00	4	Temperatura máxima	25.2
90651	7	Sololá	717	San Juan la Laguna	12	San Juan la Laguna	11	Noviembre	2023-11-22T00:00:00	2024-11-08T13:00:00	3	Temperatura mínima	24.3
90652	7	Sololá	717	San Juan la Laguna	12	San Juan la Laguna	11	Noviembre	2023-11-22T00:00:00	2024-11-08T13:00:00	5	Humedad	54
90653	7	Sololá	717	San Juan la Laguna	12	San Juan la Laguna	11	Noviembre	2023-11-22T00:00:00	2024-11-08T13:00:00	6	Velocidad del viento	9.7
90654	7	Sololá	717	San Juan la Laguna	12	San Juan la Laguna	11	Noviembre	2023-11-22T00:00:00	2024-11-08T13:00:00	7	Dirección del viento	9.66
90655	7	Sololá	717	San Juan la Laguna	12	San Juan la Laguna	11	Noviembre	2023-11-22T00:00:00	2024-11-08T13:00:00	1	Precipitación	0
90656	7	Sololá	717	San Juan la Laguna	12	San Juan la Laguna	11	Noviembre	2023-11-22T00:00:00	2024-11-08T13:00:00	8	Radiación solar	730
90657	7	Sololá	717	San Juan la Laguna	12	San Juan la Laguna	11	Noviembre	2023-11-22T00:00:00	2024-11-08T14:00:00	2	Temperatura media	23.7
90658	7	Sololá	717	San Juan la Laguna	12	San Juan la Laguna	11	Noviembre	2023-11-22T00:00:00	2024-11-08T14:00:00	4	Temperatura máxima	24.9
90659	7	Sololá	717	San Juan la Laguna	12	San Juan la Laguna	11	Noviembre	2023-11-22T00:00:00	2024-11-08T14:00:00	3	Temperatura mínima	23.7
90660	7	Sololá	717	San Juan la Laguna	12	San Juan la Laguna	11	Noviembre	2023-11-22T00:00:00	2024-11-08T14:00:00	5	Humedad	58
90661	7	Sololá	717	San Juan la Laguna	12	San Juan la Laguna	11	Noviembre	2023-11-22T00:00:00	2024-11-08T14:00:00	6	Velocidad del viento	9.7
90662	7	Sololá	717	San Juan la Laguna	12	San Juan la Laguna	11	Noviembre	2023-11-22T00:00:00	2024-11-08T14:00:00	7	Dirección del viento	9.66
90663	7	Sololá	717	San Juan la Laguna	12	San Juan la Laguna	11	Noviembre	2023-11-22T00:00:00	2024-11-08T14:00:00	1	Precipitación	0
90664	7	Sololá	717	San Juan la Laguna	12	San Juan la Laguna	11	Noviembre	2023-11-22T00:00:00	2024-11-08T14:00:00	8	Radiación solar	400
90665	7	Sololá	717	San Juan la Laguna	12	San Juan la Laguna	11	Noviembre	2023-11-22T00:00:00	2024-11-08T15:00:00	2	Temperatura media	23.2
90666	7	Sololá	717	San Juan la Laguna	12	San Juan la Laguna	11	Noviembre	2023-11-22T00:00:00	2024-11-08T15:00:00	4	Temperatura máxima	24
90667	7	Sololá	717	San Juan la Laguna	12	San Juan la Laguna	11	Noviembre	2023-11-22T00:00:00	2024-11-08T15:00:00	3	Temperatura mínima	23.2
90668	7	Sololá	717	San Juan la Laguna	12	San Juan la Laguna	11	Noviembre	2023-11-22T00:00:00	2024-11-08T15:00:00	5	Humedad	61
90669	7	Sololá	717	San Juan la Laguna	12	San Juan la Laguna	11	Noviembre	2023-11-22T00:00:00	2024-11-08T15:00:00	6	Velocidad del viento	6.4
90670	7	Sololá	717	San Juan la Laguna	12	San Juan la Laguna	11	Noviembre	2023-11-22T00:00:00	2024-11-08T15:00:00	7	Dirección del viento	6.44
90671	7	Sololá	717	San Juan la Laguna	12	San Juan la Laguna	11	Noviembre	2023-11-22T00:00:00	2024-11-08T15:00:00	1	Precipitación	0
90672	7	Sololá	717	San Juan la Laguna	12	San Juan la Laguna	11	Noviembre	2023-11-22T00:00:00	2024-11-08T15:00:00	8	Radiación solar	278
90673	7	Sololá	717	San Juan la Laguna	12	San Juan la Laguna	11	Noviembre	2023-11-22T00:00:00	2024-11-08T16:00:00	2	Temperatura media	22.4
90674	7	Sololá	717	San Juan la Laguna	12	San Juan la Laguna	11	Noviembre	2023-11-22T00:00:00	2024-11-08T16:00:00	4	Temperatura máxima	23.2
90675	7	Sololá	717	San Juan la Laguna	12	San Juan la Laguna	11	Noviembre	2023-11-22T00:00:00	2024-11-08T16:00:00	3	Temperatura mínima	22.3
90676	7	Sololá	717	San Juan la Laguna	12	San Juan la Laguna	11	Noviembre	2023-11-22T00:00:00	2024-11-08T16:00:00	5	Humedad	63
90677	7	Sololá	717	San Juan la Laguna	12	San Juan la Laguna	11	Noviembre	2023-11-22T00:00:00	2024-11-08T16:00:00	6	Velocidad del viento	6.4
90678	7	Sololá	717	San Juan la Laguna	12	San Juan la Laguna	11	Noviembre	2023-11-22T00:00:00	2024-11-08T16:00:00	7	Dirección del viento	6.44
90679	7	Sololá	717	San Juan la Laguna	12	San Juan la Laguna	11	Noviembre	2023-11-22T00:00:00	2024-11-08T16:00:00	1	Precipitación	0
90680	7	Sololá	717	San Juan la Laguna	12	San Juan la Laguna	11	Noviembre	2023-11-22T00:00:00	2024-11-08T16:00:00	8	Radiación solar	146
90681	7	Sololá	717	San Juan la Laguna	12	San Juan la Laguna	11	Noviembre	2023-11-22T00:00:00	2024-11-08T17:00:00	2	Temperatura media	21.3
90682	7	Sololá	717	San Juan la Laguna	12	San Juan la Laguna	11	Noviembre	2023-11-22T00:00:00	2024-11-08T17:00:00	4	Temperatura máxima	22.6
90683	7	Sololá	717	San Juan la Laguna	12	San Juan la Laguna	11	Noviembre	2023-11-22T00:00:00	2024-11-08T17:00:00	3	Temperatura mínima	21.3
90684	7	Sololá	717	San Juan la Laguna	12	San Juan la Laguna	11	Noviembre	2023-11-22T00:00:00	2024-11-08T17:00:00	5	Humedad	67
90685	7	Sololá	717	San Juan la Laguna	12	San Juan la Laguna	11	Noviembre	2023-11-22T00:00:00	2024-11-08T17:00:00	6	Velocidad del viento	8
90686	7	Sololá	717	San Juan la Laguna	12	San Juan la Laguna	11	Noviembre	2023-11-22T00:00:00	2024-11-08T17:00:00	7	Dirección del viento	8.05
90687	7	Sololá	717	San Juan la Laguna	12	San Juan la Laguna	11	Noviembre	2023-11-22T00:00:00	2024-11-08T17:00:00	1	Precipitación	0
90688	7	Sololá	717	San Juan la Laguna	12	San Juan la Laguna	11	Noviembre	2023-11-22T00:00:00	2024-11-08T17:00:00	8	Radiación solar	99
90689	7	Sololá	717	San Juan la Laguna	12	San Juan la Laguna	11	Noviembre	2023-11-22T00:00:00	2024-11-08T18:00:00	2	Temperatura media	20.4
90690	7	Sololá	717	San Juan la Laguna	12	San Juan la Laguna	11	Noviembre	2023-11-22T00:00:00	2024-11-08T18:00:00	4	Temperatura máxima	21.3
90691	7	Sololá	717	San Juan la Laguna	12	San Juan la Laguna	11	Noviembre	2023-11-22T00:00:00	2024-11-08T18:00:00	3	Temperatura mínima	20.4
90692	7	Sololá	717	San Juan la Laguna	12	San Juan la Laguna	11	Noviembre	2023-11-22T00:00:00	2024-11-08T18:00:00	5	Humedad	70
90693	7	Sololá	717	San Juan la Laguna	12	San Juan la Laguna	11	Noviembre	2023-11-22T00:00:00	2024-11-08T18:00:00	6	Velocidad del viento	8
90694	7	Sololá	717	San Juan la Laguna	12	San Juan la Laguna	11	Noviembre	2023-11-22T00:00:00	2024-11-08T18:00:00	7	Dirección del viento	8.05
90695	7	Sololá	717	San Juan la Laguna	12	San Juan la Laguna	11	Noviembre	2023-11-22T00:00:00	2024-11-08T18:00:00	1	Precipitación	0
90696	7	Sololá	717	San Juan la Laguna	12	San Juan la Laguna	11	Noviembre	2023-11-22T00:00:00	2024-11-08T18:00:00	8	Radiación solar	8
90697	7	Sololá	717	San Juan la Laguna	12	San Juan la Laguna	11	Noviembre	2023-11-22T00:00:00	2024-11-08T19:00:00	2	Temperatura media	19.8
90698	7	Sololá	717	San Juan la Laguna	12	San Juan la Laguna	11	Noviembre	2023-11-22T00:00:00	2024-11-08T19:00:00	4	Temperatura máxima	20.4
90699	7	Sololá	717	San Juan la Laguna	12	San Juan la Laguna	11	Noviembre	2023-11-22T00:00:00	2024-11-08T19:00:00	3	Temperatura mínima	19.8
90700	7	Sololá	717	San Juan la Laguna	12	San Juan la Laguna	11	Noviembre	2023-11-22T00:00:00	2024-11-08T19:00:00	5	Humedad	73
90701	7	Sololá	717	San Juan la Laguna	12	San Juan la Laguna	11	Noviembre	2023-11-22T00:00:00	2024-11-08T19:00:00	6	Velocidad del viento	4.8
90702	7	Sololá	717	San Juan la Laguna	12	San Juan la Laguna	11	Noviembre	2023-11-22T00:00:00	2024-11-08T19:00:00	7	Dirección del viento	4.83
90703	7	Sololá	717	San Juan la Laguna	12	San Juan la Laguna	11	Noviembre	2023-11-22T00:00:00	2024-11-08T19:00:00	1	Precipitación	0
90704	7	Sololá	717	San Juan la Laguna	12	San Juan la Laguna	11	Noviembre	2023-11-22T00:00:00	2024-11-08T19:00:00	8	Radiación solar	0
90705	7	Sololá	717	San Juan la Laguna	12	San Juan la Laguna	11	Noviembre	2023-11-22T00:00:00	2024-11-08T20:00:00	2	Temperatura media	19.3
90706	7	Sololá	717	San Juan la Laguna	12	San Juan la Laguna	11	Noviembre	2023-11-22T00:00:00	2024-11-08T20:00:00	4	Temperatura máxima	19.8
90707	7	Sololá	717	San Juan la Laguna	12	San Juan la Laguna	11	Noviembre	2023-11-22T00:00:00	2024-11-08T20:00:00	3	Temperatura mínima	19.3
90708	7	Sololá	717	San Juan la Laguna	12	San Juan la Laguna	11	Noviembre	2023-11-22T00:00:00	2024-11-08T20:00:00	5	Humedad	75
90709	7	Sololá	717	San Juan la Laguna	12	San Juan la Laguna	11	Noviembre	2023-11-22T00:00:00	2024-11-08T20:00:00	6	Velocidad del viento	3.2
90710	7	Sololá	717	San Juan la Laguna	12	San Juan la Laguna	11	Noviembre	2023-11-22T00:00:00	2024-11-08T20:00:00	7	Dirección del viento	3.22
90711	7	Sololá	717	San Juan la Laguna	12	San Juan la Laguna	11	Noviembre	2023-11-22T00:00:00	2024-11-08T20:00:00	1	Precipitación	0
90712	7	Sololá	717	San Juan la Laguna	12	San Juan la Laguna	11	Noviembre	2023-11-22T00:00:00	2024-11-08T20:00:00	8	Radiación solar	0
90713	7	Sololá	717	San Juan la Laguna	12	San Juan la Laguna	11	Noviembre	2023-11-22T00:00:00	2024-11-08T21:00:00	2	Temperatura media	18.9
90714	7	Sololá	717	San Juan la Laguna	12	San Juan la Laguna	11	Noviembre	2023-11-22T00:00:00	2024-11-08T21:00:00	4	Temperatura máxima	19.3
90715	7	Sololá	717	San Juan la Laguna	12	San Juan la Laguna	11	Noviembre	2023-11-22T00:00:00	2024-11-08T21:00:00	3	Temperatura mínima	17.9
90716	7	Sololá	717	San Juan la Laguna	12	San Juan la Laguna	11	Noviembre	2023-11-22T00:00:00	2024-11-08T21:00:00	5	Humedad	75
90717	7	Sololá	717	San Juan la Laguna	12	San Juan la Laguna	11	Noviembre	2023-11-22T00:00:00	2024-11-08T21:00:00	6	Velocidad del viento	3.2
90718	7	Sololá	717	San Juan la Laguna	12	San Juan la Laguna	11	Noviembre	2023-11-22T00:00:00	2024-11-08T21:00:00	7	Dirección del viento	3.22
90719	7	Sololá	717	San Juan la Laguna	12	San Juan la Laguna	11	Noviembre	2023-11-22T00:00:00	2024-11-08T21:00:00	1	Precipitación	0
90720	7	Sololá	717	San Juan la Laguna	12	San Juan la Laguna	11	Noviembre	2023-11-22T00:00:00	2024-11-08T21:00:00	8	Radiación solar	0
90721	7	Sololá	717	San Juan la Laguna	12	San Juan la Laguna	11	Noviembre	2023-11-22T00:00:00	2024-11-08T22:00:00	2	Temperatura media	18.4
90722	7	Sololá	717	San Juan la Laguna	12	San Juan la Laguna	11	Noviembre	2023-11-22T00:00:00	2024-11-08T22:00:00	4	Temperatura máxima	19.1
90723	7	Sololá	717	San Juan la Laguna	12	San Juan la Laguna	11	Noviembre	2023-11-22T00:00:00	2024-11-08T22:00:00	3	Temperatura mínima	18.4
90724	7	Sololá	717	San Juan la Laguna	12	San Juan la Laguna	11	Noviembre	2023-11-22T00:00:00	2024-11-08T22:00:00	5	Humedad	76
90725	7	Sololá	717	San Juan la Laguna	12	San Juan la Laguna	11	Noviembre	2023-11-22T00:00:00	2024-11-08T22:00:00	6	Velocidad del viento	1.6
90726	7	Sololá	717	San Juan la Laguna	12	San Juan la Laguna	11	Noviembre	2023-11-22T00:00:00	2024-11-08T22:00:00	7	Dirección del viento	1.61
90727	7	Sololá	717	San Juan la Laguna	12	San Juan la Laguna	11	Noviembre	2023-11-22T00:00:00	2024-11-08T22:00:00	1	Precipitación	0
90728	7	Sololá	717	San Juan la Laguna	12	San Juan la Laguna	11	Noviembre	2023-11-22T00:00:00	2024-11-08T22:00:00	8	Radiación solar	0
90729	7	Sololá	717	San Juan la Laguna	12	San Juan la Laguna	11	Noviembre	2023-11-22T00:00:00	2024-11-08T23:00:00	2	Temperatura media	17.2
90730	7	Sololá	717	San Juan la Laguna	12	San Juan la Laguna	11	Noviembre	2023-11-22T00:00:00	2024-11-08T23:00:00	4	Temperatura máxima	18.7
90731	7	Sololá	717	San Juan la Laguna	12	San Juan la Laguna	11	Noviembre	2023-11-22T00:00:00	2024-11-08T23:00:00	3	Temperatura mínima	17.2
90732	7	Sololá	717	San Juan la Laguna	12	San Juan la Laguna	11	Noviembre	2023-11-22T00:00:00	2024-11-08T23:00:00	5	Humedad	81
90733	7	Sololá	717	San Juan la Laguna	12	San Juan la Laguna	11	Noviembre	2023-11-22T00:00:00	2024-11-08T23:00:00	6	Velocidad del viento	3.2
90734	7	Sololá	717	San Juan la Laguna	12	San Juan la Laguna	11	Noviembre	2023-11-22T00:00:00	2024-11-08T23:00:00	7	Dirección del viento	3.22
90735	7	Sololá	717	San Juan la Laguna	12	San Juan la Laguna	11	Noviembre	2023-11-22T00:00:00	2024-11-08T23:00:00	1	Precipitación	0
90736	7	Sololá	717	San Juan la Laguna	12	San Juan la Laguna	11	Noviembre	2023-11-22T00:00:00	2024-11-08T23:00:00	8	Radiación solar	0
90737	7	Sololá	717	San Juan la Laguna	12	San Juan la Laguna	11	Noviembre	2023-11-23T00:00:00	2024-11-08T00:00:00	2	Temperatura media	17
90738	7	Sololá	717	San Juan la Laguna	12	San Juan la Laguna	11	Noviembre	2023-11-23T00:00:00	2024-11-08T00:00:00	4	Temperatura máxima	17.2
90739	7	Sololá	717	San Juan la Laguna	12	San Juan la Laguna	11	Noviembre	2023-11-23T00:00:00	2024-11-08T00:00:00	3	Temperatura mínima	16.8
90740	7	Sololá	717	San Juan la Laguna	12	San Juan la Laguna	11	Noviembre	2023-11-23T00:00:00	2024-11-08T00:00:00	5	Humedad	80
90741	7	Sololá	717	San Juan la Laguna	12	San Juan la Laguna	11	Noviembre	2023-11-23T00:00:00	2024-11-08T00:00:00	6	Velocidad del viento	3.2
90742	7	Sololá	717	San Juan la Laguna	12	San Juan la Laguna	11	Noviembre	2023-11-23T00:00:00	2024-11-08T00:00:00	7	Dirección del viento	3.22
90743	7	Sololá	717	San Juan la Laguna	12	San Juan la Laguna	11	Noviembre	2023-11-23T00:00:00	2024-11-08T00:00:00	1	Precipitación	0
90744	7	Sololá	717	San Juan la Laguna	12	San Juan la Laguna	11	Noviembre	2023-11-23T00:00:00	2024-11-08T00:00:00	8	Radiación solar	0
90745	7	Sololá	717	San Juan la Laguna	12	San Juan la Laguna	11	Noviembre	2023-11-23T00:00:00	2024-11-08T01:00:00	2	Temperatura media	17.1
90746	7	Sololá	717	San Juan la Laguna	12	San Juan la Laguna	11	Noviembre	2023-11-23T00:00:00	2024-11-08T01:00:00	4	Temperatura máxima	17.4
90747	7	Sololá	717	San Juan la Laguna	12	San Juan la Laguna	11	Noviembre	2023-11-23T00:00:00	2024-11-08T01:00:00	3	Temperatura mínima	16.9
90748	7	Sololá	717	San Juan la Laguna	12	San Juan la Laguna	11	Noviembre	2023-11-23T00:00:00	2024-11-08T01:00:00	5	Humedad	81
90749	7	Sololá	717	San Juan la Laguna	12	San Juan la Laguna	11	Noviembre	2023-11-23T00:00:00	2024-11-08T01:00:00	6	Velocidad del viento	4.8
90750	7	Sololá	717	San Juan la Laguna	12	San Juan la Laguna	11	Noviembre	2023-11-23T00:00:00	2024-11-08T01:00:00	7	Dirección del viento	4.83
90751	7	Sololá	717	San Juan la Laguna	12	San Juan la Laguna	11	Noviembre	2023-11-23T00:00:00	2024-11-08T01:00:00	1	Precipitación	0
90752	7	Sololá	717	San Juan la Laguna	12	San Juan la Laguna	11	Noviembre	2023-11-23T00:00:00	2024-11-08T01:00:00	8	Radiación solar	0
90753	7	Sololá	717	San Juan la Laguna	12	San Juan la Laguna	11	Noviembre	2023-11-23T00:00:00	2024-11-08T02:00:00	2	Temperatura media	16.6
90754	7	Sololá	717	San Juan la Laguna	12	San Juan la Laguna	11	Noviembre	2023-11-23T00:00:00	2024-11-08T02:00:00	4	Temperatura máxima	17.6
90755	7	Sololá	717	San Juan la Laguna	12	San Juan la Laguna	11	Noviembre	2023-11-23T00:00:00	2024-11-08T02:00:00	3	Temperatura mínima	16.6
90756	7	Sololá	717	San Juan la Laguna	12	San Juan la Laguna	11	Noviembre	2023-11-23T00:00:00	2024-11-08T02:00:00	5	Humedad	82
90757	7	Sololá	717	San Juan la Laguna	12	San Juan la Laguna	11	Noviembre	2023-11-23T00:00:00	2024-11-08T02:00:00	6	Velocidad del viento	4.8
90758	7	Sololá	717	San Juan la Laguna	12	San Juan la Laguna	11	Noviembre	2023-11-23T00:00:00	2024-11-08T02:00:00	7	Dirección del viento	4.83
90759	7	Sololá	717	San Juan la Laguna	12	San Juan la Laguna	11	Noviembre	2023-11-23T00:00:00	2024-11-08T02:00:00	1	Precipitación	0
90760	7	Sololá	717	San Juan la Laguna	12	San Juan la Laguna	11	Noviembre	2023-11-23T00:00:00	2024-11-08T02:00:00	8	Radiación solar	0
90761	7	Sololá	717	San Juan la Laguna	12	San Juan la Laguna	11	Noviembre	2023-11-23T00:00:00	2024-11-08T03:00:00	2	Temperatura media	15.1
90762	7	Sololá	717	San Juan la Laguna	12	San Juan la Laguna	11	Noviembre	2023-11-23T00:00:00	2024-11-08T03:00:00	4	Temperatura máxima	16.6
90763	7	Sololá	717	San Juan la Laguna	12	San Juan la Laguna	11	Noviembre	2023-11-23T00:00:00	2024-11-08T03:00:00	3	Temperatura mínima	15.1
90764	7	Sololá	717	San Juan la Laguna	12	San Juan la Laguna	11	Noviembre	2023-11-23T00:00:00	2024-11-08T03:00:00	5	Humedad	86
90765	7	Sololá	717	San Juan la Laguna	12	San Juan la Laguna	11	Noviembre	2023-11-23T00:00:00	2024-11-08T03:00:00	6	Velocidad del viento	3.2
90766	7	Sololá	717	San Juan la Laguna	12	San Juan la Laguna	11	Noviembre	2023-11-23T00:00:00	2024-11-08T03:00:00	7	Dirección del viento	3.22
90767	7	Sololá	717	San Juan la Laguna	12	San Juan la Laguna	11	Noviembre	2023-11-23T00:00:00	2024-11-08T03:00:00	1	Precipitación	0
90768	7	Sololá	717	San Juan la Laguna	12	San Juan la Laguna	11	Noviembre	2023-11-23T00:00:00	2024-11-08T03:00:00	8	Radiación solar	0
90769	7	Sololá	717	San Juan la Laguna	12	San Juan la Laguna	11	Noviembre	2023-11-23T00:00:00	2024-11-08T04:00:00	2	Temperatura media	14.7
90770	7	Sololá	717	San Juan la Laguna	12	San Juan la Laguna	11	Noviembre	2023-11-23T00:00:00	2024-11-08T04:00:00	4	Temperatura máxima	15.1
90771	7	Sololá	717	San Juan la Laguna	12	San Juan la Laguna	11	Noviembre	2023-11-23T00:00:00	2024-11-08T04:00:00	3	Temperatura mínima	14.7
90772	7	Sololá	717	San Juan la Laguna	12	San Juan la Laguna	11	Noviembre	2023-11-23T00:00:00	2024-11-08T04:00:00	5	Humedad	87
90773	7	Sololá	717	San Juan la Laguna	12	San Juan la Laguna	11	Noviembre	2023-11-23T00:00:00	2024-11-08T04:00:00	6	Velocidad del viento	4.8
90774	7	Sololá	717	San Juan la Laguna	12	San Juan la Laguna	11	Noviembre	2023-11-23T00:00:00	2024-11-08T04:00:00	7	Dirección del viento	4.83
90775	7	Sololá	717	San Juan la Laguna	12	San Juan la Laguna	11	Noviembre	2023-11-23T00:00:00	2024-11-08T04:00:00	1	Precipitación	0
90776	7	Sololá	717	San Juan la Laguna	12	San Juan la Laguna	11	Noviembre	2023-11-23T00:00:00	2024-11-08T04:00:00	8	Radiación solar	0
90777	7	Sololá	717	San Juan la Laguna	12	San Juan la Laguna	11	Noviembre	2023-11-23T00:00:00	2024-11-08T05:00:00	2	Temperatura media	14.7
90778	7	Sololá	717	San Juan la Laguna	12	San Juan la Laguna	11	Noviembre	2023-11-23T00:00:00	2024-11-08T05:00:00	4	Temperatura máxima	14.9
90779	7	Sololá	717	San Juan la Laguna	12	San Juan la Laguna	11	Noviembre	2023-11-23T00:00:00	2024-11-08T05:00:00	3	Temperatura mínima	14.5
90780	7	Sololá	717	San Juan la Laguna	12	San Juan la Laguna	11	Noviembre	2023-11-23T00:00:00	2024-11-08T05:00:00	5	Humedad	86
90781	7	Sololá	717	San Juan la Laguna	12	San Juan la Laguna	11	Noviembre	2023-11-23T00:00:00	2024-11-08T05:00:00	6	Velocidad del viento	4.8
90782	7	Sololá	717	San Juan la Laguna	12	San Juan la Laguna	11	Noviembre	2023-11-23T00:00:00	2024-11-08T05:00:00	7	Dirección del viento	4.83
90783	7	Sololá	717	San Juan la Laguna	12	San Juan la Laguna	11	Noviembre	2023-11-23T00:00:00	2024-11-08T05:00:00	1	Precipitación	0
90784	7	Sololá	717	San Juan la Laguna	12	San Juan la Laguna	11	Noviembre	2023-11-23T00:00:00	2024-11-08T05:00:00	8	Radiación solar	0
90785	7	Sololá	717	San Juan la Laguna	12	San Juan la Laguna	11	Noviembre	2023-11-23T00:00:00	2024-11-08T06:00:00	2	Temperatura media	14.3
90786	7	Sololá	717	San Juan la Laguna	12	San Juan la Laguna	11	Noviembre	2023-11-23T00:00:00	2024-11-08T06:00:00	4	Temperatura máxima	14.7
90787	7	Sololá	717	San Juan la Laguna	12	San Juan la Laguna	11	Noviembre	2023-11-23T00:00:00	2024-11-08T06:00:00	3	Temperatura mínima	14.3
90788	7	Sololá	717	San Juan la Laguna	12	San Juan la Laguna	11	Noviembre	2023-11-23T00:00:00	2024-11-08T06:00:00	5	Humedad	86
90789	7	Sololá	717	San Juan la Laguna	12	San Juan la Laguna	11	Noviembre	2023-11-23T00:00:00	2024-11-08T06:00:00	6	Velocidad del viento	4.8
90790	7	Sololá	717	San Juan la Laguna	12	San Juan la Laguna	11	Noviembre	2023-11-23T00:00:00	2024-11-08T06:00:00	7	Dirección del viento	4.83
90791	7	Sololá	717	San Juan la Laguna	12	San Juan la Laguna	11	Noviembre	2023-11-23T00:00:00	2024-11-08T06:00:00	1	Precipitación	0
90792	7	Sololá	717	San Juan la Laguna	12	San Juan la Laguna	11	Noviembre	2023-11-23T00:00:00	2024-11-08T06:00:00	8	Radiación solar	0
90793	7	Sololá	717	San Juan la Laguna	12	San Juan la Laguna	11	Noviembre	2023-11-23T00:00:00	2024-11-08T07:00:00	2	Temperatura media	14.9
90794	7	Sololá	717	San Juan la Laguna	12	San Juan la Laguna	11	Noviembre	2023-11-23T00:00:00	2024-11-08T07:00:00	4	Temperatura máxima	14.9
90795	7	Sololá	717	San Juan la Laguna	12	San Juan la Laguna	11	Noviembre	2023-11-23T00:00:00	2024-11-08T07:00:00	3	Temperatura mínima	14.2
90796	7	Sololá	717	San Juan la Laguna	12	San Juan la Laguna	11	Noviembre	2023-11-23T00:00:00	2024-11-08T07:00:00	5	Humedad	86
90797	7	Sololá	717	San Juan la Laguna	12	San Juan la Laguna	11	Noviembre	2023-11-23T00:00:00	2024-11-08T07:00:00	6	Velocidad del viento	4.8
90798	7	Sololá	717	San Juan la Laguna	12	San Juan la Laguna	11	Noviembre	2023-11-23T00:00:00	2024-11-08T07:00:00	7	Dirección del viento	4.83
90799	7	Sololá	717	San Juan la Laguna	12	San Juan la Laguna	11	Noviembre	2023-11-23T00:00:00	2024-11-08T07:00:00	1	Precipitación	0
90800	7	Sololá	717	San Juan la Laguna	12	San Juan la Laguna	11	Noviembre	2023-11-23T00:00:00	2024-11-08T07:00:00	8	Radiación solar	26
90801	7	Sololá	717	San Juan la Laguna	12	San Juan la Laguna	11	Noviembre	2023-11-23T00:00:00	2024-11-08T08:00:00	2	Temperatura media	18.9
90802	7	Sololá	717	San Juan la Laguna	12	San Juan la Laguna	11	Noviembre	2023-11-23T00:00:00	2024-11-08T08:00:00	4	Temperatura máxima	18.9
90803	7	Sololá	717	San Juan la Laguna	12	San Juan la Laguna	11	Noviembre	2023-11-23T00:00:00	2024-11-08T08:00:00	3	Temperatura mínima	14.8
90804	7	Sololá	717	San Juan la Laguna	12	San Juan la Laguna	11	Noviembre	2023-11-23T00:00:00	2024-11-08T08:00:00	5	Humedad	76
90805	7	Sololá	717	San Juan la Laguna	12	San Juan la Laguna	11	Noviembre	2023-11-23T00:00:00	2024-11-08T08:00:00	6	Velocidad del viento	3.2
90806	7	Sololá	717	San Juan la Laguna	12	San Juan la Laguna	11	Noviembre	2023-11-23T00:00:00	2024-11-08T08:00:00	7	Dirección del viento	3.22
90807	7	Sololá	717	San Juan la Laguna	12	San Juan la Laguna	11	Noviembre	2023-11-23T00:00:00	2024-11-08T08:00:00	1	Precipitación	0
90808	7	Sololá	717	San Juan la Laguna	12	San Juan la Laguna	11	Noviembre	2023-11-23T00:00:00	2024-11-08T08:00:00	8	Radiación solar	209
90809	7	Sololá	717	San Juan la Laguna	12	San Juan la Laguna	11	Noviembre	2023-11-23T00:00:00	2024-11-08T09:00:00	2	Temperatura media	21
90810	7	Sololá	717	San Juan la Laguna	12	San Juan la Laguna	11	Noviembre	2023-11-23T00:00:00	2024-11-08T09:00:00	4	Temperatura máxima	21.4
90811	7	Sololá	717	San Juan la Laguna	12	San Juan la Laguna	11	Noviembre	2023-11-23T00:00:00	2024-11-08T09:00:00	3	Temperatura mínima	18.9
90812	7	Sololá	717	San Juan la Laguna	12	San Juan la Laguna	11	Noviembre	2023-11-23T00:00:00	2024-11-08T09:00:00	5	Humedad	67
90813	7	Sololá	717	San Juan la Laguna	12	San Juan la Laguna	11	Noviembre	2023-11-23T00:00:00	2024-11-08T09:00:00	6	Velocidad del viento	3.2
90814	7	Sololá	717	San Juan la Laguna	12	San Juan la Laguna	11	Noviembre	2023-11-23T00:00:00	2024-11-08T09:00:00	7	Dirección del viento	3.22
90815	7	Sololá	717	San Juan la Laguna	12	San Juan la Laguna	11	Noviembre	2023-11-23T00:00:00	2024-11-08T09:00:00	1	Precipitación	0
90816	7	Sololá	717	San Juan la Laguna	12	San Juan la Laguna	11	Noviembre	2023-11-23T00:00:00	2024-11-08T09:00:00	8	Radiación solar	416
90817	7	Sololá	717	San Juan la Laguna	12	San Juan la Laguna	11	Noviembre	2023-11-23T00:00:00	2024-11-08T10:00:00	2	Temperatura media	22.4
90818	7	Sololá	717	San Juan la Laguna	12	San Juan la Laguna	11	Noviembre	2023-11-23T00:00:00	2024-11-08T10:00:00	4	Temperatura máxima	22.4
90819	7	Sololá	717	San Juan la Laguna	12	San Juan la Laguna	11	Noviembre	2023-11-23T00:00:00	2024-11-08T10:00:00	3	Temperatura mínima	21
90820	7	Sololá	717	San Juan la Laguna	12	San Juan la Laguna	11	Noviembre	2023-11-23T00:00:00	2024-11-08T10:00:00	5	Humedad	62
90821	7	Sololá	717	San Juan la Laguna	12	San Juan la Laguna	11	Noviembre	2023-11-23T00:00:00	2024-11-08T10:00:00	6	Velocidad del viento	4.8
90822	7	Sololá	717	San Juan la Laguna	12	San Juan la Laguna	11	Noviembre	2023-11-23T00:00:00	2024-11-08T10:00:00	7	Dirección del viento	4.83
90823	7	Sololá	717	San Juan la Laguna	12	San Juan la Laguna	11	Noviembre	2023-11-23T00:00:00	2024-11-08T10:00:00	1	Precipitación	0
90824	7	Sololá	717	San Juan la Laguna	12	San Juan la Laguna	11	Noviembre	2023-11-23T00:00:00	2024-11-08T10:00:00	8	Radiación solar	587
90825	7	Sololá	717	San Juan la Laguna	12	San Juan la Laguna	11	Noviembre	2023-11-23T00:00:00	2024-11-08T11:00:00	2	Temperatura media	22.7
90826	7	Sololá	717	San Juan la Laguna	12	San Juan la Laguna	11	Noviembre	2023-11-23T00:00:00	2024-11-08T11:00:00	4	Temperatura máxima	22.9
90827	7	Sololá	717	San Juan la Laguna	12	San Juan la Laguna	11	Noviembre	2023-11-23T00:00:00	2024-11-08T11:00:00	3	Temperatura mínima	21.9
90828	7	Sololá	717	San Juan la Laguna	12	San Juan la Laguna	11	Noviembre	2023-11-23T00:00:00	2024-11-08T11:00:00	5	Humedad	61
90829	7	Sololá	717	San Juan la Laguna	12	San Juan la Laguna	11	Noviembre	2023-11-23T00:00:00	2024-11-08T11:00:00	6	Velocidad del viento	6.4
90830	7	Sololá	717	San Juan la Laguna	12	San Juan la Laguna	11	Noviembre	2023-11-23T00:00:00	2024-11-08T11:00:00	7	Dirección del viento	6.44
90831	7	Sololá	717	San Juan la Laguna	12	San Juan la Laguna	11	Noviembre	2023-11-23T00:00:00	2024-11-08T11:00:00	1	Precipitación	0
90832	7	Sololá	717	San Juan la Laguna	12	San Juan la Laguna	11	Noviembre	2023-11-23T00:00:00	2024-11-08T11:00:00	8	Radiación solar	609
90833	7	Sololá	717	San Juan la Laguna	12	San Juan la Laguna	11	Noviembre	2023-11-23T00:00:00	2024-11-08T12:00:00	2	Temperatura media	23.3
90834	7	Sololá	717	San Juan la Laguna	12	San Juan la Laguna	11	Noviembre	2023-11-23T00:00:00	2024-11-08T12:00:00	4	Temperatura máxima	24.1
90835	7	Sololá	717	San Juan la Laguna	12	San Juan la Laguna	11	Noviembre	2023-11-23T00:00:00	2024-11-08T12:00:00	3	Temperatura mínima	22.4
90836	7	Sololá	717	San Juan la Laguna	12	San Juan la Laguna	11	Noviembre	2023-11-23T00:00:00	2024-11-08T12:00:00	5	Humedad	60
90837	7	Sololá	717	San Juan la Laguna	12	San Juan la Laguna	11	Noviembre	2023-11-23T00:00:00	2024-11-08T12:00:00	6	Velocidad del viento	4.8
90838	7	Sololá	717	San Juan la Laguna	12	San Juan la Laguna	11	Noviembre	2023-11-23T00:00:00	2024-11-08T12:00:00	7	Dirección del viento	4.83
90839	7	Sololá	717	San Juan la Laguna	12	San Juan la Laguna	11	Noviembre	2023-11-23T00:00:00	2024-11-08T12:00:00	1	Precipitación	0
90840	7	Sololá	717	San Juan la Laguna	12	San Juan la Laguna	11	Noviembre	2023-11-23T00:00:00	2024-11-08T12:00:00	8	Radiación solar	694
90841	7	Sololá	717	San Juan la Laguna	12	San Juan la Laguna	11	Noviembre	2023-11-23T00:00:00	2024-11-08T13:00:00	2	Temperatura media	23.5
90842	7	Sololá	717	San Juan la Laguna	12	San Juan la Laguna	11	Noviembre	2023-11-23T00:00:00	2024-11-08T13:00:00	4	Temperatura máxima	24.5
90843	7	Sololá	717	San Juan la Laguna	12	San Juan la Laguna	11	Noviembre	2023-11-23T00:00:00	2024-11-08T13:00:00	3	Temperatura mínima	23.2
90844	7	Sololá	717	San Juan la Laguna	12	San Juan la Laguna	11	Noviembre	2023-11-23T00:00:00	2024-11-08T13:00:00	5	Humedad	66
90845	7	Sololá	717	San Juan la Laguna	12	San Juan la Laguna	11	Noviembre	2023-11-23T00:00:00	2024-11-08T13:00:00	6	Velocidad del viento	4.8
90846	7	Sololá	717	San Juan la Laguna	12	San Juan la Laguna	11	Noviembre	2023-11-23T00:00:00	2024-11-08T13:00:00	7	Dirección del viento	4.83
90847	7	Sololá	717	San Juan la Laguna	12	San Juan la Laguna	11	Noviembre	2023-11-23T00:00:00	2024-11-08T13:00:00	1	Precipitación	0
90848	7	Sololá	717	San Juan la Laguna	12	San Juan la Laguna	11	Noviembre	2023-11-23T00:00:00	2024-11-08T13:00:00	8	Radiación solar	759
90849	7	Sololá	717	San Juan la Laguna	12	San Juan la Laguna	11	Noviembre	2023-11-23T00:00:00	2024-11-08T14:00:00	2	Temperatura media	23.6
90850	7	Sololá	717	San Juan la Laguna	12	San Juan la Laguna	11	Noviembre	2023-11-23T00:00:00	2024-11-08T14:00:00	4	Temperatura máxima	24.6
90851	7	Sololá	717	San Juan la Laguna	12	San Juan la Laguna	11	Noviembre	2023-11-23T00:00:00	2024-11-08T14:00:00	3	Temperatura mínima	22.8
90852	7	Sololá	717	San Juan la Laguna	12	San Juan la Laguna	11	Noviembre	2023-11-23T00:00:00	2024-11-08T14:00:00	5	Humedad	67
90853	7	Sololá	717	San Juan la Laguna	12	San Juan la Laguna	11	Noviembre	2023-11-23T00:00:00	2024-11-08T14:00:00	6	Velocidad del viento	6.4
90854	7	Sololá	717	San Juan la Laguna	12	San Juan la Laguna	11	Noviembre	2023-11-23T00:00:00	2024-11-08T14:00:00	7	Dirección del viento	6.44
90855	7	Sololá	717	San Juan la Laguna	12	San Juan la Laguna	11	Noviembre	2023-11-23T00:00:00	2024-11-08T14:00:00	1	Precipitación	0
90856	7	Sololá	717	San Juan la Laguna	12	San Juan la Laguna	11	Noviembre	2023-11-23T00:00:00	2024-11-08T14:00:00	8	Radiación solar	595
90857	7	Sololá	717	San Juan la Laguna	12	San Juan la Laguna	11	Noviembre	2023-11-23T00:00:00	2024-11-08T15:00:00	2	Temperatura media	22.4
90858	7	Sololá	717	San Juan la Laguna	12	San Juan la Laguna	11	Noviembre	2023-11-23T00:00:00	2024-11-08T15:00:00	4	Temperatura máxima	23.6
90859	7	Sololá	717	San Juan la Laguna	12	San Juan la Laguna	11	Noviembre	2023-11-23T00:00:00	2024-11-08T15:00:00	3	Temperatura mínima	22.4
90860	7	Sololá	717	San Juan la Laguna	12	San Juan la Laguna	11	Noviembre	2023-11-23T00:00:00	2024-11-08T15:00:00	5	Humedad	73
90861	7	Sololá	717	San Juan la Laguna	12	San Juan la Laguna	11	Noviembre	2023-11-23T00:00:00	2024-11-08T15:00:00	6	Velocidad del viento	6.4
90862	7	Sololá	717	San Juan la Laguna	12	San Juan la Laguna	11	Noviembre	2023-11-23T00:00:00	2024-11-08T15:00:00	7	Dirección del viento	6.44
90863	7	Sololá	717	San Juan la Laguna	12	San Juan la Laguna	11	Noviembre	2023-11-23T00:00:00	2024-11-08T15:00:00	1	Precipitación	0
90864	7	Sololá	717	San Juan la Laguna	12	San Juan la Laguna	11	Noviembre	2023-11-23T00:00:00	2024-11-08T15:00:00	8	Radiación solar	483
90865	7	Sololá	717	San Juan la Laguna	12	San Juan la Laguna	11	Noviembre	2023-11-23T00:00:00	2024-11-08T16:00:00	2	Temperatura media	20.9
90866	7	Sololá	717	San Juan la Laguna	12	San Juan la Laguna	11	Noviembre	2023-11-23T00:00:00	2024-11-08T16:00:00	4	Temperatura máxima	22.6
90867	7	Sololá	717	San Juan la Laguna	12	San Juan la Laguna	11	Noviembre	2023-11-23T00:00:00	2024-11-08T16:00:00	3	Temperatura mínima	20.9
90868	7	Sololá	717	San Juan la Laguna	12	San Juan la Laguna	11	Noviembre	2023-11-23T00:00:00	2024-11-08T16:00:00	5	Humedad	79
90869	7	Sololá	717	San Juan la Laguna	12	San Juan la Laguna	11	Noviembre	2023-11-23T00:00:00	2024-11-08T16:00:00	6	Velocidad del viento	4.8
90870	7	Sololá	717	San Juan la Laguna	12	San Juan la Laguna	11	Noviembre	2023-11-23T00:00:00	2024-11-08T16:00:00	7	Dirección del viento	4.83
90871	7	Sololá	717	San Juan la Laguna	12	San Juan la Laguna	11	Noviembre	2023-11-23T00:00:00	2024-11-08T16:00:00	1	Precipitación	0
90872	7	Sololá	717	San Juan la Laguna	12	San Juan la Laguna	11	Noviembre	2023-11-23T00:00:00	2024-11-08T16:00:00	8	Radiación solar	183
90873	7	Sololá	717	San Juan la Laguna	12	San Juan la Laguna	11	Noviembre	2023-11-23T00:00:00	2024-11-08T17:00:00	2	Temperatura media	20.1
90874	7	Sololá	717	San Juan la Laguna	12	San Juan la Laguna	11	Noviembre	2023-11-23T00:00:00	2024-11-08T17:00:00	4	Temperatura máxima	20.9
90875	7	Sololá	717	San Juan la Laguna	12	San Juan la Laguna	11	Noviembre	2023-11-23T00:00:00	2024-11-08T17:00:00	3	Temperatura mínima	20.1
90876	7	Sololá	717	San Juan la Laguna	12	San Juan la Laguna	11	Noviembre	2023-11-23T00:00:00	2024-11-08T17:00:00	5	Humedad	81
90877	7	Sololá	717	San Juan la Laguna	12	San Juan la Laguna	11	Noviembre	2023-11-23T00:00:00	2024-11-08T17:00:00	6	Velocidad del viento	4.8
90878	7	Sololá	717	San Juan la Laguna	12	San Juan la Laguna	11	Noviembre	2023-11-23T00:00:00	2024-11-08T17:00:00	7	Dirección del viento	4.83
90879	7	Sololá	717	San Juan la Laguna	12	San Juan la Laguna	11	Noviembre	2023-11-23T00:00:00	2024-11-08T17:00:00	1	Precipitación	0
90880	7	Sololá	717	San Juan la Laguna	12	San Juan la Laguna	11	Noviembre	2023-11-23T00:00:00	2024-11-08T17:00:00	8	Radiación solar	52
90881	7	Sololá	717	San Juan la Laguna	12	San Juan la Laguna	11	Noviembre	2023-11-23T00:00:00	2024-11-08T18:00:00	2	Temperatura media	19.3
90882	7	Sololá	717	San Juan la Laguna	12	San Juan la Laguna	11	Noviembre	2023-11-23T00:00:00	2024-11-08T18:00:00	4	Temperatura máxima	20.1
90883	7	Sololá	717	San Juan la Laguna	12	San Juan la Laguna	11	Noviembre	2023-11-23T00:00:00	2024-11-08T18:00:00	3	Temperatura mínima	19.3
90884	7	Sololá	717	San Juan la Laguna	12	San Juan la Laguna	11	Noviembre	2023-11-23T00:00:00	2024-11-08T18:00:00	5	Humedad	84
90885	7	Sololá	717	San Juan la Laguna	12	San Juan la Laguna	11	Noviembre	2023-11-23T00:00:00	2024-11-08T18:00:00	6	Velocidad del viento	4.8
90886	7	Sololá	717	San Juan la Laguna	12	San Juan la Laguna	11	Noviembre	2023-11-23T00:00:00	2024-11-08T18:00:00	7	Dirección del viento	4.83
90887	7	Sololá	717	San Juan la Laguna	12	San Juan la Laguna	11	Noviembre	2023-11-23T00:00:00	2024-11-08T18:00:00	1	Precipitación	0
90888	7	Sololá	717	San Juan la Laguna	12	San Juan la Laguna	11	Noviembre	2023-11-23T00:00:00	2024-11-08T18:00:00	8	Radiación solar	6
90889	7	Sololá	717	San Juan la Laguna	12	San Juan la Laguna	11	Noviembre	2023-11-23T00:00:00	2024-11-08T19:00:00	2	Temperatura media	18.7
90890	7	Sololá	717	San Juan la Laguna	12	San Juan la Laguna	11	Noviembre	2023-11-23T00:00:00	2024-11-08T19:00:00	4	Temperatura máxima	19.3
90891	7	Sololá	717	San Juan la Laguna	12	San Juan la Laguna	11	Noviembre	2023-11-23T00:00:00	2024-11-08T19:00:00	3	Temperatura mínima	18.7
90892	7	Sololá	717	San Juan la Laguna	12	San Juan la Laguna	11	Noviembre	2023-11-23T00:00:00	2024-11-08T19:00:00	5	Humedad	88
90893	7	Sololá	717	San Juan la Laguna	12	San Juan la Laguna	11	Noviembre	2023-11-23T00:00:00	2024-11-08T19:00:00	6	Velocidad del viento	1.6
90894	7	Sololá	717	San Juan la Laguna	12	San Juan la Laguna	11	Noviembre	2023-11-23T00:00:00	2024-11-08T19:00:00	7	Dirección del viento	1.61
90895	7	Sololá	717	San Juan la Laguna	12	San Juan la Laguna	11	Noviembre	2023-11-23T00:00:00	2024-11-08T19:00:00	1	Precipitación	0
90896	7	Sololá	717	San Juan la Laguna	12	San Juan la Laguna	11	Noviembre	2023-11-23T00:00:00	2024-11-08T19:00:00	8	Radiación solar	0
90897	7	Sololá	717	San Juan la Laguna	12	San Juan la Laguna	11	Noviembre	2023-11-23T00:00:00	2024-11-08T20:00:00	2	Temperatura media	17.7
90898	7	Sololá	717	San Juan la Laguna	12	San Juan la Laguna	11	Noviembre	2023-11-23T00:00:00	2024-11-08T20:00:00	4	Temperatura máxima	18.7
90899	7	Sololá	717	San Juan la Laguna	12	San Juan la Laguna	11	Noviembre	2023-11-23T00:00:00	2024-11-08T20:00:00	3	Temperatura mínima	17.7
90900	7	Sololá	717	San Juan la Laguna	12	San Juan la Laguna	11	Noviembre	2023-11-23T00:00:00	2024-11-08T20:00:00	5	Humedad	89
90901	7	Sololá	717	San Juan la Laguna	12	San Juan la Laguna	11	Noviembre	2023-11-23T00:00:00	2024-11-08T20:00:00	6	Velocidad del viento	1.6
90902	7	Sololá	717	San Juan la Laguna	12	San Juan la Laguna	11	Noviembre	2023-11-23T00:00:00	2024-11-08T20:00:00	7	Dirección del viento	1.61
90903	7	Sololá	717	San Juan la Laguna	12	San Juan la Laguna	11	Noviembre	2023-11-23T00:00:00	2024-11-08T20:00:00	1	Precipitación	0
90904	7	Sololá	717	San Juan la Laguna	12	San Juan la Laguna	11	Noviembre	2023-11-23T00:00:00	2024-11-08T20:00:00	8	Radiación solar	0
90905	7	Sololá	717	San Juan la Laguna	12	San Juan la Laguna	11	Noviembre	2023-11-23T00:00:00	2024-11-08T21:00:00	2	Temperatura media	16.9
90906	7	Sololá	717	San Juan la Laguna	12	San Juan la Laguna	11	Noviembre	2023-11-23T00:00:00	2024-11-08T21:00:00	4	Temperatura máxima	17.7
90907	7	Sololá	717	San Juan la Laguna	12	San Juan la Laguna	11	Noviembre	2023-11-23T00:00:00	2024-11-08T21:00:00	3	Temperatura mínima	16.8
90908	7	Sololá	717	San Juan la Laguna	12	San Juan la Laguna	11	Noviembre	2023-11-23T00:00:00	2024-11-08T21:00:00	5	Humedad	87
90909	7	Sololá	717	San Juan la Laguna	12	San Juan la Laguna	11	Noviembre	2023-11-23T00:00:00	2024-11-08T21:00:00	6	Velocidad del viento	4.8
90910	7	Sololá	717	San Juan la Laguna	12	San Juan la Laguna	11	Noviembre	2023-11-23T00:00:00	2024-11-08T21:00:00	7	Dirección del viento	4.83
90911	7	Sololá	717	San Juan la Laguna	12	San Juan la Laguna	11	Noviembre	2023-11-23T00:00:00	2024-11-08T21:00:00	1	Precipitación	0
90912	7	Sololá	717	San Juan la Laguna	12	San Juan la Laguna	11	Noviembre	2023-11-23T00:00:00	2024-11-08T21:00:00	8	Radiación solar	0
90913	7	Sololá	717	San Juan la Laguna	12	San Juan la Laguna	11	Noviembre	2023-11-23T00:00:00	2024-11-08T22:00:00	2	Temperatura media	16.4
90914	7	Sololá	717	San Juan la Laguna	12	San Juan la Laguna	11	Noviembre	2023-11-23T00:00:00	2024-11-08T22:00:00	4	Temperatura máxima	17
90915	7	Sololá	717	San Juan la Laguna	12	San Juan la Laguna	11	Noviembre	2023-11-23T00:00:00	2024-11-08T22:00:00	3	Temperatura mínima	16.4
90916	7	Sololá	717	San Juan la Laguna	12	San Juan la Laguna	11	Noviembre	2023-11-23T00:00:00	2024-11-08T22:00:00	5	Humedad	86
90917	7	Sololá	717	San Juan la Laguna	12	San Juan la Laguna	11	Noviembre	2023-11-23T00:00:00	2024-11-08T22:00:00	6	Velocidad del viento	4.8
90918	7	Sololá	717	San Juan la Laguna	12	San Juan la Laguna	11	Noviembre	2023-11-23T00:00:00	2024-11-08T22:00:00	7	Dirección del viento	4.83
90919	7	Sololá	717	San Juan la Laguna	12	San Juan la Laguna	11	Noviembre	2023-11-23T00:00:00	2024-11-08T22:00:00	1	Precipitación	0
90920	7	Sololá	717	San Juan la Laguna	12	San Juan la Laguna	11	Noviembre	2023-11-23T00:00:00	2024-11-08T22:00:00	8	Radiación solar	0
90921	7	Sololá	717	San Juan la Laguna	12	San Juan la Laguna	11	Noviembre	2023-11-23T00:00:00	2024-11-08T23:00:00	2	Temperatura media	16
90922	7	Sololá	717	San Juan la Laguna	12	San Juan la Laguna	11	Noviembre	2023-11-23T00:00:00	2024-11-08T23:00:00	4	Temperatura máxima	16.4
90923	7	Sololá	717	San Juan la Laguna	12	San Juan la Laguna	11	Noviembre	2023-11-23T00:00:00	2024-11-08T23:00:00	3	Temperatura mínima	15.9
90924	7	Sololá	717	San Juan la Laguna	12	San Juan la Laguna	11	Noviembre	2023-11-23T00:00:00	2024-11-08T23:00:00	5	Humedad	87
90925	7	Sololá	717	San Juan la Laguna	12	San Juan la Laguna	11	Noviembre	2023-11-23T00:00:00	2024-11-08T23:00:00	6	Velocidad del viento	4.8
90926	7	Sololá	717	San Juan la Laguna	12	San Juan la Laguna	11	Noviembre	2023-11-23T00:00:00	2024-11-08T23:00:00	7	Dirección del viento	4.83
90927	7	Sololá	717	San Juan la Laguna	12	San Juan la Laguna	11	Noviembre	2023-11-23T00:00:00	2024-11-08T23:00:00	1	Precipitación	0
90928	7	Sololá	717	San Juan la Laguna	12	San Juan la Laguna	11	Noviembre	2023-11-23T00:00:00	2024-11-08T23:00:00	8	Radiación solar	0
90929	7	Sololá	717	San Juan la Laguna	12	San Juan la Laguna	11	Noviembre	2023-11-24T00:00:00	2024-11-08T00:00:00	2	Temperatura media	15.9
90930	7	Sololá	717	San Juan la Laguna	12	San Juan la Laguna	11	Noviembre	2023-11-24T00:00:00	2024-11-08T00:00:00	4	Temperatura máxima	16.1
90931	7	Sololá	717	San Juan la Laguna	12	San Juan la Laguna	11	Noviembre	2023-11-24T00:00:00	2024-11-08T00:00:00	3	Temperatura mínima	15.8
90932	7	Sololá	717	San Juan la Laguna	12	San Juan la Laguna	11	Noviembre	2023-11-24T00:00:00	2024-11-08T00:00:00	5	Humedad	86
90933	7	Sololá	717	San Juan la Laguna	12	San Juan la Laguna	11	Noviembre	2023-11-24T00:00:00	2024-11-08T00:00:00	6	Velocidad del viento	4.8
90934	7	Sololá	717	San Juan la Laguna	12	San Juan la Laguna	11	Noviembre	2023-11-24T00:00:00	2024-11-08T00:00:00	7	Dirección del viento	4.83
90935	7	Sololá	717	San Juan la Laguna	12	San Juan la Laguna	11	Noviembre	2023-11-24T00:00:00	2024-11-08T00:00:00	1	Precipitación	0
90936	7	Sololá	717	San Juan la Laguna	12	San Juan la Laguna	11	Noviembre	2023-11-24T00:00:00	2024-11-08T00:00:00	8	Radiación solar	0
90937	7	Sololá	717	San Juan la Laguna	12	San Juan la Laguna	11	Noviembre	2023-11-24T00:00:00	2024-11-08T01:00:00	2	Temperatura media	15.3
90938	7	Sololá	717	San Juan la Laguna	12	San Juan la Laguna	11	Noviembre	2023-11-24T00:00:00	2024-11-08T01:00:00	4	Temperatura máxima	16
90939	7	Sololá	717	San Juan la Laguna	12	San Juan la Laguna	11	Noviembre	2023-11-24T00:00:00	2024-11-08T01:00:00	3	Temperatura mínima	15.3
90940	7	Sololá	717	San Juan la Laguna	12	San Juan la Laguna	11	Noviembre	2023-11-24T00:00:00	2024-11-08T01:00:00	5	Humedad	86
90941	7	Sololá	717	San Juan la Laguna	12	San Juan la Laguna	11	Noviembre	2023-11-24T00:00:00	2024-11-08T01:00:00	6	Velocidad del viento	3.2
90942	7	Sololá	717	San Juan la Laguna	12	San Juan la Laguna	11	Noviembre	2023-11-24T00:00:00	2024-11-08T01:00:00	7	Dirección del viento	3.22
90943	7	Sololá	717	San Juan la Laguna	12	San Juan la Laguna	11	Noviembre	2023-11-24T00:00:00	2024-11-08T01:00:00	1	Precipitación	0
90944	7	Sololá	717	San Juan la Laguna	12	San Juan la Laguna	11	Noviembre	2023-11-24T00:00:00	2024-11-08T01:00:00	8	Radiación solar	0
90945	7	Sololá	717	San Juan la Laguna	12	San Juan la Laguna	11	Noviembre	2023-11-24T00:00:00	2024-11-08T02:00:00	2	Temperatura media	15.2
90946	7	Sololá	717	San Juan la Laguna	12	San Juan la Laguna	11	Noviembre	2023-11-24T00:00:00	2024-11-08T02:00:00	4	Temperatura máxima	15.5
90947	7	Sololá	717	San Juan la Laguna	12	San Juan la Laguna	11	Noviembre	2023-11-24T00:00:00	2024-11-08T02:00:00	3	Temperatura mínima	15.2
90948	7	Sololá	717	San Juan la Laguna	12	San Juan la Laguna	11	Noviembre	2023-11-24T00:00:00	2024-11-08T02:00:00	5	Humedad	86
90949	7	Sololá	717	San Juan la Laguna	12	San Juan la Laguna	11	Noviembre	2023-11-24T00:00:00	2024-11-08T02:00:00	6	Velocidad del viento	4.8
90950	7	Sololá	717	San Juan la Laguna	12	San Juan la Laguna	11	Noviembre	2023-11-24T00:00:00	2024-11-08T02:00:00	7	Dirección del viento	4.83
90951	7	Sololá	717	San Juan la Laguna	12	San Juan la Laguna	11	Noviembre	2023-11-24T00:00:00	2024-11-08T02:00:00	1	Precipitación	0
90952	7	Sololá	717	San Juan la Laguna	12	San Juan la Laguna	11	Noviembre	2023-11-24T00:00:00	2024-11-08T02:00:00	8	Radiación solar	0
90953	7	Sololá	717	San Juan la Laguna	12	San Juan la Laguna	11	Noviembre	2023-11-24T00:00:00	2024-11-08T03:00:00	2	Temperatura media	14.7
90954	7	Sololá	717	San Juan la Laguna	12	San Juan la Laguna	11	Noviembre	2023-11-24T00:00:00	2024-11-08T03:00:00	4	Temperatura máxima	15.2
90955	7	Sololá	717	San Juan la Laguna	12	San Juan la Laguna	11	Noviembre	2023-11-24T00:00:00	2024-11-08T03:00:00	3	Temperatura mínima	14.4
90956	7	Sololá	717	San Juan la Laguna	12	San Juan la Laguna	11	Noviembre	2023-11-24T00:00:00	2024-11-08T03:00:00	5	Humedad	86
90957	7	Sololá	717	San Juan la Laguna	12	San Juan la Laguna	11	Noviembre	2023-11-24T00:00:00	2024-11-08T03:00:00	6	Velocidad del viento	3.2
90958	7	Sololá	717	San Juan la Laguna	12	San Juan la Laguna	11	Noviembre	2023-11-24T00:00:00	2024-11-08T03:00:00	7	Dirección del viento	3.22
90959	7	Sololá	717	San Juan la Laguna	12	San Juan la Laguna	11	Noviembre	2023-11-24T00:00:00	2024-11-08T03:00:00	1	Precipitación	0
90960	7	Sololá	717	San Juan la Laguna	12	San Juan la Laguna	11	Noviembre	2023-11-24T00:00:00	2024-11-08T03:00:00	8	Radiación solar	0
90961	7	Sololá	717	San Juan la Laguna	12	San Juan la Laguna	11	Noviembre	2023-11-24T00:00:00	2024-11-08T04:00:00	2	Temperatura media	14.6
90962	7	Sololá	717	San Juan la Laguna	12	San Juan la Laguna	11	Noviembre	2023-11-24T00:00:00	2024-11-08T04:00:00	4	Temperatura máxima	14.7
90963	7	Sololá	717	San Juan la Laguna	12	San Juan la Laguna	11	Noviembre	2023-11-24T00:00:00	2024-11-08T04:00:00	3	Temperatura mínima	14.4
90964	7	Sololá	717	San Juan la Laguna	12	San Juan la Laguna	11	Noviembre	2023-11-24T00:00:00	2024-11-08T04:00:00	5	Humedad	85
90965	7	Sololá	717	San Juan la Laguna	12	San Juan la Laguna	11	Noviembre	2023-11-24T00:00:00	2024-11-08T04:00:00	6	Velocidad del viento	4.8
90966	7	Sololá	717	San Juan la Laguna	12	San Juan la Laguna	11	Noviembre	2023-11-24T00:00:00	2024-11-08T04:00:00	7	Dirección del viento	4.83
90967	7	Sololá	717	San Juan la Laguna	12	San Juan la Laguna	11	Noviembre	2023-11-24T00:00:00	2024-11-08T04:00:00	1	Precipitación	0
90968	7	Sololá	717	San Juan la Laguna	12	San Juan la Laguna	11	Noviembre	2023-11-24T00:00:00	2024-11-08T04:00:00	8	Radiación solar	0
90969	7	Sololá	717	San Juan la Laguna	12	San Juan la Laguna	11	Noviembre	2023-11-24T00:00:00	2024-11-08T05:00:00	2	Temperatura media	14.3
90970	7	Sololá	717	San Juan la Laguna	12	San Juan la Laguna	11	Noviembre	2023-11-24T00:00:00	2024-11-08T05:00:00	4	Temperatura máxima	14.6
90971	7	Sololá	717	San Juan la Laguna	12	San Juan la Laguna	11	Noviembre	2023-11-24T00:00:00	2024-11-08T05:00:00	3	Temperatura mínima	14.1
90972	7	Sololá	717	San Juan la Laguna	12	San Juan la Laguna	11	Noviembre	2023-11-24T00:00:00	2024-11-08T05:00:00	5	Humedad	87
90973	7	Sololá	717	San Juan la Laguna	12	San Juan la Laguna	11	Noviembre	2023-11-24T00:00:00	2024-11-08T05:00:00	6	Velocidad del viento	4.8
90974	7	Sololá	717	San Juan la Laguna	12	San Juan la Laguna	11	Noviembre	2023-11-24T00:00:00	2024-11-08T05:00:00	7	Dirección del viento	4.83
90975	7	Sololá	717	San Juan la Laguna	12	San Juan la Laguna	11	Noviembre	2023-11-24T00:00:00	2024-11-08T05:00:00	1	Precipitación	0
90976	7	Sololá	717	San Juan la Laguna	12	San Juan la Laguna	11	Noviembre	2023-11-24T00:00:00	2024-11-08T05:00:00	8	Radiación solar	0
90977	7	Sololá	717	San Juan la Laguna	12	San Juan la Laguna	11	Noviembre	2023-11-24T00:00:00	2024-11-08T06:00:00	2	Temperatura media	14.3
90978	7	Sololá	717	San Juan la Laguna	12	San Juan la Laguna	11	Noviembre	2023-11-24T00:00:00	2024-11-08T06:00:00	4	Temperatura máxima	14.3
90979	7	Sololá	717	San Juan la Laguna	12	San Juan la Laguna	11	Noviembre	2023-11-24T00:00:00	2024-11-08T06:00:00	3	Temperatura mínima	13.9
90980	7	Sololá	717	San Juan la Laguna	12	San Juan la Laguna	11	Noviembre	2023-11-24T00:00:00	2024-11-08T06:00:00	5	Humedad	88
90981	7	Sololá	717	San Juan la Laguna	12	San Juan la Laguna	11	Noviembre	2023-11-24T00:00:00	2024-11-08T06:00:00	6	Velocidad del viento	4.8
90982	7	Sololá	717	San Juan la Laguna	12	San Juan la Laguna	11	Noviembre	2023-11-24T00:00:00	2024-11-08T06:00:00	7	Dirección del viento	4.83
90983	7	Sololá	717	San Juan la Laguna	12	San Juan la Laguna	11	Noviembre	2023-11-24T00:00:00	2024-11-08T06:00:00	1	Precipitación	0
90984	7	Sololá	717	San Juan la Laguna	12	San Juan la Laguna	11	Noviembre	2023-11-24T00:00:00	2024-11-08T06:00:00	8	Radiación solar	0
90985	7	Sololá	717	San Juan la Laguna	12	San Juan la Laguna	11	Noviembre	2023-11-24T00:00:00	2024-11-08T07:00:00	2	Temperatura media	14.9
90986	7	Sololá	717	San Juan la Laguna	12	San Juan la Laguna	11	Noviembre	2023-11-24T00:00:00	2024-11-08T07:00:00	4	Temperatura máxima	14.9
90987	7	Sololá	717	San Juan la Laguna	12	San Juan la Laguna	11	Noviembre	2023-11-24T00:00:00	2024-11-08T07:00:00	3	Temperatura mínima	14.3
90988	7	Sololá	717	San Juan la Laguna	12	San Juan la Laguna	11	Noviembre	2023-11-24T00:00:00	2024-11-08T07:00:00	5	Humedad	86
90989	7	Sololá	717	San Juan la Laguna	12	San Juan la Laguna	11	Noviembre	2023-11-24T00:00:00	2024-11-08T07:00:00	6	Velocidad del viento	3.2
90990	7	Sololá	717	San Juan la Laguna	12	San Juan la Laguna	11	Noviembre	2023-11-24T00:00:00	2024-11-08T07:00:00	7	Dirección del viento	3.22
90991	7	Sololá	717	San Juan la Laguna	12	San Juan la Laguna	11	Noviembre	2023-11-24T00:00:00	2024-11-08T07:00:00	1	Precipitación	0
90992	7	Sololá	717	San Juan la Laguna	12	San Juan la Laguna	11	Noviembre	2023-11-24T00:00:00	2024-11-08T07:00:00	8	Radiación solar	24
90993	7	Sololá	717	San Juan la Laguna	12	San Juan la Laguna	11	Noviembre	2023-11-24T00:00:00	2024-11-08T08:00:00	2	Temperatura media	18.1
90994	7	Sololá	717	San Juan la Laguna	12	San Juan la Laguna	11	Noviembre	2023-11-24T00:00:00	2024-11-08T08:00:00	4	Temperatura máxima	18.1
90995	7	Sololá	717	San Juan la Laguna	12	San Juan la Laguna	11	Noviembre	2023-11-24T00:00:00	2024-11-08T08:00:00	3	Temperatura mínima	14.9
90996	7	Sololá	717	San Juan la Laguna	12	San Juan la Laguna	11	Noviembre	2023-11-24T00:00:00	2024-11-08T08:00:00	5	Humedad	79
90997	7	Sololá	717	San Juan la Laguna	12	San Juan la Laguna	11	Noviembre	2023-11-24T00:00:00	2024-11-08T08:00:00	6	Velocidad del viento	3.2
90998	7	Sololá	717	San Juan la Laguna	12	San Juan la Laguna	11	Noviembre	2023-11-24T00:00:00	2024-11-08T08:00:00	7	Dirección del viento	3.22
90999	7	Sololá	717	San Juan la Laguna	12	San Juan la Laguna	11	Noviembre	2023-11-24T00:00:00	2024-11-08T08:00:00	1	Precipitación	0
91000	7	Sololá	717	San Juan la Laguna	12	San Juan la Laguna	11	Noviembre	2023-11-24T00:00:00	2024-11-08T08:00:00	8	Radiación solar	197
91001	7	Sololá	717	San Juan la Laguna	12	San Juan la Laguna	11	Noviembre	2023-11-24T00:00:00	2024-11-08T09:00:00	2	Temperatura media	20.6
91002	7	Sololá	717	San Juan la Laguna	12	San Juan la Laguna	11	Noviembre	2023-11-24T00:00:00	2024-11-08T09:00:00	4	Temperatura máxima	20.7
91003	7	Sololá	717	San Juan la Laguna	12	San Juan la Laguna	11	Noviembre	2023-11-24T00:00:00	2024-11-08T09:00:00	3	Temperatura mínima	18.1
91004	7	Sololá	717	San Juan la Laguna	12	San Juan la Laguna	11	Noviembre	2023-11-24T00:00:00	2024-11-08T09:00:00	5	Humedad	76
91005	7	Sololá	717	San Juan la Laguna	12	San Juan la Laguna	11	Noviembre	2023-11-24T00:00:00	2024-11-08T09:00:00	6	Velocidad del viento	3.2
91006	7	Sololá	717	San Juan la Laguna	12	San Juan la Laguna	11	Noviembre	2023-11-24T00:00:00	2024-11-08T09:00:00	7	Dirección del viento	3.22
91007	7	Sololá	717	San Juan la Laguna	12	San Juan la Laguna	11	Noviembre	2023-11-24T00:00:00	2024-11-08T09:00:00	1	Precipitación	0
91008	7	Sololá	717	San Juan la Laguna	12	San Juan la Laguna	11	Noviembre	2023-11-24T00:00:00	2024-11-08T09:00:00	8	Radiación solar	408
91009	7	Sololá	717	San Juan la Laguna	12	San Juan la Laguna	11	Noviembre	2023-11-24T00:00:00	2024-11-08T10:00:00	2	Temperatura media	23.4
91010	7	Sololá	717	San Juan la Laguna	12	San Juan la Laguna	11	Noviembre	2023-11-24T00:00:00	2024-11-08T10:00:00	4	Temperatura máxima	23.5
91011	7	Sololá	717	San Juan la Laguna	12	San Juan la Laguna	11	Noviembre	2023-11-24T00:00:00	2024-11-08T10:00:00	3	Temperatura mínima	20.6
91012	7	Sololá	717	San Juan la Laguna	12	San Juan la Laguna	11	Noviembre	2023-11-24T00:00:00	2024-11-08T10:00:00	5	Humedad	57
91013	7	Sololá	717	San Juan la Laguna	12	San Juan la Laguna	11	Noviembre	2023-11-24T00:00:00	2024-11-08T10:00:00	6	Velocidad del viento	3.2
91014	7	Sololá	717	San Juan la Laguna	12	San Juan la Laguna	11	Noviembre	2023-11-24T00:00:00	2024-11-08T10:00:00	7	Dirección del viento	3.22
91015	7	Sololá	717	San Juan la Laguna	12	San Juan la Laguna	11	Noviembre	2023-11-24T00:00:00	2024-11-08T10:00:00	1	Precipitación	0
91016	7	Sololá	717	San Juan la Laguna	12	San Juan la Laguna	11	Noviembre	2023-11-24T00:00:00	2024-11-08T10:00:00	8	Radiación solar	586
91017	7	Sololá	717	San Juan la Laguna	12	San Juan la Laguna	11	Noviembre	2023-11-24T00:00:00	2024-11-08T11:00:00	2	Temperatura media	23.1
91018	7	Sololá	717	San Juan la Laguna	12	San Juan la Laguna	11	Noviembre	2023-11-24T00:00:00	2024-11-08T11:00:00	4	Temperatura máxima	24.3
91019	7	Sololá	717	San Juan la Laguna	12	San Juan la Laguna	11	Noviembre	2023-11-24T00:00:00	2024-11-08T11:00:00	3	Temperatura mínima	22.9
91020	7	Sololá	717	San Juan la Laguna	12	San Juan la Laguna	11	Noviembre	2023-11-24T00:00:00	2024-11-08T11:00:00	5	Humedad	59
91021	7	Sololá	717	San Juan la Laguna	12	San Juan la Laguna	11	Noviembre	2023-11-24T00:00:00	2024-11-08T11:00:00	6	Velocidad del viento	6.4
91022	7	Sololá	717	San Juan la Laguna	12	San Juan la Laguna	11	Noviembre	2023-11-24T00:00:00	2024-11-08T11:00:00	7	Dirección del viento	6.44
91023	7	Sololá	717	San Juan la Laguna	12	San Juan la Laguna	11	Noviembre	2023-11-24T00:00:00	2024-11-08T11:00:00	1	Precipitación	0
91024	7	Sololá	717	San Juan la Laguna	12	San Juan la Laguna	11	Noviembre	2023-11-24T00:00:00	2024-11-08T11:00:00	8	Radiación solar	606
91025	7	Sololá	717	San Juan la Laguna	12	San Juan la Laguna	11	Noviembre	2023-11-24T00:00:00	2024-11-08T12:00:00	2	Temperatura media	23.3
91026	7	Sololá	717	San Juan la Laguna	12	San Juan la Laguna	11	Noviembre	2023-11-24T00:00:00	2024-11-08T12:00:00	4	Temperatura máxima	24.3
91027	7	Sololá	717	San Juan la Laguna	12	San Juan la Laguna	11	Noviembre	2023-11-24T00:00:00	2024-11-08T12:00:00	3	Temperatura mínima	23.1
91028	7	Sololá	717	San Juan la Laguna	12	San Juan la Laguna	11	Noviembre	2023-11-24T00:00:00	2024-11-08T12:00:00	5	Humedad	66
91029	7	Sololá	717	San Juan la Laguna	12	San Juan la Laguna	11	Noviembre	2023-11-24T00:00:00	2024-11-08T12:00:00	6	Velocidad del viento	6.4
91030	7	Sololá	717	San Juan la Laguna	12	San Juan la Laguna	11	Noviembre	2023-11-24T00:00:00	2024-11-08T12:00:00	7	Dirección del viento	6.44
91031	7	Sololá	717	San Juan la Laguna	12	San Juan la Laguna	11	Noviembre	2023-11-24T00:00:00	2024-11-08T12:00:00	1	Precipitación	0
91032	7	Sololá	717	San Juan la Laguna	12	San Juan la Laguna	11	Noviembre	2023-11-24T00:00:00	2024-11-08T12:00:00	8	Radiación solar	758
91033	7	Sololá	717	San Juan la Laguna	12	San Juan la Laguna	11	Noviembre	2023-11-24T00:00:00	2024-11-08T13:00:00	2	Temperatura media	23.2
91034	7	Sololá	717	San Juan la Laguna	12	San Juan la Laguna	11	Noviembre	2023-11-24T00:00:00	2024-11-08T13:00:00	4	Temperatura máxima	24.4
91035	7	Sololá	717	San Juan la Laguna	12	San Juan la Laguna	11	Noviembre	2023-11-24T00:00:00	2024-11-08T13:00:00	3	Temperatura mínima	22.9
91036	7	Sololá	717	San Juan la Laguna	12	San Juan la Laguna	11	Noviembre	2023-11-24T00:00:00	2024-11-08T13:00:00	5	Humedad	74
91037	7	Sololá	717	San Juan la Laguna	12	San Juan la Laguna	11	Noviembre	2023-11-24T00:00:00	2024-11-08T13:00:00	6	Velocidad del viento	11.3
91038	7	Sololá	717	San Juan la Laguna	12	San Juan la Laguna	11	Noviembre	2023-11-24T00:00:00	2024-11-08T13:00:00	7	Dirección del viento	11.27
91039	7	Sololá	717	San Juan la Laguna	12	San Juan la Laguna	11	Noviembre	2023-11-24T00:00:00	2024-11-08T13:00:00	1	Precipitación	0
91040	7	Sololá	717	San Juan la Laguna	12	San Juan la Laguna	11	Noviembre	2023-11-24T00:00:00	2024-11-08T13:00:00	8	Radiación solar	751
91041	7	Sololá	717	San Juan la Laguna	12	San Juan la Laguna	11	Noviembre	2023-11-24T00:00:00	2024-11-08T14:00:00	2	Temperatura media	22.6
91042	7	Sololá	717	San Juan la Laguna	12	San Juan la Laguna	11	Noviembre	2023-11-24T00:00:00	2024-11-08T14:00:00	4	Temperatura máxima	23.2
91043	7	Sololá	717	San Juan la Laguna	12	San Juan la Laguna	11	Noviembre	2023-11-24T00:00:00	2024-11-08T14:00:00	3	Temperatura mínima	22.5
91044	7	Sololá	717	San Juan la Laguna	12	San Juan la Laguna	11	Noviembre	2023-11-24T00:00:00	2024-11-08T14:00:00	5	Humedad	74
91045	7	Sololá	717	San Juan la Laguna	12	San Juan la Laguna	11	Noviembre	2023-11-24T00:00:00	2024-11-08T14:00:00	6	Velocidad del viento	14.5
91046	7	Sololá	717	San Juan la Laguna	12	San Juan la Laguna	11	Noviembre	2023-11-24T00:00:00	2024-11-08T14:00:00	7	Dirección del viento	14.48
91047	7	Sololá	717	San Juan la Laguna	12	San Juan la Laguna	11	Noviembre	2023-11-24T00:00:00	2024-11-08T14:00:00	1	Precipitación	0
91048	7	Sololá	717	San Juan la Laguna	12	San Juan la Laguna	11	Noviembre	2023-11-24T00:00:00	2024-11-08T14:00:00	8	Radiación solar	668
91049	7	Sololá	717	San Juan la Laguna	12	San Juan la Laguna	11	Noviembre	2023-11-24T00:00:00	2024-11-08T15:00:00	2	Temperatura media	22.6
91050	7	Sololá	717	San Juan la Laguna	12	San Juan la Laguna	11	Noviembre	2023-11-24T00:00:00	2024-11-08T15:00:00	4	Temperatura máxima	23.3
91051	7	Sololá	717	San Juan la Laguna	12	San Juan la Laguna	11	Noviembre	2023-11-24T00:00:00	2024-11-08T15:00:00	3	Temperatura mínima	22.5
91052	7	Sololá	717	San Juan la Laguna	12	San Juan la Laguna	11	Noviembre	2023-11-24T00:00:00	2024-11-08T15:00:00	5	Humedad	75
91053	7	Sololá	717	San Juan la Laguna	12	San Juan la Laguna	11	Noviembre	2023-11-24T00:00:00	2024-11-08T15:00:00	6	Velocidad del viento	14.5
91054	7	Sololá	717	San Juan la Laguna	12	San Juan la Laguna	11	Noviembre	2023-11-24T00:00:00	2024-11-08T15:00:00	7	Dirección del viento	14.48
91055	7	Sololá	717	San Juan la Laguna	12	San Juan la Laguna	11	Noviembre	2023-11-24T00:00:00	2024-11-08T15:00:00	1	Precipitación	0
91056	7	Sololá	717	San Juan la Laguna	12	San Juan la Laguna	11	Noviembre	2023-11-24T00:00:00	2024-11-08T15:00:00	8	Radiación solar	496
91057	7	Sololá	717	San Juan la Laguna	12	San Juan la Laguna	11	Noviembre	2023-11-24T00:00:00	2024-11-08T16:00:00	2	Temperatura media	21.3
91058	7	Sololá	717	San Juan la Laguna	12	San Juan la Laguna	11	Noviembre	2023-11-24T00:00:00	2024-11-08T16:00:00	4	Temperatura máxima	22.7
91059	7	Sololá	717	San Juan la Laguna	12	San Juan la Laguna	11	Noviembre	2023-11-24T00:00:00	2024-11-08T16:00:00	3	Temperatura mínima	21.3
91060	7	Sololá	717	San Juan la Laguna	12	San Juan la Laguna	11	Noviembre	2023-11-24T00:00:00	2024-11-08T16:00:00	5	Humedad	79
91061	7	Sololá	717	San Juan la Laguna	12	San Juan la Laguna	11	Noviembre	2023-11-24T00:00:00	2024-11-08T16:00:00	6	Velocidad del viento	11.3
91062	7	Sololá	717	San Juan la Laguna	12	San Juan la Laguna	11	Noviembre	2023-11-24T00:00:00	2024-11-08T16:00:00	7	Dirección del viento	11.27
91063	7	Sololá	717	San Juan la Laguna	12	San Juan la Laguna	11	Noviembre	2023-11-24T00:00:00	2024-11-08T16:00:00	1	Precipitación	0
91064	7	Sololá	717	San Juan la Laguna	12	San Juan la Laguna	11	Noviembre	2023-11-24T00:00:00	2024-11-08T16:00:00	8	Radiación solar	259
91065	7	Sololá	717	San Juan la Laguna	12	San Juan la Laguna	11	Noviembre	2023-11-24T00:00:00	2024-11-08T17:00:00	2	Temperatura media	21
91066	7	Sololá	717	San Juan la Laguna	12	San Juan la Laguna	11	Noviembre	2023-11-24T00:00:00	2024-11-08T17:00:00	4	Temperatura máxima	21.3
91067	7	Sololá	717	San Juan la Laguna	12	San Juan la Laguna	11	Noviembre	2023-11-24T00:00:00	2024-11-08T17:00:00	3	Temperatura mínima	20.9
91068	7	Sololá	717	San Juan la Laguna	12	San Juan la Laguna	11	Noviembre	2023-11-24T00:00:00	2024-11-08T17:00:00	5	Humedad	80
91069	7	Sololá	717	San Juan la Laguna	12	San Juan la Laguna	11	Noviembre	2023-11-24T00:00:00	2024-11-08T17:00:00	6	Velocidad del viento	6.4
91070	7	Sololá	717	San Juan la Laguna	12	San Juan la Laguna	11	Noviembre	2023-11-24T00:00:00	2024-11-08T17:00:00	7	Dirección del viento	6.44
91071	7	Sololá	717	San Juan la Laguna	12	San Juan la Laguna	11	Noviembre	2023-11-24T00:00:00	2024-11-08T17:00:00	1	Precipitación	0
91072	7	Sololá	717	San Juan la Laguna	12	San Juan la Laguna	11	Noviembre	2023-11-24T00:00:00	2024-11-08T17:00:00	8	Radiación solar	65
91073	7	Sololá	717	San Juan la Laguna	12	San Juan la Laguna	11	Noviembre	2023-11-24T00:00:00	2024-11-08T18:00:00	2	Temperatura media	20.3
91074	7	Sololá	717	San Juan la Laguna	12	San Juan la Laguna	11	Noviembre	2023-11-24T00:00:00	2024-11-08T18:00:00	4	Temperatura máxima	21.1
91075	7	Sololá	717	San Juan la Laguna	12	San Juan la Laguna	11	Noviembre	2023-11-24T00:00:00	2024-11-08T18:00:00	3	Temperatura mínima	20.3
91076	7	Sololá	717	San Juan la Laguna	12	San Juan la Laguna	11	Noviembre	2023-11-24T00:00:00	2024-11-08T18:00:00	5	Humedad	85
91077	7	Sololá	717	San Juan la Laguna	12	San Juan la Laguna	11	Noviembre	2023-11-24T00:00:00	2024-11-08T18:00:00	6	Velocidad del viento	3.2
91078	7	Sololá	717	San Juan la Laguna	12	San Juan la Laguna	11	Noviembre	2023-11-24T00:00:00	2024-11-08T18:00:00	7	Dirección del viento	3.22
91079	7	Sololá	717	San Juan la Laguna	12	San Juan la Laguna	11	Noviembre	2023-11-24T00:00:00	2024-11-08T18:00:00	1	Precipitación	0
91080	7	Sololá	717	San Juan la Laguna	12	San Juan la Laguna	11	Noviembre	2023-11-24T00:00:00	2024-11-08T18:00:00	8	Radiación solar	18
91081	7	Sololá	717	San Juan la Laguna	12	San Juan la Laguna	11	Noviembre	2023-11-24T00:00:00	2024-11-08T19:00:00	2	Temperatura media	19.7
91082	7	Sololá	717	San Juan la Laguna	12	San Juan la Laguna	11	Noviembre	2023-11-24T00:00:00	2024-11-08T19:00:00	4	Temperatura máxima	20.3
91083	7	Sololá	717	San Juan la Laguna	12	San Juan la Laguna	11	Noviembre	2023-11-24T00:00:00	2024-11-08T19:00:00	3	Temperatura mínima	19.6
91084	7	Sololá	717	San Juan la Laguna	12	San Juan la Laguna	11	Noviembre	2023-11-24T00:00:00	2024-11-08T19:00:00	5	Humedad	88
91085	7	Sololá	717	San Juan la Laguna	12	San Juan la Laguna	11	Noviembre	2023-11-24T00:00:00	2024-11-08T19:00:00	6	Velocidad del viento	1.6
91086	7	Sololá	717	San Juan la Laguna	12	San Juan la Laguna	11	Noviembre	2023-11-24T00:00:00	2024-11-08T19:00:00	7	Dirección del viento	1.61
91087	7	Sololá	717	San Juan la Laguna	12	San Juan la Laguna	11	Noviembre	2023-11-24T00:00:00	2024-11-08T19:00:00	1	Precipitación	0
91088	7	Sololá	717	San Juan la Laguna	12	San Juan la Laguna	11	Noviembre	2023-11-24T00:00:00	2024-11-08T19:00:00	8	Radiación solar	0
91089	7	Sololá	717	San Juan la Laguna	12	San Juan la Laguna	11	Noviembre	2023-11-24T00:00:00	2024-11-08T20:00:00	2	Temperatura media	19.2
91090	7	Sololá	717	San Juan la Laguna	12	San Juan la Laguna	11	Noviembre	2023-11-24T00:00:00	2024-11-08T20:00:00	4	Temperatura máxima	19.7
91091	7	Sololá	717	San Juan la Laguna	12	San Juan la Laguna	11	Noviembre	2023-11-24T00:00:00	2024-11-08T20:00:00	3	Temperatura mínima	19.2
91092	7	Sololá	717	San Juan la Laguna	12	San Juan la Laguna	11	Noviembre	2023-11-24T00:00:00	2024-11-08T20:00:00	5	Humedad	88
91093	7	Sololá	717	San Juan la Laguna	12	San Juan la Laguna	11	Noviembre	2023-11-24T00:00:00	2024-11-08T20:00:00	6	Velocidad del viento	1.6
91094	7	Sololá	717	San Juan la Laguna	12	San Juan la Laguna	11	Noviembre	2023-11-24T00:00:00	2024-11-08T20:00:00	7	Dirección del viento	1.61
91095	7	Sololá	717	San Juan la Laguna	12	San Juan la Laguna	11	Noviembre	2023-11-24T00:00:00	2024-11-08T20:00:00	1	Precipitación	0
91096	7	Sololá	717	San Juan la Laguna	12	San Juan la Laguna	11	Noviembre	2023-11-24T00:00:00	2024-11-08T20:00:00	8	Radiación solar	0
91097	7	Sololá	717	San Juan la Laguna	12	San Juan la Laguna	11	Noviembre	2023-11-24T00:00:00	2024-11-08T21:00:00	2	Temperatura media	18.8
91098	7	Sololá	717	San Juan la Laguna	12	San Juan la Laguna	11	Noviembre	2023-11-24T00:00:00	2024-11-08T21:00:00	4	Temperatura máxima	19.2
91099	7	Sololá	717	San Juan la Laguna	12	San Juan la Laguna	11	Noviembre	2023-11-24T00:00:00	2024-11-08T21:00:00	3	Temperatura mínima	18.8
91100	7	Sololá	717	San Juan la Laguna	12	San Juan la Laguna	11	Noviembre	2023-11-24T00:00:00	2024-11-08T21:00:00	5	Humedad	88
91101	7	Sololá	717	San Juan la Laguna	12	San Juan la Laguna	11	Noviembre	2023-11-24T00:00:00	2024-11-08T21:00:00	6	Velocidad del viento	1.6
91102	7	Sololá	717	San Juan la Laguna	12	San Juan la Laguna	11	Noviembre	2023-11-24T00:00:00	2024-11-08T21:00:00	7	Dirección del viento	1.61
91103	7	Sololá	717	San Juan la Laguna	12	San Juan la Laguna	11	Noviembre	2023-11-24T00:00:00	2024-11-08T21:00:00	1	Precipitación	0
91104	7	Sololá	717	San Juan la Laguna	12	San Juan la Laguna	11	Noviembre	2023-11-24T00:00:00	2024-11-08T21:00:00	8	Radiación solar	0
91105	7	Sololá	717	San Juan la Laguna	12	San Juan la Laguna	11	Noviembre	2023-11-24T00:00:00	2024-11-08T22:00:00	2	Temperatura media	18.5
91106	7	Sololá	717	San Juan la Laguna	12	San Juan la Laguna	11	Noviembre	2023-11-24T00:00:00	2024-11-08T22:00:00	4	Temperatura máxima	18.9
91107	7	Sololá	717	San Juan la Laguna	12	San Juan la Laguna	11	Noviembre	2023-11-24T00:00:00	2024-11-08T22:00:00	3	Temperatura mínima	18.5
91108	7	Sololá	717	San Juan la Laguna	12	San Juan la Laguna	11	Noviembre	2023-11-24T00:00:00	2024-11-08T22:00:00	5	Humedad	89
91109	7	Sololá	717	San Juan la Laguna	12	San Juan la Laguna	11	Noviembre	2023-11-24T00:00:00	2024-11-08T22:00:00	6	Velocidad del viento	3.2
91110	7	Sololá	717	San Juan la Laguna	12	San Juan la Laguna	11	Noviembre	2023-11-24T00:00:00	2024-11-08T22:00:00	7	Dirección del viento	3.22
91111	7	Sololá	717	San Juan la Laguna	12	San Juan la Laguna	11	Noviembre	2023-11-24T00:00:00	2024-11-08T22:00:00	1	Precipitación	0
91112	7	Sololá	717	San Juan la Laguna	12	San Juan la Laguna	11	Noviembre	2023-11-24T00:00:00	2024-11-08T22:00:00	8	Radiación solar	0
91113	7	Sololá	717	San Juan la Laguna	12	San Juan la Laguna	11	Noviembre	2023-11-24T00:00:00	2024-11-08T23:00:00	2	Temperatura media	18.3
91114	7	Sololá	717	San Juan la Laguna	12	San Juan la Laguna	11	Noviembre	2023-11-24T00:00:00	2024-11-08T23:00:00	4	Temperatura máxima	18.7
91115	7	Sololá	717	San Juan la Laguna	12	San Juan la Laguna	11	Noviembre	2023-11-24T00:00:00	2024-11-08T23:00:00	3	Temperatura mínima	18.3
91116	7	Sololá	717	San Juan la Laguna	12	San Juan la Laguna	11	Noviembre	2023-11-24T00:00:00	2024-11-08T23:00:00	5	Humedad	88
91117	7	Sololá	717	San Juan la Laguna	12	San Juan la Laguna	11	Noviembre	2023-11-24T00:00:00	2024-11-08T23:00:00	6	Velocidad del viento	3.2
91118	7	Sololá	717	San Juan la Laguna	12	San Juan la Laguna	11	Noviembre	2023-11-24T00:00:00	2024-11-08T23:00:00	7	Dirección del viento	3.22
91119	7	Sololá	717	San Juan la Laguna	12	San Juan la Laguna	11	Noviembre	2023-11-24T00:00:00	2024-11-08T23:00:00	1	Precipitación	0
91120	7	Sololá	717	San Juan la Laguna	12	San Juan la Laguna	11	Noviembre	2023-11-24T00:00:00	2024-11-08T23:00:00	8	Radiación solar	0
91121	7	Sololá	717	San Juan la Laguna	12	San Juan la Laguna	11	Noviembre	2023-11-25T00:00:00	2024-11-08T00:00:00	2	Temperatura media	17.3
91122	7	Sololá	717	San Juan la Laguna	12	San Juan la Laguna	11	Noviembre	2023-11-25T00:00:00	2024-11-08T00:00:00	4	Temperatura máxima	18.3
91123	7	Sololá	717	San Juan la Laguna	12	San Juan la Laguna	11	Noviembre	2023-11-25T00:00:00	2024-11-08T00:00:00	3	Temperatura mínima	17.3
91124	7	Sololá	717	San Juan la Laguna	12	San Juan la Laguna	11	Noviembre	2023-11-25T00:00:00	2024-11-08T00:00:00	5	Humedad	88
91125	7	Sololá	717	San Juan la Laguna	12	San Juan la Laguna	11	Noviembre	2023-11-25T00:00:00	2024-11-08T00:00:00	6	Velocidad del viento	3.2
91126	7	Sololá	717	San Juan la Laguna	12	San Juan la Laguna	11	Noviembre	2023-11-25T00:00:00	2024-11-08T00:00:00	7	Dirección del viento	3.22
91127	7	Sololá	717	San Juan la Laguna	12	San Juan la Laguna	11	Noviembre	2023-11-25T00:00:00	2024-11-08T00:00:00	1	Precipitación	0
91128	7	Sololá	717	San Juan la Laguna	12	San Juan la Laguna	11	Noviembre	2023-11-25T00:00:00	2024-11-08T00:00:00	8	Radiación solar	0
91129	7	Sololá	717	San Juan la Laguna	12	San Juan la Laguna	11	Noviembre	2023-11-25T00:00:00	2024-11-08T01:00:00	2	Temperatura media	16.8
91130	7	Sololá	717	San Juan la Laguna	12	San Juan la Laguna	11	Noviembre	2023-11-25T00:00:00	2024-11-08T01:00:00	4	Temperatura máxima	17.4
91131	7	Sololá	717	San Juan la Laguna	12	San Juan la Laguna	11	Noviembre	2023-11-25T00:00:00	2024-11-08T01:00:00	3	Temperatura mínima	16.8
91132	7	Sololá	717	San Juan la Laguna	12	San Juan la Laguna	11	Noviembre	2023-11-25T00:00:00	2024-11-08T01:00:00	5	Humedad	88
91133	7	Sololá	717	San Juan la Laguna	12	San Juan la Laguna	11	Noviembre	2023-11-25T00:00:00	2024-11-08T01:00:00	6	Velocidad del viento	4.8
91134	7	Sololá	717	San Juan la Laguna	12	San Juan la Laguna	11	Noviembre	2023-11-25T00:00:00	2024-11-08T01:00:00	7	Dirección del viento	4.83
91135	7	Sololá	717	San Juan la Laguna	12	San Juan la Laguna	11	Noviembre	2023-11-25T00:00:00	2024-11-08T01:00:00	1	Precipitación	0
91136	7	Sololá	717	San Juan la Laguna	12	San Juan la Laguna	11	Noviembre	2023-11-25T00:00:00	2024-11-08T01:00:00	8	Radiación solar	0
91137	7	Sololá	717	San Juan la Laguna	12	San Juan la Laguna	11	Noviembre	2023-11-25T00:00:00	2024-11-08T02:00:00	2	Temperatura media	16.6
91138	7	Sololá	717	San Juan la Laguna	12	San Juan la Laguna	11	Noviembre	2023-11-25T00:00:00	2024-11-08T02:00:00	4	Temperatura máxima	16.8
91139	7	Sololá	717	San Juan la Laguna	12	San Juan la Laguna	11	Noviembre	2023-11-25T00:00:00	2024-11-08T02:00:00	3	Temperatura mínima	16.6
91140	7	Sololá	717	San Juan la Laguna	12	San Juan la Laguna	11	Noviembre	2023-11-25T00:00:00	2024-11-08T02:00:00	5	Humedad	87
91141	7	Sololá	717	San Juan la Laguna	12	San Juan la Laguna	11	Noviembre	2023-11-25T00:00:00	2024-11-08T02:00:00	6	Velocidad del viento	4.8
91142	7	Sololá	717	San Juan la Laguna	12	San Juan la Laguna	11	Noviembre	2023-11-25T00:00:00	2024-11-08T02:00:00	7	Dirección del viento	4.83
91143	7	Sololá	717	San Juan la Laguna	12	San Juan la Laguna	11	Noviembre	2023-11-25T00:00:00	2024-11-08T02:00:00	1	Precipitación	0
91144	7	Sololá	717	San Juan la Laguna	12	San Juan la Laguna	11	Noviembre	2023-11-25T00:00:00	2024-11-08T02:00:00	8	Radiación solar	0
91145	7	Sololá	717	San Juan la Laguna	12	San Juan la Laguna	11	Noviembre	2023-11-25T00:00:00	2024-11-08T03:00:00	2	Temperatura media	17.2
91146	7	Sololá	717	San Juan la Laguna	12	San Juan la Laguna	11	Noviembre	2023-11-25T00:00:00	2024-11-08T03:00:00	4	Temperatura máxima	17.2
91147	7	Sololá	717	San Juan la Laguna	12	San Juan la Laguna	11	Noviembre	2023-11-25T00:00:00	2024-11-08T03:00:00	3	Temperatura mínima	16.6
91148	7	Sololá	717	San Juan la Laguna	12	San Juan la Laguna	11	Noviembre	2023-11-25T00:00:00	2024-11-08T03:00:00	5	Humedad	88
91149	7	Sololá	717	San Juan la Laguna	12	San Juan la Laguna	11	Noviembre	2023-11-25T00:00:00	2024-11-08T03:00:00	6	Velocidad del viento	3.2
91150	7	Sololá	717	San Juan la Laguna	12	San Juan la Laguna	11	Noviembre	2023-11-25T00:00:00	2024-11-08T03:00:00	7	Dirección del viento	3.22
91151	7	Sololá	717	San Juan la Laguna	12	San Juan la Laguna	11	Noviembre	2023-11-25T00:00:00	2024-11-08T03:00:00	1	Precipitación	0
91152	7	Sololá	717	San Juan la Laguna	12	San Juan la Laguna	11	Noviembre	2023-11-25T00:00:00	2024-11-08T03:00:00	8	Radiación solar	0
91153	7	Sololá	717	San Juan la Laguna	12	San Juan la Laguna	11	Noviembre	2023-11-25T00:00:00	2024-11-08T04:00:00	2	Temperatura media	17.4
91154	7	Sololá	717	San Juan la Laguna	12	San Juan la Laguna	11	Noviembre	2023-11-25T00:00:00	2024-11-08T04:00:00	4	Temperatura máxima	17.5
91155	7	Sololá	717	San Juan la Laguna	12	San Juan la Laguna	11	Noviembre	2023-11-25T00:00:00	2024-11-08T04:00:00	3	Temperatura mínima	17.2
91156	7	Sololá	717	San Juan la Laguna	12	San Juan la Laguna	11	Noviembre	2023-11-25T00:00:00	2024-11-08T04:00:00	5	Humedad	86
91157	7	Sololá	717	San Juan la Laguna	12	San Juan la Laguna	11	Noviembre	2023-11-25T00:00:00	2024-11-08T04:00:00	6	Velocidad del viento	3.2
91158	7	Sololá	717	San Juan la Laguna	12	San Juan la Laguna	11	Noviembre	2023-11-25T00:00:00	2024-11-08T04:00:00	7	Dirección del viento	3.22
91159	7	Sololá	717	San Juan la Laguna	12	San Juan la Laguna	11	Noviembre	2023-11-25T00:00:00	2024-11-08T04:00:00	1	Precipitación	0
91160	7	Sololá	717	San Juan la Laguna	12	San Juan la Laguna	11	Noviembre	2023-11-25T00:00:00	2024-11-08T04:00:00	8	Radiación solar	0
91161	7	Sololá	717	San Juan la Laguna	12	San Juan la Laguna	11	Noviembre	2023-11-25T00:00:00	2024-11-08T05:00:00	2	Temperatura media	16.4
91162	7	Sololá	717	San Juan la Laguna	12	San Juan la Laguna	11	Noviembre	2023-11-25T00:00:00	2024-11-08T05:00:00	4	Temperatura máxima	17.4
91163	7	Sololá	717	San Juan la Laguna	12	San Juan la Laguna	11	Noviembre	2023-11-25T00:00:00	2024-11-08T05:00:00	3	Temperatura mínima	16.4
91164	7	Sololá	717	San Juan la Laguna	12	San Juan la Laguna	11	Noviembre	2023-11-25T00:00:00	2024-11-08T05:00:00	5	Humedad	88
91165	7	Sololá	717	San Juan la Laguna	12	San Juan la Laguna	11	Noviembre	2023-11-25T00:00:00	2024-11-08T05:00:00	6	Velocidad del viento	3.2
91166	7	Sololá	717	San Juan la Laguna	12	San Juan la Laguna	11	Noviembre	2023-11-25T00:00:00	2024-11-08T05:00:00	7	Dirección del viento	3.22
91167	7	Sololá	717	San Juan la Laguna	12	San Juan la Laguna	11	Noviembre	2023-11-25T00:00:00	2024-11-08T05:00:00	1	Precipitación	0
91168	7	Sololá	717	San Juan la Laguna	12	San Juan la Laguna	11	Noviembre	2023-11-25T00:00:00	2024-11-08T05:00:00	8	Radiación solar	0
91169	7	Sololá	717	San Juan la Laguna	12	San Juan la Laguna	11	Noviembre	2023-11-25T00:00:00	2024-11-08T06:00:00	2	Temperatura media	15.8
91170	7	Sololá	717	San Juan la Laguna	12	San Juan la Laguna	11	Noviembre	2023-11-25T00:00:00	2024-11-08T06:00:00	4	Temperatura máxima	16.4
91171	7	Sololá	717	San Juan la Laguna	12	San Juan la Laguna	11	Noviembre	2023-11-25T00:00:00	2024-11-08T06:00:00	3	Temperatura mínima	15.8
91172	7	Sololá	717	San Juan la Laguna	12	San Juan la Laguna	11	Noviembre	2023-11-25T00:00:00	2024-11-08T06:00:00	5	Humedad	88
91173	7	Sololá	717	San Juan la Laguna	12	San Juan la Laguna	11	Noviembre	2023-11-25T00:00:00	2024-11-08T06:00:00	6	Velocidad del viento	3.2
91174	7	Sololá	717	San Juan la Laguna	12	San Juan la Laguna	11	Noviembre	2023-11-25T00:00:00	2024-11-08T06:00:00	7	Dirección del viento	3.22
91175	7	Sololá	717	San Juan la Laguna	12	San Juan la Laguna	11	Noviembre	2023-11-25T00:00:00	2024-11-08T06:00:00	1	Precipitación	0
91176	7	Sololá	717	San Juan la Laguna	12	San Juan la Laguna	11	Noviembre	2023-11-25T00:00:00	2024-11-08T06:00:00	8	Radiación solar	0
91177	7	Sololá	717	San Juan la Laguna	12	San Juan la Laguna	11	Noviembre	2023-11-25T00:00:00	2024-11-08T07:00:00	2	Temperatura media	16.2
91178	7	Sololá	717	San Juan la Laguna	12	San Juan la Laguna	11	Noviembre	2023-11-25T00:00:00	2024-11-08T07:00:00	4	Temperatura máxima	16.2
91179	7	Sololá	717	San Juan la Laguna	12	San Juan la Laguna	11	Noviembre	2023-11-25T00:00:00	2024-11-08T07:00:00	3	Temperatura mínima	15.7
91180	7	Sololá	717	San Juan la Laguna	12	San Juan la Laguna	11	Noviembre	2023-11-25T00:00:00	2024-11-08T07:00:00	5	Humedad	87
91181	7	Sololá	717	San Juan la Laguna	12	San Juan la Laguna	11	Noviembre	2023-11-25T00:00:00	2024-11-08T07:00:00	6	Velocidad del viento	4.8
91182	7	Sololá	717	San Juan la Laguna	12	San Juan la Laguna	11	Noviembre	2023-11-25T00:00:00	2024-11-08T07:00:00	7	Dirección del viento	4.83
91183	7	Sololá	717	San Juan la Laguna	12	San Juan la Laguna	11	Noviembre	2023-11-25T00:00:00	2024-11-08T07:00:00	1	Precipitación	0
91184	7	Sololá	717	San Juan la Laguna	12	San Juan la Laguna	11	Noviembre	2023-11-25T00:00:00	2024-11-08T07:00:00	8	Radiación solar	18
91185	7	Sololá	717	San Juan la Laguna	12	San Juan la Laguna	11	Noviembre	2023-11-25T00:00:00	2024-11-08T08:00:00	2	Temperatura media	18.1
91186	7	Sololá	717	San Juan la Laguna	12	San Juan la Laguna	11	Noviembre	2023-11-25T00:00:00	2024-11-08T08:00:00	4	Temperatura máxima	18.1
91187	7	Sololá	717	San Juan la Laguna	12	San Juan la Laguna	11	Noviembre	2023-11-25T00:00:00	2024-11-08T08:00:00	3	Temperatura mínima	16.2
91188	7	Sololá	717	San Juan la Laguna	12	San Juan la Laguna	11	Noviembre	2023-11-25T00:00:00	2024-11-08T08:00:00	5	Humedad	85
91189	7	Sololá	717	San Juan la Laguna	12	San Juan la Laguna	11	Noviembre	2023-11-25T00:00:00	2024-11-08T08:00:00	6	Velocidad del viento	3.2
91190	7	Sololá	717	San Juan la Laguna	12	San Juan la Laguna	11	Noviembre	2023-11-25T00:00:00	2024-11-08T08:00:00	7	Dirección del viento	3.22
91191	7	Sololá	717	San Juan la Laguna	12	San Juan la Laguna	11	Noviembre	2023-11-25T00:00:00	2024-11-08T08:00:00	1	Precipitación	0
91192	7	Sololá	717	San Juan la Laguna	12	San Juan la Laguna	11	Noviembre	2023-11-25T00:00:00	2024-11-08T08:00:00	8	Radiación solar	73
91193	7	Sololá	717	San Juan la Laguna	12	San Juan la Laguna	11	Noviembre	2023-11-25T00:00:00	2024-11-08T09:00:00	2	Temperatura media	21.6
91194	7	Sololá	717	San Juan la Laguna	12	San Juan la Laguna	11	Noviembre	2023-11-25T00:00:00	2024-11-08T09:00:00	4	Temperatura máxima	21.6
91195	7	Sololá	717	San Juan la Laguna	12	San Juan la Laguna	11	Noviembre	2023-11-25T00:00:00	2024-11-08T09:00:00	3	Temperatura mínima	18.1
91196	7	Sololá	717	San Juan la Laguna	12	San Juan la Laguna	11	Noviembre	2023-11-25T00:00:00	2024-11-08T09:00:00	5	Humedad	72
91197	7	Sololá	717	San Juan la Laguna	12	San Juan la Laguna	11	Noviembre	2023-11-25T00:00:00	2024-11-08T09:00:00	6	Velocidad del viento	1.6
91198	7	Sololá	717	San Juan la Laguna	12	San Juan la Laguna	11	Noviembre	2023-11-25T00:00:00	2024-11-08T09:00:00	7	Dirección del viento	1.61
91199	7	Sololá	717	San Juan la Laguna	12	San Juan la Laguna	11	Noviembre	2023-11-25T00:00:00	2024-11-08T09:00:00	1	Precipitación	0
91200	7	Sololá	717	San Juan la Laguna	12	San Juan la Laguna	11	Noviembre	2023-11-25T00:00:00	2024-11-08T09:00:00	8	Radiación solar	290
91201	7	Sololá	717	San Juan la Laguna	12	San Juan la Laguna	11	Noviembre	2023-11-25T00:00:00	2024-11-08T10:00:00	2	Temperatura media	22.8
91202	7	Sololá	717	San Juan la Laguna	12	San Juan la Laguna	11	Noviembre	2023-11-25T00:00:00	2024-11-08T10:00:00	4	Temperatura máxima	22.8
91203	7	Sololá	717	San Juan la Laguna	12	San Juan la Laguna	11	Noviembre	2023-11-25T00:00:00	2024-11-08T10:00:00	3	Temperatura mínima	21.6
91204	7	Sololá	717	San Juan la Laguna	12	San Juan la Laguna	11	Noviembre	2023-11-25T00:00:00	2024-11-08T10:00:00	5	Humedad	66
91205	7	Sololá	717	San Juan la Laguna	12	San Juan la Laguna	11	Noviembre	2023-11-25T00:00:00	2024-11-08T10:00:00	6	Velocidad del viento	4.8
91206	7	Sololá	717	San Juan la Laguna	12	San Juan la Laguna	11	Noviembre	2023-11-25T00:00:00	2024-11-08T10:00:00	7	Dirección del viento	4.83
91207	7	Sololá	717	San Juan la Laguna	12	San Juan la Laguna	11	Noviembre	2023-11-25T00:00:00	2024-11-08T10:00:00	1	Precipitación	0
91208	7	Sololá	717	San Juan la Laguna	12	San Juan la Laguna	11	Noviembre	2023-11-25T00:00:00	2024-11-08T10:00:00	8	Radiación solar	568
91209	7	Sololá	717	San Juan la Laguna	12	San Juan la Laguna	11	Noviembre	2023-11-25T00:00:00	2024-11-08T11:00:00	2	Temperatura media	24.6
91210	7	Sololá	717	San Juan la Laguna	12	San Juan la Laguna	11	Noviembre	2023-11-25T00:00:00	2024-11-08T11:00:00	4	Temperatura máxima	24.6
91211	7	Sololá	717	San Juan la Laguna	12	San Juan la Laguna	11	Noviembre	2023-11-25T00:00:00	2024-11-08T11:00:00	3	Temperatura mínima	22.8
91212	7	Sololá	717	San Juan la Laguna	12	San Juan la Laguna	11	Noviembre	2023-11-25T00:00:00	2024-11-08T11:00:00	5	Humedad	59
91213	7	Sololá	717	San Juan la Laguna	12	San Juan la Laguna	11	Noviembre	2023-11-25T00:00:00	2024-11-08T11:00:00	6	Velocidad del viento	6.4
91214	7	Sololá	717	San Juan la Laguna	12	San Juan la Laguna	11	Noviembre	2023-11-25T00:00:00	2024-11-08T11:00:00	7	Dirección del viento	6.44
91215	7	Sololá	717	San Juan la Laguna	12	San Juan la Laguna	11	Noviembre	2023-11-25T00:00:00	2024-11-08T11:00:00	1	Precipitación	0
91216	7	Sololá	717	San Juan la Laguna	12	San Juan la Laguna	11	Noviembre	2023-11-25T00:00:00	2024-11-08T11:00:00	8	Radiación solar	595
91217	7	Sololá	717	San Juan la Laguna	12	San Juan la Laguna	11	Noviembre	2023-11-25T00:00:00	2024-11-08T12:00:00	2	Temperatura media	25.1
91218	7	Sololá	717	San Juan la Laguna	12	San Juan la Laguna	11	Noviembre	2023-11-25T00:00:00	2024-11-08T12:00:00	4	Temperatura máxima	25.6
91219	7	Sololá	717	San Juan la Laguna	12	San Juan la Laguna	11	Noviembre	2023-11-25T00:00:00	2024-11-08T12:00:00	3	Temperatura mínima	24.6
91220	7	Sololá	717	San Juan la Laguna	12	San Juan la Laguna	11	Noviembre	2023-11-25T00:00:00	2024-11-08T12:00:00	5	Humedad	61
91221	7	Sololá	717	San Juan la Laguna	12	San Juan la Laguna	11	Noviembre	2023-11-25T00:00:00	2024-11-08T12:00:00	6	Velocidad del viento	6.4
91222	7	Sololá	717	San Juan la Laguna	12	San Juan la Laguna	11	Noviembre	2023-11-25T00:00:00	2024-11-08T12:00:00	7	Dirección del viento	6.44
91223	7	Sololá	717	San Juan la Laguna	12	San Juan la Laguna	11	Noviembre	2023-11-25T00:00:00	2024-11-08T12:00:00	1	Precipitación	0
91224	7	Sololá	717	San Juan la Laguna	12	San Juan la Laguna	11	Noviembre	2023-11-25T00:00:00	2024-11-08T12:00:00	8	Radiación solar	752
91225	7	Sololá	717	San Juan la Laguna	12	San Juan la Laguna	11	Noviembre	2023-11-25T00:00:00	2024-11-08T13:00:00	2	Temperatura media	23.8
91226	7	Sololá	717	San Juan la Laguna	12	San Juan la Laguna	11	Noviembre	2023-11-25T00:00:00	2024-11-08T13:00:00	4	Temperatura máxima	25.3
91227	7	Sololá	717	San Juan la Laguna	12	San Juan la Laguna	11	Noviembre	2023-11-25T00:00:00	2024-11-08T13:00:00	3	Temperatura mínima	23.8
91228	7	Sololá	717	San Juan la Laguna	12	San Juan la Laguna	11	Noviembre	2023-11-25T00:00:00	2024-11-08T13:00:00	5	Humedad	71
91229	7	Sololá	717	San Juan la Laguna	12	San Juan la Laguna	11	Noviembre	2023-11-25T00:00:00	2024-11-08T13:00:00	6	Velocidad del viento	8
91230	7	Sololá	717	San Juan la Laguna	12	San Juan la Laguna	11	Noviembre	2023-11-25T00:00:00	2024-11-08T13:00:00	7	Dirección del viento	8.05
91231	7	Sololá	717	San Juan la Laguna	12	San Juan la Laguna	11	Noviembre	2023-11-25T00:00:00	2024-11-08T13:00:00	1	Precipitación	0
91232	7	Sololá	717	San Juan la Laguna	12	San Juan la Laguna	11	Noviembre	2023-11-25T00:00:00	2024-11-08T13:00:00	8	Radiación solar	760
91233	7	Sololá	717	San Juan la Laguna	12	San Juan la Laguna	11	Noviembre	2023-11-25T00:00:00	2024-11-08T14:00:00	2	Temperatura media	23.8
91234	7	Sololá	717	San Juan la Laguna	12	San Juan la Laguna	11	Noviembre	2023-11-25T00:00:00	2024-11-08T14:00:00	4	Temperatura máxima	24.7
91235	7	Sololá	717	San Juan la Laguna	12	San Juan la Laguna	11	Noviembre	2023-11-25T00:00:00	2024-11-08T14:00:00	3	Temperatura mínima	23.6
91236	7	Sololá	717	San Juan la Laguna	12	San Juan la Laguna	11	Noviembre	2023-11-25T00:00:00	2024-11-08T14:00:00	5	Humedad	72
91237	7	Sololá	717	San Juan la Laguna	12	San Juan la Laguna	11	Noviembre	2023-11-25T00:00:00	2024-11-08T14:00:00	6	Velocidad del viento	6.4
91238	7	Sololá	717	San Juan la Laguna	12	San Juan la Laguna	11	Noviembre	2023-11-25T00:00:00	2024-11-08T14:00:00	7	Dirección del viento	6.44
91239	7	Sololá	717	San Juan la Laguna	12	San Juan la Laguna	11	Noviembre	2023-11-25T00:00:00	2024-11-08T14:00:00	1	Precipitación	0
91240	7	Sololá	717	San Juan la Laguna	12	San Juan la Laguna	11	Noviembre	2023-11-25T00:00:00	2024-11-08T14:00:00	8	Radiación solar	654
91241	7	Sololá	717	San Juan la Laguna	12	San Juan la Laguna	11	Noviembre	2023-11-25T00:00:00	2024-11-08T15:00:00	2	Temperatura media	23.2
91242	7	Sololá	717	San Juan la Laguna	12	San Juan la Laguna	11	Noviembre	2023-11-25T00:00:00	2024-11-08T15:00:00	4	Temperatura máxima	23.9
91243	7	Sololá	717	San Juan la Laguna	12	San Juan la Laguna	11	Noviembre	2023-11-25T00:00:00	2024-11-08T15:00:00	3	Temperatura mínima	23.1
91244	7	Sololá	717	San Juan la Laguna	12	San Juan la Laguna	11	Noviembre	2023-11-25T00:00:00	2024-11-08T15:00:00	5	Humedad	74
91245	7	Sololá	717	San Juan la Laguna	12	San Juan la Laguna	11	Noviembre	2023-11-25T00:00:00	2024-11-08T15:00:00	6	Velocidad del viento	6.4
91246	7	Sololá	717	San Juan la Laguna	12	San Juan la Laguna	11	Noviembre	2023-11-25T00:00:00	2024-11-08T15:00:00	7	Dirección del viento	6.44
91247	7	Sololá	717	San Juan la Laguna	12	San Juan la Laguna	11	Noviembre	2023-11-25T00:00:00	2024-11-08T15:00:00	1	Precipitación	0
91248	7	Sololá	717	San Juan la Laguna	12	San Juan la Laguna	11	Noviembre	2023-11-25T00:00:00	2024-11-08T15:00:00	8	Radiación solar	519
91249	7	Sololá	717	San Juan la Laguna	12	San Juan la Laguna	11	Noviembre	2023-11-25T00:00:00	2024-11-08T16:00:00	2	Temperatura media	22.1
91250	7	Sololá	717	San Juan la Laguna	12	San Juan la Laguna	11	Noviembre	2023-11-25T00:00:00	2024-11-08T16:00:00	4	Temperatura máxima	23.3
91251	7	Sololá	717	San Juan la Laguna	12	San Juan la Laguna	11	Noviembre	2023-11-25T00:00:00	2024-11-08T16:00:00	3	Temperatura mínima	22.1
91252	7	Sololá	717	San Juan la Laguna	12	San Juan la Laguna	11	Noviembre	2023-11-25T00:00:00	2024-11-08T16:00:00	5	Humedad	79
91253	7	Sololá	717	San Juan la Laguna	12	San Juan la Laguna	11	Noviembre	2023-11-25T00:00:00	2024-11-08T16:00:00	6	Velocidad del viento	4.8
91254	7	Sololá	717	San Juan la Laguna	12	San Juan la Laguna	11	Noviembre	2023-11-25T00:00:00	2024-11-08T16:00:00	7	Dirección del viento	4.83
91255	7	Sololá	717	San Juan la Laguna	12	San Juan la Laguna	11	Noviembre	2023-11-25T00:00:00	2024-11-08T16:00:00	1	Precipitación	0
91256	7	Sololá	717	San Juan la Laguna	12	San Juan la Laguna	11	Noviembre	2023-11-25T00:00:00	2024-11-08T16:00:00	8	Radiación solar	158
91257	7	Sololá	717	San Juan la Laguna	12	San Juan la Laguna	11	Noviembre	2023-11-25T00:00:00	2024-11-08T17:00:00	2	Temperatura media	21.3
91258	7	Sololá	717	San Juan la Laguna	12	San Juan la Laguna	11	Noviembre	2023-11-25T00:00:00	2024-11-08T17:00:00	4	Temperatura máxima	22.1
91259	7	Sololá	717	San Juan la Laguna	12	San Juan la Laguna	11	Noviembre	2023-11-25T00:00:00	2024-11-08T17:00:00	3	Temperatura mínima	21.3
91260	7	Sololá	717	San Juan la Laguna	12	San Juan la Laguna	11	Noviembre	2023-11-25T00:00:00	2024-11-08T17:00:00	5	Humedad	82
91261	7	Sololá	717	San Juan la Laguna	12	San Juan la Laguna	11	Noviembre	2023-11-25T00:00:00	2024-11-08T17:00:00	6	Velocidad del viento	3.2
91262	7	Sololá	717	San Juan la Laguna	12	San Juan la Laguna	11	Noviembre	2023-11-25T00:00:00	2024-11-08T17:00:00	7	Dirección del viento	3.22
91263	7	Sololá	717	San Juan la Laguna	12	San Juan la Laguna	11	Noviembre	2023-11-25T00:00:00	2024-11-08T17:00:00	1	Precipitación	0
91264	7	Sololá	717	San Juan la Laguna	12	San Juan la Laguna	11	Noviembre	2023-11-25T00:00:00	2024-11-08T17:00:00	8	Radiación solar	44
91265	7	Sololá	717	San Juan la Laguna	12	San Juan la Laguna	11	Noviembre	2023-11-25T00:00:00	2024-11-08T18:00:00	2	Temperatura media	20.7
91266	7	Sololá	717	San Juan la Laguna	12	San Juan la Laguna	11	Noviembre	2023-11-25T00:00:00	2024-11-08T18:00:00	4	Temperatura máxima	21.3
91267	7	Sololá	717	San Juan la Laguna	12	San Juan la Laguna	11	Noviembre	2023-11-25T00:00:00	2024-11-08T18:00:00	3	Temperatura mínima	20.7
91268	7	Sololá	717	San Juan la Laguna	12	San Juan la Laguna	11	Noviembre	2023-11-25T00:00:00	2024-11-08T18:00:00	5	Humedad	85
91269	7	Sololá	717	San Juan la Laguna	12	San Juan la Laguna	11	Noviembre	2023-11-25T00:00:00	2024-11-08T18:00:00	6	Velocidad del viento	4.8
91270	7	Sololá	717	San Juan la Laguna	12	San Juan la Laguna	11	Noviembre	2023-11-25T00:00:00	2024-11-08T18:00:00	7	Dirección del viento	4.83
91271	7	Sololá	717	San Juan la Laguna	12	San Juan la Laguna	11	Noviembre	2023-11-25T00:00:00	2024-11-08T18:00:00	1	Precipitación	0
91272	7	Sololá	717	San Juan la Laguna	12	San Juan la Laguna	11	Noviembre	2023-11-25T00:00:00	2024-11-08T18:00:00	8	Radiación solar	4
91273	7	Sololá	717	San Juan la Laguna	12	San Juan la Laguna	11	Noviembre	2023-11-25T00:00:00	2024-11-08T19:00:00	2	Temperatura media	20.2
91274	7	Sololá	717	San Juan la Laguna	12	San Juan la Laguna	11	Noviembre	2023-11-25T00:00:00	2024-11-08T19:00:00	4	Temperatura máxima	20.7
91275	7	Sololá	717	San Juan la Laguna	12	San Juan la Laguna	11	Noviembre	2023-11-25T00:00:00	2024-11-08T19:00:00	3	Temperatura mínima	20.1
91276	7	Sololá	717	San Juan la Laguna	12	San Juan la Laguna	11	Noviembre	2023-11-25T00:00:00	2024-11-08T19:00:00	5	Humedad	86
91277	7	Sololá	717	San Juan la Laguna	12	San Juan la Laguna	11	Noviembre	2023-11-25T00:00:00	2024-11-08T19:00:00	6	Velocidad del viento	1.6
91278	7	Sololá	717	San Juan la Laguna	12	San Juan la Laguna	11	Noviembre	2023-11-25T00:00:00	2024-11-08T19:00:00	7	Dirección del viento	1.61
91279	7	Sololá	717	San Juan la Laguna	12	San Juan la Laguna	11	Noviembre	2023-11-25T00:00:00	2024-11-08T19:00:00	1	Precipitación	0
91280	7	Sololá	717	San Juan la Laguna	12	San Juan la Laguna	11	Noviembre	2023-11-25T00:00:00	2024-11-08T19:00:00	8	Radiación solar	0
91281	7	Sololá	717	San Juan la Laguna	12	San Juan la Laguna	11	Noviembre	2023-11-25T00:00:00	2024-11-08T20:00:00	2	Temperatura media	19.7
91282	7	Sololá	717	San Juan la Laguna	12	San Juan la Laguna	11	Noviembre	2023-11-25T00:00:00	2024-11-08T20:00:00	4	Temperatura máxima	20.2
91283	7	Sololá	717	San Juan la Laguna	12	San Juan la Laguna	11	Noviembre	2023-11-25T00:00:00	2024-11-08T20:00:00	3	Temperatura mínima	19.6
91284	7	Sololá	717	San Juan la Laguna	12	San Juan la Laguna	11	Noviembre	2023-11-25T00:00:00	2024-11-08T20:00:00	5	Humedad	81
91285	7	Sololá	717	San Juan la Laguna	12	San Juan la Laguna	11	Noviembre	2023-11-25T00:00:00	2024-11-08T20:00:00	6	Velocidad del viento	1.6
91286	7	Sololá	717	San Juan la Laguna	12	San Juan la Laguna	11	Noviembre	2023-11-25T00:00:00	2024-11-08T20:00:00	7	Dirección del viento	1.61
91287	7	Sololá	717	San Juan la Laguna	12	San Juan la Laguna	11	Noviembre	2023-11-25T00:00:00	2024-11-08T20:00:00	1	Precipitación	0
91288	7	Sololá	717	San Juan la Laguna	12	San Juan la Laguna	11	Noviembre	2023-11-25T00:00:00	2024-11-08T20:00:00	8	Radiación solar	0
91289	7	Sololá	717	San Juan la Laguna	12	San Juan la Laguna	11	Noviembre	2023-11-25T00:00:00	2024-11-08T21:00:00	2	Temperatura media	18.3
91290	7	Sololá	717	San Juan la Laguna	12	San Juan la Laguna	11	Noviembre	2023-11-25T00:00:00	2024-11-08T21:00:00	4	Temperatura máxima	19.8
91291	7	Sololá	717	San Juan la Laguna	12	San Juan la Laguna	11	Noviembre	2023-11-25T00:00:00	2024-11-08T21:00:00	3	Temperatura mínima	18.3
91292	7	Sololá	717	San Juan la Laguna	12	San Juan la Laguna	11	Noviembre	2023-11-25T00:00:00	2024-11-08T21:00:00	5	Humedad	83
91293	7	Sololá	717	San Juan la Laguna	12	San Juan la Laguna	11	Noviembre	2023-11-25T00:00:00	2024-11-08T21:00:00	6	Velocidad del viento	3.2
91294	7	Sololá	717	San Juan la Laguna	12	San Juan la Laguna	11	Noviembre	2023-11-25T00:00:00	2024-11-08T21:00:00	7	Dirección del viento	3.22
91295	7	Sololá	717	San Juan la Laguna	12	San Juan la Laguna	11	Noviembre	2023-11-25T00:00:00	2024-11-08T21:00:00	1	Precipitación	0
91296	7	Sololá	717	San Juan la Laguna	12	San Juan la Laguna	11	Noviembre	2023-11-25T00:00:00	2024-11-08T21:00:00	8	Radiación solar	0
91297	7	Sololá	717	San Juan la Laguna	12	San Juan la Laguna	11	Noviembre	2023-11-25T00:00:00	2024-11-08T22:00:00	2	Temperatura media	18
91298	7	Sololá	717	San Juan la Laguna	12	San Juan la Laguna	11	Noviembre	2023-11-25T00:00:00	2024-11-08T22:00:00	4	Temperatura máxima	18.9
91299	7	Sololá	717	San Juan la Laguna	12	San Juan la Laguna	11	Noviembre	2023-11-25T00:00:00	2024-11-08T22:00:00	3	Temperatura mínima	17.8
91300	7	Sololá	717	San Juan la Laguna	12	San Juan la Laguna	11	Noviembre	2023-11-25T00:00:00	2024-11-08T22:00:00	5	Humedad	82
91301	7	Sololá	717	San Juan la Laguna	12	San Juan la Laguna	11	Noviembre	2023-11-25T00:00:00	2024-11-08T22:00:00	6	Velocidad del viento	1.6
91302	7	Sololá	717	San Juan la Laguna	12	San Juan la Laguna	11	Noviembre	2023-11-25T00:00:00	2024-11-08T22:00:00	7	Dirección del viento	1.61
91303	7	Sololá	717	San Juan la Laguna	12	San Juan la Laguna	11	Noviembre	2023-11-25T00:00:00	2024-11-08T22:00:00	1	Precipitación	0
91304	7	Sololá	717	San Juan la Laguna	12	San Juan la Laguna	11	Noviembre	2023-11-25T00:00:00	2024-11-08T22:00:00	8	Radiación solar	0
91305	7	Sololá	717	San Juan la Laguna	12	San Juan la Laguna	11	Noviembre	2023-11-25T00:00:00	2024-11-08T23:00:00	2	Temperatura media	16.5
91306	7	Sololá	717	San Juan la Laguna	12	San Juan la Laguna	11	Noviembre	2023-11-25T00:00:00	2024-11-08T23:00:00	4	Temperatura máxima	17.9
91307	7	Sololá	717	San Juan la Laguna	12	San Juan la Laguna	11	Noviembre	2023-11-25T00:00:00	2024-11-08T23:00:00	3	Temperatura mínima	16.5
91308	7	Sololá	717	San Juan la Laguna	12	San Juan la Laguna	11	Noviembre	2023-11-25T00:00:00	2024-11-08T23:00:00	5	Humedad	85
91309	7	Sololá	717	San Juan la Laguna	12	San Juan la Laguna	11	Noviembre	2023-11-25T00:00:00	2024-11-08T23:00:00	6	Velocidad del viento	3.2
91310	7	Sololá	717	San Juan la Laguna	12	San Juan la Laguna	11	Noviembre	2023-11-25T00:00:00	2024-11-08T23:00:00	7	Dirección del viento	3.22
91311	7	Sololá	717	San Juan la Laguna	12	San Juan la Laguna	11	Noviembre	2023-11-25T00:00:00	2024-11-08T23:00:00	1	Precipitación	0
91312	7	Sololá	717	San Juan la Laguna	12	San Juan la Laguna	11	Noviembre	2023-11-25T00:00:00	2024-11-08T23:00:00	8	Radiación solar	0
91313	7	Sololá	717	San Juan la Laguna	12	San Juan la Laguna	11	Noviembre	2023-11-26T00:00:00	2024-11-08T00:00:00	2	Temperatura media	15.1
91314	7	Sololá	717	San Juan la Laguna	12	San Juan la Laguna	11	Noviembre	2023-11-26T00:00:00	2024-11-08T00:00:00	4	Temperatura máxima	15.9
91315	7	Sololá	717	San Juan la Laguna	12	San Juan la Laguna	11	Noviembre	2023-11-26T00:00:00	2024-11-08T00:00:00	3	Temperatura mínima	15.1
91316	7	Sololá	717	San Juan la Laguna	12	San Juan la Laguna	11	Noviembre	2023-11-26T00:00:00	2024-11-08T00:00:00	5	Humedad	88
91317	7	Sololá	717	San Juan la Laguna	12	San Juan la Laguna	11	Noviembre	2023-11-26T00:00:00	2024-11-08T00:00:00	6	Velocidad del viento	6.4
91318	7	Sololá	717	San Juan la Laguna	12	San Juan la Laguna	11	Noviembre	2023-11-26T00:00:00	2024-11-08T00:00:00	7	Dirección del viento	6.44
91319	7	Sololá	717	San Juan la Laguna	12	San Juan la Laguna	11	Noviembre	2023-11-26T00:00:00	2024-11-08T00:00:00	1	Precipitación	0
91320	7	Sololá	717	San Juan la Laguna	12	San Juan la Laguna	11	Noviembre	2023-11-26T00:00:00	2024-11-08T00:00:00	8	Radiación solar	0
91321	7	Sololá	717	San Juan la Laguna	12	San Juan la Laguna	11	Noviembre	2023-11-26T00:00:00	2024-11-08T01:00:00	2	Temperatura media	15.5
91322	7	Sololá	717	San Juan la Laguna	12	San Juan la Laguna	11	Noviembre	2023-11-26T00:00:00	2024-11-08T01:00:00	4	Temperatura máxima	16.2
91323	7	Sololá	717	San Juan la Laguna	12	San Juan la Laguna	11	Noviembre	2023-11-26T00:00:00	2024-11-08T01:00:00	3	Temperatura mínima	15.5
91324	7	Sololá	717	San Juan la Laguna	12	San Juan la Laguna	11	Noviembre	2023-11-26T00:00:00	2024-11-08T01:00:00	5	Humedad	87
91325	7	Sololá	717	San Juan la Laguna	12	San Juan la Laguna	11	Noviembre	2023-11-26T00:00:00	2024-11-08T01:00:00	6	Velocidad del viento	4.8
91326	7	Sololá	717	San Juan la Laguna	12	San Juan la Laguna	11	Noviembre	2023-11-26T00:00:00	2024-11-08T01:00:00	7	Dirección del viento	4.83
91327	7	Sololá	717	San Juan la Laguna	12	San Juan la Laguna	11	Noviembre	2023-11-26T00:00:00	2024-11-08T01:00:00	1	Precipitación	0
91328	7	Sololá	717	San Juan la Laguna	12	San Juan la Laguna	11	Noviembre	2023-11-26T00:00:00	2024-11-08T01:00:00	8	Radiación solar	0
91329	7	Sololá	717	San Juan la Laguna	12	San Juan la Laguna	11	Noviembre	2023-11-26T00:00:00	2024-11-08T02:00:00	2	Temperatura media	15.1
91330	7	Sololá	717	San Juan la Laguna	12	San Juan la Laguna	11	Noviembre	2023-11-26T00:00:00	2024-11-08T02:00:00	4	Temperatura máxima	15.7
91331	7	Sololá	717	San Juan la Laguna	12	San Juan la Laguna	11	Noviembre	2023-11-26T00:00:00	2024-11-08T02:00:00	3	Temperatura mínima	15.1
91332	7	Sololá	717	San Juan la Laguna	12	San Juan la Laguna	11	Noviembre	2023-11-26T00:00:00	2024-11-08T02:00:00	5	Humedad	87
91333	7	Sololá	717	San Juan la Laguna	12	San Juan la Laguna	11	Noviembre	2023-11-26T00:00:00	2024-11-08T02:00:00	6	Velocidad del viento	4.8
91334	7	Sololá	717	San Juan la Laguna	12	San Juan la Laguna	11	Noviembre	2023-11-26T00:00:00	2024-11-08T02:00:00	7	Dirección del viento	4.83
91335	7	Sololá	717	San Juan la Laguna	12	San Juan la Laguna	11	Noviembre	2023-11-26T00:00:00	2024-11-08T02:00:00	1	Precipitación	0
91336	7	Sololá	717	San Juan la Laguna	12	San Juan la Laguna	11	Noviembre	2023-11-26T00:00:00	2024-11-08T02:00:00	8	Radiación solar	0
91337	7	Sololá	717	San Juan la Laguna	12	San Juan la Laguna	11	Noviembre	2023-11-26T00:00:00	2024-11-08T03:00:00	2	Temperatura media	15.4
91338	7	Sololá	717	San Juan la Laguna	12	San Juan la Laguna	11	Noviembre	2023-11-26T00:00:00	2024-11-08T03:00:00	4	Temperatura máxima	15.4
91339	7	Sololá	717	San Juan la Laguna	12	San Juan la Laguna	11	Noviembre	2023-11-26T00:00:00	2024-11-08T03:00:00	3	Temperatura mínima	15.1
91340	7	Sololá	717	San Juan la Laguna	12	San Juan la Laguna	11	Noviembre	2023-11-26T00:00:00	2024-11-08T03:00:00	5	Humedad	85
91341	7	Sololá	717	San Juan la Laguna	12	San Juan la Laguna	11	Noviembre	2023-11-26T00:00:00	2024-11-08T03:00:00	6	Velocidad del viento	4.8
91342	7	Sololá	717	San Juan la Laguna	12	San Juan la Laguna	11	Noviembre	2023-11-26T00:00:00	2024-11-08T03:00:00	7	Dirección del viento	4.83
91343	7	Sololá	717	San Juan la Laguna	12	San Juan la Laguna	11	Noviembre	2023-11-26T00:00:00	2024-11-08T03:00:00	1	Precipitación	0
91344	7	Sololá	717	San Juan la Laguna	12	San Juan la Laguna	11	Noviembre	2023-11-26T00:00:00	2024-11-08T03:00:00	8	Radiación solar	0
91345	7	Sololá	717	San Juan la Laguna	12	San Juan la Laguna	11	Noviembre	2023-11-26T00:00:00	2024-11-08T04:00:00	2	Temperatura media	14.8
91346	7	Sololá	717	San Juan la Laguna	12	San Juan la Laguna	11	Noviembre	2023-11-26T00:00:00	2024-11-08T04:00:00	4	Temperatura máxima	15.4
91347	7	Sololá	717	San Juan la Laguna	12	San Juan la Laguna	11	Noviembre	2023-11-26T00:00:00	2024-11-08T04:00:00	3	Temperatura mínima	14.7
91348	7	Sololá	717	San Juan la Laguna	12	San Juan la Laguna	11	Noviembre	2023-11-26T00:00:00	2024-11-08T04:00:00	5	Humedad	85
91349	7	Sololá	717	San Juan la Laguna	12	San Juan la Laguna	11	Noviembre	2023-11-26T00:00:00	2024-11-08T04:00:00	6	Velocidad del viento	4.8
91350	7	Sololá	717	San Juan la Laguna	12	San Juan la Laguna	11	Noviembre	2023-11-26T00:00:00	2024-11-08T04:00:00	7	Dirección del viento	4.83
91351	7	Sololá	717	San Juan la Laguna	12	San Juan la Laguna	11	Noviembre	2023-11-26T00:00:00	2024-11-08T04:00:00	1	Precipitación	0
91352	7	Sololá	717	San Juan la Laguna	12	San Juan la Laguna	11	Noviembre	2023-11-26T00:00:00	2024-11-08T04:00:00	8	Radiación solar	0
91353	7	Sololá	717	San Juan la Laguna	12	San Juan la Laguna	11	Noviembre	2023-11-26T00:00:00	2024-11-08T05:00:00	2	Temperatura media	14.9
91354	7	Sololá	717	San Juan la Laguna	12	San Juan la Laguna	11	Noviembre	2023-11-26T00:00:00	2024-11-08T05:00:00	4	Temperatura máxima	14.9
91355	7	Sololá	717	San Juan la Laguna	12	San Juan la Laguna	11	Noviembre	2023-11-26T00:00:00	2024-11-08T05:00:00	3	Temperatura mínima	14.7
91356	7	Sololá	717	San Juan la Laguna	12	San Juan la Laguna	11	Noviembre	2023-11-26T00:00:00	2024-11-08T05:00:00	5	Humedad	84
91357	7	Sololá	717	San Juan la Laguna	12	San Juan la Laguna	11	Noviembre	2023-11-26T00:00:00	2024-11-08T05:00:00	6	Velocidad del viento	4.8
91358	7	Sololá	717	San Juan la Laguna	12	San Juan la Laguna	11	Noviembre	2023-11-26T00:00:00	2024-11-08T05:00:00	7	Dirección del viento	4.83
91359	7	Sololá	717	San Juan la Laguna	12	San Juan la Laguna	11	Noviembre	2023-11-26T00:00:00	2024-11-08T05:00:00	1	Precipitación	0
91360	7	Sololá	717	San Juan la Laguna	12	San Juan la Laguna	11	Noviembre	2023-11-26T00:00:00	2024-11-08T05:00:00	8	Radiación solar	0
91361	7	Sololá	717	San Juan la Laguna	12	San Juan la Laguna	11	Noviembre	2023-11-26T00:00:00	2024-11-08T06:00:00	2	Temperatura media	14.5
91362	7	Sololá	717	San Juan la Laguna	12	San Juan la Laguna	11	Noviembre	2023-11-26T00:00:00	2024-11-08T06:00:00	4	Temperatura máxima	14.9
91363	7	Sololá	717	San Juan la Laguna	12	San Juan la Laguna	11	Noviembre	2023-11-26T00:00:00	2024-11-08T06:00:00	3	Temperatura mínima	14.5
91364	7	Sololá	717	San Juan la Laguna	12	San Juan la Laguna	11	Noviembre	2023-11-26T00:00:00	2024-11-08T06:00:00	5	Humedad	85
91365	7	Sololá	717	San Juan la Laguna	12	San Juan la Laguna	11	Noviembre	2023-11-26T00:00:00	2024-11-08T06:00:00	6	Velocidad del viento	6.4
91366	7	Sololá	717	San Juan la Laguna	12	San Juan la Laguna	11	Noviembre	2023-11-26T00:00:00	2024-11-08T06:00:00	7	Dirección del viento	6.44
91367	7	Sololá	717	San Juan la Laguna	12	San Juan la Laguna	11	Noviembre	2023-11-26T00:00:00	2024-11-08T06:00:00	1	Precipitación	0
91368	7	Sololá	717	San Juan la Laguna	12	San Juan la Laguna	11	Noviembre	2023-11-26T00:00:00	2024-11-08T06:00:00	8	Radiación solar	0
91369	7	Sololá	717	San Juan la Laguna	12	San Juan la Laguna	11	Noviembre	2023-11-26T00:00:00	2024-11-08T07:00:00	2	Temperatura media	14.6
91370	7	Sololá	717	San Juan la Laguna	12	San Juan la Laguna	11	Noviembre	2023-11-26T00:00:00	2024-11-08T07:00:00	4	Temperatura máxima	14.6
91371	7	Sololá	717	San Juan la Laguna	12	San Juan la Laguna	11	Noviembre	2023-11-26T00:00:00	2024-11-08T07:00:00	3	Temperatura mínima	14.2
91372	7	Sololá	717	San Juan la Laguna	12	San Juan la Laguna	11	Noviembre	2023-11-26T00:00:00	2024-11-08T07:00:00	5	Humedad	86
91373	7	Sololá	717	San Juan la Laguna	12	San Juan la Laguna	11	Noviembre	2023-11-26T00:00:00	2024-11-08T07:00:00	6	Velocidad del viento	3.2
91374	7	Sololá	717	San Juan la Laguna	12	San Juan la Laguna	11	Noviembre	2023-11-26T00:00:00	2024-11-08T07:00:00	7	Dirección del viento	3.22
91375	7	Sololá	717	San Juan la Laguna	12	San Juan la Laguna	11	Noviembre	2023-11-26T00:00:00	2024-11-08T07:00:00	1	Precipitación	0
91376	7	Sololá	717	San Juan la Laguna	12	San Juan la Laguna	11	Noviembre	2023-11-26T00:00:00	2024-11-08T07:00:00	8	Radiación solar	23
91377	7	Sololá	717	San Juan la Laguna	12	San Juan la Laguna	11	Noviembre	2023-11-26T00:00:00	2024-11-08T08:00:00	2	Temperatura media	18.1
91378	7	Sololá	717	San Juan la Laguna	12	San Juan la Laguna	11	Noviembre	2023-11-26T00:00:00	2024-11-08T08:00:00	4	Temperatura máxima	18.1
91379	7	Sololá	717	San Juan la Laguna	12	San Juan la Laguna	11	Noviembre	2023-11-26T00:00:00	2024-11-08T08:00:00	3	Temperatura mínima	14.6
91380	7	Sololá	717	San Juan la Laguna	12	San Juan la Laguna	11	Noviembre	2023-11-26T00:00:00	2024-11-08T08:00:00	5	Humedad	79
91381	7	Sololá	717	San Juan la Laguna	12	San Juan la Laguna	11	Noviembre	2023-11-26T00:00:00	2024-11-08T08:00:00	6	Velocidad del viento	4.8
91382	7	Sololá	717	San Juan la Laguna	12	San Juan la Laguna	11	Noviembre	2023-11-26T00:00:00	2024-11-08T08:00:00	7	Dirección del viento	4.83
91383	7	Sololá	717	San Juan la Laguna	12	San Juan la Laguna	11	Noviembre	2023-11-26T00:00:00	2024-11-08T08:00:00	1	Precipitación	0
91384	7	Sololá	717	San Juan la Laguna	12	San Juan la Laguna	11	Noviembre	2023-11-26T00:00:00	2024-11-08T08:00:00	8	Radiación solar	173
91385	7	Sololá	717	San Juan la Laguna	12	San Juan la Laguna	11	Noviembre	2023-11-26T00:00:00	2024-11-08T09:00:00	2	Temperatura media	21.2
91386	7	Sololá	717	San Juan la Laguna	12	San Juan la Laguna	11	Noviembre	2023-11-26T00:00:00	2024-11-08T09:00:00	4	Temperatura máxima	21.6
91387	7	Sololá	717	San Juan la Laguna	12	San Juan la Laguna	11	Noviembre	2023-11-26T00:00:00	2024-11-08T09:00:00	3	Temperatura mínima	18.1
91388	7	Sololá	717	San Juan la Laguna	12	San Juan la Laguna	11	Noviembre	2023-11-26T00:00:00	2024-11-08T09:00:00	5	Humedad	67
91389	7	Sololá	717	San Juan la Laguna	12	San Juan la Laguna	11	Noviembre	2023-11-26T00:00:00	2024-11-08T09:00:00	6	Velocidad del viento	1.6
91390	7	Sololá	717	San Juan la Laguna	12	San Juan la Laguna	11	Noviembre	2023-11-26T00:00:00	2024-11-08T09:00:00	7	Dirección del viento	1.61
91391	7	Sololá	717	San Juan la Laguna	12	San Juan la Laguna	11	Noviembre	2023-11-26T00:00:00	2024-11-08T09:00:00	1	Precipitación	0
91392	7	Sololá	717	San Juan la Laguna	12	San Juan la Laguna	11	Noviembre	2023-11-26T00:00:00	2024-11-08T09:00:00	8	Radiación solar	402
91393	7	Sololá	717	San Juan la Laguna	12	San Juan la Laguna	11	Noviembre	2023-11-26T00:00:00	2024-11-08T10:00:00	2	Temperatura media	22.6
91394	7	Sololá	717	San Juan la Laguna	12	San Juan la Laguna	11	Noviembre	2023-11-26T00:00:00	2024-11-08T10:00:00	4	Temperatura máxima	22.8
91395	7	Sololá	717	San Juan la Laguna	12	San Juan la Laguna	11	Noviembre	2023-11-26T00:00:00	2024-11-08T10:00:00	3	Temperatura mínima	21.1
91396	7	Sololá	717	San Juan la Laguna	12	San Juan la Laguna	11	Noviembre	2023-11-26T00:00:00	2024-11-08T10:00:00	5	Humedad	60
91397	7	Sololá	717	San Juan la Laguna	12	San Juan la Laguna	11	Noviembre	2023-11-26T00:00:00	2024-11-08T10:00:00	6	Velocidad del viento	4.8
91398	7	Sololá	717	San Juan la Laguna	12	San Juan la Laguna	11	Noviembre	2023-11-26T00:00:00	2024-11-08T10:00:00	7	Dirección del viento	4.83
91399	7	Sololá	717	San Juan la Laguna	12	San Juan la Laguna	11	Noviembre	2023-11-26T00:00:00	2024-11-08T10:00:00	1	Precipitación	0
91400	7	Sololá	717	San Juan la Laguna	12	San Juan la Laguna	11	Noviembre	2023-11-26T00:00:00	2024-11-08T10:00:00	8	Radiación solar	592
91401	7	Sololá	717	San Juan la Laguna	12	San Juan la Laguna	11	Noviembre	2023-11-26T00:00:00	2024-11-08T11:00:00	2	Temperatura media	24.1
91402	7	Sololá	717	San Juan la Laguna	12	San Juan la Laguna	11	Noviembre	2023-11-26T00:00:00	2024-11-08T11:00:00	4	Temperatura máxima	24.1
91403	7	Sololá	717	San Juan la Laguna	12	San Juan la Laguna	11	Noviembre	2023-11-26T00:00:00	2024-11-08T11:00:00	3	Temperatura mínima	22.3
91404	7	Sololá	717	San Juan la Laguna	12	San Juan la Laguna	11	Noviembre	2023-11-26T00:00:00	2024-11-08T11:00:00	5	Humedad	55
91405	7	Sololá	717	San Juan la Laguna	12	San Juan la Laguna	11	Noviembre	2023-11-26T00:00:00	2024-11-08T11:00:00	6	Velocidad del viento	4.8
91406	7	Sololá	717	San Juan la Laguna	12	San Juan la Laguna	11	Noviembre	2023-11-26T00:00:00	2024-11-08T11:00:00	7	Dirección del viento	4.83
91407	7	Sololá	717	San Juan la Laguna	12	San Juan la Laguna	11	Noviembre	2023-11-26T00:00:00	2024-11-08T11:00:00	1	Precipitación	0
91408	7	Sololá	717	San Juan la Laguna	12	San Juan la Laguna	11	Noviembre	2023-11-26T00:00:00	2024-11-08T11:00:00	8	Radiación solar	598
91409	7	Sololá	717	San Juan la Laguna	12	San Juan la Laguna	11	Noviembre	2023-11-26T00:00:00	2024-11-08T12:00:00	2	Temperatura media	24.3
91410	7	Sololá	717	San Juan la Laguna	12	San Juan la Laguna	11	Noviembre	2023-11-26T00:00:00	2024-11-08T12:00:00	4	Temperatura máxima	24.4
91411	7	Sololá	717	San Juan la Laguna	12	San Juan la Laguna	11	Noviembre	2023-11-26T00:00:00	2024-11-08T12:00:00	3	Temperatura mínima	23.8
91412	7	Sololá	717	San Juan la Laguna	12	San Juan la Laguna	11	Noviembre	2023-11-26T00:00:00	2024-11-08T12:00:00	5	Humedad	56
91413	7	Sololá	717	San Juan la Laguna	12	San Juan la Laguna	11	Noviembre	2023-11-26T00:00:00	2024-11-08T12:00:00	6	Velocidad del viento	8
91414	7	Sololá	717	San Juan la Laguna	12	San Juan la Laguna	11	Noviembre	2023-11-26T00:00:00	2024-11-08T12:00:00	7	Dirección del viento	8.05
91415	7	Sololá	717	San Juan la Laguna	12	San Juan la Laguna	11	Noviembre	2023-11-26T00:00:00	2024-11-08T12:00:00	1	Precipitación	0
91416	7	Sololá	717	San Juan la Laguna	12	San Juan la Laguna	11	Noviembre	2023-11-26T00:00:00	2024-11-08T12:00:00	8	Radiación solar	747
91417	7	Sololá	717	San Juan la Laguna	12	San Juan la Laguna	11	Noviembre	2023-11-26T00:00:00	2024-11-08T13:00:00	2	Temperatura media	24.8
91418	7	Sololá	717	San Juan la Laguna	12	San Juan la Laguna	11	Noviembre	2023-11-26T00:00:00	2024-11-08T13:00:00	4	Temperatura máxima	25.2
91419	7	Sololá	717	San Juan la Laguna	12	San Juan la Laguna	11	Noviembre	2023-11-26T00:00:00	2024-11-08T13:00:00	3	Temperatura mínima	24.1
91420	7	Sololá	717	San Juan la Laguna	12	San Juan la Laguna	11	Noviembre	2023-11-26T00:00:00	2024-11-08T13:00:00	5	Humedad	61
91421	7	Sololá	717	San Juan la Laguna	12	San Juan la Laguna	11	Noviembre	2023-11-26T00:00:00	2024-11-08T13:00:00	6	Velocidad del viento	8
91422	7	Sololá	717	San Juan la Laguna	12	San Juan la Laguna	11	Noviembre	2023-11-26T00:00:00	2024-11-08T13:00:00	7	Dirección del viento	8.05
91423	7	Sololá	717	San Juan la Laguna	12	San Juan la Laguna	11	Noviembre	2023-11-26T00:00:00	2024-11-08T13:00:00	1	Precipitación	0
91424	7	Sololá	717	San Juan la Laguna	12	San Juan la Laguna	11	Noviembre	2023-11-26T00:00:00	2024-11-08T13:00:00	8	Radiación solar	793
91425	7	Sololá	717	San Juan la Laguna	12	San Juan la Laguna	11	Noviembre	2023-11-26T00:00:00	2024-11-08T14:00:00	2	Temperatura media	24.5
91426	7	Sololá	717	San Juan la Laguna	12	San Juan la Laguna	11	Noviembre	2023-11-26T00:00:00	2024-11-08T14:00:00	4	Temperatura máxima	25.5
91427	7	Sololá	717	San Juan la Laguna	12	San Juan la Laguna	11	Noviembre	2023-11-26T00:00:00	2024-11-08T14:00:00	3	Temperatura mínima	24.5
91428	7	Sololá	717	San Juan la Laguna	12	San Juan la Laguna	11	Noviembre	2023-11-26T00:00:00	2024-11-08T14:00:00	5	Humedad	57
91429	7	Sololá	717	San Juan la Laguna	12	San Juan la Laguna	11	Noviembre	2023-11-26T00:00:00	2024-11-08T14:00:00	6	Velocidad del viento	8
91430	7	Sololá	717	San Juan la Laguna	12	San Juan la Laguna	11	Noviembre	2023-11-26T00:00:00	2024-11-08T14:00:00	7	Dirección del viento	8.05
91431	7	Sololá	717	San Juan la Laguna	12	San Juan la Laguna	11	Noviembre	2023-11-26T00:00:00	2024-11-08T14:00:00	1	Precipitación	0
91432	7	Sololá	717	San Juan la Laguna	12	San Juan la Laguna	11	Noviembre	2023-11-26T00:00:00	2024-11-08T14:00:00	8	Radiación solar	721
91433	7	Sololá	717	San Juan la Laguna	12	San Juan la Laguna	11	Noviembre	2023-11-26T00:00:00	2024-11-08T15:00:00	2	Temperatura media	23.9
91434	7	Sololá	717	San Juan la Laguna	12	San Juan la Laguna	11	Noviembre	2023-11-26T00:00:00	2024-11-08T15:00:00	4	Temperatura máxima	25.3
91435	7	Sololá	717	San Juan la Laguna	12	San Juan la Laguna	11	Noviembre	2023-11-26T00:00:00	2024-11-08T15:00:00	3	Temperatura mínima	23.8
91436	7	Sololá	717	San Juan la Laguna	12	San Juan la Laguna	11	Noviembre	2023-11-26T00:00:00	2024-11-08T15:00:00	5	Humedad	67
91437	7	Sololá	717	San Juan la Laguna	12	San Juan la Laguna	11	Noviembre	2023-11-26T00:00:00	2024-11-08T15:00:00	6	Velocidad del viento	6.4
91438	7	Sololá	717	San Juan la Laguna	12	San Juan la Laguna	11	Noviembre	2023-11-26T00:00:00	2024-11-08T15:00:00	7	Dirección del viento	6.44
91439	7	Sololá	717	San Juan la Laguna	12	San Juan la Laguna	11	Noviembre	2023-11-26T00:00:00	2024-11-08T15:00:00	1	Precipitación	0
91440	7	Sololá	717	San Juan la Laguna	12	San Juan la Laguna	11	Noviembre	2023-11-26T00:00:00	2024-11-08T15:00:00	8	Radiación solar	579
91441	7	Sololá	717	San Juan la Laguna	12	San Juan la Laguna	11	Noviembre	2023-11-26T00:00:00	2024-11-08T16:00:00	2	Temperatura media	23.3
91442	7	Sololá	717	San Juan la Laguna	12	San Juan la Laguna	11	Noviembre	2023-11-26T00:00:00	2024-11-08T16:00:00	4	Temperatura máxima	24.1
91443	7	Sololá	717	San Juan la Laguna	12	San Juan la Laguna	11	Noviembre	2023-11-26T00:00:00	2024-11-08T16:00:00	3	Temperatura mínima	23.1
91444	7	Sololá	717	San Juan la Laguna	12	San Juan la Laguna	11	Noviembre	2023-11-26T00:00:00	2024-11-08T16:00:00	5	Humedad	70
91445	7	Sololá	717	San Juan la Laguna	12	San Juan la Laguna	11	Noviembre	2023-11-26T00:00:00	2024-11-08T16:00:00	6	Velocidad del viento	6.4
91446	7	Sololá	717	San Juan la Laguna	12	San Juan la Laguna	11	Noviembre	2023-11-26T00:00:00	2024-11-08T16:00:00	7	Dirección del viento	6.44
91447	7	Sololá	717	San Juan la Laguna	12	San Juan la Laguna	11	Noviembre	2023-11-26T00:00:00	2024-11-08T16:00:00	1	Precipitación	0
91448	7	Sololá	717	San Juan la Laguna	12	San Juan la Laguna	11	Noviembre	2023-11-26T00:00:00	2024-11-08T16:00:00	8	Radiación solar	263
91449	7	Sololá	717	San Juan la Laguna	12	San Juan la Laguna	11	Noviembre	2023-11-26T00:00:00	2024-11-08T17:00:00	2	Temperatura media	21.7
91450	7	Sololá	717	San Juan la Laguna	12	San Juan la Laguna	11	Noviembre	2023-11-26T00:00:00	2024-11-08T17:00:00	4	Temperatura máxima	23.6
91451	7	Sololá	717	San Juan la Laguna	12	San Juan la Laguna	11	Noviembre	2023-11-26T00:00:00	2024-11-08T17:00:00	3	Temperatura mínima	21.7
91452	7	Sololá	717	San Juan la Laguna	12	San Juan la Laguna	11	Noviembre	2023-11-26T00:00:00	2024-11-08T17:00:00	5	Humedad	77
91453	7	Sololá	717	San Juan la Laguna	12	San Juan la Laguna	11	Noviembre	2023-11-26T00:00:00	2024-11-08T17:00:00	6	Velocidad del viento	3.2
91454	7	Sololá	717	San Juan la Laguna	12	San Juan la Laguna	11	Noviembre	2023-11-26T00:00:00	2024-11-08T17:00:00	7	Dirección del viento	3.22
91455	7	Sololá	717	San Juan la Laguna	12	San Juan la Laguna	11	Noviembre	2023-11-26T00:00:00	2024-11-08T17:00:00	1	Precipitación	0
91456	7	Sololá	717	San Juan la Laguna	12	San Juan la Laguna	11	Noviembre	2023-11-26T00:00:00	2024-11-08T17:00:00	8	Radiación solar	113
91457	7	Sololá	717	San Juan la Laguna	12	San Juan la Laguna	11	Noviembre	2023-11-26T00:00:00	2024-11-08T18:00:00	2	Temperatura media	19.4
91458	7	Sololá	717	San Juan la Laguna	12	San Juan la Laguna	11	Noviembre	2023-11-26T00:00:00	2024-11-08T18:00:00	4	Temperatura máxima	21.7
91459	7	Sololá	717	San Juan la Laguna	12	San Juan la Laguna	11	Noviembre	2023-11-26T00:00:00	2024-11-08T18:00:00	3	Temperatura mínima	19.4
91460	7	Sololá	717	San Juan la Laguna	12	San Juan la Laguna	11	Noviembre	2023-11-26T00:00:00	2024-11-08T18:00:00	5	Humedad	83
91461	7	Sololá	717	San Juan la Laguna	12	San Juan la Laguna	11	Noviembre	2023-11-26T00:00:00	2024-11-08T18:00:00	6	Velocidad del viento	3.2
91462	7	Sololá	717	San Juan la Laguna	12	San Juan la Laguna	11	Noviembre	2023-11-26T00:00:00	2024-11-08T18:00:00	7	Dirección del viento	3.22
91463	7	Sololá	717	San Juan la Laguna	12	San Juan la Laguna	11	Noviembre	2023-11-26T00:00:00	2024-11-08T18:00:00	1	Precipitación	0
91464	7	Sololá	717	San Juan la Laguna	12	San Juan la Laguna	11	Noviembre	2023-11-26T00:00:00	2024-11-08T18:00:00	8	Radiación solar	11
91465	7	Sololá	717	San Juan la Laguna	12	San Juan la Laguna	11	Noviembre	2023-11-26T00:00:00	2024-11-08T19:00:00	2	Temperatura media	18.1
91466	7	Sololá	717	San Juan la Laguna	12	San Juan la Laguna	11	Noviembre	2023-11-26T00:00:00	2024-11-08T19:00:00	4	Temperatura máxima	19.4
91467	7	Sololá	717	San Juan la Laguna	12	San Juan la Laguna	11	Noviembre	2023-11-26T00:00:00	2024-11-08T19:00:00	3	Temperatura mínima	18.1
91468	7	Sololá	717	San Juan la Laguna	12	San Juan la Laguna	11	Noviembre	2023-11-26T00:00:00	2024-11-08T19:00:00	5	Humedad	85
91469	7	Sololá	717	San Juan la Laguna	12	San Juan la Laguna	11	Noviembre	2023-11-26T00:00:00	2024-11-08T19:00:00	6	Velocidad del viento	4.8
91470	7	Sololá	717	San Juan la Laguna	12	San Juan la Laguna	11	Noviembre	2023-11-26T00:00:00	2024-11-08T19:00:00	7	Dirección del viento	4.83
91471	7	Sololá	717	San Juan la Laguna	12	San Juan la Laguna	11	Noviembre	2023-11-26T00:00:00	2024-11-08T19:00:00	1	Precipitación	0
91472	7	Sololá	717	San Juan la Laguna	12	San Juan la Laguna	11	Noviembre	2023-11-26T00:00:00	2024-11-08T19:00:00	8	Radiación solar	0
91473	7	Sololá	717	San Juan la Laguna	12	San Juan la Laguna	11	Noviembre	2023-11-26T00:00:00	2024-11-08T20:00:00	2	Temperatura media	17.2
91474	7	Sololá	717	San Juan la Laguna	12	San Juan la Laguna	11	Noviembre	2023-11-26T00:00:00	2024-11-08T20:00:00	4	Temperatura máxima	18.2
91475	7	Sololá	717	San Juan la Laguna	12	San Juan la Laguna	11	Noviembre	2023-11-26T00:00:00	2024-11-08T20:00:00	3	Temperatura mínima	17.2
91476	7	Sololá	717	San Juan la Laguna	12	San Juan la Laguna	11	Noviembre	2023-11-26T00:00:00	2024-11-08T20:00:00	5	Humedad	84
91477	7	Sololá	717	San Juan la Laguna	12	San Juan la Laguna	11	Noviembre	2023-11-26T00:00:00	2024-11-08T20:00:00	6	Velocidad del viento	3.2
91478	7	Sololá	717	San Juan la Laguna	12	San Juan la Laguna	11	Noviembre	2023-11-26T00:00:00	2024-11-08T20:00:00	7	Dirección del viento	3.22
91479	7	Sololá	717	San Juan la Laguna	12	San Juan la Laguna	11	Noviembre	2023-11-26T00:00:00	2024-11-08T20:00:00	1	Precipitación	0
91480	7	Sololá	717	San Juan la Laguna	12	San Juan la Laguna	11	Noviembre	2023-11-26T00:00:00	2024-11-08T20:00:00	8	Radiación solar	0
91481	7	Sololá	717	San Juan la Laguna	12	San Juan la Laguna	11	Noviembre	2023-11-26T00:00:00	2024-11-08T21:00:00	2	Temperatura media	17
91482	7	Sololá	717	San Juan la Laguna	12	San Juan la Laguna	11	Noviembre	2023-11-26T00:00:00	2024-11-08T21:00:00	4	Temperatura máxima	17.3
91483	7	Sololá	717	San Juan la Laguna	12	San Juan la Laguna	11	Noviembre	2023-11-26T00:00:00	2024-11-08T21:00:00	3	Temperatura mínima	16.9
91484	7	Sololá	717	San Juan la Laguna	12	San Juan la Laguna	11	Noviembre	2023-11-26T00:00:00	2024-11-08T21:00:00	5	Humedad	86
91485	7	Sololá	717	San Juan la Laguna	12	San Juan la Laguna	11	Noviembre	2023-11-26T00:00:00	2024-11-08T21:00:00	6	Velocidad del viento	3.2
91486	7	Sololá	717	San Juan la Laguna	12	San Juan la Laguna	11	Noviembre	2023-11-26T00:00:00	2024-11-08T21:00:00	7	Dirección del viento	3.22
91487	7	Sololá	717	San Juan la Laguna	12	San Juan la Laguna	11	Noviembre	2023-11-26T00:00:00	2024-11-08T21:00:00	1	Precipitación	0
91488	7	Sololá	717	San Juan la Laguna	12	San Juan la Laguna	11	Noviembre	2023-11-26T00:00:00	2024-11-08T21:00:00	8	Radiación solar	0
91489	7	Sololá	717	San Juan la Laguna	12	San Juan la Laguna	11	Noviembre	2023-11-26T00:00:00	2024-11-08T22:00:00	2	Temperatura media	16.7
91490	7	Sololá	717	San Juan la Laguna	12	San Juan la Laguna	11	Noviembre	2023-11-26T00:00:00	2024-11-08T22:00:00	4	Temperatura máxima	16.9
91491	7	Sololá	717	San Juan la Laguna	12	San Juan la Laguna	11	Noviembre	2023-11-26T00:00:00	2024-11-08T22:00:00	3	Temperatura mínima	16.6
91492	7	Sololá	717	San Juan la Laguna	12	San Juan la Laguna	11	Noviembre	2023-11-26T00:00:00	2024-11-08T22:00:00	5	Humedad	85
91493	7	Sololá	717	San Juan la Laguna	12	San Juan la Laguna	11	Noviembre	2023-11-26T00:00:00	2024-11-08T22:00:00	6	Velocidad del viento	3.2
91494	7	Sololá	717	San Juan la Laguna	12	San Juan la Laguna	11	Noviembre	2023-11-26T00:00:00	2024-11-08T22:00:00	7	Dirección del viento	3.22
91495	7	Sololá	717	San Juan la Laguna	12	San Juan la Laguna	11	Noviembre	2023-11-26T00:00:00	2024-11-08T22:00:00	1	Precipitación	0
91496	7	Sololá	717	San Juan la Laguna	12	San Juan la Laguna	11	Noviembre	2023-11-26T00:00:00	2024-11-08T22:00:00	8	Radiación solar	0
91497	7	Sololá	717	San Juan la Laguna	12	San Juan la Laguna	11	Noviembre	2023-11-26T00:00:00	2024-11-08T23:00:00	2	Temperatura media	16.5
91498	7	Sololá	717	San Juan la Laguna	12	San Juan la Laguna	11	Noviembre	2023-11-26T00:00:00	2024-11-08T23:00:00	4	Temperatura máxima	18
91499	7	Sololá	717	San Juan la Laguna	12	San Juan la Laguna	11	Noviembre	2023-11-26T00:00:00	2024-11-08T23:00:00	3	Temperatura mínima	16.5
91500	7	Sololá	717	San Juan la Laguna	12	San Juan la Laguna	11	Noviembre	2023-11-26T00:00:00	2024-11-08T23:00:00	5	Humedad	83
91501	7	Sololá	717	San Juan la Laguna	12	San Juan la Laguna	11	Noviembre	2023-11-26T00:00:00	2024-11-08T23:00:00	6	Velocidad del viento	3.2
91502	7	Sololá	717	San Juan la Laguna	12	San Juan la Laguna	11	Noviembre	2023-11-26T00:00:00	2024-11-08T23:00:00	7	Dirección del viento	3.22
91503	7	Sololá	717	San Juan la Laguna	12	San Juan la Laguna	11	Noviembre	2023-11-26T00:00:00	2024-11-08T23:00:00	1	Precipitación	0
91504	7	Sololá	717	San Juan la Laguna	12	San Juan la Laguna	11	Noviembre	2023-11-26T00:00:00	2024-11-08T23:00:00	8	Radiación solar	0
91505	7	Sololá	717	San Juan la Laguna	12	San Juan la Laguna	11	Noviembre	2023-11-27T00:00:00	2024-11-08T00:00:00	2	Temperatura media	16.3
91506	7	Sololá	717	San Juan la Laguna	12	San Juan la Laguna	11	Noviembre	2023-11-27T00:00:00	2024-11-08T00:00:00	4	Temperatura máxima	16.9
91507	7	Sololá	717	San Juan la Laguna	12	San Juan la Laguna	11	Noviembre	2023-11-27T00:00:00	2024-11-08T00:00:00	3	Temperatura mínima	16.2
91508	7	Sololá	717	San Juan la Laguna	12	San Juan la Laguna	11	Noviembre	2023-11-27T00:00:00	2024-11-08T00:00:00	5	Humedad	81
91509	7	Sololá	717	San Juan la Laguna	12	San Juan la Laguna	11	Noviembre	2023-11-27T00:00:00	2024-11-08T00:00:00	6	Velocidad del viento	3.2
91510	7	Sololá	717	San Juan la Laguna	12	San Juan la Laguna	11	Noviembre	2023-11-27T00:00:00	2024-11-08T00:00:00	7	Dirección del viento	3.22
91511	7	Sololá	717	San Juan la Laguna	12	San Juan la Laguna	11	Noviembre	2023-11-27T00:00:00	2024-11-08T00:00:00	1	Precipitación	0
91512	7	Sololá	717	San Juan la Laguna	12	San Juan la Laguna	11	Noviembre	2023-11-27T00:00:00	2024-11-08T00:00:00	8	Radiación solar	0
91513	7	Sololá	717	San Juan la Laguna	12	San Juan la Laguna	11	Noviembre	2023-11-27T00:00:00	2024-11-08T01:00:00	2	Temperatura media	16.2
91514	7	Sololá	717	San Juan la Laguna	12	San Juan la Laguna	11	Noviembre	2023-11-27T00:00:00	2024-11-08T01:00:00	4	Temperatura máxima	16.8
91515	7	Sololá	717	San Juan la Laguna	12	San Juan la Laguna	11	Noviembre	2023-11-27T00:00:00	2024-11-08T01:00:00	3	Temperatura mínima	16.2
91516	7	Sololá	717	San Juan la Laguna	12	San Juan la Laguna	11	Noviembre	2023-11-27T00:00:00	2024-11-08T01:00:00	5	Humedad	80
91517	7	Sololá	717	San Juan la Laguna	12	San Juan la Laguna	11	Noviembre	2023-11-27T00:00:00	2024-11-08T01:00:00	6	Velocidad del viento	3.2
91518	7	Sololá	717	San Juan la Laguna	12	San Juan la Laguna	11	Noviembre	2023-11-27T00:00:00	2024-11-08T01:00:00	7	Dirección del viento	3.22
91519	7	Sololá	717	San Juan la Laguna	12	San Juan la Laguna	11	Noviembre	2023-11-27T00:00:00	2024-11-08T01:00:00	1	Precipitación	0
91520	7	Sololá	717	San Juan la Laguna	12	San Juan la Laguna	11	Noviembre	2023-11-27T00:00:00	2024-11-08T01:00:00	8	Radiación solar	0
91521	7	Sololá	717	San Juan la Laguna	12	San Juan la Laguna	11	Noviembre	2023-11-27T00:00:00	2024-11-08T02:00:00	2	Temperatura media	16.9
91522	7	Sololá	717	San Juan la Laguna	12	San Juan la Laguna	11	Noviembre	2023-11-27T00:00:00	2024-11-08T02:00:00	4	Temperatura máxima	17
91523	7	Sololá	717	San Juan la Laguna	12	San Juan la Laguna	11	Noviembre	2023-11-27T00:00:00	2024-11-08T02:00:00	3	Temperatura mínima	16.1
91524	7	Sololá	717	San Juan la Laguna	12	San Juan la Laguna	11	Noviembre	2023-11-27T00:00:00	2024-11-08T02:00:00	5	Humedad	75
91525	7	Sololá	717	San Juan la Laguna	12	San Juan la Laguna	11	Noviembre	2023-11-27T00:00:00	2024-11-08T02:00:00	6	Velocidad del viento	4.8
91526	7	Sololá	717	San Juan la Laguna	12	San Juan la Laguna	11	Noviembre	2023-11-27T00:00:00	2024-11-08T02:00:00	7	Dirección del viento	4.83
91527	7	Sololá	717	San Juan la Laguna	12	San Juan la Laguna	11	Noviembre	2023-11-27T00:00:00	2024-11-08T02:00:00	1	Precipitación	0
91528	7	Sololá	717	San Juan la Laguna	12	San Juan la Laguna	11	Noviembre	2023-11-27T00:00:00	2024-11-08T02:00:00	8	Radiación solar	0
91529	7	Sololá	717	San Juan la Laguna	12	San Juan la Laguna	11	Noviembre	2023-11-27T00:00:00	2024-11-08T03:00:00	2	Temperatura media	15.6
91530	7	Sololá	717	San Juan la Laguna	12	San Juan la Laguna	11	Noviembre	2023-11-27T00:00:00	2024-11-08T03:00:00	4	Temperatura máxima	17.2
91531	7	Sololá	717	San Juan la Laguna	12	San Juan la Laguna	11	Noviembre	2023-11-27T00:00:00	2024-11-08T03:00:00	3	Temperatura mínima	15.6
91532	7	Sololá	717	San Juan la Laguna	12	San Juan la Laguna	11	Noviembre	2023-11-27T00:00:00	2024-11-08T03:00:00	5	Humedad	77
91533	7	Sololá	717	San Juan la Laguna	12	San Juan la Laguna	11	Noviembre	2023-11-27T00:00:00	2024-11-08T03:00:00	6	Velocidad del viento	4.8
91534	7	Sololá	717	San Juan la Laguna	12	San Juan la Laguna	11	Noviembre	2023-11-27T00:00:00	2024-11-08T03:00:00	7	Dirección del viento	4.83
91535	7	Sololá	717	San Juan la Laguna	12	San Juan la Laguna	11	Noviembre	2023-11-27T00:00:00	2024-11-08T03:00:00	1	Precipitación	0
91536	7	Sololá	717	San Juan la Laguna	12	San Juan la Laguna	11	Noviembre	2023-11-27T00:00:00	2024-11-08T03:00:00	8	Radiación solar	0
91537	7	Sololá	717	San Juan la Laguna	12	San Juan la Laguna	11	Noviembre	2023-11-27T00:00:00	2024-11-08T04:00:00	2	Temperatura media	15.9
91538	7	Sololá	717	San Juan la Laguna	12	San Juan la Laguna	11	Noviembre	2023-11-27T00:00:00	2024-11-08T04:00:00	4	Temperatura máxima	15.9
91539	7	Sololá	717	San Juan la Laguna	12	San Juan la Laguna	11	Noviembre	2023-11-27T00:00:00	2024-11-08T04:00:00	3	Temperatura mínima	15.1
91540	7	Sololá	717	San Juan la Laguna	12	San Juan la Laguna	11	Noviembre	2023-11-27T00:00:00	2024-11-08T04:00:00	5	Humedad	74
91541	7	Sololá	717	San Juan la Laguna	12	San Juan la Laguna	11	Noviembre	2023-11-27T00:00:00	2024-11-08T04:00:00	6	Velocidad del viento	6.4
91542	7	Sololá	717	San Juan la Laguna	12	San Juan la Laguna	11	Noviembre	2023-11-27T00:00:00	2024-11-08T04:00:00	7	Dirección del viento	6.44
91543	7	Sololá	717	San Juan la Laguna	12	San Juan la Laguna	11	Noviembre	2023-11-27T00:00:00	2024-11-08T04:00:00	1	Precipitación	0
91544	7	Sololá	717	San Juan la Laguna	12	San Juan la Laguna	11	Noviembre	2023-11-27T00:00:00	2024-11-08T04:00:00	8	Radiación solar	0
91545	7	Sololá	717	San Juan la Laguna	12	San Juan la Laguna	11	Noviembre	2023-11-27T00:00:00	2024-11-08T05:00:00	2	Temperatura media	15.3
91546	7	Sololá	717	San Juan la Laguna	12	San Juan la Laguna	11	Noviembre	2023-11-27T00:00:00	2024-11-08T05:00:00	4	Temperatura máxima	15.9
91547	7	Sololá	717	San Juan la Laguna	12	San Juan la Laguna	11	Noviembre	2023-11-27T00:00:00	2024-11-08T05:00:00	3	Temperatura mínima	15.1
91548	7	Sololá	717	San Juan la Laguna	12	San Juan la Laguna	11	Noviembre	2023-11-27T00:00:00	2024-11-08T05:00:00	5	Humedad	73
91549	7	Sololá	717	San Juan la Laguna	12	San Juan la Laguna	11	Noviembre	2023-11-27T00:00:00	2024-11-08T05:00:00	6	Velocidad del viento	4.8
91550	7	Sololá	717	San Juan la Laguna	12	San Juan la Laguna	11	Noviembre	2023-11-27T00:00:00	2024-11-08T05:00:00	7	Dirección del viento	4.83
91551	7	Sololá	717	San Juan la Laguna	12	San Juan la Laguna	11	Noviembre	2023-11-27T00:00:00	2024-11-08T05:00:00	1	Precipitación	0
91552	7	Sololá	717	San Juan la Laguna	12	San Juan la Laguna	11	Noviembre	2023-11-27T00:00:00	2024-11-08T05:00:00	8	Radiación solar	0
91553	7	Sololá	717	San Juan la Laguna	12	San Juan la Laguna	11	Noviembre	2023-11-27T00:00:00	2024-11-08T06:00:00	2	Temperatura media	15.6
91554	7	Sololá	717	San Juan la Laguna	12	San Juan la Laguna	11	Noviembre	2023-11-27T00:00:00	2024-11-08T06:00:00	4	Temperatura máxima	16.5
91555	7	Sololá	717	San Juan la Laguna	12	San Juan la Laguna	11	Noviembre	2023-11-27T00:00:00	2024-11-08T06:00:00	3	Temperatura mínima	15.2
91556	7	Sololá	717	San Juan la Laguna	12	San Juan la Laguna	11	Noviembre	2023-11-27T00:00:00	2024-11-08T06:00:00	5	Humedad	72
91557	7	Sololá	717	San Juan la Laguna	12	San Juan la Laguna	11	Noviembre	2023-11-27T00:00:00	2024-11-08T06:00:00	6	Velocidad del viento	3.2
91558	7	Sololá	717	San Juan la Laguna	12	San Juan la Laguna	11	Noviembre	2023-11-27T00:00:00	2024-11-08T06:00:00	7	Dirección del viento	3.22
91559	7	Sololá	717	San Juan la Laguna	12	San Juan la Laguna	11	Noviembre	2023-11-27T00:00:00	2024-11-08T06:00:00	1	Precipitación	0
91560	7	Sololá	717	San Juan la Laguna	12	San Juan la Laguna	11	Noviembre	2023-11-27T00:00:00	2024-11-08T06:00:00	8	Radiación solar	0
91561	7	Sololá	717	San Juan la Laguna	12	San Juan la Laguna	11	Noviembre	2023-11-27T00:00:00	2024-11-08T07:00:00	2	Temperatura media	19.4
91562	7	Sololá	717	San Juan la Laguna	12	San Juan la Laguna	11	Noviembre	2023-11-27T00:00:00	2024-11-08T07:00:00	4	Temperatura máxima	19.4
91563	7	Sololá	717	San Juan la Laguna	12	San Juan la Laguna	11	Noviembre	2023-11-27T00:00:00	2024-11-08T07:00:00	3	Temperatura mínima	15.4
91564	7	Sololá	717	San Juan la Laguna	12	San Juan la Laguna	11	Noviembre	2023-11-27T00:00:00	2024-11-08T07:00:00	5	Humedad	65
91565	7	Sololá	717	San Juan la Laguna	12	San Juan la Laguna	11	Noviembre	2023-11-27T00:00:00	2024-11-08T07:00:00	6	Velocidad del viento	8
91566	7	Sololá	717	San Juan la Laguna	12	San Juan la Laguna	11	Noviembre	2023-11-27T00:00:00	2024-11-08T07:00:00	7	Dirección del viento	8.05
91567	7	Sololá	717	San Juan la Laguna	12	San Juan la Laguna	11	Noviembre	2023-11-27T00:00:00	2024-11-08T07:00:00	1	Precipitación	0
91568	7	Sololá	717	San Juan la Laguna	12	San Juan la Laguna	11	Noviembre	2023-11-27T00:00:00	2024-11-08T07:00:00	8	Radiación solar	22
91569	7	Sololá	717	San Juan la Laguna	12	San Juan la Laguna	11	Noviembre	2023-11-27T00:00:00	2024-11-08T08:00:00	2	Temperatura media	21.1
91570	7	Sololá	717	San Juan la Laguna	12	San Juan la Laguna	11	Noviembre	2023-11-27T00:00:00	2024-11-08T08:00:00	4	Temperatura máxima	21.1
91571	7	Sololá	717	San Juan la Laguna	12	San Juan la Laguna	11	Noviembre	2023-11-27T00:00:00	2024-11-08T08:00:00	3	Temperatura mínima	19.4
91572	7	Sololá	717	San Juan la Laguna	12	San Juan la Laguna	11	Noviembre	2023-11-27T00:00:00	2024-11-08T08:00:00	5	Humedad	62
91573	7	Sololá	717	San Juan la Laguna	12	San Juan la Laguna	11	Noviembre	2023-11-27T00:00:00	2024-11-08T08:00:00	6	Velocidad del viento	6.4
91574	7	Sololá	717	San Juan la Laguna	12	San Juan la Laguna	11	Noviembre	2023-11-27T00:00:00	2024-11-08T08:00:00	7	Dirección del viento	6.44
91575	7	Sololá	717	San Juan la Laguna	12	San Juan la Laguna	11	Noviembre	2023-11-27T00:00:00	2024-11-08T08:00:00	1	Precipitación	0
91576	7	Sololá	717	San Juan la Laguna	12	San Juan la Laguna	11	Noviembre	2023-11-27T00:00:00	2024-11-08T08:00:00	8	Radiación solar	198
91577	7	Sololá	717	San Juan la Laguna	12	San Juan la Laguna	11	Noviembre	2023-11-27T00:00:00	2024-11-08T09:00:00	2	Temperatura media	22.2
91578	7	Sololá	717	San Juan la Laguna	12	San Juan la Laguna	11	Noviembre	2023-11-27T00:00:00	2024-11-08T09:00:00	4	Temperatura máxima	22.3
91579	7	Sololá	717	San Juan la Laguna	12	San Juan la Laguna	11	Noviembre	2023-11-27T00:00:00	2024-11-08T09:00:00	3	Temperatura mínima	21.1
91580	7	Sololá	717	San Juan la Laguna	12	San Juan la Laguna	11	Noviembre	2023-11-27T00:00:00	2024-11-08T09:00:00	5	Humedad	58
91581	7	Sololá	717	San Juan la Laguna	12	San Juan la Laguna	11	Noviembre	2023-11-27T00:00:00	2024-11-08T09:00:00	6	Velocidad del viento	11.3
91582	7	Sololá	717	San Juan la Laguna	12	San Juan la Laguna	11	Noviembre	2023-11-27T00:00:00	2024-11-08T09:00:00	7	Dirección del viento	11.27
91583	7	Sololá	717	San Juan la Laguna	12	San Juan la Laguna	11	Noviembre	2023-11-27T00:00:00	2024-11-08T09:00:00	1	Precipitación	0
91584	7	Sololá	717	San Juan la Laguna	12	San Juan la Laguna	11	Noviembre	2023-11-27T00:00:00	2024-11-08T09:00:00	8	Radiación solar	409
91585	7	Sololá	717	San Juan la Laguna	12	San Juan la Laguna	11	Noviembre	2023-11-27T00:00:00	2024-11-08T10:00:00	2	Temperatura media	23.2
91586	7	Sololá	717	San Juan la Laguna	12	San Juan la Laguna	11	Noviembre	2023-11-27T00:00:00	2024-11-08T10:00:00	4	Temperatura máxima	23.3
91587	7	Sololá	717	San Juan la Laguna	12	San Juan la Laguna	11	Noviembre	2023-11-27T00:00:00	2024-11-08T10:00:00	3	Temperatura mínima	22.1
91588	7	Sololá	717	San Juan la Laguna	12	San Juan la Laguna	11	Noviembre	2023-11-27T00:00:00	2024-11-08T10:00:00	5	Humedad	58
91589	7	Sololá	717	San Juan la Laguna	12	San Juan la Laguna	11	Noviembre	2023-11-27T00:00:00	2024-11-08T10:00:00	6	Velocidad del viento	12.9
91590	7	Sololá	717	San Juan la Laguna	12	San Juan la Laguna	11	Noviembre	2023-11-27T00:00:00	2024-11-08T10:00:00	7	Dirección del viento	12.87
91591	7	Sololá	717	San Juan la Laguna	12	San Juan la Laguna	11	Noviembre	2023-11-27T00:00:00	2024-11-08T10:00:00	1	Precipitación	0
91592	7	Sololá	717	San Juan la Laguna	12	San Juan la Laguna	11	Noviembre	2023-11-27T00:00:00	2024-11-08T10:00:00	8	Radiación solar	581
91593	7	Sololá	717	San Juan la Laguna	12	San Juan la Laguna	11	Noviembre	2023-11-27T00:00:00	2024-11-08T11:00:00	2	Temperatura media	24.1
91594	7	Sololá	717	San Juan la Laguna	12	San Juan la Laguna	11	Noviembre	2023-11-27T00:00:00	2024-11-08T11:00:00	4	Temperatura máxima	24.2
91595	7	Sololá	717	San Juan la Laguna	12	San Juan la Laguna	11	Noviembre	2023-11-27T00:00:00	2024-11-08T11:00:00	3	Temperatura mínima	23.2
91596	7	Sololá	717	San Juan la Laguna	12	San Juan la Laguna	11	Noviembre	2023-11-27T00:00:00	2024-11-08T11:00:00	5	Humedad	56
91597	7	Sololá	717	San Juan la Laguna	12	San Juan la Laguna	11	Noviembre	2023-11-27T00:00:00	2024-11-08T11:00:00	6	Velocidad del viento	16.1
91598	7	Sololá	717	San Juan la Laguna	12	San Juan la Laguna	11	Noviembre	2023-11-27T00:00:00	2024-11-08T11:00:00	7	Dirección del viento	16.09
91599	7	Sololá	717	San Juan la Laguna	12	San Juan la Laguna	11	Noviembre	2023-11-27T00:00:00	2024-11-08T11:00:00	1	Precipitación	0
91600	7	Sololá	717	San Juan la Laguna	12	San Juan la Laguna	11	Noviembre	2023-11-27T00:00:00	2024-11-08T11:00:00	8	Radiación solar	613
91601	7	Sololá	717	San Juan la Laguna	12	San Juan la Laguna	11	Noviembre	2023-11-27T00:00:00	2024-11-08T12:00:00	2	Temperatura media	23.3
91602	7	Sololá	717	San Juan la Laguna	12	San Juan la Laguna	11	Noviembre	2023-11-27T00:00:00	2024-11-08T12:00:00	4	Temperatura máxima	24.6
91603	7	Sololá	717	San Juan la Laguna	12	San Juan la Laguna	11	Noviembre	2023-11-27T00:00:00	2024-11-08T12:00:00	3	Temperatura mínima	23.2
91604	7	Sololá	717	San Juan la Laguna	12	San Juan la Laguna	11	Noviembre	2023-11-27T00:00:00	2024-11-08T12:00:00	5	Humedad	60
91605	7	Sololá	717	San Juan la Laguna	12	San Juan la Laguna	11	Noviembre	2023-11-27T00:00:00	2024-11-08T12:00:00	6	Velocidad del viento	14.5
91606	7	Sololá	717	San Juan la Laguna	12	San Juan la Laguna	11	Noviembre	2023-11-27T00:00:00	2024-11-08T12:00:00	7	Dirección del viento	14.48
91607	7	Sololá	717	San Juan la Laguna	12	San Juan la Laguna	11	Noviembre	2023-11-27T00:00:00	2024-11-08T12:00:00	1	Precipitación	0
91608	7	Sololá	717	San Juan la Laguna	12	San Juan la Laguna	11	Noviembre	2023-11-27T00:00:00	2024-11-08T12:00:00	8	Radiación solar	497
91609	7	Sololá	717	San Juan la Laguna	12	San Juan la Laguna	11	Noviembre	2023-11-27T00:00:00	2024-11-08T13:00:00	2	Temperatura media	24.1
91610	7	Sololá	717	San Juan la Laguna	12	San Juan la Laguna	11	Noviembre	2023-11-27T00:00:00	2024-11-08T13:00:00	4	Temperatura máxima	24.1
91611	7	Sololá	717	San Juan la Laguna	12	San Juan la Laguna	11	Noviembre	2023-11-27T00:00:00	2024-11-08T13:00:00	3	Temperatura mínima	23.4
91612	7	Sololá	717	San Juan la Laguna	12	San Juan la Laguna	11	Noviembre	2023-11-27T00:00:00	2024-11-08T13:00:00	5	Humedad	58
91613	7	Sololá	717	San Juan la Laguna	12	San Juan la Laguna	11	Noviembre	2023-11-27T00:00:00	2024-11-08T13:00:00	6	Velocidad del viento	14.5
91614	7	Sololá	717	San Juan la Laguna	12	San Juan la Laguna	11	Noviembre	2023-11-27T00:00:00	2024-11-08T13:00:00	7	Dirección del viento	14.48
91615	7	Sololá	717	San Juan la Laguna	12	San Juan la Laguna	11	Noviembre	2023-11-27T00:00:00	2024-11-08T13:00:00	1	Precipitación	0
91616	7	Sololá	717	San Juan la Laguna	12	San Juan la Laguna	11	Noviembre	2023-11-27T00:00:00	2024-11-08T13:00:00	8	Radiación solar	691
91617	7	Sololá	717	San Juan la Laguna	12	San Juan la Laguna	11	Noviembre	2023-11-27T00:00:00	2024-11-08T14:00:00	2	Temperatura media	23.7
91618	7	Sololá	717	San Juan la Laguna	12	San Juan la Laguna	11	Noviembre	2023-11-27T00:00:00	2024-11-08T14:00:00	4	Temperatura máxima	24.6
91619	7	Sololá	717	San Juan la Laguna	12	San Juan la Laguna	11	Noviembre	2023-11-27T00:00:00	2024-11-08T14:00:00	3	Temperatura mínima	23.6
91620	7	Sololá	717	San Juan la Laguna	12	San Juan la Laguna	11	Noviembre	2023-11-27T00:00:00	2024-11-08T14:00:00	5	Humedad	60
91621	7	Sololá	717	San Juan la Laguna	12	San Juan la Laguna	11	Noviembre	2023-11-27T00:00:00	2024-11-08T14:00:00	6	Velocidad del viento	14.5
91622	7	Sololá	717	San Juan la Laguna	12	San Juan la Laguna	11	Noviembre	2023-11-27T00:00:00	2024-11-08T14:00:00	7	Dirección del viento	14.48
91623	7	Sololá	717	San Juan la Laguna	12	San Juan la Laguna	11	Noviembre	2023-11-27T00:00:00	2024-11-08T14:00:00	1	Precipitación	0
91624	7	Sololá	717	San Juan la Laguna	12	San Juan la Laguna	11	Noviembre	2023-11-27T00:00:00	2024-11-08T14:00:00	8	Radiación solar	555
91625	7	Sololá	717	San Juan la Laguna	12	San Juan la Laguna	11	Noviembre	2023-11-27T00:00:00	2024-11-08T15:00:00	2	Temperatura media	24.2
91626	7	Sololá	717	San Juan la Laguna	12	San Juan la Laguna	11	Noviembre	2023-11-27T00:00:00	2024-11-08T15:00:00	4	Temperatura máxima	24.4
91627	7	Sololá	717	San Juan la Laguna	12	San Juan la Laguna	11	Noviembre	2023-11-27T00:00:00	2024-11-08T15:00:00	3	Temperatura mínima	23.6
91628	7	Sololá	717	San Juan la Laguna	12	San Juan la Laguna	11	Noviembre	2023-11-27T00:00:00	2024-11-08T15:00:00	5	Humedad	58
91629	7	Sololá	717	San Juan la Laguna	12	San Juan la Laguna	11	Noviembre	2023-11-27T00:00:00	2024-11-08T15:00:00	6	Velocidad del viento	14.5
91630	7	Sololá	717	San Juan la Laguna	12	San Juan la Laguna	11	Noviembre	2023-11-27T00:00:00	2024-11-08T15:00:00	7	Dirección del viento	14.48
91631	7	Sololá	717	San Juan la Laguna	12	San Juan la Laguna	11	Noviembre	2023-11-27T00:00:00	2024-11-08T15:00:00	1	Precipitación	0
91632	7	Sololá	717	San Juan la Laguna	12	San Juan la Laguna	11	Noviembre	2023-11-27T00:00:00	2024-11-08T15:00:00	8	Radiación solar	560
91633	7	Sololá	717	San Juan la Laguna	12	San Juan la Laguna	11	Noviembre	2023-11-27T00:00:00	2024-11-08T16:00:00	2	Temperatura media	23.8
91634	7	Sololá	717	San Juan la Laguna	12	San Juan la Laguna	11	Noviembre	2023-11-27T00:00:00	2024-11-08T16:00:00	4	Temperatura máxima	24.3
91635	7	Sololá	717	San Juan la Laguna	12	San Juan la Laguna	11	Noviembre	2023-11-27T00:00:00	2024-11-08T16:00:00	3	Temperatura mínima	23.8
91636	7	Sololá	717	San Juan la Laguna	12	San Juan la Laguna	11	Noviembre	2023-11-27T00:00:00	2024-11-08T16:00:00	5	Humedad	56
91637	7	Sololá	717	San Juan la Laguna	12	San Juan la Laguna	11	Noviembre	2023-11-27T00:00:00	2024-11-08T16:00:00	6	Velocidad del viento	11.3
91638	7	Sololá	717	San Juan la Laguna	12	San Juan la Laguna	11	Noviembre	2023-11-27T00:00:00	2024-11-08T16:00:00	7	Dirección del viento	11.27
91639	7	Sololá	717	San Juan la Laguna	12	San Juan la Laguna	11	Noviembre	2023-11-27T00:00:00	2024-11-08T16:00:00	1	Precipitación	0
91640	7	Sololá	717	San Juan la Laguna	12	San Juan la Laguna	11	Noviembre	2023-11-27T00:00:00	2024-11-08T16:00:00	8	Radiación solar	410
91641	7	Sololá	717	San Juan la Laguna	12	San Juan la Laguna	11	Noviembre	2023-11-27T00:00:00	2024-11-08T17:00:00	2	Temperatura media	22.6
91642	7	Sololá	717	San Juan la Laguna	12	San Juan la Laguna	11	Noviembre	2023-11-27T00:00:00	2024-11-08T17:00:00	4	Temperatura máxima	23.8
91643	7	Sololá	717	San Juan la Laguna	12	San Juan la Laguna	11	Noviembre	2023-11-27T00:00:00	2024-11-08T17:00:00	3	Temperatura mínima	22.6
91644	7	Sololá	717	San Juan la Laguna	12	San Juan la Laguna	11	Noviembre	2023-11-27T00:00:00	2024-11-08T17:00:00	5	Humedad	56
91645	7	Sololá	717	San Juan la Laguna	12	San Juan la Laguna	11	Noviembre	2023-11-27T00:00:00	2024-11-08T17:00:00	6	Velocidad del viento	9.7
91646	7	Sololá	717	San Juan la Laguna	12	San Juan la Laguna	11	Noviembre	2023-11-27T00:00:00	2024-11-08T17:00:00	7	Dirección del viento	9.66
91647	7	Sololá	717	San Juan la Laguna	12	San Juan la Laguna	11	Noviembre	2023-11-27T00:00:00	2024-11-08T17:00:00	1	Precipitación	0
91648	7	Sololá	717	San Juan la Laguna	12	San Juan la Laguna	11	Noviembre	2023-11-27T00:00:00	2024-11-08T17:00:00	8	Radiación solar	110
91649	7	Sololá	717	San Juan la Laguna	12	San Juan la Laguna	11	Noviembre	2023-11-27T00:00:00	2024-11-08T18:00:00	2	Temperatura media	21.7
91650	7	Sololá	717	San Juan la Laguna	12	San Juan la Laguna	11	Noviembre	2023-11-27T00:00:00	2024-11-08T18:00:00	4	Temperatura máxima	22.6
91651	7	Sololá	717	San Juan la Laguna	12	San Juan la Laguna	11	Noviembre	2023-11-27T00:00:00	2024-11-08T18:00:00	3	Temperatura mínima	21.7
91652	7	Sololá	717	San Juan la Laguna	12	San Juan la Laguna	11	Noviembre	2023-11-27T00:00:00	2024-11-08T18:00:00	5	Humedad	60
91653	7	Sololá	717	San Juan la Laguna	12	San Juan la Laguna	11	Noviembre	2023-11-27T00:00:00	2024-11-08T18:00:00	6	Velocidad del viento	8
91654	7	Sololá	717	San Juan la Laguna	12	San Juan la Laguna	11	Noviembre	2023-11-27T00:00:00	2024-11-08T18:00:00	7	Dirección del viento	8.05
91655	7	Sololá	717	San Juan la Laguna	12	San Juan la Laguna	11	Noviembre	2023-11-27T00:00:00	2024-11-08T18:00:00	1	Precipitación	0
91656	7	Sololá	717	San Juan la Laguna	12	San Juan la Laguna	11	Noviembre	2023-11-27T00:00:00	2024-11-08T18:00:00	8	Radiación solar	7
91657	7	Sololá	717	San Juan la Laguna	12	San Juan la Laguna	11	Noviembre	2023-11-27T00:00:00	2024-11-08T19:00:00	2	Temperatura media	20.8
91658	7	Sololá	717	San Juan la Laguna	12	San Juan la Laguna	11	Noviembre	2023-11-27T00:00:00	2024-11-08T19:00:00	4	Temperatura máxima	21.7
91659	7	Sololá	717	San Juan la Laguna	12	San Juan la Laguna	11	Noviembre	2023-11-27T00:00:00	2024-11-08T19:00:00	3	Temperatura mínima	20.8
91660	7	Sololá	717	San Juan la Laguna	12	San Juan la Laguna	11	Noviembre	2023-11-27T00:00:00	2024-11-08T19:00:00	5	Humedad	67
91661	7	Sololá	717	San Juan la Laguna	12	San Juan la Laguna	11	Noviembre	2023-11-27T00:00:00	2024-11-08T19:00:00	6	Velocidad del viento	9.7
91662	7	Sololá	717	San Juan la Laguna	12	San Juan la Laguna	11	Noviembre	2023-11-27T00:00:00	2024-11-08T19:00:00	7	Dirección del viento	9.66
91663	7	Sololá	717	San Juan la Laguna	12	San Juan la Laguna	11	Noviembre	2023-11-27T00:00:00	2024-11-08T19:00:00	1	Precipitación	0
91664	7	Sololá	717	San Juan la Laguna	12	San Juan la Laguna	11	Noviembre	2023-11-27T00:00:00	2024-11-08T19:00:00	8	Radiación solar	0
91665	7	Sololá	717	San Juan la Laguna	12	San Juan la Laguna	11	Noviembre	2023-11-27T00:00:00	2024-11-08T20:00:00	2	Temperatura media	20.3
91666	7	Sololá	717	San Juan la Laguna	12	San Juan la Laguna	11	Noviembre	2023-11-27T00:00:00	2024-11-08T20:00:00	4	Temperatura máxima	20.8
91667	7	Sololá	717	San Juan la Laguna	12	San Juan la Laguna	11	Noviembre	2023-11-27T00:00:00	2024-11-08T20:00:00	3	Temperatura mínima	20.3
91668	7	Sololá	717	San Juan la Laguna	12	San Juan la Laguna	11	Noviembre	2023-11-27T00:00:00	2024-11-08T20:00:00	5	Humedad	66
91669	7	Sololá	717	San Juan la Laguna	12	San Juan la Laguna	11	Noviembre	2023-11-27T00:00:00	2024-11-08T20:00:00	6	Velocidad del viento	8
91670	7	Sololá	717	San Juan la Laguna	12	San Juan la Laguna	11	Noviembre	2023-11-27T00:00:00	2024-11-08T20:00:00	7	Dirección del viento	8.05
91671	7	Sololá	717	San Juan la Laguna	12	San Juan la Laguna	11	Noviembre	2023-11-27T00:00:00	2024-11-08T20:00:00	1	Precipitación	0
91672	7	Sololá	717	San Juan la Laguna	12	San Juan la Laguna	11	Noviembre	2023-11-27T00:00:00	2024-11-08T20:00:00	8	Radiación solar	0
91673	7	Sololá	717	San Juan la Laguna	12	San Juan la Laguna	11	Noviembre	2023-11-27T00:00:00	2024-11-08T21:00:00	2	Temperatura media	19.7
91674	7	Sololá	717	San Juan la Laguna	12	San Juan la Laguna	11	Noviembre	2023-11-27T00:00:00	2024-11-08T21:00:00	4	Temperatura máxima	20.5
91675	7	Sololá	717	San Juan la Laguna	12	San Juan la Laguna	11	Noviembre	2023-11-27T00:00:00	2024-11-08T21:00:00	3	Temperatura mínima	19.7
91676	7	Sololá	717	San Juan la Laguna	12	San Juan la Laguna	11	Noviembre	2023-11-27T00:00:00	2024-11-08T21:00:00	5	Humedad	66
91677	7	Sololá	717	San Juan la Laguna	12	San Juan la Laguna	11	Noviembre	2023-11-27T00:00:00	2024-11-08T21:00:00	6	Velocidad del viento	6.4
91678	7	Sololá	717	San Juan la Laguna	12	San Juan la Laguna	11	Noviembre	2023-11-27T00:00:00	2024-11-08T21:00:00	7	Dirección del viento	6.44
91679	7	Sololá	717	San Juan la Laguna	12	San Juan la Laguna	11	Noviembre	2023-11-27T00:00:00	2024-11-08T21:00:00	1	Precipitación	0
91680	7	Sololá	717	San Juan la Laguna	12	San Juan la Laguna	11	Noviembre	2023-11-27T00:00:00	2024-11-08T21:00:00	8	Radiación solar	0
91681	7	Sololá	717	San Juan la Laguna	12	San Juan la Laguna	11	Noviembre	2023-11-27T00:00:00	2024-11-08T22:00:00	2	Temperatura media	19.8
91682	7	Sololá	717	San Juan la Laguna	12	San Juan la Laguna	11	Noviembre	2023-11-27T00:00:00	2024-11-08T22:00:00	4	Temperatura máxima	19.9
91683	7	Sololá	717	San Juan la Laguna	12	San Juan la Laguna	11	Noviembre	2023-11-27T00:00:00	2024-11-08T22:00:00	3	Temperatura mínima	19
91684	7	Sololá	717	San Juan la Laguna	12	San Juan la Laguna	11	Noviembre	2023-11-27T00:00:00	2024-11-08T22:00:00	5	Humedad	68
91685	7	Sololá	717	San Juan la Laguna	12	San Juan la Laguna	11	Noviembre	2023-11-27T00:00:00	2024-11-08T22:00:00	6	Velocidad del viento	4.8
91686	7	Sololá	717	San Juan la Laguna	12	San Juan la Laguna	11	Noviembre	2023-11-27T00:00:00	2024-11-08T22:00:00	7	Dirección del viento	4.83
91687	7	Sololá	717	San Juan la Laguna	12	San Juan la Laguna	11	Noviembre	2023-11-27T00:00:00	2024-11-08T22:00:00	1	Precipitación	0
91688	7	Sololá	717	San Juan la Laguna	12	San Juan la Laguna	11	Noviembre	2023-11-27T00:00:00	2024-11-08T22:00:00	8	Radiación solar	0
91689	7	Sololá	717	San Juan la Laguna	12	San Juan la Laguna	11	Noviembre	2023-11-27T00:00:00	2024-11-08T23:00:00	2	Temperatura media	19.3
91690	7	Sololá	717	San Juan la Laguna	12	San Juan la Laguna	11	Noviembre	2023-11-27T00:00:00	2024-11-08T23:00:00	4	Temperatura máxima	19.8
91691	7	Sololá	717	San Juan la Laguna	12	San Juan la Laguna	11	Noviembre	2023-11-27T00:00:00	2024-11-08T23:00:00	3	Temperatura mínima	17.9
91692	7	Sololá	717	San Juan la Laguna	12	San Juan la Laguna	11	Noviembre	2023-11-27T00:00:00	2024-11-08T23:00:00	5	Humedad	66
91693	7	Sololá	717	San Juan la Laguna	12	San Juan la Laguna	11	Noviembre	2023-11-27T00:00:00	2024-11-08T23:00:00	6	Velocidad del viento	3.2
91694	7	Sololá	717	San Juan la Laguna	12	San Juan la Laguna	11	Noviembre	2023-11-27T00:00:00	2024-11-08T23:00:00	7	Dirección del viento	3.22
91695	7	Sololá	717	San Juan la Laguna	12	San Juan la Laguna	11	Noviembre	2023-11-27T00:00:00	2024-11-08T23:00:00	1	Precipitación	0
91696	7	Sololá	717	San Juan la Laguna	12	San Juan la Laguna	11	Noviembre	2023-11-27T00:00:00	2024-11-08T23:00:00	8	Radiación solar	0
91697	7	Sololá	717	San Juan la Laguna	12	San Juan la Laguna	11	Noviembre	2023-11-28T00:00:00	2024-11-08T00:00:00	2	Temperatura media	18.4
91698	7	Sololá	717	San Juan la Laguna	12	San Juan la Laguna	11	Noviembre	2023-11-28T00:00:00	2024-11-08T00:00:00	4	Temperatura máxima	19.7
91699	7	Sololá	717	San Juan la Laguna	12	San Juan la Laguna	11	Noviembre	2023-11-28T00:00:00	2024-11-08T00:00:00	3	Temperatura mínima	18.4
91700	7	Sololá	717	San Juan la Laguna	12	San Juan la Laguna	11	Noviembre	2023-11-28T00:00:00	2024-11-08T00:00:00	5	Humedad	70
91701	7	Sololá	717	San Juan la Laguna	12	San Juan la Laguna	11	Noviembre	2023-11-28T00:00:00	2024-11-08T00:00:00	6	Velocidad del viento	3.2
91702	7	Sololá	717	San Juan la Laguna	12	San Juan la Laguna	11	Noviembre	2023-11-28T00:00:00	2024-11-08T00:00:00	7	Dirección del viento	3.22
91703	7	Sololá	717	San Juan la Laguna	12	San Juan la Laguna	11	Noviembre	2023-11-28T00:00:00	2024-11-08T00:00:00	1	Precipitación	0
91704	7	Sololá	717	San Juan la Laguna	12	San Juan la Laguna	11	Noviembre	2023-11-28T00:00:00	2024-11-08T00:00:00	8	Radiación solar	0
91705	7	Sololá	717	San Juan la Laguna	12	San Juan la Laguna	11	Noviembre	2023-11-28T00:00:00	2024-11-08T01:00:00	2	Temperatura media	17.7
91706	7	Sololá	717	San Juan la Laguna	12	San Juan la Laguna	11	Noviembre	2023-11-28T00:00:00	2024-11-08T01:00:00	4	Temperatura máxima	18.9
91707	7	Sololá	717	San Juan la Laguna	12	San Juan la Laguna	11	Noviembre	2023-11-28T00:00:00	2024-11-08T01:00:00	3	Temperatura mínima	17.4
91708	7	Sololá	717	San Juan la Laguna	12	San Juan la Laguna	11	Noviembre	2023-11-28T00:00:00	2024-11-08T01:00:00	5	Humedad	73
91709	7	Sololá	717	San Juan la Laguna	12	San Juan la Laguna	11	Noviembre	2023-11-28T00:00:00	2024-11-08T01:00:00	6	Velocidad del viento	3.2
91710	7	Sololá	717	San Juan la Laguna	12	San Juan la Laguna	11	Noviembre	2023-11-28T00:00:00	2024-11-08T01:00:00	7	Dirección del viento	3.22
91711	7	Sololá	717	San Juan la Laguna	12	San Juan la Laguna	11	Noviembre	2023-11-28T00:00:00	2024-11-08T01:00:00	1	Precipitación	0
91712	7	Sololá	717	San Juan la Laguna	12	San Juan la Laguna	11	Noviembre	2023-11-28T00:00:00	2024-11-08T01:00:00	8	Radiación solar	0
91713	7	Sololá	717	San Juan la Laguna	12	San Juan la Laguna	11	Noviembre	2023-11-28T00:00:00	2024-11-08T02:00:00	2	Temperatura media	15.8
91714	7	Sololá	717	San Juan la Laguna	12	San Juan la Laguna	11	Noviembre	2023-11-28T00:00:00	2024-11-08T02:00:00	4	Temperatura máxima	17.8
91715	7	Sololá	717	San Juan la Laguna	12	San Juan la Laguna	11	Noviembre	2023-11-28T00:00:00	2024-11-08T02:00:00	3	Temperatura mínima	15.8
91716	7	Sololá	717	San Juan la Laguna	12	San Juan la Laguna	11	Noviembre	2023-11-28T00:00:00	2024-11-08T02:00:00	5	Humedad	81
91717	7	Sololá	717	San Juan la Laguna	12	San Juan la Laguna	11	Noviembre	2023-11-28T00:00:00	2024-11-08T02:00:00	6	Velocidad del viento	3.2
91718	7	Sololá	717	San Juan la Laguna	12	San Juan la Laguna	11	Noviembre	2023-11-28T00:00:00	2024-11-08T02:00:00	7	Dirección del viento	3.22
91719	7	Sololá	717	San Juan la Laguna	12	San Juan la Laguna	11	Noviembre	2023-11-28T00:00:00	2024-11-08T02:00:00	1	Precipitación	0
91720	7	Sololá	717	San Juan la Laguna	12	San Juan la Laguna	11	Noviembre	2023-11-28T00:00:00	2024-11-08T02:00:00	8	Radiación solar	0
91721	7	Sololá	717	San Juan la Laguna	12	San Juan la Laguna	11	Noviembre	2023-11-28T00:00:00	2024-11-08T03:00:00	2	Temperatura media	15.9
91722	7	Sololá	717	San Juan la Laguna	12	San Juan la Laguna	11	Noviembre	2023-11-28T00:00:00	2024-11-08T03:00:00	4	Temperatura máxima	16.8
91723	7	Sololá	717	San Juan la Laguna	12	San Juan la Laguna	11	Noviembre	2023-11-28T00:00:00	2024-11-08T03:00:00	3	Temperatura mínima	15.7
91724	7	Sololá	717	San Juan la Laguna	12	San Juan la Laguna	11	Noviembre	2023-11-28T00:00:00	2024-11-08T03:00:00	5	Humedad	81
91725	7	Sololá	717	San Juan la Laguna	12	San Juan la Laguna	11	Noviembre	2023-11-28T00:00:00	2024-11-08T03:00:00	6	Velocidad del viento	3.2
91726	7	Sololá	717	San Juan la Laguna	12	San Juan la Laguna	11	Noviembre	2023-11-28T00:00:00	2024-11-08T03:00:00	7	Dirección del viento	3.22
91727	7	Sololá	717	San Juan la Laguna	12	San Juan la Laguna	11	Noviembre	2023-11-28T00:00:00	2024-11-08T03:00:00	1	Precipitación	0
91728	7	Sololá	717	San Juan la Laguna	12	San Juan la Laguna	11	Noviembre	2023-11-28T00:00:00	2024-11-08T03:00:00	8	Radiación solar	0
91729	7	Sololá	717	San Juan la Laguna	12	San Juan la Laguna	11	Noviembre	2023-11-28T00:00:00	2024-11-08T04:00:00	2	Temperatura media	15.7
91730	7	Sololá	717	San Juan la Laguna	12	San Juan la Laguna	11	Noviembre	2023-11-28T00:00:00	2024-11-08T04:00:00	4	Temperatura máxima	16.7
91731	7	Sololá	717	San Juan la Laguna	12	San Juan la Laguna	11	Noviembre	2023-11-28T00:00:00	2024-11-08T04:00:00	3	Temperatura mínima	15.7
91732	7	Sololá	717	San Juan la Laguna	12	San Juan la Laguna	11	Noviembre	2023-11-28T00:00:00	2024-11-08T04:00:00	5	Humedad	82
91733	7	Sololá	717	San Juan la Laguna	12	San Juan la Laguna	11	Noviembre	2023-11-28T00:00:00	2024-11-08T04:00:00	6	Velocidad del viento	3.2
91734	7	Sololá	717	San Juan la Laguna	12	San Juan la Laguna	11	Noviembre	2023-11-28T00:00:00	2024-11-08T04:00:00	7	Dirección del viento	3.22
91735	7	Sololá	717	San Juan la Laguna	12	San Juan la Laguna	11	Noviembre	2023-11-28T00:00:00	2024-11-08T04:00:00	1	Precipitación	0
91736	7	Sololá	717	San Juan la Laguna	12	San Juan la Laguna	11	Noviembre	2023-11-28T00:00:00	2024-11-08T04:00:00	8	Radiación solar	0
91737	7	Sololá	717	San Juan la Laguna	12	San Juan la Laguna	11	Noviembre	2023-11-28T00:00:00	2024-11-08T05:00:00	2	Temperatura media	15.3
91738	7	Sololá	717	San Juan la Laguna	12	San Juan la Laguna	11	Noviembre	2023-11-28T00:00:00	2024-11-08T05:00:00	4	Temperatura máxima	15.9
91739	7	Sololá	717	San Juan la Laguna	12	San Juan la Laguna	11	Noviembre	2023-11-28T00:00:00	2024-11-08T05:00:00	3	Temperatura mínima	15.3
91740	7	Sololá	717	San Juan la Laguna	12	San Juan la Laguna	11	Noviembre	2023-11-28T00:00:00	2024-11-08T05:00:00	5	Humedad	83
91741	7	Sololá	717	San Juan la Laguna	12	San Juan la Laguna	11	Noviembre	2023-11-28T00:00:00	2024-11-08T05:00:00	6	Velocidad del viento	3.2
91742	7	Sololá	717	San Juan la Laguna	12	San Juan la Laguna	11	Noviembre	2023-11-28T00:00:00	2024-11-08T05:00:00	7	Dirección del viento	3.22
91743	7	Sololá	717	San Juan la Laguna	12	San Juan la Laguna	11	Noviembre	2023-11-28T00:00:00	2024-11-08T05:00:00	1	Precipitación	0
91744	7	Sololá	717	San Juan la Laguna	12	San Juan la Laguna	11	Noviembre	2023-11-28T00:00:00	2024-11-08T05:00:00	8	Radiación solar	0
91745	7	Sololá	717	San Juan la Laguna	12	San Juan la Laguna	11	Noviembre	2023-11-28T00:00:00	2024-11-08T06:00:00	2	Temperatura media	15.2
91746	7	Sololá	717	San Juan la Laguna	12	San Juan la Laguna	11	Noviembre	2023-11-28T00:00:00	2024-11-08T06:00:00	4	Temperatura máxima	15.4
91747	7	Sololá	717	San Juan la Laguna	12	San Juan la Laguna	11	Noviembre	2023-11-28T00:00:00	2024-11-08T06:00:00	3	Temperatura mínima	15.1
91748	7	Sololá	717	San Juan la Laguna	12	San Juan la Laguna	11	Noviembre	2023-11-28T00:00:00	2024-11-08T06:00:00	5	Humedad	86
91749	7	Sololá	717	San Juan la Laguna	12	San Juan la Laguna	11	Noviembre	2023-11-28T00:00:00	2024-11-08T06:00:00	6	Velocidad del viento	3.2
91750	7	Sololá	717	San Juan la Laguna	12	San Juan la Laguna	11	Noviembre	2023-11-28T00:00:00	2024-11-08T06:00:00	7	Dirección del viento	3.22
91751	7	Sololá	717	San Juan la Laguna	12	San Juan la Laguna	11	Noviembre	2023-11-28T00:00:00	2024-11-08T06:00:00	1	Precipitación	0
91752	7	Sololá	717	San Juan la Laguna	12	San Juan la Laguna	11	Noviembre	2023-11-28T00:00:00	2024-11-08T06:00:00	8	Radiación solar	0
91753	7	Sololá	717	San Juan la Laguna	12	San Juan la Laguna	11	Noviembre	2023-11-28T00:00:00	2024-11-08T07:00:00	2	Temperatura media	16.4
91754	7	Sololá	717	San Juan la Laguna	12	San Juan la Laguna	11	Noviembre	2023-11-28T00:00:00	2024-11-08T07:00:00	4	Temperatura máxima	16.4
91755	7	Sololá	717	San Juan la Laguna	12	San Juan la Laguna	11	Noviembre	2023-11-28T00:00:00	2024-11-08T07:00:00	3	Temperatura mínima	15.2
91756	7	Sololá	717	San Juan la Laguna	12	San Juan la Laguna	11	Noviembre	2023-11-28T00:00:00	2024-11-08T07:00:00	5	Humedad	83
91757	7	Sololá	717	San Juan la Laguna	12	San Juan la Laguna	11	Noviembre	2023-11-28T00:00:00	2024-11-08T07:00:00	6	Velocidad del viento	3.2
91758	7	Sololá	717	San Juan la Laguna	12	San Juan la Laguna	11	Noviembre	2023-11-28T00:00:00	2024-11-08T07:00:00	7	Dirección del viento	3.22
91759	7	Sololá	717	San Juan la Laguna	12	San Juan la Laguna	11	Noviembre	2023-11-28T00:00:00	2024-11-08T07:00:00	1	Precipitación	0
91760	7	Sololá	717	San Juan la Laguna	12	San Juan la Laguna	11	Noviembre	2023-11-28T00:00:00	2024-11-08T07:00:00	8	Radiación solar	34
91761	7	Sololá	717	San Juan la Laguna	12	San Juan la Laguna	11	Noviembre	2023-11-28T00:00:00	2024-11-08T08:00:00	2	Temperatura media	21.3
91762	7	Sololá	717	San Juan la Laguna	12	San Juan la Laguna	11	Noviembre	2023-11-28T00:00:00	2024-11-08T08:00:00	4	Temperatura máxima	21.3
91763	7	Sololá	717	San Juan la Laguna	12	San Juan la Laguna	11	Noviembre	2023-11-28T00:00:00	2024-11-08T08:00:00	3	Temperatura mínima	16.4
91764	7	Sololá	717	San Juan la Laguna	12	San Juan la Laguna	11	Noviembre	2023-11-28T00:00:00	2024-11-08T08:00:00	5	Humedad	69
91765	7	Sololá	717	San Juan la Laguna	12	San Juan la Laguna	11	Noviembre	2023-11-28T00:00:00	2024-11-08T08:00:00	6	Velocidad del viento	3.2
91766	7	Sololá	717	San Juan la Laguna	12	San Juan la Laguna	11	Noviembre	2023-11-28T00:00:00	2024-11-08T08:00:00	7	Dirección del viento	3.22
91767	7	Sololá	717	San Juan la Laguna	12	San Juan la Laguna	11	Noviembre	2023-11-28T00:00:00	2024-11-08T08:00:00	1	Precipitación	0
91768	7	Sololá	717	San Juan la Laguna	12	San Juan la Laguna	11	Noviembre	2023-11-28T00:00:00	2024-11-08T08:00:00	8	Radiación solar	198
91769	7	Sololá	717	San Juan la Laguna	12	San Juan la Laguna	11	Noviembre	2023-11-28T00:00:00	2024-11-08T09:00:00	2	Temperatura media	23.3
91770	7	Sololá	717	San Juan la Laguna	12	San Juan la Laguna	11	Noviembre	2023-11-28T00:00:00	2024-11-08T09:00:00	4	Temperatura máxima	23.3
91771	7	Sololá	717	San Juan la Laguna	12	San Juan la Laguna	11	Noviembre	2023-11-28T00:00:00	2024-11-08T09:00:00	3	Temperatura mínima	21.3
91772	7	Sololá	717	San Juan la Laguna	12	San Juan la Laguna	11	Noviembre	2023-11-28T00:00:00	2024-11-08T09:00:00	5	Humedad	63
91773	7	Sololá	717	San Juan la Laguna	12	San Juan la Laguna	11	Noviembre	2023-11-28T00:00:00	2024-11-08T09:00:00	6	Velocidad del viento	8
91774	7	Sololá	717	San Juan la Laguna	12	San Juan la Laguna	11	Noviembre	2023-11-28T00:00:00	2024-11-08T09:00:00	7	Dirección del viento	8.05
91775	7	Sololá	717	San Juan la Laguna	12	San Juan la Laguna	11	Noviembre	2023-11-28T00:00:00	2024-11-08T09:00:00	1	Precipitación	0
91776	7	Sololá	717	San Juan la Laguna	12	San Juan la Laguna	11	Noviembre	2023-11-28T00:00:00	2024-11-08T09:00:00	8	Radiación solar	403
91777	7	Sololá	717	San Juan la Laguna	12	San Juan la Laguna	11	Noviembre	2023-11-28T00:00:00	2024-11-08T10:00:00	2	Temperatura media	24.2
91778	7	Sololá	717	San Juan la Laguna	12	San Juan la Laguna	11	Noviembre	2023-11-28T00:00:00	2024-11-08T10:00:00	4	Temperatura máxima	24.2
91779	7	Sololá	717	San Juan la Laguna	12	San Juan la Laguna	11	Noviembre	2023-11-28T00:00:00	2024-11-08T10:00:00	3	Temperatura mínima	23.1
91780	7	Sololá	717	San Juan la Laguna	12	San Juan la Laguna	11	Noviembre	2023-11-28T00:00:00	2024-11-08T10:00:00	5	Humedad	60
91781	7	Sololá	717	San Juan la Laguna	12	San Juan la Laguna	11	Noviembre	2023-11-28T00:00:00	2024-11-08T10:00:00	6	Velocidad del viento	11.3
91782	7	Sololá	717	San Juan la Laguna	12	San Juan la Laguna	11	Noviembre	2023-11-28T00:00:00	2024-11-08T10:00:00	7	Dirección del viento	11.27
91783	7	Sololá	717	San Juan la Laguna	12	San Juan la Laguna	11	Noviembre	2023-11-28T00:00:00	2024-11-08T10:00:00	1	Precipitación	0
91784	7	Sololá	717	San Juan la Laguna	12	San Juan la Laguna	11	Noviembre	2023-11-28T00:00:00	2024-11-08T10:00:00	8	Radiación solar	576
91785	7	Sololá	717	San Juan la Laguna	12	San Juan la Laguna	11	Noviembre	2023-11-28T00:00:00	2024-11-08T11:00:00	2	Temperatura media	24.3
91786	7	Sololá	717	San Juan la Laguna	12	San Juan la Laguna	11	Noviembre	2023-11-28T00:00:00	2024-11-08T11:00:00	4	Temperatura máxima	24.7
91787	7	Sololá	717	San Juan la Laguna	12	San Juan la Laguna	11	Noviembre	2023-11-28T00:00:00	2024-11-08T11:00:00	3	Temperatura mínima	24.1
91788	7	Sololá	717	San Juan la Laguna	12	San Juan la Laguna	11	Noviembre	2023-11-28T00:00:00	2024-11-08T11:00:00	5	Humedad	58
91789	7	Sololá	717	San Juan la Laguna	12	San Juan la Laguna	11	Noviembre	2023-11-28T00:00:00	2024-11-08T11:00:00	6	Velocidad del viento	16.1
91790	7	Sololá	717	San Juan la Laguna	12	San Juan la Laguna	11	Noviembre	2023-11-28T00:00:00	2024-11-08T11:00:00	7	Dirección del viento	16.09
91791	7	Sololá	717	San Juan la Laguna	12	San Juan la Laguna	11	Noviembre	2023-11-28T00:00:00	2024-11-08T11:00:00	1	Precipitación	0
91792	7	Sololá	717	San Juan la Laguna	12	San Juan la Laguna	11	Noviembre	2023-11-28T00:00:00	2024-11-08T11:00:00	8	Radiación solar	605
91793	7	Sololá	717	San Juan la Laguna	12	San Juan la Laguna	11	Noviembre	2023-11-28T00:00:00	2024-11-08T12:00:00	2	Temperatura media	25.3
91794	7	Sololá	717	San Juan la Laguna	12	San Juan la Laguna	11	Noviembre	2023-11-28T00:00:00	2024-11-08T12:00:00	4	Temperatura máxima	25.3
91795	7	Sololá	717	San Juan la Laguna	12	San Juan la Laguna	11	Noviembre	2023-11-28T00:00:00	2024-11-08T12:00:00	3	Temperatura mínima	24.2
91796	7	Sololá	717	San Juan la Laguna	12	San Juan la Laguna	11	Noviembre	2023-11-28T00:00:00	2024-11-08T12:00:00	5	Humedad	56
91797	7	Sololá	717	San Juan la Laguna	12	San Juan la Laguna	11	Noviembre	2023-11-28T00:00:00	2024-11-08T12:00:00	6	Velocidad del viento	12.9
91798	7	Sololá	717	San Juan la Laguna	12	San Juan la Laguna	11	Noviembre	2023-11-28T00:00:00	2024-11-08T12:00:00	7	Dirección del viento	12.87
91799	7	Sololá	717	San Juan la Laguna	12	San Juan la Laguna	11	Noviembre	2023-11-28T00:00:00	2024-11-08T12:00:00	1	Precipitación	0
91800	7	Sololá	717	San Juan la Laguna	12	San Juan la Laguna	11	Noviembre	2023-11-28T00:00:00	2024-11-08T12:00:00	8	Radiación solar	775
91801	7	Sololá	717	San Juan la Laguna	12	San Juan la Laguna	11	Noviembre	2023-11-28T00:00:00	2024-11-08T13:00:00	2	Temperatura media	24.8
91802	7	Sololá	717	San Juan la Laguna	12	San Juan la Laguna	11	Noviembre	2023-11-28T00:00:00	2024-11-08T13:00:00	4	Temperatura máxima	25.3
91803	7	Sololá	717	San Juan la Laguna	12	San Juan la Laguna	11	Noviembre	2023-11-28T00:00:00	2024-11-08T13:00:00	3	Temperatura mínima	24.2
91804	7	Sololá	717	San Juan la Laguna	12	San Juan la Laguna	11	Noviembre	2023-11-28T00:00:00	2024-11-08T13:00:00	5	Humedad	58
91805	7	Sololá	717	San Juan la Laguna	12	San Juan la Laguna	11	Noviembre	2023-11-28T00:00:00	2024-11-08T13:00:00	6	Velocidad del viento	14.5
91806	7	Sololá	717	San Juan la Laguna	12	San Juan la Laguna	11	Noviembre	2023-11-28T00:00:00	2024-11-08T13:00:00	7	Dirección del viento	14.48
91807	7	Sololá	717	San Juan la Laguna	12	San Juan la Laguna	11	Noviembre	2023-11-28T00:00:00	2024-11-08T13:00:00	1	Precipitación	0
91808	7	Sololá	717	San Juan la Laguna	12	San Juan la Laguna	11	Noviembre	2023-11-28T00:00:00	2024-11-08T13:00:00	8	Radiación solar	834
91809	7	Sololá	717	San Juan la Laguna	12	San Juan la Laguna	11	Noviembre	2023-11-28T00:00:00	2024-11-08T14:00:00	2	Temperatura media	25.2
91810	7	Sololá	717	San Juan la Laguna	12	San Juan la Laguna	11	Noviembre	2023-11-28T00:00:00	2024-11-08T14:00:00	4	Temperatura máxima	25.3
91811	7	Sololá	717	San Juan la Laguna	12	San Juan la Laguna	11	Noviembre	2023-11-28T00:00:00	2024-11-08T14:00:00	3	Temperatura mínima	24.6
91812	7	Sololá	717	San Juan la Laguna	12	San Juan la Laguna	11	Noviembre	2023-11-28T00:00:00	2024-11-08T14:00:00	5	Humedad	57
91813	7	Sololá	717	San Juan la Laguna	12	San Juan la Laguna	11	Noviembre	2023-11-28T00:00:00	2024-11-08T14:00:00	6	Velocidad del viento	14.5
91814	7	Sololá	717	San Juan la Laguna	12	San Juan la Laguna	11	Noviembre	2023-11-28T00:00:00	2024-11-08T14:00:00	7	Dirección del viento	14.48
91815	7	Sololá	717	San Juan la Laguna	12	San Juan la Laguna	11	Noviembre	2023-11-28T00:00:00	2024-11-08T14:00:00	1	Precipitación	0
91816	7	Sololá	717	San Juan la Laguna	12	San Juan la Laguna	11	Noviembre	2023-11-28T00:00:00	2024-11-08T14:00:00	8	Radiación solar	774
91817	7	Sololá	717	San Juan la Laguna	12	San Juan la Laguna	11	Noviembre	2023-11-28T00:00:00	2024-11-08T15:00:00	2	Temperatura media	23.6
91818	7	Sololá	717	San Juan la Laguna	12	San Juan la Laguna	11	Noviembre	2023-11-28T00:00:00	2024-11-08T15:00:00	4	Temperatura máxima	25.3
91819	7	Sololá	717	San Juan la Laguna	12	San Juan la Laguna	11	Noviembre	2023-11-28T00:00:00	2024-11-08T15:00:00	3	Temperatura mínima	23.6
91820	7	Sololá	717	San Juan la Laguna	12	San Juan la Laguna	11	Noviembre	2023-11-28T00:00:00	2024-11-08T15:00:00	5	Humedad	61
91821	7	Sololá	717	San Juan la Laguna	12	San Juan la Laguna	11	Noviembre	2023-11-28T00:00:00	2024-11-08T15:00:00	6	Velocidad del viento	16.1
91822	7	Sololá	717	San Juan la Laguna	12	San Juan la Laguna	11	Noviembre	2023-11-28T00:00:00	2024-11-08T15:00:00	7	Dirección del viento	16.09
91823	7	Sololá	717	San Juan la Laguna	12	San Juan la Laguna	11	Noviembre	2023-11-28T00:00:00	2024-11-08T15:00:00	1	Precipitación	0
91824	7	Sololá	717	San Juan la Laguna	12	San Juan la Laguna	11	Noviembre	2023-11-28T00:00:00	2024-11-08T15:00:00	8	Radiación solar	269
91825	7	Sololá	717	San Juan la Laguna	12	San Juan la Laguna	11	Noviembre	2023-11-28T00:00:00	2024-11-08T16:00:00	2	Temperatura media	23.6
91826	7	Sololá	717	San Juan la Laguna	12	San Juan la Laguna	11	Noviembre	2023-11-28T00:00:00	2024-11-08T16:00:00	4	Temperatura máxima	23.7
91827	7	Sololá	717	San Juan la Laguna	12	San Juan la Laguna	11	Noviembre	2023-11-28T00:00:00	2024-11-08T16:00:00	3	Temperatura mínima	23.2
91828	7	Sololá	717	San Juan la Laguna	12	San Juan la Laguna	11	Noviembre	2023-11-28T00:00:00	2024-11-08T16:00:00	5	Humedad	61
91829	7	Sololá	717	San Juan la Laguna	12	San Juan la Laguna	11	Noviembre	2023-11-28T00:00:00	2024-11-08T16:00:00	6	Velocidad del viento	16.1
91830	7	Sololá	717	San Juan la Laguna	12	San Juan la Laguna	11	Noviembre	2023-11-28T00:00:00	2024-11-08T16:00:00	7	Dirección del viento	16.09
91831	7	Sololá	717	San Juan la Laguna	12	San Juan la Laguna	11	Noviembre	2023-11-28T00:00:00	2024-11-08T16:00:00	1	Precipitación	0
91832	7	Sololá	717	San Juan la Laguna	12	San Juan la Laguna	11	Noviembre	2023-11-28T00:00:00	2024-11-08T16:00:00	8	Radiación solar	233
91833	7	Sololá	717	San Juan la Laguna	12	San Juan la Laguna	11	Noviembre	2023-11-28T00:00:00	2024-11-08T17:00:00	2	Temperatura media	22.5
91834	7	Sololá	717	San Juan la Laguna	12	San Juan la Laguna	11	Noviembre	2023-11-28T00:00:00	2024-11-08T17:00:00	4	Temperatura máxima	23.6
91835	7	Sololá	717	San Juan la Laguna	12	San Juan la Laguna	11	Noviembre	2023-11-28T00:00:00	2024-11-08T17:00:00	3	Temperatura mínima	22.5
91836	7	Sololá	717	San Juan la Laguna	12	San Juan la Laguna	11	Noviembre	2023-11-28T00:00:00	2024-11-08T17:00:00	5	Humedad	63
91837	7	Sololá	717	San Juan la Laguna	12	San Juan la Laguna	11	Noviembre	2023-11-28T00:00:00	2024-11-08T17:00:00	6	Velocidad del viento	16.1
91838	7	Sololá	717	San Juan la Laguna	12	San Juan la Laguna	11	Noviembre	2023-11-28T00:00:00	2024-11-08T17:00:00	7	Dirección del viento	16.09
91839	7	Sololá	717	San Juan la Laguna	12	San Juan la Laguna	11	Noviembre	2023-11-28T00:00:00	2024-11-08T17:00:00	1	Precipitación	0
91840	7	Sololá	717	San Juan la Laguna	12	San Juan la Laguna	11	Noviembre	2023-11-28T00:00:00	2024-11-08T17:00:00	8	Radiación solar	132
91841	7	Sololá	717	San Juan la Laguna	12	San Juan la Laguna	11	Noviembre	2023-11-28T00:00:00	2024-11-08T18:00:00	2	Temperatura media	21.8
91842	7	Sololá	717	San Juan la Laguna	12	San Juan la Laguna	11	Noviembre	2023-11-28T00:00:00	2024-11-08T18:00:00	4	Temperatura máxima	22.5
91843	7	Sololá	717	San Juan la Laguna	12	San Juan la Laguna	11	Noviembre	2023-11-28T00:00:00	2024-11-08T18:00:00	3	Temperatura mínima	21.8
91844	7	Sololá	717	San Juan la Laguna	12	San Juan la Laguna	11	Noviembre	2023-11-28T00:00:00	2024-11-08T18:00:00	5	Humedad	65
91845	7	Sololá	717	San Juan la Laguna	12	San Juan la Laguna	11	Noviembre	2023-11-28T00:00:00	2024-11-08T18:00:00	6	Velocidad del viento	16.1
91846	7	Sololá	717	San Juan la Laguna	12	San Juan la Laguna	11	Noviembre	2023-11-28T00:00:00	2024-11-08T18:00:00	7	Dirección del viento	16.09
91847	7	Sololá	717	San Juan la Laguna	12	San Juan la Laguna	11	Noviembre	2023-11-28T00:00:00	2024-11-08T18:00:00	1	Precipitación	0
91848	7	Sololá	717	San Juan la Laguna	12	San Juan la Laguna	11	Noviembre	2023-11-28T00:00:00	2024-11-08T18:00:00	8	Radiación solar	7
91849	7	Sololá	717	San Juan la Laguna	12	San Juan la Laguna	11	Noviembre	2023-11-28T00:00:00	2024-11-08T19:00:00	2	Temperatura media	21.3
91850	7	Sololá	717	San Juan la Laguna	12	San Juan la Laguna	11	Noviembre	2023-11-28T00:00:00	2024-11-08T19:00:00	4	Temperatura máxima	21.8
91851	7	Sololá	717	San Juan la Laguna	12	San Juan la Laguna	11	Noviembre	2023-11-28T00:00:00	2024-11-08T19:00:00	3	Temperatura mínima	21.3
91852	7	Sololá	717	San Juan la Laguna	12	San Juan la Laguna	11	Noviembre	2023-11-28T00:00:00	2024-11-08T19:00:00	5	Humedad	68
91853	7	Sololá	717	San Juan la Laguna	12	San Juan la Laguna	11	Noviembre	2023-11-28T00:00:00	2024-11-08T19:00:00	6	Velocidad del viento	16.1
91854	7	Sololá	717	San Juan la Laguna	12	San Juan la Laguna	11	Noviembre	2023-11-28T00:00:00	2024-11-08T19:00:00	7	Dirección del viento	16.09
91855	7	Sololá	717	San Juan la Laguna	12	San Juan la Laguna	11	Noviembre	2023-11-28T00:00:00	2024-11-08T19:00:00	1	Precipitación	0
91856	7	Sololá	717	San Juan la Laguna	12	San Juan la Laguna	11	Noviembre	2023-11-28T00:00:00	2024-11-08T19:00:00	8	Radiación solar	0
91857	7	Sololá	717	San Juan la Laguna	12	San Juan la Laguna	11	Noviembre	2023-11-28T00:00:00	2024-11-08T20:00:00	2	Temperatura media	20.9
91858	7	Sololá	717	San Juan la Laguna	12	San Juan la Laguna	11	Noviembre	2023-11-28T00:00:00	2024-11-08T20:00:00	4	Temperatura máxima	21.3
91859	7	Sololá	717	San Juan la Laguna	12	San Juan la Laguna	11	Noviembre	2023-11-28T00:00:00	2024-11-08T20:00:00	3	Temperatura mínima	20.9
91860	7	Sololá	717	San Juan la Laguna	12	San Juan la Laguna	11	Noviembre	2023-11-28T00:00:00	2024-11-08T20:00:00	5	Humedad	70
91861	7	Sololá	717	San Juan la Laguna	12	San Juan la Laguna	11	Noviembre	2023-11-28T00:00:00	2024-11-08T20:00:00	6	Velocidad del viento	12.9
91862	7	Sololá	717	San Juan la Laguna	12	San Juan la Laguna	11	Noviembre	2023-11-28T00:00:00	2024-11-08T20:00:00	7	Dirección del viento	12.87
91863	7	Sololá	717	San Juan la Laguna	12	San Juan la Laguna	11	Noviembre	2023-11-28T00:00:00	2024-11-08T20:00:00	1	Precipitación	0
91864	7	Sololá	717	San Juan la Laguna	12	San Juan la Laguna	11	Noviembre	2023-11-28T00:00:00	2024-11-08T20:00:00	8	Radiación solar	0
91865	7	Sololá	717	San Juan la Laguna	12	San Juan la Laguna	11	Noviembre	2023-11-28T00:00:00	2024-11-08T21:00:00	2	Temperatura media	20.8
91866	7	Sololá	717	San Juan la Laguna	12	San Juan la Laguna	11	Noviembre	2023-11-28T00:00:00	2024-11-08T21:00:00	4	Temperatura máxima	21
91867	7	Sololá	717	San Juan la Laguna	12	San Juan la Laguna	11	Noviembre	2023-11-28T00:00:00	2024-11-08T21:00:00	3	Temperatura mínima	20.7
91868	7	Sololá	717	San Juan la Laguna	12	San Juan la Laguna	11	Noviembre	2023-11-28T00:00:00	2024-11-08T21:00:00	5	Humedad	69
91869	7	Sololá	717	San Juan la Laguna	12	San Juan la Laguna	11	Noviembre	2023-11-28T00:00:00	2024-11-08T21:00:00	6	Velocidad del viento	14.5
91870	7	Sololá	717	San Juan la Laguna	12	San Juan la Laguna	11	Noviembre	2023-11-28T00:00:00	2024-11-08T21:00:00	7	Dirección del viento	14.48
91871	7	Sololá	717	San Juan la Laguna	12	San Juan la Laguna	11	Noviembre	2023-11-28T00:00:00	2024-11-08T21:00:00	1	Precipitación	0
91872	7	Sololá	717	San Juan la Laguna	12	San Juan la Laguna	11	Noviembre	2023-11-28T00:00:00	2024-11-08T21:00:00	8	Radiación solar	0
91873	7	Sololá	717	San Juan la Laguna	12	San Juan la Laguna	11	Noviembre	2023-11-28T00:00:00	2024-11-08T22:00:00	2	Temperatura media	20.2
91874	7	Sololá	717	San Juan la Laguna	12	San Juan la Laguna	11	Noviembre	2023-11-28T00:00:00	2024-11-08T22:00:00	4	Temperatura máxima	20.8
91875	7	Sololá	717	San Juan la Laguna	12	San Juan la Laguna	11	Noviembre	2023-11-28T00:00:00	2024-11-08T22:00:00	3	Temperatura mínima	20.2
91876	7	Sololá	717	San Juan la Laguna	12	San Juan la Laguna	11	Noviembre	2023-11-28T00:00:00	2024-11-08T22:00:00	5	Humedad	70
91877	7	Sololá	717	San Juan la Laguna	12	San Juan la Laguna	11	Noviembre	2023-11-28T00:00:00	2024-11-08T22:00:00	6	Velocidad del viento	11.3
91878	7	Sololá	717	San Juan la Laguna	12	San Juan la Laguna	11	Noviembre	2023-11-28T00:00:00	2024-11-08T22:00:00	7	Dirección del viento	11.27
91879	7	Sololá	717	San Juan la Laguna	12	San Juan la Laguna	11	Noviembre	2023-11-28T00:00:00	2024-11-08T22:00:00	1	Precipitación	0
91880	7	Sololá	717	San Juan la Laguna	12	San Juan la Laguna	11	Noviembre	2023-11-28T00:00:00	2024-11-08T22:00:00	8	Radiación solar	0
91881	7	Sololá	717	San Juan la Laguna	12	San Juan la Laguna	11	Noviembre	2023-11-28T00:00:00	2024-11-08T23:00:00	2	Temperatura media	20
91882	7	Sololá	717	San Juan la Laguna	12	San Juan la Laguna	11	Noviembre	2023-11-28T00:00:00	2024-11-08T23:00:00	4	Temperatura máxima	20.3
91883	7	Sololá	717	San Juan la Laguna	12	San Juan la Laguna	11	Noviembre	2023-11-28T00:00:00	2024-11-08T23:00:00	3	Temperatura mínima	19.9
91884	7	Sololá	717	San Juan la Laguna	12	San Juan la Laguna	11	Noviembre	2023-11-28T00:00:00	2024-11-08T23:00:00	5	Humedad	67
91885	7	Sololá	717	San Juan la Laguna	12	San Juan la Laguna	11	Noviembre	2023-11-28T00:00:00	2024-11-08T23:00:00	6	Velocidad del viento	12.9
91886	7	Sololá	717	San Juan la Laguna	12	San Juan la Laguna	11	Noviembre	2023-11-28T00:00:00	2024-11-08T23:00:00	7	Dirección del viento	12.87
91887	7	Sololá	717	San Juan la Laguna	12	San Juan la Laguna	11	Noviembre	2023-11-28T00:00:00	2024-11-08T23:00:00	1	Precipitación	0
91888	7	Sololá	717	San Juan la Laguna	12	San Juan la Laguna	11	Noviembre	2023-11-28T00:00:00	2024-11-08T23:00:00	8	Radiación solar	0
91889	7	Sololá	717	San Juan la Laguna	12	San Juan la Laguna	11	Noviembre	2023-11-29T00:00:00	2024-11-08T00:00:00	2	Temperatura media	19.7
91890	7	Sololá	717	San Juan la Laguna	12	San Juan la Laguna	11	Noviembre	2023-11-29T00:00:00	2024-11-08T00:00:00	4	Temperatura máxima	20
91891	7	Sololá	717	San Juan la Laguna	12	San Juan la Laguna	11	Noviembre	2023-11-29T00:00:00	2024-11-08T00:00:00	3	Temperatura mínima	19.6
91892	7	Sololá	717	San Juan la Laguna	12	San Juan la Laguna	11	Noviembre	2023-11-29T00:00:00	2024-11-08T00:00:00	5	Humedad	68
91893	7	Sololá	717	San Juan la Laguna	12	San Juan la Laguna	11	Noviembre	2023-11-29T00:00:00	2024-11-08T00:00:00	6	Velocidad del viento	9.7
91894	7	Sololá	717	San Juan la Laguna	12	San Juan la Laguna	11	Noviembre	2023-11-29T00:00:00	2024-11-08T00:00:00	7	Dirección del viento	9.66
91895	7	Sololá	717	San Juan la Laguna	12	San Juan la Laguna	11	Noviembre	2023-11-29T00:00:00	2024-11-08T00:00:00	1	Precipitación	0
91896	7	Sololá	717	San Juan la Laguna	12	San Juan la Laguna	11	Noviembre	2023-11-29T00:00:00	2024-11-08T00:00:00	8	Radiación solar	0
91897	7	Sololá	717	San Juan la Laguna	12	San Juan la Laguna	11	Noviembre	2023-11-29T00:00:00	2024-11-08T01:00:00	2	Temperatura media	19.3
91898	7	Sololá	717	San Juan la Laguna	12	San Juan la Laguna	11	Noviembre	2023-11-29T00:00:00	2024-11-08T01:00:00	4	Temperatura máxima	19.7
91899	7	Sololá	717	San Juan la Laguna	12	San Juan la Laguna	11	Noviembre	2023-11-29T00:00:00	2024-11-08T01:00:00	3	Temperatura mínima	19.3
91900	7	Sololá	717	San Juan la Laguna	12	San Juan la Laguna	11	Noviembre	2023-11-29T00:00:00	2024-11-08T01:00:00	5	Humedad	69
91901	7	Sololá	717	San Juan la Laguna	12	San Juan la Laguna	11	Noviembre	2023-11-29T00:00:00	2024-11-08T01:00:00	6	Velocidad del viento	11.3
91902	7	Sololá	717	San Juan la Laguna	12	San Juan la Laguna	11	Noviembre	2023-11-29T00:00:00	2024-11-08T01:00:00	7	Dirección del viento	11.27
91903	7	Sololá	717	San Juan la Laguna	12	San Juan la Laguna	11	Noviembre	2023-11-29T00:00:00	2024-11-08T01:00:00	1	Precipitación	0
91904	7	Sololá	717	San Juan la Laguna	12	San Juan la Laguna	11	Noviembre	2023-11-29T00:00:00	2024-11-08T01:00:00	8	Radiación solar	0
91905	7	Sololá	717	San Juan la Laguna	12	San Juan la Laguna	11	Noviembre	2023-11-29T00:00:00	2024-11-08T02:00:00	2	Temperatura media	18.9
91906	7	Sololá	717	San Juan la Laguna	12	San Juan la Laguna	11	Noviembre	2023-11-29T00:00:00	2024-11-08T02:00:00	4	Temperatura máxima	19.3
91907	7	Sololá	717	San Juan la Laguna	12	San Juan la Laguna	11	Noviembre	2023-11-29T00:00:00	2024-11-08T02:00:00	3	Temperatura mínima	18.8
91908	7	Sololá	717	San Juan la Laguna	12	San Juan la Laguna	11	Noviembre	2023-11-29T00:00:00	2024-11-08T02:00:00	5	Humedad	70
91909	7	Sololá	717	San Juan la Laguna	12	San Juan la Laguna	11	Noviembre	2023-11-29T00:00:00	2024-11-08T02:00:00	6	Velocidad del viento	6.4
91910	7	Sololá	717	San Juan la Laguna	12	San Juan la Laguna	11	Noviembre	2023-11-29T00:00:00	2024-11-08T02:00:00	7	Dirección del viento	6.44
91911	7	Sololá	717	San Juan la Laguna	12	San Juan la Laguna	11	Noviembre	2023-11-29T00:00:00	2024-11-08T02:00:00	1	Precipitación	0
91912	7	Sololá	717	San Juan la Laguna	12	San Juan la Laguna	11	Noviembre	2023-11-29T00:00:00	2024-11-08T02:00:00	8	Radiación solar	0
91913	7	Sololá	717	San Juan la Laguna	12	San Juan la Laguna	11	Noviembre	2023-11-29T00:00:00	2024-11-08T03:00:00	2	Temperatura media	17.2
91914	7	Sololá	717	San Juan la Laguna	12	San Juan la Laguna	11	Noviembre	2023-11-29T00:00:00	2024-11-08T03:00:00	4	Temperatura máxima	18.8
91915	7	Sololá	717	San Juan la Laguna	12	San Juan la Laguna	11	Noviembre	2023-11-29T00:00:00	2024-11-08T03:00:00	3	Temperatura mínima	17.2
91916	7	Sololá	717	San Juan la Laguna	12	San Juan la Laguna	11	Noviembre	2023-11-29T00:00:00	2024-11-08T03:00:00	5	Humedad	76
91917	7	Sololá	717	San Juan la Laguna	12	San Juan la Laguna	11	Noviembre	2023-11-29T00:00:00	2024-11-08T03:00:00	6	Velocidad del viento	3.2
91918	7	Sololá	717	San Juan la Laguna	12	San Juan la Laguna	11	Noviembre	2023-11-29T00:00:00	2024-11-08T03:00:00	7	Dirección del viento	3.22
91919	7	Sololá	717	San Juan la Laguna	12	San Juan la Laguna	11	Noviembre	2023-11-29T00:00:00	2024-11-08T03:00:00	1	Precipitación	0
91920	7	Sololá	717	San Juan la Laguna	12	San Juan la Laguna	11	Noviembre	2023-11-29T00:00:00	2024-11-08T03:00:00	8	Radiación solar	0
91921	7	Sololá	717	San Juan la Laguna	12	San Juan la Laguna	11	Noviembre	2023-11-29T00:00:00	2024-11-08T04:00:00	2	Temperatura media	18.8
91922	7	Sololá	717	San Juan la Laguna	12	San Juan la Laguna	11	Noviembre	2023-11-29T00:00:00	2024-11-08T04:00:00	4	Temperatura máxima	18.8
91923	7	Sololá	717	San Juan la Laguna	12	San Juan la Laguna	11	Noviembre	2023-11-29T00:00:00	2024-11-08T04:00:00	3	Temperatura mínima	16.8
91924	7	Sololá	717	San Juan la Laguna	12	San Juan la Laguna	11	Noviembre	2023-11-29T00:00:00	2024-11-08T04:00:00	5	Humedad	68
91925	7	Sololá	717	San Juan la Laguna	12	San Juan la Laguna	11	Noviembre	2023-11-29T00:00:00	2024-11-08T04:00:00	6	Velocidad del viento	3.2
91926	7	Sololá	717	San Juan la Laguna	12	San Juan la Laguna	11	Noviembre	2023-11-29T00:00:00	2024-11-08T04:00:00	7	Dirección del viento	3.22
91927	7	Sololá	717	San Juan la Laguna	12	San Juan la Laguna	11	Noviembre	2023-11-29T00:00:00	2024-11-08T04:00:00	1	Precipitación	0
91928	7	Sololá	717	San Juan la Laguna	12	San Juan la Laguna	11	Noviembre	2023-11-29T00:00:00	2024-11-08T04:00:00	8	Radiación solar	0
91929	7	Sololá	717	San Juan la Laguna	12	San Juan la Laguna	11	Noviembre	2023-11-29T00:00:00	2024-11-08T05:00:00	2	Temperatura media	18.3
91930	7	Sololá	717	San Juan la Laguna	12	San Juan la Laguna	11	Noviembre	2023-11-29T00:00:00	2024-11-08T05:00:00	4	Temperatura máxima	18.8
91931	7	Sololá	717	San Juan la Laguna	12	San Juan la Laguna	11	Noviembre	2023-11-29T00:00:00	2024-11-08T05:00:00	3	Temperatura mínima	17
91932	7	Sololá	717	San Juan la Laguna	12	San Juan la Laguna	11	Noviembre	2023-11-29T00:00:00	2024-11-08T05:00:00	5	Humedad	68
91933	7	Sololá	717	San Juan la Laguna	12	San Juan la Laguna	11	Noviembre	2023-11-29T00:00:00	2024-11-08T05:00:00	6	Velocidad del viento	3.2
91934	7	Sololá	717	San Juan la Laguna	12	San Juan la Laguna	11	Noviembre	2023-11-29T00:00:00	2024-11-08T05:00:00	7	Dirección del viento	3.22
91935	7	Sololá	717	San Juan la Laguna	12	San Juan la Laguna	11	Noviembre	2023-11-29T00:00:00	2024-11-08T05:00:00	1	Precipitación	0
91936	7	Sololá	717	San Juan la Laguna	12	San Juan la Laguna	11	Noviembre	2023-11-29T00:00:00	2024-11-08T05:00:00	8	Radiación solar	0
91937	7	Sololá	717	San Juan la Laguna	12	San Juan la Laguna	11	Noviembre	2023-11-29T00:00:00	2024-11-08T06:00:00	2	Temperatura media	19.2
91938	7	Sololá	717	San Juan la Laguna	12	San Juan la Laguna	11	Noviembre	2023-11-29T00:00:00	2024-11-08T06:00:00	4	Temperatura máxima	19.2
91939	7	Sololá	717	San Juan la Laguna	12	San Juan la Laguna	11	Noviembre	2023-11-29T00:00:00	2024-11-08T06:00:00	3	Temperatura mínima	18.3
91940	7	Sololá	717	San Juan la Laguna	12	San Juan la Laguna	11	Noviembre	2023-11-29T00:00:00	2024-11-08T06:00:00	5	Humedad	60
91941	7	Sololá	717	San Juan la Laguna	12	San Juan la Laguna	11	Noviembre	2023-11-29T00:00:00	2024-11-08T06:00:00	6	Velocidad del viento	6.4
91942	7	Sololá	717	San Juan la Laguna	12	San Juan la Laguna	11	Noviembre	2023-11-29T00:00:00	2024-11-08T06:00:00	7	Dirección del viento	6.44
91943	7	Sololá	717	San Juan la Laguna	12	San Juan la Laguna	11	Noviembre	2023-11-29T00:00:00	2024-11-08T06:00:00	1	Precipitación	0
91944	7	Sololá	717	San Juan la Laguna	12	San Juan la Laguna	11	Noviembre	2023-11-29T00:00:00	2024-11-08T06:00:00	8	Radiación solar	0
91945	7	Sololá	717	San Juan la Laguna	12	San Juan la Laguna	11	Noviembre	2023-11-29T00:00:00	2024-11-08T07:00:00	2	Temperatura media	19.4
91946	7	Sololá	717	San Juan la Laguna	12	San Juan la Laguna	11	Noviembre	2023-11-29T00:00:00	2024-11-08T07:00:00	4	Temperatura máxima	19.4
91947	7	Sololá	717	San Juan la Laguna	12	San Juan la Laguna	11	Noviembre	2023-11-29T00:00:00	2024-11-08T07:00:00	3	Temperatura mínima	19.2
91948	7	Sololá	717	San Juan la Laguna	12	San Juan la Laguna	11	Noviembre	2023-11-29T00:00:00	2024-11-08T07:00:00	5	Humedad	62
91949	7	Sololá	717	San Juan la Laguna	12	San Juan la Laguna	11	Noviembre	2023-11-29T00:00:00	2024-11-08T07:00:00	6	Velocidad del viento	8
91950	7	Sololá	717	San Juan la Laguna	12	San Juan la Laguna	11	Noviembre	2023-11-29T00:00:00	2024-11-08T07:00:00	7	Dirección del viento	8.05
91951	7	Sololá	717	San Juan la Laguna	12	San Juan la Laguna	11	Noviembre	2023-11-29T00:00:00	2024-11-08T07:00:00	1	Precipitación	0
91952	7	Sololá	717	San Juan la Laguna	12	San Juan la Laguna	11	Noviembre	2023-11-29T00:00:00	2024-11-08T07:00:00	8	Radiación solar	22
91953	7	Sololá	717	San Juan la Laguna	12	San Juan la Laguna	11	Noviembre	2023-11-29T00:00:00	2024-11-08T08:00:00	2	Temperatura media	20.2
91954	7	Sololá	717	San Juan la Laguna	12	San Juan la Laguna	11	Noviembre	2023-11-29T00:00:00	2024-11-08T08:00:00	4	Temperatura máxima	20.2
91955	7	Sololá	717	San Juan la Laguna	12	San Juan la Laguna	11	Noviembre	2023-11-29T00:00:00	2024-11-08T08:00:00	3	Temperatura mínima	18.3
91956	7	Sololá	717	San Juan la Laguna	12	San Juan la Laguna	11	Noviembre	2023-11-29T00:00:00	2024-11-08T08:00:00	5	Humedad	53
91957	7	Sololá	717	San Juan la Laguna	12	San Juan la Laguna	11	Noviembre	2023-11-29T00:00:00	2024-11-08T08:00:00	6	Velocidad del viento	3.2
91958	7	Sololá	717	San Juan la Laguna	12	San Juan la Laguna	11	Noviembre	2023-11-29T00:00:00	2024-11-08T08:00:00	7	Dirección del viento	3.22
91959	7	Sololá	717	San Juan la Laguna	12	San Juan la Laguna	11	Noviembre	2023-11-29T00:00:00	2024-11-08T08:00:00	1	Precipitación	0
91960	7	Sololá	717	San Juan la Laguna	12	San Juan la Laguna	11	Noviembre	2023-11-29T00:00:00	2024-11-08T08:00:00	8	Radiación solar	192
91961	7	Sololá	717	San Juan la Laguna	12	San Juan la Laguna	11	Noviembre	2023-11-29T00:00:00	2024-11-08T09:00:00	2	Temperatura media	22.6
91962	7	Sololá	717	San Juan la Laguna	12	San Juan la Laguna	11	Noviembre	2023-11-29T00:00:00	2024-11-08T09:00:00	4	Temperatura máxima	22.6
91963	7	Sololá	717	San Juan la Laguna	12	San Juan la Laguna	11	Noviembre	2023-11-29T00:00:00	2024-11-08T09:00:00	3	Temperatura mínima	20.2
91964	7	Sololá	717	San Juan la Laguna	12	San Juan la Laguna	11	Noviembre	2023-11-29T00:00:00	2024-11-08T09:00:00	5	Humedad	42
91965	7	Sololá	717	San Juan la Laguna	12	San Juan la Laguna	11	Noviembre	2023-11-29T00:00:00	2024-11-08T09:00:00	6	Velocidad del viento	8
91966	7	Sololá	717	San Juan la Laguna	12	San Juan la Laguna	11	Noviembre	2023-11-29T00:00:00	2024-11-08T09:00:00	7	Dirección del viento	8.05
91967	7	Sololá	717	San Juan la Laguna	12	San Juan la Laguna	11	Noviembre	2023-11-29T00:00:00	2024-11-08T09:00:00	1	Precipitación	0
91968	7	Sololá	717	San Juan la Laguna	12	San Juan la Laguna	11	Noviembre	2023-11-29T00:00:00	2024-11-08T09:00:00	8	Radiación solar	396
91969	7	Sololá	717	San Juan la Laguna	12	San Juan la Laguna	11	Noviembre	2023-11-29T00:00:00	2024-11-08T10:00:00	2	Temperatura media	23.4
91970	7	Sololá	717	San Juan la Laguna	12	San Juan la Laguna	11	Noviembre	2023-11-29T00:00:00	2024-11-08T10:00:00	4	Temperatura máxima	23.4
91971	7	Sololá	717	San Juan la Laguna	12	San Juan la Laguna	11	Noviembre	2023-11-29T00:00:00	2024-11-08T10:00:00	3	Temperatura mínima	22.6
91972	7	Sololá	717	San Juan la Laguna	12	San Juan la Laguna	11	Noviembre	2023-11-29T00:00:00	2024-11-08T10:00:00	5	Humedad	47
91973	7	Sololá	717	San Juan la Laguna	12	San Juan la Laguna	11	Noviembre	2023-11-29T00:00:00	2024-11-08T10:00:00	6	Velocidad del viento	12.9
91974	7	Sololá	717	San Juan la Laguna	12	San Juan la Laguna	11	Noviembre	2023-11-29T00:00:00	2024-11-08T10:00:00	7	Dirección del viento	12.87
91975	7	Sololá	717	San Juan la Laguna	12	San Juan la Laguna	11	Noviembre	2023-11-29T00:00:00	2024-11-08T10:00:00	1	Precipitación	0
91976	7	Sololá	717	San Juan la Laguna	12	San Juan la Laguna	11	Noviembre	2023-11-29T00:00:00	2024-11-08T10:00:00	8	Radiación solar	579
91977	7	Sololá	717	San Juan la Laguna	12	San Juan la Laguna	11	Noviembre	2023-11-29T00:00:00	2024-11-08T11:00:00	2	Temperatura media	24.4
91978	7	Sololá	717	San Juan la Laguna	12	San Juan la Laguna	11	Noviembre	2023-11-29T00:00:00	2024-11-08T11:00:00	4	Temperatura máxima	24.4
91979	7	Sololá	717	San Juan la Laguna	12	San Juan la Laguna	11	Noviembre	2023-11-29T00:00:00	2024-11-08T11:00:00	3	Temperatura mínima	23.4
91980	7	Sololá	717	San Juan la Laguna	12	San Juan la Laguna	11	Noviembre	2023-11-29T00:00:00	2024-11-08T11:00:00	5	Humedad	45
91981	7	Sololá	717	San Juan la Laguna	12	San Juan la Laguna	11	Noviembre	2023-11-29T00:00:00	2024-11-08T11:00:00	6	Velocidad del viento	14.5
91982	7	Sololá	717	San Juan la Laguna	12	San Juan la Laguna	11	Noviembre	2023-11-29T00:00:00	2024-11-08T11:00:00	7	Dirección del viento	14.48
91983	7	Sololá	717	San Juan la Laguna	12	San Juan la Laguna	11	Noviembre	2023-11-29T00:00:00	2024-11-08T11:00:00	1	Precipitación	0
91984	7	Sololá	717	San Juan la Laguna	12	San Juan la Laguna	11	Noviembre	2023-11-29T00:00:00	2024-11-08T11:00:00	8	Radiación solar	584
91985	7	Sololá	717	San Juan la Laguna	12	San Juan la Laguna	11	Noviembre	2023-11-29T00:00:00	2024-11-08T12:00:00	2	Temperatura media	25.2
91986	7	Sololá	717	San Juan la Laguna	12	San Juan la Laguna	11	Noviembre	2023-11-29T00:00:00	2024-11-08T12:00:00	4	Temperatura máxima	25.2
91987	7	Sololá	717	San Juan la Laguna	12	San Juan la Laguna	11	Noviembre	2023-11-29T00:00:00	2024-11-08T12:00:00	3	Temperatura mínima	24.2
91988	7	Sololá	717	San Juan la Laguna	12	San Juan la Laguna	11	Noviembre	2023-11-29T00:00:00	2024-11-08T12:00:00	5	Humedad	47
91989	7	Sololá	717	San Juan la Laguna	12	San Juan la Laguna	11	Noviembre	2023-11-29T00:00:00	2024-11-08T12:00:00	6	Velocidad del viento	12.9
91990	7	Sololá	717	San Juan la Laguna	12	San Juan la Laguna	11	Noviembre	2023-11-29T00:00:00	2024-11-08T12:00:00	7	Dirección del viento	12.87
91991	7	Sololá	717	San Juan la Laguna	12	San Juan la Laguna	11	Noviembre	2023-11-29T00:00:00	2024-11-08T12:00:00	1	Precipitación	0
91992	7	Sololá	717	San Juan la Laguna	12	San Juan la Laguna	11	Noviembre	2023-11-29T00:00:00	2024-11-08T12:00:00	8	Radiación solar	739
91993	7	Sololá	717	San Juan la Laguna	12	San Juan la Laguna	11	Noviembre	2023-11-29T00:00:00	2024-11-08T13:00:00	2	Temperatura media	25.6
91994	7	Sololá	717	San Juan la Laguna	12	San Juan la Laguna	11	Noviembre	2023-11-29T00:00:00	2024-11-08T13:00:00	4	Temperatura máxima	25.9
91995	7	Sololá	717	San Juan la Laguna	12	San Juan la Laguna	11	Noviembre	2023-11-29T00:00:00	2024-11-08T13:00:00	3	Temperatura mínima	25.2
91996	7	Sololá	717	San Juan la Laguna	12	San Juan la Laguna	11	Noviembre	2023-11-29T00:00:00	2024-11-08T13:00:00	5	Humedad	50
91997	7	Sololá	717	San Juan la Laguna	12	San Juan la Laguna	11	Noviembre	2023-11-29T00:00:00	2024-11-08T13:00:00	6	Velocidad del viento	11.3
91998	7	Sololá	717	San Juan la Laguna	12	San Juan la Laguna	11	Noviembre	2023-11-29T00:00:00	2024-11-08T13:00:00	7	Dirección del viento	11.27
91999	7	Sololá	717	San Juan la Laguna	12	San Juan la Laguna	11	Noviembre	2023-11-29T00:00:00	2024-11-08T13:00:00	1	Precipitación	0
92000	7	Sololá	717	San Juan la Laguna	12	San Juan la Laguna	11	Noviembre	2023-11-29T00:00:00	2024-11-08T13:00:00	8	Radiación solar	751
92001	7	Sololá	717	San Juan la Laguna	12	San Juan la Laguna	11	Noviembre	2023-11-29T00:00:00	2024-11-08T14:00:00	2	Temperatura media	25.5
92002	7	Sololá	717	San Juan la Laguna	12	San Juan la Laguna	11	Noviembre	2023-11-29T00:00:00	2024-11-08T14:00:00	4	Temperatura máxima	25.6
92003	7	Sololá	717	San Juan la Laguna	12	San Juan la Laguna	11	Noviembre	2023-11-29T00:00:00	2024-11-08T14:00:00	3	Temperatura mínima	25.1
92004	7	Sololá	717	San Juan la Laguna	12	San Juan la Laguna	11	Noviembre	2023-11-29T00:00:00	2024-11-08T14:00:00	5	Humedad	49
92005	7	Sololá	717	San Juan la Laguna	12	San Juan la Laguna	11	Noviembre	2023-11-29T00:00:00	2024-11-08T14:00:00	6	Velocidad del viento	11.3
92006	7	Sololá	717	San Juan la Laguna	12	San Juan la Laguna	11	Noviembre	2023-11-29T00:00:00	2024-11-08T14:00:00	7	Dirección del viento	11.27
92007	7	Sololá	717	San Juan la Laguna	12	San Juan la Laguna	11	Noviembre	2023-11-29T00:00:00	2024-11-08T14:00:00	1	Precipitación	0
92008	7	Sololá	717	San Juan la Laguna	12	San Juan la Laguna	11	Noviembre	2023-11-29T00:00:00	2024-11-08T14:00:00	8	Radiación solar	708
92009	7	Sololá	717	San Juan la Laguna	12	San Juan la Laguna	11	Noviembre	2023-11-29T00:00:00	2024-11-08T15:00:00	2	Temperatura media	25.2
92010	7	Sololá	717	San Juan la Laguna	12	San Juan la Laguna	11	Noviembre	2023-11-29T00:00:00	2024-11-08T15:00:00	4	Temperatura máxima	25.9
92011	7	Sololá	717	San Juan la Laguna	12	San Juan la Laguna	11	Noviembre	2023-11-29T00:00:00	2024-11-08T15:00:00	3	Temperatura mínima	25.1
92012	7	Sololá	717	San Juan la Laguna	12	San Juan la Laguna	11	Noviembre	2023-11-29T00:00:00	2024-11-08T15:00:00	5	Humedad	51
92013	7	Sololá	717	San Juan la Laguna	12	San Juan la Laguna	11	Noviembre	2023-11-29T00:00:00	2024-11-08T15:00:00	6	Velocidad del viento	9.7
92014	7	Sololá	717	San Juan la Laguna	12	San Juan la Laguna	11	Noviembre	2023-11-29T00:00:00	2024-11-08T15:00:00	7	Dirección del viento	9.66
92015	7	Sololá	717	San Juan la Laguna	12	San Juan la Laguna	11	Noviembre	2023-11-29T00:00:00	2024-11-08T15:00:00	1	Precipitación	0
92016	7	Sololá	717	San Juan la Laguna	12	San Juan la Laguna	11	Noviembre	2023-11-29T00:00:00	2024-11-08T15:00:00	8	Radiación solar	546
92017	7	Sololá	717	San Juan la Laguna	12	San Juan la Laguna	11	Noviembre	2023-11-29T00:00:00	2024-11-08T16:00:00	2	Temperatura media	24.1
92018	7	Sololá	717	San Juan la Laguna	12	San Juan la Laguna	11	Noviembre	2023-11-29T00:00:00	2024-11-08T16:00:00	4	Temperatura máxima	25.2
92019	7	Sololá	717	San Juan la Laguna	12	San Juan la Laguna	11	Noviembre	2023-11-29T00:00:00	2024-11-08T16:00:00	3	Temperatura mínima	24.1
92020	7	Sololá	717	San Juan la Laguna	12	San Juan la Laguna	11	Noviembre	2023-11-29T00:00:00	2024-11-08T16:00:00	5	Humedad	52
92021	7	Sololá	717	San Juan la Laguna	12	San Juan la Laguna	11	Noviembre	2023-11-29T00:00:00	2024-11-08T16:00:00	6	Velocidad del viento	9.7
92022	7	Sololá	717	San Juan la Laguna	12	San Juan la Laguna	11	Noviembre	2023-11-29T00:00:00	2024-11-08T16:00:00	7	Dirección del viento	9.66
92023	7	Sololá	717	San Juan la Laguna	12	San Juan la Laguna	11	Noviembre	2023-11-29T00:00:00	2024-11-08T16:00:00	1	Precipitación	0
92024	7	Sololá	717	San Juan la Laguna	12	San Juan la Laguna	11	Noviembre	2023-11-29T00:00:00	2024-11-08T16:00:00	8	Radiación solar	383
92025	7	Sololá	717	San Juan la Laguna	12	San Juan la Laguna	11	Noviembre	2023-11-29T00:00:00	2024-11-08T17:00:00	2	Temperatura media	22.8
92026	7	Sololá	717	San Juan la Laguna	12	San Juan la Laguna	11	Noviembre	2023-11-29T00:00:00	2024-11-08T17:00:00	4	Temperatura máxima	24.1
92027	7	Sololá	717	San Juan la Laguna	12	San Juan la Laguna	11	Noviembre	2023-11-29T00:00:00	2024-11-08T17:00:00	3	Temperatura mínima	22.7
92028	7	Sololá	717	San Juan la Laguna	12	San Juan la Laguna	11	Noviembre	2023-11-29T00:00:00	2024-11-08T17:00:00	5	Humedad	58
92029	7	Sololá	717	San Juan la Laguna	12	San Juan la Laguna	11	Noviembre	2023-11-29T00:00:00	2024-11-08T17:00:00	6	Velocidad del viento	11.3
92030	7	Sololá	717	San Juan la Laguna	12	San Juan la Laguna	11	Noviembre	2023-11-29T00:00:00	2024-11-08T17:00:00	7	Dirección del viento	11.27
92031	7	Sololá	717	San Juan la Laguna	12	San Juan la Laguna	11	Noviembre	2023-11-29T00:00:00	2024-11-08T17:00:00	1	Precipitación	0
92032	7	Sololá	717	San Juan la Laguna	12	San Juan la Laguna	11	Noviembre	2023-11-29T00:00:00	2024-11-08T17:00:00	8	Radiación solar	131
92033	7	Sololá	717	San Juan la Laguna	12	San Juan la Laguna	11	Noviembre	2023-11-29T00:00:00	2024-11-08T18:00:00	2	Temperatura media	21.6
92034	7	Sololá	717	San Juan la Laguna	12	San Juan la Laguna	11	Noviembre	2023-11-29T00:00:00	2024-11-08T18:00:00	4	Temperatura máxima	22.8
92035	7	Sololá	717	San Juan la Laguna	12	San Juan la Laguna	11	Noviembre	2023-11-29T00:00:00	2024-11-08T18:00:00	3	Temperatura mínima	21.6
92036	7	Sololá	717	San Juan la Laguna	12	San Juan la Laguna	11	Noviembre	2023-11-29T00:00:00	2024-11-08T18:00:00	5	Humedad	57
92037	7	Sololá	717	San Juan la Laguna	12	San Juan la Laguna	11	Noviembre	2023-11-29T00:00:00	2024-11-08T18:00:00	6	Velocidad del viento	6.4
92038	7	Sololá	717	San Juan la Laguna	12	San Juan la Laguna	11	Noviembre	2023-11-29T00:00:00	2024-11-08T18:00:00	7	Dirección del viento	6.44
92039	7	Sololá	717	San Juan la Laguna	12	San Juan la Laguna	11	Noviembre	2023-11-29T00:00:00	2024-11-08T18:00:00	1	Precipitación	0
92040	7	Sololá	717	San Juan la Laguna	12	San Juan la Laguna	11	Noviembre	2023-11-29T00:00:00	2024-11-08T18:00:00	8	Radiación solar	12
92041	7	Sololá	717	San Juan la Laguna	12	San Juan la Laguna	11	Noviembre	2023-11-29T00:00:00	2024-11-08T19:00:00	2	Temperatura media	21
92042	7	Sololá	717	San Juan la Laguna	12	San Juan la Laguna	11	Noviembre	2023-11-29T00:00:00	2024-11-08T19:00:00	4	Temperatura máxima	21.6
92043	7	Sololá	717	San Juan la Laguna	12	San Juan la Laguna	11	Noviembre	2023-11-29T00:00:00	2024-11-08T19:00:00	3	Temperatura mínima	21
92044	7	Sololá	717	San Juan la Laguna	12	San Juan la Laguna	11	Noviembre	2023-11-29T00:00:00	2024-11-08T19:00:00	5	Humedad	60
92045	7	Sololá	717	San Juan la Laguna	12	San Juan la Laguna	11	Noviembre	2023-11-29T00:00:00	2024-11-08T19:00:00	6	Velocidad del viento	6.4
92046	7	Sololá	717	San Juan la Laguna	12	San Juan la Laguna	11	Noviembre	2023-11-29T00:00:00	2024-11-08T19:00:00	7	Dirección del viento	6.44
92047	7	Sololá	717	San Juan la Laguna	12	San Juan la Laguna	11	Noviembre	2023-11-29T00:00:00	2024-11-08T19:00:00	1	Precipitación	0
92048	7	Sololá	717	San Juan la Laguna	12	San Juan la Laguna	11	Noviembre	2023-11-29T00:00:00	2024-11-08T19:00:00	8	Radiación solar	0
92049	7	Sololá	717	San Juan la Laguna	12	San Juan la Laguna	11	Noviembre	2023-11-29T00:00:00	2024-11-08T20:00:00	2	Temperatura media	20.6
92050	7	Sololá	717	San Juan la Laguna	12	San Juan la Laguna	11	Noviembre	2023-11-29T00:00:00	2024-11-08T20:00:00	4	Temperatura máxima	21.1
92051	7	Sololá	717	San Juan la Laguna	12	San Juan la Laguna	11	Noviembre	2023-11-29T00:00:00	2024-11-08T20:00:00	3	Temperatura mínima	20.6
92052	7	Sololá	717	San Juan la Laguna	12	San Juan la Laguna	11	Noviembre	2023-11-29T00:00:00	2024-11-08T20:00:00	5	Humedad	64
92053	7	Sololá	717	San Juan la Laguna	12	San Juan la Laguna	11	Noviembre	2023-11-29T00:00:00	2024-11-08T20:00:00	6	Velocidad del viento	8
92054	7	Sololá	717	San Juan la Laguna	12	San Juan la Laguna	11	Noviembre	2023-11-29T00:00:00	2024-11-08T20:00:00	7	Dirección del viento	8.05
92055	7	Sololá	717	San Juan la Laguna	12	San Juan la Laguna	11	Noviembre	2023-11-29T00:00:00	2024-11-08T20:00:00	1	Precipitación	0
92056	7	Sololá	717	San Juan la Laguna	12	San Juan la Laguna	11	Noviembre	2023-11-29T00:00:00	2024-11-08T20:00:00	8	Radiación solar	0
92057	7	Sololá	717	San Juan la Laguna	12	San Juan la Laguna	11	Noviembre	2023-11-29T00:00:00	2024-11-08T21:00:00	2	Temperatura media	18.1
92058	7	Sololá	717	San Juan la Laguna	12	San Juan la Laguna	11	Noviembre	2023-11-29T00:00:00	2024-11-08T21:00:00	4	Temperatura máxima	20.6
92059	7	Sololá	717	San Juan la Laguna	12	San Juan la Laguna	11	Noviembre	2023-11-29T00:00:00	2024-11-08T21:00:00	3	Temperatura mínima	18.1
92060	7	Sololá	717	San Juan la Laguna	12	San Juan la Laguna	11	Noviembre	2023-11-29T00:00:00	2024-11-08T21:00:00	5	Humedad	72
92061	7	Sololá	717	San Juan la Laguna	12	San Juan la Laguna	11	Noviembre	2023-11-29T00:00:00	2024-11-08T21:00:00	6	Velocidad del viento	4.8
92062	7	Sololá	717	San Juan la Laguna	12	San Juan la Laguna	11	Noviembre	2023-11-29T00:00:00	2024-11-08T21:00:00	7	Dirección del viento	4.83
92063	7	Sololá	717	San Juan la Laguna	12	San Juan la Laguna	11	Noviembre	2023-11-29T00:00:00	2024-11-08T21:00:00	1	Precipitación	0
92064	7	Sololá	717	San Juan la Laguna	12	San Juan la Laguna	11	Noviembre	2023-11-29T00:00:00	2024-11-08T21:00:00	8	Radiación solar	0
92065	7	Sololá	717	San Juan la Laguna	12	San Juan la Laguna	11	Noviembre	2023-11-29T00:00:00	2024-11-08T22:00:00	2	Temperatura media	17.1
92066	7	Sololá	717	San Juan la Laguna	12	San Juan la Laguna	11	Noviembre	2023-11-29T00:00:00	2024-11-08T22:00:00	4	Temperatura máxima	18.1
92067	7	Sololá	717	San Juan la Laguna	12	San Juan la Laguna	11	Noviembre	2023-11-29T00:00:00	2024-11-08T22:00:00	3	Temperatura mínima	17.1
92068	7	Sololá	717	San Juan la Laguna	12	San Juan la Laguna	11	Noviembre	2023-11-29T00:00:00	2024-11-08T22:00:00	5	Humedad	77
92069	7	Sololá	717	San Juan la Laguna	12	San Juan la Laguna	11	Noviembre	2023-11-29T00:00:00	2024-11-08T22:00:00	6	Velocidad del viento	1.6
92070	7	Sololá	717	San Juan la Laguna	12	San Juan la Laguna	11	Noviembre	2023-11-29T00:00:00	2024-11-08T22:00:00	7	Dirección del viento	1.61
92071	7	Sololá	717	San Juan la Laguna	12	San Juan la Laguna	11	Noviembre	2023-11-29T00:00:00	2024-11-08T22:00:00	1	Precipitación	0
92072	7	Sololá	717	San Juan la Laguna	12	San Juan la Laguna	11	Noviembre	2023-11-29T00:00:00	2024-11-08T22:00:00	8	Radiación solar	0
92073	7	Sololá	717	San Juan la Laguna	12	San Juan la Laguna	11	Noviembre	2023-11-29T00:00:00	2024-11-08T23:00:00	2	Temperatura media	16.3
92074	7	Sololá	717	San Juan la Laguna	12	San Juan la Laguna	11	Noviembre	2023-11-29T00:00:00	2024-11-08T23:00:00	4	Temperatura máxima	17.1
92075	7	Sololá	717	San Juan la Laguna	12	San Juan la Laguna	11	Noviembre	2023-11-29T00:00:00	2024-11-08T23:00:00	3	Temperatura mínima	16.3
92076	7	Sololá	717	San Juan la Laguna	12	San Juan la Laguna	11	Noviembre	2023-11-29T00:00:00	2024-11-08T23:00:00	5	Humedad	79
92077	7	Sololá	717	San Juan la Laguna	12	San Juan la Laguna	11	Noviembre	2023-11-29T00:00:00	2024-11-08T23:00:00	6	Velocidad del viento	3.2
92078	7	Sololá	717	San Juan la Laguna	12	San Juan la Laguna	11	Noviembre	2023-11-29T00:00:00	2024-11-08T23:00:00	7	Dirección del viento	3.22
92079	7	Sololá	717	San Juan la Laguna	12	San Juan la Laguna	11	Noviembre	2023-11-29T00:00:00	2024-11-08T23:00:00	1	Precipitación	0
92080	7	Sololá	717	San Juan la Laguna	12	San Juan la Laguna	11	Noviembre	2023-11-29T00:00:00	2024-11-08T23:00:00	8	Radiación solar	0
92081	7	Sololá	717	San Juan la Laguna	12	San Juan la Laguna	11	Noviembre	2023-11-30T00:00:00	2024-11-08T00:00:00	2	Temperatura media	15.8
92082	7	Sololá	717	San Juan la Laguna	12	San Juan la Laguna	11	Noviembre	2023-11-30T00:00:00	2024-11-08T00:00:00	4	Temperatura máxima	16.3
92083	7	Sololá	717	San Juan la Laguna	12	San Juan la Laguna	11	Noviembre	2023-11-30T00:00:00	2024-11-08T00:00:00	3	Temperatura mínima	15.7
92084	7	Sololá	717	San Juan la Laguna	12	San Juan la Laguna	11	Noviembre	2023-11-30T00:00:00	2024-11-08T00:00:00	5	Humedad	80
92085	7	Sololá	717	San Juan la Laguna	12	San Juan la Laguna	11	Noviembre	2023-11-30T00:00:00	2024-11-08T00:00:00	6	Velocidad del viento	3.2
92086	7	Sololá	717	San Juan la Laguna	12	San Juan la Laguna	11	Noviembre	2023-11-30T00:00:00	2024-11-08T00:00:00	7	Dirección del viento	3.22
92087	7	Sololá	717	San Juan la Laguna	12	San Juan la Laguna	11	Noviembre	2023-11-30T00:00:00	2024-11-08T00:00:00	1	Precipitación	0
92088	7	Sololá	717	San Juan la Laguna	12	San Juan la Laguna	11	Noviembre	2023-11-30T00:00:00	2024-11-08T00:00:00	8	Radiación solar	0
92089	7	Sololá	717	San Juan la Laguna	12	San Juan la Laguna	11	Noviembre	2023-11-30T00:00:00	2024-11-08T01:00:00	2	Temperatura media	15.2
92090	7	Sololá	717	San Juan la Laguna	12	San Juan la Laguna	11	Noviembre	2023-11-30T00:00:00	2024-11-08T01:00:00	4	Temperatura máxima	16.2
92091	7	Sololá	717	San Juan la Laguna	12	San Juan la Laguna	11	Noviembre	2023-11-30T00:00:00	2024-11-08T01:00:00	3	Temperatura mínima	15.2
92092	7	Sololá	717	San Juan la Laguna	12	San Juan la Laguna	11	Noviembre	2023-11-30T00:00:00	2024-11-08T01:00:00	5	Humedad	81
92093	7	Sololá	717	San Juan la Laguna	12	San Juan la Laguna	11	Noviembre	2023-11-30T00:00:00	2024-11-08T01:00:00	6	Velocidad del viento	3.2
92094	7	Sololá	717	San Juan la Laguna	12	San Juan la Laguna	11	Noviembre	2023-11-30T00:00:00	2024-11-08T01:00:00	7	Dirección del viento	3.22
92095	7	Sololá	717	San Juan la Laguna	12	San Juan la Laguna	11	Noviembre	2023-11-30T00:00:00	2024-11-08T01:00:00	1	Precipitación	0
92096	7	Sololá	717	San Juan la Laguna	12	San Juan la Laguna	11	Noviembre	2023-11-30T00:00:00	2024-11-08T01:00:00	8	Radiación solar	0
92097	7	Sololá	717	San Juan la Laguna	12	San Juan la Laguna	11	Noviembre	2023-11-30T00:00:00	2024-11-08T02:00:00	2	Temperatura media	15.2
92098	7	Sololá	717	San Juan la Laguna	12	San Juan la Laguna	11	Noviembre	2023-11-30T00:00:00	2024-11-08T02:00:00	4	Temperatura máxima	15.5
92099	7	Sololá	717	San Juan la Laguna	12	San Juan la Laguna	11	Noviembre	2023-11-30T00:00:00	2024-11-08T02:00:00	3	Temperatura mínima	15.1
92100	7	Sololá	717	San Juan la Laguna	12	San Juan la Laguna	11	Noviembre	2023-11-30T00:00:00	2024-11-08T02:00:00	5	Humedad	80
92101	7	Sololá	717	San Juan la Laguna	12	San Juan la Laguna	11	Noviembre	2023-11-30T00:00:00	2024-11-08T02:00:00	6	Velocidad del viento	4.8
92102	7	Sololá	717	San Juan la Laguna	12	San Juan la Laguna	11	Noviembre	2023-11-30T00:00:00	2024-11-08T02:00:00	7	Dirección del viento	4.83
92103	7	Sololá	717	San Juan la Laguna	12	San Juan la Laguna	11	Noviembre	2023-11-30T00:00:00	2024-11-08T02:00:00	1	Precipitación	0
92104	7	Sololá	717	San Juan la Laguna	12	San Juan la Laguna	11	Noviembre	2023-11-30T00:00:00	2024-11-08T02:00:00	8	Radiación solar	0
92105	7	Sololá	717	San Juan la Laguna	12	San Juan la Laguna	11	Noviembre	2023-11-30T00:00:00	2024-11-08T03:00:00	2	Temperatura media	14.7
92106	7	Sololá	717	San Juan la Laguna	12	San Juan la Laguna	11	Noviembre	2023-11-30T00:00:00	2024-11-08T03:00:00	4	Temperatura máxima	15.2
92107	7	Sololá	717	San Juan la Laguna	12	San Juan la Laguna	11	Noviembre	2023-11-30T00:00:00	2024-11-08T03:00:00	3	Temperatura mínima	14.6
92108	7	Sololá	717	San Juan la Laguna	12	San Juan la Laguna	11	Noviembre	2023-11-30T00:00:00	2024-11-08T03:00:00	5	Humedad	82
92109	7	Sololá	717	San Juan la Laguna	12	San Juan la Laguna	11	Noviembre	2023-11-30T00:00:00	2024-11-08T03:00:00	6	Velocidad del viento	4.8
92110	7	Sololá	717	San Juan la Laguna	12	San Juan la Laguna	11	Noviembre	2023-11-30T00:00:00	2024-11-08T03:00:00	7	Dirección del viento	4.83
92111	7	Sololá	717	San Juan la Laguna	12	San Juan la Laguna	11	Noviembre	2023-11-30T00:00:00	2024-11-08T03:00:00	1	Precipitación	0
92112	7	Sololá	717	San Juan la Laguna	12	San Juan la Laguna	11	Noviembre	2023-11-30T00:00:00	2024-11-08T03:00:00	8	Radiación solar	0
92113	7	Sololá	717	San Juan la Laguna	12	San Juan la Laguna	11	Noviembre	2023-11-30T00:00:00	2024-11-08T04:00:00	2	Temperatura media	14.4
92114	7	Sololá	717	San Juan la Laguna	12	San Juan la Laguna	11	Noviembre	2023-11-30T00:00:00	2024-11-08T04:00:00	4	Temperatura máxima	14.7
92115	7	Sololá	717	San Juan la Laguna	12	San Juan la Laguna	11	Noviembre	2023-11-30T00:00:00	2024-11-08T04:00:00	3	Temperatura mínima	14.2
92116	7	Sololá	717	San Juan la Laguna	12	San Juan la Laguna	11	Noviembre	2023-11-30T00:00:00	2024-11-08T04:00:00	5	Humedad	83
92117	7	Sololá	717	San Juan la Laguna	12	San Juan la Laguna	11	Noviembre	2023-11-30T00:00:00	2024-11-08T04:00:00	6	Velocidad del viento	4.8
92118	7	Sololá	717	San Juan la Laguna	12	San Juan la Laguna	11	Noviembre	2023-11-30T00:00:00	2024-11-08T04:00:00	7	Dirección del viento	4.83
92119	7	Sololá	717	San Juan la Laguna	12	San Juan la Laguna	11	Noviembre	2023-11-30T00:00:00	2024-11-08T04:00:00	1	Precipitación	0
92120	7	Sololá	717	San Juan la Laguna	12	San Juan la Laguna	11	Noviembre	2023-11-30T00:00:00	2024-11-08T04:00:00	8	Radiación solar	0
92121	7	Sololá	717	San Juan la Laguna	12	San Juan la Laguna	11	Noviembre	2023-11-30T00:00:00	2024-11-08T05:00:00	2	Temperatura media	14.4
92122	7	Sololá	717	San Juan la Laguna	12	San Juan la Laguna	11	Noviembre	2023-11-30T00:00:00	2024-11-08T05:00:00	4	Temperatura máxima	14.5
92123	7	Sololá	717	San Juan la Laguna	12	San Juan la Laguna	11	Noviembre	2023-11-30T00:00:00	2024-11-08T05:00:00	3	Temperatura mínima	14.2
92124	7	Sololá	717	San Juan la Laguna	12	San Juan la Laguna	11	Noviembre	2023-11-30T00:00:00	2024-11-08T05:00:00	5	Humedad	83
92125	7	Sololá	717	San Juan la Laguna	12	San Juan la Laguna	11	Noviembre	2023-11-30T00:00:00	2024-11-08T05:00:00	6	Velocidad del viento	4.8
92126	7	Sololá	717	San Juan la Laguna	12	San Juan la Laguna	11	Noviembre	2023-11-30T00:00:00	2024-11-08T05:00:00	7	Dirección del viento	4.83
92127	7	Sololá	717	San Juan la Laguna	12	San Juan la Laguna	11	Noviembre	2023-11-30T00:00:00	2024-11-08T05:00:00	1	Precipitación	0
92128	7	Sololá	717	San Juan la Laguna	12	San Juan la Laguna	11	Noviembre	2023-11-30T00:00:00	2024-11-08T05:00:00	8	Radiación solar	0
92129	7	Sololá	717	San Juan la Laguna	12	San Juan la Laguna	11	Noviembre	2023-11-30T00:00:00	2024-11-08T06:00:00	2	Temperatura media	13.7
92130	7	Sololá	717	San Juan la Laguna	12	San Juan la Laguna	11	Noviembre	2023-11-30T00:00:00	2024-11-08T06:00:00	4	Temperatura máxima	14.4
92131	7	Sololá	717	San Juan la Laguna	12	San Juan la Laguna	11	Noviembre	2023-11-30T00:00:00	2024-11-08T06:00:00	3	Temperatura mínima	13.7
92132	7	Sololá	717	San Juan la Laguna	12	San Juan la Laguna	11	Noviembre	2023-11-30T00:00:00	2024-11-08T06:00:00	5	Humedad	85
92133	7	Sololá	717	San Juan la Laguna	12	San Juan la Laguna	11	Noviembre	2023-11-30T00:00:00	2024-11-08T06:00:00	6	Velocidad del viento	3.2
92134	7	Sololá	717	San Juan la Laguna	12	San Juan la Laguna	11	Noviembre	2023-11-30T00:00:00	2024-11-08T06:00:00	7	Dirección del viento	3.22
92135	7	Sololá	717	San Juan la Laguna	12	San Juan la Laguna	11	Noviembre	2023-11-30T00:00:00	2024-11-08T06:00:00	1	Precipitación	0
92136	7	Sololá	717	San Juan la Laguna	12	San Juan la Laguna	11	Noviembre	2023-11-30T00:00:00	2024-11-08T06:00:00	8	Radiación solar	0
92137	7	Sololá	717	San Juan la Laguna	12	San Juan la Laguna	11	Noviembre	2023-11-30T00:00:00	2024-11-08T07:00:00	2	Temperatura media	14.4
92138	7	Sololá	717	San Juan la Laguna	12	San Juan la Laguna	11	Noviembre	2023-11-30T00:00:00	2024-11-08T07:00:00	4	Temperatura máxima	14.4
92139	7	Sololá	717	San Juan la Laguna	12	San Juan la Laguna	11	Noviembre	2023-11-30T00:00:00	2024-11-08T07:00:00	3	Temperatura mínima	13.6
92140	7	Sololá	717	San Juan la Laguna	12	San Juan la Laguna	11	Noviembre	2023-11-30T00:00:00	2024-11-08T07:00:00	5	Humedad	85
92141	7	Sololá	717	San Juan la Laguna	12	San Juan la Laguna	11	Noviembre	2023-11-30T00:00:00	2024-11-08T07:00:00	6	Velocidad del viento	4.8
92142	7	Sololá	717	San Juan la Laguna	12	San Juan la Laguna	11	Noviembre	2023-11-30T00:00:00	2024-11-08T07:00:00	7	Dirección del viento	4.83
92143	7	Sololá	717	San Juan la Laguna	12	San Juan la Laguna	11	Noviembre	2023-11-30T00:00:00	2024-11-08T07:00:00	1	Precipitación	0
92144	7	Sololá	717	San Juan la Laguna	12	San Juan la Laguna	11	Noviembre	2023-11-30T00:00:00	2024-11-08T07:00:00	8	Radiación solar	19
92145	7	Sololá	717	San Juan la Laguna	12	San Juan la Laguna	11	Noviembre	2023-11-30T00:00:00	2024-11-08T08:00:00	2	Temperatura media	18.2
92146	7	Sololá	717	San Juan la Laguna	12	San Juan la Laguna	11	Noviembre	2023-11-30T00:00:00	2024-11-08T08:00:00	4	Temperatura máxima	18.2
92147	7	Sololá	717	San Juan la Laguna	12	San Juan la Laguna	11	Noviembre	2023-11-30T00:00:00	2024-11-08T08:00:00	3	Temperatura mínima	14.4
92148	7	Sololá	717	San Juan la Laguna	12	San Juan la Laguna	11	Noviembre	2023-11-30T00:00:00	2024-11-08T08:00:00	5	Humedad	77
92149	7	Sololá	717	San Juan la Laguna	12	San Juan la Laguna	11	Noviembre	2023-11-30T00:00:00	2024-11-08T08:00:00	6	Velocidad del viento	3.2
92150	7	Sololá	717	San Juan la Laguna	12	San Juan la Laguna	11	Noviembre	2023-11-30T00:00:00	2024-11-08T08:00:00	7	Dirección del viento	3.22
92151	7	Sololá	717	San Juan la Laguna	12	San Juan la Laguna	11	Noviembre	2023-11-30T00:00:00	2024-11-08T08:00:00	1	Precipitación	0
92152	7	Sololá	717	San Juan la Laguna	12	San Juan la Laguna	11	Noviembre	2023-11-30T00:00:00	2024-11-08T08:00:00	8	Radiación solar	184
92153	7	Sololá	717	San Juan la Laguna	12	San Juan la Laguna	11	Noviembre	2023-11-30T00:00:00	2024-11-08T09:00:00	2	Temperatura media	20.7
92154	7	Sololá	717	San Juan la Laguna	12	San Juan la Laguna	11	Noviembre	2023-11-30T00:00:00	2024-11-08T09:00:00	4	Temperatura máxima	20.7
92155	7	Sololá	717	San Juan la Laguna	12	San Juan la Laguna	11	Noviembre	2023-11-30T00:00:00	2024-11-08T09:00:00	3	Temperatura mínima	18.3
92156	7	Sololá	717	San Juan la Laguna	12	San Juan la Laguna	11	Noviembre	2023-11-30T00:00:00	2024-11-08T09:00:00	5	Humedad	67
92157	7	Sololá	717	San Juan la Laguna	12	San Juan la Laguna	11	Noviembre	2023-11-30T00:00:00	2024-11-08T09:00:00	6	Velocidad del viento	3.2
92158	7	Sololá	717	San Juan la Laguna	12	San Juan la Laguna	11	Noviembre	2023-11-30T00:00:00	2024-11-08T09:00:00	7	Dirección del viento	3.22
92159	7	Sololá	717	San Juan la Laguna	12	San Juan la Laguna	11	Noviembre	2023-11-30T00:00:00	2024-11-08T09:00:00	1	Precipitación	0
92160	7	Sololá	717	San Juan la Laguna	12	San Juan la Laguna	11	Noviembre	2023-11-30T00:00:00	2024-11-08T09:00:00	8	Radiación solar	401
92161	7	Sololá	717	San Juan la Laguna	12	San Juan la Laguna	11	Noviembre	2023-11-30T00:00:00	2024-11-08T10:00:00	2	Temperatura media	21.1
92162	7	Sololá	717	San Juan la Laguna	12	San Juan la Laguna	11	Noviembre	2023-11-30T00:00:00	2024-11-08T10:00:00	4	Temperatura máxima	21.4
92163	7	Sololá	717	San Juan la Laguna	12	San Juan la Laguna	11	Noviembre	2023-11-30T00:00:00	2024-11-08T10:00:00	3	Temperatura mínima	20.6
92164	7	Sololá	717	San Juan la Laguna	12	San Juan la Laguna	11	Noviembre	2023-11-30T00:00:00	2024-11-08T10:00:00	5	Humedad	64
92165	7	Sololá	717	San Juan la Laguna	12	San Juan la Laguna	11	Noviembre	2023-11-30T00:00:00	2024-11-08T10:00:00	6	Velocidad del viento	6.4
92166	7	Sololá	717	San Juan la Laguna	12	San Juan la Laguna	11	Noviembre	2023-11-30T00:00:00	2024-11-08T10:00:00	7	Dirección del viento	6.44
92167	7	Sololá	717	San Juan la Laguna	12	San Juan la Laguna	11	Noviembre	2023-11-30T00:00:00	2024-11-08T10:00:00	1	Precipitación	0
92168	7	Sololá	717	San Juan la Laguna	12	San Juan la Laguna	11	Noviembre	2023-11-30T00:00:00	2024-11-08T10:00:00	8	Radiación solar	459
92169	7	Sololá	717	San Juan la Laguna	12	San Juan la Laguna	11	Noviembre	2023-11-30T00:00:00	2024-11-08T11:00:00	2	Temperatura media	23
92170	7	Sololá	717	San Juan la Laguna	12	San Juan la Laguna	11	Noviembre	2023-11-30T00:00:00	2024-11-08T11:00:00	4	Temperatura máxima	23.1
92171	7	Sololá	717	San Juan la Laguna	12	San Juan la Laguna	11	Noviembre	2023-11-30T00:00:00	2024-11-08T11:00:00	3	Temperatura mínima	21.1
92172	7	Sololá	717	San Juan la Laguna	12	San Juan la Laguna	11	Noviembre	2023-11-30T00:00:00	2024-11-08T11:00:00	5	Humedad	60
92173	7	Sololá	717	San Juan la Laguna	12	San Juan la Laguna	11	Noviembre	2023-11-30T00:00:00	2024-11-08T11:00:00	6	Velocidad del viento	6.4
92174	7	Sololá	717	San Juan la Laguna	12	San Juan la Laguna	11	Noviembre	2023-11-30T00:00:00	2024-11-08T11:00:00	7	Dirección del viento	6.44
92175	7	Sololá	717	San Juan la Laguna	12	San Juan la Laguna	11	Noviembre	2023-11-30T00:00:00	2024-11-08T11:00:00	1	Precipitación	0
92176	7	Sololá	717	San Juan la Laguna	12	San Juan la Laguna	11	Noviembre	2023-11-30T00:00:00	2024-11-08T11:00:00	8	Radiación solar	588
92177	7	Sololá	717	San Juan la Laguna	12	San Juan la Laguna	11	Noviembre	2023-11-30T00:00:00	2024-11-08T12:00:00	2	Temperatura media	23.7
92178	7	Sololá	717	San Juan la Laguna	12	San Juan la Laguna	11	Noviembre	2023-11-30T00:00:00	2024-11-08T12:00:00	4	Temperatura máxima	23.8
92179	7	Sololá	717	San Juan la Laguna	12	San Juan la Laguna	11	Noviembre	2023-11-30T00:00:00	2024-11-08T12:00:00	3	Temperatura mínima	22.9
92180	7	Sololá	717	San Juan la Laguna	12	San Juan la Laguna	11	Noviembre	2023-11-30T00:00:00	2024-11-08T12:00:00	5	Humedad	59
92181	7	Sololá	717	San Juan la Laguna	12	San Juan la Laguna	11	Noviembre	2023-11-30T00:00:00	2024-11-08T12:00:00	6	Velocidad del viento	8
92182	7	Sololá	717	San Juan la Laguna	12	San Juan la Laguna	11	Noviembre	2023-11-30T00:00:00	2024-11-08T12:00:00	7	Dirección del viento	8.05
92183	7	Sololá	717	San Juan la Laguna	12	San Juan la Laguna	11	Noviembre	2023-11-30T00:00:00	2024-11-08T12:00:00	1	Precipitación	0
92184	7	Sololá	717	San Juan la Laguna	12	San Juan la Laguna	11	Noviembre	2023-11-30T00:00:00	2024-11-08T12:00:00	8	Radiación solar	732
92185	7	Sololá	717	San Juan la Laguna	12	San Juan la Laguna	11	Noviembre	2023-11-30T00:00:00	2024-11-08T13:00:00	2	Temperatura media	25.4
92186	7	Sololá	717	San Juan la Laguna	12	San Juan la Laguna	11	Noviembre	2023-11-30T00:00:00	2024-11-08T13:00:00	4	Temperatura máxima	25.4
92187	7	Sololá	717	San Juan la Laguna	12	San Juan la Laguna	11	Noviembre	2023-11-30T00:00:00	2024-11-08T13:00:00	3	Temperatura mínima	23.7
92188	7	Sololá	717	San Juan la Laguna	12	San Juan la Laguna	11	Noviembre	2023-11-30T00:00:00	2024-11-08T13:00:00	5	Humedad	53
92189	7	Sololá	717	San Juan la Laguna	12	San Juan la Laguna	11	Noviembre	2023-11-30T00:00:00	2024-11-08T13:00:00	6	Velocidad del viento	4.8
92190	7	Sololá	717	San Juan la Laguna	12	San Juan la Laguna	11	Noviembre	2023-11-30T00:00:00	2024-11-08T13:00:00	7	Dirección del viento	4.83
92191	7	Sololá	717	San Juan la Laguna	12	San Juan la Laguna	11	Noviembre	2023-11-30T00:00:00	2024-11-08T13:00:00	1	Precipitación	0
92192	7	Sololá	717	San Juan la Laguna	12	San Juan la Laguna	11	Noviembre	2023-11-30T00:00:00	2024-11-08T13:00:00	8	Radiación solar	754
92193	7	Sololá	717	San Juan la Laguna	12	San Juan la Laguna	11	Noviembre	2023-11-30T00:00:00	2024-11-08T14:00:00	2	Temperatura media	25.2
92194	7	Sololá	717	San Juan la Laguna	12	San Juan la Laguna	11	Noviembre	2023-11-30T00:00:00	2024-11-08T14:00:00	4	Temperatura máxima	25.4
92195	7	Sololá	717	San Juan la Laguna	12	San Juan la Laguna	11	Noviembre	2023-11-30T00:00:00	2024-11-08T14:00:00	3	Temperatura mínima	24.3
92196	7	Sololá	717	San Juan la Laguna	12	San Juan la Laguna	11	Noviembre	2023-11-30T00:00:00	2024-11-08T14:00:00	5	Humedad	60
92197	7	Sololá	717	San Juan la Laguna	12	San Juan la Laguna	11	Noviembre	2023-11-30T00:00:00	2024-11-08T14:00:00	6	Velocidad del viento	8
92198	7	Sololá	717	San Juan la Laguna	12	San Juan la Laguna	11	Noviembre	2023-11-30T00:00:00	2024-11-08T14:00:00	7	Dirección del viento	8.05
92199	7	Sololá	717	San Juan la Laguna	12	San Juan la Laguna	11	Noviembre	2023-11-30T00:00:00	2024-11-08T14:00:00	1	Precipitación	0
92200	7	Sololá	717	San Juan la Laguna	12	San Juan la Laguna	11	Noviembre	2023-11-30T00:00:00	2024-11-08T14:00:00	8	Radiación solar	700
92201	7	Sololá	717	San Juan la Laguna	12	San Juan la Laguna	11	Noviembre	2023-11-30T00:00:00	2024-11-08T15:00:00	2	Temperatura media	23.6
92202	7	Sololá	717	San Juan la Laguna	12	San Juan la Laguna	11	Noviembre	2023-11-30T00:00:00	2024-11-08T15:00:00	4	Temperatura máxima	25.2
92203	7	Sololá	717	San Juan la Laguna	12	San Juan la Laguna	11	Noviembre	2023-11-30T00:00:00	2024-11-08T15:00:00	3	Temperatura mínima	23.6
92204	7	Sololá	717	San Juan la Laguna	12	San Juan la Laguna	11	Noviembre	2023-11-30T00:00:00	2024-11-08T15:00:00	5	Humedad	68
92205	7	Sololá	717	San Juan la Laguna	12	San Juan la Laguna	11	Noviembre	2023-11-30T00:00:00	2024-11-08T15:00:00	6	Velocidad del viento	6.4
92206	7	Sololá	717	San Juan la Laguna	12	San Juan la Laguna	11	Noviembre	2023-11-30T00:00:00	2024-11-08T15:00:00	7	Dirección del viento	6.44
92207	7	Sololá	717	San Juan la Laguna	12	San Juan la Laguna	11	Noviembre	2023-11-30T00:00:00	2024-11-08T15:00:00	1	Precipitación	0
92208	7	Sololá	717	San Juan la Laguna	12	San Juan la Laguna	11	Noviembre	2023-11-30T00:00:00	2024-11-08T15:00:00	8	Radiación solar	531
92209	7	Sololá	717	San Juan la Laguna	12	San Juan la Laguna	11	Noviembre	2023-11-30T00:00:00	2024-11-08T16:00:00	2	Temperatura media	22
92210	7	Sololá	717	San Juan la Laguna	12	San Juan la Laguna	11	Noviembre	2023-11-30T00:00:00	2024-11-08T16:00:00	4	Temperatura máxima	23.7
92211	7	Sololá	717	San Juan la Laguna	12	San Juan la Laguna	11	Noviembre	2023-11-30T00:00:00	2024-11-08T16:00:00	3	Temperatura mínima	22
92212	7	Sololá	717	San Juan la Laguna	12	San Juan la Laguna	11	Noviembre	2023-11-30T00:00:00	2024-11-08T16:00:00	5	Humedad	75
92213	7	Sololá	717	San Juan la Laguna	12	San Juan la Laguna	11	Noviembre	2023-11-30T00:00:00	2024-11-08T16:00:00	6	Velocidad del viento	9.7
92214	7	Sololá	717	San Juan la Laguna	12	San Juan la Laguna	11	Noviembre	2023-11-30T00:00:00	2024-11-08T16:00:00	7	Dirección del viento	9.66
92215	7	Sololá	717	San Juan la Laguna	12	San Juan la Laguna	11	Noviembre	2023-11-30T00:00:00	2024-11-08T16:00:00	1	Precipitación	0
92216	7	Sololá	717	San Juan la Laguna	12	San Juan la Laguna	11	Noviembre	2023-11-30T00:00:00	2024-11-08T16:00:00	8	Radiación solar	394
92217	7	Sololá	717	San Juan la Laguna	12	San Juan la Laguna	11	Noviembre	2023-11-30T00:00:00	2024-11-08T17:00:00	2	Temperatura media	20.2
92218	7	Sololá	717	San Juan la Laguna	12	San Juan la Laguna	11	Noviembre	2023-11-30T00:00:00	2024-11-08T17:00:00	4	Temperatura máxima	22
92219	7	Sololá	717	San Juan la Laguna	12	San Juan la Laguna	11	Noviembre	2023-11-30T00:00:00	2024-11-08T17:00:00	3	Temperatura mínima	20.2
92220	7	Sololá	717	San Juan la Laguna	12	San Juan la Laguna	11	Noviembre	2023-11-30T00:00:00	2024-11-08T17:00:00	5	Humedad	80
92221	7	Sololá	717	San Juan la Laguna	12	San Juan la Laguna	11	Noviembre	2023-11-30T00:00:00	2024-11-08T17:00:00	6	Velocidad del viento	8
92222	7	Sololá	717	San Juan la Laguna	12	San Juan la Laguna	11	Noviembre	2023-11-30T00:00:00	2024-11-08T17:00:00	7	Dirección del viento	8.05
92223	7	Sololá	717	San Juan la Laguna	12	San Juan la Laguna	11	Noviembre	2023-11-30T00:00:00	2024-11-08T17:00:00	1	Precipitación	0
92224	7	Sololá	717	San Juan la Laguna	12	San Juan la Laguna	11	Noviembre	2023-11-30T00:00:00	2024-11-08T17:00:00	8	Radiación solar	84
92225	7	Sololá	717	San Juan la Laguna	12	San Juan la Laguna	11	Noviembre	2023-11-30T00:00:00	2024-11-08T18:00:00	2	Temperatura media	19.8
92226	7	Sololá	717	San Juan la Laguna	12	San Juan la Laguna	11	Noviembre	2023-11-30T00:00:00	2024-11-08T18:00:00	4	Temperatura máxima	20.2
92227	7	Sololá	717	San Juan la Laguna	12	San Juan la Laguna	11	Noviembre	2023-11-30T00:00:00	2024-11-08T18:00:00	3	Temperatura mínima	19.8
92228	7	Sololá	717	San Juan la Laguna	12	San Juan la Laguna	11	Noviembre	2023-11-30T00:00:00	2024-11-08T18:00:00	5	Humedad	80
92229	7	Sololá	717	San Juan la Laguna	12	San Juan la Laguna	11	Noviembre	2023-11-30T00:00:00	2024-11-08T18:00:00	6	Velocidad del viento	6.4
92230	7	Sololá	717	San Juan la Laguna	12	San Juan la Laguna	11	Noviembre	2023-11-30T00:00:00	2024-11-08T18:00:00	7	Dirección del viento	6.44
92231	7	Sololá	717	San Juan la Laguna	12	San Juan la Laguna	11	Noviembre	2023-11-30T00:00:00	2024-11-08T18:00:00	1	Precipitación	0
92232	7	Sololá	717	San Juan la Laguna	12	San Juan la Laguna	11	Noviembre	2023-11-30T00:00:00	2024-11-08T18:00:00	8	Radiación solar	12
92233	7	Sololá	717	San Juan la Laguna	12	San Juan la Laguna	11	Noviembre	2023-11-30T00:00:00	2024-11-08T19:00:00	2	Temperatura media	18.9
92234	7	Sololá	717	San Juan la Laguna	12	San Juan la Laguna	11	Noviembre	2023-11-30T00:00:00	2024-11-08T19:00:00	4	Temperatura máxima	19.8
92235	7	Sololá	717	San Juan la Laguna	12	San Juan la Laguna	11	Noviembre	2023-11-30T00:00:00	2024-11-08T19:00:00	3	Temperatura mínima	18.7
92236	7	Sololá	717	San Juan la Laguna	12	San Juan la Laguna	11	Noviembre	2023-11-30T00:00:00	2024-11-08T19:00:00	5	Humedad	81
92237	7	Sololá	717	San Juan la Laguna	12	San Juan la Laguna	11	Noviembre	2023-11-30T00:00:00	2024-11-08T19:00:00	6	Velocidad del viento	4.8
92238	7	Sololá	717	San Juan la Laguna	12	San Juan la Laguna	11	Noviembre	2023-11-30T00:00:00	2024-11-08T19:00:00	7	Dirección del viento	4.83
92239	7	Sololá	717	San Juan la Laguna	12	San Juan la Laguna	11	Noviembre	2023-11-30T00:00:00	2024-11-08T19:00:00	1	Precipitación	0
92240	7	Sololá	717	San Juan la Laguna	12	San Juan la Laguna	11	Noviembre	2023-11-30T00:00:00	2024-11-08T19:00:00	8	Radiación solar	0
92241	7	Sololá	717	San Juan la Laguna	12	San Juan la Laguna	11	Noviembre	2023-11-30T00:00:00	2024-11-08T20:00:00	2	Temperatura media	18.7
92242	7	Sololá	717	San Juan la Laguna	12	San Juan la Laguna	11	Noviembre	2023-11-30T00:00:00	2024-11-08T20:00:00	4	Temperatura máxima	19.2
92243	7	Sololá	717	San Juan la Laguna	12	San Juan la Laguna	11	Noviembre	2023-11-30T00:00:00	2024-11-08T20:00:00	3	Temperatura mínima	18.7
92244	7	Sololá	717	San Juan la Laguna	12	San Juan la Laguna	11	Noviembre	2023-11-30T00:00:00	2024-11-08T20:00:00	5	Humedad	83
92245	7	Sololá	717	San Juan la Laguna	12	San Juan la Laguna	11	Noviembre	2023-11-30T00:00:00	2024-11-08T20:00:00	6	Velocidad del viento	3.2
92246	7	Sololá	717	San Juan la Laguna	12	San Juan la Laguna	11	Noviembre	2023-11-30T00:00:00	2024-11-08T20:00:00	7	Dirección del viento	3.22
92247	7	Sololá	717	San Juan la Laguna	12	San Juan la Laguna	11	Noviembre	2023-11-30T00:00:00	2024-11-08T20:00:00	1	Precipitación	0
92248	7	Sololá	717	San Juan la Laguna	12	San Juan la Laguna	11	Noviembre	2023-11-30T00:00:00	2024-11-08T20:00:00	8	Radiación solar	0
92249	7	Sololá	717	San Juan la Laguna	12	San Juan la Laguna	11	Noviembre	2023-11-30T00:00:00	2024-11-08T21:00:00	2	Temperatura media	18.5
92250	7	Sololá	717	San Juan la Laguna	12	San Juan la Laguna	11	Noviembre	2023-11-30T00:00:00	2024-11-08T21:00:00	4	Temperatura máxima	18.7
92251	7	Sololá	717	San Juan la Laguna	12	San Juan la Laguna	11	Noviembre	2023-11-30T00:00:00	2024-11-08T21:00:00	3	Temperatura mínima	18.4
92252	7	Sololá	717	San Juan la Laguna	12	San Juan la Laguna	11	Noviembre	2023-11-30T00:00:00	2024-11-08T21:00:00	5	Humedad	84
92253	7	Sololá	717	San Juan la Laguna	12	San Juan la Laguna	11	Noviembre	2023-11-30T00:00:00	2024-11-08T21:00:00	6	Velocidad del viento	3.2
92254	7	Sololá	717	San Juan la Laguna	12	San Juan la Laguna	11	Noviembre	2023-11-30T00:00:00	2024-11-08T21:00:00	7	Dirección del viento	3.22
92255	7	Sololá	717	San Juan la Laguna	12	San Juan la Laguna	11	Noviembre	2023-11-30T00:00:00	2024-11-08T21:00:00	1	Precipitación	0
92256	7	Sololá	717	San Juan la Laguna	12	San Juan la Laguna	11	Noviembre	2023-11-30T00:00:00	2024-11-08T21:00:00	8	Radiación solar	0
92257	7	Sololá	717	San Juan la Laguna	12	San Juan la Laguna	11	Noviembre	2023-11-30T00:00:00	2024-11-08T22:00:00	2	Temperatura media	17.9
92258	7	Sololá	717	San Juan la Laguna	12	San Juan la Laguna	11	Noviembre	2023-11-30T00:00:00	2024-11-08T22:00:00	4	Temperatura máxima	18.6
92259	7	Sololá	717	San Juan la Laguna	12	San Juan la Laguna	11	Noviembre	2023-11-30T00:00:00	2024-11-08T22:00:00	3	Temperatura mínima	17.9
92260	7	Sololá	717	San Juan la Laguna	12	San Juan la Laguna	11	Noviembre	2023-11-30T00:00:00	2024-11-08T22:00:00	5	Humedad	85
92261	7	Sololá	717	San Juan la Laguna	12	San Juan la Laguna	11	Noviembre	2023-11-30T00:00:00	2024-11-08T22:00:00	6	Velocidad del viento	3.2
92262	7	Sololá	717	San Juan la Laguna	12	San Juan la Laguna	11	Noviembre	2023-11-30T00:00:00	2024-11-08T22:00:00	7	Dirección del viento	3.22
92263	7	Sololá	717	San Juan la Laguna	12	San Juan la Laguna	11	Noviembre	2023-11-30T00:00:00	2024-11-08T22:00:00	1	Precipitación	0
92264	7	Sololá	717	San Juan la Laguna	12	San Juan la Laguna	11	Noviembre	2023-11-30T00:00:00	2024-11-08T22:00:00	8	Radiación solar	0
92265	7	Sololá	717	San Juan la Laguna	12	San Juan la Laguna	11	Noviembre	2023-11-30T00:00:00	2024-11-08T23:00:00	2	Temperatura media	17.3
92266	7	Sololá	717	San Juan la Laguna	12	San Juan la Laguna	11	Noviembre	2023-11-30T00:00:00	2024-11-08T23:00:00	4	Temperatura máxima	17.9
92267	7	Sololá	717	San Juan la Laguna	12	San Juan la Laguna	11	Noviembre	2023-11-30T00:00:00	2024-11-08T23:00:00	3	Temperatura mínima	17.3
92268	7	Sololá	717	San Juan la Laguna	12	San Juan la Laguna	11	Noviembre	2023-11-30T00:00:00	2024-11-08T23:00:00	5	Humedad	83
92269	7	Sololá	717	San Juan la Laguna	12	San Juan la Laguna	11	Noviembre	2023-11-30T00:00:00	2024-11-08T23:00:00	6	Velocidad del viento	4.8
92270	7	Sololá	717	San Juan la Laguna	12	San Juan la Laguna	11	Noviembre	2023-11-30T00:00:00	2024-11-08T23:00:00	7	Dirección del viento	4.83
92271	7	Sololá	717	San Juan la Laguna	12	San Juan la Laguna	11	Noviembre	2023-11-30T00:00:00	2024-11-08T23:00:00	1	Precipitación	0
92272	7	Sololá	717	San Juan la Laguna	12	San Juan la Laguna	11	Noviembre	2023-11-30T00:00:00	2024-11-08T23:00:00	8	Radiación solar	0
92273	7	Sololá	717	San Juan la Laguna	12	San Juan la Laguna	12	Diciembre	2023-01-12T00:00:00	2024-11-08T00:00:00	2	Temperatura media	16.4
92274	7	Sololá	717	San Juan la Laguna	12	San Juan la Laguna	12	Diciembre	2023-01-12T00:00:00	2024-11-08T00:00:00	4	Temperatura máxima	17.3
92275	7	Sololá	717	San Juan la Laguna	12	San Juan la Laguna	12	Diciembre	2023-01-12T00:00:00	2024-11-08T00:00:00	3	Temperatura mínima	16.4
92276	7	Sololá	717	San Juan la Laguna	12	San Juan la Laguna	12	Diciembre	2023-01-12T00:00:00	2024-11-08T00:00:00	5	Humedad	83
92277	7	Sololá	717	San Juan la Laguna	12	San Juan la Laguna	12	Diciembre	2023-01-12T00:00:00	2024-11-08T00:00:00	6	Velocidad del viento	4.8
92278	7	Sololá	717	San Juan la Laguna	12	San Juan la Laguna	12	Diciembre	2023-01-12T00:00:00	2024-11-08T00:00:00	7	Dirección del viento	4.83
92279	7	Sololá	717	San Juan la Laguna	12	San Juan la Laguna	12	Diciembre	2023-01-12T00:00:00	2024-11-08T00:00:00	1	Precipitación	0
92280	7	Sololá	717	San Juan la Laguna	12	San Juan la Laguna	12	Diciembre	2023-01-12T00:00:00	2024-11-08T00:00:00	8	Radiación solar	0
92281	7	Sololá	717	San Juan la Laguna	12	San Juan la Laguna	12	Diciembre	2023-01-12T00:00:00	2024-11-08T01:00:00	2	Temperatura media	15.8
92282	7	Sololá	717	San Juan la Laguna	12	San Juan la Laguna	12	Diciembre	2023-01-12T00:00:00	2024-11-08T01:00:00	4	Temperatura máxima	16.4
92283	7	Sololá	717	San Juan la Laguna	12	San Juan la Laguna	12	Diciembre	2023-01-12T00:00:00	2024-11-08T01:00:00	3	Temperatura mínima	15.8
92284	7	Sololá	717	San Juan la Laguna	12	San Juan la Laguna	12	Diciembre	2023-01-12T00:00:00	2024-11-08T01:00:00	5	Humedad	81
92285	7	Sololá	717	San Juan la Laguna	12	San Juan la Laguna	12	Diciembre	2023-01-12T00:00:00	2024-11-08T01:00:00	6	Velocidad del viento	6.4
92286	7	Sololá	717	San Juan la Laguna	12	San Juan la Laguna	12	Diciembre	2023-01-12T00:00:00	2024-11-08T01:00:00	7	Dirección del viento	6.44
92287	7	Sololá	717	San Juan la Laguna	12	San Juan la Laguna	12	Diciembre	2023-01-12T00:00:00	2024-11-08T01:00:00	1	Precipitación	0
92288	7	Sololá	717	San Juan la Laguna	12	San Juan la Laguna	12	Diciembre	2023-01-12T00:00:00	2024-11-08T01:00:00	8	Radiación solar	0
92289	7	Sololá	717	San Juan la Laguna	12	San Juan la Laguna	12	Diciembre	2023-01-12T00:00:00	2024-11-08T02:00:00	2	Temperatura media	14.7
92290	7	Sololá	717	San Juan la Laguna	12	San Juan la Laguna	12	Diciembre	2023-01-12T00:00:00	2024-11-08T02:00:00	4	Temperatura máxima	15.8
92291	7	Sololá	717	San Juan la Laguna	12	San Juan la Laguna	12	Diciembre	2023-01-12T00:00:00	2024-11-08T02:00:00	3	Temperatura mínima	14.7
92292	7	Sololá	717	San Juan la Laguna	12	San Juan la Laguna	12	Diciembre	2023-01-12T00:00:00	2024-11-08T02:00:00	5	Humedad	79
92293	7	Sololá	717	San Juan la Laguna	12	San Juan la Laguna	12	Diciembre	2023-01-12T00:00:00	2024-11-08T02:00:00	6	Velocidad del viento	3.2
92294	7	Sololá	717	San Juan la Laguna	12	San Juan la Laguna	12	Diciembre	2023-01-12T00:00:00	2024-11-08T02:00:00	7	Dirección del viento	3.22
92295	7	Sololá	717	San Juan la Laguna	12	San Juan la Laguna	12	Diciembre	2023-01-12T00:00:00	2024-11-08T02:00:00	1	Precipitación	0
92296	7	Sololá	717	San Juan la Laguna	12	San Juan la Laguna	12	Diciembre	2023-01-12T00:00:00	2024-11-08T02:00:00	8	Radiación solar	0
92297	7	Sololá	717	San Juan la Laguna	12	San Juan la Laguna	12	Diciembre	2023-01-12T00:00:00	2024-11-08T03:00:00	2	Temperatura media	14.8
92298	7	Sololá	717	San Juan la Laguna	12	San Juan la Laguna	12	Diciembre	2023-01-12T00:00:00	2024-11-08T03:00:00	4	Temperatura máxima	15.1
92299	7	Sololá	717	San Juan la Laguna	12	San Juan la Laguna	12	Diciembre	2023-01-12T00:00:00	2024-11-08T03:00:00	3	Temperatura mínima	14.6
92300	7	Sololá	717	San Juan la Laguna	12	San Juan la Laguna	12	Diciembre	2023-01-12T00:00:00	2024-11-08T03:00:00	5	Humedad	76
92301	7	Sololá	717	San Juan la Laguna	12	San Juan la Laguna	12	Diciembre	2023-01-12T00:00:00	2024-11-08T03:00:00	6	Velocidad del viento	6.4
92302	7	Sololá	717	San Juan la Laguna	12	San Juan la Laguna	12	Diciembre	2023-01-12T00:00:00	2024-11-08T03:00:00	7	Dirección del viento	6.44
92303	7	Sololá	717	San Juan la Laguna	12	San Juan la Laguna	12	Diciembre	2023-01-12T00:00:00	2024-11-08T03:00:00	1	Precipitación	0
92304	7	Sololá	717	San Juan la Laguna	12	San Juan la Laguna	12	Diciembre	2023-01-12T00:00:00	2024-11-08T03:00:00	8	Radiación solar	0
92305	7	Sololá	717	San Juan la Laguna	12	San Juan la Laguna	12	Diciembre	2023-01-12T00:00:00	2024-11-08T04:00:00	2	Temperatura media	14
92306	7	Sololá	717	San Juan la Laguna	12	San Juan la Laguna	12	Diciembre	2023-01-12T00:00:00	2024-11-08T04:00:00	4	Temperatura máxima	14.8
92307	7	Sololá	717	San Juan la Laguna	12	San Juan la Laguna	12	Diciembre	2023-01-12T00:00:00	2024-11-08T04:00:00	3	Temperatura mínima	13.7
92308	7	Sololá	717	San Juan la Laguna	12	San Juan la Laguna	12	Diciembre	2023-01-12T00:00:00	2024-11-08T04:00:00	5	Humedad	78
92309	7	Sololá	717	San Juan la Laguna	12	San Juan la Laguna	12	Diciembre	2023-01-12T00:00:00	2024-11-08T04:00:00	6	Velocidad del viento	4.8
92310	7	Sololá	717	San Juan la Laguna	12	San Juan la Laguna	12	Diciembre	2023-01-12T00:00:00	2024-11-08T04:00:00	7	Dirección del viento	4.83
92311	7	Sololá	717	San Juan la Laguna	12	San Juan la Laguna	12	Diciembre	2023-01-12T00:00:00	2024-11-08T04:00:00	1	Precipitación	0
92312	7	Sololá	717	San Juan la Laguna	12	San Juan la Laguna	12	Diciembre	2023-01-12T00:00:00	2024-11-08T04:00:00	8	Radiación solar	0
92313	7	Sololá	717	San Juan la Laguna	12	San Juan la Laguna	12	Diciembre	2023-01-12T00:00:00	2024-11-08T05:00:00	2	Temperatura media	13.7
92314	7	Sololá	717	San Juan la Laguna	12	San Juan la Laguna	12	Diciembre	2023-01-12T00:00:00	2024-11-08T05:00:00	4	Temperatura máxima	14.6
92315	7	Sololá	717	San Juan la Laguna	12	San Juan la Laguna	12	Diciembre	2023-01-12T00:00:00	2024-11-08T05:00:00	3	Temperatura mínima	13.4
92316	7	Sololá	717	San Juan la Laguna	12	San Juan la Laguna	12	Diciembre	2023-01-12T00:00:00	2024-11-08T05:00:00	5	Humedad	81
92317	7	Sololá	717	San Juan la Laguna	12	San Juan la Laguna	12	Diciembre	2023-01-12T00:00:00	2024-11-08T05:00:00	6	Velocidad del viento	4.8
92318	7	Sololá	717	San Juan la Laguna	12	San Juan la Laguna	12	Diciembre	2023-01-12T00:00:00	2024-11-08T05:00:00	7	Dirección del viento	4.83
92319	7	Sololá	717	San Juan la Laguna	12	San Juan la Laguna	12	Diciembre	2023-01-12T00:00:00	2024-11-08T05:00:00	1	Precipitación	0
92320	7	Sololá	717	San Juan la Laguna	12	San Juan la Laguna	12	Diciembre	2023-01-12T00:00:00	2024-11-08T05:00:00	8	Radiación solar	0
92321	7	Sololá	717	San Juan la Laguna	12	San Juan la Laguna	12	Diciembre	2023-01-12T00:00:00	2024-11-08T06:00:00	2	Temperatura media	13.3
92322	7	Sololá	717	San Juan la Laguna	12	San Juan la Laguna	12	Diciembre	2023-01-12T00:00:00	2024-11-08T06:00:00	4	Temperatura máxima	13.8
92323	7	Sololá	717	San Juan la Laguna	12	San Juan la Laguna	12	Diciembre	2023-01-12T00:00:00	2024-11-08T06:00:00	3	Temperatura mínima	13.3
92324	7	Sololá	717	San Juan la Laguna	12	San Juan la Laguna	12	Diciembre	2023-01-12T00:00:00	2024-11-08T06:00:00	5	Humedad	85
92325	7	Sololá	717	San Juan la Laguna	12	San Juan la Laguna	12	Diciembre	2023-01-12T00:00:00	2024-11-08T06:00:00	6	Velocidad del viento	4.8
92326	7	Sololá	717	San Juan la Laguna	12	San Juan la Laguna	12	Diciembre	2023-01-12T00:00:00	2024-11-08T06:00:00	7	Dirección del viento	4.83
92327	7	Sololá	717	San Juan la Laguna	12	San Juan la Laguna	12	Diciembre	2023-01-12T00:00:00	2024-11-08T06:00:00	1	Precipitación	0
92328	7	Sololá	717	San Juan la Laguna	12	San Juan la Laguna	12	Diciembre	2023-01-12T00:00:00	2024-11-08T06:00:00	8	Radiación solar	0
92329	7	Sololá	717	San Juan la Laguna	12	San Juan la Laguna	12	Diciembre	2023-01-12T00:00:00	2024-11-08T07:00:00	2	Temperatura media	13.8
92330	7	Sololá	717	San Juan la Laguna	12	San Juan la Laguna	12	Diciembre	2023-01-12T00:00:00	2024-11-08T07:00:00	4	Temperatura máxima	13.9
92331	7	Sololá	717	San Juan la Laguna	12	San Juan la Laguna	12	Diciembre	2023-01-12T00:00:00	2024-11-08T07:00:00	3	Temperatura mínima	13
92332	7	Sololá	717	San Juan la Laguna	12	San Juan la Laguna	12	Diciembre	2023-01-12T00:00:00	2024-11-08T07:00:00	5	Humedad	84
92333	7	Sololá	717	San Juan la Laguna	12	San Juan la Laguna	12	Diciembre	2023-01-12T00:00:00	2024-11-08T07:00:00	6	Velocidad del viento	3.2
92334	7	Sololá	717	San Juan la Laguna	12	San Juan la Laguna	12	Diciembre	2023-01-12T00:00:00	2024-11-08T07:00:00	7	Dirección del viento	3.22
92335	7	Sololá	717	San Juan la Laguna	12	San Juan la Laguna	12	Diciembre	2023-01-12T00:00:00	2024-11-08T07:00:00	1	Precipitación	0
92336	7	Sololá	717	San Juan la Laguna	12	San Juan la Laguna	12	Diciembre	2023-01-12T00:00:00	2024-11-08T07:00:00	8	Radiación solar	17
92337	7	Sololá	717	San Juan la Laguna	12	San Juan la Laguna	12	Diciembre	2023-01-12T00:00:00	2024-11-08T08:00:00	2	Temperatura media	17.3
92338	7	Sololá	717	San Juan la Laguna	12	San Juan la Laguna	12	Diciembre	2023-01-12T00:00:00	2024-11-08T08:00:00	4	Temperatura máxima	17.3
92339	7	Sololá	717	San Juan la Laguna	12	San Juan la Laguna	12	Diciembre	2023-01-12T00:00:00	2024-11-08T08:00:00	3	Temperatura mínima	13.8
92340	7	Sololá	717	San Juan la Laguna	12	San Juan la Laguna	12	Diciembre	2023-01-12T00:00:00	2024-11-08T08:00:00	5	Humedad	78
92341	7	Sololá	717	San Juan la Laguna	12	San Juan la Laguna	12	Diciembre	2023-01-12T00:00:00	2024-11-08T08:00:00	6	Velocidad del viento	1.6
92342	7	Sololá	717	San Juan la Laguna	12	San Juan la Laguna	12	Diciembre	2023-01-12T00:00:00	2024-11-08T08:00:00	7	Dirección del viento	1.61
92343	7	Sololá	717	San Juan la Laguna	12	San Juan la Laguna	12	Diciembre	2023-01-12T00:00:00	2024-11-08T08:00:00	1	Precipitación	0
92344	7	Sololá	717	San Juan la Laguna	12	San Juan la Laguna	12	Diciembre	2023-01-12T00:00:00	2024-11-08T08:00:00	8	Radiación solar	164
92345	7	Sololá	717	San Juan la Laguna	12	San Juan la Laguna	12	Diciembre	2023-01-12T00:00:00	2024-11-08T09:00:00	2	Temperatura media	20.2
92346	7	Sololá	717	San Juan la Laguna	12	San Juan la Laguna	12	Diciembre	2023-01-12T00:00:00	2024-11-08T09:00:00	4	Temperatura máxima	20.2
92347	7	Sololá	717	San Juan la Laguna	12	San Juan la Laguna	12	Diciembre	2023-01-12T00:00:00	2024-11-08T09:00:00	3	Temperatura mínima	17.3
92348	7	Sololá	717	San Juan la Laguna	12	San Juan la Laguna	12	Diciembre	2023-01-12T00:00:00	2024-11-08T09:00:00	5	Humedad	72
92349	7	Sololá	717	San Juan la Laguna	12	San Juan la Laguna	12	Diciembre	2023-01-12T00:00:00	2024-11-08T09:00:00	6	Velocidad del viento	3.2
92350	7	Sololá	717	San Juan la Laguna	12	San Juan la Laguna	12	Diciembre	2023-01-12T00:00:00	2024-11-08T09:00:00	7	Dirección del viento	3.22
92351	7	Sololá	717	San Juan la Laguna	12	San Juan la Laguna	12	Diciembre	2023-01-12T00:00:00	2024-11-08T09:00:00	1	Precipitación	0
92352	7	Sololá	717	San Juan la Laguna	12	San Juan la Laguna	12	Diciembre	2023-01-12T00:00:00	2024-11-08T09:00:00	8	Radiación solar	387
92353	7	Sololá	717	San Juan la Laguna	12	San Juan la Laguna	12	Diciembre	2023-01-12T00:00:00	2024-11-08T10:00:00	2	Temperatura media	20.7
92354	7	Sololá	717	San Juan la Laguna	12	San Juan la Laguna	12	Diciembre	2023-01-12T00:00:00	2024-11-08T10:00:00	4	Temperatura máxima	20.7
92355	7	Sololá	717	San Juan la Laguna	12	San Juan la Laguna	12	Diciembre	2023-01-12T00:00:00	2024-11-08T10:00:00	3	Temperatura mínima	19.6
92356	7	Sololá	717	San Juan la Laguna	12	San Juan la Laguna	12	Diciembre	2023-01-12T00:00:00	2024-11-08T10:00:00	5	Humedad	69
92357	7	Sololá	717	San Juan la Laguna	12	San Juan la Laguna	12	Diciembre	2023-01-12T00:00:00	2024-11-08T10:00:00	6	Velocidad del viento	6.4
92358	7	Sololá	717	San Juan la Laguna	12	San Juan la Laguna	12	Diciembre	2023-01-12T00:00:00	2024-11-08T10:00:00	7	Dirección del viento	6.44
92359	7	Sololá	717	San Juan la Laguna	12	San Juan la Laguna	12	Diciembre	2023-01-12T00:00:00	2024-11-08T10:00:00	1	Precipitación	0
92360	7	Sololá	717	San Juan la Laguna	12	San Juan la Laguna	12	Diciembre	2023-01-12T00:00:00	2024-11-08T10:00:00	8	Radiación solar	566
92361	7	Sololá	717	San Juan la Laguna	12	San Juan la Laguna	12	Diciembre	2023-01-12T00:00:00	2024-11-08T11:00:00	2	Temperatura media	21.7
92362	7	Sololá	717	San Juan la Laguna	12	San Juan la Laguna	12	Diciembre	2023-01-12T00:00:00	2024-11-08T11:00:00	4	Temperatura máxima	22.1
92363	7	Sololá	717	San Juan la Laguna	12	San Juan la Laguna	12	Diciembre	2023-01-12T00:00:00	2024-11-08T11:00:00	3	Temperatura mínima	20.7
92364	7	Sololá	717	San Juan la Laguna	12	San Juan la Laguna	12	Diciembre	2023-01-12T00:00:00	2024-11-08T11:00:00	5	Humedad	64
92365	7	Sololá	717	San Juan la Laguna	12	San Juan la Laguna	12	Diciembre	2023-01-12T00:00:00	2024-11-08T11:00:00	6	Velocidad del viento	6.4
92366	7	Sololá	717	San Juan la Laguna	12	San Juan la Laguna	12	Diciembre	2023-01-12T00:00:00	2024-11-08T11:00:00	7	Dirección del viento	6.44
92367	7	Sololá	717	San Juan la Laguna	12	San Juan la Laguna	12	Diciembre	2023-01-12T00:00:00	2024-11-08T11:00:00	1	Precipitación	0
92368	7	Sololá	717	San Juan la Laguna	12	San Juan la Laguna	12	Diciembre	2023-01-12T00:00:00	2024-11-08T11:00:00	8	Radiación solar	590
92369	7	Sololá	717	San Juan la Laguna	12	San Juan la Laguna	12	Diciembre	2023-01-12T00:00:00	2024-11-08T12:00:00	2	Temperatura media	22.5
92370	7	Sololá	717	San Juan la Laguna	12	San Juan la Laguna	12	Diciembre	2023-01-12T00:00:00	2024-11-08T12:00:00	4	Temperatura máxima	22.6
92371	7	Sololá	717	San Juan la Laguna	12	San Juan la Laguna	12	Diciembre	2023-01-12T00:00:00	2024-11-08T12:00:00	3	Temperatura mínima	21.7
92372	7	Sololá	717	San Juan la Laguna	12	San Juan la Laguna	12	Diciembre	2023-01-12T00:00:00	2024-11-08T12:00:00	5	Humedad	67
92373	7	Sololá	717	San Juan la Laguna	12	San Juan la Laguna	12	Diciembre	2023-01-12T00:00:00	2024-11-08T12:00:00	6	Velocidad del viento	8
92374	7	Sololá	717	San Juan la Laguna	12	San Juan la Laguna	12	Diciembre	2023-01-12T00:00:00	2024-11-08T12:00:00	7	Dirección del viento	8.05
92375	7	Sololá	717	San Juan la Laguna	12	San Juan la Laguna	12	Diciembre	2023-01-12T00:00:00	2024-11-08T12:00:00	1	Precipitación	0
92376	7	Sololá	717	San Juan la Laguna	12	San Juan la Laguna	12	Diciembre	2023-01-12T00:00:00	2024-11-08T12:00:00	8	Radiación solar	717
92377	7	Sololá	717	San Juan la Laguna	12	San Juan la Laguna	12	Diciembre	2023-01-12T00:00:00	2024-11-08T13:00:00	2	Temperatura media	23.3
92378	7	Sololá	717	San Juan la Laguna	12	San Juan la Laguna	12	Diciembre	2023-01-12T00:00:00	2024-11-08T13:00:00	4	Temperatura máxima	23.4
92379	7	Sololá	717	San Juan la Laguna	12	San Juan la Laguna	12	Diciembre	2023-01-12T00:00:00	2024-11-08T13:00:00	3	Temperatura mínima	22.5
92380	7	Sololá	717	San Juan la Laguna	12	San Juan la Laguna	12	Diciembre	2023-01-12T00:00:00	2024-11-08T13:00:00	5	Humedad	68
92381	7	Sololá	717	San Juan la Laguna	12	San Juan la Laguna	12	Diciembre	2023-01-12T00:00:00	2024-11-08T13:00:00	6	Velocidad del viento	8
92382	7	Sololá	717	San Juan la Laguna	12	San Juan la Laguna	12	Diciembre	2023-01-12T00:00:00	2024-11-08T13:00:00	7	Dirección del viento	8.05
92383	7	Sololá	717	San Juan la Laguna	12	San Juan la Laguna	12	Diciembre	2023-01-12T00:00:00	2024-11-08T13:00:00	1	Precipitación	0
92384	7	Sololá	717	San Juan la Laguna	12	San Juan la Laguna	12	Diciembre	2023-01-12T00:00:00	2024-11-08T13:00:00	8	Radiación solar	743
92385	7	Sololá	717	San Juan la Laguna	12	San Juan la Laguna	12	Diciembre	2023-01-12T00:00:00	2024-11-08T14:00:00	2	Temperatura media	23.3
92386	7	Sololá	717	San Juan la Laguna	12	San Juan la Laguna	12	Diciembre	2023-01-12T00:00:00	2024-11-08T14:00:00	4	Temperatura máxima	23.6
92387	7	Sololá	717	San Juan la Laguna	12	San Juan la Laguna	12	Diciembre	2023-01-12T00:00:00	2024-11-08T14:00:00	3	Temperatura mínima	23.2
92388	7	Sololá	717	San Juan la Laguna	12	San Juan la Laguna	12	Diciembre	2023-01-12T00:00:00	2024-11-08T14:00:00	5	Humedad	70
92389	7	Sololá	717	San Juan la Laguna	12	San Juan la Laguna	12	Diciembre	2023-01-12T00:00:00	2024-11-08T14:00:00	6	Velocidad del viento	8
92390	7	Sololá	717	San Juan la Laguna	12	San Juan la Laguna	12	Diciembre	2023-01-12T00:00:00	2024-11-08T14:00:00	7	Dirección del viento	8.05
92391	7	Sololá	717	San Juan la Laguna	12	San Juan la Laguna	12	Diciembre	2023-01-12T00:00:00	2024-11-08T14:00:00	1	Precipitación	0
92392	7	Sololá	717	San Juan la Laguna	12	San Juan la Laguna	12	Diciembre	2023-01-12T00:00:00	2024-11-08T14:00:00	8	Radiación solar	695
92393	7	Sololá	717	San Juan la Laguna	12	San Juan la Laguna	12	Diciembre	2023-01-12T00:00:00	2024-11-08T15:00:00	2	Temperatura media	22.3
92394	7	Sololá	717	San Juan la Laguna	12	San Juan la Laguna	12	Diciembre	2023-01-12T00:00:00	2024-11-08T15:00:00	4	Temperatura máxima	23.6
92395	7	Sololá	717	San Juan la Laguna	12	San Juan la Laguna	12	Diciembre	2023-01-12T00:00:00	2024-11-08T15:00:00	3	Temperatura mínima	22.3
92396	7	Sololá	717	San Juan la Laguna	12	San Juan la Laguna	12	Diciembre	2023-01-12T00:00:00	2024-11-08T15:00:00	5	Humedad	73
92397	7	Sololá	717	San Juan la Laguna	12	San Juan la Laguna	12	Diciembre	2023-01-12T00:00:00	2024-11-08T15:00:00	6	Velocidad del viento	9.7
92398	7	Sololá	717	San Juan la Laguna	12	San Juan la Laguna	12	Diciembre	2023-01-12T00:00:00	2024-11-08T15:00:00	7	Dirección del viento	9.66
92399	7	Sololá	717	San Juan la Laguna	12	San Juan la Laguna	12	Diciembre	2023-01-12T00:00:00	2024-11-08T15:00:00	1	Precipitación	0
92400	7	Sololá	717	San Juan la Laguna	12	San Juan la Laguna	12	Diciembre	2023-01-12T00:00:00	2024-11-08T15:00:00	8	Radiación solar	571
92401	7	Sololá	717	San Juan la Laguna	12	San Juan la Laguna	12	Diciembre	2023-01-12T00:00:00	2024-11-08T16:00:00	2	Temperatura media	21.7
92402	7	Sololá	717	San Juan la Laguna	12	San Juan la Laguna	12	Diciembre	2023-01-12T00:00:00	2024-11-08T16:00:00	4	Temperatura máxima	22.8
92403	7	Sololá	717	San Juan la Laguna	12	San Juan la Laguna	12	Diciembre	2023-01-12T00:00:00	2024-11-08T16:00:00	3	Temperatura mínima	21.5
92404	7	Sololá	717	San Juan la Laguna	12	San Juan la Laguna	12	Diciembre	2023-01-12T00:00:00	2024-11-08T16:00:00	5	Humedad	76
92405	7	Sololá	717	San Juan la Laguna	12	San Juan la Laguna	12	Diciembre	2023-01-12T00:00:00	2024-11-08T16:00:00	6	Velocidad del viento	8
92406	7	Sololá	717	San Juan la Laguna	12	San Juan la Laguna	12	Diciembre	2023-01-12T00:00:00	2024-11-08T16:00:00	7	Dirección del viento	8.05
92407	7	Sololá	717	San Juan la Laguna	12	San Juan la Laguna	12	Diciembre	2023-01-12T00:00:00	2024-11-08T16:00:00	1	Precipitación	0
92408	7	Sololá	717	San Juan la Laguna	12	San Juan la Laguna	12	Diciembre	2023-01-12T00:00:00	2024-11-08T16:00:00	8	Radiación solar	282
92409	7	Sololá	717	San Juan la Laguna	12	San Juan la Laguna	12	Diciembre	2023-01-12T00:00:00	2024-11-08T17:00:00	2	Temperatura media	20.6
92410	7	Sololá	717	San Juan la Laguna	12	San Juan la Laguna	12	Diciembre	2023-01-12T00:00:00	2024-11-08T17:00:00	4	Temperatura máxima	21.7
92411	7	Sololá	717	San Juan la Laguna	12	San Juan la Laguna	12	Diciembre	2023-01-12T00:00:00	2024-11-08T17:00:00	3	Temperatura mínima	20.6
92412	7	Sololá	717	San Juan la Laguna	12	San Juan la Laguna	12	Diciembre	2023-01-12T00:00:00	2024-11-08T17:00:00	5	Humedad	80
92413	7	Sololá	717	San Juan la Laguna	12	San Juan la Laguna	12	Diciembre	2023-01-12T00:00:00	2024-11-08T17:00:00	6	Velocidad del viento	4.8
92414	7	Sololá	717	San Juan la Laguna	12	San Juan la Laguna	12	Diciembre	2023-01-12T00:00:00	2024-11-08T17:00:00	7	Dirección del viento	4.83
92415	7	Sololá	717	San Juan la Laguna	12	San Juan la Laguna	12	Diciembre	2023-01-12T00:00:00	2024-11-08T17:00:00	1	Precipitación	0
92416	7	Sololá	717	San Juan la Laguna	12	San Juan la Laguna	12	Diciembre	2023-01-12T00:00:00	2024-11-08T17:00:00	8	Radiación solar	86
92417	7	Sololá	717	San Juan la Laguna	12	San Juan la Laguna	12	Diciembre	2023-01-12T00:00:00	2024-11-08T18:00:00	2	Temperatura media	19.9
92418	7	Sololá	717	San Juan la Laguna	12	San Juan la Laguna	12	Diciembre	2023-01-12T00:00:00	2024-11-08T18:00:00	4	Temperatura máxima	20.6
92419	7	Sololá	717	San Juan la Laguna	12	San Juan la Laguna	12	Diciembre	2023-01-12T00:00:00	2024-11-08T18:00:00	3	Temperatura mínima	19.9
92420	7	Sololá	717	San Juan la Laguna	12	San Juan la Laguna	12	Diciembre	2023-01-12T00:00:00	2024-11-08T18:00:00	5	Humedad	82
92421	7	Sololá	717	San Juan la Laguna	12	San Juan la Laguna	12	Diciembre	2023-01-12T00:00:00	2024-11-08T18:00:00	6	Velocidad del viento	3.2
92422	7	Sololá	717	San Juan la Laguna	12	San Juan la Laguna	12	Diciembre	2023-01-12T00:00:00	2024-11-08T18:00:00	7	Dirección del viento	3.22
92423	7	Sololá	717	San Juan la Laguna	12	San Juan la Laguna	12	Diciembre	2023-01-12T00:00:00	2024-11-08T18:00:00	1	Precipitación	0
92424	7	Sololá	717	San Juan la Laguna	12	San Juan la Laguna	12	Diciembre	2023-01-12T00:00:00	2024-11-08T18:00:00	8	Radiación solar	12
92425	7	Sololá	717	San Juan la Laguna	12	San Juan la Laguna	12	Diciembre	2023-01-12T00:00:00	2024-11-08T19:00:00	2	Temperatura media	19.4
92426	7	Sololá	717	San Juan la Laguna	12	San Juan la Laguna	12	Diciembre	2023-01-12T00:00:00	2024-11-08T19:00:00	4	Temperatura máxima	19.9
92427	7	Sololá	717	San Juan la Laguna	12	San Juan la Laguna	12	Diciembre	2023-01-12T00:00:00	2024-11-08T19:00:00	3	Temperatura mínima	19.4
92428	7	Sololá	717	San Juan la Laguna	12	San Juan la Laguna	12	Diciembre	2023-01-12T00:00:00	2024-11-08T19:00:00	5	Humedad	84
92429	7	Sololá	717	San Juan la Laguna	12	San Juan la Laguna	12	Diciembre	2023-01-12T00:00:00	2024-11-08T19:00:00	6	Velocidad del viento	3.2
92430	7	Sololá	717	San Juan la Laguna	12	San Juan la Laguna	12	Diciembre	2023-01-12T00:00:00	2024-11-08T19:00:00	7	Dirección del viento	3.22
92431	7	Sololá	717	San Juan la Laguna	12	San Juan la Laguna	12	Diciembre	2023-01-12T00:00:00	2024-11-08T19:00:00	1	Precipitación	0
92432	7	Sololá	717	San Juan la Laguna	12	San Juan la Laguna	12	Diciembre	2023-01-12T00:00:00	2024-11-08T19:00:00	8	Radiación solar	0
92433	7	Sololá	717	San Juan la Laguna	12	San Juan la Laguna	12	Diciembre	2023-01-12T00:00:00	2024-11-08T20:00:00	2	Temperatura media	18.2
92434	7	Sololá	717	San Juan la Laguna	12	San Juan la Laguna	12	Diciembre	2023-01-12T00:00:00	2024-11-08T20:00:00	4	Temperatura máxima	19.4
92435	7	Sololá	717	San Juan la Laguna	12	San Juan la Laguna	12	Diciembre	2023-01-12T00:00:00	2024-11-08T20:00:00	3	Temperatura mínima	18.2
92436	7	Sololá	717	San Juan la Laguna	12	San Juan la Laguna	12	Diciembre	2023-01-12T00:00:00	2024-11-08T20:00:00	5	Humedad	85
92437	7	Sololá	717	San Juan la Laguna	12	San Juan la Laguna	12	Diciembre	2023-01-12T00:00:00	2024-11-08T20:00:00	6	Velocidad del viento	3.2
92438	7	Sololá	717	San Juan la Laguna	12	San Juan la Laguna	12	Diciembre	2023-01-12T00:00:00	2024-11-08T20:00:00	7	Dirección del viento	3.22
92439	7	Sololá	717	San Juan la Laguna	12	San Juan la Laguna	12	Diciembre	2023-01-12T00:00:00	2024-11-08T20:00:00	1	Precipitación	0
92440	7	Sololá	717	San Juan la Laguna	12	San Juan la Laguna	12	Diciembre	2023-01-12T00:00:00	2024-11-08T20:00:00	8	Radiación solar	0
92441	7	Sololá	717	San Juan la Laguna	12	San Juan la Laguna	12	Diciembre	2023-01-12T00:00:00	2024-11-08T21:00:00	2	Temperatura media	17.4
92442	7	Sololá	717	San Juan la Laguna	12	San Juan la Laguna	12	Diciembre	2023-01-12T00:00:00	2024-11-08T21:00:00	4	Temperatura máxima	18.2
92443	7	Sololá	717	San Juan la Laguna	12	San Juan la Laguna	12	Diciembre	2023-01-12T00:00:00	2024-11-08T21:00:00	3	Temperatura mínima	17.2
92444	7	Sololá	717	San Juan la Laguna	12	San Juan la Laguna	12	Diciembre	2023-01-12T00:00:00	2024-11-08T21:00:00	5	Humedad	86
92445	7	Sololá	717	San Juan la Laguna	12	San Juan la Laguna	12	Diciembre	2023-01-12T00:00:00	2024-11-08T21:00:00	6	Velocidad del viento	3.2
92446	7	Sololá	717	San Juan la Laguna	12	San Juan la Laguna	12	Diciembre	2023-01-12T00:00:00	2024-11-08T21:00:00	7	Dirección del viento	3.22
92447	7	Sololá	717	San Juan la Laguna	12	San Juan la Laguna	12	Diciembre	2023-01-12T00:00:00	2024-11-08T21:00:00	1	Precipitación	0
92448	7	Sololá	717	San Juan la Laguna	12	San Juan la Laguna	12	Diciembre	2023-01-12T00:00:00	2024-11-08T21:00:00	8	Radiación solar	0
92449	7	Sololá	717	San Juan la Laguna	12	San Juan la Laguna	12	Diciembre	2023-01-12T00:00:00	2024-11-08T22:00:00	2	Temperatura media	16.9
92450	7	Sololá	717	San Juan la Laguna	12	San Juan la Laguna	12	Diciembre	2023-01-12T00:00:00	2024-11-08T22:00:00	4	Temperatura máxima	17.4
92451	7	Sololá	717	San Juan la Laguna	12	San Juan la Laguna	12	Diciembre	2023-01-12T00:00:00	2024-11-08T22:00:00	3	Temperatura mínima	16.8
92452	7	Sololá	717	San Juan la Laguna	12	San Juan la Laguna	12	Diciembre	2023-01-12T00:00:00	2024-11-08T22:00:00	5	Humedad	87
92453	7	Sololá	717	San Juan la Laguna	12	San Juan la Laguna	12	Diciembre	2023-01-12T00:00:00	2024-11-08T22:00:00	6	Velocidad del viento	4.8
92454	7	Sololá	717	San Juan la Laguna	12	San Juan la Laguna	12	Diciembre	2023-01-12T00:00:00	2024-11-08T22:00:00	7	Dirección del viento	4.83
92455	7	Sololá	717	San Juan la Laguna	12	San Juan la Laguna	12	Diciembre	2023-01-12T00:00:00	2024-11-08T22:00:00	1	Precipitación	0
92456	7	Sololá	717	San Juan la Laguna	12	San Juan la Laguna	12	Diciembre	2023-01-12T00:00:00	2024-11-08T22:00:00	8	Radiación solar	0
92457	7	Sololá	717	San Juan la Laguna	12	San Juan la Laguna	12	Diciembre	2023-01-12T00:00:00	2024-11-08T23:00:00	2	Temperatura media	17.5
92458	7	Sololá	717	San Juan la Laguna	12	San Juan la Laguna	12	Diciembre	2023-01-12T00:00:00	2024-11-08T23:00:00	4	Temperatura máxima	17.5
92459	7	Sololá	717	San Juan la Laguna	12	San Juan la Laguna	12	Diciembre	2023-01-12T00:00:00	2024-11-08T23:00:00	3	Temperatura mínima	16.9
92460	7	Sololá	717	San Juan la Laguna	12	San Juan la Laguna	12	Diciembre	2023-01-12T00:00:00	2024-11-08T23:00:00	5	Humedad	84
92461	7	Sololá	717	San Juan la Laguna	12	San Juan la Laguna	12	Diciembre	2023-01-12T00:00:00	2024-11-08T23:00:00	6	Velocidad del viento	4.8
92462	7	Sololá	717	San Juan la Laguna	12	San Juan la Laguna	12	Diciembre	2023-01-12T00:00:00	2024-11-08T23:00:00	7	Dirección del viento	4.83
92463	7	Sololá	717	San Juan la Laguna	12	San Juan la Laguna	12	Diciembre	2023-01-12T00:00:00	2024-11-08T23:00:00	1	Precipitación	0
92464	7	Sololá	717	San Juan la Laguna	12	San Juan la Laguna	12	Diciembre	2023-01-12T00:00:00	2024-11-08T23:00:00	8	Radiación solar	0
92465	7	Sololá	717	San Juan la Laguna	12	San Juan la Laguna	12	Diciembre	2023-02-12T00:00:00	2024-11-08T00:00:00	2	Temperatura media	16.4
92466	7	Sololá	717	San Juan la Laguna	12	San Juan la Laguna	12	Diciembre	2023-02-12T00:00:00	2024-11-08T00:00:00	4	Temperatura máxima	17.5
92467	7	Sololá	717	San Juan la Laguna	12	San Juan la Laguna	12	Diciembre	2023-02-12T00:00:00	2024-11-08T00:00:00	3	Temperatura mínima	16.4
92468	7	Sololá	717	San Juan la Laguna	12	San Juan la Laguna	12	Diciembre	2023-02-12T00:00:00	2024-11-08T00:00:00	5	Humedad	85
92469	7	Sololá	717	San Juan la Laguna	12	San Juan la Laguna	12	Diciembre	2023-02-12T00:00:00	2024-11-08T00:00:00	6	Velocidad del viento	4.8
92470	7	Sololá	717	San Juan la Laguna	12	San Juan la Laguna	12	Diciembre	2023-02-12T00:00:00	2024-11-08T00:00:00	7	Dirección del viento	4.83
92471	7	Sololá	717	San Juan la Laguna	12	San Juan la Laguna	12	Diciembre	2023-02-12T00:00:00	2024-11-08T00:00:00	1	Precipitación	0
92472	7	Sololá	717	San Juan la Laguna	12	San Juan la Laguna	12	Diciembre	2023-02-12T00:00:00	2024-11-08T00:00:00	8	Radiación solar	0
92473	7	Sololá	717	San Juan la Laguna	12	San Juan la Laguna	12	Diciembre	2023-02-12T00:00:00	2024-11-08T01:00:00	2	Temperatura media	15.5
92474	7	Sololá	717	San Juan la Laguna	12	San Juan la Laguna	12	Diciembre	2023-02-12T00:00:00	2024-11-08T01:00:00	4	Temperatura máxima	16.4
92475	7	Sololá	717	San Juan la Laguna	12	San Juan la Laguna	12	Diciembre	2023-02-12T00:00:00	2024-11-08T01:00:00	3	Temperatura mínima	15.5
92476	7	Sololá	717	San Juan la Laguna	12	San Juan la Laguna	12	Diciembre	2023-02-12T00:00:00	2024-11-08T01:00:00	5	Humedad	87
92477	7	Sololá	717	San Juan la Laguna	12	San Juan la Laguna	12	Diciembre	2023-02-12T00:00:00	2024-11-08T01:00:00	6	Velocidad del viento	3.2
92478	7	Sololá	717	San Juan la Laguna	12	San Juan la Laguna	12	Diciembre	2023-02-12T00:00:00	2024-11-08T01:00:00	7	Dirección del viento	3.22
92479	7	Sololá	717	San Juan la Laguna	12	San Juan la Laguna	12	Diciembre	2023-02-12T00:00:00	2024-11-08T01:00:00	1	Precipitación	0
92480	7	Sololá	717	San Juan la Laguna	12	San Juan la Laguna	12	Diciembre	2023-02-12T00:00:00	2024-11-08T01:00:00	8	Radiación solar	0
92481	7	Sololá	717	San Juan la Laguna	12	San Juan la Laguna	12	Diciembre	2023-02-12T00:00:00	2024-11-08T02:00:00	2	Temperatura media	15.8
92482	7	Sololá	717	San Juan la Laguna	12	San Juan la Laguna	12	Diciembre	2023-02-12T00:00:00	2024-11-08T02:00:00	4	Temperatura máxima	15.9
92483	7	Sololá	717	San Juan la Laguna	12	San Juan la Laguna	12	Diciembre	2023-02-12T00:00:00	2024-11-08T02:00:00	3	Temperatura mínima	15.4
92484	7	Sololá	717	San Juan la Laguna	12	San Juan la Laguna	12	Diciembre	2023-02-12T00:00:00	2024-11-08T02:00:00	5	Humedad	85
92485	7	Sololá	717	San Juan la Laguna	12	San Juan la Laguna	12	Diciembre	2023-02-12T00:00:00	2024-11-08T02:00:00	6	Velocidad del viento	4.8
92486	7	Sololá	717	San Juan la Laguna	12	San Juan la Laguna	12	Diciembre	2023-02-12T00:00:00	2024-11-08T02:00:00	7	Dirección del viento	4.83
92487	7	Sololá	717	San Juan la Laguna	12	San Juan la Laguna	12	Diciembre	2023-02-12T00:00:00	2024-11-08T02:00:00	1	Precipitación	0
92488	7	Sololá	717	San Juan la Laguna	12	San Juan la Laguna	12	Diciembre	2023-02-12T00:00:00	2024-11-08T02:00:00	8	Radiación solar	0
92489	7	Sololá	717	San Juan la Laguna	12	San Juan la Laguna	12	Diciembre	2023-02-12T00:00:00	2024-11-08T03:00:00	2	Temperatura media	15.2
92490	7	Sololá	717	San Juan la Laguna	12	San Juan la Laguna	12	Diciembre	2023-02-12T00:00:00	2024-11-08T03:00:00	4	Temperatura máxima	15.8
92491	7	Sololá	717	San Juan la Laguna	12	San Juan la Laguna	12	Diciembre	2023-02-12T00:00:00	2024-11-08T03:00:00	3	Temperatura mínima	15.2
92492	7	Sololá	717	San Juan la Laguna	12	San Juan la Laguna	12	Diciembre	2023-02-12T00:00:00	2024-11-08T03:00:00	5	Humedad	83
92493	7	Sololá	717	San Juan la Laguna	12	San Juan la Laguna	12	Diciembre	2023-02-12T00:00:00	2024-11-08T03:00:00	6	Velocidad del viento	4.8
92494	7	Sololá	717	San Juan la Laguna	12	San Juan la Laguna	12	Diciembre	2023-02-12T00:00:00	2024-11-08T03:00:00	7	Dirección del viento	4.83
92495	7	Sololá	717	San Juan la Laguna	12	San Juan la Laguna	12	Diciembre	2023-02-12T00:00:00	2024-11-08T03:00:00	1	Precipitación	0
92496	7	Sololá	717	San Juan la Laguna	12	San Juan la Laguna	12	Diciembre	2023-02-12T00:00:00	2024-11-08T03:00:00	8	Radiación solar	0
92497	7	Sololá	717	San Juan la Laguna	12	San Juan la Laguna	12	Diciembre	2023-02-12T00:00:00	2024-11-08T04:00:00	2	Temperatura media	14.3
92498	7	Sololá	717	San Juan la Laguna	12	San Juan la Laguna	12	Diciembre	2023-02-12T00:00:00	2024-11-08T04:00:00	4	Temperatura máxima	15.2
92499	7	Sololá	717	San Juan la Laguna	12	San Juan la Laguna	12	Diciembre	2023-02-12T00:00:00	2024-11-08T04:00:00	3	Temperatura mínima	14.2
92500	7	Sololá	717	San Juan la Laguna	12	San Juan la Laguna	12	Diciembre	2023-02-12T00:00:00	2024-11-08T04:00:00	5	Humedad	85
92501	7	Sololá	717	San Juan la Laguna	12	San Juan la Laguna	12	Diciembre	2023-02-12T00:00:00	2024-11-08T04:00:00	6	Velocidad del viento	3.2
92502	7	Sololá	717	San Juan la Laguna	12	San Juan la Laguna	12	Diciembre	2023-02-12T00:00:00	2024-11-08T04:00:00	7	Dirección del viento	3.22
92503	7	Sololá	717	San Juan la Laguna	12	San Juan la Laguna	12	Diciembre	2023-02-12T00:00:00	2024-11-08T04:00:00	1	Precipitación	0
92504	7	Sololá	717	San Juan la Laguna	12	San Juan la Laguna	12	Diciembre	2023-02-12T00:00:00	2024-11-08T04:00:00	8	Radiación solar	0
92505	7	Sololá	717	San Juan la Laguna	12	San Juan la Laguna	12	Diciembre	2023-02-12T00:00:00	2024-11-08T05:00:00	2	Temperatura media	14.2
92506	7	Sololá	717	San Juan la Laguna	12	San Juan la Laguna	12	Diciembre	2023-02-12T00:00:00	2024-11-08T05:00:00	4	Temperatura máxima	14.6
92507	7	Sololá	717	San Juan la Laguna	12	San Juan la Laguna	12	Diciembre	2023-02-12T00:00:00	2024-11-08T05:00:00	3	Temperatura mínima	14.2
92508	7	Sololá	717	San Juan la Laguna	12	San Juan la Laguna	12	Diciembre	2023-02-12T00:00:00	2024-11-08T05:00:00	5	Humedad	85
92509	7	Sololá	717	San Juan la Laguna	12	San Juan la Laguna	12	Diciembre	2023-02-12T00:00:00	2024-11-08T05:00:00	6	Velocidad del viento	4.8
92510	7	Sololá	717	San Juan la Laguna	12	San Juan la Laguna	12	Diciembre	2023-02-12T00:00:00	2024-11-08T05:00:00	7	Dirección del viento	4.83
92511	7	Sololá	717	San Juan la Laguna	12	San Juan la Laguna	12	Diciembre	2023-02-12T00:00:00	2024-11-08T05:00:00	1	Precipitación	0
92512	7	Sololá	717	San Juan la Laguna	12	San Juan la Laguna	12	Diciembre	2023-02-12T00:00:00	2024-11-08T05:00:00	8	Radiación solar	0
92513	7	Sololá	717	San Juan la Laguna	12	San Juan la Laguna	12	Diciembre	2023-02-12T00:00:00	2024-11-08T06:00:00	2	Temperatura media	13.6
92514	7	Sololá	717	San Juan la Laguna	12	San Juan la Laguna	12	Diciembre	2023-02-12T00:00:00	2024-11-08T06:00:00	4	Temperatura máxima	14.2
92515	7	Sololá	717	San Juan la Laguna	12	San Juan la Laguna	12	Diciembre	2023-02-12T00:00:00	2024-11-08T06:00:00	3	Temperatura mínima	13.6
92516	7	Sololá	717	San Juan la Laguna	12	San Juan la Laguna	12	Diciembre	2023-02-12T00:00:00	2024-11-08T06:00:00	5	Humedad	85
92517	7	Sololá	717	San Juan la Laguna	12	San Juan la Laguna	12	Diciembre	2023-02-12T00:00:00	2024-11-08T06:00:00	6	Velocidad del viento	4.8
92518	7	Sololá	717	San Juan la Laguna	12	San Juan la Laguna	12	Diciembre	2023-02-12T00:00:00	2024-11-08T06:00:00	7	Dirección del viento	4.83
92519	7	Sololá	717	San Juan la Laguna	12	San Juan la Laguna	12	Diciembre	2023-02-12T00:00:00	2024-11-08T06:00:00	1	Precipitación	0
92520	7	Sololá	717	San Juan la Laguna	12	San Juan la Laguna	12	Diciembre	2023-02-12T00:00:00	2024-11-08T06:00:00	8	Radiación solar	0
92521	7	Sololá	717	San Juan la Laguna	12	San Juan la Laguna	12	Diciembre	2023-02-12T00:00:00	2024-11-08T07:00:00	2	Temperatura media	14
92522	7	Sololá	717	San Juan la Laguna	12	San Juan la Laguna	12	Diciembre	2023-02-12T00:00:00	2024-11-08T07:00:00	4	Temperatura máxima	14
92523	7	Sololá	717	San Juan la Laguna	12	San Juan la Laguna	12	Diciembre	2023-02-12T00:00:00	2024-11-08T07:00:00	3	Temperatura mínima	13.6
92524	7	Sololá	717	San Juan la Laguna	12	San Juan la Laguna	12	Diciembre	2023-02-12T00:00:00	2024-11-08T07:00:00	5	Humedad	84
92525	7	Sololá	717	San Juan la Laguna	12	San Juan la Laguna	12	Diciembre	2023-02-12T00:00:00	2024-11-08T07:00:00	6	Velocidad del viento	4.8
92526	7	Sololá	717	San Juan la Laguna	12	San Juan la Laguna	12	Diciembre	2023-02-12T00:00:00	2024-11-08T07:00:00	7	Dirección del viento	4.83
92527	7	Sololá	717	San Juan la Laguna	12	San Juan la Laguna	12	Diciembre	2023-02-12T00:00:00	2024-11-08T07:00:00	1	Precipitación	0
92528	7	Sololá	717	San Juan la Laguna	12	San Juan la Laguna	12	Diciembre	2023-02-12T00:00:00	2024-11-08T07:00:00	8	Radiación solar	19
92529	7	Sololá	717	San Juan la Laguna	12	San Juan la Laguna	12	Diciembre	2023-02-12T00:00:00	2024-11-08T08:00:00	2	Temperatura media	17
92530	7	Sololá	717	San Juan la Laguna	12	San Juan la Laguna	12	Diciembre	2023-02-12T00:00:00	2024-11-08T08:00:00	4	Temperatura máxima	17
92531	7	Sololá	717	San Juan la Laguna	12	San Juan la Laguna	12	Diciembre	2023-02-12T00:00:00	2024-11-08T08:00:00	3	Temperatura mínima	14
92532	7	Sololá	717	San Juan la Laguna	12	San Juan la Laguna	12	Diciembre	2023-02-12T00:00:00	2024-11-08T08:00:00	5	Humedad	82
92533	7	Sololá	717	San Juan la Laguna	12	San Juan la Laguna	12	Diciembre	2023-02-12T00:00:00	2024-11-08T08:00:00	6	Velocidad del viento	3.2
92534	7	Sololá	717	San Juan la Laguna	12	San Juan la Laguna	12	Diciembre	2023-02-12T00:00:00	2024-11-08T08:00:00	7	Dirección del viento	3.22
92535	7	Sololá	717	San Juan la Laguna	12	San Juan la Laguna	12	Diciembre	2023-02-12T00:00:00	2024-11-08T08:00:00	1	Precipitación	0
92536	7	Sololá	717	San Juan la Laguna	12	San Juan la Laguna	12	Diciembre	2023-02-12T00:00:00	2024-11-08T08:00:00	8	Radiación solar	166
92537	7	Sololá	717	San Juan la Laguna	12	San Juan la Laguna	12	Diciembre	2023-02-12T00:00:00	2024-11-08T09:00:00	2	Temperatura media	19.3
92538	7	Sololá	717	San Juan la Laguna	12	San Juan la Laguna	12	Diciembre	2023-02-12T00:00:00	2024-11-08T09:00:00	4	Temperatura máxima	19.3
92539	7	Sololá	717	San Juan la Laguna	12	San Juan la Laguna	12	Diciembre	2023-02-12T00:00:00	2024-11-08T09:00:00	3	Temperatura mínima	17
92540	7	Sololá	717	San Juan la Laguna	12	San Juan la Laguna	12	Diciembre	2023-02-12T00:00:00	2024-11-08T09:00:00	5	Humedad	76
92541	7	Sololá	717	San Juan la Laguna	12	San Juan la Laguna	12	Diciembre	2023-02-12T00:00:00	2024-11-08T09:00:00	6	Velocidad del viento	3.2
92542	7	Sololá	717	San Juan la Laguna	12	San Juan la Laguna	12	Diciembre	2023-02-12T00:00:00	2024-11-08T09:00:00	7	Dirección del viento	3.22
92543	7	Sololá	717	San Juan la Laguna	12	San Juan la Laguna	12	Diciembre	2023-02-12T00:00:00	2024-11-08T09:00:00	1	Precipitación	0
92544	7	Sololá	717	San Juan la Laguna	12	San Juan la Laguna	12	Diciembre	2023-02-12T00:00:00	2024-11-08T09:00:00	8	Radiación solar	389
92545	7	Sololá	717	San Juan la Laguna	12	San Juan la Laguna	12	Diciembre	2023-02-12T00:00:00	2024-11-08T10:00:00	2	Temperatura media	20.2
92546	7	Sololá	717	San Juan la Laguna	12	San Juan la Laguna	12	Diciembre	2023-02-12T00:00:00	2024-11-08T10:00:00	4	Temperatura máxima	20.3
92547	7	Sololá	717	San Juan la Laguna	12	San Juan la Laguna	12	Diciembre	2023-02-12T00:00:00	2024-11-08T10:00:00	3	Temperatura mínima	19.3
92548	7	Sololá	717	San Juan la Laguna	12	San Juan la Laguna	12	Diciembre	2023-02-12T00:00:00	2024-11-08T10:00:00	5	Humedad	74
92549	7	Sololá	717	San Juan la Laguna	12	San Juan la Laguna	12	Diciembre	2023-02-12T00:00:00	2024-11-08T10:00:00	6	Velocidad del viento	4.8
92550	7	Sololá	717	San Juan la Laguna	12	San Juan la Laguna	12	Diciembre	2023-02-12T00:00:00	2024-11-08T10:00:00	7	Dirección del viento	4.83
92551	7	Sololá	717	San Juan la Laguna	12	San Juan la Laguna	12	Diciembre	2023-02-12T00:00:00	2024-11-08T10:00:00	1	Precipitación	0
92552	7	Sololá	717	San Juan la Laguna	12	San Juan la Laguna	12	Diciembre	2023-02-12T00:00:00	2024-11-08T10:00:00	8	Radiación solar	570
92553	7	Sololá	717	San Juan la Laguna	12	San Juan la Laguna	12	Diciembre	2023-02-12T00:00:00	2024-11-08T11:00:00	2	Temperatura media	22.6
92554	7	Sololá	717	San Juan la Laguna	12	San Juan la Laguna	12	Diciembre	2023-02-12T00:00:00	2024-11-08T11:00:00	4	Temperatura máxima	22.7
92555	7	Sololá	717	San Juan la Laguna	12	San Juan la Laguna	12	Diciembre	2023-02-12T00:00:00	2024-11-08T11:00:00	3	Temperatura mínima	20.2
92556	7	Sololá	717	San Juan la Laguna	12	San Juan la Laguna	12	Diciembre	2023-02-12T00:00:00	2024-11-08T11:00:00	5	Humedad	61
92557	7	Sololá	717	San Juan la Laguna	12	San Juan la Laguna	12	Diciembre	2023-02-12T00:00:00	2024-11-08T11:00:00	6	Velocidad del viento	4.8
92558	7	Sololá	717	San Juan la Laguna	12	San Juan la Laguna	12	Diciembre	2023-02-12T00:00:00	2024-11-08T11:00:00	7	Dirección del viento	4.83
92559	7	Sololá	717	San Juan la Laguna	12	San Juan la Laguna	12	Diciembre	2023-02-12T00:00:00	2024-11-08T11:00:00	1	Precipitación	0
92560	7	Sololá	717	San Juan la Laguna	12	San Juan la Laguna	12	Diciembre	2023-02-12T00:00:00	2024-11-08T11:00:00	8	Radiación solar	591
92561	7	Sololá	717	San Juan la Laguna	12	San Juan la Laguna	12	Diciembre	2023-02-12T00:00:00	2024-11-08T12:00:00	2	Temperatura media	24.1
92562	7	Sololá	717	San Juan la Laguna	12	San Juan la Laguna	12	Diciembre	2023-02-12T00:00:00	2024-11-08T12:00:00	4	Temperatura máxima	24.1
92563	7	Sololá	717	San Juan la Laguna	12	San Juan la Laguna	12	Diciembre	2023-02-12T00:00:00	2024-11-08T12:00:00	3	Temperatura mínima	22.6
92564	7	Sololá	717	San Juan la Laguna	12	San Juan la Laguna	12	Diciembre	2023-02-12T00:00:00	2024-11-08T12:00:00	5	Humedad	51
92565	7	Sololá	717	San Juan la Laguna	12	San Juan la Laguna	12	Diciembre	2023-02-12T00:00:00	2024-11-08T12:00:00	6	Velocidad del viento	4.8
92566	7	Sololá	717	San Juan la Laguna	12	San Juan la Laguna	12	Diciembre	2023-02-12T00:00:00	2024-11-08T12:00:00	7	Dirección del viento	4.83
92567	7	Sololá	717	San Juan la Laguna	12	San Juan la Laguna	12	Diciembre	2023-02-12T00:00:00	2024-11-08T12:00:00	1	Precipitación	0
92568	7	Sololá	717	San Juan la Laguna	12	San Juan la Laguna	12	Diciembre	2023-02-12T00:00:00	2024-11-08T12:00:00	8	Radiación solar	736
92569	7	Sololá	717	San Juan la Laguna	12	San Juan la Laguna	12	Diciembre	2023-02-12T00:00:00	2024-11-08T13:00:00	2	Temperatura media	23.8
92570	7	Sololá	717	San Juan la Laguna	12	San Juan la Laguna	12	Diciembre	2023-02-12T00:00:00	2024-11-08T13:00:00	4	Temperatura máxima	24.2
92571	7	Sololá	717	San Juan la Laguna	12	San Juan la Laguna	12	Diciembre	2023-02-12T00:00:00	2024-11-08T13:00:00	3	Temperatura mínima	23.4
92572	7	Sololá	717	San Juan la Laguna	12	San Juan la Laguna	12	Diciembre	2023-02-12T00:00:00	2024-11-08T13:00:00	5	Humedad	63
92573	7	Sololá	717	San Juan la Laguna	12	San Juan la Laguna	12	Diciembre	2023-02-12T00:00:00	2024-11-08T13:00:00	6	Velocidad del viento	6.4
92574	7	Sololá	717	San Juan la Laguna	12	San Juan la Laguna	12	Diciembre	2023-02-12T00:00:00	2024-11-08T13:00:00	7	Dirección del viento	6.44
92575	7	Sololá	717	San Juan la Laguna	12	San Juan la Laguna	12	Diciembre	2023-02-12T00:00:00	2024-11-08T13:00:00	1	Precipitación	0
92576	7	Sololá	717	San Juan la Laguna	12	San Juan la Laguna	12	Diciembre	2023-02-12T00:00:00	2024-11-08T13:00:00	8	Radiación solar	742
92577	7	Sololá	717	San Juan la Laguna	12	San Juan la Laguna	12	Diciembre	2023-02-12T00:00:00	2024-11-08T14:00:00	2	Temperatura media	23.9
92578	7	Sololá	717	San Juan la Laguna	12	San Juan la Laguna	12	Diciembre	2023-02-12T00:00:00	2024-11-08T14:00:00	4	Temperatura máxima	24.1
92579	7	Sololá	717	San Juan la Laguna	12	San Juan la Laguna	12	Diciembre	2023-02-12T00:00:00	2024-11-08T14:00:00	3	Temperatura mínima	23.4
92580	7	Sololá	717	San Juan la Laguna	12	San Juan la Laguna	12	Diciembre	2023-02-12T00:00:00	2024-11-08T14:00:00	5	Humedad	66
92581	7	Sololá	717	San Juan la Laguna	12	San Juan la Laguna	12	Diciembre	2023-02-12T00:00:00	2024-11-08T14:00:00	6	Velocidad del viento	6.4
92582	7	Sololá	717	San Juan la Laguna	12	San Juan la Laguna	12	Diciembre	2023-02-12T00:00:00	2024-11-08T14:00:00	7	Dirección del viento	6.44
92583	7	Sololá	717	San Juan la Laguna	12	San Juan la Laguna	12	Diciembre	2023-02-12T00:00:00	2024-11-08T14:00:00	1	Precipitación	0
92584	7	Sololá	717	San Juan la Laguna	12	San Juan la Laguna	12	Diciembre	2023-02-12T00:00:00	2024-11-08T14:00:00	8	Radiación solar	686
92585	7	Sololá	717	San Juan la Laguna	12	San Juan la Laguna	12	Diciembre	2023-02-12T00:00:00	2024-11-08T15:00:00	2	Temperatura media	23.8
92586	7	Sololá	717	San Juan la Laguna	12	San Juan la Laguna	12	Diciembre	2023-02-12T00:00:00	2024-11-08T15:00:00	4	Temperatura máxima	24.8
92587	7	Sololá	717	San Juan la Laguna	12	San Juan la Laguna	12	Diciembre	2023-02-12T00:00:00	2024-11-08T15:00:00	3	Temperatura mínima	23.3
92588	7	Sololá	717	San Juan la Laguna	12	San Juan la Laguna	12	Diciembre	2023-02-12T00:00:00	2024-11-08T15:00:00	5	Humedad	69
92589	7	Sololá	717	San Juan la Laguna	12	San Juan la Laguna	12	Diciembre	2023-02-12T00:00:00	2024-11-08T15:00:00	6	Velocidad del viento	8
92590	7	Sololá	717	San Juan la Laguna	12	San Juan la Laguna	12	Diciembre	2023-02-12T00:00:00	2024-11-08T15:00:00	7	Dirección del viento	8.05
92591	7	Sololá	717	San Juan la Laguna	12	San Juan la Laguna	12	Diciembre	2023-02-12T00:00:00	2024-11-08T15:00:00	1	Precipitación	0
92592	7	Sololá	717	San Juan la Laguna	12	San Juan la Laguna	12	Diciembre	2023-02-12T00:00:00	2024-11-08T15:00:00	8	Radiación solar	555
92593	7	Sololá	717	San Juan la Laguna	12	San Juan la Laguna	12	Diciembre	2023-02-12T00:00:00	2024-11-08T16:00:00	2	Temperatura media	23.3
92594	7	Sololá	717	San Juan la Laguna	12	San Juan la Laguna	12	Diciembre	2023-02-12T00:00:00	2024-11-08T16:00:00	4	Temperatura máxima	23.9
92595	7	Sololá	717	San Juan la Laguna	12	San Juan la Laguna	12	Diciembre	2023-02-12T00:00:00	2024-11-08T16:00:00	3	Temperatura mínima	23.2
92596	7	Sololá	717	San Juan la Laguna	12	San Juan la Laguna	12	Diciembre	2023-02-12T00:00:00	2024-11-08T16:00:00	5	Humedad	70
92597	7	Sololá	717	San Juan la Laguna	12	San Juan la Laguna	12	Diciembre	2023-02-12T00:00:00	2024-11-08T16:00:00	6	Velocidad del viento	8
92598	7	Sololá	717	San Juan la Laguna	12	San Juan la Laguna	12	Diciembre	2023-02-12T00:00:00	2024-11-08T16:00:00	7	Dirección del viento	8.05
92599	7	Sololá	717	San Juan la Laguna	12	San Juan la Laguna	12	Diciembre	2023-02-12T00:00:00	2024-11-08T16:00:00	1	Precipitación	0
92600	7	Sololá	717	San Juan la Laguna	12	San Juan la Laguna	12	Diciembre	2023-02-12T00:00:00	2024-11-08T16:00:00	8	Radiación solar	371
92601	7	Sololá	717	San Juan la Laguna	12	San Juan la Laguna	12	Diciembre	2023-02-12T00:00:00	2024-11-08T17:00:00	2	Temperatura media	21.2
92602	7	Sololá	717	San Juan la Laguna	12	San Juan la Laguna	12	Diciembre	2023-02-12T00:00:00	2024-11-08T17:00:00	4	Temperatura máxima	23.3
92603	7	Sololá	717	San Juan la Laguna	12	San Juan la Laguna	12	Diciembre	2023-02-12T00:00:00	2024-11-08T17:00:00	3	Temperatura mínima	21.2
92604	7	Sololá	717	San Juan la Laguna	12	San Juan la Laguna	12	Diciembre	2023-02-12T00:00:00	2024-11-08T17:00:00	5	Humedad	78
92605	7	Sololá	717	San Juan la Laguna	12	San Juan la Laguna	12	Diciembre	2023-02-12T00:00:00	2024-11-08T17:00:00	6	Velocidad del viento	4.8
92606	7	Sololá	717	San Juan la Laguna	12	San Juan la Laguna	12	Diciembre	2023-02-12T00:00:00	2024-11-08T17:00:00	7	Dirección del viento	4.83
92607	7	Sololá	717	San Juan la Laguna	12	San Juan la Laguna	12	Diciembre	2023-02-12T00:00:00	2024-11-08T17:00:00	1	Precipitación	0
92608	7	Sololá	717	San Juan la Laguna	12	San Juan la Laguna	12	Diciembre	2023-02-12T00:00:00	2024-11-08T17:00:00	8	Radiación solar	108
92609	7	Sololá	717	San Juan la Laguna	12	San Juan la Laguna	12	Diciembre	2023-02-12T00:00:00	2024-11-08T18:00:00	2	Temperatura media	20.2
92610	7	Sololá	717	San Juan la Laguna	12	San Juan la Laguna	12	Diciembre	2023-02-12T00:00:00	2024-11-08T18:00:00	4	Temperatura máxima	21.2
92611	7	Sololá	717	San Juan la Laguna	12	San Juan la Laguna	12	Diciembre	2023-02-12T00:00:00	2024-11-08T18:00:00	3	Temperatura mínima	20.2
92612	7	Sololá	717	San Juan la Laguna	12	San Juan la Laguna	12	Diciembre	2023-02-12T00:00:00	2024-11-08T18:00:00	5	Humedad	82
92613	7	Sololá	717	San Juan la Laguna	12	San Juan la Laguna	12	Diciembre	2023-02-12T00:00:00	2024-11-08T18:00:00	6	Velocidad del viento	1.6
92614	7	Sololá	717	San Juan la Laguna	12	San Juan la Laguna	12	Diciembre	2023-02-12T00:00:00	2024-11-08T18:00:00	7	Dirección del viento	1.61
92615	7	Sololá	717	San Juan la Laguna	12	San Juan la Laguna	12	Diciembre	2023-02-12T00:00:00	2024-11-08T18:00:00	1	Precipitación	0
92616	7	Sololá	717	San Juan la Laguna	12	San Juan la Laguna	12	Diciembre	2023-02-12T00:00:00	2024-11-08T18:00:00	8	Radiación solar	10
92617	7	Sololá	717	San Juan la Laguna	12	San Juan la Laguna	12	Diciembre	2023-02-12T00:00:00	2024-11-08T19:00:00	2	Temperatura media	19.9
92618	7	Sololá	717	San Juan la Laguna	12	San Juan la Laguna	12	Diciembre	2023-02-12T00:00:00	2024-11-08T19:00:00	4	Temperatura máxima	20.2
92619	7	Sololá	717	San Juan la Laguna	12	San Juan la Laguna	12	Diciembre	2023-02-12T00:00:00	2024-11-08T19:00:00	3	Temperatura mínima	19.8
92620	7	Sololá	717	San Juan la Laguna	12	San Juan la Laguna	12	Diciembre	2023-02-12T00:00:00	2024-11-08T19:00:00	5	Humedad	84
92621	7	Sololá	717	San Juan la Laguna	12	San Juan la Laguna	12	Diciembre	2023-02-12T00:00:00	2024-11-08T19:00:00	6	Velocidad del viento	1.6
92622	7	Sololá	717	San Juan la Laguna	12	San Juan la Laguna	12	Diciembre	2023-02-12T00:00:00	2024-11-08T19:00:00	7	Dirección del viento	1.61
92623	7	Sololá	717	San Juan la Laguna	12	San Juan la Laguna	12	Diciembre	2023-02-12T00:00:00	2024-11-08T19:00:00	1	Precipitación	0
92624	7	Sololá	717	San Juan la Laguna	12	San Juan la Laguna	12	Diciembre	2023-02-12T00:00:00	2024-11-08T19:00:00	8	Radiación solar	0
92625	7	Sololá	717	San Juan la Laguna	12	San Juan la Laguna	12	Diciembre	2023-02-12T00:00:00	2024-11-08T20:00:00	2	Temperatura media	19.1
92626	7	Sololá	717	San Juan la Laguna	12	San Juan la Laguna	12	Diciembre	2023-02-12T00:00:00	2024-11-08T20:00:00	4	Temperatura máxima	20
92627	7	Sololá	717	San Juan la Laguna	12	San Juan la Laguna	12	Diciembre	2023-02-12T00:00:00	2024-11-08T20:00:00	3	Temperatura mínima	19.1
92628	7	Sololá	717	San Juan la Laguna	12	San Juan la Laguna	12	Diciembre	2023-02-12T00:00:00	2024-11-08T20:00:00	5	Humedad	87
92629	7	Sololá	717	San Juan la Laguna	12	San Juan la Laguna	12	Diciembre	2023-02-12T00:00:00	2024-11-08T20:00:00	6	Velocidad del viento	1.6
92630	7	Sololá	717	San Juan la Laguna	12	San Juan la Laguna	12	Diciembre	2023-02-12T00:00:00	2024-11-08T20:00:00	7	Dirección del viento	1.61
92631	7	Sololá	717	San Juan la Laguna	12	San Juan la Laguna	12	Diciembre	2023-02-12T00:00:00	2024-11-08T20:00:00	1	Precipitación	0
92632	7	Sololá	717	San Juan la Laguna	12	San Juan la Laguna	12	Diciembre	2023-02-12T00:00:00	2024-11-08T20:00:00	8	Radiación solar	0
92633	7	Sololá	717	San Juan la Laguna	12	San Juan la Laguna	12	Diciembre	2023-02-12T00:00:00	2024-11-08T21:00:00	2	Temperatura media	17.4
92634	7	Sololá	717	San Juan la Laguna	12	San Juan la Laguna	12	Diciembre	2023-02-12T00:00:00	2024-11-08T21:00:00	4	Temperatura máxima	19.1
92635	7	Sololá	717	San Juan la Laguna	12	San Juan la Laguna	12	Diciembre	2023-02-12T00:00:00	2024-11-08T21:00:00	3	Temperatura mínima	17.4
92636	7	Sololá	717	San Juan la Laguna	12	San Juan la Laguna	12	Diciembre	2023-02-12T00:00:00	2024-11-08T21:00:00	5	Humedad	86
92637	7	Sololá	717	San Juan la Laguna	12	San Juan la Laguna	12	Diciembre	2023-02-12T00:00:00	2024-11-08T21:00:00	6	Velocidad del viento	3.2
92638	7	Sololá	717	San Juan la Laguna	12	San Juan la Laguna	12	Diciembre	2023-02-12T00:00:00	2024-11-08T21:00:00	7	Dirección del viento	3.22
92639	7	Sololá	717	San Juan la Laguna	12	San Juan la Laguna	12	Diciembre	2023-02-12T00:00:00	2024-11-08T21:00:00	1	Precipitación	0
92640	7	Sololá	717	San Juan la Laguna	12	San Juan la Laguna	12	Diciembre	2023-02-12T00:00:00	2024-11-08T21:00:00	8	Radiación solar	0
92641	7	Sololá	717	San Juan la Laguna	12	San Juan la Laguna	12	Diciembre	2023-02-12T00:00:00	2024-11-08T22:00:00	2	Temperatura media	16.6
92642	7	Sololá	717	San Juan la Laguna	12	San Juan la Laguna	12	Diciembre	2023-02-12T00:00:00	2024-11-08T22:00:00	4	Temperatura máxima	17.4
92643	7	Sololá	717	San Juan la Laguna	12	San Juan la Laguna	12	Diciembre	2023-02-12T00:00:00	2024-11-08T22:00:00	3	Temperatura mínima	16.6
92644	7	Sololá	717	San Juan la Laguna	12	San Juan la Laguna	12	Diciembre	2023-02-12T00:00:00	2024-11-08T22:00:00	5	Humedad	80
92645	7	Sololá	717	San Juan la Laguna	12	San Juan la Laguna	12	Diciembre	2023-02-12T00:00:00	2024-11-08T22:00:00	6	Velocidad del viento	4.8
92646	7	Sololá	717	San Juan la Laguna	12	San Juan la Laguna	12	Diciembre	2023-02-12T00:00:00	2024-11-08T22:00:00	7	Dirección del viento	4.83
92647	7	Sololá	717	San Juan la Laguna	12	San Juan la Laguna	12	Diciembre	2023-02-12T00:00:00	2024-11-08T22:00:00	1	Precipitación	0
92648	7	Sololá	717	San Juan la Laguna	12	San Juan la Laguna	12	Diciembre	2023-02-12T00:00:00	2024-11-08T22:00:00	8	Radiación solar	0
92649	7	Sololá	717	San Juan la Laguna	12	San Juan la Laguna	12	Diciembre	2023-02-12T00:00:00	2024-11-08T23:00:00	2	Temperatura media	16.4
92650	7	Sololá	717	San Juan la Laguna	12	San Juan la Laguna	12	Diciembre	2023-02-12T00:00:00	2024-11-08T23:00:00	4	Temperatura máxima	16.6
92651	7	Sololá	717	San Juan la Laguna	12	San Juan la Laguna	12	Diciembre	2023-02-12T00:00:00	2024-11-08T23:00:00	3	Temperatura mínima	15.9
92652	7	Sololá	717	San Juan la Laguna	12	San Juan la Laguna	12	Diciembre	2023-02-12T00:00:00	2024-11-08T23:00:00	5	Humedad	76
92653	7	Sololá	717	San Juan la Laguna	12	San Juan la Laguna	12	Diciembre	2023-02-12T00:00:00	2024-11-08T23:00:00	6	Velocidad del viento	6.4
92654	7	Sololá	717	San Juan la Laguna	12	San Juan la Laguna	12	Diciembre	2023-02-12T00:00:00	2024-11-08T23:00:00	7	Dirección del viento	6.44
92655	7	Sololá	717	San Juan la Laguna	12	San Juan la Laguna	12	Diciembre	2023-02-12T00:00:00	2024-11-08T23:00:00	1	Precipitación	0
92656	7	Sololá	717	San Juan la Laguna	12	San Juan la Laguna	12	Diciembre	2023-02-12T00:00:00	2024-11-08T23:00:00	8	Radiación solar	0
92657	7	Sololá	717	San Juan la Laguna	12	San Juan la Laguna	12	Diciembre	2023-03-12T00:00:00	2024-11-08T00:00:00	2	Temperatura media	15.5
92658	7	Sololá	717	San Juan la Laguna	12	San Juan la Laguna	12	Diciembre	2023-03-12T00:00:00	2024-11-08T00:00:00	4	Temperatura máxima	16.4
92659	7	Sololá	717	San Juan la Laguna	12	San Juan la Laguna	12	Diciembre	2023-03-12T00:00:00	2024-11-08T00:00:00	3	Temperatura mínima	15.5
92660	7	Sololá	717	San Juan la Laguna	12	San Juan la Laguna	12	Diciembre	2023-03-12T00:00:00	2024-11-08T00:00:00	5	Humedad	79
92661	7	Sololá	717	San Juan la Laguna	12	San Juan la Laguna	12	Diciembre	2023-03-12T00:00:00	2024-11-08T00:00:00	6	Velocidad del viento	4.8
92662	7	Sololá	717	San Juan la Laguna	12	San Juan la Laguna	12	Diciembre	2023-03-12T00:00:00	2024-11-08T00:00:00	7	Dirección del viento	4.83
92663	7	Sololá	717	San Juan la Laguna	12	San Juan la Laguna	12	Diciembre	2023-03-12T00:00:00	2024-11-08T00:00:00	1	Precipitación	0
92664	7	Sololá	717	San Juan la Laguna	12	San Juan la Laguna	12	Diciembre	2023-03-12T00:00:00	2024-11-08T00:00:00	8	Radiación solar	0
92665	7	Sololá	717	San Juan la Laguna	12	San Juan la Laguna	12	Diciembre	2023-03-12T00:00:00	2024-11-08T01:00:00	2	Temperatura media	14.9
92666	7	Sololá	717	San Juan la Laguna	12	San Juan la Laguna	12	Diciembre	2023-03-12T00:00:00	2024-11-08T01:00:00	4	Temperatura máxima	15.7
92667	7	Sololá	717	San Juan la Laguna	12	San Juan la Laguna	12	Diciembre	2023-03-12T00:00:00	2024-11-08T01:00:00	3	Temperatura mínima	14.7
92668	7	Sololá	717	San Juan la Laguna	12	San Juan la Laguna	12	Diciembre	2023-03-12T00:00:00	2024-11-08T01:00:00	5	Humedad	80
92669	7	Sololá	717	San Juan la Laguna	12	San Juan la Laguna	12	Diciembre	2023-03-12T00:00:00	2024-11-08T01:00:00	6	Velocidad del viento	6.4
92670	7	Sololá	717	San Juan la Laguna	12	San Juan la Laguna	12	Diciembre	2023-03-12T00:00:00	2024-11-08T01:00:00	7	Dirección del viento	6.44
92671	7	Sololá	717	San Juan la Laguna	12	San Juan la Laguna	12	Diciembre	2023-03-12T00:00:00	2024-11-08T01:00:00	1	Precipitación	0
92672	7	Sololá	717	San Juan la Laguna	12	San Juan la Laguna	12	Diciembre	2023-03-12T00:00:00	2024-11-08T01:00:00	8	Radiación solar	0
92673	7	Sololá	717	San Juan la Laguna	12	San Juan la Laguna	12	Diciembre	2023-03-12T00:00:00	2024-11-08T02:00:00	2	Temperatura media	14
92674	7	Sololá	717	San Juan la Laguna	12	San Juan la Laguna	12	Diciembre	2023-03-12T00:00:00	2024-11-08T02:00:00	4	Temperatura máxima	14.9
92675	7	Sololá	717	San Juan la Laguna	12	San Juan la Laguna	12	Diciembre	2023-03-12T00:00:00	2024-11-08T02:00:00	3	Temperatura mínima	13.9
92676	7	Sololá	717	San Juan la Laguna	12	San Juan la Laguna	12	Diciembre	2023-03-12T00:00:00	2024-11-08T02:00:00	5	Humedad	83
92677	7	Sololá	717	San Juan la Laguna	12	San Juan la Laguna	12	Diciembre	2023-03-12T00:00:00	2024-11-08T02:00:00	6	Velocidad del viento	4.8
92678	7	Sololá	717	San Juan la Laguna	12	San Juan la Laguna	12	Diciembre	2023-03-12T00:00:00	2024-11-08T02:00:00	7	Dirección del viento	4.83
92679	7	Sololá	717	San Juan la Laguna	12	San Juan la Laguna	12	Diciembre	2023-03-12T00:00:00	2024-11-08T02:00:00	1	Precipitación	0
92680	7	Sololá	717	San Juan la Laguna	12	San Juan la Laguna	12	Diciembre	2023-03-12T00:00:00	2024-11-08T02:00:00	8	Radiación solar	0
92681	7	Sololá	717	San Juan la Laguna	12	San Juan la Laguna	12	Diciembre	2023-03-12T00:00:00	2024-11-08T03:00:00	2	Temperatura media	13.9
92682	7	Sololá	717	San Juan la Laguna	12	San Juan la Laguna	12	Diciembre	2023-03-12T00:00:00	2024-11-08T03:00:00	4	Temperatura máxima	14.6
92683	7	Sololá	717	San Juan la Laguna	12	San Juan la Laguna	12	Diciembre	2023-03-12T00:00:00	2024-11-08T03:00:00	3	Temperatura mínima	13.9
92684	7	Sololá	717	San Juan la Laguna	12	San Juan la Laguna	12	Diciembre	2023-03-12T00:00:00	2024-11-08T03:00:00	5	Humedad	82
92685	7	Sololá	717	San Juan la Laguna	12	San Juan la Laguna	12	Diciembre	2023-03-12T00:00:00	2024-11-08T03:00:00	6	Velocidad del viento	6.4
92686	7	Sololá	717	San Juan la Laguna	12	San Juan la Laguna	12	Diciembre	2023-03-12T00:00:00	2024-11-08T03:00:00	7	Dirección del viento	6.44
92687	7	Sololá	717	San Juan la Laguna	12	San Juan la Laguna	12	Diciembre	2023-03-12T00:00:00	2024-11-08T03:00:00	1	Precipitación	0
92688	7	Sololá	717	San Juan la Laguna	12	San Juan la Laguna	12	Diciembre	2023-03-12T00:00:00	2024-11-08T03:00:00	8	Radiación solar	0
92689	7	Sololá	717	San Juan la Laguna	12	San Juan la Laguna	12	Diciembre	2023-03-12T00:00:00	2024-11-08T04:00:00	2	Temperatura media	13.6
92690	7	Sololá	717	San Juan la Laguna	12	San Juan la Laguna	12	Diciembre	2023-03-12T00:00:00	2024-11-08T04:00:00	4	Temperatura máxima	13.9
92691	7	Sololá	717	San Juan la Laguna	12	San Juan la Laguna	12	Diciembre	2023-03-12T00:00:00	2024-11-08T04:00:00	3	Temperatura mínima	13.4
92692	7	Sololá	717	San Juan la Laguna	12	San Juan la Laguna	12	Diciembre	2023-03-12T00:00:00	2024-11-08T04:00:00	5	Humedad	78
92693	7	Sololá	717	San Juan la Laguna	12	San Juan la Laguna	12	Diciembre	2023-03-12T00:00:00	2024-11-08T04:00:00	6	Velocidad del viento	6.4
92694	7	Sololá	717	San Juan la Laguna	12	San Juan la Laguna	12	Diciembre	2023-03-12T00:00:00	2024-11-08T04:00:00	7	Dirección del viento	6.44
92695	7	Sololá	717	San Juan la Laguna	12	San Juan la Laguna	12	Diciembre	2023-03-12T00:00:00	2024-11-08T04:00:00	1	Precipitación	0
92696	7	Sololá	717	San Juan la Laguna	12	San Juan la Laguna	12	Diciembre	2023-03-12T00:00:00	2024-11-08T04:00:00	8	Radiación solar	0
92697	7	Sololá	717	San Juan la Laguna	12	San Juan la Laguna	12	Diciembre	2023-03-12T00:00:00	2024-11-08T05:00:00	2	Temperatura media	13.2
92698	7	Sololá	717	San Juan la Laguna	12	San Juan la Laguna	12	Diciembre	2023-03-12T00:00:00	2024-11-08T05:00:00	4	Temperatura máxima	14
92699	7	Sololá	717	San Juan la Laguna	12	San Juan la Laguna	12	Diciembre	2023-03-12T00:00:00	2024-11-08T05:00:00	3	Temperatura mínima	13.2
92700	7	Sololá	717	San Juan la Laguna	12	San Juan la Laguna	12	Diciembre	2023-03-12T00:00:00	2024-11-08T05:00:00	5	Humedad	79
92701	7	Sololá	717	San Juan la Laguna	12	San Juan la Laguna	12	Diciembre	2023-03-12T00:00:00	2024-11-08T05:00:00	6	Velocidad del viento	4.8
92702	7	Sololá	717	San Juan la Laguna	12	San Juan la Laguna	12	Diciembre	2023-03-12T00:00:00	2024-11-08T05:00:00	7	Dirección del viento	4.83
92703	7	Sololá	717	San Juan la Laguna	12	San Juan la Laguna	12	Diciembre	2023-03-12T00:00:00	2024-11-08T05:00:00	1	Precipitación	0
92704	7	Sololá	717	San Juan la Laguna	12	San Juan la Laguna	12	Diciembre	2023-03-12T00:00:00	2024-11-08T05:00:00	8	Radiación solar	0
92705	7	Sololá	717	San Juan la Laguna	12	San Juan la Laguna	12	Diciembre	2023-03-12T00:00:00	2024-11-08T06:00:00	2	Temperatura media	13.1
92706	7	Sololá	717	San Juan la Laguna	12	San Juan la Laguna	12	Diciembre	2023-03-12T00:00:00	2024-11-08T06:00:00	4	Temperatura máxima	13.2
92707	7	Sololá	717	San Juan la Laguna	12	San Juan la Laguna	12	Diciembre	2023-03-12T00:00:00	2024-11-08T06:00:00	3	Temperatura mínima	12.8
92708	7	Sololá	717	San Juan la Laguna	12	San Juan la Laguna	12	Diciembre	2023-03-12T00:00:00	2024-11-08T06:00:00	5	Humedad	78
92709	7	Sololá	717	San Juan la Laguna	12	San Juan la Laguna	12	Diciembre	2023-03-12T00:00:00	2024-11-08T06:00:00	6	Velocidad del viento	6.4
92710	7	Sololá	717	San Juan la Laguna	12	San Juan la Laguna	12	Diciembre	2023-03-12T00:00:00	2024-11-08T06:00:00	7	Dirección del viento	6.44
92711	7	Sololá	717	San Juan la Laguna	12	San Juan la Laguna	12	Diciembre	2023-03-12T00:00:00	2024-11-08T06:00:00	1	Precipitación	0
92712	7	Sololá	717	San Juan la Laguna	12	San Juan la Laguna	12	Diciembre	2023-03-12T00:00:00	2024-11-08T06:00:00	8	Radiación solar	0
92713	7	Sololá	717	San Juan la Laguna	12	San Juan la Laguna	12	Diciembre	2023-03-12T00:00:00	2024-11-08T07:00:00	2	Temperatura media	13.2
92714	7	Sololá	717	San Juan la Laguna	12	San Juan la Laguna	12	Diciembre	2023-03-12T00:00:00	2024-11-08T07:00:00	4	Temperatura máxima	13.3
92715	7	Sololá	717	San Juan la Laguna	12	San Juan la Laguna	12	Diciembre	2023-03-12T00:00:00	2024-11-08T07:00:00	3	Temperatura mínima	13
92716	7	Sololá	717	San Juan la Laguna	12	San Juan la Laguna	12	Diciembre	2023-03-12T00:00:00	2024-11-08T07:00:00	5	Humedad	79
92717	7	Sololá	717	San Juan la Laguna	12	San Juan la Laguna	12	Diciembre	2023-03-12T00:00:00	2024-11-08T07:00:00	6	Velocidad del viento	4.8
92718	7	Sololá	717	San Juan la Laguna	12	San Juan la Laguna	12	Diciembre	2023-03-12T00:00:00	2024-11-08T07:00:00	7	Dirección del viento	4.83
92719	7	Sololá	717	San Juan la Laguna	12	San Juan la Laguna	12	Diciembre	2023-03-12T00:00:00	2024-11-08T07:00:00	1	Precipitación	0
92720	7	Sololá	717	San Juan la Laguna	12	San Juan la Laguna	12	Diciembre	2023-03-12T00:00:00	2024-11-08T07:00:00	8	Radiación solar	18
92721	7	Sololá	717	San Juan la Laguna	12	San Juan la Laguna	12	Diciembre	2023-03-12T00:00:00	2024-11-08T08:00:00	2	Temperatura media	16.2
92722	7	Sololá	717	San Juan la Laguna	12	San Juan la Laguna	12	Diciembre	2023-03-12T00:00:00	2024-11-08T08:00:00	4	Temperatura máxima	16.2
92723	7	Sololá	717	San Juan la Laguna	12	San Juan la Laguna	12	Diciembre	2023-03-12T00:00:00	2024-11-08T08:00:00	3	Temperatura mínima	13.2
92724	7	Sololá	717	San Juan la Laguna	12	San Juan la Laguna	12	Diciembre	2023-03-12T00:00:00	2024-11-08T08:00:00	5	Humedad	74
92725	7	Sololá	717	San Juan la Laguna	12	San Juan la Laguna	12	Diciembre	2023-03-12T00:00:00	2024-11-08T08:00:00	6	Velocidad del viento	4.8
92726	7	Sololá	717	San Juan la Laguna	12	San Juan la Laguna	12	Diciembre	2023-03-12T00:00:00	2024-11-08T08:00:00	7	Dirección del viento	4.83
92727	7	Sololá	717	San Juan la Laguna	12	San Juan la Laguna	12	Diciembre	2023-03-12T00:00:00	2024-11-08T08:00:00	1	Precipitación	0
92728	7	Sololá	717	San Juan la Laguna	12	San Juan la Laguna	12	Diciembre	2023-03-12T00:00:00	2024-11-08T08:00:00	8	Radiación solar	176
92729	7	Sololá	717	San Juan la Laguna	12	San Juan la Laguna	12	Diciembre	2023-03-12T00:00:00	2024-11-08T09:00:00	2	Temperatura media	21.3
92730	7	Sololá	717	San Juan la Laguna	12	San Juan la Laguna	12	Diciembre	2023-03-12T00:00:00	2024-11-08T09:00:00	4	Temperatura máxima	21.4
92731	7	Sololá	717	San Juan la Laguna	12	San Juan la Laguna	12	Diciembre	2023-03-12T00:00:00	2024-11-08T09:00:00	3	Temperatura mínima	16.2
92732	7	Sololá	717	San Juan la Laguna	12	San Juan la Laguna	12	Diciembre	2023-03-12T00:00:00	2024-11-08T09:00:00	5	Humedad	64
92733	7	Sololá	717	San Juan la Laguna	12	San Juan la Laguna	12	Diciembre	2023-03-12T00:00:00	2024-11-08T09:00:00	6	Velocidad del viento	1.6
92734	7	Sololá	717	San Juan la Laguna	12	San Juan la Laguna	12	Diciembre	2023-03-12T00:00:00	2024-11-08T09:00:00	7	Dirección del viento	1.61
92735	7	Sololá	717	San Juan la Laguna	12	San Juan la Laguna	12	Diciembre	2023-03-12T00:00:00	2024-11-08T09:00:00	1	Precipitación	0
92736	7	Sololá	717	San Juan la Laguna	12	San Juan la Laguna	12	Diciembre	2023-03-12T00:00:00	2024-11-08T09:00:00	8	Radiación solar	392
92737	7	Sololá	717	San Juan la Laguna	12	San Juan la Laguna	12	Diciembre	2023-03-12T00:00:00	2024-11-08T10:00:00	2	Temperatura media	22.1
92738	7	Sololá	717	San Juan la Laguna	12	San Juan la Laguna	12	Diciembre	2023-03-12T00:00:00	2024-11-08T10:00:00	4	Temperatura máxima	22.1
92739	7	Sololá	717	San Juan la Laguna	12	San Juan la Laguna	12	Diciembre	2023-03-12T00:00:00	2024-11-08T10:00:00	3	Temperatura mínima	20.5
92740	7	Sololá	717	San Juan la Laguna	12	San Juan la Laguna	12	Diciembre	2023-03-12T00:00:00	2024-11-08T10:00:00	5	Humedad	59
92741	7	Sololá	717	San Juan la Laguna	12	San Juan la Laguna	12	Diciembre	2023-03-12T00:00:00	2024-11-08T10:00:00	6	Velocidad del viento	4.8
92742	7	Sololá	717	San Juan la Laguna	12	San Juan la Laguna	12	Diciembre	2023-03-12T00:00:00	2024-11-08T10:00:00	7	Dirección del viento	4.83
92743	7	Sololá	717	San Juan la Laguna	12	San Juan la Laguna	12	Diciembre	2023-03-12T00:00:00	2024-11-08T10:00:00	1	Precipitación	0
92744	7	Sololá	717	San Juan la Laguna	12	San Juan la Laguna	12	Diciembre	2023-03-12T00:00:00	2024-11-08T10:00:00	8	Radiación solar	565
92745	7	Sololá	717	San Juan la Laguna	12	San Juan la Laguna	12	Diciembre	2023-03-12T00:00:00	2024-11-08T11:00:00	2	Temperatura media	23.3
92746	7	Sololá	717	San Juan la Laguna	12	San Juan la Laguna	12	Diciembre	2023-03-12T00:00:00	2024-11-08T11:00:00	4	Temperatura máxima	23.4
92747	7	Sololá	717	San Juan la Laguna	12	San Juan la Laguna	12	Diciembre	2023-03-12T00:00:00	2024-11-08T11:00:00	3	Temperatura mínima	22.1
92748	7	Sololá	717	San Juan la Laguna	12	San Juan la Laguna	12	Diciembre	2023-03-12T00:00:00	2024-11-08T11:00:00	5	Humedad	53
92749	7	Sololá	717	San Juan la Laguna	12	San Juan la Laguna	12	Diciembre	2023-03-12T00:00:00	2024-11-08T11:00:00	6	Velocidad del viento	4.8
92750	7	Sololá	717	San Juan la Laguna	12	San Juan la Laguna	12	Diciembre	2023-03-12T00:00:00	2024-11-08T11:00:00	7	Dirección del viento	4.83
92751	7	Sololá	717	San Juan la Laguna	12	San Juan la Laguna	12	Diciembre	2023-03-12T00:00:00	2024-11-08T11:00:00	1	Precipitación	0
92752	7	Sololá	717	San Juan la Laguna	12	San Juan la Laguna	12	Diciembre	2023-03-12T00:00:00	2024-11-08T11:00:00	8	Radiación solar	587
92753	7	Sololá	717	San Juan la Laguna	12	San Juan la Laguna	12	Diciembre	2023-03-12T00:00:00	2024-11-08T12:00:00	2	Temperatura media	25.9
92754	7	Sololá	717	San Juan la Laguna	12	San Juan la Laguna	12	Diciembre	2023-03-12T00:00:00	2024-11-08T12:00:00	4	Temperatura máxima	25.9
92755	7	Sololá	717	San Juan la Laguna	12	San Juan la Laguna	12	Diciembre	2023-03-12T00:00:00	2024-11-08T12:00:00	3	Temperatura mínima	23.1
92756	7	Sololá	717	San Juan la Laguna	12	San Juan la Laguna	12	Diciembre	2023-03-12T00:00:00	2024-11-08T12:00:00	5	Humedad	48
92757	7	Sololá	717	San Juan la Laguna	12	San Juan la Laguna	12	Diciembre	2023-03-12T00:00:00	2024-11-08T12:00:00	6	Velocidad del viento	6.4
92758	7	Sololá	717	San Juan la Laguna	12	San Juan la Laguna	12	Diciembre	2023-03-12T00:00:00	2024-11-08T12:00:00	7	Dirección del viento	6.44
92759	7	Sololá	717	San Juan la Laguna	12	San Juan la Laguna	12	Diciembre	2023-03-12T00:00:00	2024-11-08T12:00:00	1	Precipitación	0
92760	7	Sololá	717	San Juan la Laguna	12	San Juan la Laguna	12	Diciembre	2023-03-12T00:00:00	2024-11-08T12:00:00	8	Radiación solar	730
92761	7	Sololá	717	San Juan la Laguna	12	San Juan la Laguna	12	Diciembre	2023-03-12T00:00:00	2024-11-08T13:00:00	2	Temperatura media	26.4
92762	7	Sololá	717	San Juan la Laguna	12	San Juan la Laguna	12	Diciembre	2023-03-12T00:00:00	2024-11-08T13:00:00	4	Temperatura máxima	26.7
92763	7	Sololá	717	San Juan la Laguna	12	San Juan la Laguna	12	Diciembre	2023-03-12T00:00:00	2024-11-08T13:00:00	3	Temperatura mínima	25.9
92764	7	Sololá	717	San Juan la Laguna	12	San Juan la Laguna	12	Diciembre	2023-03-12T00:00:00	2024-11-08T13:00:00	5	Humedad	47
92765	7	Sololá	717	San Juan la Laguna	12	San Juan la Laguna	12	Diciembre	2023-03-12T00:00:00	2024-11-08T13:00:00	6	Velocidad del viento	11.3
92766	7	Sololá	717	San Juan la Laguna	12	San Juan la Laguna	12	Diciembre	2023-03-12T00:00:00	2024-11-08T13:00:00	7	Dirección del viento	11.27
92767	7	Sololá	717	San Juan la Laguna	12	San Juan la Laguna	12	Diciembre	2023-03-12T00:00:00	2024-11-08T13:00:00	1	Precipitación	0
92768	7	Sololá	717	San Juan la Laguna	12	San Juan la Laguna	12	Diciembre	2023-03-12T00:00:00	2024-11-08T13:00:00	8	Radiación solar	751
92769	7	Sololá	717	San Juan la Laguna	12	San Juan la Laguna	12	Diciembre	2023-03-12T00:00:00	2024-11-08T14:00:00	2	Temperatura media	26.4
92770	7	Sololá	717	San Juan la Laguna	12	San Juan la Laguna	12	Diciembre	2023-03-12T00:00:00	2024-11-08T14:00:00	4	Temperatura máxima	26.9
92771	7	Sololá	717	San Juan la Laguna	12	San Juan la Laguna	12	Diciembre	2023-03-12T00:00:00	2024-11-08T14:00:00	3	Temperatura mínima	26.3
92772	7	Sololá	717	San Juan la Laguna	12	San Juan la Laguna	12	Diciembre	2023-03-12T00:00:00	2024-11-08T14:00:00	5	Humedad	45
92773	7	Sololá	717	San Juan la Laguna	12	San Juan la Laguna	12	Diciembre	2023-03-12T00:00:00	2024-11-08T14:00:00	6	Velocidad del viento	9.7
92774	7	Sololá	717	San Juan la Laguna	12	San Juan la Laguna	12	Diciembre	2023-03-12T00:00:00	2024-11-08T14:00:00	7	Dirección del viento	9.66
92775	7	Sololá	717	San Juan la Laguna	12	San Juan la Laguna	12	Diciembre	2023-03-12T00:00:00	2024-11-08T14:00:00	1	Precipitación	0
92776	7	Sololá	717	San Juan la Laguna	12	San Juan la Laguna	12	Diciembre	2023-03-12T00:00:00	2024-11-08T14:00:00	8	Radiación solar	695
92777	7	Sololá	717	San Juan la Laguna	12	San Juan la Laguna	12	Diciembre	2023-03-12T00:00:00	2024-11-08T15:00:00	2	Temperatura media	25.7
92778	7	Sololá	717	San Juan la Laguna	12	San Juan la Laguna	12	Diciembre	2023-03-12T00:00:00	2024-11-08T15:00:00	4	Temperatura máxima	26.4
92779	7	Sololá	717	San Juan la Laguna	12	San Juan la Laguna	12	Diciembre	2023-03-12T00:00:00	2024-11-08T15:00:00	3	Temperatura mínima	25.7
92780	7	Sololá	717	San Juan la Laguna	12	San Juan la Laguna	12	Diciembre	2023-03-12T00:00:00	2024-11-08T15:00:00	5	Humedad	49
92781	7	Sololá	717	San Juan la Laguna	12	San Juan la Laguna	12	Diciembre	2023-03-12T00:00:00	2024-11-08T15:00:00	6	Velocidad del viento	9.7
92782	7	Sololá	717	San Juan la Laguna	12	San Juan la Laguna	12	Diciembre	2023-03-12T00:00:00	2024-11-08T15:00:00	7	Dirección del viento	9.66
92783	7	Sololá	717	San Juan la Laguna	12	San Juan la Laguna	12	Diciembre	2023-03-12T00:00:00	2024-11-08T15:00:00	1	Precipitación	0
92784	7	Sololá	717	San Juan la Laguna	12	San Juan la Laguna	12	Diciembre	2023-03-12T00:00:00	2024-11-08T15:00:00	8	Radiación solar	574
92785	7	Sololá	717	San Juan la Laguna	12	San Juan la Laguna	12	Diciembre	2023-03-12T00:00:00	2024-11-08T16:00:00	2	Temperatura media	25.4
92786	7	Sololá	717	San Juan la Laguna	12	San Juan la Laguna	12	Diciembre	2023-03-12T00:00:00	2024-11-08T16:00:00	4	Temperatura máxima	25.8
92787	7	Sololá	717	San Juan la Laguna	12	San Juan la Laguna	12	Diciembre	2023-03-12T00:00:00	2024-11-08T16:00:00	3	Temperatura mínima	25.3
92788	7	Sololá	717	San Juan la Laguna	12	San Juan la Laguna	12	Diciembre	2023-03-12T00:00:00	2024-11-08T16:00:00	5	Humedad	50
92789	7	Sololá	717	San Juan la Laguna	12	San Juan la Laguna	12	Diciembre	2023-03-12T00:00:00	2024-11-08T16:00:00	6	Velocidad del viento	8
92790	7	Sololá	717	San Juan la Laguna	12	San Juan la Laguna	12	Diciembre	2023-03-12T00:00:00	2024-11-08T16:00:00	7	Dirección del viento	8.05
92791	7	Sololá	717	San Juan la Laguna	12	San Juan la Laguna	12	Diciembre	2023-03-12T00:00:00	2024-11-08T16:00:00	1	Precipitación	0
92792	7	Sololá	717	San Juan la Laguna	12	San Juan la Laguna	12	Diciembre	2023-03-12T00:00:00	2024-11-08T16:00:00	8	Radiación solar	433
92793	7	Sololá	717	San Juan la Laguna	12	San Juan la Laguna	12	Diciembre	2023-03-12T00:00:00	2024-11-08T17:00:00	2	Temperatura media	22.2
92794	7	Sololá	717	San Juan la Laguna	12	San Juan la Laguna	12	Diciembre	2023-03-12T00:00:00	2024-11-08T17:00:00	4	Temperatura máxima	25.4
92795	7	Sololá	717	San Juan la Laguna	12	San Juan la Laguna	12	Diciembre	2023-03-12T00:00:00	2024-11-08T17:00:00	3	Temperatura mínima	22.2
92796	7	Sololá	717	San Juan la Laguna	12	San Juan la Laguna	12	Diciembre	2023-03-12T00:00:00	2024-11-08T17:00:00	5	Humedad	66
92797	7	Sololá	717	San Juan la Laguna	12	San Juan la Laguna	12	Diciembre	2023-03-12T00:00:00	2024-11-08T17:00:00	6	Velocidad del viento	6.4
92798	7	Sololá	717	San Juan la Laguna	12	San Juan la Laguna	12	Diciembre	2023-03-12T00:00:00	2024-11-08T17:00:00	7	Dirección del viento	6.44
92799	7	Sololá	717	San Juan la Laguna	12	San Juan la Laguna	12	Diciembre	2023-03-12T00:00:00	2024-11-08T17:00:00	1	Precipitación	0
92800	7	Sololá	717	San Juan la Laguna	12	San Juan la Laguna	12	Diciembre	2023-03-12T00:00:00	2024-11-08T17:00:00	8	Radiación solar	118
92801	7	Sololá	717	San Juan la Laguna	12	San Juan la Laguna	12	Diciembre	2023-03-12T00:00:00	2024-11-08T18:00:00	2	Temperatura media	22.5
92802	7	Sololá	717	San Juan la Laguna	12	San Juan la Laguna	12	Diciembre	2023-03-12T00:00:00	2024-11-08T18:00:00	4	Temperatura máxima	22.8
92803	7	Sololá	717	San Juan la Laguna	12	San Juan la Laguna	12	Diciembre	2023-03-12T00:00:00	2024-11-08T18:00:00	3	Temperatura mínima	22.2
92804	7	Sololá	717	San Juan la Laguna	12	San Juan la Laguna	12	Diciembre	2023-03-12T00:00:00	2024-11-08T18:00:00	5	Humedad	63
92805	7	Sololá	717	San Juan la Laguna	12	San Juan la Laguna	12	Diciembre	2023-03-12T00:00:00	2024-11-08T18:00:00	6	Velocidad del viento	6.4
92806	7	Sololá	717	San Juan la Laguna	12	San Juan la Laguna	12	Diciembre	2023-03-12T00:00:00	2024-11-08T18:00:00	7	Dirección del viento	6.44
92807	7	Sololá	717	San Juan la Laguna	12	San Juan la Laguna	12	Diciembre	2023-03-12T00:00:00	2024-11-08T18:00:00	1	Precipitación	0
92808	7	Sololá	717	San Juan la Laguna	12	San Juan la Laguna	12	Diciembre	2023-03-12T00:00:00	2024-11-08T18:00:00	8	Radiación solar	9
92809	7	Sololá	717	San Juan la Laguna	12	San Juan la Laguna	12	Diciembre	2023-03-12T00:00:00	2024-11-08T19:00:00	2	Temperatura media	21.7
92810	7	Sololá	717	San Juan la Laguna	12	San Juan la Laguna	12	Diciembre	2023-03-12T00:00:00	2024-11-08T19:00:00	4	Temperatura máxima	22.6
92811	7	Sololá	717	San Juan la Laguna	12	San Juan la Laguna	12	Diciembre	2023-03-12T00:00:00	2024-11-08T19:00:00	3	Temperatura mínima	21.7
92812	7	Sololá	717	San Juan la Laguna	12	San Juan la Laguna	12	Diciembre	2023-03-12T00:00:00	2024-11-08T19:00:00	5	Humedad	64
92813	7	Sololá	717	San Juan la Laguna	12	San Juan la Laguna	12	Diciembre	2023-03-12T00:00:00	2024-11-08T19:00:00	6	Velocidad del viento	11.3
92814	7	Sololá	717	San Juan la Laguna	12	San Juan la Laguna	12	Diciembre	2023-03-12T00:00:00	2024-11-08T19:00:00	7	Dirección del viento	11.27
92815	7	Sololá	717	San Juan la Laguna	12	San Juan la Laguna	12	Diciembre	2023-03-12T00:00:00	2024-11-08T19:00:00	1	Precipitación	0
92816	7	Sololá	717	San Juan la Laguna	12	San Juan la Laguna	12	Diciembre	2023-03-12T00:00:00	2024-11-08T19:00:00	8	Radiación solar	0
92817	7	Sololá	717	San Juan la Laguna	12	San Juan la Laguna	12	Diciembre	2023-03-12T00:00:00	2024-11-08T20:00:00	2	Temperatura media	21.3
92818	7	Sololá	717	San Juan la Laguna	12	San Juan la Laguna	12	Diciembre	2023-03-12T00:00:00	2024-11-08T20:00:00	4	Temperatura máxima	21.7
92819	7	Sololá	717	San Juan la Laguna	12	San Juan la Laguna	12	Diciembre	2023-03-12T00:00:00	2024-11-08T20:00:00	3	Temperatura mínima	21.3
92820	7	Sololá	717	San Juan la Laguna	12	San Juan la Laguna	12	Diciembre	2023-03-12T00:00:00	2024-11-08T20:00:00	5	Humedad	61
92821	7	Sololá	717	San Juan la Laguna	12	San Juan la Laguna	12	Diciembre	2023-03-12T00:00:00	2024-11-08T20:00:00	6	Velocidad del viento	16.1
92822	7	Sololá	717	San Juan la Laguna	12	San Juan la Laguna	12	Diciembre	2023-03-12T00:00:00	2024-11-08T20:00:00	7	Dirección del viento	16.09
92823	7	Sololá	717	San Juan la Laguna	12	San Juan la Laguna	12	Diciembre	2023-03-12T00:00:00	2024-11-08T20:00:00	1	Precipitación	0
92824	7	Sololá	717	San Juan la Laguna	12	San Juan la Laguna	12	Diciembre	2023-03-12T00:00:00	2024-11-08T20:00:00	8	Radiación solar	0
92825	7	Sololá	717	San Juan la Laguna	12	San Juan la Laguna	12	Diciembre	2023-03-12T00:00:00	2024-11-08T21:00:00	2	Temperatura media	20.9
92826	7	Sololá	717	San Juan la Laguna	12	San Juan la Laguna	12	Diciembre	2023-03-12T00:00:00	2024-11-08T21:00:00	4	Temperatura máxima	21.3
92827	7	Sololá	717	San Juan la Laguna	12	San Juan la Laguna	12	Diciembre	2023-03-12T00:00:00	2024-11-08T21:00:00	3	Temperatura mínima	20.9
92828	7	Sololá	717	San Juan la Laguna	12	San Juan la Laguna	12	Diciembre	2023-03-12T00:00:00	2024-11-08T21:00:00	5	Humedad	63
92829	7	Sololá	717	San Juan la Laguna	12	San Juan la Laguna	12	Diciembre	2023-03-12T00:00:00	2024-11-08T21:00:00	6	Velocidad del viento	16.1
92830	7	Sololá	717	San Juan la Laguna	12	San Juan la Laguna	12	Diciembre	2023-03-12T00:00:00	2024-11-08T21:00:00	7	Dirección del viento	16.09
92831	7	Sololá	717	San Juan la Laguna	12	San Juan la Laguna	12	Diciembre	2023-03-12T00:00:00	2024-11-08T21:00:00	1	Precipitación	0
92832	7	Sololá	717	San Juan la Laguna	12	San Juan la Laguna	12	Diciembre	2023-03-12T00:00:00	2024-11-08T21:00:00	8	Radiación solar	0
92833	7	Sololá	717	San Juan la Laguna	12	San Juan la Laguna	12	Diciembre	2023-03-12T00:00:00	2024-11-08T22:00:00	2	Temperatura media	20.7
92834	7	Sololá	717	San Juan la Laguna	12	San Juan la Laguna	12	Diciembre	2023-03-12T00:00:00	2024-11-08T22:00:00	4	Temperatura máxima	20.9
92835	7	Sololá	717	San Juan la Laguna	12	San Juan la Laguna	12	Diciembre	2023-03-12T00:00:00	2024-11-08T22:00:00	3	Temperatura mínima	20.7
92836	7	Sololá	717	San Juan la Laguna	12	San Juan la Laguna	12	Diciembre	2023-03-12T00:00:00	2024-11-08T22:00:00	5	Humedad	63
92837	7	Sololá	717	San Juan la Laguna	12	San Juan la Laguna	12	Diciembre	2023-03-12T00:00:00	2024-11-08T22:00:00	6	Velocidad del viento	14.5
92838	7	Sololá	717	San Juan la Laguna	12	San Juan la Laguna	12	Diciembre	2023-03-12T00:00:00	2024-11-08T22:00:00	7	Dirección del viento	14.48
92839	7	Sololá	717	San Juan la Laguna	12	San Juan la Laguna	12	Diciembre	2023-03-12T00:00:00	2024-11-08T22:00:00	1	Precipitación	0
92840	7	Sololá	717	San Juan la Laguna	12	San Juan la Laguna	12	Diciembre	2023-03-12T00:00:00	2024-11-08T22:00:00	8	Radiación solar	0
92841	7	Sololá	717	San Juan la Laguna	12	San Juan la Laguna	12	Diciembre	2023-03-12T00:00:00	2024-11-08T23:00:00	2	Temperatura media	20.4
92842	7	Sololá	717	San Juan la Laguna	12	San Juan la Laguna	12	Diciembre	2023-03-12T00:00:00	2024-11-08T23:00:00	4	Temperatura máxima	20.7
92843	7	Sololá	717	San Juan la Laguna	12	San Juan la Laguna	12	Diciembre	2023-03-12T00:00:00	2024-11-08T23:00:00	3	Temperatura mínima	20.4
92844	7	Sololá	717	San Juan la Laguna	12	San Juan la Laguna	12	Diciembre	2023-03-12T00:00:00	2024-11-08T23:00:00	5	Humedad	67
92845	7	Sololá	717	San Juan la Laguna	12	San Juan la Laguna	12	Diciembre	2023-03-12T00:00:00	2024-11-08T23:00:00	6	Velocidad del viento	12.9
92846	7	Sololá	717	San Juan la Laguna	12	San Juan la Laguna	12	Diciembre	2023-03-12T00:00:00	2024-11-08T23:00:00	7	Dirección del viento	12.87
92847	7	Sololá	717	San Juan la Laguna	12	San Juan la Laguna	12	Diciembre	2023-03-12T00:00:00	2024-11-08T23:00:00	1	Precipitación	0
92848	7	Sololá	717	San Juan la Laguna	12	San Juan la Laguna	12	Diciembre	2023-03-12T00:00:00	2024-11-08T23:00:00	8	Radiación solar	0
92849	7	Sololá	717	San Juan la Laguna	12	San Juan la Laguna	12	Diciembre	2023-04-12T00:00:00	2024-11-08T00:00:00	2	Temperatura media	19.4
92850	7	Sololá	717	San Juan la Laguna	12	San Juan la Laguna	12	Diciembre	2023-04-12T00:00:00	2024-11-08T00:00:00	4	Temperatura máxima	20.4
92851	7	Sololá	717	San Juan la Laguna	12	San Juan la Laguna	12	Diciembre	2023-04-12T00:00:00	2024-11-08T00:00:00	3	Temperatura mínima	19.4
92852	7	Sololá	717	San Juan la Laguna	12	San Juan la Laguna	12	Diciembre	2023-04-12T00:00:00	2024-11-08T00:00:00	5	Humedad	69
92853	7	Sololá	717	San Juan la Laguna	12	San Juan la Laguna	12	Diciembre	2023-04-12T00:00:00	2024-11-08T00:00:00	6	Velocidad del viento	8
92854	7	Sololá	717	San Juan la Laguna	12	San Juan la Laguna	12	Diciembre	2023-04-12T00:00:00	2024-11-08T00:00:00	7	Dirección del viento	8.05
92855	7	Sololá	717	San Juan la Laguna	12	San Juan la Laguna	12	Diciembre	2023-04-12T00:00:00	2024-11-08T00:00:00	1	Precipitación	0
92856	7	Sololá	717	San Juan la Laguna	12	San Juan la Laguna	12	Diciembre	2023-04-12T00:00:00	2024-11-08T00:00:00	8	Radiación solar	0
92857	7	Sololá	717	San Juan la Laguna	12	San Juan la Laguna	12	Diciembre	2023-04-12T00:00:00	2024-11-08T01:00:00	2	Temperatura media	16.6
92858	7	Sololá	717	San Juan la Laguna	12	San Juan la Laguna	12	Diciembre	2023-04-12T00:00:00	2024-11-08T01:00:00	4	Temperatura máxima	19.4
92859	7	Sololá	717	San Juan la Laguna	12	San Juan la Laguna	12	Diciembre	2023-04-12T00:00:00	2024-11-08T01:00:00	3	Temperatura mínima	16.6
92860	7	Sololá	717	San Juan la Laguna	12	San Juan la Laguna	12	Diciembre	2023-04-12T00:00:00	2024-11-08T01:00:00	5	Humedad	77
92861	7	Sololá	717	San Juan la Laguna	12	San Juan la Laguna	12	Diciembre	2023-04-12T00:00:00	2024-11-08T01:00:00	6	Velocidad del viento	3.2
92862	7	Sololá	717	San Juan la Laguna	12	San Juan la Laguna	12	Diciembre	2023-04-12T00:00:00	2024-11-08T01:00:00	7	Dirección del viento	3.22
92863	7	Sololá	717	San Juan la Laguna	12	San Juan la Laguna	12	Diciembre	2023-04-12T00:00:00	2024-11-08T01:00:00	1	Precipitación	0
92864	7	Sololá	717	San Juan la Laguna	12	San Juan la Laguna	12	Diciembre	2023-04-12T00:00:00	2024-11-08T01:00:00	8	Radiación solar	0
92865	7	Sololá	717	San Juan la Laguna	12	San Juan la Laguna	12	Diciembre	2023-04-12T00:00:00	2024-11-08T02:00:00	2	Temperatura media	15.4
92866	7	Sololá	717	San Juan la Laguna	12	San Juan la Laguna	12	Diciembre	2023-04-12T00:00:00	2024-11-08T02:00:00	4	Temperatura máxima	16.6
92867	7	Sololá	717	San Juan la Laguna	12	San Juan la Laguna	12	Diciembre	2023-04-12T00:00:00	2024-11-08T02:00:00	3	Temperatura mínima	15.4
92868	7	Sololá	717	San Juan la Laguna	12	San Juan la Laguna	12	Diciembre	2023-04-12T00:00:00	2024-11-08T02:00:00	5	Humedad	80
92869	7	Sololá	717	San Juan la Laguna	12	San Juan la Laguna	12	Diciembre	2023-04-12T00:00:00	2024-11-08T02:00:00	6	Velocidad del viento	3.2
92870	7	Sololá	717	San Juan la Laguna	12	San Juan la Laguna	12	Diciembre	2023-04-12T00:00:00	2024-11-08T02:00:00	7	Dirección del viento	3.22
92871	7	Sololá	717	San Juan la Laguna	12	San Juan la Laguna	12	Diciembre	2023-04-12T00:00:00	2024-11-08T02:00:00	1	Precipitación	0
92872	7	Sololá	717	San Juan la Laguna	12	San Juan la Laguna	12	Diciembre	2023-04-12T00:00:00	2024-11-08T02:00:00	8	Radiación solar	0
92873	7	Sololá	717	San Juan la Laguna	12	San Juan la Laguna	12	Diciembre	2023-04-12T00:00:00	2024-11-08T03:00:00	2	Temperatura media	15.5
92874	7	Sololá	717	San Juan la Laguna	12	San Juan la Laguna	12	Diciembre	2023-04-12T00:00:00	2024-11-08T03:00:00	4	Temperatura máxima	15.7
92875	7	Sololá	717	San Juan la Laguna	12	San Juan la Laguna	12	Diciembre	2023-04-12T00:00:00	2024-11-08T03:00:00	3	Temperatura mínima	15.2
92876	7	Sololá	717	San Juan la Laguna	12	San Juan la Laguna	12	Diciembre	2023-04-12T00:00:00	2024-11-08T03:00:00	5	Humedad	79
92877	7	Sololá	717	San Juan la Laguna	12	San Juan la Laguna	12	Diciembre	2023-04-12T00:00:00	2024-11-08T03:00:00	6	Velocidad del viento	4.8
92878	7	Sololá	717	San Juan la Laguna	12	San Juan la Laguna	12	Diciembre	2023-04-12T00:00:00	2024-11-08T03:00:00	7	Dirección del viento	4.83
92879	7	Sololá	717	San Juan la Laguna	12	San Juan la Laguna	12	Diciembre	2023-04-12T00:00:00	2024-11-08T03:00:00	1	Precipitación	0
92880	7	Sololá	717	San Juan la Laguna	12	San Juan la Laguna	12	Diciembre	2023-04-12T00:00:00	2024-11-08T03:00:00	8	Radiación solar	0
92881	7	Sololá	717	San Juan la Laguna	12	San Juan la Laguna	12	Diciembre	2023-04-12T00:00:00	2024-11-08T04:00:00	2	Temperatura media	15.1
92882	7	Sololá	717	San Juan la Laguna	12	San Juan la Laguna	12	Diciembre	2023-04-12T00:00:00	2024-11-08T04:00:00	4	Temperatura máxima	15.6
92883	7	Sololá	717	San Juan la Laguna	12	San Juan la Laguna	12	Diciembre	2023-04-12T00:00:00	2024-11-08T04:00:00	3	Temperatura mínima	14.8
92884	7	Sololá	717	San Juan la Laguna	12	San Juan la Laguna	12	Diciembre	2023-04-12T00:00:00	2024-11-08T04:00:00	5	Humedad	81
92885	7	Sololá	717	San Juan la Laguna	12	San Juan la Laguna	12	Diciembre	2023-04-12T00:00:00	2024-11-08T04:00:00	6	Velocidad del viento	4.8
92886	7	Sololá	717	San Juan la Laguna	12	San Juan la Laguna	12	Diciembre	2023-04-12T00:00:00	2024-11-08T04:00:00	7	Dirección del viento	4.83
92887	7	Sololá	717	San Juan la Laguna	12	San Juan la Laguna	12	Diciembre	2023-04-12T00:00:00	2024-11-08T04:00:00	1	Precipitación	0
92888	7	Sololá	717	San Juan la Laguna	12	San Juan la Laguna	12	Diciembre	2023-04-12T00:00:00	2024-11-08T04:00:00	8	Radiación solar	0
92889	7	Sololá	717	San Juan la Laguna	12	San Juan la Laguna	12	Diciembre	2023-04-12T00:00:00	2024-11-08T05:00:00	2	Temperatura media	14.6
92890	7	Sololá	717	San Juan la Laguna	12	San Juan la Laguna	12	Diciembre	2023-04-12T00:00:00	2024-11-08T05:00:00	4	Temperatura máxima	15.1
92891	7	Sololá	717	San Juan la Laguna	12	San Juan la Laguna	12	Diciembre	2023-04-12T00:00:00	2024-11-08T05:00:00	3	Temperatura mínima	14.6
92892	7	Sololá	717	San Juan la Laguna	12	San Juan la Laguna	12	Diciembre	2023-04-12T00:00:00	2024-11-08T05:00:00	5	Humedad	84
92893	7	Sololá	717	San Juan la Laguna	12	San Juan la Laguna	12	Diciembre	2023-04-12T00:00:00	2024-11-08T05:00:00	6	Velocidad del viento	4.8
92894	7	Sololá	717	San Juan la Laguna	12	San Juan la Laguna	12	Diciembre	2023-04-12T00:00:00	2024-11-08T05:00:00	7	Dirección del viento	4.83
92895	7	Sololá	717	San Juan la Laguna	12	San Juan la Laguna	12	Diciembre	2023-04-12T00:00:00	2024-11-08T05:00:00	1	Precipitación	0
92896	7	Sololá	717	San Juan la Laguna	12	San Juan la Laguna	12	Diciembre	2023-04-12T00:00:00	2024-11-08T05:00:00	8	Radiación solar	0
92897	7	Sololá	717	San Juan la Laguna	12	San Juan la Laguna	12	Diciembre	2023-04-12T00:00:00	2024-11-08T06:00:00	2	Temperatura media	15.9
92898	7	Sololá	717	San Juan la Laguna	12	San Juan la Laguna	12	Diciembre	2023-04-12T00:00:00	2024-11-08T06:00:00	4	Temperatura máxima	15.9
92899	7	Sololá	717	San Juan la Laguna	12	San Juan la Laguna	12	Diciembre	2023-04-12T00:00:00	2024-11-08T06:00:00	3	Temperatura mínima	14.6
92900	7	Sololá	717	San Juan la Laguna	12	San Juan la Laguna	12	Diciembre	2023-04-12T00:00:00	2024-11-08T06:00:00	5	Humedad	81
92901	7	Sololá	717	San Juan la Laguna	12	San Juan la Laguna	12	Diciembre	2023-04-12T00:00:00	2024-11-08T06:00:00	6	Velocidad del viento	3.2
92902	7	Sololá	717	San Juan la Laguna	12	San Juan la Laguna	12	Diciembre	2023-04-12T00:00:00	2024-11-08T06:00:00	7	Dirección del viento	3.22
92903	7	Sololá	717	San Juan la Laguna	12	San Juan la Laguna	12	Diciembre	2023-04-12T00:00:00	2024-11-08T06:00:00	1	Precipitación	0
92904	7	Sololá	717	San Juan la Laguna	12	San Juan la Laguna	12	Diciembre	2023-04-12T00:00:00	2024-11-08T06:00:00	8	Radiación solar	0
92905	7	Sololá	717	San Juan la Laguna	12	San Juan la Laguna	12	Diciembre	2023-04-12T00:00:00	2024-11-08T07:00:00	2	Temperatura media	21.2
92906	7	Sololá	717	San Juan la Laguna	12	San Juan la Laguna	12	Diciembre	2023-04-12T00:00:00	2024-11-08T07:00:00	4	Temperatura máxima	21.2
92907	7	Sololá	717	San Juan la Laguna	12	San Juan la Laguna	12	Diciembre	2023-04-12T00:00:00	2024-11-08T07:00:00	3	Temperatura mínima	15.9
92908	7	Sololá	717	San Juan la Laguna	12	San Juan la Laguna	12	Diciembre	2023-04-12T00:00:00	2024-11-08T07:00:00	5	Humedad	63
92909	7	Sololá	717	San Juan la Laguna	12	San Juan la Laguna	12	Diciembre	2023-04-12T00:00:00	2024-11-08T07:00:00	6	Velocidad del viento	11.3
92910	7	Sololá	717	San Juan la Laguna	12	San Juan la Laguna	12	Diciembre	2023-04-12T00:00:00	2024-11-08T07:00:00	7	Dirección del viento	11.27
92911	7	Sololá	717	San Juan la Laguna	12	San Juan la Laguna	12	Diciembre	2023-04-12T00:00:00	2024-11-08T07:00:00	1	Precipitación	0
92912	7	Sololá	717	San Juan la Laguna	12	San Juan la Laguna	12	Diciembre	2023-04-12T00:00:00	2024-11-08T07:00:00	8	Radiación solar	22
92913	7	Sololá	717	San Juan la Laguna	12	San Juan la Laguna	12	Diciembre	2023-04-12T00:00:00	2024-11-08T08:00:00	2	Temperatura media	22.6
92914	7	Sololá	717	San Juan la Laguna	12	San Juan la Laguna	12	Diciembre	2023-04-12T00:00:00	2024-11-08T08:00:00	4	Temperatura máxima	22.6
92915	7	Sololá	717	San Juan la Laguna	12	San Juan la Laguna	12	Diciembre	2023-04-12T00:00:00	2024-11-08T08:00:00	3	Temperatura mínima	21.1
92916	7	Sololá	717	San Juan la Laguna	12	San Juan la Laguna	12	Diciembre	2023-04-12T00:00:00	2024-11-08T08:00:00	5	Humedad	59
92917	7	Sololá	717	San Juan la Laguna	12	San Juan la Laguna	12	Diciembre	2023-04-12T00:00:00	2024-11-08T08:00:00	6	Velocidad del viento	11.3
92918	7	Sololá	717	San Juan la Laguna	12	San Juan la Laguna	12	Diciembre	2023-04-12T00:00:00	2024-11-08T08:00:00	7	Dirección del viento	11.27
92919	7	Sololá	717	San Juan la Laguna	12	San Juan la Laguna	12	Diciembre	2023-04-12T00:00:00	2024-11-08T08:00:00	1	Precipitación	0
92920	7	Sololá	717	San Juan la Laguna	12	San Juan la Laguna	12	Diciembre	2023-04-12T00:00:00	2024-11-08T08:00:00	8	Radiación solar	166
92921	7	Sololá	717	San Juan la Laguna	12	San Juan la Laguna	12	Diciembre	2023-04-12T00:00:00	2024-11-08T09:00:00	2	Temperatura media	23.2
92922	7	Sololá	717	San Juan la Laguna	12	San Juan la Laguna	12	Diciembre	2023-04-12T00:00:00	2024-11-08T09:00:00	4	Temperatura máxima	23.2
92923	7	Sololá	717	San Juan la Laguna	12	San Juan la Laguna	12	Diciembre	2023-04-12T00:00:00	2024-11-08T09:00:00	3	Temperatura mínima	22.6
92924	7	Sololá	717	San Juan la Laguna	12	San Juan la Laguna	12	Diciembre	2023-04-12T00:00:00	2024-11-08T09:00:00	5	Humedad	65
92925	7	Sololá	717	San Juan la Laguna	12	San Juan la Laguna	12	Diciembre	2023-04-12T00:00:00	2024-11-08T09:00:00	6	Velocidad del viento	12.9
92926	7	Sololá	717	San Juan la Laguna	12	San Juan la Laguna	12	Diciembre	2023-04-12T00:00:00	2024-11-08T09:00:00	7	Dirección del viento	12.87
92927	7	Sololá	717	San Juan la Laguna	12	San Juan la Laguna	12	Diciembre	2023-04-12T00:00:00	2024-11-08T09:00:00	1	Precipitación	0
92928	7	Sololá	717	San Juan la Laguna	12	San Juan la Laguna	12	Diciembre	2023-04-12T00:00:00	2024-11-08T09:00:00	8	Radiación solar	387
92929	7	Sololá	717	San Juan la Laguna	12	San Juan la Laguna	12	Diciembre	2023-04-12T00:00:00	2024-11-08T10:00:00	2	Temperatura media	23.9
92930	7	Sololá	717	San Juan la Laguna	12	San Juan la Laguna	12	Diciembre	2023-04-12T00:00:00	2024-11-08T10:00:00	4	Temperatura máxima	24
92931	7	Sololá	717	San Juan la Laguna	12	San Juan la Laguna	12	Diciembre	2023-04-12T00:00:00	2024-11-08T10:00:00	3	Temperatura mínima	23.1
92932	7	Sololá	717	San Juan la Laguna	12	San Juan la Laguna	12	Diciembre	2023-04-12T00:00:00	2024-11-08T10:00:00	5	Humedad	61
92933	7	Sololá	717	San Juan la Laguna	12	San Juan la Laguna	12	Diciembre	2023-04-12T00:00:00	2024-11-08T10:00:00	6	Velocidad del viento	14.5
92934	7	Sololá	717	San Juan la Laguna	12	San Juan la Laguna	12	Diciembre	2023-04-12T00:00:00	2024-11-08T10:00:00	7	Dirección del viento	14.48
92935	7	Sololá	717	San Juan la Laguna	12	San Juan la Laguna	12	Diciembre	2023-04-12T00:00:00	2024-11-08T10:00:00	1	Precipitación	0
92936	7	Sololá	717	San Juan la Laguna	12	San Juan la Laguna	12	Diciembre	2023-04-12T00:00:00	2024-11-08T10:00:00	8	Radiación solar	558
92937	7	Sololá	717	San Juan la Laguna	12	San Juan la Laguna	12	Diciembre	2023-04-12T00:00:00	2024-11-08T11:00:00	2	Temperatura media	24.7
92938	7	Sololá	717	San Juan la Laguna	12	San Juan la Laguna	12	Diciembre	2023-04-12T00:00:00	2024-11-08T11:00:00	4	Temperatura máxima	24.9
92939	7	Sololá	717	San Juan la Laguna	12	San Juan la Laguna	12	Diciembre	2023-04-12T00:00:00	2024-11-08T11:00:00	3	Temperatura mínima	23.9
92940	7	Sololá	717	San Juan la Laguna	12	San Juan la Laguna	12	Diciembre	2023-04-12T00:00:00	2024-11-08T11:00:00	5	Humedad	57
92941	7	Sololá	717	San Juan la Laguna	12	San Juan la Laguna	12	Diciembre	2023-04-12T00:00:00	2024-11-08T11:00:00	6	Velocidad del viento	17.7
92942	7	Sololá	717	San Juan la Laguna	12	San Juan la Laguna	12	Diciembre	2023-04-12T00:00:00	2024-11-08T11:00:00	7	Dirección del viento	17.7
92943	7	Sololá	717	San Juan la Laguna	12	San Juan la Laguna	12	Diciembre	2023-04-12T00:00:00	2024-11-08T11:00:00	1	Precipitación	0
92944	7	Sololá	717	San Juan la Laguna	12	San Juan la Laguna	12	Diciembre	2023-04-12T00:00:00	2024-11-08T11:00:00	8	Radiación solar	587
92945	7	Sololá	717	San Juan la Laguna	12	San Juan la Laguna	12	Diciembre	2023-04-12T00:00:00	2024-11-08T12:00:00	2	Temperatura media	25.4
92946	7	Sololá	717	San Juan la Laguna	12	San Juan la Laguna	12	Diciembre	2023-04-12T00:00:00	2024-11-08T12:00:00	4	Temperatura máxima	25.4
92947	7	Sololá	717	San Juan la Laguna	12	San Juan la Laguna	12	Diciembre	2023-04-12T00:00:00	2024-11-08T12:00:00	3	Temperatura mínima	24.7
92948	7	Sololá	717	San Juan la Laguna	12	San Juan la Laguna	12	Diciembre	2023-04-12T00:00:00	2024-11-08T12:00:00	5	Humedad	55
92949	7	Sololá	717	San Juan la Laguna	12	San Juan la Laguna	12	Diciembre	2023-04-12T00:00:00	2024-11-08T12:00:00	6	Velocidad del viento	16.1
92950	7	Sololá	717	San Juan la Laguna	12	San Juan la Laguna	12	Diciembre	2023-04-12T00:00:00	2024-11-08T12:00:00	7	Dirección del viento	16.09
92951	7	Sololá	717	San Juan la Laguna	12	San Juan la Laguna	12	Diciembre	2023-04-12T00:00:00	2024-11-08T12:00:00	1	Precipitación	0
92952	7	Sololá	717	San Juan la Laguna	12	San Juan la Laguna	12	Diciembre	2023-04-12T00:00:00	2024-11-08T12:00:00	8	Radiación solar	723
92953	7	Sololá	717	San Juan la Laguna	12	San Juan la Laguna	12	Diciembre	2023-04-12T00:00:00	2024-11-08T13:00:00	2	Temperatura media	25.4
92954	7	Sololá	717	San Juan la Laguna	12	San Juan la Laguna	12	Diciembre	2023-04-12T00:00:00	2024-11-08T13:00:00	4	Temperatura máxima	25.8
92955	7	Sololá	717	San Juan la Laguna	12	San Juan la Laguna	12	Diciembre	2023-04-12T00:00:00	2024-11-08T13:00:00	3	Temperatura mínima	25.2
92956	7	Sololá	717	San Juan la Laguna	12	San Juan la Laguna	12	Diciembre	2023-04-12T00:00:00	2024-11-08T13:00:00	5	Humedad	55
92957	7	Sololá	717	San Juan la Laguna	12	San Juan la Laguna	12	Diciembre	2023-04-12T00:00:00	2024-11-08T13:00:00	6	Velocidad del viento	16.1
92958	7	Sololá	717	San Juan la Laguna	12	San Juan la Laguna	12	Diciembre	2023-04-12T00:00:00	2024-11-08T13:00:00	7	Dirección del viento	16.09
92959	7	Sololá	717	San Juan la Laguna	12	San Juan la Laguna	12	Diciembre	2023-04-12T00:00:00	2024-11-08T13:00:00	1	Precipitación	0
92960	7	Sololá	717	San Juan la Laguna	12	San Juan la Laguna	12	Diciembre	2023-04-12T00:00:00	2024-11-08T13:00:00	8	Radiación solar	707
92961	7	Sololá	717	San Juan la Laguna	12	San Juan la Laguna	12	Diciembre	2023-04-12T00:00:00	2024-11-08T14:00:00	2	Temperatura media	26.4
92962	7	Sololá	717	San Juan la Laguna	12	San Juan la Laguna	12	Diciembre	2023-04-12T00:00:00	2024-11-08T14:00:00	4	Temperatura máxima	26.7
92963	7	Sololá	717	San Juan la Laguna	12	San Juan la Laguna	12	Diciembre	2023-04-12T00:00:00	2024-11-08T14:00:00	3	Temperatura mínima	25.3
92964	7	Sololá	717	San Juan la Laguna	12	San Juan la Laguna	12	Diciembre	2023-04-12T00:00:00	2024-11-08T14:00:00	5	Humedad	51
92965	7	Sololá	717	San Juan la Laguna	12	San Juan la Laguna	12	Diciembre	2023-04-12T00:00:00	2024-11-08T14:00:00	6	Velocidad del viento	16.1
92966	7	Sololá	717	San Juan la Laguna	12	San Juan la Laguna	12	Diciembre	2023-04-12T00:00:00	2024-11-08T14:00:00	7	Dirección del viento	16.09
92967	7	Sololá	717	San Juan la Laguna	12	San Juan la Laguna	12	Diciembre	2023-04-12T00:00:00	2024-11-08T14:00:00	1	Precipitación	0
92968	7	Sololá	717	San Juan la Laguna	12	San Juan la Laguna	12	Diciembre	2023-04-12T00:00:00	2024-11-08T14:00:00	8	Radiación solar	671
92969	7	Sololá	717	San Juan la Laguna	12	San Juan la Laguna	12	Diciembre	2023-04-12T00:00:00	2024-11-08T15:00:00	2	Temperatura media	25.8
92970	7	Sololá	717	San Juan la Laguna	12	San Juan la Laguna	12	Diciembre	2023-04-12T00:00:00	2024-11-08T15:00:00	4	Temperatura máxima	26.6
92971	7	Sololá	717	San Juan la Laguna	12	San Juan la Laguna	12	Diciembre	2023-04-12T00:00:00	2024-11-08T15:00:00	3	Temperatura mínima	25.7
92972	7	Sololá	717	San Juan la Laguna	12	San Juan la Laguna	12	Diciembre	2023-04-12T00:00:00	2024-11-08T15:00:00	5	Humedad	53
92973	7	Sololá	717	San Juan la Laguna	12	San Juan la Laguna	12	Diciembre	2023-04-12T00:00:00	2024-11-08T15:00:00	6	Velocidad del viento	12.9
92974	7	Sololá	717	San Juan la Laguna	12	San Juan la Laguna	12	Diciembre	2023-04-12T00:00:00	2024-11-08T15:00:00	7	Dirección del viento	12.87
92975	7	Sololá	717	San Juan la Laguna	12	San Juan la Laguna	12	Diciembre	2023-04-12T00:00:00	2024-11-08T15:00:00	1	Precipitación	0
92976	7	Sololá	717	San Juan la Laguna	12	San Juan la Laguna	12	Diciembre	2023-04-12T00:00:00	2024-11-08T15:00:00	8	Radiación solar	563
92977	7	Sololá	717	San Juan la Laguna	12	San Juan la Laguna	12	Diciembre	2023-04-12T00:00:00	2024-11-08T16:00:00	2	Temperatura media	25.2
92978	7	Sololá	717	San Juan la Laguna	12	San Juan la Laguna	12	Diciembre	2023-04-12T00:00:00	2024-11-08T16:00:00	4	Temperatura máxima	25.9
92979	7	Sololá	717	San Juan la Laguna	12	San Juan la Laguna	12	Diciembre	2023-04-12T00:00:00	2024-11-08T16:00:00	3	Temperatura mínima	24.9
92980	7	Sololá	717	San Juan la Laguna	12	San Juan la Laguna	12	Diciembre	2023-04-12T00:00:00	2024-11-08T16:00:00	5	Humedad	55
92981	7	Sololá	717	San Juan la Laguna	12	San Juan la Laguna	12	Diciembre	2023-04-12T00:00:00	2024-11-08T16:00:00	6	Velocidad del viento	11.3
92982	7	Sololá	717	San Juan la Laguna	12	San Juan la Laguna	12	Diciembre	2023-04-12T00:00:00	2024-11-08T16:00:00	7	Dirección del viento	11.27
92983	7	Sololá	717	San Juan la Laguna	12	San Juan la Laguna	12	Diciembre	2023-04-12T00:00:00	2024-11-08T16:00:00	1	Precipitación	0
92984	7	Sololá	717	San Juan la Laguna	12	San Juan la Laguna	12	Diciembre	2023-04-12T00:00:00	2024-11-08T16:00:00	8	Radiación solar	319
92985	7	Sololá	717	San Juan la Laguna	12	San Juan la Laguna	12	Diciembre	2023-04-12T00:00:00	2024-11-08T17:00:00	2	Temperatura media	24
92986	7	Sololá	717	San Juan la Laguna	12	San Juan la Laguna	12	Diciembre	2023-04-12T00:00:00	2024-11-08T17:00:00	4	Temperatura máxima	25.2
92987	7	Sololá	717	San Juan la Laguna	12	San Juan la Laguna	12	Diciembre	2023-04-12T00:00:00	2024-11-08T17:00:00	3	Temperatura mínima	23.9
92988	7	Sololá	717	San Juan la Laguna	12	San Juan la Laguna	12	Diciembre	2023-04-12T00:00:00	2024-11-08T17:00:00	5	Humedad	56
92989	7	Sololá	717	San Juan la Laguna	12	San Juan la Laguna	12	Diciembre	2023-04-12T00:00:00	2024-11-08T17:00:00	6	Velocidad del viento	9.7
92990	7	Sololá	717	San Juan la Laguna	12	San Juan la Laguna	12	Diciembre	2023-04-12T00:00:00	2024-11-08T17:00:00	7	Dirección del viento	9.66
92991	7	Sololá	717	San Juan la Laguna	12	San Juan la Laguna	12	Diciembre	2023-04-12T00:00:00	2024-11-08T17:00:00	1	Precipitación	0
92992	7	Sololá	717	San Juan la Laguna	12	San Juan la Laguna	12	Diciembre	2023-04-12T00:00:00	2024-11-08T17:00:00	8	Radiación solar	121
92993	7	Sololá	717	San Juan la Laguna	12	San Juan la Laguna	12	Diciembre	2023-04-12T00:00:00	2024-11-08T18:00:00	2	Temperatura media	22.7
92994	7	Sololá	717	San Juan la Laguna	12	San Juan la Laguna	12	Diciembre	2023-04-12T00:00:00	2024-11-08T18:00:00	4	Temperatura máxima	24
92995	7	Sololá	717	San Juan la Laguna	12	San Juan la Laguna	12	Diciembre	2023-04-12T00:00:00	2024-11-08T18:00:00	3	Temperatura mínima	22.7
92996	7	Sololá	717	San Juan la Laguna	12	San Juan la Laguna	12	Diciembre	2023-04-12T00:00:00	2024-11-08T18:00:00	5	Humedad	64
92997	7	Sololá	717	San Juan la Laguna	12	San Juan la Laguna	12	Diciembre	2023-04-12T00:00:00	2024-11-08T18:00:00	6	Velocidad del viento	11.3
92998	7	Sololá	717	San Juan la Laguna	12	San Juan la Laguna	12	Diciembre	2023-04-12T00:00:00	2024-11-08T18:00:00	7	Dirección del viento	11.27
92999	7	Sololá	717	San Juan la Laguna	12	San Juan la Laguna	12	Diciembre	2023-04-12T00:00:00	2024-11-08T18:00:00	1	Precipitación	0
93000	7	Sololá	717	San Juan la Laguna	12	San Juan la Laguna	12	Diciembre	2023-04-12T00:00:00	2024-11-08T18:00:00	8	Radiación solar	16
93001	7	Sololá	717	San Juan la Laguna	12	San Juan la Laguna	12	Diciembre	2023-04-12T00:00:00	2024-11-08T19:00:00	2	Temperatura media	22.3
93002	7	Sololá	717	San Juan la Laguna	12	San Juan la Laguna	12	Diciembre	2023-04-12T00:00:00	2024-11-08T19:00:00	4	Temperatura máxima	22.7
93003	7	Sololá	717	San Juan la Laguna	12	San Juan la Laguna	12	Diciembre	2023-04-12T00:00:00	2024-11-08T19:00:00	3	Temperatura mínima	22.2
93004	7	Sololá	717	San Juan la Laguna	12	San Juan la Laguna	12	Diciembre	2023-04-12T00:00:00	2024-11-08T19:00:00	5	Humedad	65
93005	7	Sololá	717	San Juan la Laguna	12	San Juan la Laguna	12	Diciembre	2023-04-12T00:00:00	2024-11-08T19:00:00	6	Velocidad del viento	8
93006	7	Sololá	717	San Juan la Laguna	12	San Juan la Laguna	12	Diciembre	2023-04-12T00:00:00	2024-11-08T19:00:00	7	Dirección del viento	8.05
93007	7	Sololá	717	San Juan la Laguna	12	San Juan la Laguna	12	Diciembre	2023-04-12T00:00:00	2024-11-08T19:00:00	1	Precipitación	0
93008	7	Sololá	717	San Juan la Laguna	12	San Juan la Laguna	12	Diciembre	2023-04-12T00:00:00	2024-11-08T19:00:00	8	Radiación solar	0
93009	7	Sololá	717	San Juan la Laguna	12	San Juan la Laguna	12	Diciembre	2023-04-12T00:00:00	2024-11-08T20:00:00	2	Temperatura media	21.9
93010	7	Sololá	717	San Juan la Laguna	12	San Juan la Laguna	12	Diciembre	2023-04-12T00:00:00	2024-11-08T20:00:00	4	Temperatura máxima	22.3
93011	7	Sololá	717	San Juan la Laguna	12	San Juan la Laguna	12	Diciembre	2023-04-12T00:00:00	2024-11-08T20:00:00	3	Temperatura mínima	21.8
93012	7	Sololá	717	San Juan la Laguna	12	San Juan la Laguna	12	Diciembre	2023-04-12T00:00:00	2024-11-08T20:00:00	5	Humedad	65
93013	7	Sololá	717	San Juan la Laguna	12	San Juan la Laguna	12	Diciembre	2023-04-12T00:00:00	2024-11-08T20:00:00	6	Velocidad del viento	8
93014	7	Sololá	717	San Juan la Laguna	12	San Juan la Laguna	12	Diciembre	2023-04-12T00:00:00	2024-11-08T20:00:00	7	Dirección del viento	8.05
93015	7	Sololá	717	San Juan la Laguna	12	San Juan la Laguna	12	Diciembre	2023-04-12T00:00:00	2024-11-08T20:00:00	1	Precipitación	0
93016	7	Sololá	717	San Juan la Laguna	12	San Juan la Laguna	12	Diciembre	2023-04-12T00:00:00	2024-11-08T20:00:00	8	Radiación solar	0
93017	7	Sololá	717	San Juan la Laguna	12	San Juan la Laguna	12	Diciembre	2023-04-12T00:00:00	2024-11-08T21:00:00	2	Temperatura media	21.8
93018	7	Sololá	717	San Juan la Laguna	12	San Juan la Laguna	12	Diciembre	2023-04-12T00:00:00	2024-11-08T21:00:00	4	Temperatura máxima	21.9
93019	7	Sololá	717	San Juan la Laguna	12	San Juan la Laguna	12	Diciembre	2023-04-12T00:00:00	2024-11-08T21:00:00	3	Temperatura mínima	21.8
93020	7	Sololá	717	San Juan la Laguna	12	San Juan la Laguna	12	Diciembre	2023-04-12T00:00:00	2024-11-08T21:00:00	5	Humedad	68
93021	7	Sololá	717	San Juan la Laguna	12	San Juan la Laguna	12	Diciembre	2023-04-12T00:00:00	2024-11-08T21:00:00	6	Velocidad del viento	8
93022	7	Sololá	717	San Juan la Laguna	12	San Juan la Laguna	12	Diciembre	2023-04-12T00:00:00	2024-11-08T21:00:00	7	Dirección del viento	8.05
93023	7	Sololá	717	San Juan la Laguna	12	San Juan la Laguna	12	Diciembre	2023-04-12T00:00:00	2024-11-08T21:00:00	1	Precipitación	0
93024	7	Sololá	717	San Juan la Laguna	12	San Juan la Laguna	12	Diciembre	2023-04-12T00:00:00	2024-11-08T21:00:00	8	Radiación solar	0
93025	7	Sololá	717	San Juan la Laguna	12	San Juan la Laguna	12	Diciembre	2023-04-12T00:00:00	2024-11-08T22:00:00	2	Temperatura media	21.4
93026	7	Sololá	717	San Juan la Laguna	12	San Juan la Laguna	12	Diciembre	2023-04-12T00:00:00	2024-11-08T22:00:00	4	Temperatura máxima	21.9
93027	7	Sololá	717	San Juan la Laguna	12	San Juan la Laguna	12	Diciembre	2023-04-12T00:00:00	2024-11-08T22:00:00	3	Temperatura mínima	21.4
93028	7	Sololá	717	San Juan la Laguna	12	San Juan la Laguna	12	Diciembre	2023-04-12T00:00:00	2024-11-08T22:00:00	5	Humedad	70
93029	7	Sololá	717	San Juan la Laguna	12	San Juan la Laguna	12	Diciembre	2023-04-12T00:00:00	2024-11-08T22:00:00	6	Velocidad del viento	6.4
93030	7	Sololá	717	San Juan la Laguna	12	San Juan la Laguna	12	Diciembre	2023-04-12T00:00:00	2024-11-08T22:00:00	7	Dirección del viento	6.44
93031	7	Sololá	717	San Juan la Laguna	12	San Juan la Laguna	12	Diciembre	2023-04-12T00:00:00	2024-11-08T22:00:00	1	Precipitación	0
93032	7	Sololá	717	San Juan la Laguna	12	San Juan la Laguna	12	Diciembre	2023-04-12T00:00:00	2024-11-08T22:00:00	8	Radiación solar	0
93033	7	Sololá	717	San Juan la Laguna	12	San Juan la Laguna	12	Diciembre	2023-04-12T00:00:00	2024-11-08T23:00:00	2	Temperatura media	20.1
93034	7	Sololá	717	San Juan la Laguna	12	San Juan la Laguna	12	Diciembre	2023-04-12T00:00:00	2024-11-08T23:00:00	4	Temperatura máxima	21.4
93035	7	Sololá	717	San Juan la Laguna	12	San Juan la Laguna	12	Diciembre	2023-04-12T00:00:00	2024-11-08T23:00:00	3	Temperatura mínima	20.1
93036	7	Sololá	717	San Juan la Laguna	12	San Juan la Laguna	12	Diciembre	2023-04-12T00:00:00	2024-11-08T23:00:00	5	Humedad	74
93037	7	Sololá	717	San Juan la Laguna	12	San Juan la Laguna	12	Diciembre	2023-04-12T00:00:00	2024-11-08T23:00:00	6	Velocidad del viento	3.2
93038	7	Sololá	717	San Juan la Laguna	12	San Juan la Laguna	12	Diciembre	2023-04-12T00:00:00	2024-11-08T23:00:00	7	Dirección del viento	3.22
93039	7	Sololá	717	San Juan la Laguna	12	San Juan la Laguna	12	Diciembre	2023-04-12T00:00:00	2024-11-08T23:00:00	1	Precipitación	0
93040	7	Sololá	717	San Juan la Laguna	12	San Juan la Laguna	12	Diciembre	2023-04-12T00:00:00	2024-11-08T23:00:00	8	Radiación solar	0
93041	7	Sololá	717	San Juan la Laguna	12	San Juan la Laguna	12	Diciembre	2023-05-12T00:00:00	2024-11-08T00:00:00	2	Temperatura media	18.7
93042	7	Sololá	717	San Juan la Laguna	12	San Juan la Laguna	12	Diciembre	2023-05-12T00:00:00	2024-11-08T00:00:00	4	Temperatura máxima	20.1
93043	7	Sololá	717	San Juan la Laguna	12	San Juan la Laguna	12	Diciembre	2023-05-12T00:00:00	2024-11-08T00:00:00	3	Temperatura mínima	18.7
93044	7	Sololá	717	San Juan la Laguna	12	San Juan la Laguna	12	Diciembre	2023-05-12T00:00:00	2024-11-08T00:00:00	5	Humedad	80
93045	7	Sololá	717	San Juan la Laguna	12	San Juan la Laguna	12	Diciembre	2023-05-12T00:00:00	2024-11-08T00:00:00	6	Velocidad del viento	1.6
93046	7	Sololá	717	San Juan la Laguna	12	San Juan la Laguna	12	Diciembre	2023-05-12T00:00:00	2024-11-08T00:00:00	7	Dirección del viento	1.61
93047	7	Sololá	717	San Juan la Laguna	12	San Juan la Laguna	12	Diciembre	2023-05-12T00:00:00	2024-11-08T00:00:00	1	Precipitación	0
93048	7	Sololá	717	San Juan la Laguna	12	San Juan la Laguna	12	Diciembre	2023-05-12T00:00:00	2024-11-08T00:00:00	8	Radiación solar	0
93049	7	Sololá	717	San Juan la Laguna	12	San Juan la Laguna	12	Diciembre	2023-05-12T00:00:00	2024-11-08T01:00:00	2	Temperatura media	18
93050	7	Sololá	717	San Juan la Laguna	12	San Juan la Laguna	12	Diciembre	2023-05-12T00:00:00	2024-11-08T01:00:00	4	Temperatura máxima	18.7
93051	7	Sololá	717	San Juan la Laguna	12	San Juan la Laguna	12	Diciembre	2023-05-12T00:00:00	2024-11-08T01:00:00	3	Temperatura mínima	17.9
93052	7	Sololá	717	San Juan la Laguna	12	San Juan la Laguna	12	Diciembre	2023-05-12T00:00:00	2024-11-08T01:00:00	5	Humedad	82
93053	7	Sololá	717	San Juan la Laguna	12	San Juan la Laguna	12	Diciembre	2023-05-12T00:00:00	2024-11-08T01:00:00	6	Velocidad del viento	3.2
93054	7	Sololá	717	San Juan la Laguna	12	San Juan la Laguna	12	Diciembre	2023-05-12T00:00:00	2024-11-08T01:00:00	7	Dirección del viento	3.22
93055	7	Sololá	717	San Juan la Laguna	12	San Juan la Laguna	12	Diciembre	2023-05-12T00:00:00	2024-11-08T01:00:00	1	Precipitación	0
93056	7	Sololá	717	San Juan la Laguna	12	San Juan la Laguna	12	Diciembre	2023-05-12T00:00:00	2024-11-08T01:00:00	8	Radiación solar	0
93057	7	Sololá	717	San Juan la Laguna	12	San Juan la Laguna	12	Diciembre	2023-05-12T00:00:00	2024-11-08T02:00:00	2	Temperatura media	17.6
93058	7	Sololá	717	San Juan la Laguna	12	San Juan la Laguna	12	Diciembre	2023-05-12T00:00:00	2024-11-08T02:00:00	4	Temperatura máxima	18.1
93059	7	Sololá	717	San Juan la Laguna	12	San Juan la Laguna	12	Diciembre	2023-05-12T00:00:00	2024-11-08T02:00:00	3	Temperatura mínima	17.6
93060	7	Sololá	717	San Juan la Laguna	12	San Juan la Laguna	12	Diciembre	2023-05-12T00:00:00	2024-11-08T02:00:00	5	Humedad	84
93061	7	Sololá	717	San Juan la Laguna	12	San Juan la Laguna	12	Diciembre	2023-05-12T00:00:00	2024-11-08T02:00:00	6	Velocidad del viento	3.2
93062	7	Sololá	717	San Juan la Laguna	12	San Juan la Laguna	12	Diciembre	2023-05-12T00:00:00	2024-11-08T02:00:00	7	Dirección del viento	3.22
93063	7	Sololá	717	San Juan la Laguna	12	San Juan la Laguna	12	Diciembre	2023-05-12T00:00:00	2024-11-08T02:00:00	1	Precipitación	0
93064	7	Sololá	717	San Juan la Laguna	12	San Juan la Laguna	12	Diciembre	2023-05-12T00:00:00	2024-11-08T02:00:00	8	Radiación solar	0
93065	7	Sololá	717	San Juan la Laguna	12	San Juan la Laguna	12	Diciembre	2023-05-12T00:00:00	2024-11-08T03:00:00	2	Temperatura media	16.8
93066	7	Sololá	717	San Juan la Laguna	12	San Juan la Laguna	12	Diciembre	2023-05-12T00:00:00	2024-11-08T03:00:00	4	Temperatura máxima	17.6
93067	7	Sololá	717	San Juan la Laguna	12	San Juan la Laguna	12	Diciembre	2023-05-12T00:00:00	2024-11-08T03:00:00	3	Temperatura mínima	16.8
93068	7	Sololá	717	San Juan la Laguna	12	San Juan la Laguna	12	Diciembre	2023-05-12T00:00:00	2024-11-08T03:00:00	5	Humedad	86
93069	7	Sololá	717	San Juan la Laguna	12	San Juan la Laguna	12	Diciembre	2023-05-12T00:00:00	2024-11-08T03:00:00	6	Velocidad del viento	3.2
93070	7	Sololá	717	San Juan la Laguna	12	San Juan la Laguna	12	Diciembre	2023-05-12T00:00:00	2024-11-08T03:00:00	7	Dirección del viento	3.22
93071	7	Sololá	717	San Juan la Laguna	12	San Juan la Laguna	12	Diciembre	2023-05-12T00:00:00	2024-11-08T03:00:00	1	Precipitación	0
93072	7	Sololá	717	San Juan la Laguna	12	San Juan la Laguna	12	Diciembre	2023-05-12T00:00:00	2024-11-08T03:00:00	8	Radiación solar	0
93073	7	Sololá	717	San Juan la Laguna	12	San Juan la Laguna	12	Diciembre	2023-05-12T00:00:00	2024-11-08T04:00:00	2	Temperatura media	17.1
93074	7	Sololá	717	San Juan la Laguna	12	San Juan la Laguna	12	Diciembre	2023-05-12T00:00:00	2024-11-08T04:00:00	4	Temperatura máxima	17.8
93075	7	Sololá	717	San Juan la Laguna	12	San Juan la Laguna	12	Diciembre	2023-05-12T00:00:00	2024-11-08T04:00:00	3	Temperatura mínima	16.7
93076	7	Sololá	717	San Juan la Laguna	12	San Juan la Laguna	12	Diciembre	2023-05-12T00:00:00	2024-11-08T04:00:00	5	Humedad	82
93077	7	Sololá	717	San Juan la Laguna	12	San Juan la Laguna	12	Diciembre	2023-05-12T00:00:00	2024-11-08T04:00:00	6	Velocidad del viento	3.2
93078	7	Sololá	717	San Juan la Laguna	12	San Juan la Laguna	12	Diciembre	2023-05-12T00:00:00	2024-11-08T04:00:00	7	Dirección del viento	3.22
93079	7	Sololá	717	San Juan la Laguna	12	San Juan la Laguna	12	Diciembre	2023-05-12T00:00:00	2024-11-08T04:00:00	1	Precipitación	0
93080	7	Sololá	717	San Juan la Laguna	12	San Juan la Laguna	12	Diciembre	2023-05-12T00:00:00	2024-11-08T04:00:00	8	Radiación solar	0
93081	7	Sololá	717	San Juan la Laguna	12	San Juan la Laguna	12	Diciembre	2023-05-12T00:00:00	2024-11-08T05:00:00	2	Temperatura media	16.6
93082	7	Sololá	717	San Juan la Laguna	12	San Juan la Laguna	12	Diciembre	2023-05-12T00:00:00	2024-11-08T05:00:00	4	Temperatura máxima	17.3
93083	7	Sololá	717	San Juan la Laguna	12	San Juan la Laguna	12	Diciembre	2023-05-12T00:00:00	2024-11-08T05:00:00	3	Temperatura mínima	16.6
93084	7	Sololá	717	San Juan la Laguna	12	San Juan la Laguna	12	Diciembre	2023-05-12T00:00:00	2024-11-08T05:00:00	5	Humedad	84
93085	7	Sololá	717	San Juan la Laguna	12	San Juan la Laguna	12	Diciembre	2023-05-12T00:00:00	2024-11-08T05:00:00	6	Velocidad del viento	3.2
93086	7	Sololá	717	San Juan la Laguna	12	San Juan la Laguna	12	Diciembre	2023-05-12T00:00:00	2024-11-08T05:00:00	7	Dirección del viento	3.22
93087	7	Sololá	717	San Juan la Laguna	12	San Juan la Laguna	12	Diciembre	2023-05-12T00:00:00	2024-11-08T05:00:00	1	Precipitación	0
93088	7	Sololá	717	San Juan la Laguna	12	San Juan la Laguna	12	Diciembre	2023-05-12T00:00:00	2024-11-08T05:00:00	8	Radiación solar	0
93089	7	Sololá	717	San Juan la Laguna	12	San Juan la Laguna	12	Diciembre	2023-05-12T00:00:00	2024-11-08T06:00:00	2	Temperatura media	16.1
93090	7	Sololá	717	San Juan la Laguna	12	San Juan la Laguna	12	Diciembre	2023-05-12T00:00:00	2024-11-08T06:00:00	4	Temperatura máxima	17.3
93091	7	Sololá	717	San Juan la Laguna	12	San Juan la Laguna	12	Diciembre	2023-05-12T00:00:00	2024-11-08T06:00:00	3	Temperatura mínima	16.1
93092	7	Sololá	717	San Juan la Laguna	12	San Juan la Laguna	12	Diciembre	2023-05-12T00:00:00	2024-11-08T06:00:00	5	Humedad	86
93093	7	Sololá	717	San Juan la Laguna	12	San Juan la Laguna	12	Diciembre	2023-05-12T00:00:00	2024-11-08T06:00:00	6	Velocidad del viento	3.2
93094	7	Sololá	717	San Juan la Laguna	12	San Juan la Laguna	12	Diciembre	2023-05-12T00:00:00	2024-11-08T06:00:00	7	Dirección del viento	3.22
93095	7	Sololá	717	San Juan la Laguna	12	San Juan la Laguna	12	Diciembre	2023-05-12T00:00:00	2024-11-08T06:00:00	1	Precipitación	0
93096	7	Sololá	717	San Juan la Laguna	12	San Juan la Laguna	12	Diciembre	2023-05-12T00:00:00	2024-11-08T06:00:00	8	Radiación solar	0
93097	7	Sololá	717	San Juan la Laguna	12	San Juan la Laguna	12	Diciembre	2023-05-12T00:00:00	2024-11-08T07:00:00	2	Temperatura media	17.3
93098	7	Sololá	717	San Juan la Laguna	12	San Juan la Laguna	12	Diciembre	2023-05-12T00:00:00	2024-11-08T07:00:00	4	Temperatura máxima	17.3
93099	7	Sololá	717	San Juan la Laguna	12	San Juan la Laguna	12	Diciembre	2023-05-12T00:00:00	2024-11-08T07:00:00	3	Temperatura mínima	15.7
93100	7	Sololá	717	San Juan la Laguna	12	San Juan la Laguna	12	Diciembre	2023-05-12T00:00:00	2024-11-08T07:00:00	5	Humedad	83
93101	7	Sololá	717	San Juan la Laguna	12	San Juan la Laguna	12	Diciembre	2023-05-12T00:00:00	2024-11-08T07:00:00	6	Velocidad del viento	3.2
93102	7	Sololá	717	San Juan la Laguna	12	San Juan la Laguna	12	Diciembre	2023-05-12T00:00:00	2024-11-08T07:00:00	7	Dirección del viento	3.22
93103	7	Sololá	717	San Juan la Laguna	12	San Juan la Laguna	12	Diciembre	2023-05-12T00:00:00	2024-11-08T07:00:00	1	Precipitación	0
93104	7	Sololá	717	San Juan la Laguna	12	San Juan la Laguna	12	Diciembre	2023-05-12T00:00:00	2024-11-08T07:00:00	8	Radiación solar	13
93105	7	Sololá	717	San Juan la Laguna	12	San Juan la Laguna	12	Diciembre	2023-05-12T00:00:00	2024-11-08T08:00:00	2	Temperatura media	21.1
93106	7	Sololá	717	San Juan la Laguna	12	San Juan la Laguna	12	Diciembre	2023-05-12T00:00:00	2024-11-08T08:00:00	4	Temperatura máxima	21.1
93107	7	Sololá	717	San Juan la Laguna	12	San Juan la Laguna	12	Diciembre	2023-05-12T00:00:00	2024-11-08T08:00:00	3	Temperatura mínima	17.3
93108	7	Sololá	717	San Juan la Laguna	12	San Juan la Laguna	12	Diciembre	2023-05-12T00:00:00	2024-11-08T08:00:00	5	Humedad	69
93109	7	Sololá	717	San Juan la Laguna	12	San Juan la Laguna	12	Diciembre	2023-05-12T00:00:00	2024-11-08T08:00:00	6	Velocidad del viento	4.8
93110	7	Sololá	717	San Juan la Laguna	12	San Juan la Laguna	12	Diciembre	2023-05-12T00:00:00	2024-11-08T08:00:00	7	Dirección del viento	4.83
93111	7	Sololá	717	San Juan la Laguna	12	San Juan la Laguna	12	Diciembre	2023-05-12T00:00:00	2024-11-08T08:00:00	1	Precipitación	0
93112	7	Sololá	717	San Juan la Laguna	12	San Juan la Laguna	12	Diciembre	2023-05-12T00:00:00	2024-11-08T08:00:00	8	Radiación solar	87
93113	7	Sololá	717	San Juan la Laguna	12	San Juan la Laguna	12	Diciembre	2023-05-12T00:00:00	2024-11-08T09:00:00	2	Temperatura media	23.3
93114	7	Sololá	717	San Juan la Laguna	12	San Juan la Laguna	12	Diciembre	2023-05-12T00:00:00	2024-11-08T09:00:00	4	Temperatura máxima	23.4
93115	7	Sololá	717	San Juan la Laguna	12	San Juan la Laguna	12	Diciembre	2023-05-12T00:00:00	2024-11-08T09:00:00	3	Temperatura mínima	21.2
93116	7	Sololá	717	San Juan la Laguna	12	San Juan la Laguna	12	Diciembre	2023-05-12T00:00:00	2024-11-08T09:00:00	5	Humedad	63
93117	7	Sololá	717	San Juan la Laguna	12	San Juan la Laguna	12	Diciembre	2023-05-12T00:00:00	2024-11-08T09:00:00	6	Velocidad del viento	9.7
93118	7	Sololá	717	San Juan la Laguna	12	San Juan la Laguna	12	Diciembre	2023-05-12T00:00:00	2024-11-08T09:00:00	7	Dirección del viento	9.66
93119	7	Sololá	717	San Juan la Laguna	12	San Juan la Laguna	12	Diciembre	2023-05-12T00:00:00	2024-11-08T09:00:00	1	Precipitación	0
93120	7	Sololá	717	San Juan la Laguna	12	San Juan la Laguna	12	Diciembre	2023-05-12T00:00:00	2024-11-08T09:00:00	8	Radiación solar	427
93121	7	Sololá	717	San Juan la Laguna	12	San Juan la Laguna	12	Diciembre	2023-05-12T00:00:00	2024-11-08T10:00:00	2	Temperatura media	23.7
93122	7	Sololá	717	San Juan la Laguna	12	San Juan la Laguna	12	Diciembre	2023-05-12T00:00:00	2024-11-08T10:00:00	4	Temperatura máxima	23.8
93123	7	Sololá	717	San Juan la Laguna	12	San Juan la Laguna	12	Diciembre	2023-05-12T00:00:00	2024-11-08T10:00:00	3	Temperatura mínima	22.9
93124	7	Sololá	717	San Juan la Laguna	12	San Juan la Laguna	12	Diciembre	2023-05-12T00:00:00	2024-11-08T10:00:00	5	Humedad	62
93125	7	Sololá	717	San Juan la Laguna	12	San Juan la Laguna	12	Diciembre	2023-05-12T00:00:00	2024-11-08T10:00:00	6	Velocidad del viento	12.9
93126	7	Sololá	717	San Juan la Laguna	12	San Juan la Laguna	12	Diciembre	2023-05-12T00:00:00	2024-11-08T10:00:00	7	Dirección del viento	12.87
93127	7	Sololá	717	San Juan la Laguna	12	San Juan la Laguna	12	Diciembre	2023-05-12T00:00:00	2024-11-08T10:00:00	1	Precipitación	0
93128	7	Sololá	717	San Juan la Laguna	12	San Juan la Laguna	12	Diciembre	2023-05-12T00:00:00	2024-11-08T10:00:00	8	Radiación solar	599
93129	7	Sololá	717	San Juan la Laguna	12	San Juan la Laguna	12	Diciembre	2023-05-12T00:00:00	2024-11-08T11:00:00	2	Temperatura media	24
93130	7	Sololá	717	San Juan la Laguna	12	San Juan la Laguna	12	Diciembre	2023-05-12T00:00:00	2024-11-08T11:00:00	4	Temperatura máxima	24
93131	7	Sololá	717	San Juan la Laguna	12	San Juan la Laguna	12	Diciembre	2023-05-12T00:00:00	2024-11-08T11:00:00	3	Temperatura mínima	23.1
93132	7	Sololá	717	San Juan la Laguna	12	San Juan la Laguna	12	Diciembre	2023-05-12T00:00:00	2024-11-08T11:00:00	5	Humedad	63
93133	7	Sololá	717	San Juan la Laguna	12	San Juan la Laguna	12	Diciembre	2023-05-12T00:00:00	2024-11-08T11:00:00	6	Velocidad del viento	14.5
93134	7	Sololá	717	San Juan la Laguna	12	San Juan la Laguna	12	Diciembre	2023-05-12T00:00:00	2024-11-08T11:00:00	7	Dirección del viento	14.48
93135	7	Sololá	717	San Juan la Laguna	12	San Juan la Laguna	12	Diciembre	2023-05-12T00:00:00	2024-11-08T11:00:00	1	Precipitación	0
93136	7	Sololá	717	San Juan la Laguna	12	San Juan la Laguna	12	Diciembre	2023-05-12T00:00:00	2024-11-08T11:00:00	8	Radiación solar	516
93137	7	Sololá	717	San Juan la Laguna	12	San Juan la Laguna	12	Diciembre	2023-05-12T00:00:00	2024-11-08T12:00:00	2	Temperatura media	24.6
93138	7	Sololá	717	San Juan la Laguna	12	San Juan la Laguna	12	Diciembre	2023-05-12T00:00:00	2024-11-08T12:00:00	4	Temperatura máxima	25.1
93139	7	Sololá	717	San Juan la Laguna	12	San Juan la Laguna	12	Diciembre	2023-05-12T00:00:00	2024-11-08T12:00:00	3	Temperatura mínima	23.9
93140	7	Sololá	717	San Juan la Laguna	12	San Juan la Laguna	12	Diciembre	2023-05-12T00:00:00	2024-11-08T12:00:00	5	Humedad	59
93141	7	Sololá	717	San Juan la Laguna	12	San Juan la Laguna	12	Diciembre	2023-05-12T00:00:00	2024-11-08T12:00:00	6	Velocidad del viento	14.5
93142	7	Sololá	717	San Juan la Laguna	12	San Juan la Laguna	12	Diciembre	2023-05-12T00:00:00	2024-11-08T12:00:00	7	Dirección del viento	14.48
93143	7	Sololá	717	San Juan la Laguna	12	San Juan la Laguna	12	Diciembre	2023-05-12T00:00:00	2024-11-08T12:00:00	1	Precipitación	0
93144	7	Sololá	717	San Juan la Laguna	12	San Juan la Laguna	12	Diciembre	2023-05-12T00:00:00	2024-11-08T12:00:00	8	Radiación solar	786
93145	7	Sololá	717	San Juan la Laguna	12	San Juan la Laguna	12	Diciembre	2023-05-12T00:00:00	2024-11-08T13:00:00	2	Temperatura media	25.4
93146	7	Sololá	717	San Juan la Laguna	12	San Juan la Laguna	12	Diciembre	2023-05-12T00:00:00	2024-11-08T13:00:00	4	Temperatura máxima	25.5
93147	7	Sololá	717	San Juan la Laguna	12	San Juan la Laguna	12	Diciembre	2023-05-12T00:00:00	2024-11-08T13:00:00	3	Temperatura mínima	24.2
93148	7	Sololá	717	San Juan la Laguna	12	San Juan la Laguna	12	Diciembre	2023-05-12T00:00:00	2024-11-08T13:00:00	5	Humedad	53
93149	7	Sololá	717	San Juan la Laguna	12	San Juan la Laguna	12	Diciembre	2023-05-12T00:00:00	2024-11-08T13:00:00	6	Velocidad del viento	16.1
93150	7	Sololá	717	San Juan la Laguna	12	San Juan la Laguna	12	Diciembre	2023-05-12T00:00:00	2024-11-08T13:00:00	7	Dirección del viento	16.09
93151	7	Sololá	717	San Juan la Laguna	12	San Juan la Laguna	12	Diciembre	2023-05-12T00:00:00	2024-11-08T13:00:00	1	Precipitación	0
93152	7	Sololá	717	San Juan la Laguna	12	San Juan la Laguna	12	Diciembre	2023-05-12T00:00:00	2024-11-08T13:00:00	8	Radiación solar	760
93153	7	Sololá	717	San Juan la Laguna	12	San Juan la Laguna	12	Diciembre	2023-05-12T00:00:00	2024-11-08T14:00:00	2	Temperatura media	26.2
93154	7	Sololá	717	San Juan la Laguna	12	San Juan la Laguna	12	Diciembre	2023-05-12T00:00:00	2024-11-08T14:00:00	4	Temperatura máxima	26.5
93155	7	Sololá	717	San Juan la Laguna	12	San Juan la Laguna	12	Diciembre	2023-05-12T00:00:00	2024-11-08T14:00:00	3	Temperatura mínima	25.3
93156	7	Sololá	717	San Juan la Laguna	12	San Juan la Laguna	12	Diciembre	2023-05-12T00:00:00	2024-11-08T14:00:00	5	Humedad	47
93157	7	Sololá	717	San Juan la Laguna	12	San Juan la Laguna	12	Diciembre	2023-05-12T00:00:00	2024-11-08T14:00:00	6	Velocidad del viento	14.5
93158	7	Sololá	717	San Juan la Laguna	12	San Juan la Laguna	12	Diciembre	2023-05-12T00:00:00	2024-11-08T14:00:00	7	Dirección del viento	14.48
93159	7	Sololá	717	San Juan la Laguna	12	San Juan la Laguna	12	Diciembre	2023-05-12T00:00:00	2024-11-08T14:00:00	1	Precipitación	0
93160	7	Sololá	717	San Juan la Laguna	12	San Juan la Laguna	12	Diciembre	2023-05-12T00:00:00	2024-11-08T14:00:00	8	Radiación solar	713
93161	7	Sololá	717	San Juan la Laguna	12	San Juan la Laguna	12	Diciembre	2023-05-12T00:00:00	2024-11-08T15:00:00	2	Temperatura media	25.9
93162	7	Sololá	717	San Juan la Laguna	12	San Juan la Laguna	12	Diciembre	2023-05-12T00:00:00	2024-11-08T15:00:00	4	Temperatura máxima	26.2
93163	7	Sololá	717	San Juan la Laguna	12	San Juan la Laguna	12	Diciembre	2023-05-12T00:00:00	2024-11-08T15:00:00	3	Temperatura mínima	25.7
93164	7	Sololá	717	San Juan la Laguna	12	San Juan la Laguna	12	Diciembre	2023-05-12T00:00:00	2024-11-08T15:00:00	5	Humedad	47
93165	7	Sololá	717	San Juan la Laguna	12	San Juan la Laguna	12	Diciembre	2023-05-12T00:00:00	2024-11-08T15:00:00	6	Velocidad del viento	11.3
93166	7	Sololá	717	San Juan la Laguna	12	San Juan la Laguna	12	Diciembre	2023-05-12T00:00:00	2024-11-08T15:00:00	7	Dirección del viento	11.27
93167	7	Sololá	717	San Juan la Laguna	12	San Juan la Laguna	12	Diciembre	2023-05-12T00:00:00	2024-11-08T15:00:00	1	Precipitación	0
93168	7	Sololá	717	San Juan la Laguna	12	San Juan la Laguna	12	Diciembre	2023-05-12T00:00:00	2024-11-08T15:00:00	8	Radiación solar	561
93169	7	Sololá	717	San Juan la Laguna	12	San Juan la Laguna	12	Diciembre	2023-05-12T00:00:00	2024-11-08T16:00:00	2	Temperatura media	25.2
93170	7	Sololá	717	San Juan la Laguna	12	San Juan la Laguna	12	Diciembre	2023-05-12T00:00:00	2024-11-08T16:00:00	4	Temperatura máxima	26
93171	7	Sololá	717	San Juan la Laguna	12	San Juan la Laguna	12	Diciembre	2023-05-12T00:00:00	2024-11-08T16:00:00	3	Temperatura mínima	25.2
93172	7	Sololá	717	San Juan la Laguna	12	San Juan la Laguna	12	Diciembre	2023-05-12T00:00:00	2024-11-08T16:00:00	5	Humedad	51
93173	7	Sololá	717	San Juan la Laguna	12	San Juan la Laguna	12	Diciembre	2023-05-12T00:00:00	2024-11-08T16:00:00	6	Velocidad del viento	8
93174	7	Sololá	717	San Juan la Laguna	12	San Juan la Laguna	12	Diciembre	2023-05-12T00:00:00	2024-11-08T16:00:00	7	Dirección del viento	8.05
93175	7	Sololá	717	San Juan la Laguna	12	San Juan la Laguna	12	Diciembre	2023-05-12T00:00:00	2024-11-08T16:00:00	1	Precipitación	0
93176	7	Sololá	717	San Juan la Laguna	12	San Juan la Laguna	12	Diciembre	2023-05-12T00:00:00	2024-11-08T16:00:00	8	Radiación solar	387
93177	7	Sololá	717	San Juan la Laguna	12	San Juan la Laguna	12	Diciembre	2023-05-12T00:00:00	2024-11-08T17:00:00	2	Temperatura media	23.2
93178	7	Sololá	717	San Juan la Laguna	12	San Juan la Laguna	12	Diciembre	2023-05-12T00:00:00	2024-11-08T17:00:00	4	Temperatura máxima	25.2
93179	7	Sololá	717	San Juan la Laguna	12	San Juan la Laguna	12	Diciembre	2023-05-12T00:00:00	2024-11-08T17:00:00	3	Temperatura mínima	23.2
93180	7	Sololá	717	San Juan la Laguna	12	San Juan la Laguna	12	Diciembre	2023-05-12T00:00:00	2024-11-08T17:00:00	5	Humedad	55
93181	7	Sololá	717	San Juan la Laguna	12	San Juan la Laguna	12	Diciembre	2023-05-12T00:00:00	2024-11-08T17:00:00	6	Velocidad del viento	11.3
93182	7	Sololá	717	San Juan la Laguna	12	San Juan la Laguna	12	Diciembre	2023-05-12T00:00:00	2024-11-08T17:00:00	7	Dirección del viento	11.27
93183	7	Sololá	717	San Juan la Laguna	12	San Juan la Laguna	12	Diciembre	2023-05-12T00:00:00	2024-11-08T17:00:00	1	Precipitación	0
93184	7	Sololá	717	San Juan la Laguna	12	San Juan la Laguna	12	Diciembre	2023-05-12T00:00:00	2024-11-08T17:00:00	8	Radiación solar	108
93185	7	Sololá	717	San Juan la Laguna	12	San Juan la Laguna	12	Diciembre	2023-05-12T00:00:00	2024-11-08T18:00:00	2	Temperatura media	21.9
93186	7	Sololá	717	San Juan la Laguna	12	San Juan la Laguna	12	Diciembre	2023-05-12T00:00:00	2024-11-08T18:00:00	4	Temperatura máxima	23.2
93187	7	Sololá	717	San Juan la Laguna	12	San Juan la Laguna	12	Diciembre	2023-05-12T00:00:00	2024-11-08T18:00:00	3	Temperatura mínima	21.9
93188	7	Sololá	717	San Juan la Laguna	12	San Juan la Laguna	12	Diciembre	2023-05-12T00:00:00	2024-11-08T18:00:00	5	Humedad	62
93189	7	Sololá	717	San Juan la Laguna	12	San Juan la Laguna	12	Diciembre	2023-05-12T00:00:00	2024-11-08T18:00:00	6	Velocidad del viento	12.9
93190	7	Sololá	717	San Juan la Laguna	12	San Juan la Laguna	12	Diciembre	2023-05-12T00:00:00	2024-11-08T18:00:00	7	Dirección del viento	12.87
93191	7	Sololá	717	San Juan la Laguna	12	San Juan la Laguna	12	Diciembre	2023-05-12T00:00:00	2024-11-08T18:00:00	1	Precipitación	0
93192	7	Sololá	717	San Juan la Laguna	12	San Juan la Laguna	12	Diciembre	2023-05-12T00:00:00	2024-11-08T18:00:00	8	Radiación solar	5
93193	7	Sololá	717	San Juan la Laguna	12	San Juan la Laguna	12	Diciembre	2023-05-12T00:00:00	2024-11-08T19:00:00	2	Temperatura media	21.2
93194	7	Sololá	717	San Juan la Laguna	12	San Juan la Laguna	12	Diciembre	2023-05-12T00:00:00	2024-11-08T19:00:00	4	Temperatura máxima	21.9
93195	7	Sololá	717	San Juan la Laguna	12	San Juan la Laguna	12	Diciembre	2023-05-12T00:00:00	2024-11-08T19:00:00	3	Temperatura mínima	21.2
93196	7	Sololá	717	San Juan la Laguna	12	San Juan la Laguna	12	Diciembre	2023-05-12T00:00:00	2024-11-08T19:00:00	5	Humedad	63
93197	7	Sololá	717	San Juan la Laguna	12	San Juan la Laguna	12	Diciembre	2023-05-12T00:00:00	2024-11-08T19:00:00	6	Velocidad del viento	11.3
93198	7	Sololá	717	San Juan la Laguna	12	San Juan la Laguna	12	Diciembre	2023-05-12T00:00:00	2024-11-08T19:00:00	7	Dirección del viento	11.27
93199	7	Sololá	717	San Juan la Laguna	12	San Juan la Laguna	12	Diciembre	2023-05-12T00:00:00	2024-11-08T19:00:00	1	Precipitación	0
93200	7	Sololá	717	San Juan la Laguna	12	San Juan la Laguna	12	Diciembre	2023-05-12T00:00:00	2024-11-08T19:00:00	8	Radiación solar	0
93201	7	Sololá	717	San Juan la Laguna	12	San Juan la Laguna	12	Diciembre	2023-05-12T00:00:00	2024-11-08T20:00:00	2	Temperatura media	20.3
93202	7	Sololá	717	San Juan la Laguna	12	San Juan la Laguna	12	Diciembre	2023-05-12T00:00:00	2024-11-08T20:00:00	4	Temperatura máxima	21.2
93203	7	Sololá	717	San Juan la Laguna	12	San Juan la Laguna	12	Diciembre	2023-05-12T00:00:00	2024-11-08T20:00:00	3	Temperatura mínima	20.3
93204	7	Sololá	717	San Juan la Laguna	12	San Juan la Laguna	12	Diciembre	2023-05-12T00:00:00	2024-11-08T20:00:00	5	Humedad	67
93205	7	Sololá	717	San Juan la Laguna	12	San Juan la Laguna	12	Diciembre	2023-05-12T00:00:00	2024-11-08T20:00:00	6	Velocidad del viento	12.9
93206	7	Sololá	717	San Juan la Laguna	12	San Juan la Laguna	12	Diciembre	2023-05-12T00:00:00	2024-11-08T20:00:00	7	Dirección del viento	12.87
93207	7	Sololá	717	San Juan la Laguna	12	San Juan la Laguna	12	Diciembre	2023-05-12T00:00:00	2024-11-08T20:00:00	1	Precipitación	0
93208	7	Sololá	717	San Juan la Laguna	12	San Juan la Laguna	12	Diciembre	2023-05-12T00:00:00	2024-11-08T20:00:00	8	Radiación solar	0
93209	7	Sololá	717	San Juan la Laguna	12	San Juan la Laguna	12	Diciembre	2023-05-12T00:00:00	2024-11-08T21:00:00	2	Temperatura media	20.1
93210	7	Sololá	717	San Juan la Laguna	12	San Juan la Laguna	12	Diciembre	2023-05-12T00:00:00	2024-11-08T21:00:00	4	Temperatura máxima	20.4
93211	7	Sololá	717	San Juan la Laguna	12	San Juan la Laguna	12	Diciembre	2023-05-12T00:00:00	2024-11-08T21:00:00	3	Temperatura mínima	20.1
93212	7	Sololá	717	San Juan la Laguna	12	San Juan la Laguna	12	Diciembre	2023-05-12T00:00:00	2024-11-08T21:00:00	5	Humedad	67
93213	7	Sololá	717	San Juan la Laguna	12	San Juan la Laguna	12	Diciembre	2023-05-12T00:00:00	2024-11-08T21:00:00	6	Velocidad del viento	11.3
93214	7	Sololá	717	San Juan la Laguna	12	San Juan la Laguna	12	Diciembre	2023-05-12T00:00:00	2024-11-08T21:00:00	7	Dirección del viento	11.27
93215	7	Sololá	717	San Juan la Laguna	12	San Juan la Laguna	12	Diciembre	2023-05-12T00:00:00	2024-11-08T21:00:00	1	Precipitación	0
93216	7	Sololá	717	San Juan la Laguna	12	San Juan la Laguna	12	Diciembre	2023-05-12T00:00:00	2024-11-08T21:00:00	8	Radiación solar	0
93217	7	Sololá	717	San Juan la Laguna	12	San Juan la Laguna	12	Diciembre	2023-05-12T00:00:00	2024-11-08T22:00:00	2	Temperatura media	20.1
93218	7	Sololá	717	San Juan la Laguna	12	San Juan la Laguna	12	Diciembre	2023-05-12T00:00:00	2024-11-08T22:00:00	4	Temperatura máxima	20.2
93219	7	Sololá	717	San Juan la Laguna	12	San Juan la Laguna	12	Diciembre	2023-05-12T00:00:00	2024-11-08T22:00:00	3	Temperatura mínima	19.8
93220	7	Sololá	717	San Juan la Laguna	12	San Juan la Laguna	12	Diciembre	2023-05-12T00:00:00	2024-11-08T22:00:00	5	Humedad	68
93221	7	Sololá	717	San Juan la Laguna	12	San Juan la Laguna	12	Diciembre	2023-05-12T00:00:00	2024-11-08T22:00:00	6	Velocidad del viento	8
93222	7	Sololá	717	San Juan la Laguna	12	San Juan la Laguna	12	Diciembre	2023-05-12T00:00:00	2024-11-08T22:00:00	7	Dirección del viento	8.05
93223	7	Sololá	717	San Juan la Laguna	12	San Juan la Laguna	12	Diciembre	2023-05-12T00:00:00	2024-11-08T22:00:00	1	Precipitación	0
93224	7	Sololá	717	San Juan la Laguna	12	San Juan la Laguna	12	Diciembre	2023-05-12T00:00:00	2024-11-08T22:00:00	8	Radiación solar	0
93225	7	Sololá	717	San Juan la Laguna	12	San Juan la Laguna	12	Diciembre	2023-05-12T00:00:00	2024-11-08T23:00:00	2	Temperatura media	18
93226	7	Sololá	717	San Juan la Laguna	12	San Juan la Laguna	12	Diciembre	2023-05-12T00:00:00	2024-11-08T23:00:00	4	Temperatura máxima	20.1
93227	7	Sololá	717	San Juan la Laguna	12	San Juan la Laguna	12	Diciembre	2023-05-12T00:00:00	2024-11-08T23:00:00	3	Temperatura mínima	18
93228	7	Sololá	717	San Juan la Laguna	12	San Juan la Laguna	12	Diciembre	2023-05-12T00:00:00	2024-11-08T23:00:00	5	Humedad	74
93229	7	Sololá	717	San Juan la Laguna	12	San Juan la Laguna	12	Diciembre	2023-05-12T00:00:00	2024-11-08T23:00:00	6	Velocidad del viento	4.8
93230	7	Sololá	717	San Juan la Laguna	12	San Juan la Laguna	12	Diciembre	2023-05-12T00:00:00	2024-11-08T23:00:00	7	Dirección del viento	4.83
93231	7	Sololá	717	San Juan la Laguna	12	San Juan la Laguna	12	Diciembre	2023-05-12T00:00:00	2024-11-08T23:00:00	1	Precipitación	0
93232	7	Sololá	717	San Juan la Laguna	12	San Juan la Laguna	12	Diciembre	2023-05-12T00:00:00	2024-11-08T23:00:00	8	Radiación solar	0
93233	7	Sololá	717	San Juan la Laguna	12	San Juan la Laguna	12	Diciembre	2023-06-12T00:00:00	2024-11-08T00:00:00	2	Temperatura media	19.7
93234	7	Sololá	717	San Juan la Laguna	12	San Juan la Laguna	12	Diciembre	2023-06-12T00:00:00	2024-11-08T00:00:00	4	Temperatura máxima	19.7
93235	7	Sololá	717	San Juan la Laguna	12	San Juan la Laguna	12	Diciembre	2023-06-12T00:00:00	2024-11-08T00:00:00	3	Temperatura mínima	17.6
93236	7	Sololá	717	San Juan la Laguna	12	San Juan la Laguna	12	Diciembre	2023-06-12T00:00:00	2024-11-08T00:00:00	5	Humedad	63
93237	7	Sololá	717	San Juan la Laguna	12	San Juan la Laguna	12	Diciembre	2023-06-12T00:00:00	2024-11-08T00:00:00	6	Velocidad del viento	4.8
93238	7	Sololá	717	San Juan la Laguna	12	San Juan la Laguna	12	Diciembre	2023-06-12T00:00:00	2024-11-08T00:00:00	7	Dirección del viento	4.83
93239	7	Sololá	717	San Juan la Laguna	12	San Juan la Laguna	12	Diciembre	2023-06-12T00:00:00	2024-11-08T00:00:00	1	Precipitación	0
93240	7	Sololá	717	San Juan la Laguna	12	San Juan la Laguna	12	Diciembre	2023-06-12T00:00:00	2024-11-08T00:00:00	8	Radiación solar	0
93241	7	Sololá	717	San Juan la Laguna	12	San Juan la Laguna	12	Diciembre	2023-06-12T00:00:00	2024-11-08T01:00:00	2	Temperatura media	18.8
93242	7	Sololá	717	San Juan la Laguna	12	San Juan la Laguna	12	Diciembre	2023-06-12T00:00:00	2024-11-08T01:00:00	4	Temperatura máxima	19.9
93243	7	Sololá	717	San Juan la Laguna	12	San Juan la Laguna	12	Diciembre	2023-06-12T00:00:00	2024-11-08T01:00:00	3	Temperatura mínima	18.8
93244	7	Sololá	717	San Juan la Laguna	12	San Juan la Laguna	12	Diciembre	2023-06-12T00:00:00	2024-11-08T01:00:00	5	Humedad	66
93245	7	Sololá	717	San Juan la Laguna	12	San Juan la Laguna	12	Diciembre	2023-06-12T00:00:00	2024-11-08T01:00:00	6	Velocidad del viento	6.4
93246	7	Sololá	717	San Juan la Laguna	12	San Juan la Laguna	12	Diciembre	2023-06-12T00:00:00	2024-11-08T01:00:00	7	Dirección del viento	6.44
93247	7	Sololá	717	San Juan la Laguna	12	San Juan la Laguna	12	Diciembre	2023-06-12T00:00:00	2024-11-08T01:00:00	1	Precipitación	0
93248	7	Sololá	717	San Juan la Laguna	12	San Juan la Laguna	12	Diciembre	2023-06-12T00:00:00	2024-11-08T01:00:00	8	Radiación solar	0
93249	7	Sololá	717	San Juan la Laguna	12	San Juan la Laguna	12	Diciembre	2023-06-12T00:00:00	2024-11-08T02:00:00	2	Temperatura media	17.9
93250	7	Sololá	717	San Juan la Laguna	12	San Juan la Laguna	12	Diciembre	2023-06-12T00:00:00	2024-11-08T02:00:00	4	Temperatura máxima	18.9
93251	7	Sololá	717	San Juan la Laguna	12	San Juan la Laguna	12	Diciembre	2023-06-12T00:00:00	2024-11-08T02:00:00	3	Temperatura mínima	17.9
93252	7	Sololá	717	San Juan la Laguna	12	San Juan la Laguna	12	Diciembre	2023-06-12T00:00:00	2024-11-08T02:00:00	5	Humedad	73
93253	7	Sololá	717	San Juan la Laguna	12	San Juan la Laguna	12	Diciembre	2023-06-12T00:00:00	2024-11-08T02:00:00	6	Velocidad del viento	3.2
93254	7	Sololá	717	San Juan la Laguna	12	San Juan la Laguna	12	Diciembre	2023-06-12T00:00:00	2024-11-08T02:00:00	7	Dirección del viento	3.22
93255	7	Sololá	717	San Juan la Laguna	12	San Juan la Laguna	12	Diciembre	2023-06-12T00:00:00	2024-11-08T02:00:00	1	Precipitación	0
93256	7	Sololá	717	San Juan la Laguna	12	San Juan la Laguna	12	Diciembre	2023-06-12T00:00:00	2024-11-08T02:00:00	8	Radiación solar	0
93257	7	Sololá	717	San Juan la Laguna	12	San Juan la Laguna	12	Diciembre	2023-06-12T00:00:00	2024-11-08T03:00:00	2	Temperatura media	19.4
93258	7	Sololá	717	San Juan la Laguna	12	San Juan la Laguna	12	Diciembre	2023-06-12T00:00:00	2024-11-08T03:00:00	4	Temperatura máxima	19.4
93259	7	Sololá	717	San Juan la Laguna	12	San Juan la Laguna	12	Diciembre	2023-06-12T00:00:00	2024-11-08T03:00:00	3	Temperatura mínima	17.9
93260	7	Sololá	717	San Juan la Laguna	12	San Juan la Laguna	12	Diciembre	2023-06-12T00:00:00	2024-11-08T03:00:00	5	Humedad	69
93261	7	Sololá	717	San Juan la Laguna	12	San Juan la Laguna	12	Diciembre	2023-06-12T00:00:00	2024-11-08T03:00:00	6	Velocidad del viento	6.4
93262	7	Sololá	717	San Juan la Laguna	12	San Juan la Laguna	12	Diciembre	2023-06-12T00:00:00	2024-11-08T03:00:00	7	Dirección del viento	6.44
93263	7	Sololá	717	San Juan la Laguna	12	San Juan la Laguna	12	Diciembre	2023-06-12T00:00:00	2024-11-08T03:00:00	1	Precipitación	0
93264	7	Sololá	717	San Juan la Laguna	12	San Juan la Laguna	12	Diciembre	2023-06-12T00:00:00	2024-11-08T03:00:00	8	Radiación solar	0
93265	7	Sololá	717	San Juan la Laguna	12	San Juan la Laguna	12	Diciembre	2023-06-12T00:00:00	2024-11-08T04:00:00	2	Temperatura media	19.1
93266	7	Sololá	717	San Juan la Laguna	12	San Juan la Laguna	12	Diciembre	2023-06-12T00:00:00	2024-11-08T04:00:00	4	Temperatura máxima	19.4
93267	7	Sololá	717	San Juan la Laguna	12	San Juan la Laguna	12	Diciembre	2023-06-12T00:00:00	2024-11-08T04:00:00	3	Temperatura mínima	19.1
93268	7	Sololá	717	San Juan la Laguna	12	San Juan la Laguna	12	Diciembre	2023-06-12T00:00:00	2024-11-08T04:00:00	5	Humedad	72
93269	7	Sololá	717	San Juan la Laguna	12	San Juan la Laguna	12	Diciembre	2023-06-12T00:00:00	2024-11-08T04:00:00	6	Velocidad del viento	11.3
93270	7	Sololá	717	San Juan la Laguna	12	San Juan la Laguna	12	Diciembre	2023-06-12T00:00:00	2024-11-08T04:00:00	7	Dirección del viento	11.27
93271	7	Sololá	717	San Juan la Laguna	12	San Juan la Laguna	12	Diciembre	2023-06-12T00:00:00	2024-11-08T04:00:00	1	Precipitación	0
93272	7	Sololá	717	San Juan la Laguna	12	San Juan la Laguna	12	Diciembre	2023-06-12T00:00:00	2024-11-08T04:00:00	8	Radiación solar	0
93273	7	Sololá	717	San Juan la Laguna	12	San Juan la Laguna	12	Diciembre	2023-06-12T00:00:00	2024-11-08T05:00:00	2	Temperatura media	18.7
93274	7	Sololá	717	San Juan la Laguna	12	San Juan la Laguna	12	Diciembre	2023-06-12T00:00:00	2024-11-08T05:00:00	4	Temperatura máxima	19.1
93275	7	Sololá	717	San Juan la Laguna	12	San Juan la Laguna	12	Diciembre	2023-06-12T00:00:00	2024-11-08T05:00:00	3	Temperatura mínima	18.6
93276	7	Sololá	717	San Juan la Laguna	12	San Juan la Laguna	12	Diciembre	2023-06-12T00:00:00	2024-11-08T05:00:00	5	Humedad	74
93277	7	Sololá	717	San Juan la Laguna	12	San Juan la Laguna	12	Diciembre	2023-06-12T00:00:00	2024-11-08T05:00:00	6	Velocidad del viento	8
93278	7	Sololá	717	San Juan la Laguna	12	San Juan la Laguna	12	Diciembre	2023-06-12T00:00:00	2024-11-08T05:00:00	7	Dirección del viento	8.05
93279	7	Sololá	717	San Juan la Laguna	12	San Juan la Laguna	12	Diciembre	2023-06-12T00:00:00	2024-11-08T05:00:00	1	Precipitación	0
93280	7	Sololá	717	San Juan la Laguna	12	San Juan la Laguna	12	Diciembre	2023-06-12T00:00:00	2024-11-08T05:00:00	8	Radiación solar	0
93281	7	Sololá	717	San Juan la Laguna	12	San Juan la Laguna	12	Diciembre	2023-06-12T00:00:00	2024-11-08T06:00:00	2	Temperatura media	18.3
93282	7	Sololá	717	San Juan la Laguna	12	San Juan la Laguna	12	Diciembre	2023-06-12T00:00:00	2024-11-08T06:00:00	4	Temperatura máxima	19.1
93283	7	Sololá	717	San Juan la Laguna	12	San Juan la Laguna	12	Diciembre	2023-06-12T00:00:00	2024-11-08T06:00:00	3	Temperatura mínima	18.3
93284	7	Sololá	717	San Juan la Laguna	12	San Juan la Laguna	12	Diciembre	2023-06-12T00:00:00	2024-11-08T06:00:00	5	Humedad	75
93285	7	Sololá	717	San Juan la Laguna	12	San Juan la Laguna	12	Diciembre	2023-06-12T00:00:00	2024-11-08T06:00:00	6	Velocidad del viento	6.4
93286	7	Sololá	717	San Juan la Laguna	12	San Juan la Laguna	12	Diciembre	2023-06-12T00:00:00	2024-11-08T06:00:00	7	Dirección del viento	6.44
93287	7	Sololá	717	San Juan la Laguna	12	San Juan la Laguna	12	Diciembre	2023-06-12T00:00:00	2024-11-08T06:00:00	1	Precipitación	0
93288	7	Sololá	717	San Juan la Laguna	12	San Juan la Laguna	12	Diciembre	2023-06-12T00:00:00	2024-11-08T06:00:00	8	Radiación solar	0
93289	7	Sololá	717	San Juan la Laguna	12	San Juan la Laguna	12	Diciembre	2023-06-12T00:00:00	2024-11-08T07:00:00	2	Temperatura media	17.6
93290	7	Sololá	717	San Juan la Laguna	12	San Juan la Laguna	12	Diciembre	2023-06-12T00:00:00	2024-11-08T07:00:00	4	Temperatura máxima	18.6
93291	7	Sololá	717	San Juan la Laguna	12	San Juan la Laguna	12	Diciembre	2023-06-12T00:00:00	2024-11-08T07:00:00	3	Temperatura mínima	17.2
93292	7	Sololá	717	San Juan la Laguna	12	San Juan la Laguna	12	Diciembre	2023-06-12T00:00:00	2024-11-08T07:00:00	5	Humedad	80
93293	7	Sololá	717	San Juan la Laguna	12	San Juan la Laguna	12	Diciembre	2023-06-12T00:00:00	2024-11-08T07:00:00	6	Velocidad del viento	3.2
93294	7	Sololá	717	San Juan la Laguna	12	San Juan la Laguna	12	Diciembre	2023-06-12T00:00:00	2024-11-08T07:00:00	7	Dirección del viento	3.22
93295	7	Sololá	717	San Juan la Laguna	12	San Juan la Laguna	12	Diciembre	2023-06-12T00:00:00	2024-11-08T07:00:00	1	Precipitación	0
93296	7	Sololá	717	San Juan la Laguna	12	San Juan la Laguna	12	Diciembre	2023-06-12T00:00:00	2024-11-08T07:00:00	8	Radiación solar	15
93297	7	Sololá	717	San Juan la Laguna	12	San Juan la Laguna	12	Diciembre	2023-06-12T00:00:00	2024-11-08T08:00:00	2	Temperatura media	20.9
93298	7	Sololá	717	San Juan la Laguna	12	San Juan la Laguna	12	Diciembre	2023-06-12T00:00:00	2024-11-08T08:00:00	4	Temperatura máxima	21.2
93299	7	Sololá	717	San Juan la Laguna	12	San Juan la Laguna	12	Diciembre	2023-06-12T00:00:00	2024-11-08T08:00:00	3	Temperatura mínima	17.6
93300	7	Sololá	717	San Juan la Laguna	12	San Juan la Laguna	12	Diciembre	2023-06-12T00:00:00	2024-11-08T08:00:00	5	Humedad	67
93301	7	Sololá	717	San Juan la Laguna	12	San Juan la Laguna	12	Diciembre	2023-06-12T00:00:00	2024-11-08T08:00:00	6	Velocidad del viento	12.9
93302	7	Sololá	717	San Juan la Laguna	12	San Juan la Laguna	12	Diciembre	2023-06-12T00:00:00	2024-11-08T08:00:00	7	Dirección del viento	12.87
93303	7	Sololá	717	San Juan la Laguna	12	San Juan la Laguna	12	Diciembre	2023-06-12T00:00:00	2024-11-08T08:00:00	1	Precipitación	0
93304	7	Sololá	717	San Juan la Laguna	12	San Juan la Laguna	12	Diciembre	2023-06-12T00:00:00	2024-11-08T08:00:00	8	Radiación solar	166
93305	7	Sololá	717	San Juan la Laguna	12	San Juan la Laguna	12	Diciembre	2023-06-12T00:00:00	2024-11-08T09:00:00	2	Temperatura media	20.4
93306	7	Sololá	717	San Juan la Laguna	12	San Juan la Laguna	12	Diciembre	2023-06-12T00:00:00	2024-11-08T09:00:00	4	Temperatura máxima	21.1
93307	7	Sololá	717	San Juan la Laguna	12	San Juan la Laguna	12	Diciembre	2023-06-12T00:00:00	2024-11-08T09:00:00	3	Temperatura mínima	20.3
93308	7	Sololá	717	San Juan la Laguna	12	San Juan la Laguna	12	Diciembre	2023-06-12T00:00:00	2024-11-08T09:00:00	5	Humedad	69
93309	7	Sololá	717	San Juan la Laguna	12	San Juan la Laguna	12	Diciembre	2023-06-12T00:00:00	2024-11-08T09:00:00	6	Velocidad del viento	12.9
93310	7	Sololá	717	San Juan la Laguna	12	San Juan la Laguna	12	Diciembre	2023-06-12T00:00:00	2024-11-08T09:00:00	7	Dirección del viento	12.87
93311	7	Sololá	717	San Juan la Laguna	12	San Juan la Laguna	12	Diciembre	2023-06-12T00:00:00	2024-11-08T09:00:00	1	Precipitación	0
93312	7	Sololá	717	San Juan la Laguna	12	San Juan la Laguna	12	Diciembre	2023-06-12T00:00:00	2024-11-08T09:00:00	8	Radiación solar	182
93313	7	Sololá	717	San Juan la Laguna	12	San Juan la Laguna	12	Diciembre	2023-06-12T00:00:00	2024-11-08T10:00:00	2	Temperatura media	21.8
93314	7	Sololá	717	San Juan la Laguna	12	San Juan la Laguna	12	Diciembre	2023-06-12T00:00:00	2024-11-08T10:00:00	4	Temperatura máxima	21.8
93315	7	Sololá	717	San Juan la Laguna	12	San Juan la Laguna	12	Diciembre	2023-06-12T00:00:00	2024-11-08T10:00:00	3	Temperatura mínima	20.3
93316	7	Sololá	717	San Juan la Laguna	12	San Juan la Laguna	12	Diciembre	2023-06-12T00:00:00	2024-11-08T10:00:00	5	Humedad	64
93317	7	Sololá	717	San Juan la Laguna	12	San Juan la Laguna	12	Diciembre	2023-06-12T00:00:00	2024-11-08T10:00:00	6	Velocidad del viento	12.9
93318	7	Sololá	717	San Juan la Laguna	12	San Juan la Laguna	12	Diciembre	2023-06-12T00:00:00	2024-11-08T10:00:00	7	Dirección del viento	12.87
93319	7	Sololá	717	San Juan la Laguna	12	San Juan la Laguna	12	Diciembre	2023-06-12T00:00:00	2024-11-08T10:00:00	1	Precipitación	0
93320	7	Sololá	717	San Juan la Laguna	12	San Juan la Laguna	12	Diciembre	2023-06-12T00:00:00	2024-11-08T10:00:00	8	Radiación solar	296
93321	7	Sololá	717	San Juan la Laguna	12	San Juan la Laguna	12	Diciembre	2023-06-12T00:00:00	2024-11-08T11:00:00	2	Temperatura media	21.7
93322	7	Sololá	717	San Juan la Laguna	12	San Juan la Laguna	12	Diciembre	2023-06-12T00:00:00	2024-11-08T11:00:00	4	Temperatura máxima	22.9
93323	7	Sololá	717	San Juan la Laguna	12	San Juan la Laguna	12	Diciembre	2023-06-12T00:00:00	2024-11-08T11:00:00	3	Temperatura mínima	21.7
93324	7	Sololá	717	San Juan la Laguna	12	San Juan la Laguna	12	Diciembre	2023-06-12T00:00:00	2024-11-08T11:00:00	5	Humedad	63
93325	7	Sololá	717	San Juan la Laguna	12	San Juan la Laguna	12	Diciembre	2023-06-12T00:00:00	2024-11-08T11:00:00	6	Velocidad del viento	16.1
93326	7	Sololá	717	San Juan la Laguna	12	San Juan la Laguna	12	Diciembre	2023-06-12T00:00:00	2024-11-08T11:00:00	7	Dirección del viento	16.09
93327	7	Sololá	717	San Juan la Laguna	12	San Juan la Laguna	12	Diciembre	2023-06-12T00:00:00	2024-11-08T11:00:00	1	Precipitación	0
93328	7	Sololá	717	San Juan la Laguna	12	San Juan la Laguna	12	Diciembre	2023-06-12T00:00:00	2024-11-08T11:00:00	8	Radiación solar	637
93329	7	Sololá	717	San Juan la Laguna	12	San Juan la Laguna	12	Diciembre	2023-06-12T00:00:00	2024-11-08T12:00:00	2	Temperatura media	22.1
93330	7	Sololá	717	San Juan la Laguna	12	San Juan la Laguna	12	Diciembre	2023-06-12T00:00:00	2024-11-08T12:00:00	4	Temperatura máxima	22.3
93331	7	Sololá	717	San Juan la Laguna	12	San Juan la Laguna	12	Diciembre	2023-06-12T00:00:00	2024-11-08T12:00:00	3	Temperatura mínima	21.7
93332	7	Sololá	717	San Juan la Laguna	12	San Juan la Laguna	12	Diciembre	2023-06-12T00:00:00	2024-11-08T12:00:00	5	Humedad	58
93333	7	Sololá	717	San Juan la Laguna	12	San Juan la Laguna	12	Diciembre	2023-06-12T00:00:00	2024-11-08T12:00:00	6	Velocidad del viento	17.7
93334	7	Sololá	717	San Juan la Laguna	12	San Juan la Laguna	12	Diciembre	2023-06-12T00:00:00	2024-11-08T12:00:00	7	Dirección del viento	17.7
93335	7	Sololá	717	San Juan la Laguna	12	San Juan la Laguna	12	Diciembre	2023-06-12T00:00:00	2024-11-08T12:00:00	1	Precipitación	0
93336	7	Sololá	717	San Juan la Laguna	12	San Juan la Laguna	12	Diciembre	2023-06-12T00:00:00	2024-11-08T12:00:00	8	Radiación solar	596
93337	7	Sololá	717	San Juan la Laguna	12	San Juan la Laguna	12	Diciembre	2023-06-12T00:00:00	2024-11-08T13:00:00	2	Temperatura media	22.1
93338	7	Sololá	717	San Juan la Laguna	12	San Juan la Laguna	12	Diciembre	2023-06-12T00:00:00	2024-11-08T13:00:00	4	Temperatura máxima	22.4
93339	7	Sololá	717	San Juan la Laguna	12	San Juan la Laguna	12	Diciembre	2023-06-12T00:00:00	2024-11-08T13:00:00	3	Temperatura mínima	21.7
93340	7	Sololá	717	San Juan la Laguna	12	San Juan la Laguna	12	Diciembre	2023-06-12T00:00:00	2024-11-08T13:00:00	5	Humedad	55
93341	7	Sololá	717	San Juan la Laguna	12	San Juan la Laguna	12	Diciembre	2023-06-12T00:00:00	2024-11-08T13:00:00	6	Velocidad del viento	14.5
93342	7	Sololá	717	San Juan la Laguna	12	San Juan la Laguna	12	Diciembre	2023-06-12T00:00:00	2024-11-08T13:00:00	7	Dirección del viento	14.48
93343	7	Sololá	717	San Juan la Laguna	12	San Juan la Laguna	12	Diciembre	2023-06-12T00:00:00	2024-11-08T13:00:00	1	Precipitación	0
93344	7	Sololá	717	San Juan la Laguna	12	San Juan la Laguna	12	Diciembre	2023-06-12T00:00:00	2024-11-08T13:00:00	8	Radiación solar	365
93345	7	Sololá	717	San Juan la Laguna	12	San Juan la Laguna	12	Diciembre	2023-06-12T00:00:00	2024-11-08T14:00:00	2	Temperatura media	22.3
93346	7	Sololá	717	San Juan la Laguna	12	San Juan la Laguna	12	Diciembre	2023-06-12T00:00:00	2024-11-08T14:00:00	4	Temperatura máxima	22.7
93347	7	Sololá	717	San Juan la Laguna	12	San Juan la Laguna	12	Diciembre	2023-06-12T00:00:00	2024-11-08T14:00:00	3	Temperatura mínima	21.9
93348	7	Sololá	717	San Juan la Laguna	12	San Juan la Laguna	12	Diciembre	2023-06-12T00:00:00	2024-11-08T14:00:00	5	Humedad	53
93349	7	Sololá	717	San Juan la Laguna	12	San Juan la Laguna	12	Diciembre	2023-06-12T00:00:00	2024-11-08T14:00:00	6	Velocidad del viento	14.5
93350	7	Sololá	717	San Juan la Laguna	12	San Juan la Laguna	12	Diciembre	2023-06-12T00:00:00	2024-11-08T14:00:00	7	Dirección del viento	14.48
93351	7	Sololá	717	San Juan la Laguna	12	San Juan la Laguna	12	Diciembre	2023-06-12T00:00:00	2024-11-08T14:00:00	1	Precipitación	0
93352	7	Sololá	717	San Juan la Laguna	12	San Juan la Laguna	12	Diciembre	2023-06-12T00:00:00	2024-11-08T14:00:00	8	Radiación solar	405
93353	7	Sololá	717	San Juan la Laguna	12	San Juan la Laguna	12	Diciembre	2023-06-12T00:00:00	2024-11-08T15:00:00	2	Temperatura media	22.8
93354	7	Sololá	717	San Juan la Laguna	12	San Juan la Laguna	12	Diciembre	2023-06-12T00:00:00	2024-11-08T15:00:00	4	Temperatura máxima	23.1
93355	7	Sololá	717	San Juan la Laguna	12	San Juan la Laguna	12	Diciembre	2023-06-12T00:00:00	2024-11-08T15:00:00	3	Temperatura mínima	22.3
93356	7	Sololá	717	San Juan la Laguna	12	San Juan la Laguna	12	Diciembre	2023-06-12T00:00:00	2024-11-08T15:00:00	5	Humedad	51
93357	7	Sololá	717	San Juan la Laguna	12	San Juan la Laguna	12	Diciembre	2023-06-12T00:00:00	2024-11-08T15:00:00	6	Velocidad del viento	14.5
93358	7	Sololá	717	San Juan la Laguna	12	San Juan la Laguna	12	Diciembre	2023-06-12T00:00:00	2024-11-08T15:00:00	7	Dirección del viento	14.48
93359	7	Sololá	717	San Juan la Laguna	12	San Juan la Laguna	12	Diciembre	2023-06-12T00:00:00	2024-11-08T15:00:00	1	Precipitación	0
93360	7	Sololá	717	San Juan la Laguna	12	San Juan la Laguna	12	Diciembre	2023-06-12T00:00:00	2024-11-08T15:00:00	8	Radiación solar	486
93361	7	Sololá	717	San Juan la Laguna	12	San Juan la Laguna	12	Diciembre	2023-06-12T00:00:00	2024-11-08T16:00:00	2	Temperatura media	22.1
93362	7	Sololá	717	San Juan la Laguna	12	San Juan la Laguna	12	Diciembre	2023-06-12T00:00:00	2024-11-08T16:00:00	4	Temperatura máxima	22.8
93363	7	Sololá	717	San Juan la Laguna	12	San Juan la Laguna	12	Diciembre	2023-06-12T00:00:00	2024-11-08T16:00:00	3	Temperatura mínima	22.1
93364	7	Sololá	717	San Juan la Laguna	12	San Juan la Laguna	12	Diciembre	2023-06-12T00:00:00	2024-11-08T16:00:00	5	Humedad	53
93365	7	Sololá	717	San Juan la Laguna	12	San Juan la Laguna	12	Diciembre	2023-06-12T00:00:00	2024-11-08T16:00:00	6	Velocidad del viento	11.3
93366	7	Sololá	717	San Juan la Laguna	12	San Juan la Laguna	12	Diciembre	2023-06-12T00:00:00	2024-11-08T16:00:00	7	Dirección del viento	11.27
93367	7	Sololá	717	San Juan la Laguna	12	San Juan la Laguna	12	Diciembre	2023-06-12T00:00:00	2024-11-08T16:00:00	1	Precipitación	0
93368	7	Sololá	717	San Juan la Laguna	12	San Juan la Laguna	12	Diciembre	2023-06-12T00:00:00	2024-11-08T16:00:00	8	Radiación solar	388
93369	7	Sololá	717	San Juan la Laguna	12	San Juan la Laguna	12	Diciembre	2023-06-12T00:00:00	2024-11-08T17:00:00	2	Temperatura media	20.9
93370	7	Sololá	717	San Juan la Laguna	12	San Juan la Laguna	12	Diciembre	2023-06-12T00:00:00	2024-11-08T17:00:00	4	Temperatura máxima	22.2
93371	7	Sololá	717	San Juan la Laguna	12	San Juan la Laguna	12	Diciembre	2023-06-12T00:00:00	2024-11-08T17:00:00	3	Temperatura mínima	20.9
93372	7	Sololá	717	San Juan la Laguna	12	San Juan la Laguna	12	Diciembre	2023-06-12T00:00:00	2024-11-08T17:00:00	5	Humedad	60
93373	7	Sololá	717	San Juan la Laguna	12	San Juan la Laguna	12	Diciembre	2023-06-12T00:00:00	2024-11-08T17:00:00	6	Velocidad del viento	11.3
93374	7	Sololá	717	San Juan la Laguna	12	San Juan la Laguna	12	Diciembre	2023-06-12T00:00:00	2024-11-08T17:00:00	7	Dirección del viento	11.27
93375	7	Sololá	717	San Juan la Laguna	12	San Juan la Laguna	12	Diciembre	2023-06-12T00:00:00	2024-11-08T17:00:00	1	Precipitación	0
93376	7	Sololá	717	San Juan la Laguna	12	San Juan la Laguna	12	Diciembre	2023-06-12T00:00:00	2024-11-08T17:00:00	8	Radiación solar	104
93377	7	Sololá	717	San Juan la Laguna	12	San Juan la Laguna	12	Diciembre	2023-06-12T00:00:00	2024-11-08T18:00:00	2	Temperatura media	19.9
93378	7	Sololá	717	San Juan la Laguna	12	San Juan la Laguna	12	Diciembre	2023-06-12T00:00:00	2024-11-08T18:00:00	4	Temperatura máxima	21
93379	7	Sololá	717	San Juan la Laguna	12	San Juan la Laguna	12	Diciembre	2023-06-12T00:00:00	2024-11-08T18:00:00	3	Temperatura mínima	19.9
93380	7	Sololá	717	San Juan la Laguna	12	San Juan la Laguna	12	Diciembre	2023-06-12T00:00:00	2024-11-08T18:00:00	5	Humedad	60
93381	7	Sololá	717	San Juan la Laguna	12	San Juan la Laguna	12	Diciembre	2023-06-12T00:00:00	2024-11-08T18:00:00	6	Velocidad del viento	14.5
93382	7	Sololá	717	San Juan la Laguna	12	San Juan la Laguna	12	Diciembre	2023-06-12T00:00:00	2024-11-08T18:00:00	7	Dirección del viento	14.48
93383	7	Sololá	717	San Juan la Laguna	12	San Juan la Laguna	12	Diciembre	2023-06-12T00:00:00	2024-11-08T18:00:00	1	Precipitación	0
93384	7	Sololá	717	San Juan la Laguna	12	San Juan la Laguna	12	Diciembre	2023-06-12T00:00:00	2024-11-08T18:00:00	8	Radiación solar	27
93385	7	Sololá	717	San Juan la Laguna	12	San Juan la Laguna	12	Diciembre	2023-06-12T00:00:00	2024-11-08T19:00:00	2	Temperatura media	19.3
93386	7	Sololá	717	San Juan la Laguna	12	San Juan la Laguna	12	Diciembre	2023-06-12T00:00:00	2024-11-08T19:00:00	4	Temperatura máxima	19.9
93387	7	Sololá	717	San Juan la Laguna	12	San Juan la Laguna	12	Diciembre	2023-06-12T00:00:00	2024-11-08T19:00:00	3	Temperatura mínima	19.2
93388	7	Sololá	717	San Juan la Laguna	12	San Juan la Laguna	12	Diciembre	2023-06-12T00:00:00	2024-11-08T19:00:00	5	Humedad	64
93389	7	Sololá	717	San Juan la Laguna	12	San Juan la Laguna	12	Diciembre	2023-06-12T00:00:00	2024-11-08T19:00:00	6	Velocidad del viento	11.3
93390	7	Sololá	717	San Juan la Laguna	12	San Juan la Laguna	12	Diciembre	2023-06-12T00:00:00	2024-11-08T19:00:00	7	Dirección del viento	11.27
93391	7	Sololá	717	San Juan la Laguna	12	San Juan la Laguna	12	Diciembre	2023-06-12T00:00:00	2024-11-08T19:00:00	1	Precipitación	0
93392	7	Sololá	717	San Juan la Laguna	12	San Juan la Laguna	12	Diciembre	2023-06-12T00:00:00	2024-11-08T19:00:00	8	Radiación solar	0
93393	7	Sololá	717	San Juan la Laguna	12	San Juan la Laguna	12	Diciembre	2023-06-12T00:00:00	2024-11-08T20:00:00	2	Temperatura media	19.3
93394	7	Sololá	717	San Juan la Laguna	12	San Juan la Laguna	12	Diciembre	2023-06-12T00:00:00	2024-11-08T20:00:00	4	Temperatura máxima	19.3
93395	7	Sololá	717	San Juan la Laguna	12	San Juan la Laguna	12	Diciembre	2023-06-12T00:00:00	2024-11-08T20:00:00	3	Temperatura mínima	19
93396	7	Sololá	717	San Juan la Laguna	12	San Juan la Laguna	12	Diciembre	2023-06-12T00:00:00	2024-11-08T20:00:00	5	Humedad	62
93397	7	Sololá	717	San Juan la Laguna	12	San Juan la Laguna	12	Diciembre	2023-06-12T00:00:00	2024-11-08T20:00:00	6	Velocidad del viento	6.4
93398	7	Sololá	717	San Juan la Laguna	12	San Juan la Laguna	12	Diciembre	2023-06-12T00:00:00	2024-11-08T20:00:00	7	Dirección del viento	6.44
93399	7	Sololá	717	San Juan la Laguna	12	San Juan la Laguna	12	Diciembre	2023-06-12T00:00:00	2024-11-08T20:00:00	1	Precipitación	0
93400	7	Sololá	717	San Juan la Laguna	12	San Juan la Laguna	12	Diciembre	2023-06-12T00:00:00	2024-11-08T20:00:00	8	Radiación solar	0
93401	7	Sololá	717	San Juan la Laguna	12	San Juan la Laguna	12	Diciembre	2023-06-12T00:00:00	2024-11-08T21:00:00	2	Temperatura media	19.1
93402	7	Sololá	717	San Juan la Laguna	12	San Juan la Laguna	12	Diciembre	2023-06-12T00:00:00	2024-11-08T21:00:00	4	Temperatura máxima	19.6
93403	7	Sololá	717	San Juan la Laguna	12	San Juan la Laguna	12	Diciembre	2023-06-12T00:00:00	2024-11-08T21:00:00	3	Temperatura mínima	19.1
93404	7	Sololá	717	San Juan la Laguna	12	San Juan la Laguna	12	Diciembre	2023-06-12T00:00:00	2024-11-08T21:00:00	5	Humedad	64
93405	7	Sololá	717	San Juan la Laguna	12	San Juan la Laguna	12	Diciembre	2023-06-12T00:00:00	2024-11-08T21:00:00	6	Velocidad del viento	11.3
93406	7	Sololá	717	San Juan la Laguna	12	San Juan la Laguna	12	Diciembre	2023-06-12T00:00:00	2024-11-08T21:00:00	7	Dirección del viento	11.27
93407	7	Sololá	717	San Juan la Laguna	12	San Juan la Laguna	12	Diciembre	2023-06-12T00:00:00	2024-11-08T21:00:00	1	Precipitación	0
93408	7	Sololá	717	San Juan la Laguna	12	San Juan la Laguna	12	Diciembre	2023-06-12T00:00:00	2024-11-08T21:00:00	8	Radiación solar	0
93409	7	Sololá	717	San Juan la Laguna	12	San Juan la Laguna	12	Diciembre	2023-06-12T00:00:00	2024-11-08T22:00:00	2	Temperatura media	18.7
93410	7	Sololá	717	San Juan la Laguna	12	San Juan la Laguna	12	Diciembre	2023-06-12T00:00:00	2024-11-08T22:00:00	4	Temperatura máxima	19.1
93411	7	Sololá	717	San Juan la Laguna	12	San Juan la Laguna	12	Diciembre	2023-06-12T00:00:00	2024-11-08T22:00:00	3	Temperatura mínima	18.7
93412	7	Sololá	717	San Juan la Laguna	12	San Juan la Laguna	12	Diciembre	2023-06-12T00:00:00	2024-11-08T22:00:00	5	Humedad	69
93413	7	Sololá	717	San Juan la Laguna	12	San Juan la Laguna	12	Diciembre	2023-06-12T00:00:00	2024-11-08T22:00:00	6	Velocidad del viento	11.3
93414	7	Sololá	717	San Juan la Laguna	12	San Juan la Laguna	12	Diciembre	2023-06-12T00:00:00	2024-11-08T22:00:00	7	Dirección del viento	11.27
93415	7	Sololá	717	San Juan la Laguna	12	San Juan la Laguna	12	Diciembre	2023-06-12T00:00:00	2024-11-08T22:00:00	1	Precipitación	0
93416	7	Sololá	717	San Juan la Laguna	12	San Juan la Laguna	12	Diciembre	2023-06-12T00:00:00	2024-11-08T22:00:00	8	Radiación solar	0
93417	7	Sololá	717	San Juan la Laguna	12	San Juan la Laguna	12	Diciembre	2023-06-12T00:00:00	2024-11-08T23:00:00	2	Temperatura media	19.1
93418	7	Sololá	717	San Juan la Laguna	12	San Juan la Laguna	12	Diciembre	2023-06-12T00:00:00	2024-11-08T23:00:00	4	Temperatura máxima	19.1
93419	7	Sololá	717	San Juan la Laguna	12	San Juan la Laguna	12	Diciembre	2023-06-12T00:00:00	2024-11-08T23:00:00	3	Temperatura mínima	18.5
93420	7	Sololá	717	San Juan la Laguna	12	San Juan la Laguna	12	Diciembre	2023-06-12T00:00:00	2024-11-08T23:00:00	5	Humedad	62
93421	7	Sololá	717	San Juan la Laguna	12	San Juan la Laguna	12	Diciembre	2023-06-12T00:00:00	2024-11-08T23:00:00	6	Velocidad del viento	6.4
93422	7	Sololá	717	San Juan la Laguna	12	San Juan la Laguna	12	Diciembre	2023-06-12T00:00:00	2024-11-08T23:00:00	7	Dirección del viento	6.44
93423	7	Sololá	717	San Juan la Laguna	12	San Juan la Laguna	12	Diciembre	2023-06-12T00:00:00	2024-11-08T23:00:00	1	Precipitación	0
93424	7	Sololá	717	San Juan la Laguna	12	San Juan la Laguna	12	Diciembre	2023-06-12T00:00:00	2024-11-08T23:00:00	8	Radiación solar	0
93425	7	Sololá	717	San Juan la Laguna	12	San Juan la Laguna	12	Diciembre	2023-07-12T00:00:00	2024-11-08T00:00:00	2	Temperatura media	18.7
93426	7	Sololá	717	San Juan la Laguna	12	San Juan la Laguna	12	Diciembre	2023-07-12T00:00:00	2024-11-08T00:00:00	4	Temperatura máxima	19.2
93427	7	Sololá	717	San Juan la Laguna	12	San Juan la Laguna	12	Diciembre	2023-07-12T00:00:00	2024-11-08T00:00:00	3	Temperatura mínima	18.6
93428	7	Sololá	717	San Juan la Laguna	12	San Juan la Laguna	12	Diciembre	2023-07-12T00:00:00	2024-11-08T00:00:00	5	Humedad	66
93429	7	Sololá	717	San Juan la Laguna	12	San Juan la Laguna	12	Diciembre	2023-07-12T00:00:00	2024-11-08T00:00:00	6	Velocidad del viento	11.3
93430	7	Sololá	717	San Juan la Laguna	12	San Juan la Laguna	12	Diciembre	2023-07-12T00:00:00	2024-11-08T00:00:00	7	Dirección del viento	11.27
93431	7	Sololá	717	San Juan la Laguna	12	San Juan la Laguna	12	Diciembre	2023-07-12T00:00:00	2024-11-08T00:00:00	1	Precipitación	0
93432	7	Sololá	717	San Juan la Laguna	12	San Juan la Laguna	12	Diciembre	2023-07-12T00:00:00	2024-11-08T00:00:00	8	Radiación solar	0
93433	7	Sololá	717	San Juan la Laguna	12	San Juan la Laguna	12	Diciembre	2023-07-12T00:00:00	2024-11-08T01:00:00	2	Temperatura media	18.1
93434	7	Sololá	717	San Juan la Laguna	12	San Juan la Laguna	12	Diciembre	2023-07-12T00:00:00	2024-11-08T01:00:00	4	Temperatura máxima	18.7
93435	7	Sololá	717	San Juan la Laguna	12	San Juan la Laguna	12	Diciembre	2023-07-12T00:00:00	2024-11-08T01:00:00	3	Temperatura mínima	18.1
93436	7	Sololá	717	San Juan la Laguna	12	San Juan la Laguna	12	Diciembre	2023-07-12T00:00:00	2024-11-08T01:00:00	5	Humedad	68
93437	7	Sololá	717	San Juan la Laguna	12	San Juan la Laguna	12	Diciembre	2023-07-12T00:00:00	2024-11-08T01:00:00	6	Velocidad del viento	4.8
93438	7	Sololá	717	San Juan la Laguna	12	San Juan la Laguna	12	Diciembre	2023-07-12T00:00:00	2024-11-08T01:00:00	7	Dirección del viento	4.83
93439	7	Sololá	717	San Juan la Laguna	12	San Juan la Laguna	12	Diciembre	2023-07-12T00:00:00	2024-11-08T01:00:00	1	Precipitación	0
93440	7	Sololá	717	San Juan la Laguna	12	San Juan la Laguna	12	Diciembre	2023-07-12T00:00:00	2024-11-08T01:00:00	8	Radiación solar	0
93441	7	Sololá	717	San Juan la Laguna	12	San Juan la Laguna	12	Diciembre	2023-07-12T00:00:00	2024-11-08T02:00:00	2	Temperatura media	17.7
93442	7	Sololá	717	San Juan la Laguna	12	San Juan la Laguna	12	Diciembre	2023-07-12T00:00:00	2024-11-08T02:00:00	4	Temperatura máxima	18.3
93443	7	Sololá	717	San Juan la Laguna	12	San Juan la Laguna	12	Diciembre	2023-07-12T00:00:00	2024-11-08T02:00:00	3	Temperatura mínima	17.1
93444	7	Sololá	717	San Juan la Laguna	12	San Juan la Laguna	12	Diciembre	2023-07-12T00:00:00	2024-11-08T02:00:00	5	Humedad	72
93445	7	Sololá	717	San Juan la Laguna	12	San Juan la Laguna	12	Diciembre	2023-07-12T00:00:00	2024-11-08T02:00:00	6	Velocidad del viento	4.8
93446	7	Sololá	717	San Juan la Laguna	12	San Juan la Laguna	12	Diciembre	2023-07-12T00:00:00	2024-11-08T02:00:00	7	Dirección del viento	4.83
93447	7	Sololá	717	San Juan la Laguna	12	San Juan la Laguna	12	Diciembre	2023-07-12T00:00:00	2024-11-08T02:00:00	1	Precipitación	0
93448	7	Sololá	717	San Juan la Laguna	12	San Juan la Laguna	12	Diciembre	2023-07-12T00:00:00	2024-11-08T02:00:00	8	Radiación solar	0
93449	7	Sololá	717	San Juan la Laguna	12	San Juan la Laguna	12	Diciembre	2023-07-12T00:00:00	2024-11-08T03:00:00	2	Temperatura media	16.9
93450	7	Sololá	717	San Juan la Laguna	12	San Juan la Laguna	12	Diciembre	2023-07-12T00:00:00	2024-11-08T03:00:00	4	Temperatura máxima	17.8
93451	7	Sololá	717	San Juan la Laguna	12	San Juan la Laguna	12	Diciembre	2023-07-12T00:00:00	2024-11-08T03:00:00	3	Temperatura mínima	16.9
93452	7	Sololá	717	San Juan la Laguna	12	San Juan la Laguna	12	Diciembre	2023-07-12T00:00:00	2024-11-08T03:00:00	5	Humedad	77
93453	7	Sololá	717	San Juan la Laguna	12	San Juan la Laguna	12	Diciembre	2023-07-12T00:00:00	2024-11-08T03:00:00	6	Velocidad del viento	1.6
93454	7	Sololá	717	San Juan la Laguna	12	San Juan la Laguna	12	Diciembre	2023-07-12T00:00:00	2024-11-08T03:00:00	7	Dirección del viento	1.61
93455	7	Sololá	717	San Juan la Laguna	12	San Juan la Laguna	12	Diciembre	2023-07-12T00:00:00	2024-11-08T03:00:00	1	Precipitación	0
93456	7	Sololá	717	San Juan la Laguna	12	San Juan la Laguna	12	Diciembre	2023-07-12T00:00:00	2024-11-08T03:00:00	8	Radiación solar	0
93457	7	Sololá	717	San Juan la Laguna	12	San Juan la Laguna	12	Diciembre	2023-07-12T00:00:00	2024-11-08T04:00:00	2	Temperatura media	18.4
93458	7	Sololá	717	San Juan la Laguna	12	San Juan la Laguna	12	Diciembre	2023-07-12T00:00:00	2024-11-08T04:00:00	4	Temperatura máxima	18.4
93459	7	Sololá	717	San Juan la Laguna	12	San Juan la Laguna	12	Diciembre	2023-07-12T00:00:00	2024-11-08T04:00:00	3	Temperatura mínima	16.8
93460	7	Sololá	717	San Juan la Laguna	12	San Juan la Laguna	12	Diciembre	2023-07-12T00:00:00	2024-11-08T04:00:00	5	Humedad	72
93461	7	Sololá	717	San Juan la Laguna	12	San Juan la Laguna	12	Diciembre	2023-07-12T00:00:00	2024-11-08T04:00:00	6	Velocidad del viento	4.8
93462	7	Sololá	717	San Juan la Laguna	12	San Juan la Laguna	12	Diciembre	2023-07-12T00:00:00	2024-11-08T04:00:00	7	Dirección del viento	4.83
93463	7	Sololá	717	San Juan la Laguna	12	San Juan la Laguna	12	Diciembre	2023-07-12T00:00:00	2024-11-08T04:00:00	1	Precipitación	0
93464	7	Sololá	717	San Juan la Laguna	12	San Juan la Laguna	12	Diciembre	2023-07-12T00:00:00	2024-11-08T04:00:00	8	Radiación solar	0
93465	7	Sololá	717	San Juan la Laguna	12	San Juan la Laguna	12	Diciembre	2023-07-12T00:00:00	2024-11-08T05:00:00	2	Temperatura media	18.8
93466	7	Sololá	717	San Juan la Laguna	12	San Juan la Laguna	12	Diciembre	2023-07-12T00:00:00	2024-11-08T05:00:00	4	Temperatura máxima	18.8
93467	7	Sololá	717	San Juan la Laguna	12	San Juan la Laguna	12	Diciembre	2023-07-12T00:00:00	2024-11-08T05:00:00	3	Temperatura mínima	18.4
93468	7	Sololá	717	San Juan la Laguna	12	San Juan la Laguna	12	Diciembre	2023-07-12T00:00:00	2024-11-08T05:00:00	5	Humedad	70
93469	7	Sololá	717	San Juan la Laguna	12	San Juan la Laguna	12	Diciembre	2023-07-12T00:00:00	2024-11-08T05:00:00	6	Velocidad del viento	16.1
93470	7	Sololá	717	San Juan la Laguna	12	San Juan la Laguna	12	Diciembre	2023-07-12T00:00:00	2024-11-08T05:00:00	7	Dirección del viento	16.09
93471	7	Sololá	717	San Juan la Laguna	12	San Juan la Laguna	12	Diciembre	2023-07-12T00:00:00	2024-11-08T05:00:00	1	Precipitación	0
93472	7	Sololá	717	San Juan la Laguna	12	San Juan la Laguna	12	Diciembre	2023-07-12T00:00:00	2024-11-08T05:00:00	8	Radiación solar	0
93473	7	Sololá	717	San Juan la Laguna	12	San Juan la Laguna	12	Diciembre	2023-07-12T00:00:00	2024-11-08T06:00:00	2	Temperatura media	18.4
93474	7	Sololá	717	San Juan la Laguna	12	San Juan la Laguna	12	Diciembre	2023-07-12T00:00:00	2024-11-08T06:00:00	4	Temperatura máxima	18.8
93475	7	Sololá	717	San Juan la Laguna	12	San Juan la Laguna	12	Diciembre	2023-07-12T00:00:00	2024-11-08T06:00:00	3	Temperatura mínima	18.4
93476	7	Sololá	717	San Juan la Laguna	12	San Juan la Laguna	12	Diciembre	2023-07-12T00:00:00	2024-11-08T06:00:00	5	Humedad	70
93477	7	Sololá	717	San Juan la Laguna	12	San Juan la Laguna	12	Diciembre	2023-07-12T00:00:00	2024-11-08T06:00:00	6	Velocidad del viento	16.1
93478	7	Sololá	717	San Juan la Laguna	12	San Juan la Laguna	12	Diciembre	2023-07-12T00:00:00	2024-11-08T06:00:00	7	Dirección del viento	16.09
93479	7	Sololá	717	San Juan la Laguna	12	San Juan la Laguna	12	Diciembre	2023-07-12T00:00:00	2024-11-08T06:00:00	1	Precipitación	0
93480	7	Sololá	717	San Juan la Laguna	12	San Juan la Laguna	12	Diciembre	2023-07-12T00:00:00	2024-11-08T06:00:00	8	Radiación solar	0
93481	7	Sololá	717	San Juan la Laguna	12	San Juan la Laguna	12	Diciembre	2023-07-12T00:00:00	2024-11-08T07:00:00	2	Temperatura media	18.8
93482	7	Sololá	717	San Juan la Laguna	12	San Juan la Laguna	12	Diciembre	2023-07-12T00:00:00	2024-11-08T07:00:00	4	Temperatura máxima	18.9
93483	7	Sololá	717	San Juan la Laguna	12	San Juan la Laguna	12	Diciembre	2023-07-12T00:00:00	2024-11-08T07:00:00	3	Temperatura mínima	18.3
93484	7	Sololá	717	San Juan la Laguna	12	San Juan la Laguna	12	Diciembre	2023-07-12T00:00:00	2024-11-08T07:00:00	5	Humedad	68
93485	7	Sololá	717	San Juan la Laguna	12	San Juan la Laguna	12	Diciembre	2023-07-12T00:00:00	2024-11-08T07:00:00	6	Velocidad del viento	14.5
93486	7	Sololá	717	San Juan la Laguna	12	San Juan la Laguna	12	Diciembre	2023-07-12T00:00:00	2024-11-08T07:00:00	7	Dirección del viento	14.48
93487	7	Sololá	717	San Juan la Laguna	12	San Juan la Laguna	12	Diciembre	2023-07-12T00:00:00	2024-11-08T07:00:00	1	Precipitación	0
93488	7	Sololá	717	San Juan la Laguna	12	San Juan la Laguna	12	Diciembre	2023-07-12T00:00:00	2024-11-08T07:00:00	8	Radiación solar	15
93489	7	Sololá	717	San Juan la Laguna	12	San Juan la Laguna	12	Diciembre	2023-07-12T00:00:00	2024-11-08T08:00:00	2	Temperatura media	20.1
93490	7	Sololá	717	San Juan la Laguna	12	San Juan la Laguna	12	Diciembre	2023-07-12T00:00:00	2024-11-08T08:00:00	4	Temperatura máxima	20.1
93491	7	Sololá	717	San Juan la Laguna	12	San Juan la Laguna	12	Diciembre	2023-07-12T00:00:00	2024-11-08T08:00:00	3	Temperatura mínima	18.7
93492	7	Sololá	717	San Juan la Laguna	12	San Juan la Laguna	12	Diciembre	2023-07-12T00:00:00	2024-11-08T08:00:00	5	Humedad	65
93493	7	Sololá	717	San Juan la Laguna	12	San Juan la Laguna	12	Diciembre	2023-07-12T00:00:00	2024-11-08T08:00:00	6	Velocidad del viento	16.1
93494	7	Sololá	717	San Juan la Laguna	12	San Juan la Laguna	12	Diciembre	2023-07-12T00:00:00	2024-11-08T08:00:00	7	Dirección del viento	16.09
93495	7	Sololá	717	San Juan la Laguna	12	San Juan la Laguna	12	Diciembre	2023-07-12T00:00:00	2024-11-08T08:00:00	1	Precipitación	0
93496	7	Sololá	717	San Juan la Laguna	12	San Juan la Laguna	12	Diciembre	2023-07-12T00:00:00	2024-11-08T08:00:00	8	Radiación solar	116
93497	7	Sololá	717	San Juan la Laguna	12	San Juan la Laguna	12	Diciembre	2023-07-12T00:00:00	2024-11-08T09:00:00	2	Temperatura media	20.8
93498	7	Sololá	717	San Juan la Laguna	12	San Juan la Laguna	12	Diciembre	2023-07-12T00:00:00	2024-11-08T09:00:00	4	Temperatura máxima	20.9
93499	7	Sololá	717	San Juan la Laguna	12	San Juan la Laguna	12	Diciembre	2023-07-12T00:00:00	2024-11-08T09:00:00	3	Temperatura mínima	20.1
93500	7	Sololá	717	San Juan la Laguna	12	San Juan la Laguna	12	Diciembre	2023-07-12T00:00:00	2024-11-08T09:00:00	5	Humedad	63
93501	7	Sololá	717	San Juan la Laguna	12	San Juan la Laguna	12	Diciembre	2023-07-12T00:00:00	2024-11-08T09:00:00	6	Velocidad del viento	16.1
93502	7	Sololá	717	San Juan la Laguna	12	San Juan la Laguna	12	Diciembre	2023-07-12T00:00:00	2024-11-08T09:00:00	7	Dirección del viento	16.09
93503	7	Sololá	717	San Juan la Laguna	12	San Juan la Laguna	12	Diciembre	2023-07-12T00:00:00	2024-11-08T09:00:00	1	Precipitación	0
93504	7	Sololá	717	San Juan la Laguna	12	San Juan la Laguna	12	Diciembre	2023-07-12T00:00:00	2024-11-08T09:00:00	8	Radiación solar	381
93505	7	Sololá	717	San Juan la Laguna	12	San Juan la Laguna	12	Diciembre	2023-07-12T00:00:00	2024-11-08T10:00:00	2	Temperatura media	21.7
93506	7	Sololá	717	San Juan la Laguna	12	San Juan la Laguna	12	Diciembre	2023-07-12T00:00:00	2024-11-08T10:00:00	4	Temperatura máxima	21.8
93507	7	Sololá	717	San Juan la Laguna	12	San Juan la Laguna	12	Diciembre	2023-07-12T00:00:00	2024-11-08T10:00:00	3	Temperatura mínima	20.8
93508	7	Sololá	717	San Juan la Laguna	12	San Juan la Laguna	12	Diciembre	2023-07-12T00:00:00	2024-11-08T10:00:00	5	Humedad	59
93509	7	Sololá	717	San Juan la Laguna	12	San Juan la Laguna	12	Diciembre	2023-07-12T00:00:00	2024-11-08T10:00:00	6	Velocidad del viento	17.7
93510	7	Sololá	717	San Juan la Laguna	12	San Juan la Laguna	12	Diciembre	2023-07-12T00:00:00	2024-11-08T10:00:00	7	Dirección del viento	17.7
93511	7	Sololá	717	San Juan la Laguna	12	San Juan la Laguna	12	Diciembre	2023-07-12T00:00:00	2024-11-08T10:00:00	1	Precipitación	0
93512	7	Sololá	717	San Juan la Laguna	12	San Juan la Laguna	12	Diciembre	2023-07-12T00:00:00	2024-11-08T10:00:00	8	Radiación solar	559
93513	7	Sololá	717	San Juan la Laguna	12	San Juan la Laguna	12	Diciembre	2023-07-12T00:00:00	2024-11-08T11:00:00	2	Temperatura media	23.4
93514	7	Sololá	717	San Juan la Laguna	12	San Juan la Laguna	12	Diciembre	2023-07-12T00:00:00	2024-11-08T11:00:00	4	Temperatura máxima	23.5
93515	7	Sololá	717	San Juan la Laguna	12	San Juan la Laguna	12	Diciembre	2023-07-12T00:00:00	2024-11-08T11:00:00	3	Temperatura mínima	21.6
93516	7	Sololá	717	San Juan la Laguna	12	San Juan la Laguna	12	Diciembre	2023-07-12T00:00:00	2024-11-08T11:00:00	5	Humedad	55
93517	7	Sololá	717	San Juan la Laguna	12	San Juan la Laguna	12	Diciembre	2023-07-12T00:00:00	2024-11-08T11:00:00	6	Velocidad del viento	16.1
93518	7	Sololá	717	San Juan la Laguna	12	San Juan la Laguna	12	Diciembre	2023-07-12T00:00:00	2024-11-08T11:00:00	7	Dirección del viento	16.09
93519	7	Sololá	717	San Juan la Laguna	12	San Juan la Laguna	12	Diciembre	2023-07-12T00:00:00	2024-11-08T11:00:00	1	Precipitación	0
93520	7	Sololá	717	San Juan la Laguna	12	San Juan la Laguna	12	Diciembre	2023-07-12T00:00:00	2024-11-08T11:00:00	8	Radiación solar	596
93521	7	Sololá	717	San Juan la Laguna	12	San Juan la Laguna	12	Diciembre	2023-07-12T00:00:00	2024-11-08T12:00:00	2	Temperatura media	24.3
93522	7	Sololá	717	San Juan la Laguna	12	San Juan la Laguna	12	Diciembre	2023-07-12T00:00:00	2024-11-08T12:00:00	4	Temperatura máxima	24.4
93523	7	Sololá	717	San Juan la Laguna	12	San Juan la Laguna	12	Diciembre	2023-07-12T00:00:00	2024-11-08T12:00:00	3	Temperatura mínima	23.4
93524	7	Sololá	717	San Juan la Laguna	12	San Juan la Laguna	12	Diciembre	2023-07-12T00:00:00	2024-11-08T12:00:00	5	Humedad	55
93525	7	Sololá	717	San Juan la Laguna	12	San Juan la Laguna	12	Diciembre	2023-07-12T00:00:00	2024-11-08T12:00:00	6	Velocidad del viento	14.5
93526	7	Sololá	717	San Juan la Laguna	12	San Juan la Laguna	12	Diciembre	2023-07-12T00:00:00	2024-11-08T12:00:00	7	Dirección del viento	14.48
93527	7	Sololá	717	San Juan la Laguna	12	San Juan la Laguna	12	Diciembre	2023-07-12T00:00:00	2024-11-08T12:00:00	1	Precipitación	0
93528	7	Sololá	717	San Juan la Laguna	12	San Juan la Laguna	12	Diciembre	2023-07-12T00:00:00	2024-11-08T12:00:00	8	Radiación solar	730
93529	7	Sololá	717	San Juan la Laguna	12	San Juan la Laguna	12	Diciembre	2023-07-12T00:00:00	2024-11-08T13:00:00	2	Temperatura media	24.8
93530	7	Sololá	717	San Juan la Laguna	12	San Juan la Laguna	12	Diciembre	2023-07-12T00:00:00	2024-11-08T13:00:00	4	Temperatura máxima	24.8
93531	7	Sololá	717	San Juan la Laguna	12	San Juan la Laguna	12	Diciembre	2023-07-12T00:00:00	2024-11-08T13:00:00	3	Temperatura mínima	23.5
93532	7	Sololá	717	San Juan la Laguna	12	San Juan la Laguna	12	Diciembre	2023-07-12T00:00:00	2024-11-08T13:00:00	5	Humedad	52
93533	7	Sololá	717	San Juan la Laguna	12	San Juan la Laguna	12	Diciembre	2023-07-12T00:00:00	2024-11-08T13:00:00	6	Velocidad del viento	12.9
93534	7	Sololá	717	San Juan la Laguna	12	San Juan la Laguna	12	Diciembre	2023-07-12T00:00:00	2024-11-08T13:00:00	7	Dirección del viento	12.87
93535	7	Sololá	717	San Juan la Laguna	12	San Juan la Laguna	12	Diciembre	2023-07-12T00:00:00	2024-11-08T13:00:00	1	Precipitación	0
93536	7	Sololá	717	San Juan la Laguna	12	San Juan la Laguna	12	Diciembre	2023-07-12T00:00:00	2024-11-08T13:00:00	8	Radiación solar	688
93537	7	Sololá	717	San Juan la Laguna	12	San Juan la Laguna	12	Diciembre	2023-07-12T00:00:00	2024-11-08T14:00:00	2	Temperatura media	25.5
93538	7	Sololá	717	San Juan la Laguna	12	San Juan la Laguna	12	Diciembre	2023-07-12T00:00:00	2024-11-08T14:00:00	4	Temperatura máxima	25.5
93539	7	Sololá	717	San Juan la Laguna	12	San Juan la Laguna	12	Diciembre	2023-07-12T00:00:00	2024-11-08T14:00:00	3	Temperatura mínima	24.6
93540	7	Sololá	717	San Juan la Laguna	12	San Juan la Laguna	12	Diciembre	2023-07-12T00:00:00	2024-11-08T14:00:00	5	Humedad	51
93541	7	Sololá	717	San Juan la Laguna	12	San Juan la Laguna	12	Diciembre	2023-07-12T00:00:00	2024-11-08T14:00:00	6	Velocidad del viento	11.3
93542	7	Sololá	717	San Juan la Laguna	12	San Juan la Laguna	12	Diciembre	2023-07-12T00:00:00	2024-11-08T14:00:00	7	Dirección del viento	11.27
93543	7	Sololá	717	San Juan la Laguna	12	San Juan la Laguna	12	Diciembre	2023-07-12T00:00:00	2024-11-08T14:00:00	1	Precipitación	0
93544	7	Sololá	717	San Juan la Laguna	12	San Juan la Laguna	12	Diciembre	2023-07-12T00:00:00	2024-11-08T14:00:00	8	Radiación solar	704
93545	7	Sololá	717	San Juan la Laguna	12	San Juan la Laguna	12	Diciembre	2023-07-12T00:00:00	2024-11-08T15:00:00	2	Temperatura media	25.2
93546	7	Sololá	717	San Juan la Laguna	12	San Juan la Laguna	12	Diciembre	2023-07-12T00:00:00	2024-11-08T15:00:00	4	Temperatura máxima	25.6
93547	7	Sololá	717	San Juan la Laguna	12	San Juan la Laguna	12	Diciembre	2023-07-12T00:00:00	2024-11-08T15:00:00	3	Temperatura mínima	24.2
93548	7	Sololá	717	San Juan la Laguna	12	San Juan la Laguna	12	Diciembre	2023-07-12T00:00:00	2024-11-08T15:00:00	5	Humedad	52
93549	7	Sololá	717	San Juan la Laguna	12	San Juan la Laguna	12	Diciembre	2023-07-12T00:00:00	2024-11-08T15:00:00	6	Velocidad del viento	9.7
93550	7	Sololá	717	San Juan la Laguna	12	San Juan la Laguna	12	Diciembre	2023-07-12T00:00:00	2024-11-08T15:00:00	7	Dirección del viento	9.66
93551	7	Sololá	717	San Juan la Laguna	12	San Juan la Laguna	12	Diciembre	2023-07-12T00:00:00	2024-11-08T15:00:00	1	Precipitación	0
93552	7	Sololá	717	San Juan la Laguna	12	San Juan la Laguna	12	Diciembre	2023-07-12T00:00:00	2024-11-08T15:00:00	8	Radiación solar	491
93553	7	Sololá	717	San Juan la Laguna	12	San Juan la Laguna	12	Diciembre	2023-07-12T00:00:00	2024-11-08T16:00:00	2	Temperatura media	23.2
93554	7	Sololá	717	San Juan la Laguna	12	San Juan la Laguna	12	Diciembre	2023-07-12T00:00:00	2024-11-08T16:00:00	4	Temperatura máxima	25.2
93555	7	Sololá	717	San Juan la Laguna	12	San Juan la Laguna	12	Diciembre	2023-07-12T00:00:00	2024-11-08T16:00:00	3	Temperatura mínima	23.2
93556	7	Sololá	717	San Juan la Laguna	12	San Juan la Laguna	12	Diciembre	2023-07-12T00:00:00	2024-11-08T16:00:00	5	Humedad	59
93557	7	Sololá	717	San Juan la Laguna	12	San Juan la Laguna	12	Diciembre	2023-07-12T00:00:00	2024-11-08T16:00:00	6	Velocidad del viento	9.7
93558	7	Sololá	717	San Juan la Laguna	12	San Juan la Laguna	12	Diciembre	2023-07-12T00:00:00	2024-11-08T16:00:00	7	Dirección del viento	9.66
93559	7	Sololá	717	San Juan la Laguna	12	San Juan la Laguna	12	Diciembre	2023-07-12T00:00:00	2024-11-08T16:00:00	1	Precipitación	0
93560	7	Sololá	717	San Juan la Laguna	12	San Juan la Laguna	12	Diciembre	2023-07-12T00:00:00	2024-11-08T16:00:00	8	Radiación solar	187
93561	7	Sololá	717	San Juan la Laguna	12	San Juan la Laguna	12	Diciembre	2023-07-12T00:00:00	2024-11-08T17:00:00	2	Temperatura media	22.2
93562	7	Sololá	717	San Juan la Laguna	12	San Juan la Laguna	12	Diciembre	2023-07-12T00:00:00	2024-11-08T17:00:00	4	Temperatura máxima	23.6
93563	7	Sololá	717	San Juan la Laguna	12	San Juan la Laguna	12	Diciembre	2023-07-12T00:00:00	2024-11-08T17:00:00	3	Temperatura mínima	22.2
93564	7	Sololá	717	San Juan la Laguna	12	San Juan la Laguna	12	Diciembre	2023-07-12T00:00:00	2024-11-08T17:00:00	5	Humedad	58
93565	7	Sololá	717	San Juan la Laguna	12	San Juan la Laguna	12	Diciembre	2023-07-12T00:00:00	2024-11-08T17:00:00	6	Velocidad del viento	11.3
93566	7	Sololá	717	San Juan la Laguna	12	San Juan la Laguna	12	Diciembre	2023-07-12T00:00:00	2024-11-08T17:00:00	7	Dirección del viento	11.27
93567	7	Sololá	717	San Juan la Laguna	12	San Juan la Laguna	12	Diciembre	2023-07-12T00:00:00	2024-11-08T17:00:00	1	Precipitación	0
93568	7	Sololá	717	San Juan la Laguna	12	San Juan la Laguna	12	Diciembre	2023-07-12T00:00:00	2024-11-08T17:00:00	8	Radiación solar	124
93569	7	Sololá	717	San Juan la Laguna	12	San Juan la Laguna	12	Diciembre	2023-07-12T00:00:00	2024-11-08T18:00:00	2	Temperatura media	21.3
93570	7	Sololá	717	San Juan la Laguna	12	San Juan la Laguna	12	Diciembre	2023-07-12T00:00:00	2024-11-08T18:00:00	4	Temperatura máxima	22.2
93571	7	Sololá	717	San Juan la Laguna	12	San Juan la Laguna	12	Diciembre	2023-07-12T00:00:00	2024-11-08T18:00:00	3	Temperatura mínima	21.3
93572	7	Sololá	717	San Juan la Laguna	12	San Juan la Laguna	12	Diciembre	2023-07-12T00:00:00	2024-11-08T18:00:00	5	Humedad	64
93573	7	Sololá	717	San Juan la Laguna	12	San Juan la Laguna	12	Diciembre	2023-07-12T00:00:00	2024-11-08T18:00:00	6	Velocidad del viento	9.7
93574	7	Sololá	717	San Juan la Laguna	12	San Juan la Laguna	12	Diciembre	2023-07-12T00:00:00	2024-11-08T18:00:00	7	Dirección del viento	9.66
93575	7	Sololá	717	San Juan la Laguna	12	San Juan la Laguna	12	Diciembre	2023-07-12T00:00:00	2024-11-08T18:00:00	1	Precipitación	0
93576	7	Sololá	717	San Juan la Laguna	12	San Juan la Laguna	12	Diciembre	2023-07-12T00:00:00	2024-11-08T18:00:00	8	Radiación solar	12
93577	7	Sololá	717	San Juan la Laguna	12	San Juan la Laguna	12	Diciembre	2023-07-12T00:00:00	2024-11-08T19:00:00	2	Temperatura media	20.7
93578	7	Sololá	717	San Juan la Laguna	12	San Juan la Laguna	12	Diciembre	2023-07-12T00:00:00	2024-11-08T19:00:00	4	Temperatura máxima	21.3
93579	7	Sololá	717	San Juan la Laguna	12	San Juan la Laguna	12	Diciembre	2023-07-12T00:00:00	2024-11-08T19:00:00	3	Temperatura mínima	20.7
93580	7	Sololá	717	San Juan la Laguna	12	San Juan la Laguna	12	Diciembre	2023-07-12T00:00:00	2024-11-08T19:00:00	5	Humedad	63
93581	7	Sololá	717	San Juan la Laguna	12	San Juan la Laguna	12	Diciembre	2023-07-12T00:00:00	2024-11-08T19:00:00	6	Velocidad del viento	8
93582	7	Sololá	717	San Juan la Laguna	12	San Juan la Laguna	12	Diciembre	2023-07-12T00:00:00	2024-11-08T19:00:00	7	Dirección del viento	8.05
93583	7	Sololá	717	San Juan la Laguna	12	San Juan la Laguna	12	Diciembre	2023-07-12T00:00:00	2024-11-08T19:00:00	1	Precipitación	0
93584	7	Sololá	717	San Juan la Laguna	12	San Juan la Laguna	12	Diciembre	2023-07-12T00:00:00	2024-11-08T19:00:00	8	Radiación solar	0
93585	7	Sololá	717	San Juan la Laguna	12	San Juan la Laguna	12	Diciembre	2023-07-12T00:00:00	2024-11-08T20:00:00	2	Temperatura media	20.2
93586	7	Sololá	717	San Juan la Laguna	12	San Juan la Laguna	12	Diciembre	2023-07-12T00:00:00	2024-11-08T20:00:00	4	Temperatura máxima	20.7
93587	7	Sololá	717	San Juan la Laguna	12	San Juan la Laguna	12	Diciembre	2023-07-12T00:00:00	2024-11-08T20:00:00	3	Temperatura mínima	20.2
93588	7	Sololá	717	San Juan la Laguna	12	San Juan la Laguna	12	Diciembre	2023-07-12T00:00:00	2024-11-08T20:00:00	5	Humedad	65
93589	7	Sololá	717	San Juan la Laguna	12	San Juan la Laguna	12	Diciembre	2023-07-12T00:00:00	2024-11-08T20:00:00	6	Velocidad del viento	9.7
93590	7	Sololá	717	San Juan la Laguna	12	San Juan la Laguna	12	Diciembre	2023-07-12T00:00:00	2024-11-08T20:00:00	7	Dirección del viento	9.66
93591	7	Sololá	717	San Juan la Laguna	12	San Juan la Laguna	12	Diciembre	2023-07-12T00:00:00	2024-11-08T20:00:00	1	Precipitación	0
93592	7	Sololá	717	San Juan la Laguna	12	San Juan la Laguna	12	Diciembre	2023-07-12T00:00:00	2024-11-08T20:00:00	8	Radiación solar	0
93593	7	Sololá	717	San Juan la Laguna	12	San Juan la Laguna	12	Diciembre	2023-07-12T00:00:00	2024-11-08T21:00:00	2	Temperatura media	20.3
93594	7	Sololá	717	San Juan la Laguna	12	San Juan la Laguna	12	Diciembre	2023-07-12T00:00:00	2024-11-08T21:00:00	4	Temperatura máxima	20.3
93595	7	Sololá	717	San Juan la Laguna	12	San Juan la Laguna	12	Diciembre	2023-07-12T00:00:00	2024-11-08T21:00:00	3	Temperatura mínima	19.9
93596	7	Sololá	717	San Juan la Laguna	12	San Juan la Laguna	12	Diciembre	2023-07-12T00:00:00	2024-11-08T21:00:00	5	Humedad	65
93597	7	Sololá	717	San Juan la Laguna	12	San Juan la Laguna	12	Diciembre	2023-07-12T00:00:00	2024-11-08T21:00:00	6	Velocidad del viento	9.7
93598	7	Sololá	717	San Juan la Laguna	12	San Juan la Laguna	12	Diciembre	2023-07-12T00:00:00	2024-11-08T21:00:00	7	Dirección del viento	9.66
93599	7	Sololá	717	San Juan la Laguna	12	San Juan la Laguna	12	Diciembre	2023-07-12T00:00:00	2024-11-08T21:00:00	1	Precipitación	0
93600	7	Sololá	717	San Juan la Laguna	12	San Juan la Laguna	12	Diciembre	2023-07-12T00:00:00	2024-11-08T21:00:00	8	Radiación solar	0
93601	7	Sololá	717	San Juan la Laguna	12	San Juan la Laguna	12	Diciembre	2023-07-12T00:00:00	2024-11-08T22:00:00	2	Temperatura media	20.1
93602	7	Sololá	717	San Juan la Laguna	12	San Juan la Laguna	12	Diciembre	2023-07-12T00:00:00	2024-11-08T22:00:00	4	Temperatura máxima	20.3
93603	7	Sololá	717	San Juan la Laguna	12	San Juan la Laguna	12	Diciembre	2023-07-12T00:00:00	2024-11-08T22:00:00	3	Temperatura mínima	19.9
93604	7	Sololá	717	San Juan la Laguna	12	San Juan la Laguna	12	Diciembre	2023-07-12T00:00:00	2024-11-08T22:00:00	5	Humedad	65
93605	7	Sololá	717	San Juan la Laguna	12	San Juan la Laguna	12	Diciembre	2023-07-12T00:00:00	2024-11-08T22:00:00	6	Velocidad del viento	9.7
93606	7	Sololá	717	San Juan la Laguna	12	San Juan la Laguna	12	Diciembre	2023-07-12T00:00:00	2024-11-08T22:00:00	7	Dirección del viento	9.66
93607	7	Sololá	717	San Juan la Laguna	12	San Juan la Laguna	12	Diciembre	2023-07-12T00:00:00	2024-11-08T22:00:00	1	Precipitación	0
93608	7	Sololá	717	San Juan la Laguna	12	San Juan la Laguna	12	Diciembre	2023-07-12T00:00:00	2024-11-08T22:00:00	8	Radiación solar	0
93609	7	Sololá	717	San Juan la Laguna	12	San Juan la Laguna	12	Diciembre	2023-07-12T00:00:00	2024-11-08T23:00:00	2	Temperatura media	20.3
93610	7	Sololá	717	San Juan la Laguna	12	San Juan la Laguna	12	Diciembre	2023-07-12T00:00:00	2024-11-08T23:00:00	4	Temperatura máxima	20.3
93611	7	Sololá	717	San Juan la Laguna	12	San Juan la Laguna	12	Diciembre	2023-07-12T00:00:00	2024-11-08T23:00:00	3	Temperatura mínima	19.9
93612	7	Sololá	717	San Juan la Laguna	12	San Juan la Laguna	12	Diciembre	2023-07-12T00:00:00	2024-11-08T23:00:00	5	Humedad	63
93613	7	Sololá	717	San Juan la Laguna	12	San Juan la Laguna	12	Diciembre	2023-07-12T00:00:00	2024-11-08T23:00:00	6	Velocidad del viento	8
93614	7	Sololá	717	San Juan la Laguna	12	San Juan la Laguna	12	Diciembre	2023-07-12T00:00:00	2024-11-08T23:00:00	7	Dirección del viento	8.05
93615	7	Sololá	717	San Juan la Laguna	12	San Juan la Laguna	12	Diciembre	2023-07-12T00:00:00	2024-11-08T23:00:00	1	Precipitación	0
93616	7	Sololá	717	San Juan la Laguna	12	San Juan la Laguna	12	Diciembre	2023-07-12T00:00:00	2024-11-08T23:00:00	8	Radiación solar	0
93617	7	Sololá	717	San Juan la Laguna	12	San Juan la Laguna	12	Diciembre	2023-08-12T00:00:00	2024-11-08T00:00:00	2	Temperatura media	19.5
93618	7	Sololá	717	San Juan la Laguna	12	San Juan la Laguna	12	Diciembre	2023-08-12T00:00:00	2024-11-08T00:00:00	4	Temperatura máxima	20.4
93619	7	Sololá	717	San Juan la Laguna	12	San Juan la Laguna	12	Diciembre	2023-08-12T00:00:00	2024-11-08T00:00:00	3	Temperatura mínima	19.5
93620	7	Sololá	717	San Juan la Laguna	12	San Juan la Laguna	12	Diciembre	2023-08-12T00:00:00	2024-11-08T00:00:00	5	Humedad	67
93621	7	Sololá	717	San Juan la Laguna	12	San Juan la Laguna	12	Diciembre	2023-08-12T00:00:00	2024-11-08T00:00:00	6	Velocidad del viento	8
93622	7	Sololá	717	San Juan la Laguna	12	San Juan la Laguna	12	Diciembre	2023-08-12T00:00:00	2024-11-08T00:00:00	7	Dirección del viento	8.05
93623	7	Sololá	717	San Juan la Laguna	12	San Juan la Laguna	12	Diciembre	2023-08-12T00:00:00	2024-11-08T00:00:00	1	Precipitación	0
93624	7	Sololá	717	San Juan la Laguna	12	San Juan la Laguna	12	Diciembre	2023-08-12T00:00:00	2024-11-08T00:00:00	8	Radiación solar	0
93625	7	Sololá	717	San Juan la Laguna	12	San Juan la Laguna	12	Diciembre	2023-08-12T00:00:00	2024-11-08T01:00:00	2	Temperatura media	19.5
93626	7	Sololá	717	San Juan la Laguna	12	San Juan la Laguna	12	Diciembre	2023-08-12T00:00:00	2024-11-08T01:00:00	4	Temperatura máxima	19.9
93627	7	Sololá	717	San Juan la Laguna	12	San Juan la Laguna	12	Diciembre	2023-08-12T00:00:00	2024-11-08T01:00:00	3	Temperatura mínima	19.3
93628	7	Sololá	717	San Juan la Laguna	12	San Juan la Laguna	12	Diciembre	2023-08-12T00:00:00	2024-11-08T01:00:00	5	Humedad	66
93629	7	Sololá	717	San Juan la Laguna	12	San Juan la Laguna	12	Diciembre	2023-08-12T00:00:00	2024-11-08T01:00:00	6	Velocidad del viento	6.4
93630	7	Sololá	717	San Juan la Laguna	12	San Juan la Laguna	12	Diciembre	2023-08-12T00:00:00	2024-11-08T01:00:00	7	Dirección del viento	6.44
93631	7	Sololá	717	San Juan la Laguna	12	San Juan la Laguna	12	Diciembre	2023-08-12T00:00:00	2024-11-08T01:00:00	1	Precipitación	0
93632	7	Sololá	717	San Juan la Laguna	12	San Juan la Laguna	12	Diciembre	2023-08-12T00:00:00	2024-11-08T01:00:00	8	Radiación solar	0
93633	7	Sololá	717	San Juan la Laguna	12	San Juan la Laguna	12	Diciembre	2023-08-12T00:00:00	2024-11-08T02:00:00	2	Temperatura media	19.4
93634	7	Sololá	717	San Juan la Laguna	12	San Juan la Laguna	12	Diciembre	2023-08-12T00:00:00	2024-11-08T02:00:00	4	Temperatura máxima	19.6
93635	7	Sololá	717	San Juan la Laguna	12	San Juan la Laguna	12	Diciembre	2023-08-12T00:00:00	2024-11-08T02:00:00	3	Temperatura mínima	19.3
93636	7	Sololá	717	San Juan la Laguna	12	San Juan la Laguna	12	Diciembre	2023-08-12T00:00:00	2024-11-08T02:00:00	5	Humedad	67
93637	7	Sololá	717	San Juan la Laguna	12	San Juan la Laguna	12	Diciembre	2023-08-12T00:00:00	2024-11-08T02:00:00	6	Velocidad del viento	8
93638	7	Sololá	717	San Juan la Laguna	12	San Juan la Laguna	12	Diciembre	2023-08-12T00:00:00	2024-11-08T02:00:00	7	Dirección del viento	8.05
93639	7	Sololá	717	San Juan la Laguna	12	San Juan la Laguna	12	Diciembre	2023-08-12T00:00:00	2024-11-08T02:00:00	1	Precipitación	0
93640	7	Sololá	717	San Juan la Laguna	12	San Juan la Laguna	12	Diciembre	2023-08-12T00:00:00	2024-11-08T02:00:00	8	Radiación solar	0
93641	7	Sololá	717	San Juan la Laguna	12	San Juan la Laguna	12	Diciembre	2023-08-12T00:00:00	2024-11-08T03:00:00	2	Temperatura media	18.9
93642	7	Sololá	717	San Juan la Laguna	12	San Juan la Laguna	12	Diciembre	2023-08-12T00:00:00	2024-11-08T03:00:00	4	Temperatura máxima	19.4
93643	7	Sololá	717	San Juan la Laguna	12	San Juan la Laguna	12	Diciembre	2023-08-12T00:00:00	2024-11-08T03:00:00	3	Temperatura mínima	18.9
93644	7	Sololá	717	San Juan la Laguna	12	San Juan la Laguna	12	Diciembre	2023-08-12T00:00:00	2024-11-08T03:00:00	5	Humedad	69
93645	7	Sololá	717	San Juan la Laguna	12	San Juan la Laguna	12	Diciembre	2023-08-12T00:00:00	2024-11-08T03:00:00	6	Velocidad del viento	8
93646	7	Sololá	717	San Juan la Laguna	12	San Juan la Laguna	12	Diciembre	2023-08-12T00:00:00	2024-11-08T03:00:00	7	Dirección del viento	8.05
93647	7	Sololá	717	San Juan la Laguna	12	San Juan la Laguna	12	Diciembre	2023-08-12T00:00:00	2024-11-08T03:00:00	1	Precipitación	0
93648	7	Sololá	717	San Juan la Laguna	12	San Juan la Laguna	12	Diciembre	2023-08-12T00:00:00	2024-11-08T03:00:00	8	Radiación solar	0
93649	7	Sololá	717	San Juan la Laguna	12	San Juan la Laguna	12	Diciembre	2023-08-12T00:00:00	2024-11-08T04:00:00	2	Temperatura media	18.9
93650	7	Sololá	717	San Juan la Laguna	12	San Juan la Laguna	12	Diciembre	2023-08-12T00:00:00	2024-11-08T04:00:00	4	Temperatura máxima	19.1
93651	7	Sololá	717	San Juan la Laguna	12	San Juan la Laguna	12	Diciembre	2023-08-12T00:00:00	2024-11-08T04:00:00	3	Temperatura mínima	18.9
93652	7	Sololá	717	San Juan la Laguna	12	San Juan la Laguna	12	Diciembre	2023-08-12T00:00:00	2024-11-08T04:00:00	5	Humedad	67
93653	7	Sololá	717	San Juan la Laguna	12	San Juan la Laguna	12	Diciembre	2023-08-12T00:00:00	2024-11-08T04:00:00	6	Velocidad del viento	9.7
93654	7	Sololá	717	San Juan la Laguna	12	San Juan la Laguna	12	Diciembre	2023-08-12T00:00:00	2024-11-08T04:00:00	7	Dirección del viento	9.66
93655	7	Sololá	717	San Juan la Laguna	12	San Juan la Laguna	12	Diciembre	2023-08-12T00:00:00	2024-11-08T04:00:00	1	Precipitación	0
93656	7	Sololá	717	San Juan la Laguna	12	San Juan la Laguna	12	Diciembre	2023-08-12T00:00:00	2024-11-08T04:00:00	8	Radiación solar	0
93657	7	Sololá	717	San Juan la Laguna	12	San Juan la Laguna	12	Diciembre	2023-08-12T00:00:00	2024-11-08T05:00:00	2	Temperatura media	18.7
93658	7	Sololá	717	San Juan la Laguna	12	San Juan la Laguna	12	Diciembre	2023-08-12T00:00:00	2024-11-08T05:00:00	4	Temperatura máxima	19.1
93659	7	Sololá	717	San Juan la Laguna	12	San Juan la Laguna	12	Diciembre	2023-08-12T00:00:00	2024-11-08T05:00:00	3	Temperatura mínima	18.7
93660	7	Sololá	717	San Juan la Laguna	12	San Juan la Laguna	12	Diciembre	2023-08-12T00:00:00	2024-11-08T05:00:00	5	Humedad	70
93661	7	Sololá	717	San Juan la Laguna	12	San Juan la Laguna	12	Diciembre	2023-08-12T00:00:00	2024-11-08T05:00:00	6	Velocidad del viento	8
93662	7	Sololá	717	San Juan la Laguna	12	San Juan la Laguna	12	Diciembre	2023-08-12T00:00:00	2024-11-08T05:00:00	7	Dirección del viento	8.05
93663	7	Sololá	717	San Juan la Laguna	12	San Juan la Laguna	12	Diciembre	2023-08-12T00:00:00	2024-11-08T05:00:00	1	Precipitación	0
93664	7	Sololá	717	San Juan la Laguna	12	San Juan la Laguna	12	Diciembre	2023-08-12T00:00:00	2024-11-08T05:00:00	8	Radiación solar	0
93665	7	Sololá	717	San Juan la Laguna	12	San Juan la Laguna	12	Diciembre	2023-08-12T00:00:00	2024-11-08T06:00:00	2	Temperatura media	16
93666	7	Sololá	717	San Juan la Laguna	12	San Juan la Laguna	12	Diciembre	2023-08-12T00:00:00	2024-11-08T06:00:00	4	Temperatura máxima	18.7
93667	7	Sololá	717	San Juan la Laguna	12	San Juan la Laguna	12	Diciembre	2023-08-12T00:00:00	2024-11-08T06:00:00	3	Temperatura mínima	16
93668	7	Sololá	717	San Juan la Laguna	12	San Juan la Laguna	12	Diciembre	2023-08-12T00:00:00	2024-11-08T06:00:00	5	Humedad	76
93669	7	Sololá	717	San Juan la Laguna	12	San Juan la Laguna	12	Diciembre	2023-08-12T00:00:00	2024-11-08T06:00:00	6	Velocidad del viento	3.2
93670	7	Sololá	717	San Juan la Laguna	12	San Juan la Laguna	12	Diciembre	2023-08-12T00:00:00	2024-11-08T06:00:00	7	Dirección del viento	3.22
93671	7	Sololá	717	San Juan la Laguna	12	San Juan la Laguna	12	Diciembre	2023-08-12T00:00:00	2024-11-08T06:00:00	1	Precipitación	0
93672	7	Sololá	717	San Juan la Laguna	12	San Juan la Laguna	12	Diciembre	2023-08-12T00:00:00	2024-11-08T06:00:00	8	Radiación solar	0
93673	7	Sololá	717	San Juan la Laguna	12	San Juan la Laguna	12	Diciembre	2023-08-12T00:00:00	2024-11-08T07:00:00	2	Temperatura media	18.4
93674	7	Sololá	717	San Juan la Laguna	12	San Juan la Laguna	12	Diciembre	2023-08-12T00:00:00	2024-11-08T07:00:00	4	Temperatura máxima	18.4
93675	7	Sololá	717	San Juan la Laguna	12	San Juan la Laguna	12	Diciembre	2023-08-12T00:00:00	2024-11-08T07:00:00	3	Temperatura mínima	15.7
93676	7	Sololá	717	San Juan la Laguna	12	San Juan la Laguna	12	Diciembre	2023-08-12T00:00:00	2024-11-08T07:00:00	5	Humedad	71
93677	7	Sololá	717	San Juan la Laguna	12	San Juan la Laguna	12	Diciembre	2023-08-12T00:00:00	2024-11-08T07:00:00	6	Velocidad del viento	3.2
93678	7	Sololá	717	San Juan la Laguna	12	San Juan la Laguna	12	Diciembre	2023-08-12T00:00:00	2024-11-08T07:00:00	7	Dirección del viento	3.22
93679	7	Sololá	717	San Juan la Laguna	12	San Juan la Laguna	12	Diciembre	2023-08-12T00:00:00	2024-11-08T07:00:00	1	Precipitación	0
93680	7	Sololá	717	San Juan la Laguna	12	San Juan la Laguna	12	Diciembre	2023-08-12T00:00:00	2024-11-08T07:00:00	8	Radiación solar	13
93681	7	Sololá	717	San Juan la Laguna	12	San Juan la Laguna	12	Diciembre	2023-08-12T00:00:00	2024-11-08T08:00:00	2	Temperatura media	20.9
93682	7	Sololá	717	San Juan la Laguna	12	San Juan la Laguna	12	Diciembre	2023-08-12T00:00:00	2024-11-08T08:00:00	4	Temperatura máxima	20.9
93683	7	Sololá	717	San Juan la Laguna	12	San Juan la Laguna	12	Diciembre	2023-08-12T00:00:00	2024-11-08T08:00:00	3	Temperatura mínima	18.4
93684	7	Sololá	717	San Juan la Laguna	12	San Juan la Laguna	12	Diciembre	2023-08-12T00:00:00	2024-11-08T08:00:00	5	Humedad	61
93685	7	Sololá	717	San Juan la Laguna	12	San Juan la Laguna	12	Diciembre	2023-08-12T00:00:00	2024-11-08T08:00:00	6	Velocidad del viento	6.4
93686	7	Sololá	717	San Juan la Laguna	12	San Juan la Laguna	12	Diciembre	2023-08-12T00:00:00	2024-11-08T08:00:00	7	Dirección del viento	6.44
93687	7	Sololá	717	San Juan la Laguna	12	San Juan la Laguna	12	Diciembre	2023-08-12T00:00:00	2024-11-08T08:00:00	1	Precipitación	0
93688	7	Sololá	717	San Juan la Laguna	12	San Juan la Laguna	12	Diciembre	2023-08-12T00:00:00	2024-11-08T08:00:00	8	Radiación solar	159
93689	7	Sololá	717	San Juan la Laguna	12	San Juan la Laguna	12	Diciembre	2023-08-12T00:00:00	2024-11-08T09:00:00	2	Temperatura media	22.5
93690	7	Sololá	717	San Juan la Laguna	12	San Juan la Laguna	12	Diciembre	2023-08-12T00:00:00	2024-11-08T09:00:00	4	Temperatura máxima	22.6
93691	7	Sololá	717	San Juan la Laguna	12	San Juan la Laguna	12	Diciembre	2023-08-12T00:00:00	2024-11-08T09:00:00	3	Temperatura mínima	20.9
93692	7	Sololá	717	San Juan la Laguna	12	San Juan la Laguna	12	Diciembre	2023-08-12T00:00:00	2024-11-08T09:00:00	5	Humedad	57
93693	7	Sololá	717	San Juan la Laguna	12	San Juan la Laguna	12	Diciembre	2023-08-12T00:00:00	2024-11-08T09:00:00	6	Velocidad del viento	6.4
93694	7	Sololá	717	San Juan la Laguna	12	San Juan la Laguna	12	Diciembre	2023-08-12T00:00:00	2024-11-08T09:00:00	7	Dirección del viento	6.44
93695	7	Sololá	717	San Juan la Laguna	12	San Juan la Laguna	12	Diciembre	2023-08-12T00:00:00	2024-11-08T09:00:00	1	Precipitación	0
93696	7	Sololá	717	San Juan la Laguna	12	San Juan la Laguna	12	Diciembre	2023-08-12T00:00:00	2024-11-08T09:00:00	8	Radiación solar	382
93697	7	Sololá	717	San Juan la Laguna	12	San Juan la Laguna	12	Diciembre	2023-08-12T00:00:00	2024-11-08T10:00:00	2	Temperatura media	24.3
93698	7	Sololá	717	San Juan la Laguna	12	San Juan la Laguna	12	Diciembre	2023-08-12T00:00:00	2024-11-08T10:00:00	4	Temperatura máxima	24.3
93699	7	Sololá	717	San Juan la Laguna	12	San Juan la Laguna	12	Diciembre	2023-08-12T00:00:00	2024-11-08T10:00:00	3	Temperatura mínima	22.5
93700	7	Sololá	717	San Juan la Laguna	12	San Juan la Laguna	12	Diciembre	2023-08-12T00:00:00	2024-11-08T10:00:00	5	Humedad	52
93701	7	Sololá	717	San Juan la Laguna	12	San Juan la Laguna	12	Diciembre	2023-08-12T00:00:00	2024-11-08T10:00:00	6	Velocidad del viento	8
93702	7	Sololá	717	San Juan la Laguna	12	San Juan la Laguna	12	Diciembre	2023-08-12T00:00:00	2024-11-08T10:00:00	7	Dirección del viento	8.05
93703	7	Sololá	717	San Juan la Laguna	12	San Juan la Laguna	12	Diciembre	2023-08-12T00:00:00	2024-11-08T10:00:00	1	Precipitación	0
93704	7	Sololá	717	San Juan la Laguna	12	San Juan la Laguna	12	Diciembre	2023-08-12T00:00:00	2024-11-08T10:00:00	8	Radiación solar	556
93705	7	Sololá	717	San Juan la Laguna	12	San Juan la Laguna	12	Diciembre	2023-08-12T00:00:00	2024-11-08T11:00:00	2	Temperatura media	24.4
93706	7	Sololá	717	San Juan la Laguna	12	San Juan la Laguna	12	Diciembre	2023-08-12T00:00:00	2024-11-08T11:00:00	4	Temperatura máxima	24.9
93707	7	Sololá	717	San Juan la Laguna	12	San Juan la Laguna	12	Diciembre	2023-08-12T00:00:00	2024-11-08T11:00:00	3	Temperatura mínima	24.2
93708	7	Sololá	717	San Juan la Laguna	12	San Juan la Laguna	12	Diciembre	2023-08-12T00:00:00	2024-11-08T11:00:00	5	Humedad	52
93709	7	Sololá	717	San Juan la Laguna	12	San Juan la Laguna	12	Diciembre	2023-08-12T00:00:00	2024-11-08T11:00:00	6	Velocidad del viento	9.7
93710	7	Sololá	717	San Juan la Laguna	12	San Juan la Laguna	12	Diciembre	2023-08-12T00:00:00	2024-11-08T11:00:00	7	Dirección del viento	9.66
93711	7	Sololá	717	San Juan la Laguna	12	San Juan la Laguna	12	Diciembre	2023-08-12T00:00:00	2024-11-08T11:00:00	1	Precipitación	0
93712	7	Sololá	717	San Juan la Laguna	12	San Juan la Laguna	12	Diciembre	2023-08-12T00:00:00	2024-11-08T11:00:00	8	Radiación solar	583
93713	7	Sololá	717	San Juan la Laguna	12	San Juan la Laguna	12	Diciembre	2023-08-12T00:00:00	2024-11-08T12:00:00	2	Temperatura media	25.2
93714	7	Sololá	717	San Juan la Laguna	12	San Juan la Laguna	12	Diciembre	2023-08-12T00:00:00	2024-11-08T12:00:00	4	Temperatura máxima	25.2
93715	7	Sololá	717	San Juan la Laguna	12	San Juan la Laguna	12	Diciembre	2023-08-12T00:00:00	2024-11-08T12:00:00	3	Temperatura mínima	24.1
93716	7	Sololá	717	San Juan la Laguna	12	San Juan la Laguna	12	Diciembre	2023-08-12T00:00:00	2024-11-08T12:00:00	5	Humedad	51
93717	7	Sololá	717	San Juan la Laguna	12	San Juan la Laguna	12	Diciembre	2023-08-12T00:00:00	2024-11-08T12:00:00	6	Velocidad del viento	11.3
93718	7	Sololá	717	San Juan la Laguna	12	San Juan la Laguna	12	Diciembre	2023-08-12T00:00:00	2024-11-08T12:00:00	7	Dirección del viento	11.27
93719	7	Sololá	717	San Juan la Laguna	12	San Juan la Laguna	12	Diciembre	2023-08-12T00:00:00	2024-11-08T12:00:00	1	Precipitación	0
93720	7	Sololá	717	San Juan la Laguna	12	San Juan la Laguna	12	Diciembre	2023-08-12T00:00:00	2024-11-08T12:00:00	8	Radiación solar	724
93721	7	Sololá	717	San Juan la Laguna	12	San Juan la Laguna	12	Diciembre	2023-08-12T00:00:00	2024-11-08T13:00:00	2	Temperatura media	25.6
93722	7	Sololá	717	San Juan la Laguna	12	San Juan la Laguna	12	Diciembre	2023-08-12T00:00:00	2024-11-08T13:00:00	4	Temperatura máxima	25.6
93723	7	Sololá	717	San Juan la Laguna	12	San Juan la Laguna	12	Diciembre	2023-08-12T00:00:00	2024-11-08T13:00:00	3	Temperatura mínima	24.9
93724	7	Sololá	717	San Juan la Laguna	12	San Juan la Laguna	12	Diciembre	2023-08-12T00:00:00	2024-11-08T13:00:00	5	Humedad	49
93725	7	Sololá	717	San Juan la Laguna	12	San Juan la Laguna	12	Diciembre	2023-08-12T00:00:00	2024-11-08T13:00:00	6	Velocidad del viento	11.3
93726	7	Sololá	717	San Juan la Laguna	12	San Juan la Laguna	12	Diciembre	2023-08-12T00:00:00	2024-11-08T13:00:00	7	Dirección del viento	11.27
93727	7	Sololá	717	San Juan la Laguna	12	San Juan la Laguna	12	Diciembre	2023-08-12T00:00:00	2024-11-08T13:00:00	1	Precipitación	0
93728	7	Sololá	717	San Juan la Laguna	12	San Juan la Laguna	12	Diciembre	2023-08-12T00:00:00	2024-11-08T13:00:00	8	Radiación solar	740
93729	7	Sololá	717	San Juan la Laguna	12	San Juan la Laguna	12	Diciembre	2023-08-12T00:00:00	2024-11-08T14:00:00	2	Temperatura media	25.3
93730	7	Sololá	717	San Juan la Laguna	12	San Juan la Laguna	12	Diciembre	2023-08-12T00:00:00	2024-11-08T14:00:00	4	Temperatura máxima	25.9
93731	7	Sololá	717	San Juan la Laguna	12	San Juan la Laguna	12	Diciembre	2023-08-12T00:00:00	2024-11-08T14:00:00	3	Temperatura mínima	25.2
93732	7	Sololá	717	San Juan la Laguna	12	San Juan la Laguna	12	Diciembre	2023-08-12T00:00:00	2024-11-08T14:00:00	5	Humedad	51
93733	7	Sololá	717	San Juan la Laguna	12	San Juan la Laguna	12	Diciembre	2023-08-12T00:00:00	2024-11-08T14:00:00	6	Velocidad del viento	9.7
93734	7	Sololá	717	San Juan la Laguna	12	San Juan la Laguna	12	Diciembre	2023-08-12T00:00:00	2024-11-08T14:00:00	7	Dirección del viento	9.66
93735	7	Sololá	717	San Juan la Laguna	12	San Juan la Laguna	12	Diciembre	2023-08-12T00:00:00	2024-11-08T14:00:00	1	Precipitación	0
93736	7	Sololá	717	San Juan la Laguna	12	San Juan la Laguna	12	Diciembre	2023-08-12T00:00:00	2024-11-08T14:00:00	8	Radiación solar	696
93737	7	Sololá	717	San Juan la Laguna	12	San Juan la Laguna	12	Diciembre	2023-08-12T00:00:00	2024-11-08T15:00:00	2	Temperatura media	25.5
93738	7	Sololá	717	San Juan la Laguna	12	San Juan la Laguna	12	Diciembre	2023-08-12T00:00:00	2024-11-08T15:00:00	4	Temperatura máxima	25.8
93739	7	Sololá	717	San Juan la Laguna	12	San Juan la Laguna	12	Diciembre	2023-08-12T00:00:00	2024-11-08T15:00:00	3	Temperatura mínima	25.3
93740	7	Sololá	717	San Juan la Laguna	12	San Juan la Laguna	12	Diciembre	2023-08-12T00:00:00	2024-11-08T15:00:00	5	Humedad	47
93741	7	Sololá	717	San Juan la Laguna	12	San Juan la Laguna	12	Diciembre	2023-08-12T00:00:00	2024-11-08T15:00:00	6	Velocidad del viento	9.7
93742	7	Sololá	717	San Juan la Laguna	12	San Juan la Laguna	12	Diciembre	2023-08-12T00:00:00	2024-11-08T15:00:00	7	Dirección del viento	9.66
93743	7	Sololá	717	San Juan la Laguna	12	San Juan la Laguna	12	Diciembre	2023-08-12T00:00:00	2024-11-08T15:00:00	1	Precipitación	0
93744	7	Sololá	717	San Juan la Laguna	12	San Juan la Laguna	12	Diciembre	2023-08-12T00:00:00	2024-11-08T15:00:00	8	Radiación solar	568
93745	7	Sololá	717	San Juan la Laguna	12	San Juan la Laguna	12	Diciembre	2023-08-12T00:00:00	2024-11-08T16:00:00	2	Temperatura media	24
93746	7	Sololá	717	San Juan la Laguna	12	San Juan la Laguna	12	Diciembre	2023-08-12T00:00:00	2024-11-08T16:00:00	4	Temperatura máxima	25.6
93747	7	Sololá	717	San Juan la Laguna	12	San Juan la Laguna	12	Diciembre	2023-08-12T00:00:00	2024-11-08T16:00:00	3	Temperatura mínima	24
93748	7	Sololá	717	San Juan la Laguna	12	San Juan la Laguna	12	Diciembre	2023-08-12T00:00:00	2024-11-08T16:00:00	5	Humedad	61
93749	7	Sololá	717	San Juan la Laguna	12	San Juan la Laguna	12	Diciembre	2023-08-12T00:00:00	2024-11-08T16:00:00	6	Velocidad del viento	6.4
93750	7	Sololá	717	San Juan la Laguna	12	San Juan la Laguna	12	Diciembre	2023-08-12T00:00:00	2024-11-08T16:00:00	7	Dirección del viento	6.44
93751	7	Sololá	717	San Juan la Laguna	12	San Juan la Laguna	12	Diciembre	2023-08-12T00:00:00	2024-11-08T16:00:00	1	Precipitación	0
93752	7	Sololá	717	San Juan la Laguna	12	San Juan la Laguna	12	Diciembre	2023-08-12T00:00:00	2024-11-08T16:00:00	8	Radiación solar	391
93753	7	Sololá	717	San Juan la Laguna	12	San Juan la Laguna	12	Diciembre	2023-08-12T00:00:00	2024-11-08T17:00:00	2	Temperatura media	21.6
93754	7	Sololá	717	San Juan la Laguna	12	San Juan la Laguna	12	Diciembre	2023-08-12T00:00:00	2024-11-08T17:00:00	4	Temperatura máxima	23.9
93755	7	Sololá	717	San Juan la Laguna	12	San Juan la Laguna	12	Diciembre	2023-08-12T00:00:00	2024-11-08T17:00:00	3	Temperatura mínima	21.6
93756	7	Sololá	717	San Juan la Laguna	12	San Juan la Laguna	12	Diciembre	2023-08-12T00:00:00	2024-11-08T17:00:00	5	Humedad	72
93757	7	Sololá	717	San Juan la Laguna	12	San Juan la Laguna	12	Diciembre	2023-08-12T00:00:00	2024-11-08T17:00:00	6	Velocidad del viento	4.8
93758	7	Sololá	717	San Juan la Laguna	12	San Juan la Laguna	12	Diciembre	2023-08-12T00:00:00	2024-11-08T17:00:00	7	Dirección del viento	4.83
93759	7	Sololá	717	San Juan la Laguna	12	San Juan la Laguna	12	Diciembre	2023-08-12T00:00:00	2024-11-08T17:00:00	1	Precipitación	0
93760	7	Sololá	717	San Juan la Laguna	12	San Juan la Laguna	12	Diciembre	2023-08-12T00:00:00	2024-11-08T17:00:00	8	Radiación solar	69
93761	7	Sololá	717	San Juan la Laguna	12	San Juan la Laguna	12	Diciembre	2023-08-12T00:00:00	2024-11-08T18:00:00	2	Temperatura media	20.1
93762	7	Sololá	717	San Juan la Laguna	12	San Juan la Laguna	12	Diciembre	2023-08-12T00:00:00	2024-11-08T18:00:00	4	Temperatura máxima	21.6
93763	7	Sololá	717	San Juan la Laguna	12	San Juan la Laguna	12	Diciembre	2023-08-12T00:00:00	2024-11-08T18:00:00	3	Temperatura mínima	20.1
93764	7	Sololá	717	San Juan la Laguna	12	San Juan la Laguna	12	Diciembre	2023-08-12T00:00:00	2024-11-08T18:00:00	5	Humedad	75
93765	7	Sololá	717	San Juan la Laguna	12	San Juan la Laguna	12	Diciembre	2023-08-12T00:00:00	2024-11-08T18:00:00	6	Velocidad del viento	3.2
93766	7	Sololá	717	San Juan la Laguna	12	San Juan la Laguna	12	Diciembre	2023-08-12T00:00:00	2024-11-08T18:00:00	7	Dirección del viento	3.22
93767	7	Sololá	717	San Juan la Laguna	12	San Juan la Laguna	12	Diciembre	2023-08-12T00:00:00	2024-11-08T18:00:00	1	Precipitación	0
93768	7	Sololá	717	San Juan la Laguna	12	San Juan la Laguna	12	Diciembre	2023-08-12T00:00:00	2024-11-08T18:00:00	8	Radiación solar	13
93769	7	Sololá	717	San Juan la Laguna	12	San Juan la Laguna	12	Diciembre	2023-08-12T00:00:00	2024-11-08T19:00:00	2	Temperatura media	19.3
93770	7	Sololá	717	San Juan la Laguna	12	San Juan la Laguna	12	Diciembre	2023-08-12T00:00:00	2024-11-08T19:00:00	4	Temperatura máxima	20.1
93771	7	Sololá	717	San Juan la Laguna	12	San Juan la Laguna	12	Diciembre	2023-08-12T00:00:00	2024-11-08T19:00:00	3	Temperatura mínima	19
93772	7	Sololá	717	San Juan la Laguna	12	San Juan la Laguna	12	Diciembre	2023-08-12T00:00:00	2024-11-08T19:00:00	5	Humedad	74
93773	7	Sololá	717	San Juan la Laguna	12	San Juan la Laguna	12	Diciembre	2023-08-12T00:00:00	2024-11-08T19:00:00	6	Velocidad del viento	3.2
93774	7	Sololá	717	San Juan la Laguna	12	San Juan la Laguna	12	Diciembre	2023-08-12T00:00:00	2024-11-08T19:00:00	7	Dirección del viento	3.22
93775	7	Sololá	717	San Juan la Laguna	12	San Juan la Laguna	12	Diciembre	2023-08-12T00:00:00	2024-11-08T19:00:00	1	Precipitación	0
93776	7	Sololá	717	San Juan la Laguna	12	San Juan la Laguna	12	Diciembre	2023-08-12T00:00:00	2024-11-08T19:00:00	8	Radiación solar	0
93777	7	Sololá	717	San Juan la Laguna	12	San Juan la Laguna	12	Diciembre	2023-08-12T00:00:00	2024-11-08T20:00:00	2	Temperatura media	18.8
93778	7	Sololá	717	San Juan la Laguna	12	San Juan la Laguna	12	Diciembre	2023-08-12T00:00:00	2024-11-08T20:00:00	4	Temperatura máxima	19.4
93779	7	Sololá	717	San Juan la Laguna	12	San Juan la Laguna	12	Diciembre	2023-08-12T00:00:00	2024-11-08T20:00:00	3	Temperatura mínima	18.8
93780	7	Sololá	717	San Juan la Laguna	12	San Juan la Laguna	12	Diciembre	2023-08-12T00:00:00	2024-11-08T20:00:00	5	Humedad	73
93781	7	Sololá	717	San Juan la Laguna	12	San Juan la Laguna	12	Diciembre	2023-08-12T00:00:00	2024-11-08T20:00:00	6	Velocidad del viento	3.2
93782	7	Sololá	717	San Juan la Laguna	12	San Juan la Laguna	12	Diciembre	2023-08-12T00:00:00	2024-11-08T20:00:00	7	Dirección del viento	3.22
93783	7	Sololá	717	San Juan la Laguna	12	San Juan la Laguna	12	Diciembre	2023-08-12T00:00:00	2024-11-08T20:00:00	1	Precipitación	0
93784	7	Sololá	717	San Juan la Laguna	12	San Juan la Laguna	12	Diciembre	2023-08-12T00:00:00	2024-11-08T20:00:00	8	Radiación solar	0
93785	7	Sololá	717	San Juan la Laguna	12	San Juan la Laguna	12	Diciembre	2023-08-12T00:00:00	2024-11-08T21:00:00	2	Temperatura media	19.3
93786	7	Sololá	717	San Juan la Laguna	12	San Juan la Laguna	12	Diciembre	2023-08-12T00:00:00	2024-11-08T21:00:00	4	Temperatura máxima	19.4
93787	7	Sololá	717	San Juan la Laguna	12	San Juan la Laguna	12	Diciembre	2023-08-12T00:00:00	2024-11-08T21:00:00	3	Temperatura mínima	17.2
93788	7	Sololá	717	San Juan la Laguna	12	San Juan la Laguna	12	Diciembre	2023-08-12T00:00:00	2024-11-08T21:00:00	5	Humedad	71
93789	7	Sololá	717	San Juan la Laguna	12	San Juan la Laguna	12	Diciembre	2023-08-12T00:00:00	2024-11-08T21:00:00	6	Velocidad del viento	3.2
93790	7	Sololá	717	San Juan la Laguna	12	San Juan la Laguna	12	Diciembre	2023-08-12T00:00:00	2024-11-08T21:00:00	7	Dirección del viento	3.22
93791	7	Sololá	717	San Juan la Laguna	12	San Juan la Laguna	12	Diciembre	2023-08-12T00:00:00	2024-11-08T21:00:00	1	Precipitación	0
93792	7	Sololá	717	San Juan la Laguna	12	San Juan la Laguna	12	Diciembre	2023-08-12T00:00:00	2024-11-08T21:00:00	8	Radiación solar	0
93793	7	Sololá	717	San Juan la Laguna	12	San Juan la Laguna	12	Diciembre	2023-08-12T00:00:00	2024-11-08T22:00:00	2	Temperatura media	17.7
93794	7	Sololá	717	San Juan la Laguna	12	San Juan la Laguna	12	Diciembre	2023-08-12T00:00:00	2024-11-08T22:00:00	4	Temperatura máxima	19.3
93795	7	Sololá	717	San Juan la Laguna	12	San Juan la Laguna	12	Diciembre	2023-08-12T00:00:00	2024-11-08T22:00:00	3	Temperatura mínima	17.3
93796	7	Sololá	717	San Juan la Laguna	12	San Juan la Laguna	12	Diciembre	2023-08-12T00:00:00	2024-11-08T22:00:00	5	Humedad	76
93797	7	Sololá	717	San Juan la Laguna	12	San Juan la Laguna	12	Diciembre	2023-08-12T00:00:00	2024-11-08T22:00:00	6	Velocidad del viento	3.2
93798	7	Sololá	717	San Juan la Laguna	12	San Juan la Laguna	12	Diciembre	2023-08-12T00:00:00	2024-11-08T22:00:00	7	Dirección del viento	3.22
93799	7	Sololá	717	San Juan la Laguna	12	San Juan la Laguna	12	Diciembre	2023-08-12T00:00:00	2024-11-08T22:00:00	1	Precipitación	0
93800	7	Sololá	717	San Juan la Laguna	12	San Juan la Laguna	12	Diciembre	2023-08-12T00:00:00	2024-11-08T22:00:00	8	Radiación solar	0
93801	7	Sololá	717	San Juan la Laguna	12	San Juan la Laguna	12	Diciembre	2023-08-12T00:00:00	2024-11-08T23:00:00	2	Temperatura media	16.4
93802	7	Sololá	717	San Juan la Laguna	12	San Juan la Laguna	12	Diciembre	2023-08-12T00:00:00	2024-11-08T23:00:00	4	Temperatura máxima	18.3
93803	7	Sololá	717	San Juan la Laguna	12	San Juan la Laguna	12	Diciembre	2023-08-12T00:00:00	2024-11-08T23:00:00	3	Temperatura mínima	16.2
93804	7	Sololá	717	San Juan la Laguna	12	San Juan la Laguna	12	Diciembre	2023-08-12T00:00:00	2024-11-08T23:00:00	5	Humedad	80
93805	7	Sololá	717	San Juan la Laguna	12	San Juan la Laguna	12	Diciembre	2023-08-12T00:00:00	2024-11-08T23:00:00	6	Velocidad del viento	3.2
93806	7	Sololá	717	San Juan la Laguna	12	San Juan la Laguna	12	Diciembre	2023-08-12T00:00:00	2024-11-08T23:00:00	7	Dirección del viento	3.22
93807	7	Sololá	717	San Juan la Laguna	12	San Juan la Laguna	12	Diciembre	2023-08-12T00:00:00	2024-11-08T23:00:00	1	Precipitación	0
93808	7	Sololá	717	San Juan la Laguna	12	San Juan la Laguna	12	Diciembre	2023-08-12T00:00:00	2024-11-08T23:00:00	8	Radiación solar	0
93809	7	Sololá	717	San Juan la Laguna	12	San Juan la Laguna	12	Diciembre	2023-09-12T00:00:00	2024-11-08T00:00:00	2	Temperatura media	15.4
93810	7	Sololá	717	San Juan la Laguna	12	San Juan la Laguna	12	Diciembre	2023-09-12T00:00:00	2024-11-08T00:00:00	4	Temperatura máxima	16.4
93811	7	Sololá	717	San Juan la Laguna	12	San Juan la Laguna	12	Diciembre	2023-09-12T00:00:00	2024-11-08T00:00:00	3	Temperatura mínima	15.4
93812	7	Sololá	717	San Juan la Laguna	12	San Juan la Laguna	12	Diciembre	2023-09-12T00:00:00	2024-11-08T00:00:00	5	Humedad	83
93813	7	Sololá	717	San Juan la Laguna	12	San Juan la Laguna	12	Diciembre	2023-09-12T00:00:00	2024-11-08T00:00:00	6	Velocidad del viento	3.2
93814	7	Sololá	717	San Juan la Laguna	12	San Juan la Laguna	12	Diciembre	2023-09-12T00:00:00	2024-11-08T00:00:00	7	Dirección del viento	3.22
93815	7	Sololá	717	San Juan la Laguna	12	San Juan la Laguna	12	Diciembre	2023-09-12T00:00:00	2024-11-08T00:00:00	1	Precipitación	0
93816	7	Sololá	717	San Juan la Laguna	12	San Juan la Laguna	12	Diciembre	2023-09-12T00:00:00	2024-11-08T00:00:00	8	Radiación solar	0
93817	7	Sololá	717	San Juan la Laguna	12	San Juan la Laguna	12	Diciembre	2023-09-12T00:00:00	2024-11-08T01:00:00	2	Temperatura media	15.4
93818	7	Sololá	717	San Juan la Laguna	12	San Juan la Laguna	12	Diciembre	2023-09-12T00:00:00	2024-11-08T01:00:00	4	Temperatura máxima	16
93819	7	Sololá	717	San Juan la Laguna	12	San Juan la Laguna	12	Diciembre	2023-09-12T00:00:00	2024-11-08T01:00:00	3	Temperatura mínima	15.3
93820	7	Sololá	717	San Juan la Laguna	12	San Juan la Laguna	12	Diciembre	2023-09-12T00:00:00	2024-11-08T01:00:00	5	Humedad	82
93821	7	Sololá	717	San Juan la Laguna	12	San Juan la Laguna	12	Diciembre	2023-09-12T00:00:00	2024-11-08T01:00:00	6	Velocidad del viento	4.8
93822	7	Sololá	717	San Juan la Laguna	12	San Juan la Laguna	12	Diciembre	2023-09-12T00:00:00	2024-11-08T01:00:00	7	Dirección del viento	4.83
93823	7	Sololá	717	San Juan la Laguna	12	San Juan la Laguna	12	Diciembre	2023-09-12T00:00:00	2024-11-08T01:00:00	1	Precipitación	0
93824	7	Sololá	717	San Juan la Laguna	12	San Juan la Laguna	12	Diciembre	2023-09-12T00:00:00	2024-11-08T01:00:00	8	Radiación solar	0
93825	7	Sololá	717	San Juan la Laguna	12	San Juan la Laguna	12	Diciembre	2023-09-12T00:00:00	2024-11-08T02:00:00	2	Temperatura media	15.3
93826	7	Sololá	717	San Juan la Laguna	12	San Juan la Laguna	12	Diciembre	2023-09-12T00:00:00	2024-11-08T02:00:00	4	Temperatura máxima	15.5
93827	7	Sololá	717	San Juan la Laguna	12	San Juan la Laguna	12	Diciembre	2023-09-12T00:00:00	2024-11-08T02:00:00	3	Temperatura mínima	15.1
93828	7	Sololá	717	San Juan la Laguna	12	San Juan la Laguna	12	Diciembre	2023-09-12T00:00:00	2024-11-08T02:00:00	5	Humedad	80
93829	7	Sololá	717	San Juan la Laguna	12	San Juan la Laguna	12	Diciembre	2023-09-12T00:00:00	2024-11-08T02:00:00	6	Velocidad del viento	4.8
93830	7	Sololá	717	San Juan la Laguna	12	San Juan la Laguna	12	Diciembre	2023-09-12T00:00:00	2024-11-08T02:00:00	7	Dirección del viento	4.83
93831	7	Sololá	717	San Juan la Laguna	12	San Juan la Laguna	12	Diciembre	2023-09-12T00:00:00	2024-11-08T02:00:00	1	Precipitación	0
93832	7	Sololá	717	San Juan la Laguna	12	San Juan la Laguna	12	Diciembre	2023-09-12T00:00:00	2024-11-08T02:00:00	8	Radiación solar	0
93833	7	Sololá	717	San Juan la Laguna	12	San Juan la Laguna	12	Diciembre	2023-09-12T00:00:00	2024-11-08T03:00:00	2	Temperatura media	15.1
93834	7	Sololá	717	San Juan la Laguna	12	San Juan la Laguna	12	Diciembre	2023-09-12T00:00:00	2024-11-08T03:00:00	4	Temperatura máxima	15.4
93835	7	Sololá	717	San Juan la Laguna	12	San Juan la Laguna	12	Diciembre	2023-09-12T00:00:00	2024-11-08T03:00:00	3	Temperatura mínima	14.6
93836	7	Sololá	717	San Juan la Laguna	12	San Juan la Laguna	12	Diciembre	2023-09-12T00:00:00	2024-11-08T03:00:00	5	Humedad	78
93837	7	Sololá	717	San Juan la Laguna	12	San Juan la Laguna	12	Diciembre	2023-09-12T00:00:00	2024-11-08T03:00:00	6	Velocidad del viento	4.8
93838	7	Sololá	717	San Juan la Laguna	12	San Juan la Laguna	12	Diciembre	2023-09-12T00:00:00	2024-11-08T03:00:00	7	Dirección del viento	4.83
93839	7	Sololá	717	San Juan la Laguna	12	San Juan la Laguna	12	Diciembre	2023-09-12T00:00:00	2024-11-08T03:00:00	1	Precipitación	0
93840	7	Sololá	717	San Juan la Laguna	12	San Juan la Laguna	12	Diciembre	2023-09-12T00:00:00	2024-11-08T03:00:00	8	Radiación solar	0
93841	7	Sololá	717	San Juan la Laguna	12	San Juan la Laguna	12	Diciembre	2023-09-12T00:00:00	2024-11-08T04:00:00	2	Temperatura media	14.1
93842	7	Sololá	717	San Juan la Laguna	12	San Juan la Laguna	12	Diciembre	2023-09-12T00:00:00	2024-11-08T04:00:00	4	Temperatura máxima	15.1
93843	7	Sololá	717	San Juan la Laguna	12	San Juan la Laguna	12	Diciembre	2023-09-12T00:00:00	2024-11-08T04:00:00	3	Temperatura mínima	14.1
93844	7	Sololá	717	San Juan la Laguna	12	San Juan la Laguna	12	Diciembre	2023-09-12T00:00:00	2024-11-08T04:00:00	5	Humedad	80
93845	7	Sololá	717	San Juan la Laguna	12	San Juan la Laguna	12	Diciembre	2023-09-12T00:00:00	2024-11-08T04:00:00	6	Velocidad del viento	6.4
93846	7	Sololá	717	San Juan la Laguna	12	San Juan la Laguna	12	Diciembre	2023-09-12T00:00:00	2024-11-08T04:00:00	7	Dirección del viento	6.44
93847	7	Sololá	717	San Juan la Laguna	12	San Juan la Laguna	12	Diciembre	2023-09-12T00:00:00	2024-11-08T04:00:00	1	Precipitación	0
93848	7	Sololá	717	San Juan la Laguna	12	San Juan la Laguna	12	Diciembre	2023-09-12T00:00:00	2024-11-08T04:00:00	8	Radiación solar	0
93849	7	Sololá	717	San Juan la Laguna	12	San Juan la Laguna	12	Diciembre	2023-09-12T00:00:00	2024-11-08T05:00:00	2	Temperatura media	13.9
93850	7	Sololá	717	San Juan la Laguna	12	San Juan la Laguna	12	Diciembre	2023-09-12T00:00:00	2024-11-08T05:00:00	4	Temperatura máxima	14.2
93851	7	Sololá	717	San Juan la Laguna	12	San Juan la Laguna	12	Diciembre	2023-09-12T00:00:00	2024-11-08T05:00:00	3	Temperatura mínima	13.9
93852	7	Sololá	717	San Juan la Laguna	12	San Juan la Laguna	12	Diciembre	2023-09-12T00:00:00	2024-11-08T05:00:00	5	Humedad	78
93853	7	Sololá	717	San Juan la Laguna	12	San Juan la Laguna	12	Diciembre	2023-09-12T00:00:00	2024-11-08T05:00:00	6	Velocidad del viento	6.4
93854	7	Sololá	717	San Juan la Laguna	12	San Juan la Laguna	12	Diciembre	2023-09-12T00:00:00	2024-11-08T05:00:00	7	Dirección del viento	6.44
93855	7	Sololá	717	San Juan la Laguna	12	San Juan la Laguna	12	Diciembre	2023-09-12T00:00:00	2024-11-08T05:00:00	1	Precipitación	0
93856	7	Sololá	717	San Juan la Laguna	12	San Juan la Laguna	12	Diciembre	2023-09-12T00:00:00	2024-11-08T05:00:00	8	Radiación solar	0
93857	7	Sololá	717	San Juan la Laguna	12	San Juan la Laguna	12	Diciembre	2023-09-12T00:00:00	2024-11-08T06:00:00	2	Temperatura media	13.9
93858	7	Sololá	717	San Juan la Laguna	12	San Juan la Laguna	12	Diciembre	2023-09-12T00:00:00	2024-11-08T06:00:00	4	Temperatura máxima	14.1
93859	7	Sololá	717	San Juan la Laguna	12	San Juan la Laguna	12	Diciembre	2023-09-12T00:00:00	2024-11-08T06:00:00	3	Temperatura mínima	13.8
93860	7	Sololá	717	San Juan la Laguna	12	San Juan la Laguna	12	Diciembre	2023-09-12T00:00:00	2024-11-08T06:00:00	5	Humedad	77
93861	7	Sololá	717	San Juan la Laguna	12	San Juan la Laguna	12	Diciembre	2023-09-12T00:00:00	2024-11-08T06:00:00	6	Velocidad del viento	6.4
93862	7	Sololá	717	San Juan la Laguna	12	San Juan la Laguna	12	Diciembre	2023-09-12T00:00:00	2024-11-08T06:00:00	7	Dirección del viento	6.44
93863	7	Sololá	717	San Juan la Laguna	12	San Juan la Laguna	12	Diciembre	2023-09-12T00:00:00	2024-11-08T06:00:00	1	Precipitación	0
93864	7	Sololá	717	San Juan la Laguna	12	San Juan la Laguna	12	Diciembre	2023-09-12T00:00:00	2024-11-08T06:00:00	8	Radiación solar	0
93865	7	Sololá	717	San Juan la Laguna	12	San Juan la Laguna	12	Diciembre	2023-09-12T00:00:00	2024-11-08T07:00:00	2	Temperatura media	13.6
93866	7	Sololá	717	San Juan la Laguna	12	San Juan la Laguna	12	Diciembre	2023-09-12T00:00:00	2024-11-08T07:00:00	4	Temperatura máxima	13.9
93867	7	Sololá	717	San Juan la Laguna	12	San Juan la Laguna	12	Diciembre	2023-09-12T00:00:00	2024-11-08T07:00:00	3	Temperatura mínima	13.2
93868	7	Sololá	717	San Juan la Laguna	12	San Juan la Laguna	12	Diciembre	2023-09-12T00:00:00	2024-11-08T07:00:00	5	Humedad	79
93869	7	Sololá	717	San Juan la Laguna	12	San Juan la Laguna	12	Diciembre	2023-09-12T00:00:00	2024-11-08T07:00:00	6	Velocidad del viento	4.8
93870	7	Sololá	717	San Juan la Laguna	12	San Juan la Laguna	12	Diciembre	2023-09-12T00:00:00	2024-11-08T07:00:00	7	Dirección del viento	4.83
93871	7	Sololá	717	San Juan la Laguna	12	San Juan la Laguna	12	Diciembre	2023-09-12T00:00:00	2024-11-08T07:00:00	1	Precipitación	0
93872	7	Sololá	717	San Juan la Laguna	12	San Juan la Laguna	12	Diciembre	2023-09-12T00:00:00	2024-11-08T07:00:00	8	Radiación solar	13
93873	7	Sololá	717	San Juan la Laguna	12	San Juan la Laguna	12	Diciembre	2023-09-12T00:00:00	2024-11-08T08:00:00	2	Temperatura media	16.8
93874	7	Sololá	717	San Juan la Laguna	12	San Juan la Laguna	12	Diciembre	2023-09-12T00:00:00	2024-11-08T08:00:00	4	Temperatura máxima	16.8
93875	7	Sololá	717	San Juan la Laguna	12	San Juan la Laguna	12	Diciembre	2023-09-12T00:00:00	2024-11-08T08:00:00	3	Temperatura mínima	13.4
93876	7	Sololá	717	San Juan la Laguna	12	San Juan la Laguna	12	Diciembre	2023-09-12T00:00:00	2024-11-08T08:00:00	5	Humedad	75
93877	7	Sololá	717	San Juan la Laguna	12	San Juan la Laguna	12	Diciembre	2023-09-12T00:00:00	2024-11-08T08:00:00	6	Velocidad del viento	4.8
93878	7	Sololá	717	San Juan la Laguna	12	San Juan la Laguna	12	Diciembre	2023-09-12T00:00:00	2024-11-08T08:00:00	7	Dirección del viento	4.83
93879	7	Sololá	717	San Juan la Laguna	12	San Juan la Laguna	12	Diciembre	2023-09-12T00:00:00	2024-11-08T08:00:00	1	Precipitación	0
93880	7	Sololá	717	San Juan la Laguna	12	San Juan la Laguna	12	Diciembre	2023-09-12T00:00:00	2024-11-08T08:00:00	8	Radiación solar	159
93881	7	Sololá	717	San Juan la Laguna	12	San Juan la Laguna	12	Diciembre	2023-09-12T00:00:00	2024-11-08T09:00:00	2	Temperatura media	21.4
93882	7	Sololá	717	San Juan la Laguna	12	San Juan la Laguna	12	Diciembre	2023-09-12T00:00:00	2024-11-08T09:00:00	4	Temperatura máxima	21.4
93883	7	Sololá	717	San Juan la Laguna	12	San Juan la Laguna	12	Diciembre	2023-09-12T00:00:00	2024-11-08T09:00:00	3	Temperatura mínima	16.9
93884	7	Sololá	717	San Juan la Laguna	12	San Juan la Laguna	12	Diciembre	2023-09-12T00:00:00	2024-11-08T09:00:00	5	Humedad	58
93885	7	Sololá	717	San Juan la Laguna	12	San Juan la Laguna	12	Diciembre	2023-09-12T00:00:00	2024-11-08T09:00:00	6	Velocidad del viento	3.2
93886	7	Sololá	717	San Juan la Laguna	12	San Juan la Laguna	12	Diciembre	2023-09-12T00:00:00	2024-11-08T09:00:00	7	Dirección del viento	3.22
93887	7	Sololá	717	San Juan la Laguna	12	San Juan la Laguna	12	Diciembre	2023-09-12T00:00:00	2024-11-08T09:00:00	1	Precipitación	0
93888	7	Sololá	717	San Juan la Laguna	12	San Juan la Laguna	12	Diciembre	2023-09-12T00:00:00	2024-11-08T09:00:00	8	Radiación solar	371
93889	7	Sololá	717	San Juan la Laguna	12	San Juan la Laguna	12	Diciembre	2023-09-12T00:00:00	2024-11-08T10:00:00	2	Temperatura media	23.1
93890	7	Sololá	717	San Juan la Laguna	12	San Juan la Laguna	12	Diciembre	2023-09-12T00:00:00	2024-11-08T10:00:00	4	Temperatura máxima	23.1
93891	7	Sololá	717	San Juan la Laguna	12	San Juan la Laguna	12	Diciembre	2023-09-12T00:00:00	2024-11-08T10:00:00	3	Temperatura mínima	21.4
93892	7	Sololá	717	San Juan la Laguna	12	San Juan la Laguna	12	Diciembre	2023-09-12T00:00:00	2024-11-08T10:00:00	5	Humedad	51
93893	7	Sololá	717	San Juan la Laguna	12	San Juan la Laguna	12	Diciembre	2023-09-12T00:00:00	2024-11-08T10:00:00	6	Velocidad del viento	3.2
93894	7	Sololá	717	San Juan la Laguna	12	San Juan la Laguna	12	Diciembre	2023-09-12T00:00:00	2024-11-08T10:00:00	7	Dirección del viento	3.22
93895	7	Sololá	717	San Juan la Laguna	12	San Juan la Laguna	12	Diciembre	2023-09-12T00:00:00	2024-11-08T10:00:00	1	Precipitación	0
93896	7	Sololá	717	San Juan la Laguna	12	San Juan la Laguna	12	Diciembre	2023-09-12T00:00:00	2024-11-08T10:00:00	8	Radiación solar	536
93897	7	Sololá	717	San Juan la Laguna	12	San Juan la Laguna	12	Diciembre	2023-09-12T00:00:00	2024-11-08T11:00:00	2	Temperatura media	24
93898	7	Sololá	717	San Juan la Laguna	12	San Juan la Laguna	12	Diciembre	2023-09-12T00:00:00	2024-11-08T11:00:00	4	Temperatura máxima	24
93899	7	Sololá	717	San Juan la Laguna	12	San Juan la Laguna	12	Diciembre	2023-09-12T00:00:00	2024-11-08T11:00:00	3	Temperatura mínima	23.1
93900	7	Sololá	717	San Juan la Laguna	12	San Juan la Laguna	12	Diciembre	2023-09-12T00:00:00	2024-11-08T11:00:00	5	Humedad	48
93901	7	Sololá	717	San Juan la Laguna	12	San Juan la Laguna	12	Diciembre	2023-09-12T00:00:00	2024-11-08T11:00:00	6	Velocidad del viento	6.4
93902	7	Sololá	717	San Juan la Laguna	12	San Juan la Laguna	12	Diciembre	2023-09-12T00:00:00	2024-11-08T11:00:00	7	Dirección del viento	6.44
93903	7	Sololá	717	San Juan la Laguna	12	San Juan la Laguna	12	Diciembre	2023-09-12T00:00:00	2024-11-08T11:00:00	1	Precipitación	0
93904	7	Sololá	717	San Juan la Laguna	12	San Juan la Laguna	12	Diciembre	2023-09-12T00:00:00	2024-11-08T11:00:00	8	Radiación solar	573
93905	7	Sololá	717	San Juan la Laguna	12	San Juan la Laguna	12	Diciembre	2023-09-12T00:00:00	2024-11-08T12:00:00	2	Temperatura media	25.3
93906	7	Sololá	717	San Juan la Laguna	12	San Juan la Laguna	12	Diciembre	2023-09-12T00:00:00	2024-11-08T12:00:00	4	Temperatura máxima	25.4
93907	7	Sololá	717	San Juan la Laguna	12	San Juan la Laguna	12	Diciembre	2023-09-12T00:00:00	2024-11-08T12:00:00	3	Temperatura mínima	24
93908	7	Sololá	717	San Juan la Laguna	12	San Juan la Laguna	12	Diciembre	2023-09-12T00:00:00	2024-11-08T12:00:00	5	Humedad	41
93909	7	Sololá	717	San Juan la Laguna	12	San Juan la Laguna	12	Diciembre	2023-09-12T00:00:00	2024-11-08T12:00:00	6	Velocidad del viento	6.4
93910	7	Sololá	717	San Juan la Laguna	12	San Juan la Laguna	12	Diciembre	2023-09-12T00:00:00	2024-11-08T12:00:00	7	Dirección del viento	6.44
93911	7	Sololá	717	San Juan la Laguna	12	San Juan la Laguna	12	Diciembre	2023-09-12T00:00:00	2024-11-08T12:00:00	1	Precipitación	0
93912	7	Sololá	717	San Juan la Laguna	12	San Juan la Laguna	12	Diciembre	2023-09-12T00:00:00	2024-11-08T12:00:00	8	Radiación solar	721
93913	7	Sololá	717	San Juan la Laguna	12	San Juan la Laguna	12	Diciembre	2023-09-12T00:00:00	2024-11-08T13:00:00	2	Temperatura media	25.7
93914	7	Sololá	717	San Juan la Laguna	12	San Juan la Laguna	12	Diciembre	2023-09-12T00:00:00	2024-11-08T13:00:00	4	Temperatura máxima	26.2
93915	7	Sololá	717	San Juan la Laguna	12	San Juan la Laguna	12	Diciembre	2023-09-12T00:00:00	2024-11-08T13:00:00	3	Temperatura mínima	25.3
93916	7	Sololá	717	San Juan la Laguna	12	San Juan la Laguna	12	Diciembre	2023-09-12T00:00:00	2024-11-08T13:00:00	5	Humedad	43
93917	7	Sololá	717	San Juan la Laguna	12	San Juan la Laguna	12	Diciembre	2023-09-12T00:00:00	2024-11-08T13:00:00	6	Velocidad del viento	6.4
93918	7	Sololá	717	San Juan la Laguna	12	San Juan la Laguna	12	Diciembre	2023-09-12T00:00:00	2024-11-08T13:00:00	7	Dirección del viento	6.44
93919	7	Sololá	717	San Juan la Laguna	12	San Juan la Laguna	12	Diciembre	2023-09-12T00:00:00	2024-11-08T13:00:00	1	Precipitación	0
93920	7	Sololá	717	San Juan la Laguna	12	San Juan la Laguna	12	Diciembre	2023-09-12T00:00:00	2024-11-08T13:00:00	8	Radiación solar	725
93921	7	Sololá	717	San Juan la Laguna	12	San Juan la Laguna	12	Diciembre	2023-09-12T00:00:00	2024-11-08T14:00:00	2	Temperatura media	24.7
93922	7	Sololá	717	San Juan la Laguna	12	San Juan la Laguna	12	Diciembre	2023-09-12T00:00:00	2024-11-08T14:00:00	4	Temperatura máxima	26.2
93923	7	Sololá	717	San Juan la Laguna	12	San Juan la Laguna	12	Diciembre	2023-09-12T00:00:00	2024-11-08T14:00:00	3	Temperatura mínima	24.7
93924	7	Sololá	717	San Juan la Laguna	12	San Juan la Laguna	12	Diciembre	2023-09-12T00:00:00	2024-11-08T14:00:00	5	Humedad	64
93925	7	Sololá	717	San Juan la Laguna	12	San Juan la Laguna	12	Diciembre	2023-09-12T00:00:00	2024-11-08T14:00:00	6	Velocidad del viento	8
93926	7	Sololá	717	San Juan la Laguna	12	San Juan la Laguna	12	Diciembre	2023-09-12T00:00:00	2024-11-08T14:00:00	7	Dirección del viento	8.05
93927	7	Sololá	717	San Juan la Laguna	12	San Juan la Laguna	12	Diciembre	2023-09-12T00:00:00	2024-11-08T14:00:00	1	Precipitación	0
93928	7	Sololá	717	San Juan la Laguna	12	San Juan la Laguna	12	Diciembre	2023-09-12T00:00:00	2024-11-08T14:00:00	8	Radiación solar	674
93929	7	Sololá	717	San Juan la Laguna	12	San Juan la Laguna	12	Diciembre	2023-09-12T00:00:00	2024-11-08T15:00:00	2	Temperatura media	23.6
93930	7	Sololá	717	San Juan la Laguna	12	San Juan la Laguna	12	Diciembre	2023-09-12T00:00:00	2024-11-08T15:00:00	4	Temperatura máxima	24.7
93931	7	Sololá	717	San Juan la Laguna	12	San Juan la Laguna	12	Diciembre	2023-09-12T00:00:00	2024-11-08T15:00:00	3	Temperatura mínima	23.6
93932	7	Sololá	717	San Juan la Laguna	12	San Juan la Laguna	12	Diciembre	2023-09-12T00:00:00	2024-11-08T15:00:00	5	Humedad	67
93933	7	Sololá	717	San Juan la Laguna	12	San Juan la Laguna	12	Diciembre	2023-09-12T00:00:00	2024-11-08T15:00:00	6	Velocidad del viento	11.3
93934	7	Sololá	717	San Juan la Laguna	12	San Juan la Laguna	12	Diciembre	2023-09-12T00:00:00	2024-11-08T15:00:00	7	Dirección del viento	11.27
93935	7	Sololá	717	San Juan la Laguna	12	San Juan la Laguna	12	Diciembre	2023-09-12T00:00:00	2024-11-08T15:00:00	1	Precipitación	0
93936	7	Sololá	717	San Juan la Laguna	12	San Juan la Laguna	12	Diciembre	2023-09-12T00:00:00	2024-11-08T15:00:00	8	Radiación solar	525
93937	7	Sololá	717	San Juan la Laguna	12	San Juan la Laguna	12	Diciembre	2023-09-12T00:00:00	2024-11-08T16:00:00	2	Temperatura media	23.3
93938	7	Sololá	717	San Juan la Laguna	12	San Juan la Laguna	12	Diciembre	2023-09-12T00:00:00	2024-11-08T16:00:00	4	Temperatura máxima	24
93939	7	Sololá	717	San Juan la Laguna	12	San Juan la Laguna	12	Diciembre	2023-09-12T00:00:00	2024-11-08T16:00:00	3	Temperatura mínima	23.3
93940	7	Sololá	717	San Juan la Laguna	12	San Juan la Laguna	12	Diciembre	2023-09-12T00:00:00	2024-11-08T16:00:00	5	Humedad	69
93941	7	Sololá	717	San Juan la Laguna	12	San Juan la Laguna	12	Diciembre	2023-09-12T00:00:00	2024-11-08T16:00:00	6	Velocidad del viento	9.7
93942	7	Sololá	717	San Juan la Laguna	12	San Juan la Laguna	12	Diciembre	2023-09-12T00:00:00	2024-11-08T16:00:00	7	Dirección del viento	9.66
93943	7	Sololá	717	San Juan la Laguna	12	San Juan la Laguna	12	Diciembre	2023-09-12T00:00:00	2024-11-08T16:00:00	1	Precipitación	0
93944	7	Sololá	717	San Juan la Laguna	12	San Juan la Laguna	12	Diciembre	2023-09-12T00:00:00	2024-11-08T16:00:00	8	Radiación solar	381
93945	7	Sololá	717	San Juan la Laguna	12	San Juan la Laguna	12	Diciembre	2023-09-12T00:00:00	2024-11-08T17:00:00	2	Temperatura media	21
93946	7	Sololá	717	San Juan la Laguna	12	San Juan la Laguna	12	Diciembre	2023-09-12T00:00:00	2024-11-08T17:00:00	4	Temperatura máxima	23.3
93947	7	Sololá	717	San Juan la Laguna	12	San Juan la Laguna	12	Diciembre	2023-09-12T00:00:00	2024-11-08T17:00:00	3	Temperatura mínima	20.9
93948	7	Sololá	717	San Juan la Laguna	12	San Juan la Laguna	12	Diciembre	2023-09-12T00:00:00	2024-11-08T17:00:00	5	Humedad	78
93949	7	Sololá	717	San Juan la Laguna	12	San Juan la Laguna	12	Diciembre	2023-09-12T00:00:00	2024-11-08T17:00:00	6	Velocidad del viento	6.4
93950	7	Sololá	717	San Juan la Laguna	12	San Juan la Laguna	12	Diciembre	2023-09-12T00:00:00	2024-11-08T17:00:00	7	Dirección del viento	6.44
93951	7	Sololá	717	San Juan la Laguna	12	San Juan la Laguna	12	Diciembre	2023-09-12T00:00:00	2024-11-08T17:00:00	1	Precipitación	0
93952	7	Sololá	717	San Juan la Laguna	12	San Juan la Laguna	12	Diciembre	2023-09-12T00:00:00	2024-11-08T17:00:00	8	Radiación solar	88
93953	7	Sololá	717	San Juan la Laguna	12	San Juan la Laguna	12	Diciembre	2023-09-12T00:00:00	2024-11-08T18:00:00	2	Temperatura media	19.6
93954	7	Sololá	717	San Juan la Laguna	12	San Juan la Laguna	12	Diciembre	2023-09-12T00:00:00	2024-11-08T18:00:00	4	Temperatura máxima	21
93955	7	Sololá	717	San Juan la Laguna	12	San Juan la Laguna	12	Diciembre	2023-09-12T00:00:00	2024-11-08T18:00:00	3	Temperatura mínima	19.6
93956	7	Sololá	717	San Juan la Laguna	12	San Juan la Laguna	12	Diciembre	2023-09-12T00:00:00	2024-11-08T18:00:00	5	Humedad	82
93957	7	Sololá	717	San Juan la Laguna	12	San Juan la Laguna	12	Diciembre	2023-09-12T00:00:00	2024-11-08T18:00:00	6	Velocidad del viento	4.8
93958	7	Sololá	717	San Juan la Laguna	12	San Juan la Laguna	12	Diciembre	2023-09-12T00:00:00	2024-11-08T18:00:00	7	Dirección del viento	4.83
93959	7	Sololá	717	San Juan la Laguna	12	San Juan la Laguna	12	Diciembre	2023-09-12T00:00:00	2024-11-08T18:00:00	1	Precipitación	0
93960	7	Sololá	717	San Juan la Laguna	12	San Juan la Laguna	12	Diciembre	2023-09-12T00:00:00	2024-11-08T18:00:00	8	Radiación solar	13
93961	7	Sololá	717	San Juan la Laguna	12	San Juan la Laguna	12	Diciembre	2023-09-12T00:00:00	2024-11-08T19:00:00	2	Temperatura media	17.8
93962	7	Sololá	717	San Juan la Laguna	12	San Juan la Laguna	12	Diciembre	2023-09-12T00:00:00	2024-11-08T19:00:00	4	Temperatura máxima	19.6
93963	7	Sololá	717	San Juan la Laguna	12	San Juan la Laguna	12	Diciembre	2023-09-12T00:00:00	2024-11-08T19:00:00	3	Temperatura mínima	17.8
93964	7	Sololá	717	San Juan la Laguna	12	San Juan la Laguna	12	Diciembre	2023-09-12T00:00:00	2024-11-08T19:00:00	5	Humedad	83
93965	7	Sololá	717	San Juan la Laguna	12	San Juan la Laguna	12	Diciembre	2023-09-12T00:00:00	2024-11-08T19:00:00	6	Velocidad del viento	3.2
93966	7	Sololá	717	San Juan la Laguna	12	San Juan la Laguna	12	Diciembre	2023-09-12T00:00:00	2024-11-08T19:00:00	7	Dirección del viento	3.22
93967	7	Sololá	717	San Juan la Laguna	12	San Juan la Laguna	12	Diciembre	2023-09-12T00:00:00	2024-11-08T19:00:00	1	Precipitación	0
93968	7	Sololá	717	San Juan la Laguna	12	San Juan la Laguna	12	Diciembre	2023-09-12T00:00:00	2024-11-08T19:00:00	8	Radiación solar	0
93969	7	Sololá	717	San Juan la Laguna	12	San Juan la Laguna	12	Diciembre	2023-09-12T00:00:00	2024-11-08T20:00:00	2	Temperatura media	16.8
93970	7	Sololá	717	San Juan la Laguna	12	San Juan la Laguna	12	Diciembre	2023-09-12T00:00:00	2024-11-08T20:00:00	4	Temperatura máxima	17.8
93971	7	Sololá	717	San Juan la Laguna	12	San Juan la Laguna	12	Diciembre	2023-09-12T00:00:00	2024-11-08T20:00:00	3	Temperatura mínima	16.8
93972	7	Sololá	717	San Juan la Laguna	12	San Juan la Laguna	12	Diciembre	2023-09-12T00:00:00	2024-11-08T20:00:00	5	Humedad	82
93973	7	Sololá	717	San Juan la Laguna	12	San Juan la Laguna	12	Diciembre	2023-09-12T00:00:00	2024-11-08T20:00:00	6	Velocidad del viento	3.2
93974	7	Sololá	717	San Juan la Laguna	12	San Juan la Laguna	12	Diciembre	2023-09-12T00:00:00	2024-11-08T20:00:00	7	Dirección del viento	3.22
93975	7	Sololá	717	San Juan la Laguna	12	San Juan la Laguna	12	Diciembre	2023-09-12T00:00:00	2024-11-08T20:00:00	1	Precipitación	0
93976	7	Sololá	717	San Juan la Laguna	12	San Juan la Laguna	12	Diciembre	2023-09-12T00:00:00	2024-11-08T20:00:00	8	Radiación solar	0
93977	7	Sololá	717	San Juan la Laguna	12	San Juan la Laguna	12	Diciembre	2023-09-12T00:00:00	2024-11-08T21:00:00	2	Temperatura media	16.2
93978	7	Sololá	717	San Juan la Laguna	12	San Juan la Laguna	12	Diciembre	2023-09-12T00:00:00	2024-11-08T21:00:00	4	Temperatura máxima	17.2
93979	7	Sololá	717	San Juan la Laguna	12	San Juan la Laguna	12	Diciembre	2023-09-12T00:00:00	2024-11-08T21:00:00	3	Temperatura mínima	16.2
93980	7	Sololá	717	San Juan la Laguna	12	San Juan la Laguna	12	Diciembre	2023-09-12T00:00:00	2024-11-08T21:00:00	5	Humedad	85
93981	7	Sololá	717	San Juan la Laguna	12	San Juan la Laguna	12	Diciembre	2023-09-12T00:00:00	2024-11-08T21:00:00	6	Velocidad del viento	3.2
93982	7	Sololá	717	San Juan la Laguna	12	San Juan la Laguna	12	Diciembre	2023-09-12T00:00:00	2024-11-08T21:00:00	7	Dirección del viento	3.22
93983	7	Sololá	717	San Juan la Laguna	12	San Juan la Laguna	12	Diciembre	2023-09-12T00:00:00	2024-11-08T21:00:00	1	Precipitación	0
93984	7	Sololá	717	San Juan la Laguna	12	San Juan la Laguna	12	Diciembre	2023-09-12T00:00:00	2024-11-08T21:00:00	8	Radiación solar	0
93985	7	Sololá	717	San Juan la Laguna	12	San Juan la Laguna	12	Diciembre	2023-09-12T00:00:00	2024-11-08T22:00:00	2	Temperatura media	16.3
93986	7	Sololá	717	San Juan la Laguna	12	San Juan la Laguna	12	Diciembre	2023-09-12T00:00:00	2024-11-08T22:00:00	4	Temperatura máxima	16.3
93987	7	Sololá	717	San Juan la Laguna	12	San Juan la Laguna	12	Diciembre	2023-09-12T00:00:00	2024-11-08T22:00:00	3	Temperatura mínima	15.7
93988	7	Sololá	717	San Juan la Laguna	12	San Juan la Laguna	12	Diciembre	2023-09-12T00:00:00	2024-11-08T22:00:00	5	Humedad	80
93989	7	Sololá	717	San Juan la Laguna	12	San Juan la Laguna	12	Diciembre	2023-09-12T00:00:00	2024-11-08T22:00:00	6	Velocidad del viento	4.8
93990	7	Sololá	717	San Juan la Laguna	12	San Juan la Laguna	12	Diciembre	2023-09-12T00:00:00	2024-11-08T22:00:00	7	Dirección del viento	4.83
93991	7	Sololá	717	San Juan la Laguna	12	San Juan la Laguna	12	Diciembre	2023-09-12T00:00:00	2024-11-08T22:00:00	1	Precipitación	0
93992	7	Sololá	717	San Juan la Laguna	12	San Juan la Laguna	12	Diciembre	2023-09-12T00:00:00	2024-11-08T22:00:00	8	Radiación solar	0
93993	7	Sololá	717	San Juan la Laguna	12	San Juan la Laguna	12	Diciembre	2023-09-12T00:00:00	2024-11-08T23:00:00	2	Temperatura media	15.3
93994	7	Sololá	717	San Juan la Laguna	12	San Juan la Laguna	12	Diciembre	2023-09-12T00:00:00	2024-11-08T23:00:00	4	Temperatura máxima	16.3
93995	7	Sololá	717	San Juan la Laguna	12	San Juan la Laguna	12	Diciembre	2023-09-12T00:00:00	2024-11-08T23:00:00	3	Temperatura mínima	15.3
93996	7	Sololá	717	San Juan la Laguna	12	San Juan la Laguna	12	Diciembre	2023-09-12T00:00:00	2024-11-08T23:00:00	5	Humedad	76
93997	7	Sololá	717	San Juan la Laguna	12	San Juan la Laguna	12	Diciembre	2023-09-12T00:00:00	2024-11-08T23:00:00	6	Velocidad del viento	6.4
93998	7	Sololá	717	San Juan la Laguna	12	San Juan la Laguna	12	Diciembre	2023-09-12T00:00:00	2024-11-08T23:00:00	7	Dirección del viento	6.44
93999	7	Sololá	717	San Juan la Laguna	12	San Juan la Laguna	12	Diciembre	2023-09-12T00:00:00	2024-11-08T23:00:00	1	Precipitación	0
94000	7	Sololá	717	San Juan la Laguna	12	San Juan la Laguna	12	Diciembre	2023-09-12T00:00:00	2024-11-08T23:00:00	8	Radiación solar	0
94001	7	Sololá	717	San Juan la Laguna	12	San Juan la Laguna	12	Diciembre	2023-10-12T00:00:00	2024-11-08T00:00:00	2	Temperatura media	14.7
94002	7	Sololá	717	San Juan la Laguna	12	San Juan la Laguna	12	Diciembre	2023-10-12T00:00:00	2024-11-08T00:00:00	4	Temperatura máxima	15.3
94003	7	Sololá	717	San Juan la Laguna	12	San Juan la Laguna	12	Diciembre	2023-10-12T00:00:00	2024-11-08T00:00:00	3	Temperatura mínima	14.7
94004	7	Sololá	717	San Juan la Laguna	12	San Juan la Laguna	12	Diciembre	2023-10-12T00:00:00	2024-11-08T00:00:00	5	Humedad	76
94005	7	Sololá	717	San Juan la Laguna	12	San Juan la Laguna	12	Diciembre	2023-10-12T00:00:00	2024-11-08T00:00:00	6	Velocidad del viento	6.4
94006	7	Sololá	717	San Juan la Laguna	12	San Juan la Laguna	12	Diciembre	2023-10-12T00:00:00	2024-11-08T00:00:00	7	Dirección del viento	6.44
94007	7	Sololá	717	San Juan la Laguna	12	San Juan la Laguna	12	Diciembre	2023-10-12T00:00:00	2024-11-08T00:00:00	1	Precipitación	0
94008	7	Sololá	717	San Juan la Laguna	12	San Juan la Laguna	12	Diciembre	2023-10-12T00:00:00	2024-11-08T00:00:00	8	Radiación solar	0
94009	7	Sololá	717	San Juan la Laguna	12	San Juan la Laguna	12	Diciembre	2023-10-12T00:00:00	2024-11-08T01:00:00	2	Temperatura media	14.4
94010	7	Sololá	717	San Juan la Laguna	12	San Juan la Laguna	12	Diciembre	2023-10-12T00:00:00	2024-11-08T01:00:00	4	Temperatura máxima	14.8
94011	7	Sololá	717	San Juan la Laguna	12	San Juan la Laguna	12	Diciembre	2023-10-12T00:00:00	2024-11-08T01:00:00	3	Temperatura mínima	14.3
94012	7	Sololá	717	San Juan la Laguna	12	San Juan la Laguna	12	Diciembre	2023-10-12T00:00:00	2024-11-08T01:00:00	5	Humedad	76
94013	7	Sololá	717	San Juan la Laguna	12	San Juan la Laguna	12	Diciembre	2023-10-12T00:00:00	2024-11-08T01:00:00	6	Velocidad del viento	6.4
94014	7	Sololá	717	San Juan la Laguna	12	San Juan la Laguna	12	Diciembre	2023-10-12T00:00:00	2024-11-08T01:00:00	7	Dirección del viento	6.44
94015	7	Sololá	717	San Juan la Laguna	12	San Juan la Laguna	12	Diciembre	2023-10-12T00:00:00	2024-11-08T01:00:00	1	Precipitación	0
94016	7	Sololá	717	San Juan la Laguna	12	San Juan la Laguna	12	Diciembre	2023-10-12T00:00:00	2024-11-08T01:00:00	8	Radiación solar	0
94017	7	Sololá	717	San Juan la Laguna	12	San Juan la Laguna	12	Diciembre	2023-10-12T00:00:00	2024-11-08T02:00:00	2	Temperatura media	14.3
94018	7	Sololá	717	San Juan la Laguna	12	San Juan la Laguna	12	Diciembre	2023-10-12T00:00:00	2024-11-08T02:00:00	4	Temperatura máxima	14.5
94019	7	Sololá	717	San Juan la Laguna	12	San Juan la Laguna	12	Diciembre	2023-10-12T00:00:00	2024-11-08T02:00:00	3	Temperatura mínima	14.3
94020	7	Sololá	717	San Juan la Laguna	12	San Juan la Laguna	12	Diciembre	2023-10-12T00:00:00	2024-11-08T02:00:00	5	Humedad	74
94021	7	Sololá	717	San Juan la Laguna	12	San Juan la Laguna	12	Diciembre	2023-10-12T00:00:00	2024-11-08T02:00:00	6	Velocidad del viento	6.4
94022	7	Sololá	717	San Juan la Laguna	12	San Juan la Laguna	12	Diciembre	2023-10-12T00:00:00	2024-11-08T02:00:00	7	Dirección del viento	6.44
94023	7	Sololá	717	San Juan la Laguna	12	San Juan la Laguna	12	Diciembre	2023-10-12T00:00:00	2024-11-08T02:00:00	1	Precipitación	0
94024	7	Sololá	717	San Juan la Laguna	12	San Juan la Laguna	12	Diciembre	2023-10-12T00:00:00	2024-11-08T02:00:00	8	Radiación solar	0
94025	7	Sololá	717	San Juan la Laguna	12	San Juan la Laguna	12	Diciembre	2023-10-12T00:00:00	2024-11-08T03:00:00	2	Temperatura media	13.3
94026	7	Sololá	717	San Juan la Laguna	12	San Juan la Laguna	12	Diciembre	2023-10-12T00:00:00	2024-11-08T03:00:00	4	Temperatura máxima	14.3
94027	7	Sololá	717	San Juan la Laguna	12	San Juan la Laguna	12	Diciembre	2023-10-12T00:00:00	2024-11-08T03:00:00	3	Temperatura mínima	13.3
94028	7	Sololá	717	San Juan la Laguna	12	San Juan la Laguna	12	Diciembre	2023-10-12T00:00:00	2024-11-08T03:00:00	5	Humedad	76
94029	7	Sololá	717	San Juan la Laguna	12	San Juan la Laguna	12	Diciembre	2023-10-12T00:00:00	2024-11-08T03:00:00	6	Velocidad del viento	6.4
94030	7	Sololá	717	San Juan la Laguna	12	San Juan la Laguna	12	Diciembre	2023-10-12T00:00:00	2024-11-08T03:00:00	7	Dirección del viento	6.44
94031	7	Sololá	717	San Juan la Laguna	12	San Juan la Laguna	12	Diciembre	2023-10-12T00:00:00	2024-11-08T03:00:00	1	Precipitación	0
94032	7	Sololá	717	San Juan la Laguna	12	San Juan la Laguna	12	Diciembre	2023-10-12T00:00:00	2024-11-08T03:00:00	8	Radiación solar	0
94033	7	Sololá	717	San Juan la Laguna	12	San Juan la Laguna	12	Diciembre	2023-10-12T00:00:00	2024-11-08T04:00:00	2	Temperatura media	13.5
94034	7	Sololá	717	San Juan la Laguna	12	San Juan la Laguna	12	Diciembre	2023-10-12T00:00:00	2024-11-08T04:00:00	4	Temperatura máxima	13.6
94035	7	Sololá	717	San Juan la Laguna	12	San Juan la Laguna	12	Diciembre	2023-10-12T00:00:00	2024-11-08T04:00:00	3	Temperatura mínima	13.3
94036	7	Sololá	717	San Juan la Laguna	12	San Juan la Laguna	12	Diciembre	2023-10-12T00:00:00	2024-11-08T04:00:00	5	Humedad	75
94037	7	Sololá	717	San Juan la Laguna	12	San Juan la Laguna	12	Diciembre	2023-10-12T00:00:00	2024-11-08T04:00:00	6	Velocidad del viento	6.4
94038	7	Sololá	717	San Juan la Laguna	12	San Juan la Laguna	12	Diciembre	2023-10-12T00:00:00	2024-11-08T04:00:00	7	Dirección del viento	6.44
94039	7	Sololá	717	San Juan la Laguna	12	San Juan la Laguna	12	Diciembre	2023-10-12T00:00:00	2024-11-08T04:00:00	1	Precipitación	0
94040	7	Sololá	717	San Juan la Laguna	12	San Juan la Laguna	12	Diciembre	2023-10-12T00:00:00	2024-11-08T04:00:00	8	Radiación solar	0
94041	7	Sololá	717	San Juan la Laguna	12	San Juan la Laguna	12	Diciembre	2023-10-12T00:00:00	2024-11-08T05:00:00	2	Temperatura media	12.7
94042	7	Sololá	717	San Juan la Laguna	12	San Juan la Laguna	12	Diciembre	2023-10-12T00:00:00	2024-11-08T05:00:00	4	Temperatura máxima	13.5
94043	7	Sololá	717	San Juan la Laguna	12	San Juan la Laguna	12	Diciembre	2023-10-12T00:00:00	2024-11-08T05:00:00	3	Temperatura mínima	12.7
94044	7	Sololá	717	San Juan la Laguna	12	San Juan la Laguna	12	Diciembre	2023-10-12T00:00:00	2024-11-08T05:00:00	5	Humedad	78
94045	7	Sololá	717	San Juan la Laguna	12	San Juan la Laguna	12	Diciembre	2023-10-12T00:00:00	2024-11-08T05:00:00	6	Velocidad del viento	6.4
94046	7	Sololá	717	San Juan la Laguna	12	San Juan la Laguna	12	Diciembre	2023-10-12T00:00:00	2024-11-08T05:00:00	7	Dirección del viento	6.44
94047	7	Sololá	717	San Juan la Laguna	12	San Juan la Laguna	12	Diciembre	2023-10-12T00:00:00	2024-11-08T05:00:00	1	Precipitación	0
94048	7	Sololá	717	San Juan la Laguna	12	San Juan la Laguna	12	Diciembre	2023-10-12T00:00:00	2024-11-08T05:00:00	8	Radiación solar	0
94049	7	Sololá	717	San Juan la Laguna	12	San Juan la Laguna	12	Diciembre	2023-10-12T00:00:00	2024-11-08T06:00:00	2	Temperatura media	13
94050	7	Sololá	717	San Juan la Laguna	12	San Juan la Laguna	12	Diciembre	2023-10-12T00:00:00	2024-11-08T06:00:00	4	Temperatura máxima	13.1
94051	7	Sololá	717	San Juan la Laguna	12	San Juan la Laguna	12	Diciembre	2023-10-12T00:00:00	2024-11-08T06:00:00	3	Temperatura mínima	12.7
94052	7	Sololá	717	San Juan la Laguna	12	San Juan la Laguna	12	Diciembre	2023-10-12T00:00:00	2024-11-08T06:00:00	5	Humedad	75
94053	7	Sololá	717	San Juan la Laguna	12	San Juan la Laguna	12	Diciembre	2023-10-12T00:00:00	2024-11-08T06:00:00	6	Velocidad del viento	6.4
94054	7	Sololá	717	San Juan la Laguna	12	San Juan la Laguna	12	Diciembre	2023-10-12T00:00:00	2024-11-08T06:00:00	7	Dirección del viento	6.44
94055	7	Sololá	717	San Juan la Laguna	12	San Juan la Laguna	12	Diciembre	2023-10-12T00:00:00	2024-11-08T06:00:00	1	Precipitación	0
94056	7	Sololá	717	San Juan la Laguna	12	San Juan la Laguna	12	Diciembre	2023-10-12T00:00:00	2024-11-08T06:00:00	8	Radiación solar	0
94057	7	Sololá	717	San Juan la Laguna	12	San Juan la Laguna	12	Diciembre	2023-10-12T00:00:00	2024-11-08T07:00:00	2	Temperatura media	13.3
94058	7	Sololá	717	San Juan la Laguna	12	San Juan la Laguna	12	Diciembre	2023-10-12T00:00:00	2024-11-08T07:00:00	4	Temperatura máxima	13.3
94059	7	Sololá	717	San Juan la Laguna	12	San Juan la Laguna	12	Diciembre	2023-10-12T00:00:00	2024-11-08T07:00:00	3	Temperatura mínima	13.1
94060	7	Sololá	717	San Juan la Laguna	12	San Juan la Laguna	12	Diciembre	2023-10-12T00:00:00	2024-11-08T07:00:00	5	Humedad	77
94061	7	Sololá	717	San Juan la Laguna	12	San Juan la Laguna	12	Diciembre	2023-10-12T00:00:00	2024-11-08T07:00:00	6	Velocidad del viento	6.4
94062	7	Sololá	717	San Juan la Laguna	12	San Juan la Laguna	12	Diciembre	2023-10-12T00:00:00	2024-11-08T07:00:00	7	Dirección del viento	6.44
94063	7	Sololá	717	San Juan la Laguna	12	San Juan la Laguna	12	Diciembre	2023-10-12T00:00:00	2024-11-08T07:00:00	1	Precipitación	0
94064	7	Sololá	717	San Juan la Laguna	12	San Juan la Laguna	12	Diciembre	2023-10-12T00:00:00	2024-11-08T07:00:00	8	Radiación solar	14
94065	7	Sololá	717	San Juan la Laguna	12	San Juan la Laguna	12	Diciembre	2023-10-12T00:00:00	2024-11-08T08:00:00	2	Temperatura media	16.5
94066	7	Sololá	717	San Juan la Laguna	12	San Juan la Laguna	12	Diciembre	2023-10-12T00:00:00	2024-11-08T08:00:00	4	Temperatura máxima	16.5
94067	7	Sololá	717	San Juan la Laguna	12	San Juan la Laguna	12	Diciembre	2023-10-12T00:00:00	2024-11-08T08:00:00	3	Temperatura mínima	13.2
94068	7	Sololá	717	San Juan la Laguna	12	San Juan la Laguna	12	Diciembre	2023-10-12T00:00:00	2024-11-08T08:00:00	5	Humedad	71
94069	7	Sololá	717	San Juan la Laguna	12	San Juan la Laguna	12	Diciembre	2023-10-12T00:00:00	2024-11-08T08:00:00	6	Velocidad del viento	4.8
94070	7	Sololá	717	San Juan la Laguna	12	San Juan la Laguna	12	Diciembre	2023-10-12T00:00:00	2024-11-08T08:00:00	7	Dirección del viento	4.83
94071	7	Sololá	717	San Juan la Laguna	12	San Juan la Laguna	12	Diciembre	2023-10-12T00:00:00	2024-11-08T08:00:00	1	Precipitación	0
94072	7	Sololá	717	San Juan la Laguna	12	San Juan la Laguna	12	Diciembre	2023-10-12T00:00:00	2024-11-08T08:00:00	8	Radiación solar	157
94073	7	Sololá	717	San Juan la Laguna	12	San Juan la Laguna	12	Diciembre	2023-10-12T00:00:00	2024-11-08T09:00:00	2	Temperatura media	21.1
94074	7	Sololá	717	San Juan la Laguna	12	San Juan la Laguna	12	Diciembre	2023-10-12T00:00:00	2024-11-08T09:00:00	4	Temperatura máxima	21.2
94075	7	Sololá	717	San Juan la Laguna	12	San Juan la Laguna	12	Diciembre	2023-10-12T00:00:00	2024-11-08T09:00:00	3	Temperatura mínima	16.5
94076	7	Sololá	717	San Juan la Laguna	12	San Juan la Laguna	12	Diciembre	2023-10-12T00:00:00	2024-11-08T09:00:00	5	Humedad	57
94077	7	Sololá	717	San Juan la Laguna	12	San Juan la Laguna	12	Diciembre	2023-10-12T00:00:00	2024-11-08T09:00:00	6	Velocidad del viento	3.2
94078	7	Sololá	717	San Juan la Laguna	12	San Juan la Laguna	12	Diciembre	2023-10-12T00:00:00	2024-11-08T09:00:00	7	Dirección del viento	3.22
94079	7	Sololá	717	San Juan la Laguna	12	San Juan la Laguna	12	Diciembre	2023-10-12T00:00:00	2024-11-08T09:00:00	1	Precipitación	0
94080	7	Sololá	717	San Juan la Laguna	12	San Juan la Laguna	12	Diciembre	2023-10-12T00:00:00	2024-11-08T09:00:00	8	Radiación solar	373
94081	7	Sololá	717	San Juan la Laguna	12	San Juan la Laguna	12	Diciembre	2023-10-12T00:00:00	2024-11-08T10:00:00	2	Temperatura media	22.8
94082	7	Sololá	717	San Juan la Laguna	12	San Juan la Laguna	12	Diciembre	2023-10-12T00:00:00	2024-11-08T10:00:00	4	Temperatura máxima	22.8
94083	7	Sololá	717	San Juan la Laguna	12	San Juan la Laguna	12	Diciembre	2023-10-12T00:00:00	2024-11-08T10:00:00	3	Temperatura mínima	20.4
94084	7	Sololá	717	San Juan la Laguna	12	San Juan la Laguna	12	Diciembre	2023-10-12T00:00:00	2024-11-08T10:00:00	5	Humedad	52
94085	7	Sololá	717	San Juan la Laguna	12	San Juan la Laguna	12	Diciembre	2023-10-12T00:00:00	2024-11-08T10:00:00	6	Velocidad del viento	4.8
94086	7	Sololá	717	San Juan la Laguna	12	San Juan la Laguna	12	Diciembre	2023-10-12T00:00:00	2024-11-08T10:00:00	7	Dirección del viento	4.83
94087	7	Sololá	717	San Juan la Laguna	12	San Juan la Laguna	12	Diciembre	2023-10-12T00:00:00	2024-11-08T10:00:00	1	Precipitación	0
94088	7	Sololá	717	San Juan la Laguna	12	San Juan la Laguna	12	Diciembre	2023-10-12T00:00:00	2024-11-08T10:00:00	8	Radiación solar	551
94089	7	Sololá	717	San Juan la Laguna	12	San Juan la Laguna	12	Diciembre	2023-10-12T00:00:00	2024-11-08T11:00:00	2	Temperatura media	24.3
94090	7	Sololá	717	San Juan la Laguna	12	San Juan la Laguna	12	Diciembre	2023-10-12T00:00:00	2024-11-08T11:00:00	4	Temperatura máxima	24.3
94091	7	Sololá	717	San Juan la Laguna	12	San Juan la Laguna	12	Diciembre	2023-10-12T00:00:00	2024-11-08T11:00:00	3	Temperatura mínima	22.5
94092	7	Sololá	717	San Juan la Laguna	12	San Juan la Laguna	12	Diciembre	2023-10-12T00:00:00	2024-11-08T11:00:00	5	Humedad	48
94093	7	Sololá	717	San Juan la Laguna	12	San Juan la Laguna	12	Diciembre	2023-10-12T00:00:00	2024-11-08T11:00:00	6	Velocidad del viento	4.8
94094	7	Sololá	717	San Juan la Laguna	12	San Juan la Laguna	12	Diciembre	2023-10-12T00:00:00	2024-11-08T11:00:00	7	Dirección del viento	4.83
94095	7	Sololá	717	San Juan la Laguna	12	San Juan la Laguna	12	Diciembre	2023-10-12T00:00:00	2024-11-08T11:00:00	1	Precipitación	0
94096	7	Sololá	717	San Juan la Laguna	12	San Juan la Laguna	12	Diciembre	2023-10-12T00:00:00	2024-11-08T11:00:00	8	Radiación solar	571
94097	7	Sololá	717	San Juan la Laguna	12	San Juan la Laguna	12	Diciembre	2023-10-12T00:00:00	2024-11-08T12:00:00	2	Temperatura media	24.9
94098	7	Sololá	717	San Juan la Laguna	12	San Juan la Laguna	12	Diciembre	2023-10-12T00:00:00	2024-11-08T12:00:00	4	Temperatura máxima	25.2
94099	7	Sololá	717	San Juan la Laguna	12	San Juan la Laguna	12	Diciembre	2023-10-12T00:00:00	2024-11-08T12:00:00	3	Temperatura mínima	24.3
94100	7	Sololá	717	San Juan la Laguna	12	San Juan la Laguna	12	Diciembre	2023-10-12T00:00:00	2024-11-08T12:00:00	5	Humedad	46
94101	7	Sololá	717	San Juan la Laguna	12	San Juan la Laguna	12	Diciembre	2023-10-12T00:00:00	2024-11-08T12:00:00	6	Velocidad del viento	6.4
94102	7	Sololá	717	San Juan la Laguna	12	San Juan la Laguna	12	Diciembre	2023-10-12T00:00:00	2024-11-08T12:00:00	7	Dirección del viento	6.44
94103	7	Sololá	717	San Juan la Laguna	12	San Juan la Laguna	12	Diciembre	2023-10-12T00:00:00	2024-11-08T12:00:00	1	Precipitación	0
94104	7	Sololá	717	San Juan la Laguna	12	San Juan la Laguna	12	Diciembre	2023-10-12T00:00:00	2024-11-08T12:00:00	8	Radiación solar	711
94105	7	Sololá	717	San Juan la Laguna	12	San Juan la Laguna	12	Diciembre	2023-10-12T00:00:00	2024-11-08T13:00:00	2	Temperatura media	25.3
94106	7	Sololá	717	San Juan la Laguna	12	San Juan la Laguna	12	Diciembre	2023-10-12T00:00:00	2024-11-08T13:00:00	4	Temperatura máxima	25.4
94107	7	Sololá	717	San Juan la Laguna	12	San Juan la Laguna	12	Diciembre	2023-10-12T00:00:00	2024-11-08T13:00:00	3	Temperatura mínima	24.8
94108	7	Sololá	717	San Juan la Laguna	12	San Juan la Laguna	12	Diciembre	2023-10-12T00:00:00	2024-11-08T13:00:00	5	Humedad	56
94109	7	Sololá	717	San Juan la Laguna	12	San Juan la Laguna	12	Diciembre	2023-10-12T00:00:00	2024-11-08T13:00:00	6	Velocidad del viento	6.4
94110	7	Sololá	717	San Juan la Laguna	12	San Juan la Laguna	12	Diciembre	2023-10-12T00:00:00	2024-11-08T13:00:00	7	Dirección del viento	6.44
94111	7	Sololá	717	San Juan la Laguna	12	San Juan la Laguna	12	Diciembre	2023-10-12T00:00:00	2024-11-08T13:00:00	1	Precipitación	0
94112	7	Sololá	717	San Juan la Laguna	12	San Juan la Laguna	12	Diciembre	2023-10-12T00:00:00	2024-11-08T13:00:00	8	Radiación solar	713
94113	7	Sololá	717	San Juan la Laguna	12	San Juan la Laguna	12	Diciembre	2023-10-12T00:00:00	2024-11-08T14:00:00	2	Temperatura media	24.4
94114	7	Sololá	717	San Juan la Laguna	12	San Juan la Laguna	12	Diciembre	2023-10-12T00:00:00	2024-11-08T14:00:00	4	Temperatura máxima	25.8
94115	7	Sololá	717	San Juan la Laguna	12	San Juan la Laguna	12	Diciembre	2023-10-12T00:00:00	2024-11-08T14:00:00	3	Temperatura mínima	24.3
94116	7	Sololá	717	San Juan la Laguna	12	San Juan la Laguna	12	Diciembre	2023-10-12T00:00:00	2024-11-08T14:00:00	5	Humedad	61
94117	7	Sololá	717	San Juan la Laguna	12	San Juan la Laguna	12	Diciembre	2023-10-12T00:00:00	2024-11-08T14:00:00	6	Velocidad del viento	8
94118	7	Sololá	717	San Juan la Laguna	12	San Juan la Laguna	12	Diciembre	2023-10-12T00:00:00	2024-11-08T14:00:00	7	Dirección del viento	8.05
94119	7	Sololá	717	San Juan la Laguna	12	San Juan la Laguna	12	Diciembre	2023-10-12T00:00:00	2024-11-08T14:00:00	1	Precipitación	0
94120	7	Sololá	717	San Juan la Laguna	12	San Juan la Laguna	12	Diciembre	2023-10-12T00:00:00	2024-11-08T14:00:00	8	Radiación solar	693
94121	7	Sololá	717	San Juan la Laguna	12	San Juan la Laguna	12	Diciembre	2023-10-12T00:00:00	2024-11-08T15:00:00	2	Temperatura media	23.6
94122	7	Sololá	717	San Juan la Laguna	12	San Juan la Laguna	12	Diciembre	2023-10-12T00:00:00	2024-11-08T15:00:00	4	Temperatura máxima	24.4
94123	7	Sololá	717	San Juan la Laguna	12	San Juan la Laguna	12	Diciembre	2023-10-12T00:00:00	2024-11-08T15:00:00	3	Temperatura mínima	23.4
94124	7	Sololá	717	San Juan la Laguna	12	San Juan la Laguna	12	Diciembre	2023-10-12T00:00:00	2024-11-08T15:00:00	5	Humedad	67
94125	7	Sololá	717	San Juan la Laguna	12	San Juan la Laguna	12	Diciembre	2023-10-12T00:00:00	2024-11-08T15:00:00	6	Velocidad del viento	12.9
94126	7	Sololá	717	San Juan la Laguna	12	San Juan la Laguna	12	Diciembre	2023-10-12T00:00:00	2024-11-08T15:00:00	7	Dirección del viento	12.87
94127	7	Sololá	717	San Juan la Laguna	12	San Juan la Laguna	12	Diciembre	2023-10-12T00:00:00	2024-11-08T15:00:00	1	Precipitación	0
94128	7	Sololá	717	San Juan la Laguna	12	San Juan la Laguna	12	Diciembre	2023-10-12T00:00:00	2024-11-08T15:00:00	8	Radiación solar	558
94129	7	Sololá	717	San Juan la Laguna	12	San Juan la Laguna	12	Diciembre	2023-10-12T00:00:00	2024-11-08T16:00:00	2	Temperatura media	23.3
94130	7	Sololá	717	San Juan la Laguna	12	San Juan la Laguna	12	Diciembre	2023-10-12T00:00:00	2024-11-08T16:00:00	4	Temperatura máxima	23.7
94131	7	Sololá	717	San Juan la Laguna	12	San Juan la Laguna	12	Diciembre	2023-10-12T00:00:00	2024-11-08T16:00:00	3	Temperatura mínima	23.2
94132	7	Sololá	717	San Juan la Laguna	12	San Juan la Laguna	12	Diciembre	2023-10-12T00:00:00	2024-11-08T16:00:00	5	Humedad	68
94133	7	Sololá	717	San Juan la Laguna	12	San Juan la Laguna	12	Diciembre	2023-10-12T00:00:00	2024-11-08T16:00:00	6	Velocidad del viento	8
94134	7	Sololá	717	San Juan la Laguna	12	San Juan la Laguna	12	Diciembre	2023-10-12T00:00:00	2024-11-08T16:00:00	7	Dirección del viento	8.05
94135	7	Sololá	717	San Juan la Laguna	12	San Juan la Laguna	12	Diciembre	2023-10-12T00:00:00	2024-11-08T16:00:00	1	Precipitación	0
94136	7	Sololá	717	San Juan la Laguna	12	San Juan la Laguna	12	Diciembre	2023-10-12T00:00:00	2024-11-08T16:00:00	8	Radiación solar	369
94137	7	Sololá	717	San Juan la Laguna	12	San Juan la Laguna	12	Diciembre	2023-10-12T00:00:00	2024-11-08T17:00:00	2	Temperatura media	21.4
94138	7	Sololá	717	San Juan la Laguna	12	San Juan la Laguna	12	Diciembre	2023-10-12T00:00:00	2024-11-08T17:00:00	4	Temperatura máxima	23.3
94139	7	Sololá	717	San Juan la Laguna	12	San Juan la Laguna	12	Diciembre	2023-10-12T00:00:00	2024-11-08T17:00:00	3	Temperatura mínima	21.4
94140	7	Sololá	717	San Juan la Laguna	12	San Juan la Laguna	12	Diciembre	2023-10-12T00:00:00	2024-11-08T17:00:00	5	Humedad	75
94141	7	Sololá	717	San Juan la Laguna	12	San Juan la Laguna	12	Diciembre	2023-10-12T00:00:00	2024-11-08T17:00:00	6	Velocidad del viento	3.2
94142	7	Sololá	717	San Juan la Laguna	12	San Juan la Laguna	12	Diciembre	2023-10-12T00:00:00	2024-11-08T17:00:00	7	Dirección del viento	3.22
94143	7	Sololá	717	San Juan la Laguna	12	San Juan la Laguna	12	Diciembre	2023-10-12T00:00:00	2024-11-08T17:00:00	1	Precipitación	0
94144	7	Sololá	717	San Juan la Laguna	12	San Juan la Laguna	12	Diciembre	2023-10-12T00:00:00	2024-11-08T17:00:00	8	Radiación solar	92
94145	7	Sololá	717	San Juan la Laguna	12	San Juan la Laguna	12	Diciembre	2023-10-12T00:00:00	2024-11-08T18:00:00	2	Temperatura media	19.4
94146	7	Sololá	717	San Juan la Laguna	12	San Juan la Laguna	12	Diciembre	2023-10-12T00:00:00	2024-11-08T18:00:00	4	Temperatura máxima	21.4
94147	7	Sololá	717	San Juan la Laguna	12	San Juan la Laguna	12	Diciembre	2023-10-12T00:00:00	2024-11-08T18:00:00	3	Temperatura mínima	19.4
94148	7	Sololá	717	San Juan la Laguna	12	San Juan la Laguna	12	Diciembre	2023-10-12T00:00:00	2024-11-08T18:00:00	5	Humedad	81
94149	7	Sololá	717	San Juan la Laguna	12	San Juan la Laguna	12	Diciembre	2023-10-12T00:00:00	2024-11-08T18:00:00	6	Velocidad del viento	4.8
94150	7	Sololá	717	San Juan la Laguna	12	San Juan la Laguna	12	Diciembre	2023-10-12T00:00:00	2024-11-08T18:00:00	7	Dirección del viento	4.83
94151	7	Sololá	717	San Juan la Laguna	12	San Juan la Laguna	12	Diciembre	2023-10-12T00:00:00	2024-11-08T18:00:00	1	Precipitación	0
94152	7	Sololá	717	San Juan la Laguna	12	San Juan la Laguna	12	Diciembre	2023-10-12T00:00:00	2024-11-08T18:00:00	8	Radiación solar	10
94153	7	Sololá	717	San Juan la Laguna	12	San Juan la Laguna	12	Diciembre	2023-10-12T00:00:00	2024-11-08T19:00:00	2	Temperatura media	18.8
94154	7	Sololá	717	San Juan la Laguna	12	San Juan la Laguna	12	Diciembre	2023-10-12T00:00:00	2024-11-08T19:00:00	4	Temperatura máxima	19.4
94155	7	Sololá	717	San Juan la Laguna	12	San Juan la Laguna	12	Diciembre	2023-10-12T00:00:00	2024-11-08T19:00:00	3	Temperatura mínima	18.4
94156	7	Sololá	717	San Juan la Laguna	12	San Juan la Laguna	12	Diciembre	2023-10-12T00:00:00	2024-11-08T19:00:00	5	Humedad	79
94157	7	Sololá	717	San Juan la Laguna	12	San Juan la Laguna	12	Diciembre	2023-10-12T00:00:00	2024-11-08T19:00:00	6	Velocidad del viento	4.8
94158	7	Sololá	717	San Juan la Laguna	12	San Juan la Laguna	12	Diciembre	2023-10-12T00:00:00	2024-11-08T19:00:00	7	Dirección del viento	4.83
94159	7	Sololá	717	San Juan la Laguna	12	San Juan la Laguna	12	Diciembre	2023-10-12T00:00:00	2024-11-08T19:00:00	1	Precipitación	0
94160	7	Sololá	717	San Juan la Laguna	12	San Juan la Laguna	12	Diciembre	2023-10-12T00:00:00	2024-11-08T19:00:00	8	Radiación solar	0
94161	7	Sololá	717	San Juan la Laguna	12	San Juan la Laguna	12	Diciembre	2023-10-12T00:00:00	2024-11-08T20:00:00	2	Temperatura media	20.9
94162	7	Sololá	717	San Juan la Laguna	12	San Juan la Laguna	12	Diciembre	2023-10-12T00:00:00	2024-11-08T20:00:00	4	Temperatura máxima	20.9
94163	7	Sololá	717	San Juan la Laguna	12	San Juan la Laguna	12	Diciembre	2023-10-12T00:00:00	2024-11-08T20:00:00	3	Temperatura mínima	17.9
94164	7	Sololá	717	San Juan la Laguna	12	San Juan la Laguna	12	Diciembre	2023-10-12T00:00:00	2024-11-08T20:00:00	5	Humedad	67
94165	7	Sololá	717	San Juan la Laguna	12	San Juan la Laguna	12	Diciembre	2023-10-12T00:00:00	2024-11-08T20:00:00	6	Velocidad del viento	4.8
94166	7	Sololá	717	San Juan la Laguna	12	San Juan la Laguna	12	Diciembre	2023-10-12T00:00:00	2024-11-08T20:00:00	7	Dirección del viento	4.83
94167	7	Sololá	717	San Juan la Laguna	12	San Juan la Laguna	12	Diciembre	2023-10-12T00:00:00	2024-11-08T20:00:00	1	Precipitación	0
94168	7	Sololá	717	San Juan la Laguna	12	San Juan la Laguna	12	Diciembre	2023-10-12T00:00:00	2024-11-08T20:00:00	8	Radiación solar	0
94169	7	Sololá	717	San Juan la Laguna	12	San Juan la Laguna	12	Diciembre	2023-10-12T00:00:00	2024-11-08T21:00:00	2	Temperatura media	18.4
94170	7	Sololá	717	San Juan la Laguna	12	San Juan la Laguna	12	Diciembre	2023-10-12T00:00:00	2024-11-08T21:00:00	4	Temperatura máxima	18.6
94171	7	Sololá	717	San Juan la Laguna	12	San Juan la Laguna	12	Diciembre	2023-10-12T00:00:00	2024-11-08T21:00:00	3	Temperatura mínima	18.2
94172	7	Sololá	717	San Juan la Laguna	12	San Juan la Laguna	12	Diciembre	2023-10-12T00:00:00	2024-11-08T21:00:00	5	Humedad	85
94173	7	Sololá	717	San Juan la Laguna	12	San Juan la Laguna	12	Diciembre	2023-10-12T00:00:00	2024-11-08T21:00:00	6	Velocidad del viento	0
94174	7	Sololá	717	San Juan la Laguna	12	San Juan la Laguna	12	Diciembre	2023-10-12T00:00:00	2024-11-08T21:00:00	7	Dirección del viento	3.22
94175	7	Sololá	717	San Juan la Laguna	12	San Juan la Laguna	12	Diciembre	2023-10-12T00:00:00	2024-11-08T21:00:00	1	Precipitación	0
94176	7	Sololá	717	San Juan la Laguna	12	San Juan la Laguna	12	Diciembre	2023-10-12T00:00:00	2024-11-08T21:00:00	8	Radiación solar	0
94177	7	Sololá	717	San Juan la Laguna	12	San Juan la Laguna	12	Diciembre	2023-10-12T00:00:00	2024-11-08T22:00:00	2	Temperatura media	17.3
94178	7	Sololá	717	San Juan la Laguna	12	San Juan la Laguna	12	Diciembre	2023-10-12T00:00:00	2024-11-08T22:00:00	4	Temperatura máxima	18.4
94179	7	Sololá	717	San Juan la Laguna	12	San Juan la Laguna	12	Diciembre	2023-10-12T00:00:00	2024-11-08T22:00:00	3	Temperatura mínima	17.3
94180	7	Sololá	717	San Juan la Laguna	12	San Juan la Laguna	12	Diciembre	2023-10-12T00:00:00	2024-11-08T22:00:00	5	Humedad	87
94181	7	Sololá	717	San Juan la Laguna	12	San Juan la Laguna	12	Diciembre	2023-10-12T00:00:00	2024-11-08T22:00:00	6	Velocidad del viento	0
94182	7	Sololá	717	San Juan la Laguna	12	San Juan la Laguna	12	Diciembre	2023-10-12T00:00:00	2024-11-08T22:00:00	7	Dirección del viento	4.83
94183	7	Sololá	717	San Juan la Laguna	12	San Juan la Laguna	12	Diciembre	2023-10-12T00:00:00	2024-11-08T22:00:00	1	Precipitación	0
94184	7	Sololá	717	San Juan la Laguna	12	San Juan la Laguna	12	Diciembre	2023-10-12T00:00:00	2024-11-08T22:00:00	8	Radiación solar	0
94185	7	Sololá	717	San Juan la Laguna	12	San Juan la Laguna	12	Diciembre	2023-10-12T00:00:00	2024-11-08T23:00:00	2	Temperatura media	17.1
94186	7	Sololá	717	San Juan la Laguna	12	San Juan la Laguna	12	Diciembre	2023-10-12T00:00:00	2024-11-08T23:00:00	4	Temperatura máxima	17.3
94187	7	Sololá	717	San Juan la Laguna	12	San Juan la Laguna	12	Diciembre	2023-10-12T00:00:00	2024-11-08T23:00:00	3	Temperatura mínima	17
94188	7	Sololá	717	San Juan la Laguna	12	San Juan la Laguna	12	Diciembre	2023-10-12T00:00:00	2024-11-08T23:00:00	5	Humedad	86
94189	7	Sololá	717	San Juan la Laguna	12	San Juan la Laguna	12	Diciembre	2023-10-12T00:00:00	2024-11-08T23:00:00	6	Velocidad del viento	0
94190	7	Sololá	717	San Juan la Laguna	12	San Juan la Laguna	12	Diciembre	2023-10-12T00:00:00	2024-11-08T23:00:00	7	Dirección del viento	4.83
94191	7	Sololá	717	San Juan la Laguna	12	San Juan la Laguna	12	Diciembre	2023-10-12T00:00:00	2024-11-08T23:00:00	1	Precipitación	0
94192	7	Sololá	717	San Juan la Laguna	12	San Juan la Laguna	12	Diciembre	2023-10-12T00:00:00	2024-11-08T23:00:00	8	Radiación solar	0
94193	7	Sololá	717	San Juan la Laguna	12	San Juan la Laguna	12	Diciembre	2023-11-12T00:00:00	2024-11-08T00:00:00	2	Temperatura media	16.8
94194	7	Sololá	717	San Juan la Laguna	12	San Juan la Laguna	12	Diciembre	2023-11-12T00:00:00	2024-11-08T00:00:00	4	Temperatura máxima	17.3
94195	7	Sololá	717	San Juan la Laguna	12	San Juan la Laguna	12	Diciembre	2023-11-12T00:00:00	2024-11-08T00:00:00	3	Temperatura mínima	16.8
94196	7	Sololá	717	San Juan la Laguna	12	San Juan la Laguna	12	Diciembre	2023-11-12T00:00:00	2024-11-08T00:00:00	5	Humedad	86
94197	7	Sololá	717	San Juan la Laguna	12	San Juan la Laguna	12	Diciembre	2023-11-12T00:00:00	2024-11-08T00:00:00	6	Velocidad del viento	0
94198	7	Sololá	717	San Juan la Laguna	12	San Juan la Laguna	12	Diciembre	2023-11-12T00:00:00	2024-11-08T00:00:00	7	Dirección del viento	6.44
94199	7	Sololá	717	San Juan la Laguna	12	San Juan la Laguna	12	Diciembre	2023-11-12T00:00:00	2024-11-08T00:00:00	1	Precipitación	0
94200	7	Sololá	717	San Juan la Laguna	12	San Juan la Laguna	12	Diciembre	2023-11-12T00:00:00	2024-11-08T00:00:00	8	Radiación solar	0
94201	7	Sololá	717	San Juan la Laguna	12	San Juan la Laguna	12	Diciembre	2023-11-12T00:00:00	2024-11-08T01:00:00	2	Temperatura media	16.4
94202	7	Sololá	717	San Juan la Laguna	12	San Juan la Laguna	12	Diciembre	2023-11-12T00:00:00	2024-11-08T01:00:00	4	Temperatura máxima	17.1
94203	7	Sololá	717	San Juan la Laguna	12	San Juan la Laguna	12	Diciembre	2023-11-12T00:00:00	2024-11-08T01:00:00	3	Temperatura mínima	16.4
94204	7	Sololá	717	San Juan la Laguna	12	San Juan la Laguna	12	Diciembre	2023-11-12T00:00:00	2024-11-08T01:00:00	5	Humedad	85
94205	7	Sololá	717	San Juan la Laguna	12	San Juan la Laguna	12	Diciembre	2023-11-12T00:00:00	2024-11-08T01:00:00	6	Velocidad del viento	0
94206	7	Sololá	717	San Juan la Laguna	12	San Juan la Laguna	12	Diciembre	2023-11-12T00:00:00	2024-11-08T01:00:00	7	Dirección del viento	6.44
94207	7	Sololá	717	San Juan la Laguna	12	San Juan la Laguna	12	Diciembre	2023-11-12T00:00:00	2024-11-08T01:00:00	1	Precipitación	0
94208	7	Sololá	717	San Juan la Laguna	12	San Juan la Laguna	12	Diciembre	2023-11-12T00:00:00	2024-11-08T01:00:00	8	Radiación solar	0
94209	7	Sololá	717	San Juan la Laguna	12	San Juan la Laguna	12	Diciembre	2023-11-12T00:00:00	2024-11-08T02:00:00	2	Temperatura media	18
94210	7	Sololá	717	San Juan la Laguna	12	San Juan la Laguna	12	Diciembre	2023-11-12T00:00:00	2024-11-08T02:00:00	4	Temperatura máxima	18.1
94211	7	Sololá	717	San Juan la Laguna	12	San Juan la Laguna	12	Diciembre	2023-11-12T00:00:00	2024-11-08T02:00:00	3	Temperatura mínima	17.8
94212	7	Sololá	717	San Juan la Laguna	12	San Juan la Laguna	12	Diciembre	2023-11-12T00:00:00	2024-11-08T02:00:00	5	Humedad	75
94213	7	Sololá	717	San Juan la Laguna	12	San Juan la Laguna	12	Diciembre	2023-11-12T00:00:00	2024-11-08T02:00:00	6	Velocidad del viento	4.8
94214	7	Sololá	717	San Juan la Laguna	12	San Juan la Laguna	12	Diciembre	2023-11-12T00:00:00	2024-11-08T02:00:00	7	Dirección del viento	4.83
94215	7	Sololá	717	San Juan la Laguna	12	San Juan la Laguna	12	Diciembre	2023-11-12T00:00:00	2024-11-08T02:00:00	1	Precipitación	0
94216	7	Sololá	717	San Juan la Laguna	12	San Juan la Laguna	12	Diciembre	2023-11-12T00:00:00	2024-11-08T02:00:00	8	Radiación solar	0
94217	7	Sololá	717	San Juan la Laguna	12	San Juan la Laguna	12	Diciembre	2023-11-12T00:00:00	2024-11-08T03:00:00	2	Temperatura media	18.3
94218	7	Sololá	717	San Juan la Laguna	12	San Juan la Laguna	12	Diciembre	2023-11-12T00:00:00	2024-11-08T03:00:00	4	Temperatura máxima	18.7
94219	7	Sololá	717	San Juan la Laguna	12	San Juan la Laguna	12	Diciembre	2023-11-12T00:00:00	2024-11-08T03:00:00	3	Temperatura mínima	17.7
94220	7	Sololá	717	San Juan la Laguna	12	San Juan la Laguna	12	Diciembre	2023-11-12T00:00:00	2024-11-08T03:00:00	5	Humedad	74
94221	7	Sololá	717	San Juan la Laguna	12	San Juan la Laguna	12	Diciembre	2023-11-12T00:00:00	2024-11-08T03:00:00	6	Velocidad del viento	4.8
94222	7	Sololá	717	San Juan la Laguna	12	San Juan la Laguna	12	Diciembre	2023-11-12T00:00:00	2024-11-08T03:00:00	7	Dirección del viento	4.83
94223	7	Sololá	717	San Juan la Laguna	12	San Juan la Laguna	12	Diciembre	2023-11-12T00:00:00	2024-11-08T03:00:00	1	Precipitación	0
94224	7	Sololá	717	San Juan la Laguna	12	San Juan la Laguna	12	Diciembre	2023-11-12T00:00:00	2024-11-08T03:00:00	8	Radiación solar	0
94225	7	Sololá	717	San Juan la Laguna	12	San Juan la Laguna	12	Diciembre	2023-11-12T00:00:00	2024-11-08T04:00:00	2	Temperatura media	18.6
94226	7	Sololá	717	San Juan la Laguna	12	San Juan la Laguna	12	Diciembre	2023-11-12T00:00:00	2024-11-08T04:00:00	4	Temperatura máxima	18.6
94227	7	Sololá	717	San Juan la Laguna	12	San Juan la Laguna	12	Diciembre	2023-11-12T00:00:00	2024-11-08T04:00:00	3	Temperatura mínima	17.4
94228	7	Sololá	717	San Juan la Laguna	12	San Juan la Laguna	12	Diciembre	2023-11-12T00:00:00	2024-11-08T04:00:00	5	Humedad	75
94229	7	Sololá	717	San Juan la Laguna	12	San Juan la Laguna	12	Diciembre	2023-11-12T00:00:00	2024-11-08T04:00:00	6	Velocidad del viento	4.8
94230	7	Sololá	717	San Juan la Laguna	12	San Juan la Laguna	12	Diciembre	2023-11-12T00:00:00	2024-11-08T04:00:00	7	Dirección del viento	4.83
94231	7	Sololá	717	San Juan la Laguna	12	San Juan la Laguna	12	Diciembre	2023-11-12T00:00:00	2024-11-08T04:00:00	1	Precipitación	0
94232	7	Sololá	717	San Juan la Laguna	12	San Juan la Laguna	12	Diciembre	2023-11-12T00:00:00	2024-11-08T04:00:00	8	Radiación solar	0
94233	7	Sololá	717	San Juan la Laguna	12	San Juan la Laguna	12	Diciembre	2023-11-12T00:00:00	2024-11-08T05:00:00	2	Temperatura media	18.3
94234	7	Sololá	717	San Juan la Laguna	12	San Juan la Laguna	12	Diciembre	2023-11-12T00:00:00	2024-11-08T05:00:00	4	Temperatura máxima	18.9
94235	7	Sololá	717	San Juan la Laguna	12	San Juan la Laguna	12	Diciembre	2023-11-12T00:00:00	2024-11-08T05:00:00	3	Temperatura mínima	17.3
94236	7	Sololá	717	San Juan la Laguna	12	San Juan la Laguna	12	Diciembre	2023-11-12T00:00:00	2024-11-08T05:00:00	5	Humedad	74
94237	7	Sololá	717	San Juan la Laguna	12	San Juan la Laguna	12	Diciembre	2023-11-12T00:00:00	2024-11-08T05:00:00	6	Velocidad del viento	4.8
94238	7	Sololá	717	San Juan la Laguna	12	San Juan la Laguna	12	Diciembre	2023-11-12T00:00:00	2024-11-08T05:00:00	7	Dirección del viento	4.83
94239	7	Sololá	717	San Juan la Laguna	12	San Juan la Laguna	12	Diciembre	2023-11-12T00:00:00	2024-11-08T05:00:00	1	Precipitación	0
94240	7	Sololá	717	San Juan la Laguna	12	San Juan la Laguna	12	Diciembre	2023-11-12T00:00:00	2024-11-08T05:00:00	8	Radiación solar	0
94241	7	Sololá	717	San Juan la Laguna	12	San Juan la Laguna	12	Diciembre	2023-11-12T00:00:00	2024-11-08T06:00:00	2	Temperatura media	19.6
94242	7	Sololá	717	San Juan la Laguna	12	San Juan la Laguna	12	Diciembre	2023-11-12T00:00:00	2024-11-08T06:00:00	4	Temperatura máxima	19.8
94243	7	Sololá	717	San Juan la Laguna	12	San Juan la Laguna	12	Diciembre	2023-11-12T00:00:00	2024-11-08T06:00:00	3	Temperatura mínima	18.3
94244	7	Sololá	717	San Juan la Laguna	12	San Juan la Laguna	12	Diciembre	2023-11-12T00:00:00	2024-11-08T06:00:00	5	Humedad	66
94245	7	Sololá	717	San Juan la Laguna	12	San Juan la Laguna	12	Diciembre	2023-11-12T00:00:00	2024-11-08T06:00:00	6	Velocidad del viento	16.1
94246	7	Sololá	717	San Juan la Laguna	12	San Juan la Laguna	12	Diciembre	2023-11-12T00:00:00	2024-11-08T06:00:00	7	Dirección del viento	16.09
94247	7	Sololá	717	San Juan la Laguna	12	San Juan la Laguna	12	Diciembre	2023-11-12T00:00:00	2024-11-08T06:00:00	1	Precipitación	0
94248	7	Sololá	717	San Juan la Laguna	12	San Juan la Laguna	12	Diciembre	2023-11-12T00:00:00	2024-11-08T06:00:00	8	Radiación solar	0
94249	7	Sololá	717	San Juan la Laguna	12	San Juan la Laguna	12	Diciembre	2023-11-12T00:00:00	2024-11-08T07:00:00	2	Temperatura media	19.8
94250	7	Sololá	717	San Juan la Laguna	12	San Juan la Laguna	12	Diciembre	2023-11-12T00:00:00	2024-11-08T07:00:00	4	Temperatura máxima	19.8
94251	7	Sololá	717	San Juan la Laguna	12	San Juan la Laguna	12	Diciembre	2023-11-12T00:00:00	2024-11-08T07:00:00	3	Temperatura mínima	19.2
94252	7	Sololá	717	San Juan la Laguna	12	San Juan la Laguna	12	Diciembre	2023-11-12T00:00:00	2024-11-08T07:00:00	5	Humedad	65
94253	7	Sololá	717	San Juan la Laguna	12	San Juan la Laguna	12	Diciembre	2023-11-12T00:00:00	2024-11-08T07:00:00	6	Velocidad del viento	17.7
94254	7	Sololá	717	San Juan la Laguna	12	San Juan la Laguna	12	Diciembre	2023-11-12T00:00:00	2024-11-08T07:00:00	7	Dirección del viento	17.7
94255	7	Sololá	717	San Juan la Laguna	12	San Juan la Laguna	12	Diciembre	2023-11-12T00:00:00	2024-11-08T07:00:00	1	Precipitación	0
94256	7	Sololá	717	San Juan la Laguna	12	San Juan la Laguna	12	Diciembre	2023-11-12T00:00:00	2024-11-08T07:00:00	8	Radiación solar	11
94257	7	Sololá	717	San Juan la Laguna	12	San Juan la Laguna	12	Diciembre	2023-11-12T00:00:00	2024-11-08T08:00:00	2	Temperatura media	20.4
94258	7	Sololá	717	San Juan la Laguna	12	San Juan la Laguna	12	Diciembre	2023-11-12T00:00:00	2024-11-08T08:00:00	4	Temperatura máxima	20.5
94259	7	Sololá	717	San Juan la Laguna	12	San Juan la Laguna	12	Diciembre	2023-11-12T00:00:00	2024-11-08T08:00:00	3	Temperatura mínima	19.8
94260	7	Sololá	717	San Juan la Laguna	12	San Juan la Laguna	12	Diciembre	2023-11-12T00:00:00	2024-11-08T08:00:00	5	Humedad	63
94261	7	Sololá	717	San Juan la Laguna	12	San Juan la Laguna	12	Diciembre	2023-11-12T00:00:00	2024-11-08T08:00:00	6	Velocidad del viento	17.7
94262	7	Sololá	717	San Juan la Laguna	12	San Juan la Laguna	12	Diciembre	2023-11-12T00:00:00	2024-11-08T08:00:00	7	Dirección del viento	17.7
94263	7	Sololá	717	San Juan la Laguna	12	San Juan la Laguna	12	Diciembre	2023-11-12T00:00:00	2024-11-08T08:00:00	1	Precipitación	0
94264	7	Sololá	717	San Juan la Laguna	12	San Juan la Laguna	12	Diciembre	2023-11-12T00:00:00	2024-11-08T08:00:00	8	Radiación solar	150
94265	7	Sololá	717	San Juan la Laguna	12	San Juan la Laguna	12	Diciembre	2023-11-12T00:00:00	2024-11-08T09:00:00	2	Temperatura media	21.1
94266	7	Sololá	717	San Juan la Laguna	12	San Juan la Laguna	12	Diciembre	2023-11-12T00:00:00	2024-11-08T09:00:00	4	Temperatura máxima	21.2
94267	7	Sololá	717	San Juan la Laguna	12	San Juan la Laguna	12	Diciembre	2023-11-12T00:00:00	2024-11-08T09:00:00	3	Temperatura mínima	20.4
94268	7	Sololá	717	San Juan la Laguna	12	San Juan la Laguna	12	Diciembre	2023-11-12T00:00:00	2024-11-08T09:00:00	5	Humedad	62
94269	7	Sololá	717	San Juan la Laguna	12	San Juan la Laguna	12	Diciembre	2023-11-12T00:00:00	2024-11-08T09:00:00	6	Velocidad del viento	16.1
94270	7	Sololá	717	San Juan la Laguna	12	San Juan la Laguna	12	Diciembre	2023-11-12T00:00:00	2024-11-08T09:00:00	7	Dirección del viento	16.09
94271	7	Sololá	717	San Juan la Laguna	12	San Juan la Laguna	12	Diciembre	2023-11-12T00:00:00	2024-11-08T09:00:00	1	Precipitación	0
94272	7	Sololá	717	San Juan la Laguna	12	San Juan la Laguna	12	Diciembre	2023-11-12T00:00:00	2024-11-08T09:00:00	8	Radiación solar	373
94273	7	Sololá	717	San Juan la Laguna	12	San Juan la Laguna	12	Diciembre	2023-11-12T00:00:00	2024-11-08T10:00:00	2	Temperatura media	22
94274	7	Sololá	717	San Juan la Laguna	12	San Juan la Laguna	12	Diciembre	2023-11-12T00:00:00	2024-11-08T10:00:00	4	Temperatura máxima	22
94275	7	Sololá	717	San Juan la Laguna	12	San Juan la Laguna	12	Diciembre	2023-11-12T00:00:00	2024-11-08T10:00:00	3	Temperatura mínima	21.1
94276	7	Sololá	717	San Juan la Laguna	12	San Juan la Laguna	12	Diciembre	2023-11-12T00:00:00	2024-11-08T10:00:00	5	Humedad	60
94277	7	Sololá	717	San Juan la Laguna	12	San Juan la Laguna	12	Diciembre	2023-11-12T00:00:00	2024-11-08T10:00:00	6	Velocidad del viento	16.1
94278	7	Sololá	717	San Juan la Laguna	12	San Juan la Laguna	12	Diciembre	2023-11-12T00:00:00	2024-11-08T10:00:00	7	Dirección del viento	16.09
94279	7	Sololá	717	San Juan la Laguna	12	San Juan la Laguna	12	Diciembre	2023-11-12T00:00:00	2024-11-08T10:00:00	1	Precipitación	0
94280	7	Sololá	717	San Juan la Laguna	12	San Juan la Laguna	12	Diciembre	2023-11-12T00:00:00	2024-11-08T10:00:00	8	Radiación solar	544
94281	7	Sololá	717	San Juan la Laguna	12	San Juan la Laguna	12	Diciembre	2023-11-12T00:00:00	2024-11-08T11:00:00	2	Temperatura media	22.5
94282	7	Sololá	717	San Juan la Laguna	12	San Juan la Laguna	12	Diciembre	2023-11-12T00:00:00	2024-11-08T11:00:00	4	Temperatura máxima	22.8
94283	7	Sololá	717	San Juan la Laguna	12	San Juan la Laguna	12	Diciembre	2023-11-12T00:00:00	2024-11-08T11:00:00	3	Temperatura mínima	21.8
94284	7	Sololá	717	San Juan la Laguna	12	San Juan la Laguna	12	Diciembre	2023-11-12T00:00:00	2024-11-08T11:00:00	5	Humedad	57
94285	7	Sololá	717	San Juan la Laguna	12	San Juan la Laguna	12	Diciembre	2023-11-12T00:00:00	2024-11-08T11:00:00	6	Velocidad del viento	16.1
94286	7	Sololá	717	San Juan la Laguna	12	San Juan la Laguna	12	Diciembre	2023-11-12T00:00:00	2024-11-08T11:00:00	7	Dirección del viento	16.09
94287	7	Sololá	717	San Juan la Laguna	12	San Juan la Laguna	12	Diciembre	2023-11-12T00:00:00	2024-11-08T11:00:00	1	Precipitación	0
94288	7	Sololá	717	San Juan la Laguna	12	San Juan la Laguna	12	Diciembre	2023-11-12T00:00:00	2024-11-08T11:00:00	8	Radiación solar	573
94289	7	Sololá	717	San Juan la Laguna	12	San Juan la Laguna	12	Diciembre	2023-11-12T00:00:00	2024-11-08T12:00:00	2	Temperatura media	22.8
94290	7	Sololá	717	San Juan la Laguna	12	San Juan la Laguna	12	Diciembre	2023-11-12T00:00:00	2024-11-08T12:00:00	4	Temperatura máxima	23.3
94291	7	Sololá	717	San Juan la Laguna	12	San Juan la Laguna	12	Diciembre	2023-11-12T00:00:00	2024-11-08T12:00:00	3	Temperatura mínima	22.1
94292	7	Sololá	717	San Juan la Laguna	12	San Juan la Laguna	12	Diciembre	2023-11-12T00:00:00	2024-11-08T12:00:00	5	Humedad	57
94293	7	Sololá	717	San Juan la Laguna	12	San Juan la Laguna	12	Diciembre	2023-11-12T00:00:00	2024-11-08T12:00:00	6	Velocidad del viento	16.1
94294	7	Sololá	717	San Juan la Laguna	12	San Juan la Laguna	12	Diciembre	2023-11-12T00:00:00	2024-11-08T12:00:00	7	Dirección del viento	16.09
94295	7	Sololá	717	San Juan la Laguna	12	San Juan la Laguna	12	Diciembre	2023-11-12T00:00:00	2024-11-08T12:00:00	1	Precipitación	0
94296	7	Sololá	717	San Juan la Laguna	12	San Juan la Laguna	12	Diciembre	2023-11-12T00:00:00	2024-11-08T12:00:00	8	Radiación solar	740
94297	7	Sololá	717	San Juan la Laguna	12	San Juan la Laguna	12	Diciembre	2023-11-12T00:00:00	2024-11-08T13:00:00	2	Temperatura media	22.3
94298	7	Sololá	717	San Juan la Laguna	12	San Juan la Laguna	12	Diciembre	2023-11-12T00:00:00	2024-11-08T13:00:00	4	Temperatura máxima	23.1
94299	7	Sololá	717	San Juan la Laguna	12	San Juan la Laguna	12	Diciembre	2023-11-12T00:00:00	2024-11-08T13:00:00	3	Temperatura mínima	22.3
94300	7	Sololá	717	San Juan la Laguna	12	San Juan la Laguna	12	Diciembre	2023-11-12T00:00:00	2024-11-08T13:00:00	5	Humedad	58
94301	7	Sololá	717	San Juan la Laguna	12	San Juan la Laguna	12	Diciembre	2023-11-12T00:00:00	2024-11-08T13:00:00	6	Velocidad del viento	16.1
94302	7	Sololá	717	San Juan la Laguna	12	San Juan la Laguna	12	Diciembre	2023-11-12T00:00:00	2024-11-08T13:00:00	7	Dirección del viento	16.09
94303	7	Sololá	717	San Juan la Laguna	12	San Juan la Laguna	12	Diciembre	2023-11-12T00:00:00	2024-11-08T13:00:00	1	Precipitación	0
94304	7	Sololá	717	San Juan la Laguna	12	San Juan la Laguna	12	Diciembre	2023-11-12T00:00:00	2024-11-08T13:00:00	8	Radiación solar	631
94305	7	Sololá	717	San Juan la Laguna	12	San Juan la Laguna	12	Diciembre	2023-11-12T00:00:00	2024-11-08T14:00:00	2	Temperatura media	21.8
94306	7	Sololá	717	San Juan la Laguna	12	San Juan la Laguna	12	Diciembre	2023-11-12T00:00:00	2024-11-08T14:00:00	4	Temperatura máxima	22.4
94307	7	Sololá	717	San Juan la Laguna	12	San Juan la Laguna	12	Diciembre	2023-11-12T00:00:00	2024-11-08T14:00:00	3	Temperatura mínima	21.7
94308	7	Sololá	717	San Juan la Laguna	12	San Juan la Laguna	12	Diciembre	2023-11-12T00:00:00	2024-11-08T14:00:00	5	Humedad	59
94309	7	Sololá	717	San Juan la Laguna	12	San Juan la Laguna	12	Diciembre	2023-11-12T00:00:00	2024-11-08T14:00:00	6	Velocidad del viento	16.1
94310	7	Sololá	717	San Juan la Laguna	12	San Juan la Laguna	12	Diciembre	2023-11-12T00:00:00	2024-11-08T14:00:00	7	Dirección del viento	16.09
94311	7	Sololá	717	San Juan la Laguna	12	San Juan la Laguna	12	Diciembre	2023-11-12T00:00:00	2024-11-08T14:00:00	1	Precipitación	0
94312	7	Sololá	717	San Juan la Laguna	12	San Juan la Laguna	12	Diciembre	2023-11-12T00:00:00	2024-11-08T14:00:00	8	Radiación solar	291
94313	7	Sololá	717	San Juan la Laguna	12	San Juan la Laguna	12	Diciembre	2023-11-12T00:00:00	2024-11-08T15:00:00	2	Temperatura media	22.3
94314	7	Sololá	717	San Juan la Laguna	12	San Juan la Laguna	12	Diciembre	2023-11-12T00:00:00	2024-11-08T15:00:00	4	Temperatura máxima	22.8
94315	7	Sololá	717	San Juan la Laguna	12	San Juan la Laguna	12	Diciembre	2023-11-12T00:00:00	2024-11-08T15:00:00	3	Temperatura mínima	21.6
94316	7	Sololá	717	San Juan la Laguna	12	San Juan la Laguna	12	Diciembre	2023-11-12T00:00:00	2024-11-08T15:00:00	5	Humedad	55
94317	7	Sololá	717	San Juan la Laguna	12	San Juan la Laguna	12	Diciembre	2023-11-12T00:00:00	2024-11-08T15:00:00	6	Velocidad del viento	14.5
94318	7	Sololá	717	San Juan la Laguna	12	San Juan la Laguna	12	Diciembre	2023-11-12T00:00:00	2024-11-08T15:00:00	7	Dirección del viento	14.48
94319	7	Sololá	717	San Juan la Laguna	12	San Juan la Laguna	12	Diciembre	2023-11-12T00:00:00	2024-11-08T15:00:00	1	Precipitación	0
94320	7	Sololá	717	San Juan la Laguna	12	San Juan la Laguna	12	Diciembre	2023-11-12T00:00:00	2024-11-08T15:00:00	8	Radiación solar	435
94321	7	Sololá	717	San Juan la Laguna	12	San Juan la Laguna	12	Diciembre	2023-11-12T00:00:00	2024-11-08T16:00:00	2	Temperatura media	21.5
94322	7	Sololá	717	San Juan la Laguna	12	San Juan la Laguna	12	Diciembre	2023-11-12T00:00:00	2024-11-08T16:00:00	4	Temperatura máxima	22.4
94323	7	Sololá	717	San Juan la Laguna	12	San Juan la Laguna	12	Diciembre	2023-11-12T00:00:00	2024-11-08T16:00:00	3	Temperatura mínima	21.5
94324	7	Sololá	717	San Juan la Laguna	12	San Juan la Laguna	12	Diciembre	2023-11-12T00:00:00	2024-11-08T16:00:00	5	Humedad	57
94325	7	Sololá	717	San Juan la Laguna	12	San Juan la Laguna	12	Diciembre	2023-11-12T00:00:00	2024-11-08T16:00:00	6	Velocidad del viento	12.9
94326	7	Sololá	717	San Juan la Laguna	12	San Juan la Laguna	12	Diciembre	2023-11-12T00:00:00	2024-11-08T16:00:00	7	Dirección del viento	12.87
94327	7	Sololá	717	San Juan la Laguna	12	San Juan la Laguna	12	Diciembre	2023-11-12T00:00:00	2024-11-08T16:00:00	1	Precipitación	0
94328	7	Sololá	717	San Juan la Laguna	12	San Juan la Laguna	12	Diciembre	2023-11-12T00:00:00	2024-11-08T16:00:00	8	Radiación solar	297
94329	7	Sololá	717	San Juan la Laguna	12	San Juan la Laguna	12	Diciembre	2023-11-12T00:00:00	2024-11-08T17:00:00	2	Temperatura media	20.3
94330	7	Sololá	717	San Juan la Laguna	12	San Juan la Laguna	12	Diciembre	2023-11-12T00:00:00	2024-11-08T17:00:00	4	Temperatura máxima	21.5
94331	7	Sololá	717	San Juan la Laguna	12	San Juan la Laguna	12	Diciembre	2023-11-12T00:00:00	2024-11-08T17:00:00	3	Temperatura mínima	20.3
94332	7	Sololá	717	San Juan la Laguna	12	San Juan la Laguna	12	Diciembre	2023-11-12T00:00:00	2024-11-08T17:00:00	5	Humedad	61
94333	7	Sololá	717	San Juan la Laguna	12	San Juan la Laguna	12	Diciembre	2023-11-12T00:00:00	2024-11-08T17:00:00	6	Velocidad del viento	14.5
94334	7	Sololá	717	San Juan la Laguna	12	San Juan la Laguna	12	Diciembre	2023-11-12T00:00:00	2024-11-08T17:00:00	7	Dirección del viento	14.48
94335	7	Sololá	717	San Juan la Laguna	12	San Juan la Laguna	12	Diciembre	2023-11-12T00:00:00	2024-11-08T17:00:00	1	Precipitación	0
94336	7	Sololá	717	San Juan la Laguna	12	San Juan la Laguna	12	Diciembre	2023-11-12T00:00:00	2024-11-08T17:00:00	8	Radiación solar	78
94337	7	Sololá	717	San Juan la Laguna	12	San Juan la Laguna	12	Diciembre	2023-11-12T00:00:00	2024-11-08T18:00:00	2	Temperatura media	19.5
94338	7	Sololá	717	San Juan la Laguna	12	San Juan la Laguna	12	Diciembre	2023-11-12T00:00:00	2024-11-08T18:00:00	4	Temperatura máxima	20.3
94339	7	Sololá	717	San Juan la Laguna	12	San Juan la Laguna	12	Diciembre	2023-11-12T00:00:00	2024-11-08T18:00:00	3	Temperatura mínima	19.4
94340	7	Sololá	717	San Juan la Laguna	12	San Juan la Laguna	12	Diciembre	2023-11-12T00:00:00	2024-11-08T18:00:00	5	Humedad	62
94341	7	Sololá	717	San Juan la Laguna	12	San Juan la Laguna	12	Diciembre	2023-11-12T00:00:00	2024-11-08T18:00:00	6	Velocidad del viento	11.3
94342	7	Sololá	717	San Juan la Laguna	12	San Juan la Laguna	12	Diciembre	2023-11-12T00:00:00	2024-11-08T18:00:00	7	Dirección del viento	11.27
94343	7	Sololá	717	San Juan la Laguna	12	San Juan la Laguna	12	Diciembre	2023-11-12T00:00:00	2024-11-08T18:00:00	1	Precipitación	0
94344	7	Sololá	717	San Juan la Laguna	12	San Juan la Laguna	12	Diciembre	2023-11-12T00:00:00	2024-11-08T18:00:00	8	Radiación solar	9
94345	7	Sololá	717	San Juan la Laguna	12	San Juan la Laguna	12	Diciembre	2023-11-12T00:00:00	2024-11-08T19:00:00	2	Temperatura media	19.1
94346	7	Sololá	717	San Juan la Laguna	12	San Juan la Laguna	12	Diciembre	2023-11-12T00:00:00	2024-11-08T19:00:00	4	Temperatura máxima	19.5
94347	7	Sololá	717	San Juan la Laguna	12	San Juan la Laguna	12	Diciembre	2023-11-12T00:00:00	2024-11-08T19:00:00	3	Temperatura mínima	18.9
94348	7	Sololá	717	San Juan la Laguna	12	San Juan la Laguna	12	Diciembre	2023-11-12T00:00:00	2024-11-08T19:00:00	5	Humedad	63
94349	7	Sololá	717	San Juan la Laguna	12	San Juan la Laguna	12	Diciembre	2023-11-12T00:00:00	2024-11-08T19:00:00	6	Velocidad del viento	19.3
94350	7	Sololá	717	San Juan la Laguna	12	San Juan la Laguna	12	Diciembre	2023-11-12T00:00:00	2024-11-08T19:00:00	7	Dirección del viento	19.31
94351	7	Sololá	717	San Juan la Laguna	12	San Juan la Laguna	12	Diciembre	2023-11-12T00:00:00	2024-11-08T19:00:00	1	Precipitación	0
94352	7	Sololá	717	San Juan la Laguna	12	San Juan la Laguna	12	Diciembre	2023-11-12T00:00:00	2024-11-08T19:00:00	8	Radiación solar	0
94353	7	Sololá	717	San Juan la Laguna	12	San Juan la Laguna	12	Diciembre	2023-11-12T00:00:00	2024-11-08T20:00:00	2	Temperatura media	19.1
94354	7	Sololá	717	San Juan la Laguna	12	San Juan la Laguna	12	Diciembre	2023-11-12T00:00:00	2024-11-08T20:00:00	4	Temperatura máxima	19.3
94355	7	Sololá	717	San Juan la Laguna	12	San Juan la Laguna	12	Diciembre	2023-11-12T00:00:00	2024-11-08T20:00:00	3	Temperatura mínima	18.9
94356	7	Sololá	717	San Juan la Laguna	12	San Juan la Laguna	12	Diciembre	2023-11-12T00:00:00	2024-11-08T20:00:00	5	Humedad	63
94357	7	Sololá	717	San Juan la Laguna	12	San Juan la Laguna	12	Diciembre	2023-11-12T00:00:00	2024-11-08T20:00:00	6	Velocidad del viento	19.3
94358	7	Sololá	717	San Juan la Laguna	12	San Juan la Laguna	12	Diciembre	2023-11-12T00:00:00	2024-11-08T20:00:00	7	Dirección del viento	19.31
94359	7	Sololá	717	San Juan la Laguna	12	San Juan la Laguna	12	Diciembre	2023-11-12T00:00:00	2024-11-08T20:00:00	1	Precipitación	0
94360	7	Sololá	717	San Juan la Laguna	12	San Juan la Laguna	12	Diciembre	2023-11-12T00:00:00	2024-11-08T20:00:00	8	Radiación solar	0
94361	7	Sololá	717	San Juan la Laguna	12	San Juan la Laguna	12	Diciembre	2023-11-12T00:00:00	2024-11-08T21:00:00	2	Temperatura media	18.8
94362	7	Sololá	717	San Juan la Laguna	12	San Juan la Laguna	12	Diciembre	2023-11-12T00:00:00	2024-11-08T21:00:00	4	Temperatura máxima	19.1
94363	7	Sololá	717	San Juan la Laguna	12	San Juan la Laguna	12	Diciembre	2023-11-12T00:00:00	2024-11-08T21:00:00	3	Temperatura mínima	18.8
94364	7	Sololá	717	San Juan la Laguna	12	San Juan la Laguna	12	Diciembre	2023-11-12T00:00:00	2024-11-08T21:00:00	5	Humedad	66
94365	7	Sololá	717	San Juan la Laguna	12	San Juan la Laguna	12	Diciembre	2023-11-12T00:00:00	2024-11-08T21:00:00	6	Velocidad del viento	16.1
94366	7	Sololá	717	San Juan la Laguna	12	San Juan la Laguna	12	Diciembre	2023-11-12T00:00:00	2024-11-08T21:00:00	7	Dirección del viento	16.09
94367	7	Sololá	717	San Juan la Laguna	12	San Juan la Laguna	12	Diciembre	2023-11-12T00:00:00	2024-11-08T21:00:00	1	Precipitación	0
94368	7	Sololá	717	San Juan la Laguna	12	San Juan la Laguna	12	Diciembre	2023-11-12T00:00:00	2024-11-08T21:00:00	8	Radiación solar	0
94369	7	Sololá	717	San Juan la Laguna	12	San Juan la Laguna	12	Diciembre	2023-11-12T00:00:00	2024-11-08T22:00:00	2	Temperatura media	18.9
94370	7	Sololá	717	San Juan la Laguna	12	San Juan la Laguna	12	Diciembre	2023-11-12T00:00:00	2024-11-08T22:00:00	4	Temperatura máxima	19.4
94371	7	Sololá	717	San Juan la Laguna	12	San Juan la Laguna	12	Diciembre	2023-11-12T00:00:00	2024-11-08T22:00:00	3	Temperatura mínima	18.8
94372	7	Sololá	717	San Juan la Laguna	12	San Juan la Laguna	12	Diciembre	2023-11-12T00:00:00	2024-11-08T22:00:00	5	Humedad	65
94373	7	Sololá	717	San Juan la Laguna	12	San Juan la Laguna	12	Diciembre	2023-11-12T00:00:00	2024-11-08T22:00:00	6	Velocidad del viento	16.1
94374	7	Sololá	717	San Juan la Laguna	12	San Juan la Laguna	12	Diciembre	2023-11-12T00:00:00	2024-11-08T22:00:00	7	Dirección del viento	16.09
94375	7	Sololá	717	San Juan la Laguna	12	San Juan la Laguna	12	Diciembre	2023-11-12T00:00:00	2024-11-08T22:00:00	1	Precipitación	0
94376	7	Sololá	717	San Juan la Laguna	12	San Juan la Laguna	12	Diciembre	2023-11-12T00:00:00	2024-11-08T22:00:00	8	Radiación solar	0
94377	7	Sololá	717	San Juan la Laguna	12	San Juan la Laguna	12	Diciembre	2023-11-12T00:00:00	2024-11-08T23:00:00	2	Temperatura media	19.2
94378	7	Sololá	717	San Juan la Laguna	12	San Juan la Laguna	12	Diciembre	2023-11-12T00:00:00	2024-11-08T23:00:00	4	Temperatura máxima	19.2
94379	7	Sololá	717	San Juan la Laguna	12	San Juan la Laguna	12	Diciembre	2023-11-12T00:00:00	2024-11-08T23:00:00	3	Temperatura mínima	18.9
94380	7	Sololá	717	San Juan la Laguna	12	San Juan la Laguna	12	Diciembre	2023-11-12T00:00:00	2024-11-08T23:00:00	5	Humedad	65
94381	7	Sololá	717	San Juan la Laguna	12	San Juan la Laguna	12	Diciembre	2023-11-12T00:00:00	2024-11-08T23:00:00	6	Velocidad del viento	12.9
94382	7	Sololá	717	San Juan la Laguna	12	San Juan la Laguna	12	Diciembre	2023-11-12T00:00:00	2024-11-08T23:00:00	7	Dirección del viento	12.87
94383	7	Sololá	717	San Juan la Laguna	12	San Juan la Laguna	12	Diciembre	2023-11-12T00:00:00	2024-11-08T23:00:00	1	Precipitación	0
94384	7	Sololá	717	San Juan la Laguna	12	San Juan la Laguna	12	Diciembre	2023-11-12T00:00:00	2024-11-08T23:00:00	8	Radiación solar	0
94385	7	Sololá	717	San Juan la Laguna	12	San Juan la Laguna	12	Diciembre	2023-12-12T00:00:00	2024-11-08T00:00:00	2	Temperatura media	18.6
94386	7	Sololá	717	San Juan la Laguna	12	San Juan la Laguna	12	Diciembre	2023-12-12T00:00:00	2024-11-08T00:00:00	4	Temperatura máxima	19.2
94387	7	Sololá	717	San Juan la Laguna	12	San Juan la Laguna	12	Diciembre	2023-12-12T00:00:00	2024-11-08T00:00:00	3	Temperatura mínima	18.6
94388	7	Sololá	717	San Juan la Laguna	12	San Juan la Laguna	12	Diciembre	2023-12-12T00:00:00	2024-11-08T00:00:00	5	Humedad	66
94389	7	Sololá	717	San Juan la Laguna	12	San Juan la Laguna	12	Diciembre	2023-12-12T00:00:00	2024-11-08T00:00:00	6	Velocidad del viento	12.9
94390	7	Sololá	717	San Juan la Laguna	12	San Juan la Laguna	12	Diciembre	2023-12-12T00:00:00	2024-11-08T00:00:00	7	Dirección del viento	12.87
94391	7	Sololá	717	San Juan la Laguna	12	San Juan la Laguna	12	Diciembre	2023-12-12T00:00:00	2024-11-08T00:00:00	1	Precipitación	0
94392	7	Sololá	717	San Juan la Laguna	12	San Juan la Laguna	12	Diciembre	2023-12-12T00:00:00	2024-11-08T00:00:00	8	Radiación solar	0
94393	7	Sololá	717	San Juan la Laguna	12	San Juan la Laguna	12	Diciembre	2023-12-12T00:00:00	2024-11-08T01:00:00	2	Temperatura media	18.4
94394	7	Sololá	717	San Juan la Laguna	12	San Juan la Laguna	12	Diciembre	2023-12-12T00:00:00	2024-11-08T01:00:00	4	Temperatura máxima	18.9
94395	7	Sololá	717	San Juan la Laguna	12	San Juan la Laguna	12	Diciembre	2023-12-12T00:00:00	2024-11-08T01:00:00	3	Temperatura mínima	18.4
94396	7	Sololá	717	San Juan la Laguna	12	San Juan la Laguna	12	Diciembre	2023-12-12T00:00:00	2024-11-08T01:00:00	5	Humedad	66
94397	7	Sololá	717	San Juan la Laguna	12	San Juan la Laguna	12	Diciembre	2023-12-12T00:00:00	2024-11-08T01:00:00	6	Velocidad del viento	16.1
94398	7	Sololá	717	San Juan la Laguna	12	San Juan la Laguna	12	Diciembre	2023-12-12T00:00:00	2024-11-08T01:00:00	7	Dirección del viento	16.09
94399	7	Sololá	717	San Juan la Laguna	12	San Juan la Laguna	12	Diciembre	2023-12-12T00:00:00	2024-11-08T01:00:00	1	Precipitación	0
94400	7	Sololá	717	San Juan la Laguna	12	San Juan la Laguna	12	Diciembre	2023-12-12T00:00:00	2024-11-08T01:00:00	8	Radiación solar	0
94401	7	Sololá	717	San Juan la Laguna	12	San Juan la Laguna	12	Diciembre	2023-12-12T00:00:00	2024-11-08T02:00:00	2	Temperatura media	18.7
94402	7	Sololá	717	San Juan la Laguna	12	San Juan la Laguna	12	Diciembre	2023-12-12T00:00:00	2024-11-08T02:00:00	4	Temperatura máxima	18.7
94403	7	Sololá	717	San Juan la Laguna	12	San Juan la Laguna	12	Diciembre	2023-12-12T00:00:00	2024-11-08T02:00:00	3	Temperatura mínima	18.2
94404	7	Sololá	717	San Juan la Laguna	12	San Juan la Laguna	12	Diciembre	2023-12-12T00:00:00	2024-11-08T02:00:00	5	Humedad	64
94405	7	Sololá	717	San Juan la Laguna	12	San Juan la Laguna	12	Diciembre	2023-12-12T00:00:00	2024-11-08T02:00:00	6	Velocidad del viento	12.9
94406	7	Sololá	717	San Juan la Laguna	12	San Juan la Laguna	12	Diciembre	2023-12-12T00:00:00	2024-11-08T02:00:00	7	Dirección del viento	12.87
94407	7	Sololá	717	San Juan la Laguna	12	San Juan la Laguna	12	Diciembre	2023-12-12T00:00:00	2024-11-08T02:00:00	1	Precipitación	0
94408	7	Sololá	717	San Juan la Laguna	12	San Juan la Laguna	12	Diciembre	2023-12-12T00:00:00	2024-11-08T02:00:00	8	Radiación solar	0
94409	7	Sololá	717	San Juan la Laguna	12	San Juan la Laguna	12	Diciembre	2023-12-12T00:00:00	2024-11-08T03:00:00	2	Temperatura media	18.7
94410	7	Sololá	717	San Juan la Laguna	12	San Juan la Laguna	12	Diciembre	2023-12-12T00:00:00	2024-11-08T03:00:00	4	Temperatura máxima	18.7
94411	7	Sololá	717	San Juan la Laguna	12	San Juan la Laguna	12	Diciembre	2023-12-12T00:00:00	2024-11-08T03:00:00	3	Temperatura mínima	18.4
94412	7	Sololá	717	San Juan la Laguna	12	San Juan la Laguna	12	Diciembre	2023-12-12T00:00:00	2024-11-08T03:00:00	5	Humedad	65
94413	7	Sololá	717	San Juan la Laguna	12	San Juan la Laguna	12	Diciembre	2023-12-12T00:00:00	2024-11-08T03:00:00	6	Velocidad del viento	12.9
94414	7	Sololá	717	San Juan la Laguna	12	San Juan la Laguna	12	Diciembre	2023-12-12T00:00:00	2024-11-08T03:00:00	7	Dirección del viento	12.87
94415	7	Sololá	717	San Juan la Laguna	12	San Juan la Laguna	12	Diciembre	2023-12-12T00:00:00	2024-11-08T03:00:00	1	Precipitación	0
94416	7	Sololá	717	San Juan la Laguna	12	San Juan la Laguna	12	Diciembre	2023-12-12T00:00:00	2024-11-08T03:00:00	8	Radiación solar	0
94417	7	Sololá	717	San Juan la Laguna	12	San Juan la Laguna	12	Diciembre	2023-12-12T00:00:00	2024-11-08T04:00:00	2	Temperatura media	18.6
94418	7	Sololá	717	San Juan la Laguna	12	San Juan la Laguna	12	Diciembre	2023-12-12T00:00:00	2024-11-08T04:00:00	4	Temperatura máxima	18.8
94419	7	Sololá	717	San Juan la Laguna	12	San Juan la Laguna	12	Diciembre	2023-12-12T00:00:00	2024-11-08T04:00:00	3	Temperatura mínima	18.6
94420	7	Sololá	717	San Juan la Laguna	12	San Juan la Laguna	12	Diciembre	2023-12-12T00:00:00	2024-11-08T04:00:00	5	Humedad	64
94421	7	Sololá	717	San Juan la Laguna	12	San Juan la Laguna	12	Diciembre	2023-12-12T00:00:00	2024-11-08T04:00:00	6	Velocidad del viento	11.3
94422	7	Sololá	717	San Juan la Laguna	12	San Juan la Laguna	12	Diciembre	2023-12-12T00:00:00	2024-11-08T04:00:00	7	Dirección del viento	11.27
94423	7	Sololá	717	San Juan la Laguna	12	San Juan la Laguna	12	Diciembre	2023-12-12T00:00:00	2024-11-08T04:00:00	1	Precipitación	0
94424	7	Sololá	717	San Juan la Laguna	12	San Juan la Laguna	12	Diciembre	2023-12-12T00:00:00	2024-11-08T04:00:00	8	Radiación solar	0
94425	7	Sololá	717	San Juan la Laguna	12	San Juan la Laguna	12	Diciembre	2023-12-12T00:00:00	2024-11-08T05:00:00	2	Temperatura media	18.7
94426	7	Sololá	717	San Juan la Laguna	12	San Juan la Laguna	12	Diciembre	2023-12-12T00:00:00	2024-11-08T05:00:00	4	Temperatura máxima	18.8
94427	7	Sololá	717	San Juan la Laguna	12	San Juan la Laguna	12	Diciembre	2023-12-12T00:00:00	2024-11-08T05:00:00	3	Temperatura mínima	18.5
94428	7	Sololá	717	San Juan la Laguna	12	San Juan la Laguna	12	Diciembre	2023-12-12T00:00:00	2024-11-08T05:00:00	5	Humedad	65
94429	7	Sololá	717	San Juan la Laguna	12	San Juan la Laguna	12	Diciembre	2023-12-12T00:00:00	2024-11-08T05:00:00	6	Velocidad del viento	11.3
94430	7	Sololá	717	San Juan la Laguna	12	San Juan la Laguna	12	Diciembre	2023-12-12T00:00:00	2024-11-08T05:00:00	7	Dirección del viento	11.27
94431	7	Sololá	717	San Juan la Laguna	12	San Juan la Laguna	12	Diciembre	2023-12-12T00:00:00	2024-11-08T05:00:00	1	Precipitación	0
94432	7	Sololá	717	San Juan la Laguna	12	San Juan la Laguna	12	Diciembre	2023-12-12T00:00:00	2024-11-08T05:00:00	8	Radiación solar	0
94433	7	Sololá	717	San Juan la Laguna	12	San Juan la Laguna	12	Diciembre	2023-12-12T00:00:00	2024-11-08T06:00:00	2	Temperatura media	18.6
94434	7	Sololá	717	San Juan la Laguna	12	San Juan la Laguna	12	Diciembre	2023-12-12T00:00:00	2024-11-08T06:00:00	4	Temperatura máxima	18.7
94435	7	Sololá	717	San Juan la Laguna	12	San Juan la Laguna	12	Diciembre	2023-12-12T00:00:00	2024-11-08T06:00:00	3	Temperatura mínima	18.3
94436	7	Sololá	717	San Juan la Laguna	12	San Juan la Laguna	12	Diciembre	2023-12-12T00:00:00	2024-11-08T06:00:00	5	Humedad	65
94437	7	Sololá	717	San Juan la Laguna	12	San Juan la Laguna	12	Diciembre	2023-12-12T00:00:00	2024-11-08T06:00:00	6	Velocidad del viento	11.3
94438	7	Sololá	717	San Juan la Laguna	12	San Juan la Laguna	12	Diciembre	2023-12-12T00:00:00	2024-11-08T06:00:00	7	Dirección del viento	11.27
94439	7	Sololá	717	San Juan la Laguna	12	San Juan la Laguna	12	Diciembre	2023-12-12T00:00:00	2024-11-08T06:00:00	1	Precipitación	0
94440	7	Sololá	717	San Juan la Laguna	12	San Juan la Laguna	12	Diciembre	2023-12-12T00:00:00	2024-11-08T06:00:00	8	Radiación solar	0
94441	7	Sololá	717	San Juan la Laguna	12	San Juan la Laguna	12	Diciembre	2023-12-12T00:00:00	2024-11-08T07:00:00	2	Temperatura media	18.7
94442	7	Sololá	717	San Juan la Laguna	12	San Juan la Laguna	12	Diciembre	2023-12-12T00:00:00	2024-11-08T07:00:00	4	Temperatura máxima	18.7
94443	7	Sololá	717	San Juan la Laguna	12	San Juan la Laguna	12	Diciembre	2023-12-12T00:00:00	2024-11-08T07:00:00	3	Temperatura mínima	18.3
94444	7	Sololá	717	San Juan la Laguna	12	San Juan la Laguna	12	Diciembre	2023-12-12T00:00:00	2024-11-08T07:00:00	5	Humedad	65
94445	7	Sololá	717	San Juan la Laguna	12	San Juan la Laguna	12	Diciembre	2023-12-12T00:00:00	2024-11-08T07:00:00	6	Velocidad del viento	11.3
94446	7	Sololá	717	San Juan la Laguna	12	San Juan la Laguna	12	Diciembre	2023-12-12T00:00:00	2024-11-08T07:00:00	7	Dirección del viento	11.27
94447	7	Sololá	717	San Juan la Laguna	12	San Juan la Laguna	12	Diciembre	2023-12-12T00:00:00	2024-11-08T07:00:00	1	Precipitación	0
94448	7	Sololá	717	San Juan la Laguna	12	San Juan la Laguna	12	Diciembre	2023-12-12T00:00:00	2024-11-08T07:00:00	8	Radiación solar	10
94449	7	Sololá	717	San Juan la Laguna	12	San Juan la Laguna	12	Diciembre	2023-12-12T00:00:00	2024-11-08T08:00:00	2	Temperatura media	20.1
94450	7	Sololá	717	San Juan la Laguna	12	San Juan la Laguna	12	Diciembre	2023-12-12T00:00:00	2024-11-08T08:00:00	4	Temperatura máxima	20.1
94451	7	Sololá	717	San Juan la Laguna	12	San Juan la Laguna	12	Diciembre	2023-12-12T00:00:00	2024-11-08T08:00:00	3	Temperatura mínima	18.7
94452	7	Sololá	717	San Juan la Laguna	12	San Juan la Laguna	12	Diciembre	2023-12-12T00:00:00	2024-11-08T08:00:00	5	Humedad	62
94453	7	Sololá	717	San Juan la Laguna	12	San Juan la Laguna	12	Diciembre	2023-12-12T00:00:00	2024-11-08T08:00:00	6	Velocidad del viento	11.3
94454	7	Sololá	717	San Juan la Laguna	12	San Juan la Laguna	12	Diciembre	2023-12-12T00:00:00	2024-11-08T08:00:00	7	Dirección del viento	11.27
94455	7	Sololá	717	San Juan la Laguna	12	San Juan la Laguna	12	Diciembre	2023-12-12T00:00:00	2024-11-08T08:00:00	1	Precipitación	0
94456	7	Sololá	717	San Juan la Laguna	12	San Juan la Laguna	12	Diciembre	2023-12-12T00:00:00	2024-11-08T08:00:00	8	Radiación solar	143
94457	7	Sololá	717	San Juan la Laguna	12	San Juan la Laguna	12	Diciembre	2023-12-12T00:00:00	2024-11-08T09:00:00	2	Temperatura media	21.2
94458	7	Sololá	717	San Juan la Laguna	12	San Juan la Laguna	12	Diciembre	2023-12-12T00:00:00	2024-11-08T09:00:00	4	Temperatura máxima	21.2
94459	7	Sololá	717	San Juan la Laguna	12	San Juan la Laguna	12	Diciembre	2023-12-12T00:00:00	2024-11-08T09:00:00	3	Temperatura mínima	20.1
94460	7	Sololá	717	San Juan la Laguna	12	San Juan la Laguna	12	Diciembre	2023-12-12T00:00:00	2024-11-08T09:00:00	5	Humedad	60
94461	7	Sololá	717	San Juan la Laguna	12	San Juan la Laguna	12	Diciembre	2023-12-12T00:00:00	2024-11-08T09:00:00	6	Velocidad del viento	16.1
94462	7	Sololá	717	San Juan la Laguna	12	San Juan la Laguna	12	Diciembre	2023-12-12T00:00:00	2024-11-08T09:00:00	7	Dirección del viento	16.09
94463	7	Sololá	717	San Juan la Laguna	12	San Juan la Laguna	12	Diciembre	2023-12-12T00:00:00	2024-11-08T09:00:00	1	Precipitación	0
94464	7	Sololá	717	San Juan la Laguna	12	San Juan la Laguna	12	Diciembre	2023-12-12T00:00:00	2024-11-08T09:00:00	8	Radiación solar	364
94465	7	Sololá	717	San Juan la Laguna	12	San Juan la Laguna	12	Diciembre	2023-12-12T00:00:00	2024-11-08T10:00:00	2	Temperatura media	22.3
94466	7	Sololá	717	San Juan la Laguna	12	San Juan la Laguna	12	Diciembre	2023-12-12T00:00:00	2024-11-08T10:00:00	4	Temperatura máxima	22.3
94467	7	Sololá	717	San Juan la Laguna	12	San Juan la Laguna	12	Diciembre	2023-12-12T00:00:00	2024-11-08T10:00:00	3	Temperatura mínima	21.2
94468	7	Sololá	717	San Juan la Laguna	12	San Juan la Laguna	12	Diciembre	2023-12-12T00:00:00	2024-11-08T10:00:00	5	Humedad	56
94469	7	Sololá	717	San Juan la Laguna	12	San Juan la Laguna	12	Diciembre	2023-12-12T00:00:00	2024-11-08T10:00:00	6	Velocidad del viento	16.1
94470	7	Sololá	717	San Juan la Laguna	12	San Juan la Laguna	12	Diciembre	2023-12-12T00:00:00	2024-11-08T10:00:00	7	Dirección del viento	16.09
94471	7	Sololá	717	San Juan la Laguna	12	San Juan la Laguna	12	Diciembre	2023-12-12T00:00:00	2024-11-08T10:00:00	1	Precipitación	0
94472	7	Sololá	717	San Juan la Laguna	12	San Juan la Laguna	12	Diciembre	2023-12-12T00:00:00	2024-11-08T10:00:00	8	Radiación solar	536
94473	7	Sololá	717	San Juan la Laguna	12	San Juan la Laguna	12	Diciembre	2023-12-12T00:00:00	2024-11-08T11:00:00	2	Temperatura media	23.3
94474	7	Sololá	717	San Juan la Laguna	12	San Juan la Laguna	12	Diciembre	2023-12-12T00:00:00	2024-11-08T11:00:00	4	Temperatura máxima	23.4
94475	7	Sololá	717	San Juan la Laguna	12	San Juan la Laguna	12	Diciembre	2023-12-12T00:00:00	2024-11-08T11:00:00	3	Temperatura mínima	22.3
94476	7	Sololá	717	San Juan la Laguna	12	San Juan la Laguna	12	Diciembre	2023-12-12T00:00:00	2024-11-08T11:00:00	5	Humedad	54
94477	7	Sololá	717	San Juan la Laguna	12	San Juan la Laguna	12	Diciembre	2023-12-12T00:00:00	2024-11-08T11:00:00	6	Velocidad del viento	16.1
94478	7	Sololá	717	San Juan la Laguna	12	San Juan la Laguna	12	Diciembre	2023-12-12T00:00:00	2024-11-08T11:00:00	7	Dirección del viento	16.09
94479	7	Sololá	717	San Juan la Laguna	12	San Juan la Laguna	12	Diciembre	2023-12-12T00:00:00	2024-11-08T11:00:00	1	Precipitación	0
94480	7	Sololá	717	San Juan la Laguna	12	San Juan la Laguna	12	Diciembre	2023-12-12T00:00:00	2024-11-08T11:00:00	8	Radiación solar	568
94481	7	Sololá	717	San Juan la Laguna	12	San Juan la Laguna	12	Diciembre	2023-12-12T00:00:00	2024-11-08T12:00:00	2	Temperatura media	24.2
94482	7	Sololá	717	San Juan la Laguna	12	San Juan la Laguna	12	Diciembre	2023-12-12T00:00:00	2024-11-08T12:00:00	4	Temperatura máxima	24.2
94483	7	Sololá	717	San Juan la Laguna	12	San Juan la Laguna	12	Diciembre	2023-12-12T00:00:00	2024-11-08T12:00:00	3	Temperatura mínima	23.3
94484	7	Sololá	717	San Juan la Laguna	12	San Juan la Laguna	12	Diciembre	2023-12-12T00:00:00	2024-11-08T12:00:00	5	Humedad	52
94485	7	Sololá	717	San Juan la Laguna	12	San Juan la Laguna	12	Diciembre	2023-12-12T00:00:00	2024-11-08T12:00:00	6	Velocidad del viento	14.5
94486	7	Sololá	717	San Juan la Laguna	12	San Juan la Laguna	12	Diciembre	2023-12-12T00:00:00	2024-11-08T12:00:00	7	Dirección del viento	14.48
94487	7	Sololá	717	San Juan la Laguna	12	San Juan la Laguna	12	Diciembre	2023-12-12T00:00:00	2024-11-08T12:00:00	1	Precipitación	0
94488	7	Sololá	717	San Juan la Laguna	12	San Juan la Laguna	12	Diciembre	2023-12-12T00:00:00	2024-11-08T12:00:00	8	Radiación solar	703
94489	7	Sololá	717	San Juan la Laguna	12	San Juan la Laguna	12	Diciembre	2023-12-12T00:00:00	2024-11-08T13:00:00	2	Temperatura media	24.4
94490	7	Sololá	717	San Juan la Laguna	12	San Juan la Laguna	12	Diciembre	2023-12-12T00:00:00	2024-11-08T13:00:00	4	Temperatura máxima	24.7
94491	7	Sololá	717	San Juan la Laguna	12	San Juan la Laguna	12	Diciembre	2023-12-12T00:00:00	2024-11-08T13:00:00	3	Temperatura mínima	24.1
94492	7	Sololá	717	San Juan la Laguna	12	San Juan la Laguna	12	Diciembre	2023-12-12T00:00:00	2024-11-08T13:00:00	5	Humedad	52
94493	7	Sololá	717	San Juan la Laguna	12	San Juan la Laguna	12	Diciembre	2023-12-12T00:00:00	2024-11-08T13:00:00	6	Velocidad del viento	12.9
94494	7	Sololá	717	San Juan la Laguna	12	San Juan la Laguna	12	Diciembre	2023-12-12T00:00:00	2024-11-08T13:00:00	7	Dirección del viento	12.87
94495	7	Sololá	717	San Juan la Laguna	12	San Juan la Laguna	12	Diciembre	2023-12-12T00:00:00	2024-11-08T13:00:00	1	Precipitación	0
94496	7	Sololá	717	San Juan la Laguna	12	San Juan la Laguna	12	Diciembre	2023-12-12T00:00:00	2024-11-08T13:00:00	8	Radiación solar	704
94497	7	Sololá	717	San Juan la Laguna	12	San Juan la Laguna	12	Diciembre	2023-12-12T00:00:00	2024-11-08T14:00:00	2	Temperatura media	24.3
94498	7	Sololá	717	San Juan la Laguna	12	San Juan la Laguna	12	Diciembre	2023-12-12T00:00:00	2024-11-08T14:00:00	4	Temperatura máxima	24.8
94499	7	Sololá	717	San Juan la Laguna	12	San Juan la Laguna	12	Diciembre	2023-12-12T00:00:00	2024-11-08T14:00:00	3	Temperatura mínima	24.2
94500	7	Sololá	717	San Juan la Laguna	12	San Juan la Laguna	12	Diciembre	2023-12-12T00:00:00	2024-11-08T14:00:00	5	Humedad	53
94501	7	Sololá	717	San Juan la Laguna	12	San Juan la Laguna	12	Diciembre	2023-12-12T00:00:00	2024-11-08T14:00:00	6	Velocidad del viento	14.5
94502	7	Sololá	717	San Juan la Laguna	12	San Juan la Laguna	12	Diciembre	2023-12-12T00:00:00	2024-11-08T14:00:00	7	Dirección del viento	14.48
94503	7	Sololá	717	San Juan la Laguna	12	San Juan la Laguna	12	Diciembre	2023-12-12T00:00:00	2024-11-08T14:00:00	1	Precipitación	0
94504	7	Sololá	717	San Juan la Laguna	12	San Juan la Laguna	12	Diciembre	2023-12-12T00:00:00	2024-11-08T14:00:00	8	Radiación solar	683
94505	7	Sololá	717	San Juan la Laguna	12	San Juan la Laguna	12	Diciembre	2023-12-12T00:00:00	2024-11-08T15:00:00	2	Temperatura media	24.1
94506	7	Sololá	717	San Juan la Laguna	12	San Juan la Laguna	12	Diciembre	2023-12-12T00:00:00	2024-11-08T15:00:00	4	Temperatura máxima	24.8
94507	7	Sololá	717	San Juan la Laguna	12	San Juan la Laguna	12	Diciembre	2023-12-12T00:00:00	2024-11-08T15:00:00	3	Temperatura mínima	23.9
94508	7	Sololá	717	San Juan la Laguna	12	San Juan la Laguna	12	Diciembre	2023-12-12T00:00:00	2024-11-08T15:00:00	5	Humedad	56
94509	7	Sololá	717	San Juan la Laguna	12	San Juan la Laguna	12	Diciembre	2023-12-12T00:00:00	2024-11-08T15:00:00	6	Velocidad del viento	12.9
94510	7	Sololá	717	San Juan la Laguna	12	San Juan la Laguna	12	Diciembre	2023-12-12T00:00:00	2024-11-08T15:00:00	7	Dirección del viento	12.87
94511	7	Sololá	717	San Juan la Laguna	12	San Juan la Laguna	12	Diciembre	2023-12-12T00:00:00	2024-11-08T15:00:00	1	Precipitación	0
94512	7	Sololá	717	San Juan la Laguna	12	San Juan la Laguna	12	Diciembre	2023-12-12T00:00:00	2024-11-08T15:00:00	8	Radiación solar	571
94513	7	Sololá	717	San Juan la Laguna	12	San Juan la Laguna	12	Diciembre	2023-12-12T00:00:00	2024-11-08T16:00:00	2	Temperatura media	23.2
94514	7	Sololá	717	San Juan la Laguna	12	San Juan la Laguna	12	Diciembre	2023-12-12T00:00:00	2024-11-08T16:00:00	4	Temperatura máxima	24.1
94515	7	Sololá	717	San Juan la Laguna	12	San Juan la Laguna	12	Diciembre	2023-12-12T00:00:00	2024-11-08T16:00:00	3	Temperatura mínima	23.2
94516	7	Sololá	717	San Juan la Laguna	12	San Juan la Laguna	12	Diciembre	2023-12-12T00:00:00	2024-11-08T16:00:00	5	Humedad	58
94517	7	Sololá	717	San Juan la Laguna	12	San Juan la Laguna	12	Diciembre	2023-12-12T00:00:00	2024-11-08T16:00:00	6	Velocidad del viento	14.5
94518	7	Sololá	717	San Juan la Laguna	12	San Juan la Laguna	12	Diciembre	2023-12-12T00:00:00	2024-11-08T16:00:00	7	Dirección del viento	14.48
94519	7	Sololá	717	San Juan la Laguna	12	San Juan la Laguna	12	Diciembre	2023-12-12T00:00:00	2024-11-08T16:00:00	1	Precipitación	0
94520	7	Sololá	717	San Juan la Laguna	12	San Juan la Laguna	12	Diciembre	2023-12-12T00:00:00	2024-11-08T16:00:00	8	Radiación solar	427
94521	7	Sololá	717	San Juan la Laguna	12	San Juan la Laguna	12	Diciembre	2023-12-12T00:00:00	2024-11-08T17:00:00	2	Temperatura media	21.2
94522	7	Sololá	717	San Juan la Laguna	12	San Juan la Laguna	12	Diciembre	2023-12-12T00:00:00	2024-11-08T17:00:00	4	Temperatura máxima	23.3
94523	7	Sololá	717	San Juan la Laguna	12	San Juan la Laguna	12	Diciembre	2023-12-12T00:00:00	2024-11-08T17:00:00	3	Temperatura mínima	21.2
94524	7	Sololá	717	San Juan la Laguna	12	San Juan la Laguna	12	Diciembre	2023-12-12T00:00:00	2024-11-08T17:00:00	5	Humedad	64
94525	7	Sololá	717	San Juan la Laguna	12	San Juan la Laguna	12	Diciembre	2023-12-12T00:00:00	2024-11-08T17:00:00	6	Velocidad del viento	14.5
94526	7	Sololá	717	San Juan la Laguna	12	San Juan la Laguna	12	Diciembre	2023-12-12T00:00:00	2024-11-08T17:00:00	7	Dirección del viento	14.48
94527	7	Sololá	717	San Juan la Laguna	12	San Juan la Laguna	12	Diciembre	2023-12-12T00:00:00	2024-11-08T17:00:00	1	Precipitación	0
94528	7	Sololá	717	San Juan la Laguna	12	San Juan la Laguna	12	Diciembre	2023-12-12T00:00:00	2024-11-08T17:00:00	8	Radiación solar	152
94529	7	Sololá	717	San Juan la Laguna	12	San Juan la Laguna	12	Diciembre	2023-12-12T00:00:00	2024-11-08T18:00:00	2	Temperatura media	20.4
94530	7	Sololá	717	San Juan la Laguna	12	San Juan la Laguna	12	Diciembre	2023-12-12T00:00:00	2024-11-08T18:00:00	4	Temperatura máxima	21.2
94531	7	Sololá	717	San Juan la Laguna	12	San Juan la Laguna	12	Diciembre	2023-12-12T00:00:00	2024-11-08T18:00:00	3	Temperatura mínima	20.3
94532	7	Sololá	717	San Juan la Laguna	12	San Juan la Laguna	12	Diciembre	2023-12-12T00:00:00	2024-11-08T18:00:00	5	Humedad	65
94533	7	Sololá	717	San Juan la Laguna	12	San Juan la Laguna	12	Diciembre	2023-12-12T00:00:00	2024-11-08T18:00:00	6	Velocidad del viento	16.1
94534	7	Sololá	717	San Juan la Laguna	12	San Juan la Laguna	12	Diciembre	2023-12-12T00:00:00	2024-11-08T18:00:00	7	Dirección del viento	16.09
94535	7	Sololá	717	San Juan la Laguna	12	San Juan la Laguna	12	Diciembre	2023-12-12T00:00:00	2024-11-08T18:00:00	1	Precipitación	0
94536	7	Sololá	717	San Juan la Laguna	12	San Juan la Laguna	12	Diciembre	2023-12-12T00:00:00	2024-11-08T18:00:00	8	Radiación solar	17
94537	7	Sololá	717	San Juan la Laguna	12	San Juan la Laguna	12	Diciembre	2023-12-12T00:00:00	2024-11-08T19:00:00	2	Temperatura media	19.6
94538	7	Sololá	717	San Juan la Laguna	12	San Juan la Laguna	12	Diciembre	2023-12-12T00:00:00	2024-11-08T19:00:00	4	Temperatura máxima	20.4
94539	7	Sololá	717	San Juan la Laguna	12	San Juan la Laguna	12	Diciembre	2023-12-12T00:00:00	2024-11-08T19:00:00	3	Temperatura mínima	19.6
94540	7	Sololá	717	San Juan la Laguna	12	San Juan la Laguna	12	Diciembre	2023-12-12T00:00:00	2024-11-08T19:00:00	5	Humedad	68
94541	7	Sololá	717	San Juan la Laguna	12	San Juan la Laguna	12	Diciembre	2023-12-12T00:00:00	2024-11-08T19:00:00	6	Velocidad del viento	19.3
94542	7	Sololá	717	San Juan la Laguna	12	San Juan la Laguna	12	Diciembre	2023-12-12T00:00:00	2024-11-08T19:00:00	7	Dirección del viento	19.31
94543	7	Sololá	717	San Juan la Laguna	12	San Juan la Laguna	12	Diciembre	2023-12-12T00:00:00	2024-11-08T19:00:00	1	Precipitación	0
94544	7	Sololá	717	San Juan la Laguna	12	San Juan la Laguna	12	Diciembre	2023-12-12T00:00:00	2024-11-08T19:00:00	8	Radiación solar	0
94545	7	Sololá	717	San Juan la Laguna	12	San Juan la Laguna	12	Diciembre	2023-12-12T00:00:00	2024-11-08T20:00:00	2	Temperatura media	19.3
94546	7	Sololá	717	San Juan la Laguna	12	San Juan la Laguna	12	Diciembre	2023-12-12T00:00:00	2024-11-08T20:00:00	4	Temperatura máxima	19.6
94547	7	Sololá	717	San Juan la Laguna	12	San Juan la Laguna	12	Diciembre	2023-12-12T00:00:00	2024-11-08T20:00:00	3	Temperatura mínima	19.2
94548	7	Sololá	717	San Juan la Laguna	12	San Juan la Laguna	12	Diciembre	2023-12-12T00:00:00	2024-11-08T20:00:00	5	Humedad	68
94549	7	Sololá	717	San Juan la Laguna	12	San Juan la Laguna	12	Diciembre	2023-12-12T00:00:00	2024-11-08T20:00:00	6	Velocidad del viento	19.3
94550	7	Sololá	717	San Juan la Laguna	12	San Juan la Laguna	12	Diciembre	2023-12-12T00:00:00	2024-11-08T20:00:00	7	Dirección del viento	19.31
94551	7	Sololá	717	San Juan la Laguna	12	San Juan la Laguna	12	Diciembre	2023-12-12T00:00:00	2024-11-08T20:00:00	1	Precipitación	0
94552	7	Sololá	717	San Juan la Laguna	12	San Juan la Laguna	12	Diciembre	2023-12-12T00:00:00	2024-11-08T20:00:00	8	Radiación solar	0
94553	7	Sololá	717	San Juan la Laguna	12	San Juan la Laguna	12	Diciembre	2023-12-12T00:00:00	2024-11-08T21:00:00	2	Temperatura media	19.3
94554	7	Sololá	717	San Juan la Laguna	12	San Juan la Laguna	12	Diciembre	2023-12-12T00:00:00	2024-11-08T21:00:00	4	Temperatura máxima	19.6
94555	7	Sololá	717	San Juan la Laguna	12	San Juan la Laguna	12	Diciembre	2023-12-12T00:00:00	2024-11-08T21:00:00	3	Temperatura mínima	19.2
94556	7	Sololá	717	San Juan la Laguna	12	San Juan la Laguna	12	Diciembre	2023-12-12T00:00:00	2024-11-08T21:00:00	5	Humedad	68
94557	7	Sololá	717	San Juan la Laguna	12	San Juan la Laguna	12	Diciembre	2023-12-12T00:00:00	2024-11-08T21:00:00	6	Velocidad del viento	20.9
94558	7	Sololá	717	San Juan la Laguna	12	San Juan la Laguna	12	Diciembre	2023-12-12T00:00:00	2024-11-08T21:00:00	7	Dirección del viento	20.92
94559	7	Sololá	717	San Juan la Laguna	12	San Juan la Laguna	12	Diciembre	2023-12-12T00:00:00	2024-11-08T21:00:00	1	Precipitación	0
94560	7	Sololá	717	San Juan la Laguna	12	San Juan la Laguna	12	Diciembre	2023-12-12T00:00:00	2024-11-08T21:00:00	8	Radiación solar	0
94561	7	Sololá	717	San Juan la Laguna	12	San Juan la Laguna	12	Diciembre	2023-12-12T00:00:00	2024-11-08T22:00:00	2	Temperatura media	18.8
94562	7	Sololá	717	San Juan la Laguna	12	San Juan la Laguna	12	Diciembre	2023-12-12T00:00:00	2024-11-08T22:00:00	4	Temperatura máxima	19.3
94563	7	Sololá	717	San Juan la Laguna	12	San Juan la Laguna	12	Diciembre	2023-12-12T00:00:00	2024-11-08T22:00:00	3	Temperatura mínima	18.8
94564	7	Sololá	717	San Juan la Laguna	12	San Juan la Laguna	12	Diciembre	2023-12-12T00:00:00	2024-11-08T22:00:00	5	Humedad	70
94565	7	Sololá	717	San Juan la Laguna	12	San Juan la Laguna	12	Diciembre	2023-12-12T00:00:00	2024-11-08T22:00:00	6	Velocidad del viento	20.9
94566	7	Sololá	717	San Juan la Laguna	12	San Juan la Laguna	12	Diciembre	2023-12-12T00:00:00	2024-11-08T22:00:00	7	Dirección del viento	20.92
94567	7	Sololá	717	San Juan la Laguna	12	San Juan la Laguna	12	Diciembre	2023-12-12T00:00:00	2024-11-08T22:00:00	1	Precipitación	0
94568	7	Sololá	717	San Juan la Laguna	12	San Juan la Laguna	12	Diciembre	2023-12-12T00:00:00	2024-11-08T22:00:00	8	Radiación solar	0
94569	7	Sololá	717	San Juan la Laguna	12	San Juan la Laguna	12	Diciembre	2023-12-12T00:00:00	2024-11-08T23:00:00	2	Temperatura media	19.2
94570	7	Sololá	717	San Juan la Laguna	12	San Juan la Laguna	12	Diciembre	2023-12-12T00:00:00	2024-11-08T23:00:00	4	Temperatura máxima	19.2
94571	7	Sololá	717	San Juan la Laguna	12	San Juan la Laguna	12	Diciembre	2023-12-12T00:00:00	2024-11-08T23:00:00	3	Temperatura mínima	18.8
94572	7	Sololá	717	San Juan la Laguna	12	San Juan la Laguna	12	Diciembre	2023-12-12T00:00:00	2024-11-08T23:00:00	5	Humedad	68
94573	7	Sololá	717	San Juan la Laguna	12	San Juan la Laguna	12	Diciembre	2023-12-12T00:00:00	2024-11-08T23:00:00	6	Velocidad del viento	16.1
94574	7	Sololá	717	San Juan la Laguna	12	San Juan la Laguna	12	Diciembre	2023-12-12T00:00:00	2024-11-08T23:00:00	7	Dirección del viento	16.09
94575	7	Sololá	717	San Juan la Laguna	12	San Juan la Laguna	12	Diciembre	2023-12-12T00:00:00	2024-11-08T23:00:00	1	Precipitación	0
94576	7	Sololá	717	San Juan la Laguna	12	San Juan la Laguna	12	Diciembre	2023-12-12T00:00:00	2024-11-08T23:00:00	8	Radiación solar	0
94577	7	Sololá	717	San Juan la Laguna	12	San Juan la Laguna	12	Diciembre	2023-12-13T00:00:00	2024-11-08T00:00:00	2	Temperatura media	19.5
94578	7	Sololá	717	San Juan la Laguna	12	San Juan la Laguna	12	Diciembre	2023-12-13T00:00:00	2024-11-08T00:00:00	4	Temperatura máxima	19.6
94579	7	Sololá	717	San Juan la Laguna	12	San Juan la Laguna	12	Diciembre	2023-12-13T00:00:00	2024-11-08T00:00:00	3	Temperatura mínima	19.2
94580	7	Sololá	717	San Juan la Laguna	12	San Juan la Laguna	12	Diciembre	2023-12-13T00:00:00	2024-11-08T00:00:00	5	Humedad	65
94581	7	Sololá	717	San Juan la Laguna	12	San Juan la Laguna	12	Diciembre	2023-12-13T00:00:00	2024-11-08T00:00:00	6	Velocidad del viento	17.7
94582	7	Sololá	717	San Juan la Laguna	12	San Juan la Laguna	12	Diciembre	2023-12-13T00:00:00	2024-11-08T00:00:00	7	Dirección del viento	17.7
94583	7	Sololá	717	San Juan la Laguna	12	San Juan la Laguna	12	Diciembre	2023-12-13T00:00:00	2024-11-08T00:00:00	1	Precipitación	0
94584	7	Sololá	717	San Juan la Laguna	12	San Juan la Laguna	12	Diciembre	2023-12-13T00:00:00	2024-11-08T00:00:00	8	Radiación solar	0
94585	7	Sololá	717	San Juan la Laguna	12	San Juan la Laguna	12	Diciembre	2023-12-13T00:00:00	2024-11-08T01:00:00	2	Temperatura media	18.9
94586	7	Sololá	717	San Juan la Laguna	12	San Juan la Laguna	12	Diciembre	2023-12-13T00:00:00	2024-11-08T01:00:00	4	Temperatura máxima	19.5
94587	7	Sololá	717	San Juan la Laguna	12	San Juan la Laguna	12	Diciembre	2023-12-13T00:00:00	2024-11-08T01:00:00	3	Temperatura mínima	18.9
94588	7	Sololá	717	San Juan la Laguna	12	San Juan la Laguna	12	Diciembre	2023-12-13T00:00:00	2024-11-08T01:00:00	5	Humedad	68
94589	7	Sololá	717	San Juan la Laguna	12	San Juan la Laguna	12	Diciembre	2023-12-13T00:00:00	2024-11-08T01:00:00	6	Velocidad del viento	19.3
94590	7	Sololá	717	San Juan la Laguna	12	San Juan la Laguna	12	Diciembre	2023-12-13T00:00:00	2024-11-08T01:00:00	7	Dirección del viento	19.31
94591	7	Sololá	717	San Juan la Laguna	12	San Juan la Laguna	12	Diciembre	2023-12-13T00:00:00	2024-11-08T01:00:00	1	Precipitación	0
94592	7	Sololá	717	San Juan la Laguna	12	San Juan la Laguna	12	Diciembre	2023-12-13T00:00:00	2024-11-08T01:00:00	8	Radiación solar	0
94593	7	Sololá	717	San Juan la Laguna	12	San Juan la Laguna	12	Diciembre	2023-12-13T00:00:00	2024-11-08T02:00:00	2	Temperatura media	18.4
94594	7	Sololá	717	San Juan la Laguna	12	San Juan la Laguna	12	Diciembre	2023-12-13T00:00:00	2024-11-08T02:00:00	4	Temperatura máxima	18.9
94595	7	Sololá	717	San Juan la Laguna	12	San Juan la Laguna	12	Diciembre	2023-12-13T00:00:00	2024-11-08T02:00:00	3	Temperatura mínima	18.4
94596	7	Sololá	717	San Juan la Laguna	12	San Juan la Laguna	12	Diciembre	2023-12-13T00:00:00	2024-11-08T02:00:00	5	Humedad	71
94597	7	Sololá	717	San Juan la Laguna	12	San Juan la Laguna	12	Diciembre	2023-12-13T00:00:00	2024-11-08T02:00:00	6	Velocidad del viento	17.7
94598	7	Sololá	717	San Juan la Laguna	12	San Juan la Laguna	12	Diciembre	2023-12-13T00:00:00	2024-11-08T02:00:00	7	Dirección del viento	17.7
94599	7	Sololá	717	San Juan la Laguna	12	San Juan la Laguna	12	Diciembre	2023-12-13T00:00:00	2024-11-08T02:00:00	1	Precipitación	0
94600	7	Sololá	717	San Juan la Laguna	12	San Juan la Laguna	12	Diciembre	2023-12-13T00:00:00	2024-11-08T02:00:00	8	Radiación solar	0
94601	7	Sololá	717	San Juan la Laguna	12	San Juan la Laguna	12	Diciembre	2023-12-13T00:00:00	2024-11-08T03:00:00	2	Temperatura media	18.4
94602	7	Sololá	717	San Juan la Laguna	12	San Juan la Laguna	12	Diciembre	2023-12-13T00:00:00	2024-11-08T03:00:00	4	Temperatura máxima	18.7
94603	7	Sololá	717	San Juan la Laguna	12	San Juan la Laguna	12	Diciembre	2023-12-13T00:00:00	2024-11-08T03:00:00	3	Temperatura mínima	18.4
94604	7	Sololá	717	San Juan la Laguna	12	San Juan la Laguna	12	Diciembre	2023-12-13T00:00:00	2024-11-08T03:00:00	5	Humedad	71
94605	7	Sololá	717	San Juan la Laguna	12	San Juan la Laguna	12	Diciembre	2023-12-13T00:00:00	2024-11-08T03:00:00	6	Velocidad del viento	19.3
94606	7	Sololá	717	San Juan la Laguna	12	San Juan la Laguna	12	Diciembre	2023-12-13T00:00:00	2024-11-08T03:00:00	7	Dirección del viento	19.31
94607	7	Sololá	717	San Juan la Laguna	12	San Juan la Laguna	12	Diciembre	2023-12-13T00:00:00	2024-11-08T03:00:00	1	Precipitación	0
94608	7	Sololá	717	San Juan la Laguna	12	San Juan la Laguna	12	Diciembre	2023-12-13T00:00:00	2024-11-08T03:00:00	8	Radiación solar	0
94609	7	Sololá	717	San Juan la Laguna	12	San Juan la Laguna	12	Diciembre	2023-12-13T00:00:00	2024-11-08T04:00:00	2	Temperatura media	18.1
94610	7	Sololá	717	San Juan la Laguna	12	San Juan la Laguna	12	Diciembre	2023-12-13T00:00:00	2024-11-08T04:00:00	4	Temperatura máxima	18.4
94611	7	Sololá	717	San Juan la Laguna	12	San Juan la Laguna	12	Diciembre	2023-12-13T00:00:00	2024-11-08T04:00:00	3	Temperatura mínima	18.1
94612	7	Sololá	717	San Juan la Laguna	12	San Juan la Laguna	12	Diciembre	2023-12-13T00:00:00	2024-11-08T04:00:00	5	Humedad	72
94613	7	Sololá	717	San Juan la Laguna	12	San Juan la Laguna	12	Diciembre	2023-12-13T00:00:00	2024-11-08T04:00:00	6	Velocidad del viento	17.7
94614	7	Sololá	717	San Juan la Laguna	12	San Juan la Laguna	12	Diciembre	2023-12-13T00:00:00	2024-11-08T04:00:00	7	Dirección del viento	17.7
94615	7	Sololá	717	San Juan la Laguna	12	San Juan la Laguna	12	Diciembre	2023-12-13T00:00:00	2024-11-08T04:00:00	1	Precipitación	0
94616	7	Sololá	717	San Juan la Laguna	12	San Juan la Laguna	12	Diciembre	2023-12-13T00:00:00	2024-11-08T04:00:00	8	Radiación solar	0
94617	7	Sololá	717	San Juan la Laguna	12	San Juan la Laguna	12	Diciembre	2023-12-13T00:00:00	2024-11-08T05:00:00	2	Temperatura media	18.5
94618	7	Sololá	717	San Juan la Laguna	12	San Juan la Laguna	12	Diciembre	2023-12-13T00:00:00	2024-11-08T05:00:00	4	Temperatura máxima	18.5
94619	7	Sololá	717	San Juan la Laguna	12	San Juan la Laguna	12	Diciembre	2023-12-13T00:00:00	2024-11-08T05:00:00	3	Temperatura mínima	18.1
94620	7	Sololá	717	San Juan la Laguna	12	San Juan la Laguna	12	Diciembre	2023-12-13T00:00:00	2024-11-08T05:00:00	5	Humedad	70
94621	7	Sololá	717	San Juan la Laguna	12	San Juan la Laguna	12	Diciembre	2023-12-13T00:00:00	2024-11-08T05:00:00	6	Velocidad del viento	17.7
94622	7	Sololá	717	San Juan la Laguna	12	San Juan la Laguna	12	Diciembre	2023-12-13T00:00:00	2024-11-08T05:00:00	7	Dirección del viento	17.7
94623	7	Sololá	717	San Juan la Laguna	12	San Juan la Laguna	12	Diciembre	2023-12-13T00:00:00	2024-11-08T05:00:00	1	Precipitación	0
94624	7	Sololá	717	San Juan la Laguna	12	San Juan la Laguna	12	Diciembre	2023-12-13T00:00:00	2024-11-08T05:00:00	8	Radiación solar	0
94625	7	Sololá	717	San Juan la Laguna	12	San Juan la Laguna	12	Diciembre	2023-12-13T00:00:00	2024-11-08T06:00:00	2	Temperatura media	18.4
94626	7	Sololá	717	San Juan la Laguna	12	San Juan la Laguna	12	Diciembre	2023-12-13T00:00:00	2024-11-08T06:00:00	4	Temperatura máxima	18.5
94627	7	Sololá	717	San Juan la Laguna	12	San Juan la Laguna	12	Diciembre	2023-12-13T00:00:00	2024-11-08T06:00:00	3	Temperatura mínima	18.1
94628	7	Sololá	717	San Juan la Laguna	12	San Juan la Laguna	12	Diciembre	2023-12-13T00:00:00	2024-11-08T06:00:00	5	Humedad	70
94629	7	Sololá	717	San Juan la Laguna	12	San Juan la Laguna	12	Diciembre	2023-12-13T00:00:00	2024-11-08T06:00:00	6	Velocidad del viento	17.7
94630	7	Sololá	717	San Juan la Laguna	12	San Juan la Laguna	12	Diciembre	2023-12-13T00:00:00	2024-11-08T06:00:00	7	Dirección del viento	17.7
94631	7	Sololá	717	San Juan la Laguna	12	San Juan la Laguna	12	Diciembre	2023-12-13T00:00:00	2024-11-08T06:00:00	1	Precipitación	0
94632	7	Sololá	717	San Juan la Laguna	12	San Juan la Laguna	12	Diciembre	2023-12-13T00:00:00	2024-11-08T06:00:00	8	Radiación solar	0
94633	7	Sololá	717	San Juan la Laguna	12	San Juan la Laguna	12	Diciembre	2023-12-13T00:00:00	2024-11-08T07:00:00	2	Temperatura media	18.8
94634	7	Sololá	717	San Juan la Laguna	12	San Juan la Laguna	12	Diciembre	2023-12-13T00:00:00	2024-11-08T07:00:00	4	Temperatura máxima	18.8
94635	7	Sololá	717	San Juan la Laguna	12	San Juan la Laguna	12	Diciembre	2023-12-13T00:00:00	2024-11-08T07:00:00	3	Temperatura mínima	18.4
94636	7	Sololá	717	San Juan la Laguna	12	San Juan la Laguna	12	Diciembre	2023-12-13T00:00:00	2024-11-08T07:00:00	5	Humedad	68
94637	7	Sololá	717	San Juan la Laguna	12	San Juan la Laguna	12	Diciembre	2023-12-13T00:00:00	2024-11-08T07:00:00	6	Velocidad del viento	17.7
94638	7	Sololá	717	San Juan la Laguna	12	San Juan la Laguna	12	Diciembre	2023-12-13T00:00:00	2024-11-08T07:00:00	7	Dirección del viento	17.7
94639	7	Sololá	717	San Juan la Laguna	12	San Juan la Laguna	12	Diciembre	2023-12-13T00:00:00	2024-11-08T07:00:00	1	Precipitación	0
94640	7	Sololá	717	San Juan la Laguna	12	San Juan la Laguna	12	Diciembre	2023-12-13T00:00:00	2024-11-08T07:00:00	8	Radiación solar	8
94641	7	Sololá	717	San Juan la Laguna	12	San Juan la Laguna	12	Diciembre	2023-12-13T00:00:00	2024-11-08T08:00:00	2	Temperatura media	20.1
94642	7	Sololá	717	San Juan la Laguna	12	San Juan la Laguna	12	Diciembre	2023-12-13T00:00:00	2024-11-08T08:00:00	4	Temperatura máxima	20.1
94643	7	Sololá	717	San Juan la Laguna	12	San Juan la Laguna	12	Diciembre	2023-12-13T00:00:00	2024-11-08T08:00:00	3	Temperatura mínima	18.8
94644	7	Sololá	717	San Juan la Laguna	12	San Juan la Laguna	12	Diciembre	2023-12-13T00:00:00	2024-11-08T08:00:00	5	Humedad	64
94645	7	Sololá	717	San Juan la Laguna	12	San Juan la Laguna	12	Diciembre	2023-12-13T00:00:00	2024-11-08T08:00:00	6	Velocidad del viento	19.3
94646	7	Sololá	717	San Juan la Laguna	12	San Juan la Laguna	12	Diciembre	2023-12-13T00:00:00	2024-11-08T08:00:00	7	Dirección del viento	19.31
94647	7	Sololá	717	San Juan la Laguna	12	San Juan la Laguna	12	Diciembre	2023-12-13T00:00:00	2024-11-08T08:00:00	1	Precipitación	0
94648	7	Sololá	717	San Juan la Laguna	12	San Juan la Laguna	12	Diciembre	2023-12-13T00:00:00	2024-11-08T08:00:00	8	Radiación solar	148
94649	7	Sololá	717	San Juan la Laguna	12	San Juan la Laguna	12	Diciembre	2023-12-13T00:00:00	2024-11-08T09:00:00	2	Temperatura media	20.9
94650	7	Sololá	717	San Juan la Laguna	12	San Juan la Laguna	12	Diciembre	2023-12-13T00:00:00	2024-11-08T09:00:00	4	Temperatura máxima	20.9
94651	7	Sololá	717	San Juan la Laguna	12	San Juan la Laguna	12	Diciembre	2023-12-13T00:00:00	2024-11-08T09:00:00	3	Temperatura mínima	20.2
94652	7	Sololá	717	San Juan la Laguna	12	San Juan la Laguna	12	Diciembre	2023-12-13T00:00:00	2024-11-08T09:00:00	5	Humedad	63
94653	7	Sololá	717	San Juan la Laguna	12	San Juan la Laguna	12	Diciembre	2023-12-13T00:00:00	2024-11-08T09:00:00	6	Velocidad del viento	17.7
94654	7	Sololá	717	San Juan la Laguna	12	San Juan la Laguna	12	Diciembre	2023-12-13T00:00:00	2024-11-08T09:00:00	7	Dirección del viento	17.7
94655	7	Sololá	717	San Juan la Laguna	12	San Juan la Laguna	12	Diciembre	2023-12-13T00:00:00	2024-11-08T09:00:00	1	Precipitación	0
94656	7	Sololá	717	San Juan la Laguna	12	San Juan la Laguna	12	Diciembre	2023-12-13T00:00:00	2024-11-08T09:00:00	8	Radiación solar	367
94657	7	Sololá	717	San Juan la Laguna	12	San Juan la Laguna	12	Diciembre	2023-12-13T00:00:00	2024-11-08T10:00:00	2	Temperatura media	21.1
94658	7	Sololá	717	San Juan la Laguna	12	San Juan la Laguna	12	Diciembre	2023-12-13T00:00:00	2024-11-08T10:00:00	4	Temperatura máxima	21.2
94659	7	Sololá	717	San Juan la Laguna	12	San Juan la Laguna	12	Diciembre	2023-12-13T00:00:00	2024-11-08T10:00:00	3	Temperatura mínima	20.8
94660	7	Sololá	717	San Juan la Laguna	12	San Juan la Laguna	12	Diciembre	2023-12-13T00:00:00	2024-11-08T10:00:00	5	Humedad	63
94661	7	Sololá	717	San Juan la Laguna	12	San Juan la Laguna	12	Diciembre	2023-12-13T00:00:00	2024-11-08T10:00:00	6	Velocidad del viento	19.3
94662	7	Sololá	717	San Juan la Laguna	12	San Juan la Laguna	12	Diciembre	2023-12-13T00:00:00	2024-11-08T10:00:00	7	Dirección del viento	19.31
94663	7	Sololá	717	San Juan la Laguna	12	San Juan la Laguna	12	Diciembre	2023-12-13T00:00:00	2024-11-08T10:00:00	1	Precipitación	0
94664	7	Sololá	717	San Juan la Laguna	12	San Juan la Laguna	12	Diciembre	2023-12-13T00:00:00	2024-11-08T10:00:00	8	Radiación solar	546
94665	7	Sololá	717	San Juan la Laguna	12	San Juan la Laguna	12	Diciembre	2023-12-13T00:00:00	2024-11-08T11:00:00	2	Temperatura media	22.4
94666	7	Sololá	717	San Juan la Laguna	12	San Juan la Laguna	12	Diciembre	2023-12-13T00:00:00	2024-11-08T11:00:00	4	Temperatura máxima	22.4
94667	7	Sololá	717	San Juan la Laguna	12	San Juan la Laguna	12	Diciembre	2023-12-13T00:00:00	2024-11-08T11:00:00	3	Temperatura mínima	21.1
94668	7	Sololá	717	San Juan la Laguna	12	San Juan la Laguna	12	Diciembre	2023-12-13T00:00:00	2024-11-08T11:00:00	5	Humedad	59
94669	7	Sololá	717	San Juan la Laguna	12	San Juan la Laguna	12	Diciembre	2023-12-13T00:00:00	2024-11-08T11:00:00	6	Velocidad del viento	19.3
94670	7	Sololá	717	San Juan la Laguna	12	San Juan la Laguna	12	Diciembre	2023-12-13T00:00:00	2024-11-08T11:00:00	7	Dirección del viento	19.31
94671	7	Sololá	717	San Juan la Laguna	12	San Juan la Laguna	12	Diciembre	2023-12-13T00:00:00	2024-11-08T11:00:00	1	Precipitación	0
94672	7	Sololá	717	San Juan la Laguna	12	San Juan la Laguna	12	Diciembre	2023-12-13T00:00:00	2024-11-08T11:00:00	8	Radiación solar	575
94673	7	Sololá	717	San Juan la Laguna	12	San Juan la Laguna	12	Diciembre	2023-12-13T00:00:00	2024-11-08T12:00:00	2	Temperatura media	22.9
94674	7	Sololá	717	San Juan la Laguna	12	San Juan la Laguna	12	Diciembre	2023-12-13T00:00:00	2024-11-08T12:00:00	4	Temperatura máxima	23
94675	7	Sololá	717	San Juan la Laguna	12	San Juan la Laguna	12	Diciembre	2023-12-13T00:00:00	2024-11-08T12:00:00	3	Temperatura mínima	22.3
94676	7	Sololá	717	San Juan la Laguna	12	San Juan la Laguna	12	Diciembre	2023-12-13T00:00:00	2024-11-08T12:00:00	5	Humedad	58
94677	7	Sololá	717	San Juan la Laguna	12	San Juan la Laguna	12	Diciembre	2023-12-13T00:00:00	2024-11-08T12:00:00	6	Velocidad del viento	19.3
94678	7	Sololá	717	San Juan la Laguna	12	San Juan la Laguna	12	Diciembre	2023-12-13T00:00:00	2024-11-08T12:00:00	7	Dirección del viento	19.31
94679	7	Sololá	717	San Juan la Laguna	12	San Juan la Laguna	12	Diciembre	2023-12-13T00:00:00	2024-11-08T12:00:00	1	Precipitación	0
94680	7	Sololá	717	San Juan la Laguna	12	San Juan la Laguna	12	Diciembre	2023-12-13T00:00:00	2024-11-08T12:00:00	8	Radiación solar	710
94681	7	Sololá	717	San Juan la Laguna	12	San Juan la Laguna	12	Diciembre	2023-12-13T00:00:00	2024-11-08T13:00:00	2	Temperatura media	23.1
94682	7	Sololá	717	San Juan la Laguna	12	San Juan la Laguna	12	Diciembre	2023-12-13T00:00:00	2024-11-08T13:00:00	4	Temperatura máxima	23.3
94683	7	Sololá	717	San Juan la Laguna	12	San Juan la Laguna	12	Diciembre	2023-12-13T00:00:00	2024-11-08T13:00:00	3	Temperatura mínima	22.9
94684	7	Sololá	717	San Juan la Laguna	12	San Juan la Laguna	12	Diciembre	2023-12-13T00:00:00	2024-11-08T13:00:00	5	Humedad	57
94685	7	Sololá	717	San Juan la Laguna	12	San Juan la Laguna	12	Diciembre	2023-12-13T00:00:00	2024-11-08T13:00:00	6	Velocidad del viento	17.7
94686	7	Sololá	717	San Juan la Laguna	12	San Juan la Laguna	12	Diciembre	2023-12-13T00:00:00	2024-11-08T13:00:00	7	Dirección del viento	17.7
94687	7	Sololá	717	San Juan la Laguna	12	San Juan la Laguna	12	Diciembre	2023-12-13T00:00:00	2024-11-08T13:00:00	1	Precipitación	0
94688	7	Sololá	717	San Juan la Laguna	12	San Juan la Laguna	12	Diciembre	2023-12-13T00:00:00	2024-11-08T13:00:00	8	Radiación solar	711
94689	7	Sololá	717	San Juan la Laguna	12	San Juan la Laguna	12	Diciembre	2023-12-13T00:00:00	2024-11-08T14:00:00	2	Temperatura media	23.3
94690	7	Sololá	717	San Juan la Laguna	12	San Juan la Laguna	12	Diciembre	2023-12-13T00:00:00	2024-11-08T14:00:00	4	Temperatura máxima	23.4
94691	7	Sololá	717	San Juan la Laguna	12	San Juan la Laguna	12	Diciembre	2023-12-13T00:00:00	2024-11-08T14:00:00	3	Temperatura mínima	23
94692	7	Sololá	717	San Juan la Laguna	12	San Juan la Laguna	12	Diciembre	2023-12-13T00:00:00	2024-11-08T14:00:00	5	Humedad	56
94693	7	Sololá	717	San Juan la Laguna	12	San Juan la Laguna	12	Diciembre	2023-12-13T00:00:00	2024-11-08T14:00:00	6	Velocidad del viento	17.7
94694	7	Sololá	717	San Juan la Laguna	12	San Juan la Laguna	12	Diciembre	2023-12-13T00:00:00	2024-11-08T14:00:00	7	Dirección del viento	17.7
94695	7	Sololá	717	San Juan la Laguna	12	San Juan la Laguna	12	Diciembre	2023-12-13T00:00:00	2024-11-08T14:00:00	1	Precipitación	0
94696	7	Sololá	717	San Juan la Laguna	12	San Juan la Laguna	12	Diciembre	2023-12-13T00:00:00	2024-11-08T14:00:00	8	Radiación solar	682
94697	7	Sololá	717	San Juan la Laguna	12	San Juan la Laguna	12	Diciembre	2023-12-13T00:00:00	2024-11-08T15:00:00	2	Temperatura media	22.6
94698	7	Sololá	717	San Juan la Laguna	12	San Juan la Laguna	12	Diciembre	2023-12-13T00:00:00	2024-11-08T15:00:00	4	Temperatura máxima	23.4
94699	7	Sololá	717	San Juan la Laguna	12	San Juan la Laguna	12	Diciembre	2023-12-13T00:00:00	2024-11-08T15:00:00	3	Temperatura mínima	22.6
94700	7	Sololá	717	San Juan la Laguna	12	San Juan la Laguna	12	Diciembre	2023-12-13T00:00:00	2024-11-08T15:00:00	5	Humedad	56
94701	7	Sololá	717	San Juan la Laguna	12	San Juan la Laguna	12	Diciembre	2023-12-13T00:00:00	2024-11-08T15:00:00	6	Velocidad del viento	17.7
94702	7	Sololá	717	San Juan la Laguna	12	San Juan la Laguna	12	Diciembre	2023-12-13T00:00:00	2024-11-08T15:00:00	7	Dirección del viento	17.7
94703	7	Sololá	717	San Juan la Laguna	12	San Juan la Laguna	12	Diciembre	2023-12-13T00:00:00	2024-11-08T15:00:00	1	Precipitación	0
94704	7	Sololá	717	San Juan la Laguna	12	San Juan la Laguna	12	Diciembre	2023-12-13T00:00:00	2024-11-08T15:00:00	8	Radiación solar	561
94705	7	Sololá	717	San Juan la Laguna	12	San Juan la Laguna	12	Diciembre	2023-12-13T00:00:00	2024-11-08T16:00:00	2	Temperatura media	22.1
94706	7	Sololá	717	San Juan la Laguna	12	San Juan la Laguna	12	Diciembre	2023-12-13T00:00:00	2024-11-08T16:00:00	4	Temperatura máxima	22.6
94707	7	Sololá	717	San Juan la Laguna	12	San Juan la Laguna	12	Diciembre	2023-12-13T00:00:00	2024-11-08T16:00:00	3	Temperatura mínima	22.1
94708	7	Sololá	717	San Juan la Laguna	12	San Juan la Laguna	12	Diciembre	2023-12-13T00:00:00	2024-11-08T16:00:00	5	Humedad	58
94709	7	Sololá	717	San Juan la Laguna	12	San Juan la Laguna	12	Diciembre	2023-12-13T00:00:00	2024-11-08T16:00:00	6	Velocidad del viento	17.7
94710	7	Sololá	717	San Juan la Laguna	12	San Juan la Laguna	12	Diciembre	2023-12-13T00:00:00	2024-11-08T16:00:00	7	Dirección del viento	17.7
94711	7	Sololá	717	San Juan la Laguna	12	San Juan la Laguna	12	Diciembre	2023-12-13T00:00:00	2024-11-08T16:00:00	1	Precipitación	0
94712	7	Sololá	717	San Juan la Laguna	12	San Juan la Laguna	12	Diciembre	2023-12-13T00:00:00	2024-11-08T16:00:00	8	Radiación solar	396
94713	7	Sololá	717	San Juan la Laguna	12	San Juan la Laguna	12	Diciembre	2023-12-13T00:00:00	2024-11-08T17:00:00	2	Temperatura media	21
94714	7	Sololá	717	San Juan la Laguna	12	San Juan la Laguna	12	Diciembre	2023-12-13T00:00:00	2024-11-08T17:00:00	4	Temperatura máxima	22.2
94715	7	Sololá	717	San Juan la Laguna	12	San Juan la Laguna	12	Diciembre	2023-12-13T00:00:00	2024-11-08T17:00:00	3	Temperatura mínima	20.9
94716	7	Sololá	717	San Juan la Laguna	12	San Juan la Laguna	12	Diciembre	2023-12-13T00:00:00	2024-11-08T17:00:00	5	Humedad	60
94717	7	Sololá	717	San Juan la Laguna	12	San Juan la Laguna	12	Diciembre	2023-12-13T00:00:00	2024-11-08T17:00:00	6	Velocidad del viento	16.1
94718	7	Sololá	717	San Juan la Laguna	12	San Juan la Laguna	12	Diciembre	2023-12-13T00:00:00	2024-11-08T17:00:00	7	Dirección del viento	16.09
94719	7	Sololá	717	San Juan la Laguna	12	San Juan la Laguna	12	Diciembre	2023-12-13T00:00:00	2024-11-08T17:00:00	1	Precipitación	0
94720	7	Sololá	717	San Juan la Laguna	12	San Juan la Laguna	12	Diciembre	2023-12-13T00:00:00	2024-11-08T17:00:00	8	Radiación solar	106
94721	7	Sololá	717	San Juan la Laguna	12	San Juan la Laguna	12	Diciembre	2023-12-13T00:00:00	2024-11-08T18:00:00	2	Temperatura media	20.4
94722	7	Sololá	717	San Juan la Laguna	12	San Juan la Laguna	12	Diciembre	2023-12-13T00:00:00	2024-11-08T18:00:00	4	Temperatura máxima	21
94723	7	Sololá	717	San Juan la Laguna	12	San Juan la Laguna	12	Diciembre	2023-12-13T00:00:00	2024-11-08T18:00:00	3	Temperatura mínima	20.3
94724	7	Sololá	717	San Juan la Laguna	12	San Juan la Laguna	12	Diciembre	2023-12-13T00:00:00	2024-11-08T18:00:00	5	Humedad	61
94725	7	Sololá	717	San Juan la Laguna	12	San Juan la Laguna	12	Diciembre	2023-12-13T00:00:00	2024-11-08T18:00:00	6	Velocidad del viento	17.7
94726	7	Sololá	717	San Juan la Laguna	12	San Juan la Laguna	12	Diciembre	2023-12-13T00:00:00	2024-11-08T18:00:00	7	Dirección del viento	17.7
94727	7	Sololá	717	San Juan la Laguna	12	San Juan la Laguna	12	Diciembre	2023-12-13T00:00:00	2024-11-08T18:00:00	1	Precipitación	0
94728	7	Sololá	717	San Juan la Laguna	12	San Juan la Laguna	12	Diciembre	2023-12-13T00:00:00	2024-11-08T18:00:00	8	Radiación solar	7
94729	7	Sololá	717	San Juan la Laguna	12	San Juan la Laguna	12	Diciembre	2023-12-13T00:00:00	2024-11-08T19:00:00	2	Temperatura media	20.6
94730	7	Sololá	717	San Juan la Laguna	12	San Juan la Laguna	12	Diciembre	2023-12-13T00:00:00	2024-11-08T19:00:00	4	Temperatura máxima	20.8
94731	7	Sololá	717	San Juan la Laguna	12	San Juan la Laguna	12	Diciembre	2023-12-13T00:00:00	2024-11-08T19:00:00	3	Temperatura mínima	20.3
94732	7	Sololá	717	San Juan la Laguna	12	San Juan la Laguna	12	Diciembre	2023-12-13T00:00:00	2024-11-08T19:00:00	5	Humedad	60
94733	7	Sololá	717	San Juan la Laguna	12	San Juan la Laguna	12	Diciembre	2023-12-13T00:00:00	2024-11-08T19:00:00	6	Velocidad del viento	17.7
94734	7	Sololá	717	San Juan la Laguna	12	San Juan la Laguna	12	Diciembre	2023-12-13T00:00:00	2024-11-08T19:00:00	7	Dirección del viento	17.7
94735	7	Sololá	717	San Juan la Laguna	12	San Juan la Laguna	12	Diciembre	2023-12-13T00:00:00	2024-11-08T19:00:00	1	Precipitación	0
94736	7	Sololá	717	San Juan la Laguna	12	San Juan la Laguna	12	Diciembre	2023-12-13T00:00:00	2024-11-08T19:00:00	8	Radiación solar	0
94737	7	Sololá	717	San Juan la Laguna	12	San Juan la Laguna	12	Diciembre	2023-12-13T00:00:00	2024-11-08T20:00:00	2	Temperatura media	20.3
94738	7	Sololá	717	San Juan la Laguna	12	San Juan la Laguna	12	Diciembre	2023-12-13T00:00:00	2024-11-08T20:00:00	4	Temperatura máxima	20.6
94739	7	Sololá	717	San Juan la Laguna	12	San Juan la Laguna	12	Diciembre	2023-12-13T00:00:00	2024-11-08T20:00:00	3	Temperatura mínima	20.1
94740	7	Sololá	717	San Juan la Laguna	12	San Juan la Laguna	12	Diciembre	2023-12-13T00:00:00	2024-11-08T20:00:00	5	Humedad	63
94741	7	Sololá	717	San Juan la Laguna	12	San Juan la Laguna	12	Diciembre	2023-12-13T00:00:00	2024-11-08T20:00:00	6	Velocidad del viento	17.7
94742	7	Sololá	717	San Juan la Laguna	12	San Juan la Laguna	12	Diciembre	2023-12-13T00:00:00	2024-11-08T20:00:00	7	Dirección del viento	17.7
94743	7	Sololá	717	San Juan la Laguna	12	San Juan la Laguna	12	Diciembre	2023-12-13T00:00:00	2024-11-08T20:00:00	1	Precipitación	0
94744	7	Sololá	717	San Juan la Laguna	12	San Juan la Laguna	12	Diciembre	2023-12-13T00:00:00	2024-11-08T20:00:00	8	Radiación solar	0
94745	7	Sololá	717	San Juan la Laguna	12	San Juan la Laguna	12	Diciembre	2023-12-13T00:00:00	2024-11-08T21:00:00	2	Temperatura media	19.8
94746	7	Sololá	717	San Juan la Laguna	12	San Juan la Laguna	12	Diciembre	2023-12-13T00:00:00	2024-11-08T21:00:00	4	Temperatura máxima	20.3
94747	7	Sololá	717	San Juan la Laguna	12	San Juan la Laguna	12	Diciembre	2023-12-13T00:00:00	2024-11-08T21:00:00	3	Temperatura mínima	19.8
94748	7	Sololá	717	San Juan la Laguna	12	San Juan la Laguna	12	Diciembre	2023-12-13T00:00:00	2024-11-08T21:00:00	5	Humedad	67
94749	7	Sololá	717	San Juan la Laguna	12	San Juan la Laguna	12	Diciembre	2023-12-13T00:00:00	2024-11-08T21:00:00	6	Velocidad del viento	17.7
94750	7	Sololá	717	San Juan la Laguna	12	San Juan la Laguna	12	Diciembre	2023-12-13T00:00:00	2024-11-08T21:00:00	7	Dirección del viento	17.7
94751	7	Sololá	717	San Juan la Laguna	12	San Juan la Laguna	12	Diciembre	2023-12-13T00:00:00	2024-11-08T21:00:00	1	Precipitación	0
94752	7	Sololá	717	San Juan la Laguna	12	San Juan la Laguna	12	Diciembre	2023-12-13T00:00:00	2024-11-08T21:00:00	8	Radiación solar	0
94753	7	Sololá	717	San Juan la Laguna	12	San Juan la Laguna	12	Diciembre	2023-12-13T00:00:00	2024-11-08T22:00:00	2	Temperatura media	20.1
94754	7	Sololá	717	San Juan la Laguna	12	San Juan la Laguna	12	Diciembre	2023-12-13T00:00:00	2024-11-08T22:00:00	4	Temperatura máxima	20.2
94755	7	Sololá	717	San Juan la Laguna	12	San Juan la Laguna	12	Diciembre	2023-12-13T00:00:00	2024-11-08T22:00:00	3	Temperatura mínima	19.7
94756	7	Sololá	717	San Juan la Laguna	12	San Juan la Laguna	12	Diciembre	2023-12-13T00:00:00	2024-11-08T22:00:00	5	Humedad	65
94757	7	Sololá	717	San Juan la Laguna	12	San Juan la Laguna	12	Diciembre	2023-12-13T00:00:00	2024-11-08T22:00:00	6	Velocidad del viento	20.9
94758	7	Sololá	717	San Juan la Laguna	12	San Juan la Laguna	12	Diciembre	2023-12-13T00:00:00	2024-11-08T22:00:00	7	Dirección del viento	20.92
94759	7	Sololá	717	San Juan la Laguna	12	San Juan la Laguna	12	Diciembre	2023-12-13T00:00:00	2024-11-08T22:00:00	1	Precipitación	0
94760	7	Sololá	717	San Juan la Laguna	12	San Juan la Laguna	12	Diciembre	2023-12-13T00:00:00	2024-11-08T22:00:00	8	Radiación solar	0
94761	7	Sololá	717	San Juan la Laguna	12	San Juan la Laguna	12	Diciembre	2023-12-13T00:00:00	2024-11-08T23:00:00	2	Temperatura media	19.8
94762	7	Sololá	717	San Juan la Laguna	12	San Juan la Laguna	12	Diciembre	2023-12-13T00:00:00	2024-11-08T23:00:00	4	Temperatura máxima	20.1
94763	7	Sololá	717	San Juan la Laguna	12	San Juan la Laguna	12	Diciembre	2023-12-13T00:00:00	2024-11-08T23:00:00	3	Temperatura mínima	19.8
94764	7	Sololá	717	San Juan la Laguna	12	San Juan la Laguna	12	Diciembre	2023-12-13T00:00:00	2024-11-08T23:00:00	5	Humedad	68
94765	7	Sololá	717	San Juan la Laguna	12	San Juan la Laguna	12	Diciembre	2023-12-13T00:00:00	2024-11-08T23:00:00	6	Velocidad del viento	17.7
94766	7	Sololá	717	San Juan la Laguna	12	San Juan la Laguna	12	Diciembre	2023-12-13T00:00:00	2024-11-08T23:00:00	7	Dirección del viento	17.7
94767	7	Sololá	717	San Juan la Laguna	12	San Juan la Laguna	12	Diciembre	2023-12-13T00:00:00	2024-11-08T23:00:00	1	Precipitación	0
94768	7	Sololá	717	San Juan la Laguna	12	San Juan la Laguna	12	Diciembre	2023-12-13T00:00:00	2024-11-08T23:00:00	8	Radiación solar	0
94769	7	Sololá	717	San Juan la Laguna	12	San Juan la Laguna	12	Diciembre	2023-12-14T00:00:00	2024-11-08T00:00:00	2	Temperatura media	19.5
94770	7	Sololá	717	San Juan la Laguna	12	San Juan la Laguna	12	Diciembre	2023-12-14T00:00:00	2024-11-08T00:00:00	4	Temperatura máxima	19.8
94771	7	Sololá	717	San Juan la Laguna	12	San Juan la Laguna	12	Diciembre	2023-12-14T00:00:00	2024-11-08T00:00:00	3	Temperatura mínima	19.3
94772	7	Sololá	717	San Juan la Laguna	12	San Juan la Laguna	12	Diciembre	2023-12-14T00:00:00	2024-11-08T00:00:00	5	Humedad	68
94773	7	Sololá	717	San Juan la Laguna	12	San Juan la Laguna	12	Diciembre	2023-12-14T00:00:00	2024-11-08T00:00:00	6	Velocidad del viento	14.5
94774	7	Sololá	717	San Juan la Laguna	12	San Juan la Laguna	12	Diciembre	2023-12-14T00:00:00	2024-11-08T00:00:00	7	Dirección del viento	14.48
94775	7	Sololá	717	San Juan la Laguna	12	San Juan la Laguna	12	Diciembre	2023-12-14T00:00:00	2024-11-08T00:00:00	1	Precipitación	0
94776	7	Sololá	717	San Juan la Laguna	12	San Juan la Laguna	12	Diciembre	2023-12-14T00:00:00	2024-11-08T00:00:00	8	Radiación solar	0
94777	7	Sololá	717	San Juan la Laguna	12	San Juan la Laguna	12	Diciembre	2023-12-14T00:00:00	2024-11-08T01:00:00	2	Temperatura media	19.7
94778	7	Sololá	717	San Juan la Laguna	12	San Juan la Laguna	12	Diciembre	2023-12-14T00:00:00	2024-11-08T01:00:00	4	Temperatura máxima	19.8
94779	7	Sololá	717	San Juan la Laguna	12	San Juan la Laguna	12	Diciembre	2023-12-14T00:00:00	2024-11-08T01:00:00	3	Temperatura mínima	19.4
94780	7	Sololá	717	San Juan la Laguna	12	San Juan la Laguna	12	Diciembre	2023-12-14T00:00:00	2024-11-08T01:00:00	5	Humedad	67
94781	7	Sololá	717	San Juan la Laguna	12	San Juan la Laguna	12	Diciembre	2023-12-14T00:00:00	2024-11-08T01:00:00	6	Velocidad del viento	9.7
94782	7	Sololá	717	San Juan la Laguna	12	San Juan la Laguna	12	Diciembre	2023-12-14T00:00:00	2024-11-08T01:00:00	7	Dirección del viento	9.66
94783	7	Sololá	717	San Juan la Laguna	12	San Juan la Laguna	12	Diciembre	2023-12-14T00:00:00	2024-11-08T01:00:00	1	Precipitación	0
94784	7	Sololá	717	San Juan la Laguna	12	San Juan la Laguna	12	Diciembre	2023-12-14T00:00:00	2024-11-08T01:00:00	8	Radiación solar	0
94785	7	Sololá	717	San Juan la Laguna	12	San Juan la Laguna	12	Diciembre	2023-12-14T00:00:00	2024-11-08T02:00:00	2	Temperatura media	19.7
94786	7	Sololá	717	San Juan la Laguna	12	San Juan la Laguna	12	Diciembre	2023-12-14T00:00:00	2024-11-08T02:00:00	4	Temperatura máxima	19.8
94787	7	Sololá	717	San Juan la Laguna	12	San Juan la Laguna	12	Diciembre	2023-12-14T00:00:00	2024-11-08T02:00:00	3	Temperatura mínima	19.6
94788	7	Sololá	717	San Juan la Laguna	12	San Juan la Laguna	12	Diciembre	2023-12-14T00:00:00	2024-11-08T02:00:00	5	Humedad	67
94789	7	Sololá	717	San Juan la Laguna	12	San Juan la Laguna	12	Diciembre	2023-12-14T00:00:00	2024-11-08T02:00:00	6	Velocidad del viento	11.3
94790	7	Sololá	717	San Juan la Laguna	12	San Juan la Laguna	12	Diciembre	2023-12-14T00:00:00	2024-11-08T02:00:00	7	Dirección del viento	11.27
94791	7	Sololá	717	San Juan la Laguna	12	San Juan la Laguna	12	Diciembre	2023-12-14T00:00:00	2024-11-08T02:00:00	1	Precipitación	0
94792	7	Sololá	717	San Juan la Laguna	12	San Juan la Laguna	12	Diciembre	2023-12-14T00:00:00	2024-11-08T02:00:00	8	Radiación solar	0
94793	7	Sololá	717	San Juan la Laguna	12	San Juan la Laguna	12	Diciembre	2023-12-14T00:00:00	2024-11-08T03:00:00	2	Temperatura media	19.8
94794	7	Sololá	717	San Juan la Laguna	12	San Juan la Laguna	12	Diciembre	2023-12-14T00:00:00	2024-11-08T03:00:00	4	Temperatura máxima	19.9
94795	7	Sololá	717	San Juan la Laguna	12	San Juan la Laguna	12	Diciembre	2023-12-14T00:00:00	2024-11-08T03:00:00	3	Temperatura mínima	19.6
94796	7	Sololá	717	San Juan la Laguna	12	San Juan la Laguna	12	Diciembre	2023-12-14T00:00:00	2024-11-08T03:00:00	5	Humedad	67
94797	7	Sololá	717	San Juan la Laguna	12	San Juan la Laguna	12	Diciembre	2023-12-14T00:00:00	2024-11-08T03:00:00	6	Velocidad del viento	12.9
94798	7	Sololá	717	San Juan la Laguna	12	San Juan la Laguna	12	Diciembre	2023-12-14T00:00:00	2024-11-08T03:00:00	7	Dirección del viento	12.87
94799	7	Sololá	717	San Juan la Laguna	12	San Juan la Laguna	12	Diciembre	2023-12-14T00:00:00	2024-11-08T03:00:00	1	Precipitación	0
94800	7	Sololá	717	San Juan la Laguna	12	San Juan la Laguna	12	Diciembre	2023-12-14T00:00:00	2024-11-08T03:00:00	8	Radiación solar	0
94801	7	Sololá	717	San Juan la Laguna	12	San Juan la Laguna	12	Diciembre	2023-12-14T00:00:00	2024-11-08T04:00:00	2	Temperatura media	19.7
94802	7	Sololá	717	San Juan la Laguna	12	San Juan la Laguna	12	Diciembre	2023-12-14T00:00:00	2024-11-08T04:00:00	4	Temperatura máxima	19.8
94803	7	Sololá	717	San Juan la Laguna	12	San Juan la Laguna	12	Diciembre	2023-12-14T00:00:00	2024-11-08T04:00:00	3	Temperatura mínima	19.7
94804	7	Sololá	717	San Juan la Laguna	12	San Juan la Laguna	12	Diciembre	2023-12-14T00:00:00	2024-11-08T04:00:00	5	Humedad	66
94805	7	Sololá	717	San Juan la Laguna	12	San Juan la Laguna	12	Diciembre	2023-12-14T00:00:00	2024-11-08T04:00:00	6	Velocidad del viento	11.3
94806	7	Sololá	717	San Juan la Laguna	12	San Juan la Laguna	12	Diciembre	2023-12-14T00:00:00	2024-11-08T04:00:00	7	Dirección del viento	11.27
94807	7	Sololá	717	San Juan la Laguna	12	San Juan la Laguna	12	Diciembre	2023-12-14T00:00:00	2024-11-08T04:00:00	1	Precipitación	0
94808	7	Sololá	717	San Juan la Laguna	12	San Juan la Laguna	12	Diciembre	2023-12-14T00:00:00	2024-11-08T04:00:00	8	Radiación solar	0
94809	7	Sololá	717	San Juan la Laguna	12	San Juan la Laguna	12	Diciembre	2023-12-14T00:00:00	2024-11-08T05:00:00	2	Temperatura media	19.5
94810	7	Sololá	717	San Juan la Laguna	12	San Juan la Laguna	12	Diciembre	2023-12-14T00:00:00	2024-11-08T05:00:00	4	Temperatura máxima	19.9
94811	7	Sololá	717	San Juan la Laguna	12	San Juan la Laguna	12	Diciembre	2023-12-14T00:00:00	2024-11-08T05:00:00	3	Temperatura mínima	19.5
94812	7	Sololá	717	San Juan la Laguna	12	San Juan la Laguna	12	Diciembre	2023-12-14T00:00:00	2024-11-08T05:00:00	5	Humedad	67
94813	7	Sololá	717	San Juan la Laguna	12	San Juan la Laguna	12	Diciembre	2023-12-14T00:00:00	2024-11-08T05:00:00	6	Velocidad del viento	12.9
94814	7	Sololá	717	San Juan la Laguna	12	San Juan la Laguna	12	Diciembre	2023-12-14T00:00:00	2024-11-08T05:00:00	7	Dirección del viento	12.87
94815	7	Sololá	717	San Juan la Laguna	12	San Juan la Laguna	12	Diciembre	2023-12-14T00:00:00	2024-11-08T05:00:00	1	Precipitación	0
94816	7	Sololá	717	San Juan la Laguna	12	San Juan la Laguna	12	Diciembre	2023-12-14T00:00:00	2024-11-08T05:00:00	8	Radiación solar	0
94817	7	Sololá	717	San Juan la Laguna	12	San Juan la Laguna	12	Diciembre	2023-12-14T00:00:00	2024-11-08T06:00:00	2	Temperatura media	19.6
94818	7	Sololá	717	San Juan la Laguna	12	San Juan la Laguna	12	Diciembre	2023-12-14T00:00:00	2024-11-08T06:00:00	4	Temperatura máxima	19.9
94819	7	Sololá	717	San Juan la Laguna	12	San Juan la Laguna	12	Diciembre	2023-12-14T00:00:00	2024-11-08T06:00:00	3	Temperatura mínima	19.3
94820	7	Sololá	717	San Juan la Laguna	12	San Juan la Laguna	12	Diciembre	2023-12-14T00:00:00	2024-11-08T06:00:00	5	Humedad	67
94821	7	Sololá	717	San Juan la Laguna	12	San Juan la Laguna	12	Diciembre	2023-12-14T00:00:00	2024-11-08T06:00:00	6	Velocidad del viento	11.3
94822	7	Sololá	717	San Juan la Laguna	12	San Juan la Laguna	12	Diciembre	2023-12-14T00:00:00	2024-11-08T06:00:00	7	Dirección del viento	11.27
94823	7	Sololá	717	San Juan la Laguna	12	San Juan la Laguna	12	Diciembre	2023-12-14T00:00:00	2024-11-08T06:00:00	1	Precipitación	0
94824	7	Sololá	717	San Juan la Laguna	12	San Juan la Laguna	12	Diciembre	2023-12-14T00:00:00	2024-11-08T06:00:00	8	Radiación solar	0
94825	7	Sololá	717	San Juan la Laguna	12	San Juan la Laguna	12	Diciembre	2023-12-14T00:00:00	2024-11-08T07:00:00	2	Temperatura media	19.7
94826	7	Sololá	717	San Juan la Laguna	12	San Juan la Laguna	12	Diciembre	2023-12-14T00:00:00	2024-11-08T07:00:00	4	Temperatura máxima	19.7
94827	7	Sololá	717	San Juan la Laguna	12	San Juan la Laguna	12	Diciembre	2023-12-14T00:00:00	2024-11-08T07:00:00	3	Temperatura mínima	19.1
94828	7	Sololá	717	San Juan la Laguna	12	San Juan la Laguna	12	Diciembre	2023-12-14T00:00:00	2024-11-08T07:00:00	5	Humedad	67
94829	7	Sololá	717	San Juan la Laguna	12	San Juan la Laguna	12	Diciembre	2023-12-14T00:00:00	2024-11-08T07:00:00	6	Velocidad del viento	8
94830	7	Sololá	717	San Juan la Laguna	12	San Juan la Laguna	12	Diciembre	2023-12-14T00:00:00	2024-11-08T07:00:00	7	Dirección del viento	8.05
94831	7	Sololá	717	San Juan la Laguna	12	San Juan la Laguna	12	Diciembre	2023-12-14T00:00:00	2024-11-08T07:00:00	1	Precipitación	0
94832	7	Sololá	717	San Juan la Laguna	12	San Juan la Laguna	12	Diciembre	2023-12-14T00:00:00	2024-11-08T07:00:00	8	Radiación solar	9
94833	7	Sololá	717	San Juan la Laguna	12	San Juan la Laguna	12	Diciembre	2023-12-14T00:00:00	2024-11-08T08:00:00	2	Temperatura media	21.3
94834	7	Sololá	717	San Juan la Laguna	12	San Juan la Laguna	12	Diciembre	2023-12-14T00:00:00	2024-11-08T08:00:00	4	Temperatura máxima	21.3
94835	7	Sololá	717	San Juan la Laguna	12	San Juan la Laguna	12	Diciembre	2023-12-14T00:00:00	2024-11-08T08:00:00	3	Temperatura mínima	19.7
94836	7	Sololá	717	San Juan la Laguna	12	San Juan la Laguna	12	Diciembre	2023-12-14T00:00:00	2024-11-08T08:00:00	5	Humedad	63
94837	7	Sololá	717	San Juan la Laguna	12	San Juan la Laguna	12	Diciembre	2023-12-14T00:00:00	2024-11-08T08:00:00	6	Velocidad del viento	9.7
94838	7	Sololá	717	San Juan la Laguna	12	San Juan la Laguna	12	Diciembre	2023-12-14T00:00:00	2024-11-08T08:00:00	7	Dirección del viento	9.66
94839	7	Sololá	717	San Juan la Laguna	12	San Juan la Laguna	12	Diciembre	2023-12-14T00:00:00	2024-11-08T08:00:00	1	Precipitación	0
94840	7	Sololá	717	San Juan la Laguna	12	San Juan la Laguna	12	Diciembre	2023-12-14T00:00:00	2024-11-08T08:00:00	8	Radiación solar	147
94841	7	Sololá	717	San Juan la Laguna	12	San Juan la Laguna	12	Diciembre	2023-12-14T00:00:00	2024-11-08T09:00:00	2	Temperatura media	22.7
94842	7	Sololá	717	San Juan la Laguna	12	San Juan la Laguna	12	Diciembre	2023-12-14T00:00:00	2024-11-08T09:00:00	4	Temperatura máxima	22.7
94843	7	Sololá	717	San Juan la Laguna	12	San Juan la Laguna	12	Diciembre	2023-12-14T00:00:00	2024-11-08T09:00:00	3	Temperatura mínima	21.3
94844	7	Sololá	717	San Juan la Laguna	12	San Juan la Laguna	12	Diciembre	2023-12-14T00:00:00	2024-11-08T09:00:00	5	Humedad	58
94845	7	Sololá	717	San Juan la Laguna	12	San Juan la Laguna	12	Diciembre	2023-12-14T00:00:00	2024-11-08T09:00:00	6	Velocidad del viento	11.3
94846	7	Sololá	717	San Juan la Laguna	12	San Juan la Laguna	12	Diciembre	2023-12-14T00:00:00	2024-11-08T09:00:00	7	Dirección del viento	11.27
94847	7	Sololá	717	San Juan la Laguna	12	San Juan la Laguna	12	Diciembre	2023-12-14T00:00:00	2024-11-08T09:00:00	1	Precipitación	0
94848	7	Sololá	717	San Juan la Laguna	12	San Juan la Laguna	12	Diciembre	2023-12-14T00:00:00	2024-11-08T09:00:00	8	Radiación solar	371
94849	7	Sololá	717	San Juan la Laguna	12	San Juan la Laguna	12	Diciembre	2023-12-14T00:00:00	2024-11-08T10:00:00	2	Temperatura media	23.6
94850	7	Sololá	717	San Juan la Laguna	12	San Juan la Laguna	12	Diciembre	2023-12-14T00:00:00	2024-11-08T10:00:00	4	Temperatura máxima	23.6
94851	7	Sololá	717	San Juan la Laguna	12	San Juan la Laguna	12	Diciembre	2023-12-14T00:00:00	2024-11-08T10:00:00	3	Temperatura mínima	22.7
94852	7	Sololá	717	San Juan la Laguna	12	San Juan la Laguna	12	Diciembre	2023-12-14T00:00:00	2024-11-08T10:00:00	5	Humedad	56
94853	7	Sololá	717	San Juan la Laguna	12	San Juan la Laguna	12	Diciembre	2023-12-14T00:00:00	2024-11-08T10:00:00	6	Velocidad del viento	14.5
94854	7	Sololá	717	San Juan la Laguna	12	San Juan la Laguna	12	Diciembre	2023-12-14T00:00:00	2024-11-08T10:00:00	7	Dirección del viento	14.48
94855	7	Sololá	717	San Juan la Laguna	12	San Juan la Laguna	12	Diciembre	2023-12-14T00:00:00	2024-11-08T10:00:00	1	Precipitación	0
94856	7	Sololá	717	San Juan la Laguna	12	San Juan la Laguna	12	Diciembre	2023-12-14T00:00:00	2024-11-08T10:00:00	8	Radiación solar	539
94857	7	Sololá	717	San Juan la Laguna	12	San Juan la Laguna	12	Diciembre	2023-12-14T00:00:00	2024-11-08T11:00:00	2	Temperatura media	24.5
94858	7	Sololá	717	San Juan la Laguna	12	San Juan la Laguna	12	Diciembre	2023-12-14T00:00:00	2024-11-08T11:00:00	4	Temperatura máxima	24.5
94859	7	Sololá	717	San Juan la Laguna	12	San Juan la Laguna	12	Diciembre	2023-12-14T00:00:00	2024-11-08T11:00:00	3	Temperatura mínima	23.6
94860	7	Sololá	717	San Juan la Laguna	12	San Juan la Laguna	12	Diciembre	2023-12-14T00:00:00	2024-11-08T11:00:00	5	Humedad	55
94861	7	Sololá	717	San Juan la Laguna	12	San Juan la Laguna	12	Diciembre	2023-12-14T00:00:00	2024-11-08T11:00:00	6	Velocidad del viento	14.5
94862	7	Sololá	717	San Juan la Laguna	12	San Juan la Laguna	12	Diciembre	2023-12-14T00:00:00	2024-11-08T11:00:00	7	Dirección del viento	14.48
94863	7	Sololá	717	San Juan la Laguna	12	San Juan la Laguna	12	Diciembre	2023-12-14T00:00:00	2024-11-08T11:00:00	1	Precipitación	0
94864	7	Sololá	717	San Juan la Laguna	12	San Juan la Laguna	12	Diciembre	2023-12-14T00:00:00	2024-11-08T11:00:00	8	Radiación solar	577
94865	7	Sololá	717	San Juan la Laguna	12	San Juan la Laguna	12	Diciembre	2023-12-14T00:00:00	2024-11-08T12:00:00	2	Temperatura media	24.7
94866	7	Sololá	717	San Juan la Laguna	12	San Juan la Laguna	12	Diciembre	2023-12-14T00:00:00	2024-11-08T12:00:00	4	Temperatura máxima	25.4
94867	7	Sololá	717	San Juan la Laguna	12	San Juan la Laguna	12	Diciembre	2023-12-14T00:00:00	2024-11-08T12:00:00	3	Temperatura mínima	24.4
94868	7	Sololá	717	San Juan la Laguna	12	San Juan la Laguna	12	Diciembre	2023-12-14T00:00:00	2024-11-08T12:00:00	5	Humedad	54
94869	7	Sololá	717	San Juan la Laguna	12	San Juan la Laguna	12	Diciembre	2023-12-14T00:00:00	2024-11-08T12:00:00	6	Velocidad del viento	12.9
94870	7	Sololá	717	San Juan la Laguna	12	San Juan la Laguna	12	Diciembre	2023-12-14T00:00:00	2024-11-08T12:00:00	7	Dirección del viento	12.87
94871	7	Sololá	717	San Juan la Laguna	12	San Juan la Laguna	12	Diciembre	2023-12-14T00:00:00	2024-11-08T12:00:00	1	Precipitación	0
94872	7	Sololá	717	San Juan la Laguna	12	San Juan la Laguna	12	Diciembre	2023-12-14T00:00:00	2024-11-08T12:00:00	8	Radiación solar	710
94873	7	Sololá	717	San Juan la Laguna	12	San Juan la Laguna	12	Diciembre	2023-12-14T00:00:00	2024-11-08T13:00:00	2	Temperatura media	25.7
94874	7	Sololá	717	San Juan la Laguna	12	San Juan la Laguna	12	Diciembre	2023-12-14T00:00:00	2024-11-08T13:00:00	4	Temperatura máxima	25.8
94875	7	Sololá	717	San Juan la Laguna	12	San Juan la Laguna	12	Diciembre	2023-12-14T00:00:00	2024-11-08T13:00:00	3	Temperatura mínima	24.6
94876	7	Sololá	717	San Juan la Laguna	12	San Juan la Laguna	12	Diciembre	2023-12-14T00:00:00	2024-11-08T13:00:00	5	Humedad	51
94877	7	Sololá	717	San Juan la Laguna	12	San Juan la Laguna	12	Diciembre	2023-12-14T00:00:00	2024-11-08T13:00:00	6	Velocidad del viento	11.3
94878	7	Sololá	717	San Juan la Laguna	12	San Juan la Laguna	12	Diciembre	2023-12-14T00:00:00	2024-11-08T13:00:00	7	Dirección del viento	11.27
94879	7	Sololá	717	San Juan la Laguna	12	San Juan la Laguna	12	Diciembre	2023-12-14T00:00:00	2024-11-08T13:00:00	1	Precipitación	0
94880	7	Sololá	717	San Juan la Laguna	12	San Juan la Laguna	12	Diciembre	2023-12-14T00:00:00	2024-11-08T13:00:00	8	Radiación solar	702
94881	7	Sololá	717	San Juan la Laguna	12	San Juan la Laguna	12	Diciembre	2023-12-14T00:00:00	2024-11-08T14:00:00	2	Temperatura media	25.6
94882	7	Sololá	717	San Juan la Laguna	12	San Juan la Laguna	12	Diciembre	2023-12-14T00:00:00	2024-11-08T14:00:00	4	Temperatura máxima	25.7
94883	7	Sololá	717	San Juan la Laguna	12	San Juan la Laguna	12	Diciembre	2023-12-14T00:00:00	2024-11-08T14:00:00	3	Temperatura mínima	25.2
94884	7	Sololá	717	San Juan la Laguna	12	San Juan la Laguna	12	Diciembre	2023-12-14T00:00:00	2024-11-08T14:00:00	5	Humedad	51
94885	7	Sololá	717	San Juan la Laguna	12	San Juan la Laguna	12	Diciembre	2023-12-14T00:00:00	2024-11-08T14:00:00	6	Velocidad del viento	12.9
94886	7	Sololá	717	San Juan la Laguna	12	San Juan la Laguna	12	Diciembre	2023-12-14T00:00:00	2024-11-08T14:00:00	7	Dirección del viento	12.87
94887	7	Sololá	717	San Juan la Laguna	12	San Juan la Laguna	12	Diciembre	2023-12-14T00:00:00	2024-11-08T14:00:00	1	Precipitación	0
94888	7	Sololá	717	San Juan la Laguna	12	San Juan la Laguna	12	Diciembre	2023-12-14T00:00:00	2024-11-08T14:00:00	8	Radiación solar	689
94889	7	Sololá	717	San Juan la Laguna	12	San Juan la Laguna	12	Diciembre	2023-12-14T00:00:00	2024-11-08T15:00:00	2	Temperatura media	25
94890	7	Sololá	717	San Juan la Laguna	12	San Juan la Laguna	12	Diciembre	2023-12-14T00:00:00	2024-11-08T15:00:00	4	Temperatura máxima	25.7
94891	7	Sololá	717	San Juan la Laguna	12	San Juan la Laguna	12	Diciembre	2023-12-14T00:00:00	2024-11-08T15:00:00	3	Temperatura mínima	25
94892	7	Sololá	717	San Juan la Laguna	12	San Juan la Laguna	12	Diciembre	2023-12-14T00:00:00	2024-11-08T15:00:00	5	Humedad	53
94893	7	Sololá	717	San Juan la Laguna	12	San Juan la Laguna	12	Diciembre	2023-12-14T00:00:00	2024-11-08T15:00:00	6	Velocidad del viento	14.5
94894	7	Sololá	717	San Juan la Laguna	12	San Juan la Laguna	12	Diciembre	2023-12-14T00:00:00	2024-11-08T15:00:00	7	Dirección del viento	14.48
94895	7	Sololá	717	San Juan la Laguna	12	San Juan la Laguna	12	Diciembre	2023-12-14T00:00:00	2024-11-08T15:00:00	1	Precipitación	0
94896	7	Sololá	717	San Juan la Laguna	12	San Juan la Laguna	12	Diciembre	2023-12-14T00:00:00	2024-11-08T15:00:00	8	Radiación solar	568
94897	7	Sololá	717	San Juan la Laguna	12	San Juan la Laguna	12	Diciembre	2023-12-14T00:00:00	2024-11-08T16:00:00	2	Temperatura media	24.9
94898	7	Sololá	717	San Juan la Laguna	12	San Juan la Laguna	12	Diciembre	2023-12-14T00:00:00	2024-11-08T16:00:00	4	Temperatura máxima	25.1
94899	7	Sololá	717	San Juan la Laguna	12	San Juan la Laguna	12	Diciembre	2023-12-14T00:00:00	2024-11-08T16:00:00	3	Temperatura mínima	24.6
94900	7	Sololá	717	San Juan la Laguna	12	San Juan la Laguna	12	Diciembre	2023-12-14T00:00:00	2024-11-08T16:00:00	5	Humedad	54
94901	7	Sololá	717	San Juan la Laguna	12	San Juan la Laguna	12	Diciembre	2023-12-14T00:00:00	2024-11-08T16:00:00	6	Velocidad del viento	11.3
94902	7	Sololá	717	San Juan la Laguna	12	San Juan la Laguna	12	Diciembre	2023-12-14T00:00:00	2024-11-08T16:00:00	7	Dirección del viento	11.27
94903	7	Sololá	717	San Juan la Laguna	12	San Juan la Laguna	12	Diciembre	2023-12-14T00:00:00	2024-11-08T16:00:00	1	Precipitación	0
94904	7	Sololá	717	San Juan la Laguna	12	San Juan la Laguna	12	Diciembre	2023-12-14T00:00:00	2024-11-08T16:00:00	8	Radiación solar	425
94905	7	Sololá	717	San Juan la Laguna	12	San Juan la Laguna	12	Diciembre	2023-12-14T00:00:00	2024-11-08T17:00:00	2	Temperatura media	22.5
94906	7	Sololá	717	San Juan la Laguna	12	San Juan la Laguna	12	Diciembre	2023-12-14T00:00:00	2024-11-08T17:00:00	4	Temperatura máxima	24.9
94907	7	Sololá	717	San Juan la Laguna	12	San Juan la Laguna	12	Diciembre	2023-12-14T00:00:00	2024-11-08T17:00:00	3	Temperatura mínima	22.5
94908	7	Sololá	717	San Juan la Laguna	12	San Juan la Laguna	12	Diciembre	2023-12-14T00:00:00	2024-11-08T17:00:00	5	Humedad	62
94909	7	Sololá	717	San Juan la Laguna	12	San Juan la Laguna	12	Diciembre	2023-12-14T00:00:00	2024-11-08T17:00:00	6	Velocidad del viento	9.7
94910	7	Sololá	717	San Juan la Laguna	12	San Juan la Laguna	12	Diciembre	2023-12-14T00:00:00	2024-11-08T17:00:00	7	Dirección del viento	9.66
94911	7	Sololá	717	San Juan la Laguna	12	San Juan la Laguna	12	Diciembre	2023-12-14T00:00:00	2024-11-08T17:00:00	1	Precipitación	0
94912	7	Sololá	717	San Juan la Laguna	12	San Juan la Laguna	12	Diciembre	2023-12-14T00:00:00	2024-11-08T17:00:00	8	Radiación solar	157
94913	7	Sololá	717	San Juan la Laguna	12	San Juan la Laguna	12	Diciembre	2023-12-14T00:00:00	2024-11-08T18:00:00	2	Temperatura media	21.4
94914	7	Sololá	717	San Juan la Laguna	12	San Juan la Laguna	12	Diciembre	2023-12-14T00:00:00	2024-11-08T18:00:00	4	Temperatura máxima	22.5
94915	7	Sololá	717	San Juan la Laguna	12	San Juan la Laguna	12	Diciembre	2023-12-14T00:00:00	2024-11-08T18:00:00	3	Temperatura mínima	21.4
94916	7	Sololá	717	San Juan la Laguna	12	San Juan la Laguna	12	Diciembre	2023-12-14T00:00:00	2024-11-08T18:00:00	5	Humedad	64
94917	7	Sololá	717	San Juan la Laguna	12	San Juan la Laguna	12	Diciembre	2023-12-14T00:00:00	2024-11-08T18:00:00	6	Velocidad del viento	12.9
94918	7	Sololá	717	San Juan la Laguna	12	San Juan la Laguna	12	Diciembre	2023-12-14T00:00:00	2024-11-08T18:00:00	7	Dirección del viento	12.87
94919	7	Sololá	717	San Juan la Laguna	12	San Juan la Laguna	12	Diciembre	2023-12-14T00:00:00	2024-11-08T18:00:00	1	Precipitación	0
94920	7	Sololá	717	San Juan la Laguna	12	San Juan la Laguna	12	Diciembre	2023-12-14T00:00:00	2024-11-08T18:00:00	8	Radiación solar	9
94921	7	Sololá	717	San Juan la Laguna	12	San Juan la Laguna	12	Diciembre	2023-12-14T00:00:00	2024-11-08T19:00:00	2	Temperatura media	20.8
94922	7	Sololá	717	San Juan la Laguna	12	San Juan la Laguna	12	Diciembre	2023-12-14T00:00:00	2024-11-08T19:00:00	4	Temperatura máxima	21.4
94923	7	Sololá	717	San Juan la Laguna	12	San Juan la Laguna	12	Diciembre	2023-12-14T00:00:00	2024-11-08T19:00:00	3	Temperatura mínima	20.8
94924	7	Sololá	717	San Juan la Laguna	12	San Juan la Laguna	12	Diciembre	2023-12-14T00:00:00	2024-11-08T19:00:00	5	Humedad	65
94925	7	Sololá	717	San Juan la Laguna	12	San Juan la Laguna	12	Diciembre	2023-12-14T00:00:00	2024-11-08T19:00:00	6	Velocidad del viento	12.9
94926	7	Sololá	717	San Juan la Laguna	12	San Juan la Laguna	12	Diciembre	2023-12-14T00:00:00	2024-11-08T19:00:00	7	Dirección del viento	12.87
94927	7	Sololá	717	San Juan la Laguna	12	San Juan la Laguna	12	Diciembre	2023-12-14T00:00:00	2024-11-08T19:00:00	1	Precipitación	0
94928	7	Sololá	717	San Juan la Laguna	12	San Juan la Laguna	12	Diciembre	2023-12-14T00:00:00	2024-11-08T19:00:00	8	Radiación solar	0
94929	7	Sololá	717	San Juan la Laguna	12	San Juan la Laguna	12	Diciembre	2023-12-14T00:00:00	2024-11-08T20:00:00	2	Temperatura media	19.2
94930	7	Sololá	717	San Juan la Laguna	12	San Juan la Laguna	12	Diciembre	2023-12-14T00:00:00	2024-11-08T20:00:00	4	Temperatura máxima	20.8
94931	7	Sololá	717	San Juan la Laguna	12	San Juan la Laguna	12	Diciembre	2023-12-14T00:00:00	2024-11-08T20:00:00	3	Temperatura mínima	19.2
94932	7	Sololá	717	San Juan la Laguna	12	San Juan la Laguna	12	Diciembre	2023-12-14T00:00:00	2024-11-08T20:00:00	5	Humedad	70
94933	7	Sololá	717	San Juan la Laguna	12	San Juan la Laguna	12	Diciembre	2023-12-14T00:00:00	2024-11-08T20:00:00	6	Velocidad del viento	4.8
94934	7	Sololá	717	San Juan la Laguna	12	San Juan la Laguna	12	Diciembre	2023-12-14T00:00:00	2024-11-08T20:00:00	7	Dirección del viento	4.83
94935	7	Sololá	717	San Juan la Laguna	12	San Juan la Laguna	12	Diciembre	2023-12-14T00:00:00	2024-11-08T20:00:00	1	Precipitación	0
94936	7	Sololá	717	San Juan la Laguna	12	San Juan la Laguna	12	Diciembre	2023-12-14T00:00:00	2024-11-08T20:00:00	8	Radiación solar	0
94937	7	Sololá	717	San Juan la Laguna	12	San Juan la Laguna	12	Diciembre	2023-12-14T00:00:00	2024-11-08T21:00:00	2	Temperatura media	18
94938	7	Sololá	717	San Juan la Laguna	12	San Juan la Laguna	12	Diciembre	2023-12-14T00:00:00	2024-11-08T21:00:00	4	Temperatura máxima	19.7
94939	7	Sololá	717	San Juan la Laguna	12	San Juan la Laguna	12	Diciembre	2023-12-14T00:00:00	2024-11-08T21:00:00	3	Temperatura mínima	18
94940	7	Sololá	717	San Juan la Laguna	12	San Juan la Laguna	12	Diciembre	2023-12-14T00:00:00	2024-11-08T21:00:00	5	Humedad	74
94941	7	Sololá	717	San Juan la Laguna	12	San Juan la Laguna	12	Diciembre	2023-12-14T00:00:00	2024-11-08T21:00:00	6	Velocidad del viento	3.2
94942	7	Sololá	717	San Juan la Laguna	12	San Juan la Laguna	12	Diciembre	2023-12-14T00:00:00	2024-11-08T21:00:00	7	Dirección del viento	3.22
94943	7	Sololá	717	San Juan la Laguna	12	San Juan la Laguna	12	Diciembre	2023-12-14T00:00:00	2024-11-08T21:00:00	1	Precipitación	0
94944	7	Sololá	717	San Juan la Laguna	12	San Juan la Laguna	12	Diciembre	2023-12-14T00:00:00	2024-11-08T21:00:00	8	Radiación solar	0
94945	7	Sololá	717	San Juan la Laguna	12	San Juan la Laguna	12	Diciembre	2023-12-14T00:00:00	2024-11-08T22:00:00	2	Temperatura media	16.7
94946	7	Sololá	717	San Juan la Laguna	12	San Juan la Laguna	12	Diciembre	2023-12-14T00:00:00	2024-11-08T22:00:00	4	Temperatura máxima	18
94947	7	Sololá	717	San Juan la Laguna	12	San Juan la Laguna	12	Diciembre	2023-12-14T00:00:00	2024-11-08T22:00:00	3	Temperatura mínima	16.7
94948	7	Sololá	717	San Juan la Laguna	12	San Juan la Laguna	12	Diciembre	2023-12-14T00:00:00	2024-11-08T22:00:00	5	Humedad	77
94949	7	Sololá	717	San Juan la Laguna	12	San Juan la Laguna	12	Diciembre	2023-12-14T00:00:00	2024-11-08T22:00:00	6	Velocidad del viento	6.4
94950	7	Sololá	717	San Juan la Laguna	12	San Juan la Laguna	12	Diciembre	2023-12-14T00:00:00	2024-11-08T22:00:00	7	Dirección del viento	6.44
94951	7	Sololá	717	San Juan la Laguna	12	San Juan la Laguna	12	Diciembre	2023-12-14T00:00:00	2024-11-08T22:00:00	1	Precipitación	0
94952	7	Sololá	717	San Juan la Laguna	12	San Juan la Laguna	12	Diciembre	2023-12-14T00:00:00	2024-11-08T22:00:00	8	Radiación solar	0
94953	7	Sololá	717	San Juan la Laguna	12	San Juan la Laguna	12	Diciembre	2023-12-14T00:00:00	2024-11-08T23:00:00	2	Temperatura media	16
94954	7	Sololá	717	San Juan la Laguna	12	San Juan la Laguna	12	Diciembre	2023-12-14T00:00:00	2024-11-08T23:00:00	4	Temperatura máxima	16.7
94955	7	Sololá	717	San Juan la Laguna	12	San Juan la Laguna	12	Diciembre	2023-12-14T00:00:00	2024-11-08T23:00:00	3	Temperatura mínima	16
94956	7	Sololá	717	San Juan la Laguna	12	San Juan la Laguna	12	Diciembre	2023-12-14T00:00:00	2024-11-08T23:00:00	5	Humedad	79
94957	7	Sololá	717	San Juan la Laguna	12	San Juan la Laguna	12	Diciembre	2023-12-14T00:00:00	2024-11-08T23:00:00	6	Velocidad del viento	4.8
94958	7	Sololá	717	San Juan la Laguna	12	San Juan la Laguna	12	Diciembre	2023-12-14T00:00:00	2024-11-08T23:00:00	7	Dirección del viento	4.83
94959	7	Sololá	717	San Juan la Laguna	12	San Juan la Laguna	12	Diciembre	2023-12-14T00:00:00	2024-11-08T23:00:00	1	Precipitación	0
94960	7	Sololá	717	San Juan la Laguna	12	San Juan la Laguna	12	Diciembre	2023-12-14T00:00:00	2024-11-08T23:00:00	8	Radiación solar	0
94961	7	Sololá	717	San Juan la Laguna	12	San Juan la Laguna	12	Diciembre	2023-12-15T00:00:00	2024-11-08T00:00:00	2	Temperatura media	15.6
94962	7	Sololá	717	San Juan la Laguna	12	San Juan la Laguna	12	Diciembre	2023-12-15T00:00:00	2024-11-08T00:00:00	4	Temperatura máxima	16
94963	7	Sololá	717	San Juan la Laguna	12	San Juan la Laguna	12	Diciembre	2023-12-15T00:00:00	2024-11-08T00:00:00	3	Temperatura mínima	15.6
94964	7	Sololá	717	San Juan la Laguna	12	San Juan la Laguna	12	Diciembre	2023-12-15T00:00:00	2024-11-08T00:00:00	5	Humedad	80
94965	7	Sololá	717	San Juan la Laguna	12	San Juan la Laguna	12	Diciembre	2023-12-15T00:00:00	2024-11-08T00:00:00	6	Velocidad del viento	6.4
94966	7	Sololá	717	San Juan la Laguna	12	San Juan la Laguna	12	Diciembre	2023-12-15T00:00:00	2024-11-08T00:00:00	7	Dirección del viento	6.44
94967	7	Sololá	717	San Juan la Laguna	12	San Juan la Laguna	12	Diciembre	2023-12-15T00:00:00	2024-11-08T00:00:00	1	Precipitación	0
94968	7	Sololá	717	San Juan la Laguna	12	San Juan la Laguna	12	Diciembre	2023-12-15T00:00:00	2024-11-08T00:00:00	8	Radiación solar	0
94969	7	Sololá	717	San Juan la Laguna	12	San Juan la Laguna	12	Diciembre	2023-12-15T00:00:00	2024-11-08T01:00:00	2	Temperatura media	15
94970	7	Sololá	717	San Juan la Laguna	12	San Juan la Laguna	12	Diciembre	2023-12-15T00:00:00	2024-11-08T01:00:00	4	Temperatura máxima	15.6
94971	7	Sololá	717	San Juan la Laguna	12	San Juan la Laguna	12	Diciembre	2023-12-15T00:00:00	2024-11-08T01:00:00	3	Temperatura mínima	15
94972	7	Sololá	717	San Juan la Laguna	12	San Juan la Laguna	12	Diciembre	2023-12-15T00:00:00	2024-11-08T01:00:00	5	Humedad	81
94973	7	Sololá	717	San Juan la Laguna	12	San Juan la Laguna	12	Diciembre	2023-12-15T00:00:00	2024-11-08T01:00:00	6	Velocidad del viento	6.4
94974	7	Sololá	717	San Juan la Laguna	12	San Juan la Laguna	12	Diciembre	2023-12-15T00:00:00	2024-11-08T01:00:00	7	Dirección del viento	6.44
94975	7	Sololá	717	San Juan la Laguna	12	San Juan la Laguna	12	Diciembre	2023-12-15T00:00:00	2024-11-08T01:00:00	1	Precipitación	0
94976	7	Sololá	717	San Juan la Laguna	12	San Juan la Laguna	12	Diciembre	2023-12-15T00:00:00	2024-11-08T01:00:00	8	Radiación solar	0
94977	7	Sololá	717	San Juan la Laguna	12	San Juan la Laguna	12	Diciembre	2023-12-15T00:00:00	2024-11-08T02:00:00	2	Temperatura media	14.8
94978	7	Sololá	717	San Juan la Laguna	12	San Juan la Laguna	12	Diciembre	2023-12-15T00:00:00	2024-11-08T02:00:00	4	Temperatura máxima	15.2
94979	7	Sololá	717	San Juan la Laguna	12	San Juan la Laguna	12	Diciembre	2023-12-15T00:00:00	2024-11-08T02:00:00	3	Temperatura mínima	14.8
94980	7	Sololá	717	San Juan la Laguna	12	San Juan la Laguna	12	Diciembre	2023-12-15T00:00:00	2024-11-08T02:00:00	5	Humedad	80
94981	7	Sololá	717	San Juan la Laguna	12	San Juan la Laguna	12	Diciembre	2023-12-15T00:00:00	2024-11-08T02:00:00	6	Velocidad del viento	6.4
94982	7	Sololá	717	San Juan la Laguna	12	San Juan la Laguna	12	Diciembre	2023-12-15T00:00:00	2024-11-08T02:00:00	7	Dirección del viento	6.44
94983	7	Sololá	717	San Juan la Laguna	12	San Juan la Laguna	12	Diciembre	2023-12-15T00:00:00	2024-11-08T02:00:00	1	Precipitación	0
94984	7	Sololá	717	San Juan la Laguna	12	San Juan la Laguna	12	Diciembre	2023-12-15T00:00:00	2024-11-08T02:00:00	8	Radiación solar	0
94985	7	Sololá	717	San Juan la Laguna	12	San Juan la Laguna	12	Diciembre	2023-12-15T00:00:00	2024-11-08T03:00:00	2	Temperatura media	14.4
94986	7	Sololá	717	San Juan la Laguna	12	San Juan la Laguna	12	Diciembre	2023-12-15T00:00:00	2024-11-08T03:00:00	4	Temperatura máxima	14.9
94987	7	Sololá	717	San Juan la Laguna	12	San Juan la Laguna	12	Diciembre	2023-12-15T00:00:00	2024-11-08T03:00:00	3	Temperatura mínima	14.4
94988	7	Sololá	717	San Juan la Laguna	12	San Juan la Laguna	12	Diciembre	2023-12-15T00:00:00	2024-11-08T03:00:00	5	Humedad	80
94989	7	Sololá	717	San Juan la Laguna	12	San Juan la Laguna	12	Diciembre	2023-12-15T00:00:00	2024-11-08T03:00:00	6	Velocidad del viento	6.4
94990	7	Sololá	717	San Juan la Laguna	12	San Juan la Laguna	12	Diciembre	2023-12-15T00:00:00	2024-11-08T03:00:00	7	Dirección del viento	6.44
94991	7	Sololá	717	San Juan la Laguna	12	San Juan la Laguna	12	Diciembre	2023-12-15T00:00:00	2024-11-08T03:00:00	1	Precipitación	0
94992	7	Sololá	717	San Juan la Laguna	12	San Juan la Laguna	12	Diciembre	2023-12-15T00:00:00	2024-11-08T03:00:00	8	Radiación solar	0
94993	7	Sololá	717	San Juan la Laguna	12	San Juan la Laguna	12	Diciembre	2023-12-15T00:00:00	2024-11-08T04:00:00	2	Temperatura media	14.3
94994	7	Sololá	717	San Juan la Laguna	12	San Juan la Laguna	12	Diciembre	2023-12-15T00:00:00	2024-11-08T04:00:00	4	Temperatura máxima	14.5
94995	7	Sololá	717	San Juan la Laguna	12	San Juan la Laguna	12	Diciembre	2023-12-15T00:00:00	2024-11-08T04:00:00	3	Temperatura mínima	14.3
94996	7	Sololá	717	San Juan la Laguna	12	San Juan la Laguna	12	Diciembre	2023-12-15T00:00:00	2024-11-08T04:00:00	5	Humedad	79
94997	7	Sololá	717	San Juan la Laguna	12	San Juan la Laguna	12	Diciembre	2023-12-15T00:00:00	2024-11-08T04:00:00	6	Velocidad del viento	6.4
94998	7	Sololá	717	San Juan la Laguna	12	San Juan la Laguna	12	Diciembre	2023-12-15T00:00:00	2024-11-08T04:00:00	7	Dirección del viento	6.44
94999	7	Sololá	717	San Juan la Laguna	12	San Juan la Laguna	12	Diciembre	2023-12-15T00:00:00	2024-11-08T04:00:00	1	Precipitación	0
95000	7	Sololá	717	San Juan la Laguna	12	San Juan la Laguna	12	Diciembre	2023-12-15T00:00:00	2024-11-08T04:00:00	8	Radiación solar	0
95001	7	Sololá	717	San Juan la Laguna	12	San Juan la Laguna	12	Diciembre	2023-12-15T00:00:00	2024-11-08T05:00:00	2	Temperatura media	14.3
95002	7	Sololá	717	San Juan la Laguna	12	San Juan la Laguna	12	Diciembre	2023-12-15T00:00:00	2024-11-08T05:00:00	4	Temperatura máxima	14.8
95003	7	Sololá	717	San Juan la Laguna	12	San Juan la Laguna	12	Diciembre	2023-12-15T00:00:00	2024-11-08T05:00:00	3	Temperatura mínima	14.2
95004	7	Sololá	717	San Juan la Laguna	12	San Juan la Laguna	12	Diciembre	2023-12-15T00:00:00	2024-11-08T05:00:00	5	Humedad	81
95005	7	Sololá	717	San Juan la Laguna	12	San Juan la Laguna	12	Diciembre	2023-12-15T00:00:00	2024-11-08T05:00:00	6	Velocidad del viento	6.4
95006	7	Sololá	717	San Juan la Laguna	12	San Juan la Laguna	12	Diciembre	2023-12-15T00:00:00	2024-11-08T05:00:00	7	Dirección del viento	6.44
95007	7	Sololá	717	San Juan la Laguna	12	San Juan la Laguna	12	Diciembre	2023-12-15T00:00:00	2024-11-08T05:00:00	1	Precipitación	0
95008	7	Sololá	717	San Juan la Laguna	12	San Juan la Laguna	12	Diciembre	2023-12-15T00:00:00	2024-11-08T05:00:00	8	Radiación solar	0
95009	7	Sololá	717	San Juan la Laguna	12	San Juan la Laguna	12	Diciembre	2023-12-15T00:00:00	2024-11-08T06:00:00	2	Temperatura media	14.5
95010	7	Sololá	717	San Juan la Laguna	12	San Juan la Laguna	12	Diciembre	2023-12-15T00:00:00	2024-11-08T06:00:00	4	Temperatura máxima	14.5
95011	7	Sololá	717	San Juan la Laguna	12	San Juan la Laguna	12	Diciembre	2023-12-15T00:00:00	2024-11-08T06:00:00	3	Temperatura mínima	14.1
95012	7	Sololá	717	San Juan la Laguna	12	San Juan la Laguna	12	Diciembre	2023-12-15T00:00:00	2024-11-08T06:00:00	5	Humedad	80
95013	7	Sololá	717	San Juan la Laguna	12	San Juan la Laguna	12	Diciembre	2023-12-15T00:00:00	2024-11-08T06:00:00	6	Velocidad del viento	6.4
95014	7	Sololá	717	San Juan la Laguna	12	San Juan la Laguna	12	Diciembre	2023-12-15T00:00:00	2024-11-08T06:00:00	7	Dirección del viento	6.44
95015	7	Sololá	717	San Juan la Laguna	12	San Juan la Laguna	12	Diciembre	2023-12-15T00:00:00	2024-11-08T06:00:00	1	Precipitación	0
95016	7	Sololá	717	San Juan la Laguna	12	San Juan la Laguna	12	Diciembre	2023-12-15T00:00:00	2024-11-08T06:00:00	8	Radiación solar	0
95017	7	Sololá	717	San Juan la Laguna	12	San Juan la Laguna	12	Diciembre	2023-12-15T00:00:00	2024-11-08T07:00:00	2	Temperatura media	15.3
95018	7	Sololá	717	San Juan la Laguna	12	San Juan la Laguna	12	Diciembre	2023-12-15T00:00:00	2024-11-08T07:00:00	4	Temperatura máxima	15.3
95019	7	Sololá	717	San Juan la Laguna	12	San Juan la Laguna	12	Diciembre	2023-12-15T00:00:00	2024-11-08T07:00:00	3	Temperatura mínima	14.1
95020	7	Sololá	717	San Juan la Laguna	12	San Juan la Laguna	12	Diciembre	2023-12-15T00:00:00	2024-11-08T07:00:00	5	Humedad	77
95021	7	Sololá	717	San Juan la Laguna	12	San Juan la Laguna	12	Diciembre	2023-12-15T00:00:00	2024-11-08T07:00:00	6	Velocidad del viento	6.4
95022	7	Sololá	717	San Juan la Laguna	12	San Juan la Laguna	12	Diciembre	2023-12-15T00:00:00	2024-11-08T07:00:00	7	Dirección del viento	6.44
95023	7	Sololá	717	San Juan la Laguna	12	San Juan la Laguna	12	Diciembre	2023-12-15T00:00:00	2024-11-08T07:00:00	1	Precipitación	0
95024	7	Sololá	717	San Juan la Laguna	12	San Juan la Laguna	12	Diciembre	2023-12-15T00:00:00	2024-11-08T07:00:00	8	Radiación solar	15
95025	7	Sololá	717	San Juan la Laguna	12	San Juan la Laguna	12	Diciembre	2023-12-15T00:00:00	2024-11-08T08:00:00	2	Temperatura media	17.2
95026	7	Sololá	717	San Juan la Laguna	12	San Juan la Laguna	12	Diciembre	2023-12-15T00:00:00	2024-11-08T08:00:00	4	Temperatura máxima	17.2
95027	7	Sololá	717	San Juan la Laguna	12	San Juan la Laguna	12	Diciembre	2023-12-15T00:00:00	2024-11-08T08:00:00	3	Temperatura mínima	15.3
95028	7	Sololá	717	San Juan la Laguna	12	San Juan la Laguna	12	Diciembre	2023-12-15T00:00:00	2024-11-08T08:00:00	5	Humedad	74
95029	7	Sololá	717	San Juan la Laguna	12	San Juan la Laguna	12	Diciembre	2023-12-15T00:00:00	2024-11-08T08:00:00	6	Velocidad del viento	4.8
95030	7	Sololá	717	San Juan la Laguna	12	San Juan la Laguna	12	Diciembre	2023-12-15T00:00:00	2024-11-08T08:00:00	7	Dirección del viento	4.83
95031	7	Sololá	717	San Juan la Laguna	12	San Juan la Laguna	12	Diciembre	2023-12-15T00:00:00	2024-11-08T08:00:00	1	Precipitación	0
95032	7	Sololá	717	San Juan la Laguna	12	San Juan la Laguna	12	Diciembre	2023-12-15T00:00:00	2024-11-08T08:00:00	8	Radiación solar	117
95033	7	Sololá	717	San Juan la Laguna	12	San Juan la Laguna	12	Diciembre	2023-12-15T00:00:00	2024-11-08T09:00:00	2	Temperatura media	21.3
95034	7	Sololá	717	San Juan la Laguna	12	San Juan la Laguna	12	Diciembre	2023-12-15T00:00:00	2024-11-08T09:00:00	4	Temperatura máxima	21.6
95035	7	Sololá	717	San Juan la Laguna	12	San Juan la Laguna	12	Diciembre	2023-12-15T00:00:00	2024-11-08T09:00:00	3	Temperatura mínima	17.2
95036	7	Sololá	717	San Juan la Laguna	12	San Juan la Laguna	12	Diciembre	2023-12-15T00:00:00	2024-11-08T09:00:00	5	Humedad	61
95037	7	Sololá	717	San Juan la Laguna	12	San Juan la Laguna	12	Diciembre	2023-12-15T00:00:00	2024-11-08T09:00:00	6	Velocidad del viento	1.6
95038	7	Sololá	717	San Juan la Laguna	12	San Juan la Laguna	12	Diciembre	2023-12-15T00:00:00	2024-11-08T09:00:00	7	Dirección del viento	1.61
95039	7	Sololá	717	San Juan la Laguna	12	San Juan la Laguna	12	Diciembre	2023-12-15T00:00:00	2024-11-08T09:00:00	1	Precipitación	0
95040	7	Sololá	717	San Juan la Laguna	12	San Juan la Laguna	12	Diciembre	2023-12-15T00:00:00	2024-11-08T09:00:00	8	Radiación solar	347
95041	7	Sololá	717	San Juan la Laguna	12	San Juan la Laguna	12	Diciembre	2023-12-15T00:00:00	2024-11-08T10:00:00	2	Temperatura media	21.8
95042	7	Sololá	717	San Juan la Laguna	12	San Juan la Laguna	12	Diciembre	2023-12-15T00:00:00	2024-11-08T10:00:00	4	Temperatura máxima	21.9
95043	7	Sololá	717	San Juan la Laguna	12	San Juan la Laguna	12	Diciembre	2023-12-15T00:00:00	2024-11-08T10:00:00	3	Temperatura mínima	21
95044	7	Sololá	717	San Juan la Laguna	12	San Juan la Laguna	12	Diciembre	2023-12-15T00:00:00	2024-11-08T10:00:00	5	Humedad	61
95045	7	Sololá	717	San Juan la Laguna	12	San Juan la Laguna	12	Diciembre	2023-12-15T00:00:00	2024-11-08T10:00:00	6	Velocidad del viento	4.8
95046	7	Sololá	717	San Juan la Laguna	12	San Juan la Laguna	12	Diciembre	2023-12-15T00:00:00	2024-11-08T10:00:00	7	Dirección del viento	4.83
95047	7	Sololá	717	San Juan la Laguna	12	San Juan la Laguna	12	Diciembre	2023-12-15T00:00:00	2024-11-08T10:00:00	1	Precipitación	0
95048	7	Sololá	717	San Juan la Laguna	12	San Juan la Laguna	12	Diciembre	2023-12-15T00:00:00	2024-11-08T10:00:00	8	Radiación solar	531
95049	7	Sololá	717	San Juan la Laguna	12	San Juan la Laguna	12	Diciembre	2023-12-15T00:00:00	2024-11-08T11:00:00	2	Temperatura media	22.9
95050	7	Sololá	717	San Juan la Laguna	12	San Juan la Laguna	12	Diciembre	2023-12-15T00:00:00	2024-11-08T11:00:00	4	Temperatura máxima	23.2
95051	7	Sololá	717	San Juan la Laguna	12	San Juan la Laguna	12	Diciembre	2023-12-15T00:00:00	2024-11-08T11:00:00	3	Temperatura mínima	21.4
95052	7	Sololá	717	San Juan la Laguna	12	San Juan la Laguna	12	Diciembre	2023-12-15T00:00:00	2024-11-08T11:00:00	5	Humedad	57
95053	7	Sololá	717	San Juan la Laguna	12	San Juan la Laguna	12	Diciembre	2023-12-15T00:00:00	2024-11-08T11:00:00	6	Velocidad del viento	4.8
95054	7	Sololá	717	San Juan la Laguna	12	San Juan la Laguna	12	Diciembre	2023-12-15T00:00:00	2024-11-08T11:00:00	7	Dirección del viento	4.83
95055	7	Sololá	717	San Juan la Laguna	12	San Juan la Laguna	12	Diciembre	2023-12-15T00:00:00	2024-11-08T11:00:00	1	Precipitación	0
95056	7	Sololá	717	San Juan la Laguna	12	San Juan la Laguna	12	Diciembre	2023-12-15T00:00:00	2024-11-08T11:00:00	8	Radiación solar	541
95057	7	Sololá	717	San Juan la Laguna	12	San Juan la Laguna	12	Diciembre	2023-12-15T00:00:00	2024-11-08T12:00:00	2	Temperatura media	23.8
95058	7	Sololá	717	San Juan la Laguna	12	San Juan la Laguna	12	Diciembre	2023-12-15T00:00:00	2024-11-08T12:00:00	4	Temperatura máxima	23.9
95059	7	Sololá	717	San Juan la Laguna	12	San Juan la Laguna	12	Diciembre	2023-12-15T00:00:00	2024-11-08T12:00:00	3	Temperatura mínima	22.7
95060	7	Sololá	717	San Juan la Laguna	12	San Juan la Laguna	12	Diciembre	2023-12-15T00:00:00	2024-11-08T12:00:00	5	Humedad	53
95061	7	Sololá	717	San Juan la Laguna	12	San Juan la Laguna	12	Diciembre	2023-12-15T00:00:00	2024-11-08T12:00:00	6	Velocidad del viento	6.4
95062	7	Sololá	717	San Juan la Laguna	12	San Juan la Laguna	12	Diciembre	2023-12-15T00:00:00	2024-11-08T12:00:00	7	Dirección del viento	6.44
95063	7	Sololá	717	San Juan la Laguna	12	San Juan la Laguna	12	Diciembre	2023-12-15T00:00:00	2024-11-08T12:00:00	1	Precipitación	0
95064	7	Sololá	717	San Juan la Laguna	12	San Juan la Laguna	12	Diciembre	2023-12-15T00:00:00	2024-11-08T12:00:00	8	Radiación solar	687
95065	7	Sololá	717	San Juan la Laguna	12	San Juan la Laguna	12	Diciembre	2023-12-15T00:00:00	2024-11-08T13:00:00	2	Temperatura media	24.3
95066	7	Sololá	717	San Juan la Laguna	12	San Juan la Laguna	12	Diciembre	2023-12-15T00:00:00	2024-11-08T13:00:00	4	Temperatura máxima	24.4
95067	7	Sololá	717	San Juan la Laguna	12	San Juan la Laguna	12	Diciembre	2023-12-15T00:00:00	2024-11-08T13:00:00	3	Temperatura mínima	23.5
95068	7	Sololá	717	San Juan la Laguna	12	San Juan la Laguna	12	Diciembre	2023-12-15T00:00:00	2024-11-08T13:00:00	5	Humedad	54
95069	7	Sololá	717	San Juan la Laguna	12	San Juan la Laguna	12	Diciembre	2023-12-15T00:00:00	2024-11-08T13:00:00	6	Velocidad del viento	6.4
95070	7	Sololá	717	San Juan la Laguna	12	San Juan la Laguna	12	Diciembre	2023-12-15T00:00:00	2024-11-08T13:00:00	7	Dirección del viento	6.44
95071	7	Sololá	717	San Juan la Laguna	12	San Juan la Laguna	12	Diciembre	2023-12-15T00:00:00	2024-11-08T13:00:00	1	Precipitación	0
95072	7	Sololá	717	San Juan la Laguna	12	San Juan la Laguna	12	Diciembre	2023-12-15T00:00:00	2024-11-08T13:00:00	8	Radiación solar	641
95073	7	Sololá	717	San Juan la Laguna	12	San Juan la Laguna	12	Diciembre	2023-12-15T00:00:00	2024-11-08T14:00:00	2	Temperatura media	23.6
95074	7	Sololá	717	San Juan la Laguna	12	San Juan la Laguna	12	Diciembre	2023-12-15T00:00:00	2024-11-08T14:00:00	4	Temperatura máxima	24.4
95075	7	Sololá	717	San Juan la Laguna	12	San Juan la Laguna	12	Diciembre	2023-12-15T00:00:00	2024-11-08T14:00:00	3	Temperatura mínima	23.4
95076	7	Sololá	717	San Juan la Laguna	12	San Juan la Laguna	12	Diciembre	2023-12-15T00:00:00	2024-11-08T14:00:00	5	Humedad	68
95077	7	Sololá	717	San Juan la Laguna	12	San Juan la Laguna	12	Diciembre	2023-12-15T00:00:00	2024-11-08T14:00:00	6	Velocidad del viento	9.7
95078	7	Sololá	717	San Juan la Laguna	12	San Juan la Laguna	12	Diciembre	2023-12-15T00:00:00	2024-11-08T14:00:00	7	Dirección del viento	9.66
95079	7	Sololá	717	San Juan la Laguna	12	San Juan la Laguna	12	Diciembre	2023-12-15T00:00:00	2024-11-08T14:00:00	1	Precipitación	0
95080	7	Sololá	717	San Juan la Laguna	12	San Juan la Laguna	12	Diciembre	2023-12-15T00:00:00	2024-11-08T14:00:00	8	Radiación solar	628
95081	7	Sololá	717	San Juan la Laguna	12	San Juan la Laguna	12	Diciembre	2023-12-15T00:00:00	2024-11-08T15:00:00	2	Temperatura media	22.4
95082	7	Sololá	717	San Juan la Laguna	12	San Juan la Laguna	12	Diciembre	2023-12-15T00:00:00	2024-11-08T15:00:00	4	Temperatura máxima	23.8
95083	7	Sololá	717	San Juan la Laguna	12	San Juan la Laguna	12	Diciembre	2023-12-15T00:00:00	2024-11-08T15:00:00	3	Temperatura mínima	22.4
95084	7	Sololá	717	San Juan la Laguna	12	San Juan la Laguna	12	Diciembre	2023-12-15T00:00:00	2024-11-08T15:00:00	5	Humedad	72
95085	7	Sololá	717	San Juan la Laguna	12	San Juan la Laguna	12	Diciembre	2023-12-15T00:00:00	2024-11-08T15:00:00	6	Velocidad del viento	12.9
95086	7	Sololá	717	San Juan la Laguna	12	San Juan la Laguna	12	Diciembre	2023-12-15T00:00:00	2024-11-08T15:00:00	7	Dirección del viento	12.87
95087	7	Sololá	717	San Juan la Laguna	12	San Juan la Laguna	12	Diciembre	2023-12-15T00:00:00	2024-11-08T15:00:00	1	Precipitación	0
95088	7	Sololá	717	San Juan la Laguna	12	San Juan la Laguna	12	Diciembre	2023-12-15T00:00:00	2024-11-08T15:00:00	8	Radiación solar	570
95089	7	Sololá	717	San Juan la Laguna	12	San Juan la Laguna	12	Diciembre	2023-12-15T00:00:00	2024-11-08T16:00:00	2	Temperatura media	20.7
95090	7	Sololá	717	San Juan la Laguna	12	San Juan la Laguna	12	Diciembre	2023-12-15T00:00:00	2024-11-08T16:00:00	4	Temperatura máxima	22.4
95091	7	Sololá	717	San Juan la Laguna	12	San Juan la Laguna	12	Diciembre	2023-12-15T00:00:00	2024-11-08T16:00:00	3	Temperatura mínima	20.7
95092	7	Sololá	717	San Juan la Laguna	12	San Juan la Laguna	12	Diciembre	2023-12-15T00:00:00	2024-11-08T16:00:00	5	Humedad	77
95093	7	Sololá	717	San Juan la Laguna	12	San Juan la Laguna	12	Diciembre	2023-12-15T00:00:00	2024-11-08T16:00:00	6	Velocidad del viento	12.9
95094	7	Sololá	717	San Juan la Laguna	12	San Juan la Laguna	12	Diciembre	2023-12-15T00:00:00	2024-11-08T16:00:00	7	Dirección del viento	12.87
95095	7	Sololá	717	San Juan la Laguna	12	San Juan la Laguna	12	Diciembre	2023-12-15T00:00:00	2024-11-08T16:00:00	1	Precipitación	0
95096	7	Sololá	717	San Juan la Laguna	12	San Juan la Laguna	12	Diciembre	2023-12-15T00:00:00	2024-11-08T16:00:00	8	Radiación solar	285
95097	7	Sololá	717	San Juan la Laguna	12	San Juan la Laguna	12	Diciembre	2023-12-15T00:00:00	2024-11-08T17:00:00	2	Temperatura media	20.4
95098	7	Sololá	717	San Juan la Laguna	12	San Juan la Laguna	12	Diciembre	2023-12-15T00:00:00	2024-11-08T17:00:00	4	Temperatura máxima	20.8
95099	7	Sololá	717	San Juan la Laguna	12	San Juan la Laguna	12	Diciembre	2023-12-15T00:00:00	2024-11-08T17:00:00	3	Temperatura mínima	20.2
95100	7	Sololá	717	San Juan la Laguna	12	San Juan la Laguna	12	Diciembre	2023-12-15T00:00:00	2024-11-08T17:00:00	5	Humedad	77
95101	7	Sololá	717	San Juan la Laguna	12	San Juan la Laguna	12	Diciembre	2023-12-15T00:00:00	2024-11-08T17:00:00	6	Velocidad del viento	8
95102	7	Sololá	717	San Juan la Laguna	12	San Juan la Laguna	12	Diciembre	2023-12-15T00:00:00	2024-11-08T17:00:00	7	Dirección del viento	8.05
95103	7	Sololá	717	San Juan la Laguna	12	San Juan la Laguna	12	Diciembre	2023-12-15T00:00:00	2024-11-08T17:00:00	1	Precipitación	0
95104	7	Sololá	717	San Juan la Laguna	12	San Juan la Laguna	12	Diciembre	2023-12-15T00:00:00	2024-11-08T17:00:00	8	Radiación solar	80
95105	7	Sololá	717	San Juan la Laguna	12	San Juan la Laguna	12	Diciembre	2023-12-15T00:00:00	2024-11-08T18:00:00	2	Temperatura media	20
95106	7	Sololá	717	San Juan la Laguna	12	San Juan la Laguna	12	Diciembre	2023-12-15T00:00:00	2024-11-08T18:00:00	4	Temperatura máxima	20.4
95107	7	Sololá	717	San Juan la Laguna	12	San Juan la Laguna	12	Diciembre	2023-12-15T00:00:00	2024-11-08T18:00:00	3	Temperatura mínima	19.9
95108	7	Sololá	717	San Juan la Laguna	12	San Juan la Laguna	12	Diciembre	2023-12-15T00:00:00	2024-11-08T18:00:00	5	Humedad	80
95109	7	Sololá	717	San Juan la Laguna	12	San Juan la Laguna	12	Diciembre	2023-12-15T00:00:00	2024-11-08T18:00:00	6	Velocidad del viento	3.2
95110	7	Sololá	717	San Juan la Laguna	12	San Juan la Laguna	12	Diciembre	2023-12-15T00:00:00	2024-11-08T18:00:00	7	Dirección del viento	3.22
95111	7	Sololá	717	San Juan la Laguna	12	San Juan la Laguna	12	Diciembre	2023-12-15T00:00:00	2024-11-08T18:00:00	1	Precipitación	0
95112	7	Sololá	717	San Juan la Laguna	12	San Juan la Laguna	12	Diciembre	2023-12-15T00:00:00	2024-11-08T18:00:00	8	Radiación solar	4
95113	7	Sololá	717	San Juan la Laguna	12	San Juan la Laguna	12	Diciembre	2023-12-15T00:00:00	2024-11-08T19:00:00	2	Temperatura media	19.6
95114	7	Sololá	717	San Juan la Laguna	12	San Juan la Laguna	12	Diciembre	2023-12-15T00:00:00	2024-11-08T19:00:00	4	Temperatura máxima	20
95115	7	Sololá	717	San Juan la Laguna	12	San Juan la Laguna	12	Diciembre	2023-12-15T00:00:00	2024-11-08T19:00:00	3	Temperatura mínima	19.6
95116	7	Sololá	717	San Juan la Laguna	12	San Juan la Laguna	12	Diciembre	2023-12-15T00:00:00	2024-11-08T19:00:00	5	Humedad	82
95117	7	Sololá	717	San Juan la Laguna	12	San Juan la Laguna	12	Diciembre	2023-12-15T00:00:00	2024-11-08T19:00:00	6	Velocidad del viento	3.2
95118	7	Sololá	717	San Juan la Laguna	12	San Juan la Laguna	12	Diciembre	2023-12-15T00:00:00	2024-11-08T19:00:00	7	Dirección del viento	3.22
95119	7	Sololá	717	San Juan la Laguna	12	San Juan la Laguna	12	Diciembre	2023-12-15T00:00:00	2024-11-08T19:00:00	1	Precipitación	0
95120	7	Sololá	717	San Juan la Laguna	12	San Juan la Laguna	12	Diciembre	2023-12-15T00:00:00	2024-11-08T19:00:00	8	Radiación solar	0
95121	7	Sololá	717	San Juan la Laguna	12	San Juan la Laguna	12	Diciembre	2023-12-15T00:00:00	2024-11-08T20:00:00	2	Temperatura media	19.1
95122	7	Sololá	717	San Juan la Laguna	12	San Juan la Laguna	12	Diciembre	2023-12-15T00:00:00	2024-11-08T20:00:00	4	Temperatura máxima	19.7
95123	7	Sololá	717	San Juan la Laguna	12	San Juan la Laguna	12	Diciembre	2023-12-15T00:00:00	2024-11-08T20:00:00	3	Temperatura mínima	19.1
95124	7	Sololá	717	San Juan la Laguna	12	San Juan la Laguna	12	Diciembre	2023-12-15T00:00:00	2024-11-08T20:00:00	5	Humedad	86
95125	7	Sololá	717	San Juan la Laguna	12	San Juan la Laguna	12	Diciembre	2023-12-15T00:00:00	2024-11-08T20:00:00	6	Velocidad del viento	1.6
95126	7	Sololá	717	San Juan la Laguna	12	San Juan la Laguna	12	Diciembre	2023-12-15T00:00:00	2024-11-08T20:00:00	7	Dirección del viento	1.61
95127	7	Sololá	717	San Juan la Laguna	12	San Juan la Laguna	12	Diciembre	2023-12-15T00:00:00	2024-11-08T20:00:00	1	Precipitación	0
95128	7	Sololá	717	San Juan la Laguna	12	San Juan la Laguna	12	Diciembre	2023-12-15T00:00:00	2024-11-08T20:00:00	8	Radiación solar	0
95129	7	Sololá	717	San Juan la Laguna	12	San Juan la Laguna	12	Diciembre	2023-12-15T00:00:00	2024-11-08T21:00:00	2	Temperatura media	17.9
95130	7	Sololá	717	San Juan la Laguna	12	San Juan la Laguna	12	Diciembre	2023-12-15T00:00:00	2024-11-08T21:00:00	4	Temperatura máxima	19.1
95131	7	Sololá	717	San Juan la Laguna	12	San Juan la Laguna	12	Diciembre	2023-12-15T00:00:00	2024-11-08T21:00:00	3	Temperatura mínima	17.9
95132	7	Sololá	717	San Juan la Laguna	12	San Juan la Laguna	12	Diciembre	2023-12-15T00:00:00	2024-11-08T21:00:00	5	Humedad	89
95133	7	Sololá	717	San Juan la Laguna	12	San Juan la Laguna	12	Diciembre	2023-12-15T00:00:00	2024-11-08T21:00:00	6	Velocidad del viento	3.2
95134	7	Sololá	717	San Juan la Laguna	12	San Juan la Laguna	12	Diciembre	2023-12-15T00:00:00	2024-11-08T21:00:00	7	Dirección del viento	3.22
95135	7	Sololá	717	San Juan la Laguna	12	San Juan la Laguna	12	Diciembre	2023-12-15T00:00:00	2024-11-08T21:00:00	1	Precipitación	0.2
95136	7	Sololá	717	San Juan la Laguna	12	San Juan la Laguna	12	Diciembre	2023-12-15T00:00:00	2024-11-08T21:00:00	8	Radiación solar	0
95137	7	Sololá	717	San Juan la Laguna	12	San Juan la Laguna	12	Diciembre	2023-12-15T00:00:00	2024-11-08T22:00:00	2	Temperatura media	17.7
95138	7	Sololá	717	San Juan la Laguna	12	San Juan la Laguna	12	Diciembre	2023-12-15T00:00:00	2024-11-08T22:00:00	4	Temperatura máxima	18.2
95139	7	Sololá	717	San Juan la Laguna	12	San Juan la Laguna	12	Diciembre	2023-12-15T00:00:00	2024-11-08T22:00:00	3	Temperatura mínima	17.7
95140	7	Sololá	717	San Juan la Laguna	12	San Juan la Laguna	12	Diciembre	2023-12-15T00:00:00	2024-11-08T22:00:00	5	Humedad	89
95141	7	Sololá	717	San Juan la Laguna	12	San Juan la Laguna	12	Diciembre	2023-12-15T00:00:00	2024-11-08T22:00:00	6	Velocidad del viento	3.2
95142	7	Sololá	717	San Juan la Laguna	12	San Juan la Laguna	12	Diciembre	2023-12-15T00:00:00	2024-11-08T22:00:00	7	Dirección del viento	3.22
95143	7	Sololá	717	San Juan la Laguna	12	San Juan la Laguna	12	Diciembre	2023-12-15T00:00:00	2024-11-08T22:00:00	1	Precipitación	0
95144	7	Sololá	717	San Juan la Laguna	12	San Juan la Laguna	12	Diciembre	2023-12-15T00:00:00	2024-11-08T22:00:00	8	Radiación solar	0
95145	7	Sololá	717	San Juan la Laguna	12	San Juan la Laguna	12	Diciembre	2023-12-15T00:00:00	2024-11-08T23:00:00	2	Temperatura media	16.9
95146	7	Sololá	717	San Juan la Laguna	12	San Juan la Laguna	12	Diciembre	2023-12-15T00:00:00	2024-11-08T23:00:00	4	Temperatura máxima	17.7
95147	7	Sololá	717	San Juan la Laguna	12	San Juan la Laguna	12	Diciembre	2023-12-15T00:00:00	2024-11-08T23:00:00	3	Temperatura mínima	16.9
95148	7	Sololá	717	San Juan la Laguna	12	San Juan la Laguna	12	Diciembre	2023-12-15T00:00:00	2024-11-08T23:00:00	5	Humedad	89
95149	7	Sololá	717	San Juan la Laguna	12	San Juan la Laguna	12	Diciembre	2023-12-15T00:00:00	2024-11-08T23:00:00	6	Velocidad del viento	3.2
95150	7	Sololá	717	San Juan la Laguna	12	San Juan la Laguna	12	Diciembre	2023-12-15T00:00:00	2024-11-08T23:00:00	7	Dirección del viento	3.22
95151	7	Sololá	717	San Juan la Laguna	12	San Juan la Laguna	12	Diciembre	2023-12-15T00:00:00	2024-11-08T23:00:00	1	Precipitación	0
95152	7	Sololá	717	San Juan la Laguna	12	San Juan la Laguna	12	Diciembre	2023-12-15T00:00:00	2024-11-08T23:00:00	8	Radiación solar	0
95153	7	Sololá	717	San Juan la Laguna	12	San Juan la Laguna	12	Diciembre	2023-12-16T00:00:00	2024-11-08T00:00:00	2	Temperatura media	17.1
95154	7	Sololá	717	San Juan la Laguna	12	San Juan la Laguna	12	Diciembre	2023-12-16T00:00:00	2024-11-08T00:00:00	4	Temperatura máxima	17.2
95155	7	Sololá	717	San Juan la Laguna	12	San Juan la Laguna	12	Diciembre	2023-12-16T00:00:00	2024-11-08T00:00:00	3	Temperatura mínima	16.9
95156	7	Sololá	717	San Juan la Laguna	12	San Juan la Laguna	12	Diciembre	2023-12-16T00:00:00	2024-11-08T00:00:00	5	Humedad	88
95157	7	Sololá	717	San Juan la Laguna	12	San Juan la Laguna	12	Diciembre	2023-12-16T00:00:00	2024-11-08T00:00:00	6	Velocidad del viento	3.2
95158	7	Sololá	717	San Juan la Laguna	12	San Juan la Laguna	12	Diciembre	2023-12-16T00:00:00	2024-11-08T00:00:00	7	Dirección del viento	3.22
95159	7	Sololá	717	San Juan la Laguna	12	San Juan la Laguna	12	Diciembre	2023-12-16T00:00:00	2024-11-08T00:00:00	1	Precipitación	0
95160	7	Sololá	717	San Juan la Laguna	12	San Juan la Laguna	12	Diciembre	2023-12-16T00:00:00	2024-11-08T00:00:00	8	Radiación solar	0
95161	7	Sololá	717	San Juan la Laguna	12	San Juan la Laguna	12	Diciembre	2023-12-16T00:00:00	2024-11-08T01:00:00	2	Temperatura media	17.1
95162	7	Sololá	717	San Juan la Laguna	12	San Juan la Laguna	12	Diciembre	2023-12-16T00:00:00	2024-11-08T01:00:00	4	Temperatura máxima	17.2
95163	7	Sololá	717	San Juan la Laguna	12	San Juan la Laguna	12	Diciembre	2023-12-16T00:00:00	2024-11-08T01:00:00	3	Temperatura mínima	16.8
95164	7	Sololá	717	San Juan la Laguna	12	San Juan la Laguna	12	Diciembre	2023-12-16T00:00:00	2024-11-08T01:00:00	5	Humedad	88
95165	7	Sololá	717	San Juan la Laguna	12	San Juan la Laguna	12	Diciembre	2023-12-16T00:00:00	2024-11-08T01:00:00	6	Velocidad del viento	3.2
95166	7	Sololá	717	San Juan la Laguna	12	San Juan la Laguna	12	Diciembre	2023-12-16T00:00:00	2024-11-08T01:00:00	7	Dirección del viento	3.22
95167	7	Sololá	717	San Juan la Laguna	12	San Juan la Laguna	12	Diciembre	2023-12-16T00:00:00	2024-11-08T01:00:00	1	Precipitación	0
95168	7	Sololá	717	San Juan la Laguna	12	San Juan la Laguna	12	Diciembre	2023-12-16T00:00:00	2024-11-08T01:00:00	8	Radiación solar	0
95169	7	Sololá	717	San Juan la Laguna	12	San Juan la Laguna	12	Diciembre	2023-12-16T00:00:00	2024-11-08T02:00:00	2	Temperatura media	16.4
95170	7	Sololá	717	San Juan la Laguna	12	San Juan la Laguna	12	Diciembre	2023-12-16T00:00:00	2024-11-08T02:00:00	4	Temperatura máxima	17.1
95171	7	Sololá	717	San Juan la Laguna	12	San Juan la Laguna	12	Diciembre	2023-12-16T00:00:00	2024-11-08T02:00:00	3	Temperatura mínima	16.4
95172	7	Sololá	717	San Juan la Laguna	12	San Juan la Laguna	12	Diciembre	2023-12-16T00:00:00	2024-11-08T02:00:00	5	Humedad	87
95173	7	Sololá	717	San Juan la Laguna	12	San Juan la Laguna	12	Diciembre	2023-12-16T00:00:00	2024-11-08T02:00:00	6	Velocidad del viento	3.2
95174	7	Sololá	717	San Juan la Laguna	12	San Juan la Laguna	12	Diciembre	2023-12-16T00:00:00	2024-11-08T02:00:00	7	Dirección del viento	3.22
95175	7	Sololá	717	San Juan la Laguna	12	San Juan la Laguna	12	Diciembre	2023-12-16T00:00:00	2024-11-08T02:00:00	1	Precipitación	0
95176	7	Sololá	717	San Juan la Laguna	12	San Juan la Laguna	12	Diciembre	2023-12-16T00:00:00	2024-11-08T02:00:00	8	Radiación solar	0
95177	7	Sololá	717	San Juan la Laguna	12	San Juan la Laguna	12	Diciembre	2023-12-16T00:00:00	2024-11-08T03:00:00	2	Temperatura media	15.7
95178	7	Sololá	717	San Juan la Laguna	12	San Juan la Laguna	12	Diciembre	2023-12-16T00:00:00	2024-11-08T03:00:00	4	Temperatura máxima	16.6
95179	7	Sololá	717	San Juan la Laguna	12	San Juan la Laguna	12	Diciembre	2023-12-16T00:00:00	2024-11-08T03:00:00	3	Temperatura mínima	15.7
95180	7	Sololá	717	San Juan la Laguna	12	San Juan la Laguna	12	Diciembre	2023-12-16T00:00:00	2024-11-08T03:00:00	5	Humedad	88
95181	7	Sololá	717	San Juan la Laguna	12	San Juan la Laguna	12	Diciembre	2023-12-16T00:00:00	2024-11-08T03:00:00	6	Velocidad del viento	3.2
95182	7	Sololá	717	San Juan la Laguna	12	San Juan la Laguna	12	Diciembre	2023-12-16T00:00:00	2024-11-08T03:00:00	7	Dirección del viento	3.22
95183	7	Sololá	717	San Juan la Laguna	12	San Juan la Laguna	12	Diciembre	2023-12-16T00:00:00	2024-11-08T03:00:00	1	Precipitación	0
95184	7	Sololá	717	San Juan la Laguna	12	San Juan la Laguna	12	Diciembre	2023-12-16T00:00:00	2024-11-08T03:00:00	8	Radiación solar	0
95185	7	Sololá	717	San Juan la Laguna	12	San Juan la Laguna	12	Diciembre	2023-12-16T00:00:00	2024-11-08T04:00:00	2	Temperatura media	15.1
95186	7	Sololá	717	San Juan la Laguna	12	San Juan la Laguna	12	Diciembre	2023-12-16T00:00:00	2024-11-08T04:00:00	4	Temperatura máxima	15.7
95187	7	Sololá	717	San Juan la Laguna	12	San Juan la Laguna	12	Diciembre	2023-12-16T00:00:00	2024-11-08T04:00:00	3	Temperatura mínima	15
95188	7	Sololá	717	San Juan la Laguna	12	San Juan la Laguna	12	Diciembre	2023-12-16T00:00:00	2024-11-08T04:00:00	5	Humedad	88
95189	7	Sololá	717	San Juan la Laguna	12	San Juan la Laguna	12	Diciembre	2023-12-16T00:00:00	2024-11-08T04:00:00	6	Velocidad del viento	3.2
95190	7	Sololá	717	San Juan la Laguna	12	San Juan la Laguna	12	Diciembre	2023-12-16T00:00:00	2024-11-08T04:00:00	7	Dirección del viento	3.22
95191	7	Sololá	717	San Juan la Laguna	12	San Juan la Laguna	12	Diciembre	2023-12-16T00:00:00	2024-11-08T04:00:00	1	Precipitación	0
95192	7	Sololá	717	San Juan la Laguna	12	San Juan la Laguna	12	Diciembre	2023-12-16T00:00:00	2024-11-08T04:00:00	8	Radiación solar	0
95193	7	Sololá	717	San Juan la Laguna	12	San Juan la Laguna	12	Diciembre	2023-12-16T00:00:00	2024-11-08T05:00:00	2	Temperatura media	15.1
95194	7	Sololá	717	San Juan la Laguna	12	San Juan la Laguna	12	Diciembre	2023-12-16T00:00:00	2024-11-08T05:00:00	4	Temperatura máxima	15.1
95195	7	Sololá	717	San Juan la Laguna	12	San Juan la Laguna	12	Diciembre	2023-12-16T00:00:00	2024-11-08T05:00:00	3	Temperatura mínima	14.9
95196	7	Sololá	717	San Juan la Laguna	12	San Juan la Laguna	12	Diciembre	2023-12-16T00:00:00	2024-11-08T05:00:00	5	Humedad	87
95197	7	Sololá	717	San Juan la Laguna	12	San Juan la Laguna	12	Diciembre	2023-12-16T00:00:00	2024-11-08T05:00:00	6	Velocidad del viento	4.8
95198	7	Sololá	717	San Juan la Laguna	12	San Juan la Laguna	12	Diciembre	2023-12-16T00:00:00	2024-11-08T05:00:00	7	Dirección del viento	4.83
95199	7	Sololá	717	San Juan la Laguna	12	San Juan la Laguna	12	Diciembre	2023-12-16T00:00:00	2024-11-08T05:00:00	1	Precipitación	0
95200	7	Sololá	717	San Juan la Laguna	12	San Juan la Laguna	12	Diciembre	2023-12-16T00:00:00	2024-11-08T05:00:00	8	Radiación solar	0
95201	7	Sololá	717	San Juan la Laguna	12	San Juan la Laguna	12	Diciembre	2023-12-16T00:00:00	2024-11-08T06:00:00	2	Temperatura media	14.7
95202	7	Sololá	717	San Juan la Laguna	12	San Juan la Laguna	12	Diciembre	2023-12-16T00:00:00	2024-11-08T06:00:00	4	Temperatura máxima	15.1
95203	7	Sololá	717	San Juan la Laguna	12	San Juan la Laguna	12	Diciembre	2023-12-16T00:00:00	2024-11-08T06:00:00	3	Temperatura mínima	14.6
95204	7	Sololá	717	San Juan la Laguna	12	San Juan la Laguna	12	Diciembre	2023-12-16T00:00:00	2024-11-08T06:00:00	5	Humedad	87
95205	7	Sololá	717	San Juan la Laguna	12	San Juan la Laguna	12	Diciembre	2023-12-16T00:00:00	2024-11-08T06:00:00	6	Velocidad del viento	3.2
95206	7	Sololá	717	San Juan la Laguna	12	San Juan la Laguna	12	Diciembre	2023-12-16T00:00:00	2024-11-08T06:00:00	7	Dirección del viento	3.22
95207	7	Sololá	717	San Juan la Laguna	12	San Juan la Laguna	12	Diciembre	2023-12-16T00:00:00	2024-11-08T06:00:00	1	Precipitación	0
95208	7	Sololá	717	San Juan la Laguna	12	San Juan la Laguna	12	Diciembre	2023-12-16T00:00:00	2024-11-08T06:00:00	8	Radiación solar	0
95209	7	Sololá	717	San Juan la Laguna	12	San Juan la Laguna	12	Diciembre	2023-12-16T00:00:00	2024-11-08T07:00:00	2	Temperatura media	14.5
95210	7	Sololá	717	San Juan la Laguna	12	San Juan la Laguna	12	Diciembre	2023-12-16T00:00:00	2024-11-08T07:00:00	4	Temperatura máxima	14.7
95211	7	Sololá	717	San Juan la Laguna	12	San Juan la Laguna	12	Diciembre	2023-12-16T00:00:00	2024-11-08T07:00:00	3	Temperatura mínima	14.2
95212	7	Sololá	717	San Juan la Laguna	12	San Juan la Laguna	12	Diciembre	2023-12-16T00:00:00	2024-11-08T07:00:00	5	Humedad	86
95213	7	Sololá	717	San Juan la Laguna	12	San Juan la Laguna	12	Diciembre	2023-12-16T00:00:00	2024-11-08T07:00:00	6	Velocidad del viento	3.2
95214	7	Sololá	717	San Juan la Laguna	12	San Juan la Laguna	12	Diciembre	2023-12-16T00:00:00	2024-11-08T07:00:00	7	Dirección del viento	3.22
95215	7	Sololá	717	San Juan la Laguna	12	San Juan la Laguna	12	Diciembre	2023-12-16T00:00:00	2024-11-08T07:00:00	1	Precipitación	0
95216	7	Sololá	717	San Juan la Laguna	12	San Juan la Laguna	12	Diciembre	2023-12-16T00:00:00	2024-11-08T07:00:00	8	Radiación solar	9
95217	7	Sololá	717	San Juan la Laguna	12	San Juan la Laguna	12	Diciembre	2023-12-16T00:00:00	2024-11-08T08:00:00	2	Temperatura media	16.7
95218	7	Sololá	717	San Juan la Laguna	12	San Juan la Laguna	12	Diciembre	2023-12-16T00:00:00	2024-11-08T08:00:00	4	Temperatura máxima	16.7
95219	7	Sololá	717	San Juan la Laguna	12	San Juan la Laguna	12	Diciembre	2023-12-16T00:00:00	2024-11-08T08:00:00	3	Temperatura mínima	14.5
95220	7	Sololá	717	San Juan la Laguna	12	San Juan la Laguna	12	Diciembre	2023-12-16T00:00:00	2024-11-08T08:00:00	5	Humedad	83
95221	7	Sololá	717	San Juan la Laguna	12	San Juan la Laguna	12	Diciembre	2023-12-16T00:00:00	2024-11-08T08:00:00	6	Velocidad del viento	3.2
95222	7	Sololá	717	San Juan la Laguna	12	San Juan la Laguna	12	Diciembre	2023-12-16T00:00:00	2024-11-08T08:00:00	7	Dirección del viento	3.22
95223	7	Sololá	717	San Juan la Laguna	12	San Juan la Laguna	12	Diciembre	2023-12-16T00:00:00	2024-11-08T08:00:00	1	Precipitación	0
95224	7	Sololá	717	San Juan la Laguna	12	San Juan la Laguna	12	Diciembre	2023-12-16T00:00:00	2024-11-08T08:00:00	8	Radiación solar	120
95225	7	Sololá	717	San Juan la Laguna	12	San Juan la Laguna	12	Diciembre	2023-12-16T00:00:00	2024-11-08T09:00:00	2	Temperatura media	20.7
95226	7	Sololá	717	San Juan la Laguna	12	San Juan la Laguna	12	Diciembre	2023-12-16T00:00:00	2024-11-08T09:00:00	4	Temperatura máxima	20.7
95227	7	Sololá	717	San Juan la Laguna	12	San Juan la Laguna	12	Diciembre	2023-12-16T00:00:00	2024-11-08T09:00:00	3	Temperatura mínima	16.7
95228	7	Sololá	717	San Juan la Laguna	12	San Juan la Laguna	12	Diciembre	2023-12-16T00:00:00	2024-11-08T09:00:00	5	Humedad	76
95229	7	Sololá	717	San Juan la Laguna	12	San Juan la Laguna	12	Diciembre	2023-12-16T00:00:00	2024-11-08T09:00:00	6	Velocidad del viento	1.6
95230	7	Sololá	717	San Juan la Laguna	12	San Juan la Laguna	12	Diciembre	2023-12-16T00:00:00	2024-11-08T09:00:00	7	Dirección del viento	1.61
95231	7	Sololá	717	San Juan la Laguna	12	San Juan la Laguna	12	Diciembre	2023-12-16T00:00:00	2024-11-08T09:00:00	1	Precipitación	0
95232	7	Sololá	717	San Juan la Laguna	12	San Juan la Laguna	12	Diciembre	2023-12-16T00:00:00	2024-11-08T09:00:00	8	Radiación solar	337
95233	7	Sololá	717	San Juan la Laguna	12	San Juan la Laguna	12	Diciembre	2023-12-16T00:00:00	2024-11-08T10:00:00	2	Temperatura media	20.8
95234	7	Sololá	717	San Juan la Laguna	12	San Juan la Laguna	12	Diciembre	2023-12-16T00:00:00	2024-11-08T10:00:00	4	Temperatura máxima	20.8
95235	7	Sololá	717	San Juan la Laguna	12	San Juan la Laguna	12	Diciembre	2023-12-16T00:00:00	2024-11-08T10:00:00	3	Temperatura mínima	19.9
95236	7	Sololá	717	San Juan la Laguna	12	San Juan la Laguna	12	Diciembre	2023-12-16T00:00:00	2024-11-08T10:00:00	5	Humedad	72
95237	7	Sololá	717	San Juan la Laguna	12	San Juan la Laguna	12	Diciembre	2023-12-16T00:00:00	2024-11-08T10:00:00	6	Velocidad del viento	6.4
95238	7	Sololá	717	San Juan la Laguna	12	San Juan la Laguna	12	Diciembre	2023-12-16T00:00:00	2024-11-08T10:00:00	7	Dirección del viento	6.44
95239	7	Sololá	717	San Juan la Laguna	12	San Juan la Laguna	12	Diciembre	2023-12-16T00:00:00	2024-11-08T10:00:00	1	Precipitación	0
95240	7	Sololá	717	San Juan la Laguna	12	San Juan la Laguna	12	Diciembre	2023-12-16T00:00:00	2024-11-08T10:00:00	8	Radiación solar	515
95241	7	Sololá	717	San Juan la Laguna	12	San Juan la Laguna	12	Diciembre	2023-12-16T00:00:00	2024-11-08T11:00:00	2	Temperatura media	22.1
95242	7	Sololá	717	San Juan la Laguna	12	San Juan la Laguna	12	Diciembre	2023-12-16T00:00:00	2024-11-08T11:00:00	4	Temperatura máxima	22.2
95243	7	Sololá	717	San Juan la Laguna	12	San Juan la Laguna	12	Diciembre	2023-12-16T00:00:00	2024-11-08T11:00:00	3	Temperatura mínima	20.6
95244	7	Sololá	717	San Juan la Laguna	12	San Juan la Laguna	12	Diciembre	2023-12-16T00:00:00	2024-11-08T11:00:00	5	Humedad	66
95245	7	Sololá	717	San Juan la Laguna	12	San Juan la Laguna	12	Diciembre	2023-12-16T00:00:00	2024-11-08T11:00:00	6	Velocidad del viento	4.8
95246	7	Sololá	717	San Juan la Laguna	12	San Juan la Laguna	12	Diciembre	2023-12-16T00:00:00	2024-11-08T11:00:00	7	Dirección del viento	4.83
95247	7	Sololá	717	San Juan la Laguna	12	San Juan la Laguna	12	Diciembre	2023-12-16T00:00:00	2024-11-08T11:00:00	1	Precipitación	0
95248	7	Sololá	717	San Juan la Laguna	12	San Juan la Laguna	12	Diciembre	2023-12-16T00:00:00	2024-11-08T11:00:00	8	Radiación solar	566
95249	7	Sololá	717	San Juan la Laguna	12	San Juan la Laguna	12	Diciembre	2023-12-16T00:00:00	2024-11-08T12:00:00	2	Temperatura media	23.6
95250	7	Sololá	717	San Juan la Laguna	12	San Juan la Laguna	12	Diciembre	2023-12-16T00:00:00	2024-11-08T12:00:00	4	Temperatura máxima	23.6
95251	7	Sololá	717	San Juan la Laguna	12	San Juan la Laguna	12	Diciembre	2023-12-16T00:00:00	2024-11-08T12:00:00	3	Temperatura mínima	22.1
95252	7	Sololá	717	San Juan la Laguna	12	San Juan la Laguna	12	Diciembre	2023-12-16T00:00:00	2024-11-08T12:00:00	5	Humedad	62
95253	7	Sololá	717	San Juan la Laguna	12	San Juan la Laguna	12	Diciembre	2023-12-16T00:00:00	2024-11-08T12:00:00	6	Velocidad del viento	6.4
95254	7	Sololá	717	San Juan la Laguna	12	San Juan la Laguna	12	Diciembre	2023-12-16T00:00:00	2024-11-08T12:00:00	7	Dirección del viento	6.44
95255	7	Sololá	717	San Juan la Laguna	12	San Juan la Laguna	12	Diciembre	2023-12-16T00:00:00	2024-11-08T12:00:00	1	Precipitación	0
95256	7	Sololá	717	San Juan la Laguna	12	San Juan la Laguna	12	Diciembre	2023-12-16T00:00:00	2024-11-08T12:00:00	8	Radiación solar	698
95257	7	Sololá	717	San Juan la Laguna	12	San Juan la Laguna	12	Diciembre	2023-12-16T00:00:00	2024-11-08T13:00:00	2	Temperatura media	22.8
95258	7	Sololá	717	San Juan la Laguna	12	San Juan la Laguna	12	Diciembre	2023-12-16T00:00:00	2024-11-08T13:00:00	4	Temperatura máxima	23.9
95259	7	Sololá	717	San Juan la Laguna	12	San Juan la Laguna	12	Diciembre	2023-12-16T00:00:00	2024-11-08T13:00:00	3	Temperatura mínima	22.7
95260	7	Sololá	717	San Juan la Laguna	12	San Juan la Laguna	12	Diciembre	2023-12-16T00:00:00	2024-11-08T13:00:00	5	Humedad	61
95261	7	Sololá	717	San Juan la Laguna	12	San Juan la Laguna	12	Diciembre	2023-12-16T00:00:00	2024-11-08T13:00:00	6	Velocidad del viento	6.4
95262	7	Sololá	717	San Juan la Laguna	12	San Juan la Laguna	12	Diciembre	2023-12-16T00:00:00	2024-11-08T13:00:00	7	Dirección del viento	6.44
95263	7	Sololá	717	San Juan la Laguna	12	San Juan la Laguna	12	Diciembre	2023-12-16T00:00:00	2024-11-08T13:00:00	1	Precipitación	0
95264	7	Sololá	717	San Juan la Laguna	12	San Juan la Laguna	12	Diciembre	2023-12-16T00:00:00	2024-11-08T13:00:00	8	Radiación solar	591
95265	7	Sololá	717	San Juan la Laguna	12	San Juan la Laguna	12	Diciembre	2023-12-16T00:00:00	2024-11-08T14:00:00	2	Temperatura media	22.4
95266	7	Sololá	717	San Juan la Laguna	12	San Juan la Laguna	12	Diciembre	2023-12-16T00:00:00	2024-11-08T14:00:00	4	Temperatura máxima	24.5
95267	7	Sololá	717	San Juan la Laguna	12	San Juan la Laguna	12	Diciembre	2023-12-16T00:00:00	2024-11-08T14:00:00	3	Temperatura mínima	22.4
95268	7	Sololá	717	San Juan la Laguna	12	San Juan la Laguna	12	Diciembre	2023-12-16T00:00:00	2024-11-08T14:00:00	5	Humedad	72
95269	7	Sololá	717	San Juan la Laguna	12	San Juan la Laguna	12	Diciembre	2023-12-16T00:00:00	2024-11-08T14:00:00	6	Velocidad del viento	6.4
95270	7	Sololá	717	San Juan la Laguna	12	San Juan la Laguna	12	Diciembre	2023-12-16T00:00:00	2024-11-08T14:00:00	7	Dirección del viento	6.44
95271	7	Sololá	717	San Juan la Laguna	12	San Juan la Laguna	12	Diciembre	2023-12-16T00:00:00	2024-11-08T14:00:00	1	Precipitación	0
95272	7	Sololá	717	San Juan la Laguna	12	San Juan la Laguna	12	Diciembre	2023-12-16T00:00:00	2024-11-08T14:00:00	8	Radiación solar	446
95273	7	Sololá	717	San Juan la Laguna	12	San Juan la Laguna	12	Diciembre	2023-12-16T00:00:00	2024-11-08T15:00:00	2	Temperatura media	22.6
95274	7	Sololá	717	San Juan la Laguna	12	San Juan la Laguna	12	Diciembre	2023-12-16T00:00:00	2024-11-08T15:00:00	4	Temperatura máxima	23
95275	7	Sololá	717	San Juan la Laguna	12	San Juan la Laguna	12	Diciembre	2023-12-16T00:00:00	2024-11-08T15:00:00	3	Temperatura mínima	22.1
95276	7	Sololá	717	San Juan la Laguna	12	San Juan la Laguna	12	Diciembre	2023-12-16T00:00:00	2024-11-08T15:00:00	5	Humedad	71
95277	7	Sololá	717	San Juan la Laguna	12	San Juan la Laguna	12	Diciembre	2023-12-16T00:00:00	2024-11-08T15:00:00	6	Velocidad del viento	6.4
95278	7	Sololá	717	San Juan la Laguna	12	San Juan la Laguna	12	Diciembre	2023-12-16T00:00:00	2024-11-08T15:00:00	7	Dirección del viento	6.44
95279	7	Sololá	717	San Juan la Laguna	12	San Juan la Laguna	12	Diciembre	2023-12-16T00:00:00	2024-11-08T15:00:00	1	Precipitación	0
95280	7	Sololá	717	San Juan la Laguna	12	San Juan la Laguna	12	Diciembre	2023-12-16T00:00:00	2024-11-08T15:00:00	8	Radiación solar	324
95281	7	Sololá	717	San Juan la Laguna	12	San Juan la Laguna	12	Diciembre	2023-12-16T00:00:00	2024-11-08T16:00:00	2	Temperatura media	20.2
95282	7	Sololá	717	San Juan la Laguna	12	San Juan la Laguna	12	Diciembre	2023-12-16T00:00:00	2024-11-08T16:00:00	4	Temperatura máxima	22.8
95283	7	Sololá	717	San Juan la Laguna	12	San Juan la Laguna	12	Diciembre	2023-12-16T00:00:00	2024-11-08T16:00:00	3	Temperatura mínima	20.2
95284	7	Sololá	717	San Juan la Laguna	12	San Juan la Laguna	12	Diciembre	2023-12-16T00:00:00	2024-11-08T16:00:00	5	Humedad	81
95285	7	Sololá	717	San Juan la Laguna	12	San Juan la Laguna	12	Diciembre	2023-12-16T00:00:00	2024-11-08T16:00:00	6	Velocidad del viento	8
95286	7	Sololá	717	San Juan la Laguna	12	San Juan la Laguna	12	Diciembre	2023-12-16T00:00:00	2024-11-08T16:00:00	7	Dirección del viento	8.05
95287	7	Sololá	717	San Juan la Laguna	12	San Juan la Laguna	12	Diciembre	2023-12-16T00:00:00	2024-11-08T16:00:00	1	Precipitación	0
95288	7	Sololá	717	San Juan la Laguna	12	San Juan la Laguna	12	Diciembre	2023-12-16T00:00:00	2024-11-08T16:00:00	8	Radiación solar	169
95289	7	Sololá	717	San Juan la Laguna	12	San Juan la Laguna	12	Diciembre	2023-12-16T00:00:00	2024-11-08T17:00:00	2	Temperatura media	20.2
95290	7	Sololá	717	San Juan la Laguna	12	San Juan la Laguna	12	Diciembre	2023-12-16T00:00:00	2024-11-08T17:00:00	4	Temperatura máxima	20.2
95291	7	Sololá	717	San Juan la Laguna	12	San Juan la Laguna	12	Diciembre	2023-12-16T00:00:00	2024-11-08T17:00:00	3	Temperatura mínima	19.8
95292	7	Sololá	717	San Juan la Laguna	12	San Juan la Laguna	12	Diciembre	2023-12-16T00:00:00	2024-11-08T17:00:00	5	Humedad	81
95293	7	Sololá	717	San Juan la Laguna	12	San Juan la Laguna	12	Diciembre	2023-12-16T00:00:00	2024-11-08T17:00:00	6	Velocidad del viento	6.4
95294	7	Sololá	717	San Juan la Laguna	12	San Juan la Laguna	12	Diciembre	2023-12-16T00:00:00	2024-11-08T17:00:00	7	Dirección del viento	6.44
95295	7	Sololá	717	San Juan la Laguna	12	San Juan la Laguna	12	Diciembre	2023-12-16T00:00:00	2024-11-08T17:00:00	1	Precipitación	0
95296	7	Sololá	717	San Juan la Laguna	12	San Juan la Laguna	12	Diciembre	2023-12-16T00:00:00	2024-11-08T17:00:00	8	Radiación solar	41
95297	7	Sololá	717	San Juan la Laguna	12	San Juan la Laguna	12	Diciembre	2023-12-16T00:00:00	2024-11-08T18:00:00	2	Temperatura media	19.9
95298	7	Sololá	717	San Juan la Laguna	12	San Juan la Laguna	12	Diciembre	2023-12-16T00:00:00	2024-11-08T18:00:00	4	Temperatura máxima	20.2
95299	7	Sololá	717	San Juan la Laguna	12	San Juan la Laguna	12	Diciembre	2023-12-16T00:00:00	2024-11-08T18:00:00	3	Temperatura mínima	19.9
95300	7	Sololá	717	San Juan la Laguna	12	San Juan la Laguna	12	Diciembre	2023-12-16T00:00:00	2024-11-08T18:00:00	5	Humedad	82
95301	7	Sololá	717	San Juan la Laguna	12	San Juan la Laguna	12	Diciembre	2023-12-16T00:00:00	2024-11-08T18:00:00	6	Velocidad del viento	3.2
95302	7	Sololá	717	San Juan la Laguna	12	San Juan la Laguna	12	Diciembre	2023-12-16T00:00:00	2024-11-08T18:00:00	7	Dirección del viento	3.22
95303	7	Sololá	717	San Juan la Laguna	12	San Juan la Laguna	12	Diciembre	2023-12-16T00:00:00	2024-11-08T18:00:00	1	Precipitación	0
95304	7	Sololá	717	San Juan la Laguna	12	San Juan la Laguna	12	Diciembre	2023-12-16T00:00:00	2024-11-08T18:00:00	8	Radiación solar	7
95305	7	Sololá	717	San Juan la Laguna	12	San Juan la Laguna	12	Diciembre	2023-12-16T00:00:00	2024-11-08T19:00:00	2	Temperatura media	18.7
95306	7	Sololá	717	San Juan la Laguna	12	San Juan la Laguna	12	Diciembre	2023-12-16T00:00:00	2024-11-08T19:00:00	4	Temperatura máxima	19.9
95307	7	Sololá	717	San Juan la Laguna	12	San Juan la Laguna	12	Diciembre	2023-12-16T00:00:00	2024-11-08T19:00:00	3	Temperatura mínima	18.6
95308	7	Sololá	717	San Juan la Laguna	12	San Juan la Laguna	12	Diciembre	2023-12-16T00:00:00	2024-11-08T19:00:00	5	Humedad	87
95309	7	Sololá	717	San Juan la Laguna	12	San Juan la Laguna	12	Diciembre	2023-12-16T00:00:00	2024-11-08T19:00:00	6	Velocidad del viento	1.6
95310	7	Sololá	717	San Juan la Laguna	12	San Juan la Laguna	12	Diciembre	2023-12-16T00:00:00	2024-11-08T19:00:00	7	Dirección del viento	1.61
95311	7	Sololá	717	San Juan la Laguna	12	San Juan la Laguna	12	Diciembre	2023-12-16T00:00:00	2024-11-08T19:00:00	1	Precipitación	0
95312	7	Sololá	717	San Juan la Laguna	12	San Juan la Laguna	12	Diciembre	2023-12-16T00:00:00	2024-11-08T19:00:00	8	Radiación solar	0
95313	7	Sololá	717	San Juan la Laguna	12	San Juan la Laguna	12	Diciembre	2023-12-16T00:00:00	2024-11-08T20:00:00	2	Temperatura media	17.9
95314	7	Sololá	717	San Juan la Laguna	12	San Juan la Laguna	12	Diciembre	2023-12-16T00:00:00	2024-11-08T20:00:00	4	Temperatura máxima	18.7
95315	7	Sololá	717	San Juan la Laguna	12	San Juan la Laguna	12	Diciembre	2023-12-16T00:00:00	2024-11-08T20:00:00	3	Temperatura mínima	17.9
95316	7	Sololá	717	San Juan la Laguna	12	San Juan la Laguna	12	Diciembre	2023-12-16T00:00:00	2024-11-08T20:00:00	5	Humedad	88
95317	7	Sololá	717	San Juan la Laguna	12	San Juan la Laguna	12	Diciembre	2023-12-16T00:00:00	2024-11-08T20:00:00	6	Velocidad del viento	1.6
95318	7	Sololá	717	San Juan la Laguna	12	San Juan la Laguna	12	Diciembre	2023-12-16T00:00:00	2024-11-08T20:00:00	7	Dirección del viento	1.61
95319	7	Sololá	717	San Juan la Laguna	12	San Juan la Laguna	12	Diciembre	2023-12-16T00:00:00	2024-11-08T20:00:00	1	Precipitación	0
95320	7	Sololá	717	San Juan la Laguna	12	San Juan la Laguna	12	Diciembre	2023-12-16T00:00:00	2024-11-08T20:00:00	8	Radiación solar	0
95321	7	Sololá	717	San Juan la Laguna	12	San Juan la Laguna	12	Diciembre	2023-12-16T00:00:00	2024-11-08T21:00:00	2	Temperatura media	17.1
95322	7	Sololá	717	San Juan la Laguna	12	San Juan la Laguna	12	Diciembre	2023-12-16T00:00:00	2024-11-08T21:00:00	4	Temperatura máxima	17.9
95323	7	Sololá	717	San Juan la Laguna	12	San Juan la Laguna	12	Diciembre	2023-12-16T00:00:00	2024-11-08T21:00:00	3	Temperatura mínima	17.1
95324	7	Sololá	717	San Juan la Laguna	12	San Juan la Laguna	12	Diciembre	2023-12-16T00:00:00	2024-11-08T21:00:00	5	Humedad	87
95325	7	Sololá	717	San Juan la Laguna	12	San Juan la Laguna	12	Diciembre	2023-12-16T00:00:00	2024-11-08T21:00:00	6	Velocidad del viento	3.2
95326	7	Sololá	717	San Juan la Laguna	12	San Juan la Laguna	12	Diciembre	2023-12-16T00:00:00	2024-11-08T21:00:00	7	Dirección del viento	3.22
95327	7	Sololá	717	San Juan la Laguna	12	San Juan la Laguna	12	Diciembre	2023-12-16T00:00:00	2024-11-08T21:00:00	1	Precipitación	0
95328	7	Sololá	717	San Juan la Laguna	12	San Juan la Laguna	12	Diciembre	2023-12-16T00:00:00	2024-11-08T21:00:00	8	Radiación solar	0
95329	7	Sololá	717	San Juan la Laguna	12	San Juan la Laguna	12	Diciembre	2023-12-16T00:00:00	2024-11-08T22:00:00	2	Temperatura media	17.1
95330	7	Sololá	717	San Juan la Laguna	12	San Juan la Laguna	12	Diciembre	2023-12-16T00:00:00	2024-11-08T22:00:00	4	Temperatura máxima	17.6
95331	7	Sololá	717	San Juan la Laguna	12	San Juan la Laguna	12	Diciembre	2023-12-16T00:00:00	2024-11-08T22:00:00	3	Temperatura mínima	17
95332	7	Sololá	717	San Juan la Laguna	12	San Juan la Laguna	12	Diciembre	2023-12-16T00:00:00	2024-11-08T22:00:00	5	Humedad	83
95333	7	Sololá	717	San Juan la Laguna	12	San Juan la Laguna	12	Diciembre	2023-12-16T00:00:00	2024-11-08T22:00:00	6	Velocidad del viento	3.2
95334	7	Sololá	717	San Juan la Laguna	12	San Juan la Laguna	12	Diciembre	2023-12-16T00:00:00	2024-11-08T22:00:00	7	Dirección del viento	3.22
95335	7	Sololá	717	San Juan la Laguna	12	San Juan la Laguna	12	Diciembre	2023-12-16T00:00:00	2024-11-08T22:00:00	1	Precipitación	0
95336	7	Sololá	717	San Juan la Laguna	12	San Juan la Laguna	12	Diciembre	2023-12-16T00:00:00	2024-11-08T22:00:00	8	Radiación solar	0
95337	7	Sololá	717	San Juan la Laguna	12	San Juan la Laguna	12	Diciembre	2023-12-16T00:00:00	2024-11-08T23:00:00	2	Temperatura media	17.2
95338	7	Sololá	717	San Juan la Laguna	12	San Juan la Laguna	12	Diciembre	2023-12-16T00:00:00	2024-11-08T23:00:00	4	Temperatura máxima	17.2
95339	7	Sololá	717	San Juan la Laguna	12	San Juan la Laguna	12	Diciembre	2023-12-16T00:00:00	2024-11-08T23:00:00	3	Temperatura mínima	16.9
95340	7	Sololá	717	San Juan la Laguna	12	San Juan la Laguna	12	Diciembre	2023-12-16T00:00:00	2024-11-08T23:00:00	5	Humedad	81
95341	7	Sololá	717	San Juan la Laguna	12	San Juan la Laguna	12	Diciembre	2023-12-16T00:00:00	2024-11-08T23:00:00	6	Velocidad del viento	3.2
95342	7	Sololá	717	San Juan la Laguna	12	San Juan la Laguna	12	Diciembre	2023-12-16T00:00:00	2024-11-08T23:00:00	7	Dirección del viento	3.22
95343	7	Sololá	717	San Juan la Laguna	12	San Juan la Laguna	12	Diciembre	2023-12-16T00:00:00	2024-11-08T23:00:00	1	Precipitación	0
95344	7	Sololá	717	San Juan la Laguna	12	San Juan la Laguna	12	Diciembre	2023-12-16T00:00:00	2024-11-08T23:00:00	8	Radiación solar	0
95345	7	Sololá	717	San Juan la Laguna	12	San Juan la Laguna	12	Diciembre	2023-12-17T00:00:00	2024-11-08T00:00:00	2	Temperatura media	15.9
95346	7	Sololá	717	San Juan la Laguna	12	San Juan la Laguna	12	Diciembre	2023-12-17T00:00:00	2024-11-08T00:00:00	4	Temperatura máxima	17.2
95347	7	Sololá	717	San Juan la Laguna	12	San Juan la Laguna	12	Diciembre	2023-12-17T00:00:00	2024-11-08T00:00:00	3	Temperatura mínima	15.9
95348	7	Sololá	717	San Juan la Laguna	12	San Juan la Laguna	12	Diciembre	2023-12-17T00:00:00	2024-11-08T00:00:00	5	Humedad	84
95349	7	Sololá	717	San Juan la Laguna	12	San Juan la Laguna	12	Diciembre	2023-12-17T00:00:00	2024-11-08T00:00:00	6	Velocidad del viento	4.8
95350	7	Sololá	717	San Juan la Laguna	12	San Juan la Laguna	12	Diciembre	2023-12-17T00:00:00	2024-11-08T00:00:00	7	Dirección del viento	4.83
95351	7	Sololá	717	San Juan la Laguna	12	San Juan la Laguna	12	Diciembre	2023-12-17T00:00:00	2024-11-08T00:00:00	1	Precipitación	0
95352	7	Sololá	717	San Juan la Laguna	12	San Juan la Laguna	12	Diciembre	2023-12-17T00:00:00	2024-11-08T00:00:00	8	Radiación solar	0
95353	7	Sololá	717	San Juan la Laguna	12	San Juan la Laguna	12	Diciembre	2023-12-17T00:00:00	2024-11-08T01:00:00	2	Temperatura media	15.5
95354	7	Sololá	717	San Juan la Laguna	12	San Juan la Laguna	12	Diciembre	2023-12-17T00:00:00	2024-11-08T01:00:00	4	Temperatura máxima	15.9
95355	7	Sololá	717	San Juan la Laguna	12	San Juan la Laguna	12	Diciembre	2023-12-17T00:00:00	2024-11-08T01:00:00	3	Temperatura mínima	15.5
95356	7	Sololá	717	San Juan la Laguna	12	San Juan la Laguna	12	Diciembre	2023-12-17T00:00:00	2024-11-08T01:00:00	5	Humedad	84
95357	7	Sololá	717	San Juan la Laguna	12	San Juan la Laguna	12	Diciembre	2023-12-17T00:00:00	2024-11-08T01:00:00	6	Velocidad del viento	4.8
95358	7	Sololá	717	San Juan la Laguna	12	San Juan la Laguna	12	Diciembre	2023-12-17T00:00:00	2024-11-08T01:00:00	7	Dirección del viento	4.83
95359	7	Sololá	717	San Juan la Laguna	12	San Juan la Laguna	12	Diciembre	2023-12-17T00:00:00	2024-11-08T01:00:00	1	Precipitación	0
95360	7	Sololá	717	San Juan la Laguna	12	San Juan la Laguna	12	Diciembre	2023-12-17T00:00:00	2024-11-08T01:00:00	8	Radiación solar	0
95361	7	Sololá	717	San Juan la Laguna	12	San Juan la Laguna	12	Diciembre	2023-12-17T00:00:00	2024-11-08T02:00:00	2	Temperatura media	15.1
95362	7	Sololá	717	San Juan la Laguna	12	San Juan la Laguna	12	Diciembre	2023-12-17T00:00:00	2024-11-08T02:00:00	4	Temperatura máxima	15.5
95363	7	Sololá	717	San Juan la Laguna	12	San Juan la Laguna	12	Diciembre	2023-12-17T00:00:00	2024-11-08T02:00:00	3	Temperatura mínima	15
95364	7	Sololá	717	San Juan la Laguna	12	San Juan la Laguna	12	Diciembre	2023-12-17T00:00:00	2024-11-08T02:00:00	5	Humedad	84
95365	7	Sololá	717	San Juan la Laguna	12	San Juan la Laguna	12	Diciembre	2023-12-17T00:00:00	2024-11-08T02:00:00	6	Velocidad del viento	6.4
95366	7	Sololá	717	San Juan la Laguna	12	San Juan la Laguna	12	Diciembre	2023-12-17T00:00:00	2024-11-08T02:00:00	7	Dirección del viento	6.44
95367	7	Sololá	717	San Juan la Laguna	12	San Juan la Laguna	12	Diciembre	2023-12-17T00:00:00	2024-11-08T02:00:00	1	Precipitación	0
95368	7	Sololá	717	San Juan la Laguna	12	San Juan la Laguna	12	Diciembre	2023-12-17T00:00:00	2024-11-08T02:00:00	8	Radiación solar	0
95369	7	Sololá	717	San Juan la Laguna	12	San Juan la Laguna	12	Diciembre	2023-12-17T00:00:00	2024-11-08T03:00:00	2	Temperatura media	14.4
95370	7	Sololá	717	San Juan la Laguna	12	San Juan la Laguna	12	Diciembre	2023-12-17T00:00:00	2024-11-08T03:00:00	4	Temperatura máxima	15.2
95371	7	Sololá	717	San Juan la Laguna	12	San Juan la Laguna	12	Diciembre	2023-12-17T00:00:00	2024-11-08T03:00:00	3	Temperatura mínima	14.4
95372	7	Sololá	717	San Juan la Laguna	12	San Juan la Laguna	12	Diciembre	2023-12-17T00:00:00	2024-11-08T03:00:00	5	Humedad	86
95373	7	Sololá	717	San Juan la Laguna	12	San Juan la Laguna	12	Diciembre	2023-12-17T00:00:00	2024-11-08T03:00:00	6	Velocidad del viento	4.8
95374	7	Sololá	717	San Juan la Laguna	12	San Juan la Laguna	12	Diciembre	2023-12-17T00:00:00	2024-11-08T03:00:00	7	Dirección del viento	4.83
95375	7	Sololá	717	San Juan la Laguna	12	San Juan la Laguna	12	Diciembre	2023-12-17T00:00:00	2024-11-08T03:00:00	1	Precipitación	0
95376	7	Sololá	717	San Juan la Laguna	12	San Juan la Laguna	12	Diciembre	2023-12-17T00:00:00	2024-11-08T03:00:00	8	Radiación solar	0
95377	7	Sololá	717	San Juan la Laguna	12	San Juan la Laguna	12	Diciembre	2023-12-17T00:00:00	2024-11-08T04:00:00	2	Temperatura media	14.9
95378	7	Sololá	717	San Juan la Laguna	12	San Juan la Laguna	12	Diciembre	2023-12-17T00:00:00	2024-11-08T04:00:00	4	Temperatura máxima	14.9
95379	7	Sololá	717	San Juan la Laguna	12	San Juan la Laguna	12	Diciembre	2023-12-17T00:00:00	2024-11-08T04:00:00	3	Temperatura mínima	14.4
95380	7	Sololá	717	San Juan la Laguna	12	San Juan la Laguna	12	Diciembre	2023-12-17T00:00:00	2024-11-08T04:00:00	5	Humedad	83
95381	7	Sololá	717	San Juan la Laguna	12	San Juan la Laguna	12	Diciembre	2023-12-17T00:00:00	2024-11-08T04:00:00	6	Velocidad del viento	4.8
95382	7	Sololá	717	San Juan la Laguna	12	San Juan la Laguna	12	Diciembre	2023-12-17T00:00:00	2024-11-08T04:00:00	7	Dirección del viento	4.83
95383	7	Sololá	717	San Juan la Laguna	12	San Juan la Laguna	12	Diciembre	2023-12-17T00:00:00	2024-11-08T04:00:00	1	Precipitación	0
95384	7	Sololá	717	San Juan la Laguna	12	San Juan la Laguna	12	Diciembre	2023-12-17T00:00:00	2024-11-08T04:00:00	8	Radiación solar	0
95385	7	Sololá	717	San Juan la Laguna	12	San Juan la Laguna	12	Diciembre	2023-12-17T00:00:00	2024-11-08T05:00:00	2	Temperatura media	14.2
95386	7	Sololá	717	San Juan la Laguna	12	San Juan la Laguna	12	Diciembre	2023-12-17T00:00:00	2024-11-08T05:00:00	4	Temperatura máxima	14.9
95387	7	Sololá	717	San Juan la Laguna	12	San Juan la Laguna	12	Diciembre	2023-12-17T00:00:00	2024-11-08T05:00:00	3	Temperatura mínima	13.7
95388	7	Sololá	717	San Juan la Laguna	12	San Juan la Laguna	12	Diciembre	2023-12-17T00:00:00	2024-11-08T05:00:00	5	Humedad	85
95389	7	Sololá	717	San Juan la Laguna	12	San Juan la Laguna	12	Diciembre	2023-12-17T00:00:00	2024-11-08T05:00:00	6	Velocidad del viento	3.2
95390	7	Sololá	717	San Juan la Laguna	12	San Juan la Laguna	12	Diciembre	2023-12-17T00:00:00	2024-11-08T05:00:00	7	Dirección del viento	3.22
95391	7	Sololá	717	San Juan la Laguna	12	San Juan la Laguna	12	Diciembre	2023-12-17T00:00:00	2024-11-08T05:00:00	1	Precipitación	0
95392	7	Sololá	717	San Juan la Laguna	12	San Juan la Laguna	12	Diciembre	2023-12-17T00:00:00	2024-11-08T05:00:00	8	Radiación solar	0
95393	7	Sololá	717	San Juan la Laguna	12	San Juan la Laguna	12	Diciembre	2023-12-17T00:00:00	2024-11-08T06:00:00	2	Temperatura media	14.2
95394	7	Sololá	717	San Juan la Laguna	12	San Juan la Laguna	12	Diciembre	2023-12-17T00:00:00	2024-11-08T06:00:00	4	Temperatura máxima	14.3
95395	7	Sololá	717	San Juan la Laguna	12	San Juan la Laguna	12	Diciembre	2023-12-17T00:00:00	2024-11-08T06:00:00	3	Temperatura mínima	13.8
95396	7	Sololá	717	San Juan la Laguna	12	San Juan la Laguna	12	Diciembre	2023-12-17T00:00:00	2024-11-08T06:00:00	5	Humedad	84
95397	7	Sololá	717	San Juan la Laguna	12	San Juan la Laguna	12	Diciembre	2023-12-17T00:00:00	2024-11-08T06:00:00	6	Velocidad del viento	6.4
95398	7	Sololá	717	San Juan la Laguna	12	San Juan la Laguna	12	Diciembre	2023-12-17T00:00:00	2024-11-08T06:00:00	7	Dirección del viento	6.44
95399	7	Sololá	717	San Juan la Laguna	12	San Juan la Laguna	12	Diciembre	2023-12-17T00:00:00	2024-11-08T06:00:00	1	Precipitación	0
95400	7	Sololá	717	San Juan la Laguna	12	San Juan la Laguna	12	Diciembre	2023-12-17T00:00:00	2024-11-08T06:00:00	8	Radiación solar	0
95401	7	Sololá	717	San Juan la Laguna	12	San Juan la Laguna	12	Diciembre	2023-12-17T00:00:00	2024-11-08T07:00:00	2	Temperatura media	13.9
95402	7	Sololá	717	San Juan la Laguna	12	San Juan la Laguna	12	Diciembre	2023-12-17T00:00:00	2024-11-08T07:00:00	4	Temperatura máxima	14.2
95403	7	Sololá	717	San Juan la Laguna	12	San Juan la Laguna	12	Diciembre	2023-12-17T00:00:00	2024-11-08T07:00:00	3	Temperatura mínima	13.6
95404	7	Sololá	717	San Juan la Laguna	12	San Juan la Laguna	12	Diciembre	2023-12-17T00:00:00	2024-11-08T07:00:00	5	Humedad	85
95405	7	Sololá	717	San Juan la Laguna	12	San Juan la Laguna	12	Diciembre	2023-12-17T00:00:00	2024-11-08T07:00:00	6	Velocidad del viento	6.4
95406	7	Sololá	717	San Juan la Laguna	12	San Juan la Laguna	12	Diciembre	2023-12-17T00:00:00	2024-11-08T07:00:00	7	Dirección del viento	6.44
95407	7	Sololá	717	San Juan la Laguna	12	San Juan la Laguna	12	Diciembre	2023-12-17T00:00:00	2024-11-08T07:00:00	1	Precipitación	0
95408	7	Sololá	717	San Juan la Laguna	12	San Juan la Laguna	12	Diciembre	2023-12-17T00:00:00	2024-11-08T07:00:00	8	Radiación solar	9
95409	7	Sololá	717	San Juan la Laguna	12	San Juan la Laguna	12	Diciembre	2023-12-17T00:00:00	2024-11-08T08:00:00	2	Temperatura media	16.7
95410	7	Sololá	717	San Juan la Laguna	12	San Juan la Laguna	12	Diciembre	2023-12-17T00:00:00	2024-11-08T08:00:00	4	Temperatura máxima	16.7
95411	7	Sololá	717	San Juan la Laguna	12	San Juan la Laguna	12	Diciembre	2023-12-17T00:00:00	2024-11-08T08:00:00	3	Temperatura mínima	13.9
95412	7	Sololá	717	San Juan la Laguna	12	San Juan la Laguna	12	Diciembre	2023-12-17T00:00:00	2024-11-08T08:00:00	5	Humedad	80
95413	7	Sololá	717	San Juan la Laguna	12	San Juan la Laguna	12	Diciembre	2023-12-17T00:00:00	2024-11-08T08:00:00	6	Velocidad del viento	4.8
95414	7	Sololá	717	San Juan la Laguna	12	San Juan la Laguna	12	Diciembre	2023-12-17T00:00:00	2024-11-08T08:00:00	7	Dirección del viento	4.83
95415	7	Sololá	717	San Juan la Laguna	12	San Juan la Laguna	12	Diciembre	2023-12-17T00:00:00	2024-11-08T08:00:00	1	Precipitación	0
95416	7	Sololá	717	San Juan la Laguna	12	San Juan la Laguna	12	Diciembre	2023-12-17T00:00:00	2024-11-08T08:00:00	8	Radiación solar	134
95417	7	Sololá	717	San Juan la Laguna	12	San Juan la Laguna	12	Diciembre	2023-12-17T00:00:00	2024-11-08T09:00:00	2	Temperatura media	20.2
95418	7	Sololá	717	San Juan la Laguna	12	San Juan la Laguna	12	Diciembre	2023-12-17T00:00:00	2024-11-08T09:00:00	4	Temperatura máxima	20.3
95419	7	Sololá	717	San Juan la Laguna	12	San Juan la Laguna	12	Diciembre	2023-12-17T00:00:00	2024-11-08T09:00:00	3	Temperatura mínima	16.7
95420	7	Sololá	717	San Juan la Laguna	12	San Juan la Laguna	12	Diciembre	2023-12-17T00:00:00	2024-11-08T09:00:00	5	Humedad	68
95421	7	Sololá	717	San Juan la Laguna	12	San Juan la Laguna	12	Diciembre	2023-12-17T00:00:00	2024-11-08T09:00:00	6	Velocidad del viento	3.2
95422	7	Sololá	717	San Juan la Laguna	12	San Juan la Laguna	12	Diciembre	2023-12-17T00:00:00	2024-11-08T09:00:00	7	Dirección del viento	3.22
95423	7	Sololá	717	San Juan la Laguna	12	San Juan la Laguna	12	Diciembre	2023-12-17T00:00:00	2024-11-08T09:00:00	1	Precipitación	0
95424	7	Sololá	717	San Juan la Laguna	12	San Juan la Laguna	12	Diciembre	2023-12-17T00:00:00	2024-11-08T09:00:00	8	Radiación solar	351
95425	7	Sololá	717	San Juan la Laguna	12	San Juan la Laguna	12	Diciembre	2023-12-17T00:00:00	2024-11-08T10:00:00	2	Temperatura media	20.8
95426	7	Sololá	717	San Juan la Laguna	12	San Juan la Laguna	12	Diciembre	2023-12-17T00:00:00	2024-11-08T10:00:00	4	Temperatura máxima	21
95427	7	Sololá	717	San Juan la Laguna	12	San Juan la Laguna	12	Diciembre	2023-12-17T00:00:00	2024-11-08T10:00:00	3	Temperatura mínima	20.1
95428	7	Sololá	717	San Juan la Laguna	12	San Juan la Laguna	12	Diciembre	2023-12-17T00:00:00	2024-11-08T10:00:00	5	Humedad	65
95429	7	Sololá	717	San Juan la Laguna	12	San Juan la Laguna	12	Diciembre	2023-12-17T00:00:00	2024-11-08T10:00:00	6	Velocidad del viento	6.4
95430	7	Sololá	717	San Juan la Laguna	12	San Juan la Laguna	12	Diciembre	2023-12-17T00:00:00	2024-11-08T10:00:00	7	Dirección del viento	6.44
95431	7	Sololá	717	San Juan la Laguna	12	San Juan la Laguna	12	Diciembre	2023-12-17T00:00:00	2024-11-08T10:00:00	1	Precipitación	0
95432	7	Sololá	717	San Juan la Laguna	12	San Juan la Laguna	12	Diciembre	2023-12-17T00:00:00	2024-11-08T10:00:00	8	Radiación solar	529
95433	7	Sololá	717	San Juan la Laguna	12	San Juan la Laguna	12	Diciembre	2023-12-17T00:00:00	2024-11-08T11:00:00	2	Temperatura media	22.2
95434	7	Sololá	717	San Juan la Laguna	12	San Juan la Laguna	12	Diciembre	2023-12-17T00:00:00	2024-11-08T11:00:00	4	Temperatura máxima	22.4
95435	7	Sololá	717	San Juan la Laguna	12	San Juan la Laguna	12	Diciembre	2023-12-17T00:00:00	2024-11-08T11:00:00	3	Temperatura mínima	20.8
95436	7	Sololá	717	San Juan la Laguna	12	San Juan la Laguna	12	Diciembre	2023-12-17T00:00:00	2024-11-08T11:00:00	5	Humedad	60
95437	7	Sololá	717	San Juan la Laguna	12	San Juan la Laguna	12	Diciembre	2023-12-17T00:00:00	2024-11-08T11:00:00	6	Velocidad del viento	8
95438	7	Sololá	717	San Juan la Laguna	12	San Juan la Laguna	12	Diciembre	2023-12-17T00:00:00	2024-11-08T11:00:00	7	Dirección del viento	8.05
95439	7	Sololá	717	San Juan la Laguna	12	San Juan la Laguna	12	Diciembre	2023-12-17T00:00:00	2024-11-08T11:00:00	1	Precipitación	0
95440	7	Sololá	717	San Juan la Laguna	12	San Juan la Laguna	12	Diciembre	2023-12-17T00:00:00	2024-11-08T11:00:00	8	Radiación solar	565
95441	7	Sololá	717	San Juan la Laguna	12	San Juan la Laguna	12	Diciembre	2023-12-17T00:00:00	2024-11-08T12:00:00	2	Temperatura media	23.5
95442	7	Sololá	717	San Juan la Laguna	12	San Juan la Laguna	12	Diciembre	2023-12-17T00:00:00	2024-11-08T12:00:00	4	Temperatura máxima	24.3
95443	7	Sololá	717	San Juan la Laguna	12	San Juan la Laguna	12	Diciembre	2023-12-17T00:00:00	2024-11-08T12:00:00	3	Temperatura mínima	22.2
95444	7	Sololá	717	San Juan la Laguna	12	San Juan la Laguna	12	Diciembre	2023-12-17T00:00:00	2024-11-08T12:00:00	5	Humedad	54
95445	7	Sololá	717	San Juan la Laguna	12	San Juan la Laguna	12	Diciembre	2023-12-17T00:00:00	2024-11-08T12:00:00	6	Velocidad del viento	8
95446	7	Sololá	717	San Juan la Laguna	12	San Juan la Laguna	12	Diciembre	2023-12-17T00:00:00	2024-11-08T12:00:00	7	Dirección del viento	8.05
95447	7	Sololá	717	San Juan la Laguna	12	San Juan la Laguna	12	Diciembre	2023-12-17T00:00:00	2024-11-08T12:00:00	1	Precipitación	0
95448	7	Sololá	717	San Juan la Laguna	12	San Juan la Laguna	12	Diciembre	2023-12-17T00:00:00	2024-11-08T12:00:00	8	Radiación solar	705
95449	7	Sololá	717	San Juan la Laguna	12	San Juan la Laguna	12	Diciembre	2023-12-17T00:00:00	2024-11-08T13:00:00	2	Temperatura media	24.3
95450	7	Sololá	717	San Juan la Laguna	12	San Juan la Laguna	12	Diciembre	2023-12-17T00:00:00	2024-11-08T13:00:00	4	Temperatura máxima	24.8
95451	7	Sololá	717	San Juan la Laguna	12	San Juan la Laguna	12	Diciembre	2023-12-17T00:00:00	2024-11-08T13:00:00	3	Temperatura mínima	23.4
95452	7	Sololá	717	San Juan la Laguna	12	San Juan la Laguna	12	Diciembre	2023-12-17T00:00:00	2024-11-08T13:00:00	5	Humedad	50
95453	7	Sololá	717	San Juan la Laguna	12	San Juan la Laguna	12	Diciembre	2023-12-17T00:00:00	2024-11-08T13:00:00	6	Velocidad del viento	6.4
95454	7	Sololá	717	San Juan la Laguna	12	San Juan la Laguna	12	Diciembre	2023-12-17T00:00:00	2024-11-08T13:00:00	7	Dirección del viento	6.44
95455	7	Sololá	717	San Juan la Laguna	12	San Juan la Laguna	12	Diciembre	2023-12-17T00:00:00	2024-11-08T13:00:00	1	Precipitación	0
95456	7	Sololá	717	San Juan la Laguna	12	San Juan la Laguna	12	Diciembre	2023-12-17T00:00:00	2024-11-08T13:00:00	8	Radiación solar	713
95457	7	Sololá	717	San Juan la Laguna	12	San Juan la Laguna	12	Diciembre	2023-12-17T00:00:00	2024-11-08T14:00:00	2	Temperatura media	24.2
95458	7	Sololá	717	San Juan la Laguna	12	San Juan la Laguna	12	Diciembre	2023-12-17T00:00:00	2024-11-08T14:00:00	4	Temperatura máxima	24.3
95459	7	Sololá	717	San Juan la Laguna	12	San Juan la Laguna	12	Diciembre	2023-12-17T00:00:00	2024-11-08T14:00:00	3	Temperatura mínima	23.4
95460	7	Sololá	717	San Juan la Laguna	12	San Juan la Laguna	12	Diciembre	2023-12-17T00:00:00	2024-11-08T14:00:00	5	Humedad	51
95461	7	Sololá	717	San Juan la Laguna	12	San Juan la Laguna	12	Diciembre	2023-12-17T00:00:00	2024-11-08T14:00:00	6	Velocidad del viento	6.4
95462	7	Sololá	717	San Juan la Laguna	12	San Juan la Laguna	12	Diciembre	2023-12-17T00:00:00	2024-11-08T14:00:00	7	Dirección del viento	6.44
95463	7	Sololá	717	San Juan la Laguna	12	San Juan la Laguna	12	Diciembre	2023-12-17T00:00:00	2024-11-08T14:00:00	1	Precipitación	0
95464	7	Sololá	717	San Juan la Laguna	12	San Juan la Laguna	12	Diciembre	2023-12-17T00:00:00	2024-11-08T14:00:00	8	Radiación solar	482
95465	7	Sololá	717	San Juan la Laguna	12	San Juan la Laguna	12	Diciembre	2023-12-17T00:00:00	2024-11-08T15:00:00	2	Temperatura media	23.2
95466	7	Sololá	717	San Juan la Laguna	12	San Juan la Laguna	12	Diciembre	2023-12-17T00:00:00	2024-11-08T15:00:00	4	Temperatura máxima	24.4
95467	7	Sololá	717	San Juan la Laguna	12	San Juan la Laguna	12	Diciembre	2023-12-17T00:00:00	2024-11-08T15:00:00	3	Temperatura mínima	23.2
95468	7	Sololá	717	San Juan la Laguna	12	San Juan la Laguna	12	Diciembre	2023-12-17T00:00:00	2024-11-08T15:00:00	5	Humedad	64
95469	7	Sololá	717	San Juan la Laguna	12	San Juan la Laguna	12	Diciembre	2023-12-17T00:00:00	2024-11-08T15:00:00	6	Velocidad del viento	6.4
95470	7	Sololá	717	San Juan la Laguna	12	San Juan la Laguna	12	Diciembre	2023-12-17T00:00:00	2024-11-08T15:00:00	7	Dirección del viento	6.44
95471	7	Sololá	717	San Juan la Laguna	12	San Juan la Laguna	12	Diciembre	2023-12-17T00:00:00	2024-11-08T15:00:00	1	Precipitación	0
95472	7	Sololá	717	San Juan la Laguna	12	San Juan la Laguna	12	Diciembre	2023-12-17T00:00:00	2024-11-08T15:00:00	8	Radiación solar	564
95473	7	Sololá	717	San Juan la Laguna	12	San Juan la Laguna	12	Diciembre	2023-12-17T00:00:00	2024-11-08T16:00:00	2	Temperatura media	21.8
95474	7	Sololá	717	San Juan la Laguna	12	San Juan la Laguna	12	Diciembre	2023-12-17T00:00:00	2024-11-08T16:00:00	4	Temperatura máxima	23.2
95475	7	Sololá	717	San Juan la Laguna	12	San Juan la Laguna	12	Diciembre	2023-12-17T00:00:00	2024-11-08T16:00:00	3	Temperatura mínima	21.8
95476	7	Sololá	717	San Juan la Laguna	12	San Juan la Laguna	12	Diciembre	2023-12-17T00:00:00	2024-11-08T16:00:00	5	Humedad	70
95477	7	Sololá	717	San Juan la Laguna	12	San Juan la Laguna	12	Diciembre	2023-12-17T00:00:00	2024-11-08T16:00:00	6	Velocidad del viento	6.4
95478	7	Sololá	717	San Juan la Laguna	12	San Juan la Laguna	12	Diciembre	2023-12-17T00:00:00	2024-11-08T16:00:00	7	Dirección del viento	6.44
95479	7	Sololá	717	San Juan la Laguna	12	San Juan la Laguna	12	Diciembre	2023-12-17T00:00:00	2024-11-08T16:00:00	1	Precipitación	0
95480	7	Sololá	717	San Juan la Laguna	12	San Juan la Laguna	12	Diciembre	2023-12-17T00:00:00	2024-11-08T16:00:00	8	Radiación solar	214
95481	7	Sololá	717	San Juan la Laguna	12	San Juan la Laguna	12	Diciembre	2023-12-17T00:00:00	2024-11-08T17:00:00	2	Temperatura media	20.6
95482	7	Sololá	717	San Juan la Laguna	12	San Juan la Laguna	12	Diciembre	2023-12-17T00:00:00	2024-11-08T17:00:00	4	Temperatura máxima	21.8
95483	7	Sololá	717	San Juan la Laguna	12	San Juan la Laguna	12	Diciembre	2023-12-17T00:00:00	2024-11-08T17:00:00	3	Temperatura mínima	20.6
95484	7	Sololá	717	San Juan la Laguna	12	San Juan la Laguna	12	Diciembre	2023-12-17T00:00:00	2024-11-08T17:00:00	5	Humedad	68
95485	7	Sololá	717	San Juan la Laguna	12	San Juan la Laguna	12	Diciembre	2023-12-17T00:00:00	2024-11-08T17:00:00	6	Velocidad del viento	6.4
95486	7	Sololá	717	San Juan la Laguna	12	San Juan la Laguna	12	Diciembre	2023-12-17T00:00:00	2024-11-08T17:00:00	7	Dirección del viento	6.44
95487	7	Sololá	717	San Juan la Laguna	12	San Juan la Laguna	12	Diciembre	2023-12-17T00:00:00	2024-11-08T17:00:00	1	Precipitación	0
95488	7	Sololá	717	San Juan la Laguna	12	San Juan la Laguna	12	Diciembre	2023-12-17T00:00:00	2024-11-08T17:00:00	8	Radiación solar	71
95489	7	Sololá	717	San Juan la Laguna	12	San Juan la Laguna	12	Diciembre	2023-12-17T00:00:00	2024-11-08T18:00:00	2	Temperatura media	19.9
95490	7	Sololá	717	San Juan la Laguna	12	San Juan la Laguna	12	Diciembre	2023-12-17T00:00:00	2024-11-08T18:00:00	4	Temperatura máxima	20.6
95491	7	Sololá	717	San Juan la Laguna	12	San Juan la Laguna	12	Diciembre	2023-12-17T00:00:00	2024-11-08T18:00:00	3	Temperatura mínima	19.9
95492	7	Sololá	717	San Juan la Laguna	12	San Juan la Laguna	12	Diciembre	2023-12-17T00:00:00	2024-11-08T18:00:00	5	Humedad	67
95493	7	Sololá	717	San Juan la Laguna	12	San Juan la Laguna	12	Diciembre	2023-12-17T00:00:00	2024-11-08T18:00:00	6	Velocidad del viento	4.8
95494	7	Sololá	717	San Juan la Laguna	12	San Juan la Laguna	12	Diciembre	2023-12-17T00:00:00	2024-11-08T18:00:00	7	Dirección del viento	4.83
95495	7	Sololá	717	San Juan la Laguna	12	San Juan la Laguna	12	Diciembre	2023-12-17T00:00:00	2024-11-08T18:00:00	1	Precipitación	0
95496	7	Sololá	717	San Juan la Laguna	12	San Juan la Laguna	12	Diciembre	2023-12-17T00:00:00	2024-11-08T18:00:00	8	Radiación solar	12
95497	7	Sololá	717	San Juan la Laguna	12	San Juan la Laguna	12	Diciembre	2023-12-17T00:00:00	2024-11-08T19:00:00	2	Temperatura media	19.1
95498	7	Sololá	717	San Juan la Laguna	12	San Juan la Laguna	12	Diciembre	2023-12-17T00:00:00	2024-11-08T19:00:00	4	Temperatura máxima	19.9
95499	7	Sololá	717	San Juan la Laguna	12	San Juan la Laguna	12	Diciembre	2023-12-17T00:00:00	2024-11-08T19:00:00	3	Temperatura mínima	18.9
95500	7	Sololá	717	San Juan la Laguna	12	San Juan la Laguna	12	Diciembre	2023-12-17T00:00:00	2024-11-08T19:00:00	5	Humedad	66
95501	7	Sololá	717	San Juan la Laguna	12	San Juan la Laguna	12	Diciembre	2023-12-17T00:00:00	2024-11-08T19:00:00	6	Velocidad del viento	9.7
95502	7	Sololá	717	San Juan la Laguna	12	San Juan la Laguna	12	Diciembre	2023-12-17T00:00:00	2024-11-08T19:00:00	7	Dirección del viento	9.66
95503	7	Sololá	717	San Juan la Laguna	12	San Juan la Laguna	12	Diciembre	2023-12-17T00:00:00	2024-11-08T19:00:00	1	Precipitación	0
95504	7	Sololá	717	San Juan la Laguna	12	San Juan la Laguna	12	Diciembre	2023-12-17T00:00:00	2024-11-08T19:00:00	8	Radiación solar	0
95505	7	Sololá	717	San Juan la Laguna	12	San Juan la Laguna	12	Diciembre	2023-12-17T00:00:00	2024-11-08T20:00:00	2	Temperatura media	18.6
95506	7	Sololá	717	San Juan la Laguna	12	San Juan la Laguna	12	Diciembre	2023-12-17T00:00:00	2024-11-08T20:00:00	4	Temperatura máxima	19.1
95507	7	Sololá	717	San Juan la Laguna	12	San Juan la Laguna	12	Diciembre	2023-12-17T00:00:00	2024-11-08T20:00:00	3	Temperatura mínima	18.6
95508	7	Sololá	717	San Juan la Laguna	12	San Juan la Laguna	12	Diciembre	2023-12-17T00:00:00	2024-11-08T20:00:00	5	Humedad	71
95509	7	Sololá	717	San Juan la Laguna	12	San Juan la Laguna	12	Diciembre	2023-12-17T00:00:00	2024-11-08T20:00:00	6	Velocidad del viento	3.2
95510	7	Sololá	717	San Juan la Laguna	12	San Juan la Laguna	12	Diciembre	2023-12-17T00:00:00	2024-11-08T20:00:00	7	Dirección del viento	3.22
95511	7	Sololá	717	San Juan la Laguna	12	San Juan la Laguna	12	Diciembre	2023-12-17T00:00:00	2024-11-08T20:00:00	1	Precipitación	0
95512	7	Sololá	717	San Juan la Laguna	12	San Juan la Laguna	12	Diciembre	2023-12-17T00:00:00	2024-11-08T20:00:00	8	Radiación solar	0
95513	7	Sololá	717	San Juan la Laguna	12	San Juan la Laguna	12	Diciembre	2023-12-17T00:00:00	2024-11-08T21:00:00	2	Temperatura media	18.4
95514	7	Sololá	717	San Juan la Laguna	12	San Juan la Laguna	12	Diciembre	2023-12-17T00:00:00	2024-11-08T21:00:00	4	Temperatura máxima	18.7
95515	7	Sololá	717	San Juan la Laguna	12	San Juan la Laguna	12	Diciembre	2023-12-17T00:00:00	2024-11-08T21:00:00	3	Temperatura mínima	18.4
95516	7	Sololá	717	San Juan la Laguna	12	San Juan la Laguna	12	Diciembre	2023-12-17T00:00:00	2024-11-08T21:00:00	5	Humedad	70
95517	7	Sololá	717	San Juan la Laguna	12	San Juan la Laguna	12	Diciembre	2023-12-17T00:00:00	2024-11-08T21:00:00	6	Velocidad del viento	8
95518	7	Sololá	717	San Juan la Laguna	12	San Juan la Laguna	12	Diciembre	2023-12-17T00:00:00	2024-11-08T21:00:00	7	Dirección del viento	8.05
95519	7	Sololá	717	San Juan la Laguna	12	San Juan la Laguna	12	Diciembre	2023-12-17T00:00:00	2024-11-08T21:00:00	1	Precipitación	0
95520	7	Sololá	717	San Juan la Laguna	12	San Juan la Laguna	12	Diciembre	2023-12-17T00:00:00	2024-11-08T21:00:00	8	Radiación solar	0
95521	7	Sololá	717	San Juan la Laguna	12	San Juan la Laguna	12	Diciembre	2023-12-17T00:00:00	2024-11-08T22:00:00	2	Temperatura media	17.2
95522	7	Sololá	717	San Juan la Laguna	12	San Juan la Laguna	12	Diciembre	2023-12-17T00:00:00	2024-11-08T22:00:00	4	Temperatura máxima	18.4
95523	7	Sololá	717	San Juan la Laguna	12	San Juan la Laguna	12	Diciembre	2023-12-17T00:00:00	2024-11-08T22:00:00	3	Temperatura mínima	17.2
95524	7	Sololá	717	San Juan la Laguna	12	San Juan la Laguna	12	Diciembre	2023-12-17T00:00:00	2024-11-08T22:00:00	5	Humedad	77
95525	7	Sololá	717	San Juan la Laguna	12	San Juan la Laguna	12	Diciembre	2023-12-17T00:00:00	2024-11-08T22:00:00	6	Velocidad del viento	3.2
95526	7	Sololá	717	San Juan la Laguna	12	San Juan la Laguna	12	Diciembre	2023-12-17T00:00:00	2024-11-08T22:00:00	7	Dirección del viento	3.22
95527	7	Sololá	717	San Juan la Laguna	12	San Juan la Laguna	12	Diciembre	2023-12-17T00:00:00	2024-11-08T22:00:00	1	Precipitación	0
95528	7	Sololá	717	San Juan la Laguna	12	San Juan la Laguna	12	Diciembre	2023-12-17T00:00:00	2024-11-08T22:00:00	8	Radiación solar	0
95529	7	Sololá	717	San Juan la Laguna	12	San Juan la Laguna	12	Diciembre	2023-12-17T00:00:00	2024-11-08T23:00:00	2	Temperatura media	15.8
95530	7	Sololá	717	San Juan la Laguna	12	San Juan la Laguna	12	Diciembre	2023-12-17T00:00:00	2024-11-08T23:00:00	4	Temperatura máxima	17.2
95531	7	Sololá	717	San Juan la Laguna	12	San Juan la Laguna	12	Diciembre	2023-12-17T00:00:00	2024-11-08T23:00:00	3	Temperatura mínima	15.8
95532	7	Sololá	717	San Juan la Laguna	12	San Juan la Laguna	12	Diciembre	2023-12-17T00:00:00	2024-11-08T23:00:00	5	Humedad	82
95533	7	Sololá	717	San Juan la Laguna	12	San Juan la Laguna	12	Diciembre	2023-12-17T00:00:00	2024-11-08T23:00:00	6	Velocidad del viento	3.2
95534	7	Sololá	717	San Juan la Laguna	12	San Juan la Laguna	12	Diciembre	2023-12-17T00:00:00	2024-11-08T23:00:00	7	Dirección del viento	3.22
95535	7	Sololá	717	San Juan la Laguna	12	San Juan la Laguna	12	Diciembre	2023-12-17T00:00:00	2024-11-08T23:00:00	1	Precipitación	0
95536	7	Sololá	717	San Juan la Laguna	12	San Juan la Laguna	12	Diciembre	2023-12-17T00:00:00	2024-11-08T23:00:00	8	Radiación solar	0
95537	7	Sololá	717	San Juan la Laguna	12	San Juan la Laguna	12	Diciembre	2023-12-18T00:00:00	2024-11-08T00:00:00	2	Temperatura media	15.3
95538	7	Sololá	717	San Juan la Laguna	12	San Juan la Laguna	12	Diciembre	2023-12-18T00:00:00	2024-11-08T00:00:00	4	Temperatura máxima	15.8
95539	7	Sololá	717	San Juan la Laguna	12	San Juan la Laguna	12	Diciembre	2023-12-18T00:00:00	2024-11-08T00:00:00	3	Temperatura mínima	15.2
95540	7	Sololá	717	San Juan la Laguna	12	San Juan la Laguna	12	Diciembre	2023-12-18T00:00:00	2024-11-08T00:00:00	5	Humedad	82
95541	7	Sololá	717	San Juan la Laguna	12	San Juan la Laguna	12	Diciembre	2023-12-18T00:00:00	2024-11-08T00:00:00	6	Velocidad del viento	4.8
95542	7	Sololá	717	San Juan la Laguna	12	San Juan la Laguna	12	Diciembre	2023-12-18T00:00:00	2024-11-08T00:00:00	7	Dirección del viento	4.83
95543	7	Sololá	717	San Juan la Laguna	12	San Juan la Laguna	12	Diciembre	2023-12-18T00:00:00	2024-11-08T00:00:00	1	Precipitación	0
95544	7	Sololá	717	San Juan la Laguna	12	San Juan la Laguna	12	Diciembre	2023-12-18T00:00:00	2024-11-08T00:00:00	8	Radiación solar	0
95545	7	Sololá	717	San Juan la Laguna	12	San Juan la Laguna	12	Diciembre	2023-12-18T00:00:00	2024-11-08T01:00:00	2	Temperatura media	14.5
95546	7	Sololá	717	San Juan la Laguna	12	San Juan la Laguna	12	Diciembre	2023-12-18T00:00:00	2024-11-08T01:00:00	4	Temperatura máxima	15.3
95547	7	Sololá	717	San Juan la Laguna	12	San Juan la Laguna	12	Diciembre	2023-12-18T00:00:00	2024-11-08T01:00:00	3	Temperatura mínima	14.3
95548	7	Sololá	717	San Juan la Laguna	12	San Juan la Laguna	12	Diciembre	2023-12-18T00:00:00	2024-11-08T01:00:00	5	Humedad	83
95549	7	Sololá	717	San Juan la Laguna	12	San Juan la Laguna	12	Diciembre	2023-12-18T00:00:00	2024-11-08T01:00:00	6	Velocidad del viento	4.8
95550	7	Sololá	717	San Juan la Laguna	12	San Juan la Laguna	12	Diciembre	2023-12-18T00:00:00	2024-11-08T01:00:00	7	Dirección del viento	4.83
95551	7	Sololá	717	San Juan la Laguna	12	San Juan la Laguna	12	Diciembre	2023-12-18T00:00:00	2024-11-08T01:00:00	1	Precipitación	0
95552	7	Sololá	717	San Juan la Laguna	12	San Juan la Laguna	12	Diciembre	2023-12-18T00:00:00	2024-11-08T01:00:00	8	Radiación solar	0
95553	7	Sololá	717	San Juan la Laguna	12	San Juan la Laguna	12	Diciembre	2023-12-18T00:00:00	2024-11-08T02:00:00	2	Temperatura media	13.6
95554	7	Sololá	717	San Juan la Laguna	12	San Juan la Laguna	12	Diciembre	2023-12-18T00:00:00	2024-11-08T02:00:00	4	Temperatura máxima	14.6
95555	7	Sololá	717	San Juan la Laguna	12	San Juan la Laguna	12	Diciembre	2023-12-18T00:00:00	2024-11-08T02:00:00	3	Temperatura mínima	13.5
95556	7	Sololá	717	San Juan la Laguna	12	San Juan la Laguna	12	Diciembre	2023-12-18T00:00:00	2024-11-08T02:00:00	5	Humedad	85
95557	7	Sololá	717	San Juan la Laguna	12	San Juan la Laguna	12	Diciembre	2023-12-18T00:00:00	2024-11-08T02:00:00	6	Velocidad del viento	4.8
95558	7	Sololá	717	San Juan la Laguna	12	San Juan la Laguna	12	Diciembre	2023-12-18T00:00:00	2024-11-08T02:00:00	7	Dirección del viento	4.83
95559	7	Sololá	717	San Juan la Laguna	12	San Juan la Laguna	12	Diciembre	2023-12-18T00:00:00	2024-11-08T02:00:00	1	Precipitación	0
95560	7	Sololá	717	San Juan la Laguna	12	San Juan la Laguna	12	Diciembre	2023-12-18T00:00:00	2024-11-08T02:00:00	8	Radiación solar	0
95561	7	Sololá	717	San Juan la Laguna	12	San Juan la Laguna	12	Diciembre	2023-12-18T00:00:00	2024-11-08T03:00:00	2	Temperatura media	13.1
95562	7	Sololá	717	San Juan la Laguna	12	San Juan la Laguna	12	Diciembre	2023-12-18T00:00:00	2024-11-08T03:00:00	4	Temperatura máxima	13.6
95563	7	Sololá	717	San Juan la Laguna	12	San Juan la Laguna	12	Diciembre	2023-12-18T00:00:00	2024-11-08T03:00:00	3	Temperatura mínima	13.1
95564	7	Sololá	717	San Juan la Laguna	12	San Juan la Laguna	12	Diciembre	2023-12-18T00:00:00	2024-11-08T03:00:00	5	Humedad	87
95565	7	Sololá	717	San Juan la Laguna	12	San Juan la Laguna	12	Diciembre	2023-12-18T00:00:00	2024-11-08T03:00:00	6	Velocidad del viento	3.2
95566	7	Sololá	717	San Juan la Laguna	12	San Juan la Laguna	12	Diciembre	2023-12-18T00:00:00	2024-11-08T03:00:00	7	Dirección del viento	3.22
95567	7	Sololá	717	San Juan la Laguna	12	San Juan la Laguna	12	Diciembre	2023-12-18T00:00:00	2024-11-08T03:00:00	1	Precipitación	0
95568	7	Sololá	717	San Juan la Laguna	12	San Juan la Laguna	12	Diciembre	2023-12-18T00:00:00	2024-11-08T03:00:00	8	Radiación solar	0
95569	7	Sololá	717	San Juan la Laguna	12	San Juan la Laguna	12	Diciembre	2023-12-18T00:00:00	2024-11-08T04:00:00	2	Temperatura media	13.1
95570	7	Sololá	717	San Juan la Laguna	12	San Juan la Laguna	12	Diciembre	2023-12-18T00:00:00	2024-11-08T04:00:00	4	Temperatura máxima	13.3
95571	7	Sololá	717	San Juan la Laguna	12	San Juan la Laguna	12	Diciembre	2023-12-18T00:00:00	2024-11-08T04:00:00	3	Temperatura mínima	12.9
95572	7	Sololá	717	San Juan la Laguna	12	San Juan la Laguna	12	Diciembre	2023-12-18T00:00:00	2024-11-08T04:00:00	5	Humedad	87
95573	7	Sololá	717	San Juan la Laguna	12	San Juan la Laguna	12	Diciembre	2023-12-18T00:00:00	2024-11-08T04:00:00	6	Velocidad del viento	4.8
95574	7	Sololá	717	San Juan la Laguna	12	San Juan la Laguna	12	Diciembre	2023-12-18T00:00:00	2024-11-08T04:00:00	7	Dirección del viento	4.83
95575	7	Sololá	717	San Juan la Laguna	12	San Juan la Laguna	12	Diciembre	2023-12-18T00:00:00	2024-11-08T04:00:00	1	Precipitación	0
95576	7	Sololá	717	San Juan la Laguna	12	San Juan la Laguna	12	Diciembre	2023-12-18T00:00:00	2024-11-08T04:00:00	8	Radiación solar	0
95577	7	Sololá	717	San Juan la Laguna	12	San Juan la Laguna	12	Diciembre	2023-12-18T00:00:00	2024-11-08T05:00:00	2	Temperatura media	12.6
95578	7	Sololá	717	San Juan la Laguna	12	San Juan la Laguna	12	Diciembre	2023-12-18T00:00:00	2024-11-08T05:00:00	4	Temperatura máxima	13.1
95579	7	Sololá	717	San Juan la Laguna	12	San Juan la Laguna	12	Diciembre	2023-12-18T00:00:00	2024-11-08T05:00:00	3	Temperatura mínima	12.5
95580	7	Sololá	717	San Juan la Laguna	12	San Juan la Laguna	12	Diciembre	2023-12-18T00:00:00	2024-11-08T05:00:00	5	Humedad	88
95581	7	Sololá	717	San Juan la Laguna	12	San Juan la Laguna	12	Diciembre	2023-12-18T00:00:00	2024-11-08T05:00:00	6	Velocidad del viento	4.8
95582	7	Sololá	717	San Juan la Laguna	12	San Juan la Laguna	12	Diciembre	2023-12-18T00:00:00	2024-11-08T05:00:00	7	Dirección del viento	4.83
95583	7	Sololá	717	San Juan la Laguna	12	San Juan la Laguna	12	Diciembre	2023-12-18T00:00:00	2024-11-08T05:00:00	1	Precipitación	0
95584	7	Sololá	717	San Juan la Laguna	12	San Juan la Laguna	12	Diciembre	2023-12-18T00:00:00	2024-11-08T05:00:00	8	Radiación solar	0
95585	7	Sololá	717	San Juan la Laguna	12	San Juan la Laguna	12	Diciembre	2023-12-18T00:00:00	2024-11-08T06:00:00	2	Temperatura media	12.5
95586	7	Sololá	717	San Juan la Laguna	12	San Juan la Laguna	12	Diciembre	2023-12-18T00:00:00	2024-11-08T06:00:00	4	Temperatura máxima	12.9
95587	7	Sololá	717	San Juan la Laguna	12	San Juan la Laguna	12	Diciembre	2023-12-18T00:00:00	2024-11-08T06:00:00	3	Temperatura mínima	12.4
95588	7	Sololá	717	San Juan la Laguna	12	San Juan la Laguna	12	Diciembre	2023-12-18T00:00:00	2024-11-08T06:00:00	5	Humedad	88
95589	7	Sololá	717	San Juan la Laguna	12	San Juan la Laguna	12	Diciembre	2023-12-18T00:00:00	2024-11-08T06:00:00	6	Velocidad del viento	3.2
95590	7	Sololá	717	San Juan la Laguna	12	San Juan la Laguna	12	Diciembre	2023-12-18T00:00:00	2024-11-08T06:00:00	7	Dirección del viento	3.22
95591	7	Sololá	717	San Juan la Laguna	12	San Juan la Laguna	12	Diciembre	2023-12-18T00:00:00	2024-11-08T06:00:00	1	Precipitación	0
95592	7	Sololá	717	San Juan la Laguna	12	San Juan la Laguna	12	Diciembre	2023-12-18T00:00:00	2024-11-08T06:00:00	8	Radiación solar	0
95593	7	Sololá	717	San Juan la Laguna	12	San Juan la Laguna	12	Diciembre	2023-12-18T00:00:00	2024-11-08T07:00:00	2	Temperatura media	12.4
95594	7	Sololá	717	San Juan la Laguna	12	San Juan la Laguna	12	Diciembre	2023-12-18T00:00:00	2024-11-08T07:00:00	4	Temperatura máxima	12.5
95595	7	Sololá	717	San Juan la Laguna	12	San Juan la Laguna	12	Diciembre	2023-12-18T00:00:00	2024-11-08T07:00:00	3	Temperatura mínima	12.1
95596	7	Sololá	717	San Juan la Laguna	12	San Juan la Laguna	12	Diciembre	2023-12-18T00:00:00	2024-11-08T07:00:00	5	Humedad	89
95597	7	Sololá	717	San Juan la Laguna	12	San Juan la Laguna	12	Diciembre	2023-12-18T00:00:00	2024-11-08T07:00:00	6	Velocidad del viento	3.2
95598	7	Sololá	717	San Juan la Laguna	12	San Juan la Laguna	12	Diciembre	2023-12-18T00:00:00	2024-11-08T07:00:00	7	Dirección del viento	3.22
95599	7	Sololá	717	San Juan la Laguna	12	San Juan la Laguna	12	Diciembre	2023-12-18T00:00:00	2024-11-08T07:00:00	1	Precipitación	0
95600	7	Sololá	717	San Juan la Laguna	12	San Juan la Laguna	12	Diciembre	2023-12-18T00:00:00	2024-11-08T07:00:00	8	Radiación solar	9
95601	7	Sololá	717	San Juan la Laguna	12	San Juan la Laguna	12	Diciembre	2023-12-18T00:00:00	2024-11-08T08:00:00	2	Temperatura media	15.8
95602	7	Sololá	717	San Juan la Laguna	12	San Juan la Laguna	12	Diciembre	2023-12-18T00:00:00	2024-11-08T08:00:00	4	Temperatura máxima	15.8
95603	7	Sololá	717	San Juan la Laguna	12	San Juan la Laguna	12	Diciembre	2023-12-18T00:00:00	2024-11-08T08:00:00	3	Temperatura mínima	12.4
95604	7	Sololá	717	San Juan la Laguna	12	San Juan la Laguna	12	Diciembre	2023-12-18T00:00:00	2024-11-08T08:00:00	5	Humedad	80
95605	7	Sololá	717	San Juan la Laguna	12	San Juan la Laguna	12	Diciembre	2023-12-18T00:00:00	2024-11-08T08:00:00	6	Velocidad del viento	3.2
95606	7	Sololá	717	San Juan la Laguna	12	San Juan la Laguna	12	Diciembre	2023-12-18T00:00:00	2024-11-08T08:00:00	7	Dirección del viento	3.22
95607	7	Sololá	717	San Juan la Laguna	12	San Juan la Laguna	12	Diciembre	2023-12-18T00:00:00	2024-11-08T08:00:00	1	Precipitación	0
95608	7	Sololá	717	San Juan la Laguna	12	San Juan la Laguna	12	Diciembre	2023-12-18T00:00:00	2024-11-08T08:00:00	8	Radiación solar	139
95609	7	Sololá	717	San Juan la Laguna	12	San Juan la Laguna	12	Diciembre	2023-12-18T00:00:00	2024-11-08T09:00:00	2	Temperatura media	19.6
95610	7	Sololá	717	San Juan la Laguna	12	San Juan la Laguna	12	Diciembre	2023-12-18T00:00:00	2024-11-08T09:00:00	4	Temperatura máxima	19.6
95611	7	Sololá	717	San Juan la Laguna	12	San Juan la Laguna	12	Diciembre	2023-12-18T00:00:00	2024-11-08T09:00:00	3	Temperatura mínima	15.8
95612	7	Sololá	717	San Juan la Laguna	12	San Juan la Laguna	12	Diciembre	2023-12-18T00:00:00	2024-11-08T09:00:00	5	Humedad	69
95613	7	Sololá	717	San Juan la Laguna	12	San Juan la Laguna	12	Diciembre	2023-12-18T00:00:00	2024-11-08T09:00:00	6	Velocidad del viento	1.6
95614	7	Sololá	717	San Juan la Laguna	12	San Juan la Laguna	12	Diciembre	2023-12-18T00:00:00	2024-11-08T09:00:00	7	Dirección del viento	1.61
95615	7	Sololá	717	San Juan la Laguna	12	San Juan la Laguna	12	Diciembre	2023-12-18T00:00:00	2024-11-08T09:00:00	1	Precipitación	0
95616	7	Sololá	717	San Juan la Laguna	12	San Juan la Laguna	12	Diciembre	2023-12-18T00:00:00	2024-11-08T09:00:00	8	Radiación solar	355
95617	7	Sololá	717	San Juan la Laguna	12	San Juan la Laguna	12	Diciembre	2023-12-18T00:00:00	2024-11-08T10:00:00	2	Temperatura media	20.1
95618	7	Sololá	717	San Juan la Laguna	12	San Juan la Laguna	12	Diciembre	2023-12-18T00:00:00	2024-11-08T10:00:00	4	Temperatura máxima	20.3
95619	7	Sololá	717	San Juan la Laguna	12	San Juan la Laguna	12	Diciembre	2023-12-18T00:00:00	2024-11-08T10:00:00	3	Temperatura mínima	19.5
95620	7	Sololá	717	San Juan la Laguna	12	San Juan la Laguna	12	Diciembre	2023-12-18T00:00:00	2024-11-08T10:00:00	5	Humedad	66
95621	7	Sololá	717	San Juan la Laguna	12	San Juan la Laguna	12	Diciembre	2023-12-18T00:00:00	2024-11-08T10:00:00	6	Velocidad del viento	6.4
95622	7	Sololá	717	San Juan la Laguna	12	San Juan la Laguna	12	Diciembre	2023-12-18T00:00:00	2024-11-08T10:00:00	7	Dirección del viento	6.44
95623	7	Sololá	717	San Juan la Laguna	12	San Juan la Laguna	12	Diciembre	2023-12-18T00:00:00	2024-11-08T10:00:00	1	Precipitación	0
95624	7	Sololá	717	San Juan la Laguna	12	San Juan la Laguna	12	Diciembre	2023-12-18T00:00:00	2024-11-08T10:00:00	8	Radiación solar	540
95625	7	Sololá	717	San Juan la Laguna	12	San Juan la Laguna	12	Diciembre	2023-12-18T00:00:00	2024-11-08T11:00:00	2	Temperatura media	21.9
95626	7	Sololá	717	San Juan la Laguna	12	San Juan la Laguna	12	Diciembre	2023-12-18T00:00:00	2024-11-08T11:00:00	4	Temperatura máxima	22.1
95627	7	Sololá	717	San Juan la Laguna	12	San Juan la Laguna	12	Diciembre	2023-12-18T00:00:00	2024-11-08T11:00:00	3	Temperatura mínima	19.8
95628	7	Sololá	717	San Juan la Laguna	12	San Juan la Laguna	12	Diciembre	2023-12-18T00:00:00	2024-11-08T11:00:00	5	Humedad	45
95629	7	Sololá	717	San Juan la Laguna	12	San Juan la Laguna	12	Diciembre	2023-12-18T00:00:00	2024-11-08T11:00:00	6	Velocidad del viento	4.8
95630	7	Sololá	717	San Juan la Laguna	12	San Juan la Laguna	12	Diciembre	2023-12-18T00:00:00	2024-11-08T11:00:00	7	Dirección del viento	4.83
95631	7	Sololá	717	San Juan la Laguna	12	San Juan la Laguna	12	Diciembre	2023-12-18T00:00:00	2024-11-08T11:00:00	1	Precipitación	0
95632	7	Sololá	717	San Juan la Laguna	12	San Juan la Laguna	12	Diciembre	2023-12-18T00:00:00	2024-11-08T11:00:00	8	Radiación solar	587
95633	7	Sololá	717	San Juan la Laguna	12	San Juan la Laguna	12	Diciembre	2023-12-18T00:00:00	2024-11-08T12:00:00	2	Temperatura media	23.2
95634	7	Sololá	717	San Juan la Laguna	12	San Juan la Laguna	12	Diciembre	2023-12-18T00:00:00	2024-11-08T12:00:00	4	Temperatura máxima	23.2
95635	7	Sololá	717	San Juan la Laguna	12	San Juan la Laguna	12	Diciembre	2023-12-18T00:00:00	2024-11-08T12:00:00	3	Temperatura mínima	21.9
95636	7	Sololá	717	San Juan la Laguna	12	San Juan la Laguna	12	Diciembre	2023-12-18T00:00:00	2024-11-08T12:00:00	5	Humedad	36
95637	7	Sololá	717	San Juan la Laguna	12	San Juan la Laguna	12	Diciembre	2023-12-18T00:00:00	2024-11-08T12:00:00	6	Velocidad del viento	4.8
95638	7	Sololá	717	San Juan la Laguna	12	San Juan la Laguna	12	Diciembre	2023-12-18T00:00:00	2024-11-08T12:00:00	7	Dirección del viento	4.83
95639	7	Sololá	717	San Juan la Laguna	12	San Juan la Laguna	12	Diciembre	2023-12-18T00:00:00	2024-11-08T12:00:00	1	Precipitación	0
95640	7	Sololá	717	San Juan la Laguna	12	San Juan la Laguna	12	Diciembre	2023-12-18T00:00:00	2024-11-08T12:00:00	8	Radiación solar	732
95641	7	Sololá	717	San Juan la Laguna	12	San Juan la Laguna	12	Diciembre	2023-12-18T00:00:00	2024-11-08T13:00:00	2	Temperatura media	24.1
95642	7	Sololá	717	San Juan la Laguna	12	San Juan la Laguna	12	Diciembre	2023-12-18T00:00:00	2024-11-08T13:00:00	4	Temperatura máxima	24.1
95643	7	Sololá	717	San Juan la Laguna	12	San Juan la Laguna	12	Diciembre	2023-12-18T00:00:00	2024-11-08T13:00:00	3	Temperatura mínima	22.8
95644	7	Sololá	717	San Juan la Laguna	12	San Juan la Laguna	12	Diciembre	2023-12-18T00:00:00	2024-11-08T13:00:00	5	Humedad	39
95645	7	Sololá	717	San Juan la Laguna	12	San Juan la Laguna	12	Diciembre	2023-12-18T00:00:00	2024-11-08T13:00:00	6	Velocidad del viento	4.8
95646	7	Sololá	717	San Juan la Laguna	12	San Juan la Laguna	12	Diciembre	2023-12-18T00:00:00	2024-11-08T13:00:00	7	Dirección del viento	4.83
95647	7	Sololá	717	San Juan la Laguna	12	San Juan la Laguna	12	Diciembre	2023-12-18T00:00:00	2024-11-08T13:00:00	1	Precipitación	0
95648	7	Sololá	717	San Juan la Laguna	12	San Juan la Laguna	12	Diciembre	2023-12-18T00:00:00	2024-11-08T13:00:00	8	Radiación solar	713
95649	7	Sololá	717	San Juan la Laguna	12	San Juan la Laguna	12	Diciembre	2023-12-18T00:00:00	2024-11-08T14:00:00	2	Temperatura media	24.1
95650	7	Sololá	717	San Juan la Laguna	12	San Juan la Laguna	12	Diciembre	2023-12-18T00:00:00	2024-11-08T14:00:00	4	Temperatura máxima	24.6
95651	7	Sololá	717	San Juan la Laguna	12	San Juan la Laguna	12	Diciembre	2023-12-18T00:00:00	2024-11-08T14:00:00	3	Temperatura mínima	23.7
95652	7	Sololá	717	San Juan la Laguna	12	San Juan la Laguna	12	Diciembre	2023-12-18T00:00:00	2024-11-08T14:00:00	5	Humedad	44
95653	7	Sololá	717	San Juan la Laguna	12	San Juan la Laguna	12	Diciembre	2023-12-18T00:00:00	2024-11-08T14:00:00	6	Velocidad del viento	4.8
95654	7	Sololá	717	San Juan la Laguna	12	San Juan la Laguna	12	Diciembre	2023-12-18T00:00:00	2024-11-08T14:00:00	7	Dirección del viento	4.83
95655	7	Sololá	717	San Juan la Laguna	12	San Juan la Laguna	12	Diciembre	2023-12-18T00:00:00	2024-11-08T14:00:00	1	Precipitación	0
95656	7	Sololá	717	San Juan la Laguna	12	San Juan la Laguna	12	Diciembre	2023-12-18T00:00:00	2024-11-08T14:00:00	8	Radiación solar	690
95657	7	Sololá	717	San Juan la Laguna	12	San Juan la Laguna	12	Diciembre	2023-12-18T00:00:00	2024-11-08T15:00:00	2	Temperatura media	23
95658	7	Sololá	717	San Juan la Laguna	12	San Juan la Laguna	12	Diciembre	2023-12-18T00:00:00	2024-11-08T15:00:00	4	Temperatura máxima	24.1
95659	7	Sololá	717	San Juan la Laguna	12	San Juan la Laguna	12	Diciembre	2023-12-18T00:00:00	2024-11-08T15:00:00	3	Temperatura mínima	23
95660	7	Sololá	717	San Juan la Laguna	12	San Juan la Laguna	12	Diciembre	2023-12-18T00:00:00	2024-11-08T15:00:00	5	Humedad	53
95661	7	Sololá	717	San Juan la Laguna	12	San Juan la Laguna	12	Diciembre	2023-12-18T00:00:00	2024-11-08T15:00:00	6	Velocidad del viento	6.4
95662	7	Sololá	717	San Juan la Laguna	12	San Juan la Laguna	12	Diciembre	2023-12-18T00:00:00	2024-11-08T15:00:00	7	Dirección del viento	6.44
95663	7	Sololá	717	San Juan la Laguna	12	San Juan la Laguna	12	Diciembre	2023-12-18T00:00:00	2024-11-08T15:00:00	1	Precipitación	0
95664	7	Sololá	717	San Juan la Laguna	12	San Juan la Laguna	12	Diciembre	2023-12-18T00:00:00	2024-11-08T15:00:00	8	Radiación solar	561
95665	7	Sololá	717	San Juan la Laguna	12	San Juan la Laguna	12	Diciembre	2023-12-18T00:00:00	2024-11-08T16:00:00	2	Temperatura media	22.5
95666	7	Sololá	717	San Juan la Laguna	12	San Juan la Laguna	12	Diciembre	2023-12-18T00:00:00	2024-11-08T16:00:00	4	Temperatura máxima	23.4
95667	7	Sololá	717	San Juan la Laguna	12	San Juan la Laguna	12	Diciembre	2023-12-18T00:00:00	2024-11-08T16:00:00	3	Temperatura mínima	22.5
95668	7	Sololá	717	San Juan la Laguna	12	San Juan la Laguna	12	Diciembre	2023-12-18T00:00:00	2024-11-08T16:00:00	5	Humedad	56
95669	7	Sololá	717	San Juan la Laguna	12	San Juan la Laguna	12	Diciembre	2023-12-18T00:00:00	2024-11-08T16:00:00	6	Velocidad del viento	4.8
95670	7	Sololá	717	San Juan la Laguna	12	San Juan la Laguna	12	Diciembre	2023-12-18T00:00:00	2024-11-08T16:00:00	7	Dirección del viento	4.83
95671	7	Sololá	717	San Juan la Laguna	12	San Juan la Laguna	12	Diciembre	2023-12-18T00:00:00	2024-11-08T16:00:00	1	Precipitación	0
95672	7	Sololá	717	San Juan la Laguna	12	San Juan la Laguna	12	Diciembre	2023-12-18T00:00:00	2024-11-08T16:00:00	8	Radiación solar	389
95673	7	Sololá	717	San Juan la Laguna	12	San Juan la Laguna	12	Diciembre	2023-12-18T00:00:00	2024-11-08T17:00:00	2	Temperatura media	20.8
95674	7	Sololá	717	San Juan la Laguna	12	San Juan la Laguna	12	Diciembre	2023-12-18T00:00:00	2024-11-08T17:00:00	4	Temperatura máxima	22.4
95675	7	Sololá	717	San Juan la Laguna	12	San Juan la Laguna	12	Diciembre	2023-12-18T00:00:00	2024-11-08T17:00:00	3	Temperatura mínima	20.8
95676	7	Sololá	717	San Juan la Laguna	12	San Juan la Laguna	12	Diciembre	2023-12-18T00:00:00	2024-11-08T17:00:00	5	Humedad	49
95677	7	Sololá	717	San Juan la Laguna	12	San Juan la Laguna	12	Diciembre	2023-12-18T00:00:00	2024-11-08T17:00:00	6	Velocidad del viento	3.2
95678	7	Sololá	717	San Juan la Laguna	12	San Juan la Laguna	12	Diciembre	2023-12-18T00:00:00	2024-11-08T17:00:00	7	Dirección del viento	3.22
95679	7	Sololá	717	San Juan la Laguna	12	San Juan la Laguna	12	Diciembre	2023-12-18T00:00:00	2024-11-08T17:00:00	1	Precipitación	0
95680	7	Sololá	717	San Juan la Laguna	12	San Juan la Laguna	12	Diciembre	2023-12-18T00:00:00	2024-11-08T17:00:00	8	Radiación solar	68
95681	7	Sololá	717	San Juan la Laguna	12	San Juan la Laguna	12	Diciembre	2023-12-18T00:00:00	2024-11-08T18:00:00	2	Temperatura media	19
95682	7	Sololá	717	San Juan la Laguna	12	San Juan la Laguna	12	Diciembre	2023-12-18T00:00:00	2024-11-08T18:00:00	4	Temperatura máxima	20.8
95683	7	Sololá	717	San Juan la Laguna	12	San Juan la Laguna	12	Diciembre	2023-12-18T00:00:00	2024-11-08T18:00:00	3	Temperatura mínima	18.9
95684	7	Sololá	717	San Juan la Laguna	12	San Juan la Laguna	12	Diciembre	2023-12-18T00:00:00	2024-11-08T18:00:00	5	Humedad	54
95685	7	Sololá	717	San Juan la Laguna	12	San Juan la Laguna	12	Diciembre	2023-12-18T00:00:00	2024-11-08T18:00:00	6	Velocidad del viento	1.6
95686	7	Sololá	717	San Juan la Laguna	12	San Juan la Laguna	12	Diciembre	2023-12-18T00:00:00	2024-11-08T18:00:00	7	Dirección del viento	1.61
95687	7	Sololá	717	San Juan la Laguna	12	San Juan la Laguna	12	Diciembre	2023-12-18T00:00:00	2024-11-08T18:00:00	1	Precipitación	0
95688	7	Sololá	717	San Juan la Laguna	12	San Juan la Laguna	12	Diciembre	2023-12-18T00:00:00	2024-11-08T18:00:00	8	Radiación solar	9
95689	7	Sololá	717	San Juan la Laguna	12	San Juan la Laguna	12	Diciembre	2023-12-18T00:00:00	2024-11-08T19:00:00	2	Temperatura media	18.3
95690	7	Sololá	717	San Juan la Laguna	12	San Juan la Laguna	12	Diciembre	2023-12-18T00:00:00	2024-11-08T19:00:00	4	Temperatura máxima	19
95691	7	Sololá	717	San Juan la Laguna	12	San Juan la Laguna	12	Diciembre	2023-12-18T00:00:00	2024-11-08T19:00:00	3	Temperatura mínima	18.1
95692	7	Sololá	717	San Juan la Laguna	12	San Juan la Laguna	12	Diciembre	2023-12-18T00:00:00	2024-11-08T19:00:00	5	Humedad	38
95693	7	Sololá	717	San Juan la Laguna	12	San Juan la Laguna	12	Diciembre	2023-12-18T00:00:00	2024-11-08T19:00:00	6	Velocidad del viento	4.8
95694	7	Sololá	717	San Juan la Laguna	12	San Juan la Laguna	12	Diciembre	2023-12-18T00:00:00	2024-11-08T19:00:00	7	Dirección del viento	4.83
95695	7	Sololá	717	San Juan la Laguna	12	San Juan la Laguna	12	Diciembre	2023-12-18T00:00:00	2024-11-08T19:00:00	1	Precipitación	0
95696	7	Sololá	717	San Juan la Laguna	12	San Juan la Laguna	12	Diciembre	2023-12-18T00:00:00	2024-11-08T19:00:00	8	Radiación solar	0
95697	7	Sololá	717	San Juan la Laguna	12	San Juan la Laguna	12	Diciembre	2023-12-18T00:00:00	2024-11-08T20:00:00	2	Temperatura media	17.7
95698	7	Sololá	717	San Juan la Laguna	12	San Juan la Laguna	12	Diciembre	2023-12-18T00:00:00	2024-11-08T20:00:00	4	Temperatura máxima	18.4
95699	7	Sololá	717	San Juan la Laguna	12	San Juan la Laguna	12	Diciembre	2023-12-18T00:00:00	2024-11-08T20:00:00	3	Temperatura mínima	17.7
95700	7	Sololá	717	San Juan la Laguna	12	San Juan la Laguna	12	Diciembre	2023-12-18T00:00:00	2024-11-08T20:00:00	5	Humedad	31
95701	7	Sololá	717	San Juan la Laguna	12	San Juan la Laguna	12	Diciembre	2023-12-18T00:00:00	2024-11-08T20:00:00	6	Velocidad del viento	6.4
95702	7	Sololá	717	San Juan la Laguna	12	San Juan la Laguna	12	Diciembre	2023-12-18T00:00:00	2024-11-08T20:00:00	7	Dirección del viento	6.44
95703	7	Sololá	717	San Juan la Laguna	12	San Juan la Laguna	12	Diciembre	2023-12-18T00:00:00	2024-11-08T20:00:00	1	Precipitación	0
95704	7	Sololá	717	San Juan la Laguna	12	San Juan la Laguna	12	Diciembre	2023-12-18T00:00:00	2024-11-08T20:00:00	8	Radiación solar	0
95705	7	Sololá	717	San Juan la Laguna	12	San Juan la Laguna	12	Diciembre	2023-12-18T00:00:00	2024-11-08T21:00:00	2	Temperatura media	16.7
95706	7	Sololá	717	San Juan la Laguna	12	San Juan la Laguna	12	Diciembre	2023-12-18T00:00:00	2024-11-08T21:00:00	4	Temperatura máxima	17.7
95707	7	Sololá	717	San Juan la Laguna	12	San Juan la Laguna	12	Diciembre	2023-12-18T00:00:00	2024-11-08T21:00:00	3	Temperatura mínima	15.3
95708	7	Sololá	717	San Juan la Laguna	12	San Juan la Laguna	12	Diciembre	2023-12-18T00:00:00	2024-11-08T21:00:00	5	Humedad	33
95709	7	Sololá	717	San Juan la Laguna	12	San Juan la Laguna	12	Diciembre	2023-12-18T00:00:00	2024-11-08T21:00:00	6	Velocidad del viento	6.4
95710	7	Sololá	717	San Juan la Laguna	12	San Juan la Laguna	12	Diciembre	2023-12-18T00:00:00	2024-11-08T21:00:00	7	Dirección del viento	6.44
95711	7	Sololá	717	San Juan la Laguna	12	San Juan la Laguna	12	Diciembre	2023-12-18T00:00:00	2024-11-08T21:00:00	1	Precipitación	0
95712	7	Sololá	717	San Juan la Laguna	12	San Juan la Laguna	12	Diciembre	2023-12-18T00:00:00	2024-11-08T21:00:00	8	Radiación solar	0
95713	7	Sololá	717	San Juan la Laguna	12	San Juan la Laguna	12	Diciembre	2023-12-18T00:00:00	2024-11-08T22:00:00	2	Temperatura media	17.3
95714	7	Sololá	717	San Juan la Laguna	12	San Juan la Laguna	12	Diciembre	2023-12-18T00:00:00	2024-11-08T22:00:00	4	Temperatura máxima	17.6
95715	7	Sololá	717	San Juan la Laguna	12	San Juan la Laguna	12	Diciembre	2023-12-18T00:00:00	2024-11-08T22:00:00	3	Temperatura mínima	16.8
95716	7	Sololá	717	San Juan la Laguna	12	San Juan la Laguna	12	Diciembre	2023-12-18T00:00:00	2024-11-08T22:00:00	5	Humedad	30
95717	7	Sololá	717	San Juan la Laguna	12	San Juan la Laguna	12	Diciembre	2023-12-18T00:00:00	2024-11-08T22:00:00	6	Velocidad del viento	8
95718	7	Sololá	717	San Juan la Laguna	12	San Juan la Laguna	12	Diciembre	2023-12-18T00:00:00	2024-11-08T22:00:00	7	Dirección del viento	8.05
95719	7	Sololá	717	San Juan la Laguna	12	San Juan la Laguna	12	Diciembre	2023-12-18T00:00:00	2024-11-08T22:00:00	1	Precipitación	0
95720	7	Sololá	717	San Juan la Laguna	12	San Juan la Laguna	12	Diciembre	2023-12-18T00:00:00	2024-11-08T22:00:00	8	Radiación solar	0
95721	7	Sololá	717	San Juan la Laguna	12	San Juan la Laguna	12	Diciembre	2023-12-18T00:00:00	2024-11-08T23:00:00	2	Temperatura media	16.9
95722	7	Sololá	717	San Juan la Laguna	12	San Juan la Laguna	12	Diciembre	2023-12-18T00:00:00	2024-11-08T23:00:00	4	Temperatura máxima	17.3
95723	7	Sololá	717	San Juan la Laguna	12	San Juan la Laguna	12	Diciembre	2023-12-18T00:00:00	2024-11-08T23:00:00	3	Temperatura mínima	16.7
95724	7	Sololá	717	San Juan la Laguna	12	San Juan la Laguna	12	Diciembre	2023-12-18T00:00:00	2024-11-08T23:00:00	5	Humedad	24
95725	7	Sololá	717	San Juan la Laguna	12	San Juan la Laguna	12	Diciembre	2023-12-18T00:00:00	2024-11-08T23:00:00	6	Velocidad del viento	9.7
95726	7	Sololá	717	San Juan la Laguna	12	San Juan la Laguna	12	Diciembre	2023-12-18T00:00:00	2024-11-08T23:00:00	7	Dirección del viento	9.66
95727	7	Sololá	717	San Juan la Laguna	12	San Juan la Laguna	12	Diciembre	2023-12-18T00:00:00	2024-11-08T23:00:00	1	Precipitación	0
95728	7	Sololá	717	San Juan la Laguna	12	San Juan la Laguna	12	Diciembre	2023-12-18T00:00:00	2024-11-08T23:00:00	8	Radiación solar	0
95729	7	Sololá	717	San Juan la Laguna	12	San Juan la Laguna	12	Diciembre	2023-12-19T00:00:00	2024-11-08T00:00:00	2	Temperatura media	16.2
95730	7	Sololá	717	San Juan la Laguna	12	San Juan la Laguna	12	Diciembre	2023-12-19T00:00:00	2024-11-08T00:00:00	4	Temperatura máxima	16.9
95731	7	Sololá	717	San Juan la Laguna	12	San Juan la Laguna	12	Diciembre	2023-12-19T00:00:00	2024-11-08T00:00:00	3	Temperatura mínima	16.2
95732	7	Sololá	717	San Juan la Laguna	12	San Juan la Laguna	12	Diciembre	2023-12-19T00:00:00	2024-11-08T00:00:00	5	Humedad	26
95733	7	Sololá	717	San Juan la Laguna	12	San Juan la Laguna	12	Diciembre	2023-12-19T00:00:00	2024-11-08T00:00:00	6	Velocidad del viento	8
95734	7	Sololá	717	San Juan la Laguna	12	San Juan la Laguna	12	Diciembre	2023-12-19T00:00:00	2024-11-08T00:00:00	7	Dirección del viento	8.05
95735	7	Sololá	717	San Juan la Laguna	12	San Juan la Laguna	12	Diciembre	2023-12-19T00:00:00	2024-11-08T00:00:00	1	Precipitación	0
95736	7	Sololá	717	San Juan la Laguna	12	San Juan la Laguna	12	Diciembre	2023-12-19T00:00:00	2024-11-08T00:00:00	8	Radiación solar	0
95737	7	Sololá	717	San Juan la Laguna	12	San Juan la Laguna	12	Diciembre	2023-12-19T00:00:00	2024-11-08T01:00:00	2	Temperatura media	12.6
95738	7	Sololá	717	San Juan la Laguna	12	San Juan la Laguna	12	Diciembre	2023-12-19T00:00:00	2024-11-08T01:00:00	4	Temperatura máxima	16.3
95739	7	Sololá	717	San Juan la Laguna	12	San Juan la Laguna	12	Diciembre	2023-12-19T00:00:00	2024-11-08T01:00:00	3	Temperatura mínima	12.5
95740	7	Sololá	717	San Juan la Laguna	12	San Juan la Laguna	12	Diciembre	2023-12-19T00:00:00	2024-11-08T01:00:00	5	Humedad	38
95741	7	Sololá	717	San Juan la Laguna	12	San Juan la Laguna	12	Diciembre	2023-12-19T00:00:00	2024-11-08T01:00:00	6	Velocidad del viento	6.4
95742	7	Sololá	717	San Juan la Laguna	12	San Juan la Laguna	12	Diciembre	2023-12-19T00:00:00	2024-11-08T01:00:00	7	Dirección del viento	6.44
95743	7	Sololá	717	San Juan la Laguna	12	San Juan la Laguna	12	Diciembre	2023-12-19T00:00:00	2024-11-08T01:00:00	1	Precipitación	0
95744	7	Sololá	717	San Juan la Laguna	12	San Juan la Laguna	12	Diciembre	2023-12-19T00:00:00	2024-11-08T01:00:00	8	Radiación solar	0
95745	7	Sololá	717	San Juan la Laguna	12	San Juan la Laguna	12	Diciembre	2023-12-19T00:00:00	2024-11-08T02:00:00	2	Temperatura media	11.8
95746	7	Sololá	717	San Juan la Laguna	12	San Juan la Laguna	12	Diciembre	2023-12-19T00:00:00	2024-11-08T02:00:00	4	Temperatura máxima	13.2
95747	7	Sololá	717	San Juan la Laguna	12	San Juan la Laguna	12	Diciembre	2023-12-19T00:00:00	2024-11-08T02:00:00	3	Temperatura mínima	11.8
95748	7	Sololá	717	San Juan la Laguna	12	San Juan la Laguna	12	Diciembre	2023-12-19T00:00:00	2024-11-08T02:00:00	5	Humedad	40
95749	7	Sololá	717	San Juan la Laguna	12	San Juan la Laguna	12	Diciembre	2023-12-19T00:00:00	2024-11-08T02:00:00	6	Velocidad del viento	6.4
95750	7	Sololá	717	San Juan la Laguna	12	San Juan la Laguna	12	Diciembre	2023-12-19T00:00:00	2024-11-08T02:00:00	7	Dirección del viento	6.44
95751	7	Sololá	717	San Juan la Laguna	12	San Juan la Laguna	12	Diciembre	2023-12-19T00:00:00	2024-11-08T02:00:00	1	Precipitación	0
95752	7	Sololá	717	San Juan la Laguna	12	San Juan la Laguna	12	Diciembre	2023-12-19T00:00:00	2024-11-08T02:00:00	8	Radiación solar	0
95753	7	Sololá	717	San Juan la Laguna	12	San Juan la Laguna	12	Diciembre	2023-12-19T00:00:00	2024-11-08T03:00:00	2	Temperatura media	11.5
95754	7	Sololá	717	San Juan la Laguna	12	San Juan la Laguna	12	Diciembre	2023-12-19T00:00:00	2024-11-08T03:00:00	4	Temperatura máxima	12.1
95755	7	Sololá	717	San Juan la Laguna	12	San Juan la Laguna	12	Diciembre	2023-12-19T00:00:00	2024-11-08T03:00:00	3	Temperatura mínima	10.8
95756	7	Sololá	717	San Juan la Laguna	12	San Juan la Laguna	12	Diciembre	2023-12-19T00:00:00	2024-11-08T03:00:00	5	Humedad	41
95757	7	Sololá	717	San Juan la Laguna	12	San Juan la Laguna	12	Diciembre	2023-12-19T00:00:00	2024-11-08T03:00:00	6	Velocidad del viento	6.4
95758	7	Sololá	717	San Juan la Laguna	12	San Juan la Laguna	12	Diciembre	2023-12-19T00:00:00	2024-11-08T03:00:00	7	Dirección del viento	6.44
95759	7	Sololá	717	San Juan la Laguna	12	San Juan la Laguna	12	Diciembre	2023-12-19T00:00:00	2024-11-08T03:00:00	1	Precipitación	0
95760	7	Sololá	717	San Juan la Laguna	12	San Juan la Laguna	12	Diciembre	2023-12-19T00:00:00	2024-11-08T03:00:00	8	Radiación solar	0
95761	7	Sololá	717	San Juan la Laguna	12	San Juan la Laguna	12	Diciembre	2023-12-19T00:00:00	2024-11-08T04:00:00	2	Temperatura media	11.6
95762	7	Sololá	717	San Juan la Laguna	12	San Juan la Laguna	12	Diciembre	2023-12-19T00:00:00	2024-11-08T04:00:00	4	Temperatura máxima	11.9
95763	7	Sololá	717	San Juan la Laguna	12	San Juan la Laguna	12	Diciembre	2023-12-19T00:00:00	2024-11-08T04:00:00	3	Temperatura mínima	11.4
95764	7	Sololá	717	San Juan la Laguna	12	San Juan la Laguna	12	Diciembre	2023-12-19T00:00:00	2024-11-08T04:00:00	5	Humedad	41
95765	7	Sololá	717	San Juan la Laguna	12	San Juan la Laguna	12	Diciembre	2023-12-19T00:00:00	2024-11-08T04:00:00	6	Velocidad del viento	8
95766	7	Sololá	717	San Juan la Laguna	12	San Juan la Laguna	12	Diciembre	2023-12-19T00:00:00	2024-11-08T04:00:00	7	Dirección del viento	8.05
95767	7	Sololá	717	San Juan la Laguna	12	San Juan la Laguna	12	Diciembre	2023-12-19T00:00:00	2024-11-08T04:00:00	1	Precipitación	0
95768	7	Sololá	717	San Juan la Laguna	12	San Juan la Laguna	12	Diciembre	2023-12-19T00:00:00	2024-11-08T04:00:00	8	Radiación solar	0
95769	7	Sololá	717	San Juan la Laguna	12	San Juan la Laguna	12	Diciembre	2023-12-19T00:00:00	2024-11-08T05:00:00	2	Temperatura media	10.1
95770	7	Sololá	717	San Juan la Laguna	12	San Juan la Laguna	12	Diciembre	2023-12-19T00:00:00	2024-11-08T05:00:00	4	Temperatura máxima	11.6
95771	7	Sololá	717	San Juan la Laguna	12	San Juan la Laguna	12	Diciembre	2023-12-19T00:00:00	2024-11-08T05:00:00	3	Temperatura mínima	10.1
95772	7	Sololá	717	San Juan la Laguna	12	San Juan la Laguna	12	Diciembre	2023-12-19T00:00:00	2024-11-08T05:00:00	5	Humedad	43
95773	7	Sololá	717	San Juan la Laguna	12	San Juan la Laguna	12	Diciembre	2023-12-19T00:00:00	2024-11-08T05:00:00	6	Velocidad del viento	8
95774	7	Sololá	717	San Juan la Laguna	12	San Juan la Laguna	12	Diciembre	2023-12-19T00:00:00	2024-11-08T05:00:00	7	Dirección del viento	8.05
95775	7	Sololá	717	San Juan la Laguna	12	San Juan la Laguna	12	Diciembre	2023-12-19T00:00:00	2024-11-08T05:00:00	1	Precipitación	0
95776	7	Sololá	717	San Juan la Laguna	12	San Juan la Laguna	12	Diciembre	2023-12-19T00:00:00	2024-11-08T05:00:00	8	Radiación solar	0
95777	7	Sololá	717	San Juan la Laguna	12	San Juan la Laguna	12	Diciembre	2023-12-19T00:00:00	2024-11-08T06:00:00	2	Temperatura media	9.7
95778	7	Sololá	717	San Juan la Laguna	12	San Juan la Laguna	12	Diciembre	2023-12-19T00:00:00	2024-11-08T06:00:00	4	Temperatura máxima	10.5
95779	7	Sololá	717	San Juan la Laguna	12	San Juan la Laguna	12	Diciembre	2023-12-19T00:00:00	2024-11-08T06:00:00	3	Temperatura mínima	9.7
95780	7	Sololá	717	San Juan la Laguna	12	San Juan la Laguna	12	Diciembre	2023-12-19T00:00:00	2024-11-08T06:00:00	5	Humedad	41
95781	7	Sololá	717	San Juan la Laguna	12	San Juan la Laguna	12	Diciembre	2023-12-19T00:00:00	2024-11-08T06:00:00	6	Velocidad del viento	8
95782	7	Sololá	717	San Juan la Laguna	12	San Juan la Laguna	12	Diciembre	2023-12-19T00:00:00	2024-11-08T06:00:00	7	Dirección del viento	8.05
95783	7	Sololá	717	San Juan la Laguna	12	San Juan la Laguna	12	Diciembre	2023-12-19T00:00:00	2024-11-08T06:00:00	1	Precipitación	0
95784	7	Sololá	717	San Juan la Laguna	12	San Juan la Laguna	12	Diciembre	2023-12-19T00:00:00	2024-11-08T06:00:00	8	Radiación solar	0
95785	7	Sololá	717	San Juan la Laguna	12	San Juan la Laguna	12	Diciembre	2023-12-19T00:00:00	2024-11-08T07:00:00	2	Temperatura media	9.8
95786	7	Sololá	717	San Juan la Laguna	12	San Juan la Laguna	12	Diciembre	2023-12-19T00:00:00	2024-11-08T07:00:00	4	Temperatura máxima	9.8
95787	7	Sololá	717	San Juan la Laguna	12	San Juan la Laguna	12	Diciembre	2023-12-19T00:00:00	2024-11-08T07:00:00	3	Temperatura mínima	9.1
95788	7	Sololá	717	San Juan la Laguna	12	San Juan la Laguna	12	Diciembre	2023-12-19T00:00:00	2024-11-08T07:00:00	5	Humedad	38
95789	7	Sololá	717	San Juan la Laguna	12	San Juan la Laguna	12	Diciembre	2023-12-19T00:00:00	2024-11-08T07:00:00	6	Velocidad del viento	8
95790	7	Sololá	717	San Juan la Laguna	12	San Juan la Laguna	12	Diciembre	2023-12-19T00:00:00	2024-11-08T07:00:00	7	Dirección del viento	8.05
95791	7	Sololá	717	San Juan la Laguna	12	San Juan la Laguna	12	Diciembre	2023-12-19T00:00:00	2024-11-08T07:00:00	1	Precipitación	0
95792	7	Sololá	717	San Juan la Laguna	12	San Juan la Laguna	12	Diciembre	2023-12-19T00:00:00	2024-11-08T07:00:00	8	Radiación solar	7
95793	7	Sololá	717	San Juan la Laguna	12	San Juan la Laguna	12	Diciembre	2023-12-19T00:00:00	2024-11-08T08:00:00	2	Temperatura media	11.6
95794	7	Sololá	717	San Juan la Laguna	12	San Juan la Laguna	12	Diciembre	2023-12-19T00:00:00	2024-11-08T08:00:00	4	Temperatura máxima	11.6
95795	7	Sololá	717	San Juan la Laguna	12	San Juan la Laguna	12	Diciembre	2023-12-19T00:00:00	2024-11-08T08:00:00	3	Temperatura mínima	9.8
95796	7	Sololá	717	San Juan la Laguna	12	San Juan la Laguna	12	Diciembre	2023-12-19T00:00:00	2024-11-08T08:00:00	5	Humedad	44
95797	7	Sololá	717	San Juan la Laguna	12	San Juan la Laguna	12	Diciembre	2023-12-19T00:00:00	2024-11-08T08:00:00	6	Velocidad del viento	6.4
95798	7	Sololá	717	San Juan la Laguna	12	San Juan la Laguna	12	Diciembre	2023-12-19T00:00:00	2024-11-08T08:00:00	7	Dirección del viento	6.44
95799	7	Sololá	717	San Juan la Laguna	12	San Juan la Laguna	12	Diciembre	2023-12-19T00:00:00	2024-11-08T08:00:00	1	Precipitación	0
95800	7	Sololá	717	San Juan la Laguna	12	San Juan la Laguna	12	Diciembre	2023-12-19T00:00:00	2024-11-08T08:00:00	8	Radiación solar	149
95801	7	Sololá	717	San Juan la Laguna	12	San Juan la Laguna	12	Diciembre	2023-12-19T00:00:00	2024-11-08T09:00:00	2	Temperatura media	17.7
95802	7	Sololá	717	San Juan la Laguna	12	San Juan la Laguna	12	Diciembre	2023-12-19T00:00:00	2024-11-08T09:00:00	4	Temperatura máxima	17.7
95803	7	Sololá	717	San Juan la Laguna	12	San Juan la Laguna	12	Diciembre	2023-12-19T00:00:00	2024-11-08T09:00:00	3	Temperatura mínima	11.6
95804	7	Sololá	717	San Juan la Laguna	12	San Juan la Laguna	12	Diciembre	2023-12-19T00:00:00	2024-11-08T09:00:00	5	Humedad	27
95805	7	Sololá	717	San Juan la Laguna	12	San Juan la Laguna	12	Diciembre	2023-12-19T00:00:00	2024-11-08T09:00:00	6	Velocidad del viento	3.2
95806	7	Sololá	717	San Juan la Laguna	12	San Juan la Laguna	12	Diciembre	2023-12-19T00:00:00	2024-11-08T09:00:00	7	Dirección del viento	3.22
95807	7	Sololá	717	San Juan la Laguna	12	San Juan la Laguna	12	Diciembre	2023-12-19T00:00:00	2024-11-08T09:00:00	1	Precipitación	0
95808	7	Sololá	717	San Juan la Laguna	12	San Juan la Laguna	12	Diciembre	2023-12-19T00:00:00	2024-11-08T09:00:00	8	Radiación solar	380
95809	7	Sololá	717	San Juan la Laguna	12	San Juan la Laguna	12	Diciembre	2023-12-19T00:00:00	2024-11-08T10:00:00	2	Temperatura media	20.1
95810	7	Sololá	717	San Juan la Laguna	12	San Juan la Laguna	12	Diciembre	2023-12-19T00:00:00	2024-11-08T10:00:00	4	Temperatura máxima	20.2
95811	7	Sololá	717	San Juan la Laguna	12	San Juan la Laguna	12	Diciembre	2023-12-19T00:00:00	2024-11-08T10:00:00	3	Temperatura mínima	17.7
95812	7	Sololá	717	San Juan la Laguna	12	San Juan la Laguna	12	Diciembre	2023-12-19T00:00:00	2024-11-08T10:00:00	5	Humedad	22
95813	7	Sololá	717	San Juan la Laguna	12	San Juan la Laguna	12	Diciembre	2023-12-19T00:00:00	2024-11-08T10:00:00	6	Velocidad del viento	3.2
95814	7	Sololá	717	San Juan la Laguna	12	San Juan la Laguna	12	Diciembre	2023-12-19T00:00:00	2024-11-08T10:00:00	7	Dirección del viento	3.22
95815	7	Sololá	717	San Juan la Laguna	12	San Juan la Laguna	12	Diciembre	2023-12-19T00:00:00	2024-11-08T10:00:00	1	Precipitación	0
95816	7	Sololá	717	San Juan la Laguna	12	San Juan la Laguna	12	Diciembre	2023-12-19T00:00:00	2024-11-08T10:00:00	8	Radiación solar	564
95817	7	Sololá	717	San Juan la Laguna	12	San Juan la Laguna	12	Diciembre	2023-12-19T00:00:00	2024-11-08T11:00:00	2	Temperatura media	22.1
95818	7	Sololá	717	San Juan la Laguna	12	San Juan la Laguna	12	Diciembre	2023-12-19T00:00:00	2024-11-08T11:00:00	4	Temperatura máxima	22.1
95819	7	Sololá	717	San Juan la Laguna	12	San Juan la Laguna	12	Diciembre	2023-12-19T00:00:00	2024-11-08T11:00:00	3	Temperatura mínima	20.1
95820	7	Sololá	717	San Juan la Laguna	12	San Juan la Laguna	12	Diciembre	2023-12-19T00:00:00	2024-11-08T11:00:00	5	Humedad	19
95821	7	Sololá	717	San Juan la Laguna	12	San Juan la Laguna	12	Diciembre	2023-12-19T00:00:00	2024-11-08T11:00:00	6	Velocidad del viento	6.4
95822	7	Sololá	717	San Juan la Laguna	12	San Juan la Laguna	12	Diciembre	2023-12-19T00:00:00	2024-11-08T11:00:00	7	Dirección del viento	6.44
95823	7	Sololá	717	San Juan la Laguna	12	San Juan la Laguna	12	Diciembre	2023-12-19T00:00:00	2024-11-08T11:00:00	1	Precipitación	0
95824	7	Sololá	717	San Juan la Laguna	12	San Juan la Laguna	12	Diciembre	2023-12-19T00:00:00	2024-11-08T11:00:00	8	Radiación solar	599
95825	7	Sololá	717	San Juan la Laguna	12	San Juan la Laguna	12	Diciembre	2023-12-19T00:00:00	2024-11-08T12:00:00	2	Temperatura media	24.3
95826	7	Sololá	717	San Juan la Laguna	12	San Juan la Laguna	12	Diciembre	2023-12-19T00:00:00	2024-11-08T12:00:00	4	Temperatura máxima	24.3
95827	7	Sololá	717	San Juan la Laguna	12	San Juan la Laguna	12	Diciembre	2023-12-19T00:00:00	2024-11-08T12:00:00	3	Temperatura mínima	22.1
95828	7	Sololá	717	San Juan la Laguna	12	San Juan la Laguna	12	Diciembre	2023-12-19T00:00:00	2024-11-08T12:00:00	5	Humedad	17
95829	7	Sololá	717	San Juan la Laguna	12	San Juan la Laguna	12	Diciembre	2023-12-19T00:00:00	2024-11-08T12:00:00	6	Velocidad del viento	9.7
95830	7	Sololá	717	San Juan la Laguna	12	San Juan la Laguna	12	Diciembre	2023-12-19T00:00:00	2024-11-08T12:00:00	7	Dirección del viento	9.66
95831	7	Sololá	717	San Juan la Laguna	12	San Juan la Laguna	12	Diciembre	2023-12-19T00:00:00	2024-11-08T12:00:00	1	Precipitación	0
95832	7	Sololá	717	San Juan la Laguna	12	San Juan la Laguna	12	Diciembre	2023-12-19T00:00:00	2024-11-08T12:00:00	8	Radiación solar	750
95833	7	Sololá	717	San Juan la Laguna	12	San Juan la Laguna	12	Diciembre	2023-12-19T00:00:00	2024-11-08T13:00:00	2	Temperatura media	24.3
95834	7	Sololá	717	San Juan la Laguna	12	San Juan la Laguna	12	Diciembre	2023-12-19T00:00:00	2024-11-08T13:00:00	4	Temperatura máxima	24.3
95835	7	Sololá	717	San Juan la Laguna	12	San Juan la Laguna	12	Diciembre	2023-12-19T00:00:00	2024-11-08T13:00:00	3	Temperatura mínima	24.1
95836	7	Sololá	717	San Juan la Laguna	12	San Juan la Laguna	12	Diciembre	2023-12-19T00:00:00	2024-11-08T13:00:00	5	Humedad	19
95837	7	Sololá	717	San Juan la Laguna	12	San Juan la Laguna	12	Diciembre	2023-12-19T00:00:00	2024-11-08T13:00:00	6	Velocidad del viento	12.9
95838	7	Sololá	717	San Juan la Laguna	12	San Juan la Laguna	12	Diciembre	2023-12-19T00:00:00	2024-11-08T13:00:00	7	Dirección del viento	12.87
95839	7	Sololá	717	San Juan la Laguna	12	San Juan la Laguna	12	Diciembre	2023-12-19T00:00:00	2024-11-08T13:00:00	1	Precipitación	0
95840	7	Sololá	717	San Juan la Laguna	12	San Juan la Laguna	12	Diciembre	2023-12-19T00:00:00	2024-11-08T13:00:00	8	Radiación solar	742
95841	7	Sololá	717	San Juan la Laguna	12	San Juan la Laguna	12	Diciembre	2023-12-19T00:00:00	2024-11-08T14:00:00	2	Temperatura media	24.7
95842	7	Sololá	717	San Juan la Laguna	12	San Juan la Laguna	12	Diciembre	2023-12-19T00:00:00	2024-11-08T14:00:00	4	Temperatura máxima	24.7
95843	7	Sololá	717	San Juan la Laguna	12	San Juan la Laguna	12	Diciembre	2023-12-19T00:00:00	2024-11-08T14:00:00	3	Temperatura mínima	24.3
95844	7	Sololá	717	San Juan la Laguna	12	San Juan la Laguna	12	Diciembre	2023-12-19T00:00:00	2024-11-08T14:00:00	5	Humedad	20
95845	7	Sololá	717	San Juan la Laguna	12	San Juan la Laguna	12	Diciembre	2023-12-19T00:00:00	2024-11-08T14:00:00	6	Velocidad del viento	9.7
95846	7	Sololá	717	San Juan la Laguna	12	San Juan la Laguna	12	Diciembre	2023-12-19T00:00:00	2024-11-08T14:00:00	7	Dirección del viento	9.66
95847	7	Sololá	717	San Juan la Laguna	12	San Juan la Laguna	12	Diciembre	2023-12-19T00:00:00	2024-11-08T14:00:00	1	Precipitación	0
95848	7	Sololá	717	San Juan la Laguna	12	San Juan la Laguna	12	Diciembre	2023-12-19T00:00:00	2024-11-08T14:00:00	8	Radiación solar	720
95849	7	Sololá	717	San Juan la Laguna	12	San Juan la Laguna	12	Diciembre	2023-12-19T00:00:00	2024-11-08T15:00:00	2	Temperatura media	24.2
95850	7	Sololá	717	San Juan la Laguna	12	San Juan la Laguna	12	Diciembre	2023-12-19T00:00:00	2024-11-08T15:00:00	4	Temperatura máxima	24.8
95851	7	Sololá	717	San Juan la Laguna	12	San Juan la Laguna	12	Diciembre	2023-12-19T00:00:00	2024-11-08T15:00:00	3	Temperatura mínima	24
95852	7	Sololá	717	San Juan la Laguna	12	San Juan la Laguna	12	Diciembre	2023-12-19T00:00:00	2024-11-08T15:00:00	5	Humedad	26
95853	7	Sololá	717	San Juan la Laguna	12	San Juan la Laguna	12	Diciembre	2023-12-19T00:00:00	2024-11-08T15:00:00	6	Velocidad del viento	6.4
95854	7	Sololá	717	San Juan la Laguna	12	San Juan la Laguna	12	Diciembre	2023-12-19T00:00:00	2024-11-08T15:00:00	7	Dirección del viento	6.44
95855	7	Sololá	717	San Juan la Laguna	12	San Juan la Laguna	12	Diciembre	2023-12-19T00:00:00	2024-11-08T15:00:00	1	Precipitación	0
95856	7	Sololá	717	San Juan la Laguna	12	San Juan la Laguna	12	Diciembre	2023-12-19T00:00:00	2024-11-08T15:00:00	8	Radiación solar	585
95857	7	Sololá	717	San Juan la Laguna	12	San Juan la Laguna	12	Diciembre	2023-12-19T00:00:00	2024-11-08T16:00:00	2	Temperatura media	22.2
95858	7	Sololá	717	San Juan la Laguna	12	San Juan la Laguna	12	Diciembre	2023-12-19T00:00:00	2024-11-08T16:00:00	4	Temperatura máxima	24.3
95859	7	Sololá	717	San Juan la Laguna	12	San Juan la Laguna	12	Diciembre	2023-12-19T00:00:00	2024-11-08T16:00:00	3	Temperatura mínima	22.1
95860	7	Sololá	717	San Juan la Laguna	12	San Juan la Laguna	12	Diciembre	2023-12-19T00:00:00	2024-11-08T16:00:00	5	Humedad	55
95861	7	Sololá	717	San Juan la Laguna	12	San Juan la Laguna	12	Diciembre	2023-12-19T00:00:00	2024-11-08T16:00:00	6	Velocidad del viento	6.4
95862	7	Sololá	717	San Juan la Laguna	12	San Juan la Laguna	12	Diciembre	2023-12-19T00:00:00	2024-11-08T16:00:00	7	Dirección del viento	6.44
95863	7	Sololá	717	San Juan la Laguna	12	San Juan la Laguna	12	Diciembre	2023-12-19T00:00:00	2024-11-08T16:00:00	1	Precipitación	0
95864	7	Sololá	717	San Juan la Laguna	12	San Juan la Laguna	12	Diciembre	2023-12-19T00:00:00	2024-11-08T16:00:00	8	Radiación solar	403
95865	7	Sololá	717	San Juan la Laguna	12	San Juan la Laguna	12	Diciembre	2023-12-19T00:00:00	2024-11-08T17:00:00	2	Temperatura media	19.9
95866	7	Sololá	717	San Juan la Laguna	12	San Juan la Laguna	12	Diciembre	2023-12-19T00:00:00	2024-11-08T17:00:00	4	Temperatura máxima	22.2
95867	7	Sololá	717	San Juan la Laguna	12	San Juan la Laguna	12	Diciembre	2023-12-19T00:00:00	2024-11-08T17:00:00	3	Temperatura mínima	19.9
95868	7	Sololá	717	San Juan la Laguna	12	San Juan la Laguna	12	Diciembre	2023-12-19T00:00:00	2024-11-08T17:00:00	5	Humedad	62
95869	7	Sololá	717	San Juan la Laguna	12	San Juan la Laguna	12	Diciembre	2023-12-19T00:00:00	2024-11-08T17:00:00	6	Velocidad del viento	4.8
95870	7	Sololá	717	San Juan la Laguna	12	San Juan la Laguna	12	Diciembre	2023-12-19T00:00:00	2024-11-08T17:00:00	7	Dirección del viento	4.83
95871	7	Sololá	717	San Juan la Laguna	12	San Juan la Laguna	12	Diciembre	2023-12-19T00:00:00	2024-11-08T17:00:00	1	Precipitación	0
95872	7	Sololá	717	San Juan la Laguna	12	San Juan la Laguna	12	Diciembre	2023-12-19T00:00:00	2024-11-08T17:00:00	8	Radiación solar	107
95873	7	Sololá	717	San Juan la Laguna	12	San Juan la Laguna	12	Diciembre	2023-12-19T00:00:00	2024-11-08T18:00:00	2	Temperatura media	18.2
95874	7	Sololá	717	San Juan la Laguna	12	San Juan la Laguna	12	Diciembre	2023-12-19T00:00:00	2024-11-08T18:00:00	4	Temperatura máxima	19.9
95875	7	Sololá	717	San Juan la Laguna	12	San Juan la Laguna	12	Diciembre	2023-12-19T00:00:00	2024-11-08T18:00:00	3	Temperatura mínima	18.2
95876	7	Sololá	717	San Juan la Laguna	12	San Juan la Laguna	12	Diciembre	2023-12-19T00:00:00	2024-11-08T18:00:00	5	Humedad	62
95877	7	Sololá	717	San Juan la Laguna	12	San Juan la Laguna	12	Diciembre	2023-12-19T00:00:00	2024-11-08T18:00:00	6	Velocidad del viento	3.2
95878	7	Sololá	717	San Juan la Laguna	12	San Juan la Laguna	12	Diciembre	2023-12-19T00:00:00	2024-11-08T18:00:00	7	Dirección del viento	3.22
95879	7	Sololá	717	San Juan la Laguna	12	San Juan la Laguna	12	Diciembre	2023-12-19T00:00:00	2024-11-08T18:00:00	1	Precipitación	0
95880	7	Sololá	717	San Juan la Laguna	12	San Juan la Laguna	12	Diciembre	2023-12-19T00:00:00	2024-11-08T18:00:00	8	Radiación solar	9
95881	7	Sololá	717	San Juan la Laguna	12	San Juan la Laguna	12	Diciembre	2023-12-19T00:00:00	2024-11-08T19:00:00	2	Temperatura media	16.3
95882	7	Sololá	717	San Juan la Laguna	12	San Juan la Laguna	12	Diciembre	2023-12-19T00:00:00	2024-11-08T19:00:00	4	Temperatura máxima	18.2
95883	7	Sololá	717	San Juan la Laguna	12	San Juan la Laguna	12	Diciembre	2023-12-19T00:00:00	2024-11-08T19:00:00	3	Temperatura mínima	16.3
95884	7	Sololá	717	San Juan la Laguna	12	San Juan la Laguna	12	Diciembre	2023-12-19T00:00:00	2024-11-08T19:00:00	5	Humedad	57
95885	7	Sololá	717	San Juan la Laguna	12	San Juan la Laguna	12	Diciembre	2023-12-19T00:00:00	2024-11-08T19:00:00	6	Velocidad del viento	8
95886	7	Sololá	717	San Juan la Laguna	12	San Juan la Laguna	12	Diciembre	2023-12-19T00:00:00	2024-11-08T19:00:00	7	Dirección del viento	8.05
95887	7	Sololá	717	San Juan la Laguna	12	San Juan la Laguna	12	Diciembre	2023-12-19T00:00:00	2024-11-08T19:00:00	1	Precipitación	0
95888	7	Sololá	717	San Juan la Laguna	12	San Juan la Laguna	12	Diciembre	2023-12-19T00:00:00	2024-11-08T19:00:00	8	Radiación solar	0
95889	7	Sololá	717	San Juan la Laguna	12	San Juan la Laguna	12	Diciembre	2023-12-19T00:00:00	2024-11-08T20:00:00	2	Temperatura media	13.9
95890	7	Sololá	717	San Juan la Laguna	12	San Juan la Laguna	12	Diciembre	2023-12-19T00:00:00	2024-11-08T20:00:00	4	Temperatura máxima	16.3
95891	7	Sololá	717	San Juan la Laguna	12	San Juan la Laguna	12	Diciembre	2023-12-19T00:00:00	2024-11-08T20:00:00	3	Temperatura mínima	13.9
95892	7	Sololá	717	San Juan la Laguna	12	San Juan la Laguna	12	Diciembre	2023-12-19T00:00:00	2024-11-08T20:00:00	5	Humedad	68
95893	7	Sololá	717	San Juan la Laguna	12	San Juan la Laguna	12	Diciembre	2023-12-19T00:00:00	2024-11-08T20:00:00	6	Velocidad del viento	8
95894	7	Sololá	717	San Juan la Laguna	12	San Juan la Laguna	12	Diciembre	2023-12-19T00:00:00	2024-11-08T20:00:00	7	Dirección del viento	8.05
95895	7	Sololá	717	San Juan la Laguna	12	San Juan la Laguna	12	Diciembre	2023-12-19T00:00:00	2024-11-08T20:00:00	1	Precipitación	0
95896	7	Sololá	717	San Juan la Laguna	12	San Juan la Laguna	12	Diciembre	2023-12-19T00:00:00	2024-11-08T20:00:00	8	Radiación solar	0
95897	7	Sololá	717	San Juan la Laguna	12	San Juan la Laguna	12	Diciembre	2023-12-19T00:00:00	2024-11-08T21:00:00	2	Temperatura media	12.1
95898	7	Sololá	717	San Juan la Laguna	12	San Juan la Laguna	12	Diciembre	2023-12-19T00:00:00	2024-11-08T21:00:00	4	Temperatura máxima	13.9
95899	7	Sololá	717	San Juan la Laguna	12	San Juan la Laguna	12	Diciembre	2023-12-19T00:00:00	2024-11-08T21:00:00	3	Temperatura mínima	12.1
95900	7	Sololá	717	San Juan la Laguna	12	San Juan la Laguna	12	Diciembre	2023-12-19T00:00:00	2024-11-08T21:00:00	5	Humedad	73
95901	7	Sololá	717	San Juan la Laguna	12	San Juan la Laguna	12	Diciembre	2023-12-19T00:00:00	2024-11-08T21:00:00	6	Velocidad del viento	4.8
95902	7	Sololá	717	San Juan la Laguna	12	San Juan la Laguna	12	Diciembre	2023-12-19T00:00:00	2024-11-08T21:00:00	7	Dirección del viento	4.83
95903	7	Sololá	717	San Juan la Laguna	12	San Juan la Laguna	12	Diciembre	2023-12-19T00:00:00	2024-11-08T21:00:00	1	Precipitación	0
95904	7	Sololá	717	San Juan la Laguna	12	San Juan la Laguna	12	Diciembre	2023-12-19T00:00:00	2024-11-08T21:00:00	8	Radiación solar	0
95905	7	Sololá	717	San Juan la Laguna	12	San Juan la Laguna	12	Diciembre	2023-12-19T00:00:00	2024-11-08T22:00:00	2	Temperatura media	12.9
95906	7	Sololá	717	San Juan la Laguna	12	San Juan la Laguna	12	Diciembre	2023-12-19T00:00:00	2024-11-08T22:00:00	4	Temperatura máxima	13.5
95907	7	Sololá	717	San Juan la Laguna	12	San Juan la Laguna	12	Diciembre	2023-12-19T00:00:00	2024-11-08T22:00:00	3	Temperatura mínima	11.9
95908	7	Sololá	717	San Juan la Laguna	12	San Juan la Laguna	12	Diciembre	2023-12-19T00:00:00	2024-11-08T22:00:00	5	Humedad	66
95909	7	Sololá	717	San Juan la Laguna	12	San Juan la Laguna	12	Diciembre	2023-12-19T00:00:00	2024-11-08T22:00:00	6	Velocidad del viento	4.8
95910	7	Sololá	717	San Juan la Laguna	12	San Juan la Laguna	12	Diciembre	2023-12-19T00:00:00	2024-11-08T22:00:00	7	Dirección del viento	4.83
95911	7	Sololá	717	San Juan la Laguna	12	San Juan la Laguna	12	Diciembre	2023-12-19T00:00:00	2024-11-08T22:00:00	1	Precipitación	0
95912	7	Sololá	717	San Juan la Laguna	12	San Juan la Laguna	12	Diciembre	2023-12-19T00:00:00	2024-11-08T22:00:00	8	Radiación solar	0
95913	7	Sololá	717	San Juan la Laguna	12	San Juan la Laguna	12	Diciembre	2023-12-19T00:00:00	2024-11-08T23:00:00	2	Temperatura media	10.5
95914	7	Sololá	717	San Juan la Laguna	12	San Juan la Laguna	12	Diciembre	2023-12-19T00:00:00	2024-11-08T23:00:00	4	Temperatura máxima	12.9
95915	7	Sololá	717	San Juan la Laguna	12	San Juan la Laguna	12	Diciembre	2023-12-19T00:00:00	2024-11-08T23:00:00	3	Temperatura mínima	10.5
95916	7	Sololá	717	San Juan la Laguna	12	San Juan la Laguna	12	Diciembre	2023-12-19T00:00:00	2024-11-08T23:00:00	5	Humedad	73
95917	7	Sololá	717	San Juan la Laguna	12	San Juan la Laguna	12	Diciembre	2023-12-19T00:00:00	2024-11-08T23:00:00	6	Velocidad del viento	6.4
95918	7	Sololá	717	San Juan la Laguna	12	San Juan la Laguna	12	Diciembre	2023-12-19T00:00:00	2024-11-08T23:00:00	7	Dirección del viento	6.44
95919	7	Sololá	717	San Juan la Laguna	12	San Juan la Laguna	12	Diciembre	2023-12-19T00:00:00	2024-11-08T23:00:00	1	Precipitación	0
95920	7	Sololá	717	San Juan la Laguna	12	San Juan la Laguna	12	Diciembre	2023-12-19T00:00:00	2024-11-08T23:00:00	8	Radiación solar	0
95921	7	Sololá	717	San Juan la Laguna	12	San Juan la Laguna	12	Diciembre	2023-12-20T00:00:00	2024-11-08T00:00:00	2	Temperatura media	9.8
95922	7	Sololá	717	San Juan la Laguna	12	San Juan la Laguna	12	Diciembre	2023-12-20T00:00:00	2024-11-08T00:00:00	4	Temperatura máxima	10.7
95923	7	Sololá	717	San Juan la Laguna	12	San Juan la Laguna	12	Diciembre	2023-12-20T00:00:00	2024-11-08T00:00:00	3	Temperatura mínima	9.8
95924	7	Sololá	717	San Juan la Laguna	12	San Juan la Laguna	12	Diciembre	2023-12-20T00:00:00	2024-11-08T00:00:00	5	Humedad	73
95925	7	Sololá	717	San Juan la Laguna	12	San Juan la Laguna	12	Diciembre	2023-12-20T00:00:00	2024-11-08T00:00:00	6	Velocidad del viento	6.4
95926	7	Sololá	717	San Juan la Laguna	12	San Juan la Laguna	12	Diciembre	2023-12-20T00:00:00	2024-11-08T00:00:00	7	Dirección del viento	6.44
95927	7	Sololá	717	San Juan la Laguna	12	San Juan la Laguna	12	Diciembre	2023-12-20T00:00:00	2024-11-08T00:00:00	1	Precipitación	0
95928	7	Sololá	717	San Juan la Laguna	12	San Juan la Laguna	12	Diciembre	2023-12-20T00:00:00	2024-11-08T00:00:00	8	Radiación solar	0
95929	7	Sololá	717	San Juan la Laguna	12	San Juan la Laguna	12	Diciembre	2023-12-20T00:00:00	2024-11-08T01:00:00	2	Temperatura media	9.3
95930	7	Sololá	717	San Juan la Laguna	12	San Juan la Laguna	12	Diciembre	2023-12-20T00:00:00	2024-11-08T01:00:00	4	Temperatura máxima	9.8
95931	7	Sololá	717	San Juan la Laguna	12	San Juan la Laguna	12	Diciembre	2023-12-20T00:00:00	2024-11-08T01:00:00	3	Temperatura mínima	9.1
95932	7	Sololá	717	San Juan la Laguna	12	San Juan la Laguna	12	Diciembre	2023-12-20T00:00:00	2024-11-08T01:00:00	5	Humedad	68
95933	7	Sololá	717	San Juan la Laguna	12	San Juan la Laguna	12	Diciembre	2023-12-20T00:00:00	2024-11-08T01:00:00	6	Velocidad del viento	4.8
95934	7	Sololá	717	San Juan la Laguna	12	San Juan la Laguna	12	Diciembre	2023-12-20T00:00:00	2024-11-08T01:00:00	7	Dirección del viento	4.83
95935	7	Sololá	717	San Juan la Laguna	12	San Juan la Laguna	12	Diciembre	2023-12-20T00:00:00	2024-11-08T01:00:00	1	Precipitación	0
95936	7	Sololá	717	San Juan la Laguna	12	San Juan la Laguna	12	Diciembre	2023-12-20T00:00:00	2024-11-08T01:00:00	8	Radiación solar	0
95937	7	Sololá	717	San Juan la Laguna	12	San Juan la Laguna	12	Diciembre	2023-12-20T00:00:00	2024-11-08T02:00:00	2	Temperatura media	8.6
95938	7	Sololá	717	San Juan la Laguna	12	San Juan la Laguna	12	Diciembre	2023-12-20T00:00:00	2024-11-08T02:00:00	4	Temperatura máxima	9.3
95939	7	Sololá	717	San Juan la Laguna	12	San Juan la Laguna	12	Diciembre	2023-12-20T00:00:00	2024-11-08T02:00:00	3	Temperatura mínima	8.6
95940	7	Sololá	717	San Juan la Laguna	12	San Juan la Laguna	12	Diciembre	2023-12-20T00:00:00	2024-11-08T02:00:00	5	Humedad	67
95941	7	Sololá	717	San Juan la Laguna	12	San Juan la Laguna	12	Diciembre	2023-12-20T00:00:00	2024-11-08T02:00:00	6	Velocidad del viento	6.4
95942	7	Sololá	717	San Juan la Laguna	12	San Juan la Laguna	12	Diciembre	2023-12-20T00:00:00	2024-11-08T02:00:00	7	Dirección del viento	6.44
95943	7	Sololá	717	San Juan la Laguna	12	San Juan la Laguna	12	Diciembre	2023-12-20T00:00:00	2024-11-08T02:00:00	1	Precipitación	0
95944	7	Sololá	717	San Juan la Laguna	12	San Juan la Laguna	12	Diciembre	2023-12-20T00:00:00	2024-11-08T02:00:00	8	Radiación solar	0
95945	7	Sololá	717	San Juan la Laguna	12	San Juan la Laguna	12	Diciembre	2023-12-20T00:00:00	2024-11-08T03:00:00	2	Temperatura media	8.3
95946	7	Sololá	717	San Juan la Laguna	12	San Juan la Laguna	12	Diciembre	2023-12-20T00:00:00	2024-11-08T03:00:00	4	Temperatura máxima	8.6
95947	7	Sololá	717	San Juan la Laguna	12	San Juan la Laguna	12	Diciembre	2023-12-20T00:00:00	2024-11-08T03:00:00	3	Temperatura mínima	8.3
95948	7	Sololá	717	San Juan la Laguna	12	San Juan la Laguna	12	Diciembre	2023-12-20T00:00:00	2024-11-08T03:00:00	5	Humedad	66
95949	7	Sololá	717	San Juan la Laguna	12	San Juan la Laguna	12	Diciembre	2023-12-20T00:00:00	2024-11-08T03:00:00	6	Velocidad del viento	6.4
95950	7	Sololá	717	San Juan la Laguna	12	San Juan la Laguna	12	Diciembre	2023-12-20T00:00:00	2024-11-08T03:00:00	7	Dirección del viento	6.44
95951	7	Sololá	717	San Juan la Laguna	12	San Juan la Laguna	12	Diciembre	2023-12-20T00:00:00	2024-11-08T03:00:00	1	Precipitación	0
95952	7	Sololá	717	San Juan la Laguna	12	San Juan la Laguna	12	Diciembre	2023-12-20T00:00:00	2024-11-08T03:00:00	8	Radiación solar	0
95953	7	Sololá	717	San Juan la Laguna	12	San Juan la Laguna	12	Diciembre	2023-12-20T00:00:00	2024-11-08T04:00:00	2	Temperatura media	8
95954	7	Sololá	717	San Juan la Laguna	12	San Juan la Laguna	12	Diciembre	2023-12-20T00:00:00	2024-11-08T04:00:00	4	Temperatura máxima	8.3
95955	7	Sololá	717	San Juan la Laguna	12	San Juan la Laguna	12	Diciembre	2023-12-20T00:00:00	2024-11-08T04:00:00	3	Temperatura mínima	7.9
95956	7	Sololá	717	San Juan la Laguna	12	San Juan la Laguna	12	Diciembre	2023-12-20T00:00:00	2024-11-08T04:00:00	5	Humedad	72
95957	7	Sololá	717	San Juan la Laguna	12	San Juan la Laguna	12	Diciembre	2023-12-20T00:00:00	2024-11-08T04:00:00	6	Velocidad del viento	6.4
95958	7	Sololá	717	San Juan la Laguna	12	San Juan la Laguna	12	Diciembre	2023-12-20T00:00:00	2024-11-08T04:00:00	7	Dirección del viento	6.44
95959	7	Sololá	717	San Juan la Laguna	12	San Juan la Laguna	12	Diciembre	2023-12-20T00:00:00	2024-11-08T04:00:00	1	Precipitación	0
95960	7	Sololá	717	San Juan la Laguna	12	San Juan la Laguna	12	Diciembre	2023-12-20T00:00:00	2024-11-08T04:00:00	8	Radiación solar	0
95961	7	Sololá	717	San Juan la Laguna	12	San Juan la Laguna	12	Diciembre	2023-12-20T00:00:00	2024-11-08T05:00:00	2	Temperatura media	8.1
95962	7	Sololá	717	San Juan la Laguna	12	San Juan la Laguna	12	Diciembre	2023-12-20T00:00:00	2024-11-08T05:00:00	4	Temperatura máxima	8.2
95963	7	Sololá	717	San Juan la Laguna	12	San Juan la Laguna	12	Diciembre	2023-12-20T00:00:00	2024-11-08T05:00:00	3	Temperatura mínima	7.9
95964	7	Sololá	717	San Juan la Laguna	12	San Juan la Laguna	12	Diciembre	2023-12-20T00:00:00	2024-11-08T05:00:00	5	Humedad	71
95965	7	Sololá	717	San Juan la Laguna	12	San Juan la Laguna	12	Diciembre	2023-12-20T00:00:00	2024-11-08T05:00:00	6	Velocidad del viento	6.4
95966	7	Sololá	717	San Juan la Laguna	12	San Juan la Laguna	12	Diciembre	2023-12-20T00:00:00	2024-11-08T05:00:00	7	Dirección del viento	6.44
95967	7	Sololá	717	San Juan la Laguna	12	San Juan la Laguna	12	Diciembre	2023-12-20T00:00:00	2024-11-08T05:00:00	1	Precipitación	0
95968	7	Sololá	717	San Juan la Laguna	12	San Juan la Laguna	12	Diciembre	2023-12-20T00:00:00	2024-11-08T05:00:00	8	Radiación solar	0
95969	7	Sololá	717	San Juan la Laguna	12	San Juan la Laguna	12	Diciembre	2023-12-20T00:00:00	2024-11-08T06:00:00	2	Temperatura media	7.7
95970	7	Sololá	717	San Juan la Laguna	12	San Juan la Laguna	12	Diciembre	2023-12-20T00:00:00	2024-11-08T06:00:00	4	Temperatura máxima	8.2
95971	7	Sololá	717	San Juan la Laguna	12	San Juan la Laguna	12	Diciembre	2023-12-20T00:00:00	2024-11-08T06:00:00	3	Temperatura mínima	7.6
95972	7	Sololá	717	San Juan la Laguna	12	San Juan la Laguna	12	Diciembre	2023-12-20T00:00:00	2024-11-08T06:00:00	5	Humedad	75
95973	7	Sololá	717	San Juan la Laguna	12	San Juan la Laguna	12	Diciembre	2023-12-20T00:00:00	2024-11-08T06:00:00	6	Velocidad del viento	6.4
95974	7	Sololá	717	San Juan la Laguna	12	San Juan la Laguna	12	Diciembre	2023-12-20T00:00:00	2024-11-08T06:00:00	7	Dirección del viento	6.44
95975	7	Sololá	717	San Juan la Laguna	12	San Juan la Laguna	12	Diciembre	2023-12-20T00:00:00	2024-11-08T06:00:00	1	Precipitación	0
95976	7	Sololá	717	San Juan la Laguna	12	San Juan la Laguna	12	Diciembre	2023-12-20T00:00:00	2024-11-08T06:00:00	8	Radiación solar	0
95977	7	Sololá	717	San Juan la Laguna	12	San Juan la Laguna	12	Diciembre	2023-12-20T00:00:00	2024-11-08T07:00:00	2	Temperatura media	8.3
95978	7	Sololá	717	San Juan la Laguna	12	San Juan la Laguna	12	Diciembre	2023-12-20T00:00:00	2024-11-08T07:00:00	4	Temperatura máxima	8.3
95979	7	Sololá	717	San Juan la Laguna	12	San Juan la Laguna	12	Diciembre	2023-12-20T00:00:00	2024-11-08T07:00:00	3	Temperatura mínima	7.6
95980	7	Sololá	717	San Juan la Laguna	12	San Juan la Laguna	12	Diciembre	2023-12-20T00:00:00	2024-11-08T07:00:00	5	Humedad	76
95981	7	Sololá	717	San Juan la Laguna	12	San Juan la Laguna	12	Diciembre	2023-12-20T00:00:00	2024-11-08T07:00:00	6	Velocidad del viento	6.4
95982	7	Sololá	717	San Juan la Laguna	12	San Juan la Laguna	12	Diciembre	2023-12-20T00:00:00	2024-11-08T07:00:00	7	Dirección del viento	6.44
95983	7	Sololá	717	San Juan la Laguna	12	San Juan la Laguna	12	Diciembre	2023-12-20T00:00:00	2024-11-08T07:00:00	1	Precipitación	0
95984	7	Sololá	717	San Juan la Laguna	12	San Juan la Laguna	12	Diciembre	2023-12-20T00:00:00	2024-11-08T07:00:00	8	Radiación solar	9
95985	7	Sololá	717	San Juan la Laguna	12	San Juan la Laguna	12	Diciembre	2023-12-20T00:00:00	2024-11-08T08:00:00	2	Temperatura media	11.7
95986	7	Sololá	717	San Juan la Laguna	12	San Juan la Laguna	12	Diciembre	2023-12-20T00:00:00	2024-11-08T08:00:00	4	Temperatura máxima	11.7
95987	7	Sololá	717	San Juan la Laguna	12	San Juan la Laguna	12	Diciembre	2023-12-20T00:00:00	2024-11-08T08:00:00	3	Temperatura mínima	8.3
95988	7	Sololá	717	San Juan la Laguna	12	San Juan la Laguna	12	Diciembre	2023-12-20T00:00:00	2024-11-08T08:00:00	5	Humedad	73
95989	7	Sololá	717	San Juan la Laguna	12	San Juan la Laguna	12	Diciembre	2023-12-20T00:00:00	2024-11-08T08:00:00	6	Velocidad del viento	4.8
95990	7	Sololá	717	San Juan la Laguna	12	San Juan la Laguna	12	Diciembre	2023-12-20T00:00:00	2024-11-08T08:00:00	7	Dirección del viento	4.83
95991	7	Sololá	717	San Juan la Laguna	12	San Juan la Laguna	12	Diciembre	2023-12-20T00:00:00	2024-11-08T08:00:00	1	Precipitación	0
95992	7	Sololá	717	San Juan la Laguna	12	San Juan la Laguna	12	Diciembre	2023-12-20T00:00:00	2024-11-08T08:00:00	8	Radiación solar	134
95993	7	Sololá	717	San Juan la Laguna	12	San Juan la Laguna	12	Diciembre	2023-12-20T00:00:00	2024-11-08T09:00:00	2	Temperatura media	15.9
95994	7	Sololá	717	San Juan la Laguna	12	San Juan la Laguna	12	Diciembre	2023-12-20T00:00:00	2024-11-08T09:00:00	4	Temperatura máxima	16.3
95995	7	Sololá	717	San Juan la Laguna	12	San Juan la Laguna	12	Diciembre	2023-12-20T00:00:00	2024-11-08T09:00:00	3	Temperatura mínima	11.7
95996	7	Sololá	717	San Juan la Laguna	12	San Juan la Laguna	12	Diciembre	2023-12-20T00:00:00	2024-11-08T09:00:00	5	Humedad	62
95997	7	Sololá	717	San Juan la Laguna	12	San Juan la Laguna	12	Diciembre	2023-12-20T00:00:00	2024-11-08T09:00:00	6	Velocidad del viento	3.2
95998	7	Sololá	717	San Juan la Laguna	12	San Juan la Laguna	12	Diciembre	2023-12-20T00:00:00	2024-11-08T09:00:00	7	Dirección del viento	3.22
95999	7	Sololá	717	San Juan la Laguna	12	San Juan la Laguna	12	Diciembre	2023-12-20T00:00:00	2024-11-08T09:00:00	1	Precipitación	0
96000	7	Sololá	717	San Juan la Laguna	12	San Juan la Laguna	12	Diciembre	2023-12-20T00:00:00	2024-11-08T09:00:00	8	Radiación solar	352
96001	7	Sololá	717	San Juan la Laguna	12	San Juan la Laguna	12	Diciembre	2023-12-20T00:00:00	2024-11-08T10:00:00	2	Temperatura media	17.3
96002	7	Sololá	717	San Juan la Laguna	12	San Juan la Laguna	12	Diciembre	2023-12-20T00:00:00	2024-11-08T10:00:00	4	Temperatura máxima	17.3
96003	7	Sololá	717	San Juan la Laguna	12	San Juan la Laguna	12	Diciembre	2023-12-20T00:00:00	2024-11-08T10:00:00	3	Temperatura mínima	15.8
96004	7	Sololá	717	San Juan la Laguna	12	San Juan la Laguna	12	Diciembre	2023-12-20T00:00:00	2024-11-08T10:00:00	5	Humedad	61
96005	7	Sololá	717	San Juan la Laguna	12	San Juan la Laguna	12	Diciembre	2023-12-20T00:00:00	2024-11-08T10:00:00	6	Velocidad del viento	6.4
96006	7	Sololá	717	San Juan la Laguna	12	San Juan la Laguna	12	Diciembre	2023-12-20T00:00:00	2024-11-08T10:00:00	7	Dirección del viento	6.44
96007	7	Sololá	717	San Juan la Laguna	12	San Juan la Laguna	12	Diciembre	2023-12-20T00:00:00	2024-11-08T10:00:00	1	Precipitación	0
96008	7	Sololá	717	San Juan la Laguna	12	San Juan la Laguna	12	Diciembre	2023-12-20T00:00:00	2024-11-08T10:00:00	8	Radiación solar	537
96009	7	Sololá	717	San Juan la Laguna	12	San Juan la Laguna	12	Diciembre	2023-12-20T00:00:00	2024-11-08T11:00:00	2	Temperatura media	18.4
96010	7	Sololá	717	San Juan la Laguna	12	San Juan la Laguna	12	Diciembre	2023-12-20T00:00:00	2024-11-08T11:00:00	4	Temperatura máxima	18.4
96011	7	Sololá	717	San Juan la Laguna	12	San Juan la Laguna	12	Diciembre	2023-12-20T00:00:00	2024-11-08T11:00:00	3	Temperatura mínima	17.3
96012	7	Sololá	717	San Juan la Laguna	12	San Juan la Laguna	12	Diciembre	2023-12-20T00:00:00	2024-11-08T11:00:00	5	Humedad	50
96013	7	Sololá	717	San Juan la Laguna	12	San Juan la Laguna	12	Diciembre	2023-12-20T00:00:00	2024-11-08T11:00:00	6	Velocidad del viento	6.4
96014	7	Sololá	717	San Juan la Laguna	12	San Juan la Laguna	12	Diciembre	2023-12-20T00:00:00	2024-11-08T11:00:00	7	Dirección del viento	6.44
96015	7	Sololá	717	San Juan la Laguna	12	San Juan la Laguna	12	Diciembre	2023-12-20T00:00:00	2024-11-08T11:00:00	1	Precipitación	0
96016	7	Sololá	717	San Juan la Laguna	12	San Juan la Laguna	12	Diciembre	2023-12-20T00:00:00	2024-11-08T11:00:00	8	Radiación solar	574
96017	7	Sololá	717	San Juan la Laguna	12	San Juan la Laguna	12	Diciembre	2023-12-20T00:00:00	2024-11-08T12:00:00	2	Temperatura media	19.8
96018	7	Sololá	717	San Juan la Laguna	12	San Juan la Laguna	12	Diciembre	2023-12-20T00:00:00	2024-11-08T12:00:00	4	Temperatura máxima	19.9
96019	7	Sololá	717	San Juan la Laguna	12	San Juan la Laguna	12	Diciembre	2023-12-20T00:00:00	2024-11-08T12:00:00	3	Temperatura mínima	18.4
96020	7	Sololá	717	San Juan la Laguna	12	San Juan la Laguna	12	Diciembre	2023-12-20T00:00:00	2024-11-08T12:00:00	5	Humedad	52
96021	7	Sololá	717	San Juan la Laguna	12	San Juan la Laguna	12	Diciembre	2023-12-20T00:00:00	2024-11-08T12:00:00	6	Velocidad del viento	8
96022	7	Sololá	717	San Juan la Laguna	12	San Juan la Laguna	12	Diciembre	2023-12-20T00:00:00	2024-11-08T12:00:00	7	Dirección del viento	8.05
96023	7	Sololá	717	San Juan la Laguna	12	San Juan la Laguna	12	Diciembre	2023-12-20T00:00:00	2024-11-08T12:00:00	1	Precipitación	0
96024	7	Sololá	717	San Juan la Laguna	12	San Juan la Laguna	12	Diciembre	2023-12-20T00:00:00	2024-11-08T12:00:00	8	Radiación solar	714
96025	7	Sololá	717	San Juan la Laguna	12	San Juan la Laguna	12	Diciembre	2023-12-20T00:00:00	2024-11-08T13:00:00	2	Temperatura media	21.2
96026	7	Sololá	717	San Juan la Laguna	12	San Juan la Laguna	12	Diciembre	2023-12-20T00:00:00	2024-11-08T13:00:00	4	Temperatura máxima	21.2
96027	7	Sololá	717	San Juan la Laguna	12	San Juan la Laguna	12	Diciembre	2023-12-20T00:00:00	2024-11-08T13:00:00	3	Temperatura mínima	19.7
96028	7	Sololá	717	San Juan la Laguna	12	San Juan la Laguna	12	Diciembre	2023-12-20T00:00:00	2024-11-08T13:00:00	5	Humedad	60
96029	7	Sololá	717	San Juan la Laguna	12	San Juan la Laguna	12	Diciembre	2023-12-20T00:00:00	2024-11-08T13:00:00	6	Velocidad del viento	6.4
96030	7	Sololá	717	San Juan la Laguna	12	San Juan la Laguna	12	Diciembre	2023-12-20T00:00:00	2024-11-08T13:00:00	7	Dirección del viento	6.44
96031	7	Sololá	717	San Juan la Laguna	12	San Juan la Laguna	12	Diciembre	2023-12-20T00:00:00	2024-11-08T13:00:00	1	Precipitación	0
96032	7	Sololá	717	San Juan la Laguna	12	San Juan la Laguna	12	Diciembre	2023-12-20T00:00:00	2024-11-08T13:00:00	8	Radiación solar	708
96033	7	Sololá	717	San Juan la Laguna	12	San Juan la Laguna	12	Diciembre	2023-12-20T00:00:00	2024-11-08T14:00:00	2	Temperatura media	21.6
96034	7	Sololá	717	San Juan la Laguna	12	San Juan la Laguna	12	Diciembre	2023-12-20T00:00:00	2024-11-08T14:00:00	4	Temperatura máxima	21.6
96035	7	Sololá	717	San Juan la Laguna	12	San Juan la Laguna	12	Diciembre	2023-12-20T00:00:00	2024-11-08T14:00:00	3	Temperatura mínima	21.1
96036	7	Sololá	717	San Juan la Laguna	12	San Juan la Laguna	12	Diciembre	2023-12-20T00:00:00	2024-11-08T14:00:00	5	Humedad	61
96037	7	Sololá	717	San Juan la Laguna	12	San Juan la Laguna	12	Diciembre	2023-12-20T00:00:00	2024-11-08T14:00:00	6	Velocidad del viento	6.4
96038	7	Sololá	717	San Juan la Laguna	12	San Juan la Laguna	12	Diciembre	2023-12-20T00:00:00	2024-11-08T14:00:00	7	Dirección del viento	6.44
96039	7	Sololá	717	San Juan la Laguna	12	San Juan la Laguna	12	Diciembre	2023-12-20T00:00:00	2024-11-08T14:00:00	1	Precipitación	0
96040	7	Sololá	717	San Juan la Laguna	12	San Juan la Laguna	12	Diciembre	2023-12-20T00:00:00	2024-11-08T14:00:00	8	Radiación solar	692
96041	7	Sololá	717	San Juan la Laguna	12	San Juan la Laguna	12	Diciembre	2023-12-20T00:00:00	2024-11-08T15:00:00	2	Temperatura media	21.7
96042	7	Sololá	717	San Juan la Laguna	12	San Juan la Laguna	12	Diciembre	2023-12-20T00:00:00	2024-11-08T15:00:00	4	Temperatura máxima	21.8
96043	7	Sololá	717	San Juan la Laguna	12	San Juan la Laguna	12	Diciembre	2023-12-20T00:00:00	2024-11-08T15:00:00	3	Temperatura mínima	21.4
96044	7	Sololá	717	San Juan la Laguna	12	San Juan la Laguna	12	Diciembre	2023-12-20T00:00:00	2024-11-08T15:00:00	5	Humedad	59
96045	7	Sololá	717	San Juan la Laguna	12	San Juan la Laguna	12	Diciembre	2023-12-20T00:00:00	2024-11-08T15:00:00	6	Velocidad del viento	6.4
96046	7	Sololá	717	San Juan la Laguna	12	San Juan la Laguna	12	Diciembre	2023-12-20T00:00:00	2024-11-08T15:00:00	7	Dirección del viento	6.44
96047	7	Sololá	717	San Juan la Laguna	12	San Juan la Laguna	12	Diciembre	2023-12-20T00:00:00	2024-11-08T15:00:00	1	Precipitación	0
96048	7	Sololá	717	San Juan la Laguna	12	San Juan la Laguna	12	Diciembre	2023-12-20T00:00:00	2024-11-08T15:00:00	8	Radiación solar	569
96049	7	Sololá	717	San Juan la Laguna	12	San Juan la Laguna	12	Diciembre	2023-12-20T00:00:00	2024-11-08T16:00:00	2	Temperatura media	21.3
96050	7	Sololá	717	San Juan la Laguna	12	San Juan la Laguna	12	Diciembre	2023-12-20T00:00:00	2024-11-08T16:00:00	4	Temperatura máxima	21.9
96051	7	Sololá	717	San Juan la Laguna	12	San Juan la Laguna	12	Diciembre	2023-12-20T00:00:00	2024-11-08T16:00:00	3	Temperatura mínima	21.3
96052	7	Sololá	717	San Juan la Laguna	12	San Juan la Laguna	12	Diciembre	2023-12-20T00:00:00	2024-11-08T16:00:00	5	Humedad	65
96053	7	Sololá	717	San Juan la Laguna	12	San Juan la Laguna	12	Diciembre	2023-12-20T00:00:00	2024-11-08T16:00:00	6	Velocidad del viento	6.4
96054	7	Sololá	717	San Juan la Laguna	12	San Juan la Laguna	12	Diciembre	2023-12-20T00:00:00	2024-11-08T16:00:00	7	Dirección del viento	6.44
96055	7	Sololá	717	San Juan la Laguna	12	San Juan la Laguna	12	Diciembre	2023-12-20T00:00:00	2024-11-08T16:00:00	1	Precipitación	0
96056	7	Sololá	717	San Juan la Laguna	12	San Juan la Laguna	12	Diciembre	2023-12-20T00:00:00	2024-11-08T16:00:00	8	Radiación solar	394
96057	7	Sololá	717	San Juan la Laguna	12	San Juan la Laguna	12	Diciembre	2023-12-20T00:00:00	2024-11-08T17:00:00	2	Temperatura media	18.9
96058	7	Sololá	717	San Juan la Laguna	12	San Juan la Laguna	12	Diciembre	2023-12-20T00:00:00	2024-11-08T17:00:00	4	Temperatura máxima	21.3
96059	7	Sololá	717	San Juan la Laguna	12	San Juan la Laguna	12	Diciembre	2023-12-20T00:00:00	2024-11-08T17:00:00	3	Temperatura mínima	18.9
96060	7	Sololá	717	San Juan la Laguna	12	San Juan la Laguna	12	Diciembre	2023-12-20T00:00:00	2024-11-08T17:00:00	5	Humedad	73
96061	7	Sololá	717	San Juan la Laguna	12	San Juan la Laguna	12	Diciembre	2023-12-20T00:00:00	2024-11-08T17:00:00	6	Velocidad del viento	3.2
96062	7	Sololá	717	San Juan la Laguna	12	San Juan la Laguna	12	Diciembre	2023-12-20T00:00:00	2024-11-08T17:00:00	7	Dirección del viento	3.22
96063	7	Sololá	717	San Juan la Laguna	12	San Juan la Laguna	12	Diciembre	2023-12-20T00:00:00	2024-11-08T17:00:00	1	Precipitación	0
96064	7	Sololá	717	San Juan la Laguna	12	San Juan la Laguna	12	Diciembre	2023-12-20T00:00:00	2024-11-08T17:00:00	8	Radiación solar	128
96065	7	Sololá	717	San Juan la Laguna	12	San Juan la Laguna	12	Diciembre	2023-12-20T00:00:00	2024-11-08T18:00:00	2	Temperatura media	17.3
96066	7	Sololá	717	San Juan la Laguna	12	San Juan la Laguna	12	Diciembre	2023-12-20T00:00:00	2024-11-08T18:00:00	4	Temperatura máxima	18.9
96067	7	Sololá	717	San Juan la Laguna	12	San Juan la Laguna	12	Diciembre	2023-12-20T00:00:00	2024-11-08T18:00:00	3	Temperatura mínima	17.3
96068	7	Sololá	717	San Juan la Laguna	12	San Juan la Laguna	12	Diciembre	2023-12-20T00:00:00	2024-11-08T18:00:00	5	Humedad	81
96069	7	Sololá	717	San Juan la Laguna	12	San Juan la Laguna	12	Diciembre	2023-12-20T00:00:00	2024-11-08T18:00:00	6	Velocidad del viento	4.8
96070	7	Sololá	717	San Juan la Laguna	12	San Juan la Laguna	12	Diciembre	2023-12-20T00:00:00	2024-11-08T18:00:00	7	Dirección del viento	4.83
96071	7	Sololá	717	San Juan la Laguna	12	San Juan la Laguna	12	Diciembre	2023-12-20T00:00:00	2024-11-08T18:00:00	1	Precipitación	0
96072	7	Sololá	717	San Juan la Laguna	12	San Juan la Laguna	12	Diciembre	2023-12-20T00:00:00	2024-11-08T18:00:00	8	Radiación solar	9
96073	7	Sololá	717	San Juan la Laguna	12	San Juan la Laguna	12	Diciembre	2023-12-20T00:00:00	2024-11-08T19:00:00	2	Temperatura media	16.1
96074	7	Sololá	717	San Juan la Laguna	12	San Juan la Laguna	12	Diciembre	2023-12-20T00:00:00	2024-11-08T19:00:00	4	Temperatura máxima	17.3
96075	7	Sololá	717	San Juan la Laguna	12	San Juan la Laguna	12	Diciembre	2023-12-20T00:00:00	2024-11-08T19:00:00	3	Temperatura mínima	16.1
96076	7	Sololá	717	San Juan la Laguna	12	San Juan la Laguna	12	Diciembre	2023-12-20T00:00:00	2024-11-08T19:00:00	5	Humedad	83
96077	7	Sololá	717	San Juan la Laguna	12	San Juan la Laguna	12	Diciembre	2023-12-20T00:00:00	2024-11-08T19:00:00	6	Velocidad del viento	3.2
96078	7	Sololá	717	San Juan la Laguna	12	San Juan la Laguna	12	Diciembre	2023-12-20T00:00:00	2024-11-08T19:00:00	7	Dirección del viento	3.22
96079	7	Sololá	717	San Juan la Laguna	12	San Juan la Laguna	12	Diciembre	2023-12-20T00:00:00	2024-11-08T19:00:00	1	Precipitación	0
96080	7	Sololá	717	San Juan la Laguna	12	San Juan la Laguna	12	Diciembre	2023-12-20T00:00:00	2024-11-08T19:00:00	8	Radiación solar	0
96081	7	Sololá	717	San Juan la Laguna	12	San Juan la Laguna	12	Diciembre	2023-12-20T00:00:00	2024-11-08T20:00:00	2	Temperatura media	16.6
96082	7	Sololá	717	San Juan la Laguna	12	San Juan la Laguna	12	Diciembre	2023-12-20T00:00:00	2024-11-08T20:00:00	4	Temperatura máxima	16.9
96083	7	Sololá	717	San Juan la Laguna	12	San Juan la Laguna	12	Diciembre	2023-12-20T00:00:00	2024-11-08T20:00:00	3	Temperatura mínima	15.6
96084	7	Sololá	717	San Juan la Laguna	12	San Juan la Laguna	12	Diciembre	2023-12-20T00:00:00	2024-11-08T20:00:00	5	Humedad	61
96085	7	Sololá	717	San Juan la Laguna	12	San Juan la Laguna	12	Diciembre	2023-12-20T00:00:00	2024-11-08T20:00:00	6	Velocidad del viento	4.8
96086	7	Sololá	717	San Juan la Laguna	12	San Juan la Laguna	12	Diciembre	2023-12-20T00:00:00	2024-11-08T20:00:00	7	Dirección del viento	4.83
96087	7	Sololá	717	San Juan la Laguna	12	San Juan la Laguna	12	Diciembre	2023-12-20T00:00:00	2024-11-08T20:00:00	1	Precipitación	0
96088	7	Sololá	717	San Juan la Laguna	12	San Juan la Laguna	12	Diciembre	2023-12-20T00:00:00	2024-11-08T20:00:00	8	Radiación solar	0
96089	7	Sololá	717	San Juan la Laguna	12	San Juan la Laguna	12	Diciembre	2023-12-20T00:00:00	2024-11-08T21:00:00	2	Temperatura media	15.7
96090	7	Sololá	717	San Juan la Laguna	12	San Juan la Laguna	12	Diciembre	2023-12-20T00:00:00	2024-11-08T21:00:00	4	Temperatura máxima	16.6
96091	7	Sololá	717	San Juan la Laguna	12	San Juan la Laguna	12	Diciembre	2023-12-20T00:00:00	2024-11-08T21:00:00	3	Temperatura mínima	15.7
96092	7	Sololá	717	San Juan la Laguna	12	San Juan la Laguna	12	Diciembre	2023-12-20T00:00:00	2024-11-08T21:00:00	5	Humedad	64
96093	7	Sololá	717	San Juan la Laguna	12	San Juan la Laguna	12	Diciembre	2023-12-20T00:00:00	2024-11-08T21:00:00	6	Velocidad del viento	6.4
96094	7	Sololá	717	San Juan la Laguna	12	San Juan la Laguna	12	Diciembre	2023-12-20T00:00:00	2024-11-08T21:00:00	7	Dirección del viento	6.44
96095	7	Sololá	717	San Juan la Laguna	12	San Juan la Laguna	12	Diciembre	2023-12-20T00:00:00	2024-11-08T21:00:00	1	Precipitación	0
96096	7	Sololá	717	San Juan la Laguna	12	San Juan la Laguna	12	Diciembre	2023-12-20T00:00:00	2024-11-08T21:00:00	8	Radiación solar	0
96097	7	Sololá	717	San Juan la Laguna	12	San Juan la Laguna	12	Diciembre	2023-12-20T00:00:00	2024-11-08T22:00:00	2	Temperatura media	15
96098	7	Sololá	717	San Juan la Laguna	12	San Juan la Laguna	12	Diciembre	2023-12-20T00:00:00	2024-11-08T22:00:00	4	Temperatura máxima	15.7
96099	7	Sololá	717	San Juan la Laguna	12	San Juan la Laguna	12	Diciembre	2023-12-20T00:00:00	2024-11-08T22:00:00	3	Temperatura mínima	14.9
96100	7	Sololá	717	San Juan la Laguna	12	San Juan la Laguna	12	Diciembre	2023-12-20T00:00:00	2024-11-08T22:00:00	5	Humedad	64
96101	7	Sololá	717	San Juan la Laguna	12	San Juan la Laguna	12	Diciembre	2023-12-20T00:00:00	2024-11-08T22:00:00	6	Velocidad del viento	8
96102	7	Sololá	717	San Juan la Laguna	12	San Juan la Laguna	12	Diciembre	2023-12-20T00:00:00	2024-11-08T22:00:00	7	Dirección del viento	8.05
96103	7	Sololá	717	San Juan la Laguna	12	San Juan la Laguna	12	Diciembre	2023-12-20T00:00:00	2024-11-08T22:00:00	1	Precipitación	0
96104	7	Sololá	717	San Juan la Laguna	12	San Juan la Laguna	12	Diciembre	2023-12-20T00:00:00	2024-11-08T22:00:00	8	Radiación solar	0
96105	7	Sololá	717	San Juan la Laguna	12	San Juan la Laguna	12	Diciembre	2023-12-20T00:00:00	2024-11-08T23:00:00	2	Temperatura media	13.1
96106	7	Sololá	717	San Juan la Laguna	12	San Juan la Laguna	12	Diciembre	2023-12-20T00:00:00	2024-11-08T23:00:00	4	Temperatura máxima	15
96107	7	Sololá	717	San Juan la Laguna	12	San Juan la Laguna	12	Diciembre	2023-12-20T00:00:00	2024-11-08T23:00:00	3	Temperatura mínima	13.1
96108	7	Sololá	717	San Juan la Laguna	12	San Juan la Laguna	12	Diciembre	2023-12-20T00:00:00	2024-11-08T23:00:00	5	Humedad	71
96109	7	Sololá	717	San Juan la Laguna	12	San Juan la Laguna	12	Diciembre	2023-12-20T00:00:00	2024-11-08T23:00:00	6	Velocidad del viento	4.8
96110	7	Sololá	717	San Juan la Laguna	12	San Juan la Laguna	12	Diciembre	2023-12-20T00:00:00	2024-11-08T23:00:00	7	Dirección del viento	4.83
96111	7	Sololá	717	San Juan la Laguna	12	San Juan la Laguna	12	Diciembre	2023-12-20T00:00:00	2024-11-08T23:00:00	1	Precipitación	0
96112	7	Sololá	717	San Juan la Laguna	12	San Juan la Laguna	12	Diciembre	2023-12-20T00:00:00	2024-11-08T23:00:00	8	Radiación solar	0
96113	7	Sololá	717	San Juan la Laguna	12	San Juan la Laguna	12	Diciembre	2023-12-21T00:00:00	2024-11-08T00:00:00	2	Temperatura media	10.8
96114	7	Sololá	717	San Juan la Laguna	12	San Juan la Laguna	12	Diciembre	2023-12-21T00:00:00	2024-11-08T00:00:00	4	Temperatura máxima	13.3
96115	7	Sololá	717	San Juan la Laguna	12	San Juan la Laguna	12	Diciembre	2023-12-21T00:00:00	2024-11-08T00:00:00	3	Temperatura mínima	10.8
96116	7	Sololá	717	San Juan la Laguna	12	San Juan la Laguna	12	Diciembre	2023-12-21T00:00:00	2024-11-08T00:00:00	5	Humedad	75
96117	7	Sololá	717	San Juan la Laguna	12	San Juan la Laguna	12	Diciembre	2023-12-21T00:00:00	2024-11-08T00:00:00	6	Velocidad del viento	3.2
96118	7	Sololá	717	San Juan la Laguna	12	San Juan la Laguna	12	Diciembre	2023-12-21T00:00:00	2024-11-08T00:00:00	7	Dirección del viento	3.22
96119	7	Sololá	717	San Juan la Laguna	12	San Juan la Laguna	12	Diciembre	2023-12-21T00:00:00	2024-11-08T00:00:00	1	Precipitación	0
96120	7	Sololá	717	San Juan la Laguna	12	San Juan la Laguna	12	Diciembre	2023-12-21T00:00:00	2024-11-08T00:00:00	8	Radiación solar	0
96121	7	Sololá	717	San Juan la Laguna	12	San Juan la Laguna	12	Diciembre	2023-12-21T00:00:00	2024-11-08T01:00:00	2	Temperatura media	10.6
96122	7	Sololá	717	San Juan la Laguna	12	San Juan la Laguna	12	Diciembre	2023-12-21T00:00:00	2024-11-08T01:00:00	4	Temperatura máxima	10.8
96123	7	Sololá	717	San Juan la Laguna	12	San Juan la Laguna	12	Diciembre	2023-12-21T00:00:00	2024-11-08T01:00:00	3	Temperatura mínima	9.8
96124	7	Sololá	717	San Juan la Laguna	12	San Juan la Laguna	12	Diciembre	2023-12-21T00:00:00	2024-11-08T01:00:00	5	Humedad	69
96125	7	Sololá	717	San Juan la Laguna	12	San Juan la Laguna	12	Diciembre	2023-12-21T00:00:00	2024-11-08T01:00:00	6	Velocidad del viento	6.4
96126	7	Sololá	717	San Juan la Laguna	12	San Juan la Laguna	12	Diciembre	2023-12-21T00:00:00	2024-11-08T01:00:00	7	Dirección del viento	6.44
96127	7	Sololá	717	San Juan la Laguna	12	San Juan la Laguna	12	Diciembre	2023-12-21T00:00:00	2024-11-08T01:00:00	1	Precipitación	0
96128	7	Sololá	717	San Juan la Laguna	12	San Juan la Laguna	12	Diciembre	2023-12-21T00:00:00	2024-11-08T01:00:00	8	Radiación solar	0
96129	7	Sololá	717	San Juan la Laguna	12	San Juan la Laguna	12	Diciembre	2023-12-21T00:00:00	2024-11-08T02:00:00	2	Temperatura media	9.5
96130	7	Sololá	717	San Juan la Laguna	12	San Juan la Laguna	12	Diciembre	2023-12-21T00:00:00	2024-11-08T02:00:00	4	Temperatura máxima	10.6
96131	7	Sololá	717	San Juan la Laguna	12	San Juan la Laguna	12	Diciembre	2023-12-21T00:00:00	2024-11-08T02:00:00	3	Temperatura mínima	9.5
96132	7	Sololá	717	San Juan la Laguna	12	San Juan la Laguna	12	Diciembre	2023-12-21T00:00:00	2024-11-08T02:00:00	5	Humedad	68
96133	7	Sololá	717	San Juan la Laguna	12	San Juan la Laguna	12	Diciembre	2023-12-21T00:00:00	2024-11-08T02:00:00	6	Velocidad del viento	6.4
96134	7	Sololá	717	San Juan la Laguna	12	San Juan la Laguna	12	Diciembre	2023-12-21T00:00:00	2024-11-08T02:00:00	7	Dirección del viento	6.44
96135	7	Sololá	717	San Juan la Laguna	12	San Juan la Laguna	12	Diciembre	2023-12-21T00:00:00	2024-11-08T02:00:00	1	Precipitación	0
96136	7	Sololá	717	San Juan la Laguna	12	San Juan la Laguna	12	Diciembre	2023-12-21T00:00:00	2024-11-08T02:00:00	8	Radiación solar	0
96137	7	Sololá	717	San Juan la Laguna	12	San Juan la Laguna	12	Diciembre	2023-12-21T00:00:00	2024-11-08T03:00:00	2	Temperatura media	9.1
96138	7	Sololá	717	San Juan la Laguna	12	San Juan la Laguna	12	Diciembre	2023-12-21T00:00:00	2024-11-08T03:00:00	4	Temperatura máxima	9.5
96139	7	Sololá	717	San Juan la Laguna	12	San Juan la Laguna	12	Diciembre	2023-12-21T00:00:00	2024-11-08T03:00:00	3	Temperatura mínima	9.1
96140	7	Sololá	717	San Juan la Laguna	12	San Juan la Laguna	12	Diciembre	2023-12-21T00:00:00	2024-11-08T03:00:00	5	Humedad	67
96141	7	Sololá	717	San Juan la Laguna	12	San Juan la Laguna	12	Diciembre	2023-12-21T00:00:00	2024-11-08T03:00:00	6	Velocidad del viento	6.4
96142	7	Sololá	717	San Juan la Laguna	12	San Juan la Laguna	12	Diciembre	2023-12-21T00:00:00	2024-11-08T03:00:00	7	Dirección del viento	6.44
96143	7	Sololá	717	San Juan la Laguna	12	San Juan la Laguna	12	Diciembre	2023-12-21T00:00:00	2024-11-08T03:00:00	1	Precipitación	0
96144	7	Sololá	717	San Juan la Laguna	12	San Juan la Laguna	12	Diciembre	2023-12-21T00:00:00	2024-11-08T03:00:00	8	Radiación solar	0
96145	7	Sololá	717	San Juan la Laguna	12	San Juan la Laguna	12	Diciembre	2023-12-21T00:00:00	2024-11-08T04:00:00	2	Temperatura media	8.7
96146	7	Sololá	717	San Juan la Laguna	12	San Juan la Laguna	12	Diciembre	2023-12-21T00:00:00	2024-11-08T04:00:00	4	Temperatura máxima	9.2
96147	7	Sololá	717	San Juan la Laguna	12	San Juan la Laguna	12	Diciembre	2023-12-21T00:00:00	2024-11-08T04:00:00	3	Temperatura mínima	8.7
96148	7	Sololá	717	San Juan la Laguna	12	San Juan la Laguna	12	Diciembre	2023-12-21T00:00:00	2024-11-08T04:00:00	5	Humedad	68
96149	7	Sololá	717	San Juan la Laguna	12	San Juan la Laguna	12	Diciembre	2023-12-21T00:00:00	2024-11-08T04:00:00	6	Velocidad del viento	6.4
96150	7	Sololá	717	San Juan la Laguna	12	San Juan la Laguna	12	Diciembre	2023-12-21T00:00:00	2024-11-08T04:00:00	7	Dirección del viento	6.44
96151	7	Sololá	717	San Juan la Laguna	12	San Juan la Laguna	12	Diciembre	2023-12-21T00:00:00	2024-11-08T04:00:00	1	Precipitación	0
96152	7	Sololá	717	San Juan la Laguna	12	San Juan la Laguna	12	Diciembre	2023-12-21T00:00:00	2024-11-08T04:00:00	8	Radiación solar	0
96153	7	Sololá	717	San Juan la Laguna	12	San Juan la Laguna	12	Diciembre	2023-12-21T00:00:00	2024-11-08T05:00:00	2	Temperatura media	8.6
96154	7	Sololá	717	San Juan la Laguna	12	San Juan la Laguna	12	Diciembre	2023-12-21T00:00:00	2024-11-08T05:00:00	4	Temperatura máxima	8.8
96155	7	Sololá	717	San Juan la Laguna	12	San Juan la Laguna	12	Diciembre	2023-12-21T00:00:00	2024-11-08T05:00:00	3	Temperatura mínima	8.6
96156	7	Sololá	717	San Juan la Laguna	12	San Juan la Laguna	12	Diciembre	2023-12-21T00:00:00	2024-11-08T05:00:00	5	Humedad	64
96157	7	Sololá	717	San Juan la Laguna	12	San Juan la Laguna	12	Diciembre	2023-12-21T00:00:00	2024-11-08T05:00:00	6	Velocidad del viento	6.4
96158	7	Sololá	717	San Juan la Laguna	12	San Juan la Laguna	12	Diciembre	2023-12-21T00:00:00	2024-11-08T05:00:00	7	Dirección del viento	6.44
96159	7	Sololá	717	San Juan la Laguna	12	San Juan la Laguna	12	Diciembre	2023-12-21T00:00:00	2024-11-08T05:00:00	1	Precipitación	0
96160	7	Sololá	717	San Juan la Laguna	12	San Juan la Laguna	12	Diciembre	2023-12-21T00:00:00	2024-11-08T05:00:00	8	Radiación solar	0
96161	7	Sololá	717	San Juan la Laguna	12	San Juan la Laguna	12	Diciembre	2023-12-21T00:00:00	2024-11-08T06:00:00	2	Temperatura media	8.6
96162	7	Sololá	717	San Juan la Laguna	12	San Juan la Laguna	12	Diciembre	2023-12-21T00:00:00	2024-11-08T06:00:00	4	Temperatura máxima	8.7
96163	7	Sololá	717	San Juan la Laguna	12	San Juan la Laguna	12	Diciembre	2023-12-21T00:00:00	2024-11-08T06:00:00	3	Temperatura mínima	8.3
96164	7	Sololá	717	San Juan la Laguna	12	San Juan la Laguna	12	Diciembre	2023-12-21T00:00:00	2024-11-08T06:00:00	5	Humedad	63
96165	7	Sololá	717	San Juan la Laguna	12	San Juan la Laguna	12	Diciembre	2023-12-21T00:00:00	2024-11-08T06:00:00	6	Velocidad del viento	8
96166	7	Sololá	717	San Juan la Laguna	12	San Juan la Laguna	12	Diciembre	2023-12-21T00:00:00	2024-11-08T06:00:00	7	Dirección del viento	8.05
96167	7	Sololá	717	San Juan la Laguna	12	San Juan la Laguna	12	Diciembre	2023-12-21T00:00:00	2024-11-08T06:00:00	1	Precipitación	0
96168	7	Sololá	717	San Juan la Laguna	12	San Juan la Laguna	12	Diciembre	2023-12-21T00:00:00	2024-11-08T06:00:00	8	Radiación solar	0
96169	7	Sololá	717	San Juan la Laguna	12	San Juan la Laguna	12	Diciembre	2023-12-21T00:00:00	2024-11-08T07:00:00	2	Temperatura media	8.6
96170	7	Sololá	717	San Juan la Laguna	12	San Juan la Laguna	12	Diciembre	2023-12-21T00:00:00	2024-11-08T07:00:00	4	Temperatura máxima	8.8
96171	7	Sololá	717	San Juan la Laguna	12	San Juan la Laguna	12	Diciembre	2023-12-21T00:00:00	2024-11-08T07:00:00	3	Temperatura mínima	8.3
96172	7	Sololá	717	San Juan la Laguna	12	San Juan la Laguna	12	Diciembre	2023-12-21T00:00:00	2024-11-08T07:00:00	5	Humedad	64
96173	7	Sololá	717	San Juan la Laguna	12	San Juan la Laguna	12	Diciembre	2023-12-21T00:00:00	2024-11-08T07:00:00	6	Velocidad del viento	8
96174	7	Sololá	717	San Juan la Laguna	12	San Juan la Laguna	12	Diciembre	2023-12-21T00:00:00	2024-11-08T07:00:00	7	Dirección del viento	8.05
96175	7	Sololá	717	San Juan la Laguna	12	San Juan la Laguna	12	Diciembre	2023-12-21T00:00:00	2024-11-08T07:00:00	1	Precipitación	0
96176	7	Sololá	717	San Juan la Laguna	12	San Juan la Laguna	12	Diciembre	2023-12-21T00:00:00	2024-11-08T07:00:00	8	Radiación solar	6
96177	7	Sololá	717	San Juan la Laguna	12	San Juan la Laguna	12	Diciembre	2023-12-21T00:00:00	2024-11-08T08:00:00	2	Temperatura media	11.3
96178	7	Sololá	717	San Juan la Laguna	12	San Juan la Laguna	12	Diciembre	2023-12-21T00:00:00	2024-11-08T08:00:00	4	Temperatura máxima	11.3
96179	7	Sololá	717	San Juan la Laguna	12	San Juan la Laguna	12	Diciembre	2023-12-21T00:00:00	2024-11-08T08:00:00	3	Temperatura mínima	8.6
96180	7	Sololá	717	San Juan la Laguna	12	San Juan la Laguna	12	Diciembre	2023-12-21T00:00:00	2024-11-08T08:00:00	5	Humedad	60
96181	7	Sololá	717	San Juan la Laguna	12	San Juan la Laguna	12	Diciembre	2023-12-21T00:00:00	2024-11-08T08:00:00	6	Velocidad del viento	6.4
96182	7	Sololá	717	San Juan la Laguna	12	San Juan la Laguna	12	Diciembre	2023-12-21T00:00:00	2024-11-08T08:00:00	7	Dirección del viento	6.44
96183	7	Sololá	717	San Juan la Laguna	12	San Juan la Laguna	12	Diciembre	2023-12-21T00:00:00	2024-11-08T08:00:00	1	Precipitación	0
96184	7	Sololá	717	San Juan la Laguna	12	San Juan la Laguna	12	Diciembre	2023-12-21T00:00:00	2024-11-08T08:00:00	8	Radiación solar	142
96185	7	Sololá	717	San Juan la Laguna	12	San Juan la Laguna	12	Diciembre	2023-12-21T00:00:00	2024-11-08T09:00:00	2	Temperatura media	17.3
96186	7	Sololá	717	San Juan la Laguna	12	San Juan la Laguna	12	Diciembre	2023-12-21T00:00:00	2024-11-08T09:00:00	4	Temperatura máxima	17.3
96187	7	Sololá	717	San Juan la Laguna	12	San Juan la Laguna	12	Diciembre	2023-12-21T00:00:00	2024-11-08T09:00:00	3	Temperatura mínima	11.3
96188	7	Sololá	717	San Juan la Laguna	12	San Juan la Laguna	12	Diciembre	2023-12-21T00:00:00	2024-11-08T09:00:00	5	Humedad	47
96189	7	Sololá	717	San Juan la Laguna	12	San Juan la Laguna	12	Diciembre	2023-12-21T00:00:00	2024-11-08T09:00:00	6	Velocidad del viento	3.2
96190	7	Sololá	717	San Juan la Laguna	12	San Juan la Laguna	12	Diciembre	2023-12-21T00:00:00	2024-11-08T09:00:00	7	Dirección del viento	3.22
96191	7	Sololá	717	San Juan la Laguna	12	San Juan la Laguna	12	Diciembre	2023-12-21T00:00:00	2024-11-08T09:00:00	1	Precipitación	0
96192	7	Sololá	717	San Juan la Laguna	12	San Juan la Laguna	12	Diciembre	2023-12-21T00:00:00	2024-11-08T09:00:00	8	Radiación solar	370
96193	7	Sololá	717	San Juan la Laguna	12	San Juan la Laguna	12	Diciembre	2023-12-21T00:00:00	2024-11-08T10:00:00	2	Temperatura media	18.9
96194	7	Sololá	717	San Juan la Laguna	12	San Juan la Laguna	12	Diciembre	2023-12-21T00:00:00	2024-11-08T10:00:00	4	Temperatura máxima	18.9
96195	7	Sololá	717	San Juan la Laguna	12	San Juan la Laguna	12	Diciembre	2023-12-21T00:00:00	2024-11-08T10:00:00	3	Temperatura mínima	17.2
96196	7	Sololá	717	San Juan la Laguna	12	San Juan la Laguna	12	Diciembre	2023-12-21T00:00:00	2024-11-08T10:00:00	5	Humedad	44
96197	7	Sololá	717	San Juan la Laguna	12	San Juan la Laguna	12	Diciembre	2023-12-21T00:00:00	2024-11-08T10:00:00	6	Velocidad del viento	3.2
96198	7	Sololá	717	San Juan la Laguna	12	San Juan la Laguna	12	Diciembre	2023-12-21T00:00:00	2024-11-08T10:00:00	7	Dirección del viento	3.22
96199	7	Sololá	717	San Juan la Laguna	12	San Juan la Laguna	12	Diciembre	2023-12-21T00:00:00	2024-11-08T10:00:00	1	Precipitación	0
96200	7	Sololá	717	San Juan la Laguna	12	San Juan la Laguna	12	Diciembre	2023-12-21T00:00:00	2024-11-08T10:00:00	8	Radiación solar	551
96201	7	Sololá	717	San Juan la Laguna	12	San Juan la Laguna	12	Diciembre	2023-12-21T00:00:00	2024-11-08T11:00:00	2	Temperatura media	20.4
96202	7	Sololá	717	San Juan la Laguna	12	San Juan la Laguna	12	Diciembre	2023-12-21T00:00:00	2024-11-08T11:00:00	4	Temperatura máxima	20.5
96203	7	Sololá	717	San Juan la Laguna	12	San Juan la Laguna	12	Diciembre	2023-12-21T00:00:00	2024-11-08T11:00:00	3	Temperatura mínima	18.9
96204	7	Sololá	717	San Juan la Laguna	12	San Juan la Laguna	12	Diciembre	2023-12-21T00:00:00	2024-11-08T11:00:00	5	Humedad	40
96205	7	Sololá	717	San Juan la Laguna	12	San Juan la Laguna	12	Diciembre	2023-12-21T00:00:00	2024-11-08T11:00:00	6	Velocidad del viento	4.8
96206	7	Sololá	717	San Juan la Laguna	12	San Juan la Laguna	12	Diciembre	2023-12-21T00:00:00	2024-11-08T11:00:00	7	Dirección del viento	4.83
96207	7	Sololá	717	San Juan la Laguna	12	San Juan la Laguna	12	Diciembre	2023-12-21T00:00:00	2024-11-08T11:00:00	1	Precipitación	0
96208	7	Sololá	717	San Juan la Laguna	12	San Juan la Laguna	12	Diciembre	2023-12-21T00:00:00	2024-11-08T11:00:00	8	Radiación solar	587
96209	7	Sololá	717	San Juan la Laguna	12	San Juan la Laguna	12	Diciembre	2023-12-21T00:00:00	2024-11-08T12:00:00	2	Temperatura media	21.5
96210	7	Sololá	717	San Juan la Laguna	12	San Juan la Laguna	12	Diciembre	2023-12-21T00:00:00	2024-11-08T12:00:00	4	Temperatura máxima	21.6
96211	7	Sololá	717	San Juan la Laguna	12	San Juan la Laguna	12	Diciembre	2023-12-21T00:00:00	2024-11-08T12:00:00	3	Temperatura mínima	20.4
96212	7	Sololá	717	San Juan la Laguna	12	San Juan la Laguna	12	Diciembre	2023-12-21T00:00:00	2024-11-08T12:00:00	5	Humedad	41
96213	7	Sololá	717	San Juan la Laguna	12	San Juan la Laguna	12	Diciembre	2023-12-21T00:00:00	2024-11-08T12:00:00	6	Velocidad del viento	6.4
96214	7	Sololá	717	San Juan la Laguna	12	San Juan la Laguna	12	Diciembre	2023-12-21T00:00:00	2024-11-08T12:00:00	7	Dirección del viento	6.44
96215	7	Sololá	717	San Juan la Laguna	12	San Juan la Laguna	12	Diciembre	2023-12-21T00:00:00	2024-11-08T12:00:00	1	Precipitación	0
96216	7	Sololá	717	San Juan la Laguna	12	San Juan la Laguna	12	Diciembre	2023-12-21T00:00:00	2024-11-08T12:00:00	8	Radiación solar	722
96217	7	Sololá	717	San Juan la Laguna	12	San Juan la Laguna	12	Diciembre	2023-12-21T00:00:00	2024-11-08T13:00:00	2	Temperatura media	23.3
96218	7	Sololá	717	San Juan la Laguna	12	San Juan la Laguna	12	Diciembre	2023-12-21T00:00:00	2024-11-08T13:00:00	4	Temperatura máxima	23.3
96219	7	Sololá	717	San Juan la Laguna	12	San Juan la Laguna	12	Diciembre	2023-12-21T00:00:00	2024-11-08T13:00:00	3	Temperatura mínima	21.3
96220	7	Sololá	717	San Juan la Laguna	12	San Juan la Laguna	12	Diciembre	2023-12-21T00:00:00	2024-11-08T13:00:00	5	Humedad	38
96221	7	Sololá	717	San Juan la Laguna	12	San Juan la Laguna	12	Diciembre	2023-12-21T00:00:00	2024-11-08T13:00:00	6	Velocidad del viento	8
96222	7	Sololá	717	San Juan la Laguna	12	San Juan la Laguna	12	Diciembre	2023-12-21T00:00:00	2024-11-08T13:00:00	7	Dirección del viento	8.05
96223	7	Sololá	717	San Juan la Laguna	12	San Juan la Laguna	12	Diciembre	2023-12-21T00:00:00	2024-11-08T13:00:00	1	Precipitación	0
96224	7	Sololá	717	San Juan la Laguna	12	San Juan la Laguna	12	Diciembre	2023-12-21T00:00:00	2024-11-08T13:00:00	8	Radiación solar	712
96225	7	Sololá	717	San Juan la Laguna	12	San Juan la Laguna	12	Diciembre	2023-12-21T00:00:00	2024-11-08T14:00:00	2	Temperatura media	23.9
96226	7	Sololá	717	San Juan la Laguna	12	San Juan la Laguna	12	Diciembre	2023-12-21T00:00:00	2024-11-08T14:00:00	4	Temperatura máxima	24.1
96227	7	Sololá	717	San Juan la Laguna	12	San Juan la Laguna	12	Diciembre	2023-12-21T00:00:00	2024-11-08T14:00:00	3	Temperatura mínima	23.3
96228	7	Sololá	717	San Juan la Laguna	12	San Juan la Laguna	12	Diciembre	2023-12-21T00:00:00	2024-11-08T14:00:00	5	Humedad	39
96229	7	Sololá	717	San Juan la Laguna	12	San Juan la Laguna	12	Diciembre	2023-12-21T00:00:00	2024-11-08T14:00:00	6	Velocidad del viento	8
96230	7	Sololá	717	San Juan la Laguna	12	San Juan la Laguna	12	Diciembre	2023-12-21T00:00:00	2024-11-08T14:00:00	7	Dirección del viento	8.05
96231	7	Sololá	717	San Juan la Laguna	12	San Juan la Laguna	12	Diciembre	2023-12-21T00:00:00	2024-11-08T14:00:00	1	Precipitación	0
96232	7	Sololá	717	San Juan la Laguna	12	San Juan la Laguna	12	Diciembre	2023-12-21T00:00:00	2024-11-08T14:00:00	8	Radiación solar	696
96233	7	Sololá	717	San Juan la Laguna	12	San Juan la Laguna	12	Diciembre	2023-12-21T00:00:00	2024-11-08T15:00:00	2	Temperatura media	23.2
96234	7	Sololá	717	San Juan la Laguna	12	San Juan la Laguna	12	Diciembre	2023-12-21T00:00:00	2024-11-08T15:00:00	4	Temperatura máxima	24.1
96235	7	Sololá	717	San Juan la Laguna	12	San Juan la Laguna	12	Diciembre	2023-12-21T00:00:00	2024-11-08T15:00:00	3	Temperatura mínima	23.2
96236	7	Sololá	717	San Juan la Laguna	12	San Juan la Laguna	12	Diciembre	2023-12-21T00:00:00	2024-11-08T15:00:00	5	Humedad	45
96237	7	Sololá	717	San Juan la Laguna	12	San Juan la Laguna	12	Diciembre	2023-12-21T00:00:00	2024-11-08T15:00:00	6	Velocidad del viento	8
96238	7	Sololá	717	San Juan la Laguna	12	San Juan la Laguna	12	Diciembre	2023-12-21T00:00:00	2024-11-08T15:00:00	7	Dirección del viento	8.05
96239	7	Sololá	717	San Juan la Laguna	12	San Juan la Laguna	12	Diciembre	2023-12-21T00:00:00	2024-11-08T15:00:00	1	Precipitación	0
96240	7	Sololá	717	San Juan la Laguna	12	San Juan la Laguna	12	Diciembre	2023-12-21T00:00:00	2024-11-08T15:00:00	8	Radiación solar	571
96241	7	Sololá	717	San Juan la Laguna	12	San Juan la Laguna	12	Diciembre	2023-12-21T00:00:00	2024-11-08T16:00:00	2	Temperatura media	22.1
96242	7	Sololá	717	San Juan la Laguna	12	San Juan la Laguna	12	Diciembre	2023-12-21T00:00:00	2024-11-08T16:00:00	4	Temperatura máxima	23.2
96243	7	Sololá	717	San Juan la Laguna	12	San Juan la Laguna	12	Diciembre	2023-12-21T00:00:00	2024-11-08T16:00:00	3	Temperatura mínima	22.1
96244	7	Sololá	717	San Juan la Laguna	12	San Juan la Laguna	12	Diciembre	2023-12-21T00:00:00	2024-11-08T16:00:00	5	Humedad	48
96245	7	Sololá	717	San Juan la Laguna	12	San Juan la Laguna	12	Diciembre	2023-12-21T00:00:00	2024-11-08T16:00:00	6	Velocidad del viento	8
96246	7	Sololá	717	San Juan la Laguna	12	San Juan la Laguna	12	Diciembre	2023-12-21T00:00:00	2024-11-08T16:00:00	7	Dirección del viento	8.05
96247	7	Sololá	717	San Juan la Laguna	12	San Juan la Laguna	12	Diciembre	2023-12-21T00:00:00	2024-11-08T16:00:00	1	Precipitación	0
96248	7	Sololá	717	San Juan la Laguna	12	San Juan la Laguna	12	Diciembre	2023-12-21T00:00:00	2024-11-08T16:00:00	8	Radiación solar	403
96249	7	Sololá	717	San Juan la Laguna	12	San Juan la Laguna	12	Diciembre	2023-12-21T00:00:00	2024-11-08T17:00:00	2	Temperatura media	19.8
96250	7	Sololá	717	San Juan la Laguna	12	San Juan la Laguna	12	Diciembre	2023-12-21T00:00:00	2024-11-08T17:00:00	4	Temperatura máxima	22.1
96251	7	Sololá	717	San Juan la Laguna	12	San Juan la Laguna	12	Diciembre	2023-12-21T00:00:00	2024-11-08T17:00:00	3	Temperatura mínima	19.8
96252	7	Sololá	717	San Juan la Laguna	12	San Juan la Laguna	12	Diciembre	2023-12-21T00:00:00	2024-11-08T17:00:00	5	Humedad	55
96253	7	Sololá	717	San Juan la Laguna	12	San Juan la Laguna	12	Diciembre	2023-12-21T00:00:00	2024-11-08T17:00:00	6	Velocidad del viento	9.7
96254	7	Sololá	717	San Juan la Laguna	12	San Juan la Laguna	12	Diciembre	2023-12-21T00:00:00	2024-11-08T17:00:00	7	Dirección del viento	9.66
96255	7	Sololá	717	San Juan la Laguna	12	San Juan la Laguna	12	Diciembre	2023-12-21T00:00:00	2024-11-08T17:00:00	1	Precipitación	0
96256	7	Sololá	717	San Juan la Laguna	12	San Juan la Laguna	12	Diciembre	2023-12-21T00:00:00	2024-11-08T17:00:00	8	Radiación solar	134
96257	7	Sololá	717	San Juan la Laguna	12	San Juan la Laguna	12	Diciembre	2023-12-21T00:00:00	2024-11-08T18:00:00	2	Temperatura media	17.8
96258	7	Sololá	717	San Juan la Laguna	12	San Juan la Laguna	12	Diciembre	2023-12-21T00:00:00	2024-11-08T18:00:00	4	Temperatura máxima	19.8
96259	7	Sololá	717	San Juan la Laguna	12	San Juan la Laguna	12	Diciembre	2023-12-21T00:00:00	2024-11-08T18:00:00	3	Temperatura mínima	17.8
96260	7	Sololá	717	San Juan la Laguna	12	San Juan la Laguna	12	Diciembre	2023-12-21T00:00:00	2024-11-08T18:00:00	5	Humedad	60
96261	7	Sololá	717	San Juan la Laguna	12	San Juan la Laguna	12	Diciembre	2023-12-21T00:00:00	2024-11-08T18:00:00	6	Velocidad del viento	6.4
96262	7	Sololá	717	San Juan la Laguna	12	San Juan la Laguna	12	Diciembre	2023-12-21T00:00:00	2024-11-08T18:00:00	7	Dirección del viento	6.44
96263	7	Sololá	717	San Juan la Laguna	12	San Juan la Laguna	12	Diciembre	2023-12-21T00:00:00	2024-11-08T18:00:00	1	Precipitación	0
96264	7	Sololá	717	San Juan la Laguna	12	San Juan la Laguna	12	Diciembre	2023-12-21T00:00:00	2024-11-08T18:00:00	8	Radiación solar	11
96265	7	Sololá	717	San Juan la Laguna	12	San Juan la Laguna	12	Diciembre	2023-12-21T00:00:00	2024-11-08T19:00:00	2	Temperatura media	17.4
96266	7	Sololá	717	San Juan la Laguna	12	San Juan la Laguna	12	Diciembre	2023-12-21T00:00:00	2024-11-08T19:00:00	4	Temperatura máxima	17.8
96267	7	Sololá	717	San Juan la Laguna	12	San Juan la Laguna	12	Diciembre	2023-12-21T00:00:00	2024-11-08T19:00:00	3	Temperatura mínima	17.3
96268	7	Sololá	717	San Juan la Laguna	12	San Juan la Laguna	12	Diciembre	2023-12-21T00:00:00	2024-11-08T19:00:00	5	Humedad	57
96269	7	Sololá	717	San Juan la Laguna	12	San Juan la Laguna	12	Diciembre	2023-12-21T00:00:00	2024-11-08T19:00:00	6	Velocidad del viento	12.9
96270	7	Sololá	717	San Juan la Laguna	12	San Juan la Laguna	12	Diciembre	2023-12-21T00:00:00	2024-11-08T19:00:00	7	Dirección del viento	12.87
96271	7	Sololá	717	San Juan la Laguna	12	San Juan la Laguna	12	Diciembre	2023-12-21T00:00:00	2024-11-08T19:00:00	1	Precipitación	0
96272	7	Sololá	717	San Juan la Laguna	12	San Juan la Laguna	12	Diciembre	2023-12-21T00:00:00	2024-11-08T19:00:00	8	Radiación solar	0
96273	7	Sololá	717	San Juan la Laguna	12	San Juan la Laguna	12	Diciembre	2023-12-21T00:00:00	2024-11-08T20:00:00	2	Temperatura media	17.3
96274	7	Sololá	717	San Juan la Laguna	12	San Juan la Laguna	12	Diciembre	2023-12-21T00:00:00	2024-11-08T20:00:00	4	Temperatura máxima	17.4
96275	7	Sololá	717	San Juan la Laguna	12	San Juan la Laguna	12	Diciembre	2023-12-21T00:00:00	2024-11-08T20:00:00	3	Temperatura mínima	17.2
96276	7	Sololá	717	San Juan la Laguna	12	San Juan la Laguna	12	Diciembre	2023-12-21T00:00:00	2024-11-08T20:00:00	5	Humedad	55
96277	7	Sololá	717	San Juan la Laguna	12	San Juan la Laguna	12	Diciembre	2023-12-21T00:00:00	2024-11-08T20:00:00	6	Velocidad del viento	8
96278	7	Sololá	717	San Juan la Laguna	12	San Juan la Laguna	12	Diciembre	2023-12-21T00:00:00	2024-11-08T20:00:00	7	Dirección del viento	8.05
96279	7	Sololá	717	San Juan la Laguna	12	San Juan la Laguna	12	Diciembre	2023-12-21T00:00:00	2024-11-08T20:00:00	1	Precipitación	0
96280	7	Sololá	717	San Juan la Laguna	12	San Juan la Laguna	12	Diciembre	2023-12-21T00:00:00	2024-11-08T20:00:00	8	Radiación solar	0
96281	7	Sololá	717	San Juan la Laguna	12	San Juan la Laguna	12	Diciembre	2023-12-21T00:00:00	2024-11-08T21:00:00	2	Temperatura media	17.2
96282	7	Sololá	717	San Juan la Laguna	12	San Juan la Laguna	12	Diciembre	2023-12-21T00:00:00	2024-11-08T21:00:00	4	Temperatura máxima	17.3
96283	7	Sololá	717	San Juan la Laguna	12	San Juan la Laguna	12	Diciembre	2023-12-21T00:00:00	2024-11-08T21:00:00	3	Temperatura mínima	17.2
96284	7	Sololá	717	San Juan la Laguna	12	San Juan la Laguna	12	Diciembre	2023-12-21T00:00:00	2024-11-08T21:00:00	5	Humedad	54
96285	7	Sololá	717	San Juan la Laguna	12	San Juan la Laguna	12	Diciembre	2023-12-21T00:00:00	2024-11-08T21:00:00	6	Velocidad del viento	11.3
96286	7	Sololá	717	San Juan la Laguna	12	San Juan la Laguna	12	Diciembre	2023-12-21T00:00:00	2024-11-08T21:00:00	7	Dirección del viento	11.27
96287	7	Sololá	717	San Juan la Laguna	12	San Juan la Laguna	12	Diciembre	2023-12-21T00:00:00	2024-11-08T21:00:00	1	Precipitación	0
96288	7	Sololá	717	San Juan la Laguna	12	San Juan la Laguna	12	Diciembre	2023-12-21T00:00:00	2024-11-08T21:00:00	8	Radiación solar	0
96289	7	Sololá	717	San Juan la Laguna	12	San Juan la Laguna	12	Diciembre	2023-12-21T00:00:00	2024-11-08T22:00:00	2	Temperatura media	15.8
96290	7	Sololá	717	San Juan la Laguna	12	San Juan la Laguna	12	Diciembre	2023-12-21T00:00:00	2024-11-08T22:00:00	4	Temperatura máxima	17.3
96291	7	Sololá	717	San Juan la Laguna	12	San Juan la Laguna	12	Diciembre	2023-12-21T00:00:00	2024-11-08T22:00:00	3	Temperatura mínima	15.8
96292	7	Sololá	717	San Juan la Laguna	12	San Juan la Laguna	12	Diciembre	2023-12-21T00:00:00	2024-11-08T22:00:00	5	Humedad	59
96293	7	Sololá	717	San Juan la Laguna	12	San Juan la Laguna	12	Diciembre	2023-12-21T00:00:00	2024-11-08T22:00:00	6	Velocidad del viento	8
96294	7	Sololá	717	San Juan la Laguna	12	San Juan la Laguna	12	Diciembre	2023-12-21T00:00:00	2024-11-08T22:00:00	7	Dirección del viento	8.05
96295	7	Sololá	717	San Juan la Laguna	12	San Juan la Laguna	12	Diciembre	2023-12-21T00:00:00	2024-11-08T22:00:00	1	Precipitación	0
96296	7	Sololá	717	San Juan la Laguna	12	San Juan la Laguna	12	Diciembre	2023-12-21T00:00:00	2024-11-08T22:00:00	8	Radiación solar	0
96297	7	Sololá	717	San Juan la Laguna	12	San Juan la Laguna	12	Diciembre	2023-12-21T00:00:00	2024-11-08T23:00:00	2	Temperatura media	15.4
96298	7	Sololá	717	San Juan la Laguna	12	San Juan la Laguna	12	Diciembre	2023-12-21T00:00:00	2024-11-08T23:00:00	4	Temperatura máxima	15.8
96299	7	Sololá	717	San Juan la Laguna	12	San Juan la Laguna	12	Diciembre	2023-12-21T00:00:00	2024-11-08T23:00:00	3	Temperatura mínima	14.5
96300	7	Sololá	717	San Juan la Laguna	12	San Juan la Laguna	12	Diciembre	2023-12-21T00:00:00	2024-11-08T23:00:00	5	Humedad	66
96301	7	Sololá	717	San Juan la Laguna	12	San Juan la Laguna	12	Diciembre	2023-12-21T00:00:00	2024-11-08T23:00:00	6	Velocidad del viento	4.8
96302	7	Sololá	717	San Juan la Laguna	12	San Juan la Laguna	12	Diciembre	2023-12-21T00:00:00	2024-11-08T23:00:00	7	Dirección del viento	4.83
96303	7	Sololá	717	San Juan la Laguna	12	San Juan la Laguna	12	Diciembre	2023-12-21T00:00:00	2024-11-08T23:00:00	1	Precipitación	0
96304	7	Sololá	717	San Juan la Laguna	12	San Juan la Laguna	12	Diciembre	2023-12-21T00:00:00	2024-11-08T23:00:00	8	Radiación solar	0
96305	7	Sololá	717	San Juan la Laguna	12	San Juan la Laguna	12	Diciembre	2023-12-22T00:00:00	2024-11-08T00:00:00	2	Temperatura media	16.1
96306	7	Sololá	717	San Juan la Laguna	12	San Juan la Laguna	12	Diciembre	2023-12-22T00:00:00	2024-11-08T00:00:00	4	Temperatura máxima	16.2
96307	7	Sololá	717	San Juan la Laguna	12	San Juan la Laguna	12	Diciembre	2023-12-22T00:00:00	2024-11-08T00:00:00	3	Temperatura mínima	15.4
96308	7	Sololá	717	San Juan la Laguna	12	San Juan la Laguna	12	Diciembre	2023-12-22T00:00:00	2024-11-08T00:00:00	5	Humedad	66
96309	7	Sololá	717	San Juan la Laguna	12	San Juan la Laguna	12	Diciembre	2023-12-22T00:00:00	2024-11-08T00:00:00	6	Velocidad del viento	6.4
96310	7	Sololá	717	San Juan la Laguna	12	San Juan la Laguna	12	Diciembre	2023-12-22T00:00:00	2024-11-08T00:00:00	7	Dirección del viento	6.44
96311	7	Sololá	717	San Juan la Laguna	12	San Juan la Laguna	12	Diciembre	2023-12-22T00:00:00	2024-11-08T00:00:00	1	Precipitación	0
96312	7	Sololá	717	San Juan la Laguna	12	San Juan la Laguna	12	Diciembre	2023-12-22T00:00:00	2024-11-08T00:00:00	8	Radiación solar	0
96313	7	Sololá	717	San Juan la Laguna	12	San Juan la Laguna	12	Diciembre	2023-12-22T00:00:00	2024-11-08T01:00:00	2	Temperatura media	15.7
96314	7	Sololá	717	San Juan la Laguna	12	San Juan la Laguna	12	Diciembre	2023-12-22T00:00:00	2024-11-08T01:00:00	4	Temperatura máxima	16.1
96315	7	Sololá	717	San Juan la Laguna	12	San Juan la Laguna	12	Diciembre	2023-12-22T00:00:00	2024-11-08T01:00:00	3	Temperatura mínima	15.2
96316	7	Sololá	717	San Juan la Laguna	12	San Juan la Laguna	12	Diciembre	2023-12-22T00:00:00	2024-11-08T01:00:00	5	Humedad	69
96317	7	Sololá	717	San Juan la Laguna	12	San Juan la Laguna	12	Diciembre	2023-12-22T00:00:00	2024-11-08T01:00:00	6	Velocidad del viento	6.4
96318	7	Sololá	717	San Juan la Laguna	12	San Juan la Laguna	12	Diciembre	2023-12-22T00:00:00	2024-11-08T01:00:00	7	Dirección del viento	6.44
96319	7	Sololá	717	San Juan la Laguna	12	San Juan la Laguna	12	Diciembre	2023-12-22T00:00:00	2024-11-08T01:00:00	1	Precipitación	0
96320	7	Sololá	717	San Juan la Laguna	12	San Juan la Laguna	12	Diciembre	2023-12-22T00:00:00	2024-11-08T01:00:00	8	Radiación solar	0
96321	7	Sololá	717	San Juan la Laguna	12	San Juan la Laguna	12	Diciembre	2023-12-22T00:00:00	2024-11-08T02:00:00	2	Temperatura media	15.5
96322	7	Sololá	717	San Juan la Laguna	12	San Juan la Laguna	12	Diciembre	2023-12-22T00:00:00	2024-11-08T02:00:00	4	Temperatura máxima	15.7
96323	7	Sololá	717	San Juan la Laguna	12	San Juan la Laguna	12	Diciembre	2023-12-22T00:00:00	2024-11-08T02:00:00	3	Temperatura mínima	15.3
96324	7	Sololá	717	San Juan la Laguna	12	San Juan la Laguna	12	Diciembre	2023-12-22T00:00:00	2024-11-08T02:00:00	5	Humedad	68
96325	7	Sololá	717	San Juan la Laguna	12	San Juan la Laguna	12	Diciembre	2023-12-22T00:00:00	2024-11-08T02:00:00	6	Velocidad del viento	4.8
96326	7	Sololá	717	San Juan la Laguna	12	San Juan la Laguna	12	Diciembre	2023-12-22T00:00:00	2024-11-08T02:00:00	7	Dirección del viento	4.83
96327	7	Sololá	717	San Juan la Laguna	12	San Juan la Laguna	12	Diciembre	2023-12-22T00:00:00	2024-11-08T02:00:00	1	Precipitación	0
96328	7	Sololá	717	San Juan la Laguna	12	San Juan la Laguna	12	Diciembre	2023-12-22T00:00:00	2024-11-08T02:00:00	8	Radiación solar	0
96329	7	Sololá	717	San Juan la Laguna	12	San Juan la Laguna	12	Diciembre	2023-12-22T00:00:00	2024-11-08T03:00:00	2	Temperatura media	13.8
96330	7	Sololá	717	San Juan la Laguna	12	San Juan la Laguna	12	Diciembre	2023-12-22T00:00:00	2024-11-08T03:00:00	4	Temperatura máxima	15.6
96331	7	Sololá	717	San Juan la Laguna	12	San Juan la Laguna	12	Diciembre	2023-12-22T00:00:00	2024-11-08T03:00:00	3	Temperatura mínima	13.8
96332	7	Sololá	717	San Juan la Laguna	12	San Juan la Laguna	12	Diciembre	2023-12-22T00:00:00	2024-11-08T03:00:00	5	Humedad	73
96333	7	Sololá	717	San Juan la Laguna	12	San Juan la Laguna	12	Diciembre	2023-12-22T00:00:00	2024-11-08T03:00:00	6	Velocidad del viento	3.2
96334	7	Sololá	717	San Juan la Laguna	12	San Juan la Laguna	12	Diciembre	2023-12-22T00:00:00	2024-11-08T03:00:00	7	Dirección del viento	3.22
96335	7	Sololá	717	San Juan la Laguna	12	San Juan la Laguna	12	Diciembre	2023-12-22T00:00:00	2024-11-08T03:00:00	1	Precipitación	0
96336	7	Sololá	717	San Juan la Laguna	12	San Juan la Laguna	12	Diciembre	2023-12-22T00:00:00	2024-11-08T03:00:00	8	Radiación solar	0
96337	7	Sololá	717	San Juan la Laguna	12	San Juan la Laguna	12	Diciembre	2023-12-22T00:00:00	2024-11-08T04:00:00	2	Temperatura media	11.2
96338	7	Sololá	717	San Juan la Laguna	12	San Juan la Laguna	12	Diciembre	2023-12-22T00:00:00	2024-11-08T04:00:00	4	Temperatura máxima	13.9
96339	7	Sololá	717	San Juan la Laguna	12	San Juan la Laguna	12	Diciembre	2023-12-22T00:00:00	2024-11-08T04:00:00	3	Temperatura mínima	11.2
96340	7	Sololá	717	San Juan la Laguna	12	San Juan la Laguna	12	Diciembre	2023-12-22T00:00:00	2024-11-08T04:00:00	5	Humedad	78
96341	7	Sololá	717	San Juan la Laguna	12	San Juan la Laguna	12	Diciembre	2023-12-22T00:00:00	2024-11-08T04:00:00	6	Velocidad del viento	4.8
96342	7	Sololá	717	San Juan la Laguna	12	San Juan la Laguna	12	Diciembre	2023-12-22T00:00:00	2024-11-08T04:00:00	7	Dirección del viento	4.83
96343	7	Sololá	717	San Juan la Laguna	12	San Juan la Laguna	12	Diciembre	2023-12-22T00:00:00	2024-11-08T04:00:00	1	Precipitación	0
96344	7	Sololá	717	San Juan la Laguna	12	San Juan la Laguna	12	Diciembre	2023-12-22T00:00:00	2024-11-08T04:00:00	8	Radiación solar	0
96345	7	Sololá	717	San Juan la Laguna	12	San Juan la Laguna	12	Diciembre	2023-12-22T00:00:00	2024-11-08T05:00:00	2	Temperatura media	12.7
96346	7	Sololá	717	San Juan la Laguna	12	San Juan la Laguna	12	Diciembre	2023-12-22T00:00:00	2024-11-08T05:00:00	4	Temperatura máxima	12.8
96347	7	Sololá	717	San Juan la Laguna	12	San Juan la Laguna	12	Diciembre	2023-12-22T00:00:00	2024-11-08T05:00:00	3	Temperatura mínima	10.7
96348	7	Sololá	717	San Juan la Laguna	12	San Juan la Laguna	12	Diciembre	2023-12-22T00:00:00	2024-11-08T05:00:00	5	Humedad	71
96349	7	Sololá	717	San Juan la Laguna	12	San Juan la Laguna	12	Diciembre	2023-12-22T00:00:00	2024-11-08T05:00:00	6	Velocidad del viento	4.8
96350	7	Sololá	717	San Juan la Laguna	12	San Juan la Laguna	12	Diciembre	2023-12-22T00:00:00	2024-11-08T05:00:00	7	Dirección del viento	4.83
96351	7	Sololá	717	San Juan la Laguna	12	San Juan la Laguna	12	Diciembre	2023-12-22T00:00:00	2024-11-08T05:00:00	1	Precipitación	0
96352	7	Sololá	717	San Juan la Laguna	12	San Juan la Laguna	12	Diciembre	2023-12-22T00:00:00	2024-11-08T05:00:00	8	Radiación solar	0
96353	7	Sololá	717	San Juan la Laguna	12	San Juan la Laguna	12	Diciembre	2023-12-22T00:00:00	2024-11-08T06:00:00	2	Temperatura media	10.9
96354	7	Sololá	717	San Juan la Laguna	12	San Juan la Laguna	12	Diciembre	2023-12-22T00:00:00	2024-11-08T06:00:00	4	Temperatura máxima	12.7
96355	7	Sololá	717	San Juan la Laguna	12	San Juan la Laguna	12	Diciembre	2023-12-22T00:00:00	2024-11-08T06:00:00	3	Temperatura mínima	10.6
96356	7	Sololá	717	San Juan la Laguna	12	San Juan la Laguna	12	Diciembre	2023-12-22T00:00:00	2024-11-08T06:00:00	5	Humedad	75
96357	7	Sololá	717	San Juan la Laguna	12	San Juan la Laguna	12	Diciembre	2023-12-22T00:00:00	2024-11-08T06:00:00	6	Velocidad del viento	4.8
96358	7	Sololá	717	San Juan la Laguna	12	San Juan la Laguna	12	Diciembre	2023-12-22T00:00:00	2024-11-08T06:00:00	7	Dirección del viento	4.83
96359	7	Sololá	717	San Juan la Laguna	12	San Juan la Laguna	12	Diciembre	2023-12-22T00:00:00	2024-11-08T06:00:00	1	Precipitación	0
96360	7	Sololá	717	San Juan la Laguna	12	San Juan la Laguna	12	Diciembre	2023-12-22T00:00:00	2024-11-08T06:00:00	8	Radiación solar	0
96361	7	Sololá	717	San Juan la Laguna	12	San Juan la Laguna	12	Diciembre	2023-12-22T00:00:00	2024-11-08T07:00:00	2	Temperatura media	10.7
96362	7	Sololá	717	San Juan la Laguna	12	San Juan la Laguna	12	Diciembre	2023-12-22T00:00:00	2024-11-08T07:00:00	4	Temperatura máxima	11.1
96363	7	Sololá	717	San Juan la Laguna	12	San Juan la Laguna	12	Diciembre	2023-12-22T00:00:00	2024-11-08T07:00:00	3	Temperatura mínima	10.3
96364	7	Sololá	717	San Juan la Laguna	12	San Juan la Laguna	12	Diciembre	2023-12-22T00:00:00	2024-11-08T07:00:00	5	Humedad	75
96365	7	Sololá	717	San Juan la Laguna	12	San Juan la Laguna	12	Diciembre	2023-12-22T00:00:00	2024-11-08T07:00:00	6	Velocidad del viento	4.8
96366	7	Sololá	717	San Juan la Laguna	12	San Juan la Laguna	12	Diciembre	2023-12-22T00:00:00	2024-11-08T07:00:00	7	Dirección del viento	4.83
96367	7	Sololá	717	San Juan la Laguna	12	San Juan la Laguna	12	Diciembre	2023-12-22T00:00:00	2024-11-08T07:00:00	1	Precipitación	0
96368	7	Sololá	717	San Juan la Laguna	12	San Juan la Laguna	12	Diciembre	2023-12-22T00:00:00	2024-11-08T07:00:00	8	Radiación solar	6
96369	7	Sololá	717	San Juan la Laguna	12	San Juan la Laguna	12	Diciembre	2023-12-22T00:00:00	2024-11-08T08:00:00	2	Temperatura media	13.6
96370	7	Sololá	717	San Juan la Laguna	12	San Juan la Laguna	12	Diciembre	2023-12-22T00:00:00	2024-11-08T08:00:00	4	Temperatura máxima	13.6
96371	7	Sololá	717	San Juan la Laguna	12	San Juan la Laguna	12	Diciembre	2023-12-22T00:00:00	2024-11-08T08:00:00	3	Temperatura mínima	10.7
96372	7	Sololá	717	San Juan la Laguna	12	San Juan la Laguna	12	Diciembre	2023-12-22T00:00:00	2024-11-08T08:00:00	5	Humedad	72
96373	7	Sololá	717	San Juan la Laguna	12	San Juan la Laguna	12	Diciembre	2023-12-22T00:00:00	2024-11-08T08:00:00	6	Velocidad del viento	4.8
96374	7	Sololá	717	San Juan la Laguna	12	San Juan la Laguna	12	Diciembre	2023-12-22T00:00:00	2024-11-08T08:00:00	7	Dirección del viento	4.83
96375	7	Sololá	717	San Juan la Laguna	12	San Juan la Laguna	12	Diciembre	2023-12-22T00:00:00	2024-11-08T08:00:00	1	Precipitación	0
96376	7	Sololá	717	San Juan la Laguna	12	San Juan la Laguna	12	Diciembre	2023-12-22T00:00:00	2024-11-08T08:00:00	8	Radiación solar	112
96377	7	Sololá	717	San Juan la Laguna	12	San Juan la Laguna	12	Diciembre	2023-12-22T00:00:00	2024-11-08T09:00:00	2	Temperatura media	18.9
96378	7	Sololá	717	San Juan la Laguna	12	San Juan la Laguna	12	Diciembre	2023-12-22T00:00:00	2024-11-08T09:00:00	4	Temperatura máxima	18.9
96379	7	Sololá	717	San Juan la Laguna	12	San Juan la Laguna	12	Diciembre	2023-12-22T00:00:00	2024-11-08T09:00:00	3	Temperatura mínima	13.6
96380	7	Sololá	717	San Juan la Laguna	12	San Juan la Laguna	12	Diciembre	2023-12-22T00:00:00	2024-11-08T09:00:00	5	Humedad	56
96381	7	Sololá	717	San Juan la Laguna	12	San Juan la Laguna	12	Diciembre	2023-12-22T00:00:00	2024-11-08T09:00:00	6	Velocidad del viento	3.2
96382	7	Sololá	717	San Juan la Laguna	12	San Juan la Laguna	12	Diciembre	2023-12-22T00:00:00	2024-11-08T09:00:00	7	Dirección del viento	3.22
96383	7	Sololá	717	San Juan la Laguna	12	San Juan la Laguna	12	Diciembre	2023-12-22T00:00:00	2024-11-08T09:00:00	1	Precipitación	0
96384	7	Sololá	717	San Juan la Laguna	12	San Juan la Laguna	12	Diciembre	2023-12-22T00:00:00	2024-11-08T09:00:00	8	Radiación solar	333
96385	7	Sololá	717	San Juan la Laguna	12	San Juan la Laguna	12	Diciembre	2023-12-22T00:00:00	2024-11-08T10:00:00	2	Temperatura media	20.8
96386	7	Sololá	717	San Juan la Laguna	12	San Juan la Laguna	12	Diciembre	2023-12-22T00:00:00	2024-11-08T10:00:00	4	Temperatura máxima	20.8
96387	7	Sololá	717	San Juan la Laguna	12	San Juan la Laguna	12	Diciembre	2023-12-22T00:00:00	2024-11-08T10:00:00	3	Temperatura mínima	18.9
96388	7	Sololá	717	San Juan la Laguna	12	San Juan la Laguna	12	Diciembre	2023-12-22T00:00:00	2024-11-08T10:00:00	5	Humedad	51
96389	7	Sololá	717	San Juan la Laguna	12	San Juan la Laguna	12	Diciembre	2023-12-22T00:00:00	2024-11-08T10:00:00	6	Velocidad del viento	4.8
96390	7	Sololá	717	San Juan la Laguna	12	San Juan la Laguna	12	Diciembre	2023-12-22T00:00:00	2024-11-08T10:00:00	7	Dirección del viento	4.83
96391	7	Sololá	717	San Juan la Laguna	12	San Juan la Laguna	12	Diciembre	2023-12-22T00:00:00	2024-11-08T10:00:00	1	Precipitación	0
96392	7	Sololá	717	San Juan la Laguna	12	San Juan la Laguna	12	Diciembre	2023-12-22T00:00:00	2024-11-08T10:00:00	8	Radiación solar	528
96393	7	Sololá	717	San Juan la Laguna	12	San Juan la Laguna	12	Diciembre	2023-12-22T00:00:00	2024-11-08T11:00:00	2	Temperatura media	21.7
96394	7	Sololá	717	San Juan la Laguna	12	San Juan la Laguna	12	Diciembre	2023-12-22T00:00:00	2024-11-08T11:00:00	4	Temperatura máxima	21.7
96395	7	Sololá	717	San Juan la Laguna	12	San Juan la Laguna	12	Diciembre	2023-12-22T00:00:00	2024-11-08T11:00:00	3	Temperatura mínima	20.8
96396	7	Sololá	717	San Juan la Laguna	12	San Juan la Laguna	12	Diciembre	2023-12-22T00:00:00	2024-11-08T11:00:00	5	Humedad	52
96397	7	Sololá	717	San Juan la Laguna	12	San Juan la Laguna	12	Diciembre	2023-12-22T00:00:00	2024-11-08T11:00:00	6	Velocidad del viento	9.7
96398	7	Sololá	717	San Juan la Laguna	12	San Juan la Laguna	12	Diciembre	2023-12-22T00:00:00	2024-11-08T11:00:00	7	Dirección del viento	9.66
96399	7	Sololá	717	San Juan la Laguna	12	San Juan la Laguna	12	Diciembre	2023-12-22T00:00:00	2024-11-08T11:00:00	1	Precipitación	0
96400	7	Sololá	717	San Juan la Laguna	12	San Juan la Laguna	12	Diciembre	2023-12-22T00:00:00	2024-11-08T11:00:00	8	Radiación solar	571
96401	7	Sololá	717	San Juan la Laguna	12	San Juan la Laguna	12	Diciembre	2023-12-22T00:00:00	2024-11-08T12:00:00	2	Temperatura media	23.4
96402	7	Sololá	717	San Juan la Laguna	12	San Juan la Laguna	12	Diciembre	2023-12-22T00:00:00	2024-11-08T12:00:00	4	Temperatura máxima	23.4
96403	7	Sololá	717	San Juan la Laguna	12	San Juan la Laguna	12	Diciembre	2023-12-22T00:00:00	2024-11-08T12:00:00	3	Temperatura mínima	21.7
96404	7	Sololá	717	San Juan la Laguna	12	San Juan la Laguna	12	Diciembre	2023-12-22T00:00:00	2024-11-08T12:00:00	5	Humedad	45
96405	7	Sololá	717	San Juan la Laguna	12	San Juan la Laguna	12	Diciembre	2023-12-22T00:00:00	2024-11-08T12:00:00	6	Velocidad del viento	8
96406	7	Sololá	717	San Juan la Laguna	12	San Juan la Laguna	12	Diciembre	2023-12-22T00:00:00	2024-11-08T12:00:00	7	Dirección del viento	8.05
96407	7	Sololá	717	San Juan la Laguna	12	San Juan la Laguna	12	Diciembre	2023-12-22T00:00:00	2024-11-08T12:00:00	1	Precipitación	0
96408	7	Sololá	717	San Juan la Laguna	12	San Juan la Laguna	12	Diciembre	2023-12-22T00:00:00	2024-11-08T12:00:00	8	Radiación solar	705
96409	7	Sololá	717	San Juan la Laguna	12	San Juan la Laguna	12	Diciembre	2023-12-22T00:00:00	2024-11-08T13:00:00	2	Temperatura media	23.9
96410	7	Sololá	717	San Juan la Laguna	12	San Juan la Laguna	12	Diciembre	2023-12-22T00:00:00	2024-11-08T13:00:00	4	Temperatura máxima	24.1
96411	7	Sololá	717	San Juan la Laguna	12	San Juan la Laguna	12	Diciembre	2023-12-22T00:00:00	2024-11-08T13:00:00	3	Temperatura mínima	23.1
96412	7	Sololá	717	San Juan la Laguna	12	San Juan la Laguna	12	Diciembre	2023-12-22T00:00:00	2024-11-08T13:00:00	5	Humedad	48
96413	7	Sololá	717	San Juan la Laguna	12	San Juan la Laguna	12	Diciembre	2023-12-22T00:00:00	2024-11-08T13:00:00	6	Velocidad del viento	8
96414	7	Sololá	717	San Juan la Laguna	12	San Juan la Laguna	12	Diciembre	2023-12-22T00:00:00	2024-11-08T13:00:00	7	Dirección del viento	8.05
96415	7	Sololá	717	San Juan la Laguna	12	San Juan la Laguna	12	Diciembre	2023-12-22T00:00:00	2024-11-08T13:00:00	1	Precipitación	0
96416	7	Sololá	717	San Juan la Laguna	12	San Juan la Laguna	12	Diciembre	2023-12-22T00:00:00	2024-11-08T13:00:00	8	Radiación solar	701
96417	7	Sololá	717	San Juan la Laguna	12	San Juan la Laguna	12	Diciembre	2023-12-22T00:00:00	2024-11-08T14:00:00	2	Temperatura media	24.7
96418	7	Sololá	717	San Juan la Laguna	12	San Juan la Laguna	12	Diciembre	2023-12-22T00:00:00	2024-11-08T14:00:00	4	Temperatura máxima	24.7
96419	7	Sololá	717	San Juan la Laguna	12	San Juan la Laguna	12	Diciembre	2023-12-22T00:00:00	2024-11-08T14:00:00	3	Temperatura mínima	23.8
96420	7	Sololá	717	San Juan la Laguna	12	San Juan la Laguna	12	Diciembre	2023-12-22T00:00:00	2024-11-08T14:00:00	5	Humedad	45
96421	7	Sololá	717	San Juan la Laguna	12	San Juan la Laguna	12	Diciembre	2023-12-22T00:00:00	2024-11-08T14:00:00	6	Velocidad del viento	6.4
96422	7	Sololá	717	San Juan la Laguna	12	San Juan la Laguna	12	Diciembre	2023-12-22T00:00:00	2024-11-08T14:00:00	7	Dirección del viento	6.44
96423	7	Sololá	717	San Juan la Laguna	12	San Juan la Laguna	12	Diciembre	2023-12-22T00:00:00	2024-11-08T14:00:00	1	Precipitación	0
96424	7	Sololá	717	San Juan la Laguna	12	San Juan la Laguna	12	Diciembre	2023-12-22T00:00:00	2024-11-08T14:00:00	8	Radiación solar	688
96425	7	Sololá	717	San Juan la Laguna	12	San Juan la Laguna	12	Diciembre	2023-12-22T00:00:00	2024-11-08T15:00:00	2	Temperatura media	24.3
96426	7	Sololá	717	San Juan la Laguna	12	San Juan la Laguna	12	Diciembre	2023-12-22T00:00:00	2024-11-08T15:00:00	4	Temperatura máxima	24.8
96427	7	Sololá	717	San Juan la Laguna	12	San Juan la Laguna	12	Diciembre	2023-12-22T00:00:00	2024-11-08T15:00:00	3	Temperatura mínima	24.3
96428	7	Sololá	717	San Juan la Laguna	12	San Juan la Laguna	12	Diciembre	2023-12-22T00:00:00	2024-11-08T15:00:00	5	Humedad	54
96429	7	Sololá	717	San Juan la Laguna	12	San Juan la Laguna	12	Diciembre	2023-12-22T00:00:00	2024-11-08T15:00:00	6	Velocidad del viento	4.8
96430	7	Sololá	717	San Juan la Laguna	12	San Juan la Laguna	12	Diciembre	2023-12-22T00:00:00	2024-11-08T15:00:00	7	Dirección del viento	4.83
96431	7	Sololá	717	San Juan la Laguna	12	San Juan la Laguna	12	Diciembre	2023-12-22T00:00:00	2024-11-08T15:00:00	1	Precipitación	0
96432	7	Sololá	717	San Juan la Laguna	12	San Juan la Laguna	12	Diciembre	2023-12-22T00:00:00	2024-11-08T15:00:00	8	Radiación solar	565
96433	7	Sololá	717	San Juan la Laguna	12	San Juan la Laguna	12	Diciembre	2023-12-22T00:00:00	2024-11-08T16:00:00	2	Temperatura media	23.5
96434	7	Sololá	717	San Juan la Laguna	12	San Juan la Laguna	12	Diciembre	2023-12-22T00:00:00	2024-11-08T16:00:00	4	Temperatura máxima	24.4
96435	7	Sololá	717	San Juan la Laguna	12	San Juan la Laguna	12	Diciembre	2023-12-22T00:00:00	2024-11-08T16:00:00	3	Temperatura mínima	23.4
96436	7	Sololá	717	San Juan la Laguna	12	San Juan la Laguna	12	Diciembre	2023-12-22T00:00:00	2024-11-08T16:00:00	5	Humedad	56
96437	7	Sololá	717	San Juan la Laguna	12	San Juan la Laguna	12	Diciembre	2023-12-22T00:00:00	2024-11-08T16:00:00	6	Velocidad del viento	6.4
96438	7	Sololá	717	San Juan la Laguna	12	San Juan la Laguna	12	Diciembre	2023-12-22T00:00:00	2024-11-08T16:00:00	7	Dirección del viento	6.44
96439	7	Sololá	717	San Juan la Laguna	12	San Juan la Laguna	12	Diciembre	2023-12-22T00:00:00	2024-11-08T16:00:00	1	Precipitación	0
96440	7	Sololá	717	San Juan la Laguna	12	San Juan la Laguna	12	Diciembre	2023-12-22T00:00:00	2024-11-08T16:00:00	8	Radiación solar	395
96441	7	Sololá	717	San Juan la Laguna	12	San Juan la Laguna	12	Diciembre	2023-12-22T00:00:00	2024-11-08T17:00:00	2	Temperatura media	21.8
96442	7	Sololá	717	San Juan la Laguna	12	San Juan la Laguna	12	Diciembre	2023-12-22T00:00:00	2024-11-08T17:00:00	4	Temperatura máxima	23.5
96443	7	Sololá	717	San Juan la Laguna	12	San Juan la Laguna	12	Diciembre	2023-12-22T00:00:00	2024-11-08T17:00:00	3	Temperatura mínima	21.8
96444	7	Sololá	717	San Juan la Laguna	12	San Juan la Laguna	12	Diciembre	2023-12-22T00:00:00	2024-11-08T17:00:00	5	Humedad	62
96445	7	Sololá	717	San Juan la Laguna	12	San Juan la Laguna	12	Diciembre	2023-12-22T00:00:00	2024-11-08T17:00:00	6	Velocidad del viento	6.4
96446	7	Sololá	717	San Juan la Laguna	12	San Juan la Laguna	12	Diciembre	2023-12-22T00:00:00	2024-11-08T17:00:00	7	Dirección del viento	6.44
96447	7	Sololá	717	San Juan la Laguna	12	San Juan la Laguna	12	Diciembre	2023-12-22T00:00:00	2024-11-08T17:00:00	1	Precipitación	0
96448	7	Sololá	717	San Juan la Laguna	12	San Juan la Laguna	12	Diciembre	2023-12-22T00:00:00	2024-11-08T17:00:00	8	Radiación solar	119
96449	7	Sololá	717	San Juan la Laguna	12	San Juan la Laguna	12	Diciembre	2023-12-22T00:00:00	2024-11-08T18:00:00	2	Temperatura media	20.7
96450	7	Sololá	717	San Juan la Laguna	12	San Juan la Laguna	12	Diciembre	2023-12-22T00:00:00	2024-11-08T18:00:00	4	Temperatura máxima	21.8
96451	7	Sololá	717	San Juan la Laguna	12	San Juan la Laguna	12	Diciembre	2023-12-22T00:00:00	2024-11-08T18:00:00	3	Temperatura mínima	20.7
96452	7	Sololá	717	San Juan la Laguna	12	San Juan la Laguna	12	Diciembre	2023-12-22T00:00:00	2024-11-08T18:00:00	5	Humedad	63
96453	7	Sololá	717	San Juan la Laguna	12	San Juan la Laguna	12	Diciembre	2023-12-22T00:00:00	2024-11-08T18:00:00	6	Velocidad del viento	6.4
96454	7	Sololá	717	San Juan la Laguna	12	San Juan la Laguna	12	Diciembre	2023-12-22T00:00:00	2024-11-08T18:00:00	7	Dirección del viento	6.44
96455	7	Sololá	717	San Juan la Laguna	12	San Juan la Laguna	12	Diciembre	2023-12-22T00:00:00	2024-11-08T18:00:00	1	Precipitación	0
96456	7	Sololá	717	San Juan la Laguna	12	San Juan la Laguna	12	Diciembre	2023-12-22T00:00:00	2024-11-08T18:00:00	8	Radiación solar	23
96457	7	Sololá	717	San Juan la Laguna	12	San Juan la Laguna	12	Diciembre	2023-12-22T00:00:00	2024-11-08T19:00:00	2	Temperatura media	19.8
96458	7	Sololá	717	San Juan la Laguna	12	San Juan la Laguna	12	Diciembre	2023-12-22T00:00:00	2024-11-08T19:00:00	4	Temperatura máxima	20.7
96459	7	Sololá	717	San Juan la Laguna	12	San Juan la Laguna	12	Diciembre	2023-12-22T00:00:00	2024-11-08T19:00:00	3	Temperatura mínima	19.8
96460	7	Sololá	717	San Juan la Laguna	12	San Juan la Laguna	12	Diciembre	2023-12-22T00:00:00	2024-11-08T19:00:00	5	Humedad	63
96461	7	Sololá	717	San Juan la Laguna	12	San Juan la Laguna	12	Diciembre	2023-12-22T00:00:00	2024-11-08T19:00:00	6	Velocidad del viento	8
96462	7	Sololá	717	San Juan la Laguna	12	San Juan la Laguna	12	Diciembre	2023-12-22T00:00:00	2024-11-08T19:00:00	7	Dirección del viento	8.05
96463	7	Sololá	717	San Juan la Laguna	12	San Juan la Laguna	12	Diciembre	2023-12-22T00:00:00	2024-11-08T19:00:00	1	Precipitación	0
96464	7	Sololá	717	San Juan la Laguna	12	San Juan la Laguna	12	Diciembre	2023-12-22T00:00:00	2024-11-08T19:00:00	8	Radiación solar	0
96465	7	Sololá	717	San Juan la Laguna	12	San Juan la Laguna	12	Diciembre	2023-12-22T00:00:00	2024-11-08T20:00:00	2	Temperatura media	19.3
96466	7	Sololá	717	San Juan la Laguna	12	San Juan la Laguna	12	Diciembre	2023-12-22T00:00:00	2024-11-08T20:00:00	4	Temperatura máxima	19.8
96467	7	Sololá	717	San Juan la Laguna	12	San Juan la Laguna	12	Diciembre	2023-12-22T00:00:00	2024-11-08T20:00:00	3	Temperatura mínima	19.1
96468	7	Sololá	717	San Juan la Laguna	12	San Juan la Laguna	12	Diciembre	2023-12-22T00:00:00	2024-11-08T20:00:00	5	Humedad	66
96469	7	Sololá	717	San Juan la Laguna	12	San Juan la Laguna	12	Diciembre	2023-12-22T00:00:00	2024-11-08T20:00:00	6	Velocidad del viento	4.8
96470	7	Sololá	717	San Juan la Laguna	12	San Juan la Laguna	12	Diciembre	2023-12-22T00:00:00	2024-11-08T20:00:00	7	Dirección del viento	4.83
96471	7	Sololá	717	San Juan la Laguna	12	San Juan la Laguna	12	Diciembre	2023-12-22T00:00:00	2024-11-08T20:00:00	1	Precipitación	0
96472	7	Sololá	717	San Juan la Laguna	12	San Juan la Laguna	12	Diciembre	2023-12-22T00:00:00	2024-11-08T20:00:00	8	Radiación solar	0
96473	7	Sololá	717	San Juan la Laguna	12	San Juan la Laguna	12	Diciembre	2023-12-22T00:00:00	2024-11-08T21:00:00	2	Temperatura media	15.5
96474	7	Sololá	717	San Juan la Laguna	12	San Juan la Laguna	12	Diciembre	2023-12-22T00:00:00	2024-11-08T21:00:00	4	Temperatura máxima	19.3
96475	7	Sololá	717	San Juan la Laguna	12	San Juan la Laguna	12	Diciembre	2023-12-22T00:00:00	2024-11-08T21:00:00	3	Temperatura mínima	15.5
96476	7	Sololá	717	San Juan la Laguna	12	San Juan la Laguna	12	Diciembre	2023-12-22T00:00:00	2024-11-08T21:00:00	5	Humedad	77
96477	7	Sololá	717	San Juan la Laguna	12	San Juan la Laguna	12	Diciembre	2023-12-22T00:00:00	2024-11-08T21:00:00	6	Velocidad del viento	3.2
96478	7	Sololá	717	San Juan la Laguna	12	San Juan la Laguna	12	Diciembre	2023-12-22T00:00:00	2024-11-08T21:00:00	7	Dirección del viento	3.22
96479	7	Sololá	717	San Juan la Laguna	12	San Juan la Laguna	12	Diciembre	2023-12-22T00:00:00	2024-11-08T21:00:00	1	Precipitación	0
96480	7	Sololá	717	San Juan la Laguna	12	San Juan la Laguna	12	Diciembre	2023-12-22T00:00:00	2024-11-08T21:00:00	8	Radiación solar	0
96481	7	Sololá	717	San Juan la Laguna	12	San Juan la Laguna	12	Diciembre	2023-12-22T00:00:00	2024-11-08T22:00:00	2	Temperatura media	14.8
96482	7	Sololá	717	San Juan la Laguna	12	San Juan la Laguna	12	Diciembre	2023-12-22T00:00:00	2024-11-08T22:00:00	4	Temperatura máxima	15.8
96483	7	Sololá	717	San Juan la Laguna	12	San Juan la Laguna	12	Diciembre	2023-12-22T00:00:00	2024-11-08T22:00:00	3	Temperatura mínima	14.8
96484	7	Sololá	717	San Juan la Laguna	12	San Juan la Laguna	12	Diciembre	2023-12-22T00:00:00	2024-11-08T22:00:00	5	Humedad	78
96485	7	Sololá	717	San Juan la Laguna	12	San Juan la Laguna	12	Diciembre	2023-12-22T00:00:00	2024-11-08T22:00:00	6	Velocidad del viento	4.8
96486	7	Sololá	717	San Juan la Laguna	12	San Juan la Laguna	12	Diciembre	2023-12-22T00:00:00	2024-11-08T22:00:00	7	Dirección del viento	4.83
96487	7	Sololá	717	San Juan la Laguna	12	San Juan la Laguna	12	Diciembre	2023-12-22T00:00:00	2024-11-08T22:00:00	1	Precipitación	0
96488	7	Sololá	717	San Juan la Laguna	12	San Juan la Laguna	12	Diciembre	2023-12-22T00:00:00	2024-11-08T22:00:00	8	Radiación solar	0
96489	7	Sololá	717	San Juan la Laguna	12	San Juan la Laguna	12	Diciembre	2023-12-22T00:00:00	2024-11-08T23:00:00	2	Temperatura media	15.1
96490	7	Sololá	717	San Juan la Laguna	12	San Juan la Laguna	12	Diciembre	2023-12-22T00:00:00	2024-11-08T23:00:00	4	Temperatura máxima	15.2
96491	7	Sololá	717	San Juan la Laguna	12	San Juan la Laguna	12	Diciembre	2023-12-22T00:00:00	2024-11-08T23:00:00	3	Temperatura mínima	14.8
96492	7	Sololá	717	San Juan la Laguna	12	San Juan la Laguna	12	Diciembre	2023-12-22T00:00:00	2024-11-08T23:00:00	5	Humedad	76
96493	7	Sololá	717	San Juan la Laguna	12	San Juan la Laguna	12	Diciembre	2023-12-22T00:00:00	2024-11-08T23:00:00	6	Velocidad del viento	4.8
96494	7	Sololá	717	San Juan la Laguna	12	San Juan la Laguna	12	Diciembre	2023-12-22T00:00:00	2024-11-08T23:00:00	7	Dirección del viento	4.83
96495	7	Sololá	717	San Juan la Laguna	12	San Juan la Laguna	12	Diciembre	2023-12-22T00:00:00	2024-11-08T23:00:00	1	Precipitación	0
96496	7	Sololá	717	San Juan la Laguna	12	San Juan la Laguna	12	Diciembre	2023-12-22T00:00:00	2024-11-08T23:00:00	8	Radiación solar	0
96497	7	Sololá	717	San Juan la Laguna	12	San Juan la Laguna	12	Diciembre	2023-12-23T00:00:00	2024-11-08T00:00:00	2	Temperatura media	14.5
96498	7	Sololá	717	San Juan la Laguna	12	San Juan la Laguna	12	Diciembre	2023-12-23T00:00:00	2024-11-08T00:00:00	4	Temperatura máxima	15.1
96499	7	Sololá	717	San Juan la Laguna	12	San Juan la Laguna	12	Diciembre	2023-12-23T00:00:00	2024-11-08T00:00:00	3	Temperatura mínima	14.5
96500	7	Sololá	717	San Juan la Laguna	12	San Juan la Laguna	12	Diciembre	2023-12-23T00:00:00	2024-11-08T00:00:00	5	Humedad	79
96501	7	Sololá	717	San Juan la Laguna	12	San Juan la Laguna	12	Diciembre	2023-12-23T00:00:00	2024-11-08T00:00:00	6	Velocidad del viento	4.8
96502	7	Sololá	717	San Juan la Laguna	12	San Juan la Laguna	12	Diciembre	2023-12-23T00:00:00	2024-11-08T00:00:00	7	Dirección del viento	4.83
96503	7	Sololá	717	San Juan la Laguna	12	San Juan la Laguna	12	Diciembre	2023-12-23T00:00:00	2024-11-08T00:00:00	1	Precipitación	0
96504	7	Sololá	717	San Juan la Laguna	12	San Juan la Laguna	12	Diciembre	2023-12-23T00:00:00	2024-11-08T00:00:00	8	Radiación solar	0
96505	7	Sololá	717	San Juan la Laguna	12	San Juan la Laguna	12	Diciembre	2023-12-23T00:00:00	2024-11-08T01:00:00	2	Temperatura media	14.6
96506	7	Sololá	717	San Juan la Laguna	12	San Juan la Laguna	12	Diciembre	2023-12-23T00:00:00	2024-11-08T01:00:00	4	Temperatura máxima	14.6
96507	7	Sololá	717	San Juan la Laguna	12	San Juan la Laguna	12	Diciembre	2023-12-23T00:00:00	2024-11-08T01:00:00	3	Temperatura mínima	13.8
96508	7	Sololá	717	San Juan la Laguna	12	San Juan la Laguna	12	Diciembre	2023-12-23T00:00:00	2024-11-08T01:00:00	5	Humedad	81
96509	7	Sololá	717	San Juan la Laguna	12	San Juan la Laguna	12	Diciembre	2023-12-23T00:00:00	2024-11-08T01:00:00	6	Velocidad del viento	4.8
96510	7	Sololá	717	San Juan la Laguna	12	San Juan la Laguna	12	Diciembre	2023-12-23T00:00:00	2024-11-08T01:00:00	7	Dirección del viento	4.83
96511	7	Sololá	717	San Juan la Laguna	12	San Juan la Laguna	12	Diciembre	2023-12-23T00:00:00	2024-11-08T01:00:00	1	Precipitación	0
96512	7	Sololá	717	San Juan la Laguna	12	San Juan la Laguna	12	Diciembre	2023-12-23T00:00:00	2024-11-08T01:00:00	8	Radiación solar	0
96513	7	Sololá	717	San Juan la Laguna	12	San Juan la Laguna	12	Diciembre	2023-12-23T00:00:00	2024-11-08T02:00:00	2	Temperatura media	14.6
96514	7	Sololá	717	San Juan la Laguna	12	San Juan la Laguna	12	Diciembre	2023-12-23T00:00:00	2024-11-08T02:00:00	4	Temperatura máxima	15.1
96515	7	Sololá	717	San Juan la Laguna	12	San Juan la Laguna	12	Diciembre	2023-12-23T00:00:00	2024-11-08T02:00:00	3	Temperatura mínima	14.6
96516	7	Sololá	717	San Juan la Laguna	12	San Juan la Laguna	12	Diciembre	2023-12-23T00:00:00	2024-11-08T02:00:00	5	Humedad	79
96517	7	Sololá	717	San Juan la Laguna	12	San Juan la Laguna	12	Diciembre	2023-12-23T00:00:00	2024-11-08T02:00:00	6	Velocidad del viento	4.8
96518	7	Sololá	717	San Juan la Laguna	12	San Juan la Laguna	12	Diciembre	2023-12-23T00:00:00	2024-11-08T02:00:00	7	Dirección del viento	4.83
96519	7	Sololá	717	San Juan la Laguna	12	San Juan la Laguna	12	Diciembre	2023-12-23T00:00:00	2024-11-08T02:00:00	1	Precipitación	0
96520	7	Sololá	717	San Juan la Laguna	12	San Juan la Laguna	12	Diciembre	2023-12-23T00:00:00	2024-11-08T02:00:00	8	Radiación solar	0
96521	7	Sololá	717	San Juan la Laguna	12	San Juan la Laguna	12	Diciembre	2023-12-23T00:00:00	2024-11-08T03:00:00	2	Temperatura media	14.2
96522	7	Sololá	717	San Juan la Laguna	12	San Juan la Laguna	12	Diciembre	2023-12-23T00:00:00	2024-11-08T03:00:00	4	Temperatura máxima	14.6
96523	7	Sololá	717	San Juan la Laguna	12	San Juan la Laguna	12	Diciembre	2023-12-23T00:00:00	2024-11-08T03:00:00	3	Temperatura mínima	14
96524	7	Sololá	717	San Juan la Laguna	12	San Juan la Laguna	12	Diciembre	2023-12-23T00:00:00	2024-11-08T03:00:00	5	Humedad	81
96525	7	Sololá	717	San Juan la Laguna	12	San Juan la Laguna	12	Diciembre	2023-12-23T00:00:00	2024-11-08T03:00:00	6	Velocidad del viento	4.8
96526	7	Sololá	717	San Juan la Laguna	12	San Juan la Laguna	12	Diciembre	2023-12-23T00:00:00	2024-11-08T03:00:00	7	Dirección del viento	4.83
96527	7	Sololá	717	San Juan la Laguna	12	San Juan la Laguna	12	Diciembre	2023-12-23T00:00:00	2024-11-08T03:00:00	1	Precipitación	0
96528	7	Sololá	717	San Juan la Laguna	12	San Juan la Laguna	12	Diciembre	2023-12-23T00:00:00	2024-11-08T03:00:00	8	Radiación solar	0
96529	7	Sololá	717	San Juan la Laguna	12	San Juan la Laguna	12	Diciembre	2023-12-23T00:00:00	2024-11-08T04:00:00	2	Temperatura media	13.6
96530	7	Sololá	717	San Juan la Laguna	12	San Juan la Laguna	12	Diciembre	2023-12-23T00:00:00	2024-11-08T04:00:00	4	Temperatura máxima	14.2
96531	7	Sololá	717	San Juan la Laguna	12	San Juan la Laguna	12	Diciembre	2023-12-23T00:00:00	2024-11-08T04:00:00	3	Temperatura mínima	13.5
96532	7	Sololá	717	San Juan la Laguna	12	San Juan la Laguna	12	Diciembre	2023-12-23T00:00:00	2024-11-08T04:00:00	5	Humedad	81
96533	7	Sololá	717	San Juan la Laguna	12	San Juan la Laguna	12	Diciembre	2023-12-23T00:00:00	2024-11-08T04:00:00	6	Velocidad del viento	6.4
96534	7	Sololá	717	San Juan la Laguna	12	San Juan la Laguna	12	Diciembre	2023-12-23T00:00:00	2024-11-08T04:00:00	7	Dirección del viento	6.44
96535	7	Sololá	717	San Juan la Laguna	12	San Juan la Laguna	12	Diciembre	2023-12-23T00:00:00	2024-11-08T04:00:00	1	Precipitación	0
96536	7	Sololá	717	San Juan la Laguna	12	San Juan la Laguna	12	Diciembre	2023-12-23T00:00:00	2024-11-08T04:00:00	8	Radiación solar	0
96537	7	Sololá	717	San Juan la Laguna	12	San Juan la Laguna	12	Diciembre	2023-12-23T00:00:00	2024-11-08T05:00:00	2	Temperatura media	13.9
96538	7	Sololá	717	San Juan la Laguna	12	San Juan la Laguna	12	Diciembre	2023-12-23T00:00:00	2024-11-08T05:00:00	4	Temperatura máxima	14.1
96539	7	Sololá	717	San Juan la Laguna	12	San Juan la Laguna	12	Diciembre	2023-12-23T00:00:00	2024-11-08T05:00:00	3	Temperatura mínima	13.6
96540	7	Sololá	717	San Juan la Laguna	12	San Juan la Laguna	12	Diciembre	2023-12-23T00:00:00	2024-11-08T05:00:00	5	Humedad	82
96541	7	Sololá	717	San Juan la Laguna	12	San Juan la Laguna	12	Diciembre	2023-12-23T00:00:00	2024-11-08T05:00:00	6	Velocidad del viento	4.8
96542	7	Sololá	717	San Juan la Laguna	12	San Juan la Laguna	12	Diciembre	2023-12-23T00:00:00	2024-11-08T05:00:00	7	Dirección del viento	4.83
96543	7	Sololá	717	San Juan la Laguna	12	San Juan la Laguna	12	Diciembre	2023-12-23T00:00:00	2024-11-08T05:00:00	1	Precipitación	0
96544	7	Sololá	717	San Juan la Laguna	12	San Juan la Laguna	12	Diciembre	2023-12-23T00:00:00	2024-11-08T05:00:00	8	Radiación solar	0
96545	7	Sololá	717	San Juan la Laguna	12	San Juan la Laguna	12	Diciembre	2023-12-23T00:00:00	2024-11-08T06:00:00	2	Temperatura media	13.5
96546	7	Sololá	717	San Juan la Laguna	12	San Juan la Laguna	12	Diciembre	2023-12-23T00:00:00	2024-11-08T06:00:00	4	Temperatura máxima	14.1
96547	7	Sololá	717	San Juan la Laguna	12	San Juan la Laguna	12	Diciembre	2023-12-23T00:00:00	2024-11-08T06:00:00	3	Temperatura mínima	13.5
96548	7	Sololá	717	San Juan la Laguna	12	San Juan la Laguna	12	Diciembre	2023-12-23T00:00:00	2024-11-08T06:00:00	5	Humedad	84
96549	7	Sololá	717	San Juan la Laguna	12	San Juan la Laguna	12	Diciembre	2023-12-23T00:00:00	2024-11-08T06:00:00	6	Velocidad del viento	4.8
96550	7	Sololá	717	San Juan la Laguna	12	San Juan la Laguna	12	Diciembre	2023-12-23T00:00:00	2024-11-08T06:00:00	7	Dirección del viento	4.83
96551	7	Sololá	717	San Juan la Laguna	12	San Juan la Laguna	12	Diciembre	2023-12-23T00:00:00	2024-11-08T06:00:00	1	Precipitación	0
96552	7	Sololá	717	San Juan la Laguna	12	San Juan la Laguna	12	Diciembre	2023-12-23T00:00:00	2024-11-08T06:00:00	8	Radiación solar	0
96553	7	Sololá	717	San Juan la Laguna	12	San Juan la Laguna	12	Diciembre	2023-12-23T00:00:00	2024-11-08T07:00:00	2	Temperatura media	13.4
96554	7	Sololá	717	San Juan la Laguna	12	San Juan la Laguna	12	Diciembre	2023-12-23T00:00:00	2024-11-08T07:00:00	4	Temperatura máxima	13.6
96555	7	Sololá	717	San Juan la Laguna	12	San Juan la Laguna	12	Diciembre	2023-12-23T00:00:00	2024-11-08T07:00:00	3	Temperatura mínima	13.2
96556	7	Sololá	717	San Juan la Laguna	12	San Juan la Laguna	12	Diciembre	2023-12-23T00:00:00	2024-11-08T07:00:00	5	Humedad	83
96557	7	Sololá	717	San Juan la Laguna	12	San Juan la Laguna	12	Diciembre	2023-12-23T00:00:00	2024-11-08T07:00:00	6	Velocidad del viento	4.8
96558	7	Sololá	717	San Juan la Laguna	12	San Juan la Laguna	12	Diciembre	2023-12-23T00:00:00	2024-11-08T07:00:00	7	Dirección del viento	4.83
96559	7	Sololá	717	San Juan la Laguna	12	San Juan la Laguna	12	Diciembre	2023-12-23T00:00:00	2024-11-08T07:00:00	1	Precipitación	0
96560	7	Sololá	717	San Juan la Laguna	12	San Juan la Laguna	12	Diciembre	2023-12-23T00:00:00	2024-11-08T07:00:00	8	Radiación solar	5
96561	7	Sololá	717	San Juan la Laguna	12	San Juan la Laguna	12	Diciembre	2023-12-23T00:00:00	2024-11-08T08:00:00	2	Temperatura media	16.2
96562	7	Sololá	717	San Juan la Laguna	12	San Juan la Laguna	12	Diciembre	2023-12-23T00:00:00	2024-11-08T08:00:00	4	Temperatura máxima	16.2
96563	7	Sololá	717	San Juan la Laguna	12	San Juan la Laguna	12	Diciembre	2023-12-23T00:00:00	2024-11-08T08:00:00	3	Temperatura mínima	13.4
96564	7	Sololá	717	San Juan la Laguna	12	San Juan la Laguna	12	Diciembre	2023-12-23T00:00:00	2024-11-08T08:00:00	5	Humedad	78
96565	7	Sololá	717	San Juan la Laguna	12	San Juan la Laguna	12	Diciembre	2023-12-23T00:00:00	2024-11-08T08:00:00	6	Velocidad del viento	4.8
96566	7	Sololá	717	San Juan la Laguna	12	San Juan la Laguna	12	Diciembre	2023-12-23T00:00:00	2024-11-08T08:00:00	7	Dirección del viento	4.83
96567	7	Sololá	717	San Juan la Laguna	12	San Juan la Laguna	12	Diciembre	2023-12-23T00:00:00	2024-11-08T08:00:00	1	Precipitación	0
96568	7	Sololá	717	San Juan la Laguna	12	San Juan la Laguna	12	Diciembre	2023-12-23T00:00:00	2024-11-08T08:00:00	8	Radiación solar	128
96569	7	Sololá	717	San Juan la Laguna	12	San Juan la Laguna	12	Diciembre	2023-12-23T00:00:00	2024-11-08T09:00:00	2	Temperatura media	21.1
96570	7	Sololá	717	San Juan la Laguna	12	San Juan la Laguna	12	Diciembre	2023-12-23T00:00:00	2024-11-08T09:00:00	4	Temperatura máxima	21.2
96571	7	Sololá	717	San Juan la Laguna	12	San Juan la Laguna	12	Diciembre	2023-12-23T00:00:00	2024-11-08T09:00:00	3	Temperatura mínima	16.2
96572	7	Sololá	717	San Juan la Laguna	12	San Juan la Laguna	12	Diciembre	2023-12-23T00:00:00	2024-11-08T09:00:00	5	Humedad	64
96573	7	Sololá	717	San Juan la Laguna	12	San Juan la Laguna	12	Diciembre	2023-12-23T00:00:00	2024-11-08T09:00:00	6	Velocidad del viento	1.6
96574	7	Sololá	717	San Juan la Laguna	12	San Juan la Laguna	12	Diciembre	2023-12-23T00:00:00	2024-11-08T09:00:00	7	Dirección del viento	1.61
96575	7	Sololá	717	San Juan la Laguna	12	San Juan la Laguna	12	Diciembre	2023-12-23T00:00:00	2024-11-08T09:00:00	1	Precipitación	0
96576	7	Sololá	717	San Juan la Laguna	12	San Juan la Laguna	12	Diciembre	2023-12-23T00:00:00	2024-11-08T09:00:00	8	Radiación solar	346
96577	7	Sololá	717	San Juan la Laguna	12	San Juan la Laguna	12	Diciembre	2023-12-23T00:00:00	2024-11-08T10:00:00	2	Temperatura media	20.7
96578	7	Sololá	717	San Juan la Laguna	12	San Juan la Laguna	12	Diciembre	2023-12-23T00:00:00	2024-11-08T10:00:00	4	Temperatura máxima	21.1
96579	7	Sololá	717	San Juan la Laguna	12	San Juan la Laguna	12	Diciembre	2023-12-23T00:00:00	2024-11-08T10:00:00	3	Temperatura mínima	20
96580	7	Sololá	717	San Juan la Laguna	12	San Juan la Laguna	12	Diciembre	2023-12-23T00:00:00	2024-11-08T10:00:00	5	Humedad	63
96581	7	Sololá	717	San Juan la Laguna	12	San Juan la Laguna	12	Diciembre	2023-12-23T00:00:00	2024-11-08T10:00:00	6	Velocidad del viento	6.4
96582	7	Sololá	717	San Juan la Laguna	12	San Juan la Laguna	12	Diciembre	2023-12-23T00:00:00	2024-11-08T10:00:00	7	Dirección del viento	6.44
96583	7	Sololá	717	San Juan la Laguna	12	San Juan la Laguna	12	Diciembre	2023-12-23T00:00:00	2024-11-08T10:00:00	1	Precipitación	0
96584	7	Sololá	717	San Juan la Laguna	12	San Juan la Laguna	12	Diciembre	2023-12-23T00:00:00	2024-11-08T10:00:00	8	Radiación solar	526
96585	7	Sololá	717	San Juan la Laguna	12	San Juan la Laguna	12	Diciembre	2023-12-23T00:00:00	2024-11-08T11:00:00	2	Temperatura media	22.8
96586	7	Sololá	717	San Juan la Laguna	12	San Juan la Laguna	12	Diciembre	2023-12-23T00:00:00	2024-11-08T11:00:00	4	Temperatura máxima	22.9
96587	7	Sololá	717	San Juan la Laguna	12	San Juan la Laguna	12	Diciembre	2023-12-23T00:00:00	2024-11-08T11:00:00	3	Temperatura mínima	20.6
96588	7	Sololá	717	San Juan la Laguna	12	San Juan la Laguna	12	Diciembre	2023-12-23T00:00:00	2024-11-08T11:00:00	5	Humedad	56
96589	7	Sololá	717	San Juan la Laguna	12	San Juan la Laguna	12	Diciembre	2023-12-23T00:00:00	2024-11-08T11:00:00	6	Velocidad del viento	4.8
96590	7	Sololá	717	San Juan la Laguna	12	San Juan la Laguna	12	Diciembre	2023-12-23T00:00:00	2024-11-08T11:00:00	7	Dirección del viento	4.83
96591	7	Sololá	717	San Juan la Laguna	12	San Juan la Laguna	12	Diciembre	2023-12-23T00:00:00	2024-11-08T11:00:00	1	Precipitación	0
96592	7	Sololá	717	San Juan la Laguna	12	San Juan la Laguna	12	Diciembre	2023-12-23T00:00:00	2024-11-08T11:00:00	8	Radiación solar	571
96593	7	Sololá	717	San Juan la Laguna	12	San Juan la Laguna	12	Diciembre	2023-12-23T00:00:00	2024-11-08T12:00:00	2	Temperatura media	22.8
96594	7	Sololá	717	San Juan la Laguna	12	San Juan la Laguna	12	Diciembre	2023-12-23T00:00:00	2024-11-08T12:00:00	4	Temperatura máxima	23
96595	7	Sololá	717	San Juan la Laguna	12	San Juan la Laguna	12	Diciembre	2023-12-23T00:00:00	2024-11-08T12:00:00	3	Temperatura mínima	22.6
96596	7	Sololá	717	San Juan la Laguna	12	San Juan la Laguna	12	Diciembre	2023-12-23T00:00:00	2024-11-08T12:00:00	5	Humedad	56
96597	7	Sololá	717	San Juan la Laguna	12	San Juan la Laguna	12	Diciembre	2023-12-23T00:00:00	2024-11-08T12:00:00	6	Velocidad del viento	4.8
96598	7	Sololá	717	San Juan la Laguna	12	San Juan la Laguna	12	Diciembre	2023-12-23T00:00:00	2024-11-08T12:00:00	7	Dirección del viento	4.83
96599	7	Sololá	717	San Juan la Laguna	12	San Juan la Laguna	12	Diciembre	2023-12-23T00:00:00	2024-11-08T12:00:00	1	Precipitación	0
96600	7	Sololá	717	San Juan la Laguna	12	San Juan la Laguna	12	Diciembre	2023-12-23T00:00:00	2024-11-08T12:00:00	8	Radiación solar	308
96601	7	Sololá	717	San Juan la Laguna	12	San Juan la Laguna	12	Diciembre	2023-12-23T00:00:00	2024-11-08T13:00:00	2	Temperatura media	23.2
96602	7	Sololá	717	San Juan la Laguna	12	San Juan la Laguna	12	Diciembre	2023-12-23T00:00:00	2024-11-08T13:00:00	4	Temperatura máxima	24.3
96603	7	Sololá	717	San Juan la Laguna	12	San Juan la Laguna	12	Diciembre	2023-12-23T00:00:00	2024-11-08T13:00:00	3	Temperatura mínima	22.8
96604	7	Sololá	717	San Juan la Laguna	12	San Juan la Laguna	12	Diciembre	2023-12-23T00:00:00	2024-11-08T13:00:00	5	Humedad	56
96605	7	Sololá	717	San Juan la Laguna	12	San Juan la Laguna	12	Diciembre	2023-12-23T00:00:00	2024-11-08T13:00:00	6	Velocidad del viento	4.8
96606	7	Sololá	717	San Juan la Laguna	12	San Juan la Laguna	12	Diciembre	2023-12-23T00:00:00	2024-11-08T13:00:00	7	Dirección del viento	4.83
96607	7	Sololá	717	San Juan la Laguna	12	San Juan la Laguna	12	Diciembre	2023-12-23T00:00:00	2024-11-08T13:00:00	1	Precipitación	0
96608	7	Sololá	717	San Juan la Laguna	12	San Juan la Laguna	12	Diciembre	2023-12-23T00:00:00	2024-11-08T13:00:00	8	Radiación solar	469
96609	7	Sololá	717	San Juan la Laguna	12	San Juan la Laguna	12	Diciembre	2023-12-23T00:00:00	2024-11-08T14:00:00	2	Temperatura media	23.5
96610	7	Sololá	717	San Juan la Laguna	12	San Juan la Laguna	12	Diciembre	2023-12-23T00:00:00	2024-11-08T14:00:00	4	Temperatura máxima	23.9
96611	7	Sololá	717	San Juan la Laguna	12	San Juan la Laguna	12	Diciembre	2023-12-23T00:00:00	2024-11-08T14:00:00	3	Temperatura mínima	22.9
96612	7	Sololá	717	San Juan la Laguna	12	San Juan la Laguna	12	Diciembre	2023-12-23T00:00:00	2024-11-08T14:00:00	5	Humedad	64
96613	7	Sololá	717	San Juan la Laguna	12	San Juan la Laguna	12	Diciembre	2023-12-23T00:00:00	2024-11-08T14:00:00	6	Velocidad del viento	9.7
96614	7	Sololá	717	San Juan la Laguna	12	San Juan la Laguna	12	Diciembre	2023-12-23T00:00:00	2024-11-08T14:00:00	7	Dirección del viento	9.66
96615	7	Sololá	717	San Juan la Laguna	12	San Juan la Laguna	12	Diciembre	2023-12-23T00:00:00	2024-11-08T14:00:00	1	Precipitación	0
96616	7	Sololá	717	San Juan la Laguna	12	San Juan la Laguna	12	Diciembre	2023-12-23T00:00:00	2024-11-08T14:00:00	8	Radiación solar	589
96617	7	Sololá	717	San Juan la Laguna	12	San Juan la Laguna	12	Diciembre	2023-12-23T00:00:00	2024-11-08T15:00:00	2	Temperatura media	20.7
96618	7	Sololá	717	San Juan la Laguna	12	San Juan la Laguna	12	Diciembre	2023-12-23T00:00:00	2024-11-08T15:00:00	4	Temperatura máxima	23.5
96619	7	Sololá	717	San Juan la Laguna	12	San Juan la Laguna	12	Diciembre	2023-12-23T00:00:00	2024-11-08T15:00:00	3	Temperatura mínima	20.7
96620	7	Sololá	717	San Juan la Laguna	12	San Juan la Laguna	12	Diciembre	2023-12-23T00:00:00	2024-11-08T15:00:00	5	Humedad	74
96621	7	Sololá	717	San Juan la Laguna	12	San Juan la Laguna	12	Diciembre	2023-12-23T00:00:00	2024-11-08T15:00:00	6	Velocidad del viento	14.5
96622	7	Sololá	717	San Juan la Laguna	12	San Juan la Laguna	12	Diciembre	2023-12-23T00:00:00	2024-11-08T15:00:00	7	Dirección del viento	14.48
96623	7	Sololá	717	San Juan la Laguna	12	San Juan la Laguna	12	Diciembre	2023-12-23T00:00:00	2024-11-08T15:00:00	1	Precipitación	0
96624	7	Sololá	717	San Juan la Laguna	12	San Juan la Laguna	12	Diciembre	2023-12-23T00:00:00	2024-11-08T15:00:00	8	Radiación solar	296
96625	7	Sololá	717	San Juan la Laguna	12	San Juan la Laguna	12	Diciembre	2023-12-23T00:00:00	2024-11-08T16:00:00	2	Temperatura media	20.2
96626	7	Sololá	717	San Juan la Laguna	12	San Juan la Laguna	12	Diciembre	2023-12-23T00:00:00	2024-11-08T16:00:00	4	Temperatura máxima	20.9
96627	7	Sololá	717	San Juan la Laguna	12	San Juan la Laguna	12	Diciembre	2023-12-23T00:00:00	2024-11-08T16:00:00	3	Temperatura mínima	20.2
96628	7	Sololá	717	San Juan la Laguna	12	San Juan la Laguna	12	Diciembre	2023-12-23T00:00:00	2024-11-08T16:00:00	5	Humedad	75
96629	7	Sololá	717	San Juan la Laguna	12	San Juan la Laguna	12	Diciembre	2023-12-23T00:00:00	2024-11-08T16:00:00	6	Velocidad del viento	14.5
96630	7	Sololá	717	San Juan la Laguna	12	San Juan la Laguna	12	Diciembre	2023-12-23T00:00:00	2024-11-08T16:00:00	7	Dirección del viento	14.48
96631	7	Sololá	717	San Juan la Laguna	12	San Juan la Laguna	12	Diciembre	2023-12-23T00:00:00	2024-11-08T16:00:00	1	Precipitación	0
96632	7	Sololá	717	San Juan la Laguna	12	San Juan la Laguna	12	Diciembre	2023-12-23T00:00:00	2024-11-08T16:00:00	8	Radiación solar	244
96633	7	Sololá	717	San Juan la Laguna	12	San Juan la Laguna	12	Diciembre	2023-12-23T00:00:00	2024-11-08T17:00:00	2	Temperatura media	19.6
96634	7	Sololá	717	San Juan la Laguna	12	San Juan la Laguna	12	Diciembre	2023-12-23T00:00:00	2024-11-08T17:00:00	4	Temperatura máxima	20.2
96635	7	Sololá	717	San Juan la Laguna	12	San Juan la Laguna	12	Diciembre	2023-12-23T00:00:00	2024-11-08T17:00:00	3	Temperatura mínima	19.6
96636	7	Sololá	717	San Juan la Laguna	12	San Juan la Laguna	12	Diciembre	2023-12-23T00:00:00	2024-11-08T17:00:00	5	Humedad	76
96637	7	Sololá	717	San Juan la Laguna	12	San Juan la Laguna	12	Diciembre	2023-12-23T00:00:00	2024-11-08T17:00:00	6	Velocidad del viento	11.3
96638	7	Sololá	717	San Juan la Laguna	12	San Juan la Laguna	12	Diciembre	2023-12-23T00:00:00	2024-11-08T17:00:00	7	Dirección del viento	11.27
96639	7	Sololá	717	San Juan la Laguna	12	San Juan la Laguna	12	Diciembre	2023-12-23T00:00:00	2024-11-08T17:00:00	1	Precipitación	0
96640	7	Sololá	717	San Juan la Laguna	12	San Juan la Laguna	12	Diciembre	2023-12-23T00:00:00	2024-11-08T17:00:00	8	Radiación solar	117
96641	7	Sololá	717	San Juan la Laguna	12	San Juan la Laguna	12	Diciembre	2023-12-23T00:00:00	2024-11-08T18:00:00	2	Temperatura media	18.8
96642	7	Sololá	717	San Juan la Laguna	12	San Juan la Laguna	12	Diciembre	2023-12-23T00:00:00	2024-11-08T18:00:00	4	Temperatura máxima	19.8
96643	7	Sololá	717	San Juan la Laguna	12	San Juan la Laguna	12	Diciembre	2023-12-23T00:00:00	2024-11-08T18:00:00	3	Temperatura mínima	18.8
96644	7	Sololá	717	San Juan la Laguna	12	San Juan la Laguna	12	Diciembre	2023-12-23T00:00:00	2024-11-08T18:00:00	5	Humedad	79
96645	7	Sololá	717	San Juan la Laguna	12	San Juan la Laguna	12	Diciembre	2023-12-23T00:00:00	2024-11-08T18:00:00	6	Velocidad del viento	4.8
96646	7	Sololá	717	San Juan la Laguna	12	San Juan la Laguna	12	Diciembre	2023-12-23T00:00:00	2024-11-08T18:00:00	7	Dirección del viento	4.83
96647	7	Sololá	717	San Juan la Laguna	12	San Juan la Laguna	12	Diciembre	2023-12-23T00:00:00	2024-11-08T18:00:00	1	Precipitación	0
96648	7	Sololá	717	San Juan la Laguna	12	San Juan la Laguna	12	Diciembre	2023-12-23T00:00:00	2024-11-08T18:00:00	8	Radiación solar	28
96649	7	Sololá	717	San Juan la Laguna	12	San Juan la Laguna	12	Diciembre	2023-12-23T00:00:00	2024-11-08T19:00:00	2	Temperatura media	17
96650	7	Sololá	717	San Juan la Laguna	12	San Juan la Laguna	12	Diciembre	2023-12-23T00:00:00	2024-11-08T19:00:00	4	Temperatura máxima	18.8
96651	7	Sololá	717	San Juan la Laguna	12	San Juan la Laguna	12	Diciembre	2023-12-23T00:00:00	2024-11-08T19:00:00	3	Temperatura mínima	17
96652	7	Sololá	717	San Juan la Laguna	12	San Juan la Laguna	12	Diciembre	2023-12-23T00:00:00	2024-11-08T19:00:00	5	Humedad	85
96653	7	Sololá	717	San Juan la Laguna	12	San Juan la Laguna	12	Diciembre	2023-12-23T00:00:00	2024-11-08T19:00:00	6	Velocidad del viento	3.2
96654	7	Sololá	717	San Juan la Laguna	12	San Juan la Laguna	12	Diciembre	2023-12-23T00:00:00	2024-11-08T19:00:00	7	Dirección del viento	3.22
96655	7	Sololá	717	San Juan la Laguna	12	San Juan la Laguna	12	Diciembre	2023-12-23T00:00:00	2024-11-08T19:00:00	1	Precipitación	0
96656	7	Sololá	717	San Juan la Laguna	12	San Juan la Laguna	12	Diciembre	2023-12-23T00:00:00	2024-11-08T19:00:00	8	Radiación solar	0
96657	7	Sololá	717	San Juan la Laguna	12	San Juan la Laguna	12	Diciembre	2023-12-23T00:00:00	2024-11-08T20:00:00	2	Temperatura media	16.5
96658	7	Sololá	717	San Juan la Laguna	12	San Juan la Laguna	12	Diciembre	2023-12-23T00:00:00	2024-11-08T20:00:00	4	Temperatura máxima	17.1
96659	7	Sololá	717	San Juan la Laguna	12	San Juan la Laguna	12	Diciembre	2023-12-23T00:00:00	2024-11-08T20:00:00	3	Temperatura mínima	16.5
96660	7	Sololá	717	San Juan la Laguna	12	San Juan la Laguna	12	Diciembre	2023-12-23T00:00:00	2024-11-08T20:00:00	5	Humedad	86
96661	7	Sololá	717	San Juan la Laguna	12	San Juan la Laguna	12	Diciembre	2023-12-23T00:00:00	2024-11-08T20:00:00	6	Velocidad del viento	3.2
96662	7	Sololá	717	San Juan la Laguna	12	San Juan la Laguna	12	Diciembre	2023-12-23T00:00:00	2024-11-08T20:00:00	7	Dirección del viento	3.22
96663	7	Sololá	717	San Juan la Laguna	12	San Juan la Laguna	12	Diciembre	2023-12-23T00:00:00	2024-11-08T20:00:00	1	Precipitación	0
96664	7	Sololá	717	San Juan la Laguna	12	San Juan la Laguna	12	Diciembre	2023-12-23T00:00:00	2024-11-08T20:00:00	8	Radiación solar	0
96665	7	Sololá	717	San Juan la Laguna	12	San Juan la Laguna	12	Diciembre	2023-12-23T00:00:00	2024-11-08T21:00:00	2	Temperatura media	16.1
96666	7	Sololá	717	San Juan la Laguna	12	San Juan la Laguna	12	Diciembre	2023-12-23T00:00:00	2024-11-08T21:00:00	4	Temperatura máxima	16.5
96667	7	Sololá	717	San Juan la Laguna	12	San Juan la Laguna	12	Diciembre	2023-12-23T00:00:00	2024-11-08T21:00:00	3	Temperatura mínima	16.1
96668	7	Sololá	717	San Juan la Laguna	12	San Juan la Laguna	12	Diciembre	2023-12-23T00:00:00	2024-11-08T21:00:00	5	Humedad	83
96669	7	Sololá	717	San Juan la Laguna	12	San Juan la Laguna	12	Diciembre	2023-12-23T00:00:00	2024-11-08T21:00:00	6	Velocidad del viento	3.2
96670	7	Sololá	717	San Juan la Laguna	12	San Juan la Laguna	12	Diciembre	2023-12-23T00:00:00	2024-11-08T21:00:00	7	Dirección del viento	3.22
96671	7	Sololá	717	San Juan la Laguna	12	San Juan la Laguna	12	Diciembre	2023-12-23T00:00:00	2024-11-08T21:00:00	1	Precipitación	0
96672	7	Sololá	717	San Juan la Laguna	12	San Juan la Laguna	12	Diciembre	2023-12-23T00:00:00	2024-11-08T21:00:00	8	Radiación solar	0
96673	7	Sololá	717	San Juan la Laguna	12	San Juan la Laguna	12	Diciembre	2023-12-23T00:00:00	2024-11-08T22:00:00	2	Temperatura media	15.6
96674	7	Sololá	717	San Juan la Laguna	12	San Juan la Laguna	12	Diciembre	2023-12-23T00:00:00	2024-11-08T22:00:00	4	Temperatura máxima	16.1
96675	7	Sololá	717	San Juan la Laguna	12	San Juan la Laguna	12	Diciembre	2023-12-23T00:00:00	2024-11-08T22:00:00	3	Temperatura mínima	15.6
96676	7	Sololá	717	San Juan la Laguna	12	San Juan la Laguna	12	Diciembre	2023-12-23T00:00:00	2024-11-08T22:00:00	5	Humedad	82
96677	7	Sololá	717	San Juan la Laguna	12	San Juan la Laguna	12	Diciembre	2023-12-23T00:00:00	2024-11-08T22:00:00	6	Velocidad del viento	4.8
96678	7	Sololá	717	San Juan la Laguna	12	San Juan la Laguna	12	Diciembre	2023-12-23T00:00:00	2024-11-08T22:00:00	7	Dirección del viento	4.83
96679	7	Sololá	717	San Juan la Laguna	12	San Juan la Laguna	12	Diciembre	2023-12-23T00:00:00	2024-11-08T22:00:00	1	Precipitación	0
96680	7	Sololá	717	San Juan la Laguna	12	San Juan la Laguna	12	Diciembre	2023-12-23T00:00:00	2024-11-08T22:00:00	8	Radiación solar	0
96681	7	Sololá	717	San Juan la Laguna	12	San Juan la Laguna	12	Diciembre	2023-12-23T00:00:00	2024-11-08T23:00:00	2	Temperatura media	15.3
96682	7	Sololá	717	San Juan la Laguna	12	San Juan la Laguna	12	Diciembre	2023-12-23T00:00:00	2024-11-08T23:00:00	4	Temperatura máxima	15.6
96683	7	Sololá	717	San Juan la Laguna	12	San Juan la Laguna	12	Diciembre	2023-12-23T00:00:00	2024-11-08T23:00:00	3	Temperatura mínima	15.3
96684	7	Sololá	717	San Juan la Laguna	12	San Juan la Laguna	12	Diciembre	2023-12-23T00:00:00	2024-11-08T23:00:00	5	Humedad	82
96685	7	Sololá	717	San Juan la Laguna	12	San Juan la Laguna	12	Diciembre	2023-12-23T00:00:00	2024-11-08T23:00:00	6	Velocidad del viento	4.8
96686	7	Sololá	717	San Juan la Laguna	12	San Juan la Laguna	12	Diciembre	2023-12-23T00:00:00	2024-11-08T23:00:00	7	Dirección del viento	4.83
96687	7	Sololá	717	San Juan la Laguna	12	San Juan la Laguna	12	Diciembre	2023-12-23T00:00:00	2024-11-08T23:00:00	1	Precipitación	0
96688	7	Sololá	717	San Juan la Laguna	12	San Juan la Laguna	12	Diciembre	2023-12-23T00:00:00	2024-11-08T23:00:00	8	Radiación solar	0
96689	7	Sololá	717	San Juan la Laguna	12	San Juan la Laguna	12	Diciembre	2023-12-24T00:00:00	2024-11-08T00:00:00	2	Temperatura media	15.6
96690	7	Sololá	717	San Juan la Laguna	12	San Juan la Laguna	12	Diciembre	2023-12-24T00:00:00	2024-11-08T00:00:00	4	Temperatura máxima	15.7
96691	7	Sololá	717	San Juan la Laguna	12	San Juan la Laguna	12	Diciembre	2023-12-24T00:00:00	2024-11-08T00:00:00	3	Temperatura mínima	14.9
96692	7	Sololá	717	San Juan la Laguna	12	San Juan la Laguna	12	Diciembre	2023-12-24T00:00:00	2024-11-08T00:00:00	5	Humedad	82
96693	7	Sololá	717	San Juan la Laguna	12	San Juan la Laguna	12	Diciembre	2023-12-24T00:00:00	2024-11-08T00:00:00	6	Velocidad del viento	4.8
96694	7	Sololá	717	San Juan la Laguna	12	San Juan la Laguna	12	Diciembre	2023-12-24T00:00:00	2024-11-08T00:00:00	7	Dirección del viento	4.83
96695	7	Sololá	717	San Juan la Laguna	12	San Juan la Laguna	12	Diciembre	2023-12-24T00:00:00	2024-11-08T00:00:00	1	Precipitación	0
96696	7	Sololá	717	San Juan la Laguna	12	San Juan la Laguna	12	Diciembre	2023-12-24T00:00:00	2024-11-08T00:00:00	8	Radiación solar	0
96697	7	Sololá	717	San Juan la Laguna	12	San Juan la Laguna	12	Diciembre	2023-12-24T00:00:00	2024-11-08T01:00:00	2	Temperatura media	14.4
96698	7	Sololá	717	San Juan la Laguna	12	San Juan la Laguna	12	Diciembre	2023-12-24T00:00:00	2024-11-08T01:00:00	4	Temperatura máxima	15.6
96699	7	Sololá	717	San Juan la Laguna	12	San Juan la Laguna	12	Diciembre	2023-12-24T00:00:00	2024-11-08T01:00:00	3	Temperatura mínima	14.4
96700	7	Sololá	717	San Juan la Laguna	12	San Juan la Laguna	12	Diciembre	2023-12-24T00:00:00	2024-11-08T01:00:00	5	Humedad	84
96701	7	Sololá	717	San Juan la Laguna	12	San Juan la Laguna	12	Diciembre	2023-12-24T00:00:00	2024-11-08T01:00:00	6	Velocidad del viento	4.8
96702	7	Sololá	717	San Juan la Laguna	12	San Juan la Laguna	12	Diciembre	2023-12-24T00:00:00	2024-11-08T01:00:00	7	Dirección del viento	4.83
96703	7	Sololá	717	San Juan la Laguna	12	San Juan la Laguna	12	Diciembre	2023-12-24T00:00:00	2024-11-08T01:00:00	1	Precipitación	0
96704	7	Sololá	717	San Juan la Laguna	12	San Juan la Laguna	12	Diciembre	2023-12-24T00:00:00	2024-11-08T01:00:00	8	Radiación solar	0
96705	7	Sololá	717	San Juan la Laguna	12	San Juan la Laguna	12	Diciembre	2023-12-24T00:00:00	2024-11-08T02:00:00	2	Temperatura media	14.2
96706	7	Sololá	717	San Juan la Laguna	12	San Juan la Laguna	12	Diciembre	2023-12-24T00:00:00	2024-11-08T02:00:00	4	Temperatura máxima	14.6
96707	7	Sololá	717	San Juan la Laguna	12	San Juan la Laguna	12	Diciembre	2023-12-24T00:00:00	2024-11-08T02:00:00	3	Temperatura mínima	13.9
96708	7	Sololá	717	San Juan la Laguna	12	San Juan la Laguna	12	Diciembre	2023-12-24T00:00:00	2024-11-08T02:00:00	5	Humedad	84
96709	7	Sololá	717	San Juan la Laguna	12	San Juan la Laguna	12	Diciembre	2023-12-24T00:00:00	2024-11-08T02:00:00	6	Velocidad del viento	4.8
96710	7	Sololá	717	San Juan la Laguna	12	San Juan la Laguna	12	Diciembre	2023-12-24T00:00:00	2024-11-08T02:00:00	7	Dirección del viento	4.83
96711	7	Sololá	717	San Juan la Laguna	12	San Juan la Laguna	12	Diciembre	2023-12-24T00:00:00	2024-11-08T02:00:00	1	Precipitación	0
96712	7	Sololá	717	San Juan la Laguna	12	San Juan la Laguna	12	Diciembre	2023-12-24T00:00:00	2024-11-08T02:00:00	8	Radiación solar	0
96713	7	Sololá	717	San Juan la Laguna	12	San Juan la Laguna	12	Diciembre	2023-12-24T00:00:00	2024-11-08T03:00:00	2	Temperatura media	14.2
96714	7	Sololá	717	San Juan la Laguna	12	San Juan la Laguna	12	Diciembre	2023-12-24T00:00:00	2024-11-08T03:00:00	4	Temperatura máxima	14.5
96715	7	Sololá	717	San Juan la Laguna	12	San Juan la Laguna	12	Diciembre	2023-12-24T00:00:00	2024-11-08T03:00:00	3	Temperatura mínima	14.1
96716	7	Sololá	717	San Juan la Laguna	12	San Juan la Laguna	12	Diciembre	2023-12-24T00:00:00	2024-11-08T03:00:00	5	Humedad	84
96717	7	Sololá	717	San Juan la Laguna	12	San Juan la Laguna	12	Diciembre	2023-12-24T00:00:00	2024-11-08T03:00:00	6	Velocidad del viento	4.8
96718	7	Sololá	717	San Juan la Laguna	12	San Juan la Laguna	12	Diciembre	2023-12-24T00:00:00	2024-11-08T03:00:00	7	Dirección del viento	4.83
96719	7	Sololá	717	San Juan la Laguna	12	San Juan la Laguna	12	Diciembre	2023-12-24T00:00:00	2024-11-08T03:00:00	1	Precipitación	0
96720	7	Sololá	717	San Juan la Laguna	12	San Juan la Laguna	12	Diciembre	2023-12-24T00:00:00	2024-11-08T03:00:00	8	Radiación solar	0
96721	7	Sololá	717	San Juan la Laguna	12	San Juan la Laguna	12	Diciembre	2023-12-24T00:00:00	2024-11-08T04:00:00	2	Temperatura media	13.2
96722	7	Sololá	717	San Juan la Laguna	12	San Juan la Laguna	12	Diciembre	2023-12-24T00:00:00	2024-11-08T04:00:00	4	Temperatura máxima	14.2
96723	7	Sololá	717	San Juan la Laguna	12	San Juan la Laguna	12	Diciembre	2023-12-24T00:00:00	2024-11-08T04:00:00	3	Temperatura mínima	13.2
96724	7	Sololá	717	San Juan la Laguna	12	San Juan la Laguna	12	Diciembre	2023-12-24T00:00:00	2024-11-08T04:00:00	5	Humedad	87
96725	7	Sololá	717	San Juan la Laguna	12	San Juan la Laguna	12	Diciembre	2023-12-24T00:00:00	2024-11-08T04:00:00	6	Velocidad del viento	4.8
96726	7	Sololá	717	San Juan la Laguna	12	San Juan la Laguna	12	Diciembre	2023-12-24T00:00:00	2024-11-08T04:00:00	7	Dirección del viento	4.83
96727	7	Sololá	717	San Juan la Laguna	12	San Juan la Laguna	12	Diciembre	2023-12-24T00:00:00	2024-11-08T04:00:00	1	Precipitación	0
96728	7	Sololá	717	San Juan la Laguna	12	San Juan la Laguna	12	Diciembre	2023-12-24T00:00:00	2024-11-08T04:00:00	8	Radiación solar	0
96729	7	Sololá	717	San Juan la Laguna	12	San Juan la Laguna	12	Diciembre	2023-12-24T00:00:00	2024-11-08T05:00:00	2	Temperatura media	13.5
96730	7	Sololá	717	San Juan la Laguna	12	San Juan la Laguna	12	Diciembre	2023-12-24T00:00:00	2024-11-08T05:00:00	4	Temperatura máxima	13.7
96731	7	Sololá	717	San Juan la Laguna	12	San Juan la Laguna	12	Diciembre	2023-12-24T00:00:00	2024-11-08T05:00:00	3	Temperatura mínima	13.1
96732	7	Sololá	717	San Juan la Laguna	12	San Juan la Laguna	12	Diciembre	2023-12-24T00:00:00	2024-11-08T05:00:00	5	Humedad	87
96733	7	Sololá	717	San Juan la Laguna	12	San Juan la Laguna	12	Diciembre	2023-12-24T00:00:00	2024-11-08T05:00:00	6	Velocidad del viento	4.8
96734	7	Sololá	717	San Juan la Laguna	12	San Juan la Laguna	12	Diciembre	2023-12-24T00:00:00	2024-11-08T05:00:00	7	Dirección del viento	4.83
96735	7	Sololá	717	San Juan la Laguna	12	San Juan la Laguna	12	Diciembre	2023-12-24T00:00:00	2024-11-08T05:00:00	1	Precipitación	0
96736	7	Sololá	717	San Juan la Laguna	12	San Juan la Laguna	12	Diciembre	2023-12-24T00:00:00	2024-11-08T05:00:00	8	Radiación solar	0
96737	7	Sololá	717	San Juan la Laguna	12	San Juan la Laguna	12	Diciembre	2023-12-24T00:00:00	2024-11-08T06:00:00	2	Temperatura media	13.5
96738	7	Sololá	717	San Juan la Laguna	12	San Juan la Laguna	12	Diciembre	2023-12-24T00:00:00	2024-11-08T06:00:00	4	Temperatura máxima	13.7
96739	7	Sololá	717	San Juan la Laguna	12	San Juan la Laguna	12	Diciembre	2023-12-24T00:00:00	2024-11-08T06:00:00	3	Temperatura mínima	13.2
96740	7	Sololá	717	San Juan la Laguna	12	San Juan la Laguna	12	Diciembre	2023-12-24T00:00:00	2024-11-08T06:00:00	5	Humedad	86
96741	7	Sololá	717	San Juan la Laguna	12	San Juan la Laguna	12	Diciembre	2023-12-24T00:00:00	2024-11-08T06:00:00	6	Velocidad del viento	4.8
96742	7	Sololá	717	San Juan la Laguna	12	San Juan la Laguna	12	Diciembre	2023-12-24T00:00:00	2024-11-08T06:00:00	7	Dirección del viento	4.83
96743	7	Sololá	717	San Juan la Laguna	12	San Juan la Laguna	12	Diciembre	2023-12-24T00:00:00	2024-11-08T06:00:00	1	Precipitación	0
96744	7	Sololá	717	San Juan la Laguna	12	San Juan la Laguna	12	Diciembre	2023-12-24T00:00:00	2024-11-08T06:00:00	8	Radiación solar	0
96745	7	Sololá	717	San Juan la Laguna	12	San Juan la Laguna	12	Diciembre	2023-12-24T00:00:00	2024-11-08T07:00:00	2	Temperatura media	13.8
96746	7	Sololá	717	San Juan la Laguna	12	San Juan la Laguna	12	Diciembre	2023-12-24T00:00:00	2024-11-08T07:00:00	4	Temperatura máxima	13.8
96747	7	Sololá	717	San Juan la Laguna	12	San Juan la Laguna	12	Diciembre	2023-12-24T00:00:00	2024-11-08T07:00:00	3	Temperatura mínima	12.9
96748	7	Sololá	717	San Juan la Laguna	12	San Juan la Laguna	12	Diciembre	2023-12-24T00:00:00	2024-11-08T07:00:00	5	Humedad	86
96749	7	Sololá	717	San Juan la Laguna	12	San Juan la Laguna	12	Diciembre	2023-12-24T00:00:00	2024-11-08T07:00:00	6	Velocidad del viento	4.8
96750	7	Sololá	717	San Juan la Laguna	12	San Juan la Laguna	12	Diciembre	2023-12-24T00:00:00	2024-11-08T07:00:00	7	Dirección del viento	4.83
96751	7	Sololá	717	San Juan la Laguna	12	San Juan la Laguna	12	Diciembre	2023-12-24T00:00:00	2024-11-08T07:00:00	1	Precipitación	0
96752	7	Sololá	717	San Juan la Laguna	12	San Juan la Laguna	12	Diciembre	2023-12-24T00:00:00	2024-11-08T07:00:00	8	Radiación solar	9
96753	7	Sololá	717	San Juan la Laguna	12	San Juan la Laguna	12	Diciembre	2023-12-24T00:00:00	2024-11-08T08:00:00	2	Temperatura media	16.3
96754	7	Sololá	717	San Juan la Laguna	12	San Juan la Laguna	12	Diciembre	2023-12-24T00:00:00	2024-11-08T08:00:00	4	Temperatura máxima	16.3
96755	7	Sololá	717	San Juan la Laguna	12	San Juan la Laguna	12	Diciembre	2023-12-24T00:00:00	2024-11-08T08:00:00	3	Temperatura mínima	13.8
96756	7	Sololá	717	San Juan la Laguna	12	San Juan la Laguna	12	Diciembre	2023-12-24T00:00:00	2024-11-08T08:00:00	5	Humedad	82
96757	7	Sololá	717	San Juan la Laguna	12	San Juan la Laguna	12	Diciembre	2023-12-24T00:00:00	2024-11-08T08:00:00	6	Velocidad del viento	3.2
96758	7	Sololá	717	San Juan la Laguna	12	San Juan la Laguna	12	Diciembre	2023-12-24T00:00:00	2024-11-08T08:00:00	7	Dirección del viento	3.22
96759	7	Sololá	717	San Juan la Laguna	12	San Juan la Laguna	12	Diciembre	2023-12-24T00:00:00	2024-11-08T08:00:00	1	Precipitación	0
96760	7	Sololá	717	San Juan la Laguna	12	San Juan la Laguna	12	Diciembre	2023-12-24T00:00:00	2024-11-08T08:00:00	8	Radiación solar	116
96761	7	Sololá	717	San Juan la Laguna	12	San Juan la Laguna	12	Diciembre	2023-12-24T00:00:00	2024-11-08T09:00:00	2	Temperatura media	18.8
96762	7	Sololá	717	San Juan la Laguna	12	San Juan la Laguna	12	Diciembre	2023-12-24T00:00:00	2024-11-08T09:00:00	4	Temperatura máxima	19.4
96763	7	Sololá	717	San Juan la Laguna	12	San Juan la Laguna	12	Diciembre	2023-12-24T00:00:00	2024-11-08T09:00:00	3	Temperatura mínima	16.3
96764	7	Sololá	717	San Juan la Laguna	12	San Juan la Laguna	12	Diciembre	2023-12-24T00:00:00	2024-11-08T09:00:00	5	Humedad	77
96765	7	Sololá	717	San Juan la Laguna	12	San Juan la Laguna	12	Diciembre	2023-12-24T00:00:00	2024-11-08T09:00:00	6	Velocidad del viento	3.2
96766	7	Sololá	717	San Juan la Laguna	12	San Juan la Laguna	12	Diciembre	2023-12-24T00:00:00	2024-11-08T09:00:00	7	Dirección del viento	3.22
96767	7	Sololá	717	San Juan la Laguna	12	San Juan la Laguna	12	Diciembre	2023-12-24T00:00:00	2024-11-08T09:00:00	1	Precipitación	0
96768	7	Sololá	717	San Juan la Laguna	12	San Juan la Laguna	12	Diciembre	2023-12-24T00:00:00	2024-11-08T09:00:00	8	Radiación solar	314
96769	7	Sololá	717	San Juan la Laguna	12	San Juan la Laguna	12	Diciembre	2023-12-24T00:00:00	2024-11-08T10:00:00	2	Temperatura media	20.1
96770	7	Sololá	717	San Juan la Laguna	12	San Juan la Laguna	12	Diciembre	2023-12-24T00:00:00	2024-11-08T10:00:00	4	Temperatura máxima	20.1
96771	7	Sololá	717	San Juan la Laguna	12	San Juan la Laguna	12	Diciembre	2023-12-24T00:00:00	2024-11-08T10:00:00	3	Temperatura mínima	18.8
96772	7	Sololá	717	San Juan la Laguna	12	San Juan la Laguna	12	Diciembre	2023-12-24T00:00:00	2024-11-08T10:00:00	5	Humedad	73
96773	7	Sololá	717	San Juan la Laguna	12	San Juan la Laguna	12	Diciembre	2023-12-24T00:00:00	2024-11-08T10:00:00	6	Velocidad del viento	4.8
96774	7	Sololá	717	San Juan la Laguna	12	San Juan la Laguna	12	Diciembre	2023-12-24T00:00:00	2024-11-08T10:00:00	7	Dirección del viento	4.83
96775	7	Sololá	717	San Juan la Laguna	12	San Juan la Laguna	12	Diciembre	2023-12-24T00:00:00	2024-11-08T10:00:00	1	Precipitación	0
96776	7	Sololá	717	San Juan la Laguna	12	San Juan la Laguna	12	Diciembre	2023-12-24T00:00:00	2024-11-08T10:00:00	8	Radiación solar	521
96777	7	Sololá	717	San Juan la Laguna	12	San Juan la Laguna	12	Diciembre	2023-12-24T00:00:00	2024-11-08T11:00:00	2	Temperatura media	21.4
96778	7	Sololá	717	San Juan la Laguna	12	San Juan la Laguna	12	Diciembre	2023-12-24T00:00:00	2024-11-08T11:00:00	4	Temperatura máxima	21.4
96779	7	Sololá	717	San Juan la Laguna	12	San Juan la Laguna	12	Diciembre	2023-12-24T00:00:00	2024-11-08T11:00:00	3	Temperatura mínima	20.1
96780	7	Sololá	717	San Juan la Laguna	12	San Juan la Laguna	12	Diciembre	2023-12-24T00:00:00	2024-11-08T11:00:00	5	Humedad	65
96781	7	Sololá	717	San Juan la Laguna	12	San Juan la Laguna	12	Diciembre	2023-12-24T00:00:00	2024-11-08T11:00:00	6	Velocidad del viento	6.4
96782	7	Sololá	717	San Juan la Laguna	12	San Juan la Laguna	12	Diciembre	2023-12-24T00:00:00	2024-11-08T11:00:00	7	Dirección del viento	6.44
96783	7	Sololá	717	San Juan la Laguna	12	San Juan la Laguna	12	Diciembre	2023-12-24T00:00:00	2024-11-08T11:00:00	1	Precipitación	0
96784	7	Sololá	717	San Juan la Laguna	12	San Juan la Laguna	12	Diciembre	2023-12-24T00:00:00	2024-11-08T11:00:00	8	Radiación solar	635
96785	7	Sololá	717	San Juan la Laguna	12	San Juan la Laguna	12	Diciembre	2023-12-24T00:00:00	2024-11-08T12:00:00	2	Temperatura media	21.4
96786	7	Sololá	717	San Juan la Laguna	12	San Juan la Laguna	12	Diciembre	2023-12-24T00:00:00	2024-11-08T12:00:00	4	Temperatura máxima	21.6
96787	7	Sololá	717	San Juan la Laguna	12	San Juan la Laguna	12	Diciembre	2023-12-24T00:00:00	2024-11-08T12:00:00	3	Temperatura mínima	20.2
96788	7	Sololá	717	San Juan la Laguna	12	San Juan la Laguna	12	Diciembre	2023-12-24T00:00:00	2024-11-08T12:00:00	5	Humedad	71
96789	7	Sololá	717	San Juan la Laguna	12	San Juan la Laguna	12	Diciembre	2023-12-24T00:00:00	2024-11-08T12:00:00	6	Velocidad del viento	6.4
96790	7	Sololá	717	San Juan la Laguna	12	San Juan la Laguna	12	Diciembre	2023-12-24T00:00:00	2024-11-08T12:00:00	7	Dirección del viento	6.44
96791	7	Sololá	717	San Juan la Laguna	12	San Juan la Laguna	12	Diciembre	2023-12-24T00:00:00	2024-11-08T12:00:00	1	Precipitación	0
96792	7	Sololá	717	San Juan la Laguna	12	San Juan la Laguna	12	Diciembre	2023-12-24T00:00:00	2024-11-08T12:00:00	8	Radiación solar	470
96793	7	Sololá	717	San Juan la Laguna	12	San Juan la Laguna	12	Diciembre	2023-12-24T00:00:00	2024-11-08T13:00:00	2	Temperatura media	22.6
96794	7	Sololá	717	San Juan la Laguna	12	San Juan la Laguna	12	Diciembre	2023-12-24T00:00:00	2024-11-08T13:00:00	4	Temperatura máxima	22.7
96795	7	Sololá	717	San Juan la Laguna	12	San Juan la Laguna	12	Diciembre	2023-12-24T00:00:00	2024-11-08T13:00:00	3	Temperatura mínima	21.3
96796	7	Sololá	717	San Juan la Laguna	12	San Juan la Laguna	12	Diciembre	2023-12-24T00:00:00	2024-11-08T13:00:00	5	Humedad	68
96797	7	Sololá	717	San Juan la Laguna	12	San Juan la Laguna	12	Diciembre	2023-12-24T00:00:00	2024-11-08T13:00:00	6	Velocidad del viento	6.4
96798	7	Sololá	717	San Juan la Laguna	12	San Juan la Laguna	12	Diciembre	2023-12-24T00:00:00	2024-11-08T13:00:00	7	Dirección del viento	6.44
96799	7	Sololá	717	San Juan la Laguna	12	San Juan la Laguna	12	Diciembre	2023-12-24T00:00:00	2024-11-08T13:00:00	1	Precipitación	0
96800	7	Sololá	717	San Juan la Laguna	12	San Juan la Laguna	12	Diciembre	2023-12-24T00:00:00	2024-11-08T13:00:00	8	Radiación solar	557
96801	7	Sololá	717	San Juan la Laguna	12	San Juan la Laguna	12	Diciembre	2023-12-24T00:00:00	2024-11-08T14:00:00	2	Temperatura media	22.3
96802	7	Sololá	717	San Juan la Laguna	12	San Juan la Laguna	12	Diciembre	2023-12-24T00:00:00	2024-11-08T14:00:00	4	Temperatura máxima	22.5
96803	7	Sololá	717	San Juan la Laguna	12	San Juan la Laguna	12	Diciembre	2023-12-24T00:00:00	2024-11-08T14:00:00	3	Temperatura mínima	21.4
96804	7	Sololá	717	San Juan la Laguna	12	San Juan la Laguna	12	Diciembre	2023-12-24T00:00:00	2024-11-08T14:00:00	5	Humedad	69
96805	7	Sololá	717	San Juan la Laguna	12	San Juan la Laguna	12	Diciembre	2023-12-24T00:00:00	2024-11-08T14:00:00	6	Velocidad del viento	12.9
96806	7	Sololá	717	San Juan la Laguna	12	San Juan la Laguna	12	Diciembre	2023-12-24T00:00:00	2024-11-08T14:00:00	7	Dirección del viento	12.87
96807	7	Sololá	717	San Juan la Laguna	12	San Juan la Laguna	12	Diciembre	2023-12-24T00:00:00	2024-11-08T14:00:00	1	Precipitación	0
96808	7	Sololá	717	San Juan la Laguna	12	San Juan la Laguna	12	Diciembre	2023-12-24T00:00:00	2024-11-08T14:00:00	8	Radiación solar	318
96809	7	Sololá	717	San Juan la Laguna	12	San Juan la Laguna	12	Diciembre	2023-12-24T00:00:00	2024-11-08T15:00:00	2	Temperatura media	22.1
96810	7	Sololá	717	San Juan la Laguna	12	San Juan la Laguna	12	Diciembre	2023-12-24T00:00:00	2024-11-08T15:00:00	4	Temperatura máxima	22.7
96811	7	Sololá	717	San Juan la Laguna	12	San Juan la Laguna	12	Diciembre	2023-12-24T00:00:00	2024-11-08T15:00:00	3	Temperatura mínima	21.8
96812	7	Sololá	717	San Juan la Laguna	12	San Juan la Laguna	12	Diciembre	2023-12-24T00:00:00	2024-11-08T15:00:00	5	Humedad	70
96813	7	Sololá	717	San Juan la Laguna	12	San Juan la Laguna	12	Diciembre	2023-12-24T00:00:00	2024-11-08T15:00:00	6	Velocidad del viento	12.9
96814	7	Sololá	717	San Juan la Laguna	12	San Juan la Laguna	12	Diciembre	2023-12-24T00:00:00	2024-11-08T15:00:00	7	Dirección del viento	12.87
96815	7	Sololá	717	San Juan la Laguna	12	San Juan la Laguna	12	Diciembre	2023-12-24T00:00:00	2024-11-08T15:00:00	1	Precipitación	0
96816	7	Sololá	717	San Juan la Laguna	12	San Juan la Laguna	12	Diciembre	2023-12-24T00:00:00	2024-11-08T15:00:00	8	Radiación solar	459
96817	7	Sololá	717	San Juan la Laguna	12	San Juan la Laguna	12	Diciembre	2023-12-24T00:00:00	2024-11-08T16:00:00	2	Temperatura media	21.3
96818	7	Sololá	717	San Juan la Laguna	12	San Juan la Laguna	12	Diciembre	2023-12-24T00:00:00	2024-11-08T16:00:00	4	Temperatura máxima	22.2
96819	7	Sololá	717	San Juan la Laguna	12	San Juan la Laguna	12	Diciembre	2023-12-24T00:00:00	2024-11-08T16:00:00	3	Temperatura mínima	21.2
96820	7	Sololá	717	San Juan la Laguna	12	San Juan la Laguna	12	Diciembre	2023-12-24T00:00:00	2024-11-08T16:00:00	5	Humedad	73
96821	7	Sololá	717	San Juan la Laguna	12	San Juan la Laguna	12	Diciembre	2023-12-24T00:00:00	2024-11-08T16:00:00	6	Velocidad del viento	9.7
96822	7	Sololá	717	San Juan la Laguna	12	San Juan la Laguna	12	Diciembre	2023-12-24T00:00:00	2024-11-08T16:00:00	7	Dirección del viento	9.66
96823	7	Sololá	717	San Juan la Laguna	12	San Juan la Laguna	12	Diciembre	2023-12-24T00:00:00	2024-11-08T16:00:00	1	Precipitación	0
96824	7	Sololá	717	San Juan la Laguna	12	San Juan la Laguna	12	Diciembre	2023-12-24T00:00:00	2024-11-08T16:00:00	8	Radiación solar	427
96825	7	Sololá	717	San Juan la Laguna	12	San Juan la Laguna	12	Diciembre	2023-12-24T00:00:00	2024-11-08T17:00:00	2	Temperatura media	19.7
96826	7	Sololá	717	San Juan la Laguna	12	San Juan la Laguna	12	Diciembre	2023-12-24T00:00:00	2024-11-08T17:00:00	4	Temperatura máxima	21.3
96827	7	Sololá	717	San Juan la Laguna	12	San Juan la Laguna	12	Diciembre	2023-12-24T00:00:00	2024-11-08T17:00:00	3	Temperatura mínima	19.7
96828	7	Sololá	717	San Juan la Laguna	12	San Juan la Laguna	12	Diciembre	2023-12-24T00:00:00	2024-11-08T17:00:00	5	Humedad	80
96829	7	Sololá	717	San Juan la Laguna	12	San Juan la Laguna	12	Diciembre	2023-12-24T00:00:00	2024-11-08T17:00:00	6	Velocidad del viento	6.4
96830	7	Sololá	717	San Juan la Laguna	12	San Juan la Laguna	12	Diciembre	2023-12-24T00:00:00	2024-11-08T17:00:00	7	Dirección del viento	6.44
96831	7	Sololá	717	San Juan la Laguna	12	San Juan la Laguna	12	Diciembre	2023-12-24T00:00:00	2024-11-08T17:00:00	1	Precipitación	0
96832	7	Sololá	717	San Juan la Laguna	12	San Juan la Laguna	12	Diciembre	2023-12-24T00:00:00	2024-11-08T17:00:00	8	Radiación solar	53
96833	7	Sololá	717	San Juan la Laguna	12	San Juan la Laguna	12	Diciembre	2023-12-24T00:00:00	2024-11-08T18:00:00	2	Temperatura media	18.8
96834	7	Sololá	717	San Juan la Laguna	12	San Juan la Laguna	12	Diciembre	2023-12-24T00:00:00	2024-11-08T18:00:00	4	Temperatura máxima	19.7
96835	7	Sololá	717	San Juan la Laguna	12	San Juan la Laguna	12	Diciembre	2023-12-24T00:00:00	2024-11-08T18:00:00	3	Temperatura mínima	18.8
96836	7	Sololá	717	San Juan la Laguna	12	San Juan la Laguna	12	Diciembre	2023-12-24T00:00:00	2024-11-08T18:00:00	5	Humedad	80
96837	7	Sololá	717	San Juan la Laguna	12	San Juan la Laguna	12	Diciembre	2023-12-24T00:00:00	2024-11-08T18:00:00	6	Velocidad del viento	6.4
96838	7	Sololá	717	San Juan la Laguna	12	San Juan la Laguna	12	Diciembre	2023-12-24T00:00:00	2024-11-08T18:00:00	7	Dirección del viento	6.44
96839	7	Sololá	717	San Juan la Laguna	12	San Juan la Laguna	12	Diciembre	2023-12-24T00:00:00	2024-11-08T18:00:00	1	Precipitación	0
96840	7	Sololá	717	San Juan la Laguna	12	San Juan la Laguna	12	Diciembre	2023-12-24T00:00:00	2024-11-08T18:00:00	8	Radiación solar	10
96841	7	Sololá	717	San Juan la Laguna	12	San Juan la Laguna	12	Diciembre	2023-12-24T00:00:00	2024-11-08T19:00:00	2	Temperatura media	17.2
96842	7	Sololá	717	San Juan la Laguna	12	San Juan la Laguna	12	Diciembre	2023-12-24T00:00:00	2024-11-08T19:00:00	4	Temperatura máxima	18.8
96843	7	Sololá	717	San Juan la Laguna	12	San Juan la Laguna	12	Diciembre	2023-12-24T00:00:00	2024-11-08T19:00:00	3	Temperatura mínima	17.2
96844	7	Sololá	717	San Juan la Laguna	12	San Juan la Laguna	12	Diciembre	2023-12-24T00:00:00	2024-11-08T19:00:00	5	Humedad	81
96845	7	Sololá	717	San Juan la Laguna	12	San Juan la Laguna	12	Diciembre	2023-12-24T00:00:00	2024-11-08T19:00:00	6	Velocidad del viento	4.8
96846	7	Sololá	717	San Juan la Laguna	12	San Juan la Laguna	12	Diciembre	2023-12-24T00:00:00	2024-11-08T19:00:00	7	Dirección del viento	4.83
96847	7	Sololá	717	San Juan la Laguna	12	San Juan la Laguna	12	Diciembre	2023-12-24T00:00:00	2024-11-08T19:00:00	1	Precipitación	0
96848	7	Sololá	717	San Juan la Laguna	12	San Juan la Laguna	12	Diciembre	2023-12-24T00:00:00	2024-11-08T19:00:00	8	Radiación solar	0
96849	7	Sololá	717	San Juan la Laguna	12	San Juan la Laguna	12	Diciembre	2023-12-24T00:00:00	2024-11-08T20:00:00	2	Temperatura media	16.2
96850	7	Sololá	717	San Juan la Laguna	12	San Juan la Laguna	12	Diciembre	2023-12-24T00:00:00	2024-11-08T20:00:00	4	Temperatura máxima	17.2
96851	7	Sololá	717	San Juan la Laguna	12	San Juan la Laguna	12	Diciembre	2023-12-24T00:00:00	2024-11-08T20:00:00	3	Temperatura mínima	16.2
96852	7	Sololá	717	San Juan la Laguna	12	San Juan la Laguna	12	Diciembre	2023-12-24T00:00:00	2024-11-08T20:00:00	5	Humedad	83
96853	7	Sololá	717	San Juan la Laguna	12	San Juan la Laguna	12	Diciembre	2023-12-24T00:00:00	2024-11-08T20:00:00	6	Velocidad del viento	4.8
96854	7	Sololá	717	San Juan la Laguna	12	San Juan la Laguna	12	Diciembre	2023-12-24T00:00:00	2024-11-08T20:00:00	7	Dirección del viento	4.83
96855	7	Sololá	717	San Juan la Laguna	12	San Juan la Laguna	12	Diciembre	2023-12-24T00:00:00	2024-11-08T20:00:00	1	Precipitación	0
96856	7	Sololá	717	San Juan la Laguna	12	San Juan la Laguna	12	Diciembre	2023-12-24T00:00:00	2024-11-08T20:00:00	8	Radiación solar	0
96857	7	Sololá	717	San Juan la Laguna	12	San Juan la Laguna	12	Diciembre	2023-12-24T00:00:00	2024-11-08T21:00:00	2	Temperatura media	15.9
96858	7	Sololá	717	San Juan la Laguna	12	San Juan la Laguna	12	Diciembre	2023-12-24T00:00:00	2024-11-08T21:00:00	4	Temperatura máxima	16.3
96859	7	Sololá	717	San Juan la Laguna	12	San Juan la Laguna	12	Diciembre	2023-12-24T00:00:00	2024-11-08T21:00:00	3	Temperatura mínima	15.9
96860	7	Sololá	717	San Juan la Laguna	12	San Juan la Laguna	12	Diciembre	2023-12-24T00:00:00	2024-11-08T21:00:00	5	Humedad	84
96861	7	Sololá	717	San Juan la Laguna	12	San Juan la Laguna	12	Diciembre	2023-12-24T00:00:00	2024-11-08T21:00:00	6	Velocidad del viento	6.4
96862	7	Sololá	717	San Juan la Laguna	12	San Juan la Laguna	12	Diciembre	2023-12-24T00:00:00	2024-11-08T21:00:00	7	Dirección del viento	6.44
96863	7	Sololá	717	San Juan la Laguna	12	San Juan la Laguna	12	Diciembre	2023-12-24T00:00:00	2024-11-08T21:00:00	1	Precipitación	0
96864	7	Sololá	717	San Juan la Laguna	12	San Juan la Laguna	12	Diciembre	2023-12-24T00:00:00	2024-11-08T21:00:00	8	Radiación solar	0
96865	7	Sololá	717	San Juan la Laguna	12	San Juan la Laguna	12	Diciembre	2023-12-24T00:00:00	2024-11-08T22:00:00	2	Temperatura media	15.4
96866	7	Sololá	717	San Juan la Laguna	12	San Juan la Laguna	12	Diciembre	2023-12-24T00:00:00	2024-11-08T22:00:00	4	Temperatura máxima	15.9
96867	7	Sololá	717	San Juan la Laguna	12	San Juan la Laguna	12	Diciembre	2023-12-24T00:00:00	2024-11-08T22:00:00	3	Temperatura mínima	15.4
96868	7	Sololá	717	San Juan la Laguna	12	San Juan la Laguna	12	Diciembre	2023-12-24T00:00:00	2024-11-08T22:00:00	5	Humedad	83
96869	7	Sololá	717	San Juan la Laguna	12	San Juan la Laguna	12	Diciembre	2023-12-24T00:00:00	2024-11-08T22:00:00	6	Velocidad del viento	4.8
96870	7	Sololá	717	San Juan la Laguna	12	San Juan la Laguna	12	Diciembre	2023-12-24T00:00:00	2024-11-08T22:00:00	7	Dirección del viento	4.83
96871	7	Sololá	717	San Juan la Laguna	12	San Juan la Laguna	12	Diciembre	2023-12-24T00:00:00	2024-11-08T22:00:00	1	Precipitación	0
96872	7	Sololá	717	San Juan la Laguna	12	San Juan la Laguna	12	Diciembre	2023-12-24T00:00:00	2024-11-08T22:00:00	8	Radiación solar	0
96873	7	Sololá	717	San Juan la Laguna	12	San Juan la Laguna	12	Diciembre	2023-12-24T00:00:00	2024-11-08T23:00:00	2	Temperatura media	15.9
96874	7	Sololá	717	San Juan la Laguna	12	San Juan la Laguna	12	Diciembre	2023-12-24T00:00:00	2024-11-08T23:00:00	4	Temperatura máxima	16.1
96875	7	Sololá	717	San Juan la Laguna	12	San Juan la Laguna	12	Diciembre	2023-12-24T00:00:00	2024-11-08T23:00:00	3	Temperatura mínima	15.2
96876	7	Sololá	717	San Juan la Laguna	12	San Juan la Laguna	12	Diciembre	2023-12-24T00:00:00	2024-11-08T23:00:00	5	Humedad	83
96877	7	Sololá	717	San Juan la Laguna	12	San Juan la Laguna	12	Diciembre	2023-12-24T00:00:00	2024-11-08T23:00:00	6	Velocidad del viento	4.8
96878	7	Sololá	717	San Juan la Laguna	12	San Juan la Laguna	12	Diciembre	2023-12-24T00:00:00	2024-11-08T23:00:00	7	Dirección del viento	4.83
96879	7	Sololá	717	San Juan la Laguna	12	San Juan la Laguna	12	Diciembre	2023-12-24T00:00:00	2024-11-08T23:00:00	1	Precipitación	0
96880	7	Sololá	717	San Juan la Laguna	12	San Juan la Laguna	12	Diciembre	2023-12-24T00:00:00	2024-11-08T23:00:00	8	Radiación solar	0
96881	7	Sololá	717	San Juan la Laguna	12	San Juan la Laguna	12	Diciembre	2023-12-25T00:00:00	2024-11-08T00:00:00	2	Temperatura media	14.7
96882	7	Sololá	717	San Juan la Laguna	12	San Juan la Laguna	12	Diciembre	2023-12-25T00:00:00	2024-11-08T00:00:00	4	Temperatura máxima	16
96883	7	Sololá	717	San Juan la Laguna	12	San Juan la Laguna	12	Diciembre	2023-12-25T00:00:00	2024-11-08T00:00:00	3	Temperatura mínima	14.7
96884	7	Sololá	717	San Juan la Laguna	12	San Juan la Laguna	12	Diciembre	2023-12-25T00:00:00	2024-11-08T00:00:00	5	Humedad	84
96885	7	Sololá	717	San Juan la Laguna	12	San Juan la Laguna	12	Diciembre	2023-12-25T00:00:00	2024-11-08T00:00:00	6	Velocidad del viento	4.8
96886	7	Sololá	717	San Juan la Laguna	12	San Juan la Laguna	12	Diciembre	2023-12-25T00:00:00	2024-11-08T00:00:00	7	Dirección del viento	4.83
96887	7	Sololá	717	San Juan la Laguna	12	San Juan la Laguna	12	Diciembre	2023-12-25T00:00:00	2024-11-08T00:00:00	1	Precipitación	0
96888	7	Sololá	717	San Juan la Laguna	12	San Juan la Laguna	12	Diciembre	2023-12-25T00:00:00	2024-11-08T00:00:00	8	Radiación solar	0
96889	7	Sololá	717	San Juan la Laguna	12	San Juan la Laguna	12	Diciembre	2023-12-25T00:00:00	2024-11-08T01:00:00	2	Temperatura media	13.9
96890	7	Sololá	717	San Juan la Laguna	12	San Juan la Laguna	12	Diciembre	2023-12-25T00:00:00	2024-11-08T01:00:00	4	Temperatura máxima	14.7
96891	7	Sololá	717	San Juan la Laguna	12	San Juan la Laguna	12	Diciembre	2023-12-25T00:00:00	2024-11-08T01:00:00	3	Temperatura mínima	13.8
96892	7	Sololá	717	San Juan la Laguna	12	San Juan la Laguna	12	Diciembre	2023-12-25T00:00:00	2024-11-08T01:00:00	5	Humedad	84
96893	7	Sololá	717	San Juan la Laguna	12	San Juan la Laguna	12	Diciembre	2023-12-25T00:00:00	2024-11-08T01:00:00	6	Velocidad del viento	4.8
96894	7	Sololá	717	San Juan la Laguna	12	San Juan la Laguna	12	Diciembre	2023-12-25T00:00:00	2024-11-08T01:00:00	7	Dirección del viento	4.83
96895	7	Sololá	717	San Juan la Laguna	12	San Juan la Laguna	12	Diciembre	2023-12-25T00:00:00	2024-11-08T01:00:00	1	Precipitación	0
96896	7	Sololá	717	San Juan la Laguna	12	San Juan la Laguna	12	Diciembre	2023-12-25T00:00:00	2024-11-08T01:00:00	8	Radiación solar	0
96897	7	Sololá	717	San Juan la Laguna	12	San Juan la Laguna	12	Diciembre	2023-12-25T00:00:00	2024-11-08T02:00:00	2	Temperatura media	13.6
96898	7	Sololá	717	San Juan la Laguna	12	San Juan la Laguna	12	Diciembre	2023-12-25T00:00:00	2024-11-08T02:00:00	4	Temperatura máxima	13.9
96899	7	Sololá	717	San Juan la Laguna	12	San Juan la Laguna	12	Diciembre	2023-12-25T00:00:00	2024-11-08T02:00:00	3	Temperatura mínima	13.6
96900	7	Sololá	717	San Juan la Laguna	12	San Juan la Laguna	12	Diciembre	2023-12-25T00:00:00	2024-11-08T02:00:00	5	Humedad	85
96901	7	Sololá	717	San Juan la Laguna	12	San Juan la Laguna	12	Diciembre	2023-12-25T00:00:00	2024-11-08T02:00:00	6	Velocidad del viento	4.8
96902	7	Sololá	717	San Juan la Laguna	12	San Juan la Laguna	12	Diciembre	2023-12-25T00:00:00	2024-11-08T02:00:00	7	Dirección del viento	4.83
96903	7	Sololá	717	San Juan la Laguna	12	San Juan la Laguna	12	Diciembre	2023-12-25T00:00:00	2024-11-08T02:00:00	1	Precipitación	0
96904	7	Sololá	717	San Juan la Laguna	12	San Juan la Laguna	12	Diciembre	2023-12-25T00:00:00	2024-11-08T02:00:00	8	Radiación solar	0
96905	7	Sololá	717	San Juan la Laguna	12	San Juan la Laguna	12	Diciembre	2023-12-25T00:00:00	2024-11-08T03:00:00	2	Temperatura media	13.2
96906	7	Sololá	717	San Juan la Laguna	12	San Juan la Laguna	12	Diciembre	2023-12-25T00:00:00	2024-11-08T03:00:00	4	Temperatura máxima	13.6
96907	7	Sololá	717	San Juan la Laguna	12	San Juan la Laguna	12	Diciembre	2023-12-25T00:00:00	2024-11-08T03:00:00	3	Temperatura mínima	12.8
96908	7	Sololá	717	San Juan la Laguna	12	San Juan la Laguna	12	Diciembre	2023-12-25T00:00:00	2024-11-08T03:00:00	5	Humedad	86
96909	7	Sololá	717	San Juan la Laguna	12	San Juan la Laguna	12	Diciembre	2023-12-25T00:00:00	2024-11-08T03:00:00	6	Velocidad del viento	4.8
96910	7	Sololá	717	San Juan la Laguna	12	San Juan la Laguna	12	Diciembre	2023-12-25T00:00:00	2024-11-08T03:00:00	7	Dirección del viento	4.83
96911	7	Sololá	717	San Juan la Laguna	12	San Juan la Laguna	12	Diciembre	2023-12-25T00:00:00	2024-11-08T03:00:00	1	Precipitación	0
96912	7	Sololá	717	San Juan la Laguna	12	San Juan la Laguna	12	Diciembre	2023-12-25T00:00:00	2024-11-08T03:00:00	8	Radiación solar	0
96913	7	Sololá	717	San Juan la Laguna	12	San Juan la Laguna	12	Diciembre	2023-12-25T00:00:00	2024-11-08T04:00:00	2	Temperatura media	12.9
96914	7	Sololá	717	San Juan la Laguna	12	San Juan la Laguna	12	Diciembre	2023-12-25T00:00:00	2024-11-08T04:00:00	4	Temperatura máxima	13.1
96915	7	Sololá	717	San Juan la Laguna	12	San Juan la Laguna	12	Diciembre	2023-12-25T00:00:00	2024-11-08T04:00:00	3	Temperatura mínima	12.9
96916	7	Sololá	717	San Juan la Laguna	12	San Juan la Laguna	12	Diciembre	2023-12-25T00:00:00	2024-11-08T04:00:00	5	Humedad	88
96917	7	Sololá	717	San Juan la Laguna	12	San Juan la Laguna	12	Diciembre	2023-12-25T00:00:00	2024-11-08T04:00:00	6	Velocidad del viento	4.8
96918	7	Sololá	717	San Juan la Laguna	12	San Juan la Laguna	12	Diciembre	2023-12-25T00:00:00	2024-11-08T04:00:00	7	Dirección del viento	4.83
96919	7	Sololá	717	San Juan la Laguna	12	San Juan la Laguna	12	Diciembre	2023-12-25T00:00:00	2024-11-08T04:00:00	1	Precipitación	0
96920	7	Sololá	717	San Juan la Laguna	12	San Juan la Laguna	12	Diciembre	2023-12-25T00:00:00	2024-11-08T04:00:00	8	Radiación solar	0
96921	7	Sololá	717	San Juan la Laguna	12	San Juan la Laguna	12	Diciembre	2023-12-25T00:00:00	2024-11-08T05:00:00	2	Temperatura media	12.8
96922	7	Sololá	717	San Juan la Laguna	12	San Juan la Laguna	12	Diciembre	2023-12-25T00:00:00	2024-11-08T05:00:00	4	Temperatura máxima	13.3
96923	7	Sololá	717	San Juan la Laguna	12	San Juan la Laguna	12	Diciembre	2023-12-25T00:00:00	2024-11-08T05:00:00	3	Temperatura mínima	12.8
96924	7	Sololá	717	San Juan la Laguna	12	San Juan la Laguna	12	Diciembre	2023-12-25T00:00:00	2024-11-08T05:00:00	5	Humedad	89
96925	7	Sololá	717	San Juan la Laguna	12	San Juan la Laguna	12	Diciembre	2023-12-25T00:00:00	2024-11-08T05:00:00	6	Velocidad del viento	4.8
96926	7	Sololá	717	San Juan la Laguna	12	San Juan la Laguna	12	Diciembre	2023-12-25T00:00:00	2024-11-08T05:00:00	7	Dirección del viento	4.83
96927	7	Sololá	717	San Juan la Laguna	12	San Juan la Laguna	12	Diciembre	2023-12-25T00:00:00	2024-11-08T05:00:00	1	Precipitación	0
96928	7	Sololá	717	San Juan la Laguna	12	San Juan la Laguna	12	Diciembre	2023-12-25T00:00:00	2024-11-08T05:00:00	8	Radiación solar	0
96929	7	Sololá	717	San Juan la Laguna	12	San Juan la Laguna	12	Diciembre	2023-12-25T00:00:00	2024-11-08T06:00:00	2	Temperatura media	13.2
96930	7	Sololá	717	San Juan la Laguna	12	San Juan la Laguna	12	Diciembre	2023-12-25T00:00:00	2024-11-08T06:00:00	4	Temperatura máxima	13.3
96931	7	Sololá	717	San Juan la Laguna	12	San Juan la Laguna	12	Diciembre	2023-12-25T00:00:00	2024-11-08T06:00:00	3	Temperatura mínima	12.7
96932	7	Sololá	717	San Juan la Laguna	12	San Juan la Laguna	12	Diciembre	2023-12-25T00:00:00	2024-11-08T06:00:00	5	Humedad	88
96933	7	Sololá	717	San Juan la Laguna	12	San Juan la Laguna	12	Diciembre	2023-12-25T00:00:00	2024-11-08T06:00:00	6	Velocidad del viento	4.8
96934	7	Sololá	717	San Juan la Laguna	12	San Juan la Laguna	12	Diciembre	2023-12-25T00:00:00	2024-11-08T06:00:00	7	Dirección del viento	4.83
96935	7	Sololá	717	San Juan la Laguna	12	San Juan la Laguna	12	Diciembre	2023-12-25T00:00:00	2024-11-08T06:00:00	1	Precipitación	0
96936	7	Sololá	717	San Juan la Laguna	12	San Juan la Laguna	12	Diciembre	2023-12-25T00:00:00	2024-11-08T06:00:00	8	Radiación solar	0
96937	7	Sololá	717	San Juan la Laguna	12	San Juan la Laguna	12	Diciembre	2023-12-25T00:00:00	2024-11-08T07:00:00	2	Temperatura media	13.3
96938	7	Sololá	717	San Juan la Laguna	12	San Juan la Laguna	12	Diciembre	2023-12-25T00:00:00	2024-11-08T07:00:00	4	Temperatura máxima	13.3
96939	7	Sololá	717	San Juan la Laguna	12	San Juan la Laguna	12	Diciembre	2023-12-25T00:00:00	2024-11-08T07:00:00	3	Temperatura mínima	12.4
96940	7	Sololá	717	San Juan la Laguna	12	San Juan la Laguna	12	Diciembre	2023-12-25T00:00:00	2024-11-08T07:00:00	5	Humedad	89
96941	7	Sololá	717	San Juan la Laguna	12	San Juan la Laguna	12	Diciembre	2023-12-25T00:00:00	2024-11-08T07:00:00	6	Velocidad del viento	4.8
96942	7	Sololá	717	San Juan la Laguna	12	San Juan la Laguna	12	Diciembre	2023-12-25T00:00:00	2024-11-08T07:00:00	7	Dirección del viento	4.83
96943	7	Sololá	717	San Juan la Laguna	12	San Juan la Laguna	12	Diciembre	2023-12-25T00:00:00	2024-11-08T07:00:00	1	Precipitación	0
96944	7	Sololá	717	San Juan la Laguna	12	San Juan la Laguna	12	Diciembre	2023-12-25T00:00:00	2024-11-08T07:00:00	8	Radiación solar	7
96945	7	Sololá	717	San Juan la Laguna	12	San Juan la Laguna	12	Diciembre	2023-12-25T00:00:00	2024-11-08T08:00:00	2	Temperatura media	15.3
96946	7	Sololá	717	San Juan la Laguna	12	San Juan la Laguna	12	Diciembre	2023-12-25T00:00:00	2024-11-08T08:00:00	4	Temperatura máxima	15.3
96947	7	Sololá	717	San Juan la Laguna	12	San Juan la Laguna	12	Diciembre	2023-12-25T00:00:00	2024-11-08T08:00:00	3	Temperatura mínima	13.3
96948	7	Sololá	717	San Juan la Laguna	12	San Juan la Laguna	12	Diciembre	2023-12-25T00:00:00	2024-11-08T08:00:00	5	Humedad	86
96949	7	Sololá	717	San Juan la Laguna	12	San Juan la Laguna	12	Diciembre	2023-12-25T00:00:00	2024-11-08T08:00:00	6	Velocidad del viento	4.8
96950	7	Sololá	717	San Juan la Laguna	12	San Juan la Laguna	12	Diciembre	2023-12-25T00:00:00	2024-11-08T08:00:00	7	Dirección del viento	4.83
96951	7	Sololá	717	San Juan la Laguna	12	San Juan la Laguna	12	Diciembre	2023-12-25T00:00:00	2024-11-08T08:00:00	1	Precipitación	0
96952	7	Sololá	717	San Juan la Laguna	12	San Juan la Laguna	12	Diciembre	2023-12-25T00:00:00	2024-11-08T08:00:00	8	Radiación solar	68
96953	7	Sololá	717	San Juan la Laguna	12	San Juan la Laguna	12	Diciembre	2023-12-25T00:00:00	2024-11-08T09:00:00	2	Temperatura media	18.8
96954	7	Sololá	717	San Juan la Laguna	12	San Juan la Laguna	12	Diciembre	2023-12-25T00:00:00	2024-11-08T09:00:00	4	Temperatura máxima	19.1
96955	7	Sololá	717	San Juan la Laguna	12	San Juan la Laguna	12	Diciembre	2023-12-25T00:00:00	2024-11-08T09:00:00	3	Temperatura mínima	15.3
96956	7	Sololá	717	San Juan la Laguna	12	San Juan la Laguna	12	Diciembre	2023-12-25T00:00:00	2024-11-08T09:00:00	5	Humedad	79
96957	7	Sololá	717	San Juan la Laguna	12	San Juan la Laguna	12	Diciembre	2023-12-25T00:00:00	2024-11-08T09:00:00	6	Velocidad del viento	1.6
96958	7	Sololá	717	San Juan la Laguna	12	San Juan la Laguna	12	Diciembre	2023-12-25T00:00:00	2024-11-08T09:00:00	7	Dirección del viento	1.61
96959	7	Sololá	717	San Juan la Laguna	12	San Juan la Laguna	12	Diciembre	2023-12-25T00:00:00	2024-11-08T09:00:00	1	Precipitación	0
96960	7	Sololá	717	San Juan la Laguna	12	San Juan la Laguna	12	Diciembre	2023-12-25T00:00:00	2024-11-08T09:00:00	8	Radiación solar	299
96961	7	Sololá	717	San Juan la Laguna	12	San Juan la Laguna	12	Diciembre	2023-12-25T00:00:00	2024-11-08T10:00:00	2	Temperatura media	20.2
96962	7	Sololá	717	San Juan la Laguna	12	San Juan la Laguna	12	Diciembre	2023-12-25T00:00:00	2024-11-08T10:00:00	4	Temperatura máxima	20.2
96963	7	Sololá	717	San Juan la Laguna	12	San Juan la Laguna	12	Diciembre	2023-12-25T00:00:00	2024-11-08T10:00:00	3	Temperatura mínima	18.8
96964	7	Sololá	717	San Juan la Laguna	12	San Juan la Laguna	12	Diciembre	2023-12-25T00:00:00	2024-11-08T10:00:00	5	Humedad	73
96965	7	Sololá	717	San Juan la Laguna	12	San Juan la Laguna	12	Diciembre	2023-12-25T00:00:00	2024-11-08T10:00:00	6	Velocidad del viento	4.8
96966	7	Sololá	717	San Juan la Laguna	12	San Juan la Laguna	12	Diciembre	2023-12-25T00:00:00	2024-11-08T10:00:00	7	Dirección del viento	4.83
96967	7	Sololá	717	San Juan la Laguna	12	San Juan la Laguna	12	Diciembre	2023-12-25T00:00:00	2024-11-08T10:00:00	1	Precipitación	0
96968	7	Sololá	717	San Juan la Laguna	12	San Juan la Laguna	12	Diciembre	2023-12-25T00:00:00	2024-11-08T10:00:00	8	Radiación solar	529
96969	7	Sololá	717	San Juan la Laguna	12	San Juan la Laguna	12	Diciembre	2023-12-25T00:00:00	2024-11-08T11:00:00	2	Temperatura media	20.9
96970	7	Sololá	717	San Juan la Laguna	12	San Juan la Laguna	12	Diciembre	2023-12-25T00:00:00	2024-11-08T11:00:00	4	Temperatura máxima	20.9
96971	7	Sololá	717	San Juan la Laguna	12	San Juan la Laguna	12	Diciembre	2023-12-25T00:00:00	2024-11-08T11:00:00	3	Temperatura mínima	19.5
96972	7	Sololá	717	San Juan la Laguna	12	San Juan la Laguna	12	Diciembre	2023-12-25T00:00:00	2024-11-08T11:00:00	5	Humedad	71
96973	7	Sololá	717	San Juan la Laguna	12	San Juan la Laguna	12	Diciembre	2023-12-25T00:00:00	2024-11-08T11:00:00	6	Velocidad del viento	8
96974	7	Sololá	717	San Juan la Laguna	12	San Juan la Laguna	12	Diciembre	2023-12-25T00:00:00	2024-11-08T11:00:00	7	Dirección del viento	8.05
96975	7	Sololá	717	San Juan la Laguna	12	San Juan la Laguna	12	Diciembre	2023-12-25T00:00:00	2024-11-08T11:00:00	1	Precipitación	0
96976	7	Sololá	717	San Juan la Laguna	12	San Juan la Laguna	12	Diciembre	2023-12-25T00:00:00	2024-11-08T11:00:00	8	Radiación solar	601
96977	7	Sololá	717	San Juan la Laguna	12	San Juan la Laguna	12	Diciembre	2023-12-25T00:00:00	2024-11-08T12:00:00	2	Temperatura media	21.4
96978	7	Sololá	717	San Juan la Laguna	12	San Juan la Laguna	12	Diciembre	2023-12-25T00:00:00	2024-11-08T12:00:00	4	Temperatura máxima	21.4
96979	7	Sololá	717	San Juan la Laguna	12	San Juan la Laguna	12	Diciembre	2023-12-25T00:00:00	2024-11-08T12:00:00	3	Temperatura mínima	20.4
96980	7	Sololá	717	San Juan la Laguna	12	San Juan la Laguna	12	Diciembre	2023-12-25T00:00:00	2024-11-08T12:00:00	5	Humedad	72
96981	7	Sololá	717	San Juan la Laguna	12	San Juan la Laguna	12	Diciembre	2023-12-25T00:00:00	2024-11-08T12:00:00	6	Velocidad del viento	8
96982	7	Sololá	717	San Juan la Laguna	12	San Juan la Laguna	12	Diciembre	2023-12-25T00:00:00	2024-11-08T12:00:00	7	Dirección del viento	8.05
96983	7	Sololá	717	San Juan la Laguna	12	San Juan la Laguna	12	Diciembre	2023-12-25T00:00:00	2024-11-08T12:00:00	1	Precipitación	0
96984	7	Sololá	717	San Juan la Laguna	12	San Juan la Laguna	12	Diciembre	2023-12-25T00:00:00	2024-11-08T12:00:00	8	Radiación solar	752
96985	7	Sololá	717	San Juan la Laguna	12	San Juan la Laguna	12	Diciembre	2023-12-25T00:00:00	2024-11-08T13:00:00	2	Temperatura media	22.2
96986	7	Sololá	717	San Juan la Laguna	12	San Juan la Laguna	12	Diciembre	2023-12-25T00:00:00	2024-11-08T13:00:00	4	Temperatura máxima	22.3
96987	7	Sololá	717	San Juan la Laguna	12	San Juan la Laguna	12	Diciembre	2023-12-25T00:00:00	2024-11-08T13:00:00	3	Temperatura mínima	20.6
96988	7	Sololá	717	San Juan la Laguna	12	San Juan la Laguna	12	Diciembre	2023-12-25T00:00:00	2024-11-08T13:00:00	5	Humedad	64
96989	7	Sololá	717	San Juan la Laguna	12	San Juan la Laguna	12	Diciembre	2023-12-25T00:00:00	2024-11-08T13:00:00	6	Velocidad del viento	6.4
96990	7	Sololá	717	San Juan la Laguna	12	San Juan la Laguna	12	Diciembre	2023-12-25T00:00:00	2024-11-08T13:00:00	7	Dirección del viento	6.44
96991	7	Sololá	717	San Juan la Laguna	12	San Juan la Laguna	12	Diciembre	2023-12-25T00:00:00	2024-11-08T13:00:00	1	Precipitación	0
96992	7	Sololá	717	San Juan la Laguna	12	San Juan la Laguna	12	Diciembre	2023-12-25T00:00:00	2024-11-08T13:00:00	8	Radiación solar	617
96993	7	Sololá	717	San Juan la Laguna	12	San Juan la Laguna	12	Diciembre	2023-12-25T00:00:00	2024-11-08T14:00:00	2	Temperatura media	21.7
96994	7	Sololá	717	San Juan la Laguna	12	San Juan la Laguna	12	Diciembre	2023-12-25T00:00:00	2024-11-08T14:00:00	4	Temperatura máxima	22.5
96995	7	Sololá	717	San Juan la Laguna	12	San Juan la Laguna	12	Diciembre	2023-12-25T00:00:00	2024-11-08T14:00:00	3	Temperatura mínima	21.3
96996	7	Sololá	717	San Juan la Laguna	12	San Juan la Laguna	12	Diciembre	2023-12-25T00:00:00	2024-11-08T14:00:00	5	Humedad	69
96997	7	Sololá	717	San Juan la Laguna	12	San Juan la Laguna	12	Diciembre	2023-12-25T00:00:00	2024-11-08T14:00:00	6	Velocidad del viento	4.8
96998	7	Sololá	717	San Juan la Laguna	12	San Juan la Laguna	12	Diciembre	2023-12-25T00:00:00	2024-11-08T14:00:00	7	Dirección del viento	4.83
96999	7	Sololá	717	San Juan la Laguna	12	San Juan la Laguna	12	Diciembre	2023-12-25T00:00:00	2024-11-08T14:00:00	1	Precipitación	0
97000	7	Sololá	717	San Juan la Laguna	12	San Juan la Laguna	12	Diciembre	2023-12-25T00:00:00	2024-11-08T14:00:00	8	Radiación solar	323
97001	7	Sololá	717	San Juan la Laguna	12	San Juan la Laguna	12	Diciembre	2023-12-25T00:00:00	2024-11-08T15:00:00	2	Temperatura media	22.3
97002	7	Sololá	717	San Juan la Laguna	12	San Juan la Laguna	12	Diciembre	2023-12-25T00:00:00	2024-11-08T15:00:00	4	Temperatura máxima	23.2
97003	7	Sololá	717	San Juan la Laguna	12	San Juan la Laguna	12	Diciembre	2023-12-25T00:00:00	2024-11-08T15:00:00	3	Temperatura mínima	21.7
97004	7	Sololá	717	San Juan la Laguna	12	San Juan la Laguna	12	Diciembre	2023-12-25T00:00:00	2024-11-08T15:00:00	5	Humedad	67
97005	7	Sololá	717	San Juan la Laguna	12	San Juan la Laguna	12	Diciembre	2023-12-25T00:00:00	2024-11-08T15:00:00	6	Velocidad del viento	8
97006	7	Sololá	717	San Juan la Laguna	12	San Juan la Laguna	12	Diciembre	2023-12-25T00:00:00	2024-11-08T15:00:00	7	Dirección del viento	8.05
97007	7	Sololá	717	San Juan la Laguna	12	San Juan la Laguna	12	Diciembre	2023-12-25T00:00:00	2024-11-08T15:00:00	1	Precipitación	0
97008	7	Sololá	717	San Juan la Laguna	12	San Juan la Laguna	12	Diciembre	2023-12-25T00:00:00	2024-11-08T15:00:00	8	Radiación solar	603
97009	7	Sololá	717	San Juan la Laguna	12	San Juan la Laguna	12	Diciembre	2023-12-25T00:00:00	2024-11-08T16:00:00	2	Temperatura media	21
97010	7	Sololá	717	San Juan la Laguna	12	San Juan la Laguna	12	Diciembre	2023-12-25T00:00:00	2024-11-08T16:00:00	4	Temperatura máxima	22.3
97011	7	Sololá	717	San Juan la Laguna	12	San Juan la Laguna	12	Diciembre	2023-12-25T00:00:00	2024-11-08T16:00:00	3	Temperatura mínima	21
97012	7	Sololá	717	San Juan la Laguna	12	San Juan la Laguna	12	Diciembre	2023-12-25T00:00:00	2024-11-08T16:00:00	5	Humedad	72
97013	7	Sololá	717	San Juan la Laguna	12	San Juan la Laguna	12	Diciembre	2023-12-25T00:00:00	2024-11-08T16:00:00	6	Velocidad del viento	9.7
97014	7	Sololá	717	San Juan la Laguna	12	San Juan la Laguna	12	Diciembre	2023-12-25T00:00:00	2024-11-08T16:00:00	7	Dirección del viento	9.66
97015	7	Sololá	717	San Juan la Laguna	12	San Juan la Laguna	12	Diciembre	2023-12-25T00:00:00	2024-11-08T16:00:00	1	Precipitación	0
97016	7	Sololá	717	San Juan la Laguna	12	San Juan la Laguna	12	Diciembre	2023-12-25T00:00:00	2024-11-08T16:00:00	8	Radiación solar	401
97017	7	Sololá	717	San Juan la Laguna	12	San Juan la Laguna	12	Diciembre	2023-12-25T00:00:00	2024-11-08T17:00:00	2	Temperatura media	20
97018	7	Sololá	717	San Juan la Laguna	12	San Juan la Laguna	12	Diciembre	2023-12-25T00:00:00	2024-11-08T17:00:00	4	Temperatura máxima	21.2
97019	7	Sololá	717	San Juan la Laguna	12	San Juan la Laguna	12	Diciembre	2023-12-25T00:00:00	2024-11-08T17:00:00	3	Temperatura mínima	20
97020	7	Sololá	717	San Juan la Laguna	12	San Juan la Laguna	12	Diciembre	2023-12-25T00:00:00	2024-11-08T17:00:00	5	Humedad	75
97021	7	Sololá	717	San Juan la Laguna	12	San Juan la Laguna	12	Diciembre	2023-12-25T00:00:00	2024-11-08T17:00:00	6	Velocidad del viento	6.4
97022	7	Sololá	717	San Juan la Laguna	12	San Juan la Laguna	12	Diciembre	2023-12-25T00:00:00	2024-11-08T17:00:00	7	Dirección del viento	6.44
97023	7	Sololá	717	San Juan la Laguna	12	San Juan la Laguna	12	Diciembre	2023-12-25T00:00:00	2024-11-08T17:00:00	1	Precipitación	0
97024	7	Sololá	717	San Juan la Laguna	12	San Juan la Laguna	12	Diciembre	2023-12-25T00:00:00	2024-11-08T17:00:00	8	Radiación solar	130
97025	7	Sololá	717	San Juan la Laguna	12	San Juan la Laguna	12	Diciembre	2023-12-25T00:00:00	2024-11-08T18:00:00	2	Temperatura media	18.7
97026	7	Sololá	717	San Juan la Laguna	12	San Juan la Laguna	12	Diciembre	2023-12-25T00:00:00	2024-11-08T18:00:00	4	Temperatura máxima	20
97027	7	Sololá	717	San Juan la Laguna	12	San Juan la Laguna	12	Diciembre	2023-12-25T00:00:00	2024-11-08T18:00:00	3	Temperatura mínima	18.7
97028	7	Sololá	717	San Juan la Laguna	12	San Juan la Laguna	12	Diciembre	2023-12-25T00:00:00	2024-11-08T18:00:00	5	Humedad	81
97029	7	Sololá	717	San Juan la Laguna	12	San Juan la Laguna	12	Diciembre	2023-12-25T00:00:00	2024-11-08T18:00:00	6	Velocidad del viento	4.8
97030	7	Sololá	717	San Juan la Laguna	12	San Juan la Laguna	12	Diciembre	2023-12-25T00:00:00	2024-11-08T18:00:00	7	Dirección del viento	4.83
97031	7	Sololá	717	San Juan la Laguna	12	San Juan la Laguna	12	Diciembre	2023-12-25T00:00:00	2024-11-08T18:00:00	1	Precipitación	0
97032	7	Sololá	717	San Juan la Laguna	12	San Juan la Laguna	12	Diciembre	2023-12-25T00:00:00	2024-11-08T18:00:00	8	Radiación solar	8
97033	7	Sololá	717	San Juan la Laguna	12	San Juan la Laguna	12	Diciembre	2023-12-25T00:00:00	2024-11-08T19:00:00	2	Temperatura media	17.2
97034	7	Sololá	717	San Juan la Laguna	12	San Juan la Laguna	12	Diciembre	2023-12-25T00:00:00	2024-11-08T19:00:00	4	Temperatura máxima	18.7
97035	7	Sololá	717	San Juan la Laguna	12	San Juan la Laguna	12	Diciembre	2023-12-25T00:00:00	2024-11-08T19:00:00	3	Temperatura mínima	17.2
97036	7	Sololá	717	San Juan la Laguna	12	San Juan la Laguna	12	Diciembre	2023-12-25T00:00:00	2024-11-08T19:00:00	5	Humedad	84
97037	7	Sololá	717	San Juan la Laguna	12	San Juan la Laguna	12	Diciembre	2023-12-25T00:00:00	2024-11-08T19:00:00	6	Velocidad del viento	4.8
97038	7	Sololá	717	San Juan la Laguna	12	San Juan la Laguna	12	Diciembre	2023-12-25T00:00:00	2024-11-08T19:00:00	7	Dirección del viento	4.83
97039	7	Sololá	717	San Juan la Laguna	12	San Juan la Laguna	12	Diciembre	2023-12-25T00:00:00	2024-11-08T19:00:00	1	Precipitación	0
97040	7	Sololá	717	San Juan la Laguna	12	San Juan la Laguna	12	Diciembre	2023-12-25T00:00:00	2024-11-08T19:00:00	8	Radiación solar	0
97041	7	Sololá	717	San Juan la Laguna	12	San Juan la Laguna	12	Diciembre	2023-12-25T00:00:00	2024-11-08T20:00:00	2	Temperatura media	16.7
97042	7	Sololá	717	San Juan la Laguna	12	San Juan la Laguna	12	Diciembre	2023-12-25T00:00:00	2024-11-08T20:00:00	4	Temperatura máxima	17.2
97043	7	Sololá	717	San Juan la Laguna	12	San Juan la Laguna	12	Diciembre	2023-12-25T00:00:00	2024-11-08T20:00:00	3	Temperatura mínima	16.6
97044	7	Sololá	717	San Juan la Laguna	12	San Juan la Laguna	12	Diciembre	2023-12-25T00:00:00	2024-11-08T20:00:00	5	Humedad	84
97045	7	Sololá	717	San Juan la Laguna	12	San Juan la Laguna	12	Diciembre	2023-12-25T00:00:00	2024-11-08T20:00:00	6	Velocidad del viento	4.8
97046	7	Sololá	717	San Juan la Laguna	12	San Juan la Laguna	12	Diciembre	2023-12-25T00:00:00	2024-11-08T20:00:00	7	Dirección del viento	4.83
97047	7	Sololá	717	San Juan la Laguna	12	San Juan la Laguna	12	Diciembre	2023-12-25T00:00:00	2024-11-08T20:00:00	1	Precipitación	0
97048	7	Sololá	717	San Juan la Laguna	12	San Juan la Laguna	12	Diciembre	2023-12-25T00:00:00	2024-11-08T20:00:00	8	Radiación solar	0
97049	7	Sololá	717	San Juan la Laguna	12	San Juan la Laguna	12	Diciembre	2023-12-25T00:00:00	2024-11-08T21:00:00	2	Temperatura media	16.3
97050	7	Sololá	717	San Juan la Laguna	12	San Juan la Laguna	12	Diciembre	2023-12-25T00:00:00	2024-11-08T21:00:00	4	Temperatura máxima	16.7
97051	7	Sololá	717	San Juan la Laguna	12	San Juan la Laguna	12	Diciembre	2023-12-25T00:00:00	2024-11-08T21:00:00	3	Temperatura mínima	16.3
97052	7	Sololá	717	San Juan la Laguna	12	San Juan la Laguna	12	Diciembre	2023-12-25T00:00:00	2024-11-08T21:00:00	5	Humedad	84
97053	7	Sololá	717	San Juan la Laguna	12	San Juan la Laguna	12	Diciembre	2023-12-25T00:00:00	2024-11-08T21:00:00	6	Velocidad del viento	4.8
97054	7	Sololá	717	San Juan la Laguna	12	San Juan la Laguna	12	Diciembre	2023-12-25T00:00:00	2024-11-08T21:00:00	7	Dirección del viento	4.83
97055	7	Sololá	717	San Juan la Laguna	12	San Juan la Laguna	12	Diciembre	2023-12-25T00:00:00	2024-11-08T21:00:00	1	Precipitación	0
97056	7	Sololá	717	San Juan la Laguna	12	San Juan la Laguna	12	Diciembre	2023-12-25T00:00:00	2024-11-08T21:00:00	8	Radiación solar	0
97057	7	Sololá	717	San Juan la Laguna	12	San Juan la Laguna	12	Diciembre	2023-12-25T00:00:00	2024-11-08T22:00:00	2	Temperatura media	15.8
97058	7	Sololá	717	San Juan la Laguna	12	San Juan la Laguna	12	Diciembre	2023-12-25T00:00:00	2024-11-08T22:00:00	4	Temperatura máxima	16.3
97059	7	Sololá	717	San Juan la Laguna	12	San Juan la Laguna	12	Diciembre	2023-12-25T00:00:00	2024-11-08T22:00:00	3	Temperatura mínima	15.8
97060	7	Sololá	717	San Juan la Laguna	12	San Juan la Laguna	12	Diciembre	2023-12-25T00:00:00	2024-11-08T22:00:00	5	Humedad	85
97061	7	Sololá	717	San Juan la Laguna	12	San Juan la Laguna	12	Diciembre	2023-12-25T00:00:00	2024-11-08T22:00:00	6	Velocidad del viento	4.8
97062	7	Sololá	717	San Juan la Laguna	12	San Juan la Laguna	12	Diciembre	2023-12-25T00:00:00	2024-11-08T22:00:00	7	Dirección del viento	4.83
97063	7	Sololá	717	San Juan la Laguna	12	San Juan la Laguna	12	Diciembre	2023-12-25T00:00:00	2024-11-08T22:00:00	1	Precipitación	0
97064	7	Sololá	717	San Juan la Laguna	12	San Juan la Laguna	12	Diciembre	2023-12-25T00:00:00	2024-11-08T22:00:00	8	Radiación solar	0
97065	7	Sololá	717	San Juan la Laguna	12	San Juan la Laguna	12	Diciembre	2023-12-25T00:00:00	2024-11-08T23:00:00	2	Temperatura media	14.9
97066	7	Sololá	717	San Juan la Laguna	12	San Juan la Laguna	12	Diciembre	2023-12-25T00:00:00	2024-11-08T23:00:00	4	Temperatura máxima	15.8
97067	7	Sololá	717	San Juan la Laguna	12	San Juan la Laguna	12	Diciembre	2023-12-25T00:00:00	2024-11-08T23:00:00	3	Temperatura mínima	14.9
97068	7	Sololá	717	San Juan la Laguna	12	San Juan la Laguna	12	Diciembre	2023-12-25T00:00:00	2024-11-08T23:00:00	5	Humedad	85
97069	7	Sololá	717	San Juan la Laguna	12	San Juan la Laguna	12	Diciembre	2023-12-25T00:00:00	2024-11-08T23:00:00	6	Velocidad del viento	4.8
97070	7	Sololá	717	San Juan la Laguna	12	San Juan la Laguna	12	Diciembre	2023-12-25T00:00:00	2024-11-08T23:00:00	7	Dirección del viento	4.83
97071	7	Sololá	717	San Juan la Laguna	12	San Juan la Laguna	12	Diciembre	2023-12-25T00:00:00	2024-11-08T23:00:00	1	Precipitación	0
97072	7	Sololá	717	San Juan la Laguna	12	San Juan la Laguna	12	Diciembre	2023-12-25T00:00:00	2024-11-08T23:00:00	8	Radiación solar	0
97073	7	Sololá	717	San Juan la Laguna	12	San Juan la Laguna	12	Diciembre	2023-12-26T00:00:00	2024-11-08T00:00:00	2	Temperatura media	14.3
97074	7	Sololá	717	San Juan la Laguna	12	San Juan la Laguna	12	Diciembre	2023-12-26T00:00:00	2024-11-08T00:00:00	4	Temperatura máxima	14.9
97075	7	Sololá	717	San Juan la Laguna	12	San Juan la Laguna	12	Diciembre	2023-12-26T00:00:00	2024-11-08T00:00:00	3	Temperatura mínima	14.3
97076	7	Sololá	717	San Juan la Laguna	12	San Juan la Laguna	12	Diciembre	2023-12-26T00:00:00	2024-11-08T00:00:00	5	Humedad	87
97077	7	Sololá	717	San Juan la Laguna	12	San Juan la Laguna	12	Diciembre	2023-12-26T00:00:00	2024-11-08T00:00:00	6	Velocidad del viento	4.8
97078	7	Sololá	717	San Juan la Laguna	12	San Juan la Laguna	12	Diciembre	2023-12-26T00:00:00	2024-11-08T00:00:00	7	Dirección del viento	4.83
97079	7	Sololá	717	San Juan la Laguna	12	San Juan la Laguna	12	Diciembre	2023-12-26T00:00:00	2024-11-08T00:00:00	1	Precipitación	0
97080	7	Sololá	717	San Juan la Laguna	12	San Juan la Laguna	12	Diciembre	2023-12-26T00:00:00	2024-11-08T00:00:00	8	Radiación solar	0
97081	7	Sololá	717	San Juan la Laguna	12	San Juan la Laguna	12	Diciembre	2023-12-26T00:00:00	2024-11-08T01:00:00	2	Temperatura media	14.3
97082	7	Sololá	717	San Juan la Laguna	12	San Juan la Laguna	12	Diciembre	2023-12-26T00:00:00	2024-11-08T01:00:00	4	Temperatura máxima	14.7
97083	7	Sololá	717	San Juan la Laguna	12	San Juan la Laguna	12	Diciembre	2023-12-26T00:00:00	2024-11-08T01:00:00	3	Temperatura mínima	14.3
97084	7	Sololá	717	San Juan la Laguna	12	San Juan la Laguna	12	Diciembre	2023-12-26T00:00:00	2024-11-08T01:00:00	5	Humedad	88
97085	7	Sololá	717	San Juan la Laguna	12	San Juan la Laguna	12	Diciembre	2023-12-26T00:00:00	2024-11-08T01:00:00	6	Velocidad del viento	4.8
97086	7	Sololá	717	San Juan la Laguna	12	San Juan la Laguna	12	Diciembre	2023-12-26T00:00:00	2024-11-08T01:00:00	7	Dirección del viento	4.83
97087	7	Sololá	717	San Juan la Laguna	12	San Juan la Laguna	12	Diciembre	2023-12-26T00:00:00	2024-11-08T01:00:00	1	Precipitación	0
97088	7	Sololá	717	San Juan la Laguna	12	San Juan la Laguna	12	Diciembre	2023-12-26T00:00:00	2024-11-08T01:00:00	8	Radiación solar	0
97089	7	Sololá	717	San Juan la Laguna	12	San Juan la Laguna	12	Diciembre	2023-12-26T00:00:00	2024-11-08T02:00:00	2	Temperatura media	14.1
97090	7	Sololá	717	San Juan la Laguna	12	San Juan la Laguna	12	Diciembre	2023-12-26T00:00:00	2024-11-08T02:00:00	4	Temperatura máxima	14.3
97091	7	Sololá	717	San Juan la Laguna	12	San Juan la Laguna	12	Diciembre	2023-12-26T00:00:00	2024-11-08T02:00:00	3	Temperatura mínima	13.9
97092	7	Sololá	717	San Juan la Laguna	12	San Juan la Laguna	12	Diciembre	2023-12-26T00:00:00	2024-11-08T02:00:00	5	Humedad	84
97093	7	Sololá	717	San Juan la Laguna	12	San Juan la Laguna	12	Diciembre	2023-12-26T00:00:00	2024-11-08T02:00:00	6	Velocidad del viento	4.8
97094	7	Sololá	717	San Juan la Laguna	12	San Juan la Laguna	12	Diciembre	2023-12-26T00:00:00	2024-11-08T02:00:00	7	Dirección del viento	4.83
97095	7	Sololá	717	San Juan la Laguna	12	San Juan la Laguna	12	Diciembre	2023-12-26T00:00:00	2024-11-08T02:00:00	1	Precipitación	0
97096	7	Sololá	717	San Juan la Laguna	12	San Juan la Laguna	12	Diciembre	2023-12-26T00:00:00	2024-11-08T02:00:00	8	Radiación solar	0
97097	7	Sololá	717	San Juan la Laguna	12	San Juan la Laguna	12	Diciembre	2023-12-26T00:00:00	2024-11-08T03:00:00	2	Temperatura media	13.7
97098	7	Sololá	717	San Juan la Laguna	12	San Juan la Laguna	12	Diciembre	2023-12-26T00:00:00	2024-11-08T03:00:00	4	Temperatura máxima	14.1
97099	7	Sololá	717	San Juan la Laguna	12	San Juan la Laguna	12	Diciembre	2023-12-26T00:00:00	2024-11-08T03:00:00	3	Temperatura mínima	13.6
97100	7	Sololá	717	San Juan la Laguna	12	San Juan la Laguna	12	Diciembre	2023-12-26T00:00:00	2024-11-08T03:00:00	5	Humedad	83
97101	7	Sololá	717	San Juan la Laguna	12	San Juan la Laguna	12	Diciembre	2023-12-26T00:00:00	2024-11-08T03:00:00	6	Velocidad del viento	3.2
97102	7	Sololá	717	San Juan la Laguna	12	San Juan la Laguna	12	Diciembre	2023-12-26T00:00:00	2024-11-08T03:00:00	7	Dirección del viento	3.22
97103	7	Sololá	717	San Juan la Laguna	12	San Juan la Laguna	12	Diciembre	2023-12-26T00:00:00	2024-11-08T03:00:00	1	Precipitación	0
97104	7	Sololá	717	San Juan la Laguna	12	San Juan la Laguna	12	Diciembre	2023-12-26T00:00:00	2024-11-08T03:00:00	8	Radiación solar	0
97105	7	Sololá	717	San Juan la Laguna	12	San Juan la Laguna	12	Diciembre	2023-12-26T00:00:00	2024-11-08T04:00:00	2	Temperatura media	13.6
97106	7	Sololá	717	San Juan la Laguna	12	San Juan la Laguna	12	Diciembre	2023-12-26T00:00:00	2024-11-08T04:00:00	4	Temperatura máxima	13.7
97107	7	Sololá	717	San Juan la Laguna	12	San Juan la Laguna	12	Diciembre	2023-12-26T00:00:00	2024-11-08T04:00:00	3	Temperatura mínima	13.3
97108	7	Sololá	717	San Juan la Laguna	12	San Juan la Laguna	12	Diciembre	2023-12-26T00:00:00	2024-11-08T04:00:00	5	Humedad	83
97109	7	Sololá	717	San Juan la Laguna	12	San Juan la Laguna	12	Diciembre	2023-12-26T00:00:00	2024-11-08T04:00:00	6	Velocidad del viento	4.8
97110	7	Sololá	717	San Juan la Laguna	12	San Juan la Laguna	12	Diciembre	2023-12-26T00:00:00	2024-11-08T04:00:00	7	Dirección del viento	4.83
97111	7	Sololá	717	San Juan la Laguna	12	San Juan la Laguna	12	Diciembre	2023-12-26T00:00:00	2024-11-08T04:00:00	1	Precipitación	0
97112	7	Sololá	717	San Juan la Laguna	12	San Juan la Laguna	12	Diciembre	2023-12-26T00:00:00	2024-11-08T04:00:00	8	Radiación solar	0
97113	7	Sololá	717	San Juan la Laguna	12	San Juan la Laguna	12	Diciembre	2023-12-26T00:00:00	2024-11-08T05:00:00	2	Temperatura media	13.1
97114	7	Sololá	717	San Juan la Laguna	12	San Juan la Laguna	12	Diciembre	2023-12-26T00:00:00	2024-11-08T05:00:00	4	Temperatura máxima	13.6
97115	7	Sololá	717	San Juan la Laguna	12	San Juan la Laguna	12	Diciembre	2023-12-26T00:00:00	2024-11-08T05:00:00	3	Temperatura mínima	13.1
97116	7	Sololá	717	San Juan la Laguna	12	San Juan la Laguna	12	Diciembre	2023-12-26T00:00:00	2024-11-08T05:00:00	5	Humedad	85
97117	7	Sololá	717	San Juan la Laguna	12	San Juan la Laguna	12	Diciembre	2023-12-26T00:00:00	2024-11-08T05:00:00	6	Velocidad del viento	3.2
97118	7	Sololá	717	San Juan la Laguna	12	San Juan la Laguna	12	Diciembre	2023-12-26T00:00:00	2024-11-08T05:00:00	7	Dirección del viento	3.22
97119	7	Sololá	717	San Juan la Laguna	12	San Juan la Laguna	12	Diciembre	2023-12-26T00:00:00	2024-11-08T05:00:00	1	Precipitación	0
97120	7	Sololá	717	San Juan la Laguna	12	San Juan la Laguna	12	Diciembre	2023-12-26T00:00:00	2024-11-08T05:00:00	8	Radiación solar	0
97121	7	Sololá	717	San Juan la Laguna	12	San Juan la Laguna	12	Diciembre	2023-12-26T00:00:00	2024-11-08T06:00:00	2	Temperatura media	13.1
97122	7	Sololá	717	San Juan la Laguna	12	San Juan la Laguna	12	Diciembre	2023-12-26T00:00:00	2024-11-08T06:00:00	4	Temperatura máxima	13.2
97123	7	Sololá	717	San Juan la Laguna	12	San Juan la Laguna	12	Diciembre	2023-12-26T00:00:00	2024-11-08T06:00:00	3	Temperatura mínima	12.7
97124	7	Sololá	717	San Juan la Laguna	12	San Juan la Laguna	12	Diciembre	2023-12-26T00:00:00	2024-11-08T06:00:00	5	Humedad	85
97125	7	Sololá	717	San Juan la Laguna	12	San Juan la Laguna	12	Diciembre	2023-12-26T00:00:00	2024-11-08T06:00:00	6	Velocidad del viento	4.8
97126	7	Sololá	717	San Juan la Laguna	12	San Juan la Laguna	12	Diciembre	2023-12-26T00:00:00	2024-11-08T06:00:00	7	Dirección del viento	4.83
97127	7	Sololá	717	San Juan la Laguna	12	San Juan la Laguna	12	Diciembre	2023-12-26T00:00:00	2024-11-08T06:00:00	1	Precipitación	0
97128	7	Sololá	717	San Juan la Laguna	12	San Juan la Laguna	12	Diciembre	2023-12-26T00:00:00	2024-11-08T06:00:00	8	Radiación solar	0
97129	7	Sololá	717	San Juan la Laguna	12	San Juan la Laguna	12	Diciembre	2023-12-26T00:00:00	2024-11-08T07:00:00	2	Temperatura media	12.7
97130	7	Sololá	717	San Juan la Laguna	12	San Juan la Laguna	12	Diciembre	2023-12-26T00:00:00	2024-11-08T07:00:00	4	Temperatura máxima	13.2
97131	7	Sololá	717	San Juan la Laguna	12	San Juan la Laguna	12	Diciembre	2023-12-26T00:00:00	2024-11-08T07:00:00	3	Temperatura mínima	12.7
97132	7	Sololá	717	San Juan la Laguna	12	San Juan la Laguna	12	Diciembre	2023-12-26T00:00:00	2024-11-08T07:00:00	5	Humedad	86
97133	7	Sololá	717	San Juan la Laguna	12	San Juan la Laguna	12	Diciembre	2023-12-26T00:00:00	2024-11-08T07:00:00	6	Velocidad del viento	3.2
97134	7	Sololá	717	San Juan la Laguna	12	San Juan la Laguna	12	Diciembre	2023-12-26T00:00:00	2024-11-08T07:00:00	7	Dirección del viento	3.22
97135	7	Sololá	717	San Juan la Laguna	12	San Juan la Laguna	12	Diciembre	2023-12-26T00:00:00	2024-11-08T07:00:00	1	Precipitación	0
97136	7	Sololá	717	San Juan la Laguna	12	San Juan la Laguna	12	Diciembre	2023-12-26T00:00:00	2024-11-08T07:00:00	8	Radiación solar	7
97137	7	Sololá	717	San Juan la Laguna	12	San Juan la Laguna	12	Diciembre	2023-12-26T00:00:00	2024-11-08T08:00:00	2	Temperatura media	15.5
97138	7	Sololá	717	San Juan la Laguna	12	San Juan la Laguna	12	Diciembre	2023-12-26T00:00:00	2024-11-08T08:00:00	4	Temperatura máxima	15.5
97139	7	Sololá	717	San Juan la Laguna	12	San Juan la Laguna	12	Diciembre	2023-12-26T00:00:00	2024-11-08T08:00:00	3	Temperatura mínima	12.7
97140	7	Sololá	717	San Juan la Laguna	12	San Juan la Laguna	12	Diciembre	2023-12-26T00:00:00	2024-11-08T08:00:00	5	Humedad	84
97141	7	Sololá	717	San Juan la Laguna	12	San Juan la Laguna	12	Diciembre	2023-12-26T00:00:00	2024-11-08T08:00:00	6	Velocidad del viento	3.2
97142	7	Sololá	717	San Juan la Laguna	12	San Juan la Laguna	12	Diciembre	2023-12-26T00:00:00	2024-11-08T08:00:00	7	Dirección del viento	3.22
97143	7	Sololá	717	San Juan la Laguna	12	San Juan la Laguna	12	Diciembre	2023-12-26T00:00:00	2024-11-08T08:00:00	1	Precipitación	0
97144	7	Sololá	717	San Juan la Laguna	12	San Juan la Laguna	12	Diciembre	2023-12-26T00:00:00	2024-11-08T08:00:00	8	Radiación solar	123
97145	7	Sololá	717	San Juan la Laguna	12	San Juan la Laguna	12	Diciembre	2023-12-26T00:00:00	2024-11-08T09:00:00	2	Temperatura media	18.8
97146	7	Sololá	717	San Juan la Laguna	12	San Juan la Laguna	12	Diciembre	2023-12-26T00:00:00	2024-11-08T09:00:00	4	Temperatura máxima	18.8
97147	7	Sololá	717	San Juan la Laguna	12	San Juan la Laguna	12	Diciembre	2023-12-26T00:00:00	2024-11-08T09:00:00	3	Temperatura mínima	15.6
97148	7	Sololá	717	San Juan la Laguna	12	San Juan la Laguna	12	Diciembre	2023-12-26T00:00:00	2024-11-08T09:00:00	5	Humedad	77
97149	7	Sololá	717	San Juan la Laguna	12	San Juan la Laguna	12	Diciembre	2023-12-26T00:00:00	2024-11-08T09:00:00	6	Velocidad del viento	3.2
97150	7	Sololá	717	San Juan la Laguna	12	San Juan la Laguna	12	Diciembre	2023-12-26T00:00:00	2024-11-08T09:00:00	7	Dirección del viento	3.22
97151	7	Sololá	717	San Juan la Laguna	12	San Juan la Laguna	12	Diciembre	2023-12-26T00:00:00	2024-11-08T09:00:00	1	Precipitación	0
97152	7	Sololá	717	San Juan la Laguna	12	San Juan la Laguna	12	Diciembre	2023-12-26T00:00:00	2024-11-08T09:00:00	8	Radiación solar	338
97153	7	Sololá	717	San Juan la Laguna	12	San Juan la Laguna	12	Diciembre	2023-12-26T00:00:00	2024-11-08T10:00:00	2	Temperatura media	19.9
97154	7	Sololá	717	San Juan la Laguna	12	San Juan la Laguna	12	Diciembre	2023-12-26T00:00:00	2024-11-08T10:00:00	4	Temperatura máxima	19.9
97155	7	Sololá	717	San Juan la Laguna	12	San Juan la Laguna	12	Diciembre	2023-12-26T00:00:00	2024-11-08T10:00:00	3	Temperatura mínima	18.8
97156	7	Sololá	717	San Juan la Laguna	12	San Juan la Laguna	12	Diciembre	2023-12-26T00:00:00	2024-11-08T10:00:00	5	Humedad	73
97157	7	Sololá	717	San Juan la Laguna	12	San Juan la Laguna	12	Diciembre	2023-12-26T00:00:00	2024-11-08T10:00:00	6	Velocidad del viento	4.8
97158	7	Sololá	717	San Juan la Laguna	12	San Juan la Laguna	12	Diciembre	2023-12-26T00:00:00	2024-11-08T10:00:00	7	Dirección del viento	4.83
97159	7	Sololá	717	San Juan la Laguna	12	San Juan la Laguna	12	Diciembre	2023-12-26T00:00:00	2024-11-08T10:00:00	1	Precipitación	0
97160	7	Sololá	717	San Juan la Laguna	12	San Juan la Laguna	12	Diciembre	2023-12-26T00:00:00	2024-11-08T10:00:00	8	Radiación solar	521
97161	7	Sololá	717	San Juan la Laguna	12	San Juan la Laguna	12	Diciembre	2023-12-26T00:00:00	2024-11-08T11:00:00	2	Temperatura media	21.3
97162	7	Sololá	717	San Juan la Laguna	12	San Juan la Laguna	12	Diciembre	2023-12-26T00:00:00	2024-11-08T11:00:00	4	Temperatura máxima	21.5
97163	7	Sololá	717	San Juan la Laguna	12	San Juan la Laguna	12	Diciembre	2023-12-26T00:00:00	2024-11-08T11:00:00	3	Temperatura mínima	19.8
97164	7	Sololá	717	San Juan la Laguna	12	San Juan la Laguna	12	Diciembre	2023-12-26T00:00:00	2024-11-08T11:00:00	5	Humedad	61
97165	7	Sololá	717	San Juan la Laguna	12	San Juan la Laguna	12	Diciembre	2023-12-26T00:00:00	2024-11-08T11:00:00	6	Velocidad del viento	6.4
97166	7	Sololá	717	San Juan la Laguna	12	San Juan la Laguna	12	Diciembre	2023-12-26T00:00:00	2024-11-08T11:00:00	7	Dirección del viento	6.44
97167	7	Sololá	717	San Juan la Laguna	12	San Juan la Laguna	12	Diciembre	2023-12-26T00:00:00	2024-11-08T11:00:00	1	Precipitación	0
97168	7	Sololá	717	San Juan la Laguna	12	San Juan la Laguna	12	Diciembre	2023-12-26T00:00:00	2024-11-08T11:00:00	8	Radiación solar	567
97169	7	Sololá	717	San Juan la Laguna	12	San Juan la Laguna	12	Diciembre	2023-12-26T00:00:00	2024-11-08T12:00:00	2	Temperatura media	22
97170	7	Sololá	717	San Juan la Laguna	12	San Juan la Laguna	12	Diciembre	2023-12-26T00:00:00	2024-11-08T12:00:00	4	Temperatura máxima	22.1
97171	7	Sololá	717	San Juan la Laguna	12	San Juan la Laguna	12	Diciembre	2023-12-26T00:00:00	2024-11-08T12:00:00	3	Temperatura mínima	21.3
97172	7	Sololá	717	San Juan la Laguna	12	San Juan la Laguna	12	Diciembre	2023-12-26T00:00:00	2024-11-08T12:00:00	5	Humedad	61
97173	7	Sololá	717	San Juan la Laguna	12	San Juan la Laguna	12	Diciembre	2023-12-26T00:00:00	2024-11-08T12:00:00	6	Velocidad del viento	6.4
97174	7	Sololá	717	San Juan la Laguna	12	San Juan la Laguna	12	Diciembre	2023-12-26T00:00:00	2024-11-08T12:00:00	7	Dirección del viento	6.44
97175	7	Sololá	717	San Juan la Laguna	12	San Juan la Laguna	12	Diciembre	2023-12-26T00:00:00	2024-11-08T12:00:00	1	Precipitación	0
97176	7	Sololá	717	San Juan la Laguna	12	San Juan la Laguna	12	Diciembre	2023-12-26T00:00:00	2024-11-08T12:00:00	8	Radiación solar	708
97177	7	Sololá	717	San Juan la Laguna	12	San Juan la Laguna	12	Diciembre	2023-12-26T00:00:00	2024-11-08T13:00:00	2	Temperatura media	23.7
97178	7	Sololá	717	San Juan la Laguna	12	San Juan la Laguna	12	Diciembre	2023-12-26T00:00:00	2024-11-08T13:00:00	4	Temperatura máxima	23.7
97179	7	Sololá	717	San Juan la Laguna	12	San Juan la Laguna	12	Diciembre	2023-12-26T00:00:00	2024-11-08T13:00:00	3	Temperatura mínima	21.5
97180	7	Sololá	717	San Juan la Laguna	12	San Juan la Laguna	12	Diciembre	2023-12-26T00:00:00	2024-11-08T13:00:00	5	Humedad	57
97181	7	Sololá	717	San Juan la Laguna	12	San Juan la Laguna	12	Diciembre	2023-12-26T00:00:00	2024-11-08T13:00:00	6	Velocidad del viento	8
97182	7	Sololá	717	San Juan la Laguna	12	San Juan la Laguna	12	Diciembre	2023-12-26T00:00:00	2024-11-08T13:00:00	7	Dirección del viento	8.05
97183	7	Sololá	717	San Juan la Laguna	12	San Juan la Laguna	12	Diciembre	2023-12-26T00:00:00	2024-11-08T13:00:00	1	Precipitación	0
97184	7	Sololá	717	San Juan la Laguna	12	San Juan la Laguna	12	Diciembre	2023-12-26T00:00:00	2024-11-08T13:00:00	8	Radiación solar	705
97185	7	Sololá	717	San Juan la Laguna	12	San Juan la Laguna	12	Diciembre	2023-12-26T00:00:00	2024-11-08T14:00:00	2	Temperatura media	23.1
97186	7	Sololá	717	San Juan la Laguna	12	San Juan la Laguna	12	Diciembre	2023-12-26T00:00:00	2024-11-08T14:00:00	4	Temperatura máxima	23.7
97187	7	Sololá	717	San Juan la Laguna	12	San Juan la Laguna	12	Diciembre	2023-12-26T00:00:00	2024-11-08T14:00:00	3	Temperatura mínima	22.5
97188	7	Sololá	717	San Juan la Laguna	12	San Juan la Laguna	12	Diciembre	2023-12-26T00:00:00	2024-11-08T14:00:00	5	Humedad	61
97189	7	Sololá	717	San Juan la Laguna	12	San Juan la Laguna	12	Diciembre	2023-12-26T00:00:00	2024-11-08T14:00:00	6	Velocidad del viento	12.9
97190	7	Sololá	717	San Juan la Laguna	12	San Juan la Laguna	12	Diciembre	2023-12-26T00:00:00	2024-11-08T14:00:00	7	Dirección del viento	12.87
97191	7	Sololá	717	San Juan la Laguna	12	San Juan la Laguna	12	Diciembre	2023-12-26T00:00:00	2024-11-08T14:00:00	1	Precipitación	0
97192	7	Sololá	717	San Juan la Laguna	12	San Juan la Laguna	12	Diciembre	2023-12-26T00:00:00	2024-11-08T14:00:00	8	Radiación solar	703
97193	7	Sololá	717	San Juan la Laguna	12	San Juan la Laguna	12	Diciembre	2023-12-26T00:00:00	2024-11-08T15:00:00	2	Temperatura media	22.3
97194	7	Sololá	717	San Juan la Laguna	12	San Juan la Laguna	12	Diciembre	2023-12-26T00:00:00	2024-11-08T15:00:00	4	Temperatura máxima	23.1
97195	7	Sololá	717	San Juan la Laguna	12	San Juan la Laguna	12	Diciembre	2023-12-26T00:00:00	2024-11-08T15:00:00	3	Temperatura mínima	22
97196	7	Sololá	717	San Juan la Laguna	12	San Juan la Laguna	12	Diciembre	2023-12-26T00:00:00	2024-11-08T15:00:00	5	Humedad	67
97197	7	Sololá	717	San Juan la Laguna	12	San Juan la Laguna	12	Diciembre	2023-12-26T00:00:00	2024-11-08T15:00:00	6	Velocidad del viento	12.9
97198	7	Sololá	717	San Juan la Laguna	12	San Juan la Laguna	12	Diciembre	2023-12-26T00:00:00	2024-11-08T15:00:00	7	Dirección del viento	12.87
97199	7	Sololá	717	San Juan la Laguna	12	San Juan la Laguna	12	Diciembre	2023-12-26T00:00:00	2024-11-08T15:00:00	1	Precipitación	0
97200	7	Sololá	717	San Juan la Laguna	12	San Juan la Laguna	12	Diciembre	2023-12-26T00:00:00	2024-11-08T15:00:00	8	Radiación solar	526
97201	7	Sololá	717	San Juan la Laguna	12	San Juan la Laguna	12	Diciembre	2023-12-26T00:00:00	2024-11-08T16:00:00	2	Temperatura media	20.5
97202	7	Sololá	717	San Juan la Laguna	12	San Juan la Laguna	12	Diciembre	2023-12-26T00:00:00	2024-11-08T16:00:00	4	Temperatura máxima	22.3
97203	7	Sololá	717	San Juan la Laguna	12	San Juan la Laguna	12	Diciembre	2023-12-26T00:00:00	2024-11-08T16:00:00	3	Temperatura mínima	20.5
97204	7	Sololá	717	San Juan la Laguna	12	San Juan la Laguna	12	Diciembre	2023-12-26T00:00:00	2024-11-08T16:00:00	5	Humedad	75
97205	7	Sololá	717	San Juan la Laguna	12	San Juan la Laguna	12	Diciembre	2023-12-26T00:00:00	2024-11-08T16:00:00	6	Velocidad del viento	9.7
97206	7	Sololá	717	San Juan la Laguna	12	San Juan la Laguna	12	Diciembre	2023-12-26T00:00:00	2024-11-08T16:00:00	7	Dirección del viento	9.66
97207	7	Sololá	717	San Juan la Laguna	12	San Juan la Laguna	12	Diciembre	2023-12-26T00:00:00	2024-11-08T16:00:00	1	Precipitación	0
97208	7	Sololá	717	San Juan la Laguna	12	San Juan la Laguna	12	Diciembre	2023-12-26T00:00:00	2024-11-08T16:00:00	8	Radiación solar	351
97209	7	Sololá	717	San Juan la Laguna	12	San Juan la Laguna	12	Diciembre	2023-12-26T00:00:00	2024-11-08T17:00:00	2	Temperatura media	19.6
97210	7	Sololá	717	San Juan la Laguna	12	San Juan la Laguna	12	Diciembre	2023-12-26T00:00:00	2024-11-08T17:00:00	4	Temperatura máxima	20.5
97211	7	Sololá	717	San Juan la Laguna	12	San Juan la Laguna	12	Diciembre	2023-12-26T00:00:00	2024-11-08T17:00:00	3	Temperatura mínima	19.6
97212	7	Sololá	717	San Juan la Laguna	12	San Juan la Laguna	12	Diciembre	2023-12-26T00:00:00	2024-11-08T17:00:00	5	Humedad	79
97213	7	Sololá	717	San Juan la Laguna	12	San Juan la Laguna	12	Diciembre	2023-12-26T00:00:00	2024-11-08T17:00:00	6	Velocidad del viento	8
97214	7	Sololá	717	San Juan la Laguna	12	San Juan la Laguna	12	Diciembre	2023-12-26T00:00:00	2024-11-08T17:00:00	7	Dirección del viento	8.05
97215	7	Sololá	717	San Juan la Laguna	12	San Juan la Laguna	12	Diciembre	2023-12-26T00:00:00	2024-11-08T17:00:00	1	Precipitación	0
97216	7	Sololá	717	San Juan la Laguna	12	San Juan la Laguna	12	Diciembre	2023-12-26T00:00:00	2024-11-08T17:00:00	8	Radiación solar	63
97217	7	Sololá	717	San Juan la Laguna	12	San Juan la Laguna	12	Diciembre	2023-12-26T00:00:00	2024-11-08T18:00:00	2	Temperatura media	18.4
97218	7	Sololá	717	San Juan la Laguna	12	San Juan la Laguna	12	Diciembre	2023-12-26T00:00:00	2024-11-08T18:00:00	4	Temperatura máxima	19.6
97219	7	Sololá	717	San Juan la Laguna	12	San Juan la Laguna	12	Diciembre	2023-12-26T00:00:00	2024-11-08T18:00:00	3	Temperatura mínima	18.4
97220	7	Sololá	717	San Juan la Laguna	12	San Juan la Laguna	12	Diciembre	2023-12-26T00:00:00	2024-11-08T18:00:00	5	Humedad	80
97221	7	Sololá	717	San Juan la Laguna	12	San Juan la Laguna	12	Diciembre	2023-12-26T00:00:00	2024-11-08T18:00:00	6	Velocidad del viento	6.4
97222	7	Sololá	717	San Juan la Laguna	12	San Juan la Laguna	12	Diciembre	2023-12-26T00:00:00	2024-11-08T18:00:00	7	Dirección del viento	6.44
97223	7	Sololá	717	San Juan la Laguna	12	San Juan la Laguna	12	Diciembre	2023-12-26T00:00:00	2024-11-08T18:00:00	1	Precipitación	0
97224	7	Sololá	717	San Juan la Laguna	12	San Juan la Laguna	12	Diciembre	2023-12-26T00:00:00	2024-11-08T18:00:00	8	Radiación solar	8
97225	7	Sololá	717	San Juan la Laguna	12	San Juan la Laguna	12	Diciembre	2023-12-26T00:00:00	2024-11-08T19:00:00	2	Temperatura media	17.7
97226	7	Sololá	717	San Juan la Laguna	12	San Juan la Laguna	12	Diciembre	2023-12-26T00:00:00	2024-11-08T19:00:00	4	Temperatura máxima	18.5
97227	7	Sololá	717	San Juan la Laguna	12	San Juan la Laguna	12	Diciembre	2023-12-26T00:00:00	2024-11-08T19:00:00	3	Temperatura mínima	17.7
97228	7	Sololá	717	San Juan la Laguna	12	San Juan la Laguna	12	Diciembre	2023-12-26T00:00:00	2024-11-08T19:00:00	5	Humedad	83
97229	7	Sololá	717	San Juan la Laguna	12	San Juan la Laguna	12	Diciembre	2023-12-26T00:00:00	2024-11-08T19:00:00	6	Velocidad del viento	3.2
97230	7	Sololá	717	San Juan la Laguna	12	San Juan la Laguna	12	Diciembre	2023-12-26T00:00:00	2024-11-08T19:00:00	7	Dirección del viento	3.22
97231	7	Sololá	717	San Juan la Laguna	12	San Juan la Laguna	12	Diciembre	2023-12-26T00:00:00	2024-11-08T19:00:00	1	Precipitación	0
97232	7	Sololá	717	San Juan la Laguna	12	San Juan la Laguna	12	Diciembre	2023-12-26T00:00:00	2024-11-08T19:00:00	8	Radiación solar	0
97233	7	Sololá	717	San Juan la Laguna	12	San Juan la Laguna	12	Diciembre	2023-12-26T00:00:00	2024-11-08T20:00:00	2	Temperatura media	18.2
97234	7	Sololá	717	San Juan la Laguna	12	San Juan la Laguna	12	Diciembre	2023-12-26T00:00:00	2024-11-08T20:00:00	4	Temperatura máxima	18.2
97235	7	Sololá	717	San Juan la Laguna	12	San Juan la Laguna	12	Diciembre	2023-12-26T00:00:00	2024-11-08T20:00:00	3	Temperatura mínima	17.7
97236	7	Sololá	717	San Juan la Laguna	12	San Juan la Laguna	12	Diciembre	2023-12-26T00:00:00	2024-11-08T20:00:00	5	Humedad	83
97237	7	Sololá	717	San Juan la Laguna	12	San Juan la Laguna	12	Diciembre	2023-12-26T00:00:00	2024-11-08T20:00:00	6	Velocidad del viento	3.2
97238	7	Sololá	717	San Juan la Laguna	12	San Juan la Laguna	12	Diciembre	2023-12-26T00:00:00	2024-11-08T20:00:00	7	Dirección del viento	3.22
97239	7	Sololá	717	San Juan la Laguna	12	San Juan la Laguna	12	Diciembre	2023-12-26T00:00:00	2024-11-08T20:00:00	1	Precipitación	0
97240	7	Sololá	717	San Juan la Laguna	12	San Juan la Laguna	12	Diciembre	2023-12-26T00:00:00	2024-11-08T20:00:00	8	Radiación solar	0
97241	7	Sololá	717	San Juan la Laguna	12	San Juan la Laguna	12	Diciembre	2023-12-26T00:00:00	2024-11-08T21:00:00	2	Temperatura media	17.6
97242	7	Sololá	717	San Juan la Laguna	12	San Juan la Laguna	12	Diciembre	2023-12-26T00:00:00	2024-11-08T21:00:00	4	Temperatura máxima	18.2
97243	7	Sololá	717	San Juan la Laguna	12	San Juan la Laguna	12	Diciembre	2023-12-26T00:00:00	2024-11-08T21:00:00	3	Temperatura mínima	17.6
97244	7	Sololá	717	San Juan la Laguna	12	San Juan la Laguna	12	Diciembre	2023-12-26T00:00:00	2024-11-08T21:00:00	5	Humedad	85
97245	7	Sololá	717	San Juan la Laguna	12	San Juan la Laguna	12	Diciembre	2023-12-26T00:00:00	2024-11-08T21:00:00	6	Velocidad del viento	3.2
97246	7	Sololá	717	San Juan la Laguna	12	San Juan la Laguna	12	Diciembre	2023-12-26T00:00:00	2024-11-08T21:00:00	7	Dirección del viento	3.22
97247	7	Sololá	717	San Juan la Laguna	12	San Juan la Laguna	12	Diciembre	2023-12-26T00:00:00	2024-11-08T21:00:00	1	Precipitación	0
97248	7	Sololá	717	San Juan la Laguna	12	San Juan la Laguna	12	Diciembre	2023-12-26T00:00:00	2024-11-08T21:00:00	8	Radiación solar	0
97249	7	Sololá	717	San Juan la Laguna	12	San Juan la Laguna	12	Diciembre	2023-12-26T00:00:00	2024-11-08T22:00:00	2	Temperatura media	17.7
97250	7	Sololá	717	San Juan la Laguna	12	San Juan la Laguna	12	Diciembre	2023-12-26T00:00:00	2024-11-08T22:00:00	4	Temperatura máxima	17.7
97251	7	Sololá	717	San Juan la Laguna	12	San Juan la Laguna	12	Diciembre	2023-12-26T00:00:00	2024-11-08T22:00:00	3	Temperatura mínima	17.3
97252	7	Sololá	717	San Juan la Laguna	12	San Juan la Laguna	12	Diciembre	2023-12-26T00:00:00	2024-11-08T22:00:00	5	Humedad	83
97253	7	Sololá	717	San Juan la Laguna	12	San Juan la Laguna	12	Diciembre	2023-12-26T00:00:00	2024-11-08T22:00:00	6	Velocidad del viento	3.2
97254	7	Sololá	717	San Juan la Laguna	12	San Juan la Laguna	12	Diciembre	2023-12-26T00:00:00	2024-11-08T22:00:00	7	Dirección del viento	3.22
97255	7	Sololá	717	San Juan la Laguna	12	San Juan la Laguna	12	Diciembre	2023-12-26T00:00:00	2024-11-08T22:00:00	1	Precipitación	0
97256	7	Sololá	717	San Juan la Laguna	12	San Juan la Laguna	12	Diciembre	2023-12-26T00:00:00	2024-11-08T22:00:00	8	Radiación solar	0
97257	7	Sololá	717	San Juan la Laguna	12	San Juan la Laguna	12	Diciembre	2023-12-26T00:00:00	2024-11-08T23:00:00	2	Temperatura media	16.7
97258	7	Sololá	717	San Juan la Laguna	12	San Juan la Laguna	12	Diciembre	2023-12-26T00:00:00	2024-11-08T23:00:00	4	Temperatura máxima	17.7
97259	7	Sololá	717	San Juan la Laguna	12	San Juan la Laguna	12	Diciembre	2023-12-26T00:00:00	2024-11-08T23:00:00	3	Temperatura mínima	16.7
97260	7	Sololá	717	San Juan la Laguna	12	San Juan la Laguna	12	Diciembre	2023-12-26T00:00:00	2024-11-08T23:00:00	5	Humedad	85
97261	7	Sololá	717	San Juan la Laguna	12	San Juan la Laguna	12	Diciembre	2023-12-26T00:00:00	2024-11-08T23:00:00	6	Velocidad del viento	4.8
97262	7	Sololá	717	San Juan la Laguna	12	San Juan la Laguna	12	Diciembre	2023-12-26T00:00:00	2024-11-08T23:00:00	7	Dirección del viento	4.83
97263	7	Sololá	717	San Juan la Laguna	12	San Juan la Laguna	12	Diciembre	2023-12-26T00:00:00	2024-11-08T23:00:00	1	Precipitación	0
97264	7	Sololá	717	San Juan la Laguna	12	San Juan la Laguna	12	Diciembre	2023-12-26T00:00:00	2024-11-08T23:00:00	8	Radiación solar	0
97265	7	Sololá	717	San Juan la Laguna	12	San Juan la Laguna	12	Diciembre	2023-12-27T00:00:00	2024-11-08T00:00:00	2	Temperatura media	15.8
97266	7	Sololá	717	San Juan la Laguna	12	San Juan la Laguna	12	Diciembre	2023-12-27T00:00:00	2024-11-08T00:00:00	4	Temperatura máxima	16.7
97267	7	Sololá	717	San Juan la Laguna	12	San Juan la Laguna	12	Diciembre	2023-12-27T00:00:00	2024-11-08T00:00:00	3	Temperatura mínima	15.5
97268	7	Sololá	717	San Juan la Laguna	12	San Juan la Laguna	12	Diciembre	2023-12-27T00:00:00	2024-11-08T00:00:00	5	Humedad	84
97269	7	Sololá	717	San Juan la Laguna	12	San Juan la Laguna	12	Diciembre	2023-12-27T00:00:00	2024-11-08T00:00:00	6	Velocidad del viento	4.8
97270	7	Sololá	717	San Juan la Laguna	12	San Juan la Laguna	12	Diciembre	2023-12-27T00:00:00	2024-11-08T00:00:00	7	Dirección del viento	4.83
97271	7	Sololá	717	San Juan la Laguna	12	San Juan la Laguna	12	Diciembre	2023-12-27T00:00:00	2024-11-08T00:00:00	1	Precipitación	0
97272	7	Sololá	717	San Juan la Laguna	12	San Juan la Laguna	12	Diciembre	2023-12-27T00:00:00	2024-11-08T00:00:00	8	Radiación solar	0
97273	7	Sololá	717	San Juan la Laguna	12	San Juan la Laguna	12	Diciembre	2023-12-27T00:00:00	2024-11-08T01:00:00	2	Temperatura media	15
97274	7	Sololá	717	San Juan la Laguna	12	San Juan la Laguna	12	Diciembre	2023-12-27T00:00:00	2024-11-08T01:00:00	4	Temperatura máxima	15.8
97275	7	Sololá	717	San Juan la Laguna	12	San Juan la Laguna	12	Diciembre	2023-12-27T00:00:00	2024-11-08T01:00:00	3	Temperatura mínima	15
97276	7	Sololá	717	San Juan la Laguna	12	San Juan la Laguna	12	Diciembre	2023-12-27T00:00:00	2024-11-08T01:00:00	5	Humedad	82
97277	7	Sololá	717	San Juan la Laguna	12	San Juan la Laguna	12	Diciembre	2023-12-27T00:00:00	2024-11-08T01:00:00	6	Velocidad del viento	6.4
97278	7	Sololá	717	San Juan la Laguna	12	San Juan la Laguna	12	Diciembre	2023-12-27T00:00:00	2024-11-08T01:00:00	7	Dirección del viento	6.44
97279	7	Sololá	717	San Juan la Laguna	12	San Juan la Laguna	12	Diciembre	2023-12-27T00:00:00	2024-11-08T01:00:00	1	Precipitación	0
97280	7	Sololá	717	San Juan la Laguna	12	San Juan la Laguna	12	Diciembre	2023-12-27T00:00:00	2024-11-08T01:00:00	8	Radiación solar	0
97281	7	Sololá	717	San Juan la Laguna	12	San Juan la Laguna	12	Diciembre	2023-12-27T00:00:00	2024-11-08T02:00:00	2	Temperatura media	14.3
97282	7	Sololá	717	San Juan la Laguna	12	San Juan la Laguna	12	Diciembre	2023-12-27T00:00:00	2024-11-08T02:00:00	4	Temperatura máxima	15
97283	7	Sololá	717	San Juan la Laguna	12	San Juan la Laguna	12	Diciembre	2023-12-27T00:00:00	2024-11-08T02:00:00	3	Temperatura mínima	14.3
97284	7	Sololá	717	San Juan la Laguna	12	San Juan la Laguna	12	Diciembre	2023-12-27T00:00:00	2024-11-08T02:00:00	5	Humedad	83
97285	7	Sololá	717	San Juan la Laguna	12	San Juan la Laguna	12	Diciembre	2023-12-27T00:00:00	2024-11-08T02:00:00	6	Velocidad del viento	6.4
97286	7	Sololá	717	San Juan la Laguna	12	San Juan la Laguna	12	Diciembre	2023-12-27T00:00:00	2024-11-08T02:00:00	7	Dirección del viento	6.44
97287	7	Sololá	717	San Juan la Laguna	12	San Juan la Laguna	12	Diciembre	2023-12-27T00:00:00	2024-11-08T02:00:00	1	Precipitación	0
97288	7	Sololá	717	San Juan la Laguna	12	San Juan la Laguna	12	Diciembre	2023-12-27T00:00:00	2024-11-08T02:00:00	8	Radiación solar	0
97289	7	Sololá	717	San Juan la Laguna	12	San Juan la Laguna	12	Diciembre	2023-12-27T00:00:00	2024-11-08T03:00:00	2	Temperatura media	13.8
97290	7	Sololá	717	San Juan la Laguna	12	San Juan la Laguna	12	Diciembre	2023-12-27T00:00:00	2024-11-08T03:00:00	4	Temperatura máxima	14.3
97291	7	Sololá	717	San Juan la Laguna	12	San Juan la Laguna	12	Diciembre	2023-12-27T00:00:00	2024-11-08T03:00:00	3	Temperatura mínima	13.6
97292	7	Sololá	717	San Juan la Laguna	12	San Juan la Laguna	12	Diciembre	2023-12-27T00:00:00	2024-11-08T03:00:00	5	Humedad	79
97293	7	Sololá	717	San Juan la Laguna	12	San Juan la Laguna	12	Diciembre	2023-12-27T00:00:00	2024-11-08T03:00:00	6	Velocidad del viento	6.4
97294	7	Sololá	717	San Juan la Laguna	12	San Juan la Laguna	12	Diciembre	2023-12-27T00:00:00	2024-11-08T03:00:00	7	Dirección del viento	6.44
97295	7	Sololá	717	San Juan la Laguna	12	San Juan la Laguna	12	Diciembre	2023-12-27T00:00:00	2024-11-08T03:00:00	1	Precipitación	0
97296	7	Sololá	717	San Juan la Laguna	12	San Juan la Laguna	12	Diciembre	2023-12-27T00:00:00	2024-11-08T03:00:00	8	Radiación solar	0
97297	7	Sololá	717	San Juan la Laguna	12	San Juan la Laguna	12	Diciembre	2023-12-27T00:00:00	2024-11-08T04:00:00	2	Temperatura media	13
97298	7	Sololá	717	San Juan la Laguna	12	San Juan la Laguna	12	Diciembre	2023-12-27T00:00:00	2024-11-08T04:00:00	4	Temperatura máxima	13.8
97299	7	Sololá	717	San Juan la Laguna	12	San Juan la Laguna	12	Diciembre	2023-12-27T00:00:00	2024-11-08T04:00:00	3	Temperatura mínima	13
97300	7	Sololá	717	San Juan la Laguna	12	San Juan la Laguna	12	Diciembre	2023-12-27T00:00:00	2024-11-08T04:00:00	5	Humedad	78
97301	7	Sololá	717	San Juan la Laguna	12	San Juan la Laguna	12	Diciembre	2023-12-27T00:00:00	2024-11-08T04:00:00	6	Velocidad del viento	6.4
97302	7	Sololá	717	San Juan la Laguna	12	San Juan la Laguna	12	Diciembre	2023-12-27T00:00:00	2024-11-08T04:00:00	7	Dirección del viento	6.44
97303	7	Sololá	717	San Juan la Laguna	12	San Juan la Laguna	12	Diciembre	2023-12-27T00:00:00	2024-11-08T04:00:00	1	Precipitación	0
97304	7	Sololá	717	San Juan la Laguna	12	San Juan la Laguna	12	Diciembre	2023-12-27T00:00:00	2024-11-08T04:00:00	8	Radiación solar	0
97305	7	Sololá	717	San Juan la Laguna	12	San Juan la Laguna	12	Diciembre	2023-12-27T00:00:00	2024-11-08T05:00:00	2	Temperatura media	13.6
97306	7	Sololá	717	San Juan la Laguna	12	San Juan la Laguna	12	Diciembre	2023-12-27T00:00:00	2024-11-08T05:00:00	4	Temperatura máxima	13.7
97307	7	Sololá	717	San Juan la Laguna	12	San Juan la Laguna	12	Diciembre	2023-12-27T00:00:00	2024-11-08T05:00:00	3	Temperatura mínima	12.8
97308	7	Sololá	717	San Juan la Laguna	12	San Juan la Laguna	12	Diciembre	2023-12-27T00:00:00	2024-11-08T05:00:00	5	Humedad	78
97309	7	Sololá	717	San Juan la Laguna	12	San Juan la Laguna	12	Diciembre	2023-12-27T00:00:00	2024-11-08T05:00:00	6	Velocidad del viento	6.4
97310	7	Sololá	717	San Juan la Laguna	12	San Juan la Laguna	12	Diciembre	2023-12-27T00:00:00	2024-11-08T05:00:00	7	Dirección del viento	6.44
97311	7	Sololá	717	San Juan la Laguna	12	San Juan la Laguna	12	Diciembre	2023-12-27T00:00:00	2024-11-08T05:00:00	1	Precipitación	0
97312	7	Sololá	717	San Juan la Laguna	12	San Juan la Laguna	12	Diciembre	2023-12-27T00:00:00	2024-11-08T05:00:00	8	Radiación solar	0
97313	7	Sololá	717	San Juan la Laguna	12	San Juan la Laguna	12	Diciembre	2023-12-27T00:00:00	2024-11-08T06:00:00	2	Temperatura media	12.5
97314	7	Sololá	717	San Juan la Laguna	12	San Juan la Laguna	12	Diciembre	2023-12-27T00:00:00	2024-11-08T06:00:00	4	Temperatura máxima	13.6
97315	7	Sololá	717	San Juan la Laguna	12	San Juan la Laguna	12	Diciembre	2023-12-27T00:00:00	2024-11-08T06:00:00	3	Temperatura mínima	12.5
97316	7	Sololá	717	San Juan la Laguna	12	San Juan la Laguna	12	Diciembre	2023-12-27T00:00:00	2024-11-08T06:00:00	5	Humedad	80
97317	7	Sololá	717	San Juan la Laguna	12	San Juan la Laguna	12	Diciembre	2023-12-27T00:00:00	2024-11-08T06:00:00	6	Velocidad del viento	4.8
97318	7	Sololá	717	San Juan la Laguna	12	San Juan la Laguna	12	Diciembre	2023-12-27T00:00:00	2024-11-08T06:00:00	7	Dirección del viento	4.83
97319	7	Sololá	717	San Juan la Laguna	12	San Juan la Laguna	12	Diciembre	2023-12-27T00:00:00	2024-11-08T06:00:00	1	Precipitación	0
97320	7	Sololá	717	San Juan la Laguna	12	San Juan la Laguna	12	Diciembre	2023-12-27T00:00:00	2024-11-08T06:00:00	8	Radiación solar	0
97321	7	Sololá	717	San Juan la Laguna	12	San Juan la Laguna	12	Diciembre	2023-12-27T00:00:00	2024-11-08T07:00:00	2	Temperatura media	12.3
97322	7	Sololá	717	San Juan la Laguna	12	San Juan la Laguna	12	Diciembre	2023-12-27T00:00:00	2024-11-08T07:00:00	4	Temperatura máxima	12.5
97323	7	Sololá	717	San Juan la Laguna	12	San Juan la Laguna	12	Diciembre	2023-12-27T00:00:00	2024-11-08T07:00:00	3	Temperatura mínima	12.3
97324	7	Sololá	717	San Juan la Laguna	12	San Juan la Laguna	12	Diciembre	2023-12-27T00:00:00	2024-11-08T07:00:00	5	Humedad	80
97325	7	Sololá	717	San Juan la Laguna	12	San Juan la Laguna	12	Diciembre	2023-12-27T00:00:00	2024-11-08T07:00:00	6	Velocidad del viento	4.8
97326	7	Sololá	717	San Juan la Laguna	12	San Juan la Laguna	12	Diciembre	2023-12-27T00:00:00	2024-11-08T07:00:00	7	Dirección del viento	4.83
97327	7	Sololá	717	San Juan la Laguna	12	San Juan la Laguna	12	Diciembre	2023-12-27T00:00:00	2024-11-08T07:00:00	1	Precipitación	0
97328	7	Sololá	717	San Juan la Laguna	12	San Juan la Laguna	12	Diciembre	2023-12-27T00:00:00	2024-11-08T07:00:00	8	Radiación solar	8
97329	7	Sololá	717	San Juan la Laguna	12	San Juan la Laguna	12	Diciembre	2023-12-27T00:00:00	2024-11-08T08:00:00	2	Temperatura media	14.8
97330	7	Sololá	717	San Juan la Laguna	12	San Juan la Laguna	12	Diciembre	2023-12-27T00:00:00	2024-11-08T08:00:00	4	Temperatura máxima	14.8
97331	7	Sololá	717	San Juan la Laguna	12	San Juan la Laguna	12	Diciembre	2023-12-27T00:00:00	2024-11-08T08:00:00	3	Temperatura mínima	12.3
97332	7	Sololá	717	San Juan la Laguna	12	San Juan la Laguna	12	Diciembre	2023-12-27T00:00:00	2024-11-08T08:00:00	5	Humedad	75
97333	7	Sololá	717	San Juan la Laguna	12	San Juan la Laguna	12	Diciembre	2023-12-27T00:00:00	2024-11-08T08:00:00	6	Velocidad del viento	4.8
97334	7	Sololá	717	San Juan la Laguna	12	San Juan la Laguna	12	Diciembre	2023-12-27T00:00:00	2024-11-08T08:00:00	7	Dirección del viento	4.83
97335	7	Sololá	717	San Juan la Laguna	12	San Juan la Laguna	12	Diciembre	2023-12-27T00:00:00	2024-11-08T08:00:00	1	Precipitación	0
97336	7	Sololá	717	San Juan la Laguna	12	San Juan la Laguna	12	Diciembre	2023-12-27T00:00:00	2024-11-08T08:00:00	8	Radiación solar	111
97337	7	Sololá	717	San Juan la Laguna	12	San Juan la Laguna	12	Diciembre	2023-12-27T00:00:00	2024-11-08T09:00:00	2	Temperatura media	17.9
97338	7	Sololá	717	San Juan la Laguna	12	San Juan la Laguna	12	Diciembre	2023-12-27T00:00:00	2024-11-08T09:00:00	4	Temperatura máxima	18.2
97339	7	Sololá	717	San Juan la Laguna	12	San Juan la Laguna	12	Diciembre	2023-12-27T00:00:00	2024-11-08T09:00:00	3	Temperatura mínima	14.8
97340	7	Sololá	717	San Juan la Laguna	12	San Juan la Laguna	12	Diciembre	2023-12-27T00:00:00	2024-11-08T09:00:00	5	Humedad	76
97341	7	Sololá	717	San Juan la Laguna	12	San Juan la Laguna	12	Diciembre	2023-12-27T00:00:00	2024-11-08T09:00:00	6	Velocidad del viento	3.2
97342	7	Sololá	717	San Juan la Laguna	12	San Juan la Laguna	12	Diciembre	2023-12-27T00:00:00	2024-11-08T09:00:00	7	Dirección del viento	3.22
97343	7	Sololá	717	San Juan la Laguna	12	San Juan la Laguna	12	Diciembre	2023-12-27T00:00:00	2024-11-08T09:00:00	1	Precipitación	0
97344	7	Sololá	717	San Juan la Laguna	12	San Juan la Laguna	12	Diciembre	2023-12-27T00:00:00	2024-11-08T09:00:00	8	Radiación solar	337
97345	7	Sololá	717	San Juan la Laguna	12	San Juan la Laguna	12	Diciembre	2023-12-27T00:00:00	2024-11-08T10:00:00	2	Temperatura media	19.2
97346	7	Sololá	717	San Juan la Laguna	12	San Juan la Laguna	12	Diciembre	2023-12-27T00:00:00	2024-11-08T10:00:00	4	Temperatura máxima	19.2
97347	7	Sololá	717	San Juan la Laguna	12	San Juan la Laguna	12	Diciembre	2023-12-27T00:00:00	2024-11-08T10:00:00	3	Temperatura mínima	17.9
97348	7	Sololá	717	San Juan la Laguna	12	San Juan la Laguna	12	Diciembre	2023-12-27T00:00:00	2024-11-08T10:00:00	5	Humedad	72
97349	7	Sololá	717	San Juan la Laguna	12	San Juan la Laguna	12	Diciembre	2023-12-27T00:00:00	2024-11-08T10:00:00	6	Velocidad del viento	4.8
97350	7	Sololá	717	San Juan la Laguna	12	San Juan la Laguna	12	Diciembre	2023-12-27T00:00:00	2024-11-08T10:00:00	7	Dirección del viento	4.83
97351	7	Sololá	717	San Juan la Laguna	12	San Juan la Laguna	12	Diciembre	2023-12-27T00:00:00	2024-11-08T10:00:00	1	Precipitación	0
97352	7	Sololá	717	San Juan la Laguna	12	San Juan la Laguna	12	Diciembre	2023-12-27T00:00:00	2024-11-08T10:00:00	8	Radiación solar	377
97353	7	Sololá	717	San Juan la Laguna	12	San Juan la Laguna	12	Diciembre	2023-12-27T00:00:00	2024-11-08T11:00:00	2	Temperatura media	20.6
97354	7	Sololá	717	San Juan la Laguna	12	San Juan la Laguna	12	Diciembre	2023-12-27T00:00:00	2024-11-08T11:00:00	4	Temperatura máxima	20.7
97355	7	Sololá	717	San Juan la Laguna	12	San Juan la Laguna	12	Diciembre	2023-12-27T00:00:00	2024-11-08T11:00:00	3	Temperatura mínima	19.2
97356	7	Sololá	717	San Juan la Laguna	12	San Juan la Laguna	12	Diciembre	2023-12-27T00:00:00	2024-11-08T11:00:00	5	Humedad	59
97357	7	Sololá	717	San Juan la Laguna	12	San Juan la Laguna	12	Diciembre	2023-12-27T00:00:00	2024-11-08T11:00:00	6	Velocidad del viento	4.8
97358	7	Sololá	717	San Juan la Laguna	12	San Juan la Laguna	12	Diciembre	2023-12-27T00:00:00	2024-11-08T11:00:00	7	Dirección del viento	4.83
97359	7	Sololá	717	San Juan la Laguna	12	San Juan la Laguna	12	Diciembre	2023-12-27T00:00:00	2024-11-08T11:00:00	1	Precipitación	0
97360	7	Sololá	717	San Juan la Laguna	12	San Juan la Laguna	12	Diciembre	2023-12-27T00:00:00	2024-11-08T11:00:00	8	Radiación solar	393
97361	7	Sololá	717	San Juan la Laguna	12	San Juan la Laguna	12	Diciembre	2023-12-27T00:00:00	2024-11-08T12:00:00	2	Temperatura media	21.1
97362	7	Sololá	717	San Juan la Laguna	12	San Juan la Laguna	12	Diciembre	2023-12-27T00:00:00	2024-11-08T12:00:00	4	Temperatura máxima	21.7
97363	7	Sololá	717	San Juan la Laguna	12	San Juan la Laguna	12	Diciembre	2023-12-27T00:00:00	2024-11-08T12:00:00	3	Temperatura mínima	20.6
97364	7	Sololá	717	San Juan la Laguna	12	San Juan la Laguna	12	Diciembre	2023-12-27T00:00:00	2024-11-08T12:00:00	5	Humedad	63
97365	7	Sololá	717	San Juan la Laguna	12	San Juan la Laguna	12	Diciembre	2023-12-27T00:00:00	2024-11-08T12:00:00	6	Velocidad del viento	6.4
97366	7	Sololá	717	San Juan la Laguna	12	San Juan la Laguna	12	Diciembre	2023-12-27T00:00:00	2024-11-08T12:00:00	7	Dirección del viento	6.44
97367	7	Sololá	717	San Juan la Laguna	12	San Juan la Laguna	12	Diciembre	2023-12-27T00:00:00	2024-11-08T12:00:00	1	Precipitación	0
97368	7	Sololá	717	San Juan la Laguna	12	San Juan la Laguna	12	Diciembre	2023-12-27T00:00:00	2024-11-08T12:00:00	8	Radiación solar	708
97369	7	Sololá	717	San Juan la Laguna	12	San Juan la Laguna	12	Diciembre	2023-12-27T00:00:00	2024-11-08T13:00:00	2	Temperatura media	22.5
97370	7	Sololá	717	San Juan la Laguna	12	San Juan la Laguna	12	Diciembre	2023-12-27T00:00:00	2024-11-08T13:00:00	4	Temperatura máxima	22.6
97371	7	Sololá	717	San Juan la Laguna	12	San Juan la Laguna	12	Diciembre	2023-12-27T00:00:00	2024-11-08T13:00:00	3	Temperatura mínima	20.9
97372	7	Sololá	717	San Juan la Laguna	12	San Juan la Laguna	12	Diciembre	2023-12-27T00:00:00	2024-11-08T13:00:00	5	Humedad	54
97373	7	Sololá	717	San Juan la Laguna	12	San Juan la Laguna	12	Diciembre	2023-12-27T00:00:00	2024-11-08T13:00:00	6	Velocidad del viento	8
97374	7	Sololá	717	San Juan la Laguna	12	San Juan la Laguna	12	Diciembre	2023-12-27T00:00:00	2024-11-08T13:00:00	7	Dirección del viento	8.05
97375	7	Sololá	717	San Juan la Laguna	12	San Juan la Laguna	12	Diciembre	2023-12-27T00:00:00	2024-11-08T13:00:00	1	Precipitación	0
97376	7	Sololá	717	San Juan la Laguna	12	San Juan la Laguna	12	Diciembre	2023-12-27T00:00:00	2024-11-08T13:00:00	8	Radiación solar	734
97377	7	Sololá	717	San Juan la Laguna	12	San Juan la Laguna	12	Diciembre	2023-12-27T00:00:00	2024-11-08T14:00:00	2	Temperatura media	22.4
97378	7	Sololá	717	San Juan la Laguna	12	San Juan la Laguna	12	Diciembre	2023-12-27T00:00:00	2024-11-08T14:00:00	4	Temperatura máxima	23.1
97379	7	Sololá	717	San Juan la Laguna	12	San Juan la Laguna	12	Diciembre	2023-12-27T00:00:00	2024-11-08T14:00:00	3	Temperatura mínima	22.3
97380	7	Sololá	717	San Juan la Laguna	12	San Juan la Laguna	12	Diciembre	2023-12-27T00:00:00	2024-11-08T14:00:00	5	Humedad	60
97381	7	Sololá	717	San Juan la Laguna	12	San Juan la Laguna	12	Diciembre	2023-12-27T00:00:00	2024-11-08T14:00:00	6	Velocidad del viento	9.7
97382	7	Sololá	717	San Juan la Laguna	12	San Juan la Laguna	12	Diciembre	2023-12-27T00:00:00	2024-11-08T14:00:00	7	Dirección del viento	9.66
97383	7	Sololá	717	San Juan la Laguna	12	San Juan la Laguna	12	Diciembre	2023-12-27T00:00:00	2024-11-08T14:00:00	1	Precipitación	0
97384	7	Sololá	717	San Juan la Laguna	12	San Juan la Laguna	12	Diciembre	2023-12-27T00:00:00	2024-11-08T14:00:00	8	Radiación solar	694
97385	7	Sololá	717	San Juan la Laguna	12	San Juan la Laguna	12	Diciembre	2023-12-27T00:00:00	2024-11-08T15:00:00	2	Temperatura media	22.3
97386	7	Sololá	717	San Juan la Laguna	12	San Juan la Laguna	12	Diciembre	2023-12-27T00:00:00	2024-11-08T15:00:00	4	Temperatura máxima	23.1
97387	7	Sololá	717	San Juan la Laguna	12	San Juan la Laguna	12	Diciembre	2023-12-27T00:00:00	2024-11-08T15:00:00	3	Temperatura mínima	22.1
97388	7	Sololá	717	San Juan la Laguna	12	San Juan la Laguna	12	Diciembre	2023-12-27T00:00:00	2024-11-08T15:00:00	5	Humedad	62
97389	7	Sololá	717	San Juan la Laguna	12	San Juan la Laguna	12	Diciembre	2023-12-27T00:00:00	2024-11-08T15:00:00	6	Velocidad del viento	9.7
97390	7	Sololá	717	San Juan la Laguna	12	San Juan la Laguna	12	Diciembre	2023-12-27T00:00:00	2024-11-08T15:00:00	7	Dirección del viento	9.66
97391	7	Sololá	717	San Juan la Laguna	12	San Juan la Laguna	12	Diciembre	2023-12-27T00:00:00	2024-11-08T15:00:00	1	Precipitación	0
97392	7	Sololá	717	San Juan la Laguna	12	San Juan la Laguna	12	Diciembre	2023-12-27T00:00:00	2024-11-08T15:00:00	8	Radiación solar	571
97393	7	Sololá	717	San Juan la Laguna	12	San Juan la Laguna	12	Diciembre	2023-12-27T00:00:00	2024-11-08T16:00:00	2	Temperatura media	21.2
97394	7	Sololá	717	San Juan la Laguna	12	San Juan la Laguna	12	Diciembre	2023-12-27T00:00:00	2024-11-08T16:00:00	4	Temperatura máxima	22.3
97395	7	Sololá	717	San Juan la Laguna	12	San Juan la Laguna	12	Diciembre	2023-12-27T00:00:00	2024-11-08T16:00:00	3	Temperatura mínima	21.2
97396	7	Sololá	717	San Juan la Laguna	12	San Juan la Laguna	12	Diciembre	2023-12-27T00:00:00	2024-11-08T16:00:00	5	Humedad	69
97397	7	Sololá	717	San Juan la Laguna	12	San Juan la Laguna	12	Diciembre	2023-12-27T00:00:00	2024-11-08T16:00:00	6	Velocidad del viento	9.7
97398	7	Sololá	717	San Juan la Laguna	12	San Juan la Laguna	12	Diciembre	2023-12-27T00:00:00	2024-11-08T16:00:00	7	Dirección del viento	9.66
97399	7	Sololá	717	San Juan la Laguna	12	San Juan la Laguna	12	Diciembre	2023-12-27T00:00:00	2024-11-08T16:00:00	1	Precipitación	0
97400	7	Sololá	717	San Juan la Laguna	12	San Juan la Laguna	12	Diciembre	2023-12-27T00:00:00	2024-11-08T16:00:00	8	Radiación solar	376
97401	7	Sololá	717	San Juan la Laguna	12	San Juan la Laguna	12	Diciembre	2023-12-27T00:00:00	2024-11-08T17:00:00	2	Temperatura media	19.3
97402	7	Sololá	717	San Juan la Laguna	12	San Juan la Laguna	12	Diciembre	2023-12-27T00:00:00	2024-11-08T17:00:00	4	Temperatura máxima	21.2
97403	7	Sololá	717	San Juan la Laguna	12	San Juan la Laguna	12	Diciembre	2023-12-27T00:00:00	2024-11-08T17:00:00	3	Temperatura mínima	19.3
97404	7	Sololá	717	San Juan la Laguna	12	San Juan la Laguna	12	Diciembre	2023-12-27T00:00:00	2024-11-08T17:00:00	5	Humedad	78
97405	7	Sololá	717	San Juan la Laguna	12	San Juan la Laguna	12	Diciembre	2023-12-27T00:00:00	2024-11-08T17:00:00	6	Velocidad del viento	9.7
97406	7	Sololá	717	San Juan la Laguna	12	San Juan la Laguna	12	Diciembre	2023-12-27T00:00:00	2024-11-08T17:00:00	7	Dirección del viento	9.66
97407	7	Sololá	717	San Juan la Laguna	12	San Juan la Laguna	12	Diciembre	2023-12-27T00:00:00	2024-11-08T17:00:00	1	Precipitación	0
97408	7	Sololá	717	San Juan la Laguna	12	San Juan la Laguna	12	Diciembre	2023-12-27T00:00:00	2024-11-08T17:00:00	8	Radiación solar	90
97409	7	Sololá	717	San Juan la Laguna	12	San Juan la Laguna	12	Diciembre	2023-12-27T00:00:00	2024-11-08T18:00:00	2	Temperatura media	17.9
97410	7	Sololá	717	San Juan la Laguna	12	San Juan la Laguna	12	Diciembre	2023-12-27T00:00:00	2024-11-08T18:00:00	4	Temperatura máxima	19.3
97411	7	Sololá	717	San Juan la Laguna	12	San Juan la Laguna	12	Diciembre	2023-12-27T00:00:00	2024-11-08T18:00:00	3	Temperatura mínima	17.9
97412	7	Sololá	717	San Juan la Laguna	12	San Juan la Laguna	12	Diciembre	2023-12-27T00:00:00	2024-11-08T18:00:00	5	Humedad	79
97413	7	Sololá	717	San Juan la Laguna	12	San Juan la Laguna	12	Diciembre	2023-12-27T00:00:00	2024-11-08T18:00:00	6	Velocidad del viento	6.4
97414	7	Sololá	717	San Juan la Laguna	12	San Juan la Laguna	12	Diciembre	2023-12-27T00:00:00	2024-11-08T18:00:00	7	Dirección del viento	6.44
97415	7	Sololá	717	San Juan la Laguna	12	San Juan la Laguna	12	Diciembre	2023-12-27T00:00:00	2024-11-08T18:00:00	1	Precipitación	0
97416	7	Sololá	717	San Juan la Laguna	12	San Juan la Laguna	12	Diciembre	2023-12-27T00:00:00	2024-11-08T18:00:00	8	Radiación solar	11
97417	7	Sololá	717	San Juan la Laguna	12	San Juan la Laguna	12	Diciembre	2023-12-27T00:00:00	2024-11-08T19:00:00	2	Temperatura media	16.4
97418	7	Sololá	717	San Juan la Laguna	12	San Juan la Laguna	12	Diciembre	2023-12-27T00:00:00	2024-11-08T19:00:00	4	Temperatura máxima	17.9
97419	7	Sololá	717	San Juan la Laguna	12	San Juan la Laguna	12	Diciembre	2023-12-27T00:00:00	2024-11-08T19:00:00	3	Temperatura mínima	16.4
97420	7	Sololá	717	San Juan la Laguna	12	San Juan la Laguna	12	Diciembre	2023-12-27T00:00:00	2024-11-08T19:00:00	5	Humedad	79
97421	7	Sololá	717	San Juan la Laguna	12	San Juan la Laguna	12	Diciembre	2023-12-27T00:00:00	2024-11-08T19:00:00	6	Velocidad del viento	6.4
97422	7	Sololá	717	San Juan la Laguna	12	San Juan la Laguna	12	Diciembre	2023-12-27T00:00:00	2024-11-08T19:00:00	7	Dirección del viento	6.44
97423	7	Sololá	717	San Juan la Laguna	12	San Juan la Laguna	12	Diciembre	2023-12-27T00:00:00	2024-11-08T19:00:00	1	Precipitación	0
97424	7	Sololá	717	San Juan la Laguna	12	San Juan la Laguna	12	Diciembre	2023-12-27T00:00:00	2024-11-08T19:00:00	8	Radiación solar	0
97425	7	Sololá	717	San Juan la Laguna	12	San Juan la Laguna	12	Diciembre	2023-12-27T00:00:00	2024-11-08T20:00:00	2	Temperatura media	15.6
97426	7	Sololá	717	San Juan la Laguna	12	San Juan la Laguna	12	Diciembre	2023-12-27T00:00:00	2024-11-08T20:00:00	4	Temperatura máxima	16.4
97427	7	Sololá	717	San Juan la Laguna	12	San Juan la Laguna	12	Diciembre	2023-12-27T00:00:00	2024-11-08T20:00:00	3	Temperatura mínima	15.6
97428	7	Sololá	717	San Juan la Laguna	12	San Juan la Laguna	12	Diciembre	2023-12-27T00:00:00	2024-11-08T20:00:00	5	Humedad	82
97429	7	Sololá	717	San Juan la Laguna	12	San Juan la Laguna	12	Diciembre	2023-12-27T00:00:00	2024-11-08T20:00:00	6	Velocidad del viento	6.4
97430	7	Sololá	717	San Juan la Laguna	12	San Juan la Laguna	12	Diciembre	2023-12-27T00:00:00	2024-11-08T20:00:00	7	Dirección del viento	6.44
97431	7	Sololá	717	San Juan la Laguna	12	San Juan la Laguna	12	Diciembre	2023-12-27T00:00:00	2024-11-08T20:00:00	1	Precipitación	0
97432	7	Sololá	717	San Juan la Laguna	12	San Juan la Laguna	12	Diciembre	2023-12-27T00:00:00	2024-11-08T20:00:00	8	Radiación solar	0
97433	7	Sololá	717	San Juan la Laguna	12	San Juan la Laguna	12	Diciembre	2023-12-27T00:00:00	2024-11-08T21:00:00	2	Temperatura media	15.3
97434	7	Sololá	717	San Juan la Laguna	12	San Juan la Laguna	12	Diciembre	2023-12-27T00:00:00	2024-11-08T21:00:00	4	Temperatura máxima	15.6
97435	7	Sololá	717	San Juan la Laguna	12	San Juan la Laguna	12	Diciembre	2023-12-27T00:00:00	2024-11-08T21:00:00	3	Temperatura mínima	15.2
97436	7	Sololá	717	San Juan la Laguna	12	San Juan la Laguna	12	Diciembre	2023-12-27T00:00:00	2024-11-08T21:00:00	5	Humedad	83
97437	7	Sololá	717	San Juan la Laguna	12	San Juan la Laguna	12	Diciembre	2023-12-27T00:00:00	2024-11-08T21:00:00	6	Velocidad del viento	6.4
97438	7	Sololá	717	San Juan la Laguna	12	San Juan la Laguna	12	Diciembre	2023-12-27T00:00:00	2024-11-08T21:00:00	7	Dirección del viento	6.44
97439	7	Sololá	717	San Juan la Laguna	12	San Juan la Laguna	12	Diciembre	2023-12-27T00:00:00	2024-11-08T21:00:00	1	Precipitación	0
97440	7	Sololá	717	San Juan la Laguna	12	San Juan la Laguna	12	Diciembre	2023-12-27T00:00:00	2024-11-08T21:00:00	8	Radiación solar	0
97441	7	Sololá	717	San Juan la Laguna	12	San Juan la Laguna	12	Diciembre	2023-12-27T00:00:00	2024-11-08T22:00:00	2	Temperatura media	14.8
97442	7	Sololá	717	San Juan la Laguna	12	San Juan la Laguna	12	Diciembre	2023-12-27T00:00:00	2024-11-08T22:00:00	4	Temperatura máxima	15.3
97443	7	Sololá	717	San Juan la Laguna	12	San Juan la Laguna	12	Diciembre	2023-12-27T00:00:00	2024-11-08T22:00:00	3	Temperatura mínima	14.7
97444	7	Sololá	717	San Juan la Laguna	12	San Juan la Laguna	12	Diciembre	2023-12-27T00:00:00	2024-11-08T22:00:00	5	Humedad	83
97445	7	Sololá	717	San Juan la Laguna	12	San Juan la Laguna	12	Diciembre	2023-12-27T00:00:00	2024-11-08T22:00:00	6	Velocidad del viento	6.4
97446	7	Sololá	717	San Juan la Laguna	12	San Juan la Laguna	12	Diciembre	2023-12-27T00:00:00	2024-11-08T22:00:00	7	Dirección del viento	6.44
97447	7	Sololá	717	San Juan la Laguna	12	San Juan la Laguna	12	Diciembre	2023-12-27T00:00:00	2024-11-08T22:00:00	1	Precipitación	0
97448	7	Sololá	717	San Juan la Laguna	12	San Juan la Laguna	12	Diciembre	2023-12-27T00:00:00	2024-11-08T22:00:00	8	Radiación solar	0
97449	7	Sololá	717	San Juan la Laguna	12	San Juan la Laguna	12	Diciembre	2023-12-27T00:00:00	2024-11-08T23:00:00	2	Temperatura media	14.2
97450	7	Sololá	717	San Juan la Laguna	12	San Juan la Laguna	12	Diciembre	2023-12-27T00:00:00	2024-11-08T23:00:00	4	Temperatura máxima	14.8
97451	7	Sololá	717	San Juan la Laguna	12	San Juan la Laguna	12	Diciembre	2023-12-27T00:00:00	2024-11-08T23:00:00	3	Temperatura mínima	14.1
97452	7	Sololá	717	San Juan la Laguna	12	San Juan la Laguna	12	Diciembre	2023-12-27T00:00:00	2024-11-08T23:00:00	5	Humedad	83
97453	7	Sololá	717	San Juan la Laguna	12	San Juan la Laguna	12	Diciembre	2023-12-27T00:00:00	2024-11-08T23:00:00	6	Velocidad del viento	4.8
97454	7	Sololá	717	San Juan la Laguna	12	San Juan la Laguna	12	Diciembre	2023-12-27T00:00:00	2024-11-08T23:00:00	7	Dirección del viento	4.83
97455	7	Sololá	717	San Juan la Laguna	12	San Juan la Laguna	12	Diciembre	2023-12-27T00:00:00	2024-11-08T23:00:00	1	Precipitación	0
97456	7	Sololá	717	San Juan la Laguna	12	San Juan la Laguna	12	Diciembre	2023-12-27T00:00:00	2024-11-08T23:00:00	8	Radiación solar	0
97457	7	Sololá	717	San Juan la Laguna	12	San Juan la Laguna	12	Diciembre	2023-12-28T00:00:00	2024-11-08T00:00:00	2	Temperatura media	14.3
97458	7	Sololá	717	San Juan la Laguna	12	San Juan la Laguna	12	Diciembre	2023-12-28T00:00:00	2024-11-08T00:00:00	4	Temperatura máxima	14.7
97459	7	Sololá	717	San Juan la Laguna	12	San Juan la Laguna	12	Diciembre	2023-12-28T00:00:00	2024-11-08T00:00:00	3	Temperatura mínima	14.2
97460	7	Sololá	717	San Juan la Laguna	12	San Juan la Laguna	12	Diciembre	2023-12-28T00:00:00	2024-11-08T00:00:00	5	Humedad	79
97461	7	Sololá	717	San Juan la Laguna	12	San Juan la Laguna	12	Diciembre	2023-12-28T00:00:00	2024-11-08T00:00:00	6	Velocidad del viento	4.8
97462	7	Sololá	717	San Juan la Laguna	12	San Juan la Laguna	12	Diciembre	2023-12-28T00:00:00	2024-11-08T00:00:00	7	Dirección del viento	4.83
97463	7	Sololá	717	San Juan la Laguna	12	San Juan la Laguna	12	Diciembre	2023-12-28T00:00:00	2024-11-08T00:00:00	1	Precipitación	0
97464	7	Sololá	717	San Juan la Laguna	12	San Juan la Laguna	12	Diciembre	2023-12-28T00:00:00	2024-11-08T00:00:00	8	Radiación solar	0
97465	7	Sololá	717	San Juan la Laguna	12	San Juan la Laguna	12	Diciembre	2023-12-28T00:00:00	2024-11-08T01:00:00	2	Temperatura media	13.8
97466	7	Sololá	717	San Juan la Laguna	12	San Juan la Laguna	12	Diciembre	2023-12-28T00:00:00	2024-11-08T01:00:00	4	Temperatura máxima	14.4
97467	7	Sololá	717	San Juan la Laguna	12	San Juan la Laguna	12	Diciembre	2023-12-28T00:00:00	2024-11-08T01:00:00	3	Temperatura mínima	13.8
97468	7	Sololá	717	San Juan la Laguna	12	San Juan la Laguna	12	Diciembre	2023-12-28T00:00:00	2024-11-08T01:00:00	5	Humedad	77
97469	7	Sololá	717	San Juan la Laguna	12	San Juan la Laguna	12	Diciembre	2023-12-28T00:00:00	2024-11-08T01:00:00	6	Velocidad del viento	6.4
97470	7	Sololá	717	San Juan la Laguna	12	San Juan la Laguna	12	Diciembre	2023-12-28T00:00:00	2024-11-08T01:00:00	7	Dirección del viento	6.44
97471	7	Sololá	717	San Juan la Laguna	12	San Juan la Laguna	12	Diciembre	2023-12-28T00:00:00	2024-11-08T01:00:00	1	Precipitación	0
97472	7	Sololá	717	San Juan la Laguna	12	San Juan la Laguna	12	Diciembre	2023-12-28T00:00:00	2024-11-08T01:00:00	8	Radiación solar	0
97473	7	Sololá	717	San Juan la Laguna	12	San Juan la Laguna	12	Diciembre	2023-12-28T00:00:00	2024-11-08T02:00:00	2	Temperatura media	12.6
97474	7	Sololá	717	San Juan la Laguna	12	San Juan la Laguna	12	Diciembre	2023-12-28T00:00:00	2024-11-08T02:00:00	4	Temperatura máxima	13.8
97475	7	Sololá	717	San Juan la Laguna	12	San Juan la Laguna	12	Diciembre	2023-12-28T00:00:00	2024-11-08T02:00:00	3	Temperatura mínima	12.6
97476	7	Sololá	717	San Juan la Laguna	12	San Juan la Laguna	12	Diciembre	2023-12-28T00:00:00	2024-11-08T02:00:00	5	Humedad	77
97477	7	Sololá	717	San Juan la Laguna	12	San Juan la Laguna	12	Diciembre	2023-12-28T00:00:00	2024-11-08T02:00:00	6	Velocidad del viento	4.8
97478	7	Sololá	717	San Juan la Laguna	12	San Juan la Laguna	12	Diciembre	2023-12-28T00:00:00	2024-11-08T02:00:00	7	Dirección del viento	4.83
97479	7	Sololá	717	San Juan la Laguna	12	San Juan la Laguna	12	Diciembre	2023-12-28T00:00:00	2024-11-08T02:00:00	1	Precipitación	0
97480	7	Sololá	717	San Juan la Laguna	12	San Juan la Laguna	12	Diciembre	2023-12-28T00:00:00	2024-11-08T02:00:00	8	Radiación solar	0
97481	7	Sololá	717	San Juan la Laguna	12	San Juan la Laguna	12	Diciembre	2023-12-28T00:00:00	2024-11-08T03:00:00	2	Temperatura media	12.2
97482	7	Sololá	717	San Juan la Laguna	12	San Juan la Laguna	12	Diciembre	2023-12-28T00:00:00	2024-11-08T03:00:00	4	Temperatura máxima	12.6
97483	7	Sololá	717	San Juan la Laguna	12	San Juan la Laguna	12	Diciembre	2023-12-28T00:00:00	2024-11-08T03:00:00	3	Temperatura mínima	12.2
97484	7	Sololá	717	San Juan la Laguna	12	San Juan la Laguna	12	Diciembre	2023-12-28T00:00:00	2024-11-08T03:00:00	5	Humedad	80
97485	7	Sololá	717	San Juan la Laguna	12	San Juan la Laguna	12	Diciembre	2023-12-28T00:00:00	2024-11-08T03:00:00	6	Velocidad del viento	6.4
97486	7	Sololá	717	San Juan la Laguna	12	San Juan la Laguna	12	Diciembre	2023-12-28T00:00:00	2024-11-08T03:00:00	7	Dirección del viento	6.44
97487	7	Sololá	717	San Juan la Laguna	12	San Juan la Laguna	12	Diciembre	2023-12-28T00:00:00	2024-11-08T03:00:00	1	Precipitación	0
97488	7	Sololá	717	San Juan la Laguna	12	San Juan la Laguna	12	Diciembre	2023-12-28T00:00:00	2024-11-08T03:00:00	8	Radiación solar	0
97489	7	Sololá	717	San Juan la Laguna	12	San Juan la Laguna	12	Diciembre	2023-12-28T00:00:00	2024-11-08T04:00:00	2	Temperatura media	12.2
97490	7	Sololá	717	San Juan la Laguna	12	San Juan la Laguna	12	Diciembre	2023-12-28T00:00:00	2024-11-08T04:00:00	4	Temperatura máxima	12.3
97491	7	Sololá	717	San Juan la Laguna	12	San Juan la Laguna	12	Diciembre	2023-12-28T00:00:00	2024-11-08T04:00:00	3	Temperatura mínima	12
97492	7	Sololá	717	San Juan la Laguna	12	San Juan la Laguna	12	Diciembre	2023-12-28T00:00:00	2024-11-08T04:00:00	5	Humedad	77
97493	7	Sololá	717	San Juan la Laguna	12	San Juan la Laguna	12	Diciembre	2023-12-28T00:00:00	2024-11-08T04:00:00	6	Velocidad del viento	6.4
97494	7	Sololá	717	San Juan la Laguna	12	San Juan la Laguna	12	Diciembre	2023-12-28T00:00:00	2024-11-08T04:00:00	7	Dirección del viento	6.44
97495	7	Sololá	717	San Juan la Laguna	12	San Juan la Laguna	12	Diciembre	2023-12-28T00:00:00	2024-11-08T04:00:00	1	Precipitación	0
97496	7	Sololá	717	San Juan la Laguna	12	San Juan la Laguna	12	Diciembre	2023-12-28T00:00:00	2024-11-08T04:00:00	8	Radiación solar	0
97497	7	Sololá	717	San Juan la Laguna	12	San Juan la Laguna	12	Diciembre	2023-12-28T00:00:00	2024-11-08T05:00:00	2	Temperatura media	11.4
97498	7	Sololá	717	San Juan la Laguna	12	San Juan la Laguna	12	Diciembre	2023-12-28T00:00:00	2024-11-08T05:00:00	4	Temperatura máxima	12.2
97499	7	Sololá	717	San Juan la Laguna	12	San Juan la Laguna	12	Diciembre	2023-12-28T00:00:00	2024-11-08T05:00:00	3	Temperatura mínima	11.4
97500	7	Sololá	717	San Juan la Laguna	12	San Juan la Laguna	12	Diciembre	2023-12-28T00:00:00	2024-11-08T05:00:00	5	Humedad	78
97501	7	Sololá	717	San Juan la Laguna	12	San Juan la Laguna	12	Diciembre	2023-12-28T00:00:00	2024-11-08T05:00:00	6	Velocidad del viento	4.8
97502	7	Sololá	717	San Juan la Laguna	12	San Juan la Laguna	12	Diciembre	2023-12-28T00:00:00	2024-11-08T05:00:00	7	Dirección del viento	4.83
97503	7	Sololá	717	San Juan la Laguna	12	San Juan la Laguna	12	Diciembre	2023-12-28T00:00:00	2024-11-08T05:00:00	1	Precipitación	0
97504	7	Sololá	717	San Juan la Laguna	12	San Juan la Laguna	12	Diciembre	2023-12-28T00:00:00	2024-11-08T05:00:00	8	Radiación solar	0
97505	7	Sololá	717	San Juan la Laguna	12	San Juan la Laguna	12	Diciembre	2023-12-28T00:00:00	2024-11-08T06:00:00	2	Temperatura media	11.4
97506	7	Sololá	717	San Juan la Laguna	12	San Juan la Laguna	12	Diciembre	2023-12-28T00:00:00	2024-11-08T06:00:00	4	Temperatura máxima	11.4
97507	7	Sololá	717	San Juan la Laguna	12	San Juan la Laguna	12	Diciembre	2023-12-28T00:00:00	2024-11-08T06:00:00	3	Temperatura mínima	10.6
97508	7	Sololá	717	San Juan la Laguna	12	San Juan la Laguna	12	Diciembre	2023-12-28T00:00:00	2024-11-08T06:00:00	5	Humedad	80
97509	7	Sololá	717	San Juan la Laguna	12	San Juan la Laguna	12	Diciembre	2023-12-28T00:00:00	2024-11-08T06:00:00	6	Velocidad del viento	4.8
97510	7	Sololá	717	San Juan la Laguna	12	San Juan la Laguna	12	Diciembre	2023-12-28T00:00:00	2024-11-08T06:00:00	7	Dirección del viento	4.83
97511	7	Sololá	717	San Juan la Laguna	12	San Juan la Laguna	12	Diciembre	2023-12-28T00:00:00	2024-11-08T06:00:00	1	Precipitación	0
97512	7	Sololá	717	San Juan la Laguna	12	San Juan la Laguna	12	Diciembre	2023-12-28T00:00:00	2024-11-08T06:00:00	8	Radiación solar	0
97513	7	Sololá	717	San Juan la Laguna	12	San Juan la Laguna	12	Diciembre	2023-12-28T00:00:00	2024-11-08T07:00:00	2	Temperatura media	11.1
97514	7	Sololá	717	San Juan la Laguna	12	San Juan la Laguna	12	Diciembre	2023-12-28T00:00:00	2024-11-08T07:00:00	4	Temperatura máxima	12
97515	7	Sololá	717	San Juan la Laguna	12	San Juan la Laguna	12	Diciembre	2023-12-28T00:00:00	2024-11-08T07:00:00	3	Temperatura mínima	11.1
97516	7	Sololá	717	San Juan la Laguna	12	San Juan la Laguna	12	Diciembre	2023-12-28T00:00:00	2024-11-08T07:00:00	5	Humedad	81
97517	7	Sololá	717	San Juan la Laguna	12	San Juan la Laguna	12	Diciembre	2023-12-28T00:00:00	2024-11-08T07:00:00	6	Velocidad del viento	4.8
97518	7	Sololá	717	San Juan la Laguna	12	San Juan la Laguna	12	Diciembre	2023-12-28T00:00:00	2024-11-08T07:00:00	7	Dirección del viento	4.83
97519	7	Sololá	717	San Juan la Laguna	12	San Juan la Laguna	12	Diciembre	2023-12-28T00:00:00	2024-11-08T07:00:00	1	Precipitación	0
97520	7	Sololá	717	San Juan la Laguna	12	San Juan la Laguna	12	Diciembre	2023-12-28T00:00:00	2024-11-08T07:00:00	8	Radiación solar	8
97521	7	Sololá	717	San Juan la Laguna	12	San Juan la Laguna	12	Diciembre	2023-12-28T00:00:00	2024-11-08T08:00:00	2	Temperatura media	14.2
97522	7	Sololá	717	San Juan la Laguna	12	San Juan la Laguna	12	Diciembre	2023-12-28T00:00:00	2024-11-08T08:00:00	4	Temperatura máxima	14.2
97523	7	Sololá	717	San Juan la Laguna	12	San Juan la Laguna	12	Diciembre	2023-12-28T00:00:00	2024-11-08T08:00:00	3	Temperatura mínima	11.1
97524	7	Sololá	717	San Juan la Laguna	12	San Juan la Laguna	12	Diciembre	2023-12-28T00:00:00	2024-11-08T08:00:00	5	Humedad	81
97525	7	Sololá	717	San Juan la Laguna	12	San Juan la Laguna	12	Diciembre	2023-12-28T00:00:00	2024-11-08T08:00:00	6	Velocidad del viento	3.2
97526	7	Sololá	717	San Juan la Laguna	12	San Juan la Laguna	12	Diciembre	2023-12-28T00:00:00	2024-11-08T08:00:00	7	Dirección del viento	3.22
97527	7	Sololá	717	San Juan la Laguna	12	San Juan la Laguna	12	Diciembre	2023-12-28T00:00:00	2024-11-08T08:00:00	1	Precipitación	0
97528	7	Sololá	717	San Juan la Laguna	12	San Juan la Laguna	12	Diciembre	2023-12-28T00:00:00	2024-11-08T08:00:00	8	Radiación solar	123
97529	7	Sololá	717	San Juan la Laguna	12	San Juan la Laguna	12	Diciembre	2023-12-28T00:00:00	2024-11-08T09:00:00	2	Temperatura media	17.9
97530	7	Sololá	717	San Juan la Laguna	12	San Juan la Laguna	12	Diciembre	2023-12-28T00:00:00	2024-11-08T09:00:00	4	Temperatura máxima	18.2
97531	7	Sololá	717	San Juan la Laguna	12	San Juan la Laguna	12	Diciembre	2023-12-28T00:00:00	2024-11-08T09:00:00	3	Temperatura mínima	14.2
97532	7	Sololá	717	San Juan la Laguna	12	San Juan la Laguna	12	Diciembre	2023-12-28T00:00:00	2024-11-08T09:00:00	5	Humedad	73
97533	7	Sololá	717	San Juan la Laguna	12	San Juan la Laguna	12	Diciembre	2023-12-28T00:00:00	2024-11-08T09:00:00	6	Velocidad del viento	3.2
97534	7	Sololá	717	San Juan la Laguna	12	San Juan la Laguna	12	Diciembre	2023-12-28T00:00:00	2024-11-08T09:00:00	7	Dirección del viento	3.22
97535	7	Sololá	717	San Juan la Laguna	12	San Juan la Laguna	12	Diciembre	2023-12-28T00:00:00	2024-11-08T09:00:00	1	Precipitación	0
97536	7	Sololá	717	San Juan la Laguna	12	San Juan la Laguna	12	Diciembre	2023-12-28T00:00:00	2024-11-08T09:00:00	8	Radiación solar	330
97537	7	Sololá	717	San Juan la Laguna	12	San Juan la Laguna	12	Diciembre	2023-12-28T00:00:00	2024-11-08T10:00:00	2	Temperatura media	19.5
97538	7	Sololá	717	San Juan la Laguna	12	San Juan la Laguna	12	Diciembre	2023-12-28T00:00:00	2024-11-08T10:00:00	4	Temperatura máxima	19.5
97539	7	Sololá	717	San Juan la Laguna	12	San Juan la Laguna	12	Diciembre	2023-12-28T00:00:00	2024-11-08T10:00:00	3	Temperatura mínima	17.9
97540	7	Sololá	717	San Juan la Laguna	12	San Juan la Laguna	12	Diciembre	2023-12-28T00:00:00	2024-11-08T10:00:00	5	Humedad	67
97541	7	Sololá	717	San Juan la Laguna	12	San Juan la Laguna	12	Diciembre	2023-12-28T00:00:00	2024-11-08T10:00:00	6	Velocidad del viento	4.8
97542	7	Sololá	717	San Juan la Laguna	12	San Juan la Laguna	12	Diciembre	2023-12-28T00:00:00	2024-11-08T10:00:00	7	Dirección del viento	4.83
97543	7	Sololá	717	San Juan la Laguna	12	San Juan la Laguna	12	Diciembre	2023-12-28T00:00:00	2024-11-08T10:00:00	1	Precipitación	0
97544	7	Sololá	717	San Juan la Laguna	12	San Juan la Laguna	12	Diciembre	2023-12-28T00:00:00	2024-11-08T10:00:00	8	Radiación solar	513
97545	7	Sololá	717	San Juan la Laguna	12	San Juan la Laguna	12	Diciembre	2023-12-28T00:00:00	2024-11-08T11:00:00	2	Temperatura media	20.6
97546	7	Sololá	717	San Juan la Laguna	12	San Juan la Laguna	12	Diciembre	2023-12-28T00:00:00	2024-11-08T11:00:00	4	Temperatura máxima	20.8
97547	7	Sololá	717	San Juan la Laguna	12	San Juan la Laguna	12	Diciembre	2023-12-28T00:00:00	2024-11-08T11:00:00	3	Temperatura mínima	19.6
97548	7	Sololá	717	San Juan la Laguna	12	San Juan la Laguna	12	Diciembre	2023-12-28T00:00:00	2024-11-08T11:00:00	5	Humedad	59
97549	7	Sololá	717	San Juan la Laguna	12	San Juan la Laguna	12	Diciembre	2023-12-28T00:00:00	2024-11-08T11:00:00	6	Velocidad del viento	6.4
97550	7	Sololá	717	San Juan la Laguna	12	San Juan la Laguna	12	Diciembre	2023-12-28T00:00:00	2024-11-08T11:00:00	7	Dirección del viento	6.44
97551	7	Sololá	717	San Juan la Laguna	12	San Juan la Laguna	12	Diciembre	2023-12-28T00:00:00	2024-11-08T11:00:00	1	Precipitación	0
97552	7	Sololá	717	San Juan la Laguna	12	San Juan la Laguna	12	Diciembre	2023-12-28T00:00:00	2024-11-08T11:00:00	8	Radiación solar	559
97553	7	Sololá	717	San Juan la Laguna	12	San Juan la Laguna	12	Diciembre	2023-12-28T00:00:00	2024-11-08T12:00:00	2	Temperatura media	21.8
97554	7	Sololá	717	San Juan la Laguna	12	San Juan la Laguna	12	Diciembre	2023-12-28T00:00:00	2024-11-08T12:00:00	4	Temperatura máxima	22.7
97555	7	Sololá	717	San Juan la Laguna	12	San Juan la Laguna	12	Diciembre	2023-12-28T00:00:00	2024-11-08T12:00:00	3	Temperatura mínima	20.6
97556	7	Sololá	717	San Juan la Laguna	12	San Juan la Laguna	12	Diciembre	2023-12-28T00:00:00	2024-11-08T12:00:00	5	Humedad	55
97557	7	Sololá	717	San Juan la Laguna	12	San Juan la Laguna	12	Diciembre	2023-12-28T00:00:00	2024-11-08T12:00:00	6	Velocidad del viento	6.4
97558	7	Sololá	717	San Juan la Laguna	12	San Juan la Laguna	12	Diciembre	2023-12-28T00:00:00	2024-11-08T12:00:00	7	Dirección del viento	6.44
97559	7	Sololá	717	San Juan la Laguna	12	San Juan la Laguna	12	Diciembre	2023-12-28T00:00:00	2024-11-08T12:00:00	1	Precipitación	0
97560	7	Sololá	717	San Juan la Laguna	12	San Juan la Laguna	12	Diciembre	2023-12-28T00:00:00	2024-11-08T12:00:00	8	Radiación solar	691
97561	7	Sololá	717	San Juan la Laguna	12	San Juan la Laguna	12	Diciembre	2023-12-28T00:00:00	2024-11-08T13:00:00	2	Temperatura media	22.7
97562	7	Sololá	717	San Juan la Laguna	12	San Juan la Laguna	12	Diciembre	2023-12-28T00:00:00	2024-11-08T13:00:00	4	Temperatura máxima	23.2
97563	7	Sololá	717	San Juan la Laguna	12	San Juan la Laguna	12	Diciembre	2023-12-28T00:00:00	2024-11-08T13:00:00	3	Temperatura mínima	21.7
97564	7	Sololá	717	San Juan la Laguna	12	San Juan la Laguna	12	Diciembre	2023-12-28T00:00:00	2024-11-08T13:00:00	5	Humedad	57
97565	7	Sololá	717	San Juan la Laguna	12	San Juan la Laguna	12	Diciembre	2023-12-28T00:00:00	2024-11-08T13:00:00	6	Velocidad del viento	8
97566	7	Sololá	717	San Juan la Laguna	12	San Juan la Laguna	12	Diciembre	2023-12-28T00:00:00	2024-11-08T13:00:00	7	Dirección del viento	8.05
97567	7	Sololá	717	San Juan la Laguna	12	San Juan la Laguna	12	Diciembre	2023-12-28T00:00:00	2024-11-08T13:00:00	1	Precipitación	0
97568	7	Sololá	717	San Juan la Laguna	12	San Juan la Laguna	12	Diciembre	2023-12-28T00:00:00	2024-11-08T13:00:00	8	Radiación solar	682
97569	7	Sololá	717	San Juan la Laguna	12	San Juan la Laguna	12	Diciembre	2023-12-28T00:00:00	2024-11-08T14:00:00	2	Temperatura media	22.3
97570	7	Sololá	717	San Juan la Laguna	12	San Juan la Laguna	12	Diciembre	2023-12-28T00:00:00	2024-11-08T14:00:00	4	Temperatura máxima	22.7
97571	7	Sololá	717	San Juan la Laguna	12	San Juan la Laguna	12	Diciembre	2023-12-28T00:00:00	2024-11-08T14:00:00	3	Temperatura mínima	22
97572	7	Sololá	717	San Juan la Laguna	12	San Juan la Laguna	12	Diciembre	2023-12-28T00:00:00	2024-11-08T14:00:00	5	Humedad	63
97573	7	Sololá	717	San Juan la Laguna	12	San Juan la Laguna	12	Diciembre	2023-12-28T00:00:00	2024-11-08T14:00:00	6	Velocidad del viento	14.5
97574	7	Sololá	717	San Juan la Laguna	12	San Juan la Laguna	12	Diciembre	2023-12-28T00:00:00	2024-11-08T14:00:00	7	Dirección del viento	14.48
97575	7	Sololá	717	San Juan la Laguna	12	San Juan la Laguna	12	Diciembre	2023-12-28T00:00:00	2024-11-08T14:00:00	1	Precipitación	0
97576	7	Sololá	717	San Juan la Laguna	12	San Juan la Laguna	12	Diciembre	2023-12-28T00:00:00	2024-11-08T14:00:00	8	Radiación solar	669
97577	7	Sololá	717	San Juan la Laguna	12	San Juan la Laguna	12	Diciembre	2023-12-28T00:00:00	2024-11-08T15:00:00	2	Temperatura media	21.9
97578	7	Sololá	717	San Juan la Laguna	12	San Juan la Laguna	12	Diciembre	2023-12-28T00:00:00	2024-11-08T15:00:00	4	Temperatura máxima	22.4
97579	7	Sololá	717	San Juan la Laguna	12	San Juan la Laguna	12	Diciembre	2023-12-28T00:00:00	2024-11-08T15:00:00	3	Temperatura mínima	21.8
97580	7	Sololá	717	San Juan la Laguna	12	San Juan la Laguna	12	Diciembre	2023-12-28T00:00:00	2024-11-08T15:00:00	5	Humedad	66
97581	7	Sololá	717	San Juan la Laguna	12	San Juan la Laguna	12	Diciembre	2023-12-28T00:00:00	2024-11-08T15:00:00	6	Velocidad del viento	14.5
97582	7	Sololá	717	San Juan la Laguna	12	San Juan la Laguna	12	Diciembre	2023-12-28T00:00:00	2024-11-08T15:00:00	7	Dirección del viento	14.48
97583	7	Sololá	717	San Juan la Laguna	12	San Juan la Laguna	12	Diciembre	2023-12-28T00:00:00	2024-11-08T15:00:00	1	Precipitación	0
97584	7	Sololá	717	San Juan la Laguna	12	San Juan la Laguna	12	Diciembre	2023-12-28T00:00:00	2024-11-08T15:00:00	8	Radiación solar	542
97585	7	Sololá	717	San Juan la Laguna	12	San Juan la Laguna	12	Diciembre	2023-12-28T00:00:00	2024-11-08T16:00:00	2	Temperatura media	20.3
97586	7	Sololá	717	San Juan la Laguna	12	San Juan la Laguna	12	Diciembre	2023-12-28T00:00:00	2024-11-08T16:00:00	4	Temperatura máxima	21.9
97587	7	Sololá	717	San Juan la Laguna	12	San Juan la Laguna	12	Diciembre	2023-12-28T00:00:00	2024-11-08T16:00:00	3	Temperatura mínima	19.8
97588	7	Sololá	717	San Juan la Laguna	12	San Juan la Laguna	12	Diciembre	2023-12-28T00:00:00	2024-11-08T16:00:00	5	Humedad	73
97589	7	Sololá	717	San Juan la Laguna	12	San Juan la Laguna	12	Diciembre	2023-12-28T00:00:00	2024-11-08T16:00:00	6	Velocidad del viento	14.5
97590	7	Sololá	717	San Juan la Laguna	12	San Juan la Laguna	12	Diciembre	2023-12-28T00:00:00	2024-11-08T16:00:00	7	Dirección del viento	14.48
97591	7	Sololá	717	San Juan la Laguna	12	San Juan la Laguna	12	Diciembre	2023-12-28T00:00:00	2024-11-08T16:00:00	1	Precipitación	0
97592	7	Sololá	717	San Juan la Laguna	12	San Juan la Laguna	12	Diciembre	2023-12-28T00:00:00	2024-11-08T16:00:00	8	Radiación solar	270
97593	7	Sololá	717	San Juan la Laguna	12	San Juan la Laguna	12	Diciembre	2023-12-28T00:00:00	2024-11-08T17:00:00	2	Temperatura media	19.6
97594	7	Sololá	717	San Juan la Laguna	12	San Juan la Laguna	12	Diciembre	2023-12-28T00:00:00	2024-11-08T17:00:00	4	Temperatura máxima	20.6
97595	7	Sololá	717	San Juan la Laguna	12	San Juan la Laguna	12	Diciembre	2023-12-28T00:00:00	2024-11-08T17:00:00	3	Temperatura mínima	19.6
97596	7	Sololá	717	San Juan la Laguna	12	San Juan la Laguna	12	Diciembre	2023-12-28T00:00:00	2024-11-08T17:00:00	5	Humedad	76
97597	7	Sololá	717	San Juan la Laguna	12	San Juan la Laguna	12	Diciembre	2023-12-28T00:00:00	2024-11-08T17:00:00	6	Velocidad del viento	9.7
97598	7	Sololá	717	San Juan la Laguna	12	San Juan la Laguna	12	Diciembre	2023-12-28T00:00:00	2024-11-08T17:00:00	7	Dirección del viento	9.66
97599	7	Sololá	717	San Juan la Laguna	12	San Juan la Laguna	12	Diciembre	2023-12-28T00:00:00	2024-11-08T17:00:00	1	Precipitación	0
97600	7	Sololá	717	San Juan la Laguna	12	San Juan la Laguna	12	Diciembre	2023-12-28T00:00:00	2024-11-08T17:00:00	8	Radiación solar	138
97601	7	Sololá	717	San Juan la Laguna	12	San Juan la Laguna	12	Diciembre	2023-12-28T00:00:00	2024-11-08T18:00:00	2	Temperatura media	18.4
97602	7	Sololá	717	San Juan la Laguna	12	San Juan la Laguna	12	Diciembre	2023-12-28T00:00:00	2024-11-08T18:00:00	4	Temperatura máxima	19.6
97603	7	Sololá	717	San Juan la Laguna	12	San Juan la Laguna	12	Diciembre	2023-12-28T00:00:00	2024-11-08T18:00:00	3	Temperatura mínima	18.4
97604	7	Sololá	717	San Juan la Laguna	12	San Juan la Laguna	12	Diciembre	2023-12-28T00:00:00	2024-11-08T18:00:00	5	Humedad	80
97605	7	Sololá	717	San Juan la Laguna	12	San Juan la Laguna	12	Diciembre	2023-12-28T00:00:00	2024-11-08T18:00:00	6	Velocidad del viento	6.4
97606	7	Sololá	717	San Juan la Laguna	12	San Juan la Laguna	12	Diciembre	2023-12-28T00:00:00	2024-11-08T18:00:00	7	Dirección del viento	6.44
97607	7	Sololá	717	San Juan la Laguna	12	San Juan la Laguna	12	Diciembre	2023-12-28T00:00:00	2024-11-08T18:00:00	1	Precipitación	0
97608	7	Sololá	717	San Juan la Laguna	12	San Juan la Laguna	12	Diciembre	2023-12-28T00:00:00	2024-11-08T18:00:00	8	Radiación solar	10
97609	7	Sololá	717	San Juan la Laguna	12	San Juan la Laguna	12	Diciembre	2023-12-28T00:00:00	2024-11-08T19:00:00	2	Temperatura media	17
97610	7	Sololá	717	San Juan la Laguna	12	San Juan la Laguna	12	Diciembre	2023-12-28T00:00:00	2024-11-08T19:00:00	4	Temperatura máxima	18.4
97611	7	Sololá	717	San Juan la Laguna	12	San Juan la Laguna	12	Diciembre	2023-12-28T00:00:00	2024-11-08T19:00:00	3	Temperatura mínima	17
97612	7	Sololá	717	San Juan la Laguna	12	San Juan la Laguna	12	Diciembre	2023-12-28T00:00:00	2024-11-08T19:00:00	5	Humedad	82
97613	7	Sololá	717	San Juan la Laguna	12	San Juan la Laguna	12	Diciembre	2023-12-28T00:00:00	2024-11-08T19:00:00	6	Velocidad del viento	4.8
97614	7	Sololá	717	San Juan la Laguna	12	San Juan la Laguna	12	Diciembre	2023-12-28T00:00:00	2024-11-08T19:00:00	7	Dirección del viento	4.83
97615	7	Sololá	717	San Juan la Laguna	12	San Juan la Laguna	12	Diciembre	2023-12-28T00:00:00	2024-11-08T19:00:00	1	Precipitación	0
97616	7	Sololá	717	San Juan la Laguna	12	San Juan la Laguna	12	Diciembre	2023-12-28T00:00:00	2024-11-08T19:00:00	8	Radiación solar	0
97617	7	Sololá	717	San Juan la Laguna	12	San Juan la Laguna	12	Diciembre	2023-12-28T00:00:00	2024-11-08T20:00:00	2	Temperatura media	16.5
97618	7	Sololá	717	San Juan la Laguna	12	San Juan la Laguna	12	Diciembre	2023-12-28T00:00:00	2024-11-08T20:00:00	4	Temperatura máxima	17.1
97619	7	Sololá	717	San Juan la Laguna	12	San Juan la Laguna	12	Diciembre	2023-12-28T00:00:00	2024-11-08T20:00:00	3	Temperatura mínima	16.3
97620	7	Sololá	717	San Juan la Laguna	12	San Juan la Laguna	12	Diciembre	2023-12-28T00:00:00	2024-11-08T20:00:00	5	Humedad	83
97621	7	Sololá	717	San Juan la Laguna	12	San Juan la Laguna	12	Diciembre	2023-12-28T00:00:00	2024-11-08T20:00:00	6	Velocidad del viento	4.8
97622	7	Sololá	717	San Juan la Laguna	12	San Juan la Laguna	12	Diciembre	2023-12-28T00:00:00	2024-11-08T20:00:00	7	Dirección del viento	4.83
97623	7	Sololá	717	San Juan la Laguna	12	San Juan la Laguna	12	Diciembre	2023-12-28T00:00:00	2024-11-08T20:00:00	1	Precipitación	0
97624	7	Sololá	717	San Juan la Laguna	12	San Juan la Laguna	12	Diciembre	2023-12-28T00:00:00	2024-11-08T20:00:00	8	Radiación solar	0
97625	7	Sololá	717	San Juan la Laguna	12	San Juan la Laguna	12	Diciembre	2023-12-28T00:00:00	2024-11-08T21:00:00	2	Temperatura media	16.6
97626	7	Sololá	717	San Juan la Laguna	12	San Juan la Laguna	12	Diciembre	2023-12-28T00:00:00	2024-11-08T21:00:00	4	Temperatura máxima	16.8
97627	7	Sololá	717	San Juan la Laguna	12	San Juan la Laguna	12	Diciembre	2023-12-28T00:00:00	2024-11-08T21:00:00	3	Temperatura mínima	16.5
97628	7	Sololá	717	San Juan la Laguna	12	San Juan la Laguna	12	Diciembre	2023-12-28T00:00:00	2024-11-08T21:00:00	5	Humedad	84
97629	7	Sololá	717	San Juan la Laguna	12	San Juan la Laguna	12	Diciembre	2023-12-28T00:00:00	2024-11-08T21:00:00	6	Velocidad del viento	4.8
97630	7	Sololá	717	San Juan la Laguna	12	San Juan la Laguna	12	Diciembre	2023-12-28T00:00:00	2024-11-08T21:00:00	7	Dirección del viento	4.83
97631	7	Sololá	717	San Juan la Laguna	12	San Juan la Laguna	12	Diciembre	2023-12-28T00:00:00	2024-11-08T21:00:00	1	Precipitación	0
97632	7	Sololá	717	San Juan la Laguna	12	San Juan la Laguna	12	Diciembre	2023-12-28T00:00:00	2024-11-08T21:00:00	8	Radiación solar	0
97633	7	Sololá	717	San Juan la Laguna	12	San Juan la Laguna	12	Diciembre	2023-12-28T00:00:00	2024-11-08T22:00:00	2	Temperatura media	17.1
97634	7	Sololá	717	San Juan la Laguna	12	San Juan la Laguna	12	Diciembre	2023-12-28T00:00:00	2024-11-08T22:00:00	4	Temperatura máxima	17.1
97635	7	Sololá	717	San Juan la Laguna	12	San Juan la Laguna	12	Diciembre	2023-12-28T00:00:00	2024-11-08T22:00:00	3	Temperatura mínima	16.6
97636	7	Sololá	717	San Juan la Laguna	12	San Juan la Laguna	12	Diciembre	2023-12-28T00:00:00	2024-11-08T22:00:00	5	Humedad	82
97637	7	Sololá	717	San Juan la Laguna	12	San Juan la Laguna	12	Diciembre	2023-12-28T00:00:00	2024-11-08T22:00:00	6	Velocidad del viento	4.8
97638	7	Sololá	717	San Juan la Laguna	12	San Juan la Laguna	12	Diciembre	2023-12-28T00:00:00	2024-11-08T22:00:00	7	Dirección del viento	4.83
97639	7	Sololá	717	San Juan la Laguna	12	San Juan la Laguna	12	Diciembre	2023-12-28T00:00:00	2024-11-08T22:00:00	1	Precipitación	0
97640	7	Sololá	717	San Juan la Laguna	12	San Juan la Laguna	12	Diciembre	2023-12-28T00:00:00	2024-11-08T22:00:00	8	Radiación solar	0
97641	7	Sololá	717	San Juan la Laguna	12	San Juan la Laguna	12	Diciembre	2023-12-28T00:00:00	2024-11-08T23:00:00	2	Temperatura media	16.6
97642	7	Sololá	717	San Juan la Laguna	12	San Juan la Laguna	12	Diciembre	2023-12-28T00:00:00	2024-11-08T23:00:00	4	Temperatura máxima	17.2
97643	7	Sololá	717	San Juan la Laguna	12	San Juan la Laguna	12	Diciembre	2023-12-28T00:00:00	2024-11-08T23:00:00	3	Temperatura mínima	16.6
97644	7	Sololá	717	San Juan la Laguna	12	San Juan la Laguna	12	Diciembre	2023-12-28T00:00:00	2024-11-08T23:00:00	5	Humedad	85
97645	7	Sololá	717	San Juan la Laguna	12	San Juan la Laguna	12	Diciembre	2023-12-28T00:00:00	2024-11-08T23:00:00	6	Velocidad del viento	3.2
97646	7	Sololá	717	San Juan la Laguna	12	San Juan la Laguna	12	Diciembre	2023-12-28T00:00:00	2024-11-08T23:00:00	7	Dirección del viento	3.22
97647	7	Sololá	717	San Juan la Laguna	12	San Juan la Laguna	12	Diciembre	2023-12-28T00:00:00	2024-11-08T23:00:00	1	Precipitación	0
97648	7	Sololá	717	San Juan la Laguna	12	San Juan la Laguna	12	Diciembre	2023-12-28T00:00:00	2024-11-08T23:00:00	8	Radiación solar	0
97649	7	Sololá	717	San Juan la Laguna	12	San Juan la Laguna	12	Diciembre	2023-12-29T00:00:00	2024-11-08T00:00:00	2	Temperatura media	16
97650	7	Sololá	717	San Juan la Laguna	12	San Juan la Laguna	12	Diciembre	2023-12-29T00:00:00	2024-11-08T00:00:00	4	Temperatura máxima	16.6
97651	7	Sololá	717	San Juan la Laguna	12	San Juan la Laguna	12	Diciembre	2023-12-29T00:00:00	2024-11-08T00:00:00	3	Temperatura mínima	15.9
97652	7	Sololá	717	San Juan la Laguna	12	San Juan la Laguna	12	Diciembre	2023-12-29T00:00:00	2024-11-08T00:00:00	5	Humedad	86
97653	7	Sololá	717	San Juan la Laguna	12	San Juan la Laguna	12	Diciembre	2023-12-29T00:00:00	2024-11-08T00:00:00	6	Velocidad del viento	4.8
97654	7	Sololá	717	San Juan la Laguna	12	San Juan la Laguna	12	Diciembre	2023-12-29T00:00:00	2024-11-08T00:00:00	7	Dirección del viento	4.83
97655	7	Sololá	717	San Juan la Laguna	12	San Juan la Laguna	12	Diciembre	2023-12-29T00:00:00	2024-11-08T00:00:00	1	Precipitación	0
97656	7	Sololá	717	San Juan la Laguna	12	San Juan la Laguna	12	Diciembre	2023-12-29T00:00:00	2024-11-08T00:00:00	8	Radiación solar	0
97657	7	Sololá	717	San Juan la Laguna	12	San Juan la Laguna	12	Diciembre	2023-12-29T00:00:00	2024-11-08T01:00:00	2	Temperatura media	15.3
97658	7	Sololá	717	San Juan la Laguna	12	San Juan la Laguna	12	Diciembre	2023-12-29T00:00:00	2024-11-08T01:00:00	4	Temperatura máxima	16
97659	7	Sololá	717	San Juan la Laguna	12	San Juan la Laguna	12	Diciembre	2023-12-29T00:00:00	2024-11-08T01:00:00	3	Temperatura mínima	15.3
97660	7	Sololá	717	San Juan la Laguna	12	San Juan la Laguna	12	Diciembre	2023-12-29T00:00:00	2024-11-08T01:00:00	5	Humedad	88
97661	7	Sololá	717	San Juan la Laguna	12	San Juan la Laguna	12	Diciembre	2023-12-29T00:00:00	2024-11-08T01:00:00	6	Velocidad del viento	4.8
97662	7	Sololá	717	San Juan la Laguna	12	San Juan la Laguna	12	Diciembre	2023-12-29T00:00:00	2024-11-08T01:00:00	7	Dirección del viento	4.83
97663	7	Sololá	717	San Juan la Laguna	12	San Juan la Laguna	12	Diciembre	2023-12-29T00:00:00	2024-11-08T01:00:00	1	Precipitación	0
97664	7	Sololá	717	San Juan la Laguna	12	San Juan la Laguna	12	Diciembre	2023-12-29T00:00:00	2024-11-08T01:00:00	8	Radiación solar	0
97665	7	Sololá	717	San Juan la Laguna	12	San Juan la Laguna	12	Diciembre	2023-12-29T00:00:00	2024-11-08T02:00:00	2	Temperatura media	15
97666	7	Sololá	717	San Juan la Laguna	12	San Juan la Laguna	12	Diciembre	2023-12-29T00:00:00	2024-11-08T02:00:00	4	Temperatura máxima	15.3
97667	7	Sololá	717	San Juan la Laguna	12	San Juan la Laguna	12	Diciembre	2023-12-29T00:00:00	2024-11-08T02:00:00	3	Temperatura mínima	14.9
97668	7	Sololá	717	San Juan la Laguna	12	San Juan la Laguna	12	Diciembre	2023-12-29T00:00:00	2024-11-08T02:00:00	5	Humedad	87
97669	7	Sololá	717	San Juan la Laguna	12	San Juan la Laguna	12	Diciembre	2023-12-29T00:00:00	2024-11-08T02:00:00	6	Velocidad del viento	4.8
97670	7	Sololá	717	San Juan la Laguna	12	San Juan la Laguna	12	Diciembre	2023-12-29T00:00:00	2024-11-08T02:00:00	7	Dirección del viento	4.83
97671	7	Sololá	717	San Juan la Laguna	12	San Juan la Laguna	12	Diciembre	2023-12-29T00:00:00	2024-11-08T02:00:00	1	Precipitación	0
97672	7	Sololá	717	San Juan la Laguna	12	San Juan la Laguna	12	Diciembre	2023-12-29T00:00:00	2024-11-08T02:00:00	8	Radiación solar	0
97673	7	Sololá	717	San Juan la Laguna	12	San Juan la Laguna	12	Diciembre	2023-12-29T00:00:00	2024-11-08T03:00:00	2	Temperatura media	14.9
97674	7	Sololá	717	San Juan la Laguna	12	San Juan la Laguna	12	Diciembre	2023-12-29T00:00:00	2024-11-08T03:00:00	4	Temperatura máxima	15.1
97675	7	Sololá	717	San Juan la Laguna	12	San Juan la Laguna	12	Diciembre	2023-12-29T00:00:00	2024-11-08T03:00:00	3	Temperatura mínima	14.8
97676	7	Sololá	717	San Juan la Laguna	12	San Juan la Laguna	12	Diciembre	2023-12-29T00:00:00	2024-11-08T03:00:00	5	Humedad	87
97677	7	Sololá	717	San Juan la Laguna	12	San Juan la Laguna	12	Diciembre	2023-12-29T00:00:00	2024-11-08T03:00:00	6	Velocidad del viento	3.2
97678	7	Sololá	717	San Juan la Laguna	12	San Juan la Laguna	12	Diciembre	2023-12-29T00:00:00	2024-11-08T03:00:00	7	Dirección del viento	3.22
97679	7	Sololá	717	San Juan la Laguna	12	San Juan la Laguna	12	Diciembre	2023-12-29T00:00:00	2024-11-08T03:00:00	1	Precipitación	0
97680	7	Sololá	717	San Juan la Laguna	12	San Juan la Laguna	12	Diciembre	2023-12-29T00:00:00	2024-11-08T03:00:00	8	Radiación solar	0
97681	7	Sololá	717	San Juan la Laguna	12	San Juan la Laguna	12	Diciembre	2023-12-29T00:00:00	2024-11-08T04:00:00	2	Temperatura media	15.1
97682	7	Sololá	717	San Juan la Laguna	12	San Juan la Laguna	12	Diciembre	2023-12-29T00:00:00	2024-11-08T04:00:00	4	Temperatura máxima	15.2
97683	7	Sololá	717	San Juan la Laguna	12	San Juan la Laguna	12	Diciembre	2023-12-29T00:00:00	2024-11-08T04:00:00	3	Temperatura mínima	14.8
97684	7	Sololá	717	San Juan la Laguna	12	San Juan la Laguna	12	Diciembre	2023-12-29T00:00:00	2024-11-08T04:00:00	5	Humedad	86
97685	7	Sololá	717	San Juan la Laguna	12	San Juan la Laguna	12	Diciembre	2023-12-29T00:00:00	2024-11-08T04:00:00	6	Velocidad del viento	4.8
97686	7	Sololá	717	San Juan la Laguna	12	San Juan la Laguna	12	Diciembre	2023-12-29T00:00:00	2024-11-08T04:00:00	7	Dirección del viento	4.83
97687	7	Sololá	717	San Juan la Laguna	12	San Juan la Laguna	12	Diciembre	2023-12-29T00:00:00	2024-11-08T04:00:00	1	Precipitación	0
97688	7	Sololá	717	San Juan la Laguna	12	San Juan la Laguna	12	Diciembre	2023-12-29T00:00:00	2024-11-08T04:00:00	8	Radiación solar	0
97689	7	Sololá	717	San Juan la Laguna	12	San Juan la Laguna	12	Diciembre	2023-12-29T00:00:00	2024-11-08T05:00:00	2	Temperatura media	15.1
97690	7	Sololá	717	San Juan la Laguna	12	San Juan la Laguna	12	Diciembre	2023-12-29T00:00:00	2024-11-08T05:00:00	4	Temperatura máxima	15.4
97691	7	Sololá	717	San Juan la Laguna	12	San Juan la Laguna	12	Diciembre	2023-12-29T00:00:00	2024-11-08T05:00:00	3	Temperatura mínima	15.1
97692	7	Sololá	717	San Juan la Laguna	12	San Juan la Laguna	12	Diciembre	2023-12-29T00:00:00	2024-11-08T05:00:00	5	Humedad	85
97693	7	Sololá	717	San Juan la Laguna	12	San Juan la Laguna	12	Diciembre	2023-12-29T00:00:00	2024-11-08T05:00:00	6	Velocidad del viento	3.2
97694	7	Sololá	717	San Juan la Laguna	12	San Juan la Laguna	12	Diciembre	2023-12-29T00:00:00	2024-11-08T05:00:00	7	Dirección del viento	3.22
97695	7	Sololá	717	San Juan la Laguna	12	San Juan la Laguna	12	Diciembre	2023-12-29T00:00:00	2024-11-08T05:00:00	1	Precipitación	0
97696	7	Sololá	717	San Juan la Laguna	12	San Juan la Laguna	12	Diciembre	2023-12-29T00:00:00	2024-11-08T05:00:00	8	Radiación solar	0
97697	7	Sololá	717	San Juan la Laguna	12	San Juan la Laguna	12	Diciembre	2023-12-29T00:00:00	2024-11-08T06:00:00	2	Temperatura media	14.4
97698	7	Sololá	717	San Juan la Laguna	12	San Juan la Laguna	12	Diciembre	2023-12-29T00:00:00	2024-11-08T06:00:00	4	Temperatura máxima	15.1
97699	7	Sololá	717	San Juan la Laguna	12	San Juan la Laguna	12	Diciembre	2023-12-29T00:00:00	2024-11-08T06:00:00	3	Temperatura mínima	14.4
97700	7	Sololá	717	San Juan la Laguna	12	San Juan la Laguna	12	Diciembre	2023-12-29T00:00:00	2024-11-08T06:00:00	5	Humedad	86
97701	7	Sololá	717	San Juan la Laguna	12	San Juan la Laguna	12	Diciembre	2023-12-29T00:00:00	2024-11-08T06:00:00	6	Velocidad del viento	4.8
97702	7	Sololá	717	San Juan la Laguna	12	San Juan la Laguna	12	Diciembre	2023-12-29T00:00:00	2024-11-08T06:00:00	7	Dirección del viento	4.83
97703	7	Sololá	717	San Juan la Laguna	12	San Juan la Laguna	12	Diciembre	2023-12-29T00:00:00	2024-11-08T06:00:00	1	Precipitación	0
97704	7	Sololá	717	San Juan la Laguna	12	San Juan la Laguna	12	Diciembre	2023-12-29T00:00:00	2024-11-08T06:00:00	8	Radiación solar	0
97705	7	Sololá	717	San Juan la Laguna	12	San Juan la Laguna	12	Diciembre	2023-12-29T00:00:00	2024-11-08T07:00:00	2	Temperatura media	14.3
97706	7	Sololá	717	San Juan la Laguna	12	San Juan la Laguna	12	Diciembre	2023-12-29T00:00:00	2024-11-08T07:00:00	4	Temperatura máxima	14.4
97707	7	Sololá	717	San Juan la Laguna	12	San Juan la Laguna	12	Diciembre	2023-12-29T00:00:00	2024-11-08T07:00:00	3	Temperatura mínima	14.2
97708	7	Sololá	717	San Juan la Laguna	12	San Juan la Laguna	12	Diciembre	2023-12-29T00:00:00	2024-11-08T07:00:00	5	Humedad	86
97709	7	Sololá	717	San Juan la Laguna	12	San Juan la Laguna	12	Diciembre	2023-12-29T00:00:00	2024-11-08T07:00:00	6	Velocidad del viento	4.8
97710	7	Sololá	717	San Juan la Laguna	12	San Juan la Laguna	12	Diciembre	2023-12-29T00:00:00	2024-11-08T07:00:00	7	Dirección del viento	4.83
97711	7	Sololá	717	San Juan la Laguna	12	San Juan la Laguna	12	Diciembre	2023-12-29T00:00:00	2024-11-08T07:00:00	1	Precipitación	0
97712	7	Sololá	717	San Juan la Laguna	12	San Juan la Laguna	12	Diciembre	2023-12-29T00:00:00	2024-11-08T07:00:00	8	Radiación solar	6
97713	7	Sololá	717	San Juan la Laguna	12	San Juan la Laguna	12	Diciembre	2023-12-29T00:00:00	2024-11-08T08:00:00	2	Temperatura media	15.3
97714	7	Sololá	717	San Juan la Laguna	12	San Juan la Laguna	12	Diciembre	2023-12-29T00:00:00	2024-11-08T08:00:00	4	Temperatura máxima	15.3
97715	7	Sololá	717	San Juan la Laguna	12	San Juan la Laguna	12	Diciembre	2023-12-29T00:00:00	2024-11-08T08:00:00	3	Temperatura mínima	14.2
97716	7	Sololá	717	San Juan la Laguna	12	San Juan la Laguna	12	Diciembre	2023-12-29T00:00:00	2024-11-08T08:00:00	5	Humedad	85
97717	7	Sololá	717	San Juan la Laguna	12	San Juan la Laguna	12	Diciembre	2023-12-29T00:00:00	2024-11-08T08:00:00	6	Velocidad del viento	3.2
97718	7	Sololá	717	San Juan la Laguna	12	San Juan la Laguna	12	Diciembre	2023-12-29T00:00:00	2024-11-08T08:00:00	7	Dirección del viento	3.22
97719	7	Sololá	717	San Juan la Laguna	12	San Juan la Laguna	12	Diciembre	2023-12-29T00:00:00	2024-11-08T08:00:00	1	Precipitación	0
97720	7	Sololá	717	San Juan la Laguna	12	San Juan la Laguna	12	Diciembre	2023-12-29T00:00:00	2024-11-08T08:00:00	8	Radiación solar	52
97721	7	Sololá	717	San Juan la Laguna	12	San Juan la Laguna	12	Diciembre	2023-12-29T00:00:00	2024-11-08T09:00:00	2	Temperatura media	18.8
97722	7	Sololá	717	San Juan la Laguna	12	San Juan la Laguna	12	Diciembre	2023-12-29T00:00:00	2024-11-08T09:00:00	4	Temperatura máxima	18.8
97723	7	Sololá	717	San Juan la Laguna	12	San Juan la Laguna	12	Diciembre	2023-12-29T00:00:00	2024-11-08T09:00:00	3	Temperatura mínima	15.3
97724	7	Sololá	717	San Juan la Laguna	12	San Juan la Laguna	12	Diciembre	2023-12-29T00:00:00	2024-11-08T09:00:00	5	Humedad	80
97725	7	Sololá	717	San Juan la Laguna	12	San Juan la Laguna	12	Diciembre	2023-12-29T00:00:00	2024-11-08T09:00:00	6	Velocidad del viento	3.2
97726	7	Sololá	717	San Juan la Laguna	12	San Juan la Laguna	12	Diciembre	2023-12-29T00:00:00	2024-11-08T09:00:00	7	Dirección del viento	3.22
97727	7	Sololá	717	San Juan la Laguna	12	San Juan la Laguna	12	Diciembre	2023-12-29T00:00:00	2024-11-08T09:00:00	1	Precipitación	0
97728	7	Sololá	717	San Juan la Laguna	12	San Juan la Laguna	12	Diciembre	2023-12-29T00:00:00	2024-11-08T09:00:00	8	Radiación solar	237
97729	7	Sololá	717	San Juan la Laguna	12	San Juan la Laguna	12	Diciembre	2023-12-29T00:00:00	2024-11-08T10:00:00	2	Temperatura media	20.9
97730	7	Sololá	717	San Juan la Laguna	12	San Juan la Laguna	12	Diciembre	2023-12-29T00:00:00	2024-11-08T10:00:00	4	Temperatura máxima	20.9
97731	7	Sololá	717	San Juan la Laguna	12	San Juan la Laguna	12	Diciembre	2023-12-29T00:00:00	2024-11-08T10:00:00	3	Temperatura mínima	18.8
97732	7	Sololá	717	San Juan la Laguna	12	San Juan la Laguna	12	Diciembre	2023-12-29T00:00:00	2024-11-08T10:00:00	5	Humedad	67
97733	7	Sololá	717	San Juan la Laguna	12	San Juan la Laguna	12	Diciembre	2023-12-29T00:00:00	2024-11-08T10:00:00	6	Velocidad del viento	3.2
97734	7	Sololá	717	San Juan la Laguna	12	San Juan la Laguna	12	Diciembre	2023-12-29T00:00:00	2024-11-08T10:00:00	7	Dirección del viento	3.22
97735	7	Sololá	717	San Juan la Laguna	12	San Juan la Laguna	12	Diciembre	2023-12-29T00:00:00	2024-11-08T10:00:00	1	Precipitación	0
97736	7	Sololá	717	San Juan la Laguna	12	San Juan la Laguna	12	Diciembre	2023-12-29T00:00:00	2024-11-08T10:00:00	8	Radiación solar	385
97737	7	Sololá	717	San Juan la Laguna	12	San Juan la Laguna	12	Diciembre	2023-12-29T00:00:00	2024-11-08T11:00:00	2	Temperatura media	21.6
97738	7	Sololá	717	San Juan la Laguna	12	San Juan la Laguna	12	Diciembre	2023-12-29T00:00:00	2024-11-08T11:00:00	4	Temperatura máxima	22.1
97739	7	Sololá	717	San Juan la Laguna	12	San Juan la Laguna	12	Diciembre	2023-12-29T00:00:00	2024-11-08T11:00:00	3	Temperatura mínima	20.9
97740	7	Sololá	717	San Juan la Laguna	12	San Juan la Laguna	12	Diciembre	2023-12-29T00:00:00	2024-11-08T11:00:00	5	Humedad	64
97741	7	Sololá	717	San Juan la Laguna	12	San Juan la Laguna	12	Diciembre	2023-12-29T00:00:00	2024-11-08T11:00:00	6	Velocidad del viento	6.4
97742	7	Sololá	717	San Juan la Laguna	12	San Juan la Laguna	12	Diciembre	2023-12-29T00:00:00	2024-11-08T11:00:00	7	Dirección del viento	6.44
97743	7	Sololá	717	San Juan la Laguna	12	San Juan la Laguna	12	Diciembre	2023-12-29T00:00:00	2024-11-08T11:00:00	1	Precipitación	0
97744	7	Sololá	717	San Juan la Laguna	12	San Juan la Laguna	12	Diciembre	2023-12-29T00:00:00	2024-11-08T11:00:00	8	Radiación solar	545
97745	7	Sololá	717	San Juan la Laguna	12	San Juan la Laguna	12	Diciembre	2023-12-29T00:00:00	2024-11-08T12:00:00	2	Temperatura media	22.3
97746	7	Sololá	717	San Juan la Laguna	12	San Juan la Laguna	12	Diciembre	2023-12-29T00:00:00	2024-11-08T12:00:00	4	Temperatura máxima	22.5
97747	7	Sololá	717	San Juan la Laguna	12	San Juan la Laguna	12	Diciembre	2023-12-29T00:00:00	2024-11-08T12:00:00	3	Temperatura mínima	21.4
97748	7	Sololá	717	San Juan la Laguna	12	San Juan la Laguna	12	Diciembre	2023-12-29T00:00:00	2024-11-08T12:00:00	5	Humedad	64
97749	7	Sololá	717	San Juan la Laguna	12	San Juan la Laguna	12	Diciembre	2023-12-29T00:00:00	2024-11-08T12:00:00	6	Velocidad del viento	6.4
97750	7	Sololá	717	San Juan la Laguna	12	San Juan la Laguna	12	Diciembre	2023-12-29T00:00:00	2024-11-08T12:00:00	7	Dirección del viento	6.44
97751	7	Sololá	717	San Juan la Laguna	12	San Juan la Laguna	12	Diciembre	2023-12-29T00:00:00	2024-11-08T12:00:00	1	Precipitación	0
97752	7	Sololá	717	San Juan la Laguna	12	San Juan la Laguna	12	Diciembre	2023-12-29T00:00:00	2024-11-08T12:00:00	8	Radiación solar	596
97753	7	Sololá	717	San Juan la Laguna	12	San Juan la Laguna	12	Diciembre	2023-12-29T00:00:00	2024-11-08T13:00:00	2	Temperatura media	23.7
97754	7	Sololá	717	San Juan la Laguna	12	San Juan la Laguna	12	Diciembre	2023-12-29T00:00:00	2024-11-08T13:00:00	4	Temperatura máxima	23.7
97755	7	Sololá	717	San Juan la Laguna	12	San Juan la Laguna	12	Diciembre	2023-12-29T00:00:00	2024-11-08T13:00:00	3	Temperatura mínima	21.6
97756	7	Sololá	717	San Juan la Laguna	12	San Juan la Laguna	12	Diciembre	2023-12-29T00:00:00	2024-11-08T13:00:00	5	Humedad	60
97757	7	Sololá	717	San Juan la Laguna	12	San Juan la Laguna	12	Diciembre	2023-12-29T00:00:00	2024-11-08T13:00:00	6	Velocidad del viento	4.8
97758	7	Sololá	717	San Juan la Laguna	12	San Juan la Laguna	12	Diciembre	2023-12-29T00:00:00	2024-11-08T13:00:00	7	Dirección del viento	4.83
97759	7	Sololá	717	San Juan la Laguna	12	San Juan la Laguna	12	Diciembre	2023-12-29T00:00:00	2024-11-08T13:00:00	1	Precipitación	0
97760	7	Sololá	717	San Juan la Laguna	12	San Juan la Laguna	12	Diciembre	2023-12-29T00:00:00	2024-11-08T13:00:00	8	Radiación solar	610
97761	7	Sololá	717	San Juan la Laguna	12	San Juan la Laguna	12	Diciembre	2023-12-29T00:00:00	2024-11-08T14:00:00	2	Temperatura media	22.2
97762	7	Sololá	717	San Juan la Laguna	12	San Juan la Laguna	12	Diciembre	2023-12-29T00:00:00	2024-11-08T14:00:00	4	Temperatura máxima	23.8
97763	7	Sololá	717	San Juan la Laguna	12	San Juan la Laguna	12	Diciembre	2023-12-29T00:00:00	2024-11-08T14:00:00	3	Temperatura mínima	21.7
97764	7	Sololá	717	San Juan la Laguna	12	San Juan la Laguna	12	Diciembre	2023-12-29T00:00:00	2024-11-08T14:00:00	5	Humedad	63
97765	7	Sololá	717	San Juan la Laguna	12	San Juan la Laguna	12	Diciembre	2023-12-29T00:00:00	2024-11-08T14:00:00	6	Velocidad del viento	9.7
97766	7	Sololá	717	San Juan la Laguna	12	San Juan la Laguna	12	Diciembre	2023-12-29T00:00:00	2024-11-08T14:00:00	7	Dirección del viento	9.66
97767	7	Sololá	717	San Juan la Laguna	12	San Juan la Laguna	12	Diciembre	2023-12-29T00:00:00	2024-11-08T14:00:00	1	Precipitación	0
97768	7	Sololá	717	San Juan la Laguna	12	San Juan la Laguna	12	Diciembre	2023-12-29T00:00:00	2024-11-08T14:00:00	8	Radiación solar	604
97769	7	Sololá	717	San Juan la Laguna	12	San Juan la Laguna	12	Diciembre	2023-12-29T00:00:00	2024-11-08T15:00:00	2	Temperatura media	22.4
97770	7	Sololá	717	San Juan la Laguna	12	San Juan la Laguna	12	Diciembre	2023-12-29T00:00:00	2024-11-08T15:00:00	4	Temperatura máxima	22.6
97771	7	Sololá	717	San Juan la Laguna	12	San Juan la Laguna	12	Diciembre	2023-12-29T00:00:00	2024-11-08T15:00:00	3	Temperatura mínima	21.8
97772	7	Sololá	717	San Juan la Laguna	12	San Juan la Laguna	12	Diciembre	2023-12-29T00:00:00	2024-11-08T15:00:00	5	Humedad	63
97773	7	Sololá	717	San Juan la Laguna	12	San Juan la Laguna	12	Diciembre	2023-12-29T00:00:00	2024-11-08T15:00:00	6	Velocidad del viento	11.3
97774	7	Sololá	717	San Juan la Laguna	12	San Juan la Laguna	12	Diciembre	2023-12-29T00:00:00	2024-11-08T15:00:00	7	Dirección del viento	11.27
97775	7	Sololá	717	San Juan la Laguna	12	San Juan la Laguna	12	Diciembre	2023-12-29T00:00:00	2024-11-08T15:00:00	1	Precipitación	0
97776	7	Sololá	717	San Juan la Laguna	12	San Juan la Laguna	12	Diciembre	2023-12-29T00:00:00	2024-11-08T15:00:00	8	Radiación solar	589
97777	7	Sololá	717	San Juan la Laguna	12	San Juan la Laguna	12	Diciembre	2023-12-29T00:00:00	2024-11-08T16:00:00	2	Temperatura media	22.1
97778	7	Sololá	717	San Juan la Laguna	12	San Juan la Laguna	12	Diciembre	2023-12-29T00:00:00	2024-11-08T16:00:00	4	Temperatura máxima	22.7
97779	7	Sololá	717	San Juan la Laguna	12	San Juan la Laguna	12	Diciembre	2023-12-29T00:00:00	2024-11-08T16:00:00	3	Temperatura mínima	22.1
97780	7	Sololá	717	San Juan la Laguna	12	San Juan la Laguna	12	Diciembre	2023-12-29T00:00:00	2024-11-08T16:00:00	5	Humedad	66
97781	7	Sololá	717	San Juan la Laguna	12	San Juan la Laguna	12	Diciembre	2023-12-29T00:00:00	2024-11-08T16:00:00	6	Velocidad del viento	8
97782	7	Sololá	717	San Juan la Laguna	12	San Juan la Laguna	12	Diciembre	2023-12-29T00:00:00	2024-11-08T16:00:00	7	Dirección del viento	8.05
97783	7	Sololá	717	San Juan la Laguna	12	San Juan la Laguna	12	Diciembre	2023-12-29T00:00:00	2024-11-08T16:00:00	1	Precipitación	0
97784	7	Sololá	717	San Juan la Laguna	12	San Juan la Laguna	12	Diciembre	2023-12-29T00:00:00	2024-11-08T16:00:00	8	Radiación solar	416
97785	7	Sololá	717	San Juan la Laguna	12	San Juan la Laguna	12	Diciembre	2023-12-29T00:00:00	2024-11-08T17:00:00	2	Temperatura media	20.1
97786	7	Sololá	717	San Juan la Laguna	12	San Juan la Laguna	12	Diciembre	2023-12-29T00:00:00	2024-11-08T17:00:00	4	Temperatura máxima	22
97787	7	Sololá	717	San Juan la Laguna	12	San Juan la Laguna	12	Diciembre	2023-12-29T00:00:00	2024-11-08T17:00:00	3	Temperatura mínima	20.1
97788	7	Sololá	717	San Juan la Laguna	12	San Juan la Laguna	12	Diciembre	2023-12-29T00:00:00	2024-11-08T17:00:00	5	Humedad	76
97789	7	Sololá	717	San Juan la Laguna	12	San Juan la Laguna	12	Diciembre	2023-12-29T00:00:00	2024-11-08T17:00:00	6	Velocidad del viento	6.4
97790	7	Sololá	717	San Juan la Laguna	12	San Juan la Laguna	12	Diciembre	2023-12-29T00:00:00	2024-11-08T17:00:00	7	Dirección del viento	6.44
97791	7	Sololá	717	San Juan la Laguna	12	San Juan la Laguna	12	Diciembre	2023-12-29T00:00:00	2024-11-08T17:00:00	1	Precipitación	0
97792	7	Sololá	717	San Juan la Laguna	12	San Juan la Laguna	12	Diciembre	2023-12-29T00:00:00	2024-11-08T17:00:00	8	Radiación solar	136
97793	7	Sololá	717	San Juan la Laguna	12	San Juan la Laguna	12	Diciembre	2023-12-29T00:00:00	2024-11-08T18:00:00	2	Temperatura media	18.7
97794	7	Sololá	717	San Juan la Laguna	12	San Juan la Laguna	12	Diciembre	2023-12-29T00:00:00	2024-11-08T18:00:00	4	Temperatura máxima	20.1
97795	7	Sololá	717	San Juan la Laguna	12	San Juan la Laguna	12	Diciembre	2023-12-29T00:00:00	2024-11-08T18:00:00	3	Temperatura mínima	18.7
97796	7	Sololá	717	San Juan la Laguna	12	San Juan la Laguna	12	Diciembre	2023-12-29T00:00:00	2024-11-08T18:00:00	5	Humedad	77
97797	7	Sololá	717	San Juan la Laguna	12	San Juan la Laguna	12	Diciembre	2023-12-29T00:00:00	2024-11-08T18:00:00	6	Velocidad del viento	4.8
97798	7	Sololá	717	San Juan la Laguna	12	San Juan la Laguna	12	Diciembre	2023-12-29T00:00:00	2024-11-08T18:00:00	7	Dirección del viento	4.83
97799	7	Sololá	717	San Juan la Laguna	12	San Juan la Laguna	12	Diciembre	2023-12-29T00:00:00	2024-11-08T18:00:00	1	Precipitación	0
97800	7	Sololá	717	San Juan la Laguna	12	San Juan la Laguna	12	Diciembre	2023-12-29T00:00:00	2024-11-08T18:00:00	8	Radiación solar	19
97801	7	Sololá	717	San Juan la Laguna	12	San Juan la Laguna	12	Diciembre	2023-12-29T00:00:00	2024-11-08T19:00:00	2	Temperatura media	17.4
97802	7	Sololá	717	San Juan la Laguna	12	San Juan la Laguna	12	Diciembre	2023-12-29T00:00:00	2024-11-08T19:00:00	4	Temperatura máxima	18.7
97803	7	Sololá	717	San Juan la Laguna	12	San Juan la Laguna	12	Diciembre	2023-12-29T00:00:00	2024-11-08T19:00:00	3	Temperatura mínima	17.4
97804	7	Sololá	717	San Juan la Laguna	12	San Juan la Laguna	12	Diciembre	2023-12-29T00:00:00	2024-11-08T19:00:00	5	Humedad	72
97805	7	Sololá	717	San Juan la Laguna	12	San Juan la Laguna	12	Diciembre	2023-12-29T00:00:00	2024-11-08T19:00:00	6	Velocidad del viento	8
97806	7	Sololá	717	San Juan la Laguna	12	San Juan la Laguna	12	Diciembre	2023-12-29T00:00:00	2024-11-08T19:00:00	7	Dirección del viento	8.05
97807	7	Sololá	717	San Juan la Laguna	12	San Juan la Laguna	12	Diciembre	2023-12-29T00:00:00	2024-11-08T19:00:00	1	Precipitación	0
97808	7	Sololá	717	San Juan la Laguna	12	San Juan la Laguna	12	Diciembre	2023-12-29T00:00:00	2024-11-08T19:00:00	8	Radiación solar	0
97809	7	Sololá	717	San Juan la Laguna	12	San Juan la Laguna	12	Diciembre	2023-12-29T00:00:00	2024-11-08T20:00:00	2	Temperatura media	16.2
97810	7	Sololá	717	San Juan la Laguna	12	San Juan la Laguna	12	Diciembre	2023-12-29T00:00:00	2024-11-08T20:00:00	4	Temperatura máxima	17.4
97811	7	Sololá	717	San Juan la Laguna	12	San Juan la Laguna	12	Diciembre	2023-12-29T00:00:00	2024-11-08T20:00:00	3	Temperatura mínima	16.2
97812	7	Sololá	717	San Juan la Laguna	12	San Juan la Laguna	12	Diciembre	2023-12-29T00:00:00	2024-11-08T20:00:00	5	Humedad	74
97813	7	Sololá	717	San Juan la Laguna	12	San Juan la Laguna	12	Diciembre	2023-12-29T00:00:00	2024-11-08T20:00:00	6	Velocidad del viento	6.4
97814	7	Sololá	717	San Juan la Laguna	12	San Juan la Laguna	12	Diciembre	2023-12-29T00:00:00	2024-11-08T20:00:00	7	Dirección del viento	6.44
97815	7	Sololá	717	San Juan la Laguna	12	San Juan la Laguna	12	Diciembre	2023-12-29T00:00:00	2024-11-08T20:00:00	1	Precipitación	0
97816	7	Sololá	717	San Juan la Laguna	12	San Juan la Laguna	12	Diciembre	2023-12-29T00:00:00	2024-11-08T20:00:00	8	Radiación solar	0
97817	7	Sololá	717	San Juan la Laguna	12	San Juan la Laguna	12	Diciembre	2023-12-29T00:00:00	2024-11-08T21:00:00	2	Temperatura media	15.8
97818	7	Sololá	717	San Juan la Laguna	12	San Juan la Laguna	12	Diciembre	2023-12-29T00:00:00	2024-11-08T21:00:00	4	Temperatura máxima	16.2
97819	7	Sololá	717	San Juan la Laguna	12	San Juan la Laguna	12	Diciembre	2023-12-29T00:00:00	2024-11-08T21:00:00	3	Temperatura mínima	15.7
97820	7	Sololá	717	San Juan la Laguna	12	San Juan la Laguna	12	Diciembre	2023-12-29T00:00:00	2024-11-08T21:00:00	5	Humedad	78
97821	7	Sololá	717	San Juan la Laguna	12	San Juan la Laguna	12	Diciembre	2023-12-29T00:00:00	2024-11-08T21:00:00	6	Velocidad del viento	4.8
97822	7	Sololá	717	San Juan la Laguna	12	San Juan la Laguna	12	Diciembre	2023-12-29T00:00:00	2024-11-08T21:00:00	7	Dirección del viento	4.83
97823	7	Sololá	717	San Juan la Laguna	12	San Juan la Laguna	12	Diciembre	2023-12-29T00:00:00	2024-11-08T21:00:00	1	Precipitación	0
97824	7	Sololá	717	San Juan la Laguna	12	San Juan la Laguna	12	Diciembre	2023-12-29T00:00:00	2024-11-08T21:00:00	8	Radiación solar	0
97825	7	Sololá	717	San Juan la Laguna	12	San Juan la Laguna	12	Diciembre	2023-12-29T00:00:00	2024-11-08T22:00:00	2	Temperatura media	15.2
97826	7	Sololá	717	San Juan la Laguna	12	San Juan la Laguna	12	Diciembre	2023-12-29T00:00:00	2024-11-08T22:00:00	4	Temperatura máxima	15.8
97827	7	Sololá	717	San Juan la Laguna	12	San Juan la Laguna	12	Diciembre	2023-12-29T00:00:00	2024-11-08T22:00:00	3	Temperatura mínima	15.2
97828	7	Sololá	717	San Juan la Laguna	12	San Juan la Laguna	12	Diciembre	2023-12-29T00:00:00	2024-11-08T22:00:00	5	Humedad	79
97829	7	Sololá	717	San Juan la Laguna	12	San Juan la Laguna	12	Diciembre	2023-12-29T00:00:00	2024-11-08T22:00:00	6	Velocidad del viento	6.4
97830	7	Sololá	717	San Juan la Laguna	12	San Juan la Laguna	12	Diciembre	2023-12-29T00:00:00	2024-11-08T22:00:00	7	Dirección del viento	6.44
97831	7	Sololá	717	San Juan la Laguna	12	San Juan la Laguna	12	Diciembre	2023-12-29T00:00:00	2024-11-08T22:00:00	1	Precipitación	0
97832	7	Sololá	717	San Juan la Laguna	12	San Juan la Laguna	12	Diciembre	2023-12-29T00:00:00	2024-11-08T22:00:00	8	Radiación solar	0
97833	7	Sololá	717	San Juan la Laguna	12	San Juan la Laguna	12	Diciembre	2023-12-29T00:00:00	2024-11-08T23:00:00	2	Temperatura media	14.4
97834	7	Sololá	717	San Juan la Laguna	12	San Juan la Laguna	12	Diciembre	2023-12-29T00:00:00	2024-11-08T23:00:00	4	Temperatura máxima	15.2
97835	7	Sololá	717	San Juan la Laguna	12	San Juan la Laguna	12	Diciembre	2023-12-29T00:00:00	2024-11-08T23:00:00	3	Temperatura mínima	14.3
97836	7	Sololá	717	San Juan la Laguna	12	San Juan la Laguna	12	Diciembre	2023-12-29T00:00:00	2024-11-08T23:00:00	5	Humedad	83
97837	7	Sololá	717	San Juan la Laguna	12	San Juan la Laguna	12	Diciembre	2023-12-29T00:00:00	2024-11-08T23:00:00	6	Velocidad del viento	4.8
97838	7	Sololá	717	San Juan la Laguna	12	San Juan la Laguna	12	Diciembre	2023-12-29T00:00:00	2024-11-08T23:00:00	7	Dirección del viento	4.83
97839	7	Sololá	717	San Juan la Laguna	12	San Juan la Laguna	12	Diciembre	2023-12-29T00:00:00	2024-11-08T23:00:00	1	Precipitación	0
97840	7	Sololá	717	San Juan la Laguna	12	San Juan la Laguna	12	Diciembre	2023-12-29T00:00:00	2024-11-08T23:00:00	8	Radiación solar	0
97841	7	Sololá	717	San Juan la Laguna	12	San Juan la Laguna	12	Diciembre	2023-12-30T00:00:00	2024-11-08T00:00:00	2	Temperatura media	14.7
97842	7	Sololá	717	San Juan la Laguna	12	San Juan la Laguna	12	Diciembre	2023-12-30T00:00:00	2024-11-08T00:00:00	4	Temperatura máxima	14.7
97843	7	Sololá	717	San Juan la Laguna	12	San Juan la Laguna	12	Diciembre	2023-12-30T00:00:00	2024-11-08T00:00:00	3	Temperatura mínima	14.3
97844	7	Sololá	717	San Juan la Laguna	12	San Juan la Laguna	12	Diciembre	2023-12-30T00:00:00	2024-11-08T00:00:00	5	Humedad	82
97845	7	Sololá	717	San Juan la Laguna	12	San Juan la Laguna	12	Diciembre	2023-12-30T00:00:00	2024-11-08T00:00:00	6	Velocidad del viento	4.8
97846	7	Sololá	717	San Juan la Laguna	12	San Juan la Laguna	12	Diciembre	2023-12-30T00:00:00	2024-11-08T00:00:00	7	Dirección del viento	4.83
97847	7	Sololá	717	San Juan la Laguna	12	San Juan la Laguna	12	Diciembre	2023-12-30T00:00:00	2024-11-08T00:00:00	1	Precipitación	0
97848	7	Sololá	717	San Juan la Laguna	12	San Juan la Laguna	12	Diciembre	2023-12-30T00:00:00	2024-11-08T00:00:00	8	Radiación solar	0
97849	7	Sololá	717	San Juan la Laguna	12	San Juan la Laguna	12	Diciembre	2023-12-30T00:00:00	2024-11-08T01:00:00	2	Temperatura media	14.7
97850	7	Sololá	717	San Juan la Laguna	12	San Juan la Laguna	12	Diciembre	2023-12-30T00:00:00	2024-11-08T01:00:00	4	Temperatura máxima	15.1
97851	7	Sololá	717	San Juan la Laguna	12	San Juan la Laguna	12	Diciembre	2023-12-30T00:00:00	2024-11-08T01:00:00	3	Temperatura mínima	14.6
97852	7	Sololá	717	San Juan la Laguna	12	San Juan la Laguna	12	Diciembre	2023-12-30T00:00:00	2024-11-08T01:00:00	5	Humedad	83
97853	7	Sololá	717	San Juan la Laguna	12	San Juan la Laguna	12	Diciembre	2023-12-30T00:00:00	2024-11-08T01:00:00	6	Velocidad del viento	4.8
97854	7	Sololá	717	San Juan la Laguna	12	San Juan la Laguna	12	Diciembre	2023-12-30T00:00:00	2024-11-08T01:00:00	7	Dirección del viento	4.83
97855	7	Sololá	717	San Juan la Laguna	12	San Juan la Laguna	12	Diciembre	2023-12-30T00:00:00	2024-11-08T01:00:00	1	Precipitación	0
97856	7	Sololá	717	San Juan la Laguna	12	San Juan la Laguna	12	Diciembre	2023-12-30T00:00:00	2024-11-08T01:00:00	8	Radiación solar	0
97857	7	Sololá	717	San Juan la Laguna	12	San Juan la Laguna	12	Diciembre	2023-12-30T00:00:00	2024-11-08T02:00:00	2	Temperatura media	14.7
97858	7	Sololá	717	San Juan la Laguna	12	San Juan la Laguna	12	Diciembre	2023-12-30T00:00:00	2024-11-08T02:00:00	4	Temperatura máxima	15.1
97859	7	Sololá	717	San Juan la Laguna	12	San Juan la Laguna	12	Diciembre	2023-12-30T00:00:00	2024-11-08T02:00:00	3	Temperatura mínima	14.7
97860	7	Sololá	717	San Juan la Laguna	12	San Juan la Laguna	12	Diciembre	2023-12-30T00:00:00	2024-11-08T02:00:00	5	Humedad	82
97861	7	Sololá	717	San Juan la Laguna	12	San Juan la Laguna	12	Diciembre	2023-12-30T00:00:00	2024-11-08T02:00:00	6	Velocidad del viento	3.2
97862	7	Sololá	717	San Juan la Laguna	12	San Juan la Laguna	12	Diciembre	2023-12-30T00:00:00	2024-11-08T02:00:00	7	Dirección del viento	3.22
97863	7	Sololá	717	San Juan la Laguna	12	San Juan la Laguna	12	Diciembre	2023-12-30T00:00:00	2024-11-08T02:00:00	1	Precipitación	0
97864	7	Sololá	717	San Juan la Laguna	12	San Juan la Laguna	12	Diciembre	2023-12-30T00:00:00	2024-11-08T02:00:00	8	Radiación solar	0
97865	7	Sololá	717	San Juan la Laguna	12	San Juan la Laguna	12	Diciembre	2023-12-30T00:00:00	2024-11-08T03:00:00	2	Temperatura media	13.3
97866	7	Sololá	717	San Juan la Laguna	12	San Juan la Laguna	12	Diciembre	2023-12-30T00:00:00	2024-11-08T03:00:00	4	Temperatura máxima	14.7
97867	7	Sololá	717	San Juan la Laguna	12	San Juan la Laguna	12	Diciembre	2023-12-30T00:00:00	2024-11-08T03:00:00	3	Temperatura mínima	13.3
97868	7	Sololá	717	San Juan la Laguna	12	San Juan la Laguna	12	Diciembre	2023-12-30T00:00:00	2024-11-08T03:00:00	5	Humedad	84
97869	7	Sololá	717	San Juan la Laguna	12	San Juan la Laguna	12	Diciembre	2023-12-30T00:00:00	2024-11-08T03:00:00	6	Velocidad del viento	4.8
97870	7	Sololá	717	San Juan la Laguna	12	San Juan la Laguna	12	Diciembre	2023-12-30T00:00:00	2024-11-08T03:00:00	7	Dirección del viento	4.83
97871	7	Sololá	717	San Juan la Laguna	12	San Juan la Laguna	12	Diciembre	2023-12-30T00:00:00	2024-11-08T03:00:00	1	Precipitación	0
97872	7	Sololá	717	San Juan la Laguna	12	San Juan la Laguna	12	Diciembre	2023-12-30T00:00:00	2024-11-08T03:00:00	8	Radiación solar	0
97873	7	Sololá	717	San Juan la Laguna	12	San Juan la Laguna	12	Diciembre	2023-12-30T00:00:00	2024-11-08T04:00:00	2	Temperatura media	12.8
97874	7	Sololá	717	San Juan la Laguna	12	San Juan la Laguna	12	Diciembre	2023-12-30T00:00:00	2024-11-08T04:00:00	4	Temperatura máxima	13.5
97875	7	Sololá	717	San Juan la Laguna	12	San Juan la Laguna	12	Diciembre	2023-12-30T00:00:00	2024-11-08T04:00:00	3	Temperatura mínima	12.8
97876	7	Sololá	717	San Juan la Laguna	12	San Juan la Laguna	12	Diciembre	2023-12-30T00:00:00	2024-11-08T04:00:00	5	Humedad	85
97877	7	Sololá	717	San Juan la Laguna	12	San Juan la Laguna	12	Diciembre	2023-12-30T00:00:00	2024-11-08T04:00:00	6	Velocidad del viento	3.2
97878	7	Sololá	717	San Juan la Laguna	12	San Juan la Laguna	12	Diciembre	2023-12-30T00:00:00	2024-11-08T04:00:00	7	Dirección del viento	3.22
97879	7	Sololá	717	San Juan la Laguna	12	San Juan la Laguna	12	Diciembre	2023-12-30T00:00:00	2024-11-08T04:00:00	1	Precipitación	0
97880	7	Sololá	717	San Juan la Laguna	12	San Juan la Laguna	12	Diciembre	2023-12-30T00:00:00	2024-11-08T04:00:00	8	Radiación solar	0
97881	7	Sololá	717	San Juan la Laguna	12	San Juan la Laguna	12	Diciembre	2023-12-30T00:00:00	2024-11-08T05:00:00	2	Temperatura media	12.6
97882	7	Sololá	717	San Juan la Laguna	12	San Juan la Laguna	12	Diciembre	2023-12-30T00:00:00	2024-11-08T05:00:00	4	Temperatura máxima	12.8
97883	7	Sololá	717	San Juan la Laguna	12	San Juan la Laguna	12	Diciembre	2023-12-30T00:00:00	2024-11-08T05:00:00	3	Temperatura mínima	12.6
97884	7	Sololá	717	San Juan la Laguna	12	San Juan la Laguna	12	Diciembre	2023-12-30T00:00:00	2024-11-08T05:00:00	5	Humedad	85
97885	7	Sololá	717	San Juan la Laguna	12	San Juan la Laguna	12	Diciembre	2023-12-30T00:00:00	2024-11-08T05:00:00	6	Velocidad del viento	4.8
97886	7	Sololá	717	San Juan la Laguna	12	San Juan la Laguna	12	Diciembre	2023-12-30T00:00:00	2024-11-08T05:00:00	7	Dirección del viento	4.83
97887	7	Sololá	717	San Juan la Laguna	12	San Juan la Laguna	12	Diciembre	2023-12-30T00:00:00	2024-11-08T05:00:00	1	Precipitación	0
97888	7	Sololá	717	San Juan la Laguna	12	San Juan la Laguna	12	Diciembre	2023-12-30T00:00:00	2024-11-08T05:00:00	8	Radiación solar	0
97889	7	Sololá	717	San Juan la Laguna	12	San Juan la Laguna	12	Diciembre	2023-12-30T00:00:00	2024-11-08T06:00:00	2	Temperatura media	12.9
97890	7	Sololá	717	San Juan la Laguna	12	San Juan la Laguna	12	Diciembre	2023-12-30T00:00:00	2024-11-08T06:00:00	4	Temperatura máxima	13.1
97891	7	Sololá	717	San Juan la Laguna	12	San Juan la Laguna	12	Diciembre	2023-12-30T00:00:00	2024-11-08T06:00:00	3	Temperatura mínima	12.6
97892	7	Sololá	717	San Juan la Laguna	12	San Juan la Laguna	12	Diciembre	2023-12-30T00:00:00	2024-11-08T06:00:00	5	Humedad	83
97893	7	Sololá	717	San Juan la Laguna	12	San Juan la Laguna	12	Diciembre	2023-12-30T00:00:00	2024-11-08T06:00:00	6	Velocidad del viento	6.4
97894	7	Sololá	717	San Juan la Laguna	12	San Juan la Laguna	12	Diciembre	2023-12-30T00:00:00	2024-11-08T06:00:00	7	Dirección del viento	6.44
97895	7	Sololá	717	San Juan la Laguna	12	San Juan la Laguna	12	Diciembre	2023-12-30T00:00:00	2024-11-08T06:00:00	1	Precipitación	0
97896	7	Sololá	717	San Juan la Laguna	12	San Juan la Laguna	12	Diciembre	2023-12-30T00:00:00	2024-11-08T06:00:00	8	Radiación solar	0
97897	7	Sololá	717	San Juan la Laguna	12	San Juan la Laguna	12	Diciembre	2023-12-30T00:00:00	2024-11-08T07:00:00	2	Temperatura media	12.3
97898	7	Sololá	717	San Juan la Laguna	12	San Juan la Laguna	12	Diciembre	2023-12-30T00:00:00	2024-11-08T07:00:00	4	Temperatura máxima	12.9
97899	7	Sololá	717	San Juan la Laguna	12	San Juan la Laguna	12	Diciembre	2023-12-30T00:00:00	2024-11-08T07:00:00	3	Temperatura mínima	12.3
97900	7	Sololá	717	San Juan la Laguna	12	San Juan la Laguna	12	Diciembre	2023-12-30T00:00:00	2024-11-08T07:00:00	5	Humedad	86
97901	7	Sololá	717	San Juan la Laguna	12	San Juan la Laguna	12	Diciembre	2023-12-30T00:00:00	2024-11-08T07:00:00	6	Velocidad del viento	3.2
97902	7	Sololá	717	San Juan la Laguna	12	San Juan la Laguna	12	Diciembre	2023-12-30T00:00:00	2024-11-08T07:00:00	7	Dirección del viento	3.22
97903	7	Sololá	717	San Juan la Laguna	12	San Juan la Laguna	12	Diciembre	2023-12-30T00:00:00	2024-11-08T07:00:00	1	Precipitación	0
97904	7	Sololá	717	San Juan la Laguna	12	San Juan la Laguna	12	Diciembre	2023-12-30T00:00:00	2024-11-08T07:00:00	8	Radiación solar	6
97905	7	Sololá	717	San Juan la Laguna	12	San Juan la Laguna	12	Diciembre	2023-12-30T00:00:00	2024-11-08T08:00:00	2	Temperatura media	14.8
97906	7	Sololá	717	San Juan la Laguna	12	San Juan la Laguna	12	Diciembre	2023-12-30T00:00:00	2024-11-08T08:00:00	4	Temperatura máxima	14.8
97907	7	Sololá	717	San Juan la Laguna	12	San Juan la Laguna	12	Diciembre	2023-12-30T00:00:00	2024-11-08T08:00:00	3	Temperatura mínima	12.3
97908	7	Sololá	717	San Juan la Laguna	12	San Juan la Laguna	12	Diciembre	2023-12-30T00:00:00	2024-11-08T08:00:00	5	Humedad	80
97909	7	Sololá	717	San Juan la Laguna	12	San Juan la Laguna	12	Diciembre	2023-12-30T00:00:00	2024-11-08T08:00:00	6	Velocidad del viento	4.8
97910	7	Sololá	717	San Juan la Laguna	12	San Juan la Laguna	12	Diciembre	2023-12-30T00:00:00	2024-11-08T08:00:00	7	Dirección del viento	4.83
97911	7	Sololá	717	San Juan la Laguna	12	San Juan la Laguna	12	Diciembre	2023-12-30T00:00:00	2024-11-08T08:00:00	1	Precipitación	0
97912	7	Sololá	717	San Juan la Laguna	12	San Juan la Laguna	12	Diciembre	2023-12-30T00:00:00	2024-11-08T08:00:00	8	Radiación solar	111
97913	7	Sololá	717	San Juan la Laguna	12	San Juan la Laguna	12	Diciembre	2023-12-30T00:00:00	2024-11-08T09:00:00	2	Temperatura media	19.4
97914	7	Sololá	717	San Juan la Laguna	12	San Juan la Laguna	12	Diciembre	2023-12-30T00:00:00	2024-11-08T09:00:00	4	Temperatura máxima	19.4
97915	7	Sololá	717	San Juan la Laguna	12	San Juan la Laguna	12	Diciembre	2023-12-30T00:00:00	2024-11-08T09:00:00	3	Temperatura mínima	14.8
97916	7	Sololá	717	San Juan la Laguna	12	San Juan la Laguna	12	Diciembre	2023-12-30T00:00:00	2024-11-08T09:00:00	5	Humedad	71
97917	7	Sololá	717	San Juan la Laguna	12	San Juan la Laguna	12	Diciembre	2023-12-30T00:00:00	2024-11-08T09:00:00	6	Velocidad del viento	1.6
97918	7	Sololá	717	San Juan la Laguna	12	San Juan la Laguna	12	Diciembre	2023-12-30T00:00:00	2024-11-08T09:00:00	7	Dirección del viento	1.61
97919	7	Sololá	717	San Juan la Laguna	12	San Juan la Laguna	12	Diciembre	2023-12-30T00:00:00	2024-11-08T09:00:00	1	Precipitación	0
97920	7	Sololá	717	San Juan la Laguna	12	San Juan la Laguna	12	Diciembre	2023-12-30T00:00:00	2024-11-08T09:00:00	8	Radiación solar	316
97921	7	Sololá	717	San Juan la Laguna	12	San Juan la Laguna	12	Diciembre	2023-12-30T00:00:00	2024-11-08T10:00:00	2	Temperatura media	20.5
97922	7	Sololá	717	San Juan la Laguna	12	San Juan la Laguna	12	Diciembre	2023-12-30T00:00:00	2024-11-08T10:00:00	4	Temperatura máxima	20.5
97923	7	Sololá	717	San Juan la Laguna	12	San Juan la Laguna	12	Diciembre	2023-12-30T00:00:00	2024-11-08T10:00:00	3	Temperatura mínima	19.2
97924	7	Sololá	717	San Juan la Laguna	12	San Juan la Laguna	12	Diciembre	2023-12-30T00:00:00	2024-11-08T10:00:00	5	Humedad	64
97925	7	Sololá	717	San Juan la Laguna	12	San Juan la Laguna	12	Diciembre	2023-12-30T00:00:00	2024-11-08T10:00:00	6	Velocidad del viento	3.2
97926	7	Sololá	717	San Juan la Laguna	12	San Juan la Laguna	12	Diciembre	2023-12-30T00:00:00	2024-11-08T10:00:00	7	Dirección del viento	3.22
97927	7	Sololá	717	San Juan la Laguna	12	San Juan la Laguna	12	Diciembre	2023-12-30T00:00:00	2024-11-08T10:00:00	1	Precipitación	0
97928	7	Sololá	717	San Juan la Laguna	12	San Juan la Laguna	12	Diciembre	2023-12-30T00:00:00	2024-11-08T10:00:00	8	Radiación solar	493
97929	7	Sololá	717	San Juan la Laguna	12	San Juan la Laguna	12	Diciembre	2023-12-30T00:00:00	2024-11-08T11:00:00	2	Temperatura media	22.1
97930	7	Sololá	717	San Juan la Laguna	12	San Juan la Laguna	12	Diciembre	2023-12-30T00:00:00	2024-11-08T11:00:00	4	Temperatura máxima	22.1
97931	7	Sololá	717	San Juan la Laguna	12	San Juan la Laguna	12	Diciembre	2023-12-30T00:00:00	2024-11-08T11:00:00	3	Temperatura mínima	20.5
97932	7	Sololá	717	San Juan la Laguna	12	San Juan la Laguna	12	Diciembre	2023-12-30T00:00:00	2024-11-08T11:00:00	5	Humedad	53
97933	7	Sololá	717	San Juan la Laguna	12	San Juan la Laguna	12	Diciembre	2023-12-30T00:00:00	2024-11-08T11:00:00	6	Velocidad del viento	6.4
97934	7	Sololá	717	San Juan la Laguna	12	San Juan la Laguna	12	Diciembre	2023-12-30T00:00:00	2024-11-08T11:00:00	7	Dirección del viento	6.44
97935	7	Sololá	717	San Juan la Laguna	12	San Juan la Laguna	12	Diciembre	2023-12-30T00:00:00	2024-11-08T11:00:00	1	Precipitación	0
97936	7	Sololá	717	San Juan la Laguna	12	San Juan la Laguna	12	Diciembre	2023-12-30T00:00:00	2024-11-08T11:00:00	8	Radiación solar	560
97937	7	Sololá	717	San Juan la Laguna	12	San Juan la Laguna	12	Diciembre	2023-12-30T00:00:00	2024-11-08T12:00:00	2	Temperatura media	24.3
97938	7	Sololá	717	San Juan la Laguna	12	San Juan la Laguna	12	Diciembre	2023-12-30T00:00:00	2024-11-08T12:00:00	4	Temperatura máxima	24.3
97939	7	Sololá	717	San Juan la Laguna	12	San Juan la Laguna	12	Diciembre	2023-12-30T00:00:00	2024-11-08T12:00:00	3	Temperatura mínima	22.1
97940	7	Sololá	717	San Juan la Laguna	12	San Juan la Laguna	12	Diciembre	2023-12-30T00:00:00	2024-11-08T12:00:00	5	Humedad	46
97941	7	Sololá	717	San Juan la Laguna	12	San Juan la Laguna	12	Diciembre	2023-12-30T00:00:00	2024-11-08T12:00:00	6	Velocidad del viento	6.4
97942	7	Sololá	717	San Juan la Laguna	12	San Juan la Laguna	12	Diciembre	2023-12-30T00:00:00	2024-11-08T12:00:00	7	Dirección del viento	6.44
97943	7	Sololá	717	San Juan la Laguna	12	San Juan la Laguna	12	Diciembre	2023-12-30T00:00:00	2024-11-08T12:00:00	1	Precipitación	0
97944	7	Sololá	717	San Juan la Laguna	12	San Juan la Laguna	12	Diciembre	2023-12-30T00:00:00	2024-11-08T12:00:00	8	Radiación solar	700
97945	7	Sololá	717	San Juan la Laguna	12	San Juan la Laguna	12	Diciembre	2023-12-30T00:00:00	2024-11-08T13:00:00	2	Temperatura media	24.6
97946	7	Sololá	717	San Juan la Laguna	12	San Juan la Laguna	12	Diciembre	2023-12-30T00:00:00	2024-11-08T13:00:00	4	Temperatura máxima	24.8
97947	7	Sololá	717	San Juan la Laguna	12	San Juan la Laguna	12	Diciembre	2023-12-30T00:00:00	2024-11-08T13:00:00	3	Temperatura mínima	24
97948	7	Sololá	717	San Juan la Laguna	12	San Juan la Laguna	12	Diciembre	2023-12-30T00:00:00	2024-11-08T13:00:00	5	Humedad	55
97949	7	Sololá	717	San Juan la Laguna	12	San Juan la Laguna	12	Diciembre	2023-12-30T00:00:00	2024-11-08T13:00:00	6	Velocidad del viento	6.4
97950	7	Sololá	717	San Juan la Laguna	12	San Juan la Laguna	12	Diciembre	2023-12-30T00:00:00	2024-11-08T13:00:00	7	Dirección del viento	6.44
97951	7	Sololá	717	San Juan la Laguna	12	San Juan la Laguna	12	Diciembre	2023-12-30T00:00:00	2024-11-08T13:00:00	1	Precipitación	0
97952	7	Sololá	717	San Juan la Laguna	12	San Juan la Laguna	12	Diciembre	2023-12-30T00:00:00	2024-11-08T13:00:00	8	Radiación solar	709
97953	7	Sololá	717	San Juan la Laguna	12	San Juan la Laguna	12	Diciembre	2023-12-30T00:00:00	2024-11-08T14:00:00	2	Temperatura media	23.9
97954	7	Sololá	717	San Juan la Laguna	12	San Juan la Laguna	12	Diciembre	2023-12-30T00:00:00	2024-11-08T14:00:00	4	Temperatura máxima	24.7
97955	7	Sololá	717	San Juan la Laguna	12	San Juan la Laguna	12	Diciembre	2023-12-30T00:00:00	2024-11-08T14:00:00	3	Temperatura mínima	23.3
97956	7	Sololá	717	San Juan la Laguna	12	San Juan la Laguna	12	Diciembre	2023-12-30T00:00:00	2024-11-08T14:00:00	5	Humedad	62
97957	7	Sololá	717	San Juan la Laguna	12	San Juan la Laguna	12	Diciembre	2023-12-30T00:00:00	2024-11-08T14:00:00	6	Velocidad del viento	8
97958	7	Sololá	717	San Juan la Laguna	12	San Juan la Laguna	12	Diciembre	2023-12-30T00:00:00	2024-11-08T14:00:00	7	Dirección del viento	8.05
97959	7	Sololá	717	San Juan la Laguna	12	San Juan la Laguna	12	Diciembre	2023-12-30T00:00:00	2024-11-08T14:00:00	1	Precipitación	0
97960	7	Sololá	717	San Juan la Laguna	12	San Juan la Laguna	12	Diciembre	2023-12-30T00:00:00	2024-11-08T14:00:00	8	Radiación solar	672
97961	7	Sololá	717	San Juan la Laguna	12	San Juan la Laguna	12	Diciembre	2023-12-30T00:00:00	2024-11-08T15:00:00	2	Temperatura media	22.4
97962	7	Sololá	717	San Juan la Laguna	12	San Juan la Laguna	12	Diciembre	2023-12-30T00:00:00	2024-11-08T15:00:00	4	Temperatura máxima	23.9
97963	7	Sololá	717	San Juan la Laguna	12	San Juan la Laguna	12	Diciembre	2023-12-30T00:00:00	2024-11-08T15:00:00	3	Temperatura mínima	22.4
97964	7	Sololá	717	San Juan la Laguna	12	San Juan la Laguna	12	Diciembre	2023-12-30T00:00:00	2024-11-08T15:00:00	5	Humedad	69
97965	7	Sololá	717	San Juan la Laguna	12	San Juan la Laguna	12	Diciembre	2023-12-30T00:00:00	2024-11-08T15:00:00	6	Velocidad del viento	9.7
97966	7	Sololá	717	San Juan la Laguna	12	San Juan la Laguna	12	Diciembre	2023-12-30T00:00:00	2024-11-08T15:00:00	7	Dirección del viento	9.66
97967	7	Sololá	717	San Juan la Laguna	12	San Juan la Laguna	12	Diciembre	2023-12-30T00:00:00	2024-11-08T15:00:00	1	Precipitación	0
97968	7	Sololá	717	San Juan la Laguna	12	San Juan la Laguna	12	Diciembre	2023-12-30T00:00:00	2024-11-08T15:00:00	8	Radiación solar	570
97969	7	Sololá	717	San Juan la Laguna	12	San Juan la Laguna	12	Diciembre	2023-12-30T00:00:00	2024-11-08T16:00:00	2	Temperatura media	21.7
97970	7	Sololá	717	San Juan la Laguna	12	San Juan la Laguna	12	Diciembre	2023-12-30T00:00:00	2024-11-08T16:00:00	4	Temperatura máxima	22.4
97971	7	Sololá	717	San Juan la Laguna	12	San Juan la Laguna	12	Diciembre	2023-12-30T00:00:00	2024-11-08T16:00:00	3	Temperatura mínima	21.6
97972	7	Sololá	717	San Juan la Laguna	12	San Juan la Laguna	12	Diciembre	2023-12-30T00:00:00	2024-11-08T16:00:00	5	Humedad	72
97973	7	Sololá	717	San Juan la Laguna	12	San Juan la Laguna	12	Diciembre	2023-12-30T00:00:00	2024-11-08T16:00:00	6	Velocidad del viento	9.7
97974	7	Sololá	717	San Juan la Laguna	12	San Juan la Laguna	12	Diciembre	2023-12-30T00:00:00	2024-11-08T16:00:00	7	Dirección del viento	9.66
97975	7	Sololá	717	San Juan la Laguna	12	San Juan la Laguna	12	Diciembre	2023-12-30T00:00:00	2024-11-08T16:00:00	1	Precipitación	0
97976	7	Sololá	717	San Juan la Laguna	12	San Juan la Laguna	12	Diciembre	2023-12-30T00:00:00	2024-11-08T16:00:00	8	Radiación solar	372
97977	7	Sololá	717	San Juan la Laguna	12	San Juan la Laguna	12	Diciembre	2023-12-30T00:00:00	2024-11-08T17:00:00	2	Temperatura media	19.9
97978	7	Sololá	717	San Juan la Laguna	12	San Juan la Laguna	12	Diciembre	2023-12-30T00:00:00	2024-11-08T17:00:00	4	Temperatura máxima	21.7
97979	7	Sololá	717	San Juan la Laguna	12	San Juan la Laguna	12	Diciembre	2023-12-30T00:00:00	2024-11-08T17:00:00	3	Temperatura mínima	19.9
97980	7	Sololá	717	San Juan la Laguna	12	San Juan la Laguna	12	Diciembre	2023-12-30T00:00:00	2024-11-08T17:00:00	5	Humedad	79
97981	7	Sololá	717	San Juan la Laguna	12	San Juan la Laguna	12	Diciembre	2023-12-30T00:00:00	2024-11-08T17:00:00	6	Velocidad del viento	8
97982	7	Sololá	717	San Juan la Laguna	12	San Juan la Laguna	12	Diciembre	2023-12-30T00:00:00	2024-11-08T17:00:00	7	Dirección del viento	8.05
97983	7	Sololá	717	San Juan la Laguna	12	San Juan la Laguna	12	Diciembre	2023-12-30T00:00:00	2024-11-08T17:00:00	1	Precipitación	0
97984	7	Sololá	717	San Juan la Laguna	12	San Juan la Laguna	12	Diciembre	2023-12-30T00:00:00	2024-11-08T17:00:00	8	Radiación solar	113
97985	7	Sololá	717	San Juan la Laguna	12	San Juan la Laguna	12	Diciembre	2023-12-30T00:00:00	2024-11-08T18:00:00	2	Temperatura media	19.3
97986	7	Sololá	717	San Juan la Laguna	12	San Juan la Laguna	12	Diciembre	2023-12-30T00:00:00	2024-11-08T18:00:00	4	Temperatura máxima	19.9
97987	7	Sololá	717	San Juan la Laguna	12	San Juan la Laguna	12	Diciembre	2023-12-30T00:00:00	2024-11-08T18:00:00	3	Temperatura mínima	19.3
97988	7	Sololá	717	San Juan la Laguna	12	San Juan la Laguna	12	Diciembre	2023-12-30T00:00:00	2024-11-08T18:00:00	5	Humedad	80
97989	7	Sololá	717	San Juan la Laguna	12	San Juan la Laguna	12	Diciembre	2023-12-30T00:00:00	2024-11-08T18:00:00	6	Velocidad del viento	6.4
97990	7	Sololá	717	San Juan la Laguna	12	San Juan la Laguna	12	Diciembre	2023-12-30T00:00:00	2024-11-08T18:00:00	7	Dirección del viento	6.44
97991	7	Sololá	717	San Juan la Laguna	12	San Juan la Laguna	12	Diciembre	2023-12-30T00:00:00	2024-11-08T18:00:00	1	Precipitación	0
97992	7	Sololá	717	San Juan la Laguna	12	San Juan la Laguna	12	Diciembre	2023-12-30T00:00:00	2024-11-08T18:00:00	8	Radiación solar	17
97993	7	Sololá	717	San Juan la Laguna	12	San Juan la Laguna	12	Diciembre	2023-12-30T00:00:00	2024-11-08T19:00:00	2	Temperatura media	18.3
97994	7	Sololá	717	San Juan la Laguna	12	San Juan la Laguna	12	Diciembre	2023-12-30T00:00:00	2024-11-08T19:00:00	4	Temperatura máxima	19.3
97995	7	Sololá	717	San Juan la Laguna	12	San Juan la Laguna	12	Diciembre	2023-12-30T00:00:00	2024-11-08T19:00:00	3	Temperatura mínima	18.3
97996	7	Sololá	717	San Juan la Laguna	12	San Juan la Laguna	12	Diciembre	2023-12-30T00:00:00	2024-11-08T19:00:00	5	Humedad	82
97997	7	Sololá	717	San Juan la Laguna	12	San Juan la Laguna	12	Diciembre	2023-12-30T00:00:00	2024-11-08T19:00:00	6	Velocidad del viento	3.2
97998	7	Sololá	717	San Juan la Laguna	12	San Juan la Laguna	12	Diciembre	2023-12-30T00:00:00	2024-11-08T19:00:00	7	Dirección del viento	3.22
97999	7	Sololá	717	San Juan la Laguna	12	San Juan la Laguna	12	Diciembre	2023-12-30T00:00:00	2024-11-08T19:00:00	1	Precipitación	0
98000	7	Sololá	717	San Juan la Laguna	12	San Juan la Laguna	12	Diciembre	2023-12-30T00:00:00	2024-11-08T19:00:00	8	Radiación solar	0
98001	7	Sololá	717	San Juan la Laguna	12	San Juan la Laguna	12	Diciembre	2023-12-30T00:00:00	2024-11-08T20:00:00	2	Temperatura media	18.6
98002	7	Sololá	717	San Juan la Laguna	12	San Juan la Laguna	12	Diciembre	2023-12-30T00:00:00	2024-11-08T20:00:00	4	Temperatura máxima	18.6
98003	7	Sololá	717	San Juan la Laguna	12	San Juan la Laguna	12	Diciembre	2023-12-30T00:00:00	2024-11-08T20:00:00	3	Temperatura mínima	18.2
98004	7	Sololá	717	San Juan la Laguna	12	San Juan la Laguna	12	Diciembre	2023-12-30T00:00:00	2024-11-08T20:00:00	5	Humedad	76
98005	7	Sololá	717	San Juan la Laguna	12	San Juan la Laguna	12	Diciembre	2023-12-30T00:00:00	2024-11-08T20:00:00	6	Velocidad del viento	1.6
98006	7	Sololá	717	San Juan la Laguna	12	San Juan la Laguna	12	Diciembre	2023-12-30T00:00:00	2024-11-08T20:00:00	7	Dirección del viento	1.61
98007	7	Sololá	717	San Juan la Laguna	12	San Juan la Laguna	12	Diciembre	2023-12-30T00:00:00	2024-11-08T20:00:00	1	Precipitación	0
98008	7	Sololá	717	San Juan la Laguna	12	San Juan la Laguna	12	Diciembre	2023-12-30T00:00:00	2024-11-08T20:00:00	8	Radiación solar	0
98009	7	Sololá	717	San Juan la Laguna	12	San Juan la Laguna	12	Diciembre	2023-12-30T00:00:00	2024-11-08T21:00:00	2	Temperatura media	16.1
98010	7	Sololá	717	San Juan la Laguna	12	San Juan la Laguna	12	Diciembre	2023-12-30T00:00:00	2024-11-08T21:00:00	4	Temperatura máxima	18.7
98011	7	Sololá	717	San Juan la Laguna	12	San Juan la Laguna	12	Diciembre	2023-12-30T00:00:00	2024-11-08T21:00:00	3	Temperatura mínima	16.1
98012	7	Sololá	717	San Juan la Laguna	12	San Juan la Laguna	12	Diciembre	2023-12-30T00:00:00	2024-11-08T21:00:00	5	Humedad	82
98013	7	Sololá	717	San Juan la Laguna	12	San Juan la Laguna	12	Diciembre	2023-12-30T00:00:00	2024-11-08T21:00:00	6	Velocidad del viento	3.2
98014	7	Sololá	717	San Juan la Laguna	12	San Juan la Laguna	12	Diciembre	2023-12-30T00:00:00	2024-11-08T21:00:00	7	Dirección del viento	3.22
98015	7	Sololá	717	San Juan la Laguna	12	San Juan la Laguna	12	Diciembre	2023-12-30T00:00:00	2024-11-08T21:00:00	1	Precipitación	0
98016	7	Sololá	717	San Juan la Laguna	12	San Juan la Laguna	12	Diciembre	2023-12-30T00:00:00	2024-11-08T21:00:00	8	Radiación solar	0
98017	7	Sololá	717	San Juan la Laguna	12	San Juan la Laguna	12	Diciembre	2023-12-30T00:00:00	2024-11-08T22:00:00	2	Temperatura media	15.9
98018	7	Sololá	717	San Juan la Laguna	12	San Juan la Laguna	12	Diciembre	2023-12-30T00:00:00	2024-11-08T22:00:00	4	Temperatura máxima	16.8
98019	7	Sololá	717	San Juan la Laguna	12	San Juan la Laguna	12	Diciembre	2023-12-30T00:00:00	2024-11-08T22:00:00	3	Temperatura mínima	15.7
98020	7	Sololá	717	San Juan la Laguna	12	San Juan la Laguna	12	Diciembre	2023-12-30T00:00:00	2024-11-08T22:00:00	5	Humedad	80
98021	7	Sololá	717	San Juan la Laguna	12	San Juan la Laguna	12	Diciembre	2023-12-30T00:00:00	2024-11-08T22:00:00	6	Velocidad del viento	3.2
98022	7	Sololá	717	San Juan la Laguna	12	San Juan la Laguna	12	Diciembre	2023-12-30T00:00:00	2024-11-08T22:00:00	7	Dirección del viento	3.22
98023	7	Sololá	717	San Juan la Laguna	12	San Juan la Laguna	12	Diciembre	2023-12-30T00:00:00	2024-11-08T22:00:00	1	Precipitación	0
98024	7	Sololá	717	San Juan la Laguna	12	San Juan la Laguna	12	Diciembre	2023-12-30T00:00:00	2024-11-08T22:00:00	8	Radiación solar	0
98025	7	Sololá	717	San Juan la Laguna	12	San Juan la Laguna	12	Diciembre	2023-12-30T00:00:00	2024-11-08T23:00:00	2	Temperatura media	17.3
98026	7	Sololá	717	San Juan la Laguna	12	San Juan la Laguna	12	Diciembre	2023-12-30T00:00:00	2024-11-08T23:00:00	4	Temperatura máxima	17.9
98027	7	Sololá	717	San Juan la Laguna	12	San Juan la Laguna	12	Diciembre	2023-12-30T00:00:00	2024-11-08T23:00:00	3	Temperatura mínima	16
98028	7	Sololá	717	San Juan la Laguna	12	San Juan la Laguna	12	Diciembre	2023-12-30T00:00:00	2024-11-08T23:00:00	5	Humedad	73
98029	7	Sololá	717	San Juan la Laguna	12	San Juan la Laguna	12	Diciembre	2023-12-30T00:00:00	2024-11-08T23:00:00	6	Velocidad del viento	4.8
98030	7	Sololá	717	San Juan la Laguna	12	San Juan la Laguna	12	Diciembre	2023-12-30T00:00:00	2024-11-08T23:00:00	7	Dirección del viento	4.83
98031	7	Sololá	717	San Juan la Laguna	12	San Juan la Laguna	12	Diciembre	2023-12-30T00:00:00	2024-11-08T23:00:00	1	Precipitación	0
98032	7	Sololá	717	San Juan la Laguna	12	San Juan la Laguna	12	Diciembre	2023-12-30T00:00:00	2024-11-08T23:00:00	8	Radiación solar	0
98033	7	Sololá	717	San Juan la Laguna	12	San Juan la Laguna	12	Diciembre	2023-12-31T00:00:00	2024-11-08T00:00:00	2	Temperatura media	14.8
98034	7	Sololá	717	San Juan la Laguna	12	San Juan la Laguna	12	Diciembre	2023-12-31T00:00:00	2024-11-08T00:00:00	4	Temperatura máxima	17.3
98035	7	Sololá	717	San Juan la Laguna	12	San Juan la Laguna	12	Diciembre	2023-12-31T00:00:00	2024-11-08T00:00:00	3	Temperatura mínima	14.8
98036	7	Sololá	717	San Juan la Laguna	12	San Juan la Laguna	12	Diciembre	2023-12-31T00:00:00	2024-11-08T00:00:00	5	Humedad	80
98037	7	Sololá	717	San Juan la Laguna	12	San Juan la Laguna	12	Diciembre	2023-12-31T00:00:00	2024-11-08T00:00:00	6	Velocidad del viento	3.2
98038	7	Sololá	717	San Juan la Laguna	12	San Juan la Laguna	12	Diciembre	2023-12-31T00:00:00	2024-11-08T00:00:00	7	Dirección del viento	3.22
98039	7	Sololá	717	San Juan la Laguna	12	San Juan la Laguna	12	Diciembre	2023-12-31T00:00:00	2024-11-08T00:00:00	1	Precipitación	0
98040	7	Sololá	717	San Juan la Laguna	12	San Juan la Laguna	12	Diciembre	2023-12-31T00:00:00	2024-11-08T00:00:00	8	Radiación solar	0
98041	7	Sololá	717	San Juan la Laguna	12	San Juan la Laguna	12	Diciembre	2023-12-31T00:00:00	2024-11-08T01:00:00	2	Temperatura media	14.3
98042	7	Sololá	717	San Juan la Laguna	12	San Juan la Laguna	12	Diciembre	2023-12-31T00:00:00	2024-11-08T01:00:00	4	Temperatura máxima	14.9
98043	7	Sololá	717	San Juan la Laguna	12	San Juan la Laguna	12	Diciembre	2023-12-31T00:00:00	2024-11-08T01:00:00	3	Temperatura mínima	14
98044	7	Sololá	717	San Juan la Laguna	12	San Juan la Laguna	12	Diciembre	2023-12-31T00:00:00	2024-11-08T01:00:00	5	Humedad	80
98045	7	Sololá	717	San Juan la Laguna	12	San Juan la Laguna	12	Diciembre	2023-12-31T00:00:00	2024-11-08T01:00:00	6	Velocidad del viento	4.8
98046	7	Sololá	717	San Juan la Laguna	12	San Juan la Laguna	12	Diciembre	2023-12-31T00:00:00	2024-11-08T01:00:00	7	Dirección del viento	4.83
98047	7	Sololá	717	San Juan la Laguna	12	San Juan la Laguna	12	Diciembre	2023-12-31T00:00:00	2024-11-08T01:00:00	1	Precipitación	0
98048	7	Sololá	717	San Juan la Laguna	12	San Juan la Laguna	12	Diciembre	2023-12-31T00:00:00	2024-11-08T01:00:00	8	Radiación solar	0
98049	7	Sololá	717	San Juan la Laguna	12	San Juan la Laguna	12	Diciembre	2023-12-31T00:00:00	2024-11-08T02:00:00	2	Temperatura media	13.6
98050	7	Sololá	717	San Juan la Laguna	12	San Juan la Laguna	12	Diciembre	2023-12-31T00:00:00	2024-11-08T02:00:00	4	Temperatura máxima	14.3
98051	7	Sololá	717	San Juan la Laguna	12	San Juan la Laguna	12	Diciembre	2023-12-31T00:00:00	2024-11-08T02:00:00	3	Temperatura mínima	13
98052	7	Sololá	717	San Juan la Laguna	12	San Juan la Laguna	12	Diciembre	2023-12-31T00:00:00	2024-11-08T02:00:00	5	Humedad	82
98053	7	Sololá	717	San Juan la Laguna	12	San Juan la Laguna	12	Diciembre	2023-12-31T00:00:00	2024-11-08T02:00:00	6	Velocidad del viento	4.8
98054	7	Sololá	717	San Juan la Laguna	12	San Juan la Laguna	12	Diciembre	2023-12-31T00:00:00	2024-11-08T02:00:00	7	Dirección del viento	4.83
98055	7	Sololá	717	San Juan la Laguna	12	San Juan la Laguna	12	Diciembre	2023-12-31T00:00:00	2024-11-08T02:00:00	1	Precipitación	0
98056	7	Sololá	717	San Juan la Laguna	12	San Juan la Laguna	12	Diciembre	2023-12-31T00:00:00	2024-11-08T02:00:00	8	Radiación solar	0
98057	7	Sololá	717	San Juan la Laguna	12	San Juan la Laguna	12	Diciembre	2023-12-31T00:00:00	2024-11-08T03:00:00	2	Temperatura media	12.8
98058	7	Sololá	717	San Juan la Laguna	12	San Juan la Laguna	12	Diciembre	2023-12-31T00:00:00	2024-11-08T03:00:00	4	Temperatura máxima	13.7
98059	7	Sololá	717	San Juan la Laguna	12	San Juan la Laguna	12	Diciembre	2023-12-31T00:00:00	2024-11-08T03:00:00	3	Temperatura mínima	12.8
98060	7	Sololá	717	San Juan la Laguna	12	San Juan la Laguna	12	Diciembre	2023-12-31T00:00:00	2024-11-08T03:00:00	5	Humedad	83
98061	7	Sololá	717	San Juan la Laguna	12	San Juan la Laguna	12	Diciembre	2023-12-31T00:00:00	2024-11-08T03:00:00	6	Velocidad del viento	4.8
98062	7	Sololá	717	San Juan la Laguna	12	San Juan la Laguna	12	Diciembre	2023-12-31T00:00:00	2024-11-08T03:00:00	7	Dirección del viento	4.83
98063	7	Sololá	717	San Juan la Laguna	12	San Juan la Laguna	12	Diciembre	2023-12-31T00:00:00	2024-11-08T03:00:00	1	Precipitación	0
98064	7	Sololá	717	San Juan la Laguna	12	San Juan la Laguna	12	Diciembre	2023-12-31T00:00:00	2024-11-08T03:00:00	8	Radiación solar	0
98065	7	Sololá	717	San Juan la Laguna	12	San Juan la Laguna	12	Diciembre	2023-12-31T00:00:00	2024-11-08T04:00:00	2	Temperatura media	12.3
98066	7	Sololá	717	San Juan la Laguna	12	San Juan la Laguna	12	Diciembre	2023-12-31T00:00:00	2024-11-08T04:00:00	4	Temperatura máxima	13
98067	7	Sololá	717	San Juan la Laguna	12	San Juan la Laguna	12	Diciembre	2023-12-31T00:00:00	2024-11-08T04:00:00	3	Temperatura mínima	12.3
98068	7	Sololá	717	San Juan la Laguna	12	San Juan la Laguna	12	Diciembre	2023-12-31T00:00:00	2024-11-08T04:00:00	5	Humedad	83
98069	7	Sololá	717	San Juan la Laguna	12	San Juan la Laguna	12	Diciembre	2023-12-31T00:00:00	2024-11-08T04:00:00	6	Velocidad del viento	6.4
98070	7	Sololá	717	San Juan la Laguna	12	San Juan la Laguna	12	Diciembre	2023-12-31T00:00:00	2024-11-08T04:00:00	7	Dirección del viento	6.44
98071	7	Sololá	717	San Juan la Laguna	12	San Juan la Laguna	12	Diciembre	2023-12-31T00:00:00	2024-11-08T04:00:00	1	Precipitación	0
98072	7	Sololá	717	San Juan la Laguna	12	San Juan la Laguna	12	Diciembre	2023-12-31T00:00:00	2024-11-08T04:00:00	8	Radiación solar	0
98073	7	Sololá	717	San Juan la Laguna	12	San Juan la Laguna	12	Diciembre	2023-12-31T00:00:00	2024-11-08T05:00:00	2	Temperatura media	11.8
98074	7	Sololá	717	San Juan la Laguna	12	San Juan la Laguna	12	Diciembre	2023-12-31T00:00:00	2024-11-08T05:00:00	4	Temperatura máxima	12.3
98075	7	Sololá	717	San Juan la Laguna	12	San Juan la Laguna	12	Diciembre	2023-12-31T00:00:00	2024-11-08T05:00:00	3	Temperatura mínima	11.8
98076	7	Sololá	717	San Juan la Laguna	12	San Juan la Laguna	12	Diciembre	2023-12-31T00:00:00	2024-11-08T05:00:00	5	Humedad	83
98077	7	Sololá	717	San Juan la Laguna	12	San Juan la Laguna	12	Diciembre	2023-12-31T00:00:00	2024-11-08T05:00:00	6	Velocidad del viento	6.4
98078	7	Sololá	717	San Juan la Laguna	12	San Juan la Laguna	12	Diciembre	2023-12-31T00:00:00	2024-11-08T05:00:00	7	Dirección del viento	6.44
98079	7	Sololá	717	San Juan la Laguna	12	San Juan la Laguna	12	Diciembre	2023-12-31T00:00:00	2024-11-08T05:00:00	1	Precipitación	0
98080	7	Sololá	717	San Juan la Laguna	12	San Juan la Laguna	12	Diciembre	2023-12-31T00:00:00	2024-11-08T05:00:00	8	Radiación solar	0
98081	7	Sololá	717	San Juan la Laguna	12	San Juan la Laguna	12	Diciembre	2023-12-31T00:00:00	2024-11-08T06:00:00	2	Temperatura media	11.7
98082	7	Sololá	717	San Juan la Laguna	12	San Juan la Laguna	12	Diciembre	2023-12-31T00:00:00	2024-11-08T06:00:00	4	Temperatura máxima	11.9
98083	7	Sololá	717	San Juan la Laguna	12	San Juan la Laguna	12	Diciembre	2023-12-31T00:00:00	2024-11-08T06:00:00	3	Temperatura mínima	11.7
98084	7	Sololá	717	San Juan la Laguna	12	San Juan la Laguna	12	Diciembre	2023-12-31T00:00:00	2024-11-08T06:00:00	5	Humedad	84
98085	7	Sololá	717	San Juan la Laguna	12	San Juan la Laguna	12	Diciembre	2023-12-31T00:00:00	2024-11-08T06:00:00	6	Velocidad del viento	6.4
98086	7	Sololá	717	San Juan la Laguna	12	San Juan la Laguna	12	Diciembre	2023-12-31T00:00:00	2024-11-08T06:00:00	7	Dirección del viento	6.44
98087	7	Sololá	717	San Juan la Laguna	12	San Juan la Laguna	12	Diciembre	2023-12-31T00:00:00	2024-11-08T06:00:00	1	Precipitación	0
98088	7	Sololá	717	San Juan la Laguna	12	San Juan la Laguna	12	Diciembre	2023-12-31T00:00:00	2024-11-08T06:00:00	8	Radiación solar	0
98089	7	Sololá	717	San Juan la Laguna	12	San Juan la Laguna	12	Diciembre	2023-12-31T00:00:00	2024-11-08T07:00:00	2	Temperatura media	11.6
98090	7	Sololá	717	San Juan la Laguna	12	San Juan la Laguna	12	Diciembre	2023-12-31T00:00:00	2024-11-08T07:00:00	4	Temperatura máxima	11.8
98091	7	Sololá	717	San Juan la Laguna	12	San Juan la Laguna	12	Diciembre	2023-12-31T00:00:00	2024-11-08T07:00:00	3	Temperatura mínima	11.3
98092	7	Sololá	717	San Juan la Laguna	12	San Juan la Laguna	12	Diciembre	2023-12-31T00:00:00	2024-11-08T07:00:00	5	Humedad	84
98093	7	Sololá	717	San Juan la Laguna	12	San Juan la Laguna	12	Diciembre	2023-12-31T00:00:00	2024-11-08T07:00:00	6	Velocidad del viento	4.8
98094	7	Sololá	717	San Juan la Laguna	12	San Juan la Laguna	12	Diciembre	2023-12-31T00:00:00	2024-11-08T07:00:00	7	Dirección del viento	4.83
98095	7	Sololá	717	San Juan la Laguna	12	San Juan la Laguna	12	Diciembre	2023-12-31T00:00:00	2024-11-08T07:00:00	1	Precipitación	0
98096	7	Sololá	717	San Juan la Laguna	12	San Juan la Laguna	12	Diciembre	2023-12-31T00:00:00	2024-11-08T07:00:00	8	Radiación solar	5
98097	7	Sololá	717	San Juan la Laguna	12	San Juan la Laguna	12	Diciembre	2023-12-31T00:00:00	2024-11-08T08:00:00	2	Temperatura media	14.3
98098	7	Sololá	717	San Juan la Laguna	12	San Juan la Laguna	12	Diciembre	2023-12-31T00:00:00	2024-11-08T08:00:00	4	Temperatura máxima	14.3
98099	7	Sololá	717	San Juan la Laguna	12	San Juan la Laguna	12	Diciembre	2023-12-31T00:00:00	2024-11-08T08:00:00	3	Temperatura mínima	11.6
98100	7	Sololá	717	San Juan la Laguna	12	San Juan la Laguna	12	Diciembre	2023-12-31T00:00:00	2024-11-08T08:00:00	5	Humedad	78
98101	7	Sololá	717	San Juan la Laguna	12	San Juan la Laguna	12	Diciembre	2023-12-31T00:00:00	2024-11-08T08:00:00	6	Velocidad del viento	4.8
98102	7	Sololá	717	San Juan la Laguna	12	San Juan la Laguna	12	Diciembre	2023-12-31T00:00:00	2024-11-08T08:00:00	7	Dirección del viento	4.83
98103	7	Sololá	717	San Juan la Laguna	12	San Juan la Laguna	12	Diciembre	2023-12-31T00:00:00	2024-11-08T08:00:00	1	Precipitación	0
98104	7	Sololá	717	San Juan la Laguna	12	San Juan la Laguna	12	Diciembre	2023-12-31T00:00:00	2024-11-08T08:00:00	8	Radiación solar	124
98105	7	Sololá	717	San Juan la Laguna	12	San Juan la Laguna	12	Diciembre	2023-12-31T00:00:00	2024-11-08T09:00:00	2	Temperatura media	18.6
98106	7	Sololá	717	San Juan la Laguna	12	San Juan la Laguna	12	Diciembre	2023-12-31T00:00:00	2024-11-08T09:00:00	4	Temperatura máxima	18.6
98107	7	Sololá	717	San Juan la Laguna	12	San Juan la Laguna	12	Diciembre	2023-12-31T00:00:00	2024-11-08T09:00:00	3	Temperatura mínima	14.3
98108	7	Sololá	717	San Juan la Laguna	12	San Juan la Laguna	12	Diciembre	2023-12-31T00:00:00	2024-11-08T09:00:00	5	Humedad	68
98109	7	Sololá	717	San Juan la Laguna	12	San Juan la Laguna	12	Diciembre	2023-12-31T00:00:00	2024-11-08T09:00:00	6	Velocidad del viento	3.2
98110	7	Sololá	717	San Juan la Laguna	12	San Juan la Laguna	12	Diciembre	2023-12-31T00:00:00	2024-11-08T09:00:00	7	Dirección del viento	3.22
98111	7	Sololá	717	San Juan la Laguna	12	San Juan la Laguna	12	Diciembre	2023-12-31T00:00:00	2024-11-08T09:00:00	1	Precipitación	0
98112	7	Sololá	717	San Juan la Laguna	12	San Juan la Laguna	12	Diciembre	2023-12-31T00:00:00	2024-11-08T09:00:00	8	Radiación solar	334
98113	7	Sololá	717	San Juan la Laguna	12	San Juan la Laguna	12	Diciembre	2023-12-31T00:00:00	2024-11-08T10:00:00	2	Temperatura media	19.3
98114	7	Sololá	717	San Juan la Laguna	12	San Juan la Laguna	12	Diciembre	2023-12-31T00:00:00	2024-11-08T10:00:00	4	Temperatura máxima	19.3
98115	7	Sololá	717	San Juan la Laguna	12	San Juan la Laguna	12	Diciembre	2023-12-31T00:00:00	2024-11-08T10:00:00	3	Temperatura mínima	18.5
98116	7	Sololá	717	San Juan la Laguna	12	San Juan la Laguna	12	Diciembre	2023-12-31T00:00:00	2024-11-08T10:00:00	5	Humedad	65
98117	7	Sololá	717	San Juan la Laguna	12	San Juan la Laguna	12	Diciembre	2023-12-31T00:00:00	2024-11-08T10:00:00	6	Velocidad del viento	4.8
98118	7	Sololá	717	San Juan la Laguna	12	San Juan la Laguna	12	Diciembre	2023-12-31T00:00:00	2024-11-08T10:00:00	7	Dirección del viento	4.83
98119	7	Sololá	717	San Juan la Laguna	12	San Juan la Laguna	12	Diciembre	2023-12-31T00:00:00	2024-11-08T10:00:00	1	Precipitación	0
98120	7	Sololá	717	San Juan la Laguna	12	San Juan la Laguna	12	Diciembre	2023-12-31T00:00:00	2024-11-08T10:00:00	8	Radiación solar	519
98121	7	Sololá	717	San Juan la Laguna	12	San Juan la Laguna	12	Diciembre	2023-12-31T00:00:00	2024-11-08T11:00:00	2	Temperatura media	21.3
98122	7	Sololá	717	San Juan la Laguna	12	San Juan la Laguna	12	Diciembre	2023-12-31T00:00:00	2024-11-08T11:00:00	4	Temperatura máxima	21.3
98123	7	Sololá	717	San Juan la Laguna	12	San Juan la Laguna	12	Diciembre	2023-12-31T00:00:00	2024-11-08T11:00:00	3	Temperatura mínima	19.3
98124	7	Sololá	717	San Juan la Laguna	12	San Juan la Laguna	12	Diciembre	2023-12-31T00:00:00	2024-11-08T11:00:00	5	Humedad	54
98125	7	Sololá	717	San Juan la Laguna	12	San Juan la Laguna	12	Diciembre	2023-12-31T00:00:00	2024-11-08T11:00:00	6	Velocidad del viento	4.8
98126	7	Sololá	717	San Juan la Laguna	12	San Juan la Laguna	12	Diciembre	2023-12-31T00:00:00	2024-11-08T11:00:00	7	Dirección del viento	4.83
98127	7	Sololá	717	San Juan la Laguna	12	San Juan la Laguna	12	Diciembre	2023-12-31T00:00:00	2024-11-08T11:00:00	1	Precipitación	0
98128	7	Sololá	717	San Juan la Laguna	12	San Juan la Laguna	12	Diciembre	2023-12-31T00:00:00	2024-11-08T11:00:00	8	Radiación solar	570
98129	7	Sololá	717	San Juan la Laguna	12	San Juan la Laguna	12	Diciembre	2023-12-31T00:00:00	2024-11-08T12:00:00	2	Temperatura media	23.1
98130	7	Sololá	717	San Juan la Laguna	12	San Juan la Laguna	12	Diciembre	2023-12-31T00:00:00	2024-11-08T12:00:00	4	Temperatura máxima	23.1
98131	7	Sololá	717	San Juan la Laguna	12	San Juan la Laguna	12	Diciembre	2023-12-31T00:00:00	2024-11-08T12:00:00	3	Temperatura mínima	21.3
98132	7	Sololá	717	San Juan la Laguna	12	San Juan la Laguna	12	Diciembre	2023-12-31T00:00:00	2024-11-08T12:00:00	5	Humedad	48
98133	7	Sololá	717	San Juan la Laguna	12	San Juan la Laguna	12	Diciembre	2023-12-31T00:00:00	2024-11-08T12:00:00	6	Velocidad del viento	4.8
98134	7	Sololá	717	San Juan la Laguna	12	San Juan la Laguna	12	Diciembre	2023-12-31T00:00:00	2024-11-08T12:00:00	7	Dirección del viento	4.83
98135	7	Sololá	717	San Juan la Laguna	12	San Juan la Laguna	12	Diciembre	2023-12-31T00:00:00	2024-11-08T12:00:00	1	Precipitación	0
98136	7	Sololá	717	San Juan la Laguna	12	San Juan la Laguna	12	Diciembre	2023-12-31T00:00:00	2024-11-08T12:00:00	8	Radiación solar	701
98137	7	Sololá	717	San Juan la Laguna	12	San Juan la Laguna	12	Diciembre	2023-12-31T00:00:00	2024-11-08T13:00:00	2	Temperatura media	23.4
98138	7	Sololá	717	San Juan la Laguna	12	San Juan la Laguna	12	Diciembre	2023-12-31T00:00:00	2024-11-08T13:00:00	4	Temperatura máxima	23.9
98139	7	Sololá	717	San Juan la Laguna	12	San Juan la Laguna	12	Diciembre	2023-12-31T00:00:00	2024-11-08T13:00:00	3	Temperatura mínima	22.9
98140	7	Sololá	717	San Juan la Laguna	12	San Juan la Laguna	12	Diciembre	2023-12-31T00:00:00	2024-11-08T13:00:00	5	Humedad	58
98141	7	Sololá	717	San Juan la Laguna	12	San Juan la Laguna	12	Diciembre	2023-12-31T00:00:00	2024-11-08T13:00:00	6	Velocidad del viento	4.8
98142	7	Sololá	717	San Juan la Laguna	12	San Juan la Laguna	12	Diciembre	2023-12-31T00:00:00	2024-11-08T13:00:00	7	Dirección del viento	4.83
98143	7	Sololá	717	San Juan la Laguna	12	San Juan la Laguna	12	Diciembre	2023-12-31T00:00:00	2024-11-08T13:00:00	1	Precipitación	0
98144	7	Sololá	717	San Juan la Laguna	12	San Juan la Laguna	12	Diciembre	2023-12-31T00:00:00	2024-11-08T13:00:00	8	Radiación solar	703
98145	7	Sololá	717	San Juan la Laguna	12	San Juan la Laguna	12	Diciembre	2023-12-31T00:00:00	2024-11-08T14:00:00	2	Temperatura media	23.4
98146	7	Sololá	717	San Juan la Laguna	12	San Juan la Laguna	12	Diciembre	2023-12-31T00:00:00	2024-11-08T14:00:00	4	Temperatura máxima	23.6
98147	7	Sololá	717	San Juan la Laguna	12	San Juan la Laguna	12	Diciembre	2023-12-31T00:00:00	2024-11-08T14:00:00	3	Temperatura mínima	23.1
98148	7	Sololá	717	San Juan la Laguna	12	San Juan la Laguna	12	Diciembre	2023-12-31T00:00:00	2024-11-08T14:00:00	5	Humedad	61
98149	7	Sololá	717	San Juan la Laguna	12	San Juan la Laguna	12	Diciembre	2023-12-31T00:00:00	2024-11-08T14:00:00	6	Velocidad del viento	9.7
98150	7	Sololá	717	San Juan la Laguna	12	San Juan la Laguna	12	Diciembre	2023-12-31T00:00:00	2024-11-08T14:00:00	7	Dirección del viento	9.66
98151	7	Sololá	717	San Juan la Laguna	12	San Juan la Laguna	12	Diciembre	2023-12-31T00:00:00	2024-11-08T14:00:00	1	Precipitación	0
98152	7	Sololá	717	San Juan la Laguna	12	San Juan la Laguna	12	Diciembre	2023-12-31T00:00:00	2024-11-08T14:00:00	8	Radiación solar	709
98153	7	Sololá	717	San Juan la Laguna	12	San Juan la Laguna	12	Diciembre	2023-12-31T00:00:00	2024-11-08T15:00:00	2	Temperatura media	22
98154	7	Sololá	717	San Juan la Laguna	12	San Juan la Laguna	12	Diciembre	2023-12-31T00:00:00	2024-11-08T15:00:00	4	Temperatura máxima	24.1
98155	7	Sololá	717	San Juan la Laguna	12	San Juan la Laguna	12	Diciembre	2023-12-31T00:00:00	2024-11-08T15:00:00	3	Temperatura mínima	22
98156	7	Sololá	717	San Juan la Laguna	12	San Juan la Laguna	12	Diciembre	2023-12-31T00:00:00	2024-11-08T15:00:00	5	Humedad	68
98157	7	Sololá	717	San Juan la Laguna	12	San Juan la Laguna	12	Diciembre	2023-12-31T00:00:00	2024-11-08T15:00:00	6	Velocidad del viento	6.4
98158	7	Sololá	717	San Juan la Laguna	12	San Juan la Laguna	12	Diciembre	2023-12-31T00:00:00	2024-11-08T15:00:00	7	Dirección del viento	6.44
98159	7	Sololá	717	San Juan la Laguna	12	San Juan la Laguna	12	Diciembre	2023-12-31T00:00:00	2024-11-08T15:00:00	1	Precipitación	0
98160	7	Sololá	717	San Juan la Laguna	12	San Juan la Laguna	12	Diciembre	2023-12-31T00:00:00	2024-11-08T15:00:00	8	Radiación solar	433
98161	7	Sololá	717	San Juan la Laguna	12	San Juan la Laguna	12	Diciembre	2023-12-31T00:00:00	2024-11-08T16:00:00	2	Temperatura media	22.1
98162	7	Sololá	717	San Juan la Laguna	12	San Juan la Laguna	12	Diciembre	2023-12-31T00:00:00	2024-11-08T16:00:00	4	Temperatura máxima	22.6
98163	7	Sololá	717	San Juan la Laguna	12	San Juan la Laguna	12	Diciembre	2023-12-31T00:00:00	2024-11-08T16:00:00	3	Temperatura mínima	21.9
98164	7	Sololá	717	San Juan la Laguna	12	San Juan la Laguna	12	Diciembre	2023-12-31T00:00:00	2024-11-08T16:00:00	5	Humedad	69
98165	7	Sololá	717	San Juan la Laguna	12	San Juan la Laguna	12	Diciembre	2023-12-31T00:00:00	2024-11-08T16:00:00	6	Velocidad del viento	6.4
98166	7	Sololá	717	San Juan la Laguna	12	San Juan la Laguna	12	Diciembre	2023-12-31T00:00:00	2024-11-08T16:00:00	7	Dirección del viento	6.44
98167	7	Sololá	717	San Juan la Laguna	12	San Juan la Laguna	12	Diciembre	2023-12-31T00:00:00	2024-11-08T16:00:00	1	Precipitación	0
98168	7	Sololá	717	San Juan la Laguna	12	San Juan la Laguna	12	Diciembre	2023-12-31T00:00:00	2024-11-08T16:00:00	8	Radiación solar	364
98169	7	Sololá	717	San Juan la Laguna	12	San Juan la Laguna	12	Diciembre	2023-12-31T00:00:00	2024-11-08T17:00:00	2	Temperatura media	20.3
98170	7	Sololá	717	San Juan la Laguna	12	San Juan la Laguna	12	Diciembre	2023-12-31T00:00:00	2024-11-08T17:00:00	4	Temperatura máxima	22.2
98171	7	Sololá	717	San Juan la Laguna	12	San Juan la Laguna	12	Diciembre	2023-12-31T00:00:00	2024-11-08T17:00:00	3	Temperatura mínima	20.3
98172	7	Sololá	717	San Juan la Laguna	12	San Juan la Laguna	12	Diciembre	2023-12-31T00:00:00	2024-11-08T17:00:00	5	Humedad	77
98173	7	Sololá	717	San Juan la Laguna	12	San Juan la Laguna	12	Diciembre	2023-12-31T00:00:00	2024-11-08T17:00:00	6	Velocidad del viento	4.8
98174	7	Sololá	717	San Juan la Laguna	12	San Juan la Laguna	12	Diciembre	2023-12-31T00:00:00	2024-11-08T17:00:00	7	Dirección del viento	4.83
98175	7	Sololá	717	San Juan la Laguna	12	San Juan la Laguna	12	Diciembre	2023-12-31T00:00:00	2024-11-08T17:00:00	1	Precipitación	0
98176	7	Sololá	717	San Juan la Laguna	12	San Juan la Laguna	12	Diciembre	2023-12-31T00:00:00	2024-11-08T17:00:00	8	Radiación solar	105
98177	7	Sololá	717	San Juan la Laguna	12	San Juan la Laguna	12	Diciembre	2023-12-31T00:00:00	2024-11-08T18:00:00	2	Temperatura media	19.5
98178	7	Sololá	717	San Juan la Laguna	12	San Juan la Laguna	12	Diciembre	2023-12-31T00:00:00	2024-11-08T18:00:00	4	Temperatura máxima	20.3
98179	7	Sololá	717	San Juan la Laguna	12	San Juan la Laguna	12	Diciembre	2023-12-31T00:00:00	2024-11-08T18:00:00	3	Temperatura mínima	19.5
98180	7	Sololá	717	San Juan la Laguna	12	San Juan la Laguna	12	Diciembre	2023-12-31T00:00:00	2024-11-08T18:00:00	5	Humedad	80
98181	7	Sololá	717	San Juan la Laguna	12	San Juan la Laguna	12	Diciembre	2023-12-31T00:00:00	2024-11-08T18:00:00	6	Velocidad del viento	3.2
98182	7	Sololá	717	San Juan la Laguna	12	San Juan la Laguna	12	Diciembre	2023-12-31T00:00:00	2024-11-08T18:00:00	7	Dirección del viento	3.22
98183	7	Sololá	717	San Juan la Laguna	12	San Juan la Laguna	12	Diciembre	2023-12-31T00:00:00	2024-11-08T18:00:00	1	Precipitación	0
98184	7	Sololá	717	San Juan la Laguna	12	San Juan la Laguna	12	Diciembre	2023-12-31T00:00:00	2024-11-08T18:00:00	8	Radiación solar	13
98185	7	Sololá	717	San Juan la Laguna	12	San Juan la Laguna	12	Diciembre	2023-12-31T00:00:00	2024-11-08T19:00:00	2	Temperatura media	18.6
98186	7	Sololá	717	San Juan la Laguna	12	San Juan la Laguna	12	Diciembre	2023-12-31T00:00:00	2024-11-08T19:00:00	4	Temperatura máxima	19.5
98187	7	Sololá	717	San Juan la Laguna	12	San Juan la Laguna	12	Diciembre	2023-12-31T00:00:00	2024-11-08T19:00:00	3	Temperatura mínima	18.5
98188	7	Sololá	717	San Juan la Laguna	12	San Juan la Laguna	12	Diciembre	2023-12-31T00:00:00	2024-11-08T19:00:00	5	Humedad	74
98189	7	Sololá	717	San Juan la Laguna	12	San Juan la Laguna	12	Diciembre	2023-12-31T00:00:00	2024-11-08T19:00:00	6	Velocidad del viento	6.4
98190	7	Sololá	717	San Juan la Laguna	12	San Juan la Laguna	12	Diciembre	2023-12-31T00:00:00	2024-11-08T19:00:00	7	Dirección del viento	6.44
98191	7	Sololá	717	San Juan la Laguna	12	San Juan la Laguna	12	Diciembre	2023-12-31T00:00:00	2024-11-08T19:00:00	1	Precipitación	0
98192	7	Sololá	717	San Juan la Laguna	12	San Juan la Laguna	12	Diciembre	2023-12-31T00:00:00	2024-11-08T19:00:00	8	Radiación solar	0
98193	7	Sololá	717	San Juan la Laguna	12	San Juan la Laguna	12	Diciembre	2023-12-31T00:00:00	2024-11-08T20:00:00	2	Temperatura media	18.2
98194	7	Sololá	717	San Juan la Laguna	12	San Juan la Laguna	12	Diciembre	2023-12-31T00:00:00	2024-11-08T20:00:00	4	Temperatura máxima	18.6
98195	7	Sololá	717	San Juan la Laguna	12	San Juan la Laguna	12	Diciembre	2023-12-31T00:00:00	2024-11-08T20:00:00	3	Temperatura mínima	18.2
98196	7	Sololá	717	San Juan la Laguna	12	San Juan la Laguna	12	Diciembre	2023-12-31T00:00:00	2024-11-08T20:00:00	5	Humedad	69
98197	7	Sololá	717	San Juan la Laguna	12	San Juan la Laguna	12	Diciembre	2023-12-31T00:00:00	2024-11-08T20:00:00	6	Velocidad del viento	4.8
98198	7	Sololá	717	San Juan la Laguna	12	San Juan la Laguna	12	Diciembre	2023-12-31T00:00:00	2024-11-08T20:00:00	7	Dirección del viento	4.83
98199	7	Sololá	717	San Juan la Laguna	12	San Juan la Laguna	12	Diciembre	2023-12-31T00:00:00	2024-11-08T20:00:00	1	Precipitación	0
98200	7	Sololá	717	San Juan la Laguna	12	San Juan la Laguna	12	Diciembre	2023-12-31T00:00:00	2024-11-08T20:00:00	8	Radiación solar	0
98201	7	Sololá	717	San Juan la Laguna	12	San Juan la Laguna	12	Diciembre	2023-12-31T00:00:00	2024-11-08T21:00:00	2	Temperatura media	18.1
98202	7	Sololá	717	San Juan la Laguna	12	San Juan la Laguna	12	Diciembre	2023-12-31T00:00:00	2024-11-08T21:00:00	4	Temperatura máxima	18.2
98203	7	Sololá	717	San Juan la Laguna	12	San Juan la Laguna	12	Diciembre	2023-12-31T00:00:00	2024-11-08T21:00:00	3	Temperatura mínima	18.1
98204	7	Sololá	717	San Juan la Laguna	12	San Juan la Laguna	12	Diciembre	2023-12-31T00:00:00	2024-11-08T21:00:00	5	Humedad	69
98205	7	Sololá	717	San Juan la Laguna	12	San Juan la Laguna	12	Diciembre	2023-12-31T00:00:00	2024-11-08T21:00:00	6	Velocidad del viento	4.8
98206	7	Sololá	717	San Juan la Laguna	12	San Juan la Laguna	12	Diciembre	2023-12-31T00:00:00	2024-11-08T21:00:00	7	Dirección del viento	4.83
98207	7	Sololá	717	San Juan la Laguna	12	San Juan la Laguna	12	Diciembre	2023-12-31T00:00:00	2024-11-08T21:00:00	1	Precipitación	0
98208	7	Sololá	717	San Juan la Laguna	12	San Juan la Laguna	12	Diciembre	2023-12-31T00:00:00	2024-11-08T21:00:00	8	Radiación solar	0
98209	7	Sololá	717	San Juan la Laguna	12	San Juan la Laguna	12	Diciembre	2023-12-31T00:00:00	2024-11-08T22:00:00	2	Temperatura media	15.5
98210	7	Sololá	717	San Juan la Laguna	12	San Juan la Laguna	12	Diciembre	2023-12-31T00:00:00	2024-11-08T22:00:00	4	Temperatura máxima	18.1
98211	7	Sololá	717	San Juan la Laguna	12	San Juan la Laguna	12	Diciembre	2023-12-31T00:00:00	2024-11-08T22:00:00	3	Temperatura mínima	15.5
98212	7	Sololá	717	San Juan la Laguna	12	San Juan la Laguna	12	Diciembre	2023-12-31T00:00:00	2024-11-08T22:00:00	5	Humedad	79
98213	7	Sololá	717	San Juan la Laguna	12	San Juan la Laguna	12	Diciembre	2023-12-31T00:00:00	2024-11-08T22:00:00	6	Velocidad del viento	3.2
98214	7	Sololá	717	San Juan la Laguna	12	San Juan la Laguna	12	Diciembre	2023-12-31T00:00:00	2024-11-08T22:00:00	7	Dirección del viento	3.22
98215	7	Sololá	717	San Juan la Laguna	12	San Juan la Laguna	12	Diciembre	2023-12-31T00:00:00	2024-11-08T22:00:00	1	Precipitación	0
98216	7	Sololá	717	San Juan la Laguna	12	San Juan la Laguna	12	Diciembre	2023-12-31T00:00:00	2024-11-08T22:00:00	8	Radiación solar	0
98217	7	Sololá	717	San Juan la Laguna	12	San Juan la Laguna	12	Diciembre	2023-12-31T00:00:00	2024-11-08T23:00:00	2	Temperatura media	14.4
98218	7	Sololá	717	San Juan la Laguna	12	San Juan la Laguna	12	Diciembre	2023-12-31T00:00:00	2024-11-08T23:00:00	4	Temperatura máxima	15.5
98219	7	Sololá	717	San Juan la Laguna	12	San Juan la Laguna	12	Diciembre	2023-12-31T00:00:00	2024-11-08T23:00:00	3	Temperatura mínima	14.4
98220	7	Sololá	717	San Juan la Laguna	12	San Juan la Laguna	12	Diciembre	2023-12-31T00:00:00	2024-11-08T23:00:00	5	Humedad	81
98221	7	Sololá	717	San Juan la Laguna	12	San Juan la Laguna	12	Diciembre	2023-12-31T00:00:00	2024-11-08T23:00:00	6	Velocidad del viento	4.8
98222	7	Sololá	717	San Juan la Laguna	12	San Juan la Laguna	12	Diciembre	2023-12-31T00:00:00	2024-11-08T23:00:00	7	Dirección del viento	4.83
98223	7	Sololá	717	San Juan la Laguna	12	San Juan la Laguna	12	Diciembre	2023-12-31T00:00:00	2024-11-08T23:00:00	1	Precipitación	0
98224	7	Sololá	717	San Juan la Laguna	12	San Juan la Laguna	12	Diciembre	2023-12-31T00:00:00	2024-11-08T23:00:00	8	Radiación solar	0
98225	7	Sololá	713	San Lucas Tolimán	10	San Lucas Tolimán	1	Enero	2023-01-01T00:00:00	2024-11-08T00:00:00	2	Temperatura media	16.1
98226	7	Sololá	713	San Lucas Tolimán	10	San Lucas Tolimán	1	Enero	2023-01-01T00:00:00	2024-11-08T00:00:00	4	Temperatura máxima	16.2
98227	7	Sololá	713	San Lucas Tolimán	10	San Lucas Tolimán	1	Enero	2023-01-01T00:00:00	2024-11-08T00:00:00	3	Temperatura mínima	16.1
98228	7	Sololá	713	San Lucas Tolimán	10	San Lucas Tolimán	1	Enero	2023-01-01T00:00:00	2024-11-08T00:00:00	5	Humedad	60
98229	7	Sololá	713	San Lucas Tolimán	10	San Lucas Tolimán	1	Enero	2023-01-01T00:00:00	2024-11-08T00:00:00	6	Velocidad del viento	1.6
98230	7	Sololá	713	San Lucas Tolimán	10	San Lucas Tolimán	1	Enero	2023-01-01T00:00:00	2024-11-08T00:00:00	7	Dirección del viento	1.61
98231	7	Sololá	713	San Lucas Tolimán	10	San Lucas Tolimán	1	Enero	2023-01-01T00:00:00	2024-11-08T00:00:00	1	Precipitación	0
98232	7	Sololá	713	San Lucas Tolimán	10	San Lucas Tolimán	1	Enero	2023-01-01T00:00:00	2024-11-08T00:00:00	8	Radiación solar	0
98233	7	Sololá	713	San Lucas Tolimán	10	San Lucas Tolimán	1	Enero	2023-01-01T00:00:00	2024-11-08T01:00:00	2	Temperatura media	17.2
98234	7	Sololá	713	San Lucas Tolimán	10	San Lucas Tolimán	1	Enero	2023-01-01T00:00:00	2024-11-08T01:00:00	4	Temperatura máxima	17.2
98235	7	Sololá	713	San Lucas Tolimán	10	San Lucas Tolimán	1	Enero	2023-01-01T00:00:00	2024-11-08T01:00:00	3	Temperatura mínima	15.9
98236	7	Sololá	713	San Lucas Tolimán	10	San Lucas Tolimán	1	Enero	2023-01-01T00:00:00	2024-11-08T01:00:00	5	Humedad	57
98237	7	Sololá	713	San Lucas Tolimán	10	San Lucas Tolimán	1	Enero	2023-01-01T00:00:00	2024-11-08T01:00:00	6	Velocidad del viento	3.2
98238	7	Sololá	713	San Lucas Tolimán	10	San Lucas Tolimán	1	Enero	2023-01-01T00:00:00	2024-11-08T01:00:00	7	Dirección del viento	3.22
98239	7	Sololá	713	San Lucas Tolimán	10	San Lucas Tolimán	1	Enero	2023-01-01T00:00:00	2024-11-08T01:00:00	1	Precipitación	0
98240	7	Sololá	713	San Lucas Tolimán	10	San Lucas Tolimán	1	Enero	2023-01-01T00:00:00	2024-11-08T01:00:00	8	Radiación solar	0
98241	7	Sololá	713	San Lucas Tolimán	10	San Lucas Tolimán	1	Enero	2023-01-01T00:00:00	2024-11-08T02:00:00	2	Temperatura media	14.9
98242	7	Sololá	713	San Lucas Tolimán	10	San Lucas Tolimán	1	Enero	2023-01-01T00:00:00	2024-11-08T02:00:00	4	Temperatura máxima	17.2
98243	7	Sololá	713	San Lucas Tolimán	10	San Lucas Tolimán	1	Enero	2023-01-01T00:00:00	2024-11-08T02:00:00	3	Temperatura mínima	14.9
98244	7	Sololá	713	San Lucas Tolimán	10	San Lucas Tolimán	1	Enero	2023-01-01T00:00:00	2024-11-08T02:00:00	5	Humedad	64
98245	7	Sololá	713	San Lucas Tolimán	10	San Lucas Tolimán	1	Enero	2023-01-01T00:00:00	2024-11-08T02:00:00	6	Velocidad del viento	4.8
98246	7	Sololá	713	San Lucas Tolimán	10	San Lucas Tolimán	1	Enero	2023-01-01T00:00:00	2024-11-08T02:00:00	7	Dirección del viento	4.83
98247	7	Sololá	713	San Lucas Tolimán	10	San Lucas Tolimán	1	Enero	2023-01-01T00:00:00	2024-11-08T02:00:00	1	Precipitación	0
98248	7	Sololá	713	San Lucas Tolimán	10	San Lucas Tolimán	1	Enero	2023-01-01T00:00:00	2024-11-08T02:00:00	8	Radiación solar	0
98249	7	Sololá	713	San Lucas Tolimán	10	San Lucas Tolimán	1	Enero	2023-01-01T00:00:00	2024-11-08T03:00:00	2	Temperatura media	14.7
98250	7	Sololá	713	San Lucas Tolimán	10	San Lucas Tolimán	1	Enero	2023-01-01T00:00:00	2024-11-08T03:00:00	4	Temperatura máxima	15
98251	7	Sololá	713	San Lucas Tolimán	10	San Lucas Tolimán	1	Enero	2023-01-01T00:00:00	2024-11-08T03:00:00	3	Temperatura mínima	14.2
98252	7	Sololá	713	San Lucas Tolimán	10	San Lucas Tolimán	1	Enero	2023-01-01T00:00:00	2024-11-08T03:00:00	5	Humedad	62
98253	7	Sololá	713	San Lucas Tolimán	10	San Lucas Tolimán	1	Enero	2023-01-01T00:00:00	2024-11-08T03:00:00	6	Velocidad del viento	3.2
98254	7	Sololá	713	San Lucas Tolimán	10	San Lucas Tolimán	1	Enero	2023-01-01T00:00:00	2024-11-08T03:00:00	7	Dirección del viento	3.22
98255	7	Sololá	713	San Lucas Tolimán	10	San Lucas Tolimán	1	Enero	2023-01-01T00:00:00	2024-11-08T03:00:00	1	Precipitación	0
98256	7	Sololá	713	San Lucas Tolimán	10	San Lucas Tolimán	1	Enero	2023-01-01T00:00:00	2024-11-08T03:00:00	8	Radiación solar	0
98257	7	Sololá	713	San Lucas Tolimán	10	San Lucas Tolimán	1	Enero	2023-01-01T00:00:00	2024-11-08T04:00:00	2	Temperatura media	15.8
98258	7	Sololá	713	San Lucas Tolimán	10	San Lucas Tolimán	1	Enero	2023-01-01T00:00:00	2024-11-08T04:00:00	4	Temperatura máxima	15.8
98259	7	Sololá	713	San Lucas Tolimán	10	San Lucas Tolimán	1	Enero	2023-01-01T00:00:00	2024-11-08T04:00:00	3	Temperatura mínima	14.7
98260	7	Sololá	713	San Lucas Tolimán	10	San Lucas Tolimán	1	Enero	2023-01-01T00:00:00	2024-11-08T04:00:00	5	Humedad	59
98261	7	Sololá	713	San Lucas Tolimán	10	San Lucas Tolimán	1	Enero	2023-01-01T00:00:00	2024-11-08T04:00:00	6	Velocidad del viento	3.2
98262	7	Sololá	713	San Lucas Tolimán	10	San Lucas Tolimán	1	Enero	2023-01-01T00:00:00	2024-11-08T04:00:00	7	Dirección del viento	3.22
98263	7	Sololá	713	San Lucas Tolimán	10	San Lucas Tolimán	1	Enero	2023-01-01T00:00:00	2024-11-08T04:00:00	1	Precipitación	0
98264	7	Sololá	713	San Lucas Tolimán	10	San Lucas Tolimán	1	Enero	2023-01-01T00:00:00	2024-11-08T04:00:00	8	Radiación solar	0
98265	7	Sololá	713	San Lucas Tolimán	10	San Lucas Tolimán	1	Enero	2023-01-01T00:00:00	2024-11-08T05:00:00	2	Temperatura media	15.4
98266	7	Sololá	713	San Lucas Tolimán	10	San Lucas Tolimán	1	Enero	2023-01-01T00:00:00	2024-11-08T05:00:00	4	Temperatura máxima	16.2
98267	7	Sololá	713	San Lucas Tolimán	10	San Lucas Tolimán	1	Enero	2023-01-01T00:00:00	2024-11-08T05:00:00	3	Temperatura mínima	15.4
98268	7	Sololá	713	San Lucas Tolimán	10	San Lucas Tolimán	1	Enero	2023-01-01T00:00:00	2024-11-08T05:00:00	5	Humedad	59
98269	7	Sololá	713	San Lucas Tolimán	10	San Lucas Tolimán	1	Enero	2023-01-01T00:00:00	2024-11-08T05:00:00	6	Velocidad del viento	3.2
98270	7	Sololá	713	San Lucas Tolimán	10	San Lucas Tolimán	1	Enero	2023-01-01T00:00:00	2024-11-08T05:00:00	7	Dirección del viento	3.22
98271	7	Sololá	713	San Lucas Tolimán	10	San Lucas Tolimán	1	Enero	2023-01-01T00:00:00	2024-11-08T05:00:00	1	Precipitación	0
98272	7	Sololá	713	San Lucas Tolimán	10	San Lucas Tolimán	1	Enero	2023-01-01T00:00:00	2024-11-08T05:00:00	8	Radiación solar	0
98273	7	Sololá	713	San Lucas Tolimán	10	San Lucas Tolimán	1	Enero	2023-01-01T00:00:00	2024-11-08T06:00:00	2	Temperatura media	13.9
98274	7	Sololá	713	San Lucas Tolimán	10	San Lucas Tolimán	1	Enero	2023-01-01T00:00:00	2024-11-08T06:00:00	4	Temperatura máxima	15.6
98275	7	Sololá	713	San Lucas Tolimán	10	San Lucas Tolimán	1	Enero	2023-01-01T00:00:00	2024-11-08T06:00:00	3	Temperatura mínima	13.9
98276	7	Sololá	713	San Lucas Tolimán	10	San Lucas Tolimán	1	Enero	2023-01-01T00:00:00	2024-11-08T06:00:00	5	Humedad	61
98277	7	Sololá	713	San Lucas Tolimán	10	San Lucas Tolimán	1	Enero	2023-01-01T00:00:00	2024-11-08T06:00:00	6	Velocidad del viento	4.8
98278	7	Sololá	713	San Lucas Tolimán	10	San Lucas Tolimán	1	Enero	2023-01-01T00:00:00	2024-11-08T06:00:00	7	Dirección del viento	4.83
98279	7	Sololá	713	San Lucas Tolimán	10	San Lucas Tolimán	1	Enero	2023-01-01T00:00:00	2024-11-08T06:00:00	1	Precipitación	0
98280	7	Sololá	713	San Lucas Tolimán	10	San Lucas Tolimán	1	Enero	2023-01-01T00:00:00	2024-11-08T06:00:00	8	Radiación solar	0
98281	7	Sololá	713	San Lucas Tolimán	10	San Lucas Tolimán	1	Enero	2023-01-01T00:00:00	2024-11-08T07:00:00	2	Temperatura media	14.4
98282	7	Sololá	713	San Lucas Tolimán	10	San Lucas Tolimán	1	Enero	2023-01-01T00:00:00	2024-11-08T07:00:00	4	Temperatura máxima	14.4
98283	7	Sololá	713	San Lucas Tolimán	10	San Lucas Tolimán	1	Enero	2023-01-01T00:00:00	2024-11-08T07:00:00	3	Temperatura mínima	13.9
98284	7	Sololá	713	San Lucas Tolimán	10	San Lucas Tolimán	1	Enero	2023-01-01T00:00:00	2024-11-08T07:00:00	5	Humedad	61
98285	7	Sololá	713	San Lucas Tolimán	10	San Lucas Tolimán	1	Enero	2023-01-01T00:00:00	2024-11-08T07:00:00	6	Velocidad del viento	0
98286	7	Sololá	713	San Lucas Tolimán	10	San Lucas Tolimán	1	Enero	2023-01-01T00:00:00	2024-11-08T07:00:00	7	Dirección del viento	0
98287	7	Sololá	713	San Lucas Tolimán	10	San Lucas Tolimán	1	Enero	2023-01-01T00:00:00	2024-11-08T07:00:00	1	Precipitación	0
98288	7	Sololá	713	San Lucas Tolimán	10	San Lucas Tolimán	1	Enero	2023-01-01T00:00:00	2024-11-08T07:00:00	8	Radiación solar	8
98289	7	Sololá	713	San Lucas Tolimán	10	San Lucas Tolimán	1	Enero	2023-01-01T00:00:00	2024-11-08T08:00:00	2	Temperatura media	16.4
98290	7	Sololá	713	San Lucas Tolimán	10	San Lucas Tolimán	1	Enero	2023-01-01T00:00:00	2024-11-08T08:00:00	4	Temperatura máxima	16.4
98291	7	Sololá	713	San Lucas Tolimán	10	San Lucas Tolimán	1	Enero	2023-01-01T00:00:00	2024-11-08T08:00:00	3	Temperatura mínima	14.4
98292	7	Sololá	713	San Lucas Tolimán	10	San Lucas Tolimán	1	Enero	2023-01-01T00:00:00	2024-11-08T08:00:00	5	Humedad	58
98293	7	Sololá	713	San Lucas Tolimán	10	San Lucas Tolimán	1	Enero	2023-01-01T00:00:00	2024-11-08T08:00:00	6	Velocidad del viento	3.2
98294	7	Sololá	713	San Lucas Tolimán	10	San Lucas Tolimán	1	Enero	2023-01-01T00:00:00	2024-11-08T08:00:00	7	Dirección del viento	3.22
98295	7	Sololá	713	San Lucas Tolimán	10	San Lucas Tolimán	1	Enero	2023-01-01T00:00:00	2024-11-08T08:00:00	1	Precipitación	0
98296	7	Sololá	713	San Lucas Tolimán	10	San Lucas Tolimán	1	Enero	2023-01-01T00:00:00	2024-11-08T08:00:00	8	Radiación solar	46
98297	7	Sololá	713	San Lucas Tolimán	10	San Lucas Tolimán	1	Enero	2023-01-01T00:00:00	2024-11-08T09:00:00	2	Temperatura media	20
98298	7	Sololá	713	San Lucas Tolimán	10	San Lucas Tolimán	1	Enero	2023-01-01T00:00:00	2024-11-08T09:00:00	4	Temperatura máxima	20
98299	7	Sololá	713	San Lucas Tolimán	10	San Lucas Tolimán	1	Enero	2023-01-01T00:00:00	2024-11-08T09:00:00	3	Temperatura mínima	16.4
98300	7	Sololá	713	San Lucas Tolimán	10	San Lucas Tolimán	1	Enero	2023-01-01T00:00:00	2024-11-08T09:00:00	5	Humedad	55
98301	7	Sololá	713	San Lucas Tolimán	10	San Lucas Tolimán	1	Enero	2023-01-01T00:00:00	2024-11-08T09:00:00	6	Velocidad del viento	3.2
98302	7	Sololá	713	San Lucas Tolimán	10	San Lucas Tolimán	1	Enero	2023-01-01T00:00:00	2024-11-08T09:00:00	7	Dirección del viento	3.22
98303	7	Sololá	713	San Lucas Tolimán	10	San Lucas Tolimán	1	Enero	2023-01-01T00:00:00	2024-11-08T09:00:00	1	Precipitación	0
98304	7	Sololá	713	San Lucas Tolimán	10	San Lucas Tolimán	1	Enero	2023-01-01T00:00:00	2024-11-08T09:00:00	8	Radiación solar	296
98305	7	Sololá	713	San Lucas Tolimán	10	San Lucas Tolimán	1	Enero	2023-01-01T00:00:00	2024-11-08T10:00:00	2	Temperatura media	22.6
98306	7	Sololá	713	San Lucas Tolimán	10	San Lucas Tolimán	1	Enero	2023-01-01T00:00:00	2024-11-08T10:00:00	4	Temperatura máxima	22.6
98307	7	Sololá	713	San Lucas Tolimán	10	San Lucas Tolimán	1	Enero	2023-01-01T00:00:00	2024-11-08T10:00:00	3	Temperatura mínima	19.9
98308	7	Sololá	713	San Lucas Tolimán	10	San Lucas Tolimán	1	Enero	2023-01-01T00:00:00	2024-11-08T10:00:00	5	Humedad	54
98309	7	Sololá	713	San Lucas Tolimán	10	San Lucas Tolimán	1	Enero	2023-01-01T00:00:00	2024-11-08T10:00:00	6	Velocidad del viento	4.8
98310	7	Sololá	713	San Lucas Tolimán	10	San Lucas Tolimán	1	Enero	2023-01-01T00:00:00	2024-11-08T10:00:00	7	Dirección del viento	4.83
98311	7	Sololá	713	San Lucas Tolimán	10	San Lucas Tolimán	1	Enero	2023-01-01T00:00:00	2024-11-08T10:00:00	1	Precipitación	0
98312	7	Sololá	713	San Lucas Tolimán	10	San Lucas Tolimán	1	Enero	2023-01-01T00:00:00	2024-11-08T10:00:00	8	Radiación solar	598
98313	7	Sololá	713	San Lucas Tolimán	10	San Lucas Tolimán	1	Enero	2023-01-01T00:00:00	2024-11-08T11:00:00	2	Temperatura media	23.1
98314	7	Sololá	713	San Lucas Tolimán	10	San Lucas Tolimán	1	Enero	2023-01-01T00:00:00	2024-11-08T11:00:00	4	Temperatura máxima	23.1
98315	7	Sololá	713	San Lucas Tolimán	10	San Lucas Tolimán	1	Enero	2023-01-01T00:00:00	2024-11-08T11:00:00	3	Temperatura mínima	22.2
98316	7	Sololá	713	San Lucas Tolimán	10	San Lucas Tolimán	1	Enero	2023-01-01T00:00:00	2024-11-08T11:00:00	5	Humedad	53
98317	7	Sololá	713	San Lucas Tolimán	10	San Lucas Tolimán	1	Enero	2023-01-01T00:00:00	2024-11-08T11:00:00	6	Velocidad del viento	6.4
98318	7	Sololá	713	San Lucas Tolimán	10	San Lucas Tolimán	1	Enero	2023-01-01T00:00:00	2024-11-08T11:00:00	7	Dirección del viento	6.44
98319	7	Sololá	713	San Lucas Tolimán	10	San Lucas Tolimán	1	Enero	2023-01-01T00:00:00	2024-11-08T11:00:00	1	Precipitación	0
98320	7	Sololá	713	San Lucas Tolimán	10	San Lucas Tolimán	1	Enero	2023-01-01T00:00:00	2024-11-08T11:00:00	8	Radiación solar	778
98321	7	Sololá	713	San Lucas Tolimán	10	San Lucas Tolimán	1	Enero	2023-01-01T00:00:00	2024-11-08T12:00:00	2	Temperatura media	21.8
98322	7	Sololá	713	San Lucas Tolimán	10	San Lucas Tolimán	1	Enero	2023-01-01T00:00:00	2024-11-08T12:00:00	4	Temperatura máxima	23.1
98323	7	Sololá	713	San Lucas Tolimán	10	San Lucas Tolimán	1	Enero	2023-01-01T00:00:00	2024-11-08T12:00:00	3	Temperatura mínima	21.7
98324	7	Sololá	713	San Lucas Tolimán	10	San Lucas Tolimán	1	Enero	2023-01-01T00:00:00	2024-11-08T12:00:00	5	Humedad	58
98325	7	Sololá	713	San Lucas Tolimán	10	San Lucas Tolimán	1	Enero	2023-01-01T00:00:00	2024-11-08T12:00:00	6	Velocidad del viento	9.7
98326	7	Sololá	713	San Lucas Tolimán	10	San Lucas Tolimán	1	Enero	2023-01-01T00:00:00	2024-11-08T12:00:00	7	Dirección del viento	9.66
98327	7	Sololá	713	San Lucas Tolimán	10	San Lucas Tolimán	1	Enero	2023-01-01T00:00:00	2024-11-08T12:00:00	1	Precipitación	0
98328	7	Sololá	713	San Lucas Tolimán	10	San Lucas Tolimán	1	Enero	2023-01-01T00:00:00	2024-11-08T12:00:00	8	Radiación solar	866
98329	7	Sololá	713	San Lucas Tolimán	10	San Lucas Tolimán	1	Enero	2023-01-01T00:00:00	2024-11-08T13:00:00	2	Temperatura media	21.4
98330	7	Sololá	713	San Lucas Tolimán	10	San Lucas Tolimán	1	Enero	2023-01-01T00:00:00	2024-11-08T13:00:00	4	Temperatura máxima	22.6
98331	7	Sololá	713	San Lucas Tolimán	10	San Lucas Tolimán	1	Enero	2023-01-01T00:00:00	2024-11-08T13:00:00	3	Temperatura mínima	21.3
98332	7	Sololá	713	San Lucas Tolimán	10	San Lucas Tolimán	1	Enero	2023-01-01T00:00:00	2024-11-08T13:00:00	5	Humedad	60
98333	7	Sololá	713	San Lucas Tolimán	10	San Lucas Tolimán	1	Enero	2023-01-01T00:00:00	2024-11-08T13:00:00	6	Velocidad del viento	12.9
98334	7	Sololá	713	San Lucas Tolimán	10	San Lucas Tolimán	1	Enero	2023-01-01T00:00:00	2024-11-08T13:00:00	7	Dirección del viento	12.87
98335	7	Sololá	713	San Lucas Tolimán	10	San Lucas Tolimán	1	Enero	2023-01-01T00:00:00	2024-11-08T13:00:00	1	Precipitación	0
98336	7	Sololá	713	San Lucas Tolimán	10	San Lucas Tolimán	1	Enero	2023-01-01T00:00:00	2024-11-08T13:00:00	8	Radiación solar	775
98337	7	Sololá	713	San Lucas Tolimán	10	San Lucas Tolimán	1	Enero	2023-01-01T00:00:00	2024-11-08T14:00:00	2	Temperatura media	22
98338	7	Sololá	713	San Lucas Tolimán	10	San Lucas Tolimán	1	Enero	2023-01-01T00:00:00	2024-11-08T14:00:00	4	Temperatura máxima	22.8
98339	7	Sololá	713	San Lucas Tolimán	10	San Lucas Tolimán	1	Enero	2023-01-01T00:00:00	2024-11-08T14:00:00	3	Temperatura mínima	21.3
98340	7	Sololá	713	San Lucas Tolimán	10	San Lucas Tolimán	1	Enero	2023-01-01T00:00:00	2024-11-08T14:00:00	5	Humedad	60
98341	7	Sololá	713	San Lucas Tolimán	10	San Lucas Tolimán	1	Enero	2023-01-01T00:00:00	2024-11-08T14:00:00	6	Velocidad del viento	11.3
98342	7	Sololá	713	San Lucas Tolimán	10	San Lucas Tolimán	1	Enero	2023-01-01T00:00:00	2024-11-08T14:00:00	7	Dirección del viento	11.27
98343	7	Sololá	713	San Lucas Tolimán	10	San Lucas Tolimán	1	Enero	2023-01-01T00:00:00	2024-11-08T14:00:00	1	Precipitación	0
98344	7	Sololá	713	San Lucas Tolimán	10	San Lucas Tolimán	1	Enero	2023-01-01T00:00:00	2024-11-08T14:00:00	8	Radiación solar	788
98345	7	Sololá	713	San Lucas Tolimán	10	San Lucas Tolimán	1	Enero	2023-01-01T00:00:00	2024-11-08T15:00:00	2	Temperatura media	21.3
98346	7	Sololá	713	San Lucas Tolimán	10	San Lucas Tolimán	1	Enero	2023-01-01T00:00:00	2024-11-08T15:00:00	4	Temperatura máxima	22.2
98347	7	Sololá	713	San Lucas Tolimán	10	San Lucas Tolimán	1	Enero	2023-01-01T00:00:00	2024-11-08T15:00:00	3	Temperatura mínima	21.3
98348	7	Sololá	713	San Lucas Tolimán	10	San Lucas Tolimán	1	Enero	2023-01-01T00:00:00	2024-11-08T15:00:00	5	Humedad	61
98349	7	Sololá	713	San Lucas Tolimán	10	San Lucas Tolimán	1	Enero	2023-01-01T00:00:00	2024-11-08T15:00:00	6	Velocidad del viento	14.5
98350	7	Sololá	713	San Lucas Tolimán	10	San Lucas Tolimán	1	Enero	2023-01-01T00:00:00	2024-11-08T15:00:00	7	Dirección del viento	14.48
98351	7	Sololá	713	San Lucas Tolimán	10	San Lucas Tolimán	1	Enero	2023-01-01T00:00:00	2024-11-08T15:00:00	1	Precipitación	0
98352	7	Sololá	713	San Lucas Tolimán	10	San Lucas Tolimán	1	Enero	2023-01-01T00:00:00	2024-11-08T15:00:00	8	Radiación solar	717
98353	7	Sololá	713	San Lucas Tolimán	10	San Lucas Tolimán	1	Enero	2023-01-01T00:00:00	2024-11-08T16:00:00	2	Temperatura media	20.3
98354	7	Sololá	713	San Lucas Tolimán	10	San Lucas Tolimán	1	Enero	2023-01-01T00:00:00	2024-11-08T16:00:00	4	Temperatura máxima	21.7
98355	7	Sololá	713	San Lucas Tolimán	10	San Lucas Tolimán	1	Enero	2023-01-01T00:00:00	2024-11-08T16:00:00	3	Temperatura mínima	20.1
98356	7	Sololá	713	San Lucas Tolimán	10	San Lucas Tolimán	1	Enero	2023-01-01T00:00:00	2024-11-08T16:00:00	5	Humedad	62
98357	7	Sololá	713	San Lucas Tolimán	10	San Lucas Tolimán	1	Enero	2023-01-01T00:00:00	2024-11-08T16:00:00	6	Velocidad del viento	11.3
98358	7	Sololá	713	San Lucas Tolimán	10	San Lucas Tolimán	1	Enero	2023-01-01T00:00:00	2024-11-08T16:00:00	7	Dirección del viento	11.27
98359	7	Sololá	713	San Lucas Tolimán	10	San Lucas Tolimán	1	Enero	2023-01-01T00:00:00	2024-11-08T16:00:00	1	Precipitación	0
98360	7	Sololá	713	San Lucas Tolimán	10	San Lucas Tolimán	1	Enero	2023-01-01T00:00:00	2024-11-08T16:00:00	8	Radiación solar	455
98361	7	Sololá	713	San Lucas Tolimán	10	San Lucas Tolimán	1	Enero	2023-01-01T00:00:00	2024-11-08T17:00:00	2	Temperatura media	19.3
98362	7	Sololá	713	San Lucas Tolimán	10	San Lucas Tolimán	1	Enero	2023-01-01T00:00:00	2024-11-08T17:00:00	4	Temperatura máxima	20.8
98363	7	Sololá	713	San Lucas Tolimán	10	San Lucas Tolimán	1	Enero	2023-01-01T00:00:00	2024-11-08T17:00:00	3	Temperatura mínima	19.3
98364	7	Sololá	713	San Lucas Tolimán	10	San Lucas Tolimán	1	Enero	2023-01-01T00:00:00	2024-11-08T17:00:00	5	Humedad	61
98365	7	Sololá	713	San Lucas Tolimán	10	San Lucas Tolimán	1	Enero	2023-01-01T00:00:00	2024-11-08T17:00:00	6	Velocidad del viento	8
98366	7	Sololá	713	San Lucas Tolimán	10	San Lucas Tolimán	1	Enero	2023-01-01T00:00:00	2024-11-08T17:00:00	7	Dirección del viento	8.05
98367	7	Sololá	713	San Lucas Tolimán	10	San Lucas Tolimán	1	Enero	2023-01-01T00:00:00	2024-11-08T17:00:00	1	Precipitación	0
98368	7	Sololá	713	San Lucas Tolimán	10	San Lucas Tolimán	1	Enero	2023-01-01T00:00:00	2024-11-08T17:00:00	8	Radiación solar	117
98369	7	Sololá	713	San Lucas Tolimán	10	San Lucas Tolimán	1	Enero	2023-01-01T00:00:00	2024-11-08T18:00:00	2	Temperatura media	18.2
98370	7	Sololá	713	San Lucas Tolimán	10	San Lucas Tolimán	1	Enero	2023-01-01T00:00:00	2024-11-08T18:00:00	4	Temperatura máxima	19.3
98371	7	Sololá	713	San Lucas Tolimán	10	San Lucas Tolimán	1	Enero	2023-01-01T00:00:00	2024-11-08T18:00:00	3	Temperatura mínima	18.2
98372	7	Sololá	713	San Lucas Tolimán	10	San Lucas Tolimán	1	Enero	2023-01-01T00:00:00	2024-11-08T18:00:00	5	Humedad	62
98373	7	Sololá	713	San Lucas Tolimán	10	San Lucas Tolimán	1	Enero	2023-01-01T00:00:00	2024-11-08T18:00:00	6	Velocidad del viento	9.7
98374	7	Sololá	713	San Lucas Tolimán	10	San Lucas Tolimán	1	Enero	2023-01-01T00:00:00	2024-11-08T18:00:00	7	Dirección del viento	9.66
98375	7	Sololá	713	San Lucas Tolimán	10	San Lucas Tolimán	1	Enero	2023-01-01T00:00:00	2024-11-08T18:00:00	1	Precipitación	0
98376	7	Sololá	713	San Lucas Tolimán	10	San Lucas Tolimán	1	Enero	2023-01-01T00:00:00	2024-11-08T18:00:00	8	Radiación solar	18
98377	7	Sololá	713	San Lucas Tolimán	10	San Lucas Tolimán	1	Enero	2023-01-01T00:00:00	2024-11-08T19:00:00	2	Temperatura media	17.6
98378	7	Sololá	713	San Lucas Tolimán	10	San Lucas Tolimán	1	Enero	2023-01-01T00:00:00	2024-11-08T19:00:00	4	Temperatura máxima	18.2
98379	7	Sololá	713	San Lucas Tolimán	10	San Lucas Tolimán	1	Enero	2023-01-01T00:00:00	2024-11-08T19:00:00	3	Temperatura mínima	17.6
98380	7	Sololá	713	San Lucas Tolimán	10	San Lucas Tolimán	1	Enero	2023-01-01T00:00:00	2024-11-08T19:00:00	5	Humedad	62
98381	7	Sololá	713	San Lucas Tolimán	10	San Lucas Tolimán	1	Enero	2023-01-01T00:00:00	2024-11-08T19:00:00	6	Velocidad del viento	4.8
98382	7	Sololá	713	San Lucas Tolimán	10	San Lucas Tolimán	1	Enero	2023-01-01T00:00:00	2024-11-08T19:00:00	7	Dirección del viento	4.83
98383	7	Sololá	713	San Lucas Tolimán	10	San Lucas Tolimán	1	Enero	2023-01-01T00:00:00	2024-11-08T19:00:00	1	Precipitación	0
98384	7	Sololá	713	San Lucas Tolimán	10	San Lucas Tolimán	1	Enero	2023-01-01T00:00:00	2024-11-08T19:00:00	8	Radiación solar	0
98385	7	Sololá	713	San Lucas Tolimán	10	San Lucas Tolimán	1	Enero	2023-01-01T00:00:00	2024-11-08T20:00:00	2	Temperatura media	16.3
98386	7	Sololá	713	San Lucas Tolimán	10	San Lucas Tolimán	1	Enero	2023-01-01T00:00:00	2024-11-08T20:00:00	4	Temperatura máxima	17.6
98387	7	Sololá	713	San Lucas Tolimán	10	San Lucas Tolimán	1	Enero	2023-01-01T00:00:00	2024-11-08T20:00:00	3	Temperatura mínima	16.3
98388	7	Sololá	713	San Lucas Tolimán	10	San Lucas Tolimán	1	Enero	2023-01-01T00:00:00	2024-11-08T20:00:00	5	Humedad	62
98389	7	Sololá	713	San Lucas Tolimán	10	San Lucas Tolimán	1	Enero	2023-01-01T00:00:00	2024-11-08T20:00:00	6	Velocidad del viento	3.2
98390	7	Sololá	713	San Lucas Tolimán	10	San Lucas Tolimán	1	Enero	2023-01-01T00:00:00	2024-11-08T20:00:00	7	Dirección del viento	3.22
98391	7	Sololá	713	San Lucas Tolimán	10	San Lucas Tolimán	1	Enero	2023-01-01T00:00:00	2024-11-08T20:00:00	1	Precipitación	0
98392	7	Sololá	713	San Lucas Tolimán	10	San Lucas Tolimán	1	Enero	2023-01-01T00:00:00	2024-11-08T20:00:00	8	Radiación solar	0
98393	7	Sololá	713	San Lucas Tolimán	10	San Lucas Tolimán	1	Enero	2023-01-01T00:00:00	2024-11-08T21:00:00	2	Temperatura media	16.4
98394	7	Sololá	713	San Lucas Tolimán	10	San Lucas Tolimán	1	Enero	2023-01-01T00:00:00	2024-11-08T21:00:00	4	Temperatura máxima	16.6
98395	7	Sololá	713	San Lucas Tolimán	10	San Lucas Tolimán	1	Enero	2023-01-01T00:00:00	2024-11-08T21:00:00	3	Temperatura mínima	16.3
98396	7	Sololá	713	San Lucas Tolimán	10	San Lucas Tolimán	1	Enero	2023-01-01T00:00:00	2024-11-08T21:00:00	5	Humedad	65
98397	7	Sololá	713	San Lucas Tolimán	10	San Lucas Tolimán	1	Enero	2023-01-01T00:00:00	2024-11-08T21:00:00	6	Velocidad del viento	4.8
98398	7	Sololá	713	San Lucas Tolimán	10	San Lucas Tolimán	1	Enero	2023-01-01T00:00:00	2024-11-08T21:00:00	7	Dirección del viento	4.83
98399	7	Sololá	713	San Lucas Tolimán	10	San Lucas Tolimán	1	Enero	2023-01-01T00:00:00	2024-11-08T21:00:00	1	Precipitación	0
98400	7	Sololá	713	San Lucas Tolimán	10	San Lucas Tolimán	1	Enero	2023-01-01T00:00:00	2024-11-08T21:00:00	8	Radiación solar	0
98401	7	Sololá	713	San Lucas Tolimán	10	San Lucas Tolimán	1	Enero	2023-01-01T00:00:00	2024-11-08T22:00:00	2	Temperatura media	15.2
98402	7	Sololá	713	San Lucas Tolimán	10	San Lucas Tolimán	1	Enero	2023-01-01T00:00:00	2024-11-08T22:00:00	4	Temperatura máxima	16.3
98403	7	Sololá	713	San Lucas Tolimán	10	San Lucas Tolimán	1	Enero	2023-01-01T00:00:00	2024-11-08T22:00:00	3	Temperatura mínima	15
98404	7	Sololá	713	San Lucas Tolimán	10	San Lucas Tolimán	1	Enero	2023-01-01T00:00:00	2024-11-08T22:00:00	5	Humedad	59
98405	7	Sololá	713	San Lucas Tolimán	10	San Lucas Tolimán	1	Enero	2023-01-01T00:00:00	2024-11-08T22:00:00	6	Velocidad del viento	4.8
98406	7	Sololá	713	San Lucas Tolimán	10	San Lucas Tolimán	1	Enero	2023-01-01T00:00:00	2024-11-08T22:00:00	7	Dirección del viento	4.83
98407	7	Sololá	713	San Lucas Tolimán	10	San Lucas Tolimán	1	Enero	2023-01-01T00:00:00	2024-11-08T22:00:00	1	Precipitación	0
98408	7	Sololá	713	San Lucas Tolimán	10	San Lucas Tolimán	1	Enero	2023-01-01T00:00:00	2024-11-08T22:00:00	8	Radiación solar	0
98409	7	Sololá	713	San Lucas Tolimán	10	San Lucas Tolimán	1	Enero	2023-01-01T00:00:00	2024-11-08T23:00:00	2	Temperatura media	14.4
98410	7	Sololá	713	San Lucas Tolimán	10	San Lucas Tolimán	1	Enero	2023-01-01T00:00:00	2024-11-08T23:00:00	4	Temperatura máxima	15.3
98411	7	Sololá	713	San Lucas Tolimán	10	San Lucas Tolimán	1	Enero	2023-01-01T00:00:00	2024-11-08T23:00:00	3	Temperatura mínima	13.9
98412	7	Sololá	713	San Lucas Tolimán	10	San Lucas Tolimán	1	Enero	2023-01-01T00:00:00	2024-11-08T23:00:00	5	Humedad	61
98413	7	Sololá	713	San Lucas Tolimán	10	San Lucas Tolimán	1	Enero	2023-01-01T00:00:00	2024-11-08T23:00:00	6	Velocidad del viento	1.6
98414	7	Sololá	713	San Lucas Tolimán	10	San Lucas Tolimán	1	Enero	2023-01-01T00:00:00	2024-11-08T23:00:00	7	Dirección del viento	1.61
98415	7	Sololá	713	San Lucas Tolimán	10	San Lucas Tolimán	1	Enero	2023-01-01T00:00:00	2024-11-08T23:00:00	1	Precipitación	0
98416	7	Sololá	713	San Lucas Tolimán	10	San Lucas Tolimán	1	Enero	2023-01-01T00:00:00	2024-11-08T23:00:00	8	Radiación solar	0
98417	7	Sololá	713	San Lucas Tolimán	10	San Lucas Tolimán	1	Enero	2023-02-01T00:00:00	2024-11-08T00:00:00	2	Temperatura media	15.8
98418	7	Sololá	713	San Lucas Tolimán	10	San Lucas Tolimán	1	Enero	2023-02-01T00:00:00	2024-11-08T00:00:00	4	Temperatura máxima	15.9
98419	7	Sololá	713	San Lucas Tolimán	10	San Lucas Tolimán	1	Enero	2023-02-01T00:00:00	2024-11-08T00:00:00	3	Temperatura mínima	15.8
98420	7	Sololá	713	San Lucas Tolimán	10	San Lucas Tolimán	1	Enero	2023-02-01T00:00:00	2024-11-08T00:00:00	5	Humedad	60
98421	7	Sololá	713	San Lucas Tolimán	10	San Lucas Tolimán	1	Enero	2023-02-01T00:00:00	2024-11-08T00:00:00	6	Velocidad del viento	1.6
98422	7	Sololá	713	San Lucas Tolimán	10	San Lucas Tolimán	1	Enero	2023-02-01T00:00:00	2024-11-08T00:00:00	7	Dirección del viento	1.61
98423	7	Sololá	713	San Lucas Tolimán	10	San Lucas Tolimán	1	Enero	2023-02-01T00:00:00	2024-11-08T00:00:00	1	Precipitación	0
98424	7	Sololá	713	San Lucas Tolimán	10	San Lucas Tolimán	1	Enero	2023-02-01T00:00:00	2024-11-08T00:00:00	8	Radiación solar	0
98425	7	Sololá	713	San Lucas Tolimán	10	San Lucas Tolimán	1	Enero	2023-02-01T00:00:00	2024-11-08T01:00:00	2	Temperatura media	15.7
98426	7	Sololá	713	San Lucas Tolimán	10	San Lucas Tolimán	1	Enero	2023-02-01T00:00:00	2024-11-08T01:00:00	4	Temperatura máxima	15.8
98427	7	Sololá	713	San Lucas Tolimán	10	San Lucas Tolimán	1	Enero	2023-02-01T00:00:00	2024-11-08T01:00:00	3	Temperatura mínima	15.2
98428	7	Sololá	713	San Lucas Tolimán	10	San Lucas Tolimán	1	Enero	2023-02-01T00:00:00	2024-11-08T01:00:00	5	Humedad	62
98429	7	Sololá	713	San Lucas Tolimán	10	San Lucas Tolimán	1	Enero	2023-02-01T00:00:00	2024-11-08T01:00:00	6	Velocidad del viento	1.6
98430	7	Sololá	713	San Lucas Tolimán	10	San Lucas Tolimán	1	Enero	2023-02-01T00:00:00	2024-11-08T01:00:00	7	Dirección del viento	1.61
98431	7	Sololá	713	San Lucas Tolimán	10	San Lucas Tolimán	1	Enero	2023-02-01T00:00:00	2024-11-08T01:00:00	1	Precipitación	0
98432	7	Sololá	713	San Lucas Tolimán	10	San Lucas Tolimán	1	Enero	2023-02-01T00:00:00	2024-11-08T01:00:00	8	Radiación solar	0
98433	7	Sololá	713	San Lucas Tolimán	10	San Lucas Tolimán	1	Enero	2023-02-01T00:00:00	2024-11-08T02:00:00	2	Temperatura media	15.4
98434	7	Sololá	713	San Lucas Tolimán	10	San Lucas Tolimán	1	Enero	2023-02-01T00:00:00	2024-11-08T02:00:00	4	Temperatura máxima	15.9
98435	7	Sololá	713	San Lucas Tolimán	10	San Lucas Tolimán	1	Enero	2023-02-01T00:00:00	2024-11-08T02:00:00	3	Temperatura mínima	15.4
98436	7	Sololá	713	San Lucas Tolimán	10	San Lucas Tolimán	1	Enero	2023-02-01T00:00:00	2024-11-08T02:00:00	5	Humedad	61
98437	7	Sololá	713	San Lucas Tolimán	10	San Lucas Tolimán	1	Enero	2023-02-01T00:00:00	2024-11-08T02:00:00	6	Velocidad del viento	3.2
98438	7	Sololá	713	San Lucas Tolimán	10	San Lucas Tolimán	1	Enero	2023-02-01T00:00:00	2024-11-08T02:00:00	7	Dirección del viento	3.22
98439	7	Sololá	713	San Lucas Tolimán	10	San Lucas Tolimán	1	Enero	2023-02-01T00:00:00	2024-11-08T02:00:00	1	Precipitación	0
98440	7	Sololá	713	San Lucas Tolimán	10	San Lucas Tolimán	1	Enero	2023-02-01T00:00:00	2024-11-08T02:00:00	8	Radiación solar	0
98441	7	Sololá	713	San Lucas Tolimán	10	San Lucas Tolimán	1	Enero	2023-02-01T00:00:00	2024-11-08T03:00:00	2	Temperatura media	15.4
98442	7	Sololá	713	San Lucas Tolimán	10	San Lucas Tolimán	1	Enero	2023-02-01T00:00:00	2024-11-08T03:00:00	4	Temperatura máxima	15.6
98443	7	Sololá	713	San Lucas Tolimán	10	San Lucas Tolimán	1	Enero	2023-02-01T00:00:00	2024-11-08T03:00:00	3	Temperatura mínima	15.2
98444	7	Sololá	713	San Lucas Tolimán	10	San Lucas Tolimán	1	Enero	2023-02-01T00:00:00	2024-11-08T03:00:00	5	Humedad	58
98445	7	Sololá	713	San Lucas Tolimán	10	San Lucas Tolimán	1	Enero	2023-02-01T00:00:00	2024-11-08T03:00:00	6	Velocidad del viento	3.2
98446	7	Sololá	713	San Lucas Tolimán	10	San Lucas Tolimán	1	Enero	2023-02-01T00:00:00	2024-11-08T03:00:00	7	Dirección del viento	3.22
98447	7	Sololá	713	San Lucas Tolimán	10	San Lucas Tolimán	1	Enero	2023-02-01T00:00:00	2024-11-08T03:00:00	1	Precipitación	0
98448	7	Sololá	713	San Lucas Tolimán	10	San Lucas Tolimán	1	Enero	2023-02-01T00:00:00	2024-11-08T03:00:00	8	Radiación solar	0
98449	7	Sololá	713	San Lucas Tolimán	10	San Lucas Tolimán	1	Enero	2023-02-01T00:00:00	2024-11-08T04:00:00	2	Temperatura media	14.9
98450	7	Sololá	713	San Lucas Tolimán	10	San Lucas Tolimán	1	Enero	2023-02-01T00:00:00	2024-11-08T04:00:00	4	Temperatura máxima	15.5
98451	7	Sololá	713	San Lucas Tolimán	10	San Lucas Tolimán	1	Enero	2023-02-01T00:00:00	2024-11-08T04:00:00	3	Temperatura mínima	14.9
98452	7	Sololá	713	San Lucas Tolimán	10	San Lucas Tolimán	1	Enero	2023-02-01T00:00:00	2024-11-08T04:00:00	5	Humedad	60
98453	7	Sololá	713	San Lucas Tolimán	10	San Lucas Tolimán	1	Enero	2023-02-01T00:00:00	2024-11-08T04:00:00	6	Velocidad del viento	1.6
98454	7	Sololá	713	San Lucas Tolimán	10	San Lucas Tolimán	1	Enero	2023-02-01T00:00:00	2024-11-08T04:00:00	7	Dirección del viento	1.61
98455	7	Sololá	713	San Lucas Tolimán	10	San Lucas Tolimán	1	Enero	2023-02-01T00:00:00	2024-11-08T04:00:00	1	Precipitación	0
98456	7	Sololá	713	San Lucas Tolimán	10	San Lucas Tolimán	1	Enero	2023-02-01T00:00:00	2024-11-08T04:00:00	8	Radiación solar	0
98457	7	Sololá	713	San Lucas Tolimán	10	San Lucas Tolimán	1	Enero	2023-02-01T00:00:00	2024-11-08T05:00:00	2	Temperatura media	14.7
98458	7	Sololá	713	San Lucas Tolimán	10	San Lucas Tolimán	1	Enero	2023-02-01T00:00:00	2024-11-08T05:00:00	4	Temperatura máxima	15.2
98459	7	Sololá	713	San Lucas Tolimán	10	San Lucas Tolimán	1	Enero	2023-02-01T00:00:00	2024-11-08T05:00:00	3	Temperatura mínima	14.6
98460	7	Sololá	713	San Lucas Tolimán	10	San Lucas Tolimán	1	Enero	2023-02-01T00:00:00	2024-11-08T05:00:00	5	Humedad	60
98461	7	Sololá	713	San Lucas Tolimán	10	San Lucas Tolimán	1	Enero	2023-02-01T00:00:00	2024-11-08T05:00:00	6	Velocidad del viento	1.6
98462	7	Sololá	713	San Lucas Tolimán	10	San Lucas Tolimán	1	Enero	2023-02-01T00:00:00	2024-11-08T05:00:00	7	Dirección del viento	1.61
98463	7	Sololá	713	San Lucas Tolimán	10	San Lucas Tolimán	1	Enero	2023-02-01T00:00:00	2024-11-08T05:00:00	1	Precipitación	0
98464	7	Sololá	713	San Lucas Tolimán	10	San Lucas Tolimán	1	Enero	2023-02-01T00:00:00	2024-11-08T05:00:00	8	Radiación solar	0
98465	7	Sololá	713	San Lucas Tolimán	10	San Lucas Tolimán	1	Enero	2023-02-01T00:00:00	2024-11-08T06:00:00	2	Temperatura media	14.7
98466	7	Sololá	713	San Lucas Tolimán	10	San Lucas Tolimán	1	Enero	2023-02-01T00:00:00	2024-11-08T06:00:00	4	Temperatura máxima	14.7
98467	7	Sololá	713	San Lucas Tolimán	10	San Lucas Tolimán	1	Enero	2023-02-01T00:00:00	2024-11-08T06:00:00	3	Temperatura mínima	14.3
98468	7	Sololá	713	San Lucas Tolimán	10	San Lucas Tolimán	1	Enero	2023-02-01T00:00:00	2024-11-08T06:00:00	5	Humedad	60
98469	7	Sololá	713	San Lucas Tolimán	10	San Lucas Tolimán	1	Enero	2023-02-01T00:00:00	2024-11-08T06:00:00	6	Velocidad del viento	3.2
98470	7	Sololá	713	San Lucas Tolimán	10	San Lucas Tolimán	1	Enero	2023-02-01T00:00:00	2024-11-08T06:00:00	7	Dirección del viento	3.22
98471	7	Sololá	713	San Lucas Tolimán	10	San Lucas Tolimán	1	Enero	2023-02-01T00:00:00	2024-11-08T06:00:00	1	Precipitación	0
98472	7	Sololá	713	San Lucas Tolimán	10	San Lucas Tolimán	1	Enero	2023-02-01T00:00:00	2024-11-08T06:00:00	8	Radiación solar	0
98473	7	Sololá	713	San Lucas Tolimán	10	San Lucas Tolimán	1	Enero	2023-02-01T00:00:00	2024-11-08T07:00:00	2	Temperatura media	12.7
98474	7	Sololá	713	San Lucas Tolimán	10	San Lucas Tolimán	1	Enero	2023-02-01T00:00:00	2024-11-08T07:00:00	4	Temperatura máxima	14.6
98475	7	Sololá	713	San Lucas Tolimán	10	San Lucas Tolimán	1	Enero	2023-02-01T00:00:00	2024-11-08T07:00:00	3	Temperatura mínima	12.7
98476	7	Sololá	713	San Lucas Tolimán	10	San Lucas Tolimán	1	Enero	2023-02-01T00:00:00	2024-11-08T07:00:00	5	Humedad	62
98477	7	Sololá	713	San Lucas Tolimán	10	San Lucas Tolimán	1	Enero	2023-02-01T00:00:00	2024-11-08T07:00:00	6	Velocidad del viento	1.6
98478	7	Sololá	713	San Lucas Tolimán	10	San Lucas Tolimán	1	Enero	2023-02-01T00:00:00	2024-11-08T07:00:00	7	Dirección del viento	1.61
98479	7	Sololá	713	San Lucas Tolimán	10	San Lucas Tolimán	1	Enero	2023-02-01T00:00:00	2024-11-08T07:00:00	1	Precipitación	0
98480	7	Sololá	713	San Lucas Tolimán	10	San Lucas Tolimán	1	Enero	2023-02-01T00:00:00	2024-11-08T07:00:00	8	Radiación solar	5
98481	7	Sololá	713	San Lucas Tolimán	10	San Lucas Tolimán	1	Enero	2023-02-01T00:00:00	2024-11-08T08:00:00	2	Temperatura media	14.3
98482	7	Sololá	713	San Lucas Tolimán	10	San Lucas Tolimán	1	Enero	2023-02-01T00:00:00	2024-11-08T08:00:00	4	Temperatura máxima	14.3
98483	7	Sololá	713	San Lucas Tolimán	10	San Lucas Tolimán	1	Enero	2023-02-01T00:00:00	2024-11-08T08:00:00	3	Temperatura mínima	12.3
98484	7	Sololá	713	San Lucas Tolimán	10	San Lucas Tolimán	1	Enero	2023-02-01T00:00:00	2024-11-08T08:00:00	5	Humedad	63
98485	7	Sololá	713	San Lucas Tolimán	10	San Lucas Tolimán	1	Enero	2023-02-01T00:00:00	2024-11-08T08:00:00	6	Velocidad del viento	3.2
98486	7	Sololá	713	San Lucas Tolimán	10	San Lucas Tolimán	1	Enero	2023-02-01T00:00:00	2024-11-08T08:00:00	7	Dirección del viento	3.22
98487	7	Sololá	713	San Lucas Tolimán	10	San Lucas Tolimán	1	Enero	2023-02-01T00:00:00	2024-11-08T08:00:00	1	Precipitación	0
98488	7	Sololá	713	San Lucas Tolimán	10	San Lucas Tolimán	1	Enero	2023-02-01T00:00:00	2024-11-08T08:00:00	8	Radiación solar	56
98489	7	Sololá	713	San Lucas Tolimán	10	San Lucas Tolimán	1	Enero	2023-02-01T00:00:00	2024-11-08T09:00:00	2	Temperatura media	17.9
98490	7	Sololá	713	San Lucas Tolimán	10	San Lucas Tolimán	1	Enero	2023-02-01T00:00:00	2024-11-08T09:00:00	4	Temperatura máxima	18.2
98491	7	Sololá	713	San Lucas Tolimán	10	San Lucas Tolimán	1	Enero	2023-02-01T00:00:00	2024-11-08T09:00:00	3	Temperatura mínima	14.3
98492	7	Sololá	713	San Lucas Tolimán	10	San Lucas Tolimán	1	Enero	2023-02-01T00:00:00	2024-11-08T09:00:00	5	Humedad	56
98493	7	Sololá	713	San Lucas Tolimán	10	San Lucas Tolimán	1	Enero	2023-02-01T00:00:00	2024-11-08T09:00:00	6	Velocidad del viento	1.6
98494	7	Sololá	713	San Lucas Tolimán	10	San Lucas Tolimán	1	Enero	2023-02-01T00:00:00	2024-11-08T09:00:00	7	Dirección del viento	1.61
98495	7	Sololá	713	San Lucas Tolimán	10	San Lucas Tolimán	1	Enero	2023-02-01T00:00:00	2024-11-08T09:00:00	1	Precipitación	0
98496	7	Sololá	713	San Lucas Tolimán	10	San Lucas Tolimán	1	Enero	2023-02-01T00:00:00	2024-11-08T09:00:00	8	Radiación solar	317
98497	7	Sololá	713	San Lucas Tolimán	10	San Lucas Tolimán	1	Enero	2023-02-01T00:00:00	2024-11-08T10:00:00	2	Temperatura media	19
98498	7	Sololá	713	San Lucas Tolimán	10	San Lucas Tolimán	1	Enero	2023-02-01T00:00:00	2024-11-08T10:00:00	4	Temperatura máxima	19
98499	7	Sololá	713	San Lucas Tolimán	10	San Lucas Tolimán	1	Enero	2023-02-01T00:00:00	2024-11-08T10:00:00	3	Temperatura mínima	17.9
98500	7	Sololá	713	San Lucas Tolimán	10	San Lucas Tolimán	1	Enero	2023-02-01T00:00:00	2024-11-08T10:00:00	5	Humedad	57
98501	7	Sololá	713	San Lucas Tolimán	10	San Lucas Tolimán	1	Enero	2023-02-01T00:00:00	2024-11-08T10:00:00	6	Velocidad del viento	4.8
98502	7	Sololá	713	San Lucas Tolimán	10	San Lucas Tolimán	1	Enero	2023-02-01T00:00:00	2024-11-08T10:00:00	7	Dirección del viento	4.83
98503	7	Sololá	713	San Lucas Tolimán	10	San Lucas Tolimán	1	Enero	2023-02-01T00:00:00	2024-11-08T10:00:00	1	Precipitación	0
98504	7	Sololá	713	San Lucas Tolimán	10	San Lucas Tolimán	1	Enero	2023-02-01T00:00:00	2024-11-08T10:00:00	8	Radiación solar	529
98505	7	Sololá	713	San Lucas Tolimán	10	San Lucas Tolimán	1	Enero	2023-02-01T00:00:00	2024-11-08T11:00:00	2	Temperatura media	21.8
98506	7	Sololá	713	San Lucas Tolimán	10	San Lucas Tolimán	1	Enero	2023-02-01T00:00:00	2024-11-08T11:00:00	4	Temperatura máxima	21.8
98507	7	Sololá	713	San Lucas Tolimán	10	San Lucas Tolimán	1	Enero	2023-02-01T00:00:00	2024-11-08T11:00:00	3	Temperatura mínima	19
98508	7	Sololá	713	San Lucas Tolimán	10	San Lucas Tolimán	1	Enero	2023-02-01T00:00:00	2024-11-08T11:00:00	5	Humedad	54
98509	7	Sololá	713	San Lucas Tolimán	10	San Lucas Tolimán	1	Enero	2023-02-01T00:00:00	2024-11-08T11:00:00	6	Velocidad del viento	4.8
98510	7	Sololá	713	San Lucas Tolimán	10	San Lucas Tolimán	1	Enero	2023-02-01T00:00:00	2024-11-08T11:00:00	7	Dirección del viento	4.83
98511	7	Sololá	713	San Lucas Tolimán	10	San Lucas Tolimán	1	Enero	2023-02-01T00:00:00	2024-11-08T11:00:00	1	Precipitación	0
98512	7	Sololá	713	San Lucas Tolimán	10	San Lucas Tolimán	1	Enero	2023-02-01T00:00:00	2024-11-08T11:00:00	8	Radiación solar	698
98513	7	Sololá	713	San Lucas Tolimán	10	San Lucas Tolimán	1	Enero	2023-02-01T00:00:00	2024-11-08T12:00:00	2	Temperatura media	20.9
98514	7	Sololá	713	San Lucas Tolimán	10	San Lucas Tolimán	1	Enero	2023-02-01T00:00:00	2024-11-08T12:00:00	4	Temperatura máxima	22.1
98515	7	Sololá	713	San Lucas Tolimán	10	San Lucas Tolimán	1	Enero	2023-02-01T00:00:00	2024-11-08T12:00:00	3	Temperatura mínima	20.6
98516	7	Sololá	713	San Lucas Tolimán	10	San Lucas Tolimán	1	Enero	2023-02-01T00:00:00	2024-11-08T12:00:00	5	Humedad	58
98517	7	Sololá	713	San Lucas Tolimán	10	San Lucas Tolimán	1	Enero	2023-02-01T00:00:00	2024-11-08T12:00:00	6	Velocidad del viento	9.7
98518	7	Sololá	713	San Lucas Tolimán	10	San Lucas Tolimán	1	Enero	2023-02-01T00:00:00	2024-11-08T12:00:00	7	Dirección del viento	9.66
98519	7	Sololá	713	San Lucas Tolimán	10	San Lucas Tolimán	1	Enero	2023-02-01T00:00:00	2024-11-08T12:00:00	1	Precipitación	0
98520	7	Sololá	713	San Lucas Tolimán	10	San Lucas Tolimán	1	Enero	2023-02-01T00:00:00	2024-11-08T12:00:00	8	Radiación solar	782
98521	7	Sololá	713	San Lucas Tolimán	10	San Lucas Tolimán	1	Enero	2023-02-01T00:00:00	2024-11-08T13:00:00	2	Temperatura media	20.8
98522	7	Sololá	713	San Lucas Tolimán	10	San Lucas Tolimán	1	Enero	2023-02-01T00:00:00	2024-11-08T13:00:00	4	Temperatura máxima	21.6
98523	7	Sololá	713	San Lucas Tolimán	10	San Lucas Tolimán	1	Enero	2023-02-01T00:00:00	2024-11-08T13:00:00	3	Temperatura mínima	20.6
98524	7	Sololá	713	San Lucas Tolimán	10	San Lucas Tolimán	1	Enero	2023-02-01T00:00:00	2024-11-08T13:00:00	5	Humedad	58
98525	7	Sololá	713	San Lucas Tolimán	10	San Lucas Tolimán	1	Enero	2023-02-01T00:00:00	2024-11-08T13:00:00	6	Velocidad del viento	11.3
98526	7	Sololá	713	San Lucas Tolimán	10	San Lucas Tolimán	1	Enero	2023-02-01T00:00:00	2024-11-08T13:00:00	7	Dirección del viento	11.27
98527	7	Sololá	713	San Lucas Tolimán	10	San Lucas Tolimán	1	Enero	2023-02-01T00:00:00	2024-11-08T13:00:00	1	Precipitación	0
98528	7	Sololá	713	San Lucas Tolimán	10	San Lucas Tolimán	1	Enero	2023-02-01T00:00:00	2024-11-08T13:00:00	8	Radiación solar	826
98529	7	Sololá	713	San Lucas Tolimán	10	San Lucas Tolimán	1	Enero	2023-02-01T00:00:00	2024-11-08T14:00:00	2	Temperatura media	21.3
98530	7	Sololá	713	San Lucas Tolimán	10	San Lucas Tolimán	1	Enero	2023-02-01T00:00:00	2024-11-08T14:00:00	4	Temperatura máxima	21.8
98531	7	Sololá	713	San Lucas Tolimán	10	San Lucas Tolimán	1	Enero	2023-02-01T00:00:00	2024-11-08T14:00:00	3	Temperatura mínima	20.7
98532	7	Sololá	713	San Lucas Tolimán	10	San Lucas Tolimán	1	Enero	2023-02-01T00:00:00	2024-11-08T14:00:00	5	Humedad	57
98533	7	Sololá	713	San Lucas Tolimán	10	San Lucas Tolimán	1	Enero	2023-02-01T00:00:00	2024-11-08T14:00:00	6	Velocidad del viento	12.9
98534	7	Sololá	713	San Lucas Tolimán	10	San Lucas Tolimán	1	Enero	2023-02-01T00:00:00	2024-11-08T14:00:00	7	Dirección del viento	12.87
98535	7	Sololá	713	San Lucas Tolimán	10	San Lucas Tolimán	1	Enero	2023-02-01T00:00:00	2024-11-08T14:00:00	1	Precipitación	0
98536	7	Sololá	713	San Lucas Tolimán	10	San Lucas Tolimán	1	Enero	2023-02-01T00:00:00	2024-11-08T14:00:00	8	Radiación solar	822
98537	7	Sololá	713	San Lucas Tolimán	10	San Lucas Tolimán	1	Enero	2023-02-01T00:00:00	2024-11-08T15:00:00	2	Temperatura media	21.1
98538	7	Sololá	713	San Lucas Tolimán	10	San Lucas Tolimán	1	Enero	2023-02-01T00:00:00	2024-11-08T15:00:00	4	Temperatura máxima	21.4
98539	7	Sololá	713	San Lucas Tolimán	10	San Lucas Tolimán	1	Enero	2023-02-01T00:00:00	2024-11-08T15:00:00	3	Temperatura mínima	20.6
98540	7	Sololá	713	San Lucas Tolimán	10	San Lucas Tolimán	1	Enero	2023-02-01T00:00:00	2024-11-08T15:00:00	5	Humedad	60
98541	7	Sololá	713	San Lucas Tolimán	10	San Lucas Tolimán	1	Enero	2023-02-01T00:00:00	2024-11-08T15:00:00	6	Velocidad del viento	12.9
98542	7	Sololá	713	San Lucas Tolimán	10	San Lucas Tolimán	1	Enero	2023-02-01T00:00:00	2024-11-08T15:00:00	7	Dirección del viento	12.87
98543	7	Sololá	713	San Lucas Tolimán	10	San Lucas Tolimán	1	Enero	2023-02-01T00:00:00	2024-11-08T15:00:00	1	Precipitación	0
98544	7	Sololá	713	San Lucas Tolimán	10	San Lucas Tolimán	1	Enero	2023-02-01T00:00:00	2024-11-08T15:00:00	8	Radiación solar	558
98545	7	Sololá	713	San Lucas Tolimán	10	San Lucas Tolimán	1	Enero	2023-02-01T00:00:00	2024-11-08T16:00:00	2	Temperatura media	20.6
98546	7	Sololá	713	San Lucas Tolimán	10	San Lucas Tolimán	1	Enero	2023-02-01T00:00:00	2024-11-08T16:00:00	4	Temperatura máxima	21.3
98547	7	Sololá	713	San Lucas Tolimán	10	San Lucas Tolimán	1	Enero	2023-02-01T00:00:00	2024-11-08T16:00:00	3	Temperatura mínima	20.6
98548	7	Sololá	713	San Lucas Tolimán	10	San Lucas Tolimán	1	Enero	2023-02-01T00:00:00	2024-11-08T16:00:00	5	Humedad	62
98549	7	Sololá	713	San Lucas Tolimán	10	San Lucas Tolimán	1	Enero	2023-02-01T00:00:00	2024-11-08T16:00:00	6	Velocidad del viento	8
98550	7	Sololá	713	San Lucas Tolimán	10	San Lucas Tolimán	1	Enero	2023-02-01T00:00:00	2024-11-08T16:00:00	7	Dirección del viento	8.05
98551	7	Sololá	713	San Lucas Tolimán	10	San Lucas Tolimán	1	Enero	2023-02-01T00:00:00	2024-11-08T16:00:00	1	Precipitación	0
98552	7	Sololá	713	San Lucas Tolimán	10	San Lucas Tolimán	1	Enero	2023-02-01T00:00:00	2024-11-08T16:00:00	8	Radiación solar	429
98553	7	Sololá	713	San Lucas Tolimán	10	San Lucas Tolimán	1	Enero	2023-02-01T00:00:00	2024-11-08T17:00:00	2	Temperatura media	19.3
98554	7	Sololá	713	San Lucas Tolimán	10	San Lucas Tolimán	1	Enero	2023-02-01T00:00:00	2024-11-08T17:00:00	4	Temperatura máxima	20.7
98555	7	Sololá	713	San Lucas Tolimán	10	San Lucas Tolimán	1	Enero	2023-02-01T00:00:00	2024-11-08T17:00:00	3	Temperatura mínima	19.3
98556	7	Sololá	713	San Lucas Tolimán	10	San Lucas Tolimán	1	Enero	2023-02-01T00:00:00	2024-11-08T17:00:00	5	Humedad	61
98557	7	Sololá	713	San Lucas Tolimán	10	San Lucas Tolimán	1	Enero	2023-02-01T00:00:00	2024-11-08T17:00:00	6	Velocidad del viento	6.4
98558	7	Sololá	713	San Lucas Tolimán	10	San Lucas Tolimán	1	Enero	2023-02-01T00:00:00	2024-11-08T17:00:00	7	Dirección del viento	6.44
98559	7	Sololá	713	San Lucas Tolimán	10	San Lucas Tolimán	1	Enero	2023-02-01T00:00:00	2024-11-08T17:00:00	1	Precipitación	0
98560	7	Sololá	713	San Lucas Tolimán	10	San Lucas Tolimán	1	Enero	2023-02-01T00:00:00	2024-11-08T17:00:00	8	Radiación solar	151
98561	7	Sololá	713	San Lucas Tolimán	10	San Lucas Tolimán	1	Enero	2023-02-01T00:00:00	2024-11-08T18:00:00	2	Temperatura media	18.4
98562	7	Sololá	713	San Lucas Tolimán	10	San Lucas Tolimán	1	Enero	2023-02-01T00:00:00	2024-11-08T18:00:00	4	Temperatura máxima	19.3
98563	7	Sololá	713	San Lucas Tolimán	10	San Lucas Tolimán	1	Enero	2023-02-01T00:00:00	2024-11-08T18:00:00	3	Temperatura mínima	18.3
98564	7	Sololá	713	San Lucas Tolimán	10	San Lucas Tolimán	1	Enero	2023-02-01T00:00:00	2024-11-08T18:00:00	5	Humedad	61
98565	7	Sololá	713	San Lucas Tolimán	10	San Lucas Tolimán	1	Enero	2023-02-01T00:00:00	2024-11-08T18:00:00	6	Velocidad del viento	4.8
98566	7	Sololá	713	San Lucas Tolimán	10	San Lucas Tolimán	1	Enero	2023-02-01T00:00:00	2024-11-08T18:00:00	7	Dirección del viento	4.83
98567	7	Sololá	713	San Lucas Tolimán	10	San Lucas Tolimán	1	Enero	2023-02-01T00:00:00	2024-11-08T18:00:00	1	Precipitación	0
98568	7	Sololá	713	San Lucas Tolimán	10	San Lucas Tolimán	1	Enero	2023-02-01T00:00:00	2024-11-08T18:00:00	8	Radiación solar	21
98569	7	Sololá	713	San Lucas Tolimán	10	San Lucas Tolimán	1	Enero	2023-02-01T00:00:00	2024-11-08T19:00:00	2	Temperatura media	17.5
98570	7	Sololá	713	San Lucas Tolimán	10	San Lucas Tolimán	1	Enero	2023-02-01T00:00:00	2024-11-08T19:00:00	4	Temperatura máxima	18.4
98571	7	Sololá	713	San Lucas Tolimán	10	San Lucas Tolimán	1	Enero	2023-02-01T00:00:00	2024-11-08T19:00:00	3	Temperatura mínima	17.4
98572	7	Sololá	713	San Lucas Tolimán	10	San Lucas Tolimán	1	Enero	2023-02-01T00:00:00	2024-11-08T19:00:00	5	Humedad	61
98573	7	Sololá	713	San Lucas Tolimán	10	San Lucas Tolimán	1	Enero	2023-02-01T00:00:00	2024-11-08T19:00:00	6	Velocidad del viento	6.4
98574	7	Sololá	713	San Lucas Tolimán	10	San Lucas Tolimán	1	Enero	2023-02-01T00:00:00	2024-11-08T19:00:00	7	Dirección del viento	6.44
98575	7	Sololá	713	San Lucas Tolimán	10	San Lucas Tolimán	1	Enero	2023-02-01T00:00:00	2024-11-08T19:00:00	1	Precipitación	0
98576	7	Sololá	713	San Lucas Tolimán	10	San Lucas Tolimán	1	Enero	2023-02-01T00:00:00	2024-11-08T19:00:00	8	Radiación solar	0
98577	7	Sololá	713	San Lucas Tolimán	10	San Lucas Tolimán	1	Enero	2023-02-01T00:00:00	2024-11-08T20:00:00	2	Temperatura media	16.8
98578	7	Sololá	713	San Lucas Tolimán	10	San Lucas Tolimán	1	Enero	2023-02-01T00:00:00	2024-11-08T20:00:00	4	Temperatura máxima	17.6
98579	7	Sololá	713	San Lucas Tolimán	10	San Lucas Tolimán	1	Enero	2023-02-01T00:00:00	2024-11-08T20:00:00	3	Temperatura mínima	16.7
98580	7	Sololá	713	San Lucas Tolimán	10	San Lucas Tolimán	1	Enero	2023-02-01T00:00:00	2024-11-08T20:00:00	5	Humedad	61
98581	7	Sololá	713	San Lucas Tolimán	10	San Lucas Tolimán	1	Enero	2023-02-01T00:00:00	2024-11-08T20:00:00	6	Velocidad del viento	6.4
98582	7	Sololá	713	San Lucas Tolimán	10	San Lucas Tolimán	1	Enero	2023-02-01T00:00:00	2024-11-08T20:00:00	7	Dirección del viento	6.44
98583	7	Sololá	713	San Lucas Tolimán	10	San Lucas Tolimán	1	Enero	2023-02-01T00:00:00	2024-11-08T20:00:00	1	Precipitación	0
98584	7	Sololá	713	San Lucas Tolimán	10	San Lucas Tolimán	1	Enero	2023-02-01T00:00:00	2024-11-08T20:00:00	8	Radiación solar	0
98585	7	Sololá	713	San Lucas Tolimán	10	San Lucas Tolimán	1	Enero	2023-02-01T00:00:00	2024-11-08T21:00:00	2	Temperatura media	16.4
98586	7	Sololá	713	San Lucas Tolimán	10	San Lucas Tolimán	1	Enero	2023-02-01T00:00:00	2024-11-08T21:00:00	4	Temperatura máxima	16.8
98587	7	Sololá	713	San Lucas Tolimán	10	San Lucas Tolimán	1	Enero	2023-02-01T00:00:00	2024-11-08T21:00:00	3	Temperatura mínima	16.2
98588	7	Sololá	713	San Lucas Tolimán	10	San Lucas Tolimán	1	Enero	2023-02-01T00:00:00	2024-11-08T21:00:00	5	Humedad	62
98589	7	Sololá	713	San Lucas Tolimán	10	San Lucas Tolimán	1	Enero	2023-02-01T00:00:00	2024-11-08T21:00:00	6	Velocidad del viento	3.2
98590	7	Sololá	713	San Lucas Tolimán	10	San Lucas Tolimán	1	Enero	2023-02-01T00:00:00	2024-11-08T21:00:00	7	Dirección del viento	3.22
98591	7	Sololá	713	San Lucas Tolimán	10	San Lucas Tolimán	1	Enero	2023-02-01T00:00:00	2024-11-08T21:00:00	1	Precipitación	0
98592	7	Sololá	713	San Lucas Tolimán	10	San Lucas Tolimán	1	Enero	2023-02-01T00:00:00	2024-11-08T21:00:00	8	Radiación solar	0
98593	7	Sololá	713	San Lucas Tolimán	10	San Lucas Tolimán	1	Enero	2023-02-01T00:00:00	2024-11-08T22:00:00	2	Temperatura media	15.1
98594	7	Sololá	713	San Lucas Tolimán	10	San Lucas Tolimán	1	Enero	2023-02-01T00:00:00	2024-11-08T22:00:00	4	Temperatura máxima	16.4
98595	7	Sololá	713	San Lucas Tolimán	10	San Lucas Tolimán	1	Enero	2023-02-01T00:00:00	2024-11-08T22:00:00	3	Temperatura mínima	15.1
98596	7	Sololá	713	San Lucas Tolimán	10	San Lucas Tolimán	1	Enero	2023-02-01T00:00:00	2024-11-08T22:00:00	5	Humedad	60
98597	7	Sololá	713	San Lucas Tolimán	10	San Lucas Tolimán	1	Enero	2023-02-01T00:00:00	2024-11-08T22:00:00	6	Velocidad del viento	4.8
98598	7	Sololá	713	San Lucas Tolimán	10	San Lucas Tolimán	1	Enero	2023-02-01T00:00:00	2024-11-08T22:00:00	7	Dirección del viento	4.83
98599	7	Sololá	713	San Lucas Tolimán	10	San Lucas Tolimán	1	Enero	2023-02-01T00:00:00	2024-11-08T22:00:00	1	Precipitación	0
98600	7	Sololá	713	San Lucas Tolimán	10	San Lucas Tolimán	1	Enero	2023-02-01T00:00:00	2024-11-08T22:00:00	8	Radiación solar	0
98601	7	Sololá	713	San Lucas Tolimán	10	San Lucas Tolimán	1	Enero	2023-02-01T00:00:00	2024-11-08T23:00:00	2	Temperatura media	14.9
98602	7	Sololá	713	San Lucas Tolimán	10	San Lucas Tolimán	1	Enero	2023-02-01T00:00:00	2024-11-08T23:00:00	4	Temperatura máxima	15.1
98603	7	Sololá	713	San Lucas Tolimán	10	San Lucas Tolimán	1	Enero	2023-02-01T00:00:00	2024-11-08T23:00:00	3	Temperatura mínima	14.8
98604	7	Sololá	713	San Lucas Tolimán	10	San Lucas Tolimán	1	Enero	2023-02-01T00:00:00	2024-11-08T23:00:00	5	Humedad	59
98605	7	Sololá	713	San Lucas Tolimán	10	San Lucas Tolimán	1	Enero	2023-02-01T00:00:00	2024-11-08T23:00:00	6	Velocidad del viento	4.8
98606	7	Sololá	713	San Lucas Tolimán	10	San Lucas Tolimán	1	Enero	2023-02-01T00:00:00	2024-11-08T23:00:00	7	Dirección del viento	4.83
98607	7	Sololá	713	San Lucas Tolimán	10	San Lucas Tolimán	1	Enero	2023-02-01T00:00:00	2024-11-08T23:00:00	1	Precipitación	0
98608	7	Sololá	713	San Lucas Tolimán	10	San Lucas Tolimán	1	Enero	2023-02-01T00:00:00	2024-11-08T23:00:00	8	Radiación solar	0
98609	7	Sololá	713	San Lucas Tolimán	10	San Lucas Tolimán	1	Enero	2023-03-01T00:00:00	2024-11-08T00:00:00	2	Temperatura media	15.2
98610	7	Sololá	713	San Lucas Tolimán	10	San Lucas Tolimán	1	Enero	2023-03-01T00:00:00	2024-11-08T00:00:00	4	Temperatura máxima	15.3
98611	7	Sololá	713	San Lucas Tolimán	10	San Lucas Tolimán	1	Enero	2023-03-01T00:00:00	2024-11-08T00:00:00	3	Temperatura mínima	14.8
98612	7	Sololá	713	San Lucas Tolimán	10	San Lucas Tolimán	1	Enero	2023-03-01T00:00:00	2024-11-08T00:00:00	5	Humedad	61
98613	7	Sololá	713	San Lucas Tolimán	10	San Lucas Tolimán	1	Enero	2023-03-01T00:00:00	2024-11-08T00:00:00	6	Velocidad del viento	3.2
98614	7	Sololá	713	San Lucas Tolimán	10	San Lucas Tolimán	1	Enero	2023-03-01T00:00:00	2024-11-08T00:00:00	7	Dirección del viento	3.22
98615	7	Sololá	713	San Lucas Tolimán	10	San Lucas Tolimán	1	Enero	2023-03-01T00:00:00	2024-11-08T00:00:00	1	Precipitación	0
98616	7	Sololá	713	San Lucas Tolimán	10	San Lucas Tolimán	1	Enero	2023-03-01T00:00:00	2024-11-08T00:00:00	8	Radiación solar	0
98617	7	Sololá	713	San Lucas Tolimán	10	San Lucas Tolimán	1	Enero	2023-03-01T00:00:00	2024-11-08T01:00:00	2	Temperatura media	15.2
98618	7	Sololá	713	San Lucas Tolimán	10	San Lucas Tolimán	1	Enero	2023-03-01T00:00:00	2024-11-08T01:00:00	4	Temperatura máxima	15.4
98619	7	Sololá	713	San Lucas Tolimán	10	San Lucas Tolimán	1	Enero	2023-03-01T00:00:00	2024-11-08T01:00:00	3	Temperatura mínima	14.9
98620	7	Sololá	713	San Lucas Tolimán	10	San Lucas Tolimán	1	Enero	2023-03-01T00:00:00	2024-11-08T01:00:00	5	Humedad	60
98621	7	Sololá	713	San Lucas Tolimán	10	San Lucas Tolimán	1	Enero	2023-03-01T00:00:00	2024-11-08T01:00:00	6	Velocidad del viento	1.6
98622	7	Sololá	713	San Lucas Tolimán	10	San Lucas Tolimán	1	Enero	2023-03-01T00:00:00	2024-11-08T01:00:00	7	Dirección del viento	1.61
98623	7	Sololá	713	San Lucas Tolimán	10	San Lucas Tolimán	1	Enero	2023-03-01T00:00:00	2024-11-08T01:00:00	1	Precipitación	0
98624	7	Sololá	713	San Lucas Tolimán	10	San Lucas Tolimán	1	Enero	2023-03-01T00:00:00	2024-11-08T01:00:00	8	Radiación solar	0
98625	7	Sololá	713	San Lucas Tolimán	10	San Lucas Tolimán	1	Enero	2023-03-01T00:00:00	2024-11-08T02:00:00	2	Temperatura media	15.4
98626	7	Sololá	713	San Lucas Tolimán	10	San Lucas Tolimán	1	Enero	2023-03-01T00:00:00	2024-11-08T02:00:00	4	Temperatura máxima	15.6
98627	7	Sololá	713	San Lucas Tolimán	10	San Lucas Tolimán	1	Enero	2023-03-01T00:00:00	2024-11-08T02:00:00	3	Temperatura mínima	15
98628	7	Sololá	713	San Lucas Tolimán	10	San Lucas Tolimán	1	Enero	2023-03-01T00:00:00	2024-11-08T02:00:00	5	Humedad	59
98629	7	Sololá	713	San Lucas Tolimán	10	San Lucas Tolimán	1	Enero	2023-03-01T00:00:00	2024-11-08T02:00:00	6	Velocidad del viento	1.6
98630	7	Sololá	713	San Lucas Tolimán	10	San Lucas Tolimán	1	Enero	2023-03-01T00:00:00	2024-11-08T02:00:00	7	Dirección del viento	1.61
98631	7	Sololá	713	San Lucas Tolimán	10	San Lucas Tolimán	1	Enero	2023-03-01T00:00:00	2024-11-08T02:00:00	1	Precipitación	0
98632	7	Sololá	713	San Lucas Tolimán	10	San Lucas Tolimán	1	Enero	2023-03-01T00:00:00	2024-11-08T02:00:00	8	Radiación solar	0
98633	7	Sololá	713	San Lucas Tolimán	10	San Lucas Tolimán	1	Enero	2023-03-01T00:00:00	2024-11-08T03:00:00	2	Temperatura media	14.7
98634	7	Sololá	713	San Lucas Tolimán	10	San Lucas Tolimán	1	Enero	2023-03-01T00:00:00	2024-11-08T03:00:00	4	Temperatura máxima	15.4
98635	7	Sololá	713	San Lucas Tolimán	10	San Lucas Tolimán	1	Enero	2023-03-01T00:00:00	2024-11-08T03:00:00	3	Temperatura mínima	14.6
98636	7	Sololá	713	San Lucas Tolimán	10	San Lucas Tolimán	1	Enero	2023-03-01T00:00:00	2024-11-08T03:00:00	5	Humedad	60
98637	7	Sololá	713	San Lucas Tolimán	10	San Lucas Tolimán	1	Enero	2023-03-01T00:00:00	2024-11-08T03:00:00	6	Velocidad del viento	0
98638	7	Sololá	713	San Lucas Tolimán	10	San Lucas Tolimán	1	Enero	2023-03-01T00:00:00	2024-11-08T03:00:00	7	Dirección del viento	0
98639	7	Sololá	713	San Lucas Tolimán	10	San Lucas Tolimán	1	Enero	2023-03-01T00:00:00	2024-11-08T03:00:00	1	Precipitación	0
98640	7	Sololá	713	San Lucas Tolimán	10	San Lucas Tolimán	1	Enero	2023-03-01T00:00:00	2024-11-08T03:00:00	8	Radiación solar	0
98641	7	Sololá	713	San Lucas Tolimán	10	San Lucas Tolimán	1	Enero	2023-03-01T00:00:00	2024-11-08T04:00:00	2	Temperatura media	14.4
98642	7	Sololá	713	San Lucas Tolimán	10	San Lucas Tolimán	1	Enero	2023-03-01T00:00:00	2024-11-08T04:00:00	4	Temperatura máxima	14.7
98643	7	Sololá	713	San Lucas Tolimán	10	San Lucas Tolimán	1	Enero	2023-03-01T00:00:00	2024-11-08T04:00:00	3	Temperatura mínima	14.2
98644	7	Sololá	713	San Lucas Tolimán	10	San Lucas Tolimán	1	Enero	2023-03-01T00:00:00	2024-11-08T04:00:00	5	Humedad	60
98645	7	Sololá	713	San Lucas Tolimán	10	San Lucas Tolimán	1	Enero	2023-03-01T00:00:00	2024-11-08T04:00:00	6	Velocidad del viento	0
98646	7	Sololá	713	San Lucas Tolimán	10	San Lucas Tolimán	1	Enero	2023-03-01T00:00:00	2024-11-08T04:00:00	7	Dirección del viento	0
98647	7	Sololá	713	San Lucas Tolimán	10	San Lucas Tolimán	1	Enero	2023-03-01T00:00:00	2024-11-08T04:00:00	1	Precipitación	0
98648	7	Sololá	713	San Lucas Tolimán	10	San Lucas Tolimán	1	Enero	2023-03-01T00:00:00	2024-11-08T04:00:00	8	Radiación solar	0
98649	7	Sololá	713	San Lucas Tolimán	10	San Lucas Tolimán	1	Enero	2023-03-01T00:00:00	2024-11-08T05:00:00	2	Temperatura media	14.1
98650	7	Sololá	713	San Lucas Tolimán	10	San Lucas Tolimán	1	Enero	2023-03-01T00:00:00	2024-11-08T05:00:00	4	Temperatura máxima	14.5
98651	7	Sololá	713	San Lucas Tolimán	10	San Lucas Tolimán	1	Enero	2023-03-01T00:00:00	2024-11-08T05:00:00	3	Temperatura mínima	14
98652	7	Sololá	713	San Lucas Tolimán	10	San Lucas Tolimán	1	Enero	2023-03-01T00:00:00	2024-11-08T05:00:00	5	Humedad	61
98653	7	Sololá	713	San Lucas Tolimán	10	San Lucas Tolimán	1	Enero	2023-03-01T00:00:00	2024-11-08T05:00:00	6	Velocidad del viento	1.6
98654	7	Sololá	713	San Lucas Tolimán	10	San Lucas Tolimán	1	Enero	2023-03-01T00:00:00	2024-11-08T05:00:00	7	Dirección del viento	1.61
98655	7	Sololá	713	San Lucas Tolimán	10	San Lucas Tolimán	1	Enero	2023-03-01T00:00:00	2024-11-08T05:00:00	1	Precipitación	0
98656	7	Sololá	713	San Lucas Tolimán	10	San Lucas Tolimán	1	Enero	2023-03-01T00:00:00	2024-11-08T05:00:00	8	Radiación solar	0
98657	7	Sololá	713	San Lucas Tolimán	10	San Lucas Tolimán	1	Enero	2023-03-01T00:00:00	2024-11-08T06:00:00	2	Temperatura media	14.1
98658	7	Sololá	713	San Lucas Tolimán	10	San Lucas Tolimán	1	Enero	2023-03-01T00:00:00	2024-11-08T06:00:00	4	Temperatura máxima	14.4
98659	7	Sololá	713	San Lucas Tolimán	10	San Lucas Tolimán	1	Enero	2023-03-01T00:00:00	2024-11-08T06:00:00	3	Temperatura mínima	14
98660	7	Sololá	713	San Lucas Tolimán	10	San Lucas Tolimán	1	Enero	2023-03-01T00:00:00	2024-11-08T06:00:00	5	Humedad	60
98661	7	Sololá	713	San Lucas Tolimán	10	San Lucas Tolimán	1	Enero	2023-03-01T00:00:00	2024-11-08T06:00:00	6	Velocidad del viento	3.2
98662	7	Sololá	713	San Lucas Tolimán	10	San Lucas Tolimán	1	Enero	2023-03-01T00:00:00	2024-11-08T06:00:00	7	Dirección del viento	3.22
98663	7	Sololá	713	San Lucas Tolimán	10	San Lucas Tolimán	1	Enero	2023-03-01T00:00:00	2024-11-08T06:00:00	1	Precipitación	0
98664	7	Sololá	713	San Lucas Tolimán	10	San Lucas Tolimán	1	Enero	2023-03-01T00:00:00	2024-11-08T06:00:00	8	Radiación solar	0
98665	7	Sololá	713	San Lucas Tolimán	10	San Lucas Tolimán	1	Enero	2023-03-01T00:00:00	2024-11-08T07:00:00	2	Temperatura media	14
98666	7	Sololá	713	San Lucas Tolimán	10	San Lucas Tolimán	1	Enero	2023-03-01T00:00:00	2024-11-08T07:00:00	4	Temperatura máxima	14.2
98667	7	Sololá	713	San Lucas Tolimán	10	San Lucas Tolimán	1	Enero	2023-03-01T00:00:00	2024-11-08T07:00:00	3	Temperatura mínima	13.9
98668	7	Sololá	713	San Lucas Tolimán	10	San Lucas Tolimán	1	Enero	2023-03-01T00:00:00	2024-11-08T07:00:00	5	Humedad	61
98669	7	Sololá	713	San Lucas Tolimán	10	San Lucas Tolimán	1	Enero	2023-03-01T00:00:00	2024-11-08T07:00:00	6	Velocidad del viento	1.6
98670	7	Sololá	713	San Lucas Tolimán	10	San Lucas Tolimán	1	Enero	2023-03-01T00:00:00	2024-11-08T07:00:00	7	Dirección del viento	1.61
98671	7	Sololá	713	San Lucas Tolimán	10	San Lucas Tolimán	1	Enero	2023-03-01T00:00:00	2024-11-08T07:00:00	1	Precipitación	0
98672	7	Sololá	713	San Lucas Tolimán	10	San Lucas Tolimán	1	Enero	2023-03-01T00:00:00	2024-11-08T07:00:00	8	Radiación solar	7
98673	7	Sololá	713	San Lucas Tolimán	10	San Lucas Tolimán	1	Enero	2023-03-01T00:00:00	2024-11-08T08:00:00	2	Temperatura media	14.8
98674	7	Sololá	713	San Lucas Tolimán	10	San Lucas Tolimán	1	Enero	2023-03-01T00:00:00	2024-11-08T08:00:00	4	Temperatura máxima	14.8
98675	7	Sololá	713	San Lucas Tolimán	10	San Lucas Tolimán	1	Enero	2023-03-01T00:00:00	2024-11-08T08:00:00	3	Temperatura mínima	14
98676	7	Sololá	713	San Lucas Tolimán	10	San Lucas Tolimán	1	Enero	2023-03-01T00:00:00	2024-11-08T08:00:00	5	Humedad	59
98677	7	Sololá	713	San Lucas Tolimán	10	San Lucas Tolimán	1	Enero	2023-03-01T00:00:00	2024-11-08T08:00:00	6	Velocidad del viento	3.2
98678	7	Sololá	713	San Lucas Tolimán	10	San Lucas Tolimán	1	Enero	2023-03-01T00:00:00	2024-11-08T08:00:00	7	Dirección del viento	3.22
98679	7	Sololá	713	San Lucas Tolimán	10	San Lucas Tolimán	1	Enero	2023-03-01T00:00:00	2024-11-08T08:00:00	1	Precipitación	0
98680	7	Sololá	713	San Lucas Tolimán	10	San Lucas Tolimán	1	Enero	2023-03-01T00:00:00	2024-11-08T08:00:00	8	Radiación solar	50
98681	7	Sololá	713	San Lucas Tolimán	10	San Lucas Tolimán	1	Enero	2023-03-01T00:00:00	2024-11-08T09:00:00	2	Temperatura media	17.1
98682	7	Sololá	713	San Lucas Tolimán	10	San Lucas Tolimán	1	Enero	2023-03-01T00:00:00	2024-11-08T09:00:00	4	Temperatura máxima	17.1
98683	7	Sololá	713	San Lucas Tolimán	10	San Lucas Tolimán	1	Enero	2023-03-01T00:00:00	2024-11-08T09:00:00	3	Temperatura mínima	14.8
98684	7	Sololá	713	San Lucas Tolimán	10	San Lucas Tolimán	1	Enero	2023-03-01T00:00:00	2024-11-08T09:00:00	5	Humedad	56
98685	7	Sololá	713	San Lucas Tolimán	10	San Lucas Tolimán	1	Enero	2023-03-01T00:00:00	2024-11-08T09:00:00	6	Velocidad del viento	3.2
98686	7	Sololá	713	San Lucas Tolimán	10	San Lucas Tolimán	1	Enero	2023-03-01T00:00:00	2024-11-08T09:00:00	7	Dirección del viento	3.22
98687	7	Sololá	713	San Lucas Tolimán	10	San Lucas Tolimán	1	Enero	2023-03-01T00:00:00	2024-11-08T09:00:00	1	Precipitación	0
98688	7	Sololá	713	San Lucas Tolimán	10	San Lucas Tolimán	1	Enero	2023-03-01T00:00:00	2024-11-08T09:00:00	8	Radiación solar	245
98689	7	Sololá	713	San Lucas Tolimán	10	San Lucas Tolimán	1	Enero	2023-03-01T00:00:00	2024-11-08T10:00:00	2	Temperatura media	17.9
98690	7	Sololá	713	San Lucas Tolimán	10	San Lucas Tolimán	1	Enero	2023-03-01T00:00:00	2024-11-08T10:00:00	4	Temperatura máxima	18.1
98691	7	Sololá	713	San Lucas Tolimán	10	San Lucas Tolimán	1	Enero	2023-03-01T00:00:00	2024-11-08T10:00:00	3	Temperatura mínima	16.9
98692	7	Sololá	713	San Lucas Tolimán	10	San Lucas Tolimán	1	Enero	2023-03-01T00:00:00	2024-11-08T10:00:00	5	Humedad	58
98693	7	Sololá	713	San Lucas Tolimán	10	San Lucas Tolimán	1	Enero	2023-03-01T00:00:00	2024-11-08T10:00:00	6	Velocidad del viento	4.8
98694	7	Sololá	713	San Lucas Tolimán	10	San Lucas Tolimán	1	Enero	2023-03-01T00:00:00	2024-11-08T10:00:00	7	Dirección del viento	4.83
98695	7	Sololá	713	San Lucas Tolimán	10	San Lucas Tolimán	1	Enero	2023-03-01T00:00:00	2024-11-08T10:00:00	1	Precipitación	0
98696	7	Sololá	713	San Lucas Tolimán	10	San Lucas Tolimán	1	Enero	2023-03-01T00:00:00	2024-11-08T10:00:00	8	Radiación solar	355
98697	7	Sololá	713	San Lucas Tolimán	10	San Lucas Tolimán	1	Enero	2023-03-01T00:00:00	2024-11-08T11:00:00	2	Temperatura media	20.1
98698	7	Sololá	713	San Lucas Tolimán	10	San Lucas Tolimán	1	Enero	2023-03-01T00:00:00	2024-11-08T11:00:00	4	Temperatura máxima	20.1
98699	7	Sololá	713	San Lucas Tolimán	10	San Lucas Tolimán	1	Enero	2023-03-01T00:00:00	2024-11-08T11:00:00	3	Temperatura mínima	17.9
98700	7	Sololá	713	San Lucas Tolimán	10	San Lucas Tolimán	1	Enero	2023-03-01T00:00:00	2024-11-08T11:00:00	5	Humedad	52
98701	7	Sololá	713	San Lucas Tolimán	10	San Lucas Tolimán	1	Enero	2023-03-01T00:00:00	2024-11-08T11:00:00	6	Velocidad del viento	4.8
98702	7	Sololá	713	San Lucas Tolimán	10	San Lucas Tolimán	1	Enero	2023-03-01T00:00:00	2024-11-08T11:00:00	7	Dirección del viento	4.83
98703	7	Sololá	713	San Lucas Tolimán	10	San Lucas Tolimán	1	Enero	2023-03-01T00:00:00	2024-11-08T11:00:00	1	Precipitación	0
98704	7	Sololá	713	San Lucas Tolimán	10	San Lucas Tolimán	1	Enero	2023-03-01T00:00:00	2024-11-08T11:00:00	8	Radiación solar	648
98705	7	Sololá	713	San Lucas Tolimán	10	San Lucas Tolimán	1	Enero	2023-03-01T00:00:00	2024-11-08T12:00:00	2	Temperatura media	20
98706	7	Sololá	713	San Lucas Tolimán	10	San Lucas Tolimán	1	Enero	2023-03-01T00:00:00	2024-11-08T12:00:00	4	Temperatura máxima	21.3
98707	7	Sololá	713	San Lucas Tolimán	10	San Lucas Tolimán	1	Enero	2023-03-01T00:00:00	2024-11-08T12:00:00	3	Temperatura mínima	20
98708	7	Sololá	713	San Lucas Tolimán	10	San Lucas Tolimán	1	Enero	2023-03-01T00:00:00	2024-11-08T12:00:00	5	Humedad	60
98709	7	Sololá	713	San Lucas Tolimán	10	San Lucas Tolimán	1	Enero	2023-03-01T00:00:00	2024-11-08T12:00:00	6	Velocidad del viento	6.4
98710	7	Sololá	713	San Lucas Tolimán	10	San Lucas Tolimán	1	Enero	2023-03-01T00:00:00	2024-11-08T12:00:00	7	Dirección del viento	6.44
98711	7	Sololá	713	San Lucas Tolimán	10	San Lucas Tolimán	1	Enero	2023-03-01T00:00:00	2024-11-08T12:00:00	1	Precipitación	0
98712	7	Sololá	713	San Lucas Tolimán	10	San Lucas Tolimán	1	Enero	2023-03-01T00:00:00	2024-11-08T12:00:00	8	Radiación solar	468
98713	7	Sololá	713	San Lucas Tolimán	10	San Lucas Tolimán	1	Enero	2023-03-01T00:00:00	2024-11-08T13:00:00	2	Temperatura media	20.8
98714	7	Sololá	713	San Lucas Tolimán	10	San Lucas Tolimán	1	Enero	2023-03-01T00:00:00	2024-11-08T13:00:00	4	Temperatura máxima	21.2
98715	7	Sololá	713	San Lucas Tolimán	10	San Lucas Tolimán	1	Enero	2023-03-01T00:00:00	2024-11-08T13:00:00	3	Temperatura mínima	19.9
98716	7	Sololá	713	San Lucas Tolimán	10	San Lucas Tolimán	1	Enero	2023-03-01T00:00:00	2024-11-08T13:00:00	5	Humedad	59
98717	7	Sololá	713	San Lucas Tolimán	10	San Lucas Tolimán	1	Enero	2023-03-01T00:00:00	2024-11-08T13:00:00	6	Velocidad del viento	8
98718	7	Sololá	713	San Lucas Tolimán	10	San Lucas Tolimán	1	Enero	2023-03-01T00:00:00	2024-11-08T13:00:00	7	Dirección del viento	8.05
98719	7	Sololá	713	San Lucas Tolimán	10	San Lucas Tolimán	1	Enero	2023-03-01T00:00:00	2024-11-08T13:00:00	1	Precipitación	0
98720	7	Sololá	713	San Lucas Tolimán	10	San Lucas Tolimán	1	Enero	2023-03-01T00:00:00	2024-11-08T13:00:00	8	Radiación solar	489
98721	7	Sololá	713	San Lucas Tolimán	10	San Lucas Tolimán	1	Enero	2023-03-01T00:00:00	2024-11-08T14:00:00	2	Temperatura media	22.4
98722	7	Sololá	713	San Lucas Tolimán	10	San Lucas Tolimán	1	Enero	2023-03-01T00:00:00	2024-11-08T14:00:00	4	Temperatura máxima	22.8
98723	7	Sololá	713	San Lucas Tolimán	10	San Lucas Tolimán	1	Enero	2023-03-01T00:00:00	2024-11-08T14:00:00	3	Temperatura mínima	20.8
98724	7	Sololá	713	San Lucas Tolimán	10	San Lucas Tolimán	1	Enero	2023-03-01T00:00:00	2024-11-08T14:00:00	5	Humedad	57
98725	7	Sololá	713	San Lucas Tolimán	10	San Lucas Tolimán	1	Enero	2023-03-01T00:00:00	2024-11-08T14:00:00	6	Velocidad del viento	8
98726	7	Sololá	713	San Lucas Tolimán	10	San Lucas Tolimán	1	Enero	2023-03-01T00:00:00	2024-11-08T14:00:00	7	Dirección del viento	8.05
98727	7	Sololá	713	San Lucas Tolimán	10	San Lucas Tolimán	1	Enero	2023-03-01T00:00:00	2024-11-08T14:00:00	1	Precipitación	0
98728	7	Sololá	713	San Lucas Tolimán	10	San Lucas Tolimán	1	Enero	2023-03-01T00:00:00	2024-11-08T14:00:00	8	Radiación solar	779
98729	7	Sololá	713	San Lucas Tolimán	10	San Lucas Tolimán	1	Enero	2023-03-01T00:00:00	2024-11-08T15:00:00	2	Temperatura media	21.4
98730	7	Sololá	713	San Lucas Tolimán	10	San Lucas Tolimán	1	Enero	2023-03-01T00:00:00	2024-11-08T15:00:00	4	Temperatura máxima	23
98731	7	Sololá	713	San Lucas Tolimán	10	San Lucas Tolimán	1	Enero	2023-03-01T00:00:00	2024-11-08T15:00:00	3	Temperatura mínima	21
98732	7	Sololá	713	San Lucas Tolimán	10	San Lucas Tolimán	1	Enero	2023-03-01T00:00:00	2024-11-08T15:00:00	5	Humedad	61
98733	7	Sololá	713	San Lucas Tolimán	10	San Lucas Tolimán	1	Enero	2023-03-01T00:00:00	2024-11-08T15:00:00	6	Velocidad del viento	9.7
98734	7	Sololá	713	San Lucas Tolimán	10	San Lucas Tolimán	1	Enero	2023-03-01T00:00:00	2024-11-08T15:00:00	7	Dirección del viento	9.66
98735	7	Sololá	713	San Lucas Tolimán	10	San Lucas Tolimán	1	Enero	2023-03-01T00:00:00	2024-11-08T15:00:00	1	Precipitación	0
98736	7	Sololá	713	San Lucas Tolimán	10	San Lucas Tolimán	1	Enero	2023-03-01T00:00:00	2024-11-08T15:00:00	8	Radiación solar	720
98737	7	Sololá	713	San Lucas Tolimán	10	San Lucas Tolimán	1	Enero	2023-03-01T00:00:00	2024-11-08T16:00:00	2	Temperatura media	19.7
98738	7	Sololá	713	San Lucas Tolimán	10	San Lucas Tolimán	1	Enero	2023-03-01T00:00:00	2024-11-08T16:00:00	4	Temperatura máxima	22.1
98739	7	Sololá	713	San Lucas Tolimán	10	San Lucas Tolimán	1	Enero	2023-03-01T00:00:00	2024-11-08T16:00:00	3	Temperatura mínima	19.7
98740	7	Sololá	713	San Lucas Tolimán	10	San Lucas Tolimán	1	Enero	2023-03-01T00:00:00	2024-11-08T16:00:00	5	Humedad	63
98741	7	Sololá	713	San Lucas Tolimán	10	San Lucas Tolimán	1	Enero	2023-03-01T00:00:00	2024-11-08T16:00:00	6	Velocidad del viento	12.9
98742	7	Sololá	713	San Lucas Tolimán	10	San Lucas Tolimán	1	Enero	2023-03-01T00:00:00	2024-11-08T16:00:00	7	Dirección del viento	12.87
98743	7	Sololá	713	San Lucas Tolimán	10	San Lucas Tolimán	1	Enero	2023-03-01T00:00:00	2024-11-08T16:00:00	1	Precipitación	0
98744	7	Sololá	713	San Lucas Tolimán	10	San Lucas Tolimán	1	Enero	2023-03-01T00:00:00	2024-11-08T16:00:00	8	Radiación solar	458
98745	7	Sololá	713	San Lucas Tolimán	10	San Lucas Tolimán	1	Enero	2023-03-01T00:00:00	2024-11-08T17:00:00	2	Temperatura media	18.5
98746	7	Sololá	713	San Lucas Tolimán	10	San Lucas Tolimán	1	Enero	2023-03-01T00:00:00	2024-11-08T17:00:00	4	Temperatura máxima	19.6
98747	7	Sololá	713	San Lucas Tolimán	10	San Lucas Tolimán	1	Enero	2023-03-01T00:00:00	2024-11-08T17:00:00	3	Temperatura mínima	18.5
98748	7	Sololá	713	San Lucas Tolimán	10	San Lucas Tolimán	1	Enero	2023-03-01T00:00:00	2024-11-08T17:00:00	5	Humedad	61
98749	7	Sololá	713	San Lucas Tolimán	10	San Lucas Tolimán	1	Enero	2023-03-01T00:00:00	2024-11-08T17:00:00	6	Velocidad del viento	12.9
98750	7	Sololá	713	San Lucas Tolimán	10	San Lucas Tolimán	1	Enero	2023-03-01T00:00:00	2024-11-08T17:00:00	7	Dirección del viento	12.87
98751	7	Sololá	713	San Lucas Tolimán	10	San Lucas Tolimán	1	Enero	2023-03-01T00:00:00	2024-11-08T17:00:00	1	Precipitación	0
98752	7	Sololá	713	San Lucas Tolimán	10	San Lucas Tolimán	1	Enero	2023-03-01T00:00:00	2024-11-08T17:00:00	8	Radiación solar	107
98753	7	Sololá	713	San Lucas Tolimán	10	San Lucas Tolimán	1	Enero	2023-03-01T00:00:00	2024-11-08T18:00:00	2	Temperatura media	17.9
98754	7	Sololá	713	San Lucas Tolimán	10	San Lucas Tolimán	1	Enero	2023-03-01T00:00:00	2024-11-08T18:00:00	4	Temperatura máxima	18.5
98755	7	Sololá	713	San Lucas Tolimán	10	San Lucas Tolimán	1	Enero	2023-03-01T00:00:00	2024-11-08T18:00:00	3	Temperatura mínima	17.8
98756	7	Sololá	713	San Lucas Tolimán	10	San Lucas Tolimán	1	Enero	2023-03-01T00:00:00	2024-11-08T18:00:00	5	Humedad	62
98757	7	Sololá	713	San Lucas Tolimán	10	San Lucas Tolimán	1	Enero	2023-03-01T00:00:00	2024-11-08T18:00:00	6	Velocidad del viento	9.7
98758	7	Sololá	713	San Lucas Tolimán	10	San Lucas Tolimán	1	Enero	2023-03-01T00:00:00	2024-11-08T18:00:00	7	Dirección del viento	9.66
98759	7	Sololá	713	San Lucas Tolimán	10	San Lucas Tolimán	1	Enero	2023-03-01T00:00:00	2024-11-08T18:00:00	1	Precipitación	0
98760	7	Sololá	713	San Lucas Tolimán	10	San Lucas Tolimán	1	Enero	2023-03-01T00:00:00	2024-11-08T18:00:00	8	Radiación solar	18
98761	7	Sololá	713	San Lucas Tolimán	10	San Lucas Tolimán	1	Enero	2023-03-01T00:00:00	2024-11-08T19:00:00	2	Temperatura media	17.7
98762	7	Sololá	713	San Lucas Tolimán	10	San Lucas Tolimán	1	Enero	2023-03-01T00:00:00	2024-11-08T19:00:00	4	Temperatura máxima	17.9
98763	7	Sololá	713	San Lucas Tolimán	10	San Lucas Tolimán	1	Enero	2023-03-01T00:00:00	2024-11-08T19:00:00	3	Temperatura mínima	17.6
98764	7	Sololá	713	San Lucas Tolimán	10	San Lucas Tolimán	1	Enero	2023-03-01T00:00:00	2024-11-08T19:00:00	5	Humedad	63
98765	7	Sololá	713	San Lucas Tolimán	10	San Lucas Tolimán	1	Enero	2023-03-01T00:00:00	2024-11-08T19:00:00	6	Velocidad del viento	6.4
98766	7	Sololá	713	San Lucas Tolimán	10	San Lucas Tolimán	1	Enero	2023-03-01T00:00:00	2024-11-08T19:00:00	7	Dirección del viento	6.44
98767	7	Sololá	713	San Lucas Tolimán	10	San Lucas Tolimán	1	Enero	2023-03-01T00:00:00	2024-11-08T19:00:00	1	Precipitación	0
98768	7	Sololá	713	San Lucas Tolimán	10	San Lucas Tolimán	1	Enero	2023-03-01T00:00:00	2024-11-08T19:00:00	8	Radiación solar	0
98769	7	Sololá	713	San Lucas Tolimán	10	San Lucas Tolimán	1	Enero	2023-03-01T00:00:00	2024-11-08T20:00:00	2	Temperatura media	17.2
98770	7	Sololá	713	San Lucas Tolimán	10	San Lucas Tolimán	1	Enero	2023-03-01T00:00:00	2024-11-08T20:00:00	4	Temperatura máxima	17.7
98771	7	Sololá	713	San Lucas Tolimán	10	San Lucas Tolimán	1	Enero	2023-03-01T00:00:00	2024-11-08T20:00:00	3	Temperatura mínima	17.2
98772	7	Sololá	713	San Lucas Tolimán	10	San Lucas Tolimán	1	Enero	2023-03-01T00:00:00	2024-11-08T20:00:00	5	Humedad	65
98773	7	Sololá	713	San Lucas Tolimán	10	San Lucas Tolimán	1	Enero	2023-03-01T00:00:00	2024-11-08T20:00:00	6	Velocidad del viento	4.8
98774	7	Sololá	713	San Lucas Tolimán	10	San Lucas Tolimán	1	Enero	2023-03-01T00:00:00	2024-11-08T20:00:00	7	Dirección del viento	4.83
98775	7	Sololá	713	San Lucas Tolimán	10	San Lucas Tolimán	1	Enero	2023-03-01T00:00:00	2024-11-08T20:00:00	1	Precipitación	0
98776	7	Sololá	713	San Lucas Tolimán	10	San Lucas Tolimán	1	Enero	2023-03-01T00:00:00	2024-11-08T20:00:00	8	Radiación solar	0
98777	7	Sololá	713	San Lucas Tolimán	10	San Lucas Tolimán	1	Enero	2023-03-01T00:00:00	2024-11-08T21:00:00	2	Temperatura media	16.6
98778	7	Sololá	713	San Lucas Tolimán	10	San Lucas Tolimán	1	Enero	2023-03-01T00:00:00	2024-11-08T21:00:00	4	Temperatura máxima	17.2
98779	7	Sololá	713	San Lucas Tolimán	10	San Lucas Tolimán	1	Enero	2023-03-01T00:00:00	2024-11-08T21:00:00	3	Temperatura mínima	16.6
98780	7	Sololá	713	San Lucas Tolimán	10	San Lucas Tolimán	1	Enero	2023-03-01T00:00:00	2024-11-08T21:00:00	5	Humedad	66
98781	7	Sololá	713	San Lucas Tolimán	10	San Lucas Tolimán	1	Enero	2023-03-01T00:00:00	2024-11-08T21:00:00	6	Velocidad del viento	4.8
98782	7	Sololá	713	San Lucas Tolimán	10	San Lucas Tolimán	1	Enero	2023-03-01T00:00:00	2024-11-08T21:00:00	7	Dirección del viento	4.83
98783	7	Sololá	713	San Lucas Tolimán	10	San Lucas Tolimán	1	Enero	2023-03-01T00:00:00	2024-11-08T21:00:00	1	Precipitación	0
98784	7	Sololá	713	San Lucas Tolimán	10	San Lucas Tolimán	1	Enero	2023-03-01T00:00:00	2024-11-08T21:00:00	8	Radiación solar	0
98785	7	Sololá	713	San Lucas Tolimán	10	San Lucas Tolimán	1	Enero	2023-03-01T00:00:00	2024-11-08T22:00:00	2	Temperatura media	16.4
98786	7	Sololá	713	San Lucas Tolimán	10	San Lucas Tolimán	1	Enero	2023-03-01T00:00:00	2024-11-08T22:00:00	4	Temperatura máxima	16.7
98787	7	Sololá	713	San Lucas Tolimán	10	San Lucas Tolimán	1	Enero	2023-03-01T00:00:00	2024-11-08T22:00:00	3	Temperatura mínima	16.4
98788	7	Sololá	713	San Lucas Tolimán	10	San Lucas Tolimán	1	Enero	2023-03-01T00:00:00	2024-11-08T22:00:00	5	Humedad	69
98789	7	Sololá	713	San Lucas Tolimán	10	San Lucas Tolimán	1	Enero	2023-03-01T00:00:00	2024-11-08T22:00:00	6	Velocidad del viento	4.8
98790	7	Sololá	713	San Lucas Tolimán	10	San Lucas Tolimán	1	Enero	2023-03-01T00:00:00	2024-11-08T22:00:00	7	Dirección del viento	4.83
98791	7	Sololá	713	San Lucas Tolimán	10	San Lucas Tolimán	1	Enero	2023-03-01T00:00:00	2024-11-08T22:00:00	1	Precipitación	0
98792	7	Sololá	713	San Lucas Tolimán	10	San Lucas Tolimán	1	Enero	2023-03-01T00:00:00	2024-11-08T22:00:00	8	Radiación solar	0
98793	7	Sololá	713	San Lucas Tolimán	10	San Lucas Tolimán	1	Enero	2023-03-01T00:00:00	2024-11-08T23:00:00	2	Temperatura media	16
98794	7	Sololá	713	San Lucas Tolimán	10	San Lucas Tolimán	1	Enero	2023-03-01T00:00:00	2024-11-08T23:00:00	4	Temperatura máxima	16.4
98795	7	Sololá	713	San Lucas Tolimán	10	San Lucas Tolimán	1	Enero	2023-03-01T00:00:00	2024-11-08T23:00:00	3	Temperatura mínima	16
98796	7	Sololá	713	San Lucas Tolimán	10	San Lucas Tolimán	1	Enero	2023-03-01T00:00:00	2024-11-08T23:00:00	5	Humedad	69
98797	7	Sololá	713	San Lucas Tolimán	10	San Lucas Tolimán	1	Enero	2023-03-01T00:00:00	2024-11-08T23:00:00	6	Velocidad del viento	3.2
98798	7	Sololá	713	San Lucas Tolimán	10	San Lucas Tolimán	1	Enero	2023-03-01T00:00:00	2024-11-08T23:00:00	7	Dirección del viento	3.22
98799	7	Sololá	713	San Lucas Tolimán	10	San Lucas Tolimán	1	Enero	2023-03-01T00:00:00	2024-11-08T23:00:00	1	Precipitación	0
98800	7	Sololá	713	San Lucas Tolimán	10	San Lucas Tolimán	1	Enero	2023-03-01T00:00:00	2024-11-08T23:00:00	8	Radiación solar	0
98801	7	Sololá	713	San Lucas Tolimán	10	San Lucas Tolimán	1	Enero	2023-04-01T00:00:00	2024-11-08T00:00:00	2	Temperatura media	15.4
98802	7	Sololá	713	San Lucas Tolimán	10	San Lucas Tolimán	1	Enero	2023-04-01T00:00:00	2024-11-08T00:00:00	4	Temperatura máxima	16
98803	7	Sololá	713	San Lucas Tolimán	10	San Lucas Tolimán	1	Enero	2023-04-01T00:00:00	2024-11-08T00:00:00	3	Temperatura mínima	15.3
98804	7	Sololá	713	San Lucas Tolimán	10	San Lucas Tolimán	1	Enero	2023-04-01T00:00:00	2024-11-08T00:00:00	5	Humedad	65
98805	7	Sololá	713	San Lucas Tolimán	10	San Lucas Tolimán	1	Enero	2023-04-01T00:00:00	2024-11-08T00:00:00	6	Velocidad del viento	3.2
98806	7	Sololá	713	San Lucas Tolimán	10	San Lucas Tolimán	1	Enero	2023-04-01T00:00:00	2024-11-08T00:00:00	7	Dirección del viento	3.22
98807	7	Sololá	713	San Lucas Tolimán	10	San Lucas Tolimán	1	Enero	2023-04-01T00:00:00	2024-11-08T00:00:00	1	Precipitación	0
98808	7	Sololá	713	San Lucas Tolimán	10	San Lucas Tolimán	1	Enero	2023-04-01T00:00:00	2024-11-08T00:00:00	8	Radiación solar	0
98809	7	Sololá	713	San Lucas Tolimán	10	San Lucas Tolimán	1	Enero	2023-04-01T00:00:00	2024-11-08T01:00:00	2	Temperatura media	15.3
98810	7	Sololá	713	San Lucas Tolimán	10	San Lucas Tolimán	1	Enero	2023-04-01T00:00:00	2024-11-08T01:00:00	4	Temperatura máxima	15.4
98811	7	Sololá	713	San Lucas Tolimán	10	San Lucas Tolimán	1	Enero	2023-04-01T00:00:00	2024-11-08T01:00:00	3	Temperatura mínima	15
98812	7	Sololá	713	San Lucas Tolimán	10	San Lucas Tolimán	1	Enero	2023-04-01T00:00:00	2024-11-08T01:00:00	5	Humedad	65
98813	7	Sololá	713	San Lucas Tolimán	10	San Lucas Tolimán	1	Enero	2023-04-01T00:00:00	2024-11-08T01:00:00	6	Velocidad del viento	1.6
98814	7	Sololá	713	San Lucas Tolimán	10	San Lucas Tolimán	1	Enero	2023-04-01T00:00:00	2024-11-08T01:00:00	7	Dirección del viento	1.61
98815	7	Sololá	713	San Lucas Tolimán	10	San Lucas Tolimán	1	Enero	2023-04-01T00:00:00	2024-11-08T01:00:00	1	Precipitación	0
98816	7	Sololá	713	San Lucas Tolimán	10	San Lucas Tolimán	1	Enero	2023-04-01T00:00:00	2024-11-08T01:00:00	8	Radiación solar	0
98817	7	Sololá	713	San Lucas Tolimán	10	San Lucas Tolimán	1	Enero	2023-04-01T00:00:00	2024-11-08T02:00:00	2	Temperatura media	15.4
98818	7	Sololá	713	San Lucas Tolimán	10	San Lucas Tolimán	1	Enero	2023-04-01T00:00:00	2024-11-08T02:00:00	4	Temperatura máxima	15.5
98819	7	Sololá	713	San Lucas Tolimán	10	San Lucas Tolimán	1	Enero	2023-04-01T00:00:00	2024-11-08T02:00:00	3	Temperatura mínima	15.1
98820	7	Sololá	713	San Lucas Tolimán	10	San Lucas Tolimán	1	Enero	2023-04-01T00:00:00	2024-11-08T02:00:00	5	Humedad	64
98821	7	Sololá	713	San Lucas Tolimán	10	San Lucas Tolimán	1	Enero	2023-04-01T00:00:00	2024-11-08T02:00:00	6	Velocidad del viento	3.2
98822	7	Sololá	713	San Lucas Tolimán	10	San Lucas Tolimán	1	Enero	2023-04-01T00:00:00	2024-11-08T02:00:00	7	Dirección del viento	3.22
98823	7	Sololá	713	San Lucas Tolimán	10	San Lucas Tolimán	1	Enero	2023-04-01T00:00:00	2024-11-08T02:00:00	1	Precipitación	0
98824	7	Sololá	713	San Lucas Tolimán	10	San Lucas Tolimán	1	Enero	2023-04-01T00:00:00	2024-11-08T02:00:00	8	Radiación solar	0
98825	7	Sololá	713	San Lucas Tolimán	10	San Lucas Tolimán	1	Enero	2023-04-01T00:00:00	2024-11-08T03:00:00	2	Temperatura media	15.3
98826	7	Sololá	713	San Lucas Tolimán	10	San Lucas Tolimán	1	Enero	2023-04-01T00:00:00	2024-11-08T03:00:00	4	Temperatura máxima	15.6
98827	7	Sololá	713	San Lucas Tolimán	10	San Lucas Tolimán	1	Enero	2023-04-01T00:00:00	2024-11-08T03:00:00	3	Temperatura mínima	15.1
98828	7	Sololá	713	San Lucas Tolimán	10	San Lucas Tolimán	1	Enero	2023-04-01T00:00:00	2024-11-08T03:00:00	5	Humedad	65
98829	7	Sololá	713	San Lucas Tolimán	10	San Lucas Tolimán	1	Enero	2023-04-01T00:00:00	2024-11-08T03:00:00	6	Velocidad del viento	1.6
98830	7	Sololá	713	San Lucas Tolimán	10	San Lucas Tolimán	1	Enero	2023-04-01T00:00:00	2024-11-08T03:00:00	7	Dirección del viento	1.61
98831	7	Sololá	713	San Lucas Tolimán	10	San Lucas Tolimán	1	Enero	2023-04-01T00:00:00	2024-11-08T03:00:00	1	Precipitación	0
98832	7	Sololá	713	San Lucas Tolimán	10	San Lucas Tolimán	1	Enero	2023-04-01T00:00:00	2024-11-08T03:00:00	8	Radiación solar	0
98833	7	Sololá	713	San Lucas Tolimán	10	San Lucas Tolimán	1	Enero	2023-04-01T00:00:00	2024-11-08T04:00:00	2	Temperatura media	14.8
98834	7	Sololá	713	San Lucas Tolimán	10	San Lucas Tolimán	1	Enero	2023-04-01T00:00:00	2024-11-08T04:00:00	4	Temperatura máxima	15.6
98835	7	Sololá	713	San Lucas Tolimán	10	San Lucas Tolimán	1	Enero	2023-04-01T00:00:00	2024-11-08T04:00:00	3	Temperatura mínima	14.8
98836	7	Sololá	713	San Lucas Tolimán	10	San Lucas Tolimán	1	Enero	2023-04-01T00:00:00	2024-11-08T04:00:00	5	Humedad	63
98837	7	Sololá	713	San Lucas Tolimán	10	San Lucas Tolimán	1	Enero	2023-04-01T00:00:00	2024-11-08T04:00:00	6	Velocidad del viento	1.6
98838	7	Sololá	713	San Lucas Tolimán	10	San Lucas Tolimán	1	Enero	2023-04-01T00:00:00	2024-11-08T04:00:00	7	Dirección del viento	1.61
98839	7	Sololá	713	San Lucas Tolimán	10	San Lucas Tolimán	1	Enero	2023-04-01T00:00:00	2024-11-08T04:00:00	1	Precipitación	0
98840	7	Sololá	713	San Lucas Tolimán	10	San Lucas Tolimán	1	Enero	2023-04-01T00:00:00	2024-11-08T04:00:00	8	Radiación solar	0
98841	7	Sololá	713	San Lucas Tolimán	10	San Lucas Tolimán	1	Enero	2023-04-01T00:00:00	2024-11-08T05:00:00	2	Temperatura media	14.8
98842	7	Sololá	713	San Lucas Tolimán	10	San Lucas Tolimán	1	Enero	2023-04-01T00:00:00	2024-11-08T05:00:00	4	Temperatura máxima	14.9
98843	7	Sololá	713	San Lucas Tolimán	10	San Lucas Tolimán	1	Enero	2023-04-01T00:00:00	2024-11-08T05:00:00	3	Temperatura mínima	14.6
98844	7	Sololá	713	San Lucas Tolimán	10	San Lucas Tolimán	1	Enero	2023-04-01T00:00:00	2024-11-08T05:00:00	5	Humedad	62
98845	7	Sololá	713	San Lucas Tolimán	10	San Lucas Tolimán	1	Enero	2023-04-01T00:00:00	2024-11-08T05:00:00	6	Velocidad del viento	1.6
98846	7	Sololá	713	San Lucas Tolimán	10	San Lucas Tolimán	1	Enero	2023-04-01T00:00:00	2024-11-08T05:00:00	7	Dirección del viento	1.61
98847	7	Sololá	713	San Lucas Tolimán	10	San Lucas Tolimán	1	Enero	2023-04-01T00:00:00	2024-11-08T05:00:00	1	Precipitación	0
98848	7	Sololá	713	San Lucas Tolimán	10	San Lucas Tolimán	1	Enero	2023-04-01T00:00:00	2024-11-08T05:00:00	8	Radiación solar	0
98849	7	Sololá	713	San Lucas Tolimán	10	San Lucas Tolimán	1	Enero	2023-04-01T00:00:00	2024-11-08T06:00:00	2	Temperatura media	14.7
98850	7	Sololá	713	San Lucas Tolimán	10	San Lucas Tolimán	1	Enero	2023-04-01T00:00:00	2024-11-08T06:00:00	4	Temperatura máxima	14.8
98851	7	Sololá	713	San Lucas Tolimán	10	San Lucas Tolimán	1	Enero	2023-04-01T00:00:00	2024-11-08T06:00:00	3	Temperatura mínima	14.3
98852	7	Sololá	713	San Lucas Tolimán	10	San Lucas Tolimán	1	Enero	2023-04-01T00:00:00	2024-11-08T06:00:00	5	Humedad	61
98853	7	Sololá	713	San Lucas Tolimán	10	San Lucas Tolimán	1	Enero	2023-04-01T00:00:00	2024-11-08T06:00:00	6	Velocidad del viento	1.6
98854	7	Sololá	713	San Lucas Tolimán	10	San Lucas Tolimán	1	Enero	2023-04-01T00:00:00	2024-11-08T06:00:00	7	Dirección del viento	1.61
98855	7	Sololá	713	San Lucas Tolimán	10	San Lucas Tolimán	1	Enero	2023-04-01T00:00:00	2024-11-08T06:00:00	1	Precipitación	0
98856	7	Sololá	713	San Lucas Tolimán	10	San Lucas Tolimán	1	Enero	2023-04-01T00:00:00	2024-11-08T06:00:00	8	Radiación solar	0
98857	7	Sololá	713	San Lucas Tolimán	10	San Lucas Tolimán	1	Enero	2023-04-01T00:00:00	2024-11-08T07:00:00	2	Temperatura media	14.1
98858	7	Sololá	713	San Lucas Tolimán	10	San Lucas Tolimán	1	Enero	2023-04-01T00:00:00	2024-11-08T07:00:00	4	Temperatura máxima	14.7
98859	7	Sololá	713	San Lucas Tolimán	10	San Lucas Tolimán	1	Enero	2023-04-01T00:00:00	2024-11-08T07:00:00	3	Temperatura mínima	14.1
98860	7	Sololá	713	San Lucas Tolimán	10	San Lucas Tolimán	1	Enero	2023-04-01T00:00:00	2024-11-08T07:00:00	5	Humedad	63
98861	7	Sololá	713	San Lucas Tolimán	10	San Lucas Tolimán	1	Enero	2023-04-01T00:00:00	2024-11-08T07:00:00	6	Velocidad del viento	1.6
98862	7	Sololá	713	San Lucas Tolimán	10	San Lucas Tolimán	1	Enero	2023-04-01T00:00:00	2024-11-08T07:00:00	7	Dirección del viento	1.61
98863	7	Sololá	713	San Lucas Tolimán	10	San Lucas Tolimán	1	Enero	2023-04-01T00:00:00	2024-11-08T07:00:00	1	Precipitación	0
98864	7	Sololá	713	San Lucas Tolimán	10	San Lucas Tolimán	1	Enero	2023-04-01T00:00:00	2024-11-08T07:00:00	8	Radiación solar	4
98865	7	Sololá	713	San Lucas Tolimán	10	San Lucas Tolimán	1	Enero	2023-04-01T00:00:00	2024-11-08T08:00:00	2	Temperatura media	14.8
98866	7	Sololá	713	San Lucas Tolimán	10	San Lucas Tolimán	1	Enero	2023-04-01T00:00:00	2024-11-08T08:00:00	4	Temperatura máxima	14.8
98867	7	Sololá	713	San Lucas Tolimán	10	San Lucas Tolimán	1	Enero	2023-04-01T00:00:00	2024-11-08T08:00:00	3	Temperatura mínima	14.1
98868	7	Sololá	713	San Lucas Tolimán	10	San Lucas Tolimán	1	Enero	2023-04-01T00:00:00	2024-11-08T08:00:00	5	Humedad	62
98869	7	Sololá	713	San Lucas Tolimán	10	San Lucas Tolimán	1	Enero	2023-04-01T00:00:00	2024-11-08T08:00:00	6	Velocidad del viento	1.6
98870	7	Sololá	713	San Lucas Tolimán	10	San Lucas Tolimán	1	Enero	2023-04-01T00:00:00	2024-11-08T08:00:00	7	Dirección del viento	1.61
98871	7	Sololá	713	San Lucas Tolimán	10	San Lucas Tolimán	1	Enero	2023-04-01T00:00:00	2024-11-08T08:00:00	1	Precipitación	0
98872	7	Sololá	713	San Lucas Tolimán	10	San Lucas Tolimán	1	Enero	2023-04-01T00:00:00	2024-11-08T08:00:00	8	Radiación solar	24
98873	7	Sololá	713	San Lucas Tolimán	10	San Lucas Tolimán	1	Enero	2023-04-01T00:00:00	2024-11-08T09:00:00	2	Temperatura media	17.2
98874	7	Sololá	713	San Lucas Tolimán	10	San Lucas Tolimán	1	Enero	2023-04-01T00:00:00	2024-11-08T09:00:00	4	Temperatura máxima	17.2
98875	7	Sololá	713	San Lucas Tolimán	10	San Lucas Tolimán	1	Enero	2023-04-01T00:00:00	2024-11-08T09:00:00	3	Temperatura mínima	14.8
98876	7	Sololá	713	San Lucas Tolimán	10	San Lucas Tolimán	1	Enero	2023-04-01T00:00:00	2024-11-08T09:00:00	5	Humedad	59
98877	7	Sololá	713	San Lucas Tolimán	10	San Lucas Tolimán	1	Enero	2023-04-01T00:00:00	2024-11-08T09:00:00	6	Velocidad del viento	4.8
98878	7	Sololá	713	San Lucas Tolimán	10	San Lucas Tolimán	1	Enero	2023-04-01T00:00:00	2024-11-08T09:00:00	7	Dirección del viento	4.83
98879	7	Sololá	713	San Lucas Tolimán	10	San Lucas Tolimán	1	Enero	2023-04-01T00:00:00	2024-11-08T09:00:00	1	Precipitación	0
98880	7	Sololá	713	San Lucas Tolimán	10	San Lucas Tolimán	1	Enero	2023-04-01T00:00:00	2024-11-08T09:00:00	8	Radiación solar	278
98881	7	Sololá	713	San Lucas Tolimán	10	San Lucas Tolimán	1	Enero	2023-04-01T00:00:00	2024-11-08T10:00:00	2	Temperatura media	19.4
98882	7	Sololá	713	San Lucas Tolimán	10	San Lucas Tolimán	1	Enero	2023-04-01T00:00:00	2024-11-08T10:00:00	4	Temperatura máxima	19.4
98883	7	Sololá	713	San Lucas Tolimán	10	San Lucas Tolimán	1	Enero	2023-04-01T00:00:00	2024-11-08T10:00:00	3	Temperatura mínima	17.2
98884	7	Sololá	713	San Lucas Tolimán	10	San Lucas Tolimán	1	Enero	2023-04-01T00:00:00	2024-11-08T10:00:00	5	Humedad	56
98885	7	Sololá	713	San Lucas Tolimán	10	San Lucas Tolimán	1	Enero	2023-04-01T00:00:00	2024-11-08T10:00:00	6	Velocidad del viento	4.8
98886	7	Sololá	713	San Lucas Tolimán	10	San Lucas Tolimán	1	Enero	2023-04-01T00:00:00	2024-11-08T10:00:00	7	Dirección del viento	4.83
98887	7	Sololá	713	San Lucas Tolimán	10	San Lucas Tolimán	1	Enero	2023-04-01T00:00:00	2024-11-08T10:00:00	1	Precipitación	0
98888	7	Sololá	713	San Lucas Tolimán	10	San Lucas Tolimán	1	Enero	2023-04-01T00:00:00	2024-11-08T10:00:00	8	Radiación solar	592
98889	7	Sololá	713	San Lucas Tolimán	10	San Lucas Tolimán	1	Enero	2023-04-01T00:00:00	2024-11-08T11:00:00	2	Temperatura media	22.3
98890	7	Sololá	713	San Lucas Tolimán	10	San Lucas Tolimán	1	Enero	2023-04-01T00:00:00	2024-11-08T11:00:00	4	Temperatura máxima	22.3
98891	7	Sololá	713	San Lucas Tolimán	10	San Lucas Tolimán	1	Enero	2023-04-01T00:00:00	2024-11-08T11:00:00	3	Temperatura mínima	19.2
98892	7	Sololá	713	San Lucas Tolimán	10	San Lucas Tolimán	1	Enero	2023-04-01T00:00:00	2024-11-08T11:00:00	5	Humedad	55
98893	7	Sololá	713	San Lucas Tolimán	10	San Lucas Tolimán	1	Enero	2023-04-01T00:00:00	2024-11-08T11:00:00	6	Velocidad del viento	4.8
98894	7	Sololá	713	San Lucas Tolimán	10	San Lucas Tolimán	1	Enero	2023-04-01T00:00:00	2024-11-08T11:00:00	7	Dirección del viento	4.83
98895	7	Sololá	713	San Lucas Tolimán	10	San Lucas Tolimán	1	Enero	2023-04-01T00:00:00	2024-11-08T11:00:00	1	Precipitación	0
98896	7	Sololá	713	San Lucas Tolimán	10	San Lucas Tolimán	1	Enero	2023-04-01T00:00:00	2024-11-08T11:00:00	8	Radiación solar	758
98897	7	Sololá	713	San Lucas Tolimán	10	San Lucas Tolimán	1	Enero	2023-04-01T00:00:00	2024-11-08T12:00:00	2	Temperatura media	21.2
98898	7	Sololá	713	San Lucas Tolimán	10	San Lucas Tolimán	1	Enero	2023-04-01T00:00:00	2024-11-08T12:00:00	4	Temperatura máxima	22.3
98899	7	Sololá	713	San Lucas Tolimán	10	San Lucas Tolimán	1	Enero	2023-04-01T00:00:00	2024-11-08T12:00:00	3	Temperatura mínima	21.2
98900	7	Sololá	713	San Lucas Tolimán	10	San Lucas Tolimán	1	Enero	2023-04-01T00:00:00	2024-11-08T12:00:00	5	Humedad	57
98901	7	Sololá	713	San Lucas Tolimán	10	San Lucas Tolimán	1	Enero	2023-04-01T00:00:00	2024-11-08T12:00:00	6	Velocidad del viento	11.3
98902	7	Sololá	713	San Lucas Tolimán	10	San Lucas Tolimán	1	Enero	2023-04-01T00:00:00	2024-11-08T12:00:00	7	Dirección del viento	11.27
98903	7	Sololá	713	San Lucas Tolimán	10	San Lucas Tolimán	1	Enero	2023-04-01T00:00:00	2024-11-08T12:00:00	1	Precipitación	0
98904	7	Sololá	713	San Lucas Tolimán	10	San Lucas Tolimán	1	Enero	2023-04-01T00:00:00	2024-11-08T12:00:00	8	Radiación solar	877
98905	7	Sololá	713	San Lucas Tolimán	10	San Lucas Tolimán	1	Enero	2023-04-01T00:00:00	2024-11-08T13:00:00	2	Temperatura media	20.8
98906	7	Sololá	713	San Lucas Tolimán	10	San Lucas Tolimán	1	Enero	2023-04-01T00:00:00	2024-11-08T13:00:00	4	Temperatura máxima	21.3
98907	7	Sololá	713	San Lucas Tolimán	10	San Lucas Tolimán	1	Enero	2023-04-01T00:00:00	2024-11-08T13:00:00	3	Temperatura mínima	20.3
98908	7	Sololá	713	San Lucas Tolimán	10	San Lucas Tolimán	1	Enero	2023-04-01T00:00:00	2024-11-08T13:00:00	5	Humedad	62
98909	7	Sololá	713	San Lucas Tolimán	10	San Lucas Tolimán	1	Enero	2023-04-01T00:00:00	2024-11-08T13:00:00	6	Velocidad del viento	14.5
98910	7	Sololá	713	San Lucas Tolimán	10	San Lucas Tolimán	1	Enero	2023-04-01T00:00:00	2024-11-08T13:00:00	7	Dirección del viento	14.48
98911	7	Sololá	713	San Lucas Tolimán	10	San Lucas Tolimán	1	Enero	2023-04-01T00:00:00	2024-11-08T13:00:00	1	Precipitación	0
98912	7	Sololá	713	San Lucas Tolimán	10	San Lucas Tolimán	1	Enero	2023-04-01T00:00:00	2024-11-08T13:00:00	8	Radiación solar	743
98913	7	Sololá	713	San Lucas Tolimán	10	San Lucas Tolimán	1	Enero	2023-04-01T00:00:00	2024-11-08T14:00:00	2	Temperatura media	20.5
98914	7	Sololá	713	San Lucas Tolimán	10	San Lucas Tolimán	1	Enero	2023-04-01T00:00:00	2024-11-08T14:00:00	4	Temperatura máxima	21.4
98915	7	Sololá	713	San Lucas Tolimán	10	San Lucas Tolimán	1	Enero	2023-04-01T00:00:00	2024-11-08T14:00:00	3	Temperatura mínima	20
98916	7	Sololá	713	San Lucas Tolimán	10	San Lucas Tolimán	1	Enero	2023-04-01T00:00:00	2024-11-08T14:00:00	5	Humedad	62
98917	7	Sololá	713	San Lucas Tolimán	10	San Lucas Tolimán	1	Enero	2023-04-01T00:00:00	2024-11-08T14:00:00	6	Velocidad del viento	9.7
98918	7	Sololá	713	San Lucas Tolimán	10	San Lucas Tolimán	1	Enero	2023-04-01T00:00:00	2024-11-08T14:00:00	7	Dirección del viento	9.66
98919	7	Sololá	713	San Lucas Tolimán	10	San Lucas Tolimán	1	Enero	2023-04-01T00:00:00	2024-11-08T14:00:00	1	Precipitación	0
98920	7	Sololá	713	San Lucas Tolimán	10	San Lucas Tolimán	1	Enero	2023-04-01T00:00:00	2024-11-08T14:00:00	8	Radiación solar	410
98921	7	Sololá	713	San Lucas Tolimán	10	San Lucas Tolimán	1	Enero	2023-04-01T00:00:00	2024-11-08T15:00:00	2	Temperatura media	20.8
98922	7	Sololá	713	San Lucas Tolimán	10	San Lucas Tolimán	1	Enero	2023-04-01T00:00:00	2024-11-08T15:00:00	4	Temperatura máxima	21.2
98923	7	Sololá	713	San Lucas Tolimán	10	San Lucas Tolimán	1	Enero	2023-04-01T00:00:00	2024-11-08T15:00:00	3	Temperatura mínima	20.1
98924	7	Sololá	713	San Lucas Tolimán	10	San Lucas Tolimán	1	Enero	2023-04-01T00:00:00	2024-11-08T15:00:00	5	Humedad	61
98925	7	Sololá	713	San Lucas Tolimán	10	San Lucas Tolimán	1	Enero	2023-04-01T00:00:00	2024-11-08T15:00:00	6	Velocidad del viento	11.3
98926	7	Sololá	713	San Lucas Tolimán	10	San Lucas Tolimán	1	Enero	2023-04-01T00:00:00	2024-11-08T15:00:00	7	Dirección del viento	11.27
98927	7	Sololá	713	San Lucas Tolimán	10	San Lucas Tolimán	1	Enero	2023-04-01T00:00:00	2024-11-08T15:00:00	1	Precipitación	0
98928	7	Sololá	713	San Lucas Tolimán	10	San Lucas Tolimán	1	Enero	2023-04-01T00:00:00	2024-11-08T15:00:00	8	Radiación solar	480
98929	7	Sololá	713	San Lucas Tolimán	10	San Lucas Tolimán	1	Enero	2023-04-01T00:00:00	2024-11-08T16:00:00	2	Temperatura media	19.7
98930	7	Sololá	713	San Lucas Tolimán	10	San Lucas Tolimán	1	Enero	2023-04-01T00:00:00	2024-11-08T16:00:00	4	Temperatura máxima	20.8
98931	7	Sololá	713	San Lucas Tolimán	10	San Lucas Tolimán	1	Enero	2023-04-01T00:00:00	2024-11-08T16:00:00	3	Temperatura mínima	19.7
98932	7	Sololá	713	San Lucas Tolimán	10	San Lucas Tolimán	1	Enero	2023-04-01T00:00:00	2024-11-08T16:00:00	5	Humedad	65
98933	7	Sololá	713	San Lucas Tolimán	10	San Lucas Tolimán	1	Enero	2023-04-01T00:00:00	2024-11-08T16:00:00	6	Velocidad del viento	12.9
98934	7	Sololá	713	San Lucas Tolimán	10	San Lucas Tolimán	1	Enero	2023-04-01T00:00:00	2024-11-08T16:00:00	7	Dirección del viento	12.87
98935	7	Sololá	713	San Lucas Tolimán	10	San Lucas Tolimán	1	Enero	2023-04-01T00:00:00	2024-11-08T16:00:00	1	Precipitación	0
98936	7	Sololá	713	San Lucas Tolimán	10	San Lucas Tolimán	1	Enero	2023-04-01T00:00:00	2024-11-08T16:00:00	8	Radiación solar	288
98937	7	Sololá	713	San Lucas Tolimán	10	San Lucas Tolimán	1	Enero	2023-04-01T00:00:00	2024-11-08T17:00:00	2	Temperatura media	18.8
98938	7	Sololá	713	San Lucas Tolimán	10	San Lucas Tolimán	1	Enero	2023-04-01T00:00:00	2024-11-08T17:00:00	4	Temperatura máxima	19.7
98939	7	Sololá	713	San Lucas Tolimán	10	San Lucas Tolimán	1	Enero	2023-04-01T00:00:00	2024-11-08T17:00:00	3	Temperatura mínima	18.8
98940	7	Sololá	713	San Lucas Tolimán	10	San Lucas Tolimán	1	Enero	2023-04-01T00:00:00	2024-11-08T17:00:00	5	Humedad	64
98941	7	Sololá	713	San Lucas Tolimán	10	San Lucas Tolimán	1	Enero	2023-04-01T00:00:00	2024-11-08T17:00:00	6	Velocidad del viento	11.3
98942	7	Sololá	713	San Lucas Tolimán	10	San Lucas Tolimán	1	Enero	2023-04-01T00:00:00	2024-11-08T17:00:00	7	Dirección del viento	11.27
98943	7	Sololá	713	San Lucas Tolimán	10	San Lucas Tolimán	1	Enero	2023-04-01T00:00:00	2024-11-08T17:00:00	1	Precipitación	0
98944	7	Sololá	713	San Lucas Tolimán	10	San Lucas Tolimán	1	Enero	2023-04-01T00:00:00	2024-11-08T17:00:00	8	Radiación solar	97
98945	7	Sololá	713	San Lucas Tolimán	10	San Lucas Tolimán	1	Enero	2023-04-01T00:00:00	2024-11-08T18:00:00	2	Temperatura media	18.1
98946	7	Sololá	713	San Lucas Tolimán	10	San Lucas Tolimán	1	Enero	2023-04-01T00:00:00	2024-11-08T18:00:00	4	Temperatura máxima	18.8
98947	7	Sololá	713	San Lucas Tolimán	10	San Lucas Tolimán	1	Enero	2023-04-01T00:00:00	2024-11-08T18:00:00	3	Temperatura mínima	18.1
98948	7	Sololá	713	San Lucas Tolimán	10	San Lucas Tolimán	1	Enero	2023-04-01T00:00:00	2024-11-08T18:00:00	5	Humedad	64
98949	7	Sololá	713	San Lucas Tolimán	10	San Lucas Tolimán	1	Enero	2023-04-01T00:00:00	2024-11-08T18:00:00	6	Velocidad del viento	8
98950	7	Sololá	713	San Lucas Tolimán	10	San Lucas Tolimán	1	Enero	2023-04-01T00:00:00	2024-11-08T18:00:00	7	Dirección del viento	8.05
98951	7	Sololá	713	San Lucas Tolimán	10	San Lucas Tolimán	1	Enero	2023-04-01T00:00:00	2024-11-08T18:00:00	1	Precipitación	0
98952	7	Sololá	713	San Lucas Tolimán	10	San Lucas Tolimán	1	Enero	2023-04-01T00:00:00	2024-11-08T18:00:00	8	Radiación solar	12
98953	7	Sololá	713	San Lucas Tolimán	10	San Lucas Tolimán	1	Enero	2023-04-01T00:00:00	2024-11-08T19:00:00	2	Temperatura media	16.3
98954	7	Sololá	713	San Lucas Tolimán	10	San Lucas Tolimán	1	Enero	2023-04-01T00:00:00	2024-11-08T19:00:00	4	Temperatura máxima	18.1
98955	7	Sololá	713	San Lucas Tolimán	10	San Lucas Tolimán	1	Enero	2023-04-01T00:00:00	2024-11-08T19:00:00	3	Temperatura mínima	16.3
98956	7	Sololá	713	San Lucas Tolimán	10	San Lucas Tolimán	1	Enero	2023-04-01T00:00:00	2024-11-08T19:00:00	5	Humedad	62
98957	7	Sololá	713	San Lucas Tolimán	10	San Lucas Tolimán	1	Enero	2023-04-01T00:00:00	2024-11-08T19:00:00	6	Velocidad del viento	6.4
98958	7	Sololá	713	San Lucas Tolimán	10	San Lucas Tolimán	1	Enero	2023-04-01T00:00:00	2024-11-08T19:00:00	7	Dirección del viento	6.44
98959	7	Sololá	713	San Lucas Tolimán	10	San Lucas Tolimán	1	Enero	2023-04-01T00:00:00	2024-11-08T19:00:00	1	Precipitación	0
98960	7	Sololá	713	San Lucas Tolimán	10	San Lucas Tolimán	1	Enero	2023-04-01T00:00:00	2024-11-08T19:00:00	8	Radiación solar	0
98961	7	Sololá	713	San Lucas Tolimán	10	San Lucas Tolimán	1	Enero	2023-04-01T00:00:00	2024-11-08T20:00:00	2	Temperatura media	16.5
98962	7	Sololá	713	San Lucas Tolimán	10	San Lucas Tolimán	1	Enero	2023-04-01T00:00:00	2024-11-08T20:00:00	4	Temperatura máxima	16.5
98963	7	Sololá	713	San Lucas Tolimán	10	San Lucas Tolimán	1	Enero	2023-04-01T00:00:00	2024-11-08T20:00:00	3	Temperatura mínima	16.1
98964	7	Sololá	713	San Lucas Tolimán	10	San Lucas Tolimán	1	Enero	2023-04-01T00:00:00	2024-11-08T20:00:00	5	Humedad	53
98965	7	Sololá	713	San Lucas Tolimán	10	San Lucas Tolimán	1	Enero	2023-04-01T00:00:00	2024-11-08T20:00:00	6	Velocidad del viento	3.2
98966	7	Sololá	713	San Lucas Tolimán	10	San Lucas Tolimán	1	Enero	2023-04-01T00:00:00	2024-11-08T20:00:00	7	Dirección del viento	3.22
98967	7	Sololá	713	San Lucas Tolimán	10	San Lucas Tolimán	1	Enero	2023-04-01T00:00:00	2024-11-08T20:00:00	1	Precipitación	0
98968	7	Sololá	713	San Lucas Tolimán	10	San Lucas Tolimán	1	Enero	2023-04-01T00:00:00	2024-11-08T20:00:00	8	Radiación solar	0
98969	7	Sololá	713	San Lucas Tolimán	10	San Lucas Tolimán	1	Enero	2023-04-01T00:00:00	2024-11-08T21:00:00	2	Temperatura media	14.7
98970	7	Sololá	713	San Lucas Tolimán	10	San Lucas Tolimán	1	Enero	2023-04-01T00:00:00	2024-11-08T21:00:00	4	Temperatura máxima	16.6
98971	7	Sololá	713	San Lucas Tolimán	10	San Lucas Tolimán	1	Enero	2023-04-01T00:00:00	2024-11-08T21:00:00	3	Temperatura mínima	14.6
98972	7	Sololá	713	San Lucas Tolimán	10	San Lucas Tolimán	1	Enero	2023-04-01T00:00:00	2024-11-08T21:00:00	5	Humedad	59
98973	7	Sololá	713	San Lucas Tolimán	10	San Lucas Tolimán	1	Enero	2023-04-01T00:00:00	2024-11-08T21:00:00	6	Velocidad del viento	3.2
98974	7	Sololá	713	San Lucas Tolimán	10	San Lucas Tolimán	1	Enero	2023-04-01T00:00:00	2024-11-08T21:00:00	7	Dirección del viento	3.22
98975	7	Sololá	713	San Lucas Tolimán	10	San Lucas Tolimán	1	Enero	2023-04-01T00:00:00	2024-11-08T21:00:00	1	Precipitación	0
98976	7	Sololá	713	San Lucas Tolimán	10	San Lucas Tolimán	1	Enero	2023-04-01T00:00:00	2024-11-08T21:00:00	8	Radiación solar	0
98977	7	Sololá	713	San Lucas Tolimán	10	San Lucas Tolimán	1	Enero	2023-04-01T00:00:00	2024-11-08T22:00:00	2	Temperatura media	15.7
98978	7	Sololá	713	San Lucas Tolimán	10	San Lucas Tolimán	1	Enero	2023-04-01T00:00:00	2024-11-08T22:00:00	4	Temperatura máxima	15.7
98979	7	Sololá	713	San Lucas Tolimán	10	San Lucas Tolimán	1	Enero	2023-04-01T00:00:00	2024-11-08T22:00:00	3	Temperatura mínima	14.3
98980	7	Sololá	713	San Lucas Tolimán	10	San Lucas Tolimán	1	Enero	2023-04-01T00:00:00	2024-11-08T22:00:00	5	Humedad	51
98981	7	Sololá	713	San Lucas Tolimán	10	San Lucas Tolimán	1	Enero	2023-04-01T00:00:00	2024-11-08T22:00:00	6	Velocidad del viento	1.6
98982	7	Sololá	713	San Lucas Tolimán	10	San Lucas Tolimán	1	Enero	2023-04-01T00:00:00	2024-11-08T22:00:00	7	Dirección del viento	1.61
98983	7	Sololá	713	San Lucas Tolimán	10	San Lucas Tolimán	1	Enero	2023-04-01T00:00:00	2024-11-08T22:00:00	1	Precipitación	0
98984	7	Sololá	713	San Lucas Tolimán	10	San Lucas Tolimán	1	Enero	2023-04-01T00:00:00	2024-11-08T22:00:00	8	Radiación solar	0
98985	7	Sololá	713	San Lucas Tolimán	10	San Lucas Tolimán	1	Enero	2023-04-01T00:00:00	2024-11-08T23:00:00	2	Temperatura media	16.3
98986	7	Sololá	713	San Lucas Tolimán	10	San Lucas Tolimán	1	Enero	2023-04-01T00:00:00	2024-11-08T23:00:00	4	Temperatura máxima	16.8
98987	7	Sololá	713	San Lucas Tolimán	10	San Lucas Tolimán	1	Enero	2023-04-01T00:00:00	2024-11-08T23:00:00	3	Temperatura mínima	15.7
98988	7	Sololá	713	San Lucas Tolimán	10	San Lucas Tolimán	1	Enero	2023-04-01T00:00:00	2024-11-08T23:00:00	5	Humedad	50
98989	7	Sololá	713	San Lucas Tolimán	10	San Lucas Tolimán	1	Enero	2023-04-01T00:00:00	2024-11-08T23:00:00	6	Velocidad del viento	3.2
98990	7	Sololá	713	San Lucas Tolimán	10	San Lucas Tolimán	1	Enero	2023-04-01T00:00:00	2024-11-08T23:00:00	7	Dirección del viento	3.22
98991	7	Sololá	713	San Lucas Tolimán	10	San Lucas Tolimán	1	Enero	2023-04-01T00:00:00	2024-11-08T23:00:00	1	Precipitación	0
98992	7	Sololá	713	San Lucas Tolimán	10	San Lucas Tolimán	1	Enero	2023-04-01T00:00:00	2024-11-08T23:00:00	8	Radiación solar	0
98993	7	Sololá	713	San Lucas Tolimán	10	San Lucas Tolimán	1	Enero	2023-05-01T00:00:00	2024-11-08T00:00:00	2	Temperatura media	16.8
98994	7	Sololá	713	San Lucas Tolimán	10	San Lucas Tolimán	1	Enero	2023-05-01T00:00:00	2024-11-08T00:00:00	4	Temperatura máxima	17.1
98995	7	Sololá	713	San Lucas Tolimán	10	San Lucas Tolimán	1	Enero	2023-05-01T00:00:00	2024-11-08T00:00:00	3	Temperatura mínima	16.2
98996	7	Sololá	713	San Lucas Tolimán	10	San Lucas Tolimán	1	Enero	2023-05-01T00:00:00	2024-11-08T00:00:00	5	Humedad	45
98997	7	Sololá	713	San Lucas Tolimán	10	San Lucas Tolimán	1	Enero	2023-05-01T00:00:00	2024-11-08T00:00:00	6	Velocidad del viento	4.8
98998	7	Sololá	713	San Lucas Tolimán	10	San Lucas Tolimán	1	Enero	2023-05-01T00:00:00	2024-11-08T00:00:00	7	Dirección del viento	4.83
98999	7	Sololá	713	San Lucas Tolimán	10	San Lucas Tolimán	1	Enero	2023-05-01T00:00:00	2024-11-08T00:00:00	1	Precipitación	0
99000	7	Sololá	713	San Lucas Tolimán	10	San Lucas Tolimán	1	Enero	2023-05-01T00:00:00	2024-11-08T00:00:00	8	Radiación solar	0
99001	7	Sololá	713	San Lucas Tolimán	10	San Lucas Tolimán	1	Enero	2023-05-01T00:00:00	2024-11-08T01:00:00	2	Temperatura media	16.3
99002	7	Sololá	713	San Lucas Tolimán	10	San Lucas Tolimán	1	Enero	2023-05-01T00:00:00	2024-11-08T01:00:00	4	Temperatura máxima	16.9
99003	7	Sololá	713	San Lucas Tolimán	10	San Lucas Tolimán	1	Enero	2023-05-01T00:00:00	2024-11-08T01:00:00	3	Temperatura mínima	16.3
99004	7	Sololá	713	San Lucas Tolimán	10	San Lucas Tolimán	1	Enero	2023-05-01T00:00:00	2024-11-08T01:00:00	5	Humedad	44
99005	7	Sololá	713	San Lucas Tolimán	10	San Lucas Tolimán	1	Enero	2023-05-01T00:00:00	2024-11-08T01:00:00	6	Velocidad del viento	1.6
99006	7	Sololá	713	San Lucas Tolimán	10	San Lucas Tolimán	1	Enero	2023-05-01T00:00:00	2024-11-08T01:00:00	7	Dirección del viento	1.61
99007	7	Sololá	713	San Lucas Tolimán	10	San Lucas Tolimán	1	Enero	2023-05-01T00:00:00	2024-11-08T01:00:00	1	Precipitación	0
99008	7	Sololá	713	San Lucas Tolimán	10	San Lucas Tolimán	1	Enero	2023-05-01T00:00:00	2024-11-08T01:00:00	8	Radiación solar	0
99009	7	Sololá	713	San Lucas Tolimán	10	San Lucas Tolimán	1	Enero	2023-05-01T00:00:00	2024-11-08T02:00:00	2	Temperatura media	13.8
99010	7	Sololá	713	San Lucas Tolimán	10	San Lucas Tolimán	1	Enero	2023-05-01T00:00:00	2024-11-08T02:00:00	4	Temperatura máxima	16.3
99011	7	Sololá	713	San Lucas Tolimán	10	San Lucas Tolimán	1	Enero	2023-05-01T00:00:00	2024-11-08T02:00:00	3	Temperatura mínima	13.8
99012	7	Sololá	713	San Lucas Tolimán	10	San Lucas Tolimán	1	Enero	2023-05-01T00:00:00	2024-11-08T02:00:00	5	Humedad	53
99013	7	Sololá	713	San Lucas Tolimán	10	San Lucas Tolimán	1	Enero	2023-05-01T00:00:00	2024-11-08T02:00:00	6	Velocidad del viento	1.6
99014	7	Sololá	713	San Lucas Tolimán	10	San Lucas Tolimán	1	Enero	2023-05-01T00:00:00	2024-11-08T02:00:00	7	Dirección del viento	1.61
99015	7	Sololá	713	San Lucas Tolimán	10	San Lucas Tolimán	1	Enero	2023-05-01T00:00:00	2024-11-08T02:00:00	1	Precipitación	0
99016	7	Sololá	713	San Lucas Tolimán	10	San Lucas Tolimán	1	Enero	2023-05-01T00:00:00	2024-11-08T02:00:00	8	Radiación solar	0
99017	7	Sololá	713	San Lucas Tolimán	10	San Lucas Tolimán	1	Enero	2023-05-01T00:00:00	2024-11-08T03:00:00	2	Temperatura media	13.7
99018	7	Sololá	713	San Lucas Tolimán	10	San Lucas Tolimán	1	Enero	2023-05-01T00:00:00	2024-11-08T03:00:00	4	Temperatura máxima	13.8
99019	7	Sololá	713	San Lucas Tolimán	10	San Lucas Tolimán	1	Enero	2023-05-01T00:00:00	2024-11-08T03:00:00	3	Temperatura mínima	13.3
99020	7	Sololá	713	San Lucas Tolimán	10	San Lucas Tolimán	1	Enero	2023-05-01T00:00:00	2024-11-08T03:00:00	5	Humedad	54
99021	7	Sololá	713	San Lucas Tolimán	10	San Lucas Tolimán	1	Enero	2023-05-01T00:00:00	2024-11-08T03:00:00	6	Velocidad del viento	3.2
99022	7	Sololá	713	San Lucas Tolimán	10	San Lucas Tolimán	1	Enero	2023-05-01T00:00:00	2024-11-08T03:00:00	7	Dirección del viento	3.22
99023	7	Sololá	713	San Lucas Tolimán	10	San Lucas Tolimán	1	Enero	2023-05-01T00:00:00	2024-11-08T03:00:00	1	Precipitación	0
99024	7	Sololá	713	San Lucas Tolimán	10	San Lucas Tolimán	1	Enero	2023-05-01T00:00:00	2024-11-08T03:00:00	8	Radiación solar	0
99025	7	Sololá	713	San Lucas Tolimán	10	San Lucas Tolimán	1	Enero	2023-05-01T00:00:00	2024-11-08T04:00:00	2	Temperatura media	14.4
99026	7	Sololá	713	San Lucas Tolimán	10	San Lucas Tolimán	1	Enero	2023-05-01T00:00:00	2024-11-08T04:00:00	4	Temperatura máxima	14.4
99027	7	Sololá	713	San Lucas Tolimán	10	San Lucas Tolimán	1	Enero	2023-05-01T00:00:00	2024-11-08T04:00:00	3	Temperatura mínima	13.7
99028	7	Sololá	713	San Lucas Tolimán	10	San Lucas Tolimán	1	Enero	2023-05-01T00:00:00	2024-11-08T04:00:00	5	Humedad	52
99029	7	Sololá	713	San Lucas Tolimán	10	San Lucas Tolimán	1	Enero	2023-05-01T00:00:00	2024-11-08T04:00:00	6	Velocidad del viento	3.2
99030	7	Sololá	713	San Lucas Tolimán	10	San Lucas Tolimán	1	Enero	2023-05-01T00:00:00	2024-11-08T04:00:00	7	Dirección del viento	3.22
99031	7	Sololá	713	San Lucas Tolimán	10	San Lucas Tolimán	1	Enero	2023-05-01T00:00:00	2024-11-08T04:00:00	1	Precipitación	0
99032	7	Sololá	713	San Lucas Tolimán	10	San Lucas Tolimán	1	Enero	2023-05-01T00:00:00	2024-11-08T04:00:00	8	Radiación solar	0
99033	7	Sololá	713	San Lucas Tolimán	10	San Lucas Tolimán	1	Enero	2023-05-01T00:00:00	2024-11-08T05:00:00	2	Temperatura media	15.7
99034	7	Sololá	713	San Lucas Tolimán	10	San Lucas Tolimán	1	Enero	2023-05-01T00:00:00	2024-11-08T05:00:00	4	Temperatura máxima	15.7
99035	7	Sololá	713	San Lucas Tolimán	10	San Lucas Tolimán	1	Enero	2023-05-01T00:00:00	2024-11-08T05:00:00	3	Temperatura mínima	13.6
99036	7	Sololá	713	San Lucas Tolimán	10	San Lucas Tolimán	1	Enero	2023-05-01T00:00:00	2024-11-08T05:00:00	5	Humedad	49
99037	7	Sololá	713	San Lucas Tolimán	10	San Lucas Tolimán	1	Enero	2023-05-01T00:00:00	2024-11-08T05:00:00	6	Velocidad del viento	1.6
99038	7	Sololá	713	San Lucas Tolimán	10	San Lucas Tolimán	1	Enero	2023-05-01T00:00:00	2024-11-08T05:00:00	7	Dirección del viento	1.61
99039	7	Sololá	713	San Lucas Tolimán	10	San Lucas Tolimán	1	Enero	2023-05-01T00:00:00	2024-11-08T05:00:00	1	Precipitación	0
99040	7	Sololá	713	San Lucas Tolimán	10	San Lucas Tolimán	1	Enero	2023-05-01T00:00:00	2024-11-08T05:00:00	8	Radiación solar	0
99041	7	Sololá	713	San Lucas Tolimán	10	San Lucas Tolimán	1	Enero	2023-05-01T00:00:00	2024-11-08T06:00:00	2	Temperatura media	17.2
99042	7	Sololá	713	San Lucas Tolimán	10	San Lucas Tolimán	1	Enero	2023-05-01T00:00:00	2024-11-08T06:00:00	4	Temperatura máxima	17.2
99043	7	Sololá	713	San Lucas Tolimán	10	San Lucas Tolimán	1	Enero	2023-05-01T00:00:00	2024-11-08T06:00:00	3	Temperatura mínima	15.5
99044	7	Sololá	713	San Lucas Tolimán	10	San Lucas Tolimán	1	Enero	2023-05-01T00:00:00	2024-11-08T06:00:00	5	Humedad	49
99045	7	Sololá	713	San Lucas Tolimán	10	San Lucas Tolimán	1	Enero	2023-05-01T00:00:00	2024-11-08T06:00:00	6	Velocidad del viento	4.8
99046	7	Sololá	713	San Lucas Tolimán	10	San Lucas Tolimán	1	Enero	2023-05-01T00:00:00	2024-11-08T06:00:00	7	Dirección del viento	4.83
99047	7	Sololá	713	San Lucas Tolimán	10	San Lucas Tolimán	1	Enero	2023-05-01T00:00:00	2024-11-08T06:00:00	1	Precipitación	0
99048	7	Sololá	713	San Lucas Tolimán	10	San Lucas Tolimán	1	Enero	2023-05-01T00:00:00	2024-11-08T06:00:00	8	Radiación solar	0
99049	7	Sololá	713	San Lucas Tolimán	10	San Lucas Tolimán	1	Enero	2023-05-01T00:00:00	2024-11-08T07:00:00	2	Temperatura media	17.4
99050	7	Sololá	713	San Lucas Tolimán	10	San Lucas Tolimán	1	Enero	2023-05-01T00:00:00	2024-11-08T07:00:00	4	Temperatura máxima	17.5
99051	7	Sololá	713	San Lucas Tolimán	10	San Lucas Tolimán	1	Enero	2023-05-01T00:00:00	2024-11-08T07:00:00	3	Temperatura mínima	17.1
99052	7	Sololá	713	San Lucas Tolimán	10	San Lucas Tolimán	1	Enero	2023-05-01T00:00:00	2024-11-08T07:00:00	5	Humedad	54
99053	7	Sololá	713	San Lucas Tolimán	10	San Lucas Tolimán	1	Enero	2023-05-01T00:00:00	2024-11-08T07:00:00	6	Velocidad del viento	3.2
99054	7	Sololá	713	San Lucas Tolimán	10	San Lucas Tolimán	1	Enero	2023-05-01T00:00:00	2024-11-08T07:00:00	7	Dirección del viento	3.22
99055	7	Sololá	713	San Lucas Tolimán	10	San Lucas Tolimán	1	Enero	2023-05-01T00:00:00	2024-11-08T07:00:00	1	Precipitación	0
99056	7	Sololá	713	San Lucas Tolimán	10	San Lucas Tolimán	1	Enero	2023-05-01T00:00:00	2024-11-08T07:00:00	8	Radiación solar	3
99057	7	Sololá	713	San Lucas Tolimán	10	San Lucas Tolimán	1	Enero	2023-05-01T00:00:00	2024-11-08T08:00:00	2	Temperatura media	17.6
99058	7	Sololá	713	San Lucas Tolimán	10	San Lucas Tolimán	1	Enero	2023-05-01T00:00:00	2024-11-08T08:00:00	4	Temperatura máxima	17.6
99059	7	Sololá	713	San Lucas Tolimán	10	San Lucas Tolimán	1	Enero	2023-05-01T00:00:00	2024-11-08T08:00:00	3	Temperatura mínima	17.4
99060	7	Sololá	713	San Lucas Tolimán	10	San Lucas Tolimán	1	Enero	2023-05-01T00:00:00	2024-11-08T08:00:00	5	Humedad	57
99061	7	Sololá	713	San Lucas Tolimán	10	San Lucas Tolimán	1	Enero	2023-05-01T00:00:00	2024-11-08T08:00:00	6	Velocidad del viento	4.8
99062	7	Sololá	713	San Lucas Tolimán	10	San Lucas Tolimán	1	Enero	2023-05-01T00:00:00	2024-11-08T08:00:00	7	Dirección del viento	4.83
99063	7	Sololá	713	San Lucas Tolimán	10	San Lucas Tolimán	1	Enero	2023-05-01T00:00:00	2024-11-08T08:00:00	1	Precipitación	0
99064	7	Sololá	713	San Lucas Tolimán	10	San Lucas Tolimán	1	Enero	2023-05-01T00:00:00	2024-11-08T08:00:00	8	Radiación solar	45
99065	7	Sololá	713	San Lucas Tolimán	10	San Lucas Tolimán	1	Enero	2023-05-01T00:00:00	2024-11-08T09:00:00	2	Temperatura media	17.9
99066	7	Sololá	713	San Lucas Tolimán	10	San Lucas Tolimán	1	Enero	2023-05-01T00:00:00	2024-11-08T09:00:00	4	Temperatura máxima	17.9
99067	7	Sololá	713	San Lucas Tolimán	10	San Lucas Tolimán	1	Enero	2023-05-01T00:00:00	2024-11-08T09:00:00	3	Temperatura mínima	17.6
99068	7	Sololá	713	San Lucas Tolimán	10	San Lucas Tolimán	1	Enero	2023-05-01T00:00:00	2024-11-08T09:00:00	5	Humedad	56
99069	7	Sololá	713	San Lucas Tolimán	10	San Lucas Tolimán	1	Enero	2023-05-01T00:00:00	2024-11-08T09:00:00	6	Velocidad del viento	8
99070	7	Sololá	713	San Lucas Tolimán	10	San Lucas Tolimán	1	Enero	2023-05-01T00:00:00	2024-11-08T09:00:00	7	Dirección del viento	8.05
99071	7	Sololá	713	San Lucas Tolimán	10	San Lucas Tolimán	1	Enero	2023-05-01T00:00:00	2024-11-08T09:00:00	1	Precipitación	0
99072	7	Sololá	713	San Lucas Tolimán	10	San Lucas Tolimán	1	Enero	2023-05-01T00:00:00	2024-11-08T09:00:00	8	Radiación solar	128
99073	7	Sololá	713	San Lucas Tolimán	10	San Lucas Tolimán	1	Enero	2023-05-01T00:00:00	2024-11-08T10:00:00	2	Temperatura media	18.6
99074	7	Sololá	713	San Lucas Tolimán	10	San Lucas Tolimán	1	Enero	2023-05-01T00:00:00	2024-11-08T10:00:00	4	Temperatura máxima	18.8
99075	7	Sololá	713	San Lucas Tolimán	10	San Lucas Tolimán	1	Enero	2023-05-01T00:00:00	2024-11-08T10:00:00	3	Temperatura mínima	17.9
99076	7	Sololá	713	San Lucas Tolimán	10	San Lucas Tolimán	1	Enero	2023-05-01T00:00:00	2024-11-08T10:00:00	5	Humedad	49
99077	7	Sololá	713	San Lucas Tolimán	10	San Lucas Tolimán	1	Enero	2023-05-01T00:00:00	2024-11-08T10:00:00	6	Velocidad del viento	8
99078	7	Sololá	713	San Lucas Tolimán	10	San Lucas Tolimán	1	Enero	2023-05-01T00:00:00	2024-11-08T10:00:00	7	Dirección del viento	8.05
99079	7	Sololá	713	San Lucas Tolimán	10	San Lucas Tolimán	1	Enero	2023-05-01T00:00:00	2024-11-08T10:00:00	1	Precipitación	0
99080	7	Sololá	713	San Lucas Tolimán	10	San Lucas Tolimán	1	Enero	2023-05-01T00:00:00	2024-11-08T10:00:00	8	Radiación solar	163
99081	7	Sololá	713	San Lucas Tolimán	10	San Lucas Tolimán	1	Enero	2023-05-01T00:00:00	2024-11-08T11:00:00	2	Temperatura media	20.4
99082	7	Sololá	713	San Lucas Tolimán	10	San Lucas Tolimán	1	Enero	2023-05-01T00:00:00	2024-11-08T11:00:00	4	Temperatura máxima	20.4
99083	7	Sololá	713	San Lucas Tolimán	10	San Lucas Tolimán	1	Enero	2023-05-01T00:00:00	2024-11-08T11:00:00	3	Temperatura mínima	18.6
99084	7	Sololá	713	San Lucas Tolimán	10	San Lucas Tolimán	1	Enero	2023-05-01T00:00:00	2024-11-08T11:00:00	5	Humedad	43
99085	7	Sololá	713	San Lucas Tolimán	10	San Lucas Tolimán	1	Enero	2023-05-01T00:00:00	2024-11-08T11:00:00	6	Velocidad del viento	11.3
99086	7	Sololá	713	San Lucas Tolimán	10	San Lucas Tolimán	1	Enero	2023-05-01T00:00:00	2024-11-08T11:00:00	7	Dirección del viento	11.27
99087	7	Sololá	713	San Lucas Tolimán	10	San Lucas Tolimán	1	Enero	2023-05-01T00:00:00	2024-11-08T11:00:00	1	Precipitación	0
99088	7	Sololá	713	San Lucas Tolimán	10	San Lucas Tolimán	1	Enero	2023-05-01T00:00:00	2024-11-08T11:00:00	8	Radiación solar	260
99089	7	Sololá	713	San Lucas Tolimán	10	San Lucas Tolimán	1	Enero	2023-05-01T00:00:00	2024-11-08T12:00:00	2	Temperatura media	20.4
99090	7	Sololá	713	San Lucas Tolimán	10	San Lucas Tolimán	1	Enero	2023-05-01T00:00:00	2024-11-08T12:00:00	4	Temperatura máxima	20.9
99091	7	Sololá	713	San Lucas Tolimán	10	San Lucas Tolimán	1	Enero	2023-05-01T00:00:00	2024-11-08T12:00:00	3	Temperatura mínima	20.3
99092	7	Sololá	713	San Lucas Tolimán	10	San Lucas Tolimán	1	Enero	2023-05-01T00:00:00	2024-11-08T12:00:00	5	Humedad	44
99093	7	Sololá	713	San Lucas Tolimán	10	San Lucas Tolimán	1	Enero	2023-05-01T00:00:00	2024-11-08T12:00:00	6	Velocidad del viento	11.3
99094	7	Sololá	713	San Lucas Tolimán	10	San Lucas Tolimán	1	Enero	2023-05-01T00:00:00	2024-11-08T12:00:00	7	Dirección del viento	11.27
99095	7	Sololá	713	San Lucas Tolimán	10	San Lucas Tolimán	1	Enero	2023-05-01T00:00:00	2024-11-08T12:00:00	1	Precipitación	0
99096	7	Sololá	713	San Lucas Tolimán	10	San Lucas Tolimán	1	Enero	2023-05-01T00:00:00	2024-11-08T12:00:00	8	Radiación solar	319
99097	7	Sololá	713	San Lucas Tolimán	10	San Lucas Tolimán	1	Enero	2023-05-01T00:00:00	2024-11-08T13:00:00	2	Temperatura media	20.6
99098	7	Sololá	713	San Lucas Tolimán	10	San Lucas Tolimán	1	Enero	2023-05-01T00:00:00	2024-11-08T13:00:00	4	Temperatura máxima	20.6
99099	7	Sololá	713	San Lucas Tolimán	10	San Lucas Tolimán	1	Enero	2023-05-01T00:00:00	2024-11-08T13:00:00	3	Temperatura mínima	20.3
99100	7	Sololá	713	San Lucas Tolimán	10	San Lucas Tolimán	1	Enero	2023-05-01T00:00:00	2024-11-08T13:00:00	5	Humedad	44
99101	7	Sololá	713	San Lucas Tolimán	10	San Lucas Tolimán	1	Enero	2023-05-01T00:00:00	2024-11-08T13:00:00	6	Velocidad del viento	9.7
99102	7	Sololá	713	San Lucas Tolimán	10	San Lucas Tolimán	1	Enero	2023-05-01T00:00:00	2024-11-08T13:00:00	7	Dirección del viento	9.66
99103	7	Sololá	713	San Lucas Tolimán	10	San Lucas Tolimán	1	Enero	2023-05-01T00:00:00	2024-11-08T13:00:00	1	Precipitación	0
99104	7	Sololá	713	San Lucas Tolimán	10	San Lucas Tolimán	1	Enero	2023-05-01T00:00:00	2024-11-08T13:00:00	8	Radiación solar	218
99105	7	Sololá	713	San Lucas Tolimán	10	San Lucas Tolimán	1	Enero	2023-05-01T00:00:00	2024-11-08T14:00:00	2	Temperatura media	20.2
99106	7	Sololá	713	San Lucas Tolimán	10	San Lucas Tolimán	1	Enero	2023-05-01T00:00:00	2024-11-08T14:00:00	4	Temperatura máxima	20.6
99107	7	Sololá	713	San Lucas Tolimán	10	San Lucas Tolimán	1	Enero	2023-05-01T00:00:00	2024-11-08T14:00:00	3	Temperatura mínima	20.1
99108	7	Sololá	713	San Lucas Tolimán	10	San Lucas Tolimán	1	Enero	2023-05-01T00:00:00	2024-11-08T14:00:00	5	Humedad	45
99109	7	Sololá	713	San Lucas Tolimán	10	San Lucas Tolimán	1	Enero	2023-05-01T00:00:00	2024-11-08T14:00:00	6	Velocidad del viento	11.3
99110	7	Sololá	713	San Lucas Tolimán	10	San Lucas Tolimán	1	Enero	2023-05-01T00:00:00	2024-11-08T14:00:00	7	Dirección del viento	11.27
99111	7	Sololá	713	San Lucas Tolimán	10	San Lucas Tolimán	1	Enero	2023-05-01T00:00:00	2024-11-08T14:00:00	1	Precipitación	0
99112	7	Sololá	713	San Lucas Tolimán	10	San Lucas Tolimán	1	Enero	2023-05-01T00:00:00	2024-11-08T14:00:00	8	Radiación solar	215
99113	7	Sololá	713	San Lucas Tolimán	10	San Lucas Tolimán	1	Enero	2023-05-01T00:00:00	2024-11-08T15:00:00	2	Temperatura media	19.2
99114	7	Sololá	713	San Lucas Tolimán	10	San Lucas Tolimán	1	Enero	2023-05-01T00:00:00	2024-11-08T15:00:00	4	Temperatura máxima	20.2
99115	7	Sololá	713	San Lucas Tolimán	10	San Lucas Tolimán	1	Enero	2023-05-01T00:00:00	2024-11-08T15:00:00	3	Temperatura mínima	19.2
99116	7	Sololá	713	San Lucas Tolimán	10	San Lucas Tolimán	1	Enero	2023-05-01T00:00:00	2024-11-08T15:00:00	5	Humedad	51
99117	7	Sololá	713	San Lucas Tolimán	10	San Lucas Tolimán	1	Enero	2023-05-01T00:00:00	2024-11-08T15:00:00	6	Velocidad del viento	12.9
99118	7	Sololá	713	San Lucas Tolimán	10	San Lucas Tolimán	1	Enero	2023-05-01T00:00:00	2024-11-08T15:00:00	7	Dirección del viento	12.87
99119	7	Sololá	713	San Lucas Tolimán	10	San Lucas Tolimán	1	Enero	2023-05-01T00:00:00	2024-11-08T15:00:00	1	Precipitación	0
99120	7	Sololá	713	San Lucas Tolimán	10	San Lucas Tolimán	1	Enero	2023-05-01T00:00:00	2024-11-08T15:00:00	8	Radiación solar	141
99121	7	Sololá	713	San Lucas Tolimán	10	San Lucas Tolimán	1	Enero	2023-05-01T00:00:00	2024-11-08T16:00:00	2	Temperatura media	19.3
99122	7	Sololá	713	San Lucas Tolimán	10	San Lucas Tolimán	1	Enero	2023-05-01T00:00:00	2024-11-08T16:00:00	4	Temperatura máxima	19.4
99123	7	Sololá	713	San Lucas Tolimán	10	San Lucas Tolimán	1	Enero	2023-05-01T00:00:00	2024-11-08T16:00:00	3	Temperatura mínima	19.1
99124	7	Sololá	713	San Lucas Tolimán	10	San Lucas Tolimán	1	Enero	2023-05-01T00:00:00	2024-11-08T16:00:00	5	Humedad	49
99125	7	Sololá	713	San Lucas Tolimán	10	San Lucas Tolimán	1	Enero	2023-05-01T00:00:00	2024-11-08T16:00:00	6	Velocidad del viento	11.3
99126	7	Sololá	713	San Lucas Tolimán	10	San Lucas Tolimán	1	Enero	2023-05-01T00:00:00	2024-11-08T16:00:00	7	Dirección del viento	11.27
99127	7	Sololá	713	San Lucas Tolimán	10	San Lucas Tolimán	1	Enero	2023-05-01T00:00:00	2024-11-08T16:00:00	1	Precipitación	0
99128	7	Sololá	713	San Lucas Tolimán	10	San Lucas Tolimán	1	Enero	2023-05-01T00:00:00	2024-11-08T16:00:00	8	Radiación solar	172
99129	7	Sololá	713	San Lucas Tolimán	10	San Lucas Tolimán	1	Enero	2023-05-01T00:00:00	2024-11-08T17:00:00	2	Temperatura media	18.2
99130	7	Sololá	713	San Lucas Tolimán	10	San Lucas Tolimán	1	Enero	2023-05-01T00:00:00	2024-11-08T17:00:00	4	Temperatura máxima	19.7
99131	7	Sololá	713	San Lucas Tolimán	10	San Lucas Tolimán	1	Enero	2023-05-01T00:00:00	2024-11-08T17:00:00	3	Temperatura mínima	18.2
99132	7	Sololá	713	San Lucas Tolimán	10	San Lucas Tolimán	1	Enero	2023-05-01T00:00:00	2024-11-08T17:00:00	5	Humedad	55
99133	7	Sololá	713	San Lucas Tolimán	10	San Lucas Tolimán	1	Enero	2023-05-01T00:00:00	2024-11-08T17:00:00	6	Velocidad del viento	11.3
99134	7	Sololá	713	San Lucas Tolimán	10	San Lucas Tolimán	1	Enero	2023-05-01T00:00:00	2024-11-08T17:00:00	7	Dirección del viento	11.27
99135	7	Sololá	713	San Lucas Tolimán	10	San Lucas Tolimán	1	Enero	2023-05-01T00:00:00	2024-11-08T17:00:00	1	Precipitación	0
99136	7	Sololá	713	San Lucas Tolimán	10	San Lucas Tolimán	1	Enero	2023-05-01T00:00:00	2024-11-08T17:00:00	8	Radiación solar	125
99137	7	Sololá	713	San Lucas Tolimán	10	San Lucas Tolimán	1	Enero	2023-05-01T00:00:00	2024-11-08T18:00:00	2	Temperatura media	17.8
99138	7	Sololá	713	San Lucas Tolimán	10	San Lucas Tolimán	1	Enero	2023-05-01T00:00:00	2024-11-08T18:00:00	4	Temperatura máxima	18.2
99139	7	Sololá	713	San Lucas Tolimán	10	San Lucas Tolimán	1	Enero	2023-05-01T00:00:00	2024-11-08T18:00:00	3	Temperatura mínima	17.8
99140	7	Sololá	713	San Lucas Tolimán	10	San Lucas Tolimán	1	Enero	2023-05-01T00:00:00	2024-11-08T18:00:00	5	Humedad	53
99141	7	Sololá	713	San Lucas Tolimán	10	San Lucas Tolimán	1	Enero	2023-05-01T00:00:00	2024-11-08T18:00:00	6	Velocidad del viento	11.3
99142	7	Sololá	713	San Lucas Tolimán	10	San Lucas Tolimán	1	Enero	2023-05-01T00:00:00	2024-11-08T18:00:00	7	Dirección del viento	11.27
99143	7	Sololá	713	San Lucas Tolimán	10	San Lucas Tolimán	1	Enero	2023-05-01T00:00:00	2024-11-08T18:00:00	1	Precipitación	0
99144	7	Sololá	713	San Lucas Tolimán	10	San Lucas Tolimán	1	Enero	2023-05-01T00:00:00	2024-11-08T18:00:00	8	Radiación solar	10
99145	7	Sololá	713	San Lucas Tolimán	10	San Lucas Tolimán	1	Enero	2023-05-01T00:00:00	2024-11-08T19:00:00	2	Temperatura media	16.9
99146	7	Sololá	713	San Lucas Tolimán	10	San Lucas Tolimán	1	Enero	2023-05-01T00:00:00	2024-11-08T19:00:00	4	Temperatura máxima	17.8
99147	7	Sololá	713	San Lucas Tolimán	10	San Lucas Tolimán	1	Enero	2023-05-01T00:00:00	2024-11-08T19:00:00	3	Temperatura mínima	16.9
99148	7	Sololá	713	San Lucas Tolimán	10	San Lucas Tolimán	1	Enero	2023-05-01T00:00:00	2024-11-08T19:00:00	5	Humedad	56
99149	7	Sololá	713	San Lucas Tolimán	10	San Lucas Tolimán	1	Enero	2023-05-01T00:00:00	2024-11-08T19:00:00	6	Velocidad del viento	3.2
99150	7	Sololá	713	San Lucas Tolimán	10	San Lucas Tolimán	1	Enero	2023-05-01T00:00:00	2024-11-08T19:00:00	7	Dirección del viento	3.22
99151	7	Sololá	713	San Lucas Tolimán	10	San Lucas Tolimán	1	Enero	2023-05-01T00:00:00	2024-11-08T19:00:00	1	Precipitación	0
99152	7	Sololá	713	San Lucas Tolimán	10	San Lucas Tolimán	1	Enero	2023-05-01T00:00:00	2024-11-08T19:00:00	8	Radiación solar	0
99153	7	Sololá	713	San Lucas Tolimán	10	San Lucas Tolimán	1	Enero	2023-05-01T00:00:00	2024-11-08T20:00:00	2	Temperatura media	17.3
99154	7	Sololá	713	San Lucas Tolimán	10	San Lucas Tolimán	1	Enero	2023-05-01T00:00:00	2024-11-08T20:00:00	4	Temperatura máxima	17.3
99155	7	Sololá	713	San Lucas Tolimán	10	San Lucas Tolimán	1	Enero	2023-05-01T00:00:00	2024-11-08T20:00:00	3	Temperatura mínima	16.6
99156	7	Sololá	713	San Lucas Tolimán	10	San Lucas Tolimán	1	Enero	2023-05-01T00:00:00	2024-11-08T20:00:00	5	Humedad	55
99157	7	Sololá	713	San Lucas Tolimán	10	San Lucas Tolimán	1	Enero	2023-05-01T00:00:00	2024-11-08T20:00:00	6	Velocidad del viento	1.6
99158	7	Sololá	713	San Lucas Tolimán	10	San Lucas Tolimán	1	Enero	2023-05-01T00:00:00	2024-11-08T20:00:00	7	Dirección del viento	1.61
99159	7	Sololá	713	San Lucas Tolimán	10	San Lucas Tolimán	1	Enero	2023-05-01T00:00:00	2024-11-08T20:00:00	1	Precipitación	0
99160	7	Sololá	713	San Lucas Tolimán	10	San Lucas Tolimán	1	Enero	2023-05-01T00:00:00	2024-11-08T20:00:00	8	Radiación solar	0
99161	7	Sololá	713	San Lucas Tolimán	10	San Lucas Tolimán	1	Enero	2023-05-01T00:00:00	2024-11-08T21:00:00	2	Temperatura media	18.4
99162	7	Sololá	713	San Lucas Tolimán	10	San Lucas Tolimán	1	Enero	2023-05-01T00:00:00	2024-11-08T21:00:00	4	Temperatura máxima	18.5
99163	7	Sololá	713	San Lucas Tolimán	10	San Lucas Tolimán	1	Enero	2023-05-01T00:00:00	2024-11-08T21:00:00	3	Temperatura mínima	17.1
99164	7	Sololá	713	San Lucas Tolimán	10	San Lucas Tolimán	1	Enero	2023-05-01T00:00:00	2024-11-08T21:00:00	5	Humedad	46
99165	7	Sololá	713	San Lucas Tolimán	10	San Lucas Tolimán	1	Enero	2023-05-01T00:00:00	2024-11-08T21:00:00	6	Velocidad del viento	9.7
99166	7	Sololá	713	San Lucas Tolimán	10	San Lucas Tolimán	1	Enero	2023-05-01T00:00:00	2024-11-08T21:00:00	7	Dirección del viento	9.66
99167	7	Sololá	713	San Lucas Tolimán	10	San Lucas Tolimán	1	Enero	2023-05-01T00:00:00	2024-11-08T21:00:00	1	Precipitación	0
99168	7	Sololá	713	San Lucas Tolimán	10	San Lucas Tolimán	1	Enero	2023-05-01T00:00:00	2024-11-08T21:00:00	8	Radiación solar	0
99169	7	Sololá	713	San Lucas Tolimán	10	San Lucas Tolimán	1	Enero	2023-05-01T00:00:00	2024-11-08T22:00:00	2	Temperatura media	17.4
99170	7	Sololá	713	San Lucas Tolimán	10	San Lucas Tolimán	1	Enero	2023-05-01T00:00:00	2024-11-08T22:00:00	4	Temperatura máxima	18.4
99171	7	Sololá	713	San Lucas Tolimán	10	San Lucas Tolimán	1	Enero	2023-05-01T00:00:00	2024-11-08T22:00:00	3	Temperatura mínima	17.4
99172	7	Sololá	713	San Lucas Tolimán	10	San Lucas Tolimán	1	Enero	2023-05-01T00:00:00	2024-11-08T22:00:00	5	Humedad	47
99173	7	Sololá	713	San Lucas Tolimán	10	San Lucas Tolimán	1	Enero	2023-05-01T00:00:00	2024-11-08T22:00:00	6	Velocidad del viento	8
99174	7	Sololá	713	San Lucas Tolimán	10	San Lucas Tolimán	1	Enero	2023-05-01T00:00:00	2024-11-08T22:00:00	7	Dirección del viento	8.05
99175	7	Sololá	713	San Lucas Tolimán	10	San Lucas Tolimán	1	Enero	2023-05-01T00:00:00	2024-11-08T22:00:00	1	Precipitación	0
99176	7	Sololá	713	San Lucas Tolimán	10	San Lucas Tolimán	1	Enero	2023-05-01T00:00:00	2024-11-08T22:00:00	8	Radiación solar	0
99177	7	Sololá	713	San Lucas Tolimán	10	San Lucas Tolimán	1	Enero	2023-05-01T00:00:00	2024-11-08T23:00:00	2	Temperatura media	16.3
99178	7	Sololá	713	San Lucas Tolimán	10	San Lucas Tolimán	1	Enero	2023-05-01T00:00:00	2024-11-08T23:00:00	4	Temperatura máxima	17.4
99179	7	Sololá	713	San Lucas Tolimán	10	San Lucas Tolimán	1	Enero	2023-05-01T00:00:00	2024-11-08T23:00:00	3	Temperatura mínima	16.3
99180	7	Sololá	713	San Lucas Tolimán	10	San Lucas Tolimán	1	Enero	2023-05-01T00:00:00	2024-11-08T23:00:00	5	Humedad	48
99181	7	Sololá	713	San Lucas Tolimán	10	San Lucas Tolimán	1	Enero	2023-05-01T00:00:00	2024-11-08T23:00:00	6	Velocidad del viento	3.2
99182	7	Sololá	713	San Lucas Tolimán	10	San Lucas Tolimán	1	Enero	2023-05-01T00:00:00	2024-11-08T23:00:00	7	Dirección del viento	3.22
99183	7	Sololá	713	San Lucas Tolimán	10	San Lucas Tolimán	1	Enero	2023-05-01T00:00:00	2024-11-08T23:00:00	1	Precipitación	0
99184	7	Sololá	713	San Lucas Tolimán	10	San Lucas Tolimán	1	Enero	2023-05-01T00:00:00	2024-11-08T23:00:00	8	Radiación solar	0
99185	7	Sololá	713	San Lucas Tolimán	10	San Lucas Tolimán	1	Enero	2023-06-01T00:00:00	2024-11-08T00:00:00	2	Temperatura media	15.9
99186	7	Sololá	713	San Lucas Tolimán	10	San Lucas Tolimán	1	Enero	2023-06-01T00:00:00	2024-11-08T00:00:00	4	Temperatura máxima	16.3
99187	7	Sololá	713	San Lucas Tolimán	10	San Lucas Tolimán	1	Enero	2023-06-01T00:00:00	2024-11-08T00:00:00	3	Temperatura mínima	15.7
99188	7	Sololá	713	San Lucas Tolimán	10	San Lucas Tolimán	1	Enero	2023-06-01T00:00:00	2024-11-08T00:00:00	5	Humedad	46
99189	7	Sololá	713	San Lucas Tolimán	10	San Lucas Tolimán	1	Enero	2023-06-01T00:00:00	2024-11-08T00:00:00	6	Velocidad del viento	4.8
99190	7	Sololá	713	San Lucas Tolimán	10	San Lucas Tolimán	1	Enero	2023-06-01T00:00:00	2024-11-08T00:00:00	7	Dirección del viento	4.83
99191	7	Sololá	713	San Lucas Tolimán	10	San Lucas Tolimán	1	Enero	2023-06-01T00:00:00	2024-11-08T00:00:00	1	Precipitación	0
99192	7	Sololá	713	San Lucas Tolimán	10	San Lucas Tolimán	1	Enero	2023-06-01T00:00:00	2024-11-08T00:00:00	8	Radiación solar	0
99193	7	Sololá	713	San Lucas Tolimán	10	San Lucas Tolimán	1	Enero	2023-06-01T00:00:00	2024-11-08T01:00:00	2	Temperatura media	15.6
99194	7	Sololá	713	San Lucas Tolimán	10	San Lucas Tolimán	1	Enero	2023-06-01T00:00:00	2024-11-08T01:00:00	4	Temperatura máxima	16.4
99195	7	Sololá	713	San Lucas Tolimán	10	San Lucas Tolimán	1	Enero	2023-06-01T00:00:00	2024-11-08T01:00:00	3	Temperatura mínima	15.6
99196	7	Sololá	713	San Lucas Tolimán	10	San Lucas Tolimán	1	Enero	2023-06-01T00:00:00	2024-11-08T01:00:00	5	Humedad	48
99197	7	Sololá	713	San Lucas Tolimán	10	San Lucas Tolimán	1	Enero	2023-06-01T00:00:00	2024-11-08T01:00:00	6	Velocidad del viento	3.2
99198	7	Sololá	713	San Lucas Tolimán	10	San Lucas Tolimán	1	Enero	2023-06-01T00:00:00	2024-11-08T01:00:00	7	Dirección del viento	3.22
99199	7	Sololá	713	San Lucas Tolimán	10	San Lucas Tolimán	1	Enero	2023-06-01T00:00:00	2024-11-08T01:00:00	1	Precipitación	0
99200	7	Sololá	713	San Lucas Tolimán	10	San Lucas Tolimán	1	Enero	2023-06-01T00:00:00	2024-11-08T01:00:00	8	Radiación solar	0
99201	7	Sololá	713	San Lucas Tolimán	10	San Lucas Tolimán	1	Enero	2023-06-01T00:00:00	2024-11-08T02:00:00	2	Temperatura media	15.2
99202	7	Sololá	713	San Lucas Tolimán	10	San Lucas Tolimán	1	Enero	2023-06-01T00:00:00	2024-11-08T02:00:00	4	Temperatura máxima	15.8
99203	7	Sololá	713	San Lucas Tolimán	10	San Lucas Tolimán	1	Enero	2023-06-01T00:00:00	2024-11-08T02:00:00	3	Temperatura mínima	15.2
99204	7	Sololá	713	San Lucas Tolimán	10	San Lucas Tolimán	1	Enero	2023-06-01T00:00:00	2024-11-08T02:00:00	5	Humedad	50
99205	7	Sololá	713	San Lucas Tolimán	10	San Lucas Tolimán	1	Enero	2023-06-01T00:00:00	2024-11-08T02:00:00	6	Velocidad del viento	6.4
99206	7	Sololá	713	San Lucas Tolimán	10	San Lucas Tolimán	1	Enero	2023-06-01T00:00:00	2024-11-08T02:00:00	7	Dirección del viento	6.44
99207	7	Sololá	713	San Lucas Tolimán	10	San Lucas Tolimán	1	Enero	2023-06-01T00:00:00	2024-11-08T02:00:00	1	Precipitación	0
99208	7	Sololá	713	San Lucas Tolimán	10	San Lucas Tolimán	1	Enero	2023-06-01T00:00:00	2024-11-08T02:00:00	8	Radiación solar	0
99209	7	Sololá	713	San Lucas Tolimán	10	San Lucas Tolimán	1	Enero	2023-06-01T00:00:00	2024-11-08T03:00:00	2	Temperatura media	14.2
99210	7	Sololá	713	San Lucas Tolimán	10	San Lucas Tolimán	1	Enero	2023-06-01T00:00:00	2024-11-08T03:00:00	4	Temperatura máxima	15.6
99211	7	Sololá	713	San Lucas Tolimán	10	San Lucas Tolimán	1	Enero	2023-06-01T00:00:00	2024-11-08T03:00:00	3	Temperatura mínima	14.2
99212	7	Sololá	713	San Lucas Tolimán	10	San Lucas Tolimán	1	Enero	2023-06-01T00:00:00	2024-11-08T03:00:00	5	Humedad	52
99213	7	Sololá	713	San Lucas Tolimán	10	San Lucas Tolimán	1	Enero	2023-06-01T00:00:00	2024-11-08T03:00:00	6	Velocidad del viento	6.4
99214	7	Sololá	713	San Lucas Tolimán	10	San Lucas Tolimán	1	Enero	2023-06-01T00:00:00	2024-11-08T03:00:00	7	Dirección del viento	6.44
99215	7	Sololá	713	San Lucas Tolimán	10	San Lucas Tolimán	1	Enero	2023-06-01T00:00:00	2024-11-08T03:00:00	1	Precipitación	0
99216	7	Sololá	713	San Lucas Tolimán	10	San Lucas Tolimán	1	Enero	2023-06-01T00:00:00	2024-11-08T03:00:00	8	Radiación solar	0
99217	7	Sololá	713	San Lucas Tolimán	10	San Lucas Tolimán	1	Enero	2023-06-01T00:00:00	2024-11-08T04:00:00	2	Temperatura media	15.7
99218	7	Sololá	713	San Lucas Tolimán	10	San Lucas Tolimán	1	Enero	2023-06-01T00:00:00	2024-11-08T04:00:00	4	Temperatura máxima	15.7
99219	7	Sololá	713	San Lucas Tolimán	10	San Lucas Tolimán	1	Enero	2023-06-01T00:00:00	2024-11-08T04:00:00	3	Temperatura mínima	13.7
99220	7	Sololá	713	San Lucas Tolimán	10	San Lucas Tolimán	1	Enero	2023-06-01T00:00:00	2024-11-08T04:00:00	5	Humedad	42
99221	7	Sololá	713	San Lucas Tolimán	10	San Lucas Tolimán	1	Enero	2023-06-01T00:00:00	2024-11-08T04:00:00	6	Velocidad del viento	9.7
99222	7	Sololá	713	San Lucas Tolimán	10	San Lucas Tolimán	1	Enero	2023-06-01T00:00:00	2024-11-08T04:00:00	7	Dirección del viento	9.66
99223	7	Sololá	713	San Lucas Tolimán	10	San Lucas Tolimán	1	Enero	2023-06-01T00:00:00	2024-11-08T04:00:00	1	Precipitación	0
99224	7	Sololá	713	San Lucas Tolimán	10	San Lucas Tolimán	1	Enero	2023-06-01T00:00:00	2024-11-08T04:00:00	8	Radiación solar	0
99225	7	Sololá	713	San Lucas Tolimán	10	San Lucas Tolimán	1	Enero	2023-06-01T00:00:00	2024-11-08T05:00:00	2	Temperatura media	14.8
99226	7	Sololá	713	San Lucas Tolimán	10	San Lucas Tolimán	1	Enero	2023-06-01T00:00:00	2024-11-08T05:00:00	4	Temperatura máxima	15.8
99227	7	Sololá	713	San Lucas Tolimán	10	San Lucas Tolimán	1	Enero	2023-06-01T00:00:00	2024-11-08T05:00:00	3	Temperatura mínima	14.4
99228	7	Sololá	713	San Lucas Tolimán	10	San Lucas Tolimán	1	Enero	2023-06-01T00:00:00	2024-11-08T05:00:00	5	Humedad	45
99229	7	Sololá	713	San Lucas Tolimán	10	San Lucas Tolimán	1	Enero	2023-06-01T00:00:00	2024-11-08T05:00:00	6	Velocidad del viento	9.7
99230	7	Sololá	713	San Lucas Tolimán	10	San Lucas Tolimán	1	Enero	2023-06-01T00:00:00	2024-11-08T05:00:00	7	Dirección del viento	9.66
99231	7	Sololá	713	San Lucas Tolimán	10	San Lucas Tolimán	1	Enero	2023-06-01T00:00:00	2024-11-08T05:00:00	1	Precipitación	0
99232	7	Sololá	713	San Lucas Tolimán	10	San Lucas Tolimán	1	Enero	2023-06-01T00:00:00	2024-11-08T05:00:00	8	Radiación solar	0
99233	7	Sololá	713	San Lucas Tolimán	10	San Lucas Tolimán	1	Enero	2023-06-01T00:00:00	2024-11-08T06:00:00	2	Temperatura media	14
99234	7	Sololá	713	San Lucas Tolimán	10	San Lucas Tolimán	1	Enero	2023-06-01T00:00:00	2024-11-08T06:00:00	4	Temperatura máxima	14.8
99235	7	Sololá	713	San Lucas Tolimán	10	San Lucas Tolimán	1	Enero	2023-06-01T00:00:00	2024-11-08T06:00:00	3	Temperatura mínima	13.6
99236	7	Sololá	713	San Lucas Tolimán	10	San Lucas Tolimán	1	Enero	2023-06-01T00:00:00	2024-11-08T06:00:00	5	Humedad	48
99237	7	Sololá	713	San Lucas Tolimán	10	San Lucas Tolimán	1	Enero	2023-06-01T00:00:00	2024-11-08T06:00:00	6	Velocidad del viento	4.8
99238	7	Sololá	713	San Lucas Tolimán	10	San Lucas Tolimán	1	Enero	2023-06-01T00:00:00	2024-11-08T06:00:00	7	Dirección del viento	4.83
99239	7	Sololá	713	San Lucas Tolimán	10	San Lucas Tolimán	1	Enero	2023-06-01T00:00:00	2024-11-08T06:00:00	1	Precipitación	0
99240	7	Sololá	713	San Lucas Tolimán	10	San Lucas Tolimán	1	Enero	2023-06-01T00:00:00	2024-11-08T06:00:00	8	Radiación solar	0
99241	7	Sololá	713	San Lucas Tolimán	10	San Lucas Tolimán	1	Enero	2023-06-01T00:00:00	2024-11-08T07:00:00	2	Temperatura media	13.7
99242	7	Sololá	713	San Lucas Tolimán	10	San Lucas Tolimán	1	Enero	2023-06-01T00:00:00	2024-11-08T07:00:00	4	Temperatura máxima	14.3
99243	7	Sololá	713	San Lucas Tolimán	10	San Lucas Tolimán	1	Enero	2023-06-01T00:00:00	2024-11-08T07:00:00	3	Temperatura mínima	13.4
99244	7	Sololá	713	San Lucas Tolimán	10	San Lucas Tolimán	1	Enero	2023-06-01T00:00:00	2024-11-08T07:00:00	5	Humedad	49
99245	7	Sololá	713	San Lucas Tolimán	10	San Lucas Tolimán	1	Enero	2023-06-01T00:00:00	2024-11-08T07:00:00	6	Velocidad del viento	3.2
99246	7	Sololá	713	San Lucas Tolimán	10	San Lucas Tolimán	1	Enero	2023-06-01T00:00:00	2024-11-08T07:00:00	7	Dirección del viento	3.22
99247	7	Sololá	713	San Lucas Tolimán	10	San Lucas Tolimán	1	Enero	2023-06-01T00:00:00	2024-11-08T07:00:00	1	Precipitación	0
99248	7	Sololá	713	San Lucas Tolimán	10	San Lucas Tolimán	1	Enero	2023-06-01T00:00:00	2024-11-08T07:00:00	8	Radiación solar	4
99249	7	Sololá	713	San Lucas Tolimán	10	San Lucas Tolimán	1	Enero	2023-06-01T00:00:00	2024-11-08T08:00:00	2	Temperatura media	15.7
99250	7	Sololá	713	San Lucas Tolimán	10	San Lucas Tolimán	1	Enero	2023-06-01T00:00:00	2024-11-08T08:00:00	4	Temperatura máxima	15.7
99251	7	Sololá	713	San Lucas Tolimán	10	San Lucas Tolimán	1	Enero	2023-06-01T00:00:00	2024-11-08T08:00:00	3	Temperatura mínima	13.4
99252	7	Sololá	713	San Lucas Tolimán	10	San Lucas Tolimán	1	Enero	2023-06-01T00:00:00	2024-11-08T08:00:00	5	Humedad	44
99253	7	Sololá	713	San Lucas Tolimán	10	San Lucas Tolimán	1	Enero	2023-06-01T00:00:00	2024-11-08T08:00:00	6	Velocidad del viento	6.4
99254	7	Sololá	713	San Lucas Tolimán	10	San Lucas Tolimán	1	Enero	2023-06-01T00:00:00	2024-11-08T08:00:00	7	Dirección del viento	6.44
99255	7	Sololá	713	San Lucas Tolimán	10	San Lucas Tolimán	1	Enero	2023-06-01T00:00:00	2024-11-08T08:00:00	1	Precipitación	0
99256	7	Sololá	713	San Lucas Tolimán	10	San Lucas Tolimán	1	Enero	2023-06-01T00:00:00	2024-11-08T08:00:00	8	Radiación solar	20
99257	7	Sololá	713	San Lucas Tolimán	10	San Lucas Tolimán	1	Enero	2023-06-01T00:00:00	2024-11-08T09:00:00	2	Temperatura media	17.3
99258	7	Sololá	713	San Lucas Tolimán	10	San Lucas Tolimán	1	Enero	2023-06-01T00:00:00	2024-11-08T09:00:00	4	Temperatura máxima	17.4
99259	7	Sololá	713	San Lucas Tolimán	10	San Lucas Tolimán	1	Enero	2023-06-01T00:00:00	2024-11-08T09:00:00	3	Temperatura mínima	15.8
99260	7	Sololá	713	San Lucas Tolimán	10	San Lucas Tolimán	1	Enero	2023-06-01T00:00:00	2024-11-08T09:00:00	5	Humedad	44
99261	7	Sololá	713	San Lucas Tolimán	10	San Lucas Tolimán	1	Enero	2023-06-01T00:00:00	2024-11-08T09:00:00	6	Velocidad del viento	8
99262	7	Sololá	713	San Lucas Tolimán	10	San Lucas Tolimán	1	Enero	2023-06-01T00:00:00	2024-11-08T09:00:00	7	Dirección del viento	8.05
99263	7	Sololá	713	San Lucas Tolimán	10	San Lucas Tolimán	1	Enero	2023-06-01T00:00:00	2024-11-08T09:00:00	1	Precipitación	0
99264	7	Sololá	713	San Lucas Tolimán	10	San Lucas Tolimán	1	Enero	2023-06-01T00:00:00	2024-11-08T09:00:00	8	Radiación solar	274
99265	7	Sololá	713	San Lucas Tolimán	10	San Lucas Tolimán	1	Enero	2023-06-01T00:00:00	2024-11-08T10:00:00	2	Temperatura media	19.9
99266	7	Sololá	713	San Lucas Tolimán	10	San Lucas Tolimán	1	Enero	2023-06-01T00:00:00	2024-11-08T10:00:00	4	Temperatura máxima	19.9
99267	7	Sololá	713	San Lucas Tolimán	10	San Lucas Tolimán	1	Enero	2023-06-01T00:00:00	2024-11-08T10:00:00	3	Temperatura mínima	17.3
99268	7	Sololá	713	San Lucas Tolimán	10	San Lucas Tolimán	1	Enero	2023-06-01T00:00:00	2024-11-08T10:00:00	5	Humedad	37
99269	7	Sololá	713	San Lucas Tolimán	10	San Lucas Tolimán	1	Enero	2023-06-01T00:00:00	2024-11-08T10:00:00	6	Velocidad del viento	8
99270	7	Sololá	713	San Lucas Tolimán	10	San Lucas Tolimán	1	Enero	2023-06-01T00:00:00	2024-11-08T10:00:00	7	Dirección del viento	8.05
99271	7	Sololá	713	San Lucas Tolimán	10	San Lucas Tolimán	1	Enero	2023-06-01T00:00:00	2024-11-08T10:00:00	1	Precipitación	0
99272	7	Sololá	713	San Lucas Tolimán	10	San Lucas Tolimán	1	Enero	2023-06-01T00:00:00	2024-11-08T10:00:00	8	Radiación solar	605
99273	7	Sololá	713	San Lucas Tolimán	10	San Lucas Tolimán	1	Enero	2023-06-01T00:00:00	2024-11-08T11:00:00	2	Temperatura media	21.5
99274	7	Sololá	713	San Lucas Tolimán	10	San Lucas Tolimán	1	Enero	2023-06-01T00:00:00	2024-11-08T11:00:00	4	Temperatura máxima	21.6
99275	7	Sololá	713	San Lucas Tolimán	10	San Lucas Tolimán	1	Enero	2023-06-01T00:00:00	2024-11-08T11:00:00	3	Temperatura mínima	19.9
99276	7	Sololá	713	San Lucas Tolimán	10	San Lucas Tolimán	1	Enero	2023-06-01T00:00:00	2024-11-08T11:00:00	5	Humedad	38
99277	7	Sololá	713	San Lucas Tolimán	10	San Lucas Tolimán	1	Enero	2023-06-01T00:00:00	2024-11-08T11:00:00	6	Velocidad del viento	8
99278	7	Sololá	713	San Lucas Tolimán	10	San Lucas Tolimán	1	Enero	2023-06-01T00:00:00	2024-11-08T11:00:00	7	Dirección del viento	8.05
99279	7	Sololá	713	San Lucas Tolimán	10	San Lucas Tolimán	1	Enero	2023-06-01T00:00:00	2024-11-08T11:00:00	1	Precipitación	0
99280	7	Sololá	713	San Lucas Tolimán	10	San Lucas Tolimán	1	Enero	2023-06-01T00:00:00	2024-11-08T11:00:00	8	Radiación solar	768
99281	7	Sololá	713	San Lucas Tolimán	10	San Lucas Tolimán	1	Enero	2023-06-01T00:00:00	2024-11-08T12:00:00	2	Temperatura media	20.7
99282	7	Sololá	713	San Lucas Tolimán	10	San Lucas Tolimán	1	Enero	2023-06-01T00:00:00	2024-11-08T12:00:00	4	Temperatura máxima	21.6
99283	7	Sololá	713	San Lucas Tolimán	10	San Lucas Tolimán	1	Enero	2023-06-01T00:00:00	2024-11-08T12:00:00	3	Temperatura mínima	19.9
99284	7	Sololá	713	San Lucas Tolimán	10	San Lucas Tolimán	1	Enero	2023-06-01T00:00:00	2024-11-08T12:00:00	5	Humedad	40
99285	7	Sololá	713	San Lucas Tolimán	10	San Lucas Tolimán	1	Enero	2023-06-01T00:00:00	2024-11-08T12:00:00	6	Velocidad del viento	14.5
99286	7	Sololá	713	San Lucas Tolimán	10	San Lucas Tolimán	1	Enero	2023-06-01T00:00:00	2024-11-08T12:00:00	7	Dirección del viento	14.48
99287	7	Sololá	713	San Lucas Tolimán	10	San Lucas Tolimán	1	Enero	2023-06-01T00:00:00	2024-11-08T12:00:00	1	Precipitación	0
99288	7	Sololá	713	San Lucas Tolimán	10	San Lucas Tolimán	1	Enero	2023-06-01T00:00:00	2024-11-08T12:00:00	8	Radiación solar	867
99289	7	Sololá	713	San Lucas Tolimán	10	San Lucas Tolimán	1	Enero	2023-06-01T00:00:00	2024-11-08T13:00:00	2	Temperatura media	21.8
99290	7	Sololá	713	San Lucas Tolimán	10	San Lucas Tolimán	1	Enero	2023-06-01T00:00:00	2024-11-08T13:00:00	4	Temperatura máxima	21.9
99291	7	Sololá	713	San Lucas Tolimán	10	San Lucas Tolimán	1	Enero	2023-06-01T00:00:00	2024-11-08T13:00:00	3	Temperatura mínima	20.4
99292	7	Sololá	713	San Lucas Tolimán	10	San Lucas Tolimán	1	Enero	2023-06-01T00:00:00	2024-11-08T13:00:00	5	Humedad	38
99293	7	Sololá	713	San Lucas Tolimán	10	San Lucas Tolimán	1	Enero	2023-06-01T00:00:00	2024-11-08T13:00:00	6	Velocidad del viento	16.1
99294	7	Sololá	713	San Lucas Tolimán	10	San Lucas Tolimán	1	Enero	2023-06-01T00:00:00	2024-11-08T13:00:00	7	Dirección del viento	16.09
99295	7	Sololá	713	San Lucas Tolimán	10	San Lucas Tolimán	1	Enero	2023-06-01T00:00:00	2024-11-08T13:00:00	1	Precipitación	0
99296	7	Sololá	713	San Lucas Tolimán	10	San Lucas Tolimán	1	Enero	2023-06-01T00:00:00	2024-11-08T13:00:00	8	Radiación solar	878
99297	7	Sololá	713	San Lucas Tolimán	10	San Lucas Tolimán	1	Enero	2023-06-01T00:00:00	2024-11-08T14:00:00	2	Temperatura media	21.3
99298	7	Sololá	713	San Lucas Tolimán	10	San Lucas Tolimán	1	Enero	2023-06-01T00:00:00	2024-11-08T14:00:00	4	Temperatura máxima	21.8
99299	7	Sololá	713	San Lucas Tolimán	10	San Lucas Tolimán	1	Enero	2023-06-01T00:00:00	2024-11-08T14:00:00	3	Temperatura mínima	21.2
99300	7	Sololá	713	San Lucas Tolimán	10	San Lucas Tolimán	1	Enero	2023-06-01T00:00:00	2024-11-08T14:00:00	5	Humedad	38
99301	7	Sololá	713	San Lucas Tolimán	10	San Lucas Tolimán	1	Enero	2023-06-01T00:00:00	2024-11-08T14:00:00	6	Velocidad del viento	12.9
99302	7	Sololá	713	San Lucas Tolimán	10	San Lucas Tolimán	1	Enero	2023-06-01T00:00:00	2024-11-08T14:00:00	7	Dirección del viento	12.87
99303	7	Sololá	713	San Lucas Tolimán	10	San Lucas Tolimán	1	Enero	2023-06-01T00:00:00	2024-11-08T14:00:00	1	Precipitación	0
99304	7	Sololá	713	San Lucas Tolimán	10	San Lucas Tolimán	1	Enero	2023-06-01T00:00:00	2024-11-08T14:00:00	8	Radiación solar	127
99305	7	Sololá	713	San Lucas Tolimán	10	San Lucas Tolimán	1	Enero	2023-06-01T00:00:00	2024-11-08T15:00:00	2	Temperatura media	21.4
99306	7	Sololá	713	San Lucas Tolimán	10	San Lucas Tolimán	1	Enero	2023-06-01T00:00:00	2024-11-08T15:00:00	4	Temperatura máxima	22
99307	7	Sololá	713	San Lucas Tolimán	10	San Lucas Tolimán	1	Enero	2023-06-01T00:00:00	2024-11-08T15:00:00	3	Temperatura mínima	21.3
99308	7	Sololá	713	San Lucas Tolimán	10	San Lucas Tolimán	1	Enero	2023-06-01T00:00:00	2024-11-08T15:00:00	5	Humedad	48
99309	7	Sololá	713	San Lucas Tolimán	10	San Lucas Tolimán	1	Enero	2023-06-01T00:00:00	2024-11-08T15:00:00	6	Velocidad del viento	8
99310	7	Sololá	713	San Lucas Tolimán	10	San Lucas Tolimán	1	Enero	2023-06-01T00:00:00	2024-11-08T15:00:00	7	Dirección del viento	8.05
99311	7	Sololá	713	San Lucas Tolimán	10	San Lucas Tolimán	1	Enero	2023-06-01T00:00:00	2024-11-08T15:00:00	1	Precipitación	0
99312	7	Sololá	713	San Lucas Tolimán	10	San Lucas Tolimán	1	Enero	2023-06-01T00:00:00	2024-11-08T15:00:00	8	Radiación solar	203
99313	7	Sololá	713	San Lucas Tolimán	10	San Lucas Tolimán	1	Enero	2023-06-01T00:00:00	2024-11-08T16:00:00	2	Temperatura media	21.6
99314	7	Sololá	713	San Lucas Tolimán	10	San Lucas Tolimán	1	Enero	2023-06-01T00:00:00	2024-11-08T16:00:00	4	Temperatura máxima	21.6
99315	7	Sololá	713	San Lucas Tolimán	10	San Lucas Tolimán	1	Enero	2023-06-01T00:00:00	2024-11-08T16:00:00	3	Temperatura mínima	20.9
99316	7	Sololá	713	San Lucas Tolimán	10	San Lucas Tolimán	1	Enero	2023-06-01T00:00:00	2024-11-08T16:00:00	5	Humedad	41
99317	7	Sololá	713	San Lucas Tolimán	10	San Lucas Tolimán	1	Enero	2023-06-01T00:00:00	2024-11-08T16:00:00	6	Velocidad del viento	3.2
99318	7	Sololá	713	San Lucas Tolimán	10	San Lucas Tolimán	1	Enero	2023-06-01T00:00:00	2024-11-08T16:00:00	7	Dirección del viento	3.22
99319	7	Sololá	713	San Lucas Tolimán	10	San Lucas Tolimán	1	Enero	2023-06-01T00:00:00	2024-11-08T16:00:00	1	Precipitación	0
99320	7	Sololá	713	San Lucas Tolimán	10	San Lucas Tolimán	1	Enero	2023-06-01T00:00:00	2024-11-08T16:00:00	8	Radiación solar	160
99321	7	Sololá	713	San Lucas Tolimán	10	San Lucas Tolimán	1	Enero	2023-06-01T00:00:00	2024-11-08T17:00:00	2	Temperatura media	19.8
99322	7	Sololá	713	San Lucas Tolimán	10	San Lucas Tolimán	1	Enero	2023-06-01T00:00:00	2024-11-08T17:00:00	4	Temperatura máxima	21.5
99323	7	Sololá	713	San Lucas Tolimán	10	San Lucas Tolimán	1	Enero	2023-06-01T00:00:00	2024-11-08T17:00:00	3	Temperatura mínima	19.8
99324	7	Sololá	713	San Lucas Tolimán	10	San Lucas Tolimán	1	Enero	2023-06-01T00:00:00	2024-11-08T17:00:00	5	Humedad	42
99325	7	Sololá	713	San Lucas Tolimán	10	San Lucas Tolimán	1	Enero	2023-06-01T00:00:00	2024-11-08T17:00:00	6	Velocidad del viento	11.3
99326	7	Sololá	713	San Lucas Tolimán	10	San Lucas Tolimán	1	Enero	2023-06-01T00:00:00	2024-11-08T17:00:00	7	Dirección del viento	11.27
99327	7	Sololá	713	San Lucas Tolimán	10	San Lucas Tolimán	1	Enero	2023-06-01T00:00:00	2024-11-08T17:00:00	1	Precipitación	0
99328	7	Sololá	713	San Lucas Tolimán	10	San Lucas Tolimán	1	Enero	2023-06-01T00:00:00	2024-11-08T17:00:00	8	Radiación solar	54
99329	7	Sololá	713	San Lucas Tolimán	10	San Lucas Tolimán	1	Enero	2023-06-01T00:00:00	2024-11-08T18:00:00	2	Temperatura media	18.6
99330	7	Sololá	713	San Lucas Tolimán	10	San Lucas Tolimán	1	Enero	2023-06-01T00:00:00	2024-11-08T18:00:00	4	Temperatura máxima	19.8
99331	7	Sololá	713	San Lucas Tolimán	10	San Lucas Tolimán	1	Enero	2023-06-01T00:00:00	2024-11-08T18:00:00	3	Temperatura mínima	18.6
99332	7	Sololá	713	San Lucas Tolimán	10	San Lucas Tolimán	1	Enero	2023-06-01T00:00:00	2024-11-08T18:00:00	5	Humedad	48
99333	7	Sololá	713	San Lucas Tolimán	10	San Lucas Tolimán	1	Enero	2023-06-01T00:00:00	2024-11-08T18:00:00	6	Velocidad del viento	14.5
99334	7	Sololá	713	San Lucas Tolimán	10	San Lucas Tolimán	1	Enero	2023-06-01T00:00:00	2024-11-08T18:00:00	7	Dirección del viento	14.48
99335	7	Sololá	713	San Lucas Tolimán	10	San Lucas Tolimán	1	Enero	2023-06-01T00:00:00	2024-11-08T18:00:00	1	Precipitación	0
99336	7	Sololá	713	San Lucas Tolimán	10	San Lucas Tolimán	1	Enero	2023-06-01T00:00:00	2024-11-08T18:00:00	8	Radiación solar	16
99337	7	Sololá	713	San Lucas Tolimán	10	San Lucas Tolimán	1	Enero	2023-06-01T00:00:00	2024-11-08T19:00:00	2	Temperatura media	17.3
99338	7	Sololá	713	San Lucas Tolimán	10	San Lucas Tolimán	1	Enero	2023-06-01T00:00:00	2024-11-08T19:00:00	4	Temperatura máxima	18.6
99339	7	Sololá	713	San Lucas Tolimán	10	San Lucas Tolimán	1	Enero	2023-06-01T00:00:00	2024-11-08T19:00:00	3	Temperatura mínima	17.3
99340	7	Sololá	713	San Lucas Tolimán	10	San Lucas Tolimán	1	Enero	2023-06-01T00:00:00	2024-11-08T19:00:00	5	Humedad	51
99341	7	Sololá	713	San Lucas Tolimán	10	San Lucas Tolimán	1	Enero	2023-06-01T00:00:00	2024-11-08T19:00:00	6	Velocidad del viento	4.8
99342	7	Sololá	713	San Lucas Tolimán	10	San Lucas Tolimán	1	Enero	2023-06-01T00:00:00	2024-11-08T19:00:00	7	Dirección del viento	4.83
99343	7	Sololá	713	San Lucas Tolimán	10	San Lucas Tolimán	1	Enero	2023-06-01T00:00:00	2024-11-08T19:00:00	1	Precipitación	0
99344	7	Sololá	713	San Lucas Tolimán	10	San Lucas Tolimán	1	Enero	2023-06-01T00:00:00	2024-11-08T19:00:00	8	Radiación solar	0
99345	7	Sololá	713	San Lucas Tolimán	10	San Lucas Tolimán	1	Enero	2023-06-01T00:00:00	2024-11-08T20:00:00	2	Temperatura media	17
99346	7	Sololá	713	San Lucas Tolimán	10	San Lucas Tolimán	1	Enero	2023-06-01T00:00:00	2024-11-08T20:00:00	4	Temperatura máxima	17.7
99347	7	Sololá	713	San Lucas Tolimán	10	San Lucas Tolimán	1	Enero	2023-06-01T00:00:00	2024-11-08T20:00:00	3	Temperatura mínima	17
99348	7	Sololá	713	San Lucas Tolimán	10	San Lucas Tolimán	1	Enero	2023-06-01T00:00:00	2024-11-08T20:00:00	5	Humedad	52
99349	7	Sololá	713	San Lucas Tolimán	10	San Lucas Tolimán	1	Enero	2023-06-01T00:00:00	2024-11-08T20:00:00	6	Velocidad del viento	8
99350	7	Sololá	713	San Lucas Tolimán	10	San Lucas Tolimán	1	Enero	2023-06-01T00:00:00	2024-11-08T20:00:00	7	Dirección del viento	8.05
99351	7	Sololá	713	San Lucas Tolimán	10	San Lucas Tolimán	1	Enero	2023-06-01T00:00:00	2024-11-08T20:00:00	1	Precipitación	0
99352	7	Sololá	713	San Lucas Tolimán	10	San Lucas Tolimán	1	Enero	2023-06-01T00:00:00	2024-11-08T20:00:00	8	Radiación solar	0
99353	7	Sololá	713	San Lucas Tolimán	10	San Lucas Tolimán	1	Enero	2023-06-01T00:00:00	2024-11-08T21:00:00	2	Temperatura media	15.9
99354	7	Sololá	713	San Lucas Tolimán	10	San Lucas Tolimán	1	Enero	2023-06-01T00:00:00	2024-11-08T21:00:00	4	Temperatura máxima	17
99355	7	Sololá	713	San Lucas Tolimán	10	San Lucas Tolimán	1	Enero	2023-06-01T00:00:00	2024-11-08T21:00:00	3	Temperatura mínima	15.9
99356	7	Sololá	713	San Lucas Tolimán	10	San Lucas Tolimán	1	Enero	2023-06-01T00:00:00	2024-11-08T21:00:00	5	Humedad	56
99357	7	Sololá	713	San Lucas Tolimán	10	San Lucas Tolimán	1	Enero	2023-06-01T00:00:00	2024-11-08T21:00:00	6	Velocidad del viento	6.4
99358	7	Sololá	713	San Lucas Tolimán	10	San Lucas Tolimán	1	Enero	2023-06-01T00:00:00	2024-11-08T21:00:00	7	Dirección del viento	6.44
99359	7	Sololá	713	San Lucas Tolimán	10	San Lucas Tolimán	1	Enero	2023-06-01T00:00:00	2024-11-08T21:00:00	1	Precipitación	0
99360	7	Sololá	713	San Lucas Tolimán	10	San Lucas Tolimán	1	Enero	2023-06-01T00:00:00	2024-11-08T21:00:00	8	Radiación solar	0
99361	7	Sololá	713	San Lucas Tolimán	10	San Lucas Tolimán	1	Enero	2023-06-01T00:00:00	2024-11-08T22:00:00	2	Temperatura media	16.2
99362	7	Sololá	713	San Lucas Tolimán	10	San Lucas Tolimán	1	Enero	2023-06-01T00:00:00	2024-11-08T22:00:00	4	Temperatura máxima	16.7
99363	7	Sololá	713	San Lucas Tolimán	10	San Lucas Tolimán	1	Enero	2023-06-01T00:00:00	2024-11-08T22:00:00	3	Temperatura mínima	15.8
99364	7	Sololá	713	San Lucas Tolimán	10	San Lucas Tolimán	1	Enero	2023-06-01T00:00:00	2024-11-08T22:00:00	5	Humedad	54
99365	7	Sololá	713	San Lucas Tolimán	10	San Lucas Tolimán	1	Enero	2023-06-01T00:00:00	2024-11-08T22:00:00	6	Velocidad del viento	8
99366	7	Sololá	713	San Lucas Tolimán	10	San Lucas Tolimán	1	Enero	2023-06-01T00:00:00	2024-11-08T22:00:00	7	Dirección del viento	8.05
99367	7	Sololá	713	San Lucas Tolimán	10	San Lucas Tolimán	1	Enero	2023-06-01T00:00:00	2024-11-08T22:00:00	1	Precipitación	0
99368	7	Sololá	713	San Lucas Tolimán	10	San Lucas Tolimán	1	Enero	2023-06-01T00:00:00	2024-11-08T22:00:00	8	Radiación solar	0
99369	7	Sololá	713	San Lucas Tolimán	10	San Lucas Tolimán	1	Enero	2023-06-01T00:00:00	2024-11-08T23:00:00	2	Temperatura media	15.8
99370	7	Sololá	713	San Lucas Tolimán	10	San Lucas Tolimán	1	Enero	2023-06-01T00:00:00	2024-11-08T23:00:00	4	Temperatura máxima	17
99371	7	Sololá	713	San Lucas Tolimán	10	San Lucas Tolimán	1	Enero	2023-06-01T00:00:00	2024-11-08T23:00:00	3	Temperatura mínima	15.8
99372	7	Sololá	713	San Lucas Tolimán	10	San Lucas Tolimán	1	Enero	2023-06-01T00:00:00	2024-11-08T23:00:00	5	Humedad	56
99373	7	Sololá	713	San Lucas Tolimán	10	San Lucas Tolimán	1	Enero	2023-06-01T00:00:00	2024-11-08T23:00:00	6	Velocidad del viento	9.7
99374	7	Sololá	713	San Lucas Tolimán	10	San Lucas Tolimán	1	Enero	2023-06-01T00:00:00	2024-11-08T23:00:00	7	Dirección del viento	9.66
99375	7	Sololá	713	San Lucas Tolimán	10	San Lucas Tolimán	1	Enero	2023-06-01T00:00:00	2024-11-08T23:00:00	1	Precipitación	0
99376	7	Sololá	713	San Lucas Tolimán	10	San Lucas Tolimán	1	Enero	2023-06-01T00:00:00	2024-11-08T23:00:00	8	Radiación solar	0
99377	7	Sololá	713	San Lucas Tolimán	10	San Lucas Tolimán	1	Enero	2023-07-01T00:00:00	2024-11-08T00:00:00	2	Temperatura media	15.4
99378	7	Sololá	713	San Lucas Tolimán	10	San Lucas Tolimán	1	Enero	2023-07-01T00:00:00	2024-11-08T00:00:00	4	Temperatura máxima	15.8
99379	7	Sololá	713	San Lucas Tolimán	10	San Lucas Tolimán	1	Enero	2023-07-01T00:00:00	2024-11-08T00:00:00	3	Temperatura mínima	15.4
99380	7	Sololá	713	San Lucas Tolimán	10	San Lucas Tolimán	1	Enero	2023-07-01T00:00:00	2024-11-08T00:00:00	5	Humedad	57
99381	7	Sololá	713	San Lucas Tolimán	10	San Lucas Tolimán	1	Enero	2023-07-01T00:00:00	2024-11-08T00:00:00	6	Velocidad del viento	3.2
99382	7	Sololá	713	San Lucas Tolimán	10	San Lucas Tolimán	1	Enero	2023-07-01T00:00:00	2024-11-08T00:00:00	7	Dirección del viento	3.22
99383	7	Sololá	713	San Lucas Tolimán	10	San Lucas Tolimán	1	Enero	2023-07-01T00:00:00	2024-11-08T00:00:00	1	Precipitación	0
99384	7	Sololá	713	San Lucas Tolimán	10	San Lucas Tolimán	1	Enero	2023-07-01T00:00:00	2024-11-08T00:00:00	8	Radiación solar	0
99385	7	Sololá	713	San Lucas Tolimán	10	San Lucas Tolimán	1	Enero	2023-07-01T00:00:00	2024-11-08T01:00:00	2	Temperatura media	15.3
99386	7	Sololá	713	San Lucas Tolimán	10	San Lucas Tolimán	1	Enero	2023-07-01T00:00:00	2024-11-08T01:00:00	4	Temperatura máxima	15.4
99387	7	Sololá	713	San Lucas Tolimán	10	San Lucas Tolimán	1	Enero	2023-07-01T00:00:00	2024-11-08T01:00:00	3	Temperatura mínima	15.2
99388	7	Sololá	713	San Lucas Tolimán	10	San Lucas Tolimán	1	Enero	2023-07-01T00:00:00	2024-11-08T01:00:00	5	Humedad	59
99389	7	Sololá	713	San Lucas Tolimán	10	San Lucas Tolimán	1	Enero	2023-07-01T00:00:00	2024-11-08T01:00:00	6	Velocidad del viento	3.2
99390	7	Sololá	713	San Lucas Tolimán	10	San Lucas Tolimán	1	Enero	2023-07-01T00:00:00	2024-11-08T01:00:00	7	Dirección del viento	3.22
99391	7	Sololá	713	San Lucas Tolimán	10	San Lucas Tolimán	1	Enero	2023-07-01T00:00:00	2024-11-08T01:00:00	1	Precipitación	0
99392	7	Sololá	713	San Lucas Tolimán	10	San Lucas Tolimán	1	Enero	2023-07-01T00:00:00	2024-11-08T01:00:00	8	Radiación solar	0
99393	7	Sololá	713	San Lucas Tolimán	10	San Lucas Tolimán	1	Enero	2023-07-01T00:00:00	2024-11-08T02:00:00	2	Temperatura media	14.9
99394	7	Sololá	713	San Lucas Tolimán	10	San Lucas Tolimán	1	Enero	2023-07-01T00:00:00	2024-11-08T02:00:00	4	Temperatura máxima	15.6
99395	7	Sololá	713	San Lucas Tolimán	10	San Lucas Tolimán	1	Enero	2023-07-01T00:00:00	2024-11-08T02:00:00	3	Temperatura mínima	14.9
99396	7	Sololá	713	San Lucas Tolimán	10	San Lucas Tolimán	1	Enero	2023-07-01T00:00:00	2024-11-08T02:00:00	5	Humedad	59
99397	7	Sololá	713	San Lucas Tolimán	10	San Lucas Tolimán	1	Enero	2023-07-01T00:00:00	2024-11-08T02:00:00	6	Velocidad del viento	1.6
99398	7	Sololá	713	San Lucas Tolimán	10	San Lucas Tolimán	1	Enero	2023-07-01T00:00:00	2024-11-08T02:00:00	7	Dirección del viento	1.61
99399	7	Sololá	713	San Lucas Tolimán	10	San Lucas Tolimán	1	Enero	2023-07-01T00:00:00	2024-11-08T02:00:00	1	Precipitación	0
99400	7	Sololá	713	San Lucas Tolimán	10	San Lucas Tolimán	1	Enero	2023-07-01T00:00:00	2024-11-08T02:00:00	8	Radiación solar	0
99401	7	Sololá	713	San Lucas Tolimán	10	San Lucas Tolimán	1	Enero	2023-07-01T00:00:00	2024-11-08T03:00:00	2	Temperatura media	15
99402	7	Sololá	713	San Lucas Tolimán	10	San Lucas Tolimán	1	Enero	2023-07-01T00:00:00	2024-11-08T03:00:00	4	Temperatura máxima	15.3
99403	7	Sololá	713	San Lucas Tolimán	10	San Lucas Tolimán	1	Enero	2023-07-01T00:00:00	2024-11-08T03:00:00	3	Temperatura mínima	14.7
99404	7	Sololá	713	San Lucas Tolimán	10	San Lucas Tolimán	1	Enero	2023-07-01T00:00:00	2024-11-08T03:00:00	5	Humedad	59
99405	7	Sololá	713	San Lucas Tolimán	10	San Lucas Tolimán	1	Enero	2023-07-01T00:00:00	2024-11-08T03:00:00	6	Velocidad del viento	4.8
99406	7	Sololá	713	San Lucas Tolimán	10	San Lucas Tolimán	1	Enero	2023-07-01T00:00:00	2024-11-08T03:00:00	7	Dirección del viento	4.83
99407	7	Sololá	713	San Lucas Tolimán	10	San Lucas Tolimán	1	Enero	2023-07-01T00:00:00	2024-11-08T03:00:00	1	Precipitación	0
99408	7	Sololá	713	San Lucas Tolimán	10	San Lucas Tolimán	1	Enero	2023-07-01T00:00:00	2024-11-08T03:00:00	8	Radiación solar	0
99409	7	Sololá	713	San Lucas Tolimán	10	San Lucas Tolimán	1	Enero	2023-07-01T00:00:00	2024-11-08T04:00:00	2	Temperatura media	15.2
99410	7	Sololá	713	San Lucas Tolimán	10	San Lucas Tolimán	1	Enero	2023-07-01T00:00:00	2024-11-08T04:00:00	4	Temperatura máxima	16.3
99411	7	Sololá	713	San Lucas Tolimán	10	San Lucas Tolimán	1	Enero	2023-07-01T00:00:00	2024-11-08T04:00:00	3	Temperatura mínima	15
99412	7	Sololá	713	San Lucas Tolimán	10	San Lucas Tolimán	1	Enero	2023-07-01T00:00:00	2024-11-08T04:00:00	5	Humedad	59
99413	7	Sololá	713	San Lucas Tolimán	10	San Lucas Tolimán	1	Enero	2023-07-01T00:00:00	2024-11-08T04:00:00	6	Velocidad del viento	4.8
99414	7	Sololá	713	San Lucas Tolimán	10	San Lucas Tolimán	1	Enero	2023-07-01T00:00:00	2024-11-08T04:00:00	7	Dirección del viento	4.83
99415	7	Sololá	713	San Lucas Tolimán	10	San Lucas Tolimán	1	Enero	2023-07-01T00:00:00	2024-11-08T04:00:00	1	Precipitación	0
99416	7	Sololá	713	San Lucas Tolimán	10	San Lucas Tolimán	1	Enero	2023-07-01T00:00:00	2024-11-08T04:00:00	8	Radiación solar	0
99417	7	Sololá	713	San Lucas Tolimán	10	San Lucas Tolimán	1	Enero	2023-07-01T00:00:00	2024-11-08T05:00:00	2	Temperatura media	14.4
99418	7	Sololá	713	San Lucas Tolimán	10	San Lucas Tolimán	1	Enero	2023-07-01T00:00:00	2024-11-08T05:00:00	4	Temperatura máxima	15.3
99419	7	Sololá	713	San Lucas Tolimán	10	San Lucas Tolimán	1	Enero	2023-07-01T00:00:00	2024-11-08T05:00:00	3	Temperatura mínima	13.9
99420	7	Sololá	713	San Lucas Tolimán	10	San Lucas Tolimán	1	Enero	2023-07-01T00:00:00	2024-11-08T05:00:00	5	Humedad	61
99421	7	Sololá	713	San Lucas Tolimán	10	San Lucas Tolimán	1	Enero	2023-07-01T00:00:00	2024-11-08T05:00:00	6	Velocidad del viento	1.6
99422	7	Sololá	713	San Lucas Tolimán	10	San Lucas Tolimán	1	Enero	2023-07-01T00:00:00	2024-11-08T05:00:00	7	Dirección del viento	1.61
99423	7	Sololá	713	San Lucas Tolimán	10	San Lucas Tolimán	1	Enero	2023-07-01T00:00:00	2024-11-08T05:00:00	1	Precipitación	0
99424	7	Sololá	713	San Lucas Tolimán	10	San Lucas Tolimán	1	Enero	2023-07-01T00:00:00	2024-11-08T05:00:00	8	Radiación solar	0
99425	7	Sololá	713	San Lucas Tolimán	10	San Lucas Tolimán	1	Enero	2023-07-01T00:00:00	2024-11-08T06:00:00	2	Temperatura media	14.3
99426	7	Sololá	713	San Lucas Tolimán	10	San Lucas Tolimán	1	Enero	2023-07-01T00:00:00	2024-11-08T06:00:00	4	Temperatura máxima	14.7
99427	7	Sololá	713	San Lucas Tolimán	10	San Lucas Tolimán	1	Enero	2023-07-01T00:00:00	2024-11-08T06:00:00	3	Temperatura mínima	14.3
99428	7	Sololá	713	San Lucas Tolimán	10	San Lucas Tolimán	1	Enero	2023-07-01T00:00:00	2024-11-08T06:00:00	5	Humedad	61
99429	7	Sololá	713	San Lucas Tolimán	10	San Lucas Tolimán	1	Enero	2023-07-01T00:00:00	2024-11-08T06:00:00	6	Velocidad del viento	1.6
99430	7	Sololá	713	San Lucas Tolimán	10	San Lucas Tolimán	1	Enero	2023-07-01T00:00:00	2024-11-08T06:00:00	7	Dirección del viento	1.61
99431	7	Sololá	713	San Lucas Tolimán	10	San Lucas Tolimán	1	Enero	2023-07-01T00:00:00	2024-11-08T06:00:00	1	Precipitación	0
99432	7	Sololá	713	San Lucas Tolimán	10	San Lucas Tolimán	1	Enero	2023-07-01T00:00:00	2024-11-08T06:00:00	8	Radiación solar	0
99433	7	Sololá	713	San Lucas Tolimán	10	San Lucas Tolimán	1	Enero	2023-07-01T00:00:00	2024-11-08T07:00:00	2	Temperatura media	15.1
99434	7	Sololá	713	San Lucas Tolimán	10	San Lucas Tolimán	1	Enero	2023-07-01T00:00:00	2024-11-08T07:00:00	4	Temperatura máxima	15.1
99435	7	Sololá	713	San Lucas Tolimán	10	San Lucas Tolimán	1	Enero	2023-07-01T00:00:00	2024-11-08T07:00:00	3	Temperatura mínima	14.2
99436	7	Sololá	713	San Lucas Tolimán	10	San Lucas Tolimán	1	Enero	2023-07-01T00:00:00	2024-11-08T07:00:00	5	Humedad	60
99437	7	Sololá	713	San Lucas Tolimán	10	San Lucas Tolimán	1	Enero	2023-07-01T00:00:00	2024-11-08T07:00:00	6	Velocidad del viento	1.6
99438	7	Sololá	713	San Lucas Tolimán	10	San Lucas Tolimán	1	Enero	2023-07-01T00:00:00	2024-11-08T07:00:00	7	Dirección del viento	1.61
99439	7	Sololá	713	San Lucas Tolimán	10	San Lucas Tolimán	1	Enero	2023-07-01T00:00:00	2024-11-08T07:00:00	1	Precipitación	0
99440	7	Sololá	713	San Lucas Tolimán	10	San Lucas Tolimán	1	Enero	2023-07-01T00:00:00	2024-11-08T07:00:00	8	Radiación solar	7
99441	7	Sololá	713	San Lucas Tolimán	10	San Lucas Tolimán	1	Enero	2023-07-01T00:00:00	2024-11-08T08:00:00	2	Temperatura media	17.2
99442	7	Sololá	713	San Lucas Tolimán	10	San Lucas Tolimán	1	Enero	2023-07-01T00:00:00	2024-11-08T08:00:00	4	Temperatura máxima	17.2
99443	7	Sololá	713	San Lucas Tolimán	10	San Lucas Tolimán	1	Enero	2023-07-01T00:00:00	2024-11-08T08:00:00	3	Temperatura mínima	15.1
99444	7	Sololá	713	San Lucas Tolimán	10	San Lucas Tolimán	1	Enero	2023-07-01T00:00:00	2024-11-08T08:00:00	5	Humedad	53
99445	7	Sololá	713	San Lucas Tolimán	10	San Lucas Tolimán	1	Enero	2023-07-01T00:00:00	2024-11-08T08:00:00	6	Velocidad del viento	3.2
99446	7	Sololá	713	San Lucas Tolimán	10	San Lucas Tolimán	1	Enero	2023-07-01T00:00:00	2024-11-08T08:00:00	7	Dirección del viento	3.22
99447	7	Sololá	713	San Lucas Tolimán	10	San Lucas Tolimán	1	Enero	2023-07-01T00:00:00	2024-11-08T08:00:00	1	Precipitación	0
99448	7	Sololá	713	San Lucas Tolimán	10	San Lucas Tolimán	1	Enero	2023-07-01T00:00:00	2024-11-08T08:00:00	8	Radiación solar	74
99449	7	Sololá	713	San Lucas Tolimán	10	San Lucas Tolimán	1	Enero	2023-07-01T00:00:00	2024-11-08T09:00:00	2	Temperatura media	18.9
99450	7	Sololá	713	San Lucas Tolimán	10	San Lucas Tolimán	1	Enero	2023-07-01T00:00:00	2024-11-08T09:00:00	4	Temperatura máxima	18.9
99451	7	Sololá	713	San Lucas Tolimán	10	San Lucas Tolimán	1	Enero	2023-07-01T00:00:00	2024-11-08T09:00:00	3	Temperatura mínima	17.2
99452	7	Sololá	713	San Lucas Tolimán	10	San Lucas Tolimán	1	Enero	2023-07-01T00:00:00	2024-11-08T09:00:00	5	Humedad	46
99453	7	Sololá	713	San Lucas Tolimán	10	San Lucas Tolimán	1	Enero	2023-07-01T00:00:00	2024-11-08T09:00:00	6	Velocidad del viento	6.4
99454	7	Sololá	713	San Lucas Tolimán	10	San Lucas Tolimán	1	Enero	2023-07-01T00:00:00	2024-11-08T09:00:00	7	Dirección del viento	6.44
99455	7	Sololá	713	San Lucas Tolimán	10	San Lucas Tolimán	1	Enero	2023-07-01T00:00:00	2024-11-08T09:00:00	1	Precipitación	0
99456	7	Sololá	713	San Lucas Tolimán	10	San Lucas Tolimán	1	Enero	2023-07-01T00:00:00	2024-11-08T09:00:00	8	Radiación solar	190
99457	7	Sololá	713	San Lucas Tolimán	10	San Lucas Tolimán	1	Enero	2023-07-01T00:00:00	2024-11-08T10:00:00	2	Temperatura media	20.3
99458	7	Sololá	713	San Lucas Tolimán	10	San Lucas Tolimán	1	Enero	2023-07-01T00:00:00	2024-11-08T10:00:00	4	Temperatura máxima	20.5
99459	7	Sololá	713	San Lucas Tolimán	10	San Lucas Tolimán	1	Enero	2023-07-01T00:00:00	2024-11-08T10:00:00	3	Temperatura mínima	18.9
99460	7	Sololá	713	San Lucas Tolimán	10	San Lucas Tolimán	1	Enero	2023-07-01T00:00:00	2024-11-08T10:00:00	5	Humedad	42
99461	7	Sololá	713	San Lucas Tolimán	10	San Lucas Tolimán	1	Enero	2023-07-01T00:00:00	2024-11-08T10:00:00	6	Velocidad del viento	6.4
99462	7	Sololá	713	San Lucas Tolimán	10	San Lucas Tolimán	1	Enero	2023-07-01T00:00:00	2024-11-08T10:00:00	7	Dirección del viento	6.44
99463	7	Sololá	713	San Lucas Tolimán	10	San Lucas Tolimán	1	Enero	2023-07-01T00:00:00	2024-11-08T10:00:00	1	Precipitación	0
99464	7	Sololá	713	San Lucas Tolimán	10	San Lucas Tolimán	1	Enero	2023-07-01T00:00:00	2024-11-08T10:00:00	8	Radiación solar	483
99465	7	Sololá	713	San Lucas Tolimán	10	San Lucas Tolimán	1	Enero	2023-07-01T00:00:00	2024-11-08T11:00:00	2	Temperatura media	20.6
99466	7	Sololá	713	San Lucas Tolimán	10	San Lucas Tolimán	1	Enero	2023-07-01T00:00:00	2024-11-08T11:00:00	4	Temperatura máxima	21.1
99467	7	Sololá	713	San Lucas Tolimán	10	San Lucas Tolimán	1	Enero	2023-07-01T00:00:00	2024-11-08T11:00:00	3	Temperatura mínima	20.3
99468	7	Sololá	713	San Lucas Tolimán	10	San Lucas Tolimán	1	Enero	2023-07-01T00:00:00	2024-11-08T11:00:00	5	Humedad	43
99469	7	Sololá	713	San Lucas Tolimán	10	San Lucas Tolimán	1	Enero	2023-07-01T00:00:00	2024-11-08T11:00:00	6	Velocidad del viento	6.4
99470	7	Sololá	713	San Lucas Tolimán	10	San Lucas Tolimán	1	Enero	2023-07-01T00:00:00	2024-11-08T11:00:00	7	Dirección del viento	6.44
99471	7	Sololá	713	San Lucas Tolimán	10	San Lucas Tolimán	1	Enero	2023-07-01T00:00:00	2024-11-08T11:00:00	1	Precipitación	0
99472	7	Sololá	713	San Lucas Tolimán	10	San Lucas Tolimán	1	Enero	2023-07-01T00:00:00	2024-11-08T11:00:00	8	Radiación solar	519
99473	7	Sololá	713	San Lucas Tolimán	10	San Lucas Tolimán	1	Enero	2023-07-01T00:00:00	2024-11-08T12:00:00	2	Temperatura media	21.8
99474	7	Sololá	713	San Lucas Tolimán	10	San Lucas Tolimán	1	Enero	2023-07-01T00:00:00	2024-11-08T12:00:00	4	Temperatura máxima	21.8
99475	7	Sololá	713	San Lucas Tolimán	10	San Lucas Tolimán	1	Enero	2023-07-01T00:00:00	2024-11-08T12:00:00	3	Temperatura mínima	20.4
99476	7	Sololá	713	San Lucas Tolimán	10	San Lucas Tolimán	1	Enero	2023-07-01T00:00:00	2024-11-08T12:00:00	5	Humedad	41
99477	7	Sololá	713	San Lucas Tolimán	10	San Lucas Tolimán	1	Enero	2023-07-01T00:00:00	2024-11-08T12:00:00	6	Velocidad del viento	9.7
99478	7	Sololá	713	San Lucas Tolimán	10	San Lucas Tolimán	1	Enero	2023-07-01T00:00:00	2024-11-08T12:00:00	7	Dirección del viento	9.66
99479	7	Sololá	713	San Lucas Tolimán	10	San Lucas Tolimán	1	Enero	2023-07-01T00:00:00	2024-11-08T12:00:00	1	Precipitación	0
99480	7	Sololá	713	San Lucas Tolimán	10	San Lucas Tolimán	1	Enero	2023-07-01T00:00:00	2024-11-08T12:00:00	8	Radiación solar	361
99481	7	Sololá	713	San Lucas Tolimán	10	San Lucas Tolimán	1	Enero	2023-07-01T00:00:00	2024-11-08T13:00:00	2	Temperatura media	21.8
99482	7	Sololá	713	San Lucas Tolimán	10	San Lucas Tolimán	1	Enero	2023-07-01T00:00:00	2024-11-08T13:00:00	4	Temperatura máxima	22.5
99483	7	Sololá	713	San Lucas Tolimán	10	San Lucas Tolimán	1	Enero	2023-07-01T00:00:00	2024-11-08T13:00:00	3	Temperatura mínima	21.8
99484	7	Sololá	713	San Lucas Tolimán	10	San Lucas Tolimán	1	Enero	2023-07-01T00:00:00	2024-11-08T13:00:00	5	Humedad	39
99485	7	Sololá	713	San Lucas Tolimán	10	San Lucas Tolimán	1	Enero	2023-07-01T00:00:00	2024-11-08T13:00:00	6	Velocidad del viento	8
99486	7	Sololá	713	San Lucas Tolimán	10	San Lucas Tolimán	1	Enero	2023-07-01T00:00:00	2024-11-08T13:00:00	7	Dirección del viento	8.05
99487	7	Sololá	713	San Lucas Tolimán	10	San Lucas Tolimán	1	Enero	2023-07-01T00:00:00	2024-11-08T13:00:00	1	Precipitación	0
99488	7	Sololá	713	San Lucas Tolimán	10	San Lucas Tolimán	1	Enero	2023-07-01T00:00:00	2024-11-08T13:00:00	8	Radiación solar	310
99489	7	Sololá	713	San Lucas Tolimán	10	San Lucas Tolimán	1	Enero	2023-07-01T00:00:00	2024-11-08T14:00:00	2	Temperatura media	21.1
99490	7	Sololá	713	San Lucas Tolimán	10	San Lucas Tolimán	1	Enero	2023-07-01T00:00:00	2024-11-08T14:00:00	4	Temperatura máxima	22
99491	7	Sololá	713	San Lucas Tolimán	10	San Lucas Tolimán	1	Enero	2023-07-01T00:00:00	2024-11-08T14:00:00	3	Temperatura mínima	20.6
99492	7	Sololá	713	San Lucas Tolimán	10	San Lucas Tolimán	1	Enero	2023-07-01T00:00:00	2024-11-08T14:00:00	5	Humedad	44
99493	7	Sololá	713	San Lucas Tolimán	10	San Lucas Tolimán	1	Enero	2023-07-01T00:00:00	2024-11-08T14:00:00	6	Velocidad del viento	6.4
99494	7	Sololá	713	San Lucas Tolimán	10	San Lucas Tolimán	1	Enero	2023-07-01T00:00:00	2024-11-08T14:00:00	7	Dirección del viento	6.44
99495	7	Sololá	713	San Lucas Tolimán	10	San Lucas Tolimán	1	Enero	2023-07-01T00:00:00	2024-11-08T14:00:00	1	Precipitación	0
99496	7	Sololá	713	San Lucas Tolimán	10	San Lucas Tolimán	1	Enero	2023-07-01T00:00:00	2024-11-08T14:00:00	8	Radiación solar	291
99497	7	Sololá	713	San Lucas Tolimán	10	San Lucas Tolimán	1	Enero	2023-07-01T00:00:00	2024-11-08T15:00:00	2	Temperatura media	21.7
99498	7	Sololá	713	San Lucas Tolimán	10	San Lucas Tolimán	1	Enero	2023-07-01T00:00:00	2024-11-08T15:00:00	4	Temperatura máxima	21.7
99499	7	Sololá	713	San Lucas Tolimán	10	San Lucas Tolimán	1	Enero	2023-07-01T00:00:00	2024-11-08T15:00:00	3	Temperatura mínima	21
99500	7	Sololá	713	San Lucas Tolimán	10	San Lucas Tolimán	1	Enero	2023-07-01T00:00:00	2024-11-08T15:00:00	5	Humedad	43
99501	7	Sololá	713	San Lucas Tolimán	10	San Lucas Tolimán	1	Enero	2023-07-01T00:00:00	2024-11-08T15:00:00	6	Velocidad del viento	9.7
99502	7	Sololá	713	San Lucas Tolimán	10	San Lucas Tolimán	1	Enero	2023-07-01T00:00:00	2024-11-08T15:00:00	7	Dirección del viento	9.66
99503	7	Sololá	713	San Lucas Tolimán	10	San Lucas Tolimán	1	Enero	2023-07-01T00:00:00	2024-11-08T15:00:00	1	Precipitación	0
99504	7	Sololá	713	San Lucas Tolimán	10	San Lucas Tolimán	1	Enero	2023-07-01T00:00:00	2024-11-08T15:00:00	8	Radiación solar	334
99505	7	Sololá	713	San Lucas Tolimán	10	San Lucas Tolimán	1	Enero	2023-07-01T00:00:00	2024-11-08T16:00:00	2	Temperatura media	20.5
99506	7	Sololá	713	San Lucas Tolimán	10	San Lucas Tolimán	1	Enero	2023-07-01T00:00:00	2024-11-08T16:00:00	4	Temperatura máxima	21.7
99507	7	Sololá	713	San Lucas Tolimán	10	San Lucas Tolimán	1	Enero	2023-07-01T00:00:00	2024-11-08T16:00:00	3	Temperatura mínima	20.5
99508	7	Sololá	713	San Lucas Tolimán	10	San Lucas Tolimán	1	Enero	2023-07-01T00:00:00	2024-11-08T16:00:00	5	Humedad	44
99509	7	Sololá	713	San Lucas Tolimán	10	San Lucas Tolimán	1	Enero	2023-07-01T00:00:00	2024-11-08T16:00:00	6	Velocidad del viento	11.3
99510	7	Sololá	713	San Lucas Tolimán	10	San Lucas Tolimán	1	Enero	2023-07-01T00:00:00	2024-11-08T16:00:00	7	Dirección del viento	11.27
99511	7	Sololá	713	San Lucas Tolimán	10	San Lucas Tolimán	1	Enero	2023-07-01T00:00:00	2024-11-08T16:00:00	1	Precipitación	0
99512	7	Sololá	713	San Lucas Tolimán	10	San Lucas Tolimán	1	Enero	2023-07-01T00:00:00	2024-11-08T16:00:00	8	Radiación solar	154
99513	7	Sololá	713	San Lucas Tolimán	10	San Lucas Tolimán	1	Enero	2023-07-01T00:00:00	2024-11-08T17:00:00	2	Temperatura media	19.8
99514	7	Sololá	713	San Lucas Tolimán	10	San Lucas Tolimán	1	Enero	2023-07-01T00:00:00	2024-11-08T17:00:00	4	Temperatura máxima	20.5
99515	7	Sololá	713	San Lucas Tolimán	10	San Lucas Tolimán	1	Enero	2023-07-01T00:00:00	2024-11-08T17:00:00	3	Temperatura mínima	19.7
99516	7	Sololá	713	San Lucas Tolimán	10	San Lucas Tolimán	1	Enero	2023-07-01T00:00:00	2024-11-08T17:00:00	5	Humedad	47
99517	7	Sololá	713	San Lucas Tolimán	10	San Lucas Tolimán	1	Enero	2023-07-01T00:00:00	2024-11-08T17:00:00	6	Velocidad del viento	9.7
99518	7	Sololá	713	San Lucas Tolimán	10	San Lucas Tolimán	1	Enero	2023-07-01T00:00:00	2024-11-08T17:00:00	7	Dirección del viento	9.66
99519	7	Sololá	713	San Lucas Tolimán	10	San Lucas Tolimán	1	Enero	2023-07-01T00:00:00	2024-11-08T17:00:00	1	Precipitación	0
99520	7	Sololá	713	San Lucas Tolimán	10	San Lucas Tolimán	1	Enero	2023-07-01T00:00:00	2024-11-08T17:00:00	8	Radiación solar	50
99521	7	Sololá	713	San Lucas Tolimán	10	San Lucas Tolimán	1	Enero	2023-07-01T00:00:00	2024-11-08T18:00:00	2	Temperatura media	19.1
99522	7	Sololá	713	San Lucas Tolimán	10	San Lucas Tolimán	1	Enero	2023-07-01T00:00:00	2024-11-08T18:00:00	4	Temperatura máxima	19.8
99523	7	Sololá	713	San Lucas Tolimán	10	San Lucas Tolimán	1	Enero	2023-07-01T00:00:00	2024-11-08T18:00:00	3	Temperatura mínima	19.1
99524	7	Sololá	713	San Lucas Tolimán	10	San Lucas Tolimán	1	Enero	2023-07-01T00:00:00	2024-11-08T18:00:00	5	Humedad	49
99525	7	Sololá	713	San Lucas Tolimán	10	San Lucas Tolimán	1	Enero	2023-07-01T00:00:00	2024-11-08T18:00:00	6	Velocidad del viento	9.7
99526	7	Sololá	713	San Lucas Tolimán	10	San Lucas Tolimán	1	Enero	2023-07-01T00:00:00	2024-11-08T18:00:00	7	Dirección del viento	9.66
99527	7	Sololá	713	San Lucas Tolimán	10	San Lucas Tolimán	1	Enero	2023-07-01T00:00:00	2024-11-08T18:00:00	1	Precipitación	0
99528	7	Sololá	713	San Lucas Tolimán	10	San Lucas Tolimán	1	Enero	2023-07-01T00:00:00	2024-11-08T18:00:00	8	Radiación solar	17
99529	7	Sololá	713	San Lucas Tolimán	10	San Lucas Tolimán	1	Enero	2023-07-01T00:00:00	2024-11-08T19:00:00	2	Temperatura media	18.3
99530	7	Sololá	713	San Lucas Tolimán	10	San Lucas Tolimán	1	Enero	2023-07-01T00:00:00	2024-11-08T19:00:00	4	Temperatura máxima	19.1
99531	7	Sololá	713	San Lucas Tolimán	10	San Lucas Tolimán	1	Enero	2023-07-01T00:00:00	2024-11-08T19:00:00	3	Temperatura mínima	18.2
99532	7	Sololá	713	San Lucas Tolimán	10	San Lucas Tolimán	1	Enero	2023-07-01T00:00:00	2024-11-08T19:00:00	5	Humedad	51
99533	7	Sololá	713	San Lucas Tolimán	10	San Lucas Tolimán	1	Enero	2023-07-01T00:00:00	2024-11-08T19:00:00	6	Velocidad del viento	6.4
99534	7	Sololá	713	San Lucas Tolimán	10	San Lucas Tolimán	1	Enero	2023-07-01T00:00:00	2024-11-08T19:00:00	7	Dirección del viento	6.44
99535	7	Sololá	713	San Lucas Tolimán	10	San Lucas Tolimán	1	Enero	2023-07-01T00:00:00	2024-11-08T19:00:00	1	Precipitación	0
99536	7	Sololá	713	San Lucas Tolimán	10	San Lucas Tolimán	1	Enero	2023-07-01T00:00:00	2024-11-08T19:00:00	8	Radiación solar	0
99537	7	Sololá	713	San Lucas Tolimán	10	San Lucas Tolimán	1	Enero	2023-07-01T00:00:00	2024-11-08T20:00:00	2	Temperatura media	17.8
99538	7	Sololá	713	San Lucas Tolimán	10	San Lucas Tolimán	1	Enero	2023-07-01T00:00:00	2024-11-08T20:00:00	4	Temperatura máxima	18.4
99539	7	Sololá	713	San Lucas Tolimán	10	San Lucas Tolimán	1	Enero	2023-07-01T00:00:00	2024-11-08T20:00:00	3	Temperatura mínima	17.7
99540	7	Sololá	713	San Lucas Tolimán	10	San Lucas Tolimán	1	Enero	2023-07-01T00:00:00	2024-11-08T20:00:00	5	Humedad	53
99541	7	Sololá	713	San Lucas Tolimán	10	San Lucas Tolimán	1	Enero	2023-07-01T00:00:00	2024-11-08T20:00:00	6	Velocidad del viento	6.4
99542	7	Sololá	713	San Lucas Tolimán	10	San Lucas Tolimán	1	Enero	2023-07-01T00:00:00	2024-11-08T20:00:00	7	Dirección del viento	6.44
99543	7	Sololá	713	San Lucas Tolimán	10	San Lucas Tolimán	1	Enero	2023-07-01T00:00:00	2024-11-08T20:00:00	1	Precipitación	0
99544	7	Sololá	713	San Lucas Tolimán	10	San Lucas Tolimán	1	Enero	2023-07-01T00:00:00	2024-11-08T20:00:00	8	Radiación solar	0
99545	7	Sololá	713	San Lucas Tolimán	10	San Lucas Tolimán	1	Enero	2023-07-01T00:00:00	2024-11-08T21:00:00	2	Temperatura media	17.8
99546	7	Sololá	713	San Lucas Tolimán	10	San Lucas Tolimán	1	Enero	2023-07-01T00:00:00	2024-11-08T21:00:00	4	Temperatura máxima	17.9
99547	7	Sololá	713	San Lucas Tolimán	10	San Lucas Tolimán	1	Enero	2023-07-01T00:00:00	2024-11-08T21:00:00	3	Temperatura mínima	17.7
99548	7	Sololá	713	San Lucas Tolimán	10	San Lucas Tolimán	1	Enero	2023-07-01T00:00:00	2024-11-08T21:00:00	5	Humedad	54
99549	7	Sololá	713	San Lucas Tolimán	10	San Lucas Tolimán	1	Enero	2023-07-01T00:00:00	2024-11-08T21:00:00	6	Velocidad del viento	6.4
99550	7	Sololá	713	San Lucas Tolimán	10	San Lucas Tolimán	1	Enero	2023-07-01T00:00:00	2024-11-08T21:00:00	7	Dirección del viento	6.44
99551	7	Sololá	713	San Lucas Tolimán	10	San Lucas Tolimán	1	Enero	2023-07-01T00:00:00	2024-11-08T21:00:00	1	Precipitación	0
99552	7	Sololá	713	San Lucas Tolimán	10	San Lucas Tolimán	1	Enero	2023-07-01T00:00:00	2024-11-08T21:00:00	8	Radiación solar	0
99553	7	Sololá	713	San Lucas Tolimán	10	San Lucas Tolimán	1	Enero	2023-07-01T00:00:00	2024-11-08T22:00:00	2	Temperatura media	17.3
99554	7	Sololá	713	San Lucas Tolimán	10	San Lucas Tolimán	1	Enero	2023-07-01T00:00:00	2024-11-08T22:00:00	4	Temperatura máxima	17.8
99555	7	Sololá	713	San Lucas Tolimán	10	San Lucas Tolimán	1	Enero	2023-07-01T00:00:00	2024-11-08T22:00:00	3	Temperatura mínima	17.2
99556	7	Sololá	713	San Lucas Tolimán	10	San Lucas Tolimán	1	Enero	2023-07-01T00:00:00	2024-11-08T22:00:00	5	Humedad	54
99557	7	Sololá	713	San Lucas Tolimán	10	San Lucas Tolimán	1	Enero	2023-07-01T00:00:00	2024-11-08T22:00:00	6	Velocidad del viento	4.8
99558	7	Sololá	713	San Lucas Tolimán	10	San Lucas Tolimán	1	Enero	2023-07-01T00:00:00	2024-11-08T22:00:00	7	Dirección del viento	4.83
99559	7	Sololá	713	San Lucas Tolimán	10	San Lucas Tolimán	1	Enero	2023-07-01T00:00:00	2024-11-08T22:00:00	1	Precipitación	0
99560	7	Sololá	713	San Lucas Tolimán	10	San Lucas Tolimán	1	Enero	2023-07-01T00:00:00	2024-11-08T22:00:00	8	Radiación solar	0
99561	7	Sololá	713	San Lucas Tolimán	10	San Lucas Tolimán	1	Enero	2023-07-01T00:00:00	2024-11-08T23:00:00	2	Temperatura media	17.1
99562	7	Sololá	713	San Lucas Tolimán	10	San Lucas Tolimán	1	Enero	2023-07-01T00:00:00	2024-11-08T23:00:00	4	Temperatura máxima	17.4
99563	7	Sololá	713	San Lucas Tolimán	10	San Lucas Tolimán	1	Enero	2023-07-01T00:00:00	2024-11-08T23:00:00	3	Temperatura mínima	17
99564	7	Sololá	713	San Lucas Tolimán	10	San Lucas Tolimán	1	Enero	2023-07-01T00:00:00	2024-11-08T23:00:00	5	Humedad	55
99565	7	Sololá	713	San Lucas Tolimán	10	San Lucas Tolimán	1	Enero	2023-07-01T00:00:00	2024-11-08T23:00:00	6	Velocidad del viento	3.2
99566	7	Sololá	713	San Lucas Tolimán	10	San Lucas Tolimán	1	Enero	2023-07-01T00:00:00	2024-11-08T23:00:00	7	Dirección del viento	3.22
99567	7	Sololá	713	San Lucas Tolimán	10	San Lucas Tolimán	1	Enero	2023-07-01T00:00:00	2024-11-08T23:00:00	1	Precipitación	0
99568	7	Sololá	713	San Lucas Tolimán	10	San Lucas Tolimán	1	Enero	2023-07-01T00:00:00	2024-11-08T23:00:00	8	Radiación solar	0
99569	7	Sololá	713	San Lucas Tolimán	10	San Lucas Tolimán	1	Enero	2023-08-01T00:00:00	2024-11-08T00:00:00	2	Temperatura media	17.2
99570	7	Sololá	713	San Lucas Tolimán	10	San Lucas Tolimán	1	Enero	2023-08-01T00:00:00	2024-11-08T00:00:00	4	Temperatura máxima	17.4
99571	7	Sololá	713	San Lucas Tolimán	10	San Lucas Tolimán	1	Enero	2023-08-01T00:00:00	2024-11-08T00:00:00	3	Temperatura mínima	17.1
99572	7	Sololá	713	San Lucas Tolimán	10	San Lucas Tolimán	1	Enero	2023-08-01T00:00:00	2024-11-08T00:00:00	5	Humedad	55
99573	7	Sololá	713	San Lucas Tolimán	10	San Lucas Tolimán	1	Enero	2023-08-01T00:00:00	2024-11-08T00:00:00	6	Velocidad del viento	4.8
99574	7	Sololá	713	San Lucas Tolimán	10	San Lucas Tolimán	1	Enero	2023-08-01T00:00:00	2024-11-08T00:00:00	7	Dirección del viento	4.83
99575	7	Sololá	713	San Lucas Tolimán	10	San Lucas Tolimán	1	Enero	2023-08-01T00:00:00	2024-11-08T00:00:00	1	Precipitación	0
99576	7	Sololá	713	San Lucas Tolimán	10	San Lucas Tolimán	1	Enero	2023-08-01T00:00:00	2024-11-08T00:00:00	8	Radiación solar	0
99577	7	Sololá	713	San Lucas Tolimán	10	San Lucas Tolimán	1	Enero	2023-08-01T00:00:00	2024-11-08T01:00:00	2	Temperatura media	17.1
99578	7	Sololá	713	San Lucas Tolimán	10	San Lucas Tolimán	1	Enero	2023-08-01T00:00:00	2024-11-08T01:00:00	4	Temperatura máxima	17.4
99579	7	Sololá	713	San Lucas Tolimán	10	San Lucas Tolimán	1	Enero	2023-08-01T00:00:00	2024-11-08T01:00:00	3	Temperatura mínima	16.9
99580	7	Sololá	713	San Lucas Tolimán	10	San Lucas Tolimán	1	Enero	2023-08-01T00:00:00	2024-11-08T01:00:00	5	Humedad	55
99581	7	Sololá	713	San Lucas Tolimán	10	San Lucas Tolimán	1	Enero	2023-08-01T00:00:00	2024-11-08T01:00:00	6	Velocidad del viento	4.8
99582	7	Sololá	713	San Lucas Tolimán	10	San Lucas Tolimán	1	Enero	2023-08-01T00:00:00	2024-11-08T01:00:00	7	Dirección del viento	4.83
99583	7	Sololá	713	San Lucas Tolimán	10	San Lucas Tolimán	1	Enero	2023-08-01T00:00:00	2024-11-08T01:00:00	1	Precipitación	0
99584	7	Sololá	713	San Lucas Tolimán	10	San Lucas Tolimán	1	Enero	2023-08-01T00:00:00	2024-11-08T01:00:00	8	Radiación solar	0
99585	7	Sololá	713	San Lucas Tolimán	10	San Lucas Tolimán	1	Enero	2023-08-01T00:00:00	2024-11-08T02:00:00	2	Temperatura media	17.1
99586	7	Sololá	713	San Lucas Tolimán	10	San Lucas Tolimán	1	Enero	2023-08-01T00:00:00	2024-11-08T02:00:00	4	Temperatura máxima	17.5
99587	7	Sololá	713	San Lucas Tolimán	10	San Lucas Tolimán	1	Enero	2023-08-01T00:00:00	2024-11-08T02:00:00	3	Temperatura mínima	16.6
99588	7	Sololá	713	San Lucas Tolimán	10	San Lucas Tolimán	1	Enero	2023-08-01T00:00:00	2024-11-08T02:00:00	5	Humedad	55
99589	7	Sololá	713	San Lucas Tolimán	10	San Lucas Tolimán	1	Enero	2023-08-01T00:00:00	2024-11-08T02:00:00	6	Velocidad del viento	6.4
99590	7	Sololá	713	San Lucas Tolimán	10	San Lucas Tolimán	1	Enero	2023-08-01T00:00:00	2024-11-08T02:00:00	7	Dirección del viento	6.44
99591	7	Sololá	713	San Lucas Tolimán	10	San Lucas Tolimán	1	Enero	2023-08-01T00:00:00	2024-11-08T02:00:00	1	Precipitación	0
99592	7	Sololá	713	San Lucas Tolimán	10	San Lucas Tolimán	1	Enero	2023-08-01T00:00:00	2024-11-08T02:00:00	8	Radiación solar	0
99593	7	Sololá	713	San Lucas Tolimán	10	San Lucas Tolimán	1	Enero	2023-08-01T00:00:00	2024-11-08T03:00:00	2	Temperatura media	15.6
99594	7	Sololá	713	San Lucas Tolimán	10	San Lucas Tolimán	1	Enero	2023-08-01T00:00:00	2024-11-08T03:00:00	4	Temperatura máxima	17.1
99595	7	Sololá	713	San Lucas Tolimán	10	San Lucas Tolimán	1	Enero	2023-08-01T00:00:00	2024-11-08T03:00:00	3	Temperatura mínima	15.6
99596	7	Sololá	713	San Lucas Tolimán	10	San Lucas Tolimán	1	Enero	2023-08-01T00:00:00	2024-11-08T03:00:00	5	Humedad	59
99597	7	Sololá	713	San Lucas Tolimán	10	San Lucas Tolimán	1	Enero	2023-08-01T00:00:00	2024-11-08T03:00:00	6	Velocidad del viento	3.2
99598	7	Sololá	713	San Lucas Tolimán	10	San Lucas Tolimán	1	Enero	2023-08-01T00:00:00	2024-11-08T03:00:00	7	Dirección del viento	3.22
99599	7	Sololá	713	San Lucas Tolimán	10	San Lucas Tolimán	1	Enero	2023-08-01T00:00:00	2024-11-08T03:00:00	1	Precipitación	0
99600	7	Sololá	713	San Lucas Tolimán	10	San Lucas Tolimán	1	Enero	2023-08-01T00:00:00	2024-11-08T03:00:00	8	Radiación solar	0
99601	7	Sololá	713	San Lucas Tolimán	10	San Lucas Tolimán	1	Enero	2023-08-01T00:00:00	2024-11-08T04:00:00	2	Temperatura media	15.7
99602	7	Sololá	713	San Lucas Tolimán	10	San Lucas Tolimán	1	Enero	2023-08-01T00:00:00	2024-11-08T04:00:00	4	Temperatura máxima	15.9
99603	7	Sololá	713	San Lucas Tolimán	10	San Lucas Tolimán	1	Enero	2023-08-01T00:00:00	2024-11-08T04:00:00	3	Temperatura mínima	15.4
99604	7	Sololá	713	San Lucas Tolimán	10	San Lucas Tolimán	1	Enero	2023-08-01T00:00:00	2024-11-08T04:00:00	5	Humedad	59
99605	7	Sololá	713	San Lucas Tolimán	10	San Lucas Tolimán	1	Enero	2023-08-01T00:00:00	2024-11-08T04:00:00	6	Velocidad del viento	3.2
99606	7	Sololá	713	San Lucas Tolimán	10	San Lucas Tolimán	1	Enero	2023-08-01T00:00:00	2024-11-08T04:00:00	7	Dirección del viento	3.22
99607	7	Sololá	713	San Lucas Tolimán	10	San Lucas Tolimán	1	Enero	2023-08-01T00:00:00	2024-11-08T04:00:00	1	Precipitación	0
99608	7	Sololá	713	San Lucas Tolimán	10	San Lucas Tolimán	1	Enero	2023-08-01T00:00:00	2024-11-08T04:00:00	8	Radiación solar	0
99609	7	Sololá	713	San Lucas Tolimán	10	San Lucas Tolimán	1	Enero	2023-08-01T00:00:00	2024-11-08T05:00:00	2	Temperatura media	15.3
99610	7	Sololá	713	San Lucas Tolimán	10	San Lucas Tolimán	1	Enero	2023-08-01T00:00:00	2024-11-08T05:00:00	4	Temperatura máxima	16.4
99611	7	Sololá	713	San Lucas Tolimán	10	San Lucas Tolimán	1	Enero	2023-08-01T00:00:00	2024-11-08T05:00:00	3	Temperatura mínima	15.2
99612	7	Sololá	713	San Lucas Tolimán	10	San Lucas Tolimán	1	Enero	2023-08-01T00:00:00	2024-11-08T05:00:00	5	Humedad	60
99613	7	Sololá	713	San Lucas Tolimán	10	San Lucas Tolimán	1	Enero	2023-08-01T00:00:00	2024-11-08T05:00:00	6	Velocidad del viento	4.8
99614	7	Sololá	713	San Lucas Tolimán	10	San Lucas Tolimán	1	Enero	2023-08-01T00:00:00	2024-11-08T05:00:00	7	Dirección del viento	4.83
99615	7	Sololá	713	San Lucas Tolimán	10	San Lucas Tolimán	1	Enero	2023-08-01T00:00:00	2024-11-08T05:00:00	1	Precipitación	0
99616	7	Sololá	713	San Lucas Tolimán	10	San Lucas Tolimán	1	Enero	2023-08-01T00:00:00	2024-11-08T05:00:00	8	Radiación solar	0
99617	7	Sololá	713	San Lucas Tolimán	10	San Lucas Tolimán	1	Enero	2023-08-01T00:00:00	2024-11-08T06:00:00	2	Temperatura media	15
99618	7	Sololá	713	San Lucas Tolimán	10	San Lucas Tolimán	1	Enero	2023-08-01T00:00:00	2024-11-08T06:00:00	4	Temperatura máxima	15.6
99619	7	Sololá	713	San Lucas Tolimán	10	San Lucas Tolimán	1	Enero	2023-08-01T00:00:00	2024-11-08T06:00:00	3	Temperatura mínima	14.6
99620	7	Sololá	713	San Lucas Tolimán	10	San Lucas Tolimán	1	Enero	2023-08-01T00:00:00	2024-11-08T06:00:00	5	Humedad	61
99621	7	Sololá	713	San Lucas Tolimán	10	San Lucas Tolimán	1	Enero	2023-08-01T00:00:00	2024-11-08T06:00:00	6	Velocidad del viento	1.6
99622	7	Sololá	713	San Lucas Tolimán	10	San Lucas Tolimán	1	Enero	2023-08-01T00:00:00	2024-11-08T06:00:00	7	Dirección del viento	1.61
99623	7	Sololá	713	San Lucas Tolimán	10	San Lucas Tolimán	1	Enero	2023-08-01T00:00:00	2024-11-08T06:00:00	1	Precipitación	0
99624	7	Sololá	713	San Lucas Tolimán	10	San Lucas Tolimán	1	Enero	2023-08-01T00:00:00	2024-11-08T06:00:00	8	Radiación solar	0
99625	7	Sololá	713	San Lucas Tolimán	10	San Lucas Tolimán	1	Enero	2023-08-01T00:00:00	2024-11-08T07:00:00	2	Temperatura media	15.2
99626	7	Sololá	713	San Lucas Tolimán	10	San Lucas Tolimán	1	Enero	2023-08-01T00:00:00	2024-11-08T07:00:00	4	Temperatura máxima	15.9
99627	7	Sololá	713	San Lucas Tolimán	10	San Lucas Tolimán	1	Enero	2023-08-01T00:00:00	2024-11-08T07:00:00	3	Temperatura mínima	14.9
99628	7	Sololá	713	San Lucas Tolimán	10	San Lucas Tolimán	1	Enero	2023-08-01T00:00:00	2024-11-08T07:00:00	5	Humedad	61
99629	7	Sololá	713	San Lucas Tolimán	10	San Lucas Tolimán	1	Enero	2023-08-01T00:00:00	2024-11-08T07:00:00	6	Velocidad del viento	1.6
99630	7	Sololá	713	San Lucas Tolimán	10	San Lucas Tolimán	1	Enero	2023-08-01T00:00:00	2024-11-08T07:00:00	7	Dirección del viento	1.61
99631	7	Sololá	713	San Lucas Tolimán	10	San Lucas Tolimán	1	Enero	2023-08-01T00:00:00	2024-11-08T07:00:00	1	Precipitación	0
99632	7	Sololá	713	San Lucas Tolimán	10	San Lucas Tolimán	1	Enero	2023-08-01T00:00:00	2024-11-08T07:00:00	8	Radiación solar	4
99633	7	Sololá	713	San Lucas Tolimán	10	San Lucas Tolimán	1	Enero	2023-08-01T00:00:00	2024-11-08T08:00:00	2	Temperatura media	16.4
99634	7	Sololá	713	San Lucas Tolimán	10	San Lucas Tolimán	1	Enero	2023-08-01T00:00:00	2024-11-08T08:00:00	4	Temperatura máxima	16.5
99635	7	Sololá	713	San Lucas Tolimán	10	San Lucas Tolimán	1	Enero	2023-08-01T00:00:00	2024-11-08T08:00:00	3	Temperatura mínima	15.2
99636	7	Sololá	713	San Lucas Tolimán	10	San Lucas Tolimán	1	Enero	2023-08-01T00:00:00	2024-11-08T08:00:00	5	Humedad	58
99637	7	Sololá	713	San Lucas Tolimán	10	San Lucas Tolimán	1	Enero	2023-08-01T00:00:00	2024-11-08T08:00:00	6	Velocidad del viento	3.2
99638	7	Sololá	713	San Lucas Tolimán	10	San Lucas Tolimán	1	Enero	2023-08-01T00:00:00	2024-11-08T08:00:00	7	Dirección del viento	3.22
99639	7	Sololá	713	San Lucas Tolimán	10	San Lucas Tolimán	1	Enero	2023-08-01T00:00:00	2024-11-08T08:00:00	1	Precipitación	0
99640	7	Sololá	713	San Lucas Tolimán	10	San Lucas Tolimán	1	Enero	2023-08-01T00:00:00	2024-11-08T08:00:00	8	Radiación solar	21
99641	7	Sololá	713	San Lucas Tolimán	10	San Lucas Tolimán	1	Enero	2023-08-01T00:00:00	2024-11-08T09:00:00	2	Temperatura media	18.8
99642	7	Sololá	713	San Lucas Tolimán	10	San Lucas Tolimán	1	Enero	2023-08-01T00:00:00	2024-11-08T09:00:00	4	Temperatura máxima	18.8
99643	7	Sololá	713	San Lucas Tolimán	10	San Lucas Tolimán	1	Enero	2023-08-01T00:00:00	2024-11-08T09:00:00	3	Temperatura mínima	16.4
99644	7	Sololá	713	San Lucas Tolimán	10	San Lucas Tolimán	1	Enero	2023-08-01T00:00:00	2024-11-08T09:00:00	5	Humedad	54
99645	7	Sololá	713	San Lucas Tolimán	10	San Lucas Tolimán	1	Enero	2023-08-01T00:00:00	2024-11-08T09:00:00	6	Velocidad del viento	4.8
99646	7	Sololá	713	San Lucas Tolimán	10	San Lucas Tolimán	1	Enero	2023-08-01T00:00:00	2024-11-08T09:00:00	7	Dirección del viento	4.83
99647	7	Sololá	713	San Lucas Tolimán	10	San Lucas Tolimán	1	Enero	2023-08-01T00:00:00	2024-11-08T09:00:00	1	Precipitación	0
99648	7	Sololá	713	San Lucas Tolimán	10	San Lucas Tolimán	1	Enero	2023-08-01T00:00:00	2024-11-08T09:00:00	8	Radiación solar	266
99649	7	Sololá	713	San Lucas Tolimán	10	San Lucas Tolimán	1	Enero	2023-08-01T00:00:00	2024-11-08T10:00:00	2	Temperatura media	20
99650	7	Sololá	713	San Lucas Tolimán	10	San Lucas Tolimán	1	Enero	2023-08-01T00:00:00	2024-11-08T10:00:00	4	Temperatura máxima	20.9
99651	7	Sololá	713	San Lucas Tolimán	10	San Lucas Tolimán	1	Enero	2023-08-01T00:00:00	2024-11-08T10:00:00	3	Temperatura mínima	18.8
99652	7	Sololá	713	San Lucas Tolimán	10	San Lucas Tolimán	1	Enero	2023-08-01T00:00:00	2024-11-08T10:00:00	5	Humedad	51
99653	7	Sololá	713	San Lucas Tolimán	10	San Lucas Tolimán	1	Enero	2023-08-01T00:00:00	2024-11-08T10:00:00	6	Velocidad del viento	3.2
99654	7	Sololá	713	San Lucas Tolimán	10	San Lucas Tolimán	1	Enero	2023-08-01T00:00:00	2024-11-08T10:00:00	7	Dirección del viento	3.22
99655	7	Sololá	713	San Lucas Tolimán	10	San Lucas Tolimán	1	Enero	2023-08-01T00:00:00	2024-11-08T10:00:00	1	Precipitación	0
99656	7	Sololá	713	San Lucas Tolimán	10	San Lucas Tolimán	1	Enero	2023-08-01T00:00:00	2024-11-08T10:00:00	8	Radiación solar	364
99657	7	Sololá	713	San Lucas Tolimán	10	San Lucas Tolimán	1	Enero	2023-08-01T00:00:00	2024-11-08T11:00:00	2	Temperatura media	22.4
99658	7	Sololá	713	San Lucas Tolimán	10	San Lucas Tolimán	1	Enero	2023-08-01T00:00:00	2024-11-08T11:00:00	4	Temperatura máxima	22.4
99659	7	Sololá	713	San Lucas Tolimán	10	San Lucas Tolimán	1	Enero	2023-08-01T00:00:00	2024-11-08T11:00:00	3	Temperatura mínima	19.9
99660	7	Sololá	713	San Lucas Tolimán	10	San Lucas Tolimán	1	Enero	2023-08-01T00:00:00	2024-11-08T11:00:00	5	Humedad	51
99661	7	Sololá	713	San Lucas Tolimán	10	San Lucas Tolimán	1	Enero	2023-08-01T00:00:00	2024-11-08T11:00:00	6	Velocidad del viento	3.2
99662	7	Sololá	713	San Lucas Tolimán	10	San Lucas Tolimán	1	Enero	2023-08-01T00:00:00	2024-11-08T11:00:00	7	Dirección del viento	3.22
99663	7	Sololá	713	San Lucas Tolimán	10	San Lucas Tolimán	1	Enero	2023-08-01T00:00:00	2024-11-08T11:00:00	1	Precipitación	0
99664	7	Sololá	713	San Lucas Tolimán	10	San Lucas Tolimán	1	Enero	2023-08-01T00:00:00	2024-11-08T11:00:00	8	Radiación solar	523
99665	7	Sololá	713	San Lucas Tolimán	10	San Lucas Tolimán	1	Enero	2023-08-01T00:00:00	2024-11-08T12:00:00	2	Temperatura media	22.9
99666	7	Sololá	713	San Lucas Tolimán	10	San Lucas Tolimán	1	Enero	2023-08-01T00:00:00	2024-11-08T12:00:00	4	Temperatura máxima	23.6
99667	7	Sololá	713	San Lucas Tolimán	10	San Lucas Tolimán	1	Enero	2023-08-01T00:00:00	2024-11-08T12:00:00	3	Temperatura mínima	22.4
99668	7	Sololá	713	San Lucas Tolimán	10	San Lucas Tolimán	1	Enero	2023-08-01T00:00:00	2024-11-08T12:00:00	5	Humedad	54
99669	7	Sololá	713	San Lucas Tolimán	10	San Lucas Tolimán	1	Enero	2023-08-01T00:00:00	2024-11-08T12:00:00	6	Velocidad del viento	8
99670	7	Sololá	713	San Lucas Tolimán	10	San Lucas Tolimán	1	Enero	2023-08-01T00:00:00	2024-11-08T12:00:00	7	Dirección del viento	8.05
99671	7	Sololá	713	San Lucas Tolimán	10	San Lucas Tolimán	1	Enero	2023-08-01T00:00:00	2024-11-08T12:00:00	1	Precipitación	0
99672	7	Sololá	713	San Lucas Tolimán	10	San Lucas Tolimán	1	Enero	2023-08-01T00:00:00	2024-11-08T12:00:00	8	Radiación solar	878
99673	7	Sololá	713	San Lucas Tolimán	10	San Lucas Tolimán	1	Enero	2023-08-01T00:00:00	2024-11-08T13:00:00	2	Temperatura media	22.4
99674	7	Sololá	713	San Lucas Tolimán	10	San Lucas Tolimán	1	Enero	2023-08-01T00:00:00	2024-11-08T13:00:00	4	Temperatura máxima	23.3
99675	7	Sololá	713	San Lucas Tolimán	10	San Lucas Tolimán	1	Enero	2023-08-01T00:00:00	2024-11-08T13:00:00	3	Temperatura mínima	22.2
99676	7	Sololá	713	San Lucas Tolimán	10	San Lucas Tolimán	1	Enero	2023-08-01T00:00:00	2024-11-08T13:00:00	5	Humedad	56
99677	7	Sololá	713	San Lucas Tolimán	10	San Lucas Tolimán	1	Enero	2023-08-01T00:00:00	2024-11-08T13:00:00	6	Velocidad del viento	9.7
99678	7	Sololá	713	San Lucas Tolimán	10	San Lucas Tolimán	1	Enero	2023-08-01T00:00:00	2024-11-08T13:00:00	7	Dirección del viento	9.66
99679	7	Sololá	713	San Lucas Tolimán	10	San Lucas Tolimán	1	Enero	2023-08-01T00:00:00	2024-11-08T13:00:00	1	Precipitación	0
99680	7	Sololá	713	San Lucas Tolimán	10	San Lucas Tolimán	1	Enero	2023-08-01T00:00:00	2024-11-08T13:00:00	8	Radiación solar	916
99681	7	Sololá	713	San Lucas Tolimán	10	San Lucas Tolimán	1	Enero	2023-08-01T00:00:00	2024-11-08T14:00:00	2	Temperatura media	22.3
99682	7	Sololá	713	San Lucas Tolimán	10	San Lucas Tolimán	1	Enero	2023-08-01T00:00:00	2024-11-08T14:00:00	4	Temperatura máxima	22.7
99683	7	Sololá	713	San Lucas Tolimán	10	San Lucas Tolimán	1	Enero	2023-08-01T00:00:00	2024-11-08T14:00:00	3	Temperatura mínima	21.6
99684	7	Sololá	713	San Lucas Tolimán	10	San Lucas Tolimán	1	Enero	2023-08-01T00:00:00	2024-11-08T14:00:00	5	Humedad	56
99685	7	Sololá	713	San Lucas Tolimán	10	San Lucas Tolimán	1	Enero	2023-08-01T00:00:00	2024-11-08T14:00:00	6	Velocidad del viento	9.7
99686	7	Sololá	713	San Lucas Tolimán	10	San Lucas Tolimán	1	Enero	2023-08-01T00:00:00	2024-11-08T14:00:00	7	Dirección del viento	9.66
99687	7	Sololá	713	San Lucas Tolimán	10	San Lucas Tolimán	1	Enero	2023-08-01T00:00:00	2024-11-08T14:00:00	1	Precipitación	0
99688	7	Sololá	713	San Lucas Tolimán	10	San Lucas Tolimán	1	Enero	2023-08-01T00:00:00	2024-11-08T14:00:00	8	Radiación solar	778
99689	7	Sololá	713	San Lucas Tolimán	10	San Lucas Tolimán	1	Enero	2023-08-01T00:00:00	2024-11-08T15:00:00	2	Temperatura media	21.6
99690	7	Sololá	713	San Lucas Tolimán	10	San Lucas Tolimán	1	Enero	2023-08-01T00:00:00	2024-11-08T15:00:00	4	Temperatura máxima	22.8
99691	7	Sololá	713	San Lucas Tolimán	10	San Lucas Tolimán	1	Enero	2023-08-01T00:00:00	2024-11-08T15:00:00	3	Temperatura mínima	21.6
99692	7	Sololá	713	San Lucas Tolimán	10	San Lucas Tolimán	1	Enero	2023-08-01T00:00:00	2024-11-08T15:00:00	5	Humedad	58
99693	7	Sololá	713	San Lucas Tolimán	10	San Lucas Tolimán	1	Enero	2023-08-01T00:00:00	2024-11-08T15:00:00	6	Velocidad del viento	11.3
99694	7	Sololá	713	San Lucas Tolimán	10	San Lucas Tolimán	1	Enero	2023-08-01T00:00:00	2024-11-08T15:00:00	7	Dirección del viento	11.27
99695	7	Sololá	713	San Lucas Tolimán	10	San Lucas Tolimán	1	Enero	2023-08-01T00:00:00	2024-11-08T15:00:00	1	Precipitación	0
99696	7	Sololá	713	San Lucas Tolimán	10	San Lucas Tolimán	1	Enero	2023-08-01T00:00:00	2024-11-08T15:00:00	8	Radiación solar	684
99697	7	Sololá	713	San Lucas Tolimán	10	San Lucas Tolimán	1	Enero	2023-08-01T00:00:00	2024-11-08T16:00:00	2	Temperatura media	20.2
99698	7	Sololá	713	San Lucas Tolimán	10	San Lucas Tolimán	1	Enero	2023-08-01T00:00:00	2024-11-08T16:00:00	4	Temperatura máxima	21.6
99699	7	Sololá	713	San Lucas Tolimán	10	San Lucas Tolimán	1	Enero	2023-08-01T00:00:00	2024-11-08T16:00:00	3	Temperatura mínima	20.2
99700	7	Sololá	713	San Lucas Tolimán	10	San Lucas Tolimán	1	Enero	2023-08-01T00:00:00	2024-11-08T16:00:00	5	Humedad	61
99701	7	Sololá	713	San Lucas Tolimán	10	San Lucas Tolimán	1	Enero	2023-08-01T00:00:00	2024-11-08T16:00:00	6	Velocidad del viento	12.9
99702	7	Sololá	713	San Lucas Tolimán	10	San Lucas Tolimán	1	Enero	2023-08-01T00:00:00	2024-11-08T16:00:00	7	Dirección del viento	12.87
99703	7	Sololá	713	San Lucas Tolimán	10	San Lucas Tolimán	1	Enero	2023-08-01T00:00:00	2024-11-08T16:00:00	1	Precipitación	0
99704	7	Sololá	713	San Lucas Tolimán	10	San Lucas Tolimán	1	Enero	2023-08-01T00:00:00	2024-11-08T16:00:00	8	Radiación solar	490
99705	7	Sololá	713	San Lucas Tolimán	10	San Lucas Tolimán	1	Enero	2023-08-01T00:00:00	2024-11-08T17:00:00	2	Temperatura media	18.7
99706	7	Sololá	713	San Lucas Tolimán	10	San Lucas Tolimán	1	Enero	2023-08-01T00:00:00	2024-11-08T17:00:00	4	Temperatura máxima	20.2
99707	7	Sololá	713	San Lucas Tolimán	10	San Lucas Tolimán	1	Enero	2023-08-01T00:00:00	2024-11-08T17:00:00	3	Temperatura mínima	18.7
99708	7	Sololá	713	San Lucas Tolimán	10	San Lucas Tolimán	1	Enero	2023-08-01T00:00:00	2024-11-08T17:00:00	5	Humedad	63
99709	7	Sololá	713	San Lucas Tolimán	10	San Lucas Tolimán	1	Enero	2023-08-01T00:00:00	2024-11-08T17:00:00	6	Velocidad del viento	9.7
99710	7	Sololá	713	San Lucas Tolimán	10	San Lucas Tolimán	1	Enero	2023-08-01T00:00:00	2024-11-08T17:00:00	7	Dirección del viento	9.66
99711	7	Sololá	713	San Lucas Tolimán	10	San Lucas Tolimán	1	Enero	2023-08-01T00:00:00	2024-11-08T17:00:00	1	Precipitación	0
99712	7	Sololá	713	San Lucas Tolimán	10	San Lucas Tolimán	1	Enero	2023-08-01T00:00:00	2024-11-08T17:00:00	8	Radiación solar	111
99713	7	Sololá	713	San Lucas Tolimán	10	San Lucas Tolimán	1	Enero	2023-08-01T00:00:00	2024-11-08T18:00:00	2	Temperatura media	18.1
99714	7	Sololá	713	San Lucas Tolimán	10	San Lucas Tolimán	1	Enero	2023-08-01T00:00:00	2024-11-08T18:00:00	4	Temperatura máxima	18.7
99715	7	Sololá	713	San Lucas Tolimán	10	San Lucas Tolimán	1	Enero	2023-08-01T00:00:00	2024-11-08T18:00:00	3	Temperatura mínima	18
99716	7	Sololá	713	San Lucas Tolimán	10	San Lucas Tolimán	1	Enero	2023-08-01T00:00:00	2024-11-08T18:00:00	5	Humedad	62
99717	7	Sololá	713	San Lucas Tolimán	10	San Lucas Tolimán	1	Enero	2023-08-01T00:00:00	2024-11-08T18:00:00	6	Velocidad del viento	6.4
99718	7	Sololá	713	San Lucas Tolimán	10	San Lucas Tolimán	1	Enero	2023-08-01T00:00:00	2024-11-08T18:00:00	7	Dirección del viento	6.44
99719	7	Sololá	713	San Lucas Tolimán	10	San Lucas Tolimán	1	Enero	2023-08-01T00:00:00	2024-11-08T18:00:00	1	Precipitación	0
99720	7	Sololá	713	San Lucas Tolimán	10	San Lucas Tolimán	1	Enero	2023-08-01T00:00:00	2024-11-08T18:00:00	8	Radiación solar	10
99721	7	Sololá	713	San Lucas Tolimán	10	San Lucas Tolimán	1	Enero	2023-08-01T00:00:00	2024-11-08T19:00:00	2	Temperatura media	17.2
99722	7	Sololá	713	San Lucas Tolimán	10	San Lucas Tolimán	1	Enero	2023-08-01T00:00:00	2024-11-08T19:00:00	4	Temperatura máxima	18.1
99723	7	Sololá	713	San Lucas Tolimán	10	San Lucas Tolimán	1	Enero	2023-08-01T00:00:00	2024-11-08T19:00:00	3	Temperatura mínima	17.2
99724	7	Sololá	713	San Lucas Tolimán	10	San Lucas Tolimán	1	Enero	2023-08-01T00:00:00	2024-11-08T19:00:00	5	Humedad	63
99725	7	Sololá	713	San Lucas Tolimán	10	San Lucas Tolimán	1	Enero	2023-08-01T00:00:00	2024-11-08T19:00:00	6	Velocidad del viento	3.2
99726	7	Sololá	713	San Lucas Tolimán	10	San Lucas Tolimán	1	Enero	2023-08-01T00:00:00	2024-11-08T19:00:00	7	Dirección del viento	3.22
99727	7	Sololá	713	San Lucas Tolimán	10	San Lucas Tolimán	1	Enero	2023-08-01T00:00:00	2024-11-08T19:00:00	1	Precipitación	0
99728	7	Sololá	713	San Lucas Tolimán	10	San Lucas Tolimán	1	Enero	2023-08-01T00:00:00	2024-11-08T19:00:00	8	Radiación solar	0
99729	7	Sololá	713	San Lucas Tolimán	10	San Lucas Tolimán	1	Enero	2023-08-01T00:00:00	2024-11-08T20:00:00	2	Temperatura media	17.6
99730	7	Sololá	713	San Lucas Tolimán	10	San Lucas Tolimán	1	Enero	2023-08-01T00:00:00	2024-11-08T20:00:00	4	Temperatura máxima	17.6
99731	7	Sololá	713	San Lucas Tolimán	10	San Lucas Tolimán	1	Enero	2023-08-01T00:00:00	2024-11-08T20:00:00	3	Temperatura mínima	16.7
99732	7	Sololá	713	San Lucas Tolimán	10	San Lucas Tolimán	1	Enero	2023-08-01T00:00:00	2024-11-08T20:00:00	5	Humedad	56
99733	7	Sololá	713	San Lucas Tolimán	10	San Lucas Tolimán	1	Enero	2023-08-01T00:00:00	2024-11-08T20:00:00	6	Velocidad del viento	4.8
99734	7	Sololá	713	San Lucas Tolimán	10	San Lucas Tolimán	1	Enero	2023-08-01T00:00:00	2024-11-08T20:00:00	7	Dirección del viento	4.83
99735	7	Sololá	713	San Lucas Tolimán	10	San Lucas Tolimán	1	Enero	2023-08-01T00:00:00	2024-11-08T20:00:00	1	Precipitación	0
99736	7	Sololá	713	San Lucas Tolimán	10	San Lucas Tolimán	1	Enero	2023-08-01T00:00:00	2024-11-08T20:00:00	8	Radiación solar	0
99737	7	Sololá	713	San Lucas Tolimán	10	San Lucas Tolimán	1	Enero	2023-08-01T00:00:00	2024-11-08T21:00:00	2	Temperatura media	18.2
99738	7	Sololá	713	San Lucas Tolimán	10	San Lucas Tolimán	1	Enero	2023-08-01T00:00:00	2024-11-08T21:00:00	4	Temperatura máxima	18.4
99739	7	Sololá	713	San Lucas Tolimán	10	San Lucas Tolimán	1	Enero	2023-08-01T00:00:00	2024-11-08T21:00:00	3	Temperatura mínima	17.6
99740	7	Sololá	713	San Lucas Tolimán	10	San Lucas Tolimán	1	Enero	2023-08-01T00:00:00	2024-11-08T21:00:00	5	Humedad	56
99741	7	Sololá	713	San Lucas Tolimán	10	San Lucas Tolimán	1	Enero	2023-08-01T00:00:00	2024-11-08T21:00:00	6	Velocidad del viento	3.2
99742	7	Sololá	713	San Lucas Tolimán	10	San Lucas Tolimán	1	Enero	2023-08-01T00:00:00	2024-11-08T21:00:00	7	Dirección del viento	3.22
99743	7	Sololá	713	San Lucas Tolimán	10	San Lucas Tolimán	1	Enero	2023-08-01T00:00:00	2024-11-08T21:00:00	1	Precipitación	0
99744	7	Sololá	713	San Lucas Tolimán	10	San Lucas Tolimán	1	Enero	2023-08-01T00:00:00	2024-11-08T21:00:00	8	Radiación solar	0
99745	7	Sololá	713	San Lucas Tolimán	10	San Lucas Tolimán	1	Enero	2023-08-01T00:00:00	2024-11-08T22:00:00	2	Temperatura media	17.3
99746	7	Sololá	713	San Lucas Tolimán	10	San Lucas Tolimán	1	Enero	2023-08-01T00:00:00	2024-11-08T22:00:00	4	Temperatura máxima	18.3
99747	7	Sololá	713	San Lucas Tolimán	10	San Lucas Tolimán	1	Enero	2023-08-01T00:00:00	2024-11-08T22:00:00	3	Temperatura mínima	17.2
99748	7	Sololá	713	San Lucas Tolimán	10	San Lucas Tolimán	1	Enero	2023-08-01T00:00:00	2024-11-08T22:00:00	5	Humedad	59
99749	7	Sololá	713	San Lucas Tolimán	10	San Lucas Tolimán	1	Enero	2023-08-01T00:00:00	2024-11-08T22:00:00	6	Velocidad del viento	1.6
99750	7	Sololá	713	San Lucas Tolimán	10	San Lucas Tolimán	1	Enero	2023-08-01T00:00:00	2024-11-08T22:00:00	7	Dirección del viento	1.61
99751	7	Sololá	713	San Lucas Tolimán	10	San Lucas Tolimán	1	Enero	2023-08-01T00:00:00	2024-11-08T22:00:00	1	Precipitación	0
99752	7	Sololá	713	San Lucas Tolimán	10	San Lucas Tolimán	1	Enero	2023-08-01T00:00:00	2024-11-08T22:00:00	8	Radiación solar	0
99753	7	Sololá	713	San Lucas Tolimán	10	San Lucas Tolimán	1	Enero	2023-08-01T00:00:00	2024-11-08T23:00:00	2	Temperatura media	18.2
99754	7	Sololá	713	San Lucas Tolimán	10	San Lucas Tolimán	1	Enero	2023-08-01T00:00:00	2024-11-08T23:00:00	4	Temperatura máxima	18.5
99755	7	Sololá	713	San Lucas Tolimán	10	San Lucas Tolimán	1	Enero	2023-08-01T00:00:00	2024-11-08T23:00:00	3	Temperatura mínima	17.1
99756	7	Sololá	713	San Lucas Tolimán	10	San Lucas Tolimán	1	Enero	2023-08-01T00:00:00	2024-11-08T23:00:00	5	Humedad	56
99757	7	Sololá	713	San Lucas Tolimán	10	San Lucas Tolimán	1	Enero	2023-08-01T00:00:00	2024-11-08T23:00:00	6	Velocidad del viento	6.4
99758	7	Sololá	713	San Lucas Tolimán	10	San Lucas Tolimán	1	Enero	2023-08-01T00:00:00	2024-11-08T23:00:00	7	Dirección del viento	6.44
99759	7	Sololá	713	San Lucas Tolimán	10	San Lucas Tolimán	1	Enero	2023-08-01T00:00:00	2024-11-08T23:00:00	1	Precipitación	0
99760	7	Sololá	713	San Lucas Tolimán	10	San Lucas Tolimán	1	Enero	2023-08-01T00:00:00	2024-11-08T23:00:00	8	Radiación solar	0
99761	7	Sololá	713	San Lucas Tolimán	10	San Lucas Tolimán	1	Enero	2023-09-01T00:00:00	2024-11-08T00:00:00	2	Temperatura media	16.9
99762	7	Sololá	713	San Lucas Tolimán	10	San Lucas Tolimán	1	Enero	2023-09-01T00:00:00	2024-11-08T00:00:00	4	Temperatura máxima	18.2
99763	7	Sololá	713	San Lucas Tolimán	10	San Lucas Tolimán	1	Enero	2023-09-01T00:00:00	2024-11-08T00:00:00	3	Temperatura mínima	16.9
99764	7	Sololá	713	San Lucas Tolimán	10	San Lucas Tolimán	1	Enero	2023-09-01T00:00:00	2024-11-08T00:00:00	5	Humedad	58
99765	7	Sololá	713	San Lucas Tolimán	10	San Lucas Tolimán	1	Enero	2023-09-01T00:00:00	2024-11-08T00:00:00	6	Velocidad del viento	3.2
99766	7	Sololá	713	San Lucas Tolimán	10	San Lucas Tolimán	1	Enero	2023-09-01T00:00:00	2024-11-08T00:00:00	7	Dirección del viento	3.22
99767	7	Sololá	713	San Lucas Tolimán	10	San Lucas Tolimán	1	Enero	2023-09-01T00:00:00	2024-11-08T00:00:00	1	Precipitación	0
99768	7	Sololá	713	San Lucas Tolimán	10	San Lucas Tolimán	1	Enero	2023-09-01T00:00:00	2024-11-08T00:00:00	8	Radiación solar	0
99769	7	Sololá	713	San Lucas Tolimán	10	San Lucas Tolimán	1	Enero	2023-09-01T00:00:00	2024-11-08T01:00:00	2	Temperatura media	15.9
99770	7	Sololá	713	San Lucas Tolimán	10	San Lucas Tolimán	1	Enero	2023-09-01T00:00:00	2024-11-08T01:00:00	4	Temperatura máxima	16.9
99771	7	Sololá	713	San Lucas Tolimán	10	San Lucas Tolimán	1	Enero	2023-09-01T00:00:00	2024-11-08T01:00:00	3	Temperatura mínima	15.9
99772	7	Sololá	713	San Lucas Tolimán	10	San Lucas Tolimán	1	Enero	2023-09-01T00:00:00	2024-11-08T01:00:00	5	Humedad	60
99773	7	Sololá	713	San Lucas Tolimán	10	San Lucas Tolimán	1	Enero	2023-09-01T00:00:00	2024-11-08T01:00:00	6	Velocidad del viento	1.6
99774	7	Sololá	713	San Lucas Tolimán	10	San Lucas Tolimán	1	Enero	2023-09-01T00:00:00	2024-11-08T01:00:00	7	Dirección del viento	1.61
99775	7	Sololá	713	San Lucas Tolimán	10	San Lucas Tolimán	1	Enero	2023-09-01T00:00:00	2024-11-08T01:00:00	1	Precipitación	0
99776	7	Sololá	713	San Lucas Tolimán	10	San Lucas Tolimán	1	Enero	2023-09-01T00:00:00	2024-11-08T01:00:00	8	Radiación solar	0
99777	7	Sololá	713	San Lucas Tolimán	10	San Lucas Tolimán	1	Enero	2023-09-01T00:00:00	2024-11-08T02:00:00	2	Temperatura media	15.4
99778	7	Sololá	713	San Lucas Tolimán	10	San Lucas Tolimán	1	Enero	2023-09-01T00:00:00	2024-11-08T02:00:00	4	Temperatura máxima	16
99779	7	Sololá	713	San Lucas Tolimán	10	San Lucas Tolimán	1	Enero	2023-09-01T00:00:00	2024-11-08T02:00:00	3	Temperatura mínima	15.4
99780	7	Sololá	713	San Lucas Tolimán	10	San Lucas Tolimán	1	Enero	2023-09-01T00:00:00	2024-11-08T02:00:00	5	Humedad	61
99781	7	Sololá	713	San Lucas Tolimán	10	San Lucas Tolimán	1	Enero	2023-09-01T00:00:00	2024-11-08T02:00:00	6	Velocidad del viento	1.6
99782	7	Sololá	713	San Lucas Tolimán	10	San Lucas Tolimán	1	Enero	2023-09-01T00:00:00	2024-11-08T02:00:00	7	Dirección del viento	1.61
99783	7	Sololá	713	San Lucas Tolimán	10	San Lucas Tolimán	1	Enero	2023-09-01T00:00:00	2024-11-08T02:00:00	1	Precipitación	0
99784	7	Sololá	713	San Lucas Tolimán	10	San Lucas Tolimán	1	Enero	2023-09-01T00:00:00	2024-11-08T02:00:00	8	Radiación solar	0
99785	7	Sololá	713	San Lucas Tolimán	10	San Lucas Tolimán	1	Enero	2023-09-01T00:00:00	2024-11-08T03:00:00	2	Temperatura media	14.5
99786	7	Sololá	713	San Lucas Tolimán	10	San Lucas Tolimán	1	Enero	2023-09-01T00:00:00	2024-11-08T03:00:00	4	Temperatura máxima	15.4
99787	7	Sololá	713	San Lucas Tolimán	10	San Lucas Tolimán	1	Enero	2023-09-01T00:00:00	2024-11-08T03:00:00	3	Temperatura mínima	14.5
99788	7	Sololá	713	San Lucas Tolimán	10	San Lucas Tolimán	1	Enero	2023-09-01T00:00:00	2024-11-08T03:00:00	5	Humedad	62
99789	7	Sololá	713	San Lucas Tolimán	10	San Lucas Tolimán	1	Enero	2023-09-01T00:00:00	2024-11-08T03:00:00	6	Velocidad del viento	0
99790	7	Sololá	713	San Lucas Tolimán	10	San Lucas Tolimán	1	Enero	2023-09-01T00:00:00	2024-11-08T03:00:00	7	Dirección del viento	0
99791	7	Sololá	713	San Lucas Tolimán	10	San Lucas Tolimán	1	Enero	2023-09-01T00:00:00	2024-11-08T03:00:00	1	Precipitación	0
99792	7	Sololá	713	San Lucas Tolimán	10	San Lucas Tolimán	1	Enero	2023-09-01T00:00:00	2024-11-08T03:00:00	8	Radiación solar	0
99793	7	Sololá	713	San Lucas Tolimán	10	San Lucas Tolimán	1	Enero	2023-09-01T00:00:00	2024-11-08T04:00:00	2	Temperatura media	14.4
99794	7	Sololá	713	San Lucas Tolimán	10	San Lucas Tolimán	1	Enero	2023-09-01T00:00:00	2024-11-08T04:00:00	4	Temperatura máxima	14.8
99795	7	Sololá	713	San Lucas Tolimán	10	San Lucas Tolimán	1	Enero	2023-09-01T00:00:00	2024-11-08T04:00:00	3	Temperatura mínima	14.4
99796	7	Sololá	713	San Lucas Tolimán	10	San Lucas Tolimán	1	Enero	2023-09-01T00:00:00	2024-11-08T04:00:00	5	Humedad	62
99797	7	Sololá	713	San Lucas Tolimán	10	San Lucas Tolimán	1	Enero	2023-09-01T00:00:00	2024-11-08T04:00:00	6	Velocidad del viento	0
99798	7	Sololá	713	San Lucas Tolimán	10	San Lucas Tolimán	1	Enero	2023-09-01T00:00:00	2024-11-08T04:00:00	7	Dirección del viento	0
99799	7	Sololá	713	San Lucas Tolimán	10	San Lucas Tolimán	1	Enero	2023-09-01T00:00:00	2024-11-08T04:00:00	1	Precipitación	0
99800	7	Sololá	713	San Lucas Tolimán	10	San Lucas Tolimán	1	Enero	2023-09-01T00:00:00	2024-11-08T04:00:00	8	Radiación solar	0
99801	7	Sololá	713	San Lucas Tolimán	10	San Lucas Tolimán	1	Enero	2023-09-01T00:00:00	2024-11-08T05:00:00	2	Temperatura media	14.2
99802	7	Sololá	713	San Lucas Tolimán	10	San Lucas Tolimán	1	Enero	2023-09-01T00:00:00	2024-11-08T05:00:00	4	Temperatura máxima	14.7
99803	7	Sololá	713	San Lucas Tolimán	10	San Lucas Tolimán	1	Enero	2023-09-01T00:00:00	2024-11-08T05:00:00	3	Temperatura mínima	14.2
99804	7	Sololá	713	San Lucas Tolimán	10	San Lucas Tolimán	1	Enero	2023-09-01T00:00:00	2024-11-08T05:00:00	5	Humedad	62
99805	7	Sololá	713	San Lucas Tolimán	10	San Lucas Tolimán	1	Enero	2023-09-01T00:00:00	2024-11-08T05:00:00	6	Velocidad del viento	0
99806	7	Sololá	713	San Lucas Tolimán	10	San Lucas Tolimán	1	Enero	2023-09-01T00:00:00	2024-11-08T05:00:00	7	Dirección del viento	0
99807	7	Sololá	713	San Lucas Tolimán	10	San Lucas Tolimán	1	Enero	2023-09-01T00:00:00	2024-11-08T05:00:00	1	Precipitación	0
99808	7	Sololá	713	San Lucas Tolimán	10	San Lucas Tolimán	1	Enero	2023-09-01T00:00:00	2024-11-08T05:00:00	8	Radiación solar	0
99809	7	Sololá	713	San Lucas Tolimán	10	San Lucas Tolimán	1	Enero	2023-09-01T00:00:00	2024-11-08T06:00:00	2	Temperatura media	14.6
99810	7	Sololá	713	San Lucas Tolimán	10	San Lucas Tolimán	1	Enero	2023-09-01T00:00:00	2024-11-08T06:00:00	4	Temperatura máxima	14.7
99811	7	Sololá	713	San Lucas Tolimán	10	San Lucas Tolimán	1	Enero	2023-09-01T00:00:00	2024-11-08T06:00:00	3	Temperatura mínima	14.1
99812	7	Sololá	713	San Lucas Tolimán	10	San Lucas Tolimán	1	Enero	2023-09-01T00:00:00	2024-11-08T06:00:00	5	Humedad	62
99813	7	Sololá	713	San Lucas Tolimán	10	San Lucas Tolimán	1	Enero	2023-09-01T00:00:00	2024-11-08T06:00:00	6	Velocidad del viento	1.6
99814	7	Sololá	713	San Lucas Tolimán	10	San Lucas Tolimán	1	Enero	2023-09-01T00:00:00	2024-11-08T06:00:00	7	Dirección del viento	1.61
99815	7	Sololá	713	San Lucas Tolimán	10	San Lucas Tolimán	1	Enero	2023-09-01T00:00:00	2024-11-08T06:00:00	1	Precipitación	0
99816	7	Sololá	713	San Lucas Tolimán	10	San Lucas Tolimán	1	Enero	2023-09-01T00:00:00	2024-11-08T06:00:00	8	Radiación solar	0
99817	7	Sololá	713	San Lucas Tolimán	10	San Lucas Tolimán	1	Enero	2023-09-01T00:00:00	2024-11-08T07:00:00	2	Temperatura media	13.6
99818	7	Sololá	713	San Lucas Tolimán	10	San Lucas Tolimán	1	Enero	2023-09-01T00:00:00	2024-11-08T07:00:00	4	Temperatura máxima	14.6
99819	7	Sololá	713	San Lucas Tolimán	10	San Lucas Tolimán	1	Enero	2023-09-01T00:00:00	2024-11-08T07:00:00	3	Temperatura mínima	13.4
99820	7	Sololá	713	San Lucas Tolimán	10	San Lucas Tolimán	1	Enero	2023-09-01T00:00:00	2024-11-08T07:00:00	5	Humedad	63
99821	7	Sololá	713	San Lucas Tolimán	10	San Lucas Tolimán	1	Enero	2023-09-01T00:00:00	2024-11-08T07:00:00	6	Velocidad del viento	0
99822	7	Sololá	713	San Lucas Tolimán	10	San Lucas Tolimán	1	Enero	2023-09-01T00:00:00	2024-11-08T07:00:00	7	Dirección del viento	0
99823	7	Sololá	713	San Lucas Tolimán	10	San Lucas Tolimán	1	Enero	2023-09-01T00:00:00	2024-11-08T07:00:00	1	Precipitación	0
99824	7	Sololá	713	San Lucas Tolimán	10	San Lucas Tolimán	1	Enero	2023-09-01T00:00:00	2024-11-08T07:00:00	8	Radiación solar	4
99825	7	Sololá	713	San Lucas Tolimán	10	San Lucas Tolimán	1	Enero	2023-09-01T00:00:00	2024-11-08T08:00:00	2	Temperatura media	15
99826	7	Sololá	713	San Lucas Tolimán	10	San Lucas Tolimán	1	Enero	2023-09-01T00:00:00	2024-11-08T08:00:00	4	Temperatura máxima	15
99827	7	Sololá	713	San Lucas Tolimán	10	San Lucas Tolimán	1	Enero	2023-09-01T00:00:00	2024-11-08T08:00:00	3	Temperatura mínima	13.6
99828	7	Sololá	713	San Lucas Tolimán	10	San Lucas Tolimán	1	Enero	2023-09-01T00:00:00	2024-11-08T08:00:00	5	Humedad	61
99829	7	Sololá	713	San Lucas Tolimán	10	San Lucas Tolimán	1	Enero	2023-09-01T00:00:00	2024-11-08T08:00:00	6	Velocidad del viento	3.2
99830	7	Sololá	713	San Lucas Tolimán	10	San Lucas Tolimán	1	Enero	2023-09-01T00:00:00	2024-11-08T08:00:00	7	Dirección del viento	3.22
99831	7	Sololá	713	San Lucas Tolimán	10	San Lucas Tolimán	1	Enero	2023-09-01T00:00:00	2024-11-08T08:00:00	1	Precipitación	0
99832	7	Sololá	713	San Lucas Tolimán	10	San Lucas Tolimán	1	Enero	2023-09-01T00:00:00	2024-11-08T08:00:00	8	Radiación solar	20
99833	7	Sololá	713	San Lucas Tolimán	10	San Lucas Tolimán	1	Enero	2023-09-01T00:00:00	2024-11-08T09:00:00	2	Temperatura media	19.3
99834	7	Sololá	713	San Lucas Tolimán	10	San Lucas Tolimán	1	Enero	2023-09-01T00:00:00	2024-11-08T09:00:00	4	Temperatura máxima	19.4
99835	7	Sololá	713	San Lucas Tolimán	10	San Lucas Tolimán	1	Enero	2023-09-01T00:00:00	2024-11-08T09:00:00	3	Temperatura mínima	15.1
99836	7	Sololá	713	San Lucas Tolimán	10	San Lucas Tolimán	1	Enero	2023-09-01T00:00:00	2024-11-08T09:00:00	5	Humedad	52
99837	7	Sololá	713	San Lucas Tolimán	10	San Lucas Tolimán	1	Enero	2023-09-01T00:00:00	2024-11-08T09:00:00	6	Velocidad del viento	1.6
99838	7	Sololá	713	San Lucas Tolimán	10	San Lucas Tolimán	1	Enero	2023-09-01T00:00:00	2024-11-08T09:00:00	7	Dirección del viento	1.61
99839	7	Sololá	713	San Lucas Tolimán	10	San Lucas Tolimán	1	Enero	2023-09-01T00:00:00	2024-11-08T09:00:00	1	Precipitación	0
99840	7	Sololá	713	San Lucas Tolimán	10	San Lucas Tolimán	1	Enero	2023-09-01T00:00:00	2024-11-08T09:00:00	8	Radiación solar	256
99841	7	Sololá	713	San Lucas Tolimán	10	San Lucas Tolimán	1	Enero	2023-09-01T00:00:00	2024-11-08T10:00:00	2	Temperatura media	20.3
99842	7	Sololá	713	San Lucas Tolimán	10	San Lucas Tolimán	1	Enero	2023-09-01T00:00:00	2024-11-08T10:00:00	4	Temperatura máxima	22
99843	7	Sololá	713	San Lucas Tolimán	10	San Lucas Tolimán	1	Enero	2023-09-01T00:00:00	2024-11-08T10:00:00	3	Temperatura mínima	19.2
99844	7	Sololá	713	San Lucas Tolimán	10	San Lucas Tolimán	1	Enero	2023-09-01T00:00:00	2024-11-08T10:00:00	5	Humedad	51
99845	7	Sololá	713	San Lucas Tolimán	10	San Lucas Tolimán	1	Enero	2023-09-01T00:00:00	2024-11-08T10:00:00	6	Velocidad del viento	3.2
99846	7	Sololá	713	San Lucas Tolimán	10	San Lucas Tolimán	1	Enero	2023-09-01T00:00:00	2024-11-08T10:00:00	7	Dirección del viento	3.22
99847	7	Sololá	713	San Lucas Tolimán	10	San Lucas Tolimán	1	Enero	2023-09-01T00:00:00	2024-11-08T10:00:00	1	Precipitación	0
99848	7	Sololá	713	San Lucas Tolimán	10	San Lucas Tolimán	1	Enero	2023-09-01T00:00:00	2024-11-08T10:00:00	8	Radiación solar	590
99849	7	Sololá	713	San Lucas Tolimán	10	San Lucas Tolimán	1	Enero	2023-09-01T00:00:00	2024-11-08T11:00:00	2	Temperatura media	22.3
99850	7	Sololá	713	San Lucas Tolimán	10	San Lucas Tolimán	1	Enero	2023-09-01T00:00:00	2024-11-08T11:00:00	4	Temperatura máxima	22.6
99851	7	Sololá	713	San Lucas Tolimán	10	San Lucas Tolimán	1	Enero	2023-09-01T00:00:00	2024-11-08T11:00:00	3	Temperatura mínima	20.4
99852	7	Sololá	713	San Lucas Tolimán	10	San Lucas Tolimán	1	Enero	2023-09-01T00:00:00	2024-11-08T11:00:00	5	Humedad	53
99853	7	Sololá	713	San Lucas Tolimán	10	San Lucas Tolimán	1	Enero	2023-09-01T00:00:00	2024-11-08T11:00:00	6	Velocidad del viento	4.8
99854	7	Sololá	713	San Lucas Tolimán	10	San Lucas Tolimán	1	Enero	2023-09-01T00:00:00	2024-11-08T11:00:00	7	Dirección del viento	4.83
99855	7	Sololá	713	San Lucas Tolimán	10	San Lucas Tolimán	1	Enero	2023-09-01T00:00:00	2024-11-08T11:00:00	1	Precipitación	0
99856	7	Sololá	713	San Lucas Tolimán	10	San Lucas Tolimán	1	Enero	2023-09-01T00:00:00	2024-11-08T11:00:00	8	Radiación solar	775
99857	7	Sololá	713	San Lucas Tolimán	10	San Lucas Tolimán	1	Enero	2023-09-01T00:00:00	2024-11-08T12:00:00	2	Temperatura media	22.1
99858	7	Sololá	713	San Lucas Tolimán	10	San Lucas Tolimán	1	Enero	2023-09-01T00:00:00	2024-11-08T12:00:00	4	Temperatura máxima	22.4
99859	7	Sololá	713	San Lucas Tolimán	10	San Lucas Tolimán	1	Enero	2023-09-01T00:00:00	2024-11-08T12:00:00	3	Temperatura mínima	21.3
99860	7	Sololá	713	San Lucas Tolimán	10	San Lucas Tolimán	1	Enero	2023-09-01T00:00:00	2024-11-08T12:00:00	5	Humedad	57
99861	7	Sololá	713	San Lucas Tolimán	10	San Lucas Tolimán	1	Enero	2023-09-01T00:00:00	2024-11-08T12:00:00	6	Velocidad del viento	9.7
99862	7	Sololá	713	San Lucas Tolimán	10	San Lucas Tolimán	1	Enero	2023-09-01T00:00:00	2024-11-08T12:00:00	7	Dirección del viento	9.66
99863	7	Sololá	713	San Lucas Tolimán	10	San Lucas Tolimán	1	Enero	2023-09-01T00:00:00	2024-11-08T12:00:00	1	Precipitación	0
99864	7	Sololá	713	San Lucas Tolimán	10	San Lucas Tolimán	1	Enero	2023-09-01T00:00:00	2024-11-08T12:00:00	8	Radiación solar	894
99865	7	Sololá	713	San Lucas Tolimán	10	San Lucas Tolimán	1	Enero	2023-09-01T00:00:00	2024-11-08T13:00:00	2	Temperatura media	21.6
99866	7	Sololá	713	San Lucas Tolimán	10	San Lucas Tolimán	1	Enero	2023-09-01T00:00:00	2024-11-08T13:00:00	4	Temperatura máxima	22.5
99867	7	Sololá	713	San Lucas Tolimán	10	San Lucas Tolimán	1	Enero	2023-09-01T00:00:00	2024-11-08T13:00:00	3	Temperatura mínima	21.4
99868	7	Sololá	713	San Lucas Tolimán	10	San Lucas Tolimán	1	Enero	2023-09-01T00:00:00	2024-11-08T13:00:00	5	Humedad	57
99869	7	Sololá	713	San Lucas Tolimán	10	San Lucas Tolimán	1	Enero	2023-09-01T00:00:00	2024-11-08T13:00:00	6	Velocidad del viento	11.3
99870	7	Sololá	713	San Lucas Tolimán	10	San Lucas Tolimán	1	Enero	2023-09-01T00:00:00	2024-11-08T13:00:00	7	Dirección del viento	11.27
99871	7	Sololá	713	San Lucas Tolimán	10	San Lucas Tolimán	1	Enero	2023-09-01T00:00:00	2024-11-08T13:00:00	1	Precipitación	0
99872	7	Sololá	713	San Lucas Tolimán	10	San Lucas Tolimán	1	Enero	2023-09-01T00:00:00	2024-11-08T13:00:00	8	Radiación solar	967
99873	7	Sololá	713	San Lucas Tolimán	10	San Lucas Tolimán	1	Enero	2023-09-01T00:00:00	2024-11-08T14:00:00	2	Temperatura media	21.6
99874	7	Sololá	713	San Lucas Tolimán	10	San Lucas Tolimán	1	Enero	2023-09-01T00:00:00	2024-11-08T14:00:00	4	Temperatura máxima	22.3
99875	7	Sololá	713	San Lucas Tolimán	10	San Lucas Tolimán	1	Enero	2023-09-01T00:00:00	2024-11-08T14:00:00	3	Temperatura mínima	20.7
99876	7	Sololá	713	San Lucas Tolimán	10	San Lucas Tolimán	1	Enero	2023-09-01T00:00:00	2024-11-08T14:00:00	5	Humedad	58
99877	7	Sololá	713	San Lucas Tolimán	10	San Lucas Tolimán	1	Enero	2023-09-01T00:00:00	2024-11-08T14:00:00	6	Velocidad del viento	11.3
99878	7	Sololá	713	San Lucas Tolimán	10	San Lucas Tolimán	1	Enero	2023-09-01T00:00:00	2024-11-08T14:00:00	7	Dirección del viento	11.27
99879	7	Sololá	713	San Lucas Tolimán	10	San Lucas Tolimán	1	Enero	2023-09-01T00:00:00	2024-11-08T14:00:00	1	Precipitación	0
99880	7	Sololá	713	San Lucas Tolimán	10	San Lucas Tolimán	1	Enero	2023-09-01T00:00:00	2024-11-08T14:00:00	8	Radiación solar	816
99881	7	Sololá	713	San Lucas Tolimán	10	San Lucas Tolimán	1	Enero	2023-09-01T00:00:00	2024-11-08T15:00:00	2	Temperatura media	20.8
99882	7	Sololá	713	San Lucas Tolimán	10	San Lucas Tolimán	1	Enero	2023-09-01T00:00:00	2024-11-08T15:00:00	4	Temperatura máxima	22.1
99883	7	Sololá	713	San Lucas Tolimán	10	San Lucas Tolimán	1	Enero	2023-09-01T00:00:00	2024-11-08T15:00:00	3	Temperatura mínima	20.8
99884	7	Sololá	713	San Lucas Tolimán	10	San Lucas Tolimán	1	Enero	2023-09-01T00:00:00	2024-11-08T15:00:00	5	Humedad	59
99885	7	Sololá	713	San Lucas Tolimán	10	San Lucas Tolimán	1	Enero	2023-09-01T00:00:00	2024-11-08T15:00:00	6	Velocidad del viento	12.9
99886	7	Sololá	713	San Lucas Tolimán	10	San Lucas Tolimán	1	Enero	2023-09-01T00:00:00	2024-11-08T15:00:00	7	Dirección del viento	12.87
99887	7	Sololá	713	San Lucas Tolimán	10	San Lucas Tolimán	1	Enero	2023-09-01T00:00:00	2024-11-08T15:00:00	1	Precipitación	0
99888	7	Sololá	713	San Lucas Tolimán	10	San Lucas Tolimán	1	Enero	2023-09-01T00:00:00	2024-11-08T15:00:00	8	Radiación solar	633
99889	7	Sololá	713	San Lucas Tolimán	10	San Lucas Tolimán	1	Enero	2023-09-01T00:00:00	2024-11-08T16:00:00	2	Temperatura media	20.9
99890	7	Sololá	713	San Lucas Tolimán	10	San Lucas Tolimán	1	Enero	2023-09-01T00:00:00	2024-11-08T16:00:00	4	Temperatura máxima	21.2
99891	7	Sololá	713	San Lucas Tolimán	10	San Lucas Tolimán	1	Enero	2023-09-01T00:00:00	2024-11-08T16:00:00	3	Temperatura mínima	20.3
99892	7	Sololá	713	San Lucas Tolimán	10	San Lucas Tolimán	1	Enero	2023-09-01T00:00:00	2024-11-08T16:00:00	5	Humedad	58
99893	7	Sololá	713	San Lucas Tolimán	10	San Lucas Tolimán	1	Enero	2023-09-01T00:00:00	2024-11-08T16:00:00	6	Velocidad del viento	12.9
99894	7	Sololá	713	San Lucas Tolimán	10	San Lucas Tolimán	1	Enero	2023-09-01T00:00:00	2024-11-08T16:00:00	7	Dirección del viento	12.87
99895	7	Sololá	713	San Lucas Tolimán	10	San Lucas Tolimán	1	Enero	2023-09-01T00:00:00	2024-11-08T16:00:00	1	Precipitación	0
99896	7	Sololá	713	San Lucas Tolimán	10	San Lucas Tolimán	1	Enero	2023-09-01T00:00:00	2024-11-08T16:00:00	8	Radiación solar	405
99897	7	Sololá	713	San Lucas Tolimán	10	San Lucas Tolimán	1	Enero	2023-09-01T00:00:00	2024-11-08T17:00:00	2	Temperatura media	18.6
99898	7	Sololá	713	San Lucas Tolimán	10	San Lucas Tolimán	1	Enero	2023-09-01T00:00:00	2024-11-08T17:00:00	4	Temperatura máxima	20.9
99899	7	Sololá	713	San Lucas Tolimán	10	San Lucas Tolimán	1	Enero	2023-09-01T00:00:00	2024-11-08T17:00:00	3	Temperatura mínima	18.6
99900	7	Sololá	713	San Lucas Tolimán	10	San Lucas Tolimán	1	Enero	2023-09-01T00:00:00	2024-11-08T17:00:00	5	Humedad	63
99901	7	Sololá	713	San Lucas Tolimán	10	San Lucas Tolimán	1	Enero	2023-09-01T00:00:00	2024-11-08T17:00:00	6	Velocidad del viento	14.5
99902	7	Sololá	713	San Lucas Tolimán	10	San Lucas Tolimán	1	Enero	2023-09-01T00:00:00	2024-11-08T17:00:00	7	Dirección del viento	14.48
99903	7	Sololá	713	San Lucas Tolimán	10	San Lucas Tolimán	1	Enero	2023-09-01T00:00:00	2024-11-08T17:00:00	1	Precipitación	0
99904	7	Sololá	713	San Lucas Tolimán	10	San Lucas Tolimán	1	Enero	2023-09-01T00:00:00	2024-11-08T17:00:00	8	Radiación solar	133
99905	7	Sololá	713	San Lucas Tolimán	10	San Lucas Tolimán	1	Enero	2023-09-01T00:00:00	2024-11-08T18:00:00	2	Temperatura media	17.7
99906	7	Sololá	713	San Lucas Tolimán	10	San Lucas Tolimán	1	Enero	2023-09-01T00:00:00	2024-11-08T18:00:00	4	Temperatura máxima	18.6
99907	7	Sololá	713	San Lucas Tolimán	10	San Lucas Tolimán	1	Enero	2023-09-01T00:00:00	2024-11-08T18:00:00	3	Temperatura mínima	17.7
99908	7	Sololá	713	San Lucas Tolimán	10	San Lucas Tolimán	1	Enero	2023-09-01T00:00:00	2024-11-08T18:00:00	5	Humedad	63
99909	7	Sololá	713	San Lucas Tolimán	10	San Lucas Tolimán	1	Enero	2023-09-01T00:00:00	2024-11-08T18:00:00	6	Velocidad del viento	11.3
99910	7	Sololá	713	San Lucas Tolimán	10	San Lucas Tolimán	1	Enero	2023-09-01T00:00:00	2024-11-08T18:00:00	7	Dirección del viento	11.27
99911	7	Sololá	713	San Lucas Tolimán	10	San Lucas Tolimán	1	Enero	2023-09-01T00:00:00	2024-11-08T18:00:00	1	Precipitación	0
99912	7	Sololá	713	San Lucas Tolimán	10	San Lucas Tolimán	1	Enero	2023-09-01T00:00:00	2024-11-08T18:00:00	8	Radiación solar	25
99913	7	Sololá	713	San Lucas Tolimán	10	San Lucas Tolimán	1	Enero	2023-09-01T00:00:00	2024-11-08T19:00:00	2	Temperatura media	16.6
99914	7	Sololá	713	San Lucas Tolimán	10	San Lucas Tolimán	1	Enero	2023-09-01T00:00:00	2024-11-08T19:00:00	4	Temperatura máxima	17.7
99915	7	Sololá	713	San Lucas Tolimán	10	San Lucas Tolimán	1	Enero	2023-09-01T00:00:00	2024-11-08T19:00:00	3	Temperatura mínima	16.6
99916	7	Sololá	713	San Lucas Tolimán	10	San Lucas Tolimán	1	Enero	2023-09-01T00:00:00	2024-11-08T19:00:00	5	Humedad	62
99917	7	Sololá	713	San Lucas Tolimán	10	San Lucas Tolimán	1	Enero	2023-09-01T00:00:00	2024-11-08T19:00:00	6	Velocidad del viento	4.8
99918	7	Sololá	713	San Lucas Tolimán	10	San Lucas Tolimán	1	Enero	2023-09-01T00:00:00	2024-11-08T19:00:00	7	Dirección del viento	4.83
99919	7	Sololá	713	San Lucas Tolimán	10	San Lucas Tolimán	1	Enero	2023-09-01T00:00:00	2024-11-08T19:00:00	1	Precipitación	0
99920	7	Sololá	713	San Lucas Tolimán	10	San Lucas Tolimán	1	Enero	2023-09-01T00:00:00	2024-11-08T19:00:00	8	Radiación solar	0
99921	7	Sololá	713	San Lucas Tolimán	10	San Lucas Tolimán	1	Enero	2023-09-01T00:00:00	2024-11-08T20:00:00	2	Temperatura media	15.9
99922	7	Sololá	713	San Lucas Tolimán	10	San Lucas Tolimán	1	Enero	2023-09-01T00:00:00	2024-11-08T20:00:00	4	Temperatura máxima	16.6
99923	7	Sololá	713	San Lucas Tolimán	10	San Lucas Tolimán	1	Enero	2023-09-01T00:00:00	2024-11-08T20:00:00	3	Temperatura mínima	15.9
99924	7	Sololá	713	San Lucas Tolimán	10	San Lucas Tolimán	1	Enero	2023-09-01T00:00:00	2024-11-08T20:00:00	5	Humedad	62
99925	7	Sololá	713	San Lucas Tolimán	10	San Lucas Tolimán	1	Enero	2023-09-01T00:00:00	2024-11-08T20:00:00	6	Velocidad del viento	3.2
99926	7	Sololá	713	San Lucas Tolimán	10	San Lucas Tolimán	1	Enero	2023-09-01T00:00:00	2024-11-08T20:00:00	7	Dirección del viento	3.22
99927	7	Sololá	713	San Lucas Tolimán	10	San Lucas Tolimán	1	Enero	2023-09-01T00:00:00	2024-11-08T20:00:00	1	Precipitación	0
99928	7	Sololá	713	San Lucas Tolimán	10	San Lucas Tolimán	1	Enero	2023-09-01T00:00:00	2024-11-08T20:00:00	8	Radiación solar	0
99929	7	Sololá	713	San Lucas Tolimán	10	San Lucas Tolimán	1	Enero	2023-09-01T00:00:00	2024-11-08T21:00:00	2	Temperatura media	15.5
99930	7	Sololá	713	San Lucas Tolimán	10	San Lucas Tolimán	1	Enero	2023-09-01T00:00:00	2024-11-08T21:00:00	4	Temperatura máxima	15.9
99931	7	Sololá	713	San Lucas Tolimán	10	San Lucas Tolimán	1	Enero	2023-09-01T00:00:00	2024-11-08T21:00:00	3	Temperatura mínima	15.3
99932	7	Sololá	713	San Lucas Tolimán	10	San Lucas Tolimán	1	Enero	2023-09-01T00:00:00	2024-11-08T21:00:00	5	Humedad	61
99933	7	Sololá	713	San Lucas Tolimán	10	San Lucas Tolimán	1	Enero	2023-09-01T00:00:00	2024-11-08T21:00:00	6	Velocidad del viento	3.2
99934	7	Sololá	713	San Lucas Tolimán	10	San Lucas Tolimán	1	Enero	2023-09-01T00:00:00	2024-11-08T21:00:00	7	Dirección del viento	3.22
99935	7	Sololá	713	San Lucas Tolimán	10	San Lucas Tolimán	1	Enero	2023-09-01T00:00:00	2024-11-08T21:00:00	1	Precipitación	0
99936	7	Sololá	713	San Lucas Tolimán	10	San Lucas Tolimán	1	Enero	2023-09-01T00:00:00	2024-11-08T21:00:00	8	Radiación solar	0
99937	7	Sololá	713	San Lucas Tolimán	10	San Lucas Tolimán	1	Enero	2023-09-01T00:00:00	2024-11-08T22:00:00	2	Temperatura media	15.3
99938	7	Sololá	713	San Lucas Tolimán	10	San Lucas Tolimán	1	Enero	2023-09-01T00:00:00	2024-11-08T22:00:00	4	Temperatura máxima	15.5
99939	7	Sololá	713	San Lucas Tolimán	10	San Lucas Tolimán	1	Enero	2023-09-01T00:00:00	2024-11-08T22:00:00	3	Temperatura mínima	15.2
99940	7	Sololá	713	San Lucas Tolimán	10	San Lucas Tolimán	1	Enero	2023-09-01T00:00:00	2024-11-08T22:00:00	5	Humedad	59
99941	7	Sololá	713	San Lucas Tolimán	10	San Lucas Tolimán	1	Enero	2023-09-01T00:00:00	2024-11-08T22:00:00	6	Velocidad del viento	3.2
99942	7	Sololá	713	San Lucas Tolimán	10	San Lucas Tolimán	1	Enero	2023-09-01T00:00:00	2024-11-08T22:00:00	7	Dirección del viento	3.22
99943	7	Sololá	713	San Lucas Tolimán	10	San Lucas Tolimán	1	Enero	2023-09-01T00:00:00	2024-11-08T22:00:00	1	Precipitación	0
99944	7	Sololá	713	San Lucas Tolimán	10	San Lucas Tolimán	1	Enero	2023-09-01T00:00:00	2024-11-08T22:00:00	8	Radiación solar	0
99945	7	Sololá	713	San Lucas Tolimán	10	San Lucas Tolimán	1	Enero	2023-09-01T00:00:00	2024-11-08T23:00:00	2	Temperatura media	14.6
99946	7	Sololá	713	San Lucas Tolimán	10	San Lucas Tolimán	1	Enero	2023-09-01T00:00:00	2024-11-08T23:00:00	4	Temperatura máxima	15.3
99947	7	Sololá	713	San Lucas Tolimán	10	San Lucas Tolimán	1	Enero	2023-09-01T00:00:00	2024-11-08T23:00:00	3	Temperatura mínima	14.6
99948	7	Sololá	713	San Lucas Tolimán	10	San Lucas Tolimán	1	Enero	2023-09-01T00:00:00	2024-11-08T23:00:00	5	Humedad	60
99949	7	Sololá	713	San Lucas Tolimán	10	San Lucas Tolimán	1	Enero	2023-09-01T00:00:00	2024-11-08T23:00:00	6	Velocidad del viento	3.2
99950	7	Sololá	713	San Lucas Tolimán	10	San Lucas Tolimán	1	Enero	2023-09-01T00:00:00	2024-11-08T23:00:00	7	Dirección del viento	3.22
99951	7	Sololá	713	San Lucas Tolimán	10	San Lucas Tolimán	1	Enero	2023-09-01T00:00:00	2024-11-08T23:00:00	1	Precipitación	0
99952	7	Sololá	713	San Lucas Tolimán	10	San Lucas Tolimán	1	Enero	2023-09-01T00:00:00	2024-11-08T23:00:00	8	Radiación solar	0
99953	7	Sololá	713	San Lucas Tolimán	10	San Lucas Tolimán	1	Enero	2023-10-01T00:00:00	2024-11-08T00:00:00	2	Temperatura media	14.5
99954	7	Sololá	713	San Lucas Tolimán	10	San Lucas Tolimán	1	Enero	2023-10-01T00:00:00	2024-11-08T00:00:00	4	Temperatura máxima	14.6
99955	7	Sololá	713	San Lucas Tolimán	10	San Lucas Tolimán	1	Enero	2023-10-01T00:00:00	2024-11-08T00:00:00	3	Temperatura mínima	14.2
99956	7	Sololá	713	San Lucas Tolimán	10	San Lucas Tolimán	1	Enero	2023-10-01T00:00:00	2024-11-08T00:00:00	5	Humedad	60
99957	7	Sololá	713	San Lucas Tolimán	10	San Lucas Tolimán	1	Enero	2023-10-01T00:00:00	2024-11-08T00:00:00	6	Velocidad del viento	3.2
99958	7	Sololá	713	San Lucas Tolimán	10	San Lucas Tolimán	1	Enero	2023-10-01T00:00:00	2024-11-08T00:00:00	7	Dirección del viento	3.22
99959	7	Sololá	713	San Lucas Tolimán	10	San Lucas Tolimán	1	Enero	2023-10-01T00:00:00	2024-11-08T00:00:00	1	Precipitación	0
99960	7	Sololá	713	San Lucas Tolimán	10	San Lucas Tolimán	1	Enero	2023-10-01T00:00:00	2024-11-08T00:00:00	8	Radiación solar	0
99961	7	Sololá	713	San Lucas Tolimán	10	San Lucas Tolimán	1	Enero	2023-10-01T00:00:00	2024-11-08T01:00:00	2	Temperatura media	14.9
99962	7	Sololá	713	San Lucas Tolimán	10	San Lucas Tolimán	1	Enero	2023-10-01T00:00:00	2024-11-08T01:00:00	4	Temperatura máxima	15.1
99963	7	Sololá	713	San Lucas Tolimán	10	San Lucas Tolimán	1	Enero	2023-10-01T00:00:00	2024-11-08T01:00:00	3	Temperatura mínima	14.4
99964	7	Sololá	713	San Lucas Tolimán	10	San Lucas Tolimán	1	Enero	2023-10-01T00:00:00	2024-11-08T01:00:00	5	Humedad	59
99965	7	Sololá	713	San Lucas Tolimán	10	San Lucas Tolimán	1	Enero	2023-10-01T00:00:00	2024-11-08T01:00:00	6	Velocidad del viento	1.6
99966	7	Sololá	713	San Lucas Tolimán	10	San Lucas Tolimán	1	Enero	2023-10-01T00:00:00	2024-11-08T01:00:00	7	Dirección del viento	1.61
99967	7	Sololá	713	San Lucas Tolimán	10	San Lucas Tolimán	1	Enero	2023-10-01T00:00:00	2024-11-08T01:00:00	1	Precipitación	0
99968	7	Sololá	713	San Lucas Tolimán	10	San Lucas Tolimán	1	Enero	2023-10-01T00:00:00	2024-11-08T01:00:00	8	Radiación solar	0
99969	7	Sololá	713	San Lucas Tolimán	10	San Lucas Tolimán	1	Enero	2023-10-01T00:00:00	2024-11-08T02:00:00	2	Temperatura media	14.1
99970	7	Sololá	713	San Lucas Tolimán	10	San Lucas Tolimán	1	Enero	2023-10-01T00:00:00	2024-11-08T02:00:00	4	Temperatura máxima	14.9
99971	7	Sololá	713	San Lucas Tolimán	10	San Lucas Tolimán	1	Enero	2023-10-01T00:00:00	2024-11-08T02:00:00	3	Temperatura mínima	13.9
99972	7	Sololá	713	San Lucas Tolimán	10	San Lucas Tolimán	1	Enero	2023-10-01T00:00:00	2024-11-08T02:00:00	5	Humedad	61
99973	7	Sololá	713	San Lucas Tolimán	10	San Lucas Tolimán	1	Enero	2023-10-01T00:00:00	2024-11-08T02:00:00	6	Velocidad del viento	1.6
99974	7	Sololá	713	San Lucas Tolimán	10	San Lucas Tolimán	1	Enero	2023-10-01T00:00:00	2024-11-08T02:00:00	7	Dirección del viento	1.61
99975	7	Sololá	713	San Lucas Tolimán	10	San Lucas Tolimán	1	Enero	2023-10-01T00:00:00	2024-11-08T02:00:00	1	Precipitación	0
99976	7	Sololá	713	San Lucas Tolimán	10	San Lucas Tolimán	1	Enero	2023-10-01T00:00:00	2024-11-08T02:00:00	8	Radiación solar	0
99977	7	Sololá	713	San Lucas Tolimán	10	San Lucas Tolimán	1	Enero	2023-10-01T00:00:00	2024-11-08T03:00:00	2	Temperatura media	14.6
99978	7	Sololá	713	San Lucas Tolimán	10	San Lucas Tolimán	1	Enero	2023-10-01T00:00:00	2024-11-08T03:00:00	4	Temperatura máxima	14.6
99979	7	Sololá	713	San Lucas Tolimán	10	San Lucas Tolimán	1	Enero	2023-10-01T00:00:00	2024-11-08T03:00:00	3	Temperatura mínima	14.1
99980	7	Sololá	713	San Lucas Tolimán	10	San Lucas Tolimán	1	Enero	2023-10-01T00:00:00	2024-11-08T03:00:00	5	Humedad	58
99981	7	Sololá	713	San Lucas Tolimán	10	San Lucas Tolimán	1	Enero	2023-10-01T00:00:00	2024-11-08T03:00:00	6	Velocidad del viento	1.6
99982	7	Sololá	713	San Lucas Tolimán	10	San Lucas Tolimán	1	Enero	2023-10-01T00:00:00	2024-11-08T03:00:00	7	Dirección del viento	1.61
99983	7	Sololá	713	San Lucas Tolimán	10	San Lucas Tolimán	1	Enero	2023-10-01T00:00:00	2024-11-08T03:00:00	1	Precipitación	0
99984	7	Sololá	713	San Lucas Tolimán	10	San Lucas Tolimán	1	Enero	2023-10-01T00:00:00	2024-11-08T03:00:00	8	Radiación solar	0
99985	7	Sololá	713	San Lucas Tolimán	10	San Lucas Tolimán	1	Enero	2023-10-01T00:00:00	2024-11-08T04:00:00	2	Temperatura media	14.2
99986	7	Sololá	713	San Lucas Tolimán	10	San Lucas Tolimán	1	Enero	2023-10-01T00:00:00	2024-11-08T04:00:00	4	Temperatura máxima	14.7
99987	7	Sololá	713	San Lucas Tolimán	10	San Lucas Tolimán	1	Enero	2023-10-01T00:00:00	2024-11-08T04:00:00	3	Temperatura mínima	14.1
99988	7	Sololá	713	San Lucas Tolimán	10	San Lucas Tolimán	1	Enero	2023-10-01T00:00:00	2024-11-08T04:00:00	5	Humedad	58
99989	7	Sololá	713	San Lucas Tolimán	10	San Lucas Tolimán	1	Enero	2023-10-01T00:00:00	2024-11-08T04:00:00	6	Velocidad del viento	1.6
99990	7	Sololá	713	San Lucas Tolimán	10	San Lucas Tolimán	1	Enero	2023-10-01T00:00:00	2024-11-08T04:00:00	7	Dirección del viento	1.61
99991	7	Sololá	713	San Lucas Tolimán	10	San Lucas Tolimán	1	Enero	2023-10-01T00:00:00	2024-11-08T04:00:00	1	Precipitación	0
99992	7	Sololá	713	San Lucas Tolimán	10	San Lucas Tolimán	1	Enero	2023-10-01T00:00:00	2024-11-08T04:00:00	8	Radiación solar	0
99993	7	Sololá	713	San Lucas Tolimán	10	San Lucas Tolimán	1	Enero	2023-10-01T00:00:00	2024-11-08T05:00:00	2	Temperatura media	15.1
99994	7	Sololá	713	San Lucas Tolimán	10	San Lucas Tolimán	1	Enero	2023-10-01T00:00:00	2024-11-08T05:00:00	4	Temperatura máxima	15.3
99995	7	Sololá	713	San Lucas Tolimán	10	San Lucas Tolimán	1	Enero	2023-10-01T00:00:00	2024-11-08T05:00:00	3	Temperatura mínima	14.2
99996	7	Sololá	713	San Lucas Tolimán	10	San Lucas Tolimán	1	Enero	2023-10-01T00:00:00	2024-11-08T05:00:00	5	Humedad	58
99997	7	Sololá	713	San Lucas Tolimán	10	San Lucas Tolimán	1	Enero	2023-10-01T00:00:00	2024-11-08T05:00:00	6	Velocidad del viento	3.2
99998	7	Sololá	713	San Lucas Tolimán	10	San Lucas Tolimán	1	Enero	2023-10-01T00:00:00	2024-11-08T05:00:00	7	Dirección del viento	3.22
99999	7	Sololá	713	San Lucas Tolimán	10	San Lucas Tolimán	1	Enero	2023-10-01T00:00:00	2024-11-08T05:00:00	1	Precipitación	0
100000	7	Sololá	713	San Lucas Tolimán	10	San Lucas Tolimán	1	Enero	2023-10-01T00:00:00	2024-11-08T05:00:00	8	Radiación solar	0
100001	7	Sololá	713	San Lucas Tolimán	10	San Lucas Tolimán	1	Enero	2023-10-01T00:00:00	2024-11-08T06:00:00	2	Temperatura media	14.2
100002	7	Sololá	713	San Lucas Tolimán	10	San Lucas Tolimán	1	Enero	2023-10-01T00:00:00	2024-11-08T06:00:00	4	Temperatura máxima	15.1
100003	7	Sololá	713	San Lucas Tolimán	10	San Lucas Tolimán	1	Enero	2023-10-01T00:00:00	2024-11-08T06:00:00	3	Temperatura mínima	14.1
100004	7	Sololá	713	San Lucas Tolimán	10	San Lucas Tolimán	1	Enero	2023-10-01T00:00:00	2024-11-08T06:00:00	5	Humedad	60
100005	7	Sololá	713	San Lucas Tolimán	10	San Lucas Tolimán	1	Enero	2023-10-01T00:00:00	2024-11-08T06:00:00	6	Velocidad del viento	3.2
100006	7	Sololá	713	San Lucas Tolimán	10	San Lucas Tolimán	1	Enero	2023-10-01T00:00:00	2024-11-08T06:00:00	7	Dirección del viento	3.22
100007	7	Sololá	713	San Lucas Tolimán	10	San Lucas Tolimán	1	Enero	2023-10-01T00:00:00	2024-11-08T06:00:00	1	Precipitación	0
100008	7	Sololá	713	San Lucas Tolimán	10	San Lucas Tolimán	1	Enero	2023-10-01T00:00:00	2024-11-08T06:00:00	8	Radiación solar	0
100009	7	Sololá	713	San Lucas Tolimán	10	San Lucas Tolimán	1	Enero	2023-10-01T00:00:00	2024-11-08T07:00:00	2	Temperatura media	14.2
100010	7	Sololá	713	San Lucas Tolimán	10	San Lucas Tolimán	1	Enero	2023-10-01T00:00:00	2024-11-08T07:00:00	4	Temperatura máxima	14.3
100011	7	Sololá	713	San Lucas Tolimán	10	San Lucas Tolimán	1	Enero	2023-10-01T00:00:00	2024-11-08T07:00:00	3	Temperatura mínima	14.1
100012	7	Sololá	713	San Lucas Tolimán	10	San Lucas Tolimán	1	Enero	2023-10-01T00:00:00	2024-11-08T07:00:00	5	Humedad	59
100013	7	Sololá	713	San Lucas Tolimán	10	San Lucas Tolimán	1	Enero	2023-10-01T00:00:00	2024-11-08T07:00:00	6	Velocidad del viento	3.2
100014	7	Sololá	713	San Lucas Tolimán	10	San Lucas Tolimán	1	Enero	2023-10-01T00:00:00	2024-11-08T07:00:00	7	Dirección del viento	3.22
100015	7	Sololá	713	San Lucas Tolimán	10	San Lucas Tolimán	1	Enero	2023-10-01T00:00:00	2024-11-08T07:00:00	1	Precipitación	0
100016	7	Sololá	713	San Lucas Tolimán	10	San Lucas Tolimán	1	Enero	2023-10-01T00:00:00	2024-11-08T07:00:00	8	Radiación solar	3
100017	7	Sololá	713	San Lucas Tolimán	10	San Lucas Tolimán	1	Enero	2023-10-01T00:00:00	2024-11-08T08:00:00	2	Temperatura media	14.9
100018	7	Sololá	713	San Lucas Tolimán	10	San Lucas Tolimán	1	Enero	2023-10-01T00:00:00	2024-11-08T08:00:00	4	Temperatura máxima	14.9
100019	7	Sololá	713	San Lucas Tolimán	10	San Lucas Tolimán	1	Enero	2023-10-01T00:00:00	2024-11-08T08:00:00	3	Temperatura mínima	14.2
100020	7	Sololá	713	San Lucas Tolimán	10	San Lucas Tolimán	1	Enero	2023-10-01T00:00:00	2024-11-08T08:00:00	5	Humedad	57
100021	7	Sololá	713	San Lucas Tolimán	10	San Lucas Tolimán	1	Enero	2023-10-01T00:00:00	2024-11-08T08:00:00	6	Velocidad del viento	3.2
100022	7	Sololá	713	San Lucas Tolimán	10	San Lucas Tolimán	1	Enero	2023-10-01T00:00:00	2024-11-08T08:00:00	7	Dirección del viento	3.22
100023	7	Sololá	713	San Lucas Tolimán	10	San Lucas Tolimán	1	Enero	2023-10-01T00:00:00	2024-11-08T08:00:00	1	Precipitación	0
100024	7	Sololá	713	San Lucas Tolimán	10	San Lucas Tolimán	1	Enero	2023-10-01T00:00:00	2024-11-08T08:00:00	8	Radiación solar	19
100025	7	Sololá	713	San Lucas Tolimán	10	San Lucas Tolimán	1	Enero	2023-10-01T00:00:00	2024-11-08T09:00:00	2	Temperatura media	18.3
100026	7	Sololá	713	San Lucas Tolimán	10	San Lucas Tolimán	1	Enero	2023-10-01T00:00:00	2024-11-08T09:00:00	4	Temperatura máxima	18.3
100027	7	Sololá	713	San Lucas Tolimán	10	San Lucas Tolimán	1	Enero	2023-10-01T00:00:00	2024-11-08T09:00:00	3	Temperatura mínima	14.9
100028	7	Sololá	713	San Lucas Tolimán	10	San Lucas Tolimán	1	Enero	2023-10-01T00:00:00	2024-11-08T09:00:00	5	Humedad	54
100029	7	Sololá	713	San Lucas Tolimán	10	San Lucas Tolimán	1	Enero	2023-10-01T00:00:00	2024-11-08T09:00:00	6	Velocidad del viento	3.2
100030	7	Sololá	713	San Lucas Tolimán	10	San Lucas Tolimán	1	Enero	2023-10-01T00:00:00	2024-11-08T09:00:00	7	Dirección del viento	3.22
100031	7	Sololá	713	San Lucas Tolimán	10	San Lucas Tolimán	1	Enero	2023-10-01T00:00:00	2024-11-08T09:00:00	1	Precipitación	0
100032	7	Sololá	713	San Lucas Tolimán	10	San Lucas Tolimán	1	Enero	2023-10-01T00:00:00	2024-11-08T09:00:00	8	Radiación solar	258
100033	7	Sololá	713	San Lucas Tolimán	10	San Lucas Tolimán	1	Enero	2023-10-01T00:00:00	2024-11-08T10:00:00	2	Temperatura media	19.3
100034	7	Sololá	713	San Lucas Tolimán	10	San Lucas Tolimán	1	Enero	2023-10-01T00:00:00	2024-11-08T10:00:00	4	Temperatura máxima	19.9
100035	7	Sololá	713	San Lucas Tolimán	10	San Lucas Tolimán	1	Enero	2023-10-01T00:00:00	2024-11-08T10:00:00	3	Temperatura mínima	18.3
100036	7	Sololá	713	San Lucas Tolimán	10	San Lucas Tolimán	1	Enero	2023-10-01T00:00:00	2024-11-08T10:00:00	5	Humedad	56
100037	7	Sololá	713	San Lucas Tolimán	10	San Lucas Tolimán	1	Enero	2023-10-01T00:00:00	2024-11-08T10:00:00	6	Velocidad del viento	4.8
100038	7	Sololá	713	San Lucas Tolimán	10	San Lucas Tolimán	1	Enero	2023-10-01T00:00:00	2024-11-08T10:00:00	7	Dirección del viento	4.83
100039	7	Sololá	713	San Lucas Tolimán	10	San Lucas Tolimán	1	Enero	2023-10-01T00:00:00	2024-11-08T10:00:00	1	Precipitación	0
100040	7	Sololá	713	San Lucas Tolimán	10	San Lucas Tolimán	1	Enero	2023-10-01T00:00:00	2024-11-08T10:00:00	8	Radiación solar	586
100041	7	Sololá	713	San Lucas Tolimán	10	San Lucas Tolimán	1	Enero	2023-10-01T00:00:00	2024-11-08T11:00:00	2	Temperatura media	22.6
100042	7	Sololá	713	San Lucas Tolimán	10	San Lucas Tolimán	1	Enero	2023-10-01T00:00:00	2024-11-08T11:00:00	4	Temperatura máxima	23.4
100043	7	Sololá	713	San Lucas Tolimán	10	San Lucas Tolimán	1	Enero	2023-10-01T00:00:00	2024-11-08T11:00:00	3	Temperatura mínima	19.3
100044	7	Sololá	713	San Lucas Tolimán	10	San Lucas Tolimán	1	Enero	2023-10-01T00:00:00	2024-11-08T11:00:00	5	Humedad	51
100045	7	Sololá	713	San Lucas Tolimán	10	San Lucas Tolimán	1	Enero	2023-10-01T00:00:00	2024-11-08T11:00:00	6	Velocidad del viento	4.8
100046	7	Sololá	713	San Lucas Tolimán	10	San Lucas Tolimán	1	Enero	2023-10-01T00:00:00	2024-11-08T11:00:00	7	Dirección del viento	4.83
100047	7	Sololá	713	San Lucas Tolimán	10	San Lucas Tolimán	1	Enero	2023-10-01T00:00:00	2024-11-08T11:00:00	1	Precipitación	0
100048	7	Sololá	713	San Lucas Tolimán	10	San Lucas Tolimán	1	Enero	2023-10-01T00:00:00	2024-11-08T11:00:00	8	Radiación solar	746
100049	7	Sololá	713	San Lucas Tolimán	10	San Lucas Tolimán	1	Enero	2023-10-01T00:00:00	2024-11-08T12:00:00	2	Temperatura media	21.8
100050	7	Sololá	713	San Lucas Tolimán	10	San Lucas Tolimán	1	Enero	2023-10-01T00:00:00	2024-11-08T12:00:00	4	Temperatura máxima	22.8
100051	7	Sololá	713	San Lucas Tolimán	10	San Lucas Tolimán	1	Enero	2023-10-01T00:00:00	2024-11-08T12:00:00	3	Temperatura mínima	21.6
100052	7	Sololá	713	San Lucas Tolimán	10	San Lucas Tolimán	1	Enero	2023-10-01T00:00:00	2024-11-08T12:00:00	5	Humedad	58
100053	7	Sololá	713	San Lucas Tolimán	10	San Lucas Tolimán	1	Enero	2023-10-01T00:00:00	2024-11-08T12:00:00	6	Velocidad del viento	11.3
100054	7	Sololá	713	San Lucas Tolimán	10	San Lucas Tolimán	1	Enero	2023-10-01T00:00:00	2024-11-08T12:00:00	7	Dirección del viento	11.27
100055	7	Sololá	713	San Lucas Tolimán	10	San Lucas Tolimán	1	Enero	2023-10-01T00:00:00	2024-11-08T12:00:00	1	Precipitación	0
100056	7	Sololá	713	San Lucas Tolimán	10	San Lucas Tolimán	1	Enero	2023-10-01T00:00:00	2024-11-08T12:00:00	8	Radiación solar	861
100057	7	Sololá	713	San Lucas Tolimán	10	San Lucas Tolimán	1	Enero	2023-10-01T00:00:00	2024-11-08T13:00:00	2	Temperatura media	20
100058	7	Sololá	713	San Lucas Tolimán	10	San Lucas Tolimán	1	Enero	2023-10-01T00:00:00	2024-11-08T13:00:00	4	Temperatura máxima	22.1
100059	7	Sololá	713	San Lucas Tolimán	10	San Lucas Tolimán	1	Enero	2023-10-01T00:00:00	2024-11-08T13:00:00	3	Temperatura mínima	19.9
100060	7	Sololá	713	San Lucas Tolimán	10	San Lucas Tolimán	1	Enero	2023-10-01T00:00:00	2024-11-08T13:00:00	5	Humedad	62
100061	7	Sololá	713	San Lucas Tolimán	10	San Lucas Tolimán	1	Enero	2023-10-01T00:00:00	2024-11-08T13:00:00	6	Velocidad del viento	12.9
100062	7	Sololá	713	San Lucas Tolimán	10	San Lucas Tolimán	1	Enero	2023-10-01T00:00:00	2024-11-08T13:00:00	7	Dirección del viento	12.87
100063	7	Sololá	713	San Lucas Tolimán	10	San Lucas Tolimán	1	Enero	2023-10-01T00:00:00	2024-11-08T13:00:00	1	Precipitación	0
100064	7	Sololá	713	San Lucas Tolimán	10	San Lucas Tolimán	1	Enero	2023-10-01T00:00:00	2024-11-08T13:00:00	8	Radiación solar	523
100065	7	Sololá	713	San Lucas Tolimán	10	San Lucas Tolimán	1	Enero	2023-10-01T00:00:00	2024-11-08T14:00:00	2	Temperatura media	19.6
100066	7	Sololá	713	San Lucas Tolimán	10	San Lucas Tolimán	1	Enero	2023-10-01T00:00:00	2024-11-08T14:00:00	4	Temperatura máxima	20.2
100067	7	Sololá	713	San Lucas Tolimán	10	San Lucas Tolimán	1	Enero	2023-10-01T00:00:00	2024-11-08T14:00:00	3	Temperatura mínima	19.3
100068	7	Sololá	713	San Lucas Tolimán	10	San Lucas Tolimán	1	Enero	2023-10-01T00:00:00	2024-11-08T14:00:00	5	Humedad	62
100069	7	Sololá	713	San Lucas Tolimán	10	San Lucas Tolimán	1	Enero	2023-10-01T00:00:00	2024-11-08T14:00:00	6	Velocidad del viento	12.9
100070	7	Sololá	713	San Lucas Tolimán	10	San Lucas Tolimán	1	Enero	2023-10-01T00:00:00	2024-11-08T14:00:00	7	Dirección del viento	12.87
100071	7	Sololá	713	San Lucas Tolimán	10	San Lucas Tolimán	1	Enero	2023-10-01T00:00:00	2024-11-08T14:00:00	1	Precipitación	0
100072	7	Sololá	713	San Lucas Tolimán	10	San Lucas Tolimán	1	Enero	2023-10-01T00:00:00	2024-11-08T14:00:00	8	Radiación solar	282
100073	7	Sololá	713	San Lucas Tolimán	10	San Lucas Tolimán	1	Enero	2023-10-01T00:00:00	2024-11-08T15:00:00	2	Temperatura media	19
100074	7	Sololá	713	San Lucas Tolimán	10	San Lucas Tolimán	1	Enero	2023-10-01T00:00:00	2024-11-08T15:00:00	4	Temperatura máxima	20.5
100075	7	Sololá	713	San Lucas Tolimán	10	San Lucas Tolimán	1	Enero	2023-10-01T00:00:00	2024-11-08T15:00:00	3	Temperatura mínima	19
100076	7	Sololá	713	San Lucas Tolimán	10	San Lucas Tolimán	1	Enero	2023-10-01T00:00:00	2024-11-08T15:00:00	5	Humedad	63
100077	7	Sololá	713	San Lucas Tolimán	10	San Lucas Tolimán	1	Enero	2023-10-01T00:00:00	2024-11-08T15:00:00	6	Velocidad del viento	11.3
100078	7	Sololá	713	San Lucas Tolimán	10	San Lucas Tolimán	1	Enero	2023-10-01T00:00:00	2024-11-08T15:00:00	7	Dirección del viento	11.27
100079	7	Sololá	713	San Lucas Tolimán	10	San Lucas Tolimán	1	Enero	2023-10-01T00:00:00	2024-11-08T15:00:00	1	Precipitación	0
100080	7	Sololá	713	San Lucas Tolimán	10	San Lucas Tolimán	1	Enero	2023-10-01T00:00:00	2024-11-08T15:00:00	8	Radiación solar	294
100081	7	Sololá	713	San Lucas Tolimán	10	San Lucas Tolimán	1	Enero	2023-10-01T00:00:00	2024-11-08T16:00:00	2	Temperatura media	18.5
100082	7	Sololá	713	San Lucas Tolimán	10	San Lucas Tolimán	1	Enero	2023-10-01T00:00:00	2024-11-08T16:00:00	4	Temperatura máxima	19
100083	7	Sololá	713	San Lucas Tolimán	10	San Lucas Tolimán	1	Enero	2023-10-01T00:00:00	2024-11-08T16:00:00	3	Temperatura mínima	18.5
100084	7	Sololá	713	San Lucas Tolimán	10	San Lucas Tolimán	1	Enero	2023-10-01T00:00:00	2024-11-08T16:00:00	5	Humedad	61
100085	7	Sololá	713	San Lucas Tolimán	10	San Lucas Tolimán	1	Enero	2023-10-01T00:00:00	2024-11-08T16:00:00	6	Velocidad del viento	11.3
100086	7	Sololá	713	San Lucas Tolimán	10	San Lucas Tolimán	1	Enero	2023-10-01T00:00:00	2024-11-08T16:00:00	7	Dirección del viento	11.27
100087	7	Sololá	713	San Lucas Tolimán	10	San Lucas Tolimán	1	Enero	2023-10-01T00:00:00	2024-11-08T16:00:00	1	Precipitación	0
100088	7	Sololá	713	San Lucas Tolimán	10	San Lucas Tolimán	1	Enero	2023-10-01T00:00:00	2024-11-08T16:00:00	8	Radiación solar	157
100089	7	Sololá	713	San Lucas Tolimán	10	San Lucas Tolimán	1	Enero	2023-10-01T00:00:00	2024-11-08T17:00:00	2	Temperatura media	18.3
100090	7	Sololá	713	San Lucas Tolimán	10	San Lucas Tolimán	1	Enero	2023-10-01T00:00:00	2024-11-08T17:00:00	4	Temperatura máxima	18.7
100091	7	Sololá	713	San Lucas Tolimán	10	San Lucas Tolimán	1	Enero	2023-10-01T00:00:00	2024-11-08T17:00:00	3	Temperatura mínima	18.2
100092	7	Sololá	713	San Lucas Tolimán	10	San Lucas Tolimán	1	Enero	2023-10-01T00:00:00	2024-11-08T17:00:00	5	Humedad	61
100093	7	Sololá	713	San Lucas Tolimán	10	San Lucas Tolimán	1	Enero	2023-10-01T00:00:00	2024-11-08T17:00:00	6	Velocidad del viento	8
100094	7	Sololá	713	San Lucas Tolimán	10	San Lucas Tolimán	1	Enero	2023-10-01T00:00:00	2024-11-08T17:00:00	7	Dirección del viento	8.05
100095	7	Sololá	713	San Lucas Tolimán	10	San Lucas Tolimán	1	Enero	2023-10-01T00:00:00	2024-11-08T17:00:00	1	Precipitación	0
100096	7	Sololá	713	San Lucas Tolimán	10	San Lucas Tolimán	1	Enero	2023-10-01T00:00:00	2024-11-08T17:00:00	8	Radiación solar	75
100097	7	Sololá	713	San Lucas Tolimán	10	San Lucas Tolimán	1	Enero	2023-10-01T00:00:00	2024-11-08T18:00:00	2	Temperatura media	17.7
100098	7	Sololá	713	San Lucas Tolimán	10	San Lucas Tolimán	1	Enero	2023-10-01T00:00:00	2024-11-08T18:00:00	4	Temperatura máxima	18.5
100099	7	Sololá	713	San Lucas Tolimán	10	San Lucas Tolimán	1	Enero	2023-10-01T00:00:00	2024-11-08T18:00:00	3	Temperatura mínima	17.7
100100	7	Sololá	713	San Lucas Tolimán	10	San Lucas Tolimán	1	Enero	2023-10-01T00:00:00	2024-11-08T18:00:00	5	Humedad	62
100101	7	Sololá	713	San Lucas Tolimán	10	San Lucas Tolimán	1	Enero	2023-10-01T00:00:00	2024-11-08T18:00:00	6	Velocidad del viento	8
100102	7	Sololá	713	San Lucas Tolimán	10	San Lucas Tolimán	1	Enero	2023-10-01T00:00:00	2024-11-08T18:00:00	7	Dirección del viento	8.05
100103	7	Sololá	713	San Lucas Tolimán	10	San Lucas Tolimán	1	Enero	2023-10-01T00:00:00	2024-11-08T18:00:00	1	Precipitación	0
100104	7	Sololá	713	San Lucas Tolimán	10	San Lucas Tolimán	1	Enero	2023-10-01T00:00:00	2024-11-08T18:00:00	8	Radiación solar	20
100105	7	Sololá	713	San Lucas Tolimán	10	San Lucas Tolimán	1	Enero	2023-10-01T00:00:00	2024-11-08T19:00:00	2	Temperatura media	17.2
100106	7	Sololá	713	San Lucas Tolimán	10	San Lucas Tolimán	1	Enero	2023-10-01T00:00:00	2024-11-08T19:00:00	4	Temperatura máxima	17.8
100107	7	Sololá	713	San Lucas Tolimán	10	San Lucas Tolimán	1	Enero	2023-10-01T00:00:00	2024-11-08T19:00:00	3	Temperatura mínima	17
100108	7	Sololá	713	San Lucas Tolimán	10	San Lucas Tolimán	1	Enero	2023-10-01T00:00:00	2024-11-08T19:00:00	5	Humedad	56
100109	7	Sololá	713	San Lucas Tolimán	10	San Lucas Tolimán	1	Enero	2023-10-01T00:00:00	2024-11-08T19:00:00	6	Velocidad del viento	4.8
100110	7	Sololá	713	San Lucas Tolimán	10	San Lucas Tolimán	1	Enero	2023-10-01T00:00:00	2024-11-08T19:00:00	7	Dirección del viento	4.83
100111	7	Sololá	713	San Lucas Tolimán	10	San Lucas Tolimán	1	Enero	2023-10-01T00:00:00	2024-11-08T19:00:00	1	Precipitación	0
100112	7	Sololá	713	San Lucas Tolimán	10	San Lucas Tolimán	1	Enero	2023-10-01T00:00:00	2024-11-08T19:00:00	8	Radiación solar	0
100113	7	Sololá	713	San Lucas Tolimán	10	San Lucas Tolimán	1	Enero	2023-10-01T00:00:00	2024-11-08T20:00:00	2	Temperatura media	16.9
100114	7	Sololá	713	San Lucas Tolimán	10	San Lucas Tolimán	1	Enero	2023-10-01T00:00:00	2024-11-08T20:00:00	4	Temperatura máxima	17.7
100115	7	Sololá	713	San Lucas Tolimán	10	San Lucas Tolimán	1	Enero	2023-10-01T00:00:00	2024-11-08T20:00:00	3	Temperatura mínima	16.9
100116	7	Sololá	713	San Lucas Tolimán	10	San Lucas Tolimán	1	Enero	2023-10-01T00:00:00	2024-11-08T20:00:00	5	Humedad	57
100117	7	Sololá	713	San Lucas Tolimán	10	San Lucas Tolimán	1	Enero	2023-10-01T00:00:00	2024-11-08T20:00:00	6	Velocidad del viento	3.2
100118	7	Sololá	713	San Lucas Tolimán	10	San Lucas Tolimán	1	Enero	2023-10-01T00:00:00	2024-11-08T20:00:00	7	Dirección del viento	3.22
100119	7	Sololá	713	San Lucas Tolimán	10	San Lucas Tolimán	1	Enero	2023-10-01T00:00:00	2024-11-08T20:00:00	1	Precipitación	0
100120	7	Sololá	713	San Lucas Tolimán	10	San Lucas Tolimán	1	Enero	2023-10-01T00:00:00	2024-11-08T20:00:00	8	Radiación solar	0
100121	7	Sololá	713	San Lucas Tolimán	10	San Lucas Tolimán	1	Enero	2023-10-01T00:00:00	2024-11-08T21:00:00	2	Temperatura media	15.4
100122	7	Sololá	713	San Lucas Tolimán	10	San Lucas Tolimán	1	Enero	2023-10-01T00:00:00	2024-11-08T21:00:00	4	Temperatura máxima	17
100123	7	Sololá	713	San Lucas Tolimán	10	San Lucas Tolimán	1	Enero	2023-10-01T00:00:00	2024-11-08T21:00:00	3	Temperatura mínima	15.4
100124	7	Sololá	713	San Lucas Tolimán	10	San Lucas Tolimán	1	Enero	2023-10-01T00:00:00	2024-11-08T21:00:00	5	Humedad	61
100125	7	Sololá	713	San Lucas Tolimán	10	San Lucas Tolimán	1	Enero	2023-10-01T00:00:00	2024-11-08T21:00:00	6	Velocidad del viento	3.2
100126	7	Sololá	713	San Lucas Tolimán	10	San Lucas Tolimán	1	Enero	2023-10-01T00:00:00	2024-11-08T21:00:00	7	Dirección del viento	3.22
100127	7	Sololá	713	San Lucas Tolimán	10	San Lucas Tolimán	1	Enero	2023-10-01T00:00:00	2024-11-08T21:00:00	1	Precipitación	0
100128	7	Sololá	713	San Lucas Tolimán	10	San Lucas Tolimán	1	Enero	2023-10-01T00:00:00	2024-11-08T21:00:00	8	Radiación solar	0
100129	7	Sololá	713	San Lucas Tolimán	10	San Lucas Tolimán	1	Enero	2023-10-01T00:00:00	2024-11-08T22:00:00	2	Temperatura media	14.8
100130	7	Sololá	713	San Lucas Tolimán	10	San Lucas Tolimán	1	Enero	2023-10-01T00:00:00	2024-11-08T22:00:00	4	Temperatura máxima	15.4
100131	7	Sololá	713	San Lucas Tolimán	10	San Lucas Tolimán	1	Enero	2023-10-01T00:00:00	2024-11-08T22:00:00	3	Temperatura mínima	14.8
100132	7	Sololá	713	San Lucas Tolimán	10	San Lucas Tolimán	1	Enero	2023-10-01T00:00:00	2024-11-08T22:00:00	5	Humedad	61
100133	7	Sololá	713	San Lucas Tolimán	10	San Lucas Tolimán	1	Enero	2023-10-01T00:00:00	2024-11-08T22:00:00	6	Velocidad del viento	1.6
100134	7	Sololá	713	San Lucas Tolimán	10	San Lucas Tolimán	1	Enero	2023-10-01T00:00:00	2024-11-08T22:00:00	7	Dirección del viento	1.61
100135	7	Sololá	713	San Lucas Tolimán	10	San Lucas Tolimán	1	Enero	2023-10-01T00:00:00	2024-11-08T22:00:00	1	Precipitación	0
100136	7	Sololá	713	San Lucas Tolimán	10	San Lucas Tolimán	1	Enero	2023-10-01T00:00:00	2024-11-08T22:00:00	8	Radiación solar	0
100137	7	Sololá	713	San Lucas Tolimán	10	San Lucas Tolimán	1	Enero	2023-10-01T00:00:00	2024-11-08T23:00:00	2	Temperatura media	14.2
100138	7	Sololá	713	San Lucas Tolimán	10	San Lucas Tolimán	1	Enero	2023-10-01T00:00:00	2024-11-08T23:00:00	4	Temperatura máxima	14.9
100139	7	Sololá	713	San Lucas Tolimán	10	San Lucas Tolimán	1	Enero	2023-10-01T00:00:00	2024-11-08T23:00:00	3	Temperatura mínima	14.2
100140	7	Sololá	713	San Lucas Tolimán	10	San Lucas Tolimán	1	Enero	2023-10-01T00:00:00	2024-11-08T23:00:00	5	Humedad	60
100141	7	Sololá	713	San Lucas Tolimán	10	San Lucas Tolimán	1	Enero	2023-10-01T00:00:00	2024-11-08T23:00:00	6	Velocidad del viento	3.2
100142	7	Sololá	713	San Lucas Tolimán	10	San Lucas Tolimán	1	Enero	2023-10-01T00:00:00	2024-11-08T23:00:00	7	Dirección del viento	3.22
100143	7	Sololá	713	San Lucas Tolimán	10	San Lucas Tolimán	1	Enero	2023-10-01T00:00:00	2024-11-08T23:00:00	1	Precipitación	0
100144	7	Sololá	713	San Lucas Tolimán	10	San Lucas Tolimán	1	Enero	2023-10-01T00:00:00	2024-11-08T23:00:00	8	Radiación solar	0
100145	7	Sololá	713	San Lucas Tolimán	10	San Lucas Tolimán	1	Enero	2023-11-01T00:00:00	2024-11-08T00:00:00	2	Temperatura media	14.2
100146	7	Sololá	713	San Lucas Tolimán	10	San Lucas Tolimán	1	Enero	2023-11-01T00:00:00	2024-11-08T00:00:00	4	Temperatura máxima	14.3
100147	7	Sololá	713	San Lucas Tolimán	10	San Lucas Tolimán	1	Enero	2023-11-01T00:00:00	2024-11-08T00:00:00	3	Temperatura mínima	13.7
100148	7	Sololá	713	San Lucas Tolimán	10	San Lucas Tolimán	1	Enero	2023-11-01T00:00:00	2024-11-08T00:00:00	5	Humedad	59
100149	7	Sololá	713	San Lucas Tolimán	10	San Lucas Tolimán	1	Enero	2023-11-01T00:00:00	2024-11-08T00:00:00	6	Velocidad del viento	3.2
100150	7	Sololá	713	San Lucas Tolimán	10	San Lucas Tolimán	1	Enero	2023-11-01T00:00:00	2024-11-08T00:00:00	7	Dirección del viento	3.22
100151	7	Sololá	713	San Lucas Tolimán	10	San Lucas Tolimán	1	Enero	2023-11-01T00:00:00	2024-11-08T00:00:00	1	Precipitación	0
100152	7	Sololá	713	San Lucas Tolimán	10	San Lucas Tolimán	1	Enero	2023-11-01T00:00:00	2024-11-08T00:00:00	8	Radiación solar	0
100153	7	Sololá	713	San Lucas Tolimán	10	San Lucas Tolimán	1	Enero	2023-11-01T00:00:00	2024-11-08T01:00:00	2	Temperatura media	14.4
100154	7	Sololá	713	San Lucas Tolimán	10	San Lucas Tolimán	1	Enero	2023-11-01T00:00:00	2024-11-08T01:00:00	4	Temperatura máxima	14.4
100155	7	Sololá	713	San Lucas Tolimán	10	San Lucas Tolimán	1	Enero	2023-11-01T00:00:00	2024-11-08T01:00:00	3	Temperatura mínima	13.8
100156	7	Sololá	713	San Lucas Tolimán	10	San Lucas Tolimán	1	Enero	2023-11-01T00:00:00	2024-11-08T01:00:00	5	Humedad	59
100157	7	Sololá	713	San Lucas Tolimán	10	San Lucas Tolimán	1	Enero	2023-11-01T00:00:00	2024-11-08T01:00:00	6	Velocidad del viento	1.6
100158	7	Sololá	713	San Lucas Tolimán	10	San Lucas Tolimán	1	Enero	2023-11-01T00:00:00	2024-11-08T01:00:00	7	Dirección del viento	1.61
100159	7	Sololá	713	San Lucas Tolimán	10	San Lucas Tolimán	1	Enero	2023-11-01T00:00:00	2024-11-08T01:00:00	1	Precipitación	0
100160	7	Sololá	713	San Lucas Tolimán	10	San Lucas Tolimán	1	Enero	2023-11-01T00:00:00	2024-11-08T01:00:00	8	Radiación solar	0
100161	7	Sololá	713	San Lucas Tolimán	10	San Lucas Tolimán	1	Enero	2023-11-01T00:00:00	2024-11-08T02:00:00	2	Temperatura media	14.4
100162	7	Sololá	713	San Lucas Tolimán	10	San Lucas Tolimán	1	Enero	2023-11-01T00:00:00	2024-11-08T02:00:00	4	Temperatura máxima	14.5
100163	7	Sololá	713	San Lucas Tolimán	10	San Lucas Tolimán	1	Enero	2023-11-01T00:00:00	2024-11-08T02:00:00	3	Temperatura mínima	14.2
100164	7	Sololá	713	San Lucas Tolimán	10	San Lucas Tolimán	1	Enero	2023-11-01T00:00:00	2024-11-08T02:00:00	5	Humedad	58
100165	7	Sololá	713	San Lucas Tolimán	10	San Lucas Tolimán	1	Enero	2023-11-01T00:00:00	2024-11-08T02:00:00	6	Velocidad del viento	0
100166	7	Sololá	713	San Lucas Tolimán	10	San Lucas Tolimán	1	Enero	2023-11-01T00:00:00	2024-11-08T02:00:00	7	Dirección del viento	0
100167	7	Sololá	713	San Lucas Tolimán	10	San Lucas Tolimán	1	Enero	2023-11-01T00:00:00	2024-11-08T02:00:00	1	Precipitación	0
100168	7	Sololá	713	San Lucas Tolimán	10	San Lucas Tolimán	1	Enero	2023-11-01T00:00:00	2024-11-08T02:00:00	8	Radiación solar	0
100169	7	Sololá	713	San Lucas Tolimán	10	San Lucas Tolimán	1	Enero	2023-11-01T00:00:00	2024-11-08T03:00:00	2	Temperatura media	13.9
100170	7	Sololá	713	San Lucas Tolimán	10	San Lucas Tolimán	1	Enero	2023-11-01T00:00:00	2024-11-08T03:00:00	4	Temperatura máxima	14.6
100171	7	Sololá	713	San Lucas Tolimán	10	San Lucas Tolimán	1	Enero	2023-11-01T00:00:00	2024-11-08T03:00:00	3	Temperatura mínima	13.9
100172	7	Sololá	713	San Lucas Tolimán	10	San Lucas Tolimán	1	Enero	2023-11-01T00:00:00	2024-11-08T03:00:00	5	Humedad	61
100173	7	Sololá	713	San Lucas Tolimán	10	San Lucas Tolimán	1	Enero	2023-11-01T00:00:00	2024-11-08T03:00:00	6	Velocidad del viento	1.6
100174	7	Sololá	713	San Lucas Tolimán	10	San Lucas Tolimán	1	Enero	2023-11-01T00:00:00	2024-11-08T03:00:00	7	Dirección del viento	1.61
100175	7	Sololá	713	San Lucas Tolimán	10	San Lucas Tolimán	1	Enero	2023-11-01T00:00:00	2024-11-08T03:00:00	1	Precipitación	0
100176	7	Sololá	713	San Lucas Tolimán	10	San Lucas Tolimán	1	Enero	2023-11-01T00:00:00	2024-11-08T03:00:00	8	Radiación solar	0
100177	7	Sololá	713	San Lucas Tolimán	10	San Lucas Tolimán	1	Enero	2023-11-01T00:00:00	2024-11-08T04:00:00	2	Temperatura media	15.4
100178	7	Sololá	713	San Lucas Tolimán	10	San Lucas Tolimán	1	Enero	2023-11-01T00:00:00	2024-11-08T04:00:00	4	Temperatura máxima	15.8
100179	7	Sololá	713	San Lucas Tolimán	10	San Lucas Tolimán	1	Enero	2023-11-01T00:00:00	2024-11-08T04:00:00	3	Temperatura mínima	13.9
100180	7	Sololá	713	San Lucas Tolimán	10	San Lucas Tolimán	1	Enero	2023-11-01T00:00:00	2024-11-08T04:00:00	5	Humedad	58
100181	7	Sololá	713	San Lucas Tolimán	10	San Lucas Tolimán	1	Enero	2023-11-01T00:00:00	2024-11-08T04:00:00	6	Velocidad del viento	1.6
100182	7	Sololá	713	San Lucas Tolimán	10	San Lucas Tolimán	1	Enero	2023-11-01T00:00:00	2024-11-08T04:00:00	7	Dirección del viento	1.61
100183	7	Sololá	713	San Lucas Tolimán	10	San Lucas Tolimán	1	Enero	2023-11-01T00:00:00	2024-11-08T04:00:00	1	Precipitación	0
100184	7	Sololá	713	San Lucas Tolimán	10	San Lucas Tolimán	1	Enero	2023-11-01T00:00:00	2024-11-08T04:00:00	8	Radiación solar	0
100185	7	Sololá	713	San Lucas Tolimán	10	San Lucas Tolimán	1	Enero	2023-11-01T00:00:00	2024-11-08T05:00:00	2	Temperatura media	14.2
100186	7	Sololá	713	San Lucas Tolimán	10	San Lucas Tolimán	1	Enero	2023-11-01T00:00:00	2024-11-08T05:00:00	4	Temperatura máxima	15.5
100187	7	Sololá	713	San Lucas Tolimán	10	San Lucas Tolimán	1	Enero	2023-11-01T00:00:00	2024-11-08T05:00:00	3	Temperatura mínima	14.2
100188	7	Sololá	713	San Lucas Tolimán	10	San Lucas Tolimán	1	Enero	2023-11-01T00:00:00	2024-11-08T05:00:00	5	Humedad	61
100189	7	Sololá	713	San Lucas Tolimán	10	San Lucas Tolimán	1	Enero	2023-11-01T00:00:00	2024-11-08T05:00:00	6	Velocidad del viento	1.6
100190	7	Sololá	713	San Lucas Tolimán	10	San Lucas Tolimán	1	Enero	2023-11-01T00:00:00	2024-11-08T05:00:00	7	Dirección del viento	1.61
100191	7	Sololá	713	San Lucas Tolimán	10	San Lucas Tolimán	1	Enero	2023-11-01T00:00:00	2024-11-08T05:00:00	1	Precipitación	0
100192	7	Sololá	713	San Lucas Tolimán	10	San Lucas Tolimán	1	Enero	2023-11-01T00:00:00	2024-11-08T05:00:00	8	Radiación solar	0
100193	7	Sololá	713	San Lucas Tolimán	10	San Lucas Tolimán	1	Enero	2023-11-01T00:00:00	2024-11-08T06:00:00	2	Temperatura media	14.2
100194	7	Sololá	713	San Lucas Tolimán	10	San Lucas Tolimán	1	Enero	2023-11-01T00:00:00	2024-11-08T06:00:00	4	Temperatura máxima	14.4
100195	7	Sololá	713	San Lucas Tolimán	10	San Lucas Tolimán	1	Enero	2023-11-01T00:00:00	2024-11-08T06:00:00	3	Temperatura mínima	13.9
100196	7	Sololá	713	San Lucas Tolimán	10	San Lucas Tolimán	1	Enero	2023-11-01T00:00:00	2024-11-08T06:00:00	5	Humedad	61
100197	7	Sololá	713	San Lucas Tolimán	10	San Lucas Tolimán	1	Enero	2023-11-01T00:00:00	2024-11-08T06:00:00	6	Velocidad del viento	1.6
100198	7	Sololá	713	San Lucas Tolimán	10	San Lucas Tolimán	1	Enero	2023-11-01T00:00:00	2024-11-08T06:00:00	7	Dirección del viento	1.61
100199	7	Sololá	713	San Lucas Tolimán	10	San Lucas Tolimán	1	Enero	2023-11-01T00:00:00	2024-11-08T06:00:00	1	Precipitación	0
100200	7	Sololá	713	San Lucas Tolimán	10	San Lucas Tolimán	1	Enero	2023-11-01T00:00:00	2024-11-08T06:00:00	8	Radiación solar	0
100201	7	Sololá	713	San Lucas Tolimán	10	San Lucas Tolimán	1	Enero	2023-11-01T00:00:00	2024-11-08T07:00:00	2	Temperatura media	14.6
100202	7	Sololá	713	San Lucas Tolimán	10	San Lucas Tolimán	1	Enero	2023-11-01T00:00:00	2024-11-08T07:00:00	4	Temperatura máxima	14.8
100203	7	Sololá	713	San Lucas Tolimán	10	San Lucas Tolimán	1	Enero	2023-11-01T00:00:00	2024-11-08T07:00:00	3	Temperatura mínima	14.1
100204	7	Sololá	713	San Lucas Tolimán	10	San Lucas Tolimán	1	Enero	2023-11-01T00:00:00	2024-11-08T07:00:00	5	Humedad	60
100205	7	Sololá	713	San Lucas Tolimán	10	San Lucas Tolimán	1	Enero	2023-11-01T00:00:00	2024-11-08T07:00:00	6	Velocidad del viento	0
100206	7	Sololá	713	San Lucas Tolimán	10	San Lucas Tolimán	1	Enero	2023-11-01T00:00:00	2024-11-08T07:00:00	7	Dirección del viento	0
100207	7	Sololá	713	San Lucas Tolimán	10	San Lucas Tolimán	1	Enero	2023-11-01T00:00:00	2024-11-08T07:00:00	1	Precipitación	0
100208	7	Sololá	713	San Lucas Tolimán	10	San Lucas Tolimán	1	Enero	2023-11-01T00:00:00	2024-11-08T07:00:00	8	Radiación solar	5
100209	7	Sololá	713	San Lucas Tolimán	10	San Lucas Tolimán	1	Enero	2023-11-01T00:00:00	2024-11-08T08:00:00	2	Temperatura media	15.6
100210	7	Sololá	713	San Lucas Tolimán	10	San Lucas Tolimán	1	Enero	2023-11-01T00:00:00	2024-11-08T08:00:00	4	Temperatura máxima	15.6
100211	7	Sololá	713	San Lucas Tolimán	10	San Lucas Tolimán	1	Enero	2023-11-01T00:00:00	2024-11-08T08:00:00	3	Temperatura mínima	14.4
100212	7	Sololá	713	San Lucas Tolimán	10	San Lucas Tolimán	1	Enero	2023-11-01T00:00:00	2024-11-08T08:00:00	5	Humedad	57
100213	7	Sololá	713	San Lucas Tolimán	10	San Lucas Tolimán	1	Enero	2023-11-01T00:00:00	2024-11-08T08:00:00	6	Velocidad del viento	1.6
100214	7	Sololá	713	San Lucas Tolimán	10	San Lucas Tolimán	1	Enero	2023-11-01T00:00:00	2024-11-08T08:00:00	7	Dirección del viento	1.61
100215	7	Sololá	713	San Lucas Tolimán	10	San Lucas Tolimán	1	Enero	2023-11-01T00:00:00	2024-11-08T08:00:00	1	Precipitación	0
100216	7	Sololá	713	San Lucas Tolimán	10	San Lucas Tolimán	1	Enero	2023-11-01T00:00:00	2024-11-08T08:00:00	8	Radiación solar	26
100217	7	Sololá	713	San Lucas Tolimán	10	San Lucas Tolimán	1	Enero	2023-11-01T00:00:00	2024-11-08T09:00:00	2	Temperatura media	18.9
100218	7	Sololá	713	San Lucas Tolimán	10	San Lucas Tolimán	1	Enero	2023-11-01T00:00:00	2024-11-08T09:00:00	4	Temperatura máxima	18.9
100219	7	Sololá	713	San Lucas Tolimán	10	San Lucas Tolimán	1	Enero	2023-11-01T00:00:00	2024-11-08T09:00:00	3	Temperatura mínima	15.6
100220	7	Sololá	713	San Lucas Tolimán	10	San Lucas Tolimán	1	Enero	2023-11-01T00:00:00	2024-11-08T09:00:00	5	Humedad	54
100221	7	Sololá	713	San Lucas Tolimán	10	San Lucas Tolimán	1	Enero	2023-11-01T00:00:00	2024-11-08T09:00:00	6	Velocidad del viento	1.6
100222	7	Sololá	713	San Lucas Tolimán	10	San Lucas Tolimán	1	Enero	2023-11-01T00:00:00	2024-11-08T09:00:00	7	Dirección del viento	1.61
100223	7	Sololá	713	San Lucas Tolimán	10	San Lucas Tolimán	1	Enero	2023-11-01T00:00:00	2024-11-08T09:00:00	1	Precipitación	0
100224	7	Sololá	713	San Lucas Tolimán	10	San Lucas Tolimán	1	Enero	2023-11-01T00:00:00	2024-11-08T09:00:00	8	Radiación solar	141
100225	7	Sololá	713	San Lucas Tolimán	10	San Lucas Tolimán	1	Enero	2023-11-01T00:00:00	2024-11-08T10:00:00	2	Temperatura media	21.1
100226	7	Sololá	713	San Lucas Tolimán	10	San Lucas Tolimán	1	Enero	2023-11-01T00:00:00	2024-11-08T10:00:00	4	Temperatura máxima	21.2
100227	7	Sololá	713	San Lucas Tolimán	10	San Lucas Tolimán	1	Enero	2023-11-01T00:00:00	2024-11-08T10:00:00	3	Temperatura mínima	18.9
100228	7	Sololá	713	San Lucas Tolimán	10	San Lucas Tolimán	1	Enero	2023-11-01T00:00:00	2024-11-08T10:00:00	5	Humedad	47
100229	7	Sololá	713	San Lucas Tolimán	10	San Lucas Tolimán	1	Enero	2023-11-01T00:00:00	2024-11-08T10:00:00	6	Velocidad del viento	9.7
100230	7	Sololá	713	San Lucas Tolimán	10	San Lucas Tolimán	1	Enero	2023-11-01T00:00:00	2024-11-08T10:00:00	7	Dirección del viento	9.66
100231	7	Sololá	713	San Lucas Tolimán	10	San Lucas Tolimán	1	Enero	2023-11-01T00:00:00	2024-11-08T10:00:00	1	Precipitación	0
100232	7	Sololá	713	San Lucas Tolimán	10	San Lucas Tolimán	1	Enero	2023-11-01T00:00:00	2024-11-08T10:00:00	8	Radiación solar	547
100233	7	Sololá	713	San Lucas Tolimán	10	San Lucas Tolimán	1	Enero	2023-11-01T00:00:00	2024-11-08T11:00:00	2	Temperatura media	22.4
100234	7	Sololá	713	San Lucas Tolimán	10	San Lucas Tolimán	1	Enero	2023-11-01T00:00:00	2024-11-08T11:00:00	4	Temperatura máxima	22.4
100235	7	Sololá	713	San Lucas Tolimán	10	San Lucas Tolimán	1	Enero	2023-11-01T00:00:00	2024-11-08T11:00:00	3	Temperatura mínima	21.1
100236	7	Sololá	713	San Lucas Tolimán	10	San Lucas Tolimán	1	Enero	2023-11-01T00:00:00	2024-11-08T11:00:00	5	Humedad	52
100237	7	Sololá	713	San Lucas Tolimán	10	San Lucas Tolimán	1	Enero	2023-11-01T00:00:00	2024-11-08T11:00:00	6	Velocidad del viento	6.4
100238	7	Sololá	713	San Lucas Tolimán	10	San Lucas Tolimán	1	Enero	2023-11-01T00:00:00	2024-11-08T11:00:00	7	Dirección del viento	6.44
100239	7	Sololá	713	San Lucas Tolimán	10	San Lucas Tolimán	1	Enero	2023-11-01T00:00:00	2024-11-08T11:00:00	1	Precipitación	0
100240	7	Sololá	713	San Lucas Tolimán	10	San Lucas Tolimán	1	Enero	2023-11-01T00:00:00	2024-11-08T11:00:00	8	Radiación solar	576
100241	7	Sololá	713	San Lucas Tolimán	10	San Lucas Tolimán	1	Enero	2023-11-01T00:00:00	2024-11-08T12:00:00	2	Temperatura media	21.9
100242	7	Sololá	713	San Lucas Tolimán	10	San Lucas Tolimán	1	Enero	2023-11-01T00:00:00	2024-11-08T12:00:00	4	Temperatura máxima	22.4
100243	7	Sololá	713	San Lucas Tolimán	10	San Lucas Tolimán	1	Enero	2023-11-01T00:00:00	2024-11-08T12:00:00	3	Temperatura mínima	21.8
100244	7	Sololá	713	San Lucas Tolimán	10	San Lucas Tolimán	1	Enero	2023-11-01T00:00:00	2024-11-08T12:00:00	5	Humedad	60
100245	7	Sololá	713	San Lucas Tolimán	10	San Lucas Tolimán	1	Enero	2023-11-01T00:00:00	2024-11-08T12:00:00	6	Velocidad del viento	8
100246	7	Sololá	713	San Lucas Tolimán	10	San Lucas Tolimán	1	Enero	2023-11-01T00:00:00	2024-11-08T12:00:00	7	Dirección del viento	8.05
100247	7	Sololá	713	San Lucas Tolimán	10	San Lucas Tolimán	1	Enero	2023-11-01T00:00:00	2024-11-08T12:00:00	1	Precipitación	0
100248	7	Sololá	713	San Lucas Tolimán	10	San Lucas Tolimán	1	Enero	2023-11-01T00:00:00	2024-11-08T12:00:00	8	Radiación solar	883
100249	7	Sololá	713	San Lucas Tolimán	10	San Lucas Tolimán	1	Enero	2023-11-01T00:00:00	2024-11-08T13:00:00	2	Temperatura media	21.3
100250	7	Sololá	713	San Lucas Tolimán	10	San Lucas Tolimán	1	Enero	2023-11-01T00:00:00	2024-11-08T13:00:00	4	Temperatura máxima	22.7
100251	7	Sololá	713	San Lucas Tolimán	10	San Lucas Tolimán	1	Enero	2023-11-01T00:00:00	2024-11-08T13:00:00	3	Temperatura mínima	20.3
100252	7	Sololá	713	San Lucas Tolimán	10	San Lucas Tolimán	1	Enero	2023-11-01T00:00:00	2024-11-08T13:00:00	5	Humedad	59
100253	7	Sololá	713	San Lucas Tolimán	10	San Lucas Tolimán	1	Enero	2023-11-01T00:00:00	2024-11-08T13:00:00	6	Velocidad del viento	11.3
100254	7	Sololá	713	San Lucas Tolimán	10	San Lucas Tolimán	1	Enero	2023-11-01T00:00:00	2024-11-08T13:00:00	7	Dirección del viento	11.27
100255	7	Sololá	713	San Lucas Tolimán	10	San Lucas Tolimán	1	Enero	2023-11-01T00:00:00	2024-11-08T13:00:00	1	Precipitación	0
100256	7	Sololá	713	San Lucas Tolimán	10	San Lucas Tolimán	1	Enero	2023-11-01T00:00:00	2024-11-08T13:00:00	8	Radiación solar	843
100257	7	Sololá	713	San Lucas Tolimán	10	San Lucas Tolimán	1	Enero	2023-11-01T00:00:00	2024-11-08T14:00:00	2	Temperatura media	21.2
100258	7	Sololá	713	San Lucas Tolimán	10	San Lucas Tolimán	1	Enero	2023-11-01T00:00:00	2024-11-08T14:00:00	4	Temperatura máxima	21.9
100259	7	Sololá	713	San Lucas Tolimán	10	San Lucas Tolimán	1	Enero	2023-11-01T00:00:00	2024-11-08T14:00:00	3	Temperatura mínima	20.6
100260	7	Sololá	713	San Lucas Tolimán	10	San Lucas Tolimán	1	Enero	2023-11-01T00:00:00	2024-11-08T14:00:00	5	Humedad	60
100261	7	Sololá	713	San Lucas Tolimán	10	San Lucas Tolimán	1	Enero	2023-11-01T00:00:00	2024-11-08T14:00:00	6	Velocidad del viento	9.7
100262	7	Sololá	713	San Lucas Tolimán	10	San Lucas Tolimán	1	Enero	2023-11-01T00:00:00	2024-11-08T14:00:00	7	Dirección del viento	9.66
100263	7	Sololá	713	San Lucas Tolimán	10	San Lucas Tolimán	1	Enero	2023-11-01T00:00:00	2024-11-08T14:00:00	1	Precipitación	0
100264	7	Sololá	713	San Lucas Tolimán	10	San Lucas Tolimán	1	Enero	2023-11-01T00:00:00	2024-11-08T14:00:00	8	Radiación solar	690
100265	7	Sololá	713	San Lucas Tolimán	10	San Lucas Tolimán	1	Enero	2023-11-01T00:00:00	2024-11-08T15:00:00	2	Temperatura media	18.9
100266	7	Sololá	713	San Lucas Tolimán	10	San Lucas Tolimán	1	Enero	2023-11-01T00:00:00	2024-11-08T15:00:00	4	Temperatura máxima	21.3
100267	7	Sololá	713	San Lucas Tolimán	10	San Lucas Tolimán	1	Enero	2023-11-01T00:00:00	2024-11-08T15:00:00	3	Temperatura mínima	18.8
100268	7	Sololá	713	San Lucas Tolimán	10	San Lucas Tolimán	1	Enero	2023-11-01T00:00:00	2024-11-08T15:00:00	5	Humedad	61
100269	7	Sololá	713	San Lucas Tolimán	10	San Lucas Tolimán	1	Enero	2023-11-01T00:00:00	2024-11-08T15:00:00	6	Velocidad del viento	14.5
100270	7	Sololá	713	San Lucas Tolimán	10	San Lucas Tolimán	1	Enero	2023-11-01T00:00:00	2024-11-08T15:00:00	7	Dirección del viento	14.48
100271	7	Sololá	713	San Lucas Tolimán	10	San Lucas Tolimán	1	Enero	2023-11-01T00:00:00	2024-11-08T15:00:00	1	Precipitación	0
100272	7	Sololá	713	San Lucas Tolimán	10	San Lucas Tolimán	1	Enero	2023-11-01T00:00:00	2024-11-08T15:00:00	8	Radiación solar	449
100273	7	Sololá	713	San Lucas Tolimán	10	San Lucas Tolimán	1	Enero	2023-11-01T00:00:00	2024-11-08T16:00:00	2	Temperatura media	20.9
100274	7	Sololá	713	San Lucas Tolimán	10	San Lucas Tolimán	1	Enero	2023-11-01T00:00:00	2024-11-08T16:00:00	4	Temperatura máxima	21.3
100275	7	Sololá	713	San Lucas Tolimán	10	San Lucas Tolimán	1	Enero	2023-11-01T00:00:00	2024-11-08T16:00:00	3	Temperatura mínima	18.9
100276	7	Sololá	713	San Lucas Tolimán	10	San Lucas Tolimán	1	Enero	2023-11-01T00:00:00	2024-11-08T16:00:00	5	Humedad	59
100277	7	Sololá	713	San Lucas Tolimán	10	San Lucas Tolimán	1	Enero	2023-11-01T00:00:00	2024-11-08T16:00:00	6	Velocidad del viento	11.3
100278	7	Sololá	713	San Lucas Tolimán	10	San Lucas Tolimán	1	Enero	2023-11-01T00:00:00	2024-11-08T16:00:00	7	Dirección del viento	11.27
100279	7	Sololá	713	San Lucas Tolimán	10	San Lucas Tolimán	1	Enero	2023-11-01T00:00:00	2024-11-08T16:00:00	1	Precipitación	0
100280	7	Sololá	713	San Lucas Tolimán	10	San Lucas Tolimán	1	Enero	2023-11-01T00:00:00	2024-11-08T16:00:00	8	Radiación solar	380
100281	7	Sololá	713	San Lucas Tolimán	10	San Lucas Tolimán	1	Enero	2023-11-01T00:00:00	2024-11-08T17:00:00	2	Temperatura media	19.3
100282	7	Sololá	713	San Lucas Tolimán	10	San Lucas Tolimán	1	Enero	2023-11-01T00:00:00	2024-11-08T17:00:00	4	Temperatura máxima	20.9
100283	7	Sololá	713	San Lucas Tolimán	10	San Lucas Tolimán	1	Enero	2023-11-01T00:00:00	2024-11-08T17:00:00	3	Temperatura mínima	19.3
100284	7	Sololá	713	San Lucas Tolimán	10	San Lucas Tolimán	1	Enero	2023-11-01T00:00:00	2024-11-08T17:00:00	5	Humedad	61
100285	7	Sololá	713	San Lucas Tolimán	10	San Lucas Tolimán	1	Enero	2023-11-01T00:00:00	2024-11-08T17:00:00	6	Velocidad del viento	8
100286	7	Sololá	713	San Lucas Tolimán	10	San Lucas Tolimán	1	Enero	2023-11-01T00:00:00	2024-11-08T17:00:00	7	Dirección del viento	8.05
100287	7	Sololá	713	San Lucas Tolimán	10	San Lucas Tolimán	1	Enero	2023-11-01T00:00:00	2024-11-08T17:00:00	1	Precipitación	0
100288	7	Sololá	713	San Lucas Tolimán	10	San Lucas Tolimán	1	Enero	2023-11-01T00:00:00	2024-11-08T17:00:00	8	Radiación solar	97
100289	7	Sololá	713	San Lucas Tolimán	10	San Lucas Tolimán	1	Enero	2023-11-01T00:00:00	2024-11-08T18:00:00	2	Temperatura media	18.3
100290	7	Sololá	713	San Lucas Tolimán	10	San Lucas Tolimán	1	Enero	2023-11-01T00:00:00	2024-11-08T18:00:00	4	Temperatura máxima	19.3
100291	7	Sololá	713	San Lucas Tolimán	10	San Lucas Tolimán	1	Enero	2023-11-01T00:00:00	2024-11-08T18:00:00	3	Temperatura mínima	18.2
100292	7	Sololá	713	San Lucas Tolimán	10	San Lucas Tolimán	1	Enero	2023-11-01T00:00:00	2024-11-08T18:00:00	5	Humedad	60
100293	7	Sololá	713	San Lucas Tolimán	10	San Lucas Tolimán	1	Enero	2023-11-01T00:00:00	2024-11-08T18:00:00	6	Velocidad del viento	4.8
100294	7	Sololá	713	San Lucas Tolimán	10	San Lucas Tolimán	1	Enero	2023-11-01T00:00:00	2024-11-08T18:00:00	7	Dirección del viento	4.83
100295	7	Sololá	713	San Lucas Tolimán	10	San Lucas Tolimán	1	Enero	2023-11-01T00:00:00	2024-11-08T18:00:00	1	Precipitación	0
100296	7	Sololá	713	San Lucas Tolimán	10	San Lucas Tolimán	1	Enero	2023-11-01T00:00:00	2024-11-08T18:00:00	8	Radiación solar	18
100297	7	Sololá	713	San Lucas Tolimán	10	San Lucas Tolimán	1	Enero	2023-11-01T00:00:00	2024-11-08T19:00:00	2	Temperatura media	18.8
100298	7	Sololá	713	San Lucas Tolimán	10	San Lucas Tolimán	1	Enero	2023-11-01T00:00:00	2024-11-08T19:00:00	4	Temperatura máxima	18.8
100299	7	Sololá	713	San Lucas Tolimán	10	San Lucas Tolimán	1	Enero	2023-11-01T00:00:00	2024-11-08T19:00:00	3	Temperatura mínima	17.7
100300	7	Sololá	713	San Lucas Tolimán	10	San Lucas Tolimán	1	Enero	2023-11-01T00:00:00	2024-11-08T19:00:00	5	Humedad	54
100301	7	Sololá	713	San Lucas Tolimán	10	San Lucas Tolimán	1	Enero	2023-11-01T00:00:00	2024-11-08T19:00:00	6	Velocidad del viento	4.8
100302	7	Sololá	713	San Lucas Tolimán	10	San Lucas Tolimán	1	Enero	2023-11-01T00:00:00	2024-11-08T19:00:00	7	Dirección del viento	4.83
100303	7	Sololá	713	San Lucas Tolimán	10	San Lucas Tolimán	1	Enero	2023-11-01T00:00:00	2024-11-08T19:00:00	1	Precipitación	0
100304	7	Sololá	713	San Lucas Tolimán	10	San Lucas Tolimán	1	Enero	2023-11-01T00:00:00	2024-11-08T19:00:00	8	Radiación solar	0
100305	7	Sololá	713	San Lucas Tolimán	10	San Lucas Tolimán	1	Enero	2023-11-01T00:00:00	2024-11-08T20:00:00	2	Temperatura media	18.7
100306	7	Sololá	713	San Lucas Tolimán	10	San Lucas Tolimán	1	Enero	2023-11-01T00:00:00	2024-11-08T20:00:00	4	Temperatura máxima	18.9
100307	7	Sololá	713	San Lucas Tolimán	10	San Lucas Tolimán	1	Enero	2023-11-01T00:00:00	2024-11-08T20:00:00	3	Temperatura mínima	18.7
100308	7	Sololá	713	San Lucas Tolimán	10	San Lucas Tolimán	1	Enero	2023-11-01T00:00:00	2024-11-08T20:00:00	5	Humedad	54
100309	7	Sololá	713	San Lucas Tolimán	10	San Lucas Tolimán	1	Enero	2023-11-01T00:00:00	2024-11-08T20:00:00	6	Velocidad del viento	12.9
100310	7	Sololá	713	San Lucas Tolimán	10	San Lucas Tolimán	1	Enero	2023-11-01T00:00:00	2024-11-08T20:00:00	7	Dirección del viento	12.87
100311	7	Sololá	713	San Lucas Tolimán	10	San Lucas Tolimán	1	Enero	2023-11-01T00:00:00	2024-11-08T20:00:00	1	Precipitación	0
100312	7	Sololá	713	San Lucas Tolimán	10	San Lucas Tolimán	1	Enero	2023-11-01T00:00:00	2024-11-08T20:00:00	8	Radiación solar	0
100313	7	Sololá	713	San Lucas Tolimán	10	San Lucas Tolimán	1	Enero	2023-11-01T00:00:00	2024-11-08T21:00:00	2	Temperatura media	18.3
100314	7	Sololá	713	San Lucas Tolimán	10	San Lucas Tolimán	1	Enero	2023-11-01T00:00:00	2024-11-08T21:00:00	4	Temperatura máxima	18.7
100315	7	Sololá	713	San Lucas Tolimán	10	San Lucas Tolimán	1	Enero	2023-11-01T00:00:00	2024-11-08T21:00:00	3	Temperatura mínima	18.3
100316	7	Sololá	713	San Lucas Tolimán	10	San Lucas Tolimán	1	Enero	2023-11-01T00:00:00	2024-11-08T21:00:00	5	Humedad	56
100317	7	Sololá	713	San Lucas Tolimán	10	San Lucas Tolimán	1	Enero	2023-11-01T00:00:00	2024-11-08T21:00:00	6	Velocidad del viento	9.7
100318	7	Sololá	713	San Lucas Tolimán	10	San Lucas Tolimán	1	Enero	2023-11-01T00:00:00	2024-11-08T21:00:00	7	Dirección del viento	9.66
100319	7	Sololá	713	San Lucas Tolimán	10	San Lucas Tolimán	1	Enero	2023-11-01T00:00:00	2024-11-08T21:00:00	1	Precipitación	0
100320	7	Sololá	713	San Lucas Tolimán	10	San Lucas Tolimán	1	Enero	2023-11-01T00:00:00	2024-11-08T21:00:00	8	Radiación solar	0
100321	7	Sololá	713	San Lucas Tolimán	10	San Lucas Tolimán	1	Enero	2023-11-01T00:00:00	2024-11-08T22:00:00	2	Temperatura media	18.3
100322	7	Sololá	713	San Lucas Tolimán	10	San Lucas Tolimán	1	Enero	2023-11-01T00:00:00	2024-11-08T22:00:00	4	Temperatura máxima	18.5
100323	7	Sololá	713	San Lucas Tolimán	10	San Lucas Tolimán	1	Enero	2023-11-01T00:00:00	2024-11-08T22:00:00	3	Temperatura mínima	18.1
100324	7	Sololá	713	San Lucas Tolimán	10	San Lucas Tolimán	1	Enero	2023-11-01T00:00:00	2024-11-08T22:00:00	5	Humedad	55
100325	7	Sololá	713	San Lucas Tolimán	10	San Lucas Tolimán	1	Enero	2023-11-01T00:00:00	2024-11-08T22:00:00	6	Velocidad del viento	14.5
100326	7	Sololá	713	San Lucas Tolimán	10	San Lucas Tolimán	1	Enero	2023-11-01T00:00:00	2024-11-08T22:00:00	7	Dirección del viento	14.48
100327	7	Sololá	713	San Lucas Tolimán	10	San Lucas Tolimán	1	Enero	2023-11-01T00:00:00	2024-11-08T22:00:00	1	Precipitación	0
100328	7	Sololá	713	San Lucas Tolimán	10	San Lucas Tolimán	1	Enero	2023-11-01T00:00:00	2024-11-08T22:00:00	8	Radiación solar	0
100329	7	Sololá	713	San Lucas Tolimán	10	San Lucas Tolimán	1	Enero	2023-11-01T00:00:00	2024-11-08T23:00:00	2	Temperatura media	17.8
100330	7	Sololá	713	San Lucas Tolimán	10	San Lucas Tolimán	1	Enero	2023-11-01T00:00:00	2024-11-08T23:00:00	4	Temperatura máxima	18.3
100331	7	Sololá	713	San Lucas Tolimán	10	San Lucas Tolimán	1	Enero	2023-11-01T00:00:00	2024-11-08T23:00:00	3	Temperatura mínima	17.2
100332	7	Sololá	713	San Lucas Tolimán	10	San Lucas Tolimán	1	Enero	2023-11-01T00:00:00	2024-11-08T23:00:00	5	Humedad	55
100333	7	Sololá	713	San Lucas Tolimán	10	San Lucas Tolimán	1	Enero	2023-11-01T00:00:00	2024-11-08T23:00:00	6	Velocidad del viento	6.4
100334	7	Sololá	713	San Lucas Tolimán	10	San Lucas Tolimán	1	Enero	2023-11-01T00:00:00	2024-11-08T23:00:00	7	Dirección del viento	6.44
100335	7	Sololá	713	San Lucas Tolimán	10	San Lucas Tolimán	1	Enero	2023-11-01T00:00:00	2024-11-08T23:00:00	1	Precipitación	0
100336	7	Sololá	713	San Lucas Tolimán	10	San Lucas Tolimán	1	Enero	2023-11-01T00:00:00	2024-11-08T23:00:00	8	Radiación solar	0
100337	7	Sololá	713	San Lucas Tolimán	10	San Lucas Tolimán	1	Enero	2023-12-01T00:00:00	2024-11-08T00:00:00	2	Temperatura media	17.4
100338	7	Sololá	713	San Lucas Tolimán	10	San Lucas Tolimán	1	Enero	2023-12-01T00:00:00	2024-11-08T00:00:00	4	Temperatura máxima	17.8
100339	7	Sololá	713	San Lucas Tolimán	10	San Lucas Tolimán	1	Enero	2023-12-01T00:00:00	2024-11-08T00:00:00	3	Temperatura mínima	16.2
100340	7	Sololá	713	San Lucas Tolimán	10	San Lucas Tolimán	1	Enero	2023-12-01T00:00:00	2024-11-08T00:00:00	5	Humedad	56
100341	7	Sololá	713	San Lucas Tolimán	10	San Lucas Tolimán	1	Enero	2023-12-01T00:00:00	2024-11-08T00:00:00	6	Velocidad del viento	4.8
100342	7	Sololá	713	San Lucas Tolimán	10	San Lucas Tolimán	1	Enero	2023-12-01T00:00:00	2024-11-08T00:00:00	7	Dirección del viento	4.83
100343	7	Sololá	713	San Lucas Tolimán	10	San Lucas Tolimán	1	Enero	2023-12-01T00:00:00	2024-11-08T00:00:00	1	Precipitación	0
100344	7	Sololá	713	San Lucas Tolimán	10	San Lucas Tolimán	1	Enero	2023-12-01T00:00:00	2024-11-08T00:00:00	8	Radiación solar	0
100345	7	Sololá	713	San Lucas Tolimán	10	San Lucas Tolimán	1	Enero	2023-12-01T00:00:00	2024-11-08T01:00:00	2	Temperatura media	17.4
100346	7	Sololá	713	San Lucas Tolimán	10	San Lucas Tolimán	1	Enero	2023-12-01T00:00:00	2024-11-08T01:00:00	4	Temperatura máxima	17.7
100347	7	Sololá	713	San Lucas Tolimán	10	San Lucas Tolimán	1	Enero	2023-12-01T00:00:00	2024-11-08T01:00:00	3	Temperatura mínima	16.8
100348	7	Sololá	713	San Lucas Tolimán	10	San Lucas Tolimán	1	Enero	2023-12-01T00:00:00	2024-11-08T01:00:00	5	Humedad	56
100349	7	Sololá	713	San Lucas Tolimán	10	San Lucas Tolimán	1	Enero	2023-12-01T00:00:00	2024-11-08T01:00:00	6	Velocidad del viento	6.4
100350	7	Sololá	713	San Lucas Tolimán	10	San Lucas Tolimán	1	Enero	2023-12-01T00:00:00	2024-11-08T01:00:00	7	Dirección del viento	6.44
100351	7	Sololá	713	San Lucas Tolimán	10	San Lucas Tolimán	1	Enero	2023-12-01T00:00:00	2024-11-08T01:00:00	1	Precipitación	0
100352	7	Sololá	713	San Lucas Tolimán	10	San Lucas Tolimán	1	Enero	2023-12-01T00:00:00	2024-11-08T01:00:00	8	Radiación solar	0
100353	7	Sololá	713	San Lucas Tolimán	10	San Lucas Tolimán	1	Enero	2023-12-01T00:00:00	2024-11-08T02:00:00	2	Temperatura media	17.4
100354	7	Sololá	713	San Lucas Tolimán	10	San Lucas Tolimán	1	Enero	2023-12-01T00:00:00	2024-11-08T02:00:00	4	Temperatura máxima	17.5
100355	7	Sololá	713	San Lucas Tolimán	10	San Lucas Tolimán	1	Enero	2023-12-01T00:00:00	2024-11-08T02:00:00	3	Temperatura mínima	16.6
100356	7	Sololá	713	San Lucas Tolimán	10	San Lucas Tolimán	1	Enero	2023-12-01T00:00:00	2024-11-08T02:00:00	5	Humedad	56
100357	7	Sololá	713	San Lucas Tolimán	10	San Lucas Tolimán	1	Enero	2023-12-01T00:00:00	2024-11-08T02:00:00	6	Velocidad del viento	4.8
100358	7	Sololá	713	San Lucas Tolimán	10	San Lucas Tolimán	1	Enero	2023-12-01T00:00:00	2024-11-08T02:00:00	7	Dirección del viento	4.83
100359	7	Sololá	713	San Lucas Tolimán	10	San Lucas Tolimán	1	Enero	2023-12-01T00:00:00	2024-11-08T02:00:00	1	Precipitación	0
100360	7	Sololá	713	San Lucas Tolimán	10	San Lucas Tolimán	1	Enero	2023-12-01T00:00:00	2024-11-08T02:00:00	8	Radiación solar	0
100361	7	Sololá	713	San Lucas Tolimán	10	San Lucas Tolimán	1	Enero	2023-12-01T00:00:00	2024-11-08T03:00:00	2	Temperatura media	15.4
100362	7	Sololá	713	San Lucas Tolimán	10	San Lucas Tolimán	1	Enero	2023-12-01T00:00:00	2024-11-08T03:00:00	4	Temperatura máxima	17.4
100363	7	Sololá	713	San Lucas Tolimán	10	San Lucas Tolimán	1	Enero	2023-12-01T00:00:00	2024-11-08T03:00:00	3	Temperatura mínima	15.4
100364	7	Sololá	713	San Lucas Tolimán	10	San Lucas Tolimán	1	Enero	2023-12-01T00:00:00	2024-11-08T03:00:00	5	Humedad	61
100365	7	Sololá	713	San Lucas Tolimán	10	San Lucas Tolimán	1	Enero	2023-12-01T00:00:00	2024-11-08T03:00:00	6	Velocidad del viento	1.6
100366	7	Sololá	713	San Lucas Tolimán	10	San Lucas Tolimán	1	Enero	2023-12-01T00:00:00	2024-11-08T03:00:00	7	Dirección del viento	1.61
100367	7	Sololá	713	San Lucas Tolimán	10	San Lucas Tolimán	1	Enero	2023-12-01T00:00:00	2024-11-08T03:00:00	1	Precipitación	0
100368	7	Sololá	713	San Lucas Tolimán	10	San Lucas Tolimán	1	Enero	2023-12-01T00:00:00	2024-11-08T03:00:00	8	Radiación solar	0
100369	7	Sololá	713	San Lucas Tolimán	10	San Lucas Tolimán	1	Enero	2023-12-01T00:00:00	2024-11-08T04:00:00	2	Temperatura media	15.2
100370	7	Sololá	713	San Lucas Tolimán	10	San Lucas Tolimán	1	Enero	2023-12-01T00:00:00	2024-11-08T04:00:00	4	Temperatura máxima	15.5
100371	7	Sololá	713	San Lucas Tolimán	10	San Lucas Tolimán	1	Enero	2023-12-01T00:00:00	2024-11-08T04:00:00	3	Temperatura mínima	14.9
100372	7	Sololá	713	San Lucas Tolimán	10	San Lucas Tolimán	1	Enero	2023-12-01T00:00:00	2024-11-08T04:00:00	5	Humedad	61
100373	7	Sololá	713	San Lucas Tolimán	10	San Lucas Tolimán	1	Enero	2023-12-01T00:00:00	2024-11-08T04:00:00	6	Velocidad del viento	1.6
100374	7	Sololá	713	San Lucas Tolimán	10	San Lucas Tolimán	1	Enero	2023-12-01T00:00:00	2024-11-08T04:00:00	7	Dirección del viento	1.61
100375	7	Sololá	713	San Lucas Tolimán	10	San Lucas Tolimán	1	Enero	2023-12-01T00:00:00	2024-11-08T04:00:00	1	Precipitación	0
100376	7	Sololá	713	San Lucas Tolimán	10	San Lucas Tolimán	1	Enero	2023-12-01T00:00:00	2024-11-08T04:00:00	8	Radiación solar	0
100377	7	Sololá	713	San Lucas Tolimán	10	San Lucas Tolimán	1	Enero	2023-12-01T00:00:00	2024-11-08T05:00:00	2	Temperatura media	15
100378	7	Sololá	713	San Lucas Tolimán	10	San Lucas Tolimán	1	Enero	2023-12-01T00:00:00	2024-11-08T05:00:00	4	Temperatura máxima	15.2
100379	7	Sololá	713	San Lucas Tolimán	10	San Lucas Tolimán	1	Enero	2023-12-01T00:00:00	2024-11-08T05:00:00	3	Temperatura mínima	14.7
100380	7	Sololá	713	San Lucas Tolimán	10	San Lucas Tolimán	1	Enero	2023-12-01T00:00:00	2024-11-08T05:00:00	5	Humedad	62
100381	7	Sololá	713	San Lucas Tolimán	10	San Lucas Tolimán	1	Enero	2023-12-01T00:00:00	2024-11-08T05:00:00	6	Velocidad del viento	0
100382	7	Sololá	713	San Lucas Tolimán	10	San Lucas Tolimán	1	Enero	2023-12-01T00:00:00	2024-11-08T05:00:00	7	Dirección del viento	0
100383	7	Sololá	713	San Lucas Tolimán	10	San Lucas Tolimán	1	Enero	2023-12-01T00:00:00	2024-11-08T05:00:00	1	Precipitación	0
100384	7	Sololá	713	San Lucas Tolimán	10	San Lucas Tolimán	1	Enero	2023-12-01T00:00:00	2024-11-08T05:00:00	8	Radiación solar	0
100385	7	Sololá	713	San Lucas Tolimán	10	San Lucas Tolimán	1	Enero	2023-12-01T00:00:00	2024-11-08T06:00:00	2	Temperatura media	14.2
100386	7	Sololá	713	San Lucas Tolimán	10	San Lucas Tolimán	1	Enero	2023-12-01T00:00:00	2024-11-08T06:00:00	4	Temperatura máxima	15.2
100387	7	Sololá	713	San Lucas Tolimán	10	San Lucas Tolimán	1	Enero	2023-12-01T00:00:00	2024-11-08T06:00:00	3	Temperatura mínima	14.1
100388	7	Sololá	713	San Lucas Tolimán	10	San Lucas Tolimán	1	Enero	2023-12-01T00:00:00	2024-11-08T06:00:00	5	Humedad	63
100389	7	Sololá	713	San Lucas Tolimán	10	San Lucas Tolimán	1	Enero	2023-12-01T00:00:00	2024-11-08T06:00:00	6	Velocidad del viento	3.2
100390	7	Sololá	713	San Lucas Tolimán	10	San Lucas Tolimán	1	Enero	2023-12-01T00:00:00	2024-11-08T06:00:00	7	Dirección del viento	3.22
100391	7	Sololá	713	San Lucas Tolimán	10	San Lucas Tolimán	1	Enero	2023-12-01T00:00:00	2024-11-08T06:00:00	1	Precipitación	0
100392	7	Sololá	713	San Lucas Tolimán	10	San Lucas Tolimán	1	Enero	2023-12-01T00:00:00	2024-11-08T06:00:00	8	Radiación solar	0
100393	7	Sololá	713	San Lucas Tolimán	10	San Lucas Tolimán	1	Enero	2023-12-01T00:00:00	2024-11-08T07:00:00	2	Temperatura media	14.9
100394	7	Sololá	713	San Lucas Tolimán	10	San Lucas Tolimán	1	Enero	2023-12-01T00:00:00	2024-11-08T07:00:00	4	Temperatura máxima	14.9
100395	7	Sololá	713	San Lucas Tolimán	10	San Lucas Tolimán	1	Enero	2023-12-01T00:00:00	2024-11-08T07:00:00	3	Temperatura mínima	14
100396	7	Sololá	713	San Lucas Tolimán	10	San Lucas Tolimán	1	Enero	2023-12-01T00:00:00	2024-11-08T07:00:00	5	Humedad	62
100397	7	Sololá	713	San Lucas Tolimán	10	San Lucas Tolimán	1	Enero	2023-12-01T00:00:00	2024-11-08T07:00:00	6	Velocidad del viento	1.6
100398	7	Sololá	713	San Lucas Tolimán	10	San Lucas Tolimán	1	Enero	2023-12-01T00:00:00	2024-11-08T07:00:00	7	Dirección del viento	1.61
100399	7	Sololá	713	San Lucas Tolimán	10	San Lucas Tolimán	1	Enero	2023-12-01T00:00:00	2024-11-08T07:00:00	1	Precipitación	0
100400	7	Sololá	713	San Lucas Tolimán	10	San Lucas Tolimán	1	Enero	2023-12-01T00:00:00	2024-11-08T07:00:00	8	Radiación solar	3
100401	7	Sololá	713	San Lucas Tolimán	10	San Lucas Tolimán	1	Enero	2023-12-01T00:00:00	2024-11-08T08:00:00	2	Temperatura media	14.9
100402	7	Sololá	713	San Lucas Tolimán	10	San Lucas Tolimán	1	Enero	2023-12-01T00:00:00	2024-11-08T08:00:00	4	Temperatura máxima	15.1
100403	7	Sololá	713	San Lucas Tolimán	10	San Lucas Tolimán	1	Enero	2023-12-01T00:00:00	2024-11-08T08:00:00	3	Temperatura mínima	14.7
100404	7	Sololá	713	San Lucas Tolimán	10	San Lucas Tolimán	1	Enero	2023-12-01T00:00:00	2024-11-08T08:00:00	5	Humedad	62
100405	7	Sololá	713	San Lucas Tolimán	10	San Lucas Tolimán	1	Enero	2023-12-01T00:00:00	2024-11-08T08:00:00	6	Velocidad del viento	0
100406	7	Sololá	713	San Lucas Tolimán	10	San Lucas Tolimán	1	Enero	2023-12-01T00:00:00	2024-11-08T08:00:00	7	Dirección del viento	0
100407	7	Sololá	713	San Lucas Tolimán	10	San Lucas Tolimán	1	Enero	2023-12-01T00:00:00	2024-11-08T08:00:00	1	Precipitación	0
100408	7	Sololá	713	San Lucas Tolimán	10	San Lucas Tolimán	1	Enero	2023-12-01T00:00:00	2024-11-08T08:00:00	8	Radiación solar	20
100409	7	Sololá	713	San Lucas Tolimán	10	San Lucas Tolimán	1	Enero	2023-12-01T00:00:00	2024-11-08T09:00:00	2	Temperatura media	17.8
100410	7	Sololá	713	San Lucas Tolimán	10	San Lucas Tolimán	1	Enero	2023-12-01T00:00:00	2024-11-08T09:00:00	4	Temperatura máxima	17.8
100411	7	Sololá	713	San Lucas Tolimán	10	San Lucas Tolimán	1	Enero	2023-12-01T00:00:00	2024-11-08T09:00:00	3	Temperatura mínima	14.9
100412	7	Sololá	713	San Lucas Tolimán	10	San Lucas Tolimán	1	Enero	2023-12-01T00:00:00	2024-11-08T09:00:00	5	Humedad	56
100413	7	Sololá	713	San Lucas Tolimán	10	San Lucas Tolimán	1	Enero	2023-12-01T00:00:00	2024-11-08T09:00:00	6	Velocidad del viento	4.8
100414	7	Sololá	713	San Lucas Tolimán	10	San Lucas Tolimán	1	Enero	2023-12-01T00:00:00	2024-11-08T09:00:00	7	Dirección del viento	4.83
100415	7	Sololá	713	San Lucas Tolimán	10	San Lucas Tolimán	1	Enero	2023-12-01T00:00:00	2024-11-08T09:00:00	1	Precipitación	0
100416	7	Sololá	713	San Lucas Tolimán	10	San Lucas Tolimán	1	Enero	2023-12-01T00:00:00	2024-11-08T09:00:00	8	Radiación solar	271
100417	7	Sololá	713	San Lucas Tolimán	10	San Lucas Tolimán	1	Enero	2023-12-01T00:00:00	2024-11-08T10:00:00	2	Temperatura media	20.9
100418	7	Sololá	713	San Lucas Tolimán	10	San Lucas Tolimán	1	Enero	2023-12-01T00:00:00	2024-11-08T10:00:00	4	Temperatura máxima	21.1
100419	7	Sololá	713	San Lucas Tolimán	10	San Lucas Tolimán	1	Enero	2023-12-01T00:00:00	2024-11-08T10:00:00	3	Temperatura mínima	17.8
100420	7	Sololá	713	San Lucas Tolimán	10	San Lucas Tolimán	1	Enero	2023-12-01T00:00:00	2024-11-08T10:00:00	5	Humedad	50
100421	7	Sololá	713	San Lucas Tolimán	10	San Lucas Tolimán	1	Enero	2023-12-01T00:00:00	2024-11-08T10:00:00	6	Velocidad del viento	4.8
100422	7	Sololá	713	San Lucas Tolimán	10	San Lucas Tolimán	1	Enero	2023-12-01T00:00:00	2024-11-08T10:00:00	7	Dirección del viento	4.83
100423	7	Sololá	713	San Lucas Tolimán	10	San Lucas Tolimán	1	Enero	2023-12-01T00:00:00	2024-11-08T10:00:00	1	Precipitación	0
100424	7	Sololá	713	San Lucas Tolimán	10	San Lucas Tolimán	1	Enero	2023-12-01T00:00:00	2024-11-08T10:00:00	8	Radiación solar	592
100425	7	Sololá	713	San Lucas Tolimán	10	San Lucas Tolimán	1	Enero	2023-12-01T00:00:00	2024-11-08T11:00:00	2	Temperatura media	22.3
100426	7	Sololá	713	San Lucas Tolimán	10	San Lucas Tolimán	1	Enero	2023-12-01T00:00:00	2024-11-08T11:00:00	4	Temperatura máxima	22.4
100427	7	Sololá	713	San Lucas Tolimán	10	San Lucas Tolimán	1	Enero	2023-12-01T00:00:00	2024-11-08T11:00:00	3	Temperatura mínima	20.9
100428	7	Sololá	713	San Lucas Tolimán	10	San Lucas Tolimán	1	Enero	2023-12-01T00:00:00	2024-11-08T11:00:00	5	Humedad	49
100429	7	Sololá	713	San Lucas Tolimán	10	San Lucas Tolimán	1	Enero	2023-12-01T00:00:00	2024-11-08T11:00:00	6	Velocidad del viento	6.4
100430	7	Sololá	713	San Lucas Tolimán	10	San Lucas Tolimán	1	Enero	2023-12-01T00:00:00	2024-11-08T11:00:00	7	Dirección del viento	6.44
100431	7	Sololá	713	San Lucas Tolimán	10	San Lucas Tolimán	1	Enero	2023-12-01T00:00:00	2024-11-08T11:00:00	1	Precipitación	0
100432	7	Sololá	713	San Lucas Tolimán	10	San Lucas Tolimán	1	Enero	2023-12-01T00:00:00	2024-11-08T11:00:00	8	Radiación solar	757
100433	7	Sololá	713	San Lucas Tolimán	10	San Lucas Tolimán	1	Enero	2023-12-01T00:00:00	2024-11-08T12:00:00	2	Temperatura media	22.1
100434	7	Sololá	713	San Lucas Tolimán	10	San Lucas Tolimán	1	Enero	2023-12-01T00:00:00	2024-11-08T12:00:00	4	Temperatura máxima	22.3
100435	7	Sololá	713	San Lucas Tolimán	10	San Lucas Tolimán	1	Enero	2023-12-01T00:00:00	2024-11-08T12:00:00	3	Temperatura mínima	21.2
100436	7	Sololá	713	San Lucas Tolimán	10	San Lucas Tolimán	1	Enero	2023-12-01T00:00:00	2024-11-08T12:00:00	5	Humedad	53
100437	7	Sololá	713	San Lucas Tolimán	10	San Lucas Tolimán	1	Enero	2023-12-01T00:00:00	2024-11-08T12:00:00	6	Velocidad del viento	11.3
100438	7	Sololá	713	San Lucas Tolimán	10	San Lucas Tolimán	1	Enero	2023-12-01T00:00:00	2024-11-08T12:00:00	7	Dirección del viento	11.27
100439	7	Sololá	713	San Lucas Tolimán	10	San Lucas Tolimán	1	Enero	2023-12-01T00:00:00	2024-11-08T12:00:00	1	Precipitación	0
100440	7	Sololá	713	San Lucas Tolimán	10	San Lucas Tolimán	1	Enero	2023-12-01T00:00:00	2024-11-08T12:00:00	8	Radiación solar	854
100441	7	Sololá	713	San Lucas Tolimán	10	San Lucas Tolimán	1	Enero	2023-12-01T00:00:00	2024-11-08T13:00:00	2	Temperatura media	21.1
100442	7	Sololá	713	San Lucas Tolimán	10	San Lucas Tolimán	1	Enero	2023-12-01T00:00:00	2024-11-08T13:00:00	4	Temperatura máxima	22.1
100443	7	Sololá	713	San Lucas Tolimán	10	San Lucas Tolimán	1	Enero	2023-12-01T00:00:00	2024-11-08T13:00:00	3	Temperatura mínima	20.6
100444	7	Sololá	713	San Lucas Tolimán	10	San Lucas Tolimán	1	Enero	2023-12-01T00:00:00	2024-11-08T13:00:00	5	Humedad	58
100445	7	Sololá	713	San Lucas Tolimán	10	San Lucas Tolimán	1	Enero	2023-12-01T00:00:00	2024-11-08T13:00:00	6	Velocidad del viento	14.5
100446	7	Sololá	713	San Lucas Tolimán	10	San Lucas Tolimán	1	Enero	2023-12-01T00:00:00	2024-11-08T13:00:00	7	Dirección del viento	14.48
100447	7	Sololá	713	San Lucas Tolimán	10	San Lucas Tolimán	1	Enero	2023-12-01T00:00:00	2024-11-08T13:00:00	1	Precipitación	0
100448	7	Sololá	713	San Lucas Tolimán	10	San Lucas Tolimán	1	Enero	2023-12-01T00:00:00	2024-11-08T13:00:00	8	Radiación solar	897
100449	7	Sololá	713	San Lucas Tolimán	10	San Lucas Tolimán	1	Enero	2023-12-01T00:00:00	2024-11-08T14:00:00	2	Temperatura media	20.8
100450	7	Sololá	713	San Lucas Tolimán	10	San Lucas Tolimán	1	Enero	2023-12-01T00:00:00	2024-11-08T14:00:00	4	Temperatura máxima	21.9
100451	7	Sololá	713	San Lucas Tolimán	10	San Lucas Tolimán	1	Enero	2023-12-01T00:00:00	2024-11-08T14:00:00	3	Temperatura mínima	20.7
100452	7	Sololá	713	San Lucas Tolimán	10	San Lucas Tolimán	1	Enero	2023-12-01T00:00:00	2024-11-08T14:00:00	5	Humedad	59
100453	7	Sololá	713	San Lucas Tolimán	10	San Lucas Tolimán	1	Enero	2023-12-01T00:00:00	2024-11-08T14:00:00	6	Velocidad del viento	11.3
100454	7	Sololá	713	San Lucas Tolimán	10	San Lucas Tolimán	1	Enero	2023-12-01T00:00:00	2024-11-08T14:00:00	7	Dirección del viento	11.27
100455	7	Sololá	713	San Lucas Tolimán	10	San Lucas Tolimán	1	Enero	2023-12-01T00:00:00	2024-11-08T14:00:00	1	Precipitación	0
100456	7	Sololá	713	San Lucas Tolimán	10	San Lucas Tolimán	1	Enero	2023-12-01T00:00:00	2024-11-08T14:00:00	8	Radiación solar	762
100457	7	Sololá	713	San Lucas Tolimán	10	San Lucas Tolimán	1	Enero	2023-12-01T00:00:00	2024-11-08T15:00:00	2	Temperatura media	19.7
100458	7	Sololá	713	San Lucas Tolimán	10	San Lucas Tolimán	1	Enero	2023-12-01T00:00:00	2024-11-08T15:00:00	4	Temperatura máxima	21.1
100459	7	Sololá	713	San Lucas Tolimán	10	San Lucas Tolimán	1	Enero	2023-12-01T00:00:00	2024-11-08T15:00:00	3	Temperatura mínima	19.6
100460	7	Sololá	713	San Lucas Tolimán	10	San Lucas Tolimán	1	Enero	2023-12-01T00:00:00	2024-11-08T15:00:00	5	Humedad	62
100461	7	Sololá	713	San Lucas Tolimán	10	San Lucas Tolimán	1	Enero	2023-12-01T00:00:00	2024-11-08T15:00:00	6	Velocidad del viento	9.7
100462	7	Sololá	713	San Lucas Tolimán	10	San Lucas Tolimán	1	Enero	2023-12-01T00:00:00	2024-11-08T15:00:00	7	Dirección del viento	9.66
100463	7	Sololá	713	San Lucas Tolimán	10	San Lucas Tolimán	1	Enero	2023-12-01T00:00:00	2024-11-08T15:00:00	1	Precipitación	0
100464	7	Sololá	713	San Lucas Tolimán	10	San Lucas Tolimán	1	Enero	2023-12-01T00:00:00	2024-11-08T15:00:00	8	Radiación solar	305
100465	7	Sololá	713	San Lucas Tolimán	10	San Lucas Tolimán	1	Enero	2023-12-01T00:00:00	2024-11-08T16:00:00	2	Temperatura media	19.4
100466	7	Sololá	713	San Lucas Tolimán	10	San Lucas Tolimán	1	Enero	2023-12-01T00:00:00	2024-11-08T16:00:00	4	Temperatura máxima	20.4
100467	7	Sololá	713	San Lucas Tolimán	10	San Lucas Tolimán	1	Enero	2023-12-01T00:00:00	2024-11-08T16:00:00	3	Temperatura mínima	19.3
100468	7	Sololá	713	San Lucas Tolimán	10	San Lucas Tolimán	1	Enero	2023-12-01T00:00:00	2024-11-08T16:00:00	5	Humedad	62
100469	7	Sololá	713	San Lucas Tolimán	10	San Lucas Tolimán	1	Enero	2023-12-01T00:00:00	2024-11-08T16:00:00	6	Velocidad del viento	11.3
100470	7	Sololá	713	San Lucas Tolimán	10	San Lucas Tolimán	1	Enero	2023-12-01T00:00:00	2024-11-08T16:00:00	7	Dirección del viento	11.27
100471	7	Sololá	713	San Lucas Tolimán	10	San Lucas Tolimán	1	Enero	2023-12-01T00:00:00	2024-11-08T16:00:00	1	Precipitación	0
100472	7	Sololá	713	San Lucas Tolimán	10	San Lucas Tolimán	1	Enero	2023-12-01T00:00:00	2024-11-08T16:00:00	8	Radiación solar	329
100473	7	Sololá	713	San Lucas Tolimán	10	San Lucas Tolimán	1	Enero	2023-12-01T00:00:00	2024-11-08T17:00:00	2	Temperatura media	18.8
100474	7	Sololá	713	San Lucas Tolimán	10	San Lucas Tolimán	1	Enero	2023-12-01T00:00:00	2024-11-08T17:00:00	4	Temperatura máxima	19.4
100475	7	Sololá	713	San Lucas Tolimán	10	San Lucas Tolimán	1	Enero	2023-12-01T00:00:00	2024-11-08T17:00:00	3	Temperatura mínima	18.7
100476	7	Sololá	713	San Lucas Tolimán	10	San Lucas Tolimán	1	Enero	2023-12-01T00:00:00	2024-11-08T17:00:00	5	Humedad	63
100477	7	Sololá	713	San Lucas Tolimán	10	San Lucas Tolimán	1	Enero	2023-12-01T00:00:00	2024-11-08T17:00:00	6	Velocidad del viento	9.7
100478	7	Sololá	713	San Lucas Tolimán	10	San Lucas Tolimán	1	Enero	2023-12-01T00:00:00	2024-11-08T17:00:00	7	Dirección del viento	9.66
100479	7	Sololá	713	San Lucas Tolimán	10	San Lucas Tolimán	1	Enero	2023-12-01T00:00:00	2024-11-08T17:00:00	1	Precipitación	0
100480	7	Sololá	713	San Lucas Tolimán	10	San Lucas Tolimán	1	Enero	2023-12-01T00:00:00	2024-11-08T17:00:00	8	Radiación solar	135
100481	7	Sololá	713	San Lucas Tolimán	10	San Lucas Tolimán	1	Enero	2023-12-01T00:00:00	2024-11-08T18:00:00	2	Temperatura media	18.2
100482	7	Sololá	713	San Lucas Tolimán	10	San Lucas Tolimán	1	Enero	2023-12-01T00:00:00	2024-11-08T18:00:00	4	Temperatura máxima	18.8
100483	7	Sololá	713	San Lucas Tolimán	10	San Lucas Tolimán	1	Enero	2023-12-01T00:00:00	2024-11-08T18:00:00	3	Temperatura mínima	18.1
100484	7	Sololá	713	San Lucas Tolimán	10	San Lucas Tolimán	1	Enero	2023-12-01T00:00:00	2024-11-08T18:00:00	5	Humedad	62
100485	7	Sololá	713	San Lucas Tolimán	10	San Lucas Tolimán	1	Enero	2023-12-01T00:00:00	2024-11-08T18:00:00	6	Velocidad del viento	6.4
100486	7	Sololá	713	San Lucas Tolimán	10	San Lucas Tolimán	1	Enero	2023-12-01T00:00:00	2024-11-08T18:00:00	7	Dirección del viento	6.44
100487	7	Sololá	713	San Lucas Tolimán	10	San Lucas Tolimán	1	Enero	2023-12-01T00:00:00	2024-11-08T18:00:00	1	Precipitación	0
100488	7	Sololá	713	San Lucas Tolimán	10	San Lucas Tolimán	1	Enero	2023-12-01T00:00:00	2024-11-08T18:00:00	8	Radiación solar	26
100489	7	Sololá	713	San Lucas Tolimán	10	San Lucas Tolimán	1	Enero	2023-12-01T00:00:00	2024-11-08T19:00:00	2	Temperatura media	17.8
100490	7	Sololá	713	San Lucas Tolimán	10	San Lucas Tolimán	1	Enero	2023-12-01T00:00:00	2024-11-08T19:00:00	4	Temperatura máxima	18.2
100491	7	Sololá	713	San Lucas Tolimán	10	San Lucas Tolimán	1	Enero	2023-12-01T00:00:00	2024-11-08T19:00:00	3	Temperatura mínima	17.7
100492	7	Sololá	713	San Lucas Tolimán	10	San Lucas Tolimán	1	Enero	2023-12-01T00:00:00	2024-11-08T19:00:00	5	Humedad	62
100493	7	Sololá	713	San Lucas Tolimán	10	San Lucas Tolimán	1	Enero	2023-12-01T00:00:00	2024-11-08T19:00:00	6	Velocidad del viento	4.8
100494	7	Sololá	713	San Lucas Tolimán	10	San Lucas Tolimán	1	Enero	2023-12-01T00:00:00	2024-11-08T19:00:00	7	Dirección del viento	4.83
100495	7	Sololá	713	San Lucas Tolimán	10	San Lucas Tolimán	1	Enero	2023-12-01T00:00:00	2024-11-08T19:00:00	1	Precipitación	0
100496	7	Sololá	713	San Lucas Tolimán	10	San Lucas Tolimán	1	Enero	2023-12-01T00:00:00	2024-11-08T19:00:00	8	Radiación solar	0
100497	7	Sololá	713	San Lucas Tolimán	10	San Lucas Tolimán	1	Enero	2023-12-01T00:00:00	2024-11-08T20:00:00	2	Temperatura media	16.8
100498	7	Sololá	713	San Lucas Tolimán	10	San Lucas Tolimán	1	Enero	2023-12-01T00:00:00	2024-11-08T20:00:00	4	Temperatura máxima	17.8
100499	7	Sololá	713	San Lucas Tolimán	10	San Lucas Tolimán	1	Enero	2023-12-01T00:00:00	2024-11-08T20:00:00	3	Temperatura mínima	16.7
100500	7	Sololá	713	San Lucas Tolimán	10	San Lucas Tolimán	1	Enero	2023-12-01T00:00:00	2024-11-08T20:00:00	5	Humedad	63
100501	7	Sololá	713	San Lucas Tolimán	10	San Lucas Tolimán	1	Enero	2023-12-01T00:00:00	2024-11-08T20:00:00	6	Velocidad del viento	3.2
100502	7	Sololá	713	San Lucas Tolimán	10	San Lucas Tolimán	1	Enero	2023-12-01T00:00:00	2024-11-08T20:00:00	7	Dirección del viento	3.22
100503	7	Sololá	713	San Lucas Tolimán	10	San Lucas Tolimán	1	Enero	2023-12-01T00:00:00	2024-11-08T20:00:00	1	Precipitación	0
100504	7	Sololá	713	San Lucas Tolimán	10	San Lucas Tolimán	1	Enero	2023-12-01T00:00:00	2024-11-08T20:00:00	8	Radiación solar	0
100505	7	Sololá	713	San Lucas Tolimán	10	San Lucas Tolimán	1	Enero	2023-12-01T00:00:00	2024-11-08T21:00:00	2	Temperatura media	16.3
100506	7	Sololá	713	San Lucas Tolimán	10	San Lucas Tolimán	1	Enero	2023-12-01T00:00:00	2024-11-08T21:00:00	4	Temperatura máxima	16.8
100507	7	Sololá	713	San Lucas Tolimán	10	San Lucas Tolimán	1	Enero	2023-12-01T00:00:00	2024-11-08T21:00:00	3	Temperatura mínima	16.2
100508	7	Sololá	713	San Lucas Tolimán	10	San Lucas Tolimán	1	Enero	2023-12-01T00:00:00	2024-11-08T21:00:00	5	Humedad	62
100509	7	Sololá	713	San Lucas Tolimán	10	San Lucas Tolimán	1	Enero	2023-12-01T00:00:00	2024-11-08T21:00:00	6	Velocidad del viento	3.2
100510	7	Sololá	713	San Lucas Tolimán	10	San Lucas Tolimán	1	Enero	2023-12-01T00:00:00	2024-11-08T21:00:00	7	Dirección del viento	3.22
100511	7	Sololá	713	San Lucas Tolimán	10	San Lucas Tolimán	1	Enero	2023-12-01T00:00:00	2024-11-08T21:00:00	1	Precipitación	0
100512	7	Sololá	713	San Lucas Tolimán	10	San Lucas Tolimán	1	Enero	2023-12-01T00:00:00	2024-11-08T21:00:00	8	Radiación solar	0
100513	7	Sololá	713	San Lucas Tolimán	10	San Lucas Tolimán	1	Enero	2023-12-01T00:00:00	2024-11-08T22:00:00	2	Temperatura media	16.6
100514	7	Sololá	713	San Lucas Tolimán	10	San Lucas Tolimán	1	Enero	2023-12-01T00:00:00	2024-11-08T22:00:00	4	Temperatura máxima	16.7
100515	7	Sololá	713	San Lucas Tolimán	10	San Lucas Tolimán	1	Enero	2023-12-01T00:00:00	2024-11-08T22:00:00	3	Temperatura mínima	16.3
100516	7	Sololá	713	San Lucas Tolimán	10	San Lucas Tolimán	1	Enero	2023-12-01T00:00:00	2024-11-08T22:00:00	5	Humedad	60
100517	7	Sololá	713	San Lucas Tolimán	10	San Lucas Tolimán	1	Enero	2023-12-01T00:00:00	2024-11-08T22:00:00	6	Velocidad del viento	1.6
100518	7	Sololá	713	San Lucas Tolimán	10	San Lucas Tolimán	1	Enero	2023-12-01T00:00:00	2024-11-08T22:00:00	7	Dirección del viento	1.61
100519	7	Sololá	713	San Lucas Tolimán	10	San Lucas Tolimán	1	Enero	2023-12-01T00:00:00	2024-11-08T22:00:00	1	Precipitación	0
100520	7	Sololá	713	San Lucas Tolimán	10	San Lucas Tolimán	1	Enero	2023-12-01T00:00:00	2024-11-08T22:00:00	8	Radiación solar	0
100521	7	Sololá	713	San Lucas Tolimán	10	San Lucas Tolimán	1	Enero	2023-12-01T00:00:00	2024-11-08T23:00:00	2	Temperatura media	16.1
100522	7	Sololá	713	San Lucas Tolimán	10	San Lucas Tolimán	1	Enero	2023-12-01T00:00:00	2024-11-08T23:00:00	4	Temperatura máxima	16.7
100523	7	Sololá	713	San Lucas Tolimán	10	San Lucas Tolimán	1	Enero	2023-12-01T00:00:00	2024-11-08T23:00:00	3	Temperatura mínima	16.1
100524	7	Sololá	713	San Lucas Tolimán	10	San Lucas Tolimán	1	Enero	2023-12-01T00:00:00	2024-11-08T23:00:00	5	Humedad	59
100525	7	Sololá	713	San Lucas Tolimán	10	San Lucas Tolimán	1	Enero	2023-12-01T00:00:00	2024-11-08T23:00:00	6	Velocidad del viento	1.6
100526	7	Sololá	713	San Lucas Tolimán	10	San Lucas Tolimán	1	Enero	2023-12-01T00:00:00	2024-11-08T23:00:00	7	Dirección del viento	1.61
100527	7	Sololá	713	San Lucas Tolimán	10	San Lucas Tolimán	1	Enero	2023-12-01T00:00:00	2024-11-08T23:00:00	1	Precipitación	0
100528	7	Sololá	713	San Lucas Tolimán	10	San Lucas Tolimán	1	Enero	2023-12-01T00:00:00	2024-11-08T23:00:00	8	Radiación solar	0
100529	7	Sololá	713	San Lucas Tolimán	10	San Lucas Tolimán	1	Enero	2023-01-13T00:00:00	2024-11-08T00:00:00	2	Temperatura media	15.7
100530	7	Sololá	713	San Lucas Tolimán	10	San Lucas Tolimán	1	Enero	2023-01-13T00:00:00	2024-11-08T00:00:00	4	Temperatura máxima	16.2
100531	7	Sololá	713	San Lucas Tolimán	10	San Lucas Tolimán	1	Enero	2023-01-13T00:00:00	2024-11-08T00:00:00	3	Temperatura mínima	15.7
100532	7	Sololá	713	San Lucas Tolimán	10	San Lucas Tolimán	1	Enero	2023-01-13T00:00:00	2024-11-08T00:00:00	5	Humedad	59
100533	7	Sololá	713	San Lucas Tolimán	10	San Lucas Tolimán	1	Enero	2023-01-13T00:00:00	2024-11-08T00:00:00	6	Velocidad del viento	1.6
100534	7	Sololá	713	San Lucas Tolimán	10	San Lucas Tolimán	1	Enero	2023-01-13T00:00:00	2024-11-08T00:00:00	7	Dirección del viento	1.61
100535	7	Sololá	713	San Lucas Tolimán	10	San Lucas Tolimán	1	Enero	2023-01-13T00:00:00	2024-11-08T00:00:00	1	Precipitación	0
100536	7	Sololá	713	San Lucas Tolimán	10	San Lucas Tolimán	1	Enero	2023-01-13T00:00:00	2024-11-08T00:00:00	8	Radiación solar	0
100537	7	Sololá	713	San Lucas Tolimán	10	San Lucas Tolimán	1	Enero	2023-01-13T00:00:00	2024-11-08T01:00:00	2	Temperatura media	16.1
100538	7	Sololá	713	San Lucas Tolimán	10	San Lucas Tolimán	1	Enero	2023-01-13T00:00:00	2024-11-08T01:00:00	4	Temperatura máxima	16.3
100539	7	Sololá	713	San Lucas Tolimán	10	San Lucas Tolimán	1	Enero	2023-01-13T00:00:00	2024-11-08T01:00:00	3	Temperatura mínima	15.6
100540	7	Sololá	713	San Lucas Tolimán	10	San Lucas Tolimán	1	Enero	2023-01-13T00:00:00	2024-11-08T01:00:00	5	Humedad	57
100541	7	Sololá	713	San Lucas Tolimán	10	San Lucas Tolimán	1	Enero	2023-01-13T00:00:00	2024-11-08T01:00:00	6	Velocidad del viento	1.6
100542	7	Sololá	713	San Lucas Tolimán	10	San Lucas Tolimán	1	Enero	2023-01-13T00:00:00	2024-11-08T01:00:00	7	Dirección del viento	1.61
100543	7	Sololá	713	San Lucas Tolimán	10	San Lucas Tolimán	1	Enero	2023-01-13T00:00:00	2024-11-08T01:00:00	1	Precipitación	0
100544	7	Sololá	713	San Lucas Tolimán	10	San Lucas Tolimán	1	Enero	2023-01-13T00:00:00	2024-11-08T01:00:00	8	Radiación solar	0
100545	7	Sololá	713	San Lucas Tolimán	10	San Lucas Tolimán	1	Enero	2023-01-13T00:00:00	2024-11-08T02:00:00	2	Temperatura media	16.4
100546	7	Sololá	713	San Lucas Tolimán	10	San Lucas Tolimán	1	Enero	2023-01-13T00:00:00	2024-11-08T02:00:00	4	Temperatura máxima	16.8
100547	7	Sololá	713	San Lucas Tolimán	10	San Lucas Tolimán	1	Enero	2023-01-13T00:00:00	2024-11-08T02:00:00	3	Temperatura mínima	16.1
100548	7	Sololá	713	San Lucas Tolimán	10	San Lucas Tolimán	1	Enero	2023-01-13T00:00:00	2024-11-08T02:00:00	5	Humedad	57
100549	7	Sololá	713	San Lucas Tolimán	10	San Lucas Tolimán	1	Enero	2023-01-13T00:00:00	2024-11-08T02:00:00	6	Velocidad del viento	3.2
100550	7	Sololá	713	San Lucas Tolimán	10	San Lucas Tolimán	1	Enero	2023-01-13T00:00:00	2024-11-08T02:00:00	7	Dirección del viento	3.22
100551	7	Sololá	713	San Lucas Tolimán	10	San Lucas Tolimán	1	Enero	2023-01-13T00:00:00	2024-11-08T02:00:00	1	Precipitación	0
100552	7	Sololá	713	San Lucas Tolimán	10	San Lucas Tolimán	1	Enero	2023-01-13T00:00:00	2024-11-08T02:00:00	8	Radiación solar	0
100553	7	Sololá	713	San Lucas Tolimán	10	San Lucas Tolimán	1	Enero	2023-01-13T00:00:00	2024-11-08T03:00:00	2	Temperatura media	16.4
100554	7	Sololá	713	San Lucas Tolimán	10	San Lucas Tolimán	1	Enero	2023-01-13T00:00:00	2024-11-08T03:00:00	4	Temperatura máxima	16.8
100555	7	Sololá	713	San Lucas Tolimán	10	San Lucas Tolimán	1	Enero	2023-01-13T00:00:00	2024-11-08T03:00:00	3	Temperatura mínima	16.1
100556	7	Sololá	713	San Lucas Tolimán	10	San Lucas Tolimán	1	Enero	2023-01-13T00:00:00	2024-11-08T03:00:00	5	Humedad	56
100557	7	Sololá	713	San Lucas Tolimán	10	San Lucas Tolimán	1	Enero	2023-01-13T00:00:00	2024-11-08T03:00:00	6	Velocidad del viento	3.2
100558	7	Sololá	713	San Lucas Tolimán	10	San Lucas Tolimán	1	Enero	2023-01-13T00:00:00	2024-11-08T03:00:00	7	Dirección del viento	3.22
100559	7	Sololá	713	San Lucas Tolimán	10	San Lucas Tolimán	1	Enero	2023-01-13T00:00:00	2024-11-08T03:00:00	1	Precipitación	0
100560	7	Sololá	713	San Lucas Tolimán	10	San Lucas Tolimán	1	Enero	2023-01-13T00:00:00	2024-11-08T03:00:00	8	Radiación solar	0
100561	7	Sololá	713	San Lucas Tolimán	10	San Lucas Tolimán	1	Enero	2023-01-13T00:00:00	2024-11-08T04:00:00	2	Temperatura media	15.6
100562	7	Sololá	713	San Lucas Tolimán	10	San Lucas Tolimán	1	Enero	2023-01-13T00:00:00	2024-11-08T04:00:00	4	Temperatura máxima	16.6
100563	7	Sololá	713	San Lucas Tolimán	10	San Lucas Tolimán	1	Enero	2023-01-13T00:00:00	2024-11-08T04:00:00	3	Temperatura mínima	15.6
100564	7	Sololá	713	San Lucas Tolimán	10	San Lucas Tolimán	1	Enero	2023-01-13T00:00:00	2024-11-08T04:00:00	5	Humedad	58
100565	7	Sololá	713	San Lucas Tolimán	10	San Lucas Tolimán	1	Enero	2023-01-13T00:00:00	2024-11-08T04:00:00	6	Velocidad del viento	3.2
100566	7	Sololá	713	San Lucas Tolimán	10	San Lucas Tolimán	1	Enero	2023-01-13T00:00:00	2024-11-08T04:00:00	7	Dirección del viento	3.22
100567	7	Sololá	713	San Lucas Tolimán	10	San Lucas Tolimán	1	Enero	2023-01-13T00:00:00	2024-11-08T04:00:00	1	Precipitación	0
100568	7	Sololá	713	San Lucas Tolimán	10	San Lucas Tolimán	1	Enero	2023-01-13T00:00:00	2024-11-08T04:00:00	8	Radiación solar	0
100569	7	Sololá	713	San Lucas Tolimán	10	San Lucas Tolimán	1	Enero	2023-01-13T00:00:00	2024-11-08T05:00:00	2	Temperatura media	15.7
100570	7	Sololá	713	San Lucas Tolimán	10	San Lucas Tolimán	1	Enero	2023-01-13T00:00:00	2024-11-08T05:00:00	4	Temperatura máxima	15.7
100571	7	Sololá	713	San Lucas Tolimán	10	San Lucas Tolimán	1	Enero	2023-01-13T00:00:00	2024-11-08T05:00:00	3	Temperatura mínima	15.2
100572	7	Sololá	713	San Lucas Tolimán	10	San Lucas Tolimán	1	Enero	2023-01-13T00:00:00	2024-11-08T05:00:00	5	Humedad	56
100573	7	Sololá	713	San Lucas Tolimán	10	San Lucas Tolimán	1	Enero	2023-01-13T00:00:00	2024-11-08T05:00:00	6	Velocidad del viento	1.6
100574	7	Sololá	713	San Lucas Tolimán	10	San Lucas Tolimán	1	Enero	2023-01-13T00:00:00	2024-11-08T05:00:00	7	Dirección del viento	1.61
100575	7	Sololá	713	San Lucas Tolimán	10	San Lucas Tolimán	1	Enero	2023-01-13T00:00:00	2024-11-08T05:00:00	1	Precipitación	0
100576	7	Sololá	713	San Lucas Tolimán	10	San Lucas Tolimán	1	Enero	2023-01-13T00:00:00	2024-11-08T05:00:00	8	Radiación solar	0
100577	7	Sololá	713	San Lucas Tolimán	10	San Lucas Tolimán	1	Enero	2023-01-13T00:00:00	2024-11-08T06:00:00	2	Temperatura media	15.7
100578	7	Sololá	713	San Lucas Tolimán	10	San Lucas Tolimán	1	Enero	2023-01-13T00:00:00	2024-11-08T06:00:00	4	Temperatura máxima	15.8
100579	7	Sololá	713	San Lucas Tolimán	10	San Lucas Tolimán	1	Enero	2023-01-13T00:00:00	2024-11-08T06:00:00	3	Temperatura mínima	15.3
100580	7	Sololá	713	San Lucas Tolimán	10	San Lucas Tolimán	1	Enero	2023-01-13T00:00:00	2024-11-08T06:00:00	5	Humedad	57
100581	7	Sololá	713	San Lucas Tolimán	10	San Lucas Tolimán	1	Enero	2023-01-13T00:00:00	2024-11-08T06:00:00	6	Velocidad del viento	4.8
100582	7	Sololá	713	San Lucas Tolimán	10	San Lucas Tolimán	1	Enero	2023-01-13T00:00:00	2024-11-08T06:00:00	7	Dirección del viento	4.83
100583	7	Sololá	713	San Lucas Tolimán	10	San Lucas Tolimán	1	Enero	2023-01-13T00:00:00	2024-11-08T06:00:00	1	Precipitación	0
100584	7	Sololá	713	San Lucas Tolimán	10	San Lucas Tolimán	1	Enero	2023-01-13T00:00:00	2024-11-08T06:00:00	8	Radiación solar	0
100585	7	Sololá	713	San Lucas Tolimán	10	San Lucas Tolimán	1	Enero	2023-01-13T00:00:00	2024-11-08T07:00:00	2	Temperatura media	15.9
100586	7	Sololá	713	San Lucas Tolimán	10	San Lucas Tolimán	1	Enero	2023-01-13T00:00:00	2024-11-08T07:00:00	4	Temperatura máxima	16.1
100587	7	Sololá	713	San Lucas Tolimán	10	San Lucas Tolimán	1	Enero	2023-01-13T00:00:00	2024-11-08T07:00:00	3	Temperatura mínima	15.7
100588	7	Sololá	713	San Lucas Tolimán	10	San Lucas Tolimán	1	Enero	2023-01-13T00:00:00	2024-11-08T07:00:00	5	Humedad	55
100589	7	Sololá	713	San Lucas Tolimán	10	San Lucas Tolimán	1	Enero	2023-01-13T00:00:00	2024-11-08T07:00:00	6	Velocidad del viento	4.8
100590	7	Sololá	713	San Lucas Tolimán	10	San Lucas Tolimán	1	Enero	2023-01-13T00:00:00	2024-11-08T07:00:00	7	Dirección del viento	4.83
100591	7	Sololá	713	San Lucas Tolimán	10	San Lucas Tolimán	1	Enero	2023-01-13T00:00:00	2024-11-08T07:00:00	1	Precipitación	0
100592	7	Sololá	713	San Lucas Tolimán	10	San Lucas Tolimán	1	Enero	2023-01-13T00:00:00	2024-11-08T07:00:00	8	Radiación solar	4
100593	7	Sololá	713	San Lucas Tolimán	10	San Lucas Tolimán	1	Enero	2023-01-13T00:00:00	2024-11-08T08:00:00	2	Temperatura media	17.8
100594	7	Sololá	713	San Lucas Tolimán	10	San Lucas Tolimán	1	Enero	2023-01-13T00:00:00	2024-11-08T08:00:00	4	Temperatura máxima	17.9
100595	7	Sololá	713	San Lucas Tolimán	10	San Lucas Tolimán	1	Enero	2023-01-13T00:00:00	2024-11-08T08:00:00	3	Temperatura mínima	15.9
100596	7	Sololá	713	San Lucas Tolimán	10	San Lucas Tolimán	1	Enero	2023-01-13T00:00:00	2024-11-08T08:00:00	5	Humedad	52
100597	7	Sololá	713	San Lucas Tolimán	10	San Lucas Tolimán	1	Enero	2023-01-13T00:00:00	2024-11-08T08:00:00	6	Velocidad del viento	8
100598	7	Sololá	713	San Lucas Tolimán	10	San Lucas Tolimán	1	Enero	2023-01-13T00:00:00	2024-11-08T08:00:00	7	Dirección del viento	8.05
100599	7	Sololá	713	San Lucas Tolimán	10	San Lucas Tolimán	1	Enero	2023-01-13T00:00:00	2024-11-08T08:00:00	1	Precipitación	0
100600	7	Sololá	713	San Lucas Tolimán	10	San Lucas Tolimán	1	Enero	2023-01-13T00:00:00	2024-11-08T08:00:00	8	Radiación solar	20
100601	7	Sololá	713	San Lucas Tolimán	10	San Lucas Tolimán	1	Enero	2023-01-13T00:00:00	2024-11-08T09:00:00	2	Temperatura media	20.1
100602	7	Sololá	713	San Lucas Tolimán	10	San Lucas Tolimán	1	Enero	2023-01-13T00:00:00	2024-11-08T09:00:00	4	Temperatura máxima	20.1
100603	7	Sololá	713	San Lucas Tolimán	10	San Lucas Tolimán	1	Enero	2023-01-13T00:00:00	2024-11-08T09:00:00	3	Temperatura mínima	17.8
100604	7	Sololá	713	San Lucas Tolimán	10	San Lucas Tolimán	1	Enero	2023-01-13T00:00:00	2024-11-08T09:00:00	5	Humedad	48
100605	7	Sololá	713	San Lucas Tolimán	10	San Lucas Tolimán	1	Enero	2023-01-13T00:00:00	2024-11-08T09:00:00	6	Velocidad del viento	9.7
100606	7	Sololá	713	San Lucas Tolimán	10	San Lucas Tolimán	1	Enero	2023-01-13T00:00:00	2024-11-08T09:00:00	7	Dirección del viento	9.66
100607	7	Sololá	713	San Lucas Tolimán	10	San Lucas Tolimán	1	Enero	2023-01-13T00:00:00	2024-11-08T09:00:00	1	Precipitación	0
100608	7	Sololá	713	San Lucas Tolimán	10	San Lucas Tolimán	1	Enero	2023-01-13T00:00:00	2024-11-08T09:00:00	8	Radiación solar	279
100609	7	Sololá	713	San Lucas Tolimán	10	San Lucas Tolimán	1	Enero	2023-01-13T00:00:00	2024-11-08T10:00:00	2	Temperatura media	20.7
100610	7	Sololá	713	San Lucas Tolimán	10	San Lucas Tolimán	1	Enero	2023-01-13T00:00:00	2024-11-08T10:00:00	4	Temperatura máxima	20.9
100611	7	Sololá	713	San Lucas Tolimán	10	San Lucas Tolimán	1	Enero	2023-01-13T00:00:00	2024-11-08T10:00:00	3	Temperatura mínima	20.1
100612	7	Sololá	713	San Lucas Tolimán	10	San Lucas Tolimán	1	Enero	2023-01-13T00:00:00	2024-11-08T10:00:00	5	Humedad	46
100613	7	Sololá	713	San Lucas Tolimán	10	San Lucas Tolimán	1	Enero	2023-01-13T00:00:00	2024-11-08T10:00:00	6	Velocidad del viento	14.5
100614	7	Sololá	713	San Lucas Tolimán	10	San Lucas Tolimán	1	Enero	2023-01-13T00:00:00	2024-11-08T10:00:00	7	Dirección del viento	14.48
100615	7	Sololá	713	San Lucas Tolimán	10	San Lucas Tolimán	1	Enero	2023-01-13T00:00:00	2024-11-08T10:00:00	1	Precipitación	0
100616	7	Sololá	713	San Lucas Tolimán	10	San Lucas Tolimán	1	Enero	2023-01-13T00:00:00	2024-11-08T10:00:00	8	Radiación solar	584
100617	7	Sololá	713	San Lucas Tolimán	10	San Lucas Tolimán	1	Enero	2023-01-13T00:00:00	2024-11-08T11:00:00	2	Temperatura media	20.7
100618	7	Sololá	713	San Lucas Tolimán	10	San Lucas Tolimán	1	Enero	2023-01-13T00:00:00	2024-11-08T11:00:00	4	Temperatura máxima	21.6
100619	7	Sololá	713	San Lucas Tolimán	10	San Lucas Tolimán	1	Enero	2023-01-13T00:00:00	2024-11-08T11:00:00	3	Temperatura mínima	20.2
100620	7	Sololá	713	San Lucas Tolimán	10	San Lucas Tolimán	1	Enero	2023-01-13T00:00:00	2024-11-08T11:00:00	5	Humedad	47
100621	7	Sololá	713	San Lucas Tolimán	10	San Lucas Tolimán	1	Enero	2023-01-13T00:00:00	2024-11-08T11:00:00	6	Velocidad del viento	16.1
100622	7	Sololá	713	San Lucas Tolimán	10	San Lucas Tolimán	1	Enero	2023-01-13T00:00:00	2024-11-08T11:00:00	7	Dirección del viento	16.09
100623	7	Sololá	713	San Lucas Tolimán	10	San Lucas Tolimán	1	Enero	2023-01-13T00:00:00	2024-11-08T11:00:00	1	Precipitación	0
100624	7	Sololá	713	San Lucas Tolimán	10	San Lucas Tolimán	1	Enero	2023-01-13T00:00:00	2024-11-08T11:00:00	8	Radiación solar	554
100625	7	Sololá	713	San Lucas Tolimán	10	San Lucas Tolimán	1	Enero	2023-01-13T00:00:00	2024-11-08T12:00:00	2	Temperatura media	21.8
100626	7	Sololá	713	San Lucas Tolimán	10	San Lucas Tolimán	1	Enero	2023-01-13T00:00:00	2024-11-08T12:00:00	4	Temperatura máxima	21.8
100627	7	Sololá	713	San Lucas Tolimán	10	San Lucas Tolimán	1	Enero	2023-01-13T00:00:00	2024-11-08T12:00:00	3	Temperatura mínima	20.6
100628	7	Sololá	713	San Lucas Tolimán	10	San Lucas Tolimán	1	Enero	2023-01-13T00:00:00	2024-11-08T12:00:00	5	Humedad	44
100629	7	Sololá	713	San Lucas Tolimán	10	San Lucas Tolimán	1	Enero	2023-01-13T00:00:00	2024-11-08T12:00:00	6	Velocidad del viento	19.3
100630	7	Sololá	713	San Lucas Tolimán	10	San Lucas Tolimán	1	Enero	2023-01-13T00:00:00	2024-11-08T12:00:00	7	Dirección del viento	19.31
100631	7	Sololá	713	San Lucas Tolimán	10	San Lucas Tolimán	1	Enero	2023-01-13T00:00:00	2024-11-08T12:00:00	1	Precipitación	0
100632	7	Sololá	713	San Lucas Tolimán	10	San Lucas Tolimán	1	Enero	2023-01-13T00:00:00	2024-11-08T12:00:00	8	Radiación solar	879
100633	7	Sololá	713	San Lucas Tolimán	10	San Lucas Tolimán	1	Enero	2023-01-13T00:00:00	2024-11-08T13:00:00	2	Temperatura media	22.5
100634	7	Sololá	713	San Lucas Tolimán	10	San Lucas Tolimán	1	Enero	2023-01-13T00:00:00	2024-11-08T13:00:00	4	Temperatura máxima	22.5
100635	7	Sololá	713	San Lucas Tolimán	10	San Lucas Tolimán	1	Enero	2023-01-13T00:00:00	2024-11-08T13:00:00	3	Temperatura mínima	21.2
100636	7	Sololá	713	San Lucas Tolimán	10	San Lucas Tolimán	1	Enero	2023-01-13T00:00:00	2024-11-08T13:00:00	5	Humedad	42
100637	7	Sololá	713	San Lucas Tolimán	10	San Lucas Tolimán	1	Enero	2023-01-13T00:00:00	2024-11-08T13:00:00	6	Velocidad del viento	14.5
100638	7	Sololá	713	San Lucas Tolimán	10	San Lucas Tolimán	1	Enero	2023-01-13T00:00:00	2024-11-08T13:00:00	7	Dirección del viento	14.48
100639	7	Sololá	713	San Lucas Tolimán	10	San Lucas Tolimán	1	Enero	2023-01-13T00:00:00	2024-11-08T13:00:00	1	Precipitación	0
100640	7	Sololá	713	San Lucas Tolimán	10	San Lucas Tolimán	1	Enero	2023-01-13T00:00:00	2024-11-08T13:00:00	8	Radiación solar	902
100641	7	Sololá	713	San Lucas Tolimán	10	San Lucas Tolimán	1	Enero	2023-01-13T00:00:00	2024-11-08T14:00:00	2	Temperatura media	22.7
100642	7	Sololá	713	San Lucas Tolimán	10	San Lucas Tolimán	1	Enero	2023-01-13T00:00:00	2024-11-08T14:00:00	4	Temperatura máxima	22.9
100643	7	Sololá	713	San Lucas Tolimán	10	San Lucas Tolimán	1	Enero	2023-01-13T00:00:00	2024-11-08T14:00:00	3	Temperatura mínima	22.2
100644	7	Sololá	713	San Lucas Tolimán	10	San Lucas Tolimán	1	Enero	2023-01-13T00:00:00	2024-11-08T14:00:00	5	Humedad	40
100645	7	Sololá	713	San Lucas Tolimán	10	San Lucas Tolimán	1	Enero	2023-01-13T00:00:00	2024-11-08T14:00:00	6	Velocidad del viento	16.1
100646	7	Sololá	713	San Lucas Tolimán	10	San Lucas Tolimán	1	Enero	2023-01-13T00:00:00	2024-11-08T14:00:00	7	Dirección del viento	16.09
100647	7	Sololá	713	San Lucas Tolimán	10	San Lucas Tolimán	1	Enero	2023-01-13T00:00:00	2024-11-08T14:00:00	1	Precipitación	0
100648	7	Sololá	713	San Lucas Tolimán	10	San Lucas Tolimán	1	Enero	2023-01-13T00:00:00	2024-11-08T14:00:00	8	Radiación solar	698
100649	7	Sololá	713	San Lucas Tolimán	10	San Lucas Tolimán	1	Enero	2023-01-13T00:00:00	2024-11-08T15:00:00	2	Temperatura media	22.7
100650	7	Sololá	713	San Lucas Tolimán	10	San Lucas Tolimán	1	Enero	2023-01-13T00:00:00	2024-11-08T15:00:00	4	Temperatura máxima	22.9
100651	7	Sololá	713	San Lucas Tolimán	10	San Lucas Tolimán	1	Enero	2023-01-13T00:00:00	2024-11-08T15:00:00	3	Temperatura mínima	21.4
100652	7	Sololá	713	San Lucas Tolimán	10	San Lucas Tolimán	1	Enero	2023-01-13T00:00:00	2024-11-08T15:00:00	5	Humedad	39
100653	7	Sololá	713	San Lucas Tolimán	10	San Lucas Tolimán	1	Enero	2023-01-13T00:00:00	2024-11-08T15:00:00	6	Velocidad del viento	14.5
100654	7	Sololá	713	San Lucas Tolimán	10	San Lucas Tolimán	1	Enero	2023-01-13T00:00:00	2024-11-08T15:00:00	7	Dirección del viento	14.48
100655	7	Sololá	713	San Lucas Tolimán	10	San Lucas Tolimán	1	Enero	2023-01-13T00:00:00	2024-11-08T15:00:00	1	Precipitación	0
100656	7	Sololá	713	San Lucas Tolimán	10	San Lucas Tolimán	1	Enero	2023-01-13T00:00:00	2024-11-08T15:00:00	8	Radiación solar	423
100657	7	Sololá	713	San Lucas Tolimán	10	San Lucas Tolimán	1	Enero	2023-01-13T00:00:00	2024-11-08T16:00:00	2	Temperatura media	22.7
100658	7	Sololá	713	San Lucas Tolimán	10	San Lucas Tolimán	1	Enero	2023-01-13T00:00:00	2024-11-08T16:00:00	4	Temperatura máxima	22.7
100659	7	Sololá	713	San Lucas Tolimán	10	San Lucas Tolimán	1	Enero	2023-01-13T00:00:00	2024-11-08T16:00:00	3	Temperatura mínima	21.8
100660	7	Sololá	713	San Lucas Tolimán	10	San Lucas Tolimán	1	Enero	2023-01-13T00:00:00	2024-11-08T16:00:00	5	Humedad	39
100661	7	Sololá	713	San Lucas Tolimán	10	San Lucas Tolimán	1	Enero	2023-01-13T00:00:00	2024-11-08T16:00:00	6	Velocidad del viento	16.1
100662	7	Sololá	713	San Lucas Tolimán	10	San Lucas Tolimán	1	Enero	2023-01-13T00:00:00	2024-11-08T16:00:00	7	Dirección del viento	16.09
100663	7	Sololá	713	San Lucas Tolimán	10	San Lucas Tolimán	1	Enero	2023-01-13T00:00:00	2024-11-08T16:00:00	1	Precipitación	0
100664	7	Sololá	713	San Lucas Tolimán	10	San Lucas Tolimán	1	Enero	2023-01-13T00:00:00	2024-11-08T16:00:00	8	Radiación solar	492
100665	7	Sololá	713	San Lucas Tolimán	10	San Lucas Tolimán	1	Enero	2023-01-13T00:00:00	2024-11-08T17:00:00	2	Temperatura media	20.5
100666	7	Sololá	713	San Lucas Tolimán	10	San Lucas Tolimán	1	Enero	2023-01-13T00:00:00	2024-11-08T17:00:00	4	Temperatura máxima	22.8
100667	7	Sololá	713	San Lucas Tolimán	10	San Lucas Tolimán	1	Enero	2023-01-13T00:00:00	2024-11-08T17:00:00	3	Temperatura mínima	20.5
100668	7	Sololá	713	San Lucas Tolimán	10	San Lucas Tolimán	1	Enero	2023-01-13T00:00:00	2024-11-08T17:00:00	5	Humedad	47
100669	7	Sololá	713	San Lucas Tolimán	10	San Lucas Tolimán	1	Enero	2023-01-13T00:00:00	2024-11-08T17:00:00	6	Velocidad del viento	12.9
100670	7	Sololá	713	San Lucas Tolimán	10	San Lucas Tolimán	1	Enero	2023-01-13T00:00:00	2024-11-08T17:00:00	7	Dirección del viento	12.87
100671	7	Sololá	713	San Lucas Tolimán	10	San Lucas Tolimán	1	Enero	2023-01-13T00:00:00	2024-11-08T17:00:00	1	Precipitación	0
100672	7	Sololá	713	San Lucas Tolimán	10	San Lucas Tolimán	1	Enero	2023-01-13T00:00:00	2024-11-08T17:00:00	8	Radiación solar	125
100673	7	Sololá	713	San Lucas Tolimán	10	San Lucas Tolimán	1	Enero	2023-01-13T00:00:00	2024-11-08T18:00:00	2	Temperatura media	18.8
100674	7	Sololá	713	San Lucas Tolimán	10	San Lucas Tolimán	1	Enero	2023-01-13T00:00:00	2024-11-08T18:00:00	4	Temperatura máxima	20.5
100675	7	Sololá	713	San Lucas Tolimán	10	San Lucas Tolimán	1	Enero	2023-01-13T00:00:00	2024-11-08T18:00:00	3	Temperatura mínima	18.8
100676	7	Sololá	713	San Lucas Tolimán	10	San Lucas Tolimán	1	Enero	2023-01-13T00:00:00	2024-11-08T18:00:00	5	Humedad	50
100677	7	Sololá	713	San Lucas Tolimán	10	San Lucas Tolimán	1	Enero	2023-01-13T00:00:00	2024-11-08T18:00:00	6	Velocidad del viento	12.9
100678	7	Sololá	713	San Lucas Tolimán	10	San Lucas Tolimán	1	Enero	2023-01-13T00:00:00	2024-11-08T18:00:00	7	Dirección del viento	12.87
100679	7	Sololá	713	San Lucas Tolimán	10	San Lucas Tolimán	1	Enero	2023-01-13T00:00:00	2024-11-08T18:00:00	1	Precipitación	0
100680	7	Sololá	713	San Lucas Tolimán	10	San Lucas Tolimán	1	Enero	2023-01-13T00:00:00	2024-11-08T18:00:00	8	Radiación solar	14
100681	7	Sololá	713	San Lucas Tolimán	10	San Lucas Tolimán	1	Enero	2023-01-13T00:00:00	2024-11-08T19:00:00	2	Temperatura media	18.3
100682	7	Sololá	713	San Lucas Tolimán	10	San Lucas Tolimán	1	Enero	2023-01-13T00:00:00	2024-11-08T19:00:00	4	Temperatura máxima	18.8
100683	7	Sololá	713	San Lucas Tolimán	10	San Lucas Tolimán	1	Enero	2023-01-13T00:00:00	2024-11-08T19:00:00	3	Temperatura mínima	18.3
100684	7	Sololá	713	San Lucas Tolimán	10	San Lucas Tolimán	1	Enero	2023-01-13T00:00:00	2024-11-08T19:00:00	5	Humedad	51
100685	7	Sololá	713	San Lucas Tolimán	10	San Lucas Tolimán	1	Enero	2023-01-13T00:00:00	2024-11-08T19:00:00	6	Velocidad del viento	9.7
100686	7	Sololá	713	San Lucas Tolimán	10	San Lucas Tolimán	1	Enero	2023-01-13T00:00:00	2024-11-08T19:00:00	7	Dirección del viento	9.66
100687	7	Sololá	713	San Lucas Tolimán	10	San Lucas Tolimán	1	Enero	2023-01-13T00:00:00	2024-11-08T19:00:00	1	Precipitación	0
100688	7	Sololá	713	San Lucas Tolimán	10	San Lucas Tolimán	1	Enero	2023-01-13T00:00:00	2024-11-08T19:00:00	8	Radiación solar	0
100689	7	Sololá	713	San Lucas Tolimán	10	San Lucas Tolimán	1	Enero	2023-01-13T00:00:00	2024-11-08T20:00:00	2	Temperatura media	18.3
100690	7	Sololá	713	San Lucas Tolimán	10	San Lucas Tolimán	1	Enero	2023-01-13T00:00:00	2024-11-08T20:00:00	4	Temperatura máxima	18.3
100691	7	Sololá	713	San Lucas Tolimán	10	San Lucas Tolimán	1	Enero	2023-01-13T00:00:00	2024-11-08T20:00:00	3	Temperatura mínima	18.1
100692	7	Sololá	713	San Lucas Tolimán	10	San Lucas Tolimán	1	Enero	2023-01-13T00:00:00	2024-11-08T20:00:00	5	Humedad	51
100693	7	Sololá	713	San Lucas Tolimán	10	San Lucas Tolimán	1	Enero	2023-01-13T00:00:00	2024-11-08T20:00:00	6	Velocidad del viento	12.9
100694	7	Sololá	713	San Lucas Tolimán	10	San Lucas Tolimán	1	Enero	2023-01-13T00:00:00	2024-11-08T20:00:00	7	Dirección del viento	12.87
100695	7	Sololá	713	San Lucas Tolimán	10	San Lucas Tolimán	1	Enero	2023-01-13T00:00:00	2024-11-08T20:00:00	1	Precipitación	0
100696	7	Sololá	713	San Lucas Tolimán	10	San Lucas Tolimán	1	Enero	2023-01-13T00:00:00	2024-11-08T20:00:00	8	Radiación solar	0
100697	7	Sololá	713	San Lucas Tolimán	10	San Lucas Tolimán	1	Enero	2023-01-13T00:00:00	2024-11-08T21:00:00	2	Temperatura media	17.5
100698	7	Sololá	713	San Lucas Tolimán	10	San Lucas Tolimán	1	Enero	2023-01-13T00:00:00	2024-11-08T21:00:00	4	Temperatura máxima	18.3
100699	7	Sololá	713	San Lucas Tolimán	10	San Lucas Tolimán	1	Enero	2023-01-13T00:00:00	2024-11-08T21:00:00	3	Temperatura mínima	17.4
100700	7	Sololá	713	San Lucas Tolimán	10	San Lucas Tolimán	1	Enero	2023-01-13T00:00:00	2024-11-08T21:00:00	5	Humedad	51
100701	7	Sololá	713	San Lucas Tolimán	10	San Lucas Tolimán	1	Enero	2023-01-13T00:00:00	2024-11-08T21:00:00	6	Velocidad del viento	20.9
100702	7	Sololá	713	San Lucas Tolimán	10	San Lucas Tolimán	1	Enero	2023-01-13T00:00:00	2024-11-08T21:00:00	7	Dirección del viento	20.92
100703	7	Sololá	713	San Lucas Tolimán	10	San Lucas Tolimán	1	Enero	2023-01-13T00:00:00	2024-11-08T21:00:00	1	Precipitación	0
100704	7	Sololá	713	San Lucas Tolimán	10	San Lucas Tolimán	1	Enero	2023-01-13T00:00:00	2024-11-08T21:00:00	8	Radiación solar	0
100705	7	Sololá	713	San Lucas Tolimán	10	San Lucas Tolimán	1	Enero	2023-01-13T00:00:00	2024-11-08T22:00:00	2	Temperatura media	17.2
100706	7	Sololá	713	San Lucas Tolimán	10	San Lucas Tolimán	1	Enero	2023-01-13T00:00:00	2024-11-08T22:00:00	4	Temperatura máxima	17.5
100707	7	Sololá	713	San Lucas Tolimán	10	San Lucas Tolimán	1	Enero	2023-01-13T00:00:00	2024-11-08T22:00:00	3	Temperatura mínima	17.1
100708	7	Sololá	713	San Lucas Tolimán	10	San Lucas Tolimán	1	Enero	2023-01-13T00:00:00	2024-11-08T22:00:00	5	Humedad	50
100709	7	Sololá	713	San Lucas Tolimán	10	San Lucas Tolimán	1	Enero	2023-01-13T00:00:00	2024-11-08T22:00:00	6	Velocidad del viento	17.7
100710	7	Sololá	713	San Lucas Tolimán	10	San Lucas Tolimán	1	Enero	2023-01-13T00:00:00	2024-11-08T22:00:00	7	Dirección del viento	17.7
100711	7	Sololá	713	San Lucas Tolimán	10	San Lucas Tolimán	1	Enero	2023-01-13T00:00:00	2024-11-08T22:00:00	1	Precipitación	0
100712	7	Sololá	713	San Lucas Tolimán	10	San Lucas Tolimán	1	Enero	2023-01-13T00:00:00	2024-11-08T22:00:00	8	Radiación solar	0
100713	7	Sololá	713	San Lucas Tolimán	10	San Lucas Tolimán	1	Enero	2023-01-13T00:00:00	2024-11-08T23:00:00	2	Temperatura media	17.3
100714	7	Sololá	713	San Lucas Tolimán	10	San Lucas Tolimán	1	Enero	2023-01-13T00:00:00	2024-11-08T23:00:00	4	Temperatura máxima	17.3
100715	7	Sololá	713	San Lucas Tolimán	10	San Lucas Tolimán	1	Enero	2023-01-13T00:00:00	2024-11-08T23:00:00	3	Temperatura mínima	16.8
100716	7	Sololá	713	San Lucas Tolimán	10	San Lucas Tolimán	1	Enero	2023-01-13T00:00:00	2024-11-08T23:00:00	5	Humedad	50
100717	7	Sololá	713	San Lucas Tolimán	10	San Lucas Tolimán	1	Enero	2023-01-13T00:00:00	2024-11-08T23:00:00	6	Velocidad del viento	12.9
100718	7	Sololá	713	San Lucas Tolimán	10	San Lucas Tolimán	1	Enero	2023-01-13T00:00:00	2024-11-08T23:00:00	7	Dirección del viento	12.87
100719	7	Sololá	713	San Lucas Tolimán	10	San Lucas Tolimán	1	Enero	2023-01-13T00:00:00	2024-11-08T23:00:00	1	Precipitación	0
100720	7	Sololá	713	San Lucas Tolimán	10	San Lucas Tolimán	1	Enero	2023-01-13T00:00:00	2024-11-08T23:00:00	8	Radiación solar	0
100721	7	Sololá	713	San Lucas Tolimán	10	San Lucas Tolimán	1	Enero	2023-01-14T00:00:00	2024-11-08T00:00:00	2	Temperatura media	17.1
100722	7	Sololá	713	San Lucas Tolimán	10	San Lucas Tolimán	1	Enero	2023-01-14T00:00:00	2024-11-08T00:00:00	4	Temperatura máxima	17.3
100723	7	Sololá	713	San Lucas Tolimán	10	San Lucas Tolimán	1	Enero	2023-01-14T00:00:00	2024-11-08T00:00:00	3	Temperatura mínima	16.8
100724	7	Sololá	713	San Lucas Tolimán	10	San Lucas Tolimán	1	Enero	2023-01-14T00:00:00	2024-11-08T00:00:00	5	Humedad	50
100725	7	Sololá	713	San Lucas Tolimán	10	San Lucas Tolimán	1	Enero	2023-01-14T00:00:00	2024-11-08T00:00:00	6	Velocidad del viento	11.3
100726	7	Sololá	713	San Lucas Tolimán	10	San Lucas Tolimán	1	Enero	2023-01-14T00:00:00	2024-11-08T00:00:00	7	Dirección del viento	11.27
100727	7	Sololá	713	San Lucas Tolimán	10	San Lucas Tolimán	1	Enero	2023-01-14T00:00:00	2024-11-08T00:00:00	1	Precipitación	0
100728	7	Sololá	713	San Lucas Tolimán	10	San Lucas Tolimán	1	Enero	2023-01-14T00:00:00	2024-11-08T00:00:00	8	Radiación solar	0
100729	7	Sololá	713	San Lucas Tolimán	10	San Lucas Tolimán	1	Enero	2023-01-14T00:00:00	2024-11-08T01:00:00	2	Temperatura media	16.8
100730	7	Sololá	713	San Lucas Tolimán	10	San Lucas Tolimán	1	Enero	2023-01-14T00:00:00	2024-11-08T01:00:00	4	Temperatura máxima	17.1
100731	7	Sololá	713	San Lucas Tolimán	10	San Lucas Tolimán	1	Enero	2023-01-14T00:00:00	2024-11-08T01:00:00	3	Temperatura mínima	16.8
100732	7	Sololá	713	San Lucas Tolimán	10	San Lucas Tolimán	1	Enero	2023-01-14T00:00:00	2024-11-08T01:00:00	5	Humedad	50
100733	7	Sololá	713	San Lucas Tolimán	10	San Lucas Tolimán	1	Enero	2023-01-14T00:00:00	2024-11-08T01:00:00	6	Velocidad del viento	11.3
100734	7	Sololá	713	San Lucas Tolimán	10	San Lucas Tolimán	1	Enero	2023-01-14T00:00:00	2024-11-08T01:00:00	7	Dirección del viento	11.27
100735	7	Sololá	713	San Lucas Tolimán	10	San Lucas Tolimán	1	Enero	2023-01-14T00:00:00	2024-11-08T01:00:00	1	Precipitación	0
100736	7	Sololá	713	San Lucas Tolimán	10	San Lucas Tolimán	1	Enero	2023-01-14T00:00:00	2024-11-08T01:00:00	8	Radiación solar	0
100737	7	Sololá	713	San Lucas Tolimán	10	San Lucas Tolimán	1	Enero	2023-01-14T00:00:00	2024-11-08T02:00:00	2	Temperatura media	16.8
100738	7	Sololá	713	San Lucas Tolimán	10	San Lucas Tolimán	1	Enero	2023-01-14T00:00:00	2024-11-08T02:00:00	4	Temperatura máxima	17.3
100739	7	Sololá	713	San Lucas Tolimán	10	San Lucas Tolimán	1	Enero	2023-01-14T00:00:00	2024-11-08T02:00:00	3	Temperatura mínima	16.7
100740	7	Sololá	713	San Lucas Tolimán	10	San Lucas Tolimán	1	Enero	2023-01-14T00:00:00	2024-11-08T02:00:00	5	Humedad	51
100741	7	Sololá	713	San Lucas Tolimán	10	San Lucas Tolimán	1	Enero	2023-01-14T00:00:00	2024-11-08T02:00:00	6	Velocidad del viento	14.5
100742	7	Sololá	713	San Lucas Tolimán	10	San Lucas Tolimán	1	Enero	2023-01-14T00:00:00	2024-11-08T02:00:00	7	Dirección del viento	14.48
100743	7	Sololá	713	San Lucas Tolimán	10	San Lucas Tolimán	1	Enero	2023-01-14T00:00:00	2024-11-08T02:00:00	1	Precipitación	0
100744	7	Sololá	713	San Lucas Tolimán	10	San Lucas Tolimán	1	Enero	2023-01-14T00:00:00	2024-11-08T02:00:00	8	Radiación solar	0
100745	7	Sololá	713	San Lucas Tolimán	10	San Lucas Tolimán	1	Enero	2023-01-14T00:00:00	2024-11-08T03:00:00	2	Temperatura media	16.8
100746	7	Sololá	713	San Lucas Tolimán	10	San Lucas Tolimán	1	Enero	2023-01-14T00:00:00	2024-11-08T03:00:00	4	Temperatura máxima	16.8
100747	7	Sololá	713	San Lucas Tolimán	10	San Lucas Tolimán	1	Enero	2023-01-14T00:00:00	2024-11-08T03:00:00	3	Temperatura mínima	16.6
100748	7	Sololá	713	San Lucas Tolimán	10	San Lucas Tolimán	1	Enero	2023-01-14T00:00:00	2024-11-08T03:00:00	5	Humedad	51
100749	7	Sololá	713	San Lucas Tolimán	10	San Lucas Tolimán	1	Enero	2023-01-14T00:00:00	2024-11-08T03:00:00	6	Velocidad del viento	12.9
100750	7	Sololá	713	San Lucas Tolimán	10	San Lucas Tolimán	1	Enero	2023-01-14T00:00:00	2024-11-08T03:00:00	7	Dirección del viento	12.87
100751	7	Sololá	713	San Lucas Tolimán	10	San Lucas Tolimán	1	Enero	2023-01-14T00:00:00	2024-11-08T03:00:00	1	Precipitación	0
100752	7	Sololá	713	San Lucas Tolimán	10	San Lucas Tolimán	1	Enero	2023-01-14T00:00:00	2024-11-08T03:00:00	8	Radiación solar	0
100753	7	Sololá	713	San Lucas Tolimán	10	San Lucas Tolimán	1	Enero	2023-01-14T00:00:00	2024-11-08T04:00:00	2	Temperatura media	16.5
100754	7	Sololá	713	San Lucas Tolimán	10	San Lucas Tolimán	1	Enero	2023-01-14T00:00:00	2024-11-08T04:00:00	4	Temperatura máxima	16.9
100755	7	Sololá	713	San Lucas Tolimán	10	San Lucas Tolimán	1	Enero	2023-01-14T00:00:00	2024-11-08T04:00:00	3	Temperatura mínima	16.4
100756	7	Sololá	713	San Lucas Tolimán	10	San Lucas Tolimán	1	Enero	2023-01-14T00:00:00	2024-11-08T04:00:00	5	Humedad	51
100757	7	Sololá	713	San Lucas Tolimán	10	San Lucas Tolimán	1	Enero	2023-01-14T00:00:00	2024-11-08T04:00:00	6	Velocidad del viento	17.7
100758	7	Sololá	713	San Lucas Tolimán	10	San Lucas Tolimán	1	Enero	2023-01-14T00:00:00	2024-11-08T04:00:00	7	Dirección del viento	17.7
100759	7	Sololá	713	San Lucas Tolimán	10	San Lucas Tolimán	1	Enero	2023-01-14T00:00:00	2024-11-08T04:00:00	1	Precipitación	0
100760	7	Sololá	713	San Lucas Tolimán	10	San Lucas Tolimán	1	Enero	2023-01-14T00:00:00	2024-11-08T04:00:00	8	Radiación solar	0
100761	7	Sololá	713	San Lucas Tolimán	10	San Lucas Tolimán	1	Enero	2023-01-14T00:00:00	2024-11-08T05:00:00	2	Temperatura media	16.7
100762	7	Sololá	713	San Lucas Tolimán	10	San Lucas Tolimán	1	Enero	2023-01-14T00:00:00	2024-11-08T05:00:00	4	Temperatura máxima	16.8
100763	7	Sololá	713	San Lucas Tolimán	10	San Lucas Tolimán	1	Enero	2023-01-14T00:00:00	2024-11-08T05:00:00	3	Temperatura mínima	16.4
100764	7	Sololá	713	San Lucas Tolimán	10	San Lucas Tolimán	1	Enero	2023-01-14T00:00:00	2024-11-08T05:00:00	5	Humedad	52
100765	7	Sololá	713	San Lucas Tolimán	10	San Lucas Tolimán	1	Enero	2023-01-14T00:00:00	2024-11-08T05:00:00	6	Velocidad del viento	14.5
100766	7	Sololá	713	San Lucas Tolimán	10	San Lucas Tolimán	1	Enero	2023-01-14T00:00:00	2024-11-08T05:00:00	7	Dirección del viento	14.48
100767	7	Sololá	713	San Lucas Tolimán	10	San Lucas Tolimán	1	Enero	2023-01-14T00:00:00	2024-11-08T05:00:00	1	Precipitación	0
100768	7	Sololá	713	San Lucas Tolimán	10	San Lucas Tolimán	1	Enero	2023-01-14T00:00:00	2024-11-08T05:00:00	8	Radiación solar	0
100769	7	Sololá	713	San Lucas Tolimán	10	San Lucas Tolimán	1	Enero	2023-01-14T00:00:00	2024-11-08T06:00:00	2	Temperatura media	16.4
100770	7	Sololá	713	San Lucas Tolimán	10	San Lucas Tolimán	1	Enero	2023-01-14T00:00:00	2024-11-08T06:00:00	4	Temperatura máxima	16.7
100771	7	Sololá	713	San Lucas Tolimán	10	San Lucas Tolimán	1	Enero	2023-01-14T00:00:00	2024-11-08T06:00:00	3	Temperatura mínima	16.4
100772	7	Sololá	713	San Lucas Tolimán	10	San Lucas Tolimán	1	Enero	2023-01-14T00:00:00	2024-11-08T06:00:00	5	Humedad	51
100773	7	Sololá	713	San Lucas Tolimán	10	San Lucas Tolimán	1	Enero	2023-01-14T00:00:00	2024-11-08T06:00:00	6	Velocidad del viento	16.1
100774	7	Sololá	713	San Lucas Tolimán	10	San Lucas Tolimán	1	Enero	2023-01-14T00:00:00	2024-11-08T06:00:00	7	Dirección del viento	16.09
100775	7	Sololá	713	San Lucas Tolimán	10	San Lucas Tolimán	1	Enero	2023-01-14T00:00:00	2024-11-08T06:00:00	1	Precipitación	0
100776	7	Sololá	713	San Lucas Tolimán	10	San Lucas Tolimán	1	Enero	2023-01-14T00:00:00	2024-11-08T06:00:00	8	Radiación solar	0
100777	7	Sololá	713	San Lucas Tolimán	10	San Lucas Tolimán	1	Enero	2023-01-14T00:00:00	2024-11-08T07:00:00	2	Temperatura media	16.2
100778	7	Sololá	713	San Lucas Tolimán	10	San Lucas Tolimán	1	Enero	2023-01-14T00:00:00	2024-11-08T07:00:00	4	Temperatura máxima	16.4
100779	7	Sololá	713	San Lucas Tolimán	10	San Lucas Tolimán	1	Enero	2023-01-14T00:00:00	2024-11-08T07:00:00	3	Temperatura mínima	15.9
100780	7	Sololá	713	San Lucas Tolimán	10	San Lucas Tolimán	1	Enero	2023-01-14T00:00:00	2024-11-08T07:00:00	5	Humedad	51
100781	7	Sololá	713	San Lucas Tolimán	10	San Lucas Tolimán	1	Enero	2023-01-14T00:00:00	2024-11-08T07:00:00	6	Velocidad del viento	16.1
100782	7	Sololá	713	San Lucas Tolimán	10	San Lucas Tolimán	1	Enero	2023-01-14T00:00:00	2024-11-08T07:00:00	7	Dirección del viento	16.09
100783	7	Sololá	713	San Lucas Tolimán	10	San Lucas Tolimán	1	Enero	2023-01-14T00:00:00	2024-11-08T07:00:00	1	Precipitación	0
100784	7	Sololá	713	San Lucas Tolimán	10	San Lucas Tolimán	1	Enero	2023-01-14T00:00:00	2024-11-08T07:00:00	8	Radiación solar	3
100785	7	Sololá	713	San Lucas Tolimán	10	San Lucas Tolimán	1	Enero	2023-01-14T00:00:00	2024-11-08T08:00:00	2	Temperatura media	16.7
100786	7	Sololá	713	San Lucas Tolimán	10	San Lucas Tolimán	1	Enero	2023-01-14T00:00:00	2024-11-08T08:00:00	4	Temperatura máxima	16.7
100787	7	Sololá	713	San Lucas Tolimán	10	San Lucas Tolimán	1	Enero	2023-01-14T00:00:00	2024-11-08T08:00:00	3	Temperatura mínima	16.2
100788	7	Sololá	713	San Lucas Tolimán	10	San Lucas Tolimán	1	Enero	2023-01-14T00:00:00	2024-11-08T08:00:00	5	Humedad	49
100789	7	Sololá	713	San Lucas Tolimán	10	San Lucas Tolimán	1	Enero	2023-01-14T00:00:00	2024-11-08T08:00:00	6	Velocidad del viento	14.5
100790	7	Sololá	713	San Lucas Tolimán	10	San Lucas Tolimán	1	Enero	2023-01-14T00:00:00	2024-11-08T08:00:00	7	Dirección del viento	14.48
100791	7	Sololá	713	San Lucas Tolimán	10	San Lucas Tolimán	1	Enero	2023-01-14T00:00:00	2024-11-08T08:00:00	1	Precipitación	0
100792	7	Sololá	713	San Lucas Tolimán	10	San Lucas Tolimán	1	Enero	2023-01-14T00:00:00	2024-11-08T08:00:00	8	Radiación solar	19
100793	7	Sololá	713	San Lucas Tolimán	10	San Lucas Tolimán	1	Enero	2023-01-14T00:00:00	2024-11-08T09:00:00	2	Temperatura media	19.1
100794	7	Sololá	713	San Lucas Tolimán	10	San Lucas Tolimán	1	Enero	2023-01-14T00:00:00	2024-11-08T09:00:00	4	Temperatura máxima	19.2
100795	7	Sololá	713	San Lucas Tolimán	10	San Lucas Tolimán	1	Enero	2023-01-14T00:00:00	2024-11-08T09:00:00	3	Temperatura mínima	16.7
100796	7	Sololá	713	San Lucas Tolimán	10	San Lucas Tolimán	1	Enero	2023-01-14T00:00:00	2024-11-08T09:00:00	5	Humedad	41
100797	7	Sololá	713	San Lucas Tolimán	10	San Lucas Tolimán	1	Enero	2023-01-14T00:00:00	2024-11-08T09:00:00	6	Velocidad del viento	11.3
100798	7	Sololá	713	San Lucas Tolimán	10	San Lucas Tolimán	1	Enero	2023-01-14T00:00:00	2024-11-08T09:00:00	7	Dirección del viento	11.27
100799	7	Sololá	713	San Lucas Tolimán	10	San Lucas Tolimán	1	Enero	2023-01-14T00:00:00	2024-11-08T09:00:00	1	Precipitación	0
100800	7	Sololá	713	San Lucas Tolimán	10	San Lucas Tolimán	1	Enero	2023-01-14T00:00:00	2024-11-08T09:00:00	8	Radiación solar	274
100801	7	Sololá	713	San Lucas Tolimán	10	San Lucas Tolimán	1	Enero	2023-01-14T00:00:00	2024-11-08T10:00:00	2	Temperatura media	20.6
100802	7	Sololá	713	San Lucas Tolimán	10	San Lucas Tolimán	1	Enero	2023-01-14T00:00:00	2024-11-08T10:00:00	4	Temperatura máxima	20.6
100803	7	Sololá	713	San Lucas Tolimán	10	San Lucas Tolimán	1	Enero	2023-01-14T00:00:00	2024-11-08T10:00:00	3	Temperatura mínima	19.1
100804	7	Sololá	713	San Lucas Tolimán	10	San Lucas Tolimán	1	Enero	2023-01-14T00:00:00	2024-11-08T10:00:00	5	Humedad	37
100805	7	Sololá	713	San Lucas Tolimán	10	San Lucas Tolimán	1	Enero	2023-01-14T00:00:00	2024-11-08T10:00:00	6	Velocidad del viento	11.3
100806	7	Sololá	713	San Lucas Tolimán	10	San Lucas Tolimán	1	Enero	2023-01-14T00:00:00	2024-11-08T10:00:00	7	Dirección del viento	11.27
100807	7	Sololá	713	San Lucas Tolimán	10	San Lucas Tolimán	1	Enero	2023-01-14T00:00:00	2024-11-08T10:00:00	1	Precipitación	0
100808	7	Sololá	713	San Lucas Tolimán	10	San Lucas Tolimán	1	Enero	2023-01-14T00:00:00	2024-11-08T10:00:00	8	Radiación solar	602
100809	7	Sololá	713	San Lucas Tolimán	10	San Lucas Tolimán	1	Enero	2023-01-14T00:00:00	2024-11-08T11:00:00	2	Temperatura media	21.6
100810	7	Sololá	713	San Lucas Tolimán	10	San Lucas Tolimán	1	Enero	2023-01-14T00:00:00	2024-11-08T11:00:00	4	Temperatura máxima	21.7
100811	7	Sololá	713	San Lucas Tolimán	10	San Lucas Tolimán	1	Enero	2023-01-14T00:00:00	2024-11-08T11:00:00	3	Temperatura mínima	20.6
100812	7	Sololá	713	San Lucas Tolimán	10	San Lucas Tolimán	1	Enero	2023-01-14T00:00:00	2024-11-08T11:00:00	5	Humedad	33
100813	7	Sololá	713	San Lucas Tolimán	10	San Lucas Tolimán	1	Enero	2023-01-14T00:00:00	2024-11-08T11:00:00	6	Velocidad del viento	11.3
100814	7	Sololá	713	San Lucas Tolimán	10	San Lucas Tolimán	1	Enero	2023-01-14T00:00:00	2024-11-08T11:00:00	7	Dirección del viento	11.27
100815	7	Sololá	713	San Lucas Tolimán	10	San Lucas Tolimán	1	Enero	2023-01-14T00:00:00	2024-11-08T11:00:00	1	Precipitación	0
100816	7	Sololá	713	San Lucas Tolimán	10	San Lucas Tolimán	1	Enero	2023-01-14T00:00:00	2024-11-08T11:00:00	8	Radiación solar	771
100817	7	Sololá	713	San Lucas Tolimán	10	San Lucas Tolimán	1	Enero	2023-01-14T00:00:00	2024-11-08T12:00:00	2	Temperatura media	22.5
100818	7	Sololá	713	San Lucas Tolimán	10	San Lucas Tolimán	1	Enero	2023-01-14T00:00:00	2024-11-08T12:00:00	4	Temperatura máxima	22.5
100819	7	Sololá	713	San Lucas Tolimán	10	San Lucas Tolimán	1	Enero	2023-01-14T00:00:00	2024-11-08T12:00:00	3	Temperatura mínima	21.5
100820	7	Sololá	713	San Lucas Tolimán	10	San Lucas Tolimán	1	Enero	2023-01-14T00:00:00	2024-11-08T12:00:00	5	Humedad	28
100821	7	Sololá	713	San Lucas Tolimán	10	San Lucas Tolimán	1	Enero	2023-01-14T00:00:00	2024-11-08T12:00:00	6	Velocidad del viento	9.7
100822	7	Sololá	713	San Lucas Tolimán	10	San Lucas Tolimán	1	Enero	2023-01-14T00:00:00	2024-11-08T12:00:00	7	Dirección del viento	9.66
100823	7	Sololá	713	San Lucas Tolimán	10	San Lucas Tolimán	1	Enero	2023-01-14T00:00:00	2024-11-08T12:00:00	1	Precipitación	0
100824	7	Sololá	713	San Lucas Tolimán	10	San Lucas Tolimán	1	Enero	2023-01-14T00:00:00	2024-11-08T12:00:00	8	Radiación solar	876
100825	7	Sololá	713	San Lucas Tolimán	10	San Lucas Tolimán	1	Enero	2023-01-14T00:00:00	2024-11-08T13:00:00	2	Temperatura media	23.3
100826	7	Sololá	713	San Lucas Tolimán	10	San Lucas Tolimán	1	Enero	2023-01-14T00:00:00	2024-11-08T13:00:00	4	Temperatura máxima	23.5
100827	7	Sololá	713	San Lucas Tolimán	10	San Lucas Tolimán	1	Enero	2023-01-14T00:00:00	2024-11-08T13:00:00	3	Temperatura mínima	22.5
100828	7	Sololá	713	San Lucas Tolimán	10	San Lucas Tolimán	1	Enero	2023-01-14T00:00:00	2024-11-08T13:00:00	5	Humedad	22
100829	7	Sololá	713	San Lucas Tolimán	10	San Lucas Tolimán	1	Enero	2023-01-14T00:00:00	2024-11-08T13:00:00	6	Velocidad del viento	12.9
100830	7	Sololá	713	San Lucas Tolimán	10	San Lucas Tolimán	1	Enero	2023-01-14T00:00:00	2024-11-08T13:00:00	7	Dirección del viento	12.87
100831	7	Sololá	713	San Lucas Tolimán	10	San Lucas Tolimán	1	Enero	2023-01-14T00:00:00	2024-11-08T13:00:00	1	Precipitación	0
100832	7	Sololá	713	San Lucas Tolimán	10	San Lucas Tolimán	1	Enero	2023-01-14T00:00:00	2024-11-08T13:00:00	8	Radiación solar	903
100833	7	Sololá	713	San Lucas Tolimán	10	San Lucas Tolimán	1	Enero	2023-01-14T00:00:00	2024-11-08T14:00:00	2	Temperatura media	23.2
100834	7	Sololá	713	San Lucas Tolimán	10	San Lucas Tolimán	1	Enero	2023-01-14T00:00:00	2024-11-08T14:00:00	4	Temperatura máxima	23.8
100835	7	Sololá	713	San Lucas Tolimán	10	San Lucas Tolimán	1	Enero	2023-01-14T00:00:00	2024-11-08T14:00:00	3	Temperatura mínima	22.9
100836	7	Sololá	713	San Lucas Tolimán	10	San Lucas Tolimán	1	Enero	2023-01-14T00:00:00	2024-11-08T14:00:00	5	Humedad	49
100837	7	Sololá	713	San Lucas Tolimán	10	San Lucas Tolimán	1	Enero	2023-01-14T00:00:00	2024-11-08T14:00:00	6	Velocidad del viento	9.7
100838	7	Sololá	713	San Lucas Tolimán	10	San Lucas Tolimán	1	Enero	2023-01-14T00:00:00	2024-11-08T14:00:00	7	Dirección del viento	9.66
100839	7	Sololá	713	San Lucas Tolimán	10	San Lucas Tolimán	1	Enero	2023-01-14T00:00:00	2024-11-08T14:00:00	1	Precipitación	0
100840	7	Sololá	713	San Lucas Tolimán	10	San Lucas Tolimán	1	Enero	2023-01-14T00:00:00	2024-11-08T14:00:00	8	Radiación solar	863
100841	7	Sololá	713	San Lucas Tolimán	10	San Lucas Tolimán	1	Enero	2023-01-14T00:00:00	2024-11-08T15:00:00	2	Temperatura media	22.2
100842	7	Sololá	713	San Lucas Tolimán	10	San Lucas Tolimán	1	Enero	2023-01-14T00:00:00	2024-11-08T15:00:00	4	Temperatura máxima	23.3
100843	7	Sololá	713	San Lucas Tolimán	10	San Lucas Tolimán	1	Enero	2023-01-14T00:00:00	2024-11-08T15:00:00	3	Temperatura mínima	21.8
100844	7	Sololá	713	San Lucas Tolimán	10	San Lucas Tolimán	1	Enero	2023-01-14T00:00:00	2024-11-08T15:00:00	5	Humedad	56
100845	7	Sololá	713	San Lucas Tolimán	10	San Lucas Tolimán	1	Enero	2023-01-14T00:00:00	2024-11-08T15:00:00	6	Velocidad del viento	11.3
100846	7	Sololá	713	San Lucas Tolimán	10	San Lucas Tolimán	1	Enero	2023-01-14T00:00:00	2024-11-08T15:00:00	7	Dirección del viento	11.27
100847	7	Sololá	713	San Lucas Tolimán	10	San Lucas Tolimán	1	Enero	2023-01-14T00:00:00	2024-11-08T15:00:00	1	Precipitación	0
100848	7	Sololá	713	San Lucas Tolimán	10	San Lucas Tolimán	1	Enero	2023-01-14T00:00:00	2024-11-08T15:00:00	8	Radiación solar	704
100849	7	Sololá	713	San Lucas Tolimán	10	San Lucas Tolimán	1	Enero	2023-01-14T00:00:00	2024-11-08T16:00:00	2	Temperatura media	20.9
100850	7	Sololá	713	San Lucas Tolimán	10	San Lucas Tolimán	1	Enero	2023-01-14T00:00:00	2024-11-08T16:00:00	4	Temperatura máxima	22.4
100851	7	Sololá	713	San Lucas Tolimán	10	San Lucas Tolimán	1	Enero	2023-01-14T00:00:00	2024-11-08T16:00:00	3	Temperatura mínima	20.7
100852	7	Sololá	713	San Lucas Tolimán	10	San Lucas Tolimán	1	Enero	2023-01-14T00:00:00	2024-11-08T16:00:00	5	Humedad	59
100853	7	Sololá	713	San Lucas Tolimán	10	San Lucas Tolimán	1	Enero	2023-01-14T00:00:00	2024-11-08T16:00:00	6	Velocidad del viento	11.3
100854	7	Sololá	713	San Lucas Tolimán	10	San Lucas Tolimán	1	Enero	2023-01-14T00:00:00	2024-11-08T16:00:00	7	Dirección del viento	11.27
100855	7	Sololá	713	San Lucas Tolimán	10	San Lucas Tolimán	1	Enero	2023-01-14T00:00:00	2024-11-08T16:00:00	1	Precipitación	0
100856	7	Sololá	713	San Lucas Tolimán	10	San Lucas Tolimán	1	Enero	2023-01-14T00:00:00	2024-11-08T16:00:00	8	Radiación solar	476
100857	7	Sololá	713	San Lucas Tolimán	10	San Lucas Tolimán	1	Enero	2023-01-14T00:00:00	2024-11-08T17:00:00	2	Temperatura media	20.1
100858	7	Sololá	713	San Lucas Tolimán	10	San Lucas Tolimán	1	Enero	2023-01-14T00:00:00	2024-11-08T17:00:00	4	Temperatura máxima	21.3
100859	7	Sololá	713	San Lucas Tolimán	10	San Lucas Tolimán	1	Enero	2023-01-14T00:00:00	2024-11-08T17:00:00	3	Temperatura mínima	20.1
100860	7	Sololá	713	San Lucas Tolimán	10	San Lucas Tolimán	1	Enero	2023-01-14T00:00:00	2024-11-08T17:00:00	5	Humedad	59
100861	7	Sololá	713	San Lucas Tolimán	10	San Lucas Tolimán	1	Enero	2023-01-14T00:00:00	2024-11-08T17:00:00	6	Velocidad del viento	11.3
100862	7	Sololá	713	San Lucas Tolimán	10	San Lucas Tolimán	1	Enero	2023-01-14T00:00:00	2024-11-08T17:00:00	7	Dirección del viento	11.27
100863	7	Sololá	713	San Lucas Tolimán	10	San Lucas Tolimán	1	Enero	2023-01-14T00:00:00	2024-11-08T17:00:00	1	Precipitación	0
100864	7	Sololá	713	San Lucas Tolimán	10	San Lucas Tolimán	1	Enero	2023-01-14T00:00:00	2024-11-08T17:00:00	8	Radiación solar	231
100865	7	Sololá	713	San Lucas Tolimán	10	San Lucas Tolimán	1	Enero	2023-01-14T00:00:00	2024-11-08T18:00:00	2	Temperatura media	18.4
100866	7	Sololá	713	San Lucas Tolimán	10	San Lucas Tolimán	1	Enero	2023-01-14T00:00:00	2024-11-08T18:00:00	4	Temperatura máxima	20.1
100867	7	Sololá	713	San Lucas Tolimán	10	San Lucas Tolimán	1	Enero	2023-01-14T00:00:00	2024-11-08T18:00:00	3	Temperatura mínima	18.4
100868	7	Sololá	713	San Lucas Tolimán	10	San Lucas Tolimán	1	Enero	2023-01-14T00:00:00	2024-11-08T18:00:00	5	Humedad	59
100869	7	Sololá	713	San Lucas Tolimán	10	San Lucas Tolimán	1	Enero	2023-01-14T00:00:00	2024-11-08T18:00:00	6	Velocidad del viento	6.4
100870	7	Sololá	713	San Lucas Tolimán	10	San Lucas Tolimán	1	Enero	2023-01-14T00:00:00	2024-11-08T18:00:00	7	Dirección del viento	6.44
100871	7	Sololá	713	San Lucas Tolimán	10	San Lucas Tolimán	1	Enero	2023-01-14T00:00:00	2024-11-08T18:00:00	1	Precipitación	0
100872	7	Sololá	713	San Lucas Tolimán	10	San Lucas Tolimán	1	Enero	2023-01-14T00:00:00	2024-11-08T18:00:00	8	Radiación solar	13
100873	7	Sololá	713	San Lucas Tolimán	10	San Lucas Tolimán	1	Enero	2023-01-14T00:00:00	2024-11-08T19:00:00	2	Temperatura media	17.2
100874	7	Sololá	713	San Lucas Tolimán	10	San Lucas Tolimán	1	Enero	2023-01-14T00:00:00	2024-11-08T19:00:00	4	Temperatura máxima	18.4
100875	7	Sololá	713	San Lucas Tolimán	10	San Lucas Tolimán	1	Enero	2023-01-14T00:00:00	2024-11-08T19:00:00	3	Temperatura mínima	17.1
100876	7	Sololá	713	San Lucas Tolimán	10	San Lucas Tolimán	1	Enero	2023-01-14T00:00:00	2024-11-08T19:00:00	5	Humedad	53
100877	7	Sololá	713	San Lucas Tolimán	10	San Lucas Tolimán	1	Enero	2023-01-14T00:00:00	2024-11-08T19:00:00	6	Velocidad del viento	0
100878	7	Sololá	713	San Lucas Tolimán	10	San Lucas Tolimán	1	Enero	2023-01-14T00:00:00	2024-11-08T19:00:00	7	Dirección del viento	0
100879	7	Sololá	713	San Lucas Tolimán	10	San Lucas Tolimán	1	Enero	2023-01-14T00:00:00	2024-11-08T19:00:00	1	Precipitación	0
100880	7	Sololá	713	San Lucas Tolimán	10	San Lucas Tolimán	1	Enero	2023-01-14T00:00:00	2024-11-08T19:00:00	8	Radiación solar	0
100881	7	Sololá	713	San Lucas Tolimán	10	San Lucas Tolimán	1	Enero	2023-01-14T00:00:00	2024-11-08T20:00:00	2	Temperatura media	16.1
100882	7	Sololá	713	San Lucas Tolimán	10	San Lucas Tolimán	1	Enero	2023-01-14T00:00:00	2024-11-08T20:00:00	4	Temperatura máxima	17.2
100883	7	Sololá	713	San Lucas Tolimán	10	San Lucas Tolimán	1	Enero	2023-01-14T00:00:00	2024-11-08T20:00:00	3	Temperatura mínima	16
100884	7	Sololá	713	San Lucas Tolimán	10	San Lucas Tolimán	1	Enero	2023-01-14T00:00:00	2024-11-08T20:00:00	5	Humedad	47
100885	7	Sololá	713	San Lucas Tolimán	10	San Lucas Tolimán	1	Enero	2023-01-14T00:00:00	2024-11-08T20:00:00	6	Velocidad del viento	1.6
100886	7	Sololá	713	San Lucas Tolimán	10	San Lucas Tolimán	1	Enero	2023-01-14T00:00:00	2024-11-08T20:00:00	7	Dirección del viento	1.61
100887	7	Sololá	713	San Lucas Tolimán	10	San Lucas Tolimán	1	Enero	2023-01-14T00:00:00	2024-11-08T20:00:00	1	Precipitación	0
100888	7	Sololá	713	San Lucas Tolimán	10	San Lucas Tolimán	1	Enero	2023-01-14T00:00:00	2024-11-08T20:00:00	8	Radiación solar	0
100889	7	Sololá	713	San Lucas Tolimán	10	San Lucas Tolimán	1	Enero	2023-01-14T00:00:00	2024-11-08T21:00:00	2	Temperatura media	15.4
100890	7	Sololá	713	San Lucas Tolimán	10	San Lucas Tolimán	1	Enero	2023-01-14T00:00:00	2024-11-08T21:00:00	4	Temperatura máxima	16.2
100891	7	Sololá	713	San Lucas Tolimán	10	San Lucas Tolimán	1	Enero	2023-01-14T00:00:00	2024-11-08T21:00:00	3	Temperatura mínima	15.4
100892	7	Sololá	713	San Lucas Tolimán	10	San Lucas Tolimán	1	Enero	2023-01-14T00:00:00	2024-11-08T21:00:00	5	Humedad	51
100893	7	Sololá	713	San Lucas Tolimán	10	San Lucas Tolimán	1	Enero	2023-01-14T00:00:00	2024-11-08T21:00:00	6	Velocidad del viento	3.2
100894	7	Sololá	713	San Lucas Tolimán	10	San Lucas Tolimán	1	Enero	2023-01-14T00:00:00	2024-11-08T21:00:00	7	Dirección del viento	3.22
100895	7	Sololá	713	San Lucas Tolimán	10	San Lucas Tolimán	1	Enero	2023-01-14T00:00:00	2024-11-08T21:00:00	1	Precipitación	0
100896	7	Sololá	713	San Lucas Tolimán	10	San Lucas Tolimán	1	Enero	2023-01-14T00:00:00	2024-11-08T21:00:00	8	Radiación solar	0
100897	7	Sololá	713	San Lucas Tolimán	10	San Lucas Tolimán	1	Enero	2023-01-14T00:00:00	2024-11-08T22:00:00	2	Temperatura media	14.2
100898	7	Sololá	713	San Lucas Tolimán	10	San Lucas Tolimán	1	Enero	2023-01-14T00:00:00	2024-11-08T22:00:00	4	Temperatura máxima	15.4
100899	7	Sololá	713	San Lucas Tolimán	10	San Lucas Tolimán	1	Enero	2023-01-14T00:00:00	2024-11-08T22:00:00	3	Temperatura mínima	14.2
100900	7	Sololá	713	San Lucas Tolimán	10	San Lucas Tolimán	1	Enero	2023-01-14T00:00:00	2024-11-08T22:00:00	5	Humedad	49
100901	7	Sololá	713	San Lucas Tolimán	10	San Lucas Tolimán	1	Enero	2023-01-14T00:00:00	2024-11-08T22:00:00	6	Velocidad del viento	1.6
100902	7	Sololá	713	San Lucas Tolimán	10	San Lucas Tolimán	1	Enero	2023-01-14T00:00:00	2024-11-08T22:00:00	7	Dirección del viento	1.61
100903	7	Sololá	713	San Lucas Tolimán	10	San Lucas Tolimán	1	Enero	2023-01-14T00:00:00	2024-11-08T22:00:00	1	Precipitación	0
100904	7	Sololá	713	San Lucas Tolimán	10	San Lucas Tolimán	1	Enero	2023-01-14T00:00:00	2024-11-08T22:00:00	8	Radiación solar	0
100905	7	Sololá	713	San Lucas Tolimán	10	San Lucas Tolimán	1	Enero	2023-01-14T00:00:00	2024-11-08T23:00:00	2	Temperatura media	14
100906	7	Sololá	713	San Lucas Tolimán	10	San Lucas Tolimán	1	Enero	2023-01-14T00:00:00	2024-11-08T23:00:00	4	Temperatura máxima	14.7
100907	7	Sololá	713	San Lucas Tolimán	10	San Lucas Tolimán	1	Enero	2023-01-14T00:00:00	2024-11-08T23:00:00	3	Temperatura mínima	14
100908	7	Sololá	713	San Lucas Tolimán	10	San Lucas Tolimán	1	Enero	2023-01-14T00:00:00	2024-11-08T23:00:00	5	Humedad	45
100909	7	Sololá	713	San Lucas Tolimán	10	San Lucas Tolimán	1	Enero	2023-01-14T00:00:00	2024-11-08T23:00:00	6	Velocidad del viento	3.2
100910	7	Sololá	713	San Lucas Tolimán	10	San Lucas Tolimán	1	Enero	2023-01-14T00:00:00	2024-11-08T23:00:00	7	Dirección del viento	3.22
100911	7	Sololá	713	San Lucas Tolimán	10	San Lucas Tolimán	1	Enero	2023-01-14T00:00:00	2024-11-08T23:00:00	1	Precipitación	0
100912	7	Sololá	713	San Lucas Tolimán	10	San Lucas Tolimán	1	Enero	2023-01-14T00:00:00	2024-11-08T23:00:00	8	Radiación solar	0
100913	7	Sololá	713	San Lucas Tolimán	10	San Lucas Tolimán	1	Enero	2023-01-15T00:00:00	2024-11-08T00:00:00	2	Temperatura media	13.6
100914	7	Sololá	713	San Lucas Tolimán	10	San Lucas Tolimán	1	Enero	2023-01-15T00:00:00	2024-11-08T00:00:00	4	Temperatura máxima	14.1
100915	7	Sololá	713	San Lucas Tolimán	10	San Lucas Tolimán	1	Enero	2023-01-15T00:00:00	2024-11-08T00:00:00	3	Temperatura mínima	13.4
100916	7	Sololá	713	San Lucas Tolimán	10	San Lucas Tolimán	1	Enero	2023-01-15T00:00:00	2024-11-08T00:00:00	5	Humedad	47
100917	7	Sololá	713	San Lucas Tolimán	10	San Lucas Tolimán	1	Enero	2023-01-15T00:00:00	2024-11-08T00:00:00	6	Velocidad del viento	3.2
100918	7	Sololá	713	San Lucas Tolimán	10	San Lucas Tolimán	1	Enero	2023-01-15T00:00:00	2024-11-08T00:00:00	7	Dirección del viento	3.22
100919	7	Sololá	713	San Lucas Tolimán	10	San Lucas Tolimán	1	Enero	2023-01-15T00:00:00	2024-11-08T00:00:00	1	Precipitación	0
100920	7	Sololá	713	San Lucas Tolimán	10	San Lucas Tolimán	1	Enero	2023-01-15T00:00:00	2024-11-08T00:00:00	8	Radiación solar	0
100921	7	Sololá	713	San Lucas Tolimán	10	San Lucas Tolimán	1	Enero	2023-01-15T00:00:00	2024-11-08T01:00:00	2	Temperatura media	12.9
100922	7	Sololá	713	San Lucas Tolimán	10	San Lucas Tolimán	1	Enero	2023-01-15T00:00:00	2024-11-08T01:00:00	4	Temperatura máxima	13.6
100923	7	Sololá	713	San Lucas Tolimán	10	San Lucas Tolimán	1	Enero	2023-01-15T00:00:00	2024-11-08T01:00:00	3	Temperatura mínima	12.8
100924	7	Sololá	713	San Lucas Tolimán	10	San Lucas Tolimán	1	Enero	2023-01-15T00:00:00	2024-11-08T01:00:00	5	Humedad	52
100925	7	Sololá	713	San Lucas Tolimán	10	San Lucas Tolimán	1	Enero	2023-01-15T00:00:00	2024-11-08T01:00:00	6	Velocidad del viento	1.6
100926	7	Sololá	713	San Lucas Tolimán	10	San Lucas Tolimán	1	Enero	2023-01-15T00:00:00	2024-11-08T01:00:00	7	Dirección del viento	1.61
100927	7	Sololá	713	San Lucas Tolimán	10	San Lucas Tolimán	1	Enero	2023-01-15T00:00:00	2024-11-08T01:00:00	1	Precipitación	0
100928	7	Sololá	713	San Lucas Tolimán	10	San Lucas Tolimán	1	Enero	2023-01-15T00:00:00	2024-11-08T01:00:00	8	Radiación solar	0
100929	7	Sololá	713	San Lucas Tolimán	10	San Lucas Tolimán	1	Enero	2023-01-15T00:00:00	2024-11-08T02:00:00	2	Temperatura media	12.1
100930	7	Sololá	713	San Lucas Tolimán	10	San Lucas Tolimán	1	Enero	2023-01-15T00:00:00	2024-11-08T02:00:00	4	Temperatura máxima	12.9
100931	7	Sololá	713	San Lucas Tolimán	10	San Lucas Tolimán	1	Enero	2023-01-15T00:00:00	2024-11-08T02:00:00	3	Temperatura mínima	12.1
100932	7	Sololá	713	San Lucas Tolimán	10	San Lucas Tolimán	1	Enero	2023-01-15T00:00:00	2024-11-08T02:00:00	5	Humedad	55
100933	7	Sololá	713	San Lucas Tolimán	10	San Lucas Tolimán	1	Enero	2023-01-15T00:00:00	2024-11-08T02:00:00	6	Velocidad del viento	1.6
100934	7	Sololá	713	San Lucas Tolimán	10	San Lucas Tolimán	1	Enero	2023-01-15T00:00:00	2024-11-08T02:00:00	7	Dirección del viento	1.61
100935	7	Sololá	713	San Lucas Tolimán	10	San Lucas Tolimán	1	Enero	2023-01-15T00:00:00	2024-11-08T02:00:00	1	Precipitación	0
100936	7	Sololá	713	San Lucas Tolimán	10	San Lucas Tolimán	1	Enero	2023-01-15T00:00:00	2024-11-08T02:00:00	8	Radiación solar	0
100937	7	Sololá	713	San Lucas Tolimán	10	San Lucas Tolimán	1	Enero	2023-01-15T00:00:00	2024-11-08T03:00:00	2	Temperatura media	11.2
100938	7	Sololá	713	San Lucas Tolimán	10	San Lucas Tolimán	1	Enero	2023-01-15T00:00:00	2024-11-08T03:00:00	4	Temperatura máxima	12.1
100939	7	Sololá	713	San Lucas Tolimán	10	San Lucas Tolimán	1	Enero	2023-01-15T00:00:00	2024-11-08T03:00:00	3	Temperatura mínima	11.1
100940	7	Sololá	713	San Lucas Tolimán	10	San Lucas Tolimán	1	Enero	2023-01-15T00:00:00	2024-11-08T03:00:00	5	Humedad	57
100941	7	Sololá	713	San Lucas Tolimán	10	San Lucas Tolimán	1	Enero	2023-01-15T00:00:00	2024-11-08T03:00:00	6	Velocidad del viento	0
100942	7	Sololá	713	San Lucas Tolimán	10	San Lucas Tolimán	1	Enero	2023-01-15T00:00:00	2024-11-08T03:00:00	7	Dirección del viento	0
100943	7	Sololá	713	San Lucas Tolimán	10	San Lucas Tolimán	1	Enero	2023-01-15T00:00:00	2024-11-08T03:00:00	1	Precipitación	0
100944	7	Sololá	713	San Lucas Tolimán	10	San Lucas Tolimán	1	Enero	2023-01-15T00:00:00	2024-11-08T03:00:00	8	Radiación solar	0
100945	7	Sololá	713	San Lucas Tolimán	10	San Lucas Tolimán	1	Enero	2023-01-15T00:00:00	2024-11-08T04:00:00	2	Temperatura media	11.3
100946	7	Sololá	713	San Lucas Tolimán	10	San Lucas Tolimán	1	Enero	2023-01-15T00:00:00	2024-11-08T04:00:00	4	Temperatura máxima	11.4
100947	7	Sololá	713	San Lucas Tolimán	10	San Lucas Tolimán	1	Enero	2023-01-15T00:00:00	2024-11-08T04:00:00	3	Temperatura mínima	10.9
100948	7	Sololá	713	San Lucas Tolimán	10	San Lucas Tolimán	1	Enero	2023-01-15T00:00:00	2024-11-08T04:00:00	5	Humedad	57
100949	7	Sololá	713	San Lucas Tolimán	10	San Lucas Tolimán	1	Enero	2023-01-15T00:00:00	2024-11-08T04:00:00	6	Velocidad del viento	0
100950	7	Sololá	713	San Lucas Tolimán	10	San Lucas Tolimán	1	Enero	2023-01-15T00:00:00	2024-11-08T04:00:00	7	Dirección del viento	0
100951	7	Sololá	713	San Lucas Tolimán	10	San Lucas Tolimán	1	Enero	2023-01-15T00:00:00	2024-11-08T04:00:00	1	Precipitación	0
100952	7	Sololá	713	San Lucas Tolimán	10	San Lucas Tolimán	1	Enero	2023-01-15T00:00:00	2024-11-08T04:00:00	8	Radiación solar	0
100953	7	Sololá	713	San Lucas Tolimán	10	San Lucas Tolimán	1	Enero	2023-01-15T00:00:00	2024-11-08T05:00:00	2	Temperatura media	11.2
100954	7	Sololá	713	San Lucas Tolimán	10	San Lucas Tolimán	1	Enero	2023-01-15T00:00:00	2024-11-08T05:00:00	4	Temperatura máxima	11.8
100955	7	Sololá	713	San Lucas Tolimán	10	San Lucas Tolimán	1	Enero	2023-01-15T00:00:00	2024-11-08T05:00:00	3	Temperatura mínima	11.2
100956	7	Sololá	713	San Lucas Tolimán	10	San Lucas Tolimán	1	Enero	2023-01-15T00:00:00	2024-11-08T05:00:00	5	Humedad	57
100957	7	Sololá	713	San Lucas Tolimán	10	San Lucas Tolimán	1	Enero	2023-01-15T00:00:00	2024-11-08T05:00:00	6	Velocidad del viento	0
100958	7	Sololá	713	San Lucas Tolimán	10	San Lucas Tolimán	1	Enero	2023-01-15T00:00:00	2024-11-08T05:00:00	7	Dirección del viento	0
100959	7	Sololá	713	San Lucas Tolimán	10	San Lucas Tolimán	1	Enero	2023-01-15T00:00:00	2024-11-08T05:00:00	1	Precipitación	0
100960	7	Sololá	713	San Lucas Tolimán	10	San Lucas Tolimán	1	Enero	2023-01-15T00:00:00	2024-11-08T05:00:00	8	Radiación solar	0
100961	7	Sololá	713	San Lucas Tolimán	10	San Lucas Tolimán	1	Enero	2023-01-15T00:00:00	2024-11-08T06:00:00	2	Temperatura media	11.4
100962	7	Sololá	713	San Lucas Tolimán	10	San Lucas Tolimán	1	Enero	2023-01-15T00:00:00	2024-11-08T06:00:00	4	Temperatura máxima	11.7
100963	7	Sololá	713	San Lucas Tolimán	10	San Lucas Tolimán	1	Enero	2023-01-15T00:00:00	2024-11-08T06:00:00	3	Temperatura mínima	10.9
100964	7	Sololá	713	San Lucas Tolimán	10	San Lucas Tolimán	1	Enero	2023-01-15T00:00:00	2024-11-08T06:00:00	5	Humedad	57
100965	7	Sololá	713	San Lucas Tolimán	10	San Lucas Tolimán	1	Enero	2023-01-15T00:00:00	2024-11-08T06:00:00	6	Velocidad del viento	3.2
100966	7	Sololá	713	San Lucas Tolimán	10	San Lucas Tolimán	1	Enero	2023-01-15T00:00:00	2024-11-08T06:00:00	7	Dirección del viento	3.22
100967	7	Sololá	713	San Lucas Tolimán	10	San Lucas Tolimán	1	Enero	2023-01-15T00:00:00	2024-11-08T06:00:00	1	Precipitación	0
100968	7	Sololá	713	San Lucas Tolimán	10	San Lucas Tolimán	1	Enero	2023-01-15T00:00:00	2024-11-08T06:00:00	8	Radiación solar	0
100969	7	Sololá	713	San Lucas Tolimán	10	San Lucas Tolimán	1	Enero	2023-01-15T00:00:00	2024-11-08T07:00:00	2	Temperatura media	11.4
100970	7	Sololá	713	San Lucas Tolimán	10	San Lucas Tolimán	1	Enero	2023-01-15T00:00:00	2024-11-08T07:00:00	4	Temperatura máxima	11.7
100971	7	Sololá	713	San Lucas Tolimán	10	San Lucas Tolimán	1	Enero	2023-01-15T00:00:00	2024-11-08T07:00:00	3	Temperatura mínima	11.3
100972	7	Sololá	713	San Lucas Tolimán	10	San Lucas Tolimán	1	Enero	2023-01-15T00:00:00	2024-11-08T07:00:00	5	Humedad	58
100973	7	Sololá	713	San Lucas Tolimán	10	San Lucas Tolimán	1	Enero	2023-01-15T00:00:00	2024-11-08T07:00:00	6	Velocidad del viento	4.8
100974	7	Sololá	713	San Lucas Tolimán	10	San Lucas Tolimán	1	Enero	2023-01-15T00:00:00	2024-11-08T07:00:00	7	Dirección del viento	4.83
100975	7	Sololá	713	San Lucas Tolimán	10	San Lucas Tolimán	1	Enero	2023-01-15T00:00:00	2024-11-08T07:00:00	1	Precipitación	0
100976	7	Sololá	713	San Lucas Tolimán	10	San Lucas Tolimán	1	Enero	2023-01-15T00:00:00	2024-11-08T07:00:00	8	Radiación solar	3
100977	7	Sololá	713	San Lucas Tolimán	10	San Lucas Tolimán	1	Enero	2023-01-15T00:00:00	2024-11-08T08:00:00	2	Temperatura media	12.9
100978	7	Sololá	713	San Lucas Tolimán	10	San Lucas Tolimán	1	Enero	2023-01-15T00:00:00	2024-11-08T08:00:00	4	Temperatura máxima	12.9
100979	7	Sololá	713	San Lucas Tolimán	10	San Lucas Tolimán	1	Enero	2023-01-15T00:00:00	2024-11-08T08:00:00	3	Temperatura mínima	11.3
100980	7	Sololá	713	San Lucas Tolimán	10	San Lucas Tolimán	1	Enero	2023-01-15T00:00:00	2024-11-08T08:00:00	5	Humedad	52
100981	7	Sololá	713	San Lucas Tolimán	10	San Lucas Tolimán	1	Enero	2023-01-15T00:00:00	2024-11-08T08:00:00	6	Velocidad del viento	4.8
100982	7	Sololá	713	San Lucas Tolimán	10	San Lucas Tolimán	1	Enero	2023-01-15T00:00:00	2024-11-08T08:00:00	7	Dirección del viento	4.83
100983	7	Sololá	713	San Lucas Tolimán	10	San Lucas Tolimán	1	Enero	2023-01-15T00:00:00	2024-11-08T08:00:00	1	Precipitación	0
100984	7	Sololá	713	San Lucas Tolimán	10	San Lucas Tolimán	1	Enero	2023-01-15T00:00:00	2024-11-08T08:00:00	8	Radiación solar	19
100985	7	Sololá	713	San Lucas Tolimán	10	San Lucas Tolimán	1	Enero	2023-01-15T00:00:00	2024-11-08T09:00:00	2	Temperatura media	16.1
100986	7	Sololá	713	San Lucas Tolimán	10	San Lucas Tolimán	1	Enero	2023-01-15T00:00:00	2024-11-08T09:00:00	4	Temperatura máxima	16.1
100987	7	Sololá	713	San Lucas Tolimán	10	San Lucas Tolimán	1	Enero	2023-01-15T00:00:00	2024-11-08T09:00:00	3	Temperatura mínima	12.8
100988	7	Sololá	713	San Lucas Tolimán	10	San Lucas Tolimán	1	Enero	2023-01-15T00:00:00	2024-11-08T09:00:00	5	Humedad	45
100989	7	Sololá	713	San Lucas Tolimán	10	San Lucas Tolimán	1	Enero	2023-01-15T00:00:00	2024-11-08T09:00:00	6	Velocidad del viento	8
100990	7	Sololá	713	San Lucas Tolimán	10	San Lucas Tolimán	1	Enero	2023-01-15T00:00:00	2024-11-08T09:00:00	7	Dirección del viento	8.05
100991	7	Sololá	713	San Lucas Tolimán	10	San Lucas Tolimán	1	Enero	2023-01-15T00:00:00	2024-11-08T09:00:00	1	Precipitación	0
100992	7	Sololá	713	San Lucas Tolimán	10	San Lucas Tolimán	1	Enero	2023-01-15T00:00:00	2024-11-08T09:00:00	8	Radiación solar	277
100993	7	Sololá	713	San Lucas Tolimán	10	San Lucas Tolimán	1	Enero	2023-01-15T00:00:00	2024-11-08T10:00:00	2	Temperatura media	18.1
100994	7	Sololá	713	San Lucas Tolimán	10	San Lucas Tolimán	1	Enero	2023-01-15T00:00:00	2024-11-08T10:00:00	4	Temperatura máxima	18.1
100995	7	Sololá	713	San Lucas Tolimán	10	San Lucas Tolimán	1	Enero	2023-01-15T00:00:00	2024-11-08T10:00:00	3	Temperatura mínima	16.1
100996	7	Sololá	713	San Lucas Tolimán	10	San Lucas Tolimán	1	Enero	2023-01-15T00:00:00	2024-11-08T10:00:00	5	Humedad	39
100997	7	Sololá	713	San Lucas Tolimán	10	San Lucas Tolimán	1	Enero	2023-01-15T00:00:00	2024-11-08T10:00:00	6	Velocidad del viento	8
100998	7	Sololá	713	San Lucas Tolimán	10	San Lucas Tolimán	1	Enero	2023-01-15T00:00:00	2024-11-08T10:00:00	7	Dirección del viento	8.05
100999	7	Sololá	713	San Lucas Tolimán	10	San Lucas Tolimán	1	Enero	2023-01-15T00:00:00	2024-11-08T10:00:00	1	Precipitación	0
101000	7	Sololá	713	San Lucas Tolimán	10	San Lucas Tolimán	1	Enero	2023-01-15T00:00:00	2024-11-08T10:00:00	8	Radiación solar	611
101001	7	Sololá	713	San Lucas Tolimán	10	San Lucas Tolimán	1	Enero	2023-01-15T00:00:00	2024-11-08T11:00:00	2	Temperatura media	21.2
101002	7	Sololá	713	San Lucas Tolimán	10	San Lucas Tolimán	1	Enero	2023-01-15T00:00:00	2024-11-08T11:00:00	4	Temperatura máxima	21.2
101003	7	Sololá	713	San Lucas Tolimán	10	San Lucas Tolimán	1	Enero	2023-01-15T00:00:00	2024-11-08T11:00:00	3	Temperatura mínima	17.9
101004	7	Sololá	713	San Lucas Tolimán	10	San Lucas Tolimán	1	Enero	2023-01-15T00:00:00	2024-11-08T11:00:00	5	Humedad	38
101005	7	Sololá	713	San Lucas Tolimán	10	San Lucas Tolimán	1	Enero	2023-01-15T00:00:00	2024-11-08T11:00:00	6	Velocidad del viento	6.4
101006	7	Sololá	713	San Lucas Tolimán	10	San Lucas Tolimán	1	Enero	2023-01-15T00:00:00	2024-11-08T11:00:00	7	Dirección del viento	6.44
101007	7	Sololá	713	San Lucas Tolimán	10	San Lucas Tolimán	1	Enero	2023-01-15T00:00:00	2024-11-08T11:00:00	1	Precipitación	0
101008	7	Sololá	713	San Lucas Tolimán	10	San Lucas Tolimán	1	Enero	2023-01-15T00:00:00	2024-11-08T11:00:00	8	Radiación solar	778
101009	7	Sololá	713	San Lucas Tolimán	10	San Lucas Tolimán	1	Enero	2023-01-15T00:00:00	2024-11-08T12:00:00	2	Temperatura media	20.9
101010	7	Sololá	713	San Lucas Tolimán	10	San Lucas Tolimán	1	Enero	2023-01-15T00:00:00	2024-11-08T12:00:00	4	Temperatura máxima	22.6
101011	7	Sololá	713	San Lucas Tolimán	10	San Lucas Tolimán	1	Enero	2023-01-15T00:00:00	2024-11-08T12:00:00	3	Temperatura mínima	20.9
101012	7	Sololá	713	San Lucas Tolimán	10	San Lucas Tolimán	1	Enero	2023-01-15T00:00:00	2024-11-08T12:00:00	5	Humedad	45
101013	7	Sololá	713	San Lucas Tolimán	10	San Lucas Tolimán	1	Enero	2023-01-15T00:00:00	2024-11-08T12:00:00	6	Velocidad del viento	11.3
101014	7	Sololá	713	San Lucas Tolimán	10	San Lucas Tolimán	1	Enero	2023-01-15T00:00:00	2024-11-08T12:00:00	7	Dirección del viento	11.27
101015	7	Sololá	713	San Lucas Tolimán	10	San Lucas Tolimán	1	Enero	2023-01-15T00:00:00	2024-11-08T12:00:00	1	Precipitación	0
101016	7	Sololá	713	San Lucas Tolimán	10	San Lucas Tolimán	1	Enero	2023-01-15T00:00:00	2024-11-08T12:00:00	8	Radiación solar	881
101017	7	Sololá	713	San Lucas Tolimán	10	San Lucas Tolimán	1	Enero	2023-01-15T00:00:00	2024-11-08T13:00:00	2	Temperatura media	20.7
101018	7	Sololá	713	San Lucas Tolimán	10	San Lucas Tolimán	1	Enero	2023-01-15T00:00:00	2024-11-08T13:00:00	4	Temperatura máxima	21.6
101019	7	Sololá	713	San Lucas Tolimán	10	San Lucas Tolimán	1	Enero	2023-01-15T00:00:00	2024-11-08T13:00:00	3	Temperatura mínima	20.3
101020	7	Sololá	713	San Lucas Tolimán	10	San Lucas Tolimán	1	Enero	2023-01-15T00:00:00	2024-11-08T13:00:00	5	Humedad	51
101021	7	Sololá	713	San Lucas Tolimán	10	San Lucas Tolimán	1	Enero	2023-01-15T00:00:00	2024-11-08T13:00:00	6	Velocidad del viento	16.1
101022	7	Sololá	713	San Lucas Tolimán	10	San Lucas Tolimán	1	Enero	2023-01-15T00:00:00	2024-11-08T13:00:00	7	Dirección del viento	16.09
101023	7	Sololá	713	San Lucas Tolimán	10	San Lucas Tolimán	1	Enero	2023-01-15T00:00:00	2024-11-08T13:00:00	1	Precipitación	0
101024	7	Sololá	713	San Lucas Tolimán	10	San Lucas Tolimán	1	Enero	2023-01-15T00:00:00	2024-11-08T13:00:00	8	Radiación solar	897
101025	7	Sololá	713	San Lucas Tolimán	10	San Lucas Tolimán	1	Enero	2023-01-15T00:00:00	2024-11-08T14:00:00	2	Temperatura media	20.7
101026	7	Sololá	713	San Lucas Tolimán	10	San Lucas Tolimán	1	Enero	2023-01-15T00:00:00	2024-11-08T14:00:00	4	Temperatura máxima	21
101027	7	Sololá	713	San Lucas Tolimán	10	San Lucas Tolimán	1	Enero	2023-01-15T00:00:00	2024-11-08T14:00:00	3	Temperatura mínima	20.3
101028	7	Sololá	713	San Lucas Tolimán	10	San Lucas Tolimán	1	Enero	2023-01-15T00:00:00	2024-11-08T14:00:00	5	Humedad	54
101029	7	Sololá	713	San Lucas Tolimán	10	San Lucas Tolimán	1	Enero	2023-01-15T00:00:00	2024-11-08T14:00:00	6	Velocidad del viento	14.5
101030	7	Sololá	713	San Lucas Tolimán	10	San Lucas Tolimán	1	Enero	2023-01-15T00:00:00	2024-11-08T14:00:00	7	Dirección del viento	14.48
101031	7	Sololá	713	San Lucas Tolimán	10	San Lucas Tolimán	1	Enero	2023-01-15T00:00:00	2024-11-08T14:00:00	1	Precipitación	0
101032	7	Sololá	713	San Lucas Tolimán	10	San Lucas Tolimán	1	Enero	2023-01-15T00:00:00	2024-11-08T14:00:00	8	Radiación solar	847
101033	7	Sololá	713	San Lucas Tolimán	10	San Lucas Tolimán	1	Enero	2023-01-15T00:00:00	2024-11-08T15:00:00	2	Temperatura media	20.8
101034	7	Sololá	713	San Lucas Tolimán	10	San Lucas Tolimán	1	Enero	2023-01-15T00:00:00	2024-11-08T15:00:00	4	Temperatura máxima	21.4
101035	7	Sololá	713	San Lucas Tolimán	10	San Lucas Tolimán	1	Enero	2023-01-15T00:00:00	2024-11-08T15:00:00	3	Temperatura mínima	20.4
101036	7	Sololá	713	San Lucas Tolimán	10	San Lucas Tolimán	1	Enero	2023-01-15T00:00:00	2024-11-08T15:00:00	5	Humedad	55
101037	7	Sololá	713	San Lucas Tolimán	10	San Lucas Tolimán	1	Enero	2023-01-15T00:00:00	2024-11-08T15:00:00	6	Velocidad del viento	12.9
101038	7	Sololá	713	San Lucas Tolimán	10	San Lucas Tolimán	1	Enero	2023-01-15T00:00:00	2024-11-08T15:00:00	7	Dirección del viento	12.87
101039	7	Sololá	713	San Lucas Tolimán	10	San Lucas Tolimán	1	Enero	2023-01-15T00:00:00	2024-11-08T15:00:00	1	Precipitación	0
101040	7	Sololá	713	San Lucas Tolimán	10	San Lucas Tolimán	1	Enero	2023-01-15T00:00:00	2024-11-08T15:00:00	8	Radiación solar	760
101041	7	Sololá	713	San Lucas Tolimán	10	San Lucas Tolimán	1	Enero	2023-01-15T00:00:00	2024-11-08T16:00:00	2	Temperatura media	18.8
101042	7	Sololá	713	San Lucas Tolimán	10	San Lucas Tolimán	1	Enero	2023-01-15T00:00:00	2024-11-08T16:00:00	4	Temperatura máxima	20.8
101043	7	Sololá	713	San Lucas Tolimán	10	San Lucas Tolimán	1	Enero	2023-01-15T00:00:00	2024-11-08T16:00:00	3	Temperatura mínima	18.8
101044	7	Sololá	713	San Lucas Tolimán	10	San Lucas Tolimán	1	Enero	2023-01-15T00:00:00	2024-11-08T16:00:00	5	Humedad	61
101045	7	Sololá	713	San Lucas Tolimán	10	San Lucas Tolimán	1	Enero	2023-01-15T00:00:00	2024-11-08T16:00:00	6	Velocidad del viento	14.5
101046	7	Sololá	713	San Lucas Tolimán	10	San Lucas Tolimán	1	Enero	2023-01-15T00:00:00	2024-11-08T16:00:00	7	Dirección del viento	14.48
101047	7	Sololá	713	San Lucas Tolimán	10	San Lucas Tolimán	1	Enero	2023-01-15T00:00:00	2024-11-08T16:00:00	1	Precipitación	0
101048	7	Sololá	713	San Lucas Tolimán	10	San Lucas Tolimán	1	Enero	2023-01-15T00:00:00	2024-11-08T16:00:00	8	Radiación solar	309
101049	7	Sololá	713	San Lucas Tolimán	10	San Lucas Tolimán	1	Enero	2023-01-15T00:00:00	2024-11-08T17:00:00	2	Temperatura media	17.9
101050	7	Sololá	713	San Lucas Tolimán	10	San Lucas Tolimán	1	Enero	2023-01-15T00:00:00	2024-11-08T17:00:00	4	Temperatura máxima	18.8
101051	7	Sololá	713	San Lucas Tolimán	10	San Lucas Tolimán	1	Enero	2023-01-15T00:00:00	2024-11-08T17:00:00	3	Temperatura mínima	17.9
101052	7	Sololá	713	San Lucas Tolimán	10	San Lucas Tolimán	1	Enero	2023-01-15T00:00:00	2024-11-08T17:00:00	5	Humedad	63
101053	7	Sololá	713	San Lucas Tolimán	10	San Lucas Tolimán	1	Enero	2023-01-15T00:00:00	2024-11-08T17:00:00	6	Velocidad del viento	11.3
101054	7	Sololá	713	San Lucas Tolimán	10	San Lucas Tolimán	1	Enero	2023-01-15T00:00:00	2024-11-08T17:00:00	7	Dirección del viento	11.27
101055	7	Sololá	713	San Lucas Tolimán	10	San Lucas Tolimán	1	Enero	2023-01-15T00:00:00	2024-11-08T17:00:00	1	Precipitación	0
101056	7	Sololá	713	San Lucas Tolimán	10	San Lucas Tolimán	1	Enero	2023-01-15T00:00:00	2024-11-08T17:00:00	8	Radiación solar	60
101057	7	Sololá	713	San Lucas Tolimán	10	San Lucas Tolimán	1	Enero	2023-01-15T00:00:00	2024-11-08T18:00:00	2	Temperatura media	17.3
101058	7	Sololá	713	San Lucas Tolimán	10	San Lucas Tolimán	1	Enero	2023-01-15T00:00:00	2024-11-08T18:00:00	4	Temperatura máxima	18
101059	7	Sololá	713	San Lucas Tolimán	10	San Lucas Tolimán	1	Enero	2023-01-15T00:00:00	2024-11-08T18:00:00	3	Temperatura mínima	17.3
101060	7	Sololá	713	San Lucas Tolimán	10	San Lucas Tolimán	1	Enero	2023-01-15T00:00:00	2024-11-08T18:00:00	5	Humedad	63
101061	7	Sololá	713	San Lucas Tolimán	10	San Lucas Tolimán	1	Enero	2023-01-15T00:00:00	2024-11-08T18:00:00	6	Velocidad del viento	9.7
101062	7	Sololá	713	San Lucas Tolimán	10	San Lucas Tolimán	1	Enero	2023-01-15T00:00:00	2024-11-08T18:00:00	7	Dirección del viento	9.66
101063	7	Sololá	713	San Lucas Tolimán	10	San Lucas Tolimán	1	Enero	2023-01-15T00:00:00	2024-11-08T18:00:00	1	Precipitación	0
101064	7	Sololá	713	San Lucas Tolimán	10	San Lucas Tolimán	1	Enero	2023-01-15T00:00:00	2024-11-08T18:00:00	8	Radiación solar	13
101065	7	Sololá	713	San Lucas Tolimán	10	San Lucas Tolimán	1	Enero	2023-01-15T00:00:00	2024-11-08T19:00:00	2	Temperatura media	16.7
101066	7	Sololá	713	San Lucas Tolimán	10	San Lucas Tolimán	1	Enero	2023-01-15T00:00:00	2024-11-08T19:00:00	4	Temperatura máxima	17.3
101067	7	Sololá	713	San Lucas Tolimán	10	San Lucas Tolimán	1	Enero	2023-01-15T00:00:00	2024-11-08T19:00:00	3	Temperatura mínima	16.7
101068	7	Sololá	713	San Lucas Tolimán	10	San Lucas Tolimán	1	Enero	2023-01-15T00:00:00	2024-11-08T19:00:00	5	Humedad	63
101069	7	Sololá	713	San Lucas Tolimán	10	San Lucas Tolimán	1	Enero	2023-01-15T00:00:00	2024-11-08T19:00:00	6	Velocidad del viento	6.4
101070	7	Sololá	713	San Lucas Tolimán	10	San Lucas Tolimán	1	Enero	2023-01-15T00:00:00	2024-11-08T19:00:00	7	Dirección del viento	6.44
101071	7	Sololá	713	San Lucas Tolimán	10	San Lucas Tolimán	1	Enero	2023-01-15T00:00:00	2024-11-08T19:00:00	1	Precipitación	0
101072	7	Sololá	713	San Lucas Tolimán	10	San Lucas Tolimán	1	Enero	2023-01-15T00:00:00	2024-11-08T19:00:00	8	Radiación solar	0
101073	7	Sololá	713	San Lucas Tolimán	10	San Lucas Tolimán	1	Enero	2023-01-15T00:00:00	2024-11-08T20:00:00	2	Temperatura media	16.2
101074	7	Sololá	713	San Lucas Tolimán	10	San Lucas Tolimán	1	Enero	2023-01-15T00:00:00	2024-11-08T20:00:00	4	Temperatura máxima	16.7
101075	7	Sololá	713	San Lucas Tolimán	10	San Lucas Tolimán	1	Enero	2023-01-15T00:00:00	2024-11-08T20:00:00	3	Temperatura mínima	15.9
101076	7	Sololá	713	San Lucas Tolimán	10	San Lucas Tolimán	1	Enero	2023-01-15T00:00:00	2024-11-08T20:00:00	5	Humedad	61
101077	7	Sololá	713	San Lucas Tolimán	10	San Lucas Tolimán	1	Enero	2023-01-15T00:00:00	2024-11-08T20:00:00	6	Velocidad del viento	3.2
101078	7	Sololá	713	San Lucas Tolimán	10	San Lucas Tolimán	1	Enero	2023-01-15T00:00:00	2024-11-08T20:00:00	7	Dirección del viento	3.22
101079	7	Sololá	713	San Lucas Tolimán	10	San Lucas Tolimán	1	Enero	2023-01-15T00:00:00	2024-11-08T20:00:00	1	Precipitación	0
101080	7	Sololá	713	San Lucas Tolimán	10	San Lucas Tolimán	1	Enero	2023-01-15T00:00:00	2024-11-08T20:00:00	8	Radiación solar	0
101081	7	Sololá	713	San Lucas Tolimán	10	San Lucas Tolimán	1	Enero	2023-01-15T00:00:00	2024-11-08T21:00:00	2	Temperatura media	15.4
101082	7	Sololá	713	San Lucas Tolimán	10	San Lucas Tolimán	1	Enero	2023-01-15T00:00:00	2024-11-08T21:00:00	4	Temperatura máxima	16.3
101083	7	Sololá	713	San Lucas Tolimán	10	San Lucas Tolimán	1	Enero	2023-01-15T00:00:00	2024-11-08T21:00:00	3	Temperatura mínima	15.4
101084	7	Sololá	713	San Lucas Tolimán	10	San Lucas Tolimán	1	Enero	2023-01-15T00:00:00	2024-11-08T21:00:00	5	Humedad	60
101085	7	Sololá	713	San Lucas Tolimán	10	San Lucas Tolimán	1	Enero	2023-01-15T00:00:00	2024-11-08T21:00:00	6	Velocidad del viento	3.2
101086	7	Sololá	713	San Lucas Tolimán	10	San Lucas Tolimán	1	Enero	2023-01-15T00:00:00	2024-11-08T21:00:00	7	Dirección del viento	3.22
101087	7	Sololá	713	San Lucas Tolimán	10	San Lucas Tolimán	1	Enero	2023-01-15T00:00:00	2024-11-08T21:00:00	1	Precipitación	0
101088	7	Sololá	713	San Lucas Tolimán	10	San Lucas Tolimán	1	Enero	2023-01-15T00:00:00	2024-11-08T21:00:00	8	Radiación solar	0
101089	7	Sololá	713	San Lucas Tolimán	10	San Lucas Tolimán	1	Enero	2023-01-15T00:00:00	2024-11-08T22:00:00	2	Temperatura media	15.7
101090	7	Sololá	713	San Lucas Tolimán	10	San Lucas Tolimán	1	Enero	2023-01-15T00:00:00	2024-11-08T22:00:00	4	Temperatura máxima	15.7
101091	7	Sololá	713	San Lucas Tolimán	10	San Lucas Tolimán	1	Enero	2023-01-15T00:00:00	2024-11-08T22:00:00	3	Temperatura mínima	15
101092	7	Sololá	713	San Lucas Tolimán	10	San Lucas Tolimán	1	Enero	2023-01-15T00:00:00	2024-11-08T22:00:00	5	Humedad	60
101093	7	Sololá	713	San Lucas Tolimán	10	San Lucas Tolimán	1	Enero	2023-01-15T00:00:00	2024-11-08T22:00:00	6	Velocidad del viento	1.6
101094	7	Sololá	713	San Lucas Tolimán	10	San Lucas Tolimán	1	Enero	2023-01-15T00:00:00	2024-11-08T22:00:00	7	Dirección del viento	1.61
101095	7	Sololá	713	San Lucas Tolimán	10	San Lucas Tolimán	1	Enero	2023-01-15T00:00:00	2024-11-08T22:00:00	1	Precipitación	0
101096	7	Sololá	713	San Lucas Tolimán	10	San Lucas Tolimán	1	Enero	2023-01-15T00:00:00	2024-11-08T22:00:00	8	Radiación solar	0
101097	7	Sololá	713	San Lucas Tolimán	10	San Lucas Tolimán	1	Enero	2023-01-15T00:00:00	2024-11-08T23:00:00	2	Temperatura media	15.2
101098	7	Sololá	713	San Lucas Tolimán	10	San Lucas Tolimán	1	Enero	2023-01-15T00:00:00	2024-11-08T23:00:00	4	Temperatura máxima	15.7
101099	7	Sololá	713	San Lucas Tolimán	10	San Lucas Tolimán	1	Enero	2023-01-15T00:00:00	2024-11-08T23:00:00	3	Temperatura mínima	15.2
101100	7	Sololá	713	San Lucas Tolimán	10	San Lucas Tolimán	1	Enero	2023-01-15T00:00:00	2024-11-08T23:00:00	5	Humedad	61
101101	7	Sololá	713	San Lucas Tolimán	10	San Lucas Tolimán	1	Enero	2023-01-15T00:00:00	2024-11-08T23:00:00	6	Velocidad del viento	1.6
101102	7	Sololá	713	San Lucas Tolimán	10	San Lucas Tolimán	1	Enero	2023-01-15T00:00:00	2024-11-08T23:00:00	7	Dirección del viento	1.61
101103	7	Sololá	713	San Lucas Tolimán	10	San Lucas Tolimán	1	Enero	2023-01-15T00:00:00	2024-11-08T23:00:00	1	Precipitación	0
101104	7	Sololá	713	San Lucas Tolimán	10	San Lucas Tolimán	1	Enero	2023-01-15T00:00:00	2024-11-08T23:00:00	8	Radiación solar	0
101105	7	Sololá	713	San Lucas Tolimán	10	San Lucas Tolimán	1	Enero	2023-01-16T00:00:00	2024-11-08T00:00:00	2	Temperatura media	13.9
101106	7	Sololá	713	San Lucas Tolimán	10	San Lucas Tolimán	1	Enero	2023-01-16T00:00:00	2024-11-08T00:00:00	4	Temperatura máxima	15.2
101107	7	Sololá	713	San Lucas Tolimán	10	San Lucas Tolimán	1	Enero	2023-01-16T00:00:00	2024-11-08T00:00:00	3	Temperatura mínima	13.9
101108	7	Sololá	713	San Lucas Tolimán	10	San Lucas Tolimán	1	Enero	2023-01-16T00:00:00	2024-11-08T00:00:00	5	Humedad	61
101109	7	Sololá	713	San Lucas Tolimán	10	San Lucas Tolimán	1	Enero	2023-01-16T00:00:00	2024-11-08T00:00:00	6	Velocidad del viento	1.6
101110	7	Sololá	713	San Lucas Tolimán	10	San Lucas Tolimán	1	Enero	2023-01-16T00:00:00	2024-11-08T00:00:00	7	Dirección del viento	1.61
101111	7	Sololá	713	San Lucas Tolimán	10	San Lucas Tolimán	1	Enero	2023-01-16T00:00:00	2024-11-08T00:00:00	1	Precipitación	0
101112	7	Sololá	713	San Lucas Tolimán	10	San Lucas Tolimán	1	Enero	2023-01-16T00:00:00	2024-11-08T00:00:00	8	Radiación solar	0
101113	7	Sololá	713	San Lucas Tolimán	10	San Lucas Tolimán	1	Enero	2023-01-16T00:00:00	2024-11-08T01:00:00	2	Temperatura media	12.8
101114	7	Sololá	713	San Lucas Tolimán	10	San Lucas Tolimán	1	Enero	2023-01-16T00:00:00	2024-11-08T01:00:00	4	Temperatura máxima	13.9
101115	7	Sololá	713	San Lucas Tolimán	10	San Lucas Tolimán	1	Enero	2023-01-16T00:00:00	2024-11-08T01:00:00	3	Temperatura mínima	12.8
101116	7	Sololá	713	San Lucas Tolimán	10	San Lucas Tolimán	1	Enero	2023-01-16T00:00:00	2024-11-08T01:00:00	5	Humedad	60
101117	7	Sololá	713	San Lucas Tolimán	10	San Lucas Tolimán	1	Enero	2023-01-16T00:00:00	2024-11-08T01:00:00	6	Velocidad del viento	3.2
101118	7	Sololá	713	San Lucas Tolimán	10	San Lucas Tolimán	1	Enero	2023-01-16T00:00:00	2024-11-08T01:00:00	7	Dirección del viento	3.22
101119	7	Sololá	713	San Lucas Tolimán	10	San Lucas Tolimán	1	Enero	2023-01-16T00:00:00	2024-11-08T01:00:00	1	Precipitación	0
101120	7	Sololá	713	San Lucas Tolimán	10	San Lucas Tolimán	1	Enero	2023-01-16T00:00:00	2024-11-08T01:00:00	8	Radiación solar	0
101121	7	Sololá	713	San Lucas Tolimán	10	San Lucas Tolimán	1	Enero	2023-01-16T00:00:00	2024-11-08T02:00:00	2	Temperatura media	12.4
101122	7	Sololá	713	San Lucas Tolimán	10	San Lucas Tolimán	1	Enero	2023-01-16T00:00:00	2024-11-08T02:00:00	4	Temperatura máxima	12.8
101123	7	Sololá	713	San Lucas Tolimán	10	San Lucas Tolimán	1	Enero	2023-01-16T00:00:00	2024-11-08T02:00:00	3	Temperatura mínima	12.4
101124	7	Sololá	713	San Lucas Tolimán	10	San Lucas Tolimán	1	Enero	2023-01-16T00:00:00	2024-11-08T02:00:00	5	Humedad	60
101125	7	Sololá	713	San Lucas Tolimán	10	San Lucas Tolimán	1	Enero	2023-01-16T00:00:00	2024-11-08T02:00:00	6	Velocidad del viento	3.2
101126	7	Sololá	713	San Lucas Tolimán	10	San Lucas Tolimán	1	Enero	2023-01-16T00:00:00	2024-11-08T02:00:00	7	Dirección del viento	3.22
101127	7	Sololá	713	San Lucas Tolimán	10	San Lucas Tolimán	1	Enero	2023-01-16T00:00:00	2024-11-08T02:00:00	1	Precipitación	0
101128	7	Sololá	713	San Lucas Tolimán	10	San Lucas Tolimán	1	Enero	2023-01-16T00:00:00	2024-11-08T02:00:00	8	Radiación solar	0
101129	7	Sololá	713	San Lucas Tolimán	10	San Lucas Tolimán	1	Enero	2023-01-16T00:00:00	2024-11-08T03:00:00	2	Temperatura media	13.1
101130	7	Sololá	713	San Lucas Tolimán	10	San Lucas Tolimán	1	Enero	2023-01-16T00:00:00	2024-11-08T03:00:00	4	Temperatura máxima	13.2
101131	7	Sololá	713	San Lucas Tolimán	10	San Lucas Tolimán	1	Enero	2023-01-16T00:00:00	2024-11-08T03:00:00	3	Temperatura mínima	12.4
101132	7	Sololá	713	San Lucas Tolimán	10	San Lucas Tolimán	1	Enero	2023-01-16T00:00:00	2024-11-08T03:00:00	5	Humedad	58
101133	7	Sololá	713	San Lucas Tolimán	10	San Lucas Tolimán	1	Enero	2023-01-16T00:00:00	2024-11-08T03:00:00	6	Velocidad del viento	0
101134	7	Sololá	713	San Lucas Tolimán	10	San Lucas Tolimán	1	Enero	2023-01-16T00:00:00	2024-11-08T03:00:00	7	Dirección del viento	0
101135	7	Sololá	713	San Lucas Tolimán	10	San Lucas Tolimán	1	Enero	2023-01-16T00:00:00	2024-11-08T03:00:00	1	Precipitación	0
101136	7	Sololá	713	San Lucas Tolimán	10	San Lucas Tolimán	1	Enero	2023-01-16T00:00:00	2024-11-08T03:00:00	8	Radiación solar	0
101137	7	Sololá	713	San Lucas Tolimán	10	San Lucas Tolimán	1	Enero	2023-01-16T00:00:00	2024-11-08T04:00:00	2	Temperatura media	11.8
101138	7	Sololá	713	San Lucas Tolimán	10	San Lucas Tolimán	1	Enero	2023-01-16T00:00:00	2024-11-08T04:00:00	4	Temperatura máxima	13.1
101139	7	Sololá	713	San Lucas Tolimán	10	San Lucas Tolimán	1	Enero	2023-01-16T00:00:00	2024-11-08T04:00:00	3	Temperatura mínima	11.8
101140	7	Sololá	713	San Lucas Tolimán	10	San Lucas Tolimán	1	Enero	2023-01-16T00:00:00	2024-11-08T04:00:00	5	Humedad	62
101141	7	Sololá	713	San Lucas Tolimán	10	San Lucas Tolimán	1	Enero	2023-01-16T00:00:00	2024-11-08T04:00:00	6	Velocidad del viento	1.6
101142	7	Sololá	713	San Lucas Tolimán	10	San Lucas Tolimán	1	Enero	2023-01-16T00:00:00	2024-11-08T04:00:00	7	Dirección del viento	1.61
101143	7	Sololá	713	San Lucas Tolimán	10	San Lucas Tolimán	1	Enero	2023-01-16T00:00:00	2024-11-08T04:00:00	1	Precipitación	0
101144	7	Sololá	713	San Lucas Tolimán	10	San Lucas Tolimán	1	Enero	2023-01-16T00:00:00	2024-11-08T04:00:00	8	Radiación solar	0
101145	7	Sololá	713	San Lucas Tolimán	10	San Lucas Tolimán	1	Enero	2023-01-16T00:00:00	2024-11-08T05:00:00	2	Temperatura media	12.1
101146	7	Sololá	713	San Lucas Tolimán	10	San Lucas Tolimán	1	Enero	2023-01-16T00:00:00	2024-11-08T05:00:00	4	Temperatura máxima	12.2
101147	7	Sololá	713	San Lucas Tolimán	10	San Lucas Tolimán	1	Enero	2023-01-16T00:00:00	2024-11-08T05:00:00	3	Temperatura mínima	11.6
101148	7	Sololá	713	San Lucas Tolimán	10	San Lucas Tolimán	1	Enero	2023-01-16T00:00:00	2024-11-08T05:00:00	5	Humedad	61
101149	7	Sololá	713	San Lucas Tolimán	10	San Lucas Tolimán	1	Enero	2023-01-16T00:00:00	2024-11-08T05:00:00	6	Velocidad del viento	1.6
101150	7	Sololá	713	San Lucas Tolimán	10	San Lucas Tolimán	1	Enero	2023-01-16T00:00:00	2024-11-08T05:00:00	7	Dirección del viento	1.61
101151	7	Sololá	713	San Lucas Tolimán	10	San Lucas Tolimán	1	Enero	2023-01-16T00:00:00	2024-11-08T05:00:00	1	Precipitación	0
101152	7	Sololá	713	San Lucas Tolimán	10	San Lucas Tolimán	1	Enero	2023-01-16T00:00:00	2024-11-08T05:00:00	8	Radiación solar	0
101153	7	Sololá	713	San Lucas Tolimán	10	San Lucas Tolimán	1	Enero	2023-01-16T00:00:00	2024-11-08T06:00:00	2	Temperatura media	13.7
101154	7	Sololá	713	San Lucas Tolimán	10	San Lucas Tolimán	1	Enero	2023-01-16T00:00:00	2024-11-08T06:00:00	4	Temperatura máxima	13.7
101155	7	Sololá	713	San Lucas Tolimán	10	San Lucas Tolimán	1	Enero	2023-01-16T00:00:00	2024-11-08T06:00:00	3	Temperatura mínima	12.1
101156	7	Sololá	713	San Lucas Tolimán	10	San Lucas Tolimán	1	Enero	2023-01-16T00:00:00	2024-11-08T06:00:00	5	Humedad	60
101157	7	Sololá	713	San Lucas Tolimán	10	San Lucas Tolimán	1	Enero	2023-01-16T00:00:00	2024-11-08T06:00:00	6	Velocidad del viento	1.6
101158	7	Sololá	713	San Lucas Tolimán	10	San Lucas Tolimán	1	Enero	2023-01-16T00:00:00	2024-11-08T06:00:00	7	Dirección del viento	1.61
101159	7	Sololá	713	San Lucas Tolimán	10	San Lucas Tolimán	1	Enero	2023-01-16T00:00:00	2024-11-08T06:00:00	1	Precipitación	0
101160	7	Sololá	713	San Lucas Tolimán	10	San Lucas Tolimán	1	Enero	2023-01-16T00:00:00	2024-11-08T06:00:00	8	Radiación solar	0
101161	7	Sololá	713	San Lucas Tolimán	10	San Lucas Tolimán	1	Enero	2023-01-16T00:00:00	2024-11-08T07:00:00	2	Temperatura media	13.2
101162	7	Sololá	713	San Lucas Tolimán	10	San Lucas Tolimán	1	Enero	2023-01-16T00:00:00	2024-11-08T07:00:00	4	Temperatura máxima	13.8
101163	7	Sololá	713	San Lucas Tolimán	10	San Lucas Tolimán	1	Enero	2023-01-16T00:00:00	2024-11-08T07:00:00	3	Temperatura mínima	12.8
101164	7	Sololá	713	San Lucas Tolimán	10	San Lucas Tolimán	1	Enero	2023-01-16T00:00:00	2024-11-08T07:00:00	5	Humedad	60
101165	7	Sololá	713	San Lucas Tolimán	10	San Lucas Tolimán	1	Enero	2023-01-16T00:00:00	2024-11-08T07:00:00	6	Velocidad del viento	0
101166	7	Sololá	713	San Lucas Tolimán	10	San Lucas Tolimán	1	Enero	2023-01-16T00:00:00	2024-11-08T07:00:00	7	Dirección del viento	0
101167	7	Sololá	713	San Lucas Tolimán	10	San Lucas Tolimán	1	Enero	2023-01-16T00:00:00	2024-11-08T07:00:00	1	Precipitación	0
101168	7	Sololá	713	San Lucas Tolimán	10	San Lucas Tolimán	1	Enero	2023-01-16T00:00:00	2024-11-08T07:00:00	8	Radiación solar	5
101169	7	Sololá	713	San Lucas Tolimán	10	San Lucas Tolimán	1	Enero	2023-01-16T00:00:00	2024-11-08T08:00:00	2	Temperatura media	14.3
101170	7	Sololá	713	San Lucas Tolimán	10	San Lucas Tolimán	1	Enero	2023-01-16T00:00:00	2024-11-08T08:00:00	4	Temperatura máxima	14.3
101171	7	Sololá	713	San Lucas Tolimán	10	San Lucas Tolimán	1	Enero	2023-01-16T00:00:00	2024-11-08T08:00:00	3	Temperatura mínima	13.2
101172	7	Sololá	713	San Lucas Tolimán	10	San Lucas Tolimán	1	Enero	2023-01-16T00:00:00	2024-11-08T08:00:00	5	Humedad	58
101173	7	Sololá	713	San Lucas Tolimán	10	San Lucas Tolimán	1	Enero	2023-01-16T00:00:00	2024-11-08T08:00:00	6	Velocidad del viento	1.6
101174	7	Sololá	713	San Lucas Tolimán	10	San Lucas Tolimán	1	Enero	2023-01-16T00:00:00	2024-11-08T08:00:00	7	Dirección del viento	1.61
101175	7	Sololá	713	San Lucas Tolimán	10	San Lucas Tolimán	1	Enero	2023-01-16T00:00:00	2024-11-08T08:00:00	1	Precipitación	0
101176	7	Sololá	713	San Lucas Tolimán	10	San Lucas Tolimán	1	Enero	2023-01-16T00:00:00	2024-11-08T08:00:00	8	Radiación solar	26
101177	7	Sololá	713	San Lucas Tolimán	10	San Lucas Tolimán	1	Enero	2023-01-16T00:00:00	2024-11-08T09:00:00	2	Temperatura media	16.9
101178	7	Sololá	713	San Lucas Tolimán	10	San Lucas Tolimán	1	Enero	2023-01-16T00:00:00	2024-11-08T09:00:00	4	Temperatura máxima	16.9
101179	7	Sololá	713	San Lucas Tolimán	10	San Lucas Tolimán	1	Enero	2023-01-16T00:00:00	2024-11-08T09:00:00	3	Temperatura mínima	14.3
101180	7	Sololá	713	San Lucas Tolimán	10	San Lucas Tolimán	1	Enero	2023-01-16T00:00:00	2024-11-08T09:00:00	5	Humedad	56
101181	7	Sololá	713	San Lucas Tolimán	10	San Lucas Tolimán	1	Enero	2023-01-16T00:00:00	2024-11-08T09:00:00	6	Velocidad del viento	3.2
101182	7	Sololá	713	San Lucas Tolimán	10	San Lucas Tolimán	1	Enero	2023-01-16T00:00:00	2024-11-08T09:00:00	7	Dirección del viento	3.22
101183	7	Sololá	713	San Lucas Tolimán	10	San Lucas Tolimán	1	Enero	2023-01-16T00:00:00	2024-11-08T09:00:00	1	Precipitación	0
101184	7	Sololá	713	San Lucas Tolimán	10	San Lucas Tolimán	1	Enero	2023-01-16T00:00:00	2024-11-08T09:00:00	8	Radiación solar	277
101185	7	Sololá	713	San Lucas Tolimán	10	San Lucas Tolimán	1	Enero	2023-01-16T00:00:00	2024-11-08T10:00:00	2	Temperatura media	19.4
101186	7	Sololá	713	San Lucas Tolimán	10	San Lucas Tolimán	1	Enero	2023-01-16T00:00:00	2024-11-08T10:00:00	4	Temperatura máxima	19.4
101187	7	Sololá	713	San Lucas Tolimán	10	San Lucas Tolimán	1	Enero	2023-01-16T00:00:00	2024-11-08T10:00:00	3	Temperatura mínima	16.9
101188	7	Sololá	713	San Lucas Tolimán	10	San Lucas Tolimán	1	Enero	2023-01-16T00:00:00	2024-11-08T10:00:00	5	Humedad	48
101189	7	Sololá	713	San Lucas Tolimán	10	San Lucas Tolimán	1	Enero	2023-01-16T00:00:00	2024-11-08T10:00:00	6	Velocidad del viento	4.8
101190	7	Sololá	713	San Lucas Tolimán	10	San Lucas Tolimán	1	Enero	2023-01-16T00:00:00	2024-11-08T10:00:00	7	Dirección del viento	4.83
101191	7	Sololá	713	San Lucas Tolimán	10	San Lucas Tolimán	1	Enero	2023-01-16T00:00:00	2024-11-08T10:00:00	1	Precipitación	0
101192	7	Sololá	713	San Lucas Tolimán	10	San Lucas Tolimán	1	Enero	2023-01-16T00:00:00	2024-11-08T10:00:00	8	Radiación solar	603
101193	7	Sololá	713	San Lucas Tolimán	10	San Lucas Tolimán	1	Enero	2023-01-16T00:00:00	2024-11-08T11:00:00	2	Temperatura media	21.2
101194	7	Sololá	713	San Lucas Tolimán	10	San Lucas Tolimán	1	Enero	2023-01-16T00:00:00	2024-11-08T11:00:00	4	Temperatura máxima	21.3
101195	7	Sololá	713	San Lucas Tolimán	10	San Lucas Tolimán	1	Enero	2023-01-16T00:00:00	2024-11-08T11:00:00	3	Temperatura mínima	19.4
101196	7	Sololá	713	San Lucas Tolimán	10	San Lucas Tolimán	1	Enero	2023-01-16T00:00:00	2024-11-08T11:00:00	5	Humedad	51
101197	7	Sololá	713	San Lucas Tolimán	10	San Lucas Tolimán	1	Enero	2023-01-16T00:00:00	2024-11-08T11:00:00	6	Velocidad del viento	6.4
101198	7	Sololá	713	San Lucas Tolimán	10	San Lucas Tolimán	1	Enero	2023-01-16T00:00:00	2024-11-08T11:00:00	7	Dirección del viento	6.44
101199	7	Sololá	713	San Lucas Tolimán	10	San Lucas Tolimán	1	Enero	2023-01-16T00:00:00	2024-11-08T11:00:00	1	Precipitación	0
101200	7	Sololá	713	San Lucas Tolimán	10	San Lucas Tolimán	1	Enero	2023-01-16T00:00:00	2024-11-08T11:00:00	8	Radiación solar	771
101201	7	Sololá	713	San Lucas Tolimán	10	San Lucas Tolimán	1	Enero	2023-01-16T00:00:00	2024-11-08T12:00:00	2	Temperatura media	20.7
101202	7	Sololá	713	San Lucas Tolimán	10	San Lucas Tolimán	1	Enero	2023-01-16T00:00:00	2024-11-08T12:00:00	4	Temperatura máxima	21.6
101203	7	Sololá	713	San Lucas Tolimán	10	San Lucas Tolimán	1	Enero	2023-01-16T00:00:00	2024-11-08T12:00:00	3	Temperatura mínima	20.6
101204	7	Sololá	713	San Lucas Tolimán	10	San Lucas Tolimán	1	Enero	2023-01-16T00:00:00	2024-11-08T12:00:00	5	Humedad	57
101205	7	Sololá	713	San Lucas Tolimán	10	San Lucas Tolimán	1	Enero	2023-01-16T00:00:00	2024-11-08T12:00:00	6	Velocidad del viento	11.3
101206	7	Sololá	713	San Lucas Tolimán	10	San Lucas Tolimán	1	Enero	2023-01-16T00:00:00	2024-11-08T12:00:00	7	Dirección del viento	11.27
101207	7	Sololá	713	San Lucas Tolimán	10	San Lucas Tolimán	1	Enero	2023-01-16T00:00:00	2024-11-08T12:00:00	1	Precipitación	0
101208	7	Sololá	713	San Lucas Tolimán	10	San Lucas Tolimán	1	Enero	2023-01-16T00:00:00	2024-11-08T12:00:00	8	Radiación solar	881
101209	7	Sololá	713	San Lucas Tolimán	10	San Lucas Tolimán	1	Enero	2023-01-16T00:00:00	2024-11-08T13:00:00	2	Temperatura media	19.7
101210	7	Sololá	713	San Lucas Tolimán	10	San Lucas Tolimán	1	Enero	2023-01-16T00:00:00	2024-11-08T13:00:00	4	Temperatura máxima	21.2
101211	7	Sololá	713	San Lucas Tolimán	10	San Lucas Tolimán	1	Enero	2023-01-16T00:00:00	2024-11-08T13:00:00	3	Temperatura mínima	19.7
101212	7	Sololá	713	San Lucas Tolimán	10	San Lucas Tolimán	1	Enero	2023-01-16T00:00:00	2024-11-08T13:00:00	5	Humedad	62
101213	7	Sololá	713	San Lucas Tolimán	10	San Lucas Tolimán	1	Enero	2023-01-16T00:00:00	2024-11-08T13:00:00	6	Velocidad del viento	11.3
101214	7	Sololá	713	San Lucas Tolimán	10	San Lucas Tolimán	1	Enero	2023-01-16T00:00:00	2024-11-08T13:00:00	7	Dirección del viento	11.27
101215	7	Sololá	713	San Lucas Tolimán	10	San Lucas Tolimán	1	Enero	2023-01-16T00:00:00	2024-11-08T13:00:00	1	Precipitación	0
101216	7	Sololá	713	San Lucas Tolimán	10	San Lucas Tolimán	1	Enero	2023-01-16T00:00:00	2024-11-08T13:00:00	8	Radiación solar	689
101217	7	Sololá	713	San Lucas Tolimán	10	San Lucas Tolimán	1	Enero	2023-01-16T00:00:00	2024-11-08T14:00:00	2	Temperatura media	20.5
101218	7	Sololá	713	San Lucas Tolimán	10	San Lucas Tolimán	1	Enero	2023-01-16T00:00:00	2024-11-08T14:00:00	4	Temperatura máxima	20.5
101219	7	Sololá	713	San Lucas Tolimán	10	San Lucas Tolimán	1	Enero	2023-01-16T00:00:00	2024-11-08T14:00:00	3	Temperatura mínima	18.9
101220	7	Sololá	713	San Lucas Tolimán	10	San Lucas Tolimán	1	Enero	2023-01-16T00:00:00	2024-11-08T14:00:00	5	Humedad	58
101221	7	Sololá	713	San Lucas Tolimán	10	San Lucas Tolimán	1	Enero	2023-01-16T00:00:00	2024-11-08T14:00:00	6	Velocidad del viento	9.7
101222	7	Sololá	713	San Lucas Tolimán	10	San Lucas Tolimán	1	Enero	2023-01-16T00:00:00	2024-11-08T14:00:00	7	Dirección del viento	9.66
101223	7	Sololá	713	San Lucas Tolimán	10	San Lucas Tolimán	1	Enero	2023-01-16T00:00:00	2024-11-08T14:00:00	1	Precipitación	0
101224	7	Sololá	713	San Lucas Tolimán	10	San Lucas Tolimán	1	Enero	2023-01-16T00:00:00	2024-11-08T14:00:00	8	Radiación solar	444
101225	7	Sololá	713	San Lucas Tolimán	10	San Lucas Tolimán	1	Enero	2023-01-16T00:00:00	2024-11-08T15:00:00	2	Temperatura media	19.7
101226	7	Sololá	713	San Lucas Tolimán	10	San Lucas Tolimán	1	Enero	2023-01-16T00:00:00	2024-11-08T15:00:00	4	Temperatura máxima	21.3
101227	7	Sololá	713	San Lucas Tolimán	10	San Lucas Tolimán	1	Enero	2023-01-16T00:00:00	2024-11-08T15:00:00	3	Temperatura mínima	19.7
101228	7	Sololá	713	San Lucas Tolimán	10	San Lucas Tolimán	1	Enero	2023-01-16T00:00:00	2024-11-08T15:00:00	5	Humedad	60
101229	7	Sololá	713	San Lucas Tolimán	10	San Lucas Tolimán	1	Enero	2023-01-16T00:00:00	2024-11-08T15:00:00	6	Velocidad del viento	9.7
101230	7	Sololá	713	San Lucas Tolimán	10	San Lucas Tolimán	1	Enero	2023-01-16T00:00:00	2024-11-08T15:00:00	7	Dirección del viento	9.66
101231	7	Sololá	713	San Lucas Tolimán	10	San Lucas Tolimán	1	Enero	2023-01-16T00:00:00	2024-11-08T15:00:00	1	Precipitación	0
101232	7	Sololá	713	San Lucas Tolimán	10	San Lucas Tolimán	1	Enero	2023-01-16T00:00:00	2024-11-08T15:00:00	8	Radiación solar	674
101233	7	Sololá	713	San Lucas Tolimán	10	San Lucas Tolimán	1	Enero	2023-01-16T00:00:00	2024-11-08T16:00:00	2	Temperatura media	19.8
101234	7	Sololá	713	San Lucas Tolimán	10	San Lucas Tolimán	1	Enero	2023-01-16T00:00:00	2024-11-08T16:00:00	4	Temperatura máxima	20.4
101235	7	Sololá	713	San Lucas Tolimán	10	San Lucas Tolimán	1	Enero	2023-01-16T00:00:00	2024-11-08T16:00:00	3	Temperatura mínima	19.3
101236	7	Sololá	713	San Lucas Tolimán	10	San Lucas Tolimán	1	Enero	2023-01-16T00:00:00	2024-11-08T16:00:00	5	Humedad	59
101237	7	Sololá	713	San Lucas Tolimán	10	San Lucas Tolimán	1	Enero	2023-01-16T00:00:00	2024-11-08T16:00:00	6	Velocidad del viento	11.3
101238	7	Sololá	713	San Lucas Tolimán	10	San Lucas Tolimán	1	Enero	2023-01-16T00:00:00	2024-11-08T16:00:00	7	Dirección del viento	11.27
101239	7	Sololá	713	San Lucas Tolimán	10	San Lucas Tolimán	1	Enero	2023-01-16T00:00:00	2024-11-08T16:00:00	1	Precipitación	0
101240	7	Sololá	713	San Lucas Tolimán	10	San Lucas Tolimán	1	Enero	2023-01-16T00:00:00	2024-11-08T16:00:00	8	Radiación solar	382
101241	7	Sololá	713	San Lucas Tolimán	10	San Lucas Tolimán	1	Enero	2023-01-16T00:00:00	2024-11-08T17:00:00	2	Temperatura media	18.3
101242	7	Sololá	713	San Lucas Tolimán	10	San Lucas Tolimán	1	Enero	2023-01-16T00:00:00	2024-11-08T17:00:00	4	Temperatura máxima	19.8
101243	7	Sololá	713	San Lucas Tolimán	10	San Lucas Tolimán	1	Enero	2023-01-16T00:00:00	2024-11-08T17:00:00	3	Temperatura mínima	18.3
101244	7	Sololá	713	San Lucas Tolimán	10	San Lucas Tolimán	1	Enero	2023-01-16T00:00:00	2024-11-08T17:00:00	5	Humedad	63
101245	7	Sololá	713	San Lucas Tolimán	10	San Lucas Tolimán	1	Enero	2023-01-16T00:00:00	2024-11-08T17:00:00	6	Velocidad del viento	12.9
101246	7	Sololá	713	San Lucas Tolimán	10	San Lucas Tolimán	1	Enero	2023-01-16T00:00:00	2024-11-08T17:00:00	7	Dirección del viento	12.87
101247	7	Sololá	713	San Lucas Tolimán	10	San Lucas Tolimán	1	Enero	2023-01-16T00:00:00	2024-11-08T17:00:00	1	Precipitación	0
101248	7	Sololá	713	San Lucas Tolimán	10	San Lucas Tolimán	1	Enero	2023-01-16T00:00:00	2024-11-08T17:00:00	8	Radiación solar	101
101249	7	Sololá	713	San Lucas Tolimán	10	San Lucas Tolimán	1	Enero	2023-01-16T00:00:00	2024-11-08T18:00:00	2	Temperatura media	17.5
101250	7	Sololá	713	San Lucas Tolimán	10	San Lucas Tolimán	1	Enero	2023-01-16T00:00:00	2024-11-08T18:00:00	4	Temperatura máxima	18.3
101251	7	Sololá	713	San Lucas Tolimán	10	San Lucas Tolimán	1	Enero	2023-01-16T00:00:00	2024-11-08T18:00:00	3	Temperatura mínima	17.4
101252	7	Sololá	713	San Lucas Tolimán	10	San Lucas Tolimán	1	Enero	2023-01-16T00:00:00	2024-11-08T18:00:00	5	Humedad	62
101253	7	Sololá	713	San Lucas Tolimán	10	San Lucas Tolimán	1	Enero	2023-01-16T00:00:00	2024-11-08T18:00:00	6	Velocidad del viento	8
101254	7	Sololá	713	San Lucas Tolimán	10	San Lucas Tolimán	1	Enero	2023-01-16T00:00:00	2024-11-08T18:00:00	7	Dirección del viento	8.05
101255	7	Sololá	713	San Lucas Tolimán	10	San Lucas Tolimán	1	Enero	2023-01-16T00:00:00	2024-11-08T18:00:00	1	Precipitación	0
101256	7	Sololá	713	San Lucas Tolimán	10	San Lucas Tolimán	1	Enero	2023-01-16T00:00:00	2024-11-08T18:00:00	8	Radiación solar	12
101257	7	Sololá	713	San Lucas Tolimán	10	San Lucas Tolimán	1	Enero	2023-01-16T00:00:00	2024-11-08T19:00:00	2	Temperatura media	17.4
101258	7	Sololá	713	San Lucas Tolimán	10	San Lucas Tolimán	1	Enero	2023-01-16T00:00:00	2024-11-08T19:00:00	4	Temperatura máxima	17.5
101259	7	Sololá	713	San Lucas Tolimán	10	San Lucas Tolimán	1	Enero	2023-01-16T00:00:00	2024-11-08T19:00:00	3	Temperatura mínima	17.3
101260	7	Sololá	713	San Lucas Tolimán	10	San Lucas Tolimán	1	Enero	2023-01-16T00:00:00	2024-11-08T19:00:00	5	Humedad	63
101261	7	Sololá	713	San Lucas Tolimán	10	San Lucas Tolimán	1	Enero	2023-01-16T00:00:00	2024-11-08T19:00:00	6	Velocidad del viento	6.4
101262	7	Sololá	713	San Lucas Tolimán	10	San Lucas Tolimán	1	Enero	2023-01-16T00:00:00	2024-11-08T19:00:00	7	Dirección del viento	6.44
101263	7	Sololá	713	San Lucas Tolimán	10	San Lucas Tolimán	1	Enero	2023-01-16T00:00:00	2024-11-08T19:00:00	1	Precipitación	0
101264	7	Sololá	713	San Lucas Tolimán	10	San Lucas Tolimán	1	Enero	2023-01-16T00:00:00	2024-11-08T19:00:00	8	Radiación solar	0
101265	7	Sololá	713	San Lucas Tolimán	10	San Lucas Tolimán	1	Enero	2023-01-16T00:00:00	2024-11-08T20:00:00	2	Temperatura media	17.2
101266	7	Sololá	713	San Lucas Tolimán	10	San Lucas Tolimán	1	Enero	2023-01-16T00:00:00	2024-11-08T20:00:00	4	Temperatura máxima	17.4
101267	7	Sololá	713	San Lucas Tolimán	10	San Lucas Tolimán	1	Enero	2023-01-16T00:00:00	2024-11-08T20:00:00	3	Temperatura mínima	17.1
101268	7	Sololá	713	San Lucas Tolimán	10	San Lucas Tolimán	1	Enero	2023-01-16T00:00:00	2024-11-08T20:00:00	5	Humedad	63
101269	7	Sololá	713	San Lucas Tolimán	10	San Lucas Tolimán	1	Enero	2023-01-16T00:00:00	2024-11-08T20:00:00	6	Velocidad del viento	4.8
101270	7	Sololá	713	San Lucas Tolimán	10	San Lucas Tolimán	1	Enero	2023-01-16T00:00:00	2024-11-08T20:00:00	7	Dirección del viento	4.83
101271	7	Sololá	713	San Lucas Tolimán	10	San Lucas Tolimán	1	Enero	2023-01-16T00:00:00	2024-11-08T20:00:00	1	Precipitación	0
101272	7	Sololá	713	San Lucas Tolimán	10	San Lucas Tolimán	1	Enero	2023-01-16T00:00:00	2024-11-08T20:00:00	8	Radiación solar	0
101273	7	Sololá	713	San Lucas Tolimán	10	San Lucas Tolimán	1	Enero	2023-01-16T00:00:00	2024-11-08T21:00:00	2	Temperatura media	16.8
101274	7	Sololá	713	San Lucas Tolimán	10	San Lucas Tolimán	1	Enero	2023-01-16T00:00:00	2024-11-08T21:00:00	4	Temperatura máxima	17.2
101275	7	Sololá	713	San Lucas Tolimán	10	San Lucas Tolimán	1	Enero	2023-01-16T00:00:00	2024-11-08T21:00:00	3	Temperatura mínima	16.7
101276	7	Sololá	713	San Lucas Tolimán	10	San Lucas Tolimán	1	Enero	2023-01-16T00:00:00	2024-11-08T21:00:00	5	Humedad	63
101277	7	Sololá	713	San Lucas Tolimán	10	San Lucas Tolimán	1	Enero	2023-01-16T00:00:00	2024-11-08T21:00:00	6	Velocidad del viento	3.2
101278	7	Sololá	713	San Lucas Tolimán	10	San Lucas Tolimán	1	Enero	2023-01-16T00:00:00	2024-11-08T21:00:00	7	Dirección del viento	3.22
101279	7	Sololá	713	San Lucas Tolimán	10	San Lucas Tolimán	1	Enero	2023-01-16T00:00:00	2024-11-08T21:00:00	1	Precipitación	0
101280	7	Sololá	713	San Lucas Tolimán	10	San Lucas Tolimán	1	Enero	2023-01-16T00:00:00	2024-11-08T21:00:00	8	Radiación solar	0
101281	7	Sololá	713	San Lucas Tolimán	10	San Lucas Tolimán	1	Enero	2023-01-16T00:00:00	2024-11-08T22:00:00	2	Temperatura media	15.9
101282	7	Sololá	713	San Lucas Tolimán	10	San Lucas Tolimán	1	Enero	2023-01-16T00:00:00	2024-11-08T22:00:00	4	Temperatura máxima	16.8
101283	7	Sololá	713	San Lucas Tolimán	10	San Lucas Tolimán	1	Enero	2023-01-16T00:00:00	2024-11-08T22:00:00	3	Temperatura mínima	15.9
101284	7	Sololá	713	San Lucas Tolimán	10	San Lucas Tolimán	1	Enero	2023-01-16T00:00:00	2024-11-08T22:00:00	5	Humedad	60
101285	7	Sololá	713	San Lucas Tolimán	10	San Lucas Tolimán	1	Enero	2023-01-16T00:00:00	2024-11-08T22:00:00	6	Velocidad del viento	4.8
101286	7	Sololá	713	San Lucas Tolimán	10	San Lucas Tolimán	1	Enero	2023-01-16T00:00:00	2024-11-08T22:00:00	7	Dirección del viento	4.83
101287	7	Sololá	713	San Lucas Tolimán	10	San Lucas Tolimán	1	Enero	2023-01-16T00:00:00	2024-11-08T22:00:00	1	Precipitación	0
101288	7	Sololá	713	San Lucas Tolimán	10	San Lucas Tolimán	1	Enero	2023-01-16T00:00:00	2024-11-08T22:00:00	8	Radiación solar	0
101289	7	Sololá	713	San Lucas Tolimán	10	San Lucas Tolimán	1	Enero	2023-01-16T00:00:00	2024-11-08T23:00:00	2	Temperatura media	16.1
101290	7	Sololá	713	San Lucas Tolimán	10	San Lucas Tolimán	1	Enero	2023-01-16T00:00:00	2024-11-08T23:00:00	4	Temperatura máxima	16.1
101291	7	Sololá	713	San Lucas Tolimán	10	San Lucas Tolimán	1	Enero	2023-01-16T00:00:00	2024-11-08T23:00:00	3	Temperatura mínima	15.9
101292	7	Sololá	713	San Lucas Tolimán	10	San Lucas Tolimán	1	Enero	2023-01-16T00:00:00	2024-11-08T23:00:00	5	Humedad	64
101293	7	Sololá	713	San Lucas Tolimán	10	San Lucas Tolimán	1	Enero	2023-01-16T00:00:00	2024-11-08T23:00:00	6	Velocidad del viento	4.8
101294	7	Sololá	713	San Lucas Tolimán	10	San Lucas Tolimán	1	Enero	2023-01-16T00:00:00	2024-11-08T23:00:00	7	Dirección del viento	4.83
101295	7	Sololá	713	San Lucas Tolimán	10	San Lucas Tolimán	1	Enero	2023-01-16T00:00:00	2024-11-08T23:00:00	1	Precipitación	0
101296	7	Sololá	713	San Lucas Tolimán	10	San Lucas Tolimán	1	Enero	2023-01-16T00:00:00	2024-11-08T23:00:00	8	Radiación solar	0
101297	7	Sololá	713	San Lucas Tolimán	10	San Lucas Tolimán	1	Enero	2023-01-17T00:00:00	2024-11-08T00:00:00	2	Temperatura media	16.1
101298	7	Sololá	713	San Lucas Tolimán	10	San Lucas Tolimán	1	Enero	2023-01-17T00:00:00	2024-11-08T00:00:00	4	Temperatura máxima	16.2
101299	7	Sololá	713	San Lucas Tolimán	10	San Lucas Tolimán	1	Enero	2023-01-17T00:00:00	2024-11-08T00:00:00	3	Temperatura mínima	15.8
101300	7	Sololá	713	San Lucas Tolimán	10	San Lucas Tolimán	1	Enero	2023-01-17T00:00:00	2024-11-08T00:00:00	5	Humedad	59
101301	7	Sololá	713	San Lucas Tolimán	10	San Lucas Tolimán	1	Enero	2023-01-17T00:00:00	2024-11-08T00:00:00	6	Velocidad del viento	3.2
101302	7	Sololá	713	San Lucas Tolimán	10	San Lucas Tolimán	1	Enero	2023-01-17T00:00:00	2024-11-08T00:00:00	7	Dirección del viento	3.22
101303	7	Sololá	713	San Lucas Tolimán	10	San Lucas Tolimán	1	Enero	2023-01-17T00:00:00	2024-11-08T00:00:00	1	Precipitación	0
101304	7	Sololá	713	San Lucas Tolimán	10	San Lucas Tolimán	1	Enero	2023-01-17T00:00:00	2024-11-08T00:00:00	8	Radiación solar	0
101305	7	Sololá	713	San Lucas Tolimán	10	San Lucas Tolimán	1	Enero	2023-01-17T00:00:00	2024-11-08T01:00:00	2	Temperatura media	16.2
101306	7	Sololá	713	San Lucas Tolimán	10	San Lucas Tolimán	1	Enero	2023-01-17T00:00:00	2024-11-08T01:00:00	4	Temperatura máxima	16.4
101307	7	Sololá	713	San Lucas Tolimán	10	San Lucas Tolimán	1	Enero	2023-01-17T00:00:00	2024-11-08T01:00:00	3	Temperatura mínima	16.1
101308	7	Sololá	713	San Lucas Tolimán	10	San Lucas Tolimán	1	Enero	2023-01-17T00:00:00	2024-11-08T01:00:00	5	Humedad	64
101309	7	Sololá	713	San Lucas Tolimán	10	San Lucas Tolimán	1	Enero	2023-01-17T00:00:00	2024-11-08T01:00:00	6	Velocidad del viento	4.8
101310	7	Sololá	713	San Lucas Tolimán	10	San Lucas Tolimán	1	Enero	2023-01-17T00:00:00	2024-11-08T01:00:00	7	Dirección del viento	4.83
101311	7	Sololá	713	San Lucas Tolimán	10	San Lucas Tolimán	1	Enero	2023-01-17T00:00:00	2024-11-08T01:00:00	1	Precipitación	0
101312	7	Sololá	713	San Lucas Tolimán	10	San Lucas Tolimán	1	Enero	2023-01-17T00:00:00	2024-11-08T01:00:00	8	Radiación solar	0
101313	7	Sololá	713	San Lucas Tolimán	10	San Lucas Tolimán	1	Enero	2023-01-17T00:00:00	2024-11-08T02:00:00	2	Temperatura media	16.3
101314	7	Sololá	713	San Lucas Tolimán	10	San Lucas Tolimán	1	Enero	2023-01-17T00:00:00	2024-11-08T02:00:00	4	Temperatura máxima	16.4
101315	7	Sololá	713	San Lucas Tolimán	10	San Lucas Tolimán	1	Enero	2023-01-17T00:00:00	2024-11-08T02:00:00	3	Temperatura mínima	16.2
101316	7	Sololá	713	San Lucas Tolimán	10	San Lucas Tolimán	1	Enero	2023-01-17T00:00:00	2024-11-08T02:00:00	5	Humedad	64
101317	7	Sololá	713	San Lucas Tolimán	10	San Lucas Tolimán	1	Enero	2023-01-17T00:00:00	2024-11-08T02:00:00	6	Velocidad del viento	3.2
101318	7	Sololá	713	San Lucas Tolimán	10	San Lucas Tolimán	1	Enero	2023-01-17T00:00:00	2024-11-08T02:00:00	7	Dirección del viento	3.22
101319	7	Sololá	713	San Lucas Tolimán	10	San Lucas Tolimán	1	Enero	2023-01-17T00:00:00	2024-11-08T02:00:00	1	Precipitación	0
101320	7	Sololá	713	San Lucas Tolimán	10	San Lucas Tolimán	1	Enero	2023-01-17T00:00:00	2024-11-08T02:00:00	8	Radiación solar	0
101321	7	Sololá	713	San Lucas Tolimán	10	San Lucas Tolimán	1	Enero	2023-01-17T00:00:00	2024-11-08T03:00:00	2	Temperatura media	15.7
101322	7	Sololá	713	San Lucas Tolimán	10	San Lucas Tolimán	1	Enero	2023-01-17T00:00:00	2024-11-08T03:00:00	4	Temperatura máxima	16.3
101323	7	Sololá	713	San Lucas Tolimán	10	San Lucas Tolimán	1	Enero	2023-01-17T00:00:00	2024-11-08T03:00:00	3	Temperatura mínima	15.7
101324	7	Sololá	713	San Lucas Tolimán	10	San Lucas Tolimán	1	Enero	2023-01-17T00:00:00	2024-11-08T03:00:00	5	Humedad	67
101325	7	Sololá	713	San Lucas Tolimán	10	San Lucas Tolimán	1	Enero	2023-01-17T00:00:00	2024-11-08T03:00:00	6	Velocidad del viento	3.2
101326	7	Sololá	713	San Lucas Tolimán	10	San Lucas Tolimán	1	Enero	2023-01-17T00:00:00	2024-11-08T03:00:00	7	Dirección del viento	3.22
101327	7	Sololá	713	San Lucas Tolimán	10	San Lucas Tolimán	1	Enero	2023-01-17T00:00:00	2024-11-08T03:00:00	1	Precipitación	0
101328	7	Sololá	713	San Lucas Tolimán	10	San Lucas Tolimán	1	Enero	2023-01-17T00:00:00	2024-11-08T03:00:00	8	Radiación solar	0
101329	7	Sololá	713	San Lucas Tolimán	10	San Lucas Tolimán	1	Enero	2023-01-17T00:00:00	2024-11-08T04:00:00	2	Temperatura media	14.1
101330	7	Sololá	713	San Lucas Tolimán	10	San Lucas Tolimán	1	Enero	2023-01-17T00:00:00	2024-11-08T04:00:00	4	Temperatura máxima	15.7
101331	7	Sololá	713	San Lucas Tolimán	10	San Lucas Tolimán	1	Enero	2023-01-17T00:00:00	2024-11-08T04:00:00	3	Temperatura mínima	14.1
101332	7	Sololá	713	San Lucas Tolimán	10	San Lucas Tolimán	1	Enero	2023-01-17T00:00:00	2024-11-08T04:00:00	5	Humedad	66
101333	7	Sololá	713	San Lucas Tolimán	10	San Lucas Tolimán	1	Enero	2023-01-17T00:00:00	2024-11-08T04:00:00	6	Velocidad del viento	1.6
101334	7	Sololá	713	San Lucas Tolimán	10	San Lucas Tolimán	1	Enero	2023-01-17T00:00:00	2024-11-08T04:00:00	7	Dirección del viento	1.61
101335	7	Sololá	713	San Lucas Tolimán	10	San Lucas Tolimán	1	Enero	2023-01-17T00:00:00	2024-11-08T04:00:00	1	Precipitación	0
101336	7	Sololá	713	San Lucas Tolimán	10	San Lucas Tolimán	1	Enero	2023-01-17T00:00:00	2024-11-08T04:00:00	8	Radiación solar	0
101337	7	Sololá	713	San Lucas Tolimán	10	San Lucas Tolimán	1	Enero	2023-01-17T00:00:00	2024-11-08T05:00:00	2	Temperatura media	13.2
101338	7	Sololá	713	San Lucas Tolimán	10	San Lucas Tolimán	1	Enero	2023-01-17T00:00:00	2024-11-08T05:00:00	4	Temperatura máxima	14.1
101339	7	Sololá	713	San Lucas Tolimán	10	San Lucas Tolimán	1	Enero	2023-01-17T00:00:00	2024-11-08T05:00:00	3	Temperatura mínima	13.2
101340	7	Sololá	713	San Lucas Tolimán	10	San Lucas Tolimán	1	Enero	2023-01-17T00:00:00	2024-11-08T05:00:00	5	Humedad	63
101341	7	Sololá	713	San Lucas Tolimán	10	San Lucas Tolimán	1	Enero	2023-01-17T00:00:00	2024-11-08T05:00:00	6	Velocidad del viento	3.2
101342	7	Sololá	713	San Lucas Tolimán	10	San Lucas Tolimán	1	Enero	2023-01-17T00:00:00	2024-11-08T05:00:00	7	Dirección del viento	3.22
101343	7	Sololá	713	San Lucas Tolimán	10	San Lucas Tolimán	1	Enero	2023-01-17T00:00:00	2024-11-08T05:00:00	1	Precipitación	0
101344	7	Sololá	713	San Lucas Tolimán	10	San Lucas Tolimán	1	Enero	2023-01-17T00:00:00	2024-11-08T05:00:00	8	Radiación solar	0
101345	7	Sololá	713	San Lucas Tolimán	10	San Lucas Tolimán	1	Enero	2023-01-17T00:00:00	2024-11-08T06:00:00	2	Temperatura media	12.7
101346	7	Sololá	713	San Lucas Tolimán	10	San Lucas Tolimán	1	Enero	2023-01-17T00:00:00	2024-11-08T06:00:00	4	Temperatura máxima	13.3
101347	7	Sololá	713	San Lucas Tolimán	10	San Lucas Tolimán	1	Enero	2023-01-17T00:00:00	2024-11-08T06:00:00	3	Temperatura mínima	12.7
101348	7	Sololá	713	San Lucas Tolimán	10	San Lucas Tolimán	1	Enero	2023-01-17T00:00:00	2024-11-08T06:00:00	5	Humedad	62
101349	7	Sololá	713	San Lucas Tolimán	10	San Lucas Tolimán	1	Enero	2023-01-17T00:00:00	2024-11-08T06:00:00	6	Velocidad del viento	4.8
101350	7	Sololá	713	San Lucas Tolimán	10	San Lucas Tolimán	1	Enero	2023-01-17T00:00:00	2024-11-08T06:00:00	7	Dirección del viento	4.83
101351	7	Sololá	713	San Lucas Tolimán	10	San Lucas Tolimán	1	Enero	2023-01-17T00:00:00	2024-11-08T06:00:00	1	Precipitación	0
101352	7	Sololá	713	San Lucas Tolimán	10	San Lucas Tolimán	1	Enero	2023-01-17T00:00:00	2024-11-08T06:00:00	8	Radiación solar	0
101353	7	Sololá	713	San Lucas Tolimán	10	San Lucas Tolimán	1	Enero	2023-01-17T00:00:00	2024-11-08T07:00:00	2	Temperatura media	12.6
101354	7	Sololá	713	San Lucas Tolimán	10	San Lucas Tolimán	1	Enero	2023-01-17T00:00:00	2024-11-08T07:00:00	4	Temperatura máxima	12.7
101355	7	Sololá	713	San Lucas Tolimán	10	San Lucas Tolimán	1	Enero	2023-01-17T00:00:00	2024-11-08T07:00:00	3	Temperatura mínima	12.6
101356	7	Sololá	713	San Lucas Tolimán	10	San Lucas Tolimán	1	Enero	2023-01-17T00:00:00	2024-11-08T07:00:00	5	Humedad	62
101357	7	Sololá	713	San Lucas Tolimán	10	San Lucas Tolimán	1	Enero	2023-01-17T00:00:00	2024-11-08T07:00:00	6	Velocidad del viento	3.2
101358	7	Sololá	713	San Lucas Tolimán	10	San Lucas Tolimán	1	Enero	2023-01-17T00:00:00	2024-11-08T07:00:00	7	Dirección del viento	3.22
101359	7	Sololá	713	San Lucas Tolimán	10	San Lucas Tolimán	1	Enero	2023-01-17T00:00:00	2024-11-08T07:00:00	1	Precipitación	0
101360	7	Sololá	713	San Lucas Tolimán	10	San Lucas Tolimán	1	Enero	2023-01-17T00:00:00	2024-11-08T07:00:00	8	Radiación solar	5
101361	7	Sololá	713	San Lucas Tolimán	10	San Lucas Tolimán	1	Enero	2023-01-17T00:00:00	2024-11-08T08:00:00	2	Temperatura media	14.1
101362	7	Sololá	713	San Lucas Tolimán	10	San Lucas Tolimán	1	Enero	2023-01-17T00:00:00	2024-11-08T08:00:00	4	Temperatura máxima	14.1
101363	7	Sololá	713	San Lucas Tolimán	10	San Lucas Tolimán	1	Enero	2023-01-17T00:00:00	2024-11-08T08:00:00	3	Temperatura mínima	12.5
101364	7	Sololá	713	San Lucas Tolimán	10	San Lucas Tolimán	1	Enero	2023-01-17T00:00:00	2024-11-08T08:00:00	5	Humedad	61
101365	7	Sololá	713	San Lucas Tolimán	10	San Lucas Tolimán	1	Enero	2023-01-17T00:00:00	2024-11-08T08:00:00	6	Velocidad del viento	1.6
101366	7	Sololá	713	San Lucas Tolimán	10	San Lucas Tolimán	1	Enero	2023-01-17T00:00:00	2024-11-08T08:00:00	7	Dirección del viento	1.61
101367	7	Sololá	713	San Lucas Tolimán	10	San Lucas Tolimán	1	Enero	2023-01-17T00:00:00	2024-11-08T08:00:00	1	Precipitación	0
101368	7	Sololá	713	San Lucas Tolimán	10	San Lucas Tolimán	1	Enero	2023-01-17T00:00:00	2024-11-08T08:00:00	8	Radiación solar	44
101369	7	Sololá	713	San Lucas Tolimán	10	San Lucas Tolimán	1	Enero	2023-01-17T00:00:00	2024-11-08T09:00:00	2	Temperatura media	17.1
101370	7	Sololá	713	San Lucas Tolimán	10	San Lucas Tolimán	1	Enero	2023-01-17T00:00:00	2024-11-08T09:00:00	4	Temperatura máxima	17.1
101371	7	Sololá	713	San Lucas Tolimán	10	San Lucas Tolimán	1	Enero	2023-01-17T00:00:00	2024-11-08T09:00:00	3	Temperatura mínima	14.1
101372	7	Sololá	713	San Lucas Tolimán	10	San Lucas Tolimán	1	Enero	2023-01-17T00:00:00	2024-11-08T09:00:00	5	Humedad	57
101373	7	Sololá	713	San Lucas Tolimán	10	San Lucas Tolimán	1	Enero	2023-01-17T00:00:00	2024-11-08T09:00:00	6	Velocidad del viento	3.2
101374	7	Sololá	713	San Lucas Tolimán	10	San Lucas Tolimán	1	Enero	2023-01-17T00:00:00	2024-11-08T09:00:00	7	Dirección del viento	3.22
101375	7	Sololá	713	San Lucas Tolimán	10	San Lucas Tolimán	1	Enero	2023-01-17T00:00:00	2024-11-08T09:00:00	1	Precipitación	0
101376	7	Sololá	713	San Lucas Tolimán	10	San Lucas Tolimán	1	Enero	2023-01-17T00:00:00	2024-11-08T09:00:00	8	Radiación solar	253
101377	7	Sololá	713	San Lucas Tolimán	10	San Lucas Tolimán	1	Enero	2023-01-17T00:00:00	2024-11-08T10:00:00	2	Temperatura media	18.8
101378	7	Sololá	713	San Lucas Tolimán	10	San Lucas Tolimán	1	Enero	2023-01-17T00:00:00	2024-11-08T10:00:00	4	Temperatura máxima	18.8
101379	7	Sololá	713	San Lucas Tolimán	10	San Lucas Tolimán	1	Enero	2023-01-17T00:00:00	2024-11-08T10:00:00	3	Temperatura mínima	17.1
101380	7	Sololá	713	San Lucas Tolimán	10	San Lucas Tolimán	1	Enero	2023-01-17T00:00:00	2024-11-08T10:00:00	5	Humedad	57
101381	7	Sololá	713	San Lucas Tolimán	10	San Lucas Tolimán	1	Enero	2023-01-17T00:00:00	2024-11-08T10:00:00	6	Velocidad del viento	4.8
101382	7	Sololá	713	San Lucas Tolimán	10	San Lucas Tolimán	1	Enero	2023-01-17T00:00:00	2024-11-08T10:00:00	7	Dirección del viento	4.83
101383	7	Sololá	713	San Lucas Tolimán	10	San Lucas Tolimán	1	Enero	2023-01-17T00:00:00	2024-11-08T10:00:00	1	Precipitación	0
101384	7	Sololá	713	San Lucas Tolimán	10	San Lucas Tolimán	1	Enero	2023-01-17T00:00:00	2024-11-08T10:00:00	8	Radiación solar	566
101385	7	Sololá	713	San Lucas Tolimán	10	San Lucas Tolimán	1	Enero	2023-01-17T00:00:00	2024-11-08T11:00:00	2	Temperatura media	20.6
101386	7	Sololá	713	San Lucas Tolimán	10	San Lucas Tolimán	1	Enero	2023-01-17T00:00:00	2024-11-08T11:00:00	4	Temperatura máxima	21.2
101387	7	Sololá	713	San Lucas Tolimán	10	San Lucas Tolimán	1	Enero	2023-01-17T00:00:00	2024-11-08T11:00:00	3	Temperatura mínima	18.8
101388	7	Sololá	713	San Lucas Tolimán	10	San Lucas Tolimán	1	Enero	2023-01-17T00:00:00	2024-11-08T11:00:00	5	Humedad	57
101389	7	Sololá	713	San Lucas Tolimán	10	San Lucas Tolimán	1	Enero	2023-01-17T00:00:00	2024-11-08T11:00:00	6	Velocidad del viento	6.4
101390	7	Sololá	713	San Lucas Tolimán	10	San Lucas Tolimán	1	Enero	2023-01-17T00:00:00	2024-11-08T11:00:00	7	Dirección del viento	6.44
101391	7	Sololá	713	San Lucas Tolimán	10	San Lucas Tolimán	1	Enero	2023-01-17T00:00:00	2024-11-08T11:00:00	1	Precipitación	0
101392	7	Sololá	713	San Lucas Tolimán	10	San Lucas Tolimán	1	Enero	2023-01-17T00:00:00	2024-11-08T11:00:00	8	Radiación solar	745
101393	7	Sololá	713	San Lucas Tolimán	10	San Lucas Tolimán	1	Enero	2023-01-17T00:00:00	2024-11-08T12:00:00	2	Temperatura media	20.5
101394	7	Sololá	713	San Lucas Tolimán	10	San Lucas Tolimán	1	Enero	2023-01-17T00:00:00	2024-11-08T12:00:00	4	Temperatura máxima	20.8
101395	7	Sololá	713	San Lucas Tolimán	10	San Lucas Tolimán	1	Enero	2023-01-17T00:00:00	2024-11-08T12:00:00	3	Temperatura mínima	20.1
101396	7	Sololá	713	San Lucas Tolimán	10	San Lucas Tolimán	1	Enero	2023-01-17T00:00:00	2024-11-08T12:00:00	5	Humedad	58
101397	7	Sololá	713	San Lucas Tolimán	10	San Lucas Tolimán	1	Enero	2023-01-17T00:00:00	2024-11-08T12:00:00	6	Velocidad del viento	12.9
101398	7	Sololá	713	San Lucas Tolimán	10	San Lucas Tolimán	1	Enero	2023-01-17T00:00:00	2024-11-08T12:00:00	7	Dirección del viento	12.87
101399	7	Sololá	713	San Lucas Tolimán	10	San Lucas Tolimán	1	Enero	2023-01-17T00:00:00	2024-11-08T12:00:00	1	Precipitación	0
101400	7	Sololá	713	San Lucas Tolimán	10	San Lucas Tolimán	1	Enero	2023-01-17T00:00:00	2024-11-08T12:00:00	8	Radiación solar	883
101401	7	Sololá	713	San Lucas Tolimán	10	San Lucas Tolimán	1	Enero	2023-01-17T00:00:00	2024-11-08T13:00:00	2	Temperatura media	21.2
101402	7	Sololá	713	San Lucas Tolimán	10	San Lucas Tolimán	1	Enero	2023-01-17T00:00:00	2024-11-08T13:00:00	4	Temperatura máxima	21.2
101403	7	Sololá	713	San Lucas Tolimán	10	San Lucas Tolimán	1	Enero	2023-01-17T00:00:00	2024-11-08T13:00:00	3	Temperatura mínima	19.6
101404	7	Sololá	713	San Lucas Tolimán	10	San Lucas Tolimán	1	Enero	2023-01-17T00:00:00	2024-11-08T13:00:00	5	Humedad	59
101405	7	Sololá	713	San Lucas Tolimán	10	San Lucas Tolimán	1	Enero	2023-01-17T00:00:00	2024-11-08T13:00:00	6	Velocidad del viento	12.9
101406	7	Sololá	713	San Lucas Tolimán	10	San Lucas Tolimán	1	Enero	2023-01-17T00:00:00	2024-11-08T13:00:00	7	Dirección del viento	12.87
101407	7	Sololá	713	San Lucas Tolimán	10	San Lucas Tolimán	1	Enero	2023-01-17T00:00:00	2024-11-08T13:00:00	1	Precipitación	0
101408	7	Sololá	713	San Lucas Tolimán	10	San Lucas Tolimán	1	Enero	2023-01-17T00:00:00	2024-11-08T13:00:00	8	Radiación solar	872
101409	7	Sololá	713	San Lucas Tolimán	10	San Lucas Tolimán	1	Enero	2023-01-17T00:00:00	2024-11-08T14:00:00	2	Temperatura media	19.9
101410	7	Sololá	713	San Lucas Tolimán	10	San Lucas Tolimán	1	Enero	2023-01-17T00:00:00	2024-11-08T14:00:00	4	Temperatura máxima	21.6
101411	7	Sololá	713	San Lucas Tolimán	10	San Lucas Tolimán	1	Enero	2023-01-17T00:00:00	2024-11-08T14:00:00	3	Temperatura mínima	19.9
101412	7	Sololá	713	San Lucas Tolimán	10	San Lucas Tolimán	1	Enero	2023-01-17T00:00:00	2024-11-08T14:00:00	5	Humedad	61
101413	7	Sololá	713	San Lucas Tolimán	10	San Lucas Tolimán	1	Enero	2023-01-17T00:00:00	2024-11-08T14:00:00	6	Velocidad del viento	9.7
101414	7	Sololá	713	San Lucas Tolimán	10	San Lucas Tolimán	1	Enero	2023-01-17T00:00:00	2024-11-08T14:00:00	7	Dirección del viento	9.66
101415	7	Sololá	713	San Lucas Tolimán	10	San Lucas Tolimán	1	Enero	2023-01-17T00:00:00	2024-11-08T14:00:00	1	Precipitación	0
101416	7	Sololá	713	San Lucas Tolimán	10	San Lucas Tolimán	1	Enero	2023-01-17T00:00:00	2024-11-08T14:00:00	8	Radiación solar	704
101417	7	Sololá	713	San Lucas Tolimán	10	San Lucas Tolimán	1	Enero	2023-01-17T00:00:00	2024-11-08T15:00:00	2	Temperatura media	20.1
101418	7	Sololá	713	San Lucas Tolimán	10	San Lucas Tolimán	1	Enero	2023-01-17T00:00:00	2024-11-08T15:00:00	4	Temperatura máxima	20.6
101419	7	Sololá	713	San Lucas Tolimán	10	San Lucas Tolimán	1	Enero	2023-01-17T00:00:00	2024-11-08T15:00:00	3	Temperatura mínima	19.2
101420	7	Sololá	713	San Lucas Tolimán	10	San Lucas Tolimán	1	Enero	2023-01-17T00:00:00	2024-11-08T15:00:00	5	Humedad	59
101421	7	Sololá	713	San Lucas Tolimán	10	San Lucas Tolimán	1	Enero	2023-01-17T00:00:00	2024-11-08T15:00:00	6	Velocidad del viento	9.7
101422	7	Sololá	713	San Lucas Tolimán	10	San Lucas Tolimán	1	Enero	2023-01-17T00:00:00	2024-11-08T15:00:00	7	Dirección del viento	9.66
101423	7	Sololá	713	San Lucas Tolimán	10	San Lucas Tolimán	1	Enero	2023-01-17T00:00:00	2024-11-08T15:00:00	1	Precipitación	0
101424	7	Sololá	713	San Lucas Tolimán	10	San Lucas Tolimán	1	Enero	2023-01-17T00:00:00	2024-11-08T15:00:00	8	Radiación solar	405
101425	7	Sololá	713	San Lucas Tolimán	10	San Lucas Tolimán	1	Enero	2023-01-17T00:00:00	2024-11-08T16:00:00	2	Temperatura media	19.2
101426	7	Sololá	713	San Lucas Tolimán	10	San Lucas Tolimán	1	Enero	2023-01-17T00:00:00	2024-11-08T16:00:00	4	Temperatura máxima	20.1
101427	7	Sololá	713	San Lucas Tolimán	10	San Lucas Tolimán	1	Enero	2023-01-17T00:00:00	2024-11-08T16:00:00	3	Temperatura mínima	19.1
101428	7	Sololá	713	San Lucas Tolimán	10	San Lucas Tolimán	1	Enero	2023-01-17T00:00:00	2024-11-08T16:00:00	5	Humedad	62
101429	7	Sololá	713	San Lucas Tolimán	10	San Lucas Tolimán	1	Enero	2023-01-17T00:00:00	2024-11-08T16:00:00	6	Velocidad del viento	11.3
101430	7	Sololá	713	San Lucas Tolimán	10	San Lucas Tolimán	1	Enero	2023-01-17T00:00:00	2024-11-08T16:00:00	7	Dirección del viento	11.27
101431	7	Sololá	713	San Lucas Tolimán	10	San Lucas Tolimán	1	Enero	2023-01-17T00:00:00	2024-11-08T16:00:00	1	Precipitación	0
101432	7	Sololá	713	San Lucas Tolimán	10	San Lucas Tolimán	1	Enero	2023-01-17T00:00:00	2024-11-08T16:00:00	8	Radiación solar	293
101433	7	Sololá	713	San Lucas Tolimán	10	San Lucas Tolimán	1	Enero	2023-01-17T00:00:00	2024-11-08T17:00:00	2	Temperatura media	17.7
101434	7	Sololá	713	San Lucas Tolimán	10	San Lucas Tolimán	1	Enero	2023-01-17T00:00:00	2024-11-08T17:00:00	4	Temperatura máxima	19.2
101435	7	Sololá	713	San Lucas Tolimán	10	San Lucas Tolimán	1	Enero	2023-01-17T00:00:00	2024-11-08T17:00:00	3	Temperatura mínima	17.7
101436	7	Sololá	713	San Lucas Tolimán	10	San Lucas Tolimán	1	Enero	2023-01-17T00:00:00	2024-11-08T17:00:00	5	Humedad	62
101437	7	Sololá	713	San Lucas Tolimán	10	San Lucas Tolimán	1	Enero	2023-01-17T00:00:00	2024-11-08T17:00:00	6	Velocidad del viento	9.7
101438	7	Sololá	713	San Lucas Tolimán	10	San Lucas Tolimán	1	Enero	2023-01-17T00:00:00	2024-11-08T17:00:00	7	Dirección del viento	9.66
101439	7	Sololá	713	San Lucas Tolimán	10	San Lucas Tolimán	1	Enero	2023-01-17T00:00:00	2024-11-08T17:00:00	1	Precipitación	0
101440	7	Sololá	713	San Lucas Tolimán	10	San Lucas Tolimán	1	Enero	2023-01-17T00:00:00	2024-11-08T17:00:00	8	Radiación solar	115
101441	7	Sololá	713	San Lucas Tolimán	10	San Lucas Tolimán	1	Enero	2023-01-17T00:00:00	2024-11-08T18:00:00	2	Temperatura media	17.2
101442	7	Sololá	713	San Lucas Tolimán	10	San Lucas Tolimán	1	Enero	2023-01-17T00:00:00	2024-11-08T18:00:00	4	Temperatura máxima	17.7
101443	7	Sololá	713	San Lucas Tolimán	10	San Lucas Tolimán	1	Enero	2023-01-17T00:00:00	2024-11-08T18:00:00	3	Temperatura mínima	17.1
101444	7	Sololá	713	San Lucas Tolimán	10	San Lucas Tolimán	1	Enero	2023-01-17T00:00:00	2024-11-08T18:00:00	5	Humedad	62
101445	7	Sololá	713	San Lucas Tolimán	10	San Lucas Tolimán	1	Enero	2023-01-17T00:00:00	2024-11-08T18:00:00	6	Velocidad del viento	8
101446	7	Sololá	713	San Lucas Tolimán	10	San Lucas Tolimán	1	Enero	2023-01-17T00:00:00	2024-11-08T18:00:00	7	Dirección del viento	8.05
101447	7	Sololá	713	San Lucas Tolimán	10	San Lucas Tolimán	1	Enero	2023-01-17T00:00:00	2024-11-08T18:00:00	1	Precipitación	0
101448	7	Sololá	713	San Lucas Tolimán	10	San Lucas Tolimán	1	Enero	2023-01-17T00:00:00	2024-11-08T18:00:00	8	Radiación solar	23
101449	7	Sololá	713	San Lucas Tolimán	10	San Lucas Tolimán	1	Enero	2023-01-17T00:00:00	2024-11-08T19:00:00	2	Temperatura media	16.6
101450	7	Sololá	713	San Lucas Tolimán	10	San Lucas Tolimán	1	Enero	2023-01-17T00:00:00	2024-11-08T19:00:00	4	Temperatura máxima	17.2
101451	7	Sololá	713	San Lucas Tolimán	10	San Lucas Tolimán	1	Enero	2023-01-17T00:00:00	2024-11-08T19:00:00	3	Temperatura mínima	16.6
101452	7	Sololá	713	San Lucas Tolimán	10	San Lucas Tolimán	1	Enero	2023-01-17T00:00:00	2024-11-08T19:00:00	5	Humedad	62
101453	7	Sololá	713	San Lucas Tolimán	10	San Lucas Tolimán	1	Enero	2023-01-17T00:00:00	2024-11-08T19:00:00	6	Velocidad del viento	3.2
101454	7	Sololá	713	San Lucas Tolimán	10	San Lucas Tolimán	1	Enero	2023-01-17T00:00:00	2024-11-08T19:00:00	7	Dirección del viento	3.22
101455	7	Sololá	713	San Lucas Tolimán	10	San Lucas Tolimán	1	Enero	2023-01-17T00:00:00	2024-11-08T19:00:00	1	Precipitación	0
101456	7	Sololá	713	San Lucas Tolimán	10	San Lucas Tolimán	1	Enero	2023-01-17T00:00:00	2024-11-08T19:00:00	8	Radiación solar	0
101457	7	Sololá	713	San Lucas Tolimán	10	San Lucas Tolimán	1	Enero	2023-01-17T00:00:00	2024-11-08T20:00:00	2	Temperatura media	15.9
101458	7	Sololá	713	San Lucas Tolimán	10	San Lucas Tolimán	1	Enero	2023-01-17T00:00:00	2024-11-08T20:00:00	4	Temperatura máxima	16.6
101459	7	Sololá	713	San Lucas Tolimán	10	San Lucas Tolimán	1	Enero	2023-01-17T00:00:00	2024-11-08T20:00:00	3	Temperatura mínima	15.8
101460	7	Sololá	713	San Lucas Tolimán	10	San Lucas Tolimán	1	Enero	2023-01-17T00:00:00	2024-11-08T20:00:00	5	Humedad	59
101461	7	Sololá	713	San Lucas Tolimán	10	San Lucas Tolimán	1	Enero	2023-01-17T00:00:00	2024-11-08T20:00:00	6	Velocidad del viento	4.8
101462	7	Sololá	713	San Lucas Tolimán	10	San Lucas Tolimán	1	Enero	2023-01-17T00:00:00	2024-11-08T20:00:00	7	Dirección del viento	4.83
101463	7	Sololá	713	San Lucas Tolimán	10	San Lucas Tolimán	1	Enero	2023-01-17T00:00:00	2024-11-08T20:00:00	1	Precipitación	0
101464	7	Sololá	713	San Lucas Tolimán	10	San Lucas Tolimán	1	Enero	2023-01-17T00:00:00	2024-11-08T20:00:00	8	Radiación solar	0
101465	7	Sololá	713	San Lucas Tolimán	10	San Lucas Tolimán	1	Enero	2023-01-17T00:00:00	2024-11-08T21:00:00	2	Temperatura media	15.2
101466	7	Sololá	713	San Lucas Tolimán	10	San Lucas Tolimán	1	Enero	2023-01-17T00:00:00	2024-11-08T21:00:00	4	Temperatura máxima	16
101467	7	Sololá	713	San Lucas Tolimán	10	San Lucas Tolimán	1	Enero	2023-01-17T00:00:00	2024-11-08T21:00:00	3	Temperatura mínima	14.8
101468	7	Sololá	713	San Lucas Tolimán	10	San Lucas Tolimán	1	Enero	2023-01-17T00:00:00	2024-11-08T21:00:00	5	Humedad	62
101469	7	Sololá	713	San Lucas Tolimán	10	San Lucas Tolimán	1	Enero	2023-01-17T00:00:00	2024-11-08T21:00:00	6	Velocidad del viento	4.8
101470	7	Sololá	713	San Lucas Tolimán	10	San Lucas Tolimán	1	Enero	2023-01-17T00:00:00	2024-11-08T21:00:00	7	Dirección del viento	4.83
101471	7	Sololá	713	San Lucas Tolimán	10	San Lucas Tolimán	1	Enero	2023-01-17T00:00:00	2024-11-08T21:00:00	1	Precipitación	0
101472	7	Sololá	713	San Lucas Tolimán	10	San Lucas Tolimán	1	Enero	2023-01-17T00:00:00	2024-11-08T21:00:00	8	Radiación solar	0
101473	7	Sololá	713	San Lucas Tolimán	10	San Lucas Tolimán	1	Enero	2023-01-17T00:00:00	2024-11-08T22:00:00	2	Temperatura media	15.9
101474	7	Sololá	713	San Lucas Tolimán	10	San Lucas Tolimán	1	Enero	2023-01-17T00:00:00	2024-11-08T22:00:00	4	Temperatura máxima	16
101475	7	Sololá	713	San Lucas Tolimán	10	San Lucas Tolimán	1	Enero	2023-01-17T00:00:00	2024-11-08T22:00:00	3	Temperatura mínima	15.2
101476	7	Sololá	713	San Lucas Tolimán	10	San Lucas Tolimán	1	Enero	2023-01-17T00:00:00	2024-11-08T22:00:00	5	Humedad	61
101477	7	Sololá	713	San Lucas Tolimán	10	San Lucas Tolimán	1	Enero	2023-01-17T00:00:00	2024-11-08T22:00:00	6	Velocidad del viento	1.6
101478	7	Sololá	713	San Lucas Tolimán	10	San Lucas Tolimán	1	Enero	2023-01-17T00:00:00	2024-11-08T22:00:00	7	Dirección del viento	1.61
101479	7	Sololá	713	San Lucas Tolimán	10	San Lucas Tolimán	1	Enero	2023-01-17T00:00:00	2024-11-08T22:00:00	1	Precipitación	0
101480	7	Sololá	713	San Lucas Tolimán	10	San Lucas Tolimán	1	Enero	2023-01-17T00:00:00	2024-11-08T22:00:00	8	Radiación solar	0
101481	7	Sololá	713	San Lucas Tolimán	10	San Lucas Tolimán	1	Enero	2023-01-17T00:00:00	2024-11-08T23:00:00	2	Temperatura media	15.8
101482	7	Sololá	713	San Lucas Tolimán	10	San Lucas Tolimán	1	Enero	2023-01-17T00:00:00	2024-11-08T23:00:00	4	Temperatura máxima	15.9
101483	7	Sololá	713	San Lucas Tolimán	10	San Lucas Tolimán	1	Enero	2023-01-17T00:00:00	2024-11-08T23:00:00	3	Temperatura mínima	15.2
101484	7	Sololá	713	San Lucas Tolimán	10	San Lucas Tolimán	1	Enero	2023-01-17T00:00:00	2024-11-08T23:00:00	5	Humedad	63
101485	7	Sololá	713	San Lucas Tolimán	10	San Lucas Tolimán	1	Enero	2023-01-17T00:00:00	2024-11-08T23:00:00	6	Velocidad del viento	1.6
101486	7	Sololá	713	San Lucas Tolimán	10	San Lucas Tolimán	1	Enero	2023-01-17T00:00:00	2024-11-08T23:00:00	7	Dirección del viento	1.61
101487	7	Sololá	713	San Lucas Tolimán	10	San Lucas Tolimán	1	Enero	2023-01-17T00:00:00	2024-11-08T23:00:00	1	Precipitación	0
101488	7	Sololá	713	San Lucas Tolimán	10	San Lucas Tolimán	1	Enero	2023-01-17T00:00:00	2024-11-08T23:00:00	8	Radiación solar	0
101489	7	Sololá	713	San Lucas Tolimán	10	San Lucas Tolimán	1	Enero	2023-01-18T00:00:00	2024-11-08T00:00:00	2	Temperatura media	15.2
101490	7	Sololá	713	San Lucas Tolimán	10	San Lucas Tolimán	1	Enero	2023-01-18T00:00:00	2024-11-08T00:00:00	4	Temperatura máxima	16.1
101491	7	Sololá	713	San Lucas Tolimán	10	San Lucas Tolimán	1	Enero	2023-01-18T00:00:00	2024-11-08T00:00:00	3	Temperatura mínima	15.2
101492	7	Sololá	713	San Lucas Tolimán	10	San Lucas Tolimán	1	Enero	2023-01-18T00:00:00	2024-11-08T00:00:00	5	Humedad	67
101493	7	Sololá	713	San Lucas Tolimán	10	San Lucas Tolimán	1	Enero	2023-01-18T00:00:00	2024-11-08T00:00:00	6	Velocidad del viento	4.8
101494	7	Sololá	713	San Lucas Tolimán	10	San Lucas Tolimán	1	Enero	2023-01-18T00:00:00	2024-11-08T00:00:00	7	Dirección del viento	4.83
101495	7	Sololá	713	San Lucas Tolimán	10	San Lucas Tolimán	1	Enero	2023-01-18T00:00:00	2024-11-08T00:00:00	1	Precipitación	0
101496	7	Sololá	713	San Lucas Tolimán	10	San Lucas Tolimán	1	Enero	2023-01-18T00:00:00	2024-11-08T00:00:00	8	Radiación solar	0
101497	7	Sololá	713	San Lucas Tolimán	10	San Lucas Tolimán	1	Enero	2023-01-18T00:00:00	2024-11-08T01:00:00	2	Temperatura media	14.9
101498	7	Sololá	713	San Lucas Tolimán	10	San Lucas Tolimán	1	Enero	2023-01-18T00:00:00	2024-11-08T01:00:00	4	Temperatura máxima	15.2
101499	7	Sololá	713	San Lucas Tolimán	10	San Lucas Tolimán	1	Enero	2023-01-18T00:00:00	2024-11-08T01:00:00	3	Temperatura mínima	14.8
101500	7	Sololá	713	San Lucas Tolimán	10	San Lucas Tolimán	1	Enero	2023-01-18T00:00:00	2024-11-08T01:00:00	5	Humedad	70
101501	7	Sololá	713	San Lucas Tolimán	10	San Lucas Tolimán	1	Enero	2023-01-18T00:00:00	2024-11-08T01:00:00	6	Velocidad del viento	4.8
101502	7	Sololá	713	San Lucas Tolimán	10	San Lucas Tolimán	1	Enero	2023-01-18T00:00:00	2024-11-08T01:00:00	7	Dirección del viento	4.83
101503	7	Sololá	713	San Lucas Tolimán	10	San Lucas Tolimán	1	Enero	2023-01-18T00:00:00	2024-11-08T01:00:00	1	Precipitación	0
101504	7	Sololá	713	San Lucas Tolimán	10	San Lucas Tolimán	1	Enero	2023-01-18T00:00:00	2024-11-08T01:00:00	8	Radiación solar	0
101505	7	Sololá	713	San Lucas Tolimán	10	San Lucas Tolimán	1	Enero	2023-01-18T00:00:00	2024-11-08T02:00:00	2	Temperatura media	14.2
101506	7	Sololá	713	San Lucas Tolimán	10	San Lucas Tolimán	1	Enero	2023-01-18T00:00:00	2024-11-08T02:00:00	4	Temperatura máxima	14.9
101507	7	Sololá	713	San Lucas Tolimán	10	San Lucas Tolimán	1	Enero	2023-01-18T00:00:00	2024-11-08T02:00:00	3	Temperatura mínima	14.2
101508	7	Sololá	713	San Lucas Tolimán	10	San Lucas Tolimán	1	Enero	2023-01-18T00:00:00	2024-11-08T02:00:00	5	Humedad	71
101509	7	Sololá	713	San Lucas Tolimán	10	San Lucas Tolimán	1	Enero	2023-01-18T00:00:00	2024-11-08T02:00:00	6	Velocidad del viento	1.6
101510	7	Sololá	713	San Lucas Tolimán	10	San Lucas Tolimán	1	Enero	2023-01-18T00:00:00	2024-11-08T02:00:00	7	Dirección del viento	1.61
101511	7	Sololá	713	San Lucas Tolimán	10	San Lucas Tolimán	1	Enero	2023-01-18T00:00:00	2024-11-08T02:00:00	1	Precipitación	0
101512	7	Sololá	713	San Lucas Tolimán	10	San Lucas Tolimán	1	Enero	2023-01-18T00:00:00	2024-11-08T02:00:00	8	Radiación solar	0
101513	7	Sololá	713	San Lucas Tolimán	10	San Lucas Tolimán	1	Enero	2023-01-18T00:00:00	2024-11-08T03:00:00	2	Temperatura media	13.2
101514	7	Sololá	713	San Lucas Tolimán	10	San Lucas Tolimán	1	Enero	2023-01-18T00:00:00	2024-11-08T03:00:00	4	Temperatura máxima	14.2
101515	7	Sololá	713	San Lucas Tolimán	10	San Lucas Tolimán	1	Enero	2023-01-18T00:00:00	2024-11-08T03:00:00	3	Temperatura mínima	12.7
101516	7	Sololá	713	San Lucas Tolimán	10	San Lucas Tolimán	1	Enero	2023-01-18T00:00:00	2024-11-08T03:00:00	5	Humedad	70
101517	7	Sololá	713	San Lucas Tolimán	10	San Lucas Tolimán	1	Enero	2023-01-18T00:00:00	2024-11-08T03:00:00	6	Velocidad del viento	3.2
101518	7	Sololá	713	San Lucas Tolimán	10	San Lucas Tolimán	1	Enero	2023-01-18T00:00:00	2024-11-08T03:00:00	7	Dirección del viento	3.22
101519	7	Sololá	713	San Lucas Tolimán	10	San Lucas Tolimán	1	Enero	2023-01-18T00:00:00	2024-11-08T03:00:00	1	Precipitación	0
101520	7	Sololá	713	San Lucas Tolimán	10	San Lucas Tolimán	1	Enero	2023-01-18T00:00:00	2024-11-08T03:00:00	8	Radiación solar	0
101521	7	Sololá	713	San Lucas Tolimán	10	San Lucas Tolimán	1	Enero	2023-01-18T00:00:00	2024-11-08T04:00:00	2	Temperatura media	12.7
101522	7	Sololá	713	San Lucas Tolimán	10	San Lucas Tolimán	1	Enero	2023-01-18T00:00:00	2024-11-08T04:00:00	4	Temperatura máxima	13.3
101523	7	Sololá	713	San Lucas Tolimán	10	San Lucas Tolimán	1	Enero	2023-01-18T00:00:00	2024-11-08T04:00:00	3	Temperatura mínima	12.4
101524	7	Sololá	713	San Lucas Tolimán	10	San Lucas Tolimán	1	Enero	2023-01-18T00:00:00	2024-11-08T04:00:00	5	Humedad	64
101525	7	Sololá	713	San Lucas Tolimán	10	San Lucas Tolimán	1	Enero	2023-01-18T00:00:00	2024-11-08T04:00:00	6	Velocidad del viento	8
101526	7	Sololá	713	San Lucas Tolimán	10	San Lucas Tolimán	1	Enero	2023-01-18T00:00:00	2024-11-08T04:00:00	7	Dirección del viento	8.05
101527	7	Sololá	713	San Lucas Tolimán	10	San Lucas Tolimán	1	Enero	2023-01-18T00:00:00	2024-11-08T04:00:00	1	Precipitación	0
101528	7	Sololá	713	San Lucas Tolimán	10	San Lucas Tolimán	1	Enero	2023-01-18T00:00:00	2024-11-08T04:00:00	8	Radiación solar	0
101529	7	Sololá	713	San Lucas Tolimán	10	San Lucas Tolimán	1	Enero	2023-01-18T00:00:00	2024-11-08T05:00:00	2	Temperatura media	12.2
101530	7	Sololá	713	San Lucas Tolimán	10	San Lucas Tolimán	1	Enero	2023-01-18T00:00:00	2024-11-08T05:00:00	4	Temperatura máxima	12.8
101531	7	Sololá	713	San Lucas Tolimán	10	San Lucas Tolimán	1	Enero	2023-01-18T00:00:00	2024-11-08T05:00:00	3	Temperatura mínima	12.2
101532	7	Sololá	713	San Lucas Tolimán	10	San Lucas Tolimán	1	Enero	2023-01-18T00:00:00	2024-11-08T05:00:00	5	Humedad	66
101533	7	Sololá	713	San Lucas Tolimán	10	San Lucas Tolimán	1	Enero	2023-01-18T00:00:00	2024-11-08T05:00:00	6	Velocidad del viento	1.6
101534	7	Sololá	713	San Lucas Tolimán	10	San Lucas Tolimán	1	Enero	2023-01-18T00:00:00	2024-11-08T05:00:00	7	Dirección del viento	1.61
101535	7	Sololá	713	San Lucas Tolimán	10	San Lucas Tolimán	1	Enero	2023-01-18T00:00:00	2024-11-08T05:00:00	1	Precipitación	0
101536	7	Sololá	713	San Lucas Tolimán	10	San Lucas Tolimán	1	Enero	2023-01-18T00:00:00	2024-11-08T05:00:00	8	Radiación solar	0
101537	7	Sololá	713	San Lucas Tolimán	10	San Lucas Tolimán	1	Enero	2023-01-18T00:00:00	2024-11-08T06:00:00	2	Temperatura media	12.3
101538	7	Sololá	713	San Lucas Tolimán	10	San Lucas Tolimán	1	Enero	2023-01-18T00:00:00	2024-11-08T06:00:00	4	Temperatura máxima	12.3
101539	7	Sololá	713	San Lucas Tolimán	10	San Lucas Tolimán	1	Enero	2023-01-18T00:00:00	2024-11-08T06:00:00	3	Temperatura mínima	12.1
101540	7	Sololá	713	San Lucas Tolimán	10	San Lucas Tolimán	1	Enero	2023-01-18T00:00:00	2024-11-08T06:00:00	5	Humedad	66
101541	7	Sololá	713	San Lucas Tolimán	10	San Lucas Tolimán	1	Enero	2023-01-18T00:00:00	2024-11-08T06:00:00	6	Velocidad del viento	0
101542	7	Sololá	713	San Lucas Tolimán	10	San Lucas Tolimán	1	Enero	2023-01-18T00:00:00	2024-11-08T06:00:00	7	Dirección del viento	0
101543	7	Sololá	713	San Lucas Tolimán	10	San Lucas Tolimán	1	Enero	2023-01-18T00:00:00	2024-11-08T06:00:00	1	Precipitación	0
101544	7	Sololá	713	San Lucas Tolimán	10	San Lucas Tolimán	1	Enero	2023-01-18T00:00:00	2024-11-08T06:00:00	8	Radiación solar	0
101545	7	Sololá	713	San Lucas Tolimán	10	San Lucas Tolimán	1	Enero	2023-01-18T00:00:00	2024-11-08T07:00:00	2	Temperatura media	12.7
101546	7	Sololá	713	San Lucas Tolimán	10	San Lucas Tolimán	1	Enero	2023-01-18T00:00:00	2024-11-08T07:00:00	4	Temperatura máxima	12.7
101547	7	Sololá	713	San Lucas Tolimán	10	San Lucas Tolimán	1	Enero	2023-01-18T00:00:00	2024-11-08T07:00:00	3	Temperatura mínima	12.1
101548	7	Sololá	713	San Lucas Tolimán	10	San Lucas Tolimán	1	Enero	2023-01-18T00:00:00	2024-11-08T07:00:00	5	Humedad	66
101549	7	Sololá	713	San Lucas Tolimán	10	San Lucas Tolimán	1	Enero	2023-01-18T00:00:00	2024-11-08T07:00:00	6	Velocidad del viento	0
101550	7	Sololá	713	San Lucas Tolimán	10	San Lucas Tolimán	1	Enero	2023-01-18T00:00:00	2024-11-08T07:00:00	7	Dirección del viento	0
101551	7	Sololá	713	San Lucas Tolimán	10	San Lucas Tolimán	1	Enero	2023-01-18T00:00:00	2024-11-08T07:00:00	1	Precipitación	0
101552	7	Sololá	713	San Lucas Tolimán	10	San Lucas Tolimán	1	Enero	2023-01-18T00:00:00	2024-11-08T07:00:00	8	Radiación solar	5
101553	7	Sololá	713	San Lucas Tolimán	10	San Lucas Tolimán	1	Enero	2023-01-18T00:00:00	2024-11-08T08:00:00	2	Temperatura media	14.3
101554	7	Sololá	713	San Lucas Tolimán	10	San Lucas Tolimán	1	Enero	2023-01-18T00:00:00	2024-11-08T08:00:00	4	Temperatura máxima	14.3
101555	7	Sololá	713	San Lucas Tolimán	10	San Lucas Tolimán	1	Enero	2023-01-18T00:00:00	2024-11-08T08:00:00	3	Temperatura mínima	12.7
101556	7	Sololá	713	San Lucas Tolimán	10	San Lucas Tolimán	1	Enero	2023-01-18T00:00:00	2024-11-08T08:00:00	5	Humedad	64
101557	7	Sololá	713	San Lucas Tolimán	10	San Lucas Tolimán	1	Enero	2023-01-18T00:00:00	2024-11-08T08:00:00	6	Velocidad del viento	0
101558	7	Sololá	713	San Lucas Tolimán	10	San Lucas Tolimán	1	Enero	2023-01-18T00:00:00	2024-11-08T08:00:00	7	Dirección del viento	0
101559	7	Sololá	713	San Lucas Tolimán	10	San Lucas Tolimán	1	Enero	2023-01-18T00:00:00	2024-11-08T08:00:00	1	Precipitación	0
101560	7	Sololá	713	San Lucas Tolimán	10	San Lucas Tolimán	1	Enero	2023-01-18T00:00:00	2024-11-08T08:00:00	8	Radiación solar	48
101561	7	Sololá	713	San Lucas Tolimán	10	San Lucas Tolimán	1	Enero	2023-01-18T00:00:00	2024-11-08T09:00:00	2	Temperatura media	16.7
101562	7	Sololá	713	San Lucas Tolimán	10	San Lucas Tolimán	1	Enero	2023-01-18T00:00:00	2024-11-08T09:00:00	4	Temperatura máxima	16.7
101563	7	Sololá	713	San Lucas Tolimán	10	San Lucas Tolimán	1	Enero	2023-01-18T00:00:00	2024-11-08T09:00:00	3	Temperatura mínima	14.3
101564	7	Sololá	713	San Lucas Tolimán	10	San Lucas Tolimán	1	Enero	2023-01-18T00:00:00	2024-11-08T09:00:00	5	Humedad	62
101565	7	Sololá	713	San Lucas Tolimán	10	San Lucas Tolimán	1	Enero	2023-01-18T00:00:00	2024-11-08T09:00:00	6	Velocidad del viento	1.6
101566	7	Sololá	713	San Lucas Tolimán	10	San Lucas Tolimán	1	Enero	2023-01-18T00:00:00	2024-11-08T09:00:00	7	Dirección del viento	1.61
101567	7	Sololá	713	San Lucas Tolimán	10	San Lucas Tolimán	1	Enero	2023-01-18T00:00:00	2024-11-08T09:00:00	1	Precipitación	0
101568	7	Sololá	713	San Lucas Tolimán	10	San Lucas Tolimán	1	Enero	2023-01-18T00:00:00	2024-11-08T09:00:00	8	Radiación solar	235
101569	7	Sololá	713	San Lucas Tolimán	10	San Lucas Tolimán	1	Enero	2023-01-18T00:00:00	2024-11-08T10:00:00	2	Temperatura media	18.8
101570	7	Sololá	713	San Lucas Tolimán	10	San Lucas Tolimán	1	Enero	2023-01-18T00:00:00	2024-11-08T10:00:00	4	Temperatura máxima	18.8
101571	7	Sololá	713	San Lucas Tolimán	10	San Lucas Tolimán	1	Enero	2023-01-18T00:00:00	2024-11-08T10:00:00	3	Temperatura mínima	16.7
101572	7	Sololá	713	San Lucas Tolimán	10	San Lucas Tolimán	1	Enero	2023-01-18T00:00:00	2024-11-08T10:00:00	5	Humedad	57
101573	7	Sololá	713	San Lucas Tolimán	10	San Lucas Tolimán	1	Enero	2023-01-18T00:00:00	2024-11-08T10:00:00	6	Velocidad del viento	4.8
101574	7	Sololá	713	San Lucas Tolimán	10	San Lucas Tolimán	1	Enero	2023-01-18T00:00:00	2024-11-08T10:00:00	7	Dirección del viento	4.83
101575	7	Sololá	713	San Lucas Tolimán	10	San Lucas Tolimán	1	Enero	2023-01-18T00:00:00	2024-11-08T10:00:00	1	Precipitación	0
101576	7	Sololá	713	San Lucas Tolimán	10	San Lucas Tolimán	1	Enero	2023-01-18T00:00:00	2024-11-08T10:00:00	8	Radiación solar	610
101577	7	Sololá	713	San Lucas Tolimán	10	San Lucas Tolimán	1	Enero	2023-01-18T00:00:00	2024-11-08T11:00:00	2	Temperatura media	20.1
101578	7	Sololá	713	San Lucas Tolimán	10	San Lucas Tolimán	1	Enero	2023-01-18T00:00:00	2024-11-08T11:00:00	4	Temperatura máxima	21.6
101579	7	Sololá	713	San Lucas Tolimán	10	San Lucas Tolimán	1	Enero	2023-01-18T00:00:00	2024-11-08T11:00:00	3	Temperatura mínima	18.8
101580	7	Sololá	713	San Lucas Tolimán	10	San Lucas Tolimán	1	Enero	2023-01-18T00:00:00	2024-11-08T11:00:00	5	Humedad	52
101581	7	Sololá	713	San Lucas Tolimán	10	San Lucas Tolimán	1	Enero	2023-01-18T00:00:00	2024-11-08T11:00:00	6	Velocidad del viento	6.4
101582	7	Sololá	713	San Lucas Tolimán	10	San Lucas Tolimán	1	Enero	2023-01-18T00:00:00	2024-11-08T11:00:00	7	Dirección del viento	6.44
101583	7	Sololá	713	San Lucas Tolimán	10	San Lucas Tolimán	1	Enero	2023-01-18T00:00:00	2024-11-08T11:00:00	1	Precipitación	0
101584	7	Sololá	713	San Lucas Tolimán	10	San Lucas Tolimán	1	Enero	2023-01-18T00:00:00	2024-11-08T11:00:00	8	Radiación solar	763
101585	7	Sololá	713	San Lucas Tolimán	10	San Lucas Tolimán	1	Enero	2023-01-18T00:00:00	2024-11-08T12:00:00	2	Temperatura media	20.7
101586	7	Sololá	713	San Lucas Tolimán	10	San Lucas Tolimán	1	Enero	2023-01-18T00:00:00	2024-11-08T12:00:00	4	Temperatura máxima	21.4
101587	7	Sololá	713	San Lucas Tolimán	10	San Lucas Tolimán	1	Enero	2023-01-18T00:00:00	2024-11-08T12:00:00	3	Temperatura mínima	20.1
101588	7	Sololá	713	San Lucas Tolimán	10	San Lucas Tolimán	1	Enero	2023-01-18T00:00:00	2024-11-08T12:00:00	5	Humedad	55
101589	7	Sololá	713	San Lucas Tolimán	10	San Lucas Tolimán	1	Enero	2023-01-18T00:00:00	2024-11-08T12:00:00	6	Velocidad del viento	8
101590	7	Sololá	713	San Lucas Tolimán	10	San Lucas Tolimán	1	Enero	2023-01-18T00:00:00	2024-11-08T12:00:00	7	Dirección del viento	8.05
101591	7	Sololá	713	San Lucas Tolimán	10	San Lucas Tolimán	1	Enero	2023-01-18T00:00:00	2024-11-08T12:00:00	1	Precipitación	0
101592	7	Sololá	713	San Lucas Tolimán	10	San Lucas Tolimán	1	Enero	2023-01-18T00:00:00	2024-11-08T12:00:00	8	Radiación solar	853
101593	7	Sololá	713	San Lucas Tolimán	10	San Lucas Tolimán	1	Enero	2023-01-18T00:00:00	2024-11-08T13:00:00	2	Temperatura media	20.8
101594	7	Sololá	713	San Lucas Tolimán	10	San Lucas Tolimán	1	Enero	2023-01-18T00:00:00	2024-11-08T13:00:00	4	Temperatura máxima	20.9
101595	7	Sololá	713	San Lucas Tolimán	10	San Lucas Tolimán	1	Enero	2023-01-18T00:00:00	2024-11-08T13:00:00	3	Temperatura mínima	19.9
101596	7	Sololá	713	San Lucas Tolimán	10	San Lucas Tolimán	1	Enero	2023-01-18T00:00:00	2024-11-08T13:00:00	5	Humedad	57
101597	7	Sololá	713	San Lucas Tolimán	10	San Lucas Tolimán	1	Enero	2023-01-18T00:00:00	2024-11-08T13:00:00	6	Velocidad del viento	9.7
101598	7	Sololá	713	San Lucas Tolimán	10	San Lucas Tolimán	1	Enero	2023-01-18T00:00:00	2024-11-08T13:00:00	7	Dirección del viento	9.66
101599	7	Sololá	713	San Lucas Tolimán	10	San Lucas Tolimán	1	Enero	2023-01-18T00:00:00	2024-11-08T13:00:00	1	Precipitación	0
101600	7	Sololá	713	San Lucas Tolimán	10	San Lucas Tolimán	1	Enero	2023-01-18T00:00:00	2024-11-08T13:00:00	8	Radiación solar	747
101601	7	Sololá	713	San Lucas Tolimán	10	San Lucas Tolimán	1	Enero	2023-01-18T00:00:00	2024-11-08T14:00:00	2	Temperatura media	19.4
101602	7	Sololá	713	San Lucas Tolimán	10	San Lucas Tolimán	1	Enero	2023-01-18T00:00:00	2024-11-08T14:00:00	4	Temperatura máxima	20.8
101603	7	Sololá	713	San Lucas Tolimán	10	San Lucas Tolimán	1	Enero	2023-01-18T00:00:00	2024-11-08T14:00:00	3	Temperatura mínima	19.4
101604	7	Sololá	713	San Lucas Tolimán	10	San Lucas Tolimán	1	Enero	2023-01-18T00:00:00	2024-11-08T14:00:00	5	Humedad	63
101605	7	Sololá	713	San Lucas Tolimán	10	San Lucas Tolimán	1	Enero	2023-01-18T00:00:00	2024-11-08T14:00:00	6	Velocidad del viento	11.3
101606	7	Sololá	713	San Lucas Tolimán	10	San Lucas Tolimán	1	Enero	2023-01-18T00:00:00	2024-11-08T14:00:00	7	Dirección del viento	11.27
101607	7	Sololá	713	San Lucas Tolimán	10	San Lucas Tolimán	1	Enero	2023-01-18T00:00:00	2024-11-08T14:00:00	1	Precipitación	0
101608	7	Sololá	713	San Lucas Tolimán	10	San Lucas Tolimán	1	Enero	2023-01-18T00:00:00	2024-11-08T14:00:00	8	Radiación solar	400
101609	7	Sololá	713	San Lucas Tolimán	10	San Lucas Tolimán	1	Enero	2023-01-18T00:00:00	2024-11-08T15:00:00	2	Temperatura media	18.7
101610	7	Sololá	713	San Lucas Tolimán	10	San Lucas Tolimán	1	Enero	2023-01-18T00:00:00	2024-11-08T15:00:00	4	Temperatura máxima	19.4
101611	7	Sololá	713	San Lucas Tolimán	10	San Lucas Tolimán	1	Enero	2023-01-18T00:00:00	2024-11-08T15:00:00	3	Temperatura mínima	18.2
101612	7	Sololá	713	San Lucas Tolimán	10	San Lucas Tolimán	1	Enero	2023-01-18T00:00:00	2024-11-08T15:00:00	5	Humedad	64
101613	7	Sololá	713	San Lucas Tolimán	10	San Lucas Tolimán	1	Enero	2023-01-18T00:00:00	2024-11-08T15:00:00	6	Velocidad del viento	11.3
101614	7	Sololá	713	San Lucas Tolimán	10	San Lucas Tolimán	1	Enero	2023-01-18T00:00:00	2024-11-08T15:00:00	7	Dirección del viento	11.27
101615	7	Sololá	713	San Lucas Tolimán	10	San Lucas Tolimán	1	Enero	2023-01-18T00:00:00	2024-11-08T15:00:00	1	Precipitación	0
101616	7	Sololá	713	San Lucas Tolimán	10	San Lucas Tolimán	1	Enero	2023-01-18T00:00:00	2024-11-08T15:00:00	8	Radiación solar	319
101617	7	Sololá	713	San Lucas Tolimán	10	San Lucas Tolimán	1	Enero	2023-01-18T00:00:00	2024-11-08T16:00:00	2	Temperatura media	18.1
101618	7	Sololá	713	San Lucas Tolimán	10	San Lucas Tolimán	1	Enero	2023-01-18T00:00:00	2024-11-08T16:00:00	4	Temperatura máxima	19
101619	7	Sololá	713	San Lucas Tolimán	10	San Lucas Tolimán	1	Enero	2023-01-18T00:00:00	2024-11-08T16:00:00	3	Temperatura mínima	18.1
101620	7	Sololá	713	San Lucas Tolimán	10	San Lucas Tolimán	1	Enero	2023-01-18T00:00:00	2024-11-08T16:00:00	5	Humedad	64
101621	7	Sololá	713	San Lucas Tolimán	10	San Lucas Tolimán	1	Enero	2023-01-18T00:00:00	2024-11-08T16:00:00	6	Velocidad del viento	9.7
101622	7	Sololá	713	San Lucas Tolimán	10	San Lucas Tolimán	1	Enero	2023-01-18T00:00:00	2024-11-08T16:00:00	7	Dirección del viento	9.66
101623	7	Sololá	713	San Lucas Tolimán	10	San Lucas Tolimán	1	Enero	2023-01-18T00:00:00	2024-11-08T16:00:00	1	Precipitación	0
101624	7	Sololá	713	San Lucas Tolimán	10	San Lucas Tolimán	1	Enero	2023-01-18T00:00:00	2024-11-08T16:00:00	8	Radiación solar	220
101625	7	Sololá	713	San Lucas Tolimán	10	San Lucas Tolimán	1	Enero	2023-01-18T00:00:00	2024-11-08T17:00:00	2	Temperatura media	17.4
101626	7	Sololá	713	San Lucas Tolimán	10	San Lucas Tolimán	1	Enero	2023-01-18T00:00:00	2024-11-08T17:00:00	4	Temperatura máxima	18.1
101627	7	Sololá	713	San Lucas Tolimán	10	San Lucas Tolimán	1	Enero	2023-01-18T00:00:00	2024-11-08T17:00:00	3	Temperatura mínima	17.4
101628	7	Sololá	713	San Lucas Tolimán	10	San Lucas Tolimán	1	Enero	2023-01-18T00:00:00	2024-11-08T17:00:00	5	Humedad	66
101629	7	Sololá	713	San Lucas Tolimán	10	San Lucas Tolimán	1	Enero	2023-01-18T00:00:00	2024-11-08T17:00:00	6	Velocidad del viento	11.3
101630	7	Sololá	713	San Lucas Tolimán	10	San Lucas Tolimán	1	Enero	2023-01-18T00:00:00	2024-11-08T17:00:00	7	Dirección del viento	11.27
101631	7	Sololá	713	San Lucas Tolimán	10	San Lucas Tolimán	1	Enero	2023-01-18T00:00:00	2024-11-08T17:00:00	1	Precipitación	0
101632	7	Sololá	713	San Lucas Tolimán	10	San Lucas Tolimán	1	Enero	2023-01-18T00:00:00	2024-11-08T17:00:00	8	Radiación solar	83
101633	7	Sololá	713	San Lucas Tolimán	10	San Lucas Tolimán	1	Enero	2023-01-18T00:00:00	2024-11-08T18:00:00	2	Temperatura media	17
101634	7	Sololá	713	San Lucas Tolimán	10	San Lucas Tolimán	1	Enero	2023-01-18T00:00:00	2024-11-08T18:00:00	4	Temperatura máxima	17.4
101635	7	Sololá	713	San Lucas Tolimán	10	San Lucas Tolimán	1	Enero	2023-01-18T00:00:00	2024-11-08T18:00:00	3	Temperatura mínima	16.9
101636	7	Sololá	713	San Lucas Tolimán	10	San Lucas Tolimán	1	Enero	2023-01-18T00:00:00	2024-11-08T18:00:00	5	Humedad	64
101637	7	Sololá	713	San Lucas Tolimán	10	San Lucas Tolimán	1	Enero	2023-01-18T00:00:00	2024-11-08T18:00:00	6	Velocidad del viento	8
101638	7	Sololá	713	San Lucas Tolimán	10	San Lucas Tolimán	1	Enero	2023-01-18T00:00:00	2024-11-08T18:00:00	7	Dirección del viento	8.05
101639	7	Sololá	713	San Lucas Tolimán	10	San Lucas Tolimán	1	Enero	2023-01-18T00:00:00	2024-11-08T18:00:00	1	Precipitación	0
101640	7	Sololá	713	San Lucas Tolimán	10	San Lucas Tolimán	1	Enero	2023-01-18T00:00:00	2024-11-08T18:00:00	8	Radiación solar	24
101641	7	Sololá	713	San Lucas Tolimán	10	San Lucas Tolimán	1	Enero	2023-01-18T00:00:00	2024-11-08T19:00:00	2	Temperatura media	16.6
101642	7	Sololá	713	San Lucas Tolimán	10	San Lucas Tolimán	1	Enero	2023-01-18T00:00:00	2024-11-08T19:00:00	4	Temperatura máxima	17.1
101643	7	Sololá	713	San Lucas Tolimán	10	San Lucas Tolimán	1	Enero	2023-01-18T00:00:00	2024-11-08T19:00:00	3	Temperatura mínima	16.5
101644	7	Sololá	713	San Lucas Tolimán	10	San Lucas Tolimán	1	Enero	2023-01-18T00:00:00	2024-11-08T19:00:00	5	Humedad	65
101645	7	Sololá	713	San Lucas Tolimán	10	San Lucas Tolimán	1	Enero	2023-01-18T00:00:00	2024-11-08T19:00:00	6	Velocidad del viento	6.4
101646	7	Sololá	713	San Lucas Tolimán	10	San Lucas Tolimán	1	Enero	2023-01-18T00:00:00	2024-11-08T19:00:00	7	Dirección del viento	6.44
101647	7	Sololá	713	San Lucas Tolimán	10	San Lucas Tolimán	1	Enero	2023-01-18T00:00:00	2024-11-08T19:00:00	1	Precipitación	0
101648	7	Sololá	713	San Lucas Tolimán	10	San Lucas Tolimán	1	Enero	2023-01-18T00:00:00	2024-11-08T19:00:00	8	Radiación solar	0
101649	7	Sololá	713	San Lucas Tolimán	10	San Lucas Tolimán	1	Enero	2023-01-18T00:00:00	2024-11-08T20:00:00	2	Temperatura media	16.1
101650	7	Sololá	713	San Lucas Tolimán	10	San Lucas Tolimán	1	Enero	2023-01-18T00:00:00	2024-11-08T20:00:00	4	Temperatura máxima	16.6
101651	7	Sololá	713	San Lucas Tolimán	10	San Lucas Tolimán	1	Enero	2023-01-18T00:00:00	2024-11-08T20:00:00	3	Temperatura mínima	16.1
101652	7	Sololá	713	San Lucas Tolimán	10	San Lucas Tolimán	1	Enero	2023-01-18T00:00:00	2024-11-08T20:00:00	5	Humedad	65
101653	7	Sololá	713	San Lucas Tolimán	10	San Lucas Tolimán	1	Enero	2023-01-18T00:00:00	2024-11-08T20:00:00	6	Velocidad del viento	6.4
101654	7	Sololá	713	San Lucas Tolimán	10	San Lucas Tolimán	1	Enero	2023-01-18T00:00:00	2024-11-08T20:00:00	7	Dirección del viento	6.44
101655	7	Sololá	713	San Lucas Tolimán	10	San Lucas Tolimán	1	Enero	2023-01-18T00:00:00	2024-11-08T20:00:00	1	Precipitación	0
101656	7	Sololá	713	San Lucas Tolimán	10	San Lucas Tolimán	1	Enero	2023-01-18T00:00:00	2024-11-08T20:00:00	8	Radiación solar	0
101657	7	Sololá	713	San Lucas Tolimán	10	San Lucas Tolimán	1	Enero	2023-01-18T00:00:00	2024-11-08T21:00:00	2	Temperatura media	15.8
101658	7	Sololá	713	San Lucas Tolimán	10	San Lucas Tolimán	1	Enero	2023-01-18T00:00:00	2024-11-08T21:00:00	4	Temperatura máxima	16.2
101659	7	Sololá	713	San Lucas Tolimán	10	San Lucas Tolimán	1	Enero	2023-01-18T00:00:00	2024-11-08T21:00:00	3	Temperatura mínima	15.7
101660	7	Sololá	713	San Lucas Tolimán	10	San Lucas Tolimán	1	Enero	2023-01-18T00:00:00	2024-11-08T21:00:00	5	Humedad	64
101661	7	Sololá	713	San Lucas Tolimán	10	San Lucas Tolimán	1	Enero	2023-01-18T00:00:00	2024-11-08T21:00:00	6	Velocidad del viento	4.8
101662	7	Sololá	713	San Lucas Tolimán	10	San Lucas Tolimán	1	Enero	2023-01-18T00:00:00	2024-11-08T21:00:00	7	Dirección del viento	4.83
101663	7	Sololá	713	San Lucas Tolimán	10	San Lucas Tolimán	1	Enero	2023-01-18T00:00:00	2024-11-08T21:00:00	1	Precipitación	0
101664	7	Sololá	713	San Lucas Tolimán	10	San Lucas Tolimán	1	Enero	2023-01-18T00:00:00	2024-11-08T21:00:00	8	Radiación solar	0
101665	7	Sololá	713	San Lucas Tolimán	10	San Lucas Tolimán	1	Enero	2023-01-18T00:00:00	2024-11-08T22:00:00	2	Temperatura media	15.2
101666	7	Sololá	713	San Lucas Tolimán	10	San Lucas Tolimán	1	Enero	2023-01-18T00:00:00	2024-11-08T22:00:00	4	Temperatura máxima	15.8
101667	7	Sololá	713	San Lucas Tolimán	10	San Lucas Tolimán	1	Enero	2023-01-18T00:00:00	2024-11-08T22:00:00	3	Temperatura mínima	15.2
101668	7	Sololá	713	San Lucas Tolimán	10	San Lucas Tolimán	1	Enero	2023-01-18T00:00:00	2024-11-08T22:00:00	5	Humedad	64
101669	7	Sololá	713	San Lucas Tolimán	10	San Lucas Tolimán	1	Enero	2023-01-18T00:00:00	2024-11-08T22:00:00	6	Velocidad del viento	6.4
101670	7	Sololá	713	San Lucas Tolimán	10	San Lucas Tolimán	1	Enero	2023-01-18T00:00:00	2024-11-08T22:00:00	7	Dirección del viento	6.44
101671	7	Sololá	713	San Lucas Tolimán	10	San Lucas Tolimán	1	Enero	2023-01-18T00:00:00	2024-11-08T22:00:00	1	Precipitación	0
101672	7	Sololá	713	San Lucas Tolimán	10	San Lucas Tolimán	1	Enero	2023-01-18T00:00:00	2024-11-08T22:00:00	8	Radiación solar	0
101673	7	Sololá	713	San Lucas Tolimán	10	San Lucas Tolimán	1	Enero	2023-01-18T00:00:00	2024-11-08T23:00:00	2	Temperatura media	14.8
101674	7	Sololá	713	San Lucas Tolimán	10	San Lucas Tolimán	1	Enero	2023-01-18T00:00:00	2024-11-08T23:00:00	4	Temperatura máxima	15.3
101675	7	Sololá	713	San Lucas Tolimán	10	San Lucas Tolimán	1	Enero	2023-01-18T00:00:00	2024-11-08T23:00:00	3	Temperatura mínima	14.8
101676	7	Sololá	713	San Lucas Tolimán	10	San Lucas Tolimán	1	Enero	2023-01-18T00:00:00	2024-11-08T23:00:00	5	Humedad	63
101677	7	Sololá	713	San Lucas Tolimán	10	San Lucas Tolimán	1	Enero	2023-01-18T00:00:00	2024-11-08T23:00:00	6	Velocidad del viento	6.4
101678	7	Sololá	713	San Lucas Tolimán	10	San Lucas Tolimán	1	Enero	2023-01-18T00:00:00	2024-11-08T23:00:00	7	Dirección del viento	6.44
101679	7	Sololá	713	San Lucas Tolimán	10	San Lucas Tolimán	1	Enero	2023-01-18T00:00:00	2024-11-08T23:00:00	1	Precipitación	0
101680	7	Sololá	713	San Lucas Tolimán	10	San Lucas Tolimán	1	Enero	2023-01-18T00:00:00	2024-11-08T23:00:00	8	Radiación solar	0
101681	7	Sololá	713	San Lucas Tolimán	10	San Lucas Tolimán	1	Enero	2023-01-19T00:00:00	2024-11-08T00:00:00	2	Temperatura media	14.7
101682	7	Sololá	713	San Lucas Tolimán	10	San Lucas Tolimán	1	Enero	2023-01-19T00:00:00	2024-11-08T00:00:00	4	Temperatura máxima	15.2
101683	7	Sololá	713	San Lucas Tolimán	10	San Lucas Tolimán	1	Enero	2023-01-19T00:00:00	2024-11-08T00:00:00	3	Temperatura mínima	14.7
101684	7	Sololá	713	San Lucas Tolimán	10	San Lucas Tolimán	1	Enero	2023-01-19T00:00:00	2024-11-08T00:00:00	5	Humedad	66
101685	7	Sololá	713	San Lucas Tolimán	10	San Lucas Tolimán	1	Enero	2023-01-19T00:00:00	2024-11-08T00:00:00	6	Velocidad del viento	6.4
101686	7	Sololá	713	San Lucas Tolimán	10	San Lucas Tolimán	1	Enero	2023-01-19T00:00:00	2024-11-08T00:00:00	7	Dirección del viento	6.44
101687	7	Sololá	713	San Lucas Tolimán	10	San Lucas Tolimán	1	Enero	2023-01-19T00:00:00	2024-11-08T00:00:00	1	Precipitación	0
101688	7	Sololá	713	San Lucas Tolimán	10	San Lucas Tolimán	1	Enero	2023-01-19T00:00:00	2024-11-08T00:00:00	8	Radiación solar	0
101689	7	Sololá	713	San Lucas Tolimán	10	San Lucas Tolimán	1	Enero	2023-01-19T00:00:00	2024-11-08T01:00:00	2	Temperatura media	14.1
101690	7	Sololá	713	San Lucas Tolimán	10	San Lucas Tolimán	1	Enero	2023-01-19T00:00:00	2024-11-08T01:00:00	4	Temperatura máxima	14.7
101691	7	Sololá	713	San Lucas Tolimán	10	San Lucas Tolimán	1	Enero	2023-01-19T00:00:00	2024-11-08T01:00:00	3	Temperatura mínima	14
101692	7	Sololá	713	San Lucas Tolimán	10	San Lucas Tolimán	1	Enero	2023-01-19T00:00:00	2024-11-08T01:00:00	5	Humedad	69
101693	7	Sololá	713	San Lucas Tolimán	10	San Lucas Tolimán	1	Enero	2023-01-19T00:00:00	2024-11-08T01:00:00	6	Velocidad del viento	6.4
101694	7	Sololá	713	San Lucas Tolimán	10	San Lucas Tolimán	1	Enero	2023-01-19T00:00:00	2024-11-08T01:00:00	7	Dirección del viento	6.44
101695	7	Sololá	713	San Lucas Tolimán	10	San Lucas Tolimán	1	Enero	2023-01-19T00:00:00	2024-11-08T01:00:00	1	Precipitación	0
101696	7	Sololá	713	San Lucas Tolimán	10	San Lucas Tolimán	1	Enero	2023-01-19T00:00:00	2024-11-08T01:00:00	8	Radiación solar	0
101697	7	Sololá	713	San Lucas Tolimán	10	San Lucas Tolimán	1	Enero	2023-01-19T00:00:00	2024-11-08T02:00:00	2	Temperatura media	14.5
101698	7	Sololá	713	San Lucas Tolimán	10	San Lucas Tolimán	1	Enero	2023-01-19T00:00:00	2024-11-08T02:00:00	4	Temperatura máxima	14.7
101699	7	Sololá	713	San Lucas Tolimán	10	San Lucas Tolimán	1	Enero	2023-01-19T00:00:00	2024-11-08T02:00:00	3	Temperatura mínima	14
101700	7	Sololá	713	San Lucas Tolimán	10	San Lucas Tolimán	1	Enero	2023-01-19T00:00:00	2024-11-08T02:00:00	5	Humedad	65
101701	7	Sololá	713	San Lucas Tolimán	10	San Lucas Tolimán	1	Enero	2023-01-19T00:00:00	2024-11-08T02:00:00	6	Velocidad del viento	6.4
101702	7	Sololá	713	San Lucas Tolimán	10	San Lucas Tolimán	1	Enero	2023-01-19T00:00:00	2024-11-08T02:00:00	7	Dirección del viento	6.44
101703	7	Sololá	713	San Lucas Tolimán	10	San Lucas Tolimán	1	Enero	2023-01-19T00:00:00	2024-11-08T02:00:00	1	Precipitación	0
101704	7	Sololá	713	San Lucas Tolimán	10	San Lucas Tolimán	1	Enero	2023-01-19T00:00:00	2024-11-08T02:00:00	8	Radiación solar	0
101705	7	Sololá	713	San Lucas Tolimán	10	San Lucas Tolimán	1	Enero	2023-01-19T00:00:00	2024-11-08T03:00:00	2	Temperatura media	12.8
101706	7	Sololá	713	San Lucas Tolimán	10	San Lucas Tolimán	1	Enero	2023-01-19T00:00:00	2024-11-08T03:00:00	4	Temperatura máxima	14.6
101707	7	Sololá	713	San Lucas Tolimán	10	San Lucas Tolimán	1	Enero	2023-01-19T00:00:00	2024-11-08T03:00:00	3	Temperatura mínima	12.8
101708	7	Sololá	713	San Lucas Tolimán	10	San Lucas Tolimán	1	Enero	2023-01-19T00:00:00	2024-11-08T03:00:00	5	Humedad	64
101709	7	Sololá	713	San Lucas Tolimán	10	San Lucas Tolimán	1	Enero	2023-01-19T00:00:00	2024-11-08T03:00:00	6	Velocidad del viento	4.8
101710	7	Sololá	713	San Lucas Tolimán	10	San Lucas Tolimán	1	Enero	2023-01-19T00:00:00	2024-11-08T03:00:00	7	Dirección del viento	4.83
101711	7	Sololá	713	San Lucas Tolimán	10	San Lucas Tolimán	1	Enero	2023-01-19T00:00:00	2024-11-08T03:00:00	1	Precipitación	0
101712	7	Sololá	713	San Lucas Tolimán	10	San Lucas Tolimán	1	Enero	2023-01-19T00:00:00	2024-11-08T03:00:00	8	Radiación solar	0
101713	7	Sololá	713	San Lucas Tolimán	10	San Lucas Tolimán	1	Enero	2023-01-19T00:00:00	2024-11-08T04:00:00	2	Temperatura media	12.5
101714	7	Sololá	713	San Lucas Tolimán	10	San Lucas Tolimán	1	Enero	2023-01-19T00:00:00	2024-11-08T04:00:00	4	Temperatura máxima	12.9
101715	7	Sololá	713	San Lucas Tolimán	10	San Lucas Tolimán	1	Enero	2023-01-19T00:00:00	2024-11-08T04:00:00	3	Temperatura mínima	12.5
101716	7	Sololá	713	San Lucas Tolimán	10	San Lucas Tolimán	1	Enero	2023-01-19T00:00:00	2024-11-08T04:00:00	5	Humedad	63
101717	7	Sololá	713	San Lucas Tolimán	10	San Lucas Tolimán	1	Enero	2023-01-19T00:00:00	2024-11-08T04:00:00	6	Velocidad del viento	4.8
101718	7	Sololá	713	San Lucas Tolimán	10	San Lucas Tolimán	1	Enero	2023-01-19T00:00:00	2024-11-08T04:00:00	7	Dirección del viento	4.83
101719	7	Sololá	713	San Lucas Tolimán	10	San Lucas Tolimán	1	Enero	2023-01-19T00:00:00	2024-11-08T04:00:00	1	Precipitación	0
101720	7	Sololá	713	San Lucas Tolimán	10	San Lucas Tolimán	1	Enero	2023-01-19T00:00:00	2024-11-08T04:00:00	8	Radiación solar	0
101721	7	Sololá	713	San Lucas Tolimán	10	San Lucas Tolimán	1	Enero	2023-01-19T00:00:00	2024-11-08T05:00:00	2	Temperatura media	13.4
101722	7	Sololá	713	San Lucas Tolimán	10	San Lucas Tolimán	1	Enero	2023-01-19T00:00:00	2024-11-08T05:00:00	4	Temperatura máxima	13.4
101723	7	Sololá	713	San Lucas Tolimán	10	San Lucas Tolimán	1	Enero	2023-01-19T00:00:00	2024-11-08T05:00:00	3	Temperatura mínima	12.1
101724	7	Sololá	713	San Lucas Tolimán	10	San Lucas Tolimán	1	Enero	2023-01-19T00:00:00	2024-11-08T05:00:00	5	Humedad	64
101725	7	Sololá	713	San Lucas Tolimán	10	San Lucas Tolimán	1	Enero	2023-01-19T00:00:00	2024-11-08T05:00:00	6	Velocidad del viento	1.6
101726	7	Sololá	713	San Lucas Tolimán	10	San Lucas Tolimán	1	Enero	2023-01-19T00:00:00	2024-11-08T05:00:00	7	Dirección del viento	1.61
101727	7	Sololá	713	San Lucas Tolimán	10	San Lucas Tolimán	1	Enero	2023-01-19T00:00:00	2024-11-08T05:00:00	1	Precipitación	0
101728	7	Sololá	713	San Lucas Tolimán	10	San Lucas Tolimán	1	Enero	2023-01-19T00:00:00	2024-11-08T05:00:00	8	Radiación solar	0
101729	7	Sololá	713	San Lucas Tolimán	10	San Lucas Tolimán	1	Enero	2023-01-19T00:00:00	2024-11-08T06:00:00	2	Temperatura media	12.7
101730	7	Sololá	713	San Lucas Tolimán	10	San Lucas Tolimán	1	Enero	2023-01-19T00:00:00	2024-11-08T06:00:00	4	Temperatura máxima	13.6
101731	7	Sololá	713	San Lucas Tolimán	10	San Lucas Tolimán	1	Enero	2023-01-19T00:00:00	2024-11-08T06:00:00	3	Temperatura mínima	12.6
101732	7	Sololá	713	San Lucas Tolimán	10	San Lucas Tolimán	1	Enero	2023-01-19T00:00:00	2024-11-08T06:00:00	5	Humedad	64
101733	7	Sololá	713	San Lucas Tolimán	10	San Lucas Tolimán	1	Enero	2023-01-19T00:00:00	2024-11-08T06:00:00	6	Velocidad del viento	1.6
101734	7	Sololá	713	San Lucas Tolimán	10	San Lucas Tolimán	1	Enero	2023-01-19T00:00:00	2024-11-08T06:00:00	7	Dirección del viento	1.61
101735	7	Sololá	713	San Lucas Tolimán	10	San Lucas Tolimán	1	Enero	2023-01-19T00:00:00	2024-11-08T06:00:00	1	Precipitación	0
101736	7	Sololá	713	San Lucas Tolimán	10	San Lucas Tolimán	1	Enero	2023-01-19T00:00:00	2024-11-08T06:00:00	8	Radiación solar	0
101737	7	Sololá	713	San Lucas Tolimán	10	San Lucas Tolimán	1	Enero	2023-01-19T00:00:00	2024-11-08T07:00:00	2	Temperatura media	10.4
101738	7	Sololá	713	San Lucas Tolimán	10	San Lucas Tolimán	1	Enero	2023-01-19T00:00:00	2024-11-08T07:00:00	4	Temperatura máxima	12.7
101739	7	Sololá	713	San Lucas Tolimán	10	San Lucas Tolimán	1	Enero	2023-01-19T00:00:00	2024-11-08T07:00:00	3	Temperatura mínima	10.2
101740	7	Sololá	713	San Lucas Tolimán	10	San Lucas Tolimán	1	Enero	2023-01-19T00:00:00	2024-11-08T07:00:00	5	Humedad	62
101741	7	Sololá	713	San Lucas Tolimán	10	San Lucas Tolimán	1	Enero	2023-01-19T00:00:00	2024-11-08T07:00:00	6	Velocidad del viento	3.2
101742	7	Sololá	713	San Lucas Tolimán	10	San Lucas Tolimán	1	Enero	2023-01-19T00:00:00	2024-11-08T07:00:00	7	Dirección del viento	3.22
101743	7	Sololá	713	San Lucas Tolimán	10	San Lucas Tolimán	1	Enero	2023-01-19T00:00:00	2024-11-08T07:00:00	1	Precipitación	0
101744	7	Sololá	713	San Lucas Tolimán	10	San Lucas Tolimán	1	Enero	2023-01-19T00:00:00	2024-11-08T07:00:00	8	Radiación solar	4
101745	7	Sololá	713	San Lucas Tolimán	10	San Lucas Tolimán	1	Enero	2023-01-19T00:00:00	2024-11-08T08:00:00	2	Temperatura media	11.4
101746	7	Sololá	713	San Lucas Tolimán	10	San Lucas Tolimán	1	Enero	2023-01-19T00:00:00	2024-11-08T08:00:00	4	Temperatura máxima	11.5
101747	7	Sololá	713	San Lucas Tolimán	10	San Lucas Tolimán	1	Enero	2023-01-19T00:00:00	2024-11-08T08:00:00	3	Temperatura mínima	10.4
101748	7	Sololá	713	San Lucas Tolimán	10	San Lucas Tolimán	1	Enero	2023-01-19T00:00:00	2024-11-08T08:00:00	5	Humedad	63
101749	7	Sololá	713	San Lucas Tolimán	10	San Lucas Tolimán	1	Enero	2023-01-19T00:00:00	2024-11-08T08:00:00	6	Velocidad del viento	1.6
101750	7	Sololá	713	San Lucas Tolimán	10	San Lucas Tolimán	1	Enero	2023-01-19T00:00:00	2024-11-08T08:00:00	7	Dirección del viento	1.61
101751	7	Sololá	713	San Lucas Tolimán	10	San Lucas Tolimán	1	Enero	2023-01-19T00:00:00	2024-11-08T08:00:00	1	Precipitación	0
101752	7	Sololá	713	San Lucas Tolimán	10	San Lucas Tolimán	1	Enero	2023-01-19T00:00:00	2024-11-08T08:00:00	8	Radiación solar	22
101753	7	Sololá	713	San Lucas Tolimán	10	San Lucas Tolimán	1	Enero	2023-01-19T00:00:00	2024-11-08T09:00:00	2	Temperatura media	17.3
101754	7	Sololá	713	San Lucas Tolimán	10	San Lucas Tolimán	1	Enero	2023-01-19T00:00:00	2024-11-08T09:00:00	4	Temperatura máxima	17.3
101755	7	Sololá	713	San Lucas Tolimán	10	San Lucas Tolimán	1	Enero	2023-01-19T00:00:00	2024-11-08T09:00:00	3	Temperatura mínima	11.4
101756	7	Sololá	713	San Lucas Tolimán	10	San Lucas Tolimán	1	Enero	2023-01-19T00:00:00	2024-11-08T09:00:00	5	Humedad	48
101757	7	Sololá	713	San Lucas Tolimán	10	San Lucas Tolimán	1	Enero	2023-01-19T00:00:00	2024-11-08T09:00:00	6	Velocidad del viento	1.6
101758	7	Sololá	713	San Lucas Tolimán	10	San Lucas Tolimán	1	Enero	2023-01-19T00:00:00	2024-11-08T09:00:00	7	Dirección del viento	1.61
101759	7	Sololá	713	San Lucas Tolimán	10	San Lucas Tolimán	1	Enero	2023-01-19T00:00:00	2024-11-08T09:00:00	1	Precipitación	0
101760	7	Sololá	713	San Lucas Tolimán	10	San Lucas Tolimán	1	Enero	2023-01-19T00:00:00	2024-11-08T09:00:00	8	Radiación solar	295
101761	7	Sololá	713	San Lucas Tolimán	10	San Lucas Tolimán	1	Enero	2023-01-19T00:00:00	2024-11-08T10:00:00	2	Temperatura media	18.9
101762	7	Sololá	713	San Lucas Tolimán	10	San Lucas Tolimán	1	Enero	2023-01-19T00:00:00	2024-11-08T10:00:00	4	Temperatura máxima	19.3
101763	7	Sololá	713	San Lucas Tolimán	10	San Lucas Tolimán	1	Enero	2023-01-19T00:00:00	2024-11-08T10:00:00	3	Temperatura mínima	17.3
101764	7	Sololá	713	San Lucas Tolimán	10	San Lucas Tolimán	1	Enero	2023-01-19T00:00:00	2024-11-08T10:00:00	5	Humedad	42
101765	7	Sololá	713	San Lucas Tolimán	10	San Lucas Tolimán	1	Enero	2023-01-19T00:00:00	2024-11-08T10:00:00	6	Velocidad del viento	6.4
101766	7	Sololá	713	San Lucas Tolimán	10	San Lucas Tolimán	1	Enero	2023-01-19T00:00:00	2024-11-08T10:00:00	7	Dirección del viento	6.44
101767	7	Sololá	713	San Lucas Tolimán	10	San Lucas Tolimán	1	Enero	2023-01-19T00:00:00	2024-11-08T10:00:00	1	Precipitación	0
101768	7	Sololá	713	San Lucas Tolimán	10	San Lucas Tolimán	1	Enero	2023-01-19T00:00:00	2024-11-08T10:00:00	8	Radiación solar	627
101769	7	Sololá	713	San Lucas Tolimán	10	San Lucas Tolimán	1	Enero	2023-01-19T00:00:00	2024-11-08T11:00:00	2	Temperatura media	19.9
101770	7	Sololá	713	San Lucas Tolimán	10	San Lucas Tolimán	1	Enero	2023-01-19T00:00:00	2024-11-08T11:00:00	4	Temperatura máxima	20
101771	7	Sololá	713	San Lucas Tolimán	10	San Lucas Tolimán	1	Enero	2023-01-19T00:00:00	2024-11-08T11:00:00	3	Temperatura mínima	18.8
101772	7	Sololá	713	San Lucas Tolimán	10	San Lucas Tolimán	1	Enero	2023-01-19T00:00:00	2024-11-08T11:00:00	5	Humedad	43
101773	7	Sololá	713	San Lucas Tolimán	10	San Lucas Tolimán	1	Enero	2023-01-19T00:00:00	2024-11-08T11:00:00	6	Velocidad del viento	9.7
101774	7	Sololá	713	San Lucas Tolimán	10	San Lucas Tolimán	1	Enero	2023-01-19T00:00:00	2024-11-08T11:00:00	7	Dirección del viento	9.66
101775	7	Sololá	713	San Lucas Tolimán	10	San Lucas Tolimán	1	Enero	2023-01-19T00:00:00	2024-11-08T11:00:00	1	Precipitación	0
101776	7	Sololá	713	San Lucas Tolimán	10	San Lucas Tolimán	1	Enero	2023-01-19T00:00:00	2024-11-08T11:00:00	8	Radiación solar	792
101777	7	Sololá	713	San Lucas Tolimán	10	San Lucas Tolimán	1	Enero	2023-01-19T00:00:00	2024-11-08T12:00:00	2	Temperatura media	20.1
101778	7	Sololá	713	San Lucas Tolimán	10	San Lucas Tolimán	1	Enero	2023-01-19T00:00:00	2024-11-08T12:00:00	4	Temperatura máxima	20.6
101779	7	Sololá	713	San Lucas Tolimán	10	San Lucas Tolimán	1	Enero	2023-01-19T00:00:00	2024-11-08T12:00:00	3	Temperatura mínima	19.8
101780	7	Sololá	713	San Lucas Tolimán	10	San Lucas Tolimán	1	Enero	2023-01-19T00:00:00	2024-11-08T12:00:00	5	Humedad	44
101781	7	Sololá	713	San Lucas Tolimán	10	San Lucas Tolimán	1	Enero	2023-01-19T00:00:00	2024-11-08T12:00:00	6	Velocidad del viento	11.3
101782	7	Sololá	713	San Lucas Tolimán	10	San Lucas Tolimán	1	Enero	2023-01-19T00:00:00	2024-11-08T12:00:00	7	Dirección del viento	11.27
101783	7	Sololá	713	San Lucas Tolimán	10	San Lucas Tolimán	1	Enero	2023-01-19T00:00:00	2024-11-08T12:00:00	1	Precipitación	0
101784	7	Sololá	713	San Lucas Tolimán	10	San Lucas Tolimán	1	Enero	2023-01-19T00:00:00	2024-11-08T12:00:00	8	Radiación solar	879
101785	7	Sololá	713	San Lucas Tolimán	10	San Lucas Tolimán	1	Enero	2023-01-19T00:00:00	2024-11-08T13:00:00	2	Temperatura media	21.1
101786	7	Sololá	713	San Lucas Tolimán	10	San Lucas Tolimán	1	Enero	2023-01-19T00:00:00	2024-11-08T13:00:00	4	Temperatura máxima	21.1
101787	7	Sololá	713	San Lucas Tolimán	10	San Lucas Tolimán	1	Enero	2023-01-19T00:00:00	2024-11-08T13:00:00	3	Temperatura mínima	20.1
101788	7	Sololá	713	San Lucas Tolimán	10	San Lucas Tolimán	1	Enero	2023-01-19T00:00:00	2024-11-08T13:00:00	5	Humedad	47
101789	7	Sololá	713	San Lucas Tolimán	10	San Lucas Tolimán	1	Enero	2023-01-19T00:00:00	2024-11-08T13:00:00	6	Velocidad del viento	11.3
101790	7	Sololá	713	San Lucas Tolimán	10	San Lucas Tolimán	1	Enero	2023-01-19T00:00:00	2024-11-08T13:00:00	7	Dirección del viento	11.27
101791	7	Sololá	713	San Lucas Tolimán	10	San Lucas Tolimán	1	Enero	2023-01-19T00:00:00	2024-11-08T13:00:00	1	Precipitación	0
101792	7	Sololá	713	San Lucas Tolimán	10	San Lucas Tolimán	1	Enero	2023-01-19T00:00:00	2024-11-08T13:00:00	8	Radiación solar	887
101793	7	Sololá	713	San Lucas Tolimán	10	San Lucas Tolimán	1	Enero	2023-01-19T00:00:00	2024-11-08T14:00:00	2	Temperatura media	20.8
101794	7	Sololá	713	San Lucas Tolimán	10	San Lucas Tolimán	1	Enero	2023-01-19T00:00:00	2024-11-08T14:00:00	4	Temperatura máxima	21.2
101795	7	Sololá	713	San Lucas Tolimán	10	San Lucas Tolimán	1	Enero	2023-01-19T00:00:00	2024-11-08T14:00:00	3	Temperatura mínima	20.6
101796	7	Sololá	713	San Lucas Tolimán	10	San Lucas Tolimán	1	Enero	2023-01-19T00:00:00	2024-11-08T14:00:00	5	Humedad	49
101797	7	Sololá	713	San Lucas Tolimán	10	San Lucas Tolimán	1	Enero	2023-01-19T00:00:00	2024-11-08T14:00:00	6	Velocidad del viento	12.9
101798	7	Sololá	713	San Lucas Tolimán	10	San Lucas Tolimán	1	Enero	2023-01-19T00:00:00	2024-11-08T14:00:00	7	Dirección del viento	12.87
101799	7	Sololá	713	San Lucas Tolimán	10	San Lucas Tolimán	1	Enero	2023-01-19T00:00:00	2024-11-08T14:00:00	1	Precipitación	0
101800	7	Sololá	713	San Lucas Tolimán	10	San Lucas Tolimán	1	Enero	2023-01-19T00:00:00	2024-11-08T14:00:00	8	Radiación solar	844
101801	7	Sololá	713	San Lucas Tolimán	10	San Lucas Tolimán	1	Enero	2023-01-19T00:00:00	2024-11-08T15:00:00	2	Temperatura media	20.8
101802	7	Sololá	713	San Lucas Tolimán	10	San Lucas Tolimán	1	Enero	2023-01-19T00:00:00	2024-11-08T15:00:00	4	Temperatura máxima	20.8
101803	7	Sololá	713	San Lucas Tolimán	10	San Lucas Tolimán	1	Enero	2023-01-19T00:00:00	2024-11-08T15:00:00	3	Temperatura mínima	20.1
101804	7	Sololá	713	San Lucas Tolimán	10	San Lucas Tolimán	1	Enero	2023-01-19T00:00:00	2024-11-08T15:00:00	5	Humedad	51
101805	7	Sololá	713	San Lucas Tolimán	10	San Lucas Tolimán	1	Enero	2023-01-19T00:00:00	2024-11-08T15:00:00	6	Velocidad del viento	11.3
101806	7	Sololá	713	San Lucas Tolimán	10	San Lucas Tolimán	1	Enero	2023-01-19T00:00:00	2024-11-08T15:00:00	7	Dirección del viento	11.27
101807	7	Sololá	713	San Lucas Tolimán	10	San Lucas Tolimán	1	Enero	2023-01-19T00:00:00	2024-11-08T15:00:00	1	Precipitación	0
101808	7	Sololá	713	San Lucas Tolimán	10	San Lucas Tolimán	1	Enero	2023-01-19T00:00:00	2024-11-08T15:00:00	8	Radiación solar	682
101809	7	Sololá	713	San Lucas Tolimán	10	San Lucas Tolimán	1	Enero	2023-01-19T00:00:00	2024-11-08T16:00:00	2	Temperatura media	19.8
101810	7	Sololá	713	San Lucas Tolimán	10	San Lucas Tolimán	1	Enero	2023-01-19T00:00:00	2024-11-08T16:00:00	4	Temperatura máxima	21
101811	7	Sololá	713	San Lucas Tolimán	10	San Lucas Tolimán	1	Enero	2023-01-19T00:00:00	2024-11-08T16:00:00	3	Temperatura mínima	19.8
101812	7	Sololá	713	San Lucas Tolimán	10	San Lucas Tolimán	1	Enero	2023-01-19T00:00:00	2024-11-08T16:00:00	5	Humedad	53
101813	7	Sololá	713	San Lucas Tolimán	10	San Lucas Tolimán	1	Enero	2023-01-19T00:00:00	2024-11-08T16:00:00	6	Velocidad del viento	11.3
101814	7	Sololá	713	San Lucas Tolimán	10	San Lucas Tolimán	1	Enero	2023-01-19T00:00:00	2024-11-08T16:00:00	7	Dirección del viento	11.27
101815	7	Sololá	713	San Lucas Tolimán	10	San Lucas Tolimán	1	Enero	2023-01-19T00:00:00	2024-11-08T16:00:00	1	Precipitación	0
101816	7	Sololá	713	San Lucas Tolimán	10	San Lucas Tolimán	1	Enero	2023-01-19T00:00:00	2024-11-08T16:00:00	8	Radiación solar	508
101817	7	Sololá	713	San Lucas Tolimán	10	San Lucas Tolimán	1	Enero	2023-01-19T00:00:00	2024-11-08T17:00:00	2	Temperatura media	18.2
101818	7	Sololá	713	San Lucas Tolimán	10	San Lucas Tolimán	1	Enero	2023-01-19T00:00:00	2024-11-08T17:00:00	4	Temperatura máxima	19.8
101819	7	Sololá	713	San Lucas Tolimán	10	San Lucas Tolimán	1	Enero	2023-01-19T00:00:00	2024-11-08T17:00:00	3	Temperatura mínima	18.2
101820	7	Sololá	713	San Lucas Tolimán	10	San Lucas Tolimán	1	Enero	2023-01-19T00:00:00	2024-11-08T17:00:00	5	Humedad	58
101821	7	Sololá	713	San Lucas Tolimán	10	San Lucas Tolimán	1	Enero	2023-01-19T00:00:00	2024-11-08T17:00:00	6	Velocidad del viento	9.7
101822	7	Sololá	713	San Lucas Tolimán	10	San Lucas Tolimán	1	Enero	2023-01-19T00:00:00	2024-11-08T17:00:00	7	Dirección del viento	9.66
101823	7	Sololá	713	San Lucas Tolimán	10	San Lucas Tolimán	1	Enero	2023-01-19T00:00:00	2024-11-08T17:00:00	1	Precipitación	0
101824	7	Sololá	713	San Lucas Tolimán	10	San Lucas Tolimán	1	Enero	2023-01-19T00:00:00	2024-11-08T17:00:00	8	Radiación solar	207
101825	7	Sololá	713	San Lucas Tolimán	10	San Lucas Tolimán	1	Enero	2023-01-19T00:00:00	2024-11-08T18:00:00	2	Temperatura media	16.9
101826	7	Sololá	713	San Lucas Tolimán	10	San Lucas Tolimán	1	Enero	2023-01-19T00:00:00	2024-11-08T18:00:00	4	Temperatura máxima	18.2
101827	7	Sololá	713	San Lucas Tolimán	10	San Lucas Tolimán	1	Enero	2023-01-19T00:00:00	2024-11-08T18:00:00	3	Temperatura mínima	16.8
101828	7	Sololá	713	San Lucas Tolimán	10	San Lucas Tolimán	1	Enero	2023-01-19T00:00:00	2024-11-08T18:00:00	5	Humedad	62
101829	7	Sololá	713	San Lucas Tolimán	10	San Lucas Tolimán	1	Enero	2023-01-19T00:00:00	2024-11-08T18:00:00	6	Velocidad del viento	9.7
101830	7	Sololá	713	San Lucas Tolimán	10	San Lucas Tolimán	1	Enero	2023-01-19T00:00:00	2024-11-08T18:00:00	7	Dirección del viento	9.66
101831	7	Sololá	713	San Lucas Tolimán	10	San Lucas Tolimán	1	Enero	2023-01-19T00:00:00	2024-11-08T18:00:00	1	Precipitación	0
101832	7	Sololá	713	San Lucas Tolimán	10	San Lucas Tolimán	1	Enero	2023-01-19T00:00:00	2024-11-08T18:00:00	8	Radiación solar	23
101833	7	Sololá	713	San Lucas Tolimán	10	San Lucas Tolimán	1	Enero	2023-01-19T00:00:00	2024-11-08T19:00:00	2	Temperatura media	15.2
101834	7	Sololá	713	San Lucas Tolimán	10	San Lucas Tolimán	1	Enero	2023-01-19T00:00:00	2024-11-08T19:00:00	4	Temperatura máxima	16.9
101835	7	Sololá	713	San Lucas Tolimán	10	San Lucas Tolimán	1	Enero	2023-01-19T00:00:00	2024-11-08T19:00:00	3	Temperatura mínima	15.2
101836	7	Sololá	713	San Lucas Tolimán	10	San Lucas Tolimán	1	Enero	2023-01-19T00:00:00	2024-11-08T19:00:00	5	Humedad	61
101837	7	Sololá	713	San Lucas Tolimán	10	San Lucas Tolimán	1	Enero	2023-01-19T00:00:00	2024-11-08T19:00:00	6	Velocidad del viento	6.4
101838	7	Sololá	713	San Lucas Tolimán	10	San Lucas Tolimán	1	Enero	2023-01-19T00:00:00	2024-11-08T19:00:00	7	Dirección del viento	6.44
101839	7	Sololá	713	San Lucas Tolimán	10	San Lucas Tolimán	1	Enero	2023-01-19T00:00:00	2024-11-08T19:00:00	1	Precipitación	0
101840	7	Sololá	713	San Lucas Tolimán	10	San Lucas Tolimán	1	Enero	2023-01-19T00:00:00	2024-11-08T19:00:00	8	Radiación solar	0
101841	7	Sololá	713	San Lucas Tolimán	10	San Lucas Tolimán	1	Enero	2023-01-19T00:00:00	2024-11-08T20:00:00	2	Temperatura media	14.6
101842	7	Sololá	713	San Lucas Tolimán	10	San Lucas Tolimán	1	Enero	2023-01-19T00:00:00	2024-11-08T20:00:00	4	Temperatura máxima	15.2
101843	7	Sololá	713	San Lucas Tolimán	10	San Lucas Tolimán	1	Enero	2023-01-19T00:00:00	2024-11-08T20:00:00	3	Temperatura mínima	14.5
101844	7	Sololá	713	San Lucas Tolimán	10	San Lucas Tolimán	1	Enero	2023-01-19T00:00:00	2024-11-08T20:00:00	5	Humedad	62
101845	7	Sololá	713	San Lucas Tolimán	10	San Lucas Tolimán	1	Enero	2023-01-19T00:00:00	2024-11-08T20:00:00	6	Velocidad del viento	3.2
101846	7	Sololá	713	San Lucas Tolimán	10	San Lucas Tolimán	1	Enero	2023-01-19T00:00:00	2024-11-08T20:00:00	7	Dirección del viento	3.22
101847	7	Sololá	713	San Lucas Tolimán	10	San Lucas Tolimán	1	Enero	2023-01-19T00:00:00	2024-11-08T20:00:00	1	Precipitación	0
101848	7	Sololá	713	San Lucas Tolimán	10	San Lucas Tolimán	1	Enero	2023-01-19T00:00:00	2024-11-08T20:00:00	8	Radiación solar	0
101849	7	Sololá	713	San Lucas Tolimán	10	San Lucas Tolimán	1	Enero	2023-01-19T00:00:00	2024-11-08T21:00:00	2	Temperatura media	14.4
101850	7	Sololá	713	San Lucas Tolimán	10	San Lucas Tolimán	1	Enero	2023-01-19T00:00:00	2024-11-08T21:00:00	4	Temperatura máxima	14.9
101851	7	Sololá	713	San Lucas Tolimán	10	San Lucas Tolimán	1	Enero	2023-01-19T00:00:00	2024-11-08T21:00:00	3	Temperatura mínima	14.4
101852	7	Sololá	713	San Lucas Tolimán	10	San Lucas Tolimán	1	Enero	2023-01-19T00:00:00	2024-11-08T21:00:00	5	Humedad	61
101853	7	Sololá	713	San Lucas Tolimán	10	San Lucas Tolimán	1	Enero	2023-01-19T00:00:00	2024-11-08T21:00:00	6	Velocidad del viento	1.6
101854	7	Sololá	713	San Lucas Tolimán	10	San Lucas Tolimán	1	Enero	2023-01-19T00:00:00	2024-11-08T21:00:00	7	Dirección del viento	1.61
101855	7	Sololá	713	San Lucas Tolimán	10	San Lucas Tolimán	1	Enero	2023-01-19T00:00:00	2024-11-08T21:00:00	1	Precipitación	0
101856	7	Sololá	713	San Lucas Tolimán	10	San Lucas Tolimán	1	Enero	2023-01-19T00:00:00	2024-11-08T21:00:00	8	Radiación solar	0
101857	7	Sololá	713	San Lucas Tolimán	10	San Lucas Tolimán	1	Enero	2023-01-19T00:00:00	2024-11-08T22:00:00	2	Temperatura media	15.7
101858	7	Sololá	713	San Lucas Tolimán	10	San Lucas Tolimán	1	Enero	2023-01-19T00:00:00	2024-11-08T22:00:00	4	Temperatura máxima	15.7
101859	7	Sololá	713	San Lucas Tolimán	10	San Lucas Tolimán	1	Enero	2023-01-19T00:00:00	2024-11-08T22:00:00	3	Temperatura mínima	14.2
101860	7	Sololá	713	San Lucas Tolimán	10	San Lucas Tolimán	1	Enero	2023-01-19T00:00:00	2024-11-08T22:00:00	5	Humedad	53
101861	7	Sololá	713	San Lucas Tolimán	10	San Lucas Tolimán	1	Enero	2023-01-19T00:00:00	2024-11-08T22:00:00	6	Velocidad del viento	3.2
101862	7	Sololá	713	San Lucas Tolimán	10	San Lucas Tolimán	1	Enero	2023-01-19T00:00:00	2024-11-08T22:00:00	7	Dirección del viento	3.22
101863	7	Sololá	713	San Lucas Tolimán	10	San Lucas Tolimán	1	Enero	2023-01-19T00:00:00	2024-11-08T22:00:00	1	Precipitación	0
101864	7	Sololá	713	San Lucas Tolimán	10	San Lucas Tolimán	1	Enero	2023-01-19T00:00:00	2024-11-08T22:00:00	8	Radiación solar	0
101865	7	Sololá	713	San Lucas Tolimán	10	San Lucas Tolimán	1	Enero	2023-01-19T00:00:00	2024-11-08T23:00:00	2	Temperatura media	15.5
101866	7	Sololá	713	San Lucas Tolimán	10	San Lucas Tolimán	1	Enero	2023-01-19T00:00:00	2024-11-08T23:00:00	4	Temperatura máxima	15.9
101867	7	Sololá	713	San Lucas Tolimán	10	San Lucas Tolimán	1	Enero	2023-01-19T00:00:00	2024-11-08T23:00:00	3	Temperatura mínima	15.5
101868	7	Sololá	713	San Lucas Tolimán	10	San Lucas Tolimán	1	Enero	2023-01-19T00:00:00	2024-11-08T23:00:00	5	Humedad	55
101869	7	Sololá	713	San Lucas Tolimán	10	San Lucas Tolimán	1	Enero	2023-01-19T00:00:00	2024-11-08T23:00:00	6	Velocidad del viento	1.6
101870	7	Sololá	713	San Lucas Tolimán	10	San Lucas Tolimán	1	Enero	2023-01-19T00:00:00	2024-11-08T23:00:00	7	Dirección del viento	1.61
101871	7	Sololá	713	San Lucas Tolimán	10	San Lucas Tolimán	1	Enero	2023-01-19T00:00:00	2024-11-08T23:00:00	1	Precipitación	0
101872	7	Sololá	713	San Lucas Tolimán	10	San Lucas Tolimán	1	Enero	2023-01-19T00:00:00	2024-11-08T23:00:00	8	Radiación solar	0
101873	7	Sololá	713	San Lucas Tolimán	10	San Lucas Tolimán	1	Enero	2023-01-20T00:00:00	2024-11-08T00:00:00	2	Temperatura media	15.1
101874	7	Sololá	713	San Lucas Tolimán	10	San Lucas Tolimán	1	Enero	2023-01-20T00:00:00	2024-11-08T00:00:00	4	Temperatura máxima	16.2
101875	7	Sololá	713	San Lucas Tolimán	10	San Lucas Tolimán	1	Enero	2023-01-20T00:00:00	2024-11-08T00:00:00	3	Temperatura mínima	15.1
101876	7	Sololá	713	San Lucas Tolimán	10	San Lucas Tolimán	1	Enero	2023-01-20T00:00:00	2024-11-08T00:00:00	5	Humedad	57
101877	7	Sololá	713	San Lucas Tolimán	10	San Lucas Tolimán	1	Enero	2023-01-20T00:00:00	2024-11-08T00:00:00	6	Velocidad del viento	1.6
101878	7	Sololá	713	San Lucas Tolimán	10	San Lucas Tolimán	1	Enero	2023-01-20T00:00:00	2024-11-08T00:00:00	7	Dirección del viento	1.61
101879	7	Sololá	713	San Lucas Tolimán	10	San Lucas Tolimán	1	Enero	2023-01-20T00:00:00	2024-11-08T00:00:00	1	Precipitación	0
101880	7	Sololá	713	San Lucas Tolimán	10	San Lucas Tolimán	1	Enero	2023-01-20T00:00:00	2024-11-08T00:00:00	8	Radiación solar	0
101881	7	Sololá	713	San Lucas Tolimán	10	San Lucas Tolimán	1	Enero	2023-01-20T00:00:00	2024-11-08T01:00:00	2	Temperatura media	14.9
101882	7	Sololá	713	San Lucas Tolimán	10	San Lucas Tolimán	1	Enero	2023-01-20T00:00:00	2024-11-08T01:00:00	4	Temperatura máxima	15.1
101883	7	Sololá	713	San Lucas Tolimán	10	San Lucas Tolimán	1	Enero	2023-01-20T00:00:00	2024-11-08T01:00:00	3	Temperatura mínima	14.7
101884	7	Sololá	713	San Lucas Tolimán	10	San Lucas Tolimán	1	Enero	2023-01-20T00:00:00	2024-11-08T01:00:00	5	Humedad	60
101885	7	Sololá	713	San Lucas Tolimán	10	San Lucas Tolimán	1	Enero	2023-01-20T00:00:00	2024-11-08T01:00:00	6	Velocidad del viento	1.6
101886	7	Sololá	713	San Lucas Tolimán	10	San Lucas Tolimán	1	Enero	2023-01-20T00:00:00	2024-11-08T01:00:00	7	Dirección del viento	1.61
101887	7	Sololá	713	San Lucas Tolimán	10	San Lucas Tolimán	1	Enero	2023-01-20T00:00:00	2024-11-08T01:00:00	1	Precipitación	0
101888	7	Sololá	713	San Lucas Tolimán	10	San Lucas Tolimán	1	Enero	2023-01-20T00:00:00	2024-11-08T01:00:00	8	Radiación solar	0
101889	7	Sololá	713	San Lucas Tolimán	10	San Lucas Tolimán	1	Enero	2023-01-20T00:00:00	2024-11-08T02:00:00	2	Temperatura media	14.6
101890	7	Sololá	713	San Lucas Tolimán	10	San Lucas Tolimán	1	Enero	2023-01-20T00:00:00	2024-11-08T02:00:00	4	Temperatura máxima	14.9
101891	7	Sololá	713	San Lucas Tolimán	10	San Lucas Tolimán	1	Enero	2023-01-20T00:00:00	2024-11-08T02:00:00	3	Temperatura mínima	14.6
101892	7	Sololá	713	San Lucas Tolimán	10	San Lucas Tolimán	1	Enero	2023-01-20T00:00:00	2024-11-08T02:00:00	5	Humedad	61
101893	7	Sololá	713	San Lucas Tolimán	10	San Lucas Tolimán	1	Enero	2023-01-20T00:00:00	2024-11-08T02:00:00	6	Velocidad del viento	1.6
101894	7	Sololá	713	San Lucas Tolimán	10	San Lucas Tolimán	1	Enero	2023-01-20T00:00:00	2024-11-08T02:00:00	7	Dirección del viento	1.61
101895	7	Sololá	713	San Lucas Tolimán	10	San Lucas Tolimán	1	Enero	2023-01-20T00:00:00	2024-11-08T02:00:00	1	Precipitación	0
101896	7	Sololá	713	San Lucas Tolimán	10	San Lucas Tolimán	1	Enero	2023-01-20T00:00:00	2024-11-08T02:00:00	8	Radiación solar	0
101897	7	Sololá	713	San Lucas Tolimán	10	San Lucas Tolimán	1	Enero	2023-01-20T00:00:00	2024-11-08T03:00:00	2	Temperatura media	14.4
101898	7	Sololá	713	San Lucas Tolimán	10	San Lucas Tolimán	1	Enero	2023-01-20T00:00:00	2024-11-08T03:00:00	4	Temperatura máxima	14.8
101899	7	Sololá	713	San Lucas Tolimán	10	San Lucas Tolimán	1	Enero	2023-01-20T00:00:00	2024-11-08T03:00:00	3	Temperatura mínima	14.2
101900	7	Sololá	713	San Lucas Tolimán	10	San Lucas Tolimán	1	Enero	2023-01-20T00:00:00	2024-11-08T03:00:00	5	Humedad	61
101901	7	Sololá	713	San Lucas Tolimán	10	San Lucas Tolimán	1	Enero	2023-01-20T00:00:00	2024-11-08T03:00:00	6	Velocidad del viento	1.6
101902	7	Sololá	713	San Lucas Tolimán	10	San Lucas Tolimán	1	Enero	2023-01-20T00:00:00	2024-11-08T03:00:00	7	Dirección del viento	1.61
101903	7	Sololá	713	San Lucas Tolimán	10	San Lucas Tolimán	1	Enero	2023-01-20T00:00:00	2024-11-08T03:00:00	1	Precipitación	0
101904	7	Sololá	713	San Lucas Tolimán	10	San Lucas Tolimán	1	Enero	2023-01-20T00:00:00	2024-11-08T03:00:00	8	Radiación solar	0
101905	7	Sololá	713	San Lucas Tolimán	10	San Lucas Tolimán	1	Enero	2023-01-20T00:00:00	2024-11-08T04:00:00	2	Temperatura media	14.6
101906	7	Sololá	713	San Lucas Tolimán	10	San Lucas Tolimán	1	Enero	2023-01-20T00:00:00	2024-11-08T04:00:00	4	Temperatura máxima	14.6
101907	7	Sololá	713	San Lucas Tolimán	10	San Lucas Tolimán	1	Enero	2023-01-20T00:00:00	2024-11-08T04:00:00	3	Temperatura mínima	13.9
101908	7	Sololá	713	San Lucas Tolimán	10	San Lucas Tolimán	1	Enero	2023-01-20T00:00:00	2024-11-08T04:00:00	5	Humedad	58
101909	7	Sololá	713	San Lucas Tolimán	10	San Lucas Tolimán	1	Enero	2023-01-20T00:00:00	2024-11-08T04:00:00	6	Velocidad del viento	3.2
101910	7	Sololá	713	San Lucas Tolimán	10	San Lucas Tolimán	1	Enero	2023-01-20T00:00:00	2024-11-08T04:00:00	7	Dirección del viento	3.22
101911	7	Sololá	713	San Lucas Tolimán	10	San Lucas Tolimán	1	Enero	2023-01-20T00:00:00	2024-11-08T04:00:00	1	Precipitación	0
101912	7	Sololá	713	San Lucas Tolimán	10	San Lucas Tolimán	1	Enero	2023-01-20T00:00:00	2024-11-08T04:00:00	8	Radiación solar	0
101913	7	Sololá	713	San Lucas Tolimán	10	San Lucas Tolimán	1	Enero	2023-01-20T00:00:00	2024-11-08T05:00:00	2	Temperatura media	13.4
101914	7	Sololá	713	San Lucas Tolimán	10	San Lucas Tolimán	1	Enero	2023-01-20T00:00:00	2024-11-08T05:00:00	4	Temperatura máxima	14.6
101915	7	Sololá	713	San Lucas Tolimán	10	San Lucas Tolimán	1	Enero	2023-01-20T00:00:00	2024-11-08T05:00:00	3	Temperatura mínima	13.2
101916	7	Sololá	713	San Lucas Tolimán	10	San Lucas Tolimán	1	Enero	2023-01-20T00:00:00	2024-11-08T05:00:00	5	Humedad	62
101917	7	Sololá	713	San Lucas Tolimán	10	San Lucas Tolimán	1	Enero	2023-01-20T00:00:00	2024-11-08T05:00:00	6	Velocidad del viento	3.2
101918	7	Sololá	713	San Lucas Tolimán	10	San Lucas Tolimán	1	Enero	2023-01-20T00:00:00	2024-11-08T05:00:00	7	Dirección del viento	3.22
101919	7	Sololá	713	San Lucas Tolimán	10	San Lucas Tolimán	1	Enero	2023-01-20T00:00:00	2024-11-08T05:00:00	1	Precipitación	0
101920	7	Sololá	713	San Lucas Tolimán	10	San Lucas Tolimán	1	Enero	2023-01-20T00:00:00	2024-11-08T05:00:00	8	Radiación solar	0
101921	7	Sololá	713	San Lucas Tolimán	10	San Lucas Tolimán	1	Enero	2023-01-20T00:00:00	2024-11-08T06:00:00	2	Temperatura media	13.3
101922	7	Sololá	713	San Lucas Tolimán	10	San Lucas Tolimán	1	Enero	2023-01-20T00:00:00	2024-11-08T06:00:00	4	Temperatura máxima	13.8
101923	7	Sololá	713	San Lucas Tolimán	10	San Lucas Tolimán	1	Enero	2023-01-20T00:00:00	2024-11-08T06:00:00	3	Temperatura mínima	13.2
101924	7	Sololá	713	San Lucas Tolimán	10	San Lucas Tolimán	1	Enero	2023-01-20T00:00:00	2024-11-08T06:00:00	5	Humedad	60
101925	7	Sololá	713	San Lucas Tolimán	10	San Lucas Tolimán	1	Enero	2023-01-20T00:00:00	2024-11-08T06:00:00	6	Velocidad del viento	3.2
101926	7	Sololá	713	San Lucas Tolimán	10	San Lucas Tolimán	1	Enero	2023-01-20T00:00:00	2024-11-08T06:00:00	7	Dirección del viento	3.22
101927	7	Sololá	713	San Lucas Tolimán	10	San Lucas Tolimán	1	Enero	2023-01-20T00:00:00	2024-11-08T06:00:00	1	Precipitación	0
101928	7	Sololá	713	San Lucas Tolimán	10	San Lucas Tolimán	1	Enero	2023-01-20T00:00:00	2024-11-08T06:00:00	8	Radiación solar	0
101929	7	Sololá	713	San Lucas Tolimán	10	San Lucas Tolimán	1	Enero	2023-01-20T00:00:00	2024-11-08T07:00:00	2	Temperatura media	12.9
101930	7	Sololá	713	San Lucas Tolimán	10	San Lucas Tolimán	1	Enero	2023-01-20T00:00:00	2024-11-08T07:00:00	4	Temperatura máxima	13.4
101931	7	Sololá	713	San Lucas Tolimán	10	San Lucas Tolimán	1	Enero	2023-01-20T00:00:00	2024-11-08T07:00:00	3	Temperatura mínima	12.9
101932	7	Sololá	713	San Lucas Tolimán	10	San Lucas Tolimán	1	Enero	2023-01-20T00:00:00	2024-11-08T07:00:00	5	Humedad	61
101933	7	Sololá	713	San Lucas Tolimán	10	San Lucas Tolimán	1	Enero	2023-01-20T00:00:00	2024-11-08T07:00:00	6	Velocidad del viento	1.6
101934	7	Sololá	713	San Lucas Tolimán	10	San Lucas Tolimán	1	Enero	2023-01-20T00:00:00	2024-11-08T07:00:00	7	Dirección del viento	1.61
101935	7	Sololá	713	San Lucas Tolimán	10	San Lucas Tolimán	1	Enero	2023-01-20T00:00:00	2024-11-08T07:00:00	1	Precipitación	0
101936	7	Sololá	713	San Lucas Tolimán	10	San Lucas Tolimán	1	Enero	2023-01-20T00:00:00	2024-11-08T07:00:00	8	Radiación solar	4
101937	7	Sololá	713	San Lucas Tolimán	10	San Lucas Tolimán	1	Enero	2023-01-20T00:00:00	2024-11-08T08:00:00	2	Temperatura media	14.1
101938	7	Sololá	713	San Lucas Tolimán	10	San Lucas Tolimán	1	Enero	2023-01-20T00:00:00	2024-11-08T08:00:00	4	Temperatura máxima	14.1
101939	7	Sololá	713	San Lucas Tolimán	10	San Lucas Tolimán	1	Enero	2023-01-20T00:00:00	2024-11-08T08:00:00	3	Temperatura mínima	12.9
101940	7	Sololá	713	San Lucas Tolimán	10	San Lucas Tolimán	1	Enero	2023-01-20T00:00:00	2024-11-08T08:00:00	5	Humedad	59
101941	7	Sololá	713	San Lucas Tolimán	10	San Lucas Tolimán	1	Enero	2023-01-20T00:00:00	2024-11-08T08:00:00	6	Velocidad del viento	1.6
101942	7	Sololá	713	San Lucas Tolimán	10	San Lucas Tolimán	1	Enero	2023-01-20T00:00:00	2024-11-08T08:00:00	7	Dirección del viento	1.61
101943	7	Sololá	713	San Lucas Tolimán	10	San Lucas Tolimán	1	Enero	2023-01-20T00:00:00	2024-11-08T08:00:00	1	Precipitación	0
101944	7	Sololá	713	San Lucas Tolimán	10	San Lucas Tolimán	1	Enero	2023-01-20T00:00:00	2024-11-08T08:00:00	8	Radiación solar	24
101945	7	Sololá	713	San Lucas Tolimán	10	San Lucas Tolimán	1	Enero	2023-01-20T00:00:00	2024-11-08T09:00:00	2	Temperatura media	18
101946	7	Sololá	713	San Lucas Tolimán	10	San Lucas Tolimán	1	Enero	2023-01-20T00:00:00	2024-11-08T09:00:00	4	Temperatura máxima	18
101947	7	Sololá	713	San Lucas Tolimán	10	San Lucas Tolimán	1	Enero	2023-01-20T00:00:00	2024-11-08T09:00:00	3	Temperatura mínima	14.1
101948	7	Sololá	713	San Lucas Tolimán	10	San Lucas Tolimán	1	Enero	2023-01-20T00:00:00	2024-11-08T09:00:00	5	Humedad	53
101949	7	Sololá	713	San Lucas Tolimán	10	San Lucas Tolimán	1	Enero	2023-01-20T00:00:00	2024-11-08T09:00:00	6	Velocidad del viento	3.2
101950	7	Sololá	713	San Lucas Tolimán	10	San Lucas Tolimán	1	Enero	2023-01-20T00:00:00	2024-11-08T09:00:00	7	Dirección del viento	3.22
101951	7	Sololá	713	San Lucas Tolimán	10	San Lucas Tolimán	1	Enero	2023-01-20T00:00:00	2024-11-08T09:00:00	1	Precipitación	0
101952	7	Sololá	713	San Lucas Tolimán	10	San Lucas Tolimán	1	Enero	2023-01-20T00:00:00	2024-11-08T09:00:00	8	Radiación solar	283
101953	7	Sololá	713	San Lucas Tolimán	10	San Lucas Tolimán	1	Enero	2023-01-20T00:00:00	2024-11-08T10:00:00	2	Temperatura media	20.8
101954	7	Sololá	713	San Lucas Tolimán	10	San Lucas Tolimán	1	Enero	2023-01-20T00:00:00	2024-11-08T10:00:00	4	Temperatura máxima	20.8
101955	7	Sololá	713	San Lucas Tolimán	10	San Lucas Tolimán	1	Enero	2023-01-20T00:00:00	2024-11-08T10:00:00	3	Temperatura mínima	18
101956	7	Sololá	713	San Lucas Tolimán	10	San Lucas Tolimán	1	Enero	2023-01-20T00:00:00	2024-11-08T10:00:00	5	Humedad	48
101957	7	Sololá	713	San Lucas Tolimán	10	San Lucas Tolimán	1	Enero	2023-01-20T00:00:00	2024-11-08T10:00:00	6	Velocidad del viento	3.2
101958	7	Sololá	713	San Lucas Tolimán	10	San Lucas Tolimán	1	Enero	2023-01-20T00:00:00	2024-11-08T10:00:00	7	Dirección del viento	3.22
101959	7	Sololá	713	San Lucas Tolimán	10	San Lucas Tolimán	1	Enero	2023-01-20T00:00:00	2024-11-08T10:00:00	1	Precipitación	0
101960	7	Sololá	713	San Lucas Tolimán	10	San Lucas Tolimán	1	Enero	2023-01-20T00:00:00	2024-11-08T10:00:00	8	Radiación solar	595
101961	7	Sololá	713	San Lucas Tolimán	10	San Lucas Tolimán	1	Enero	2023-01-20T00:00:00	2024-11-08T11:00:00	2	Temperatura media	23.2
101962	7	Sololá	713	San Lucas Tolimán	10	San Lucas Tolimán	1	Enero	2023-01-20T00:00:00	2024-11-08T11:00:00	4	Temperatura máxima	23.7
101963	7	Sololá	713	San Lucas Tolimán	10	San Lucas Tolimán	1	Enero	2023-01-20T00:00:00	2024-11-08T11:00:00	3	Temperatura mínima	20.8
101964	7	Sololá	713	San Lucas Tolimán	10	San Lucas Tolimán	1	Enero	2023-01-20T00:00:00	2024-11-08T11:00:00	5	Humedad	34
101965	7	Sololá	713	San Lucas Tolimán	10	San Lucas Tolimán	1	Enero	2023-01-20T00:00:00	2024-11-08T11:00:00	6	Velocidad del viento	4.8
101966	7	Sololá	713	San Lucas Tolimán	10	San Lucas Tolimán	1	Enero	2023-01-20T00:00:00	2024-11-08T11:00:00	7	Dirección del viento	4.83
101967	7	Sololá	713	San Lucas Tolimán	10	San Lucas Tolimán	1	Enero	2023-01-20T00:00:00	2024-11-08T11:00:00	1	Precipitación	0
101968	7	Sololá	713	San Lucas Tolimán	10	San Lucas Tolimán	1	Enero	2023-01-20T00:00:00	2024-11-08T11:00:00	8	Radiación solar	761
101969	7	Sololá	713	San Lucas Tolimán	10	San Lucas Tolimán	1	Enero	2023-01-20T00:00:00	2024-11-08T12:00:00	2	Temperatura media	23.4
101970	7	Sololá	713	San Lucas Tolimán	10	San Lucas Tolimán	1	Enero	2023-01-20T00:00:00	2024-11-08T12:00:00	4	Temperatura máxima	23.9
101971	7	Sololá	713	San Lucas Tolimán	10	San Lucas Tolimán	1	Enero	2023-01-20T00:00:00	2024-11-08T12:00:00	3	Temperatura mínima	23.2
101972	7	Sololá	713	San Lucas Tolimán	10	San Lucas Tolimán	1	Enero	2023-01-20T00:00:00	2024-11-08T12:00:00	5	Humedad	46
101973	7	Sololá	713	San Lucas Tolimán	10	San Lucas Tolimán	1	Enero	2023-01-20T00:00:00	2024-11-08T12:00:00	6	Velocidad del viento	6.4
101974	7	Sololá	713	San Lucas Tolimán	10	San Lucas Tolimán	1	Enero	2023-01-20T00:00:00	2024-11-08T12:00:00	7	Dirección del viento	6.44
101975	7	Sololá	713	San Lucas Tolimán	10	San Lucas Tolimán	1	Enero	2023-01-20T00:00:00	2024-11-08T12:00:00	1	Precipitación	0
101976	7	Sololá	713	San Lucas Tolimán	10	San Lucas Tolimán	1	Enero	2023-01-20T00:00:00	2024-11-08T12:00:00	8	Radiación solar	866
101977	7	Sololá	713	San Lucas Tolimán	10	San Lucas Tolimán	1	Enero	2023-01-20T00:00:00	2024-11-08T13:00:00	2	Temperatura media	22.1
101978	7	Sololá	713	San Lucas Tolimán	10	San Lucas Tolimán	1	Enero	2023-01-20T00:00:00	2024-11-08T13:00:00	4	Temperatura máxima	23.5
101979	7	Sololá	713	San Lucas Tolimán	10	San Lucas Tolimán	1	Enero	2023-01-20T00:00:00	2024-11-08T13:00:00	3	Temperatura mínima	22.1
101980	7	Sololá	713	San Lucas Tolimán	10	San Lucas Tolimán	1	Enero	2023-01-20T00:00:00	2024-11-08T13:00:00	5	Humedad	51
101981	7	Sololá	713	San Lucas Tolimán	10	San Lucas Tolimán	1	Enero	2023-01-20T00:00:00	2024-11-08T13:00:00	6	Velocidad del viento	9.7
101982	7	Sololá	713	San Lucas Tolimán	10	San Lucas Tolimán	1	Enero	2023-01-20T00:00:00	2024-11-08T13:00:00	7	Dirección del viento	9.66
101983	7	Sololá	713	San Lucas Tolimán	10	San Lucas Tolimán	1	Enero	2023-01-20T00:00:00	2024-11-08T13:00:00	1	Precipitación	0
101984	7	Sololá	713	San Lucas Tolimán	10	San Lucas Tolimán	1	Enero	2023-01-20T00:00:00	2024-11-08T13:00:00	8	Radiación solar	888
101985	7	Sololá	713	San Lucas Tolimán	10	San Lucas Tolimán	1	Enero	2023-01-20T00:00:00	2024-11-08T14:00:00	2	Temperatura media	21.4
101986	7	Sololá	713	San Lucas Tolimán	10	San Lucas Tolimán	1	Enero	2023-01-20T00:00:00	2024-11-08T14:00:00	4	Temperatura máxima	22.1
101987	7	Sololá	713	San Lucas Tolimán	10	San Lucas Tolimán	1	Enero	2023-01-20T00:00:00	2024-11-08T14:00:00	3	Temperatura mínima	21.3
101988	7	Sololá	713	San Lucas Tolimán	10	San Lucas Tolimán	1	Enero	2023-01-20T00:00:00	2024-11-08T14:00:00	5	Humedad	54
101989	7	Sololá	713	San Lucas Tolimán	10	San Lucas Tolimán	1	Enero	2023-01-20T00:00:00	2024-11-08T14:00:00	6	Velocidad del viento	14.5
101990	7	Sololá	713	San Lucas Tolimán	10	San Lucas Tolimán	1	Enero	2023-01-20T00:00:00	2024-11-08T14:00:00	7	Dirección del viento	14.48
101991	7	Sololá	713	San Lucas Tolimán	10	San Lucas Tolimán	1	Enero	2023-01-20T00:00:00	2024-11-08T14:00:00	1	Precipitación	0
101992	7	Sololá	713	San Lucas Tolimán	10	San Lucas Tolimán	1	Enero	2023-01-20T00:00:00	2024-11-08T14:00:00	8	Radiación solar	828
101993	7	Sololá	713	San Lucas Tolimán	10	San Lucas Tolimán	1	Enero	2023-01-20T00:00:00	2024-11-08T15:00:00	2	Temperatura media	21.1
101994	7	Sololá	713	San Lucas Tolimán	10	San Lucas Tolimán	1	Enero	2023-01-20T00:00:00	2024-11-08T15:00:00	4	Temperatura máxima	21.8
101995	7	Sololá	713	San Lucas Tolimán	10	San Lucas Tolimán	1	Enero	2023-01-20T00:00:00	2024-11-08T15:00:00	3	Temperatura mínima	20.9
101996	7	Sololá	713	San Lucas Tolimán	10	San Lucas Tolimán	1	Enero	2023-01-20T00:00:00	2024-11-08T15:00:00	5	Humedad	56
101997	7	Sololá	713	San Lucas Tolimán	10	San Lucas Tolimán	1	Enero	2023-01-20T00:00:00	2024-11-08T15:00:00	6	Velocidad del viento	14.5
101998	7	Sololá	713	San Lucas Tolimán	10	San Lucas Tolimán	1	Enero	2023-01-20T00:00:00	2024-11-08T15:00:00	7	Dirección del viento	14.48
101999	7	Sololá	713	San Lucas Tolimán	10	San Lucas Tolimán	1	Enero	2023-01-20T00:00:00	2024-11-08T15:00:00	1	Precipitación	0
102000	7	Sololá	713	San Lucas Tolimán	10	San Lucas Tolimán	1	Enero	2023-01-20T00:00:00	2024-11-08T15:00:00	8	Radiación solar	693
102001	7	Sololá	713	San Lucas Tolimán	10	San Lucas Tolimán	1	Enero	2023-01-20T00:00:00	2024-11-08T16:00:00	2	Temperatura media	19.2
102002	7	Sololá	713	San Lucas Tolimán	10	San Lucas Tolimán	1	Enero	2023-01-20T00:00:00	2024-11-08T16:00:00	4	Temperatura máxima	21.7
102003	7	Sololá	713	San Lucas Tolimán	10	San Lucas Tolimán	1	Enero	2023-01-20T00:00:00	2024-11-08T16:00:00	3	Temperatura mínima	19.1
102004	7	Sololá	713	San Lucas Tolimán	10	San Lucas Tolimán	1	Enero	2023-01-20T00:00:00	2024-11-08T16:00:00	5	Humedad	61
102005	7	Sololá	713	San Lucas Tolimán	10	San Lucas Tolimán	1	Enero	2023-01-20T00:00:00	2024-11-08T16:00:00	6	Velocidad del viento	12.9
102006	7	Sololá	713	San Lucas Tolimán	10	San Lucas Tolimán	1	Enero	2023-01-20T00:00:00	2024-11-08T16:00:00	7	Dirección del viento	12.87
102007	7	Sololá	713	San Lucas Tolimán	10	San Lucas Tolimán	1	Enero	2023-01-20T00:00:00	2024-11-08T16:00:00	1	Precipitación	0
102008	7	Sololá	713	San Lucas Tolimán	10	San Lucas Tolimán	1	Enero	2023-01-20T00:00:00	2024-11-08T16:00:00	8	Radiación solar	303
102009	7	Sololá	713	San Lucas Tolimán	10	San Lucas Tolimán	1	Enero	2023-01-20T00:00:00	2024-11-08T17:00:00	2	Temperatura media	18.7
102010	7	Sololá	713	San Lucas Tolimán	10	San Lucas Tolimán	1	Enero	2023-01-20T00:00:00	2024-11-08T17:00:00	4	Temperatura máxima	19.3
102011	7	Sololá	713	San Lucas Tolimán	10	San Lucas Tolimán	1	Enero	2023-01-20T00:00:00	2024-11-08T17:00:00	3	Temperatura mínima	18.7
102012	7	Sololá	713	San Lucas Tolimán	10	San Lucas Tolimán	1	Enero	2023-01-20T00:00:00	2024-11-08T17:00:00	5	Humedad	62
102013	7	Sololá	713	San Lucas Tolimán	10	San Lucas Tolimán	1	Enero	2023-01-20T00:00:00	2024-11-08T17:00:00	6	Velocidad del viento	11.3
102014	7	Sololá	713	San Lucas Tolimán	10	San Lucas Tolimán	1	Enero	2023-01-20T00:00:00	2024-11-08T17:00:00	7	Dirección del viento	11.27
102015	7	Sololá	713	San Lucas Tolimán	10	San Lucas Tolimán	1	Enero	2023-01-20T00:00:00	2024-11-08T17:00:00	1	Precipitación	0
102016	7	Sololá	713	San Lucas Tolimán	10	San Lucas Tolimán	1	Enero	2023-01-20T00:00:00	2024-11-08T17:00:00	8	Radiación solar	162
102017	7	Sololá	713	San Lucas Tolimán	10	San Lucas Tolimán	1	Enero	2023-01-20T00:00:00	2024-11-08T18:00:00	2	Temperatura media	17.7
102018	7	Sololá	713	San Lucas Tolimán	10	San Lucas Tolimán	1	Enero	2023-01-20T00:00:00	2024-11-08T18:00:00	4	Temperatura máxima	18.8
102019	7	Sololá	713	San Lucas Tolimán	10	San Lucas Tolimán	1	Enero	2023-01-20T00:00:00	2024-11-08T18:00:00	3	Temperatura mínima	17.6
102020	7	Sololá	713	San Lucas Tolimán	10	San Lucas Tolimán	1	Enero	2023-01-20T00:00:00	2024-11-08T18:00:00	5	Humedad	62
102021	7	Sololá	713	San Lucas Tolimán	10	San Lucas Tolimán	1	Enero	2023-01-20T00:00:00	2024-11-08T18:00:00	6	Velocidad del viento	4.8
102022	7	Sololá	713	San Lucas Tolimán	10	San Lucas Tolimán	1	Enero	2023-01-20T00:00:00	2024-11-08T18:00:00	7	Dirección del viento	4.83
102023	7	Sololá	713	San Lucas Tolimán	10	San Lucas Tolimán	1	Enero	2023-01-20T00:00:00	2024-11-08T18:00:00	1	Precipitación	0
102024	7	Sololá	713	San Lucas Tolimán	10	San Lucas Tolimán	1	Enero	2023-01-20T00:00:00	2024-11-08T18:00:00	8	Radiación solar	24
102025	7	Sololá	713	San Lucas Tolimán	10	San Lucas Tolimán	1	Enero	2023-01-20T00:00:00	2024-11-08T19:00:00	2	Temperatura media	16.4
102026	7	Sololá	713	San Lucas Tolimán	10	San Lucas Tolimán	1	Enero	2023-01-20T00:00:00	2024-11-08T19:00:00	4	Temperatura máxima	17.6
102027	7	Sololá	713	San Lucas Tolimán	10	San Lucas Tolimán	1	Enero	2023-01-20T00:00:00	2024-11-08T19:00:00	3	Temperatura mínima	16.4
102028	7	Sololá	713	San Lucas Tolimán	10	San Lucas Tolimán	1	Enero	2023-01-20T00:00:00	2024-11-08T19:00:00	5	Humedad	62
102029	7	Sololá	713	San Lucas Tolimán	10	San Lucas Tolimán	1	Enero	2023-01-20T00:00:00	2024-11-08T19:00:00	6	Velocidad del viento	1.6
102030	7	Sololá	713	San Lucas Tolimán	10	San Lucas Tolimán	1	Enero	2023-01-20T00:00:00	2024-11-08T19:00:00	7	Dirección del viento	1.61
102031	7	Sololá	713	San Lucas Tolimán	10	San Lucas Tolimán	1	Enero	2023-01-20T00:00:00	2024-11-08T19:00:00	1	Precipitación	0
102032	7	Sololá	713	San Lucas Tolimán	10	San Lucas Tolimán	1	Enero	2023-01-20T00:00:00	2024-11-08T19:00:00	8	Radiación solar	0
102033	7	Sololá	713	San Lucas Tolimán	10	San Lucas Tolimán	1	Enero	2023-01-20T00:00:00	2024-11-08T20:00:00	2	Temperatura media	15.6
102034	7	Sololá	713	San Lucas Tolimán	10	San Lucas Tolimán	1	Enero	2023-01-20T00:00:00	2024-11-08T20:00:00	4	Temperatura máxima	16.4
102035	7	Sololá	713	San Lucas Tolimán	10	San Lucas Tolimán	1	Enero	2023-01-20T00:00:00	2024-11-08T20:00:00	3	Temperatura mínima	15.6
102036	7	Sololá	713	San Lucas Tolimán	10	San Lucas Tolimán	1	Enero	2023-01-20T00:00:00	2024-11-08T20:00:00	5	Humedad	63
102037	7	Sololá	713	San Lucas Tolimán	10	San Lucas Tolimán	1	Enero	2023-01-20T00:00:00	2024-11-08T20:00:00	6	Velocidad del viento	4.8
102038	7	Sololá	713	San Lucas Tolimán	10	San Lucas Tolimán	1	Enero	2023-01-20T00:00:00	2024-11-08T20:00:00	7	Dirección del viento	4.83
102039	7	Sololá	713	San Lucas Tolimán	10	San Lucas Tolimán	1	Enero	2023-01-20T00:00:00	2024-11-08T20:00:00	1	Precipitación	0
102040	7	Sololá	713	San Lucas Tolimán	10	San Lucas Tolimán	1	Enero	2023-01-20T00:00:00	2024-11-08T20:00:00	8	Radiación solar	0
102041	7	Sololá	713	San Lucas Tolimán	10	San Lucas Tolimán	1	Enero	2023-01-20T00:00:00	2024-11-08T21:00:00	2	Temperatura media	16.3
102042	7	Sololá	713	San Lucas Tolimán	10	San Lucas Tolimán	1	Enero	2023-01-20T00:00:00	2024-11-08T21:00:00	4	Temperatura máxima	16.4
102043	7	Sololá	713	San Lucas Tolimán	10	San Lucas Tolimán	1	Enero	2023-01-20T00:00:00	2024-11-08T21:00:00	3	Temperatura mínima	15.5
102044	7	Sololá	713	San Lucas Tolimán	10	San Lucas Tolimán	1	Enero	2023-01-20T00:00:00	2024-11-08T21:00:00	5	Humedad	57
102045	7	Sololá	713	San Lucas Tolimán	10	San Lucas Tolimán	1	Enero	2023-01-20T00:00:00	2024-11-08T21:00:00	6	Velocidad del viento	3.2
102046	7	Sololá	713	San Lucas Tolimán	10	San Lucas Tolimán	1	Enero	2023-01-20T00:00:00	2024-11-08T21:00:00	7	Dirección del viento	3.22
102047	7	Sololá	713	San Lucas Tolimán	10	San Lucas Tolimán	1	Enero	2023-01-20T00:00:00	2024-11-08T21:00:00	1	Precipitación	0
102048	7	Sololá	713	San Lucas Tolimán	10	San Lucas Tolimán	1	Enero	2023-01-20T00:00:00	2024-11-08T21:00:00	8	Radiación solar	0
102049	7	Sololá	713	San Lucas Tolimán	10	San Lucas Tolimán	1	Enero	2023-01-20T00:00:00	2024-11-08T22:00:00	2	Temperatura media	16.3
102050	7	Sololá	713	San Lucas Tolimán	10	San Lucas Tolimán	1	Enero	2023-01-20T00:00:00	2024-11-08T22:00:00	4	Temperatura máxima	16.6
102051	7	Sololá	713	San Lucas Tolimán	10	San Lucas Tolimán	1	Enero	2023-01-20T00:00:00	2024-11-08T22:00:00	3	Temperatura mínima	16.3
102052	7	Sololá	713	San Lucas Tolimán	10	San Lucas Tolimán	1	Enero	2023-01-20T00:00:00	2024-11-08T22:00:00	5	Humedad	57
102053	7	Sololá	713	San Lucas Tolimán	10	San Lucas Tolimán	1	Enero	2023-01-20T00:00:00	2024-11-08T22:00:00	6	Velocidad del viento	1.6
102054	7	Sololá	713	San Lucas Tolimán	10	San Lucas Tolimán	1	Enero	2023-01-20T00:00:00	2024-11-08T22:00:00	7	Dirección del viento	1.61
102055	7	Sololá	713	San Lucas Tolimán	10	San Lucas Tolimán	1	Enero	2023-01-20T00:00:00	2024-11-08T22:00:00	1	Precipitación	0
102056	7	Sololá	713	San Lucas Tolimán	10	San Lucas Tolimán	1	Enero	2023-01-20T00:00:00	2024-11-08T22:00:00	8	Radiación solar	0
102057	7	Sololá	713	San Lucas Tolimán	10	San Lucas Tolimán	1	Enero	2023-01-20T00:00:00	2024-11-08T23:00:00	2	Temperatura media	15.9
102058	7	Sololá	713	San Lucas Tolimán	10	San Lucas Tolimán	1	Enero	2023-01-20T00:00:00	2024-11-08T23:00:00	4	Temperatura máxima	16.3
102059	7	Sololá	713	San Lucas Tolimán	10	San Lucas Tolimán	1	Enero	2023-01-20T00:00:00	2024-11-08T23:00:00	3	Temperatura mínima	15.6
102060	7	Sololá	713	San Lucas Tolimán	10	San Lucas Tolimán	1	Enero	2023-01-20T00:00:00	2024-11-08T23:00:00	5	Humedad	59
102061	7	Sololá	713	San Lucas Tolimán	10	San Lucas Tolimán	1	Enero	2023-01-20T00:00:00	2024-11-08T23:00:00	6	Velocidad del viento	0
102062	7	Sololá	713	San Lucas Tolimán	10	San Lucas Tolimán	1	Enero	2023-01-20T00:00:00	2024-11-08T23:00:00	7	Dirección del viento	0
102063	7	Sololá	713	San Lucas Tolimán	10	San Lucas Tolimán	1	Enero	2023-01-20T00:00:00	2024-11-08T23:00:00	1	Precipitación	0
102064	7	Sololá	713	San Lucas Tolimán	10	San Lucas Tolimán	1	Enero	2023-01-20T00:00:00	2024-11-08T23:00:00	8	Radiación solar	0
102065	7	Sololá	713	San Lucas Tolimán	10	San Lucas Tolimán	1	Enero	2023-01-21T00:00:00	2024-11-08T00:00:00	2	Temperatura media	15.6
102066	7	Sololá	713	San Lucas Tolimán	10	San Lucas Tolimán	1	Enero	2023-01-21T00:00:00	2024-11-08T00:00:00	4	Temperatura máxima	16.1
102067	7	Sololá	713	San Lucas Tolimán	10	San Lucas Tolimán	1	Enero	2023-01-21T00:00:00	2024-11-08T00:00:00	3	Temperatura mínima	15.6
102068	7	Sololá	713	San Lucas Tolimán	10	San Lucas Tolimán	1	Enero	2023-01-21T00:00:00	2024-11-08T00:00:00	5	Humedad	58
102069	7	Sololá	713	San Lucas Tolimán	10	San Lucas Tolimán	1	Enero	2023-01-21T00:00:00	2024-11-08T00:00:00	6	Velocidad del viento	1.6
102070	7	Sololá	713	San Lucas Tolimán	10	San Lucas Tolimán	1	Enero	2023-01-21T00:00:00	2024-11-08T00:00:00	7	Dirección del viento	1.61
102071	7	Sololá	713	San Lucas Tolimán	10	San Lucas Tolimán	1	Enero	2023-01-21T00:00:00	2024-11-08T00:00:00	1	Precipitación	0
102072	7	Sololá	713	San Lucas Tolimán	10	San Lucas Tolimán	1	Enero	2023-01-21T00:00:00	2024-11-08T00:00:00	8	Radiación solar	0
102073	7	Sololá	713	San Lucas Tolimán	10	San Lucas Tolimán	1	Enero	2023-01-21T00:00:00	2024-11-08T01:00:00	2	Temperatura media	15.9
102074	7	Sololá	713	San Lucas Tolimán	10	San Lucas Tolimán	1	Enero	2023-01-21T00:00:00	2024-11-08T01:00:00	4	Temperatura máxima	15.9
102075	7	Sololá	713	San Lucas Tolimán	10	San Lucas Tolimán	1	Enero	2023-01-21T00:00:00	2024-11-08T01:00:00	3	Temperatura mínima	15.2
102076	7	Sololá	713	San Lucas Tolimán	10	San Lucas Tolimán	1	Enero	2023-01-21T00:00:00	2024-11-08T01:00:00	5	Humedad	56
102077	7	Sololá	713	San Lucas Tolimán	10	San Lucas Tolimán	1	Enero	2023-01-21T00:00:00	2024-11-08T01:00:00	6	Velocidad del viento	1.6
102078	7	Sololá	713	San Lucas Tolimán	10	San Lucas Tolimán	1	Enero	2023-01-21T00:00:00	2024-11-08T01:00:00	7	Dirección del viento	1.61
102079	7	Sololá	713	San Lucas Tolimán	10	San Lucas Tolimán	1	Enero	2023-01-21T00:00:00	2024-11-08T01:00:00	1	Precipitación	0
102080	7	Sololá	713	San Lucas Tolimán	10	San Lucas Tolimán	1	Enero	2023-01-21T00:00:00	2024-11-08T01:00:00	8	Radiación solar	0
102081	7	Sololá	713	San Lucas Tolimán	10	San Lucas Tolimán	1	Enero	2023-01-21T00:00:00	2024-11-08T02:00:00	2	Temperatura media	15.7
102082	7	Sololá	713	San Lucas Tolimán	10	San Lucas Tolimán	1	Enero	2023-01-21T00:00:00	2024-11-08T02:00:00	4	Temperatura máxima	16.4
102083	7	Sololá	713	San Lucas Tolimán	10	San Lucas Tolimán	1	Enero	2023-01-21T00:00:00	2024-11-08T02:00:00	3	Temperatura mínima	15.7
102084	7	Sololá	713	San Lucas Tolimán	10	San Lucas Tolimán	1	Enero	2023-01-21T00:00:00	2024-11-08T02:00:00	5	Humedad	58
102085	7	Sololá	713	San Lucas Tolimán	10	San Lucas Tolimán	1	Enero	2023-01-21T00:00:00	2024-11-08T02:00:00	6	Velocidad del viento	3.2
102086	7	Sololá	713	San Lucas Tolimán	10	San Lucas Tolimán	1	Enero	2023-01-21T00:00:00	2024-11-08T02:00:00	7	Dirección del viento	3.22
102087	7	Sololá	713	San Lucas Tolimán	10	San Lucas Tolimán	1	Enero	2023-01-21T00:00:00	2024-11-08T02:00:00	1	Precipitación	0
102088	7	Sololá	713	San Lucas Tolimán	10	San Lucas Tolimán	1	Enero	2023-01-21T00:00:00	2024-11-08T02:00:00	8	Radiación solar	0
102089	7	Sololá	713	San Lucas Tolimán	10	San Lucas Tolimán	1	Enero	2023-01-21T00:00:00	2024-11-08T03:00:00	2	Temperatura media	15.2
102090	7	Sololá	713	San Lucas Tolimán	10	San Lucas Tolimán	1	Enero	2023-01-21T00:00:00	2024-11-08T03:00:00	4	Temperatura máxima	15.7
102091	7	Sololá	713	San Lucas Tolimán	10	San Lucas Tolimán	1	Enero	2023-01-21T00:00:00	2024-11-08T03:00:00	3	Temperatura mínima	15.1
102092	7	Sololá	713	San Lucas Tolimán	10	San Lucas Tolimán	1	Enero	2023-01-21T00:00:00	2024-11-08T03:00:00	5	Humedad	59
102093	7	Sololá	713	San Lucas Tolimán	10	San Lucas Tolimán	1	Enero	2023-01-21T00:00:00	2024-11-08T03:00:00	6	Velocidad del viento	0
102094	7	Sololá	713	San Lucas Tolimán	10	San Lucas Tolimán	1	Enero	2023-01-21T00:00:00	2024-11-08T03:00:00	7	Dirección del viento	0
102095	7	Sololá	713	San Lucas Tolimán	10	San Lucas Tolimán	1	Enero	2023-01-21T00:00:00	2024-11-08T03:00:00	1	Precipitación	0
102096	7	Sololá	713	San Lucas Tolimán	10	San Lucas Tolimán	1	Enero	2023-01-21T00:00:00	2024-11-08T03:00:00	8	Radiación solar	0
102097	7	Sololá	713	San Lucas Tolimán	10	San Lucas Tolimán	1	Enero	2023-01-21T00:00:00	2024-11-08T04:00:00	2	Temperatura media	14.6
102098	7	Sololá	713	San Lucas Tolimán	10	San Lucas Tolimán	1	Enero	2023-01-21T00:00:00	2024-11-08T04:00:00	4	Temperatura máxima	15.2
102099	7	Sololá	713	San Lucas Tolimán	10	San Lucas Tolimán	1	Enero	2023-01-21T00:00:00	2024-11-08T04:00:00	3	Temperatura mínima	14.6
102100	7	Sololá	713	San Lucas Tolimán	10	San Lucas Tolimán	1	Enero	2023-01-21T00:00:00	2024-11-08T04:00:00	5	Humedad	60
102101	7	Sololá	713	San Lucas Tolimán	10	San Lucas Tolimán	1	Enero	2023-01-21T00:00:00	2024-11-08T04:00:00	6	Velocidad del viento	0
102102	7	Sololá	713	San Lucas Tolimán	10	San Lucas Tolimán	1	Enero	2023-01-21T00:00:00	2024-11-08T04:00:00	7	Dirección del viento	0
102103	7	Sololá	713	San Lucas Tolimán	10	San Lucas Tolimán	1	Enero	2023-01-21T00:00:00	2024-11-08T04:00:00	1	Precipitación	0
102104	7	Sololá	713	San Lucas Tolimán	10	San Lucas Tolimán	1	Enero	2023-01-21T00:00:00	2024-11-08T04:00:00	8	Radiación solar	0
102105	7	Sololá	713	San Lucas Tolimán	10	San Lucas Tolimán	1	Enero	2023-01-21T00:00:00	2024-11-08T05:00:00	2	Temperatura media	12.8
102106	7	Sololá	713	San Lucas Tolimán	10	San Lucas Tolimán	1	Enero	2023-01-21T00:00:00	2024-11-08T05:00:00	4	Temperatura máxima	14.6
102107	7	Sololá	713	San Lucas Tolimán	10	San Lucas Tolimán	1	Enero	2023-01-21T00:00:00	2024-11-08T05:00:00	3	Temperatura mínima	12.7
102108	7	Sololá	713	San Lucas Tolimán	10	San Lucas Tolimán	1	Enero	2023-01-21T00:00:00	2024-11-08T05:00:00	5	Humedad	62
102109	7	Sololá	713	San Lucas Tolimán	10	San Lucas Tolimán	1	Enero	2023-01-21T00:00:00	2024-11-08T05:00:00	6	Velocidad del viento	4.8
102110	7	Sololá	713	San Lucas Tolimán	10	San Lucas Tolimán	1	Enero	2023-01-21T00:00:00	2024-11-08T05:00:00	7	Dirección del viento	4.83
102111	7	Sololá	713	San Lucas Tolimán	10	San Lucas Tolimán	1	Enero	2023-01-21T00:00:00	2024-11-08T05:00:00	1	Precipitación	0
102112	7	Sololá	713	San Lucas Tolimán	10	San Lucas Tolimán	1	Enero	2023-01-21T00:00:00	2024-11-08T05:00:00	8	Radiación solar	0
102113	7	Sololá	713	San Lucas Tolimán	10	San Lucas Tolimán	1	Enero	2023-01-21T00:00:00	2024-11-08T06:00:00	2	Temperatura media	13.4
102114	7	Sololá	713	San Lucas Tolimán	10	San Lucas Tolimán	1	Enero	2023-01-21T00:00:00	2024-11-08T06:00:00	4	Temperatura máxima	13.4
102115	7	Sololá	713	San Lucas Tolimán	10	San Lucas Tolimán	1	Enero	2023-01-21T00:00:00	2024-11-08T06:00:00	3	Temperatura mínima	12.8
102116	7	Sololá	713	San Lucas Tolimán	10	San Lucas Tolimán	1	Enero	2023-01-21T00:00:00	2024-11-08T06:00:00	5	Humedad	61
102117	7	Sololá	713	San Lucas Tolimán	10	San Lucas Tolimán	1	Enero	2023-01-21T00:00:00	2024-11-08T06:00:00	6	Velocidad del viento	0
102118	7	Sololá	713	San Lucas Tolimán	10	San Lucas Tolimán	1	Enero	2023-01-21T00:00:00	2024-11-08T06:00:00	7	Dirección del viento	0
102119	7	Sololá	713	San Lucas Tolimán	10	San Lucas Tolimán	1	Enero	2023-01-21T00:00:00	2024-11-08T06:00:00	1	Precipitación	0
102120	7	Sololá	713	San Lucas Tolimán	10	San Lucas Tolimán	1	Enero	2023-01-21T00:00:00	2024-11-08T06:00:00	8	Radiación solar	0
102121	7	Sololá	713	San Lucas Tolimán	10	San Lucas Tolimán	1	Enero	2023-01-21T00:00:00	2024-11-08T07:00:00	2	Temperatura media	14.2
102122	7	Sololá	713	San Lucas Tolimán	10	San Lucas Tolimán	1	Enero	2023-01-21T00:00:00	2024-11-08T07:00:00	4	Temperatura máxima	14.2
102123	7	Sololá	713	San Lucas Tolimán	10	San Lucas Tolimán	1	Enero	2023-01-21T00:00:00	2024-11-08T07:00:00	3	Temperatura mínima	13.4
102124	7	Sololá	713	San Lucas Tolimán	10	San Lucas Tolimán	1	Enero	2023-01-21T00:00:00	2024-11-08T07:00:00	5	Humedad	59
102125	7	Sololá	713	San Lucas Tolimán	10	San Lucas Tolimán	1	Enero	2023-01-21T00:00:00	2024-11-08T07:00:00	6	Velocidad del viento	1.6
102126	7	Sololá	713	San Lucas Tolimán	10	San Lucas Tolimán	1	Enero	2023-01-21T00:00:00	2024-11-08T07:00:00	7	Dirección del viento	1.61
102127	7	Sololá	713	San Lucas Tolimán	10	San Lucas Tolimán	1	Enero	2023-01-21T00:00:00	2024-11-08T07:00:00	1	Precipitación	0
102128	7	Sololá	713	San Lucas Tolimán	10	San Lucas Tolimán	1	Enero	2023-01-21T00:00:00	2024-11-08T07:00:00	8	Radiación solar	4
102129	7	Sololá	713	San Lucas Tolimán	10	San Lucas Tolimán	1	Enero	2023-01-21T00:00:00	2024-11-08T08:00:00	2	Temperatura media	15
102130	7	Sololá	713	San Lucas Tolimán	10	San Lucas Tolimán	1	Enero	2023-01-21T00:00:00	2024-11-08T08:00:00	4	Temperatura máxima	15
102131	7	Sololá	713	San Lucas Tolimán	10	San Lucas Tolimán	1	Enero	2023-01-21T00:00:00	2024-11-08T08:00:00	3	Temperatura mínima	14.1
102132	7	Sololá	713	San Lucas Tolimán	10	San Lucas Tolimán	1	Enero	2023-01-21T00:00:00	2024-11-08T08:00:00	5	Humedad	57
102133	7	Sololá	713	San Lucas Tolimán	10	San Lucas Tolimán	1	Enero	2023-01-21T00:00:00	2024-11-08T08:00:00	6	Velocidad del viento	0
102134	7	Sololá	713	San Lucas Tolimán	10	San Lucas Tolimán	1	Enero	2023-01-21T00:00:00	2024-11-08T08:00:00	7	Dirección del viento	0
102135	7	Sololá	713	San Lucas Tolimán	10	San Lucas Tolimán	1	Enero	2023-01-21T00:00:00	2024-11-08T08:00:00	1	Precipitación	0
102136	7	Sololá	713	San Lucas Tolimán	10	San Lucas Tolimán	1	Enero	2023-01-21T00:00:00	2024-11-08T08:00:00	8	Radiación solar	22
102137	7	Sololá	713	San Lucas Tolimán	10	San Lucas Tolimán	1	Enero	2023-01-21T00:00:00	2024-11-08T09:00:00	2	Temperatura media	18.4
102138	7	Sololá	713	San Lucas Tolimán	10	San Lucas Tolimán	1	Enero	2023-01-21T00:00:00	2024-11-08T09:00:00	4	Temperatura máxima	18.4
102139	7	Sololá	713	San Lucas Tolimán	10	San Lucas Tolimán	1	Enero	2023-01-21T00:00:00	2024-11-08T09:00:00	3	Temperatura mínima	15
102140	7	Sololá	713	San Lucas Tolimán	10	San Lucas Tolimán	1	Enero	2023-01-21T00:00:00	2024-11-08T09:00:00	5	Humedad	54
102141	7	Sololá	713	San Lucas Tolimán	10	San Lucas Tolimán	1	Enero	2023-01-21T00:00:00	2024-11-08T09:00:00	6	Velocidad del viento	3.2
102142	7	Sololá	713	San Lucas Tolimán	10	San Lucas Tolimán	1	Enero	2023-01-21T00:00:00	2024-11-08T09:00:00	7	Dirección del viento	3.22
102143	7	Sololá	713	San Lucas Tolimán	10	San Lucas Tolimán	1	Enero	2023-01-21T00:00:00	2024-11-08T09:00:00	1	Precipitación	0
102144	7	Sololá	713	San Lucas Tolimán	10	San Lucas Tolimán	1	Enero	2023-01-21T00:00:00	2024-11-08T09:00:00	8	Radiación solar	279
102145	7	Sololá	713	San Lucas Tolimán	10	San Lucas Tolimán	1	Enero	2023-01-21T00:00:00	2024-11-08T10:00:00	2	Temperatura media	21.8
102146	7	Sololá	713	San Lucas Tolimán	10	San Lucas Tolimán	1	Enero	2023-01-21T00:00:00	2024-11-08T10:00:00	4	Temperatura máxima	21.8
102147	7	Sololá	713	San Lucas Tolimán	10	San Lucas Tolimán	1	Enero	2023-01-21T00:00:00	2024-11-08T10:00:00	3	Temperatura mínima	18.4
102148	7	Sololá	713	San Lucas Tolimán	10	San Lucas Tolimán	1	Enero	2023-01-21T00:00:00	2024-11-08T10:00:00	5	Humedad	49
102149	7	Sololá	713	San Lucas Tolimán	10	San Lucas Tolimán	1	Enero	2023-01-21T00:00:00	2024-11-08T10:00:00	6	Velocidad del viento	3.2
102150	7	Sololá	713	San Lucas Tolimán	10	San Lucas Tolimán	1	Enero	2023-01-21T00:00:00	2024-11-08T10:00:00	7	Dirección del viento	3.22
102151	7	Sololá	713	San Lucas Tolimán	10	San Lucas Tolimán	1	Enero	2023-01-21T00:00:00	2024-11-08T10:00:00	1	Precipitación	0
102152	7	Sololá	713	San Lucas Tolimán	10	San Lucas Tolimán	1	Enero	2023-01-21T00:00:00	2024-11-08T10:00:00	8	Radiación solar	590
102153	7	Sololá	713	San Lucas Tolimán	10	San Lucas Tolimán	1	Enero	2023-01-21T00:00:00	2024-11-08T11:00:00	2	Temperatura media	21.8
102154	7	Sololá	713	San Lucas Tolimán	10	San Lucas Tolimán	1	Enero	2023-01-21T00:00:00	2024-11-08T11:00:00	4	Temperatura máxima	22.3
102155	7	Sololá	713	San Lucas Tolimán	10	San Lucas Tolimán	1	Enero	2023-01-21T00:00:00	2024-11-08T11:00:00	3	Temperatura mínima	21.5
102156	7	Sololá	713	San Lucas Tolimán	10	San Lucas Tolimán	1	Enero	2023-01-21T00:00:00	2024-11-08T11:00:00	5	Humedad	55
102157	7	Sololá	713	San Lucas Tolimán	10	San Lucas Tolimán	1	Enero	2023-01-21T00:00:00	2024-11-08T11:00:00	6	Velocidad del viento	6.4
102158	7	Sololá	713	San Lucas Tolimán	10	San Lucas Tolimán	1	Enero	2023-01-21T00:00:00	2024-11-08T11:00:00	7	Dirección del viento	6.44
102159	7	Sololá	713	San Lucas Tolimán	10	San Lucas Tolimán	1	Enero	2023-01-21T00:00:00	2024-11-08T11:00:00	1	Precipitación	0
102160	7	Sololá	713	San Lucas Tolimán	10	San Lucas Tolimán	1	Enero	2023-01-21T00:00:00	2024-11-08T11:00:00	8	Radiación solar	771
102161	7	Sololá	713	San Lucas Tolimán	10	San Lucas Tolimán	1	Enero	2023-01-21T00:00:00	2024-11-08T12:00:00	2	Temperatura media	20.1
102162	7	Sololá	713	San Lucas Tolimán	10	San Lucas Tolimán	1	Enero	2023-01-21T00:00:00	2024-11-08T12:00:00	4	Temperatura máxima	22.1
102163	7	Sololá	713	San Lucas Tolimán	10	San Lucas Tolimán	1	Enero	2023-01-21T00:00:00	2024-11-08T12:00:00	3	Temperatura mínima	20.1
102164	7	Sololá	713	San Lucas Tolimán	10	San Lucas Tolimán	1	Enero	2023-01-21T00:00:00	2024-11-08T12:00:00	5	Humedad	60
102165	7	Sololá	713	San Lucas Tolimán	10	San Lucas Tolimán	1	Enero	2023-01-21T00:00:00	2024-11-08T12:00:00	6	Velocidad del viento	14.5
102166	7	Sololá	713	San Lucas Tolimán	10	San Lucas Tolimán	1	Enero	2023-01-21T00:00:00	2024-11-08T12:00:00	7	Dirección del viento	14.48
102167	7	Sololá	713	San Lucas Tolimán	10	San Lucas Tolimán	1	Enero	2023-01-21T00:00:00	2024-11-08T12:00:00	1	Precipitación	0
102168	7	Sololá	713	San Lucas Tolimán	10	San Lucas Tolimán	1	Enero	2023-01-21T00:00:00	2024-11-08T12:00:00	8	Radiación solar	897
102169	7	Sololá	713	San Lucas Tolimán	10	San Lucas Tolimán	1	Enero	2023-01-21T00:00:00	2024-11-08T13:00:00	2	Temperatura media	21.1
102170	7	Sololá	713	San Lucas Tolimán	10	San Lucas Tolimán	1	Enero	2023-01-21T00:00:00	2024-11-08T13:00:00	4	Temperatura máxima	21.1
102171	7	Sololá	713	San Lucas Tolimán	10	San Lucas Tolimán	1	Enero	2023-01-21T00:00:00	2024-11-08T13:00:00	3	Temperatura mínima	20
102172	7	Sololá	713	San Lucas Tolimán	10	San Lucas Tolimán	1	Enero	2023-01-21T00:00:00	2024-11-08T13:00:00	5	Humedad	57
102173	7	Sololá	713	San Lucas Tolimán	10	San Lucas Tolimán	1	Enero	2023-01-21T00:00:00	2024-11-08T13:00:00	6	Velocidad del viento	14.5
102174	7	Sololá	713	San Lucas Tolimán	10	San Lucas Tolimán	1	Enero	2023-01-21T00:00:00	2024-11-08T13:00:00	7	Dirección del viento	14.48
102175	7	Sololá	713	San Lucas Tolimán	10	San Lucas Tolimán	1	Enero	2023-01-21T00:00:00	2024-11-08T13:00:00	1	Precipitación	0
102176	7	Sololá	713	San Lucas Tolimán	10	San Lucas Tolimán	1	Enero	2023-01-21T00:00:00	2024-11-08T13:00:00	8	Radiación solar	853
102177	7	Sololá	713	San Lucas Tolimán	10	San Lucas Tolimán	1	Enero	2023-01-21T00:00:00	2024-11-08T14:00:00	2	Temperatura media	20.2
102178	7	Sololá	713	San Lucas Tolimán	10	San Lucas Tolimán	1	Enero	2023-01-21T00:00:00	2024-11-08T14:00:00	4	Temperatura máxima	21.2
102179	7	Sololá	713	San Lucas Tolimán	10	San Lucas Tolimán	1	Enero	2023-01-21T00:00:00	2024-11-08T14:00:00	3	Temperatura mínima	20.2
102180	7	Sololá	713	San Lucas Tolimán	10	San Lucas Tolimán	1	Enero	2023-01-21T00:00:00	2024-11-08T14:00:00	5	Humedad	60
102181	7	Sololá	713	San Lucas Tolimán	10	San Lucas Tolimán	1	Enero	2023-01-21T00:00:00	2024-11-08T14:00:00	6	Velocidad del viento	14.5
102182	7	Sololá	713	San Lucas Tolimán	10	San Lucas Tolimán	1	Enero	2023-01-21T00:00:00	2024-11-08T14:00:00	7	Dirección del viento	14.48
102183	7	Sololá	713	San Lucas Tolimán	10	San Lucas Tolimán	1	Enero	2023-01-21T00:00:00	2024-11-08T14:00:00	1	Precipitación	0
102184	7	Sololá	713	San Lucas Tolimán	10	San Lucas Tolimán	1	Enero	2023-01-21T00:00:00	2024-11-08T14:00:00	8	Radiación solar	558
102185	7	Sololá	713	San Lucas Tolimán	10	San Lucas Tolimán	1	Enero	2023-01-21T00:00:00	2024-11-08T15:00:00	2	Temperatura media	21.5
102186	7	Sololá	713	San Lucas Tolimán	10	San Lucas Tolimán	1	Enero	2023-01-21T00:00:00	2024-11-08T15:00:00	4	Temperatura máxima	21.5
102187	7	Sololá	713	San Lucas Tolimán	10	San Lucas Tolimán	1	Enero	2023-01-21T00:00:00	2024-11-08T15:00:00	3	Temperatura mínima	20.1
102188	7	Sololá	713	San Lucas Tolimán	10	San Lucas Tolimán	1	Enero	2023-01-21T00:00:00	2024-11-08T15:00:00	5	Humedad	56
102189	7	Sololá	713	San Lucas Tolimán	10	San Lucas Tolimán	1	Enero	2023-01-21T00:00:00	2024-11-08T15:00:00	6	Velocidad del viento	9.7
102190	7	Sololá	713	San Lucas Tolimán	10	San Lucas Tolimán	1	Enero	2023-01-21T00:00:00	2024-11-08T15:00:00	7	Dirección del viento	9.66
102191	7	Sololá	713	San Lucas Tolimán	10	San Lucas Tolimán	1	Enero	2023-01-21T00:00:00	2024-11-08T15:00:00	1	Precipitación	0
102192	7	Sololá	713	San Lucas Tolimán	10	San Lucas Tolimán	1	Enero	2023-01-21T00:00:00	2024-11-08T15:00:00	8	Radiación solar	587
102193	7	Sololá	713	San Lucas Tolimán	10	San Lucas Tolimán	1	Enero	2023-01-21T00:00:00	2024-11-08T16:00:00	2	Temperatura media	20.4
102194	7	Sololá	713	San Lucas Tolimán	10	San Lucas Tolimán	1	Enero	2023-01-21T00:00:00	2024-11-08T16:00:00	4	Temperatura máxima	21.5
102195	7	Sololá	713	San Lucas Tolimán	10	San Lucas Tolimán	1	Enero	2023-01-21T00:00:00	2024-11-08T16:00:00	3	Temperatura mínima	19.6
102196	7	Sololá	713	San Lucas Tolimán	10	San Lucas Tolimán	1	Enero	2023-01-21T00:00:00	2024-11-08T16:00:00	5	Humedad	60
102197	7	Sololá	713	San Lucas Tolimán	10	San Lucas Tolimán	1	Enero	2023-01-21T00:00:00	2024-11-08T16:00:00	6	Velocidad del viento	11.3
102198	7	Sololá	713	San Lucas Tolimán	10	San Lucas Tolimán	1	Enero	2023-01-21T00:00:00	2024-11-08T16:00:00	7	Dirección del viento	11.27
102199	7	Sololá	713	San Lucas Tolimán	10	San Lucas Tolimán	1	Enero	2023-01-21T00:00:00	2024-11-08T16:00:00	1	Precipitación	0
102200	7	Sololá	713	San Lucas Tolimán	10	San Lucas Tolimán	1	Enero	2023-01-21T00:00:00	2024-11-08T16:00:00	8	Radiación solar	332
102201	7	Sololá	713	San Lucas Tolimán	10	San Lucas Tolimán	1	Enero	2023-01-21T00:00:00	2024-11-08T17:00:00	2	Temperatura media	18.9
102202	7	Sololá	713	San Lucas Tolimán	10	San Lucas Tolimán	1	Enero	2023-01-21T00:00:00	2024-11-08T17:00:00	4	Temperatura máxima	20.6
102203	7	Sololá	713	San Lucas Tolimán	10	San Lucas Tolimán	1	Enero	2023-01-21T00:00:00	2024-11-08T17:00:00	3	Temperatura mínima	18.9
102204	7	Sololá	713	San Lucas Tolimán	10	San Lucas Tolimán	1	Enero	2023-01-21T00:00:00	2024-11-08T17:00:00	5	Humedad	63
102205	7	Sololá	713	San Lucas Tolimán	10	San Lucas Tolimán	1	Enero	2023-01-21T00:00:00	2024-11-08T17:00:00	6	Velocidad del viento	11.3
102206	7	Sololá	713	San Lucas Tolimán	10	San Lucas Tolimán	1	Enero	2023-01-21T00:00:00	2024-11-08T17:00:00	7	Dirección del viento	11.27
102207	7	Sololá	713	San Lucas Tolimán	10	San Lucas Tolimán	1	Enero	2023-01-21T00:00:00	2024-11-08T17:00:00	1	Precipitación	0
102208	7	Sololá	713	San Lucas Tolimán	10	San Lucas Tolimán	1	Enero	2023-01-21T00:00:00	2024-11-08T17:00:00	8	Radiación solar	182
102209	7	Sololá	713	San Lucas Tolimán	10	San Lucas Tolimán	1	Enero	2023-01-21T00:00:00	2024-11-08T18:00:00	2	Temperatura media	17.9
102210	7	Sololá	713	San Lucas Tolimán	10	San Lucas Tolimán	1	Enero	2023-01-21T00:00:00	2024-11-08T18:00:00	4	Temperatura máxima	18.9
102211	7	Sololá	713	San Lucas Tolimán	10	San Lucas Tolimán	1	Enero	2023-01-21T00:00:00	2024-11-08T18:00:00	3	Temperatura mínima	17.9
102212	7	Sololá	713	San Lucas Tolimán	10	San Lucas Tolimán	1	Enero	2023-01-21T00:00:00	2024-11-08T18:00:00	5	Humedad	62
102213	7	Sololá	713	San Lucas Tolimán	10	San Lucas Tolimán	1	Enero	2023-01-21T00:00:00	2024-11-08T18:00:00	6	Velocidad del viento	9.7
102214	7	Sololá	713	San Lucas Tolimán	10	San Lucas Tolimán	1	Enero	2023-01-21T00:00:00	2024-11-08T18:00:00	7	Dirección del viento	9.66
102215	7	Sololá	713	San Lucas Tolimán	10	San Lucas Tolimán	1	Enero	2023-01-21T00:00:00	2024-11-08T18:00:00	1	Precipitación	0
102216	7	Sololá	713	San Lucas Tolimán	10	San Lucas Tolimán	1	Enero	2023-01-21T00:00:00	2024-11-08T18:00:00	8	Radiación solar	46
102217	7	Sololá	713	San Lucas Tolimán	10	San Lucas Tolimán	1	Enero	2023-01-21T00:00:00	2024-11-08T19:00:00	2	Temperatura media	17
102218	7	Sololá	713	San Lucas Tolimán	10	San Lucas Tolimán	1	Enero	2023-01-21T00:00:00	2024-11-08T19:00:00	4	Temperatura máxima	17.9
102219	7	Sololá	713	San Lucas Tolimán	10	San Lucas Tolimán	1	Enero	2023-01-21T00:00:00	2024-11-08T19:00:00	3	Temperatura mínima	16.9
102220	7	Sololá	713	San Lucas Tolimán	10	San Lucas Tolimán	1	Enero	2023-01-21T00:00:00	2024-11-08T19:00:00	5	Humedad	63
102221	7	Sololá	713	San Lucas Tolimán	10	San Lucas Tolimán	1	Enero	2023-01-21T00:00:00	2024-11-08T19:00:00	6	Velocidad del viento	8
102222	7	Sololá	713	San Lucas Tolimán	10	San Lucas Tolimán	1	Enero	2023-01-21T00:00:00	2024-11-08T19:00:00	7	Dirección del viento	8.05
102223	7	Sololá	713	San Lucas Tolimán	10	San Lucas Tolimán	1	Enero	2023-01-21T00:00:00	2024-11-08T19:00:00	1	Precipitación	0
102224	7	Sololá	713	San Lucas Tolimán	10	San Lucas Tolimán	1	Enero	2023-01-21T00:00:00	2024-11-08T19:00:00	8	Radiación solar	0
102225	7	Sololá	713	San Lucas Tolimán	10	San Lucas Tolimán	1	Enero	2023-01-21T00:00:00	2024-11-08T20:00:00	2	Temperatura media	16.3
102226	7	Sololá	713	San Lucas Tolimán	10	San Lucas Tolimán	1	Enero	2023-01-21T00:00:00	2024-11-08T20:00:00	4	Temperatura máxima	16.9
102227	7	Sololá	713	San Lucas Tolimán	10	San Lucas Tolimán	1	Enero	2023-01-21T00:00:00	2024-11-08T20:00:00	3	Temperatura mínima	16.3
102228	7	Sololá	713	San Lucas Tolimán	10	San Lucas Tolimán	1	Enero	2023-01-21T00:00:00	2024-11-08T20:00:00	5	Humedad	67
102229	7	Sololá	713	San Lucas Tolimán	10	San Lucas Tolimán	1	Enero	2023-01-21T00:00:00	2024-11-08T20:00:00	6	Velocidad del viento	8
102230	7	Sololá	713	San Lucas Tolimán	10	San Lucas Tolimán	1	Enero	2023-01-21T00:00:00	2024-11-08T20:00:00	7	Dirección del viento	8.05
102231	7	Sololá	713	San Lucas Tolimán	10	San Lucas Tolimán	1	Enero	2023-01-21T00:00:00	2024-11-08T20:00:00	1	Precipitación	0
102232	7	Sololá	713	San Lucas Tolimán	10	San Lucas Tolimán	1	Enero	2023-01-21T00:00:00	2024-11-08T20:00:00	8	Radiación solar	0
102233	7	Sololá	713	San Lucas Tolimán	10	San Lucas Tolimán	1	Enero	2023-01-21T00:00:00	2024-11-08T21:00:00	2	Temperatura media	15.6
102234	7	Sololá	713	San Lucas Tolimán	10	San Lucas Tolimán	1	Enero	2023-01-21T00:00:00	2024-11-08T21:00:00	4	Temperatura máxima	16.3
102235	7	Sololá	713	San Lucas Tolimán	10	San Lucas Tolimán	1	Enero	2023-01-21T00:00:00	2024-11-08T21:00:00	3	Temperatura mínima	15.6
102236	7	Sololá	713	San Lucas Tolimán	10	San Lucas Tolimán	1	Enero	2023-01-21T00:00:00	2024-11-08T21:00:00	5	Humedad	64
102237	7	Sololá	713	San Lucas Tolimán	10	San Lucas Tolimán	1	Enero	2023-01-21T00:00:00	2024-11-08T21:00:00	6	Velocidad del viento	1.6
102238	7	Sololá	713	San Lucas Tolimán	10	San Lucas Tolimán	1	Enero	2023-01-21T00:00:00	2024-11-08T21:00:00	7	Dirección del viento	1.61
102239	7	Sololá	713	San Lucas Tolimán	10	San Lucas Tolimán	1	Enero	2023-01-21T00:00:00	2024-11-08T21:00:00	1	Precipitación	0
102240	7	Sololá	713	San Lucas Tolimán	10	San Lucas Tolimán	1	Enero	2023-01-21T00:00:00	2024-11-08T21:00:00	8	Radiación solar	0
102241	7	Sololá	713	San Lucas Tolimán	10	San Lucas Tolimán	1	Enero	2023-01-21T00:00:00	2024-11-08T22:00:00	2	Temperatura media	15.1
102242	7	Sololá	713	San Lucas Tolimán	10	San Lucas Tolimán	1	Enero	2023-01-21T00:00:00	2024-11-08T22:00:00	4	Temperatura máxima	15.6
102243	7	Sololá	713	San Lucas Tolimán	10	San Lucas Tolimán	1	Enero	2023-01-21T00:00:00	2024-11-08T22:00:00	3	Temperatura mínima	15.1
102244	7	Sololá	713	San Lucas Tolimán	10	San Lucas Tolimán	1	Enero	2023-01-21T00:00:00	2024-11-08T22:00:00	5	Humedad	61
102245	7	Sololá	713	San Lucas Tolimán	10	San Lucas Tolimán	1	Enero	2023-01-21T00:00:00	2024-11-08T22:00:00	6	Velocidad del viento	0
102246	7	Sololá	713	San Lucas Tolimán	10	San Lucas Tolimán	1	Enero	2023-01-21T00:00:00	2024-11-08T22:00:00	7	Dirección del viento	0
102247	7	Sololá	713	San Lucas Tolimán	10	San Lucas Tolimán	1	Enero	2023-01-21T00:00:00	2024-11-08T22:00:00	1	Precipitación	0
102248	7	Sololá	713	San Lucas Tolimán	10	San Lucas Tolimán	1	Enero	2023-01-21T00:00:00	2024-11-08T22:00:00	8	Radiación solar	0
102249	7	Sololá	713	San Lucas Tolimán	10	San Lucas Tolimán	1	Enero	2023-01-21T00:00:00	2024-11-08T23:00:00	2	Temperatura media	14.9
102250	7	Sololá	713	San Lucas Tolimán	10	San Lucas Tolimán	1	Enero	2023-01-21T00:00:00	2024-11-08T23:00:00	4	Temperatura máxima	15.2
102251	7	Sololá	713	San Lucas Tolimán	10	San Lucas Tolimán	1	Enero	2023-01-21T00:00:00	2024-11-08T23:00:00	3	Temperatura mínima	14.8
102252	7	Sololá	713	San Lucas Tolimán	10	San Lucas Tolimán	1	Enero	2023-01-21T00:00:00	2024-11-08T23:00:00	5	Humedad	62
102253	7	Sololá	713	San Lucas Tolimán	10	San Lucas Tolimán	1	Enero	2023-01-21T00:00:00	2024-11-08T23:00:00	6	Velocidad del viento	0
102254	7	Sololá	713	San Lucas Tolimán	10	San Lucas Tolimán	1	Enero	2023-01-21T00:00:00	2024-11-08T23:00:00	7	Dirección del viento	0
102255	7	Sololá	713	San Lucas Tolimán	10	San Lucas Tolimán	1	Enero	2023-01-21T00:00:00	2024-11-08T23:00:00	1	Precipitación	0
102256	7	Sololá	713	San Lucas Tolimán	10	San Lucas Tolimán	1	Enero	2023-01-21T00:00:00	2024-11-08T23:00:00	8	Radiación solar	0
102257	7	Sololá	713	San Lucas Tolimán	10	San Lucas Tolimán	1	Enero	2023-01-22T00:00:00	2024-11-08T00:00:00	2	Temperatura media	14.1
102258	7	Sololá	713	San Lucas Tolimán	10	San Lucas Tolimán	1	Enero	2023-01-22T00:00:00	2024-11-08T00:00:00	4	Temperatura máxima	15.1
102259	7	Sololá	713	San Lucas Tolimán	10	San Lucas Tolimán	1	Enero	2023-01-22T00:00:00	2024-11-08T00:00:00	3	Temperatura mínima	14.1
102260	7	Sololá	713	San Lucas Tolimán	10	San Lucas Tolimán	1	Enero	2023-01-22T00:00:00	2024-11-08T00:00:00	5	Humedad	62
102261	7	Sololá	713	San Lucas Tolimán	10	San Lucas Tolimán	1	Enero	2023-01-22T00:00:00	2024-11-08T00:00:00	6	Velocidad del viento	1.6
102262	7	Sololá	713	San Lucas Tolimán	10	San Lucas Tolimán	1	Enero	2023-01-22T00:00:00	2024-11-08T00:00:00	7	Dirección del viento	1.61
102263	7	Sololá	713	San Lucas Tolimán	10	San Lucas Tolimán	1	Enero	2023-01-22T00:00:00	2024-11-08T00:00:00	1	Precipitación	0
102264	7	Sololá	713	San Lucas Tolimán	10	San Lucas Tolimán	1	Enero	2023-01-22T00:00:00	2024-11-08T00:00:00	8	Radiación solar	0
102265	7	Sololá	713	San Lucas Tolimán	10	San Lucas Tolimán	1	Enero	2023-01-22T00:00:00	2024-11-08T01:00:00	2	Temperatura media	13.2
102266	7	Sololá	713	San Lucas Tolimán	10	San Lucas Tolimán	1	Enero	2023-01-22T00:00:00	2024-11-08T01:00:00	4	Temperatura máxima	14.1
102267	7	Sololá	713	San Lucas Tolimán	10	San Lucas Tolimán	1	Enero	2023-01-22T00:00:00	2024-11-08T01:00:00	3	Temperatura mínima	13.2
102268	7	Sololá	713	San Lucas Tolimán	10	San Lucas Tolimán	1	Enero	2023-01-22T00:00:00	2024-11-08T01:00:00	5	Humedad	62
102269	7	Sololá	713	San Lucas Tolimán	10	San Lucas Tolimán	1	Enero	2023-01-22T00:00:00	2024-11-08T01:00:00	6	Velocidad del viento	1.6
102270	7	Sololá	713	San Lucas Tolimán	10	San Lucas Tolimán	1	Enero	2023-01-22T00:00:00	2024-11-08T01:00:00	7	Dirección del viento	1.61
102271	7	Sololá	713	San Lucas Tolimán	10	San Lucas Tolimán	1	Enero	2023-01-22T00:00:00	2024-11-08T01:00:00	1	Precipitación	0
102272	7	Sololá	713	San Lucas Tolimán	10	San Lucas Tolimán	1	Enero	2023-01-22T00:00:00	2024-11-08T01:00:00	8	Radiación solar	0
102273	7	Sololá	713	San Lucas Tolimán	10	San Lucas Tolimán	1	Enero	2023-01-22T00:00:00	2024-11-08T02:00:00	2	Temperatura media	13.1
102274	7	Sololá	713	San Lucas Tolimán	10	San Lucas Tolimán	1	Enero	2023-01-22T00:00:00	2024-11-08T02:00:00	4	Temperatura máxima	13.5
102275	7	Sololá	713	San Lucas Tolimán	10	San Lucas Tolimán	1	Enero	2023-01-22T00:00:00	2024-11-08T02:00:00	3	Temperatura mínima	13.1
102276	7	Sololá	713	San Lucas Tolimán	10	San Lucas Tolimán	1	Enero	2023-01-22T00:00:00	2024-11-08T02:00:00	5	Humedad	61
102277	7	Sololá	713	San Lucas Tolimán	10	San Lucas Tolimán	1	Enero	2023-01-22T00:00:00	2024-11-08T02:00:00	6	Velocidad del viento	0
102278	7	Sololá	713	San Lucas Tolimán	10	San Lucas Tolimán	1	Enero	2023-01-22T00:00:00	2024-11-08T02:00:00	7	Dirección del viento	0
102279	7	Sololá	713	San Lucas Tolimán	10	San Lucas Tolimán	1	Enero	2023-01-22T00:00:00	2024-11-08T02:00:00	1	Precipitación	0
102280	7	Sololá	713	San Lucas Tolimán	10	San Lucas Tolimán	1	Enero	2023-01-22T00:00:00	2024-11-08T02:00:00	8	Radiación solar	0
102281	7	Sololá	713	San Lucas Tolimán	10	San Lucas Tolimán	1	Enero	2023-01-22T00:00:00	2024-11-08T03:00:00	2	Temperatura media	12.8
102282	7	Sololá	713	San Lucas Tolimán	10	San Lucas Tolimán	1	Enero	2023-01-22T00:00:00	2024-11-08T03:00:00	4	Temperatura máxima	13.3
102283	7	Sololá	713	San Lucas Tolimán	10	San Lucas Tolimán	1	Enero	2023-01-22T00:00:00	2024-11-08T03:00:00	3	Temperatura mínima	12.7
102284	7	Sololá	713	San Lucas Tolimán	10	San Lucas Tolimán	1	Enero	2023-01-22T00:00:00	2024-11-08T03:00:00	5	Humedad	61
102285	7	Sololá	713	San Lucas Tolimán	10	San Lucas Tolimán	1	Enero	2023-01-22T00:00:00	2024-11-08T03:00:00	6	Velocidad del viento	0
102286	7	Sololá	713	San Lucas Tolimán	10	San Lucas Tolimán	1	Enero	2023-01-22T00:00:00	2024-11-08T03:00:00	7	Dirección del viento	0
102287	7	Sololá	713	San Lucas Tolimán	10	San Lucas Tolimán	1	Enero	2023-01-22T00:00:00	2024-11-08T03:00:00	1	Precipitación	0
102288	7	Sololá	713	San Lucas Tolimán	10	San Lucas Tolimán	1	Enero	2023-01-22T00:00:00	2024-11-08T03:00:00	8	Radiación solar	0
102289	7	Sololá	713	San Lucas Tolimán	10	San Lucas Tolimán	1	Enero	2023-01-22T00:00:00	2024-11-08T04:00:00	2	Temperatura media	13.1
102290	7	Sololá	713	San Lucas Tolimán	10	San Lucas Tolimán	1	Enero	2023-01-22T00:00:00	2024-11-08T04:00:00	4	Temperatura máxima	13.1
102291	7	Sololá	713	San Lucas Tolimán	10	San Lucas Tolimán	1	Enero	2023-01-22T00:00:00	2024-11-08T04:00:00	3	Temperatura mínima	12.6
102292	7	Sololá	713	San Lucas Tolimán	10	San Lucas Tolimán	1	Enero	2023-01-22T00:00:00	2024-11-08T04:00:00	5	Humedad	60
102293	7	Sololá	713	San Lucas Tolimán	10	San Lucas Tolimán	1	Enero	2023-01-22T00:00:00	2024-11-08T04:00:00	6	Velocidad del viento	0
102294	7	Sololá	713	San Lucas Tolimán	10	San Lucas Tolimán	1	Enero	2023-01-22T00:00:00	2024-11-08T04:00:00	7	Dirección del viento	0
102295	7	Sololá	713	San Lucas Tolimán	10	San Lucas Tolimán	1	Enero	2023-01-22T00:00:00	2024-11-08T04:00:00	1	Precipitación	0
102296	7	Sololá	713	San Lucas Tolimán	10	San Lucas Tolimán	1	Enero	2023-01-22T00:00:00	2024-11-08T04:00:00	8	Radiación solar	0
102297	7	Sololá	713	San Lucas Tolimán	10	San Lucas Tolimán	1	Enero	2023-01-22T00:00:00	2024-11-08T05:00:00	2	Temperatura media	11.7
102298	7	Sololá	713	San Lucas Tolimán	10	San Lucas Tolimán	1	Enero	2023-01-22T00:00:00	2024-11-08T05:00:00	4	Temperatura máxima	13.1
102299	7	Sololá	713	San Lucas Tolimán	10	San Lucas Tolimán	1	Enero	2023-01-22T00:00:00	2024-11-08T05:00:00	3	Temperatura mínima	11.7
102300	7	Sololá	713	San Lucas Tolimán	10	San Lucas Tolimán	1	Enero	2023-01-22T00:00:00	2024-11-08T05:00:00	5	Humedad	62
102301	7	Sololá	713	San Lucas Tolimán	10	San Lucas Tolimán	1	Enero	2023-01-22T00:00:00	2024-11-08T05:00:00	6	Velocidad del viento	1.6
102302	7	Sololá	713	San Lucas Tolimán	10	San Lucas Tolimán	1	Enero	2023-01-22T00:00:00	2024-11-08T05:00:00	7	Dirección del viento	1.61
102303	7	Sololá	713	San Lucas Tolimán	10	San Lucas Tolimán	1	Enero	2023-01-22T00:00:00	2024-11-08T05:00:00	1	Precipitación	0
102304	7	Sololá	713	San Lucas Tolimán	10	San Lucas Tolimán	1	Enero	2023-01-22T00:00:00	2024-11-08T05:00:00	8	Radiación solar	0
102305	7	Sololá	713	San Lucas Tolimán	10	San Lucas Tolimán	1	Enero	2023-01-22T00:00:00	2024-11-08T06:00:00	2	Temperatura media	11.7
102306	7	Sololá	713	San Lucas Tolimán	10	San Lucas Tolimán	1	Enero	2023-01-22T00:00:00	2024-11-08T06:00:00	4	Temperatura máxima	11.7
102307	7	Sololá	713	San Lucas Tolimán	10	San Lucas Tolimán	1	Enero	2023-01-22T00:00:00	2024-11-08T06:00:00	3	Temperatura mínima	11.3
102308	7	Sololá	713	San Lucas Tolimán	10	San Lucas Tolimán	1	Enero	2023-01-22T00:00:00	2024-11-08T06:00:00	5	Humedad	62
102309	7	Sololá	713	San Lucas Tolimán	10	San Lucas Tolimán	1	Enero	2023-01-22T00:00:00	2024-11-08T06:00:00	6	Velocidad del viento	1.6
102310	7	Sololá	713	San Lucas Tolimán	10	San Lucas Tolimán	1	Enero	2023-01-22T00:00:00	2024-11-08T06:00:00	7	Dirección del viento	1.61
102311	7	Sololá	713	San Lucas Tolimán	10	San Lucas Tolimán	1	Enero	2023-01-22T00:00:00	2024-11-08T06:00:00	1	Precipitación	0
102312	7	Sololá	713	San Lucas Tolimán	10	San Lucas Tolimán	1	Enero	2023-01-22T00:00:00	2024-11-08T06:00:00	8	Radiación solar	0
102313	7	Sololá	713	San Lucas Tolimán	10	San Lucas Tolimán	1	Enero	2023-01-22T00:00:00	2024-11-08T07:00:00	2	Temperatura media	13
102314	7	Sololá	713	San Lucas Tolimán	10	San Lucas Tolimán	1	Enero	2023-01-22T00:00:00	2024-11-08T07:00:00	4	Temperatura máxima	13
102315	7	Sololá	713	San Lucas Tolimán	10	San Lucas Tolimán	1	Enero	2023-01-22T00:00:00	2024-11-08T07:00:00	3	Temperatura mínima	11.7
102316	7	Sololá	713	San Lucas Tolimán	10	San Lucas Tolimán	1	Enero	2023-01-22T00:00:00	2024-11-08T07:00:00	5	Humedad	59
102317	7	Sololá	713	San Lucas Tolimán	10	San Lucas Tolimán	1	Enero	2023-01-22T00:00:00	2024-11-08T07:00:00	6	Velocidad del viento	0
102318	7	Sololá	713	San Lucas Tolimán	10	San Lucas Tolimán	1	Enero	2023-01-22T00:00:00	2024-11-08T07:00:00	7	Dirección del viento	0
102319	7	Sololá	713	San Lucas Tolimán	10	San Lucas Tolimán	1	Enero	2023-01-22T00:00:00	2024-11-08T07:00:00	1	Precipitación	0
102320	7	Sololá	713	San Lucas Tolimán	10	San Lucas Tolimán	1	Enero	2023-01-22T00:00:00	2024-11-08T07:00:00	8	Radiación solar	4
102321	7	Sololá	713	San Lucas Tolimán	10	San Lucas Tolimán	1	Enero	2023-01-22T00:00:00	2024-11-08T08:00:00	2	Temperatura media	13.6
102322	7	Sololá	713	San Lucas Tolimán	10	San Lucas Tolimán	1	Enero	2023-01-22T00:00:00	2024-11-08T08:00:00	4	Temperatura máxima	13.6
102323	7	Sololá	713	San Lucas Tolimán	10	San Lucas Tolimán	1	Enero	2023-01-22T00:00:00	2024-11-08T08:00:00	3	Temperatura mínima	12.9
102324	7	Sololá	713	San Lucas Tolimán	10	San Lucas Tolimán	1	Enero	2023-01-22T00:00:00	2024-11-08T08:00:00	5	Humedad	58
102325	7	Sololá	713	San Lucas Tolimán	10	San Lucas Tolimán	1	Enero	2023-01-22T00:00:00	2024-11-08T08:00:00	6	Velocidad del viento	1.6
102326	7	Sololá	713	San Lucas Tolimán	10	San Lucas Tolimán	1	Enero	2023-01-22T00:00:00	2024-11-08T08:00:00	7	Dirección del viento	1.61
102327	7	Sololá	713	San Lucas Tolimán	10	San Lucas Tolimán	1	Enero	2023-01-22T00:00:00	2024-11-08T08:00:00	1	Precipitación	0
102328	7	Sololá	713	San Lucas Tolimán	10	San Lucas Tolimán	1	Enero	2023-01-22T00:00:00	2024-11-08T08:00:00	8	Radiación solar	30
102329	7	Sololá	713	San Lucas Tolimán	10	San Lucas Tolimán	1	Enero	2023-01-22T00:00:00	2024-11-08T09:00:00	2	Temperatura media	16.9
102330	7	Sololá	713	San Lucas Tolimán	10	San Lucas Tolimán	1	Enero	2023-01-22T00:00:00	2024-11-08T09:00:00	4	Temperatura máxima	16.9
102331	7	Sololá	713	San Lucas Tolimán	10	San Lucas Tolimán	1	Enero	2023-01-22T00:00:00	2024-11-08T09:00:00	3	Temperatura mínima	13.6
102332	7	Sololá	713	San Lucas Tolimán	10	San Lucas Tolimán	1	Enero	2023-01-22T00:00:00	2024-11-08T09:00:00	5	Humedad	57
102333	7	Sololá	713	San Lucas Tolimán	10	San Lucas Tolimán	1	Enero	2023-01-22T00:00:00	2024-11-08T09:00:00	6	Velocidad del viento	1.6
102334	7	Sololá	713	San Lucas Tolimán	10	San Lucas Tolimán	1	Enero	2023-01-22T00:00:00	2024-11-08T09:00:00	7	Dirección del viento	1.61
102335	7	Sololá	713	San Lucas Tolimán	10	San Lucas Tolimán	1	Enero	2023-01-22T00:00:00	2024-11-08T09:00:00	1	Precipitación	0
102336	7	Sololá	713	San Lucas Tolimán	10	San Lucas Tolimán	1	Enero	2023-01-22T00:00:00	2024-11-08T09:00:00	8	Radiación solar	239
102337	7	Sololá	713	San Lucas Tolimán	10	San Lucas Tolimán	1	Enero	2023-01-22T00:00:00	2024-11-08T10:00:00	2	Temperatura media	18.2
102338	7	Sololá	713	San Lucas Tolimán	10	San Lucas Tolimán	1	Enero	2023-01-22T00:00:00	2024-11-08T10:00:00	4	Temperatura máxima	18.2
102339	7	Sololá	713	San Lucas Tolimán	10	San Lucas Tolimán	1	Enero	2023-01-22T00:00:00	2024-11-08T10:00:00	3	Temperatura mínima	16.9
102340	7	Sololá	713	San Lucas Tolimán	10	San Lucas Tolimán	1	Enero	2023-01-22T00:00:00	2024-11-08T10:00:00	5	Humedad	55
102341	7	Sololá	713	San Lucas Tolimán	10	San Lucas Tolimán	1	Enero	2023-01-22T00:00:00	2024-11-08T10:00:00	6	Velocidad del viento	4.8
102342	7	Sololá	713	San Lucas Tolimán	10	San Lucas Tolimán	1	Enero	2023-01-22T00:00:00	2024-11-08T10:00:00	7	Dirección del viento	4.83
102343	7	Sololá	713	San Lucas Tolimán	10	San Lucas Tolimán	1	Enero	2023-01-22T00:00:00	2024-11-08T10:00:00	1	Precipitación	0
102344	7	Sololá	713	San Lucas Tolimán	10	San Lucas Tolimán	1	Enero	2023-01-22T00:00:00	2024-11-08T10:00:00	8	Radiación solar	605
102345	7	Sololá	713	San Lucas Tolimán	10	San Lucas Tolimán	1	Enero	2023-01-22T00:00:00	2024-11-08T11:00:00	2	Temperatura media	19.3
102346	7	Sololá	713	San Lucas Tolimán	10	San Lucas Tolimán	1	Enero	2023-01-22T00:00:00	2024-11-08T11:00:00	4	Temperatura máxima	19.6
102347	7	Sololá	713	San Lucas Tolimán	10	San Lucas Tolimán	1	Enero	2023-01-22T00:00:00	2024-11-08T11:00:00	3	Temperatura mínima	18.3
102348	7	Sololá	713	San Lucas Tolimán	10	San Lucas Tolimán	1	Enero	2023-01-22T00:00:00	2024-11-08T11:00:00	5	Humedad	53
102349	7	Sololá	713	San Lucas Tolimán	10	San Lucas Tolimán	1	Enero	2023-01-22T00:00:00	2024-11-08T11:00:00	6	Velocidad del viento	8
102350	7	Sololá	713	San Lucas Tolimán	10	San Lucas Tolimán	1	Enero	2023-01-22T00:00:00	2024-11-08T11:00:00	7	Dirección del viento	8.05
102351	7	Sololá	713	San Lucas Tolimán	10	San Lucas Tolimán	1	Enero	2023-01-22T00:00:00	2024-11-08T11:00:00	1	Precipitación	0
102352	7	Sololá	713	San Lucas Tolimán	10	San Lucas Tolimán	1	Enero	2023-01-22T00:00:00	2024-11-08T11:00:00	8	Radiación solar	791
102353	7	Sololá	713	San Lucas Tolimán	10	San Lucas Tolimán	1	Enero	2023-01-22T00:00:00	2024-11-08T12:00:00	2	Temperatura media	22.2
102354	7	Sololá	713	San Lucas Tolimán	10	San Lucas Tolimán	1	Enero	2023-01-22T00:00:00	2024-11-08T12:00:00	4	Temperatura máxima	22.4
102355	7	Sololá	713	San Lucas Tolimán	10	San Lucas Tolimán	1	Enero	2023-01-22T00:00:00	2024-11-08T12:00:00	3	Temperatura mínima	19.2
102356	7	Sololá	713	San Lucas Tolimán	10	San Lucas Tolimán	1	Enero	2023-01-22T00:00:00	2024-11-08T12:00:00	5	Humedad	40
102357	7	Sololá	713	San Lucas Tolimán	10	San Lucas Tolimán	1	Enero	2023-01-22T00:00:00	2024-11-08T12:00:00	6	Velocidad del viento	6.4
102358	7	Sololá	713	San Lucas Tolimán	10	San Lucas Tolimán	1	Enero	2023-01-22T00:00:00	2024-11-08T12:00:00	7	Dirección del viento	6.44
102359	7	Sololá	713	San Lucas Tolimán	10	San Lucas Tolimán	1	Enero	2023-01-22T00:00:00	2024-11-08T12:00:00	1	Precipitación	0
102360	7	Sololá	713	San Lucas Tolimán	10	San Lucas Tolimán	1	Enero	2023-01-22T00:00:00	2024-11-08T12:00:00	8	Radiación solar	902
102361	7	Sololá	713	San Lucas Tolimán	10	San Lucas Tolimán	1	Enero	2023-01-22T00:00:00	2024-11-08T13:00:00	2	Temperatura media	21.6
102362	7	Sololá	713	San Lucas Tolimán	10	San Lucas Tolimán	1	Enero	2023-01-22T00:00:00	2024-11-08T13:00:00	4	Temperatura máxima	22.4
102363	7	Sololá	713	San Lucas Tolimán	10	San Lucas Tolimán	1	Enero	2023-01-22T00:00:00	2024-11-08T13:00:00	3	Temperatura mínima	21.2
102364	7	Sololá	713	San Lucas Tolimán	10	San Lucas Tolimán	1	Enero	2023-01-22T00:00:00	2024-11-08T13:00:00	5	Humedad	50
102365	7	Sololá	713	San Lucas Tolimán	10	San Lucas Tolimán	1	Enero	2023-01-22T00:00:00	2024-11-08T13:00:00	6	Velocidad del viento	9.7
102366	7	Sololá	713	San Lucas Tolimán	10	San Lucas Tolimán	1	Enero	2023-01-22T00:00:00	2024-11-08T13:00:00	7	Dirección del viento	9.66
102367	7	Sololá	713	San Lucas Tolimán	10	San Lucas Tolimán	1	Enero	2023-01-22T00:00:00	2024-11-08T13:00:00	1	Precipitación	0
102368	7	Sololá	713	San Lucas Tolimán	10	San Lucas Tolimán	1	Enero	2023-01-22T00:00:00	2024-11-08T13:00:00	8	Radiación solar	928
102369	7	Sololá	713	San Lucas Tolimán	10	San Lucas Tolimán	1	Enero	2023-01-22T00:00:00	2024-11-08T14:00:00	2	Temperatura media	21.8
102370	7	Sololá	713	San Lucas Tolimán	10	San Lucas Tolimán	1	Enero	2023-01-22T00:00:00	2024-11-08T14:00:00	4	Temperatura máxima	21.9
102371	7	Sololá	713	San Lucas Tolimán	10	San Lucas Tolimán	1	Enero	2023-01-22T00:00:00	2024-11-08T14:00:00	3	Temperatura mínima	21.2
102372	7	Sololá	713	San Lucas Tolimán	10	San Lucas Tolimán	1	Enero	2023-01-22T00:00:00	2024-11-08T14:00:00	5	Humedad	50
102373	7	Sololá	713	San Lucas Tolimán	10	San Lucas Tolimán	1	Enero	2023-01-22T00:00:00	2024-11-08T14:00:00	6	Velocidad del viento	12.9
102374	7	Sololá	713	San Lucas Tolimán	10	San Lucas Tolimán	1	Enero	2023-01-22T00:00:00	2024-11-08T14:00:00	7	Dirección del viento	12.87
102375	7	Sololá	713	San Lucas Tolimán	10	San Lucas Tolimán	1	Enero	2023-01-22T00:00:00	2024-11-08T14:00:00	1	Precipitación	0
102376	7	Sololá	713	San Lucas Tolimán	10	San Lucas Tolimán	1	Enero	2023-01-22T00:00:00	2024-11-08T14:00:00	8	Radiación solar	865
102377	7	Sololá	713	San Lucas Tolimán	10	San Lucas Tolimán	1	Enero	2023-01-22T00:00:00	2024-11-08T15:00:00	2	Temperatura media	20.9
102378	7	Sololá	713	San Lucas Tolimán	10	San Lucas Tolimán	1	Enero	2023-01-22T00:00:00	2024-11-08T15:00:00	4	Temperatura máxima	21.8
102379	7	Sololá	713	San Lucas Tolimán	10	San Lucas Tolimán	1	Enero	2023-01-22T00:00:00	2024-11-08T15:00:00	3	Temperatura mínima	20.9
102380	7	Sololá	713	San Lucas Tolimán	10	San Lucas Tolimán	1	Enero	2023-01-22T00:00:00	2024-11-08T15:00:00	5	Humedad	54
102381	7	Sololá	713	San Lucas Tolimán	10	San Lucas Tolimán	1	Enero	2023-01-22T00:00:00	2024-11-08T15:00:00	6	Velocidad del viento	14.5
102382	7	Sololá	713	San Lucas Tolimán	10	San Lucas Tolimán	1	Enero	2023-01-22T00:00:00	2024-11-08T15:00:00	7	Dirección del viento	14.48
102383	7	Sololá	713	San Lucas Tolimán	10	San Lucas Tolimán	1	Enero	2023-01-22T00:00:00	2024-11-08T15:00:00	1	Precipitación	0
102384	7	Sololá	713	San Lucas Tolimán	10	San Lucas Tolimán	1	Enero	2023-01-22T00:00:00	2024-11-08T15:00:00	8	Radiación solar	720
102385	7	Sololá	713	San Lucas Tolimán	10	San Lucas Tolimán	1	Enero	2023-01-22T00:00:00	2024-11-08T16:00:00	2	Temperatura media	20.3
102386	7	Sololá	713	San Lucas Tolimán	10	San Lucas Tolimán	1	Enero	2023-01-22T00:00:00	2024-11-08T16:00:00	4	Temperatura máxima	21.3
102387	7	Sololá	713	San Lucas Tolimán	10	San Lucas Tolimán	1	Enero	2023-01-22T00:00:00	2024-11-08T16:00:00	3	Temperatura mínima	20.3
102388	7	Sololá	713	San Lucas Tolimán	10	San Lucas Tolimán	1	Enero	2023-01-22T00:00:00	2024-11-08T16:00:00	5	Humedad	57
102389	7	Sololá	713	San Lucas Tolimán	10	San Lucas Tolimán	1	Enero	2023-01-22T00:00:00	2024-11-08T16:00:00	6	Velocidad del viento	14.5
102390	7	Sololá	713	San Lucas Tolimán	10	San Lucas Tolimán	1	Enero	2023-01-22T00:00:00	2024-11-08T16:00:00	7	Dirección del viento	14.48
102391	7	Sololá	713	San Lucas Tolimán	10	San Lucas Tolimán	1	Enero	2023-01-22T00:00:00	2024-11-08T16:00:00	1	Precipitación	0
102392	7	Sololá	713	San Lucas Tolimán	10	San Lucas Tolimán	1	Enero	2023-01-22T00:00:00	2024-11-08T16:00:00	8	Radiación solar	537
102393	7	Sololá	713	San Lucas Tolimán	10	San Lucas Tolimán	1	Enero	2023-01-22T00:00:00	2024-11-08T17:00:00	2	Temperatura media	18.3
102394	7	Sololá	713	San Lucas Tolimán	10	San Lucas Tolimán	1	Enero	2023-01-22T00:00:00	2024-11-08T17:00:00	4	Temperatura máxima	20.3
102395	7	Sololá	713	San Lucas Tolimán	10	San Lucas Tolimán	1	Enero	2023-01-22T00:00:00	2024-11-08T17:00:00	3	Temperatura mínima	18.3
102396	7	Sololá	713	San Lucas Tolimán	10	San Lucas Tolimán	1	Enero	2023-01-22T00:00:00	2024-11-08T17:00:00	5	Humedad	62
102397	7	Sololá	713	San Lucas Tolimán	10	San Lucas Tolimán	1	Enero	2023-01-22T00:00:00	2024-11-08T17:00:00	6	Velocidad del viento	12.9
102398	7	Sololá	713	San Lucas Tolimán	10	San Lucas Tolimán	1	Enero	2023-01-22T00:00:00	2024-11-08T17:00:00	7	Dirección del viento	12.87
102399	7	Sololá	713	San Lucas Tolimán	10	San Lucas Tolimán	1	Enero	2023-01-22T00:00:00	2024-11-08T17:00:00	1	Precipitación	0
102400	7	Sololá	713	San Lucas Tolimán	10	San Lucas Tolimán	1	Enero	2023-01-22T00:00:00	2024-11-08T17:00:00	8	Radiación solar	99
102401	7	Sololá	713	San Lucas Tolimán	10	San Lucas Tolimán	1	Enero	2023-01-22T00:00:00	2024-11-08T18:00:00	2	Temperatura media	17.4
102402	7	Sololá	713	San Lucas Tolimán	10	San Lucas Tolimán	1	Enero	2023-01-22T00:00:00	2024-11-08T18:00:00	4	Temperatura máxima	18.4
102403	7	Sololá	713	San Lucas Tolimán	10	San Lucas Tolimán	1	Enero	2023-01-22T00:00:00	2024-11-08T18:00:00	3	Temperatura mínima	17.4
102404	7	Sololá	713	San Lucas Tolimán	10	San Lucas Tolimán	1	Enero	2023-01-22T00:00:00	2024-11-08T18:00:00	5	Humedad	62
102405	7	Sololá	713	San Lucas Tolimán	10	San Lucas Tolimán	1	Enero	2023-01-22T00:00:00	2024-11-08T18:00:00	6	Velocidad del viento	8
102406	7	Sololá	713	San Lucas Tolimán	10	San Lucas Tolimán	1	Enero	2023-01-22T00:00:00	2024-11-08T18:00:00	7	Dirección del viento	8.05
102407	7	Sololá	713	San Lucas Tolimán	10	San Lucas Tolimán	1	Enero	2023-01-22T00:00:00	2024-11-08T18:00:00	1	Precipitación	0
102408	7	Sololá	713	San Lucas Tolimán	10	San Lucas Tolimán	1	Enero	2023-01-22T00:00:00	2024-11-08T18:00:00	8	Radiación solar	28
102409	7	Sololá	713	San Lucas Tolimán	10	San Lucas Tolimán	1	Enero	2023-01-22T00:00:00	2024-11-08T19:00:00	2	Temperatura media	16.8
102410	7	Sololá	713	San Lucas Tolimán	10	San Lucas Tolimán	1	Enero	2023-01-22T00:00:00	2024-11-08T19:00:00	4	Temperatura máxima	17.4
102411	7	Sololá	713	San Lucas Tolimán	10	San Lucas Tolimán	1	Enero	2023-01-22T00:00:00	2024-11-08T19:00:00	3	Temperatura mínima	16.8
102412	7	Sololá	713	San Lucas Tolimán	10	San Lucas Tolimán	1	Enero	2023-01-22T00:00:00	2024-11-08T19:00:00	5	Humedad	62
102413	7	Sololá	713	San Lucas Tolimán	10	San Lucas Tolimán	1	Enero	2023-01-22T00:00:00	2024-11-08T19:00:00	6	Velocidad del viento	4.8
102414	7	Sololá	713	San Lucas Tolimán	10	San Lucas Tolimán	1	Enero	2023-01-22T00:00:00	2024-11-08T19:00:00	7	Dirección del viento	4.83
102415	7	Sololá	713	San Lucas Tolimán	10	San Lucas Tolimán	1	Enero	2023-01-22T00:00:00	2024-11-08T19:00:00	1	Precipitación	0
102416	7	Sololá	713	San Lucas Tolimán	10	San Lucas Tolimán	1	Enero	2023-01-22T00:00:00	2024-11-08T19:00:00	8	Radiación solar	0
102417	7	Sololá	713	San Lucas Tolimán	10	San Lucas Tolimán	1	Enero	2023-01-22T00:00:00	2024-11-08T20:00:00	2	Temperatura media	15.8
102418	7	Sololá	713	San Lucas Tolimán	10	San Lucas Tolimán	1	Enero	2023-01-22T00:00:00	2024-11-08T20:00:00	4	Temperatura máxima	16.8
102419	7	Sololá	713	San Lucas Tolimán	10	San Lucas Tolimán	1	Enero	2023-01-22T00:00:00	2024-11-08T20:00:00	3	Temperatura mínima	15.8
102420	7	Sololá	713	San Lucas Tolimán	10	San Lucas Tolimán	1	Enero	2023-01-22T00:00:00	2024-11-08T20:00:00	5	Humedad	59
102421	7	Sololá	713	San Lucas Tolimán	10	San Lucas Tolimán	1	Enero	2023-01-22T00:00:00	2024-11-08T20:00:00	6	Velocidad del viento	4.8
102422	7	Sololá	713	San Lucas Tolimán	10	San Lucas Tolimán	1	Enero	2023-01-22T00:00:00	2024-11-08T20:00:00	7	Dirección del viento	4.83
102423	7	Sololá	713	San Lucas Tolimán	10	San Lucas Tolimán	1	Enero	2023-01-22T00:00:00	2024-11-08T20:00:00	1	Precipitación	0
102424	7	Sololá	713	San Lucas Tolimán	10	San Lucas Tolimán	1	Enero	2023-01-22T00:00:00	2024-11-08T20:00:00	8	Radiación solar	0
102425	7	Sololá	713	San Lucas Tolimán	10	San Lucas Tolimán	1	Enero	2023-01-22T00:00:00	2024-11-08T21:00:00	2	Temperatura media	15.2
102426	7	Sololá	713	San Lucas Tolimán	10	San Lucas Tolimán	1	Enero	2023-01-22T00:00:00	2024-11-08T21:00:00	4	Temperatura máxima	15.8
102427	7	Sololá	713	San Lucas Tolimán	10	San Lucas Tolimán	1	Enero	2023-01-22T00:00:00	2024-11-08T21:00:00	3	Temperatura mínima	15.2
102428	7	Sololá	713	San Lucas Tolimán	10	San Lucas Tolimán	1	Enero	2023-01-22T00:00:00	2024-11-08T21:00:00	5	Humedad	60
102429	7	Sololá	713	San Lucas Tolimán	10	San Lucas Tolimán	1	Enero	2023-01-22T00:00:00	2024-11-08T21:00:00	6	Velocidad del viento	1.6
102430	7	Sololá	713	San Lucas Tolimán	10	San Lucas Tolimán	1	Enero	2023-01-22T00:00:00	2024-11-08T21:00:00	7	Dirección del viento	1.61
102431	7	Sololá	713	San Lucas Tolimán	10	San Lucas Tolimán	1	Enero	2023-01-22T00:00:00	2024-11-08T21:00:00	1	Precipitación	0
102432	7	Sololá	713	San Lucas Tolimán	10	San Lucas Tolimán	1	Enero	2023-01-22T00:00:00	2024-11-08T21:00:00	8	Radiación solar	0
102433	7	Sololá	713	San Lucas Tolimán	10	San Lucas Tolimán	1	Enero	2023-01-22T00:00:00	2024-11-08T22:00:00	2	Temperatura media	14.9
102434	7	Sololá	713	San Lucas Tolimán	10	San Lucas Tolimán	1	Enero	2023-01-22T00:00:00	2024-11-08T22:00:00	4	Temperatura máxima	15.2
102435	7	Sololá	713	San Lucas Tolimán	10	San Lucas Tolimán	1	Enero	2023-01-22T00:00:00	2024-11-08T22:00:00	3	Temperatura mínima	14.7
102436	7	Sololá	713	San Lucas Tolimán	10	San Lucas Tolimán	1	Enero	2023-01-22T00:00:00	2024-11-08T22:00:00	5	Humedad	61
102437	7	Sololá	713	San Lucas Tolimán	10	San Lucas Tolimán	1	Enero	2023-01-22T00:00:00	2024-11-08T22:00:00	6	Velocidad del viento	0
102438	7	Sololá	713	San Lucas Tolimán	10	San Lucas Tolimán	1	Enero	2023-01-22T00:00:00	2024-11-08T22:00:00	7	Dirección del viento	0
102439	7	Sololá	713	San Lucas Tolimán	10	San Lucas Tolimán	1	Enero	2023-01-22T00:00:00	2024-11-08T22:00:00	1	Precipitación	0
102440	7	Sololá	713	San Lucas Tolimán	10	San Lucas Tolimán	1	Enero	2023-01-22T00:00:00	2024-11-08T22:00:00	8	Radiación solar	0
102441	7	Sololá	713	San Lucas Tolimán	10	San Lucas Tolimán	1	Enero	2023-01-22T00:00:00	2024-11-08T23:00:00	2	Temperatura media	15.2
102442	7	Sololá	713	San Lucas Tolimán	10	San Lucas Tolimán	1	Enero	2023-01-22T00:00:00	2024-11-08T23:00:00	4	Temperatura máxima	15.3
102443	7	Sololá	713	San Lucas Tolimán	10	San Lucas Tolimán	1	Enero	2023-01-22T00:00:00	2024-11-08T23:00:00	3	Temperatura mínima	14.9
102444	7	Sololá	713	San Lucas Tolimán	10	San Lucas Tolimán	1	Enero	2023-01-22T00:00:00	2024-11-08T23:00:00	5	Humedad	57
102445	7	Sololá	713	San Lucas Tolimán	10	San Lucas Tolimán	1	Enero	2023-01-22T00:00:00	2024-11-08T23:00:00	6	Velocidad del viento	0
102446	7	Sololá	713	San Lucas Tolimán	10	San Lucas Tolimán	1	Enero	2023-01-22T00:00:00	2024-11-08T23:00:00	7	Dirección del viento	0
102447	7	Sololá	713	San Lucas Tolimán	10	San Lucas Tolimán	1	Enero	2023-01-22T00:00:00	2024-11-08T23:00:00	1	Precipitación	0
102448	7	Sololá	713	San Lucas Tolimán	10	San Lucas Tolimán	1	Enero	2023-01-22T00:00:00	2024-11-08T23:00:00	8	Radiación solar	0
102449	7	Sololá	713	San Lucas Tolimán	10	San Lucas Tolimán	1	Enero	2023-01-23T00:00:00	2024-11-08T00:00:00	2	Temperatura media	15.8
102450	7	Sololá	713	San Lucas Tolimán	10	San Lucas Tolimán	1	Enero	2023-01-23T00:00:00	2024-11-08T00:00:00	4	Temperatura máxima	16.3
102451	7	Sololá	713	San Lucas Tolimán	10	San Lucas Tolimán	1	Enero	2023-01-23T00:00:00	2024-11-08T00:00:00	3	Temperatura mínima	15.2
102452	7	Sololá	713	San Lucas Tolimán	10	San Lucas Tolimán	1	Enero	2023-01-23T00:00:00	2024-11-08T00:00:00	5	Humedad	56
102453	7	Sololá	713	San Lucas Tolimán	10	San Lucas Tolimán	1	Enero	2023-01-23T00:00:00	2024-11-08T00:00:00	6	Velocidad del viento	1.6
102454	7	Sololá	713	San Lucas Tolimán	10	San Lucas Tolimán	1	Enero	2023-01-23T00:00:00	2024-11-08T00:00:00	7	Dirección del viento	1.61
102455	7	Sololá	713	San Lucas Tolimán	10	San Lucas Tolimán	1	Enero	2023-01-23T00:00:00	2024-11-08T00:00:00	1	Precipitación	0
102456	7	Sololá	713	San Lucas Tolimán	10	San Lucas Tolimán	1	Enero	2023-01-23T00:00:00	2024-11-08T00:00:00	8	Radiación solar	0
102457	7	Sololá	713	San Lucas Tolimán	10	San Lucas Tolimán	1	Enero	2023-01-23T00:00:00	2024-11-08T01:00:00	2	Temperatura media	14.6
102458	7	Sololá	713	San Lucas Tolimán	10	San Lucas Tolimán	1	Enero	2023-01-23T00:00:00	2024-11-08T01:00:00	4	Temperatura máxima	15.8
102459	7	Sololá	713	San Lucas Tolimán	10	San Lucas Tolimán	1	Enero	2023-01-23T00:00:00	2024-11-08T01:00:00	3	Temperatura mínima	14.6
102460	7	Sololá	713	San Lucas Tolimán	10	San Lucas Tolimán	1	Enero	2023-01-23T00:00:00	2024-11-08T01:00:00	5	Humedad	60
102461	7	Sololá	713	San Lucas Tolimán	10	San Lucas Tolimán	1	Enero	2023-01-23T00:00:00	2024-11-08T01:00:00	6	Velocidad del viento	1.6
102462	7	Sololá	713	San Lucas Tolimán	10	San Lucas Tolimán	1	Enero	2023-01-23T00:00:00	2024-11-08T01:00:00	7	Dirección del viento	1.61
102463	7	Sololá	713	San Lucas Tolimán	10	San Lucas Tolimán	1	Enero	2023-01-23T00:00:00	2024-11-08T01:00:00	1	Precipitación	0
102464	7	Sololá	713	San Lucas Tolimán	10	San Lucas Tolimán	1	Enero	2023-01-23T00:00:00	2024-11-08T01:00:00	8	Radiación solar	0
102465	7	Sololá	713	San Lucas Tolimán	10	San Lucas Tolimán	1	Enero	2023-01-23T00:00:00	2024-11-08T02:00:00	2	Temperatura media	14.1
102466	7	Sololá	713	San Lucas Tolimán	10	San Lucas Tolimán	1	Enero	2023-01-23T00:00:00	2024-11-08T02:00:00	4	Temperatura máxima	14.6
102467	7	Sololá	713	San Lucas Tolimán	10	San Lucas Tolimán	1	Enero	2023-01-23T00:00:00	2024-11-08T02:00:00	3	Temperatura mínima	13.7
102468	7	Sololá	713	San Lucas Tolimán	10	San Lucas Tolimán	1	Enero	2023-01-23T00:00:00	2024-11-08T02:00:00	5	Humedad	61
102469	7	Sololá	713	San Lucas Tolimán	10	San Lucas Tolimán	1	Enero	2023-01-23T00:00:00	2024-11-08T02:00:00	6	Velocidad del viento	3.2
102470	7	Sololá	713	San Lucas Tolimán	10	San Lucas Tolimán	1	Enero	2023-01-23T00:00:00	2024-11-08T02:00:00	7	Dirección del viento	3.22
102471	7	Sololá	713	San Lucas Tolimán	10	San Lucas Tolimán	1	Enero	2023-01-23T00:00:00	2024-11-08T02:00:00	1	Precipitación	0
102472	7	Sololá	713	San Lucas Tolimán	10	San Lucas Tolimán	1	Enero	2023-01-23T00:00:00	2024-11-08T02:00:00	8	Radiación solar	0
102473	7	Sololá	713	San Lucas Tolimán	10	San Lucas Tolimán	1	Enero	2023-01-23T00:00:00	2024-11-08T03:00:00	2	Temperatura media	14.3
102474	7	Sololá	713	San Lucas Tolimán	10	San Lucas Tolimán	1	Enero	2023-01-23T00:00:00	2024-11-08T03:00:00	4	Temperatura máxima	14.8
102475	7	Sololá	713	San Lucas Tolimán	10	San Lucas Tolimán	1	Enero	2023-01-23T00:00:00	2024-11-08T03:00:00	3	Temperatura mínima	14.1
102476	7	Sololá	713	San Lucas Tolimán	10	San Lucas Tolimán	1	Enero	2023-01-23T00:00:00	2024-11-08T03:00:00	5	Humedad	61
102477	7	Sololá	713	San Lucas Tolimán	10	San Lucas Tolimán	1	Enero	2023-01-23T00:00:00	2024-11-08T03:00:00	6	Velocidad del viento	0
102478	7	Sololá	713	San Lucas Tolimán	10	San Lucas Tolimán	1	Enero	2023-01-23T00:00:00	2024-11-08T03:00:00	7	Dirección del viento	0
102479	7	Sololá	713	San Lucas Tolimán	10	San Lucas Tolimán	1	Enero	2023-01-23T00:00:00	2024-11-08T03:00:00	1	Precipitación	0
102480	7	Sololá	713	San Lucas Tolimán	10	San Lucas Tolimán	1	Enero	2023-01-23T00:00:00	2024-11-08T03:00:00	8	Radiación solar	0
102481	7	Sololá	713	San Lucas Tolimán	10	San Lucas Tolimán	1	Enero	2023-01-23T00:00:00	2024-11-08T04:00:00	2	Temperatura media	14.3
102482	7	Sololá	713	San Lucas Tolimán	10	San Lucas Tolimán	1	Enero	2023-01-23T00:00:00	2024-11-08T04:00:00	4	Temperatura máxima	15.1
102483	7	Sololá	713	San Lucas Tolimán	10	San Lucas Tolimán	1	Enero	2023-01-23T00:00:00	2024-11-08T04:00:00	3	Temperatura mínima	14.3
102484	7	Sololá	713	San Lucas Tolimán	10	San Lucas Tolimán	1	Enero	2023-01-23T00:00:00	2024-11-08T04:00:00	5	Humedad	59
102485	7	Sololá	713	San Lucas Tolimán	10	San Lucas Tolimán	1	Enero	2023-01-23T00:00:00	2024-11-08T04:00:00	6	Velocidad del viento	0
102486	7	Sololá	713	San Lucas Tolimán	10	San Lucas Tolimán	1	Enero	2023-01-23T00:00:00	2024-11-08T04:00:00	7	Dirección del viento	0
102487	7	Sololá	713	San Lucas Tolimán	10	San Lucas Tolimán	1	Enero	2023-01-23T00:00:00	2024-11-08T04:00:00	1	Precipitación	0
102488	7	Sololá	713	San Lucas Tolimán	10	San Lucas Tolimán	1	Enero	2023-01-23T00:00:00	2024-11-08T04:00:00	8	Radiación solar	0
102489	7	Sololá	713	San Lucas Tolimán	10	San Lucas Tolimán	1	Enero	2023-01-23T00:00:00	2024-11-08T05:00:00	2	Temperatura media	13.6
102490	7	Sololá	713	San Lucas Tolimán	10	San Lucas Tolimán	1	Enero	2023-01-23T00:00:00	2024-11-08T05:00:00	4	Temperatura máxima	14.3
102491	7	Sololá	713	San Lucas Tolimán	10	San Lucas Tolimán	1	Enero	2023-01-23T00:00:00	2024-11-08T05:00:00	3	Temperatura mínima	13.2
102492	7	Sololá	713	San Lucas Tolimán	10	San Lucas Tolimán	1	Enero	2023-01-23T00:00:00	2024-11-08T05:00:00	5	Humedad	60
102493	7	Sololá	713	San Lucas Tolimán	10	San Lucas Tolimán	1	Enero	2023-01-23T00:00:00	2024-11-08T05:00:00	6	Velocidad del viento	0
102494	7	Sololá	713	San Lucas Tolimán	10	San Lucas Tolimán	1	Enero	2023-01-23T00:00:00	2024-11-08T05:00:00	7	Dirección del viento	0
102495	7	Sololá	713	San Lucas Tolimán	10	San Lucas Tolimán	1	Enero	2023-01-23T00:00:00	2024-11-08T05:00:00	1	Precipitación	0
102496	7	Sololá	713	San Lucas Tolimán	10	San Lucas Tolimán	1	Enero	2023-01-23T00:00:00	2024-11-08T05:00:00	8	Radiación solar	0
102497	7	Sololá	713	San Lucas Tolimán	10	San Lucas Tolimán	1	Enero	2023-01-23T00:00:00	2024-11-08T06:00:00	2	Temperatura media	13.9
102498	7	Sololá	713	San Lucas Tolimán	10	San Lucas Tolimán	1	Enero	2023-01-23T00:00:00	2024-11-08T06:00:00	4	Temperatura máxima	13.9
102499	7	Sololá	713	San Lucas Tolimán	10	San Lucas Tolimán	1	Enero	2023-01-23T00:00:00	2024-11-08T06:00:00	3	Temperatura mínima	13.2
102500	7	Sololá	713	San Lucas Tolimán	10	San Lucas Tolimán	1	Enero	2023-01-23T00:00:00	2024-11-08T06:00:00	5	Humedad	56
102501	7	Sololá	713	San Lucas Tolimán	10	San Lucas Tolimán	1	Enero	2023-01-23T00:00:00	2024-11-08T06:00:00	6	Velocidad del viento	1.6
102502	7	Sololá	713	San Lucas Tolimán	10	San Lucas Tolimán	1	Enero	2023-01-23T00:00:00	2024-11-08T06:00:00	7	Dirección del viento	1.61
102503	7	Sololá	713	San Lucas Tolimán	10	San Lucas Tolimán	1	Enero	2023-01-23T00:00:00	2024-11-08T06:00:00	1	Precipitación	0
102504	7	Sololá	713	San Lucas Tolimán	10	San Lucas Tolimán	1	Enero	2023-01-23T00:00:00	2024-11-08T06:00:00	8	Radiación solar	0
102505	7	Sololá	713	San Lucas Tolimán	10	San Lucas Tolimán	1	Enero	2023-01-23T00:00:00	2024-11-08T07:00:00	2	Temperatura media	14.4
102506	7	Sololá	713	San Lucas Tolimán	10	San Lucas Tolimán	1	Enero	2023-01-23T00:00:00	2024-11-08T07:00:00	4	Temperatura máxima	14.7
102507	7	Sololá	713	San Lucas Tolimán	10	San Lucas Tolimán	1	Enero	2023-01-23T00:00:00	2024-11-08T07:00:00	3	Temperatura mínima	13.9
102508	7	Sololá	713	San Lucas Tolimán	10	San Lucas Tolimán	1	Enero	2023-01-23T00:00:00	2024-11-08T07:00:00	5	Humedad	57
102509	7	Sololá	713	San Lucas Tolimán	10	San Lucas Tolimán	1	Enero	2023-01-23T00:00:00	2024-11-08T07:00:00	6	Velocidad del viento	3.2
102510	7	Sololá	713	San Lucas Tolimán	10	San Lucas Tolimán	1	Enero	2023-01-23T00:00:00	2024-11-08T07:00:00	7	Dirección del viento	3.22
102511	7	Sololá	713	San Lucas Tolimán	10	San Lucas Tolimán	1	Enero	2023-01-23T00:00:00	2024-11-08T07:00:00	1	Precipitación	0
102512	7	Sololá	713	San Lucas Tolimán	10	San Lucas Tolimán	1	Enero	2023-01-23T00:00:00	2024-11-08T07:00:00	8	Radiación solar	4
102513	7	Sololá	713	San Lucas Tolimán	10	San Lucas Tolimán	1	Enero	2023-01-23T00:00:00	2024-11-08T08:00:00	2	Temperatura media	15.4
102514	7	Sololá	713	San Lucas Tolimán	10	San Lucas Tolimán	1	Enero	2023-01-23T00:00:00	2024-11-08T08:00:00	4	Temperatura máxima	15.5
102515	7	Sololá	713	San Lucas Tolimán	10	San Lucas Tolimán	1	Enero	2023-01-23T00:00:00	2024-11-08T08:00:00	3	Temperatura mínima	14.2
102516	7	Sololá	713	San Lucas Tolimán	10	San Lucas Tolimán	1	Enero	2023-01-23T00:00:00	2024-11-08T08:00:00	5	Humedad	55
102517	7	Sololá	713	San Lucas Tolimán	10	San Lucas Tolimán	1	Enero	2023-01-23T00:00:00	2024-11-08T08:00:00	6	Velocidad del viento	3.2
102518	7	Sololá	713	San Lucas Tolimán	10	San Lucas Tolimán	1	Enero	2023-01-23T00:00:00	2024-11-08T08:00:00	7	Dirección del viento	3.22
102519	7	Sololá	713	San Lucas Tolimán	10	San Lucas Tolimán	1	Enero	2023-01-23T00:00:00	2024-11-08T08:00:00	1	Precipitación	0
102520	7	Sololá	713	San Lucas Tolimán	10	San Lucas Tolimán	1	Enero	2023-01-23T00:00:00	2024-11-08T08:00:00	8	Radiación solar	23
102521	7	Sololá	713	San Lucas Tolimán	10	San Lucas Tolimán	1	Enero	2023-01-23T00:00:00	2024-11-08T09:00:00	2	Temperatura media	19
102522	7	Sololá	713	San Lucas Tolimán	10	San Lucas Tolimán	1	Enero	2023-01-23T00:00:00	2024-11-08T09:00:00	4	Temperatura máxima	19
102523	7	Sololá	713	San Lucas Tolimán	10	San Lucas Tolimán	1	Enero	2023-01-23T00:00:00	2024-11-08T09:00:00	3	Temperatura mínima	15.4
102524	7	Sololá	713	San Lucas Tolimán	10	San Lucas Tolimán	1	Enero	2023-01-23T00:00:00	2024-11-08T09:00:00	5	Humedad	50
102525	7	Sololá	713	San Lucas Tolimán	10	San Lucas Tolimán	1	Enero	2023-01-23T00:00:00	2024-11-08T09:00:00	6	Velocidad del viento	1.6
102526	7	Sololá	713	San Lucas Tolimán	10	San Lucas Tolimán	1	Enero	2023-01-23T00:00:00	2024-11-08T09:00:00	7	Dirección del viento	1.61
102527	7	Sololá	713	San Lucas Tolimán	10	San Lucas Tolimán	1	Enero	2023-01-23T00:00:00	2024-11-08T09:00:00	1	Precipitación	0
102528	7	Sololá	713	San Lucas Tolimán	10	San Lucas Tolimán	1	Enero	2023-01-23T00:00:00	2024-11-08T09:00:00	8	Radiación solar	293
102529	7	Sololá	713	San Lucas Tolimán	10	San Lucas Tolimán	1	Enero	2023-01-23T00:00:00	2024-11-08T10:00:00	2	Temperatura media	20.7
102530	7	Sololá	713	San Lucas Tolimán	10	San Lucas Tolimán	1	Enero	2023-01-23T00:00:00	2024-11-08T10:00:00	4	Temperatura máxima	20.7
102531	7	Sololá	713	San Lucas Tolimán	10	San Lucas Tolimán	1	Enero	2023-01-23T00:00:00	2024-11-08T10:00:00	3	Temperatura mínima	19
102532	7	Sololá	713	San Lucas Tolimán	10	San Lucas Tolimán	1	Enero	2023-01-23T00:00:00	2024-11-08T10:00:00	5	Humedad	43
102533	7	Sololá	713	San Lucas Tolimán	10	San Lucas Tolimán	1	Enero	2023-01-23T00:00:00	2024-11-08T10:00:00	6	Velocidad del viento	4.8
102534	7	Sololá	713	San Lucas Tolimán	10	San Lucas Tolimán	1	Enero	2023-01-23T00:00:00	2024-11-08T10:00:00	7	Dirección del viento	4.83
102535	7	Sololá	713	San Lucas Tolimán	10	San Lucas Tolimán	1	Enero	2023-01-23T00:00:00	2024-11-08T10:00:00	1	Precipitación	0
102536	7	Sololá	713	San Lucas Tolimán	10	San Lucas Tolimán	1	Enero	2023-01-23T00:00:00	2024-11-08T10:00:00	8	Radiación solar	595
102537	7	Sololá	713	San Lucas Tolimán	10	San Lucas Tolimán	1	Enero	2023-01-23T00:00:00	2024-11-08T11:00:00	2	Temperatura media	21.6
102538	7	Sololá	713	San Lucas Tolimán	10	San Lucas Tolimán	1	Enero	2023-01-23T00:00:00	2024-11-08T11:00:00	4	Temperatura máxima	22.1
102539	7	Sololá	713	San Lucas Tolimán	10	San Lucas Tolimán	1	Enero	2023-01-23T00:00:00	2024-11-08T11:00:00	3	Temperatura mínima	20.7
102540	7	Sololá	713	San Lucas Tolimán	10	San Lucas Tolimán	1	Enero	2023-01-23T00:00:00	2024-11-08T11:00:00	5	Humedad	49
102541	7	Sololá	713	San Lucas Tolimán	10	San Lucas Tolimán	1	Enero	2023-01-23T00:00:00	2024-11-08T11:00:00	6	Velocidad del viento	8
102542	7	Sololá	713	San Lucas Tolimán	10	San Lucas Tolimán	1	Enero	2023-01-23T00:00:00	2024-11-08T11:00:00	7	Dirección del viento	8.05
102543	7	Sololá	713	San Lucas Tolimán	10	San Lucas Tolimán	1	Enero	2023-01-23T00:00:00	2024-11-08T11:00:00	1	Precipitación	0
102544	7	Sololá	713	San Lucas Tolimán	10	San Lucas Tolimán	1	Enero	2023-01-23T00:00:00	2024-11-08T11:00:00	8	Radiación solar	778
102545	7	Sololá	713	San Lucas Tolimán	10	San Lucas Tolimán	1	Enero	2023-01-23T00:00:00	2024-11-08T12:00:00	2	Temperatura media	22.7
102546	7	Sololá	713	San Lucas Tolimán	10	San Lucas Tolimán	1	Enero	2023-01-23T00:00:00	2024-11-08T12:00:00	4	Temperatura máxima	22.7
102547	7	Sololá	713	San Lucas Tolimán	10	San Lucas Tolimán	1	Enero	2023-01-23T00:00:00	2024-11-08T12:00:00	3	Temperatura mínima	21.4
102548	7	Sololá	713	San Lucas Tolimán	10	San Lucas Tolimán	1	Enero	2023-01-23T00:00:00	2024-11-08T12:00:00	5	Humedad	51
102549	7	Sololá	713	San Lucas Tolimán	10	San Lucas Tolimán	1	Enero	2023-01-23T00:00:00	2024-11-08T12:00:00	6	Velocidad del viento	9.7
102550	7	Sololá	713	San Lucas Tolimán	10	San Lucas Tolimán	1	Enero	2023-01-23T00:00:00	2024-11-08T12:00:00	7	Dirección del viento	9.66
102551	7	Sololá	713	San Lucas Tolimán	10	San Lucas Tolimán	1	Enero	2023-01-23T00:00:00	2024-11-08T12:00:00	1	Precipitación	0
102552	7	Sololá	713	San Lucas Tolimán	10	San Lucas Tolimán	1	Enero	2023-01-23T00:00:00	2024-11-08T12:00:00	8	Radiación solar	877
102553	7	Sololá	713	San Lucas Tolimán	10	San Lucas Tolimán	1	Enero	2023-01-23T00:00:00	2024-11-08T13:00:00	2	Temperatura media	21.9
102554	7	Sololá	713	San Lucas Tolimán	10	San Lucas Tolimán	1	Enero	2023-01-23T00:00:00	2024-11-08T13:00:00	4	Temperatura máxima	22.9
102555	7	Sololá	713	San Lucas Tolimán	10	San Lucas Tolimán	1	Enero	2023-01-23T00:00:00	2024-11-08T13:00:00	3	Temperatura mínima	21.7
102556	7	Sololá	713	San Lucas Tolimán	10	San Lucas Tolimán	1	Enero	2023-01-23T00:00:00	2024-11-08T13:00:00	5	Humedad	53
102557	7	Sololá	713	San Lucas Tolimán	10	San Lucas Tolimán	1	Enero	2023-01-23T00:00:00	2024-11-08T13:00:00	6	Velocidad del viento	12.9
102558	7	Sololá	713	San Lucas Tolimán	10	San Lucas Tolimán	1	Enero	2023-01-23T00:00:00	2024-11-08T13:00:00	7	Dirección del viento	12.87
102559	7	Sololá	713	San Lucas Tolimán	10	San Lucas Tolimán	1	Enero	2023-01-23T00:00:00	2024-11-08T13:00:00	1	Precipitación	0
102560	7	Sololá	713	San Lucas Tolimán	10	San Lucas Tolimán	1	Enero	2023-01-23T00:00:00	2024-11-08T13:00:00	8	Radiación solar	902
102561	7	Sololá	713	San Lucas Tolimán	10	San Lucas Tolimán	1	Enero	2023-01-23T00:00:00	2024-11-08T14:00:00	2	Temperatura media	22.6
102562	7	Sololá	713	San Lucas Tolimán	10	San Lucas Tolimán	1	Enero	2023-01-23T00:00:00	2024-11-08T14:00:00	4	Temperatura máxima	22.7
102563	7	Sololá	713	San Lucas Tolimán	10	San Lucas Tolimán	1	Enero	2023-01-23T00:00:00	2024-11-08T14:00:00	3	Temperatura mínima	21.6
102564	7	Sololá	713	San Lucas Tolimán	10	San Lucas Tolimán	1	Enero	2023-01-23T00:00:00	2024-11-08T14:00:00	5	Humedad	53
102565	7	Sololá	713	San Lucas Tolimán	10	San Lucas Tolimán	1	Enero	2023-01-23T00:00:00	2024-11-08T14:00:00	6	Velocidad del viento	12.9
102566	7	Sololá	713	San Lucas Tolimán	10	San Lucas Tolimán	1	Enero	2023-01-23T00:00:00	2024-11-08T14:00:00	7	Dirección del viento	12.87
102567	7	Sololá	713	San Lucas Tolimán	10	San Lucas Tolimán	1	Enero	2023-01-23T00:00:00	2024-11-08T14:00:00	1	Precipitación	0
102568	7	Sololá	713	San Lucas Tolimán	10	San Lucas Tolimán	1	Enero	2023-01-23T00:00:00	2024-11-08T14:00:00	8	Radiación solar	849
102569	7	Sololá	713	San Lucas Tolimán	10	San Lucas Tolimán	1	Enero	2023-01-23T00:00:00	2024-11-08T15:00:00	2	Temperatura media	22.3
102570	7	Sololá	713	San Lucas Tolimán	10	San Lucas Tolimán	1	Enero	2023-01-23T00:00:00	2024-11-08T15:00:00	4	Temperatura máxima	22.6
102571	7	Sololá	713	San Lucas Tolimán	10	San Lucas Tolimán	1	Enero	2023-01-23T00:00:00	2024-11-08T15:00:00	3	Temperatura mínima	21.9
102572	7	Sololá	713	San Lucas Tolimán	10	San Lucas Tolimán	1	Enero	2023-01-23T00:00:00	2024-11-08T15:00:00	5	Humedad	54
102573	7	Sololá	713	San Lucas Tolimán	10	San Lucas Tolimán	1	Enero	2023-01-23T00:00:00	2024-11-08T15:00:00	6	Velocidad del viento	12.9
102574	7	Sololá	713	San Lucas Tolimán	10	San Lucas Tolimán	1	Enero	2023-01-23T00:00:00	2024-11-08T15:00:00	7	Dirección del viento	12.87
102575	7	Sololá	713	San Lucas Tolimán	10	San Lucas Tolimán	1	Enero	2023-01-23T00:00:00	2024-11-08T15:00:00	1	Precipitación	0
102576	7	Sololá	713	San Lucas Tolimán	10	San Lucas Tolimán	1	Enero	2023-01-23T00:00:00	2024-11-08T15:00:00	8	Radiación solar	733
102577	7	Sololá	713	San Lucas Tolimán	10	San Lucas Tolimán	1	Enero	2023-01-23T00:00:00	2024-11-08T16:00:00	2	Temperatura media	22
102578	7	Sololá	713	San Lucas Tolimán	10	San Lucas Tolimán	1	Enero	2023-01-23T00:00:00	2024-11-08T16:00:00	4	Temperatura máxima	22.7
102579	7	Sololá	713	San Lucas Tolimán	10	San Lucas Tolimán	1	Enero	2023-01-23T00:00:00	2024-11-08T16:00:00	3	Temperatura mínima	21.9
102580	7	Sololá	713	San Lucas Tolimán	10	San Lucas Tolimán	1	Enero	2023-01-23T00:00:00	2024-11-08T16:00:00	5	Humedad	55
102581	7	Sololá	713	San Lucas Tolimán	10	San Lucas Tolimán	1	Enero	2023-01-23T00:00:00	2024-11-08T16:00:00	6	Velocidad del viento	8
102582	7	Sololá	713	San Lucas Tolimán	10	San Lucas Tolimán	1	Enero	2023-01-23T00:00:00	2024-11-08T16:00:00	7	Dirección del viento	8.05
102583	7	Sololá	713	San Lucas Tolimán	10	San Lucas Tolimán	1	Enero	2023-01-23T00:00:00	2024-11-08T16:00:00	1	Precipitación	0
102584	7	Sololá	713	San Lucas Tolimán	10	San Lucas Tolimán	1	Enero	2023-01-23T00:00:00	2024-11-08T16:00:00	8	Radiación solar	529
102585	7	Sololá	713	San Lucas Tolimán	10	San Lucas Tolimán	1	Enero	2023-01-23T00:00:00	2024-11-08T17:00:00	2	Temperatura media	20.1
102586	7	Sololá	713	San Lucas Tolimán	10	San Lucas Tolimán	1	Enero	2023-01-23T00:00:00	2024-11-08T17:00:00	4	Temperatura máxima	22.1
102587	7	Sololá	713	San Lucas Tolimán	10	San Lucas Tolimán	1	Enero	2023-01-23T00:00:00	2024-11-08T17:00:00	3	Temperatura mínima	20.1
102588	7	Sololá	713	San Lucas Tolimán	10	San Lucas Tolimán	1	Enero	2023-01-23T00:00:00	2024-11-08T17:00:00	5	Humedad	60
102589	7	Sololá	713	San Lucas Tolimán	10	San Lucas Tolimán	1	Enero	2023-01-23T00:00:00	2024-11-08T17:00:00	6	Velocidad del viento	8
102590	7	Sololá	713	San Lucas Tolimán	10	San Lucas Tolimán	1	Enero	2023-01-23T00:00:00	2024-11-08T17:00:00	7	Dirección del viento	8.05
102591	7	Sololá	713	San Lucas Tolimán	10	San Lucas Tolimán	1	Enero	2023-01-23T00:00:00	2024-11-08T17:00:00	1	Precipitación	0
102592	7	Sololá	713	San Lucas Tolimán	10	San Lucas Tolimán	1	Enero	2023-01-23T00:00:00	2024-11-08T17:00:00	8	Radiación solar	258
102593	7	Sololá	713	San Lucas Tolimán	10	San Lucas Tolimán	1	Enero	2023-01-23T00:00:00	2024-11-08T18:00:00	2	Temperatura media	19.3
102594	7	Sololá	713	San Lucas Tolimán	10	San Lucas Tolimán	1	Enero	2023-01-23T00:00:00	2024-11-08T18:00:00	4	Temperatura máxima	20.1
102595	7	Sololá	713	San Lucas Tolimán	10	San Lucas Tolimán	1	Enero	2023-01-23T00:00:00	2024-11-08T18:00:00	3	Temperatura mínima	18.4
102596	7	Sololá	713	San Lucas Tolimán	10	San Lucas Tolimán	1	Enero	2023-01-23T00:00:00	2024-11-08T18:00:00	5	Humedad	53
102597	7	Sololá	713	San Lucas Tolimán	10	San Lucas Tolimán	1	Enero	2023-01-23T00:00:00	2024-11-08T18:00:00	6	Velocidad del viento	6.4
102598	7	Sololá	713	San Lucas Tolimán	10	San Lucas Tolimán	1	Enero	2023-01-23T00:00:00	2024-11-08T18:00:00	7	Dirección del viento	6.44
102599	7	Sololá	713	San Lucas Tolimán	10	San Lucas Tolimán	1	Enero	2023-01-23T00:00:00	2024-11-08T18:00:00	1	Precipitación	0
102600	7	Sololá	713	San Lucas Tolimán	10	San Lucas Tolimán	1	Enero	2023-01-23T00:00:00	2024-11-08T18:00:00	8	Radiación solar	20
102601	7	Sololá	713	San Lucas Tolimán	10	San Lucas Tolimán	1	Enero	2023-01-23T00:00:00	2024-11-08T19:00:00	2	Temperatura media	16.9
102602	7	Sololá	713	San Lucas Tolimán	10	San Lucas Tolimán	1	Enero	2023-01-23T00:00:00	2024-11-08T19:00:00	4	Temperatura máxima	19.4
102603	7	Sololá	713	San Lucas Tolimán	10	San Lucas Tolimán	1	Enero	2023-01-23T00:00:00	2024-11-08T19:00:00	3	Temperatura mínima	16.9
102604	7	Sololá	713	San Lucas Tolimán	10	San Lucas Tolimán	1	Enero	2023-01-23T00:00:00	2024-11-08T19:00:00	5	Humedad	57
102605	7	Sololá	713	San Lucas Tolimán	10	San Lucas Tolimán	1	Enero	2023-01-23T00:00:00	2024-11-08T19:00:00	6	Velocidad del viento	3.2
102606	7	Sololá	713	San Lucas Tolimán	10	San Lucas Tolimán	1	Enero	2023-01-23T00:00:00	2024-11-08T19:00:00	7	Dirección del viento	3.22
102607	7	Sololá	713	San Lucas Tolimán	10	San Lucas Tolimán	1	Enero	2023-01-23T00:00:00	2024-11-08T19:00:00	1	Precipitación	0
102608	7	Sololá	713	San Lucas Tolimán	10	San Lucas Tolimán	1	Enero	2023-01-23T00:00:00	2024-11-08T19:00:00	8	Radiación solar	0
102609	7	Sololá	713	San Lucas Tolimán	10	San Lucas Tolimán	1	Enero	2023-01-23T00:00:00	2024-11-08T20:00:00	2	Temperatura media	18.2
102610	7	Sololá	713	San Lucas Tolimán	10	San Lucas Tolimán	1	Enero	2023-01-23T00:00:00	2024-11-08T20:00:00	4	Temperatura máxima	18.3
102611	7	Sololá	713	San Lucas Tolimán	10	San Lucas Tolimán	1	Enero	2023-01-23T00:00:00	2024-11-08T20:00:00	3	Temperatura mínima	16.8
102612	7	Sololá	713	San Lucas Tolimán	10	San Lucas Tolimán	1	Enero	2023-01-23T00:00:00	2024-11-08T20:00:00	5	Humedad	53
102613	7	Sololá	713	San Lucas Tolimán	10	San Lucas Tolimán	1	Enero	2023-01-23T00:00:00	2024-11-08T20:00:00	6	Velocidad del viento	3.2
102614	7	Sololá	713	San Lucas Tolimán	10	San Lucas Tolimán	1	Enero	2023-01-23T00:00:00	2024-11-08T20:00:00	7	Dirección del viento	3.22
102615	7	Sololá	713	San Lucas Tolimán	10	San Lucas Tolimán	1	Enero	2023-01-23T00:00:00	2024-11-08T20:00:00	1	Precipitación	0
102616	7	Sololá	713	San Lucas Tolimán	10	San Lucas Tolimán	1	Enero	2023-01-23T00:00:00	2024-11-08T20:00:00	8	Radiación solar	0
102617	7	Sololá	713	San Lucas Tolimán	10	San Lucas Tolimán	1	Enero	2023-01-23T00:00:00	2024-11-08T21:00:00	2	Temperatura media	18.2
102618	7	Sololá	713	San Lucas Tolimán	10	San Lucas Tolimán	1	Enero	2023-01-23T00:00:00	2024-11-08T21:00:00	4	Temperatura máxima	18.7
102619	7	Sololá	713	San Lucas Tolimán	10	San Lucas Tolimán	1	Enero	2023-01-23T00:00:00	2024-11-08T21:00:00	3	Temperatura mínima	18.2
102620	7	Sololá	713	San Lucas Tolimán	10	San Lucas Tolimán	1	Enero	2023-01-23T00:00:00	2024-11-08T21:00:00	5	Humedad	51
102621	7	Sololá	713	San Lucas Tolimán	10	San Lucas Tolimán	1	Enero	2023-01-23T00:00:00	2024-11-08T21:00:00	6	Velocidad del viento	11.3
102622	7	Sololá	713	San Lucas Tolimán	10	San Lucas Tolimán	1	Enero	2023-01-23T00:00:00	2024-11-08T21:00:00	7	Dirección del viento	11.27
102623	7	Sololá	713	San Lucas Tolimán	10	San Lucas Tolimán	1	Enero	2023-01-23T00:00:00	2024-11-08T21:00:00	1	Precipitación	0
102624	7	Sololá	713	San Lucas Tolimán	10	San Lucas Tolimán	1	Enero	2023-01-23T00:00:00	2024-11-08T21:00:00	8	Radiación solar	0
102625	7	Sololá	713	San Lucas Tolimán	10	San Lucas Tolimán	1	Enero	2023-01-23T00:00:00	2024-11-08T22:00:00	2	Temperatura media	18.1
102626	7	Sololá	713	San Lucas Tolimán	10	San Lucas Tolimán	1	Enero	2023-01-23T00:00:00	2024-11-08T22:00:00	4	Temperatura máxima	18.2
102627	7	Sololá	713	San Lucas Tolimán	10	San Lucas Tolimán	1	Enero	2023-01-23T00:00:00	2024-11-08T22:00:00	3	Temperatura mínima	17.7
102628	7	Sololá	713	San Lucas Tolimán	10	San Lucas Tolimán	1	Enero	2023-01-23T00:00:00	2024-11-08T22:00:00	5	Humedad	50
102629	7	Sololá	713	San Lucas Tolimán	10	San Lucas Tolimán	1	Enero	2023-01-23T00:00:00	2024-11-08T22:00:00	6	Velocidad del viento	11.3
102630	7	Sololá	713	San Lucas Tolimán	10	San Lucas Tolimán	1	Enero	2023-01-23T00:00:00	2024-11-08T22:00:00	7	Dirección del viento	11.27
102631	7	Sololá	713	San Lucas Tolimán	10	San Lucas Tolimán	1	Enero	2023-01-23T00:00:00	2024-11-08T22:00:00	1	Precipitación	0
102632	7	Sololá	713	San Lucas Tolimán	10	San Lucas Tolimán	1	Enero	2023-01-23T00:00:00	2024-11-08T22:00:00	8	Radiación solar	0
102633	7	Sololá	713	San Lucas Tolimán	10	San Lucas Tolimán	1	Enero	2023-01-23T00:00:00	2024-11-08T23:00:00	2	Temperatura media	17.7
102634	7	Sololá	713	San Lucas Tolimán	10	San Lucas Tolimán	1	Enero	2023-01-23T00:00:00	2024-11-08T23:00:00	4	Temperatura máxima	18.1
102635	7	Sololá	713	San Lucas Tolimán	10	San Lucas Tolimán	1	Enero	2023-01-23T00:00:00	2024-11-08T23:00:00	3	Temperatura mínima	17.7
102636	7	Sololá	713	San Lucas Tolimán	10	San Lucas Tolimán	1	Enero	2023-01-23T00:00:00	2024-11-08T23:00:00	5	Humedad	50
102637	7	Sololá	713	San Lucas Tolimán	10	San Lucas Tolimán	1	Enero	2023-01-23T00:00:00	2024-11-08T23:00:00	6	Velocidad del viento	12.9
102638	7	Sololá	713	San Lucas Tolimán	10	San Lucas Tolimán	1	Enero	2023-01-23T00:00:00	2024-11-08T23:00:00	7	Dirección del viento	12.87
102639	7	Sololá	713	San Lucas Tolimán	10	San Lucas Tolimán	1	Enero	2023-01-23T00:00:00	2024-11-08T23:00:00	1	Precipitación	0
102640	7	Sololá	713	San Lucas Tolimán	10	San Lucas Tolimán	1	Enero	2023-01-23T00:00:00	2024-11-08T23:00:00	8	Radiación solar	0
102641	7	Sololá	713	San Lucas Tolimán	10	San Lucas Tolimán	1	Enero	2023-01-24T00:00:00	2024-11-08T00:00:00	2	Temperatura media	17.8
102642	7	Sololá	713	San Lucas Tolimán	10	San Lucas Tolimán	1	Enero	2023-01-24T00:00:00	2024-11-08T00:00:00	4	Temperatura máxima	17.9
102643	7	Sololá	713	San Lucas Tolimán	10	San Lucas Tolimán	1	Enero	2023-01-24T00:00:00	2024-11-08T00:00:00	3	Temperatura mínima	17.3
102644	7	Sololá	713	San Lucas Tolimán	10	San Lucas Tolimán	1	Enero	2023-01-24T00:00:00	2024-11-08T00:00:00	5	Humedad	42
102645	7	Sololá	713	San Lucas Tolimán	10	San Lucas Tolimán	1	Enero	2023-01-24T00:00:00	2024-11-08T00:00:00	6	Velocidad del viento	9.7
102646	7	Sololá	713	San Lucas Tolimán	10	San Lucas Tolimán	1	Enero	2023-01-24T00:00:00	2024-11-08T00:00:00	7	Dirección del viento	9.66
102647	7	Sololá	713	San Lucas Tolimán	10	San Lucas Tolimán	1	Enero	2023-01-24T00:00:00	2024-11-08T00:00:00	1	Precipitación	0
102648	7	Sololá	713	San Lucas Tolimán	10	San Lucas Tolimán	1	Enero	2023-01-24T00:00:00	2024-11-08T00:00:00	8	Radiación solar	0
102649	7	Sololá	713	San Lucas Tolimán	10	San Lucas Tolimán	1	Enero	2023-01-24T00:00:00	2024-11-08T01:00:00	2	Temperatura media	15.6
102650	7	Sololá	713	San Lucas Tolimán	10	San Lucas Tolimán	1	Enero	2023-01-24T00:00:00	2024-11-08T01:00:00	4	Temperatura máxima	17.8
102651	7	Sololá	713	San Lucas Tolimán	10	San Lucas Tolimán	1	Enero	2023-01-24T00:00:00	2024-11-08T01:00:00	3	Temperatura mínima	15.3
102652	7	Sololá	713	San Lucas Tolimán	10	San Lucas Tolimán	1	Enero	2023-01-24T00:00:00	2024-11-08T01:00:00	5	Humedad	48
102653	7	Sololá	713	San Lucas Tolimán	10	San Lucas Tolimán	1	Enero	2023-01-24T00:00:00	2024-11-08T01:00:00	6	Velocidad del viento	3.2
102654	7	Sololá	713	San Lucas Tolimán	10	San Lucas Tolimán	1	Enero	2023-01-24T00:00:00	2024-11-08T01:00:00	7	Dirección del viento	3.22
102655	7	Sololá	713	San Lucas Tolimán	10	San Lucas Tolimán	1	Enero	2023-01-24T00:00:00	2024-11-08T01:00:00	1	Precipitación	0
102656	7	Sololá	713	San Lucas Tolimán	10	San Lucas Tolimán	1	Enero	2023-01-24T00:00:00	2024-11-08T01:00:00	8	Radiación solar	0
102657	7	Sololá	713	San Lucas Tolimán	10	San Lucas Tolimán	1	Enero	2023-01-24T00:00:00	2024-11-08T02:00:00	2	Temperatura media	14.8
102658	7	Sololá	713	San Lucas Tolimán	10	San Lucas Tolimán	1	Enero	2023-01-24T00:00:00	2024-11-08T02:00:00	4	Temperatura máxima	15.6
102659	7	Sololá	713	San Lucas Tolimán	10	San Lucas Tolimán	1	Enero	2023-01-24T00:00:00	2024-11-08T02:00:00	3	Temperatura mínima	14.7
102660	7	Sololá	713	San Lucas Tolimán	10	San Lucas Tolimán	1	Enero	2023-01-24T00:00:00	2024-11-08T02:00:00	5	Humedad	48
102661	7	Sololá	713	San Lucas Tolimán	10	San Lucas Tolimán	1	Enero	2023-01-24T00:00:00	2024-11-08T02:00:00	6	Velocidad del viento	1.6
102662	7	Sololá	713	San Lucas Tolimán	10	San Lucas Tolimán	1	Enero	2023-01-24T00:00:00	2024-11-08T02:00:00	7	Dirección del viento	1.61
102663	7	Sololá	713	San Lucas Tolimán	10	San Lucas Tolimán	1	Enero	2023-01-24T00:00:00	2024-11-08T02:00:00	1	Precipitación	0
102664	7	Sololá	713	San Lucas Tolimán	10	San Lucas Tolimán	1	Enero	2023-01-24T00:00:00	2024-11-08T02:00:00	8	Radiación solar	0
102665	7	Sololá	713	San Lucas Tolimán	10	San Lucas Tolimán	1	Enero	2023-01-24T00:00:00	2024-11-08T03:00:00	2	Temperatura media	15.3
102666	7	Sololá	713	San Lucas Tolimán	10	San Lucas Tolimán	1	Enero	2023-01-24T00:00:00	2024-11-08T03:00:00	4	Temperatura máxima	15.4
102667	7	Sololá	713	San Lucas Tolimán	10	San Lucas Tolimán	1	Enero	2023-01-24T00:00:00	2024-11-08T03:00:00	3	Temperatura mínima	14.8
102668	7	Sololá	713	San Lucas Tolimán	10	San Lucas Tolimán	1	Enero	2023-01-24T00:00:00	2024-11-08T03:00:00	5	Humedad	44
102669	7	Sololá	713	San Lucas Tolimán	10	San Lucas Tolimán	1	Enero	2023-01-24T00:00:00	2024-11-08T03:00:00	6	Velocidad del viento	1.6
102670	7	Sololá	713	San Lucas Tolimán	10	San Lucas Tolimán	1	Enero	2023-01-24T00:00:00	2024-11-08T03:00:00	7	Dirección del viento	1.61
102671	7	Sololá	713	San Lucas Tolimán	10	San Lucas Tolimán	1	Enero	2023-01-24T00:00:00	2024-11-08T03:00:00	1	Precipitación	0
102672	7	Sololá	713	San Lucas Tolimán	10	San Lucas Tolimán	1	Enero	2023-01-24T00:00:00	2024-11-08T03:00:00	8	Radiación solar	0
102673	7	Sololá	713	San Lucas Tolimán	10	San Lucas Tolimán	1	Enero	2023-01-24T00:00:00	2024-11-08T04:00:00	2	Temperatura media	15.3
102674	7	Sololá	713	San Lucas Tolimán	10	San Lucas Tolimán	1	Enero	2023-01-24T00:00:00	2024-11-08T04:00:00	4	Temperatura máxima	15.4
102675	7	Sololá	713	San Lucas Tolimán	10	San Lucas Tolimán	1	Enero	2023-01-24T00:00:00	2024-11-08T04:00:00	3	Temperatura mínima	14.8
102676	7	Sololá	713	San Lucas Tolimán	10	San Lucas Tolimán	1	Enero	2023-01-24T00:00:00	2024-11-08T04:00:00	5	Humedad	44
102677	7	Sololá	713	San Lucas Tolimán	10	San Lucas Tolimán	1	Enero	2023-01-24T00:00:00	2024-11-08T04:00:00	6	Velocidad del viento	3.2
102678	7	Sololá	713	San Lucas Tolimán	10	San Lucas Tolimán	1	Enero	2023-01-24T00:00:00	2024-11-08T04:00:00	7	Dirección del viento	3.22
102679	7	Sololá	713	San Lucas Tolimán	10	San Lucas Tolimán	1	Enero	2023-01-24T00:00:00	2024-11-08T04:00:00	1	Precipitación	0
102680	7	Sololá	713	San Lucas Tolimán	10	San Lucas Tolimán	1	Enero	2023-01-24T00:00:00	2024-11-08T04:00:00	8	Radiación solar	0
102681	7	Sololá	713	San Lucas Tolimán	10	San Lucas Tolimán	1	Enero	2023-01-24T00:00:00	2024-11-08T05:00:00	2	Temperatura media	14.8
102682	7	Sololá	713	San Lucas Tolimán	10	San Lucas Tolimán	1	Enero	2023-01-24T00:00:00	2024-11-08T05:00:00	4	Temperatura máxima	15.4
102683	7	Sololá	713	San Lucas Tolimán	10	San Lucas Tolimán	1	Enero	2023-01-24T00:00:00	2024-11-08T05:00:00	3	Temperatura mínima	14.7
102684	7	Sololá	713	San Lucas Tolimán	10	San Lucas Tolimán	1	Enero	2023-01-24T00:00:00	2024-11-08T05:00:00	5	Humedad	44
102685	7	Sololá	713	San Lucas Tolimán	10	San Lucas Tolimán	1	Enero	2023-01-24T00:00:00	2024-11-08T05:00:00	6	Velocidad del viento	3.2
102686	7	Sololá	713	San Lucas Tolimán	10	San Lucas Tolimán	1	Enero	2023-01-24T00:00:00	2024-11-08T05:00:00	7	Dirección del viento	3.22
102687	7	Sololá	713	San Lucas Tolimán	10	San Lucas Tolimán	1	Enero	2023-01-24T00:00:00	2024-11-08T05:00:00	1	Precipitación	0
102688	7	Sololá	713	San Lucas Tolimán	10	San Lucas Tolimán	1	Enero	2023-01-24T00:00:00	2024-11-08T05:00:00	8	Radiación solar	0
102689	7	Sololá	713	San Lucas Tolimán	10	San Lucas Tolimán	1	Enero	2023-01-24T00:00:00	2024-11-08T06:00:00	2	Temperatura media	14.6
102690	7	Sololá	713	San Lucas Tolimán	10	San Lucas Tolimán	1	Enero	2023-01-24T00:00:00	2024-11-08T06:00:00	4	Temperatura máxima	15
102691	7	Sololá	713	San Lucas Tolimán	10	San Lucas Tolimán	1	Enero	2023-01-24T00:00:00	2024-11-08T06:00:00	3	Temperatura mínima	14.4
102692	7	Sololá	713	San Lucas Tolimán	10	San Lucas Tolimán	1	Enero	2023-01-24T00:00:00	2024-11-08T06:00:00	5	Humedad	47
102693	7	Sololá	713	San Lucas Tolimán	10	San Lucas Tolimán	1	Enero	2023-01-24T00:00:00	2024-11-08T06:00:00	6	Velocidad del viento	3.2
102694	7	Sololá	713	San Lucas Tolimán	10	San Lucas Tolimán	1	Enero	2023-01-24T00:00:00	2024-11-08T06:00:00	7	Dirección del viento	3.22
102695	7	Sololá	713	San Lucas Tolimán	10	San Lucas Tolimán	1	Enero	2023-01-24T00:00:00	2024-11-08T06:00:00	1	Precipitación	0
102696	7	Sololá	713	San Lucas Tolimán	10	San Lucas Tolimán	1	Enero	2023-01-24T00:00:00	2024-11-08T06:00:00	8	Radiación solar	0
102697	7	Sololá	713	San Lucas Tolimán	10	San Lucas Tolimán	1	Enero	2023-01-24T00:00:00	2024-11-08T07:00:00	2	Temperatura media	14.4
102698	7	Sololá	713	San Lucas Tolimán	10	San Lucas Tolimán	1	Enero	2023-01-24T00:00:00	2024-11-08T07:00:00	4	Temperatura máxima	14.7
102699	7	Sololá	713	San Lucas Tolimán	10	San Lucas Tolimán	1	Enero	2023-01-24T00:00:00	2024-11-08T07:00:00	3	Temperatura mínima	13.9
102700	7	Sololá	713	San Lucas Tolimán	10	San Lucas Tolimán	1	Enero	2023-01-24T00:00:00	2024-11-08T07:00:00	5	Humedad	43
102701	7	Sololá	713	San Lucas Tolimán	10	San Lucas Tolimán	1	Enero	2023-01-24T00:00:00	2024-11-08T07:00:00	6	Velocidad del viento	3.2
102702	7	Sololá	713	San Lucas Tolimán	10	San Lucas Tolimán	1	Enero	2023-01-24T00:00:00	2024-11-08T07:00:00	7	Dirección del viento	3.22
102703	7	Sololá	713	San Lucas Tolimán	10	San Lucas Tolimán	1	Enero	2023-01-24T00:00:00	2024-11-08T07:00:00	1	Precipitación	0
102704	7	Sololá	713	San Lucas Tolimán	10	San Lucas Tolimán	1	Enero	2023-01-24T00:00:00	2024-11-08T07:00:00	8	Radiación solar	3
102705	7	Sololá	713	San Lucas Tolimán	10	San Lucas Tolimán	1	Enero	2023-01-24T00:00:00	2024-11-08T08:00:00	2	Temperatura media	15.1
102706	7	Sololá	713	San Lucas Tolimán	10	San Lucas Tolimán	1	Enero	2023-01-24T00:00:00	2024-11-08T08:00:00	4	Temperatura máxima	15.1
102707	7	Sololá	713	San Lucas Tolimán	10	San Lucas Tolimán	1	Enero	2023-01-24T00:00:00	2024-11-08T08:00:00	3	Temperatura mínima	14.2
102708	7	Sololá	713	San Lucas Tolimán	10	San Lucas Tolimán	1	Enero	2023-01-24T00:00:00	2024-11-08T08:00:00	5	Humedad	46
102709	7	Sololá	713	San Lucas Tolimán	10	San Lucas Tolimán	1	Enero	2023-01-24T00:00:00	2024-11-08T08:00:00	6	Velocidad del viento	3.2
102710	7	Sololá	713	San Lucas Tolimán	10	San Lucas Tolimán	1	Enero	2023-01-24T00:00:00	2024-11-08T08:00:00	7	Dirección del viento	3.22
102711	7	Sololá	713	San Lucas Tolimán	10	San Lucas Tolimán	1	Enero	2023-01-24T00:00:00	2024-11-08T08:00:00	1	Precipitación	0
102712	7	Sololá	713	San Lucas Tolimán	10	San Lucas Tolimán	1	Enero	2023-01-24T00:00:00	2024-11-08T08:00:00	8	Radiación solar	18
102713	7	Sololá	713	San Lucas Tolimán	10	San Lucas Tolimán	1	Enero	2023-01-24T00:00:00	2024-11-08T09:00:00	2	Temperatura media	19.3
102714	7	Sololá	713	San Lucas Tolimán	10	San Lucas Tolimán	1	Enero	2023-01-24T00:00:00	2024-11-08T09:00:00	4	Temperatura máxima	19.3
102715	7	Sololá	713	San Lucas Tolimán	10	San Lucas Tolimán	1	Enero	2023-01-24T00:00:00	2024-11-08T09:00:00	3	Temperatura mínima	15.1
102716	7	Sololá	713	San Lucas Tolimán	10	San Lucas Tolimán	1	Enero	2023-01-24T00:00:00	2024-11-08T09:00:00	5	Humedad	40
102717	7	Sololá	713	San Lucas Tolimán	10	San Lucas Tolimán	1	Enero	2023-01-24T00:00:00	2024-11-08T09:00:00	6	Velocidad del viento	1.6
102718	7	Sololá	713	San Lucas Tolimán	10	San Lucas Tolimán	1	Enero	2023-01-24T00:00:00	2024-11-08T09:00:00	7	Dirección del viento	1.61
102719	7	Sololá	713	San Lucas Tolimán	10	San Lucas Tolimán	1	Enero	2023-01-24T00:00:00	2024-11-08T09:00:00	1	Precipitación	0
102720	7	Sololá	713	San Lucas Tolimán	10	San Lucas Tolimán	1	Enero	2023-01-24T00:00:00	2024-11-08T09:00:00	8	Radiación solar	304
102721	7	Sololá	713	San Lucas Tolimán	10	San Lucas Tolimán	1	Enero	2023-01-24T00:00:00	2024-11-08T10:00:00	2	Temperatura media	22.6
102722	7	Sololá	713	San Lucas Tolimán	10	San Lucas Tolimán	1	Enero	2023-01-24T00:00:00	2024-11-08T10:00:00	4	Temperatura máxima	22.6
102723	7	Sololá	713	San Lucas Tolimán	10	San Lucas Tolimán	1	Enero	2023-01-24T00:00:00	2024-11-08T10:00:00	3	Temperatura mínima	19.3
102724	7	Sololá	713	San Lucas Tolimán	10	San Lucas Tolimán	1	Enero	2023-01-24T00:00:00	2024-11-08T10:00:00	5	Humedad	29
102725	7	Sololá	713	San Lucas Tolimán	10	San Lucas Tolimán	1	Enero	2023-01-24T00:00:00	2024-11-08T10:00:00	6	Velocidad del viento	3.2
102726	7	Sololá	713	San Lucas Tolimán	10	San Lucas Tolimán	1	Enero	2023-01-24T00:00:00	2024-11-08T10:00:00	7	Dirección del viento	3.22
102727	7	Sololá	713	San Lucas Tolimán	10	San Lucas Tolimán	1	Enero	2023-01-24T00:00:00	2024-11-08T10:00:00	1	Precipitación	0
102728	7	Sololá	713	San Lucas Tolimán	10	San Lucas Tolimán	1	Enero	2023-01-24T00:00:00	2024-11-08T10:00:00	8	Radiación solar	623
102729	7	Sololá	713	San Lucas Tolimán	10	San Lucas Tolimán	1	Enero	2023-01-24T00:00:00	2024-11-08T11:00:00	2	Temperatura media	22.9
102730	7	Sololá	713	San Lucas Tolimán	10	San Lucas Tolimán	1	Enero	2023-01-24T00:00:00	2024-11-08T11:00:00	4	Temperatura máxima	23.7
102731	7	Sololá	713	San Lucas Tolimán	10	San Lucas Tolimán	1	Enero	2023-01-24T00:00:00	2024-11-08T11:00:00	3	Temperatura mínima	21.9
102732	7	Sololá	713	San Lucas Tolimán	10	San Lucas Tolimán	1	Enero	2023-01-24T00:00:00	2024-11-08T11:00:00	5	Humedad	38
102733	7	Sololá	713	San Lucas Tolimán	10	San Lucas Tolimán	1	Enero	2023-01-24T00:00:00	2024-11-08T11:00:00	6	Velocidad del viento	4.8
102734	7	Sololá	713	San Lucas Tolimán	10	San Lucas Tolimán	1	Enero	2023-01-24T00:00:00	2024-11-08T11:00:00	7	Dirección del viento	4.83
102735	7	Sololá	713	San Lucas Tolimán	10	San Lucas Tolimán	1	Enero	2023-01-24T00:00:00	2024-11-08T11:00:00	1	Precipitación	0
102736	7	Sololá	713	San Lucas Tolimán	10	San Lucas Tolimán	1	Enero	2023-01-24T00:00:00	2024-11-08T11:00:00	8	Radiación solar	796
102737	7	Sololá	713	San Lucas Tolimán	10	San Lucas Tolimán	1	Enero	2023-01-24T00:00:00	2024-11-08T12:00:00	2	Temperatura media	22.6
102738	7	Sololá	713	San Lucas Tolimán	10	San Lucas Tolimán	1	Enero	2023-01-24T00:00:00	2024-11-08T12:00:00	4	Temperatura máxima	23.1
102739	7	Sololá	713	San Lucas Tolimán	10	San Lucas Tolimán	1	Enero	2023-01-24T00:00:00	2024-11-08T12:00:00	3	Temperatura mínima	22.4
102740	7	Sololá	713	San Lucas Tolimán	10	San Lucas Tolimán	1	Enero	2023-01-24T00:00:00	2024-11-08T12:00:00	5	Humedad	42
102741	7	Sololá	713	San Lucas Tolimán	10	San Lucas Tolimán	1	Enero	2023-01-24T00:00:00	2024-11-08T12:00:00	6	Velocidad del viento	11.3
102742	7	Sololá	713	San Lucas Tolimán	10	San Lucas Tolimán	1	Enero	2023-01-24T00:00:00	2024-11-08T12:00:00	7	Dirección del viento	11.27
102743	7	Sololá	713	San Lucas Tolimán	10	San Lucas Tolimán	1	Enero	2023-01-24T00:00:00	2024-11-08T12:00:00	1	Precipitación	0
102744	7	Sololá	713	San Lucas Tolimán	10	San Lucas Tolimán	1	Enero	2023-01-24T00:00:00	2024-11-08T12:00:00	8	Radiación solar	898
102745	7	Sololá	713	San Lucas Tolimán	10	San Lucas Tolimán	1	Enero	2023-01-24T00:00:00	2024-11-08T13:00:00	2	Temperatura media	22.4
102746	7	Sololá	713	San Lucas Tolimán	10	San Lucas Tolimán	1	Enero	2023-01-24T00:00:00	2024-11-08T13:00:00	4	Temperatura máxima	23.3
102747	7	Sololá	713	San Lucas Tolimán	10	San Lucas Tolimán	1	Enero	2023-01-24T00:00:00	2024-11-08T13:00:00	3	Temperatura mínima	22.2
102748	7	Sololá	713	San Lucas Tolimán	10	San Lucas Tolimán	1	Enero	2023-01-24T00:00:00	2024-11-08T13:00:00	5	Humedad	51
102749	7	Sololá	713	San Lucas Tolimán	10	San Lucas Tolimán	1	Enero	2023-01-24T00:00:00	2024-11-08T13:00:00	6	Velocidad del viento	12.9
102750	7	Sololá	713	San Lucas Tolimán	10	San Lucas Tolimán	1	Enero	2023-01-24T00:00:00	2024-11-08T13:00:00	7	Dirección del viento	12.87
102751	7	Sololá	713	San Lucas Tolimán	10	San Lucas Tolimán	1	Enero	2023-01-24T00:00:00	2024-11-08T13:00:00	1	Precipitación	0
102752	7	Sololá	713	San Lucas Tolimán	10	San Lucas Tolimán	1	Enero	2023-01-24T00:00:00	2024-11-08T13:00:00	8	Radiación solar	918
102753	7	Sololá	713	San Lucas Tolimán	10	San Lucas Tolimán	1	Enero	2023-01-24T00:00:00	2024-11-08T14:00:00	2	Temperatura media	21.2
102754	7	Sololá	713	San Lucas Tolimán	10	San Lucas Tolimán	1	Enero	2023-01-24T00:00:00	2024-11-08T14:00:00	4	Temperatura máxima	22.6
102755	7	Sololá	713	San Lucas Tolimán	10	San Lucas Tolimán	1	Enero	2023-01-24T00:00:00	2024-11-08T14:00:00	3	Temperatura mínima	21.2
102756	7	Sololá	713	San Lucas Tolimán	10	San Lucas Tolimán	1	Enero	2023-01-24T00:00:00	2024-11-08T14:00:00	5	Humedad	55
102757	7	Sololá	713	San Lucas Tolimán	10	San Lucas Tolimán	1	Enero	2023-01-24T00:00:00	2024-11-08T14:00:00	6	Velocidad del viento	16.1
102758	7	Sololá	713	San Lucas Tolimán	10	San Lucas Tolimán	1	Enero	2023-01-24T00:00:00	2024-11-08T14:00:00	7	Dirección del viento	16.09
102759	7	Sololá	713	San Lucas Tolimán	10	San Lucas Tolimán	1	Enero	2023-01-24T00:00:00	2024-11-08T14:00:00	1	Precipitación	0
102760	7	Sololá	713	San Lucas Tolimán	10	San Lucas Tolimán	1	Enero	2023-01-24T00:00:00	2024-11-08T14:00:00	8	Radiación solar	875
102761	7	Sololá	713	San Lucas Tolimán	10	San Lucas Tolimán	1	Enero	2023-01-24T00:00:00	2024-11-08T15:00:00	2	Temperatura media	22.2
102762	7	Sololá	713	San Lucas Tolimán	10	San Lucas Tolimán	1	Enero	2023-01-24T00:00:00	2024-11-08T15:00:00	4	Temperatura máxima	22.3
102763	7	Sololá	713	San Lucas Tolimán	10	San Lucas Tolimán	1	Enero	2023-01-24T00:00:00	2024-11-08T15:00:00	3	Temperatura mínima	21.2
102764	7	Sololá	713	San Lucas Tolimán	10	San Lucas Tolimán	1	Enero	2023-01-24T00:00:00	2024-11-08T15:00:00	5	Humedad	53
102765	7	Sololá	713	San Lucas Tolimán	10	San Lucas Tolimán	1	Enero	2023-01-24T00:00:00	2024-11-08T15:00:00	6	Velocidad del viento	11.3
102766	7	Sololá	713	San Lucas Tolimán	10	San Lucas Tolimán	1	Enero	2023-01-24T00:00:00	2024-11-08T15:00:00	7	Dirección del viento	11.27
102767	7	Sololá	713	San Lucas Tolimán	10	San Lucas Tolimán	1	Enero	2023-01-24T00:00:00	2024-11-08T15:00:00	1	Precipitación	0
102768	7	Sololá	713	San Lucas Tolimán	10	San Lucas Tolimán	1	Enero	2023-01-24T00:00:00	2024-11-08T15:00:00	8	Radiación solar	739
102769	7	Sololá	713	San Lucas Tolimán	10	San Lucas Tolimán	1	Enero	2023-01-24T00:00:00	2024-11-08T16:00:00	2	Temperatura media	20.7
102770	7	Sololá	713	San Lucas Tolimán	10	San Lucas Tolimán	1	Enero	2023-01-24T00:00:00	2024-11-08T16:00:00	4	Temperatura máxima	22.2
102771	7	Sololá	713	San Lucas Tolimán	10	San Lucas Tolimán	1	Enero	2023-01-24T00:00:00	2024-11-08T16:00:00	3	Temperatura mínima	20.7
102772	7	Sololá	713	San Lucas Tolimán	10	San Lucas Tolimán	1	Enero	2023-01-24T00:00:00	2024-11-08T16:00:00	5	Humedad	56
102773	7	Sololá	713	San Lucas Tolimán	10	San Lucas Tolimán	1	Enero	2023-01-24T00:00:00	2024-11-08T16:00:00	6	Velocidad del viento	9.7
102774	7	Sololá	713	San Lucas Tolimán	10	San Lucas Tolimán	1	Enero	2023-01-24T00:00:00	2024-11-08T16:00:00	7	Dirección del viento	9.66
102775	7	Sololá	713	San Lucas Tolimán	10	San Lucas Tolimán	1	Enero	2023-01-24T00:00:00	2024-11-08T16:00:00	1	Precipitación	0
102776	7	Sololá	713	San Lucas Tolimán	10	San Lucas Tolimán	1	Enero	2023-01-24T00:00:00	2024-11-08T16:00:00	8	Radiación solar	498
102777	7	Sololá	713	San Lucas Tolimán	10	San Lucas Tolimán	1	Enero	2023-01-24T00:00:00	2024-11-08T17:00:00	2	Temperatura media	19.2
102778	7	Sololá	713	San Lucas Tolimán	10	San Lucas Tolimán	1	Enero	2023-01-24T00:00:00	2024-11-08T17:00:00	4	Temperatura máxima	20.7
102779	7	Sololá	713	San Lucas Tolimán	10	San Lucas Tolimán	1	Enero	2023-01-24T00:00:00	2024-11-08T17:00:00	3	Temperatura mínima	19.2
102780	7	Sololá	713	San Lucas Tolimán	10	San Lucas Tolimán	1	Enero	2023-01-24T00:00:00	2024-11-08T17:00:00	5	Humedad	60
102781	7	Sololá	713	San Lucas Tolimán	10	San Lucas Tolimán	1	Enero	2023-01-24T00:00:00	2024-11-08T17:00:00	6	Velocidad del viento	11.3
102782	7	Sololá	713	San Lucas Tolimán	10	San Lucas Tolimán	1	Enero	2023-01-24T00:00:00	2024-11-08T17:00:00	7	Dirección del viento	11.27
102783	7	Sololá	713	San Lucas Tolimán	10	San Lucas Tolimán	1	Enero	2023-01-24T00:00:00	2024-11-08T17:00:00	1	Precipitación	0
102784	7	Sololá	713	San Lucas Tolimán	10	San Lucas Tolimán	1	Enero	2023-01-24T00:00:00	2024-11-08T17:00:00	8	Radiación solar	123
102785	7	Sololá	713	San Lucas Tolimán	10	San Lucas Tolimán	1	Enero	2023-01-24T00:00:00	2024-11-08T18:00:00	2	Temperatura media	17.7
102786	7	Sololá	713	San Lucas Tolimán	10	San Lucas Tolimán	1	Enero	2023-01-24T00:00:00	2024-11-08T18:00:00	4	Temperatura máxima	19.2
102787	7	Sololá	713	San Lucas Tolimán	10	San Lucas Tolimán	1	Enero	2023-01-24T00:00:00	2024-11-08T18:00:00	3	Temperatura mínima	17.7
102788	7	Sololá	713	San Lucas Tolimán	10	San Lucas Tolimán	1	Enero	2023-01-24T00:00:00	2024-11-08T18:00:00	5	Humedad	62
102789	7	Sololá	713	San Lucas Tolimán	10	San Lucas Tolimán	1	Enero	2023-01-24T00:00:00	2024-11-08T18:00:00	6	Velocidad del viento	11.3
102790	7	Sololá	713	San Lucas Tolimán	10	San Lucas Tolimán	1	Enero	2023-01-24T00:00:00	2024-11-08T18:00:00	7	Dirección del viento	11.27
102791	7	Sololá	713	San Lucas Tolimán	10	San Lucas Tolimán	1	Enero	2023-01-24T00:00:00	2024-11-08T18:00:00	1	Precipitación	0
102792	7	Sololá	713	San Lucas Tolimán	10	San Lucas Tolimán	1	Enero	2023-01-24T00:00:00	2024-11-08T18:00:00	8	Radiación solar	31
102793	7	Sololá	713	San Lucas Tolimán	10	San Lucas Tolimán	1	Enero	2023-01-24T00:00:00	2024-11-08T19:00:00	2	Temperatura media	17.1
102794	7	Sololá	713	San Lucas Tolimán	10	San Lucas Tolimán	1	Enero	2023-01-24T00:00:00	2024-11-08T19:00:00	4	Temperatura máxima	17.7
102795	7	Sololá	713	San Lucas Tolimán	10	San Lucas Tolimán	1	Enero	2023-01-24T00:00:00	2024-11-08T19:00:00	3	Temperatura mínima	17.1
102796	7	Sololá	713	San Lucas Tolimán	10	San Lucas Tolimán	1	Enero	2023-01-24T00:00:00	2024-11-08T19:00:00	5	Humedad	62
102797	7	Sololá	713	San Lucas Tolimán	10	San Lucas Tolimán	1	Enero	2023-01-24T00:00:00	2024-11-08T19:00:00	6	Velocidad del viento	6.4
102798	7	Sololá	713	San Lucas Tolimán	10	San Lucas Tolimán	1	Enero	2023-01-24T00:00:00	2024-11-08T19:00:00	7	Dirección del viento	6.44
102799	7	Sololá	713	San Lucas Tolimán	10	San Lucas Tolimán	1	Enero	2023-01-24T00:00:00	2024-11-08T19:00:00	1	Precipitación	0
102800	7	Sololá	713	San Lucas Tolimán	10	San Lucas Tolimán	1	Enero	2023-01-24T00:00:00	2024-11-08T19:00:00	8	Radiación solar	0
102801	7	Sololá	713	San Lucas Tolimán	10	San Lucas Tolimán	1	Enero	2023-01-24T00:00:00	2024-11-08T20:00:00	2	Temperatura media	16.1
102802	7	Sololá	713	San Lucas Tolimán	10	San Lucas Tolimán	1	Enero	2023-01-24T00:00:00	2024-11-08T20:00:00	4	Temperatura máxima	17.2
102803	7	Sololá	713	San Lucas Tolimán	10	San Lucas Tolimán	1	Enero	2023-01-24T00:00:00	2024-11-08T20:00:00	3	Temperatura mínima	16
102804	7	Sololá	713	San Lucas Tolimán	10	San Lucas Tolimán	1	Enero	2023-01-24T00:00:00	2024-11-08T20:00:00	5	Humedad	59
102805	7	Sololá	713	San Lucas Tolimán	10	San Lucas Tolimán	1	Enero	2023-01-24T00:00:00	2024-11-08T20:00:00	6	Velocidad del viento	4.8
102806	7	Sololá	713	San Lucas Tolimán	10	San Lucas Tolimán	1	Enero	2023-01-24T00:00:00	2024-11-08T20:00:00	7	Dirección del viento	4.83
102807	7	Sololá	713	San Lucas Tolimán	10	San Lucas Tolimán	1	Enero	2023-01-24T00:00:00	2024-11-08T20:00:00	1	Precipitación	0
102808	7	Sololá	713	San Lucas Tolimán	10	San Lucas Tolimán	1	Enero	2023-01-24T00:00:00	2024-11-08T20:00:00	8	Radiación solar	0
102809	7	Sololá	713	San Lucas Tolimán	10	San Lucas Tolimán	1	Enero	2023-01-24T00:00:00	2024-11-08T21:00:00	2	Temperatura media	14.8
102810	7	Sololá	713	San Lucas Tolimán	10	San Lucas Tolimán	1	Enero	2023-01-24T00:00:00	2024-11-08T21:00:00	4	Temperatura máxima	16.1
102811	7	Sololá	713	San Lucas Tolimán	10	San Lucas Tolimán	1	Enero	2023-01-24T00:00:00	2024-11-08T21:00:00	3	Temperatura mínima	14.8
102812	7	Sololá	713	San Lucas Tolimán	10	San Lucas Tolimán	1	Enero	2023-01-24T00:00:00	2024-11-08T21:00:00	5	Humedad	61
102813	7	Sololá	713	San Lucas Tolimán	10	San Lucas Tolimán	1	Enero	2023-01-24T00:00:00	2024-11-08T21:00:00	6	Velocidad del viento	1.6
102814	7	Sololá	713	San Lucas Tolimán	10	San Lucas Tolimán	1	Enero	2023-01-24T00:00:00	2024-11-08T21:00:00	7	Dirección del viento	1.61
102815	7	Sololá	713	San Lucas Tolimán	10	San Lucas Tolimán	1	Enero	2023-01-24T00:00:00	2024-11-08T21:00:00	1	Precipitación	0
102816	7	Sololá	713	San Lucas Tolimán	10	San Lucas Tolimán	1	Enero	2023-01-24T00:00:00	2024-11-08T21:00:00	8	Radiación solar	0
102817	7	Sololá	713	San Lucas Tolimán	10	San Lucas Tolimán	1	Enero	2023-01-24T00:00:00	2024-11-08T22:00:00	2	Temperatura media	14.7
102818	7	Sololá	713	San Lucas Tolimán	10	San Lucas Tolimán	1	Enero	2023-01-24T00:00:00	2024-11-08T22:00:00	4	Temperatura máxima	14.8
102819	7	Sololá	713	San Lucas Tolimán	10	San Lucas Tolimán	1	Enero	2023-01-24T00:00:00	2024-11-08T22:00:00	3	Temperatura mínima	14.6
102820	7	Sololá	713	San Lucas Tolimán	10	San Lucas Tolimán	1	Enero	2023-01-24T00:00:00	2024-11-08T22:00:00	5	Humedad	60
102821	7	Sololá	713	San Lucas Tolimán	10	San Lucas Tolimán	1	Enero	2023-01-24T00:00:00	2024-11-08T22:00:00	6	Velocidad del viento	0
102822	7	Sololá	713	San Lucas Tolimán	10	San Lucas Tolimán	1	Enero	2023-01-24T00:00:00	2024-11-08T22:00:00	7	Dirección del viento	0
102823	7	Sololá	713	San Lucas Tolimán	10	San Lucas Tolimán	1	Enero	2023-01-24T00:00:00	2024-11-08T22:00:00	1	Precipitación	0
102824	7	Sololá	713	San Lucas Tolimán	10	San Lucas Tolimán	1	Enero	2023-01-24T00:00:00	2024-11-08T22:00:00	8	Radiación solar	0
102825	7	Sololá	713	San Lucas Tolimán	10	San Lucas Tolimán	1	Enero	2023-01-24T00:00:00	2024-11-08T23:00:00	2	Temperatura media	14.9
102826	7	Sololá	713	San Lucas Tolimán	10	San Lucas Tolimán	1	Enero	2023-01-24T00:00:00	2024-11-08T23:00:00	4	Temperatura máxima	15.1
102827	7	Sololá	713	San Lucas Tolimán	10	San Lucas Tolimán	1	Enero	2023-01-24T00:00:00	2024-11-08T23:00:00	3	Temperatura mínima	14.7
102828	7	Sololá	713	San Lucas Tolimán	10	San Lucas Tolimán	1	Enero	2023-01-24T00:00:00	2024-11-08T23:00:00	5	Humedad	60
102829	7	Sololá	713	San Lucas Tolimán	10	San Lucas Tolimán	1	Enero	2023-01-24T00:00:00	2024-11-08T23:00:00	6	Velocidad del viento	0
102830	7	Sololá	713	San Lucas Tolimán	10	San Lucas Tolimán	1	Enero	2023-01-24T00:00:00	2024-11-08T23:00:00	7	Dirección del viento	0
102831	7	Sololá	713	San Lucas Tolimán	10	San Lucas Tolimán	1	Enero	2023-01-24T00:00:00	2024-11-08T23:00:00	1	Precipitación	0
102832	7	Sololá	713	San Lucas Tolimán	10	San Lucas Tolimán	1	Enero	2023-01-24T00:00:00	2024-11-08T23:00:00	8	Radiación solar	0
102833	7	Sololá	713	San Lucas Tolimán	10	San Lucas Tolimán	1	Enero	2023-01-25T00:00:00	2024-11-08T00:00:00	2	Temperatura media	14.2
102834	7	Sololá	713	San Lucas Tolimán	10	San Lucas Tolimán	1	Enero	2023-01-25T00:00:00	2024-11-08T00:00:00	4	Temperatura máxima	15.1
102835	7	Sololá	713	San Lucas Tolimán	10	San Lucas Tolimán	1	Enero	2023-01-25T00:00:00	2024-11-08T00:00:00	3	Temperatura mínima	14.2
102836	7	Sololá	713	San Lucas Tolimán	10	San Lucas Tolimán	1	Enero	2023-01-25T00:00:00	2024-11-08T00:00:00	5	Humedad	60
102837	7	Sololá	713	San Lucas Tolimán	10	San Lucas Tolimán	1	Enero	2023-01-25T00:00:00	2024-11-08T00:00:00	6	Velocidad del viento	0
102838	7	Sololá	713	San Lucas Tolimán	10	San Lucas Tolimán	1	Enero	2023-01-25T00:00:00	2024-11-08T00:00:00	7	Dirección del viento	0
102839	7	Sololá	713	San Lucas Tolimán	10	San Lucas Tolimán	1	Enero	2023-01-25T00:00:00	2024-11-08T00:00:00	1	Precipitación	0
102840	7	Sololá	713	San Lucas Tolimán	10	San Lucas Tolimán	1	Enero	2023-01-25T00:00:00	2024-11-08T00:00:00	8	Radiación solar	0
102841	7	Sololá	713	San Lucas Tolimán	10	San Lucas Tolimán	1	Enero	2023-01-25T00:00:00	2024-11-08T01:00:00	2	Temperatura media	13.8
102842	7	Sololá	713	San Lucas Tolimán	10	San Lucas Tolimán	1	Enero	2023-01-25T00:00:00	2024-11-08T01:00:00	4	Temperatura máxima	14.2
102843	7	Sololá	713	San Lucas Tolimán	10	San Lucas Tolimán	1	Enero	2023-01-25T00:00:00	2024-11-08T01:00:00	3	Temperatura mínima	13.7
102844	7	Sololá	713	San Lucas Tolimán	10	San Lucas Tolimán	1	Enero	2023-01-25T00:00:00	2024-11-08T01:00:00	5	Humedad	60
102845	7	Sololá	713	San Lucas Tolimán	10	San Lucas Tolimán	1	Enero	2023-01-25T00:00:00	2024-11-08T01:00:00	6	Velocidad del viento	0
102846	7	Sololá	713	San Lucas Tolimán	10	San Lucas Tolimán	1	Enero	2023-01-25T00:00:00	2024-11-08T01:00:00	7	Dirección del viento	0
102847	7	Sololá	713	San Lucas Tolimán	10	San Lucas Tolimán	1	Enero	2023-01-25T00:00:00	2024-11-08T01:00:00	1	Precipitación	0
102848	7	Sololá	713	San Lucas Tolimán	10	San Lucas Tolimán	1	Enero	2023-01-25T00:00:00	2024-11-08T01:00:00	8	Radiación solar	0
102849	7	Sololá	713	San Lucas Tolimán	10	San Lucas Tolimán	1	Enero	2023-01-25T00:00:00	2024-11-08T02:00:00	2	Temperatura media	13.6
102850	7	Sololá	713	San Lucas Tolimán	10	San Lucas Tolimán	1	Enero	2023-01-25T00:00:00	2024-11-08T02:00:00	4	Temperatura máxima	13.9
102851	7	Sololá	713	San Lucas Tolimán	10	San Lucas Tolimán	1	Enero	2023-01-25T00:00:00	2024-11-08T02:00:00	3	Temperatura mínima	13.6
102852	7	Sololá	713	San Lucas Tolimán	10	San Lucas Tolimán	1	Enero	2023-01-25T00:00:00	2024-11-08T02:00:00	5	Humedad	58
102853	7	Sololá	713	San Lucas Tolimán	10	San Lucas Tolimán	1	Enero	2023-01-25T00:00:00	2024-11-08T02:00:00	6	Velocidad del viento	0
102854	7	Sololá	713	San Lucas Tolimán	10	San Lucas Tolimán	1	Enero	2023-01-25T00:00:00	2024-11-08T02:00:00	7	Dirección del viento	0
102855	7	Sololá	713	San Lucas Tolimán	10	San Lucas Tolimán	1	Enero	2023-01-25T00:00:00	2024-11-08T02:00:00	1	Precipitación	0
102856	7	Sololá	713	San Lucas Tolimán	10	San Lucas Tolimán	1	Enero	2023-01-25T00:00:00	2024-11-08T02:00:00	8	Radiación solar	0
102857	7	Sololá	713	San Lucas Tolimán	10	San Lucas Tolimán	1	Enero	2023-01-25T00:00:00	2024-11-08T03:00:00	2	Temperatura media	13.4
102858	7	Sololá	713	San Lucas Tolimán	10	San Lucas Tolimán	1	Enero	2023-01-25T00:00:00	2024-11-08T03:00:00	4	Temperatura máxima	13.6
102859	7	Sololá	713	San Lucas Tolimán	10	San Lucas Tolimán	1	Enero	2023-01-25T00:00:00	2024-11-08T03:00:00	3	Temperatura mínima	13.4
102860	7	Sololá	713	San Lucas Tolimán	10	San Lucas Tolimán	1	Enero	2023-01-25T00:00:00	2024-11-08T03:00:00	5	Humedad	59
102861	7	Sololá	713	San Lucas Tolimán	10	San Lucas Tolimán	1	Enero	2023-01-25T00:00:00	2024-11-08T03:00:00	6	Velocidad del viento	0
102862	7	Sololá	713	San Lucas Tolimán	10	San Lucas Tolimán	1	Enero	2023-01-25T00:00:00	2024-11-08T03:00:00	7	Dirección del viento	0
102863	7	Sololá	713	San Lucas Tolimán	10	San Lucas Tolimán	1	Enero	2023-01-25T00:00:00	2024-11-08T03:00:00	1	Precipitación	0
102864	7	Sololá	713	San Lucas Tolimán	10	San Lucas Tolimán	1	Enero	2023-01-25T00:00:00	2024-11-08T03:00:00	8	Radiación solar	0
102865	7	Sololá	713	San Lucas Tolimán	10	San Lucas Tolimán	1	Enero	2023-01-25T00:00:00	2024-11-08T04:00:00	2	Temperatura media	13.6
102866	7	Sololá	713	San Lucas Tolimán	10	San Lucas Tolimán	1	Enero	2023-01-25T00:00:00	2024-11-08T04:00:00	4	Temperatura máxima	13.7
102867	7	Sololá	713	San Lucas Tolimán	10	San Lucas Tolimán	1	Enero	2023-01-25T00:00:00	2024-11-08T04:00:00	3	Temperatura mínima	13.4
102868	7	Sololá	713	San Lucas Tolimán	10	San Lucas Tolimán	1	Enero	2023-01-25T00:00:00	2024-11-08T04:00:00	5	Humedad	59
102869	7	Sololá	713	San Lucas Tolimán	10	San Lucas Tolimán	1	Enero	2023-01-25T00:00:00	2024-11-08T04:00:00	6	Velocidad del viento	0
102870	7	Sololá	713	San Lucas Tolimán	10	San Lucas Tolimán	1	Enero	2023-01-25T00:00:00	2024-11-08T04:00:00	7	Dirección del viento	0
102871	7	Sololá	713	San Lucas Tolimán	10	San Lucas Tolimán	1	Enero	2023-01-25T00:00:00	2024-11-08T04:00:00	1	Precipitación	0
102872	7	Sololá	713	San Lucas Tolimán	10	San Lucas Tolimán	1	Enero	2023-01-25T00:00:00	2024-11-08T04:00:00	8	Radiación solar	0
102873	7	Sololá	713	San Lucas Tolimán	10	San Lucas Tolimán	1	Enero	2023-01-25T00:00:00	2024-11-08T05:00:00	2	Temperatura media	13.8
102874	7	Sololá	713	San Lucas Tolimán	10	San Lucas Tolimán	1	Enero	2023-01-25T00:00:00	2024-11-08T05:00:00	4	Temperatura máxima	13.8
102875	7	Sololá	713	San Lucas Tolimán	10	San Lucas Tolimán	1	Enero	2023-01-25T00:00:00	2024-11-08T05:00:00	3	Temperatura mínima	13.4
102876	7	Sololá	713	San Lucas Tolimán	10	San Lucas Tolimán	1	Enero	2023-01-25T00:00:00	2024-11-08T05:00:00	5	Humedad	58
102877	7	Sololá	713	San Lucas Tolimán	10	San Lucas Tolimán	1	Enero	2023-01-25T00:00:00	2024-11-08T05:00:00	6	Velocidad del viento	0
102878	7	Sololá	713	San Lucas Tolimán	10	San Lucas Tolimán	1	Enero	2023-01-25T00:00:00	2024-11-08T05:00:00	7	Dirección del viento	0
102879	7	Sololá	713	San Lucas Tolimán	10	San Lucas Tolimán	1	Enero	2023-01-25T00:00:00	2024-11-08T05:00:00	1	Precipitación	0
102880	7	Sololá	713	San Lucas Tolimán	10	San Lucas Tolimán	1	Enero	2023-01-25T00:00:00	2024-11-08T05:00:00	8	Radiación solar	0
102881	7	Sololá	713	San Lucas Tolimán	10	San Lucas Tolimán	1	Enero	2023-01-25T00:00:00	2024-11-08T06:00:00	2	Temperatura media	13.3
102882	7	Sololá	713	San Lucas Tolimán	10	San Lucas Tolimán	1	Enero	2023-01-25T00:00:00	2024-11-08T06:00:00	4	Temperatura máxima	13.8
102883	7	Sololá	713	San Lucas Tolimán	10	San Lucas Tolimán	1	Enero	2023-01-25T00:00:00	2024-11-08T06:00:00	3	Temperatura mínima	13.3
102884	7	Sololá	713	San Lucas Tolimán	10	San Lucas Tolimán	1	Enero	2023-01-25T00:00:00	2024-11-08T06:00:00	5	Humedad	59
102885	7	Sololá	713	San Lucas Tolimán	10	San Lucas Tolimán	1	Enero	2023-01-25T00:00:00	2024-11-08T06:00:00	6	Velocidad del viento	0
102886	7	Sololá	713	San Lucas Tolimán	10	San Lucas Tolimán	1	Enero	2023-01-25T00:00:00	2024-11-08T06:00:00	7	Dirección del viento	0
102887	7	Sololá	713	San Lucas Tolimán	10	San Lucas Tolimán	1	Enero	2023-01-25T00:00:00	2024-11-08T06:00:00	1	Precipitación	0
102888	7	Sololá	713	San Lucas Tolimán	10	San Lucas Tolimán	1	Enero	2023-01-25T00:00:00	2024-11-08T06:00:00	8	Radiación solar	0
102889	7	Sololá	713	San Lucas Tolimán	10	San Lucas Tolimán	1	Enero	2023-01-25T00:00:00	2024-11-08T07:00:00	2	Temperatura media	13.3
102890	7	Sololá	713	San Lucas Tolimán	10	San Lucas Tolimán	1	Enero	2023-01-25T00:00:00	2024-11-08T07:00:00	4	Temperatura máxima	13.3
102891	7	Sololá	713	San Lucas Tolimán	10	San Lucas Tolimán	1	Enero	2023-01-25T00:00:00	2024-11-08T07:00:00	3	Temperatura mínima	13.2
102892	7	Sololá	713	San Lucas Tolimán	10	San Lucas Tolimán	1	Enero	2023-01-25T00:00:00	2024-11-08T07:00:00	5	Humedad	59
102893	7	Sololá	713	San Lucas Tolimán	10	San Lucas Tolimán	1	Enero	2023-01-25T00:00:00	2024-11-08T07:00:00	6	Velocidad del viento	0
102894	7	Sololá	713	San Lucas Tolimán	10	San Lucas Tolimán	1	Enero	2023-01-25T00:00:00	2024-11-08T07:00:00	7	Dirección del viento	0
102895	7	Sololá	713	San Lucas Tolimán	10	San Lucas Tolimán	1	Enero	2023-01-25T00:00:00	2024-11-08T07:00:00	1	Precipitación	0
102896	7	Sololá	713	San Lucas Tolimán	10	San Lucas Tolimán	1	Enero	2023-01-25T00:00:00	2024-11-08T07:00:00	8	Radiación solar	4
102897	7	Sololá	713	San Lucas Tolimán	10	San Lucas Tolimán	1	Enero	2023-01-25T00:00:00	2024-11-08T08:00:00	2	Temperatura media	14.4
102898	7	Sololá	713	San Lucas Tolimán	10	San Lucas Tolimán	1	Enero	2023-01-25T00:00:00	2024-11-08T08:00:00	4	Temperatura máxima	14.4
102899	7	Sololá	713	San Lucas Tolimán	10	San Lucas Tolimán	1	Enero	2023-01-25T00:00:00	2024-11-08T08:00:00	3	Temperatura mínima	13.3
102900	7	Sololá	713	San Lucas Tolimán	10	San Lucas Tolimán	1	Enero	2023-01-25T00:00:00	2024-11-08T08:00:00	5	Humedad	58
102901	7	Sololá	713	San Lucas Tolimán	10	San Lucas Tolimán	1	Enero	2023-01-25T00:00:00	2024-11-08T08:00:00	6	Velocidad del viento	3.2
102902	7	Sololá	713	San Lucas Tolimán	10	San Lucas Tolimán	1	Enero	2023-01-25T00:00:00	2024-11-08T08:00:00	7	Dirección del viento	3.22
102903	7	Sololá	713	San Lucas Tolimán	10	San Lucas Tolimán	1	Enero	2023-01-25T00:00:00	2024-11-08T08:00:00	1	Precipitación	0
102904	7	Sololá	713	San Lucas Tolimán	10	San Lucas Tolimán	1	Enero	2023-01-25T00:00:00	2024-11-08T08:00:00	8	Radiación solar	21
102905	7	Sololá	713	San Lucas Tolimán	10	San Lucas Tolimán	1	Enero	2023-01-25T00:00:00	2024-11-08T09:00:00	2	Temperatura media	17.1
102906	7	Sololá	713	San Lucas Tolimán	10	San Lucas Tolimán	1	Enero	2023-01-25T00:00:00	2024-11-08T09:00:00	4	Temperatura máxima	17.1
102907	7	Sololá	713	San Lucas Tolimán	10	San Lucas Tolimán	1	Enero	2023-01-25T00:00:00	2024-11-08T09:00:00	3	Temperatura mínima	14.4
102908	7	Sololá	713	San Lucas Tolimán	10	San Lucas Tolimán	1	Enero	2023-01-25T00:00:00	2024-11-08T09:00:00	5	Humedad	55
102909	7	Sololá	713	San Lucas Tolimán	10	San Lucas Tolimán	1	Enero	2023-01-25T00:00:00	2024-11-08T09:00:00	6	Velocidad del viento	6.4
102910	7	Sololá	713	San Lucas Tolimán	10	San Lucas Tolimán	1	Enero	2023-01-25T00:00:00	2024-11-08T09:00:00	7	Dirección del viento	6.44
102911	7	Sololá	713	San Lucas Tolimán	10	San Lucas Tolimán	1	Enero	2023-01-25T00:00:00	2024-11-08T09:00:00	1	Precipitación	0
102912	7	Sololá	713	San Lucas Tolimán	10	San Lucas Tolimán	1	Enero	2023-01-25T00:00:00	2024-11-08T09:00:00	8	Radiación solar	299
102913	7	Sololá	713	San Lucas Tolimán	10	San Lucas Tolimán	1	Enero	2023-01-25T00:00:00	2024-11-08T10:00:00	2	Temperatura media	19
102914	7	Sololá	713	San Lucas Tolimán	10	San Lucas Tolimán	1	Enero	2023-01-25T00:00:00	2024-11-08T10:00:00	4	Temperatura máxima	19
102915	7	Sololá	713	San Lucas Tolimán	10	San Lucas Tolimán	1	Enero	2023-01-25T00:00:00	2024-11-08T10:00:00	3	Temperatura mínima	17.1
102916	7	Sololá	713	San Lucas Tolimán	10	San Lucas Tolimán	1	Enero	2023-01-25T00:00:00	2024-11-08T10:00:00	5	Humedad	55
102917	7	Sololá	713	San Lucas Tolimán	10	San Lucas Tolimán	1	Enero	2023-01-25T00:00:00	2024-11-08T10:00:00	6	Velocidad del viento	6.4
102918	7	Sololá	713	San Lucas Tolimán	10	San Lucas Tolimán	1	Enero	2023-01-25T00:00:00	2024-11-08T10:00:00	7	Dirección del viento	6.44
102919	7	Sololá	713	San Lucas Tolimán	10	San Lucas Tolimán	1	Enero	2023-01-25T00:00:00	2024-11-08T10:00:00	1	Precipitación	0
102920	7	Sololá	713	San Lucas Tolimán	10	San Lucas Tolimán	1	Enero	2023-01-25T00:00:00	2024-11-08T10:00:00	8	Radiación solar	605
102921	7	Sololá	713	San Lucas Tolimán	10	San Lucas Tolimán	1	Enero	2023-01-25T00:00:00	2024-11-08T11:00:00	2	Temperatura media	19.9
102922	7	Sololá	713	San Lucas Tolimán	10	San Lucas Tolimán	1	Enero	2023-01-25T00:00:00	2024-11-08T11:00:00	4	Temperatura máxima	19.9
102923	7	Sololá	713	San Lucas Tolimán	10	San Lucas Tolimán	1	Enero	2023-01-25T00:00:00	2024-11-08T11:00:00	3	Temperatura mínima	18.9
102924	7	Sololá	713	San Lucas Tolimán	10	San Lucas Tolimán	1	Enero	2023-01-25T00:00:00	2024-11-08T11:00:00	5	Humedad	52
102925	7	Sololá	713	San Lucas Tolimán	10	San Lucas Tolimán	1	Enero	2023-01-25T00:00:00	2024-11-08T11:00:00	6	Velocidad del viento	8
102926	7	Sololá	713	San Lucas Tolimán	10	San Lucas Tolimán	1	Enero	2023-01-25T00:00:00	2024-11-08T11:00:00	7	Dirección del viento	8.05
102927	7	Sololá	713	San Lucas Tolimán	10	San Lucas Tolimán	1	Enero	2023-01-25T00:00:00	2024-11-08T11:00:00	1	Precipitación	0
102928	7	Sololá	713	San Lucas Tolimán	10	San Lucas Tolimán	1	Enero	2023-01-25T00:00:00	2024-11-08T11:00:00	8	Radiación solar	781
102929	7	Sololá	713	San Lucas Tolimán	10	San Lucas Tolimán	1	Enero	2023-01-25T00:00:00	2024-11-08T12:00:00	2	Temperatura media	22.7
102930	7	Sololá	713	San Lucas Tolimán	10	San Lucas Tolimán	1	Enero	2023-01-25T00:00:00	2024-11-08T12:00:00	4	Temperatura máxima	23.4
102931	7	Sololá	713	San Lucas Tolimán	10	San Lucas Tolimán	1	Enero	2023-01-25T00:00:00	2024-11-08T12:00:00	3	Temperatura mínima	19.7
102932	7	Sololá	713	San Lucas Tolimán	10	San Lucas Tolimán	1	Enero	2023-01-25T00:00:00	2024-11-08T12:00:00	5	Humedad	49
102933	7	Sololá	713	San Lucas Tolimán	10	San Lucas Tolimán	1	Enero	2023-01-25T00:00:00	2024-11-08T12:00:00	6	Velocidad del viento	8
102934	7	Sololá	713	San Lucas Tolimán	10	San Lucas Tolimán	1	Enero	2023-01-25T00:00:00	2024-11-08T12:00:00	7	Dirección del viento	8.05
102935	7	Sololá	713	San Lucas Tolimán	10	San Lucas Tolimán	1	Enero	2023-01-25T00:00:00	2024-11-08T12:00:00	1	Precipitación	0
102936	7	Sololá	713	San Lucas Tolimán	10	San Lucas Tolimán	1	Enero	2023-01-25T00:00:00	2024-11-08T12:00:00	8	Radiación solar	891
102937	7	Sololá	713	San Lucas Tolimán	10	San Lucas Tolimán	1	Enero	2023-01-25T00:00:00	2024-11-08T13:00:00	2	Temperatura media	22.7
102938	7	Sololá	713	San Lucas Tolimán	10	San Lucas Tolimán	1	Enero	2023-01-25T00:00:00	2024-11-08T13:00:00	4	Temperatura máxima	23.1
102939	7	Sololá	713	San Lucas Tolimán	10	San Lucas Tolimán	1	Enero	2023-01-25T00:00:00	2024-11-08T13:00:00	3	Temperatura mínima	22.3
102940	7	Sololá	713	San Lucas Tolimán	10	San Lucas Tolimán	1	Enero	2023-01-25T00:00:00	2024-11-08T13:00:00	5	Humedad	52
102941	7	Sololá	713	San Lucas Tolimán	10	San Lucas Tolimán	1	Enero	2023-01-25T00:00:00	2024-11-08T13:00:00	6	Velocidad del viento	12.9
102942	7	Sololá	713	San Lucas Tolimán	10	San Lucas Tolimán	1	Enero	2023-01-25T00:00:00	2024-11-08T13:00:00	7	Dirección del viento	12.87
102943	7	Sololá	713	San Lucas Tolimán	10	San Lucas Tolimán	1	Enero	2023-01-25T00:00:00	2024-11-08T13:00:00	1	Precipitación	0
102944	7	Sololá	713	San Lucas Tolimán	10	San Lucas Tolimán	1	Enero	2023-01-25T00:00:00	2024-11-08T13:00:00	8	Radiación solar	919
102945	7	Sololá	713	San Lucas Tolimán	10	San Lucas Tolimán	1	Enero	2023-01-25T00:00:00	2024-11-08T14:00:00	2	Temperatura media	22.9
102946	7	Sololá	713	San Lucas Tolimán	10	San Lucas Tolimán	1	Enero	2023-01-25T00:00:00	2024-11-08T14:00:00	4	Temperatura máxima	23.3
102947	7	Sololá	713	San Lucas Tolimán	10	San Lucas Tolimán	1	Enero	2023-01-25T00:00:00	2024-11-08T14:00:00	3	Temperatura mínima	22.5
102948	7	Sololá	713	San Lucas Tolimán	10	San Lucas Tolimán	1	Enero	2023-01-25T00:00:00	2024-11-08T14:00:00	5	Humedad	53
102949	7	Sololá	713	San Lucas Tolimán	10	San Lucas Tolimán	1	Enero	2023-01-25T00:00:00	2024-11-08T14:00:00	6	Velocidad del viento	11.3
102950	7	Sololá	713	San Lucas Tolimán	10	San Lucas Tolimán	1	Enero	2023-01-25T00:00:00	2024-11-08T14:00:00	7	Dirección del viento	11.27
102951	7	Sololá	713	San Lucas Tolimán	10	San Lucas Tolimán	1	Enero	2023-01-25T00:00:00	2024-11-08T14:00:00	1	Precipitación	0
102952	7	Sololá	713	San Lucas Tolimán	10	San Lucas Tolimán	1	Enero	2023-01-25T00:00:00	2024-11-08T14:00:00	8	Radiación solar	861
102953	7	Sololá	713	San Lucas Tolimán	10	San Lucas Tolimán	1	Enero	2023-01-25T00:00:00	2024-11-08T15:00:00	2	Temperatura media	23.4
102954	7	Sololá	713	San Lucas Tolimán	10	San Lucas Tolimán	1	Enero	2023-01-25T00:00:00	2024-11-08T15:00:00	4	Temperatura máxima	23.4
102955	7	Sololá	713	San Lucas Tolimán	10	San Lucas Tolimán	1	Enero	2023-01-25T00:00:00	2024-11-08T15:00:00	3	Temperatura mínima	22.3
102956	7	Sololá	713	San Lucas Tolimán	10	San Lucas Tolimán	1	Enero	2023-01-25T00:00:00	2024-11-08T15:00:00	5	Humedad	52
102957	7	Sololá	713	San Lucas Tolimán	10	San Lucas Tolimán	1	Enero	2023-01-25T00:00:00	2024-11-08T15:00:00	6	Velocidad del viento	11.3
102958	7	Sololá	713	San Lucas Tolimán	10	San Lucas Tolimán	1	Enero	2023-01-25T00:00:00	2024-11-08T15:00:00	7	Dirección del viento	11.27
102959	7	Sololá	713	San Lucas Tolimán	10	San Lucas Tolimán	1	Enero	2023-01-25T00:00:00	2024-11-08T15:00:00	1	Precipitación	0
102960	7	Sololá	713	San Lucas Tolimán	10	San Lucas Tolimán	1	Enero	2023-01-25T00:00:00	2024-11-08T15:00:00	8	Radiación solar	708
102961	7	Sololá	713	San Lucas Tolimán	10	San Lucas Tolimán	1	Enero	2023-01-25T00:00:00	2024-11-08T16:00:00	2	Temperatura media	22.3
102962	7	Sololá	713	San Lucas Tolimán	10	San Lucas Tolimán	1	Enero	2023-01-25T00:00:00	2024-11-08T16:00:00	4	Temperatura máxima	23.4
102963	7	Sololá	713	San Lucas Tolimán	10	San Lucas Tolimán	1	Enero	2023-01-25T00:00:00	2024-11-08T16:00:00	3	Temperatura mínima	22.1
102964	7	Sololá	713	San Lucas Tolimán	10	San Lucas Tolimán	1	Enero	2023-01-25T00:00:00	2024-11-08T16:00:00	5	Humedad	56
102965	7	Sololá	713	San Lucas Tolimán	10	San Lucas Tolimán	1	Enero	2023-01-25T00:00:00	2024-11-08T16:00:00	6	Velocidad del viento	8
102966	7	Sololá	713	San Lucas Tolimán	10	San Lucas Tolimán	1	Enero	2023-01-25T00:00:00	2024-11-08T16:00:00	7	Dirección del viento	8.05
102967	7	Sololá	713	San Lucas Tolimán	10	San Lucas Tolimán	1	Enero	2023-01-25T00:00:00	2024-11-08T16:00:00	1	Precipitación	0
102968	7	Sololá	713	San Lucas Tolimán	10	San Lucas Tolimán	1	Enero	2023-01-25T00:00:00	2024-11-08T16:00:00	8	Radiación solar	484
102969	7	Sololá	713	San Lucas Tolimán	10	San Lucas Tolimán	1	Enero	2023-01-25T00:00:00	2024-11-08T17:00:00	2	Temperatura media	20.8
102970	7	Sololá	713	San Lucas Tolimán	10	San Lucas Tolimán	1	Enero	2023-01-25T00:00:00	2024-11-08T17:00:00	4	Temperatura máxima	22.5
102971	7	Sololá	713	San Lucas Tolimán	10	San Lucas Tolimán	1	Enero	2023-01-25T00:00:00	2024-11-08T17:00:00	3	Temperatura mínima	20.7
102972	7	Sololá	713	San Lucas Tolimán	10	San Lucas Tolimán	1	Enero	2023-01-25T00:00:00	2024-11-08T17:00:00	5	Humedad	61
102973	7	Sololá	713	San Lucas Tolimán	10	San Lucas Tolimán	1	Enero	2023-01-25T00:00:00	2024-11-08T17:00:00	6	Velocidad del viento	9.7
102974	7	Sololá	713	San Lucas Tolimán	10	San Lucas Tolimán	1	Enero	2023-01-25T00:00:00	2024-11-08T17:00:00	7	Dirección del viento	9.66
102975	7	Sololá	713	San Lucas Tolimán	10	San Lucas Tolimán	1	Enero	2023-01-25T00:00:00	2024-11-08T17:00:00	1	Precipitación	0
102976	7	Sololá	713	San Lucas Tolimán	10	San Lucas Tolimán	1	Enero	2023-01-25T00:00:00	2024-11-08T17:00:00	8	Radiación solar	229
102977	7	Sololá	713	San Lucas Tolimán	10	San Lucas Tolimán	1	Enero	2023-01-25T00:00:00	2024-11-08T18:00:00	2	Temperatura media	19.1
102978	7	Sololá	713	San Lucas Tolimán	10	San Lucas Tolimán	1	Enero	2023-01-25T00:00:00	2024-11-08T18:00:00	4	Temperatura máxima	20.8
102979	7	Sololá	713	San Lucas Tolimán	10	San Lucas Tolimán	1	Enero	2023-01-25T00:00:00	2024-11-08T18:00:00	3	Temperatura mínima	19
102980	7	Sololá	713	San Lucas Tolimán	10	San Lucas Tolimán	1	Enero	2023-01-25T00:00:00	2024-11-08T18:00:00	5	Humedad	63
102981	7	Sololá	713	San Lucas Tolimán	10	San Lucas Tolimán	1	Enero	2023-01-25T00:00:00	2024-11-08T18:00:00	6	Velocidad del viento	6.4
102982	7	Sololá	713	San Lucas Tolimán	10	San Lucas Tolimán	1	Enero	2023-01-25T00:00:00	2024-11-08T18:00:00	7	Dirección del viento	6.44
102983	7	Sololá	713	San Lucas Tolimán	10	San Lucas Tolimán	1	Enero	2023-01-25T00:00:00	2024-11-08T18:00:00	1	Precipitación	0
102984	7	Sololá	713	San Lucas Tolimán	10	San Lucas Tolimán	1	Enero	2023-01-25T00:00:00	2024-11-08T18:00:00	8	Radiación solar	37
102985	7	Sololá	713	San Lucas Tolimán	10	San Lucas Tolimán	1	Enero	2023-01-25T00:00:00	2024-11-08T19:00:00	2	Temperatura media	17.8
102986	7	Sololá	713	San Lucas Tolimán	10	San Lucas Tolimán	1	Enero	2023-01-25T00:00:00	2024-11-08T19:00:00	4	Temperatura máxima	19.1
102987	7	Sololá	713	San Lucas Tolimán	10	San Lucas Tolimán	1	Enero	2023-01-25T00:00:00	2024-11-08T19:00:00	3	Temperatura mínima	17.7
102988	7	Sololá	713	San Lucas Tolimán	10	San Lucas Tolimán	1	Enero	2023-01-25T00:00:00	2024-11-08T19:00:00	5	Humedad	62
102989	7	Sololá	713	San Lucas Tolimán	10	San Lucas Tolimán	1	Enero	2023-01-25T00:00:00	2024-11-08T19:00:00	6	Velocidad del viento	6.4
102990	7	Sololá	713	San Lucas Tolimán	10	San Lucas Tolimán	1	Enero	2023-01-25T00:00:00	2024-11-08T19:00:00	7	Dirección del viento	6.44
102991	7	Sololá	713	San Lucas Tolimán	10	San Lucas Tolimán	1	Enero	2023-01-25T00:00:00	2024-11-08T19:00:00	1	Precipitación	0
102992	7	Sololá	713	San Lucas Tolimán	10	San Lucas Tolimán	1	Enero	2023-01-25T00:00:00	2024-11-08T19:00:00	8	Radiación solar	0
102993	7	Sololá	713	San Lucas Tolimán	10	San Lucas Tolimán	1	Enero	2023-01-25T00:00:00	2024-11-08T20:00:00	2	Temperatura media	17.2
102994	7	Sololá	713	San Lucas Tolimán	10	San Lucas Tolimán	1	Enero	2023-01-25T00:00:00	2024-11-08T20:00:00	4	Temperatura máxima	17.7
102995	7	Sololá	713	San Lucas Tolimán	10	San Lucas Tolimán	1	Enero	2023-01-25T00:00:00	2024-11-08T20:00:00	3	Temperatura mínima	17.2
102996	7	Sololá	713	San Lucas Tolimán	10	San Lucas Tolimán	1	Enero	2023-01-25T00:00:00	2024-11-08T20:00:00	5	Humedad	61
102997	7	Sololá	713	San Lucas Tolimán	10	San Lucas Tolimán	1	Enero	2023-01-25T00:00:00	2024-11-08T20:00:00	6	Velocidad del viento	1.6
102998	7	Sololá	713	San Lucas Tolimán	10	San Lucas Tolimán	1	Enero	2023-01-25T00:00:00	2024-11-08T20:00:00	7	Dirección del viento	1.61
102999	7	Sololá	713	San Lucas Tolimán	10	San Lucas Tolimán	1	Enero	2023-01-25T00:00:00	2024-11-08T20:00:00	1	Precipitación	0
103000	7	Sololá	713	San Lucas Tolimán	10	San Lucas Tolimán	1	Enero	2023-01-25T00:00:00	2024-11-08T20:00:00	8	Radiación solar	0
103001	7	Sololá	713	San Lucas Tolimán	10	San Lucas Tolimán	1	Enero	2023-01-25T00:00:00	2024-11-08T21:00:00	2	Temperatura media	17
103002	7	Sololá	713	San Lucas Tolimán	10	San Lucas Tolimán	1	Enero	2023-01-25T00:00:00	2024-11-08T21:00:00	4	Temperatura máxima	17.3
103003	7	Sololá	713	San Lucas Tolimán	10	San Lucas Tolimán	1	Enero	2023-01-25T00:00:00	2024-11-08T21:00:00	3	Temperatura mínima	16.9
103004	7	Sololá	713	San Lucas Tolimán	10	San Lucas Tolimán	1	Enero	2023-01-25T00:00:00	2024-11-08T21:00:00	5	Humedad	62
103005	7	Sololá	713	San Lucas Tolimán	10	San Lucas Tolimán	1	Enero	2023-01-25T00:00:00	2024-11-08T21:00:00	6	Velocidad del viento	1.6
103006	7	Sololá	713	San Lucas Tolimán	10	San Lucas Tolimán	1	Enero	2023-01-25T00:00:00	2024-11-08T21:00:00	7	Dirección del viento	1.61
103007	7	Sololá	713	San Lucas Tolimán	10	San Lucas Tolimán	1	Enero	2023-01-25T00:00:00	2024-11-08T21:00:00	1	Precipitación	0
103008	7	Sololá	713	San Lucas Tolimán	10	San Lucas Tolimán	1	Enero	2023-01-25T00:00:00	2024-11-08T21:00:00	8	Radiación solar	0
103009	7	Sololá	713	San Lucas Tolimán	10	San Lucas Tolimán	1	Enero	2023-01-25T00:00:00	2024-11-08T22:00:00	2	Temperatura media	17.7
103010	7	Sololá	713	San Lucas Tolimán	10	San Lucas Tolimán	1	Enero	2023-01-25T00:00:00	2024-11-08T22:00:00	4	Temperatura máxima	17.7
103011	7	Sololá	713	San Lucas Tolimán	10	San Lucas Tolimán	1	Enero	2023-01-25T00:00:00	2024-11-08T22:00:00	3	Temperatura mínima	17
103012	7	Sololá	713	San Lucas Tolimán	10	San Lucas Tolimán	1	Enero	2023-01-25T00:00:00	2024-11-08T22:00:00	5	Humedad	52
103013	7	Sololá	713	San Lucas Tolimán	10	San Lucas Tolimán	1	Enero	2023-01-25T00:00:00	2024-11-08T22:00:00	6	Velocidad del viento	3.2
103014	7	Sololá	713	San Lucas Tolimán	10	San Lucas Tolimán	1	Enero	2023-01-25T00:00:00	2024-11-08T22:00:00	7	Dirección del viento	3.22
103015	7	Sololá	713	San Lucas Tolimán	10	San Lucas Tolimán	1	Enero	2023-01-25T00:00:00	2024-11-08T22:00:00	1	Precipitación	0
103016	7	Sololá	713	San Lucas Tolimán	10	San Lucas Tolimán	1	Enero	2023-01-25T00:00:00	2024-11-08T22:00:00	8	Radiación solar	0
103017	7	Sololá	713	San Lucas Tolimán	10	San Lucas Tolimán	1	Enero	2023-01-25T00:00:00	2024-11-08T23:00:00	2	Temperatura media	15.6
103018	7	Sololá	713	San Lucas Tolimán	10	San Lucas Tolimán	1	Enero	2023-01-25T00:00:00	2024-11-08T23:00:00	4	Temperatura máxima	18.1
103019	7	Sololá	713	San Lucas Tolimán	10	San Lucas Tolimán	1	Enero	2023-01-25T00:00:00	2024-11-08T23:00:00	3	Temperatura mínima	15.6
103020	7	Sololá	713	San Lucas Tolimán	10	San Lucas Tolimán	1	Enero	2023-01-25T00:00:00	2024-11-08T23:00:00	5	Humedad	56
103021	7	Sololá	713	San Lucas Tolimán	10	San Lucas Tolimán	1	Enero	2023-01-25T00:00:00	2024-11-08T23:00:00	6	Velocidad del viento	0
103022	7	Sololá	713	San Lucas Tolimán	10	San Lucas Tolimán	1	Enero	2023-01-25T00:00:00	2024-11-08T23:00:00	7	Dirección del viento	0
103023	7	Sololá	713	San Lucas Tolimán	10	San Lucas Tolimán	1	Enero	2023-01-25T00:00:00	2024-11-08T23:00:00	1	Precipitación	0
103024	7	Sololá	713	San Lucas Tolimán	10	San Lucas Tolimán	1	Enero	2023-01-25T00:00:00	2024-11-08T23:00:00	8	Radiación solar	0
103025	7	Sololá	713	San Lucas Tolimán	10	San Lucas Tolimán	1	Enero	2023-01-26T00:00:00	2024-11-08T00:00:00	2	Temperatura media	15.9
103026	7	Sololá	713	San Lucas Tolimán	10	San Lucas Tolimán	1	Enero	2023-01-26T00:00:00	2024-11-08T00:00:00	4	Temperatura máxima	16.1
103027	7	Sololá	713	San Lucas Tolimán	10	San Lucas Tolimán	1	Enero	2023-01-26T00:00:00	2024-11-08T00:00:00	3	Temperatura mínima	15.6
103028	7	Sololá	713	San Lucas Tolimán	10	San Lucas Tolimán	1	Enero	2023-01-26T00:00:00	2024-11-08T00:00:00	5	Humedad	54
103029	7	Sololá	713	San Lucas Tolimán	10	San Lucas Tolimán	1	Enero	2023-01-26T00:00:00	2024-11-08T00:00:00	6	Velocidad del viento	1.6
103030	7	Sololá	713	San Lucas Tolimán	10	San Lucas Tolimán	1	Enero	2023-01-26T00:00:00	2024-11-08T00:00:00	7	Dirección del viento	1.61
103031	7	Sololá	713	San Lucas Tolimán	10	San Lucas Tolimán	1	Enero	2023-01-26T00:00:00	2024-11-08T00:00:00	1	Precipitación	0
103032	7	Sololá	713	San Lucas Tolimán	10	San Lucas Tolimán	1	Enero	2023-01-26T00:00:00	2024-11-08T00:00:00	8	Radiación solar	0
103033	7	Sololá	713	San Lucas Tolimán	10	San Lucas Tolimán	1	Enero	2023-01-26T00:00:00	2024-11-08T01:00:00	2	Temperatura media	15.8
103034	7	Sololá	713	San Lucas Tolimán	10	San Lucas Tolimán	1	Enero	2023-01-26T00:00:00	2024-11-08T01:00:00	4	Temperatura máxima	16.2
103035	7	Sololá	713	San Lucas Tolimán	10	San Lucas Tolimán	1	Enero	2023-01-26T00:00:00	2024-11-08T01:00:00	3	Temperatura mínima	15.5
103036	7	Sololá	713	San Lucas Tolimán	10	San Lucas Tolimán	1	Enero	2023-01-26T00:00:00	2024-11-08T01:00:00	5	Humedad	56
103037	7	Sololá	713	San Lucas Tolimán	10	San Lucas Tolimán	1	Enero	2023-01-26T00:00:00	2024-11-08T01:00:00	6	Velocidad del viento	3.2
103038	7	Sololá	713	San Lucas Tolimán	10	San Lucas Tolimán	1	Enero	2023-01-26T00:00:00	2024-11-08T01:00:00	7	Dirección del viento	3.22
103039	7	Sololá	713	San Lucas Tolimán	10	San Lucas Tolimán	1	Enero	2023-01-26T00:00:00	2024-11-08T01:00:00	1	Precipitación	0
103040	7	Sololá	713	San Lucas Tolimán	10	San Lucas Tolimán	1	Enero	2023-01-26T00:00:00	2024-11-08T01:00:00	8	Radiación solar	0
103041	7	Sololá	713	San Lucas Tolimán	10	San Lucas Tolimán	1	Enero	2023-01-26T00:00:00	2024-11-08T02:00:00	2	Temperatura media	15.1
103042	7	Sololá	713	San Lucas Tolimán	10	San Lucas Tolimán	1	Enero	2023-01-26T00:00:00	2024-11-08T02:00:00	4	Temperatura máxima	15.8
103043	7	Sololá	713	San Lucas Tolimán	10	San Lucas Tolimán	1	Enero	2023-01-26T00:00:00	2024-11-08T02:00:00	3	Temperatura mínima	15.1
103044	7	Sololá	713	San Lucas Tolimán	10	San Lucas Tolimán	1	Enero	2023-01-26T00:00:00	2024-11-08T02:00:00	5	Humedad	58
103045	7	Sololá	713	San Lucas Tolimán	10	San Lucas Tolimán	1	Enero	2023-01-26T00:00:00	2024-11-08T02:00:00	6	Velocidad del viento	3.2
103046	7	Sololá	713	San Lucas Tolimán	10	San Lucas Tolimán	1	Enero	2023-01-26T00:00:00	2024-11-08T02:00:00	7	Dirección del viento	3.22
103047	7	Sololá	713	San Lucas Tolimán	10	San Lucas Tolimán	1	Enero	2023-01-26T00:00:00	2024-11-08T02:00:00	1	Precipitación	0
103048	7	Sololá	713	San Lucas Tolimán	10	San Lucas Tolimán	1	Enero	2023-01-26T00:00:00	2024-11-08T02:00:00	8	Radiación solar	0
103049	7	Sololá	713	San Lucas Tolimán	10	San Lucas Tolimán	1	Enero	2023-01-26T00:00:00	2024-11-08T03:00:00	2	Temperatura media	15.4
103050	7	Sololá	713	San Lucas Tolimán	10	San Lucas Tolimán	1	Enero	2023-01-26T00:00:00	2024-11-08T03:00:00	4	Temperatura máxima	15.6
103051	7	Sololá	713	San Lucas Tolimán	10	San Lucas Tolimán	1	Enero	2023-01-26T00:00:00	2024-11-08T03:00:00	3	Temperatura mínima	15.1
103052	7	Sololá	713	San Lucas Tolimán	10	San Lucas Tolimán	1	Enero	2023-01-26T00:00:00	2024-11-08T03:00:00	5	Humedad	58
103053	7	Sololá	713	San Lucas Tolimán	10	San Lucas Tolimán	1	Enero	2023-01-26T00:00:00	2024-11-08T03:00:00	6	Velocidad del viento	1.6
103054	7	Sololá	713	San Lucas Tolimán	10	San Lucas Tolimán	1	Enero	2023-01-26T00:00:00	2024-11-08T03:00:00	7	Dirección del viento	1.61
103055	7	Sololá	713	San Lucas Tolimán	10	San Lucas Tolimán	1	Enero	2023-01-26T00:00:00	2024-11-08T03:00:00	1	Precipitación	0
103056	7	Sololá	713	San Lucas Tolimán	10	San Lucas Tolimán	1	Enero	2023-01-26T00:00:00	2024-11-08T03:00:00	8	Radiación solar	0
103057	7	Sololá	713	San Lucas Tolimán	10	San Lucas Tolimán	1	Enero	2023-01-26T00:00:00	2024-11-08T04:00:00	2	Temperatura media	15.5
103058	7	Sololá	713	San Lucas Tolimán	10	San Lucas Tolimán	1	Enero	2023-01-26T00:00:00	2024-11-08T04:00:00	4	Temperatura máxima	15.6
103059	7	Sololá	713	San Lucas Tolimán	10	San Lucas Tolimán	1	Enero	2023-01-26T00:00:00	2024-11-08T04:00:00	3	Temperatura mínima	15.2
103060	7	Sololá	713	San Lucas Tolimán	10	San Lucas Tolimán	1	Enero	2023-01-26T00:00:00	2024-11-08T04:00:00	5	Humedad	57
103061	7	Sololá	713	San Lucas Tolimán	10	San Lucas Tolimán	1	Enero	2023-01-26T00:00:00	2024-11-08T04:00:00	6	Velocidad del viento	3.2
103062	7	Sololá	713	San Lucas Tolimán	10	San Lucas Tolimán	1	Enero	2023-01-26T00:00:00	2024-11-08T04:00:00	7	Dirección del viento	3.22
103063	7	Sololá	713	San Lucas Tolimán	10	San Lucas Tolimán	1	Enero	2023-01-26T00:00:00	2024-11-08T04:00:00	1	Precipitación	0
103064	7	Sololá	713	San Lucas Tolimán	10	San Lucas Tolimán	1	Enero	2023-01-26T00:00:00	2024-11-08T04:00:00	8	Radiación solar	0
103065	7	Sololá	713	San Lucas Tolimán	10	San Lucas Tolimán	1	Enero	2023-01-26T00:00:00	2024-11-08T05:00:00	2	Temperatura media	16.2
103066	7	Sololá	713	San Lucas Tolimán	10	San Lucas Tolimán	1	Enero	2023-01-26T00:00:00	2024-11-08T05:00:00	4	Temperatura máxima	16.3
103067	7	Sololá	713	San Lucas Tolimán	10	San Lucas Tolimán	1	Enero	2023-01-26T00:00:00	2024-11-08T05:00:00	3	Temperatura mínima	15.3
103068	7	Sololá	713	San Lucas Tolimán	10	San Lucas Tolimán	1	Enero	2023-01-26T00:00:00	2024-11-08T05:00:00	5	Humedad	57
103069	7	Sololá	713	San Lucas Tolimán	10	San Lucas Tolimán	1	Enero	2023-01-26T00:00:00	2024-11-08T05:00:00	6	Velocidad del viento	6.4
103070	7	Sololá	713	San Lucas Tolimán	10	San Lucas Tolimán	1	Enero	2023-01-26T00:00:00	2024-11-08T05:00:00	7	Dirección del viento	6.44
103071	7	Sololá	713	San Lucas Tolimán	10	San Lucas Tolimán	1	Enero	2023-01-26T00:00:00	2024-11-08T05:00:00	1	Precipitación	0
103072	7	Sololá	713	San Lucas Tolimán	10	San Lucas Tolimán	1	Enero	2023-01-26T00:00:00	2024-11-08T05:00:00	8	Radiación solar	0
103073	7	Sololá	713	San Lucas Tolimán	10	San Lucas Tolimán	1	Enero	2023-01-26T00:00:00	2024-11-08T06:00:00	2	Temperatura media	16.8
103074	7	Sololá	713	San Lucas Tolimán	10	San Lucas Tolimán	1	Enero	2023-01-26T00:00:00	2024-11-08T06:00:00	4	Temperatura máxima	17.1
103075	7	Sololá	713	San Lucas Tolimán	10	San Lucas Tolimán	1	Enero	2023-01-26T00:00:00	2024-11-08T06:00:00	3	Temperatura mínima	16.2
103076	7	Sololá	713	San Lucas Tolimán	10	San Lucas Tolimán	1	Enero	2023-01-26T00:00:00	2024-11-08T06:00:00	5	Humedad	56
103077	7	Sololá	713	San Lucas Tolimán	10	San Lucas Tolimán	1	Enero	2023-01-26T00:00:00	2024-11-08T06:00:00	6	Velocidad del viento	4.8
103078	7	Sololá	713	San Lucas Tolimán	10	San Lucas Tolimán	1	Enero	2023-01-26T00:00:00	2024-11-08T06:00:00	7	Dirección del viento	4.83
103079	7	Sololá	713	San Lucas Tolimán	10	San Lucas Tolimán	1	Enero	2023-01-26T00:00:00	2024-11-08T06:00:00	1	Precipitación	0
103080	7	Sololá	713	San Lucas Tolimán	10	San Lucas Tolimán	1	Enero	2023-01-26T00:00:00	2024-11-08T06:00:00	8	Radiación solar	0
103081	7	Sololá	713	San Lucas Tolimán	10	San Lucas Tolimán	1	Enero	2023-01-26T00:00:00	2024-11-08T07:00:00	2	Temperatura media	16.5
103082	7	Sololá	713	San Lucas Tolimán	10	San Lucas Tolimán	1	Enero	2023-01-26T00:00:00	2024-11-08T07:00:00	4	Temperatura máxima	16.9
103083	7	Sololá	713	San Lucas Tolimán	10	San Lucas Tolimán	1	Enero	2023-01-26T00:00:00	2024-11-08T07:00:00	3	Temperatura mínima	16.2
103084	7	Sololá	713	San Lucas Tolimán	10	San Lucas Tolimán	1	Enero	2023-01-26T00:00:00	2024-11-08T07:00:00	5	Humedad	57
103085	7	Sololá	713	San Lucas Tolimán	10	San Lucas Tolimán	1	Enero	2023-01-26T00:00:00	2024-11-08T07:00:00	6	Velocidad del viento	4.8
103086	7	Sololá	713	San Lucas Tolimán	10	San Lucas Tolimán	1	Enero	2023-01-26T00:00:00	2024-11-08T07:00:00	7	Dirección del viento	4.83
103087	7	Sololá	713	San Lucas Tolimán	10	San Lucas Tolimán	1	Enero	2023-01-26T00:00:00	2024-11-08T07:00:00	1	Precipitación	0
103088	7	Sololá	713	San Lucas Tolimán	10	San Lucas Tolimán	1	Enero	2023-01-26T00:00:00	2024-11-08T07:00:00	8	Radiación solar	4
103089	7	Sololá	713	San Lucas Tolimán	10	San Lucas Tolimán	1	Enero	2023-01-26T00:00:00	2024-11-08T08:00:00	2	Temperatura media	17.7
103090	7	Sololá	713	San Lucas Tolimán	10	San Lucas Tolimán	1	Enero	2023-01-26T00:00:00	2024-11-08T08:00:00	4	Temperatura máxima	17.7
103091	7	Sololá	713	San Lucas Tolimán	10	San Lucas Tolimán	1	Enero	2023-01-26T00:00:00	2024-11-08T08:00:00	3	Temperatura mínima	16.4
103092	7	Sololá	713	San Lucas Tolimán	10	San Lucas Tolimán	1	Enero	2023-01-26T00:00:00	2024-11-08T08:00:00	5	Humedad	53
103093	7	Sololá	713	San Lucas Tolimán	10	San Lucas Tolimán	1	Enero	2023-01-26T00:00:00	2024-11-08T08:00:00	6	Velocidad del viento	6.4
103094	7	Sololá	713	San Lucas Tolimán	10	San Lucas Tolimán	1	Enero	2023-01-26T00:00:00	2024-11-08T08:00:00	7	Dirección del viento	6.44
103095	7	Sololá	713	San Lucas Tolimán	10	San Lucas Tolimán	1	Enero	2023-01-26T00:00:00	2024-11-08T08:00:00	1	Precipitación	0
103096	7	Sololá	713	San Lucas Tolimán	10	San Lucas Tolimán	1	Enero	2023-01-26T00:00:00	2024-11-08T08:00:00	8	Radiación solar	25
103097	7	Sololá	713	San Lucas Tolimán	10	San Lucas Tolimán	1	Enero	2023-01-26T00:00:00	2024-11-08T09:00:00	2	Temperatura media	20.5
103098	7	Sololá	713	San Lucas Tolimán	10	San Lucas Tolimán	1	Enero	2023-01-26T00:00:00	2024-11-08T09:00:00	4	Temperatura máxima	20.5
103099	7	Sololá	713	San Lucas Tolimán	10	San Lucas Tolimán	1	Enero	2023-01-26T00:00:00	2024-11-08T09:00:00	3	Temperatura mínima	17.7
103100	7	Sololá	713	San Lucas Tolimán	10	San Lucas Tolimán	1	Enero	2023-01-26T00:00:00	2024-11-08T09:00:00	5	Humedad	49
103101	7	Sololá	713	San Lucas Tolimán	10	San Lucas Tolimán	1	Enero	2023-01-26T00:00:00	2024-11-08T09:00:00	6	Velocidad del viento	11.3
103102	7	Sololá	713	San Lucas Tolimán	10	San Lucas Tolimán	1	Enero	2023-01-26T00:00:00	2024-11-08T09:00:00	7	Dirección del viento	11.27
103103	7	Sololá	713	San Lucas Tolimán	10	San Lucas Tolimán	1	Enero	2023-01-26T00:00:00	2024-11-08T09:00:00	1	Precipitación	0
103104	7	Sololá	713	San Lucas Tolimán	10	San Lucas Tolimán	1	Enero	2023-01-26T00:00:00	2024-11-08T09:00:00	8	Radiación solar	301
103105	7	Sololá	713	San Lucas Tolimán	10	San Lucas Tolimán	1	Enero	2023-01-26T00:00:00	2024-11-08T10:00:00	2	Temperatura media	22.4
103106	7	Sololá	713	San Lucas Tolimán	10	San Lucas Tolimán	1	Enero	2023-01-26T00:00:00	2024-11-08T10:00:00	4	Temperatura máxima	22.4
103107	7	Sololá	713	San Lucas Tolimán	10	San Lucas Tolimán	1	Enero	2023-01-26T00:00:00	2024-11-08T10:00:00	3	Temperatura mínima	20.5
103108	7	Sololá	713	San Lucas Tolimán	10	San Lucas Tolimán	1	Enero	2023-01-26T00:00:00	2024-11-08T10:00:00	5	Humedad	43
103109	7	Sololá	713	San Lucas Tolimán	10	San Lucas Tolimán	1	Enero	2023-01-26T00:00:00	2024-11-08T10:00:00	6	Velocidad del viento	11.3
103110	7	Sololá	713	San Lucas Tolimán	10	San Lucas Tolimán	1	Enero	2023-01-26T00:00:00	2024-11-08T10:00:00	7	Dirección del viento	11.27
103111	7	Sololá	713	San Lucas Tolimán	10	San Lucas Tolimán	1	Enero	2023-01-26T00:00:00	2024-11-08T10:00:00	1	Precipitación	0
103112	7	Sololá	713	San Lucas Tolimán	10	San Lucas Tolimán	1	Enero	2023-01-26T00:00:00	2024-11-08T10:00:00	8	Radiación solar	599
103113	7	Sololá	713	San Lucas Tolimán	10	San Lucas Tolimán	1	Enero	2023-01-26T00:00:00	2024-11-08T11:00:00	2	Temperatura media	23.6
103114	7	Sololá	713	San Lucas Tolimán	10	San Lucas Tolimán	1	Enero	2023-01-26T00:00:00	2024-11-08T11:00:00	4	Temperatura máxima	23.7
103115	7	Sololá	713	San Lucas Tolimán	10	San Lucas Tolimán	1	Enero	2023-01-26T00:00:00	2024-11-08T11:00:00	3	Temperatura mínima	22.2
103116	7	Sololá	713	San Lucas Tolimán	10	San Lucas Tolimán	1	Enero	2023-01-26T00:00:00	2024-11-08T11:00:00	5	Humedad	37
103117	7	Sololá	713	San Lucas Tolimán	10	San Lucas Tolimán	1	Enero	2023-01-26T00:00:00	2024-11-08T11:00:00	6	Velocidad del viento	9.7
103118	7	Sololá	713	San Lucas Tolimán	10	San Lucas Tolimán	1	Enero	2023-01-26T00:00:00	2024-11-08T11:00:00	7	Dirección del viento	9.66
103119	7	Sololá	713	San Lucas Tolimán	10	San Lucas Tolimán	1	Enero	2023-01-26T00:00:00	2024-11-08T11:00:00	1	Precipitación	0
103120	7	Sololá	713	San Lucas Tolimán	10	San Lucas Tolimán	1	Enero	2023-01-26T00:00:00	2024-11-08T11:00:00	8	Radiación solar	769
103121	7	Sololá	713	San Lucas Tolimán	10	San Lucas Tolimán	1	Enero	2023-01-26T00:00:00	2024-11-08T12:00:00	2	Temperatura media	24.4
103122	7	Sololá	713	San Lucas Tolimán	10	San Lucas Tolimán	1	Enero	2023-01-26T00:00:00	2024-11-08T12:00:00	4	Temperatura máxima	24.4
103123	7	Sololá	713	San Lucas Tolimán	10	San Lucas Tolimán	1	Enero	2023-01-26T00:00:00	2024-11-08T12:00:00	3	Temperatura mínima	23.4
103124	7	Sololá	713	San Lucas Tolimán	10	San Lucas Tolimán	1	Enero	2023-01-26T00:00:00	2024-11-08T12:00:00	5	Humedad	45
103125	7	Sololá	713	San Lucas Tolimán	10	San Lucas Tolimán	1	Enero	2023-01-26T00:00:00	2024-11-08T12:00:00	6	Velocidad del viento	8
103126	7	Sololá	713	San Lucas Tolimán	10	San Lucas Tolimán	1	Enero	2023-01-26T00:00:00	2024-11-08T12:00:00	7	Dirección del viento	8.05
103127	7	Sololá	713	San Lucas Tolimán	10	San Lucas Tolimán	1	Enero	2023-01-26T00:00:00	2024-11-08T12:00:00	1	Precipitación	0
103128	7	Sololá	713	San Lucas Tolimán	10	San Lucas Tolimán	1	Enero	2023-01-26T00:00:00	2024-11-08T12:00:00	8	Radiación solar	884
103129	7	Sololá	713	San Lucas Tolimán	10	San Lucas Tolimán	1	Enero	2023-01-26T00:00:00	2024-11-08T13:00:00	2	Temperatura media	24.7
103130	7	Sololá	713	San Lucas Tolimán	10	San Lucas Tolimán	1	Enero	2023-01-26T00:00:00	2024-11-08T13:00:00	4	Temperatura máxima	24.8
103131	7	Sololá	713	San Lucas Tolimán	10	San Lucas Tolimán	1	Enero	2023-01-26T00:00:00	2024-11-08T13:00:00	3	Temperatura mínima	23.8
103132	7	Sololá	713	San Lucas Tolimán	10	San Lucas Tolimán	1	Enero	2023-01-26T00:00:00	2024-11-08T13:00:00	5	Humedad	45
103133	7	Sololá	713	San Lucas Tolimán	10	San Lucas Tolimán	1	Enero	2023-01-26T00:00:00	2024-11-08T13:00:00	6	Velocidad del viento	8
103134	7	Sololá	713	San Lucas Tolimán	10	San Lucas Tolimán	1	Enero	2023-01-26T00:00:00	2024-11-08T13:00:00	7	Dirección del viento	8.05
103135	7	Sololá	713	San Lucas Tolimán	10	San Lucas Tolimán	1	Enero	2023-01-26T00:00:00	2024-11-08T13:00:00	1	Precipitación	0
103136	7	Sololá	713	San Lucas Tolimán	10	San Lucas Tolimán	1	Enero	2023-01-26T00:00:00	2024-11-08T13:00:00	8	Radiación solar	949
103137	7	Sololá	713	San Lucas Tolimán	10	San Lucas Tolimán	1	Enero	2023-01-26T00:00:00	2024-11-08T14:00:00	2	Temperatura media	24.7
103138	7	Sololá	713	San Lucas Tolimán	10	San Lucas Tolimán	1	Enero	2023-01-26T00:00:00	2024-11-08T14:00:00	4	Temperatura máxima	25.2
103139	7	Sololá	713	San Lucas Tolimán	10	San Lucas Tolimán	1	Enero	2023-01-26T00:00:00	2024-11-08T14:00:00	3	Temperatura mínima	24.2
103140	7	Sololá	713	San Lucas Tolimán	10	San Lucas Tolimán	1	Enero	2023-01-26T00:00:00	2024-11-08T14:00:00	5	Humedad	33
103141	7	Sololá	713	San Lucas Tolimán	10	San Lucas Tolimán	1	Enero	2023-01-26T00:00:00	2024-11-08T14:00:00	6	Velocidad del viento	9.7
103142	7	Sololá	713	San Lucas Tolimán	10	San Lucas Tolimán	1	Enero	2023-01-26T00:00:00	2024-11-08T14:00:00	7	Dirección del viento	9.66
103143	7	Sololá	713	San Lucas Tolimán	10	San Lucas Tolimán	1	Enero	2023-01-26T00:00:00	2024-11-08T14:00:00	1	Precipitación	0
103144	7	Sololá	713	San Lucas Tolimán	10	San Lucas Tolimán	1	Enero	2023-01-26T00:00:00	2024-11-08T14:00:00	8	Radiación solar	836
103145	7	Sololá	713	San Lucas Tolimán	10	San Lucas Tolimán	1	Enero	2023-01-26T00:00:00	2024-11-08T15:00:00	2	Temperatura media	23.9
103146	7	Sololá	713	San Lucas Tolimán	10	San Lucas Tolimán	1	Enero	2023-01-26T00:00:00	2024-11-08T15:00:00	4	Temperatura máxima	24.7
103147	7	Sololá	713	San Lucas Tolimán	10	San Lucas Tolimán	1	Enero	2023-01-26T00:00:00	2024-11-08T15:00:00	3	Temperatura mínima	22.8
103148	7	Sololá	713	San Lucas Tolimán	10	San Lucas Tolimán	1	Enero	2023-01-26T00:00:00	2024-11-08T15:00:00	5	Humedad	48
103149	7	Sololá	713	San Lucas Tolimán	10	San Lucas Tolimán	1	Enero	2023-01-26T00:00:00	2024-11-08T15:00:00	6	Velocidad del viento	8
103150	7	Sololá	713	San Lucas Tolimán	10	San Lucas Tolimán	1	Enero	2023-01-26T00:00:00	2024-11-08T15:00:00	7	Dirección del viento	8.05
103151	7	Sololá	713	San Lucas Tolimán	10	San Lucas Tolimán	1	Enero	2023-01-26T00:00:00	2024-11-08T15:00:00	1	Precipitación	0
103152	7	Sololá	713	San Lucas Tolimán	10	San Lucas Tolimán	1	Enero	2023-01-26T00:00:00	2024-11-08T15:00:00	8	Radiación solar	447
103153	7	Sololá	713	San Lucas Tolimán	10	San Lucas Tolimán	1	Enero	2023-01-26T00:00:00	2024-11-08T16:00:00	2	Temperatura media	22.1
103154	7	Sololá	713	San Lucas Tolimán	10	San Lucas Tolimán	1	Enero	2023-01-26T00:00:00	2024-11-08T16:00:00	4	Temperatura máxima	24.1
103155	7	Sololá	713	San Lucas Tolimán	10	San Lucas Tolimán	1	Enero	2023-01-26T00:00:00	2024-11-08T16:00:00	3	Temperatura mínima	22.1
103156	7	Sololá	713	San Lucas Tolimán	10	San Lucas Tolimán	1	Enero	2023-01-26T00:00:00	2024-11-08T16:00:00	5	Humedad	39
103157	7	Sololá	713	San Lucas Tolimán	10	San Lucas Tolimán	1	Enero	2023-01-26T00:00:00	2024-11-08T16:00:00	6	Velocidad del viento	12.9
103158	7	Sololá	713	San Lucas Tolimán	10	San Lucas Tolimán	1	Enero	2023-01-26T00:00:00	2024-11-08T16:00:00	7	Dirección del viento	12.87
103159	7	Sololá	713	San Lucas Tolimán	10	San Lucas Tolimán	1	Enero	2023-01-26T00:00:00	2024-11-08T16:00:00	1	Precipitación	0
103160	7	Sololá	713	San Lucas Tolimán	10	San Lucas Tolimán	1	Enero	2023-01-26T00:00:00	2024-11-08T16:00:00	8	Radiación solar	163
103161	7	Sololá	713	San Lucas Tolimán	10	San Lucas Tolimán	1	Enero	2023-01-26T00:00:00	2024-11-08T17:00:00	2	Temperatura media	21.2
103162	7	Sololá	713	San Lucas Tolimán	10	San Lucas Tolimán	1	Enero	2023-01-26T00:00:00	2024-11-08T17:00:00	4	Temperatura máxima	22.2
103163	7	Sololá	713	San Lucas Tolimán	10	San Lucas Tolimán	1	Enero	2023-01-26T00:00:00	2024-11-08T17:00:00	3	Temperatura mínima	21.2
103164	7	Sololá	713	San Lucas Tolimán	10	San Lucas Tolimán	1	Enero	2023-01-26T00:00:00	2024-11-08T17:00:00	5	Humedad	41
103165	7	Sololá	713	San Lucas Tolimán	10	San Lucas Tolimán	1	Enero	2023-01-26T00:00:00	2024-11-08T17:00:00	6	Velocidad del viento	17.7
103166	7	Sololá	713	San Lucas Tolimán	10	San Lucas Tolimán	1	Enero	2023-01-26T00:00:00	2024-11-08T17:00:00	7	Dirección del viento	17.7
103167	7	Sololá	713	San Lucas Tolimán	10	San Lucas Tolimán	1	Enero	2023-01-26T00:00:00	2024-11-08T17:00:00	1	Precipitación	0
103168	7	Sololá	713	San Lucas Tolimán	10	San Lucas Tolimán	1	Enero	2023-01-26T00:00:00	2024-11-08T17:00:00	8	Radiación solar	63
103169	7	Sololá	713	San Lucas Tolimán	10	San Lucas Tolimán	1	Enero	2023-01-26T00:00:00	2024-11-08T18:00:00	2	Temperatura media	20.2
103170	7	Sololá	713	San Lucas Tolimán	10	San Lucas Tolimán	1	Enero	2023-01-26T00:00:00	2024-11-08T18:00:00	4	Temperatura máxima	21.3
103171	7	Sololá	713	San Lucas Tolimán	10	San Lucas Tolimán	1	Enero	2023-01-26T00:00:00	2024-11-08T18:00:00	3	Temperatura mínima	20.2
103172	7	Sololá	713	San Lucas Tolimán	10	San Lucas Tolimán	1	Enero	2023-01-26T00:00:00	2024-11-08T18:00:00	5	Humedad	42
103173	7	Sololá	713	San Lucas Tolimán	10	San Lucas Tolimán	1	Enero	2023-01-26T00:00:00	2024-11-08T18:00:00	6	Velocidad del viento	17.7
103174	7	Sololá	713	San Lucas Tolimán	10	San Lucas Tolimán	1	Enero	2023-01-26T00:00:00	2024-11-08T18:00:00	7	Dirección del viento	17.7
103175	7	Sololá	713	San Lucas Tolimán	10	San Lucas Tolimán	1	Enero	2023-01-26T00:00:00	2024-11-08T18:00:00	1	Precipitación	0
103176	7	Sololá	713	San Lucas Tolimán	10	San Lucas Tolimán	1	Enero	2023-01-26T00:00:00	2024-11-08T18:00:00	8	Radiación solar	27
103177	7	Sololá	713	San Lucas Tolimán	10	San Lucas Tolimán	1	Enero	2023-01-26T00:00:00	2024-11-08T19:00:00	2	Temperatura media	19.3
103178	7	Sololá	713	San Lucas Tolimán	10	San Lucas Tolimán	1	Enero	2023-01-26T00:00:00	2024-11-08T19:00:00	4	Temperatura máxima	20.2
103179	7	Sololá	713	San Lucas Tolimán	10	San Lucas Tolimán	1	Enero	2023-01-26T00:00:00	2024-11-08T19:00:00	3	Temperatura mínima	19.2
103180	7	Sololá	713	San Lucas Tolimán	10	San Lucas Tolimán	1	Enero	2023-01-26T00:00:00	2024-11-08T19:00:00	5	Humedad	45
103181	7	Sololá	713	San Lucas Tolimán	10	San Lucas Tolimán	1	Enero	2023-01-26T00:00:00	2024-11-08T19:00:00	6	Velocidad del viento	8
103182	7	Sololá	713	San Lucas Tolimán	10	San Lucas Tolimán	1	Enero	2023-01-26T00:00:00	2024-11-08T19:00:00	7	Dirección del viento	8.05
103183	7	Sololá	713	San Lucas Tolimán	10	San Lucas Tolimán	1	Enero	2023-01-26T00:00:00	2024-11-08T19:00:00	1	Precipitación	0
103184	7	Sololá	713	San Lucas Tolimán	10	San Lucas Tolimán	1	Enero	2023-01-26T00:00:00	2024-11-08T19:00:00	8	Radiación solar	0
103185	7	Sololá	713	San Lucas Tolimán	10	San Lucas Tolimán	1	Enero	2023-01-26T00:00:00	2024-11-08T20:00:00	2	Temperatura media	18.6
103186	7	Sololá	713	San Lucas Tolimán	10	San Lucas Tolimán	1	Enero	2023-01-26T00:00:00	2024-11-08T20:00:00	4	Temperatura máxima	19.3
103187	7	Sololá	713	San Lucas Tolimán	10	San Lucas Tolimán	1	Enero	2023-01-26T00:00:00	2024-11-08T20:00:00	3	Temperatura mínima	18.6
103188	7	Sololá	713	San Lucas Tolimán	10	San Lucas Tolimán	1	Enero	2023-01-26T00:00:00	2024-11-08T20:00:00	5	Humedad	48
103189	7	Sololá	713	San Lucas Tolimán	10	San Lucas Tolimán	1	Enero	2023-01-26T00:00:00	2024-11-08T20:00:00	6	Velocidad del viento	6.4
103190	7	Sololá	713	San Lucas Tolimán	10	San Lucas Tolimán	1	Enero	2023-01-26T00:00:00	2024-11-08T20:00:00	7	Dirección del viento	6.44
103191	7	Sololá	713	San Lucas Tolimán	10	San Lucas Tolimán	1	Enero	2023-01-26T00:00:00	2024-11-08T20:00:00	1	Precipitación	0
103192	7	Sololá	713	San Lucas Tolimán	10	San Lucas Tolimán	1	Enero	2023-01-26T00:00:00	2024-11-08T20:00:00	8	Radiación solar	0
103193	7	Sololá	713	San Lucas Tolimán	10	San Lucas Tolimán	1	Enero	2023-01-26T00:00:00	2024-11-08T21:00:00	2	Temperatura media	18.1
103194	7	Sololá	713	San Lucas Tolimán	10	San Lucas Tolimán	1	Enero	2023-01-26T00:00:00	2024-11-08T21:00:00	4	Temperatura máxima	18.6
103195	7	Sololá	713	San Lucas Tolimán	10	San Lucas Tolimán	1	Enero	2023-01-26T00:00:00	2024-11-08T21:00:00	3	Temperatura mínima	18.1
103196	7	Sololá	713	San Lucas Tolimán	10	San Lucas Tolimán	1	Enero	2023-01-26T00:00:00	2024-11-08T21:00:00	5	Humedad	49
103197	7	Sololá	713	San Lucas Tolimán	10	San Lucas Tolimán	1	Enero	2023-01-26T00:00:00	2024-11-08T21:00:00	6	Velocidad del viento	3.2
103198	7	Sololá	713	San Lucas Tolimán	10	San Lucas Tolimán	1	Enero	2023-01-26T00:00:00	2024-11-08T21:00:00	7	Dirección del viento	3.22
103199	7	Sololá	713	San Lucas Tolimán	10	San Lucas Tolimán	1	Enero	2023-01-26T00:00:00	2024-11-08T21:00:00	1	Precipitación	0
103200	7	Sololá	713	San Lucas Tolimán	10	San Lucas Tolimán	1	Enero	2023-01-26T00:00:00	2024-11-08T21:00:00	8	Radiación solar	0
103201	7	Sololá	713	San Lucas Tolimán	10	San Lucas Tolimán	1	Enero	2023-01-26T00:00:00	2024-11-08T22:00:00	2	Temperatura media	17.8
103202	7	Sololá	713	San Lucas Tolimán	10	San Lucas Tolimán	1	Enero	2023-01-26T00:00:00	2024-11-08T22:00:00	4	Temperatura máxima	18.1
103203	7	Sololá	713	San Lucas Tolimán	10	San Lucas Tolimán	1	Enero	2023-01-26T00:00:00	2024-11-08T22:00:00	3	Temperatura mínima	17.4
103204	7	Sololá	713	San Lucas Tolimán	10	San Lucas Tolimán	1	Enero	2023-01-26T00:00:00	2024-11-08T22:00:00	5	Humedad	50
103205	7	Sololá	713	San Lucas Tolimán	10	San Lucas Tolimán	1	Enero	2023-01-26T00:00:00	2024-11-08T22:00:00	6	Velocidad del viento	4.8
103206	7	Sololá	713	San Lucas Tolimán	10	San Lucas Tolimán	1	Enero	2023-01-26T00:00:00	2024-11-08T22:00:00	7	Dirección del viento	4.83
103207	7	Sololá	713	San Lucas Tolimán	10	San Lucas Tolimán	1	Enero	2023-01-26T00:00:00	2024-11-08T22:00:00	1	Precipitación	0
103208	7	Sololá	713	San Lucas Tolimán	10	San Lucas Tolimán	1	Enero	2023-01-26T00:00:00	2024-11-08T22:00:00	8	Radiación solar	0
103209	7	Sololá	713	San Lucas Tolimán	10	San Lucas Tolimán	1	Enero	2023-01-26T00:00:00	2024-11-08T23:00:00	2	Temperatura media	17.3
103210	7	Sololá	713	San Lucas Tolimán	10	San Lucas Tolimán	1	Enero	2023-01-26T00:00:00	2024-11-08T23:00:00	4	Temperatura máxima	17.9
103211	7	Sololá	713	San Lucas Tolimán	10	San Lucas Tolimán	1	Enero	2023-01-26T00:00:00	2024-11-08T23:00:00	3	Temperatura mínima	17.3
103212	7	Sololá	713	San Lucas Tolimán	10	San Lucas Tolimán	1	Enero	2023-01-26T00:00:00	2024-11-08T23:00:00	5	Humedad	52
103213	7	Sololá	713	San Lucas Tolimán	10	San Lucas Tolimán	1	Enero	2023-01-26T00:00:00	2024-11-08T23:00:00	6	Velocidad del viento	4.8
103214	7	Sololá	713	San Lucas Tolimán	10	San Lucas Tolimán	1	Enero	2023-01-26T00:00:00	2024-11-08T23:00:00	7	Dirección del viento	4.83
103215	7	Sololá	713	San Lucas Tolimán	10	San Lucas Tolimán	1	Enero	2023-01-26T00:00:00	2024-11-08T23:00:00	1	Precipitación	0
103216	7	Sololá	713	San Lucas Tolimán	10	San Lucas Tolimán	1	Enero	2023-01-26T00:00:00	2024-11-08T23:00:00	8	Radiación solar	0
103217	7	Sololá	713	San Lucas Tolimán	10	San Lucas Tolimán	1	Enero	2023-01-27T00:00:00	2024-11-08T00:00:00	2	Temperatura media	18
103218	7	Sololá	713	San Lucas Tolimán	10	San Lucas Tolimán	1	Enero	2023-01-27T00:00:00	2024-11-08T00:00:00	4	Temperatura máxima	18
103219	7	Sololá	713	San Lucas Tolimán	10	San Lucas Tolimán	1	Enero	2023-01-27T00:00:00	2024-11-08T00:00:00	3	Temperatura mínima	17.2
103220	7	Sololá	713	San Lucas Tolimán	10	San Lucas Tolimán	1	Enero	2023-01-27T00:00:00	2024-11-08T00:00:00	5	Humedad	51
103221	7	Sololá	713	San Lucas Tolimán	10	San Lucas Tolimán	1	Enero	2023-01-27T00:00:00	2024-11-08T00:00:00	6	Velocidad del viento	4.8
103222	7	Sololá	713	San Lucas Tolimán	10	San Lucas Tolimán	1	Enero	2023-01-27T00:00:00	2024-11-08T00:00:00	7	Dirección del viento	4.83
103223	7	Sololá	713	San Lucas Tolimán	10	San Lucas Tolimán	1	Enero	2023-01-27T00:00:00	2024-11-08T00:00:00	1	Precipitación	0
103224	7	Sololá	713	San Lucas Tolimán	10	San Lucas Tolimán	1	Enero	2023-01-27T00:00:00	2024-11-08T00:00:00	8	Radiación solar	0
103225	7	Sololá	713	San Lucas Tolimán	10	San Lucas Tolimán	1	Enero	2023-01-27T00:00:00	2024-11-08T01:00:00	2	Temperatura media	17.8
103226	7	Sololá	713	San Lucas Tolimán	10	San Lucas Tolimán	1	Enero	2023-01-27T00:00:00	2024-11-08T01:00:00	4	Temperatura máxima	18.3
103227	7	Sololá	713	San Lucas Tolimán	10	San Lucas Tolimán	1	Enero	2023-01-27T00:00:00	2024-11-08T01:00:00	3	Temperatura mínima	17.8
103228	7	Sololá	713	San Lucas Tolimán	10	San Lucas Tolimán	1	Enero	2023-01-27T00:00:00	2024-11-08T01:00:00	5	Humedad	52
103229	7	Sololá	713	San Lucas Tolimán	10	San Lucas Tolimán	1	Enero	2023-01-27T00:00:00	2024-11-08T01:00:00	6	Velocidad del viento	11.3
103230	7	Sololá	713	San Lucas Tolimán	10	San Lucas Tolimán	1	Enero	2023-01-27T00:00:00	2024-11-08T01:00:00	7	Dirección del viento	11.27
103231	7	Sololá	713	San Lucas Tolimán	10	San Lucas Tolimán	1	Enero	2023-01-27T00:00:00	2024-11-08T01:00:00	1	Precipitación	0
103232	7	Sololá	713	San Lucas Tolimán	10	San Lucas Tolimán	1	Enero	2023-01-27T00:00:00	2024-11-08T01:00:00	8	Radiación solar	0
103233	7	Sololá	713	San Lucas Tolimán	10	San Lucas Tolimán	1	Enero	2023-01-27T00:00:00	2024-11-08T02:00:00	2	Temperatura media	18.2
103234	7	Sololá	713	San Lucas Tolimán	10	San Lucas Tolimán	1	Enero	2023-01-27T00:00:00	2024-11-08T02:00:00	4	Temperatura máxima	18.2
103235	7	Sololá	713	San Lucas Tolimán	10	San Lucas Tolimán	1	Enero	2023-01-27T00:00:00	2024-11-08T02:00:00	3	Temperatura mínima	17.8
103236	7	Sololá	713	San Lucas Tolimán	10	San Lucas Tolimán	1	Enero	2023-01-27T00:00:00	2024-11-08T02:00:00	5	Humedad	52
103237	7	Sololá	713	San Lucas Tolimán	10	San Lucas Tolimán	1	Enero	2023-01-27T00:00:00	2024-11-08T02:00:00	6	Velocidad del viento	6.4
103238	7	Sololá	713	San Lucas Tolimán	10	San Lucas Tolimán	1	Enero	2023-01-27T00:00:00	2024-11-08T02:00:00	7	Dirección del viento	6.44
103239	7	Sololá	713	San Lucas Tolimán	10	San Lucas Tolimán	1	Enero	2023-01-27T00:00:00	2024-11-08T02:00:00	1	Precipitación	0
103240	7	Sololá	713	San Lucas Tolimán	10	San Lucas Tolimán	1	Enero	2023-01-27T00:00:00	2024-11-08T02:00:00	8	Radiación solar	0
103241	7	Sololá	713	San Lucas Tolimán	10	San Lucas Tolimán	1	Enero	2023-01-27T00:00:00	2024-11-08T03:00:00	2	Temperatura media	17.9
103242	7	Sololá	713	San Lucas Tolimán	10	San Lucas Tolimán	1	Enero	2023-01-27T00:00:00	2024-11-08T03:00:00	4	Temperatura máxima	18.3
103243	7	Sololá	713	San Lucas Tolimán	10	San Lucas Tolimán	1	Enero	2023-01-27T00:00:00	2024-11-08T03:00:00	3	Temperatura mínima	17.8
103244	7	Sololá	713	San Lucas Tolimán	10	San Lucas Tolimán	1	Enero	2023-01-27T00:00:00	2024-11-08T03:00:00	5	Humedad	55
103245	7	Sololá	713	San Lucas Tolimán	10	San Lucas Tolimán	1	Enero	2023-01-27T00:00:00	2024-11-08T03:00:00	6	Velocidad del viento	9.7
103246	7	Sololá	713	San Lucas Tolimán	10	San Lucas Tolimán	1	Enero	2023-01-27T00:00:00	2024-11-08T03:00:00	7	Dirección del viento	9.66
103247	7	Sololá	713	San Lucas Tolimán	10	San Lucas Tolimán	1	Enero	2023-01-27T00:00:00	2024-11-08T03:00:00	1	Precipitación	0
103248	7	Sololá	713	San Lucas Tolimán	10	San Lucas Tolimán	1	Enero	2023-01-27T00:00:00	2024-11-08T03:00:00	8	Radiación solar	0
103249	7	Sololá	713	San Lucas Tolimán	10	San Lucas Tolimán	1	Enero	2023-01-27T00:00:00	2024-11-08T04:00:00	2	Temperatura media	18.2
103250	7	Sololá	713	San Lucas Tolimán	10	San Lucas Tolimán	1	Enero	2023-01-27T00:00:00	2024-11-08T04:00:00	4	Temperatura máxima	18.3
103251	7	Sololá	713	San Lucas Tolimán	10	San Lucas Tolimán	1	Enero	2023-01-27T00:00:00	2024-11-08T04:00:00	3	Temperatura mínima	17.9
103252	7	Sololá	713	San Lucas Tolimán	10	San Lucas Tolimán	1	Enero	2023-01-27T00:00:00	2024-11-08T04:00:00	5	Humedad	53
103253	7	Sololá	713	San Lucas Tolimán	10	San Lucas Tolimán	1	Enero	2023-01-27T00:00:00	2024-11-08T04:00:00	6	Velocidad del viento	11.3
103254	7	Sololá	713	San Lucas Tolimán	10	San Lucas Tolimán	1	Enero	2023-01-27T00:00:00	2024-11-08T04:00:00	7	Dirección del viento	11.27
103255	7	Sololá	713	San Lucas Tolimán	10	San Lucas Tolimán	1	Enero	2023-01-27T00:00:00	2024-11-08T04:00:00	1	Precipitación	0
103256	7	Sololá	713	San Lucas Tolimán	10	San Lucas Tolimán	1	Enero	2023-01-27T00:00:00	2024-11-08T04:00:00	8	Radiación solar	0
103257	7	Sololá	713	San Lucas Tolimán	10	San Lucas Tolimán	1	Enero	2023-01-27T00:00:00	2024-11-08T05:00:00	2	Temperatura media	17.8
103258	7	Sololá	713	San Lucas Tolimán	10	San Lucas Tolimán	1	Enero	2023-01-27T00:00:00	2024-11-08T05:00:00	4	Temperatura máxima	18.3
103259	7	Sololá	713	San Lucas Tolimán	10	San Lucas Tolimán	1	Enero	2023-01-27T00:00:00	2024-11-08T05:00:00	3	Temperatura mínima	17.8
103260	7	Sololá	713	San Lucas Tolimán	10	San Lucas Tolimán	1	Enero	2023-01-27T00:00:00	2024-11-08T05:00:00	5	Humedad	54
103261	7	Sololá	713	San Lucas Tolimán	10	San Lucas Tolimán	1	Enero	2023-01-27T00:00:00	2024-11-08T05:00:00	6	Velocidad del viento	8
103262	7	Sololá	713	San Lucas Tolimán	10	San Lucas Tolimán	1	Enero	2023-01-27T00:00:00	2024-11-08T05:00:00	7	Dirección del viento	8.05
103263	7	Sololá	713	San Lucas Tolimán	10	San Lucas Tolimán	1	Enero	2023-01-27T00:00:00	2024-11-08T05:00:00	1	Precipitación	0
103264	7	Sololá	713	San Lucas Tolimán	10	San Lucas Tolimán	1	Enero	2023-01-27T00:00:00	2024-11-08T05:00:00	8	Radiación solar	0
103265	7	Sololá	713	San Lucas Tolimán	10	San Lucas Tolimán	1	Enero	2023-01-27T00:00:00	2024-11-08T06:00:00	2	Temperatura media	17.8
103266	7	Sololá	713	San Lucas Tolimán	10	San Lucas Tolimán	1	Enero	2023-01-27T00:00:00	2024-11-08T06:00:00	4	Temperatura máxima	18.1
103267	7	Sololá	713	San Lucas Tolimán	10	San Lucas Tolimán	1	Enero	2023-01-27T00:00:00	2024-11-08T06:00:00	3	Temperatura mínima	17.7
103268	7	Sololá	713	San Lucas Tolimán	10	San Lucas Tolimán	1	Enero	2023-01-27T00:00:00	2024-11-08T06:00:00	5	Humedad	54
103269	7	Sololá	713	San Lucas Tolimán	10	San Lucas Tolimán	1	Enero	2023-01-27T00:00:00	2024-11-08T06:00:00	6	Velocidad del viento	8
103270	7	Sololá	713	San Lucas Tolimán	10	San Lucas Tolimán	1	Enero	2023-01-27T00:00:00	2024-11-08T06:00:00	7	Dirección del viento	8.05
103271	7	Sololá	713	San Lucas Tolimán	10	San Lucas Tolimán	1	Enero	2023-01-27T00:00:00	2024-11-08T06:00:00	1	Precipitación	0
103272	7	Sololá	713	San Lucas Tolimán	10	San Lucas Tolimán	1	Enero	2023-01-27T00:00:00	2024-11-08T06:00:00	8	Radiación solar	0
103273	7	Sololá	713	San Lucas Tolimán	10	San Lucas Tolimán	1	Enero	2023-01-27T00:00:00	2024-11-08T07:00:00	2	Temperatura media	18.3
103274	7	Sololá	713	San Lucas Tolimán	10	San Lucas Tolimán	1	Enero	2023-01-27T00:00:00	2024-11-08T07:00:00	4	Temperatura máxima	18.3
103275	7	Sololá	713	San Lucas Tolimán	10	San Lucas Tolimán	1	Enero	2023-01-27T00:00:00	2024-11-08T07:00:00	3	Temperatura mínima	17.4
103276	7	Sololá	713	San Lucas Tolimán	10	San Lucas Tolimán	1	Enero	2023-01-27T00:00:00	2024-11-08T07:00:00	5	Humedad	51
103277	7	Sololá	713	San Lucas Tolimán	10	San Lucas Tolimán	1	Enero	2023-01-27T00:00:00	2024-11-08T07:00:00	6	Velocidad del viento	6.4
103278	7	Sololá	713	San Lucas Tolimán	10	San Lucas Tolimán	1	Enero	2023-01-27T00:00:00	2024-11-08T07:00:00	7	Dirección del viento	6.44
103279	7	Sololá	713	San Lucas Tolimán	10	San Lucas Tolimán	1	Enero	2023-01-27T00:00:00	2024-11-08T07:00:00	1	Precipitación	0
103280	7	Sololá	713	San Lucas Tolimán	10	San Lucas Tolimán	1	Enero	2023-01-27T00:00:00	2024-11-08T07:00:00	8	Radiación solar	4
103281	7	Sololá	713	San Lucas Tolimán	10	San Lucas Tolimán	1	Enero	2023-01-27T00:00:00	2024-11-08T08:00:00	2	Temperatura media	18.1
103282	7	Sololá	713	San Lucas Tolimán	10	San Lucas Tolimán	1	Enero	2023-01-27T00:00:00	2024-11-08T08:00:00	4	Temperatura máxima	18.5
103283	7	Sololá	713	San Lucas Tolimán	10	San Lucas Tolimán	1	Enero	2023-01-27T00:00:00	2024-11-08T08:00:00	3	Temperatura mínima	18
103284	7	Sololá	713	San Lucas Tolimán	10	San Lucas Tolimán	1	Enero	2023-01-27T00:00:00	2024-11-08T08:00:00	5	Humedad	53
103285	7	Sololá	713	San Lucas Tolimán	10	San Lucas Tolimán	1	Enero	2023-01-27T00:00:00	2024-11-08T08:00:00	6	Velocidad del viento	8
103286	7	Sololá	713	San Lucas Tolimán	10	San Lucas Tolimán	1	Enero	2023-01-27T00:00:00	2024-11-08T08:00:00	7	Dirección del viento	8.05
103287	7	Sololá	713	San Lucas Tolimán	10	San Lucas Tolimán	1	Enero	2023-01-27T00:00:00	2024-11-08T08:00:00	1	Precipitación	0
103288	7	Sololá	713	San Lucas Tolimán	10	San Lucas Tolimán	1	Enero	2023-01-27T00:00:00	2024-11-08T08:00:00	8	Radiación solar	42
103289	7	Sololá	713	San Lucas Tolimán	10	San Lucas Tolimán	1	Enero	2023-01-27T00:00:00	2024-11-08T09:00:00	2	Temperatura media	20.8
103290	7	Sololá	713	San Lucas Tolimán	10	San Lucas Tolimán	1	Enero	2023-01-27T00:00:00	2024-11-08T09:00:00	4	Temperatura máxima	20.8
103291	7	Sololá	713	San Lucas Tolimán	10	San Lucas Tolimán	1	Enero	2023-01-27T00:00:00	2024-11-08T09:00:00	3	Temperatura mínima	18.1
103292	7	Sololá	713	San Lucas Tolimán	10	San Lucas Tolimán	1	Enero	2023-01-27T00:00:00	2024-11-08T09:00:00	5	Humedad	47
103293	7	Sololá	713	San Lucas Tolimán	10	San Lucas Tolimán	1	Enero	2023-01-27T00:00:00	2024-11-08T09:00:00	6	Velocidad del viento	9.7
103294	7	Sololá	713	San Lucas Tolimán	10	San Lucas Tolimán	1	Enero	2023-01-27T00:00:00	2024-11-08T09:00:00	7	Dirección del viento	9.66
103295	7	Sololá	713	San Lucas Tolimán	10	San Lucas Tolimán	1	Enero	2023-01-27T00:00:00	2024-11-08T09:00:00	1	Precipitación	0
103296	7	Sololá	713	San Lucas Tolimán	10	San Lucas Tolimán	1	Enero	2023-01-27T00:00:00	2024-11-08T09:00:00	8	Radiación solar	335
103297	7	Sololá	713	San Lucas Tolimán	10	San Lucas Tolimán	1	Enero	2023-01-27T00:00:00	2024-11-08T10:00:00	2	Temperatura media	20.3
103298	7	Sololá	713	San Lucas Tolimán	10	San Lucas Tolimán	1	Enero	2023-01-27T00:00:00	2024-11-08T10:00:00	4	Temperatura máxima	20.8
103299	7	Sololá	713	San Lucas Tolimán	10	San Lucas Tolimán	1	Enero	2023-01-27T00:00:00	2024-11-08T10:00:00	3	Temperatura mínima	20.1
103300	7	Sololá	713	San Lucas Tolimán	10	San Lucas Tolimán	1	Enero	2023-01-27T00:00:00	2024-11-08T10:00:00	5	Humedad	49
103301	7	Sololá	713	San Lucas Tolimán	10	San Lucas Tolimán	1	Enero	2023-01-27T00:00:00	2024-11-08T10:00:00	6	Velocidad del viento	11.3
103302	7	Sololá	713	San Lucas Tolimán	10	San Lucas Tolimán	1	Enero	2023-01-27T00:00:00	2024-11-08T10:00:00	7	Dirección del viento	11.27
103303	7	Sololá	713	San Lucas Tolimán	10	San Lucas Tolimán	1	Enero	2023-01-27T00:00:00	2024-11-08T10:00:00	1	Precipitación	0
103304	7	Sololá	713	San Lucas Tolimán	10	San Lucas Tolimán	1	Enero	2023-01-27T00:00:00	2024-11-08T10:00:00	8	Radiación solar	252
103305	7	Sololá	713	San Lucas Tolimán	10	San Lucas Tolimán	1	Enero	2023-01-27T00:00:00	2024-11-08T11:00:00	2	Temperatura media	22.2
103306	7	Sololá	713	San Lucas Tolimán	10	San Lucas Tolimán	1	Enero	2023-01-27T00:00:00	2024-11-08T11:00:00	4	Temperatura máxima	22.3
103307	7	Sololá	713	San Lucas Tolimán	10	San Lucas Tolimán	1	Enero	2023-01-27T00:00:00	2024-11-08T11:00:00	3	Temperatura mínima	20.2
103308	7	Sololá	713	San Lucas Tolimán	10	San Lucas Tolimán	1	Enero	2023-01-27T00:00:00	2024-11-08T11:00:00	5	Humedad	44
103309	7	Sololá	713	San Lucas Tolimán	10	San Lucas Tolimán	1	Enero	2023-01-27T00:00:00	2024-11-08T11:00:00	6	Velocidad del viento	14.5
103310	7	Sololá	713	San Lucas Tolimán	10	San Lucas Tolimán	1	Enero	2023-01-27T00:00:00	2024-11-08T11:00:00	7	Dirección del viento	14.48
103311	7	Sololá	713	San Lucas Tolimán	10	San Lucas Tolimán	1	Enero	2023-01-27T00:00:00	2024-11-08T11:00:00	1	Precipitación	0
103312	7	Sololá	713	San Lucas Tolimán	10	San Lucas Tolimán	1	Enero	2023-01-27T00:00:00	2024-11-08T11:00:00	8	Radiación solar	690
103313	7	Sololá	713	San Lucas Tolimán	10	San Lucas Tolimán	1	Enero	2023-01-27T00:00:00	2024-11-08T12:00:00	2	Temperatura media	22.3
103314	7	Sololá	713	San Lucas Tolimán	10	San Lucas Tolimán	1	Enero	2023-01-27T00:00:00	2024-11-08T12:00:00	4	Temperatura máxima	22.7
103315	7	Sololá	713	San Lucas Tolimán	10	San Lucas Tolimán	1	Enero	2023-01-27T00:00:00	2024-11-08T12:00:00	3	Temperatura mínima	22.1
103316	7	Sololá	713	San Lucas Tolimán	10	San Lucas Tolimán	1	Enero	2023-01-27T00:00:00	2024-11-08T12:00:00	5	Humedad	43
103317	7	Sololá	713	San Lucas Tolimán	10	San Lucas Tolimán	1	Enero	2023-01-27T00:00:00	2024-11-08T12:00:00	6	Velocidad del viento	11.3
103318	7	Sololá	713	San Lucas Tolimán	10	San Lucas Tolimán	1	Enero	2023-01-27T00:00:00	2024-11-08T12:00:00	7	Dirección del viento	11.27
103319	7	Sololá	713	San Lucas Tolimán	10	San Lucas Tolimán	1	Enero	2023-01-27T00:00:00	2024-11-08T12:00:00	1	Precipitación	0
103320	7	Sololá	713	San Lucas Tolimán	10	San Lucas Tolimán	1	Enero	2023-01-27T00:00:00	2024-11-08T12:00:00	8	Radiación solar	946
103321	7	Sololá	713	San Lucas Tolimán	10	San Lucas Tolimán	1	Enero	2023-01-27T00:00:00	2024-11-08T13:00:00	2	Temperatura media	22.7
103322	7	Sololá	713	San Lucas Tolimán	10	San Lucas Tolimán	1	Enero	2023-01-27T00:00:00	2024-11-08T13:00:00	4	Temperatura máxima	22.7
103323	7	Sololá	713	San Lucas Tolimán	10	San Lucas Tolimán	1	Enero	2023-01-27T00:00:00	2024-11-08T13:00:00	3	Temperatura mínima	21.8
103324	7	Sololá	713	San Lucas Tolimán	10	San Lucas Tolimán	1	Enero	2023-01-27T00:00:00	2024-11-08T13:00:00	5	Humedad	44
103325	7	Sololá	713	San Lucas Tolimán	10	San Lucas Tolimán	1	Enero	2023-01-27T00:00:00	2024-11-08T13:00:00	6	Velocidad del viento	11.3
103326	7	Sololá	713	San Lucas Tolimán	10	San Lucas Tolimán	1	Enero	2023-01-27T00:00:00	2024-11-08T13:00:00	7	Dirección del viento	11.27
103327	7	Sololá	713	San Lucas Tolimán	10	San Lucas Tolimán	1	Enero	2023-01-27T00:00:00	2024-11-08T13:00:00	1	Precipitación	0
103328	7	Sololá	713	San Lucas Tolimán	10	San Lucas Tolimán	1	Enero	2023-01-27T00:00:00	2024-11-08T13:00:00	8	Radiación solar	518
103329	7	Sololá	713	San Lucas Tolimán	10	San Lucas Tolimán	1	Enero	2023-01-27T00:00:00	2024-11-08T14:00:00	2	Temperatura media	21.7
103330	7	Sololá	713	San Lucas Tolimán	10	San Lucas Tolimán	1	Enero	2023-01-27T00:00:00	2024-11-08T14:00:00	4	Temperatura máxima	22.7
103331	7	Sololá	713	San Lucas Tolimán	10	San Lucas Tolimán	1	Enero	2023-01-27T00:00:00	2024-11-08T14:00:00	3	Temperatura mínima	21.7
103332	7	Sololá	713	San Lucas Tolimán	10	San Lucas Tolimán	1	Enero	2023-01-27T00:00:00	2024-11-08T14:00:00	5	Humedad	47
103333	7	Sololá	713	San Lucas Tolimán	10	San Lucas Tolimán	1	Enero	2023-01-27T00:00:00	2024-11-08T14:00:00	6	Velocidad del viento	9.7
103334	7	Sololá	713	San Lucas Tolimán	10	San Lucas Tolimán	1	Enero	2023-01-27T00:00:00	2024-11-08T14:00:00	7	Dirección del viento	9.66
103335	7	Sololá	713	San Lucas Tolimán	10	San Lucas Tolimán	1	Enero	2023-01-27T00:00:00	2024-11-08T14:00:00	1	Precipitación	0
103336	7	Sololá	713	San Lucas Tolimán	10	San Lucas Tolimán	1	Enero	2023-01-27T00:00:00	2024-11-08T14:00:00	8	Radiación solar	300
103337	7	Sololá	713	San Lucas Tolimán	10	San Lucas Tolimán	1	Enero	2023-01-27T00:00:00	2024-11-08T15:00:00	2	Temperatura media	22.3
103338	7	Sololá	713	San Lucas Tolimán	10	San Lucas Tolimán	1	Enero	2023-01-27T00:00:00	2024-11-08T15:00:00	4	Temperatura máxima	22.4
103339	7	Sololá	713	San Lucas Tolimán	10	San Lucas Tolimán	1	Enero	2023-01-27T00:00:00	2024-11-08T15:00:00	3	Temperatura mínima	21.2
103340	7	Sololá	713	San Lucas Tolimán	10	San Lucas Tolimán	1	Enero	2023-01-27T00:00:00	2024-11-08T15:00:00	5	Humedad	45
103341	7	Sololá	713	San Lucas Tolimán	10	San Lucas Tolimán	1	Enero	2023-01-27T00:00:00	2024-11-08T15:00:00	6	Velocidad del viento	11.3
103342	7	Sololá	713	San Lucas Tolimán	10	San Lucas Tolimán	1	Enero	2023-01-27T00:00:00	2024-11-08T15:00:00	7	Dirección del viento	11.27
103343	7	Sololá	713	San Lucas Tolimán	10	San Lucas Tolimán	1	Enero	2023-01-27T00:00:00	2024-11-08T15:00:00	1	Precipitación	0
103344	7	Sololá	713	San Lucas Tolimán	10	San Lucas Tolimán	1	Enero	2023-01-27T00:00:00	2024-11-08T15:00:00	8	Radiación solar	605
103345	7	Sololá	713	San Lucas Tolimán	10	San Lucas Tolimán	1	Enero	2023-01-27T00:00:00	2024-11-08T16:00:00	2	Temperatura media	20.6
103346	7	Sololá	713	San Lucas Tolimán	10	San Lucas Tolimán	1	Enero	2023-01-27T00:00:00	2024-11-08T16:00:00	4	Temperatura máxima	22.3
103347	7	Sololá	713	San Lucas Tolimán	10	San Lucas Tolimán	1	Enero	2023-01-27T00:00:00	2024-11-08T16:00:00	3	Temperatura mínima	20.6
103348	7	Sololá	713	San Lucas Tolimán	10	San Lucas Tolimán	1	Enero	2023-01-27T00:00:00	2024-11-08T16:00:00	5	Humedad	49
103349	7	Sololá	713	San Lucas Tolimán	10	San Lucas Tolimán	1	Enero	2023-01-27T00:00:00	2024-11-08T16:00:00	6	Velocidad del viento	12.9
103350	7	Sololá	713	San Lucas Tolimán	10	San Lucas Tolimán	1	Enero	2023-01-27T00:00:00	2024-11-08T16:00:00	7	Dirección del viento	12.87
103351	7	Sololá	713	San Lucas Tolimán	10	San Lucas Tolimán	1	Enero	2023-01-27T00:00:00	2024-11-08T16:00:00	1	Precipitación	0
103352	7	Sololá	713	San Lucas Tolimán	10	San Lucas Tolimán	1	Enero	2023-01-27T00:00:00	2024-11-08T16:00:00	8	Radiación solar	344
103353	7	Sololá	713	San Lucas Tolimán	10	San Lucas Tolimán	1	Enero	2023-01-27T00:00:00	2024-11-08T17:00:00	2	Temperatura media	19.9
103354	7	Sololá	713	San Lucas Tolimán	10	San Lucas Tolimán	1	Enero	2023-01-27T00:00:00	2024-11-08T17:00:00	4	Temperatura máxima	20.6
103355	7	Sololá	713	San Lucas Tolimán	10	San Lucas Tolimán	1	Enero	2023-01-27T00:00:00	2024-11-08T17:00:00	3	Temperatura mínima	19.9
103356	7	Sololá	713	San Lucas Tolimán	10	San Lucas Tolimán	1	Enero	2023-01-27T00:00:00	2024-11-08T17:00:00	5	Humedad	51
103357	7	Sololá	713	San Lucas Tolimán	10	San Lucas Tolimán	1	Enero	2023-01-27T00:00:00	2024-11-08T17:00:00	6	Velocidad del viento	16.1
103358	7	Sololá	713	San Lucas Tolimán	10	San Lucas Tolimán	1	Enero	2023-01-27T00:00:00	2024-11-08T17:00:00	7	Dirección del viento	16.09
103359	7	Sololá	713	San Lucas Tolimán	10	San Lucas Tolimán	1	Enero	2023-01-27T00:00:00	2024-11-08T17:00:00	1	Precipitación	0
103360	7	Sololá	713	San Lucas Tolimán	10	San Lucas Tolimán	1	Enero	2023-01-27T00:00:00	2024-11-08T17:00:00	8	Radiación solar	77
103361	7	Sololá	713	San Lucas Tolimán	10	San Lucas Tolimán	1	Enero	2023-01-27T00:00:00	2024-11-08T18:00:00	2	Temperatura media	19.4
103362	7	Sololá	713	San Lucas Tolimán	10	San Lucas Tolimán	1	Enero	2023-01-27T00:00:00	2024-11-08T18:00:00	4	Temperatura máxima	20
103363	7	Sololá	713	San Lucas Tolimán	10	San Lucas Tolimán	1	Enero	2023-01-27T00:00:00	2024-11-08T18:00:00	3	Temperatura mínima	19.4
103364	7	Sololá	713	San Lucas Tolimán	10	San Lucas Tolimán	1	Enero	2023-01-27T00:00:00	2024-11-08T18:00:00	5	Humedad	51
103365	7	Sololá	713	San Lucas Tolimán	10	San Lucas Tolimán	1	Enero	2023-01-27T00:00:00	2024-11-08T18:00:00	6	Velocidad del viento	14.5
103366	7	Sololá	713	San Lucas Tolimán	10	San Lucas Tolimán	1	Enero	2023-01-27T00:00:00	2024-11-08T18:00:00	7	Dirección del viento	14.48
103367	7	Sololá	713	San Lucas Tolimán	10	San Lucas Tolimán	1	Enero	2023-01-27T00:00:00	2024-11-08T18:00:00	1	Precipitación	0
103368	7	Sololá	713	San Lucas Tolimán	10	San Lucas Tolimán	1	Enero	2023-01-27T00:00:00	2024-11-08T18:00:00	8	Radiación solar	17
103369	7	Sololá	713	San Lucas Tolimán	10	San Lucas Tolimán	1	Enero	2023-01-27T00:00:00	2024-11-08T19:00:00	2	Temperatura media	18.7
103370	7	Sololá	713	San Lucas Tolimán	10	San Lucas Tolimán	1	Enero	2023-01-27T00:00:00	2024-11-08T19:00:00	4	Temperatura máxima	19.4
103371	7	Sololá	713	San Lucas Tolimán	10	San Lucas Tolimán	1	Enero	2023-01-27T00:00:00	2024-11-08T19:00:00	3	Temperatura mínima	18.7
103372	7	Sololá	713	San Lucas Tolimán	10	San Lucas Tolimán	1	Enero	2023-01-27T00:00:00	2024-11-08T19:00:00	5	Humedad	54
103373	7	Sololá	713	San Lucas Tolimán	10	San Lucas Tolimán	1	Enero	2023-01-27T00:00:00	2024-11-08T19:00:00	6	Velocidad del viento	16.1
103374	7	Sololá	713	San Lucas Tolimán	10	San Lucas Tolimán	1	Enero	2023-01-27T00:00:00	2024-11-08T19:00:00	7	Dirección del viento	16.09
103375	7	Sololá	713	San Lucas Tolimán	10	San Lucas Tolimán	1	Enero	2023-01-27T00:00:00	2024-11-08T19:00:00	1	Precipitación	0
103376	7	Sololá	713	San Lucas Tolimán	10	San Lucas Tolimán	1	Enero	2023-01-27T00:00:00	2024-11-08T19:00:00	8	Radiación solar	0
103377	7	Sololá	713	San Lucas Tolimán	10	San Lucas Tolimán	1	Enero	2023-01-27T00:00:00	2024-11-08T20:00:00	2	Temperatura media	17.5
103378	7	Sololá	713	San Lucas Tolimán	10	San Lucas Tolimán	1	Enero	2023-01-27T00:00:00	2024-11-08T20:00:00	4	Temperatura máxima	18.7
103379	7	Sololá	713	San Lucas Tolimán	10	San Lucas Tolimán	1	Enero	2023-01-27T00:00:00	2024-11-08T20:00:00	3	Temperatura mínima	17.5
103380	7	Sololá	713	San Lucas Tolimán	10	San Lucas Tolimán	1	Enero	2023-01-27T00:00:00	2024-11-08T20:00:00	5	Humedad	58
103381	7	Sololá	713	San Lucas Tolimán	10	San Lucas Tolimán	1	Enero	2023-01-27T00:00:00	2024-11-08T20:00:00	6	Velocidad del viento	29
103382	7	Sololá	713	San Lucas Tolimán	10	San Lucas Tolimán	1	Enero	2023-01-27T00:00:00	2024-11-08T20:00:00	7	Dirección del viento	28.97
103383	7	Sololá	713	San Lucas Tolimán	10	San Lucas Tolimán	1	Enero	2023-01-27T00:00:00	2024-11-08T20:00:00	1	Precipitación	0
103384	7	Sololá	713	San Lucas Tolimán	10	San Lucas Tolimán	1	Enero	2023-01-27T00:00:00	2024-11-08T20:00:00	8	Radiación solar	0
103385	7	Sololá	713	San Lucas Tolimán	10	San Lucas Tolimán	1	Enero	2023-01-27T00:00:00	2024-11-08T21:00:00	2	Temperatura media	17.9
103386	7	Sololá	713	San Lucas Tolimán	10	San Lucas Tolimán	1	Enero	2023-01-27T00:00:00	2024-11-08T21:00:00	4	Temperatura máxima	17.9
103387	7	Sololá	713	San Lucas Tolimán	10	San Lucas Tolimán	1	Enero	2023-01-27T00:00:00	2024-11-08T21:00:00	3	Temperatura mínima	17.5
103388	7	Sololá	713	San Lucas Tolimán	10	San Lucas Tolimán	1	Enero	2023-01-27T00:00:00	2024-11-08T21:00:00	5	Humedad	55
103389	7	Sololá	713	San Lucas Tolimán	10	San Lucas Tolimán	1	Enero	2023-01-27T00:00:00	2024-11-08T21:00:00	6	Velocidad del viento	25.7
103390	7	Sololá	713	San Lucas Tolimán	10	San Lucas Tolimán	1	Enero	2023-01-27T00:00:00	2024-11-08T21:00:00	7	Dirección del viento	25.75
103391	7	Sololá	713	San Lucas Tolimán	10	San Lucas Tolimán	1	Enero	2023-01-27T00:00:00	2024-11-08T21:00:00	1	Precipitación	0
103392	7	Sololá	713	San Lucas Tolimán	10	San Lucas Tolimán	1	Enero	2023-01-27T00:00:00	2024-11-08T21:00:00	8	Radiación solar	0
103393	7	Sololá	713	San Lucas Tolimán	10	San Lucas Tolimán	1	Enero	2023-01-27T00:00:00	2024-11-08T22:00:00	2	Temperatura media	17.4
103394	7	Sololá	713	San Lucas Tolimán	10	San Lucas Tolimán	1	Enero	2023-01-27T00:00:00	2024-11-08T22:00:00	4	Temperatura máxima	18.1
103395	7	Sololá	713	San Lucas Tolimán	10	San Lucas Tolimán	1	Enero	2023-01-27T00:00:00	2024-11-08T22:00:00	3	Temperatura mínima	17.3
103396	7	Sololá	713	San Lucas Tolimán	10	San Lucas Tolimán	1	Enero	2023-01-27T00:00:00	2024-11-08T22:00:00	5	Humedad	51
103397	7	Sololá	713	San Lucas Tolimán	10	San Lucas Tolimán	1	Enero	2023-01-27T00:00:00	2024-11-08T22:00:00	6	Velocidad del viento	16.1
103398	7	Sololá	713	San Lucas Tolimán	10	San Lucas Tolimán	1	Enero	2023-01-27T00:00:00	2024-11-08T22:00:00	7	Dirección del viento	16.09
103399	7	Sololá	713	San Lucas Tolimán	10	San Lucas Tolimán	1	Enero	2023-01-27T00:00:00	2024-11-08T22:00:00	1	Precipitación	0
103400	7	Sololá	713	San Lucas Tolimán	10	San Lucas Tolimán	1	Enero	2023-01-27T00:00:00	2024-11-08T22:00:00	8	Radiación solar	0
103401	7	Sololá	713	San Lucas Tolimán	10	San Lucas Tolimán	1	Enero	2023-01-27T00:00:00	2024-11-08T23:00:00	2	Temperatura media	17.2
103402	7	Sololá	713	San Lucas Tolimán	10	San Lucas Tolimán	1	Enero	2023-01-27T00:00:00	2024-11-08T23:00:00	4	Temperatura máxima	17.5
103403	7	Sololá	713	San Lucas Tolimán	10	San Lucas Tolimán	1	Enero	2023-01-27T00:00:00	2024-11-08T23:00:00	3	Temperatura mínima	16.8
103404	7	Sololá	713	San Lucas Tolimán	10	San Lucas Tolimán	1	Enero	2023-01-27T00:00:00	2024-11-08T23:00:00	5	Humedad	40
103405	7	Sololá	713	San Lucas Tolimán	10	San Lucas Tolimán	1	Enero	2023-01-27T00:00:00	2024-11-08T23:00:00	6	Velocidad del viento	6.4
103406	7	Sololá	713	San Lucas Tolimán	10	San Lucas Tolimán	1	Enero	2023-01-27T00:00:00	2024-11-08T23:00:00	7	Dirección del viento	6.44
103407	7	Sololá	713	San Lucas Tolimán	10	San Lucas Tolimán	1	Enero	2023-01-27T00:00:00	2024-11-08T23:00:00	1	Precipitación	0
103408	7	Sololá	713	San Lucas Tolimán	10	San Lucas Tolimán	1	Enero	2023-01-27T00:00:00	2024-11-08T23:00:00	8	Radiación solar	0
103409	7	Sololá	713	San Lucas Tolimán	10	San Lucas Tolimán	1	Enero	2023-01-28T00:00:00	2024-11-08T00:00:00	2	Temperatura media	16.1
103410	7	Sololá	713	San Lucas Tolimán	10	San Lucas Tolimán	1	Enero	2023-01-28T00:00:00	2024-11-08T00:00:00	4	Temperatura máxima	17.5
103411	7	Sololá	713	San Lucas Tolimán	10	San Lucas Tolimán	1	Enero	2023-01-28T00:00:00	2024-11-08T00:00:00	3	Temperatura mínima	16.1
103412	7	Sololá	713	San Lucas Tolimán	10	San Lucas Tolimán	1	Enero	2023-01-28T00:00:00	2024-11-08T00:00:00	5	Humedad	45
103413	7	Sololá	713	San Lucas Tolimán	10	San Lucas Tolimán	1	Enero	2023-01-28T00:00:00	2024-11-08T00:00:00	6	Velocidad del viento	8
103414	7	Sololá	713	San Lucas Tolimán	10	San Lucas Tolimán	1	Enero	2023-01-28T00:00:00	2024-11-08T00:00:00	7	Dirección del viento	8.05
103415	7	Sololá	713	San Lucas Tolimán	10	San Lucas Tolimán	1	Enero	2023-01-28T00:00:00	2024-11-08T00:00:00	1	Precipitación	0
103416	7	Sololá	713	San Lucas Tolimán	10	San Lucas Tolimán	1	Enero	2023-01-28T00:00:00	2024-11-08T00:00:00	8	Radiación solar	0
103417	7	Sololá	713	San Lucas Tolimán	10	San Lucas Tolimán	1	Enero	2023-01-28T00:00:00	2024-11-08T01:00:00	2	Temperatura media	15.2
103418	7	Sololá	713	San Lucas Tolimán	10	San Lucas Tolimán	1	Enero	2023-01-28T00:00:00	2024-11-08T01:00:00	4	Temperatura máxima	16.4
103419	7	Sololá	713	San Lucas Tolimán	10	San Lucas Tolimán	1	Enero	2023-01-28T00:00:00	2024-11-08T01:00:00	3	Temperatura mínima	15.2
103420	7	Sololá	713	San Lucas Tolimán	10	San Lucas Tolimán	1	Enero	2023-01-28T00:00:00	2024-11-08T01:00:00	5	Humedad	46
103421	7	Sololá	713	San Lucas Tolimán	10	San Lucas Tolimán	1	Enero	2023-01-28T00:00:00	2024-11-08T01:00:00	6	Velocidad del viento	8
103422	7	Sololá	713	San Lucas Tolimán	10	San Lucas Tolimán	1	Enero	2023-01-28T00:00:00	2024-11-08T01:00:00	7	Dirección del viento	8.05
103423	7	Sololá	713	San Lucas Tolimán	10	San Lucas Tolimán	1	Enero	2023-01-28T00:00:00	2024-11-08T01:00:00	1	Precipitación	0
103424	7	Sololá	713	San Lucas Tolimán	10	San Lucas Tolimán	1	Enero	2023-01-28T00:00:00	2024-11-08T01:00:00	8	Radiación solar	0
103425	7	Sololá	713	San Lucas Tolimán	10	San Lucas Tolimán	1	Enero	2023-01-28T00:00:00	2024-11-08T02:00:00	2	Temperatura media	16.8
103426	7	Sololá	713	San Lucas Tolimán	10	San Lucas Tolimán	1	Enero	2023-01-28T00:00:00	2024-11-08T02:00:00	4	Temperatura máxima	16.8
103427	7	Sololá	713	San Lucas Tolimán	10	San Lucas Tolimán	1	Enero	2023-01-28T00:00:00	2024-11-08T02:00:00	3	Temperatura mínima	15.2
103428	7	Sololá	713	San Lucas Tolimán	10	San Lucas Tolimán	1	Enero	2023-01-28T00:00:00	2024-11-08T02:00:00	5	Humedad	41
103429	7	Sololá	713	San Lucas Tolimán	10	San Lucas Tolimán	1	Enero	2023-01-28T00:00:00	2024-11-08T02:00:00	6	Velocidad del viento	12.9
103430	7	Sololá	713	San Lucas Tolimán	10	San Lucas Tolimán	1	Enero	2023-01-28T00:00:00	2024-11-08T02:00:00	7	Dirección del viento	12.87
103431	7	Sololá	713	San Lucas Tolimán	10	San Lucas Tolimán	1	Enero	2023-01-28T00:00:00	2024-11-08T02:00:00	1	Precipitación	0
103432	7	Sololá	713	San Lucas Tolimán	10	San Lucas Tolimán	1	Enero	2023-01-28T00:00:00	2024-11-08T02:00:00	8	Radiación solar	0
103433	7	Sololá	713	San Lucas Tolimán	10	San Lucas Tolimán	1	Enero	2023-01-28T00:00:00	2024-11-08T03:00:00	2	Temperatura media	16.5
103434	7	Sololá	713	San Lucas Tolimán	10	San Lucas Tolimán	1	Enero	2023-01-28T00:00:00	2024-11-08T03:00:00	4	Temperatura máxima	17
103435	7	Sololá	713	San Lucas Tolimán	10	San Lucas Tolimán	1	Enero	2023-01-28T00:00:00	2024-11-08T03:00:00	3	Temperatura mínima	16.3
103436	7	Sololá	713	San Lucas Tolimán	10	San Lucas Tolimán	1	Enero	2023-01-28T00:00:00	2024-11-08T03:00:00	5	Humedad	42
103437	7	Sololá	713	San Lucas Tolimán	10	San Lucas Tolimán	1	Enero	2023-01-28T00:00:00	2024-11-08T03:00:00	6	Velocidad del viento	16.1
103438	7	Sololá	713	San Lucas Tolimán	10	San Lucas Tolimán	1	Enero	2023-01-28T00:00:00	2024-11-08T03:00:00	7	Dirección del viento	16.09
103439	7	Sololá	713	San Lucas Tolimán	10	San Lucas Tolimán	1	Enero	2023-01-28T00:00:00	2024-11-08T03:00:00	1	Precipitación	0
103440	7	Sololá	713	San Lucas Tolimán	10	San Lucas Tolimán	1	Enero	2023-01-28T00:00:00	2024-11-08T03:00:00	8	Radiación solar	0
103441	7	Sololá	713	San Lucas Tolimán	10	San Lucas Tolimán	1	Enero	2023-01-28T00:00:00	2024-11-08T04:00:00	2	Temperatura media	16.7
103442	7	Sololá	713	San Lucas Tolimán	10	San Lucas Tolimán	1	Enero	2023-01-28T00:00:00	2024-11-08T04:00:00	4	Temperatura máxima	16.8
103443	7	Sololá	713	San Lucas Tolimán	10	San Lucas Tolimán	1	Enero	2023-01-28T00:00:00	2024-11-08T04:00:00	3	Temperatura mínima	15.6
103444	7	Sololá	713	San Lucas Tolimán	10	San Lucas Tolimán	1	Enero	2023-01-28T00:00:00	2024-11-08T04:00:00	5	Humedad	50
103445	7	Sololá	713	San Lucas Tolimán	10	San Lucas Tolimán	1	Enero	2023-01-28T00:00:00	2024-11-08T04:00:00	6	Velocidad del viento	8
103446	7	Sololá	713	San Lucas Tolimán	10	San Lucas Tolimán	1	Enero	2023-01-28T00:00:00	2024-11-08T04:00:00	7	Dirección del viento	8.05
103447	7	Sololá	713	San Lucas Tolimán	10	San Lucas Tolimán	1	Enero	2023-01-28T00:00:00	2024-11-08T04:00:00	1	Precipitación	0
103448	7	Sololá	713	San Lucas Tolimán	10	San Lucas Tolimán	1	Enero	2023-01-28T00:00:00	2024-11-08T04:00:00	8	Radiación solar	0
103449	7	Sololá	713	San Lucas Tolimán	10	San Lucas Tolimán	1	Enero	2023-01-28T00:00:00	2024-11-08T05:00:00	2	Temperatura media	17
103450	7	Sololá	713	San Lucas Tolimán	10	San Lucas Tolimán	1	Enero	2023-01-28T00:00:00	2024-11-08T05:00:00	4	Temperatura máxima	17.1
103451	7	Sololá	713	San Lucas Tolimán	10	San Lucas Tolimán	1	Enero	2023-01-28T00:00:00	2024-11-08T05:00:00	3	Temperatura mínima	16.6
103452	7	Sololá	713	San Lucas Tolimán	10	San Lucas Tolimán	1	Enero	2023-01-28T00:00:00	2024-11-08T05:00:00	5	Humedad	54
103453	7	Sololá	713	San Lucas Tolimán	10	San Lucas Tolimán	1	Enero	2023-01-28T00:00:00	2024-11-08T05:00:00	6	Velocidad del viento	11.3
103454	7	Sololá	713	San Lucas Tolimán	10	San Lucas Tolimán	1	Enero	2023-01-28T00:00:00	2024-11-08T05:00:00	7	Dirección del viento	11.27
103455	7	Sololá	713	San Lucas Tolimán	10	San Lucas Tolimán	1	Enero	2023-01-28T00:00:00	2024-11-08T05:00:00	1	Precipitación	0
103456	7	Sololá	713	San Lucas Tolimán	10	San Lucas Tolimán	1	Enero	2023-01-28T00:00:00	2024-11-08T05:00:00	8	Radiación solar	0
103457	7	Sololá	713	San Lucas Tolimán	10	San Lucas Tolimán	1	Enero	2023-01-28T00:00:00	2024-11-08T06:00:00	2	Temperatura media	17
103458	7	Sololá	713	San Lucas Tolimán	10	San Lucas Tolimán	1	Enero	2023-01-28T00:00:00	2024-11-08T06:00:00	4	Temperatura máxima	17.1
103459	7	Sololá	713	San Lucas Tolimán	10	San Lucas Tolimán	1	Enero	2023-01-28T00:00:00	2024-11-08T06:00:00	3	Temperatura mínima	16.8
103460	7	Sololá	713	San Lucas Tolimán	10	San Lucas Tolimán	1	Enero	2023-01-28T00:00:00	2024-11-08T06:00:00	5	Humedad	54
103461	7	Sololá	713	San Lucas Tolimán	10	San Lucas Tolimán	1	Enero	2023-01-28T00:00:00	2024-11-08T06:00:00	6	Velocidad del viento	16.1
103462	7	Sololá	713	San Lucas Tolimán	10	San Lucas Tolimán	1	Enero	2023-01-28T00:00:00	2024-11-08T06:00:00	7	Dirección del viento	16.09
103463	7	Sololá	713	San Lucas Tolimán	10	San Lucas Tolimán	1	Enero	2023-01-28T00:00:00	2024-11-08T06:00:00	1	Precipitación	0
103464	7	Sololá	713	San Lucas Tolimán	10	San Lucas Tolimán	1	Enero	2023-01-28T00:00:00	2024-11-08T06:00:00	8	Radiación solar	0
103465	7	Sololá	713	San Lucas Tolimán	10	San Lucas Tolimán	1	Enero	2023-01-28T00:00:00	2024-11-08T07:00:00	2	Temperatura media	17.8
103466	7	Sololá	713	San Lucas Tolimán	10	San Lucas Tolimán	1	Enero	2023-01-28T00:00:00	2024-11-08T07:00:00	4	Temperatura máxima	17.8
103467	7	Sololá	713	San Lucas Tolimán	10	San Lucas Tolimán	1	Enero	2023-01-28T00:00:00	2024-11-08T07:00:00	3	Temperatura mínima	16.9
103468	7	Sololá	713	San Lucas Tolimán	10	San Lucas Tolimán	1	Enero	2023-01-28T00:00:00	2024-11-08T07:00:00	5	Humedad	52
103469	7	Sololá	713	San Lucas Tolimán	10	San Lucas Tolimán	1	Enero	2023-01-28T00:00:00	2024-11-08T07:00:00	6	Velocidad del viento	17.7
103470	7	Sololá	713	San Lucas Tolimán	10	San Lucas Tolimán	1	Enero	2023-01-28T00:00:00	2024-11-08T07:00:00	7	Dirección del viento	17.7
103471	7	Sololá	713	San Lucas Tolimán	10	San Lucas Tolimán	1	Enero	2023-01-28T00:00:00	2024-11-08T07:00:00	1	Precipitación	0
103472	7	Sololá	713	San Lucas Tolimán	10	San Lucas Tolimán	1	Enero	2023-01-28T00:00:00	2024-11-08T07:00:00	8	Radiación solar	6
103473	7	Sololá	713	San Lucas Tolimán	10	San Lucas Tolimán	1	Enero	2023-01-28T00:00:00	2024-11-08T08:00:00	2	Temperatura media	17.6
103474	7	Sololá	713	San Lucas Tolimán	10	San Lucas Tolimán	1	Enero	2023-01-28T00:00:00	2024-11-08T08:00:00	4	Temperatura máxima	17.9
103475	7	Sololá	713	San Lucas Tolimán	10	San Lucas Tolimán	1	Enero	2023-01-28T00:00:00	2024-11-08T08:00:00	3	Temperatura mínima	17.6
103476	7	Sololá	713	San Lucas Tolimán	10	San Lucas Tolimán	1	Enero	2023-01-28T00:00:00	2024-11-08T08:00:00	5	Humedad	53
103477	7	Sololá	713	San Lucas Tolimán	10	San Lucas Tolimán	1	Enero	2023-01-28T00:00:00	2024-11-08T08:00:00	6	Velocidad del viento	12.9
103478	7	Sololá	713	San Lucas Tolimán	10	San Lucas Tolimán	1	Enero	2023-01-28T00:00:00	2024-11-08T08:00:00	7	Dirección del viento	12.87
103479	7	Sololá	713	San Lucas Tolimán	10	San Lucas Tolimán	1	Enero	2023-01-28T00:00:00	2024-11-08T08:00:00	1	Precipitación	0
103480	7	Sololá	713	San Lucas Tolimán	10	San Lucas Tolimán	1	Enero	2023-01-28T00:00:00	2024-11-08T08:00:00	8	Radiación solar	21
103481	7	Sololá	713	San Lucas Tolimán	10	San Lucas Tolimán	1	Enero	2023-01-28T00:00:00	2024-11-08T09:00:00	2	Temperatura media	18.7
103482	7	Sololá	713	San Lucas Tolimán	10	San Lucas Tolimán	1	Enero	2023-01-28T00:00:00	2024-11-08T09:00:00	4	Temperatura máxima	18.8
103483	7	Sololá	713	San Lucas Tolimán	10	San Lucas Tolimán	1	Enero	2023-01-28T00:00:00	2024-11-08T09:00:00	3	Temperatura mínima	17.6
103484	7	Sololá	713	San Lucas Tolimán	10	San Lucas Tolimán	1	Enero	2023-01-28T00:00:00	2024-11-08T09:00:00	5	Humedad	46
103485	7	Sololá	713	San Lucas Tolimán	10	San Lucas Tolimán	1	Enero	2023-01-28T00:00:00	2024-11-08T09:00:00	6	Velocidad del viento	16.1
103486	7	Sololá	713	San Lucas Tolimán	10	San Lucas Tolimán	1	Enero	2023-01-28T00:00:00	2024-11-08T09:00:00	7	Dirección del viento	16.09
103487	7	Sololá	713	San Lucas Tolimán	10	San Lucas Tolimán	1	Enero	2023-01-28T00:00:00	2024-11-08T09:00:00	1	Precipitación	0
103488	7	Sololá	713	San Lucas Tolimán	10	San Lucas Tolimán	1	Enero	2023-01-28T00:00:00	2024-11-08T09:00:00	8	Radiación solar	315
103489	7	Sololá	713	San Lucas Tolimán	10	San Lucas Tolimán	1	Enero	2023-01-28T00:00:00	2024-11-08T10:00:00	2	Temperatura media	21.3
103490	7	Sololá	713	San Lucas Tolimán	10	San Lucas Tolimán	1	Enero	2023-01-28T00:00:00	2024-11-08T10:00:00	4	Temperatura máxima	21.3
103491	7	Sololá	713	San Lucas Tolimán	10	San Lucas Tolimán	1	Enero	2023-01-28T00:00:00	2024-11-08T10:00:00	3	Temperatura mínima	18.7
103492	7	Sololá	713	San Lucas Tolimán	10	San Lucas Tolimán	1	Enero	2023-01-28T00:00:00	2024-11-08T10:00:00	5	Humedad	33
103493	7	Sololá	713	San Lucas Tolimán	10	San Lucas Tolimán	1	Enero	2023-01-28T00:00:00	2024-11-08T10:00:00	6	Velocidad del viento	9.7
103494	7	Sololá	713	San Lucas Tolimán	10	San Lucas Tolimán	1	Enero	2023-01-28T00:00:00	2024-11-08T10:00:00	7	Dirección del viento	9.66
103495	7	Sololá	713	San Lucas Tolimán	10	San Lucas Tolimán	1	Enero	2023-01-28T00:00:00	2024-11-08T10:00:00	1	Precipitación	0
103496	7	Sololá	713	San Lucas Tolimán	10	San Lucas Tolimán	1	Enero	2023-01-28T00:00:00	2024-11-08T10:00:00	8	Radiación solar	610
103497	7	Sololá	713	San Lucas Tolimán	10	San Lucas Tolimán	1	Enero	2023-01-28T00:00:00	2024-11-08T11:00:00	2	Temperatura media	22.7
103498	7	Sololá	713	San Lucas Tolimán	10	San Lucas Tolimán	1	Enero	2023-01-28T00:00:00	2024-11-08T11:00:00	4	Temperatura máxima	22.8
103499	7	Sololá	713	San Lucas Tolimán	10	San Lucas Tolimán	1	Enero	2023-01-28T00:00:00	2024-11-08T11:00:00	3	Temperatura mínima	21.1
103500	7	Sololá	713	San Lucas Tolimán	10	San Lucas Tolimán	1	Enero	2023-01-28T00:00:00	2024-11-08T11:00:00	5	Humedad	25
103501	7	Sololá	713	San Lucas Tolimán	10	San Lucas Tolimán	1	Enero	2023-01-28T00:00:00	2024-11-08T11:00:00	6	Velocidad del viento	8
103502	7	Sololá	713	San Lucas Tolimán	10	San Lucas Tolimán	1	Enero	2023-01-28T00:00:00	2024-11-08T11:00:00	7	Dirección del viento	8.05
103503	7	Sololá	713	San Lucas Tolimán	10	San Lucas Tolimán	1	Enero	2023-01-28T00:00:00	2024-11-08T11:00:00	1	Precipitación	0
103504	7	Sololá	713	San Lucas Tolimán	10	San Lucas Tolimán	1	Enero	2023-01-28T00:00:00	2024-11-08T11:00:00	8	Radiación solar	792
103505	7	Sololá	713	San Lucas Tolimán	10	San Lucas Tolimán	1	Enero	2023-01-28T00:00:00	2024-11-08T12:00:00	2	Temperatura media	24
103506	7	Sololá	713	San Lucas Tolimán	10	San Lucas Tolimán	1	Enero	2023-01-28T00:00:00	2024-11-08T12:00:00	4	Temperatura máxima	24
103507	7	Sololá	713	San Lucas Tolimán	10	San Lucas Tolimán	1	Enero	2023-01-28T00:00:00	2024-11-08T12:00:00	3	Temperatura mínima	22.7
103508	7	Sololá	713	San Lucas Tolimán	10	San Lucas Tolimán	1	Enero	2023-01-28T00:00:00	2024-11-08T12:00:00	5	Humedad	19
103509	7	Sololá	713	San Lucas Tolimán	10	San Lucas Tolimán	1	Enero	2023-01-28T00:00:00	2024-11-08T12:00:00	6	Velocidad del viento	11.3
103510	7	Sololá	713	San Lucas Tolimán	10	San Lucas Tolimán	1	Enero	2023-01-28T00:00:00	2024-11-08T12:00:00	7	Dirección del viento	11.27
103511	7	Sololá	713	San Lucas Tolimán	10	San Lucas Tolimán	1	Enero	2023-01-28T00:00:00	2024-11-08T12:00:00	1	Precipitación	0
103512	7	Sololá	713	San Lucas Tolimán	10	San Lucas Tolimán	1	Enero	2023-01-28T00:00:00	2024-11-08T12:00:00	8	Radiación solar	906
103513	7	Sololá	713	San Lucas Tolimán	10	San Lucas Tolimán	1	Enero	2023-01-28T00:00:00	2024-11-08T13:00:00	2	Temperatura media	24.3
103514	7	Sololá	713	San Lucas Tolimán	10	San Lucas Tolimán	1	Enero	2023-01-28T00:00:00	2024-11-08T13:00:00	4	Temperatura máxima	24.6
103515	7	Sololá	713	San Lucas Tolimán	10	San Lucas Tolimán	1	Enero	2023-01-28T00:00:00	2024-11-08T13:00:00	3	Temperatura mínima	23.8
103516	7	Sololá	713	San Lucas Tolimán	10	San Lucas Tolimán	1	Enero	2023-01-28T00:00:00	2024-11-08T13:00:00	5	Humedad	14
103517	7	Sololá	713	San Lucas Tolimán	10	San Lucas Tolimán	1	Enero	2023-01-28T00:00:00	2024-11-08T13:00:00	6	Velocidad del viento	11.3
103518	7	Sololá	713	San Lucas Tolimán	10	San Lucas Tolimán	1	Enero	2023-01-28T00:00:00	2024-11-08T13:00:00	7	Dirección del viento	11.27
103519	7	Sololá	713	San Lucas Tolimán	10	San Lucas Tolimán	1	Enero	2023-01-28T00:00:00	2024-11-08T13:00:00	1	Precipitación	0
103520	7	Sololá	713	San Lucas Tolimán	10	San Lucas Tolimán	1	Enero	2023-01-28T00:00:00	2024-11-08T13:00:00	8	Radiación solar	942
103521	7	Sololá	713	San Lucas Tolimán	10	San Lucas Tolimán	1	Enero	2023-01-28T00:00:00	2024-11-08T14:00:00	2	Temperatura media	24.7
103522	7	Sololá	713	San Lucas Tolimán	10	San Lucas Tolimán	1	Enero	2023-01-28T00:00:00	2024-11-08T14:00:00	4	Temperatura máxima	24.7
103523	7	Sololá	713	San Lucas Tolimán	10	San Lucas Tolimán	1	Enero	2023-01-28T00:00:00	2024-11-08T14:00:00	3	Temperatura mínima	24.2
103524	7	Sololá	713	San Lucas Tolimán	10	San Lucas Tolimán	1	Enero	2023-01-28T00:00:00	2024-11-08T14:00:00	5	Humedad	18
103525	7	Sololá	713	San Lucas Tolimán	10	San Lucas Tolimán	1	Enero	2023-01-28T00:00:00	2024-11-08T14:00:00	6	Velocidad del viento	11.3
103526	7	Sololá	713	San Lucas Tolimán	10	San Lucas Tolimán	1	Enero	2023-01-28T00:00:00	2024-11-08T14:00:00	7	Dirección del viento	11.27
103527	7	Sololá	713	San Lucas Tolimán	10	San Lucas Tolimán	1	Enero	2023-01-28T00:00:00	2024-11-08T14:00:00	1	Precipitación	0
103528	7	Sololá	713	San Lucas Tolimán	10	San Lucas Tolimán	1	Enero	2023-01-28T00:00:00	2024-11-08T14:00:00	8	Radiación solar	879
103529	7	Sololá	713	San Lucas Tolimán	10	San Lucas Tolimán	1	Enero	2023-01-28T00:00:00	2024-11-08T15:00:00	2	Temperatura media	24.9
103530	7	Sololá	713	San Lucas Tolimán	10	San Lucas Tolimán	1	Enero	2023-01-28T00:00:00	2024-11-08T15:00:00	4	Temperatura máxima	24.9
103531	7	Sololá	713	San Lucas Tolimán	10	San Lucas Tolimán	1	Enero	2023-01-28T00:00:00	2024-11-08T15:00:00	3	Temperatura mínima	24.2
103532	7	Sololá	713	San Lucas Tolimán	10	San Lucas Tolimán	1	Enero	2023-01-28T00:00:00	2024-11-08T15:00:00	5	Humedad	15
103533	7	Sololá	713	San Lucas Tolimán	10	San Lucas Tolimán	1	Enero	2023-01-28T00:00:00	2024-11-08T15:00:00	6	Velocidad del viento	12.9
103534	7	Sololá	713	San Lucas Tolimán	10	San Lucas Tolimán	1	Enero	2023-01-28T00:00:00	2024-11-08T15:00:00	7	Dirección del viento	12.87
103535	7	Sololá	713	San Lucas Tolimán	10	San Lucas Tolimán	1	Enero	2023-01-28T00:00:00	2024-11-08T15:00:00	1	Precipitación	0
103536	7	Sololá	713	San Lucas Tolimán	10	San Lucas Tolimán	1	Enero	2023-01-28T00:00:00	2024-11-08T15:00:00	8	Radiación solar	752
103537	7	Sololá	713	San Lucas Tolimán	10	San Lucas Tolimán	1	Enero	2023-01-28T00:00:00	2024-11-08T16:00:00	2	Temperatura media	24
103538	7	Sololá	713	San Lucas Tolimán	10	San Lucas Tolimán	1	Enero	2023-01-28T00:00:00	2024-11-08T16:00:00	4	Temperatura máxima	25.5
103539	7	Sololá	713	San Lucas Tolimán	10	San Lucas Tolimán	1	Enero	2023-01-28T00:00:00	2024-11-08T16:00:00	3	Temperatura mínima	24
103540	7	Sololá	713	San Lucas Tolimán	10	San Lucas Tolimán	1	Enero	2023-01-28T00:00:00	2024-11-08T16:00:00	5	Humedad	19
103541	7	Sololá	713	San Lucas Tolimán	10	San Lucas Tolimán	1	Enero	2023-01-28T00:00:00	2024-11-08T16:00:00	6	Velocidad del viento	8
103542	7	Sololá	713	San Lucas Tolimán	10	San Lucas Tolimán	1	Enero	2023-01-28T00:00:00	2024-11-08T16:00:00	7	Dirección del viento	8.05
103543	7	Sololá	713	San Lucas Tolimán	10	San Lucas Tolimán	1	Enero	2023-01-28T00:00:00	2024-11-08T16:00:00	1	Precipitación	0
103544	7	Sololá	713	San Lucas Tolimán	10	San Lucas Tolimán	1	Enero	2023-01-28T00:00:00	2024-11-08T16:00:00	8	Radiación solar	564
103545	7	Sololá	713	San Lucas Tolimán	10	San Lucas Tolimán	1	Enero	2023-01-28T00:00:00	2024-11-08T17:00:00	2	Temperatura media	22.7
103546	7	Sololá	713	San Lucas Tolimán	10	San Lucas Tolimán	1	Enero	2023-01-28T00:00:00	2024-11-08T17:00:00	4	Temperatura máxima	24.6
103547	7	Sololá	713	San Lucas Tolimán	10	San Lucas Tolimán	1	Enero	2023-01-28T00:00:00	2024-11-08T17:00:00	3	Temperatura mínima	22.7
103548	7	Sololá	713	San Lucas Tolimán	10	San Lucas Tolimán	1	Enero	2023-01-28T00:00:00	2024-11-08T17:00:00	5	Humedad	26
103549	7	Sololá	713	San Lucas Tolimán	10	San Lucas Tolimán	1	Enero	2023-01-28T00:00:00	2024-11-08T17:00:00	6	Velocidad del viento	12.9
103550	7	Sololá	713	San Lucas Tolimán	10	San Lucas Tolimán	1	Enero	2023-01-28T00:00:00	2024-11-08T17:00:00	7	Dirección del viento	12.87
103551	7	Sololá	713	San Lucas Tolimán	10	San Lucas Tolimán	1	Enero	2023-01-28T00:00:00	2024-11-08T17:00:00	1	Precipitación	0
103552	7	Sololá	713	San Lucas Tolimán	10	San Lucas Tolimán	1	Enero	2023-01-28T00:00:00	2024-11-08T17:00:00	8	Radiación solar	305
103553	7	Sololá	713	San Lucas Tolimán	10	San Lucas Tolimán	1	Enero	2023-01-28T00:00:00	2024-11-08T18:00:00	2	Temperatura media	21
103554	7	Sololá	713	San Lucas Tolimán	10	San Lucas Tolimán	1	Enero	2023-01-28T00:00:00	2024-11-08T18:00:00	4	Temperatura máxima	22.7
103555	7	Sololá	713	San Lucas Tolimán	10	San Lucas Tolimán	1	Enero	2023-01-28T00:00:00	2024-11-08T18:00:00	3	Temperatura mínima	21
103556	7	Sololá	713	San Lucas Tolimán	10	San Lucas Tolimán	1	Enero	2023-01-28T00:00:00	2024-11-08T18:00:00	5	Humedad	34
103557	7	Sololá	713	San Lucas Tolimán	10	San Lucas Tolimán	1	Enero	2023-01-28T00:00:00	2024-11-08T18:00:00	6	Velocidad del viento	12.9
103558	7	Sololá	713	San Lucas Tolimán	10	San Lucas Tolimán	1	Enero	2023-01-28T00:00:00	2024-11-08T18:00:00	7	Dirección del viento	12.87
103559	7	Sololá	713	San Lucas Tolimán	10	San Lucas Tolimán	1	Enero	2023-01-28T00:00:00	2024-11-08T18:00:00	1	Precipitación	0
103560	7	Sololá	713	San Lucas Tolimán	10	San Lucas Tolimán	1	Enero	2023-01-28T00:00:00	2024-11-08T18:00:00	8	Radiación solar	15
103561	7	Sololá	713	San Lucas Tolimán	10	San Lucas Tolimán	1	Enero	2023-01-28T00:00:00	2024-11-08T19:00:00	2	Temperatura media	19.9
103562	7	Sololá	713	San Lucas Tolimán	10	San Lucas Tolimán	1	Enero	2023-01-28T00:00:00	2024-11-08T19:00:00	4	Temperatura máxima	21
103563	7	Sololá	713	San Lucas Tolimán	10	San Lucas Tolimán	1	Enero	2023-01-28T00:00:00	2024-11-08T19:00:00	3	Temperatura mínima	19.9
103564	7	Sololá	713	San Lucas Tolimán	10	San Lucas Tolimán	1	Enero	2023-01-28T00:00:00	2024-11-08T19:00:00	5	Humedad	35
103565	7	Sololá	713	San Lucas Tolimán	10	San Lucas Tolimán	1	Enero	2023-01-28T00:00:00	2024-11-08T19:00:00	6	Velocidad del viento	11.3
103566	7	Sololá	713	San Lucas Tolimán	10	San Lucas Tolimán	1	Enero	2023-01-28T00:00:00	2024-11-08T19:00:00	7	Dirección del viento	11.27
103567	7	Sololá	713	San Lucas Tolimán	10	San Lucas Tolimán	1	Enero	2023-01-28T00:00:00	2024-11-08T19:00:00	1	Precipitación	0
103568	7	Sololá	713	San Lucas Tolimán	10	San Lucas Tolimán	1	Enero	2023-01-28T00:00:00	2024-11-08T19:00:00	8	Radiación solar	0
103569	7	Sololá	713	San Lucas Tolimán	10	San Lucas Tolimán	1	Enero	2023-01-28T00:00:00	2024-11-08T20:00:00	2	Temperatura media	19.3
103570	7	Sololá	713	San Lucas Tolimán	10	San Lucas Tolimán	1	Enero	2023-01-28T00:00:00	2024-11-08T20:00:00	4	Temperatura máxima	20
103571	7	Sololá	713	San Lucas Tolimán	10	San Lucas Tolimán	1	Enero	2023-01-28T00:00:00	2024-11-08T20:00:00	3	Temperatura mínima	19.2
103572	7	Sololá	713	San Lucas Tolimán	10	San Lucas Tolimán	1	Enero	2023-01-28T00:00:00	2024-11-08T20:00:00	5	Humedad	41
103573	7	Sololá	713	San Lucas Tolimán	10	San Lucas Tolimán	1	Enero	2023-01-28T00:00:00	2024-11-08T20:00:00	6	Velocidad del viento	14.5
103574	7	Sololá	713	San Lucas Tolimán	10	San Lucas Tolimán	1	Enero	2023-01-28T00:00:00	2024-11-08T20:00:00	7	Dirección del viento	14.48
103575	7	Sololá	713	San Lucas Tolimán	10	San Lucas Tolimán	1	Enero	2023-01-28T00:00:00	2024-11-08T20:00:00	1	Precipitación	0
103576	7	Sololá	713	San Lucas Tolimán	10	San Lucas Tolimán	1	Enero	2023-01-28T00:00:00	2024-11-08T20:00:00	8	Radiación solar	0
103577	7	Sololá	713	San Lucas Tolimán	10	San Lucas Tolimán	1	Enero	2023-01-28T00:00:00	2024-11-08T21:00:00	2	Temperatura media	18.3
103578	7	Sololá	713	San Lucas Tolimán	10	San Lucas Tolimán	1	Enero	2023-01-28T00:00:00	2024-11-08T21:00:00	4	Temperatura máxima	19.3
103579	7	Sololá	713	San Lucas Tolimán	10	San Lucas Tolimán	1	Enero	2023-01-28T00:00:00	2024-11-08T21:00:00	3	Temperatura mínima	18.3
103580	7	Sololá	713	San Lucas Tolimán	10	San Lucas Tolimán	1	Enero	2023-01-28T00:00:00	2024-11-08T21:00:00	5	Humedad	41
103581	7	Sololá	713	San Lucas Tolimán	10	San Lucas Tolimán	1	Enero	2023-01-28T00:00:00	2024-11-08T21:00:00	6	Velocidad del viento	12.9
103582	7	Sololá	713	San Lucas Tolimán	10	San Lucas Tolimán	1	Enero	2023-01-28T00:00:00	2024-11-08T21:00:00	7	Dirección del viento	12.87
103583	7	Sololá	713	San Lucas Tolimán	10	San Lucas Tolimán	1	Enero	2023-01-28T00:00:00	2024-11-08T21:00:00	1	Precipitación	0
103584	7	Sololá	713	San Lucas Tolimán	10	San Lucas Tolimán	1	Enero	2023-01-28T00:00:00	2024-11-08T21:00:00	8	Radiación solar	0
103585	7	Sololá	713	San Lucas Tolimán	10	San Lucas Tolimán	1	Enero	2023-01-28T00:00:00	2024-11-08T22:00:00	2	Temperatura media	18.4
103586	7	Sololá	713	San Lucas Tolimán	10	San Lucas Tolimán	1	Enero	2023-01-28T00:00:00	2024-11-08T22:00:00	4	Temperatura máxima	18.9
103587	7	Sololá	713	San Lucas Tolimán	10	San Lucas Tolimán	1	Enero	2023-01-28T00:00:00	2024-11-08T22:00:00	3	Temperatura mínima	18.3
103588	7	Sololá	713	San Lucas Tolimán	10	San Lucas Tolimán	1	Enero	2023-01-28T00:00:00	2024-11-08T22:00:00	5	Humedad	41
103589	7	Sololá	713	San Lucas Tolimán	10	San Lucas Tolimán	1	Enero	2023-01-28T00:00:00	2024-11-08T22:00:00	6	Velocidad del viento	12.9
103590	7	Sololá	713	San Lucas Tolimán	10	San Lucas Tolimán	1	Enero	2023-01-28T00:00:00	2024-11-08T22:00:00	7	Dirección del viento	12.87
103591	7	Sololá	713	San Lucas Tolimán	10	San Lucas Tolimán	1	Enero	2023-01-28T00:00:00	2024-11-08T22:00:00	1	Precipitación	0
103592	7	Sololá	713	San Lucas Tolimán	10	San Lucas Tolimán	1	Enero	2023-01-28T00:00:00	2024-11-08T22:00:00	8	Radiación solar	0
103593	7	Sololá	713	San Lucas Tolimán	10	San Lucas Tolimán	1	Enero	2023-01-28T00:00:00	2024-11-08T23:00:00	2	Temperatura media	16.8
103594	7	Sololá	713	San Lucas Tolimán	10	San Lucas Tolimán	1	Enero	2023-01-28T00:00:00	2024-11-08T23:00:00	4	Temperatura máxima	18.4
103595	7	Sololá	713	San Lucas Tolimán	10	San Lucas Tolimán	1	Enero	2023-01-28T00:00:00	2024-11-08T23:00:00	3	Temperatura mínima	16.8
103596	7	Sololá	713	San Lucas Tolimán	10	San Lucas Tolimán	1	Enero	2023-01-28T00:00:00	2024-11-08T23:00:00	5	Humedad	46
103597	7	Sololá	713	San Lucas Tolimán	10	San Lucas Tolimán	1	Enero	2023-01-28T00:00:00	2024-11-08T23:00:00	6	Velocidad del viento	6.4
103598	7	Sololá	713	San Lucas Tolimán	10	San Lucas Tolimán	1	Enero	2023-01-28T00:00:00	2024-11-08T23:00:00	7	Dirección del viento	6.44
103599	7	Sololá	713	San Lucas Tolimán	10	San Lucas Tolimán	1	Enero	2023-01-28T00:00:00	2024-11-08T23:00:00	1	Precipitación	0
103600	7	Sololá	713	San Lucas Tolimán	10	San Lucas Tolimán	1	Enero	2023-01-28T00:00:00	2024-11-08T23:00:00	8	Radiación solar	0
103601	7	Sololá	713	San Lucas Tolimán	10	San Lucas Tolimán	1	Enero	2023-01-29T00:00:00	2024-11-08T00:00:00	2	Temperatura media	16.8
103602	7	Sololá	713	San Lucas Tolimán	10	San Lucas Tolimán	1	Enero	2023-01-29T00:00:00	2024-11-08T00:00:00	4	Temperatura máxima	16.8
103603	7	Sololá	713	San Lucas Tolimán	10	San Lucas Tolimán	1	Enero	2023-01-29T00:00:00	2024-11-08T00:00:00	3	Temperatura mínima	15.9
103604	7	Sololá	713	San Lucas Tolimán	10	San Lucas Tolimán	1	Enero	2023-01-29T00:00:00	2024-11-08T00:00:00	5	Humedad	46
103605	7	Sololá	713	San Lucas Tolimán	10	San Lucas Tolimán	1	Enero	2023-01-29T00:00:00	2024-11-08T00:00:00	6	Velocidad del viento	6.4
103606	7	Sololá	713	San Lucas Tolimán	10	San Lucas Tolimán	1	Enero	2023-01-29T00:00:00	2024-11-08T00:00:00	7	Dirección del viento	6.44
103607	7	Sololá	713	San Lucas Tolimán	10	San Lucas Tolimán	1	Enero	2023-01-29T00:00:00	2024-11-08T00:00:00	1	Precipitación	0
103608	7	Sololá	713	San Lucas Tolimán	10	San Lucas Tolimán	1	Enero	2023-01-29T00:00:00	2024-11-08T00:00:00	8	Radiación solar	0
103609	7	Sololá	713	San Lucas Tolimán	10	San Lucas Tolimán	1	Enero	2023-01-29T00:00:00	2024-11-08T01:00:00	2	Temperatura media	17.2
103610	7	Sololá	713	San Lucas Tolimán	10	San Lucas Tolimán	1	Enero	2023-01-29T00:00:00	2024-11-08T01:00:00	4	Temperatura máxima	17.3
103611	7	Sololá	713	San Lucas Tolimán	10	San Lucas Tolimán	1	Enero	2023-01-29T00:00:00	2024-11-08T01:00:00	3	Temperatura mínima	15.9
103612	7	Sololá	713	San Lucas Tolimán	10	San Lucas Tolimán	1	Enero	2023-01-29T00:00:00	2024-11-08T01:00:00	5	Humedad	28
103613	7	Sololá	713	San Lucas Tolimán	10	San Lucas Tolimán	1	Enero	2023-01-29T00:00:00	2024-11-08T01:00:00	6	Velocidad del viento	4.8
103614	7	Sololá	713	San Lucas Tolimán	10	San Lucas Tolimán	1	Enero	2023-01-29T00:00:00	2024-11-08T01:00:00	7	Dirección del viento	4.83
103615	7	Sololá	713	San Lucas Tolimán	10	San Lucas Tolimán	1	Enero	2023-01-29T00:00:00	2024-11-08T01:00:00	1	Precipitación	0
103616	7	Sololá	713	San Lucas Tolimán	10	San Lucas Tolimán	1	Enero	2023-01-29T00:00:00	2024-11-08T01:00:00	8	Radiación solar	0
103617	7	Sololá	713	San Lucas Tolimán	10	San Lucas Tolimán	1	Enero	2023-01-29T00:00:00	2024-11-08T02:00:00	2	Temperatura media	15.8
103618	7	Sololá	713	San Lucas Tolimán	10	San Lucas Tolimán	1	Enero	2023-01-29T00:00:00	2024-11-08T02:00:00	4	Temperatura máxima	17.2
103619	7	Sololá	713	San Lucas Tolimán	10	San Lucas Tolimán	1	Enero	2023-01-29T00:00:00	2024-11-08T02:00:00	3	Temperatura mínima	15.8
103620	7	Sololá	713	San Lucas Tolimán	10	San Lucas Tolimán	1	Enero	2023-01-29T00:00:00	2024-11-08T02:00:00	5	Humedad	30
103621	7	Sololá	713	San Lucas Tolimán	10	San Lucas Tolimán	1	Enero	2023-01-29T00:00:00	2024-11-08T02:00:00	6	Velocidad del viento	3.2
103622	7	Sololá	713	San Lucas Tolimán	10	San Lucas Tolimán	1	Enero	2023-01-29T00:00:00	2024-11-08T02:00:00	7	Dirección del viento	3.22
103623	7	Sololá	713	San Lucas Tolimán	10	San Lucas Tolimán	1	Enero	2023-01-29T00:00:00	2024-11-08T02:00:00	1	Precipitación	0
103624	7	Sololá	713	San Lucas Tolimán	10	San Lucas Tolimán	1	Enero	2023-01-29T00:00:00	2024-11-08T02:00:00	8	Radiación solar	0
103625	7	Sololá	713	San Lucas Tolimán	10	San Lucas Tolimán	1	Enero	2023-01-29T00:00:00	2024-11-08T03:00:00	2	Temperatura media	15.1
103626	7	Sololá	713	San Lucas Tolimán	10	San Lucas Tolimán	1	Enero	2023-01-29T00:00:00	2024-11-08T03:00:00	4	Temperatura máxima	15.9
103627	7	Sololá	713	San Lucas Tolimán	10	San Lucas Tolimán	1	Enero	2023-01-29T00:00:00	2024-11-08T03:00:00	3	Temperatura mínima	15
103628	7	Sololá	713	San Lucas Tolimán	10	San Lucas Tolimán	1	Enero	2023-01-29T00:00:00	2024-11-08T03:00:00	5	Humedad	33
103629	7	Sololá	713	San Lucas Tolimán	10	San Lucas Tolimán	1	Enero	2023-01-29T00:00:00	2024-11-08T03:00:00	6	Velocidad del viento	3.2
103630	7	Sololá	713	San Lucas Tolimán	10	San Lucas Tolimán	1	Enero	2023-01-29T00:00:00	2024-11-08T03:00:00	7	Dirección del viento	3.22
103631	7	Sololá	713	San Lucas Tolimán	10	San Lucas Tolimán	1	Enero	2023-01-29T00:00:00	2024-11-08T03:00:00	1	Precipitación	0
103632	7	Sololá	713	San Lucas Tolimán	10	San Lucas Tolimán	1	Enero	2023-01-29T00:00:00	2024-11-08T03:00:00	8	Radiación solar	0
103633	7	Sololá	713	San Lucas Tolimán	10	San Lucas Tolimán	1	Enero	2023-01-29T00:00:00	2024-11-08T04:00:00	2	Temperatura media	15.9
103634	7	Sololá	713	San Lucas Tolimán	10	San Lucas Tolimán	1	Enero	2023-01-29T00:00:00	2024-11-08T04:00:00	4	Temperatura máxima	16.6
103635	7	Sololá	713	San Lucas Tolimán	10	San Lucas Tolimán	1	Enero	2023-01-29T00:00:00	2024-11-08T04:00:00	3	Temperatura mínima	15.1
103636	7	Sololá	713	San Lucas Tolimán	10	San Lucas Tolimán	1	Enero	2023-01-29T00:00:00	2024-11-08T04:00:00	5	Humedad	31
103637	7	Sololá	713	San Lucas Tolimán	10	San Lucas Tolimán	1	Enero	2023-01-29T00:00:00	2024-11-08T04:00:00	6	Velocidad del viento	6.4
103638	7	Sololá	713	San Lucas Tolimán	10	San Lucas Tolimán	1	Enero	2023-01-29T00:00:00	2024-11-08T04:00:00	7	Dirección del viento	6.44
103639	7	Sololá	713	San Lucas Tolimán	10	San Lucas Tolimán	1	Enero	2023-01-29T00:00:00	2024-11-08T04:00:00	1	Precipitación	0
103640	7	Sololá	713	San Lucas Tolimán	10	San Lucas Tolimán	1	Enero	2023-01-29T00:00:00	2024-11-08T04:00:00	8	Radiación solar	0
103641	7	Sololá	713	San Lucas Tolimán	10	San Lucas Tolimán	1	Enero	2023-01-29T00:00:00	2024-11-08T05:00:00	2	Temperatura media	16.5
103642	7	Sololá	713	San Lucas Tolimán	10	San Lucas Tolimán	1	Enero	2023-01-29T00:00:00	2024-11-08T05:00:00	4	Temperatura máxima	17.1
103643	7	Sololá	713	San Lucas Tolimán	10	San Lucas Tolimán	1	Enero	2023-01-29T00:00:00	2024-11-08T05:00:00	3	Temperatura mínima	15.9
103644	7	Sololá	713	San Lucas Tolimán	10	San Lucas Tolimán	1	Enero	2023-01-29T00:00:00	2024-11-08T05:00:00	5	Humedad	29
103645	7	Sololá	713	San Lucas Tolimán	10	San Lucas Tolimán	1	Enero	2023-01-29T00:00:00	2024-11-08T05:00:00	6	Velocidad del viento	9.7
103646	7	Sololá	713	San Lucas Tolimán	10	San Lucas Tolimán	1	Enero	2023-01-29T00:00:00	2024-11-08T05:00:00	7	Dirección del viento	9.66
103647	7	Sololá	713	San Lucas Tolimán	10	San Lucas Tolimán	1	Enero	2023-01-29T00:00:00	2024-11-08T05:00:00	1	Precipitación	0
103648	7	Sololá	713	San Lucas Tolimán	10	San Lucas Tolimán	1	Enero	2023-01-29T00:00:00	2024-11-08T05:00:00	8	Radiación solar	0
103649	7	Sololá	713	San Lucas Tolimán	10	San Lucas Tolimán	1	Enero	2023-01-29T00:00:00	2024-11-08T06:00:00	2	Temperatura media	15.4
103650	7	Sololá	713	San Lucas Tolimán	10	San Lucas Tolimán	1	Enero	2023-01-29T00:00:00	2024-11-08T06:00:00	4	Temperatura máxima	16.5
103651	7	Sololá	713	San Lucas Tolimán	10	San Lucas Tolimán	1	Enero	2023-01-29T00:00:00	2024-11-08T06:00:00	3	Temperatura mínima	14.8
103652	7	Sololá	713	San Lucas Tolimán	10	San Lucas Tolimán	1	Enero	2023-01-29T00:00:00	2024-11-08T06:00:00	5	Humedad	29
103653	7	Sololá	713	San Lucas Tolimán	10	San Lucas Tolimán	1	Enero	2023-01-29T00:00:00	2024-11-08T06:00:00	6	Velocidad del viento	3.2
103654	7	Sololá	713	San Lucas Tolimán	10	San Lucas Tolimán	1	Enero	2023-01-29T00:00:00	2024-11-08T06:00:00	7	Dirección del viento	3.22
103655	7	Sololá	713	San Lucas Tolimán	10	San Lucas Tolimán	1	Enero	2023-01-29T00:00:00	2024-11-08T06:00:00	1	Precipitación	0
103656	7	Sololá	713	San Lucas Tolimán	10	San Lucas Tolimán	1	Enero	2023-01-29T00:00:00	2024-11-08T06:00:00	8	Radiación solar	0
103657	7	Sololá	713	San Lucas Tolimán	10	San Lucas Tolimán	1	Enero	2023-01-29T00:00:00	2024-11-08T07:00:00	2	Temperatura media	15
103658	7	Sololá	713	San Lucas Tolimán	10	San Lucas Tolimán	1	Enero	2023-01-29T00:00:00	2024-11-08T07:00:00	4	Temperatura máxima	15.8
103659	7	Sololá	713	San Lucas Tolimán	10	San Lucas Tolimán	1	Enero	2023-01-29T00:00:00	2024-11-08T07:00:00	3	Temperatura mínima	15
103660	7	Sololá	713	San Lucas Tolimán	10	San Lucas Tolimán	1	Enero	2023-01-29T00:00:00	2024-11-08T07:00:00	5	Humedad	33
103661	7	Sololá	713	San Lucas Tolimán	10	San Lucas Tolimán	1	Enero	2023-01-29T00:00:00	2024-11-08T07:00:00	6	Velocidad del viento	4.8
103662	7	Sololá	713	San Lucas Tolimán	10	San Lucas Tolimán	1	Enero	2023-01-29T00:00:00	2024-11-08T07:00:00	7	Dirección del viento	4.83
103663	7	Sololá	713	San Lucas Tolimán	10	San Lucas Tolimán	1	Enero	2023-01-29T00:00:00	2024-11-08T07:00:00	1	Precipitación	0
103664	7	Sololá	713	San Lucas Tolimán	10	San Lucas Tolimán	1	Enero	2023-01-29T00:00:00	2024-11-08T07:00:00	8	Radiación solar	3
103665	7	Sololá	713	San Lucas Tolimán	10	San Lucas Tolimán	1	Enero	2023-01-29T00:00:00	2024-11-08T08:00:00	2	Temperatura media	17.2
103666	7	Sololá	713	San Lucas Tolimán	10	San Lucas Tolimán	1	Enero	2023-01-29T00:00:00	2024-11-08T08:00:00	4	Temperatura máxima	17.3
103667	7	Sololá	713	San Lucas Tolimán	10	San Lucas Tolimán	1	Enero	2023-01-29T00:00:00	2024-11-08T08:00:00	3	Temperatura mínima	14.4
103668	7	Sololá	713	San Lucas Tolimán	10	San Lucas Tolimán	1	Enero	2023-01-29T00:00:00	2024-11-08T08:00:00	5	Humedad	27
103669	7	Sololá	713	San Lucas Tolimán	10	San Lucas Tolimán	1	Enero	2023-01-29T00:00:00	2024-11-08T08:00:00	6	Velocidad del viento	11.3
103670	7	Sololá	713	San Lucas Tolimán	10	San Lucas Tolimán	1	Enero	2023-01-29T00:00:00	2024-11-08T08:00:00	7	Dirección del viento	11.27
103671	7	Sololá	713	San Lucas Tolimán	10	San Lucas Tolimán	1	Enero	2023-01-29T00:00:00	2024-11-08T08:00:00	1	Precipitación	0
103672	7	Sololá	713	San Lucas Tolimán	10	San Lucas Tolimán	1	Enero	2023-01-29T00:00:00	2024-11-08T08:00:00	8	Radiación solar	19
103673	7	Sololá	713	San Lucas Tolimán	10	San Lucas Tolimán	1	Enero	2023-01-29T00:00:00	2024-11-08T09:00:00	2	Temperatura media	19.6
103674	7	Sololá	713	San Lucas Tolimán	10	San Lucas Tolimán	1	Enero	2023-01-29T00:00:00	2024-11-08T09:00:00	4	Temperatura máxima	19.6
103675	7	Sololá	713	San Lucas Tolimán	10	San Lucas Tolimán	1	Enero	2023-01-29T00:00:00	2024-11-08T09:00:00	3	Temperatura mínima	17.2
103676	7	Sololá	713	San Lucas Tolimán	10	San Lucas Tolimán	1	Enero	2023-01-29T00:00:00	2024-11-08T09:00:00	5	Humedad	28
103677	7	Sololá	713	San Lucas Tolimán	10	San Lucas Tolimán	1	Enero	2023-01-29T00:00:00	2024-11-08T09:00:00	6	Velocidad del viento	4.8
103678	7	Sololá	713	San Lucas Tolimán	10	San Lucas Tolimán	1	Enero	2023-01-29T00:00:00	2024-11-08T09:00:00	7	Dirección del viento	4.83
103679	7	Sololá	713	San Lucas Tolimán	10	San Lucas Tolimán	1	Enero	2023-01-29T00:00:00	2024-11-08T09:00:00	1	Precipitación	0
103680	7	Sololá	713	San Lucas Tolimán	10	San Lucas Tolimán	1	Enero	2023-01-29T00:00:00	2024-11-08T09:00:00	8	Radiación solar	331
103681	7	Sololá	713	San Lucas Tolimán	10	San Lucas Tolimán	1	Enero	2023-01-29T00:00:00	2024-11-08T10:00:00	2	Temperatura media	21.2
103682	7	Sololá	713	San Lucas Tolimán	10	San Lucas Tolimán	1	Enero	2023-01-29T00:00:00	2024-11-08T10:00:00	4	Temperatura máxima	21.2
103683	7	Sololá	713	San Lucas Tolimán	10	San Lucas Tolimán	1	Enero	2023-01-29T00:00:00	2024-11-08T10:00:00	3	Temperatura mínima	19.6
103684	7	Sololá	713	San Lucas Tolimán	10	San Lucas Tolimán	1	Enero	2023-01-29T00:00:00	2024-11-08T10:00:00	5	Humedad	28
103685	7	Sololá	713	San Lucas Tolimán	10	San Lucas Tolimán	1	Enero	2023-01-29T00:00:00	2024-11-08T10:00:00	6	Velocidad del viento	11.3
103686	7	Sololá	713	San Lucas Tolimán	10	San Lucas Tolimán	1	Enero	2023-01-29T00:00:00	2024-11-08T10:00:00	7	Dirección del viento	11.27
103687	7	Sololá	713	San Lucas Tolimán	10	San Lucas Tolimán	1	Enero	2023-01-29T00:00:00	2024-11-08T10:00:00	1	Precipitación	0
103688	7	Sololá	713	San Lucas Tolimán	10	San Lucas Tolimán	1	Enero	2023-01-29T00:00:00	2024-11-08T10:00:00	8	Radiación solar	634
103689	7	Sololá	713	San Lucas Tolimán	10	San Lucas Tolimán	1	Enero	2023-01-29T00:00:00	2024-11-08T11:00:00	2	Temperatura media	22.9
103690	7	Sololá	713	San Lucas Tolimán	10	San Lucas Tolimán	1	Enero	2023-01-29T00:00:00	2024-11-08T11:00:00	4	Temperatura máxima	22.9
103691	7	Sololá	713	San Lucas Tolimán	10	San Lucas Tolimán	1	Enero	2023-01-29T00:00:00	2024-11-08T11:00:00	3	Temperatura mínima	21.2
103692	7	Sololá	713	San Lucas Tolimán	10	San Lucas Tolimán	1	Enero	2023-01-29T00:00:00	2024-11-08T11:00:00	5	Humedad	22
103693	7	Sololá	713	San Lucas Tolimán	10	San Lucas Tolimán	1	Enero	2023-01-29T00:00:00	2024-11-08T11:00:00	6	Velocidad del viento	14.5
103694	7	Sololá	713	San Lucas Tolimán	10	San Lucas Tolimán	1	Enero	2023-01-29T00:00:00	2024-11-08T11:00:00	7	Dirección del viento	14.48
103695	7	Sololá	713	San Lucas Tolimán	10	San Lucas Tolimán	1	Enero	2023-01-29T00:00:00	2024-11-08T11:00:00	1	Precipitación	0
103696	7	Sololá	713	San Lucas Tolimán	10	San Lucas Tolimán	1	Enero	2023-01-29T00:00:00	2024-11-08T11:00:00	8	Radiación solar	809
103697	7	Sololá	713	San Lucas Tolimán	10	San Lucas Tolimán	1	Enero	2023-01-29T00:00:00	2024-11-08T12:00:00	2	Temperatura media	24.2
103698	7	Sololá	713	San Lucas Tolimán	10	San Lucas Tolimán	1	Enero	2023-01-29T00:00:00	2024-11-08T12:00:00	4	Temperatura máxima	24.6
103699	7	Sololá	713	San Lucas Tolimán	10	San Lucas Tolimán	1	Enero	2023-01-29T00:00:00	2024-11-08T12:00:00	3	Temperatura mínima	22.9
103700	7	Sololá	713	San Lucas Tolimán	10	San Lucas Tolimán	1	Enero	2023-01-29T00:00:00	2024-11-08T12:00:00	5	Humedad	36
103701	7	Sololá	713	San Lucas Tolimán	10	San Lucas Tolimán	1	Enero	2023-01-29T00:00:00	2024-11-08T12:00:00	6	Velocidad del viento	8
103702	7	Sololá	713	San Lucas Tolimán	10	San Lucas Tolimán	1	Enero	2023-01-29T00:00:00	2024-11-08T12:00:00	7	Dirección del viento	8.05
103703	7	Sololá	713	San Lucas Tolimán	10	San Lucas Tolimán	1	Enero	2023-01-29T00:00:00	2024-11-08T12:00:00	1	Precipitación	0
103704	7	Sololá	713	San Lucas Tolimán	10	San Lucas Tolimán	1	Enero	2023-01-29T00:00:00	2024-11-08T12:00:00	8	Radiación solar	910
103705	7	Sololá	713	San Lucas Tolimán	10	San Lucas Tolimán	1	Enero	2023-01-29T00:00:00	2024-11-08T13:00:00	2	Temperatura media	24.1
103706	7	Sololá	713	San Lucas Tolimán	10	San Lucas Tolimán	1	Enero	2023-01-29T00:00:00	2024-11-08T13:00:00	4	Temperatura máxima	24.6
103707	7	Sololá	713	San Lucas Tolimán	10	San Lucas Tolimán	1	Enero	2023-01-29T00:00:00	2024-11-08T13:00:00	3	Temperatura mínima	23.9
103708	7	Sololá	713	San Lucas Tolimán	10	San Lucas Tolimán	1	Enero	2023-01-29T00:00:00	2024-11-08T13:00:00	5	Humedad	37
103709	7	Sololá	713	San Lucas Tolimán	10	San Lucas Tolimán	1	Enero	2023-01-29T00:00:00	2024-11-08T13:00:00	6	Velocidad del viento	9.7
103710	7	Sololá	713	San Lucas Tolimán	10	San Lucas Tolimán	1	Enero	2023-01-29T00:00:00	2024-11-08T13:00:00	7	Dirección del viento	9.66
103711	7	Sololá	713	San Lucas Tolimán	10	San Lucas Tolimán	1	Enero	2023-01-29T00:00:00	2024-11-08T13:00:00	1	Precipitación	0
103712	7	Sololá	713	San Lucas Tolimán	10	San Lucas Tolimán	1	Enero	2023-01-29T00:00:00	2024-11-08T13:00:00	8	Radiación solar	934
103713	7	Sololá	713	San Lucas Tolimán	10	San Lucas Tolimán	1	Enero	2023-01-29T00:00:00	2024-11-08T14:00:00	2	Temperatura media	23.4
103714	7	Sololá	713	San Lucas Tolimán	10	San Lucas Tolimán	1	Enero	2023-01-29T00:00:00	2024-11-08T14:00:00	4	Temperatura máxima	24.4
103715	7	Sololá	713	San Lucas Tolimán	10	San Lucas Tolimán	1	Enero	2023-01-29T00:00:00	2024-11-08T14:00:00	3	Temperatura mínima	22.9
103716	7	Sololá	713	San Lucas Tolimán	10	San Lucas Tolimán	1	Enero	2023-01-29T00:00:00	2024-11-08T14:00:00	5	Humedad	44
103717	7	Sololá	713	San Lucas Tolimán	10	San Lucas Tolimán	1	Enero	2023-01-29T00:00:00	2024-11-08T14:00:00	6	Velocidad del viento	11.3
103718	7	Sololá	713	San Lucas Tolimán	10	San Lucas Tolimán	1	Enero	2023-01-29T00:00:00	2024-11-08T14:00:00	7	Dirección del viento	11.27
103719	7	Sololá	713	San Lucas Tolimán	10	San Lucas Tolimán	1	Enero	2023-01-29T00:00:00	2024-11-08T14:00:00	1	Precipitación	0
103720	7	Sololá	713	San Lucas Tolimán	10	San Lucas Tolimán	1	Enero	2023-01-29T00:00:00	2024-11-08T14:00:00	8	Radiación solar	873
103721	7	Sololá	713	San Lucas Tolimán	10	San Lucas Tolimán	1	Enero	2023-01-29T00:00:00	2024-11-08T15:00:00	2	Temperatura media	22.3
103722	7	Sololá	713	San Lucas Tolimán	10	San Lucas Tolimán	1	Enero	2023-01-29T00:00:00	2024-11-08T15:00:00	4	Temperatura máxima	23.4
103723	7	Sololá	713	San Lucas Tolimán	10	San Lucas Tolimán	1	Enero	2023-01-29T00:00:00	2024-11-08T15:00:00	3	Temperatura mínima	22.3
103724	7	Sololá	713	San Lucas Tolimán	10	San Lucas Tolimán	1	Enero	2023-01-29T00:00:00	2024-11-08T15:00:00	5	Humedad	43
103725	7	Sololá	713	San Lucas Tolimán	10	San Lucas Tolimán	1	Enero	2023-01-29T00:00:00	2024-11-08T15:00:00	6	Velocidad del viento	14.5
103726	7	Sololá	713	San Lucas Tolimán	10	San Lucas Tolimán	1	Enero	2023-01-29T00:00:00	2024-11-08T15:00:00	7	Dirección del viento	14.48
103727	7	Sololá	713	San Lucas Tolimán	10	San Lucas Tolimán	1	Enero	2023-01-29T00:00:00	2024-11-08T15:00:00	1	Precipitación	0
103728	7	Sololá	713	San Lucas Tolimán	10	San Lucas Tolimán	1	Enero	2023-01-29T00:00:00	2024-11-08T15:00:00	8	Radiación solar	741
103729	7	Sololá	713	San Lucas Tolimán	10	San Lucas Tolimán	1	Enero	2023-01-29T00:00:00	2024-11-08T16:00:00	2	Temperatura media	22.4
103730	7	Sololá	713	San Lucas Tolimán	10	San Lucas Tolimán	1	Enero	2023-01-29T00:00:00	2024-11-08T16:00:00	4	Temperatura máxima	22.9
103731	7	Sololá	713	San Lucas Tolimán	10	San Lucas Tolimán	1	Enero	2023-01-29T00:00:00	2024-11-08T16:00:00	3	Temperatura mínima	22.2
103732	7	Sololá	713	San Lucas Tolimán	10	San Lucas Tolimán	1	Enero	2023-01-29T00:00:00	2024-11-08T16:00:00	5	Humedad	44
103733	7	Sololá	713	San Lucas Tolimán	10	San Lucas Tolimán	1	Enero	2023-01-29T00:00:00	2024-11-08T16:00:00	6	Velocidad del viento	12.9
103734	7	Sololá	713	San Lucas Tolimán	10	San Lucas Tolimán	1	Enero	2023-01-29T00:00:00	2024-11-08T16:00:00	7	Dirección del viento	12.87
103735	7	Sololá	713	San Lucas Tolimán	10	San Lucas Tolimán	1	Enero	2023-01-29T00:00:00	2024-11-08T16:00:00	1	Precipitación	0
103736	7	Sololá	713	San Lucas Tolimán	10	San Lucas Tolimán	1	Enero	2023-01-29T00:00:00	2024-11-08T16:00:00	8	Radiación solar	546
103737	7	Sololá	713	San Lucas Tolimán	10	San Lucas Tolimán	1	Enero	2023-01-29T00:00:00	2024-11-08T17:00:00	2	Temperatura media	21.1
103738	7	Sololá	713	San Lucas Tolimán	10	San Lucas Tolimán	1	Enero	2023-01-29T00:00:00	2024-11-08T17:00:00	4	Temperatura máxima	22.6
103739	7	Sololá	713	San Lucas Tolimán	10	San Lucas Tolimán	1	Enero	2023-01-29T00:00:00	2024-11-08T17:00:00	3	Temperatura mínima	21.1
103740	7	Sololá	713	San Lucas Tolimán	10	San Lucas Tolimán	1	Enero	2023-01-29T00:00:00	2024-11-08T17:00:00	5	Humedad	48
103741	7	Sololá	713	San Lucas Tolimán	10	San Lucas Tolimán	1	Enero	2023-01-29T00:00:00	2024-11-08T17:00:00	6	Velocidad del viento	9.7
103742	7	Sololá	713	San Lucas Tolimán	10	San Lucas Tolimán	1	Enero	2023-01-29T00:00:00	2024-11-08T17:00:00	7	Dirección del viento	9.66
103743	7	Sololá	713	San Lucas Tolimán	10	San Lucas Tolimán	1	Enero	2023-01-29T00:00:00	2024-11-08T17:00:00	1	Precipitación	0
103744	7	Sololá	713	San Lucas Tolimán	10	San Lucas Tolimán	1	Enero	2023-01-29T00:00:00	2024-11-08T17:00:00	8	Radiación solar	286
103745	7	Sololá	713	San Lucas Tolimán	10	San Lucas Tolimán	1	Enero	2023-01-29T00:00:00	2024-11-08T18:00:00	2	Temperatura media	18.6
103746	7	Sololá	713	San Lucas Tolimán	10	San Lucas Tolimán	1	Enero	2023-01-29T00:00:00	2024-11-08T18:00:00	4	Temperatura máxima	21.1
103747	7	Sololá	713	San Lucas Tolimán	10	San Lucas Tolimán	1	Enero	2023-01-29T00:00:00	2024-11-08T18:00:00	3	Temperatura mínima	18.6
103748	7	Sololá	713	San Lucas Tolimán	10	San Lucas Tolimán	1	Enero	2023-01-29T00:00:00	2024-11-08T18:00:00	5	Humedad	56
103749	7	Sololá	713	San Lucas Tolimán	10	San Lucas Tolimán	1	Enero	2023-01-29T00:00:00	2024-11-08T18:00:00	6	Velocidad del viento	6.4
103750	7	Sololá	713	San Lucas Tolimán	10	San Lucas Tolimán	1	Enero	2023-01-29T00:00:00	2024-11-08T18:00:00	7	Dirección del viento	6.44
103751	7	Sololá	713	San Lucas Tolimán	10	San Lucas Tolimán	1	Enero	2023-01-29T00:00:00	2024-11-08T18:00:00	1	Precipitación	0
103752	7	Sololá	713	San Lucas Tolimán	10	San Lucas Tolimán	1	Enero	2023-01-29T00:00:00	2024-11-08T18:00:00	8	Radiación solar	18
103753	7	Sololá	713	San Lucas Tolimán	10	San Lucas Tolimán	1	Enero	2023-01-29T00:00:00	2024-11-08T19:00:00	2	Temperatura media	17.7
103754	7	Sololá	713	San Lucas Tolimán	10	San Lucas Tolimán	1	Enero	2023-01-29T00:00:00	2024-11-08T19:00:00	4	Temperatura máxima	18.6
103755	7	Sololá	713	San Lucas Tolimán	10	San Lucas Tolimán	1	Enero	2023-01-29T00:00:00	2024-11-08T19:00:00	3	Temperatura mínima	17.5
103756	7	Sololá	713	San Lucas Tolimán	10	San Lucas Tolimán	1	Enero	2023-01-29T00:00:00	2024-11-08T19:00:00	5	Humedad	54
103757	7	Sololá	713	San Lucas Tolimán	10	San Lucas Tolimán	1	Enero	2023-01-29T00:00:00	2024-11-08T19:00:00	6	Velocidad del viento	3.2
103758	7	Sololá	713	San Lucas Tolimán	10	San Lucas Tolimán	1	Enero	2023-01-29T00:00:00	2024-11-08T19:00:00	7	Dirección del viento	3.22
103759	7	Sololá	713	San Lucas Tolimán	10	San Lucas Tolimán	1	Enero	2023-01-29T00:00:00	2024-11-08T19:00:00	1	Precipitación	0
103760	7	Sololá	713	San Lucas Tolimán	10	San Lucas Tolimán	1	Enero	2023-01-29T00:00:00	2024-11-08T19:00:00	8	Radiación solar	0
103761	7	Sololá	713	San Lucas Tolimán	10	San Lucas Tolimán	1	Enero	2023-01-29T00:00:00	2024-11-08T20:00:00	2	Temperatura media	18.8
103762	7	Sololá	713	San Lucas Tolimán	10	San Lucas Tolimán	1	Enero	2023-01-29T00:00:00	2024-11-08T20:00:00	4	Temperatura máxima	19.2
103763	7	Sololá	713	San Lucas Tolimán	10	San Lucas Tolimán	1	Enero	2023-01-29T00:00:00	2024-11-08T20:00:00	3	Temperatura mínima	17.7
103764	7	Sololá	713	San Lucas Tolimán	10	San Lucas Tolimán	1	Enero	2023-01-29T00:00:00	2024-11-08T20:00:00	5	Humedad	48
103765	7	Sololá	713	San Lucas Tolimán	10	San Lucas Tolimán	1	Enero	2023-01-29T00:00:00	2024-11-08T20:00:00	6	Velocidad del viento	6.4
103766	7	Sololá	713	San Lucas Tolimán	10	San Lucas Tolimán	1	Enero	2023-01-29T00:00:00	2024-11-08T20:00:00	7	Dirección del viento	6.44
103767	7	Sololá	713	San Lucas Tolimán	10	San Lucas Tolimán	1	Enero	2023-01-29T00:00:00	2024-11-08T20:00:00	1	Precipitación	0
103768	7	Sololá	713	San Lucas Tolimán	10	San Lucas Tolimán	1	Enero	2023-01-29T00:00:00	2024-11-08T20:00:00	8	Radiación solar	0
103769	7	Sololá	713	San Lucas Tolimán	10	San Lucas Tolimán	1	Enero	2023-01-29T00:00:00	2024-11-08T21:00:00	2	Temperatura media	18.6
103770	7	Sololá	713	San Lucas Tolimán	10	San Lucas Tolimán	1	Enero	2023-01-29T00:00:00	2024-11-08T21:00:00	4	Temperatura máxima	19.3
103771	7	Sololá	713	San Lucas Tolimán	10	San Lucas Tolimán	1	Enero	2023-01-29T00:00:00	2024-11-08T21:00:00	3	Temperatura mínima	18.5
103772	7	Sololá	713	San Lucas Tolimán	10	San Lucas Tolimán	1	Enero	2023-01-29T00:00:00	2024-11-08T21:00:00	5	Humedad	46
103773	7	Sololá	713	San Lucas Tolimán	10	San Lucas Tolimán	1	Enero	2023-01-29T00:00:00	2024-11-08T21:00:00	6	Velocidad del viento	16.1
103774	7	Sololá	713	San Lucas Tolimán	10	San Lucas Tolimán	1	Enero	2023-01-29T00:00:00	2024-11-08T21:00:00	7	Dirección del viento	16.09
103775	7	Sololá	713	San Lucas Tolimán	10	San Lucas Tolimán	1	Enero	2023-01-29T00:00:00	2024-11-08T21:00:00	1	Precipitación	0
103776	7	Sololá	713	San Lucas Tolimán	10	San Lucas Tolimán	1	Enero	2023-01-29T00:00:00	2024-11-08T21:00:00	8	Radiación solar	0
103777	7	Sololá	713	San Lucas Tolimán	10	San Lucas Tolimán	1	Enero	2023-01-29T00:00:00	2024-11-08T22:00:00	2	Temperatura media	17.7
103778	7	Sololá	713	San Lucas Tolimán	10	San Lucas Tolimán	1	Enero	2023-01-29T00:00:00	2024-11-08T22:00:00	4	Temperatura máxima	18.6
103779	7	Sololá	713	San Lucas Tolimán	10	San Lucas Tolimán	1	Enero	2023-01-29T00:00:00	2024-11-08T22:00:00	3	Temperatura mínima	17.6
103780	7	Sololá	713	San Lucas Tolimán	10	San Lucas Tolimán	1	Enero	2023-01-29T00:00:00	2024-11-08T22:00:00	5	Humedad	48
103781	7	Sololá	713	San Lucas Tolimán	10	San Lucas Tolimán	1	Enero	2023-01-29T00:00:00	2024-11-08T22:00:00	6	Velocidad del viento	4.8
103782	7	Sololá	713	San Lucas Tolimán	10	San Lucas Tolimán	1	Enero	2023-01-29T00:00:00	2024-11-08T22:00:00	7	Dirección del viento	4.83
103783	7	Sololá	713	San Lucas Tolimán	10	San Lucas Tolimán	1	Enero	2023-01-29T00:00:00	2024-11-08T22:00:00	1	Precipitación	0
103784	7	Sololá	713	San Lucas Tolimán	10	San Lucas Tolimán	1	Enero	2023-01-29T00:00:00	2024-11-08T22:00:00	8	Radiación solar	0
103785	7	Sololá	713	San Lucas Tolimán	10	San Lucas Tolimán	1	Enero	2023-01-29T00:00:00	2024-11-08T23:00:00	2	Temperatura media	16.3
103786	7	Sololá	713	San Lucas Tolimán	10	San Lucas Tolimán	1	Enero	2023-01-29T00:00:00	2024-11-08T23:00:00	4	Temperatura máxima	17.7
103787	7	Sololá	713	San Lucas Tolimán	10	San Lucas Tolimán	1	Enero	2023-01-29T00:00:00	2024-11-08T23:00:00	3	Temperatura mínima	16.3
103788	7	Sololá	713	San Lucas Tolimán	10	San Lucas Tolimán	1	Enero	2023-01-29T00:00:00	2024-11-08T23:00:00	5	Humedad	54
103789	7	Sololá	713	San Lucas Tolimán	10	San Lucas Tolimán	1	Enero	2023-01-29T00:00:00	2024-11-08T23:00:00	6	Velocidad del viento	3.2
103790	7	Sololá	713	San Lucas Tolimán	10	San Lucas Tolimán	1	Enero	2023-01-29T00:00:00	2024-11-08T23:00:00	7	Dirección del viento	3.22
103791	7	Sololá	713	San Lucas Tolimán	10	San Lucas Tolimán	1	Enero	2023-01-29T00:00:00	2024-11-08T23:00:00	1	Precipitación	0
103792	7	Sololá	713	San Lucas Tolimán	10	San Lucas Tolimán	1	Enero	2023-01-29T00:00:00	2024-11-08T23:00:00	8	Radiación solar	0
103793	7	Sololá	713	San Lucas Tolimán	10	San Lucas Tolimán	1	Enero	2023-01-30T00:00:00	2024-11-08T00:00:00	2	Temperatura media	15.7
103794	7	Sololá	713	San Lucas Tolimán	10	San Lucas Tolimán	1	Enero	2023-01-30T00:00:00	2024-11-08T00:00:00	4	Temperatura máxima	16.3
103795	7	Sololá	713	San Lucas Tolimán	10	San Lucas Tolimán	1	Enero	2023-01-30T00:00:00	2024-11-08T00:00:00	3	Temperatura mínima	15.7
103796	7	Sololá	713	San Lucas Tolimán	10	San Lucas Tolimán	1	Enero	2023-01-30T00:00:00	2024-11-08T00:00:00	5	Humedad	57
103797	7	Sololá	713	San Lucas Tolimán	10	San Lucas Tolimán	1	Enero	2023-01-30T00:00:00	2024-11-08T00:00:00	6	Velocidad del viento	4.8
103798	7	Sololá	713	San Lucas Tolimán	10	San Lucas Tolimán	1	Enero	2023-01-30T00:00:00	2024-11-08T00:00:00	7	Dirección del viento	4.83
103799	7	Sololá	713	San Lucas Tolimán	10	San Lucas Tolimán	1	Enero	2023-01-30T00:00:00	2024-11-08T00:00:00	1	Precipitación	0
103800	7	Sololá	713	San Lucas Tolimán	10	San Lucas Tolimán	1	Enero	2023-01-30T00:00:00	2024-11-08T00:00:00	8	Radiación solar	0
103801	7	Sololá	713	San Lucas Tolimán	10	San Lucas Tolimán	1	Enero	2023-01-30T00:00:00	2024-11-08T01:00:00	2	Temperatura media	14.9
103802	7	Sololá	713	San Lucas Tolimán	10	San Lucas Tolimán	1	Enero	2023-01-30T00:00:00	2024-11-08T01:00:00	4	Temperatura máxima	15.7
103803	7	Sololá	713	San Lucas Tolimán	10	San Lucas Tolimán	1	Enero	2023-01-30T00:00:00	2024-11-08T01:00:00	3	Temperatura mínima	14.9
103804	7	Sololá	713	San Lucas Tolimán	10	San Lucas Tolimán	1	Enero	2023-01-30T00:00:00	2024-11-08T01:00:00	5	Humedad	59
103805	7	Sololá	713	San Lucas Tolimán	10	San Lucas Tolimán	1	Enero	2023-01-30T00:00:00	2024-11-08T01:00:00	6	Velocidad del viento	4.8
103806	7	Sololá	713	San Lucas Tolimán	10	San Lucas Tolimán	1	Enero	2023-01-30T00:00:00	2024-11-08T01:00:00	7	Dirección del viento	4.83
103807	7	Sololá	713	San Lucas Tolimán	10	San Lucas Tolimán	1	Enero	2023-01-30T00:00:00	2024-11-08T01:00:00	1	Precipitación	0
103808	7	Sololá	713	San Lucas Tolimán	10	San Lucas Tolimán	1	Enero	2023-01-30T00:00:00	2024-11-08T01:00:00	8	Radiación solar	0
103809	7	Sololá	713	San Lucas Tolimán	10	San Lucas Tolimán	1	Enero	2023-01-30T00:00:00	2024-11-08T02:00:00	2	Temperatura media	14.6
103810	7	Sololá	713	San Lucas Tolimán	10	San Lucas Tolimán	1	Enero	2023-01-30T00:00:00	2024-11-08T02:00:00	4	Temperatura máxima	15.3
103811	7	Sololá	713	San Lucas Tolimán	10	San Lucas Tolimán	1	Enero	2023-01-30T00:00:00	2024-11-08T02:00:00	3	Temperatura mínima	14.6
103812	7	Sololá	713	San Lucas Tolimán	10	San Lucas Tolimán	1	Enero	2023-01-30T00:00:00	2024-11-08T02:00:00	5	Humedad	59
103813	7	Sololá	713	San Lucas Tolimán	10	San Lucas Tolimán	1	Enero	2023-01-30T00:00:00	2024-11-08T02:00:00	6	Velocidad del viento	3.2
103814	7	Sololá	713	San Lucas Tolimán	10	San Lucas Tolimán	1	Enero	2023-01-30T00:00:00	2024-11-08T02:00:00	7	Dirección del viento	3.22
103815	7	Sololá	713	San Lucas Tolimán	10	San Lucas Tolimán	1	Enero	2023-01-30T00:00:00	2024-11-08T02:00:00	1	Precipitación	0
103816	7	Sololá	713	San Lucas Tolimán	10	San Lucas Tolimán	1	Enero	2023-01-30T00:00:00	2024-11-08T02:00:00	8	Radiación solar	0
103817	7	Sololá	713	San Lucas Tolimán	10	San Lucas Tolimán	1	Enero	2023-01-30T00:00:00	2024-11-08T03:00:00	2	Temperatura media	14.6
103818	7	Sololá	713	San Lucas Tolimán	10	San Lucas Tolimán	1	Enero	2023-01-30T00:00:00	2024-11-08T03:00:00	4	Temperatura máxima	14.9
103819	7	Sololá	713	San Lucas Tolimán	10	San Lucas Tolimán	1	Enero	2023-01-30T00:00:00	2024-11-08T03:00:00	3	Temperatura mínima	14.6
103820	7	Sololá	713	San Lucas Tolimán	10	San Lucas Tolimán	1	Enero	2023-01-30T00:00:00	2024-11-08T03:00:00	5	Humedad	57
103821	7	Sololá	713	San Lucas Tolimán	10	San Lucas Tolimán	1	Enero	2023-01-30T00:00:00	2024-11-08T03:00:00	6	Velocidad del viento	3.2
103822	7	Sololá	713	San Lucas Tolimán	10	San Lucas Tolimán	1	Enero	2023-01-30T00:00:00	2024-11-08T03:00:00	7	Dirección del viento	3.22
103823	7	Sololá	713	San Lucas Tolimán	10	San Lucas Tolimán	1	Enero	2023-01-30T00:00:00	2024-11-08T03:00:00	1	Precipitación	0
103824	7	Sololá	713	San Lucas Tolimán	10	San Lucas Tolimán	1	Enero	2023-01-30T00:00:00	2024-11-08T03:00:00	8	Radiación solar	0
103825	7	Sololá	713	San Lucas Tolimán	10	San Lucas Tolimán	1	Enero	2023-01-30T00:00:00	2024-11-08T04:00:00	2	Temperatura media	14
103826	7	Sololá	713	San Lucas Tolimán	10	San Lucas Tolimán	1	Enero	2023-01-30T00:00:00	2024-11-08T04:00:00	4	Temperatura máxima	14.6
103827	7	Sololá	713	San Lucas Tolimán	10	San Lucas Tolimán	1	Enero	2023-01-30T00:00:00	2024-11-08T04:00:00	3	Temperatura mínima	13.9
103828	7	Sololá	713	San Lucas Tolimán	10	San Lucas Tolimán	1	Enero	2023-01-30T00:00:00	2024-11-08T04:00:00	5	Humedad	59
103829	7	Sololá	713	San Lucas Tolimán	10	San Lucas Tolimán	1	Enero	2023-01-30T00:00:00	2024-11-08T04:00:00	6	Velocidad del viento	3.2
103830	7	Sololá	713	San Lucas Tolimán	10	San Lucas Tolimán	1	Enero	2023-01-30T00:00:00	2024-11-08T04:00:00	7	Dirección del viento	3.22
103831	7	Sololá	713	San Lucas Tolimán	10	San Lucas Tolimán	1	Enero	2023-01-30T00:00:00	2024-11-08T04:00:00	1	Precipitación	0
103832	7	Sololá	713	San Lucas Tolimán	10	San Lucas Tolimán	1	Enero	2023-01-30T00:00:00	2024-11-08T04:00:00	8	Radiación solar	0
103833	7	Sololá	713	San Lucas Tolimán	10	San Lucas Tolimán	1	Enero	2023-01-30T00:00:00	2024-11-08T05:00:00	2	Temperatura media	13.1
103834	7	Sololá	713	San Lucas Tolimán	10	San Lucas Tolimán	1	Enero	2023-01-30T00:00:00	2024-11-08T05:00:00	4	Temperatura máxima	14.1
103835	7	Sololá	713	San Lucas Tolimán	10	San Lucas Tolimán	1	Enero	2023-01-30T00:00:00	2024-11-08T05:00:00	3	Temperatura mínima	13
103836	7	Sololá	713	San Lucas Tolimán	10	San Lucas Tolimán	1	Enero	2023-01-30T00:00:00	2024-11-08T05:00:00	5	Humedad	60
103837	7	Sololá	713	San Lucas Tolimán	10	San Lucas Tolimán	1	Enero	2023-01-30T00:00:00	2024-11-08T05:00:00	6	Velocidad del viento	3.2
103838	7	Sololá	713	San Lucas Tolimán	10	San Lucas Tolimán	1	Enero	2023-01-30T00:00:00	2024-11-08T05:00:00	7	Dirección del viento	3.22
103839	7	Sololá	713	San Lucas Tolimán	10	San Lucas Tolimán	1	Enero	2023-01-30T00:00:00	2024-11-08T05:00:00	1	Precipitación	0
103840	7	Sololá	713	San Lucas Tolimán	10	San Lucas Tolimán	1	Enero	2023-01-30T00:00:00	2024-11-08T05:00:00	8	Radiación solar	0
103841	7	Sololá	713	San Lucas Tolimán	10	San Lucas Tolimán	1	Enero	2023-01-30T00:00:00	2024-11-08T06:00:00	2	Temperatura media	13.1
103842	7	Sololá	713	San Lucas Tolimán	10	San Lucas Tolimán	1	Enero	2023-01-30T00:00:00	2024-11-08T06:00:00	4	Temperatura máxima	13.1
103843	7	Sololá	713	San Lucas Tolimán	10	San Lucas Tolimán	1	Enero	2023-01-30T00:00:00	2024-11-08T06:00:00	3	Temperatura mínima	12.8
103844	7	Sololá	713	San Lucas Tolimán	10	San Lucas Tolimán	1	Enero	2023-01-30T00:00:00	2024-11-08T06:00:00	5	Humedad	57
103845	7	Sololá	713	San Lucas Tolimán	10	San Lucas Tolimán	1	Enero	2023-01-30T00:00:00	2024-11-08T06:00:00	6	Velocidad del viento	0
103846	7	Sololá	713	San Lucas Tolimán	10	San Lucas Tolimán	1	Enero	2023-01-30T00:00:00	2024-11-08T06:00:00	7	Dirección del viento	0
103847	7	Sololá	713	San Lucas Tolimán	10	San Lucas Tolimán	1	Enero	2023-01-30T00:00:00	2024-11-08T06:00:00	1	Precipitación	0
103848	7	Sololá	713	San Lucas Tolimán	10	San Lucas Tolimán	1	Enero	2023-01-30T00:00:00	2024-11-08T06:00:00	8	Radiación solar	0
103849	7	Sololá	713	San Lucas Tolimán	10	San Lucas Tolimán	1	Enero	2023-01-30T00:00:00	2024-11-08T07:00:00	2	Temperatura media	12.9
103850	7	Sololá	713	San Lucas Tolimán	10	San Lucas Tolimán	1	Enero	2023-01-30T00:00:00	2024-11-08T07:00:00	4	Temperatura máxima	13.3
103851	7	Sololá	713	San Lucas Tolimán	10	San Lucas Tolimán	1	Enero	2023-01-30T00:00:00	2024-11-08T07:00:00	3	Temperatura mínima	12.8
103852	7	Sololá	713	San Lucas Tolimán	10	San Lucas Tolimán	1	Enero	2023-01-30T00:00:00	2024-11-08T07:00:00	5	Humedad	59
103853	7	Sololá	713	San Lucas Tolimán	10	San Lucas Tolimán	1	Enero	2023-01-30T00:00:00	2024-11-08T07:00:00	6	Velocidad del viento	1.6
103854	7	Sololá	713	San Lucas Tolimán	10	San Lucas Tolimán	1	Enero	2023-01-30T00:00:00	2024-11-08T07:00:00	7	Dirección del viento	1.61
103855	7	Sololá	713	San Lucas Tolimán	10	San Lucas Tolimán	1	Enero	2023-01-30T00:00:00	2024-11-08T07:00:00	1	Precipitación	0
103856	7	Sololá	713	San Lucas Tolimán	10	San Lucas Tolimán	1	Enero	2023-01-30T00:00:00	2024-11-08T07:00:00	8	Radiación solar	4
103857	7	Sololá	713	San Lucas Tolimán	10	San Lucas Tolimán	1	Enero	2023-01-30T00:00:00	2024-11-08T08:00:00	2	Temperatura media	14
103858	7	Sololá	713	San Lucas Tolimán	10	San Lucas Tolimán	1	Enero	2023-01-30T00:00:00	2024-11-08T08:00:00	4	Temperatura máxima	14
103859	7	Sololá	713	San Lucas Tolimán	10	San Lucas Tolimán	1	Enero	2023-01-30T00:00:00	2024-11-08T08:00:00	3	Temperatura mínima	12.8
103860	7	Sololá	713	San Lucas Tolimán	10	San Lucas Tolimán	1	Enero	2023-01-30T00:00:00	2024-11-08T08:00:00	5	Humedad	57
103861	7	Sololá	713	San Lucas Tolimán	10	San Lucas Tolimán	1	Enero	2023-01-30T00:00:00	2024-11-08T08:00:00	6	Velocidad del viento	3.2
103862	7	Sololá	713	San Lucas Tolimán	10	San Lucas Tolimán	1	Enero	2023-01-30T00:00:00	2024-11-08T08:00:00	7	Dirección del viento	3.22
103863	7	Sololá	713	San Lucas Tolimán	10	San Lucas Tolimán	1	Enero	2023-01-30T00:00:00	2024-11-08T08:00:00	1	Precipitación	0
103864	7	Sololá	713	San Lucas Tolimán	10	San Lucas Tolimán	1	Enero	2023-01-30T00:00:00	2024-11-08T08:00:00	8	Radiación solar	22
103865	7	Sololá	713	San Lucas Tolimán	10	San Lucas Tolimán	1	Enero	2023-01-30T00:00:00	2024-11-08T09:00:00	2	Temperatura media	17.1
103866	7	Sololá	713	San Lucas Tolimán	10	San Lucas Tolimán	1	Enero	2023-01-30T00:00:00	2024-11-08T09:00:00	4	Temperatura máxima	17.1
103867	7	Sololá	713	San Lucas Tolimán	10	San Lucas Tolimán	1	Enero	2023-01-30T00:00:00	2024-11-08T09:00:00	3	Temperatura mínima	14
103868	7	Sololá	713	San Lucas Tolimán	10	San Lucas Tolimán	1	Enero	2023-01-30T00:00:00	2024-11-08T09:00:00	5	Humedad	51
103869	7	Sololá	713	San Lucas Tolimán	10	San Lucas Tolimán	1	Enero	2023-01-30T00:00:00	2024-11-08T09:00:00	6	Velocidad del viento	4.8
103870	7	Sololá	713	San Lucas Tolimán	10	San Lucas Tolimán	1	Enero	2023-01-30T00:00:00	2024-11-08T09:00:00	7	Dirección del viento	4.83
103871	7	Sololá	713	San Lucas Tolimán	10	San Lucas Tolimán	1	Enero	2023-01-30T00:00:00	2024-11-08T09:00:00	1	Precipitación	0
103872	7	Sololá	713	San Lucas Tolimán	10	San Lucas Tolimán	1	Enero	2023-01-30T00:00:00	2024-11-08T09:00:00	8	Radiación solar	332
103873	7	Sololá	713	San Lucas Tolimán	10	San Lucas Tolimán	1	Enero	2023-01-30T00:00:00	2024-11-08T10:00:00	2	Temperatura media	18.7
103874	7	Sololá	713	San Lucas Tolimán	10	San Lucas Tolimán	1	Enero	2023-01-30T00:00:00	2024-11-08T10:00:00	4	Temperatura máxima	18.8
103875	7	Sololá	713	San Lucas Tolimán	10	San Lucas Tolimán	1	Enero	2023-01-30T00:00:00	2024-11-08T10:00:00	3	Temperatura mínima	17.1
103876	7	Sololá	713	San Lucas Tolimán	10	San Lucas Tolimán	1	Enero	2023-01-30T00:00:00	2024-11-08T10:00:00	5	Humedad	47
103877	7	Sololá	713	San Lucas Tolimán	10	San Lucas Tolimán	1	Enero	2023-01-30T00:00:00	2024-11-08T10:00:00	6	Velocidad del viento	6.4
103878	7	Sololá	713	San Lucas Tolimán	10	San Lucas Tolimán	1	Enero	2023-01-30T00:00:00	2024-11-08T10:00:00	7	Dirección del viento	6.44
103879	7	Sololá	713	San Lucas Tolimán	10	San Lucas Tolimán	1	Enero	2023-01-30T00:00:00	2024-11-08T10:00:00	1	Precipitación	0
103880	7	Sololá	713	San Lucas Tolimán	10	San Lucas Tolimán	1	Enero	2023-01-30T00:00:00	2024-11-08T10:00:00	8	Radiación solar	618
103881	7	Sololá	713	San Lucas Tolimán	10	San Lucas Tolimán	1	Enero	2023-01-30T00:00:00	2024-11-08T11:00:00	2	Temperatura media	20.6
103882	7	Sololá	713	San Lucas Tolimán	10	San Lucas Tolimán	1	Enero	2023-01-30T00:00:00	2024-11-08T11:00:00	4	Temperatura máxima	20.6
103883	7	Sololá	713	San Lucas Tolimán	10	San Lucas Tolimán	1	Enero	2023-01-30T00:00:00	2024-11-08T11:00:00	3	Temperatura mínima	18.7
103884	7	Sololá	713	San Lucas Tolimán	10	San Lucas Tolimán	1	Enero	2023-01-30T00:00:00	2024-11-08T11:00:00	5	Humedad	46
103885	7	Sololá	713	San Lucas Tolimán	10	San Lucas Tolimán	1	Enero	2023-01-30T00:00:00	2024-11-08T11:00:00	6	Velocidad del viento	6.4
103886	7	Sololá	713	San Lucas Tolimán	10	San Lucas Tolimán	1	Enero	2023-01-30T00:00:00	2024-11-08T11:00:00	7	Dirección del viento	6.44
103887	7	Sololá	713	San Lucas Tolimán	10	San Lucas Tolimán	1	Enero	2023-01-30T00:00:00	2024-11-08T11:00:00	1	Precipitación	0
103888	7	Sololá	713	San Lucas Tolimán	10	San Lucas Tolimán	1	Enero	2023-01-30T00:00:00	2024-11-08T11:00:00	8	Radiación solar	797
103889	7	Sololá	713	San Lucas Tolimán	10	San Lucas Tolimán	1	Enero	2023-01-30T00:00:00	2024-11-08T12:00:00	2	Temperatura media	22.6
103890	7	Sololá	713	San Lucas Tolimán	10	San Lucas Tolimán	1	Enero	2023-01-30T00:00:00	2024-11-08T12:00:00	4	Temperatura máxima	23.2
103891	7	Sololá	713	San Lucas Tolimán	10	San Lucas Tolimán	1	Enero	2023-01-30T00:00:00	2024-11-08T12:00:00	3	Temperatura mínima	20.6
103892	7	Sololá	713	San Lucas Tolimán	10	San Lucas Tolimán	1	Enero	2023-01-30T00:00:00	2024-11-08T12:00:00	5	Humedad	43
103893	7	Sololá	713	San Lucas Tolimán	10	San Lucas Tolimán	1	Enero	2023-01-30T00:00:00	2024-11-08T12:00:00	6	Velocidad del viento	8
103894	7	Sololá	713	San Lucas Tolimán	10	San Lucas Tolimán	1	Enero	2023-01-30T00:00:00	2024-11-08T12:00:00	7	Dirección del viento	8.05
103895	7	Sololá	713	San Lucas Tolimán	10	San Lucas Tolimán	1	Enero	2023-01-30T00:00:00	2024-11-08T12:00:00	1	Precipitación	0
103896	7	Sololá	713	San Lucas Tolimán	10	San Lucas Tolimán	1	Enero	2023-01-30T00:00:00	2024-11-08T12:00:00	8	Radiación solar	898
103897	7	Sololá	713	San Lucas Tolimán	10	San Lucas Tolimán	1	Enero	2023-01-30T00:00:00	2024-11-08T13:00:00	2	Temperatura media	22.3
103898	7	Sololá	713	San Lucas Tolimán	10	San Lucas Tolimán	1	Enero	2023-01-30T00:00:00	2024-11-08T13:00:00	4	Temperatura máxima	23.1
103899	7	Sololá	713	San Lucas Tolimán	10	San Lucas Tolimán	1	Enero	2023-01-30T00:00:00	2024-11-08T13:00:00	3	Temperatura mínima	22.3
103900	7	Sololá	713	San Lucas Tolimán	10	San Lucas Tolimán	1	Enero	2023-01-30T00:00:00	2024-11-08T13:00:00	5	Humedad	44
103901	7	Sololá	713	San Lucas Tolimán	10	San Lucas Tolimán	1	Enero	2023-01-30T00:00:00	2024-11-08T13:00:00	6	Velocidad del viento	12.9
103902	7	Sololá	713	San Lucas Tolimán	10	San Lucas Tolimán	1	Enero	2023-01-30T00:00:00	2024-11-08T13:00:00	7	Dirección del viento	12.87
103903	7	Sololá	713	San Lucas Tolimán	10	San Lucas Tolimán	1	Enero	2023-01-30T00:00:00	2024-11-08T13:00:00	1	Precipitación	0
103904	7	Sololá	713	San Lucas Tolimán	10	San Lucas Tolimán	1	Enero	2023-01-30T00:00:00	2024-11-08T13:00:00	8	Radiación solar	923
103905	7	Sololá	713	San Lucas Tolimán	10	San Lucas Tolimán	1	Enero	2023-01-30T00:00:00	2024-11-08T14:00:00	2	Temperatura media	22.9
103906	7	Sololá	713	San Lucas Tolimán	10	San Lucas Tolimán	1	Enero	2023-01-30T00:00:00	2024-11-08T14:00:00	4	Temperatura máxima	23.5
103907	7	Sololá	713	San Lucas Tolimán	10	San Lucas Tolimán	1	Enero	2023-01-30T00:00:00	2024-11-08T14:00:00	3	Temperatura mínima	22.2
103908	7	Sololá	713	San Lucas Tolimán	10	San Lucas Tolimán	1	Enero	2023-01-30T00:00:00	2024-11-08T14:00:00	5	Humedad	44
103909	7	Sololá	713	San Lucas Tolimán	10	San Lucas Tolimán	1	Enero	2023-01-30T00:00:00	2024-11-08T14:00:00	6	Velocidad del viento	14.5
103910	7	Sololá	713	San Lucas Tolimán	10	San Lucas Tolimán	1	Enero	2023-01-30T00:00:00	2024-11-08T14:00:00	7	Dirección del viento	14.48
103911	7	Sololá	713	San Lucas Tolimán	10	San Lucas Tolimán	1	Enero	2023-01-30T00:00:00	2024-11-08T14:00:00	1	Precipitación	0
103912	7	Sololá	713	San Lucas Tolimán	10	San Lucas Tolimán	1	Enero	2023-01-30T00:00:00	2024-11-08T14:00:00	8	Radiación solar	866
103913	7	Sololá	713	San Lucas Tolimán	10	San Lucas Tolimán	1	Enero	2023-01-30T00:00:00	2024-11-08T15:00:00	2	Temperatura media	23.1
103914	7	Sololá	713	San Lucas Tolimán	10	San Lucas Tolimán	1	Enero	2023-01-30T00:00:00	2024-11-08T15:00:00	4	Temperatura máxima	23.1
103915	7	Sololá	713	San Lucas Tolimán	10	San Lucas Tolimán	1	Enero	2023-01-30T00:00:00	2024-11-08T15:00:00	3	Temperatura mínima	22.2
103916	7	Sololá	713	San Lucas Tolimán	10	San Lucas Tolimán	1	Enero	2023-01-30T00:00:00	2024-11-08T15:00:00	5	Humedad	44
103917	7	Sololá	713	San Lucas Tolimán	10	San Lucas Tolimán	1	Enero	2023-01-30T00:00:00	2024-11-08T15:00:00	6	Velocidad del viento	14.5
103918	7	Sololá	713	San Lucas Tolimán	10	San Lucas Tolimán	1	Enero	2023-01-30T00:00:00	2024-11-08T15:00:00	7	Dirección del viento	14.48
103919	7	Sololá	713	San Lucas Tolimán	10	San Lucas Tolimán	1	Enero	2023-01-30T00:00:00	2024-11-08T15:00:00	1	Precipitación	0
103920	7	Sololá	713	San Lucas Tolimán	10	San Lucas Tolimán	1	Enero	2023-01-30T00:00:00	2024-11-08T15:00:00	8	Radiación solar	731
103921	7	Sololá	713	San Lucas Tolimán	10	San Lucas Tolimán	1	Enero	2023-01-30T00:00:00	2024-11-08T16:00:00	2	Temperatura media	22.4
103922	7	Sololá	713	San Lucas Tolimán	10	San Lucas Tolimán	1	Enero	2023-01-30T00:00:00	2024-11-08T16:00:00	4	Temperatura máxima	23.1
103923	7	Sololá	713	San Lucas Tolimán	10	San Lucas Tolimán	1	Enero	2023-01-30T00:00:00	2024-11-08T16:00:00	3	Temperatura mínima	22.3
103924	7	Sololá	713	San Lucas Tolimán	10	San Lucas Tolimán	1	Enero	2023-01-30T00:00:00	2024-11-08T16:00:00	5	Humedad	47
103925	7	Sololá	713	San Lucas Tolimán	10	San Lucas Tolimán	1	Enero	2023-01-30T00:00:00	2024-11-08T16:00:00	6	Velocidad del viento	12.9
103926	7	Sololá	713	San Lucas Tolimán	10	San Lucas Tolimán	1	Enero	2023-01-30T00:00:00	2024-11-08T16:00:00	7	Dirección del viento	12.87
103927	7	Sololá	713	San Lucas Tolimán	10	San Lucas Tolimán	1	Enero	2023-01-30T00:00:00	2024-11-08T16:00:00	1	Precipitación	0
103928	7	Sololá	713	San Lucas Tolimán	10	San Lucas Tolimán	1	Enero	2023-01-30T00:00:00	2024-11-08T16:00:00	8	Radiación solar	531
103929	7	Sololá	713	San Lucas Tolimán	10	San Lucas Tolimán	1	Enero	2023-01-30T00:00:00	2024-11-08T17:00:00	2	Temperatura media	20.9
103930	7	Sololá	713	San Lucas Tolimán	10	San Lucas Tolimán	1	Enero	2023-01-30T00:00:00	2024-11-08T17:00:00	4	Temperatura máxima	22.4
103931	7	Sololá	713	San Lucas Tolimán	10	San Lucas Tolimán	1	Enero	2023-01-30T00:00:00	2024-11-08T17:00:00	3	Temperatura mínima	20.9
103932	7	Sololá	713	San Lucas Tolimán	10	San Lucas Tolimán	1	Enero	2023-01-30T00:00:00	2024-11-08T17:00:00	5	Humedad	50
103933	7	Sololá	713	San Lucas Tolimán	10	San Lucas Tolimán	1	Enero	2023-01-30T00:00:00	2024-11-08T17:00:00	6	Velocidad del viento	11.3
103934	7	Sololá	713	San Lucas Tolimán	10	San Lucas Tolimán	1	Enero	2023-01-30T00:00:00	2024-11-08T17:00:00	7	Dirección del viento	11.27
103935	7	Sololá	713	San Lucas Tolimán	10	San Lucas Tolimán	1	Enero	2023-01-30T00:00:00	2024-11-08T17:00:00	1	Precipitación	0
103936	7	Sololá	713	San Lucas Tolimán	10	San Lucas Tolimán	1	Enero	2023-01-30T00:00:00	2024-11-08T17:00:00	8	Radiación solar	278
103937	7	Sololá	713	San Lucas Tolimán	10	San Lucas Tolimán	1	Enero	2023-01-30T00:00:00	2024-11-08T18:00:00	2	Temperatura media	19
103938	7	Sololá	713	San Lucas Tolimán	10	San Lucas Tolimán	1	Enero	2023-01-30T00:00:00	2024-11-08T18:00:00	4	Temperatura máxima	20.9
103939	7	Sololá	713	San Lucas Tolimán	10	San Lucas Tolimán	1	Enero	2023-01-30T00:00:00	2024-11-08T18:00:00	3	Temperatura mínima	19
103940	7	Sololá	713	San Lucas Tolimán	10	San Lucas Tolimán	1	Enero	2023-01-30T00:00:00	2024-11-08T18:00:00	5	Humedad	58
103941	7	Sololá	713	San Lucas Tolimán	10	San Lucas Tolimán	1	Enero	2023-01-30T00:00:00	2024-11-08T18:00:00	6	Velocidad del viento	9.7
103942	7	Sololá	713	San Lucas Tolimán	10	San Lucas Tolimán	1	Enero	2023-01-30T00:00:00	2024-11-08T18:00:00	7	Dirección del viento	9.66
103943	7	Sololá	713	San Lucas Tolimán	10	San Lucas Tolimán	1	Enero	2023-01-30T00:00:00	2024-11-08T18:00:00	1	Precipitación	0
103944	7	Sololá	713	San Lucas Tolimán	10	San Lucas Tolimán	1	Enero	2023-01-30T00:00:00	2024-11-08T18:00:00	8	Radiación solar	19
103945	7	Sololá	713	San Lucas Tolimán	10	San Lucas Tolimán	1	Enero	2023-01-30T00:00:00	2024-11-08T19:00:00	2	Temperatura media	16.8
103946	7	Sololá	713	San Lucas Tolimán	10	San Lucas Tolimán	1	Enero	2023-01-30T00:00:00	2024-11-08T19:00:00	4	Temperatura máxima	19
103947	7	Sololá	713	San Lucas Tolimán	10	San Lucas Tolimán	1	Enero	2023-01-30T00:00:00	2024-11-08T19:00:00	3	Temperatura mínima	16.8
103948	7	Sololá	713	San Lucas Tolimán	10	San Lucas Tolimán	1	Enero	2023-01-30T00:00:00	2024-11-08T19:00:00	5	Humedad	63
103949	7	Sololá	713	San Lucas Tolimán	10	San Lucas Tolimán	1	Enero	2023-01-30T00:00:00	2024-11-08T19:00:00	6	Velocidad del viento	8
103950	7	Sololá	713	San Lucas Tolimán	10	San Lucas Tolimán	1	Enero	2023-01-30T00:00:00	2024-11-08T19:00:00	7	Dirección del viento	8.05
103951	7	Sololá	713	San Lucas Tolimán	10	San Lucas Tolimán	1	Enero	2023-01-30T00:00:00	2024-11-08T19:00:00	1	Precipitación	0
103952	7	Sololá	713	San Lucas Tolimán	10	San Lucas Tolimán	1	Enero	2023-01-30T00:00:00	2024-11-08T19:00:00	8	Radiación solar	0
103953	7	Sololá	713	San Lucas Tolimán	10	San Lucas Tolimán	1	Enero	2023-01-30T00:00:00	2024-11-08T20:00:00	2	Temperatura media	16.2
103954	7	Sololá	713	San Lucas Tolimán	10	San Lucas Tolimán	1	Enero	2023-01-30T00:00:00	2024-11-08T20:00:00	4	Temperatura máxima	16.8
103955	7	Sololá	713	San Lucas Tolimán	10	San Lucas Tolimán	1	Enero	2023-01-30T00:00:00	2024-11-08T20:00:00	3	Temperatura mínima	15.8
103956	7	Sololá	713	San Lucas Tolimán	10	San Lucas Tolimán	1	Enero	2023-01-30T00:00:00	2024-11-08T20:00:00	5	Humedad	61
103957	7	Sololá	713	San Lucas Tolimán	10	San Lucas Tolimán	1	Enero	2023-01-30T00:00:00	2024-11-08T20:00:00	6	Velocidad del viento	6.4
103958	7	Sololá	713	San Lucas Tolimán	10	San Lucas Tolimán	1	Enero	2023-01-30T00:00:00	2024-11-08T20:00:00	7	Dirección del viento	6.44
103959	7	Sololá	713	San Lucas Tolimán	10	San Lucas Tolimán	1	Enero	2023-01-30T00:00:00	2024-11-08T20:00:00	1	Precipitación	0
103960	7	Sololá	713	San Lucas Tolimán	10	San Lucas Tolimán	1	Enero	2023-01-30T00:00:00	2024-11-08T20:00:00	8	Radiación solar	0
103961	7	Sololá	713	San Lucas Tolimán	10	San Lucas Tolimán	1	Enero	2023-01-30T00:00:00	2024-11-08T21:00:00	2	Temperatura media	16.9
103962	7	Sololá	713	San Lucas Tolimán	10	San Lucas Tolimán	1	Enero	2023-01-30T00:00:00	2024-11-08T21:00:00	4	Temperatura máxima	17.2
103963	7	Sololá	713	San Lucas Tolimán	10	San Lucas Tolimán	1	Enero	2023-01-30T00:00:00	2024-11-08T21:00:00	3	Temperatura mínima	16.1
103964	7	Sololá	713	San Lucas Tolimán	10	San Lucas Tolimán	1	Enero	2023-01-30T00:00:00	2024-11-08T21:00:00	5	Humedad	58
103965	7	Sololá	713	San Lucas Tolimán	10	San Lucas Tolimán	1	Enero	2023-01-30T00:00:00	2024-11-08T21:00:00	6	Velocidad del viento	3.2
103966	7	Sololá	713	San Lucas Tolimán	10	San Lucas Tolimán	1	Enero	2023-01-30T00:00:00	2024-11-08T21:00:00	7	Dirección del viento	3.22
103967	7	Sololá	713	San Lucas Tolimán	10	San Lucas Tolimán	1	Enero	2023-01-30T00:00:00	2024-11-08T21:00:00	1	Precipitación	0
103968	7	Sololá	713	San Lucas Tolimán	10	San Lucas Tolimán	1	Enero	2023-01-30T00:00:00	2024-11-08T21:00:00	8	Radiación solar	0
103969	7	Sololá	713	San Lucas Tolimán	10	San Lucas Tolimán	1	Enero	2023-01-30T00:00:00	2024-11-08T22:00:00	2	Temperatura media	15.5
103970	7	Sololá	713	San Lucas Tolimán	10	San Lucas Tolimán	1	Enero	2023-01-30T00:00:00	2024-11-08T22:00:00	4	Temperatura máxima	16.8
103971	7	Sololá	713	San Lucas Tolimán	10	San Lucas Tolimán	1	Enero	2023-01-30T00:00:00	2024-11-08T22:00:00	3	Temperatura mínima	15.4
103972	7	Sololá	713	San Lucas Tolimán	10	San Lucas Tolimán	1	Enero	2023-01-30T00:00:00	2024-11-08T22:00:00	5	Humedad	61
103973	7	Sololá	713	San Lucas Tolimán	10	San Lucas Tolimán	1	Enero	2023-01-30T00:00:00	2024-11-08T22:00:00	6	Velocidad del viento	3.2
103974	7	Sololá	713	San Lucas Tolimán	10	San Lucas Tolimán	1	Enero	2023-01-30T00:00:00	2024-11-08T22:00:00	7	Dirección del viento	3.22
103975	7	Sololá	713	San Lucas Tolimán	10	San Lucas Tolimán	1	Enero	2023-01-30T00:00:00	2024-11-08T22:00:00	1	Precipitación	0
103976	7	Sololá	713	San Lucas Tolimán	10	San Lucas Tolimán	1	Enero	2023-01-30T00:00:00	2024-11-08T22:00:00	8	Radiación solar	0
103977	7	Sololá	713	San Lucas Tolimán	10	San Lucas Tolimán	1	Enero	2023-01-30T00:00:00	2024-11-08T23:00:00	2	Temperatura media	14.7
103978	7	Sololá	713	San Lucas Tolimán	10	San Lucas Tolimán	1	Enero	2023-01-30T00:00:00	2024-11-08T23:00:00	4	Temperatura máxima	15.6
103979	7	Sololá	713	San Lucas Tolimán	10	San Lucas Tolimán	1	Enero	2023-01-30T00:00:00	2024-11-08T23:00:00	3	Temperatura mínima	14.6
103980	7	Sololá	713	San Lucas Tolimán	10	San Lucas Tolimán	1	Enero	2023-01-30T00:00:00	2024-11-08T23:00:00	5	Humedad	62
103981	7	Sololá	713	San Lucas Tolimán	10	San Lucas Tolimán	1	Enero	2023-01-30T00:00:00	2024-11-08T23:00:00	6	Velocidad del viento	3.2
103982	7	Sololá	713	San Lucas Tolimán	10	San Lucas Tolimán	1	Enero	2023-01-30T00:00:00	2024-11-08T23:00:00	7	Dirección del viento	3.22
103983	7	Sololá	713	San Lucas Tolimán	10	San Lucas Tolimán	1	Enero	2023-01-30T00:00:00	2024-11-08T23:00:00	1	Precipitación	0
103984	7	Sololá	713	San Lucas Tolimán	10	San Lucas Tolimán	1	Enero	2023-01-30T00:00:00	2024-11-08T23:00:00	8	Radiación solar	0
103985	7	Sololá	713	San Lucas Tolimán	10	San Lucas Tolimán	1	Enero	2023-01-31T00:00:00	2024-11-08T00:00:00	2	Temperatura media	15.2
103986	7	Sololá	713	San Lucas Tolimán	10	San Lucas Tolimán	1	Enero	2023-01-31T00:00:00	2024-11-08T00:00:00	4	Temperatura máxima	15.8
103987	7	Sololá	713	San Lucas Tolimán	10	San Lucas Tolimán	1	Enero	2023-01-31T00:00:00	2024-11-08T00:00:00	3	Temperatura mínima	14.7
103988	7	Sololá	713	San Lucas Tolimán	10	San Lucas Tolimán	1	Enero	2023-01-31T00:00:00	2024-11-08T00:00:00	5	Humedad	59
103989	7	Sololá	713	San Lucas Tolimán	10	San Lucas Tolimán	1	Enero	2023-01-31T00:00:00	2024-11-08T00:00:00	6	Velocidad del viento	1.6
103990	7	Sololá	713	San Lucas Tolimán	10	San Lucas Tolimán	1	Enero	2023-01-31T00:00:00	2024-11-08T00:00:00	7	Dirección del viento	1.61
103991	7	Sololá	713	San Lucas Tolimán	10	San Lucas Tolimán	1	Enero	2023-01-31T00:00:00	2024-11-08T00:00:00	1	Precipitación	0
103992	7	Sololá	713	San Lucas Tolimán	10	San Lucas Tolimán	1	Enero	2023-01-31T00:00:00	2024-11-08T00:00:00	8	Radiación solar	0
103993	7	Sololá	713	San Lucas Tolimán	10	San Lucas Tolimán	1	Enero	2023-01-31T00:00:00	2024-11-08T01:00:00	2	Temperatura media	15.1
103994	7	Sololá	713	San Lucas Tolimán	10	San Lucas Tolimán	1	Enero	2023-01-31T00:00:00	2024-11-08T01:00:00	4	Temperatura máxima	15.2
103995	7	Sololá	713	San Lucas Tolimán	10	San Lucas Tolimán	1	Enero	2023-01-31T00:00:00	2024-11-08T01:00:00	3	Temperatura mínima	15.1
103996	7	Sololá	713	San Lucas Tolimán	10	San Lucas Tolimán	1	Enero	2023-01-31T00:00:00	2024-11-08T01:00:00	5	Humedad	59
103997	7	Sololá	713	San Lucas Tolimán	10	San Lucas Tolimán	1	Enero	2023-01-31T00:00:00	2024-11-08T01:00:00	6	Velocidad del viento	0
103998	7	Sololá	713	San Lucas Tolimán	10	San Lucas Tolimán	1	Enero	2023-01-31T00:00:00	2024-11-08T01:00:00	7	Dirección del viento	0
103999	7	Sololá	713	San Lucas Tolimán	10	San Lucas Tolimán	1	Enero	2023-01-31T00:00:00	2024-11-08T01:00:00	1	Precipitación	0
104000	7	Sololá	713	San Lucas Tolimán	10	San Lucas Tolimán	1	Enero	2023-01-31T00:00:00	2024-11-08T01:00:00	8	Radiación solar	0
104001	7	Sololá	713	San Lucas Tolimán	10	San Lucas Tolimán	1	Enero	2023-01-31T00:00:00	2024-11-08T02:00:00	2	Temperatura media	15.2
104002	7	Sololá	713	San Lucas Tolimán	10	San Lucas Tolimán	1	Enero	2023-01-31T00:00:00	2024-11-08T02:00:00	4	Temperatura máxima	15.6
104003	7	Sololá	713	San Lucas Tolimán	10	San Lucas Tolimán	1	Enero	2023-01-31T00:00:00	2024-11-08T02:00:00	3	Temperatura mínima	15
104004	7	Sololá	713	San Lucas Tolimán	10	San Lucas Tolimán	1	Enero	2023-01-31T00:00:00	2024-11-08T02:00:00	5	Humedad	56
104005	7	Sololá	713	San Lucas Tolimán	10	San Lucas Tolimán	1	Enero	2023-01-31T00:00:00	2024-11-08T02:00:00	6	Velocidad del viento	1.6
104006	7	Sololá	713	San Lucas Tolimán	10	San Lucas Tolimán	1	Enero	2023-01-31T00:00:00	2024-11-08T02:00:00	7	Dirección del viento	1.61
104007	7	Sololá	713	San Lucas Tolimán	10	San Lucas Tolimán	1	Enero	2023-01-31T00:00:00	2024-11-08T02:00:00	1	Precipitación	0
104008	7	Sololá	713	San Lucas Tolimán	10	San Lucas Tolimán	1	Enero	2023-01-31T00:00:00	2024-11-08T02:00:00	8	Radiación solar	0
104009	7	Sololá	713	San Lucas Tolimán	10	San Lucas Tolimán	1	Enero	2023-01-31T00:00:00	2024-11-08T03:00:00	2	Temperatura media	14.4
104010	7	Sololá	713	San Lucas Tolimán	10	San Lucas Tolimán	1	Enero	2023-01-31T00:00:00	2024-11-08T03:00:00	4	Temperatura máxima	15.4
104011	7	Sololá	713	San Lucas Tolimán	10	San Lucas Tolimán	1	Enero	2023-01-31T00:00:00	2024-11-08T03:00:00	3	Temperatura mínima	14.4
104012	7	Sololá	713	San Lucas Tolimán	10	San Lucas Tolimán	1	Enero	2023-01-31T00:00:00	2024-11-08T03:00:00	5	Humedad	58
104013	7	Sololá	713	San Lucas Tolimán	10	San Lucas Tolimán	1	Enero	2023-01-31T00:00:00	2024-11-08T03:00:00	6	Velocidad del viento	1.6
104014	7	Sololá	713	San Lucas Tolimán	10	San Lucas Tolimán	1	Enero	2023-01-31T00:00:00	2024-11-08T03:00:00	7	Dirección del viento	1.61
104015	7	Sololá	713	San Lucas Tolimán	10	San Lucas Tolimán	1	Enero	2023-01-31T00:00:00	2024-11-08T03:00:00	1	Precipitación	0
104016	7	Sololá	713	San Lucas Tolimán	10	San Lucas Tolimán	1	Enero	2023-01-31T00:00:00	2024-11-08T03:00:00	8	Radiación solar	0
104017	7	Sololá	713	San Lucas Tolimán	10	San Lucas Tolimán	1	Enero	2023-01-31T00:00:00	2024-11-08T04:00:00	2	Temperatura media	14.4
104018	7	Sololá	713	San Lucas Tolimán	10	San Lucas Tolimán	1	Enero	2023-01-31T00:00:00	2024-11-08T04:00:00	4	Temperatura máxima	14.7
104019	7	Sololá	713	San Lucas Tolimán	10	San Lucas Tolimán	1	Enero	2023-01-31T00:00:00	2024-11-08T04:00:00	3	Temperatura mínima	14.3
104020	7	Sololá	713	San Lucas Tolimán	10	San Lucas Tolimán	1	Enero	2023-01-31T00:00:00	2024-11-08T04:00:00	5	Humedad	58
104021	7	Sololá	713	San Lucas Tolimán	10	San Lucas Tolimán	1	Enero	2023-01-31T00:00:00	2024-11-08T04:00:00	6	Velocidad del viento	1.6
104022	7	Sololá	713	San Lucas Tolimán	10	San Lucas Tolimán	1	Enero	2023-01-31T00:00:00	2024-11-08T04:00:00	7	Dirección del viento	1.61
104023	7	Sololá	713	San Lucas Tolimán	10	San Lucas Tolimán	1	Enero	2023-01-31T00:00:00	2024-11-08T04:00:00	1	Precipitación	0
104024	7	Sololá	713	San Lucas Tolimán	10	San Lucas Tolimán	1	Enero	2023-01-31T00:00:00	2024-11-08T04:00:00	8	Radiación solar	0
104025	7	Sololá	713	San Lucas Tolimán	10	San Lucas Tolimán	1	Enero	2023-01-31T00:00:00	2024-11-08T05:00:00	2	Temperatura media	15
104026	7	Sololá	713	San Lucas Tolimán	10	San Lucas Tolimán	1	Enero	2023-01-31T00:00:00	2024-11-08T05:00:00	4	Temperatura máxima	15.2
104027	7	Sololá	713	San Lucas Tolimán	10	San Lucas Tolimán	1	Enero	2023-01-31T00:00:00	2024-11-08T05:00:00	3	Temperatura mínima	14.5
104028	7	Sololá	713	San Lucas Tolimán	10	San Lucas Tolimán	1	Enero	2023-01-31T00:00:00	2024-11-08T05:00:00	5	Humedad	57
104029	7	Sololá	713	San Lucas Tolimán	10	San Lucas Tolimán	1	Enero	2023-01-31T00:00:00	2024-11-08T05:00:00	6	Velocidad del viento	1.6
104030	7	Sololá	713	San Lucas Tolimán	10	San Lucas Tolimán	1	Enero	2023-01-31T00:00:00	2024-11-08T05:00:00	7	Dirección del viento	1.61
104031	7	Sololá	713	San Lucas Tolimán	10	San Lucas Tolimán	1	Enero	2023-01-31T00:00:00	2024-11-08T05:00:00	1	Precipitación	0
104032	7	Sololá	713	San Lucas Tolimán	10	San Lucas Tolimán	1	Enero	2023-01-31T00:00:00	2024-11-08T05:00:00	8	Radiación solar	0
104033	7	Sololá	713	San Lucas Tolimán	10	San Lucas Tolimán	1	Enero	2023-01-31T00:00:00	2024-11-08T06:00:00	2	Temperatura media	15.3
104034	7	Sololá	713	San Lucas Tolimán	10	San Lucas Tolimán	1	Enero	2023-01-31T00:00:00	2024-11-08T06:00:00	4	Temperatura máxima	15.6
104035	7	Sololá	713	San Lucas Tolimán	10	San Lucas Tolimán	1	Enero	2023-01-31T00:00:00	2024-11-08T06:00:00	3	Temperatura mínima	15
104036	7	Sololá	713	San Lucas Tolimán	10	San Lucas Tolimán	1	Enero	2023-01-31T00:00:00	2024-11-08T06:00:00	5	Humedad	56
104037	7	Sololá	713	San Lucas Tolimán	10	San Lucas Tolimán	1	Enero	2023-01-31T00:00:00	2024-11-08T06:00:00	6	Velocidad del viento	3.2
104038	7	Sololá	713	San Lucas Tolimán	10	San Lucas Tolimán	1	Enero	2023-01-31T00:00:00	2024-11-08T06:00:00	7	Dirección del viento	3.22
104039	7	Sololá	713	San Lucas Tolimán	10	San Lucas Tolimán	1	Enero	2023-01-31T00:00:00	2024-11-08T06:00:00	1	Precipitación	0
104040	7	Sololá	713	San Lucas Tolimán	10	San Lucas Tolimán	1	Enero	2023-01-31T00:00:00	2024-11-08T06:00:00	8	Radiación solar	0
104041	7	Sololá	713	San Lucas Tolimán	10	San Lucas Tolimán	1	Enero	2023-01-31T00:00:00	2024-11-08T07:00:00	2	Temperatura media	14.9
104042	7	Sololá	713	San Lucas Tolimán	10	San Lucas Tolimán	1	Enero	2023-01-31T00:00:00	2024-11-08T07:00:00	4	Temperatura máxima	15.3
104043	7	Sololá	713	San Lucas Tolimán	10	San Lucas Tolimán	1	Enero	2023-01-31T00:00:00	2024-11-08T07:00:00	3	Temperatura mínima	14.6
104044	7	Sololá	713	San Lucas Tolimán	10	San Lucas Tolimán	1	Enero	2023-01-31T00:00:00	2024-11-08T07:00:00	5	Humedad	58
104045	7	Sololá	713	San Lucas Tolimán	10	San Lucas Tolimán	1	Enero	2023-01-31T00:00:00	2024-11-08T07:00:00	6	Velocidad del viento	1.6
104046	7	Sololá	713	San Lucas Tolimán	10	San Lucas Tolimán	1	Enero	2023-01-31T00:00:00	2024-11-08T07:00:00	7	Dirección del viento	1.61
104047	7	Sololá	713	San Lucas Tolimán	10	San Lucas Tolimán	1	Enero	2023-01-31T00:00:00	2024-11-08T07:00:00	1	Precipitación	0
104048	7	Sololá	713	San Lucas Tolimán	10	San Lucas Tolimán	1	Enero	2023-01-31T00:00:00	2024-11-08T07:00:00	8	Radiación solar	4
104049	7	Sololá	713	San Lucas Tolimán	10	San Lucas Tolimán	1	Enero	2023-01-31T00:00:00	2024-11-08T08:00:00	2	Temperatura media	15.5
104050	7	Sololá	713	San Lucas Tolimán	10	San Lucas Tolimán	1	Enero	2023-01-31T00:00:00	2024-11-08T08:00:00	4	Temperatura máxima	15.5
104051	7	Sololá	713	San Lucas Tolimán	10	San Lucas Tolimán	1	Enero	2023-01-31T00:00:00	2024-11-08T08:00:00	3	Temperatura mínima	14.9
104052	7	Sololá	713	San Lucas Tolimán	10	San Lucas Tolimán	1	Enero	2023-01-31T00:00:00	2024-11-08T08:00:00	5	Humedad	56
104053	7	Sololá	713	San Lucas Tolimán	10	San Lucas Tolimán	1	Enero	2023-01-31T00:00:00	2024-11-08T08:00:00	6	Velocidad del viento	1.6
104054	7	Sololá	713	San Lucas Tolimán	10	San Lucas Tolimán	1	Enero	2023-01-31T00:00:00	2024-11-08T08:00:00	7	Dirección del viento	1.61
104055	7	Sololá	713	San Lucas Tolimán	10	San Lucas Tolimán	1	Enero	2023-01-31T00:00:00	2024-11-08T08:00:00	1	Precipitación	0
104056	7	Sololá	713	San Lucas Tolimán	10	San Lucas Tolimán	1	Enero	2023-01-31T00:00:00	2024-11-08T08:00:00	8	Radiación solar	21
104057	7	Sololá	713	San Lucas Tolimán	10	San Lucas Tolimán	1	Enero	2023-01-31T00:00:00	2024-11-08T09:00:00	2	Temperatura media	18.6
104058	7	Sololá	713	San Lucas Tolimán	10	San Lucas Tolimán	1	Enero	2023-01-31T00:00:00	2024-11-08T09:00:00	4	Temperatura máxima	18.6
104059	7	Sololá	713	San Lucas Tolimán	10	San Lucas Tolimán	1	Enero	2023-01-31T00:00:00	2024-11-08T09:00:00	3	Temperatura mínima	15.5
104060	7	Sololá	713	San Lucas Tolimán	10	San Lucas Tolimán	1	Enero	2023-01-31T00:00:00	2024-11-08T09:00:00	5	Humedad	48
104061	7	Sololá	713	San Lucas Tolimán	10	San Lucas Tolimán	1	Enero	2023-01-31T00:00:00	2024-11-08T09:00:00	6	Velocidad del viento	11.3
104062	7	Sololá	713	San Lucas Tolimán	10	San Lucas Tolimán	1	Enero	2023-01-31T00:00:00	2024-11-08T09:00:00	7	Dirección del viento	11.27
104063	7	Sololá	713	San Lucas Tolimán	10	San Lucas Tolimán	1	Enero	2023-01-31T00:00:00	2024-11-08T09:00:00	1	Precipitación	0
104064	7	Sololá	713	San Lucas Tolimán	10	San Lucas Tolimán	1	Enero	2023-01-31T00:00:00	2024-11-08T09:00:00	8	Radiación solar	340
104065	7	Sololá	713	San Lucas Tolimán	10	San Lucas Tolimán	1	Enero	2023-01-31T00:00:00	2024-11-08T10:00:00	2	Temperatura media	20.3
104066	7	Sololá	713	San Lucas Tolimán	10	San Lucas Tolimán	1	Enero	2023-01-31T00:00:00	2024-11-08T10:00:00	4	Temperatura máxima	20.3
104067	7	Sololá	713	San Lucas Tolimán	10	San Lucas Tolimán	1	Enero	2023-01-31T00:00:00	2024-11-08T10:00:00	3	Temperatura mínima	18.6
104068	7	Sololá	713	San Lucas Tolimán	10	San Lucas Tolimán	1	Enero	2023-01-31T00:00:00	2024-11-08T10:00:00	5	Humedad	40
104069	7	Sololá	713	San Lucas Tolimán	10	San Lucas Tolimán	1	Enero	2023-01-31T00:00:00	2024-11-08T10:00:00	6	Velocidad del viento	12.9
104070	7	Sololá	713	San Lucas Tolimán	10	San Lucas Tolimán	1	Enero	2023-01-31T00:00:00	2024-11-08T10:00:00	7	Dirección del viento	12.87
104071	7	Sololá	713	San Lucas Tolimán	10	San Lucas Tolimán	1	Enero	2023-01-31T00:00:00	2024-11-08T10:00:00	1	Precipitación	0
104072	7	Sololá	713	San Lucas Tolimán	10	San Lucas Tolimán	1	Enero	2023-01-31T00:00:00	2024-11-08T10:00:00	8	Radiación solar	627
104073	7	Sololá	713	San Lucas Tolimán	10	San Lucas Tolimán	1	Enero	2023-01-31T00:00:00	2024-11-08T11:00:00	2	Temperatura media	22.3
104074	7	Sololá	713	San Lucas Tolimán	10	San Lucas Tolimán	1	Enero	2023-01-31T00:00:00	2024-11-08T11:00:00	4	Temperatura máxima	22.3
104075	7	Sololá	713	San Lucas Tolimán	10	San Lucas Tolimán	1	Enero	2023-01-31T00:00:00	2024-11-08T11:00:00	3	Temperatura mínima	20.3
104076	7	Sololá	713	San Lucas Tolimán	10	San Lucas Tolimán	1	Enero	2023-01-31T00:00:00	2024-11-08T11:00:00	5	Humedad	34
104077	7	Sololá	713	San Lucas Tolimán	10	San Lucas Tolimán	1	Enero	2023-01-31T00:00:00	2024-11-08T11:00:00	6	Velocidad del viento	6.4
104078	7	Sololá	713	San Lucas Tolimán	10	San Lucas Tolimán	1	Enero	2023-01-31T00:00:00	2024-11-08T11:00:00	7	Dirección del viento	6.44
104079	7	Sololá	713	San Lucas Tolimán	10	San Lucas Tolimán	1	Enero	2023-01-31T00:00:00	2024-11-08T11:00:00	1	Precipitación	0
104080	7	Sololá	713	San Lucas Tolimán	10	San Lucas Tolimán	1	Enero	2023-01-31T00:00:00	2024-11-08T11:00:00	8	Radiación solar	802
104081	7	Sololá	713	San Lucas Tolimán	10	San Lucas Tolimán	1	Enero	2023-01-31T00:00:00	2024-11-08T12:00:00	2	Temperatura media	23.9
104082	7	Sololá	713	San Lucas Tolimán	10	San Lucas Tolimán	1	Enero	2023-01-31T00:00:00	2024-11-08T12:00:00	4	Temperatura máxima	24.1
104083	7	Sololá	713	San Lucas Tolimán	10	San Lucas Tolimán	1	Enero	2023-01-31T00:00:00	2024-11-08T12:00:00	3	Temperatura mínima	22.4
104084	7	Sololá	713	San Lucas Tolimán	10	San Lucas Tolimán	1	Enero	2023-01-31T00:00:00	2024-11-08T12:00:00	5	Humedad	43
104085	7	Sololá	713	San Lucas Tolimán	10	San Lucas Tolimán	1	Enero	2023-01-31T00:00:00	2024-11-08T12:00:00	6	Velocidad del viento	6.4
104086	7	Sololá	713	San Lucas Tolimán	10	San Lucas Tolimán	1	Enero	2023-01-31T00:00:00	2024-11-08T12:00:00	7	Dirección del viento	6.44
104087	7	Sololá	713	San Lucas Tolimán	10	San Lucas Tolimán	1	Enero	2023-01-31T00:00:00	2024-11-08T12:00:00	1	Precipitación	0
104088	7	Sololá	713	San Lucas Tolimán	10	San Lucas Tolimán	1	Enero	2023-01-31T00:00:00	2024-11-08T12:00:00	8	Radiación solar	906
104089	7	Sololá	713	San Lucas Tolimán	10	San Lucas Tolimán	1	Enero	2023-01-31T00:00:00	2024-11-08T13:00:00	2	Temperatura media	23.9
104090	7	Sololá	713	San Lucas Tolimán	10	San Lucas Tolimán	1	Enero	2023-01-31T00:00:00	2024-11-08T13:00:00	4	Temperatura máxima	23.9
104091	7	Sololá	713	San Lucas Tolimán	10	San Lucas Tolimán	1	Enero	2023-01-31T00:00:00	2024-11-08T13:00:00	3	Temperatura mínima	23.3
104092	7	Sololá	713	San Lucas Tolimán	10	San Lucas Tolimán	1	Enero	2023-01-31T00:00:00	2024-11-08T13:00:00	5	Humedad	45
104093	7	Sololá	713	San Lucas Tolimán	10	San Lucas Tolimán	1	Enero	2023-01-31T00:00:00	2024-11-08T13:00:00	6	Velocidad del viento	9.7
104094	7	Sololá	713	San Lucas Tolimán	10	San Lucas Tolimán	1	Enero	2023-01-31T00:00:00	2024-11-08T13:00:00	7	Dirección del viento	9.66
104095	7	Sololá	713	San Lucas Tolimán	10	San Lucas Tolimán	1	Enero	2023-01-31T00:00:00	2024-11-08T13:00:00	1	Precipitación	0
104096	7	Sololá	713	San Lucas Tolimán	10	San Lucas Tolimán	1	Enero	2023-01-31T00:00:00	2024-11-08T13:00:00	8	Radiación solar	931
104097	7	Sololá	713	San Lucas Tolimán	10	San Lucas Tolimán	1	Enero	2023-01-31T00:00:00	2024-11-08T14:00:00	2	Temperatura media	23.7
104098	7	Sololá	713	San Lucas Tolimán	10	San Lucas Tolimán	1	Enero	2023-01-31T00:00:00	2024-11-08T14:00:00	4	Temperatura máxima	24
104099	7	Sololá	713	San Lucas Tolimán	10	San Lucas Tolimán	1	Enero	2023-01-31T00:00:00	2024-11-08T14:00:00	3	Temperatura mínima	23.3
104100	7	Sololá	713	San Lucas Tolimán	10	San Lucas Tolimán	1	Enero	2023-01-31T00:00:00	2024-11-08T14:00:00	5	Humedad	47
104101	7	Sololá	713	San Lucas Tolimán	10	San Lucas Tolimán	1	Enero	2023-01-31T00:00:00	2024-11-08T14:00:00	6	Velocidad del viento	11.3
104102	7	Sololá	713	San Lucas Tolimán	10	San Lucas Tolimán	1	Enero	2023-01-31T00:00:00	2024-11-08T14:00:00	7	Dirección del viento	11.27
104103	7	Sololá	713	San Lucas Tolimán	10	San Lucas Tolimán	1	Enero	2023-01-31T00:00:00	2024-11-08T14:00:00	1	Precipitación	0
104104	7	Sololá	713	San Lucas Tolimán	10	San Lucas Tolimán	1	Enero	2023-01-31T00:00:00	2024-11-08T14:00:00	8	Radiación solar	878
104105	7	Sololá	713	San Lucas Tolimán	10	San Lucas Tolimán	1	Enero	2023-01-31T00:00:00	2024-11-08T15:00:00	2	Temperatura media	23
104106	7	Sololá	713	San Lucas Tolimán	10	San Lucas Tolimán	1	Enero	2023-01-31T00:00:00	2024-11-08T15:00:00	4	Temperatura máxima	23.7
104107	7	Sololá	713	San Lucas Tolimán	10	San Lucas Tolimán	1	Enero	2023-01-31T00:00:00	2024-11-08T15:00:00	3	Temperatura mínima	22.7
104108	7	Sololá	713	San Lucas Tolimán	10	San Lucas Tolimán	1	Enero	2023-01-31T00:00:00	2024-11-08T15:00:00	5	Humedad	49
104109	7	Sololá	713	San Lucas Tolimán	10	San Lucas Tolimán	1	Enero	2023-01-31T00:00:00	2024-11-08T15:00:00	6	Velocidad del viento	14.5
104110	7	Sololá	713	San Lucas Tolimán	10	San Lucas Tolimán	1	Enero	2023-01-31T00:00:00	2024-11-08T15:00:00	7	Dirección del viento	14.48
104111	7	Sololá	713	San Lucas Tolimán	10	San Lucas Tolimán	1	Enero	2023-01-31T00:00:00	2024-11-08T15:00:00	1	Precipitación	0
104112	7	Sololá	713	San Lucas Tolimán	10	San Lucas Tolimán	1	Enero	2023-01-31T00:00:00	2024-11-08T15:00:00	8	Radiación solar	734
104113	7	Sololá	713	San Lucas Tolimán	10	San Lucas Tolimán	1	Enero	2023-01-31T00:00:00	2024-11-08T16:00:00	2	Temperatura media	22.2
104114	7	Sololá	713	San Lucas Tolimán	10	San Lucas Tolimán	1	Enero	2023-01-31T00:00:00	2024-11-08T16:00:00	4	Temperatura máxima	23.1
104115	7	Sololá	713	San Lucas Tolimán	10	San Lucas Tolimán	1	Enero	2023-01-31T00:00:00	2024-11-08T16:00:00	3	Temperatura mínima	22.2
104116	7	Sololá	713	San Lucas Tolimán	10	San Lucas Tolimán	1	Enero	2023-01-31T00:00:00	2024-11-08T16:00:00	5	Humedad	52
104117	7	Sololá	713	San Lucas Tolimán	10	San Lucas Tolimán	1	Enero	2023-01-31T00:00:00	2024-11-08T16:00:00	6	Velocidad del viento	16.1
104118	7	Sololá	713	San Lucas Tolimán	10	San Lucas Tolimán	1	Enero	2023-01-31T00:00:00	2024-11-08T16:00:00	7	Dirección del viento	16.09
104119	7	Sololá	713	San Lucas Tolimán	10	San Lucas Tolimán	1	Enero	2023-01-31T00:00:00	2024-11-08T16:00:00	1	Precipitación	0
104120	7	Sololá	713	San Lucas Tolimán	10	San Lucas Tolimán	1	Enero	2023-01-31T00:00:00	2024-11-08T16:00:00	8	Radiación solar	521
104121	7	Sololá	713	San Lucas Tolimán	10	San Lucas Tolimán	1	Enero	2023-01-31T00:00:00	2024-11-08T17:00:00	2	Temperatura media	20.4
104122	7	Sololá	713	San Lucas Tolimán	10	San Lucas Tolimán	1	Enero	2023-01-31T00:00:00	2024-11-08T17:00:00	4	Temperatura máxima	22.5
104123	7	Sololá	713	San Lucas Tolimán	10	San Lucas Tolimán	1	Enero	2023-01-31T00:00:00	2024-11-08T17:00:00	3	Temperatura mínima	20.4
104124	7	Sololá	713	San Lucas Tolimán	10	San Lucas Tolimán	1	Enero	2023-01-31T00:00:00	2024-11-08T17:00:00	5	Humedad	62
104125	7	Sololá	713	San Lucas Tolimán	10	San Lucas Tolimán	1	Enero	2023-01-31T00:00:00	2024-11-08T17:00:00	6	Velocidad del viento	12.9
104126	7	Sololá	713	San Lucas Tolimán	10	San Lucas Tolimán	1	Enero	2023-01-31T00:00:00	2024-11-08T17:00:00	7	Dirección del viento	12.87
104127	7	Sololá	713	San Lucas Tolimán	10	San Lucas Tolimán	1	Enero	2023-01-31T00:00:00	2024-11-08T17:00:00	1	Precipitación	0
104128	7	Sololá	713	San Lucas Tolimán	10	San Lucas Tolimán	1	Enero	2023-01-31T00:00:00	2024-11-08T17:00:00	8	Radiación solar	280
104129	7	Sololá	713	San Lucas Tolimán	10	San Lucas Tolimán	1	Enero	2023-01-31T00:00:00	2024-11-08T18:00:00	2	Temperatura media	18.4
104130	7	Sololá	713	San Lucas Tolimán	10	San Lucas Tolimán	1	Enero	2023-01-31T00:00:00	2024-11-08T18:00:00	4	Temperatura máxima	20.4
104131	7	Sololá	713	San Lucas Tolimán	10	San Lucas Tolimán	1	Enero	2023-01-31T00:00:00	2024-11-08T18:00:00	3	Temperatura mínima	18.4
104132	7	Sololá	713	San Lucas Tolimán	10	San Lucas Tolimán	1	Enero	2023-01-31T00:00:00	2024-11-08T18:00:00	5	Humedad	63
104133	7	Sololá	713	San Lucas Tolimán	10	San Lucas Tolimán	1	Enero	2023-01-31T00:00:00	2024-11-08T18:00:00	6	Velocidad del viento	6.4
104134	7	Sololá	713	San Lucas Tolimán	10	San Lucas Tolimán	1	Enero	2023-01-31T00:00:00	2024-11-08T18:00:00	7	Dirección del viento	6.44
104135	7	Sololá	713	San Lucas Tolimán	10	San Lucas Tolimán	1	Enero	2023-01-31T00:00:00	2024-11-08T18:00:00	1	Precipitación	0
104136	7	Sololá	713	San Lucas Tolimán	10	San Lucas Tolimán	1	Enero	2023-01-31T00:00:00	2024-11-08T18:00:00	8	Radiación solar	18
104137	7	Sololá	713	San Lucas Tolimán	10	San Lucas Tolimán	1	Enero	2023-01-31T00:00:00	2024-11-08T19:00:00	2	Temperatura media	17.2
104138	7	Sololá	713	San Lucas Tolimán	10	San Lucas Tolimán	1	Enero	2023-01-31T00:00:00	2024-11-08T19:00:00	4	Temperatura máxima	18.4
104139	7	Sololá	713	San Lucas Tolimán	10	San Lucas Tolimán	1	Enero	2023-01-31T00:00:00	2024-11-08T19:00:00	3	Temperatura mínima	17.2
104140	7	Sololá	713	San Lucas Tolimán	10	San Lucas Tolimán	1	Enero	2023-01-31T00:00:00	2024-11-08T19:00:00	5	Humedad	57
104141	7	Sololá	713	San Lucas Tolimán	10	San Lucas Tolimán	1	Enero	2023-01-31T00:00:00	2024-11-08T19:00:00	6	Velocidad del viento	3.2
104142	7	Sololá	713	San Lucas Tolimán	10	San Lucas Tolimán	1	Enero	2023-01-31T00:00:00	2024-11-08T19:00:00	7	Dirección del viento	3.22
104143	7	Sololá	713	San Lucas Tolimán	10	San Lucas Tolimán	1	Enero	2023-01-31T00:00:00	2024-11-08T19:00:00	1	Precipitación	0
104144	7	Sololá	713	San Lucas Tolimán	10	San Lucas Tolimán	1	Enero	2023-01-31T00:00:00	2024-11-08T19:00:00	8	Radiación solar	0
104145	7	Sololá	713	San Lucas Tolimán	10	San Lucas Tolimán	1	Enero	2023-01-31T00:00:00	2024-11-08T20:00:00	2	Temperatura media	18.8
104146	7	Sololá	713	San Lucas Tolimán	10	San Lucas Tolimán	1	Enero	2023-01-31T00:00:00	2024-11-08T20:00:00	4	Temperatura máxima	18.8
104147	7	Sololá	713	San Lucas Tolimán	10	San Lucas Tolimán	1	Enero	2023-01-31T00:00:00	2024-11-08T20:00:00	3	Temperatura mínima	17.2
104148	7	Sololá	713	San Lucas Tolimán	10	San Lucas Tolimán	1	Enero	2023-01-31T00:00:00	2024-11-08T20:00:00	5	Humedad	54
104149	7	Sololá	713	San Lucas Tolimán	10	San Lucas Tolimán	1	Enero	2023-01-31T00:00:00	2024-11-08T20:00:00	6	Velocidad del viento	1.6
104150	7	Sololá	713	San Lucas Tolimán	10	San Lucas Tolimán	1	Enero	2023-01-31T00:00:00	2024-11-08T20:00:00	7	Dirección del viento	1.61
104151	7	Sololá	713	San Lucas Tolimán	10	San Lucas Tolimán	1	Enero	2023-01-31T00:00:00	2024-11-08T20:00:00	1	Precipitación	0
104152	7	Sololá	713	San Lucas Tolimán	10	San Lucas Tolimán	1	Enero	2023-01-31T00:00:00	2024-11-08T20:00:00	8	Radiación solar	0
104153	7	Sololá	713	San Lucas Tolimán	10	San Lucas Tolimán	1	Enero	2023-01-31T00:00:00	2024-11-08T21:00:00	2	Temperatura media	18.9
104154	7	Sololá	713	San Lucas Tolimán	10	San Lucas Tolimán	1	Enero	2023-01-31T00:00:00	2024-11-08T21:00:00	4	Temperatura máxima	19.6
104155	7	Sololá	713	San Lucas Tolimán	10	San Lucas Tolimán	1	Enero	2023-01-31T00:00:00	2024-11-08T21:00:00	3	Temperatura mínima	18.8
104156	7	Sololá	713	San Lucas Tolimán	10	San Lucas Tolimán	1	Enero	2023-01-31T00:00:00	2024-11-08T21:00:00	5	Humedad	53
104157	7	Sololá	713	San Lucas Tolimán	10	San Lucas Tolimán	1	Enero	2023-01-31T00:00:00	2024-11-08T21:00:00	6	Velocidad del viento	12.9
104158	7	Sololá	713	San Lucas Tolimán	10	San Lucas Tolimán	1	Enero	2023-01-31T00:00:00	2024-11-08T21:00:00	7	Dirección del viento	12.87
104159	7	Sololá	713	San Lucas Tolimán	10	San Lucas Tolimán	1	Enero	2023-01-31T00:00:00	2024-11-08T21:00:00	1	Precipitación	0
104160	7	Sololá	713	San Lucas Tolimán	10	San Lucas Tolimán	1	Enero	2023-01-31T00:00:00	2024-11-08T21:00:00	8	Radiación solar	0
104161	7	Sololá	713	San Lucas Tolimán	10	San Lucas Tolimán	1	Enero	2023-01-31T00:00:00	2024-11-08T22:00:00	2	Temperatura media	18.6
104162	7	Sololá	713	San Lucas Tolimán	10	San Lucas Tolimán	1	Enero	2023-01-31T00:00:00	2024-11-08T22:00:00	4	Temperatura máxima	19
104163	7	Sololá	713	San Lucas Tolimán	10	San Lucas Tolimán	1	Enero	2023-01-31T00:00:00	2024-11-08T22:00:00	3	Temperatura mínima	18.6
104164	7	Sololá	713	San Lucas Tolimán	10	San Lucas Tolimán	1	Enero	2023-01-31T00:00:00	2024-11-08T22:00:00	5	Humedad	53
104165	7	Sololá	713	San Lucas Tolimán	10	San Lucas Tolimán	1	Enero	2023-01-31T00:00:00	2024-11-08T22:00:00	6	Velocidad del viento	12.9
104166	7	Sololá	713	San Lucas Tolimán	10	San Lucas Tolimán	1	Enero	2023-01-31T00:00:00	2024-11-08T22:00:00	7	Dirección del viento	12.87
104167	7	Sololá	713	San Lucas Tolimán	10	San Lucas Tolimán	1	Enero	2023-01-31T00:00:00	2024-11-08T22:00:00	1	Precipitación	0
104168	7	Sololá	713	San Lucas Tolimán	10	San Lucas Tolimán	1	Enero	2023-01-31T00:00:00	2024-11-08T22:00:00	8	Radiación solar	0
104169	7	Sololá	713	San Lucas Tolimán	10	San Lucas Tolimán	1	Enero	2023-01-31T00:00:00	2024-11-08T23:00:00	2	Temperatura media	18.3
104170	7	Sololá	713	San Lucas Tolimán	10	San Lucas Tolimán	1	Enero	2023-01-31T00:00:00	2024-11-08T23:00:00	4	Temperatura máxima	18.6
104171	7	Sololá	713	San Lucas Tolimán	10	San Lucas Tolimán	1	Enero	2023-01-31T00:00:00	2024-11-08T23:00:00	3	Temperatura mínima	18.1
104172	7	Sololá	713	San Lucas Tolimán	10	San Lucas Tolimán	1	Enero	2023-01-31T00:00:00	2024-11-08T23:00:00	5	Humedad	52
104173	7	Sololá	713	San Lucas Tolimán	10	San Lucas Tolimán	1	Enero	2023-01-31T00:00:00	2024-11-08T23:00:00	6	Velocidad del viento	9.7
104174	7	Sololá	713	San Lucas Tolimán	10	San Lucas Tolimán	1	Enero	2023-01-31T00:00:00	2024-11-08T23:00:00	7	Dirección del viento	9.66
104175	7	Sololá	713	San Lucas Tolimán	10	San Lucas Tolimán	1	Enero	2023-01-31T00:00:00	2024-11-08T23:00:00	1	Precipitación	0
104176	7	Sololá	713	San Lucas Tolimán	10	San Lucas Tolimán	1	Enero	2023-01-31T00:00:00	2024-11-08T23:00:00	8	Radiación solar	0
104177	7	Sololá	713	San Lucas Tolimán	10	San Lucas Tolimán	2	Febrero	2023-01-02T00:00:00	2024-11-08T00:00:00	2	Temperatura media	17.6
104178	7	Sololá	713	San Lucas Tolimán	10	San Lucas Tolimán	2	Febrero	2023-01-02T00:00:00	2024-11-08T00:00:00	4	Temperatura máxima	18.3
104179	7	Sololá	713	San Lucas Tolimán	10	San Lucas Tolimán	2	Febrero	2023-01-02T00:00:00	2024-11-08T00:00:00	3	Temperatura mínima	17.5
104180	7	Sololá	713	San Lucas Tolimán	10	San Lucas Tolimán	2	Febrero	2023-01-02T00:00:00	2024-11-08T00:00:00	5	Humedad	53
104181	7	Sololá	713	San Lucas Tolimán	10	San Lucas Tolimán	2	Febrero	2023-01-02T00:00:00	2024-11-08T00:00:00	6	Velocidad del viento	6.4
104182	7	Sololá	713	San Lucas Tolimán	10	San Lucas Tolimán	2	Febrero	2023-01-02T00:00:00	2024-11-08T00:00:00	7	Dirección del viento	6.44
104183	7	Sololá	713	San Lucas Tolimán	10	San Lucas Tolimán	2	Febrero	2023-01-02T00:00:00	2024-11-08T00:00:00	1	Precipitación	0
104184	7	Sololá	713	San Lucas Tolimán	10	San Lucas Tolimán	2	Febrero	2023-01-02T00:00:00	2024-11-08T00:00:00	8	Radiación solar	0
104185	7	Sololá	713	San Lucas Tolimán	10	San Lucas Tolimán	2	Febrero	2023-01-02T00:00:00	2024-11-08T01:00:00	2	Temperatura media	15.8
104186	7	Sololá	713	San Lucas Tolimán	10	San Lucas Tolimán	2	Febrero	2023-01-02T00:00:00	2024-11-08T01:00:00	4	Temperatura máxima	17.6
104187	7	Sololá	713	San Lucas Tolimán	10	San Lucas Tolimán	2	Febrero	2023-01-02T00:00:00	2024-11-08T01:00:00	3	Temperatura mínima	15.8
104188	7	Sololá	713	San Lucas Tolimán	10	San Lucas Tolimán	2	Febrero	2023-01-02T00:00:00	2024-11-08T01:00:00	5	Humedad	58
104189	7	Sololá	713	San Lucas Tolimán	10	San Lucas Tolimán	2	Febrero	2023-01-02T00:00:00	2024-11-08T01:00:00	6	Velocidad del viento	3.2
104190	7	Sololá	713	San Lucas Tolimán	10	San Lucas Tolimán	2	Febrero	2023-01-02T00:00:00	2024-11-08T01:00:00	7	Dirección del viento	3.22
104191	7	Sololá	713	San Lucas Tolimán	10	San Lucas Tolimán	2	Febrero	2023-01-02T00:00:00	2024-11-08T01:00:00	1	Precipitación	0
104192	7	Sololá	713	San Lucas Tolimán	10	San Lucas Tolimán	2	Febrero	2023-01-02T00:00:00	2024-11-08T01:00:00	8	Radiación solar	0
104193	7	Sololá	713	San Lucas Tolimán	10	San Lucas Tolimán	2	Febrero	2023-01-02T00:00:00	2024-11-08T02:00:00	2	Temperatura media	16.2
104194	7	Sololá	713	San Lucas Tolimán	10	San Lucas Tolimán	2	Febrero	2023-01-02T00:00:00	2024-11-08T02:00:00	4	Temperatura máxima	16.3
104195	7	Sololá	713	San Lucas Tolimán	10	San Lucas Tolimán	2	Febrero	2023-01-02T00:00:00	2024-11-08T02:00:00	3	Temperatura mínima	15.8
104196	7	Sololá	713	San Lucas Tolimán	10	San Lucas Tolimán	2	Febrero	2023-01-02T00:00:00	2024-11-08T02:00:00	5	Humedad	57
104197	7	Sololá	713	San Lucas Tolimán	10	San Lucas Tolimán	2	Febrero	2023-01-02T00:00:00	2024-11-08T02:00:00	6	Velocidad del viento	4.8
104198	7	Sololá	713	San Lucas Tolimán	10	San Lucas Tolimán	2	Febrero	2023-01-02T00:00:00	2024-11-08T02:00:00	7	Dirección del viento	4.83
104199	7	Sololá	713	San Lucas Tolimán	10	San Lucas Tolimán	2	Febrero	2023-01-02T00:00:00	2024-11-08T02:00:00	1	Precipitación	0
104200	7	Sololá	713	San Lucas Tolimán	10	San Lucas Tolimán	2	Febrero	2023-01-02T00:00:00	2024-11-08T02:00:00	8	Radiación solar	0
104201	7	Sololá	713	San Lucas Tolimán	10	San Lucas Tolimán	2	Febrero	2023-01-02T00:00:00	2024-11-08T03:00:00	2	Temperatura media	16.2
104202	7	Sololá	713	San Lucas Tolimán	10	San Lucas Tolimán	2	Febrero	2023-01-02T00:00:00	2024-11-08T03:00:00	4	Temperatura máxima	16.6
104203	7	Sololá	713	San Lucas Tolimán	10	San Lucas Tolimán	2	Febrero	2023-01-02T00:00:00	2024-11-08T03:00:00	3	Temperatura mínima	16.2
104204	7	Sololá	713	San Lucas Tolimán	10	San Lucas Tolimán	2	Febrero	2023-01-02T00:00:00	2024-11-08T03:00:00	5	Humedad	56
104205	7	Sololá	713	San Lucas Tolimán	10	San Lucas Tolimán	2	Febrero	2023-01-02T00:00:00	2024-11-08T03:00:00	6	Velocidad del viento	4.8
104206	7	Sololá	713	San Lucas Tolimán	10	San Lucas Tolimán	2	Febrero	2023-01-02T00:00:00	2024-11-08T03:00:00	7	Dirección del viento	4.83
104207	7	Sololá	713	San Lucas Tolimán	10	San Lucas Tolimán	2	Febrero	2023-01-02T00:00:00	2024-11-08T03:00:00	1	Precipitación	0
104208	7	Sololá	713	San Lucas Tolimán	10	San Lucas Tolimán	2	Febrero	2023-01-02T00:00:00	2024-11-08T03:00:00	8	Radiación solar	0
104209	7	Sololá	713	San Lucas Tolimán	10	San Lucas Tolimán	2	Febrero	2023-01-02T00:00:00	2024-11-08T04:00:00	2	Temperatura media	15.7
104210	7	Sololá	713	San Lucas Tolimán	10	San Lucas Tolimán	2	Febrero	2023-01-02T00:00:00	2024-11-08T04:00:00	4	Temperatura máxima	16.3
104211	7	Sololá	713	San Lucas Tolimán	10	San Lucas Tolimán	2	Febrero	2023-01-02T00:00:00	2024-11-08T04:00:00	3	Temperatura mínima	15.6
104212	7	Sololá	713	San Lucas Tolimán	10	San Lucas Tolimán	2	Febrero	2023-01-02T00:00:00	2024-11-08T04:00:00	5	Humedad	57
104213	7	Sololá	713	San Lucas Tolimán	10	San Lucas Tolimán	2	Febrero	2023-01-02T00:00:00	2024-11-08T04:00:00	6	Velocidad del viento	4.8
104214	7	Sololá	713	San Lucas Tolimán	10	San Lucas Tolimán	2	Febrero	2023-01-02T00:00:00	2024-11-08T04:00:00	7	Dirección del viento	4.83
104215	7	Sololá	713	San Lucas Tolimán	10	San Lucas Tolimán	2	Febrero	2023-01-02T00:00:00	2024-11-08T04:00:00	1	Precipitación	0
104216	7	Sololá	713	San Lucas Tolimán	10	San Lucas Tolimán	2	Febrero	2023-01-02T00:00:00	2024-11-08T04:00:00	8	Radiación solar	0
104217	7	Sololá	713	San Lucas Tolimán	10	San Lucas Tolimán	2	Febrero	2023-01-02T00:00:00	2024-11-08T05:00:00	2	Temperatura media	15.1
104218	7	Sololá	713	San Lucas Tolimán	10	San Lucas Tolimán	2	Febrero	2023-01-02T00:00:00	2024-11-08T05:00:00	4	Temperatura máxima	15.7
104219	7	Sololá	713	San Lucas Tolimán	10	San Lucas Tolimán	2	Febrero	2023-01-02T00:00:00	2024-11-08T05:00:00	3	Temperatura mínima	15
104220	7	Sololá	713	San Lucas Tolimán	10	San Lucas Tolimán	2	Febrero	2023-01-02T00:00:00	2024-11-08T05:00:00	5	Humedad	58
104221	7	Sololá	713	San Lucas Tolimán	10	San Lucas Tolimán	2	Febrero	2023-01-02T00:00:00	2024-11-08T05:00:00	6	Velocidad del viento	1.6
104222	7	Sololá	713	San Lucas Tolimán	10	San Lucas Tolimán	2	Febrero	2023-01-02T00:00:00	2024-11-08T05:00:00	7	Dirección del viento	1.61
104223	7	Sololá	713	San Lucas Tolimán	10	San Lucas Tolimán	2	Febrero	2023-01-02T00:00:00	2024-11-08T05:00:00	1	Precipitación	0
104224	7	Sololá	713	San Lucas Tolimán	10	San Lucas Tolimán	2	Febrero	2023-01-02T00:00:00	2024-11-08T05:00:00	8	Radiación solar	0
104225	7	Sololá	713	San Lucas Tolimán	10	San Lucas Tolimán	2	Febrero	2023-01-02T00:00:00	2024-11-08T06:00:00	2	Temperatura media	15.3
104226	7	Sololá	713	San Lucas Tolimán	10	San Lucas Tolimán	2	Febrero	2023-01-02T00:00:00	2024-11-08T06:00:00	4	Temperatura máxima	15.7
104227	7	Sololá	713	San Lucas Tolimán	10	San Lucas Tolimán	2	Febrero	2023-01-02T00:00:00	2024-11-08T06:00:00	3	Temperatura mínima	15
104228	7	Sololá	713	San Lucas Tolimán	10	San Lucas Tolimán	2	Febrero	2023-01-02T00:00:00	2024-11-08T06:00:00	5	Humedad	58
104229	7	Sololá	713	San Lucas Tolimán	10	San Lucas Tolimán	2	Febrero	2023-01-02T00:00:00	2024-11-08T06:00:00	6	Velocidad del viento	1.6
104230	7	Sololá	713	San Lucas Tolimán	10	San Lucas Tolimán	2	Febrero	2023-01-02T00:00:00	2024-11-08T06:00:00	7	Dirección del viento	1.61
104231	7	Sololá	713	San Lucas Tolimán	10	San Lucas Tolimán	2	Febrero	2023-01-02T00:00:00	2024-11-08T06:00:00	1	Precipitación	0
104232	7	Sololá	713	San Lucas Tolimán	10	San Lucas Tolimán	2	Febrero	2023-01-02T00:00:00	2024-11-08T06:00:00	8	Radiación solar	0
104233	7	Sololá	713	San Lucas Tolimán	10	San Lucas Tolimán	2	Febrero	2023-01-02T00:00:00	2024-11-08T07:00:00	2	Temperatura media	15.7
104234	7	Sololá	713	San Lucas Tolimán	10	San Lucas Tolimán	2	Febrero	2023-01-02T00:00:00	2024-11-08T07:00:00	4	Temperatura máxima	15.8
104235	7	Sololá	713	San Lucas Tolimán	10	San Lucas Tolimán	2	Febrero	2023-01-02T00:00:00	2024-11-08T07:00:00	3	Temperatura mínima	15.3
104236	7	Sololá	713	San Lucas Tolimán	10	San Lucas Tolimán	2	Febrero	2023-01-02T00:00:00	2024-11-08T07:00:00	5	Humedad	57
104237	7	Sololá	713	San Lucas Tolimán	10	San Lucas Tolimán	2	Febrero	2023-01-02T00:00:00	2024-11-08T07:00:00	6	Velocidad del viento	3.2
104238	7	Sololá	713	San Lucas Tolimán	10	San Lucas Tolimán	2	Febrero	2023-01-02T00:00:00	2024-11-08T07:00:00	7	Dirección del viento	3.22
104239	7	Sololá	713	San Lucas Tolimán	10	San Lucas Tolimán	2	Febrero	2023-01-02T00:00:00	2024-11-08T07:00:00	1	Precipitación	0
104240	7	Sololá	713	San Lucas Tolimán	10	San Lucas Tolimán	2	Febrero	2023-01-02T00:00:00	2024-11-08T07:00:00	8	Radiación solar	4
104241	7	Sololá	713	San Lucas Tolimán	10	San Lucas Tolimán	2	Febrero	2023-01-02T00:00:00	2024-11-08T08:00:00	2	Temperatura media	16.5
104242	7	Sololá	713	San Lucas Tolimán	10	San Lucas Tolimán	2	Febrero	2023-01-02T00:00:00	2024-11-08T08:00:00	4	Temperatura máxima	16.5
104243	7	Sololá	713	San Lucas Tolimán	10	San Lucas Tolimán	2	Febrero	2023-01-02T00:00:00	2024-11-08T08:00:00	3	Temperatura mínima	15.4
104244	7	Sololá	713	San Lucas Tolimán	10	San Lucas Tolimán	2	Febrero	2023-01-02T00:00:00	2024-11-08T08:00:00	5	Humedad	55
104245	7	Sololá	713	San Lucas Tolimán	10	San Lucas Tolimán	2	Febrero	2023-01-02T00:00:00	2024-11-08T08:00:00	6	Velocidad del viento	4.8
104246	7	Sololá	713	San Lucas Tolimán	10	San Lucas Tolimán	2	Febrero	2023-01-02T00:00:00	2024-11-08T08:00:00	7	Dirección del viento	4.83
104247	7	Sololá	713	San Lucas Tolimán	10	San Lucas Tolimán	2	Febrero	2023-01-02T00:00:00	2024-11-08T08:00:00	1	Precipitación	0
104248	7	Sololá	713	San Lucas Tolimán	10	San Lucas Tolimán	2	Febrero	2023-01-02T00:00:00	2024-11-08T08:00:00	8	Radiación solar	20
104249	7	Sololá	713	San Lucas Tolimán	10	San Lucas Tolimán	2	Febrero	2023-01-02T00:00:00	2024-11-08T09:00:00	2	Temperatura media	19.3
104250	7	Sololá	713	San Lucas Tolimán	10	San Lucas Tolimán	2	Febrero	2023-01-02T00:00:00	2024-11-08T09:00:00	4	Temperatura máxima	19.3
104251	7	Sololá	713	San Lucas Tolimán	10	San Lucas Tolimán	2	Febrero	2023-01-02T00:00:00	2024-11-08T09:00:00	3	Temperatura mínima	16.4
104252	7	Sololá	713	San Lucas Tolimán	10	San Lucas Tolimán	2	Febrero	2023-01-02T00:00:00	2024-11-08T09:00:00	5	Humedad	50
104253	7	Sololá	713	San Lucas Tolimán	10	San Lucas Tolimán	2	Febrero	2023-01-02T00:00:00	2024-11-08T09:00:00	6	Velocidad del viento	3.2
104254	7	Sololá	713	San Lucas Tolimán	10	San Lucas Tolimán	2	Febrero	2023-01-02T00:00:00	2024-11-08T09:00:00	7	Dirección del viento	3.22
104255	7	Sololá	713	San Lucas Tolimán	10	San Lucas Tolimán	2	Febrero	2023-01-02T00:00:00	2024-11-08T09:00:00	1	Precipitación	0
104256	7	Sololá	713	San Lucas Tolimán	10	San Lucas Tolimán	2	Febrero	2023-01-02T00:00:00	2024-11-08T09:00:00	8	Radiación solar	351
104257	7	Sololá	713	San Lucas Tolimán	10	San Lucas Tolimán	2	Febrero	2023-01-02T00:00:00	2024-11-08T10:00:00	2	Temperatura media	20.8
104258	7	Sololá	713	San Lucas Tolimán	10	San Lucas Tolimán	2	Febrero	2023-01-02T00:00:00	2024-11-08T10:00:00	4	Temperatura máxima	20.8
104259	7	Sololá	713	San Lucas Tolimán	10	San Lucas Tolimán	2	Febrero	2023-01-02T00:00:00	2024-11-08T10:00:00	3	Temperatura mínima	19.3
104260	7	Sololá	713	San Lucas Tolimán	10	San Lucas Tolimán	2	Febrero	2023-01-02T00:00:00	2024-11-08T10:00:00	5	Humedad	44
104261	7	Sololá	713	San Lucas Tolimán	10	San Lucas Tolimán	2	Febrero	2023-01-02T00:00:00	2024-11-08T10:00:00	6	Velocidad del viento	4.8
104262	7	Sololá	713	San Lucas Tolimán	10	San Lucas Tolimán	2	Febrero	2023-01-02T00:00:00	2024-11-08T10:00:00	7	Dirección del viento	4.83
104263	7	Sololá	713	San Lucas Tolimán	10	San Lucas Tolimán	2	Febrero	2023-01-02T00:00:00	2024-11-08T10:00:00	1	Precipitación	0
104264	7	Sololá	713	San Lucas Tolimán	10	San Lucas Tolimán	2	Febrero	2023-01-02T00:00:00	2024-11-08T10:00:00	8	Radiación solar	621
104265	7	Sololá	713	San Lucas Tolimán	10	San Lucas Tolimán	2	Febrero	2023-01-02T00:00:00	2024-11-08T11:00:00	2	Temperatura media	23.8
104266	7	Sololá	713	San Lucas Tolimán	10	San Lucas Tolimán	2	Febrero	2023-01-02T00:00:00	2024-11-08T11:00:00	4	Temperatura máxima	23.8
104267	7	Sololá	713	San Lucas Tolimán	10	San Lucas Tolimán	2	Febrero	2023-01-02T00:00:00	2024-11-08T11:00:00	3	Temperatura mínima	20.8
104268	7	Sololá	713	San Lucas Tolimán	10	San Lucas Tolimán	2	Febrero	2023-01-02T00:00:00	2024-11-08T11:00:00	5	Humedad	37
104269	7	Sololá	713	San Lucas Tolimán	10	San Lucas Tolimán	2	Febrero	2023-01-02T00:00:00	2024-11-08T11:00:00	6	Velocidad del viento	4.8
104270	7	Sololá	713	San Lucas Tolimán	10	San Lucas Tolimán	2	Febrero	2023-01-02T00:00:00	2024-11-08T11:00:00	7	Dirección del viento	4.83
104271	7	Sololá	713	San Lucas Tolimán	10	San Lucas Tolimán	2	Febrero	2023-01-02T00:00:00	2024-11-08T11:00:00	1	Precipitación	0
104272	7	Sololá	713	San Lucas Tolimán	10	San Lucas Tolimán	2	Febrero	2023-01-02T00:00:00	2024-11-08T11:00:00	8	Radiación solar	792
104273	7	Sololá	713	San Lucas Tolimán	10	San Lucas Tolimán	2	Febrero	2023-01-02T00:00:00	2024-11-08T12:00:00	2	Temperatura media	24.1
104274	7	Sololá	713	San Lucas Tolimán	10	San Lucas Tolimán	2	Febrero	2023-01-02T00:00:00	2024-11-08T12:00:00	4	Temperatura máxima	25.3
104275	7	Sololá	713	San Lucas Tolimán	10	San Lucas Tolimán	2	Febrero	2023-01-02T00:00:00	2024-11-08T12:00:00	3	Temperatura mínima	23.8
104276	7	Sololá	713	San Lucas Tolimán	10	San Lucas Tolimán	2	Febrero	2023-01-02T00:00:00	2024-11-08T12:00:00	5	Humedad	46
104277	7	Sololá	713	San Lucas Tolimán	10	San Lucas Tolimán	2	Febrero	2023-01-02T00:00:00	2024-11-08T12:00:00	6	Velocidad del viento	6.4
104278	7	Sololá	713	San Lucas Tolimán	10	San Lucas Tolimán	2	Febrero	2023-01-02T00:00:00	2024-11-08T12:00:00	7	Dirección del viento	6.44
104279	7	Sololá	713	San Lucas Tolimán	10	San Lucas Tolimán	2	Febrero	2023-01-02T00:00:00	2024-11-08T12:00:00	1	Precipitación	0
104280	7	Sololá	713	San Lucas Tolimán	10	San Lucas Tolimán	2	Febrero	2023-01-02T00:00:00	2024-11-08T12:00:00	8	Radiación solar	901
104281	7	Sololá	713	San Lucas Tolimán	10	San Lucas Tolimán	2	Febrero	2023-01-02T00:00:00	2024-11-08T13:00:00	2	Temperatura media	23.5
104282	7	Sololá	713	San Lucas Tolimán	10	San Lucas Tolimán	2	Febrero	2023-01-02T00:00:00	2024-11-08T13:00:00	4	Temperatura máxima	24.3
104283	7	Sololá	713	San Lucas Tolimán	10	San Lucas Tolimán	2	Febrero	2023-01-02T00:00:00	2024-11-08T13:00:00	3	Temperatura mínima	23.4
104284	7	Sololá	713	San Lucas Tolimán	10	San Lucas Tolimán	2	Febrero	2023-01-02T00:00:00	2024-11-08T13:00:00	5	Humedad	51
104285	7	Sololá	713	San Lucas Tolimán	10	San Lucas Tolimán	2	Febrero	2023-01-02T00:00:00	2024-11-08T13:00:00	6	Velocidad del viento	11.3
104286	7	Sololá	713	San Lucas Tolimán	10	San Lucas Tolimán	2	Febrero	2023-01-02T00:00:00	2024-11-08T13:00:00	7	Dirección del viento	11.27
104287	7	Sololá	713	San Lucas Tolimán	10	San Lucas Tolimán	2	Febrero	2023-01-02T00:00:00	2024-11-08T13:00:00	1	Precipitación	0
104288	7	Sololá	713	San Lucas Tolimán	10	San Lucas Tolimán	2	Febrero	2023-01-02T00:00:00	2024-11-08T13:00:00	8	Radiación solar	920
104289	7	Sololá	713	San Lucas Tolimán	10	San Lucas Tolimán	2	Febrero	2023-01-02T00:00:00	2024-11-08T14:00:00	2	Temperatura media	23.2
104290	7	Sololá	713	San Lucas Tolimán	10	San Lucas Tolimán	2	Febrero	2023-01-02T00:00:00	2024-11-08T14:00:00	4	Temperatura máxima	23.9
104291	7	Sololá	713	San Lucas Tolimán	10	San Lucas Tolimán	2	Febrero	2023-01-02T00:00:00	2024-11-08T14:00:00	3	Temperatura mínima	22.8
104292	7	Sololá	713	San Lucas Tolimán	10	San Lucas Tolimán	2	Febrero	2023-01-02T00:00:00	2024-11-08T14:00:00	5	Humedad	52
104293	7	Sololá	713	San Lucas Tolimán	10	San Lucas Tolimán	2	Febrero	2023-01-02T00:00:00	2024-11-08T14:00:00	6	Velocidad del viento	14.5
104294	7	Sololá	713	San Lucas Tolimán	10	San Lucas Tolimán	2	Febrero	2023-01-02T00:00:00	2024-11-08T14:00:00	7	Dirección del viento	14.48
104295	7	Sololá	713	San Lucas Tolimán	10	San Lucas Tolimán	2	Febrero	2023-01-02T00:00:00	2024-11-08T14:00:00	1	Precipitación	0
104296	7	Sololá	713	San Lucas Tolimán	10	San Lucas Tolimán	2	Febrero	2023-01-02T00:00:00	2024-11-08T14:00:00	8	Radiación solar	871
104297	7	Sololá	713	San Lucas Tolimán	10	San Lucas Tolimán	2	Febrero	2023-01-02T00:00:00	2024-11-08T15:00:00	2	Temperatura media	23
104298	7	Sololá	713	San Lucas Tolimán	10	San Lucas Tolimán	2	Febrero	2023-01-02T00:00:00	2024-11-08T15:00:00	4	Temperatura máxima	23.4
104299	7	Sololá	713	San Lucas Tolimán	10	San Lucas Tolimán	2	Febrero	2023-01-02T00:00:00	2024-11-08T15:00:00	3	Temperatura mínima	22.4
104300	7	Sololá	713	San Lucas Tolimán	10	San Lucas Tolimán	2	Febrero	2023-01-02T00:00:00	2024-11-08T15:00:00	5	Humedad	53
104301	7	Sololá	713	San Lucas Tolimán	10	San Lucas Tolimán	2	Febrero	2023-01-02T00:00:00	2024-11-08T15:00:00	6	Velocidad del viento	14.5
104302	7	Sololá	713	San Lucas Tolimán	10	San Lucas Tolimán	2	Febrero	2023-01-02T00:00:00	2024-11-08T15:00:00	7	Dirección del viento	14.48
104303	7	Sololá	713	San Lucas Tolimán	10	San Lucas Tolimán	2	Febrero	2023-01-02T00:00:00	2024-11-08T15:00:00	1	Precipitación	0
104304	7	Sololá	713	San Lucas Tolimán	10	San Lucas Tolimán	2	Febrero	2023-01-02T00:00:00	2024-11-08T15:00:00	8	Radiación solar	741
104305	7	Sololá	713	San Lucas Tolimán	10	San Lucas Tolimán	2	Febrero	2023-01-02T00:00:00	2024-11-08T16:00:00	2	Temperatura media	22.2
104306	7	Sololá	713	San Lucas Tolimán	10	San Lucas Tolimán	2	Febrero	2023-01-02T00:00:00	2024-11-08T16:00:00	4	Temperatura máxima	23.1
104307	7	Sololá	713	San Lucas Tolimán	10	San Lucas Tolimán	2	Febrero	2023-01-02T00:00:00	2024-11-08T16:00:00	3	Temperatura mínima	22.2
104308	7	Sololá	713	San Lucas Tolimán	10	San Lucas Tolimán	2	Febrero	2023-01-02T00:00:00	2024-11-08T16:00:00	5	Humedad	54
104309	7	Sololá	713	San Lucas Tolimán	10	San Lucas Tolimán	2	Febrero	2023-01-02T00:00:00	2024-11-08T16:00:00	6	Velocidad del viento	14.5
104310	7	Sololá	713	San Lucas Tolimán	10	San Lucas Tolimán	2	Febrero	2023-01-02T00:00:00	2024-11-08T16:00:00	7	Dirección del viento	14.48
104311	7	Sololá	713	San Lucas Tolimán	10	San Lucas Tolimán	2	Febrero	2023-01-02T00:00:00	2024-11-08T16:00:00	1	Precipitación	0
104312	7	Sololá	713	San Lucas Tolimán	10	San Lucas Tolimán	2	Febrero	2023-01-02T00:00:00	2024-11-08T16:00:00	8	Radiación solar	540
104313	7	Sololá	713	San Lucas Tolimán	10	San Lucas Tolimán	2	Febrero	2023-01-02T00:00:00	2024-11-08T17:00:00	2	Temperatura media	20.2
104314	7	Sololá	713	San Lucas Tolimán	10	San Lucas Tolimán	2	Febrero	2023-01-02T00:00:00	2024-11-08T17:00:00	4	Temperatura máxima	22.2
104315	7	Sololá	713	San Lucas Tolimán	10	San Lucas Tolimán	2	Febrero	2023-01-02T00:00:00	2024-11-08T17:00:00	3	Temperatura mínima	20.2
104316	7	Sololá	713	San Lucas Tolimán	10	San Lucas Tolimán	2	Febrero	2023-01-02T00:00:00	2024-11-08T17:00:00	5	Humedad	62
104317	7	Sololá	713	San Lucas Tolimán	10	San Lucas Tolimán	2	Febrero	2023-01-02T00:00:00	2024-11-08T17:00:00	6	Velocidad del viento	14.5
104318	7	Sololá	713	San Lucas Tolimán	10	San Lucas Tolimán	2	Febrero	2023-01-02T00:00:00	2024-11-08T17:00:00	7	Dirección del viento	14.48
104319	7	Sololá	713	San Lucas Tolimán	10	San Lucas Tolimán	2	Febrero	2023-01-02T00:00:00	2024-11-08T17:00:00	1	Precipitación	0
104320	7	Sololá	713	San Lucas Tolimán	10	San Lucas Tolimán	2	Febrero	2023-01-02T00:00:00	2024-11-08T17:00:00	8	Radiación solar	266
104321	7	Sololá	713	San Lucas Tolimán	10	San Lucas Tolimán	2	Febrero	2023-01-02T00:00:00	2024-11-08T18:00:00	2	Temperatura media	18.2
104322	7	Sololá	713	San Lucas Tolimán	10	San Lucas Tolimán	2	Febrero	2023-01-02T00:00:00	2024-11-08T18:00:00	4	Temperatura máxima	20.2
104323	7	Sololá	713	San Lucas Tolimán	10	San Lucas Tolimán	2	Febrero	2023-01-02T00:00:00	2024-11-08T18:00:00	3	Temperatura mínima	18.2
104324	7	Sololá	713	San Lucas Tolimán	10	San Lucas Tolimán	2	Febrero	2023-01-02T00:00:00	2024-11-08T18:00:00	5	Humedad	63
104325	7	Sololá	713	San Lucas Tolimán	10	San Lucas Tolimán	2	Febrero	2023-01-02T00:00:00	2024-11-08T18:00:00	6	Velocidad del viento	8
104326	7	Sololá	713	San Lucas Tolimán	10	San Lucas Tolimán	2	Febrero	2023-01-02T00:00:00	2024-11-08T18:00:00	7	Dirección del viento	8.05
104327	7	Sololá	713	San Lucas Tolimán	10	San Lucas Tolimán	2	Febrero	2023-01-02T00:00:00	2024-11-08T18:00:00	1	Precipitación	0
104328	7	Sololá	713	San Lucas Tolimán	10	San Lucas Tolimán	2	Febrero	2023-01-02T00:00:00	2024-11-08T18:00:00	8	Radiación solar	22
104329	7	Sololá	713	San Lucas Tolimán	10	San Lucas Tolimán	2	Febrero	2023-01-02T00:00:00	2024-11-08T19:00:00	2	Temperatura media	19.4
104330	7	Sololá	713	San Lucas Tolimán	10	San Lucas Tolimán	2	Febrero	2023-01-02T00:00:00	2024-11-08T19:00:00	4	Temperatura máxima	19.4
104331	7	Sololá	713	San Lucas Tolimán	10	San Lucas Tolimán	2	Febrero	2023-01-02T00:00:00	2024-11-08T19:00:00	3	Temperatura mínima	17.7
104332	7	Sololá	713	San Lucas Tolimán	10	San Lucas Tolimán	2	Febrero	2023-01-02T00:00:00	2024-11-08T19:00:00	5	Humedad	53
104333	7	Sololá	713	San Lucas Tolimán	10	San Lucas Tolimán	2	Febrero	2023-01-02T00:00:00	2024-11-08T19:00:00	6	Velocidad del viento	4.8
104334	7	Sololá	713	San Lucas Tolimán	10	San Lucas Tolimán	2	Febrero	2023-01-02T00:00:00	2024-11-08T19:00:00	7	Dirección del viento	4.83
104335	7	Sololá	713	San Lucas Tolimán	10	San Lucas Tolimán	2	Febrero	2023-01-02T00:00:00	2024-11-08T19:00:00	1	Precipitación	0
104336	7	Sololá	713	San Lucas Tolimán	10	San Lucas Tolimán	2	Febrero	2023-01-02T00:00:00	2024-11-08T19:00:00	8	Radiación solar	0
104337	7	Sololá	713	San Lucas Tolimán	10	San Lucas Tolimán	2	Febrero	2023-01-02T00:00:00	2024-11-08T20:00:00	2	Temperatura media	19.3
104338	7	Sololá	713	San Lucas Tolimán	10	San Lucas Tolimán	2	Febrero	2023-01-02T00:00:00	2024-11-08T20:00:00	4	Temperatura máxima	20.1
104339	7	Sololá	713	San Lucas Tolimán	10	San Lucas Tolimán	2	Febrero	2023-01-02T00:00:00	2024-11-08T20:00:00	3	Temperatura mínima	19.3
104340	7	Sololá	713	San Lucas Tolimán	10	San Lucas Tolimán	2	Febrero	2023-01-02T00:00:00	2024-11-08T20:00:00	5	Humedad	51
104341	7	Sololá	713	San Lucas Tolimán	10	San Lucas Tolimán	2	Febrero	2023-01-02T00:00:00	2024-11-08T20:00:00	6	Velocidad del viento	14.5
104342	7	Sololá	713	San Lucas Tolimán	10	San Lucas Tolimán	2	Febrero	2023-01-02T00:00:00	2024-11-08T20:00:00	7	Dirección del viento	14.48
104343	7	Sololá	713	San Lucas Tolimán	10	San Lucas Tolimán	2	Febrero	2023-01-02T00:00:00	2024-11-08T20:00:00	1	Precipitación	0
104344	7	Sololá	713	San Lucas Tolimán	10	San Lucas Tolimán	2	Febrero	2023-01-02T00:00:00	2024-11-08T20:00:00	8	Radiación solar	0
104345	7	Sololá	713	San Lucas Tolimán	10	San Lucas Tolimán	2	Febrero	2023-01-02T00:00:00	2024-11-08T21:00:00	2	Temperatura media	19.3
104346	7	Sololá	713	San Lucas Tolimán	10	San Lucas Tolimán	2	Febrero	2023-01-02T00:00:00	2024-11-08T21:00:00	4	Temperatura máxima	19.5
104347	7	Sololá	713	San Lucas Tolimán	10	San Lucas Tolimán	2	Febrero	2023-01-02T00:00:00	2024-11-08T21:00:00	3	Temperatura mínima	19.2
104348	7	Sololá	713	San Lucas Tolimán	10	San Lucas Tolimán	2	Febrero	2023-01-02T00:00:00	2024-11-08T21:00:00	5	Humedad	48
104349	7	Sololá	713	San Lucas Tolimán	10	San Lucas Tolimán	2	Febrero	2023-01-02T00:00:00	2024-11-08T21:00:00	6	Velocidad del viento	19.3
104350	7	Sololá	713	San Lucas Tolimán	10	San Lucas Tolimán	2	Febrero	2023-01-02T00:00:00	2024-11-08T21:00:00	7	Dirección del viento	19.31
104351	7	Sololá	713	San Lucas Tolimán	10	San Lucas Tolimán	2	Febrero	2023-01-02T00:00:00	2024-11-08T21:00:00	1	Precipitación	0
104352	7	Sololá	713	San Lucas Tolimán	10	San Lucas Tolimán	2	Febrero	2023-01-02T00:00:00	2024-11-08T21:00:00	8	Radiación solar	0
104353	7	Sololá	713	San Lucas Tolimán	10	San Lucas Tolimán	2	Febrero	2023-01-02T00:00:00	2024-11-08T22:00:00	2	Temperatura media	18.6
104354	7	Sololá	713	San Lucas Tolimán	10	San Lucas Tolimán	2	Febrero	2023-01-02T00:00:00	2024-11-08T22:00:00	4	Temperatura máxima	19.3
104355	7	Sololá	713	San Lucas Tolimán	10	San Lucas Tolimán	2	Febrero	2023-01-02T00:00:00	2024-11-08T22:00:00	3	Temperatura mínima	18.6
104356	7	Sololá	713	San Lucas Tolimán	10	San Lucas Tolimán	2	Febrero	2023-01-02T00:00:00	2024-11-08T22:00:00	5	Humedad	51
104357	7	Sololá	713	San Lucas Tolimán	10	San Lucas Tolimán	2	Febrero	2023-01-02T00:00:00	2024-11-08T22:00:00	6	Velocidad del viento	14.5
104358	7	Sololá	713	San Lucas Tolimán	10	San Lucas Tolimán	2	Febrero	2023-01-02T00:00:00	2024-11-08T22:00:00	7	Dirección del viento	14.48
104359	7	Sololá	713	San Lucas Tolimán	10	San Lucas Tolimán	2	Febrero	2023-01-02T00:00:00	2024-11-08T22:00:00	1	Precipitación	0
104360	7	Sololá	713	San Lucas Tolimán	10	San Lucas Tolimán	2	Febrero	2023-01-02T00:00:00	2024-11-08T22:00:00	8	Radiación solar	0
104361	7	Sololá	713	San Lucas Tolimán	10	San Lucas Tolimán	2	Febrero	2023-01-02T00:00:00	2024-11-08T23:00:00	2	Temperatura media	18
104362	7	Sololá	713	San Lucas Tolimán	10	San Lucas Tolimán	2	Febrero	2023-01-02T00:00:00	2024-11-08T23:00:00	4	Temperatura máxima	18.6
104363	7	Sololá	713	San Lucas Tolimán	10	San Lucas Tolimán	2	Febrero	2023-01-02T00:00:00	2024-11-08T23:00:00	3	Temperatura mínima	18
104364	7	Sololá	713	San Lucas Tolimán	10	San Lucas Tolimán	2	Febrero	2023-01-02T00:00:00	2024-11-08T23:00:00	5	Humedad	51
104365	7	Sololá	713	San Lucas Tolimán	10	San Lucas Tolimán	2	Febrero	2023-01-02T00:00:00	2024-11-08T23:00:00	6	Velocidad del viento	12.9
104366	7	Sololá	713	San Lucas Tolimán	10	San Lucas Tolimán	2	Febrero	2023-01-02T00:00:00	2024-11-08T23:00:00	7	Dirección del viento	12.87
104367	7	Sololá	713	San Lucas Tolimán	10	San Lucas Tolimán	2	Febrero	2023-01-02T00:00:00	2024-11-08T23:00:00	1	Precipitación	0
104368	7	Sololá	713	San Lucas Tolimán	10	San Lucas Tolimán	2	Febrero	2023-01-02T00:00:00	2024-11-08T23:00:00	8	Radiación solar	0
104369	7	Sololá	713	San Lucas Tolimán	10	San Lucas Tolimán	2	Febrero	2023-02-02T00:00:00	2024-11-08T00:00:00	2	Temperatura media	17.7
104370	7	Sololá	713	San Lucas Tolimán	10	San Lucas Tolimán	2	Febrero	2023-02-02T00:00:00	2024-11-08T00:00:00	4	Temperatura máxima	18.1
104371	7	Sololá	713	San Lucas Tolimán	10	San Lucas Tolimán	2	Febrero	2023-02-02T00:00:00	2024-11-08T00:00:00	3	Temperatura mínima	17.7
104372	7	Sololá	713	San Lucas Tolimán	10	San Lucas Tolimán	2	Febrero	2023-02-02T00:00:00	2024-11-08T00:00:00	5	Humedad	51
104373	7	Sololá	713	San Lucas Tolimán	10	San Lucas Tolimán	2	Febrero	2023-02-02T00:00:00	2024-11-08T00:00:00	6	Velocidad del viento	12.9
104374	7	Sololá	713	San Lucas Tolimán	10	San Lucas Tolimán	2	Febrero	2023-02-02T00:00:00	2024-11-08T00:00:00	7	Dirección del viento	12.87
104375	7	Sololá	713	San Lucas Tolimán	10	San Lucas Tolimán	2	Febrero	2023-02-02T00:00:00	2024-11-08T00:00:00	1	Precipitación	0
104376	7	Sololá	713	San Lucas Tolimán	10	San Lucas Tolimán	2	Febrero	2023-02-02T00:00:00	2024-11-08T00:00:00	8	Radiación solar	0
104377	7	Sololá	713	San Lucas Tolimán	10	San Lucas Tolimán	2	Febrero	2023-02-02T00:00:00	2024-11-08T01:00:00	2	Temperatura media	17.4
104378	7	Sololá	713	San Lucas Tolimán	10	San Lucas Tolimán	2	Febrero	2023-02-02T00:00:00	2024-11-08T01:00:00	4	Temperatura máxima	17.8
104379	7	Sololá	713	San Lucas Tolimán	10	San Lucas Tolimán	2	Febrero	2023-02-02T00:00:00	2024-11-08T01:00:00	3	Temperatura mínima	17.2
104380	7	Sololá	713	San Lucas Tolimán	10	San Lucas Tolimán	2	Febrero	2023-02-02T00:00:00	2024-11-08T01:00:00	5	Humedad	50
104381	7	Sololá	713	San Lucas Tolimán	10	San Lucas Tolimán	2	Febrero	2023-02-02T00:00:00	2024-11-08T01:00:00	6	Velocidad del viento	11.3
104382	7	Sololá	713	San Lucas Tolimán	10	San Lucas Tolimán	2	Febrero	2023-02-02T00:00:00	2024-11-08T01:00:00	7	Dirección del viento	11.27
104383	7	Sololá	713	San Lucas Tolimán	10	San Lucas Tolimán	2	Febrero	2023-02-02T00:00:00	2024-11-08T01:00:00	1	Precipitación	0
104384	7	Sololá	713	San Lucas Tolimán	10	San Lucas Tolimán	2	Febrero	2023-02-02T00:00:00	2024-11-08T01:00:00	8	Radiación solar	0
104385	7	Sololá	713	San Lucas Tolimán	10	San Lucas Tolimán	2	Febrero	2023-02-02T00:00:00	2024-11-08T02:00:00	2	Temperatura media	16.7
104386	7	Sololá	713	San Lucas Tolimán	10	San Lucas Tolimán	2	Febrero	2023-02-02T00:00:00	2024-11-08T02:00:00	4	Temperatura máxima	17.4
104387	7	Sololá	713	San Lucas Tolimán	10	San Lucas Tolimán	2	Febrero	2023-02-02T00:00:00	2024-11-08T02:00:00	3	Temperatura mínima	16.4
104388	7	Sololá	713	San Lucas Tolimán	10	San Lucas Tolimán	2	Febrero	2023-02-02T00:00:00	2024-11-08T02:00:00	5	Humedad	51
104389	7	Sololá	713	San Lucas Tolimán	10	San Lucas Tolimán	2	Febrero	2023-02-02T00:00:00	2024-11-08T02:00:00	6	Velocidad del viento	9.7
104390	7	Sololá	713	San Lucas Tolimán	10	San Lucas Tolimán	2	Febrero	2023-02-02T00:00:00	2024-11-08T02:00:00	7	Dirección del viento	9.66
104391	7	Sololá	713	San Lucas Tolimán	10	San Lucas Tolimán	2	Febrero	2023-02-02T00:00:00	2024-11-08T02:00:00	1	Precipitación	0
104392	7	Sololá	713	San Lucas Tolimán	10	San Lucas Tolimán	2	Febrero	2023-02-02T00:00:00	2024-11-08T02:00:00	8	Radiación solar	0
104393	7	Sololá	713	San Lucas Tolimán	10	San Lucas Tolimán	2	Febrero	2023-02-02T00:00:00	2024-11-08T03:00:00	2	Temperatura media	16.2
104394	7	Sololá	713	San Lucas Tolimán	10	San Lucas Tolimán	2	Febrero	2023-02-02T00:00:00	2024-11-08T03:00:00	4	Temperatura máxima	16.7
104395	7	Sololá	713	San Lucas Tolimán	10	San Lucas Tolimán	2	Febrero	2023-02-02T00:00:00	2024-11-08T03:00:00	3	Temperatura mínima	15.9
104396	7	Sololá	713	San Lucas Tolimán	10	San Lucas Tolimán	2	Febrero	2023-02-02T00:00:00	2024-11-08T03:00:00	5	Humedad	53
104397	7	Sololá	713	San Lucas Tolimán	10	San Lucas Tolimán	2	Febrero	2023-02-02T00:00:00	2024-11-08T03:00:00	6	Velocidad del viento	6.4
104398	7	Sololá	713	San Lucas Tolimán	10	San Lucas Tolimán	2	Febrero	2023-02-02T00:00:00	2024-11-08T03:00:00	7	Dirección del viento	6.44
104399	7	Sololá	713	San Lucas Tolimán	10	San Lucas Tolimán	2	Febrero	2023-02-02T00:00:00	2024-11-08T03:00:00	1	Precipitación	0
104400	7	Sololá	713	San Lucas Tolimán	10	San Lucas Tolimán	2	Febrero	2023-02-02T00:00:00	2024-11-08T03:00:00	8	Radiación solar	0
104401	7	Sololá	713	San Lucas Tolimán	10	San Lucas Tolimán	2	Febrero	2023-02-02T00:00:00	2024-11-08T04:00:00	2	Temperatura media	15.4
104402	7	Sololá	713	San Lucas Tolimán	10	San Lucas Tolimán	2	Febrero	2023-02-02T00:00:00	2024-11-08T04:00:00	4	Temperatura máxima	16.3
104403	7	Sololá	713	San Lucas Tolimán	10	San Lucas Tolimán	2	Febrero	2023-02-02T00:00:00	2024-11-08T04:00:00	3	Temperatura mínima	15.4
104404	7	Sololá	713	San Lucas Tolimán	10	San Lucas Tolimán	2	Febrero	2023-02-02T00:00:00	2024-11-08T04:00:00	5	Humedad	55
104405	7	Sololá	713	San Lucas Tolimán	10	San Lucas Tolimán	2	Febrero	2023-02-02T00:00:00	2024-11-08T04:00:00	6	Velocidad del viento	6.4
104406	7	Sololá	713	San Lucas Tolimán	10	San Lucas Tolimán	2	Febrero	2023-02-02T00:00:00	2024-11-08T04:00:00	7	Dirección del viento	6.44
104407	7	Sololá	713	San Lucas Tolimán	10	San Lucas Tolimán	2	Febrero	2023-02-02T00:00:00	2024-11-08T04:00:00	1	Precipitación	0
104408	7	Sololá	713	San Lucas Tolimán	10	San Lucas Tolimán	2	Febrero	2023-02-02T00:00:00	2024-11-08T04:00:00	8	Radiación solar	0
104409	7	Sololá	713	San Lucas Tolimán	10	San Lucas Tolimán	2	Febrero	2023-02-02T00:00:00	2024-11-08T05:00:00	2	Temperatura media	14.9
104410	7	Sololá	713	San Lucas Tolimán	10	San Lucas Tolimán	2	Febrero	2023-02-02T00:00:00	2024-11-08T05:00:00	4	Temperatura máxima	15.4
104411	7	Sololá	713	San Lucas Tolimán	10	San Lucas Tolimán	2	Febrero	2023-02-02T00:00:00	2024-11-08T05:00:00	3	Temperatura mínima	14.8
104412	7	Sololá	713	San Lucas Tolimán	10	San Lucas Tolimán	2	Febrero	2023-02-02T00:00:00	2024-11-08T05:00:00	5	Humedad	56
104413	7	Sololá	713	San Lucas Tolimán	10	San Lucas Tolimán	2	Febrero	2023-02-02T00:00:00	2024-11-08T05:00:00	6	Velocidad del viento	4.8
104414	7	Sololá	713	San Lucas Tolimán	10	San Lucas Tolimán	2	Febrero	2023-02-02T00:00:00	2024-11-08T05:00:00	7	Dirección del viento	4.83
104415	7	Sololá	713	San Lucas Tolimán	10	San Lucas Tolimán	2	Febrero	2023-02-02T00:00:00	2024-11-08T05:00:00	1	Precipitación	0
104416	7	Sololá	713	San Lucas Tolimán	10	San Lucas Tolimán	2	Febrero	2023-02-02T00:00:00	2024-11-08T05:00:00	8	Radiación solar	0
104417	7	Sololá	713	San Lucas Tolimán	10	San Lucas Tolimán	2	Febrero	2023-02-02T00:00:00	2024-11-08T06:00:00	2	Temperatura media	14.7
104418	7	Sololá	713	San Lucas Tolimán	10	San Lucas Tolimán	2	Febrero	2023-02-02T00:00:00	2024-11-08T06:00:00	4	Temperatura máxima	15.1
104419	7	Sololá	713	San Lucas Tolimán	10	San Lucas Tolimán	2	Febrero	2023-02-02T00:00:00	2024-11-08T06:00:00	3	Temperatura mínima	14.6
104420	7	Sololá	713	San Lucas Tolimán	10	San Lucas Tolimán	2	Febrero	2023-02-02T00:00:00	2024-11-08T06:00:00	5	Humedad	56
104421	7	Sololá	713	San Lucas Tolimán	10	San Lucas Tolimán	2	Febrero	2023-02-02T00:00:00	2024-11-08T06:00:00	6	Velocidad del viento	4.8
104422	7	Sololá	713	San Lucas Tolimán	10	San Lucas Tolimán	2	Febrero	2023-02-02T00:00:00	2024-11-08T06:00:00	7	Dirección del viento	4.83
104423	7	Sololá	713	San Lucas Tolimán	10	San Lucas Tolimán	2	Febrero	2023-02-02T00:00:00	2024-11-08T06:00:00	1	Precipitación	0
104424	7	Sololá	713	San Lucas Tolimán	10	San Lucas Tolimán	2	Febrero	2023-02-02T00:00:00	2024-11-08T06:00:00	8	Radiación solar	0
104425	7	Sololá	713	San Lucas Tolimán	10	San Lucas Tolimán	2	Febrero	2023-02-02T00:00:00	2024-11-08T07:00:00	2	Temperatura media	14.4
104426	7	Sololá	713	San Lucas Tolimán	10	San Lucas Tolimán	2	Febrero	2023-02-02T00:00:00	2024-11-08T07:00:00	4	Temperatura máxima	14.7
104427	7	Sololá	713	San Lucas Tolimán	10	San Lucas Tolimán	2	Febrero	2023-02-02T00:00:00	2024-11-08T07:00:00	3	Temperatura mínima	14.3
104428	7	Sololá	713	San Lucas Tolimán	10	San Lucas Tolimán	2	Febrero	2023-02-02T00:00:00	2024-11-08T07:00:00	5	Humedad	53
104429	7	Sololá	713	San Lucas Tolimán	10	San Lucas Tolimán	2	Febrero	2023-02-02T00:00:00	2024-11-08T07:00:00	6	Velocidad del viento	3.2
104430	7	Sololá	713	San Lucas Tolimán	10	San Lucas Tolimán	2	Febrero	2023-02-02T00:00:00	2024-11-08T07:00:00	7	Dirección del viento	3.22
104431	7	Sololá	713	San Lucas Tolimán	10	San Lucas Tolimán	2	Febrero	2023-02-02T00:00:00	2024-11-08T07:00:00	1	Precipitación	0
104432	7	Sololá	713	San Lucas Tolimán	10	San Lucas Tolimán	2	Febrero	2023-02-02T00:00:00	2024-11-08T07:00:00	8	Radiación solar	4
104433	7	Sololá	713	San Lucas Tolimán	10	San Lucas Tolimán	2	Febrero	2023-02-02T00:00:00	2024-11-08T08:00:00	2	Temperatura media	15.7
104434	7	Sololá	713	San Lucas Tolimán	10	San Lucas Tolimán	2	Febrero	2023-02-02T00:00:00	2024-11-08T08:00:00	4	Temperatura máxima	15.7
104435	7	Sololá	713	San Lucas Tolimán	10	San Lucas Tolimán	2	Febrero	2023-02-02T00:00:00	2024-11-08T08:00:00	3	Temperatura mínima	14.3
104436	7	Sololá	713	San Lucas Tolimán	10	San Lucas Tolimán	2	Febrero	2023-02-02T00:00:00	2024-11-08T08:00:00	5	Humedad	50
104437	7	Sololá	713	San Lucas Tolimán	10	San Lucas Tolimán	2	Febrero	2023-02-02T00:00:00	2024-11-08T08:00:00	6	Velocidad del viento	3.2
104438	7	Sololá	713	San Lucas Tolimán	10	San Lucas Tolimán	2	Febrero	2023-02-02T00:00:00	2024-11-08T08:00:00	7	Dirección del viento	3.22
104439	7	Sololá	713	San Lucas Tolimán	10	San Lucas Tolimán	2	Febrero	2023-02-02T00:00:00	2024-11-08T08:00:00	1	Precipitación	0
104440	7	Sololá	713	San Lucas Tolimán	10	San Lucas Tolimán	2	Febrero	2023-02-02T00:00:00	2024-11-08T08:00:00	8	Radiación solar	18
104441	7	Sololá	713	San Lucas Tolimán	10	San Lucas Tolimán	2	Febrero	2023-02-02T00:00:00	2024-11-08T09:00:00	2	Temperatura media	19.2
104442	7	Sololá	713	San Lucas Tolimán	10	San Lucas Tolimán	2	Febrero	2023-02-02T00:00:00	2024-11-08T09:00:00	4	Temperatura máxima	19.2
104443	7	Sololá	713	San Lucas Tolimán	10	San Lucas Tolimán	2	Febrero	2023-02-02T00:00:00	2024-11-08T09:00:00	3	Temperatura mínima	15.7
104444	7	Sololá	713	San Lucas Tolimán	10	San Lucas Tolimán	2	Febrero	2023-02-02T00:00:00	2024-11-08T09:00:00	5	Humedad	43
104445	7	Sololá	713	San Lucas Tolimán	10	San Lucas Tolimán	2	Febrero	2023-02-02T00:00:00	2024-11-08T09:00:00	6	Velocidad del viento	4.8
104446	7	Sololá	713	San Lucas Tolimán	10	San Lucas Tolimán	2	Febrero	2023-02-02T00:00:00	2024-11-08T09:00:00	7	Dirección del viento	4.83
104447	7	Sololá	713	San Lucas Tolimán	10	San Lucas Tolimán	2	Febrero	2023-02-02T00:00:00	2024-11-08T09:00:00	1	Precipitación	0
104448	7	Sololá	713	San Lucas Tolimán	10	San Lucas Tolimán	2	Febrero	2023-02-02T00:00:00	2024-11-08T09:00:00	8	Radiación solar	361
104449	7	Sololá	713	San Lucas Tolimán	10	San Lucas Tolimán	2	Febrero	2023-02-02T00:00:00	2024-11-08T10:00:00	2	Temperatura media	21.8
104450	7	Sololá	713	San Lucas Tolimán	10	San Lucas Tolimán	2	Febrero	2023-02-02T00:00:00	2024-11-08T10:00:00	4	Temperatura máxima	21.8
104451	7	Sololá	713	San Lucas Tolimán	10	San Lucas Tolimán	2	Febrero	2023-02-02T00:00:00	2024-11-08T10:00:00	3	Temperatura mínima	19.2
104452	7	Sololá	713	San Lucas Tolimán	10	San Lucas Tolimán	2	Febrero	2023-02-02T00:00:00	2024-11-08T10:00:00	5	Humedad	30
104453	7	Sololá	713	San Lucas Tolimán	10	San Lucas Tolimán	2	Febrero	2023-02-02T00:00:00	2024-11-08T10:00:00	6	Velocidad del viento	3.2
104454	7	Sololá	713	San Lucas Tolimán	10	San Lucas Tolimán	2	Febrero	2023-02-02T00:00:00	2024-11-08T10:00:00	7	Dirección del viento	3.22
104455	7	Sololá	713	San Lucas Tolimán	10	San Lucas Tolimán	2	Febrero	2023-02-02T00:00:00	2024-11-08T10:00:00	1	Precipitación	0
104456	7	Sololá	713	San Lucas Tolimán	10	San Lucas Tolimán	2	Febrero	2023-02-02T00:00:00	2024-11-08T10:00:00	8	Radiación solar	629
104457	7	Sololá	713	San Lucas Tolimán	10	San Lucas Tolimán	2	Febrero	2023-02-02T00:00:00	2024-11-08T11:00:00	2	Temperatura media	23.6
104458	7	Sololá	713	San Lucas Tolimán	10	San Lucas Tolimán	2	Febrero	2023-02-02T00:00:00	2024-11-08T11:00:00	4	Temperatura máxima	23.6
104459	7	Sololá	713	San Lucas Tolimán	10	San Lucas Tolimán	2	Febrero	2023-02-02T00:00:00	2024-11-08T11:00:00	3	Temperatura mínima	21.7
104460	7	Sololá	713	San Lucas Tolimán	10	San Lucas Tolimán	2	Febrero	2023-02-02T00:00:00	2024-11-08T11:00:00	5	Humedad	37
104461	7	Sololá	713	San Lucas Tolimán	10	San Lucas Tolimán	2	Febrero	2023-02-02T00:00:00	2024-11-08T11:00:00	6	Velocidad del viento	4.8
104462	7	Sololá	713	San Lucas Tolimán	10	San Lucas Tolimán	2	Febrero	2023-02-02T00:00:00	2024-11-08T11:00:00	7	Dirección del viento	4.83
104463	7	Sololá	713	San Lucas Tolimán	10	San Lucas Tolimán	2	Febrero	2023-02-02T00:00:00	2024-11-08T11:00:00	1	Precipitación	0
104464	7	Sololá	713	San Lucas Tolimán	10	San Lucas Tolimán	2	Febrero	2023-02-02T00:00:00	2024-11-08T11:00:00	8	Radiación solar	797
104465	7	Sololá	713	San Lucas Tolimán	10	San Lucas Tolimán	2	Febrero	2023-02-02T00:00:00	2024-11-08T12:00:00	2	Temperatura media	23.6
104466	7	Sololá	713	San Lucas Tolimán	10	San Lucas Tolimán	2	Febrero	2023-02-02T00:00:00	2024-11-08T12:00:00	4	Temperatura máxima	23.9
104467	7	Sololá	713	San Lucas Tolimán	10	San Lucas Tolimán	2	Febrero	2023-02-02T00:00:00	2024-11-08T12:00:00	3	Temperatura mínima	23.3
104468	7	Sololá	713	San Lucas Tolimán	10	San Lucas Tolimán	2	Febrero	2023-02-02T00:00:00	2024-11-08T12:00:00	5	Humedad	44
104469	7	Sololá	713	San Lucas Tolimán	10	San Lucas Tolimán	2	Febrero	2023-02-02T00:00:00	2024-11-08T12:00:00	6	Velocidad del viento	9.7
104470	7	Sololá	713	San Lucas Tolimán	10	San Lucas Tolimán	2	Febrero	2023-02-02T00:00:00	2024-11-08T12:00:00	7	Dirección del viento	9.66
104471	7	Sololá	713	San Lucas Tolimán	10	San Lucas Tolimán	2	Febrero	2023-02-02T00:00:00	2024-11-08T12:00:00	1	Precipitación	0
104472	7	Sololá	713	San Lucas Tolimán	10	San Lucas Tolimán	2	Febrero	2023-02-02T00:00:00	2024-11-08T12:00:00	8	Radiación solar	911
104473	7	Sololá	713	San Lucas Tolimán	10	San Lucas Tolimán	2	Febrero	2023-02-02T00:00:00	2024-11-08T13:00:00	2	Temperatura media	23.4
104474	7	Sololá	713	San Lucas Tolimán	10	San Lucas Tolimán	2	Febrero	2023-02-02T00:00:00	2024-11-08T13:00:00	4	Temperatura máxima	24.1
104475	7	Sololá	713	San Lucas Tolimán	10	San Lucas Tolimán	2	Febrero	2023-02-02T00:00:00	2024-11-08T13:00:00	3	Temperatura mínima	23.4
104476	7	Sololá	713	San Lucas Tolimán	10	San Lucas Tolimán	2	Febrero	2023-02-02T00:00:00	2024-11-08T13:00:00	5	Humedad	47
104477	7	Sololá	713	San Lucas Tolimán	10	San Lucas Tolimán	2	Febrero	2023-02-02T00:00:00	2024-11-08T13:00:00	6	Velocidad del viento	9.7
104478	7	Sololá	713	San Lucas Tolimán	10	San Lucas Tolimán	2	Febrero	2023-02-02T00:00:00	2024-11-08T13:00:00	7	Dirección del viento	9.66
104479	7	Sololá	713	San Lucas Tolimán	10	San Lucas Tolimán	2	Febrero	2023-02-02T00:00:00	2024-11-08T13:00:00	1	Precipitación	0
104480	7	Sololá	713	San Lucas Tolimán	10	San Lucas Tolimán	2	Febrero	2023-02-02T00:00:00	2024-11-08T13:00:00	8	Radiación solar	941
104481	7	Sololá	713	San Lucas Tolimán	10	San Lucas Tolimán	2	Febrero	2023-02-02T00:00:00	2024-11-08T14:00:00	2	Temperatura media	23.1
104482	7	Sololá	713	San Lucas Tolimán	10	San Lucas Tolimán	2	Febrero	2023-02-02T00:00:00	2024-11-08T14:00:00	4	Temperatura máxima	23.6
104483	7	Sololá	713	San Lucas Tolimán	10	San Lucas Tolimán	2	Febrero	2023-02-02T00:00:00	2024-11-08T14:00:00	3	Temperatura mínima	22.6
104484	7	Sololá	713	San Lucas Tolimán	10	San Lucas Tolimán	2	Febrero	2023-02-02T00:00:00	2024-11-08T14:00:00	5	Humedad	50
104485	7	Sololá	713	San Lucas Tolimán	10	San Lucas Tolimán	2	Febrero	2023-02-02T00:00:00	2024-11-08T14:00:00	6	Velocidad del viento	12.9
104486	7	Sololá	713	San Lucas Tolimán	10	San Lucas Tolimán	2	Febrero	2023-02-02T00:00:00	2024-11-08T14:00:00	7	Dirección del viento	12.87
104487	7	Sololá	713	San Lucas Tolimán	10	San Lucas Tolimán	2	Febrero	2023-02-02T00:00:00	2024-11-08T14:00:00	1	Precipitación	0
104488	7	Sololá	713	San Lucas Tolimán	10	San Lucas Tolimán	2	Febrero	2023-02-02T00:00:00	2024-11-08T14:00:00	8	Radiación solar	889
104489	7	Sololá	713	San Lucas Tolimán	10	San Lucas Tolimán	2	Febrero	2023-02-02T00:00:00	2024-11-08T15:00:00	2	Temperatura media	23
104490	7	Sololá	713	San Lucas Tolimán	10	San Lucas Tolimán	2	Febrero	2023-02-02T00:00:00	2024-11-08T15:00:00	4	Temperatura máxima	23.2
104491	7	Sololá	713	San Lucas Tolimán	10	San Lucas Tolimán	2	Febrero	2023-02-02T00:00:00	2024-11-08T15:00:00	3	Temperatura mínima	22.8
104492	7	Sololá	713	San Lucas Tolimán	10	San Lucas Tolimán	2	Febrero	2023-02-02T00:00:00	2024-11-08T15:00:00	5	Humedad	49
104493	7	Sololá	713	San Lucas Tolimán	10	San Lucas Tolimán	2	Febrero	2023-02-02T00:00:00	2024-11-08T15:00:00	6	Velocidad del viento	14.5
104494	7	Sololá	713	San Lucas Tolimán	10	San Lucas Tolimán	2	Febrero	2023-02-02T00:00:00	2024-11-08T15:00:00	7	Dirección del viento	14.48
104495	7	Sololá	713	San Lucas Tolimán	10	San Lucas Tolimán	2	Febrero	2023-02-02T00:00:00	2024-11-08T15:00:00	1	Precipitación	0
104496	7	Sololá	713	San Lucas Tolimán	10	San Lucas Tolimán	2	Febrero	2023-02-02T00:00:00	2024-11-08T15:00:00	8	Radiación solar	749
104497	7	Sololá	713	San Lucas Tolimán	10	San Lucas Tolimán	2	Febrero	2023-02-02T00:00:00	2024-11-08T16:00:00	2	Temperatura media	22.2
104498	7	Sololá	713	San Lucas Tolimán	10	San Lucas Tolimán	2	Febrero	2023-02-02T00:00:00	2024-11-08T16:00:00	4	Temperatura máxima	23.1
104499	7	Sololá	713	San Lucas Tolimán	10	San Lucas Tolimán	2	Febrero	2023-02-02T00:00:00	2024-11-08T16:00:00	3	Temperatura mínima	22.2
104500	7	Sololá	713	San Lucas Tolimán	10	San Lucas Tolimán	2	Febrero	2023-02-02T00:00:00	2024-11-08T16:00:00	5	Humedad	49
104501	7	Sololá	713	San Lucas Tolimán	10	San Lucas Tolimán	2	Febrero	2023-02-02T00:00:00	2024-11-08T16:00:00	6	Velocidad del viento	12.9
104502	7	Sololá	713	San Lucas Tolimán	10	San Lucas Tolimán	2	Febrero	2023-02-02T00:00:00	2024-11-08T16:00:00	7	Dirección del viento	12.87
104503	7	Sololá	713	San Lucas Tolimán	10	San Lucas Tolimán	2	Febrero	2023-02-02T00:00:00	2024-11-08T16:00:00	1	Precipitación	0
104504	7	Sololá	713	San Lucas Tolimán	10	San Lucas Tolimán	2	Febrero	2023-02-02T00:00:00	2024-11-08T16:00:00	8	Radiación solar	548
104505	7	Sololá	713	San Lucas Tolimán	10	San Lucas Tolimán	2	Febrero	2023-02-02T00:00:00	2024-11-08T17:00:00	2	Temperatura media	20.9
104506	7	Sololá	713	San Lucas Tolimán	10	San Lucas Tolimán	2	Febrero	2023-02-02T00:00:00	2024-11-08T17:00:00	4	Temperatura máxima	22.2
104507	7	Sololá	713	San Lucas Tolimán	10	San Lucas Tolimán	2	Febrero	2023-02-02T00:00:00	2024-11-08T17:00:00	3	Temperatura mínima	20.9
104508	7	Sololá	713	San Lucas Tolimán	10	San Lucas Tolimán	2	Febrero	2023-02-02T00:00:00	2024-11-08T17:00:00	5	Humedad	59
104509	7	Sololá	713	San Lucas Tolimán	10	San Lucas Tolimán	2	Febrero	2023-02-02T00:00:00	2024-11-08T17:00:00	6	Velocidad del viento	9.7
104510	7	Sololá	713	San Lucas Tolimán	10	San Lucas Tolimán	2	Febrero	2023-02-02T00:00:00	2024-11-08T17:00:00	7	Dirección del viento	9.66
104511	7	Sololá	713	San Lucas Tolimán	10	San Lucas Tolimán	2	Febrero	2023-02-02T00:00:00	2024-11-08T17:00:00	1	Precipitación	0
104512	7	Sololá	713	San Lucas Tolimán	10	San Lucas Tolimán	2	Febrero	2023-02-02T00:00:00	2024-11-08T17:00:00	8	Radiación solar	287
104513	7	Sololá	713	San Lucas Tolimán	10	San Lucas Tolimán	2	Febrero	2023-02-02T00:00:00	2024-11-08T18:00:00	2	Temperatura media	18.6
104514	7	Sololá	713	San Lucas Tolimán	10	San Lucas Tolimán	2	Febrero	2023-02-02T00:00:00	2024-11-08T18:00:00	4	Temperatura máxima	20.8
104515	7	Sololá	713	San Lucas Tolimán	10	San Lucas Tolimán	2	Febrero	2023-02-02T00:00:00	2024-11-08T18:00:00	3	Temperatura mínima	18.6
104516	7	Sololá	713	San Lucas Tolimán	10	San Lucas Tolimán	2	Febrero	2023-02-02T00:00:00	2024-11-08T18:00:00	5	Humedad	63
104517	7	Sololá	713	San Lucas Tolimán	10	San Lucas Tolimán	2	Febrero	2023-02-02T00:00:00	2024-11-08T18:00:00	6	Velocidad del viento	6.4
104518	7	Sololá	713	San Lucas Tolimán	10	San Lucas Tolimán	2	Febrero	2023-02-02T00:00:00	2024-11-08T18:00:00	7	Dirección del viento	6.44
104519	7	Sololá	713	San Lucas Tolimán	10	San Lucas Tolimán	2	Febrero	2023-02-02T00:00:00	2024-11-08T18:00:00	1	Precipitación	0
104520	7	Sololá	713	San Lucas Tolimán	10	San Lucas Tolimán	2	Febrero	2023-02-02T00:00:00	2024-11-08T18:00:00	8	Radiación solar	18
104521	7	Sololá	713	San Lucas Tolimán	10	San Lucas Tolimán	2	Febrero	2023-02-02T00:00:00	2024-11-08T19:00:00	2	Temperatura media	16.9
104522	7	Sololá	713	San Lucas Tolimán	10	San Lucas Tolimán	2	Febrero	2023-02-02T00:00:00	2024-11-08T19:00:00	4	Temperatura máxima	18.6
104523	7	Sololá	713	San Lucas Tolimán	10	San Lucas Tolimán	2	Febrero	2023-02-02T00:00:00	2024-11-08T19:00:00	3	Temperatura mínima	16.8
104524	7	Sololá	713	San Lucas Tolimán	10	San Lucas Tolimán	2	Febrero	2023-02-02T00:00:00	2024-11-08T19:00:00	5	Humedad	59
104525	7	Sololá	713	San Lucas Tolimán	10	San Lucas Tolimán	2	Febrero	2023-02-02T00:00:00	2024-11-08T19:00:00	6	Velocidad del viento	6.4
104526	7	Sololá	713	San Lucas Tolimán	10	San Lucas Tolimán	2	Febrero	2023-02-02T00:00:00	2024-11-08T19:00:00	7	Dirección del viento	6.44
104527	7	Sololá	713	San Lucas Tolimán	10	San Lucas Tolimán	2	Febrero	2023-02-02T00:00:00	2024-11-08T19:00:00	1	Precipitación	0
104528	7	Sololá	713	San Lucas Tolimán	10	San Lucas Tolimán	2	Febrero	2023-02-02T00:00:00	2024-11-08T19:00:00	8	Radiación solar	0
104529	7	Sololá	713	San Lucas Tolimán	10	San Lucas Tolimán	2	Febrero	2023-02-02T00:00:00	2024-11-08T20:00:00	2	Temperatura media	17.8
104530	7	Sololá	713	San Lucas Tolimán	10	San Lucas Tolimán	2	Febrero	2023-02-02T00:00:00	2024-11-08T20:00:00	4	Temperatura máxima	17.8
104531	7	Sololá	713	San Lucas Tolimán	10	San Lucas Tolimán	2	Febrero	2023-02-02T00:00:00	2024-11-08T20:00:00	3	Temperatura mínima	16.3
104532	7	Sololá	713	San Lucas Tolimán	10	San Lucas Tolimán	2	Febrero	2023-02-02T00:00:00	2024-11-08T20:00:00	5	Humedad	54
104533	7	Sololá	713	San Lucas Tolimán	10	San Lucas Tolimán	2	Febrero	2023-02-02T00:00:00	2024-11-08T20:00:00	6	Velocidad del viento	4.8
104534	7	Sololá	713	San Lucas Tolimán	10	San Lucas Tolimán	2	Febrero	2023-02-02T00:00:00	2024-11-08T20:00:00	7	Dirección del viento	4.83
104535	7	Sololá	713	San Lucas Tolimán	10	San Lucas Tolimán	2	Febrero	2023-02-02T00:00:00	2024-11-08T20:00:00	1	Precipitación	0
104536	7	Sololá	713	San Lucas Tolimán	10	San Lucas Tolimán	2	Febrero	2023-02-02T00:00:00	2024-11-08T20:00:00	8	Radiación solar	0
104537	7	Sololá	713	San Lucas Tolimán	10	San Lucas Tolimán	2	Febrero	2023-02-02T00:00:00	2024-11-08T21:00:00	2	Temperatura media	17.1
104538	7	Sololá	713	San Lucas Tolimán	10	San Lucas Tolimán	2	Febrero	2023-02-02T00:00:00	2024-11-08T21:00:00	4	Temperatura máxima	18.4
104539	7	Sololá	713	San Lucas Tolimán	10	San Lucas Tolimán	2	Febrero	2023-02-02T00:00:00	2024-11-08T21:00:00	3	Temperatura mínima	17
104540	7	Sololá	713	San Lucas Tolimán	10	San Lucas Tolimán	2	Febrero	2023-02-02T00:00:00	2024-11-08T21:00:00	5	Humedad	56
104541	7	Sololá	713	San Lucas Tolimán	10	San Lucas Tolimán	2	Febrero	2023-02-02T00:00:00	2024-11-08T21:00:00	6	Velocidad del viento	3.2
104542	7	Sololá	713	San Lucas Tolimán	10	San Lucas Tolimán	2	Febrero	2023-02-02T00:00:00	2024-11-08T21:00:00	7	Dirección del viento	3.22
104543	7	Sololá	713	San Lucas Tolimán	10	San Lucas Tolimán	2	Febrero	2023-02-02T00:00:00	2024-11-08T21:00:00	1	Precipitación	0
104544	7	Sololá	713	San Lucas Tolimán	10	San Lucas Tolimán	2	Febrero	2023-02-02T00:00:00	2024-11-08T21:00:00	8	Radiación solar	0
104545	7	Sololá	713	San Lucas Tolimán	10	San Lucas Tolimán	2	Febrero	2023-02-02T00:00:00	2024-11-08T22:00:00	2	Temperatura media	18.2
104546	7	Sololá	713	San Lucas Tolimán	10	San Lucas Tolimán	2	Febrero	2023-02-02T00:00:00	2024-11-08T22:00:00	4	Temperatura máxima	18.2
104547	7	Sololá	713	San Lucas Tolimán	10	San Lucas Tolimán	2	Febrero	2023-02-02T00:00:00	2024-11-08T22:00:00	3	Temperatura mínima	17.1
104548	7	Sololá	713	San Lucas Tolimán	10	San Lucas Tolimán	2	Febrero	2023-02-02T00:00:00	2024-11-08T22:00:00	5	Humedad	51
104549	7	Sololá	713	San Lucas Tolimán	10	San Lucas Tolimán	2	Febrero	2023-02-02T00:00:00	2024-11-08T22:00:00	6	Velocidad del viento	11.3
104550	7	Sololá	713	San Lucas Tolimán	10	San Lucas Tolimán	2	Febrero	2023-02-02T00:00:00	2024-11-08T22:00:00	7	Dirección del viento	11.27
104551	7	Sololá	713	San Lucas Tolimán	10	San Lucas Tolimán	2	Febrero	2023-02-02T00:00:00	2024-11-08T22:00:00	1	Precipitación	0
104552	7	Sololá	713	San Lucas Tolimán	10	San Lucas Tolimán	2	Febrero	2023-02-02T00:00:00	2024-11-08T22:00:00	8	Radiación solar	0
104553	7	Sololá	713	San Lucas Tolimán	10	San Lucas Tolimán	2	Febrero	2023-02-02T00:00:00	2024-11-08T23:00:00	2	Temperatura media	17.6
104554	7	Sololá	713	San Lucas Tolimán	10	San Lucas Tolimán	2	Febrero	2023-02-02T00:00:00	2024-11-08T23:00:00	4	Temperatura máxima	18.2
104555	7	Sololá	713	San Lucas Tolimán	10	San Lucas Tolimán	2	Febrero	2023-02-02T00:00:00	2024-11-08T23:00:00	3	Temperatura mínima	17.6
104556	7	Sololá	713	San Lucas Tolimán	10	San Lucas Tolimán	2	Febrero	2023-02-02T00:00:00	2024-11-08T23:00:00	5	Humedad	53
104557	7	Sololá	713	San Lucas Tolimán	10	San Lucas Tolimán	2	Febrero	2023-02-02T00:00:00	2024-11-08T23:00:00	6	Velocidad del viento	9.7
104558	7	Sololá	713	San Lucas Tolimán	10	San Lucas Tolimán	2	Febrero	2023-02-02T00:00:00	2024-11-08T23:00:00	7	Dirección del viento	9.66
104559	7	Sololá	713	San Lucas Tolimán	10	San Lucas Tolimán	2	Febrero	2023-02-02T00:00:00	2024-11-08T23:00:00	1	Precipitación	0
104560	7	Sololá	713	San Lucas Tolimán	10	San Lucas Tolimán	2	Febrero	2023-02-02T00:00:00	2024-11-08T23:00:00	8	Radiación solar	0
104561	7	Sololá	713	San Lucas Tolimán	10	San Lucas Tolimán	2	Febrero	2023-03-02T00:00:00	2024-11-08T00:00:00	2	Temperatura media	16.7
104562	7	Sololá	713	San Lucas Tolimán	10	San Lucas Tolimán	2	Febrero	2023-03-02T00:00:00	2024-11-08T00:00:00	4	Temperatura máxima	17.6
104563	7	Sololá	713	San Lucas Tolimán	10	San Lucas Tolimán	2	Febrero	2023-03-02T00:00:00	2024-11-08T00:00:00	3	Temperatura mínima	16.7
104564	7	Sololá	713	San Lucas Tolimán	10	San Lucas Tolimán	2	Febrero	2023-03-02T00:00:00	2024-11-08T00:00:00	5	Humedad	53
104565	7	Sololá	713	San Lucas Tolimán	10	San Lucas Tolimán	2	Febrero	2023-03-02T00:00:00	2024-11-08T00:00:00	6	Velocidad del viento	6.4
104566	7	Sololá	713	San Lucas Tolimán	10	San Lucas Tolimán	2	Febrero	2023-03-02T00:00:00	2024-11-08T00:00:00	7	Dirección del viento	6.44
104567	7	Sololá	713	San Lucas Tolimán	10	San Lucas Tolimán	2	Febrero	2023-03-02T00:00:00	2024-11-08T00:00:00	1	Precipitación	0
104568	7	Sololá	713	San Lucas Tolimán	10	San Lucas Tolimán	2	Febrero	2023-03-02T00:00:00	2024-11-08T00:00:00	8	Radiación solar	0
104569	7	Sololá	713	San Lucas Tolimán	10	San Lucas Tolimán	2	Febrero	2023-03-02T00:00:00	2024-11-08T01:00:00	2	Temperatura media	16
104570	7	Sololá	713	San Lucas Tolimán	10	San Lucas Tolimán	2	Febrero	2023-03-02T00:00:00	2024-11-08T01:00:00	4	Temperatura máxima	17.2
104571	7	Sololá	713	San Lucas Tolimán	10	San Lucas Tolimán	2	Febrero	2023-03-02T00:00:00	2024-11-08T01:00:00	3	Temperatura mínima	15.9
104572	7	Sololá	713	San Lucas Tolimán	10	San Lucas Tolimán	2	Febrero	2023-03-02T00:00:00	2024-11-08T01:00:00	5	Humedad	54
104573	7	Sololá	713	San Lucas Tolimán	10	San Lucas Tolimán	2	Febrero	2023-03-02T00:00:00	2024-11-08T01:00:00	6	Velocidad del viento	8
104574	7	Sololá	713	San Lucas Tolimán	10	San Lucas Tolimán	2	Febrero	2023-03-02T00:00:00	2024-11-08T01:00:00	7	Dirección del viento	8.05
104575	7	Sololá	713	San Lucas Tolimán	10	San Lucas Tolimán	2	Febrero	2023-03-02T00:00:00	2024-11-08T01:00:00	1	Precipitación	0
104576	7	Sololá	713	San Lucas Tolimán	10	San Lucas Tolimán	2	Febrero	2023-03-02T00:00:00	2024-11-08T01:00:00	8	Radiación solar	0
104577	7	Sololá	713	San Lucas Tolimán	10	San Lucas Tolimán	2	Febrero	2023-03-02T00:00:00	2024-11-08T02:00:00	2	Temperatura media	15.4
104578	7	Sololá	713	San Lucas Tolimán	10	San Lucas Tolimán	2	Febrero	2023-03-02T00:00:00	2024-11-08T02:00:00	4	Temperatura máxima	16
104579	7	Sololá	713	San Lucas Tolimán	10	San Lucas Tolimán	2	Febrero	2023-03-02T00:00:00	2024-11-08T02:00:00	3	Temperatura mínima	15.3
104580	7	Sololá	713	San Lucas Tolimán	10	San Lucas Tolimán	2	Febrero	2023-03-02T00:00:00	2024-11-08T02:00:00	5	Humedad	53
104581	7	Sololá	713	San Lucas Tolimán	10	San Lucas Tolimán	2	Febrero	2023-03-02T00:00:00	2024-11-08T02:00:00	6	Velocidad del viento	6.4
104582	7	Sololá	713	San Lucas Tolimán	10	San Lucas Tolimán	2	Febrero	2023-03-02T00:00:00	2024-11-08T02:00:00	7	Dirección del viento	6.44
104583	7	Sololá	713	San Lucas Tolimán	10	San Lucas Tolimán	2	Febrero	2023-03-02T00:00:00	2024-11-08T02:00:00	1	Precipitación	0
104584	7	Sololá	713	San Lucas Tolimán	10	San Lucas Tolimán	2	Febrero	2023-03-02T00:00:00	2024-11-08T02:00:00	8	Radiación solar	0
104585	7	Sololá	713	San Lucas Tolimán	10	San Lucas Tolimán	2	Febrero	2023-03-02T00:00:00	2024-11-08T03:00:00	2	Temperatura media	15
104586	7	Sololá	713	San Lucas Tolimán	10	San Lucas Tolimán	2	Febrero	2023-03-02T00:00:00	2024-11-08T03:00:00	4	Temperatura máxima	15.4
104587	7	Sololá	713	San Lucas Tolimán	10	San Lucas Tolimán	2	Febrero	2023-03-02T00:00:00	2024-11-08T03:00:00	3	Temperatura mínima	14.9
104588	7	Sololá	713	San Lucas Tolimán	10	San Lucas Tolimán	2	Febrero	2023-03-02T00:00:00	2024-11-08T03:00:00	5	Humedad	52
104589	7	Sololá	713	San Lucas Tolimán	10	San Lucas Tolimán	2	Febrero	2023-03-02T00:00:00	2024-11-08T03:00:00	6	Velocidad del viento	6.4
104590	7	Sololá	713	San Lucas Tolimán	10	San Lucas Tolimán	2	Febrero	2023-03-02T00:00:00	2024-11-08T03:00:00	7	Dirección del viento	6.44
104591	7	Sololá	713	San Lucas Tolimán	10	San Lucas Tolimán	2	Febrero	2023-03-02T00:00:00	2024-11-08T03:00:00	1	Precipitación	0
104592	7	Sololá	713	San Lucas Tolimán	10	San Lucas Tolimán	2	Febrero	2023-03-02T00:00:00	2024-11-08T03:00:00	8	Radiación solar	0
104593	7	Sololá	713	San Lucas Tolimán	10	San Lucas Tolimán	2	Febrero	2023-03-02T00:00:00	2024-11-08T04:00:00	2	Temperatura media	15.2
104594	7	Sololá	713	San Lucas Tolimán	10	San Lucas Tolimán	2	Febrero	2023-03-02T00:00:00	2024-11-08T04:00:00	4	Temperatura máxima	15.2
104595	7	Sololá	713	San Lucas Tolimán	10	San Lucas Tolimán	2	Febrero	2023-03-02T00:00:00	2024-11-08T04:00:00	3	Temperatura mínima	14.8
104596	7	Sololá	713	San Lucas Tolimán	10	San Lucas Tolimán	2	Febrero	2023-03-02T00:00:00	2024-11-08T04:00:00	5	Humedad	53
104597	7	Sololá	713	San Lucas Tolimán	10	San Lucas Tolimán	2	Febrero	2023-03-02T00:00:00	2024-11-08T04:00:00	6	Velocidad del viento	6.4
104598	7	Sololá	713	San Lucas Tolimán	10	San Lucas Tolimán	2	Febrero	2023-03-02T00:00:00	2024-11-08T04:00:00	7	Dirección del viento	6.44
104599	7	Sololá	713	San Lucas Tolimán	10	San Lucas Tolimán	2	Febrero	2023-03-02T00:00:00	2024-11-08T04:00:00	1	Precipitación	0
104600	7	Sololá	713	San Lucas Tolimán	10	San Lucas Tolimán	2	Febrero	2023-03-02T00:00:00	2024-11-08T04:00:00	8	Radiación solar	0
104601	7	Sololá	713	San Lucas Tolimán	10	San Lucas Tolimán	2	Febrero	2023-03-02T00:00:00	2024-11-08T05:00:00	2	Temperatura media	15.4
104602	7	Sololá	713	San Lucas Tolimán	10	San Lucas Tolimán	2	Febrero	2023-03-02T00:00:00	2024-11-08T05:00:00	4	Temperatura máxima	15.4
104603	7	Sololá	713	San Lucas Tolimán	10	San Lucas Tolimán	2	Febrero	2023-03-02T00:00:00	2024-11-08T05:00:00	3	Temperatura mínima	14.9
104604	7	Sololá	713	San Lucas Tolimán	10	San Lucas Tolimán	2	Febrero	2023-03-02T00:00:00	2024-11-08T05:00:00	5	Humedad	51
104605	7	Sololá	713	San Lucas Tolimán	10	San Lucas Tolimán	2	Febrero	2023-03-02T00:00:00	2024-11-08T05:00:00	6	Velocidad del viento	6.4
104606	7	Sololá	713	San Lucas Tolimán	10	San Lucas Tolimán	2	Febrero	2023-03-02T00:00:00	2024-11-08T05:00:00	7	Dirección del viento	6.44
104607	7	Sololá	713	San Lucas Tolimán	10	San Lucas Tolimán	2	Febrero	2023-03-02T00:00:00	2024-11-08T05:00:00	1	Precipitación	0
104608	7	Sololá	713	San Lucas Tolimán	10	San Lucas Tolimán	2	Febrero	2023-03-02T00:00:00	2024-11-08T05:00:00	8	Radiación solar	0
104609	7	Sololá	713	San Lucas Tolimán	10	San Lucas Tolimán	2	Febrero	2023-03-02T00:00:00	2024-11-08T06:00:00	2	Temperatura media	16.8
104610	7	Sololá	713	San Lucas Tolimán	10	San Lucas Tolimán	2	Febrero	2023-03-02T00:00:00	2024-11-08T06:00:00	4	Temperatura máxima	16.9
104611	7	Sololá	713	San Lucas Tolimán	10	San Lucas Tolimán	2	Febrero	2023-03-02T00:00:00	2024-11-08T06:00:00	3	Temperatura mínima	15.4
104612	7	Sololá	713	San Lucas Tolimán	10	San Lucas Tolimán	2	Febrero	2023-03-02T00:00:00	2024-11-08T06:00:00	5	Humedad	49
104613	7	Sololá	713	San Lucas Tolimán	10	San Lucas Tolimán	2	Febrero	2023-03-02T00:00:00	2024-11-08T06:00:00	6	Velocidad del viento	11.3
104614	7	Sololá	713	San Lucas Tolimán	10	San Lucas Tolimán	2	Febrero	2023-03-02T00:00:00	2024-11-08T06:00:00	7	Dirección del viento	11.27
104615	7	Sololá	713	San Lucas Tolimán	10	San Lucas Tolimán	2	Febrero	2023-03-02T00:00:00	2024-11-08T06:00:00	1	Precipitación	0
104616	7	Sololá	713	San Lucas Tolimán	10	San Lucas Tolimán	2	Febrero	2023-03-02T00:00:00	2024-11-08T06:00:00	8	Radiación solar	0
104617	7	Sololá	713	San Lucas Tolimán	10	San Lucas Tolimán	2	Febrero	2023-03-02T00:00:00	2024-11-08T07:00:00	2	Temperatura media	16.6
104618	7	Sololá	713	San Lucas Tolimán	10	San Lucas Tolimán	2	Febrero	2023-03-02T00:00:00	2024-11-08T07:00:00	4	Temperatura máxima	16.8
104619	7	Sololá	713	San Lucas Tolimán	10	San Lucas Tolimán	2	Febrero	2023-03-02T00:00:00	2024-11-08T07:00:00	3	Temperatura mínima	16.4
104620	7	Sololá	713	San Lucas Tolimán	10	San Lucas Tolimán	2	Febrero	2023-03-02T00:00:00	2024-11-08T07:00:00	5	Humedad	50
104621	7	Sololá	713	San Lucas Tolimán	10	San Lucas Tolimán	2	Febrero	2023-03-02T00:00:00	2024-11-08T07:00:00	6	Velocidad del viento	11.3
104622	7	Sololá	713	San Lucas Tolimán	10	San Lucas Tolimán	2	Febrero	2023-03-02T00:00:00	2024-11-08T07:00:00	7	Dirección del viento	11.27
104623	7	Sololá	713	San Lucas Tolimán	10	San Lucas Tolimán	2	Febrero	2023-03-02T00:00:00	2024-11-08T07:00:00	1	Precipitación	0
104624	7	Sololá	713	San Lucas Tolimán	10	San Lucas Tolimán	2	Febrero	2023-03-02T00:00:00	2024-11-08T07:00:00	8	Radiación solar	4
104625	7	Sololá	713	San Lucas Tolimán	10	San Lucas Tolimán	2	Febrero	2023-03-02T00:00:00	2024-11-08T08:00:00	2	Temperatura media	17.4
104626	7	Sololá	713	San Lucas Tolimán	10	San Lucas Tolimán	2	Febrero	2023-03-02T00:00:00	2024-11-08T08:00:00	4	Temperatura máxima	17.4
104627	7	Sololá	713	San Lucas Tolimán	10	San Lucas Tolimán	2	Febrero	2023-03-02T00:00:00	2024-11-08T08:00:00	3	Temperatura mínima	16.6
104628	7	Sololá	713	San Lucas Tolimán	10	San Lucas Tolimán	2	Febrero	2023-03-02T00:00:00	2024-11-08T08:00:00	5	Humedad	47
104629	7	Sololá	713	San Lucas Tolimán	10	San Lucas Tolimán	2	Febrero	2023-03-02T00:00:00	2024-11-08T08:00:00	6	Velocidad del viento	12.9
104630	7	Sololá	713	San Lucas Tolimán	10	San Lucas Tolimán	2	Febrero	2023-03-02T00:00:00	2024-11-08T08:00:00	7	Dirección del viento	12.87
104631	7	Sololá	713	San Lucas Tolimán	10	San Lucas Tolimán	2	Febrero	2023-03-02T00:00:00	2024-11-08T08:00:00	1	Precipitación	0
104632	7	Sololá	713	San Lucas Tolimán	10	San Lucas Tolimán	2	Febrero	2023-03-02T00:00:00	2024-11-08T08:00:00	8	Radiación solar	20
104633	7	Sololá	713	San Lucas Tolimán	10	San Lucas Tolimán	2	Febrero	2023-03-02T00:00:00	2024-11-08T09:00:00	2	Temperatura media	19.9
104634	7	Sololá	713	San Lucas Tolimán	10	San Lucas Tolimán	2	Febrero	2023-03-02T00:00:00	2024-11-08T09:00:00	4	Temperatura máxima	19.9
104635	7	Sololá	713	San Lucas Tolimán	10	San Lucas Tolimán	2	Febrero	2023-03-02T00:00:00	2024-11-08T09:00:00	3	Temperatura mínima	17.4
104636	7	Sololá	713	San Lucas Tolimán	10	San Lucas Tolimán	2	Febrero	2023-03-02T00:00:00	2024-11-08T09:00:00	5	Humedad	43
104637	7	Sololá	713	San Lucas Tolimán	10	San Lucas Tolimán	2	Febrero	2023-03-02T00:00:00	2024-11-08T09:00:00	6	Velocidad del viento	14.5
104638	7	Sololá	713	San Lucas Tolimán	10	San Lucas Tolimán	2	Febrero	2023-03-02T00:00:00	2024-11-08T09:00:00	7	Dirección del viento	14.48
104639	7	Sololá	713	San Lucas Tolimán	10	San Lucas Tolimán	2	Febrero	2023-03-02T00:00:00	2024-11-08T09:00:00	1	Precipitación	0
104640	7	Sololá	713	San Lucas Tolimán	10	San Lucas Tolimán	2	Febrero	2023-03-02T00:00:00	2024-11-08T09:00:00	8	Radiación solar	357
104641	7	Sololá	713	San Lucas Tolimán	10	San Lucas Tolimán	2	Febrero	2023-03-02T00:00:00	2024-11-08T10:00:00	2	Temperatura media	20.4
104642	7	Sololá	713	San Lucas Tolimán	10	San Lucas Tolimán	2	Febrero	2023-03-02T00:00:00	2024-11-08T10:00:00	4	Temperatura máxima	20.4
104643	7	Sololá	713	San Lucas Tolimán	10	San Lucas Tolimán	2	Febrero	2023-03-02T00:00:00	2024-11-08T10:00:00	3	Temperatura mínima	19.7
104644	7	Sololá	713	San Lucas Tolimán	10	San Lucas Tolimán	2	Febrero	2023-03-02T00:00:00	2024-11-08T10:00:00	5	Humedad	46
104645	7	Sololá	713	San Lucas Tolimán	10	San Lucas Tolimán	2	Febrero	2023-03-02T00:00:00	2024-11-08T10:00:00	6	Velocidad del viento	24.1
104646	7	Sololá	713	San Lucas Tolimán	10	San Lucas Tolimán	2	Febrero	2023-03-02T00:00:00	2024-11-08T10:00:00	7	Dirección del viento	24.14
104647	7	Sololá	713	San Lucas Tolimán	10	San Lucas Tolimán	2	Febrero	2023-03-02T00:00:00	2024-11-08T10:00:00	1	Precipitación	0
104648	7	Sololá	713	San Lucas Tolimán	10	San Lucas Tolimán	2	Febrero	2023-03-02T00:00:00	2024-11-08T10:00:00	8	Radiación solar	624
104649	7	Sololá	713	San Lucas Tolimán	10	San Lucas Tolimán	2	Febrero	2023-03-02T00:00:00	2024-11-08T11:00:00	2	Temperatura media	20.6
104650	7	Sololá	713	San Lucas Tolimán	10	San Lucas Tolimán	2	Febrero	2023-03-02T00:00:00	2024-11-08T11:00:00	4	Temperatura máxima	20.8
104651	7	Sololá	713	San Lucas Tolimán	10	San Lucas Tolimán	2	Febrero	2023-03-02T00:00:00	2024-11-08T11:00:00	3	Temperatura mínima	19.9
104652	7	Sololá	713	San Lucas Tolimán	10	San Lucas Tolimán	2	Febrero	2023-03-02T00:00:00	2024-11-08T11:00:00	5	Humedad	47
104653	7	Sololá	713	San Lucas Tolimán	10	San Lucas Tolimán	2	Febrero	2023-03-02T00:00:00	2024-11-08T11:00:00	6	Velocidad del viento	22.5
104654	7	Sololá	713	San Lucas Tolimán	10	San Lucas Tolimán	2	Febrero	2023-03-02T00:00:00	2024-11-08T11:00:00	7	Dirección del viento	22.53
104655	7	Sololá	713	San Lucas Tolimán	10	San Lucas Tolimán	2	Febrero	2023-03-02T00:00:00	2024-11-08T11:00:00	1	Precipitación	0
104656	7	Sololá	713	San Lucas Tolimán	10	San Lucas Tolimán	2	Febrero	2023-03-02T00:00:00	2024-11-08T11:00:00	8	Radiación solar	919
104657	7	Sololá	713	San Lucas Tolimán	10	San Lucas Tolimán	2	Febrero	2023-03-02T00:00:00	2024-11-08T12:00:00	2	Temperatura media	20.3
104658	7	Sololá	713	San Lucas Tolimán	10	San Lucas Tolimán	2	Febrero	2023-03-02T00:00:00	2024-11-08T12:00:00	4	Temperatura máxima	20.8
104659	7	Sololá	713	San Lucas Tolimán	10	San Lucas Tolimán	2	Febrero	2023-03-02T00:00:00	2024-11-08T12:00:00	3	Temperatura mínima	20.3
104660	7	Sololá	713	San Lucas Tolimán	10	San Lucas Tolimán	2	Febrero	2023-03-02T00:00:00	2024-11-08T12:00:00	5	Humedad	47
104661	7	Sololá	713	San Lucas Tolimán	10	San Lucas Tolimán	2	Febrero	2023-03-02T00:00:00	2024-11-08T12:00:00	6	Velocidad del viento	22.5
104662	7	Sololá	713	San Lucas Tolimán	10	San Lucas Tolimán	2	Febrero	2023-03-02T00:00:00	2024-11-08T12:00:00	7	Dirección del viento	22.53
104663	7	Sololá	713	San Lucas Tolimán	10	San Lucas Tolimán	2	Febrero	2023-03-02T00:00:00	2024-11-08T12:00:00	1	Precipitación	0
104664	7	Sololá	713	San Lucas Tolimán	10	San Lucas Tolimán	2	Febrero	2023-03-02T00:00:00	2024-11-08T12:00:00	8	Radiación solar	730
104665	7	Sololá	713	San Lucas Tolimán	10	San Lucas Tolimán	2	Febrero	2023-03-02T00:00:00	2024-11-08T13:00:00	2	Temperatura media	19.6
104666	7	Sololá	713	San Lucas Tolimán	10	San Lucas Tolimán	2	Febrero	2023-03-02T00:00:00	2024-11-08T13:00:00	4	Temperatura máxima	21.1
104667	7	Sololá	713	San Lucas Tolimán	10	San Lucas Tolimán	2	Febrero	2023-03-02T00:00:00	2024-11-08T13:00:00	3	Temperatura mínima	19.6
104668	7	Sololá	713	San Lucas Tolimán	10	San Lucas Tolimán	2	Febrero	2023-03-02T00:00:00	2024-11-08T13:00:00	5	Humedad	51
104669	7	Sololá	713	San Lucas Tolimán	10	San Lucas Tolimán	2	Febrero	2023-03-02T00:00:00	2024-11-08T13:00:00	6	Velocidad del viento	20.9
104670	7	Sololá	713	San Lucas Tolimán	10	San Lucas Tolimán	2	Febrero	2023-03-02T00:00:00	2024-11-08T13:00:00	7	Dirección del viento	20.92
104671	7	Sololá	713	San Lucas Tolimán	10	San Lucas Tolimán	2	Febrero	2023-03-02T00:00:00	2024-11-08T13:00:00	1	Precipitación	0
104672	7	Sololá	713	San Lucas Tolimán	10	San Lucas Tolimán	2	Febrero	2023-03-02T00:00:00	2024-11-08T13:00:00	8	Radiación solar	495
104673	7	Sololá	713	San Lucas Tolimán	10	San Lucas Tolimán	2	Febrero	2023-03-02T00:00:00	2024-11-08T14:00:00	2	Temperatura media	19.8
104674	7	Sololá	713	San Lucas Tolimán	10	San Lucas Tolimán	2	Febrero	2023-03-02T00:00:00	2024-11-08T14:00:00	4	Temperatura máxima	20
104675	7	Sololá	713	San Lucas Tolimán	10	San Lucas Tolimán	2	Febrero	2023-03-02T00:00:00	2024-11-08T14:00:00	3	Temperatura mínima	19.2
104676	7	Sololá	713	San Lucas Tolimán	10	San Lucas Tolimán	2	Febrero	2023-03-02T00:00:00	2024-11-08T14:00:00	5	Humedad	49
104677	7	Sololá	713	San Lucas Tolimán	10	San Lucas Tolimán	2	Febrero	2023-03-02T00:00:00	2024-11-08T14:00:00	6	Velocidad del viento	25.7
104678	7	Sololá	713	San Lucas Tolimán	10	San Lucas Tolimán	2	Febrero	2023-03-02T00:00:00	2024-11-08T14:00:00	7	Dirección del viento	25.75
104679	7	Sololá	713	San Lucas Tolimán	10	San Lucas Tolimán	2	Febrero	2023-03-02T00:00:00	2024-11-08T14:00:00	1	Precipitación	0
104680	7	Sololá	713	San Lucas Tolimán	10	San Lucas Tolimán	2	Febrero	2023-03-02T00:00:00	2024-11-08T14:00:00	8	Radiación solar	649
104681	7	Sololá	713	San Lucas Tolimán	10	San Lucas Tolimán	2	Febrero	2023-03-02T00:00:00	2024-11-08T15:00:00	2	Temperatura media	19.6
104682	7	Sololá	713	San Lucas Tolimán	10	San Lucas Tolimán	2	Febrero	2023-03-02T00:00:00	2024-11-08T15:00:00	4	Temperatura máxima	19.8
104683	7	Sololá	713	San Lucas Tolimán	10	San Lucas Tolimán	2	Febrero	2023-03-02T00:00:00	2024-11-08T15:00:00	3	Temperatura mínima	19.1
104684	7	Sololá	713	San Lucas Tolimán	10	San Lucas Tolimán	2	Febrero	2023-03-02T00:00:00	2024-11-08T15:00:00	5	Humedad	48
104685	7	Sololá	713	San Lucas Tolimán	10	San Lucas Tolimán	2	Febrero	2023-03-02T00:00:00	2024-11-08T15:00:00	6	Velocidad del viento	24.1
104686	7	Sololá	713	San Lucas Tolimán	10	San Lucas Tolimán	2	Febrero	2023-03-02T00:00:00	2024-11-08T15:00:00	7	Dirección del viento	24.14
104687	7	Sololá	713	San Lucas Tolimán	10	San Lucas Tolimán	2	Febrero	2023-03-02T00:00:00	2024-11-08T15:00:00	1	Precipitación	0
104688	7	Sololá	713	San Lucas Tolimán	10	San Lucas Tolimán	2	Febrero	2023-03-02T00:00:00	2024-11-08T15:00:00	8	Radiación solar	673
104689	7	Sololá	713	San Lucas Tolimán	10	San Lucas Tolimán	2	Febrero	2023-03-02T00:00:00	2024-11-08T16:00:00	2	Temperatura media	19.1
104690	7	Sololá	713	San Lucas Tolimán	10	San Lucas Tolimán	2	Febrero	2023-03-02T00:00:00	2024-11-08T16:00:00	4	Temperatura máxima	19.7
104691	7	Sololá	713	San Lucas Tolimán	10	San Lucas Tolimán	2	Febrero	2023-03-02T00:00:00	2024-11-08T16:00:00	3	Temperatura mínima	18.9
104692	7	Sololá	713	San Lucas Tolimán	10	San Lucas Tolimán	2	Febrero	2023-03-02T00:00:00	2024-11-08T16:00:00	5	Humedad	49
104693	7	Sololá	713	San Lucas Tolimán	10	San Lucas Tolimán	2	Febrero	2023-03-02T00:00:00	2024-11-08T16:00:00	6	Velocidad del viento	20.9
104694	7	Sololá	713	San Lucas Tolimán	10	San Lucas Tolimán	2	Febrero	2023-03-02T00:00:00	2024-11-08T16:00:00	7	Dirección del viento	20.92
104695	7	Sololá	713	San Lucas Tolimán	10	San Lucas Tolimán	2	Febrero	2023-03-02T00:00:00	2024-11-08T16:00:00	1	Precipitación	0
104696	7	Sololá	713	San Lucas Tolimán	10	San Lucas Tolimán	2	Febrero	2023-03-02T00:00:00	2024-11-08T16:00:00	8	Radiación solar	559
104697	7	Sololá	713	San Lucas Tolimán	10	San Lucas Tolimán	2	Febrero	2023-03-02T00:00:00	2024-11-08T17:00:00	2	Temperatura media	18.4
104698	7	Sololá	713	San Lucas Tolimán	10	San Lucas Tolimán	2	Febrero	2023-03-02T00:00:00	2024-11-08T17:00:00	4	Temperatura máxima	19.3
104699	7	Sololá	713	San Lucas Tolimán	10	San Lucas Tolimán	2	Febrero	2023-03-02T00:00:00	2024-11-08T17:00:00	3	Temperatura mínima	18.4
104700	7	Sololá	713	San Lucas Tolimán	10	San Lucas Tolimán	2	Febrero	2023-03-02T00:00:00	2024-11-08T17:00:00	5	Humedad	47
104701	7	Sololá	713	San Lucas Tolimán	10	San Lucas Tolimán	2	Febrero	2023-03-02T00:00:00	2024-11-08T17:00:00	6	Velocidad del viento	17.7
104702	7	Sololá	713	San Lucas Tolimán	10	San Lucas Tolimán	2	Febrero	2023-03-02T00:00:00	2024-11-08T17:00:00	7	Dirección del viento	17.7
104703	7	Sololá	713	San Lucas Tolimán	10	San Lucas Tolimán	2	Febrero	2023-03-02T00:00:00	2024-11-08T17:00:00	1	Precipitación	0
104704	7	Sololá	713	San Lucas Tolimán	10	San Lucas Tolimán	2	Febrero	2023-03-02T00:00:00	2024-11-08T17:00:00	8	Radiación solar	236
104705	7	Sololá	713	San Lucas Tolimán	10	San Lucas Tolimán	2	Febrero	2023-03-02T00:00:00	2024-11-08T18:00:00	2	Temperatura media	17.8
104706	7	Sololá	713	San Lucas Tolimán	10	San Lucas Tolimán	2	Febrero	2023-03-02T00:00:00	2024-11-08T18:00:00	4	Temperatura máxima	18.6
104707	7	Sololá	713	San Lucas Tolimán	10	San Lucas Tolimán	2	Febrero	2023-03-02T00:00:00	2024-11-08T18:00:00	3	Temperatura mínima	17.8
104708	7	Sololá	713	San Lucas Tolimán	10	San Lucas Tolimán	2	Febrero	2023-03-02T00:00:00	2024-11-08T18:00:00	5	Humedad	50
104709	7	Sololá	713	San Lucas Tolimán	10	San Lucas Tolimán	2	Febrero	2023-03-02T00:00:00	2024-11-08T18:00:00	6	Velocidad del viento	14.5
104710	7	Sololá	713	San Lucas Tolimán	10	San Lucas Tolimán	2	Febrero	2023-03-02T00:00:00	2024-11-08T18:00:00	7	Dirección del viento	14.48
104711	7	Sololá	713	San Lucas Tolimán	10	San Lucas Tolimán	2	Febrero	2023-03-02T00:00:00	2024-11-08T18:00:00	1	Precipitación	0
104712	7	Sololá	713	San Lucas Tolimán	10	San Lucas Tolimán	2	Febrero	2023-03-02T00:00:00	2024-11-08T18:00:00	8	Radiación solar	47
104713	7	Sololá	713	San Lucas Tolimán	10	San Lucas Tolimán	2	Febrero	2023-03-02T00:00:00	2024-11-08T19:00:00	2	Temperatura media	17.3
104714	7	Sololá	713	San Lucas Tolimán	10	San Lucas Tolimán	2	Febrero	2023-03-02T00:00:00	2024-11-08T19:00:00	4	Temperatura máxima	17.8
104715	7	Sololá	713	San Lucas Tolimán	10	San Lucas Tolimán	2	Febrero	2023-03-02T00:00:00	2024-11-08T19:00:00	3	Temperatura mínima	17.2
104716	7	Sololá	713	San Lucas Tolimán	10	San Lucas Tolimán	2	Febrero	2023-03-02T00:00:00	2024-11-08T19:00:00	5	Humedad	51
104717	7	Sololá	713	San Lucas Tolimán	10	San Lucas Tolimán	2	Febrero	2023-03-02T00:00:00	2024-11-08T19:00:00	6	Velocidad del viento	12.9
104718	7	Sololá	713	San Lucas Tolimán	10	San Lucas Tolimán	2	Febrero	2023-03-02T00:00:00	2024-11-08T19:00:00	7	Dirección del viento	12.87
104719	7	Sololá	713	San Lucas Tolimán	10	San Lucas Tolimán	2	Febrero	2023-03-02T00:00:00	2024-11-08T19:00:00	1	Precipitación	0
104720	7	Sololá	713	San Lucas Tolimán	10	San Lucas Tolimán	2	Febrero	2023-03-02T00:00:00	2024-11-08T19:00:00	8	Radiación solar	0
104721	7	Sololá	713	San Lucas Tolimán	10	San Lucas Tolimán	2	Febrero	2023-03-02T00:00:00	2024-11-08T20:00:00	2	Temperatura media	17.3
104722	7	Sololá	713	San Lucas Tolimán	10	San Lucas Tolimán	2	Febrero	2023-03-02T00:00:00	2024-11-08T20:00:00	4	Temperatura máxima	17.8
104723	7	Sololá	713	San Lucas Tolimán	10	San Lucas Tolimán	2	Febrero	2023-03-02T00:00:00	2024-11-08T20:00:00	3	Temperatura mínima	17.3
104724	7	Sololá	713	San Lucas Tolimán	10	San Lucas Tolimán	2	Febrero	2023-03-02T00:00:00	2024-11-08T20:00:00	5	Humedad	52
104725	7	Sololá	713	San Lucas Tolimán	10	San Lucas Tolimán	2	Febrero	2023-03-02T00:00:00	2024-11-08T20:00:00	6	Velocidad del viento	16.1
104726	7	Sololá	713	San Lucas Tolimán	10	San Lucas Tolimán	2	Febrero	2023-03-02T00:00:00	2024-11-08T20:00:00	7	Dirección del viento	16.09
104727	7	Sololá	713	San Lucas Tolimán	10	San Lucas Tolimán	2	Febrero	2023-03-02T00:00:00	2024-11-08T20:00:00	1	Precipitación	0
104728	7	Sololá	713	San Lucas Tolimán	10	San Lucas Tolimán	2	Febrero	2023-03-02T00:00:00	2024-11-08T20:00:00	8	Radiación solar	0
104729	7	Sololá	713	San Lucas Tolimán	10	San Lucas Tolimán	2	Febrero	2023-03-02T00:00:00	2024-11-08T21:00:00	2	Temperatura media	17.3
104730	7	Sololá	713	San Lucas Tolimán	10	San Lucas Tolimán	2	Febrero	2023-03-02T00:00:00	2024-11-08T21:00:00	4	Temperatura máxima	17.4
104731	7	Sololá	713	San Lucas Tolimán	10	San Lucas Tolimán	2	Febrero	2023-03-02T00:00:00	2024-11-08T21:00:00	3	Temperatura mínima	17.2
104732	7	Sololá	713	San Lucas Tolimán	10	San Lucas Tolimán	2	Febrero	2023-03-02T00:00:00	2024-11-08T21:00:00	5	Humedad	53
104733	7	Sololá	713	San Lucas Tolimán	10	San Lucas Tolimán	2	Febrero	2023-03-02T00:00:00	2024-11-08T21:00:00	6	Velocidad del viento	14.5
104734	7	Sololá	713	San Lucas Tolimán	10	San Lucas Tolimán	2	Febrero	2023-03-02T00:00:00	2024-11-08T21:00:00	7	Dirección del viento	14.48
104735	7	Sololá	713	San Lucas Tolimán	10	San Lucas Tolimán	2	Febrero	2023-03-02T00:00:00	2024-11-08T21:00:00	1	Precipitación	0
104736	7	Sololá	713	San Lucas Tolimán	10	San Lucas Tolimán	2	Febrero	2023-03-02T00:00:00	2024-11-08T21:00:00	8	Radiación solar	0
104737	7	Sololá	713	San Lucas Tolimán	10	San Lucas Tolimán	2	Febrero	2023-03-02T00:00:00	2024-11-08T22:00:00	2	Temperatura media	17.3
104738	7	Sololá	713	San Lucas Tolimán	10	San Lucas Tolimán	2	Febrero	2023-03-02T00:00:00	2024-11-08T22:00:00	4	Temperatura máxima	17.4
104739	7	Sololá	713	San Lucas Tolimán	10	San Lucas Tolimán	2	Febrero	2023-03-02T00:00:00	2024-11-08T22:00:00	3	Temperatura mínima	17.1
104740	7	Sololá	713	San Lucas Tolimán	10	San Lucas Tolimán	2	Febrero	2023-03-02T00:00:00	2024-11-08T22:00:00	5	Humedad	53
104741	7	Sololá	713	San Lucas Tolimán	10	San Lucas Tolimán	2	Febrero	2023-03-02T00:00:00	2024-11-08T22:00:00	6	Velocidad del viento	12.9
104742	7	Sololá	713	San Lucas Tolimán	10	San Lucas Tolimán	2	Febrero	2023-03-02T00:00:00	2024-11-08T22:00:00	7	Dirección del viento	12.87
104743	7	Sololá	713	San Lucas Tolimán	10	San Lucas Tolimán	2	Febrero	2023-03-02T00:00:00	2024-11-08T22:00:00	1	Precipitación	0
104744	7	Sololá	713	San Lucas Tolimán	10	San Lucas Tolimán	2	Febrero	2023-03-02T00:00:00	2024-11-08T22:00:00	8	Radiación solar	0
104745	7	Sololá	713	San Lucas Tolimán	10	San Lucas Tolimán	2	Febrero	2023-03-02T00:00:00	2024-11-08T23:00:00	2	Temperatura media	17.2
104746	7	Sololá	713	San Lucas Tolimán	10	San Lucas Tolimán	2	Febrero	2023-03-02T00:00:00	2024-11-08T23:00:00	4	Temperatura máxima	17.3
104747	7	Sololá	713	San Lucas Tolimán	10	San Lucas Tolimán	2	Febrero	2023-03-02T00:00:00	2024-11-08T23:00:00	3	Temperatura mínima	17.1
104748	7	Sololá	713	San Lucas Tolimán	10	San Lucas Tolimán	2	Febrero	2023-03-02T00:00:00	2024-11-08T23:00:00	5	Humedad	54
104749	7	Sololá	713	San Lucas Tolimán	10	San Lucas Tolimán	2	Febrero	2023-03-02T00:00:00	2024-11-08T23:00:00	6	Velocidad del viento	12.9
104750	7	Sololá	713	San Lucas Tolimán	10	San Lucas Tolimán	2	Febrero	2023-03-02T00:00:00	2024-11-08T23:00:00	7	Dirección del viento	12.87
104751	7	Sololá	713	San Lucas Tolimán	10	San Lucas Tolimán	2	Febrero	2023-03-02T00:00:00	2024-11-08T23:00:00	1	Precipitación	0
104752	7	Sololá	713	San Lucas Tolimán	10	San Lucas Tolimán	2	Febrero	2023-03-02T00:00:00	2024-11-08T23:00:00	8	Radiación solar	0
104753	7	Sololá	713	San Lucas Tolimán	10	San Lucas Tolimán	2	Febrero	2023-04-02T00:00:00	2024-11-08T00:00:00	2	Temperatura media	17.2
104754	7	Sololá	713	San Lucas Tolimán	10	San Lucas Tolimán	2	Febrero	2023-04-02T00:00:00	2024-11-08T00:00:00	4	Temperatura máxima	17.3
104755	7	Sololá	713	San Lucas Tolimán	10	San Lucas Tolimán	2	Febrero	2023-04-02T00:00:00	2024-11-08T00:00:00	3	Temperatura mínima	17.1
104756	7	Sololá	713	San Lucas Tolimán	10	San Lucas Tolimán	2	Febrero	2023-04-02T00:00:00	2024-11-08T00:00:00	5	Humedad	55
104757	7	Sololá	713	San Lucas Tolimán	10	San Lucas Tolimán	2	Febrero	2023-04-02T00:00:00	2024-11-08T00:00:00	6	Velocidad del viento	9.7
104758	7	Sololá	713	San Lucas Tolimán	10	San Lucas Tolimán	2	Febrero	2023-04-02T00:00:00	2024-11-08T00:00:00	7	Dirección del viento	9.66
104759	7	Sololá	713	San Lucas Tolimán	10	San Lucas Tolimán	2	Febrero	2023-04-02T00:00:00	2024-11-08T00:00:00	1	Precipitación	0
104760	7	Sololá	713	San Lucas Tolimán	10	San Lucas Tolimán	2	Febrero	2023-04-02T00:00:00	2024-11-08T00:00:00	8	Radiación solar	0
104761	7	Sololá	713	San Lucas Tolimán	10	San Lucas Tolimán	2	Febrero	2023-04-02T00:00:00	2024-11-08T01:00:00	2	Temperatura media	17.7
104762	7	Sololá	713	San Lucas Tolimán	10	San Lucas Tolimán	2	Febrero	2023-04-02T00:00:00	2024-11-08T01:00:00	4	Temperatura máxima	17.8
104763	7	Sololá	713	San Lucas Tolimán	10	San Lucas Tolimán	2	Febrero	2023-04-02T00:00:00	2024-11-08T01:00:00	3	Temperatura mínima	17.2
104764	7	Sololá	713	San Lucas Tolimán	10	San Lucas Tolimán	2	Febrero	2023-04-02T00:00:00	2024-11-08T01:00:00	5	Humedad	53
104765	7	Sololá	713	San Lucas Tolimán	10	San Lucas Tolimán	2	Febrero	2023-04-02T00:00:00	2024-11-08T01:00:00	6	Velocidad del viento	11.3
104766	7	Sololá	713	San Lucas Tolimán	10	San Lucas Tolimán	2	Febrero	2023-04-02T00:00:00	2024-11-08T01:00:00	7	Dirección del viento	11.27
104767	7	Sololá	713	San Lucas Tolimán	10	San Lucas Tolimán	2	Febrero	2023-04-02T00:00:00	2024-11-08T01:00:00	1	Precipitación	0
104768	7	Sololá	713	San Lucas Tolimán	10	San Lucas Tolimán	2	Febrero	2023-04-02T00:00:00	2024-11-08T01:00:00	8	Radiación solar	0
104769	7	Sololá	713	San Lucas Tolimán	10	San Lucas Tolimán	2	Febrero	2023-04-02T00:00:00	2024-11-08T02:00:00	2	Temperatura media	17.4
104770	7	Sololá	713	San Lucas Tolimán	10	San Lucas Tolimán	2	Febrero	2023-04-02T00:00:00	2024-11-08T02:00:00	4	Temperatura máxima	17.7
104771	7	Sololá	713	San Lucas Tolimán	10	San Lucas Tolimán	2	Febrero	2023-04-02T00:00:00	2024-11-08T02:00:00	3	Temperatura mínima	17.3
104772	7	Sololá	713	San Lucas Tolimán	10	San Lucas Tolimán	2	Febrero	2023-04-02T00:00:00	2024-11-08T02:00:00	5	Humedad	55
104773	7	Sololá	713	San Lucas Tolimán	10	San Lucas Tolimán	2	Febrero	2023-04-02T00:00:00	2024-11-08T02:00:00	6	Velocidad del viento	14.5
104774	7	Sololá	713	San Lucas Tolimán	10	San Lucas Tolimán	2	Febrero	2023-04-02T00:00:00	2024-11-08T02:00:00	7	Dirección del viento	14.48
104775	7	Sololá	713	San Lucas Tolimán	10	San Lucas Tolimán	2	Febrero	2023-04-02T00:00:00	2024-11-08T02:00:00	1	Precipitación	0
104776	7	Sololá	713	San Lucas Tolimán	10	San Lucas Tolimán	2	Febrero	2023-04-02T00:00:00	2024-11-08T02:00:00	8	Radiación solar	0
104777	7	Sololá	713	San Lucas Tolimán	10	San Lucas Tolimán	2	Febrero	2023-04-02T00:00:00	2024-11-08T03:00:00	2	Temperatura media	17.7
104778	7	Sololá	713	San Lucas Tolimán	10	San Lucas Tolimán	2	Febrero	2023-04-02T00:00:00	2024-11-08T03:00:00	4	Temperatura máxima	17.7
104779	7	Sololá	713	San Lucas Tolimán	10	San Lucas Tolimán	2	Febrero	2023-04-02T00:00:00	2024-11-08T03:00:00	3	Temperatura mínima	17.3
104780	7	Sololá	713	San Lucas Tolimán	10	San Lucas Tolimán	2	Febrero	2023-04-02T00:00:00	2024-11-08T03:00:00	5	Humedad	53
104781	7	Sololá	713	San Lucas Tolimán	10	San Lucas Tolimán	2	Febrero	2023-04-02T00:00:00	2024-11-08T03:00:00	6	Velocidad del viento	12.9
104782	7	Sololá	713	San Lucas Tolimán	10	San Lucas Tolimán	2	Febrero	2023-04-02T00:00:00	2024-11-08T03:00:00	7	Dirección del viento	12.87
104783	7	Sololá	713	San Lucas Tolimán	10	San Lucas Tolimán	2	Febrero	2023-04-02T00:00:00	2024-11-08T03:00:00	1	Precipitación	0
104784	7	Sololá	713	San Lucas Tolimán	10	San Lucas Tolimán	2	Febrero	2023-04-02T00:00:00	2024-11-08T03:00:00	8	Radiación solar	0
104785	7	Sololá	713	San Lucas Tolimán	10	San Lucas Tolimán	2	Febrero	2023-04-02T00:00:00	2024-11-08T04:00:00	2	Temperatura media	17.5
104786	7	Sololá	713	San Lucas Tolimán	10	San Lucas Tolimán	2	Febrero	2023-04-02T00:00:00	2024-11-08T04:00:00	4	Temperatura máxima	17.7
104787	7	Sololá	713	San Lucas Tolimán	10	San Lucas Tolimán	2	Febrero	2023-04-02T00:00:00	2024-11-08T04:00:00	3	Temperatura mínima	17.2
104788	7	Sololá	713	San Lucas Tolimán	10	San Lucas Tolimán	2	Febrero	2023-04-02T00:00:00	2024-11-08T04:00:00	5	Humedad	53
104789	7	Sololá	713	San Lucas Tolimán	10	San Lucas Tolimán	2	Febrero	2023-04-02T00:00:00	2024-11-08T04:00:00	6	Velocidad del viento	12.9
104790	7	Sololá	713	San Lucas Tolimán	10	San Lucas Tolimán	2	Febrero	2023-04-02T00:00:00	2024-11-08T04:00:00	7	Dirección del viento	12.87
104791	7	Sololá	713	San Lucas Tolimán	10	San Lucas Tolimán	2	Febrero	2023-04-02T00:00:00	2024-11-08T04:00:00	1	Precipitación	0
104792	7	Sololá	713	San Lucas Tolimán	10	San Lucas Tolimán	2	Febrero	2023-04-02T00:00:00	2024-11-08T04:00:00	8	Radiación solar	0
104793	7	Sololá	713	San Lucas Tolimán	10	San Lucas Tolimán	2	Febrero	2023-04-02T00:00:00	2024-11-08T05:00:00	2	Temperatura media	17.3
104794	7	Sololá	713	San Lucas Tolimán	10	San Lucas Tolimán	2	Febrero	2023-04-02T00:00:00	2024-11-08T05:00:00	4	Temperatura máxima	17.6
104795	7	Sololá	713	San Lucas Tolimán	10	San Lucas Tolimán	2	Febrero	2023-04-02T00:00:00	2024-11-08T05:00:00	3	Temperatura mínima	17.3
104796	7	Sololá	713	San Lucas Tolimán	10	San Lucas Tolimán	2	Febrero	2023-04-02T00:00:00	2024-11-08T05:00:00	5	Humedad	55
104797	7	Sololá	713	San Lucas Tolimán	10	San Lucas Tolimán	2	Febrero	2023-04-02T00:00:00	2024-11-08T05:00:00	6	Velocidad del viento	12.9
104798	7	Sololá	713	San Lucas Tolimán	10	San Lucas Tolimán	2	Febrero	2023-04-02T00:00:00	2024-11-08T05:00:00	7	Dirección del viento	12.87
104799	7	Sololá	713	San Lucas Tolimán	10	San Lucas Tolimán	2	Febrero	2023-04-02T00:00:00	2024-11-08T05:00:00	1	Precipitación	0
104800	7	Sololá	713	San Lucas Tolimán	10	San Lucas Tolimán	2	Febrero	2023-04-02T00:00:00	2024-11-08T05:00:00	8	Radiación solar	0
104801	7	Sololá	713	San Lucas Tolimán	10	San Lucas Tolimán	2	Febrero	2023-04-02T00:00:00	2024-11-08T06:00:00	2	Temperatura media	17
104802	7	Sololá	713	San Lucas Tolimán	10	San Lucas Tolimán	2	Febrero	2023-04-02T00:00:00	2024-11-08T06:00:00	4	Temperatura máxima	17.3
104803	7	Sololá	713	San Lucas Tolimán	10	San Lucas Tolimán	2	Febrero	2023-04-02T00:00:00	2024-11-08T06:00:00	3	Temperatura mínima	16.9
104804	7	Sololá	713	San Lucas Tolimán	10	San Lucas Tolimán	2	Febrero	2023-04-02T00:00:00	2024-11-08T06:00:00	5	Humedad	54
104805	7	Sololá	713	San Lucas Tolimán	10	San Lucas Tolimán	2	Febrero	2023-04-02T00:00:00	2024-11-08T06:00:00	6	Velocidad del viento	11.3
104806	7	Sololá	713	San Lucas Tolimán	10	San Lucas Tolimán	2	Febrero	2023-04-02T00:00:00	2024-11-08T06:00:00	7	Dirección del viento	11.27
104807	7	Sololá	713	San Lucas Tolimán	10	San Lucas Tolimán	2	Febrero	2023-04-02T00:00:00	2024-11-08T06:00:00	1	Precipitación	0
104808	7	Sololá	713	San Lucas Tolimán	10	San Lucas Tolimán	2	Febrero	2023-04-02T00:00:00	2024-11-08T06:00:00	8	Radiación solar	0
104809	7	Sololá	713	San Lucas Tolimán	10	San Lucas Tolimán	2	Febrero	2023-04-02T00:00:00	2024-11-08T07:00:00	2	Temperatura media	16.4
104810	7	Sololá	713	San Lucas Tolimán	10	San Lucas Tolimán	2	Febrero	2023-04-02T00:00:00	2024-11-08T07:00:00	4	Temperatura máxima	17
104811	7	Sololá	713	San Lucas Tolimán	10	San Lucas Tolimán	2	Febrero	2023-04-02T00:00:00	2024-11-08T07:00:00	3	Temperatura mínima	16.4
104812	7	Sololá	713	San Lucas Tolimán	10	San Lucas Tolimán	2	Febrero	2023-04-02T00:00:00	2024-11-08T07:00:00	5	Humedad	57
104813	7	Sololá	713	San Lucas Tolimán	10	San Lucas Tolimán	2	Febrero	2023-04-02T00:00:00	2024-11-08T07:00:00	6	Velocidad del viento	20.9
104814	7	Sololá	713	San Lucas Tolimán	10	San Lucas Tolimán	2	Febrero	2023-04-02T00:00:00	2024-11-08T07:00:00	7	Dirección del viento	20.92
104815	7	Sololá	713	San Lucas Tolimán	10	San Lucas Tolimán	2	Febrero	2023-04-02T00:00:00	2024-11-08T07:00:00	1	Precipitación	0
104816	7	Sololá	713	San Lucas Tolimán	10	San Lucas Tolimán	2	Febrero	2023-04-02T00:00:00	2024-11-08T07:00:00	8	Radiación solar	7
104817	7	Sololá	713	San Lucas Tolimán	10	San Lucas Tolimán	2	Febrero	2023-04-02T00:00:00	2024-11-08T08:00:00	2	Temperatura media	16.8
104818	7	Sololá	713	San Lucas Tolimán	10	San Lucas Tolimán	2	Febrero	2023-04-02T00:00:00	2024-11-08T08:00:00	4	Temperatura máxima	17
104819	7	Sololá	713	San Lucas Tolimán	10	San Lucas Tolimán	2	Febrero	2023-04-02T00:00:00	2024-11-08T08:00:00	3	Temperatura mínima	16.4
104820	7	Sololá	713	San Lucas Tolimán	10	San Lucas Tolimán	2	Febrero	2023-04-02T00:00:00	2024-11-08T08:00:00	5	Humedad	56
104821	7	Sololá	713	San Lucas Tolimán	10	San Lucas Tolimán	2	Febrero	2023-04-02T00:00:00	2024-11-08T08:00:00	6	Velocidad del viento	17.7
104822	7	Sololá	713	San Lucas Tolimán	10	San Lucas Tolimán	2	Febrero	2023-04-02T00:00:00	2024-11-08T08:00:00	7	Dirección del viento	17.7
104823	7	Sololá	713	San Lucas Tolimán	10	San Lucas Tolimán	2	Febrero	2023-04-02T00:00:00	2024-11-08T08:00:00	1	Precipitación	0
104824	7	Sololá	713	San Lucas Tolimán	10	San Lucas Tolimán	2	Febrero	2023-04-02T00:00:00	2024-11-08T08:00:00	8	Radiación solar	27
104825	7	Sololá	713	San Lucas Tolimán	10	San Lucas Tolimán	2	Febrero	2023-04-02T00:00:00	2024-11-08T09:00:00	2	Temperatura media	18.4
104826	7	Sololá	713	San Lucas Tolimán	10	San Lucas Tolimán	2	Febrero	2023-04-02T00:00:00	2024-11-08T09:00:00	4	Temperatura máxima	18.7
104827	7	Sololá	713	San Lucas Tolimán	10	San Lucas Tolimán	2	Febrero	2023-04-02T00:00:00	2024-11-08T09:00:00	3	Temperatura mínima	16.8
104828	7	Sololá	713	San Lucas Tolimán	10	San Lucas Tolimán	2	Febrero	2023-04-02T00:00:00	2024-11-08T09:00:00	5	Humedad	48
104829	7	Sololá	713	San Lucas Tolimán	10	San Lucas Tolimán	2	Febrero	2023-04-02T00:00:00	2024-11-08T09:00:00	6	Velocidad del viento	17.7
104830	7	Sololá	713	San Lucas Tolimán	10	San Lucas Tolimán	2	Febrero	2023-04-02T00:00:00	2024-11-08T09:00:00	7	Dirección del viento	17.7
104831	7	Sololá	713	San Lucas Tolimán	10	San Lucas Tolimán	2	Febrero	2023-04-02T00:00:00	2024-11-08T09:00:00	1	Precipitación	0
104832	7	Sololá	713	San Lucas Tolimán	10	San Lucas Tolimán	2	Febrero	2023-04-02T00:00:00	2024-11-08T09:00:00	8	Radiación solar	311
104833	7	Sololá	713	San Lucas Tolimán	10	San Lucas Tolimán	2	Febrero	2023-04-02T00:00:00	2024-11-08T10:00:00	2	Temperatura media	20
104834	7	Sololá	713	San Lucas Tolimán	10	San Lucas Tolimán	2	Febrero	2023-04-02T00:00:00	2024-11-08T10:00:00	4	Temperatura máxima	20
104835	7	Sololá	713	San Lucas Tolimán	10	San Lucas Tolimán	2	Febrero	2023-04-02T00:00:00	2024-11-08T10:00:00	3	Temperatura mínima	18.4
104836	7	Sololá	713	San Lucas Tolimán	10	San Lucas Tolimán	2	Febrero	2023-04-02T00:00:00	2024-11-08T10:00:00	5	Humedad	43
104837	7	Sololá	713	San Lucas Tolimán	10	San Lucas Tolimán	2	Febrero	2023-04-02T00:00:00	2024-11-08T10:00:00	6	Velocidad del viento	22.5
104838	7	Sololá	713	San Lucas Tolimán	10	San Lucas Tolimán	2	Febrero	2023-04-02T00:00:00	2024-11-08T10:00:00	7	Dirección del viento	22.53
104839	7	Sololá	713	San Lucas Tolimán	10	San Lucas Tolimán	2	Febrero	2023-04-02T00:00:00	2024-11-08T10:00:00	1	Precipitación	0
104840	7	Sololá	713	San Lucas Tolimán	10	San Lucas Tolimán	2	Febrero	2023-04-02T00:00:00	2024-11-08T10:00:00	8	Radiación solar	635
104841	7	Sololá	713	San Lucas Tolimán	10	San Lucas Tolimán	2	Febrero	2023-04-02T00:00:00	2024-11-08T11:00:00	2	Temperatura media	20.8
104842	7	Sololá	713	San Lucas Tolimán	10	San Lucas Tolimán	2	Febrero	2023-04-02T00:00:00	2024-11-08T11:00:00	4	Temperatura máxima	21.5
104843	7	Sololá	713	San Lucas Tolimán	10	San Lucas Tolimán	2	Febrero	2023-04-02T00:00:00	2024-11-08T11:00:00	3	Temperatura mínima	20
104844	7	Sololá	713	San Lucas Tolimán	10	San Lucas Tolimán	2	Febrero	2023-04-02T00:00:00	2024-11-08T11:00:00	5	Humedad	43
104845	7	Sololá	713	San Lucas Tolimán	10	San Lucas Tolimán	2	Febrero	2023-04-02T00:00:00	2024-11-08T11:00:00	6	Velocidad del viento	16.1
104846	7	Sololá	713	San Lucas Tolimán	10	San Lucas Tolimán	2	Febrero	2023-04-02T00:00:00	2024-11-08T11:00:00	7	Dirección del viento	16.09
104847	7	Sololá	713	San Lucas Tolimán	10	San Lucas Tolimán	2	Febrero	2023-04-02T00:00:00	2024-11-08T11:00:00	1	Precipitación	0
104848	7	Sololá	713	San Lucas Tolimán	10	San Lucas Tolimán	2	Febrero	2023-04-02T00:00:00	2024-11-08T11:00:00	8	Radiación solar	753
104849	7	Sololá	713	San Lucas Tolimán	10	San Lucas Tolimán	2	Febrero	2023-04-02T00:00:00	2024-11-08T12:00:00	2	Temperatura media	22.2
104850	7	Sololá	713	San Lucas Tolimán	10	San Lucas Tolimán	2	Febrero	2023-04-02T00:00:00	2024-11-08T12:00:00	4	Temperatura máxima	22.3
104851	7	Sololá	713	San Lucas Tolimán	10	San Lucas Tolimán	2	Febrero	2023-04-02T00:00:00	2024-11-08T12:00:00	3	Temperatura mínima	20.9
104852	7	Sololá	713	San Lucas Tolimán	10	San Lucas Tolimán	2	Febrero	2023-04-02T00:00:00	2024-11-08T12:00:00	5	Humedad	40
104853	7	Sololá	713	San Lucas Tolimán	10	San Lucas Tolimán	2	Febrero	2023-04-02T00:00:00	2024-11-08T12:00:00	6	Velocidad del viento	11.3
104854	7	Sololá	713	San Lucas Tolimán	10	San Lucas Tolimán	2	Febrero	2023-04-02T00:00:00	2024-11-08T12:00:00	7	Dirección del viento	11.27
104855	7	Sololá	713	San Lucas Tolimán	10	San Lucas Tolimán	2	Febrero	2023-04-02T00:00:00	2024-11-08T12:00:00	1	Precipitación	0
104856	7	Sololá	713	San Lucas Tolimán	10	San Lucas Tolimán	2	Febrero	2023-04-02T00:00:00	2024-11-08T12:00:00	8	Radiación solar	785
104857	7	Sololá	713	San Lucas Tolimán	10	San Lucas Tolimán	2	Febrero	2023-04-02T00:00:00	2024-11-08T13:00:00	2	Temperatura media	22.7
104858	7	Sololá	713	San Lucas Tolimán	10	San Lucas Tolimán	2	Febrero	2023-04-02T00:00:00	2024-11-08T13:00:00	4	Temperatura máxima	22.7
104859	7	Sololá	713	San Lucas Tolimán	10	San Lucas Tolimán	2	Febrero	2023-04-02T00:00:00	2024-11-08T13:00:00	3	Temperatura mínima	21.8
104860	7	Sololá	713	San Lucas Tolimán	10	San Lucas Tolimán	2	Febrero	2023-04-02T00:00:00	2024-11-08T13:00:00	5	Humedad	40
104861	7	Sololá	713	San Lucas Tolimán	10	San Lucas Tolimán	2	Febrero	2023-04-02T00:00:00	2024-11-08T13:00:00	6	Velocidad del viento	17.7
104862	7	Sololá	713	San Lucas Tolimán	10	San Lucas Tolimán	2	Febrero	2023-04-02T00:00:00	2024-11-08T13:00:00	7	Dirección del viento	17.7
104863	7	Sololá	713	San Lucas Tolimán	10	San Lucas Tolimán	2	Febrero	2023-04-02T00:00:00	2024-11-08T13:00:00	1	Precipitación	0
104864	7	Sololá	713	San Lucas Tolimán	10	San Lucas Tolimán	2	Febrero	2023-04-02T00:00:00	2024-11-08T13:00:00	8	Radiación solar	987
104865	7	Sololá	713	San Lucas Tolimán	10	San Lucas Tolimán	2	Febrero	2023-04-02T00:00:00	2024-11-08T14:00:00	2	Temperatura media	22.9
104866	7	Sololá	713	San Lucas Tolimán	10	San Lucas Tolimán	2	Febrero	2023-04-02T00:00:00	2024-11-08T14:00:00	4	Temperatura máxima	23.3
104867	7	Sololá	713	San Lucas Tolimán	10	San Lucas Tolimán	2	Febrero	2023-04-02T00:00:00	2024-11-08T14:00:00	3	Temperatura mínima	22.6
104868	7	Sololá	713	San Lucas Tolimán	10	San Lucas Tolimán	2	Febrero	2023-04-02T00:00:00	2024-11-08T14:00:00	5	Humedad	39
104869	7	Sololá	713	San Lucas Tolimán	10	San Lucas Tolimán	2	Febrero	2023-04-02T00:00:00	2024-11-08T14:00:00	6	Velocidad del viento	11.3
104870	7	Sololá	713	San Lucas Tolimán	10	San Lucas Tolimán	2	Febrero	2023-04-02T00:00:00	2024-11-08T14:00:00	7	Dirección del viento	11.27
104871	7	Sololá	713	San Lucas Tolimán	10	San Lucas Tolimán	2	Febrero	2023-04-02T00:00:00	2024-11-08T14:00:00	1	Precipitación	0
104872	7	Sololá	713	San Lucas Tolimán	10	San Lucas Tolimán	2	Febrero	2023-04-02T00:00:00	2024-11-08T14:00:00	8	Radiación solar	674
104873	7	Sololá	713	San Lucas Tolimán	10	San Lucas Tolimán	2	Febrero	2023-04-02T00:00:00	2024-11-08T15:00:00	2	Temperatura media	23.3
104874	7	Sololá	713	San Lucas Tolimán	10	San Lucas Tolimán	2	Febrero	2023-04-02T00:00:00	2024-11-08T15:00:00	4	Temperatura máxima	23.3
104875	7	Sololá	713	San Lucas Tolimán	10	San Lucas Tolimán	2	Febrero	2023-04-02T00:00:00	2024-11-08T15:00:00	3	Temperatura mínima	22.3
104876	7	Sololá	713	San Lucas Tolimán	10	San Lucas Tolimán	2	Febrero	2023-04-02T00:00:00	2024-11-08T15:00:00	5	Humedad	37
104877	7	Sololá	713	San Lucas Tolimán	10	San Lucas Tolimán	2	Febrero	2023-04-02T00:00:00	2024-11-08T15:00:00	6	Velocidad del viento	14.5
104878	7	Sololá	713	San Lucas Tolimán	10	San Lucas Tolimán	2	Febrero	2023-04-02T00:00:00	2024-11-08T15:00:00	7	Dirección del viento	14.48
104879	7	Sololá	713	San Lucas Tolimán	10	San Lucas Tolimán	2	Febrero	2023-04-02T00:00:00	2024-11-08T15:00:00	1	Precipitación	0
104880	7	Sololá	713	San Lucas Tolimán	10	San Lucas Tolimán	2	Febrero	2023-04-02T00:00:00	2024-11-08T15:00:00	8	Radiación solar	540
104881	7	Sololá	713	San Lucas Tolimán	10	San Lucas Tolimán	2	Febrero	2023-04-02T00:00:00	2024-11-08T16:00:00	2	Temperatura media	22.4
104882	7	Sololá	713	San Lucas Tolimán	10	San Lucas Tolimán	2	Febrero	2023-04-02T00:00:00	2024-11-08T16:00:00	4	Temperatura máxima	23.5
104883	7	Sololá	713	San Lucas Tolimán	10	San Lucas Tolimán	2	Febrero	2023-04-02T00:00:00	2024-11-08T16:00:00	3	Temperatura mínima	22.4
104884	7	Sololá	713	San Lucas Tolimán	10	San Lucas Tolimán	2	Febrero	2023-04-02T00:00:00	2024-11-08T16:00:00	5	Humedad	40
104885	7	Sololá	713	San Lucas Tolimán	10	San Lucas Tolimán	2	Febrero	2023-04-02T00:00:00	2024-11-08T16:00:00	6	Velocidad del viento	14.5
104886	7	Sololá	713	San Lucas Tolimán	10	San Lucas Tolimán	2	Febrero	2023-04-02T00:00:00	2024-11-08T16:00:00	7	Dirección del viento	14.48
104887	7	Sololá	713	San Lucas Tolimán	10	San Lucas Tolimán	2	Febrero	2023-04-02T00:00:00	2024-11-08T16:00:00	1	Precipitación	0
104888	7	Sololá	713	San Lucas Tolimán	10	San Lucas Tolimán	2	Febrero	2023-04-02T00:00:00	2024-11-08T16:00:00	8	Radiación solar	532
104889	7	Sololá	713	San Lucas Tolimán	10	San Lucas Tolimán	2	Febrero	2023-04-02T00:00:00	2024-11-08T17:00:00	2	Temperatura media	21.2
104890	7	Sololá	713	San Lucas Tolimán	10	San Lucas Tolimán	2	Febrero	2023-04-02T00:00:00	2024-11-08T17:00:00	4	Temperatura máxima	22.4
104891	7	Sololá	713	San Lucas Tolimán	10	San Lucas Tolimán	2	Febrero	2023-04-02T00:00:00	2024-11-08T17:00:00	3	Temperatura mínima	21.2
104892	7	Sololá	713	San Lucas Tolimán	10	San Lucas Tolimán	2	Febrero	2023-04-02T00:00:00	2024-11-08T17:00:00	5	Humedad	43
104893	7	Sololá	713	San Lucas Tolimán	10	San Lucas Tolimán	2	Febrero	2023-04-02T00:00:00	2024-11-08T17:00:00	6	Velocidad del viento	14.5
104894	7	Sololá	713	San Lucas Tolimán	10	San Lucas Tolimán	2	Febrero	2023-04-02T00:00:00	2024-11-08T17:00:00	7	Dirección del viento	14.48
104895	7	Sololá	713	San Lucas Tolimán	10	San Lucas Tolimán	2	Febrero	2023-04-02T00:00:00	2024-11-08T17:00:00	1	Precipitación	0
104896	7	Sololá	713	San Lucas Tolimán	10	San Lucas Tolimán	2	Febrero	2023-04-02T00:00:00	2024-11-08T17:00:00	8	Radiación solar	118
104897	7	Sololá	713	San Lucas Tolimán	10	San Lucas Tolimán	2	Febrero	2023-04-02T00:00:00	2024-11-08T18:00:00	2	Temperatura media	19.9
104898	7	Sololá	713	San Lucas Tolimán	10	San Lucas Tolimán	2	Febrero	2023-04-02T00:00:00	2024-11-08T18:00:00	4	Temperatura máxima	21.2
104899	7	Sololá	713	San Lucas Tolimán	10	San Lucas Tolimán	2	Febrero	2023-04-02T00:00:00	2024-11-08T18:00:00	3	Temperatura mínima	19.9
104900	7	Sololá	713	San Lucas Tolimán	10	San Lucas Tolimán	2	Febrero	2023-04-02T00:00:00	2024-11-08T18:00:00	5	Humedad	47
104901	7	Sololá	713	San Lucas Tolimán	10	San Lucas Tolimán	2	Febrero	2023-04-02T00:00:00	2024-11-08T18:00:00	6	Velocidad del viento	9.7
104902	7	Sololá	713	San Lucas Tolimán	10	San Lucas Tolimán	2	Febrero	2023-04-02T00:00:00	2024-11-08T18:00:00	7	Dirección del viento	9.66
104903	7	Sololá	713	San Lucas Tolimán	10	San Lucas Tolimán	2	Febrero	2023-04-02T00:00:00	2024-11-08T18:00:00	1	Precipitación	0
104904	7	Sololá	713	San Lucas Tolimán	10	San Lucas Tolimán	2	Febrero	2023-04-02T00:00:00	2024-11-08T18:00:00	8	Radiación solar	24
104905	7	Sololá	713	San Lucas Tolimán	10	San Lucas Tolimán	2	Febrero	2023-04-02T00:00:00	2024-11-08T19:00:00	2	Temperatura media	19.1
104906	7	Sololá	713	San Lucas Tolimán	10	San Lucas Tolimán	2	Febrero	2023-04-02T00:00:00	2024-11-08T19:00:00	4	Temperatura máxima	19.9
104907	7	Sololá	713	San Lucas Tolimán	10	San Lucas Tolimán	2	Febrero	2023-04-02T00:00:00	2024-11-08T19:00:00	3	Temperatura mínima	19
104908	7	Sololá	713	San Lucas Tolimán	10	San Lucas Tolimán	2	Febrero	2023-04-02T00:00:00	2024-11-08T19:00:00	5	Humedad	51
104909	7	Sololá	713	San Lucas Tolimán	10	San Lucas Tolimán	2	Febrero	2023-04-02T00:00:00	2024-11-08T19:00:00	6	Velocidad del viento	12.9
104910	7	Sololá	713	San Lucas Tolimán	10	San Lucas Tolimán	2	Febrero	2023-04-02T00:00:00	2024-11-08T19:00:00	7	Dirección del viento	12.87
104911	7	Sololá	713	San Lucas Tolimán	10	San Lucas Tolimán	2	Febrero	2023-04-02T00:00:00	2024-11-08T19:00:00	1	Precipitación	0
104912	7	Sololá	713	San Lucas Tolimán	10	San Lucas Tolimán	2	Febrero	2023-04-02T00:00:00	2024-11-08T19:00:00	8	Radiación solar	0
104913	7	Sololá	713	San Lucas Tolimán	10	San Lucas Tolimán	2	Febrero	2023-04-02T00:00:00	2024-11-08T20:00:00	2	Temperatura media	18.5
104914	7	Sololá	713	San Lucas Tolimán	10	San Lucas Tolimán	2	Febrero	2023-04-02T00:00:00	2024-11-08T20:00:00	4	Temperatura máxima	19
104915	7	Sololá	713	San Lucas Tolimán	10	San Lucas Tolimán	2	Febrero	2023-04-02T00:00:00	2024-11-08T20:00:00	3	Temperatura mínima	18.4
104916	7	Sololá	713	San Lucas Tolimán	10	San Lucas Tolimán	2	Febrero	2023-04-02T00:00:00	2024-11-08T20:00:00	5	Humedad	52
104917	7	Sololá	713	San Lucas Tolimán	10	San Lucas Tolimán	2	Febrero	2023-04-02T00:00:00	2024-11-08T20:00:00	6	Velocidad del viento	6.4
104918	7	Sololá	713	San Lucas Tolimán	10	San Lucas Tolimán	2	Febrero	2023-04-02T00:00:00	2024-11-08T20:00:00	7	Dirección del viento	6.44
104919	7	Sololá	713	San Lucas Tolimán	10	San Lucas Tolimán	2	Febrero	2023-04-02T00:00:00	2024-11-08T20:00:00	1	Precipitación	0
104920	7	Sololá	713	San Lucas Tolimán	10	San Lucas Tolimán	2	Febrero	2023-04-02T00:00:00	2024-11-08T20:00:00	8	Radiación solar	0
104921	7	Sololá	713	San Lucas Tolimán	10	San Lucas Tolimán	2	Febrero	2023-04-02T00:00:00	2024-11-08T21:00:00	2	Temperatura media	18.1
104922	7	Sololá	713	San Lucas Tolimán	10	San Lucas Tolimán	2	Febrero	2023-04-02T00:00:00	2024-11-08T21:00:00	4	Temperatura máxima	18.6
104923	7	Sololá	713	San Lucas Tolimán	10	San Lucas Tolimán	2	Febrero	2023-04-02T00:00:00	2024-11-08T21:00:00	3	Temperatura mínima	18.1
104924	7	Sololá	713	San Lucas Tolimán	10	San Lucas Tolimán	2	Febrero	2023-04-02T00:00:00	2024-11-08T21:00:00	5	Humedad	52
104925	7	Sololá	713	San Lucas Tolimán	10	San Lucas Tolimán	2	Febrero	2023-04-02T00:00:00	2024-11-08T21:00:00	6	Velocidad del viento	4.8
104926	7	Sololá	713	San Lucas Tolimán	10	San Lucas Tolimán	2	Febrero	2023-04-02T00:00:00	2024-11-08T21:00:00	7	Dirección del viento	4.83
104927	7	Sololá	713	San Lucas Tolimán	10	San Lucas Tolimán	2	Febrero	2023-04-02T00:00:00	2024-11-08T21:00:00	1	Precipitación	0
104928	7	Sololá	713	San Lucas Tolimán	10	San Lucas Tolimán	2	Febrero	2023-04-02T00:00:00	2024-11-08T21:00:00	8	Radiación solar	0
104929	7	Sololá	713	San Lucas Tolimán	10	San Lucas Tolimán	2	Febrero	2023-04-02T00:00:00	2024-11-08T22:00:00	2	Temperatura media	17.8
104930	7	Sololá	713	San Lucas Tolimán	10	San Lucas Tolimán	2	Febrero	2023-04-02T00:00:00	2024-11-08T22:00:00	4	Temperatura máxima	18.1
104931	7	Sololá	713	San Lucas Tolimán	10	San Lucas Tolimán	2	Febrero	2023-04-02T00:00:00	2024-11-08T22:00:00	3	Temperatura mínima	17.4
104932	7	Sololá	713	San Lucas Tolimán	10	San Lucas Tolimán	2	Febrero	2023-04-02T00:00:00	2024-11-08T22:00:00	5	Humedad	52
104933	7	Sololá	713	San Lucas Tolimán	10	San Lucas Tolimán	2	Febrero	2023-04-02T00:00:00	2024-11-08T22:00:00	6	Velocidad del viento	4.8
104934	7	Sololá	713	San Lucas Tolimán	10	San Lucas Tolimán	2	Febrero	2023-04-02T00:00:00	2024-11-08T22:00:00	7	Dirección del viento	4.83
104935	7	Sololá	713	San Lucas Tolimán	10	San Lucas Tolimán	2	Febrero	2023-04-02T00:00:00	2024-11-08T22:00:00	1	Precipitación	0
104936	7	Sololá	713	San Lucas Tolimán	10	San Lucas Tolimán	2	Febrero	2023-04-02T00:00:00	2024-11-08T22:00:00	8	Radiación solar	0
104937	7	Sololá	713	San Lucas Tolimán	10	San Lucas Tolimán	2	Febrero	2023-04-02T00:00:00	2024-11-08T23:00:00	2	Temperatura media	17.3
104938	7	Sololá	713	San Lucas Tolimán	10	San Lucas Tolimán	2	Febrero	2023-04-02T00:00:00	2024-11-08T23:00:00	4	Temperatura máxima	17.9
104939	7	Sololá	713	San Lucas Tolimán	10	San Lucas Tolimán	2	Febrero	2023-04-02T00:00:00	2024-11-08T23:00:00	3	Temperatura mínima	17.1
104940	7	Sololá	713	San Lucas Tolimán	10	San Lucas Tolimán	2	Febrero	2023-04-02T00:00:00	2024-11-08T23:00:00	5	Humedad	53
104941	7	Sololá	713	San Lucas Tolimán	10	San Lucas Tolimán	2	Febrero	2023-04-02T00:00:00	2024-11-08T23:00:00	6	Velocidad del viento	4.8
104942	7	Sololá	713	San Lucas Tolimán	10	San Lucas Tolimán	2	Febrero	2023-04-02T00:00:00	2024-11-08T23:00:00	7	Dirección del viento	4.83
104943	7	Sololá	713	San Lucas Tolimán	10	San Lucas Tolimán	2	Febrero	2023-04-02T00:00:00	2024-11-08T23:00:00	1	Precipitación	0
104944	7	Sololá	713	San Lucas Tolimán	10	San Lucas Tolimán	2	Febrero	2023-04-02T00:00:00	2024-11-08T23:00:00	8	Radiación solar	0
104945	7	Sololá	713	San Lucas Tolimán	10	San Lucas Tolimán	2	Febrero	2023-05-02T00:00:00	2024-11-08T00:00:00	2	Temperatura media	17.4
104946	7	Sololá	713	San Lucas Tolimán	10	San Lucas Tolimán	2	Febrero	2023-05-02T00:00:00	2024-11-08T00:00:00	4	Temperatura máxima	18.3
104947	7	Sololá	713	San Lucas Tolimán	10	San Lucas Tolimán	2	Febrero	2023-05-02T00:00:00	2024-11-08T00:00:00	3	Temperatura mínima	17.3
104948	7	Sololá	713	San Lucas Tolimán	10	San Lucas Tolimán	2	Febrero	2023-05-02T00:00:00	2024-11-08T00:00:00	5	Humedad	52
104949	7	Sololá	713	San Lucas Tolimán	10	San Lucas Tolimán	2	Febrero	2023-05-02T00:00:00	2024-11-08T00:00:00	6	Velocidad del viento	12.9
104950	7	Sololá	713	San Lucas Tolimán	10	San Lucas Tolimán	2	Febrero	2023-05-02T00:00:00	2024-11-08T00:00:00	7	Dirección del viento	12.87
104951	7	Sololá	713	San Lucas Tolimán	10	San Lucas Tolimán	2	Febrero	2023-05-02T00:00:00	2024-11-08T00:00:00	1	Precipitación	0
104952	7	Sololá	713	San Lucas Tolimán	10	San Lucas Tolimán	2	Febrero	2023-05-02T00:00:00	2024-11-08T00:00:00	8	Radiación solar	0
104953	7	Sololá	713	San Lucas Tolimán	10	San Lucas Tolimán	2	Febrero	2023-05-02T00:00:00	2024-11-08T01:00:00	2	Temperatura media	16.6
104954	7	Sololá	713	San Lucas Tolimán	10	San Lucas Tolimán	2	Febrero	2023-05-02T00:00:00	2024-11-08T01:00:00	4	Temperatura máxima	17.4
104955	7	Sololá	713	San Lucas Tolimán	10	San Lucas Tolimán	2	Febrero	2023-05-02T00:00:00	2024-11-08T01:00:00	3	Temperatura mínima	16.4
104956	7	Sololá	713	San Lucas Tolimán	10	San Lucas Tolimán	2	Febrero	2023-05-02T00:00:00	2024-11-08T01:00:00	5	Humedad	54
104957	7	Sololá	713	San Lucas Tolimán	10	San Lucas Tolimán	2	Febrero	2023-05-02T00:00:00	2024-11-08T01:00:00	6	Velocidad del viento	3.2
104958	7	Sololá	713	San Lucas Tolimán	10	San Lucas Tolimán	2	Febrero	2023-05-02T00:00:00	2024-11-08T01:00:00	7	Dirección del viento	3.22
104959	7	Sololá	713	San Lucas Tolimán	10	San Lucas Tolimán	2	Febrero	2023-05-02T00:00:00	2024-11-08T01:00:00	1	Precipitación	0
104960	7	Sololá	713	San Lucas Tolimán	10	San Lucas Tolimán	2	Febrero	2023-05-02T00:00:00	2024-11-08T01:00:00	8	Radiación solar	0
104961	7	Sololá	713	San Lucas Tolimán	10	San Lucas Tolimán	2	Febrero	2023-05-02T00:00:00	2024-11-08T02:00:00	2	Temperatura media	15.9
104962	7	Sololá	713	San Lucas Tolimán	10	San Lucas Tolimán	2	Febrero	2023-05-02T00:00:00	2024-11-08T02:00:00	4	Temperatura máxima	16.6
104963	7	Sololá	713	San Lucas Tolimán	10	San Lucas Tolimán	2	Febrero	2023-05-02T00:00:00	2024-11-08T02:00:00	3	Temperatura mínima	15.9
104964	7	Sololá	713	San Lucas Tolimán	10	San Lucas Tolimán	2	Febrero	2023-05-02T00:00:00	2024-11-08T02:00:00	5	Humedad	58
104965	7	Sololá	713	San Lucas Tolimán	10	San Lucas Tolimán	2	Febrero	2023-05-02T00:00:00	2024-11-08T02:00:00	6	Velocidad del viento	3.2
104966	7	Sololá	713	San Lucas Tolimán	10	San Lucas Tolimán	2	Febrero	2023-05-02T00:00:00	2024-11-08T02:00:00	7	Dirección del viento	3.22
104967	7	Sololá	713	San Lucas Tolimán	10	San Lucas Tolimán	2	Febrero	2023-05-02T00:00:00	2024-11-08T02:00:00	1	Precipitación	0
104968	7	Sololá	713	San Lucas Tolimán	10	San Lucas Tolimán	2	Febrero	2023-05-02T00:00:00	2024-11-08T02:00:00	8	Radiación solar	0
104969	7	Sololá	713	San Lucas Tolimán	10	San Lucas Tolimán	2	Febrero	2023-05-02T00:00:00	2024-11-08T03:00:00	2	Temperatura media	16.3
104970	7	Sololá	713	San Lucas Tolimán	10	San Lucas Tolimán	2	Febrero	2023-05-02T00:00:00	2024-11-08T03:00:00	4	Temperatura máxima	16.3
104971	7	Sololá	713	San Lucas Tolimán	10	San Lucas Tolimán	2	Febrero	2023-05-02T00:00:00	2024-11-08T03:00:00	3	Temperatura mínima	15.8
104972	7	Sololá	713	San Lucas Tolimán	10	San Lucas Tolimán	2	Febrero	2023-05-02T00:00:00	2024-11-08T03:00:00	5	Humedad	59
104973	7	Sololá	713	San Lucas Tolimán	10	San Lucas Tolimán	2	Febrero	2023-05-02T00:00:00	2024-11-08T03:00:00	6	Velocidad del viento	6.4
104974	7	Sololá	713	San Lucas Tolimán	10	San Lucas Tolimán	2	Febrero	2023-05-02T00:00:00	2024-11-08T03:00:00	7	Dirección del viento	6.44
104975	7	Sololá	713	San Lucas Tolimán	10	San Lucas Tolimán	2	Febrero	2023-05-02T00:00:00	2024-11-08T03:00:00	1	Precipitación	0
104976	7	Sololá	713	San Lucas Tolimán	10	San Lucas Tolimán	2	Febrero	2023-05-02T00:00:00	2024-11-08T03:00:00	8	Radiación solar	0
104977	7	Sololá	713	San Lucas Tolimán	10	San Lucas Tolimán	2	Febrero	2023-05-02T00:00:00	2024-11-08T04:00:00	2	Temperatura media	17.3
104978	7	Sololá	713	San Lucas Tolimán	10	San Lucas Tolimán	2	Febrero	2023-05-02T00:00:00	2024-11-08T04:00:00	4	Temperatura máxima	17.3
104979	7	Sololá	713	San Lucas Tolimán	10	San Lucas Tolimán	2	Febrero	2023-05-02T00:00:00	2024-11-08T04:00:00	3	Temperatura mínima	16.1
104980	7	Sololá	713	San Lucas Tolimán	10	San Lucas Tolimán	2	Febrero	2023-05-02T00:00:00	2024-11-08T04:00:00	5	Humedad	55
104981	7	Sololá	713	San Lucas Tolimán	10	San Lucas Tolimán	2	Febrero	2023-05-02T00:00:00	2024-11-08T04:00:00	6	Velocidad del viento	8
104982	7	Sololá	713	San Lucas Tolimán	10	San Lucas Tolimán	2	Febrero	2023-05-02T00:00:00	2024-11-08T04:00:00	7	Dirección del viento	8.05
104983	7	Sololá	713	San Lucas Tolimán	10	San Lucas Tolimán	2	Febrero	2023-05-02T00:00:00	2024-11-08T04:00:00	1	Precipitación	0
104984	7	Sololá	713	San Lucas Tolimán	10	San Lucas Tolimán	2	Febrero	2023-05-02T00:00:00	2024-11-08T04:00:00	8	Radiación solar	0
104985	7	Sololá	713	San Lucas Tolimán	10	San Lucas Tolimán	2	Febrero	2023-05-02T00:00:00	2024-11-08T05:00:00	2	Temperatura media	16.7
104986	7	Sololá	713	San Lucas Tolimán	10	San Lucas Tolimán	2	Febrero	2023-05-02T00:00:00	2024-11-08T05:00:00	4	Temperatura máxima	17.3
104987	7	Sololá	713	San Lucas Tolimán	10	San Lucas Tolimán	2	Febrero	2023-05-02T00:00:00	2024-11-08T05:00:00	3	Temperatura mínima	16.7
104988	7	Sololá	713	San Lucas Tolimán	10	San Lucas Tolimán	2	Febrero	2023-05-02T00:00:00	2024-11-08T05:00:00	5	Humedad	57
104989	7	Sololá	713	San Lucas Tolimán	10	San Lucas Tolimán	2	Febrero	2023-05-02T00:00:00	2024-11-08T05:00:00	6	Velocidad del viento	8
104990	7	Sololá	713	San Lucas Tolimán	10	San Lucas Tolimán	2	Febrero	2023-05-02T00:00:00	2024-11-08T05:00:00	7	Dirección del viento	8.05
104991	7	Sololá	713	San Lucas Tolimán	10	San Lucas Tolimán	2	Febrero	2023-05-02T00:00:00	2024-11-08T05:00:00	1	Precipitación	0
104992	7	Sololá	713	San Lucas Tolimán	10	San Lucas Tolimán	2	Febrero	2023-05-02T00:00:00	2024-11-08T05:00:00	8	Radiación solar	0
104993	7	Sololá	713	San Lucas Tolimán	10	San Lucas Tolimán	2	Febrero	2023-05-02T00:00:00	2024-11-08T06:00:00	2	Temperatura media	16.4
104994	7	Sololá	713	San Lucas Tolimán	10	San Lucas Tolimán	2	Febrero	2023-05-02T00:00:00	2024-11-08T06:00:00	4	Temperatura máxima	16.8
104995	7	Sololá	713	San Lucas Tolimán	10	San Lucas Tolimán	2	Febrero	2023-05-02T00:00:00	2024-11-08T06:00:00	3	Temperatura mínima	16.3
104996	7	Sololá	713	San Lucas Tolimán	10	San Lucas Tolimán	2	Febrero	2023-05-02T00:00:00	2024-11-08T06:00:00	5	Humedad	57
104997	7	Sololá	713	San Lucas Tolimán	10	San Lucas Tolimán	2	Febrero	2023-05-02T00:00:00	2024-11-08T06:00:00	6	Velocidad del viento	6.4
104998	7	Sololá	713	San Lucas Tolimán	10	San Lucas Tolimán	2	Febrero	2023-05-02T00:00:00	2024-11-08T06:00:00	7	Dirección del viento	6.44
104999	7	Sololá	713	San Lucas Tolimán	10	San Lucas Tolimán	2	Febrero	2023-05-02T00:00:00	2024-11-08T06:00:00	1	Precipitación	0
105000	7	Sololá	713	San Lucas Tolimán	10	San Lucas Tolimán	2	Febrero	2023-05-02T00:00:00	2024-11-08T06:00:00	8	Radiación solar	0
105001	7	Sololá	713	San Lucas Tolimán	10	San Lucas Tolimán	2	Febrero	2023-05-02T00:00:00	2024-11-08T07:00:00	2	Temperatura media	16.7
105002	7	Sololá	713	San Lucas Tolimán	10	San Lucas Tolimán	2	Febrero	2023-05-02T00:00:00	2024-11-08T07:00:00	4	Temperatura máxima	16.8
105003	7	Sololá	713	San Lucas Tolimán	10	San Lucas Tolimán	2	Febrero	2023-05-02T00:00:00	2024-11-08T07:00:00	3	Temperatura mínima	16.3
105004	7	Sololá	713	San Lucas Tolimán	10	San Lucas Tolimán	2	Febrero	2023-05-02T00:00:00	2024-11-08T07:00:00	5	Humedad	56
105005	7	Sololá	713	San Lucas Tolimán	10	San Lucas Tolimán	2	Febrero	2023-05-02T00:00:00	2024-11-08T07:00:00	6	Velocidad del viento	12.9
105006	7	Sololá	713	San Lucas Tolimán	10	San Lucas Tolimán	2	Febrero	2023-05-02T00:00:00	2024-11-08T07:00:00	7	Dirección del viento	12.87
105007	7	Sololá	713	San Lucas Tolimán	10	San Lucas Tolimán	2	Febrero	2023-05-02T00:00:00	2024-11-08T07:00:00	1	Precipitación	0
105008	7	Sololá	713	San Lucas Tolimán	10	San Lucas Tolimán	2	Febrero	2023-05-02T00:00:00	2024-11-08T07:00:00	8	Radiación solar	4
105009	7	Sololá	713	San Lucas Tolimán	10	San Lucas Tolimán	2	Febrero	2023-05-02T00:00:00	2024-11-08T08:00:00	2	Temperatura media	16.6
105010	7	Sololá	713	San Lucas Tolimán	10	San Lucas Tolimán	2	Febrero	2023-05-02T00:00:00	2024-11-08T08:00:00	4	Temperatura máxima	16.8
105011	7	Sololá	713	San Lucas Tolimán	10	San Lucas Tolimán	2	Febrero	2023-05-02T00:00:00	2024-11-08T08:00:00	3	Temperatura mínima	16.6
105012	7	Sololá	713	San Lucas Tolimán	10	San Lucas Tolimán	2	Febrero	2023-05-02T00:00:00	2024-11-08T08:00:00	5	Humedad	56
105013	7	Sololá	713	San Lucas Tolimán	10	San Lucas Tolimán	2	Febrero	2023-05-02T00:00:00	2024-11-08T08:00:00	6	Velocidad del viento	14.5
105014	7	Sololá	713	San Lucas Tolimán	10	San Lucas Tolimán	2	Febrero	2023-05-02T00:00:00	2024-11-08T08:00:00	7	Dirección del viento	14.48
105015	7	Sololá	713	San Lucas Tolimán	10	San Lucas Tolimán	2	Febrero	2023-05-02T00:00:00	2024-11-08T08:00:00	1	Precipitación	0
105016	7	Sololá	713	San Lucas Tolimán	10	San Lucas Tolimán	2	Febrero	2023-05-02T00:00:00	2024-11-08T08:00:00	8	Radiación solar	17
105017	7	Sololá	713	San Lucas Tolimán	10	San Lucas Tolimán	2	Febrero	2023-05-02T00:00:00	2024-11-08T09:00:00	2	Temperatura media	19.2
105018	7	Sololá	713	San Lucas Tolimán	10	San Lucas Tolimán	2	Febrero	2023-05-02T00:00:00	2024-11-08T09:00:00	4	Temperatura máxima	19.2
105019	7	Sololá	713	San Lucas Tolimán	10	San Lucas Tolimán	2	Febrero	2023-05-02T00:00:00	2024-11-08T09:00:00	3	Temperatura mínima	16.6
105020	7	Sololá	713	San Lucas Tolimán	10	San Lucas Tolimán	2	Febrero	2023-05-02T00:00:00	2024-11-08T09:00:00	5	Humedad	50
105021	7	Sololá	713	San Lucas Tolimán	10	San Lucas Tolimán	2	Febrero	2023-05-02T00:00:00	2024-11-08T09:00:00	6	Velocidad del viento	9.7
105022	7	Sololá	713	San Lucas Tolimán	10	San Lucas Tolimán	2	Febrero	2023-05-02T00:00:00	2024-11-08T09:00:00	7	Dirección del viento	9.66
105023	7	Sololá	713	San Lucas Tolimán	10	San Lucas Tolimán	2	Febrero	2023-05-02T00:00:00	2024-11-08T09:00:00	1	Precipitación	0
105024	7	Sololá	713	San Lucas Tolimán	10	San Lucas Tolimán	2	Febrero	2023-05-02T00:00:00	2024-11-08T09:00:00	8	Radiación solar	355
105025	7	Sololá	713	San Lucas Tolimán	10	San Lucas Tolimán	2	Febrero	2023-05-02T00:00:00	2024-11-08T10:00:00	2	Temperatura media	21.1
105026	7	Sololá	713	San Lucas Tolimán	10	San Lucas Tolimán	2	Febrero	2023-05-02T00:00:00	2024-11-08T10:00:00	4	Temperatura máxima	21.1
105027	7	Sololá	713	San Lucas Tolimán	10	San Lucas Tolimán	2	Febrero	2023-05-02T00:00:00	2024-11-08T10:00:00	3	Temperatura mínima	19.2
105028	7	Sololá	713	San Lucas Tolimán	10	San Lucas Tolimán	2	Febrero	2023-05-02T00:00:00	2024-11-08T10:00:00	5	Humedad	41
105029	7	Sololá	713	San Lucas Tolimán	10	San Lucas Tolimán	2	Febrero	2023-05-02T00:00:00	2024-11-08T10:00:00	6	Velocidad del viento	8
105030	7	Sololá	713	San Lucas Tolimán	10	San Lucas Tolimán	2	Febrero	2023-05-02T00:00:00	2024-11-08T10:00:00	7	Dirección del viento	8.05
105031	7	Sololá	713	San Lucas Tolimán	10	San Lucas Tolimán	2	Febrero	2023-05-02T00:00:00	2024-11-08T10:00:00	1	Precipitación	0
105032	7	Sololá	713	San Lucas Tolimán	10	San Lucas Tolimán	2	Febrero	2023-05-02T00:00:00	2024-11-08T10:00:00	8	Radiación solar	633
105033	7	Sololá	713	San Lucas Tolimán	10	San Lucas Tolimán	2	Febrero	2023-05-02T00:00:00	2024-11-08T11:00:00	2	Temperatura media	23
105034	7	Sololá	713	San Lucas Tolimán	10	San Lucas Tolimán	2	Febrero	2023-05-02T00:00:00	2024-11-08T11:00:00	4	Temperatura máxima	23.1
105035	7	Sololá	713	San Lucas Tolimán	10	San Lucas Tolimán	2	Febrero	2023-05-02T00:00:00	2024-11-08T11:00:00	3	Temperatura mínima	21.1
105036	7	Sololá	713	San Lucas Tolimán	10	San Lucas Tolimán	2	Febrero	2023-05-02T00:00:00	2024-11-08T11:00:00	5	Humedad	35
105037	7	Sololá	713	San Lucas Tolimán	10	San Lucas Tolimán	2	Febrero	2023-05-02T00:00:00	2024-11-08T11:00:00	6	Velocidad del viento	6.4
105038	7	Sololá	713	San Lucas Tolimán	10	San Lucas Tolimán	2	Febrero	2023-05-02T00:00:00	2024-11-08T11:00:00	7	Dirección del viento	6.44
105039	7	Sololá	713	San Lucas Tolimán	10	San Lucas Tolimán	2	Febrero	2023-05-02T00:00:00	2024-11-08T11:00:00	1	Precipitación	0
105040	7	Sololá	713	San Lucas Tolimán	10	San Lucas Tolimán	2	Febrero	2023-05-02T00:00:00	2024-11-08T11:00:00	8	Radiación solar	811
105041	7	Sololá	713	San Lucas Tolimán	10	San Lucas Tolimán	2	Febrero	2023-05-02T00:00:00	2024-11-08T12:00:00	2	Temperatura media	22.6
105042	7	Sololá	713	San Lucas Tolimán	10	San Lucas Tolimán	2	Febrero	2023-05-02T00:00:00	2024-11-08T12:00:00	4	Temperatura máxima	23.3
105043	7	Sololá	713	San Lucas Tolimán	10	San Lucas Tolimán	2	Febrero	2023-05-02T00:00:00	2024-11-08T12:00:00	3	Temperatura mínima	22.5
105044	7	Sololá	713	San Lucas Tolimán	10	San Lucas Tolimán	2	Febrero	2023-05-02T00:00:00	2024-11-08T12:00:00	5	Humedad	54
105045	7	Sololá	713	San Lucas Tolimán	10	San Lucas Tolimán	2	Febrero	2023-05-02T00:00:00	2024-11-08T12:00:00	6	Velocidad del viento	9.7
105046	7	Sololá	713	San Lucas Tolimán	10	San Lucas Tolimán	2	Febrero	2023-05-02T00:00:00	2024-11-08T12:00:00	7	Dirección del viento	9.66
105047	7	Sololá	713	San Lucas Tolimán	10	San Lucas Tolimán	2	Febrero	2023-05-02T00:00:00	2024-11-08T12:00:00	1	Precipitación	0
105048	7	Sololá	713	San Lucas Tolimán	10	San Lucas Tolimán	2	Febrero	2023-05-02T00:00:00	2024-11-08T12:00:00	8	Radiación solar	940
105049	7	Sololá	713	San Lucas Tolimán	10	San Lucas Tolimán	2	Febrero	2023-05-02T00:00:00	2024-11-08T13:00:00	2	Temperatura media	23.2
105050	7	Sololá	713	San Lucas Tolimán	10	San Lucas Tolimán	2	Febrero	2023-05-02T00:00:00	2024-11-08T13:00:00	4	Temperatura máxima	23.2
105051	7	Sololá	713	San Lucas Tolimán	10	San Lucas Tolimán	2	Febrero	2023-05-02T00:00:00	2024-11-08T13:00:00	3	Temperatura mínima	22.1
105052	7	Sololá	713	San Lucas Tolimán	10	San Lucas Tolimán	2	Febrero	2023-05-02T00:00:00	2024-11-08T13:00:00	5	Humedad	55
105053	7	Sololá	713	San Lucas Tolimán	10	San Lucas Tolimán	2	Febrero	2023-05-02T00:00:00	2024-11-08T13:00:00	6	Velocidad del viento	9.7
105054	7	Sololá	713	San Lucas Tolimán	10	San Lucas Tolimán	2	Febrero	2023-05-02T00:00:00	2024-11-08T13:00:00	7	Dirección del viento	9.66
105055	7	Sololá	713	San Lucas Tolimán	10	San Lucas Tolimán	2	Febrero	2023-05-02T00:00:00	2024-11-08T13:00:00	1	Precipitación	0
105056	7	Sololá	713	San Lucas Tolimán	10	San Lucas Tolimán	2	Febrero	2023-05-02T00:00:00	2024-11-08T13:00:00	8	Radiación solar	1014
105057	7	Sololá	713	San Lucas Tolimán	10	San Lucas Tolimán	2	Febrero	2023-05-02T00:00:00	2024-11-08T14:00:00	2	Temperatura media	22.9
105058	7	Sololá	713	San Lucas Tolimán	10	San Lucas Tolimán	2	Febrero	2023-05-02T00:00:00	2024-11-08T14:00:00	4	Temperatura máxima	23.2
105059	7	Sololá	713	San Lucas Tolimán	10	San Lucas Tolimán	2	Febrero	2023-05-02T00:00:00	2024-11-08T14:00:00	3	Temperatura mínima	22.2
105060	7	Sololá	713	San Lucas Tolimán	10	San Lucas Tolimán	2	Febrero	2023-05-02T00:00:00	2024-11-08T14:00:00	5	Humedad	51
105061	7	Sololá	713	San Lucas Tolimán	10	San Lucas Tolimán	2	Febrero	2023-05-02T00:00:00	2024-11-08T14:00:00	6	Velocidad del viento	11.3
105062	7	Sololá	713	San Lucas Tolimán	10	San Lucas Tolimán	2	Febrero	2023-05-02T00:00:00	2024-11-08T14:00:00	7	Dirección del viento	11.27
105063	7	Sololá	713	San Lucas Tolimán	10	San Lucas Tolimán	2	Febrero	2023-05-02T00:00:00	2024-11-08T14:00:00	1	Precipitación	0
105064	7	Sololá	713	San Lucas Tolimán	10	San Lucas Tolimán	2	Febrero	2023-05-02T00:00:00	2024-11-08T14:00:00	8	Radiación solar	899
105065	7	Sololá	713	San Lucas Tolimán	10	San Lucas Tolimán	2	Febrero	2023-05-02T00:00:00	2024-11-08T15:00:00	2	Temperatura media	23.2
105066	7	Sololá	713	San Lucas Tolimán	10	San Lucas Tolimán	2	Febrero	2023-05-02T00:00:00	2024-11-08T15:00:00	4	Temperatura máxima	23.4
105067	7	Sololá	713	San Lucas Tolimán	10	San Lucas Tolimán	2	Febrero	2023-05-02T00:00:00	2024-11-08T15:00:00	3	Temperatura mínima	22.8
105068	7	Sololá	713	San Lucas Tolimán	10	San Lucas Tolimán	2	Febrero	2023-05-02T00:00:00	2024-11-08T15:00:00	5	Humedad	54
105069	7	Sololá	713	San Lucas Tolimán	10	San Lucas Tolimán	2	Febrero	2023-05-02T00:00:00	2024-11-08T15:00:00	6	Velocidad del viento	12.9
105070	7	Sololá	713	San Lucas Tolimán	10	San Lucas Tolimán	2	Febrero	2023-05-02T00:00:00	2024-11-08T15:00:00	7	Dirección del viento	12.87
105071	7	Sololá	713	San Lucas Tolimán	10	San Lucas Tolimán	2	Febrero	2023-05-02T00:00:00	2024-11-08T15:00:00	1	Precipitación	0
105072	7	Sololá	713	San Lucas Tolimán	10	San Lucas Tolimán	2	Febrero	2023-05-02T00:00:00	2024-11-08T15:00:00	8	Radiación solar	796
105073	7	Sololá	713	San Lucas Tolimán	10	San Lucas Tolimán	2	Febrero	2023-05-02T00:00:00	2024-11-08T16:00:00	2	Temperatura media	23.2
105074	7	Sololá	713	San Lucas Tolimán	10	San Lucas Tolimán	2	Febrero	2023-05-02T00:00:00	2024-11-08T16:00:00	4	Temperatura máxima	23.5
105075	7	Sololá	713	San Lucas Tolimán	10	San Lucas Tolimán	2	Febrero	2023-05-02T00:00:00	2024-11-08T16:00:00	3	Temperatura mínima	23.1
105076	7	Sololá	713	San Lucas Tolimán	10	San Lucas Tolimán	2	Febrero	2023-05-02T00:00:00	2024-11-08T16:00:00	5	Humedad	52
105077	7	Sololá	713	San Lucas Tolimán	10	San Lucas Tolimán	2	Febrero	2023-05-02T00:00:00	2024-11-08T16:00:00	6	Velocidad del viento	9.7
105078	7	Sololá	713	San Lucas Tolimán	10	San Lucas Tolimán	2	Febrero	2023-05-02T00:00:00	2024-11-08T16:00:00	7	Dirección del viento	9.66
105079	7	Sololá	713	San Lucas Tolimán	10	San Lucas Tolimán	2	Febrero	2023-05-02T00:00:00	2024-11-08T16:00:00	1	Precipitación	0
105080	7	Sololá	713	San Lucas Tolimán	10	San Lucas Tolimán	2	Febrero	2023-05-02T00:00:00	2024-11-08T16:00:00	8	Radiación solar	582
105081	7	Sololá	713	San Lucas Tolimán	10	San Lucas Tolimán	2	Febrero	2023-05-02T00:00:00	2024-11-08T17:00:00	2	Temperatura media	21.1
105082	7	Sololá	713	San Lucas Tolimán	10	San Lucas Tolimán	2	Febrero	2023-05-02T00:00:00	2024-11-08T17:00:00	4	Temperatura máxima	23.4
105083	7	Sololá	713	San Lucas Tolimán	10	San Lucas Tolimán	2	Febrero	2023-05-02T00:00:00	2024-11-08T17:00:00	3	Temperatura mínima	21.1
105084	7	Sololá	713	San Lucas Tolimán	10	San Lucas Tolimán	2	Febrero	2023-05-02T00:00:00	2024-11-08T17:00:00	5	Humedad	59
105085	7	Sololá	713	San Lucas Tolimán	10	San Lucas Tolimán	2	Febrero	2023-05-02T00:00:00	2024-11-08T17:00:00	6	Velocidad del viento	8
105086	7	Sololá	713	San Lucas Tolimán	10	San Lucas Tolimán	2	Febrero	2023-05-02T00:00:00	2024-11-08T17:00:00	7	Dirección del viento	8.05
105087	7	Sololá	713	San Lucas Tolimán	10	San Lucas Tolimán	2	Febrero	2023-05-02T00:00:00	2024-11-08T17:00:00	1	Precipitación	0
105088	7	Sololá	713	San Lucas Tolimán	10	San Lucas Tolimán	2	Febrero	2023-05-02T00:00:00	2024-11-08T17:00:00	8	Radiación solar	239
105089	7	Sololá	713	San Lucas Tolimán	10	San Lucas Tolimán	2	Febrero	2023-05-02T00:00:00	2024-11-08T18:00:00	2	Temperatura media	19.8
105090	7	Sololá	713	San Lucas Tolimán	10	San Lucas Tolimán	2	Febrero	2023-05-02T00:00:00	2024-11-08T18:00:00	4	Temperatura máxima	21.1
105091	7	Sololá	713	San Lucas Tolimán	10	San Lucas Tolimán	2	Febrero	2023-05-02T00:00:00	2024-11-08T18:00:00	3	Temperatura mínima	19.7
105092	7	Sololá	713	San Lucas Tolimán	10	San Lucas Tolimán	2	Febrero	2023-05-02T00:00:00	2024-11-08T18:00:00	5	Humedad	49
105093	7	Sololá	713	San Lucas Tolimán	10	San Lucas Tolimán	2	Febrero	2023-05-02T00:00:00	2024-11-08T18:00:00	6	Velocidad del viento	4.8
105094	7	Sololá	713	San Lucas Tolimán	10	San Lucas Tolimán	2	Febrero	2023-05-02T00:00:00	2024-11-08T18:00:00	7	Dirección del viento	4.83
105095	7	Sololá	713	San Lucas Tolimán	10	San Lucas Tolimán	2	Febrero	2023-05-02T00:00:00	2024-11-08T18:00:00	1	Precipitación	0
105096	7	Sololá	713	San Lucas Tolimán	10	San Lucas Tolimán	2	Febrero	2023-05-02T00:00:00	2024-11-08T18:00:00	8	Radiación solar	23
105097	7	Sololá	713	San Lucas Tolimán	10	San Lucas Tolimán	2	Febrero	2023-05-02T00:00:00	2024-11-08T19:00:00	2	Temperatura media	18.6
105098	7	Sololá	713	San Lucas Tolimán	10	San Lucas Tolimán	2	Febrero	2023-05-02T00:00:00	2024-11-08T19:00:00	4	Temperatura máxima	20
105099	7	Sololá	713	San Lucas Tolimán	10	San Lucas Tolimán	2	Febrero	2023-05-02T00:00:00	2024-11-08T19:00:00	3	Temperatura mínima	18.6
105100	7	Sololá	713	San Lucas Tolimán	10	San Lucas Tolimán	2	Febrero	2023-05-02T00:00:00	2024-11-08T19:00:00	5	Humedad	50
105101	7	Sololá	713	San Lucas Tolimán	10	San Lucas Tolimán	2	Febrero	2023-05-02T00:00:00	2024-11-08T19:00:00	6	Velocidad del viento	9.7
105102	7	Sololá	713	San Lucas Tolimán	10	San Lucas Tolimán	2	Febrero	2023-05-02T00:00:00	2024-11-08T19:00:00	7	Dirección del viento	9.66
105103	7	Sololá	713	San Lucas Tolimán	10	San Lucas Tolimán	2	Febrero	2023-05-02T00:00:00	2024-11-08T19:00:00	1	Precipitación	0
105104	7	Sololá	713	San Lucas Tolimán	10	San Lucas Tolimán	2	Febrero	2023-05-02T00:00:00	2024-11-08T19:00:00	8	Radiación solar	0
105105	7	Sololá	713	San Lucas Tolimán	10	San Lucas Tolimán	2	Febrero	2023-05-02T00:00:00	2024-11-08T20:00:00	2	Temperatura media	17.9
105106	7	Sololá	713	San Lucas Tolimán	10	San Lucas Tolimán	2	Febrero	2023-05-02T00:00:00	2024-11-08T20:00:00	4	Temperatura máxima	18.7
105107	7	Sololá	713	San Lucas Tolimán	10	San Lucas Tolimán	2	Febrero	2023-05-02T00:00:00	2024-11-08T20:00:00	3	Temperatura mínima	17.8
105108	7	Sololá	713	San Lucas Tolimán	10	San Lucas Tolimán	2	Febrero	2023-05-02T00:00:00	2024-11-08T20:00:00	5	Humedad	51
105109	7	Sololá	713	San Lucas Tolimán	10	San Lucas Tolimán	2	Febrero	2023-05-02T00:00:00	2024-11-08T20:00:00	6	Velocidad del viento	22.5
105110	7	Sololá	713	San Lucas Tolimán	10	San Lucas Tolimán	2	Febrero	2023-05-02T00:00:00	2024-11-08T20:00:00	7	Dirección del viento	22.53
105111	7	Sololá	713	San Lucas Tolimán	10	San Lucas Tolimán	2	Febrero	2023-05-02T00:00:00	2024-11-08T20:00:00	1	Precipitación	0
105112	7	Sololá	713	San Lucas Tolimán	10	San Lucas Tolimán	2	Febrero	2023-05-02T00:00:00	2024-11-08T20:00:00	8	Radiación solar	0
105113	7	Sololá	713	San Lucas Tolimán	10	San Lucas Tolimán	2	Febrero	2023-05-02T00:00:00	2024-11-08T21:00:00	2	Temperatura media	17.6
105114	7	Sololá	713	San Lucas Tolimán	10	San Lucas Tolimán	2	Febrero	2023-05-02T00:00:00	2024-11-08T21:00:00	4	Temperatura máxima	18.1
105115	7	Sololá	713	San Lucas Tolimán	10	San Lucas Tolimán	2	Febrero	2023-05-02T00:00:00	2024-11-08T21:00:00	3	Temperatura mínima	17.6
105116	7	Sololá	713	San Lucas Tolimán	10	San Lucas Tolimán	2	Febrero	2023-05-02T00:00:00	2024-11-08T21:00:00	5	Humedad	50
105117	7	Sololá	713	San Lucas Tolimán	10	San Lucas Tolimán	2	Febrero	2023-05-02T00:00:00	2024-11-08T21:00:00	6	Velocidad del viento	20.9
105118	7	Sololá	713	San Lucas Tolimán	10	San Lucas Tolimán	2	Febrero	2023-05-02T00:00:00	2024-11-08T21:00:00	7	Dirección del viento	20.92
105119	7	Sololá	713	San Lucas Tolimán	10	San Lucas Tolimán	2	Febrero	2023-05-02T00:00:00	2024-11-08T21:00:00	1	Precipitación	0
105120	7	Sololá	713	San Lucas Tolimán	10	San Lucas Tolimán	2	Febrero	2023-05-02T00:00:00	2024-11-08T21:00:00	8	Radiación solar	0
105121	7	Sololá	713	San Lucas Tolimán	10	San Lucas Tolimán	2	Febrero	2023-05-02T00:00:00	2024-11-08T22:00:00	2	Temperatura media	17.2
105122	7	Sololá	713	San Lucas Tolimán	10	San Lucas Tolimán	2	Febrero	2023-05-02T00:00:00	2024-11-08T22:00:00	4	Temperatura máxima	17.6
105123	7	Sololá	713	San Lucas Tolimán	10	San Lucas Tolimán	2	Febrero	2023-05-02T00:00:00	2024-11-08T22:00:00	3	Temperatura mínima	17
105124	7	Sololá	713	San Lucas Tolimán	10	San Lucas Tolimán	2	Febrero	2023-05-02T00:00:00	2024-11-08T22:00:00	5	Humedad	49
105125	7	Sololá	713	San Lucas Tolimán	10	San Lucas Tolimán	2	Febrero	2023-05-02T00:00:00	2024-11-08T22:00:00	6	Velocidad del viento	9.7
105126	7	Sololá	713	San Lucas Tolimán	10	San Lucas Tolimán	2	Febrero	2023-05-02T00:00:00	2024-11-08T22:00:00	7	Dirección del viento	9.66
105127	7	Sololá	713	San Lucas Tolimán	10	San Lucas Tolimán	2	Febrero	2023-05-02T00:00:00	2024-11-08T22:00:00	1	Precipitación	0
105128	7	Sololá	713	San Lucas Tolimán	10	San Lucas Tolimán	2	Febrero	2023-05-02T00:00:00	2024-11-08T22:00:00	8	Radiación solar	0
105129	7	Sololá	713	San Lucas Tolimán	10	San Lucas Tolimán	2	Febrero	2023-05-02T00:00:00	2024-11-08T23:00:00	2	Temperatura media	15.9
105130	7	Sololá	713	San Lucas Tolimán	10	San Lucas Tolimán	2	Febrero	2023-05-02T00:00:00	2024-11-08T23:00:00	4	Temperatura máxima	17.2
105131	7	Sololá	713	San Lucas Tolimán	10	San Lucas Tolimán	2	Febrero	2023-05-02T00:00:00	2024-11-08T23:00:00	3	Temperatura mínima	15.9
105132	7	Sololá	713	San Lucas Tolimán	10	San Lucas Tolimán	2	Febrero	2023-05-02T00:00:00	2024-11-08T23:00:00	5	Humedad	53
105133	7	Sololá	713	San Lucas Tolimán	10	San Lucas Tolimán	2	Febrero	2023-05-02T00:00:00	2024-11-08T23:00:00	6	Velocidad del viento	9.7
105134	7	Sololá	713	San Lucas Tolimán	10	San Lucas Tolimán	2	Febrero	2023-05-02T00:00:00	2024-11-08T23:00:00	7	Dirección del viento	9.66
105135	7	Sololá	713	San Lucas Tolimán	10	San Lucas Tolimán	2	Febrero	2023-05-02T00:00:00	2024-11-08T23:00:00	1	Precipitación	0
105136	7	Sololá	713	San Lucas Tolimán	10	San Lucas Tolimán	2	Febrero	2023-05-02T00:00:00	2024-11-08T23:00:00	8	Radiación solar	0
105137	7	Sololá	713	San Lucas Tolimán	10	San Lucas Tolimán	2	Febrero	2023-06-02T00:00:00	2024-11-08T00:00:00	2	Temperatura media	15.8
105138	7	Sololá	713	San Lucas Tolimán	10	San Lucas Tolimán	2	Febrero	2023-06-02T00:00:00	2024-11-08T00:00:00	4	Temperatura máxima	16.1
105139	7	Sololá	713	San Lucas Tolimán	10	San Lucas Tolimán	2	Febrero	2023-06-02T00:00:00	2024-11-08T00:00:00	3	Temperatura mínima	15.7
105140	7	Sololá	713	San Lucas Tolimán	10	San Lucas Tolimán	2	Febrero	2023-06-02T00:00:00	2024-11-08T00:00:00	5	Humedad	54
105141	7	Sololá	713	San Lucas Tolimán	10	San Lucas Tolimán	2	Febrero	2023-06-02T00:00:00	2024-11-08T00:00:00	6	Velocidad del viento	6.4
105142	7	Sololá	713	San Lucas Tolimán	10	San Lucas Tolimán	2	Febrero	2023-06-02T00:00:00	2024-11-08T00:00:00	7	Dirección del viento	6.44
105143	7	Sololá	713	San Lucas Tolimán	10	San Lucas Tolimán	2	Febrero	2023-06-02T00:00:00	2024-11-08T00:00:00	1	Precipitación	0
105144	7	Sololá	713	San Lucas Tolimán	10	San Lucas Tolimán	2	Febrero	2023-06-02T00:00:00	2024-11-08T00:00:00	8	Radiación solar	0
105145	7	Sololá	713	San Lucas Tolimán	10	San Lucas Tolimán	2	Febrero	2023-06-02T00:00:00	2024-11-08T01:00:00	2	Temperatura media	15.8
105146	7	Sololá	713	San Lucas Tolimán	10	San Lucas Tolimán	2	Febrero	2023-06-02T00:00:00	2024-11-08T01:00:00	4	Temperatura máxima	16.1
105147	7	Sololá	713	San Lucas Tolimán	10	San Lucas Tolimán	2	Febrero	2023-06-02T00:00:00	2024-11-08T01:00:00	3	Temperatura mínima	15.7
105148	7	Sololá	713	San Lucas Tolimán	10	San Lucas Tolimán	2	Febrero	2023-06-02T00:00:00	2024-11-08T01:00:00	5	Humedad	53
105149	7	Sololá	713	San Lucas Tolimán	10	San Lucas Tolimán	2	Febrero	2023-06-02T00:00:00	2024-11-08T01:00:00	6	Velocidad del viento	4.8
105150	7	Sololá	713	San Lucas Tolimán	10	San Lucas Tolimán	2	Febrero	2023-06-02T00:00:00	2024-11-08T01:00:00	7	Dirección del viento	4.83
105151	7	Sololá	713	San Lucas Tolimán	10	San Lucas Tolimán	2	Febrero	2023-06-02T00:00:00	2024-11-08T01:00:00	1	Precipitación	0
105152	7	Sololá	713	San Lucas Tolimán	10	San Lucas Tolimán	2	Febrero	2023-06-02T00:00:00	2024-11-08T01:00:00	8	Radiación solar	0
105153	7	Sololá	713	San Lucas Tolimán	10	San Lucas Tolimán	2	Febrero	2023-06-02T00:00:00	2024-11-08T02:00:00	2	Temperatura media	16.1
105154	7	Sololá	713	San Lucas Tolimán	10	San Lucas Tolimán	2	Febrero	2023-06-02T00:00:00	2024-11-08T02:00:00	4	Temperatura máxima	16.7
105155	7	Sololá	713	San Lucas Tolimán	10	San Lucas Tolimán	2	Febrero	2023-06-02T00:00:00	2024-11-08T02:00:00	3	Temperatura mínima	15.7
105156	7	Sololá	713	San Lucas Tolimán	10	San Lucas Tolimán	2	Febrero	2023-06-02T00:00:00	2024-11-08T02:00:00	5	Humedad	50
105157	7	Sololá	713	San Lucas Tolimán	10	San Lucas Tolimán	2	Febrero	2023-06-02T00:00:00	2024-11-08T02:00:00	6	Velocidad del viento	9.7
105158	7	Sololá	713	San Lucas Tolimán	10	San Lucas Tolimán	2	Febrero	2023-06-02T00:00:00	2024-11-08T02:00:00	7	Dirección del viento	9.66
105159	7	Sololá	713	San Lucas Tolimán	10	San Lucas Tolimán	2	Febrero	2023-06-02T00:00:00	2024-11-08T02:00:00	1	Precipitación	0
105160	7	Sololá	713	San Lucas Tolimán	10	San Lucas Tolimán	2	Febrero	2023-06-02T00:00:00	2024-11-08T02:00:00	8	Radiación solar	0
105161	7	Sololá	713	San Lucas Tolimán	10	San Lucas Tolimán	2	Febrero	2023-06-02T00:00:00	2024-11-08T03:00:00	2	Temperatura media	16.6
105162	7	Sololá	713	San Lucas Tolimán	10	San Lucas Tolimán	2	Febrero	2023-06-02T00:00:00	2024-11-08T03:00:00	4	Temperatura máxima	16.7
105163	7	Sololá	713	San Lucas Tolimán	10	San Lucas Tolimán	2	Febrero	2023-06-02T00:00:00	2024-11-08T03:00:00	3	Temperatura mínima	15.8
105164	7	Sololá	713	San Lucas Tolimán	10	San Lucas Tolimán	2	Febrero	2023-06-02T00:00:00	2024-11-08T03:00:00	5	Humedad	46
105165	7	Sololá	713	San Lucas Tolimán	10	San Lucas Tolimán	2	Febrero	2023-06-02T00:00:00	2024-11-08T03:00:00	6	Velocidad del viento	14.5
105166	7	Sololá	713	San Lucas Tolimán	10	San Lucas Tolimán	2	Febrero	2023-06-02T00:00:00	2024-11-08T03:00:00	7	Dirección del viento	14.48
105167	7	Sololá	713	San Lucas Tolimán	10	San Lucas Tolimán	2	Febrero	2023-06-02T00:00:00	2024-11-08T03:00:00	1	Precipitación	0
105168	7	Sololá	713	San Lucas Tolimán	10	San Lucas Tolimán	2	Febrero	2023-06-02T00:00:00	2024-11-08T03:00:00	8	Radiación solar	0
105169	7	Sololá	713	San Lucas Tolimán	10	San Lucas Tolimán	2	Febrero	2023-06-02T00:00:00	2024-11-08T04:00:00	2	Temperatura media	14.9
105170	7	Sololá	713	San Lucas Tolimán	10	San Lucas Tolimán	2	Febrero	2023-06-02T00:00:00	2024-11-08T04:00:00	4	Temperatura máxima	16.6
105171	7	Sololá	713	San Lucas Tolimán	10	San Lucas Tolimán	2	Febrero	2023-06-02T00:00:00	2024-11-08T04:00:00	3	Temperatura mínima	14.9
105172	7	Sololá	713	San Lucas Tolimán	10	San Lucas Tolimán	2	Febrero	2023-06-02T00:00:00	2024-11-08T04:00:00	5	Humedad	53
105173	7	Sololá	713	San Lucas Tolimán	10	San Lucas Tolimán	2	Febrero	2023-06-02T00:00:00	2024-11-08T04:00:00	6	Velocidad del viento	8
105174	7	Sololá	713	San Lucas Tolimán	10	San Lucas Tolimán	2	Febrero	2023-06-02T00:00:00	2024-11-08T04:00:00	7	Dirección del viento	8.05
105175	7	Sololá	713	San Lucas Tolimán	10	San Lucas Tolimán	2	Febrero	2023-06-02T00:00:00	2024-11-08T04:00:00	1	Precipitación	0
105176	7	Sololá	713	San Lucas Tolimán	10	San Lucas Tolimán	2	Febrero	2023-06-02T00:00:00	2024-11-08T04:00:00	8	Radiación solar	0
105177	7	Sololá	713	San Lucas Tolimán	10	San Lucas Tolimán	2	Febrero	2023-06-02T00:00:00	2024-11-08T05:00:00	2	Temperatura media	14.6
105178	7	Sololá	713	San Lucas Tolimán	10	San Lucas Tolimán	2	Febrero	2023-06-02T00:00:00	2024-11-08T05:00:00	4	Temperatura máxima	15
105179	7	Sololá	713	San Lucas Tolimán	10	San Lucas Tolimán	2	Febrero	2023-06-02T00:00:00	2024-11-08T05:00:00	3	Temperatura mínima	14.3
105180	7	Sololá	713	San Lucas Tolimán	10	San Lucas Tolimán	2	Febrero	2023-06-02T00:00:00	2024-11-08T05:00:00	5	Humedad	51
105181	7	Sololá	713	San Lucas Tolimán	10	San Lucas Tolimán	2	Febrero	2023-06-02T00:00:00	2024-11-08T05:00:00	6	Velocidad del viento	3.2
105182	7	Sololá	713	San Lucas Tolimán	10	San Lucas Tolimán	2	Febrero	2023-06-02T00:00:00	2024-11-08T05:00:00	7	Dirección del viento	3.22
105183	7	Sololá	713	San Lucas Tolimán	10	San Lucas Tolimán	2	Febrero	2023-06-02T00:00:00	2024-11-08T05:00:00	1	Precipitación	0
105184	7	Sololá	713	San Lucas Tolimán	10	San Lucas Tolimán	2	Febrero	2023-06-02T00:00:00	2024-11-08T05:00:00	8	Radiación solar	0
105185	7	Sololá	713	San Lucas Tolimán	10	San Lucas Tolimán	2	Febrero	2023-06-02T00:00:00	2024-11-08T06:00:00	2	Temperatura media	14.8
105186	7	Sololá	713	San Lucas Tolimán	10	San Lucas Tolimán	2	Febrero	2023-06-02T00:00:00	2024-11-08T06:00:00	4	Temperatura máxima	14.9
105187	7	Sololá	713	San Lucas Tolimán	10	San Lucas Tolimán	2	Febrero	2023-06-02T00:00:00	2024-11-08T06:00:00	3	Temperatura mínima	14.2
105188	7	Sololá	713	San Lucas Tolimán	10	San Lucas Tolimán	2	Febrero	2023-06-02T00:00:00	2024-11-08T06:00:00	5	Humedad	49
105189	7	Sololá	713	San Lucas Tolimán	10	San Lucas Tolimán	2	Febrero	2023-06-02T00:00:00	2024-11-08T06:00:00	6	Velocidad del viento	6.4
105190	7	Sololá	713	San Lucas Tolimán	10	San Lucas Tolimán	2	Febrero	2023-06-02T00:00:00	2024-11-08T06:00:00	7	Dirección del viento	6.44
105191	7	Sololá	713	San Lucas Tolimán	10	San Lucas Tolimán	2	Febrero	2023-06-02T00:00:00	2024-11-08T06:00:00	1	Precipitación	0
105192	7	Sololá	713	San Lucas Tolimán	10	San Lucas Tolimán	2	Febrero	2023-06-02T00:00:00	2024-11-08T06:00:00	8	Radiación solar	0
105193	7	Sololá	713	San Lucas Tolimán	10	San Lucas Tolimán	2	Febrero	2023-06-02T00:00:00	2024-11-08T07:00:00	2	Temperatura media	15.7
105194	7	Sololá	713	San Lucas Tolimán	10	San Lucas Tolimán	2	Febrero	2023-06-02T00:00:00	2024-11-08T07:00:00	4	Temperatura máxima	15.7
105195	7	Sololá	713	San Lucas Tolimán	10	San Lucas Tolimán	2	Febrero	2023-06-02T00:00:00	2024-11-08T07:00:00	3	Temperatura mínima	14.8
105196	7	Sololá	713	San Lucas Tolimán	10	San Lucas Tolimán	2	Febrero	2023-06-02T00:00:00	2024-11-08T07:00:00	5	Humedad	41
105197	7	Sololá	713	San Lucas Tolimán	10	San Lucas Tolimán	2	Febrero	2023-06-02T00:00:00	2024-11-08T07:00:00	6	Velocidad del viento	8
105198	7	Sololá	713	San Lucas Tolimán	10	San Lucas Tolimán	2	Febrero	2023-06-02T00:00:00	2024-11-08T07:00:00	7	Dirección del viento	8.05
105199	7	Sololá	713	San Lucas Tolimán	10	San Lucas Tolimán	2	Febrero	2023-06-02T00:00:00	2024-11-08T07:00:00	1	Precipitación	0
105200	7	Sololá	713	San Lucas Tolimán	10	San Lucas Tolimán	2	Febrero	2023-06-02T00:00:00	2024-11-08T07:00:00	8	Radiación solar	4
105201	7	Sololá	713	San Lucas Tolimán	10	San Lucas Tolimán	2	Febrero	2023-06-02T00:00:00	2024-11-08T08:00:00	2	Temperatura media	16.7
105202	7	Sololá	713	San Lucas Tolimán	10	San Lucas Tolimán	2	Febrero	2023-06-02T00:00:00	2024-11-08T08:00:00	4	Temperatura máxima	16.7
105203	7	Sololá	713	San Lucas Tolimán	10	San Lucas Tolimán	2	Febrero	2023-06-02T00:00:00	2024-11-08T08:00:00	3	Temperatura mínima	15.8
105204	7	Sololá	713	San Lucas Tolimán	10	San Lucas Tolimán	2	Febrero	2023-06-02T00:00:00	2024-11-08T08:00:00	5	Humedad	46
105205	7	Sololá	713	San Lucas Tolimán	10	San Lucas Tolimán	2	Febrero	2023-06-02T00:00:00	2024-11-08T08:00:00	6	Velocidad del viento	19.3
105206	7	Sololá	713	San Lucas Tolimán	10	San Lucas Tolimán	2	Febrero	2023-06-02T00:00:00	2024-11-08T08:00:00	7	Dirección del viento	19.31
105207	7	Sololá	713	San Lucas Tolimán	10	San Lucas Tolimán	2	Febrero	2023-06-02T00:00:00	2024-11-08T08:00:00	1	Precipitación	0
105208	7	Sololá	713	San Lucas Tolimán	10	San Lucas Tolimán	2	Febrero	2023-06-02T00:00:00	2024-11-08T08:00:00	8	Radiación solar	19
105209	7	Sololá	713	San Lucas Tolimán	10	San Lucas Tolimán	2	Febrero	2023-06-02T00:00:00	2024-11-08T09:00:00	2	Temperatura media	18.7
105210	7	Sololá	713	San Lucas Tolimán	10	San Lucas Tolimán	2	Febrero	2023-06-02T00:00:00	2024-11-08T09:00:00	4	Temperatura máxima	19.1
105211	7	Sololá	713	San Lucas Tolimán	10	San Lucas Tolimán	2	Febrero	2023-06-02T00:00:00	2024-11-08T09:00:00	3	Temperatura mínima	16.6
105212	7	Sololá	713	San Lucas Tolimán	10	San Lucas Tolimán	2	Febrero	2023-06-02T00:00:00	2024-11-08T09:00:00	5	Humedad	43
105213	7	Sololá	713	San Lucas Tolimán	10	San Lucas Tolimán	2	Febrero	2023-06-02T00:00:00	2024-11-08T09:00:00	6	Velocidad del viento	11.3
105214	7	Sololá	713	San Lucas Tolimán	10	San Lucas Tolimán	2	Febrero	2023-06-02T00:00:00	2024-11-08T09:00:00	7	Dirección del viento	11.27
105215	7	Sololá	713	San Lucas Tolimán	10	San Lucas Tolimán	2	Febrero	2023-06-02T00:00:00	2024-11-08T09:00:00	1	Precipitación	0
105216	7	Sololá	713	San Lucas Tolimán	10	San Lucas Tolimán	2	Febrero	2023-06-02T00:00:00	2024-11-08T09:00:00	8	Radiación solar	377
105217	7	Sololá	713	San Lucas Tolimán	10	San Lucas Tolimán	2	Febrero	2023-06-02T00:00:00	2024-11-08T10:00:00	2	Temperatura media	20.8
105218	7	Sololá	713	San Lucas Tolimán	10	San Lucas Tolimán	2	Febrero	2023-06-02T00:00:00	2024-11-08T10:00:00	4	Temperatura máxima	20.8
105219	7	Sololá	713	San Lucas Tolimán	10	San Lucas Tolimán	2	Febrero	2023-06-02T00:00:00	2024-11-08T10:00:00	3	Temperatura mínima	18.7
105220	7	Sololá	713	San Lucas Tolimán	10	San Lucas Tolimán	2	Febrero	2023-06-02T00:00:00	2024-11-08T10:00:00	5	Humedad	38
105221	7	Sololá	713	San Lucas Tolimán	10	San Lucas Tolimán	2	Febrero	2023-06-02T00:00:00	2024-11-08T10:00:00	6	Velocidad del viento	11.3
105222	7	Sololá	713	San Lucas Tolimán	10	San Lucas Tolimán	2	Febrero	2023-06-02T00:00:00	2024-11-08T10:00:00	7	Dirección del viento	11.27
105223	7	Sololá	713	San Lucas Tolimán	10	San Lucas Tolimán	2	Febrero	2023-06-02T00:00:00	2024-11-08T10:00:00	1	Precipitación	0
105224	7	Sololá	713	San Lucas Tolimán	10	San Lucas Tolimán	2	Febrero	2023-06-02T00:00:00	2024-11-08T10:00:00	8	Radiación solar	631
105225	7	Sololá	713	San Lucas Tolimán	10	San Lucas Tolimán	2	Febrero	2023-06-02T00:00:00	2024-11-08T11:00:00	2	Temperatura media	21.8
105226	7	Sololá	713	San Lucas Tolimán	10	San Lucas Tolimán	2	Febrero	2023-06-02T00:00:00	2024-11-08T11:00:00	4	Temperatura máxima	21.9
105227	7	Sololá	713	San Lucas Tolimán	10	San Lucas Tolimán	2	Febrero	2023-06-02T00:00:00	2024-11-08T11:00:00	3	Temperatura mínima	20.8
105228	7	Sololá	713	San Lucas Tolimán	10	San Lucas Tolimán	2	Febrero	2023-06-02T00:00:00	2024-11-08T11:00:00	5	Humedad	33
105229	7	Sololá	713	San Lucas Tolimán	10	San Lucas Tolimán	2	Febrero	2023-06-02T00:00:00	2024-11-08T11:00:00	6	Velocidad del viento	14.5
105230	7	Sololá	713	San Lucas Tolimán	10	San Lucas Tolimán	2	Febrero	2023-06-02T00:00:00	2024-11-08T11:00:00	7	Dirección del viento	14.48
105231	7	Sololá	713	San Lucas Tolimán	10	San Lucas Tolimán	2	Febrero	2023-06-02T00:00:00	2024-11-08T11:00:00	1	Precipitación	0
105232	7	Sololá	713	San Lucas Tolimán	10	San Lucas Tolimán	2	Febrero	2023-06-02T00:00:00	2024-11-08T11:00:00	8	Radiación solar	804
105233	7	Sololá	713	San Lucas Tolimán	10	San Lucas Tolimán	2	Febrero	2023-06-02T00:00:00	2024-11-08T12:00:00	2	Temperatura media	23.2
105234	7	Sololá	713	San Lucas Tolimán	10	San Lucas Tolimán	2	Febrero	2023-06-02T00:00:00	2024-11-08T12:00:00	4	Temperatura máxima	23.2
105235	7	Sololá	713	San Lucas Tolimán	10	San Lucas Tolimán	2	Febrero	2023-06-02T00:00:00	2024-11-08T12:00:00	3	Temperatura mínima	21.8
105236	7	Sololá	713	San Lucas Tolimán	10	San Lucas Tolimán	2	Febrero	2023-06-02T00:00:00	2024-11-08T12:00:00	5	Humedad	34
105237	7	Sololá	713	San Lucas Tolimán	10	San Lucas Tolimán	2	Febrero	2023-06-02T00:00:00	2024-11-08T12:00:00	6	Velocidad del viento	12.9
105238	7	Sololá	713	San Lucas Tolimán	10	San Lucas Tolimán	2	Febrero	2023-06-02T00:00:00	2024-11-08T12:00:00	7	Dirección del viento	12.87
105239	7	Sololá	713	San Lucas Tolimán	10	San Lucas Tolimán	2	Febrero	2023-06-02T00:00:00	2024-11-08T12:00:00	1	Precipitación	0
105240	7	Sololá	713	San Lucas Tolimán	10	San Lucas Tolimán	2	Febrero	2023-06-02T00:00:00	2024-11-08T12:00:00	8	Radiación solar	916
105241	7	Sololá	713	San Lucas Tolimán	10	San Lucas Tolimán	2	Febrero	2023-06-02T00:00:00	2024-11-08T13:00:00	2	Temperatura media	24.1
105242	7	Sololá	713	San Lucas Tolimán	10	San Lucas Tolimán	2	Febrero	2023-06-02T00:00:00	2024-11-08T13:00:00	4	Temperatura máxima	24.1
105243	7	Sololá	713	San Lucas Tolimán	10	San Lucas Tolimán	2	Febrero	2023-06-02T00:00:00	2024-11-08T13:00:00	3	Temperatura mínima	22.9
105244	7	Sololá	713	San Lucas Tolimán	10	San Lucas Tolimán	2	Febrero	2023-06-02T00:00:00	2024-11-08T13:00:00	5	Humedad	43
105245	7	Sololá	713	San Lucas Tolimán	10	San Lucas Tolimán	2	Febrero	2023-06-02T00:00:00	2024-11-08T13:00:00	6	Velocidad del viento	8
105246	7	Sololá	713	San Lucas Tolimán	10	San Lucas Tolimán	2	Febrero	2023-06-02T00:00:00	2024-11-08T13:00:00	7	Dirección del viento	8.05
105247	7	Sololá	713	San Lucas Tolimán	10	San Lucas Tolimán	2	Febrero	2023-06-02T00:00:00	2024-11-08T13:00:00	1	Precipitación	0
105248	7	Sololá	713	San Lucas Tolimán	10	San Lucas Tolimán	2	Febrero	2023-06-02T00:00:00	2024-11-08T13:00:00	8	Radiación solar	974
105249	7	Sololá	713	San Lucas Tolimán	10	San Lucas Tolimán	2	Febrero	2023-06-02T00:00:00	2024-11-08T14:00:00	2	Temperatura media	24
105250	7	Sololá	713	San Lucas Tolimán	10	San Lucas Tolimán	2	Febrero	2023-06-02T00:00:00	2024-11-08T14:00:00	4	Temperatura máxima	24.6
105251	7	Sololá	713	San Lucas Tolimán	10	San Lucas Tolimán	2	Febrero	2023-06-02T00:00:00	2024-11-08T14:00:00	3	Temperatura mínima	23.6
105252	7	Sololá	713	San Lucas Tolimán	10	San Lucas Tolimán	2	Febrero	2023-06-02T00:00:00	2024-11-08T14:00:00	5	Humedad	48
105253	7	Sololá	713	San Lucas Tolimán	10	San Lucas Tolimán	2	Febrero	2023-06-02T00:00:00	2024-11-08T14:00:00	6	Velocidad del viento	8
105254	7	Sololá	713	San Lucas Tolimán	10	San Lucas Tolimán	2	Febrero	2023-06-02T00:00:00	2024-11-08T14:00:00	7	Dirección del viento	8.05
105255	7	Sololá	713	San Lucas Tolimán	10	San Lucas Tolimán	2	Febrero	2023-06-02T00:00:00	2024-11-08T14:00:00	1	Precipitación	0
105256	7	Sololá	713	San Lucas Tolimán	10	San Lucas Tolimán	2	Febrero	2023-06-02T00:00:00	2024-11-08T14:00:00	8	Radiación solar	918
105257	7	Sololá	713	San Lucas Tolimán	10	San Lucas Tolimán	2	Febrero	2023-06-02T00:00:00	2024-11-08T15:00:00	2	Temperatura media	23.3
105258	7	Sololá	713	San Lucas Tolimán	10	San Lucas Tolimán	2	Febrero	2023-06-02T00:00:00	2024-11-08T15:00:00	4	Temperatura máxima	24
105259	7	Sololá	713	San Lucas Tolimán	10	San Lucas Tolimán	2	Febrero	2023-06-02T00:00:00	2024-11-08T15:00:00	3	Temperatura mínima	22.9
105260	7	Sololá	713	San Lucas Tolimán	10	San Lucas Tolimán	2	Febrero	2023-06-02T00:00:00	2024-11-08T15:00:00	5	Humedad	50
105261	7	Sololá	713	San Lucas Tolimán	10	San Lucas Tolimán	2	Febrero	2023-06-02T00:00:00	2024-11-08T15:00:00	6	Velocidad del viento	9.7
105262	7	Sololá	713	San Lucas Tolimán	10	San Lucas Tolimán	2	Febrero	2023-06-02T00:00:00	2024-11-08T15:00:00	7	Dirección del viento	9.66
105263	7	Sololá	713	San Lucas Tolimán	10	San Lucas Tolimán	2	Febrero	2023-06-02T00:00:00	2024-11-08T15:00:00	1	Precipitación	0
105264	7	Sololá	713	San Lucas Tolimán	10	San Lucas Tolimán	2	Febrero	2023-06-02T00:00:00	2024-11-08T15:00:00	8	Radiación solar	767
105265	7	Sololá	713	San Lucas Tolimán	10	San Lucas Tolimán	2	Febrero	2023-06-02T00:00:00	2024-11-08T16:00:00	2	Temperatura media	22.6
105266	7	Sololá	713	San Lucas Tolimán	10	San Lucas Tolimán	2	Febrero	2023-06-02T00:00:00	2024-11-08T16:00:00	4	Temperatura máxima	23.4
105267	7	Sololá	713	San Lucas Tolimán	10	San Lucas Tolimán	2	Febrero	2023-06-02T00:00:00	2024-11-08T16:00:00	3	Temperatura mínima	22.5
105268	7	Sololá	713	San Lucas Tolimán	10	San Lucas Tolimán	2	Febrero	2023-06-02T00:00:00	2024-11-08T16:00:00	5	Humedad	52
105269	7	Sololá	713	San Lucas Tolimán	10	San Lucas Tolimán	2	Febrero	2023-06-02T00:00:00	2024-11-08T16:00:00	6	Velocidad del viento	11.3
105270	7	Sololá	713	San Lucas Tolimán	10	San Lucas Tolimán	2	Febrero	2023-06-02T00:00:00	2024-11-08T16:00:00	7	Dirección del viento	11.27
105271	7	Sololá	713	San Lucas Tolimán	10	San Lucas Tolimán	2	Febrero	2023-06-02T00:00:00	2024-11-08T16:00:00	1	Precipitación	0
105272	7	Sololá	713	San Lucas Tolimán	10	San Lucas Tolimán	2	Febrero	2023-06-02T00:00:00	2024-11-08T16:00:00	8	Radiación solar	601
105273	7	Sololá	713	San Lucas Tolimán	10	San Lucas Tolimán	2	Febrero	2023-06-02T00:00:00	2024-11-08T17:00:00	2	Temperatura media	20.9
105274	7	Sololá	713	San Lucas Tolimán	10	San Lucas Tolimán	2	Febrero	2023-06-02T00:00:00	2024-11-08T17:00:00	4	Temperatura máxima	22.6
105275	7	Sololá	713	San Lucas Tolimán	10	San Lucas Tolimán	2	Febrero	2023-06-02T00:00:00	2024-11-08T17:00:00	3	Temperatura mínima	20.9
105276	7	Sololá	713	San Lucas Tolimán	10	San Lucas Tolimán	2	Febrero	2023-06-02T00:00:00	2024-11-08T17:00:00	5	Humedad	57
105277	7	Sololá	713	San Lucas Tolimán	10	San Lucas Tolimán	2	Febrero	2023-06-02T00:00:00	2024-11-08T17:00:00	6	Velocidad del viento	9.7
105278	7	Sololá	713	San Lucas Tolimán	10	San Lucas Tolimán	2	Febrero	2023-06-02T00:00:00	2024-11-08T17:00:00	7	Dirección del viento	9.66
105279	7	Sololá	713	San Lucas Tolimán	10	San Lucas Tolimán	2	Febrero	2023-06-02T00:00:00	2024-11-08T17:00:00	1	Precipitación	0
105280	7	Sololá	713	San Lucas Tolimán	10	San Lucas Tolimán	2	Febrero	2023-06-02T00:00:00	2024-11-08T17:00:00	8	Radiación solar	228
105281	7	Sololá	713	San Lucas Tolimán	10	San Lucas Tolimán	2	Febrero	2023-06-02T00:00:00	2024-11-08T18:00:00	2	Temperatura media	19.1
105282	7	Sololá	713	San Lucas Tolimán	10	San Lucas Tolimán	2	Febrero	2023-06-02T00:00:00	2024-11-08T18:00:00	4	Temperatura máxima	20.9
105283	7	Sololá	713	San Lucas Tolimán	10	San Lucas Tolimán	2	Febrero	2023-06-02T00:00:00	2024-11-08T18:00:00	3	Temperatura mínima	19.1
105284	7	Sololá	713	San Lucas Tolimán	10	San Lucas Tolimán	2	Febrero	2023-06-02T00:00:00	2024-11-08T18:00:00	5	Humedad	58
105285	7	Sololá	713	San Lucas Tolimán	10	San Lucas Tolimán	2	Febrero	2023-06-02T00:00:00	2024-11-08T18:00:00	6	Velocidad del viento	6.4
105286	7	Sololá	713	San Lucas Tolimán	10	San Lucas Tolimán	2	Febrero	2023-06-02T00:00:00	2024-11-08T18:00:00	7	Dirección del viento	6.44
105287	7	Sololá	713	San Lucas Tolimán	10	San Lucas Tolimán	2	Febrero	2023-06-02T00:00:00	2024-11-08T18:00:00	1	Precipitación	0
105288	7	Sololá	713	San Lucas Tolimán	10	San Lucas Tolimán	2	Febrero	2023-06-02T00:00:00	2024-11-08T18:00:00	8	Radiación solar	33
105289	7	Sololá	713	San Lucas Tolimán	10	San Lucas Tolimán	2	Febrero	2023-06-02T00:00:00	2024-11-08T19:00:00	2	Temperatura media	18.1
105290	7	Sololá	713	San Lucas Tolimán	10	San Lucas Tolimán	2	Febrero	2023-06-02T00:00:00	2024-11-08T19:00:00	4	Temperatura máxima	19.2
105291	7	Sololá	713	San Lucas Tolimán	10	San Lucas Tolimán	2	Febrero	2023-06-02T00:00:00	2024-11-08T19:00:00	3	Temperatura mínima	18.1
105292	7	Sololá	713	San Lucas Tolimán	10	San Lucas Tolimán	2	Febrero	2023-06-02T00:00:00	2024-11-08T19:00:00	5	Humedad	51
105293	7	Sololá	713	San Lucas Tolimán	10	San Lucas Tolimán	2	Febrero	2023-06-02T00:00:00	2024-11-08T19:00:00	6	Velocidad del viento	14.5
105294	7	Sololá	713	San Lucas Tolimán	10	San Lucas Tolimán	2	Febrero	2023-06-02T00:00:00	2024-11-08T19:00:00	7	Dirección del viento	14.48
105295	7	Sololá	713	San Lucas Tolimán	10	San Lucas Tolimán	2	Febrero	2023-06-02T00:00:00	2024-11-08T19:00:00	1	Precipitación	0
105296	7	Sololá	713	San Lucas Tolimán	10	San Lucas Tolimán	2	Febrero	2023-06-02T00:00:00	2024-11-08T19:00:00	8	Radiación solar	0
105297	7	Sololá	713	San Lucas Tolimán	10	San Lucas Tolimán	2	Febrero	2023-06-02T00:00:00	2024-11-08T20:00:00	2	Temperatura media	17.5
105298	7	Sololá	713	San Lucas Tolimán	10	San Lucas Tolimán	2	Febrero	2023-06-02T00:00:00	2024-11-08T20:00:00	4	Temperatura máxima	18.1
105299	7	Sololá	713	San Lucas Tolimán	10	San Lucas Tolimán	2	Febrero	2023-06-02T00:00:00	2024-11-08T20:00:00	3	Temperatura mínima	17.4
105300	7	Sololá	713	San Lucas Tolimán	10	San Lucas Tolimán	2	Febrero	2023-06-02T00:00:00	2024-11-08T20:00:00	5	Humedad	51
105301	7	Sololá	713	San Lucas Tolimán	10	San Lucas Tolimán	2	Febrero	2023-06-02T00:00:00	2024-11-08T20:00:00	6	Velocidad del viento	17.7
105302	7	Sololá	713	San Lucas Tolimán	10	San Lucas Tolimán	2	Febrero	2023-06-02T00:00:00	2024-11-08T20:00:00	7	Dirección del viento	17.7
105303	7	Sololá	713	San Lucas Tolimán	10	San Lucas Tolimán	2	Febrero	2023-06-02T00:00:00	2024-11-08T20:00:00	1	Precipitación	0
105304	7	Sololá	713	San Lucas Tolimán	10	San Lucas Tolimán	2	Febrero	2023-06-02T00:00:00	2024-11-08T20:00:00	8	Radiación solar	0
105305	7	Sololá	713	San Lucas Tolimán	10	San Lucas Tolimán	2	Febrero	2023-06-02T00:00:00	2024-11-08T21:00:00	2	Temperatura media	17.3
105306	7	Sololá	713	San Lucas Tolimán	10	San Lucas Tolimán	2	Febrero	2023-06-02T00:00:00	2024-11-08T21:00:00	4	Temperatura máxima	17.6
105307	7	Sololá	713	San Lucas Tolimán	10	San Lucas Tolimán	2	Febrero	2023-06-02T00:00:00	2024-11-08T21:00:00	3	Temperatura mínima	17.3
105308	7	Sololá	713	San Lucas Tolimán	10	San Lucas Tolimán	2	Febrero	2023-06-02T00:00:00	2024-11-08T21:00:00	5	Humedad	48
105309	7	Sololá	713	San Lucas Tolimán	10	San Lucas Tolimán	2	Febrero	2023-06-02T00:00:00	2024-11-08T21:00:00	6	Velocidad del viento	17.7
105310	7	Sololá	713	San Lucas Tolimán	10	San Lucas Tolimán	2	Febrero	2023-06-02T00:00:00	2024-11-08T21:00:00	7	Dirección del viento	17.7
105311	7	Sololá	713	San Lucas Tolimán	10	San Lucas Tolimán	2	Febrero	2023-06-02T00:00:00	2024-11-08T21:00:00	1	Precipitación	0
105312	7	Sololá	713	San Lucas Tolimán	10	San Lucas Tolimán	2	Febrero	2023-06-02T00:00:00	2024-11-08T21:00:00	8	Radiación solar	0
105313	7	Sololá	713	San Lucas Tolimán	10	San Lucas Tolimán	2	Febrero	2023-06-02T00:00:00	2024-11-08T22:00:00	2	Temperatura media	16.8
105314	7	Sololá	713	San Lucas Tolimán	10	San Lucas Tolimán	2	Febrero	2023-06-02T00:00:00	2024-11-08T22:00:00	4	Temperatura máxima	17.3
105315	7	Sololá	713	San Lucas Tolimán	10	San Lucas Tolimán	2	Febrero	2023-06-02T00:00:00	2024-11-08T22:00:00	3	Temperatura mínima	16.8
105316	7	Sololá	713	San Lucas Tolimán	10	San Lucas Tolimán	2	Febrero	2023-06-02T00:00:00	2024-11-08T22:00:00	5	Humedad	48
105317	7	Sololá	713	San Lucas Tolimán	10	San Lucas Tolimán	2	Febrero	2023-06-02T00:00:00	2024-11-08T22:00:00	6	Velocidad del viento	19.3
105318	7	Sololá	713	San Lucas Tolimán	10	San Lucas Tolimán	2	Febrero	2023-06-02T00:00:00	2024-11-08T22:00:00	7	Dirección del viento	19.31
105319	7	Sololá	713	San Lucas Tolimán	10	San Lucas Tolimán	2	Febrero	2023-06-02T00:00:00	2024-11-08T22:00:00	1	Precipitación	0
105320	7	Sololá	713	San Lucas Tolimán	10	San Lucas Tolimán	2	Febrero	2023-06-02T00:00:00	2024-11-08T22:00:00	8	Radiación solar	0
105321	7	Sololá	713	San Lucas Tolimán	10	San Lucas Tolimán	2	Febrero	2023-06-02T00:00:00	2024-11-08T23:00:00	2	Temperatura media	16.7
105322	7	Sololá	713	San Lucas Tolimán	10	San Lucas Tolimán	2	Febrero	2023-06-02T00:00:00	2024-11-08T23:00:00	4	Temperatura máxima	16.9
105323	7	Sololá	713	San Lucas Tolimán	10	San Lucas Tolimán	2	Febrero	2023-06-02T00:00:00	2024-11-08T23:00:00	3	Temperatura mínima	16.6
105324	7	Sololá	713	San Lucas Tolimán	10	San Lucas Tolimán	2	Febrero	2023-06-02T00:00:00	2024-11-08T23:00:00	5	Humedad	47
105325	7	Sololá	713	San Lucas Tolimán	10	San Lucas Tolimán	2	Febrero	2023-06-02T00:00:00	2024-11-08T23:00:00	6	Velocidad del viento	14.5
105326	7	Sololá	713	San Lucas Tolimán	10	San Lucas Tolimán	2	Febrero	2023-06-02T00:00:00	2024-11-08T23:00:00	7	Dirección del viento	14.48
105327	7	Sololá	713	San Lucas Tolimán	10	San Lucas Tolimán	2	Febrero	2023-06-02T00:00:00	2024-11-08T23:00:00	1	Precipitación	0
105328	7	Sololá	713	San Lucas Tolimán	10	San Lucas Tolimán	2	Febrero	2023-06-02T00:00:00	2024-11-08T23:00:00	8	Radiación solar	0
105329	7	Sololá	713	San Lucas Tolimán	10	San Lucas Tolimán	2	Febrero	2023-07-02T00:00:00	2024-11-08T00:00:00	2	Temperatura media	16.3
105330	7	Sololá	713	San Lucas Tolimán	10	San Lucas Tolimán	2	Febrero	2023-07-02T00:00:00	2024-11-08T00:00:00	4	Temperatura máxima	16.7
105331	7	Sololá	713	San Lucas Tolimán	10	San Lucas Tolimán	2	Febrero	2023-07-02T00:00:00	2024-11-08T00:00:00	3	Temperatura mínima	16.3
105332	7	Sololá	713	San Lucas Tolimán	10	San Lucas Tolimán	2	Febrero	2023-07-02T00:00:00	2024-11-08T00:00:00	5	Humedad	48
105333	7	Sololá	713	San Lucas Tolimán	10	San Lucas Tolimán	2	Febrero	2023-07-02T00:00:00	2024-11-08T00:00:00	6	Velocidad del viento	12.9
105334	7	Sololá	713	San Lucas Tolimán	10	San Lucas Tolimán	2	Febrero	2023-07-02T00:00:00	2024-11-08T00:00:00	7	Dirección del viento	12.87
105335	7	Sololá	713	San Lucas Tolimán	10	San Lucas Tolimán	2	Febrero	2023-07-02T00:00:00	2024-11-08T00:00:00	1	Precipitación	0
105336	7	Sololá	713	San Lucas Tolimán	10	San Lucas Tolimán	2	Febrero	2023-07-02T00:00:00	2024-11-08T00:00:00	8	Radiación solar	0
105337	7	Sololá	713	San Lucas Tolimán	10	San Lucas Tolimán	2	Febrero	2023-07-02T00:00:00	2024-11-08T01:00:00	2	Temperatura media	15.6
105338	7	Sololá	713	San Lucas Tolimán	10	San Lucas Tolimán	2	Febrero	2023-07-02T00:00:00	2024-11-08T01:00:00	4	Temperatura máxima	16.3
105339	7	Sololá	713	San Lucas Tolimán	10	San Lucas Tolimán	2	Febrero	2023-07-02T00:00:00	2024-11-08T01:00:00	3	Temperatura mínima	15.3
105340	7	Sololá	713	San Lucas Tolimán	10	San Lucas Tolimán	2	Febrero	2023-07-02T00:00:00	2024-11-08T01:00:00	5	Humedad	51
105341	7	Sololá	713	San Lucas Tolimán	10	San Lucas Tolimán	2	Febrero	2023-07-02T00:00:00	2024-11-08T01:00:00	6	Velocidad del viento	6.4
105342	7	Sololá	713	San Lucas Tolimán	10	San Lucas Tolimán	2	Febrero	2023-07-02T00:00:00	2024-11-08T01:00:00	7	Dirección del viento	6.44
105343	7	Sololá	713	San Lucas Tolimán	10	San Lucas Tolimán	2	Febrero	2023-07-02T00:00:00	2024-11-08T01:00:00	1	Precipitación	0
105344	7	Sololá	713	San Lucas Tolimán	10	San Lucas Tolimán	2	Febrero	2023-07-02T00:00:00	2024-11-08T01:00:00	8	Radiación solar	0
105345	7	Sololá	713	San Lucas Tolimán	10	San Lucas Tolimán	2	Febrero	2023-07-02T00:00:00	2024-11-08T02:00:00	2	Temperatura media	14.6
105346	7	Sololá	713	San Lucas Tolimán	10	San Lucas Tolimán	2	Febrero	2023-07-02T00:00:00	2024-11-08T02:00:00	4	Temperatura máxima	15.6
105347	7	Sololá	713	San Lucas Tolimán	10	San Lucas Tolimán	2	Febrero	2023-07-02T00:00:00	2024-11-08T02:00:00	3	Temperatura mínima	14.6
105348	7	Sololá	713	San Lucas Tolimán	10	San Lucas Tolimán	2	Febrero	2023-07-02T00:00:00	2024-11-08T02:00:00	5	Humedad	54
105349	7	Sololá	713	San Lucas Tolimán	10	San Lucas Tolimán	2	Febrero	2023-07-02T00:00:00	2024-11-08T02:00:00	6	Velocidad del viento	4.8
105350	7	Sololá	713	San Lucas Tolimán	10	San Lucas Tolimán	2	Febrero	2023-07-02T00:00:00	2024-11-08T02:00:00	7	Dirección del viento	4.83
105351	7	Sololá	713	San Lucas Tolimán	10	San Lucas Tolimán	2	Febrero	2023-07-02T00:00:00	2024-11-08T02:00:00	1	Precipitación	0
105352	7	Sololá	713	San Lucas Tolimán	10	San Lucas Tolimán	2	Febrero	2023-07-02T00:00:00	2024-11-08T02:00:00	8	Radiación solar	0
105353	7	Sololá	713	San Lucas Tolimán	10	San Lucas Tolimán	2	Febrero	2023-07-02T00:00:00	2024-11-08T03:00:00	2	Temperatura media	14.3
105354	7	Sololá	713	San Lucas Tolimán	10	San Lucas Tolimán	2	Febrero	2023-07-02T00:00:00	2024-11-08T03:00:00	4	Temperatura máxima	14.7
105355	7	Sololá	713	San Lucas Tolimán	10	San Lucas Tolimán	2	Febrero	2023-07-02T00:00:00	2024-11-08T03:00:00	3	Temperatura mínima	14.2
105356	7	Sololá	713	San Lucas Tolimán	10	San Lucas Tolimán	2	Febrero	2023-07-02T00:00:00	2024-11-08T03:00:00	5	Humedad	54
105357	7	Sololá	713	San Lucas Tolimán	10	San Lucas Tolimán	2	Febrero	2023-07-02T00:00:00	2024-11-08T03:00:00	6	Velocidad del viento	3.2
105358	7	Sololá	713	San Lucas Tolimán	10	San Lucas Tolimán	2	Febrero	2023-07-02T00:00:00	2024-11-08T03:00:00	7	Dirección del viento	3.22
105359	7	Sololá	713	San Lucas Tolimán	10	San Lucas Tolimán	2	Febrero	2023-07-02T00:00:00	2024-11-08T03:00:00	1	Precipitación	0
105360	7	Sololá	713	San Lucas Tolimán	10	San Lucas Tolimán	2	Febrero	2023-07-02T00:00:00	2024-11-08T03:00:00	8	Radiación solar	0
105361	7	Sololá	713	San Lucas Tolimán	10	San Lucas Tolimán	2	Febrero	2023-07-02T00:00:00	2024-11-08T04:00:00	2	Temperatura media	14
105362	7	Sololá	713	San Lucas Tolimán	10	San Lucas Tolimán	2	Febrero	2023-07-02T00:00:00	2024-11-08T04:00:00	4	Temperatura máxima	14.4
105363	7	Sololá	713	San Lucas Tolimán	10	San Lucas Tolimán	2	Febrero	2023-07-02T00:00:00	2024-11-08T04:00:00	3	Temperatura mínima	14
105364	7	Sololá	713	San Lucas Tolimán	10	San Lucas Tolimán	2	Febrero	2023-07-02T00:00:00	2024-11-08T04:00:00	5	Humedad	55
105365	7	Sololá	713	San Lucas Tolimán	10	San Lucas Tolimán	2	Febrero	2023-07-02T00:00:00	2024-11-08T04:00:00	6	Velocidad del viento	4.8
105366	7	Sololá	713	San Lucas Tolimán	10	San Lucas Tolimán	2	Febrero	2023-07-02T00:00:00	2024-11-08T04:00:00	7	Dirección del viento	4.83
105367	7	Sololá	713	San Lucas Tolimán	10	San Lucas Tolimán	2	Febrero	2023-07-02T00:00:00	2024-11-08T04:00:00	1	Precipitación	0
105368	7	Sololá	713	San Lucas Tolimán	10	San Lucas Tolimán	2	Febrero	2023-07-02T00:00:00	2024-11-08T04:00:00	8	Radiación solar	0
105369	7	Sololá	713	San Lucas Tolimán	10	San Lucas Tolimán	2	Febrero	2023-07-02T00:00:00	2024-11-08T05:00:00	2	Temperatura media	13.4
105370	7	Sololá	713	San Lucas Tolimán	10	San Lucas Tolimán	2	Febrero	2023-07-02T00:00:00	2024-11-08T05:00:00	4	Temperatura máxima	14.2
105371	7	Sololá	713	San Lucas Tolimán	10	San Lucas Tolimán	2	Febrero	2023-07-02T00:00:00	2024-11-08T05:00:00	3	Temperatura mínima	13.4
105372	7	Sololá	713	San Lucas Tolimán	10	San Lucas Tolimán	2	Febrero	2023-07-02T00:00:00	2024-11-08T05:00:00	5	Humedad	55
105373	7	Sololá	713	San Lucas Tolimán	10	San Lucas Tolimán	2	Febrero	2023-07-02T00:00:00	2024-11-08T05:00:00	6	Velocidad del viento	3.2
105374	7	Sololá	713	San Lucas Tolimán	10	San Lucas Tolimán	2	Febrero	2023-07-02T00:00:00	2024-11-08T05:00:00	7	Dirección del viento	3.22
105375	7	Sololá	713	San Lucas Tolimán	10	San Lucas Tolimán	2	Febrero	2023-07-02T00:00:00	2024-11-08T05:00:00	1	Precipitación	0
105376	7	Sololá	713	San Lucas Tolimán	10	San Lucas Tolimán	2	Febrero	2023-07-02T00:00:00	2024-11-08T05:00:00	8	Radiación solar	0
105377	7	Sololá	713	San Lucas Tolimán	10	San Lucas Tolimán	2	Febrero	2023-07-02T00:00:00	2024-11-08T06:00:00	2	Temperatura media	13.4
105378	7	Sololá	713	San Lucas Tolimán	10	San Lucas Tolimán	2	Febrero	2023-07-02T00:00:00	2024-11-08T06:00:00	4	Temperatura máxima	13.4
105379	7	Sololá	713	San Lucas Tolimán	10	San Lucas Tolimán	2	Febrero	2023-07-02T00:00:00	2024-11-08T06:00:00	3	Temperatura mínima	13.2
105380	7	Sololá	713	San Lucas Tolimán	10	San Lucas Tolimán	2	Febrero	2023-07-02T00:00:00	2024-11-08T06:00:00	5	Humedad	55
105381	7	Sololá	713	San Lucas Tolimán	10	San Lucas Tolimán	2	Febrero	2023-07-02T00:00:00	2024-11-08T06:00:00	6	Velocidad del viento	4.8
105382	7	Sololá	713	San Lucas Tolimán	10	San Lucas Tolimán	2	Febrero	2023-07-02T00:00:00	2024-11-08T06:00:00	7	Dirección del viento	4.83
105383	7	Sololá	713	San Lucas Tolimán	10	San Lucas Tolimán	2	Febrero	2023-07-02T00:00:00	2024-11-08T06:00:00	1	Precipitación	0
105384	7	Sololá	713	San Lucas Tolimán	10	San Lucas Tolimán	2	Febrero	2023-07-02T00:00:00	2024-11-08T06:00:00	8	Radiación solar	0
105385	7	Sololá	713	San Lucas Tolimán	10	San Lucas Tolimán	2	Febrero	2023-07-02T00:00:00	2024-11-08T07:00:00	2	Temperatura media	14.1
105386	7	Sololá	713	San Lucas Tolimán	10	San Lucas Tolimán	2	Febrero	2023-07-02T00:00:00	2024-11-08T07:00:00	4	Temperatura máxima	14.1
105387	7	Sololá	713	San Lucas Tolimán	10	San Lucas Tolimán	2	Febrero	2023-07-02T00:00:00	2024-11-08T07:00:00	3	Temperatura mínima	13.3
105388	7	Sololá	713	San Lucas Tolimán	10	San Lucas Tolimán	2	Febrero	2023-07-02T00:00:00	2024-11-08T07:00:00	5	Humedad	53
105389	7	Sololá	713	San Lucas Tolimán	10	San Lucas Tolimán	2	Febrero	2023-07-02T00:00:00	2024-11-08T07:00:00	6	Velocidad del viento	3.2
105390	7	Sololá	713	San Lucas Tolimán	10	San Lucas Tolimán	2	Febrero	2023-07-02T00:00:00	2024-11-08T07:00:00	7	Dirección del viento	3.22
105391	7	Sololá	713	San Lucas Tolimán	10	San Lucas Tolimán	2	Febrero	2023-07-02T00:00:00	2024-11-08T07:00:00	1	Precipitación	0
105392	7	Sololá	713	San Lucas Tolimán	10	San Lucas Tolimán	2	Febrero	2023-07-02T00:00:00	2024-11-08T07:00:00	8	Radiación solar	4
105393	7	Sololá	713	San Lucas Tolimán	10	San Lucas Tolimán	2	Febrero	2023-07-02T00:00:00	2024-11-08T08:00:00	2	Temperatura media	16.3
105394	7	Sololá	713	San Lucas Tolimán	10	San Lucas Tolimán	2	Febrero	2023-07-02T00:00:00	2024-11-08T08:00:00	4	Temperatura máxima	16.3
105395	7	Sololá	713	San Lucas Tolimán	10	San Lucas Tolimán	2	Febrero	2023-07-02T00:00:00	2024-11-08T08:00:00	3	Temperatura mínima	14.1
105396	7	Sololá	713	San Lucas Tolimán	10	San Lucas Tolimán	2	Febrero	2023-07-02T00:00:00	2024-11-08T08:00:00	5	Humedad	49
105397	7	Sololá	713	San Lucas Tolimán	10	San Lucas Tolimán	2	Febrero	2023-07-02T00:00:00	2024-11-08T08:00:00	6	Velocidad del viento	6.4
105398	7	Sololá	713	San Lucas Tolimán	10	San Lucas Tolimán	2	Febrero	2023-07-02T00:00:00	2024-11-08T08:00:00	7	Dirección del viento	6.44
105399	7	Sololá	713	San Lucas Tolimán	10	San Lucas Tolimán	2	Febrero	2023-07-02T00:00:00	2024-11-08T08:00:00	1	Precipitación	0
105400	7	Sololá	713	San Lucas Tolimán	10	San Lucas Tolimán	2	Febrero	2023-07-02T00:00:00	2024-11-08T08:00:00	8	Radiación solar	18
105401	7	Sololá	713	San Lucas Tolimán	10	San Lucas Tolimán	2	Febrero	2023-07-02T00:00:00	2024-11-08T09:00:00	2	Temperatura media	19.3
105402	7	Sololá	713	San Lucas Tolimán	10	San Lucas Tolimán	2	Febrero	2023-07-02T00:00:00	2024-11-08T09:00:00	4	Temperatura máxima	19.3
105403	7	Sololá	713	San Lucas Tolimán	10	San Lucas Tolimán	2	Febrero	2023-07-02T00:00:00	2024-11-08T09:00:00	3	Temperatura mínima	16.3
105404	7	Sololá	713	San Lucas Tolimán	10	San Lucas Tolimán	2	Febrero	2023-07-02T00:00:00	2024-11-08T09:00:00	5	Humedad	42
105405	7	Sololá	713	San Lucas Tolimán	10	San Lucas Tolimán	2	Febrero	2023-07-02T00:00:00	2024-11-08T09:00:00	6	Velocidad del viento	9.7
105406	7	Sololá	713	San Lucas Tolimán	10	San Lucas Tolimán	2	Febrero	2023-07-02T00:00:00	2024-11-08T09:00:00	7	Dirección del viento	9.66
105407	7	Sololá	713	San Lucas Tolimán	10	San Lucas Tolimán	2	Febrero	2023-07-02T00:00:00	2024-11-08T09:00:00	1	Precipitación	0
105408	7	Sololá	713	San Lucas Tolimán	10	San Lucas Tolimán	2	Febrero	2023-07-02T00:00:00	2024-11-08T09:00:00	8	Radiación solar	379
105409	7	Sololá	713	San Lucas Tolimán	10	San Lucas Tolimán	2	Febrero	2023-07-02T00:00:00	2024-11-08T10:00:00	2	Temperatura media	20.3
105410	7	Sololá	713	San Lucas Tolimán	10	San Lucas Tolimán	2	Febrero	2023-07-02T00:00:00	2024-11-08T10:00:00	4	Temperatura máxima	20.3
105411	7	Sololá	713	San Lucas Tolimán	10	San Lucas Tolimán	2	Febrero	2023-07-02T00:00:00	2024-11-08T10:00:00	3	Temperatura mínima	18.7
105412	7	Sololá	713	San Lucas Tolimán	10	San Lucas Tolimán	2	Febrero	2023-07-02T00:00:00	2024-11-08T10:00:00	5	Humedad	40
105413	7	Sololá	713	San Lucas Tolimán	10	San Lucas Tolimán	2	Febrero	2023-07-02T00:00:00	2024-11-08T10:00:00	6	Velocidad del viento	6.4
105414	7	Sololá	713	San Lucas Tolimán	10	San Lucas Tolimán	2	Febrero	2023-07-02T00:00:00	2024-11-08T10:00:00	7	Dirección del viento	6.44
105415	7	Sololá	713	San Lucas Tolimán	10	San Lucas Tolimán	2	Febrero	2023-07-02T00:00:00	2024-11-08T10:00:00	1	Precipitación	0
105416	7	Sololá	713	San Lucas Tolimán	10	San Lucas Tolimán	2	Febrero	2023-07-02T00:00:00	2024-11-08T10:00:00	8	Radiación solar	637
105417	7	Sololá	713	San Lucas Tolimán	10	San Lucas Tolimán	2	Febrero	2023-07-02T00:00:00	2024-11-08T11:00:00	2	Temperatura media	22.7
105418	7	Sololá	713	San Lucas Tolimán	10	San Lucas Tolimán	2	Febrero	2023-07-02T00:00:00	2024-11-08T11:00:00	4	Temperatura máxima	22.8
105419	7	Sololá	713	San Lucas Tolimán	10	San Lucas Tolimán	2	Febrero	2023-07-02T00:00:00	2024-11-08T11:00:00	3	Temperatura mínima	20.3
105420	7	Sololá	713	San Lucas Tolimán	10	San Lucas Tolimán	2	Febrero	2023-07-02T00:00:00	2024-11-08T11:00:00	5	Humedad	36
105421	7	Sololá	713	San Lucas Tolimán	10	San Lucas Tolimán	2	Febrero	2023-07-02T00:00:00	2024-11-08T11:00:00	6	Velocidad del viento	6.4
105422	7	Sololá	713	San Lucas Tolimán	10	San Lucas Tolimán	2	Febrero	2023-07-02T00:00:00	2024-11-08T11:00:00	7	Dirección del viento	6.44
105423	7	Sololá	713	San Lucas Tolimán	10	San Lucas Tolimán	2	Febrero	2023-07-02T00:00:00	2024-11-08T11:00:00	1	Precipitación	0
105424	7	Sololá	713	San Lucas Tolimán	10	San Lucas Tolimán	2	Febrero	2023-07-02T00:00:00	2024-11-08T11:00:00	8	Radiación solar	812
105425	7	Sololá	713	San Lucas Tolimán	10	San Lucas Tolimán	2	Febrero	2023-07-02T00:00:00	2024-11-08T12:00:00	2	Temperatura media	23.3
105426	7	Sololá	713	San Lucas Tolimán	10	San Lucas Tolimán	2	Febrero	2023-07-02T00:00:00	2024-11-08T12:00:00	4	Temperatura máxima	23.8
105427	7	Sololá	713	San Lucas Tolimán	10	San Lucas Tolimán	2	Febrero	2023-07-02T00:00:00	2024-11-08T12:00:00	3	Temperatura mínima	22.6
105428	7	Sololá	713	San Lucas Tolimán	10	San Lucas Tolimán	2	Febrero	2023-07-02T00:00:00	2024-11-08T12:00:00	5	Humedad	37
105429	7	Sololá	713	San Lucas Tolimán	10	San Lucas Tolimán	2	Febrero	2023-07-02T00:00:00	2024-11-08T12:00:00	6	Velocidad del viento	11.3
105430	7	Sololá	713	San Lucas Tolimán	10	San Lucas Tolimán	2	Febrero	2023-07-02T00:00:00	2024-11-08T12:00:00	7	Dirección del viento	11.27
105431	7	Sololá	713	San Lucas Tolimán	10	San Lucas Tolimán	2	Febrero	2023-07-02T00:00:00	2024-11-08T12:00:00	1	Precipitación	0
105432	7	Sololá	713	San Lucas Tolimán	10	San Lucas Tolimán	2	Febrero	2023-07-02T00:00:00	2024-11-08T12:00:00	8	Radiación solar	924
105433	7	Sololá	713	San Lucas Tolimán	10	San Lucas Tolimán	2	Febrero	2023-07-02T00:00:00	2024-11-08T13:00:00	2	Temperatura media	23.6
105434	7	Sololá	713	San Lucas Tolimán	10	San Lucas Tolimán	2	Febrero	2023-07-02T00:00:00	2024-11-08T13:00:00	4	Temperatura máxima	24.1
105435	7	Sololá	713	San Lucas Tolimán	10	San Lucas Tolimán	2	Febrero	2023-07-02T00:00:00	2024-11-08T13:00:00	3	Temperatura mínima	23.2
105436	7	Sololá	713	San Lucas Tolimán	10	San Lucas Tolimán	2	Febrero	2023-07-02T00:00:00	2024-11-08T13:00:00	5	Humedad	38
105437	7	Sololá	713	San Lucas Tolimán	10	San Lucas Tolimán	2	Febrero	2023-07-02T00:00:00	2024-11-08T13:00:00	6	Velocidad del viento	11.3
105438	7	Sololá	713	San Lucas Tolimán	10	San Lucas Tolimán	2	Febrero	2023-07-02T00:00:00	2024-11-08T13:00:00	7	Dirección del viento	11.27
105439	7	Sololá	713	San Lucas Tolimán	10	San Lucas Tolimán	2	Febrero	2023-07-02T00:00:00	2024-11-08T13:00:00	1	Precipitación	0
105440	7	Sololá	713	San Lucas Tolimán	10	San Lucas Tolimán	2	Febrero	2023-07-02T00:00:00	2024-11-08T13:00:00	8	Radiación solar	953
105441	7	Sololá	713	San Lucas Tolimán	10	San Lucas Tolimán	2	Febrero	2023-07-02T00:00:00	2024-11-08T14:00:00	2	Temperatura media	23.4
105442	7	Sololá	713	San Lucas Tolimán	10	San Lucas Tolimán	2	Febrero	2023-07-02T00:00:00	2024-11-08T14:00:00	4	Temperatura máxima	23.6
105443	7	Sololá	713	San Lucas Tolimán	10	San Lucas Tolimán	2	Febrero	2023-07-02T00:00:00	2024-11-08T14:00:00	3	Temperatura mínima	22.9
105444	7	Sololá	713	San Lucas Tolimán	10	San Lucas Tolimán	2	Febrero	2023-07-02T00:00:00	2024-11-08T14:00:00	5	Humedad	42
105445	7	Sololá	713	San Lucas Tolimán	10	San Lucas Tolimán	2	Febrero	2023-07-02T00:00:00	2024-11-08T14:00:00	6	Velocidad del viento	12.9
105446	7	Sololá	713	San Lucas Tolimán	10	San Lucas Tolimán	2	Febrero	2023-07-02T00:00:00	2024-11-08T14:00:00	7	Dirección del viento	12.87
105447	7	Sololá	713	San Lucas Tolimán	10	San Lucas Tolimán	2	Febrero	2023-07-02T00:00:00	2024-11-08T14:00:00	1	Precipitación	0
105448	7	Sololá	713	San Lucas Tolimán	10	San Lucas Tolimán	2	Febrero	2023-07-02T00:00:00	2024-11-08T14:00:00	8	Radiación solar	900
105449	7	Sololá	713	San Lucas Tolimán	10	San Lucas Tolimán	2	Febrero	2023-07-02T00:00:00	2024-11-08T15:00:00	2	Temperatura media	22.9
105450	7	Sololá	713	San Lucas Tolimán	10	San Lucas Tolimán	2	Febrero	2023-07-02T00:00:00	2024-11-08T15:00:00	4	Temperatura máxima	23.7
105451	7	Sololá	713	San Lucas Tolimán	10	San Lucas Tolimán	2	Febrero	2023-07-02T00:00:00	2024-11-08T15:00:00	3	Temperatura mínima	22.8
105452	7	Sololá	713	San Lucas Tolimán	10	San Lucas Tolimán	2	Febrero	2023-07-02T00:00:00	2024-11-08T15:00:00	5	Humedad	43
105453	7	Sololá	713	San Lucas Tolimán	10	San Lucas Tolimán	2	Febrero	2023-07-02T00:00:00	2024-11-08T15:00:00	6	Velocidad del viento	11.3
105454	7	Sololá	713	San Lucas Tolimán	10	San Lucas Tolimán	2	Febrero	2023-07-02T00:00:00	2024-11-08T15:00:00	7	Dirección del viento	11.27
105455	7	Sololá	713	San Lucas Tolimán	10	San Lucas Tolimán	2	Febrero	2023-07-02T00:00:00	2024-11-08T15:00:00	1	Precipitación	0
105456	7	Sololá	713	San Lucas Tolimán	10	San Lucas Tolimán	2	Febrero	2023-07-02T00:00:00	2024-11-08T15:00:00	8	Radiación solar	768
105457	7	Sololá	713	San Lucas Tolimán	10	San Lucas Tolimán	2	Febrero	2023-07-02T00:00:00	2024-11-08T16:00:00	2	Temperatura media	22.1
105458	7	Sololá	713	San Lucas Tolimán	10	San Lucas Tolimán	2	Febrero	2023-07-02T00:00:00	2024-11-08T16:00:00	4	Temperatura máxima	23.6
105459	7	Sololá	713	San Lucas Tolimán	10	San Lucas Tolimán	2	Febrero	2023-07-02T00:00:00	2024-11-08T16:00:00	3	Temperatura mínima	22.1
105460	7	Sololá	713	San Lucas Tolimán	10	San Lucas Tolimán	2	Febrero	2023-07-02T00:00:00	2024-11-08T16:00:00	5	Humedad	50
105461	7	Sololá	713	San Lucas Tolimán	10	San Lucas Tolimán	2	Febrero	2023-07-02T00:00:00	2024-11-08T16:00:00	6	Velocidad del viento	11.3
105462	7	Sololá	713	San Lucas Tolimán	10	San Lucas Tolimán	2	Febrero	2023-07-02T00:00:00	2024-11-08T16:00:00	7	Dirección del viento	11.27
105463	7	Sololá	713	San Lucas Tolimán	10	San Lucas Tolimán	2	Febrero	2023-07-02T00:00:00	2024-11-08T16:00:00	1	Precipitación	0
105464	7	Sololá	713	San Lucas Tolimán	10	San Lucas Tolimán	2	Febrero	2023-07-02T00:00:00	2024-11-08T16:00:00	8	Radiación solar	564
105465	7	Sololá	713	San Lucas Tolimán	10	San Lucas Tolimán	2	Febrero	2023-07-02T00:00:00	2024-11-08T17:00:00	2	Temperatura media	19.8
105466	7	Sololá	713	San Lucas Tolimán	10	San Lucas Tolimán	2	Febrero	2023-07-02T00:00:00	2024-11-08T17:00:00	4	Temperatura máxima	22.1
105467	7	Sololá	713	San Lucas Tolimán	10	San Lucas Tolimán	2	Febrero	2023-07-02T00:00:00	2024-11-08T17:00:00	3	Temperatura mínima	19.8
105468	7	Sololá	713	San Lucas Tolimán	10	San Lucas Tolimán	2	Febrero	2023-07-02T00:00:00	2024-11-08T17:00:00	5	Humedad	59
105469	7	Sololá	713	San Lucas Tolimán	10	San Lucas Tolimán	2	Febrero	2023-07-02T00:00:00	2024-11-08T17:00:00	6	Velocidad del viento	12.9
105470	7	Sololá	713	San Lucas Tolimán	10	San Lucas Tolimán	2	Febrero	2023-07-02T00:00:00	2024-11-08T17:00:00	7	Dirección del viento	12.87
105471	7	Sololá	713	San Lucas Tolimán	10	San Lucas Tolimán	2	Febrero	2023-07-02T00:00:00	2024-11-08T17:00:00	1	Precipitación	0
105472	7	Sololá	713	San Lucas Tolimán	10	San Lucas Tolimán	2	Febrero	2023-07-02T00:00:00	2024-11-08T17:00:00	8	Radiación solar	260
105473	7	Sololá	713	San Lucas Tolimán	10	San Lucas Tolimán	2	Febrero	2023-07-02T00:00:00	2024-11-08T18:00:00	2	Temperatura media	18.5
105474	7	Sololá	713	San Lucas Tolimán	10	San Lucas Tolimán	2	Febrero	2023-07-02T00:00:00	2024-11-08T18:00:00	4	Temperatura máxima	19.8
105475	7	Sololá	713	San Lucas Tolimán	10	San Lucas Tolimán	2	Febrero	2023-07-02T00:00:00	2024-11-08T18:00:00	3	Temperatura mínima	18.5
105476	7	Sololá	713	San Lucas Tolimán	10	San Lucas Tolimán	2	Febrero	2023-07-02T00:00:00	2024-11-08T18:00:00	5	Humedad	64
105477	7	Sololá	713	San Lucas Tolimán	10	San Lucas Tolimán	2	Febrero	2023-07-02T00:00:00	2024-11-08T18:00:00	6	Velocidad del viento	9.7
105478	7	Sololá	713	San Lucas Tolimán	10	San Lucas Tolimán	2	Febrero	2023-07-02T00:00:00	2024-11-08T18:00:00	7	Dirección del viento	9.66
105479	7	Sololá	713	San Lucas Tolimán	10	San Lucas Tolimán	2	Febrero	2023-07-02T00:00:00	2024-11-08T18:00:00	1	Precipitación	0
105480	7	Sololá	713	San Lucas Tolimán	10	San Lucas Tolimán	2	Febrero	2023-07-02T00:00:00	2024-11-08T18:00:00	8	Radiación solar	24
105481	7	Sololá	713	San Lucas Tolimán	10	San Lucas Tolimán	2	Febrero	2023-07-02T00:00:00	2024-11-08T19:00:00	2	Temperatura media	17.6
105482	7	Sololá	713	San Lucas Tolimán	10	San Lucas Tolimán	2	Febrero	2023-07-02T00:00:00	2024-11-08T19:00:00	4	Temperatura máxima	18.5
105483	7	Sololá	713	San Lucas Tolimán	10	San Lucas Tolimán	2	Febrero	2023-07-02T00:00:00	2024-11-08T19:00:00	3	Temperatura mínima	17.5
105484	7	Sololá	713	San Lucas Tolimán	10	San Lucas Tolimán	2	Febrero	2023-07-02T00:00:00	2024-11-08T19:00:00	5	Humedad	64
105485	7	Sololá	713	San Lucas Tolimán	10	San Lucas Tolimán	2	Febrero	2023-07-02T00:00:00	2024-11-08T19:00:00	6	Velocidad del viento	3.2
105486	7	Sololá	713	San Lucas Tolimán	10	San Lucas Tolimán	2	Febrero	2023-07-02T00:00:00	2024-11-08T19:00:00	7	Dirección del viento	3.22
105487	7	Sololá	713	San Lucas Tolimán	10	San Lucas Tolimán	2	Febrero	2023-07-02T00:00:00	2024-11-08T19:00:00	1	Precipitación	0
105488	7	Sololá	713	San Lucas Tolimán	10	San Lucas Tolimán	2	Febrero	2023-07-02T00:00:00	2024-11-08T19:00:00	8	Radiación solar	0
105489	7	Sololá	713	San Lucas Tolimán	10	San Lucas Tolimán	2	Febrero	2023-07-02T00:00:00	2024-11-08T20:00:00	2	Temperatura media	17.4
105490	7	Sololá	713	San Lucas Tolimán	10	San Lucas Tolimán	2	Febrero	2023-07-02T00:00:00	2024-11-08T20:00:00	4	Temperatura máxima	17.6
105491	7	Sololá	713	San Lucas Tolimán	10	San Lucas Tolimán	2	Febrero	2023-07-02T00:00:00	2024-11-08T20:00:00	3	Temperatura mínima	17.3
105492	7	Sololá	713	San Lucas Tolimán	10	San Lucas Tolimán	2	Febrero	2023-07-02T00:00:00	2024-11-08T20:00:00	5	Humedad	63
105493	7	Sololá	713	San Lucas Tolimán	10	San Lucas Tolimán	2	Febrero	2023-07-02T00:00:00	2024-11-08T20:00:00	6	Velocidad del viento	0
105494	7	Sololá	713	San Lucas Tolimán	10	San Lucas Tolimán	2	Febrero	2023-07-02T00:00:00	2024-11-08T20:00:00	7	Dirección del viento	0
105495	7	Sololá	713	San Lucas Tolimán	10	San Lucas Tolimán	2	Febrero	2023-07-02T00:00:00	2024-11-08T20:00:00	1	Precipitación	0
105496	7	Sololá	713	San Lucas Tolimán	10	San Lucas Tolimán	2	Febrero	2023-07-02T00:00:00	2024-11-08T20:00:00	8	Radiación solar	0
105497	7	Sololá	713	San Lucas Tolimán	10	San Lucas Tolimán	2	Febrero	2023-07-02T00:00:00	2024-11-08T21:00:00	2	Temperatura media	17
105498	7	Sololá	713	San Lucas Tolimán	10	San Lucas Tolimán	2	Febrero	2023-07-02T00:00:00	2024-11-08T21:00:00	4	Temperatura máxima	17.6
105499	7	Sololá	713	San Lucas Tolimán	10	San Lucas Tolimán	2	Febrero	2023-07-02T00:00:00	2024-11-08T21:00:00	3	Temperatura mínima	17
105500	7	Sololá	713	San Lucas Tolimán	10	San Lucas Tolimán	2	Febrero	2023-07-02T00:00:00	2024-11-08T21:00:00	5	Humedad	63
105501	7	Sololá	713	San Lucas Tolimán	10	San Lucas Tolimán	2	Febrero	2023-07-02T00:00:00	2024-11-08T21:00:00	6	Velocidad del viento	1.6
105502	7	Sololá	713	San Lucas Tolimán	10	San Lucas Tolimán	2	Febrero	2023-07-02T00:00:00	2024-11-08T21:00:00	7	Dirección del viento	1.61
105503	7	Sololá	713	San Lucas Tolimán	10	San Lucas Tolimán	2	Febrero	2023-07-02T00:00:00	2024-11-08T21:00:00	1	Precipitación	0
105504	7	Sololá	713	San Lucas Tolimán	10	San Lucas Tolimán	2	Febrero	2023-07-02T00:00:00	2024-11-08T21:00:00	8	Radiación solar	0
105505	7	Sololá	713	San Lucas Tolimán	10	San Lucas Tolimán	2	Febrero	2023-07-02T00:00:00	2024-11-08T22:00:00	2	Temperatura media	17.3
105506	7	Sololá	713	San Lucas Tolimán	10	San Lucas Tolimán	2	Febrero	2023-07-02T00:00:00	2024-11-08T22:00:00	4	Temperatura máxima	17.3
105507	7	Sololá	713	San Lucas Tolimán	10	San Lucas Tolimán	2	Febrero	2023-07-02T00:00:00	2024-11-08T22:00:00	3	Temperatura mínima	16.7
105508	7	Sololá	713	San Lucas Tolimán	10	San Lucas Tolimán	2	Febrero	2023-07-02T00:00:00	2024-11-08T22:00:00	5	Humedad	59
105509	7	Sololá	713	San Lucas Tolimán	10	San Lucas Tolimán	2	Febrero	2023-07-02T00:00:00	2024-11-08T22:00:00	6	Velocidad del viento	6.4
105510	7	Sololá	713	San Lucas Tolimán	10	San Lucas Tolimán	2	Febrero	2023-07-02T00:00:00	2024-11-08T22:00:00	7	Dirección del viento	6.44
105511	7	Sololá	713	San Lucas Tolimán	10	San Lucas Tolimán	2	Febrero	2023-07-02T00:00:00	2024-11-08T22:00:00	1	Precipitación	0
105512	7	Sololá	713	San Lucas Tolimán	10	San Lucas Tolimán	2	Febrero	2023-07-02T00:00:00	2024-11-08T22:00:00	8	Radiación solar	0
105513	7	Sololá	713	San Lucas Tolimán	10	San Lucas Tolimán	2	Febrero	2023-07-02T00:00:00	2024-11-08T23:00:00	2	Temperatura media	16.8
105514	7	Sololá	713	San Lucas Tolimán	10	San Lucas Tolimán	2	Febrero	2023-07-02T00:00:00	2024-11-08T23:00:00	4	Temperatura máxima	17.7
105515	7	Sololá	713	San Lucas Tolimán	10	San Lucas Tolimán	2	Febrero	2023-07-02T00:00:00	2024-11-08T23:00:00	3	Temperatura mínima	16.8
105516	7	Sololá	713	San Lucas Tolimán	10	San Lucas Tolimán	2	Febrero	2023-07-02T00:00:00	2024-11-08T23:00:00	5	Humedad	59
105517	7	Sololá	713	San Lucas Tolimán	10	San Lucas Tolimán	2	Febrero	2023-07-02T00:00:00	2024-11-08T23:00:00	6	Velocidad del viento	4.8
105518	7	Sololá	713	San Lucas Tolimán	10	San Lucas Tolimán	2	Febrero	2023-07-02T00:00:00	2024-11-08T23:00:00	7	Dirección del viento	4.83
105519	7	Sololá	713	San Lucas Tolimán	10	San Lucas Tolimán	2	Febrero	2023-07-02T00:00:00	2024-11-08T23:00:00	1	Precipitación	0
105520	7	Sololá	713	San Lucas Tolimán	10	San Lucas Tolimán	2	Febrero	2023-07-02T00:00:00	2024-11-08T23:00:00	8	Radiación solar	0
105521	7	Sololá	713	San Lucas Tolimán	10	San Lucas Tolimán	2	Febrero	2023-08-02T00:00:00	2024-11-08T00:00:00	2	Temperatura media	16.8
105522	7	Sololá	713	San Lucas Tolimán	10	San Lucas Tolimán	2	Febrero	2023-08-02T00:00:00	2024-11-08T00:00:00	4	Temperatura máxima	16.9
105523	7	Sololá	713	San Lucas Tolimán	10	San Lucas Tolimán	2	Febrero	2023-08-02T00:00:00	2024-11-08T00:00:00	3	Temperatura mínima	16.6
105524	7	Sololá	713	San Lucas Tolimán	10	San Lucas Tolimán	2	Febrero	2023-08-02T00:00:00	2024-11-08T00:00:00	5	Humedad	59
105525	7	Sololá	713	San Lucas Tolimán	10	San Lucas Tolimán	2	Febrero	2023-08-02T00:00:00	2024-11-08T00:00:00	6	Velocidad del viento	3.2
105526	7	Sololá	713	San Lucas Tolimán	10	San Lucas Tolimán	2	Febrero	2023-08-02T00:00:00	2024-11-08T00:00:00	7	Dirección del viento	3.22
105527	7	Sololá	713	San Lucas Tolimán	10	San Lucas Tolimán	2	Febrero	2023-08-02T00:00:00	2024-11-08T00:00:00	1	Precipitación	0
105528	7	Sololá	713	San Lucas Tolimán	10	San Lucas Tolimán	2	Febrero	2023-08-02T00:00:00	2024-11-08T00:00:00	8	Radiación solar	0
105529	7	Sololá	713	San Lucas Tolimán	10	San Lucas Tolimán	2	Febrero	2023-08-02T00:00:00	2024-11-08T01:00:00	2	Temperatura media	16.8
105530	7	Sololá	713	San Lucas Tolimán	10	San Lucas Tolimán	2	Febrero	2023-08-02T00:00:00	2024-11-08T01:00:00	4	Temperatura máxima	16.8
105531	7	Sololá	713	San Lucas Tolimán	10	San Lucas Tolimán	2	Febrero	2023-08-02T00:00:00	2024-11-08T01:00:00	3	Temperatura mínima	16.4
105532	7	Sololá	713	San Lucas Tolimán	10	San Lucas Tolimán	2	Febrero	2023-08-02T00:00:00	2024-11-08T01:00:00	5	Humedad	59
105533	7	Sololá	713	San Lucas Tolimán	10	San Lucas Tolimán	2	Febrero	2023-08-02T00:00:00	2024-11-08T01:00:00	6	Velocidad del viento	1.6
105534	7	Sololá	713	San Lucas Tolimán	10	San Lucas Tolimán	2	Febrero	2023-08-02T00:00:00	2024-11-08T01:00:00	7	Dirección del viento	1.61
105535	7	Sololá	713	San Lucas Tolimán	10	San Lucas Tolimán	2	Febrero	2023-08-02T00:00:00	2024-11-08T01:00:00	1	Precipitación	0
105536	7	Sololá	713	San Lucas Tolimán	10	San Lucas Tolimán	2	Febrero	2023-08-02T00:00:00	2024-11-08T01:00:00	8	Radiación solar	0
105537	7	Sololá	713	San Lucas Tolimán	10	San Lucas Tolimán	2	Febrero	2023-08-02T00:00:00	2024-11-08T02:00:00	2	Temperatura media	16.2
105538	7	Sololá	713	San Lucas Tolimán	10	San Lucas Tolimán	2	Febrero	2023-08-02T00:00:00	2024-11-08T02:00:00	4	Temperatura máxima	16.8
105539	7	Sololá	713	San Lucas Tolimán	10	San Lucas Tolimán	2	Febrero	2023-08-02T00:00:00	2024-11-08T02:00:00	3	Temperatura mínima	16.2
105540	7	Sololá	713	San Lucas Tolimán	10	San Lucas Tolimán	2	Febrero	2023-08-02T00:00:00	2024-11-08T02:00:00	5	Humedad	59
105541	7	Sololá	713	San Lucas Tolimán	10	San Lucas Tolimán	2	Febrero	2023-08-02T00:00:00	2024-11-08T02:00:00	6	Velocidad del viento	1.6
105542	7	Sololá	713	San Lucas Tolimán	10	San Lucas Tolimán	2	Febrero	2023-08-02T00:00:00	2024-11-08T02:00:00	7	Dirección del viento	1.61
105543	7	Sololá	713	San Lucas Tolimán	10	San Lucas Tolimán	2	Febrero	2023-08-02T00:00:00	2024-11-08T02:00:00	1	Precipitación	0
105544	7	Sololá	713	San Lucas Tolimán	10	San Lucas Tolimán	2	Febrero	2023-08-02T00:00:00	2024-11-08T02:00:00	8	Radiación solar	0
105545	7	Sololá	713	San Lucas Tolimán	10	San Lucas Tolimán	2	Febrero	2023-08-02T00:00:00	2024-11-08T03:00:00	2	Temperatura media	15.8
105546	7	Sololá	713	San Lucas Tolimán	10	San Lucas Tolimán	2	Febrero	2023-08-02T00:00:00	2024-11-08T03:00:00	4	Temperatura máxima	16.3
105547	7	Sololá	713	San Lucas Tolimán	10	San Lucas Tolimán	2	Febrero	2023-08-02T00:00:00	2024-11-08T03:00:00	3	Temperatura mínima	15.6
105548	7	Sololá	713	San Lucas Tolimán	10	San Lucas Tolimán	2	Febrero	2023-08-02T00:00:00	2024-11-08T03:00:00	5	Humedad	59
105549	7	Sololá	713	San Lucas Tolimán	10	San Lucas Tolimán	2	Febrero	2023-08-02T00:00:00	2024-11-08T03:00:00	6	Velocidad del viento	4.8
105550	7	Sololá	713	San Lucas Tolimán	10	San Lucas Tolimán	2	Febrero	2023-08-02T00:00:00	2024-11-08T03:00:00	7	Dirección del viento	4.83
105551	7	Sololá	713	San Lucas Tolimán	10	San Lucas Tolimán	2	Febrero	2023-08-02T00:00:00	2024-11-08T03:00:00	1	Precipitación	0
105552	7	Sololá	713	San Lucas Tolimán	10	San Lucas Tolimán	2	Febrero	2023-08-02T00:00:00	2024-11-08T03:00:00	8	Radiación solar	0
105553	7	Sololá	713	San Lucas Tolimán	10	San Lucas Tolimán	2	Febrero	2023-08-02T00:00:00	2024-11-08T04:00:00	2	Temperatura media	15.7
105554	7	Sololá	713	San Lucas Tolimán	10	San Lucas Tolimán	2	Febrero	2023-08-02T00:00:00	2024-11-08T04:00:00	4	Temperatura máxima	15.9
105555	7	Sololá	713	San Lucas Tolimán	10	San Lucas Tolimán	2	Febrero	2023-08-02T00:00:00	2024-11-08T04:00:00	3	Temperatura mínima	15.6
105556	7	Sololá	713	San Lucas Tolimán	10	San Lucas Tolimán	2	Febrero	2023-08-02T00:00:00	2024-11-08T04:00:00	5	Humedad	57
105557	7	Sololá	713	San Lucas Tolimán	10	San Lucas Tolimán	2	Febrero	2023-08-02T00:00:00	2024-11-08T04:00:00	6	Velocidad del viento	6.4
105558	7	Sololá	713	San Lucas Tolimán	10	San Lucas Tolimán	2	Febrero	2023-08-02T00:00:00	2024-11-08T04:00:00	7	Dirección del viento	6.44
105559	7	Sololá	713	San Lucas Tolimán	10	San Lucas Tolimán	2	Febrero	2023-08-02T00:00:00	2024-11-08T04:00:00	1	Precipitación	0
105560	7	Sololá	713	San Lucas Tolimán	10	San Lucas Tolimán	2	Febrero	2023-08-02T00:00:00	2024-11-08T04:00:00	8	Radiación solar	0
105561	7	Sololá	713	San Lucas Tolimán	10	San Lucas Tolimán	2	Febrero	2023-08-02T00:00:00	2024-11-08T05:00:00	2	Temperatura media	15.5
105562	7	Sololá	713	San Lucas Tolimán	10	San Lucas Tolimán	2	Febrero	2023-08-02T00:00:00	2024-11-08T05:00:00	4	Temperatura máxima	15.9
105563	7	Sololá	713	San Lucas Tolimán	10	San Lucas Tolimán	2	Febrero	2023-08-02T00:00:00	2024-11-08T05:00:00	3	Temperatura mínima	15.4
105564	7	Sololá	713	San Lucas Tolimán	10	San Lucas Tolimán	2	Febrero	2023-08-02T00:00:00	2024-11-08T05:00:00	5	Humedad	58
105565	7	Sololá	713	San Lucas Tolimán	10	San Lucas Tolimán	2	Febrero	2023-08-02T00:00:00	2024-11-08T05:00:00	6	Velocidad del viento	4.8
105566	7	Sololá	713	San Lucas Tolimán	10	San Lucas Tolimán	2	Febrero	2023-08-02T00:00:00	2024-11-08T05:00:00	7	Dirección del viento	4.83
105567	7	Sololá	713	San Lucas Tolimán	10	San Lucas Tolimán	2	Febrero	2023-08-02T00:00:00	2024-11-08T05:00:00	1	Precipitación	0
105568	7	Sololá	713	San Lucas Tolimán	10	San Lucas Tolimán	2	Febrero	2023-08-02T00:00:00	2024-11-08T05:00:00	8	Radiación solar	0
105569	7	Sololá	713	San Lucas Tolimán	10	San Lucas Tolimán	2	Febrero	2023-08-02T00:00:00	2024-11-08T06:00:00	2	Temperatura media	15.3
105570	7	Sololá	713	San Lucas Tolimán	10	San Lucas Tolimán	2	Febrero	2023-08-02T00:00:00	2024-11-08T06:00:00	4	Temperatura máxima	15.4
105571	7	Sololá	713	San Lucas Tolimán	10	San Lucas Tolimán	2	Febrero	2023-08-02T00:00:00	2024-11-08T06:00:00	3	Temperatura mínima	15.2
105572	7	Sololá	713	San Lucas Tolimán	10	San Lucas Tolimán	2	Febrero	2023-08-02T00:00:00	2024-11-08T06:00:00	5	Humedad	58
105573	7	Sololá	713	San Lucas Tolimán	10	San Lucas Tolimán	2	Febrero	2023-08-02T00:00:00	2024-11-08T06:00:00	6	Velocidad del viento	6.4
105574	7	Sololá	713	San Lucas Tolimán	10	San Lucas Tolimán	2	Febrero	2023-08-02T00:00:00	2024-11-08T06:00:00	7	Dirección del viento	6.44
105575	7	Sololá	713	San Lucas Tolimán	10	San Lucas Tolimán	2	Febrero	2023-08-02T00:00:00	2024-11-08T06:00:00	1	Precipitación	0
105576	7	Sololá	713	San Lucas Tolimán	10	San Lucas Tolimán	2	Febrero	2023-08-02T00:00:00	2024-11-08T06:00:00	8	Radiación solar	0
105577	7	Sololá	713	San Lucas Tolimán	10	San Lucas Tolimán	2	Febrero	2023-08-02T00:00:00	2024-11-08T07:00:00	2	Temperatura media	15.3
105578	7	Sololá	713	San Lucas Tolimán	10	San Lucas Tolimán	2	Febrero	2023-08-02T00:00:00	2024-11-08T07:00:00	4	Temperatura máxima	15.7
105579	7	Sololá	713	San Lucas Tolimán	10	San Lucas Tolimán	2	Febrero	2023-08-02T00:00:00	2024-11-08T07:00:00	3	Temperatura mínima	15.2
105580	7	Sololá	713	San Lucas Tolimán	10	San Lucas Tolimán	2	Febrero	2023-08-02T00:00:00	2024-11-08T07:00:00	5	Humedad	58
105581	7	Sololá	713	San Lucas Tolimán	10	San Lucas Tolimán	2	Febrero	2023-08-02T00:00:00	2024-11-08T07:00:00	6	Velocidad del viento	4.8
105582	7	Sololá	713	San Lucas Tolimán	10	San Lucas Tolimán	2	Febrero	2023-08-02T00:00:00	2024-11-08T07:00:00	7	Dirección del viento	4.83
105583	7	Sololá	713	San Lucas Tolimán	10	San Lucas Tolimán	2	Febrero	2023-08-02T00:00:00	2024-11-08T07:00:00	1	Precipitación	0
105584	7	Sololá	713	San Lucas Tolimán	10	San Lucas Tolimán	2	Febrero	2023-08-02T00:00:00	2024-11-08T07:00:00	8	Radiación solar	4
105585	7	Sololá	713	San Lucas Tolimán	10	San Lucas Tolimán	2	Febrero	2023-08-02T00:00:00	2024-11-08T08:00:00	2	Temperatura media	15.7
105586	7	Sololá	713	San Lucas Tolimán	10	San Lucas Tolimán	2	Febrero	2023-08-02T00:00:00	2024-11-08T08:00:00	4	Temperatura máxima	15.7
105587	7	Sololá	713	San Lucas Tolimán	10	San Lucas Tolimán	2	Febrero	2023-08-02T00:00:00	2024-11-08T08:00:00	3	Temperatura mínima	15.1
105588	7	Sololá	713	San Lucas Tolimán	10	San Lucas Tolimán	2	Febrero	2023-08-02T00:00:00	2024-11-08T08:00:00	5	Humedad	61
105589	7	Sololá	713	San Lucas Tolimán	10	San Lucas Tolimán	2	Febrero	2023-08-02T00:00:00	2024-11-08T08:00:00	6	Velocidad del viento	4.8
105590	7	Sololá	713	San Lucas Tolimán	10	San Lucas Tolimán	2	Febrero	2023-08-02T00:00:00	2024-11-08T08:00:00	7	Dirección del viento	4.83
105591	7	Sololá	713	San Lucas Tolimán	10	San Lucas Tolimán	2	Febrero	2023-08-02T00:00:00	2024-11-08T08:00:00	1	Precipitación	0
105592	7	Sololá	713	San Lucas Tolimán	10	San Lucas Tolimán	2	Febrero	2023-08-02T00:00:00	2024-11-08T08:00:00	8	Radiación solar	23
105593	7	Sololá	713	San Lucas Tolimán	10	San Lucas Tolimán	2	Febrero	2023-08-02T00:00:00	2024-11-08T09:00:00	2	Temperatura media	18.8
105594	7	Sololá	713	San Lucas Tolimán	10	San Lucas Tolimán	2	Febrero	2023-08-02T00:00:00	2024-11-08T09:00:00	4	Temperatura máxima	18.8
105595	7	Sololá	713	San Lucas Tolimán	10	San Lucas Tolimán	2	Febrero	2023-08-02T00:00:00	2024-11-08T09:00:00	3	Temperatura mínima	15.6
105596	7	Sololá	713	San Lucas Tolimán	10	San Lucas Tolimán	2	Febrero	2023-08-02T00:00:00	2024-11-08T09:00:00	5	Humedad	51
105597	7	Sololá	713	San Lucas Tolimán	10	San Lucas Tolimán	2	Febrero	2023-08-02T00:00:00	2024-11-08T09:00:00	6	Velocidad del viento	4.8
105598	7	Sololá	713	San Lucas Tolimán	10	San Lucas Tolimán	2	Febrero	2023-08-02T00:00:00	2024-11-08T09:00:00	7	Dirección del viento	4.83
105599	7	Sololá	713	San Lucas Tolimán	10	San Lucas Tolimán	2	Febrero	2023-08-02T00:00:00	2024-11-08T09:00:00	1	Precipitación	0
105600	7	Sololá	713	San Lucas Tolimán	10	San Lucas Tolimán	2	Febrero	2023-08-02T00:00:00	2024-11-08T09:00:00	8	Radiación solar	372
105601	7	Sololá	713	San Lucas Tolimán	10	San Lucas Tolimán	2	Febrero	2023-08-02T00:00:00	2024-11-08T10:00:00	2	Temperatura media	21
105602	7	Sololá	713	San Lucas Tolimán	10	San Lucas Tolimán	2	Febrero	2023-08-02T00:00:00	2024-11-08T10:00:00	4	Temperatura máxima	21
105603	7	Sololá	713	San Lucas Tolimán	10	San Lucas Tolimán	2	Febrero	2023-08-02T00:00:00	2024-11-08T10:00:00	3	Temperatura mínima	18.8
105604	7	Sololá	713	San Lucas Tolimán	10	San Lucas Tolimán	2	Febrero	2023-08-02T00:00:00	2024-11-08T10:00:00	5	Humedad	50
105605	7	Sololá	713	San Lucas Tolimán	10	San Lucas Tolimán	2	Febrero	2023-08-02T00:00:00	2024-11-08T10:00:00	6	Velocidad del viento	4.8
105606	7	Sololá	713	San Lucas Tolimán	10	San Lucas Tolimán	2	Febrero	2023-08-02T00:00:00	2024-11-08T10:00:00	7	Dirección del viento	4.83
105607	7	Sololá	713	San Lucas Tolimán	10	San Lucas Tolimán	2	Febrero	2023-08-02T00:00:00	2024-11-08T10:00:00	1	Precipitación	0
105608	7	Sololá	713	San Lucas Tolimán	10	San Lucas Tolimán	2	Febrero	2023-08-02T00:00:00	2024-11-08T10:00:00	8	Radiación solar	626
105609	7	Sololá	713	San Lucas Tolimán	10	San Lucas Tolimán	2	Febrero	2023-08-02T00:00:00	2024-11-08T11:00:00	2	Temperatura media	21.7
105610	7	Sololá	713	San Lucas Tolimán	10	San Lucas Tolimán	2	Febrero	2023-08-02T00:00:00	2024-11-08T11:00:00	4	Temperatura máxima	22.6
105611	7	Sololá	713	San Lucas Tolimán	10	San Lucas Tolimán	2	Febrero	2023-08-02T00:00:00	2024-11-08T11:00:00	3	Temperatura mínima	21
105612	7	Sololá	713	San Lucas Tolimán	10	San Lucas Tolimán	2	Febrero	2023-08-02T00:00:00	2024-11-08T11:00:00	5	Humedad	52
105613	7	Sololá	713	San Lucas Tolimán	10	San Lucas Tolimán	2	Febrero	2023-08-02T00:00:00	2024-11-08T11:00:00	6	Velocidad del viento	8
105614	7	Sololá	713	San Lucas Tolimán	10	San Lucas Tolimán	2	Febrero	2023-08-02T00:00:00	2024-11-08T11:00:00	7	Dirección del viento	8.05
105615	7	Sololá	713	San Lucas Tolimán	10	San Lucas Tolimán	2	Febrero	2023-08-02T00:00:00	2024-11-08T11:00:00	1	Precipitación	0
105616	7	Sololá	713	San Lucas Tolimán	10	San Lucas Tolimán	2	Febrero	2023-08-02T00:00:00	2024-11-08T11:00:00	8	Radiación solar	800
105617	7	Sololá	713	San Lucas Tolimán	10	San Lucas Tolimán	2	Febrero	2023-08-02T00:00:00	2024-11-08T12:00:00	2	Temperatura media	22.6
105618	7	Sololá	713	San Lucas Tolimán	10	San Lucas Tolimán	2	Febrero	2023-08-02T00:00:00	2024-11-08T12:00:00	4	Temperatura máxima	22.6
105619	7	Sololá	713	San Lucas Tolimán	10	San Lucas Tolimán	2	Febrero	2023-08-02T00:00:00	2024-11-08T12:00:00	3	Temperatura mínima	21.6
105620	7	Sololá	713	San Lucas Tolimán	10	San Lucas Tolimán	2	Febrero	2023-08-02T00:00:00	2024-11-08T12:00:00	5	Humedad	49
105621	7	Sololá	713	San Lucas Tolimán	10	San Lucas Tolimán	2	Febrero	2023-08-02T00:00:00	2024-11-08T12:00:00	6	Velocidad del viento	11.3
105622	7	Sololá	713	San Lucas Tolimán	10	San Lucas Tolimán	2	Febrero	2023-08-02T00:00:00	2024-11-08T12:00:00	7	Dirección del viento	11.27
105623	7	Sololá	713	San Lucas Tolimán	10	San Lucas Tolimán	2	Febrero	2023-08-02T00:00:00	2024-11-08T12:00:00	1	Precipitación	0
105624	7	Sololá	713	San Lucas Tolimán	10	San Lucas Tolimán	2	Febrero	2023-08-02T00:00:00	2024-11-08T12:00:00	8	Radiación solar	906
105625	7	Sololá	713	San Lucas Tolimán	10	San Lucas Tolimán	2	Febrero	2023-08-02T00:00:00	2024-11-08T13:00:00	2	Temperatura media	22.7
105626	7	Sololá	713	San Lucas Tolimán	10	San Lucas Tolimán	2	Febrero	2023-08-02T00:00:00	2024-11-08T13:00:00	4	Temperatura máxima	22.8
105627	7	Sololá	713	San Lucas Tolimán	10	San Lucas Tolimán	2	Febrero	2023-08-02T00:00:00	2024-11-08T13:00:00	3	Temperatura mínima	21.9
105628	7	Sololá	713	San Lucas Tolimán	10	San Lucas Tolimán	2	Febrero	2023-08-02T00:00:00	2024-11-08T13:00:00	5	Humedad	50
105629	7	Sololá	713	San Lucas Tolimán	10	San Lucas Tolimán	2	Febrero	2023-08-02T00:00:00	2024-11-08T13:00:00	6	Velocidad del viento	12.9
105630	7	Sololá	713	San Lucas Tolimán	10	San Lucas Tolimán	2	Febrero	2023-08-02T00:00:00	2024-11-08T13:00:00	7	Dirección del viento	12.87
105631	7	Sololá	713	San Lucas Tolimán	10	San Lucas Tolimán	2	Febrero	2023-08-02T00:00:00	2024-11-08T13:00:00	1	Precipitación	0
105632	7	Sololá	713	San Lucas Tolimán	10	San Lucas Tolimán	2	Febrero	2023-08-02T00:00:00	2024-11-08T13:00:00	8	Radiación solar	944
105633	7	Sololá	713	San Lucas Tolimán	10	San Lucas Tolimán	2	Febrero	2023-08-02T00:00:00	2024-11-08T14:00:00	2	Temperatura media	23.3
105634	7	Sololá	713	San Lucas Tolimán	10	San Lucas Tolimán	2	Febrero	2023-08-02T00:00:00	2024-11-08T14:00:00	4	Temperatura máxima	23.3
105635	7	Sololá	713	San Lucas Tolimán	10	San Lucas Tolimán	2	Febrero	2023-08-02T00:00:00	2024-11-08T14:00:00	3	Temperatura mínima	22.4
105636	7	Sololá	713	San Lucas Tolimán	10	San Lucas Tolimán	2	Febrero	2023-08-02T00:00:00	2024-11-08T14:00:00	5	Humedad	50
105637	7	Sololá	713	San Lucas Tolimán	10	San Lucas Tolimán	2	Febrero	2023-08-02T00:00:00	2024-11-08T14:00:00	6	Velocidad del viento	11.3
105638	7	Sololá	713	San Lucas Tolimán	10	San Lucas Tolimán	2	Febrero	2023-08-02T00:00:00	2024-11-08T14:00:00	7	Dirección del viento	11.27
105639	7	Sololá	713	San Lucas Tolimán	10	San Lucas Tolimán	2	Febrero	2023-08-02T00:00:00	2024-11-08T14:00:00	1	Precipitación	0
105640	7	Sololá	713	San Lucas Tolimán	10	San Lucas Tolimán	2	Febrero	2023-08-02T00:00:00	2024-11-08T14:00:00	8	Radiación solar	911
105641	7	Sololá	713	San Lucas Tolimán	10	San Lucas Tolimán	2	Febrero	2023-08-02T00:00:00	2024-11-08T15:00:00	2	Temperatura media	22.8
105642	7	Sololá	713	San Lucas Tolimán	10	San Lucas Tolimán	2	Febrero	2023-08-02T00:00:00	2024-11-08T15:00:00	4	Temperatura máxima	23.8
105643	7	Sololá	713	San Lucas Tolimán	10	San Lucas Tolimán	2	Febrero	2023-08-02T00:00:00	2024-11-08T15:00:00	3	Temperatura mínima	22.8
105644	7	Sololá	713	San Lucas Tolimán	10	San Lucas Tolimán	2	Febrero	2023-08-02T00:00:00	2024-11-08T15:00:00	5	Humedad	51
105645	7	Sololá	713	San Lucas Tolimán	10	San Lucas Tolimán	2	Febrero	2023-08-02T00:00:00	2024-11-08T15:00:00	6	Velocidad del viento	11.3
105646	7	Sololá	713	San Lucas Tolimán	10	San Lucas Tolimán	2	Febrero	2023-08-02T00:00:00	2024-11-08T15:00:00	7	Dirección del viento	11.27
105647	7	Sololá	713	San Lucas Tolimán	10	San Lucas Tolimán	2	Febrero	2023-08-02T00:00:00	2024-11-08T15:00:00	1	Precipitación	0
105648	7	Sololá	713	San Lucas Tolimán	10	San Lucas Tolimán	2	Febrero	2023-08-02T00:00:00	2024-11-08T15:00:00	8	Radiación solar	849
105649	7	Sololá	713	San Lucas Tolimán	10	San Lucas Tolimán	2	Febrero	2023-08-02T00:00:00	2024-11-08T16:00:00	2	Temperatura media	22.2
105650	7	Sololá	713	San Lucas Tolimán	10	San Lucas Tolimán	2	Febrero	2023-08-02T00:00:00	2024-11-08T16:00:00	4	Temperatura máxima	23.2
105651	7	Sololá	713	San Lucas Tolimán	10	San Lucas Tolimán	2	Febrero	2023-08-02T00:00:00	2024-11-08T16:00:00	3	Temperatura mínima	22.2
105652	7	Sololá	713	San Lucas Tolimán	10	San Lucas Tolimán	2	Febrero	2023-08-02T00:00:00	2024-11-08T16:00:00	5	Humedad	52
105653	7	Sololá	713	San Lucas Tolimán	10	San Lucas Tolimán	2	Febrero	2023-08-02T00:00:00	2024-11-08T16:00:00	6	Velocidad del viento	9.7
105654	7	Sololá	713	San Lucas Tolimán	10	San Lucas Tolimán	2	Febrero	2023-08-02T00:00:00	2024-11-08T16:00:00	7	Dirección del viento	9.66
105655	7	Sololá	713	San Lucas Tolimán	10	San Lucas Tolimán	2	Febrero	2023-08-02T00:00:00	2024-11-08T16:00:00	1	Precipitación	0
105656	7	Sololá	713	San Lucas Tolimán	10	San Lucas Tolimán	2	Febrero	2023-08-02T00:00:00	2024-11-08T16:00:00	8	Radiación solar	522
105657	7	Sololá	713	San Lucas Tolimán	10	San Lucas Tolimán	2	Febrero	2023-08-02T00:00:00	2024-11-08T17:00:00	2	Temperatura media	21.4
105658	7	Sololá	713	San Lucas Tolimán	10	San Lucas Tolimán	2	Febrero	2023-08-02T00:00:00	2024-11-08T17:00:00	4	Temperatura máxima	22.2
105659	7	Sololá	713	San Lucas Tolimán	10	San Lucas Tolimán	2	Febrero	2023-08-02T00:00:00	2024-11-08T17:00:00	3	Temperatura mínima	21.3
105660	7	Sololá	713	San Lucas Tolimán	10	San Lucas Tolimán	2	Febrero	2023-08-02T00:00:00	2024-11-08T17:00:00	5	Humedad	56
105661	7	Sololá	713	San Lucas Tolimán	10	San Lucas Tolimán	2	Febrero	2023-08-02T00:00:00	2024-11-08T17:00:00	6	Velocidad del viento	9.7
105662	7	Sololá	713	San Lucas Tolimán	10	San Lucas Tolimán	2	Febrero	2023-08-02T00:00:00	2024-11-08T17:00:00	7	Dirección del viento	9.66
105663	7	Sololá	713	San Lucas Tolimán	10	San Lucas Tolimán	2	Febrero	2023-08-02T00:00:00	2024-11-08T17:00:00	1	Precipitación	0
105664	7	Sololá	713	San Lucas Tolimán	10	San Lucas Tolimán	2	Febrero	2023-08-02T00:00:00	2024-11-08T17:00:00	8	Radiación solar	200
105665	7	Sololá	713	San Lucas Tolimán	10	San Lucas Tolimán	2	Febrero	2023-08-02T00:00:00	2024-11-08T18:00:00	2	Temperatura media	18.9
105666	7	Sololá	713	San Lucas Tolimán	10	San Lucas Tolimán	2	Febrero	2023-08-02T00:00:00	2024-11-08T18:00:00	4	Temperatura máxima	21.4
105667	7	Sololá	713	San Lucas Tolimán	10	San Lucas Tolimán	2	Febrero	2023-08-02T00:00:00	2024-11-08T18:00:00	3	Temperatura mínima	18.9
105668	7	Sololá	713	San Lucas Tolimán	10	San Lucas Tolimán	2	Febrero	2023-08-02T00:00:00	2024-11-08T18:00:00	5	Humedad	62
105669	7	Sololá	713	San Lucas Tolimán	10	San Lucas Tolimán	2	Febrero	2023-08-02T00:00:00	2024-11-08T18:00:00	6	Velocidad del viento	6.4
105670	7	Sololá	713	San Lucas Tolimán	10	San Lucas Tolimán	2	Febrero	2023-08-02T00:00:00	2024-11-08T18:00:00	7	Dirección del viento	6.44
105671	7	Sololá	713	San Lucas Tolimán	10	San Lucas Tolimán	2	Febrero	2023-08-02T00:00:00	2024-11-08T18:00:00	1	Precipitación	0
105672	7	Sololá	713	San Lucas Tolimán	10	San Lucas Tolimán	2	Febrero	2023-08-02T00:00:00	2024-11-08T18:00:00	8	Radiación solar	58
105673	7	Sololá	713	San Lucas Tolimán	10	San Lucas Tolimán	2	Febrero	2023-08-02T00:00:00	2024-11-08T19:00:00	2	Temperatura media	17.8
105674	7	Sololá	713	San Lucas Tolimán	10	San Lucas Tolimán	2	Febrero	2023-08-02T00:00:00	2024-11-08T19:00:00	4	Temperatura máxima	18.9
105675	7	Sololá	713	San Lucas Tolimán	10	San Lucas Tolimán	2	Febrero	2023-08-02T00:00:00	2024-11-08T19:00:00	3	Temperatura mínima	17.8
105676	7	Sololá	713	San Lucas Tolimán	10	San Lucas Tolimán	2	Febrero	2023-08-02T00:00:00	2024-11-08T19:00:00	5	Humedad	64
105677	7	Sololá	713	San Lucas Tolimán	10	San Lucas Tolimán	2	Febrero	2023-08-02T00:00:00	2024-11-08T19:00:00	6	Velocidad del viento	4.8
105678	7	Sololá	713	San Lucas Tolimán	10	San Lucas Tolimán	2	Febrero	2023-08-02T00:00:00	2024-11-08T19:00:00	7	Dirección del viento	4.83
105679	7	Sololá	713	San Lucas Tolimán	10	San Lucas Tolimán	2	Febrero	2023-08-02T00:00:00	2024-11-08T19:00:00	1	Precipitación	0
105680	7	Sololá	713	San Lucas Tolimán	10	San Lucas Tolimán	2	Febrero	2023-08-02T00:00:00	2024-11-08T19:00:00	8	Radiación solar	0
105681	7	Sololá	713	San Lucas Tolimán	10	San Lucas Tolimán	2	Febrero	2023-08-02T00:00:00	2024-11-08T20:00:00	2	Temperatura media	16.9
105682	7	Sololá	713	San Lucas Tolimán	10	San Lucas Tolimán	2	Febrero	2023-08-02T00:00:00	2024-11-08T20:00:00	4	Temperatura máxima	17.8
105683	7	Sololá	713	San Lucas Tolimán	10	San Lucas Tolimán	2	Febrero	2023-08-02T00:00:00	2024-11-08T20:00:00	3	Temperatura mínima	16.9
105684	7	Sololá	713	San Lucas Tolimán	10	San Lucas Tolimán	2	Febrero	2023-08-02T00:00:00	2024-11-08T20:00:00	5	Humedad	64
105685	7	Sololá	713	San Lucas Tolimán	10	San Lucas Tolimán	2	Febrero	2023-08-02T00:00:00	2024-11-08T20:00:00	6	Velocidad del viento	3.2
105686	7	Sololá	713	San Lucas Tolimán	10	San Lucas Tolimán	2	Febrero	2023-08-02T00:00:00	2024-11-08T20:00:00	7	Dirección del viento	3.22
105687	7	Sololá	713	San Lucas Tolimán	10	San Lucas Tolimán	2	Febrero	2023-08-02T00:00:00	2024-11-08T20:00:00	1	Precipitación	0
105688	7	Sololá	713	San Lucas Tolimán	10	San Lucas Tolimán	2	Febrero	2023-08-02T00:00:00	2024-11-08T20:00:00	8	Radiación solar	0
105689	7	Sololá	713	San Lucas Tolimán	10	San Lucas Tolimán	2	Febrero	2023-08-02T00:00:00	2024-11-08T21:00:00	2	Temperatura media	19.4
105690	7	Sololá	713	San Lucas Tolimán	10	San Lucas Tolimán	2	Febrero	2023-08-02T00:00:00	2024-11-08T21:00:00	4	Temperatura máxima	19.4
105691	7	Sololá	713	San Lucas Tolimán	10	San Lucas Tolimán	2	Febrero	2023-08-02T00:00:00	2024-11-08T21:00:00	3	Temperatura mínima	16.8
105692	7	Sololá	713	San Lucas Tolimán	10	San Lucas Tolimán	2	Febrero	2023-08-02T00:00:00	2024-11-08T21:00:00	5	Humedad	56
105693	7	Sololá	713	San Lucas Tolimán	10	San Lucas Tolimán	2	Febrero	2023-08-02T00:00:00	2024-11-08T21:00:00	6	Velocidad del viento	3.2
105694	7	Sololá	713	San Lucas Tolimán	10	San Lucas Tolimán	2	Febrero	2023-08-02T00:00:00	2024-11-08T21:00:00	7	Dirección del viento	3.22
105695	7	Sololá	713	San Lucas Tolimán	10	San Lucas Tolimán	2	Febrero	2023-08-02T00:00:00	2024-11-08T21:00:00	1	Precipitación	0
105696	7	Sololá	713	San Lucas Tolimán	10	San Lucas Tolimán	2	Febrero	2023-08-02T00:00:00	2024-11-08T21:00:00	8	Radiación solar	0
105697	7	Sololá	713	San Lucas Tolimán	10	San Lucas Tolimán	2	Febrero	2023-08-02T00:00:00	2024-11-08T22:00:00	2	Temperatura media	19.1
105698	7	Sololá	713	San Lucas Tolimán	10	San Lucas Tolimán	2	Febrero	2023-08-02T00:00:00	2024-11-08T22:00:00	4	Temperatura máxima	19.5
105699	7	Sololá	713	San Lucas Tolimán	10	San Lucas Tolimán	2	Febrero	2023-08-02T00:00:00	2024-11-08T22:00:00	3	Temperatura mínima	19.1
105700	7	Sololá	713	San Lucas Tolimán	10	San Lucas Tolimán	2	Febrero	2023-08-02T00:00:00	2024-11-08T22:00:00	5	Humedad	57
105701	7	Sololá	713	San Lucas Tolimán	10	San Lucas Tolimán	2	Febrero	2023-08-02T00:00:00	2024-11-08T22:00:00	6	Velocidad del viento	3.2
105702	7	Sololá	713	San Lucas Tolimán	10	San Lucas Tolimán	2	Febrero	2023-08-02T00:00:00	2024-11-08T22:00:00	7	Dirección del viento	3.22
105703	7	Sololá	713	San Lucas Tolimán	10	San Lucas Tolimán	2	Febrero	2023-08-02T00:00:00	2024-11-08T22:00:00	1	Precipitación	0
105704	7	Sololá	713	San Lucas Tolimán	10	San Lucas Tolimán	2	Febrero	2023-08-02T00:00:00	2024-11-08T22:00:00	8	Radiación solar	0
105705	7	Sololá	713	San Lucas Tolimán	10	San Lucas Tolimán	2	Febrero	2023-08-02T00:00:00	2024-11-08T23:00:00	2	Temperatura media	17.9
105706	7	Sololá	713	San Lucas Tolimán	10	San Lucas Tolimán	2	Febrero	2023-08-02T00:00:00	2024-11-08T23:00:00	4	Temperatura máxima	19.4
105707	7	Sololá	713	San Lucas Tolimán	10	San Lucas Tolimán	2	Febrero	2023-08-02T00:00:00	2024-11-08T23:00:00	3	Temperatura mínima	17.9
105708	7	Sololá	713	San Lucas Tolimán	10	San Lucas Tolimán	2	Febrero	2023-08-02T00:00:00	2024-11-08T23:00:00	5	Humedad	61
105709	7	Sololá	713	San Lucas Tolimán	10	San Lucas Tolimán	2	Febrero	2023-08-02T00:00:00	2024-11-08T23:00:00	6	Velocidad del viento	3.2
105710	7	Sololá	713	San Lucas Tolimán	10	San Lucas Tolimán	2	Febrero	2023-08-02T00:00:00	2024-11-08T23:00:00	7	Dirección del viento	3.22
105711	7	Sololá	713	San Lucas Tolimán	10	San Lucas Tolimán	2	Febrero	2023-08-02T00:00:00	2024-11-08T23:00:00	1	Precipitación	0
105712	7	Sololá	713	San Lucas Tolimán	10	San Lucas Tolimán	2	Febrero	2023-08-02T00:00:00	2024-11-08T23:00:00	8	Radiación solar	0
105713	7	Sololá	713	San Lucas Tolimán	10	San Lucas Tolimán	2	Febrero	2023-09-02T00:00:00	2024-11-08T00:00:00	2	Temperatura media	17.1
105714	7	Sololá	713	San Lucas Tolimán	10	San Lucas Tolimán	2	Febrero	2023-09-02T00:00:00	2024-11-08T00:00:00	4	Temperatura máxima	17.9
105715	7	Sololá	713	San Lucas Tolimán	10	San Lucas Tolimán	2	Febrero	2023-09-02T00:00:00	2024-11-08T00:00:00	3	Temperatura mínima	16.7
105716	7	Sololá	713	San Lucas Tolimán	10	San Lucas Tolimán	2	Febrero	2023-09-02T00:00:00	2024-11-08T00:00:00	5	Humedad	59
105717	7	Sololá	713	San Lucas Tolimán	10	San Lucas Tolimán	2	Febrero	2023-09-02T00:00:00	2024-11-08T00:00:00	6	Velocidad del viento	3.2
105718	7	Sololá	713	San Lucas Tolimán	10	San Lucas Tolimán	2	Febrero	2023-09-02T00:00:00	2024-11-08T00:00:00	7	Dirección del viento	3.22
105719	7	Sololá	713	San Lucas Tolimán	10	San Lucas Tolimán	2	Febrero	2023-09-02T00:00:00	2024-11-08T00:00:00	1	Precipitación	0
105720	7	Sololá	713	San Lucas Tolimán	10	San Lucas Tolimán	2	Febrero	2023-09-02T00:00:00	2024-11-08T00:00:00	8	Radiación solar	0
105721	7	Sololá	713	San Lucas Tolimán	10	San Lucas Tolimán	2	Febrero	2023-09-02T00:00:00	2024-11-08T01:00:00	2	Temperatura media	15.3
105722	7	Sololá	713	San Lucas Tolimán	10	San Lucas Tolimán	2	Febrero	2023-09-02T00:00:00	2024-11-08T01:00:00	4	Temperatura máxima	17.4
105723	7	Sololá	713	San Lucas Tolimán	10	San Lucas Tolimán	2	Febrero	2023-09-02T00:00:00	2024-11-08T01:00:00	3	Temperatura mínima	15.3
105724	7	Sololá	713	San Lucas Tolimán	10	San Lucas Tolimán	2	Febrero	2023-09-02T00:00:00	2024-11-08T01:00:00	5	Humedad	64
105725	7	Sololá	713	San Lucas Tolimán	10	San Lucas Tolimán	2	Febrero	2023-09-02T00:00:00	2024-11-08T01:00:00	6	Velocidad del viento	3.2
105726	7	Sololá	713	San Lucas Tolimán	10	San Lucas Tolimán	2	Febrero	2023-09-02T00:00:00	2024-11-08T01:00:00	7	Dirección del viento	3.22
105727	7	Sololá	713	San Lucas Tolimán	10	San Lucas Tolimán	2	Febrero	2023-09-02T00:00:00	2024-11-08T01:00:00	1	Precipitación	0
105728	7	Sololá	713	San Lucas Tolimán	10	San Lucas Tolimán	2	Febrero	2023-09-02T00:00:00	2024-11-08T01:00:00	8	Radiación solar	0
105729	7	Sololá	713	San Lucas Tolimán	10	San Lucas Tolimán	2	Febrero	2023-09-02T00:00:00	2024-11-08T02:00:00	2	Temperatura media	14.9
105730	7	Sololá	713	San Lucas Tolimán	10	San Lucas Tolimán	2	Febrero	2023-09-02T00:00:00	2024-11-08T02:00:00	4	Temperatura máxima	15.4
105731	7	Sololá	713	San Lucas Tolimán	10	San Lucas Tolimán	2	Febrero	2023-09-02T00:00:00	2024-11-08T02:00:00	3	Temperatura mínima	14.9
105732	7	Sololá	713	San Lucas Tolimán	10	San Lucas Tolimán	2	Febrero	2023-09-02T00:00:00	2024-11-08T02:00:00	5	Humedad	64
105733	7	Sololá	713	San Lucas Tolimán	10	San Lucas Tolimán	2	Febrero	2023-09-02T00:00:00	2024-11-08T02:00:00	6	Velocidad del viento	6.4
105734	7	Sololá	713	San Lucas Tolimán	10	San Lucas Tolimán	2	Febrero	2023-09-02T00:00:00	2024-11-08T02:00:00	7	Dirección del viento	6.44
105735	7	Sololá	713	San Lucas Tolimán	10	San Lucas Tolimán	2	Febrero	2023-09-02T00:00:00	2024-11-08T02:00:00	1	Precipitación	0
105736	7	Sololá	713	San Lucas Tolimán	10	San Lucas Tolimán	2	Febrero	2023-09-02T00:00:00	2024-11-08T02:00:00	8	Radiación solar	0
105737	7	Sololá	713	San Lucas Tolimán	10	San Lucas Tolimán	2	Febrero	2023-09-02T00:00:00	2024-11-08T03:00:00	2	Temperatura media	14.5
105738	7	Sololá	713	San Lucas Tolimán	10	San Lucas Tolimán	2	Febrero	2023-09-02T00:00:00	2024-11-08T03:00:00	4	Temperatura máxima	15
105739	7	Sololá	713	San Lucas Tolimán	10	San Lucas Tolimán	2	Febrero	2023-09-02T00:00:00	2024-11-08T03:00:00	3	Temperatura mínima	14.4
105740	7	Sololá	713	San Lucas Tolimán	10	San Lucas Tolimán	2	Febrero	2023-09-02T00:00:00	2024-11-08T03:00:00	5	Humedad	61
105741	7	Sololá	713	San Lucas Tolimán	10	San Lucas Tolimán	2	Febrero	2023-09-02T00:00:00	2024-11-08T03:00:00	6	Velocidad del viento	6.4
105742	7	Sololá	713	San Lucas Tolimán	10	San Lucas Tolimán	2	Febrero	2023-09-02T00:00:00	2024-11-08T03:00:00	7	Dirección del viento	6.44
105743	7	Sololá	713	San Lucas Tolimán	10	San Lucas Tolimán	2	Febrero	2023-09-02T00:00:00	2024-11-08T03:00:00	1	Precipitación	0
105744	7	Sololá	713	San Lucas Tolimán	10	San Lucas Tolimán	2	Febrero	2023-09-02T00:00:00	2024-11-08T03:00:00	8	Radiación solar	0
105745	7	Sololá	713	San Lucas Tolimán	10	San Lucas Tolimán	2	Febrero	2023-09-02T00:00:00	2024-11-08T04:00:00	2	Temperatura media	13.9
105746	7	Sololá	713	San Lucas Tolimán	10	San Lucas Tolimán	2	Febrero	2023-09-02T00:00:00	2024-11-08T04:00:00	4	Temperatura máxima	14.7
105747	7	Sololá	713	San Lucas Tolimán	10	San Lucas Tolimán	2	Febrero	2023-09-02T00:00:00	2024-11-08T04:00:00	3	Temperatura mínima	13.9
105748	7	Sololá	713	San Lucas Tolimán	10	San Lucas Tolimán	2	Febrero	2023-09-02T00:00:00	2024-11-08T04:00:00	5	Humedad	62
105749	7	Sololá	713	San Lucas Tolimán	10	San Lucas Tolimán	2	Febrero	2023-09-02T00:00:00	2024-11-08T04:00:00	6	Velocidad del viento	4.8
105750	7	Sololá	713	San Lucas Tolimán	10	San Lucas Tolimán	2	Febrero	2023-09-02T00:00:00	2024-11-08T04:00:00	7	Dirección del viento	4.83
105751	7	Sololá	713	San Lucas Tolimán	10	San Lucas Tolimán	2	Febrero	2023-09-02T00:00:00	2024-11-08T04:00:00	1	Precipitación	0
105752	7	Sololá	713	San Lucas Tolimán	10	San Lucas Tolimán	2	Febrero	2023-09-02T00:00:00	2024-11-08T04:00:00	8	Radiación solar	0
105753	7	Sololá	713	San Lucas Tolimán	10	San Lucas Tolimán	2	Febrero	2023-09-02T00:00:00	2024-11-08T05:00:00	2	Temperatura media	13
105754	7	Sololá	713	San Lucas Tolimán	10	San Lucas Tolimán	2	Febrero	2023-09-02T00:00:00	2024-11-08T05:00:00	4	Temperatura máxima	14
105755	7	Sololá	713	San Lucas Tolimán	10	San Lucas Tolimán	2	Febrero	2023-09-02T00:00:00	2024-11-08T05:00:00	3	Temperatura mínima	13
105756	7	Sololá	713	San Lucas Tolimán	10	San Lucas Tolimán	2	Febrero	2023-09-02T00:00:00	2024-11-08T05:00:00	5	Humedad	63
105757	7	Sololá	713	San Lucas Tolimán	10	San Lucas Tolimán	2	Febrero	2023-09-02T00:00:00	2024-11-08T05:00:00	6	Velocidad del viento	3.2
105758	7	Sololá	713	San Lucas Tolimán	10	San Lucas Tolimán	2	Febrero	2023-09-02T00:00:00	2024-11-08T05:00:00	7	Dirección del viento	3.22
105759	7	Sololá	713	San Lucas Tolimán	10	San Lucas Tolimán	2	Febrero	2023-09-02T00:00:00	2024-11-08T05:00:00	1	Precipitación	0
105760	7	Sololá	713	San Lucas Tolimán	10	San Lucas Tolimán	2	Febrero	2023-09-02T00:00:00	2024-11-08T05:00:00	8	Radiación solar	0
105761	7	Sololá	713	San Lucas Tolimán	10	San Lucas Tolimán	2	Febrero	2023-09-02T00:00:00	2024-11-08T06:00:00	2	Temperatura media	12.6
105762	7	Sololá	713	San Lucas Tolimán	10	San Lucas Tolimán	2	Febrero	2023-09-02T00:00:00	2024-11-08T06:00:00	4	Temperatura máxima	13.1
105763	7	Sololá	713	San Lucas Tolimán	10	San Lucas Tolimán	2	Febrero	2023-09-02T00:00:00	2024-11-08T06:00:00	3	Temperatura mínima	12.4
105764	7	Sololá	713	San Lucas Tolimán	10	San Lucas Tolimán	2	Febrero	2023-09-02T00:00:00	2024-11-08T06:00:00	5	Humedad	64
105765	7	Sololá	713	San Lucas Tolimán	10	San Lucas Tolimán	2	Febrero	2023-09-02T00:00:00	2024-11-08T06:00:00	6	Velocidad del viento	3.2
105766	7	Sololá	713	San Lucas Tolimán	10	San Lucas Tolimán	2	Febrero	2023-09-02T00:00:00	2024-11-08T06:00:00	7	Dirección del viento	3.22
105767	7	Sololá	713	San Lucas Tolimán	10	San Lucas Tolimán	2	Febrero	2023-09-02T00:00:00	2024-11-08T06:00:00	1	Precipitación	0
105768	7	Sololá	713	San Lucas Tolimán	10	San Lucas Tolimán	2	Febrero	2023-09-02T00:00:00	2024-11-08T06:00:00	8	Radiación solar	0
105769	7	Sololá	713	San Lucas Tolimán	10	San Lucas Tolimán	2	Febrero	2023-09-02T00:00:00	2024-11-08T07:00:00	2	Temperatura media	12.7
105770	7	Sololá	713	San Lucas Tolimán	10	San Lucas Tolimán	2	Febrero	2023-09-02T00:00:00	2024-11-08T07:00:00	4	Temperatura máxima	12.7
105771	7	Sololá	713	San Lucas Tolimán	10	San Lucas Tolimán	2	Febrero	2023-09-02T00:00:00	2024-11-08T07:00:00	3	Temperatura mínima	12.3
105772	7	Sololá	713	San Lucas Tolimán	10	San Lucas Tolimán	2	Febrero	2023-09-02T00:00:00	2024-11-08T07:00:00	5	Humedad	61
105773	7	Sololá	713	San Lucas Tolimán	10	San Lucas Tolimán	2	Febrero	2023-09-02T00:00:00	2024-11-08T07:00:00	6	Velocidad del viento	0
105774	7	Sololá	713	San Lucas Tolimán	10	San Lucas Tolimán	2	Febrero	2023-09-02T00:00:00	2024-11-08T07:00:00	7	Dirección del viento	0
105775	7	Sololá	713	San Lucas Tolimán	10	San Lucas Tolimán	2	Febrero	2023-09-02T00:00:00	2024-11-08T07:00:00	1	Precipitación	0
105776	7	Sololá	713	San Lucas Tolimán	10	San Lucas Tolimán	2	Febrero	2023-09-02T00:00:00	2024-11-08T07:00:00	8	Radiación solar	5
105777	7	Sololá	713	San Lucas Tolimán	10	San Lucas Tolimán	2	Febrero	2023-09-02T00:00:00	2024-11-08T08:00:00	2	Temperatura media	15
105778	7	Sololá	713	San Lucas Tolimán	10	San Lucas Tolimán	2	Febrero	2023-09-02T00:00:00	2024-11-08T08:00:00	4	Temperatura máxima	15
105779	7	Sololá	713	San Lucas Tolimán	10	San Lucas Tolimán	2	Febrero	2023-09-02T00:00:00	2024-11-08T08:00:00	3	Temperatura mínima	12.7
105780	7	Sololá	713	San Lucas Tolimán	10	San Lucas Tolimán	2	Febrero	2023-09-02T00:00:00	2024-11-08T08:00:00	5	Humedad	57
105781	7	Sololá	713	San Lucas Tolimán	10	San Lucas Tolimán	2	Febrero	2023-09-02T00:00:00	2024-11-08T08:00:00	6	Velocidad del viento	0
105782	7	Sololá	713	San Lucas Tolimán	10	San Lucas Tolimán	2	Febrero	2023-09-02T00:00:00	2024-11-08T08:00:00	7	Dirección del viento	0
105783	7	Sololá	713	San Lucas Tolimán	10	San Lucas Tolimán	2	Febrero	2023-09-02T00:00:00	2024-11-08T08:00:00	1	Precipitación	0
105784	7	Sololá	713	San Lucas Tolimán	10	San Lucas Tolimán	2	Febrero	2023-09-02T00:00:00	2024-11-08T08:00:00	8	Radiación solar	25
105785	7	Sololá	713	San Lucas Tolimán	10	San Lucas Tolimán	2	Febrero	2023-09-02T00:00:00	2024-11-08T09:00:00	2	Temperatura media	17.9
105786	7	Sololá	713	San Lucas Tolimán	10	San Lucas Tolimán	2	Febrero	2023-09-02T00:00:00	2024-11-08T09:00:00	4	Temperatura máxima	18
105787	7	Sololá	713	San Lucas Tolimán	10	San Lucas Tolimán	2	Febrero	2023-09-02T00:00:00	2024-11-08T09:00:00	3	Temperatura mínima	15
105788	7	Sololá	713	San Lucas Tolimán	10	San Lucas Tolimán	2	Febrero	2023-09-02T00:00:00	2024-11-08T09:00:00	5	Humedad	54
105789	7	Sololá	713	San Lucas Tolimán	10	San Lucas Tolimán	2	Febrero	2023-09-02T00:00:00	2024-11-08T09:00:00	6	Velocidad del viento	4.8
105790	7	Sololá	713	San Lucas Tolimán	10	San Lucas Tolimán	2	Febrero	2023-09-02T00:00:00	2024-11-08T09:00:00	7	Dirección del viento	4.83
105791	7	Sololá	713	San Lucas Tolimán	10	San Lucas Tolimán	2	Febrero	2023-09-02T00:00:00	2024-11-08T09:00:00	1	Precipitación	0
105792	7	Sololá	713	San Lucas Tolimán	10	San Lucas Tolimán	2	Febrero	2023-09-02T00:00:00	2024-11-08T09:00:00	8	Radiación solar	384
105793	7	Sololá	713	San Lucas Tolimán	10	San Lucas Tolimán	2	Febrero	2023-09-02T00:00:00	2024-11-08T10:00:00	2	Temperatura media	20.2
105794	7	Sololá	713	San Lucas Tolimán	10	San Lucas Tolimán	2	Febrero	2023-09-02T00:00:00	2024-11-08T10:00:00	4	Temperatura máxima	20.2
105795	7	Sololá	713	San Lucas Tolimán	10	San Lucas Tolimán	2	Febrero	2023-09-02T00:00:00	2024-11-08T10:00:00	3	Temperatura mínima	17.8
105796	7	Sololá	713	San Lucas Tolimán	10	San Lucas Tolimán	2	Febrero	2023-09-02T00:00:00	2024-11-08T10:00:00	5	Humedad	50
105797	7	Sololá	713	San Lucas Tolimán	10	San Lucas Tolimán	2	Febrero	2023-09-02T00:00:00	2024-11-08T10:00:00	6	Velocidad del viento	4.8
105798	7	Sololá	713	San Lucas Tolimán	10	San Lucas Tolimán	2	Febrero	2023-09-02T00:00:00	2024-11-08T10:00:00	7	Dirección del viento	4.83
105799	7	Sololá	713	San Lucas Tolimán	10	San Lucas Tolimán	2	Febrero	2023-09-02T00:00:00	2024-11-08T10:00:00	1	Precipitación	0
105800	7	Sololá	713	San Lucas Tolimán	10	San Lucas Tolimán	2	Febrero	2023-09-02T00:00:00	2024-11-08T10:00:00	8	Radiación solar	628
105801	7	Sololá	713	San Lucas Tolimán	10	San Lucas Tolimán	2	Febrero	2023-09-02T00:00:00	2024-11-08T11:00:00	2	Temperatura media	22.9
105802	7	Sololá	713	San Lucas Tolimán	10	San Lucas Tolimán	2	Febrero	2023-09-02T00:00:00	2024-11-08T11:00:00	4	Temperatura máxima	23.7
105803	7	Sololá	713	San Lucas Tolimán	10	San Lucas Tolimán	2	Febrero	2023-09-02T00:00:00	2024-11-08T11:00:00	3	Temperatura mínima	20.2
105804	7	Sololá	713	San Lucas Tolimán	10	San Lucas Tolimán	2	Febrero	2023-09-02T00:00:00	2024-11-08T11:00:00	5	Humedad	46
105805	7	Sololá	713	San Lucas Tolimán	10	San Lucas Tolimán	2	Febrero	2023-09-02T00:00:00	2024-11-08T11:00:00	6	Velocidad del viento	6.4
105806	7	Sololá	713	San Lucas Tolimán	10	San Lucas Tolimán	2	Febrero	2023-09-02T00:00:00	2024-11-08T11:00:00	7	Dirección del viento	6.44
105807	7	Sololá	713	San Lucas Tolimán	10	San Lucas Tolimán	2	Febrero	2023-09-02T00:00:00	2024-11-08T11:00:00	1	Precipitación	0
105808	7	Sololá	713	San Lucas Tolimán	10	San Lucas Tolimán	2	Febrero	2023-09-02T00:00:00	2024-11-08T11:00:00	8	Radiación solar	801
105809	7	Sololá	713	San Lucas Tolimán	10	San Lucas Tolimán	2	Febrero	2023-09-02T00:00:00	2024-11-08T12:00:00	2	Temperatura media	22.8
105810	7	Sololá	713	San Lucas Tolimán	10	San Lucas Tolimán	2	Febrero	2023-09-02T00:00:00	2024-11-08T12:00:00	4	Temperatura máxima	23.1
105811	7	Sololá	713	San Lucas Tolimán	10	San Lucas Tolimán	2	Febrero	2023-09-02T00:00:00	2024-11-08T12:00:00	3	Temperatura mínima	22.6
105812	7	Sololá	713	San Lucas Tolimán	10	San Lucas Tolimán	2	Febrero	2023-09-02T00:00:00	2024-11-08T12:00:00	5	Humedad	53
105813	7	Sololá	713	San Lucas Tolimán	10	San Lucas Tolimán	2	Febrero	2023-09-02T00:00:00	2024-11-08T12:00:00	6	Velocidad del viento	11.3
105814	7	Sololá	713	San Lucas Tolimán	10	San Lucas Tolimán	2	Febrero	2023-09-02T00:00:00	2024-11-08T12:00:00	7	Dirección del viento	11.27
105815	7	Sololá	713	San Lucas Tolimán	10	San Lucas Tolimán	2	Febrero	2023-09-02T00:00:00	2024-11-08T12:00:00	1	Precipitación	0
105816	7	Sololá	713	San Lucas Tolimán	10	San Lucas Tolimán	2	Febrero	2023-09-02T00:00:00	2024-11-08T12:00:00	8	Radiación solar	913
105817	7	Sololá	713	San Lucas Tolimán	10	San Lucas Tolimán	2	Febrero	2023-09-02T00:00:00	2024-11-08T13:00:00	2	Temperatura media	22.3
105818	7	Sololá	713	San Lucas Tolimán	10	San Lucas Tolimán	2	Febrero	2023-09-02T00:00:00	2024-11-08T13:00:00	4	Temperatura máxima	23
105819	7	Sololá	713	San Lucas Tolimán	10	San Lucas Tolimán	2	Febrero	2023-09-02T00:00:00	2024-11-08T13:00:00	3	Temperatura mínima	21.7
105820	7	Sololá	713	San Lucas Tolimán	10	San Lucas Tolimán	2	Febrero	2023-09-02T00:00:00	2024-11-08T13:00:00	5	Humedad	57
105821	7	Sololá	713	San Lucas Tolimán	10	San Lucas Tolimán	2	Febrero	2023-09-02T00:00:00	2024-11-08T13:00:00	6	Velocidad del viento	14.5
105822	7	Sololá	713	San Lucas Tolimán	10	San Lucas Tolimán	2	Febrero	2023-09-02T00:00:00	2024-11-08T13:00:00	7	Dirección del viento	14.48
105823	7	Sololá	713	San Lucas Tolimán	10	San Lucas Tolimán	2	Febrero	2023-09-02T00:00:00	2024-11-08T13:00:00	1	Precipitación	0
105824	7	Sololá	713	San Lucas Tolimán	10	San Lucas Tolimán	2	Febrero	2023-09-02T00:00:00	2024-11-08T13:00:00	8	Radiación solar	964
105825	7	Sololá	713	San Lucas Tolimán	10	San Lucas Tolimán	2	Febrero	2023-09-02T00:00:00	2024-11-08T14:00:00	2	Temperatura media	21.8
105826	7	Sololá	713	San Lucas Tolimán	10	San Lucas Tolimán	2	Febrero	2023-09-02T00:00:00	2024-11-08T14:00:00	4	Temperatura máxima	22.3
105827	7	Sololá	713	San Lucas Tolimán	10	San Lucas Tolimán	2	Febrero	2023-09-02T00:00:00	2024-11-08T14:00:00	3	Temperatura mínima	21.6
105828	7	Sololá	713	San Lucas Tolimán	10	San Lucas Tolimán	2	Febrero	2023-09-02T00:00:00	2024-11-08T14:00:00	5	Humedad	58
105829	7	Sololá	713	San Lucas Tolimán	10	San Lucas Tolimán	2	Febrero	2023-09-02T00:00:00	2024-11-08T14:00:00	6	Velocidad del viento	14.5
105830	7	Sololá	713	San Lucas Tolimán	10	San Lucas Tolimán	2	Febrero	2023-09-02T00:00:00	2024-11-08T14:00:00	7	Dirección del viento	14.48
105831	7	Sololá	713	San Lucas Tolimán	10	San Lucas Tolimán	2	Febrero	2023-09-02T00:00:00	2024-11-08T14:00:00	1	Precipitación	0
105832	7	Sololá	713	San Lucas Tolimán	10	San Lucas Tolimán	2	Febrero	2023-09-02T00:00:00	2024-11-08T14:00:00	8	Radiación solar	936
105833	7	Sololá	713	San Lucas Tolimán	10	San Lucas Tolimán	2	Febrero	2023-09-02T00:00:00	2024-11-08T15:00:00	2	Temperatura media	21.5
105834	7	Sololá	713	San Lucas Tolimán	10	San Lucas Tolimán	2	Febrero	2023-09-02T00:00:00	2024-11-08T15:00:00	4	Temperatura máxima	22.3
105835	7	Sololá	713	San Lucas Tolimán	10	San Lucas Tolimán	2	Febrero	2023-09-02T00:00:00	2024-11-08T15:00:00	3	Temperatura mínima	21.4
105836	7	Sololá	713	San Lucas Tolimán	10	San Lucas Tolimán	2	Febrero	2023-09-02T00:00:00	2024-11-08T15:00:00	5	Humedad	59
105837	7	Sololá	713	San Lucas Tolimán	10	San Lucas Tolimán	2	Febrero	2023-09-02T00:00:00	2024-11-08T15:00:00	6	Velocidad del viento	14.5
105838	7	Sololá	713	San Lucas Tolimán	10	San Lucas Tolimán	2	Febrero	2023-09-02T00:00:00	2024-11-08T15:00:00	7	Dirección del viento	14.48
105839	7	Sololá	713	San Lucas Tolimán	10	San Lucas Tolimán	2	Febrero	2023-09-02T00:00:00	2024-11-08T15:00:00	1	Precipitación	0
105840	7	Sololá	713	San Lucas Tolimán	10	San Lucas Tolimán	2	Febrero	2023-09-02T00:00:00	2024-11-08T15:00:00	8	Radiación solar	717
105841	7	Sololá	713	San Lucas Tolimán	10	San Lucas Tolimán	2	Febrero	2023-09-02T00:00:00	2024-11-08T16:00:00	2	Temperatura media	20.9
105842	7	Sololá	713	San Lucas Tolimán	10	San Lucas Tolimán	2	Febrero	2023-09-02T00:00:00	2024-11-08T16:00:00	4	Temperatura máxima	21.8
105843	7	Sololá	713	San Lucas Tolimán	10	San Lucas Tolimán	2	Febrero	2023-09-02T00:00:00	2024-11-08T16:00:00	3	Temperatura mínima	20.9
105844	7	Sololá	713	San Lucas Tolimán	10	San Lucas Tolimán	2	Febrero	2023-09-02T00:00:00	2024-11-08T16:00:00	5	Humedad	63
105845	7	Sololá	713	San Lucas Tolimán	10	San Lucas Tolimán	2	Febrero	2023-09-02T00:00:00	2024-11-08T16:00:00	6	Velocidad del viento	14.5
105846	7	Sololá	713	San Lucas Tolimán	10	San Lucas Tolimán	2	Febrero	2023-09-02T00:00:00	2024-11-08T16:00:00	7	Dirección del viento	14.48
105847	7	Sololá	713	San Lucas Tolimán	10	San Lucas Tolimán	2	Febrero	2023-09-02T00:00:00	2024-11-08T16:00:00	1	Precipitación	0
105848	7	Sololá	713	San Lucas Tolimán	10	San Lucas Tolimán	2	Febrero	2023-09-02T00:00:00	2024-11-08T16:00:00	8	Radiación solar	543
105849	7	Sololá	713	San Lucas Tolimán	10	San Lucas Tolimán	2	Febrero	2023-09-02T00:00:00	2024-11-08T17:00:00	2	Temperatura media	21
105850	7	Sololá	713	San Lucas Tolimán	10	San Lucas Tolimán	2	Febrero	2023-09-02T00:00:00	2024-11-08T17:00:00	4	Temperatura máxima	21.3
105851	7	Sololá	713	San Lucas Tolimán	10	San Lucas Tolimán	2	Febrero	2023-09-02T00:00:00	2024-11-08T17:00:00	3	Temperatura mínima	20.7
105852	7	Sololá	713	San Lucas Tolimán	10	San Lucas Tolimán	2	Febrero	2023-09-02T00:00:00	2024-11-08T17:00:00	5	Humedad	62
105853	7	Sololá	713	San Lucas Tolimán	10	San Lucas Tolimán	2	Febrero	2023-09-02T00:00:00	2024-11-08T17:00:00	6	Velocidad del viento	11.3
105854	7	Sololá	713	San Lucas Tolimán	10	San Lucas Tolimán	2	Febrero	2023-09-02T00:00:00	2024-11-08T17:00:00	7	Dirección del viento	11.27
105855	7	Sololá	713	San Lucas Tolimán	10	San Lucas Tolimán	2	Febrero	2023-09-02T00:00:00	2024-11-08T17:00:00	1	Precipitación	0
105856	7	Sololá	713	San Lucas Tolimán	10	San Lucas Tolimán	2	Febrero	2023-09-02T00:00:00	2024-11-08T17:00:00	8	Radiación solar	272
105857	7	Sololá	713	San Lucas Tolimán	10	San Lucas Tolimán	2	Febrero	2023-09-02T00:00:00	2024-11-08T18:00:00	2	Temperatura media	19.3
105858	7	Sololá	713	San Lucas Tolimán	10	San Lucas Tolimán	2	Febrero	2023-09-02T00:00:00	2024-11-08T18:00:00	4	Temperatura máxima	21.1
105859	7	Sololá	713	San Lucas Tolimán	10	San Lucas Tolimán	2	Febrero	2023-09-02T00:00:00	2024-11-08T18:00:00	3	Temperatura mínima	19.3
105860	7	Sololá	713	San Lucas Tolimán	10	San Lucas Tolimán	2	Febrero	2023-09-02T00:00:00	2024-11-08T18:00:00	5	Humedad	63
105861	7	Sololá	713	San Lucas Tolimán	10	San Lucas Tolimán	2	Febrero	2023-09-02T00:00:00	2024-11-08T18:00:00	6	Velocidad del viento	8
105862	7	Sololá	713	San Lucas Tolimán	10	San Lucas Tolimán	2	Febrero	2023-09-02T00:00:00	2024-11-08T18:00:00	7	Dirección del viento	8.05
105863	7	Sololá	713	San Lucas Tolimán	10	San Lucas Tolimán	2	Febrero	2023-09-02T00:00:00	2024-11-08T18:00:00	1	Precipitación	0
105864	7	Sololá	713	San Lucas Tolimán	10	San Lucas Tolimán	2	Febrero	2023-09-02T00:00:00	2024-11-08T18:00:00	8	Radiación solar	33
105865	7	Sololá	713	San Lucas Tolimán	10	San Lucas Tolimán	2	Febrero	2023-09-02T00:00:00	2024-11-08T19:00:00	2	Temperatura media	18.2
105866	7	Sololá	713	San Lucas Tolimán	10	San Lucas Tolimán	2	Febrero	2023-09-02T00:00:00	2024-11-08T19:00:00	4	Temperatura máxima	19.3
105867	7	Sololá	713	San Lucas Tolimán	10	San Lucas Tolimán	2	Febrero	2023-09-02T00:00:00	2024-11-08T19:00:00	3	Temperatura mínima	18.2
105868	7	Sololá	713	San Lucas Tolimán	10	San Lucas Tolimán	2	Febrero	2023-09-02T00:00:00	2024-11-08T19:00:00	5	Humedad	64
105869	7	Sololá	713	San Lucas Tolimán	10	San Lucas Tolimán	2	Febrero	2023-09-02T00:00:00	2024-11-08T19:00:00	6	Velocidad del viento	4.8
105870	7	Sololá	713	San Lucas Tolimán	10	San Lucas Tolimán	2	Febrero	2023-09-02T00:00:00	2024-11-08T19:00:00	7	Dirección del viento	4.83
105871	7	Sololá	713	San Lucas Tolimán	10	San Lucas Tolimán	2	Febrero	2023-09-02T00:00:00	2024-11-08T19:00:00	1	Precipitación	0
105872	7	Sololá	713	San Lucas Tolimán	10	San Lucas Tolimán	2	Febrero	2023-09-02T00:00:00	2024-11-08T19:00:00	8	Radiación solar	0
105873	7	Sololá	713	San Lucas Tolimán	10	San Lucas Tolimán	2	Febrero	2023-09-02T00:00:00	2024-11-08T20:00:00	2	Temperatura media	17
105874	7	Sololá	713	San Lucas Tolimán	10	San Lucas Tolimán	2	Febrero	2023-09-02T00:00:00	2024-11-08T20:00:00	4	Temperatura máxima	18.2
105875	7	Sololá	713	San Lucas Tolimán	10	San Lucas Tolimán	2	Febrero	2023-09-02T00:00:00	2024-11-08T20:00:00	3	Temperatura mínima	17
105876	7	Sololá	713	San Lucas Tolimán	10	San Lucas Tolimán	2	Febrero	2023-09-02T00:00:00	2024-11-08T20:00:00	5	Humedad	59
105877	7	Sololá	713	San Lucas Tolimán	10	San Lucas Tolimán	2	Febrero	2023-09-02T00:00:00	2024-11-08T20:00:00	6	Velocidad del viento	3.2
105878	7	Sololá	713	San Lucas Tolimán	10	San Lucas Tolimán	2	Febrero	2023-09-02T00:00:00	2024-11-08T20:00:00	7	Dirección del viento	3.22
105879	7	Sololá	713	San Lucas Tolimán	10	San Lucas Tolimán	2	Febrero	2023-09-02T00:00:00	2024-11-08T20:00:00	1	Precipitación	0
105880	7	Sololá	713	San Lucas Tolimán	10	San Lucas Tolimán	2	Febrero	2023-09-02T00:00:00	2024-11-08T20:00:00	8	Radiación solar	0
105881	7	Sololá	713	San Lucas Tolimán	10	San Lucas Tolimán	2	Febrero	2023-09-02T00:00:00	2024-11-08T21:00:00	2	Temperatura media	18.3
105882	7	Sololá	713	San Lucas Tolimán	10	San Lucas Tolimán	2	Febrero	2023-09-02T00:00:00	2024-11-08T21:00:00	4	Temperatura máxima	18.3
105883	7	Sololá	713	San Lucas Tolimán	10	San Lucas Tolimán	2	Febrero	2023-09-02T00:00:00	2024-11-08T21:00:00	3	Temperatura mínima	16.9
105884	7	Sololá	713	San Lucas Tolimán	10	San Lucas Tolimán	2	Febrero	2023-09-02T00:00:00	2024-11-08T21:00:00	5	Humedad	55
105885	7	Sololá	713	San Lucas Tolimán	10	San Lucas Tolimán	2	Febrero	2023-09-02T00:00:00	2024-11-08T21:00:00	6	Velocidad del viento	3.2
105886	7	Sololá	713	San Lucas Tolimán	10	San Lucas Tolimán	2	Febrero	2023-09-02T00:00:00	2024-11-08T21:00:00	7	Dirección del viento	3.22
105887	7	Sololá	713	San Lucas Tolimán	10	San Lucas Tolimán	2	Febrero	2023-09-02T00:00:00	2024-11-08T21:00:00	1	Precipitación	0
105888	7	Sololá	713	San Lucas Tolimán	10	San Lucas Tolimán	2	Febrero	2023-09-02T00:00:00	2024-11-08T21:00:00	8	Radiación solar	0
105889	7	Sololá	713	San Lucas Tolimán	10	San Lucas Tolimán	2	Febrero	2023-09-02T00:00:00	2024-11-08T22:00:00	2	Temperatura media	18.8
105890	7	Sololá	713	San Lucas Tolimán	10	San Lucas Tolimán	2	Febrero	2023-09-02T00:00:00	2024-11-08T22:00:00	4	Temperatura máxima	18.9
105891	7	Sololá	713	San Lucas Tolimán	10	San Lucas Tolimán	2	Febrero	2023-09-02T00:00:00	2024-11-08T22:00:00	3	Temperatura mínima	18.3
105892	7	Sololá	713	San Lucas Tolimán	10	San Lucas Tolimán	2	Febrero	2023-09-02T00:00:00	2024-11-08T22:00:00	5	Humedad	53
105893	7	Sololá	713	San Lucas Tolimán	10	San Lucas Tolimán	2	Febrero	2023-09-02T00:00:00	2024-11-08T22:00:00	6	Velocidad del viento	11.3
105894	7	Sololá	713	San Lucas Tolimán	10	San Lucas Tolimán	2	Febrero	2023-09-02T00:00:00	2024-11-08T22:00:00	7	Dirección del viento	11.27
105895	7	Sololá	713	San Lucas Tolimán	10	San Lucas Tolimán	2	Febrero	2023-09-02T00:00:00	2024-11-08T22:00:00	1	Precipitación	0
105896	7	Sololá	713	San Lucas Tolimán	10	San Lucas Tolimán	2	Febrero	2023-09-02T00:00:00	2024-11-08T22:00:00	8	Radiación solar	0
105897	7	Sololá	713	San Lucas Tolimán	10	San Lucas Tolimán	2	Febrero	2023-09-02T00:00:00	2024-11-08T23:00:00	2	Temperatura media	18.5
105898	7	Sololá	713	San Lucas Tolimán	10	San Lucas Tolimán	2	Febrero	2023-09-02T00:00:00	2024-11-08T23:00:00	4	Temperatura máxima	18.8
105899	7	Sololá	713	San Lucas Tolimán	10	San Lucas Tolimán	2	Febrero	2023-09-02T00:00:00	2024-11-08T23:00:00	3	Temperatura mínima	18.3
105900	7	Sololá	713	San Lucas Tolimán	10	San Lucas Tolimán	2	Febrero	2023-09-02T00:00:00	2024-11-08T23:00:00	5	Humedad	53
105901	7	Sololá	713	San Lucas Tolimán	10	San Lucas Tolimán	2	Febrero	2023-09-02T00:00:00	2024-11-08T23:00:00	6	Velocidad del viento	17.7
105902	7	Sololá	713	San Lucas Tolimán	10	San Lucas Tolimán	2	Febrero	2023-09-02T00:00:00	2024-11-08T23:00:00	7	Dirección del viento	17.7
105903	7	Sololá	713	San Lucas Tolimán	10	San Lucas Tolimán	2	Febrero	2023-09-02T00:00:00	2024-11-08T23:00:00	1	Precipitación	0
105904	7	Sololá	713	San Lucas Tolimán	10	San Lucas Tolimán	2	Febrero	2023-09-02T00:00:00	2024-11-08T23:00:00	8	Radiación solar	0
105905	7	Sololá	713	San Lucas Tolimán	10	San Lucas Tolimán	2	Febrero	2023-10-02T00:00:00	2024-11-08T00:00:00	2	Temperatura media	18.3
105906	7	Sololá	713	San Lucas Tolimán	10	San Lucas Tolimán	2	Febrero	2023-10-02T00:00:00	2024-11-08T00:00:00	4	Temperatura máxima	18.6
105907	7	Sololá	713	San Lucas Tolimán	10	San Lucas Tolimán	2	Febrero	2023-10-02T00:00:00	2024-11-08T00:00:00	3	Temperatura mínima	18.3
105908	7	Sololá	713	San Lucas Tolimán	10	San Lucas Tolimán	2	Febrero	2023-10-02T00:00:00	2024-11-08T00:00:00	5	Humedad	54
105909	7	Sololá	713	San Lucas Tolimán	10	San Lucas Tolimán	2	Febrero	2023-10-02T00:00:00	2024-11-08T00:00:00	6	Velocidad del viento	14.5
105910	7	Sololá	713	San Lucas Tolimán	10	San Lucas Tolimán	2	Febrero	2023-10-02T00:00:00	2024-11-08T00:00:00	7	Dirección del viento	14.48
105911	7	Sololá	713	San Lucas Tolimán	10	San Lucas Tolimán	2	Febrero	2023-10-02T00:00:00	2024-11-08T00:00:00	1	Precipitación	0
105912	7	Sololá	713	San Lucas Tolimán	10	San Lucas Tolimán	2	Febrero	2023-10-02T00:00:00	2024-11-08T00:00:00	8	Radiación solar	0
105913	7	Sololá	713	San Lucas Tolimán	10	San Lucas Tolimán	2	Febrero	2023-10-02T00:00:00	2024-11-08T01:00:00	2	Temperatura media	16.4
105914	7	Sololá	713	San Lucas Tolimán	10	San Lucas Tolimán	2	Febrero	2023-10-02T00:00:00	2024-11-08T01:00:00	4	Temperatura máxima	18.3
105915	7	Sololá	713	San Lucas Tolimán	10	San Lucas Tolimán	2	Febrero	2023-10-02T00:00:00	2024-11-08T01:00:00	3	Temperatura mínima	16.4
105916	7	Sololá	713	San Lucas Tolimán	10	San Lucas Tolimán	2	Febrero	2023-10-02T00:00:00	2024-11-08T01:00:00	5	Humedad	59
105917	7	Sololá	713	San Lucas Tolimán	10	San Lucas Tolimán	2	Febrero	2023-10-02T00:00:00	2024-11-08T01:00:00	6	Velocidad del viento	3.2
105918	7	Sololá	713	San Lucas Tolimán	10	San Lucas Tolimán	2	Febrero	2023-10-02T00:00:00	2024-11-08T01:00:00	7	Dirección del viento	3.22
105919	7	Sololá	713	San Lucas Tolimán	10	San Lucas Tolimán	2	Febrero	2023-10-02T00:00:00	2024-11-08T01:00:00	1	Precipitación	0
105920	7	Sololá	713	San Lucas Tolimán	10	San Lucas Tolimán	2	Febrero	2023-10-02T00:00:00	2024-11-08T01:00:00	8	Radiación solar	0
105921	7	Sololá	713	San Lucas Tolimán	10	San Lucas Tolimán	2	Febrero	2023-10-02T00:00:00	2024-11-08T02:00:00	2	Temperatura media	15.5
105922	7	Sololá	713	San Lucas Tolimán	10	San Lucas Tolimán	2	Febrero	2023-10-02T00:00:00	2024-11-08T02:00:00	4	Temperatura máxima	16.4
105923	7	Sololá	713	San Lucas Tolimán	10	San Lucas Tolimán	2	Febrero	2023-10-02T00:00:00	2024-11-08T02:00:00	3	Temperatura mínima	15.5
105924	7	Sololá	713	San Lucas Tolimán	10	San Lucas Tolimán	2	Febrero	2023-10-02T00:00:00	2024-11-08T02:00:00	5	Humedad	61
105925	7	Sololá	713	San Lucas Tolimán	10	San Lucas Tolimán	2	Febrero	2023-10-02T00:00:00	2024-11-08T02:00:00	6	Velocidad del viento	1.6
105926	7	Sololá	713	San Lucas Tolimán	10	San Lucas Tolimán	2	Febrero	2023-10-02T00:00:00	2024-11-08T02:00:00	7	Dirección del viento	1.61
105927	7	Sololá	713	San Lucas Tolimán	10	San Lucas Tolimán	2	Febrero	2023-10-02T00:00:00	2024-11-08T02:00:00	1	Precipitación	0
105928	7	Sololá	713	San Lucas Tolimán	10	San Lucas Tolimán	2	Febrero	2023-10-02T00:00:00	2024-11-08T02:00:00	8	Radiación solar	0
105929	7	Sololá	713	San Lucas Tolimán	10	San Lucas Tolimán	2	Febrero	2023-10-02T00:00:00	2024-11-08T03:00:00	2	Temperatura media	15.2
105930	7	Sololá	713	San Lucas Tolimán	10	San Lucas Tolimán	2	Febrero	2023-10-02T00:00:00	2024-11-08T03:00:00	4	Temperatura máxima	15.5
105931	7	Sololá	713	San Lucas Tolimán	10	San Lucas Tolimán	2	Febrero	2023-10-02T00:00:00	2024-11-08T03:00:00	3	Temperatura mínima	15.1
105932	7	Sololá	713	San Lucas Tolimán	10	San Lucas Tolimán	2	Febrero	2023-10-02T00:00:00	2024-11-08T03:00:00	5	Humedad	62
105933	7	Sololá	713	San Lucas Tolimán	10	San Lucas Tolimán	2	Febrero	2023-10-02T00:00:00	2024-11-08T03:00:00	6	Velocidad del viento	1.6
105934	7	Sololá	713	San Lucas Tolimán	10	San Lucas Tolimán	2	Febrero	2023-10-02T00:00:00	2024-11-08T03:00:00	7	Dirección del viento	1.61
105935	7	Sololá	713	San Lucas Tolimán	10	San Lucas Tolimán	2	Febrero	2023-10-02T00:00:00	2024-11-08T03:00:00	1	Precipitación	0
105936	7	Sololá	713	San Lucas Tolimán	10	San Lucas Tolimán	2	Febrero	2023-10-02T00:00:00	2024-11-08T03:00:00	8	Radiación solar	0
105937	7	Sololá	713	San Lucas Tolimán	10	San Lucas Tolimán	2	Febrero	2023-10-02T00:00:00	2024-11-08T04:00:00	2	Temperatura media	15.4
105938	7	Sololá	713	San Lucas Tolimán	10	San Lucas Tolimán	2	Febrero	2023-10-02T00:00:00	2024-11-08T04:00:00	4	Temperatura máxima	15.4
105939	7	Sololá	713	San Lucas Tolimán	10	San Lucas Tolimán	2	Febrero	2023-10-02T00:00:00	2024-11-08T04:00:00	3	Temperatura mínima	15.1
105940	7	Sololá	713	San Lucas Tolimán	10	San Lucas Tolimán	2	Febrero	2023-10-02T00:00:00	2024-11-08T04:00:00	5	Humedad	60
105941	7	Sololá	713	San Lucas Tolimán	10	San Lucas Tolimán	2	Febrero	2023-10-02T00:00:00	2024-11-08T04:00:00	6	Velocidad del viento	1.6
105942	7	Sololá	713	San Lucas Tolimán	10	San Lucas Tolimán	2	Febrero	2023-10-02T00:00:00	2024-11-08T04:00:00	7	Dirección del viento	1.61
105943	7	Sololá	713	San Lucas Tolimán	10	San Lucas Tolimán	2	Febrero	2023-10-02T00:00:00	2024-11-08T04:00:00	1	Precipitación	0
105944	7	Sololá	713	San Lucas Tolimán	10	San Lucas Tolimán	2	Febrero	2023-10-02T00:00:00	2024-11-08T04:00:00	8	Radiación solar	0
105945	7	Sololá	713	San Lucas Tolimán	10	San Lucas Tolimán	2	Febrero	2023-10-02T00:00:00	2024-11-08T05:00:00	2	Temperatura media	14.7
105946	7	Sololá	713	San Lucas Tolimán	10	San Lucas Tolimán	2	Febrero	2023-10-02T00:00:00	2024-11-08T05:00:00	4	Temperatura máxima	15.4
105947	7	Sololá	713	San Lucas Tolimán	10	San Lucas Tolimán	2	Febrero	2023-10-02T00:00:00	2024-11-08T05:00:00	3	Temperatura mínima	14.7
105948	7	Sololá	713	San Lucas Tolimán	10	San Lucas Tolimán	2	Febrero	2023-10-02T00:00:00	2024-11-08T05:00:00	5	Humedad	62
105949	7	Sololá	713	San Lucas Tolimán	10	San Lucas Tolimán	2	Febrero	2023-10-02T00:00:00	2024-11-08T05:00:00	6	Velocidad del viento	0
105950	7	Sololá	713	San Lucas Tolimán	10	San Lucas Tolimán	2	Febrero	2023-10-02T00:00:00	2024-11-08T05:00:00	7	Dirección del viento	0
105951	7	Sololá	713	San Lucas Tolimán	10	San Lucas Tolimán	2	Febrero	2023-10-02T00:00:00	2024-11-08T05:00:00	1	Precipitación	0
105952	7	Sololá	713	San Lucas Tolimán	10	San Lucas Tolimán	2	Febrero	2023-10-02T00:00:00	2024-11-08T05:00:00	8	Radiación solar	0
105953	7	Sololá	713	San Lucas Tolimán	10	San Lucas Tolimán	2	Febrero	2023-10-02T00:00:00	2024-11-08T06:00:00	2	Temperatura media	14.4
105954	7	Sololá	713	San Lucas Tolimán	10	San Lucas Tolimán	2	Febrero	2023-10-02T00:00:00	2024-11-08T06:00:00	4	Temperatura máxima	15
105955	7	Sololá	713	San Lucas Tolimán	10	San Lucas Tolimán	2	Febrero	2023-10-02T00:00:00	2024-11-08T06:00:00	3	Temperatura mínima	14.4
105956	7	Sololá	713	San Lucas Tolimán	10	San Lucas Tolimán	2	Febrero	2023-10-02T00:00:00	2024-11-08T06:00:00	5	Humedad	62
105957	7	Sololá	713	San Lucas Tolimán	10	San Lucas Tolimán	2	Febrero	2023-10-02T00:00:00	2024-11-08T06:00:00	6	Velocidad del viento	3.2
105958	7	Sololá	713	San Lucas Tolimán	10	San Lucas Tolimán	2	Febrero	2023-10-02T00:00:00	2024-11-08T06:00:00	7	Dirección del viento	3.22
105959	7	Sololá	713	San Lucas Tolimán	10	San Lucas Tolimán	2	Febrero	2023-10-02T00:00:00	2024-11-08T06:00:00	1	Precipitación	0
105960	7	Sololá	713	San Lucas Tolimán	10	San Lucas Tolimán	2	Febrero	2023-10-02T00:00:00	2024-11-08T06:00:00	8	Radiación solar	0
105961	7	Sololá	713	San Lucas Tolimán	10	San Lucas Tolimán	2	Febrero	2023-10-02T00:00:00	2024-11-08T07:00:00	2	Temperatura media	14.7
105962	7	Sololá	713	San Lucas Tolimán	10	San Lucas Tolimán	2	Febrero	2023-10-02T00:00:00	2024-11-08T07:00:00	4	Temperatura máxima	14.8
105963	7	Sololá	713	San Lucas Tolimán	10	San Lucas Tolimán	2	Febrero	2023-10-02T00:00:00	2024-11-08T07:00:00	3	Temperatura mínima	14.2
105964	7	Sololá	713	San Lucas Tolimán	10	San Lucas Tolimán	2	Febrero	2023-10-02T00:00:00	2024-11-08T07:00:00	5	Humedad	61
105965	7	Sololá	713	San Lucas Tolimán	10	San Lucas Tolimán	2	Febrero	2023-10-02T00:00:00	2024-11-08T07:00:00	6	Velocidad del viento	3.2
105966	7	Sololá	713	San Lucas Tolimán	10	San Lucas Tolimán	2	Febrero	2023-10-02T00:00:00	2024-11-08T07:00:00	7	Dirección del viento	3.22
105967	7	Sololá	713	San Lucas Tolimán	10	San Lucas Tolimán	2	Febrero	2023-10-02T00:00:00	2024-11-08T07:00:00	1	Precipitación	0
105968	7	Sololá	713	San Lucas Tolimán	10	San Lucas Tolimán	2	Febrero	2023-10-02T00:00:00	2024-11-08T07:00:00	8	Radiación solar	4
105969	7	Sololá	713	San Lucas Tolimán	10	San Lucas Tolimán	2	Febrero	2023-10-02T00:00:00	2024-11-08T08:00:00	2	Temperatura media	15.2
105970	7	Sololá	713	San Lucas Tolimán	10	San Lucas Tolimán	2	Febrero	2023-10-02T00:00:00	2024-11-08T08:00:00	4	Temperatura máxima	15.3
105971	7	Sololá	713	San Lucas Tolimán	10	San Lucas Tolimán	2	Febrero	2023-10-02T00:00:00	2024-11-08T08:00:00	3	Temperatura mínima	14.6
105972	7	Sololá	713	San Lucas Tolimán	10	San Lucas Tolimán	2	Febrero	2023-10-02T00:00:00	2024-11-08T08:00:00	5	Humedad	61
105973	7	Sololá	713	San Lucas Tolimán	10	San Lucas Tolimán	2	Febrero	2023-10-02T00:00:00	2024-11-08T08:00:00	6	Velocidad del viento	4.8
105974	7	Sololá	713	San Lucas Tolimán	10	San Lucas Tolimán	2	Febrero	2023-10-02T00:00:00	2024-11-08T08:00:00	7	Dirección del viento	4.83
105975	7	Sololá	713	San Lucas Tolimán	10	San Lucas Tolimán	2	Febrero	2023-10-02T00:00:00	2024-11-08T08:00:00	1	Precipitación	0
105976	7	Sololá	713	San Lucas Tolimán	10	San Lucas Tolimán	2	Febrero	2023-10-02T00:00:00	2024-11-08T08:00:00	8	Radiación solar	22
105977	7	Sololá	713	San Lucas Tolimán	10	San Lucas Tolimán	2	Febrero	2023-10-02T00:00:00	2024-11-08T09:00:00	2	Temperatura media	18.6
105978	7	Sololá	713	San Lucas Tolimán	10	San Lucas Tolimán	2	Febrero	2023-10-02T00:00:00	2024-11-08T09:00:00	4	Temperatura máxima	18.6
105979	7	Sololá	713	San Lucas Tolimán	10	San Lucas Tolimán	2	Febrero	2023-10-02T00:00:00	2024-11-08T09:00:00	3	Temperatura mínima	15.2
105980	7	Sololá	713	San Lucas Tolimán	10	San Lucas Tolimán	2	Febrero	2023-10-02T00:00:00	2024-11-08T09:00:00	5	Humedad	51
105981	7	Sololá	713	San Lucas Tolimán	10	San Lucas Tolimán	2	Febrero	2023-10-02T00:00:00	2024-11-08T09:00:00	6	Velocidad del viento	4.8
105982	7	Sololá	713	San Lucas Tolimán	10	San Lucas Tolimán	2	Febrero	2023-10-02T00:00:00	2024-11-08T09:00:00	7	Dirección del viento	4.83
105983	7	Sololá	713	San Lucas Tolimán	10	San Lucas Tolimán	2	Febrero	2023-10-02T00:00:00	2024-11-08T09:00:00	1	Precipitación	0
105984	7	Sololá	713	San Lucas Tolimán	10	San Lucas Tolimán	2	Febrero	2023-10-02T00:00:00	2024-11-08T09:00:00	8	Radiación solar	391
105985	7	Sololá	713	San Lucas Tolimán	10	San Lucas Tolimán	2	Febrero	2023-10-02T00:00:00	2024-11-08T10:00:00	2	Temperatura media	21.9
105986	7	Sololá	713	San Lucas Tolimán	10	San Lucas Tolimán	2	Febrero	2023-10-02T00:00:00	2024-11-08T10:00:00	4	Temperatura máxima	21.9
105987	7	Sololá	713	San Lucas Tolimán	10	San Lucas Tolimán	2	Febrero	2023-10-02T00:00:00	2024-11-08T10:00:00	3	Temperatura mínima	18.6
105988	7	Sololá	713	San Lucas Tolimán	10	San Lucas Tolimán	2	Febrero	2023-10-02T00:00:00	2024-11-08T10:00:00	5	Humedad	40
105989	7	Sololá	713	San Lucas Tolimán	10	San Lucas Tolimán	2	Febrero	2023-10-02T00:00:00	2024-11-08T10:00:00	6	Velocidad del viento	3.2
105990	7	Sololá	713	San Lucas Tolimán	10	San Lucas Tolimán	2	Febrero	2023-10-02T00:00:00	2024-11-08T10:00:00	7	Dirección del viento	3.22
105991	7	Sololá	713	San Lucas Tolimán	10	San Lucas Tolimán	2	Febrero	2023-10-02T00:00:00	2024-11-08T10:00:00	1	Precipitación	0
105992	7	Sololá	713	San Lucas Tolimán	10	San Lucas Tolimán	2	Febrero	2023-10-02T00:00:00	2024-11-08T10:00:00	8	Radiación solar	632
105993	7	Sololá	713	San Lucas Tolimán	10	San Lucas Tolimán	2	Febrero	2023-10-02T00:00:00	2024-11-08T11:00:00	2	Temperatura media	22.7
105994	7	Sololá	713	San Lucas Tolimán	10	San Lucas Tolimán	2	Febrero	2023-10-02T00:00:00	2024-11-08T11:00:00	4	Temperatura máxima	23.1
105995	7	Sololá	713	San Lucas Tolimán	10	San Lucas Tolimán	2	Febrero	2023-10-02T00:00:00	2024-11-08T11:00:00	3	Temperatura mínima	21.9
105996	7	Sololá	713	San Lucas Tolimán	10	San Lucas Tolimán	2	Febrero	2023-10-02T00:00:00	2024-11-08T11:00:00	5	Humedad	46
105997	7	Sololá	713	San Lucas Tolimán	10	San Lucas Tolimán	2	Febrero	2023-10-02T00:00:00	2024-11-08T11:00:00	6	Velocidad del viento	8
105998	7	Sololá	713	San Lucas Tolimán	10	San Lucas Tolimán	2	Febrero	2023-10-02T00:00:00	2024-11-08T11:00:00	7	Dirección del viento	8.05
105999	7	Sololá	713	San Lucas Tolimán	10	San Lucas Tolimán	2	Febrero	2023-10-02T00:00:00	2024-11-08T11:00:00	1	Precipitación	0
106000	7	Sololá	713	San Lucas Tolimán	10	San Lucas Tolimán	2	Febrero	2023-10-02T00:00:00	2024-11-08T11:00:00	8	Radiación solar	809
106001	7	Sololá	713	San Lucas Tolimán	10	San Lucas Tolimán	2	Febrero	2023-10-02T00:00:00	2024-11-08T12:00:00	2	Temperatura media	22.3
106002	7	Sololá	713	San Lucas Tolimán	10	San Lucas Tolimán	2	Febrero	2023-10-02T00:00:00	2024-11-08T12:00:00	4	Temperatura máxima	23.3
106003	7	Sololá	713	San Lucas Tolimán	10	San Lucas Tolimán	2	Febrero	2023-10-02T00:00:00	2024-11-08T12:00:00	3	Temperatura mínima	22.3
106004	7	Sololá	713	San Lucas Tolimán	10	San Lucas Tolimán	2	Febrero	2023-10-02T00:00:00	2024-11-08T12:00:00	5	Humedad	56
106005	7	Sololá	713	San Lucas Tolimán	10	San Lucas Tolimán	2	Febrero	2023-10-02T00:00:00	2024-11-08T12:00:00	6	Velocidad del viento	11.3
106006	7	Sololá	713	San Lucas Tolimán	10	San Lucas Tolimán	2	Febrero	2023-10-02T00:00:00	2024-11-08T12:00:00	7	Dirección del viento	11.27
106007	7	Sololá	713	San Lucas Tolimán	10	San Lucas Tolimán	2	Febrero	2023-10-02T00:00:00	2024-11-08T12:00:00	1	Precipitación	0
106008	7	Sololá	713	San Lucas Tolimán	10	San Lucas Tolimán	2	Febrero	2023-10-02T00:00:00	2024-11-08T12:00:00	8	Radiación solar	920
106009	7	Sololá	713	San Lucas Tolimán	10	San Lucas Tolimán	2	Febrero	2023-10-02T00:00:00	2024-11-08T13:00:00	2	Temperatura media	22.2
106010	7	Sololá	713	San Lucas Tolimán	10	San Lucas Tolimán	2	Febrero	2023-10-02T00:00:00	2024-11-08T13:00:00	4	Temperatura máxima	22.5
106011	7	Sololá	713	San Lucas Tolimán	10	San Lucas Tolimán	2	Febrero	2023-10-02T00:00:00	2024-11-08T13:00:00	3	Temperatura mínima	21.4
106012	7	Sololá	713	San Lucas Tolimán	10	San Lucas Tolimán	2	Febrero	2023-10-02T00:00:00	2024-11-08T13:00:00	5	Humedad	56
106013	7	Sololá	713	San Lucas Tolimán	10	San Lucas Tolimán	2	Febrero	2023-10-02T00:00:00	2024-11-08T13:00:00	6	Velocidad del viento	14.5
106014	7	Sololá	713	San Lucas Tolimán	10	San Lucas Tolimán	2	Febrero	2023-10-02T00:00:00	2024-11-08T13:00:00	7	Dirección del viento	14.48
106015	7	Sololá	713	San Lucas Tolimán	10	San Lucas Tolimán	2	Febrero	2023-10-02T00:00:00	2024-11-08T13:00:00	1	Precipitación	0
106016	7	Sololá	713	San Lucas Tolimán	10	San Lucas Tolimán	2	Febrero	2023-10-02T00:00:00	2024-11-08T13:00:00	8	Radiación solar	930
106017	7	Sololá	713	San Lucas Tolimán	10	San Lucas Tolimán	2	Febrero	2023-10-02T00:00:00	2024-11-08T14:00:00	2	Temperatura media	22.6
106018	7	Sololá	713	San Lucas Tolimán	10	San Lucas Tolimán	2	Febrero	2023-10-02T00:00:00	2024-11-08T14:00:00	4	Temperatura máxima	22.9
106019	7	Sololá	713	San Lucas Tolimán	10	San Lucas Tolimán	2	Febrero	2023-10-02T00:00:00	2024-11-08T14:00:00	3	Temperatura mínima	22.2
106020	7	Sololá	713	San Lucas Tolimán	10	San Lucas Tolimán	2	Febrero	2023-10-02T00:00:00	2024-11-08T14:00:00	5	Humedad	55
106021	7	Sololá	713	San Lucas Tolimán	10	San Lucas Tolimán	2	Febrero	2023-10-02T00:00:00	2024-11-08T14:00:00	6	Velocidad del viento	11.3
106022	7	Sololá	713	San Lucas Tolimán	10	San Lucas Tolimán	2	Febrero	2023-10-02T00:00:00	2024-11-08T14:00:00	7	Dirección del viento	11.27
106023	7	Sololá	713	San Lucas Tolimán	10	San Lucas Tolimán	2	Febrero	2023-10-02T00:00:00	2024-11-08T14:00:00	1	Precipitación	0
106024	7	Sololá	713	San Lucas Tolimán	10	San Lucas Tolimán	2	Febrero	2023-10-02T00:00:00	2024-11-08T14:00:00	8	Radiación solar	906
106025	7	Sololá	713	San Lucas Tolimán	10	San Lucas Tolimán	2	Febrero	2023-10-02T00:00:00	2024-11-08T15:00:00	2	Temperatura media	22.9
106026	7	Sololá	713	San Lucas Tolimán	10	San Lucas Tolimán	2	Febrero	2023-10-02T00:00:00	2024-11-08T15:00:00	4	Temperatura máxima	23.1
106027	7	Sololá	713	San Lucas Tolimán	10	San Lucas Tolimán	2	Febrero	2023-10-02T00:00:00	2024-11-08T15:00:00	3	Temperatura mínima	22.5
106028	7	Sololá	713	San Lucas Tolimán	10	San Lucas Tolimán	2	Febrero	2023-10-02T00:00:00	2024-11-08T15:00:00	5	Humedad	55
106029	7	Sololá	713	San Lucas Tolimán	10	San Lucas Tolimán	2	Febrero	2023-10-02T00:00:00	2024-11-08T15:00:00	6	Velocidad del viento	9.7
106030	7	Sololá	713	San Lucas Tolimán	10	San Lucas Tolimán	2	Febrero	2023-10-02T00:00:00	2024-11-08T15:00:00	7	Dirección del viento	9.66
106031	7	Sololá	713	San Lucas Tolimán	10	San Lucas Tolimán	2	Febrero	2023-10-02T00:00:00	2024-11-08T15:00:00	1	Precipitación	0
106032	7	Sololá	713	San Lucas Tolimán	10	San Lucas Tolimán	2	Febrero	2023-10-02T00:00:00	2024-11-08T15:00:00	8	Radiación solar	757
106033	7	Sololá	713	San Lucas Tolimán	10	San Lucas Tolimán	2	Febrero	2023-10-02T00:00:00	2024-11-08T16:00:00	2	Temperatura media	21.8
106034	7	Sololá	713	San Lucas Tolimán	10	San Lucas Tolimán	2	Febrero	2023-10-02T00:00:00	2024-11-08T16:00:00	4	Temperatura máxima	23.2
106035	7	Sololá	713	San Lucas Tolimán	10	San Lucas Tolimán	2	Febrero	2023-10-02T00:00:00	2024-11-08T16:00:00	3	Temperatura mínima	21.8
106036	7	Sololá	713	San Lucas Tolimán	10	San Lucas Tolimán	2	Febrero	2023-10-02T00:00:00	2024-11-08T16:00:00	5	Humedad	58
106037	7	Sololá	713	San Lucas Tolimán	10	San Lucas Tolimán	2	Febrero	2023-10-02T00:00:00	2024-11-08T16:00:00	6	Velocidad del viento	12.9
106038	7	Sololá	713	San Lucas Tolimán	10	San Lucas Tolimán	2	Febrero	2023-10-02T00:00:00	2024-11-08T16:00:00	7	Dirección del viento	12.87
106039	7	Sololá	713	San Lucas Tolimán	10	San Lucas Tolimán	2	Febrero	2023-10-02T00:00:00	2024-11-08T16:00:00	1	Precipitación	0
106040	7	Sololá	713	San Lucas Tolimán	10	San Lucas Tolimán	2	Febrero	2023-10-02T00:00:00	2024-11-08T16:00:00	8	Radiación solar	563
106041	7	Sololá	713	San Lucas Tolimán	10	San Lucas Tolimán	2	Febrero	2023-10-02T00:00:00	2024-11-08T17:00:00	2	Temperatura media	20.7
106042	7	Sololá	713	San Lucas Tolimán	10	San Lucas Tolimán	2	Febrero	2023-10-02T00:00:00	2024-11-08T17:00:00	4	Temperatura máxima	22.2
106043	7	Sololá	713	San Lucas Tolimán	10	San Lucas Tolimán	2	Febrero	2023-10-02T00:00:00	2024-11-08T17:00:00	3	Temperatura mínima	20.7
106044	7	Sololá	713	San Lucas Tolimán	10	San Lucas Tolimán	2	Febrero	2023-10-02T00:00:00	2024-11-08T17:00:00	5	Humedad	60
106045	7	Sololá	713	San Lucas Tolimán	10	San Lucas Tolimán	2	Febrero	2023-10-02T00:00:00	2024-11-08T17:00:00	6	Velocidad del viento	12.9
106046	7	Sololá	713	San Lucas Tolimán	10	San Lucas Tolimán	2	Febrero	2023-10-02T00:00:00	2024-11-08T17:00:00	7	Dirección del viento	12.87
106047	7	Sololá	713	San Lucas Tolimán	10	San Lucas Tolimán	2	Febrero	2023-10-02T00:00:00	2024-11-08T17:00:00	1	Precipitación	0
106048	7	Sololá	713	San Lucas Tolimán	10	San Lucas Tolimán	2	Febrero	2023-10-02T00:00:00	2024-11-08T17:00:00	8	Radiación solar	279
106049	7	Sololá	713	San Lucas Tolimán	10	San Lucas Tolimán	2	Febrero	2023-10-02T00:00:00	2024-11-08T18:00:00	2	Temperatura media	18.9
106050	7	Sololá	713	San Lucas Tolimán	10	San Lucas Tolimán	2	Febrero	2023-10-02T00:00:00	2024-11-08T18:00:00	4	Temperatura máxima	20.7
106051	7	Sololá	713	San Lucas Tolimán	10	San Lucas Tolimán	2	Febrero	2023-10-02T00:00:00	2024-11-08T18:00:00	3	Temperatura mínima	18.9
106052	7	Sololá	713	San Lucas Tolimán	10	San Lucas Tolimán	2	Febrero	2023-10-02T00:00:00	2024-11-08T18:00:00	5	Humedad	63
106053	7	Sololá	713	San Lucas Tolimán	10	San Lucas Tolimán	2	Febrero	2023-10-02T00:00:00	2024-11-08T18:00:00	6	Velocidad del viento	11.3
106054	7	Sololá	713	San Lucas Tolimán	10	San Lucas Tolimán	2	Febrero	2023-10-02T00:00:00	2024-11-08T18:00:00	7	Dirección del viento	11.27
106055	7	Sololá	713	San Lucas Tolimán	10	San Lucas Tolimán	2	Febrero	2023-10-02T00:00:00	2024-11-08T18:00:00	1	Precipitación	0
106056	7	Sololá	713	San Lucas Tolimán	10	San Lucas Tolimán	2	Febrero	2023-10-02T00:00:00	2024-11-08T18:00:00	8	Radiación solar	31
106057	7	Sololá	713	San Lucas Tolimán	10	San Lucas Tolimán	2	Febrero	2023-10-02T00:00:00	2024-11-08T19:00:00	2	Temperatura media	17.9
106058	7	Sololá	713	San Lucas Tolimán	10	San Lucas Tolimán	2	Febrero	2023-10-02T00:00:00	2024-11-08T19:00:00	4	Temperatura máxima	18.9
106059	7	Sololá	713	San Lucas Tolimán	10	San Lucas Tolimán	2	Febrero	2023-10-02T00:00:00	2024-11-08T19:00:00	3	Temperatura mínima	17.9
106060	7	Sololá	713	San Lucas Tolimán	10	San Lucas Tolimán	2	Febrero	2023-10-02T00:00:00	2024-11-08T19:00:00	5	Humedad	63
106061	7	Sololá	713	San Lucas Tolimán	10	San Lucas Tolimán	2	Febrero	2023-10-02T00:00:00	2024-11-08T19:00:00	6	Velocidad del viento	6.4
106062	7	Sololá	713	San Lucas Tolimán	10	San Lucas Tolimán	2	Febrero	2023-10-02T00:00:00	2024-11-08T19:00:00	7	Dirección del viento	6.44
106063	7	Sololá	713	San Lucas Tolimán	10	San Lucas Tolimán	2	Febrero	2023-10-02T00:00:00	2024-11-08T19:00:00	1	Precipitación	0
106064	7	Sololá	713	San Lucas Tolimán	10	San Lucas Tolimán	2	Febrero	2023-10-02T00:00:00	2024-11-08T19:00:00	8	Radiación solar	0
106065	7	Sololá	713	San Lucas Tolimán	10	San Lucas Tolimán	2	Febrero	2023-10-02T00:00:00	2024-11-08T20:00:00	2	Temperatura media	17.2
106066	7	Sololá	713	San Lucas Tolimán	10	San Lucas Tolimán	2	Febrero	2023-10-02T00:00:00	2024-11-08T20:00:00	4	Temperatura máxima	17.9
106067	7	Sololá	713	San Lucas Tolimán	10	San Lucas Tolimán	2	Febrero	2023-10-02T00:00:00	2024-11-08T20:00:00	3	Temperatura mínima	17.2
106068	7	Sololá	713	San Lucas Tolimán	10	San Lucas Tolimán	2	Febrero	2023-10-02T00:00:00	2024-11-08T20:00:00	5	Humedad	58
106069	7	Sololá	713	San Lucas Tolimán	10	San Lucas Tolimán	2	Febrero	2023-10-02T00:00:00	2024-11-08T20:00:00	6	Velocidad del viento	3.2
106070	7	Sololá	713	San Lucas Tolimán	10	San Lucas Tolimán	2	Febrero	2023-10-02T00:00:00	2024-11-08T20:00:00	7	Dirección del viento	3.22
106071	7	Sololá	713	San Lucas Tolimán	10	San Lucas Tolimán	2	Febrero	2023-10-02T00:00:00	2024-11-08T20:00:00	1	Precipitación	0
106072	7	Sololá	713	San Lucas Tolimán	10	San Lucas Tolimán	2	Febrero	2023-10-02T00:00:00	2024-11-08T20:00:00	8	Radiación solar	0
106073	7	Sololá	713	San Lucas Tolimán	10	San Lucas Tolimán	2	Febrero	2023-10-02T00:00:00	2024-11-08T21:00:00	2	Temperatura media	18.8
106074	7	Sololá	713	San Lucas Tolimán	10	San Lucas Tolimán	2	Febrero	2023-10-02T00:00:00	2024-11-08T21:00:00	4	Temperatura máxima	19.1
106075	7	Sololá	713	San Lucas Tolimán	10	San Lucas Tolimán	2	Febrero	2023-10-02T00:00:00	2024-11-08T21:00:00	3	Temperatura mínima	17.2
106076	7	Sololá	713	San Lucas Tolimán	10	San Lucas Tolimán	2	Febrero	2023-10-02T00:00:00	2024-11-08T21:00:00	5	Humedad	55
106077	7	Sololá	713	San Lucas Tolimán	10	San Lucas Tolimán	2	Febrero	2023-10-02T00:00:00	2024-11-08T21:00:00	6	Velocidad del viento	8
106078	7	Sololá	713	San Lucas Tolimán	10	San Lucas Tolimán	2	Febrero	2023-10-02T00:00:00	2024-11-08T21:00:00	7	Dirección del viento	8.05
106079	7	Sololá	713	San Lucas Tolimán	10	San Lucas Tolimán	2	Febrero	2023-10-02T00:00:00	2024-11-08T21:00:00	1	Precipitación	0
106080	7	Sololá	713	San Lucas Tolimán	10	San Lucas Tolimán	2	Febrero	2023-10-02T00:00:00	2024-11-08T21:00:00	8	Radiación solar	0
106081	7	Sololá	713	San Lucas Tolimán	10	San Lucas Tolimán	2	Febrero	2023-10-02T00:00:00	2024-11-08T22:00:00	2	Temperatura media	16.8
106082	7	Sololá	713	San Lucas Tolimán	10	San Lucas Tolimán	2	Febrero	2023-10-02T00:00:00	2024-11-08T22:00:00	4	Temperatura máxima	18.8
106083	7	Sololá	713	San Lucas Tolimán	10	San Lucas Tolimán	2	Febrero	2023-10-02T00:00:00	2024-11-08T22:00:00	3	Temperatura mínima	16.8
106084	7	Sololá	713	San Lucas Tolimán	10	San Lucas Tolimán	2	Febrero	2023-10-02T00:00:00	2024-11-08T22:00:00	5	Humedad	60
106085	7	Sololá	713	San Lucas Tolimán	10	San Lucas Tolimán	2	Febrero	2023-10-02T00:00:00	2024-11-08T22:00:00	6	Velocidad del viento	1.6
106086	7	Sololá	713	San Lucas Tolimán	10	San Lucas Tolimán	2	Febrero	2023-10-02T00:00:00	2024-11-08T22:00:00	7	Dirección del viento	1.61
106087	7	Sololá	713	San Lucas Tolimán	10	San Lucas Tolimán	2	Febrero	2023-10-02T00:00:00	2024-11-08T22:00:00	1	Precipitación	0
106088	7	Sololá	713	San Lucas Tolimán	10	San Lucas Tolimán	2	Febrero	2023-10-02T00:00:00	2024-11-08T22:00:00	8	Radiación solar	0
106089	7	Sololá	713	San Lucas Tolimán	10	San Lucas Tolimán	2	Febrero	2023-10-02T00:00:00	2024-11-08T23:00:00	2	Temperatura media	15.9
106090	7	Sololá	713	San Lucas Tolimán	10	San Lucas Tolimán	2	Febrero	2023-10-02T00:00:00	2024-11-08T23:00:00	4	Temperatura máxima	16.8
106091	7	Sololá	713	San Lucas Tolimán	10	San Lucas Tolimán	2	Febrero	2023-10-02T00:00:00	2024-11-08T23:00:00	3	Temperatura mínima	15.5
106092	7	Sololá	713	San Lucas Tolimán	10	San Lucas Tolimán	2	Febrero	2023-10-02T00:00:00	2024-11-08T23:00:00	5	Humedad	61
106093	7	Sololá	713	San Lucas Tolimán	10	San Lucas Tolimán	2	Febrero	2023-10-02T00:00:00	2024-11-08T23:00:00	6	Velocidad del viento	3.2
106094	7	Sololá	713	San Lucas Tolimán	10	San Lucas Tolimán	2	Febrero	2023-10-02T00:00:00	2024-11-08T23:00:00	7	Dirección del viento	3.22
106095	7	Sololá	713	San Lucas Tolimán	10	San Lucas Tolimán	2	Febrero	2023-10-02T00:00:00	2024-11-08T23:00:00	1	Precipitación	0
106096	7	Sololá	713	San Lucas Tolimán	10	San Lucas Tolimán	2	Febrero	2023-10-02T00:00:00	2024-11-08T23:00:00	8	Radiación solar	0
106097	7	Sololá	713	San Lucas Tolimán	10	San Lucas Tolimán	2	Febrero	2023-11-02T00:00:00	2024-11-08T00:00:00	2	Temperatura media	16.9
106098	7	Sololá	713	San Lucas Tolimán	10	San Lucas Tolimán	2	Febrero	2023-11-02T00:00:00	2024-11-08T00:00:00	4	Temperatura máxima	16.9
106099	7	Sololá	713	San Lucas Tolimán	10	San Lucas Tolimán	2	Febrero	2023-11-02T00:00:00	2024-11-08T00:00:00	3	Temperatura mínima	15.8
106100	7	Sololá	713	San Lucas Tolimán	10	San Lucas Tolimán	2	Febrero	2023-11-02T00:00:00	2024-11-08T00:00:00	5	Humedad	57
106101	7	Sololá	713	San Lucas Tolimán	10	San Lucas Tolimán	2	Febrero	2023-11-02T00:00:00	2024-11-08T00:00:00	6	Velocidad del viento	3.2
106102	7	Sololá	713	San Lucas Tolimán	10	San Lucas Tolimán	2	Febrero	2023-11-02T00:00:00	2024-11-08T00:00:00	7	Dirección del viento	3.22
106103	7	Sololá	713	San Lucas Tolimán	10	San Lucas Tolimán	2	Febrero	2023-11-02T00:00:00	2024-11-08T00:00:00	1	Precipitación	0
106104	7	Sololá	713	San Lucas Tolimán	10	San Lucas Tolimán	2	Febrero	2023-11-02T00:00:00	2024-11-08T00:00:00	8	Radiación solar	0
106105	7	Sololá	713	San Lucas Tolimán	10	San Lucas Tolimán	2	Febrero	2023-11-02T00:00:00	2024-11-08T01:00:00	2	Temperatura media	17.2
106106	7	Sololá	713	San Lucas Tolimán	10	San Lucas Tolimán	2	Febrero	2023-11-02T00:00:00	2024-11-08T01:00:00	4	Temperatura máxima	17.2
106107	7	Sololá	713	San Lucas Tolimán	10	San Lucas Tolimán	2	Febrero	2023-11-02T00:00:00	2024-11-08T01:00:00	3	Temperatura mínima	16.7
106108	7	Sololá	713	San Lucas Tolimán	10	San Lucas Tolimán	2	Febrero	2023-11-02T00:00:00	2024-11-08T01:00:00	5	Humedad	56
106109	7	Sololá	713	San Lucas Tolimán	10	San Lucas Tolimán	2	Febrero	2023-11-02T00:00:00	2024-11-08T01:00:00	6	Velocidad del viento	4.8
106110	7	Sololá	713	San Lucas Tolimán	10	San Lucas Tolimán	2	Febrero	2023-11-02T00:00:00	2024-11-08T01:00:00	7	Dirección del viento	4.83
106111	7	Sololá	713	San Lucas Tolimán	10	San Lucas Tolimán	2	Febrero	2023-11-02T00:00:00	2024-11-08T01:00:00	1	Precipitación	0
106112	7	Sololá	713	San Lucas Tolimán	10	San Lucas Tolimán	2	Febrero	2023-11-02T00:00:00	2024-11-08T01:00:00	8	Radiación solar	0
106113	7	Sololá	713	San Lucas Tolimán	10	San Lucas Tolimán	2	Febrero	2023-11-02T00:00:00	2024-11-08T02:00:00	2	Temperatura media	17
106114	7	Sololá	713	San Lucas Tolimán	10	San Lucas Tolimán	2	Febrero	2023-11-02T00:00:00	2024-11-08T02:00:00	4	Temperatura máxima	17.4
106115	7	Sololá	713	San Lucas Tolimán	10	San Lucas Tolimán	2	Febrero	2023-11-02T00:00:00	2024-11-08T02:00:00	3	Temperatura mínima	16.9
106116	7	Sololá	713	San Lucas Tolimán	10	San Lucas Tolimán	2	Febrero	2023-11-02T00:00:00	2024-11-08T02:00:00	5	Humedad	55
106117	7	Sololá	713	San Lucas Tolimán	10	San Lucas Tolimán	2	Febrero	2023-11-02T00:00:00	2024-11-08T02:00:00	6	Velocidad del viento	4.8
106118	7	Sololá	713	San Lucas Tolimán	10	San Lucas Tolimán	2	Febrero	2023-11-02T00:00:00	2024-11-08T02:00:00	7	Dirección del viento	4.83
106119	7	Sololá	713	San Lucas Tolimán	10	San Lucas Tolimán	2	Febrero	2023-11-02T00:00:00	2024-11-08T02:00:00	1	Precipitación	0
106120	7	Sololá	713	San Lucas Tolimán	10	San Lucas Tolimán	2	Febrero	2023-11-02T00:00:00	2024-11-08T02:00:00	8	Radiación solar	0
106121	7	Sololá	713	San Lucas Tolimán	10	San Lucas Tolimán	2	Febrero	2023-11-02T00:00:00	2024-11-08T03:00:00	2	Temperatura media	16.7
106122	7	Sololá	713	San Lucas Tolimán	10	San Lucas Tolimán	2	Febrero	2023-11-02T00:00:00	2024-11-08T03:00:00	4	Temperatura máxima	17.2
106123	7	Sololá	713	San Lucas Tolimán	10	San Lucas Tolimán	2	Febrero	2023-11-02T00:00:00	2024-11-08T03:00:00	3	Temperatura mínima	16.7
106124	7	Sololá	713	San Lucas Tolimán	10	San Lucas Tolimán	2	Febrero	2023-11-02T00:00:00	2024-11-08T03:00:00	5	Humedad	54
106125	7	Sololá	713	San Lucas Tolimán	10	San Lucas Tolimán	2	Febrero	2023-11-02T00:00:00	2024-11-08T03:00:00	6	Velocidad del viento	3.2
106126	7	Sololá	713	San Lucas Tolimán	10	San Lucas Tolimán	2	Febrero	2023-11-02T00:00:00	2024-11-08T03:00:00	7	Dirección del viento	3.22
106127	7	Sololá	713	San Lucas Tolimán	10	San Lucas Tolimán	2	Febrero	2023-11-02T00:00:00	2024-11-08T03:00:00	1	Precipitación	0
106128	7	Sololá	713	San Lucas Tolimán	10	San Lucas Tolimán	2	Febrero	2023-11-02T00:00:00	2024-11-08T03:00:00	8	Radiación solar	0
106129	7	Sololá	713	San Lucas Tolimán	10	San Lucas Tolimán	2	Febrero	2023-11-02T00:00:00	2024-11-08T04:00:00	2	Temperatura media	15.6
106130	7	Sololá	713	San Lucas Tolimán	10	San Lucas Tolimán	2	Febrero	2023-11-02T00:00:00	2024-11-08T04:00:00	4	Temperatura máxima	16.7
106131	7	Sololá	713	San Lucas Tolimán	10	San Lucas Tolimán	2	Febrero	2023-11-02T00:00:00	2024-11-08T04:00:00	3	Temperatura mínima	15.6
106132	7	Sololá	713	San Lucas Tolimán	10	San Lucas Tolimán	2	Febrero	2023-11-02T00:00:00	2024-11-08T04:00:00	5	Humedad	56
106133	7	Sololá	713	San Lucas Tolimán	10	San Lucas Tolimán	2	Febrero	2023-11-02T00:00:00	2024-11-08T04:00:00	6	Velocidad del viento	3.2
106134	7	Sololá	713	San Lucas Tolimán	10	San Lucas Tolimán	2	Febrero	2023-11-02T00:00:00	2024-11-08T04:00:00	7	Dirección del viento	3.22
106135	7	Sololá	713	San Lucas Tolimán	10	San Lucas Tolimán	2	Febrero	2023-11-02T00:00:00	2024-11-08T04:00:00	1	Precipitación	0
106136	7	Sololá	713	San Lucas Tolimán	10	San Lucas Tolimán	2	Febrero	2023-11-02T00:00:00	2024-11-08T04:00:00	8	Radiación solar	0
106137	7	Sololá	713	San Lucas Tolimán	10	San Lucas Tolimán	2	Febrero	2023-11-02T00:00:00	2024-11-08T05:00:00	2	Temperatura media	14.2
106138	7	Sololá	713	San Lucas Tolimán	10	San Lucas Tolimán	2	Febrero	2023-11-02T00:00:00	2024-11-08T05:00:00	4	Temperatura máxima	15.6
106139	7	Sololá	713	San Lucas Tolimán	10	San Lucas Tolimán	2	Febrero	2023-11-02T00:00:00	2024-11-08T05:00:00	3	Temperatura mínima	14.1
106140	7	Sololá	713	San Lucas Tolimán	10	San Lucas Tolimán	2	Febrero	2023-11-02T00:00:00	2024-11-08T05:00:00	5	Humedad	55
106141	7	Sololá	713	San Lucas Tolimán	10	San Lucas Tolimán	2	Febrero	2023-11-02T00:00:00	2024-11-08T05:00:00	6	Velocidad del viento	1.6
106142	7	Sololá	713	San Lucas Tolimán	10	San Lucas Tolimán	2	Febrero	2023-11-02T00:00:00	2024-11-08T05:00:00	7	Dirección del viento	1.61
106143	7	Sololá	713	San Lucas Tolimán	10	San Lucas Tolimán	2	Febrero	2023-11-02T00:00:00	2024-11-08T05:00:00	1	Precipitación	0
106144	7	Sololá	713	San Lucas Tolimán	10	San Lucas Tolimán	2	Febrero	2023-11-02T00:00:00	2024-11-08T05:00:00	8	Radiación solar	0
106145	7	Sololá	713	San Lucas Tolimán	10	San Lucas Tolimán	2	Febrero	2023-11-02T00:00:00	2024-11-08T06:00:00	2	Temperatura media	15.3
106146	7	Sololá	713	San Lucas Tolimán	10	San Lucas Tolimán	2	Febrero	2023-11-02T00:00:00	2024-11-08T06:00:00	4	Temperatura máxima	15.6
106147	7	Sololá	713	San Lucas Tolimán	10	San Lucas Tolimán	2	Febrero	2023-11-02T00:00:00	2024-11-08T06:00:00	3	Temperatura mínima	14
106148	7	Sololá	713	San Lucas Tolimán	10	San Lucas Tolimán	2	Febrero	2023-11-02T00:00:00	2024-11-08T06:00:00	5	Humedad	49
106149	7	Sololá	713	San Lucas Tolimán	10	San Lucas Tolimán	2	Febrero	2023-11-02T00:00:00	2024-11-08T06:00:00	6	Velocidad del viento	3.2
106150	7	Sololá	713	San Lucas Tolimán	10	San Lucas Tolimán	2	Febrero	2023-11-02T00:00:00	2024-11-08T06:00:00	7	Dirección del viento	3.22
106151	7	Sololá	713	San Lucas Tolimán	10	San Lucas Tolimán	2	Febrero	2023-11-02T00:00:00	2024-11-08T06:00:00	1	Precipitación	0
106152	7	Sololá	713	San Lucas Tolimán	10	San Lucas Tolimán	2	Febrero	2023-11-02T00:00:00	2024-11-08T06:00:00	8	Radiación solar	0
106153	7	Sololá	713	San Lucas Tolimán	10	San Lucas Tolimán	2	Febrero	2023-11-02T00:00:00	2024-11-08T07:00:00	2	Temperatura media	15.8
106154	7	Sololá	713	San Lucas Tolimán	10	San Lucas Tolimán	2	Febrero	2023-11-02T00:00:00	2024-11-08T07:00:00	4	Temperatura máxima	16.1
106155	7	Sololá	713	San Lucas Tolimán	10	San Lucas Tolimán	2	Febrero	2023-11-02T00:00:00	2024-11-08T07:00:00	3	Temperatura mínima	15.2
106156	7	Sololá	713	San Lucas Tolimán	10	San Lucas Tolimán	2	Febrero	2023-11-02T00:00:00	2024-11-08T07:00:00	5	Humedad	45
106157	7	Sololá	713	San Lucas Tolimán	10	San Lucas Tolimán	2	Febrero	2023-11-02T00:00:00	2024-11-08T07:00:00	6	Velocidad del viento	1.6
106158	7	Sololá	713	San Lucas Tolimán	10	San Lucas Tolimán	2	Febrero	2023-11-02T00:00:00	2024-11-08T07:00:00	7	Dirección del viento	1.61
106159	7	Sololá	713	San Lucas Tolimán	10	San Lucas Tolimán	2	Febrero	2023-11-02T00:00:00	2024-11-08T07:00:00	1	Precipitación	0
106160	7	Sololá	713	San Lucas Tolimán	10	San Lucas Tolimán	2	Febrero	2023-11-02T00:00:00	2024-11-08T07:00:00	8	Radiación solar	4
106161	7	Sololá	713	San Lucas Tolimán	10	San Lucas Tolimán	2	Febrero	2023-11-02T00:00:00	2024-11-08T08:00:00	2	Temperatura media	16.7
106162	7	Sololá	713	San Lucas Tolimán	10	San Lucas Tolimán	2	Febrero	2023-11-02T00:00:00	2024-11-08T08:00:00	4	Temperatura máxima	16.7
106163	7	Sololá	713	San Lucas Tolimán	10	San Lucas Tolimán	2	Febrero	2023-11-02T00:00:00	2024-11-08T08:00:00	3	Temperatura mínima	15.1
106164	7	Sololá	713	San Lucas Tolimán	10	San Lucas Tolimán	2	Febrero	2023-11-02T00:00:00	2024-11-08T08:00:00	5	Humedad	43
106165	7	Sololá	713	San Lucas Tolimán	10	San Lucas Tolimán	2	Febrero	2023-11-02T00:00:00	2024-11-08T08:00:00	6	Velocidad del viento	4.8
106166	7	Sololá	713	San Lucas Tolimán	10	San Lucas Tolimán	2	Febrero	2023-11-02T00:00:00	2024-11-08T08:00:00	7	Dirección del viento	4.83
106167	7	Sololá	713	San Lucas Tolimán	10	San Lucas Tolimán	2	Febrero	2023-11-02T00:00:00	2024-11-08T08:00:00	1	Precipitación	0
106168	7	Sololá	713	San Lucas Tolimán	10	San Lucas Tolimán	2	Febrero	2023-11-02T00:00:00	2024-11-08T08:00:00	8	Radiación solar	18
106169	7	Sololá	713	San Lucas Tolimán	10	San Lucas Tolimán	2	Febrero	2023-11-02T00:00:00	2024-11-08T09:00:00	2	Temperatura media	21.1
106170	7	Sololá	713	San Lucas Tolimán	10	San Lucas Tolimán	2	Febrero	2023-11-02T00:00:00	2024-11-08T09:00:00	4	Temperatura máxima	21.1
106171	7	Sololá	713	San Lucas Tolimán	10	San Lucas Tolimán	2	Febrero	2023-11-02T00:00:00	2024-11-08T09:00:00	3	Temperatura mínima	16.8
106172	7	Sololá	713	San Lucas Tolimán	10	San Lucas Tolimán	2	Febrero	2023-11-02T00:00:00	2024-11-08T09:00:00	5	Humedad	29
106173	7	Sololá	713	San Lucas Tolimán	10	San Lucas Tolimán	2	Febrero	2023-11-02T00:00:00	2024-11-08T09:00:00	6	Velocidad del viento	11.3
106174	7	Sololá	713	San Lucas Tolimán	10	San Lucas Tolimán	2	Febrero	2023-11-02T00:00:00	2024-11-08T09:00:00	7	Dirección del viento	11.27
106175	7	Sololá	713	San Lucas Tolimán	10	San Lucas Tolimán	2	Febrero	2023-11-02T00:00:00	2024-11-08T09:00:00	1	Precipitación	0
106176	7	Sololá	713	San Lucas Tolimán	10	San Lucas Tolimán	2	Febrero	2023-11-02T00:00:00	2024-11-08T09:00:00	8	Radiación solar	413
106177	7	Sololá	713	San Lucas Tolimán	10	San Lucas Tolimán	2	Febrero	2023-11-02T00:00:00	2024-11-08T10:00:00	2	Temperatura media	22.3
106178	7	Sololá	713	San Lucas Tolimán	10	San Lucas Tolimán	2	Febrero	2023-11-02T00:00:00	2024-11-08T10:00:00	4	Temperatura máxima	22.3
106179	7	Sololá	713	San Lucas Tolimán	10	San Lucas Tolimán	2	Febrero	2023-11-02T00:00:00	2024-11-08T10:00:00	3	Temperatura mínima	21.1
106180	7	Sololá	713	San Lucas Tolimán	10	San Lucas Tolimán	2	Febrero	2023-11-02T00:00:00	2024-11-08T10:00:00	5	Humedad	28
106181	7	Sololá	713	San Lucas Tolimán	10	San Lucas Tolimán	2	Febrero	2023-11-02T00:00:00	2024-11-08T10:00:00	6	Velocidad del viento	9.7
106182	7	Sololá	713	San Lucas Tolimán	10	San Lucas Tolimán	2	Febrero	2023-11-02T00:00:00	2024-11-08T10:00:00	7	Dirección del viento	9.66
106183	7	Sololá	713	San Lucas Tolimán	10	San Lucas Tolimán	2	Febrero	2023-11-02T00:00:00	2024-11-08T10:00:00	1	Precipitación	0
106184	7	Sololá	713	San Lucas Tolimán	10	San Lucas Tolimán	2	Febrero	2023-11-02T00:00:00	2024-11-08T10:00:00	8	Radiación solar	648
106185	7	Sololá	713	San Lucas Tolimán	10	San Lucas Tolimán	2	Febrero	2023-11-02T00:00:00	2024-11-08T11:00:00	2	Temperatura media	24
106186	7	Sololá	713	San Lucas Tolimán	10	San Lucas Tolimán	2	Febrero	2023-11-02T00:00:00	2024-11-08T11:00:00	4	Temperatura máxima	24.1
106187	7	Sololá	713	San Lucas Tolimán	10	San Lucas Tolimán	2	Febrero	2023-11-02T00:00:00	2024-11-08T11:00:00	3	Temperatura mínima	22.3
106188	7	Sololá	713	San Lucas Tolimán	10	San Lucas Tolimán	2	Febrero	2023-11-02T00:00:00	2024-11-08T11:00:00	5	Humedad	22
106189	7	Sololá	713	San Lucas Tolimán	10	San Lucas Tolimán	2	Febrero	2023-11-02T00:00:00	2024-11-08T11:00:00	6	Velocidad del viento	8
106190	7	Sololá	713	San Lucas Tolimán	10	San Lucas Tolimán	2	Febrero	2023-11-02T00:00:00	2024-11-08T11:00:00	7	Dirección del viento	8.05
106191	7	Sololá	713	San Lucas Tolimán	10	San Lucas Tolimán	2	Febrero	2023-11-02T00:00:00	2024-11-08T11:00:00	1	Precipitación	0
106192	7	Sololá	713	San Lucas Tolimán	10	San Lucas Tolimán	2	Febrero	2023-11-02T00:00:00	2024-11-08T11:00:00	8	Radiación solar	823
106193	7	Sololá	713	San Lucas Tolimán	10	San Lucas Tolimán	2	Febrero	2023-11-02T00:00:00	2024-11-08T12:00:00	2	Temperatura media	24.7
106194	7	Sololá	713	San Lucas Tolimán	10	San Lucas Tolimán	2	Febrero	2023-11-02T00:00:00	2024-11-08T12:00:00	4	Temperatura máxima	24.7
106195	7	Sololá	713	San Lucas Tolimán	10	San Lucas Tolimán	2	Febrero	2023-11-02T00:00:00	2024-11-08T12:00:00	3	Temperatura mínima	23.9
106196	7	Sololá	713	San Lucas Tolimán	10	San Lucas Tolimán	2	Febrero	2023-11-02T00:00:00	2024-11-08T12:00:00	5	Humedad	25
106197	7	Sololá	713	San Lucas Tolimán	10	San Lucas Tolimán	2	Febrero	2023-11-02T00:00:00	2024-11-08T12:00:00	6	Velocidad del viento	11.3
106198	7	Sololá	713	San Lucas Tolimán	10	San Lucas Tolimán	2	Febrero	2023-11-02T00:00:00	2024-11-08T12:00:00	7	Dirección del viento	11.27
106199	7	Sololá	713	San Lucas Tolimán	10	San Lucas Tolimán	2	Febrero	2023-11-02T00:00:00	2024-11-08T12:00:00	1	Precipitación	0
106200	7	Sololá	713	San Lucas Tolimán	10	San Lucas Tolimán	2	Febrero	2023-11-02T00:00:00	2024-11-08T12:00:00	8	Radiación solar	929
106201	7	Sololá	713	San Lucas Tolimán	10	San Lucas Tolimán	2	Febrero	2023-11-02T00:00:00	2024-11-08T13:00:00	2	Temperatura media	24.7
106202	7	Sololá	713	San Lucas Tolimán	10	San Lucas Tolimán	2	Febrero	2023-11-02T00:00:00	2024-11-08T13:00:00	4	Temperatura máxima	25.5
106203	7	Sololá	713	San Lucas Tolimán	10	San Lucas Tolimán	2	Febrero	2023-11-02T00:00:00	2024-11-08T13:00:00	3	Temperatura mínima	24.4
106204	7	Sololá	713	San Lucas Tolimán	10	San Lucas Tolimán	2	Febrero	2023-11-02T00:00:00	2024-11-08T13:00:00	5	Humedad	28
106205	7	Sololá	713	San Lucas Tolimán	10	San Lucas Tolimán	2	Febrero	2023-11-02T00:00:00	2024-11-08T13:00:00	6	Velocidad del viento	8
106206	7	Sololá	713	San Lucas Tolimán	10	San Lucas Tolimán	2	Febrero	2023-11-02T00:00:00	2024-11-08T13:00:00	7	Dirección del viento	8.05
106207	7	Sololá	713	San Lucas Tolimán	10	San Lucas Tolimán	2	Febrero	2023-11-02T00:00:00	2024-11-08T13:00:00	1	Precipitación	0
106208	7	Sololá	713	San Lucas Tolimán	10	San Lucas Tolimán	2	Febrero	2023-11-02T00:00:00	2024-11-08T13:00:00	8	Radiación solar	958
106209	7	Sololá	713	San Lucas Tolimán	10	San Lucas Tolimán	2	Febrero	2023-11-02T00:00:00	2024-11-08T14:00:00	2	Temperatura media	24.9
106210	7	Sololá	713	San Lucas Tolimán	10	San Lucas Tolimán	2	Febrero	2023-11-02T00:00:00	2024-11-08T14:00:00	4	Temperatura máxima	25.2
106211	7	Sololá	713	San Lucas Tolimán	10	San Lucas Tolimán	2	Febrero	2023-11-02T00:00:00	2024-11-08T14:00:00	3	Temperatura mínima	24.5
106212	7	Sololá	713	San Lucas Tolimán	10	San Lucas Tolimán	2	Febrero	2023-11-02T00:00:00	2024-11-08T14:00:00	5	Humedad	24
106213	7	Sololá	713	San Lucas Tolimán	10	San Lucas Tolimán	2	Febrero	2023-11-02T00:00:00	2024-11-08T14:00:00	6	Velocidad del viento	16.1
106214	7	Sololá	713	San Lucas Tolimán	10	San Lucas Tolimán	2	Febrero	2023-11-02T00:00:00	2024-11-08T14:00:00	7	Dirección del viento	16.09
106215	7	Sololá	713	San Lucas Tolimán	10	San Lucas Tolimán	2	Febrero	2023-11-02T00:00:00	2024-11-08T14:00:00	1	Precipitación	0
106216	7	Sololá	713	San Lucas Tolimán	10	San Lucas Tolimán	2	Febrero	2023-11-02T00:00:00	2024-11-08T14:00:00	8	Radiación solar	915
106217	7	Sololá	713	San Lucas Tolimán	10	San Lucas Tolimán	2	Febrero	2023-11-02T00:00:00	2024-11-08T15:00:00	2	Temperatura media	24.6
106218	7	Sololá	713	San Lucas Tolimán	10	San Lucas Tolimán	2	Febrero	2023-11-02T00:00:00	2024-11-08T15:00:00	4	Temperatura máxima	24.9
106219	7	Sololá	713	San Lucas Tolimán	10	San Lucas Tolimán	2	Febrero	2023-11-02T00:00:00	2024-11-08T15:00:00	3	Temperatura mínima	24.3
106220	7	Sololá	713	San Lucas Tolimán	10	San Lucas Tolimán	2	Febrero	2023-11-02T00:00:00	2024-11-08T15:00:00	5	Humedad	30
106221	7	Sololá	713	San Lucas Tolimán	10	San Lucas Tolimán	2	Febrero	2023-11-02T00:00:00	2024-11-08T15:00:00	6	Velocidad del viento	14.5
106222	7	Sololá	713	San Lucas Tolimán	10	San Lucas Tolimán	2	Febrero	2023-11-02T00:00:00	2024-11-08T15:00:00	7	Dirección del viento	14.48
106223	7	Sololá	713	San Lucas Tolimán	10	San Lucas Tolimán	2	Febrero	2023-11-02T00:00:00	2024-11-08T15:00:00	1	Precipitación	0
106224	7	Sololá	713	San Lucas Tolimán	10	San Lucas Tolimán	2	Febrero	2023-11-02T00:00:00	2024-11-08T15:00:00	8	Radiación solar	792
106225	7	Sololá	713	San Lucas Tolimán	10	San Lucas Tolimán	2	Febrero	2023-11-02T00:00:00	2024-11-08T16:00:00	2	Temperatura media	23.7
106226	7	Sololá	713	San Lucas Tolimán	10	San Lucas Tolimán	2	Febrero	2023-11-02T00:00:00	2024-11-08T16:00:00	4	Temperatura máxima	24.6
106227	7	Sololá	713	San Lucas Tolimán	10	San Lucas Tolimán	2	Febrero	2023-11-02T00:00:00	2024-11-08T16:00:00	3	Temperatura mínima	23.5
106228	7	Sololá	713	San Lucas Tolimán	10	San Lucas Tolimán	2	Febrero	2023-11-02T00:00:00	2024-11-08T16:00:00	5	Humedad	32
106229	7	Sololá	713	San Lucas Tolimán	10	San Lucas Tolimán	2	Febrero	2023-11-02T00:00:00	2024-11-08T16:00:00	6	Velocidad del viento	17.7
106230	7	Sololá	713	San Lucas Tolimán	10	San Lucas Tolimán	2	Febrero	2023-11-02T00:00:00	2024-11-08T16:00:00	7	Dirección del viento	17.7
106231	7	Sololá	713	San Lucas Tolimán	10	San Lucas Tolimán	2	Febrero	2023-11-02T00:00:00	2024-11-08T16:00:00	1	Precipitación	0
106232	7	Sololá	713	San Lucas Tolimán	10	San Lucas Tolimán	2	Febrero	2023-11-02T00:00:00	2024-11-08T16:00:00	8	Radiación solar	603
106233	7	Sololá	713	San Lucas Tolimán	10	San Lucas Tolimán	2	Febrero	2023-11-02T00:00:00	2024-11-08T17:00:00	2	Temperatura media	21.6
106234	7	Sololá	713	San Lucas Tolimán	10	San Lucas Tolimán	2	Febrero	2023-11-02T00:00:00	2024-11-08T17:00:00	4	Temperatura máxima	23.9
106235	7	Sololá	713	San Lucas Tolimán	10	San Lucas Tolimán	2	Febrero	2023-11-02T00:00:00	2024-11-08T17:00:00	3	Temperatura mínima	21.6
106236	7	Sololá	713	San Lucas Tolimán	10	San Lucas Tolimán	2	Febrero	2023-11-02T00:00:00	2024-11-08T17:00:00	5	Humedad	40
106237	7	Sololá	713	San Lucas Tolimán	10	San Lucas Tolimán	2	Febrero	2023-11-02T00:00:00	2024-11-08T17:00:00	6	Velocidad del viento	17.7
106238	7	Sololá	713	San Lucas Tolimán	10	San Lucas Tolimán	2	Febrero	2023-11-02T00:00:00	2024-11-08T17:00:00	7	Dirección del viento	17.7
106239	7	Sololá	713	San Lucas Tolimán	10	San Lucas Tolimán	2	Febrero	2023-11-02T00:00:00	2024-11-08T17:00:00	1	Precipitación	0
106240	7	Sololá	713	San Lucas Tolimán	10	San Lucas Tolimán	2	Febrero	2023-11-02T00:00:00	2024-11-08T17:00:00	8	Radiación solar	179
106241	7	Sololá	713	San Lucas Tolimán	10	San Lucas Tolimán	2	Febrero	2023-11-02T00:00:00	2024-11-08T18:00:00	2	Temperatura media	20.8
106242	7	Sololá	713	San Lucas Tolimán	10	San Lucas Tolimán	2	Febrero	2023-11-02T00:00:00	2024-11-08T18:00:00	4	Temperatura máxima	21.6
106243	7	Sololá	713	San Lucas Tolimán	10	San Lucas Tolimán	2	Febrero	2023-11-02T00:00:00	2024-11-08T18:00:00	3	Temperatura mínima	20.8
106244	7	Sololá	713	San Lucas Tolimán	10	San Lucas Tolimán	2	Febrero	2023-11-02T00:00:00	2024-11-08T18:00:00	5	Humedad	44
106245	7	Sololá	713	San Lucas Tolimán	10	San Lucas Tolimán	2	Febrero	2023-11-02T00:00:00	2024-11-08T18:00:00	6	Velocidad del viento	14.5
106246	7	Sololá	713	San Lucas Tolimán	10	San Lucas Tolimán	2	Febrero	2023-11-02T00:00:00	2024-11-08T18:00:00	7	Dirección del viento	14.48
106247	7	Sololá	713	San Lucas Tolimán	10	San Lucas Tolimán	2	Febrero	2023-11-02T00:00:00	2024-11-08T18:00:00	1	Precipitación	0
106248	7	Sololá	713	San Lucas Tolimán	10	San Lucas Tolimán	2	Febrero	2023-11-02T00:00:00	2024-11-08T18:00:00	8	Radiación solar	46
106249	7	Sololá	713	San Lucas Tolimán	10	San Lucas Tolimán	2	Febrero	2023-11-02T00:00:00	2024-11-08T19:00:00	2	Temperatura media	19.9
106250	7	Sololá	713	San Lucas Tolimán	10	San Lucas Tolimán	2	Febrero	2023-11-02T00:00:00	2024-11-08T19:00:00	4	Temperatura máxima	20.8
106251	7	Sololá	713	San Lucas Tolimán	10	San Lucas Tolimán	2	Febrero	2023-11-02T00:00:00	2024-11-08T19:00:00	3	Temperatura mínima	19.9
106252	7	Sololá	713	San Lucas Tolimán	10	San Lucas Tolimán	2	Febrero	2023-11-02T00:00:00	2024-11-08T19:00:00	5	Humedad	48
106253	7	Sololá	713	San Lucas Tolimán	10	San Lucas Tolimán	2	Febrero	2023-11-02T00:00:00	2024-11-08T19:00:00	6	Velocidad del viento	14.5
106254	7	Sololá	713	San Lucas Tolimán	10	San Lucas Tolimán	2	Febrero	2023-11-02T00:00:00	2024-11-08T19:00:00	7	Dirección del viento	14.48
106255	7	Sololá	713	San Lucas Tolimán	10	San Lucas Tolimán	2	Febrero	2023-11-02T00:00:00	2024-11-08T19:00:00	1	Precipitación	0
106256	7	Sololá	713	San Lucas Tolimán	10	San Lucas Tolimán	2	Febrero	2023-11-02T00:00:00	2024-11-08T19:00:00	8	Radiación solar	0
106257	7	Sololá	713	San Lucas Tolimán	10	San Lucas Tolimán	2	Febrero	2023-11-02T00:00:00	2024-11-08T20:00:00	2	Temperatura media	19.4
106258	7	Sololá	713	San Lucas Tolimán	10	San Lucas Tolimán	2	Febrero	2023-11-02T00:00:00	2024-11-08T20:00:00	4	Temperatura máxima	19.9
106259	7	Sololá	713	San Lucas Tolimán	10	San Lucas Tolimán	2	Febrero	2023-11-02T00:00:00	2024-11-08T20:00:00	3	Temperatura mínima	19.4
106260	7	Sololá	713	San Lucas Tolimán	10	San Lucas Tolimán	2	Febrero	2023-11-02T00:00:00	2024-11-08T20:00:00	5	Humedad	52
106261	7	Sololá	713	San Lucas Tolimán	10	San Lucas Tolimán	2	Febrero	2023-11-02T00:00:00	2024-11-08T20:00:00	6	Velocidad del viento	12.9
106262	7	Sololá	713	San Lucas Tolimán	10	San Lucas Tolimán	2	Febrero	2023-11-02T00:00:00	2024-11-08T20:00:00	7	Dirección del viento	12.87
106263	7	Sololá	713	San Lucas Tolimán	10	San Lucas Tolimán	2	Febrero	2023-11-02T00:00:00	2024-11-08T20:00:00	1	Precipitación	0
106264	7	Sololá	713	San Lucas Tolimán	10	San Lucas Tolimán	2	Febrero	2023-11-02T00:00:00	2024-11-08T20:00:00	8	Radiación solar	0
106265	7	Sololá	713	San Lucas Tolimán	10	San Lucas Tolimán	2	Febrero	2023-11-02T00:00:00	2024-11-08T21:00:00	2	Temperatura media	18.9
106266	7	Sololá	713	San Lucas Tolimán	10	San Lucas Tolimán	2	Febrero	2023-11-02T00:00:00	2024-11-08T21:00:00	4	Temperatura máxima	19.5
106267	7	Sololá	713	San Lucas Tolimán	10	San Lucas Tolimán	2	Febrero	2023-11-02T00:00:00	2024-11-08T21:00:00	3	Temperatura mínima	18.9
106268	7	Sololá	713	San Lucas Tolimán	10	San Lucas Tolimán	2	Febrero	2023-11-02T00:00:00	2024-11-08T21:00:00	5	Humedad	54
106269	7	Sololá	713	San Lucas Tolimán	10	San Lucas Tolimán	2	Febrero	2023-11-02T00:00:00	2024-11-08T21:00:00	6	Velocidad del viento	16.1
106270	7	Sololá	713	San Lucas Tolimán	10	San Lucas Tolimán	2	Febrero	2023-11-02T00:00:00	2024-11-08T21:00:00	7	Dirección del viento	16.09
106271	7	Sololá	713	San Lucas Tolimán	10	San Lucas Tolimán	2	Febrero	2023-11-02T00:00:00	2024-11-08T21:00:00	1	Precipitación	0
106272	7	Sololá	713	San Lucas Tolimán	10	San Lucas Tolimán	2	Febrero	2023-11-02T00:00:00	2024-11-08T21:00:00	8	Radiación solar	0
106273	7	Sololá	713	San Lucas Tolimán	10	San Lucas Tolimán	2	Febrero	2023-11-02T00:00:00	2024-11-08T22:00:00	2	Temperatura media	19.3
106274	7	Sololá	713	San Lucas Tolimán	10	San Lucas Tolimán	2	Febrero	2023-11-02T00:00:00	2024-11-08T22:00:00	4	Temperatura máxima	19.3
106275	7	Sololá	713	San Lucas Tolimán	10	San Lucas Tolimán	2	Febrero	2023-11-02T00:00:00	2024-11-08T22:00:00	3	Temperatura mínima	18.9
106276	7	Sololá	713	San Lucas Tolimán	10	San Lucas Tolimán	2	Febrero	2023-11-02T00:00:00	2024-11-08T22:00:00	5	Humedad	52
106277	7	Sololá	713	San Lucas Tolimán	10	San Lucas Tolimán	2	Febrero	2023-11-02T00:00:00	2024-11-08T22:00:00	6	Velocidad del viento	14.5
106278	7	Sololá	713	San Lucas Tolimán	10	San Lucas Tolimán	2	Febrero	2023-11-02T00:00:00	2024-11-08T22:00:00	7	Dirección del viento	14.48
106279	7	Sololá	713	San Lucas Tolimán	10	San Lucas Tolimán	2	Febrero	2023-11-02T00:00:00	2024-11-08T22:00:00	1	Precipitación	0
106280	7	Sololá	713	San Lucas Tolimán	10	San Lucas Tolimán	2	Febrero	2023-11-02T00:00:00	2024-11-08T22:00:00	8	Radiación solar	0
106281	7	Sololá	713	San Lucas Tolimán	10	San Lucas Tolimán	2	Febrero	2023-11-02T00:00:00	2024-11-08T23:00:00	2	Temperatura media	18.9
106282	7	Sololá	713	San Lucas Tolimán	10	San Lucas Tolimán	2	Febrero	2023-11-02T00:00:00	2024-11-08T23:00:00	4	Temperatura máxima	19.3
106283	7	Sololá	713	San Lucas Tolimán	10	San Lucas Tolimán	2	Febrero	2023-11-02T00:00:00	2024-11-08T23:00:00	3	Temperatura mínima	18.9
106284	7	Sololá	713	San Lucas Tolimán	10	San Lucas Tolimán	2	Febrero	2023-11-02T00:00:00	2024-11-08T23:00:00	5	Humedad	52
106285	7	Sololá	713	San Lucas Tolimán	10	San Lucas Tolimán	2	Febrero	2023-11-02T00:00:00	2024-11-08T23:00:00	6	Velocidad del viento	17.7
106286	7	Sololá	713	San Lucas Tolimán	10	San Lucas Tolimán	2	Febrero	2023-11-02T00:00:00	2024-11-08T23:00:00	7	Dirección del viento	17.7
106287	7	Sololá	713	San Lucas Tolimán	10	San Lucas Tolimán	2	Febrero	2023-11-02T00:00:00	2024-11-08T23:00:00	1	Precipitación	0
106288	7	Sololá	713	San Lucas Tolimán	10	San Lucas Tolimán	2	Febrero	2023-11-02T00:00:00	2024-11-08T23:00:00	8	Radiación solar	0
106289	7	Sololá	713	San Lucas Tolimán	10	San Lucas Tolimán	2	Febrero	2023-12-02T00:00:00	2024-11-08T00:00:00	2	Temperatura media	19
106290	7	Sololá	713	San Lucas Tolimán	10	San Lucas Tolimán	2	Febrero	2023-12-02T00:00:00	2024-11-08T00:00:00	4	Temperatura máxima	19
106291	7	Sololá	713	San Lucas Tolimán	10	San Lucas Tolimán	2	Febrero	2023-12-02T00:00:00	2024-11-08T00:00:00	3	Temperatura mínima	18.7
106292	7	Sololá	713	San Lucas Tolimán	10	San Lucas Tolimán	2	Febrero	2023-12-02T00:00:00	2024-11-08T00:00:00	5	Humedad	50
106293	7	Sololá	713	San Lucas Tolimán	10	San Lucas Tolimán	2	Febrero	2023-12-02T00:00:00	2024-11-08T00:00:00	6	Velocidad del viento	17.7
106294	7	Sololá	713	San Lucas Tolimán	10	San Lucas Tolimán	2	Febrero	2023-12-02T00:00:00	2024-11-08T00:00:00	7	Dirección del viento	17.7
106295	7	Sololá	713	San Lucas Tolimán	10	San Lucas Tolimán	2	Febrero	2023-12-02T00:00:00	2024-11-08T00:00:00	1	Precipitación	0
106296	7	Sololá	713	San Lucas Tolimán	10	San Lucas Tolimán	2	Febrero	2023-12-02T00:00:00	2024-11-08T00:00:00	8	Radiación solar	0
106297	7	Sololá	713	San Lucas Tolimán	10	San Lucas Tolimán	2	Febrero	2023-12-02T00:00:00	2024-11-08T01:00:00	2	Temperatura media	18.2
106298	7	Sololá	713	San Lucas Tolimán	10	San Lucas Tolimán	2	Febrero	2023-12-02T00:00:00	2024-11-08T01:00:00	4	Temperatura máxima	19.1
106299	7	Sololá	713	San Lucas Tolimán	10	San Lucas Tolimán	2	Febrero	2023-12-02T00:00:00	2024-11-08T01:00:00	3	Temperatura mínima	18.2
106300	7	Sololá	713	San Lucas Tolimán	10	San Lucas Tolimán	2	Febrero	2023-12-02T00:00:00	2024-11-08T01:00:00	5	Humedad	52
106301	7	Sololá	713	San Lucas Tolimán	10	San Lucas Tolimán	2	Febrero	2023-12-02T00:00:00	2024-11-08T01:00:00	6	Velocidad del viento	16.1
106302	7	Sololá	713	San Lucas Tolimán	10	San Lucas Tolimán	2	Febrero	2023-12-02T00:00:00	2024-11-08T01:00:00	7	Dirección del viento	16.09
106303	7	Sololá	713	San Lucas Tolimán	10	San Lucas Tolimán	2	Febrero	2023-12-02T00:00:00	2024-11-08T01:00:00	1	Precipitación	0
106304	7	Sololá	713	San Lucas Tolimán	10	San Lucas Tolimán	2	Febrero	2023-12-02T00:00:00	2024-11-08T01:00:00	8	Radiación solar	0
106305	7	Sololá	713	San Lucas Tolimán	10	San Lucas Tolimán	2	Febrero	2023-12-02T00:00:00	2024-11-08T02:00:00	2	Temperatura media	17.7
106306	7	Sololá	713	San Lucas Tolimán	10	San Lucas Tolimán	2	Febrero	2023-12-02T00:00:00	2024-11-08T02:00:00	4	Temperatura máxima	18.3
106307	7	Sololá	713	San Lucas Tolimán	10	San Lucas Tolimán	2	Febrero	2023-12-02T00:00:00	2024-11-08T02:00:00	3	Temperatura mínima	17.7
106308	7	Sololá	713	San Lucas Tolimán	10	San Lucas Tolimán	2	Febrero	2023-12-02T00:00:00	2024-11-08T02:00:00	5	Humedad	53
106309	7	Sololá	713	San Lucas Tolimán	10	San Lucas Tolimán	2	Febrero	2023-12-02T00:00:00	2024-11-08T02:00:00	6	Velocidad del viento	17.7
106310	7	Sololá	713	San Lucas Tolimán	10	San Lucas Tolimán	2	Febrero	2023-12-02T00:00:00	2024-11-08T02:00:00	7	Dirección del viento	17.7
106311	7	Sololá	713	San Lucas Tolimán	10	San Lucas Tolimán	2	Febrero	2023-12-02T00:00:00	2024-11-08T02:00:00	1	Precipitación	0
106312	7	Sololá	713	San Lucas Tolimán	10	San Lucas Tolimán	2	Febrero	2023-12-02T00:00:00	2024-11-08T02:00:00	8	Radiación solar	0
106313	7	Sololá	713	San Lucas Tolimán	10	San Lucas Tolimán	2	Febrero	2023-12-02T00:00:00	2024-11-08T03:00:00	2	Temperatura media	17.1
106314	7	Sololá	713	San Lucas Tolimán	10	San Lucas Tolimán	2	Febrero	2023-12-02T00:00:00	2024-11-08T03:00:00	4	Temperatura máxima	17.7
106315	7	Sololá	713	San Lucas Tolimán	10	San Lucas Tolimán	2	Febrero	2023-12-02T00:00:00	2024-11-08T03:00:00	3	Temperatura mínima	17.1
106316	7	Sololá	713	San Lucas Tolimán	10	San Lucas Tolimán	2	Febrero	2023-12-02T00:00:00	2024-11-08T03:00:00	5	Humedad	52
106317	7	Sololá	713	San Lucas Tolimán	10	San Lucas Tolimán	2	Febrero	2023-12-02T00:00:00	2024-11-08T03:00:00	6	Velocidad del viento	17.7
106318	7	Sololá	713	San Lucas Tolimán	10	San Lucas Tolimán	2	Febrero	2023-12-02T00:00:00	2024-11-08T03:00:00	7	Dirección del viento	17.7
106319	7	Sololá	713	San Lucas Tolimán	10	San Lucas Tolimán	2	Febrero	2023-12-02T00:00:00	2024-11-08T03:00:00	1	Precipitación	0
106320	7	Sololá	713	San Lucas Tolimán	10	San Lucas Tolimán	2	Febrero	2023-12-02T00:00:00	2024-11-08T03:00:00	8	Radiación solar	0
106321	7	Sololá	713	San Lucas Tolimán	10	San Lucas Tolimán	2	Febrero	2023-12-02T00:00:00	2024-11-08T04:00:00	2	Temperatura media	17.1
106322	7	Sololá	713	San Lucas Tolimán	10	San Lucas Tolimán	2	Febrero	2023-12-02T00:00:00	2024-11-08T04:00:00	4	Temperatura máxima	17.2
106323	7	Sololá	713	San Lucas Tolimán	10	San Lucas Tolimán	2	Febrero	2023-12-02T00:00:00	2024-11-08T04:00:00	3	Temperatura mínima	17
106324	7	Sololá	713	San Lucas Tolimán	10	San Lucas Tolimán	2	Febrero	2023-12-02T00:00:00	2024-11-08T04:00:00	5	Humedad	51
106325	7	Sololá	713	San Lucas Tolimán	10	San Lucas Tolimán	2	Febrero	2023-12-02T00:00:00	2024-11-08T04:00:00	6	Velocidad del viento	17.7
106326	7	Sololá	713	San Lucas Tolimán	10	San Lucas Tolimán	2	Febrero	2023-12-02T00:00:00	2024-11-08T04:00:00	7	Dirección del viento	17.7
106327	7	Sololá	713	San Lucas Tolimán	10	San Lucas Tolimán	2	Febrero	2023-12-02T00:00:00	2024-11-08T04:00:00	1	Precipitación	0
106328	7	Sololá	713	San Lucas Tolimán	10	San Lucas Tolimán	2	Febrero	2023-12-02T00:00:00	2024-11-08T04:00:00	8	Radiación solar	0
106329	7	Sololá	713	San Lucas Tolimán	10	San Lucas Tolimán	2	Febrero	2023-12-02T00:00:00	2024-11-08T05:00:00	2	Temperatura media	17.1
106330	7	Sololá	713	San Lucas Tolimán	10	San Lucas Tolimán	2	Febrero	2023-12-02T00:00:00	2024-11-08T05:00:00	4	Temperatura máxima	17.2
106331	7	Sololá	713	San Lucas Tolimán	10	San Lucas Tolimán	2	Febrero	2023-12-02T00:00:00	2024-11-08T05:00:00	3	Temperatura mínima	16.9
106332	7	Sololá	713	San Lucas Tolimán	10	San Lucas Tolimán	2	Febrero	2023-12-02T00:00:00	2024-11-08T05:00:00	5	Humedad	52
106333	7	Sololá	713	San Lucas Tolimán	10	San Lucas Tolimán	2	Febrero	2023-12-02T00:00:00	2024-11-08T05:00:00	6	Velocidad del viento	20.9
106334	7	Sololá	713	San Lucas Tolimán	10	San Lucas Tolimán	2	Febrero	2023-12-02T00:00:00	2024-11-08T05:00:00	7	Dirección del viento	20.92
106335	7	Sololá	713	San Lucas Tolimán	10	San Lucas Tolimán	2	Febrero	2023-12-02T00:00:00	2024-11-08T05:00:00	1	Precipitación	0
106336	7	Sololá	713	San Lucas Tolimán	10	San Lucas Tolimán	2	Febrero	2023-12-02T00:00:00	2024-11-08T05:00:00	8	Radiación solar	0
106337	7	Sololá	713	San Lucas Tolimán	10	San Lucas Tolimán	2	Febrero	2023-12-02T00:00:00	2024-11-08T06:00:00	2	Temperatura media	16.9
106338	7	Sololá	713	San Lucas Tolimán	10	San Lucas Tolimán	2	Febrero	2023-12-02T00:00:00	2024-11-08T06:00:00	4	Temperatura máxima	17.1
106339	7	Sololá	713	San Lucas Tolimán	10	San Lucas Tolimán	2	Febrero	2023-12-02T00:00:00	2024-11-08T06:00:00	3	Temperatura mínima	16.8
106340	7	Sololá	713	San Lucas Tolimán	10	San Lucas Tolimán	2	Febrero	2023-12-02T00:00:00	2024-11-08T06:00:00	5	Humedad	50
106341	7	Sololá	713	San Lucas Tolimán	10	San Lucas Tolimán	2	Febrero	2023-12-02T00:00:00	2024-11-08T06:00:00	6	Velocidad del viento	17.7
106342	7	Sololá	713	San Lucas Tolimán	10	San Lucas Tolimán	2	Febrero	2023-12-02T00:00:00	2024-11-08T06:00:00	7	Dirección del viento	17.7
106343	7	Sololá	713	San Lucas Tolimán	10	San Lucas Tolimán	2	Febrero	2023-12-02T00:00:00	2024-11-08T06:00:00	1	Precipitación	0
106344	7	Sololá	713	San Lucas Tolimán	10	San Lucas Tolimán	2	Febrero	2023-12-02T00:00:00	2024-11-08T06:00:00	8	Radiación solar	0
106345	7	Sololá	713	San Lucas Tolimán	10	San Lucas Tolimán	2	Febrero	2023-12-02T00:00:00	2024-11-08T07:00:00	2	Temperatura media	16.8
106346	7	Sololá	713	San Lucas Tolimán	10	San Lucas Tolimán	2	Febrero	2023-12-02T00:00:00	2024-11-08T07:00:00	4	Temperatura máxima	17
106347	7	Sololá	713	San Lucas Tolimán	10	San Lucas Tolimán	2	Febrero	2023-12-02T00:00:00	2024-11-08T07:00:00	3	Temperatura mínima	16.7
106348	7	Sololá	713	San Lucas Tolimán	10	San Lucas Tolimán	2	Febrero	2023-12-02T00:00:00	2024-11-08T07:00:00	5	Humedad	50
106349	7	Sololá	713	San Lucas Tolimán	10	San Lucas Tolimán	2	Febrero	2023-12-02T00:00:00	2024-11-08T07:00:00	6	Velocidad del viento	19.3
106350	7	Sololá	713	San Lucas Tolimán	10	San Lucas Tolimán	2	Febrero	2023-12-02T00:00:00	2024-11-08T07:00:00	7	Dirección del viento	19.31
106351	7	Sololá	713	San Lucas Tolimán	10	San Lucas Tolimán	2	Febrero	2023-12-02T00:00:00	2024-11-08T07:00:00	1	Precipitación	0
106352	7	Sololá	713	San Lucas Tolimán	10	San Lucas Tolimán	2	Febrero	2023-12-02T00:00:00	2024-11-08T07:00:00	8	Radiación solar	4
106353	7	Sololá	713	San Lucas Tolimán	10	San Lucas Tolimán	2	Febrero	2023-12-02T00:00:00	2024-11-08T08:00:00	2	Temperatura media	17.7
106354	7	Sololá	713	San Lucas Tolimán	10	San Lucas Tolimán	2	Febrero	2023-12-02T00:00:00	2024-11-08T08:00:00	4	Temperatura máxima	17.7
106355	7	Sololá	713	San Lucas Tolimán	10	San Lucas Tolimán	2	Febrero	2023-12-02T00:00:00	2024-11-08T08:00:00	3	Temperatura mínima	16.8
106356	7	Sololá	713	San Lucas Tolimán	10	San Lucas Tolimán	2	Febrero	2023-12-02T00:00:00	2024-11-08T08:00:00	5	Humedad	47
106357	7	Sololá	713	San Lucas Tolimán	10	San Lucas Tolimán	2	Febrero	2023-12-02T00:00:00	2024-11-08T08:00:00	6	Velocidad del viento	19.3
106358	7	Sololá	713	San Lucas Tolimán	10	San Lucas Tolimán	2	Febrero	2023-12-02T00:00:00	2024-11-08T08:00:00	7	Dirección del viento	19.31
106359	7	Sololá	713	San Lucas Tolimán	10	San Lucas Tolimán	2	Febrero	2023-12-02T00:00:00	2024-11-08T08:00:00	1	Precipitación	0
106360	7	Sololá	713	San Lucas Tolimán	10	San Lucas Tolimán	2	Febrero	2023-12-02T00:00:00	2024-11-08T08:00:00	8	Radiación solar	18
106361	7	Sololá	713	San Lucas Tolimán	10	San Lucas Tolimán	2	Febrero	2023-12-02T00:00:00	2024-11-08T09:00:00	2	Temperatura media	19.9
106362	7	Sololá	713	San Lucas Tolimán	10	San Lucas Tolimán	2	Febrero	2023-12-02T00:00:00	2024-11-08T09:00:00	4	Temperatura máxima	19.9
106363	7	Sololá	713	San Lucas Tolimán	10	San Lucas Tolimán	2	Febrero	2023-12-02T00:00:00	2024-11-08T09:00:00	3	Temperatura mínima	17.7
106364	7	Sololá	713	San Lucas Tolimán	10	San Lucas Tolimán	2	Febrero	2023-12-02T00:00:00	2024-11-08T09:00:00	5	Humedad	42
106365	7	Sololá	713	San Lucas Tolimán	10	San Lucas Tolimán	2	Febrero	2023-12-02T00:00:00	2024-11-08T09:00:00	6	Velocidad del viento	16.1
106366	7	Sololá	713	San Lucas Tolimán	10	San Lucas Tolimán	2	Febrero	2023-12-02T00:00:00	2024-11-08T09:00:00	7	Dirección del viento	16.09
106367	7	Sololá	713	San Lucas Tolimán	10	San Lucas Tolimán	2	Febrero	2023-12-02T00:00:00	2024-11-08T09:00:00	1	Precipitación	0
106368	7	Sololá	713	San Lucas Tolimán	10	San Lucas Tolimán	2	Febrero	2023-12-02T00:00:00	2024-11-08T09:00:00	8	Radiación solar	404
106369	7	Sololá	713	San Lucas Tolimán	10	San Lucas Tolimán	2	Febrero	2023-12-02T00:00:00	2024-11-08T10:00:00	2	Temperatura media	21.4
106370	7	Sololá	713	San Lucas Tolimán	10	San Lucas Tolimán	2	Febrero	2023-12-02T00:00:00	2024-11-08T10:00:00	4	Temperatura máxima	21.4
106371	7	Sololá	713	San Lucas Tolimán	10	San Lucas Tolimán	2	Febrero	2023-12-02T00:00:00	2024-11-08T10:00:00	3	Temperatura mínima	19.8
106372	7	Sololá	713	San Lucas Tolimán	10	San Lucas Tolimán	2	Febrero	2023-12-02T00:00:00	2024-11-08T10:00:00	5	Humedad	38
106373	7	Sololá	713	San Lucas Tolimán	10	San Lucas Tolimán	2	Febrero	2023-12-02T00:00:00	2024-11-08T10:00:00	6	Velocidad del viento	12.9
106374	7	Sololá	713	San Lucas Tolimán	10	San Lucas Tolimán	2	Febrero	2023-12-02T00:00:00	2024-11-08T10:00:00	7	Dirección del viento	12.87
106375	7	Sololá	713	San Lucas Tolimán	10	San Lucas Tolimán	2	Febrero	2023-12-02T00:00:00	2024-11-08T10:00:00	1	Precipitación	0
106376	7	Sololá	713	San Lucas Tolimán	10	San Lucas Tolimán	2	Febrero	2023-12-02T00:00:00	2024-11-08T10:00:00	8	Radiación solar	638
106377	7	Sololá	713	San Lucas Tolimán	10	San Lucas Tolimán	2	Febrero	2023-12-02T00:00:00	2024-11-08T11:00:00	2	Temperatura media	21.9
106378	7	Sololá	713	San Lucas Tolimán	10	San Lucas Tolimán	2	Febrero	2023-12-02T00:00:00	2024-11-08T11:00:00	4	Temperatura máxima	22
106379	7	Sololá	713	San Lucas Tolimán	10	San Lucas Tolimán	2	Febrero	2023-12-02T00:00:00	2024-11-08T11:00:00	3	Temperatura mínima	21.1
106380	7	Sololá	713	San Lucas Tolimán	10	San Lucas Tolimán	2	Febrero	2023-12-02T00:00:00	2024-11-08T11:00:00	5	Humedad	38
106381	7	Sololá	713	San Lucas Tolimán	10	San Lucas Tolimán	2	Febrero	2023-12-02T00:00:00	2024-11-08T11:00:00	6	Velocidad del viento	11.3
106382	7	Sololá	713	San Lucas Tolimán	10	San Lucas Tolimán	2	Febrero	2023-12-02T00:00:00	2024-11-08T11:00:00	7	Dirección del viento	11.27
106383	7	Sololá	713	San Lucas Tolimán	10	San Lucas Tolimán	2	Febrero	2023-12-02T00:00:00	2024-11-08T11:00:00	1	Precipitación	0
106384	7	Sololá	713	San Lucas Tolimán	10	San Lucas Tolimán	2	Febrero	2023-12-02T00:00:00	2024-11-08T11:00:00	8	Radiación solar	819
106385	7	Sololá	713	San Lucas Tolimán	10	San Lucas Tolimán	2	Febrero	2023-12-02T00:00:00	2024-11-08T12:00:00	2	Temperatura media	22.9
106386	7	Sololá	713	San Lucas Tolimán	10	San Lucas Tolimán	2	Febrero	2023-12-02T00:00:00	2024-11-08T12:00:00	4	Temperatura máxima	22.9
106387	7	Sololá	713	San Lucas Tolimán	10	San Lucas Tolimán	2	Febrero	2023-12-02T00:00:00	2024-11-08T12:00:00	3	Temperatura mínima	21.8
106388	7	Sololá	713	San Lucas Tolimán	10	San Lucas Tolimán	2	Febrero	2023-12-02T00:00:00	2024-11-08T12:00:00	5	Humedad	36
106389	7	Sololá	713	San Lucas Tolimán	10	San Lucas Tolimán	2	Febrero	2023-12-02T00:00:00	2024-11-08T12:00:00	6	Velocidad del viento	11.3
106390	7	Sololá	713	San Lucas Tolimán	10	San Lucas Tolimán	2	Febrero	2023-12-02T00:00:00	2024-11-08T12:00:00	7	Dirección del viento	11.27
106391	7	Sololá	713	San Lucas Tolimán	10	San Lucas Tolimán	2	Febrero	2023-12-02T00:00:00	2024-11-08T12:00:00	1	Precipitación	0
106392	7	Sololá	713	San Lucas Tolimán	10	San Lucas Tolimán	2	Febrero	2023-12-02T00:00:00	2024-11-08T12:00:00	8	Radiación solar	929
106393	7	Sololá	713	San Lucas Tolimán	10	San Lucas Tolimán	2	Febrero	2023-12-02T00:00:00	2024-11-08T13:00:00	2	Temperatura media	23.6
106394	7	Sololá	713	San Lucas Tolimán	10	San Lucas Tolimán	2	Febrero	2023-12-02T00:00:00	2024-11-08T13:00:00	4	Temperatura máxima	24
106395	7	Sololá	713	San Lucas Tolimán	10	San Lucas Tolimán	2	Febrero	2023-12-02T00:00:00	2024-11-08T13:00:00	3	Temperatura mínima	22.7
106396	7	Sololá	713	San Lucas Tolimán	10	San Lucas Tolimán	2	Febrero	2023-12-02T00:00:00	2024-11-08T13:00:00	5	Humedad	36
106397	7	Sololá	713	San Lucas Tolimán	10	San Lucas Tolimán	2	Febrero	2023-12-02T00:00:00	2024-11-08T13:00:00	6	Velocidad del viento	9.7
106398	7	Sololá	713	San Lucas Tolimán	10	San Lucas Tolimán	2	Febrero	2023-12-02T00:00:00	2024-11-08T13:00:00	7	Dirección del viento	9.66
106399	7	Sololá	713	San Lucas Tolimán	10	San Lucas Tolimán	2	Febrero	2023-12-02T00:00:00	2024-11-08T13:00:00	1	Precipitación	0
106400	7	Sololá	713	San Lucas Tolimán	10	San Lucas Tolimán	2	Febrero	2023-12-02T00:00:00	2024-11-08T13:00:00	8	Radiación solar	955
106401	7	Sololá	713	San Lucas Tolimán	10	San Lucas Tolimán	2	Febrero	2023-12-02T00:00:00	2024-11-08T14:00:00	2	Temperatura media	24.2
106402	7	Sololá	713	San Lucas Tolimán	10	San Lucas Tolimán	2	Febrero	2023-12-02T00:00:00	2024-11-08T14:00:00	4	Temperatura máxima	24.2
106403	7	Sololá	713	San Lucas Tolimán	10	San Lucas Tolimán	2	Febrero	2023-12-02T00:00:00	2024-11-08T14:00:00	3	Temperatura mínima	23.4
106404	7	Sololá	713	San Lucas Tolimán	10	San Lucas Tolimán	2	Febrero	2023-12-02T00:00:00	2024-11-08T14:00:00	5	Humedad	32
106405	7	Sololá	713	San Lucas Tolimán	10	San Lucas Tolimán	2	Febrero	2023-12-02T00:00:00	2024-11-08T14:00:00	6	Velocidad del viento	12.9
106406	7	Sololá	713	San Lucas Tolimán	10	San Lucas Tolimán	2	Febrero	2023-12-02T00:00:00	2024-11-08T14:00:00	7	Dirección del viento	12.87
106407	7	Sololá	713	San Lucas Tolimán	10	San Lucas Tolimán	2	Febrero	2023-12-02T00:00:00	2024-11-08T14:00:00	1	Precipitación	0
106408	7	Sololá	713	San Lucas Tolimán	10	San Lucas Tolimán	2	Febrero	2023-12-02T00:00:00	2024-11-08T14:00:00	8	Radiación solar	919
106409	7	Sololá	713	San Lucas Tolimán	10	San Lucas Tolimán	2	Febrero	2023-12-02T00:00:00	2024-11-08T15:00:00	2	Temperatura media	24.3
106410	7	Sololá	713	San Lucas Tolimán	10	San Lucas Tolimán	2	Febrero	2023-12-02T00:00:00	2024-11-08T15:00:00	4	Temperatura máxima	24.9
106411	7	Sololá	713	San Lucas Tolimán	10	San Lucas Tolimán	2	Febrero	2023-12-02T00:00:00	2024-11-08T15:00:00	3	Temperatura mínima	23.8
106412	7	Sololá	713	San Lucas Tolimán	10	San Lucas Tolimán	2	Febrero	2023-12-02T00:00:00	2024-11-08T15:00:00	5	Humedad	31
106413	7	Sololá	713	San Lucas Tolimán	10	San Lucas Tolimán	2	Febrero	2023-12-02T00:00:00	2024-11-08T15:00:00	6	Velocidad del viento	11.3
106414	7	Sololá	713	San Lucas Tolimán	10	San Lucas Tolimán	2	Febrero	2023-12-02T00:00:00	2024-11-08T15:00:00	7	Dirección del viento	11.27
106415	7	Sololá	713	San Lucas Tolimán	10	San Lucas Tolimán	2	Febrero	2023-12-02T00:00:00	2024-11-08T15:00:00	1	Precipitación	0
106416	7	Sololá	713	San Lucas Tolimán	10	San Lucas Tolimán	2	Febrero	2023-12-02T00:00:00	2024-11-08T15:00:00	8	Radiación solar	811
106417	7	Sololá	713	San Lucas Tolimán	10	San Lucas Tolimán	2	Febrero	2023-12-02T00:00:00	2024-11-08T16:00:00	2	Temperatura media	23.7
106418	7	Sololá	713	San Lucas Tolimán	10	San Lucas Tolimán	2	Febrero	2023-12-02T00:00:00	2024-11-08T16:00:00	4	Temperatura máxima	24.7
106419	7	Sololá	713	San Lucas Tolimán	10	San Lucas Tolimán	2	Febrero	2023-12-02T00:00:00	2024-11-08T16:00:00	3	Temperatura mínima	23.6
106420	7	Sololá	713	San Lucas Tolimán	10	San Lucas Tolimán	2	Febrero	2023-12-02T00:00:00	2024-11-08T16:00:00	5	Humedad	33
106421	7	Sololá	713	San Lucas Tolimán	10	San Lucas Tolimán	2	Febrero	2023-12-02T00:00:00	2024-11-08T16:00:00	6	Velocidad del viento	14.5
106422	7	Sololá	713	San Lucas Tolimán	10	San Lucas Tolimán	2	Febrero	2023-12-02T00:00:00	2024-11-08T16:00:00	7	Dirección del viento	14.48
106423	7	Sololá	713	San Lucas Tolimán	10	San Lucas Tolimán	2	Febrero	2023-12-02T00:00:00	2024-11-08T16:00:00	1	Precipitación	0
106424	7	Sololá	713	San Lucas Tolimán	10	San Lucas Tolimán	2	Febrero	2023-12-02T00:00:00	2024-11-08T16:00:00	8	Radiación solar	624
106425	7	Sololá	713	San Lucas Tolimán	10	San Lucas Tolimán	2	Febrero	2023-12-02T00:00:00	2024-11-08T17:00:00	2	Temperatura media	22.5
106426	7	Sololá	713	San Lucas Tolimán	10	San Lucas Tolimán	2	Febrero	2023-12-02T00:00:00	2024-11-08T17:00:00	4	Temperatura máxima	23.7
106427	7	Sololá	713	San Lucas Tolimán	10	San Lucas Tolimán	2	Febrero	2023-12-02T00:00:00	2024-11-08T17:00:00	3	Temperatura mínima	22.5
106428	7	Sololá	713	San Lucas Tolimán	10	San Lucas Tolimán	2	Febrero	2023-12-02T00:00:00	2024-11-08T17:00:00	5	Humedad	35
106429	7	Sololá	713	San Lucas Tolimán	10	San Lucas Tolimán	2	Febrero	2023-12-02T00:00:00	2024-11-08T17:00:00	6	Velocidad del viento	12.9
106430	7	Sololá	713	San Lucas Tolimán	10	San Lucas Tolimán	2	Febrero	2023-12-02T00:00:00	2024-11-08T17:00:00	7	Dirección del viento	12.87
106431	7	Sololá	713	San Lucas Tolimán	10	San Lucas Tolimán	2	Febrero	2023-12-02T00:00:00	2024-11-08T17:00:00	1	Precipitación	0
106432	7	Sololá	713	San Lucas Tolimán	10	San Lucas Tolimán	2	Febrero	2023-12-02T00:00:00	2024-11-08T17:00:00	8	Radiación solar	347
106433	7	Sololá	713	San Lucas Tolimán	10	San Lucas Tolimán	2	Febrero	2023-12-02T00:00:00	2024-11-08T18:00:00	2	Temperatura media	21.1
106434	7	Sololá	713	San Lucas Tolimán	10	San Lucas Tolimán	2	Febrero	2023-12-02T00:00:00	2024-11-08T18:00:00	4	Temperatura máxima	22.5
106435	7	Sololá	713	San Lucas Tolimán	10	San Lucas Tolimán	2	Febrero	2023-12-02T00:00:00	2024-11-08T18:00:00	3	Temperatura mínima	21.1
106436	7	Sololá	713	San Lucas Tolimán	10	San Lucas Tolimán	2	Febrero	2023-12-02T00:00:00	2024-11-08T18:00:00	5	Humedad	38
106437	7	Sololá	713	San Lucas Tolimán	10	San Lucas Tolimán	2	Febrero	2023-12-02T00:00:00	2024-11-08T18:00:00	6	Velocidad del viento	11.3
106438	7	Sololá	713	San Lucas Tolimán	10	San Lucas Tolimán	2	Febrero	2023-12-02T00:00:00	2024-11-08T18:00:00	7	Dirección del viento	11.27
106439	7	Sololá	713	San Lucas Tolimán	10	San Lucas Tolimán	2	Febrero	2023-12-02T00:00:00	2024-11-08T18:00:00	1	Precipitación	0
106440	7	Sololá	713	San Lucas Tolimán	10	San Lucas Tolimán	2	Febrero	2023-12-02T00:00:00	2024-11-08T18:00:00	8	Radiación solar	16
106441	7	Sololá	713	San Lucas Tolimán	10	San Lucas Tolimán	2	Febrero	2023-12-02T00:00:00	2024-11-08T19:00:00	2	Temperatura media	19.3
106442	7	Sololá	713	San Lucas Tolimán	10	San Lucas Tolimán	2	Febrero	2023-12-02T00:00:00	2024-11-08T19:00:00	4	Temperatura máxima	21.1
106443	7	Sololá	713	San Lucas Tolimán	10	San Lucas Tolimán	2	Febrero	2023-12-02T00:00:00	2024-11-08T19:00:00	3	Temperatura mínima	19.3
106444	7	Sololá	713	San Lucas Tolimán	10	San Lucas Tolimán	2	Febrero	2023-12-02T00:00:00	2024-11-08T19:00:00	5	Humedad	44
106445	7	Sololá	713	San Lucas Tolimán	10	San Lucas Tolimán	2	Febrero	2023-12-02T00:00:00	2024-11-08T19:00:00	6	Velocidad del viento	8
106446	7	Sololá	713	San Lucas Tolimán	10	San Lucas Tolimán	2	Febrero	2023-12-02T00:00:00	2024-11-08T19:00:00	7	Dirección del viento	8.05
106447	7	Sololá	713	San Lucas Tolimán	10	San Lucas Tolimán	2	Febrero	2023-12-02T00:00:00	2024-11-08T19:00:00	1	Precipitación	0
106448	7	Sololá	713	San Lucas Tolimán	10	San Lucas Tolimán	2	Febrero	2023-12-02T00:00:00	2024-11-08T19:00:00	8	Radiación solar	0
106449	7	Sololá	713	San Lucas Tolimán	10	San Lucas Tolimán	2	Febrero	2023-12-02T00:00:00	2024-11-08T20:00:00	2	Temperatura media	18.3
106450	7	Sololá	713	San Lucas Tolimán	10	San Lucas Tolimán	2	Febrero	2023-12-02T00:00:00	2024-11-08T20:00:00	4	Temperatura máxima	19.3
106451	7	Sololá	713	San Lucas Tolimán	10	San Lucas Tolimán	2	Febrero	2023-12-02T00:00:00	2024-11-08T20:00:00	3	Temperatura mínima	18.3
106452	7	Sololá	713	San Lucas Tolimán	10	San Lucas Tolimán	2	Febrero	2023-12-02T00:00:00	2024-11-08T20:00:00	5	Humedad	45
106453	7	Sololá	713	San Lucas Tolimán	10	San Lucas Tolimán	2	Febrero	2023-12-02T00:00:00	2024-11-08T20:00:00	6	Velocidad del viento	8
106454	7	Sololá	713	San Lucas Tolimán	10	San Lucas Tolimán	2	Febrero	2023-12-02T00:00:00	2024-11-08T20:00:00	7	Dirección del viento	8.05
106455	7	Sololá	713	San Lucas Tolimán	10	San Lucas Tolimán	2	Febrero	2023-12-02T00:00:00	2024-11-08T20:00:00	1	Precipitación	0
106456	7	Sololá	713	San Lucas Tolimán	10	San Lucas Tolimán	2	Febrero	2023-12-02T00:00:00	2024-11-08T20:00:00	8	Radiación solar	0
106457	7	Sololá	713	San Lucas Tolimán	10	San Lucas Tolimán	2	Febrero	2023-12-02T00:00:00	2024-11-08T21:00:00	2	Temperatura media	17.2
106458	7	Sololá	713	San Lucas Tolimán	10	San Lucas Tolimán	2	Febrero	2023-12-02T00:00:00	2024-11-08T21:00:00	4	Temperatura máxima	18.3
106459	7	Sololá	713	San Lucas Tolimán	10	San Lucas Tolimán	2	Febrero	2023-12-02T00:00:00	2024-11-08T21:00:00	3	Temperatura mínima	17.2
106460	7	Sololá	713	San Lucas Tolimán	10	San Lucas Tolimán	2	Febrero	2023-12-02T00:00:00	2024-11-08T21:00:00	5	Humedad	50
106461	7	Sololá	713	San Lucas Tolimán	10	San Lucas Tolimán	2	Febrero	2023-12-02T00:00:00	2024-11-08T21:00:00	6	Velocidad del viento	6.4
106462	7	Sololá	713	San Lucas Tolimán	10	San Lucas Tolimán	2	Febrero	2023-12-02T00:00:00	2024-11-08T21:00:00	7	Dirección del viento	6.44
106463	7	Sololá	713	San Lucas Tolimán	10	San Lucas Tolimán	2	Febrero	2023-12-02T00:00:00	2024-11-08T21:00:00	1	Precipitación	0
106464	7	Sololá	713	San Lucas Tolimán	10	San Lucas Tolimán	2	Febrero	2023-12-02T00:00:00	2024-11-08T21:00:00	8	Radiación solar	0
106465	7	Sololá	713	San Lucas Tolimán	10	San Lucas Tolimán	2	Febrero	2023-12-02T00:00:00	2024-11-08T22:00:00	2	Temperatura media	17.1
106466	7	Sololá	713	San Lucas Tolimán	10	San Lucas Tolimán	2	Febrero	2023-12-02T00:00:00	2024-11-08T22:00:00	4	Temperatura máxima	17.4
106467	7	Sololá	713	San Lucas Tolimán	10	San Lucas Tolimán	2	Febrero	2023-12-02T00:00:00	2024-11-08T22:00:00	3	Temperatura mínima	16.9
106468	7	Sololá	713	San Lucas Tolimán	10	San Lucas Tolimán	2	Febrero	2023-12-02T00:00:00	2024-11-08T22:00:00	5	Humedad	52
106469	7	Sololá	713	San Lucas Tolimán	10	San Lucas Tolimán	2	Febrero	2023-12-02T00:00:00	2024-11-08T22:00:00	6	Velocidad del viento	8
106470	7	Sololá	713	San Lucas Tolimán	10	San Lucas Tolimán	2	Febrero	2023-12-02T00:00:00	2024-11-08T22:00:00	7	Dirección del viento	8.05
106471	7	Sololá	713	San Lucas Tolimán	10	San Lucas Tolimán	2	Febrero	2023-12-02T00:00:00	2024-11-08T22:00:00	1	Precipitación	0
106472	7	Sololá	713	San Lucas Tolimán	10	San Lucas Tolimán	2	Febrero	2023-12-02T00:00:00	2024-11-08T22:00:00	8	Radiación solar	0
106473	7	Sololá	713	San Lucas Tolimán	10	San Lucas Tolimán	2	Febrero	2023-12-02T00:00:00	2024-11-08T23:00:00	2	Temperatura media	16.9
106474	7	Sololá	713	San Lucas Tolimán	10	San Lucas Tolimán	2	Febrero	2023-12-02T00:00:00	2024-11-08T23:00:00	4	Temperatura máxima	17.2
106475	7	Sololá	713	San Lucas Tolimán	10	San Lucas Tolimán	2	Febrero	2023-12-02T00:00:00	2024-11-08T23:00:00	3	Temperatura mínima	16.9
106476	7	Sololá	713	San Lucas Tolimán	10	San Lucas Tolimán	2	Febrero	2023-12-02T00:00:00	2024-11-08T23:00:00	5	Humedad	52
106477	7	Sololá	713	San Lucas Tolimán	10	San Lucas Tolimán	2	Febrero	2023-12-02T00:00:00	2024-11-08T23:00:00	6	Velocidad del viento	8
106478	7	Sololá	713	San Lucas Tolimán	10	San Lucas Tolimán	2	Febrero	2023-12-02T00:00:00	2024-11-08T23:00:00	7	Dirección del viento	8.05
106479	7	Sololá	713	San Lucas Tolimán	10	San Lucas Tolimán	2	Febrero	2023-12-02T00:00:00	2024-11-08T23:00:00	1	Precipitación	0
106480	7	Sololá	713	San Lucas Tolimán	10	San Lucas Tolimán	2	Febrero	2023-12-02T00:00:00	2024-11-08T23:00:00	8	Radiación solar	0
106481	7	Sololá	713	San Lucas Tolimán	10	San Lucas Tolimán	2	Febrero	2023-02-13T00:00:00	2024-11-08T00:00:00	2	Temperatura media	16.7
106482	7	Sololá	713	San Lucas Tolimán	10	San Lucas Tolimán	2	Febrero	2023-02-13T00:00:00	2024-11-08T00:00:00	4	Temperatura máxima	16.9
106483	7	Sololá	713	San Lucas Tolimán	10	San Lucas Tolimán	2	Febrero	2023-02-13T00:00:00	2024-11-08T00:00:00	3	Temperatura mínima	16.6
106484	7	Sololá	713	San Lucas Tolimán	10	San Lucas Tolimán	2	Febrero	2023-02-13T00:00:00	2024-11-08T00:00:00	5	Humedad	53
106485	7	Sololá	713	San Lucas Tolimán	10	San Lucas Tolimán	2	Febrero	2023-02-13T00:00:00	2024-11-08T00:00:00	6	Velocidad del viento	6.4
106486	7	Sololá	713	San Lucas Tolimán	10	San Lucas Tolimán	2	Febrero	2023-02-13T00:00:00	2024-11-08T00:00:00	7	Dirección del viento	6.44
106487	7	Sololá	713	San Lucas Tolimán	10	San Lucas Tolimán	2	Febrero	2023-02-13T00:00:00	2024-11-08T00:00:00	1	Precipitación	0
106488	7	Sololá	713	San Lucas Tolimán	10	San Lucas Tolimán	2	Febrero	2023-02-13T00:00:00	2024-11-08T00:00:00	8	Radiación solar	0
106489	7	Sololá	713	San Lucas Tolimán	10	San Lucas Tolimán	2	Febrero	2023-02-13T00:00:00	2024-11-08T01:00:00	2	Temperatura media	16.6
106490	7	Sololá	713	San Lucas Tolimán	10	San Lucas Tolimán	2	Febrero	2023-02-13T00:00:00	2024-11-08T01:00:00	4	Temperatura máxima	17.1
106491	7	Sololá	713	San Lucas Tolimán	10	San Lucas Tolimán	2	Febrero	2023-02-13T00:00:00	2024-11-08T01:00:00	3	Temperatura mínima	16.6
106492	7	Sololá	713	San Lucas Tolimán	10	San Lucas Tolimán	2	Febrero	2023-02-13T00:00:00	2024-11-08T01:00:00	5	Humedad	53
106493	7	Sololá	713	San Lucas Tolimán	10	San Lucas Tolimán	2	Febrero	2023-02-13T00:00:00	2024-11-08T01:00:00	6	Velocidad del viento	6.4
106494	7	Sololá	713	San Lucas Tolimán	10	San Lucas Tolimán	2	Febrero	2023-02-13T00:00:00	2024-11-08T01:00:00	7	Dirección del viento	6.44
106495	7	Sololá	713	San Lucas Tolimán	10	San Lucas Tolimán	2	Febrero	2023-02-13T00:00:00	2024-11-08T01:00:00	1	Precipitación	0
106496	7	Sololá	713	San Lucas Tolimán	10	San Lucas Tolimán	2	Febrero	2023-02-13T00:00:00	2024-11-08T01:00:00	8	Radiación solar	0
106497	7	Sololá	713	San Lucas Tolimán	10	San Lucas Tolimán	2	Febrero	2023-02-13T00:00:00	2024-11-08T02:00:00	2	Temperatura media	16.4
106498	7	Sololá	713	San Lucas Tolimán	10	San Lucas Tolimán	2	Febrero	2023-02-13T00:00:00	2024-11-08T02:00:00	4	Temperatura máxima	16.6
106499	7	Sololá	713	San Lucas Tolimán	10	San Lucas Tolimán	2	Febrero	2023-02-13T00:00:00	2024-11-08T02:00:00	3	Temperatura mínima	16.2
106500	7	Sololá	713	San Lucas Tolimán	10	San Lucas Tolimán	2	Febrero	2023-02-13T00:00:00	2024-11-08T02:00:00	5	Humedad	55
106501	7	Sololá	713	San Lucas Tolimán	10	San Lucas Tolimán	2	Febrero	2023-02-13T00:00:00	2024-11-08T02:00:00	6	Velocidad del viento	8
106502	7	Sololá	713	San Lucas Tolimán	10	San Lucas Tolimán	2	Febrero	2023-02-13T00:00:00	2024-11-08T02:00:00	7	Dirección del viento	8.05
106503	7	Sololá	713	San Lucas Tolimán	10	San Lucas Tolimán	2	Febrero	2023-02-13T00:00:00	2024-11-08T02:00:00	1	Precipitación	0
106504	7	Sololá	713	San Lucas Tolimán	10	San Lucas Tolimán	2	Febrero	2023-02-13T00:00:00	2024-11-08T02:00:00	8	Radiación solar	0
106505	7	Sololá	713	San Lucas Tolimán	10	San Lucas Tolimán	2	Febrero	2023-02-13T00:00:00	2024-11-08T03:00:00	2	Temperatura media	15.8
106506	7	Sololá	713	San Lucas Tolimán	10	San Lucas Tolimán	2	Febrero	2023-02-13T00:00:00	2024-11-08T03:00:00	4	Temperatura máxima	16.4
106507	7	Sololá	713	San Lucas Tolimán	10	San Lucas Tolimán	2	Febrero	2023-02-13T00:00:00	2024-11-08T03:00:00	3	Temperatura mínima	15.8
106508	7	Sololá	713	San Lucas Tolimán	10	San Lucas Tolimán	2	Febrero	2023-02-13T00:00:00	2024-11-08T03:00:00	5	Humedad	58
106509	7	Sololá	713	San Lucas Tolimán	10	San Lucas Tolimán	2	Febrero	2023-02-13T00:00:00	2024-11-08T03:00:00	6	Velocidad del viento	4.8
106510	7	Sololá	713	San Lucas Tolimán	10	San Lucas Tolimán	2	Febrero	2023-02-13T00:00:00	2024-11-08T03:00:00	7	Dirección del viento	4.83
106511	7	Sololá	713	San Lucas Tolimán	10	San Lucas Tolimán	2	Febrero	2023-02-13T00:00:00	2024-11-08T03:00:00	1	Precipitación	0
106512	7	Sololá	713	San Lucas Tolimán	10	San Lucas Tolimán	2	Febrero	2023-02-13T00:00:00	2024-11-08T03:00:00	8	Radiación solar	0
106513	7	Sololá	713	San Lucas Tolimán	10	San Lucas Tolimán	2	Febrero	2023-02-13T00:00:00	2024-11-08T04:00:00	2	Temperatura media	15.7
106514	7	Sololá	713	San Lucas Tolimán	10	San Lucas Tolimán	2	Febrero	2023-02-13T00:00:00	2024-11-08T04:00:00	4	Temperatura máxima	15.8
106515	7	Sololá	713	San Lucas Tolimán	10	San Lucas Tolimán	2	Febrero	2023-02-13T00:00:00	2024-11-08T04:00:00	3	Temperatura mínima	15.4
106516	7	Sololá	713	San Lucas Tolimán	10	San Lucas Tolimán	2	Febrero	2023-02-13T00:00:00	2024-11-08T04:00:00	5	Humedad	57
106517	7	Sololá	713	San Lucas Tolimán	10	San Lucas Tolimán	2	Febrero	2023-02-13T00:00:00	2024-11-08T04:00:00	6	Velocidad del viento	6.4
106518	7	Sololá	713	San Lucas Tolimán	10	San Lucas Tolimán	2	Febrero	2023-02-13T00:00:00	2024-11-08T04:00:00	7	Dirección del viento	6.44
106519	7	Sololá	713	San Lucas Tolimán	10	San Lucas Tolimán	2	Febrero	2023-02-13T00:00:00	2024-11-08T04:00:00	1	Precipitación	0
106520	7	Sololá	713	San Lucas Tolimán	10	San Lucas Tolimán	2	Febrero	2023-02-13T00:00:00	2024-11-08T04:00:00	8	Radiación solar	0
106521	7	Sololá	713	San Lucas Tolimán	10	San Lucas Tolimán	2	Febrero	2023-02-13T00:00:00	2024-11-08T05:00:00	2	Temperatura media	15.9
106522	7	Sololá	713	San Lucas Tolimán	10	San Lucas Tolimán	2	Febrero	2023-02-13T00:00:00	2024-11-08T05:00:00	4	Temperatura máxima	15.9
106523	7	Sololá	713	San Lucas Tolimán	10	San Lucas Tolimán	2	Febrero	2023-02-13T00:00:00	2024-11-08T05:00:00	3	Temperatura mínima	15.5
106524	7	Sololá	713	San Lucas Tolimán	10	San Lucas Tolimán	2	Febrero	2023-02-13T00:00:00	2024-11-08T05:00:00	5	Humedad	57
106525	7	Sololá	713	San Lucas Tolimán	10	San Lucas Tolimán	2	Febrero	2023-02-13T00:00:00	2024-11-08T05:00:00	6	Velocidad del viento	6.4
106526	7	Sololá	713	San Lucas Tolimán	10	San Lucas Tolimán	2	Febrero	2023-02-13T00:00:00	2024-11-08T05:00:00	7	Dirección del viento	6.44
106527	7	Sololá	713	San Lucas Tolimán	10	San Lucas Tolimán	2	Febrero	2023-02-13T00:00:00	2024-11-08T05:00:00	1	Precipitación	0
106528	7	Sololá	713	San Lucas Tolimán	10	San Lucas Tolimán	2	Febrero	2023-02-13T00:00:00	2024-11-08T05:00:00	8	Radiación solar	0
106529	7	Sololá	713	San Lucas Tolimán	10	San Lucas Tolimán	2	Febrero	2023-02-13T00:00:00	2024-11-08T06:00:00	2	Temperatura media	16.2
106530	7	Sololá	713	San Lucas Tolimán	10	San Lucas Tolimán	2	Febrero	2023-02-13T00:00:00	2024-11-08T06:00:00	4	Temperatura máxima	16.3
106531	7	Sololá	713	San Lucas Tolimán	10	San Lucas Tolimán	2	Febrero	2023-02-13T00:00:00	2024-11-08T06:00:00	3	Temperatura mínima	15.8
106532	7	Sololá	713	San Lucas Tolimán	10	San Lucas Tolimán	2	Febrero	2023-02-13T00:00:00	2024-11-08T06:00:00	5	Humedad	55
106533	7	Sololá	713	San Lucas Tolimán	10	San Lucas Tolimán	2	Febrero	2023-02-13T00:00:00	2024-11-08T06:00:00	6	Velocidad del viento	6.4
106534	7	Sololá	713	San Lucas Tolimán	10	San Lucas Tolimán	2	Febrero	2023-02-13T00:00:00	2024-11-08T06:00:00	7	Dirección del viento	6.44
106535	7	Sololá	713	San Lucas Tolimán	10	San Lucas Tolimán	2	Febrero	2023-02-13T00:00:00	2024-11-08T06:00:00	1	Precipitación	0
106536	7	Sololá	713	San Lucas Tolimán	10	San Lucas Tolimán	2	Febrero	2023-02-13T00:00:00	2024-11-08T06:00:00	8	Radiación solar	0
106537	7	Sololá	713	San Lucas Tolimán	10	San Lucas Tolimán	2	Febrero	2023-02-13T00:00:00	2024-11-08T07:00:00	2	Temperatura media	16.2
106538	7	Sololá	713	San Lucas Tolimán	10	San Lucas Tolimán	2	Febrero	2023-02-13T00:00:00	2024-11-08T07:00:00	4	Temperatura máxima	16.4
106539	7	Sololá	713	San Lucas Tolimán	10	San Lucas Tolimán	2	Febrero	2023-02-13T00:00:00	2024-11-08T07:00:00	3	Temperatura mínima	16.1
106540	7	Sololá	713	San Lucas Tolimán	10	San Lucas Tolimán	2	Febrero	2023-02-13T00:00:00	2024-11-08T07:00:00	5	Humedad	56
106541	7	Sololá	713	San Lucas Tolimán	10	San Lucas Tolimán	2	Febrero	2023-02-13T00:00:00	2024-11-08T07:00:00	6	Velocidad del viento	4.8
106542	7	Sololá	713	San Lucas Tolimán	10	San Lucas Tolimán	2	Febrero	2023-02-13T00:00:00	2024-11-08T07:00:00	7	Dirección del viento	4.83
106543	7	Sololá	713	San Lucas Tolimán	10	San Lucas Tolimán	2	Febrero	2023-02-13T00:00:00	2024-11-08T07:00:00	1	Precipitación	0
106544	7	Sololá	713	San Lucas Tolimán	10	San Lucas Tolimán	2	Febrero	2023-02-13T00:00:00	2024-11-08T07:00:00	8	Radiación solar	5
106545	7	Sololá	713	San Lucas Tolimán	10	San Lucas Tolimán	2	Febrero	2023-02-13T00:00:00	2024-11-08T08:00:00	2	Temperatura media	17.3
106546	7	Sololá	713	San Lucas Tolimán	10	San Lucas Tolimán	2	Febrero	2023-02-13T00:00:00	2024-11-08T08:00:00	4	Temperatura máxima	17.3
106547	7	Sololá	713	San Lucas Tolimán	10	San Lucas Tolimán	2	Febrero	2023-02-13T00:00:00	2024-11-08T08:00:00	3	Temperatura mínima	16.2
106548	7	Sololá	713	San Lucas Tolimán	10	San Lucas Tolimán	2	Febrero	2023-02-13T00:00:00	2024-11-08T08:00:00	5	Humedad	53
106549	7	Sololá	713	San Lucas Tolimán	10	San Lucas Tolimán	2	Febrero	2023-02-13T00:00:00	2024-11-08T08:00:00	6	Velocidad del viento	8
106550	7	Sololá	713	San Lucas Tolimán	10	San Lucas Tolimán	2	Febrero	2023-02-13T00:00:00	2024-11-08T08:00:00	7	Dirección del viento	8.05
106551	7	Sololá	713	San Lucas Tolimán	10	San Lucas Tolimán	2	Febrero	2023-02-13T00:00:00	2024-11-08T08:00:00	1	Precipitación	0
106552	7	Sololá	713	San Lucas Tolimán	10	San Lucas Tolimán	2	Febrero	2023-02-13T00:00:00	2024-11-08T08:00:00	8	Radiación solar	26
106553	7	Sololá	713	San Lucas Tolimán	10	San Lucas Tolimán	2	Febrero	2023-02-13T00:00:00	2024-11-08T09:00:00	2	Temperatura media	19.7
106554	7	Sololá	713	San Lucas Tolimán	10	San Lucas Tolimán	2	Febrero	2023-02-13T00:00:00	2024-11-08T09:00:00	4	Temperatura máxima	19.7
106555	7	Sololá	713	San Lucas Tolimán	10	San Lucas Tolimán	2	Febrero	2023-02-13T00:00:00	2024-11-08T09:00:00	3	Temperatura mínima	17.4
106556	7	Sololá	713	San Lucas Tolimán	10	San Lucas Tolimán	2	Febrero	2023-02-13T00:00:00	2024-11-08T09:00:00	5	Humedad	47
106557	7	Sololá	713	San Lucas Tolimán	10	San Lucas Tolimán	2	Febrero	2023-02-13T00:00:00	2024-11-08T09:00:00	6	Velocidad del viento	9.7
106558	7	Sololá	713	San Lucas Tolimán	10	San Lucas Tolimán	2	Febrero	2023-02-13T00:00:00	2024-11-08T09:00:00	7	Dirección del viento	9.66
106559	7	Sololá	713	San Lucas Tolimán	10	San Lucas Tolimán	2	Febrero	2023-02-13T00:00:00	2024-11-08T09:00:00	1	Precipitación	0
106560	7	Sololá	713	San Lucas Tolimán	10	San Lucas Tolimán	2	Febrero	2023-02-13T00:00:00	2024-11-08T09:00:00	8	Radiación solar	420
106561	7	Sololá	713	San Lucas Tolimán	10	San Lucas Tolimán	2	Febrero	2023-02-13T00:00:00	2024-11-08T10:00:00	2	Temperatura media	20.7
106562	7	Sololá	713	San Lucas Tolimán	10	San Lucas Tolimán	2	Febrero	2023-02-13T00:00:00	2024-11-08T10:00:00	4	Temperatura máxima	20.9
106563	7	Sololá	713	San Lucas Tolimán	10	San Lucas Tolimán	2	Febrero	2023-02-13T00:00:00	2024-11-08T10:00:00	3	Temperatura mínima	19.7
106564	7	Sololá	713	San Lucas Tolimán	10	San Lucas Tolimán	2	Febrero	2023-02-13T00:00:00	2024-11-08T10:00:00	5	Humedad	44
106565	7	Sololá	713	San Lucas Tolimán	10	San Lucas Tolimán	2	Febrero	2023-02-13T00:00:00	2024-11-08T10:00:00	6	Velocidad del viento	11.3
106566	7	Sololá	713	San Lucas Tolimán	10	San Lucas Tolimán	2	Febrero	2023-02-13T00:00:00	2024-11-08T10:00:00	7	Dirección del viento	11.27
106567	7	Sololá	713	San Lucas Tolimán	10	San Lucas Tolimán	2	Febrero	2023-02-13T00:00:00	2024-11-08T10:00:00	1	Precipitación	0
106568	7	Sololá	713	San Lucas Tolimán	10	San Lucas Tolimán	2	Febrero	2023-02-13T00:00:00	2024-11-08T10:00:00	8	Radiación solar	586
106569	7	Sololá	713	San Lucas Tolimán	10	San Lucas Tolimán	2	Febrero	2023-02-13T00:00:00	2024-11-08T11:00:00	2	Temperatura media	21.9
106570	7	Sololá	713	San Lucas Tolimán	10	San Lucas Tolimán	2	Febrero	2023-02-13T00:00:00	2024-11-08T11:00:00	4	Temperatura máxima	22.1
106571	7	Sololá	713	San Lucas Tolimán	10	San Lucas Tolimán	2	Febrero	2023-02-13T00:00:00	2024-11-08T11:00:00	3	Temperatura mínima	20.8
106572	7	Sololá	713	San Lucas Tolimán	10	San Lucas Tolimán	2	Febrero	2023-02-13T00:00:00	2024-11-08T11:00:00	5	Humedad	41
106573	7	Sololá	713	San Lucas Tolimán	10	San Lucas Tolimán	2	Febrero	2023-02-13T00:00:00	2024-11-08T11:00:00	6	Velocidad del viento	9.7
106574	7	Sololá	713	San Lucas Tolimán	10	San Lucas Tolimán	2	Febrero	2023-02-13T00:00:00	2024-11-08T11:00:00	7	Dirección del viento	9.66
106575	7	Sololá	713	San Lucas Tolimán	10	San Lucas Tolimán	2	Febrero	2023-02-13T00:00:00	2024-11-08T11:00:00	1	Precipitación	0
106576	7	Sololá	713	San Lucas Tolimán	10	San Lucas Tolimán	2	Febrero	2023-02-13T00:00:00	2024-11-08T11:00:00	8	Radiación solar	811
106577	7	Sololá	713	San Lucas Tolimán	10	San Lucas Tolimán	2	Febrero	2023-02-13T00:00:00	2024-11-08T12:00:00	2	Temperatura media	22.3
106578	7	Sololá	713	San Lucas Tolimán	10	San Lucas Tolimán	2	Febrero	2023-02-13T00:00:00	2024-11-08T12:00:00	4	Temperatura máxima	22.3
106579	7	Sololá	713	San Lucas Tolimán	10	San Lucas Tolimán	2	Febrero	2023-02-13T00:00:00	2024-11-08T12:00:00	3	Temperatura mínima	21.7
106580	7	Sololá	713	San Lucas Tolimán	10	San Lucas Tolimán	2	Febrero	2023-02-13T00:00:00	2024-11-08T12:00:00	5	Humedad	39
106581	7	Sololá	713	San Lucas Tolimán	10	San Lucas Tolimán	2	Febrero	2023-02-13T00:00:00	2024-11-08T12:00:00	6	Velocidad del viento	11.3
106582	7	Sololá	713	San Lucas Tolimán	10	San Lucas Tolimán	2	Febrero	2023-02-13T00:00:00	2024-11-08T12:00:00	7	Dirección del viento	11.27
106583	7	Sololá	713	San Lucas Tolimán	10	San Lucas Tolimán	2	Febrero	2023-02-13T00:00:00	2024-11-08T12:00:00	1	Precipitación	0
106584	7	Sololá	713	San Lucas Tolimán	10	San Lucas Tolimán	2	Febrero	2023-02-13T00:00:00	2024-11-08T12:00:00	8	Radiación solar	242
106585	7	Sololá	713	San Lucas Tolimán	10	San Lucas Tolimán	2	Febrero	2023-02-13T00:00:00	2024-11-08T13:00:00	2	Temperatura media	24.2
106586	7	Sololá	713	San Lucas Tolimán	10	San Lucas Tolimán	2	Febrero	2023-02-13T00:00:00	2024-11-08T13:00:00	4	Temperatura máxima	24.2
106587	7	Sololá	713	San Lucas Tolimán	10	San Lucas Tolimán	2	Febrero	2023-02-13T00:00:00	2024-11-08T13:00:00	3	Temperatura mínima	22.2
106588	7	Sololá	713	San Lucas Tolimán	10	San Lucas Tolimán	2	Febrero	2023-02-13T00:00:00	2024-11-08T13:00:00	5	Humedad	34
106589	7	Sololá	713	San Lucas Tolimán	10	San Lucas Tolimán	2	Febrero	2023-02-13T00:00:00	2024-11-08T13:00:00	6	Velocidad del viento	9.7
106590	7	Sololá	713	San Lucas Tolimán	10	San Lucas Tolimán	2	Febrero	2023-02-13T00:00:00	2024-11-08T13:00:00	7	Dirección del viento	9.66
106591	7	Sololá	713	San Lucas Tolimán	10	San Lucas Tolimán	2	Febrero	2023-02-13T00:00:00	2024-11-08T13:00:00	1	Precipitación	0
106592	7	Sololá	713	San Lucas Tolimán	10	San Lucas Tolimán	2	Febrero	2023-02-13T00:00:00	2024-11-08T13:00:00	8	Radiación solar	490
106593	7	Sololá	713	San Lucas Tolimán	10	San Lucas Tolimán	2	Febrero	2023-02-13T00:00:00	2024-11-08T14:00:00	2	Temperatura media	23.7
106594	7	Sololá	713	San Lucas Tolimán	10	San Lucas Tolimán	2	Febrero	2023-02-13T00:00:00	2024-11-08T14:00:00	4	Temperatura máxima	24.3
106595	7	Sololá	713	San Lucas Tolimán	10	San Lucas Tolimán	2	Febrero	2023-02-13T00:00:00	2024-11-08T14:00:00	3	Temperatura mínima	23.2
106596	7	Sololá	713	San Lucas Tolimán	10	San Lucas Tolimán	2	Febrero	2023-02-13T00:00:00	2024-11-08T14:00:00	5	Humedad	52
106597	7	Sololá	713	San Lucas Tolimán	10	San Lucas Tolimán	2	Febrero	2023-02-13T00:00:00	2024-11-08T14:00:00	6	Velocidad del viento	8
106598	7	Sololá	713	San Lucas Tolimán	10	San Lucas Tolimán	2	Febrero	2023-02-13T00:00:00	2024-11-08T14:00:00	7	Dirección del viento	8.05
106599	7	Sololá	713	San Lucas Tolimán	10	San Lucas Tolimán	2	Febrero	2023-02-13T00:00:00	2024-11-08T14:00:00	1	Precipitación	0
106600	7	Sololá	713	San Lucas Tolimán	10	San Lucas Tolimán	2	Febrero	2023-02-13T00:00:00	2024-11-08T14:00:00	8	Radiación solar	740
106601	7	Sololá	713	San Lucas Tolimán	10	San Lucas Tolimán	2	Febrero	2023-02-13T00:00:00	2024-11-08T15:00:00	2	Temperatura media	24.6
106602	7	Sololá	713	San Lucas Tolimán	10	San Lucas Tolimán	2	Febrero	2023-02-13T00:00:00	2024-11-08T15:00:00	4	Temperatura máxima	24.6
106603	7	Sololá	713	San Lucas Tolimán	10	San Lucas Tolimán	2	Febrero	2023-02-13T00:00:00	2024-11-08T15:00:00	3	Temperatura mínima	23.3
106604	7	Sololá	713	San Lucas Tolimán	10	San Lucas Tolimán	2	Febrero	2023-02-13T00:00:00	2024-11-08T15:00:00	5	Humedad	50
106605	7	Sololá	713	San Lucas Tolimán	10	San Lucas Tolimán	2	Febrero	2023-02-13T00:00:00	2024-11-08T15:00:00	6	Velocidad del viento	6.4
106606	7	Sololá	713	San Lucas Tolimán	10	San Lucas Tolimán	2	Febrero	2023-02-13T00:00:00	2024-11-08T15:00:00	7	Dirección del viento	6.44
106607	7	Sololá	713	San Lucas Tolimán	10	San Lucas Tolimán	2	Febrero	2023-02-13T00:00:00	2024-11-08T15:00:00	1	Precipitación	0
106608	7	Sololá	713	San Lucas Tolimán	10	San Lucas Tolimán	2	Febrero	2023-02-13T00:00:00	2024-11-08T15:00:00	8	Radiación solar	805
106609	7	Sololá	713	San Lucas Tolimán	10	San Lucas Tolimán	2	Febrero	2023-02-13T00:00:00	2024-11-08T16:00:00	2	Temperatura media	23.3
106610	7	Sololá	713	San Lucas Tolimán	10	San Lucas Tolimán	2	Febrero	2023-02-13T00:00:00	2024-11-08T16:00:00	4	Temperatura máxima	24.7
106611	7	Sololá	713	San Lucas Tolimán	10	San Lucas Tolimán	2	Febrero	2023-02-13T00:00:00	2024-11-08T16:00:00	3	Temperatura mínima	23.2
106612	7	Sololá	713	San Lucas Tolimán	10	San Lucas Tolimán	2	Febrero	2023-02-13T00:00:00	2024-11-08T16:00:00	5	Humedad	52
106613	7	Sololá	713	San Lucas Tolimán	10	San Lucas Tolimán	2	Febrero	2023-02-13T00:00:00	2024-11-08T16:00:00	6	Velocidad del viento	6.4
106614	7	Sololá	713	San Lucas Tolimán	10	San Lucas Tolimán	2	Febrero	2023-02-13T00:00:00	2024-11-08T16:00:00	7	Dirección del viento	6.44
106615	7	Sololá	713	San Lucas Tolimán	10	San Lucas Tolimán	2	Febrero	2023-02-13T00:00:00	2024-11-08T16:00:00	1	Precipitación	0
106616	7	Sololá	713	San Lucas Tolimán	10	San Lucas Tolimán	2	Febrero	2023-02-13T00:00:00	2024-11-08T16:00:00	8	Radiación solar	472
106617	7	Sololá	713	San Lucas Tolimán	10	San Lucas Tolimán	2	Febrero	2023-02-13T00:00:00	2024-11-08T17:00:00	2	Temperatura media	21.8
106618	7	Sololá	713	San Lucas Tolimán	10	San Lucas Tolimán	2	Febrero	2023-02-13T00:00:00	2024-11-08T17:00:00	4	Temperatura máxima	23.3
106619	7	Sololá	713	San Lucas Tolimán	10	San Lucas Tolimán	2	Febrero	2023-02-13T00:00:00	2024-11-08T17:00:00	3	Temperatura mínima	21.8
106620	7	Sololá	713	San Lucas Tolimán	10	San Lucas Tolimán	2	Febrero	2023-02-13T00:00:00	2024-11-08T17:00:00	5	Humedad	58
106621	7	Sololá	713	San Lucas Tolimán	10	San Lucas Tolimán	2	Febrero	2023-02-13T00:00:00	2024-11-08T17:00:00	6	Velocidad del viento	8
106622	7	Sololá	713	San Lucas Tolimán	10	San Lucas Tolimán	2	Febrero	2023-02-13T00:00:00	2024-11-08T17:00:00	7	Dirección del viento	8.05
106623	7	Sololá	713	San Lucas Tolimán	10	San Lucas Tolimán	2	Febrero	2023-02-13T00:00:00	2024-11-08T17:00:00	1	Precipitación	0
106624	7	Sololá	713	San Lucas Tolimán	10	San Lucas Tolimán	2	Febrero	2023-02-13T00:00:00	2024-11-08T17:00:00	8	Radiación solar	306
106625	7	Sololá	713	San Lucas Tolimán	10	San Lucas Tolimán	2	Febrero	2023-02-13T00:00:00	2024-11-08T18:00:00	2	Temperatura media	20.7
106626	7	Sololá	713	San Lucas Tolimán	10	San Lucas Tolimán	2	Febrero	2023-02-13T00:00:00	2024-11-08T18:00:00	4	Temperatura máxima	21.8
106627	7	Sololá	713	San Lucas Tolimán	10	San Lucas Tolimán	2	Febrero	2023-02-13T00:00:00	2024-11-08T18:00:00	3	Temperatura mínima	20.4
106628	7	Sololá	713	San Lucas Tolimán	10	San Lucas Tolimán	2	Febrero	2023-02-13T00:00:00	2024-11-08T18:00:00	5	Humedad	46
106629	7	Sololá	713	San Lucas Tolimán	10	San Lucas Tolimán	2	Febrero	2023-02-13T00:00:00	2024-11-08T18:00:00	6	Velocidad del viento	4.8
106630	7	Sololá	713	San Lucas Tolimán	10	San Lucas Tolimán	2	Febrero	2023-02-13T00:00:00	2024-11-08T18:00:00	7	Dirección del viento	4.83
106631	7	Sololá	713	San Lucas Tolimán	10	San Lucas Tolimán	2	Febrero	2023-02-13T00:00:00	2024-11-08T18:00:00	1	Precipitación	0
106632	7	Sololá	713	San Lucas Tolimán	10	San Lucas Tolimán	2	Febrero	2023-02-13T00:00:00	2024-11-08T18:00:00	8	Radiación solar	31
106633	7	Sololá	713	San Lucas Tolimán	10	San Lucas Tolimán	2	Febrero	2023-02-13T00:00:00	2024-11-08T19:00:00	2	Temperatura media	20
106634	7	Sololá	713	San Lucas Tolimán	10	San Lucas Tolimán	2	Febrero	2023-02-13T00:00:00	2024-11-08T19:00:00	4	Temperatura máxima	20.7
106635	7	Sololá	713	San Lucas Tolimán	10	San Lucas Tolimán	2	Febrero	2023-02-13T00:00:00	2024-11-08T19:00:00	3	Temperatura mínima	19.9
106636	7	Sololá	713	San Lucas Tolimán	10	San Lucas Tolimán	2	Febrero	2023-02-13T00:00:00	2024-11-08T19:00:00	5	Humedad	48
106637	7	Sololá	713	San Lucas Tolimán	10	San Lucas Tolimán	2	Febrero	2023-02-13T00:00:00	2024-11-08T19:00:00	6	Velocidad del viento	11.3
106638	7	Sololá	713	San Lucas Tolimán	10	San Lucas Tolimán	2	Febrero	2023-02-13T00:00:00	2024-11-08T19:00:00	7	Dirección del viento	11.27
106639	7	Sololá	713	San Lucas Tolimán	10	San Lucas Tolimán	2	Febrero	2023-02-13T00:00:00	2024-11-08T19:00:00	1	Precipitación	0
106640	7	Sololá	713	San Lucas Tolimán	10	San Lucas Tolimán	2	Febrero	2023-02-13T00:00:00	2024-11-08T19:00:00	8	Radiación solar	0
106641	7	Sololá	713	San Lucas Tolimán	10	San Lucas Tolimán	2	Febrero	2023-02-13T00:00:00	2024-11-08T20:00:00	2	Temperatura media	19.1
106642	7	Sololá	713	San Lucas Tolimán	10	San Lucas Tolimán	2	Febrero	2023-02-13T00:00:00	2024-11-08T20:00:00	4	Temperatura máxima	20
106643	7	Sololá	713	San Lucas Tolimán	10	San Lucas Tolimán	2	Febrero	2023-02-13T00:00:00	2024-11-08T20:00:00	3	Temperatura mínima	19.1
106644	7	Sololá	713	San Lucas Tolimán	10	San Lucas Tolimán	2	Febrero	2023-02-13T00:00:00	2024-11-08T20:00:00	5	Humedad	52
106645	7	Sololá	713	San Lucas Tolimán	10	San Lucas Tolimán	2	Febrero	2023-02-13T00:00:00	2024-11-08T20:00:00	6	Velocidad del viento	8
106646	7	Sololá	713	San Lucas Tolimán	10	San Lucas Tolimán	2	Febrero	2023-02-13T00:00:00	2024-11-08T20:00:00	7	Dirección del viento	8.05
106647	7	Sololá	713	San Lucas Tolimán	10	San Lucas Tolimán	2	Febrero	2023-02-13T00:00:00	2024-11-08T20:00:00	1	Precipitación	0
106648	7	Sololá	713	San Lucas Tolimán	10	San Lucas Tolimán	2	Febrero	2023-02-13T00:00:00	2024-11-08T20:00:00	8	Radiación solar	0
106649	7	Sololá	713	San Lucas Tolimán	10	San Lucas Tolimán	2	Febrero	2023-02-13T00:00:00	2024-11-08T21:00:00	2	Temperatura media	18.9
106650	7	Sololá	713	San Lucas Tolimán	10	San Lucas Tolimán	2	Febrero	2023-02-13T00:00:00	2024-11-08T21:00:00	4	Temperatura máxima	19.1
106651	7	Sololá	713	San Lucas Tolimán	10	San Lucas Tolimán	2	Febrero	2023-02-13T00:00:00	2024-11-08T21:00:00	3	Temperatura mínima	18.7
106652	7	Sololá	713	San Lucas Tolimán	10	San Lucas Tolimán	2	Febrero	2023-02-13T00:00:00	2024-11-08T21:00:00	5	Humedad	51
106653	7	Sololá	713	San Lucas Tolimán	10	San Lucas Tolimán	2	Febrero	2023-02-13T00:00:00	2024-11-08T21:00:00	6	Velocidad del viento	8
106654	7	Sololá	713	San Lucas Tolimán	10	San Lucas Tolimán	2	Febrero	2023-02-13T00:00:00	2024-11-08T21:00:00	7	Dirección del viento	8.05
106655	7	Sololá	713	San Lucas Tolimán	10	San Lucas Tolimán	2	Febrero	2023-02-13T00:00:00	2024-11-08T21:00:00	1	Precipitación	0
106656	7	Sololá	713	San Lucas Tolimán	10	San Lucas Tolimán	2	Febrero	2023-02-13T00:00:00	2024-11-08T21:00:00	8	Radiación solar	0
106657	7	Sololá	713	San Lucas Tolimán	10	San Lucas Tolimán	2	Febrero	2023-02-13T00:00:00	2024-11-08T22:00:00	2	Temperatura media	18.4
106658	7	Sololá	713	San Lucas Tolimán	10	San Lucas Tolimán	2	Febrero	2023-02-13T00:00:00	2024-11-08T22:00:00	4	Temperatura máxima	19
106659	7	Sololá	713	San Lucas Tolimán	10	San Lucas Tolimán	2	Febrero	2023-02-13T00:00:00	2024-11-08T22:00:00	3	Temperatura mínima	18.4
106660	7	Sololá	713	San Lucas Tolimán	10	San Lucas Tolimán	2	Febrero	2023-02-13T00:00:00	2024-11-08T22:00:00	5	Humedad	51
106661	7	Sololá	713	San Lucas Tolimán	10	San Lucas Tolimán	2	Febrero	2023-02-13T00:00:00	2024-11-08T22:00:00	6	Velocidad del viento	8
106662	7	Sololá	713	San Lucas Tolimán	10	San Lucas Tolimán	2	Febrero	2023-02-13T00:00:00	2024-11-08T22:00:00	7	Dirección del viento	8.05
106663	7	Sololá	713	San Lucas Tolimán	10	San Lucas Tolimán	2	Febrero	2023-02-13T00:00:00	2024-11-08T22:00:00	1	Precipitación	0
106664	7	Sololá	713	San Lucas Tolimán	10	San Lucas Tolimán	2	Febrero	2023-02-13T00:00:00	2024-11-08T22:00:00	8	Radiación solar	0
106665	7	Sololá	713	San Lucas Tolimán	10	San Lucas Tolimán	2	Febrero	2023-02-13T00:00:00	2024-11-08T23:00:00	2	Temperatura media	17.3
106666	7	Sololá	713	San Lucas Tolimán	10	San Lucas Tolimán	2	Febrero	2023-02-13T00:00:00	2024-11-08T23:00:00	4	Temperatura máxima	18.5
106667	7	Sololá	713	San Lucas Tolimán	10	San Lucas Tolimán	2	Febrero	2023-02-13T00:00:00	2024-11-08T23:00:00	3	Temperatura mínima	17.3
106668	7	Sololá	713	San Lucas Tolimán	10	San Lucas Tolimán	2	Febrero	2023-02-13T00:00:00	2024-11-08T23:00:00	5	Humedad	54
106669	7	Sololá	713	San Lucas Tolimán	10	San Lucas Tolimán	2	Febrero	2023-02-13T00:00:00	2024-11-08T23:00:00	6	Velocidad del viento	4.8
106670	7	Sololá	713	San Lucas Tolimán	10	San Lucas Tolimán	2	Febrero	2023-02-13T00:00:00	2024-11-08T23:00:00	7	Dirección del viento	4.83
106671	7	Sololá	713	San Lucas Tolimán	10	San Lucas Tolimán	2	Febrero	2023-02-13T00:00:00	2024-11-08T23:00:00	1	Precipitación	0
106672	7	Sololá	713	San Lucas Tolimán	10	San Lucas Tolimán	2	Febrero	2023-02-13T00:00:00	2024-11-08T23:00:00	8	Radiación solar	0
106673	7	Sololá	713	San Lucas Tolimán	10	San Lucas Tolimán	2	Febrero	2023-02-14T00:00:00	2024-11-08T00:00:00	2	Temperatura media	17.1
106674	7	Sololá	713	San Lucas Tolimán	10	San Lucas Tolimán	2	Febrero	2023-02-14T00:00:00	2024-11-08T00:00:00	4	Temperatura máxima	17.3
106675	7	Sololá	713	San Lucas Tolimán	10	San Lucas Tolimán	2	Febrero	2023-02-14T00:00:00	2024-11-08T00:00:00	3	Temperatura mínima	16.9
106676	7	Sololá	713	San Lucas Tolimán	10	San Lucas Tolimán	2	Febrero	2023-02-14T00:00:00	2024-11-08T00:00:00	5	Humedad	55
106677	7	Sololá	713	San Lucas Tolimán	10	San Lucas Tolimán	2	Febrero	2023-02-14T00:00:00	2024-11-08T00:00:00	6	Velocidad del viento	3.2
106678	7	Sololá	713	San Lucas Tolimán	10	San Lucas Tolimán	2	Febrero	2023-02-14T00:00:00	2024-11-08T00:00:00	7	Dirección del viento	3.22
106679	7	Sololá	713	San Lucas Tolimán	10	San Lucas Tolimán	2	Febrero	2023-02-14T00:00:00	2024-11-08T00:00:00	1	Precipitación	0
106680	7	Sololá	713	San Lucas Tolimán	10	San Lucas Tolimán	2	Febrero	2023-02-14T00:00:00	2024-11-08T00:00:00	8	Radiación solar	0
106681	7	Sololá	713	San Lucas Tolimán	10	San Lucas Tolimán	2	Febrero	2023-02-14T00:00:00	2024-11-08T01:00:00	2	Temperatura media	16.8
106682	7	Sololá	713	San Lucas Tolimán	10	San Lucas Tolimán	2	Febrero	2023-02-14T00:00:00	2024-11-08T01:00:00	4	Temperatura máxima	17.1
106683	7	Sololá	713	San Lucas Tolimán	10	San Lucas Tolimán	2	Febrero	2023-02-14T00:00:00	2024-11-08T01:00:00	3	Temperatura mínima	16.6
106684	7	Sololá	713	San Lucas Tolimán	10	San Lucas Tolimán	2	Febrero	2023-02-14T00:00:00	2024-11-08T01:00:00	5	Humedad	55
106685	7	Sololá	713	San Lucas Tolimán	10	San Lucas Tolimán	2	Febrero	2023-02-14T00:00:00	2024-11-08T01:00:00	6	Velocidad del viento	4.8
106686	7	Sololá	713	San Lucas Tolimán	10	San Lucas Tolimán	2	Febrero	2023-02-14T00:00:00	2024-11-08T01:00:00	7	Dirección del viento	4.83
106687	7	Sololá	713	San Lucas Tolimán	10	San Lucas Tolimán	2	Febrero	2023-02-14T00:00:00	2024-11-08T01:00:00	1	Precipitación	0
106688	7	Sololá	713	San Lucas Tolimán	10	San Lucas Tolimán	2	Febrero	2023-02-14T00:00:00	2024-11-08T01:00:00	8	Radiación solar	0
106689	7	Sololá	713	San Lucas Tolimán	10	San Lucas Tolimán	2	Febrero	2023-02-14T00:00:00	2024-11-08T02:00:00	2	Temperatura media	16.3
106690	7	Sololá	713	San Lucas Tolimán	10	San Lucas Tolimán	2	Febrero	2023-02-14T00:00:00	2024-11-08T02:00:00	4	Temperatura máxima	16.8
106691	7	Sololá	713	San Lucas Tolimán	10	San Lucas Tolimán	2	Febrero	2023-02-14T00:00:00	2024-11-08T02:00:00	3	Temperatura mínima	16.2
106692	7	Sololá	713	San Lucas Tolimán	10	San Lucas Tolimán	2	Febrero	2023-02-14T00:00:00	2024-11-08T02:00:00	5	Humedad	56
106693	7	Sololá	713	San Lucas Tolimán	10	San Lucas Tolimán	2	Febrero	2023-02-14T00:00:00	2024-11-08T02:00:00	6	Velocidad del viento	3.2
106694	7	Sololá	713	San Lucas Tolimán	10	San Lucas Tolimán	2	Febrero	2023-02-14T00:00:00	2024-11-08T02:00:00	7	Dirección del viento	3.22
106695	7	Sololá	713	San Lucas Tolimán	10	San Lucas Tolimán	2	Febrero	2023-02-14T00:00:00	2024-11-08T02:00:00	1	Precipitación	0
106696	7	Sololá	713	San Lucas Tolimán	10	San Lucas Tolimán	2	Febrero	2023-02-14T00:00:00	2024-11-08T02:00:00	8	Radiación solar	0
106697	7	Sololá	713	San Lucas Tolimán	10	San Lucas Tolimán	2	Febrero	2023-02-14T00:00:00	2024-11-08T03:00:00	2	Temperatura media	15.5
106698	7	Sololá	713	San Lucas Tolimán	10	San Lucas Tolimán	2	Febrero	2023-02-14T00:00:00	2024-11-08T03:00:00	4	Temperatura máxima	16.3
106699	7	Sololá	713	San Lucas Tolimán	10	San Lucas Tolimán	2	Febrero	2023-02-14T00:00:00	2024-11-08T03:00:00	3	Temperatura mínima	15
106700	7	Sololá	713	San Lucas Tolimán	10	San Lucas Tolimán	2	Febrero	2023-02-14T00:00:00	2024-11-08T03:00:00	5	Humedad	56
106701	7	Sololá	713	San Lucas Tolimán	10	San Lucas Tolimán	2	Febrero	2023-02-14T00:00:00	2024-11-08T03:00:00	6	Velocidad del viento	3.2
106702	7	Sololá	713	San Lucas Tolimán	10	San Lucas Tolimán	2	Febrero	2023-02-14T00:00:00	2024-11-08T03:00:00	7	Dirección del viento	3.22
106703	7	Sololá	713	San Lucas Tolimán	10	San Lucas Tolimán	2	Febrero	2023-02-14T00:00:00	2024-11-08T03:00:00	1	Precipitación	0
106704	7	Sololá	713	San Lucas Tolimán	10	San Lucas Tolimán	2	Febrero	2023-02-14T00:00:00	2024-11-08T03:00:00	8	Radiación solar	0
106705	7	Sololá	713	San Lucas Tolimán	10	San Lucas Tolimán	2	Febrero	2023-02-14T00:00:00	2024-11-08T04:00:00	2	Temperatura media	15
106706	7	Sololá	713	San Lucas Tolimán	10	San Lucas Tolimán	2	Febrero	2023-02-14T00:00:00	2024-11-08T04:00:00	4	Temperatura máxima	15.6
106707	7	Sololá	713	San Lucas Tolimán	10	San Lucas Tolimán	2	Febrero	2023-02-14T00:00:00	2024-11-08T04:00:00	3	Temperatura mínima	15
106708	7	Sololá	713	San Lucas Tolimán	10	San Lucas Tolimán	2	Febrero	2023-02-14T00:00:00	2024-11-08T04:00:00	5	Humedad	58
106709	7	Sololá	713	San Lucas Tolimán	10	San Lucas Tolimán	2	Febrero	2023-02-14T00:00:00	2024-11-08T04:00:00	6	Velocidad del viento	1.6
106710	7	Sololá	713	San Lucas Tolimán	10	San Lucas Tolimán	2	Febrero	2023-02-14T00:00:00	2024-11-08T04:00:00	7	Dirección del viento	1.61
106711	7	Sololá	713	San Lucas Tolimán	10	San Lucas Tolimán	2	Febrero	2023-02-14T00:00:00	2024-11-08T04:00:00	1	Precipitación	0
106712	7	Sololá	713	San Lucas Tolimán	10	San Lucas Tolimán	2	Febrero	2023-02-14T00:00:00	2024-11-08T04:00:00	8	Radiación solar	0
106713	7	Sololá	713	San Lucas Tolimán	10	San Lucas Tolimán	2	Febrero	2023-02-14T00:00:00	2024-11-08T05:00:00	2	Temperatura media	14.7
106714	7	Sololá	713	San Lucas Tolimán	10	San Lucas Tolimán	2	Febrero	2023-02-14T00:00:00	2024-11-08T05:00:00	4	Temperatura máxima	15.2
106715	7	Sololá	713	San Lucas Tolimán	10	San Lucas Tolimán	2	Febrero	2023-02-14T00:00:00	2024-11-08T05:00:00	3	Temperatura mínima	14.5
106716	7	Sololá	713	San Lucas Tolimán	10	San Lucas Tolimán	2	Febrero	2023-02-14T00:00:00	2024-11-08T05:00:00	5	Humedad	56
106717	7	Sololá	713	San Lucas Tolimán	10	San Lucas Tolimán	2	Febrero	2023-02-14T00:00:00	2024-11-08T05:00:00	6	Velocidad del viento	3.2
106718	7	Sololá	713	San Lucas Tolimán	10	San Lucas Tolimán	2	Febrero	2023-02-14T00:00:00	2024-11-08T05:00:00	7	Dirección del viento	3.22
106719	7	Sololá	713	San Lucas Tolimán	10	San Lucas Tolimán	2	Febrero	2023-02-14T00:00:00	2024-11-08T05:00:00	1	Precipitación	0
106720	7	Sololá	713	San Lucas Tolimán	10	San Lucas Tolimán	2	Febrero	2023-02-14T00:00:00	2024-11-08T05:00:00	8	Radiación solar	0
106721	7	Sololá	713	San Lucas Tolimán	10	San Lucas Tolimán	2	Febrero	2023-02-14T00:00:00	2024-11-08T06:00:00	2	Temperatura media	14.4
106722	7	Sololá	713	San Lucas Tolimán	10	San Lucas Tolimán	2	Febrero	2023-02-14T00:00:00	2024-11-08T06:00:00	4	Temperatura máxima	14.8
106723	7	Sololá	713	San Lucas Tolimán	10	San Lucas Tolimán	2	Febrero	2023-02-14T00:00:00	2024-11-08T06:00:00	3	Temperatura mínima	14.2
106724	7	Sololá	713	San Lucas Tolimán	10	San Lucas Tolimán	2	Febrero	2023-02-14T00:00:00	2024-11-08T06:00:00	5	Humedad	59
106725	7	Sololá	713	San Lucas Tolimán	10	San Lucas Tolimán	2	Febrero	2023-02-14T00:00:00	2024-11-08T06:00:00	6	Velocidad del viento	1.6
106726	7	Sololá	713	San Lucas Tolimán	10	San Lucas Tolimán	2	Febrero	2023-02-14T00:00:00	2024-11-08T06:00:00	7	Dirección del viento	1.61
106727	7	Sololá	713	San Lucas Tolimán	10	San Lucas Tolimán	2	Febrero	2023-02-14T00:00:00	2024-11-08T06:00:00	1	Precipitación	0
106728	7	Sololá	713	San Lucas Tolimán	10	San Lucas Tolimán	2	Febrero	2023-02-14T00:00:00	2024-11-08T06:00:00	8	Radiación solar	0
106729	7	Sololá	713	San Lucas Tolimán	10	San Lucas Tolimán	2	Febrero	2023-02-14T00:00:00	2024-11-08T07:00:00	2	Temperatura media	14
106730	7	Sololá	713	San Lucas Tolimán	10	San Lucas Tolimán	2	Febrero	2023-02-14T00:00:00	2024-11-08T07:00:00	4	Temperatura máxima	14.6
106731	7	Sololá	713	San Lucas Tolimán	10	San Lucas Tolimán	2	Febrero	2023-02-14T00:00:00	2024-11-08T07:00:00	3	Temperatura mínima	14
106732	7	Sololá	713	San Lucas Tolimán	10	San Lucas Tolimán	2	Febrero	2023-02-14T00:00:00	2024-11-08T07:00:00	5	Humedad	60
106733	7	Sololá	713	San Lucas Tolimán	10	San Lucas Tolimán	2	Febrero	2023-02-14T00:00:00	2024-11-08T07:00:00	6	Velocidad del viento	1.6
106734	7	Sololá	713	San Lucas Tolimán	10	San Lucas Tolimán	2	Febrero	2023-02-14T00:00:00	2024-11-08T07:00:00	7	Dirección del viento	1.61
106735	7	Sololá	713	San Lucas Tolimán	10	San Lucas Tolimán	2	Febrero	2023-02-14T00:00:00	2024-11-08T07:00:00	1	Precipitación	0
106736	7	Sololá	713	San Lucas Tolimán	10	San Lucas Tolimán	2	Febrero	2023-02-14T00:00:00	2024-11-08T07:00:00	8	Radiación solar	5
106737	7	Sololá	713	San Lucas Tolimán	10	San Lucas Tolimán	2	Febrero	2023-02-14T00:00:00	2024-11-08T08:00:00	2	Temperatura media	14.8
106738	7	Sololá	713	San Lucas Tolimán	10	San Lucas Tolimán	2	Febrero	2023-02-14T00:00:00	2024-11-08T08:00:00	4	Temperatura máxima	14.8
106739	7	Sololá	713	San Lucas Tolimán	10	San Lucas Tolimán	2	Febrero	2023-02-14T00:00:00	2024-11-08T08:00:00	3	Temperatura mínima	13.9
106740	7	Sololá	713	San Lucas Tolimán	10	San Lucas Tolimán	2	Febrero	2023-02-14T00:00:00	2024-11-08T08:00:00	5	Humedad	60
106741	7	Sololá	713	San Lucas Tolimán	10	San Lucas Tolimán	2	Febrero	2023-02-14T00:00:00	2024-11-08T08:00:00	6	Velocidad del viento	0
106742	7	Sololá	713	San Lucas Tolimán	10	San Lucas Tolimán	2	Febrero	2023-02-14T00:00:00	2024-11-08T08:00:00	7	Dirección del viento	0
106743	7	Sololá	713	San Lucas Tolimán	10	San Lucas Tolimán	2	Febrero	2023-02-14T00:00:00	2024-11-08T08:00:00	1	Precipitación	0
106744	7	Sololá	713	San Lucas Tolimán	10	San Lucas Tolimán	2	Febrero	2023-02-14T00:00:00	2024-11-08T08:00:00	8	Radiación solar	26
106745	7	Sololá	713	San Lucas Tolimán	10	San Lucas Tolimán	2	Febrero	2023-02-14T00:00:00	2024-11-08T09:00:00	2	Temperatura media	18.4
106746	7	Sololá	713	San Lucas Tolimán	10	San Lucas Tolimán	2	Febrero	2023-02-14T00:00:00	2024-11-08T09:00:00	4	Temperatura máxima	18.4
106747	7	Sololá	713	San Lucas Tolimán	10	San Lucas Tolimán	2	Febrero	2023-02-14T00:00:00	2024-11-08T09:00:00	3	Temperatura mínima	14.8
106748	7	Sololá	713	San Lucas Tolimán	10	San Lucas Tolimán	2	Febrero	2023-02-14T00:00:00	2024-11-08T09:00:00	5	Humedad	52
106749	7	Sololá	713	San Lucas Tolimán	10	San Lucas Tolimán	2	Febrero	2023-02-14T00:00:00	2024-11-08T09:00:00	6	Velocidad del viento	3.2
106750	7	Sololá	713	San Lucas Tolimán	10	San Lucas Tolimán	2	Febrero	2023-02-14T00:00:00	2024-11-08T09:00:00	7	Dirección del viento	3.22
106751	7	Sololá	713	San Lucas Tolimán	10	San Lucas Tolimán	2	Febrero	2023-02-14T00:00:00	2024-11-08T09:00:00	1	Precipitación	0
106752	7	Sololá	713	San Lucas Tolimán	10	San Lucas Tolimán	2	Febrero	2023-02-14T00:00:00	2024-11-08T09:00:00	8	Radiación solar	417
106753	7	Sololá	713	San Lucas Tolimán	10	San Lucas Tolimán	2	Febrero	2023-02-14T00:00:00	2024-11-08T10:00:00	2	Temperatura media	21.4
106754	7	Sololá	713	San Lucas Tolimán	10	San Lucas Tolimán	2	Febrero	2023-02-14T00:00:00	2024-11-08T10:00:00	4	Temperatura máxima	21.7
106755	7	Sololá	713	San Lucas Tolimán	10	San Lucas Tolimán	2	Febrero	2023-02-14T00:00:00	2024-11-08T10:00:00	3	Temperatura mínima	18.3
106756	7	Sololá	713	San Lucas Tolimán	10	San Lucas Tolimán	2	Febrero	2023-02-14T00:00:00	2024-11-08T10:00:00	5	Humedad	47
106757	7	Sololá	713	San Lucas Tolimán	10	San Lucas Tolimán	2	Febrero	2023-02-14T00:00:00	2024-11-08T10:00:00	6	Velocidad del viento	4.8
106758	7	Sololá	713	San Lucas Tolimán	10	San Lucas Tolimán	2	Febrero	2023-02-14T00:00:00	2024-11-08T10:00:00	7	Dirección del viento	4.83
106759	7	Sololá	713	San Lucas Tolimán	10	San Lucas Tolimán	2	Febrero	2023-02-14T00:00:00	2024-11-08T10:00:00	1	Precipitación	0
106760	7	Sololá	713	San Lucas Tolimán	10	San Lucas Tolimán	2	Febrero	2023-02-14T00:00:00	2024-11-08T10:00:00	8	Radiación solar	656
106761	7	Sololá	713	San Lucas Tolimán	10	San Lucas Tolimán	2	Febrero	2023-02-14T00:00:00	2024-11-08T11:00:00	2	Temperatura media	21.6
106762	7	Sololá	713	San Lucas Tolimán	10	San Lucas Tolimán	2	Febrero	2023-02-14T00:00:00	2024-11-08T11:00:00	4	Temperatura máxima	21.8
106763	7	Sololá	713	San Lucas Tolimán	10	San Lucas Tolimán	2	Febrero	2023-02-14T00:00:00	2024-11-08T11:00:00	3	Temperatura mínima	21.2
106764	7	Sololá	713	San Lucas Tolimán	10	San Lucas Tolimán	2	Febrero	2023-02-14T00:00:00	2024-11-08T11:00:00	5	Humedad	48
106765	7	Sololá	713	San Lucas Tolimán	10	San Lucas Tolimán	2	Febrero	2023-02-14T00:00:00	2024-11-08T11:00:00	6	Velocidad del viento	9.7
106766	7	Sololá	713	San Lucas Tolimán	10	San Lucas Tolimán	2	Febrero	2023-02-14T00:00:00	2024-11-08T11:00:00	7	Dirección del viento	9.66
106767	7	Sololá	713	San Lucas Tolimán	10	San Lucas Tolimán	2	Febrero	2023-02-14T00:00:00	2024-11-08T11:00:00	1	Precipitación	0
106768	7	Sololá	713	San Lucas Tolimán	10	San Lucas Tolimán	2	Febrero	2023-02-14T00:00:00	2024-11-08T11:00:00	8	Radiación solar	816
106769	7	Sololá	713	San Lucas Tolimán	10	San Lucas Tolimán	2	Febrero	2023-02-14T00:00:00	2024-11-08T12:00:00	2	Temperatura media	22.1
106770	7	Sololá	713	San Lucas Tolimán	10	San Lucas Tolimán	2	Febrero	2023-02-14T00:00:00	2024-11-08T12:00:00	4	Temperatura máxima	22.7
106771	7	Sololá	713	San Lucas Tolimán	10	San Lucas Tolimán	2	Febrero	2023-02-14T00:00:00	2024-11-08T12:00:00	3	Temperatura mínima	21.4
106772	7	Sololá	713	San Lucas Tolimán	10	San Lucas Tolimán	2	Febrero	2023-02-14T00:00:00	2024-11-08T12:00:00	5	Humedad	50
106773	7	Sololá	713	San Lucas Tolimán	10	San Lucas Tolimán	2	Febrero	2023-02-14T00:00:00	2024-11-08T12:00:00	6	Velocidad del viento	9.7
106774	7	Sololá	713	San Lucas Tolimán	10	San Lucas Tolimán	2	Febrero	2023-02-14T00:00:00	2024-11-08T12:00:00	7	Dirección del viento	9.66
106775	7	Sololá	713	San Lucas Tolimán	10	San Lucas Tolimán	2	Febrero	2023-02-14T00:00:00	2024-11-08T12:00:00	1	Precipitación	0
106776	7	Sololá	713	San Lucas Tolimán	10	San Lucas Tolimán	2	Febrero	2023-02-14T00:00:00	2024-11-08T12:00:00	8	Radiación solar	935
106777	7	Sololá	713	San Lucas Tolimán	10	San Lucas Tolimán	2	Febrero	2023-02-14T00:00:00	2024-11-08T13:00:00	2	Temperatura media	22.1
106778	7	Sololá	713	San Lucas Tolimán	10	San Lucas Tolimán	2	Febrero	2023-02-14T00:00:00	2024-11-08T13:00:00	4	Temperatura máxima	22.4
106779	7	Sololá	713	San Lucas Tolimán	10	San Lucas Tolimán	2	Febrero	2023-02-14T00:00:00	2024-11-08T13:00:00	3	Temperatura mínima	21.8
106780	7	Sololá	713	San Lucas Tolimán	10	San Lucas Tolimán	2	Febrero	2023-02-14T00:00:00	2024-11-08T13:00:00	5	Humedad	52
106781	7	Sololá	713	San Lucas Tolimán	10	San Lucas Tolimán	2	Febrero	2023-02-14T00:00:00	2024-11-08T13:00:00	6	Velocidad del viento	12.9
106782	7	Sololá	713	San Lucas Tolimán	10	San Lucas Tolimán	2	Febrero	2023-02-14T00:00:00	2024-11-08T13:00:00	7	Dirección del viento	12.87
106783	7	Sololá	713	San Lucas Tolimán	10	San Lucas Tolimán	2	Febrero	2023-02-14T00:00:00	2024-11-08T13:00:00	1	Precipitación	0
106784	7	Sololá	713	San Lucas Tolimán	10	San Lucas Tolimán	2	Febrero	2023-02-14T00:00:00	2024-11-08T13:00:00	8	Radiación solar	950
106785	7	Sololá	713	San Lucas Tolimán	10	San Lucas Tolimán	2	Febrero	2023-02-14T00:00:00	2024-11-08T14:00:00	2	Temperatura media	22.6
106786	7	Sololá	713	San Lucas Tolimán	10	San Lucas Tolimán	2	Febrero	2023-02-14T00:00:00	2024-11-08T14:00:00	4	Temperatura máxima	22.9
106787	7	Sololá	713	San Lucas Tolimán	10	San Lucas Tolimán	2	Febrero	2023-02-14T00:00:00	2024-11-08T14:00:00	3	Temperatura mínima	21.7
106788	7	Sololá	713	San Lucas Tolimán	10	San Lucas Tolimán	2	Febrero	2023-02-14T00:00:00	2024-11-08T14:00:00	5	Humedad	50
106789	7	Sololá	713	San Lucas Tolimán	10	San Lucas Tolimán	2	Febrero	2023-02-14T00:00:00	2024-11-08T14:00:00	6	Velocidad del viento	12.9
106790	7	Sololá	713	San Lucas Tolimán	10	San Lucas Tolimán	2	Febrero	2023-02-14T00:00:00	2024-11-08T14:00:00	7	Dirección del viento	12.87
106791	7	Sololá	713	San Lucas Tolimán	10	San Lucas Tolimán	2	Febrero	2023-02-14T00:00:00	2024-11-08T14:00:00	1	Precipitación	0
106792	7	Sololá	713	San Lucas Tolimán	10	San Lucas Tolimán	2	Febrero	2023-02-14T00:00:00	2024-11-08T14:00:00	8	Radiación solar	911
106793	7	Sololá	713	San Lucas Tolimán	10	San Lucas Tolimán	2	Febrero	2023-02-14T00:00:00	2024-11-08T15:00:00	2	Temperatura media	22.3
106794	7	Sololá	713	San Lucas Tolimán	10	San Lucas Tolimán	2	Febrero	2023-02-14T00:00:00	2024-11-08T15:00:00	4	Temperatura máxima	22.8
106795	7	Sololá	713	San Lucas Tolimán	10	San Lucas Tolimán	2	Febrero	2023-02-14T00:00:00	2024-11-08T15:00:00	3	Temperatura mínima	22.2
106796	7	Sololá	713	San Lucas Tolimán	10	San Lucas Tolimán	2	Febrero	2023-02-14T00:00:00	2024-11-08T15:00:00	5	Humedad	52
106797	7	Sololá	713	San Lucas Tolimán	10	San Lucas Tolimán	2	Febrero	2023-02-14T00:00:00	2024-11-08T15:00:00	6	Velocidad del viento	11.3
106798	7	Sololá	713	San Lucas Tolimán	10	San Lucas Tolimán	2	Febrero	2023-02-14T00:00:00	2024-11-08T15:00:00	7	Dirección del viento	11.27
106799	7	Sololá	713	San Lucas Tolimán	10	San Lucas Tolimán	2	Febrero	2023-02-14T00:00:00	2024-11-08T15:00:00	1	Precipitación	0
106800	7	Sololá	713	San Lucas Tolimán	10	San Lucas Tolimán	2	Febrero	2023-02-14T00:00:00	2024-11-08T15:00:00	8	Radiación solar	740
106801	7	Sololá	713	San Lucas Tolimán	10	San Lucas Tolimán	2	Febrero	2023-02-14T00:00:00	2024-11-08T16:00:00	2	Temperatura media	21.7
106802	7	Sololá	713	San Lucas Tolimán	10	San Lucas Tolimán	2	Febrero	2023-02-14T00:00:00	2024-11-08T16:00:00	4	Temperatura máxima	22.4
106803	7	Sololá	713	San Lucas Tolimán	10	San Lucas Tolimán	2	Febrero	2023-02-14T00:00:00	2024-11-08T16:00:00	3	Temperatura mínima	21.4
106804	7	Sololá	713	San Lucas Tolimán	10	San Lucas Tolimán	2	Febrero	2023-02-14T00:00:00	2024-11-08T16:00:00	5	Humedad	55
106805	7	Sololá	713	San Lucas Tolimán	10	San Lucas Tolimán	2	Febrero	2023-02-14T00:00:00	2024-11-08T16:00:00	6	Velocidad del viento	9.7
106806	7	Sololá	713	San Lucas Tolimán	10	San Lucas Tolimán	2	Febrero	2023-02-14T00:00:00	2024-11-08T16:00:00	7	Dirección del viento	9.66
106807	7	Sololá	713	San Lucas Tolimán	10	San Lucas Tolimán	2	Febrero	2023-02-14T00:00:00	2024-11-08T16:00:00	1	Precipitación	0
106808	7	Sololá	713	San Lucas Tolimán	10	San Lucas Tolimán	2	Febrero	2023-02-14T00:00:00	2024-11-08T16:00:00	8	Radiación solar	496
106809	7	Sololá	713	San Lucas Tolimán	10	San Lucas Tolimán	2	Febrero	2023-02-14T00:00:00	2024-11-08T17:00:00	2	Temperatura media	20.5
106810	7	Sololá	713	San Lucas Tolimán	10	San Lucas Tolimán	2	Febrero	2023-02-14T00:00:00	2024-11-08T17:00:00	4	Temperatura máxima	21.8
106811	7	Sololá	713	San Lucas Tolimán	10	San Lucas Tolimán	2	Febrero	2023-02-14T00:00:00	2024-11-08T17:00:00	3	Temperatura mínima	20.5
106812	7	Sololá	713	San Lucas Tolimán	10	San Lucas Tolimán	2	Febrero	2023-02-14T00:00:00	2024-11-08T17:00:00	5	Humedad	59
106813	7	Sololá	713	San Lucas Tolimán	10	San Lucas Tolimán	2	Febrero	2023-02-14T00:00:00	2024-11-08T17:00:00	6	Velocidad del viento	9.7
106814	7	Sololá	713	San Lucas Tolimán	10	San Lucas Tolimán	2	Febrero	2023-02-14T00:00:00	2024-11-08T17:00:00	7	Dirección del viento	9.66
106815	7	Sololá	713	San Lucas Tolimán	10	San Lucas Tolimán	2	Febrero	2023-02-14T00:00:00	2024-11-08T17:00:00	1	Precipitación	0
106816	7	Sololá	713	San Lucas Tolimán	10	San Lucas Tolimán	2	Febrero	2023-02-14T00:00:00	2024-11-08T17:00:00	8	Radiación solar	243
106817	7	Sololá	713	San Lucas Tolimán	10	San Lucas Tolimán	2	Febrero	2023-02-14T00:00:00	2024-11-08T18:00:00	2	Temperatura media	19.1
106818	7	Sololá	713	San Lucas Tolimán	10	San Lucas Tolimán	2	Febrero	2023-02-14T00:00:00	2024-11-08T18:00:00	4	Temperatura máxima	20.6
106819	7	Sololá	713	San Lucas Tolimán	10	San Lucas Tolimán	2	Febrero	2023-02-14T00:00:00	2024-11-08T18:00:00	3	Temperatura mínima	19
106820	7	Sololá	713	San Lucas Tolimán	10	San Lucas Tolimán	2	Febrero	2023-02-14T00:00:00	2024-11-08T18:00:00	5	Humedad	64
106821	7	Sololá	713	San Lucas Tolimán	10	San Lucas Tolimán	2	Febrero	2023-02-14T00:00:00	2024-11-08T18:00:00	6	Velocidad del viento	8
106822	7	Sololá	713	San Lucas Tolimán	10	San Lucas Tolimán	2	Febrero	2023-02-14T00:00:00	2024-11-08T18:00:00	7	Dirección del viento	8.05
106823	7	Sololá	713	San Lucas Tolimán	10	San Lucas Tolimán	2	Febrero	2023-02-14T00:00:00	2024-11-08T18:00:00	1	Precipitación	0
106824	7	Sololá	713	San Lucas Tolimán	10	San Lucas Tolimán	2	Febrero	2023-02-14T00:00:00	2024-11-08T18:00:00	8	Radiación solar	41
106825	7	Sololá	713	San Lucas Tolimán	10	San Lucas Tolimán	2	Febrero	2023-02-14T00:00:00	2024-11-08T19:00:00	2	Temperatura media	17.6
106826	7	Sololá	713	San Lucas Tolimán	10	San Lucas Tolimán	2	Febrero	2023-02-14T00:00:00	2024-11-08T19:00:00	4	Temperatura máxima	19
106827	7	Sololá	713	San Lucas Tolimán	10	San Lucas Tolimán	2	Febrero	2023-02-14T00:00:00	2024-11-08T19:00:00	3	Temperatura mínima	17.6
106828	7	Sololá	713	San Lucas Tolimán	10	San Lucas Tolimán	2	Febrero	2023-02-14T00:00:00	2024-11-08T19:00:00	5	Humedad	61
106829	7	Sololá	713	San Lucas Tolimán	10	San Lucas Tolimán	2	Febrero	2023-02-14T00:00:00	2024-11-08T19:00:00	6	Velocidad del viento	4.8
106830	7	Sololá	713	San Lucas Tolimán	10	San Lucas Tolimán	2	Febrero	2023-02-14T00:00:00	2024-11-08T19:00:00	7	Dirección del viento	4.83
106831	7	Sololá	713	San Lucas Tolimán	10	San Lucas Tolimán	2	Febrero	2023-02-14T00:00:00	2024-11-08T19:00:00	1	Precipitación	0
106832	7	Sololá	713	San Lucas Tolimán	10	San Lucas Tolimán	2	Febrero	2023-02-14T00:00:00	2024-11-08T19:00:00	8	Radiación solar	0
106833	7	Sololá	713	San Lucas Tolimán	10	San Lucas Tolimán	2	Febrero	2023-02-14T00:00:00	2024-11-08T20:00:00	2	Temperatura media	16.6
106834	7	Sololá	713	San Lucas Tolimán	10	San Lucas Tolimán	2	Febrero	2023-02-14T00:00:00	2024-11-08T20:00:00	4	Temperatura máxima	17.6
106835	7	Sololá	713	San Lucas Tolimán	10	San Lucas Tolimán	2	Febrero	2023-02-14T00:00:00	2024-11-08T20:00:00	3	Temperatura mínima	16.6
106836	7	Sololá	713	San Lucas Tolimán	10	San Lucas Tolimán	2	Febrero	2023-02-14T00:00:00	2024-11-08T20:00:00	5	Humedad	62
106837	7	Sololá	713	San Lucas Tolimán	10	San Lucas Tolimán	2	Febrero	2023-02-14T00:00:00	2024-11-08T20:00:00	6	Velocidad del viento	3.2
106838	7	Sololá	713	San Lucas Tolimán	10	San Lucas Tolimán	2	Febrero	2023-02-14T00:00:00	2024-11-08T20:00:00	7	Dirección del viento	3.22
106839	7	Sololá	713	San Lucas Tolimán	10	San Lucas Tolimán	2	Febrero	2023-02-14T00:00:00	2024-11-08T20:00:00	1	Precipitación	0
106840	7	Sololá	713	San Lucas Tolimán	10	San Lucas Tolimán	2	Febrero	2023-02-14T00:00:00	2024-11-08T20:00:00	8	Radiación solar	0
106841	7	Sololá	713	San Lucas Tolimán	10	San Lucas Tolimán	2	Febrero	2023-02-14T00:00:00	2024-11-08T21:00:00	2	Temperatura media	15.7
106842	7	Sololá	713	San Lucas Tolimán	10	San Lucas Tolimán	2	Febrero	2023-02-14T00:00:00	2024-11-08T21:00:00	4	Temperatura máxima	16.6
106843	7	Sololá	713	San Lucas Tolimán	10	San Lucas Tolimán	2	Febrero	2023-02-14T00:00:00	2024-11-08T21:00:00	3	Temperatura mínima	15.6
106844	7	Sololá	713	San Lucas Tolimán	10	San Lucas Tolimán	2	Febrero	2023-02-14T00:00:00	2024-11-08T21:00:00	5	Humedad	64
106845	7	Sololá	713	San Lucas Tolimán	10	San Lucas Tolimán	2	Febrero	2023-02-14T00:00:00	2024-11-08T21:00:00	6	Velocidad del viento	3.2
106846	7	Sololá	713	San Lucas Tolimán	10	San Lucas Tolimán	2	Febrero	2023-02-14T00:00:00	2024-11-08T21:00:00	7	Dirección del viento	3.22
106847	7	Sololá	713	San Lucas Tolimán	10	San Lucas Tolimán	2	Febrero	2023-02-14T00:00:00	2024-11-08T21:00:00	1	Precipitación	0
106848	7	Sololá	713	San Lucas Tolimán	10	San Lucas Tolimán	2	Febrero	2023-02-14T00:00:00	2024-11-08T21:00:00	8	Radiación solar	0
106849	7	Sololá	713	San Lucas Tolimán	10	San Lucas Tolimán	2	Febrero	2023-02-14T00:00:00	2024-11-08T22:00:00	2	Temperatura media	15.9
106850	7	Sololá	713	San Lucas Tolimán	10	San Lucas Tolimán	2	Febrero	2023-02-14T00:00:00	2024-11-08T22:00:00	4	Temperatura máxima	16.1
106851	7	Sololá	713	San Lucas Tolimán	10	San Lucas Tolimán	2	Febrero	2023-02-14T00:00:00	2024-11-08T22:00:00	3	Temperatura mínima	15.7
106852	7	Sololá	713	San Lucas Tolimán	10	San Lucas Tolimán	2	Febrero	2023-02-14T00:00:00	2024-11-08T22:00:00	5	Humedad	62
106853	7	Sololá	713	San Lucas Tolimán	10	San Lucas Tolimán	2	Febrero	2023-02-14T00:00:00	2024-11-08T22:00:00	6	Velocidad del viento	0
106854	7	Sololá	713	San Lucas Tolimán	10	San Lucas Tolimán	2	Febrero	2023-02-14T00:00:00	2024-11-08T22:00:00	7	Dirección del viento	0
106855	7	Sololá	713	San Lucas Tolimán	10	San Lucas Tolimán	2	Febrero	2023-02-14T00:00:00	2024-11-08T22:00:00	1	Precipitación	0
106856	7	Sololá	713	San Lucas Tolimán	10	San Lucas Tolimán	2	Febrero	2023-02-14T00:00:00	2024-11-08T22:00:00	8	Radiación solar	0
106857	7	Sololá	713	San Lucas Tolimán	10	San Lucas Tolimán	2	Febrero	2023-02-14T00:00:00	2024-11-08T23:00:00	2	Temperatura media	15.8
106858	7	Sololá	713	San Lucas Tolimán	10	San Lucas Tolimán	2	Febrero	2023-02-14T00:00:00	2024-11-08T23:00:00	4	Temperatura máxima	16
106859	7	Sololá	713	San Lucas Tolimán	10	San Lucas Tolimán	2	Febrero	2023-02-14T00:00:00	2024-11-08T23:00:00	3	Temperatura mínima	15.8
106860	7	Sololá	713	San Lucas Tolimán	10	San Lucas Tolimán	2	Febrero	2023-02-14T00:00:00	2024-11-08T23:00:00	5	Humedad	61
106861	7	Sololá	713	San Lucas Tolimán	10	San Lucas Tolimán	2	Febrero	2023-02-14T00:00:00	2024-11-08T23:00:00	6	Velocidad del viento	0
106862	7	Sololá	713	San Lucas Tolimán	10	San Lucas Tolimán	2	Febrero	2023-02-14T00:00:00	2024-11-08T23:00:00	7	Dirección del viento	0
106863	7	Sololá	713	San Lucas Tolimán	10	San Lucas Tolimán	2	Febrero	2023-02-14T00:00:00	2024-11-08T23:00:00	1	Precipitación	0
106864	7	Sololá	713	San Lucas Tolimán	10	San Lucas Tolimán	2	Febrero	2023-02-14T00:00:00	2024-11-08T23:00:00	8	Radiación solar	0
106865	7	Sololá	713	San Lucas Tolimán	10	San Lucas Tolimán	2	Febrero	2023-02-15T00:00:00	2024-11-08T00:00:00	2	Temperatura media	15.5
106866	7	Sololá	713	San Lucas Tolimán	10	San Lucas Tolimán	2	Febrero	2023-02-15T00:00:00	2024-11-08T00:00:00	4	Temperatura máxima	15.9
106867	7	Sololá	713	San Lucas Tolimán	10	San Lucas Tolimán	2	Febrero	2023-02-15T00:00:00	2024-11-08T00:00:00	3	Temperatura mínima	15.4
106868	7	Sololá	713	San Lucas Tolimán	10	San Lucas Tolimán	2	Febrero	2023-02-15T00:00:00	2024-11-08T00:00:00	5	Humedad	59
106869	7	Sololá	713	San Lucas Tolimán	10	San Lucas Tolimán	2	Febrero	2023-02-15T00:00:00	2024-11-08T00:00:00	6	Velocidad del viento	0
106870	7	Sololá	713	San Lucas Tolimán	10	San Lucas Tolimán	2	Febrero	2023-02-15T00:00:00	2024-11-08T00:00:00	7	Dirección del viento	0
106871	7	Sololá	713	San Lucas Tolimán	10	San Lucas Tolimán	2	Febrero	2023-02-15T00:00:00	2024-11-08T00:00:00	1	Precipitación	0
106872	7	Sololá	713	San Lucas Tolimán	10	San Lucas Tolimán	2	Febrero	2023-02-15T00:00:00	2024-11-08T00:00:00	8	Radiación solar	0
106873	7	Sololá	713	San Lucas Tolimán	10	San Lucas Tolimán	2	Febrero	2023-02-15T00:00:00	2024-11-08T01:00:00	2	Temperatura media	15.2
106874	7	Sololá	713	San Lucas Tolimán	10	San Lucas Tolimán	2	Febrero	2023-02-15T00:00:00	2024-11-08T01:00:00	4	Temperatura máxima	15.6
106875	7	Sololá	713	San Lucas Tolimán	10	San Lucas Tolimán	2	Febrero	2023-02-15T00:00:00	2024-11-08T01:00:00	3	Temperatura mínima	15.2
106876	7	Sololá	713	San Lucas Tolimán	10	San Lucas Tolimán	2	Febrero	2023-02-15T00:00:00	2024-11-08T01:00:00	5	Humedad	59
106877	7	Sololá	713	San Lucas Tolimán	10	San Lucas Tolimán	2	Febrero	2023-02-15T00:00:00	2024-11-08T01:00:00	6	Velocidad del viento	0
106878	7	Sololá	713	San Lucas Tolimán	10	San Lucas Tolimán	2	Febrero	2023-02-15T00:00:00	2024-11-08T01:00:00	7	Dirección del viento	0
106879	7	Sololá	713	San Lucas Tolimán	10	San Lucas Tolimán	2	Febrero	2023-02-15T00:00:00	2024-11-08T01:00:00	1	Precipitación	0
106880	7	Sololá	713	San Lucas Tolimán	10	San Lucas Tolimán	2	Febrero	2023-02-15T00:00:00	2024-11-08T01:00:00	8	Radiación solar	0
106881	7	Sololá	713	San Lucas Tolimán	10	San Lucas Tolimán	2	Febrero	2023-02-15T00:00:00	2024-11-08T02:00:00	2	Temperatura media	15
106882	7	Sololá	713	San Lucas Tolimán	10	San Lucas Tolimán	2	Febrero	2023-02-15T00:00:00	2024-11-08T02:00:00	4	Temperatura máxima	15.4
106883	7	Sololá	713	San Lucas Tolimán	10	San Lucas Tolimán	2	Febrero	2023-02-15T00:00:00	2024-11-08T02:00:00	3	Temperatura mínima	15
106884	7	Sololá	713	San Lucas Tolimán	10	San Lucas Tolimán	2	Febrero	2023-02-15T00:00:00	2024-11-08T02:00:00	5	Humedad	59
106885	7	Sololá	713	San Lucas Tolimán	10	San Lucas Tolimán	2	Febrero	2023-02-15T00:00:00	2024-11-08T02:00:00	6	Velocidad del viento	0
106886	7	Sololá	713	San Lucas Tolimán	10	San Lucas Tolimán	2	Febrero	2023-02-15T00:00:00	2024-11-08T02:00:00	7	Dirección del viento	0
106887	7	Sololá	713	San Lucas Tolimán	10	San Lucas Tolimán	2	Febrero	2023-02-15T00:00:00	2024-11-08T02:00:00	1	Precipitación	0
106888	7	Sololá	713	San Lucas Tolimán	10	San Lucas Tolimán	2	Febrero	2023-02-15T00:00:00	2024-11-08T02:00:00	8	Radiación solar	0
106889	7	Sololá	713	San Lucas Tolimán	10	San Lucas Tolimán	2	Febrero	2023-02-15T00:00:00	2024-11-08T03:00:00	2	Temperatura media	14.6
106890	7	Sololá	713	San Lucas Tolimán	10	San Lucas Tolimán	2	Febrero	2023-02-15T00:00:00	2024-11-08T03:00:00	4	Temperatura máxima	15.1
106891	7	Sololá	713	San Lucas Tolimán	10	San Lucas Tolimán	2	Febrero	2023-02-15T00:00:00	2024-11-08T03:00:00	3	Temperatura mínima	14.6
106892	7	Sololá	713	San Lucas Tolimán	10	San Lucas Tolimán	2	Febrero	2023-02-15T00:00:00	2024-11-08T03:00:00	5	Humedad	61
106893	7	Sololá	713	San Lucas Tolimán	10	San Lucas Tolimán	2	Febrero	2023-02-15T00:00:00	2024-11-08T03:00:00	6	Velocidad del viento	0
106894	7	Sololá	713	San Lucas Tolimán	10	San Lucas Tolimán	2	Febrero	2023-02-15T00:00:00	2024-11-08T03:00:00	7	Dirección del viento	0
106895	7	Sololá	713	San Lucas Tolimán	10	San Lucas Tolimán	2	Febrero	2023-02-15T00:00:00	2024-11-08T03:00:00	1	Precipitación	0
106896	7	Sololá	713	San Lucas Tolimán	10	San Lucas Tolimán	2	Febrero	2023-02-15T00:00:00	2024-11-08T03:00:00	8	Radiación solar	0
106897	7	Sololá	713	San Lucas Tolimán	10	San Lucas Tolimán	2	Febrero	2023-02-15T00:00:00	2024-11-08T04:00:00	2	Temperatura media	14.6
106898	7	Sololá	713	San Lucas Tolimán	10	San Lucas Tolimán	2	Febrero	2023-02-15T00:00:00	2024-11-08T04:00:00	4	Temperatura máxima	14.7
106899	7	Sololá	713	San Lucas Tolimán	10	San Lucas Tolimán	2	Febrero	2023-02-15T00:00:00	2024-11-08T04:00:00	3	Temperatura mínima	14.5
106900	7	Sololá	713	San Lucas Tolimán	10	San Lucas Tolimán	2	Febrero	2023-02-15T00:00:00	2024-11-08T04:00:00	5	Humedad	60
106901	7	Sololá	713	San Lucas Tolimán	10	San Lucas Tolimán	2	Febrero	2023-02-15T00:00:00	2024-11-08T04:00:00	6	Velocidad del viento	1.6
106902	7	Sololá	713	San Lucas Tolimán	10	San Lucas Tolimán	2	Febrero	2023-02-15T00:00:00	2024-11-08T04:00:00	7	Dirección del viento	1.61
106903	7	Sololá	713	San Lucas Tolimán	10	San Lucas Tolimán	2	Febrero	2023-02-15T00:00:00	2024-11-08T04:00:00	1	Precipitación	0
106904	7	Sololá	713	San Lucas Tolimán	10	San Lucas Tolimán	2	Febrero	2023-02-15T00:00:00	2024-11-08T04:00:00	8	Radiación solar	0
106905	7	Sololá	713	San Lucas Tolimán	10	San Lucas Tolimán	2	Febrero	2023-02-15T00:00:00	2024-11-08T05:00:00	2	Temperatura media	14
106906	7	Sololá	713	San Lucas Tolimán	10	San Lucas Tolimán	2	Febrero	2023-02-15T00:00:00	2024-11-08T05:00:00	4	Temperatura máxima	14.6
106907	7	Sololá	713	San Lucas Tolimán	10	San Lucas Tolimán	2	Febrero	2023-02-15T00:00:00	2024-11-08T05:00:00	3	Temperatura mínima	14
106908	7	Sololá	713	San Lucas Tolimán	10	San Lucas Tolimán	2	Febrero	2023-02-15T00:00:00	2024-11-08T05:00:00	5	Humedad	58
106909	7	Sololá	713	San Lucas Tolimán	10	San Lucas Tolimán	2	Febrero	2023-02-15T00:00:00	2024-11-08T05:00:00	6	Velocidad del viento	1.6
106910	7	Sololá	713	San Lucas Tolimán	10	San Lucas Tolimán	2	Febrero	2023-02-15T00:00:00	2024-11-08T05:00:00	7	Dirección del viento	1.61
106911	7	Sololá	713	San Lucas Tolimán	10	San Lucas Tolimán	2	Febrero	2023-02-15T00:00:00	2024-11-08T05:00:00	1	Precipitación	0
106912	7	Sololá	713	San Lucas Tolimán	10	San Lucas Tolimán	2	Febrero	2023-02-15T00:00:00	2024-11-08T05:00:00	8	Radiación solar	0
106913	7	Sololá	713	San Lucas Tolimán	10	San Lucas Tolimán	2	Febrero	2023-02-15T00:00:00	2024-11-08T06:00:00	2	Temperatura media	13.6
106914	7	Sololá	713	San Lucas Tolimán	10	San Lucas Tolimán	2	Febrero	2023-02-15T00:00:00	2024-11-08T06:00:00	4	Temperatura máxima	14.1
106915	7	Sololá	713	San Lucas Tolimán	10	San Lucas Tolimán	2	Febrero	2023-02-15T00:00:00	2024-11-08T06:00:00	3	Temperatura mínima	13.4
106916	7	Sololá	713	San Lucas Tolimán	10	San Lucas Tolimán	2	Febrero	2023-02-15T00:00:00	2024-11-08T06:00:00	5	Humedad	59
106917	7	Sololá	713	San Lucas Tolimán	10	San Lucas Tolimán	2	Febrero	2023-02-15T00:00:00	2024-11-08T06:00:00	6	Velocidad del viento	0
106918	7	Sololá	713	San Lucas Tolimán	10	San Lucas Tolimán	2	Febrero	2023-02-15T00:00:00	2024-11-08T06:00:00	7	Dirección del viento	0
106919	7	Sololá	713	San Lucas Tolimán	10	San Lucas Tolimán	2	Febrero	2023-02-15T00:00:00	2024-11-08T06:00:00	1	Precipitación	0
106920	7	Sololá	713	San Lucas Tolimán	10	San Lucas Tolimán	2	Febrero	2023-02-15T00:00:00	2024-11-08T06:00:00	8	Radiación solar	0
106921	7	Sololá	713	San Lucas Tolimán	10	San Lucas Tolimán	2	Febrero	2023-02-15T00:00:00	2024-11-08T07:00:00	2	Temperatura media	13.7
106922	7	Sololá	713	San Lucas Tolimán	10	San Lucas Tolimán	2	Febrero	2023-02-15T00:00:00	2024-11-08T07:00:00	4	Temperatura máxima	13.8
106923	7	Sololá	713	San Lucas Tolimán	10	San Lucas Tolimán	2	Febrero	2023-02-15T00:00:00	2024-11-08T07:00:00	3	Temperatura mínima	13.5
106924	7	Sololá	713	San Lucas Tolimán	10	San Lucas Tolimán	2	Febrero	2023-02-15T00:00:00	2024-11-08T07:00:00	5	Humedad	59
106925	7	Sololá	713	San Lucas Tolimán	10	San Lucas Tolimán	2	Febrero	2023-02-15T00:00:00	2024-11-08T07:00:00	6	Velocidad del viento	1.6
106926	7	Sololá	713	San Lucas Tolimán	10	San Lucas Tolimán	2	Febrero	2023-02-15T00:00:00	2024-11-08T07:00:00	7	Dirección del viento	1.61
106927	7	Sololá	713	San Lucas Tolimán	10	San Lucas Tolimán	2	Febrero	2023-02-15T00:00:00	2024-11-08T07:00:00	1	Precipitación	0
106928	7	Sololá	713	San Lucas Tolimán	10	San Lucas Tolimán	2	Febrero	2023-02-15T00:00:00	2024-11-08T07:00:00	8	Radiación solar	7
106929	7	Sololá	713	San Lucas Tolimán	10	San Lucas Tolimán	2	Febrero	2023-02-15T00:00:00	2024-11-08T08:00:00	2	Temperatura media	14.8
106930	7	Sololá	713	San Lucas Tolimán	10	San Lucas Tolimán	2	Febrero	2023-02-15T00:00:00	2024-11-08T08:00:00	4	Temperatura máxima	14.8
106931	7	Sololá	713	San Lucas Tolimán	10	San Lucas Tolimán	2	Febrero	2023-02-15T00:00:00	2024-11-08T08:00:00	3	Temperatura mínima	13.7
106932	7	Sololá	713	San Lucas Tolimán	10	San Lucas Tolimán	2	Febrero	2023-02-15T00:00:00	2024-11-08T08:00:00	5	Humedad	57
106933	7	Sololá	713	San Lucas Tolimán	10	San Lucas Tolimán	2	Febrero	2023-02-15T00:00:00	2024-11-08T08:00:00	6	Velocidad del viento	1.6
106934	7	Sololá	713	San Lucas Tolimán	10	San Lucas Tolimán	2	Febrero	2023-02-15T00:00:00	2024-11-08T08:00:00	7	Dirección del viento	1.61
106935	7	Sololá	713	San Lucas Tolimán	10	San Lucas Tolimán	2	Febrero	2023-02-15T00:00:00	2024-11-08T08:00:00	1	Precipitación	0
106936	7	Sololá	713	San Lucas Tolimán	10	San Lucas Tolimán	2	Febrero	2023-02-15T00:00:00	2024-11-08T08:00:00	8	Radiación solar	40
106937	7	Sololá	713	San Lucas Tolimán	10	San Lucas Tolimán	2	Febrero	2023-02-15T00:00:00	2024-11-08T09:00:00	2	Temperatura media	17.6
106938	7	Sololá	713	San Lucas Tolimán	10	San Lucas Tolimán	2	Febrero	2023-02-15T00:00:00	2024-11-08T09:00:00	4	Temperatura máxima	17.6
106939	7	Sololá	713	San Lucas Tolimán	10	San Lucas Tolimán	2	Febrero	2023-02-15T00:00:00	2024-11-08T09:00:00	3	Temperatura mínima	14.8
106940	7	Sololá	713	San Lucas Tolimán	10	San Lucas Tolimán	2	Febrero	2023-02-15T00:00:00	2024-11-08T09:00:00	5	Humedad	56
106941	7	Sololá	713	San Lucas Tolimán	10	San Lucas Tolimán	2	Febrero	2023-02-15T00:00:00	2024-11-08T09:00:00	6	Velocidad del viento	4.8
106942	7	Sololá	713	San Lucas Tolimán	10	San Lucas Tolimán	2	Febrero	2023-02-15T00:00:00	2024-11-08T09:00:00	7	Dirección del viento	4.83
106943	7	Sololá	713	San Lucas Tolimán	10	San Lucas Tolimán	2	Febrero	2023-02-15T00:00:00	2024-11-08T09:00:00	1	Precipitación	0
106944	7	Sololá	713	San Lucas Tolimán	10	San Lucas Tolimán	2	Febrero	2023-02-15T00:00:00	2024-11-08T09:00:00	8	Radiación solar	412
106945	7	Sololá	713	San Lucas Tolimán	10	San Lucas Tolimán	2	Febrero	2023-02-15T00:00:00	2024-11-08T10:00:00	2	Temperatura media	20.9
106946	7	Sololá	713	San Lucas Tolimán	10	San Lucas Tolimán	2	Febrero	2023-02-15T00:00:00	2024-11-08T10:00:00	4	Temperatura máxima	20.9
106947	7	Sololá	713	San Lucas Tolimán	10	San Lucas Tolimán	2	Febrero	2023-02-15T00:00:00	2024-11-08T10:00:00	3	Temperatura mínima	17.6
106948	7	Sololá	713	San Lucas Tolimán	10	San Lucas Tolimán	2	Febrero	2023-02-15T00:00:00	2024-11-08T10:00:00	5	Humedad	50
106949	7	Sololá	713	San Lucas Tolimán	10	San Lucas Tolimán	2	Febrero	2023-02-15T00:00:00	2024-11-08T10:00:00	6	Velocidad del viento	4.8
106950	7	Sololá	713	San Lucas Tolimán	10	San Lucas Tolimán	2	Febrero	2023-02-15T00:00:00	2024-11-08T10:00:00	7	Dirección del viento	4.83
106951	7	Sololá	713	San Lucas Tolimán	10	San Lucas Tolimán	2	Febrero	2023-02-15T00:00:00	2024-11-08T10:00:00	1	Precipitación	0
106952	7	Sololá	713	San Lucas Tolimán	10	San Lucas Tolimán	2	Febrero	2023-02-15T00:00:00	2024-11-08T10:00:00	8	Radiación solar	635
106953	7	Sololá	713	San Lucas Tolimán	10	San Lucas Tolimán	2	Febrero	2023-02-15T00:00:00	2024-11-08T11:00:00	2	Temperatura media	21.5
106954	7	Sololá	713	San Lucas Tolimán	10	San Lucas Tolimán	2	Febrero	2023-02-15T00:00:00	2024-11-08T11:00:00	4	Temperatura máxima	22.2
106955	7	Sololá	713	San Lucas Tolimán	10	San Lucas Tolimán	2	Febrero	2023-02-15T00:00:00	2024-11-08T11:00:00	3	Temperatura mínima	20.9
106956	7	Sololá	713	San Lucas Tolimán	10	San Lucas Tolimán	2	Febrero	2023-02-15T00:00:00	2024-11-08T11:00:00	5	Humedad	53
106957	7	Sololá	713	San Lucas Tolimán	10	San Lucas Tolimán	2	Febrero	2023-02-15T00:00:00	2024-11-08T11:00:00	6	Velocidad del viento	8
106958	7	Sololá	713	San Lucas Tolimán	10	San Lucas Tolimán	2	Febrero	2023-02-15T00:00:00	2024-11-08T11:00:00	7	Dirección del viento	8.05
106959	7	Sololá	713	San Lucas Tolimán	10	San Lucas Tolimán	2	Febrero	2023-02-15T00:00:00	2024-11-08T11:00:00	1	Precipitación	0
106960	7	Sololá	713	San Lucas Tolimán	10	San Lucas Tolimán	2	Febrero	2023-02-15T00:00:00	2024-11-08T11:00:00	8	Radiación solar	830
106961	7	Sololá	713	San Lucas Tolimán	10	San Lucas Tolimán	2	Febrero	2023-02-15T00:00:00	2024-11-08T12:00:00	2	Temperatura media	21.8
106962	7	Sololá	713	San Lucas Tolimán	10	San Lucas Tolimán	2	Febrero	2023-02-15T00:00:00	2024-11-08T12:00:00	4	Temperatura máxima	22.4
106963	7	Sololá	713	San Lucas Tolimán	10	San Lucas Tolimán	2	Febrero	2023-02-15T00:00:00	2024-11-08T12:00:00	3	Temperatura mínima	21.5
106964	7	Sololá	713	San Lucas Tolimán	10	San Lucas Tolimán	2	Febrero	2023-02-15T00:00:00	2024-11-08T12:00:00	5	Humedad	54
106965	7	Sololá	713	San Lucas Tolimán	10	San Lucas Tolimán	2	Febrero	2023-02-15T00:00:00	2024-11-08T12:00:00	6	Velocidad del viento	11.3
106966	7	Sololá	713	San Lucas Tolimán	10	San Lucas Tolimán	2	Febrero	2023-02-15T00:00:00	2024-11-08T12:00:00	7	Dirección del viento	11.27
106967	7	Sololá	713	San Lucas Tolimán	10	San Lucas Tolimán	2	Febrero	2023-02-15T00:00:00	2024-11-08T12:00:00	1	Precipitación	0
106968	7	Sololá	713	San Lucas Tolimán	10	San Lucas Tolimán	2	Febrero	2023-02-15T00:00:00	2024-11-08T12:00:00	8	Radiación solar	947
106969	7	Sololá	713	San Lucas Tolimán	10	San Lucas Tolimán	2	Febrero	2023-02-15T00:00:00	2024-11-08T13:00:00	2	Temperatura media	21.3
106970	7	Sololá	713	San Lucas Tolimán	10	San Lucas Tolimán	2	Febrero	2023-02-15T00:00:00	2024-11-08T13:00:00	4	Temperatura máxima	22.4
106971	7	Sololá	713	San Lucas Tolimán	10	San Lucas Tolimán	2	Febrero	2023-02-15T00:00:00	2024-11-08T13:00:00	3	Temperatura mínima	21.3
106972	7	Sololá	713	San Lucas Tolimán	10	San Lucas Tolimán	2	Febrero	2023-02-15T00:00:00	2024-11-08T13:00:00	5	Humedad	58
106973	7	Sololá	713	San Lucas Tolimán	10	San Lucas Tolimán	2	Febrero	2023-02-15T00:00:00	2024-11-08T13:00:00	6	Velocidad del viento	9.7
106974	7	Sololá	713	San Lucas Tolimán	10	San Lucas Tolimán	2	Febrero	2023-02-15T00:00:00	2024-11-08T13:00:00	7	Dirección del viento	9.66
106975	7	Sololá	713	San Lucas Tolimán	10	San Lucas Tolimán	2	Febrero	2023-02-15T00:00:00	2024-11-08T13:00:00	1	Precipitación	0
106976	7	Sololá	713	San Lucas Tolimán	10	San Lucas Tolimán	2	Febrero	2023-02-15T00:00:00	2024-11-08T13:00:00	8	Radiación solar	1011
106977	7	Sololá	713	San Lucas Tolimán	10	San Lucas Tolimán	2	Febrero	2023-02-15T00:00:00	2024-11-08T14:00:00	2	Temperatura media	21.1
106978	7	Sololá	713	San Lucas Tolimán	10	San Lucas Tolimán	2	Febrero	2023-02-15T00:00:00	2024-11-08T14:00:00	4	Temperatura máxima	22.4
106979	7	Sololá	713	San Lucas Tolimán	10	San Lucas Tolimán	2	Febrero	2023-02-15T00:00:00	2024-11-08T14:00:00	3	Temperatura mínima	21.1
106980	7	Sololá	713	San Lucas Tolimán	10	San Lucas Tolimán	2	Febrero	2023-02-15T00:00:00	2024-11-08T14:00:00	5	Humedad	59
106981	7	Sololá	713	San Lucas Tolimán	10	San Lucas Tolimán	2	Febrero	2023-02-15T00:00:00	2024-11-08T14:00:00	6	Velocidad del viento	11.3
106982	7	Sololá	713	San Lucas Tolimán	10	San Lucas Tolimán	2	Febrero	2023-02-15T00:00:00	2024-11-08T14:00:00	7	Dirección del viento	11.27
106983	7	Sololá	713	San Lucas Tolimán	10	San Lucas Tolimán	2	Febrero	2023-02-15T00:00:00	2024-11-08T14:00:00	1	Precipitación	0
106984	7	Sololá	713	San Lucas Tolimán	10	San Lucas Tolimán	2	Febrero	2023-02-15T00:00:00	2024-11-08T14:00:00	8	Radiación solar	923
106985	7	Sololá	713	San Lucas Tolimán	10	San Lucas Tolimán	2	Febrero	2023-02-15T00:00:00	2024-11-08T15:00:00	2	Temperatura media	20.9
106986	7	Sololá	713	San Lucas Tolimán	10	San Lucas Tolimán	2	Febrero	2023-02-15T00:00:00	2024-11-08T15:00:00	4	Temperatura máxima	21.6
106987	7	Sololá	713	San Lucas Tolimán	10	San Lucas Tolimán	2	Febrero	2023-02-15T00:00:00	2024-11-08T15:00:00	3	Temperatura mínima	20.7
106988	7	Sololá	713	San Lucas Tolimán	10	San Lucas Tolimán	2	Febrero	2023-02-15T00:00:00	2024-11-08T15:00:00	5	Humedad	60
106989	7	Sololá	713	San Lucas Tolimán	10	San Lucas Tolimán	2	Febrero	2023-02-15T00:00:00	2024-11-08T15:00:00	6	Velocidad del viento	8
106990	7	Sololá	713	San Lucas Tolimán	10	San Lucas Tolimán	2	Febrero	2023-02-15T00:00:00	2024-11-08T15:00:00	7	Dirección del viento	8.05
106991	7	Sololá	713	San Lucas Tolimán	10	San Lucas Tolimán	2	Febrero	2023-02-15T00:00:00	2024-11-08T15:00:00	1	Precipitación	0
106992	7	Sololá	713	San Lucas Tolimán	10	San Lucas Tolimán	2	Febrero	2023-02-15T00:00:00	2024-11-08T15:00:00	8	Radiación solar	548
106993	7	Sololá	713	San Lucas Tolimán	10	San Lucas Tolimán	2	Febrero	2023-02-15T00:00:00	2024-11-08T16:00:00	2	Temperatura media	19.7
106994	7	Sololá	713	San Lucas Tolimán	10	San Lucas Tolimán	2	Febrero	2023-02-15T00:00:00	2024-11-08T16:00:00	4	Temperatura máxima	20.9
106995	7	Sololá	713	San Lucas Tolimán	10	San Lucas Tolimán	2	Febrero	2023-02-15T00:00:00	2024-11-08T16:00:00	3	Temperatura mínima	19.7
106996	7	Sololá	713	San Lucas Tolimán	10	San Lucas Tolimán	2	Febrero	2023-02-15T00:00:00	2024-11-08T16:00:00	5	Humedad	63
106997	7	Sololá	713	San Lucas Tolimán	10	San Lucas Tolimán	2	Febrero	2023-02-15T00:00:00	2024-11-08T16:00:00	6	Velocidad del viento	9.7
106998	7	Sololá	713	San Lucas Tolimán	10	San Lucas Tolimán	2	Febrero	2023-02-15T00:00:00	2024-11-08T16:00:00	7	Dirección del viento	9.66
106999	7	Sololá	713	San Lucas Tolimán	10	San Lucas Tolimán	2	Febrero	2023-02-15T00:00:00	2024-11-08T16:00:00	1	Precipitación	0
107000	7	Sololá	713	San Lucas Tolimán	10	San Lucas Tolimán	2	Febrero	2023-02-15T00:00:00	2024-11-08T16:00:00	8	Radiación solar	259
107001	7	Sololá	713	San Lucas Tolimán	10	San Lucas Tolimán	2	Febrero	2023-02-15T00:00:00	2024-11-08T17:00:00	2	Temperatura media	18.8
107002	7	Sololá	713	San Lucas Tolimán	10	San Lucas Tolimán	2	Febrero	2023-02-15T00:00:00	2024-11-08T17:00:00	4	Temperatura máxima	19.7
107003	7	Sololá	713	San Lucas Tolimán	10	San Lucas Tolimán	2	Febrero	2023-02-15T00:00:00	2024-11-08T17:00:00	3	Temperatura mínima	18.8
107004	7	Sololá	713	San Lucas Tolimán	10	San Lucas Tolimán	2	Febrero	2023-02-15T00:00:00	2024-11-08T17:00:00	5	Humedad	63
107005	7	Sololá	713	San Lucas Tolimán	10	San Lucas Tolimán	2	Febrero	2023-02-15T00:00:00	2024-11-08T17:00:00	6	Velocidad del viento	9.7
107006	7	Sololá	713	San Lucas Tolimán	10	San Lucas Tolimán	2	Febrero	2023-02-15T00:00:00	2024-11-08T17:00:00	7	Dirección del viento	9.66
107007	7	Sololá	713	San Lucas Tolimán	10	San Lucas Tolimán	2	Febrero	2023-02-15T00:00:00	2024-11-08T17:00:00	1	Precipitación	0
107008	7	Sololá	713	San Lucas Tolimán	10	San Lucas Tolimán	2	Febrero	2023-02-15T00:00:00	2024-11-08T17:00:00	8	Radiación solar	164
107009	7	Sololá	713	San Lucas Tolimán	10	San Lucas Tolimán	2	Febrero	2023-02-15T00:00:00	2024-11-08T18:00:00	2	Temperatura media	17.8
107010	7	Sololá	713	San Lucas Tolimán	10	San Lucas Tolimán	2	Febrero	2023-02-15T00:00:00	2024-11-08T18:00:00	4	Temperatura máxima	18.9
107011	7	Sololá	713	San Lucas Tolimán	10	San Lucas Tolimán	2	Febrero	2023-02-15T00:00:00	2024-11-08T18:00:00	3	Temperatura mínima	17.8
107012	7	Sololá	713	San Lucas Tolimán	10	San Lucas Tolimán	2	Febrero	2023-02-15T00:00:00	2024-11-08T18:00:00	5	Humedad	64
107013	7	Sololá	713	San Lucas Tolimán	10	San Lucas Tolimán	2	Febrero	2023-02-15T00:00:00	2024-11-08T18:00:00	6	Velocidad del viento	4.8
107014	7	Sololá	713	San Lucas Tolimán	10	San Lucas Tolimán	2	Febrero	2023-02-15T00:00:00	2024-11-08T18:00:00	7	Dirección del viento	4.83
107015	7	Sololá	713	San Lucas Tolimán	10	San Lucas Tolimán	2	Febrero	2023-02-15T00:00:00	2024-11-08T18:00:00	1	Precipitación	0
107016	7	Sololá	713	San Lucas Tolimán	10	San Lucas Tolimán	2	Febrero	2023-02-15T00:00:00	2024-11-08T18:00:00	8	Radiación solar	32
107017	7	Sololá	713	San Lucas Tolimán	10	San Lucas Tolimán	2	Febrero	2023-02-15T00:00:00	2024-11-08T19:00:00	2	Temperatura media	16.9
107018	7	Sololá	713	San Lucas Tolimán	10	San Lucas Tolimán	2	Febrero	2023-02-15T00:00:00	2024-11-08T19:00:00	4	Temperatura máxima	17.8
107019	7	Sololá	713	San Lucas Tolimán	10	San Lucas Tolimán	2	Febrero	2023-02-15T00:00:00	2024-11-08T19:00:00	3	Temperatura mínima	16.9
107020	7	Sololá	713	San Lucas Tolimán	10	San Lucas Tolimán	2	Febrero	2023-02-15T00:00:00	2024-11-08T19:00:00	5	Humedad	70
107021	7	Sololá	713	San Lucas Tolimán	10	San Lucas Tolimán	2	Febrero	2023-02-15T00:00:00	2024-11-08T19:00:00	6	Velocidad del viento	4.8
107022	7	Sololá	713	San Lucas Tolimán	10	San Lucas Tolimán	2	Febrero	2023-02-15T00:00:00	2024-11-08T19:00:00	7	Dirección del viento	4.83
107023	7	Sololá	713	San Lucas Tolimán	10	San Lucas Tolimán	2	Febrero	2023-02-15T00:00:00	2024-11-08T19:00:00	1	Precipitación	0
107024	7	Sololá	713	San Lucas Tolimán	10	San Lucas Tolimán	2	Febrero	2023-02-15T00:00:00	2024-11-08T19:00:00	8	Radiación solar	0
107025	7	Sololá	713	San Lucas Tolimán	10	San Lucas Tolimán	2	Febrero	2023-02-15T00:00:00	2024-11-08T20:00:00	2	Temperatura media	16.5
107026	7	Sololá	713	San Lucas Tolimán	10	San Lucas Tolimán	2	Febrero	2023-02-15T00:00:00	2024-11-08T20:00:00	4	Temperatura máxima	16.9
107027	7	Sololá	713	San Lucas Tolimán	10	San Lucas Tolimán	2	Febrero	2023-02-15T00:00:00	2024-11-08T20:00:00	3	Temperatura mínima	16.5
107028	7	Sololá	713	San Lucas Tolimán	10	San Lucas Tolimán	2	Febrero	2023-02-15T00:00:00	2024-11-08T20:00:00	5	Humedad	72
107029	7	Sololá	713	San Lucas Tolimán	10	San Lucas Tolimán	2	Febrero	2023-02-15T00:00:00	2024-11-08T20:00:00	6	Velocidad del viento	6.4
107030	7	Sololá	713	San Lucas Tolimán	10	San Lucas Tolimán	2	Febrero	2023-02-15T00:00:00	2024-11-08T20:00:00	7	Dirección del viento	6.44
107031	7	Sololá	713	San Lucas Tolimán	10	San Lucas Tolimán	2	Febrero	2023-02-15T00:00:00	2024-11-08T20:00:00	1	Precipitación	0
107032	7	Sololá	713	San Lucas Tolimán	10	San Lucas Tolimán	2	Febrero	2023-02-15T00:00:00	2024-11-08T20:00:00	8	Radiación solar	0
107033	7	Sololá	713	San Lucas Tolimán	10	San Lucas Tolimán	2	Febrero	2023-02-15T00:00:00	2024-11-08T21:00:00	2	Temperatura media	16
107034	7	Sololá	713	San Lucas Tolimán	10	San Lucas Tolimán	2	Febrero	2023-02-15T00:00:00	2024-11-08T21:00:00	4	Temperatura máxima	16.6
107035	7	Sololá	713	San Lucas Tolimán	10	San Lucas Tolimán	2	Febrero	2023-02-15T00:00:00	2024-11-08T21:00:00	3	Temperatura mínima	16
107036	7	Sololá	713	San Lucas Tolimán	10	San Lucas Tolimán	2	Febrero	2023-02-15T00:00:00	2024-11-08T21:00:00	5	Humedad	72
107037	7	Sololá	713	San Lucas Tolimán	10	San Lucas Tolimán	2	Febrero	2023-02-15T00:00:00	2024-11-08T21:00:00	6	Velocidad del viento	3.2
107038	7	Sololá	713	San Lucas Tolimán	10	San Lucas Tolimán	2	Febrero	2023-02-15T00:00:00	2024-11-08T21:00:00	7	Dirección del viento	3.22
107039	7	Sololá	713	San Lucas Tolimán	10	San Lucas Tolimán	2	Febrero	2023-02-15T00:00:00	2024-11-08T21:00:00	1	Precipitación	0
107040	7	Sololá	713	San Lucas Tolimán	10	San Lucas Tolimán	2	Febrero	2023-02-15T00:00:00	2024-11-08T21:00:00	8	Radiación solar	0
107041	7	Sololá	713	San Lucas Tolimán	10	San Lucas Tolimán	2	Febrero	2023-02-15T00:00:00	2024-11-08T22:00:00	2	Temperatura media	16.1
107042	7	Sololá	713	San Lucas Tolimán	10	San Lucas Tolimán	2	Febrero	2023-02-15T00:00:00	2024-11-08T22:00:00	4	Temperatura máxima	16.2
107043	7	Sololá	713	San Lucas Tolimán	10	San Lucas Tolimán	2	Febrero	2023-02-15T00:00:00	2024-11-08T22:00:00	3	Temperatura mínima	15.9
107044	7	Sololá	713	San Lucas Tolimán	10	San Lucas Tolimán	2	Febrero	2023-02-15T00:00:00	2024-11-08T22:00:00	5	Humedad	73
107045	7	Sololá	713	San Lucas Tolimán	10	San Lucas Tolimán	2	Febrero	2023-02-15T00:00:00	2024-11-08T22:00:00	6	Velocidad del viento	3.2
107046	7	Sololá	713	San Lucas Tolimán	10	San Lucas Tolimán	2	Febrero	2023-02-15T00:00:00	2024-11-08T22:00:00	7	Dirección del viento	3.22
107047	7	Sololá	713	San Lucas Tolimán	10	San Lucas Tolimán	2	Febrero	2023-02-15T00:00:00	2024-11-08T22:00:00	1	Precipitación	0
107048	7	Sololá	713	San Lucas Tolimán	10	San Lucas Tolimán	2	Febrero	2023-02-15T00:00:00	2024-11-08T22:00:00	8	Radiación solar	0
107049	7	Sololá	713	San Lucas Tolimán	10	San Lucas Tolimán	2	Febrero	2023-02-15T00:00:00	2024-11-08T23:00:00	2	Temperatura media	15.7
107050	7	Sololá	713	San Lucas Tolimán	10	San Lucas Tolimán	2	Febrero	2023-02-15T00:00:00	2024-11-08T23:00:00	4	Temperatura máxima	16.1
107051	7	Sololá	713	San Lucas Tolimán	10	San Lucas Tolimán	2	Febrero	2023-02-15T00:00:00	2024-11-08T23:00:00	3	Temperatura mínima	15.5
107052	7	Sololá	713	San Lucas Tolimán	10	San Lucas Tolimán	2	Febrero	2023-02-15T00:00:00	2024-11-08T23:00:00	5	Humedad	73
107053	7	Sololá	713	San Lucas Tolimán	10	San Lucas Tolimán	2	Febrero	2023-02-15T00:00:00	2024-11-08T23:00:00	6	Velocidad del viento	1.6
107054	7	Sololá	713	San Lucas Tolimán	10	San Lucas Tolimán	2	Febrero	2023-02-15T00:00:00	2024-11-08T23:00:00	7	Dirección del viento	1.61
107055	7	Sololá	713	San Lucas Tolimán	10	San Lucas Tolimán	2	Febrero	2023-02-15T00:00:00	2024-11-08T23:00:00	1	Precipitación	0
107056	7	Sololá	713	San Lucas Tolimán	10	San Lucas Tolimán	2	Febrero	2023-02-15T00:00:00	2024-11-08T23:00:00	8	Radiación solar	0
107057	7	Sololá	713	San Lucas Tolimán	10	San Lucas Tolimán	2	Febrero	2023-02-16T00:00:00	2024-11-08T00:00:00	2	Temperatura media	15.8
107058	7	Sololá	713	San Lucas Tolimán	10	San Lucas Tolimán	2	Febrero	2023-02-16T00:00:00	2024-11-08T00:00:00	4	Temperatura máxima	15.9
107059	7	Sololá	713	San Lucas Tolimán	10	San Lucas Tolimán	2	Febrero	2023-02-16T00:00:00	2024-11-08T00:00:00	3	Temperatura mínima	15.7
107060	7	Sololá	713	San Lucas Tolimán	10	San Lucas Tolimán	2	Febrero	2023-02-16T00:00:00	2024-11-08T00:00:00	5	Humedad	73
107061	7	Sololá	713	San Lucas Tolimán	10	San Lucas Tolimán	2	Febrero	2023-02-16T00:00:00	2024-11-08T00:00:00	6	Velocidad del viento	6.4
107062	7	Sololá	713	San Lucas Tolimán	10	San Lucas Tolimán	2	Febrero	2023-02-16T00:00:00	2024-11-08T00:00:00	7	Dirección del viento	6.44
107063	7	Sololá	713	San Lucas Tolimán	10	San Lucas Tolimán	2	Febrero	2023-02-16T00:00:00	2024-11-08T00:00:00	1	Precipitación	0
107064	7	Sololá	713	San Lucas Tolimán	10	San Lucas Tolimán	2	Febrero	2023-02-16T00:00:00	2024-11-08T00:00:00	8	Radiación solar	0
107065	7	Sololá	713	San Lucas Tolimán	10	San Lucas Tolimán	2	Febrero	2023-02-16T00:00:00	2024-11-08T01:00:00	2	Temperatura media	15.1
107066	7	Sololá	713	San Lucas Tolimán	10	San Lucas Tolimán	2	Febrero	2023-02-16T00:00:00	2024-11-08T01:00:00	4	Temperatura máxima	15.8
107067	7	Sololá	713	San Lucas Tolimán	10	San Lucas Tolimán	2	Febrero	2023-02-16T00:00:00	2024-11-08T01:00:00	3	Temperatura mínima	15.1
107068	7	Sololá	713	San Lucas Tolimán	10	San Lucas Tolimán	2	Febrero	2023-02-16T00:00:00	2024-11-08T01:00:00	5	Humedad	72
107069	7	Sololá	713	San Lucas Tolimán	10	San Lucas Tolimán	2	Febrero	2023-02-16T00:00:00	2024-11-08T01:00:00	6	Velocidad del viento	4.8
107070	7	Sololá	713	San Lucas Tolimán	10	San Lucas Tolimán	2	Febrero	2023-02-16T00:00:00	2024-11-08T01:00:00	7	Dirección del viento	4.83
107071	7	Sololá	713	San Lucas Tolimán	10	San Lucas Tolimán	2	Febrero	2023-02-16T00:00:00	2024-11-08T01:00:00	1	Precipitación	0
107072	7	Sololá	713	San Lucas Tolimán	10	San Lucas Tolimán	2	Febrero	2023-02-16T00:00:00	2024-11-08T01:00:00	8	Radiación solar	0
107073	7	Sololá	713	San Lucas Tolimán	10	San Lucas Tolimán	2	Febrero	2023-02-16T00:00:00	2024-11-08T02:00:00	2	Temperatura media	15
107074	7	Sololá	713	San Lucas Tolimán	10	San Lucas Tolimán	2	Febrero	2023-02-16T00:00:00	2024-11-08T02:00:00	4	Temperatura máxima	15.2
107075	7	Sololá	713	San Lucas Tolimán	10	San Lucas Tolimán	2	Febrero	2023-02-16T00:00:00	2024-11-08T02:00:00	3	Temperatura mínima	14.9
107076	7	Sololá	713	San Lucas Tolimán	10	San Lucas Tolimán	2	Febrero	2023-02-16T00:00:00	2024-11-08T02:00:00	5	Humedad	68
107077	7	Sololá	713	San Lucas Tolimán	10	San Lucas Tolimán	2	Febrero	2023-02-16T00:00:00	2024-11-08T02:00:00	6	Velocidad del viento	1.6
107078	7	Sololá	713	San Lucas Tolimán	10	San Lucas Tolimán	2	Febrero	2023-02-16T00:00:00	2024-11-08T02:00:00	7	Dirección del viento	1.61
107079	7	Sololá	713	San Lucas Tolimán	10	San Lucas Tolimán	2	Febrero	2023-02-16T00:00:00	2024-11-08T02:00:00	1	Precipitación	0
107080	7	Sololá	713	San Lucas Tolimán	10	San Lucas Tolimán	2	Febrero	2023-02-16T00:00:00	2024-11-08T02:00:00	8	Radiación solar	0
107081	7	Sololá	713	San Lucas Tolimán	10	San Lucas Tolimán	2	Febrero	2023-02-16T00:00:00	2024-11-08T03:00:00	2	Temperatura media	13.8
107082	7	Sololá	713	San Lucas Tolimán	10	San Lucas Tolimán	2	Febrero	2023-02-16T00:00:00	2024-11-08T03:00:00	4	Temperatura máxima	15
107083	7	Sololá	713	San Lucas Tolimán	10	San Lucas Tolimán	2	Febrero	2023-02-16T00:00:00	2024-11-08T03:00:00	3	Temperatura mínima	13.8
107084	7	Sololá	713	San Lucas Tolimán	10	San Lucas Tolimán	2	Febrero	2023-02-16T00:00:00	2024-11-08T03:00:00	5	Humedad	69
107085	7	Sololá	713	San Lucas Tolimán	10	San Lucas Tolimán	2	Febrero	2023-02-16T00:00:00	2024-11-08T03:00:00	6	Velocidad del viento	0
107086	7	Sololá	713	San Lucas Tolimán	10	San Lucas Tolimán	2	Febrero	2023-02-16T00:00:00	2024-11-08T03:00:00	7	Dirección del viento	0
107087	7	Sololá	713	San Lucas Tolimán	10	San Lucas Tolimán	2	Febrero	2023-02-16T00:00:00	2024-11-08T03:00:00	1	Precipitación	0
107088	7	Sololá	713	San Lucas Tolimán	10	San Lucas Tolimán	2	Febrero	2023-02-16T00:00:00	2024-11-08T03:00:00	8	Radiación solar	0
107089	7	Sololá	713	San Lucas Tolimán	10	San Lucas Tolimán	2	Febrero	2023-02-16T00:00:00	2024-11-08T04:00:00	2	Temperatura media	14.9
107090	7	Sololá	713	San Lucas Tolimán	10	San Lucas Tolimán	2	Febrero	2023-02-16T00:00:00	2024-11-08T04:00:00	4	Temperatura máxima	14.9
107091	7	Sololá	713	San Lucas Tolimán	10	San Lucas Tolimán	2	Febrero	2023-02-16T00:00:00	2024-11-08T04:00:00	3	Temperatura mínima	13.8
107092	7	Sololá	713	San Lucas Tolimán	10	San Lucas Tolimán	2	Febrero	2023-02-16T00:00:00	2024-11-08T04:00:00	5	Humedad	66
107093	7	Sololá	713	San Lucas Tolimán	10	San Lucas Tolimán	2	Febrero	2023-02-16T00:00:00	2024-11-08T04:00:00	6	Velocidad del viento	1.6
107094	7	Sololá	713	San Lucas Tolimán	10	San Lucas Tolimán	2	Febrero	2023-02-16T00:00:00	2024-11-08T04:00:00	7	Dirección del viento	1.61
107095	7	Sololá	713	San Lucas Tolimán	10	San Lucas Tolimán	2	Febrero	2023-02-16T00:00:00	2024-11-08T04:00:00	1	Precipitación	0
107096	7	Sololá	713	San Lucas Tolimán	10	San Lucas Tolimán	2	Febrero	2023-02-16T00:00:00	2024-11-08T04:00:00	8	Radiación solar	0
107097	7	Sololá	713	San Lucas Tolimán	10	San Lucas Tolimán	2	Febrero	2023-02-16T00:00:00	2024-11-08T05:00:00	2	Temperatura media	14.2
107098	7	Sololá	713	San Lucas Tolimán	10	San Lucas Tolimán	2	Febrero	2023-02-16T00:00:00	2024-11-08T05:00:00	4	Temperatura máxima	15.1
107099	7	Sololá	713	San Lucas Tolimán	10	San Lucas Tolimán	2	Febrero	2023-02-16T00:00:00	2024-11-08T05:00:00	3	Temperatura mínima	14.2
107100	7	Sololá	713	San Lucas Tolimán	10	San Lucas Tolimán	2	Febrero	2023-02-16T00:00:00	2024-11-08T05:00:00	5	Humedad	66
107101	7	Sololá	713	San Lucas Tolimán	10	San Lucas Tolimán	2	Febrero	2023-02-16T00:00:00	2024-11-08T05:00:00	6	Velocidad del viento	1.6
107102	7	Sololá	713	San Lucas Tolimán	10	San Lucas Tolimán	2	Febrero	2023-02-16T00:00:00	2024-11-08T05:00:00	7	Dirección del viento	1.61
107103	7	Sololá	713	San Lucas Tolimán	10	San Lucas Tolimán	2	Febrero	2023-02-16T00:00:00	2024-11-08T05:00:00	1	Precipitación	0
107104	7	Sololá	713	San Lucas Tolimán	10	San Lucas Tolimán	2	Febrero	2023-02-16T00:00:00	2024-11-08T05:00:00	8	Radiación solar	0
107105	7	Sololá	713	San Lucas Tolimán	10	San Lucas Tolimán	2	Febrero	2023-02-16T00:00:00	2024-11-08T06:00:00	2	Temperatura media	14.7
107106	7	Sololá	713	San Lucas Tolimán	10	San Lucas Tolimán	2	Febrero	2023-02-16T00:00:00	2024-11-08T06:00:00	4	Temperatura máxima	14.7
107107	7	Sololá	713	San Lucas Tolimán	10	San Lucas Tolimán	2	Febrero	2023-02-16T00:00:00	2024-11-08T06:00:00	3	Temperatura mínima	14
107108	7	Sololá	713	San Lucas Tolimán	10	San Lucas Tolimán	2	Febrero	2023-02-16T00:00:00	2024-11-08T06:00:00	5	Humedad	63
107109	7	Sololá	713	San Lucas Tolimán	10	San Lucas Tolimán	2	Febrero	2023-02-16T00:00:00	2024-11-08T06:00:00	6	Velocidad del viento	1.6
107110	7	Sololá	713	San Lucas Tolimán	10	San Lucas Tolimán	2	Febrero	2023-02-16T00:00:00	2024-11-08T06:00:00	7	Dirección del viento	1.61
107111	7	Sololá	713	San Lucas Tolimán	10	San Lucas Tolimán	2	Febrero	2023-02-16T00:00:00	2024-11-08T06:00:00	1	Precipitación	0
107112	7	Sololá	713	San Lucas Tolimán	10	San Lucas Tolimán	2	Febrero	2023-02-16T00:00:00	2024-11-08T06:00:00	8	Radiación solar	0
107113	7	Sololá	713	San Lucas Tolimán	10	San Lucas Tolimán	2	Febrero	2023-02-16T00:00:00	2024-11-08T07:00:00	2	Temperatura media	14.7
107114	7	Sololá	713	San Lucas Tolimán	10	San Lucas Tolimán	2	Febrero	2023-02-16T00:00:00	2024-11-08T07:00:00	4	Temperatura máxima	14.7
107115	7	Sololá	713	San Lucas Tolimán	10	San Lucas Tolimán	2	Febrero	2023-02-16T00:00:00	2024-11-08T07:00:00	3	Temperatura mínima	14.1
107116	7	Sololá	713	San Lucas Tolimán	10	San Lucas Tolimán	2	Febrero	2023-02-16T00:00:00	2024-11-08T07:00:00	5	Humedad	59
107117	7	Sololá	713	San Lucas Tolimán	10	San Lucas Tolimán	2	Febrero	2023-02-16T00:00:00	2024-11-08T07:00:00	6	Velocidad del viento	3.2
107118	7	Sololá	713	San Lucas Tolimán	10	San Lucas Tolimán	2	Febrero	2023-02-16T00:00:00	2024-11-08T07:00:00	7	Dirección del viento	3.22
107119	7	Sololá	713	San Lucas Tolimán	10	San Lucas Tolimán	2	Febrero	2023-02-16T00:00:00	2024-11-08T07:00:00	1	Precipitación	0
107120	7	Sololá	713	San Lucas Tolimán	10	San Lucas Tolimán	2	Febrero	2023-02-16T00:00:00	2024-11-08T07:00:00	8	Radiación solar	9
107121	7	Sololá	713	San Lucas Tolimán	10	San Lucas Tolimán	2	Febrero	2023-02-16T00:00:00	2024-11-08T08:00:00	2	Temperatura media	15.7
107122	7	Sololá	713	San Lucas Tolimán	10	San Lucas Tolimán	2	Febrero	2023-02-16T00:00:00	2024-11-08T08:00:00	4	Temperatura máxima	15.7
107123	7	Sololá	713	San Lucas Tolimán	10	San Lucas Tolimán	2	Febrero	2023-02-16T00:00:00	2024-11-08T08:00:00	3	Temperatura mínima	14.6
107124	7	Sololá	713	San Lucas Tolimán	10	San Lucas Tolimán	2	Febrero	2023-02-16T00:00:00	2024-11-08T08:00:00	5	Humedad	58
107125	7	Sololá	713	San Lucas Tolimán	10	San Lucas Tolimán	2	Febrero	2023-02-16T00:00:00	2024-11-08T08:00:00	6	Velocidad del viento	0
107126	7	Sololá	713	San Lucas Tolimán	10	San Lucas Tolimán	2	Febrero	2023-02-16T00:00:00	2024-11-08T08:00:00	7	Dirección del viento	0
107127	7	Sololá	713	San Lucas Tolimán	10	San Lucas Tolimán	2	Febrero	2023-02-16T00:00:00	2024-11-08T08:00:00	1	Precipitación	0
107128	7	Sololá	713	San Lucas Tolimán	10	San Lucas Tolimán	2	Febrero	2023-02-16T00:00:00	2024-11-08T08:00:00	8	Radiación solar	99
107129	7	Sololá	713	San Lucas Tolimán	10	San Lucas Tolimán	2	Febrero	2023-02-16T00:00:00	2024-11-08T09:00:00	2	Temperatura media	17.1
107130	7	Sololá	713	San Lucas Tolimán	10	San Lucas Tolimán	2	Febrero	2023-02-16T00:00:00	2024-11-08T09:00:00	4	Temperatura máxima	17.1
107131	7	Sololá	713	San Lucas Tolimán	10	San Lucas Tolimán	2	Febrero	2023-02-16T00:00:00	2024-11-08T09:00:00	3	Temperatura mínima	15.7
107132	7	Sololá	713	San Lucas Tolimán	10	San Lucas Tolimán	2	Febrero	2023-02-16T00:00:00	2024-11-08T09:00:00	5	Humedad	63
107133	7	Sololá	713	San Lucas Tolimán	10	San Lucas Tolimán	2	Febrero	2023-02-16T00:00:00	2024-11-08T09:00:00	6	Velocidad del viento	1.6
107134	7	Sololá	713	San Lucas Tolimán	10	San Lucas Tolimán	2	Febrero	2023-02-16T00:00:00	2024-11-08T09:00:00	7	Dirección del viento	1.61
107135	7	Sololá	713	San Lucas Tolimán	10	San Lucas Tolimán	2	Febrero	2023-02-16T00:00:00	2024-11-08T09:00:00	1	Precipitación	0
107136	7	Sololá	713	San Lucas Tolimán	10	San Lucas Tolimán	2	Febrero	2023-02-16T00:00:00	2024-11-08T09:00:00	8	Radiación solar	185
107137	7	Sololá	713	San Lucas Tolimán	10	San Lucas Tolimán	2	Febrero	2023-02-16T00:00:00	2024-11-08T10:00:00	2	Temperatura media	20.6
107138	7	Sololá	713	San Lucas Tolimán	10	San Lucas Tolimán	2	Febrero	2023-02-16T00:00:00	2024-11-08T10:00:00	4	Temperatura máxima	20.6
107139	7	Sololá	713	San Lucas Tolimán	10	San Lucas Tolimán	2	Febrero	2023-02-16T00:00:00	2024-11-08T10:00:00	3	Temperatura mínima	17.1
107140	7	Sololá	713	San Lucas Tolimán	10	San Lucas Tolimán	2	Febrero	2023-02-16T00:00:00	2024-11-08T10:00:00	5	Humedad	51
107141	7	Sololá	713	San Lucas Tolimán	10	San Lucas Tolimán	2	Febrero	2023-02-16T00:00:00	2024-11-08T10:00:00	6	Velocidad del viento	3.2
107142	7	Sololá	713	San Lucas Tolimán	10	San Lucas Tolimán	2	Febrero	2023-02-16T00:00:00	2024-11-08T10:00:00	7	Dirección del viento	3.22
107143	7	Sololá	713	San Lucas Tolimán	10	San Lucas Tolimán	2	Febrero	2023-02-16T00:00:00	2024-11-08T10:00:00	1	Precipitación	0
107144	7	Sololá	713	San Lucas Tolimán	10	San Lucas Tolimán	2	Febrero	2023-02-16T00:00:00	2024-11-08T10:00:00	8	Radiación solar	624
107145	7	Sololá	713	San Lucas Tolimán	10	San Lucas Tolimán	2	Febrero	2023-02-16T00:00:00	2024-11-08T11:00:00	2	Temperatura media	21.3
107146	7	Sololá	713	San Lucas Tolimán	10	San Lucas Tolimán	2	Febrero	2023-02-16T00:00:00	2024-11-08T11:00:00	4	Temperatura máxima	21.4
107147	7	Sololá	713	San Lucas Tolimán	10	San Lucas Tolimán	2	Febrero	2023-02-16T00:00:00	2024-11-08T11:00:00	3	Temperatura mínima	19.9
107148	7	Sololá	713	San Lucas Tolimán	10	San Lucas Tolimán	2	Febrero	2023-02-16T00:00:00	2024-11-08T11:00:00	5	Humedad	51
107149	7	Sololá	713	San Lucas Tolimán	10	San Lucas Tolimán	2	Febrero	2023-02-16T00:00:00	2024-11-08T11:00:00	6	Velocidad del viento	6.4
107150	7	Sololá	713	San Lucas Tolimán	10	San Lucas Tolimán	2	Febrero	2023-02-16T00:00:00	2024-11-08T11:00:00	7	Dirección del viento	6.44
107151	7	Sololá	713	San Lucas Tolimán	10	San Lucas Tolimán	2	Febrero	2023-02-16T00:00:00	2024-11-08T11:00:00	1	Precipitación	0
107152	7	Sololá	713	San Lucas Tolimán	10	San Lucas Tolimán	2	Febrero	2023-02-16T00:00:00	2024-11-08T11:00:00	8	Radiación solar	836
107153	7	Sololá	713	San Lucas Tolimán	10	San Lucas Tolimán	2	Febrero	2023-02-16T00:00:00	2024-11-08T12:00:00	2	Temperatura media	20.5
107154	7	Sololá	713	San Lucas Tolimán	10	San Lucas Tolimán	2	Febrero	2023-02-16T00:00:00	2024-11-08T12:00:00	4	Temperatura máxima	21.6
107155	7	Sololá	713	San Lucas Tolimán	10	San Lucas Tolimán	2	Febrero	2023-02-16T00:00:00	2024-11-08T12:00:00	3	Temperatura mínima	20.4
107156	7	Sololá	713	San Lucas Tolimán	10	San Lucas Tolimán	2	Febrero	2023-02-16T00:00:00	2024-11-08T12:00:00	5	Humedad	55
107157	7	Sololá	713	San Lucas Tolimán	10	San Lucas Tolimán	2	Febrero	2023-02-16T00:00:00	2024-11-08T12:00:00	6	Velocidad del viento	12.9
107158	7	Sololá	713	San Lucas Tolimán	10	San Lucas Tolimán	2	Febrero	2023-02-16T00:00:00	2024-11-08T12:00:00	7	Dirección del viento	12.87
107159	7	Sololá	713	San Lucas Tolimán	10	San Lucas Tolimán	2	Febrero	2023-02-16T00:00:00	2024-11-08T12:00:00	1	Precipitación	0
107160	7	Sololá	713	San Lucas Tolimán	10	San Lucas Tolimán	2	Febrero	2023-02-16T00:00:00	2024-11-08T12:00:00	8	Radiación solar	969
107161	7	Sololá	713	San Lucas Tolimán	10	San Lucas Tolimán	2	Febrero	2023-02-16T00:00:00	2024-11-08T13:00:00	2	Temperatura media	19
107162	7	Sololá	713	San Lucas Tolimán	10	San Lucas Tolimán	2	Febrero	2023-02-16T00:00:00	2024-11-08T13:00:00	4	Temperatura máxima	20.6
107163	7	Sololá	713	San Lucas Tolimán	10	San Lucas Tolimán	2	Febrero	2023-02-16T00:00:00	2024-11-08T13:00:00	3	Temperatura mínima	19
107164	7	Sololá	713	San Lucas Tolimán	10	San Lucas Tolimán	2	Febrero	2023-02-16T00:00:00	2024-11-08T13:00:00	5	Humedad	61
107165	7	Sololá	713	San Lucas Tolimán	10	San Lucas Tolimán	2	Febrero	2023-02-16T00:00:00	2024-11-08T13:00:00	6	Velocidad del viento	12.9
107166	7	Sololá	713	San Lucas Tolimán	10	San Lucas Tolimán	2	Febrero	2023-02-16T00:00:00	2024-11-08T13:00:00	7	Dirección del viento	12.87
107167	7	Sololá	713	San Lucas Tolimán	10	San Lucas Tolimán	2	Febrero	2023-02-16T00:00:00	2024-11-08T13:00:00	1	Precipitación	0
107168	7	Sololá	713	San Lucas Tolimán	10	San Lucas Tolimán	2	Febrero	2023-02-16T00:00:00	2024-11-08T13:00:00	8	Radiación solar	658
107169	7	Sololá	713	San Lucas Tolimán	10	San Lucas Tolimán	2	Febrero	2023-02-16T00:00:00	2024-11-08T14:00:00	2	Temperatura media	19.2
107170	7	Sololá	713	San Lucas Tolimán	10	San Lucas Tolimán	2	Febrero	2023-02-16T00:00:00	2024-11-08T14:00:00	4	Temperatura máxima	19.4
107171	7	Sololá	713	San Lucas Tolimán	10	San Lucas Tolimán	2	Febrero	2023-02-16T00:00:00	2024-11-08T14:00:00	3	Temperatura mínima	18.3
107172	7	Sololá	713	San Lucas Tolimán	10	San Lucas Tolimán	2	Febrero	2023-02-16T00:00:00	2024-11-08T14:00:00	5	Humedad	61
107173	7	Sololá	713	San Lucas Tolimán	10	San Lucas Tolimán	2	Febrero	2023-02-16T00:00:00	2024-11-08T14:00:00	6	Velocidad del viento	11.3
107174	7	Sololá	713	San Lucas Tolimán	10	San Lucas Tolimán	2	Febrero	2023-02-16T00:00:00	2024-11-08T14:00:00	7	Dirección del viento	11.27
107175	7	Sololá	713	San Lucas Tolimán	10	San Lucas Tolimán	2	Febrero	2023-02-16T00:00:00	2024-11-08T14:00:00	1	Precipitación	0
107176	7	Sololá	713	San Lucas Tolimán	10	San Lucas Tolimán	2	Febrero	2023-02-16T00:00:00	2024-11-08T14:00:00	8	Radiación solar	378
107177	7	Sololá	713	San Lucas Tolimán	10	San Lucas Tolimán	2	Febrero	2023-02-16T00:00:00	2024-11-08T15:00:00	2	Temperatura media	20.3
107178	7	Sololá	713	San Lucas Tolimán	10	San Lucas Tolimán	2	Febrero	2023-02-16T00:00:00	2024-11-08T15:00:00	4	Temperatura máxima	22.3
107179	7	Sololá	713	San Lucas Tolimán	10	San Lucas Tolimán	2	Febrero	2023-02-16T00:00:00	2024-11-08T15:00:00	3	Temperatura mínima	19.1
107180	7	Sololá	713	San Lucas Tolimán	10	San Lucas Tolimán	2	Febrero	2023-02-16T00:00:00	2024-11-08T15:00:00	5	Humedad	57
107181	7	Sololá	713	San Lucas Tolimán	10	San Lucas Tolimán	2	Febrero	2023-02-16T00:00:00	2024-11-08T15:00:00	6	Velocidad del viento	4.8
107182	7	Sololá	713	San Lucas Tolimán	10	San Lucas Tolimán	2	Febrero	2023-02-16T00:00:00	2024-11-08T15:00:00	7	Dirección del viento	4.83
107183	7	Sololá	713	San Lucas Tolimán	10	San Lucas Tolimán	2	Febrero	2023-02-16T00:00:00	2024-11-08T15:00:00	1	Precipitación	0.8
107184	7	Sololá	713	San Lucas Tolimán	10	San Lucas Tolimán	2	Febrero	2023-02-16T00:00:00	2024-11-08T15:00:00	8	Radiación solar	586
107185	7	Sololá	713	San Lucas Tolimán	10	San Lucas Tolimán	2	Febrero	2023-02-16T00:00:00	2024-11-08T16:00:00	2	Temperatura media	18.6
107186	7	Sololá	713	San Lucas Tolimán	10	San Lucas Tolimán	2	Febrero	2023-02-16T00:00:00	2024-11-08T16:00:00	4	Temperatura máxima	20.3
107187	7	Sololá	713	San Lucas Tolimán	10	San Lucas Tolimán	2	Febrero	2023-02-16T00:00:00	2024-11-08T16:00:00	3	Temperatura mínima	18.6
107188	7	Sololá	713	San Lucas Tolimán	10	San Lucas Tolimán	2	Febrero	2023-02-16T00:00:00	2024-11-08T16:00:00	5	Humedad	62
107189	7	Sololá	713	San Lucas Tolimán	10	San Lucas Tolimán	2	Febrero	2023-02-16T00:00:00	2024-11-08T16:00:00	6	Velocidad del viento	8
107190	7	Sololá	713	San Lucas Tolimán	10	San Lucas Tolimán	2	Febrero	2023-02-16T00:00:00	2024-11-08T16:00:00	7	Dirección del viento	8.05
107191	7	Sololá	713	San Lucas Tolimán	10	San Lucas Tolimán	2	Febrero	2023-02-16T00:00:00	2024-11-08T16:00:00	1	Precipitación	0
107192	7	Sololá	713	San Lucas Tolimán	10	San Lucas Tolimán	2	Febrero	2023-02-16T00:00:00	2024-11-08T16:00:00	8	Radiación solar	258
107193	7	Sololá	713	San Lucas Tolimán	10	San Lucas Tolimán	2	Febrero	2023-02-16T00:00:00	2024-11-08T17:00:00	2	Temperatura media	18.6
107194	7	Sololá	713	San Lucas Tolimán	10	San Lucas Tolimán	2	Febrero	2023-02-16T00:00:00	2024-11-08T17:00:00	4	Temperatura máxima	18.7
107195	7	Sololá	713	San Lucas Tolimán	10	San Lucas Tolimán	2	Febrero	2023-02-16T00:00:00	2024-11-08T17:00:00	3	Temperatura mínima	18.3
107196	7	Sololá	713	San Lucas Tolimán	10	San Lucas Tolimán	2	Febrero	2023-02-16T00:00:00	2024-11-08T17:00:00	5	Humedad	62
107197	7	Sololá	713	San Lucas Tolimán	10	San Lucas Tolimán	2	Febrero	2023-02-16T00:00:00	2024-11-08T17:00:00	6	Velocidad del viento	6.4
107198	7	Sololá	713	San Lucas Tolimán	10	San Lucas Tolimán	2	Febrero	2023-02-16T00:00:00	2024-11-08T17:00:00	7	Dirección del viento	6.44
107199	7	Sololá	713	San Lucas Tolimán	10	San Lucas Tolimán	2	Febrero	2023-02-16T00:00:00	2024-11-08T17:00:00	1	Precipitación	0
107200	7	Sololá	713	San Lucas Tolimán	10	San Lucas Tolimán	2	Febrero	2023-02-16T00:00:00	2024-11-08T17:00:00	8	Radiación solar	135
107201	7	Sololá	713	San Lucas Tolimán	10	San Lucas Tolimán	2	Febrero	2023-02-16T00:00:00	2024-11-08T18:00:00	2	Temperatura media	18.4
107202	7	Sololá	713	San Lucas Tolimán	10	San Lucas Tolimán	2	Febrero	2023-02-16T00:00:00	2024-11-08T18:00:00	4	Temperatura máxima	18.7
107203	7	Sololá	713	San Lucas Tolimán	10	San Lucas Tolimán	2	Febrero	2023-02-16T00:00:00	2024-11-08T18:00:00	3	Temperatura mínima	18.4
107204	7	Sololá	713	San Lucas Tolimán	10	San Lucas Tolimán	2	Febrero	2023-02-16T00:00:00	2024-11-08T18:00:00	5	Humedad	63
107205	7	Sololá	713	San Lucas Tolimán	10	San Lucas Tolimán	2	Febrero	2023-02-16T00:00:00	2024-11-08T18:00:00	6	Velocidad del viento	3.2
107206	7	Sololá	713	San Lucas Tolimán	10	San Lucas Tolimán	2	Febrero	2023-02-16T00:00:00	2024-11-08T18:00:00	7	Dirección del viento	3.22
107207	7	Sololá	713	San Lucas Tolimán	10	San Lucas Tolimán	2	Febrero	2023-02-16T00:00:00	2024-11-08T18:00:00	1	Precipitación	0
107208	7	Sololá	713	San Lucas Tolimán	10	San Lucas Tolimán	2	Febrero	2023-02-16T00:00:00	2024-11-08T18:00:00	8	Radiación solar	41
107209	7	Sololá	713	San Lucas Tolimán	10	San Lucas Tolimán	2	Febrero	2023-02-16T00:00:00	2024-11-08T19:00:00	2	Temperatura media	17.2
107210	7	Sololá	713	San Lucas Tolimán	10	San Lucas Tolimán	2	Febrero	2023-02-16T00:00:00	2024-11-08T19:00:00	4	Temperatura máxima	18.4
107211	7	Sololá	713	San Lucas Tolimán	10	San Lucas Tolimán	2	Febrero	2023-02-16T00:00:00	2024-11-08T19:00:00	3	Temperatura mínima	17.2
107212	7	Sololá	713	San Lucas Tolimán	10	San Lucas Tolimán	2	Febrero	2023-02-16T00:00:00	2024-11-08T19:00:00	5	Humedad	67
107213	7	Sololá	713	San Lucas Tolimán	10	San Lucas Tolimán	2	Febrero	2023-02-16T00:00:00	2024-11-08T19:00:00	6	Velocidad del viento	6.4
107214	7	Sololá	713	San Lucas Tolimán	10	San Lucas Tolimán	2	Febrero	2023-02-16T00:00:00	2024-11-08T19:00:00	7	Dirección del viento	6.44
107215	7	Sololá	713	San Lucas Tolimán	10	San Lucas Tolimán	2	Febrero	2023-02-16T00:00:00	2024-11-08T19:00:00	1	Precipitación	0
107216	7	Sololá	713	San Lucas Tolimán	10	San Lucas Tolimán	2	Febrero	2023-02-16T00:00:00	2024-11-08T19:00:00	8	Radiación solar	0
107217	7	Sololá	713	San Lucas Tolimán	10	San Lucas Tolimán	2	Febrero	2023-02-16T00:00:00	2024-11-08T20:00:00	2	Temperatura media	15.8
107218	7	Sololá	713	San Lucas Tolimán	10	San Lucas Tolimán	2	Febrero	2023-02-16T00:00:00	2024-11-08T20:00:00	4	Temperatura máxima	17.2
107219	7	Sololá	713	San Lucas Tolimán	10	San Lucas Tolimán	2	Febrero	2023-02-16T00:00:00	2024-11-08T20:00:00	3	Temperatura mínima	15.7
107220	7	Sololá	713	San Lucas Tolimán	10	San Lucas Tolimán	2	Febrero	2023-02-16T00:00:00	2024-11-08T20:00:00	5	Humedad	68
107221	7	Sololá	713	San Lucas Tolimán	10	San Lucas Tolimán	2	Febrero	2023-02-16T00:00:00	2024-11-08T20:00:00	6	Velocidad del viento	4.8
107222	7	Sololá	713	San Lucas Tolimán	10	San Lucas Tolimán	2	Febrero	2023-02-16T00:00:00	2024-11-08T20:00:00	7	Dirección del viento	4.83
107223	7	Sololá	713	San Lucas Tolimán	10	San Lucas Tolimán	2	Febrero	2023-02-16T00:00:00	2024-11-08T20:00:00	1	Precipitación	0
107224	7	Sololá	713	San Lucas Tolimán	10	San Lucas Tolimán	2	Febrero	2023-02-16T00:00:00	2024-11-08T20:00:00	8	Radiación solar	0
107225	7	Sololá	713	San Lucas Tolimán	10	San Lucas Tolimán	2	Febrero	2023-02-16T00:00:00	2024-11-08T21:00:00	2	Temperatura media	15.3
107226	7	Sololá	713	San Lucas Tolimán	10	San Lucas Tolimán	2	Febrero	2023-02-16T00:00:00	2024-11-08T21:00:00	4	Temperatura máxima	15.8
107227	7	Sololá	713	San Lucas Tolimán	10	San Lucas Tolimán	2	Febrero	2023-02-16T00:00:00	2024-11-08T21:00:00	3	Temperatura mínima	15.2
107228	7	Sololá	713	San Lucas Tolimán	10	San Lucas Tolimán	2	Febrero	2023-02-16T00:00:00	2024-11-08T21:00:00	5	Humedad	69
107229	7	Sololá	713	San Lucas Tolimán	10	San Lucas Tolimán	2	Febrero	2023-02-16T00:00:00	2024-11-08T21:00:00	6	Velocidad del viento	4.8
107230	7	Sololá	713	San Lucas Tolimán	10	San Lucas Tolimán	2	Febrero	2023-02-16T00:00:00	2024-11-08T21:00:00	7	Dirección del viento	4.83
107231	7	Sololá	713	San Lucas Tolimán	10	San Lucas Tolimán	2	Febrero	2023-02-16T00:00:00	2024-11-08T21:00:00	1	Precipitación	0
107232	7	Sololá	713	San Lucas Tolimán	10	San Lucas Tolimán	2	Febrero	2023-02-16T00:00:00	2024-11-08T21:00:00	8	Radiación solar	0
107233	7	Sololá	713	San Lucas Tolimán	10	San Lucas Tolimán	2	Febrero	2023-02-16T00:00:00	2024-11-08T22:00:00	2	Temperatura media	15.3
107234	7	Sololá	713	San Lucas Tolimán	10	San Lucas Tolimán	2	Febrero	2023-02-16T00:00:00	2024-11-08T22:00:00	4	Temperatura máxima	15.7
107235	7	Sololá	713	San Lucas Tolimán	10	San Lucas Tolimán	2	Febrero	2023-02-16T00:00:00	2024-11-08T22:00:00	3	Temperatura mínima	15.3
107236	7	Sololá	713	San Lucas Tolimán	10	San Lucas Tolimán	2	Febrero	2023-02-16T00:00:00	2024-11-08T22:00:00	5	Humedad	69
107237	7	Sololá	713	San Lucas Tolimán	10	San Lucas Tolimán	2	Febrero	2023-02-16T00:00:00	2024-11-08T22:00:00	6	Velocidad del viento	4.8
107238	7	Sololá	713	San Lucas Tolimán	10	San Lucas Tolimán	2	Febrero	2023-02-16T00:00:00	2024-11-08T22:00:00	7	Dirección del viento	4.83
107239	7	Sololá	713	San Lucas Tolimán	10	San Lucas Tolimán	2	Febrero	2023-02-16T00:00:00	2024-11-08T22:00:00	1	Precipitación	0
107240	7	Sololá	713	San Lucas Tolimán	10	San Lucas Tolimán	2	Febrero	2023-02-16T00:00:00	2024-11-08T22:00:00	8	Radiación solar	0
107241	7	Sololá	713	San Lucas Tolimán	10	San Lucas Tolimán	2	Febrero	2023-02-16T00:00:00	2024-11-08T23:00:00	2	Temperatura media	15.2
107242	7	Sololá	713	San Lucas Tolimán	10	San Lucas Tolimán	2	Febrero	2023-02-16T00:00:00	2024-11-08T23:00:00	4	Temperatura máxima	15.3
107243	7	Sololá	713	San Lucas Tolimán	10	San Lucas Tolimán	2	Febrero	2023-02-16T00:00:00	2024-11-08T23:00:00	3	Temperatura mínima	14.7
107244	7	Sololá	713	San Lucas Tolimán	10	San Lucas Tolimán	2	Febrero	2023-02-16T00:00:00	2024-11-08T23:00:00	5	Humedad	70
107245	7	Sololá	713	San Lucas Tolimán	10	San Lucas Tolimán	2	Febrero	2023-02-16T00:00:00	2024-11-08T23:00:00	6	Velocidad del viento	6.4
107246	7	Sololá	713	San Lucas Tolimán	10	San Lucas Tolimán	2	Febrero	2023-02-16T00:00:00	2024-11-08T23:00:00	7	Dirección del viento	6.44
107247	7	Sololá	713	San Lucas Tolimán	10	San Lucas Tolimán	2	Febrero	2023-02-16T00:00:00	2024-11-08T23:00:00	1	Precipitación	0
107248	7	Sololá	713	San Lucas Tolimán	10	San Lucas Tolimán	2	Febrero	2023-02-16T00:00:00	2024-11-08T23:00:00	8	Radiación solar	0
107249	7	Sololá	713	San Lucas Tolimán	10	San Lucas Tolimán	2	Febrero	2023-02-17T00:00:00	2024-11-08T00:00:00	2	Temperatura media	15
107250	7	Sololá	713	San Lucas Tolimán	10	San Lucas Tolimán	2	Febrero	2023-02-17T00:00:00	2024-11-08T00:00:00	4	Temperatura máxima	15.3
107251	7	Sololá	713	San Lucas Tolimán	10	San Lucas Tolimán	2	Febrero	2023-02-17T00:00:00	2024-11-08T00:00:00	3	Temperatura mínima	14.9
107252	7	Sololá	713	San Lucas Tolimán	10	San Lucas Tolimán	2	Febrero	2023-02-17T00:00:00	2024-11-08T00:00:00	5	Humedad	70
107253	7	Sololá	713	San Lucas Tolimán	10	San Lucas Tolimán	2	Febrero	2023-02-17T00:00:00	2024-11-08T00:00:00	6	Velocidad del viento	4.8
107254	7	Sololá	713	San Lucas Tolimán	10	San Lucas Tolimán	2	Febrero	2023-02-17T00:00:00	2024-11-08T00:00:00	7	Dirección del viento	4.83
107255	7	Sololá	713	San Lucas Tolimán	10	San Lucas Tolimán	2	Febrero	2023-02-17T00:00:00	2024-11-08T00:00:00	1	Precipitación	0
107256	7	Sololá	713	San Lucas Tolimán	10	San Lucas Tolimán	2	Febrero	2023-02-17T00:00:00	2024-11-08T00:00:00	8	Radiación solar	0
107257	7	Sololá	713	San Lucas Tolimán	10	San Lucas Tolimán	2	Febrero	2023-02-17T00:00:00	2024-11-08T01:00:00	2	Temperatura media	14.7
107258	7	Sololá	713	San Lucas Tolimán	10	San Lucas Tolimán	2	Febrero	2023-02-17T00:00:00	2024-11-08T01:00:00	4	Temperatura máxima	15.2
107259	7	Sololá	713	San Lucas Tolimán	10	San Lucas Tolimán	2	Febrero	2023-02-17T00:00:00	2024-11-08T01:00:00	3	Temperatura mínima	14.7
107260	7	Sololá	713	San Lucas Tolimán	10	San Lucas Tolimán	2	Febrero	2023-02-17T00:00:00	2024-11-08T01:00:00	5	Humedad	69
107261	7	Sololá	713	San Lucas Tolimán	10	San Lucas Tolimán	2	Febrero	2023-02-17T00:00:00	2024-11-08T01:00:00	6	Velocidad del viento	3.2
107262	7	Sololá	713	San Lucas Tolimán	10	San Lucas Tolimán	2	Febrero	2023-02-17T00:00:00	2024-11-08T01:00:00	7	Dirección del viento	3.22
107263	7	Sololá	713	San Lucas Tolimán	10	San Lucas Tolimán	2	Febrero	2023-02-17T00:00:00	2024-11-08T01:00:00	1	Precipitación	0
107264	7	Sololá	713	San Lucas Tolimán	10	San Lucas Tolimán	2	Febrero	2023-02-17T00:00:00	2024-11-08T01:00:00	8	Radiación solar	0
107265	7	Sololá	713	San Lucas Tolimán	10	San Lucas Tolimán	2	Febrero	2023-02-17T00:00:00	2024-11-08T02:00:00	2	Temperatura media	14.6
107266	7	Sololá	713	San Lucas Tolimán	10	San Lucas Tolimán	2	Febrero	2023-02-17T00:00:00	2024-11-08T02:00:00	4	Temperatura máxima	14.8
107267	7	Sololá	713	San Lucas Tolimán	10	San Lucas Tolimán	2	Febrero	2023-02-17T00:00:00	2024-11-08T02:00:00	3	Temperatura mínima	14.4
107268	7	Sololá	713	San Lucas Tolimán	10	San Lucas Tolimán	2	Febrero	2023-02-17T00:00:00	2024-11-08T02:00:00	5	Humedad	70
107269	7	Sololá	713	San Lucas Tolimán	10	San Lucas Tolimán	2	Febrero	2023-02-17T00:00:00	2024-11-08T02:00:00	6	Velocidad del viento	3.2
107270	7	Sololá	713	San Lucas Tolimán	10	San Lucas Tolimán	2	Febrero	2023-02-17T00:00:00	2024-11-08T02:00:00	7	Dirección del viento	3.22
107271	7	Sololá	713	San Lucas Tolimán	10	San Lucas Tolimán	2	Febrero	2023-02-17T00:00:00	2024-11-08T02:00:00	1	Precipitación	0
107272	7	Sololá	713	San Lucas Tolimán	10	San Lucas Tolimán	2	Febrero	2023-02-17T00:00:00	2024-11-08T02:00:00	8	Radiación solar	0
107273	7	Sololá	713	San Lucas Tolimán	10	San Lucas Tolimán	2	Febrero	2023-02-17T00:00:00	2024-11-08T03:00:00	2	Temperatura media	15
107274	7	Sololá	713	San Lucas Tolimán	10	San Lucas Tolimán	2	Febrero	2023-02-17T00:00:00	2024-11-08T03:00:00	4	Temperatura máxima	15
107275	7	Sololá	713	San Lucas Tolimán	10	San Lucas Tolimán	2	Febrero	2023-02-17T00:00:00	2024-11-08T03:00:00	3	Temperatura mínima	14.6
107276	7	Sololá	713	San Lucas Tolimán	10	San Lucas Tolimán	2	Febrero	2023-02-17T00:00:00	2024-11-08T03:00:00	5	Humedad	69
107277	7	Sololá	713	San Lucas Tolimán	10	San Lucas Tolimán	2	Febrero	2023-02-17T00:00:00	2024-11-08T03:00:00	6	Velocidad del viento	0
107278	7	Sololá	713	San Lucas Tolimán	10	San Lucas Tolimán	2	Febrero	2023-02-17T00:00:00	2024-11-08T03:00:00	7	Dirección del viento	0
107279	7	Sololá	713	San Lucas Tolimán	10	San Lucas Tolimán	2	Febrero	2023-02-17T00:00:00	2024-11-08T03:00:00	1	Precipitación	0
107280	7	Sololá	713	San Lucas Tolimán	10	San Lucas Tolimán	2	Febrero	2023-02-17T00:00:00	2024-11-08T03:00:00	8	Radiación solar	0
107281	7	Sololá	713	San Lucas Tolimán	10	San Lucas Tolimán	2	Febrero	2023-02-17T00:00:00	2024-11-08T04:00:00	2	Temperatura media	15.2
107282	7	Sololá	713	San Lucas Tolimán	10	San Lucas Tolimán	2	Febrero	2023-02-17T00:00:00	2024-11-08T04:00:00	4	Temperatura máxima	15.2
107283	7	Sololá	713	San Lucas Tolimán	10	San Lucas Tolimán	2	Febrero	2023-02-17T00:00:00	2024-11-08T04:00:00	3	Temperatura mínima	14.9
107284	7	Sololá	713	San Lucas Tolimán	10	San Lucas Tolimán	2	Febrero	2023-02-17T00:00:00	2024-11-08T04:00:00	5	Humedad	67
107285	7	Sololá	713	San Lucas Tolimán	10	San Lucas Tolimán	2	Febrero	2023-02-17T00:00:00	2024-11-08T04:00:00	6	Velocidad del viento	0
107286	7	Sololá	713	San Lucas Tolimán	10	San Lucas Tolimán	2	Febrero	2023-02-17T00:00:00	2024-11-08T04:00:00	7	Dirección del viento	0
107287	7	Sololá	713	San Lucas Tolimán	10	San Lucas Tolimán	2	Febrero	2023-02-17T00:00:00	2024-11-08T04:00:00	1	Precipitación	0
107288	7	Sololá	713	San Lucas Tolimán	10	San Lucas Tolimán	2	Febrero	2023-02-17T00:00:00	2024-11-08T04:00:00	8	Radiación solar	0
107289	7	Sololá	713	San Lucas Tolimán	10	San Lucas Tolimán	2	Febrero	2023-02-17T00:00:00	2024-11-08T05:00:00	2	Temperatura media	13.9
107290	7	Sololá	713	San Lucas Tolimán	10	San Lucas Tolimán	2	Febrero	2023-02-17T00:00:00	2024-11-08T05:00:00	4	Temperatura máxima	15.2
107291	7	Sololá	713	San Lucas Tolimán	10	San Lucas Tolimán	2	Febrero	2023-02-17T00:00:00	2024-11-08T05:00:00	3	Temperatura mínima	13.9
107292	7	Sololá	713	San Lucas Tolimán	10	San Lucas Tolimán	2	Febrero	2023-02-17T00:00:00	2024-11-08T05:00:00	5	Humedad	68
107293	7	Sololá	713	San Lucas Tolimán	10	San Lucas Tolimán	2	Febrero	2023-02-17T00:00:00	2024-11-08T05:00:00	6	Velocidad del viento	0
107294	7	Sololá	713	San Lucas Tolimán	10	San Lucas Tolimán	2	Febrero	2023-02-17T00:00:00	2024-11-08T05:00:00	7	Dirección del viento	0
107295	7	Sololá	713	San Lucas Tolimán	10	San Lucas Tolimán	2	Febrero	2023-02-17T00:00:00	2024-11-08T05:00:00	1	Precipitación	0
107296	7	Sololá	713	San Lucas Tolimán	10	San Lucas Tolimán	2	Febrero	2023-02-17T00:00:00	2024-11-08T05:00:00	8	Radiación solar	0
107297	7	Sololá	713	San Lucas Tolimán	10	San Lucas Tolimán	2	Febrero	2023-02-17T00:00:00	2024-11-08T06:00:00	2	Temperatura media	12.8
107298	7	Sololá	713	San Lucas Tolimán	10	San Lucas Tolimán	2	Febrero	2023-02-17T00:00:00	2024-11-08T06:00:00	4	Temperatura máxima	13.9
107299	7	Sololá	713	San Lucas Tolimán	10	San Lucas Tolimán	2	Febrero	2023-02-17T00:00:00	2024-11-08T06:00:00	3	Temperatura mínima	12.8
107300	7	Sololá	713	San Lucas Tolimán	10	San Lucas Tolimán	2	Febrero	2023-02-17T00:00:00	2024-11-08T06:00:00	5	Humedad	68
107301	7	Sololá	713	San Lucas Tolimán	10	San Lucas Tolimán	2	Febrero	2023-02-17T00:00:00	2024-11-08T06:00:00	6	Velocidad del viento	0
107302	7	Sololá	713	San Lucas Tolimán	10	San Lucas Tolimán	2	Febrero	2023-02-17T00:00:00	2024-11-08T06:00:00	7	Dirección del viento	0
107303	7	Sololá	713	San Lucas Tolimán	10	San Lucas Tolimán	2	Febrero	2023-02-17T00:00:00	2024-11-08T06:00:00	1	Precipitación	0
107304	7	Sololá	713	San Lucas Tolimán	10	San Lucas Tolimán	2	Febrero	2023-02-17T00:00:00	2024-11-08T06:00:00	8	Radiación solar	0
107305	7	Sololá	713	San Lucas Tolimán	10	San Lucas Tolimán	2	Febrero	2023-02-17T00:00:00	2024-11-08T07:00:00	2	Temperatura media	11.6
107306	7	Sololá	713	San Lucas Tolimán	10	San Lucas Tolimán	2	Febrero	2023-02-17T00:00:00	2024-11-08T07:00:00	4	Temperatura máxima	12.8
107307	7	Sololá	713	San Lucas Tolimán	10	San Lucas Tolimán	2	Febrero	2023-02-17T00:00:00	2024-11-08T07:00:00	3	Temperatura mínima	11.5
107308	7	Sololá	713	San Lucas Tolimán	10	San Lucas Tolimán	2	Febrero	2023-02-17T00:00:00	2024-11-08T07:00:00	5	Humedad	69
107309	7	Sololá	713	San Lucas Tolimán	10	San Lucas Tolimán	2	Febrero	2023-02-17T00:00:00	2024-11-08T07:00:00	6	Velocidad del viento	1.6
107310	7	Sololá	713	San Lucas Tolimán	10	San Lucas Tolimán	2	Febrero	2023-02-17T00:00:00	2024-11-08T07:00:00	7	Dirección del viento	1.61
107311	7	Sololá	713	San Lucas Tolimán	10	San Lucas Tolimán	2	Febrero	2023-02-17T00:00:00	2024-11-08T07:00:00	1	Precipitación	0
107312	7	Sololá	713	San Lucas Tolimán	10	San Lucas Tolimán	2	Febrero	2023-02-17T00:00:00	2024-11-08T07:00:00	8	Radiación solar	6
107313	7	Sololá	713	San Lucas Tolimán	10	San Lucas Tolimán	2	Febrero	2023-02-17T00:00:00	2024-11-08T08:00:00	2	Temperatura media	13.6
107314	7	Sololá	713	San Lucas Tolimán	10	San Lucas Tolimán	2	Febrero	2023-02-17T00:00:00	2024-11-08T08:00:00	4	Temperatura máxima	13.6
107315	7	Sololá	713	San Lucas Tolimán	10	San Lucas Tolimán	2	Febrero	2023-02-17T00:00:00	2024-11-08T08:00:00	3	Temperatura mínima	11.6
107316	7	Sololá	713	San Lucas Tolimán	10	San Lucas Tolimán	2	Febrero	2023-02-17T00:00:00	2024-11-08T08:00:00	5	Humedad	68
107317	7	Sololá	713	San Lucas Tolimán	10	San Lucas Tolimán	2	Febrero	2023-02-17T00:00:00	2024-11-08T08:00:00	6	Velocidad del viento	0
107318	7	Sololá	713	San Lucas Tolimán	10	San Lucas Tolimán	2	Febrero	2023-02-17T00:00:00	2024-11-08T08:00:00	7	Dirección del viento	0
107319	7	Sololá	713	San Lucas Tolimán	10	San Lucas Tolimán	2	Febrero	2023-02-17T00:00:00	2024-11-08T08:00:00	1	Precipitación	0
107320	7	Sololá	713	San Lucas Tolimán	10	San Lucas Tolimán	2	Febrero	2023-02-17T00:00:00	2024-11-08T08:00:00	8	Radiación solar	47
107321	7	Sololá	713	San Lucas Tolimán	10	San Lucas Tolimán	2	Febrero	2023-02-17T00:00:00	2024-11-08T09:00:00	2	Temperatura media	17.9
107322	7	Sololá	713	San Lucas Tolimán	10	San Lucas Tolimán	2	Febrero	2023-02-17T00:00:00	2024-11-08T09:00:00	4	Temperatura máxima	17.9
107323	7	Sololá	713	San Lucas Tolimán	10	San Lucas Tolimán	2	Febrero	2023-02-17T00:00:00	2024-11-08T09:00:00	3	Temperatura mínima	13.6
107324	7	Sololá	713	San Lucas Tolimán	10	San Lucas Tolimán	2	Febrero	2023-02-17T00:00:00	2024-11-08T09:00:00	5	Humedad	57
107325	7	Sololá	713	San Lucas Tolimán	10	San Lucas Tolimán	2	Febrero	2023-02-17T00:00:00	2024-11-08T09:00:00	6	Velocidad del viento	3.2
107326	7	Sololá	713	San Lucas Tolimán	10	San Lucas Tolimán	2	Febrero	2023-02-17T00:00:00	2024-11-08T09:00:00	7	Dirección del viento	3.22
107327	7	Sololá	713	San Lucas Tolimán	10	San Lucas Tolimán	2	Febrero	2023-02-17T00:00:00	2024-11-08T09:00:00	1	Precipitación	0
107328	7	Sololá	713	San Lucas Tolimán	10	San Lucas Tolimán	2	Febrero	2023-02-17T00:00:00	2024-11-08T09:00:00	8	Radiación solar	448
107329	7	Sololá	713	San Lucas Tolimán	10	San Lucas Tolimán	2	Febrero	2023-02-17T00:00:00	2024-11-08T10:00:00	2	Temperatura media	19.3
107330	7	Sololá	713	San Lucas Tolimán	10	San Lucas Tolimán	2	Febrero	2023-02-17T00:00:00	2024-11-08T10:00:00	4	Temperatura máxima	19.3
107331	7	Sololá	713	San Lucas Tolimán	10	San Lucas Tolimán	2	Febrero	2023-02-17T00:00:00	2024-11-08T10:00:00	3	Temperatura mínima	17.9
107332	7	Sololá	713	San Lucas Tolimán	10	San Lucas Tolimán	2	Febrero	2023-02-17T00:00:00	2024-11-08T10:00:00	5	Humedad	55
107333	7	Sololá	713	San Lucas Tolimán	10	San Lucas Tolimán	2	Febrero	2023-02-17T00:00:00	2024-11-08T10:00:00	6	Velocidad del viento	4.8
107334	7	Sololá	713	San Lucas Tolimán	10	San Lucas Tolimán	2	Febrero	2023-02-17T00:00:00	2024-11-08T10:00:00	7	Dirección del viento	4.83
107335	7	Sololá	713	San Lucas Tolimán	10	San Lucas Tolimán	2	Febrero	2023-02-17T00:00:00	2024-11-08T10:00:00	1	Precipitación	0
107336	7	Sololá	713	San Lucas Tolimán	10	San Lucas Tolimán	2	Febrero	2023-02-17T00:00:00	2024-11-08T10:00:00	8	Radiación solar	673
107337	7	Sololá	713	San Lucas Tolimán	10	San Lucas Tolimán	2	Febrero	2023-02-17T00:00:00	2024-11-08T11:00:00	2	Temperatura media	22.6
107338	7	Sololá	713	San Lucas Tolimán	10	San Lucas Tolimán	2	Febrero	2023-02-17T00:00:00	2024-11-08T11:00:00	4	Temperatura máxima	22.8
107339	7	Sololá	713	San Lucas Tolimán	10	San Lucas Tolimán	2	Febrero	2023-02-17T00:00:00	2024-11-08T11:00:00	3	Temperatura mínima	19.2
107340	7	Sololá	713	San Lucas Tolimán	10	San Lucas Tolimán	2	Febrero	2023-02-17T00:00:00	2024-11-08T11:00:00	5	Humedad	47
107341	7	Sololá	713	San Lucas Tolimán	10	San Lucas Tolimán	2	Febrero	2023-02-17T00:00:00	2024-11-08T11:00:00	6	Velocidad del viento	4.8
107342	7	Sololá	713	San Lucas Tolimán	10	San Lucas Tolimán	2	Febrero	2023-02-17T00:00:00	2024-11-08T11:00:00	7	Dirección del viento	4.83
107343	7	Sololá	713	San Lucas Tolimán	10	San Lucas Tolimán	2	Febrero	2023-02-17T00:00:00	2024-11-08T11:00:00	1	Precipitación	0
107344	7	Sololá	713	San Lucas Tolimán	10	San Lucas Tolimán	2	Febrero	2023-02-17T00:00:00	2024-11-08T11:00:00	8	Radiación solar	863
107345	7	Sololá	713	San Lucas Tolimán	10	San Lucas Tolimán	2	Febrero	2023-02-17T00:00:00	2024-11-08T12:00:00	2	Temperatura media	22.7
107346	7	Sololá	713	San Lucas Tolimán	10	San Lucas Tolimán	2	Febrero	2023-02-17T00:00:00	2024-11-08T12:00:00	4	Temperatura máxima	23.7
107347	7	Sololá	713	San Lucas Tolimán	10	San Lucas Tolimán	2	Febrero	2023-02-17T00:00:00	2024-11-08T12:00:00	3	Temperatura mínima	22.6
107348	7	Sololá	713	San Lucas Tolimán	10	San Lucas Tolimán	2	Febrero	2023-02-17T00:00:00	2024-11-08T12:00:00	5	Humedad	49
107349	7	Sololá	713	San Lucas Tolimán	10	San Lucas Tolimán	2	Febrero	2023-02-17T00:00:00	2024-11-08T12:00:00	6	Velocidad del viento	8
107350	7	Sololá	713	San Lucas Tolimán	10	San Lucas Tolimán	2	Febrero	2023-02-17T00:00:00	2024-11-08T12:00:00	7	Dirección del viento	8.05
107351	7	Sololá	713	San Lucas Tolimán	10	San Lucas Tolimán	2	Febrero	2023-02-17T00:00:00	2024-11-08T12:00:00	1	Precipitación	0
107352	7	Sololá	713	San Lucas Tolimán	10	San Lucas Tolimán	2	Febrero	2023-02-17T00:00:00	2024-11-08T12:00:00	8	Radiación solar	908
107353	7	Sololá	713	San Lucas Tolimán	10	San Lucas Tolimán	2	Febrero	2023-02-17T00:00:00	2024-11-08T13:00:00	2	Temperatura media	22.8
107354	7	Sololá	713	San Lucas Tolimán	10	San Lucas Tolimán	2	Febrero	2023-02-17T00:00:00	2024-11-08T13:00:00	4	Temperatura máxima	23.4
107355	7	Sololá	713	San Lucas Tolimán	10	San Lucas Tolimán	2	Febrero	2023-02-17T00:00:00	2024-11-08T13:00:00	3	Temperatura mínima	22.2
107356	7	Sololá	713	San Lucas Tolimán	10	San Lucas Tolimán	2	Febrero	2023-02-17T00:00:00	2024-11-08T13:00:00	5	Humedad	50
107357	7	Sololá	713	San Lucas Tolimán	10	San Lucas Tolimán	2	Febrero	2023-02-17T00:00:00	2024-11-08T13:00:00	6	Velocidad del viento	8
107358	7	Sololá	713	San Lucas Tolimán	10	San Lucas Tolimán	2	Febrero	2023-02-17T00:00:00	2024-11-08T13:00:00	7	Dirección del viento	8.05
107359	7	Sololá	713	San Lucas Tolimán	10	San Lucas Tolimán	2	Febrero	2023-02-17T00:00:00	2024-11-08T13:00:00	1	Precipitación	0
107360	7	Sololá	713	San Lucas Tolimán	10	San Lucas Tolimán	2	Febrero	2023-02-17T00:00:00	2024-11-08T13:00:00	8	Radiación solar	502
107361	7	Sololá	713	San Lucas Tolimán	10	San Lucas Tolimán	2	Febrero	2023-02-17T00:00:00	2024-11-08T14:00:00	2	Temperatura media	23.2
107362	7	Sololá	713	San Lucas Tolimán	10	San Lucas Tolimán	2	Febrero	2023-02-17T00:00:00	2024-11-08T14:00:00	4	Temperatura máxima	23.5
107363	7	Sololá	713	San Lucas Tolimán	10	San Lucas Tolimán	2	Febrero	2023-02-17T00:00:00	2024-11-08T14:00:00	3	Temperatura mínima	22.7
107364	7	Sololá	713	San Lucas Tolimán	10	San Lucas Tolimán	2	Febrero	2023-02-17T00:00:00	2024-11-08T14:00:00	5	Humedad	49
107365	7	Sololá	713	San Lucas Tolimán	10	San Lucas Tolimán	2	Febrero	2023-02-17T00:00:00	2024-11-08T14:00:00	6	Velocidad del viento	6.4
107366	7	Sololá	713	San Lucas Tolimán	10	San Lucas Tolimán	2	Febrero	2023-02-17T00:00:00	2024-11-08T14:00:00	7	Dirección del viento	6.44
107367	7	Sololá	713	San Lucas Tolimán	10	San Lucas Tolimán	2	Febrero	2023-02-17T00:00:00	2024-11-08T14:00:00	1	Precipitación	0
107368	7	Sololá	713	San Lucas Tolimán	10	San Lucas Tolimán	2	Febrero	2023-02-17T00:00:00	2024-11-08T14:00:00	8	Radiación solar	384
107369	7	Sololá	713	San Lucas Tolimán	10	San Lucas Tolimán	2	Febrero	2023-02-17T00:00:00	2024-11-08T15:00:00	2	Temperatura media	24.2
107370	7	Sololá	713	San Lucas Tolimán	10	San Lucas Tolimán	2	Febrero	2023-02-17T00:00:00	2024-11-08T15:00:00	4	Temperatura máxima	25.1
107371	7	Sololá	713	San Lucas Tolimán	10	San Lucas Tolimán	2	Febrero	2023-02-17T00:00:00	2024-11-08T15:00:00	3	Temperatura mínima	23.1
107372	7	Sololá	713	San Lucas Tolimán	10	San Lucas Tolimán	2	Febrero	2023-02-17T00:00:00	2024-11-08T15:00:00	5	Humedad	30
107373	7	Sololá	713	San Lucas Tolimán	10	San Lucas Tolimán	2	Febrero	2023-02-17T00:00:00	2024-11-08T15:00:00	6	Velocidad del viento	14.5
107374	7	Sololá	713	San Lucas Tolimán	10	San Lucas Tolimán	2	Febrero	2023-02-17T00:00:00	2024-11-08T15:00:00	7	Dirección del viento	14.48
107375	7	Sololá	713	San Lucas Tolimán	10	San Lucas Tolimán	2	Febrero	2023-02-17T00:00:00	2024-11-08T15:00:00	1	Precipitación	0
107376	7	Sololá	713	San Lucas Tolimán	10	San Lucas Tolimán	2	Febrero	2023-02-17T00:00:00	2024-11-08T15:00:00	8	Radiación solar	725
107377	7	Sololá	713	San Lucas Tolimán	10	San Lucas Tolimán	2	Febrero	2023-02-17T00:00:00	2024-11-08T16:00:00	2	Temperatura media	23.4
107378	7	Sololá	713	San Lucas Tolimán	10	San Lucas Tolimán	2	Febrero	2023-02-17T00:00:00	2024-11-08T16:00:00	4	Temperatura máxima	24.4
107379	7	Sololá	713	San Lucas Tolimán	10	San Lucas Tolimán	2	Febrero	2023-02-17T00:00:00	2024-11-08T16:00:00	3	Temperatura mínima	23.3
107380	7	Sololá	713	San Lucas Tolimán	10	San Lucas Tolimán	2	Febrero	2023-02-17T00:00:00	2024-11-08T16:00:00	5	Humedad	35
107381	7	Sololá	713	San Lucas Tolimán	10	San Lucas Tolimán	2	Febrero	2023-02-17T00:00:00	2024-11-08T16:00:00	6	Velocidad del viento	17.7
107382	7	Sololá	713	San Lucas Tolimán	10	San Lucas Tolimán	2	Febrero	2023-02-17T00:00:00	2024-11-08T16:00:00	7	Dirección del viento	17.7
107383	7	Sololá	713	San Lucas Tolimán	10	San Lucas Tolimán	2	Febrero	2023-02-17T00:00:00	2024-11-08T16:00:00	1	Precipitación	0
107384	7	Sololá	713	San Lucas Tolimán	10	San Lucas Tolimán	2	Febrero	2023-02-17T00:00:00	2024-11-08T16:00:00	8	Radiación solar	502
107385	7	Sololá	713	San Lucas Tolimán	10	San Lucas Tolimán	2	Febrero	2023-02-17T00:00:00	2024-11-08T17:00:00	2	Temperatura media	22.1
107386	7	Sololá	713	San Lucas Tolimán	10	San Lucas Tolimán	2	Febrero	2023-02-17T00:00:00	2024-11-08T17:00:00	4	Temperatura máxima	23.4
107387	7	Sololá	713	San Lucas Tolimán	10	San Lucas Tolimán	2	Febrero	2023-02-17T00:00:00	2024-11-08T17:00:00	3	Temperatura mínima	22.1
107388	7	Sololá	713	San Lucas Tolimán	10	San Lucas Tolimán	2	Febrero	2023-02-17T00:00:00	2024-11-08T17:00:00	5	Humedad	37
107389	7	Sololá	713	San Lucas Tolimán	10	San Lucas Tolimán	2	Febrero	2023-02-17T00:00:00	2024-11-08T17:00:00	6	Velocidad del viento	19.3
107390	7	Sololá	713	San Lucas Tolimán	10	San Lucas Tolimán	2	Febrero	2023-02-17T00:00:00	2024-11-08T17:00:00	7	Dirección del viento	19.31
107391	7	Sololá	713	San Lucas Tolimán	10	San Lucas Tolimán	2	Febrero	2023-02-17T00:00:00	2024-11-08T17:00:00	1	Precipitación	0
107392	7	Sololá	713	San Lucas Tolimán	10	San Lucas Tolimán	2	Febrero	2023-02-17T00:00:00	2024-11-08T17:00:00	8	Radiación solar	118
107393	7	Sololá	713	San Lucas Tolimán	10	San Lucas Tolimán	2	Febrero	2023-02-17T00:00:00	2024-11-08T18:00:00	2	Temperatura media	20.8
107394	7	Sololá	713	San Lucas Tolimán	10	San Lucas Tolimán	2	Febrero	2023-02-17T00:00:00	2024-11-08T18:00:00	4	Temperatura máxima	22.1
107395	7	Sololá	713	San Lucas Tolimán	10	San Lucas Tolimán	2	Febrero	2023-02-17T00:00:00	2024-11-08T18:00:00	3	Temperatura mínima	20.8
107396	7	Sololá	713	San Lucas Tolimán	10	San Lucas Tolimán	2	Febrero	2023-02-17T00:00:00	2024-11-08T18:00:00	5	Humedad	39
107397	7	Sololá	713	San Lucas Tolimán	10	San Lucas Tolimán	2	Febrero	2023-02-17T00:00:00	2024-11-08T18:00:00	6	Velocidad del viento	20.9
107398	7	Sololá	713	San Lucas Tolimán	10	San Lucas Tolimán	2	Febrero	2023-02-17T00:00:00	2024-11-08T18:00:00	7	Dirección del viento	20.92
107399	7	Sololá	713	San Lucas Tolimán	10	San Lucas Tolimán	2	Febrero	2023-02-17T00:00:00	2024-11-08T18:00:00	1	Precipitación	0
107400	7	Sololá	713	San Lucas Tolimán	10	San Lucas Tolimán	2	Febrero	2023-02-17T00:00:00	2024-11-08T18:00:00	8	Radiación solar	39
107401	7	Sololá	713	San Lucas Tolimán	10	San Lucas Tolimán	2	Febrero	2023-02-17T00:00:00	2024-11-08T19:00:00	2	Temperatura media	19.4
107402	7	Sololá	713	San Lucas Tolimán	10	San Lucas Tolimán	2	Febrero	2023-02-17T00:00:00	2024-11-08T19:00:00	4	Temperatura máxima	20.8
107403	7	Sololá	713	San Lucas Tolimán	10	San Lucas Tolimán	2	Febrero	2023-02-17T00:00:00	2024-11-08T19:00:00	3	Temperatura mínima	19.4
107404	7	Sololá	713	San Lucas Tolimán	10	San Lucas Tolimán	2	Febrero	2023-02-17T00:00:00	2024-11-08T19:00:00	5	Humedad	43
107405	7	Sololá	713	San Lucas Tolimán	10	San Lucas Tolimán	2	Febrero	2023-02-17T00:00:00	2024-11-08T19:00:00	6	Velocidad del viento	22.5
107406	7	Sololá	713	San Lucas Tolimán	10	San Lucas Tolimán	2	Febrero	2023-02-17T00:00:00	2024-11-08T19:00:00	7	Dirección del viento	22.53
107407	7	Sololá	713	San Lucas Tolimán	10	San Lucas Tolimán	2	Febrero	2023-02-17T00:00:00	2024-11-08T19:00:00	1	Precipitación	0
107408	7	Sololá	713	San Lucas Tolimán	10	San Lucas Tolimán	2	Febrero	2023-02-17T00:00:00	2024-11-08T19:00:00	8	Radiación solar	0
107409	7	Sololá	713	San Lucas Tolimán	10	San Lucas Tolimán	2	Febrero	2023-02-17T00:00:00	2024-11-08T20:00:00	2	Temperatura media	19.1
107410	7	Sololá	713	San Lucas Tolimán	10	San Lucas Tolimán	2	Febrero	2023-02-17T00:00:00	2024-11-08T20:00:00	4	Temperatura máxima	19.4
107411	7	Sololá	713	San Lucas Tolimán	10	San Lucas Tolimán	2	Febrero	2023-02-17T00:00:00	2024-11-08T20:00:00	3	Temperatura mínima	19.1
107412	7	Sololá	713	San Lucas Tolimán	10	San Lucas Tolimán	2	Febrero	2023-02-17T00:00:00	2024-11-08T20:00:00	5	Humedad	45
107413	7	Sololá	713	San Lucas Tolimán	10	San Lucas Tolimán	2	Febrero	2023-02-17T00:00:00	2024-11-08T20:00:00	6	Velocidad del viento	17.7
107414	7	Sololá	713	San Lucas Tolimán	10	San Lucas Tolimán	2	Febrero	2023-02-17T00:00:00	2024-11-08T20:00:00	7	Dirección del viento	17.7
107415	7	Sololá	713	San Lucas Tolimán	10	San Lucas Tolimán	2	Febrero	2023-02-17T00:00:00	2024-11-08T20:00:00	1	Precipitación	0
107416	7	Sololá	713	San Lucas Tolimán	10	San Lucas Tolimán	2	Febrero	2023-02-17T00:00:00	2024-11-08T20:00:00	8	Radiación solar	0
107417	7	Sololá	713	San Lucas Tolimán	10	San Lucas Tolimán	2	Febrero	2023-02-17T00:00:00	2024-11-08T21:00:00	2	Temperatura media	18.8
107418	7	Sololá	713	San Lucas Tolimán	10	San Lucas Tolimán	2	Febrero	2023-02-17T00:00:00	2024-11-08T21:00:00	4	Temperatura máxima	19.3
107419	7	Sololá	713	San Lucas Tolimán	10	San Lucas Tolimán	2	Febrero	2023-02-17T00:00:00	2024-11-08T21:00:00	3	Temperatura mínima	18.8
107420	7	Sololá	713	San Lucas Tolimán	10	San Lucas Tolimán	2	Febrero	2023-02-17T00:00:00	2024-11-08T21:00:00	5	Humedad	47
107421	7	Sololá	713	San Lucas Tolimán	10	San Lucas Tolimán	2	Febrero	2023-02-17T00:00:00	2024-11-08T21:00:00	6	Velocidad del viento	20.9
107422	7	Sololá	713	San Lucas Tolimán	10	San Lucas Tolimán	2	Febrero	2023-02-17T00:00:00	2024-11-08T21:00:00	7	Dirección del viento	20.92
107423	7	Sololá	713	San Lucas Tolimán	10	San Lucas Tolimán	2	Febrero	2023-02-17T00:00:00	2024-11-08T21:00:00	1	Precipitación	0
107424	7	Sololá	713	San Lucas Tolimán	10	San Lucas Tolimán	2	Febrero	2023-02-17T00:00:00	2024-11-08T21:00:00	8	Radiación solar	0
107425	7	Sololá	713	San Lucas Tolimán	10	San Lucas Tolimán	2	Febrero	2023-02-17T00:00:00	2024-11-08T22:00:00	2	Temperatura media	18.8
107426	7	Sololá	713	San Lucas Tolimán	10	San Lucas Tolimán	2	Febrero	2023-02-17T00:00:00	2024-11-08T22:00:00	4	Temperatura máxima	19.1
107427	7	Sololá	713	San Lucas Tolimán	10	San Lucas Tolimán	2	Febrero	2023-02-17T00:00:00	2024-11-08T22:00:00	3	Temperatura mínima	18.7
107428	7	Sololá	713	San Lucas Tolimán	10	San Lucas Tolimán	2	Febrero	2023-02-17T00:00:00	2024-11-08T22:00:00	5	Humedad	48
107429	7	Sololá	713	San Lucas Tolimán	10	San Lucas Tolimán	2	Febrero	2023-02-17T00:00:00	2024-11-08T22:00:00	6	Velocidad del viento	16.1
107430	7	Sololá	713	San Lucas Tolimán	10	San Lucas Tolimán	2	Febrero	2023-02-17T00:00:00	2024-11-08T22:00:00	7	Dirección del viento	16.09
107431	7	Sololá	713	San Lucas Tolimán	10	San Lucas Tolimán	2	Febrero	2023-02-17T00:00:00	2024-11-08T22:00:00	1	Precipitación	0
107432	7	Sololá	713	San Lucas Tolimán	10	San Lucas Tolimán	2	Febrero	2023-02-17T00:00:00	2024-11-08T22:00:00	8	Radiación solar	0
107433	7	Sololá	713	San Lucas Tolimán	10	San Lucas Tolimán	2	Febrero	2023-02-17T00:00:00	2024-11-08T23:00:00	2	Temperatura media	18.8
107434	7	Sololá	713	San Lucas Tolimán	10	San Lucas Tolimán	2	Febrero	2023-02-17T00:00:00	2024-11-08T23:00:00	4	Temperatura máxima	18.9
107435	7	Sololá	713	San Lucas Tolimán	10	San Lucas Tolimán	2	Febrero	2023-02-17T00:00:00	2024-11-08T23:00:00	3	Temperatura mínima	18.6
107436	7	Sololá	713	San Lucas Tolimán	10	San Lucas Tolimán	2	Febrero	2023-02-17T00:00:00	2024-11-08T23:00:00	5	Humedad	51
107437	7	Sololá	713	San Lucas Tolimán	10	San Lucas Tolimán	2	Febrero	2023-02-17T00:00:00	2024-11-08T23:00:00	6	Velocidad del viento	17.7
107438	7	Sololá	713	San Lucas Tolimán	10	San Lucas Tolimán	2	Febrero	2023-02-17T00:00:00	2024-11-08T23:00:00	7	Dirección del viento	17.7
107439	7	Sololá	713	San Lucas Tolimán	10	San Lucas Tolimán	2	Febrero	2023-02-17T00:00:00	2024-11-08T23:00:00	1	Precipitación	0
107440	7	Sololá	713	San Lucas Tolimán	10	San Lucas Tolimán	2	Febrero	2023-02-17T00:00:00	2024-11-08T23:00:00	8	Radiación solar	0
107441	7	Sololá	713	San Lucas Tolimán	10	San Lucas Tolimán	2	Febrero	2023-02-18T00:00:00	2024-11-08T00:00:00	2	Temperatura media	18.7
107442	7	Sololá	713	San Lucas Tolimán	10	San Lucas Tolimán	2	Febrero	2023-02-18T00:00:00	2024-11-08T00:00:00	4	Temperatura máxima	19
107443	7	Sololá	713	San Lucas Tolimán	10	San Lucas Tolimán	2	Febrero	2023-02-18T00:00:00	2024-11-08T00:00:00	3	Temperatura mínima	18.7
107444	7	Sololá	713	San Lucas Tolimán	10	San Lucas Tolimán	2	Febrero	2023-02-18T00:00:00	2024-11-08T00:00:00	5	Humedad	53
107445	7	Sololá	713	San Lucas Tolimán	10	San Lucas Tolimán	2	Febrero	2023-02-18T00:00:00	2024-11-08T00:00:00	6	Velocidad del viento	19.3
107446	7	Sololá	713	San Lucas Tolimán	10	San Lucas Tolimán	2	Febrero	2023-02-18T00:00:00	2024-11-08T00:00:00	7	Dirección del viento	19.31
107447	7	Sololá	713	San Lucas Tolimán	10	San Lucas Tolimán	2	Febrero	2023-02-18T00:00:00	2024-11-08T00:00:00	1	Precipitación	0
107448	7	Sololá	713	San Lucas Tolimán	10	San Lucas Tolimán	2	Febrero	2023-02-18T00:00:00	2024-11-08T00:00:00	8	Radiación solar	0
107449	7	Sololá	713	San Lucas Tolimán	10	San Lucas Tolimán	2	Febrero	2023-02-18T00:00:00	2024-11-08T01:00:00	2	Temperatura media	18.9
107450	7	Sololá	713	San Lucas Tolimán	10	San Lucas Tolimán	2	Febrero	2023-02-18T00:00:00	2024-11-08T01:00:00	4	Temperatura máxima	19.1
107451	7	Sololá	713	San Lucas Tolimán	10	San Lucas Tolimán	2	Febrero	2023-02-18T00:00:00	2024-11-08T01:00:00	3	Temperatura mínima	18.7
107452	7	Sololá	713	San Lucas Tolimán	10	San Lucas Tolimán	2	Febrero	2023-02-18T00:00:00	2024-11-08T01:00:00	5	Humedad	53
107453	7	Sololá	713	San Lucas Tolimán	10	San Lucas Tolimán	2	Febrero	2023-02-18T00:00:00	2024-11-08T01:00:00	6	Velocidad del viento	20.9
107454	7	Sololá	713	San Lucas Tolimán	10	San Lucas Tolimán	2	Febrero	2023-02-18T00:00:00	2024-11-08T01:00:00	7	Dirección del viento	20.92
107455	7	Sololá	713	San Lucas Tolimán	10	San Lucas Tolimán	2	Febrero	2023-02-18T00:00:00	2024-11-08T01:00:00	1	Precipitación	0
107456	7	Sololá	713	San Lucas Tolimán	10	San Lucas Tolimán	2	Febrero	2023-02-18T00:00:00	2024-11-08T01:00:00	8	Radiación solar	0
107457	7	Sololá	713	San Lucas Tolimán	10	San Lucas Tolimán	2	Febrero	2023-02-18T00:00:00	2024-11-08T02:00:00	2	Temperatura media	18.8
107458	7	Sololá	713	San Lucas Tolimán	10	San Lucas Tolimán	2	Febrero	2023-02-18T00:00:00	2024-11-08T02:00:00	4	Temperatura máxima	19
107459	7	Sololá	713	San Lucas Tolimán	10	San Lucas Tolimán	2	Febrero	2023-02-18T00:00:00	2024-11-08T02:00:00	3	Temperatura mínima	18.7
107460	7	Sololá	713	San Lucas Tolimán	10	San Lucas Tolimán	2	Febrero	2023-02-18T00:00:00	2024-11-08T02:00:00	5	Humedad	53
107461	7	Sololá	713	San Lucas Tolimán	10	San Lucas Tolimán	2	Febrero	2023-02-18T00:00:00	2024-11-08T02:00:00	6	Velocidad del viento	20.9
107462	7	Sololá	713	San Lucas Tolimán	10	San Lucas Tolimán	2	Febrero	2023-02-18T00:00:00	2024-11-08T02:00:00	7	Dirección del viento	20.92
107463	7	Sololá	713	San Lucas Tolimán	10	San Lucas Tolimán	2	Febrero	2023-02-18T00:00:00	2024-11-08T02:00:00	1	Precipitación	0
107464	7	Sololá	713	San Lucas Tolimán	10	San Lucas Tolimán	2	Febrero	2023-02-18T00:00:00	2024-11-08T02:00:00	8	Radiación solar	0
107465	7	Sololá	713	San Lucas Tolimán	10	San Lucas Tolimán	2	Febrero	2023-02-18T00:00:00	2024-11-08T03:00:00	2	Temperatura media	18.5
107466	7	Sololá	713	San Lucas Tolimán	10	San Lucas Tolimán	2	Febrero	2023-02-18T00:00:00	2024-11-08T03:00:00	4	Temperatura máxima	18.8
107467	7	Sololá	713	San Lucas Tolimán	10	San Lucas Tolimán	2	Febrero	2023-02-18T00:00:00	2024-11-08T03:00:00	3	Temperatura mínima	18.4
107468	7	Sololá	713	San Lucas Tolimán	10	San Lucas Tolimán	2	Febrero	2023-02-18T00:00:00	2024-11-08T03:00:00	5	Humedad	50
107469	7	Sololá	713	San Lucas Tolimán	10	San Lucas Tolimán	2	Febrero	2023-02-18T00:00:00	2024-11-08T03:00:00	6	Velocidad del viento	24.1
107470	7	Sololá	713	San Lucas Tolimán	10	San Lucas Tolimán	2	Febrero	2023-02-18T00:00:00	2024-11-08T03:00:00	7	Dirección del viento	24.14
107471	7	Sololá	713	San Lucas Tolimán	10	San Lucas Tolimán	2	Febrero	2023-02-18T00:00:00	2024-11-08T03:00:00	1	Precipitación	0
107472	7	Sololá	713	San Lucas Tolimán	10	San Lucas Tolimán	2	Febrero	2023-02-18T00:00:00	2024-11-08T03:00:00	8	Radiación solar	0
107473	7	Sololá	713	San Lucas Tolimán	10	San Lucas Tolimán	2	Febrero	2023-02-18T00:00:00	2024-11-08T04:00:00	2	Temperatura media	17.9
107474	7	Sololá	713	San Lucas Tolimán	10	San Lucas Tolimán	2	Febrero	2023-02-18T00:00:00	2024-11-08T04:00:00	4	Temperatura máxima	18.5
107475	7	Sololá	713	San Lucas Tolimán	10	San Lucas Tolimán	2	Febrero	2023-02-18T00:00:00	2024-11-08T04:00:00	3	Temperatura mínima	17.9
107476	7	Sololá	713	San Lucas Tolimán	10	San Lucas Tolimán	2	Febrero	2023-02-18T00:00:00	2024-11-08T04:00:00	5	Humedad	47
107477	7	Sololá	713	San Lucas Tolimán	10	San Lucas Tolimán	2	Febrero	2023-02-18T00:00:00	2024-11-08T04:00:00	6	Velocidad del viento	25.7
107478	7	Sololá	713	San Lucas Tolimán	10	San Lucas Tolimán	2	Febrero	2023-02-18T00:00:00	2024-11-08T04:00:00	7	Dirección del viento	25.75
107479	7	Sololá	713	San Lucas Tolimán	10	San Lucas Tolimán	2	Febrero	2023-02-18T00:00:00	2024-11-08T04:00:00	1	Precipitación	0
107480	7	Sololá	713	San Lucas Tolimán	10	San Lucas Tolimán	2	Febrero	2023-02-18T00:00:00	2024-11-08T04:00:00	8	Radiación solar	0
107481	7	Sololá	713	San Lucas Tolimán	10	San Lucas Tolimán	2	Febrero	2023-02-18T00:00:00	2024-11-08T05:00:00	2	Temperatura media	17.4
107482	7	Sololá	713	San Lucas Tolimán	10	San Lucas Tolimán	2	Febrero	2023-02-18T00:00:00	2024-11-08T05:00:00	4	Temperatura máxima	17.9
107483	7	Sololá	713	San Lucas Tolimán	10	San Lucas Tolimán	2	Febrero	2023-02-18T00:00:00	2024-11-08T05:00:00	3	Temperatura mínima	17.4
107484	7	Sololá	713	San Lucas Tolimán	10	San Lucas Tolimán	2	Febrero	2023-02-18T00:00:00	2024-11-08T05:00:00	5	Humedad	48
107485	7	Sololá	713	San Lucas Tolimán	10	San Lucas Tolimán	2	Febrero	2023-02-18T00:00:00	2024-11-08T05:00:00	6	Velocidad del viento	22.5
107486	7	Sololá	713	San Lucas Tolimán	10	San Lucas Tolimán	2	Febrero	2023-02-18T00:00:00	2024-11-08T05:00:00	7	Dirección del viento	22.53
107487	7	Sololá	713	San Lucas Tolimán	10	San Lucas Tolimán	2	Febrero	2023-02-18T00:00:00	2024-11-08T05:00:00	1	Precipitación	0
107488	7	Sololá	713	San Lucas Tolimán	10	San Lucas Tolimán	2	Febrero	2023-02-18T00:00:00	2024-11-08T05:00:00	8	Radiación solar	0
107489	7	Sololá	713	San Lucas Tolimán	10	San Lucas Tolimán	2	Febrero	2023-02-18T00:00:00	2024-11-08T06:00:00	2	Temperatura media	17.1
107490	7	Sololá	713	San Lucas Tolimán	10	San Lucas Tolimán	2	Febrero	2023-02-18T00:00:00	2024-11-08T06:00:00	4	Temperatura máxima	17.6
107491	7	Sololá	713	San Lucas Tolimán	10	San Lucas Tolimán	2	Febrero	2023-02-18T00:00:00	2024-11-08T06:00:00	3	Temperatura mínima	17.1
107492	7	Sololá	713	San Lucas Tolimán	10	San Lucas Tolimán	2	Febrero	2023-02-18T00:00:00	2024-11-08T06:00:00	5	Humedad	48
107493	7	Sololá	713	San Lucas Tolimán	10	San Lucas Tolimán	2	Febrero	2023-02-18T00:00:00	2024-11-08T06:00:00	6	Velocidad del viento	17.7
107494	7	Sololá	713	San Lucas Tolimán	10	San Lucas Tolimán	2	Febrero	2023-02-18T00:00:00	2024-11-08T06:00:00	7	Dirección del viento	17.7
107495	7	Sololá	713	San Lucas Tolimán	10	San Lucas Tolimán	2	Febrero	2023-02-18T00:00:00	2024-11-08T06:00:00	1	Precipitación	0
107496	7	Sololá	713	San Lucas Tolimán	10	San Lucas Tolimán	2	Febrero	2023-02-18T00:00:00	2024-11-08T06:00:00	8	Radiación solar	0
107497	7	Sololá	713	San Lucas Tolimán	10	San Lucas Tolimán	2	Febrero	2023-02-18T00:00:00	2024-11-08T07:00:00	2	Temperatura media	16.9
107498	7	Sololá	713	San Lucas Tolimán	10	San Lucas Tolimán	2	Febrero	2023-02-18T00:00:00	2024-11-08T07:00:00	4	Temperatura máxima	17.2
107499	7	Sololá	713	San Lucas Tolimán	10	San Lucas Tolimán	2	Febrero	2023-02-18T00:00:00	2024-11-08T07:00:00	3	Temperatura mínima	16.8
107500	7	Sololá	713	San Lucas Tolimán	10	San Lucas Tolimán	2	Febrero	2023-02-18T00:00:00	2024-11-08T07:00:00	5	Humedad	45
107501	7	Sololá	713	San Lucas Tolimán	10	San Lucas Tolimán	2	Febrero	2023-02-18T00:00:00	2024-11-08T07:00:00	6	Velocidad del viento	19.3
107502	7	Sololá	713	San Lucas Tolimán	10	San Lucas Tolimán	2	Febrero	2023-02-18T00:00:00	2024-11-08T07:00:00	7	Dirección del viento	19.31
107503	7	Sololá	713	San Lucas Tolimán	10	San Lucas Tolimán	2	Febrero	2023-02-18T00:00:00	2024-11-08T07:00:00	1	Precipitación	0
107504	7	Sololá	713	San Lucas Tolimán	10	San Lucas Tolimán	2	Febrero	2023-02-18T00:00:00	2024-11-08T07:00:00	8	Radiación solar	6
107505	7	Sololá	713	San Lucas Tolimán	10	San Lucas Tolimán	2	Febrero	2023-02-18T00:00:00	2024-11-08T08:00:00	2	Temperatura media	17.7
107506	7	Sololá	713	San Lucas Tolimán	10	San Lucas Tolimán	2	Febrero	2023-02-18T00:00:00	2024-11-08T08:00:00	4	Temperatura máxima	17.7
107507	7	Sololá	713	San Lucas Tolimán	10	San Lucas Tolimán	2	Febrero	2023-02-18T00:00:00	2024-11-08T08:00:00	3	Temperatura mínima	16.8
107508	7	Sololá	713	San Lucas Tolimán	10	San Lucas Tolimán	2	Febrero	2023-02-18T00:00:00	2024-11-08T08:00:00	5	Humedad	44
107509	7	Sololá	713	San Lucas Tolimán	10	San Lucas Tolimán	2	Febrero	2023-02-18T00:00:00	2024-11-08T08:00:00	6	Velocidad del viento	19.3
107510	7	Sololá	713	San Lucas Tolimán	10	San Lucas Tolimán	2	Febrero	2023-02-18T00:00:00	2024-11-08T08:00:00	7	Dirección del viento	19.31
107511	7	Sololá	713	San Lucas Tolimán	10	San Lucas Tolimán	2	Febrero	2023-02-18T00:00:00	2024-11-08T08:00:00	1	Precipitación	0
107512	7	Sololá	713	San Lucas Tolimán	10	San Lucas Tolimán	2	Febrero	2023-02-18T00:00:00	2024-11-08T08:00:00	8	Radiación solar	48
107513	7	Sololá	713	San Lucas Tolimán	10	San Lucas Tolimán	2	Febrero	2023-02-18T00:00:00	2024-11-08T09:00:00	2	Temperatura media	19.6
107514	7	Sololá	713	San Lucas Tolimán	10	San Lucas Tolimán	2	Febrero	2023-02-18T00:00:00	2024-11-08T09:00:00	4	Temperatura máxima	19.6
107515	7	Sololá	713	San Lucas Tolimán	10	San Lucas Tolimán	2	Febrero	2023-02-18T00:00:00	2024-11-08T09:00:00	3	Temperatura mínima	17.8
107516	7	Sololá	713	San Lucas Tolimán	10	San Lucas Tolimán	2	Febrero	2023-02-18T00:00:00	2024-11-08T09:00:00	5	Humedad	43
107517	7	Sololá	713	San Lucas Tolimán	10	San Lucas Tolimán	2	Febrero	2023-02-18T00:00:00	2024-11-08T09:00:00	6	Velocidad del viento	19.3
107518	7	Sololá	713	San Lucas Tolimán	10	San Lucas Tolimán	2	Febrero	2023-02-18T00:00:00	2024-11-08T09:00:00	7	Dirección del viento	19.31
107519	7	Sololá	713	San Lucas Tolimán	10	San Lucas Tolimán	2	Febrero	2023-02-18T00:00:00	2024-11-08T09:00:00	1	Precipitación	0
107520	7	Sololá	713	San Lucas Tolimán	10	San Lucas Tolimán	2	Febrero	2023-02-18T00:00:00	2024-11-08T09:00:00	8	Radiación solar	485
107521	7	Sololá	713	San Lucas Tolimán	10	San Lucas Tolimán	2	Febrero	2023-02-18T00:00:00	2024-11-08T10:00:00	2	Temperatura media	19.9
107522	7	Sololá	713	San Lucas Tolimán	10	San Lucas Tolimán	2	Febrero	2023-02-18T00:00:00	2024-11-08T10:00:00	4	Temperatura máxima	20.2
107523	7	Sololá	713	San Lucas Tolimán	10	San Lucas Tolimán	2	Febrero	2023-02-18T00:00:00	2024-11-08T10:00:00	3	Temperatura mínima	19.6
107524	7	Sololá	713	San Lucas Tolimán	10	San Lucas Tolimán	2	Febrero	2023-02-18T00:00:00	2024-11-08T10:00:00	5	Humedad	45
107525	7	Sololá	713	San Lucas Tolimán	10	San Lucas Tolimán	2	Febrero	2023-02-18T00:00:00	2024-11-08T10:00:00	6	Velocidad del viento	19.3
107526	7	Sololá	713	San Lucas Tolimán	10	San Lucas Tolimán	2	Febrero	2023-02-18T00:00:00	2024-11-08T10:00:00	7	Dirección del viento	19.31
107527	7	Sololá	713	San Lucas Tolimán	10	San Lucas Tolimán	2	Febrero	2023-02-18T00:00:00	2024-11-08T10:00:00	1	Precipitación	0
107528	7	Sololá	713	San Lucas Tolimán	10	San Lucas Tolimán	2	Febrero	2023-02-18T00:00:00	2024-11-08T10:00:00	8	Radiación solar	661
107529	7	Sololá	713	San Lucas Tolimán	10	San Lucas Tolimán	2	Febrero	2023-02-18T00:00:00	2024-11-08T11:00:00	2	Temperatura media	20.4
107530	7	Sololá	713	San Lucas Tolimán	10	San Lucas Tolimán	2	Febrero	2023-02-18T00:00:00	2024-11-08T11:00:00	4	Temperatura máxima	20.7
107531	7	Sololá	713	San Lucas Tolimán	10	San Lucas Tolimán	2	Febrero	2023-02-18T00:00:00	2024-11-08T11:00:00	3	Temperatura mínima	19.7
107532	7	Sololá	713	San Lucas Tolimán	10	San Lucas Tolimán	2	Febrero	2023-02-18T00:00:00	2024-11-08T11:00:00	5	Humedad	46
107533	7	Sololá	713	San Lucas Tolimán	10	San Lucas Tolimán	2	Febrero	2023-02-18T00:00:00	2024-11-08T11:00:00	6	Velocidad del viento	20.9
107534	7	Sololá	713	San Lucas Tolimán	10	San Lucas Tolimán	2	Febrero	2023-02-18T00:00:00	2024-11-08T11:00:00	7	Dirección del viento	20.92
107535	7	Sololá	713	San Lucas Tolimán	10	San Lucas Tolimán	2	Febrero	2023-02-18T00:00:00	2024-11-08T11:00:00	1	Precipitación	0
107536	7	Sololá	713	San Lucas Tolimán	10	San Lucas Tolimán	2	Febrero	2023-02-18T00:00:00	2024-11-08T11:00:00	8	Radiación solar	836
107537	7	Sololá	713	San Lucas Tolimán	10	San Lucas Tolimán	2	Febrero	2023-02-18T00:00:00	2024-11-08T12:00:00	2	Temperatura media	21.4
107538	7	Sololá	713	San Lucas Tolimán	10	San Lucas Tolimán	2	Febrero	2023-02-18T00:00:00	2024-11-08T12:00:00	4	Temperatura máxima	21.7
107539	7	Sololá	713	San Lucas Tolimán	10	San Lucas Tolimán	2	Febrero	2023-02-18T00:00:00	2024-11-08T12:00:00	3	Temperatura mínima	20.2
107540	7	Sololá	713	San Lucas Tolimán	10	San Lucas Tolimán	2	Febrero	2023-02-18T00:00:00	2024-11-08T12:00:00	5	Humedad	44
107541	7	Sololá	713	San Lucas Tolimán	10	San Lucas Tolimán	2	Febrero	2023-02-18T00:00:00	2024-11-08T12:00:00	6	Velocidad del viento	20.9
107542	7	Sololá	713	San Lucas Tolimán	10	San Lucas Tolimán	2	Febrero	2023-02-18T00:00:00	2024-11-08T12:00:00	7	Dirección del viento	20.92
107543	7	Sololá	713	San Lucas Tolimán	10	San Lucas Tolimán	2	Febrero	2023-02-18T00:00:00	2024-11-08T12:00:00	1	Precipitación	0
107544	7	Sololá	713	San Lucas Tolimán	10	San Lucas Tolimán	2	Febrero	2023-02-18T00:00:00	2024-11-08T12:00:00	8	Radiación solar	897
107545	7	Sololá	713	San Lucas Tolimán	10	San Lucas Tolimán	2	Febrero	2023-02-18T00:00:00	2024-11-08T13:00:00	2	Temperatura media	21.6
107546	7	Sololá	713	San Lucas Tolimán	10	San Lucas Tolimán	2	Febrero	2023-02-18T00:00:00	2024-11-08T13:00:00	4	Temperatura máxima	22.2
107547	7	Sololá	713	San Lucas Tolimán	10	San Lucas Tolimán	2	Febrero	2023-02-18T00:00:00	2024-11-08T13:00:00	3	Temperatura mínima	21.2
107548	7	Sololá	713	San Lucas Tolimán	10	San Lucas Tolimán	2	Febrero	2023-02-18T00:00:00	2024-11-08T13:00:00	5	Humedad	44
107549	7	Sololá	713	San Lucas Tolimán	10	San Lucas Tolimán	2	Febrero	2023-02-18T00:00:00	2024-11-08T13:00:00	6	Velocidad del viento	14.5
107550	7	Sololá	713	San Lucas Tolimán	10	San Lucas Tolimán	2	Febrero	2023-02-18T00:00:00	2024-11-08T13:00:00	7	Dirección del viento	14.48
107551	7	Sololá	713	San Lucas Tolimán	10	San Lucas Tolimán	2	Febrero	2023-02-18T00:00:00	2024-11-08T13:00:00	1	Precipitación	0
107552	7	Sololá	713	San Lucas Tolimán	10	San Lucas Tolimán	2	Febrero	2023-02-18T00:00:00	2024-11-08T13:00:00	8	Radiación solar	698
107553	7	Sololá	713	San Lucas Tolimán	10	San Lucas Tolimán	2	Febrero	2023-02-18T00:00:00	2024-11-08T14:00:00	2	Temperatura media	22.3
107554	7	Sololá	713	San Lucas Tolimán	10	San Lucas Tolimán	2	Febrero	2023-02-18T00:00:00	2024-11-08T14:00:00	4	Temperatura máxima	22.6
107555	7	Sololá	713	San Lucas Tolimán	10	San Lucas Tolimán	2	Febrero	2023-02-18T00:00:00	2024-11-08T14:00:00	3	Temperatura mínima	21.4
107556	7	Sololá	713	San Lucas Tolimán	10	San Lucas Tolimán	2	Febrero	2023-02-18T00:00:00	2024-11-08T14:00:00	5	Humedad	43
107557	7	Sololá	713	San Lucas Tolimán	10	San Lucas Tolimán	2	Febrero	2023-02-18T00:00:00	2024-11-08T14:00:00	6	Velocidad del viento	12.9
107558	7	Sololá	713	San Lucas Tolimán	10	San Lucas Tolimán	2	Febrero	2023-02-18T00:00:00	2024-11-08T14:00:00	7	Dirección del viento	12.87
107559	7	Sololá	713	San Lucas Tolimán	10	San Lucas Tolimán	2	Febrero	2023-02-18T00:00:00	2024-11-08T14:00:00	1	Precipitación	0
107560	7	Sololá	713	San Lucas Tolimán	10	San Lucas Tolimán	2	Febrero	2023-02-18T00:00:00	2024-11-08T14:00:00	8	Radiación solar	824
107561	7	Sololá	713	San Lucas Tolimán	10	San Lucas Tolimán	2	Febrero	2023-02-18T00:00:00	2024-11-08T15:00:00	2	Temperatura media	22.3
107562	7	Sololá	713	San Lucas Tolimán	10	San Lucas Tolimán	2	Febrero	2023-02-18T00:00:00	2024-11-08T15:00:00	4	Temperatura máxima	22.6
107563	7	Sololá	713	San Lucas Tolimán	10	San Lucas Tolimán	2	Febrero	2023-02-18T00:00:00	2024-11-08T15:00:00	3	Temperatura mínima	21.8
107564	7	Sololá	713	San Lucas Tolimán	10	San Lucas Tolimán	2	Febrero	2023-02-18T00:00:00	2024-11-08T15:00:00	5	Humedad	42
107565	7	Sololá	713	San Lucas Tolimán	10	San Lucas Tolimán	2	Febrero	2023-02-18T00:00:00	2024-11-08T15:00:00	6	Velocidad del viento	14.5
107566	7	Sololá	713	San Lucas Tolimán	10	San Lucas Tolimán	2	Febrero	2023-02-18T00:00:00	2024-11-08T15:00:00	7	Dirección del viento	14.48
107567	7	Sololá	713	San Lucas Tolimán	10	San Lucas Tolimán	2	Febrero	2023-02-18T00:00:00	2024-11-08T15:00:00	1	Precipitación	0
107568	7	Sololá	713	San Lucas Tolimán	10	San Lucas Tolimán	2	Febrero	2023-02-18T00:00:00	2024-11-08T15:00:00	8	Radiación solar	934
107569	7	Sololá	713	San Lucas Tolimán	10	San Lucas Tolimán	2	Febrero	2023-02-18T00:00:00	2024-11-08T16:00:00	2	Temperatura media	19.7
107570	7	Sololá	713	San Lucas Tolimán	10	San Lucas Tolimán	2	Febrero	2023-02-18T00:00:00	2024-11-08T16:00:00	4	Temperatura máxima	22.4
107571	7	Sololá	713	San Lucas Tolimán	10	San Lucas Tolimán	2	Febrero	2023-02-18T00:00:00	2024-11-08T16:00:00	3	Temperatura mínima	19.7
107572	7	Sololá	713	San Lucas Tolimán	10	San Lucas Tolimán	2	Febrero	2023-02-18T00:00:00	2024-11-08T16:00:00	5	Humedad	49
107573	7	Sololá	713	San Lucas Tolimán	10	San Lucas Tolimán	2	Febrero	2023-02-18T00:00:00	2024-11-08T16:00:00	6	Velocidad del viento	20.9
107574	7	Sololá	713	San Lucas Tolimán	10	San Lucas Tolimán	2	Febrero	2023-02-18T00:00:00	2024-11-08T16:00:00	7	Dirección del viento	20.92
107575	7	Sololá	713	San Lucas Tolimán	10	San Lucas Tolimán	2	Febrero	2023-02-18T00:00:00	2024-11-08T16:00:00	1	Precipitación	0
107576	7	Sololá	713	San Lucas Tolimán	10	San Lucas Tolimán	2	Febrero	2023-02-18T00:00:00	2024-11-08T16:00:00	8	Radiación solar	637
107577	7	Sololá	713	San Lucas Tolimán	10	San Lucas Tolimán	2	Febrero	2023-02-18T00:00:00	2024-11-08T17:00:00	2	Temperatura media	19.3
107578	7	Sololá	713	San Lucas Tolimán	10	San Lucas Tolimán	2	Febrero	2023-02-18T00:00:00	2024-11-08T17:00:00	4	Temperatura máxima	19.9
107579	7	Sololá	713	San Lucas Tolimán	10	San Lucas Tolimán	2	Febrero	2023-02-18T00:00:00	2024-11-08T17:00:00	3	Temperatura mínima	19.3
107580	7	Sololá	713	San Lucas Tolimán	10	San Lucas Tolimán	2	Febrero	2023-02-18T00:00:00	2024-11-08T17:00:00	5	Humedad	48
107581	7	Sololá	713	San Lucas Tolimán	10	San Lucas Tolimán	2	Febrero	2023-02-18T00:00:00	2024-11-08T17:00:00	6	Velocidad del viento	24.1
107582	7	Sololá	713	San Lucas Tolimán	10	San Lucas Tolimán	2	Febrero	2023-02-18T00:00:00	2024-11-08T17:00:00	7	Dirección del viento	24.14
107583	7	Sololá	713	San Lucas Tolimán	10	San Lucas Tolimán	2	Febrero	2023-02-18T00:00:00	2024-11-08T17:00:00	1	Precipitación	0
107584	7	Sololá	713	San Lucas Tolimán	10	San Lucas Tolimán	2	Febrero	2023-02-18T00:00:00	2024-11-08T17:00:00	8	Radiación solar	251
107585	7	Sololá	713	San Lucas Tolimán	10	San Lucas Tolimán	2	Febrero	2023-02-18T00:00:00	2024-11-08T18:00:00	2	Temperatura media	18.9
107586	7	Sololá	713	San Lucas Tolimán	10	San Lucas Tolimán	2	Febrero	2023-02-18T00:00:00	2024-11-08T18:00:00	4	Temperatura máxima	19.4
107587	7	Sololá	713	San Lucas Tolimán	10	San Lucas Tolimán	2	Febrero	2023-02-18T00:00:00	2024-11-08T18:00:00	3	Temperatura mínima	18.6
107588	7	Sololá	713	San Lucas Tolimán	10	San Lucas Tolimán	2	Febrero	2023-02-18T00:00:00	2024-11-08T18:00:00	5	Humedad	44
107589	7	Sololá	713	San Lucas Tolimán	10	San Lucas Tolimán	2	Febrero	2023-02-18T00:00:00	2024-11-08T18:00:00	6	Velocidad del viento	24.1
107590	7	Sololá	713	San Lucas Tolimán	10	San Lucas Tolimán	2	Febrero	2023-02-18T00:00:00	2024-11-08T18:00:00	7	Dirección del viento	24.14
107591	7	Sololá	713	San Lucas Tolimán	10	San Lucas Tolimán	2	Febrero	2023-02-18T00:00:00	2024-11-08T18:00:00	1	Precipitación	0
107592	7	Sololá	713	San Lucas Tolimán	10	San Lucas Tolimán	2	Febrero	2023-02-18T00:00:00	2024-11-08T18:00:00	8	Radiación solar	21
107593	7	Sololá	713	San Lucas Tolimán	10	San Lucas Tolimán	2	Febrero	2023-02-18T00:00:00	2024-11-08T19:00:00	2	Temperatura media	18.4
107594	7	Sololá	713	San Lucas Tolimán	10	San Lucas Tolimán	2	Febrero	2023-02-18T00:00:00	2024-11-08T19:00:00	4	Temperatura máxima	19.1
107595	7	Sololá	713	San Lucas Tolimán	10	San Lucas Tolimán	2	Febrero	2023-02-18T00:00:00	2024-11-08T19:00:00	3	Temperatura mínima	18.4
107596	7	Sololá	713	San Lucas Tolimán	10	San Lucas Tolimán	2	Febrero	2023-02-18T00:00:00	2024-11-08T19:00:00	5	Humedad	45
107597	7	Sololá	713	San Lucas Tolimán	10	San Lucas Tolimán	2	Febrero	2023-02-18T00:00:00	2024-11-08T19:00:00	6	Velocidad del viento	14.5
107598	7	Sololá	713	San Lucas Tolimán	10	San Lucas Tolimán	2	Febrero	2023-02-18T00:00:00	2024-11-08T19:00:00	7	Dirección del viento	14.48
107599	7	Sololá	713	San Lucas Tolimán	10	San Lucas Tolimán	2	Febrero	2023-02-18T00:00:00	2024-11-08T19:00:00	1	Precipitación	0
107600	7	Sololá	713	San Lucas Tolimán	10	San Lucas Tolimán	2	Febrero	2023-02-18T00:00:00	2024-11-08T19:00:00	8	Radiación solar	0
107601	7	Sololá	713	San Lucas Tolimán	10	San Lucas Tolimán	2	Febrero	2023-02-18T00:00:00	2024-11-08T20:00:00	2	Temperatura media	18.1
107602	7	Sololá	713	San Lucas Tolimán	10	San Lucas Tolimán	2	Febrero	2023-02-18T00:00:00	2024-11-08T20:00:00	4	Temperatura máxima	18.6
107603	7	Sololá	713	San Lucas Tolimán	10	San Lucas Tolimán	2	Febrero	2023-02-18T00:00:00	2024-11-08T20:00:00	3	Temperatura mínima	18.1
107604	7	Sololá	713	San Lucas Tolimán	10	San Lucas Tolimán	2	Febrero	2023-02-18T00:00:00	2024-11-08T20:00:00	5	Humedad	47
107605	7	Sololá	713	San Lucas Tolimán	10	San Lucas Tolimán	2	Febrero	2023-02-18T00:00:00	2024-11-08T20:00:00	6	Velocidad del viento	20.9
107606	7	Sololá	713	San Lucas Tolimán	10	San Lucas Tolimán	2	Febrero	2023-02-18T00:00:00	2024-11-08T20:00:00	7	Dirección del viento	20.92
107607	7	Sololá	713	San Lucas Tolimán	10	San Lucas Tolimán	2	Febrero	2023-02-18T00:00:00	2024-11-08T20:00:00	1	Precipitación	0
107608	7	Sololá	713	San Lucas Tolimán	10	San Lucas Tolimán	2	Febrero	2023-02-18T00:00:00	2024-11-08T20:00:00	8	Radiación solar	0
107609	7	Sololá	713	San Lucas Tolimán	10	San Lucas Tolimán	2	Febrero	2023-02-18T00:00:00	2024-11-08T21:00:00	2	Temperatura media	17.6
107610	7	Sololá	713	San Lucas Tolimán	10	San Lucas Tolimán	2	Febrero	2023-02-18T00:00:00	2024-11-08T21:00:00	4	Temperatura máxima	18.1
107611	7	Sololá	713	San Lucas Tolimán	10	San Lucas Tolimán	2	Febrero	2023-02-18T00:00:00	2024-11-08T21:00:00	3	Temperatura mínima	17.3
107612	7	Sololá	713	San Lucas Tolimán	10	San Lucas Tolimán	2	Febrero	2023-02-18T00:00:00	2024-11-08T21:00:00	5	Humedad	52
107613	7	Sololá	713	San Lucas Tolimán	10	San Lucas Tolimán	2	Febrero	2023-02-18T00:00:00	2024-11-08T21:00:00	6	Velocidad del viento	11.3
107614	7	Sololá	713	San Lucas Tolimán	10	San Lucas Tolimán	2	Febrero	2023-02-18T00:00:00	2024-11-08T21:00:00	7	Dirección del viento	11.27
107615	7	Sololá	713	San Lucas Tolimán	10	San Lucas Tolimán	2	Febrero	2023-02-18T00:00:00	2024-11-08T21:00:00	1	Precipitación	0
107616	7	Sololá	713	San Lucas Tolimán	10	San Lucas Tolimán	2	Febrero	2023-02-18T00:00:00	2024-11-08T21:00:00	8	Radiación solar	0
107617	7	Sololá	713	San Lucas Tolimán	10	San Lucas Tolimán	2	Febrero	2023-02-18T00:00:00	2024-11-08T22:00:00	2	Temperatura media	17.4
107618	7	Sololá	713	San Lucas Tolimán	10	San Lucas Tolimán	2	Febrero	2023-02-18T00:00:00	2024-11-08T22:00:00	4	Temperatura máxima	17.6
107619	7	Sololá	713	San Lucas Tolimán	10	San Lucas Tolimán	2	Febrero	2023-02-18T00:00:00	2024-11-08T22:00:00	3	Temperatura mínima	17.3
107620	7	Sololá	713	San Lucas Tolimán	10	San Lucas Tolimán	2	Febrero	2023-02-18T00:00:00	2024-11-08T22:00:00	5	Humedad	52
107621	7	Sololá	713	San Lucas Tolimán	10	San Lucas Tolimán	2	Febrero	2023-02-18T00:00:00	2024-11-08T22:00:00	6	Velocidad del viento	14.5
107622	7	Sololá	713	San Lucas Tolimán	10	San Lucas Tolimán	2	Febrero	2023-02-18T00:00:00	2024-11-08T22:00:00	7	Dirección del viento	14.48
107623	7	Sololá	713	San Lucas Tolimán	10	San Lucas Tolimán	2	Febrero	2023-02-18T00:00:00	2024-11-08T22:00:00	1	Precipitación	0
107624	7	Sololá	713	San Lucas Tolimán	10	San Lucas Tolimán	2	Febrero	2023-02-18T00:00:00	2024-11-08T22:00:00	8	Radiación solar	0
107625	7	Sololá	713	San Lucas Tolimán	10	San Lucas Tolimán	2	Febrero	2023-02-18T00:00:00	2024-11-08T23:00:00	2	Temperatura media	17.5
107626	7	Sololá	713	San Lucas Tolimán	10	San Lucas Tolimán	2	Febrero	2023-02-18T00:00:00	2024-11-08T23:00:00	4	Temperatura máxima	17.5
107627	7	Sololá	713	San Lucas Tolimán	10	San Lucas Tolimán	2	Febrero	2023-02-18T00:00:00	2024-11-08T23:00:00	3	Temperatura mínima	16.9
107628	7	Sololá	713	San Lucas Tolimán	10	San Lucas Tolimán	2	Febrero	2023-02-18T00:00:00	2024-11-08T23:00:00	5	Humedad	53
107629	7	Sololá	713	San Lucas Tolimán	10	San Lucas Tolimán	2	Febrero	2023-02-18T00:00:00	2024-11-08T23:00:00	6	Velocidad del viento	16.1
107630	7	Sololá	713	San Lucas Tolimán	10	San Lucas Tolimán	2	Febrero	2023-02-18T00:00:00	2024-11-08T23:00:00	7	Dirección del viento	16.09
107631	7	Sololá	713	San Lucas Tolimán	10	San Lucas Tolimán	2	Febrero	2023-02-18T00:00:00	2024-11-08T23:00:00	1	Precipitación	0
107632	7	Sololá	713	San Lucas Tolimán	10	San Lucas Tolimán	2	Febrero	2023-02-18T00:00:00	2024-11-08T23:00:00	8	Radiación solar	0
107633	7	Sololá	713	San Lucas Tolimán	10	San Lucas Tolimán	2	Febrero	2023-02-19T00:00:00	2024-11-08T00:00:00	2	Temperatura media	17.3
107634	7	Sololá	713	San Lucas Tolimán	10	San Lucas Tolimán	2	Febrero	2023-02-19T00:00:00	2024-11-08T00:00:00	4	Temperatura máxima	17.5
107635	7	Sololá	713	San Lucas Tolimán	10	San Lucas Tolimán	2	Febrero	2023-02-19T00:00:00	2024-11-08T00:00:00	3	Temperatura mínima	17
107636	7	Sololá	713	San Lucas Tolimán	10	San Lucas Tolimán	2	Febrero	2023-02-19T00:00:00	2024-11-08T00:00:00	5	Humedad	55
107637	7	Sololá	713	San Lucas Tolimán	10	San Lucas Tolimán	2	Febrero	2023-02-19T00:00:00	2024-11-08T00:00:00	6	Velocidad del viento	16.1
107638	7	Sololá	713	San Lucas Tolimán	10	San Lucas Tolimán	2	Febrero	2023-02-19T00:00:00	2024-11-08T00:00:00	7	Dirección del viento	16.09
107639	7	Sololá	713	San Lucas Tolimán	10	San Lucas Tolimán	2	Febrero	2023-02-19T00:00:00	2024-11-08T00:00:00	1	Precipitación	0
107640	7	Sololá	713	San Lucas Tolimán	10	San Lucas Tolimán	2	Febrero	2023-02-19T00:00:00	2024-11-08T00:00:00	8	Radiación solar	0
107641	7	Sololá	713	San Lucas Tolimán	10	San Lucas Tolimán	2	Febrero	2023-02-19T00:00:00	2024-11-08T01:00:00	2	Temperatura media	17
107642	7	Sololá	713	San Lucas Tolimán	10	San Lucas Tolimán	2	Febrero	2023-02-19T00:00:00	2024-11-08T01:00:00	4	Temperatura máxima	17.6
107643	7	Sololá	713	San Lucas Tolimán	10	San Lucas Tolimán	2	Febrero	2023-02-19T00:00:00	2024-11-08T01:00:00	3	Temperatura mínima	17
107644	7	Sololá	713	San Lucas Tolimán	10	San Lucas Tolimán	2	Febrero	2023-02-19T00:00:00	2024-11-08T01:00:00	5	Humedad	56
107645	7	Sololá	713	San Lucas Tolimán	10	San Lucas Tolimán	2	Febrero	2023-02-19T00:00:00	2024-11-08T01:00:00	6	Velocidad del viento	16.1
107646	7	Sololá	713	San Lucas Tolimán	10	San Lucas Tolimán	2	Febrero	2023-02-19T00:00:00	2024-11-08T01:00:00	7	Dirección del viento	16.09
107647	7	Sololá	713	San Lucas Tolimán	10	San Lucas Tolimán	2	Febrero	2023-02-19T00:00:00	2024-11-08T01:00:00	1	Precipitación	0
107648	7	Sololá	713	San Lucas Tolimán	10	San Lucas Tolimán	2	Febrero	2023-02-19T00:00:00	2024-11-08T01:00:00	8	Radiación solar	0
107649	7	Sololá	713	San Lucas Tolimán	10	San Lucas Tolimán	2	Febrero	2023-02-19T00:00:00	2024-11-08T02:00:00	2	Temperatura media	17.3
107650	7	Sololá	713	San Lucas Tolimán	10	San Lucas Tolimán	2	Febrero	2023-02-19T00:00:00	2024-11-08T02:00:00	4	Temperatura máxima	17.4
107651	7	Sololá	713	San Lucas Tolimán	10	San Lucas Tolimán	2	Febrero	2023-02-19T00:00:00	2024-11-08T02:00:00	3	Temperatura mínima	16.7
107652	7	Sololá	713	San Lucas Tolimán	10	San Lucas Tolimán	2	Febrero	2023-02-19T00:00:00	2024-11-08T02:00:00	5	Humedad	55
107653	7	Sololá	713	San Lucas Tolimán	10	San Lucas Tolimán	2	Febrero	2023-02-19T00:00:00	2024-11-08T02:00:00	6	Velocidad del viento	17.7
107654	7	Sololá	713	San Lucas Tolimán	10	San Lucas Tolimán	2	Febrero	2023-02-19T00:00:00	2024-11-08T02:00:00	7	Dirección del viento	17.7
107655	7	Sololá	713	San Lucas Tolimán	10	San Lucas Tolimán	2	Febrero	2023-02-19T00:00:00	2024-11-08T02:00:00	1	Precipitación	0
107656	7	Sololá	713	San Lucas Tolimán	10	San Lucas Tolimán	2	Febrero	2023-02-19T00:00:00	2024-11-08T02:00:00	8	Radiación solar	0
107657	7	Sololá	713	San Lucas Tolimán	10	San Lucas Tolimán	2	Febrero	2023-02-19T00:00:00	2024-11-08T03:00:00	2	Temperatura media	17.1
107658	7	Sololá	713	San Lucas Tolimán	10	San Lucas Tolimán	2	Febrero	2023-02-19T00:00:00	2024-11-08T03:00:00	4	Temperatura máxima	17.3
107659	7	Sololá	713	San Lucas Tolimán	10	San Lucas Tolimán	2	Febrero	2023-02-19T00:00:00	2024-11-08T03:00:00	3	Temperatura mínima	17
107660	7	Sololá	713	San Lucas Tolimán	10	San Lucas Tolimán	2	Febrero	2023-02-19T00:00:00	2024-11-08T03:00:00	5	Humedad	56
107661	7	Sololá	713	San Lucas Tolimán	10	San Lucas Tolimán	2	Febrero	2023-02-19T00:00:00	2024-11-08T03:00:00	6	Velocidad del viento	24.1
107662	7	Sololá	713	San Lucas Tolimán	10	San Lucas Tolimán	2	Febrero	2023-02-19T00:00:00	2024-11-08T03:00:00	7	Dirección del viento	24.14
107663	7	Sololá	713	San Lucas Tolimán	10	San Lucas Tolimán	2	Febrero	2023-02-19T00:00:00	2024-11-08T03:00:00	1	Precipitación	0
107664	7	Sololá	713	San Lucas Tolimán	10	San Lucas Tolimán	2	Febrero	2023-02-19T00:00:00	2024-11-08T03:00:00	8	Radiación solar	0
107665	7	Sololá	713	San Lucas Tolimán	10	San Lucas Tolimán	2	Febrero	2023-02-19T00:00:00	2024-11-08T04:00:00	2	Temperatura media	17
107666	7	Sololá	713	San Lucas Tolimán	10	San Lucas Tolimán	2	Febrero	2023-02-19T00:00:00	2024-11-08T04:00:00	4	Temperatura máxima	17.2
107667	7	Sololá	713	San Lucas Tolimán	10	San Lucas Tolimán	2	Febrero	2023-02-19T00:00:00	2024-11-08T04:00:00	3	Temperatura mínima	16.9
107668	7	Sololá	713	San Lucas Tolimán	10	San Lucas Tolimán	2	Febrero	2023-02-19T00:00:00	2024-11-08T04:00:00	5	Humedad	56
107669	7	Sololá	713	San Lucas Tolimán	10	San Lucas Tolimán	2	Febrero	2023-02-19T00:00:00	2024-11-08T04:00:00	6	Velocidad del viento	19.3
107670	7	Sololá	713	San Lucas Tolimán	10	San Lucas Tolimán	2	Febrero	2023-02-19T00:00:00	2024-11-08T04:00:00	7	Dirección del viento	19.31
107671	7	Sololá	713	San Lucas Tolimán	10	San Lucas Tolimán	2	Febrero	2023-02-19T00:00:00	2024-11-08T04:00:00	1	Precipitación	0
107672	7	Sololá	713	San Lucas Tolimán	10	San Lucas Tolimán	2	Febrero	2023-02-19T00:00:00	2024-11-08T04:00:00	8	Radiación solar	0
107673	7	Sololá	713	San Lucas Tolimán	10	San Lucas Tolimán	2	Febrero	2023-02-19T00:00:00	2024-11-08T05:00:00	2	Temperatura media	16.7
107674	7	Sololá	713	San Lucas Tolimán	10	San Lucas Tolimán	2	Febrero	2023-02-19T00:00:00	2024-11-08T05:00:00	4	Temperatura máxima	17
107675	7	Sololá	713	San Lucas Tolimán	10	San Lucas Tolimán	2	Febrero	2023-02-19T00:00:00	2024-11-08T05:00:00	3	Temperatura mínima	16.7
107676	7	Sololá	713	San Lucas Tolimán	10	San Lucas Tolimán	2	Febrero	2023-02-19T00:00:00	2024-11-08T05:00:00	5	Humedad	57
107677	7	Sololá	713	San Lucas Tolimán	10	San Lucas Tolimán	2	Febrero	2023-02-19T00:00:00	2024-11-08T05:00:00	6	Velocidad del viento	16.1
107678	7	Sololá	713	San Lucas Tolimán	10	San Lucas Tolimán	2	Febrero	2023-02-19T00:00:00	2024-11-08T05:00:00	7	Dirección del viento	16.09
107679	7	Sololá	713	San Lucas Tolimán	10	San Lucas Tolimán	2	Febrero	2023-02-19T00:00:00	2024-11-08T05:00:00	1	Precipitación	0
107680	7	Sololá	713	San Lucas Tolimán	10	San Lucas Tolimán	2	Febrero	2023-02-19T00:00:00	2024-11-08T05:00:00	8	Radiación solar	0
107681	7	Sololá	713	San Lucas Tolimán	10	San Lucas Tolimán	2	Febrero	2023-02-19T00:00:00	2024-11-08T06:00:00	2	Temperatura media	16.7
107682	7	Sololá	713	San Lucas Tolimán	10	San Lucas Tolimán	2	Febrero	2023-02-19T00:00:00	2024-11-08T06:00:00	4	Temperatura máxima	17.1
107683	7	Sololá	713	San Lucas Tolimán	10	San Lucas Tolimán	2	Febrero	2023-02-19T00:00:00	2024-11-08T06:00:00	3	Temperatura mínima	16.6
107684	7	Sololá	713	San Lucas Tolimán	10	San Lucas Tolimán	2	Febrero	2023-02-19T00:00:00	2024-11-08T06:00:00	5	Humedad	56
107685	7	Sololá	713	San Lucas Tolimán	10	San Lucas Tolimán	2	Febrero	2023-02-19T00:00:00	2024-11-08T06:00:00	6	Velocidad del viento	19.3
107686	7	Sololá	713	San Lucas Tolimán	10	San Lucas Tolimán	2	Febrero	2023-02-19T00:00:00	2024-11-08T06:00:00	7	Dirección del viento	19.31
107687	7	Sololá	713	San Lucas Tolimán	10	San Lucas Tolimán	2	Febrero	2023-02-19T00:00:00	2024-11-08T06:00:00	1	Precipitación	0
107688	7	Sololá	713	San Lucas Tolimán	10	San Lucas Tolimán	2	Febrero	2023-02-19T00:00:00	2024-11-08T06:00:00	8	Radiación solar	0
107689	7	Sololá	713	San Lucas Tolimán	10	San Lucas Tolimán	2	Febrero	2023-02-19T00:00:00	2024-11-08T07:00:00	2	Temperatura media	16.6
107690	7	Sololá	713	San Lucas Tolimán	10	San Lucas Tolimán	2	Febrero	2023-02-19T00:00:00	2024-11-08T07:00:00	4	Temperatura máxima	16.9
107691	7	Sololá	713	San Lucas Tolimán	10	San Lucas Tolimán	2	Febrero	2023-02-19T00:00:00	2024-11-08T07:00:00	3	Temperatura mínima	16.4
107692	7	Sololá	713	San Lucas Tolimán	10	San Lucas Tolimán	2	Febrero	2023-02-19T00:00:00	2024-11-08T07:00:00	5	Humedad	56
107693	7	Sololá	713	San Lucas Tolimán	10	San Lucas Tolimán	2	Febrero	2023-02-19T00:00:00	2024-11-08T07:00:00	6	Velocidad del viento	16.1
107694	7	Sololá	713	San Lucas Tolimán	10	San Lucas Tolimán	2	Febrero	2023-02-19T00:00:00	2024-11-08T07:00:00	7	Dirección del viento	16.09
107695	7	Sololá	713	San Lucas Tolimán	10	San Lucas Tolimán	2	Febrero	2023-02-19T00:00:00	2024-11-08T07:00:00	1	Precipitación	0
107696	7	Sololá	713	San Lucas Tolimán	10	San Lucas Tolimán	2	Febrero	2023-02-19T00:00:00	2024-11-08T07:00:00	8	Radiación solar	7
107697	7	Sololá	713	San Lucas Tolimán	10	San Lucas Tolimán	2	Febrero	2023-02-19T00:00:00	2024-11-08T08:00:00	2	Temperatura media	18.3
107698	7	Sololá	713	San Lucas Tolimán	10	San Lucas Tolimán	2	Febrero	2023-02-19T00:00:00	2024-11-08T08:00:00	4	Temperatura máxima	18.3
107699	7	Sololá	713	San Lucas Tolimán	10	San Lucas Tolimán	2	Febrero	2023-02-19T00:00:00	2024-11-08T08:00:00	3	Temperatura mínima	16.5
107700	7	Sololá	713	San Lucas Tolimán	10	San Lucas Tolimán	2	Febrero	2023-02-19T00:00:00	2024-11-08T08:00:00	5	Humedad	50
107701	7	Sololá	713	San Lucas Tolimán	10	San Lucas Tolimán	2	Febrero	2023-02-19T00:00:00	2024-11-08T08:00:00	6	Velocidad del viento	14.5
107702	7	Sololá	713	San Lucas Tolimán	10	San Lucas Tolimán	2	Febrero	2023-02-19T00:00:00	2024-11-08T08:00:00	7	Dirección del viento	14.48
107703	7	Sololá	713	San Lucas Tolimán	10	San Lucas Tolimán	2	Febrero	2023-02-19T00:00:00	2024-11-08T08:00:00	1	Precipitación	0
107704	7	Sololá	713	San Lucas Tolimán	10	San Lucas Tolimán	2	Febrero	2023-02-19T00:00:00	2024-11-08T08:00:00	8	Radiación solar	54
107705	7	Sololá	713	San Lucas Tolimán	10	San Lucas Tolimán	2	Febrero	2023-02-19T00:00:00	2024-11-08T09:00:00	2	Temperatura media	19.2
107706	7	Sololá	713	San Lucas Tolimán	10	San Lucas Tolimán	2	Febrero	2023-02-19T00:00:00	2024-11-08T09:00:00	4	Temperatura máxima	19.2
107707	7	Sololá	713	San Lucas Tolimán	10	San Lucas Tolimán	2	Febrero	2023-02-19T00:00:00	2024-11-08T09:00:00	3	Temperatura mínima	18.3
107708	7	Sololá	713	San Lucas Tolimán	10	San Lucas Tolimán	2	Febrero	2023-02-19T00:00:00	2024-11-08T09:00:00	5	Humedad	48
107709	7	Sololá	713	San Lucas Tolimán	10	San Lucas Tolimán	2	Febrero	2023-02-19T00:00:00	2024-11-08T09:00:00	6	Velocidad del viento	24.1
107710	7	Sololá	713	San Lucas Tolimán	10	San Lucas Tolimán	2	Febrero	2023-02-19T00:00:00	2024-11-08T09:00:00	7	Dirección del viento	24.14
107711	7	Sololá	713	San Lucas Tolimán	10	San Lucas Tolimán	2	Febrero	2023-02-19T00:00:00	2024-11-08T09:00:00	1	Precipitación	0
107712	7	Sololá	713	San Lucas Tolimán	10	San Lucas Tolimán	2	Febrero	2023-02-19T00:00:00	2024-11-08T09:00:00	8	Radiación solar	482
107713	7	Sololá	713	San Lucas Tolimán	10	San Lucas Tolimán	2	Febrero	2023-02-19T00:00:00	2024-11-08T10:00:00	2	Temperatura media	20.3
107714	7	Sololá	713	San Lucas Tolimán	10	San Lucas Tolimán	2	Febrero	2023-02-19T00:00:00	2024-11-08T10:00:00	4	Temperatura máxima	20.3
107715	7	Sololá	713	San Lucas Tolimán	10	San Lucas Tolimán	2	Febrero	2023-02-19T00:00:00	2024-11-08T10:00:00	3	Temperatura mínima	18.9
107716	7	Sololá	713	San Lucas Tolimán	10	San Lucas Tolimán	2	Febrero	2023-02-19T00:00:00	2024-11-08T10:00:00	5	Humedad	45
107717	7	Sololá	713	San Lucas Tolimán	10	San Lucas Tolimán	2	Febrero	2023-02-19T00:00:00	2024-11-08T10:00:00	6	Velocidad del viento	25.7
107718	7	Sololá	713	San Lucas Tolimán	10	San Lucas Tolimán	2	Febrero	2023-02-19T00:00:00	2024-11-08T10:00:00	7	Dirección del viento	25.75
107719	7	Sololá	713	San Lucas Tolimán	10	San Lucas Tolimán	2	Febrero	2023-02-19T00:00:00	2024-11-08T10:00:00	1	Precipitación	0
107720	7	Sololá	713	San Lucas Tolimán	10	San Lucas Tolimán	2	Febrero	2023-02-19T00:00:00	2024-11-08T10:00:00	8	Radiación solar	723
107721	7	Sololá	713	San Lucas Tolimán	10	San Lucas Tolimán	2	Febrero	2023-02-19T00:00:00	2024-11-08T11:00:00	2	Temperatura media	20.8
107722	7	Sololá	713	San Lucas Tolimán	10	San Lucas Tolimán	2	Febrero	2023-02-19T00:00:00	2024-11-08T11:00:00	4	Temperatura máxima	21.1
107723	7	Sololá	713	San Lucas Tolimán	10	San Lucas Tolimán	2	Febrero	2023-02-19T00:00:00	2024-11-08T11:00:00	3	Temperatura mínima	20.3
107724	7	Sololá	713	San Lucas Tolimán	10	San Lucas Tolimán	2	Febrero	2023-02-19T00:00:00	2024-11-08T11:00:00	5	Humedad	47
107725	7	Sololá	713	San Lucas Tolimán	10	San Lucas Tolimán	2	Febrero	2023-02-19T00:00:00	2024-11-08T11:00:00	6	Velocidad del viento	20.9
107726	7	Sololá	713	San Lucas Tolimán	10	San Lucas Tolimán	2	Febrero	2023-02-19T00:00:00	2024-11-08T11:00:00	7	Dirección del viento	20.92
107727	7	Sololá	713	San Lucas Tolimán	10	San Lucas Tolimán	2	Febrero	2023-02-19T00:00:00	2024-11-08T11:00:00	1	Precipitación	0
107728	7	Sololá	713	San Lucas Tolimán	10	San Lucas Tolimán	2	Febrero	2023-02-19T00:00:00	2024-11-08T11:00:00	8	Radiación solar	910
107729	7	Sololá	713	San Lucas Tolimán	10	San Lucas Tolimán	2	Febrero	2023-02-19T00:00:00	2024-11-08T12:00:00	2	Temperatura media	20.2
107730	7	Sololá	713	San Lucas Tolimán	10	San Lucas Tolimán	2	Febrero	2023-02-19T00:00:00	2024-11-08T12:00:00	4	Temperatura máxima	20.9
107731	7	Sololá	713	San Lucas Tolimán	10	San Lucas Tolimán	2	Febrero	2023-02-19T00:00:00	2024-11-08T12:00:00	3	Temperatura mínima	20.1
107732	7	Sololá	713	San Lucas Tolimán	10	San Lucas Tolimán	2	Febrero	2023-02-19T00:00:00	2024-11-08T12:00:00	5	Humedad	49
107733	7	Sololá	713	San Lucas Tolimán	10	San Lucas Tolimán	2	Febrero	2023-02-19T00:00:00	2024-11-08T12:00:00	6	Velocidad del viento	19.3
107734	7	Sololá	713	San Lucas Tolimán	10	San Lucas Tolimán	2	Febrero	2023-02-19T00:00:00	2024-11-08T12:00:00	7	Dirección del viento	19.31
107735	7	Sololá	713	San Lucas Tolimán	10	San Lucas Tolimán	2	Febrero	2023-02-19T00:00:00	2024-11-08T12:00:00	1	Precipitación	0
107736	7	Sololá	713	San Lucas Tolimán	10	San Lucas Tolimán	2	Febrero	2023-02-19T00:00:00	2024-11-08T12:00:00	8	Radiación solar	970
107737	7	Sololá	713	San Lucas Tolimán	10	San Lucas Tolimán	2	Febrero	2023-02-19T00:00:00	2024-11-08T13:00:00	2	Temperatura media	20.3
107738	7	Sololá	713	San Lucas Tolimán	10	San Lucas Tolimán	2	Febrero	2023-02-19T00:00:00	2024-11-08T13:00:00	4	Temperatura máxima	20.9
107739	7	Sololá	713	San Lucas Tolimán	10	San Lucas Tolimán	2	Febrero	2023-02-19T00:00:00	2024-11-08T13:00:00	3	Temperatura mínima	19.6
107740	7	Sololá	713	San Lucas Tolimán	10	San Lucas Tolimán	2	Febrero	2023-02-19T00:00:00	2024-11-08T13:00:00	5	Humedad	47
107741	7	Sololá	713	San Lucas Tolimán	10	San Lucas Tolimán	2	Febrero	2023-02-19T00:00:00	2024-11-08T13:00:00	6	Velocidad del viento	17.7
107742	7	Sololá	713	San Lucas Tolimán	10	San Lucas Tolimán	2	Febrero	2023-02-19T00:00:00	2024-11-08T13:00:00	7	Dirección del viento	17.7
107743	7	Sololá	713	San Lucas Tolimán	10	San Lucas Tolimán	2	Febrero	2023-02-19T00:00:00	2024-11-08T13:00:00	1	Precipitación	0
107744	7	Sololá	713	San Lucas Tolimán	10	San Lucas Tolimán	2	Febrero	2023-02-19T00:00:00	2024-11-08T13:00:00	8	Radiación solar	319
107745	7	Sololá	713	San Lucas Tolimán	10	San Lucas Tolimán	2	Febrero	2023-02-19T00:00:00	2024-11-08T14:00:00	2	Temperatura media	22.2
107746	7	Sololá	713	San Lucas Tolimán	10	San Lucas Tolimán	2	Febrero	2023-02-19T00:00:00	2024-11-08T14:00:00	4	Temperatura máxima	22.4
107747	7	Sololá	713	San Lucas Tolimán	10	San Lucas Tolimán	2	Febrero	2023-02-19T00:00:00	2024-11-08T14:00:00	3	Temperatura mínima	20.3
107748	7	Sololá	713	San Lucas Tolimán	10	San Lucas Tolimán	2	Febrero	2023-02-19T00:00:00	2024-11-08T14:00:00	5	Humedad	43
107749	7	Sololá	713	San Lucas Tolimán	10	San Lucas Tolimán	2	Febrero	2023-02-19T00:00:00	2024-11-08T14:00:00	6	Velocidad del viento	14.5
107750	7	Sololá	713	San Lucas Tolimán	10	San Lucas Tolimán	2	Febrero	2023-02-19T00:00:00	2024-11-08T14:00:00	7	Dirección del viento	14.48
107751	7	Sololá	713	San Lucas Tolimán	10	San Lucas Tolimán	2	Febrero	2023-02-19T00:00:00	2024-11-08T14:00:00	1	Precipitación	0
107752	7	Sololá	713	San Lucas Tolimán	10	San Lucas Tolimán	2	Febrero	2023-02-19T00:00:00	2024-11-08T14:00:00	8	Radiación solar	962
107753	7	Sololá	713	San Lucas Tolimán	10	San Lucas Tolimán	2	Febrero	2023-02-19T00:00:00	2024-11-08T15:00:00	2	Temperatura media	22.4
107754	7	Sololá	713	San Lucas Tolimán	10	San Lucas Tolimán	2	Febrero	2023-02-19T00:00:00	2024-11-08T15:00:00	4	Temperatura máxima	22.6
107755	7	Sololá	713	San Lucas Tolimán	10	San Lucas Tolimán	2	Febrero	2023-02-19T00:00:00	2024-11-08T15:00:00	3	Temperatura mínima	21.8
107756	7	Sololá	713	San Lucas Tolimán	10	San Lucas Tolimán	2	Febrero	2023-02-19T00:00:00	2024-11-08T15:00:00	5	Humedad	40
107757	7	Sololá	713	San Lucas Tolimán	10	San Lucas Tolimán	2	Febrero	2023-02-19T00:00:00	2024-11-08T15:00:00	6	Velocidad del viento	17.7
107758	7	Sololá	713	San Lucas Tolimán	10	San Lucas Tolimán	2	Febrero	2023-02-19T00:00:00	2024-11-08T15:00:00	7	Dirección del viento	17.7
107759	7	Sololá	713	San Lucas Tolimán	10	San Lucas Tolimán	2	Febrero	2023-02-19T00:00:00	2024-11-08T15:00:00	1	Precipitación	0
107760	7	Sololá	713	San Lucas Tolimán	10	San Lucas Tolimán	2	Febrero	2023-02-19T00:00:00	2024-11-08T15:00:00	8	Radiación solar	894
107761	7	Sololá	713	San Lucas Tolimán	10	San Lucas Tolimán	2	Febrero	2023-02-19T00:00:00	2024-11-08T16:00:00	2	Temperatura media	22.8
107762	7	Sololá	713	San Lucas Tolimán	10	San Lucas Tolimán	2	Febrero	2023-02-19T00:00:00	2024-11-08T16:00:00	4	Temperatura máxima	22.9
107763	7	Sololá	713	San Lucas Tolimán	10	San Lucas Tolimán	2	Febrero	2023-02-19T00:00:00	2024-11-08T16:00:00	3	Temperatura mínima	22.3
107764	7	Sololá	713	San Lucas Tolimán	10	San Lucas Tolimán	2	Febrero	2023-02-19T00:00:00	2024-11-08T16:00:00	5	Humedad	38
107765	7	Sololá	713	San Lucas Tolimán	10	San Lucas Tolimán	2	Febrero	2023-02-19T00:00:00	2024-11-08T16:00:00	6	Velocidad del viento	16.1
107766	7	Sololá	713	San Lucas Tolimán	10	San Lucas Tolimán	2	Febrero	2023-02-19T00:00:00	2024-11-08T16:00:00	7	Dirección del viento	16.09
107767	7	Sololá	713	San Lucas Tolimán	10	San Lucas Tolimán	2	Febrero	2023-02-19T00:00:00	2024-11-08T16:00:00	1	Precipitación	0
107768	7	Sololá	713	San Lucas Tolimán	10	San Lucas Tolimán	2	Febrero	2023-02-19T00:00:00	2024-11-08T16:00:00	8	Radiación solar	722
107769	7	Sololá	713	San Lucas Tolimán	10	San Lucas Tolimán	2	Febrero	2023-02-19T00:00:00	2024-11-08T17:00:00	2	Temperatura media	21.4
107770	7	Sololá	713	San Lucas Tolimán	10	San Lucas Tolimán	2	Febrero	2023-02-19T00:00:00	2024-11-08T17:00:00	4	Temperatura máxima	23.2
107771	7	Sololá	713	San Lucas Tolimán	10	San Lucas Tolimán	2	Febrero	2023-02-19T00:00:00	2024-11-08T17:00:00	3	Temperatura mínima	21.4
107772	7	Sololá	713	San Lucas Tolimán	10	San Lucas Tolimán	2	Febrero	2023-02-19T00:00:00	2024-11-08T17:00:00	5	Humedad	42
107773	7	Sololá	713	San Lucas Tolimán	10	San Lucas Tolimán	2	Febrero	2023-02-19T00:00:00	2024-11-08T17:00:00	6	Velocidad del viento	8
107774	7	Sololá	713	San Lucas Tolimán	10	San Lucas Tolimán	2	Febrero	2023-02-19T00:00:00	2024-11-08T17:00:00	7	Dirección del viento	8.05
107775	7	Sololá	713	San Lucas Tolimán	10	San Lucas Tolimán	2	Febrero	2023-02-19T00:00:00	2024-11-08T17:00:00	1	Precipitación	0
107776	7	Sololá	713	San Lucas Tolimán	10	San Lucas Tolimán	2	Febrero	2023-02-19T00:00:00	2024-11-08T17:00:00	8	Radiación solar	353
107777	7	Sololá	713	San Lucas Tolimán	10	San Lucas Tolimán	2	Febrero	2023-02-19T00:00:00	2024-11-08T18:00:00	2	Temperatura media	20.2
107778	7	Sololá	713	San Lucas Tolimán	10	San Lucas Tolimán	2	Febrero	2023-02-19T00:00:00	2024-11-08T18:00:00	4	Temperatura máxima	21.4
107779	7	Sololá	713	San Lucas Tolimán	10	San Lucas Tolimán	2	Febrero	2023-02-19T00:00:00	2024-11-08T18:00:00	3	Temperatura mínima	20.2
107780	7	Sololá	713	San Lucas Tolimán	10	San Lucas Tolimán	2	Febrero	2023-02-19T00:00:00	2024-11-08T18:00:00	5	Humedad	45
107781	7	Sololá	713	San Lucas Tolimán	10	San Lucas Tolimán	2	Febrero	2023-02-19T00:00:00	2024-11-08T18:00:00	6	Velocidad del viento	8
107782	7	Sololá	713	San Lucas Tolimán	10	San Lucas Tolimán	2	Febrero	2023-02-19T00:00:00	2024-11-08T18:00:00	7	Dirección del viento	8.05
107783	7	Sololá	713	San Lucas Tolimán	10	San Lucas Tolimán	2	Febrero	2023-02-19T00:00:00	2024-11-08T18:00:00	1	Precipitación	0
107784	7	Sololá	713	San Lucas Tolimán	10	San Lucas Tolimán	2	Febrero	2023-02-19T00:00:00	2024-11-08T18:00:00	8	Radiación solar	43
107785	7	Sololá	713	San Lucas Tolimán	10	San Lucas Tolimán	2	Febrero	2023-02-19T00:00:00	2024-11-08T19:00:00	2	Temperatura media	18.7
107786	7	Sololá	713	San Lucas Tolimán	10	San Lucas Tolimán	2	Febrero	2023-02-19T00:00:00	2024-11-08T19:00:00	4	Temperatura máxima	20.2
107787	7	Sololá	713	San Lucas Tolimán	10	San Lucas Tolimán	2	Febrero	2023-02-19T00:00:00	2024-11-08T19:00:00	3	Temperatura mínima	18.7
107788	7	Sololá	713	San Lucas Tolimán	10	San Lucas Tolimán	2	Febrero	2023-02-19T00:00:00	2024-11-08T19:00:00	5	Humedad	50
107789	7	Sololá	713	San Lucas Tolimán	10	San Lucas Tolimán	2	Febrero	2023-02-19T00:00:00	2024-11-08T19:00:00	6	Velocidad del viento	11.3
107790	7	Sololá	713	San Lucas Tolimán	10	San Lucas Tolimán	2	Febrero	2023-02-19T00:00:00	2024-11-08T19:00:00	7	Dirección del viento	11.27
107791	7	Sololá	713	San Lucas Tolimán	10	San Lucas Tolimán	2	Febrero	2023-02-19T00:00:00	2024-11-08T19:00:00	1	Precipitación	0
107792	7	Sololá	713	San Lucas Tolimán	10	San Lucas Tolimán	2	Febrero	2023-02-19T00:00:00	2024-11-08T19:00:00	8	Radiación solar	0
107793	7	Sololá	713	San Lucas Tolimán	10	San Lucas Tolimán	2	Febrero	2023-02-19T00:00:00	2024-11-08T20:00:00	2	Temperatura media	18.4
107794	7	Sololá	713	San Lucas Tolimán	10	San Lucas Tolimán	2	Febrero	2023-02-19T00:00:00	2024-11-08T20:00:00	4	Temperatura máxima	18.7
107795	7	Sololá	713	San Lucas Tolimán	10	San Lucas Tolimán	2	Febrero	2023-02-19T00:00:00	2024-11-08T20:00:00	3	Temperatura mínima	18.3
107796	7	Sololá	713	San Lucas Tolimán	10	San Lucas Tolimán	2	Febrero	2023-02-19T00:00:00	2024-11-08T20:00:00	5	Humedad	49
107797	7	Sololá	713	San Lucas Tolimán	10	San Lucas Tolimán	2	Febrero	2023-02-19T00:00:00	2024-11-08T20:00:00	6	Velocidad del viento	8
107798	7	Sololá	713	San Lucas Tolimán	10	San Lucas Tolimán	2	Febrero	2023-02-19T00:00:00	2024-11-08T20:00:00	7	Dirección del viento	8.05
107799	7	Sololá	713	San Lucas Tolimán	10	San Lucas Tolimán	2	Febrero	2023-02-19T00:00:00	2024-11-08T20:00:00	1	Precipitación	0
107800	7	Sololá	713	San Lucas Tolimán	10	San Lucas Tolimán	2	Febrero	2023-02-19T00:00:00	2024-11-08T20:00:00	8	Radiación solar	0
107801	7	Sololá	713	San Lucas Tolimán	10	San Lucas Tolimán	2	Febrero	2023-02-19T00:00:00	2024-11-08T21:00:00	2	Temperatura media	18.1
107802	7	Sololá	713	San Lucas Tolimán	10	San Lucas Tolimán	2	Febrero	2023-02-19T00:00:00	2024-11-08T21:00:00	4	Temperatura máxima	18.4
107803	7	Sololá	713	San Lucas Tolimán	10	San Lucas Tolimán	2	Febrero	2023-02-19T00:00:00	2024-11-08T21:00:00	3	Temperatura mínima	17.8
107804	7	Sololá	713	San Lucas Tolimán	10	San Lucas Tolimán	2	Febrero	2023-02-19T00:00:00	2024-11-08T21:00:00	5	Humedad	48
107805	7	Sololá	713	San Lucas Tolimán	10	San Lucas Tolimán	2	Febrero	2023-02-19T00:00:00	2024-11-08T21:00:00	6	Velocidad del viento	8
107806	7	Sololá	713	San Lucas Tolimán	10	San Lucas Tolimán	2	Febrero	2023-02-19T00:00:00	2024-11-08T21:00:00	7	Dirección del viento	8.05
107807	7	Sololá	713	San Lucas Tolimán	10	San Lucas Tolimán	2	Febrero	2023-02-19T00:00:00	2024-11-08T21:00:00	1	Precipitación	0
107808	7	Sololá	713	San Lucas Tolimán	10	San Lucas Tolimán	2	Febrero	2023-02-19T00:00:00	2024-11-08T21:00:00	8	Radiación solar	0
107809	7	Sololá	713	San Lucas Tolimán	10	San Lucas Tolimán	2	Febrero	2023-02-19T00:00:00	2024-11-08T22:00:00	2	Temperatura media	17.7
107810	7	Sololá	713	San Lucas Tolimán	10	San Lucas Tolimán	2	Febrero	2023-02-19T00:00:00	2024-11-08T22:00:00	4	Temperatura máxima	18.1
107811	7	Sololá	713	San Lucas Tolimán	10	San Lucas Tolimán	2	Febrero	2023-02-19T00:00:00	2024-11-08T22:00:00	3	Temperatura mínima	17.3
107812	7	Sololá	713	San Lucas Tolimán	10	San Lucas Tolimán	2	Febrero	2023-02-19T00:00:00	2024-11-08T22:00:00	5	Humedad	47
107813	7	Sololá	713	San Lucas Tolimán	10	San Lucas Tolimán	2	Febrero	2023-02-19T00:00:00	2024-11-08T22:00:00	6	Velocidad del viento	11.3
107814	7	Sololá	713	San Lucas Tolimán	10	San Lucas Tolimán	2	Febrero	2023-02-19T00:00:00	2024-11-08T22:00:00	7	Dirección del viento	11.27
107815	7	Sololá	713	San Lucas Tolimán	10	San Lucas Tolimán	2	Febrero	2023-02-19T00:00:00	2024-11-08T22:00:00	1	Precipitación	0
107816	7	Sololá	713	San Lucas Tolimán	10	San Lucas Tolimán	2	Febrero	2023-02-19T00:00:00	2024-11-08T22:00:00	8	Radiación solar	0
107817	7	Sololá	713	San Lucas Tolimán	10	San Lucas Tolimán	2	Febrero	2023-02-19T00:00:00	2024-11-08T23:00:00	2	Temperatura media	17.4
107818	7	Sololá	713	San Lucas Tolimán	10	San Lucas Tolimán	2	Febrero	2023-02-19T00:00:00	2024-11-08T23:00:00	4	Temperatura máxima	17.8
107819	7	Sololá	713	San Lucas Tolimán	10	San Lucas Tolimán	2	Febrero	2023-02-19T00:00:00	2024-11-08T23:00:00	3	Temperatura mínima	17.3
107820	7	Sololá	713	San Lucas Tolimán	10	San Lucas Tolimán	2	Febrero	2023-02-19T00:00:00	2024-11-08T23:00:00	5	Humedad	47
107821	7	Sololá	713	San Lucas Tolimán	10	San Lucas Tolimán	2	Febrero	2023-02-19T00:00:00	2024-11-08T23:00:00	6	Velocidad del viento	6.4
107822	7	Sololá	713	San Lucas Tolimán	10	San Lucas Tolimán	2	Febrero	2023-02-19T00:00:00	2024-11-08T23:00:00	7	Dirección del viento	6.44
107823	7	Sololá	713	San Lucas Tolimán	10	San Lucas Tolimán	2	Febrero	2023-02-19T00:00:00	2024-11-08T23:00:00	1	Precipitación	0
107824	7	Sololá	713	San Lucas Tolimán	10	San Lucas Tolimán	2	Febrero	2023-02-19T00:00:00	2024-11-08T23:00:00	8	Radiación solar	0
107825	7	Sololá	713	San Lucas Tolimán	10	San Lucas Tolimán	2	Febrero	2023-02-20T00:00:00	2024-11-08T00:00:00	2	Temperatura media	16.3
107826	7	Sololá	713	San Lucas Tolimán	10	San Lucas Tolimán	2	Febrero	2023-02-20T00:00:00	2024-11-08T00:00:00	4	Temperatura máxima	17.6
107827	7	Sololá	713	San Lucas Tolimán	10	San Lucas Tolimán	2	Febrero	2023-02-20T00:00:00	2024-11-08T00:00:00	3	Temperatura mínima	16.2
107828	7	Sololá	713	San Lucas Tolimán	10	San Lucas Tolimán	2	Febrero	2023-02-20T00:00:00	2024-11-08T00:00:00	5	Humedad	50
107829	7	Sololá	713	San Lucas Tolimán	10	San Lucas Tolimán	2	Febrero	2023-02-20T00:00:00	2024-11-08T00:00:00	6	Velocidad del viento	4.8
107830	7	Sololá	713	San Lucas Tolimán	10	San Lucas Tolimán	2	Febrero	2023-02-20T00:00:00	2024-11-08T00:00:00	7	Dirección del viento	4.83
107831	7	Sololá	713	San Lucas Tolimán	10	San Lucas Tolimán	2	Febrero	2023-02-20T00:00:00	2024-11-08T00:00:00	1	Precipitación	0
107832	7	Sololá	713	San Lucas Tolimán	10	San Lucas Tolimán	2	Febrero	2023-02-20T00:00:00	2024-11-08T00:00:00	8	Radiación solar	0
107833	7	Sololá	713	San Lucas Tolimán	10	San Lucas Tolimán	2	Febrero	2023-02-20T00:00:00	2024-11-08T01:00:00	2	Temperatura media	15.6
107834	7	Sololá	713	San Lucas Tolimán	10	San Lucas Tolimán	2	Febrero	2023-02-20T00:00:00	2024-11-08T01:00:00	4	Temperatura máxima	16.6
107835	7	Sololá	713	San Lucas Tolimán	10	San Lucas Tolimán	2	Febrero	2023-02-20T00:00:00	2024-11-08T01:00:00	3	Temperatura mínima	15.4
107836	7	Sololá	713	San Lucas Tolimán	10	San Lucas Tolimán	2	Febrero	2023-02-20T00:00:00	2024-11-08T01:00:00	5	Humedad	50
107837	7	Sololá	713	San Lucas Tolimán	10	San Lucas Tolimán	2	Febrero	2023-02-20T00:00:00	2024-11-08T01:00:00	6	Velocidad del viento	3.2
107838	7	Sololá	713	San Lucas Tolimán	10	San Lucas Tolimán	2	Febrero	2023-02-20T00:00:00	2024-11-08T01:00:00	7	Dirección del viento	3.22
107839	7	Sololá	713	San Lucas Tolimán	10	San Lucas Tolimán	2	Febrero	2023-02-20T00:00:00	2024-11-08T01:00:00	1	Precipitación	0
107840	7	Sololá	713	San Lucas Tolimán	10	San Lucas Tolimán	2	Febrero	2023-02-20T00:00:00	2024-11-08T01:00:00	8	Radiación solar	0
107841	7	Sololá	713	San Lucas Tolimán	10	San Lucas Tolimán	2	Febrero	2023-02-20T00:00:00	2024-11-08T02:00:00	2	Temperatura media	16.7
107842	7	Sololá	713	San Lucas Tolimán	10	San Lucas Tolimán	2	Febrero	2023-02-20T00:00:00	2024-11-08T02:00:00	4	Temperatura máxima	16.9
107843	7	Sololá	713	San Lucas Tolimán	10	San Lucas Tolimán	2	Febrero	2023-02-20T00:00:00	2024-11-08T02:00:00	3	Temperatura mínima	15.6
107844	7	Sololá	713	San Lucas Tolimán	10	San Lucas Tolimán	2	Febrero	2023-02-20T00:00:00	2024-11-08T02:00:00	5	Humedad	46
107845	7	Sololá	713	San Lucas Tolimán	10	San Lucas Tolimán	2	Febrero	2023-02-20T00:00:00	2024-11-08T02:00:00	6	Velocidad del viento	6.4
107846	7	Sololá	713	San Lucas Tolimán	10	San Lucas Tolimán	2	Febrero	2023-02-20T00:00:00	2024-11-08T02:00:00	7	Dirección del viento	6.44
107847	7	Sololá	713	San Lucas Tolimán	10	San Lucas Tolimán	2	Febrero	2023-02-20T00:00:00	2024-11-08T02:00:00	1	Precipitación	0
107848	7	Sololá	713	San Lucas Tolimán	10	San Lucas Tolimán	2	Febrero	2023-02-20T00:00:00	2024-11-08T02:00:00	8	Radiación solar	0
107849	7	Sololá	713	San Lucas Tolimán	10	San Lucas Tolimán	2	Febrero	2023-02-20T00:00:00	2024-11-08T03:00:00	2	Temperatura media	16.7
107850	7	Sololá	713	San Lucas Tolimán	10	San Lucas Tolimán	2	Febrero	2023-02-20T00:00:00	2024-11-08T03:00:00	4	Temperatura máxima	16.9
107851	7	Sololá	713	San Lucas Tolimán	10	San Lucas Tolimán	2	Febrero	2023-02-20T00:00:00	2024-11-08T03:00:00	3	Temperatura mínima	16.6
107852	7	Sololá	713	San Lucas Tolimán	10	San Lucas Tolimán	2	Febrero	2023-02-20T00:00:00	2024-11-08T03:00:00	5	Humedad	47
107853	7	Sololá	713	San Lucas Tolimán	10	San Lucas Tolimán	2	Febrero	2023-02-20T00:00:00	2024-11-08T03:00:00	6	Velocidad del viento	8
107854	7	Sololá	713	San Lucas Tolimán	10	San Lucas Tolimán	2	Febrero	2023-02-20T00:00:00	2024-11-08T03:00:00	7	Dirección del viento	8.05
107855	7	Sololá	713	San Lucas Tolimán	10	San Lucas Tolimán	2	Febrero	2023-02-20T00:00:00	2024-11-08T03:00:00	1	Precipitación	0
107856	7	Sololá	713	San Lucas Tolimán	10	San Lucas Tolimán	2	Febrero	2023-02-20T00:00:00	2024-11-08T03:00:00	8	Radiación solar	0
107857	7	Sololá	713	San Lucas Tolimán	10	San Lucas Tolimán	2	Febrero	2023-02-20T00:00:00	2024-11-08T04:00:00	2	Temperatura media	16.4
107858	7	Sololá	713	San Lucas Tolimán	10	San Lucas Tolimán	2	Febrero	2023-02-20T00:00:00	2024-11-08T04:00:00	4	Temperatura máxima	16.8
107859	7	Sololá	713	San Lucas Tolimán	10	San Lucas Tolimán	2	Febrero	2023-02-20T00:00:00	2024-11-08T04:00:00	3	Temperatura mínima	16.3
107860	7	Sololá	713	San Lucas Tolimán	10	San Lucas Tolimán	2	Febrero	2023-02-20T00:00:00	2024-11-08T04:00:00	5	Humedad	49
107861	7	Sololá	713	San Lucas Tolimán	10	San Lucas Tolimán	2	Febrero	2023-02-20T00:00:00	2024-11-08T04:00:00	6	Velocidad del viento	8
107862	7	Sololá	713	San Lucas Tolimán	10	San Lucas Tolimán	2	Febrero	2023-02-20T00:00:00	2024-11-08T04:00:00	7	Dirección del viento	8.05
107863	7	Sololá	713	San Lucas Tolimán	10	San Lucas Tolimán	2	Febrero	2023-02-20T00:00:00	2024-11-08T04:00:00	1	Precipitación	0
107864	7	Sololá	713	San Lucas Tolimán	10	San Lucas Tolimán	2	Febrero	2023-02-20T00:00:00	2024-11-08T04:00:00	8	Radiación solar	0
107865	7	Sololá	713	San Lucas Tolimán	10	San Lucas Tolimán	2	Febrero	2023-02-20T00:00:00	2024-11-08T05:00:00	2	Temperatura media	15.9
107866	7	Sololá	713	San Lucas Tolimán	10	San Lucas Tolimán	2	Febrero	2023-02-20T00:00:00	2024-11-08T05:00:00	4	Temperatura máxima	16.4
107867	7	Sololá	713	San Lucas Tolimán	10	San Lucas Tolimán	2	Febrero	2023-02-20T00:00:00	2024-11-08T05:00:00	3	Temperatura mínima	15.6
107868	7	Sololá	713	San Lucas Tolimán	10	San Lucas Tolimán	2	Febrero	2023-02-20T00:00:00	2024-11-08T05:00:00	5	Humedad	50
107869	7	Sololá	713	San Lucas Tolimán	10	San Lucas Tolimán	2	Febrero	2023-02-20T00:00:00	2024-11-08T05:00:00	6	Velocidad del viento	6.4
107870	7	Sololá	713	San Lucas Tolimán	10	San Lucas Tolimán	2	Febrero	2023-02-20T00:00:00	2024-11-08T05:00:00	7	Dirección del viento	6.44
107871	7	Sololá	713	San Lucas Tolimán	10	San Lucas Tolimán	2	Febrero	2023-02-20T00:00:00	2024-11-08T05:00:00	1	Precipitación	0
107872	7	Sololá	713	San Lucas Tolimán	10	San Lucas Tolimán	2	Febrero	2023-02-20T00:00:00	2024-11-08T05:00:00	8	Radiación solar	0
107873	7	Sololá	713	San Lucas Tolimán	10	San Lucas Tolimán	2	Febrero	2023-02-20T00:00:00	2024-11-08T06:00:00	2	Temperatura media	16.6
107874	7	Sololá	713	San Lucas Tolimán	10	San Lucas Tolimán	2	Febrero	2023-02-20T00:00:00	2024-11-08T06:00:00	4	Temperatura máxima	16.6
107875	7	Sololá	713	San Lucas Tolimán	10	San Lucas Tolimán	2	Febrero	2023-02-20T00:00:00	2024-11-08T06:00:00	3	Temperatura mínima	15.8
107876	7	Sololá	713	San Lucas Tolimán	10	San Lucas Tolimán	2	Febrero	2023-02-20T00:00:00	2024-11-08T06:00:00	5	Humedad	47
107877	7	Sololá	713	San Lucas Tolimán	10	San Lucas Tolimán	2	Febrero	2023-02-20T00:00:00	2024-11-08T06:00:00	6	Velocidad del viento	8
107878	7	Sololá	713	San Lucas Tolimán	10	San Lucas Tolimán	2	Febrero	2023-02-20T00:00:00	2024-11-08T06:00:00	7	Dirección del viento	8.05
107879	7	Sololá	713	San Lucas Tolimán	10	San Lucas Tolimán	2	Febrero	2023-02-20T00:00:00	2024-11-08T06:00:00	1	Precipitación	0
107880	7	Sololá	713	San Lucas Tolimán	10	San Lucas Tolimán	2	Febrero	2023-02-20T00:00:00	2024-11-08T06:00:00	8	Radiación solar	0
107881	7	Sololá	713	San Lucas Tolimán	10	San Lucas Tolimán	2	Febrero	2023-02-20T00:00:00	2024-11-08T07:00:00	2	Temperatura media	16.6
107882	7	Sololá	713	San Lucas Tolimán	10	San Lucas Tolimán	2	Febrero	2023-02-20T00:00:00	2024-11-08T07:00:00	4	Temperatura máxima	16.8
107883	7	Sololá	713	San Lucas Tolimán	10	San Lucas Tolimán	2	Febrero	2023-02-20T00:00:00	2024-11-08T07:00:00	3	Temperatura mínima	15.9
107884	7	Sololá	713	San Lucas Tolimán	10	San Lucas Tolimán	2	Febrero	2023-02-20T00:00:00	2024-11-08T07:00:00	5	Humedad	46
107885	7	Sololá	713	San Lucas Tolimán	10	San Lucas Tolimán	2	Febrero	2023-02-20T00:00:00	2024-11-08T07:00:00	6	Velocidad del viento	11.3
107886	7	Sololá	713	San Lucas Tolimán	10	San Lucas Tolimán	2	Febrero	2023-02-20T00:00:00	2024-11-08T07:00:00	7	Dirección del viento	11.27
107887	7	Sololá	713	San Lucas Tolimán	10	San Lucas Tolimán	2	Febrero	2023-02-20T00:00:00	2024-11-08T07:00:00	1	Precipitación	0
107888	7	Sololá	713	San Lucas Tolimán	10	San Lucas Tolimán	2	Febrero	2023-02-20T00:00:00	2024-11-08T07:00:00	8	Radiación solar	7
107889	7	Sololá	713	San Lucas Tolimán	10	San Lucas Tolimán	2	Febrero	2023-02-20T00:00:00	2024-11-08T08:00:00	2	Temperatura media	17.3
107890	7	Sololá	713	San Lucas Tolimán	10	San Lucas Tolimán	2	Febrero	2023-02-20T00:00:00	2024-11-08T08:00:00	4	Temperatura máxima	17.3
107891	7	Sololá	713	San Lucas Tolimán	10	San Lucas Tolimán	2	Febrero	2023-02-20T00:00:00	2024-11-08T08:00:00	3	Temperatura mínima	16.4
107892	7	Sololá	713	San Lucas Tolimán	10	San Lucas Tolimán	2	Febrero	2023-02-20T00:00:00	2024-11-08T08:00:00	5	Humedad	45
107893	7	Sololá	713	San Lucas Tolimán	10	San Lucas Tolimán	2	Febrero	2023-02-20T00:00:00	2024-11-08T08:00:00	6	Velocidad del viento	6.4
107894	7	Sololá	713	San Lucas Tolimán	10	San Lucas Tolimán	2	Febrero	2023-02-20T00:00:00	2024-11-08T08:00:00	7	Dirección del viento	6.44
107895	7	Sololá	713	San Lucas Tolimán	10	San Lucas Tolimán	2	Febrero	2023-02-20T00:00:00	2024-11-08T08:00:00	1	Precipitación	0
107896	7	Sololá	713	San Lucas Tolimán	10	San Lucas Tolimán	2	Febrero	2023-02-20T00:00:00	2024-11-08T08:00:00	8	Radiación solar	54
107897	7	Sololá	713	San Lucas Tolimán	10	San Lucas Tolimán	2	Febrero	2023-02-20T00:00:00	2024-11-08T09:00:00	2	Temperatura media	19.6
107898	7	Sololá	713	San Lucas Tolimán	10	San Lucas Tolimán	2	Febrero	2023-02-20T00:00:00	2024-11-08T09:00:00	4	Temperatura máxima	19.6
107899	7	Sololá	713	San Lucas Tolimán	10	San Lucas Tolimán	2	Febrero	2023-02-20T00:00:00	2024-11-08T09:00:00	3	Temperatura mínima	17.3
107900	7	Sololá	713	San Lucas Tolimán	10	San Lucas Tolimán	2	Febrero	2023-02-20T00:00:00	2024-11-08T09:00:00	5	Humedad	39
107901	7	Sololá	713	San Lucas Tolimán	10	San Lucas Tolimán	2	Febrero	2023-02-20T00:00:00	2024-11-08T09:00:00	6	Velocidad del viento	9.7
107902	7	Sololá	713	San Lucas Tolimán	10	San Lucas Tolimán	2	Febrero	2023-02-20T00:00:00	2024-11-08T09:00:00	7	Dirección del viento	9.66
107903	7	Sololá	713	San Lucas Tolimán	10	San Lucas Tolimán	2	Febrero	2023-02-20T00:00:00	2024-11-08T09:00:00	1	Precipitación	0
107904	7	Sololá	713	San Lucas Tolimán	10	San Lucas Tolimán	2	Febrero	2023-02-20T00:00:00	2024-11-08T09:00:00	8	Radiación solar	482
107905	7	Sololá	713	San Lucas Tolimán	10	San Lucas Tolimán	2	Febrero	2023-02-20T00:00:00	2024-11-08T10:00:00	2	Temperatura media	20.6
107906	7	Sololá	713	San Lucas Tolimán	10	San Lucas Tolimán	2	Febrero	2023-02-20T00:00:00	2024-11-08T10:00:00	4	Temperatura máxima	20.9
107907	7	Sololá	713	San Lucas Tolimán	10	San Lucas Tolimán	2	Febrero	2023-02-20T00:00:00	2024-11-08T10:00:00	3	Temperatura mínima	19.6
107908	7	Sololá	713	San Lucas Tolimán	10	San Lucas Tolimán	2	Febrero	2023-02-20T00:00:00	2024-11-08T10:00:00	5	Humedad	35
107909	7	Sololá	713	San Lucas Tolimán	10	San Lucas Tolimán	2	Febrero	2023-02-20T00:00:00	2024-11-08T10:00:00	6	Velocidad del viento	16.1
107910	7	Sololá	713	San Lucas Tolimán	10	San Lucas Tolimán	2	Febrero	2023-02-20T00:00:00	2024-11-08T10:00:00	7	Dirección del viento	16.09
107911	7	Sololá	713	San Lucas Tolimán	10	San Lucas Tolimán	2	Febrero	2023-02-20T00:00:00	2024-11-08T10:00:00	1	Precipitación	0
107912	7	Sololá	713	San Lucas Tolimán	10	San Lucas Tolimán	2	Febrero	2023-02-20T00:00:00	2024-11-08T10:00:00	8	Radiación solar	729
107913	7	Sololá	713	San Lucas Tolimán	10	San Lucas Tolimán	2	Febrero	2023-02-20T00:00:00	2024-11-08T11:00:00	2	Temperatura media	21.9
107914	7	Sololá	713	San Lucas Tolimán	10	San Lucas Tolimán	2	Febrero	2023-02-20T00:00:00	2024-11-08T11:00:00	4	Temperatura máxima	21.9
107915	7	Sololá	713	San Lucas Tolimán	10	San Lucas Tolimán	2	Febrero	2023-02-20T00:00:00	2024-11-08T11:00:00	3	Temperatura mínima	20.5
107916	7	Sololá	713	San Lucas Tolimán	10	San Lucas Tolimán	2	Febrero	2023-02-20T00:00:00	2024-11-08T11:00:00	5	Humedad	36
107917	7	Sololá	713	San Lucas Tolimán	10	San Lucas Tolimán	2	Febrero	2023-02-20T00:00:00	2024-11-08T11:00:00	6	Velocidad del viento	16.1
107918	7	Sololá	713	San Lucas Tolimán	10	San Lucas Tolimán	2	Febrero	2023-02-20T00:00:00	2024-11-08T11:00:00	7	Dirección del viento	16.09
107919	7	Sololá	713	San Lucas Tolimán	10	San Lucas Tolimán	2	Febrero	2023-02-20T00:00:00	2024-11-08T11:00:00	1	Precipitación	0
107920	7	Sololá	713	San Lucas Tolimán	10	San Lucas Tolimán	2	Febrero	2023-02-20T00:00:00	2024-11-08T11:00:00	8	Radiación solar	913
107921	7	Sololá	713	San Lucas Tolimán	10	San Lucas Tolimán	2	Febrero	2023-02-20T00:00:00	2024-11-08T12:00:00	2	Temperatura media	22.8
107922	7	Sololá	713	San Lucas Tolimán	10	San Lucas Tolimán	2	Febrero	2023-02-20T00:00:00	2024-11-08T12:00:00	4	Temperatura máxima	22.8
107923	7	Sololá	713	San Lucas Tolimán	10	San Lucas Tolimán	2	Febrero	2023-02-20T00:00:00	2024-11-08T12:00:00	3	Temperatura mínima	21.9
107924	7	Sololá	713	San Lucas Tolimán	10	San Lucas Tolimán	2	Febrero	2023-02-20T00:00:00	2024-11-08T12:00:00	5	Humedad	33
107925	7	Sololá	713	San Lucas Tolimán	10	San Lucas Tolimán	2	Febrero	2023-02-20T00:00:00	2024-11-08T12:00:00	6	Velocidad del viento	17.7
107926	7	Sololá	713	San Lucas Tolimán	10	San Lucas Tolimán	2	Febrero	2023-02-20T00:00:00	2024-11-08T12:00:00	7	Dirección del viento	17.7
107927	7	Sololá	713	San Lucas Tolimán	10	San Lucas Tolimán	2	Febrero	2023-02-20T00:00:00	2024-11-08T12:00:00	1	Precipitación	0
107928	7	Sololá	713	San Lucas Tolimán	10	San Lucas Tolimán	2	Febrero	2023-02-20T00:00:00	2024-11-08T12:00:00	8	Radiación solar	1016
107929	7	Sololá	713	San Lucas Tolimán	10	San Lucas Tolimán	2	Febrero	2023-02-20T00:00:00	2024-11-08T13:00:00	2	Temperatura media	23.5
107930	7	Sololá	713	San Lucas Tolimán	10	San Lucas Tolimán	2	Febrero	2023-02-20T00:00:00	2024-11-08T13:00:00	4	Temperatura máxima	23.9
107931	7	Sololá	713	San Lucas Tolimán	10	San Lucas Tolimán	2	Febrero	2023-02-20T00:00:00	2024-11-08T13:00:00	3	Temperatura mínima	22.8
107932	7	Sololá	713	San Lucas Tolimán	10	San Lucas Tolimán	2	Febrero	2023-02-20T00:00:00	2024-11-08T13:00:00	5	Humedad	31
107933	7	Sololá	713	San Lucas Tolimán	10	San Lucas Tolimán	2	Febrero	2023-02-20T00:00:00	2024-11-08T13:00:00	6	Velocidad del viento	17.7
107934	7	Sololá	713	San Lucas Tolimán	10	San Lucas Tolimán	2	Febrero	2023-02-20T00:00:00	2024-11-08T13:00:00	7	Dirección del viento	17.7
107935	7	Sololá	713	San Lucas Tolimán	10	San Lucas Tolimán	2	Febrero	2023-02-20T00:00:00	2024-11-08T13:00:00	1	Precipitación	0
107936	7	Sololá	713	San Lucas Tolimán	10	San Lucas Tolimán	2	Febrero	2023-02-20T00:00:00	2024-11-08T13:00:00	8	Radiación solar	1051
107937	7	Sololá	713	San Lucas Tolimán	10	San Lucas Tolimán	2	Febrero	2023-02-20T00:00:00	2024-11-08T14:00:00	2	Temperatura media	23.4
107938	7	Sololá	713	San Lucas Tolimán	10	San Lucas Tolimán	2	Febrero	2023-02-20T00:00:00	2024-11-08T14:00:00	4	Temperatura máxima	24.2
107939	7	Sololá	713	San Lucas Tolimán	10	San Lucas Tolimán	2	Febrero	2023-02-20T00:00:00	2024-11-08T14:00:00	3	Temperatura mínima	23.3
107940	7	Sololá	713	San Lucas Tolimán	10	San Lucas Tolimán	2	Febrero	2023-02-20T00:00:00	2024-11-08T14:00:00	5	Humedad	30
107941	7	Sololá	713	San Lucas Tolimán	10	San Lucas Tolimán	2	Febrero	2023-02-20T00:00:00	2024-11-08T14:00:00	6	Velocidad del viento	17.7
107942	7	Sololá	713	San Lucas Tolimán	10	San Lucas Tolimán	2	Febrero	2023-02-20T00:00:00	2024-11-08T14:00:00	7	Dirección del viento	17.7
107943	7	Sololá	713	San Lucas Tolimán	10	San Lucas Tolimán	2	Febrero	2023-02-20T00:00:00	2024-11-08T14:00:00	1	Precipitación	0
107944	7	Sololá	713	San Lucas Tolimán	10	San Lucas Tolimán	2	Febrero	2023-02-20T00:00:00	2024-11-08T14:00:00	8	Radiación solar	1005
107945	7	Sololá	713	San Lucas Tolimán	10	San Lucas Tolimán	2	Febrero	2023-02-20T00:00:00	2024-11-08T15:00:00	2	Temperatura media	24.1
107946	7	Sololá	713	San Lucas Tolimán	10	San Lucas Tolimán	2	Febrero	2023-02-20T00:00:00	2024-11-08T15:00:00	4	Temperatura máxima	24.2
107947	7	Sololá	713	San Lucas Tolimán	10	San Lucas Tolimán	2	Febrero	2023-02-20T00:00:00	2024-11-08T15:00:00	3	Temperatura mínima	23.3
107948	7	Sololá	713	San Lucas Tolimán	10	San Lucas Tolimán	2	Febrero	2023-02-20T00:00:00	2024-11-08T15:00:00	5	Humedad	29
107949	7	Sololá	713	San Lucas Tolimán	10	San Lucas Tolimán	2	Febrero	2023-02-20T00:00:00	2024-11-08T15:00:00	6	Velocidad del viento	12.9
107950	7	Sololá	713	San Lucas Tolimán	10	San Lucas Tolimán	2	Febrero	2023-02-20T00:00:00	2024-11-08T15:00:00	7	Dirección del viento	12.87
107951	7	Sololá	713	San Lucas Tolimán	10	San Lucas Tolimán	2	Febrero	2023-02-20T00:00:00	2024-11-08T15:00:00	1	Precipitación	0
107952	7	Sololá	713	San Lucas Tolimán	10	San Lucas Tolimán	2	Febrero	2023-02-20T00:00:00	2024-11-08T15:00:00	8	Radiación solar	815
107953	7	Sololá	713	San Lucas Tolimán	10	San Lucas Tolimán	2	Febrero	2023-02-20T00:00:00	2024-11-08T16:00:00	2	Temperatura media	23.7
107954	7	Sololá	713	San Lucas Tolimán	10	San Lucas Tolimán	2	Febrero	2023-02-20T00:00:00	2024-11-08T16:00:00	4	Temperatura máxima	24.4
107955	7	Sololá	713	San Lucas Tolimán	10	San Lucas Tolimán	2	Febrero	2023-02-20T00:00:00	2024-11-08T16:00:00	3	Temperatura mínima	23.7
107956	7	Sololá	713	San Lucas Tolimán	10	San Lucas Tolimán	2	Febrero	2023-02-20T00:00:00	2024-11-08T16:00:00	5	Humedad	27
107957	7	Sololá	713	San Lucas Tolimán	10	San Lucas Tolimán	2	Febrero	2023-02-20T00:00:00	2024-11-08T16:00:00	6	Velocidad del viento	16.1
107958	7	Sololá	713	San Lucas Tolimán	10	San Lucas Tolimán	2	Febrero	2023-02-20T00:00:00	2024-11-08T16:00:00	7	Dirección del viento	16.09
107959	7	Sololá	713	San Lucas Tolimán	10	San Lucas Tolimán	2	Febrero	2023-02-20T00:00:00	2024-11-08T16:00:00	1	Precipitación	0
107960	7	Sololá	713	San Lucas Tolimán	10	San Lucas Tolimán	2	Febrero	2023-02-20T00:00:00	2024-11-08T16:00:00	8	Radiación solar	656
107961	7	Sololá	713	San Lucas Tolimán	10	San Lucas Tolimán	2	Febrero	2023-02-20T00:00:00	2024-11-08T17:00:00	2	Temperatura media	22.6
107962	7	Sololá	713	San Lucas Tolimán	10	San Lucas Tolimán	2	Febrero	2023-02-20T00:00:00	2024-11-08T17:00:00	4	Temperatura máxima	23.9
107963	7	Sololá	713	San Lucas Tolimán	10	San Lucas Tolimán	2	Febrero	2023-02-20T00:00:00	2024-11-08T17:00:00	3	Temperatura mínima	22.6
107964	7	Sololá	713	San Lucas Tolimán	10	San Lucas Tolimán	2	Febrero	2023-02-20T00:00:00	2024-11-08T17:00:00	5	Humedad	31
107965	7	Sololá	713	San Lucas Tolimán	10	San Lucas Tolimán	2	Febrero	2023-02-20T00:00:00	2024-11-08T17:00:00	6	Velocidad del viento	14.5
107966	7	Sololá	713	San Lucas Tolimán	10	San Lucas Tolimán	2	Febrero	2023-02-20T00:00:00	2024-11-08T17:00:00	7	Dirección del viento	14.48
107967	7	Sololá	713	San Lucas Tolimán	10	San Lucas Tolimán	2	Febrero	2023-02-20T00:00:00	2024-11-08T17:00:00	1	Precipitación	0
107968	7	Sololá	713	San Lucas Tolimán	10	San Lucas Tolimán	2	Febrero	2023-02-20T00:00:00	2024-11-08T17:00:00	8	Radiación solar	384
107969	7	Sololá	713	San Lucas Tolimán	10	San Lucas Tolimán	2	Febrero	2023-02-20T00:00:00	2024-11-08T18:00:00	2	Temperatura media	20.6
107970	7	Sololá	713	San Lucas Tolimán	10	San Lucas Tolimán	2	Febrero	2023-02-20T00:00:00	2024-11-08T18:00:00	4	Temperatura máxima	22.6
107971	7	Sololá	713	San Lucas Tolimán	10	San Lucas Tolimán	2	Febrero	2023-02-20T00:00:00	2024-11-08T18:00:00	3	Temperatura mínima	20.6
107972	7	Sololá	713	San Lucas Tolimán	10	San Lucas Tolimán	2	Febrero	2023-02-20T00:00:00	2024-11-08T18:00:00	5	Humedad	41
107973	7	Sololá	713	San Lucas Tolimán	10	San Lucas Tolimán	2	Febrero	2023-02-20T00:00:00	2024-11-08T18:00:00	6	Velocidad del viento	14.5
107974	7	Sololá	713	San Lucas Tolimán	10	San Lucas Tolimán	2	Febrero	2023-02-20T00:00:00	2024-11-08T18:00:00	7	Dirección del viento	14.48
107975	7	Sololá	713	San Lucas Tolimán	10	San Lucas Tolimán	2	Febrero	2023-02-20T00:00:00	2024-11-08T18:00:00	1	Precipitación	0
107976	7	Sololá	713	San Lucas Tolimán	10	San Lucas Tolimán	2	Febrero	2023-02-20T00:00:00	2024-11-08T18:00:00	8	Radiación solar	29
107977	7	Sololá	713	San Lucas Tolimán	10	San Lucas Tolimán	2	Febrero	2023-02-20T00:00:00	2024-11-08T19:00:00	2	Temperatura media	19
107978	7	Sololá	713	San Lucas Tolimán	10	San Lucas Tolimán	2	Febrero	2023-02-20T00:00:00	2024-11-08T19:00:00	4	Temperatura máxima	20.6
107979	7	Sololá	713	San Lucas Tolimán	10	San Lucas Tolimán	2	Febrero	2023-02-20T00:00:00	2024-11-08T19:00:00	3	Temperatura mínima	19
107980	7	Sololá	713	San Lucas Tolimán	10	San Lucas Tolimán	2	Febrero	2023-02-20T00:00:00	2024-11-08T19:00:00	5	Humedad	45
107981	7	Sololá	713	San Lucas Tolimán	10	San Lucas Tolimán	2	Febrero	2023-02-20T00:00:00	2024-11-08T19:00:00	6	Velocidad del viento	20.9
107982	7	Sololá	713	San Lucas Tolimán	10	San Lucas Tolimán	2	Febrero	2023-02-20T00:00:00	2024-11-08T19:00:00	7	Dirección del viento	20.92
107983	7	Sololá	713	San Lucas Tolimán	10	San Lucas Tolimán	2	Febrero	2023-02-20T00:00:00	2024-11-08T19:00:00	1	Precipitación	0
107984	7	Sololá	713	San Lucas Tolimán	10	San Lucas Tolimán	2	Febrero	2023-02-20T00:00:00	2024-11-08T19:00:00	8	Radiación solar	0
107985	7	Sololá	713	San Lucas Tolimán	10	San Lucas Tolimán	2	Febrero	2023-02-20T00:00:00	2024-11-08T20:00:00	2	Temperatura media	18.1
107986	7	Sololá	713	San Lucas Tolimán	10	San Lucas Tolimán	2	Febrero	2023-02-20T00:00:00	2024-11-08T20:00:00	4	Temperatura máxima	19.1
107987	7	Sololá	713	San Lucas Tolimán	10	San Lucas Tolimán	2	Febrero	2023-02-20T00:00:00	2024-11-08T20:00:00	3	Temperatura mínima	18.1
107988	7	Sololá	713	San Lucas Tolimán	10	San Lucas Tolimán	2	Febrero	2023-02-20T00:00:00	2024-11-08T20:00:00	5	Humedad	50
107989	7	Sololá	713	San Lucas Tolimán	10	San Lucas Tolimán	2	Febrero	2023-02-20T00:00:00	2024-11-08T20:00:00	6	Velocidad del viento	22.5
107990	7	Sololá	713	San Lucas Tolimán	10	San Lucas Tolimán	2	Febrero	2023-02-20T00:00:00	2024-11-08T20:00:00	7	Dirección del viento	22.53
107991	7	Sololá	713	San Lucas Tolimán	10	San Lucas Tolimán	2	Febrero	2023-02-20T00:00:00	2024-11-08T20:00:00	1	Precipitación	0
107992	7	Sololá	713	San Lucas Tolimán	10	San Lucas Tolimán	2	Febrero	2023-02-20T00:00:00	2024-11-08T20:00:00	8	Radiación solar	0
107993	7	Sololá	713	San Lucas Tolimán	10	San Lucas Tolimán	2	Febrero	2023-02-20T00:00:00	2024-11-08T21:00:00	2	Temperatura media	17.9
107994	7	Sololá	713	San Lucas Tolimán	10	San Lucas Tolimán	2	Febrero	2023-02-20T00:00:00	2024-11-08T21:00:00	4	Temperatura máxima	18.2
107995	7	Sololá	713	San Lucas Tolimán	10	San Lucas Tolimán	2	Febrero	2023-02-20T00:00:00	2024-11-08T21:00:00	3	Temperatura mínima	17.9
107996	7	Sololá	713	San Lucas Tolimán	10	San Lucas Tolimán	2	Febrero	2023-02-20T00:00:00	2024-11-08T21:00:00	5	Humedad	49
107997	7	Sololá	713	San Lucas Tolimán	10	San Lucas Tolimán	2	Febrero	2023-02-20T00:00:00	2024-11-08T21:00:00	6	Velocidad del viento	16.1
107998	7	Sololá	713	San Lucas Tolimán	10	San Lucas Tolimán	2	Febrero	2023-02-20T00:00:00	2024-11-08T21:00:00	7	Dirección del viento	16.09
107999	7	Sololá	713	San Lucas Tolimán	10	San Lucas Tolimán	2	Febrero	2023-02-20T00:00:00	2024-11-08T21:00:00	1	Precipitación	0
108000	7	Sololá	713	San Lucas Tolimán	10	San Lucas Tolimán	2	Febrero	2023-02-20T00:00:00	2024-11-08T21:00:00	8	Radiación solar	0
108001	7	Sololá	713	San Lucas Tolimán	10	San Lucas Tolimán	2	Febrero	2023-02-20T00:00:00	2024-11-08T22:00:00	2	Temperatura media	17.3
108002	7	Sololá	713	San Lucas Tolimán	10	San Lucas Tolimán	2	Febrero	2023-02-20T00:00:00	2024-11-08T22:00:00	4	Temperatura máxima	18
108003	7	Sololá	713	San Lucas Tolimán	10	San Lucas Tolimán	2	Febrero	2023-02-20T00:00:00	2024-11-08T22:00:00	3	Temperatura mínima	17.3
108004	7	Sololá	713	San Lucas Tolimán	10	San Lucas Tolimán	2	Febrero	2023-02-20T00:00:00	2024-11-08T22:00:00	5	Humedad	53
108005	7	Sololá	713	San Lucas Tolimán	10	San Lucas Tolimán	2	Febrero	2023-02-20T00:00:00	2024-11-08T22:00:00	6	Velocidad del viento	8
108006	7	Sololá	713	San Lucas Tolimán	10	San Lucas Tolimán	2	Febrero	2023-02-20T00:00:00	2024-11-08T22:00:00	7	Dirección del viento	8.05
108007	7	Sololá	713	San Lucas Tolimán	10	San Lucas Tolimán	2	Febrero	2023-02-20T00:00:00	2024-11-08T22:00:00	1	Precipitación	0
108008	7	Sololá	713	San Lucas Tolimán	10	San Lucas Tolimán	2	Febrero	2023-02-20T00:00:00	2024-11-08T22:00:00	8	Radiación solar	0
108009	7	Sololá	713	San Lucas Tolimán	10	San Lucas Tolimán	2	Febrero	2023-02-20T00:00:00	2024-11-08T23:00:00	2	Temperatura media	16.3
108010	7	Sololá	713	San Lucas Tolimán	10	San Lucas Tolimán	2	Febrero	2023-02-20T00:00:00	2024-11-08T23:00:00	4	Temperatura máxima	17.3
108011	7	Sololá	713	San Lucas Tolimán	10	San Lucas Tolimán	2	Febrero	2023-02-20T00:00:00	2024-11-08T23:00:00	3	Temperatura mínima	16.3
108012	7	Sololá	713	San Lucas Tolimán	10	San Lucas Tolimán	2	Febrero	2023-02-20T00:00:00	2024-11-08T23:00:00	5	Humedad	54
108013	7	Sololá	713	San Lucas Tolimán	10	San Lucas Tolimán	2	Febrero	2023-02-20T00:00:00	2024-11-08T23:00:00	6	Velocidad del viento	4.8
108014	7	Sololá	713	San Lucas Tolimán	10	San Lucas Tolimán	2	Febrero	2023-02-20T00:00:00	2024-11-08T23:00:00	7	Dirección del viento	4.83
108015	7	Sololá	713	San Lucas Tolimán	10	San Lucas Tolimán	2	Febrero	2023-02-20T00:00:00	2024-11-08T23:00:00	1	Precipitación	0
108016	7	Sololá	713	San Lucas Tolimán	10	San Lucas Tolimán	2	Febrero	2023-02-20T00:00:00	2024-11-08T23:00:00	8	Radiación solar	0
108017	7	Sololá	713	San Lucas Tolimán	10	San Lucas Tolimán	2	Febrero	2023-02-21T00:00:00	2024-11-08T00:00:00	2	Temperatura media	16.2
108018	7	Sololá	713	San Lucas Tolimán	10	San Lucas Tolimán	2	Febrero	2023-02-21T00:00:00	2024-11-08T00:00:00	4	Temperatura máxima	16.4
108019	7	Sololá	713	San Lucas Tolimán	10	San Lucas Tolimán	2	Febrero	2023-02-21T00:00:00	2024-11-08T00:00:00	3	Temperatura mínima	16.2
108020	7	Sololá	713	San Lucas Tolimán	10	San Lucas Tolimán	2	Febrero	2023-02-21T00:00:00	2024-11-08T00:00:00	5	Humedad	53
108021	7	Sololá	713	San Lucas Tolimán	10	San Lucas Tolimán	2	Febrero	2023-02-21T00:00:00	2024-11-08T00:00:00	6	Velocidad del viento	3.2
108022	7	Sololá	713	San Lucas Tolimán	10	San Lucas Tolimán	2	Febrero	2023-02-21T00:00:00	2024-11-08T00:00:00	7	Dirección del viento	3.22
108023	7	Sololá	713	San Lucas Tolimán	10	San Lucas Tolimán	2	Febrero	2023-02-21T00:00:00	2024-11-08T00:00:00	1	Precipitación	0
108024	7	Sololá	713	San Lucas Tolimán	10	San Lucas Tolimán	2	Febrero	2023-02-21T00:00:00	2024-11-08T00:00:00	8	Radiación solar	0
108025	7	Sololá	713	San Lucas Tolimán	10	San Lucas Tolimán	2	Febrero	2023-02-21T00:00:00	2024-11-08T01:00:00	2	Temperatura media	15.7
108026	7	Sololá	713	San Lucas Tolimán	10	San Lucas Tolimán	2	Febrero	2023-02-21T00:00:00	2024-11-08T01:00:00	4	Temperatura máxima	16.2
108027	7	Sololá	713	San Lucas Tolimán	10	San Lucas Tolimán	2	Febrero	2023-02-21T00:00:00	2024-11-08T01:00:00	3	Temperatura mínima	15.6
108028	7	Sololá	713	San Lucas Tolimán	10	San Lucas Tolimán	2	Febrero	2023-02-21T00:00:00	2024-11-08T01:00:00	5	Humedad	55
108029	7	Sololá	713	San Lucas Tolimán	10	San Lucas Tolimán	2	Febrero	2023-02-21T00:00:00	2024-11-08T01:00:00	6	Velocidad del viento	1.6
108030	7	Sololá	713	San Lucas Tolimán	10	San Lucas Tolimán	2	Febrero	2023-02-21T00:00:00	2024-11-08T01:00:00	7	Dirección del viento	1.61
108031	7	Sololá	713	San Lucas Tolimán	10	San Lucas Tolimán	2	Febrero	2023-02-21T00:00:00	2024-11-08T01:00:00	1	Precipitación	0
108032	7	Sololá	713	San Lucas Tolimán	10	San Lucas Tolimán	2	Febrero	2023-02-21T00:00:00	2024-11-08T01:00:00	8	Radiación solar	0
108033	7	Sololá	713	San Lucas Tolimán	10	San Lucas Tolimán	2	Febrero	2023-02-21T00:00:00	2024-11-08T02:00:00	2	Temperatura media	15.4
108034	7	Sololá	713	San Lucas Tolimán	10	San Lucas Tolimán	2	Febrero	2023-02-21T00:00:00	2024-11-08T02:00:00	4	Temperatura máxima	15.8
108035	7	Sololá	713	San Lucas Tolimán	10	San Lucas Tolimán	2	Febrero	2023-02-21T00:00:00	2024-11-08T02:00:00	3	Temperatura mínima	15.2
108036	7	Sololá	713	San Lucas Tolimán	10	San Lucas Tolimán	2	Febrero	2023-02-21T00:00:00	2024-11-08T02:00:00	5	Humedad	56
108037	7	Sololá	713	San Lucas Tolimán	10	San Lucas Tolimán	2	Febrero	2023-02-21T00:00:00	2024-11-08T02:00:00	6	Velocidad del viento	1.6
108038	7	Sololá	713	San Lucas Tolimán	10	San Lucas Tolimán	2	Febrero	2023-02-21T00:00:00	2024-11-08T02:00:00	7	Dirección del viento	1.61
108039	7	Sololá	713	San Lucas Tolimán	10	San Lucas Tolimán	2	Febrero	2023-02-21T00:00:00	2024-11-08T02:00:00	1	Precipitación	0
108040	7	Sololá	713	San Lucas Tolimán	10	San Lucas Tolimán	2	Febrero	2023-02-21T00:00:00	2024-11-08T02:00:00	8	Radiación solar	0
108041	7	Sololá	713	San Lucas Tolimán	10	San Lucas Tolimán	2	Febrero	2023-02-21T00:00:00	2024-11-08T03:00:00	2	Temperatura media	15.6
108042	7	Sololá	713	San Lucas Tolimán	10	San Lucas Tolimán	2	Febrero	2023-02-21T00:00:00	2024-11-08T03:00:00	4	Temperatura máxima	15.8
108043	7	Sololá	713	San Lucas Tolimán	10	San Lucas Tolimán	2	Febrero	2023-02-21T00:00:00	2024-11-08T03:00:00	3	Temperatura mínima	15.3
108044	7	Sololá	713	San Lucas Tolimán	10	San Lucas Tolimán	2	Febrero	2023-02-21T00:00:00	2024-11-08T03:00:00	5	Humedad	56
108045	7	Sololá	713	San Lucas Tolimán	10	San Lucas Tolimán	2	Febrero	2023-02-21T00:00:00	2024-11-08T03:00:00	6	Velocidad del viento	1.6
108046	7	Sololá	713	San Lucas Tolimán	10	San Lucas Tolimán	2	Febrero	2023-02-21T00:00:00	2024-11-08T03:00:00	7	Dirección del viento	1.61
108047	7	Sololá	713	San Lucas Tolimán	10	San Lucas Tolimán	2	Febrero	2023-02-21T00:00:00	2024-11-08T03:00:00	1	Precipitación	0
108048	7	Sololá	713	San Lucas Tolimán	10	San Lucas Tolimán	2	Febrero	2023-02-21T00:00:00	2024-11-08T03:00:00	8	Radiación solar	0
108049	7	Sololá	713	San Lucas Tolimán	10	San Lucas Tolimán	2	Febrero	2023-02-21T00:00:00	2024-11-08T04:00:00	2	Temperatura media	15
108050	7	Sololá	713	San Lucas Tolimán	10	San Lucas Tolimán	2	Febrero	2023-02-21T00:00:00	2024-11-08T04:00:00	4	Temperatura máxima	15.6
108051	7	Sololá	713	San Lucas Tolimán	10	San Lucas Tolimán	2	Febrero	2023-02-21T00:00:00	2024-11-08T04:00:00	3	Temperatura mínima	14.9
108052	7	Sololá	713	San Lucas Tolimán	10	San Lucas Tolimán	2	Febrero	2023-02-21T00:00:00	2024-11-08T04:00:00	5	Humedad	59
108053	7	Sololá	713	San Lucas Tolimán	10	San Lucas Tolimán	2	Febrero	2023-02-21T00:00:00	2024-11-08T04:00:00	6	Velocidad del viento	3.2
108054	7	Sololá	713	San Lucas Tolimán	10	San Lucas Tolimán	2	Febrero	2023-02-21T00:00:00	2024-11-08T04:00:00	7	Dirección del viento	3.22
108055	7	Sololá	713	San Lucas Tolimán	10	San Lucas Tolimán	2	Febrero	2023-02-21T00:00:00	2024-11-08T04:00:00	1	Precipitación	0
108056	7	Sololá	713	San Lucas Tolimán	10	San Lucas Tolimán	2	Febrero	2023-02-21T00:00:00	2024-11-08T04:00:00	8	Radiación solar	0
108057	7	Sololá	713	San Lucas Tolimán	10	San Lucas Tolimán	2	Febrero	2023-02-21T00:00:00	2024-11-08T05:00:00	2	Temperatura media	14.7
108058	7	Sololá	713	San Lucas Tolimán	10	San Lucas Tolimán	2	Febrero	2023-02-21T00:00:00	2024-11-08T05:00:00	4	Temperatura máxima	15.1
108059	7	Sololá	713	San Lucas Tolimán	10	San Lucas Tolimán	2	Febrero	2023-02-21T00:00:00	2024-11-08T05:00:00	3	Temperatura mínima	14.4
108060	7	Sololá	713	San Lucas Tolimán	10	San Lucas Tolimán	2	Febrero	2023-02-21T00:00:00	2024-11-08T05:00:00	5	Humedad	59
108061	7	Sololá	713	San Lucas Tolimán	10	San Lucas Tolimán	2	Febrero	2023-02-21T00:00:00	2024-11-08T05:00:00	6	Velocidad del viento	3.2
108062	7	Sololá	713	San Lucas Tolimán	10	San Lucas Tolimán	2	Febrero	2023-02-21T00:00:00	2024-11-08T05:00:00	7	Dirección del viento	3.22
108063	7	Sololá	713	San Lucas Tolimán	10	San Lucas Tolimán	2	Febrero	2023-02-21T00:00:00	2024-11-08T05:00:00	1	Precipitación	0
108064	7	Sololá	713	San Lucas Tolimán	10	San Lucas Tolimán	2	Febrero	2023-02-21T00:00:00	2024-11-08T05:00:00	8	Radiación solar	0
108065	7	Sololá	713	San Lucas Tolimán	10	San Lucas Tolimán	2	Febrero	2023-02-21T00:00:00	2024-11-08T06:00:00	2	Temperatura media	14.1
108066	7	Sololá	713	San Lucas Tolimán	10	San Lucas Tolimán	2	Febrero	2023-02-21T00:00:00	2024-11-08T06:00:00	4	Temperatura máxima	15
108067	7	Sololá	713	San Lucas Tolimán	10	San Lucas Tolimán	2	Febrero	2023-02-21T00:00:00	2024-11-08T06:00:00	3	Temperatura mínima	14.1
108068	7	Sololá	713	San Lucas Tolimán	10	San Lucas Tolimán	2	Febrero	2023-02-21T00:00:00	2024-11-08T06:00:00	5	Humedad	60
108069	7	Sololá	713	San Lucas Tolimán	10	San Lucas Tolimán	2	Febrero	2023-02-21T00:00:00	2024-11-08T06:00:00	6	Velocidad del viento	1.6
108070	7	Sololá	713	San Lucas Tolimán	10	San Lucas Tolimán	2	Febrero	2023-02-21T00:00:00	2024-11-08T06:00:00	7	Dirección del viento	1.61
108071	7	Sololá	713	San Lucas Tolimán	10	San Lucas Tolimán	2	Febrero	2023-02-21T00:00:00	2024-11-08T06:00:00	1	Precipitación	0
108072	7	Sololá	713	San Lucas Tolimán	10	San Lucas Tolimán	2	Febrero	2023-02-21T00:00:00	2024-11-08T06:00:00	8	Radiación solar	0
108073	7	Sololá	713	San Lucas Tolimán	10	San Lucas Tolimán	2	Febrero	2023-02-21T00:00:00	2024-11-08T07:00:00	2	Temperatura media	14.6
108074	7	Sololá	713	San Lucas Tolimán	10	San Lucas Tolimán	2	Febrero	2023-02-21T00:00:00	2024-11-08T07:00:00	4	Temperatura máxima	14.6
108075	7	Sololá	713	San Lucas Tolimán	10	San Lucas Tolimán	2	Febrero	2023-02-21T00:00:00	2024-11-08T07:00:00	3	Temperatura mínima	14.1
108076	7	Sololá	713	San Lucas Tolimán	10	San Lucas Tolimán	2	Febrero	2023-02-21T00:00:00	2024-11-08T07:00:00	5	Humedad	61
108077	7	Sololá	713	San Lucas Tolimán	10	San Lucas Tolimán	2	Febrero	2023-02-21T00:00:00	2024-11-08T07:00:00	6	Velocidad del viento	1.6
108078	7	Sololá	713	San Lucas Tolimán	10	San Lucas Tolimán	2	Febrero	2023-02-21T00:00:00	2024-11-08T07:00:00	7	Dirección del viento	1.61
108079	7	Sololá	713	San Lucas Tolimán	10	San Lucas Tolimán	2	Febrero	2023-02-21T00:00:00	2024-11-08T07:00:00	1	Precipitación	0
108080	7	Sololá	713	San Lucas Tolimán	10	San Lucas Tolimán	2	Febrero	2023-02-21T00:00:00	2024-11-08T07:00:00	8	Radiación solar	15
108081	7	Sololá	713	San Lucas Tolimán	10	San Lucas Tolimán	2	Febrero	2023-02-21T00:00:00	2024-11-08T08:00:00	2	Temperatura media	15.9
108082	7	Sololá	713	San Lucas Tolimán	10	San Lucas Tolimán	2	Febrero	2023-02-21T00:00:00	2024-11-08T08:00:00	4	Temperatura máxima	15.9
108083	7	Sololá	713	San Lucas Tolimán	10	San Lucas Tolimán	2	Febrero	2023-02-21T00:00:00	2024-11-08T08:00:00	3	Temperatura mínima	14.6
108084	7	Sololá	713	San Lucas Tolimán	10	San Lucas Tolimán	2	Febrero	2023-02-21T00:00:00	2024-11-08T08:00:00	5	Humedad	60
108085	7	Sololá	713	San Lucas Tolimán	10	San Lucas Tolimán	2	Febrero	2023-02-21T00:00:00	2024-11-08T08:00:00	6	Velocidad del viento	4.8
108086	7	Sololá	713	San Lucas Tolimán	10	San Lucas Tolimán	2	Febrero	2023-02-21T00:00:00	2024-11-08T08:00:00	7	Dirección del viento	4.83
108087	7	Sololá	713	San Lucas Tolimán	10	San Lucas Tolimán	2	Febrero	2023-02-21T00:00:00	2024-11-08T08:00:00	1	Precipitación	0
108088	7	Sololá	713	San Lucas Tolimán	10	San Lucas Tolimán	2	Febrero	2023-02-21T00:00:00	2024-11-08T08:00:00	8	Radiación solar	74
108089	7	Sololá	713	San Lucas Tolimán	10	San Lucas Tolimán	2	Febrero	2023-02-21T00:00:00	2024-11-08T09:00:00	2	Temperatura media	17.8
108090	7	Sololá	713	San Lucas Tolimán	10	San Lucas Tolimán	2	Febrero	2023-02-21T00:00:00	2024-11-08T09:00:00	4	Temperatura máxima	17.9
108091	7	Sololá	713	San Lucas Tolimán	10	San Lucas Tolimán	2	Febrero	2023-02-21T00:00:00	2024-11-08T09:00:00	3	Temperatura mínima	15.9
108092	7	Sololá	713	San Lucas Tolimán	10	San Lucas Tolimán	2	Febrero	2023-02-21T00:00:00	2024-11-08T09:00:00	5	Humedad	54
108093	7	Sololá	713	San Lucas Tolimán	10	San Lucas Tolimán	2	Febrero	2023-02-21T00:00:00	2024-11-08T09:00:00	6	Velocidad del viento	6.4
108094	7	Sololá	713	San Lucas Tolimán	10	San Lucas Tolimán	2	Febrero	2023-02-21T00:00:00	2024-11-08T09:00:00	7	Dirección del viento	6.44
108095	7	Sololá	713	San Lucas Tolimán	10	San Lucas Tolimán	2	Febrero	2023-02-21T00:00:00	2024-11-08T09:00:00	1	Precipitación	0
108096	7	Sololá	713	San Lucas Tolimán	10	San Lucas Tolimán	2	Febrero	2023-02-21T00:00:00	2024-11-08T09:00:00	8	Radiación solar	360
108097	7	Sololá	713	San Lucas Tolimán	10	San Lucas Tolimán	2	Febrero	2023-02-21T00:00:00	2024-11-08T10:00:00	2	Temperatura media	19.5
108098	7	Sololá	713	San Lucas Tolimán	10	San Lucas Tolimán	2	Febrero	2023-02-21T00:00:00	2024-11-08T10:00:00	4	Temperatura máxima	19.5
108099	7	Sololá	713	San Lucas Tolimán	10	San Lucas Tolimán	2	Febrero	2023-02-21T00:00:00	2024-11-08T10:00:00	3	Temperatura mínima	17.8
108100	7	Sololá	713	San Lucas Tolimán	10	San Lucas Tolimán	2	Febrero	2023-02-21T00:00:00	2024-11-08T10:00:00	5	Humedad	49
108101	7	Sololá	713	San Lucas Tolimán	10	San Lucas Tolimán	2	Febrero	2023-02-21T00:00:00	2024-11-08T10:00:00	6	Velocidad del viento	6.4
108102	7	Sololá	713	San Lucas Tolimán	10	San Lucas Tolimán	2	Febrero	2023-02-21T00:00:00	2024-11-08T10:00:00	7	Dirección del viento	6.44
108103	7	Sololá	713	San Lucas Tolimán	10	San Lucas Tolimán	2	Febrero	2023-02-21T00:00:00	2024-11-08T10:00:00	1	Precipitación	0
108104	7	Sololá	713	San Lucas Tolimán	10	San Lucas Tolimán	2	Febrero	2023-02-21T00:00:00	2024-11-08T10:00:00	8	Radiación solar	387
108105	7	Sololá	713	San Lucas Tolimán	10	San Lucas Tolimán	2	Febrero	2023-02-21T00:00:00	2024-11-08T11:00:00	2	Temperatura media	23.1
108106	7	Sololá	713	San Lucas Tolimán	10	San Lucas Tolimán	2	Febrero	2023-02-21T00:00:00	2024-11-08T11:00:00	4	Temperatura máxima	23.1
108107	7	Sololá	713	San Lucas Tolimán	10	San Lucas Tolimán	2	Febrero	2023-02-21T00:00:00	2024-11-08T11:00:00	3	Temperatura mínima	19.4
108108	7	Sololá	713	San Lucas Tolimán	10	San Lucas Tolimán	2	Febrero	2023-02-21T00:00:00	2024-11-08T11:00:00	5	Humedad	42
108109	7	Sololá	713	San Lucas Tolimán	10	San Lucas Tolimán	2	Febrero	2023-02-21T00:00:00	2024-11-08T11:00:00	6	Velocidad del viento	3.2
108110	7	Sololá	713	San Lucas Tolimán	10	San Lucas Tolimán	2	Febrero	2023-02-21T00:00:00	2024-11-08T11:00:00	7	Dirección del viento	3.22
108111	7	Sololá	713	San Lucas Tolimán	10	San Lucas Tolimán	2	Febrero	2023-02-21T00:00:00	2024-11-08T11:00:00	1	Precipitación	0
108112	7	Sololá	713	San Lucas Tolimán	10	San Lucas Tolimán	2	Febrero	2023-02-21T00:00:00	2024-11-08T11:00:00	8	Radiación solar	651
108113	7	Sololá	713	San Lucas Tolimán	10	San Lucas Tolimán	2	Febrero	2023-02-21T00:00:00	2024-11-08T12:00:00	2	Temperatura media	23.4
108114	7	Sololá	713	San Lucas Tolimán	10	San Lucas Tolimán	2	Febrero	2023-02-21T00:00:00	2024-11-08T12:00:00	4	Temperatura máxima	23.7
108115	7	Sololá	713	San Lucas Tolimán	10	San Lucas Tolimán	2	Febrero	2023-02-21T00:00:00	2024-11-08T12:00:00	3	Temperatura mínima	23.1
108116	7	Sololá	713	San Lucas Tolimán	10	San Lucas Tolimán	2	Febrero	2023-02-21T00:00:00	2024-11-08T12:00:00	5	Humedad	41
108117	7	Sololá	713	San Lucas Tolimán	10	San Lucas Tolimán	2	Febrero	2023-02-21T00:00:00	2024-11-08T12:00:00	6	Velocidad del viento	9.7
108118	7	Sololá	713	San Lucas Tolimán	10	San Lucas Tolimán	2	Febrero	2023-02-21T00:00:00	2024-11-08T12:00:00	7	Dirección del viento	9.66
108119	7	Sololá	713	San Lucas Tolimán	10	San Lucas Tolimán	2	Febrero	2023-02-21T00:00:00	2024-11-08T12:00:00	1	Precipitación	0
108120	7	Sololá	713	San Lucas Tolimán	10	San Lucas Tolimán	2	Febrero	2023-02-21T00:00:00	2024-11-08T12:00:00	8	Radiación solar	991
108121	7	Sololá	713	San Lucas Tolimán	10	San Lucas Tolimán	2	Febrero	2023-02-21T00:00:00	2024-11-08T13:00:00	2	Temperatura media	23.7
108122	7	Sololá	713	San Lucas Tolimán	10	San Lucas Tolimán	2	Febrero	2023-02-21T00:00:00	2024-11-08T13:00:00	4	Temperatura máxima	24.8
108123	7	Sololá	713	San Lucas Tolimán	10	San Lucas Tolimán	2	Febrero	2023-02-21T00:00:00	2024-11-08T13:00:00	3	Temperatura mínima	23.4
108124	7	Sololá	713	San Lucas Tolimán	10	San Lucas Tolimán	2	Febrero	2023-02-21T00:00:00	2024-11-08T13:00:00	5	Humedad	41
108125	7	Sololá	713	San Lucas Tolimán	10	San Lucas Tolimán	2	Febrero	2023-02-21T00:00:00	2024-11-08T13:00:00	6	Velocidad del viento	11.3
108126	7	Sololá	713	San Lucas Tolimán	10	San Lucas Tolimán	2	Febrero	2023-02-21T00:00:00	2024-11-08T13:00:00	7	Dirección del viento	11.27
108127	7	Sololá	713	San Lucas Tolimán	10	San Lucas Tolimán	2	Febrero	2023-02-21T00:00:00	2024-11-08T13:00:00	1	Precipitación	0
108128	7	Sololá	713	San Lucas Tolimán	10	San Lucas Tolimán	2	Febrero	2023-02-21T00:00:00	2024-11-08T13:00:00	8	Radiación solar	1040
108129	7	Sololá	713	San Lucas Tolimán	10	San Lucas Tolimán	2	Febrero	2023-02-21T00:00:00	2024-11-08T14:00:00	2	Temperatura media	23.6
108130	7	Sololá	713	San Lucas Tolimán	10	San Lucas Tolimán	2	Febrero	2023-02-21T00:00:00	2024-11-08T14:00:00	4	Temperatura máxima	24
108131	7	Sololá	713	San Lucas Tolimán	10	San Lucas Tolimán	2	Febrero	2023-02-21T00:00:00	2024-11-08T14:00:00	3	Temperatura mínima	23.4
108132	7	Sololá	713	San Lucas Tolimán	10	San Lucas Tolimán	2	Febrero	2023-02-21T00:00:00	2024-11-08T14:00:00	5	Humedad	44
108133	7	Sololá	713	San Lucas Tolimán	10	San Lucas Tolimán	2	Febrero	2023-02-21T00:00:00	2024-11-08T14:00:00	6	Velocidad del viento	14.5
108134	7	Sololá	713	San Lucas Tolimán	10	San Lucas Tolimán	2	Febrero	2023-02-21T00:00:00	2024-11-08T14:00:00	7	Dirección del viento	14.48
108135	7	Sololá	713	San Lucas Tolimán	10	San Lucas Tolimán	2	Febrero	2023-02-21T00:00:00	2024-11-08T14:00:00	1	Precipitación	0
108136	7	Sololá	713	San Lucas Tolimán	10	San Lucas Tolimán	2	Febrero	2023-02-21T00:00:00	2024-11-08T14:00:00	8	Radiación solar	992
108137	7	Sololá	713	San Lucas Tolimán	10	San Lucas Tolimán	2	Febrero	2023-02-21T00:00:00	2024-11-08T15:00:00	2	Temperatura media	23.5
108138	7	Sololá	713	San Lucas Tolimán	10	San Lucas Tolimán	2	Febrero	2023-02-21T00:00:00	2024-11-08T15:00:00	4	Temperatura máxima	23.8
108139	7	Sololá	713	San Lucas Tolimán	10	San Lucas Tolimán	2	Febrero	2023-02-21T00:00:00	2024-11-08T15:00:00	3	Temperatura mínima	23.2
108140	7	Sololá	713	San Lucas Tolimán	10	San Lucas Tolimán	2	Febrero	2023-02-21T00:00:00	2024-11-08T15:00:00	5	Humedad	46
108141	7	Sololá	713	San Lucas Tolimán	10	San Lucas Tolimán	2	Febrero	2023-02-21T00:00:00	2024-11-08T15:00:00	6	Velocidad del viento	12.9
108142	7	Sololá	713	San Lucas Tolimán	10	San Lucas Tolimán	2	Febrero	2023-02-21T00:00:00	2024-11-08T15:00:00	7	Dirección del viento	12.87
108143	7	Sololá	713	San Lucas Tolimán	10	San Lucas Tolimán	2	Febrero	2023-02-21T00:00:00	2024-11-08T15:00:00	1	Precipitación	0
108144	7	Sololá	713	San Lucas Tolimán	10	San Lucas Tolimán	2	Febrero	2023-02-21T00:00:00	2024-11-08T15:00:00	8	Radiación solar	813
108145	7	Sololá	713	San Lucas Tolimán	10	San Lucas Tolimán	2	Febrero	2023-02-21T00:00:00	2024-11-08T16:00:00	2	Temperatura media	22.4
108146	7	Sololá	713	San Lucas Tolimán	10	San Lucas Tolimán	2	Febrero	2023-02-21T00:00:00	2024-11-08T16:00:00	4	Temperatura máxima	23.7
108147	7	Sololá	713	San Lucas Tolimán	10	San Lucas Tolimán	2	Febrero	2023-02-21T00:00:00	2024-11-08T16:00:00	3	Temperatura mínima	22.3
108148	7	Sololá	713	San Lucas Tolimán	10	San Lucas Tolimán	2	Febrero	2023-02-21T00:00:00	2024-11-08T16:00:00	5	Humedad	54
108149	7	Sololá	713	San Lucas Tolimán	10	San Lucas Tolimán	2	Febrero	2023-02-21T00:00:00	2024-11-08T16:00:00	6	Velocidad del viento	12.9
108150	7	Sololá	713	San Lucas Tolimán	10	San Lucas Tolimán	2	Febrero	2023-02-21T00:00:00	2024-11-08T16:00:00	7	Dirección del viento	12.87
108151	7	Sololá	713	San Lucas Tolimán	10	San Lucas Tolimán	2	Febrero	2023-02-21T00:00:00	2024-11-08T16:00:00	1	Precipitación	0
108152	7	Sololá	713	San Lucas Tolimán	10	San Lucas Tolimán	2	Febrero	2023-02-21T00:00:00	2024-11-08T16:00:00	8	Radiación solar	628
108153	7	Sololá	713	San Lucas Tolimán	10	San Lucas Tolimán	2	Febrero	2023-02-21T00:00:00	2024-11-08T17:00:00	2	Temperatura media	19.9
108154	7	Sololá	713	San Lucas Tolimán	10	San Lucas Tolimán	2	Febrero	2023-02-21T00:00:00	2024-11-08T17:00:00	4	Temperatura máxima	22.4
108155	7	Sololá	713	San Lucas Tolimán	10	San Lucas Tolimán	2	Febrero	2023-02-21T00:00:00	2024-11-08T17:00:00	3	Temperatura mínima	19.9
108156	7	Sololá	713	San Lucas Tolimán	10	San Lucas Tolimán	2	Febrero	2023-02-21T00:00:00	2024-11-08T17:00:00	5	Humedad	62
108157	7	Sololá	713	San Lucas Tolimán	10	San Lucas Tolimán	2	Febrero	2023-02-21T00:00:00	2024-11-08T17:00:00	6	Velocidad del viento	12.9
108158	7	Sololá	713	San Lucas Tolimán	10	San Lucas Tolimán	2	Febrero	2023-02-21T00:00:00	2024-11-08T17:00:00	7	Dirección del viento	12.87
108159	7	Sololá	713	San Lucas Tolimán	10	San Lucas Tolimán	2	Febrero	2023-02-21T00:00:00	2024-11-08T17:00:00	1	Precipitación	0
108160	7	Sololá	713	San Lucas Tolimán	10	San Lucas Tolimán	2	Febrero	2023-02-21T00:00:00	2024-11-08T17:00:00	8	Radiación solar	317
108161	7	Sololá	713	San Lucas Tolimán	10	San Lucas Tolimán	2	Febrero	2023-02-21T00:00:00	2024-11-08T18:00:00	2	Temperatura media	18.4
108162	7	Sololá	713	San Lucas Tolimán	10	San Lucas Tolimán	2	Febrero	2023-02-21T00:00:00	2024-11-08T18:00:00	4	Temperatura máxima	19.9
108163	7	Sololá	713	San Lucas Tolimán	10	San Lucas Tolimán	2	Febrero	2023-02-21T00:00:00	2024-11-08T18:00:00	3	Temperatura mínima	18.4
108164	7	Sololá	713	San Lucas Tolimán	10	San Lucas Tolimán	2	Febrero	2023-02-21T00:00:00	2024-11-08T18:00:00	5	Humedad	64
108165	7	Sololá	713	San Lucas Tolimán	10	San Lucas Tolimán	2	Febrero	2023-02-21T00:00:00	2024-11-08T18:00:00	6	Velocidad del viento	12.9
108166	7	Sololá	713	San Lucas Tolimán	10	San Lucas Tolimán	2	Febrero	2023-02-21T00:00:00	2024-11-08T18:00:00	7	Dirección del viento	12.87
108167	7	Sololá	713	San Lucas Tolimán	10	San Lucas Tolimán	2	Febrero	2023-02-21T00:00:00	2024-11-08T18:00:00	1	Precipitación	0
108168	7	Sololá	713	San Lucas Tolimán	10	San Lucas Tolimán	2	Febrero	2023-02-21T00:00:00	2024-11-08T18:00:00	8	Radiación solar	47
108169	7	Sololá	713	San Lucas Tolimán	10	San Lucas Tolimán	2	Febrero	2023-02-21T00:00:00	2024-11-08T19:00:00	2	Temperatura media	17.8
108170	7	Sololá	713	San Lucas Tolimán	10	San Lucas Tolimán	2	Febrero	2023-02-21T00:00:00	2024-11-08T19:00:00	4	Temperatura máxima	18.4
108171	7	Sololá	713	San Lucas Tolimán	10	San Lucas Tolimán	2	Febrero	2023-02-21T00:00:00	2024-11-08T19:00:00	3	Temperatura mínima	17.7
108172	7	Sololá	713	San Lucas Tolimán	10	San Lucas Tolimán	2	Febrero	2023-02-21T00:00:00	2024-11-08T19:00:00	5	Humedad	64
108173	7	Sololá	713	San Lucas Tolimán	10	San Lucas Tolimán	2	Febrero	2023-02-21T00:00:00	2024-11-08T19:00:00	6	Velocidad del viento	8
108174	7	Sololá	713	San Lucas Tolimán	10	San Lucas Tolimán	2	Febrero	2023-02-21T00:00:00	2024-11-08T19:00:00	7	Dirección del viento	8.05
108175	7	Sololá	713	San Lucas Tolimán	10	San Lucas Tolimán	2	Febrero	2023-02-21T00:00:00	2024-11-08T19:00:00	1	Precipitación	0
108176	7	Sololá	713	San Lucas Tolimán	10	San Lucas Tolimán	2	Febrero	2023-02-21T00:00:00	2024-11-08T19:00:00	8	Radiación solar	0
108177	7	Sololá	713	San Lucas Tolimán	10	San Lucas Tolimán	2	Febrero	2023-02-21T00:00:00	2024-11-08T20:00:00	2	Temperatura media	17.2
108178	7	Sololá	713	San Lucas Tolimán	10	San Lucas Tolimán	2	Febrero	2023-02-21T00:00:00	2024-11-08T20:00:00	4	Temperatura máxima	17.8
108179	7	Sololá	713	San Lucas Tolimán	10	San Lucas Tolimán	2	Febrero	2023-02-21T00:00:00	2024-11-08T20:00:00	3	Temperatura mínima	17.2
108180	7	Sololá	713	San Lucas Tolimán	10	San Lucas Tolimán	2	Febrero	2023-02-21T00:00:00	2024-11-08T20:00:00	5	Humedad	63
108181	7	Sololá	713	San Lucas Tolimán	10	San Lucas Tolimán	2	Febrero	2023-02-21T00:00:00	2024-11-08T20:00:00	6	Velocidad del viento	4.8
108182	7	Sololá	713	San Lucas Tolimán	10	San Lucas Tolimán	2	Febrero	2023-02-21T00:00:00	2024-11-08T20:00:00	7	Dirección del viento	4.83
108183	7	Sololá	713	San Lucas Tolimán	10	San Lucas Tolimán	2	Febrero	2023-02-21T00:00:00	2024-11-08T20:00:00	1	Precipitación	0
108184	7	Sololá	713	San Lucas Tolimán	10	San Lucas Tolimán	2	Febrero	2023-02-21T00:00:00	2024-11-08T20:00:00	8	Radiación solar	0
108185	7	Sololá	713	San Lucas Tolimán	10	San Lucas Tolimán	2	Febrero	2023-02-21T00:00:00	2024-11-08T21:00:00	2	Temperatura media	16.7
108186	7	Sololá	713	San Lucas Tolimán	10	San Lucas Tolimán	2	Febrero	2023-02-21T00:00:00	2024-11-08T21:00:00	4	Temperatura máxima	17.2
108187	7	Sololá	713	San Lucas Tolimán	10	San Lucas Tolimán	2	Febrero	2023-02-21T00:00:00	2024-11-08T21:00:00	3	Temperatura mínima	16.6
108188	7	Sololá	713	San Lucas Tolimán	10	San Lucas Tolimán	2	Febrero	2023-02-21T00:00:00	2024-11-08T21:00:00	5	Humedad	62
108189	7	Sololá	713	San Lucas Tolimán	10	San Lucas Tolimán	2	Febrero	2023-02-21T00:00:00	2024-11-08T21:00:00	6	Velocidad del viento	3.2
108190	7	Sololá	713	San Lucas Tolimán	10	San Lucas Tolimán	2	Febrero	2023-02-21T00:00:00	2024-11-08T21:00:00	7	Dirección del viento	3.22
108191	7	Sololá	713	San Lucas Tolimán	10	San Lucas Tolimán	2	Febrero	2023-02-21T00:00:00	2024-11-08T21:00:00	1	Precipitación	0
108192	7	Sololá	713	San Lucas Tolimán	10	San Lucas Tolimán	2	Febrero	2023-02-21T00:00:00	2024-11-08T21:00:00	8	Radiación solar	0
108193	7	Sololá	713	San Lucas Tolimán	10	San Lucas Tolimán	2	Febrero	2023-02-21T00:00:00	2024-11-08T22:00:00	2	Temperatura media	16.7
108194	7	Sololá	713	San Lucas Tolimán	10	San Lucas Tolimán	2	Febrero	2023-02-21T00:00:00	2024-11-08T22:00:00	4	Temperatura máxima	16.8
108195	7	Sololá	713	San Lucas Tolimán	10	San Lucas Tolimán	2	Febrero	2023-02-21T00:00:00	2024-11-08T22:00:00	3	Temperatura mínima	16.4
108196	7	Sololá	713	San Lucas Tolimán	10	San Lucas Tolimán	2	Febrero	2023-02-21T00:00:00	2024-11-08T22:00:00	5	Humedad	61
108197	7	Sololá	713	San Lucas Tolimán	10	San Lucas Tolimán	2	Febrero	2023-02-21T00:00:00	2024-11-08T22:00:00	6	Velocidad del viento	0
108198	7	Sololá	713	San Lucas Tolimán	10	San Lucas Tolimán	2	Febrero	2023-02-21T00:00:00	2024-11-08T22:00:00	7	Dirección del viento	0
108199	7	Sololá	713	San Lucas Tolimán	10	San Lucas Tolimán	2	Febrero	2023-02-21T00:00:00	2024-11-08T22:00:00	1	Precipitación	0
108200	7	Sololá	713	San Lucas Tolimán	10	San Lucas Tolimán	2	Febrero	2023-02-21T00:00:00	2024-11-08T22:00:00	8	Radiación solar	0
108201	7	Sololá	713	San Lucas Tolimán	10	San Lucas Tolimán	2	Febrero	2023-02-21T00:00:00	2024-11-08T23:00:00	2	Temperatura media	16.2
108202	7	Sololá	713	San Lucas Tolimán	10	San Lucas Tolimán	2	Febrero	2023-02-21T00:00:00	2024-11-08T23:00:00	4	Temperatura máxima	16.7
108203	7	Sololá	713	San Lucas Tolimán	10	San Lucas Tolimán	2	Febrero	2023-02-21T00:00:00	2024-11-08T23:00:00	3	Temperatura mínima	16.2
108204	7	Sololá	713	San Lucas Tolimán	10	San Lucas Tolimán	2	Febrero	2023-02-21T00:00:00	2024-11-08T23:00:00	5	Humedad	62
108205	7	Sololá	713	San Lucas Tolimán	10	San Lucas Tolimán	2	Febrero	2023-02-21T00:00:00	2024-11-08T23:00:00	6	Velocidad del viento	1.6
108206	7	Sololá	713	San Lucas Tolimán	10	San Lucas Tolimán	2	Febrero	2023-02-21T00:00:00	2024-11-08T23:00:00	7	Dirección del viento	1.61
108207	7	Sololá	713	San Lucas Tolimán	10	San Lucas Tolimán	2	Febrero	2023-02-21T00:00:00	2024-11-08T23:00:00	1	Precipitación	0
108208	7	Sololá	713	San Lucas Tolimán	10	San Lucas Tolimán	2	Febrero	2023-02-21T00:00:00	2024-11-08T23:00:00	8	Radiación solar	0
108209	7	Sololá	713	San Lucas Tolimán	10	San Lucas Tolimán	2	Febrero	2023-02-22T00:00:00	2024-11-08T00:00:00	2	Temperatura media	15.7
108210	7	Sololá	713	San Lucas Tolimán	10	San Lucas Tolimán	2	Febrero	2023-02-22T00:00:00	2024-11-08T00:00:00	4	Temperatura máxima	16.2
108211	7	Sololá	713	San Lucas Tolimán	10	San Lucas Tolimán	2	Febrero	2023-02-22T00:00:00	2024-11-08T00:00:00	3	Temperatura mínima	15.7
108212	7	Sololá	713	San Lucas Tolimán	10	San Lucas Tolimán	2	Febrero	2023-02-22T00:00:00	2024-11-08T00:00:00	5	Humedad	63
108213	7	Sololá	713	San Lucas Tolimán	10	San Lucas Tolimán	2	Febrero	2023-02-22T00:00:00	2024-11-08T00:00:00	6	Velocidad del viento	1.6
108214	7	Sololá	713	San Lucas Tolimán	10	San Lucas Tolimán	2	Febrero	2023-02-22T00:00:00	2024-11-08T00:00:00	7	Dirección del viento	1.61
108215	7	Sololá	713	San Lucas Tolimán	10	San Lucas Tolimán	2	Febrero	2023-02-22T00:00:00	2024-11-08T00:00:00	1	Precipitación	0
108216	7	Sololá	713	San Lucas Tolimán	10	San Lucas Tolimán	2	Febrero	2023-02-22T00:00:00	2024-11-08T00:00:00	8	Radiación solar	0
108217	7	Sololá	713	San Lucas Tolimán	10	San Lucas Tolimán	2	Febrero	2023-02-22T00:00:00	2024-11-08T01:00:00	2	Temperatura media	15.4
108218	7	Sololá	713	San Lucas Tolimán	10	San Lucas Tolimán	2	Febrero	2023-02-22T00:00:00	2024-11-08T01:00:00	4	Temperatura máxima	15.8
108219	7	Sololá	713	San Lucas Tolimán	10	San Lucas Tolimán	2	Febrero	2023-02-22T00:00:00	2024-11-08T01:00:00	3	Temperatura mínima	15.3
108220	7	Sololá	713	San Lucas Tolimán	10	San Lucas Tolimán	2	Febrero	2023-02-22T00:00:00	2024-11-08T01:00:00	5	Humedad	64
108221	7	Sololá	713	San Lucas Tolimán	10	San Lucas Tolimán	2	Febrero	2023-02-22T00:00:00	2024-11-08T01:00:00	6	Velocidad del viento	1.6
108222	7	Sololá	713	San Lucas Tolimán	10	San Lucas Tolimán	2	Febrero	2023-02-22T00:00:00	2024-11-08T01:00:00	7	Dirección del viento	1.61
108223	7	Sololá	713	San Lucas Tolimán	10	San Lucas Tolimán	2	Febrero	2023-02-22T00:00:00	2024-11-08T01:00:00	1	Precipitación	0
108224	7	Sololá	713	San Lucas Tolimán	10	San Lucas Tolimán	2	Febrero	2023-02-22T00:00:00	2024-11-08T01:00:00	8	Radiación solar	0
108225	7	Sololá	713	San Lucas Tolimán	10	San Lucas Tolimán	2	Febrero	2023-02-22T00:00:00	2024-11-08T02:00:00	2	Temperatura media	15.4
108226	7	Sololá	713	San Lucas Tolimán	10	San Lucas Tolimán	2	Febrero	2023-02-22T00:00:00	2024-11-08T02:00:00	4	Temperatura máxima	15.5
108227	7	Sololá	713	San Lucas Tolimán	10	San Lucas Tolimán	2	Febrero	2023-02-22T00:00:00	2024-11-08T02:00:00	3	Temperatura mínima	15.2
108228	7	Sololá	713	San Lucas Tolimán	10	San Lucas Tolimán	2	Febrero	2023-02-22T00:00:00	2024-11-08T02:00:00	5	Humedad	65
108229	7	Sololá	713	San Lucas Tolimán	10	San Lucas Tolimán	2	Febrero	2023-02-22T00:00:00	2024-11-08T02:00:00	6	Velocidad del viento	3.2
108230	7	Sololá	713	San Lucas Tolimán	10	San Lucas Tolimán	2	Febrero	2023-02-22T00:00:00	2024-11-08T02:00:00	7	Dirección del viento	3.22
108231	7	Sololá	713	San Lucas Tolimán	10	San Lucas Tolimán	2	Febrero	2023-02-22T00:00:00	2024-11-08T02:00:00	1	Precipitación	0
108232	7	Sololá	713	San Lucas Tolimán	10	San Lucas Tolimán	2	Febrero	2023-02-22T00:00:00	2024-11-08T02:00:00	8	Radiación solar	0
108233	7	Sololá	713	San Lucas Tolimán	10	San Lucas Tolimán	2	Febrero	2023-02-22T00:00:00	2024-11-08T03:00:00	2	Temperatura media	16.1
108234	7	Sololá	713	San Lucas Tolimán	10	San Lucas Tolimán	2	Febrero	2023-02-22T00:00:00	2024-11-08T03:00:00	4	Temperatura máxima	16.2
108235	7	Sololá	713	San Lucas Tolimán	10	San Lucas Tolimán	2	Febrero	2023-02-22T00:00:00	2024-11-08T03:00:00	3	Temperatura mínima	15.4
108236	7	Sololá	713	San Lucas Tolimán	10	San Lucas Tolimán	2	Febrero	2023-02-22T00:00:00	2024-11-08T03:00:00	5	Humedad	64
108237	7	Sololá	713	San Lucas Tolimán	10	San Lucas Tolimán	2	Febrero	2023-02-22T00:00:00	2024-11-08T03:00:00	6	Velocidad del viento	4.8
108238	7	Sololá	713	San Lucas Tolimán	10	San Lucas Tolimán	2	Febrero	2023-02-22T00:00:00	2024-11-08T03:00:00	7	Dirección del viento	4.83
108239	7	Sololá	713	San Lucas Tolimán	10	San Lucas Tolimán	2	Febrero	2023-02-22T00:00:00	2024-11-08T03:00:00	1	Precipitación	0
108240	7	Sololá	713	San Lucas Tolimán	10	San Lucas Tolimán	2	Febrero	2023-02-22T00:00:00	2024-11-08T03:00:00	8	Radiación solar	0
108241	7	Sololá	713	San Lucas Tolimán	10	San Lucas Tolimán	2	Febrero	2023-02-22T00:00:00	2024-11-08T04:00:00	2	Temperatura media	16.2
108242	7	Sololá	713	San Lucas Tolimán	10	San Lucas Tolimán	2	Febrero	2023-02-22T00:00:00	2024-11-08T04:00:00	4	Temperatura máxima	16.2
108243	7	Sololá	713	San Lucas Tolimán	10	San Lucas Tolimán	2	Febrero	2023-02-22T00:00:00	2024-11-08T04:00:00	3	Temperatura mínima	16.1
108244	7	Sololá	713	San Lucas Tolimán	10	San Lucas Tolimán	2	Febrero	2023-02-22T00:00:00	2024-11-08T04:00:00	5	Humedad	64
108245	7	Sololá	713	San Lucas Tolimán	10	San Lucas Tolimán	2	Febrero	2023-02-22T00:00:00	2024-11-08T04:00:00	6	Velocidad del viento	1.6
108246	7	Sololá	713	San Lucas Tolimán	10	San Lucas Tolimán	2	Febrero	2023-02-22T00:00:00	2024-11-08T04:00:00	7	Dirección del viento	1.61
108247	7	Sololá	713	San Lucas Tolimán	10	San Lucas Tolimán	2	Febrero	2023-02-22T00:00:00	2024-11-08T04:00:00	1	Precipitación	0
108248	7	Sololá	713	San Lucas Tolimán	10	San Lucas Tolimán	2	Febrero	2023-02-22T00:00:00	2024-11-08T04:00:00	8	Radiación solar	0
108249	7	Sololá	713	San Lucas Tolimán	10	San Lucas Tolimán	2	Febrero	2023-02-22T00:00:00	2024-11-08T05:00:00	2	Temperatura media	15.9
108250	7	Sololá	713	San Lucas Tolimán	10	San Lucas Tolimán	2	Febrero	2023-02-22T00:00:00	2024-11-08T05:00:00	4	Temperatura máxima	16.3
108251	7	Sololá	713	San Lucas Tolimán	10	San Lucas Tolimán	2	Febrero	2023-02-22T00:00:00	2024-11-08T05:00:00	3	Temperatura mínima	15.9
108252	7	Sololá	713	San Lucas Tolimán	10	San Lucas Tolimán	2	Febrero	2023-02-22T00:00:00	2024-11-08T05:00:00	5	Humedad	66
108253	7	Sololá	713	San Lucas Tolimán	10	San Lucas Tolimán	2	Febrero	2023-02-22T00:00:00	2024-11-08T05:00:00	6	Velocidad del viento	4.8
108254	7	Sololá	713	San Lucas Tolimán	10	San Lucas Tolimán	2	Febrero	2023-02-22T00:00:00	2024-11-08T05:00:00	7	Dirección del viento	4.83
108255	7	Sololá	713	San Lucas Tolimán	10	San Lucas Tolimán	2	Febrero	2023-02-22T00:00:00	2024-11-08T05:00:00	1	Precipitación	0
108256	7	Sololá	713	San Lucas Tolimán	10	San Lucas Tolimán	2	Febrero	2023-02-22T00:00:00	2024-11-08T05:00:00	8	Radiación solar	0
108257	7	Sololá	713	San Lucas Tolimán	10	San Lucas Tolimán	2	Febrero	2023-02-22T00:00:00	2024-11-08T06:00:00	2	Temperatura media	15.8
108258	7	Sololá	713	San Lucas Tolimán	10	San Lucas Tolimán	2	Febrero	2023-02-22T00:00:00	2024-11-08T06:00:00	4	Temperatura máxima	15.9
108259	7	Sololá	713	San Lucas Tolimán	10	San Lucas Tolimán	2	Febrero	2023-02-22T00:00:00	2024-11-08T06:00:00	3	Temperatura mínima	15.8
108260	7	Sololá	713	San Lucas Tolimán	10	San Lucas Tolimán	2	Febrero	2023-02-22T00:00:00	2024-11-08T06:00:00	5	Humedad	66
108261	7	Sololá	713	San Lucas Tolimán	10	San Lucas Tolimán	2	Febrero	2023-02-22T00:00:00	2024-11-08T06:00:00	6	Velocidad del viento	1.6
108262	7	Sololá	713	San Lucas Tolimán	10	San Lucas Tolimán	2	Febrero	2023-02-22T00:00:00	2024-11-08T06:00:00	7	Dirección del viento	1.61
108263	7	Sololá	713	San Lucas Tolimán	10	San Lucas Tolimán	2	Febrero	2023-02-22T00:00:00	2024-11-08T06:00:00	1	Precipitación	0
108264	7	Sololá	713	San Lucas Tolimán	10	San Lucas Tolimán	2	Febrero	2023-02-22T00:00:00	2024-11-08T06:00:00	8	Radiación solar	0
108265	7	Sololá	713	San Lucas Tolimán	10	San Lucas Tolimán	2	Febrero	2023-02-22T00:00:00	2024-11-08T07:00:00	2	Temperatura media	15.8
108266	7	Sololá	713	San Lucas Tolimán	10	San Lucas Tolimán	2	Febrero	2023-02-22T00:00:00	2024-11-08T07:00:00	4	Temperatura máxima	15.8
108267	7	Sololá	713	San Lucas Tolimán	10	San Lucas Tolimán	2	Febrero	2023-02-22T00:00:00	2024-11-08T07:00:00	3	Temperatura mínima	15.6
108268	7	Sololá	713	San Lucas Tolimán	10	San Lucas Tolimán	2	Febrero	2023-02-22T00:00:00	2024-11-08T07:00:00	5	Humedad	64
108269	7	Sololá	713	San Lucas Tolimán	10	San Lucas Tolimán	2	Febrero	2023-02-22T00:00:00	2024-11-08T07:00:00	6	Velocidad del viento	1.6
108270	7	Sololá	713	San Lucas Tolimán	10	San Lucas Tolimán	2	Febrero	2023-02-22T00:00:00	2024-11-08T07:00:00	7	Dirección del viento	1.61
108271	7	Sololá	713	San Lucas Tolimán	10	San Lucas Tolimán	2	Febrero	2023-02-22T00:00:00	2024-11-08T07:00:00	1	Precipitación	0
108272	7	Sololá	713	San Lucas Tolimán	10	San Lucas Tolimán	2	Febrero	2023-02-22T00:00:00	2024-11-08T07:00:00	8	Radiación solar	11
108273	7	Sololá	713	San Lucas Tolimán	10	San Lucas Tolimán	2	Febrero	2023-02-22T00:00:00	2024-11-08T08:00:00	2	Temperatura media	16.7
108274	7	Sololá	713	San Lucas Tolimán	10	San Lucas Tolimán	2	Febrero	2023-02-22T00:00:00	2024-11-08T08:00:00	4	Temperatura máxima	16.8
108275	7	Sololá	713	San Lucas Tolimán	10	San Lucas Tolimán	2	Febrero	2023-02-22T00:00:00	2024-11-08T08:00:00	3	Temperatura mínima	15.8
108276	7	Sololá	713	San Lucas Tolimán	10	San Lucas Tolimán	2	Febrero	2023-02-22T00:00:00	2024-11-08T08:00:00	5	Humedad	62
108277	7	Sololá	713	San Lucas Tolimán	10	San Lucas Tolimán	2	Febrero	2023-02-22T00:00:00	2024-11-08T08:00:00	6	Velocidad del viento	4.8
108278	7	Sololá	713	San Lucas Tolimán	10	San Lucas Tolimán	2	Febrero	2023-02-22T00:00:00	2024-11-08T08:00:00	7	Dirección del viento	4.83
108279	7	Sololá	713	San Lucas Tolimán	10	San Lucas Tolimán	2	Febrero	2023-02-22T00:00:00	2024-11-08T08:00:00	1	Precipitación	0
108280	7	Sololá	713	San Lucas Tolimán	10	San Lucas Tolimán	2	Febrero	2023-02-22T00:00:00	2024-11-08T08:00:00	8	Radiación solar	88
108281	7	Sololá	713	San Lucas Tolimán	10	San Lucas Tolimán	2	Febrero	2023-02-22T00:00:00	2024-11-08T09:00:00	2	Temperatura media	18.4
108282	7	Sololá	713	San Lucas Tolimán	10	San Lucas Tolimán	2	Febrero	2023-02-22T00:00:00	2024-11-08T09:00:00	4	Temperatura máxima	18.4
108283	7	Sololá	713	San Lucas Tolimán	10	San Lucas Tolimán	2	Febrero	2023-02-22T00:00:00	2024-11-08T09:00:00	3	Temperatura mínima	16.7
108284	7	Sololá	713	San Lucas Tolimán	10	San Lucas Tolimán	2	Febrero	2023-02-22T00:00:00	2024-11-08T09:00:00	5	Humedad	58
108285	7	Sololá	713	San Lucas Tolimán	10	San Lucas Tolimán	2	Febrero	2023-02-22T00:00:00	2024-11-08T09:00:00	6	Velocidad del viento	4.8
108286	7	Sololá	713	San Lucas Tolimán	10	San Lucas Tolimán	2	Febrero	2023-02-22T00:00:00	2024-11-08T09:00:00	7	Dirección del viento	4.83
108287	7	Sololá	713	San Lucas Tolimán	10	San Lucas Tolimán	2	Febrero	2023-02-22T00:00:00	2024-11-08T09:00:00	1	Precipitación	0
108288	7	Sololá	713	San Lucas Tolimán	10	San Lucas Tolimán	2	Febrero	2023-02-22T00:00:00	2024-11-08T09:00:00	8	Radiación solar	285
108289	7	Sololá	713	San Lucas Tolimán	10	San Lucas Tolimán	2	Febrero	2023-02-22T00:00:00	2024-11-08T10:00:00	2	Temperatura media	20.2
108290	7	Sololá	713	San Lucas Tolimán	10	San Lucas Tolimán	2	Febrero	2023-02-22T00:00:00	2024-11-08T10:00:00	4	Temperatura máxima	20.2
108291	7	Sololá	713	San Lucas Tolimán	10	San Lucas Tolimán	2	Febrero	2023-02-22T00:00:00	2024-11-08T10:00:00	3	Temperatura mínima	17.6
108292	7	Sololá	713	San Lucas Tolimán	10	San Lucas Tolimán	2	Febrero	2023-02-22T00:00:00	2024-11-08T10:00:00	5	Humedad	57
108293	7	Sololá	713	San Lucas Tolimán	10	San Lucas Tolimán	2	Febrero	2023-02-22T00:00:00	2024-11-08T10:00:00	6	Velocidad del viento	8
108294	7	Sololá	713	San Lucas Tolimán	10	San Lucas Tolimán	2	Febrero	2023-02-22T00:00:00	2024-11-08T10:00:00	7	Dirección del viento	8.05
108295	7	Sololá	713	San Lucas Tolimán	10	San Lucas Tolimán	2	Febrero	2023-02-22T00:00:00	2024-11-08T10:00:00	1	Precipitación	0
108296	7	Sololá	713	San Lucas Tolimán	10	San Lucas Tolimán	2	Febrero	2023-02-22T00:00:00	2024-11-08T10:00:00	8	Radiación solar	592
108297	7	Sololá	713	San Lucas Tolimán	10	San Lucas Tolimán	2	Febrero	2023-02-22T00:00:00	2024-11-08T11:00:00	2	Temperatura media	21.8
108298	7	Sololá	713	San Lucas Tolimán	10	San Lucas Tolimán	2	Febrero	2023-02-22T00:00:00	2024-11-08T11:00:00	4	Temperatura máxima	22.2
108299	7	Sololá	713	San Lucas Tolimán	10	San Lucas Tolimán	2	Febrero	2023-02-22T00:00:00	2024-11-08T11:00:00	3	Temperatura mínima	20.3
108300	7	Sololá	713	San Lucas Tolimán	10	San Lucas Tolimán	2	Febrero	2023-02-22T00:00:00	2024-11-08T11:00:00	5	Humedad	55
108301	7	Sololá	713	San Lucas Tolimán	10	San Lucas Tolimán	2	Febrero	2023-02-22T00:00:00	2024-11-08T11:00:00	6	Velocidad del viento	8
108302	7	Sololá	713	San Lucas Tolimán	10	San Lucas Tolimán	2	Febrero	2023-02-22T00:00:00	2024-11-08T11:00:00	7	Dirección del viento	8.05
108303	7	Sololá	713	San Lucas Tolimán	10	San Lucas Tolimán	2	Febrero	2023-02-22T00:00:00	2024-11-08T11:00:00	1	Precipitación	0
108304	7	Sololá	713	San Lucas Tolimán	10	San Lucas Tolimán	2	Febrero	2023-02-22T00:00:00	2024-11-08T11:00:00	8	Radiación solar	857
108305	7	Sololá	713	San Lucas Tolimán	10	San Lucas Tolimán	2	Febrero	2023-02-22T00:00:00	2024-11-08T12:00:00	2	Temperatura media	21.7
108306	7	Sololá	713	San Lucas Tolimán	10	San Lucas Tolimán	2	Febrero	2023-02-22T00:00:00	2024-11-08T12:00:00	4	Temperatura máxima	22.8
108307	7	Sololá	713	San Lucas Tolimán	10	San Lucas Tolimán	2	Febrero	2023-02-22T00:00:00	2024-11-08T12:00:00	3	Temperatura mínima	21.7
108308	7	Sololá	713	San Lucas Tolimán	10	San Lucas Tolimán	2	Febrero	2023-02-22T00:00:00	2024-11-08T12:00:00	5	Humedad	52
108309	7	Sololá	713	San Lucas Tolimán	10	San Lucas Tolimán	2	Febrero	2023-02-22T00:00:00	2024-11-08T12:00:00	6	Velocidad del viento	9.7
108310	7	Sololá	713	San Lucas Tolimán	10	San Lucas Tolimán	2	Febrero	2023-02-22T00:00:00	2024-11-08T12:00:00	7	Dirección del viento	9.66
108311	7	Sololá	713	San Lucas Tolimán	10	San Lucas Tolimán	2	Febrero	2023-02-22T00:00:00	2024-11-08T12:00:00	1	Precipitación	0
108312	7	Sololá	713	San Lucas Tolimán	10	San Lucas Tolimán	2	Febrero	2023-02-22T00:00:00	2024-11-08T12:00:00	8	Radiación solar	950
108313	7	Sololá	713	San Lucas Tolimán	10	San Lucas Tolimán	2	Febrero	2023-02-22T00:00:00	2024-11-08T13:00:00	2	Temperatura media	21.6
108314	7	Sololá	713	San Lucas Tolimán	10	San Lucas Tolimán	2	Febrero	2023-02-22T00:00:00	2024-11-08T13:00:00	4	Temperatura máxima	22.7
108315	7	Sololá	713	San Lucas Tolimán	10	San Lucas Tolimán	2	Febrero	2023-02-22T00:00:00	2024-11-08T13:00:00	3	Temperatura mínima	21.2
108316	7	Sololá	713	San Lucas Tolimán	10	San Lucas Tolimán	2	Febrero	2023-02-22T00:00:00	2024-11-08T13:00:00	5	Humedad	54
108317	7	Sololá	713	San Lucas Tolimán	10	San Lucas Tolimán	2	Febrero	2023-02-22T00:00:00	2024-11-08T13:00:00	6	Velocidad del viento	9.7
108318	7	Sololá	713	San Lucas Tolimán	10	San Lucas Tolimán	2	Febrero	2023-02-22T00:00:00	2024-11-08T13:00:00	7	Dirección del viento	9.66
108319	7	Sololá	713	San Lucas Tolimán	10	San Lucas Tolimán	2	Febrero	2023-02-22T00:00:00	2024-11-08T13:00:00	1	Precipitación	0
108320	7	Sololá	713	San Lucas Tolimán	10	San Lucas Tolimán	2	Febrero	2023-02-22T00:00:00	2024-11-08T13:00:00	8	Radiación solar	662
108321	7	Sololá	713	San Lucas Tolimán	10	San Lucas Tolimán	2	Febrero	2023-02-22T00:00:00	2024-11-08T14:00:00	2	Temperatura media	22.4
108322	7	Sololá	713	San Lucas Tolimán	10	San Lucas Tolimán	2	Febrero	2023-02-22T00:00:00	2024-11-08T14:00:00	4	Temperatura máxima	22.9
108323	7	Sololá	713	San Lucas Tolimán	10	San Lucas Tolimán	2	Febrero	2023-02-22T00:00:00	2024-11-08T14:00:00	3	Temperatura mínima	21.6
108324	7	Sololá	713	San Lucas Tolimán	10	San Lucas Tolimán	2	Febrero	2023-02-22T00:00:00	2024-11-08T14:00:00	5	Humedad	51
108325	7	Sololá	713	San Lucas Tolimán	10	San Lucas Tolimán	2	Febrero	2023-02-22T00:00:00	2024-11-08T14:00:00	6	Velocidad del viento	9.7
108326	7	Sololá	713	San Lucas Tolimán	10	San Lucas Tolimán	2	Febrero	2023-02-22T00:00:00	2024-11-08T14:00:00	7	Dirección del viento	9.66
108327	7	Sololá	713	San Lucas Tolimán	10	San Lucas Tolimán	2	Febrero	2023-02-22T00:00:00	2024-11-08T14:00:00	1	Precipitación	0
108328	7	Sololá	713	San Lucas Tolimán	10	San Lucas Tolimán	2	Febrero	2023-02-22T00:00:00	2024-11-08T14:00:00	8	Radiación solar	880
108329	7	Sololá	713	San Lucas Tolimán	10	San Lucas Tolimán	2	Febrero	2023-02-22T00:00:00	2024-11-08T15:00:00	2	Temperatura media	22.4
108330	7	Sololá	713	San Lucas Tolimán	10	San Lucas Tolimán	2	Febrero	2023-02-22T00:00:00	2024-11-08T15:00:00	4	Temperatura máxima	22.9
108331	7	Sololá	713	San Lucas Tolimán	10	San Lucas Tolimán	2	Febrero	2023-02-22T00:00:00	2024-11-08T15:00:00	3	Temperatura mínima	22.2
108332	7	Sololá	713	San Lucas Tolimán	10	San Lucas Tolimán	2	Febrero	2023-02-22T00:00:00	2024-11-08T15:00:00	5	Humedad	53
108333	7	Sololá	713	San Lucas Tolimán	10	San Lucas Tolimán	2	Febrero	2023-02-22T00:00:00	2024-11-08T15:00:00	6	Velocidad del viento	11.3
108334	7	Sololá	713	San Lucas Tolimán	10	San Lucas Tolimán	2	Febrero	2023-02-22T00:00:00	2024-11-08T15:00:00	7	Dirección del viento	11.27
108335	7	Sololá	713	San Lucas Tolimán	10	San Lucas Tolimán	2	Febrero	2023-02-22T00:00:00	2024-11-08T15:00:00	1	Precipitación	0
108336	7	Sololá	713	San Lucas Tolimán	10	San Lucas Tolimán	2	Febrero	2023-02-22T00:00:00	2024-11-08T15:00:00	8	Radiación solar	795
108337	7	Sololá	713	San Lucas Tolimán	10	San Lucas Tolimán	2	Febrero	2023-02-22T00:00:00	2024-11-08T16:00:00	2	Temperatura media	20.9
108338	7	Sololá	713	San Lucas Tolimán	10	San Lucas Tolimán	2	Febrero	2023-02-22T00:00:00	2024-11-08T16:00:00	4	Temperatura máxima	22.6
108339	7	Sololá	713	San Lucas Tolimán	10	San Lucas Tolimán	2	Febrero	2023-02-22T00:00:00	2024-11-08T16:00:00	3	Temperatura mínima	20.8
108340	7	Sololá	713	San Lucas Tolimán	10	San Lucas Tolimán	2	Febrero	2023-02-22T00:00:00	2024-11-08T16:00:00	5	Humedad	59
108341	7	Sololá	713	San Lucas Tolimán	10	San Lucas Tolimán	2	Febrero	2023-02-22T00:00:00	2024-11-08T16:00:00	6	Velocidad del viento	11.3
108342	7	Sololá	713	San Lucas Tolimán	10	San Lucas Tolimán	2	Febrero	2023-02-22T00:00:00	2024-11-08T16:00:00	7	Dirección del viento	11.27
108343	7	Sololá	713	San Lucas Tolimán	10	San Lucas Tolimán	2	Febrero	2023-02-22T00:00:00	2024-11-08T16:00:00	1	Precipitación	0
108344	7	Sololá	713	San Lucas Tolimán	10	San Lucas Tolimán	2	Febrero	2023-02-22T00:00:00	2024-11-08T16:00:00	8	Radiación solar	501
108345	7	Sololá	713	San Lucas Tolimán	10	San Lucas Tolimán	2	Febrero	2023-02-22T00:00:00	2024-11-08T17:00:00	2	Temperatura media	20.6
108346	7	Sololá	713	San Lucas Tolimán	10	San Lucas Tolimán	2	Febrero	2023-02-22T00:00:00	2024-11-08T17:00:00	4	Temperatura máxima	21.2
108347	7	Sololá	713	San Lucas Tolimán	10	San Lucas Tolimán	2	Febrero	2023-02-22T00:00:00	2024-11-08T17:00:00	3	Temperatura mínima	20.6
108348	7	Sololá	713	San Lucas Tolimán	10	San Lucas Tolimán	2	Febrero	2023-02-22T00:00:00	2024-11-08T17:00:00	5	Humedad	60
108349	7	Sololá	713	San Lucas Tolimán	10	San Lucas Tolimán	2	Febrero	2023-02-22T00:00:00	2024-11-08T17:00:00	6	Velocidad del viento	8
108350	7	Sololá	713	San Lucas Tolimán	10	San Lucas Tolimán	2	Febrero	2023-02-22T00:00:00	2024-11-08T17:00:00	7	Dirección del viento	8.05
108351	7	Sololá	713	San Lucas Tolimán	10	San Lucas Tolimán	2	Febrero	2023-02-22T00:00:00	2024-11-08T17:00:00	1	Precipitación	0
108352	7	Sololá	713	San Lucas Tolimán	10	San Lucas Tolimán	2	Febrero	2023-02-22T00:00:00	2024-11-08T17:00:00	8	Radiación solar	327
108353	7	Sololá	713	San Lucas Tolimán	10	San Lucas Tolimán	2	Febrero	2023-02-22T00:00:00	2024-11-08T18:00:00	2	Temperatura media	19
108354	7	Sololá	713	San Lucas Tolimán	10	San Lucas Tolimán	2	Febrero	2023-02-22T00:00:00	2024-11-08T18:00:00	4	Temperatura máxima	20.6
108355	7	Sololá	713	San Lucas Tolimán	10	San Lucas Tolimán	2	Febrero	2023-02-22T00:00:00	2024-11-08T18:00:00	3	Temperatura mínima	19
108356	7	Sololá	713	San Lucas Tolimán	10	San Lucas Tolimán	2	Febrero	2023-02-22T00:00:00	2024-11-08T18:00:00	5	Humedad	63
108357	7	Sololá	713	San Lucas Tolimán	10	San Lucas Tolimán	2	Febrero	2023-02-22T00:00:00	2024-11-08T18:00:00	6	Velocidad del viento	6.4
108358	7	Sololá	713	San Lucas Tolimán	10	San Lucas Tolimán	2	Febrero	2023-02-22T00:00:00	2024-11-08T18:00:00	7	Dirección del viento	6.44
108359	7	Sololá	713	San Lucas Tolimán	10	San Lucas Tolimán	2	Febrero	2023-02-22T00:00:00	2024-11-08T18:00:00	1	Precipitación	0
108360	7	Sololá	713	San Lucas Tolimán	10	San Lucas Tolimán	2	Febrero	2023-02-22T00:00:00	2024-11-08T18:00:00	8	Radiación solar	64
108361	7	Sololá	713	San Lucas Tolimán	10	San Lucas Tolimán	2	Febrero	2023-02-22T00:00:00	2024-11-08T19:00:00	2	Temperatura media	18.5
108362	7	Sololá	713	San Lucas Tolimán	10	San Lucas Tolimán	2	Febrero	2023-02-22T00:00:00	2024-11-08T19:00:00	4	Temperatura máxima	19.1
108363	7	Sololá	713	San Lucas Tolimán	10	San Lucas Tolimán	2	Febrero	2023-02-22T00:00:00	2024-11-08T19:00:00	3	Temperatura mínima	18.3
108364	7	Sololá	713	San Lucas Tolimán	10	San Lucas Tolimán	2	Febrero	2023-02-22T00:00:00	2024-11-08T19:00:00	5	Humedad	62
108365	7	Sololá	713	San Lucas Tolimán	10	San Lucas Tolimán	2	Febrero	2023-02-22T00:00:00	2024-11-08T19:00:00	6	Velocidad del viento	3.2
108366	7	Sololá	713	San Lucas Tolimán	10	San Lucas Tolimán	2	Febrero	2023-02-22T00:00:00	2024-11-08T19:00:00	7	Dirección del viento	3.22
108367	7	Sololá	713	San Lucas Tolimán	10	San Lucas Tolimán	2	Febrero	2023-02-22T00:00:00	2024-11-08T19:00:00	1	Precipitación	0
108368	7	Sololá	713	San Lucas Tolimán	10	San Lucas Tolimán	2	Febrero	2023-02-22T00:00:00	2024-11-08T19:00:00	8	Radiación solar	0
108369	7	Sololá	713	San Lucas Tolimán	10	San Lucas Tolimán	2	Febrero	2023-02-22T00:00:00	2024-11-08T20:00:00	2	Temperatura media	17.9
108370	7	Sololá	713	San Lucas Tolimán	10	San Lucas Tolimán	2	Febrero	2023-02-22T00:00:00	2024-11-08T20:00:00	4	Temperatura máxima	18.7
108371	7	Sololá	713	San Lucas Tolimán	10	San Lucas Tolimán	2	Febrero	2023-02-22T00:00:00	2024-11-08T20:00:00	3	Temperatura mínima	17.8
108372	7	Sololá	713	San Lucas Tolimán	10	San Lucas Tolimán	2	Febrero	2023-02-22T00:00:00	2024-11-08T20:00:00	5	Humedad	65
108373	7	Sololá	713	San Lucas Tolimán	10	San Lucas Tolimán	2	Febrero	2023-02-22T00:00:00	2024-11-08T20:00:00	6	Velocidad del viento	1.6
108374	7	Sololá	713	San Lucas Tolimán	10	San Lucas Tolimán	2	Febrero	2023-02-22T00:00:00	2024-11-08T20:00:00	7	Dirección del viento	1.61
108375	7	Sololá	713	San Lucas Tolimán	10	San Lucas Tolimán	2	Febrero	2023-02-22T00:00:00	2024-11-08T20:00:00	1	Precipitación	3.2
108376	7	Sololá	713	San Lucas Tolimán	10	San Lucas Tolimán	2	Febrero	2023-02-22T00:00:00	2024-11-08T20:00:00	8	Radiación solar	0
108377	7	Sololá	713	San Lucas Tolimán	10	San Lucas Tolimán	2	Febrero	2023-02-22T00:00:00	2024-11-08T21:00:00	2	Temperatura media	17.1
108378	7	Sololá	713	San Lucas Tolimán	10	San Lucas Tolimán	2	Febrero	2023-02-22T00:00:00	2024-11-08T21:00:00	4	Temperatura máxima	17.9
108379	7	Sololá	713	San Lucas Tolimán	10	San Lucas Tolimán	2	Febrero	2023-02-22T00:00:00	2024-11-08T21:00:00	3	Temperatura mínima	17.1
108380	7	Sololá	713	San Lucas Tolimán	10	San Lucas Tolimán	2	Febrero	2023-02-22T00:00:00	2024-11-08T21:00:00	5	Humedad	70
108381	7	Sololá	713	San Lucas Tolimán	10	San Lucas Tolimán	2	Febrero	2023-02-22T00:00:00	2024-11-08T21:00:00	6	Velocidad del viento	3.2
108382	7	Sololá	713	San Lucas Tolimán	10	San Lucas Tolimán	2	Febrero	2023-02-22T00:00:00	2024-11-08T21:00:00	7	Dirección del viento	3.22
108383	7	Sololá	713	San Lucas Tolimán	10	San Lucas Tolimán	2	Febrero	2023-02-22T00:00:00	2024-11-08T21:00:00	1	Precipitación	0.4
108384	7	Sololá	713	San Lucas Tolimán	10	San Lucas Tolimán	2	Febrero	2023-02-22T00:00:00	2024-11-08T21:00:00	8	Radiación solar	0
108385	7	Sololá	713	San Lucas Tolimán	10	San Lucas Tolimán	2	Febrero	2023-02-22T00:00:00	2024-11-08T22:00:00	2	Temperatura media	16.9
108386	7	Sololá	713	San Lucas Tolimán	10	San Lucas Tolimán	2	Febrero	2023-02-22T00:00:00	2024-11-08T22:00:00	4	Temperatura máxima	17.1
108387	7	Sololá	713	San Lucas Tolimán	10	San Lucas Tolimán	2	Febrero	2023-02-22T00:00:00	2024-11-08T22:00:00	3	Temperatura mínima	16.8
108388	7	Sololá	713	San Lucas Tolimán	10	San Lucas Tolimán	2	Febrero	2023-02-22T00:00:00	2024-11-08T22:00:00	5	Humedad	69
108389	7	Sololá	713	San Lucas Tolimán	10	San Lucas Tolimán	2	Febrero	2023-02-22T00:00:00	2024-11-08T22:00:00	6	Velocidad del viento	3.2
108390	7	Sololá	713	San Lucas Tolimán	10	San Lucas Tolimán	2	Febrero	2023-02-22T00:00:00	2024-11-08T22:00:00	7	Dirección del viento	3.22
108391	7	Sololá	713	San Lucas Tolimán	10	San Lucas Tolimán	2	Febrero	2023-02-22T00:00:00	2024-11-08T22:00:00	1	Precipitación	0
108392	7	Sololá	713	San Lucas Tolimán	10	San Lucas Tolimán	2	Febrero	2023-02-22T00:00:00	2024-11-08T22:00:00	8	Radiación solar	0
108393	7	Sololá	713	San Lucas Tolimán	10	San Lucas Tolimán	2	Febrero	2023-02-22T00:00:00	2024-11-08T23:00:00	2	Temperatura media	16.8
108394	7	Sololá	713	San Lucas Tolimán	10	San Lucas Tolimán	2	Febrero	2023-02-22T00:00:00	2024-11-08T23:00:00	4	Temperatura máxima	17
108395	7	Sololá	713	San Lucas Tolimán	10	San Lucas Tolimán	2	Febrero	2023-02-22T00:00:00	2024-11-08T23:00:00	3	Temperatura mínima	16.8
108396	7	Sololá	713	San Lucas Tolimán	10	San Lucas Tolimán	2	Febrero	2023-02-22T00:00:00	2024-11-08T23:00:00	5	Humedad	70
108397	7	Sololá	713	San Lucas Tolimán	10	San Lucas Tolimán	2	Febrero	2023-02-22T00:00:00	2024-11-08T23:00:00	6	Velocidad del viento	6.4
108398	7	Sololá	713	San Lucas Tolimán	10	San Lucas Tolimán	2	Febrero	2023-02-22T00:00:00	2024-11-08T23:00:00	7	Dirección del viento	6.44
108399	7	Sololá	713	San Lucas Tolimán	10	San Lucas Tolimán	2	Febrero	2023-02-22T00:00:00	2024-11-08T23:00:00	1	Precipitación	0
108400	7	Sololá	713	San Lucas Tolimán	10	San Lucas Tolimán	2	Febrero	2023-02-22T00:00:00	2024-11-08T23:00:00	8	Radiación solar	0
108401	7	Sololá	713	San Lucas Tolimán	10	San Lucas Tolimán	2	Febrero	2023-02-23T00:00:00	2024-11-08T00:00:00	2	Temperatura media	16.3
108402	7	Sololá	713	San Lucas Tolimán	10	San Lucas Tolimán	2	Febrero	2023-02-23T00:00:00	2024-11-08T00:00:00	4	Temperatura máxima	16.8
108403	7	Sololá	713	San Lucas Tolimán	10	San Lucas Tolimán	2	Febrero	2023-02-23T00:00:00	2024-11-08T00:00:00	3	Temperatura mínima	16.3
108404	7	Sololá	713	San Lucas Tolimán	10	San Lucas Tolimán	2	Febrero	2023-02-23T00:00:00	2024-11-08T00:00:00	5	Humedad	72
108405	7	Sololá	713	San Lucas Tolimán	10	San Lucas Tolimán	2	Febrero	2023-02-23T00:00:00	2024-11-08T00:00:00	6	Velocidad del viento	4.8
108406	7	Sololá	713	San Lucas Tolimán	10	San Lucas Tolimán	2	Febrero	2023-02-23T00:00:00	2024-11-08T00:00:00	7	Dirección del viento	4.83
108407	7	Sololá	713	San Lucas Tolimán	10	San Lucas Tolimán	2	Febrero	2023-02-23T00:00:00	2024-11-08T00:00:00	1	Precipitación	0
108408	7	Sololá	713	San Lucas Tolimán	10	San Lucas Tolimán	2	Febrero	2023-02-23T00:00:00	2024-11-08T00:00:00	8	Radiación solar	0
108409	7	Sololá	713	San Lucas Tolimán	10	San Lucas Tolimán	2	Febrero	2023-02-23T00:00:00	2024-11-08T01:00:00	2	Temperatura media	16.2
108410	7	Sololá	713	San Lucas Tolimán	10	San Lucas Tolimán	2	Febrero	2023-02-23T00:00:00	2024-11-08T01:00:00	4	Temperatura máxima	16.3
108411	7	Sololá	713	San Lucas Tolimán	10	San Lucas Tolimán	2	Febrero	2023-02-23T00:00:00	2024-11-08T01:00:00	3	Temperatura mínima	16.2
108412	7	Sololá	713	San Lucas Tolimán	10	San Lucas Tolimán	2	Febrero	2023-02-23T00:00:00	2024-11-08T01:00:00	5	Humedad	72
108413	7	Sololá	713	San Lucas Tolimán	10	San Lucas Tolimán	2	Febrero	2023-02-23T00:00:00	2024-11-08T01:00:00	6	Velocidad del viento	4.8
108414	7	Sololá	713	San Lucas Tolimán	10	San Lucas Tolimán	2	Febrero	2023-02-23T00:00:00	2024-11-08T01:00:00	7	Dirección del viento	4.83
108415	7	Sololá	713	San Lucas Tolimán	10	San Lucas Tolimán	2	Febrero	2023-02-23T00:00:00	2024-11-08T01:00:00	1	Precipitación	0.2
108416	7	Sololá	713	San Lucas Tolimán	10	San Lucas Tolimán	2	Febrero	2023-02-23T00:00:00	2024-11-08T01:00:00	8	Radiación solar	0
108417	7	Sololá	713	San Lucas Tolimán	10	San Lucas Tolimán	2	Febrero	2023-02-23T00:00:00	2024-11-08T02:00:00	2	Temperatura media	15.9
108418	7	Sololá	713	San Lucas Tolimán	10	San Lucas Tolimán	2	Febrero	2023-02-23T00:00:00	2024-11-08T02:00:00	4	Temperatura máxima	16.2
108419	7	Sololá	713	San Lucas Tolimán	10	San Lucas Tolimán	2	Febrero	2023-02-23T00:00:00	2024-11-08T02:00:00	3	Temperatura mínima	15.9
108420	7	Sololá	713	San Lucas Tolimán	10	San Lucas Tolimán	2	Febrero	2023-02-23T00:00:00	2024-11-08T02:00:00	5	Humedad	73
108421	7	Sololá	713	San Lucas Tolimán	10	San Lucas Tolimán	2	Febrero	2023-02-23T00:00:00	2024-11-08T02:00:00	6	Velocidad del viento	3.2
108422	7	Sololá	713	San Lucas Tolimán	10	San Lucas Tolimán	2	Febrero	2023-02-23T00:00:00	2024-11-08T02:00:00	7	Dirección del viento	3.22
108423	7	Sololá	713	San Lucas Tolimán	10	San Lucas Tolimán	2	Febrero	2023-02-23T00:00:00	2024-11-08T02:00:00	1	Precipitación	0
108424	7	Sololá	713	San Lucas Tolimán	10	San Lucas Tolimán	2	Febrero	2023-02-23T00:00:00	2024-11-08T02:00:00	8	Radiación solar	0
108425	7	Sololá	713	San Lucas Tolimán	10	San Lucas Tolimán	2	Febrero	2023-02-23T00:00:00	2024-11-08T03:00:00	2	Temperatura media	15.5
108426	7	Sololá	713	San Lucas Tolimán	10	San Lucas Tolimán	2	Febrero	2023-02-23T00:00:00	2024-11-08T03:00:00	4	Temperatura máxima	15.9
108427	7	Sololá	713	San Lucas Tolimán	10	San Lucas Tolimán	2	Febrero	2023-02-23T00:00:00	2024-11-08T03:00:00	3	Temperatura mínima	15
108428	7	Sololá	713	San Lucas Tolimán	10	San Lucas Tolimán	2	Febrero	2023-02-23T00:00:00	2024-11-08T03:00:00	5	Humedad	69
108429	7	Sololá	713	San Lucas Tolimán	10	San Lucas Tolimán	2	Febrero	2023-02-23T00:00:00	2024-11-08T03:00:00	6	Velocidad del viento	6.4
108430	7	Sololá	713	San Lucas Tolimán	10	San Lucas Tolimán	2	Febrero	2023-02-23T00:00:00	2024-11-08T03:00:00	7	Dirección del viento	6.44
108431	7	Sololá	713	San Lucas Tolimán	10	San Lucas Tolimán	2	Febrero	2023-02-23T00:00:00	2024-11-08T03:00:00	1	Precipitación	0
108432	7	Sololá	713	San Lucas Tolimán	10	San Lucas Tolimán	2	Febrero	2023-02-23T00:00:00	2024-11-08T03:00:00	8	Radiación solar	0
108433	7	Sololá	713	San Lucas Tolimán	10	San Lucas Tolimán	2	Febrero	2023-02-23T00:00:00	2024-11-08T04:00:00	2	Temperatura media	14.7
108434	7	Sololá	713	San Lucas Tolimán	10	San Lucas Tolimán	2	Febrero	2023-02-23T00:00:00	2024-11-08T04:00:00	4	Temperatura máxima	15.6
108435	7	Sololá	713	San Lucas Tolimán	10	San Lucas Tolimán	2	Febrero	2023-02-23T00:00:00	2024-11-08T04:00:00	3	Temperatura mínima	14.7
108436	7	Sololá	713	San Lucas Tolimán	10	San Lucas Tolimán	2	Febrero	2023-02-23T00:00:00	2024-11-08T04:00:00	5	Humedad	70
108437	7	Sololá	713	San Lucas Tolimán	10	San Lucas Tolimán	2	Febrero	2023-02-23T00:00:00	2024-11-08T04:00:00	6	Velocidad del viento	3.2
108438	7	Sololá	713	San Lucas Tolimán	10	San Lucas Tolimán	2	Febrero	2023-02-23T00:00:00	2024-11-08T04:00:00	7	Dirección del viento	3.22
108439	7	Sololá	713	San Lucas Tolimán	10	San Lucas Tolimán	2	Febrero	2023-02-23T00:00:00	2024-11-08T04:00:00	1	Precipitación	0
108440	7	Sololá	713	San Lucas Tolimán	10	San Lucas Tolimán	2	Febrero	2023-02-23T00:00:00	2024-11-08T04:00:00	8	Radiación solar	0
108441	7	Sololá	713	San Lucas Tolimán	10	San Lucas Tolimán	2	Febrero	2023-02-23T00:00:00	2024-11-08T05:00:00	2	Temperatura media	14.5
108442	7	Sololá	713	San Lucas Tolimán	10	San Lucas Tolimán	2	Febrero	2023-02-23T00:00:00	2024-11-08T05:00:00	4	Temperatura máxima	14.9
108443	7	Sololá	713	San Lucas Tolimán	10	San Lucas Tolimán	2	Febrero	2023-02-23T00:00:00	2024-11-08T05:00:00	3	Temperatura mínima	14.4
108444	7	Sololá	713	San Lucas Tolimán	10	San Lucas Tolimán	2	Febrero	2023-02-23T00:00:00	2024-11-08T05:00:00	5	Humedad	67
108445	7	Sololá	713	San Lucas Tolimán	10	San Lucas Tolimán	2	Febrero	2023-02-23T00:00:00	2024-11-08T05:00:00	6	Velocidad del viento	4.8
108446	7	Sololá	713	San Lucas Tolimán	10	San Lucas Tolimán	2	Febrero	2023-02-23T00:00:00	2024-11-08T05:00:00	7	Dirección del viento	4.83
108447	7	Sololá	713	San Lucas Tolimán	10	San Lucas Tolimán	2	Febrero	2023-02-23T00:00:00	2024-11-08T05:00:00	1	Precipitación	0
108448	7	Sololá	713	San Lucas Tolimán	10	San Lucas Tolimán	2	Febrero	2023-02-23T00:00:00	2024-11-08T05:00:00	8	Radiación solar	0
108449	7	Sololá	713	San Lucas Tolimán	10	San Lucas Tolimán	2	Febrero	2023-02-23T00:00:00	2024-11-08T06:00:00	2	Temperatura media	13.4
108450	7	Sololá	713	San Lucas Tolimán	10	San Lucas Tolimán	2	Febrero	2023-02-23T00:00:00	2024-11-08T06:00:00	4	Temperatura máxima	14.4
108451	7	Sololá	713	San Lucas Tolimán	10	San Lucas Tolimán	2	Febrero	2023-02-23T00:00:00	2024-11-08T06:00:00	3	Temperatura mínima	13.3
108452	7	Sololá	713	San Lucas Tolimán	10	San Lucas Tolimán	2	Febrero	2023-02-23T00:00:00	2024-11-08T06:00:00	5	Humedad	65
108453	7	Sololá	713	San Lucas Tolimán	10	San Lucas Tolimán	2	Febrero	2023-02-23T00:00:00	2024-11-08T06:00:00	6	Velocidad del viento	6.4
108454	7	Sololá	713	San Lucas Tolimán	10	San Lucas Tolimán	2	Febrero	2023-02-23T00:00:00	2024-11-08T06:00:00	7	Dirección del viento	6.44
108455	7	Sololá	713	San Lucas Tolimán	10	San Lucas Tolimán	2	Febrero	2023-02-23T00:00:00	2024-11-08T06:00:00	1	Precipitación	0
108456	7	Sololá	713	San Lucas Tolimán	10	San Lucas Tolimán	2	Febrero	2023-02-23T00:00:00	2024-11-08T06:00:00	8	Radiación solar	0
108457	7	Sololá	713	San Lucas Tolimán	10	San Lucas Tolimán	2	Febrero	2023-02-23T00:00:00	2024-11-08T07:00:00	2	Temperatura media	14.3
108458	7	Sololá	713	San Lucas Tolimán	10	San Lucas Tolimán	2	Febrero	2023-02-23T00:00:00	2024-11-08T07:00:00	4	Temperatura máxima	14.3
108459	7	Sololá	713	San Lucas Tolimán	10	San Lucas Tolimán	2	Febrero	2023-02-23T00:00:00	2024-11-08T07:00:00	3	Temperatura mínima	13.4
108460	7	Sololá	713	San Lucas Tolimán	10	San Lucas Tolimán	2	Febrero	2023-02-23T00:00:00	2024-11-08T07:00:00	5	Humedad	63
108461	7	Sololá	713	San Lucas Tolimán	10	San Lucas Tolimán	2	Febrero	2023-02-23T00:00:00	2024-11-08T07:00:00	6	Velocidad del viento	6.4
108462	7	Sololá	713	San Lucas Tolimán	10	San Lucas Tolimán	2	Febrero	2023-02-23T00:00:00	2024-11-08T07:00:00	7	Dirección del viento	6.44
108463	7	Sololá	713	San Lucas Tolimán	10	San Lucas Tolimán	2	Febrero	2023-02-23T00:00:00	2024-11-08T07:00:00	1	Precipitación	0
108464	7	Sololá	713	San Lucas Tolimán	10	San Lucas Tolimán	2	Febrero	2023-02-23T00:00:00	2024-11-08T07:00:00	8	Radiación solar	9
108465	7	Sololá	713	San Lucas Tolimán	10	San Lucas Tolimán	2	Febrero	2023-02-23T00:00:00	2024-11-08T08:00:00	2	Temperatura media	15.3
108466	7	Sololá	713	San Lucas Tolimán	10	San Lucas Tolimán	2	Febrero	2023-02-23T00:00:00	2024-11-08T08:00:00	4	Temperatura máxima	15.3
108467	7	Sololá	713	San Lucas Tolimán	10	San Lucas Tolimán	2	Febrero	2023-02-23T00:00:00	2024-11-08T08:00:00	3	Temperatura mínima	14.3
108468	7	Sololá	713	San Lucas Tolimán	10	San Lucas Tolimán	2	Febrero	2023-02-23T00:00:00	2024-11-08T08:00:00	5	Humedad	63
108469	7	Sololá	713	San Lucas Tolimán	10	San Lucas Tolimán	2	Febrero	2023-02-23T00:00:00	2024-11-08T08:00:00	6	Velocidad del viento	4.8
108470	7	Sololá	713	San Lucas Tolimán	10	San Lucas Tolimán	2	Febrero	2023-02-23T00:00:00	2024-11-08T08:00:00	7	Dirección del viento	4.83
108471	7	Sololá	713	San Lucas Tolimán	10	San Lucas Tolimán	2	Febrero	2023-02-23T00:00:00	2024-11-08T08:00:00	1	Precipitación	0
108472	7	Sololá	713	San Lucas Tolimán	10	San Lucas Tolimán	2	Febrero	2023-02-23T00:00:00	2024-11-08T08:00:00	8	Radiación solar	108
108473	7	Sololá	713	San Lucas Tolimán	10	San Lucas Tolimán	2	Febrero	2023-02-23T00:00:00	2024-11-08T09:00:00	2	Temperatura media	19
108474	7	Sololá	713	San Lucas Tolimán	10	San Lucas Tolimán	2	Febrero	2023-02-23T00:00:00	2024-11-08T09:00:00	4	Temperatura máxima	19
108475	7	Sololá	713	San Lucas Tolimán	10	San Lucas Tolimán	2	Febrero	2023-02-23T00:00:00	2024-11-08T09:00:00	3	Temperatura mínima	15.3
108476	7	Sololá	713	San Lucas Tolimán	10	San Lucas Tolimán	2	Febrero	2023-02-23T00:00:00	2024-11-08T09:00:00	5	Humedad	52
108477	7	Sololá	713	San Lucas Tolimán	10	San Lucas Tolimán	2	Febrero	2023-02-23T00:00:00	2024-11-08T09:00:00	6	Velocidad del viento	1.6
108478	7	Sololá	713	San Lucas Tolimán	10	San Lucas Tolimán	2	Febrero	2023-02-23T00:00:00	2024-11-08T09:00:00	7	Dirección del viento	1.61
108479	7	Sololá	713	San Lucas Tolimán	10	San Lucas Tolimán	2	Febrero	2023-02-23T00:00:00	2024-11-08T09:00:00	1	Precipitación	0
108480	7	Sololá	713	San Lucas Tolimán	10	San Lucas Tolimán	2	Febrero	2023-02-23T00:00:00	2024-11-08T09:00:00	8	Radiación solar	462
108481	7	Sololá	713	San Lucas Tolimán	10	San Lucas Tolimán	2	Febrero	2023-02-23T00:00:00	2024-11-08T10:00:00	2	Temperatura media	21.1
108482	7	Sololá	713	San Lucas Tolimán	10	San Lucas Tolimán	2	Febrero	2023-02-23T00:00:00	2024-11-08T10:00:00	4	Temperatura máxima	21.1
108483	7	Sololá	713	San Lucas Tolimán	10	San Lucas Tolimán	2	Febrero	2023-02-23T00:00:00	2024-11-08T10:00:00	3	Temperatura mínima	18.9
108484	7	Sololá	713	San Lucas Tolimán	10	San Lucas Tolimán	2	Febrero	2023-02-23T00:00:00	2024-11-08T10:00:00	5	Humedad	49
108485	7	Sololá	713	San Lucas Tolimán	10	San Lucas Tolimán	2	Febrero	2023-02-23T00:00:00	2024-11-08T10:00:00	6	Velocidad del viento	3.2
108486	7	Sololá	713	San Lucas Tolimán	10	San Lucas Tolimán	2	Febrero	2023-02-23T00:00:00	2024-11-08T10:00:00	7	Dirección del viento	3.22
108487	7	Sololá	713	San Lucas Tolimán	10	San Lucas Tolimán	2	Febrero	2023-02-23T00:00:00	2024-11-08T10:00:00	1	Precipitación	0
108488	7	Sololá	713	San Lucas Tolimán	10	San Lucas Tolimán	2	Febrero	2023-02-23T00:00:00	2024-11-08T10:00:00	8	Radiación solar	707
108489	7	Sololá	713	San Lucas Tolimán	10	San Lucas Tolimán	2	Febrero	2023-02-23T00:00:00	2024-11-08T11:00:00	2	Temperatura media	21.7
108490	7	Sololá	713	San Lucas Tolimán	10	San Lucas Tolimán	2	Febrero	2023-02-23T00:00:00	2024-11-08T11:00:00	4	Temperatura máxima	21.7
108491	7	Sololá	713	San Lucas Tolimán	10	San Lucas Tolimán	2	Febrero	2023-02-23T00:00:00	2024-11-08T11:00:00	3	Temperatura mínima	21.1
108492	7	Sololá	713	San Lucas Tolimán	10	San Lucas Tolimán	2	Febrero	2023-02-23T00:00:00	2024-11-08T11:00:00	5	Humedad	50
108493	7	Sololá	713	San Lucas Tolimán	10	San Lucas Tolimán	2	Febrero	2023-02-23T00:00:00	2024-11-08T11:00:00	6	Velocidad del viento	4.8
108494	7	Sololá	713	San Lucas Tolimán	10	San Lucas Tolimán	2	Febrero	2023-02-23T00:00:00	2024-11-08T11:00:00	7	Dirección del viento	4.83
108495	7	Sololá	713	San Lucas Tolimán	10	San Lucas Tolimán	2	Febrero	2023-02-23T00:00:00	2024-11-08T11:00:00	1	Precipitación	0
108496	7	Sololá	713	San Lucas Tolimán	10	San Lucas Tolimán	2	Febrero	2023-02-23T00:00:00	2024-11-08T11:00:00	8	Radiación solar	894
108497	7	Sololá	713	San Lucas Tolimán	10	San Lucas Tolimán	2	Febrero	2023-02-23T00:00:00	2024-11-08T12:00:00	2	Temperatura media	20.9
108498	7	Sololá	713	San Lucas Tolimán	10	San Lucas Tolimán	2	Febrero	2023-02-23T00:00:00	2024-11-08T12:00:00	4	Temperatura máxima	22.3
108499	7	Sololá	713	San Lucas Tolimán	10	San Lucas Tolimán	2	Febrero	2023-02-23T00:00:00	2024-11-08T12:00:00	3	Temperatura mínima	20.9
108500	7	Sololá	713	San Lucas Tolimán	10	San Lucas Tolimán	2	Febrero	2023-02-23T00:00:00	2024-11-08T12:00:00	5	Humedad	54
108501	7	Sololá	713	San Lucas Tolimán	10	San Lucas Tolimán	2	Febrero	2023-02-23T00:00:00	2024-11-08T12:00:00	6	Velocidad del viento	11.3
108502	7	Sololá	713	San Lucas Tolimán	10	San Lucas Tolimán	2	Febrero	2023-02-23T00:00:00	2024-11-08T12:00:00	7	Dirección del viento	11.27
108503	7	Sololá	713	San Lucas Tolimán	10	San Lucas Tolimán	2	Febrero	2023-02-23T00:00:00	2024-11-08T12:00:00	1	Precipitación	0
108504	7	Sololá	713	San Lucas Tolimán	10	San Lucas Tolimán	2	Febrero	2023-02-23T00:00:00	2024-11-08T12:00:00	8	Radiación solar	1008
108505	7	Sololá	713	San Lucas Tolimán	10	San Lucas Tolimán	2	Febrero	2023-02-23T00:00:00	2024-11-08T13:00:00	2	Temperatura media	20.4
108506	7	Sololá	713	San Lucas Tolimán	10	San Lucas Tolimán	2	Febrero	2023-02-23T00:00:00	2024-11-08T13:00:00	4	Temperatura máxima	21.1
108507	7	Sololá	713	San Lucas Tolimán	10	San Lucas Tolimán	2	Febrero	2023-02-23T00:00:00	2024-11-08T13:00:00	3	Temperatura mínima	20
108508	7	Sololá	713	San Lucas Tolimán	10	San Lucas Tolimán	2	Febrero	2023-02-23T00:00:00	2024-11-08T13:00:00	5	Humedad	57
108509	7	Sololá	713	San Lucas Tolimán	10	San Lucas Tolimán	2	Febrero	2023-02-23T00:00:00	2024-11-08T13:00:00	6	Velocidad del viento	16.1
108510	7	Sololá	713	San Lucas Tolimán	10	San Lucas Tolimán	2	Febrero	2023-02-23T00:00:00	2024-11-08T13:00:00	7	Dirección del viento	16.09
108511	7	Sololá	713	San Lucas Tolimán	10	San Lucas Tolimán	2	Febrero	2023-02-23T00:00:00	2024-11-08T13:00:00	1	Precipitación	0
108512	7	Sololá	713	San Lucas Tolimán	10	San Lucas Tolimán	2	Febrero	2023-02-23T00:00:00	2024-11-08T13:00:00	8	Radiación solar	1020
108513	7	Sololá	713	San Lucas Tolimán	10	San Lucas Tolimán	2	Febrero	2023-02-23T00:00:00	2024-11-08T14:00:00	2	Temperatura media	19.9
108514	7	Sololá	713	San Lucas Tolimán	10	San Lucas Tolimán	2	Febrero	2023-02-23T00:00:00	2024-11-08T14:00:00	4	Temperatura máxima	20.8
108515	7	Sololá	713	San Lucas Tolimán	10	San Lucas Tolimán	2	Febrero	2023-02-23T00:00:00	2024-11-08T14:00:00	3	Temperatura mínima	19.2
108516	7	Sololá	713	San Lucas Tolimán	10	San Lucas Tolimán	2	Febrero	2023-02-23T00:00:00	2024-11-08T14:00:00	5	Humedad	59
108517	7	Sololá	713	San Lucas Tolimán	10	San Lucas Tolimán	2	Febrero	2023-02-23T00:00:00	2024-11-08T14:00:00	6	Velocidad del viento	14.5
108518	7	Sololá	713	San Lucas Tolimán	10	San Lucas Tolimán	2	Febrero	2023-02-23T00:00:00	2024-11-08T14:00:00	7	Dirección del viento	14.48
108519	7	Sololá	713	San Lucas Tolimán	10	San Lucas Tolimán	2	Febrero	2023-02-23T00:00:00	2024-11-08T14:00:00	1	Precipitación	0
108520	7	Sololá	713	San Lucas Tolimán	10	San Lucas Tolimán	2	Febrero	2023-02-23T00:00:00	2024-11-08T14:00:00	8	Radiación solar	626
108521	7	Sololá	713	San Lucas Tolimán	10	San Lucas Tolimán	2	Febrero	2023-02-23T00:00:00	2024-11-08T15:00:00	2	Temperatura media	19.7
108522	7	Sololá	713	San Lucas Tolimán	10	San Lucas Tolimán	2	Febrero	2023-02-23T00:00:00	2024-11-08T15:00:00	4	Temperatura máxima	20.5
108523	7	Sololá	713	San Lucas Tolimán	10	San Lucas Tolimán	2	Febrero	2023-02-23T00:00:00	2024-11-08T15:00:00	3	Temperatura mínima	19.4
108524	7	Sololá	713	San Lucas Tolimán	10	San Lucas Tolimán	2	Febrero	2023-02-23T00:00:00	2024-11-08T15:00:00	5	Humedad	60
108525	7	Sololá	713	San Lucas Tolimán	10	San Lucas Tolimán	2	Febrero	2023-02-23T00:00:00	2024-11-08T15:00:00	6	Velocidad del viento	14.5
108526	7	Sololá	713	San Lucas Tolimán	10	San Lucas Tolimán	2	Febrero	2023-02-23T00:00:00	2024-11-08T15:00:00	7	Dirección del viento	14.48
108527	7	Sololá	713	San Lucas Tolimán	10	San Lucas Tolimán	2	Febrero	2023-02-23T00:00:00	2024-11-08T15:00:00	1	Precipitación	0
108528	7	Sololá	713	San Lucas Tolimán	10	San Lucas Tolimán	2	Febrero	2023-02-23T00:00:00	2024-11-08T15:00:00	8	Radiación solar	649
108529	7	Sololá	713	San Lucas Tolimán	10	San Lucas Tolimán	2	Febrero	2023-02-23T00:00:00	2024-11-08T16:00:00	2	Temperatura media	19.1
108530	7	Sololá	713	San Lucas Tolimán	10	San Lucas Tolimán	2	Febrero	2023-02-23T00:00:00	2024-11-08T16:00:00	4	Temperatura máxima	20.3
108531	7	Sololá	713	San Lucas Tolimán	10	San Lucas Tolimán	2	Febrero	2023-02-23T00:00:00	2024-11-08T16:00:00	3	Temperatura mínima	19.1
108532	7	Sololá	713	San Lucas Tolimán	10	San Lucas Tolimán	2	Febrero	2023-02-23T00:00:00	2024-11-08T16:00:00	5	Humedad	62
108533	7	Sololá	713	San Lucas Tolimán	10	San Lucas Tolimán	2	Febrero	2023-02-23T00:00:00	2024-11-08T16:00:00	6	Velocidad del viento	11.3
108534	7	Sololá	713	San Lucas Tolimán	10	San Lucas Tolimán	2	Febrero	2023-02-23T00:00:00	2024-11-08T16:00:00	7	Dirección del viento	11.27
108535	7	Sololá	713	San Lucas Tolimán	10	San Lucas Tolimán	2	Febrero	2023-02-23T00:00:00	2024-11-08T16:00:00	1	Precipitación	0
108536	7	Sololá	713	San Lucas Tolimán	10	San Lucas Tolimán	2	Febrero	2023-02-23T00:00:00	2024-11-08T16:00:00	8	Radiación solar	352
108537	7	Sololá	713	San Lucas Tolimán	10	San Lucas Tolimán	2	Febrero	2023-02-23T00:00:00	2024-11-08T17:00:00	2	Temperatura media	18.5
108538	7	Sololá	713	San Lucas Tolimán	10	San Lucas Tolimán	2	Febrero	2023-02-23T00:00:00	2024-11-08T17:00:00	4	Temperatura máxima	19.3
108539	7	Sololá	713	San Lucas Tolimán	10	San Lucas Tolimán	2	Febrero	2023-02-23T00:00:00	2024-11-08T17:00:00	3	Temperatura mínima	18.5
108540	7	Sololá	713	San Lucas Tolimán	10	San Lucas Tolimán	2	Febrero	2023-02-23T00:00:00	2024-11-08T17:00:00	5	Humedad	66
108541	7	Sololá	713	San Lucas Tolimán	10	San Lucas Tolimán	2	Febrero	2023-02-23T00:00:00	2024-11-08T17:00:00	6	Velocidad del viento	9.7
108542	7	Sololá	713	San Lucas Tolimán	10	San Lucas Tolimán	2	Febrero	2023-02-23T00:00:00	2024-11-08T17:00:00	7	Dirección del viento	9.66
108543	7	Sololá	713	San Lucas Tolimán	10	San Lucas Tolimán	2	Febrero	2023-02-23T00:00:00	2024-11-08T17:00:00	1	Precipitación	0
108544	7	Sololá	713	San Lucas Tolimán	10	San Lucas Tolimán	2	Febrero	2023-02-23T00:00:00	2024-11-08T17:00:00	8	Radiación solar	151
108545	7	Sololá	713	San Lucas Tolimán	10	San Lucas Tolimán	2	Febrero	2023-02-23T00:00:00	2024-11-08T18:00:00	2	Temperatura media	17.6
108546	7	Sololá	713	San Lucas Tolimán	10	San Lucas Tolimán	2	Febrero	2023-02-23T00:00:00	2024-11-08T18:00:00	4	Temperatura máxima	18.5
108547	7	Sololá	713	San Lucas Tolimán	10	San Lucas Tolimán	2	Febrero	2023-02-23T00:00:00	2024-11-08T18:00:00	3	Temperatura mínima	17.6
108548	7	Sololá	713	San Lucas Tolimán	10	San Lucas Tolimán	2	Febrero	2023-02-23T00:00:00	2024-11-08T18:00:00	5	Humedad	68
108549	7	Sololá	713	San Lucas Tolimán	10	San Lucas Tolimán	2	Febrero	2023-02-23T00:00:00	2024-11-08T18:00:00	6	Velocidad del viento	8
108550	7	Sololá	713	San Lucas Tolimán	10	San Lucas Tolimán	2	Febrero	2023-02-23T00:00:00	2024-11-08T18:00:00	7	Dirección del viento	8.05
108551	7	Sololá	713	San Lucas Tolimán	10	San Lucas Tolimán	2	Febrero	2023-02-23T00:00:00	2024-11-08T18:00:00	1	Precipitación	0
108552	7	Sololá	713	San Lucas Tolimán	10	San Lucas Tolimán	2	Febrero	2023-02-23T00:00:00	2024-11-08T18:00:00	8	Radiación solar	31
108553	7	Sololá	713	San Lucas Tolimán	10	San Lucas Tolimán	2	Febrero	2023-02-23T00:00:00	2024-11-08T19:00:00	2	Temperatura media	17.6
108554	7	Sololá	713	San Lucas Tolimán	10	San Lucas Tolimán	2	Febrero	2023-02-23T00:00:00	2024-11-08T19:00:00	4	Temperatura máxima	17.6
108555	7	Sololá	713	San Lucas Tolimán	10	San Lucas Tolimán	2	Febrero	2023-02-23T00:00:00	2024-11-08T19:00:00	3	Temperatura mínima	17.3
108556	7	Sololá	713	San Lucas Tolimán	10	San Lucas Tolimán	2	Febrero	2023-02-23T00:00:00	2024-11-08T19:00:00	5	Humedad	66
108557	7	Sololá	713	San Lucas Tolimán	10	San Lucas Tolimán	2	Febrero	2023-02-23T00:00:00	2024-11-08T19:00:00	6	Velocidad del viento	4.8
108558	7	Sololá	713	San Lucas Tolimán	10	San Lucas Tolimán	2	Febrero	2023-02-23T00:00:00	2024-11-08T19:00:00	7	Dirección del viento	4.83
108559	7	Sololá	713	San Lucas Tolimán	10	San Lucas Tolimán	2	Febrero	2023-02-23T00:00:00	2024-11-08T19:00:00	1	Precipitación	0
108560	7	Sololá	713	San Lucas Tolimán	10	San Lucas Tolimán	2	Febrero	2023-02-23T00:00:00	2024-11-08T19:00:00	8	Radiación solar	0
108561	7	Sololá	713	San Lucas Tolimán	10	San Lucas Tolimán	2	Febrero	2023-02-23T00:00:00	2024-11-08T20:00:00	2	Temperatura media	17.4
108562	7	Sololá	713	San Lucas Tolimán	10	San Lucas Tolimán	2	Febrero	2023-02-23T00:00:00	2024-11-08T20:00:00	4	Temperatura máxima	17.8
108563	7	Sololá	713	San Lucas Tolimán	10	San Lucas Tolimán	2	Febrero	2023-02-23T00:00:00	2024-11-08T20:00:00	3	Temperatura mínima	17.3
108564	7	Sololá	713	San Lucas Tolimán	10	San Lucas Tolimán	2	Febrero	2023-02-23T00:00:00	2024-11-08T20:00:00	5	Humedad	67
108565	7	Sololá	713	San Lucas Tolimán	10	San Lucas Tolimán	2	Febrero	2023-02-23T00:00:00	2024-11-08T20:00:00	6	Velocidad del viento	4.8
108566	7	Sololá	713	San Lucas Tolimán	10	San Lucas Tolimán	2	Febrero	2023-02-23T00:00:00	2024-11-08T20:00:00	7	Dirección del viento	4.83
108567	7	Sololá	713	San Lucas Tolimán	10	San Lucas Tolimán	2	Febrero	2023-02-23T00:00:00	2024-11-08T20:00:00	1	Precipitación	0
108568	7	Sololá	713	San Lucas Tolimán	10	San Lucas Tolimán	2	Febrero	2023-02-23T00:00:00	2024-11-08T20:00:00	8	Radiación solar	0
108569	7	Sololá	713	San Lucas Tolimán	10	San Lucas Tolimán	2	Febrero	2023-02-23T00:00:00	2024-11-08T21:00:00	2	Temperatura media	16.8
108570	7	Sololá	713	San Lucas Tolimán	10	San Lucas Tolimán	2	Febrero	2023-02-23T00:00:00	2024-11-08T21:00:00	4	Temperatura máxima	17.6
108571	7	Sololá	713	San Lucas Tolimán	10	San Lucas Tolimán	2	Febrero	2023-02-23T00:00:00	2024-11-08T21:00:00	3	Temperatura mínima	16.7
108572	7	Sololá	713	San Lucas Tolimán	10	San Lucas Tolimán	2	Febrero	2023-02-23T00:00:00	2024-11-08T21:00:00	5	Humedad	67
108573	7	Sololá	713	San Lucas Tolimán	10	San Lucas Tolimán	2	Febrero	2023-02-23T00:00:00	2024-11-08T21:00:00	6	Velocidad del viento	1.6
108574	7	Sololá	713	San Lucas Tolimán	10	San Lucas Tolimán	2	Febrero	2023-02-23T00:00:00	2024-11-08T21:00:00	7	Dirección del viento	1.61
108575	7	Sololá	713	San Lucas Tolimán	10	San Lucas Tolimán	2	Febrero	2023-02-23T00:00:00	2024-11-08T21:00:00	1	Precipitación	0
108576	7	Sololá	713	San Lucas Tolimán	10	San Lucas Tolimán	2	Febrero	2023-02-23T00:00:00	2024-11-08T21:00:00	8	Radiación solar	0
108577	7	Sololá	713	San Lucas Tolimán	10	San Lucas Tolimán	2	Febrero	2023-02-23T00:00:00	2024-11-08T22:00:00	2	Temperatura media	16.6
108578	7	Sololá	713	San Lucas Tolimán	10	San Lucas Tolimán	2	Febrero	2023-02-23T00:00:00	2024-11-08T22:00:00	4	Temperatura máxima	16.9
108579	7	Sololá	713	San Lucas Tolimán	10	San Lucas Tolimán	2	Febrero	2023-02-23T00:00:00	2024-11-08T22:00:00	3	Temperatura mínima	16.6
108580	7	Sololá	713	San Lucas Tolimán	10	San Lucas Tolimán	2	Febrero	2023-02-23T00:00:00	2024-11-08T22:00:00	5	Humedad	66
108581	7	Sololá	713	San Lucas Tolimán	10	San Lucas Tolimán	2	Febrero	2023-02-23T00:00:00	2024-11-08T22:00:00	6	Velocidad del viento	1.6
108582	7	Sololá	713	San Lucas Tolimán	10	San Lucas Tolimán	2	Febrero	2023-02-23T00:00:00	2024-11-08T22:00:00	7	Dirección del viento	1.61
108583	7	Sololá	713	San Lucas Tolimán	10	San Lucas Tolimán	2	Febrero	2023-02-23T00:00:00	2024-11-08T22:00:00	1	Precipitación	0
108584	7	Sololá	713	San Lucas Tolimán	10	San Lucas Tolimán	2	Febrero	2023-02-23T00:00:00	2024-11-08T22:00:00	8	Radiación solar	0
108585	7	Sololá	713	San Lucas Tolimán	10	San Lucas Tolimán	2	Febrero	2023-02-23T00:00:00	2024-11-08T23:00:00	2	Temperatura media	17.7
108586	7	Sololá	713	San Lucas Tolimán	10	San Lucas Tolimán	2	Febrero	2023-02-23T00:00:00	2024-11-08T23:00:00	4	Temperatura máxima	18.1
108587	7	Sololá	713	San Lucas Tolimán	10	San Lucas Tolimán	2	Febrero	2023-02-23T00:00:00	2024-11-08T23:00:00	3	Temperatura mínima	16.3
108588	7	Sololá	713	San Lucas Tolimán	10	San Lucas Tolimán	2	Febrero	2023-02-23T00:00:00	2024-11-08T23:00:00	5	Humedad	54
108589	7	Sololá	713	San Lucas Tolimán	10	San Lucas Tolimán	2	Febrero	2023-02-23T00:00:00	2024-11-08T23:00:00	6	Velocidad del viento	8
108590	7	Sololá	713	San Lucas Tolimán	10	San Lucas Tolimán	2	Febrero	2023-02-23T00:00:00	2024-11-08T23:00:00	7	Dirección del viento	8.05
108591	7	Sololá	713	San Lucas Tolimán	10	San Lucas Tolimán	2	Febrero	2023-02-23T00:00:00	2024-11-08T23:00:00	1	Precipitación	0
108592	7	Sololá	713	San Lucas Tolimán	10	San Lucas Tolimán	2	Febrero	2023-02-23T00:00:00	2024-11-08T23:00:00	8	Radiación solar	0
108593	7	Sololá	713	San Lucas Tolimán	10	San Lucas Tolimán	2	Febrero	2023-02-24T00:00:00	2024-11-08T00:00:00	2	Temperatura media	16.7
108594	7	Sololá	713	San Lucas Tolimán	10	San Lucas Tolimán	2	Febrero	2023-02-24T00:00:00	2024-11-08T00:00:00	4	Temperatura máxima	17.7
108595	7	Sololá	713	San Lucas Tolimán	10	San Lucas Tolimán	2	Febrero	2023-02-24T00:00:00	2024-11-08T00:00:00	3	Temperatura mínima	16
108596	7	Sololá	713	San Lucas Tolimán	10	San Lucas Tolimán	2	Febrero	2023-02-24T00:00:00	2024-11-08T00:00:00	5	Humedad	58
108597	7	Sololá	713	San Lucas Tolimán	10	San Lucas Tolimán	2	Febrero	2023-02-24T00:00:00	2024-11-08T00:00:00	6	Velocidad del viento	1.6
108598	7	Sololá	713	San Lucas Tolimán	10	San Lucas Tolimán	2	Febrero	2023-02-24T00:00:00	2024-11-08T00:00:00	7	Dirección del viento	1.61
108599	7	Sololá	713	San Lucas Tolimán	10	San Lucas Tolimán	2	Febrero	2023-02-24T00:00:00	2024-11-08T00:00:00	1	Precipitación	0
108600	7	Sololá	713	San Lucas Tolimán	10	San Lucas Tolimán	2	Febrero	2023-02-24T00:00:00	2024-11-08T00:00:00	8	Radiación solar	0
108601	7	Sololá	713	San Lucas Tolimán	10	San Lucas Tolimán	2	Febrero	2023-02-24T00:00:00	2024-11-08T01:00:00	2	Temperatura media	15.6
108602	7	Sololá	713	San Lucas Tolimán	10	San Lucas Tolimán	2	Febrero	2023-02-24T00:00:00	2024-11-08T01:00:00	4	Temperatura máxima	17
108603	7	Sololá	713	San Lucas Tolimán	10	San Lucas Tolimán	2	Febrero	2023-02-24T00:00:00	2024-11-08T01:00:00	3	Temperatura mínima	15.6
108604	7	Sololá	713	San Lucas Tolimán	10	San Lucas Tolimán	2	Febrero	2023-02-24T00:00:00	2024-11-08T01:00:00	5	Humedad	61
108605	7	Sololá	713	San Lucas Tolimán	10	San Lucas Tolimán	2	Febrero	2023-02-24T00:00:00	2024-11-08T01:00:00	6	Velocidad del viento	1.6
108606	7	Sololá	713	San Lucas Tolimán	10	San Lucas Tolimán	2	Febrero	2023-02-24T00:00:00	2024-11-08T01:00:00	7	Dirección del viento	1.61
108607	7	Sololá	713	San Lucas Tolimán	10	San Lucas Tolimán	2	Febrero	2023-02-24T00:00:00	2024-11-08T01:00:00	1	Precipitación	0
108608	7	Sololá	713	San Lucas Tolimán	10	San Lucas Tolimán	2	Febrero	2023-02-24T00:00:00	2024-11-08T01:00:00	8	Radiación solar	0
108609	7	Sololá	713	San Lucas Tolimán	10	San Lucas Tolimán	2	Febrero	2023-02-24T00:00:00	2024-11-08T02:00:00	2	Temperatura media	15.4
108610	7	Sololá	713	San Lucas Tolimán	10	San Lucas Tolimán	2	Febrero	2023-02-24T00:00:00	2024-11-08T02:00:00	4	Temperatura máxima	16.4
108611	7	Sololá	713	San Lucas Tolimán	10	San Lucas Tolimán	2	Febrero	2023-02-24T00:00:00	2024-11-08T02:00:00	3	Temperatura mínima	15.3
108612	7	Sololá	713	San Lucas Tolimán	10	San Lucas Tolimán	2	Febrero	2023-02-24T00:00:00	2024-11-08T02:00:00	5	Humedad	62
108613	7	Sololá	713	San Lucas Tolimán	10	San Lucas Tolimán	2	Febrero	2023-02-24T00:00:00	2024-11-08T02:00:00	6	Velocidad del viento	1.6
108614	7	Sololá	713	San Lucas Tolimán	10	San Lucas Tolimán	2	Febrero	2023-02-24T00:00:00	2024-11-08T02:00:00	7	Dirección del viento	1.61
108615	7	Sololá	713	San Lucas Tolimán	10	San Lucas Tolimán	2	Febrero	2023-02-24T00:00:00	2024-11-08T02:00:00	1	Precipitación	0
108616	7	Sololá	713	San Lucas Tolimán	10	San Lucas Tolimán	2	Febrero	2023-02-24T00:00:00	2024-11-08T02:00:00	8	Radiación solar	0
108617	7	Sololá	713	San Lucas Tolimán	10	San Lucas Tolimán	2	Febrero	2023-02-24T00:00:00	2024-11-08T03:00:00	2	Temperatura media	16.2
108618	7	Sololá	713	San Lucas Tolimán	10	San Lucas Tolimán	2	Febrero	2023-02-24T00:00:00	2024-11-08T03:00:00	4	Temperatura máxima	16.3
108619	7	Sololá	713	San Lucas Tolimán	10	San Lucas Tolimán	2	Febrero	2023-02-24T00:00:00	2024-11-08T03:00:00	3	Temperatura mínima	15.4
108620	7	Sololá	713	San Lucas Tolimán	10	San Lucas Tolimán	2	Febrero	2023-02-24T00:00:00	2024-11-08T03:00:00	5	Humedad	57
108621	7	Sololá	713	San Lucas Tolimán	10	San Lucas Tolimán	2	Febrero	2023-02-24T00:00:00	2024-11-08T03:00:00	6	Velocidad del viento	3.2
108622	7	Sololá	713	San Lucas Tolimán	10	San Lucas Tolimán	2	Febrero	2023-02-24T00:00:00	2024-11-08T03:00:00	7	Dirección del viento	3.22
108623	7	Sololá	713	San Lucas Tolimán	10	San Lucas Tolimán	2	Febrero	2023-02-24T00:00:00	2024-11-08T03:00:00	1	Precipitación	0
108624	7	Sololá	713	San Lucas Tolimán	10	San Lucas Tolimán	2	Febrero	2023-02-24T00:00:00	2024-11-08T03:00:00	8	Radiación solar	0
108625	7	Sololá	713	San Lucas Tolimán	10	San Lucas Tolimán	2	Febrero	2023-02-24T00:00:00	2024-11-08T04:00:00	2	Temperatura media	16.9
108626	7	Sololá	713	San Lucas Tolimán	10	San Lucas Tolimán	2	Febrero	2023-02-24T00:00:00	2024-11-08T04:00:00	4	Temperatura máxima	16.9
108627	7	Sololá	713	San Lucas Tolimán	10	San Lucas Tolimán	2	Febrero	2023-02-24T00:00:00	2024-11-08T04:00:00	3	Temperatura mínima	16.2
108628	7	Sololá	713	San Lucas Tolimán	10	San Lucas Tolimán	2	Febrero	2023-02-24T00:00:00	2024-11-08T04:00:00	5	Humedad	52
108629	7	Sololá	713	San Lucas Tolimán	10	San Lucas Tolimán	2	Febrero	2023-02-24T00:00:00	2024-11-08T04:00:00	6	Velocidad del viento	6.4
108630	7	Sololá	713	San Lucas Tolimán	10	San Lucas Tolimán	2	Febrero	2023-02-24T00:00:00	2024-11-08T04:00:00	7	Dirección del viento	6.44
108631	7	Sololá	713	San Lucas Tolimán	10	San Lucas Tolimán	2	Febrero	2023-02-24T00:00:00	2024-11-08T04:00:00	1	Precipitación	0
108632	7	Sololá	713	San Lucas Tolimán	10	San Lucas Tolimán	2	Febrero	2023-02-24T00:00:00	2024-11-08T04:00:00	8	Radiación solar	0
108633	7	Sololá	713	San Lucas Tolimán	10	San Lucas Tolimán	2	Febrero	2023-02-24T00:00:00	2024-11-08T05:00:00	2	Temperatura media	16.4
108634	7	Sololá	713	San Lucas Tolimán	10	San Lucas Tolimán	2	Febrero	2023-02-24T00:00:00	2024-11-08T05:00:00	4	Temperatura máxima	17.1
108635	7	Sololá	713	San Lucas Tolimán	10	San Lucas Tolimán	2	Febrero	2023-02-24T00:00:00	2024-11-08T05:00:00	3	Temperatura mínima	16.4
108636	7	Sololá	713	San Lucas Tolimán	10	San Lucas Tolimán	2	Febrero	2023-02-24T00:00:00	2024-11-08T05:00:00	5	Humedad	52
108637	7	Sololá	713	San Lucas Tolimán	10	San Lucas Tolimán	2	Febrero	2023-02-24T00:00:00	2024-11-08T05:00:00	6	Velocidad del viento	14.5
108638	7	Sololá	713	San Lucas Tolimán	10	San Lucas Tolimán	2	Febrero	2023-02-24T00:00:00	2024-11-08T05:00:00	7	Dirección del viento	14.48
108639	7	Sololá	713	San Lucas Tolimán	10	San Lucas Tolimán	2	Febrero	2023-02-24T00:00:00	2024-11-08T05:00:00	1	Precipitación	0
108640	7	Sololá	713	San Lucas Tolimán	10	San Lucas Tolimán	2	Febrero	2023-02-24T00:00:00	2024-11-08T05:00:00	8	Radiación solar	0
108641	7	Sololá	713	San Lucas Tolimán	10	San Lucas Tolimán	2	Febrero	2023-02-24T00:00:00	2024-11-08T06:00:00	2	Temperatura media	16.3
108642	7	Sololá	713	San Lucas Tolimán	10	San Lucas Tolimán	2	Febrero	2023-02-24T00:00:00	2024-11-08T06:00:00	4	Temperatura máxima	16.6
108643	7	Sololá	713	San Lucas Tolimán	10	San Lucas Tolimán	2	Febrero	2023-02-24T00:00:00	2024-11-08T06:00:00	3	Temperatura mínima	16.1
108644	7	Sololá	713	San Lucas Tolimán	10	San Lucas Tolimán	2	Febrero	2023-02-24T00:00:00	2024-11-08T06:00:00	5	Humedad	53
108645	7	Sololá	713	San Lucas Tolimán	10	San Lucas Tolimán	2	Febrero	2023-02-24T00:00:00	2024-11-08T06:00:00	6	Velocidad del viento	14.5
108646	7	Sololá	713	San Lucas Tolimán	10	San Lucas Tolimán	2	Febrero	2023-02-24T00:00:00	2024-11-08T06:00:00	7	Dirección del viento	14.48
108647	7	Sololá	713	San Lucas Tolimán	10	San Lucas Tolimán	2	Febrero	2023-02-24T00:00:00	2024-11-08T06:00:00	1	Precipitación	0
108648	7	Sololá	713	San Lucas Tolimán	10	San Lucas Tolimán	2	Febrero	2023-02-24T00:00:00	2024-11-08T06:00:00	8	Radiación solar	0
108649	7	Sololá	713	San Lucas Tolimán	10	San Lucas Tolimán	2	Febrero	2023-02-24T00:00:00	2024-11-08T07:00:00	2	Temperatura media	15.9
108650	7	Sololá	713	San Lucas Tolimán	10	San Lucas Tolimán	2	Febrero	2023-02-24T00:00:00	2024-11-08T07:00:00	4	Temperatura máxima	16.5
108651	7	Sololá	713	San Lucas Tolimán	10	San Lucas Tolimán	2	Febrero	2023-02-24T00:00:00	2024-11-08T07:00:00	3	Temperatura mínima	15.9
108652	7	Sololá	713	San Lucas Tolimán	10	San Lucas Tolimán	2	Febrero	2023-02-24T00:00:00	2024-11-08T07:00:00	5	Humedad	52
108653	7	Sololá	713	San Lucas Tolimán	10	San Lucas Tolimán	2	Febrero	2023-02-24T00:00:00	2024-11-08T07:00:00	6	Velocidad del viento	8
108654	7	Sololá	713	San Lucas Tolimán	10	San Lucas Tolimán	2	Febrero	2023-02-24T00:00:00	2024-11-08T07:00:00	7	Dirección del viento	8.05
108655	7	Sololá	713	San Lucas Tolimán	10	San Lucas Tolimán	2	Febrero	2023-02-24T00:00:00	2024-11-08T07:00:00	1	Precipitación	0
108656	7	Sololá	713	San Lucas Tolimán	10	San Lucas Tolimán	2	Febrero	2023-02-24T00:00:00	2024-11-08T07:00:00	8	Radiación solar	10
108657	7	Sololá	713	San Lucas Tolimán	10	San Lucas Tolimán	2	Febrero	2023-02-24T00:00:00	2024-11-08T08:00:00	2	Temperatura media	16.5
108658	7	Sololá	713	San Lucas Tolimán	10	San Lucas Tolimán	2	Febrero	2023-02-24T00:00:00	2024-11-08T08:00:00	4	Temperatura máxima	16.5
108659	7	Sololá	713	San Lucas Tolimán	10	San Lucas Tolimán	2	Febrero	2023-02-24T00:00:00	2024-11-08T08:00:00	3	Temperatura mínima	15.4
108660	7	Sololá	713	San Lucas Tolimán	10	San Lucas Tolimán	2	Febrero	2023-02-24T00:00:00	2024-11-08T08:00:00	5	Humedad	52
108661	7	Sololá	713	San Lucas Tolimán	10	San Lucas Tolimán	2	Febrero	2023-02-24T00:00:00	2024-11-08T08:00:00	6	Velocidad del viento	1.6
108662	7	Sololá	713	San Lucas Tolimán	10	San Lucas Tolimán	2	Febrero	2023-02-24T00:00:00	2024-11-08T08:00:00	7	Dirección del viento	1.61
108663	7	Sololá	713	San Lucas Tolimán	10	San Lucas Tolimán	2	Febrero	2023-02-24T00:00:00	2024-11-08T08:00:00	1	Precipitación	0
108664	7	Sololá	713	San Lucas Tolimán	10	San Lucas Tolimán	2	Febrero	2023-02-24T00:00:00	2024-11-08T08:00:00	8	Radiación solar	85
108665	7	Sololá	713	San Lucas Tolimán	10	San Lucas Tolimán	2	Febrero	2023-02-24T00:00:00	2024-11-08T09:00:00	2	Temperatura media	21.2
108666	7	Sololá	713	San Lucas Tolimán	10	San Lucas Tolimán	2	Febrero	2023-02-24T00:00:00	2024-11-08T09:00:00	4	Temperatura máxima	21.2
108667	7	Sololá	713	San Lucas Tolimán	10	San Lucas Tolimán	2	Febrero	2023-02-24T00:00:00	2024-11-08T09:00:00	3	Temperatura mínima	16.6
108668	7	Sololá	713	San Lucas Tolimán	10	San Lucas Tolimán	2	Febrero	2023-02-24T00:00:00	2024-11-08T09:00:00	5	Humedad	44
108669	7	Sololá	713	San Lucas Tolimán	10	San Lucas Tolimán	2	Febrero	2023-02-24T00:00:00	2024-11-08T09:00:00	6	Velocidad del viento	1.6
108670	7	Sololá	713	San Lucas Tolimán	10	San Lucas Tolimán	2	Febrero	2023-02-24T00:00:00	2024-11-08T09:00:00	7	Dirección del viento	1.61
108671	7	Sololá	713	San Lucas Tolimán	10	San Lucas Tolimán	2	Febrero	2023-02-24T00:00:00	2024-11-08T09:00:00	1	Precipitación	0
108672	7	Sololá	713	San Lucas Tolimán	10	San Lucas Tolimán	2	Febrero	2023-02-24T00:00:00	2024-11-08T09:00:00	8	Radiación solar	474
108673	7	Sololá	713	San Lucas Tolimán	10	San Lucas Tolimán	2	Febrero	2023-02-24T00:00:00	2024-11-08T10:00:00	2	Temperatura media	23.7
108674	7	Sololá	713	San Lucas Tolimán	10	San Lucas Tolimán	2	Febrero	2023-02-24T00:00:00	2024-11-08T10:00:00	4	Temperatura máxima	23.7
108675	7	Sololá	713	San Lucas Tolimán	10	San Lucas Tolimán	2	Febrero	2023-02-24T00:00:00	2024-11-08T10:00:00	3	Temperatura mínima	20.7
108676	7	Sololá	713	San Lucas Tolimán	10	San Lucas Tolimán	2	Febrero	2023-02-24T00:00:00	2024-11-08T10:00:00	5	Humedad	37
108677	7	Sololá	713	San Lucas Tolimán	10	San Lucas Tolimán	2	Febrero	2023-02-24T00:00:00	2024-11-08T10:00:00	6	Velocidad del viento	3.2
108678	7	Sololá	713	San Lucas Tolimán	10	San Lucas Tolimán	2	Febrero	2023-02-24T00:00:00	2024-11-08T10:00:00	7	Dirección del viento	3.22
108679	7	Sololá	713	San Lucas Tolimán	10	San Lucas Tolimán	2	Febrero	2023-02-24T00:00:00	2024-11-08T10:00:00	1	Precipitación	0
108680	7	Sololá	713	San Lucas Tolimán	10	San Lucas Tolimán	2	Febrero	2023-02-24T00:00:00	2024-11-08T10:00:00	8	Radiación solar	721
108681	7	Sololá	713	San Lucas Tolimán	10	San Lucas Tolimán	2	Febrero	2023-02-24T00:00:00	2024-11-08T11:00:00	2	Temperatura media	23
108682	7	Sololá	713	San Lucas Tolimán	10	San Lucas Tolimán	2	Febrero	2023-02-24T00:00:00	2024-11-08T11:00:00	4	Temperatura máxima	24.1
108683	7	Sololá	713	San Lucas Tolimán	10	San Lucas Tolimán	2	Febrero	2023-02-24T00:00:00	2024-11-08T11:00:00	3	Temperatura mínima	22.4
108684	7	Sololá	713	San Lucas Tolimán	10	San Lucas Tolimán	2	Febrero	2023-02-24T00:00:00	2024-11-08T11:00:00	5	Humedad	40
108685	7	Sololá	713	San Lucas Tolimán	10	San Lucas Tolimán	2	Febrero	2023-02-24T00:00:00	2024-11-08T11:00:00	6	Velocidad del viento	6.4
108686	7	Sololá	713	San Lucas Tolimán	10	San Lucas Tolimán	2	Febrero	2023-02-24T00:00:00	2024-11-08T11:00:00	7	Dirección del viento	6.44
108687	7	Sololá	713	San Lucas Tolimán	10	San Lucas Tolimán	2	Febrero	2023-02-24T00:00:00	2024-11-08T11:00:00	1	Precipitación	0
108688	7	Sololá	713	San Lucas Tolimán	10	San Lucas Tolimán	2	Febrero	2023-02-24T00:00:00	2024-11-08T11:00:00	8	Radiación solar	897
108689	7	Sololá	713	San Lucas Tolimán	10	San Lucas Tolimán	2	Febrero	2023-02-24T00:00:00	2024-11-08T12:00:00	2	Temperatura media	22.4
108690	7	Sololá	713	San Lucas Tolimán	10	San Lucas Tolimán	2	Febrero	2023-02-24T00:00:00	2024-11-08T12:00:00	4	Temperatura máxima	23.4
108691	7	Sololá	713	San Lucas Tolimán	10	San Lucas Tolimán	2	Febrero	2023-02-24T00:00:00	2024-11-08T12:00:00	3	Temperatura mínima	22.3
108692	7	Sololá	713	San Lucas Tolimán	10	San Lucas Tolimán	2	Febrero	2023-02-24T00:00:00	2024-11-08T12:00:00	5	Humedad	45
108693	7	Sololá	713	San Lucas Tolimán	10	San Lucas Tolimán	2	Febrero	2023-02-24T00:00:00	2024-11-08T12:00:00	6	Velocidad del viento	11.3
108694	7	Sololá	713	San Lucas Tolimán	10	San Lucas Tolimán	2	Febrero	2023-02-24T00:00:00	2024-11-08T12:00:00	7	Dirección del viento	11.27
108695	7	Sololá	713	San Lucas Tolimán	10	San Lucas Tolimán	2	Febrero	2023-02-24T00:00:00	2024-11-08T12:00:00	1	Precipitación	0
108696	7	Sololá	713	San Lucas Tolimán	10	San Lucas Tolimán	2	Febrero	2023-02-24T00:00:00	2024-11-08T12:00:00	8	Radiación solar	1006
108697	7	Sololá	713	San Lucas Tolimán	10	San Lucas Tolimán	2	Febrero	2023-02-24T00:00:00	2024-11-08T13:00:00	2	Temperatura media	21.8
108698	7	Sololá	713	San Lucas Tolimán	10	San Lucas Tolimán	2	Febrero	2023-02-24T00:00:00	2024-11-08T13:00:00	4	Temperatura máxima	22.7
108699	7	Sololá	713	San Lucas Tolimán	10	San Lucas Tolimán	2	Febrero	2023-02-24T00:00:00	2024-11-08T13:00:00	3	Temperatura mínima	21.6
108700	7	Sololá	713	San Lucas Tolimán	10	San Lucas Tolimán	2	Febrero	2023-02-24T00:00:00	2024-11-08T13:00:00	5	Humedad	53
108701	7	Sololá	713	San Lucas Tolimán	10	San Lucas Tolimán	2	Febrero	2023-02-24T00:00:00	2024-11-08T13:00:00	6	Velocidad del viento	14.5
108702	7	Sololá	713	San Lucas Tolimán	10	San Lucas Tolimán	2	Febrero	2023-02-24T00:00:00	2024-11-08T13:00:00	7	Dirección del viento	14.48
108703	7	Sololá	713	San Lucas Tolimán	10	San Lucas Tolimán	2	Febrero	2023-02-24T00:00:00	2024-11-08T13:00:00	1	Precipitación	0
108704	7	Sololá	713	San Lucas Tolimán	10	San Lucas Tolimán	2	Febrero	2023-02-24T00:00:00	2024-11-08T13:00:00	8	Radiación solar	1025
108705	7	Sololá	713	San Lucas Tolimán	10	San Lucas Tolimán	2	Febrero	2023-02-24T00:00:00	2024-11-08T14:00:00	2	Temperatura media	22.7
108706	7	Sololá	713	San Lucas Tolimán	10	San Lucas Tolimán	2	Febrero	2023-02-24T00:00:00	2024-11-08T14:00:00	4	Temperatura máxima	22.9
108707	7	Sololá	713	San Lucas Tolimán	10	San Lucas Tolimán	2	Febrero	2023-02-24T00:00:00	2024-11-08T14:00:00	3	Temperatura mínima	21.8
108708	7	Sololá	713	San Lucas Tolimán	10	San Lucas Tolimán	2	Febrero	2023-02-24T00:00:00	2024-11-08T14:00:00	5	Humedad	52
108709	7	Sololá	713	San Lucas Tolimán	10	San Lucas Tolimán	2	Febrero	2023-02-24T00:00:00	2024-11-08T14:00:00	6	Velocidad del viento	11.3
108710	7	Sololá	713	San Lucas Tolimán	10	San Lucas Tolimán	2	Febrero	2023-02-24T00:00:00	2024-11-08T14:00:00	7	Dirección del viento	11.27
108711	7	Sololá	713	San Lucas Tolimán	10	San Lucas Tolimán	2	Febrero	2023-02-24T00:00:00	2024-11-08T14:00:00	1	Precipitación	0
108712	7	Sololá	713	San Lucas Tolimán	10	San Lucas Tolimán	2	Febrero	2023-02-24T00:00:00	2024-11-08T14:00:00	8	Radiación solar	979
108713	7	Sololá	713	San Lucas Tolimán	10	San Lucas Tolimán	2	Febrero	2023-02-24T00:00:00	2024-11-08T15:00:00	2	Temperatura media	22.5
108714	7	Sololá	713	San Lucas Tolimán	10	San Lucas Tolimán	2	Febrero	2023-02-24T00:00:00	2024-11-08T15:00:00	4	Temperatura máxima	23.1
108715	7	Sololá	713	San Lucas Tolimán	10	San Lucas Tolimán	2	Febrero	2023-02-24T00:00:00	2024-11-08T15:00:00	3	Temperatura mínima	22.3
108716	7	Sololá	713	San Lucas Tolimán	10	San Lucas Tolimán	2	Febrero	2023-02-24T00:00:00	2024-11-08T15:00:00	5	Humedad	54
108717	7	Sololá	713	San Lucas Tolimán	10	San Lucas Tolimán	2	Febrero	2023-02-24T00:00:00	2024-11-08T15:00:00	6	Velocidad del viento	9.7
108718	7	Sololá	713	San Lucas Tolimán	10	San Lucas Tolimán	2	Febrero	2023-02-24T00:00:00	2024-11-08T15:00:00	7	Dirección del viento	9.66
108719	7	Sololá	713	San Lucas Tolimán	10	San Lucas Tolimán	2	Febrero	2023-02-24T00:00:00	2024-11-08T15:00:00	1	Precipitación	0
108720	7	Sololá	713	San Lucas Tolimán	10	San Lucas Tolimán	2	Febrero	2023-02-24T00:00:00	2024-11-08T15:00:00	8	Radiación solar	842
108721	7	Sololá	713	San Lucas Tolimán	10	San Lucas Tolimán	2	Febrero	2023-02-24T00:00:00	2024-11-08T16:00:00	2	Temperatura media	21.3
108722	7	Sololá	713	San Lucas Tolimán	10	San Lucas Tolimán	2	Febrero	2023-02-24T00:00:00	2024-11-08T16:00:00	4	Temperatura máxima	22.8
108723	7	Sololá	713	San Lucas Tolimán	10	San Lucas Tolimán	2	Febrero	2023-02-24T00:00:00	2024-11-08T16:00:00	3	Temperatura mínima	21.3
108724	7	Sololá	713	San Lucas Tolimán	10	San Lucas Tolimán	2	Febrero	2023-02-24T00:00:00	2024-11-08T16:00:00	5	Humedad	57
108725	7	Sololá	713	San Lucas Tolimán	10	San Lucas Tolimán	2	Febrero	2023-02-24T00:00:00	2024-11-08T16:00:00	6	Velocidad del viento	8
108726	7	Sololá	713	San Lucas Tolimán	10	San Lucas Tolimán	2	Febrero	2023-02-24T00:00:00	2024-11-08T16:00:00	7	Dirección del viento	8.05
108727	7	Sololá	713	San Lucas Tolimán	10	San Lucas Tolimán	2	Febrero	2023-02-24T00:00:00	2024-11-08T16:00:00	1	Precipitación	0
108728	7	Sololá	713	San Lucas Tolimán	10	San Lucas Tolimán	2	Febrero	2023-02-24T00:00:00	2024-11-08T16:00:00	8	Radiación solar	561
108729	7	Sololá	713	San Lucas Tolimán	10	San Lucas Tolimán	2	Febrero	2023-02-24T00:00:00	2024-11-08T17:00:00	2	Temperatura media	20.4
108730	7	Sololá	713	San Lucas Tolimán	10	San Lucas Tolimán	2	Febrero	2023-02-24T00:00:00	2024-11-08T17:00:00	4	Temperatura máxima	21.4
108731	7	Sololá	713	San Lucas Tolimán	10	San Lucas Tolimán	2	Febrero	2023-02-24T00:00:00	2024-11-08T17:00:00	3	Temperatura mínima	20.3
108732	7	Sololá	713	San Lucas Tolimán	10	San Lucas Tolimán	2	Febrero	2023-02-24T00:00:00	2024-11-08T17:00:00	5	Humedad	60
108733	7	Sololá	713	San Lucas Tolimán	10	San Lucas Tolimán	2	Febrero	2023-02-24T00:00:00	2024-11-08T17:00:00	6	Velocidad del viento	11.3
108734	7	Sololá	713	San Lucas Tolimán	10	San Lucas Tolimán	2	Febrero	2023-02-24T00:00:00	2024-11-08T17:00:00	7	Dirección del viento	11.27
108735	7	Sololá	713	San Lucas Tolimán	10	San Lucas Tolimán	2	Febrero	2023-02-24T00:00:00	2024-11-08T17:00:00	1	Precipitación	0
108736	7	Sololá	713	San Lucas Tolimán	10	San Lucas Tolimán	2	Febrero	2023-02-24T00:00:00	2024-11-08T17:00:00	8	Radiación solar	260
108737	7	Sololá	713	San Lucas Tolimán	10	San Lucas Tolimán	2	Febrero	2023-02-24T00:00:00	2024-11-08T18:00:00	2	Temperatura media	18.5
108738	7	Sololá	713	San Lucas Tolimán	10	San Lucas Tolimán	2	Febrero	2023-02-24T00:00:00	2024-11-08T18:00:00	4	Temperatura máxima	20.4
108739	7	Sololá	713	San Lucas Tolimán	10	San Lucas Tolimán	2	Febrero	2023-02-24T00:00:00	2024-11-08T18:00:00	3	Temperatura mínima	18.5
108740	7	Sololá	713	San Lucas Tolimán	10	San Lucas Tolimán	2	Febrero	2023-02-24T00:00:00	2024-11-08T18:00:00	5	Humedad	62
108741	7	Sololá	713	San Lucas Tolimán	10	San Lucas Tolimán	2	Febrero	2023-02-24T00:00:00	2024-11-08T18:00:00	6	Velocidad del viento	9.7
108742	7	Sololá	713	San Lucas Tolimán	10	San Lucas Tolimán	2	Febrero	2023-02-24T00:00:00	2024-11-08T18:00:00	7	Dirección del viento	9.66
108743	7	Sololá	713	San Lucas Tolimán	10	San Lucas Tolimán	2	Febrero	2023-02-24T00:00:00	2024-11-08T18:00:00	1	Precipitación	0
108744	7	Sololá	713	San Lucas Tolimán	10	San Lucas Tolimán	2	Febrero	2023-02-24T00:00:00	2024-11-08T18:00:00	8	Radiación solar	53
108745	7	Sololá	713	San Lucas Tolimán	10	San Lucas Tolimán	2	Febrero	2023-02-24T00:00:00	2024-11-08T19:00:00	2	Temperatura media	17.7
108746	7	Sololá	713	San Lucas Tolimán	10	San Lucas Tolimán	2	Febrero	2023-02-24T00:00:00	2024-11-08T19:00:00	4	Temperatura máxima	18.5
108747	7	Sololá	713	San Lucas Tolimán	10	San Lucas Tolimán	2	Febrero	2023-02-24T00:00:00	2024-11-08T19:00:00	3	Temperatura mínima	17.7
108748	7	Sololá	713	San Lucas Tolimán	10	San Lucas Tolimán	2	Febrero	2023-02-24T00:00:00	2024-11-08T19:00:00	5	Humedad	63
108749	7	Sololá	713	San Lucas Tolimán	10	San Lucas Tolimán	2	Febrero	2023-02-24T00:00:00	2024-11-08T19:00:00	6	Velocidad del viento	4.8
108750	7	Sololá	713	San Lucas Tolimán	10	San Lucas Tolimán	2	Febrero	2023-02-24T00:00:00	2024-11-08T19:00:00	7	Dirección del viento	4.83
108751	7	Sololá	713	San Lucas Tolimán	10	San Lucas Tolimán	2	Febrero	2023-02-24T00:00:00	2024-11-08T19:00:00	1	Precipitación	0
108752	7	Sololá	713	San Lucas Tolimán	10	San Lucas Tolimán	2	Febrero	2023-02-24T00:00:00	2024-11-08T19:00:00	8	Radiación solar	0
108753	7	Sololá	713	San Lucas Tolimán	10	San Lucas Tolimán	2	Febrero	2023-02-24T00:00:00	2024-11-08T20:00:00	2	Temperatura media	17.4
108754	7	Sololá	713	San Lucas Tolimán	10	San Lucas Tolimán	2	Febrero	2023-02-24T00:00:00	2024-11-08T20:00:00	4	Temperatura máxima	17.7
108755	7	Sololá	713	San Lucas Tolimán	10	San Lucas Tolimán	2	Febrero	2023-02-24T00:00:00	2024-11-08T20:00:00	3	Temperatura mínima	17
108756	7	Sololá	713	San Lucas Tolimán	10	San Lucas Tolimán	2	Febrero	2023-02-24T00:00:00	2024-11-08T20:00:00	5	Humedad	59
108757	7	Sololá	713	San Lucas Tolimán	10	San Lucas Tolimán	2	Febrero	2023-02-24T00:00:00	2024-11-08T20:00:00	6	Velocidad del viento	1.6
108758	7	Sololá	713	San Lucas Tolimán	10	San Lucas Tolimán	2	Febrero	2023-02-24T00:00:00	2024-11-08T20:00:00	7	Dirección del viento	1.61
108759	7	Sololá	713	San Lucas Tolimán	10	San Lucas Tolimán	2	Febrero	2023-02-24T00:00:00	2024-11-08T20:00:00	1	Precipitación	0
108760	7	Sololá	713	San Lucas Tolimán	10	San Lucas Tolimán	2	Febrero	2023-02-24T00:00:00	2024-11-08T20:00:00	8	Radiación solar	0
108761	7	Sololá	713	San Lucas Tolimán	10	San Lucas Tolimán	2	Febrero	2023-02-24T00:00:00	2024-11-08T21:00:00	2	Temperatura media	18.5
108762	7	Sololá	713	San Lucas Tolimán	10	San Lucas Tolimán	2	Febrero	2023-02-24T00:00:00	2024-11-08T21:00:00	4	Temperatura máxima	18.6
108763	7	Sololá	713	San Lucas Tolimán	10	San Lucas Tolimán	2	Febrero	2023-02-24T00:00:00	2024-11-08T21:00:00	3	Temperatura mínima	17.4
108764	7	Sololá	713	San Lucas Tolimán	10	San Lucas Tolimán	2	Febrero	2023-02-24T00:00:00	2024-11-08T21:00:00	5	Humedad	55
108765	7	Sololá	713	San Lucas Tolimán	10	San Lucas Tolimán	2	Febrero	2023-02-24T00:00:00	2024-11-08T21:00:00	6	Velocidad del viento	3.2
108766	7	Sololá	713	San Lucas Tolimán	10	San Lucas Tolimán	2	Febrero	2023-02-24T00:00:00	2024-11-08T21:00:00	7	Dirección del viento	3.22
108767	7	Sololá	713	San Lucas Tolimán	10	San Lucas Tolimán	2	Febrero	2023-02-24T00:00:00	2024-11-08T21:00:00	1	Precipitación	0
108768	7	Sololá	713	San Lucas Tolimán	10	San Lucas Tolimán	2	Febrero	2023-02-24T00:00:00	2024-11-08T21:00:00	8	Radiación solar	0
108769	7	Sololá	713	San Lucas Tolimán	10	San Lucas Tolimán	2	Febrero	2023-02-24T00:00:00	2024-11-08T22:00:00	2	Temperatura media	18.2
108770	7	Sololá	713	San Lucas Tolimán	10	San Lucas Tolimán	2	Febrero	2023-02-24T00:00:00	2024-11-08T22:00:00	4	Temperatura máxima	18.9
108771	7	Sololá	713	San Lucas Tolimán	10	San Lucas Tolimán	2	Febrero	2023-02-24T00:00:00	2024-11-08T22:00:00	3	Temperatura mínima	18.2
108772	7	Sololá	713	San Lucas Tolimán	10	San Lucas Tolimán	2	Febrero	2023-02-24T00:00:00	2024-11-08T22:00:00	5	Humedad	56
108773	7	Sololá	713	San Lucas Tolimán	10	San Lucas Tolimán	2	Febrero	2023-02-24T00:00:00	2024-11-08T22:00:00	6	Velocidad del viento	6.4
108774	7	Sololá	713	San Lucas Tolimán	10	San Lucas Tolimán	2	Febrero	2023-02-24T00:00:00	2024-11-08T22:00:00	7	Dirección del viento	6.44
108775	7	Sololá	713	San Lucas Tolimán	10	San Lucas Tolimán	2	Febrero	2023-02-24T00:00:00	2024-11-08T22:00:00	1	Precipitación	0
108776	7	Sololá	713	San Lucas Tolimán	10	San Lucas Tolimán	2	Febrero	2023-02-24T00:00:00	2024-11-08T22:00:00	8	Radiación solar	0
108777	7	Sololá	713	San Lucas Tolimán	10	San Lucas Tolimán	2	Febrero	2023-02-24T00:00:00	2024-11-08T23:00:00	2	Temperatura media	17.3
108778	7	Sololá	713	San Lucas Tolimán	10	San Lucas Tolimán	2	Febrero	2023-02-24T00:00:00	2024-11-08T23:00:00	4	Temperatura máxima	18.2
108779	7	Sololá	713	San Lucas Tolimán	10	San Lucas Tolimán	2	Febrero	2023-02-24T00:00:00	2024-11-08T23:00:00	3	Temperatura mínima	17.3
108780	7	Sololá	713	San Lucas Tolimán	10	San Lucas Tolimán	2	Febrero	2023-02-24T00:00:00	2024-11-08T23:00:00	5	Humedad	58
108781	7	Sololá	713	San Lucas Tolimán	10	San Lucas Tolimán	2	Febrero	2023-02-24T00:00:00	2024-11-08T23:00:00	6	Velocidad del viento	1.6
108782	7	Sololá	713	San Lucas Tolimán	10	San Lucas Tolimán	2	Febrero	2023-02-24T00:00:00	2024-11-08T23:00:00	7	Dirección del viento	1.61
108783	7	Sololá	713	San Lucas Tolimán	10	San Lucas Tolimán	2	Febrero	2023-02-24T00:00:00	2024-11-08T23:00:00	1	Precipitación	0
108784	7	Sololá	713	San Lucas Tolimán	10	San Lucas Tolimán	2	Febrero	2023-02-24T00:00:00	2024-11-08T23:00:00	8	Radiación solar	0
108785	7	Sololá	713	San Lucas Tolimán	10	San Lucas Tolimán	2	Febrero	2023-02-25T00:00:00	2024-11-08T00:00:00	2	Temperatura media	16.9
108786	7	Sololá	713	San Lucas Tolimán	10	San Lucas Tolimán	2	Febrero	2023-02-25T00:00:00	2024-11-08T00:00:00	4	Temperatura máxima	17.6
108787	7	Sololá	713	San Lucas Tolimán	10	San Lucas Tolimán	2	Febrero	2023-02-25T00:00:00	2024-11-08T00:00:00	3	Temperatura mínima	16.9
108788	7	Sololá	713	San Lucas Tolimán	10	San Lucas Tolimán	2	Febrero	2023-02-25T00:00:00	2024-11-08T00:00:00	5	Humedad	58
108789	7	Sololá	713	San Lucas Tolimán	10	San Lucas Tolimán	2	Febrero	2023-02-25T00:00:00	2024-11-08T00:00:00	6	Velocidad del viento	1.6
108790	7	Sololá	713	San Lucas Tolimán	10	San Lucas Tolimán	2	Febrero	2023-02-25T00:00:00	2024-11-08T00:00:00	7	Dirección del viento	1.61
108791	7	Sololá	713	San Lucas Tolimán	10	San Lucas Tolimán	2	Febrero	2023-02-25T00:00:00	2024-11-08T00:00:00	1	Precipitación	0
108792	7	Sololá	713	San Lucas Tolimán	10	San Lucas Tolimán	2	Febrero	2023-02-25T00:00:00	2024-11-08T00:00:00	8	Radiación solar	0
108793	7	Sololá	713	San Lucas Tolimán	10	San Lucas Tolimán	2	Febrero	2023-02-25T00:00:00	2024-11-08T01:00:00	2	Temperatura media	16.3
108794	7	Sololá	713	San Lucas Tolimán	10	San Lucas Tolimán	2	Febrero	2023-02-25T00:00:00	2024-11-08T01:00:00	4	Temperatura máxima	16.9
108795	7	Sololá	713	San Lucas Tolimán	10	San Lucas Tolimán	2	Febrero	2023-02-25T00:00:00	2024-11-08T01:00:00	3	Temperatura mínima	16.3
108796	7	Sololá	713	San Lucas Tolimán	10	San Lucas Tolimán	2	Febrero	2023-02-25T00:00:00	2024-11-08T01:00:00	5	Humedad	58
108797	7	Sololá	713	San Lucas Tolimán	10	San Lucas Tolimán	2	Febrero	2023-02-25T00:00:00	2024-11-08T01:00:00	6	Velocidad del viento	1.6
108798	7	Sololá	713	San Lucas Tolimán	10	San Lucas Tolimán	2	Febrero	2023-02-25T00:00:00	2024-11-08T01:00:00	7	Dirección del viento	1.61
108799	7	Sololá	713	San Lucas Tolimán	10	San Lucas Tolimán	2	Febrero	2023-02-25T00:00:00	2024-11-08T01:00:00	1	Precipitación	0
108800	7	Sololá	713	San Lucas Tolimán	10	San Lucas Tolimán	2	Febrero	2023-02-25T00:00:00	2024-11-08T01:00:00	8	Radiación solar	0
108801	7	Sololá	713	San Lucas Tolimán	10	San Lucas Tolimán	2	Febrero	2023-02-25T00:00:00	2024-11-08T02:00:00	2	Temperatura media	17.3
108802	7	Sololá	713	San Lucas Tolimán	10	San Lucas Tolimán	2	Febrero	2023-02-25T00:00:00	2024-11-08T02:00:00	4	Temperatura máxima	17.4
108803	7	Sololá	713	San Lucas Tolimán	10	San Lucas Tolimán	2	Febrero	2023-02-25T00:00:00	2024-11-08T02:00:00	3	Temperatura mínima	15.8
108804	7	Sololá	713	San Lucas Tolimán	10	San Lucas Tolimán	2	Febrero	2023-02-25T00:00:00	2024-11-08T02:00:00	5	Humedad	55
108805	7	Sololá	713	San Lucas Tolimán	10	San Lucas Tolimán	2	Febrero	2023-02-25T00:00:00	2024-11-08T02:00:00	6	Velocidad del viento	4.8
108806	7	Sololá	713	San Lucas Tolimán	10	San Lucas Tolimán	2	Febrero	2023-02-25T00:00:00	2024-11-08T02:00:00	7	Dirección del viento	4.83
108807	7	Sololá	713	San Lucas Tolimán	10	San Lucas Tolimán	2	Febrero	2023-02-25T00:00:00	2024-11-08T02:00:00	1	Precipitación	0
108808	7	Sololá	713	San Lucas Tolimán	10	San Lucas Tolimán	2	Febrero	2023-02-25T00:00:00	2024-11-08T02:00:00	8	Radiación solar	0
108809	7	Sololá	713	San Lucas Tolimán	10	San Lucas Tolimán	2	Febrero	2023-02-25T00:00:00	2024-11-08T03:00:00	2	Temperatura media	15.8
108810	7	Sololá	713	San Lucas Tolimán	10	San Lucas Tolimán	2	Febrero	2023-02-25T00:00:00	2024-11-08T03:00:00	4	Temperatura máxima	17.3
108811	7	Sololá	713	San Lucas Tolimán	10	San Lucas Tolimán	2	Febrero	2023-02-25T00:00:00	2024-11-08T03:00:00	3	Temperatura mínima	15.7
108812	7	Sololá	713	San Lucas Tolimán	10	San Lucas Tolimán	2	Febrero	2023-02-25T00:00:00	2024-11-08T03:00:00	5	Humedad	59
108813	7	Sololá	713	San Lucas Tolimán	10	San Lucas Tolimán	2	Febrero	2023-02-25T00:00:00	2024-11-08T03:00:00	6	Velocidad del viento	3.2
108814	7	Sololá	713	San Lucas Tolimán	10	San Lucas Tolimán	2	Febrero	2023-02-25T00:00:00	2024-11-08T03:00:00	7	Dirección del viento	3.22
108815	7	Sololá	713	San Lucas Tolimán	10	San Lucas Tolimán	2	Febrero	2023-02-25T00:00:00	2024-11-08T03:00:00	1	Precipitación	0
108816	7	Sololá	713	San Lucas Tolimán	10	San Lucas Tolimán	2	Febrero	2023-02-25T00:00:00	2024-11-08T03:00:00	8	Radiación solar	0
108817	7	Sololá	713	San Lucas Tolimán	10	San Lucas Tolimán	2	Febrero	2023-02-25T00:00:00	2024-11-08T04:00:00	2	Temperatura media	15.3
108818	7	Sololá	713	San Lucas Tolimán	10	San Lucas Tolimán	2	Febrero	2023-02-25T00:00:00	2024-11-08T04:00:00	4	Temperatura máxima	15.9
108819	7	Sololá	713	San Lucas Tolimán	10	San Lucas Tolimán	2	Febrero	2023-02-25T00:00:00	2024-11-08T04:00:00	3	Temperatura mínima	15.3
108820	7	Sololá	713	San Lucas Tolimán	10	San Lucas Tolimán	2	Febrero	2023-02-25T00:00:00	2024-11-08T04:00:00	5	Humedad	59
108821	7	Sololá	713	San Lucas Tolimán	10	San Lucas Tolimán	2	Febrero	2023-02-25T00:00:00	2024-11-08T04:00:00	6	Velocidad del viento	1.6
108822	7	Sololá	713	San Lucas Tolimán	10	San Lucas Tolimán	2	Febrero	2023-02-25T00:00:00	2024-11-08T04:00:00	7	Dirección del viento	1.61
108823	7	Sololá	713	San Lucas Tolimán	10	San Lucas Tolimán	2	Febrero	2023-02-25T00:00:00	2024-11-08T04:00:00	1	Precipitación	0
108824	7	Sololá	713	San Lucas Tolimán	10	San Lucas Tolimán	2	Febrero	2023-02-25T00:00:00	2024-11-08T04:00:00	8	Radiación solar	0
108825	7	Sololá	713	San Lucas Tolimán	10	San Lucas Tolimán	2	Febrero	2023-02-25T00:00:00	2024-11-08T05:00:00	2	Temperatura media	15.9
108826	7	Sololá	713	San Lucas Tolimán	10	San Lucas Tolimán	2	Febrero	2023-02-25T00:00:00	2024-11-08T05:00:00	4	Temperatura máxima	16.9
108827	7	Sololá	713	San Lucas Tolimán	10	San Lucas Tolimán	2	Febrero	2023-02-25T00:00:00	2024-11-08T05:00:00	3	Temperatura mínima	15.3
108828	7	Sololá	713	San Lucas Tolimán	10	San Lucas Tolimán	2	Febrero	2023-02-25T00:00:00	2024-11-08T05:00:00	5	Humedad	57
108829	7	Sololá	713	San Lucas Tolimán	10	San Lucas Tolimán	2	Febrero	2023-02-25T00:00:00	2024-11-08T05:00:00	6	Velocidad del viento	6.4
108830	7	Sololá	713	San Lucas Tolimán	10	San Lucas Tolimán	2	Febrero	2023-02-25T00:00:00	2024-11-08T05:00:00	7	Dirección del viento	6.44
108831	7	Sololá	713	San Lucas Tolimán	10	San Lucas Tolimán	2	Febrero	2023-02-25T00:00:00	2024-11-08T05:00:00	1	Precipitación	0
108832	7	Sololá	713	San Lucas Tolimán	10	San Lucas Tolimán	2	Febrero	2023-02-25T00:00:00	2024-11-08T05:00:00	8	Radiación solar	0
108833	7	Sololá	713	San Lucas Tolimán	10	San Lucas Tolimán	2	Febrero	2023-02-25T00:00:00	2024-11-08T06:00:00	2	Temperatura media	15.6
108834	7	Sololá	713	San Lucas Tolimán	10	San Lucas Tolimán	2	Febrero	2023-02-25T00:00:00	2024-11-08T06:00:00	4	Temperatura máxima	15.9
108835	7	Sololá	713	San Lucas Tolimán	10	San Lucas Tolimán	2	Febrero	2023-02-25T00:00:00	2024-11-08T06:00:00	3	Temperatura mínima	15.1
108836	7	Sololá	713	San Lucas Tolimán	10	San Lucas Tolimán	2	Febrero	2023-02-25T00:00:00	2024-11-08T06:00:00	5	Humedad	57
108837	7	Sololá	713	San Lucas Tolimán	10	San Lucas Tolimán	2	Febrero	2023-02-25T00:00:00	2024-11-08T06:00:00	6	Velocidad del viento	3.2
108838	7	Sololá	713	San Lucas Tolimán	10	San Lucas Tolimán	2	Febrero	2023-02-25T00:00:00	2024-11-08T06:00:00	7	Dirección del viento	3.22
108839	7	Sololá	713	San Lucas Tolimán	10	San Lucas Tolimán	2	Febrero	2023-02-25T00:00:00	2024-11-08T06:00:00	1	Precipitación	0
108840	7	Sololá	713	San Lucas Tolimán	10	San Lucas Tolimán	2	Febrero	2023-02-25T00:00:00	2024-11-08T06:00:00	8	Radiación solar	0
108841	7	Sololá	713	San Lucas Tolimán	10	San Lucas Tolimán	2	Febrero	2023-02-25T00:00:00	2024-11-08T07:00:00	2	Temperatura media	15.3
108842	7	Sololá	713	San Lucas Tolimán	10	San Lucas Tolimán	2	Febrero	2023-02-25T00:00:00	2024-11-08T07:00:00	4	Temperatura máxima	15.6
108843	7	Sololá	713	San Lucas Tolimán	10	San Lucas Tolimán	2	Febrero	2023-02-25T00:00:00	2024-11-08T07:00:00	3	Temperatura mínima	14.8
108844	7	Sololá	713	San Lucas Tolimán	10	San Lucas Tolimán	2	Febrero	2023-02-25T00:00:00	2024-11-08T07:00:00	5	Humedad	58
108845	7	Sololá	713	San Lucas Tolimán	10	San Lucas Tolimán	2	Febrero	2023-02-25T00:00:00	2024-11-08T07:00:00	6	Velocidad del viento	3.2
108846	7	Sololá	713	San Lucas Tolimán	10	San Lucas Tolimán	2	Febrero	2023-02-25T00:00:00	2024-11-08T07:00:00	7	Dirección del viento	3.22
108847	7	Sololá	713	San Lucas Tolimán	10	San Lucas Tolimán	2	Febrero	2023-02-25T00:00:00	2024-11-08T07:00:00	1	Precipitación	0
108848	7	Sololá	713	San Lucas Tolimán	10	San Lucas Tolimán	2	Febrero	2023-02-25T00:00:00	2024-11-08T07:00:00	8	Radiación solar	7
108849	7	Sololá	713	San Lucas Tolimán	10	San Lucas Tolimán	2	Febrero	2023-02-25T00:00:00	2024-11-08T08:00:00	2	Temperatura media	17.6
108850	7	Sololá	713	San Lucas Tolimán	10	San Lucas Tolimán	2	Febrero	2023-02-25T00:00:00	2024-11-08T08:00:00	4	Temperatura máxima	17.6
108851	7	Sololá	713	San Lucas Tolimán	10	San Lucas Tolimán	2	Febrero	2023-02-25T00:00:00	2024-11-08T08:00:00	3	Temperatura mínima	15.2
108852	7	Sololá	713	San Lucas Tolimán	10	San Lucas Tolimán	2	Febrero	2023-02-25T00:00:00	2024-11-08T08:00:00	5	Humedad	52
108853	7	Sololá	713	San Lucas Tolimán	10	San Lucas Tolimán	2	Febrero	2023-02-25T00:00:00	2024-11-08T08:00:00	6	Velocidad del viento	3.2
108854	7	Sololá	713	San Lucas Tolimán	10	San Lucas Tolimán	2	Febrero	2023-02-25T00:00:00	2024-11-08T08:00:00	7	Dirección del viento	3.22
108855	7	Sololá	713	San Lucas Tolimán	10	San Lucas Tolimán	2	Febrero	2023-02-25T00:00:00	2024-11-08T08:00:00	1	Precipitación	0
108856	7	Sololá	713	San Lucas Tolimán	10	San Lucas Tolimán	2	Febrero	2023-02-25T00:00:00	2024-11-08T08:00:00	8	Radiación solar	84
108857	7	Sololá	713	San Lucas Tolimán	10	San Lucas Tolimán	2	Febrero	2023-02-25T00:00:00	2024-11-08T09:00:00	2	Temperatura media	21.3
108858	7	Sololá	713	San Lucas Tolimán	10	San Lucas Tolimán	2	Febrero	2023-02-25T00:00:00	2024-11-08T09:00:00	4	Temperatura máxima	21.3
108859	7	Sololá	713	San Lucas Tolimán	10	San Lucas Tolimán	2	Febrero	2023-02-25T00:00:00	2024-11-08T09:00:00	3	Temperatura mínima	17.6
108860	7	Sololá	713	San Lucas Tolimán	10	San Lucas Tolimán	2	Febrero	2023-02-25T00:00:00	2024-11-08T09:00:00	5	Humedad	42
108861	7	Sololá	713	San Lucas Tolimán	10	San Lucas Tolimán	2	Febrero	2023-02-25T00:00:00	2024-11-08T09:00:00	6	Velocidad del viento	1.6
108862	7	Sololá	713	San Lucas Tolimán	10	San Lucas Tolimán	2	Febrero	2023-02-25T00:00:00	2024-11-08T09:00:00	7	Dirección del viento	1.61
108863	7	Sololá	713	San Lucas Tolimán	10	San Lucas Tolimán	2	Febrero	2023-02-25T00:00:00	2024-11-08T09:00:00	1	Precipitación	0
108864	7	Sololá	713	San Lucas Tolimán	10	San Lucas Tolimán	2	Febrero	2023-02-25T00:00:00	2024-11-08T09:00:00	8	Radiación solar	478
108865	7	Sololá	713	San Lucas Tolimán	10	San Lucas Tolimán	2	Febrero	2023-02-25T00:00:00	2024-11-08T10:00:00	2	Temperatura media	22.2
108866	7	Sololá	713	San Lucas Tolimán	10	San Lucas Tolimán	2	Febrero	2023-02-25T00:00:00	2024-11-08T10:00:00	4	Temperatura máxima	22.2
108867	7	Sololá	713	San Lucas Tolimán	10	San Lucas Tolimán	2	Febrero	2023-02-25T00:00:00	2024-11-08T10:00:00	3	Temperatura mínima	20.9
108868	7	Sololá	713	San Lucas Tolimán	10	San Lucas Tolimán	2	Febrero	2023-02-25T00:00:00	2024-11-08T10:00:00	5	Humedad	46
108869	7	Sololá	713	San Lucas Tolimán	10	San Lucas Tolimán	2	Febrero	2023-02-25T00:00:00	2024-11-08T10:00:00	6	Velocidad del viento	4.8
108870	7	Sololá	713	San Lucas Tolimán	10	San Lucas Tolimán	2	Febrero	2023-02-25T00:00:00	2024-11-08T10:00:00	7	Dirección del viento	4.83
108871	7	Sololá	713	San Lucas Tolimán	10	San Lucas Tolimán	2	Febrero	2023-02-25T00:00:00	2024-11-08T10:00:00	1	Precipitación	0
108872	7	Sololá	713	San Lucas Tolimán	10	San Lucas Tolimán	2	Febrero	2023-02-25T00:00:00	2024-11-08T10:00:00	8	Radiación solar	723
108873	7	Sololá	713	San Lucas Tolimán	10	San Lucas Tolimán	2	Febrero	2023-02-25T00:00:00	2024-11-08T11:00:00	2	Temperatura media	23.6
108874	7	Sololá	713	San Lucas Tolimán	10	San Lucas Tolimán	2	Febrero	2023-02-25T00:00:00	2024-11-08T11:00:00	4	Temperatura máxima	24.1
108875	7	Sololá	713	San Lucas Tolimán	10	San Lucas Tolimán	2	Febrero	2023-02-25T00:00:00	2024-11-08T11:00:00	3	Temperatura mínima	21.3
108876	7	Sololá	713	San Lucas Tolimán	10	San Lucas Tolimán	2	Febrero	2023-02-25T00:00:00	2024-11-08T11:00:00	5	Humedad	45
108877	7	Sololá	713	San Lucas Tolimán	10	San Lucas Tolimán	2	Febrero	2023-02-25T00:00:00	2024-11-08T11:00:00	6	Velocidad del viento	8
108878	7	Sololá	713	San Lucas Tolimán	10	San Lucas Tolimán	2	Febrero	2023-02-25T00:00:00	2024-11-08T11:00:00	7	Dirección del viento	8.05
108879	7	Sololá	713	San Lucas Tolimán	10	San Lucas Tolimán	2	Febrero	2023-02-25T00:00:00	2024-11-08T11:00:00	1	Precipitación	0
108880	7	Sololá	713	San Lucas Tolimán	10	San Lucas Tolimán	2	Febrero	2023-02-25T00:00:00	2024-11-08T11:00:00	8	Radiación solar	909
108881	7	Sololá	713	San Lucas Tolimán	10	San Lucas Tolimán	2	Febrero	2023-02-25T00:00:00	2024-11-08T12:00:00	2	Temperatura media	24.4
108882	7	Sololá	713	San Lucas Tolimán	10	San Lucas Tolimán	2	Febrero	2023-02-25T00:00:00	2024-11-08T12:00:00	4	Temperatura máxima	24.4
108883	7	Sololá	713	San Lucas Tolimán	10	San Lucas Tolimán	2	Febrero	2023-02-25T00:00:00	2024-11-08T12:00:00	3	Temperatura mínima	23.6
108884	7	Sololá	713	San Lucas Tolimán	10	San Lucas Tolimán	2	Febrero	2023-02-25T00:00:00	2024-11-08T12:00:00	5	Humedad	51
108885	7	Sololá	713	San Lucas Tolimán	10	San Lucas Tolimán	2	Febrero	2023-02-25T00:00:00	2024-11-08T12:00:00	6	Velocidad del viento	9.7
108886	7	Sololá	713	San Lucas Tolimán	10	San Lucas Tolimán	2	Febrero	2023-02-25T00:00:00	2024-11-08T12:00:00	7	Dirección del viento	9.66
108887	7	Sololá	713	San Lucas Tolimán	10	San Lucas Tolimán	2	Febrero	2023-02-25T00:00:00	2024-11-08T12:00:00	1	Precipitación	0
108888	7	Sololá	713	San Lucas Tolimán	10	San Lucas Tolimán	2	Febrero	2023-02-25T00:00:00	2024-11-08T12:00:00	8	Radiación solar	1019
108889	7	Sololá	713	San Lucas Tolimán	10	San Lucas Tolimán	2	Febrero	2023-02-25T00:00:00	2024-11-08T13:00:00	2	Temperatura media	23.8
108890	7	Sololá	713	San Lucas Tolimán	10	San Lucas Tolimán	2	Febrero	2023-02-25T00:00:00	2024-11-08T13:00:00	4	Temperatura máxima	24.4
108891	7	Sololá	713	San Lucas Tolimán	10	San Lucas Tolimán	2	Febrero	2023-02-25T00:00:00	2024-11-08T13:00:00	3	Temperatura mínima	23.4
108892	7	Sololá	713	San Lucas Tolimán	10	San Lucas Tolimán	2	Febrero	2023-02-25T00:00:00	2024-11-08T13:00:00	5	Humedad	53
108893	7	Sololá	713	San Lucas Tolimán	10	San Lucas Tolimán	2	Febrero	2023-02-25T00:00:00	2024-11-08T13:00:00	6	Velocidad del viento	12.9
108894	7	Sololá	713	San Lucas Tolimán	10	San Lucas Tolimán	2	Febrero	2023-02-25T00:00:00	2024-11-08T13:00:00	7	Dirección del viento	12.87
108895	7	Sololá	713	San Lucas Tolimán	10	San Lucas Tolimán	2	Febrero	2023-02-25T00:00:00	2024-11-08T13:00:00	1	Precipitación	0
108896	7	Sololá	713	San Lucas Tolimán	10	San Lucas Tolimán	2	Febrero	2023-02-25T00:00:00	2024-11-08T13:00:00	8	Radiación solar	1035
108897	7	Sololá	713	San Lucas Tolimán	10	San Lucas Tolimán	2	Febrero	2023-02-25T00:00:00	2024-11-08T14:00:00	2	Temperatura media	23.3
108898	7	Sololá	713	San Lucas Tolimán	10	San Lucas Tolimán	2	Febrero	2023-02-25T00:00:00	2024-11-08T14:00:00	4	Temperatura máxima	23.8
108899	7	Sololá	713	San Lucas Tolimán	10	San Lucas Tolimán	2	Febrero	2023-02-25T00:00:00	2024-11-08T14:00:00	3	Temperatura mínima	23
108900	7	Sololá	713	San Lucas Tolimán	10	San Lucas Tolimán	2	Febrero	2023-02-25T00:00:00	2024-11-08T14:00:00	5	Humedad	53
108901	7	Sololá	713	San Lucas Tolimán	10	San Lucas Tolimán	2	Febrero	2023-02-25T00:00:00	2024-11-08T14:00:00	6	Velocidad del viento	16.1
108902	7	Sololá	713	San Lucas Tolimán	10	San Lucas Tolimán	2	Febrero	2023-02-25T00:00:00	2024-11-08T14:00:00	7	Dirección del viento	16.09
108903	7	Sololá	713	San Lucas Tolimán	10	San Lucas Tolimán	2	Febrero	2023-02-25T00:00:00	2024-11-08T14:00:00	1	Precipitación	0
108904	7	Sololá	713	San Lucas Tolimán	10	San Lucas Tolimán	2	Febrero	2023-02-25T00:00:00	2024-11-08T14:00:00	8	Radiación solar	995
108905	7	Sololá	713	San Lucas Tolimán	10	San Lucas Tolimán	2	Febrero	2023-02-25T00:00:00	2024-11-08T15:00:00	2	Temperatura media	23.4
108906	7	Sololá	713	San Lucas Tolimán	10	San Lucas Tolimán	2	Febrero	2023-02-25T00:00:00	2024-11-08T15:00:00	4	Temperatura máxima	24
108907	7	Sololá	713	San Lucas Tolimán	10	San Lucas Tolimán	2	Febrero	2023-02-25T00:00:00	2024-11-08T15:00:00	3	Temperatura mínima	23.2
108908	7	Sololá	713	San Lucas Tolimán	10	San Lucas Tolimán	2	Febrero	2023-02-25T00:00:00	2024-11-08T15:00:00	5	Humedad	53
108909	7	Sololá	713	San Lucas Tolimán	10	San Lucas Tolimán	2	Febrero	2023-02-25T00:00:00	2024-11-08T15:00:00	6	Velocidad del viento	16.1
108910	7	Sololá	713	San Lucas Tolimán	10	San Lucas Tolimán	2	Febrero	2023-02-25T00:00:00	2024-11-08T15:00:00	7	Dirección del viento	16.09
108911	7	Sololá	713	San Lucas Tolimán	10	San Lucas Tolimán	2	Febrero	2023-02-25T00:00:00	2024-11-08T15:00:00	1	Precipitación	0
108912	7	Sololá	713	San Lucas Tolimán	10	San Lucas Tolimán	2	Febrero	2023-02-25T00:00:00	2024-11-08T15:00:00	8	Radiación solar	853
108913	7	Sololá	713	San Lucas Tolimán	10	San Lucas Tolimán	2	Febrero	2023-02-25T00:00:00	2024-11-08T16:00:00	2	Temperatura media	23.4
108914	7	Sololá	713	San Lucas Tolimán	10	San Lucas Tolimán	2	Febrero	2023-02-25T00:00:00	2024-11-08T16:00:00	4	Temperatura máxima	23.7
108915	7	Sololá	713	San Lucas Tolimán	10	San Lucas Tolimán	2	Febrero	2023-02-25T00:00:00	2024-11-08T16:00:00	3	Temperatura mínima	23.2
108916	7	Sololá	713	San Lucas Tolimán	10	San Lucas Tolimán	2	Febrero	2023-02-25T00:00:00	2024-11-08T16:00:00	5	Humedad	54
108917	7	Sololá	713	San Lucas Tolimán	10	San Lucas Tolimán	2	Febrero	2023-02-25T00:00:00	2024-11-08T16:00:00	6	Velocidad del viento	11.3
108918	7	Sololá	713	San Lucas Tolimán	10	San Lucas Tolimán	2	Febrero	2023-02-25T00:00:00	2024-11-08T16:00:00	7	Dirección del viento	11.27
108919	7	Sololá	713	San Lucas Tolimán	10	San Lucas Tolimán	2	Febrero	2023-02-25T00:00:00	2024-11-08T16:00:00	1	Precipitación	0
108920	7	Sololá	713	San Lucas Tolimán	10	San Lucas Tolimán	2	Febrero	2023-02-25T00:00:00	2024-11-08T16:00:00	8	Radiación solar	642
108921	7	Sololá	713	San Lucas Tolimán	10	San Lucas Tolimán	2	Febrero	2023-02-25T00:00:00	2024-11-08T17:00:00	2	Temperatura media	22.1
108922	7	Sololá	713	San Lucas Tolimán	10	San Lucas Tolimán	2	Febrero	2023-02-25T00:00:00	2024-11-08T17:00:00	4	Temperatura máxima	23.5
108923	7	Sololá	713	San Lucas Tolimán	10	San Lucas Tolimán	2	Febrero	2023-02-25T00:00:00	2024-11-08T17:00:00	3	Temperatura mínima	22.1
108924	7	Sololá	713	San Lucas Tolimán	10	San Lucas Tolimán	2	Febrero	2023-02-25T00:00:00	2024-11-08T17:00:00	5	Humedad	59
108925	7	Sololá	713	San Lucas Tolimán	10	San Lucas Tolimán	2	Febrero	2023-02-25T00:00:00	2024-11-08T17:00:00	6	Velocidad del viento	9.7
108926	7	Sololá	713	San Lucas Tolimán	10	San Lucas Tolimán	2	Febrero	2023-02-25T00:00:00	2024-11-08T17:00:00	7	Dirección del viento	9.66
108927	7	Sololá	713	San Lucas Tolimán	10	San Lucas Tolimán	2	Febrero	2023-02-25T00:00:00	2024-11-08T17:00:00	1	Precipitación	0
108928	7	Sololá	713	San Lucas Tolimán	10	San Lucas Tolimán	2	Febrero	2023-02-25T00:00:00	2024-11-08T17:00:00	8	Radiación solar	367
108929	7	Sololá	713	San Lucas Tolimán	10	San Lucas Tolimán	2	Febrero	2023-02-25T00:00:00	2024-11-08T18:00:00	2	Temperatura media	18.6
108930	7	Sololá	713	San Lucas Tolimán	10	San Lucas Tolimán	2	Febrero	2023-02-25T00:00:00	2024-11-08T18:00:00	4	Temperatura máxima	22.1
108931	7	Sololá	713	San Lucas Tolimán	10	San Lucas Tolimán	2	Febrero	2023-02-25T00:00:00	2024-11-08T18:00:00	3	Temperatura mínima	18.6
108932	7	Sololá	713	San Lucas Tolimán	10	San Lucas Tolimán	2	Febrero	2023-02-25T00:00:00	2024-11-08T18:00:00	5	Humedad	62
108933	7	Sololá	713	San Lucas Tolimán	10	San Lucas Tolimán	2	Febrero	2023-02-25T00:00:00	2024-11-08T18:00:00	6	Velocidad del viento	8
108934	7	Sololá	713	San Lucas Tolimán	10	San Lucas Tolimán	2	Febrero	2023-02-25T00:00:00	2024-11-08T18:00:00	7	Dirección del viento	8.05
108935	7	Sololá	713	San Lucas Tolimán	10	San Lucas Tolimán	2	Febrero	2023-02-25T00:00:00	2024-11-08T18:00:00	1	Precipitación	0
108936	7	Sololá	713	San Lucas Tolimán	10	San Lucas Tolimán	2	Febrero	2023-02-25T00:00:00	2024-11-08T18:00:00	8	Radiación solar	31
108937	7	Sololá	713	San Lucas Tolimán	10	San Lucas Tolimán	2	Febrero	2023-02-25T00:00:00	2024-11-08T19:00:00	2	Temperatura media	18
108938	7	Sololá	713	San Lucas Tolimán	10	San Lucas Tolimán	2	Febrero	2023-02-25T00:00:00	2024-11-08T19:00:00	4	Temperatura máxima	18.6
108939	7	Sololá	713	San Lucas Tolimán	10	San Lucas Tolimán	2	Febrero	2023-02-25T00:00:00	2024-11-08T19:00:00	3	Temperatura mínima	17.9
108940	7	Sololá	713	San Lucas Tolimán	10	San Lucas Tolimán	2	Febrero	2023-02-25T00:00:00	2024-11-08T19:00:00	5	Humedad	62
108941	7	Sololá	713	San Lucas Tolimán	10	San Lucas Tolimán	2	Febrero	2023-02-25T00:00:00	2024-11-08T19:00:00	6	Velocidad del viento	8
108942	7	Sololá	713	San Lucas Tolimán	10	San Lucas Tolimán	2	Febrero	2023-02-25T00:00:00	2024-11-08T19:00:00	7	Dirección del viento	8.05
108943	7	Sololá	713	San Lucas Tolimán	10	San Lucas Tolimán	2	Febrero	2023-02-25T00:00:00	2024-11-08T19:00:00	1	Precipitación	0
108944	7	Sololá	713	San Lucas Tolimán	10	San Lucas Tolimán	2	Febrero	2023-02-25T00:00:00	2024-11-08T19:00:00	8	Radiación solar	0
108945	7	Sololá	713	San Lucas Tolimán	10	San Lucas Tolimán	2	Febrero	2023-02-25T00:00:00	2024-11-08T20:00:00	2	Temperatura media	19.6
108946	7	Sololá	713	San Lucas Tolimán	10	San Lucas Tolimán	2	Febrero	2023-02-25T00:00:00	2024-11-08T20:00:00	4	Temperatura máxima	19.8
108947	7	Sololá	713	San Lucas Tolimán	10	San Lucas Tolimán	2	Febrero	2023-02-25T00:00:00	2024-11-08T20:00:00	3	Temperatura mínima	17.8
108948	7	Sololá	713	San Lucas Tolimán	10	San Lucas Tolimán	2	Febrero	2023-02-25T00:00:00	2024-11-08T20:00:00	5	Humedad	49
108949	7	Sololá	713	San Lucas Tolimán	10	San Lucas Tolimán	2	Febrero	2023-02-25T00:00:00	2024-11-08T20:00:00	6	Velocidad del viento	8
108950	7	Sololá	713	San Lucas Tolimán	10	San Lucas Tolimán	2	Febrero	2023-02-25T00:00:00	2024-11-08T20:00:00	7	Dirección del viento	8.05
108951	7	Sololá	713	San Lucas Tolimán	10	San Lucas Tolimán	2	Febrero	2023-02-25T00:00:00	2024-11-08T20:00:00	1	Precipitación	0
108952	7	Sololá	713	San Lucas Tolimán	10	San Lucas Tolimán	2	Febrero	2023-02-25T00:00:00	2024-11-08T20:00:00	8	Radiación solar	0
108953	7	Sololá	713	San Lucas Tolimán	10	San Lucas Tolimán	2	Febrero	2023-02-25T00:00:00	2024-11-08T21:00:00	2	Temperatura media	18.9
108954	7	Sololá	713	San Lucas Tolimán	10	San Lucas Tolimán	2	Febrero	2023-02-25T00:00:00	2024-11-08T21:00:00	4	Temperatura máxima	19.6
108955	7	Sololá	713	San Lucas Tolimán	10	San Lucas Tolimán	2	Febrero	2023-02-25T00:00:00	2024-11-08T21:00:00	3	Temperatura mínima	18.9
108956	7	Sololá	713	San Lucas Tolimán	10	San Lucas Tolimán	2	Febrero	2023-02-25T00:00:00	2024-11-08T21:00:00	5	Humedad	52
108957	7	Sololá	713	San Lucas Tolimán	10	San Lucas Tolimán	2	Febrero	2023-02-25T00:00:00	2024-11-08T21:00:00	6	Velocidad del viento	17.7
108958	7	Sololá	713	San Lucas Tolimán	10	San Lucas Tolimán	2	Febrero	2023-02-25T00:00:00	2024-11-08T21:00:00	7	Dirección del viento	17.7
108959	7	Sololá	713	San Lucas Tolimán	10	San Lucas Tolimán	2	Febrero	2023-02-25T00:00:00	2024-11-08T21:00:00	1	Precipitación	0
108960	7	Sololá	713	San Lucas Tolimán	10	San Lucas Tolimán	2	Febrero	2023-02-25T00:00:00	2024-11-08T21:00:00	8	Radiación solar	0
108961	7	Sololá	713	San Lucas Tolimán	10	San Lucas Tolimán	2	Febrero	2023-02-25T00:00:00	2024-11-08T22:00:00	2	Temperatura media	18.8
108962	7	Sololá	713	San Lucas Tolimán	10	San Lucas Tolimán	2	Febrero	2023-02-25T00:00:00	2024-11-08T22:00:00	4	Temperatura máxima	19.1
108963	7	Sololá	713	San Lucas Tolimán	10	San Lucas Tolimán	2	Febrero	2023-02-25T00:00:00	2024-11-08T22:00:00	3	Temperatura mínima	18.7
108964	7	Sololá	713	San Lucas Tolimán	10	San Lucas Tolimán	2	Febrero	2023-02-25T00:00:00	2024-11-08T22:00:00	5	Humedad	52
108965	7	Sololá	713	San Lucas Tolimán	10	San Lucas Tolimán	2	Febrero	2023-02-25T00:00:00	2024-11-08T22:00:00	6	Velocidad del viento	16.1
108966	7	Sololá	713	San Lucas Tolimán	10	San Lucas Tolimán	2	Febrero	2023-02-25T00:00:00	2024-11-08T22:00:00	7	Dirección del viento	16.09
108967	7	Sololá	713	San Lucas Tolimán	10	San Lucas Tolimán	2	Febrero	2023-02-25T00:00:00	2024-11-08T22:00:00	1	Precipitación	0
108968	7	Sololá	713	San Lucas Tolimán	10	San Lucas Tolimán	2	Febrero	2023-02-25T00:00:00	2024-11-08T22:00:00	8	Radiación solar	0
108969	7	Sololá	713	San Lucas Tolimán	10	San Lucas Tolimán	2	Febrero	2023-02-25T00:00:00	2024-11-08T23:00:00	2	Temperatura media	18.3
108970	7	Sololá	713	San Lucas Tolimán	10	San Lucas Tolimán	2	Febrero	2023-02-25T00:00:00	2024-11-08T23:00:00	4	Temperatura máxima	18.8
108971	7	Sololá	713	San Lucas Tolimán	10	San Lucas Tolimán	2	Febrero	2023-02-25T00:00:00	2024-11-08T23:00:00	3	Temperatura mínima	18.2
108972	7	Sololá	713	San Lucas Tolimán	10	San Lucas Tolimán	2	Febrero	2023-02-25T00:00:00	2024-11-08T23:00:00	5	Humedad	51
108973	7	Sololá	713	San Lucas Tolimán	10	San Lucas Tolimán	2	Febrero	2023-02-25T00:00:00	2024-11-08T23:00:00	6	Velocidad del viento	12.9
108974	7	Sololá	713	San Lucas Tolimán	10	San Lucas Tolimán	2	Febrero	2023-02-25T00:00:00	2024-11-08T23:00:00	7	Dirección del viento	12.87
108975	7	Sololá	713	San Lucas Tolimán	10	San Lucas Tolimán	2	Febrero	2023-02-25T00:00:00	2024-11-08T23:00:00	1	Precipitación	0
108976	7	Sololá	713	San Lucas Tolimán	10	San Lucas Tolimán	2	Febrero	2023-02-25T00:00:00	2024-11-08T23:00:00	8	Radiación solar	0
108977	7	Sololá	713	San Lucas Tolimán	10	San Lucas Tolimán	2	Febrero	2023-02-26T00:00:00	2024-11-08T00:00:00	2	Temperatura media	18.3
108978	7	Sololá	713	San Lucas Tolimán	10	San Lucas Tolimán	2	Febrero	2023-02-26T00:00:00	2024-11-08T00:00:00	4	Temperatura máxima	18.3
108979	7	Sololá	713	San Lucas Tolimán	10	San Lucas Tolimán	2	Febrero	2023-02-26T00:00:00	2024-11-08T00:00:00	3	Temperatura mínima	18.1
108980	7	Sololá	713	San Lucas Tolimán	10	San Lucas Tolimán	2	Febrero	2023-02-26T00:00:00	2024-11-08T00:00:00	5	Humedad	49
108981	7	Sololá	713	San Lucas Tolimán	10	San Lucas Tolimán	2	Febrero	2023-02-26T00:00:00	2024-11-08T00:00:00	6	Velocidad del viento	16.1
108982	7	Sololá	713	San Lucas Tolimán	10	San Lucas Tolimán	2	Febrero	2023-02-26T00:00:00	2024-11-08T00:00:00	7	Dirección del viento	16.09
108983	7	Sololá	713	San Lucas Tolimán	10	San Lucas Tolimán	2	Febrero	2023-02-26T00:00:00	2024-11-08T00:00:00	1	Precipitación	0
108984	7	Sololá	713	San Lucas Tolimán	10	San Lucas Tolimán	2	Febrero	2023-02-26T00:00:00	2024-11-08T00:00:00	8	Radiación solar	0
108985	7	Sololá	713	San Lucas Tolimán	10	San Lucas Tolimán	2	Febrero	2023-02-26T00:00:00	2024-11-08T01:00:00	2	Temperatura media	17.2
108986	7	Sololá	713	San Lucas Tolimán	10	San Lucas Tolimán	2	Febrero	2023-02-26T00:00:00	2024-11-08T01:00:00	4	Temperatura máxima	18.3
108987	7	Sololá	713	San Lucas Tolimán	10	San Lucas Tolimán	2	Febrero	2023-02-26T00:00:00	2024-11-08T01:00:00	3	Temperatura mínima	17.2
108988	7	Sololá	713	San Lucas Tolimán	10	San Lucas Tolimán	2	Febrero	2023-02-26T00:00:00	2024-11-08T01:00:00	5	Humedad	54
108989	7	Sololá	713	San Lucas Tolimán	10	San Lucas Tolimán	2	Febrero	2023-02-26T00:00:00	2024-11-08T01:00:00	6	Velocidad del viento	12.9
108990	7	Sololá	713	San Lucas Tolimán	10	San Lucas Tolimán	2	Febrero	2023-02-26T00:00:00	2024-11-08T01:00:00	7	Dirección del viento	12.87
108991	7	Sololá	713	San Lucas Tolimán	10	San Lucas Tolimán	2	Febrero	2023-02-26T00:00:00	2024-11-08T01:00:00	1	Precipitación	0
108992	7	Sololá	713	San Lucas Tolimán	10	San Lucas Tolimán	2	Febrero	2023-02-26T00:00:00	2024-11-08T01:00:00	8	Radiación solar	0
108993	7	Sololá	713	San Lucas Tolimán	10	San Lucas Tolimán	2	Febrero	2023-02-26T00:00:00	2024-11-08T02:00:00	2	Temperatura media	16.6
108994	7	Sololá	713	San Lucas Tolimán	10	San Lucas Tolimán	2	Febrero	2023-02-26T00:00:00	2024-11-08T02:00:00	4	Temperatura máxima	17.2
108995	7	Sololá	713	San Lucas Tolimán	10	San Lucas Tolimán	2	Febrero	2023-02-26T00:00:00	2024-11-08T02:00:00	3	Temperatura mínima	16.1
108996	7	Sololá	713	San Lucas Tolimán	10	San Lucas Tolimán	2	Febrero	2023-02-26T00:00:00	2024-11-08T02:00:00	5	Humedad	53
108997	7	Sololá	713	San Lucas Tolimán	10	San Lucas Tolimán	2	Febrero	2023-02-26T00:00:00	2024-11-08T02:00:00	6	Velocidad del viento	4.8
108998	7	Sololá	713	San Lucas Tolimán	10	San Lucas Tolimán	2	Febrero	2023-02-26T00:00:00	2024-11-08T02:00:00	7	Dirección del viento	4.83
108999	7	Sololá	713	San Lucas Tolimán	10	San Lucas Tolimán	2	Febrero	2023-02-26T00:00:00	2024-11-08T02:00:00	1	Precipitación	0
109000	7	Sololá	713	San Lucas Tolimán	10	San Lucas Tolimán	2	Febrero	2023-02-26T00:00:00	2024-11-08T02:00:00	8	Radiación solar	0
109001	7	Sololá	713	San Lucas Tolimán	10	San Lucas Tolimán	2	Febrero	2023-02-26T00:00:00	2024-11-08T03:00:00	2	Temperatura media	15.6
109002	7	Sololá	713	San Lucas Tolimán	10	San Lucas Tolimán	2	Febrero	2023-02-26T00:00:00	2024-11-08T03:00:00	4	Temperatura máxima	16.7
109003	7	Sololá	713	San Lucas Tolimán	10	San Lucas Tolimán	2	Febrero	2023-02-26T00:00:00	2024-11-08T03:00:00	3	Temperatura mínima	15.6
109004	7	Sololá	713	San Lucas Tolimán	10	San Lucas Tolimán	2	Febrero	2023-02-26T00:00:00	2024-11-08T03:00:00	5	Humedad	56
109005	7	Sololá	713	San Lucas Tolimán	10	San Lucas Tolimán	2	Febrero	2023-02-26T00:00:00	2024-11-08T03:00:00	6	Velocidad del viento	4.8
109006	7	Sololá	713	San Lucas Tolimán	10	San Lucas Tolimán	2	Febrero	2023-02-26T00:00:00	2024-11-08T03:00:00	7	Dirección del viento	4.83
109007	7	Sololá	713	San Lucas Tolimán	10	San Lucas Tolimán	2	Febrero	2023-02-26T00:00:00	2024-11-08T03:00:00	1	Precipitación	0
109008	7	Sololá	713	San Lucas Tolimán	10	San Lucas Tolimán	2	Febrero	2023-02-26T00:00:00	2024-11-08T03:00:00	8	Radiación solar	0
109009	7	Sololá	713	San Lucas Tolimán	10	San Lucas Tolimán	2	Febrero	2023-02-26T00:00:00	2024-11-08T04:00:00	2	Temperatura media	15.3
109010	7	Sololá	713	San Lucas Tolimán	10	San Lucas Tolimán	2	Febrero	2023-02-26T00:00:00	2024-11-08T04:00:00	4	Temperatura máxima	15.6
109011	7	Sololá	713	San Lucas Tolimán	10	San Lucas Tolimán	2	Febrero	2023-02-26T00:00:00	2024-11-08T04:00:00	3	Temperatura mínima	15.1
109012	7	Sololá	713	San Lucas Tolimán	10	San Lucas Tolimán	2	Febrero	2023-02-26T00:00:00	2024-11-08T04:00:00	5	Humedad	56
109013	7	Sololá	713	San Lucas Tolimán	10	San Lucas Tolimán	2	Febrero	2023-02-26T00:00:00	2024-11-08T04:00:00	6	Velocidad del viento	4.8
109014	7	Sololá	713	San Lucas Tolimán	10	San Lucas Tolimán	2	Febrero	2023-02-26T00:00:00	2024-11-08T04:00:00	7	Dirección del viento	4.83
109015	7	Sololá	713	San Lucas Tolimán	10	San Lucas Tolimán	2	Febrero	2023-02-26T00:00:00	2024-11-08T04:00:00	1	Precipitación	0
109016	7	Sololá	713	San Lucas Tolimán	10	San Lucas Tolimán	2	Febrero	2023-02-26T00:00:00	2024-11-08T04:00:00	8	Radiación solar	0
109017	7	Sololá	713	San Lucas Tolimán	10	San Lucas Tolimán	2	Febrero	2023-02-26T00:00:00	2024-11-08T05:00:00	2	Temperatura media	15.3
109018	7	Sololá	713	San Lucas Tolimán	10	San Lucas Tolimán	2	Febrero	2023-02-26T00:00:00	2024-11-08T05:00:00	4	Temperatura máxima	15.5
109019	7	Sololá	713	San Lucas Tolimán	10	San Lucas Tolimán	2	Febrero	2023-02-26T00:00:00	2024-11-08T05:00:00	3	Temperatura mínima	15.2
109020	7	Sololá	713	San Lucas Tolimán	10	San Lucas Tolimán	2	Febrero	2023-02-26T00:00:00	2024-11-08T05:00:00	5	Humedad	56
109021	7	Sololá	713	San Lucas Tolimán	10	San Lucas Tolimán	2	Febrero	2023-02-26T00:00:00	2024-11-08T05:00:00	6	Velocidad del viento	6.4
109022	7	Sololá	713	San Lucas Tolimán	10	San Lucas Tolimán	2	Febrero	2023-02-26T00:00:00	2024-11-08T05:00:00	7	Dirección del viento	6.44
109023	7	Sololá	713	San Lucas Tolimán	10	San Lucas Tolimán	2	Febrero	2023-02-26T00:00:00	2024-11-08T05:00:00	1	Precipitación	0
109024	7	Sololá	713	San Lucas Tolimán	10	San Lucas Tolimán	2	Febrero	2023-02-26T00:00:00	2024-11-08T05:00:00	8	Radiación solar	0
109025	7	Sololá	713	San Lucas Tolimán	10	San Lucas Tolimán	2	Febrero	2023-02-26T00:00:00	2024-11-08T06:00:00	2	Temperatura media	15.8
109026	7	Sololá	713	San Lucas Tolimán	10	San Lucas Tolimán	2	Febrero	2023-02-26T00:00:00	2024-11-08T06:00:00	4	Temperatura máxima	16.7
109027	7	Sololá	713	San Lucas Tolimán	10	San Lucas Tolimán	2	Febrero	2023-02-26T00:00:00	2024-11-08T06:00:00	3	Temperatura mínima	15.3
109028	7	Sololá	713	San Lucas Tolimán	10	San Lucas Tolimán	2	Febrero	2023-02-26T00:00:00	2024-11-08T06:00:00	5	Humedad	53
109029	7	Sololá	713	San Lucas Tolimán	10	San Lucas Tolimán	2	Febrero	2023-02-26T00:00:00	2024-11-08T06:00:00	6	Velocidad del viento	8
109030	7	Sololá	713	San Lucas Tolimán	10	San Lucas Tolimán	2	Febrero	2023-02-26T00:00:00	2024-11-08T06:00:00	7	Dirección del viento	8.05
109031	7	Sololá	713	San Lucas Tolimán	10	San Lucas Tolimán	2	Febrero	2023-02-26T00:00:00	2024-11-08T06:00:00	1	Precipitación	0
109032	7	Sololá	713	San Lucas Tolimán	10	San Lucas Tolimán	2	Febrero	2023-02-26T00:00:00	2024-11-08T06:00:00	8	Radiación solar	0
109033	7	Sololá	713	San Lucas Tolimán	10	San Lucas Tolimán	2	Febrero	2023-02-26T00:00:00	2024-11-08T07:00:00	2	Temperatura media	16
109034	7	Sololá	713	San Lucas Tolimán	10	San Lucas Tolimán	2	Febrero	2023-02-26T00:00:00	2024-11-08T07:00:00	4	Temperatura máxima	16.2
109035	7	Sololá	713	San Lucas Tolimán	10	San Lucas Tolimán	2	Febrero	2023-02-26T00:00:00	2024-11-08T07:00:00	3	Temperatura mínima	15.4
109036	7	Sololá	713	San Lucas Tolimán	10	San Lucas Tolimán	2	Febrero	2023-02-26T00:00:00	2024-11-08T07:00:00	5	Humedad	51
109037	7	Sololá	713	San Lucas Tolimán	10	San Lucas Tolimán	2	Febrero	2023-02-26T00:00:00	2024-11-08T07:00:00	6	Velocidad del viento	9.7
109038	7	Sololá	713	San Lucas Tolimán	10	San Lucas Tolimán	2	Febrero	2023-02-26T00:00:00	2024-11-08T07:00:00	7	Dirección del viento	9.66
109039	7	Sololá	713	San Lucas Tolimán	10	San Lucas Tolimán	2	Febrero	2023-02-26T00:00:00	2024-11-08T07:00:00	1	Precipitación	0
109040	7	Sololá	713	San Lucas Tolimán	10	San Lucas Tolimán	2	Febrero	2023-02-26T00:00:00	2024-11-08T07:00:00	8	Radiación solar	9
109041	7	Sololá	713	San Lucas Tolimán	10	San Lucas Tolimán	2	Febrero	2023-02-26T00:00:00	2024-11-08T08:00:00	2	Temperatura media	18.1
109042	7	Sololá	713	San Lucas Tolimán	10	San Lucas Tolimán	2	Febrero	2023-02-26T00:00:00	2024-11-08T08:00:00	4	Temperatura máxima	18.1
109043	7	Sololá	713	San Lucas Tolimán	10	San Lucas Tolimán	2	Febrero	2023-02-26T00:00:00	2024-11-08T08:00:00	3	Temperatura mínima	15.9
109044	7	Sololá	713	San Lucas Tolimán	10	San Lucas Tolimán	2	Febrero	2023-02-26T00:00:00	2024-11-08T08:00:00	5	Humedad	46
109045	7	Sololá	713	San Lucas Tolimán	10	San Lucas Tolimán	2	Febrero	2023-02-26T00:00:00	2024-11-08T08:00:00	6	Velocidad del viento	12.9
109046	7	Sololá	713	San Lucas Tolimán	10	San Lucas Tolimán	2	Febrero	2023-02-26T00:00:00	2024-11-08T08:00:00	7	Dirección del viento	12.87
109047	7	Sololá	713	San Lucas Tolimán	10	San Lucas Tolimán	2	Febrero	2023-02-26T00:00:00	2024-11-08T08:00:00	1	Precipitación	0
109048	7	Sololá	713	San Lucas Tolimán	10	San Lucas Tolimán	2	Febrero	2023-02-26T00:00:00	2024-11-08T08:00:00	8	Radiación solar	96
109049	7	Sololá	713	San Lucas Tolimán	10	San Lucas Tolimán	2	Febrero	2023-02-26T00:00:00	2024-11-08T09:00:00	2	Temperatura media	20
109050	7	Sololá	713	San Lucas Tolimán	10	San Lucas Tolimán	2	Febrero	2023-02-26T00:00:00	2024-11-08T09:00:00	4	Temperatura máxima	20
109051	7	Sololá	713	San Lucas Tolimán	10	San Lucas Tolimán	2	Febrero	2023-02-26T00:00:00	2024-11-08T09:00:00	3	Temperatura mínima	18.2
109052	7	Sololá	713	San Lucas Tolimán	10	San Lucas Tolimán	2	Febrero	2023-02-26T00:00:00	2024-11-08T09:00:00	5	Humedad	43
109053	7	Sololá	713	San Lucas Tolimán	10	San Lucas Tolimán	2	Febrero	2023-02-26T00:00:00	2024-11-08T09:00:00	6	Velocidad del viento	9.7
109054	7	Sololá	713	San Lucas Tolimán	10	San Lucas Tolimán	2	Febrero	2023-02-26T00:00:00	2024-11-08T09:00:00	7	Dirección del viento	9.66
109055	7	Sololá	713	San Lucas Tolimán	10	San Lucas Tolimán	2	Febrero	2023-02-26T00:00:00	2024-11-08T09:00:00	1	Precipitación	0
109056	7	Sololá	713	San Lucas Tolimán	10	San Lucas Tolimán	2	Febrero	2023-02-26T00:00:00	2024-11-08T09:00:00	8	Radiación solar	490
109057	7	Sololá	713	San Lucas Tolimán	10	San Lucas Tolimán	2	Febrero	2023-02-26T00:00:00	2024-11-08T10:00:00	2	Temperatura media	22.1
109058	7	Sololá	713	San Lucas Tolimán	10	San Lucas Tolimán	2	Febrero	2023-02-26T00:00:00	2024-11-08T10:00:00	4	Temperatura máxima	22.1
109059	7	Sololá	713	San Lucas Tolimán	10	San Lucas Tolimán	2	Febrero	2023-02-26T00:00:00	2024-11-08T10:00:00	3	Temperatura mínima	20
109060	7	Sololá	713	San Lucas Tolimán	10	San Lucas Tolimán	2	Febrero	2023-02-26T00:00:00	2024-11-08T10:00:00	5	Humedad	39
109061	7	Sololá	713	San Lucas Tolimán	10	San Lucas Tolimán	2	Febrero	2023-02-26T00:00:00	2024-11-08T10:00:00	6	Velocidad del viento	4.8
109062	7	Sololá	713	San Lucas Tolimán	10	San Lucas Tolimán	2	Febrero	2023-02-26T00:00:00	2024-11-08T10:00:00	7	Dirección del viento	4.83
109063	7	Sololá	713	San Lucas Tolimán	10	San Lucas Tolimán	2	Febrero	2023-02-26T00:00:00	2024-11-08T10:00:00	1	Precipitación	0
109064	7	Sololá	713	San Lucas Tolimán	10	San Lucas Tolimán	2	Febrero	2023-02-26T00:00:00	2024-11-08T10:00:00	8	Radiación solar	737
109065	7	Sololá	713	San Lucas Tolimán	10	San Lucas Tolimán	2	Febrero	2023-02-26T00:00:00	2024-11-08T11:00:00	2	Temperatura media	22.4
109066	7	Sololá	713	San Lucas Tolimán	10	San Lucas Tolimán	2	Febrero	2023-02-26T00:00:00	2024-11-08T11:00:00	4	Temperatura máxima	22.9
109067	7	Sololá	713	San Lucas Tolimán	10	San Lucas Tolimán	2	Febrero	2023-02-26T00:00:00	2024-11-08T11:00:00	3	Temperatura mínima	21.9
109068	7	Sololá	713	San Lucas Tolimán	10	San Lucas Tolimán	2	Febrero	2023-02-26T00:00:00	2024-11-08T11:00:00	5	Humedad	49
109069	7	Sololá	713	San Lucas Tolimán	10	San Lucas Tolimán	2	Febrero	2023-02-26T00:00:00	2024-11-08T11:00:00	6	Velocidad del viento	8
109070	7	Sololá	713	San Lucas Tolimán	10	San Lucas Tolimán	2	Febrero	2023-02-26T00:00:00	2024-11-08T11:00:00	7	Dirección del viento	8.05
109071	7	Sololá	713	San Lucas Tolimán	10	San Lucas Tolimán	2	Febrero	2023-02-26T00:00:00	2024-11-08T11:00:00	1	Precipitación	0
109072	7	Sololá	713	San Lucas Tolimán	10	San Lucas Tolimán	2	Febrero	2023-02-26T00:00:00	2024-11-08T11:00:00	8	Radiación solar	919
109073	7	Sololá	713	San Lucas Tolimán	10	San Lucas Tolimán	2	Febrero	2023-02-26T00:00:00	2024-11-08T12:00:00	2	Temperatura media	22.2
109074	7	Sololá	713	San Lucas Tolimán	10	San Lucas Tolimán	2	Febrero	2023-02-26T00:00:00	2024-11-08T12:00:00	4	Temperatura máxima	22.8
109075	7	Sololá	713	San Lucas Tolimán	10	San Lucas Tolimán	2	Febrero	2023-02-26T00:00:00	2024-11-08T12:00:00	3	Temperatura mínima	22.2
109076	7	Sololá	713	San Lucas Tolimán	10	San Lucas Tolimán	2	Febrero	2023-02-26T00:00:00	2024-11-08T12:00:00	5	Humedad	54
109077	7	Sololá	713	San Lucas Tolimán	10	San Lucas Tolimán	2	Febrero	2023-02-26T00:00:00	2024-11-08T12:00:00	6	Velocidad del viento	11.3
109078	7	Sololá	713	San Lucas Tolimán	10	San Lucas Tolimán	2	Febrero	2023-02-26T00:00:00	2024-11-08T12:00:00	7	Dirección del viento	11.27
109079	7	Sololá	713	San Lucas Tolimán	10	San Lucas Tolimán	2	Febrero	2023-02-26T00:00:00	2024-11-08T12:00:00	1	Precipitación	0
109080	7	Sololá	713	San Lucas Tolimán	10	San Lucas Tolimán	2	Febrero	2023-02-26T00:00:00	2024-11-08T12:00:00	8	Radiación solar	1033
109081	7	Sololá	713	San Lucas Tolimán	10	San Lucas Tolimán	2	Febrero	2023-02-26T00:00:00	2024-11-08T13:00:00	2	Temperatura media	23.1
109082	7	Sololá	713	San Lucas Tolimán	10	San Lucas Tolimán	2	Febrero	2023-02-26T00:00:00	2024-11-08T13:00:00	4	Temperatura máxima	23.2
109083	7	Sololá	713	San Lucas Tolimán	10	San Lucas Tolimán	2	Febrero	2023-02-26T00:00:00	2024-11-08T13:00:00	3	Temperatura mínima	22
109084	7	Sololá	713	San Lucas Tolimán	10	San Lucas Tolimán	2	Febrero	2023-02-26T00:00:00	2024-11-08T13:00:00	5	Humedad	52
109085	7	Sololá	713	San Lucas Tolimán	10	San Lucas Tolimán	2	Febrero	2023-02-26T00:00:00	2024-11-08T13:00:00	6	Velocidad del viento	14.5
109086	7	Sololá	713	San Lucas Tolimán	10	San Lucas Tolimán	2	Febrero	2023-02-26T00:00:00	2024-11-08T13:00:00	7	Dirección del viento	14.48
109087	7	Sololá	713	San Lucas Tolimán	10	San Lucas Tolimán	2	Febrero	2023-02-26T00:00:00	2024-11-08T13:00:00	1	Precipitación	0
109088	7	Sololá	713	San Lucas Tolimán	10	San Lucas Tolimán	2	Febrero	2023-02-26T00:00:00	2024-11-08T13:00:00	8	Radiación solar	1069
109089	7	Sololá	713	San Lucas Tolimán	10	San Lucas Tolimán	2	Febrero	2023-02-26T00:00:00	2024-11-08T14:00:00	2	Temperatura media	22.7
109090	7	Sololá	713	San Lucas Tolimán	10	San Lucas Tolimán	2	Febrero	2023-02-26T00:00:00	2024-11-08T14:00:00	4	Temperatura máxima	23.2
109091	7	Sololá	713	San Lucas Tolimán	10	San Lucas Tolimán	2	Febrero	2023-02-26T00:00:00	2024-11-08T14:00:00	3	Temperatura mínima	22.1
109092	7	Sololá	713	San Lucas Tolimán	10	San Lucas Tolimán	2	Febrero	2023-02-26T00:00:00	2024-11-08T14:00:00	5	Humedad	53
109093	7	Sololá	713	San Lucas Tolimán	10	San Lucas Tolimán	2	Febrero	2023-02-26T00:00:00	2024-11-08T14:00:00	6	Velocidad del viento	14.5
109094	7	Sololá	713	San Lucas Tolimán	10	San Lucas Tolimán	2	Febrero	2023-02-26T00:00:00	2024-11-08T14:00:00	7	Dirección del viento	14.48
109095	7	Sololá	713	San Lucas Tolimán	10	San Lucas Tolimán	2	Febrero	2023-02-26T00:00:00	2024-11-08T14:00:00	1	Precipitación	0
109096	7	Sololá	713	San Lucas Tolimán	10	San Lucas Tolimán	2	Febrero	2023-02-26T00:00:00	2024-11-08T14:00:00	8	Radiación solar	993
109097	7	Sololá	713	San Lucas Tolimán	10	San Lucas Tolimán	2	Febrero	2023-02-26T00:00:00	2024-11-08T15:00:00	2	Temperatura media	22.1
109098	7	Sololá	713	San Lucas Tolimán	10	San Lucas Tolimán	2	Febrero	2023-02-26T00:00:00	2024-11-08T15:00:00	4	Temperatura máxima	23.2
109099	7	Sololá	713	San Lucas Tolimán	10	San Lucas Tolimán	2	Febrero	2023-02-26T00:00:00	2024-11-08T15:00:00	3	Temperatura mínima	22.1
109100	7	Sololá	713	San Lucas Tolimán	10	San Lucas Tolimán	2	Febrero	2023-02-26T00:00:00	2024-11-08T15:00:00	5	Humedad	55
109101	7	Sololá	713	San Lucas Tolimán	10	San Lucas Tolimán	2	Febrero	2023-02-26T00:00:00	2024-11-08T15:00:00	6	Velocidad del viento	12.9
109102	7	Sololá	713	San Lucas Tolimán	10	San Lucas Tolimán	2	Febrero	2023-02-26T00:00:00	2024-11-08T15:00:00	7	Dirección del viento	12.87
109103	7	Sololá	713	San Lucas Tolimán	10	San Lucas Tolimán	2	Febrero	2023-02-26T00:00:00	2024-11-08T15:00:00	1	Precipitación	0
109104	7	Sololá	713	San Lucas Tolimán	10	San Lucas Tolimán	2	Febrero	2023-02-26T00:00:00	2024-11-08T15:00:00	8	Radiación solar	862
109105	7	Sololá	713	San Lucas Tolimán	10	San Lucas Tolimán	2	Febrero	2023-02-26T00:00:00	2024-11-08T16:00:00	2	Temperatura media	21.2
109106	7	Sololá	713	San Lucas Tolimán	10	San Lucas Tolimán	2	Febrero	2023-02-26T00:00:00	2024-11-08T16:00:00	4	Temperatura máxima	22.6
109107	7	Sololá	713	San Lucas Tolimán	10	San Lucas Tolimán	2	Febrero	2023-02-26T00:00:00	2024-11-08T16:00:00	3	Temperatura mínima	21.2
109108	7	Sololá	713	San Lucas Tolimán	10	San Lucas Tolimán	2	Febrero	2023-02-26T00:00:00	2024-11-08T16:00:00	5	Humedad	58
109109	7	Sololá	713	San Lucas Tolimán	10	San Lucas Tolimán	2	Febrero	2023-02-26T00:00:00	2024-11-08T16:00:00	6	Velocidad del viento	12.9
109110	7	Sololá	713	San Lucas Tolimán	10	San Lucas Tolimán	2	Febrero	2023-02-26T00:00:00	2024-11-08T16:00:00	7	Dirección del viento	12.87
109111	7	Sololá	713	San Lucas Tolimán	10	San Lucas Tolimán	2	Febrero	2023-02-26T00:00:00	2024-11-08T16:00:00	1	Precipitación	0
109112	7	Sololá	713	San Lucas Tolimán	10	San Lucas Tolimán	2	Febrero	2023-02-26T00:00:00	2024-11-08T16:00:00	8	Radiación solar	635
109113	7	Sololá	713	San Lucas Tolimán	10	San Lucas Tolimán	2	Febrero	2023-02-26T00:00:00	2024-11-08T17:00:00	2	Temperatura media	19
109114	7	Sololá	713	San Lucas Tolimán	10	San Lucas Tolimán	2	Febrero	2023-02-26T00:00:00	2024-11-08T17:00:00	4	Temperatura máxima	21.2
109115	7	Sololá	713	San Lucas Tolimán	10	San Lucas Tolimán	2	Febrero	2023-02-26T00:00:00	2024-11-08T17:00:00	3	Temperatura mínima	18.9
109116	7	Sololá	713	San Lucas Tolimán	10	San Lucas Tolimán	2	Febrero	2023-02-26T00:00:00	2024-11-08T17:00:00	5	Humedad	62
109117	7	Sololá	713	San Lucas Tolimán	10	San Lucas Tolimán	2	Febrero	2023-02-26T00:00:00	2024-11-08T17:00:00	6	Velocidad del viento	12.9
109118	7	Sololá	713	San Lucas Tolimán	10	San Lucas Tolimán	2	Febrero	2023-02-26T00:00:00	2024-11-08T17:00:00	7	Dirección del viento	12.87
109119	7	Sololá	713	San Lucas Tolimán	10	San Lucas Tolimán	2	Febrero	2023-02-26T00:00:00	2024-11-08T17:00:00	1	Precipitación	0
109120	7	Sololá	713	San Lucas Tolimán	10	San Lucas Tolimán	2	Febrero	2023-02-26T00:00:00	2024-11-08T17:00:00	8	Radiación solar	203
109121	7	Sololá	713	San Lucas Tolimán	10	San Lucas Tolimán	2	Febrero	2023-02-26T00:00:00	2024-11-08T18:00:00	2	Temperatura media	18.1
109122	7	Sololá	713	San Lucas Tolimán	10	San Lucas Tolimán	2	Febrero	2023-02-26T00:00:00	2024-11-08T18:00:00	4	Temperatura máxima	18.9
109123	7	Sololá	713	San Lucas Tolimán	10	San Lucas Tolimán	2	Febrero	2023-02-26T00:00:00	2024-11-08T18:00:00	3	Temperatura mínima	18.1
109124	7	Sololá	713	San Lucas Tolimán	10	San Lucas Tolimán	2	Febrero	2023-02-26T00:00:00	2024-11-08T18:00:00	5	Humedad	62
109125	7	Sololá	713	San Lucas Tolimán	10	San Lucas Tolimán	2	Febrero	2023-02-26T00:00:00	2024-11-08T18:00:00	6	Velocidad del viento	8
109126	7	Sololá	713	San Lucas Tolimán	10	San Lucas Tolimán	2	Febrero	2023-02-26T00:00:00	2024-11-08T18:00:00	7	Dirección del viento	8.05
109127	7	Sololá	713	San Lucas Tolimán	10	San Lucas Tolimán	2	Febrero	2023-02-26T00:00:00	2024-11-08T18:00:00	1	Precipitación	0
109128	7	Sololá	713	San Lucas Tolimán	10	San Lucas Tolimán	2	Febrero	2023-02-26T00:00:00	2024-11-08T18:00:00	8	Radiación solar	35
109129	7	Sololá	713	San Lucas Tolimán	10	San Lucas Tolimán	2	Febrero	2023-02-26T00:00:00	2024-11-08T19:00:00	2	Temperatura media	17.7
109130	7	Sololá	713	San Lucas Tolimán	10	San Lucas Tolimán	2	Febrero	2023-02-26T00:00:00	2024-11-08T19:00:00	4	Temperatura máxima	18.1
109131	7	Sololá	713	San Lucas Tolimán	10	San Lucas Tolimán	2	Febrero	2023-02-26T00:00:00	2024-11-08T19:00:00	3	Temperatura mínima	17.7
109132	7	Sololá	713	San Lucas Tolimán	10	San Lucas Tolimán	2	Febrero	2023-02-26T00:00:00	2024-11-08T19:00:00	5	Humedad	61
109133	7	Sololá	713	San Lucas Tolimán	10	San Lucas Tolimán	2	Febrero	2023-02-26T00:00:00	2024-11-08T19:00:00	6	Velocidad del viento	6.4
109134	7	Sololá	713	San Lucas Tolimán	10	San Lucas Tolimán	2	Febrero	2023-02-26T00:00:00	2024-11-08T19:00:00	7	Dirección del viento	6.44
109135	7	Sololá	713	San Lucas Tolimán	10	San Lucas Tolimán	2	Febrero	2023-02-26T00:00:00	2024-11-08T19:00:00	1	Precipitación	0
109136	7	Sololá	713	San Lucas Tolimán	10	San Lucas Tolimán	2	Febrero	2023-02-26T00:00:00	2024-11-08T19:00:00	8	Radiación solar	0
109137	7	Sololá	713	San Lucas Tolimán	10	San Lucas Tolimán	2	Febrero	2023-02-26T00:00:00	2024-11-08T20:00:00	2	Temperatura media	17.2
109138	7	Sololá	713	San Lucas Tolimán	10	San Lucas Tolimán	2	Febrero	2023-02-26T00:00:00	2024-11-08T20:00:00	4	Temperatura máxima	17.7
109139	7	Sololá	713	San Lucas Tolimán	10	San Lucas Tolimán	2	Febrero	2023-02-26T00:00:00	2024-11-08T20:00:00	3	Temperatura mínima	17.2
109140	7	Sololá	713	San Lucas Tolimán	10	San Lucas Tolimán	2	Febrero	2023-02-26T00:00:00	2024-11-08T20:00:00	5	Humedad	63
109141	7	Sololá	713	San Lucas Tolimán	10	San Lucas Tolimán	2	Febrero	2023-02-26T00:00:00	2024-11-08T20:00:00	6	Velocidad del viento	4.8
109142	7	Sololá	713	San Lucas Tolimán	10	San Lucas Tolimán	2	Febrero	2023-02-26T00:00:00	2024-11-08T20:00:00	7	Dirección del viento	4.83
109143	7	Sololá	713	San Lucas Tolimán	10	San Lucas Tolimán	2	Febrero	2023-02-26T00:00:00	2024-11-08T20:00:00	1	Precipitación	0
109144	7	Sololá	713	San Lucas Tolimán	10	San Lucas Tolimán	2	Febrero	2023-02-26T00:00:00	2024-11-08T20:00:00	8	Radiación solar	0
109145	7	Sololá	713	San Lucas Tolimán	10	San Lucas Tolimán	2	Febrero	2023-02-26T00:00:00	2024-11-08T21:00:00	2	Temperatura media	16.1
109146	7	Sololá	713	San Lucas Tolimán	10	San Lucas Tolimán	2	Febrero	2023-02-26T00:00:00	2024-11-08T21:00:00	4	Temperatura máxima	17.3
109147	7	Sololá	713	San Lucas Tolimán	10	San Lucas Tolimán	2	Febrero	2023-02-26T00:00:00	2024-11-08T21:00:00	3	Temperatura mínima	16.1
109148	7	Sololá	713	San Lucas Tolimán	10	San Lucas Tolimán	2	Febrero	2023-02-26T00:00:00	2024-11-08T21:00:00	5	Humedad	61
109149	7	Sololá	713	San Lucas Tolimán	10	San Lucas Tolimán	2	Febrero	2023-02-26T00:00:00	2024-11-08T21:00:00	6	Velocidad del viento	3.2
109150	7	Sololá	713	San Lucas Tolimán	10	San Lucas Tolimán	2	Febrero	2023-02-26T00:00:00	2024-11-08T21:00:00	7	Dirección del viento	3.22
109151	7	Sololá	713	San Lucas Tolimán	10	San Lucas Tolimán	2	Febrero	2023-02-26T00:00:00	2024-11-08T21:00:00	1	Precipitación	0
109152	7	Sololá	713	San Lucas Tolimán	10	San Lucas Tolimán	2	Febrero	2023-02-26T00:00:00	2024-11-08T21:00:00	8	Radiación solar	0
109153	7	Sololá	713	San Lucas Tolimán	10	San Lucas Tolimán	2	Febrero	2023-02-26T00:00:00	2024-11-08T22:00:00	2	Temperatura media	15.3
109154	7	Sololá	713	San Lucas Tolimán	10	San Lucas Tolimán	2	Febrero	2023-02-26T00:00:00	2024-11-08T22:00:00	4	Temperatura máxima	16.1
109155	7	Sololá	713	San Lucas Tolimán	10	San Lucas Tolimán	2	Febrero	2023-02-26T00:00:00	2024-11-08T22:00:00	3	Temperatura mínima	15.3
109156	7	Sololá	713	San Lucas Tolimán	10	San Lucas Tolimán	2	Febrero	2023-02-26T00:00:00	2024-11-08T22:00:00	5	Humedad	60
109157	7	Sololá	713	San Lucas Tolimán	10	San Lucas Tolimán	2	Febrero	2023-02-26T00:00:00	2024-11-08T22:00:00	6	Velocidad del viento	3.2
109158	7	Sololá	713	San Lucas Tolimán	10	San Lucas Tolimán	2	Febrero	2023-02-26T00:00:00	2024-11-08T22:00:00	7	Dirección del viento	3.22
109159	7	Sololá	713	San Lucas Tolimán	10	San Lucas Tolimán	2	Febrero	2023-02-26T00:00:00	2024-11-08T22:00:00	1	Precipitación	0
109160	7	Sololá	713	San Lucas Tolimán	10	San Lucas Tolimán	2	Febrero	2023-02-26T00:00:00	2024-11-08T22:00:00	8	Radiación solar	0
109161	7	Sololá	713	San Lucas Tolimán	10	San Lucas Tolimán	2	Febrero	2023-02-26T00:00:00	2024-11-08T23:00:00	2	Temperatura media	14.1
109162	7	Sololá	713	San Lucas Tolimán	10	San Lucas Tolimán	2	Febrero	2023-02-26T00:00:00	2024-11-08T23:00:00	4	Temperatura máxima	15.3
109163	7	Sololá	713	San Lucas Tolimán	10	San Lucas Tolimán	2	Febrero	2023-02-26T00:00:00	2024-11-08T23:00:00	3	Temperatura mínima	14.1
109164	7	Sololá	713	San Lucas Tolimán	10	San Lucas Tolimán	2	Febrero	2023-02-26T00:00:00	2024-11-08T23:00:00	5	Humedad	59
109165	7	Sololá	713	San Lucas Tolimán	10	San Lucas Tolimán	2	Febrero	2023-02-26T00:00:00	2024-11-08T23:00:00	6	Velocidad del viento	3.2
109166	7	Sololá	713	San Lucas Tolimán	10	San Lucas Tolimán	2	Febrero	2023-02-26T00:00:00	2024-11-08T23:00:00	7	Dirección del viento	3.22
109167	7	Sololá	713	San Lucas Tolimán	10	San Lucas Tolimán	2	Febrero	2023-02-26T00:00:00	2024-11-08T23:00:00	1	Precipitación	0
109168	7	Sololá	713	San Lucas Tolimán	10	San Lucas Tolimán	2	Febrero	2023-02-26T00:00:00	2024-11-08T23:00:00	8	Radiación solar	0
109169	7	Sololá	713	San Lucas Tolimán	10	San Lucas Tolimán	2	Febrero	2023-02-27T00:00:00	2024-11-08T00:00:00	2	Temperatura media	14.8
109170	7	Sololá	713	San Lucas Tolimán	10	San Lucas Tolimán	2	Febrero	2023-02-27T00:00:00	2024-11-08T00:00:00	4	Temperatura máxima	14.8
109171	7	Sololá	713	San Lucas Tolimán	10	San Lucas Tolimán	2	Febrero	2023-02-27T00:00:00	2024-11-08T00:00:00	3	Temperatura mínima	13.9
109172	7	Sololá	713	San Lucas Tolimán	10	San Lucas Tolimán	2	Febrero	2023-02-27T00:00:00	2024-11-08T00:00:00	5	Humedad	57
109173	7	Sololá	713	San Lucas Tolimán	10	San Lucas Tolimán	2	Febrero	2023-02-27T00:00:00	2024-11-08T00:00:00	6	Velocidad del viento	1.6
109174	7	Sololá	713	San Lucas Tolimán	10	San Lucas Tolimán	2	Febrero	2023-02-27T00:00:00	2024-11-08T00:00:00	7	Dirección del viento	1.61
109175	7	Sololá	713	San Lucas Tolimán	10	San Lucas Tolimán	2	Febrero	2023-02-27T00:00:00	2024-11-08T00:00:00	1	Precipitación	0
109176	7	Sololá	713	San Lucas Tolimán	10	San Lucas Tolimán	2	Febrero	2023-02-27T00:00:00	2024-11-08T00:00:00	8	Radiación solar	0
109177	7	Sololá	713	San Lucas Tolimán	10	San Lucas Tolimán	2	Febrero	2023-02-27T00:00:00	2024-11-08T01:00:00	2	Temperatura media	15.1
109178	7	Sololá	713	San Lucas Tolimán	10	San Lucas Tolimán	2	Febrero	2023-02-27T00:00:00	2024-11-08T01:00:00	4	Temperatura máxima	15.4
109179	7	Sololá	713	San Lucas Tolimán	10	San Lucas Tolimán	2	Febrero	2023-02-27T00:00:00	2024-11-08T01:00:00	3	Temperatura mínima	14.8
109180	7	Sololá	713	San Lucas Tolimán	10	San Lucas Tolimán	2	Febrero	2023-02-27T00:00:00	2024-11-08T01:00:00	5	Humedad	57
109181	7	Sololá	713	San Lucas Tolimán	10	San Lucas Tolimán	2	Febrero	2023-02-27T00:00:00	2024-11-08T01:00:00	6	Velocidad del viento	3.2
109182	7	Sololá	713	San Lucas Tolimán	10	San Lucas Tolimán	2	Febrero	2023-02-27T00:00:00	2024-11-08T01:00:00	7	Dirección del viento	3.22
109183	7	Sololá	713	San Lucas Tolimán	10	San Lucas Tolimán	2	Febrero	2023-02-27T00:00:00	2024-11-08T01:00:00	1	Precipitación	0
109184	7	Sololá	713	San Lucas Tolimán	10	San Lucas Tolimán	2	Febrero	2023-02-27T00:00:00	2024-11-08T01:00:00	8	Radiación solar	0
109185	7	Sololá	713	San Lucas Tolimán	10	San Lucas Tolimán	2	Febrero	2023-02-27T00:00:00	2024-11-08T02:00:00	2	Temperatura media	15
109186	7	Sololá	713	San Lucas Tolimán	10	San Lucas Tolimán	2	Febrero	2023-02-27T00:00:00	2024-11-08T02:00:00	4	Temperatura máxima	15.3
109187	7	Sololá	713	San Lucas Tolimán	10	San Lucas Tolimán	2	Febrero	2023-02-27T00:00:00	2024-11-08T02:00:00	3	Temperatura mínima	14.9
109188	7	Sololá	713	San Lucas Tolimán	10	San Lucas Tolimán	2	Febrero	2023-02-27T00:00:00	2024-11-08T02:00:00	5	Humedad	57
109189	7	Sololá	713	San Lucas Tolimán	10	San Lucas Tolimán	2	Febrero	2023-02-27T00:00:00	2024-11-08T02:00:00	6	Velocidad del viento	3.2
109190	7	Sololá	713	San Lucas Tolimán	10	San Lucas Tolimán	2	Febrero	2023-02-27T00:00:00	2024-11-08T02:00:00	7	Dirección del viento	3.22
109191	7	Sololá	713	San Lucas Tolimán	10	San Lucas Tolimán	2	Febrero	2023-02-27T00:00:00	2024-11-08T02:00:00	1	Precipitación	0
109192	7	Sololá	713	San Lucas Tolimán	10	San Lucas Tolimán	2	Febrero	2023-02-27T00:00:00	2024-11-08T02:00:00	8	Radiación solar	0
109193	7	Sololá	713	San Lucas Tolimán	10	San Lucas Tolimán	2	Febrero	2023-02-27T00:00:00	2024-11-08T03:00:00	2	Temperatura media	14.3
109194	7	Sololá	713	San Lucas Tolimán	10	San Lucas Tolimán	2	Febrero	2023-02-27T00:00:00	2024-11-08T03:00:00	4	Temperatura máxima	15.1
109195	7	Sololá	713	San Lucas Tolimán	10	San Lucas Tolimán	2	Febrero	2023-02-27T00:00:00	2024-11-08T03:00:00	3	Temperatura mínima	14.3
109196	7	Sololá	713	San Lucas Tolimán	10	San Lucas Tolimán	2	Febrero	2023-02-27T00:00:00	2024-11-08T03:00:00	5	Humedad	58
109197	7	Sololá	713	San Lucas Tolimán	10	San Lucas Tolimán	2	Febrero	2023-02-27T00:00:00	2024-11-08T03:00:00	6	Velocidad del viento	1.6
109198	7	Sololá	713	San Lucas Tolimán	10	San Lucas Tolimán	2	Febrero	2023-02-27T00:00:00	2024-11-08T03:00:00	7	Dirección del viento	1.61
109199	7	Sololá	713	San Lucas Tolimán	10	San Lucas Tolimán	2	Febrero	2023-02-27T00:00:00	2024-11-08T03:00:00	1	Precipitación	0
109200	7	Sololá	713	San Lucas Tolimán	10	San Lucas Tolimán	2	Febrero	2023-02-27T00:00:00	2024-11-08T03:00:00	8	Radiación solar	0
109201	7	Sololá	713	San Lucas Tolimán	10	San Lucas Tolimán	2	Febrero	2023-02-27T00:00:00	2024-11-08T04:00:00	2	Temperatura media	13.7
109202	7	Sololá	713	San Lucas Tolimán	10	San Lucas Tolimán	2	Febrero	2023-02-27T00:00:00	2024-11-08T04:00:00	4	Temperatura máxima	14.3
109203	7	Sololá	713	San Lucas Tolimán	10	San Lucas Tolimán	2	Febrero	2023-02-27T00:00:00	2024-11-08T04:00:00	3	Temperatura mínima	13.7
109204	7	Sololá	713	San Lucas Tolimán	10	San Lucas Tolimán	2	Febrero	2023-02-27T00:00:00	2024-11-08T04:00:00	5	Humedad	60
109205	7	Sololá	713	San Lucas Tolimán	10	San Lucas Tolimán	2	Febrero	2023-02-27T00:00:00	2024-11-08T04:00:00	6	Velocidad del viento	1.6
109206	7	Sololá	713	San Lucas Tolimán	10	San Lucas Tolimán	2	Febrero	2023-02-27T00:00:00	2024-11-08T04:00:00	7	Dirección del viento	1.61
109207	7	Sololá	713	San Lucas Tolimán	10	San Lucas Tolimán	2	Febrero	2023-02-27T00:00:00	2024-11-08T04:00:00	1	Precipitación	0
109208	7	Sololá	713	San Lucas Tolimán	10	San Lucas Tolimán	2	Febrero	2023-02-27T00:00:00	2024-11-08T04:00:00	8	Radiación solar	0
109209	7	Sololá	713	San Lucas Tolimán	10	San Lucas Tolimán	2	Febrero	2023-02-27T00:00:00	2024-11-08T05:00:00	2	Temperatura media	13.3
109210	7	Sololá	713	San Lucas Tolimán	10	San Lucas Tolimán	2	Febrero	2023-02-27T00:00:00	2024-11-08T05:00:00	4	Temperatura máxima	13.7
109211	7	Sololá	713	San Lucas Tolimán	10	San Lucas Tolimán	2	Febrero	2023-02-27T00:00:00	2024-11-08T05:00:00	3	Temperatura mínima	13.3
109212	7	Sololá	713	San Lucas Tolimán	10	San Lucas Tolimán	2	Febrero	2023-02-27T00:00:00	2024-11-08T05:00:00	5	Humedad	60
109213	7	Sololá	713	San Lucas Tolimán	10	San Lucas Tolimán	2	Febrero	2023-02-27T00:00:00	2024-11-08T05:00:00	6	Velocidad del viento	0
109214	7	Sololá	713	San Lucas Tolimán	10	San Lucas Tolimán	2	Febrero	2023-02-27T00:00:00	2024-11-08T05:00:00	7	Dirección del viento	0
109215	7	Sololá	713	San Lucas Tolimán	10	San Lucas Tolimán	2	Febrero	2023-02-27T00:00:00	2024-11-08T05:00:00	1	Precipitación	0
109216	7	Sololá	713	San Lucas Tolimán	10	San Lucas Tolimán	2	Febrero	2023-02-27T00:00:00	2024-11-08T05:00:00	8	Radiación solar	0
109217	7	Sololá	713	San Lucas Tolimán	10	San Lucas Tolimán	2	Febrero	2023-02-27T00:00:00	2024-11-08T06:00:00	2	Temperatura media	13.3
109218	7	Sololá	713	San Lucas Tolimán	10	San Lucas Tolimán	2	Febrero	2023-02-27T00:00:00	2024-11-08T06:00:00	4	Temperatura máxima	13.3
109219	7	Sololá	713	San Lucas Tolimán	10	San Lucas Tolimán	2	Febrero	2023-02-27T00:00:00	2024-11-08T06:00:00	3	Temperatura mínima	13.1
109220	7	Sololá	713	San Lucas Tolimán	10	San Lucas Tolimán	2	Febrero	2023-02-27T00:00:00	2024-11-08T06:00:00	5	Humedad	58
109221	7	Sololá	713	San Lucas Tolimán	10	San Lucas Tolimán	2	Febrero	2023-02-27T00:00:00	2024-11-08T06:00:00	6	Velocidad del viento	0
109222	7	Sololá	713	San Lucas Tolimán	10	San Lucas Tolimán	2	Febrero	2023-02-27T00:00:00	2024-11-08T06:00:00	7	Dirección del viento	0
109223	7	Sololá	713	San Lucas Tolimán	10	San Lucas Tolimán	2	Febrero	2023-02-27T00:00:00	2024-11-08T06:00:00	1	Precipitación	0
109224	7	Sololá	713	San Lucas Tolimán	10	San Lucas Tolimán	2	Febrero	2023-02-27T00:00:00	2024-11-08T06:00:00	8	Radiación solar	0
109225	7	Sololá	713	San Lucas Tolimán	10	San Lucas Tolimán	2	Febrero	2023-02-27T00:00:00	2024-11-08T07:00:00	2	Temperatura media	12.9
109226	7	Sololá	713	San Lucas Tolimán	10	San Lucas Tolimán	2	Febrero	2023-02-27T00:00:00	2024-11-08T07:00:00	4	Temperatura máxima	13.3
109227	7	Sololá	713	San Lucas Tolimán	10	San Lucas Tolimán	2	Febrero	2023-02-27T00:00:00	2024-11-08T07:00:00	3	Temperatura mínima	12.7
109228	7	Sololá	713	San Lucas Tolimán	10	San Lucas Tolimán	2	Febrero	2023-02-27T00:00:00	2024-11-08T07:00:00	5	Humedad	59
109229	7	Sololá	713	San Lucas Tolimán	10	San Lucas Tolimán	2	Febrero	2023-02-27T00:00:00	2024-11-08T07:00:00	6	Velocidad del viento	0
109230	7	Sololá	713	San Lucas Tolimán	10	San Lucas Tolimán	2	Febrero	2023-02-27T00:00:00	2024-11-08T07:00:00	7	Dirección del viento	0
109231	7	Sololá	713	San Lucas Tolimán	10	San Lucas Tolimán	2	Febrero	2023-02-27T00:00:00	2024-11-08T07:00:00	1	Precipitación	0
109232	7	Sololá	713	San Lucas Tolimán	10	San Lucas Tolimán	2	Febrero	2023-02-27T00:00:00	2024-11-08T07:00:00	8	Radiación solar	10
109233	7	Sololá	713	San Lucas Tolimán	10	San Lucas Tolimán	2	Febrero	2023-02-27T00:00:00	2024-11-08T08:00:00	2	Temperatura media	15.2
109234	7	Sololá	713	San Lucas Tolimán	10	San Lucas Tolimán	2	Febrero	2023-02-27T00:00:00	2024-11-08T08:00:00	4	Temperatura máxima	15.2
109235	7	Sololá	713	San Lucas Tolimán	10	San Lucas Tolimán	2	Febrero	2023-02-27T00:00:00	2024-11-08T08:00:00	3	Temperatura mínima	12.9
109236	7	Sololá	713	San Lucas Tolimán	10	San Lucas Tolimán	2	Febrero	2023-02-27T00:00:00	2024-11-08T08:00:00	5	Humedad	57
109237	7	Sololá	713	San Lucas Tolimán	10	San Lucas Tolimán	2	Febrero	2023-02-27T00:00:00	2024-11-08T08:00:00	6	Velocidad del viento	0
109238	7	Sololá	713	San Lucas Tolimán	10	San Lucas Tolimán	2	Febrero	2023-02-27T00:00:00	2024-11-08T08:00:00	7	Dirección del viento	0
109239	7	Sololá	713	San Lucas Tolimán	10	San Lucas Tolimán	2	Febrero	2023-02-27T00:00:00	2024-11-08T08:00:00	1	Precipitación	0
109240	7	Sololá	713	San Lucas Tolimán	10	San Lucas Tolimán	2	Febrero	2023-02-27T00:00:00	2024-11-08T08:00:00	8	Radiación solar	102
109241	7	Sololá	713	San Lucas Tolimán	10	San Lucas Tolimán	2	Febrero	2023-02-27T00:00:00	2024-11-08T09:00:00	2	Temperatura media	17.3
109242	7	Sololá	713	San Lucas Tolimán	10	San Lucas Tolimán	2	Febrero	2023-02-27T00:00:00	2024-11-08T09:00:00	4	Temperatura máxima	17.3
109243	7	Sololá	713	San Lucas Tolimán	10	San Lucas Tolimán	2	Febrero	2023-02-27T00:00:00	2024-11-08T09:00:00	3	Temperatura mínima	15.3
109244	7	Sololá	713	San Lucas Tolimán	10	San Lucas Tolimán	2	Febrero	2023-02-27T00:00:00	2024-11-08T09:00:00	5	Humedad	55
109245	7	Sololá	713	San Lucas Tolimán	10	San Lucas Tolimán	2	Febrero	2023-02-27T00:00:00	2024-11-08T09:00:00	6	Velocidad del viento	4.8
109246	7	Sololá	713	San Lucas Tolimán	10	San Lucas Tolimán	2	Febrero	2023-02-27T00:00:00	2024-11-08T09:00:00	7	Dirección del viento	4.83
109247	7	Sololá	713	San Lucas Tolimán	10	San Lucas Tolimán	2	Febrero	2023-02-27T00:00:00	2024-11-08T09:00:00	1	Precipitación	0
109248	7	Sololá	713	San Lucas Tolimán	10	San Lucas Tolimán	2	Febrero	2023-02-27T00:00:00	2024-11-08T09:00:00	8	Radiación solar	443
109249	7	Sololá	713	San Lucas Tolimán	10	San Lucas Tolimán	2	Febrero	2023-02-27T00:00:00	2024-11-08T10:00:00	2	Temperatura media	19.6
109250	7	Sololá	713	San Lucas Tolimán	10	San Lucas Tolimán	2	Febrero	2023-02-27T00:00:00	2024-11-08T10:00:00	4	Temperatura máxima	19.6
109251	7	Sololá	713	San Lucas Tolimán	10	San Lucas Tolimán	2	Febrero	2023-02-27T00:00:00	2024-11-08T10:00:00	3	Temperatura mínima	17.3
109252	7	Sololá	713	San Lucas Tolimán	10	San Lucas Tolimán	2	Febrero	2023-02-27T00:00:00	2024-11-08T10:00:00	5	Humedad	48
109253	7	Sololá	713	San Lucas Tolimán	10	San Lucas Tolimán	2	Febrero	2023-02-27T00:00:00	2024-11-08T10:00:00	6	Velocidad del viento	4.8
109254	7	Sololá	713	San Lucas Tolimán	10	San Lucas Tolimán	2	Febrero	2023-02-27T00:00:00	2024-11-08T10:00:00	7	Dirección del viento	4.83
109255	7	Sololá	713	San Lucas Tolimán	10	San Lucas Tolimán	2	Febrero	2023-02-27T00:00:00	2024-11-08T10:00:00	1	Precipitación	0
109256	7	Sololá	713	San Lucas Tolimán	10	San Lucas Tolimán	2	Febrero	2023-02-27T00:00:00	2024-11-08T10:00:00	8	Radiación solar	686
109257	7	Sololá	713	San Lucas Tolimán	10	San Lucas Tolimán	2	Febrero	2023-02-27T00:00:00	2024-11-08T11:00:00	2	Temperatura media	21.9
109258	7	Sololá	713	San Lucas Tolimán	10	San Lucas Tolimán	2	Febrero	2023-02-27T00:00:00	2024-11-08T11:00:00	4	Temperatura máxima	21.9
109259	7	Sololá	713	San Lucas Tolimán	10	San Lucas Tolimán	2	Febrero	2023-02-27T00:00:00	2024-11-08T11:00:00	3	Temperatura mínima	19.6
109260	7	Sololá	713	San Lucas Tolimán	10	San Lucas Tolimán	2	Febrero	2023-02-27T00:00:00	2024-11-08T11:00:00	5	Humedad	47
109261	7	Sololá	713	San Lucas Tolimán	10	San Lucas Tolimán	2	Febrero	2023-02-27T00:00:00	2024-11-08T11:00:00	6	Velocidad del viento	8
109262	7	Sololá	713	San Lucas Tolimán	10	San Lucas Tolimán	2	Febrero	2023-02-27T00:00:00	2024-11-08T11:00:00	7	Dirección del viento	8.05
109263	7	Sololá	713	San Lucas Tolimán	10	San Lucas Tolimán	2	Febrero	2023-02-27T00:00:00	2024-11-08T11:00:00	1	Precipitación	0
109264	7	Sololá	713	San Lucas Tolimán	10	San Lucas Tolimán	2	Febrero	2023-02-27T00:00:00	2024-11-08T11:00:00	8	Radiación solar	912
109265	7	Sololá	713	San Lucas Tolimán	10	San Lucas Tolimán	2	Febrero	2023-02-27T00:00:00	2024-11-08T12:00:00	2	Temperatura media	22.3
109266	7	Sololá	713	San Lucas Tolimán	10	San Lucas Tolimán	2	Febrero	2023-02-27T00:00:00	2024-11-08T12:00:00	4	Temperatura máxima	22.6
109267	7	Sololá	713	San Lucas Tolimán	10	San Lucas Tolimán	2	Febrero	2023-02-27T00:00:00	2024-11-08T12:00:00	3	Temperatura mínima	21.7
109268	7	Sololá	713	San Lucas Tolimán	10	San Lucas Tolimán	2	Febrero	2023-02-27T00:00:00	2024-11-08T12:00:00	5	Humedad	47
109269	7	Sololá	713	San Lucas Tolimán	10	San Lucas Tolimán	2	Febrero	2023-02-27T00:00:00	2024-11-08T12:00:00	6	Velocidad del viento	9.7
109270	7	Sololá	713	San Lucas Tolimán	10	San Lucas Tolimán	2	Febrero	2023-02-27T00:00:00	2024-11-08T12:00:00	7	Dirección del viento	9.66
109271	7	Sololá	713	San Lucas Tolimán	10	San Lucas Tolimán	2	Febrero	2023-02-27T00:00:00	2024-11-08T12:00:00	1	Precipitación	0
109272	7	Sololá	713	San Lucas Tolimán	10	San Lucas Tolimán	2	Febrero	2023-02-27T00:00:00	2024-11-08T12:00:00	8	Radiación solar	1043
109273	7	Sololá	713	San Lucas Tolimán	10	San Lucas Tolimán	2	Febrero	2023-02-27T00:00:00	2024-11-08T13:00:00	2	Temperatura media	23.4
109274	7	Sololá	713	San Lucas Tolimán	10	San Lucas Tolimán	2	Febrero	2023-02-27T00:00:00	2024-11-08T13:00:00	4	Temperatura máxima	23.7
109275	7	Sololá	713	San Lucas Tolimán	10	San Lucas Tolimán	2	Febrero	2023-02-27T00:00:00	2024-11-08T13:00:00	3	Temperatura mínima	22.3
109276	7	Sololá	713	San Lucas Tolimán	10	San Lucas Tolimán	2	Febrero	2023-02-27T00:00:00	2024-11-08T13:00:00	5	Humedad	45
109277	7	Sololá	713	San Lucas Tolimán	10	San Lucas Tolimán	2	Febrero	2023-02-27T00:00:00	2024-11-08T13:00:00	6	Velocidad del viento	11.3
109278	7	Sololá	713	San Lucas Tolimán	10	San Lucas Tolimán	2	Febrero	2023-02-27T00:00:00	2024-11-08T13:00:00	7	Dirección del viento	11.27
109279	7	Sololá	713	San Lucas Tolimán	10	San Lucas Tolimán	2	Febrero	2023-02-27T00:00:00	2024-11-08T13:00:00	1	Precipitación	0
109280	7	Sololá	713	San Lucas Tolimán	10	San Lucas Tolimán	2	Febrero	2023-02-27T00:00:00	2024-11-08T13:00:00	8	Radiación solar	1074
109281	7	Sololá	713	San Lucas Tolimán	10	San Lucas Tolimán	2	Febrero	2023-02-27T00:00:00	2024-11-08T14:00:00	2	Temperatura media	22.8
109282	7	Sololá	713	San Lucas Tolimán	10	San Lucas Tolimán	2	Febrero	2023-02-27T00:00:00	2024-11-08T14:00:00	4	Temperatura máxima	23.5
109283	7	Sololá	713	San Lucas Tolimán	10	San Lucas Tolimán	2	Febrero	2023-02-27T00:00:00	2024-11-08T14:00:00	3	Temperatura mínima	22.5
109284	7	Sololá	713	San Lucas Tolimán	10	San Lucas Tolimán	2	Febrero	2023-02-27T00:00:00	2024-11-08T14:00:00	5	Humedad	50
109285	7	Sololá	713	San Lucas Tolimán	10	San Lucas Tolimán	2	Febrero	2023-02-27T00:00:00	2024-11-08T14:00:00	6	Velocidad del viento	12.9
109286	7	Sololá	713	San Lucas Tolimán	10	San Lucas Tolimán	2	Febrero	2023-02-27T00:00:00	2024-11-08T14:00:00	7	Dirección del viento	12.87
109287	7	Sololá	713	San Lucas Tolimán	10	San Lucas Tolimán	2	Febrero	2023-02-27T00:00:00	2024-11-08T14:00:00	1	Precipitación	0
109288	7	Sololá	713	San Lucas Tolimán	10	San Lucas Tolimán	2	Febrero	2023-02-27T00:00:00	2024-11-08T14:00:00	8	Radiación solar	990
109289	7	Sololá	713	San Lucas Tolimán	10	San Lucas Tolimán	2	Febrero	2023-02-27T00:00:00	2024-11-08T15:00:00	2	Temperatura media	22.8
109290	7	Sololá	713	San Lucas Tolimán	10	San Lucas Tolimán	2	Febrero	2023-02-27T00:00:00	2024-11-08T15:00:00	4	Temperatura máxima	23.6
109291	7	Sololá	713	San Lucas Tolimán	10	San Lucas Tolimán	2	Febrero	2023-02-27T00:00:00	2024-11-08T15:00:00	3	Temperatura mínima	22.6
109292	7	Sololá	713	San Lucas Tolimán	10	San Lucas Tolimán	2	Febrero	2023-02-27T00:00:00	2024-11-08T15:00:00	5	Humedad	50
109293	7	Sololá	713	San Lucas Tolimán	10	San Lucas Tolimán	2	Febrero	2023-02-27T00:00:00	2024-11-08T15:00:00	6	Velocidad del viento	9.7
109294	7	Sololá	713	San Lucas Tolimán	10	San Lucas Tolimán	2	Febrero	2023-02-27T00:00:00	2024-11-08T15:00:00	7	Dirección del viento	9.66
109295	7	Sololá	713	San Lucas Tolimán	10	San Lucas Tolimán	2	Febrero	2023-02-27T00:00:00	2024-11-08T15:00:00	1	Precipitación	0
109296	7	Sololá	713	San Lucas Tolimán	10	San Lucas Tolimán	2	Febrero	2023-02-27T00:00:00	2024-11-08T15:00:00	8	Radiación solar	841
109297	7	Sololá	713	San Lucas Tolimán	10	San Lucas Tolimán	2	Febrero	2023-02-27T00:00:00	2024-11-08T16:00:00	2	Temperatura media	22.1
109298	7	Sololá	713	San Lucas Tolimán	10	San Lucas Tolimán	2	Febrero	2023-02-27T00:00:00	2024-11-08T16:00:00	4	Temperatura máxima	23.2
109299	7	Sololá	713	San Lucas Tolimán	10	San Lucas Tolimán	2	Febrero	2023-02-27T00:00:00	2024-11-08T16:00:00	3	Temperatura mínima	21.8
109300	7	Sololá	713	San Lucas Tolimán	10	San Lucas Tolimán	2	Febrero	2023-02-27T00:00:00	2024-11-08T16:00:00	5	Humedad	54
109301	7	Sololá	713	San Lucas Tolimán	10	San Lucas Tolimán	2	Febrero	2023-02-27T00:00:00	2024-11-08T16:00:00	6	Velocidad del viento	9.7
109302	7	Sololá	713	San Lucas Tolimán	10	San Lucas Tolimán	2	Febrero	2023-02-27T00:00:00	2024-11-08T16:00:00	7	Dirección del viento	9.66
109303	7	Sololá	713	San Lucas Tolimán	10	San Lucas Tolimán	2	Febrero	2023-02-27T00:00:00	2024-11-08T16:00:00	1	Precipitación	0
109304	7	Sololá	713	San Lucas Tolimán	10	San Lucas Tolimán	2	Febrero	2023-02-27T00:00:00	2024-11-08T16:00:00	8	Radiación solar	556
109305	7	Sololá	713	San Lucas Tolimán	10	San Lucas Tolimán	2	Febrero	2023-02-27T00:00:00	2024-11-08T17:00:00	2	Temperatura media	20.2
109306	7	Sololá	713	San Lucas Tolimán	10	San Lucas Tolimán	2	Febrero	2023-02-27T00:00:00	2024-11-08T17:00:00	4	Temperatura máxima	22.2
109307	7	Sololá	713	San Lucas Tolimán	10	San Lucas Tolimán	2	Febrero	2023-02-27T00:00:00	2024-11-08T17:00:00	3	Temperatura mínima	20.1
109308	7	Sololá	713	San Lucas Tolimán	10	San Lucas Tolimán	2	Febrero	2023-02-27T00:00:00	2024-11-08T17:00:00	5	Humedad	63
109309	7	Sololá	713	San Lucas Tolimán	10	San Lucas Tolimán	2	Febrero	2023-02-27T00:00:00	2024-11-08T17:00:00	6	Velocidad del viento	11.3
109310	7	Sololá	713	San Lucas Tolimán	10	San Lucas Tolimán	2	Febrero	2023-02-27T00:00:00	2024-11-08T17:00:00	7	Dirección del viento	11.27
109311	7	Sololá	713	San Lucas Tolimán	10	San Lucas Tolimán	2	Febrero	2023-02-27T00:00:00	2024-11-08T17:00:00	1	Precipitación	0
109312	7	Sololá	713	San Lucas Tolimán	10	San Lucas Tolimán	2	Febrero	2023-02-27T00:00:00	2024-11-08T17:00:00	8	Radiación solar	205
109313	7	Sololá	713	San Lucas Tolimán	10	San Lucas Tolimán	2	Febrero	2023-02-27T00:00:00	2024-11-08T18:00:00	2	Temperatura media	19.1
109314	7	Sololá	713	San Lucas Tolimán	10	San Lucas Tolimán	2	Febrero	2023-02-27T00:00:00	2024-11-08T18:00:00	4	Temperatura máxima	20.3
109315	7	Sololá	713	San Lucas Tolimán	10	San Lucas Tolimán	2	Febrero	2023-02-27T00:00:00	2024-11-08T18:00:00	3	Temperatura mínima	19.1
109316	7	Sololá	713	San Lucas Tolimán	10	San Lucas Tolimán	2	Febrero	2023-02-27T00:00:00	2024-11-08T18:00:00	5	Humedad	62
109317	7	Sololá	713	San Lucas Tolimán	10	San Lucas Tolimán	2	Febrero	2023-02-27T00:00:00	2024-11-08T18:00:00	6	Velocidad del viento	8
109318	7	Sololá	713	San Lucas Tolimán	10	San Lucas Tolimán	2	Febrero	2023-02-27T00:00:00	2024-11-08T18:00:00	7	Dirección del viento	8.05
109319	7	Sololá	713	San Lucas Tolimán	10	San Lucas Tolimán	2	Febrero	2023-02-27T00:00:00	2024-11-08T18:00:00	1	Precipitación	0
109320	7	Sololá	713	San Lucas Tolimán	10	San Lucas Tolimán	2	Febrero	2023-02-27T00:00:00	2024-11-08T18:00:00	8	Radiación solar	40
109321	7	Sololá	713	San Lucas Tolimán	10	San Lucas Tolimán	2	Febrero	2023-02-27T00:00:00	2024-11-08T19:00:00	2	Temperatura media	18.2
109322	7	Sololá	713	San Lucas Tolimán	10	San Lucas Tolimán	2	Febrero	2023-02-27T00:00:00	2024-11-08T19:00:00	4	Temperatura máxima	19.1
109323	7	Sololá	713	San Lucas Tolimán	10	San Lucas Tolimán	2	Febrero	2023-02-27T00:00:00	2024-11-08T19:00:00	3	Temperatura mínima	18.1
109324	7	Sololá	713	San Lucas Tolimán	10	San Lucas Tolimán	2	Febrero	2023-02-27T00:00:00	2024-11-08T19:00:00	5	Humedad	59
109325	7	Sololá	713	San Lucas Tolimán	10	San Lucas Tolimán	2	Febrero	2023-02-27T00:00:00	2024-11-08T19:00:00	6	Velocidad del viento	6.4
109326	7	Sololá	713	San Lucas Tolimán	10	San Lucas Tolimán	2	Febrero	2023-02-27T00:00:00	2024-11-08T19:00:00	7	Dirección del viento	6.44
109327	7	Sololá	713	San Lucas Tolimán	10	San Lucas Tolimán	2	Febrero	2023-02-27T00:00:00	2024-11-08T19:00:00	1	Precipitación	0
109328	7	Sololá	713	San Lucas Tolimán	10	San Lucas Tolimán	2	Febrero	2023-02-27T00:00:00	2024-11-08T19:00:00	8	Radiación solar	0
109329	7	Sololá	713	San Lucas Tolimán	10	San Lucas Tolimán	2	Febrero	2023-02-27T00:00:00	2024-11-08T20:00:00	2	Temperatura media	17.7
109330	7	Sololá	713	San Lucas Tolimán	10	San Lucas Tolimán	2	Febrero	2023-02-27T00:00:00	2024-11-08T20:00:00	4	Temperatura máxima	18.5
109331	7	Sololá	713	San Lucas Tolimán	10	San Lucas Tolimán	2	Febrero	2023-02-27T00:00:00	2024-11-08T20:00:00	3	Temperatura mínima	17.6
109332	7	Sololá	713	San Lucas Tolimán	10	San Lucas Tolimán	2	Febrero	2023-02-27T00:00:00	2024-11-08T20:00:00	5	Humedad	63
109333	7	Sololá	713	San Lucas Tolimán	10	San Lucas Tolimán	2	Febrero	2023-02-27T00:00:00	2024-11-08T20:00:00	6	Velocidad del viento	6.4
109334	7	Sololá	713	San Lucas Tolimán	10	San Lucas Tolimán	2	Febrero	2023-02-27T00:00:00	2024-11-08T20:00:00	7	Dirección del viento	6.44
109335	7	Sololá	713	San Lucas Tolimán	10	San Lucas Tolimán	2	Febrero	2023-02-27T00:00:00	2024-11-08T20:00:00	1	Precipitación	0
109336	7	Sololá	713	San Lucas Tolimán	10	San Lucas Tolimán	2	Febrero	2023-02-27T00:00:00	2024-11-08T20:00:00	8	Radiación solar	0
109337	7	Sololá	713	San Lucas Tolimán	10	San Lucas Tolimán	2	Febrero	2023-02-27T00:00:00	2024-11-08T21:00:00	2	Temperatura media	16.6
109338	7	Sololá	713	San Lucas Tolimán	10	San Lucas Tolimán	2	Febrero	2023-02-27T00:00:00	2024-11-08T21:00:00	4	Temperatura máxima	17.7
109339	7	Sololá	713	San Lucas Tolimán	10	San Lucas Tolimán	2	Febrero	2023-02-27T00:00:00	2024-11-08T21:00:00	3	Temperatura mínima	16.6
109340	7	Sololá	713	San Lucas Tolimán	10	San Lucas Tolimán	2	Febrero	2023-02-27T00:00:00	2024-11-08T21:00:00	5	Humedad	60
109341	7	Sololá	713	San Lucas Tolimán	10	San Lucas Tolimán	2	Febrero	2023-02-27T00:00:00	2024-11-08T21:00:00	6	Velocidad del viento	3.2
109342	7	Sololá	713	San Lucas Tolimán	10	San Lucas Tolimán	2	Febrero	2023-02-27T00:00:00	2024-11-08T21:00:00	7	Dirección del viento	3.22
109343	7	Sololá	713	San Lucas Tolimán	10	San Lucas Tolimán	2	Febrero	2023-02-27T00:00:00	2024-11-08T21:00:00	1	Precipitación	0
109344	7	Sololá	713	San Lucas Tolimán	10	San Lucas Tolimán	2	Febrero	2023-02-27T00:00:00	2024-11-08T21:00:00	8	Radiación solar	0
109345	7	Sololá	713	San Lucas Tolimán	10	San Lucas Tolimán	2	Febrero	2023-02-27T00:00:00	2024-11-08T22:00:00	2	Temperatura media	15.1
109346	7	Sololá	713	San Lucas Tolimán	10	San Lucas Tolimán	2	Febrero	2023-02-27T00:00:00	2024-11-08T22:00:00	4	Temperatura máxima	16.6
109347	7	Sololá	713	San Lucas Tolimán	10	San Lucas Tolimán	2	Febrero	2023-02-27T00:00:00	2024-11-08T22:00:00	3	Temperatura mínima	15.1
109348	7	Sololá	713	San Lucas Tolimán	10	San Lucas Tolimán	2	Febrero	2023-02-27T00:00:00	2024-11-08T22:00:00	5	Humedad	61
109349	7	Sololá	713	San Lucas Tolimán	10	San Lucas Tolimán	2	Febrero	2023-02-27T00:00:00	2024-11-08T22:00:00	6	Velocidad del viento	3.2
109350	7	Sololá	713	San Lucas Tolimán	10	San Lucas Tolimán	2	Febrero	2023-02-27T00:00:00	2024-11-08T22:00:00	7	Dirección del viento	3.22
109351	7	Sololá	713	San Lucas Tolimán	10	San Lucas Tolimán	2	Febrero	2023-02-27T00:00:00	2024-11-08T22:00:00	1	Precipitación	0
109352	7	Sololá	713	San Lucas Tolimán	10	San Lucas Tolimán	2	Febrero	2023-02-27T00:00:00	2024-11-08T22:00:00	8	Radiación solar	0
109353	7	Sololá	713	San Lucas Tolimán	10	San Lucas Tolimán	2	Febrero	2023-02-27T00:00:00	2024-11-08T23:00:00	2	Temperatura media	15.2
109354	7	Sololá	713	San Lucas Tolimán	10	San Lucas Tolimán	2	Febrero	2023-02-27T00:00:00	2024-11-08T23:00:00	4	Temperatura máxima	15.4
109355	7	Sololá	713	San Lucas Tolimán	10	San Lucas Tolimán	2	Febrero	2023-02-27T00:00:00	2024-11-08T23:00:00	3	Temperatura mínima	15
109356	7	Sololá	713	San Lucas Tolimán	10	San Lucas Tolimán	2	Febrero	2023-02-27T00:00:00	2024-11-08T23:00:00	5	Humedad	63
109357	7	Sololá	713	San Lucas Tolimán	10	San Lucas Tolimán	2	Febrero	2023-02-27T00:00:00	2024-11-08T23:00:00	6	Velocidad del viento	3.2
109358	7	Sololá	713	San Lucas Tolimán	10	San Lucas Tolimán	2	Febrero	2023-02-27T00:00:00	2024-11-08T23:00:00	7	Dirección del viento	3.22
109359	7	Sololá	713	San Lucas Tolimán	10	San Lucas Tolimán	2	Febrero	2023-02-27T00:00:00	2024-11-08T23:00:00	1	Precipitación	0
109360	7	Sololá	713	San Lucas Tolimán	10	San Lucas Tolimán	2	Febrero	2023-02-27T00:00:00	2024-11-08T23:00:00	8	Radiación solar	0
109361	7	Sololá	713	San Lucas Tolimán	10	San Lucas Tolimán	2	Febrero	2023-02-28T00:00:00	2024-11-08T00:00:00	2	Temperatura media	15.2
109362	7	Sololá	713	San Lucas Tolimán	10	San Lucas Tolimán	2	Febrero	2023-02-28T00:00:00	2024-11-08T00:00:00	4	Temperatura máxima	15.3
109363	7	Sololá	713	San Lucas Tolimán	10	San Lucas Tolimán	2	Febrero	2023-02-28T00:00:00	2024-11-08T00:00:00	3	Temperatura mínima	15.2
109364	7	Sololá	713	San Lucas Tolimán	10	San Lucas Tolimán	2	Febrero	2023-02-28T00:00:00	2024-11-08T00:00:00	5	Humedad	63
109365	7	Sololá	713	San Lucas Tolimán	10	San Lucas Tolimán	2	Febrero	2023-02-28T00:00:00	2024-11-08T00:00:00	6	Velocidad del viento	0
109366	7	Sololá	713	San Lucas Tolimán	10	San Lucas Tolimán	2	Febrero	2023-02-28T00:00:00	2024-11-08T00:00:00	7	Dirección del viento	0
109367	7	Sololá	713	San Lucas Tolimán	10	San Lucas Tolimán	2	Febrero	2023-02-28T00:00:00	2024-11-08T00:00:00	1	Precipitación	0
109368	7	Sololá	713	San Lucas Tolimán	10	San Lucas Tolimán	2	Febrero	2023-02-28T00:00:00	2024-11-08T00:00:00	8	Radiación solar	0
109369	7	Sololá	713	San Lucas Tolimán	10	San Lucas Tolimán	2	Febrero	2023-02-28T00:00:00	2024-11-08T01:00:00	2	Temperatura media	14
109370	7	Sololá	713	San Lucas Tolimán	10	San Lucas Tolimán	2	Febrero	2023-02-28T00:00:00	2024-11-08T01:00:00	4	Temperatura máxima	15.2
109371	7	Sololá	713	San Lucas Tolimán	10	San Lucas Tolimán	2	Febrero	2023-02-28T00:00:00	2024-11-08T01:00:00	3	Temperatura mínima	14
109372	7	Sololá	713	San Lucas Tolimán	10	San Lucas Tolimán	2	Febrero	2023-02-28T00:00:00	2024-11-08T01:00:00	5	Humedad	62
109373	7	Sololá	713	San Lucas Tolimán	10	San Lucas Tolimán	2	Febrero	2023-02-28T00:00:00	2024-11-08T01:00:00	6	Velocidad del viento	3.2
109374	7	Sololá	713	San Lucas Tolimán	10	San Lucas Tolimán	2	Febrero	2023-02-28T00:00:00	2024-11-08T01:00:00	7	Dirección del viento	3.22
109375	7	Sololá	713	San Lucas Tolimán	10	San Lucas Tolimán	2	Febrero	2023-02-28T00:00:00	2024-11-08T01:00:00	1	Precipitación	0
109376	7	Sololá	713	San Lucas Tolimán	10	San Lucas Tolimán	2	Febrero	2023-02-28T00:00:00	2024-11-08T01:00:00	8	Radiación solar	0
109377	7	Sololá	713	San Lucas Tolimán	10	San Lucas Tolimán	2	Febrero	2023-02-28T00:00:00	2024-11-08T02:00:00	2	Temperatura media	13.4
109378	7	Sololá	713	San Lucas Tolimán	10	San Lucas Tolimán	2	Febrero	2023-02-28T00:00:00	2024-11-08T02:00:00	4	Temperatura máxima	14.1
109379	7	Sololá	713	San Lucas Tolimán	10	San Lucas Tolimán	2	Febrero	2023-02-28T00:00:00	2024-11-08T02:00:00	3	Temperatura mínima	13.4
109380	7	Sololá	713	San Lucas Tolimán	10	San Lucas Tolimán	2	Febrero	2023-02-28T00:00:00	2024-11-08T02:00:00	5	Humedad	61
109381	7	Sololá	713	San Lucas Tolimán	10	San Lucas Tolimán	2	Febrero	2023-02-28T00:00:00	2024-11-08T02:00:00	6	Velocidad del viento	1.6
109382	7	Sololá	713	San Lucas Tolimán	10	San Lucas Tolimán	2	Febrero	2023-02-28T00:00:00	2024-11-08T02:00:00	7	Dirección del viento	1.61
109383	7	Sololá	713	San Lucas Tolimán	10	San Lucas Tolimán	2	Febrero	2023-02-28T00:00:00	2024-11-08T02:00:00	1	Precipitación	0
109384	7	Sololá	713	San Lucas Tolimán	10	San Lucas Tolimán	2	Febrero	2023-02-28T00:00:00	2024-11-08T02:00:00	8	Radiación solar	0
109385	7	Sololá	713	San Lucas Tolimán	10	San Lucas Tolimán	2	Febrero	2023-02-28T00:00:00	2024-11-08T03:00:00	2	Temperatura media	12.9
109386	7	Sololá	713	San Lucas Tolimán	10	San Lucas Tolimán	2	Febrero	2023-02-28T00:00:00	2024-11-08T03:00:00	4	Temperatura máxima	13.6
109387	7	Sololá	713	San Lucas Tolimán	10	San Lucas Tolimán	2	Febrero	2023-02-28T00:00:00	2024-11-08T03:00:00	3	Temperatura mínima	12.9
109388	7	Sololá	713	San Lucas Tolimán	10	San Lucas Tolimán	2	Febrero	2023-02-28T00:00:00	2024-11-08T03:00:00	5	Humedad	61
109389	7	Sololá	713	San Lucas Tolimán	10	San Lucas Tolimán	2	Febrero	2023-02-28T00:00:00	2024-11-08T03:00:00	6	Velocidad del viento	1.6
109390	7	Sololá	713	San Lucas Tolimán	10	San Lucas Tolimán	2	Febrero	2023-02-28T00:00:00	2024-11-08T03:00:00	7	Dirección del viento	1.61
109391	7	Sololá	713	San Lucas Tolimán	10	San Lucas Tolimán	2	Febrero	2023-02-28T00:00:00	2024-11-08T03:00:00	1	Precipitación	0
109392	7	Sololá	713	San Lucas Tolimán	10	San Lucas Tolimán	2	Febrero	2023-02-28T00:00:00	2024-11-08T03:00:00	8	Radiación solar	0
109393	7	Sololá	713	San Lucas Tolimán	10	San Lucas Tolimán	2	Febrero	2023-02-28T00:00:00	2024-11-08T04:00:00	2	Temperatura media	13.4
109394	7	Sololá	713	San Lucas Tolimán	10	San Lucas Tolimán	2	Febrero	2023-02-28T00:00:00	2024-11-08T04:00:00	4	Temperatura máxima	13.4
109395	7	Sololá	713	San Lucas Tolimán	10	San Lucas Tolimán	2	Febrero	2023-02-28T00:00:00	2024-11-08T04:00:00	3	Temperatura mínima	12.8
109396	7	Sololá	713	San Lucas Tolimán	10	San Lucas Tolimán	2	Febrero	2023-02-28T00:00:00	2024-11-08T04:00:00	5	Humedad	62
109397	7	Sololá	713	San Lucas Tolimán	10	San Lucas Tolimán	2	Febrero	2023-02-28T00:00:00	2024-11-08T04:00:00	6	Velocidad del viento	0
109398	7	Sololá	713	San Lucas Tolimán	10	San Lucas Tolimán	2	Febrero	2023-02-28T00:00:00	2024-11-08T04:00:00	7	Dirección del viento	0
109399	7	Sololá	713	San Lucas Tolimán	10	San Lucas Tolimán	2	Febrero	2023-02-28T00:00:00	2024-11-08T04:00:00	1	Precipitación	0
109400	7	Sololá	713	San Lucas Tolimán	10	San Lucas Tolimán	2	Febrero	2023-02-28T00:00:00	2024-11-08T04:00:00	8	Radiación solar	0
109401	7	Sololá	713	San Lucas Tolimán	10	San Lucas Tolimán	2	Febrero	2023-02-28T00:00:00	2024-11-08T05:00:00	2	Temperatura media	13.5
109402	7	Sololá	713	San Lucas Tolimán	10	San Lucas Tolimán	2	Febrero	2023-02-28T00:00:00	2024-11-08T05:00:00	4	Temperatura máxima	13.7
109403	7	Sololá	713	San Lucas Tolimán	10	San Lucas Tolimán	2	Febrero	2023-02-28T00:00:00	2024-11-08T05:00:00	3	Temperatura mínima	13.4
109404	7	Sololá	713	San Lucas Tolimán	10	San Lucas Tolimán	2	Febrero	2023-02-28T00:00:00	2024-11-08T05:00:00	5	Humedad	59
109405	7	Sololá	713	San Lucas Tolimán	10	San Lucas Tolimán	2	Febrero	2023-02-28T00:00:00	2024-11-08T05:00:00	6	Velocidad del viento	0
109406	7	Sololá	713	San Lucas Tolimán	10	San Lucas Tolimán	2	Febrero	2023-02-28T00:00:00	2024-11-08T05:00:00	7	Dirección del viento	0
109407	7	Sololá	713	San Lucas Tolimán	10	San Lucas Tolimán	2	Febrero	2023-02-28T00:00:00	2024-11-08T05:00:00	1	Precipitación	0
109408	7	Sololá	713	San Lucas Tolimán	10	San Lucas Tolimán	2	Febrero	2023-02-28T00:00:00	2024-11-08T05:00:00	8	Radiación solar	0
109409	7	Sololá	713	San Lucas Tolimán	10	San Lucas Tolimán	2	Febrero	2023-02-28T00:00:00	2024-11-08T06:00:00	2	Temperatura media	13.1
109410	7	Sololá	713	San Lucas Tolimán	10	San Lucas Tolimán	2	Febrero	2023-02-28T00:00:00	2024-11-08T06:00:00	4	Temperatura máxima	13.5
109411	7	Sololá	713	San Lucas Tolimán	10	San Lucas Tolimán	2	Febrero	2023-02-28T00:00:00	2024-11-08T06:00:00	3	Temperatura mínima	13
109412	7	Sololá	713	San Lucas Tolimán	10	San Lucas Tolimán	2	Febrero	2023-02-28T00:00:00	2024-11-08T06:00:00	5	Humedad	60
109413	7	Sololá	713	San Lucas Tolimán	10	San Lucas Tolimán	2	Febrero	2023-02-28T00:00:00	2024-11-08T06:00:00	6	Velocidad del viento	0
109414	7	Sololá	713	San Lucas Tolimán	10	San Lucas Tolimán	2	Febrero	2023-02-28T00:00:00	2024-11-08T06:00:00	7	Dirección del viento	0
109415	7	Sololá	713	San Lucas Tolimán	10	San Lucas Tolimán	2	Febrero	2023-02-28T00:00:00	2024-11-08T06:00:00	1	Precipitación	0
109416	7	Sololá	713	San Lucas Tolimán	10	San Lucas Tolimán	2	Febrero	2023-02-28T00:00:00	2024-11-08T06:00:00	8	Radiación solar	0
109417	7	Sololá	713	San Lucas Tolimán	10	San Lucas Tolimán	2	Febrero	2023-02-28T00:00:00	2024-11-08T07:00:00	2	Temperatura media	13.4
109418	7	Sololá	713	San Lucas Tolimán	10	San Lucas Tolimán	2	Febrero	2023-02-28T00:00:00	2024-11-08T07:00:00	4	Temperatura máxima	13.6
109419	7	Sololá	713	San Lucas Tolimán	10	San Lucas Tolimán	2	Febrero	2023-02-28T00:00:00	2024-11-08T07:00:00	3	Temperatura mínima	13.1
109420	7	Sololá	713	San Lucas Tolimán	10	San Lucas Tolimán	2	Febrero	2023-02-28T00:00:00	2024-11-08T07:00:00	5	Humedad	59
109421	7	Sololá	713	San Lucas Tolimán	10	San Lucas Tolimán	2	Febrero	2023-02-28T00:00:00	2024-11-08T07:00:00	6	Velocidad del viento	0
109422	7	Sololá	713	San Lucas Tolimán	10	San Lucas Tolimán	2	Febrero	2023-02-28T00:00:00	2024-11-08T07:00:00	7	Dirección del viento	0
109423	7	Sololá	713	San Lucas Tolimán	10	San Lucas Tolimán	2	Febrero	2023-02-28T00:00:00	2024-11-08T07:00:00	1	Precipitación	0
109424	7	Sololá	713	San Lucas Tolimán	10	San Lucas Tolimán	2	Febrero	2023-02-28T00:00:00	2024-11-08T07:00:00	8	Radiación solar	10
109425	7	Sololá	713	San Lucas Tolimán	10	San Lucas Tolimán	2	Febrero	2023-02-28T00:00:00	2024-11-08T08:00:00	2	Temperatura media	15.8
109426	7	Sololá	713	San Lucas Tolimán	10	San Lucas Tolimán	2	Febrero	2023-02-28T00:00:00	2024-11-08T08:00:00	4	Temperatura máxima	15.8
109427	7	Sololá	713	San Lucas Tolimán	10	San Lucas Tolimán	2	Febrero	2023-02-28T00:00:00	2024-11-08T08:00:00	3	Temperatura mínima	13.4
109428	7	Sololá	713	San Lucas Tolimán	10	San Lucas Tolimán	2	Febrero	2023-02-28T00:00:00	2024-11-08T08:00:00	5	Humedad	57
109429	7	Sololá	713	San Lucas Tolimán	10	San Lucas Tolimán	2	Febrero	2023-02-28T00:00:00	2024-11-08T08:00:00	6	Velocidad del viento	1.6
109430	7	Sololá	713	San Lucas Tolimán	10	San Lucas Tolimán	2	Febrero	2023-02-28T00:00:00	2024-11-08T08:00:00	7	Dirección del viento	1.61
109431	7	Sololá	713	San Lucas Tolimán	10	San Lucas Tolimán	2	Febrero	2023-02-28T00:00:00	2024-11-08T08:00:00	1	Precipitación	0
109432	7	Sololá	713	San Lucas Tolimán	10	San Lucas Tolimán	2	Febrero	2023-02-28T00:00:00	2024-11-08T08:00:00	8	Radiación solar	95
109433	7	Sololá	713	San Lucas Tolimán	10	San Lucas Tolimán	2	Febrero	2023-02-28T00:00:00	2024-11-08T09:00:00	2	Temperatura media	17.7
109434	7	Sololá	713	San Lucas Tolimán	10	San Lucas Tolimán	2	Febrero	2023-02-28T00:00:00	2024-11-08T09:00:00	4	Temperatura máxima	17.8
109435	7	Sololá	713	San Lucas Tolimán	10	San Lucas Tolimán	2	Febrero	2023-02-28T00:00:00	2024-11-08T09:00:00	3	Temperatura mínima	15.8
109436	7	Sololá	713	San Lucas Tolimán	10	San Lucas Tolimán	2	Febrero	2023-02-28T00:00:00	2024-11-08T09:00:00	5	Humedad	57
109437	7	Sololá	713	San Lucas Tolimán	10	San Lucas Tolimán	2	Febrero	2023-02-28T00:00:00	2024-11-08T09:00:00	6	Velocidad del viento	6.4
109438	7	Sololá	713	San Lucas Tolimán	10	San Lucas Tolimán	2	Febrero	2023-02-28T00:00:00	2024-11-08T09:00:00	7	Dirección del viento	6.44
109439	7	Sololá	713	San Lucas Tolimán	10	San Lucas Tolimán	2	Febrero	2023-02-28T00:00:00	2024-11-08T09:00:00	1	Precipitación	0
109440	7	Sololá	713	San Lucas Tolimán	10	San Lucas Tolimán	2	Febrero	2023-02-28T00:00:00	2024-11-08T09:00:00	8	Radiación solar	470
109441	7	Sololá	713	San Lucas Tolimán	10	San Lucas Tolimán	2	Febrero	2023-02-28T00:00:00	2024-11-08T10:00:00	2	Temperatura media	21.6
109442	7	Sololá	713	San Lucas Tolimán	10	San Lucas Tolimán	2	Febrero	2023-02-28T00:00:00	2024-11-08T10:00:00	4	Temperatura máxima	21.9
109443	7	Sololá	713	San Lucas Tolimán	10	San Lucas Tolimán	2	Febrero	2023-02-28T00:00:00	2024-11-08T10:00:00	3	Temperatura mínima	17.7
109444	7	Sololá	713	San Lucas Tolimán	10	San Lucas Tolimán	2	Febrero	2023-02-28T00:00:00	2024-11-08T10:00:00	5	Humedad	51
109445	7	Sololá	713	San Lucas Tolimán	10	San Lucas Tolimán	2	Febrero	2023-02-28T00:00:00	2024-11-08T10:00:00	6	Velocidad del viento	4.8
109446	7	Sololá	713	San Lucas Tolimán	10	San Lucas Tolimán	2	Febrero	2023-02-28T00:00:00	2024-11-08T10:00:00	7	Dirección del viento	4.83
109447	7	Sololá	713	San Lucas Tolimán	10	San Lucas Tolimán	2	Febrero	2023-02-28T00:00:00	2024-11-08T10:00:00	1	Precipitación	0
109448	7	Sololá	713	San Lucas Tolimán	10	San Lucas Tolimán	2	Febrero	2023-02-28T00:00:00	2024-11-08T10:00:00	8	Radiación solar	723
109449	7	Sololá	713	San Lucas Tolimán	10	San Lucas Tolimán	2	Febrero	2023-02-28T00:00:00	2024-11-08T11:00:00	2	Temperatura media	21.9
109450	7	Sololá	713	San Lucas Tolimán	10	San Lucas Tolimán	2	Febrero	2023-02-28T00:00:00	2024-11-08T11:00:00	4	Temperatura máxima	22.3
109451	7	Sololá	713	San Lucas Tolimán	10	San Lucas Tolimán	2	Febrero	2023-02-28T00:00:00	2024-11-08T11:00:00	3	Temperatura mínima	21.4
109452	7	Sololá	713	San Lucas Tolimán	10	San Lucas Tolimán	2	Febrero	2023-02-28T00:00:00	2024-11-08T11:00:00	5	Humedad	53
109453	7	Sololá	713	San Lucas Tolimán	10	San Lucas Tolimán	2	Febrero	2023-02-28T00:00:00	2024-11-08T11:00:00	6	Velocidad del viento	8
109454	7	Sololá	713	San Lucas Tolimán	10	San Lucas Tolimán	2	Febrero	2023-02-28T00:00:00	2024-11-08T11:00:00	7	Dirección del viento	8.05
109455	7	Sololá	713	San Lucas Tolimán	10	San Lucas Tolimán	2	Febrero	2023-02-28T00:00:00	2024-11-08T11:00:00	1	Precipitación	0
109456	7	Sololá	713	San Lucas Tolimán	10	San Lucas Tolimán	2	Febrero	2023-02-28T00:00:00	2024-11-08T11:00:00	8	Radiación solar	915
109457	7	Sololá	713	San Lucas Tolimán	10	San Lucas Tolimán	2	Febrero	2023-02-28T00:00:00	2024-11-08T12:00:00	2	Temperatura media	22.4
109458	7	Sololá	713	San Lucas Tolimán	10	San Lucas Tolimán	2	Febrero	2023-02-28T00:00:00	2024-11-08T12:00:00	4	Temperatura máxima	22.6
109459	7	Sololá	713	San Lucas Tolimán	10	San Lucas Tolimán	2	Febrero	2023-02-28T00:00:00	2024-11-08T12:00:00	3	Temperatura mínima	21.6
109460	7	Sololá	713	San Lucas Tolimán	10	San Lucas Tolimán	2	Febrero	2023-02-28T00:00:00	2024-11-08T12:00:00	5	Humedad	53
109461	7	Sololá	713	San Lucas Tolimán	10	San Lucas Tolimán	2	Febrero	2023-02-28T00:00:00	2024-11-08T12:00:00	6	Velocidad del viento	9.7
109462	7	Sololá	713	San Lucas Tolimán	10	San Lucas Tolimán	2	Febrero	2023-02-28T00:00:00	2024-11-08T12:00:00	7	Dirección del viento	9.66
109463	7	Sololá	713	San Lucas Tolimán	10	San Lucas Tolimán	2	Febrero	2023-02-28T00:00:00	2024-11-08T12:00:00	1	Precipitación	0
109464	7	Sololá	713	San Lucas Tolimán	10	San Lucas Tolimán	2	Febrero	2023-02-28T00:00:00	2024-11-08T12:00:00	8	Radiación solar	1029
109465	7	Sololá	713	San Lucas Tolimán	10	San Lucas Tolimán	2	Febrero	2023-02-28T00:00:00	2024-11-08T13:00:00	2	Temperatura media	22.9
109466	7	Sololá	713	San Lucas Tolimán	10	San Lucas Tolimán	2	Febrero	2023-02-28T00:00:00	2024-11-08T13:00:00	4	Temperatura máxima	22.9
109467	7	Sololá	713	San Lucas Tolimán	10	San Lucas Tolimán	2	Febrero	2023-02-28T00:00:00	2024-11-08T13:00:00	3	Temperatura mínima	21.7
109468	7	Sololá	713	San Lucas Tolimán	10	San Lucas Tolimán	2	Febrero	2023-02-28T00:00:00	2024-11-08T13:00:00	5	Humedad	53
109469	7	Sololá	713	San Lucas Tolimán	10	San Lucas Tolimán	2	Febrero	2023-02-28T00:00:00	2024-11-08T13:00:00	6	Velocidad del viento	11.3
109470	7	Sololá	713	San Lucas Tolimán	10	San Lucas Tolimán	2	Febrero	2023-02-28T00:00:00	2024-11-08T13:00:00	7	Dirección del viento	11.27
109471	7	Sololá	713	San Lucas Tolimán	10	San Lucas Tolimán	2	Febrero	2023-02-28T00:00:00	2024-11-08T13:00:00	1	Precipitación	0
109472	7	Sololá	713	San Lucas Tolimán	10	San Lucas Tolimán	2	Febrero	2023-02-28T00:00:00	2024-11-08T13:00:00	8	Radiación solar	1012
109473	7	Sololá	713	San Lucas Tolimán	10	San Lucas Tolimán	2	Febrero	2023-02-28T00:00:00	2024-11-08T14:00:00	2	Temperatura media	22.7
109474	7	Sololá	713	San Lucas Tolimán	10	San Lucas Tolimán	2	Febrero	2023-02-28T00:00:00	2024-11-08T14:00:00	4	Temperatura máxima	23.2
109475	7	Sololá	713	San Lucas Tolimán	10	San Lucas Tolimán	2	Febrero	2023-02-28T00:00:00	2024-11-08T14:00:00	3	Temperatura mínima	22.7
109476	7	Sololá	713	San Lucas Tolimán	10	San Lucas Tolimán	2	Febrero	2023-02-28T00:00:00	2024-11-08T14:00:00	5	Humedad	56
109477	7	Sololá	713	San Lucas Tolimán	10	San Lucas Tolimán	2	Febrero	2023-02-28T00:00:00	2024-11-08T14:00:00	6	Velocidad del viento	11.3
109478	7	Sololá	713	San Lucas Tolimán	10	San Lucas Tolimán	2	Febrero	2023-02-28T00:00:00	2024-11-08T14:00:00	7	Dirección del viento	11.27
109479	7	Sololá	713	San Lucas Tolimán	10	San Lucas Tolimán	2	Febrero	2023-02-28T00:00:00	2024-11-08T14:00:00	1	Precipitación	0
109480	7	Sololá	713	San Lucas Tolimán	10	San Lucas Tolimán	2	Febrero	2023-02-28T00:00:00	2024-11-08T14:00:00	8	Radiación solar	966
109481	7	Sololá	713	San Lucas Tolimán	10	San Lucas Tolimán	2	Febrero	2023-02-28T00:00:00	2024-11-08T15:00:00	2	Temperatura media	21.9
109482	7	Sololá	713	San Lucas Tolimán	10	San Lucas Tolimán	2	Febrero	2023-02-28T00:00:00	2024-11-08T15:00:00	4	Temperatura máxima	22.9
109483	7	Sololá	713	San Lucas Tolimán	10	San Lucas Tolimán	2	Febrero	2023-02-28T00:00:00	2024-11-08T15:00:00	3	Temperatura mínima	21.5
109484	7	Sololá	713	San Lucas Tolimán	10	San Lucas Tolimán	2	Febrero	2023-02-28T00:00:00	2024-11-08T15:00:00	5	Humedad	60
109485	7	Sololá	713	San Lucas Tolimán	10	San Lucas Tolimán	2	Febrero	2023-02-28T00:00:00	2024-11-08T15:00:00	6	Velocidad del viento	12.9
109486	7	Sololá	713	San Lucas Tolimán	10	San Lucas Tolimán	2	Febrero	2023-02-28T00:00:00	2024-11-08T15:00:00	7	Dirección del viento	12.87
109487	7	Sololá	713	San Lucas Tolimán	10	San Lucas Tolimán	2	Febrero	2023-02-28T00:00:00	2024-11-08T15:00:00	1	Precipitación	0
109488	7	Sololá	713	San Lucas Tolimán	10	San Lucas Tolimán	2	Febrero	2023-02-28T00:00:00	2024-11-08T15:00:00	8	Radiación solar	746
109489	7	Sololá	713	San Lucas Tolimán	10	San Lucas Tolimán	2	Febrero	2023-02-28T00:00:00	2024-11-08T16:00:00	2	Temperatura media	21.5
109490	7	Sololá	713	San Lucas Tolimán	10	San Lucas Tolimán	2	Febrero	2023-02-28T00:00:00	2024-11-08T16:00:00	4	Temperatura máxima	21.9
109491	7	Sololá	713	San Lucas Tolimán	10	San Lucas Tolimán	2	Febrero	2023-02-28T00:00:00	2024-11-08T16:00:00	3	Temperatura mínima	20.9
109492	7	Sololá	713	San Lucas Tolimán	10	San Lucas Tolimán	2	Febrero	2023-02-28T00:00:00	2024-11-08T16:00:00	5	Humedad	60
109493	7	Sololá	713	San Lucas Tolimán	10	San Lucas Tolimán	2	Febrero	2023-02-28T00:00:00	2024-11-08T16:00:00	6	Velocidad del viento	9.7
109494	7	Sololá	713	San Lucas Tolimán	10	San Lucas Tolimán	2	Febrero	2023-02-28T00:00:00	2024-11-08T16:00:00	7	Dirección del viento	9.66
109495	7	Sololá	713	San Lucas Tolimán	10	San Lucas Tolimán	2	Febrero	2023-02-28T00:00:00	2024-11-08T16:00:00	1	Precipitación	0
109496	7	Sololá	713	San Lucas Tolimán	10	San Lucas Tolimán	2	Febrero	2023-02-28T00:00:00	2024-11-08T16:00:00	8	Radiación solar	395
109497	7	Sololá	713	San Lucas Tolimán	10	San Lucas Tolimán	2	Febrero	2023-02-28T00:00:00	2024-11-08T17:00:00	2	Temperatura media	20.2
109498	7	Sololá	713	San Lucas Tolimán	10	San Lucas Tolimán	2	Febrero	2023-02-28T00:00:00	2024-11-08T17:00:00	4	Temperatura máxima	21.4
109499	7	Sololá	713	San Lucas Tolimán	10	San Lucas Tolimán	2	Febrero	2023-02-28T00:00:00	2024-11-08T17:00:00	3	Temperatura mínima	20.2
109500	7	Sololá	713	San Lucas Tolimán	10	San Lucas Tolimán	2	Febrero	2023-02-28T00:00:00	2024-11-08T17:00:00	5	Humedad	63
109501	7	Sololá	713	San Lucas Tolimán	10	San Lucas Tolimán	2	Febrero	2023-02-28T00:00:00	2024-11-08T17:00:00	6	Velocidad del viento	8
109502	7	Sololá	713	San Lucas Tolimán	10	San Lucas Tolimán	2	Febrero	2023-02-28T00:00:00	2024-11-08T17:00:00	7	Dirección del viento	8.05
109503	7	Sololá	713	San Lucas Tolimán	10	San Lucas Tolimán	2	Febrero	2023-02-28T00:00:00	2024-11-08T17:00:00	1	Precipitación	0
109504	7	Sololá	713	San Lucas Tolimán	10	San Lucas Tolimán	2	Febrero	2023-02-28T00:00:00	2024-11-08T17:00:00	8	Radiación solar	184
109505	7	Sololá	713	San Lucas Tolimán	10	San Lucas Tolimán	2	Febrero	2023-02-28T00:00:00	2024-11-08T18:00:00	2	Temperatura media	19.4
109506	7	Sololá	713	San Lucas Tolimán	10	San Lucas Tolimán	2	Febrero	2023-02-28T00:00:00	2024-11-08T18:00:00	4	Temperatura máxima	20.2
109507	7	Sololá	713	San Lucas Tolimán	10	San Lucas Tolimán	2	Febrero	2023-02-28T00:00:00	2024-11-08T18:00:00	3	Temperatura mínima	19.3
109508	7	Sololá	713	San Lucas Tolimán	10	San Lucas Tolimán	2	Febrero	2023-02-28T00:00:00	2024-11-08T18:00:00	5	Humedad	61
109509	7	Sololá	713	San Lucas Tolimán	10	San Lucas Tolimán	2	Febrero	2023-02-28T00:00:00	2024-11-08T18:00:00	6	Velocidad del viento	6.4
109510	7	Sololá	713	San Lucas Tolimán	10	San Lucas Tolimán	2	Febrero	2023-02-28T00:00:00	2024-11-08T18:00:00	7	Dirección del viento	6.44
109511	7	Sololá	713	San Lucas Tolimán	10	San Lucas Tolimán	2	Febrero	2023-02-28T00:00:00	2024-11-08T18:00:00	1	Precipitación	0
109512	7	Sololá	713	San Lucas Tolimán	10	San Lucas Tolimán	2	Febrero	2023-02-28T00:00:00	2024-11-08T18:00:00	8	Radiación solar	44
109513	7	Sololá	713	San Lucas Tolimán	10	San Lucas Tolimán	2	Febrero	2023-02-28T00:00:00	2024-11-08T19:00:00	2	Temperatura media	18.6
109514	7	Sololá	713	San Lucas Tolimán	10	San Lucas Tolimán	2	Febrero	2023-02-28T00:00:00	2024-11-08T19:00:00	4	Temperatura máxima	19.4
109515	7	Sololá	713	San Lucas Tolimán	10	San Lucas Tolimán	2	Febrero	2023-02-28T00:00:00	2024-11-08T19:00:00	3	Temperatura mínima	18.6
109516	7	Sololá	713	San Lucas Tolimán	10	San Lucas Tolimán	2	Febrero	2023-02-28T00:00:00	2024-11-08T19:00:00	5	Humedad	62
109517	7	Sololá	713	San Lucas Tolimán	10	San Lucas Tolimán	2	Febrero	2023-02-28T00:00:00	2024-11-08T19:00:00	6	Velocidad del viento	4.8
109518	7	Sololá	713	San Lucas Tolimán	10	San Lucas Tolimán	2	Febrero	2023-02-28T00:00:00	2024-11-08T19:00:00	7	Dirección del viento	4.83
109519	7	Sololá	713	San Lucas Tolimán	10	San Lucas Tolimán	2	Febrero	2023-02-28T00:00:00	2024-11-08T19:00:00	1	Precipitación	0
109520	7	Sololá	713	San Lucas Tolimán	10	San Lucas Tolimán	2	Febrero	2023-02-28T00:00:00	2024-11-08T19:00:00	8	Radiación solar	0
109521	7	Sololá	713	San Lucas Tolimán	10	San Lucas Tolimán	2	Febrero	2023-02-28T00:00:00	2024-11-08T20:00:00	2	Temperatura media	17.5
109522	7	Sololá	713	San Lucas Tolimán	10	San Lucas Tolimán	2	Febrero	2023-02-28T00:00:00	2024-11-08T20:00:00	4	Temperatura máxima	18.6
109523	7	Sololá	713	San Lucas Tolimán	10	San Lucas Tolimán	2	Febrero	2023-02-28T00:00:00	2024-11-08T20:00:00	3	Temperatura mínima	17.4
109524	7	Sololá	713	San Lucas Tolimán	10	San Lucas Tolimán	2	Febrero	2023-02-28T00:00:00	2024-11-08T20:00:00	5	Humedad	62
109525	7	Sololá	713	San Lucas Tolimán	10	San Lucas Tolimán	2	Febrero	2023-02-28T00:00:00	2024-11-08T20:00:00	6	Velocidad del viento	3.2
109526	7	Sololá	713	San Lucas Tolimán	10	San Lucas Tolimán	2	Febrero	2023-02-28T00:00:00	2024-11-08T20:00:00	7	Dirección del viento	3.22
109527	7	Sololá	713	San Lucas Tolimán	10	San Lucas Tolimán	2	Febrero	2023-02-28T00:00:00	2024-11-08T20:00:00	1	Precipitación	0
109528	7	Sololá	713	San Lucas Tolimán	10	San Lucas Tolimán	2	Febrero	2023-02-28T00:00:00	2024-11-08T20:00:00	8	Radiación solar	0
109529	7	Sololá	713	San Lucas Tolimán	10	San Lucas Tolimán	2	Febrero	2023-02-28T00:00:00	2024-11-08T21:00:00	2	Temperatura media	17.8
109530	7	Sololá	713	San Lucas Tolimán	10	San Lucas Tolimán	2	Febrero	2023-02-28T00:00:00	2024-11-08T21:00:00	4	Temperatura máxima	17.9
109531	7	Sololá	713	San Lucas Tolimán	10	San Lucas Tolimán	2	Febrero	2023-02-28T00:00:00	2024-11-08T21:00:00	3	Temperatura mínima	17.5
109532	7	Sololá	713	San Lucas Tolimán	10	San Lucas Tolimán	2	Febrero	2023-02-28T00:00:00	2024-11-08T21:00:00	5	Humedad	61
109533	7	Sololá	713	San Lucas Tolimán	10	San Lucas Tolimán	2	Febrero	2023-02-28T00:00:00	2024-11-08T21:00:00	6	Velocidad del viento	4.8
109534	7	Sololá	713	San Lucas Tolimán	10	San Lucas Tolimán	2	Febrero	2023-02-28T00:00:00	2024-11-08T21:00:00	7	Dirección del viento	4.83
109535	7	Sololá	713	San Lucas Tolimán	10	San Lucas Tolimán	2	Febrero	2023-02-28T00:00:00	2024-11-08T21:00:00	1	Precipitación	0
109536	7	Sololá	713	San Lucas Tolimán	10	San Lucas Tolimán	2	Febrero	2023-02-28T00:00:00	2024-11-08T21:00:00	8	Radiación solar	0
109537	7	Sololá	713	San Lucas Tolimán	10	San Lucas Tolimán	2	Febrero	2023-02-28T00:00:00	2024-11-08T22:00:00	2	Temperatura media	18.2
109538	7	Sololá	713	San Lucas Tolimán	10	San Lucas Tolimán	2	Febrero	2023-02-28T00:00:00	2024-11-08T22:00:00	4	Temperatura máxima	18.2
109539	7	Sololá	713	San Lucas Tolimán	10	San Lucas Tolimán	2	Febrero	2023-02-28T00:00:00	2024-11-08T22:00:00	3	Temperatura mínima	17.8
109540	7	Sololá	713	San Lucas Tolimán	10	San Lucas Tolimán	2	Febrero	2023-02-28T00:00:00	2024-11-08T22:00:00	5	Humedad	59
109541	7	Sololá	713	San Lucas Tolimán	10	San Lucas Tolimán	2	Febrero	2023-02-28T00:00:00	2024-11-08T22:00:00	6	Velocidad del viento	1.6
109542	7	Sololá	713	San Lucas Tolimán	10	San Lucas Tolimán	2	Febrero	2023-02-28T00:00:00	2024-11-08T22:00:00	7	Dirección del viento	1.61
109543	7	Sololá	713	San Lucas Tolimán	10	San Lucas Tolimán	2	Febrero	2023-02-28T00:00:00	2024-11-08T22:00:00	1	Precipitación	0
109544	7	Sololá	713	San Lucas Tolimán	10	San Lucas Tolimán	2	Febrero	2023-02-28T00:00:00	2024-11-08T22:00:00	8	Radiación solar	0
109545	7	Sololá	713	San Lucas Tolimán	10	San Lucas Tolimán	2	Febrero	2023-02-28T00:00:00	2024-11-08T23:00:00	2	Temperatura media	17.9
109546	7	Sololá	713	San Lucas Tolimán	10	San Lucas Tolimán	2	Febrero	2023-02-28T00:00:00	2024-11-08T23:00:00	4	Temperatura máxima	18.2
109547	7	Sololá	713	San Lucas Tolimán	10	San Lucas Tolimán	2	Febrero	2023-02-28T00:00:00	2024-11-08T23:00:00	3	Temperatura mínima	17.9
109548	7	Sololá	713	San Lucas Tolimán	10	San Lucas Tolimán	2	Febrero	2023-02-28T00:00:00	2024-11-08T23:00:00	5	Humedad	61
109549	7	Sololá	713	San Lucas Tolimán	10	San Lucas Tolimán	2	Febrero	2023-02-28T00:00:00	2024-11-08T23:00:00	6	Velocidad del viento	0
109550	7	Sololá	713	San Lucas Tolimán	10	San Lucas Tolimán	2	Febrero	2023-02-28T00:00:00	2024-11-08T23:00:00	7	Dirección del viento	0
109551	7	Sololá	713	San Lucas Tolimán	10	San Lucas Tolimán	2	Febrero	2023-02-28T00:00:00	2024-11-08T23:00:00	1	Precipitación	0
109552	7	Sololá	713	San Lucas Tolimán	10	San Lucas Tolimán	2	Febrero	2023-02-28T00:00:00	2024-11-08T23:00:00	8	Radiación solar	0
109553	7	Sololá	713	San Lucas Tolimán	10	San Lucas Tolimán	3	Marzo	2023-01-03T00:00:00	2024-11-08T00:00:00	2	Temperatura media	17.2
109554	7	Sololá	713	San Lucas Tolimán	10	San Lucas Tolimán	3	Marzo	2023-01-03T00:00:00	2024-11-08T00:00:00	4	Temperatura máxima	17.9
109555	7	Sololá	713	San Lucas Tolimán	10	San Lucas Tolimán	3	Marzo	2023-01-03T00:00:00	2024-11-08T00:00:00	3	Temperatura mínima	17.2
109556	7	Sololá	713	San Lucas Tolimán	10	San Lucas Tolimán	3	Marzo	2023-01-03T00:00:00	2024-11-08T00:00:00	5	Humedad	60
109557	7	Sololá	713	San Lucas Tolimán	10	San Lucas Tolimán	3	Marzo	2023-01-03T00:00:00	2024-11-08T00:00:00	6	Velocidad del viento	3.2
109558	7	Sololá	713	San Lucas Tolimán	10	San Lucas Tolimán	3	Marzo	2023-01-03T00:00:00	2024-11-08T00:00:00	7	Dirección del viento	3.22
109559	7	Sololá	713	San Lucas Tolimán	10	San Lucas Tolimán	3	Marzo	2023-01-03T00:00:00	2024-11-08T00:00:00	1	Precipitación	0
109560	7	Sololá	713	San Lucas Tolimán	10	San Lucas Tolimán	3	Marzo	2023-01-03T00:00:00	2024-11-08T00:00:00	8	Radiación solar	0
109561	7	Sololá	713	San Lucas Tolimán	10	San Lucas Tolimán	3	Marzo	2023-01-03T00:00:00	2024-11-08T01:00:00	2	Temperatura media	16.4
109562	7	Sololá	713	San Lucas Tolimán	10	San Lucas Tolimán	3	Marzo	2023-01-03T00:00:00	2024-11-08T01:00:00	4	Temperatura máxima	17.2
109563	7	Sololá	713	San Lucas Tolimán	10	San Lucas Tolimán	3	Marzo	2023-01-03T00:00:00	2024-11-08T01:00:00	3	Temperatura mínima	16.4
109564	7	Sololá	713	San Lucas Tolimán	10	San Lucas Tolimán	3	Marzo	2023-01-03T00:00:00	2024-11-08T01:00:00	5	Humedad	56
109565	7	Sololá	713	San Lucas Tolimán	10	San Lucas Tolimán	3	Marzo	2023-01-03T00:00:00	2024-11-08T01:00:00	6	Velocidad del viento	3.2
109566	7	Sololá	713	San Lucas Tolimán	10	San Lucas Tolimán	3	Marzo	2023-01-03T00:00:00	2024-11-08T01:00:00	7	Dirección del viento	3.22
109567	7	Sololá	713	San Lucas Tolimán	10	San Lucas Tolimán	3	Marzo	2023-01-03T00:00:00	2024-11-08T01:00:00	1	Precipitación	0
109568	7	Sololá	713	San Lucas Tolimán	10	San Lucas Tolimán	3	Marzo	2023-01-03T00:00:00	2024-11-08T01:00:00	8	Radiación solar	0
109569	7	Sololá	713	San Lucas Tolimán	10	San Lucas Tolimán	3	Marzo	2023-01-03T00:00:00	2024-11-08T02:00:00	2	Temperatura media	15.5
109570	7	Sololá	713	San Lucas Tolimán	10	San Lucas Tolimán	3	Marzo	2023-01-03T00:00:00	2024-11-08T02:00:00	4	Temperatura máxima	16.6
109571	7	Sololá	713	San Lucas Tolimán	10	San Lucas Tolimán	3	Marzo	2023-01-03T00:00:00	2024-11-08T02:00:00	3	Temperatura mínima	15.4
109572	7	Sololá	713	San Lucas Tolimán	10	San Lucas Tolimán	3	Marzo	2023-01-03T00:00:00	2024-11-08T02:00:00	5	Humedad	61
109573	7	Sololá	713	San Lucas Tolimán	10	San Lucas Tolimán	3	Marzo	2023-01-03T00:00:00	2024-11-08T02:00:00	6	Velocidad del viento	0
109574	7	Sololá	713	San Lucas Tolimán	10	San Lucas Tolimán	3	Marzo	2023-01-03T00:00:00	2024-11-08T02:00:00	7	Dirección del viento	0
109575	7	Sololá	713	San Lucas Tolimán	10	San Lucas Tolimán	3	Marzo	2023-01-03T00:00:00	2024-11-08T02:00:00	1	Precipitación	0
109576	7	Sololá	713	San Lucas Tolimán	10	San Lucas Tolimán	3	Marzo	2023-01-03T00:00:00	2024-11-08T02:00:00	8	Radiación solar	0
109577	7	Sololá	713	San Lucas Tolimán	10	San Lucas Tolimán	3	Marzo	2023-01-03T00:00:00	2024-11-08T03:00:00	2	Temperatura media	15.4
109578	7	Sololá	713	San Lucas Tolimán	10	San Lucas Tolimán	3	Marzo	2023-01-03T00:00:00	2024-11-08T03:00:00	4	Temperatura máxima	15.6
109579	7	Sololá	713	San Lucas Tolimán	10	San Lucas Tolimán	3	Marzo	2023-01-03T00:00:00	2024-11-08T03:00:00	3	Temperatura mínima	15.3
109580	7	Sololá	713	San Lucas Tolimán	10	San Lucas Tolimán	3	Marzo	2023-01-03T00:00:00	2024-11-08T03:00:00	5	Humedad	58
109581	7	Sololá	713	San Lucas Tolimán	10	San Lucas Tolimán	3	Marzo	2023-01-03T00:00:00	2024-11-08T03:00:00	6	Velocidad del viento	1.6
109582	7	Sololá	713	San Lucas Tolimán	10	San Lucas Tolimán	3	Marzo	2023-01-03T00:00:00	2024-11-08T03:00:00	7	Dirección del viento	1.61
109583	7	Sololá	713	San Lucas Tolimán	10	San Lucas Tolimán	3	Marzo	2023-01-03T00:00:00	2024-11-08T03:00:00	1	Precipitación	0
109584	7	Sololá	713	San Lucas Tolimán	10	San Lucas Tolimán	3	Marzo	2023-01-03T00:00:00	2024-11-08T03:00:00	8	Radiación solar	0
109585	7	Sololá	713	San Lucas Tolimán	10	San Lucas Tolimán	3	Marzo	2023-01-03T00:00:00	2024-11-08T04:00:00	2	Temperatura media	14.6
109586	7	Sololá	713	San Lucas Tolimán	10	San Lucas Tolimán	3	Marzo	2023-01-03T00:00:00	2024-11-08T04:00:00	4	Temperatura máxima	15.4
109587	7	Sololá	713	San Lucas Tolimán	10	San Lucas Tolimán	3	Marzo	2023-01-03T00:00:00	2024-11-08T04:00:00	3	Temperatura mínima	14.6
109588	7	Sololá	713	San Lucas Tolimán	10	San Lucas Tolimán	3	Marzo	2023-01-03T00:00:00	2024-11-08T04:00:00	5	Humedad	58
109589	7	Sololá	713	San Lucas Tolimán	10	San Lucas Tolimán	3	Marzo	2023-01-03T00:00:00	2024-11-08T04:00:00	6	Velocidad del viento	1.6
109590	7	Sololá	713	San Lucas Tolimán	10	San Lucas Tolimán	3	Marzo	2023-01-03T00:00:00	2024-11-08T04:00:00	7	Dirección del viento	1.61
109591	7	Sololá	713	San Lucas Tolimán	10	San Lucas Tolimán	3	Marzo	2023-01-03T00:00:00	2024-11-08T04:00:00	1	Precipitación	0
109592	7	Sololá	713	San Lucas Tolimán	10	San Lucas Tolimán	3	Marzo	2023-01-03T00:00:00	2024-11-08T04:00:00	8	Radiación solar	0
109593	7	Sololá	713	San Lucas Tolimán	10	San Lucas Tolimán	3	Marzo	2023-01-03T00:00:00	2024-11-08T05:00:00	2	Temperatura media	14.4
109594	7	Sololá	713	San Lucas Tolimán	10	San Lucas Tolimán	3	Marzo	2023-01-03T00:00:00	2024-11-08T05:00:00	4	Temperatura máxima	14.9
109595	7	Sololá	713	San Lucas Tolimán	10	San Lucas Tolimán	3	Marzo	2023-01-03T00:00:00	2024-11-08T05:00:00	3	Temperatura mínima	14.3
109596	7	Sololá	713	San Lucas Tolimán	10	San Lucas Tolimán	3	Marzo	2023-01-03T00:00:00	2024-11-08T05:00:00	5	Humedad	58
109597	7	Sololá	713	San Lucas Tolimán	10	San Lucas Tolimán	3	Marzo	2023-01-03T00:00:00	2024-11-08T05:00:00	6	Velocidad del viento	1.6
109598	7	Sololá	713	San Lucas Tolimán	10	San Lucas Tolimán	3	Marzo	2023-01-03T00:00:00	2024-11-08T05:00:00	7	Dirección del viento	1.61
109599	7	Sololá	713	San Lucas Tolimán	10	San Lucas Tolimán	3	Marzo	2023-01-03T00:00:00	2024-11-08T05:00:00	1	Precipitación	0
109600	7	Sololá	713	San Lucas Tolimán	10	San Lucas Tolimán	3	Marzo	2023-01-03T00:00:00	2024-11-08T05:00:00	8	Radiación solar	0
109601	7	Sololá	713	San Lucas Tolimán	10	San Lucas Tolimán	3	Marzo	2023-01-03T00:00:00	2024-11-08T06:00:00	2	Temperatura media	14.3
109602	7	Sololá	713	San Lucas Tolimán	10	San Lucas Tolimán	3	Marzo	2023-01-03T00:00:00	2024-11-08T06:00:00	4	Temperatura máxima	14.8
109603	7	Sololá	713	San Lucas Tolimán	10	San Lucas Tolimán	3	Marzo	2023-01-03T00:00:00	2024-11-08T06:00:00	3	Temperatura mínima	14.3
109604	7	Sololá	713	San Lucas Tolimán	10	San Lucas Tolimán	3	Marzo	2023-01-03T00:00:00	2024-11-08T06:00:00	5	Humedad	59
109605	7	Sololá	713	San Lucas Tolimán	10	San Lucas Tolimán	3	Marzo	2023-01-03T00:00:00	2024-11-08T06:00:00	6	Velocidad del viento	0
109606	7	Sololá	713	San Lucas Tolimán	10	San Lucas Tolimán	3	Marzo	2023-01-03T00:00:00	2024-11-08T06:00:00	7	Dirección del viento	0
109607	7	Sololá	713	San Lucas Tolimán	10	San Lucas Tolimán	3	Marzo	2023-01-03T00:00:00	2024-11-08T06:00:00	1	Precipitación	0
109608	7	Sololá	713	San Lucas Tolimán	10	San Lucas Tolimán	3	Marzo	2023-01-03T00:00:00	2024-11-08T06:00:00	8	Radiación solar	0
109609	7	Sololá	713	San Lucas Tolimán	10	San Lucas Tolimán	3	Marzo	2023-01-03T00:00:00	2024-11-08T07:00:00	2	Temperatura media	14.3
109610	7	Sololá	713	San Lucas Tolimán	10	San Lucas Tolimán	3	Marzo	2023-01-03T00:00:00	2024-11-08T07:00:00	4	Temperatura máxima	14.3
109611	7	Sololá	713	San Lucas Tolimán	10	San Lucas Tolimán	3	Marzo	2023-01-03T00:00:00	2024-11-08T07:00:00	3	Temperatura mínima	13.9
109612	7	Sololá	713	San Lucas Tolimán	10	San Lucas Tolimán	3	Marzo	2023-01-03T00:00:00	2024-11-08T07:00:00	5	Humedad	57
109613	7	Sololá	713	San Lucas Tolimán	10	San Lucas Tolimán	3	Marzo	2023-01-03T00:00:00	2024-11-08T07:00:00	6	Velocidad del viento	0
109614	7	Sololá	713	San Lucas Tolimán	10	San Lucas Tolimán	3	Marzo	2023-01-03T00:00:00	2024-11-08T07:00:00	7	Dirección del viento	0
109615	7	Sololá	713	San Lucas Tolimán	10	San Lucas Tolimán	3	Marzo	2023-01-03T00:00:00	2024-11-08T07:00:00	1	Precipitación	0
109616	7	Sololá	713	San Lucas Tolimán	10	San Lucas Tolimán	3	Marzo	2023-01-03T00:00:00	2024-11-08T07:00:00	8	Radiación solar	9
109617	7	Sololá	713	San Lucas Tolimán	10	San Lucas Tolimán	3	Marzo	2023-01-03T00:00:00	2024-11-08T08:00:00	2	Temperatura media	16.6
109618	7	Sololá	713	San Lucas Tolimán	10	San Lucas Tolimán	3	Marzo	2023-01-03T00:00:00	2024-11-08T08:00:00	4	Temperatura máxima	16.6
109619	7	Sololá	713	San Lucas Tolimán	10	San Lucas Tolimán	3	Marzo	2023-01-03T00:00:00	2024-11-08T08:00:00	3	Temperatura mínima	14.3
109620	7	Sololá	713	San Lucas Tolimán	10	San Lucas Tolimán	3	Marzo	2023-01-03T00:00:00	2024-11-08T08:00:00	5	Humedad	55
109621	7	Sololá	713	San Lucas Tolimán	10	San Lucas Tolimán	3	Marzo	2023-01-03T00:00:00	2024-11-08T08:00:00	6	Velocidad del viento	1.6
109622	7	Sololá	713	San Lucas Tolimán	10	San Lucas Tolimán	3	Marzo	2023-01-03T00:00:00	2024-11-08T08:00:00	7	Dirección del viento	1.61
109623	7	Sololá	713	San Lucas Tolimán	10	San Lucas Tolimán	3	Marzo	2023-01-03T00:00:00	2024-11-08T08:00:00	1	Precipitación	0
109624	7	Sololá	713	San Lucas Tolimán	10	San Lucas Tolimán	3	Marzo	2023-01-03T00:00:00	2024-11-08T08:00:00	8	Radiación solar	121
109625	7	Sololá	713	San Lucas Tolimán	10	San Lucas Tolimán	3	Marzo	2023-01-03T00:00:00	2024-11-08T09:00:00	2	Temperatura media	18.5
109626	7	Sololá	713	San Lucas Tolimán	10	San Lucas Tolimán	3	Marzo	2023-01-03T00:00:00	2024-11-08T09:00:00	4	Temperatura máxima	18.5
109627	7	Sololá	713	San Lucas Tolimán	10	San Lucas Tolimán	3	Marzo	2023-01-03T00:00:00	2024-11-08T09:00:00	3	Temperatura mínima	16.6
109628	7	Sololá	713	San Lucas Tolimán	10	San Lucas Tolimán	3	Marzo	2023-01-03T00:00:00	2024-11-08T09:00:00	5	Humedad	51
109629	7	Sololá	713	San Lucas Tolimán	10	San Lucas Tolimán	3	Marzo	2023-01-03T00:00:00	2024-11-08T09:00:00	6	Velocidad del viento	4.8
109630	7	Sololá	713	San Lucas Tolimán	10	San Lucas Tolimán	3	Marzo	2023-01-03T00:00:00	2024-11-08T09:00:00	7	Dirección del viento	4.83
109631	7	Sololá	713	San Lucas Tolimán	10	San Lucas Tolimán	3	Marzo	2023-01-03T00:00:00	2024-11-08T09:00:00	1	Precipitación	0
109632	7	Sololá	713	San Lucas Tolimán	10	San Lucas Tolimán	3	Marzo	2023-01-03T00:00:00	2024-11-08T09:00:00	8	Radiación solar	491
109633	7	Sololá	713	San Lucas Tolimán	10	San Lucas Tolimán	3	Marzo	2023-01-03T00:00:00	2024-11-08T10:00:00	2	Temperatura media	19.8
109634	7	Sololá	713	San Lucas Tolimán	10	San Lucas Tolimán	3	Marzo	2023-01-03T00:00:00	2024-11-08T10:00:00	4	Temperatura máxima	19.8
109635	7	Sololá	713	San Lucas Tolimán	10	San Lucas Tolimán	3	Marzo	2023-01-03T00:00:00	2024-11-08T10:00:00	3	Temperatura mínima	18.5
109636	7	Sololá	713	San Lucas Tolimán	10	San Lucas Tolimán	3	Marzo	2023-01-03T00:00:00	2024-11-08T10:00:00	5	Humedad	51
109637	7	Sololá	713	San Lucas Tolimán	10	San Lucas Tolimán	3	Marzo	2023-01-03T00:00:00	2024-11-08T10:00:00	6	Velocidad del viento	6.4
109638	7	Sololá	713	San Lucas Tolimán	10	San Lucas Tolimán	3	Marzo	2023-01-03T00:00:00	2024-11-08T10:00:00	7	Dirección del viento	6.44
109639	7	Sololá	713	San Lucas Tolimán	10	San Lucas Tolimán	3	Marzo	2023-01-03T00:00:00	2024-11-08T10:00:00	1	Precipitación	0
109640	7	Sololá	713	San Lucas Tolimán	10	San Lucas Tolimán	3	Marzo	2023-01-03T00:00:00	2024-11-08T10:00:00	8	Radiación solar	729
109641	7	Sololá	713	San Lucas Tolimán	10	San Lucas Tolimán	3	Marzo	2023-01-03T00:00:00	2024-11-08T11:00:00	2	Temperatura media	22.4
109642	7	Sololá	713	San Lucas Tolimán	10	San Lucas Tolimán	3	Marzo	2023-01-03T00:00:00	2024-11-08T11:00:00	4	Temperatura máxima	23.4
109643	7	Sololá	713	San Lucas Tolimán	10	San Lucas Tolimán	3	Marzo	2023-01-03T00:00:00	2024-11-08T11:00:00	3	Temperatura mínima	19.8
109644	7	Sololá	713	San Lucas Tolimán	10	San Lucas Tolimán	3	Marzo	2023-01-03T00:00:00	2024-11-08T11:00:00	5	Humedad	52
109645	7	Sololá	713	San Lucas Tolimán	10	San Lucas Tolimán	3	Marzo	2023-01-03T00:00:00	2024-11-08T11:00:00	6	Velocidad del viento	6.4
109646	7	Sololá	713	San Lucas Tolimán	10	San Lucas Tolimán	3	Marzo	2023-01-03T00:00:00	2024-11-08T11:00:00	7	Dirección del viento	6.44
109647	7	Sololá	713	San Lucas Tolimán	10	San Lucas Tolimán	3	Marzo	2023-01-03T00:00:00	2024-11-08T11:00:00	1	Precipitación	0
109648	7	Sololá	713	San Lucas Tolimán	10	San Lucas Tolimán	3	Marzo	2023-01-03T00:00:00	2024-11-08T11:00:00	8	Radiación solar	910
109649	7	Sololá	713	San Lucas Tolimán	10	San Lucas Tolimán	3	Marzo	2023-01-03T00:00:00	2024-11-08T12:00:00	2	Temperatura media	21.1
109650	7	Sololá	713	San Lucas Tolimán	10	San Lucas Tolimán	3	Marzo	2023-01-03T00:00:00	2024-11-08T12:00:00	4	Temperatura máxima	22.6
109651	7	Sololá	713	San Lucas Tolimán	10	San Lucas Tolimán	3	Marzo	2023-01-03T00:00:00	2024-11-08T12:00:00	3	Temperatura mínima	21.1
109652	7	Sololá	713	San Lucas Tolimán	10	San Lucas Tolimán	3	Marzo	2023-01-03T00:00:00	2024-11-08T12:00:00	5	Humedad	59
109653	7	Sololá	713	San Lucas Tolimán	10	San Lucas Tolimán	3	Marzo	2023-01-03T00:00:00	2024-11-08T12:00:00	6	Velocidad del viento	14.5
109654	7	Sololá	713	San Lucas Tolimán	10	San Lucas Tolimán	3	Marzo	2023-01-03T00:00:00	2024-11-08T12:00:00	7	Dirección del viento	14.48
109655	7	Sololá	713	San Lucas Tolimán	10	San Lucas Tolimán	3	Marzo	2023-01-03T00:00:00	2024-11-08T12:00:00	1	Precipitación	0
109656	7	Sololá	713	San Lucas Tolimán	10	San Lucas Tolimán	3	Marzo	2023-01-03T00:00:00	2024-11-08T12:00:00	8	Radiación solar	1000
109657	7	Sololá	713	San Lucas Tolimán	10	San Lucas Tolimán	3	Marzo	2023-01-03T00:00:00	2024-11-08T13:00:00	2	Temperatura media	21.8
109658	7	Sololá	713	San Lucas Tolimán	10	San Lucas Tolimán	3	Marzo	2023-01-03T00:00:00	2024-11-08T13:00:00	4	Temperatura máxima	21.8
109659	7	Sololá	713	San Lucas Tolimán	10	San Lucas Tolimán	3	Marzo	2023-01-03T00:00:00	2024-11-08T13:00:00	3	Temperatura mínima	20.2
109660	7	Sololá	713	San Lucas Tolimán	10	San Lucas Tolimán	3	Marzo	2023-01-03T00:00:00	2024-11-08T13:00:00	5	Humedad	59
109661	7	Sololá	713	San Lucas Tolimán	10	San Lucas Tolimán	3	Marzo	2023-01-03T00:00:00	2024-11-08T13:00:00	6	Velocidad del viento	12.9
109662	7	Sololá	713	San Lucas Tolimán	10	San Lucas Tolimán	3	Marzo	2023-01-03T00:00:00	2024-11-08T13:00:00	7	Dirección del viento	12.87
109663	7	Sololá	713	San Lucas Tolimán	10	San Lucas Tolimán	3	Marzo	2023-01-03T00:00:00	2024-11-08T13:00:00	1	Precipitación	0
109664	7	Sololá	713	San Lucas Tolimán	10	San Lucas Tolimán	3	Marzo	2023-01-03T00:00:00	2024-11-08T13:00:00	8	Radiación solar	875
109665	7	Sololá	713	San Lucas Tolimán	10	San Lucas Tolimán	3	Marzo	2023-01-03T00:00:00	2024-11-08T14:00:00	2	Temperatura media	22.3
109666	7	Sololá	713	San Lucas Tolimán	10	San Lucas Tolimán	3	Marzo	2023-01-03T00:00:00	2024-11-08T14:00:00	4	Temperatura máxima	22.7
109667	7	Sololá	713	San Lucas Tolimán	10	San Lucas Tolimán	3	Marzo	2023-01-03T00:00:00	2024-11-08T14:00:00	3	Temperatura mínima	21.8
109668	7	Sololá	713	San Lucas Tolimán	10	San Lucas Tolimán	3	Marzo	2023-01-03T00:00:00	2024-11-08T14:00:00	5	Humedad	58
109669	7	Sololá	713	San Lucas Tolimán	10	San Lucas Tolimán	3	Marzo	2023-01-03T00:00:00	2024-11-08T14:00:00	6	Velocidad del viento	11.3
109670	7	Sololá	713	San Lucas Tolimán	10	San Lucas Tolimán	3	Marzo	2023-01-03T00:00:00	2024-11-08T14:00:00	7	Dirección del viento	11.27
109671	7	Sololá	713	San Lucas Tolimán	10	San Lucas Tolimán	3	Marzo	2023-01-03T00:00:00	2024-11-08T14:00:00	1	Precipitación	0
109672	7	Sololá	713	San Lucas Tolimán	10	San Lucas Tolimán	3	Marzo	2023-01-03T00:00:00	2024-11-08T14:00:00	8	Radiación solar	987
109673	7	Sololá	713	San Lucas Tolimán	10	San Lucas Tolimán	3	Marzo	2023-01-03T00:00:00	2024-11-08T15:00:00	2	Temperatura media	21.7
109674	7	Sololá	713	San Lucas Tolimán	10	San Lucas Tolimán	3	Marzo	2023-01-03T00:00:00	2024-11-08T15:00:00	4	Temperatura máxima	23
109675	7	Sololá	713	San Lucas Tolimán	10	San Lucas Tolimán	3	Marzo	2023-01-03T00:00:00	2024-11-08T15:00:00	3	Temperatura mínima	21.7
109676	7	Sololá	713	San Lucas Tolimán	10	San Lucas Tolimán	3	Marzo	2023-01-03T00:00:00	2024-11-08T15:00:00	5	Humedad	60
109677	7	Sololá	713	San Lucas Tolimán	10	San Lucas Tolimán	3	Marzo	2023-01-03T00:00:00	2024-11-08T15:00:00	6	Velocidad del viento	8
109678	7	Sololá	713	San Lucas Tolimán	10	San Lucas Tolimán	3	Marzo	2023-01-03T00:00:00	2024-11-08T15:00:00	7	Dirección del viento	8.05
109679	7	Sololá	713	San Lucas Tolimán	10	San Lucas Tolimán	3	Marzo	2023-01-03T00:00:00	2024-11-08T15:00:00	1	Precipitación	0
109680	7	Sololá	713	San Lucas Tolimán	10	San Lucas Tolimán	3	Marzo	2023-01-03T00:00:00	2024-11-08T15:00:00	8	Radiación solar	797
109681	7	Sololá	713	San Lucas Tolimán	10	San Lucas Tolimán	3	Marzo	2023-01-03T00:00:00	2024-11-08T16:00:00	2	Temperatura media	21.4
109682	7	Sololá	713	San Lucas Tolimán	10	San Lucas Tolimán	3	Marzo	2023-01-03T00:00:00	2024-11-08T16:00:00	4	Temperatura máxima	22
109683	7	Sololá	713	San Lucas Tolimán	10	San Lucas Tolimán	3	Marzo	2023-01-03T00:00:00	2024-11-08T16:00:00	3	Temperatura mínima	21.3
109684	7	Sololá	713	San Lucas Tolimán	10	San Lucas Tolimán	3	Marzo	2023-01-03T00:00:00	2024-11-08T16:00:00	5	Humedad	61
109685	7	Sololá	713	San Lucas Tolimán	10	San Lucas Tolimán	3	Marzo	2023-01-03T00:00:00	2024-11-08T16:00:00	6	Velocidad del viento	9.7
109686	7	Sololá	713	San Lucas Tolimán	10	San Lucas Tolimán	3	Marzo	2023-01-03T00:00:00	2024-11-08T16:00:00	7	Dirección del viento	9.66
109687	7	Sololá	713	San Lucas Tolimán	10	San Lucas Tolimán	3	Marzo	2023-01-03T00:00:00	2024-11-08T16:00:00	1	Precipitación	0
109688	7	Sololá	713	San Lucas Tolimán	10	San Lucas Tolimán	3	Marzo	2023-01-03T00:00:00	2024-11-08T16:00:00	8	Radiación solar	559
109689	7	Sololá	713	San Lucas Tolimán	10	San Lucas Tolimán	3	Marzo	2023-01-03T00:00:00	2024-11-08T17:00:00	2	Temperatura media	20.3
109690	7	Sololá	713	San Lucas Tolimán	10	San Lucas Tolimán	3	Marzo	2023-01-03T00:00:00	2024-11-08T17:00:00	4	Temperatura máxima	21.4
109691	7	Sololá	713	San Lucas Tolimán	10	San Lucas Tolimán	3	Marzo	2023-01-03T00:00:00	2024-11-08T17:00:00	3	Temperatura mínima	20.1
109692	7	Sololá	713	San Lucas Tolimán	10	San Lucas Tolimán	3	Marzo	2023-01-03T00:00:00	2024-11-08T17:00:00	5	Humedad	62
109693	7	Sololá	713	San Lucas Tolimán	10	San Lucas Tolimán	3	Marzo	2023-01-03T00:00:00	2024-11-08T17:00:00	6	Velocidad del viento	6.4
109694	7	Sololá	713	San Lucas Tolimán	10	San Lucas Tolimán	3	Marzo	2023-01-03T00:00:00	2024-11-08T17:00:00	7	Dirección del viento	6.44
109695	7	Sololá	713	San Lucas Tolimán	10	San Lucas Tolimán	3	Marzo	2023-01-03T00:00:00	2024-11-08T17:00:00	1	Precipitación	0
109696	7	Sololá	713	San Lucas Tolimán	10	San Lucas Tolimán	3	Marzo	2023-01-03T00:00:00	2024-11-08T17:00:00	8	Radiación solar	184
109697	7	Sololá	713	San Lucas Tolimán	10	San Lucas Tolimán	3	Marzo	2023-01-03T00:00:00	2024-11-08T18:00:00	2	Temperatura media	19.9
109698	7	Sololá	713	San Lucas Tolimán	10	San Lucas Tolimán	3	Marzo	2023-01-03T00:00:00	2024-11-08T18:00:00	4	Temperatura máxima	20.3
109699	7	Sololá	713	San Lucas Tolimán	10	San Lucas Tolimán	3	Marzo	2023-01-03T00:00:00	2024-11-08T18:00:00	3	Temperatura mínima	19.7
109700	7	Sololá	713	San Lucas Tolimán	10	San Lucas Tolimán	3	Marzo	2023-01-03T00:00:00	2024-11-08T18:00:00	5	Humedad	61
109701	7	Sololá	713	San Lucas Tolimán	10	San Lucas Tolimán	3	Marzo	2023-01-03T00:00:00	2024-11-08T18:00:00	6	Velocidad del viento	3.2
109702	7	Sololá	713	San Lucas Tolimán	10	San Lucas Tolimán	3	Marzo	2023-01-03T00:00:00	2024-11-08T18:00:00	7	Dirección del viento	3.22
109703	7	Sololá	713	San Lucas Tolimán	10	San Lucas Tolimán	3	Marzo	2023-01-03T00:00:00	2024-11-08T18:00:00	1	Precipitación	0
109704	7	Sololá	713	San Lucas Tolimán	10	San Lucas Tolimán	3	Marzo	2023-01-03T00:00:00	2024-11-08T18:00:00	8	Radiación solar	36
109705	7	Sololá	713	San Lucas Tolimán	10	San Lucas Tolimán	3	Marzo	2023-01-03T00:00:00	2024-11-08T19:00:00	2	Temperatura media	18.4
109706	7	Sololá	713	San Lucas Tolimán	10	San Lucas Tolimán	3	Marzo	2023-01-03T00:00:00	2024-11-08T19:00:00	4	Temperatura máxima	19.9
109707	7	Sololá	713	San Lucas Tolimán	10	San Lucas Tolimán	3	Marzo	2023-01-03T00:00:00	2024-11-08T19:00:00	3	Temperatura mínima	18.4
109708	7	Sololá	713	San Lucas Tolimán	10	San Lucas Tolimán	3	Marzo	2023-01-03T00:00:00	2024-11-08T19:00:00	5	Humedad	64
109709	7	Sololá	713	San Lucas Tolimán	10	San Lucas Tolimán	3	Marzo	2023-01-03T00:00:00	2024-11-08T19:00:00	6	Velocidad del viento	4.8
109710	7	Sololá	713	San Lucas Tolimán	10	San Lucas Tolimán	3	Marzo	2023-01-03T00:00:00	2024-11-08T19:00:00	7	Dirección del viento	4.83
109711	7	Sololá	713	San Lucas Tolimán	10	San Lucas Tolimán	3	Marzo	2023-01-03T00:00:00	2024-11-08T19:00:00	1	Precipitación	0
109712	7	Sololá	713	San Lucas Tolimán	10	San Lucas Tolimán	3	Marzo	2023-01-03T00:00:00	2024-11-08T19:00:00	8	Radiación solar	0
109713	7	Sololá	713	San Lucas Tolimán	10	San Lucas Tolimán	3	Marzo	2023-01-03T00:00:00	2024-11-08T20:00:00	2	Temperatura media	17.8
109714	7	Sololá	713	San Lucas Tolimán	10	San Lucas Tolimán	3	Marzo	2023-01-03T00:00:00	2024-11-08T20:00:00	4	Temperatura máxima	18.4
109715	7	Sololá	713	San Lucas Tolimán	10	San Lucas Tolimán	3	Marzo	2023-01-03T00:00:00	2024-11-08T20:00:00	3	Temperatura mínima	17.8
109716	7	Sololá	713	San Lucas Tolimán	10	San Lucas Tolimán	3	Marzo	2023-01-03T00:00:00	2024-11-08T20:00:00	5	Humedad	70
109717	7	Sololá	713	San Lucas Tolimán	10	San Lucas Tolimán	3	Marzo	2023-01-03T00:00:00	2024-11-08T20:00:00	6	Velocidad del viento	4.8
109718	7	Sololá	713	San Lucas Tolimán	10	San Lucas Tolimán	3	Marzo	2023-01-03T00:00:00	2024-11-08T20:00:00	7	Dirección del viento	4.83
109719	7	Sololá	713	San Lucas Tolimán	10	San Lucas Tolimán	3	Marzo	2023-01-03T00:00:00	2024-11-08T20:00:00	1	Precipitación	0
109720	7	Sololá	713	San Lucas Tolimán	10	San Lucas Tolimán	3	Marzo	2023-01-03T00:00:00	2024-11-08T20:00:00	8	Radiación solar	0
109721	7	Sololá	713	San Lucas Tolimán	10	San Lucas Tolimán	3	Marzo	2023-01-03T00:00:00	2024-11-08T21:00:00	2	Temperatura media	17.4
109722	7	Sololá	713	San Lucas Tolimán	10	San Lucas Tolimán	3	Marzo	2023-01-03T00:00:00	2024-11-08T21:00:00	4	Temperatura máxima	17.8
109723	7	Sololá	713	San Lucas Tolimán	10	San Lucas Tolimán	3	Marzo	2023-01-03T00:00:00	2024-11-08T21:00:00	3	Temperatura mínima	17.4
109724	7	Sololá	713	San Lucas Tolimán	10	San Lucas Tolimán	3	Marzo	2023-01-03T00:00:00	2024-11-08T21:00:00	5	Humedad	69
109725	7	Sololá	713	San Lucas Tolimán	10	San Lucas Tolimán	3	Marzo	2023-01-03T00:00:00	2024-11-08T21:00:00	6	Velocidad del viento	0
109726	7	Sololá	713	San Lucas Tolimán	10	San Lucas Tolimán	3	Marzo	2023-01-03T00:00:00	2024-11-08T21:00:00	7	Dirección del viento	0
109727	7	Sololá	713	San Lucas Tolimán	10	San Lucas Tolimán	3	Marzo	2023-01-03T00:00:00	2024-11-08T21:00:00	1	Precipitación	0
109728	7	Sololá	713	San Lucas Tolimán	10	San Lucas Tolimán	3	Marzo	2023-01-03T00:00:00	2024-11-08T21:00:00	8	Radiación solar	0
109729	7	Sololá	713	San Lucas Tolimán	10	San Lucas Tolimán	3	Marzo	2023-01-03T00:00:00	2024-11-08T22:00:00	2	Temperatura media	16.9
109730	7	Sololá	713	San Lucas Tolimán	10	San Lucas Tolimán	3	Marzo	2023-01-03T00:00:00	2024-11-08T22:00:00	4	Temperatura máxima	17.4
109731	7	Sololá	713	San Lucas Tolimán	10	San Lucas Tolimán	3	Marzo	2023-01-03T00:00:00	2024-11-08T22:00:00	3	Temperatura mínima	16.9
109732	7	Sololá	713	San Lucas Tolimán	10	San Lucas Tolimán	3	Marzo	2023-01-03T00:00:00	2024-11-08T22:00:00	5	Humedad	66
109733	7	Sololá	713	San Lucas Tolimán	10	San Lucas Tolimán	3	Marzo	2023-01-03T00:00:00	2024-11-08T22:00:00	6	Velocidad del viento	1.6
109734	7	Sololá	713	San Lucas Tolimán	10	San Lucas Tolimán	3	Marzo	2023-01-03T00:00:00	2024-11-08T22:00:00	7	Dirección del viento	1.61
109735	7	Sololá	713	San Lucas Tolimán	10	San Lucas Tolimán	3	Marzo	2023-01-03T00:00:00	2024-11-08T22:00:00	1	Precipitación	0
109736	7	Sololá	713	San Lucas Tolimán	10	San Lucas Tolimán	3	Marzo	2023-01-03T00:00:00	2024-11-08T22:00:00	8	Radiación solar	0
109737	7	Sololá	713	San Lucas Tolimán	10	San Lucas Tolimán	3	Marzo	2023-01-03T00:00:00	2024-11-08T23:00:00	2	Temperatura media	16.6
109738	7	Sololá	713	San Lucas Tolimán	10	San Lucas Tolimán	3	Marzo	2023-01-03T00:00:00	2024-11-08T23:00:00	4	Temperatura máxima	17.1
109739	7	Sololá	713	San Lucas Tolimán	10	San Lucas Tolimán	3	Marzo	2023-01-03T00:00:00	2024-11-08T23:00:00	3	Temperatura mínima	16.3
109740	7	Sololá	713	San Lucas Tolimán	10	San Lucas Tolimán	3	Marzo	2023-01-03T00:00:00	2024-11-08T23:00:00	5	Humedad	66
109741	7	Sololá	713	San Lucas Tolimán	10	San Lucas Tolimán	3	Marzo	2023-01-03T00:00:00	2024-11-08T23:00:00	6	Velocidad del viento	3.2
109742	7	Sololá	713	San Lucas Tolimán	10	San Lucas Tolimán	3	Marzo	2023-01-03T00:00:00	2024-11-08T23:00:00	7	Dirección del viento	3.22
109743	7	Sololá	713	San Lucas Tolimán	10	San Lucas Tolimán	3	Marzo	2023-01-03T00:00:00	2024-11-08T23:00:00	1	Precipitación	0
109744	7	Sololá	713	San Lucas Tolimán	10	San Lucas Tolimán	3	Marzo	2023-01-03T00:00:00	2024-11-08T23:00:00	8	Radiación solar	0
109745	7	Sololá	713	San Lucas Tolimán	10	San Lucas Tolimán	3	Marzo	2023-02-03T00:00:00	2024-11-08T00:00:00	2	Temperatura media	17.1
109746	7	Sololá	713	San Lucas Tolimán	10	San Lucas Tolimán	3	Marzo	2023-02-03T00:00:00	2024-11-08T00:00:00	4	Temperatura máxima	17.3
109747	7	Sololá	713	San Lucas Tolimán	10	San Lucas Tolimán	3	Marzo	2023-02-03T00:00:00	2024-11-08T00:00:00	3	Temperatura mínima	16.6
109748	7	Sololá	713	San Lucas Tolimán	10	San Lucas Tolimán	3	Marzo	2023-02-03T00:00:00	2024-11-08T00:00:00	5	Humedad	69
109749	7	Sololá	713	San Lucas Tolimán	10	San Lucas Tolimán	3	Marzo	2023-02-03T00:00:00	2024-11-08T00:00:00	6	Velocidad del viento	4.8
109750	7	Sololá	713	San Lucas Tolimán	10	San Lucas Tolimán	3	Marzo	2023-02-03T00:00:00	2024-11-08T00:00:00	7	Dirección del viento	4.83
109751	7	Sololá	713	San Lucas Tolimán	10	San Lucas Tolimán	3	Marzo	2023-02-03T00:00:00	2024-11-08T00:00:00	1	Precipitación	0
109752	7	Sololá	713	San Lucas Tolimán	10	San Lucas Tolimán	3	Marzo	2023-02-03T00:00:00	2024-11-08T00:00:00	8	Radiación solar	0
109753	7	Sololá	713	San Lucas Tolimán	10	San Lucas Tolimán	3	Marzo	2023-02-03T00:00:00	2024-11-08T01:00:00	2	Temperatura media	17
109754	7	Sololá	713	San Lucas Tolimán	10	San Lucas Tolimán	3	Marzo	2023-02-03T00:00:00	2024-11-08T01:00:00	4	Temperatura máxima	17.1
109755	7	Sololá	713	San Lucas Tolimán	10	San Lucas Tolimán	3	Marzo	2023-02-03T00:00:00	2024-11-08T01:00:00	3	Temperatura mínima	16.9
109756	7	Sololá	713	San Lucas Tolimán	10	San Lucas Tolimán	3	Marzo	2023-02-03T00:00:00	2024-11-08T01:00:00	5	Humedad	70
109757	7	Sololá	713	San Lucas Tolimán	10	San Lucas Tolimán	3	Marzo	2023-02-03T00:00:00	2024-11-08T01:00:00	6	Velocidad del viento	3.2
109758	7	Sololá	713	San Lucas Tolimán	10	San Lucas Tolimán	3	Marzo	2023-02-03T00:00:00	2024-11-08T01:00:00	7	Dirección del viento	3.22
109759	7	Sololá	713	San Lucas Tolimán	10	San Lucas Tolimán	3	Marzo	2023-02-03T00:00:00	2024-11-08T01:00:00	1	Precipitación	0
109760	7	Sololá	713	San Lucas Tolimán	10	San Lucas Tolimán	3	Marzo	2023-02-03T00:00:00	2024-11-08T01:00:00	8	Radiación solar	0
109761	7	Sololá	713	San Lucas Tolimán	10	San Lucas Tolimán	3	Marzo	2023-02-03T00:00:00	2024-11-08T02:00:00	2	Temperatura media	16.9
109762	7	Sololá	713	San Lucas Tolimán	10	San Lucas Tolimán	3	Marzo	2023-02-03T00:00:00	2024-11-08T02:00:00	4	Temperatura máxima	17.1
109763	7	Sololá	713	San Lucas Tolimán	10	San Lucas Tolimán	3	Marzo	2023-02-03T00:00:00	2024-11-08T02:00:00	3	Temperatura mínima	16.8
109764	7	Sololá	713	San Lucas Tolimán	10	San Lucas Tolimán	3	Marzo	2023-02-03T00:00:00	2024-11-08T02:00:00	5	Humedad	70
109765	7	Sololá	713	San Lucas Tolimán	10	San Lucas Tolimán	3	Marzo	2023-02-03T00:00:00	2024-11-08T02:00:00	6	Velocidad del viento	1.6
109766	7	Sololá	713	San Lucas Tolimán	10	San Lucas Tolimán	3	Marzo	2023-02-03T00:00:00	2024-11-08T02:00:00	7	Dirección del viento	1.61
109767	7	Sololá	713	San Lucas Tolimán	10	San Lucas Tolimán	3	Marzo	2023-02-03T00:00:00	2024-11-08T02:00:00	1	Precipitación	0
109768	7	Sololá	713	San Lucas Tolimán	10	San Lucas Tolimán	3	Marzo	2023-02-03T00:00:00	2024-11-08T02:00:00	8	Radiación solar	0
109769	7	Sololá	713	San Lucas Tolimán	10	San Lucas Tolimán	3	Marzo	2023-02-03T00:00:00	2024-11-08T03:00:00	2	Temperatura media	16.3
109770	7	Sololá	713	San Lucas Tolimán	10	San Lucas Tolimán	3	Marzo	2023-02-03T00:00:00	2024-11-08T03:00:00	4	Temperatura máxima	17
109771	7	Sololá	713	San Lucas Tolimán	10	San Lucas Tolimán	3	Marzo	2023-02-03T00:00:00	2024-11-08T03:00:00	3	Temperatura mínima	16.3
109772	7	Sololá	713	San Lucas Tolimán	10	San Lucas Tolimán	3	Marzo	2023-02-03T00:00:00	2024-11-08T03:00:00	5	Humedad	66
109773	7	Sololá	713	San Lucas Tolimán	10	San Lucas Tolimán	3	Marzo	2023-02-03T00:00:00	2024-11-08T03:00:00	6	Velocidad del viento	1.6
109774	7	Sololá	713	San Lucas Tolimán	10	San Lucas Tolimán	3	Marzo	2023-02-03T00:00:00	2024-11-08T03:00:00	7	Dirección del viento	1.61
109775	7	Sololá	713	San Lucas Tolimán	10	San Lucas Tolimán	3	Marzo	2023-02-03T00:00:00	2024-11-08T03:00:00	1	Precipitación	0
109776	7	Sololá	713	San Lucas Tolimán	10	San Lucas Tolimán	3	Marzo	2023-02-03T00:00:00	2024-11-08T03:00:00	8	Radiación solar	0
109777	7	Sololá	713	San Lucas Tolimán	10	San Lucas Tolimán	3	Marzo	2023-02-03T00:00:00	2024-11-08T04:00:00	2	Temperatura media	15.3
109778	7	Sololá	713	San Lucas Tolimán	10	San Lucas Tolimán	3	Marzo	2023-02-03T00:00:00	2024-11-08T04:00:00	4	Temperatura máxima	16.3
109779	7	Sololá	713	San Lucas Tolimán	10	San Lucas Tolimán	3	Marzo	2023-02-03T00:00:00	2024-11-08T04:00:00	3	Temperatura mínima	15.3
109780	7	Sololá	713	San Lucas Tolimán	10	San Lucas Tolimán	3	Marzo	2023-02-03T00:00:00	2024-11-08T04:00:00	5	Humedad	63
109781	7	Sololá	713	San Lucas Tolimán	10	San Lucas Tolimán	3	Marzo	2023-02-03T00:00:00	2024-11-08T04:00:00	6	Velocidad del viento	4.8
109782	7	Sololá	713	San Lucas Tolimán	10	San Lucas Tolimán	3	Marzo	2023-02-03T00:00:00	2024-11-08T04:00:00	7	Dirección del viento	4.83
109783	7	Sololá	713	San Lucas Tolimán	10	San Lucas Tolimán	3	Marzo	2023-02-03T00:00:00	2024-11-08T04:00:00	1	Precipitación	0
109784	7	Sololá	713	San Lucas Tolimán	10	San Lucas Tolimán	3	Marzo	2023-02-03T00:00:00	2024-11-08T04:00:00	8	Radiación solar	0
109785	7	Sololá	713	San Lucas Tolimán	10	San Lucas Tolimán	3	Marzo	2023-02-03T00:00:00	2024-11-08T05:00:00	2	Temperatura media	14.6
109786	7	Sololá	713	San Lucas Tolimán	10	San Lucas Tolimán	3	Marzo	2023-02-03T00:00:00	2024-11-08T05:00:00	4	Temperatura máxima	15.4
109787	7	Sololá	713	San Lucas Tolimán	10	San Lucas Tolimán	3	Marzo	2023-02-03T00:00:00	2024-11-08T05:00:00	3	Temperatura mínima	14.6
109788	7	Sololá	713	San Lucas Tolimán	10	San Lucas Tolimán	3	Marzo	2023-02-03T00:00:00	2024-11-08T05:00:00	5	Humedad	65
109789	7	Sololá	713	San Lucas Tolimán	10	San Lucas Tolimán	3	Marzo	2023-02-03T00:00:00	2024-11-08T05:00:00	6	Velocidad del viento	3.2
109790	7	Sololá	713	San Lucas Tolimán	10	San Lucas Tolimán	3	Marzo	2023-02-03T00:00:00	2024-11-08T05:00:00	7	Dirección del viento	3.22
109791	7	Sololá	713	San Lucas Tolimán	10	San Lucas Tolimán	3	Marzo	2023-02-03T00:00:00	2024-11-08T05:00:00	1	Precipitación	0
109792	7	Sololá	713	San Lucas Tolimán	10	San Lucas Tolimán	3	Marzo	2023-02-03T00:00:00	2024-11-08T05:00:00	8	Radiación solar	0
109793	7	Sololá	713	San Lucas Tolimán	10	San Lucas Tolimán	3	Marzo	2023-02-03T00:00:00	2024-11-08T06:00:00	2	Temperatura media	14.7
109794	7	Sololá	713	San Lucas Tolimán	10	San Lucas Tolimán	3	Marzo	2023-02-03T00:00:00	2024-11-08T06:00:00	4	Temperatura máxima	14.7
109795	7	Sololá	713	San Lucas Tolimán	10	San Lucas Tolimán	3	Marzo	2023-02-03T00:00:00	2024-11-08T06:00:00	3	Temperatura mínima	14.2
109796	7	Sololá	713	San Lucas Tolimán	10	San Lucas Tolimán	3	Marzo	2023-02-03T00:00:00	2024-11-08T06:00:00	5	Humedad	62
109797	7	Sololá	713	San Lucas Tolimán	10	San Lucas Tolimán	3	Marzo	2023-02-03T00:00:00	2024-11-08T06:00:00	6	Velocidad del viento	4.8
109798	7	Sololá	713	San Lucas Tolimán	10	San Lucas Tolimán	3	Marzo	2023-02-03T00:00:00	2024-11-08T06:00:00	7	Dirección del viento	4.83
109799	7	Sololá	713	San Lucas Tolimán	10	San Lucas Tolimán	3	Marzo	2023-02-03T00:00:00	2024-11-08T06:00:00	1	Precipitación	0
109800	7	Sololá	713	San Lucas Tolimán	10	San Lucas Tolimán	3	Marzo	2023-02-03T00:00:00	2024-11-08T06:00:00	8	Radiación solar	0
109801	7	Sololá	713	San Lucas Tolimán	10	San Lucas Tolimán	3	Marzo	2023-02-03T00:00:00	2024-11-08T07:00:00	2	Temperatura media	14.9
109802	7	Sololá	713	San Lucas Tolimán	10	San Lucas Tolimán	3	Marzo	2023-02-03T00:00:00	2024-11-08T07:00:00	4	Temperatura máxima	14.9
109803	7	Sololá	713	San Lucas Tolimán	10	San Lucas Tolimán	3	Marzo	2023-02-03T00:00:00	2024-11-08T07:00:00	3	Temperatura mínima	14.6
109804	7	Sololá	713	San Lucas Tolimán	10	San Lucas Tolimán	3	Marzo	2023-02-03T00:00:00	2024-11-08T07:00:00	5	Humedad	64
109805	7	Sololá	713	San Lucas Tolimán	10	San Lucas Tolimán	3	Marzo	2023-02-03T00:00:00	2024-11-08T07:00:00	6	Velocidad del viento	4.8
109806	7	Sololá	713	San Lucas Tolimán	10	San Lucas Tolimán	3	Marzo	2023-02-03T00:00:00	2024-11-08T07:00:00	7	Dirección del viento	4.83
109807	7	Sololá	713	San Lucas Tolimán	10	San Lucas Tolimán	3	Marzo	2023-02-03T00:00:00	2024-11-08T07:00:00	1	Precipitación	0
109808	7	Sololá	713	San Lucas Tolimán	10	San Lucas Tolimán	3	Marzo	2023-02-03T00:00:00	2024-11-08T07:00:00	8	Radiación solar	19
109809	7	Sololá	713	San Lucas Tolimán	10	San Lucas Tolimán	3	Marzo	2023-02-03T00:00:00	2024-11-08T08:00:00	2	Temperatura media	15.8
109810	7	Sololá	713	San Lucas Tolimán	10	San Lucas Tolimán	3	Marzo	2023-02-03T00:00:00	2024-11-08T08:00:00	4	Temperatura máxima	15.8
109811	7	Sololá	713	San Lucas Tolimán	10	San Lucas Tolimán	3	Marzo	2023-02-03T00:00:00	2024-11-08T08:00:00	3	Temperatura mínima	14.9
109812	7	Sololá	713	San Lucas Tolimán	10	San Lucas Tolimán	3	Marzo	2023-02-03T00:00:00	2024-11-08T08:00:00	5	Humedad	65
109813	7	Sololá	713	San Lucas Tolimán	10	San Lucas Tolimán	3	Marzo	2023-02-03T00:00:00	2024-11-08T08:00:00	6	Velocidad del viento	1.6
109814	7	Sololá	713	San Lucas Tolimán	10	San Lucas Tolimán	3	Marzo	2023-02-03T00:00:00	2024-11-08T08:00:00	7	Dirección del viento	1.61
109815	7	Sololá	713	San Lucas Tolimán	10	San Lucas Tolimán	3	Marzo	2023-02-03T00:00:00	2024-11-08T08:00:00	1	Precipitación	0
109816	7	Sololá	713	San Lucas Tolimán	10	San Lucas Tolimán	3	Marzo	2023-02-03T00:00:00	2024-11-08T08:00:00	8	Radiación solar	79
109817	7	Sololá	713	San Lucas Tolimán	10	San Lucas Tolimán	3	Marzo	2023-02-03T00:00:00	2024-11-08T09:00:00	2	Temperatura media	19.9
109818	7	Sololá	713	San Lucas Tolimán	10	San Lucas Tolimán	3	Marzo	2023-02-03T00:00:00	2024-11-08T09:00:00	4	Temperatura máxima	20.1
109819	7	Sololá	713	San Lucas Tolimán	10	San Lucas Tolimán	3	Marzo	2023-02-03T00:00:00	2024-11-08T09:00:00	3	Temperatura mínima	15.8
109820	7	Sololá	713	San Lucas Tolimán	10	San Lucas Tolimán	3	Marzo	2023-02-03T00:00:00	2024-11-08T09:00:00	5	Humedad	56
109821	7	Sololá	713	San Lucas Tolimán	10	San Lucas Tolimán	3	Marzo	2023-02-03T00:00:00	2024-11-08T09:00:00	6	Velocidad del viento	1.6
109822	7	Sololá	713	San Lucas Tolimán	10	San Lucas Tolimán	3	Marzo	2023-02-03T00:00:00	2024-11-08T09:00:00	7	Dirección del viento	1.61
109823	7	Sololá	713	San Lucas Tolimán	10	San Lucas Tolimán	3	Marzo	2023-02-03T00:00:00	2024-11-08T09:00:00	1	Precipitación	0
109824	7	Sololá	713	San Lucas Tolimán	10	San Lucas Tolimán	3	Marzo	2023-02-03T00:00:00	2024-11-08T09:00:00	8	Radiación solar	444
109825	7	Sololá	713	San Lucas Tolimán	10	San Lucas Tolimán	3	Marzo	2023-02-03T00:00:00	2024-11-08T10:00:00	2	Temperatura media	22
109826	7	Sololá	713	San Lucas Tolimán	10	San Lucas Tolimán	3	Marzo	2023-02-03T00:00:00	2024-11-08T10:00:00	4	Temperatura máxima	22.4
109827	7	Sololá	713	San Lucas Tolimán	10	San Lucas Tolimán	3	Marzo	2023-02-03T00:00:00	2024-11-08T10:00:00	3	Temperatura mínima	19.8
109828	7	Sololá	713	San Lucas Tolimán	10	San Lucas Tolimán	3	Marzo	2023-02-03T00:00:00	2024-11-08T10:00:00	5	Humedad	51
109829	7	Sololá	713	San Lucas Tolimán	10	San Lucas Tolimán	3	Marzo	2023-02-03T00:00:00	2024-11-08T10:00:00	6	Velocidad del viento	4.8
109830	7	Sololá	713	San Lucas Tolimán	10	San Lucas Tolimán	3	Marzo	2023-02-03T00:00:00	2024-11-08T10:00:00	7	Dirección del viento	4.83
109831	7	Sololá	713	San Lucas Tolimán	10	San Lucas Tolimán	3	Marzo	2023-02-03T00:00:00	2024-11-08T10:00:00	1	Precipitación	0
109832	7	Sololá	713	San Lucas Tolimán	10	San Lucas Tolimán	3	Marzo	2023-02-03T00:00:00	2024-11-08T10:00:00	8	Radiación solar	730
109833	7	Sololá	713	San Lucas Tolimán	10	San Lucas Tolimán	3	Marzo	2023-02-03T00:00:00	2024-11-08T11:00:00	2	Temperatura media	22.4
109834	7	Sololá	713	San Lucas Tolimán	10	San Lucas Tolimán	3	Marzo	2023-02-03T00:00:00	2024-11-08T11:00:00	4	Temperatura máxima	22.7
109835	7	Sololá	713	San Lucas Tolimán	10	San Lucas Tolimán	3	Marzo	2023-02-03T00:00:00	2024-11-08T11:00:00	3	Temperatura mínima	21.4
109836	7	Sololá	713	San Lucas Tolimán	10	San Lucas Tolimán	3	Marzo	2023-02-03T00:00:00	2024-11-08T11:00:00	5	Humedad	46
109837	7	Sololá	713	San Lucas Tolimán	10	San Lucas Tolimán	3	Marzo	2023-02-03T00:00:00	2024-11-08T11:00:00	6	Velocidad del viento	8
109838	7	Sololá	713	San Lucas Tolimán	10	San Lucas Tolimán	3	Marzo	2023-02-03T00:00:00	2024-11-08T11:00:00	7	Dirección del viento	8.05
109839	7	Sololá	713	San Lucas Tolimán	10	San Lucas Tolimán	3	Marzo	2023-02-03T00:00:00	2024-11-08T11:00:00	1	Precipitación	0
109840	7	Sololá	713	San Lucas Tolimán	10	San Lucas Tolimán	3	Marzo	2023-02-03T00:00:00	2024-11-08T11:00:00	8	Radiación solar	969
109841	7	Sololá	713	San Lucas Tolimán	10	San Lucas Tolimán	3	Marzo	2023-02-03T00:00:00	2024-11-08T12:00:00	2	Temperatura media	23.3
109842	7	Sololá	713	San Lucas Tolimán	10	San Lucas Tolimán	3	Marzo	2023-02-03T00:00:00	2024-11-08T12:00:00	4	Temperatura máxima	24.1
109843	7	Sololá	713	San Lucas Tolimán	10	San Lucas Tolimán	3	Marzo	2023-02-03T00:00:00	2024-11-08T12:00:00	3	Temperatura mínima	22.4
109844	7	Sololá	713	San Lucas Tolimán	10	San Lucas Tolimán	3	Marzo	2023-02-03T00:00:00	2024-11-08T12:00:00	5	Humedad	46
109845	7	Sololá	713	San Lucas Tolimán	10	San Lucas Tolimán	3	Marzo	2023-02-03T00:00:00	2024-11-08T12:00:00	6	Velocidad del viento	8
109846	7	Sololá	713	San Lucas Tolimán	10	San Lucas Tolimán	3	Marzo	2023-02-03T00:00:00	2024-11-08T12:00:00	7	Dirección del viento	8.05
109847	7	Sololá	713	San Lucas Tolimán	10	San Lucas Tolimán	3	Marzo	2023-02-03T00:00:00	2024-11-08T12:00:00	1	Precipitación	0
109848	7	Sololá	713	San Lucas Tolimán	10	San Lucas Tolimán	3	Marzo	2023-02-03T00:00:00	2024-11-08T12:00:00	8	Radiación solar	1055
109849	7	Sololá	713	San Lucas Tolimán	10	San Lucas Tolimán	3	Marzo	2023-02-03T00:00:00	2024-11-08T13:00:00	2	Temperatura media	23.6
109850	7	Sololá	713	San Lucas Tolimán	10	San Lucas Tolimán	3	Marzo	2023-02-03T00:00:00	2024-11-08T13:00:00	4	Temperatura máxima	24.1
109851	7	Sololá	713	San Lucas Tolimán	10	San Lucas Tolimán	3	Marzo	2023-02-03T00:00:00	2024-11-08T13:00:00	3	Temperatura mínima	23.2
109852	7	Sololá	713	San Lucas Tolimán	10	San Lucas Tolimán	3	Marzo	2023-02-03T00:00:00	2024-11-08T13:00:00	5	Humedad	44
109853	7	Sololá	713	San Lucas Tolimán	10	San Lucas Tolimán	3	Marzo	2023-02-03T00:00:00	2024-11-08T13:00:00	6	Velocidad del viento	11.3
109854	7	Sololá	713	San Lucas Tolimán	10	San Lucas Tolimán	3	Marzo	2023-02-03T00:00:00	2024-11-08T13:00:00	7	Dirección del viento	11.27
109855	7	Sololá	713	San Lucas Tolimán	10	San Lucas Tolimán	3	Marzo	2023-02-03T00:00:00	2024-11-08T13:00:00	1	Precipitación	0
109856	7	Sololá	713	San Lucas Tolimán	10	San Lucas Tolimán	3	Marzo	2023-02-03T00:00:00	2024-11-08T13:00:00	8	Radiación solar	1044
109857	7	Sololá	713	San Lucas Tolimán	10	San Lucas Tolimán	3	Marzo	2023-02-03T00:00:00	2024-11-08T14:00:00	2	Temperatura media	22.1
109858	7	Sololá	713	San Lucas Tolimán	10	San Lucas Tolimán	3	Marzo	2023-02-03T00:00:00	2024-11-08T14:00:00	4	Temperatura máxima	24.1
109859	7	Sololá	713	San Lucas Tolimán	10	San Lucas Tolimán	3	Marzo	2023-02-03T00:00:00	2024-11-08T14:00:00	3	Temperatura mínima	21.8
109860	7	Sololá	713	San Lucas Tolimán	10	San Lucas Tolimán	3	Marzo	2023-02-03T00:00:00	2024-11-08T14:00:00	5	Humedad	57
109861	7	Sololá	713	San Lucas Tolimán	10	San Lucas Tolimán	3	Marzo	2023-02-03T00:00:00	2024-11-08T14:00:00	6	Velocidad del viento	12.9
109862	7	Sololá	713	San Lucas Tolimán	10	San Lucas Tolimán	3	Marzo	2023-02-03T00:00:00	2024-11-08T14:00:00	7	Dirección del viento	12.87
109863	7	Sololá	713	San Lucas Tolimán	10	San Lucas Tolimán	3	Marzo	2023-02-03T00:00:00	2024-11-08T14:00:00	1	Precipitación	0
109864	7	Sololá	713	San Lucas Tolimán	10	San Lucas Tolimán	3	Marzo	2023-02-03T00:00:00	2024-11-08T14:00:00	8	Radiación solar	873
109865	7	Sololá	713	San Lucas Tolimán	10	San Lucas Tolimán	3	Marzo	2023-02-03T00:00:00	2024-11-08T15:00:00	2	Temperatura media	22.3
109866	7	Sololá	713	San Lucas Tolimán	10	San Lucas Tolimán	3	Marzo	2023-02-03T00:00:00	2024-11-08T15:00:00	4	Temperatura máxima	22.8
109867	7	Sololá	713	San Lucas Tolimán	10	San Lucas Tolimán	3	Marzo	2023-02-03T00:00:00	2024-11-08T15:00:00	3	Temperatura mínima	22.1
109868	7	Sololá	713	San Lucas Tolimán	10	San Lucas Tolimán	3	Marzo	2023-02-03T00:00:00	2024-11-08T15:00:00	5	Humedad	55
109869	7	Sololá	713	San Lucas Tolimán	10	San Lucas Tolimán	3	Marzo	2023-02-03T00:00:00	2024-11-08T15:00:00	6	Velocidad del viento	14.5
109870	7	Sololá	713	San Lucas Tolimán	10	San Lucas Tolimán	3	Marzo	2023-02-03T00:00:00	2024-11-08T15:00:00	7	Dirección del viento	14.48
109871	7	Sololá	713	San Lucas Tolimán	10	San Lucas Tolimán	3	Marzo	2023-02-03T00:00:00	2024-11-08T15:00:00	1	Precipitación	0
109872	7	Sololá	713	San Lucas Tolimán	10	San Lucas Tolimán	3	Marzo	2023-02-03T00:00:00	2024-11-08T15:00:00	8	Radiación solar	811
109873	7	Sololá	713	San Lucas Tolimán	10	San Lucas Tolimán	3	Marzo	2023-02-03T00:00:00	2024-11-08T16:00:00	2	Temperatura media	21.3
109874	7	Sololá	713	San Lucas Tolimán	10	San Lucas Tolimán	3	Marzo	2023-02-03T00:00:00	2024-11-08T16:00:00	4	Temperatura máxima	22.6
109875	7	Sololá	713	San Lucas Tolimán	10	San Lucas Tolimán	3	Marzo	2023-02-03T00:00:00	2024-11-08T16:00:00	3	Temperatura mínima	21.2
109876	7	Sololá	713	San Lucas Tolimán	10	San Lucas Tolimán	3	Marzo	2023-02-03T00:00:00	2024-11-08T16:00:00	5	Humedad	57
109877	7	Sololá	713	San Lucas Tolimán	10	San Lucas Tolimán	3	Marzo	2023-02-03T00:00:00	2024-11-08T16:00:00	6	Velocidad del viento	14.5
109878	7	Sololá	713	San Lucas Tolimán	10	San Lucas Tolimán	3	Marzo	2023-02-03T00:00:00	2024-11-08T16:00:00	7	Dirección del viento	14.48
109879	7	Sololá	713	San Lucas Tolimán	10	San Lucas Tolimán	3	Marzo	2023-02-03T00:00:00	2024-11-08T16:00:00	1	Precipitación	0
109880	7	Sololá	713	San Lucas Tolimán	10	San Lucas Tolimán	3	Marzo	2023-02-03T00:00:00	2024-11-08T16:00:00	8	Radiación solar	559
109881	7	Sololá	713	San Lucas Tolimán	10	San Lucas Tolimán	3	Marzo	2023-02-03T00:00:00	2024-11-08T17:00:00	2	Temperatura media	19.9
109882	7	Sololá	713	San Lucas Tolimán	10	San Lucas Tolimán	3	Marzo	2023-02-03T00:00:00	2024-11-08T17:00:00	4	Temperatura máxima	21.3
109883	7	Sololá	713	San Lucas Tolimán	10	San Lucas Tolimán	3	Marzo	2023-02-03T00:00:00	2024-11-08T17:00:00	3	Temperatura mínima	19.9
109884	7	Sololá	713	San Lucas Tolimán	10	San Lucas Tolimán	3	Marzo	2023-02-03T00:00:00	2024-11-08T17:00:00	5	Humedad	62
109885	7	Sololá	713	San Lucas Tolimán	10	San Lucas Tolimán	3	Marzo	2023-02-03T00:00:00	2024-11-08T17:00:00	6	Velocidad del viento	12.9
109886	7	Sololá	713	San Lucas Tolimán	10	San Lucas Tolimán	3	Marzo	2023-02-03T00:00:00	2024-11-08T17:00:00	7	Dirección del viento	12.87
109887	7	Sololá	713	San Lucas Tolimán	10	San Lucas Tolimán	3	Marzo	2023-02-03T00:00:00	2024-11-08T17:00:00	1	Precipitación	0
109888	7	Sololá	713	San Lucas Tolimán	10	San Lucas Tolimán	3	Marzo	2023-02-03T00:00:00	2024-11-08T17:00:00	8	Radiación solar	144
109889	7	Sololá	713	San Lucas Tolimán	10	San Lucas Tolimán	3	Marzo	2023-02-03T00:00:00	2024-11-08T18:00:00	2	Temperatura media	18.6
109890	7	Sololá	713	San Lucas Tolimán	10	San Lucas Tolimán	3	Marzo	2023-02-03T00:00:00	2024-11-08T18:00:00	4	Temperatura máxima	19.8
109891	7	Sololá	713	San Lucas Tolimán	10	San Lucas Tolimán	3	Marzo	2023-02-03T00:00:00	2024-11-08T18:00:00	3	Temperatura mínima	18.6
109892	7	Sololá	713	San Lucas Tolimán	10	San Lucas Tolimán	3	Marzo	2023-02-03T00:00:00	2024-11-08T18:00:00	5	Humedad	61
109893	7	Sololá	713	San Lucas Tolimán	10	San Lucas Tolimán	3	Marzo	2023-02-03T00:00:00	2024-11-08T18:00:00	6	Velocidad del viento	8
109894	7	Sololá	713	San Lucas Tolimán	10	San Lucas Tolimán	3	Marzo	2023-02-03T00:00:00	2024-11-08T18:00:00	7	Dirección del viento	8.05
109895	7	Sololá	713	San Lucas Tolimán	10	San Lucas Tolimán	3	Marzo	2023-02-03T00:00:00	2024-11-08T18:00:00	1	Precipitación	0
109896	7	Sololá	713	San Lucas Tolimán	10	San Lucas Tolimán	3	Marzo	2023-02-03T00:00:00	2024-11-08T18:00:00	8	Radiación solar	34
109897	7	Sololá	713	San Lucas Tolimán	10	San Lucas Tolimán	3	Marzo	2023-02-03T00:00:00	2024-11-08T19:00:00	2	Temperatura media	17.6
109898	7	Sololá	713	San Lucas Tolimán	10	San Lucas Tolimán	3	Marzo	2023-02-03T00:00:00	2024-11-08T19:00:00	4	Temperatura máxima	18.7
109899	7	Sololá	713	San Lucas Tolimán	10	San Lucas Tolimán	3	Marzo	2023-02-03T00:00:00	2024-11-08T19:00:00	3	Temperatura mínima	17.6
109900	7	Sololá	713	San Lucas Tolimán	10	San Lucas Tolimán	3	Marzo	2023-02-03T00:00:00	2024-11-08T19:00:00	5	Humedad	62
109901	7	Sololá	713	San Lucas Tolimán	10	San Lucas Tolimán	3	Marzo	2023-02-03T00:00:00	2024-11-08T19:00:00	6	Velocidad del viento	8
109902	7	Sololá	713	San Lucas Tolimán	10	San Lucas Tolimán	3	Marzo	2023-02-03T00:00:00	2024-11-08T19:00:00	7	Dirección del viento	8.05
109903	7	Sololá	713	San Lucas Tolimán	10	San Lucas Tolimán	3	Marzo	2023-02-03T00:00:00	2024-11-08T19:00:00	1	Precipitación	0
109904	7	Sololá	713	San Lucas Tolimán	10	San Lucas Tolimán	3	Marzo	2023-02-03T00:00:00	2024-11-08T19:00:00	8	Radiación solar	0
109905	7	Sololá	713	San Lucas Tolimán	10	San Lucas Tolimán	3	Marzo	2023-02-03T00:00:00	2024-11-08T20:00:00	2	Temperatura media	17.1
109906	7	Sololá	713	San Lucas Tolimán	10	San Lucas Tolimán	3	Marzo	2023-02-03T00:00:00	2024-11-08T20:00:00	4	Temperatura máxima	17.7
109907	7	Sololá	713	San Lucas Tolimán	10	San Lucas Tolimán	3	Marzo	2023-02-03T00:00:00	2024-11-08T20:00:00	3	Temperatura mínima	17.1
109908	7	Sololá	713	San Lucas Tolimán	10	San Lucas Tolimán	3	Marzo	2023-02-03T00:00:00	2024-11-08T20:00:00	5	Humedad	62
109909	7	Sololá	713	San Lucas Tolimán	10	San Lucas Tolimán	3	Marzo	2023-02-03T00:00:00	2024-11-08T20:00:00	6	Velocidad del viento	6.4
109910	7	Sololá	713	San Lucas Tolimán	10	San Lucas Tolimán	3	Marzo	2023-02-03T00:00:00	2024-11-08T20:00:00	7	Dirección del viento	6.44
109911	7	Sololá	713	San Lucas Tolimán	10	San Lucas Tolimán	3	Marzo	2023-02-03T00:00:00	2024-11-08T20:00:00	1	Precipitación	0
109912	7	Sololá	713	San Lucas Tolimán	10	San Lucas Tolimán	3	Marzo	2023-02-03T00:00:00	2024-11-08T20:00:00	8	Radiación solar	0
109913	7	Sololá	713	San Lucas Tolimán	10	San Lucas Tolimán	3	Marzo	2023-02-03T00:00:00	2024-11-08T21:00:00	2	Temperatura media	16.2
109914	7	Sololá	713	San Lucas Tolimán	10	San Lucas Tolimán	3	Marzo	2023-02-03T00:00:00	2024-11-08T21:00:00	4	Temperatura máxima	17.2
109915	7	Sololá	713	San Lucas Tolimán	10	San Lucas Tolimán	3	Marzo	2023-02-03T00:00:00	2024-11-08T21:00:00	3	Temperatura mínima	16.2
109916	7	Sololá	713	San Lucas Tolimán	10	San Lucas Tolimán	3	Marzo	2023-02-03T00:00:00	2024-11-08T21:00:00	5	Humedad	59
109917	7	Sololá	713	San Lucas Tolimán	10	San Lucas Tolimán	3	Marzo	2023-02-03T00:00:00	2024-11-08T21:00:00	6	Velocidad del viento	6.4
109918	7	Sololá	713	San Lucas Tolimán	10	San Lucas Tolimán	3	Marzo	2023-02-03T00:00:00	2024-11-08T21:00:00	7	Dirección del viento	6.44
109919	7	Sololá	713	San Lucas Tolimán	10	San Lucas Tolimán	3	Marzo	2023-02-03T00:00:00	2024-11-08T21:00:00	1	Precipitación	0
109920	7	Sololá	713	San Lucas Tolimán	10	San Lucas Tolimán	3	Marzo	2023-02-03T00:00:00	2024-11-08T21:00:00	8	Radiación solar	0
109921	7	Sololá	713	San Lucas Tolimán	10	San Lucas Tolimán	3	Marzo	2023-02-03T00:00:00	2024-11-08T22:00:00	2	Temperatura media	15.2
109922	7	Sololá	713	San Lucas Tolimán	10	San Lucas Tolimán	3	Marzo	2023-02-03T00:00:00	2024-11-08T22:00:00	4	Temperatura máxima	16.2
109923	7	Sololá	713	San Lucas Tolimán	10	San Lucas Tolimán	3	Marzo	2023-02-03T00:00:00	2024-11-08T22:00:00	3	Temperatura mínima	15.2
109924	7	Sololá	713	San Lucas Tolimán	10	San Lucas Tolimán	3	Marzo	2023-02-03T00:00:00	2024-11-08T22:00:00	5	Humedad	58
109925	7	Sololá	713	San Lucas Tolimán	10	San Lucas Tolimán	3	Marzo	2023-02-03T00:00:00	2024-11-08T22:00:00	6	Velocidad del viento	4.8
109926	7	Sololá	713	San Lucas Tolimán	10	San Lucas Tolimán	3	Marzo	2023-02-03T00:00:00	2024-11-08T22:00:00	7	Dirección del viento	4.83
109927	7	Sololá	713	San Lucas Tolimán	10	San Lucas Tolimán	3	Marzo	2023-02-03T00:00:00	2024-11-08T22:00:00	1	Precipitación	0
109928	7	Sololá	713	San Lucas Tolimán	10	San Lucas Tolimán	3	Marzo	2023-02-03T00:00:00	2024-11-08T22:00:00	8	Radiación solar	0
109929	7	Sololá	713	San Lucas Tolimán	10	San Lucas Tolimán	3	Marzo	2023-02-03T00:00:00	2024-11-08T23:00:00	2	Temperatura media	14.6
109930	7	Sololá	713	San Lucas Tolimán	10	San Lucas Tolimán	3	Marzo	2023-02-03T00:00:00	2024-11-08T23:00:00	4	Temperatura máxima	15.2
109931	7	Sololá	713	San Lucas Tolimán	10	San Lucas Tolimán	3	Marzo	2023-02-03T00:00:00	2024-11-08T23:00:00	3	Temperatura mínima	14.6
109932	7	Sololá	713	San Lucas Tolimán	10	San Lucas Tolimán	3	Marzo	2023-02-03T00:00:00	2024-11-08T23:00:00	5	Humedad	59
109933	7	Sololá	713	San Lucas Tolimán	10	San Lucas Tolimán	3	Marzo	2023-02-03T00:00:00	2024-11-08T23:00:00	6	Velocidad del viento	3.2
109934	7	Sololá	713	San Lucas Tolimán	10	San Lucas Tolimán	3	Marzo	2023-02-03T00:00:00	2024-11-08T23:00:00	7	Dirección del viento	3.22
109935	7	Sololá	713	San Lucas Tolimán	10	San Lucas Tolimán	3	Marzo	2023-02-03T00:00:00	2024-11-08T23:00:00	1	Precipitación	0
109936	7	Sololá	713	San Lucas Tolimán	10	San Lucas Tolimán	3	Marzo	2023-02-03T00:00:00	2024-11-08T23:00:00	8	Radiación solar	0
109937	7	Sololá	713	San Lucas Tolimán	10	San Lucas Tolimán	3	Marzo	2023-03-03T00:00:00	2024-11-08T00:00:00	2	Temperatura media	13.8
109938	7	Sololá	713	San Lucas Tolimán	10	San Lucas Tolimán	3	Marzo	2023-03-03T00:00:00	2024-11-08T00:00:00	4	Temperatura máxima	14.6
109939	7	Sololá	713	San Lucas Tolimán	10	San Lucas Tolimán	3	Marzo	2023-03-03T00:00:00	2024-11-08T00:00:00	3	Temperatura mínima	13.7
109940	7	Sololá	713	San Lucas Tolimán	10	San Lucas Tolimán	3	Marzo	2023-03-03T00:00:00	2024-11-08T00:00:00	5	Humedad	62
109941	7	Sololá	713	San Lucas Tolimán	10	San Lucas Tolimán	3	Marzo	2023-03-03T00:00:00	2024-11-08T00:00:00	6	Velocidad del viento	1.6
109942	7	Sololá	713	San Lucas Tolimán	10	San Lucas Tolimán	3	Marzo	2023-03-03T00:00:00	2024-11-08T00:00:00	7	Dirección del viento	1.61
109943	7	Sololá	713	San Lucas Tolimán	10	San Lucas Tolimán	3	Marzo	2023-03-03T00:00:00	2024-11-08T00:00:00	1	Precipitación	0
109944	7	Sololá	713	San Lucas Tolimán	10	San Lucas Tolimán	3	Marzo	2023-03-03T00:00:00	2024-11-08T00:00:00	8	Radiación solar	0
109945	7	Sololá	713	San Lucas Tolimán	10	San Lucas Tolimán	3	Marzo	2023-03-03T00:00:00	2024-11-08T01:00:00	2	Temperatura media	15.2
109946	7	Sololá	713	San Lucas Tolimán	10	San Lucas Tolimán	3	Marzo	2023-03-03T00:00:00	2024-11-08T01:00:00	4	Temperatura máxima	15.2
109947	7	Sololá	713	San Lucas Tolimán	10	San Lucas Tolimán	3	Marzo	2023-03-03T00:00:00	2024-11-08T01:00:00	3	Temperatura mínima	13.8
109948	7	Sololá	713	San Lucas Tolimán	10	San Lucas Tolimán	3	Marzo	2023-03-03T00:00:00	2024-11-08T01:00:00	5	Humedad	57
109949	7	Sololá	713	San Lucas Tolimán	10	San Lucas Tolimán	3	Marzo	2023-03-03T00:00:00	2024-11-08T01:00:00	6	Velocidad del viento	3.2
109950	7	Sololá	713	San Lucas Tolimán	10	San Lucas Tolimán	3	Marzo	2023-03-03T00:00:00	2024-11-08T01:00:00	7	Dirección del viento	3.22
109951	7	Sololá	713	San Lucas Tolimán	10	San Lucas Tolimán	3	Marzo	2023-03-03T00:00:00	2024-11-08T01:00:00	1	Precipitación	0
109952	7	Sololá	713	San Lucas Tolimán	10	San Lucas Tolimán	3	Marzo	2023-03-03T00:00:00	2024-11-08T01:00:00	8	Radiación solar	0
109953	7	Sololá	713	San Lucas Tolimán	10	San Lucas Tolimán	3	Marzo	2023-03-03T00:00:00	2024-11-08T02:00:00	2	Temperatura media	14.3
109954	7	Sololá	713	San Lucas Tolimán	10	San Lucas Tolimán	3	Marzo	2023-03-03T00:00:00	2024-11-08T02:00:00	4	Temperatura máxima	15.2
109955	7	Sololá	713	San Lucas Tolimán	10	San Lucas Tolimán	3	Marzo	2023-03-03T00:00:00	2024-11-08T02:00:00	3	Temperatura mínima	14.3
109956	7	Sololá	713	San Lucas Tolimán	10	San Lucas Tolimán	3	Marzo	2023-03-03T00:00:00	2024-11-08T02:00:00	5	Humedad	59
109957	7	Sololá	713	San Lucas Tolimán	10	San Lucas Tolimán	3	Marzo	2023-03-03T00:00:00	2024-11-08T02:00:00	6	Velocidad del viento	3.2
109958	7	Sololá	713	San Lucas Tolimán	10	San Lucas Tolimán	3	Marzo	2023-03-03T00:00:00	2024-11-08T02:00:00	7	Dirección del viento	3.22
109959	7	Sololá	713	San Lucas Tolimán	10	San Lucas Tolimán	3	Marzo	2023-03-03T00:00:00	2024-11-08T02:00:00	1	Precipitación	0
109960	7	Sololá	713	San Lucas Tolimán	10	San Lucas Tolimán	3	Marzo	2023-03-03T00:00:00	2024-11-08T02:00:00	8	Radiación solar	0
109961	7	Sololá	713	San Lucas Tolimán	10	San Lucas Tolimán	3	Marzo	2023-03-03T00:00:00	2024-11-08T03:00:00	2	Temperatura media	13.8
109962	7	Sololá	713	San Lucas Tolimán	10	San Lucas Tolimán	3	Marzo	2023-03-03T00:00:00	2024-11-08T03:00:00	4	Temperatura máxima	14.3
109963	7	Sololá	713	San Lucas Tolimán	10	San Lucas Tolimán	3	Marzo	2023-03-03T00:00:00	2024-11-08T03:00:00	3	Temperatura mínima	13.8
109964	7	Sololá	713	San Lucas Tolimán	10	San Lucas Tolimán	3	Marzo	2023-03-03T00:00:00	2024-11-08T03:00:00	5	Humedad	58
109965	7	Sololá	713	San Lucas Tolimán	10	San Lucas Tolimán	3	Marzo	2023-03-03T00:00:00	2024-11-08T03:00:00	6	Velocidad del viento	3.2
109966	7	Sololá	713	San Lucas Tolimán	10	San Lucas Tolimán	3	Marzo	2023-03-03T00:00:00	2024-11-08T03:00:00	7	Dirección del viento	3.22
109967	7	Sololá	713	San Lucas Tolimán	10	San Lucas Tolimán	3	Marzo	2023-03-03T00:00:00	2024-11-08T03:00:00	1	Precipitación	0
109968	7	Sololá	713	San Lucas Tolimán	10	San Lucas Tolimán	3	Marzo	2023-03-03T00:00:00	2024-11-08T03:00:00	8	Radiación solar	0
109969	7	Sololá	713	San Lucas Tolimán	10	San Lucas Tolimán	3	Marzo	2023-03-03T00:00:00	2024-11-08T04:00:00	2	Temperatura media	12.9
109970	7	Sololá	713	San Lucas Tolimán	10	San Lucas Tolimán	3	Marzo	2023-03-03T00:00:00	2024-11-08T04:00:00	4	Temperatura máxima	13.8
109971	7	Sololá	713	San Lucas Tolimán	10	San Lucas Tolimán	3	Marzo	2023-03-03T00:00:00	2024-11-08T04:00:00	3	Temperatura mínima	12.9
109972	7	Sololá	713	San Lucas Tolimán	10	San Lucas Tolimán	3	Marzo	2023-03-03T00:00:00	2024-11-08T04:00:00	5	Humedad	60
109973	7	Sololá	713	San Lucas Tolimán	10	San Lucas Tolimán	3	Marzo	2023-03-03T00:00:00	2024-11-08T04:00:00	6	Velocidad del viento	0
109974	7	Sololá	713	San Lucas Tolimán	10	San Lucas Tolimán	3	Marzo	2023-03-03T00:00:00	2024-11-08T04:00:00	7	Dirección del viento	0
109975	7	Sololá	713	San Lucas Tolimán	10	San Lucas Tolimán	3	Marzo	2023-03-03T00:00:00	2024-11-08T04:00:00	1	Precipitación	0
109976	7	Sololá	713	San Lucas Tolimán	10	San Lucas Tolimán	3	Marzo	2023-03-03T00:00:00	2024-11-08T04:00:00	8	Radiación solar	0
109977	7	Sololá	713	San Lucas Tolimán	10	San Lucas Tolimán	3	Marzo	2023-03-03T00:00:00	2024-11-08T05:00:00	2	Temperatura media	12.8
109978	7	Sololá	713	San Lucas Tolimán	10	San Lucas Tolimán	3	Marzo	2023-03-03T00:00:00	2024-11-08T05:00:00	4	Temperatura máxima	13.1
109979	7	Sololá	713	San Lucas Tolimán	10	San Lucas Tolimán	3	Marzo	2023-03-03T00:00:00	2024-11-08T05:00:00	3	Temperatura mínima	12.7
109980	7	Sololá	713	San Lucas Tolimán	10	San Lucas Tolimán	3	Marzo	2023-03-03T00:00:00	2024-11-08T05:00:00	5	Humedad	59
109981	7	Sololá	713	San Lucas Tolimán	10	San Lucas Tolimán	3	Marzo	2023-03-03T00:00:00	2024-11-08T05:00:00	6	Velocidad del viento	0
109982	7	Sololá	713	San Lucas Tolimán	10	San Lucas Tolimán	3	Marzo	2023-03-03T00:00:00	2024-11-08T05:00:00	7	Dirección del viento	0
109983	7	Sololá	713	San Lucas Tolimán	10	San Lucas Tolimán	3	Marzo	2023-03-03T00:00:00	2024-11-08T05:00:00	1	Precipitación	0
109984	7	Sololá	713	San Lucas Tolimán	10	San Lucas Tolimán	3	Marzo	2023-03-03T00:00:00	2024-11-08T05:00:00	8	Radiación solar	0
109985	7	Sololá	713	San Lucas Tolimán	10	San Lucas Tolimán	3	Marzo	2023-03-03T00:00:00	2024-11-08T06:00:00	2	Temperatura media	12.8
109986	7	Sololá	713	San Lucas Tolimán	10	San Lucas Tolimán	3	Marzo	2023-03-03T00:00:00	2024-11-08T06:00:00	4	Temperatura máxima	13
109987	7	Sololá	713	San Lucas Tolimán	10	San Lucas Tolimán	3	Marzo	2023-03-03T00:00:00	2024-11-08T06:00:00	3	Temperatura mínima	12.7
109988	7	Sololá	713	San Lucas Tolimán	10	San Lucas Tolimán	3	Marzo	2023-03-03T00:00:00	2024-11-08T06:00:00	5	Humedad	62
109989	7	Sololá	713	San Lucas Tolimán	10	San Lucas Tolimán	3	Marzo	2023-03-03T00:00:00	2024-11-08T06:00:00	6	Velocidad del viento	3.2
109990	7	Sololá	713	San Lucas Tolimán	10	San Lucas Tolimán	3	Marzo	2023-03-03T00:00:00	2024-11-08T06:00:00	7	Dirección del viento	3.22
109991	7	Sololá	713	San Lucas Tolimán	10	San Lucas Tolimán	3	Marzo	2023-03-03T00:00:00	2024-11-08T06:00:00	1	Precipitación	0
109992	7	Sololá	713	San Lucas Tolimán	10	San Lucas Tolimán	3	Marzo	2023-03-03T00:00:00	2024-11-08T06:00:00	8	Radiación solar	0
109993	7	Sololá	713	San Lucas Tolimán	10	San Lucas Tolimán	3	Marzo	2023-03-03T00:00:00	2024-11-08T07:00:00	2	Temperatura media	13.2
109994	7	Sololá	713	San Lucas Tolimán	10	San Lucas Tolimán	3	Marzo	2023-03-03T00:00:00	2024-11-08T07:00:00	4	Temperatura máxima	13.4
109995	7	Sololá	713	San Lucas Tolimán	10	San Lucas Tolimán	3	Marzo	2023-03-03T00:00:00	2024-11-08T07:00:00	3	Temperatura mínima	12.8
109996	7	Sololá	713	San Lucas Tolimán	10	San Lucas Tolimán	3	Marzo	2023-03-03T00:00:00	2024-11-08T07:00:00	5	Humedad	58
109997	7	Sololá	713	San Lucas Tolimán	10	San Lucas Tolimán	3	Marzo	2023-03-03T00:00:00	2024-11-08T07:00:00	6	Velocidad del viento	3.2
109998	7	Sololá	713	San Lucas Tolimán	10	San Lucas Tolimán	3	Marzo	2023-03-03T00:00:00	2024-11-08T07:00:00	7	Dirección del viento	3.22
109999	7	Sololá	713	San Lucas Tolimán	10	San Lucas Tolimán	3	Marzo	2023-03-03T00:00:00	2024-11-08T07:00:00	1	Precipitación	0
110000	7	Sololá	713	San Lucas Tolimán	10	San Lucas Tolimán	3	Marzo	2023-03-03T00:00:00	2024-11-08T07:00:00	8	Radiación solar	7
110001	7	Sololá	713	San Lucas Tolimán	10	San Lucas Tolimán	3	Marzo	2023-03-03T00:00:00	2024-11-08T08:00:00	2	Temperatura media	15.9
110002	7	Sololá	713	San Lucas Tolimán	10	San Lucas Tolimán	3	Marzo	2023-03-03T00:00:00	2024-11-08T08:00:00	4	Temperatura máxima	15.9
110003	7	Sololá	713	San Lucas Tolimán	10	San Lucas Tolimán	3	Marzo	2023-03-03T00:00:00	2024-11-08T08:00:00	3	Temperatura mínima	13.1
110004	7	Sololá	713	San Lucas Tolimán	10	San Lucas Tolimán	3	Marzo	2023-03-03T00:00:00	2024-11-08T08:00:00	5	Humedad	55
110005	7	Sololá	713	San Lucas Tolimán	10	San Lucas Tolimán	3	Marzo	2023-03-03T00:00:00	2024-11-08T08:00:00	6	Velocidad del viento	0
110006	7	Sololá	713	San Lucas Tolimán	10	San Lucas Tolimán	3	Marzo	2023-03-03T00:00:00	2024-11-08T08:00:00	7	Dirección del viento	0
110007	7	Sololá	713	San Lucas Tolimán	10	San Lucas Tolimán	3	Marzo	2023-03-03T00:00:00	2024-11-08T08:00:00	1	Precipitación	0
110008	7	Sololá	713	San Lucas Tolimán	10	San Lucas Tolimán	3	Marzo	2023-03-03T00:00:00	2024-11-08T08:00:00	8	Radiación solar	125
110009	7	Sololá	713	San Lucas Tolimán	10	San Lucas Tolimán	3	Marzo	2023-03-03T00:00:00	2024-11-08T09:00:00	2	Temperatura media	18.4
110010	7	Sololá	713	San Lucas Tolimán	10	San Lucas Tolimán	3	Marzo	2023-03-03T00:00:00	2024-11-08T09:00:00	4	Temperatura máxima	18.5
110011	7	Sololá	713	San Lucas Tolimán	10	San Lucas Tolimán	3	Marzo	2023-03-03T00:00:00	2024-11-08T09:00:00	3	Temperatura mínima	15.9
110012	7	Sololá	713	San Lucas Tolimán	10	San Lucas Tolimán	3	Marzo	2023-03-03T00:00:00	2024-11-08T09:00:00	5	Humedad	47
110013	7	Sololá	713	San Lucas Tolimán	10	San Lucas Tolimán	3	Marzo	2023-03-03T00:00:00	2024-11-08T09:00:00	6	Velocidad del viento	3.2
110014	7	Sololá	713	San Lucas Tolimán	10	San Lucas Tolimán	3	Marzo	2023-03-03T00:00:00	2024-11-08T09:00:00	7	Dirección del viento	3.22
110015	7	Sololá	713	San Lucas Tolimán	10	San Lucas Tolimán	3	Marzo	2023-03-03T00:00:00	2024-11-08T09:00:00	1	Precipitación	0
110016	7	Sololá	713	San Lucas Tolimán	10	San Lucas Tolimán	3	Marzo	2023-03-03T00:00:00	2024-11-08T09:00:00	8	Radiación solar	500
110017	7	Sololá	713	San Lucas Tolimán	10	San Lucas Tolimán	3	Marzo	2023-03-03T00:00:00	2024-11-08T10:00:00	2	Temperatura media	22.3
110018	7	Sololá	713	San Lucas Tolimán	10	San Lucas Tolimán	3	Marzo	2023-03-03T00:00:00	2024-11-08T10:00:00	4	Temperatura máxima	22.3
110019	7	Sololá	713	San Lucas Tolimán	10	San Lucas Tolimán	3	Marzo	2023-03-03T00:00:00	2024-11-08T10:00:00	3	Temperatura mínima	18.5
110020	7	Sololá	713	San Lucas Tolimán	10	San Lucas Tolimán	3	Marzo	2023-03-03T00:00:00	2024-11-08T10:00:00	5	Humedad	38
110021	7	Sololá	713	San Lucas Tolimán	10	San Lucas Tolimán	3	Marzo	2023-03-03T00:00:00	2024-11-08T10:00:00	6	Velocidad del viento	4.8
110022	7	Sololá	713	San Lucas Tolimán	10	San Lucas Tolimán	3	Marzo	2023-03-03T00:00:00	2024-11-08T10:00:00	7	Dirección del viento	4.83
110023	7	Sololá	713	San Lucas Tolimán	10	San Lucas Tolimán	3	Marzo	2023-03-03T00:00:00	2024-11-08T10:00:00	1	Precipitación	0
110024	7	Sololá	713	San Lucas Tolimán	10	San Lucas Tolimán	3	Marzo	2023-03-03T00:00:00	2024-11-08T10:00:00	8	Radiación solar	749
110025	7	Sololá	713	San Lucas Tolimán	10	San Lucas Tolimán	3	Marzo	2023-03-03T00:00:00	2024-11-08T11:00:00	2	Temperatura media	21.9
110026	7	Sololá	713	San Lucas Tolimán	10	San Lucas Tolimán	3	Marzo	2023-03-03T00:00:00	2024-11-08T11:00:00	4	Temperatura máxima	22.4
110027	7	Sololá	713	San Lucas Tolimán	10	San Lucas Tolimán	3	Marzo	2023-03-03T00:00:00	2024-11-08T11:00:00	3	Temperatura mínima	21.8
110028	7	Sololá	713	San Lucas Tolimán	10	San Lucas Tolimán	3	Marzo	2023-03-03T00:00:00	2024-11-08T11:00:00	5	Humedad	43
110029	7	Sololá	713	San Lucas Tolimán	10	San Lucas Tolimán	3	Marzo	2023-03-03T00:00:00	2024-11-08T11:00:00	6	Velocidad del viento	11.3
110030	7	Sololá	713	San Lucas Tolimán	10	San Lucas Tolimán	3	Marzo	2023-03-03T00:00:00	2024-11-08T11:00:00	7	Dirección del viento	11.27
110031	7	Sololá	713	San Lucas Tolimán	10	San Lucas Tolimán	3	Marzo	2023-03-03T00:00:00	2024-11-08T11:00:00	1	Precipitación	0
110032	7	Sololá	713	San Lucas Tolimán	10	San Lucas Tolimán	3	Marzo	2023-03-03T00:00:00	2024-11-08T11:00:00	8	Radiación solar	931
110033	7	Sololá	713	San Lucas Tolimán	10	San Lucas Tolimán	3	Marzo	2023-03-03T00:00:00	2024-11-08T12:00:00	2	Temperatura media	22.1
110034	7	Sololá	713	San Lucas Tolimán	10	San Lucas Tolimán	3	Marzo	2023-03-03T00:00:00	2024-11-08T12:00:00	4	Temperatura máxima	22.1
110035	7	Sololá	713	San Lucas Tolimán	10	San Lucas Tolimán	3	Marzo	2023-03-03T00:00:00	2024-11-08T12:00:00	3	Temperatura mínima	21.2
110036	7	Sololá	713	San Lucas Tolimán	10	San Lucas Tolimán	3	Marzo	2023-03-03T00:00:00	2024-11-08T12:00:00	5	Humedad	53
110037	7	Sololá	713	San Lucas Tolimán	10	San Lucas Tolimán	3	Marzo	2023-03-03T00:00:00	2024-11-08T12:00:00	6	Velocidad del viento	12.9
110038	7	Sololá	713	San Lucas Tolimán	10	San Lucas Tolimán	3	Marzo	2023-03-03T00:00:00	2024-11-08T12:00:00	7	Dirección del viento	12.87
110039	7	Sololá	713	San Lucas Tolimán	10	San Lucas Tolimán	3	Marzo	2023-03-03T00:00:00	2024-11-08T12:00:00	1	Precipitación	0
110040	7	Sololá	713	San Lucas Tolimán	10	San Lucas Tolimán	3	Marzo	2023-03-03T00:00:00	2024-11-08T12:00:00	8	Radiación solar	1037
110041	7	Sololá	713	San Lucas Tolimán	10	San Lucas Tolimán	3	Marzo	2023-03-03T00:00:00	2024-11-08T13:00:00	2	Temperatura media	22.4
110042	7	Sololá	713	San Lucas Tolimán	10	San Lucas Tolimán	3	Marzo	2023-03-03T00:00:00	2024-11-08T13:00:00	4	Temperatura máxima	22.7
110043	7	Sololá	713	San Lucas Tolimán	10	San Lucas Tolimán	3	Marzo	2023-03-03T00:00:00	2024-11-08T13:00:00	3	Temperatura mínima	21.6
110044	7	Sololá	713	San Lucas Tolimán	10	San Lucas Tolimán	3	Marzo	2023-03-03T00:00:00	2024-11-08T13:00:00	5	Humedad	53
110045	7	Sololá	713	San Lucas Tolimán	10	San Lucas Tolimán	3	Marzo	2023-03-03T00:00:00	2024-11-08T13:00:00	6	Velocidad del viento	12.9
110046	7	Sololá	713	San Lucas Tolimán	10	San Lucas Tolimán	3	Marzo	2023-03-03T00:00:00	2024-11-08T13:00:00	7	Dirección del viento	12.87
110047	7	Sololá	713	San Lucas Tolimán	10	San Lucas Tolimán	3	Marzo	2023-03-03T00:00:00	2024-11-08T13:00:00	1	Precipitación	0
110048	7	Sololá	713	San Lucas Tolimán	10	San Lucas Tolimán	3	Marzo	2023-03-03T00:00:00	2024-11-08T13:00:00	8	Radiación solar	1066
110049	7	Sololá	713	San Lucas Tolimán	10	San Lucas Tolimán	3	Marzo	2023-03-03T00:00:00	2024-11-08T14:00:00	2	Temperatura media	22
110050	7	Sololá	713	San Lucas Tolimán	10	San Lucas Tolimán	3	Marzo	2023-03-03T00:00:00	2024-11-08T14:00:00	4	Temperatura máxima	22.6
110051	7	Sololá	713	San Lucas Tolimán	10	San Lucas Tolimán	3	Marzo	2023-03-03T00:00:00	2024-11-08T14:00:00	3	Temperatura mínima	21.8
110052	7	Sololá	713	San Lucas Tolimán	10	San Lucas Tolimán	3	Marzo	2023-03-03T00:00:00	2024-11-08T14:00:00	5	Humedad	54
110053	7	Sololá	713	San Lucas Tolimán	10	San Lucas Tolimán	3	Marzo	2023-03-03T00:00:00	2024-11-08T14:00:00	6	Velocidad del viento	16.1
110054	7	Sololá	713	San Lucas Tolimán	10	San Lucas Tolimán	3	Marzo	2023-03-03T00:00:00	2024-11-08T14:00:00	7	Dirección del viento	16.09
110055	7	Sololá	713	San Lucas Tolimán	10	San Lucas Tolimán	3	Marzo	2023-03-03T00:00:00	2024-11-08T14:00:00	1	Precipitación	0
110056	7	Sololá	713	San Lucas Tolimán	10	San Lucas Tolimán	3	Marzo	2023-03-03T00:00:00	2024-11-08T14:00:00	8	Radiación solar	1009
110057	7	Sololá	713	San Lucas Tolimán	10	San Lucas Tolimán	3	Marzo	2023-03-03T00:00:00	2024-11-08T15:00:00	2	Temperatura media	22.3
110058	7	Sololá	713	San Lucas Tolimán	10	San Lucas Tolimán	3	Marzo	2023-03-03T00:00:00	2024-11-08T15:00:00	4	Temperatura máxima	22.3
110059	7	Sololá	713	San Lucas Tolimán	10	San Lucas Tolimán	3	Marzo	2023-03-03T00:00:00	2024-11-08T15:00:00	3	Temperatura mínima	21.8
110060	7	Sololá	713	San Lucas Tolimán	10	San Lucas Tolimán	3	Marzo	2023-03-03T00:00:00	2024-11-08T15:00:00	5	Humedad	52
110061	7	Sololá	713	San Lucas Tolimán	10	San Lucas Tolimán	3	Marzo	2023-03-03T00:00:00	2024-11-08T15:00:00	6	Velocidad del viento	16.1
110062	7	Sololá	713	San Lucas Tolimán	10	San Lucas Tolimán	3	Marzo	2023-03-03T00:00:00	2024-11-08T15:00:00	7	Dirección del viento	16.09
110063	7	Sololá	713	San Lucas Tolimán	10	San Lucas Tolimán	3	Marzo	2023-03-03T00:00:00	2024-11-08T15:00:00	1	Precipitación	0
110064	7	Sololá	713	San Lucas Tolimán	10	San Lucas Tolimán	3	Marzo	2023-03-03T00:00:00	2024-11-08T15:00:00	8	Radiación solar	860
110065	7	Sololá	713	San Lucas Tolimán	10	San Lucas Tolimán	3	Marzo	2023-03-03T00:00:00	2024-11-08T16:00:00	2	Temperatura media	21.8
110066	7	Sololá	713	San Lucas Tolimán	10	San Lucas Tolimán	3	Marzo	2023-03-03T00:00:00	2024-11-08T16:00:00	4	Temperatura máxima	22.4
110067	7	Sololá	713	San Lucas Tolimán	10	San Lucas Tolimán	3	Marzo	2023-03-03T00:00:00	2024-11-08T16:00:00	3	Temperatura mínima	21.7
110068	7	Sololá	713	San Lucas Tolimán	10	San Lucas Tolimán	3	Marzo	2023-03-03T00:00:00	2024-11-08T16:00:00	5	Humedad	53
110069	7	Sololá	713	San Lucas Tolimán	10	San Lucas Tolimán	3	Marzo	2023-03-03T00:00:00	2024-11-08T16:00:00	6	Velocidad del viento	12.9
110070	7	Sololá	713	San Lucas Tolimán	10	San Lucas Tolimán	3	Marzo	2023-03-03T00:00:00	2024-11-08T16:00:00	7	Dirección del viento	12.87
110071	7	Sololá	713	San Lucas Tolimán	10	San Lucas Tolimán	3	Marzo	2023-03-03T00:00:00	2024-11-08T16:00:00	1	Precipitación	0
110072	7	Sololá	713	San Lucas Tolimán	10	San Lucas Tolimán	3	Marzo	2023-03-03T00:00:00	2024-11-08T16:00:00	8	Radiación solar	636
110073	7	Sololá	713	San Lucas Tolimán	10	San Lucas Tolimán	3	Marzo	2023-03-03T00:00:00	2024-11-08T17:00:00	2	Temperatura media	20.4
110074	7	Sololá	713	San Lucas Tolimán	10	San Lucas Tolimán	3	Marzo	2023-03-03T00:00:00	2024-11-08T17:00:00	4	Temperatura máxima	22.1
110075	7	Sololá	713	San Lucas Tolimán	10	San Lucas Tolimán	3	Marzo	2023-03-03T00:00:00	2024-11-08T17:00:00	3	Temperatura mínima	20.4
110076	7	Sololá	713	San Lucas Tolimán	10	San Lucas Tolimán	3	Marzo	2023-03-03T00:00:00	2024-11-08T17:00:00	5	Humedad	61
110077	7	Sololá	713	San Lucas Tolimán	10	San Lucas Tolimán	3	Marzo	2023-03-03T00:00:00	2024-11-08T17:00:00	6	Velocidad del viento	12.9
110078	7	Sololá	713	San Lucas Tolimán	10	San Lucas Tolimán	3	Marzo	2023-03-03T00:00:00	2024-11-08T17:00:00	7	Dirección del viento	12.87
110079	7	Sololá	713	San Lucas Tolimán	10	San Lucas Tolimán	3	Marzo	2023-03-03T00:00:00	2024-11-08T17:00:00	1	Precipitación	0
110080	7	Sololá	713	San Lucas Tolimán	10	San Lucas Tolimán	3	Marzo	2023-03-03T00:00:00	2024-11-08T17:00:00	8	Radiación solar	390
110081	7	Sololá	713	San Lucas Tolimán	10	San Lucas Tolimán	3	Marzo	2023-03-03T00:00:00	2024-11-08T18:00:00	2	Temperatura media	19.3
110082	7	Sololá	713	San Lucas Tolimán	10	San Lucas Tolimán	3	Marzo	2023-03-03T00:00:00	2024-11-08T18:00:00	4	Temperatura máxima	20.4
110083	7	Sololá	713	San Lucas Tolimán	10	San Lucas Tolimán	3	Marzo	2023-03-03T00:00:00	2024-11-08T18:00:00	3	Temperatura mínima	19.3
110084	7	Sololá	713	San Lucas Tolimán	10	San Lucas Tolimán	3	Marzo	2023-03-03T00:00:00	2024-11-08T18:00:00	5	Humedad	61
110085	7	Sololá	713	San Lucas Tolimán	10	San Lucas Tolimán	3	Marzo	2023-03-03T00:00:00	2024-11-08T18:00:00	6	Velocidad del viento	9.7
110086	7	Sololá	713	San Lucas Tolimán	10	San Lucas Tolimán	3	Marzo	2023-03-03T00:00:00	2024-11-08T18:00:00	7	Dirección del viento	9.66
110087	7	Sololá	713	San Lucas Tolimán	10	San Lucas Tolimán	3	Marzo	2023-03-03T00:00:00	2024-11-08T18:00:00	1	Precipitación	0
110088	7	Sololá	713	San Lucas Tolimán	10	San Lucas Tolimán	3	Marzo	2023-03-03T00:00:00	2024-11-08T18:00:00	8	Radiación solar	73
110089	7	Sololá	713	San Lucas Tolimán	10	San Lucas Tolimán	3	Marzo	2023-03-03T00:00:00	2024-11-08T19:00:00	2	Temperatura media	18.6
110090	7	Sololá	713	San Lucas Tolimán	10	San Lucas Tolimán	3	Marzo	2023-03-03T00:00:00	2024-11-08T19:00:00	4	Temperatura máxima	19.3
110091	7	Sololá	713	San Lucas Tolimán	10	San Lucas Tolimán	3	Marzo	2023-03-03T00:00:00	2024-11-08T19:00:00	3	Temperatura mínima	18.5
110092	7	Sololá	713	San Lucas Tolimán	10	San Lucas Tolimán	3	Marzo	2023-03-03T00:00:00	2024-11-08T19:00:00	5	Humedad	62
110093	7	Sololá	713	San Lucas Tolimán	10	San Lucas Tolimán	3	Marzo	2023-03-03T00:00:00	2024-11-08T19:00:00	6	Velocidad del viento	4.8
110094	7	Sololá	713	San Lucas Tolimán	10	San Lucas Tolimán	3	Marzo	2023-03-03T00:00:00	2024-11-08T19:00:00	7	Dirección del viento	4.83
110095	7	Sololá	713	San Lucas Tolimán	10	San Lucas Tolimán	3	Marzo	2023-03-03T00:00:00	2024-11-08T19:00:00	1	Precipitación	0
110096	7	Sololá	713	San Lucas Tolimán	10	San Lucas Tolimán	3	Marzo	2023-03-03T00:00:00	2024-11-08T19:00:00	8	Radiación solar	0
110097	7	Sololá	713	San Lucas Tolimán	10	San Lucas Tolimán	3	Marzo	2023-03-03T00:00:00	2024-11-08T20:00:00	2	Temperatura media	18.2
110098	7	Sololá	713	San Lucas Tolimán	10	San Lucas Tolimán	3	Marzo	2023-03-03T00:00:00	2024-11-08T20:00:00	4	Temperatura máxima	18.6
110099	7	Sololá	713	San Lucas Tolimán	10	San Lucas Tolimán	3	Marzo	2023-03-03T00:00:00	2024-11-08T20:00:00	3	Temperatura mínima	18.1
110100	7	Sololá	713	San Lucas Tolimán	10	San Lucas Tolimán	3	Marzo	2023-03-03T00:00:00	2024-11-08T20:00:00	5	Humedad	62
110101	7	Sololá	713	San Lucas Tolimán	10	San Lucas Tolimán	3	Marzo	2023-03-03T00:00:00	2024-11-08T20:00:00	6	Velocidad del viento	4.8
110102	7	Sololá	713	San Lucas Tolimán	10	San Lucas Tolimán	3	Marzo	2023-03-03T00:00:00	2024-11-08T20:00:00	7	Dirección del viento	4.83
110103	7	Sololá	713	San Lucas Tolimán	10	San Lucas Tolimán	3	Marzo	2023-03-03T00:00:00	2024-11-08T20:00:00	1	Precipitación	0
110104	7	Sololá	713	San Lucas Tolimán	10	San Lucas Tolimán	3	Marzo	2023-03-03T00:00:00	2024-11-08T20:00:00	8	Radiación solar	0
110105	7	Sololá	713	San Lucas Tolimán	10	San Lucas Tolimán	3	Marzo	2023-03-03T00:00:00	2024-11-08T21:00:00	2	Temperatura media	17.1
110106	7	Sololá	713	San Lucas Tolimán	10	San Lucas Tolimán	3	Marzo	2023-03-03T00:00:00	2024-11-08T21:00:00	4	Temperatura máxima	18.2
110107	7	Sololá	713	San Lucas Tolimán	10	San Lucas Tolimán	3	Marzo	2023-03-03T00:00:00	2024-11-08T21:00:00	3	Temperatura mínima	17.1
110108	7	Sololá	713	San Lucas Tolimán	10	San Lucas Tolimán	3	Marzo	2023-03-03T00:00:00	2024-11-08T21:00:00	5	Humedad	66
110109	7	Sololá	713	San Lucas Tolimán	10	San Lucas Tolimán	3	Marzo	2023-03-03T00:00:00	2024-11-08T21:00:00	6	Velocidad del viento	6.4
110110	7	Sololá	713	San Lucas Tolimán	10	San Lucas Tolimán	3	Marzo	2023-03-03T00:00:00	2024-11-08T21:00:00	7	Dirección del viento	6.44
110111	7	Sololá	713	San Lucas Tolimán	10	San Lucas Tolimán	3	Marzo	2023-03-03T00:00:00	2024-11-08T21:00:00	1	Precipitación	0
110112	7	Sololá	713	San Lucas Tolimán	10	San Lucas Tolimán	3	Marzo	2023-03-03T00:00:00	2024-11-08T21:00:00	8	Radiación solar	0
110113	7	Sololá	713	San Lucas Tolimán	10	San Lucas Tolimán	3	Marzo	2023-03-03T00:00:00	2024-11-08T22:00:00	2	Temperatura media	16.2
110114	7	Sololá	713	San Lucas Tolimán	10	San Lucas Tolimán	3	Marzo	2023-03-03T00:00:00	2024-11-08T22:00:00	4	Temperatura máxima	17.1
110115	7	Sololá	713	San Lucas Tolimán	10	San Lucas Tolimán	3	Marzo	2023-03-03T00:00:00	2024-11-08T22:00:00	3	Temperatura mínima	16.2
110116	7	Sololá	713	San Lucas Tolimán	10	San Lucas Tolimán	3	Marzo	2023-03-03T00:00:00	2024-11-08T22:00:00	5	Humedad	70
110117	7	Sololá	713	San Lucas Tolimán	10	San Lucas Tolimán	3	Marzo	2023-03-03T00:00:00	2024-11-08T22:00:00	6	Velocidad del viento	6.4
110118	7	Sololá	713	San Lucas Tolimán	10	San Lucas Tolimán	3	Marzo	2023-03-03T00:00:00	2024-11-08T22:00:00	7	Dirección del viento	6.44
110119	7	Sololá	713	San Lucas Tolimán	10	San Lucas Tolimán	3	Marzo	2023-03-03T00:00:00	2024-11-08T22:00:00	1	Precipitación	0
110120	7	Sololá	713	San Lucas Tolimán	10	San Lucas Tolimán	3	Marzo	2023-03-03T00:00:00	2024-11-08T22:00:00	8	Radiación solar	0
110121	7	Sololá	713	San Lucas Tolimán	10	San Lucas Tolimán	3	Marzo	2023-03-03T00:00:00	2024-11-08T23:00:00	2	Temperatura media	15.9
110122	7	Sololá	713	San Lucas Tolimán	10	San Lucas Tolimán	3	Marzo	2023-03-03T00:00:00	2024-11-08T23:00:00	4	Temperatura máxima	16.3
110123	7	Sololá	713	San Lucas Tolimán	10	San Lucas Tolimán	3	Marzo	2023-03-03T00:00:00	2024-11-08T23:00:00	3	Temperatura mínima	15.7
110124	7	Sololá	713	San Lucas Tolimán	10	San Lucas Tolimán	3	Marzo	2023-03-03T00:00:00	2024-11-08T23:00:00	5	Humedad	69
110125	7	Sololá	713	San Lucas Tolimán	10	San Lucas Tolimán	3	Marzo	2023-03-03T00:00:00	2024-11-08T23:00:00	6	Velocidad del viento	6.4
110126	7	Sololá	713	San Lucas Tolimán	10	San Lucas Tolimán	3	Marzo	2023-03-03T00:00:00	2024-11-08T23:00:00	7	Dirección del viento	6.44
110127	7	Sololá	713	San Lucas Tolimán	10	San Lucas Tolimán	3	Marzo	2023-03-03T00:00:00	2024-11-08T23:00:00	1	Precipitación	0
110128	7	Sololá	713	San Lucas Tolimán	10	San Lucas Tolimán	3	Marzo	2023-03-03T00:00:00	2024-11-08T23:00:00	8	Radiación solar	0
110129	7	Sololá	713	San Lucas Tolimán	10	San Lucas Tolimán	3	Marzo	2023-04-03T00:00:00	2024-11-08T00:00:00	2	Temperatura media	16.3
110130	7	Sololá	713	San Lucas Tolimán	10	San Lucas Tolimán	3	Marzo	2023-04-03T00:00:00	2024-11-08T00:00:00	4	Temperatura máxima	16.4
110131	7	Sololá	713	San Lucas Tolimán	10	San Lucas Tolimán	3	Marzo	2023-04-03T00:00:00	2024-11-08T00:00:00	3	Temperatura mínima	15.8
110132	7	Sololá	713	San Lucas Tolimán	10	San Lucas Tolimán	3	Marzo	2023-04-03T00:00:00	2024-11-08T00:00:00	5	Humedad	64
110133	7	Sololá	713	San Lucas Tolimán	10	San Lucas Tolimán	3	Marzo	2023-04-03T00:00:00	2024-11-08T00:00:00	6	Velocidad del viento	4.8
110134	7	Sololá	713	San Lucas Tolimán	10	San Lucas Tolimán	3	Marzo	2023-04-03T00:00:00	2024-11-08T00:00:00	7	Dirección del viento	4.83
110135	7	Sololá	713	San Lucas Tolimán	10	San Lucas Tolimán	3	Marzo	2023-04-03T00:00:00	2024-11-08T00:00:00	1	Precipitación	0
110136	7	Sololá	713	San Lucas Tolimán	10	San Lucas Tolimán	3	Marzo	2023-04-03T00:00:00	2024-11-08T00:00:00	8	Radiación solar	0
110137	7	Sololá	713	San Lucas Tolimán	10	San Lucas Tolimán	3	Marzo	2023-04-03T00:00:00	2024-11-08T01:00:00	2	Temperatura media	16.2
110138	7	Sololá	713	San Lucas Tolimán	10	San Lucas Tolimán	3	Marzo	2023-04-03T00:00:00	2024-11-08T01:00:00	4	Temperatura máxima	16.3
110139	7	Sololá	713	San Lucas Tolimán	10	San Lucas Tolimán	3	Marzo	2023-04-03T00:00:00	2024-11-08T01:00:00	3	Temperatura mínima	16.2
110140	7	Sololá	713	San Lucas Tolimán	10	San Lucas Tolimán	3	Marzo	2023-04-03T00:00:00	2024-11-08T01:00:00	5	Humedad	63
110141	7	Sololá	713	San Lucas Tolimán	10	San Lucas Tolimán	3	Marzo	2023-04-03T00:00:00	2024-11-08T01:00:00	6	Velocidad del viento	3.2
110142	7	Sololá	713	San Lucas Tolimán	10	San Lucas Tolimán	3	Marzo	2023-04-03T00:00:00	2024-11-08T01:00:00	7	Dirección del viento	3.22
110143	7	Sololá	713	San Lucas Tolimán	10	San Lucas Tolimán	3	Marzo	2023-04-03T00:00:00	2024-11-08T01:00:00	1	Precipitación	0
110144	7	Sololá	713	San Lucas Tolimán	10	San Lucas Tolimán	3	Marzo	2023-04-03T00:00:00	2024-11-08T01:00:00	8	Radiación solar	0
110145	7	Sololá	713	San Lucas Tolimán	10	San Lucas Tolimán	3	Marzo	2023-04-03T00:00:00	2024-11-08T02:00:00	2	Temperatura media	15.4
110146	7	Sololá	713	San Lucas Tolimán	10	San Lucas Tolimán	3	Marzo	2023-04-03T00:00:00	2024-11-08T02:00:00	4	Temperatura máxima	16.2
110147	7	Sololá	713	San Lucas Tolimán	10	San Lucas Tolimán	3	Marzo	2023-04-03T00:00:00	2024-11-08T02:00:00	3	Temperatura mínima	15.3
110148	7	Sololá	713	San Lucas Tolimán	10	San Lucas Tolimán	3	Marzo	2023-04-03T00:00:00	2024-11-08T02:00:00	5	Humedad	65
110149	7	Sololá	713	San Lucas Tolimán	10	San Lucas Tolimán	3	Marzo	2023-04-03T00:00:00	2024-11-08T02:00:00	6	Velocidad del viento	6.4
110150	7	Sololá	713	San Lucas Tolimán	10	San Lucas Tolimán	3	Marzo	2023-04-03T00:00:00	2024-11-08T02:00:00	7	Dirección del viento	6.44
110151	7	Sololá	713	San Lucas Tolimán	10	San Lucas Tolimán	3	Marzo	2023-04-03T00:00:00	2024-11-08T02:00:00	1	Precipitación	0
110152	7	Sololá	713	San Lucas Tolimán	10	San Lucas Tolimán	3	Marzo	2023-04-03T00:00:00	2024-11-08T02:00:00	8	Radiación solar	0
110153	7	Sololá	713	San Lucas Tolimán	10	San Lucas Tolimán	3	Marzo	2023-04-03T00:00:00	2024-11-08T03:00:00	2	Temperatura media	15.3
110154	7	Sololá	713	San Lucas Tolimán	10	San Lucas Tolimán	3	Marzo	2023-04-03T00:00:00	2024-11-08T03:00:00	4	Temperatura máxima	15.5
110155	7	Sololá	713	San Lucas Tolimán	10	San Lucas Tolimán	3	Marzo	2023-04-03T00:00:00	2024-11-08T03:00:00	3	Temperatura mínima	15.2
110156	7	Sololá	713	San Lucas Tolimán	10	San Lucas Tolimán	3	Marzo	2023-04-03T00:00:00	2024-11-08T03:00:00	5	Humedad	63
110157	7	Sololá	713	San Lucas Tolimán	10	San Lucas Tolimán	3	Marzo	2023-04-03T00:00:00	2024-11-08T03:00:00	6	Velocidad del viento	4.8
110158	7	Sololá	713	San Lucas Tolimán	10	San Lucas Tolimán	3	Marzo	2023-04-03T00:00:00	2024-11-08T03:00:00	7	Dirección del viento	4.83
110159	7	Sololá	713	San Lucas Tolimán	10	San Lucas Tolimán	3	Marzo	2023-04-03T00:00:00	2024-11-08T03:00:00	1	Precipitación	0
110160	7	Sololá	713	San Lucas Tolimán	10	San Lucas Tolimán	3	Marzo	2023-04-03T00:00:00	2024-11-08T03:00:00	8	Radiación solar	0
110161	7	Sololá	713	San Lucas Tolimán	10	San Lucas Tolimán	3	Marzo	2023-04-03T00:00:00	2024-11-08T04:00:00	2	Temperatura media	15.6
110162	7	Sololá	713	San Lucas Tolimán	10	San Lucas Tolimán	3	Marzo	2023-04-03T00:00:00	2024-11-08T04:00:00	4	Temperatura máxima	15.8
110163	7	Sololá	713	San Lucas Tolimán	10	San Lucas Tolimán	3	Marzo	2023-04-03T00:00:00	2024-11-08T04:00:00	3	Temperatura mínima	15.3
110164	7	Sololá	713	San Lucas Tolimán	10	San Lucas Tolimán	3	Marzo	2023-04-03T00:00:00	2024-11-08T04:00:00	5	Humedad	62
110165	7	Sololá	713	San Lucas Tolimán	10	San Lucas Tolimán	3	Marzo	2023-04-03T00:00:00	2024-11-08T04:00:00	6	Velocidad del viento	4.8
110166	7	Sololá	713	San Lucas Tolimán	10	San Lucas Tolimán	3	Marzo	2023-04-03T00:00:00	2024-11-08T04:00:00	7	Dirección del viento	4.83
110167	7	Sololá	713	San Lucas Tolimán	10	San Lucas Tolimán	3	Marzo	2023-04-03T00:00:00	2024-11-08T04:00:00	1	Precipitación	0
110168	7	Sololá	713	San Lucas Tolimán	10	San Lucas Tolimán	3	Marzo	2023-04-03T00:00:00	2024-11-08T04:00:00	8	Radiación solar	0
110169	7	Sololá	713	San Lucas Tolimán	10	San Lucas Tolimán	3	Marzo	2023-04-03T00:00:00	2024-11-08T05:00:00	2	Temperatura media	15.8
110170	7	Sololá	713	San Lucas Tolimán	10	San Lucas Tolimán	3	Marzo	2023-04-03T00:00:00	2024-11-08T05:00:00	4	Temperatura máxima	15.8
110171	7	Sololá	713	San Lucas Tolimán	10	San Lucas Tolimán	3	Marzo	2023-04-03T00:00:00	2024-11-08T05:00:00	3	Temperatura mínima	15.6
110172	7	Sololá	713	San Lucas Tolimán	10	San Lucas Tolimán	3	Marzo	2023-04-03T00:00:00	2024-11-08T05:00:00	5	Humedad	63
110173	7	Sololá	713	San Lucas Tolimán	10	San Lucas Tolimán	3	Marzo	2023-04-03T00:00:00	2024-11-08T05:00:00	6	Velocidad del viento	4.8
110174	7	Sololá	713	San Lucas Tolimán	10	San Lucas Tolimán	3	Marzo	2023-04-03T00:00:00	2024-11-08T05:00:00	7	Dirección del viento	4.83
110175	7	Sololá	713	San Lucas Tolimán	10	San Lucas Tolimán	3	Marzo	2023-04-03T00:00:00	2024-11-08T05:00:00	1	Precipitación	0
110176	7	Sololá	713	San Lucas Tolimán	10	San Lucas Tolimán	3	Marzo	2023-04-03T00:00:00	2024-11-08T05:00:00	8	Radiación solar	0
110177	7	Sololá	713	San Lucas Tolimán	10	San Lucas Tolimán	3	Marzo	2023-04-03T00:00:00	2024-11-08T06:00:00	2	Temperatura media	15.3
110178	7	Sololá	713	San Lucas Tolimán	10	San Lucas Tolimán	3	Marzo	2023-04-03T00:00:00	2024-11-08T06:00:00	4	Temperatura máxima	15.8
110179	7	Sololá	713	San Lucas Tolimán	10	San Lucas Tolimán	3	Marzo	2023-04-03T00:00:00	2024-11-08T06:00:00	3	Temperatura mínima	15.3
110180	7	Sololá	713	San Lucas Tolimán	10	San Lucas Tolimán	3	Marzo	2023-04-03T00:00:00	2024-11-08T06:00:00	5	Humedad	63
110181	7	Sololá	713	San Lucas Tolimán	10	San Lucas Tolimán	3	Marzo	2023-04-03T00:00:00	2024-11-08T06:00:00	6	Velocidad del viento	1.6
110182	7	Sololá	713	San Lucas Tolimán	10	San Lucas Tolimán	3	Marzo	2023-04-03T00:00:00	2024-11-08T06:00:00	7	Dirección del viento	1.61
110183	7	Sololá	713	San Lucas Tolimán	10	San Lucas Tolimán	3	Marzo	2023-04-03T00:00:00	2024-11-08T06:00:00	1	Precipitación	0
110184	7	Sololá	713	San Lucas Tolimán	10	San Lucas Tolimán	3	Marzo	2023-04-03T00:00:00	2024-11-08T06:00:00	8	Radiación solar	0
110185	7	Sololá	713	San Lucas Tolimán	10	San Lucas Tolimán	3	Marzo	2023-04-03T00:00:00	2024-11-08T07:00:00	2	Temperatura media	15.2
110186	7	Sololá	713	San Lucas Tolimán	10	San Lucas Tolimán	3	Marzo	2023-04-03T00:00:00	2024-11-08T07:00:00	4	Temperatura máxima	15.3
110187	7	Sololá	713	San Lucas Tolimán	10	San Lucas Tolimán	3	Marzo	2023-04-03T00:00:00	2024-11-08T07:00:00	3	Temperatura mínima	15
110188	7	Sololá	713	San Lucas Tolimán	10	San Lucas Tolimán	3	Marzo	2023-04-03T00:00:00	2024-11-08T07:00:00	5	Humedad	65
110189	7	Sololá	713	San Lucas Tolimán	10	San Lucas Tolimán	3	Marzo	2023-04-03T00:00:00	2024-11-08T07:00:00	6	Velocidad del viento	1.6
110190	7	Sololá	713	San Lucas Tolimán	10	San Lucas Tolimán	3	Marzo	2023-04-03T00:00:00	2024-11-08T07:00:00	7	Dirección del viento	1.61
110191	7	Sololá	713	San Lucas Tolimán	10	San Lucas Tolimán	3	Marzo	2023-04-03T00:00:00	2024-11-08T07:00:00	1	Precipitación	0
110192	7	Sololá	713	San Lucas Tolimán	10	San Lucas Tolimán	3	Marzo	2023-04-03T00:00:00	2024-11-08T07:00:00	8	Radiación solar	11
110193	7	Sololá	713	San Lucas Tolimán	10	San Lucas Tolimán	3	Marzo	2023-04-03T00:00:00	2024-11-08T08:00:00	2	Temperatura media	17.2
110194	7	Sololá	713	San Lucas Tolimán	10	San Lucas Tolimán	3	Marzo	2023-04-03T00:00:00	2024-11-08T08:00:00	4	Temperatura máxima	17.2
110195	7	Sololá	713	San Lucas Tolimán	10	San Lucas Tolimán	3	Marzo	2023-04-03T00:00:00	2024-11-08T08:00:00	3	Temperatura mínima	15.2
110196	7	Sololá	713	San Lucas Tolimán	10	San Lucas Tolimán	3	Marzo	2023-04-03T00:00:00	2024-11-08T08:00:00	5	Humedad	62
110197	7	Sololá	713	San Lucas Tolimán	10	San Lucas Tolimán	3	Marzo	2023-04-03T00:00:00	2024-11-08T08:00:00	6	Velocidad del viento	4.8
110198	7	Sololá	713	San Lucas Tolimán	10	San Lucas Tolimán	3	Marzo	2023-04-03T00:00:00	2024-11-08T08:00:00	7	Dirección del viento	4.83
110199	7	Sololá	713	San Lucas Tolimán	10	San Lucas Tolimán	3	Marzo	2023-04-03T00:00:00	2024-11-08T08:00:00	1	Precipitación	0
110200	7	Sololá	713	San Lucas Tolimán	10	San Lucas Tolimán	3	Marzo	2023-04-03T00:00:00	2024-11-08T08:00:00	8	Radiación solar	131
110201	7	Sololá	713	San Lucas Tolimán	10	San Lucas Tolimán	3	Marzo	2023-04-03T00:00:00	2024-11-08T09:00:00	2	Temperatura media	19.6
110202	7	Sololá	713	San Lucas Tolimán	10	San Lucas Tolimán	3	Marzo	2023-04-03T00:00:00	2024-11-08T09:00:00	4	Temperatura máxima	19.6
110203	7	Sololá	713	San Lucas Tolimán	10	San Lucas Tolimán	3	Marzo	2023-04-03T00:00:00	2024-11-08T09:00:00	3	Temperatura mínima	17.2
110204	7	Sololá	713	San Lucas Tolimán	10	San Lucas Tolimán	3	Marzo	2023-04-03T00:00:00	2024-11-08T09:00:00	5	Humedad	56
110205	7	Sololá	713	San Lucas Tolimán	10	San Lucas Tolimán	3	Marzo	2023-04-03T00:00:00	2024-11-08T09:00:00	6	Velocidad del viento	6.4
110206	7	Sololá	713	San Lucas Tolimán	10	San Lucas Tolimán	3	Marzo	2023-04-03T00:00:00	2024-11-08T09:00:00	7	Dirección del viento	6.44
110207	7	Sololá	713	San Lucas Tolimán	10	San Lucas Tolimán	3	Marzo	2023-04-03T00:00:00	2024-11-08T09:00:00	1	Precipitación	0
110208	7	Sololá	713	San Lucas Tolimán	10	San Lucas Tolimán	3	Marzo	2023-04-03T00:00:00	2024-11-08T09:00:00	8	Radiación solar	455
110209	7	Sololá	713	San Lucas Tolimán	10	San Lucas Tolimán	3	Marzo	2023-04-03T00:00:00	2024-11-08T10:00:00	2	Temperatura media	22.9
110210	7	Sololá	713	San Lucas Tolimán	10	San Lucas Tolimán	3	Marzo	2023-04-03T00:00:00	2024-11-08T10:00:00	4	Temperatura máxima	23.1
110211	7	Sololá	713	San Lucas Tolimán	10	San Lucas Tolimán	3	Marzo	2023-04-03T00:00:00	2024-11-08T10:00:00	3	Temperatura mínima	19.6
110212	7	Sololá	713	San Lucas Tolimán	10	San Lucas Tolimán	3	Marzo	2023-04-03T00:00:00	2024-11-08T10:00:00	5	Humedad	51
110213	7	Sololá	713	San Lucas Tolimán	10	San Lucas Tolimán	3	Marzo	2023-04-03T00:00:00	2024-11-08T10:00:00	6	Velocidad del viento	4.8
110214	7	Sololá	713	San Lucas Tolimán	10	San Lucas Tolimán	3	Marzo	2023-04-03T00:00:00	2024-11-08T10:00:00	7	Dirección del viento	4.83
110215	7	Sololá	713	San Lucas Tolimán	10	San Lucas Tolimán	3	Marzo	2023-04-03T00:00:00	2024-11-08T10:00:00	1	Precipitación	0
110216	7	Sololá	713	San Lucas Tolimán	10	San Lucas Tolimán	3	Marzo	2023-04-03T00:00:00	2024-11-08T10:00:00	8	Radiación solar	699
110217	7	Sololá	713	San Lucas Tolimán	10	San Lucas Tolimán	3	Marzo	2023-04-03T00:00:00	2024-11-08T11:00:00	2	Temperatura media	22.4
110218	7	Sololá	713	San Lucas Tolimán	10	San Lucas Tolimán	3	Marzo	2023-04-03T00:00:00	2024-11-08T11:00:00	4	Temperatura máxima	22.9
110219	7	Sololá	713	San Lucas Tolimán	10	San Lucas Tolimán	3	Marzo	2023-04-03T00:00:00	2024-11-08T11:00:00	3	Temperatura mínima	21.9
110220	7	Sololá	713	San Lucas Tolimán	10	San Lucas Tolimán	3	Marzo	2023-04-03T00:00:00	2024-11-08T11:00:00	5	Humedad	52
110221	7	Sololá	713	San Lucas Tolimán	10	San Lucas Tolimán	3	Marzo	2023-04-03T00:00:00	2024-11-08T11:00:00	6	Velocidad del viento	11.3
110222	7	Sololá	713	San Lucas Tolimán	10	San Lucas Tolimán	3	Marzo	2023-04-03T00:00:00	2024-11-08T11:00:00	7	Dirección del viento	11.27
110223	7	Sololá	713	San Lucas Tolimán	10	San Lucas Tolimán	3	Marzo	2023-04-03T00:00:00	2024-11-08T11:00:00	1	Precipitación	0
110224	7	Sololá	713	San Lucas Tolimán	10	San Lucas Tolimán	3	Marzo	2023-04-03T00:00:00	2024-11-08T11:00:00	8	Radiación solar	851
110225	7	Sololá	713	San Lucas Tolimán	10	San Lucas Tolimán	3	Marzo	2023-04-03T00:00:00	2024-11-08T12:00:00	2	Temperatura media	22.9
110226	7	Sololá	713	San Lucas Tolimán	10	San Lucas Tolimán	3	Marzo	2023-04-03T00:00:00	2024-11-08T12:00:00	4	Temperatura máxima	23
110227	7	Sololá	713	San Lucas Tolimán	10	San Lucas Tolimán	3	Marzo	2023-04-03T00:00:00	2024-11-08T12:00:00	3	Temperatura mínima	22.1
110228	7	Sololá	713	San Lucas Tolimán	10	San Lucas Tolimán	3	Marzo	2023-04-03T00:00:00	2024-11-08T12:00:00	5	Humedad	51
110229	7	Sololá	713	San Lucas Tolimán	10	San Lucas Tolimán	3	Marzo	2023-04-03T00:00:00	2024-11-08T12:00:00	6	Velocidad del viento	14.5
110230	7	Sololá	713	San Lucas Tolimán	10	San Lucas Tolimán	3	Marzo	2023-04-03T00:00:00	2024-11-08T12:00:00	7	Dirección del viento	14.48
110231	7	Sololá	713	San Lucas Tolimán	10	San Lucas Tolimán	3	Marzo	2023-04-03T00:00:00	2024-11-08T12:00:00	1	Precipitación	0
110232	7	Sololá	713	San Lucas Tolimán	10	San Lucas Tolimán	3	Marzo	2023-04-03T00:00:00	2024-11-08T12:00:00	8	Radiación solar	1010
110233	7	Sololá	713	San Lucas Tolimán	10	San Lucas Tolimán	3	Marzo	2023-04-03T00:00:00	2024-11-08T13:00:00	2	Temperatura media	22.7
110234	7	Sololá	713	San Lucas Tolimán	10	San Lucas Tolimán	3	Marzo	2023-04-03T00:00:00	2024-11-08T13:00:00	4	Temperatura máxima	23.2
110235	7	Sololá	713	San Lucas Tolimán	10	San Lucas Tolimán	3	Marzo	2023-04-03T00:00:00	2024-11-08T13:00:00	3	Temperatura mínima	22.4
110236	7	Sololá	713	San Lucas Tolimán	10	San Lucas Tolimán	3	Marzo	2023-04-03T00:00:00	2024-11-08T13:00:00	5	Humedad	53
110237	7	Sololá	713	San Lucas Tolimán	10	San Lucas Tolimán	3	Marzo	2023-04-03T00:00:00	2024-11-08T13:00:00	6	Velocidad del viento	16.1
110238	7	Sololá	713	San Lucas Tolimán	10	San Lucas Tolimán	3	Marzo	2023-04-03T00:00:00	2024-11-08T13:00:00	7	Dirección del viento	16.09
110239	7	Sololá	713	San Lucas Tolimán	10	San Lucas Tolimán	3	Marzo	2023-04-03T00:00:00	2024-11-08T13:00:00	1	Precipitación	0
110240	7	Sololá	713	San Lucas Tolimán	10	San Lucas Tolimán	3	Marzo	2023-04-03T00:00:00	2024-11-08T13:00:00	8	Radiación solar	1042
110241	7	Sololá	713	San Lucas Tolimán	10	San Lucas Tolimán	3	Marzo	2023-04-03T00:00:00	2024-11-08T14:00:00	2	Temperatura media	23.9
110242	7	Sololá	713	San Lucas Tolimán	10	San Lucas Tolimán	3	Marzo	2023-04-03T00:00:00	2024-11-08T14:00:00	4	Temperatura máxima	23.9
110243	7	Sololá	713	San Lucas Tolimán	10	San Lucas Tolimán	3	Marzo	2023-04-03T00:00:00	2024-11-08T14:00:00	3	Temperatura mínima	22.7
110244	7	Sololá	713	San Lucas Tolimán	10	San Lucas Tolimán	3	Marzo	2023-04-03T00:00:00	2024-11-08T14:00:00	5	Humedad	51
110245	7	Sololá	713	San Lucas Tolimán	10	San Lucas Tolimán	3	Marzo	2023-04-03T00:00:00	2024-11-08T14:00:00	6	Velocidad del viento	14.5
110246	7	Sololá	713	San Lucas Tolimán	10	San Lucas Tolimán	3	Marzo	2023-04-03T00:00:00	2024-11-08T14:00:00	7	Dirección del viento	14.48
110247	7	Sololá	713	San Lucas Tolimán	10	San Lucas Tolimán	3	Marzo	2023-04-03T00:00:00	2024-11-08T14:00:00	1	Precipitación	0
110248	7	Sololá	713	San Lucas Tolimán	10	San Lucas Tolimán	3	Marzo	2023-04-03T00:00:00	2024-11-08T14:00:00	8	Radiación solar	992
110249	7	Sololá	713	San Lucas Tolimán	10	San Lucas Tolimán	3	Marzo	2023-04-03T00:00:00	2024-11-08T15:00:00	2	Temperatura media	23.2
110250	7	Sololá	713	San Lucas Tolimán	10	San Lucas Tolimán	3	Marzo	2023-04-03T00:00:00	2024-11-08T15:00:00	4	Temperatura máxima	24.1
110251	7	Sololá	713	San Lucas Tolimán	10	San Lucas Tolimán	3	Marzo	2023-04-03T00:00:00	2024-11-08T15:00:00	3	Temperatura mínima	23.2
110252	7	Sololá	713	San Lucas Tolimán	10	San Lucas Tolimán	3	Marzo	2023-04-03T00:00:00	2024-11-08T15:00:00	5	Humedad	53
110253	7	Sololá	713	San Lucas Tolimán	10	San Lucas Tolimán	3	Marzo	2023-04-03T00:00:00	2024-11-08T15:00:00	6	Velocidad del viento	14.5
110254	7	Sololá	713	San Lucas Tolimán	10	San Lucas Tolimán	3	Marzo	2023-04-03T00:00:00	2024-11-08T15:00:00	7	Dirección del viento	14.48
110255	7	Sololá	713	San Lucas Tolimán	10	San Lucas Tolimán	3	Marzo	2023-04-03T00:00:00	2024-11-08T15:00:00	1	Precipitación	0
110256	7	Sololá	713	San Lucas Tolimán	10	San Lucas Tolimán	3	Marzo	2023-04-03T00:00:00	2024-11-08T15:00:00	8	Radiación solar	841
110257	7	Sololá	713	San Lucas Tolimán	10	San Lucas Tolimán	3	Marzo	2023-04-03T00:00:00	2024-11-08T16:00:00	2	Temperatura media	22.8
110258	7	Sololá	713	San Lucas Tolimán	10	San Lucas Tolimán	3	Marzo	2023-04-03T00:00:00	2024-11-08T16:00:00	4	Temperatura máxima	23.7
110259	7	Sololá	713	San Lucas Tolimán	10	San Lucas Tolimán	3	Marzo	2023-04-03T00:00:00	2024-11-08T16:00:00	3	Temperatura mínima	22.6
110260	7	Sololá	713	San Lucas Tolimán	10	San Lucas Tolimán	3	Marzo	2023-04-03T00:00:00	2024-11-08T16:00:00	5	Humedad	54
110261	7	Sololá	713	San Lucas Tolimán	10	San Lucas Tolimán	3	Marzo	2023-04-03T00:00:00	2024-11-08T16:00:00	6	Velocidad del viento	11.3
110262	7	Sololá	713	San Lucas Tolimán	10	San Lucas Tolimán	3	Marzo	2023-04-03T00:00:00	2024-11-08T16:00:00	7	Dirección del viento	11.27
110263	7	Sololá	713	San Lucas Tolimán	10	San Lucas Tolimán	3	Marzo	2023-04-03T00:00:00	2024-11-08T16:00:00	1	Precipitación	0
110264	7	Sololá	713	San Lucas Tolimán	10	San Lucas Tolimán	3	Marzo	2023-04-03T00:00:00	2024-11-08T16:00:00	8	Radiación solar	501
110265	7	Sololá	713	San Lucas Tolimán	10	San Lucas Tolimán	3	Marzo	2023-04-03T00:00:00	2024-11-08T17:00:00	2	Temperatura media	21.3
110266	7	Sololá	713	San Lucas Tolimán	10	San Lucas Tolimán	3	Marzo	2023-04-03T00:00:00	2024-11-08T17:00:00	4	Temperatura máxima	22.9
110267	7	Sololá	713	San Lucas Tolimán	10	San Lucas Tolimán	3	Marzo	2023-04-03T00:00:00	2024-11-08T17:00:00	3	Temperatura mínima	21.3
110268	7	Sololá	713	San Lucas Tolimán	10	San Lucas Tolimán	3	Marzo	2023-04-03T00:00:00	2024-11-08T17:00:00	5	Humedad	60
110269	7	Sololá	713	San Lucas Tolimán	10	San Lucas Tolimán	3	Marzo	2023-04-03T00:00:00	2024-11-08T17:00:00	6	Velocidad del viento	9.7
110270	7	Sololá	713	San Lucas Tolimán	10	San Lucas Tolimán	3	Marzo	2023-04-03T00:00:00	2024-11-08T17:00:00	7	Dirección del viento	9.66
110271	7	Sololá	713	San Lucas Tolimán	10	San Lucas Tolimán	3	Marzo	2023-04-03T00:00:00	2024-11-08T17:00:00	1	Precipitación	0
110272	7	Sololá	713	San Lucas Tolimán	10	San Lucas Tolimán	3	Marzo	2023-04-03T00:00:00	2024-11-08T17:00:00	8	Radiación solar	213
110273	7	Sololá	713	San Lucas Tolimán	10	San Lucas Tolimán	3	Marzo	2023-04-03T00:00:00	2024-11-08T18:00:00	2	Temperatura media	19.8
110274	7	Sololá	713	San Lucas Tolimán	10	San Lucas Tolimán	3	Marzo	2023-04-03T00:00:00	2024-11-08T18:00:00	4	Temperatura máxima	21.3
110275	7	Sololá	713	San Lucas Tolimán	10	San Lucas Tolimán	3	Marzo	2023-04-03T00:00:00	2024-11-08T18:00:00	3	Temperatura mínima	19.8
110276	7	Sololá	713	San Lucas Tolimán	10	San Lucas Tolimán	3	Marzo	2023-04-03T00:00:00	2024-11-08T18:00:00	5	Humedad	65
110277	7	Sololá	713	San Lucas Tolimán	10	San Lucas Tolimán	3	Marzo	2023-04-03T00:00:00	2024-11-08T18:00:00	6	Velocidad del viento	6.4
110278	7	Sololá	713	San Lucas Tolimán	10	San Lucas Tolimán	3	Marzo	2023-04-03T00:00:00	2024-11-08T18:00:00	7	Dirección del viento	6.44
110279	7	Sololá	713	San Lucas Tolimán	10	San Lucas Tolimán	3	Marzo	2023-04-03T00:00:00	2024-11-08T18:00:00	1	Precipitación	0
110280	7	Sololá	713	San Lucas Tolimán	10	San Lucas Tolimán	3	Marzo	2023-04-03T00:00:00	2024-11-08T18:00:00	8	Radiación solar	68
110281	7	Sololá	713	San Lucas Tolimán	10	San Lucas Tolimán	3	Marzo	2023-04-03T00:00:00	2024-11-08T19:00:00	2	Temperatura media	18.4
110282	7	Sololá	713	San Lucas Tolimán	10	San Lucas Tolimán	3	Marzo	2023-04-03T00:00:00	2024-11-08T19:00:00	4	Temperatura máxima	19.8
110283	7	Sololá	713	San Lucas Tolimán	10	San Lucas Tolimán	3	Marzo	2023-04-03T00:00:00	2024-11-08T19:00:00	3	Temperatura mínima	18.4
110284	7	Sololá	713	San Lucas Tolimán	10	San Lucas Tolimán	3	Marzo	2023-04-03T00:00:00	2024-11-08T19:00:00	5	Humedad	64
110285	7	Sololá	713	San Lucas Tolimán	10	San Lucas Tolimán	3	Marzo	2023-04-03T00:00:00	2024-11-08T19:00:00	6	Velocidad del viento	4.8
110286	7	Sololá	713	San Lucas Tolimán	10	San Lucas Tolimán	3	Marzo	2023-04-03T00:00:00	2024-11-08T19:00:00	7	Dirección del viento	4.83
110287	7	Sololá	713	San Lucas Tolimán	10	San Lucas Tolimán	3	Marzo	2023-04-03T00:00:00	2024-11-08T19:00:00	1	Precipitación	0
110288	7	Sololá	713	San Lucas Tolimán	10	San Lucas Tolimán	3	Marzo	2023-04-03T00:00:00	2024-11-08T19:00:00	8	Radiación solar	0
110289	7	Sololá	713	San Lucas Tolimán	10	San Lucas Tolimán	3	Marzo	2023-04-03T00:00:00	2024-11-08T20:00:00	2	Temperatura media	18.5
110290	7	Sololá	713	San Lucas Tolimán	10	San Lucas Tolimán	3	Marzo	2023-04-03T00:00:00	2024-11-08T20:00:00	4	Temperatura máxima	18.7
110291	7	Sololá	713	San Lucas Tolimán	10	San Lucas Tolimán	3	Marzo	2023-04-03T00:00:00	2024-11-08T20:00:00	3	Temperatura mínima	18.4
110292	7	Sololá	713	San Lucas Tolimán	10	San Lucas Tolimán	3	Marzo	2023-04-03T00:00:00	2024-11-08T20:00:00	5	Humedad	63
110293	7	Sololá	713	San Lucas Tolimán	10	San Lucas Tolimán	3	Marzo	2023-04-03T00:00:00	2024-11-08T20:00:00	6	Velocidad del viento	1.6
110294	7	Sololá	713	San Lucas Tolimán	10	San Lucas Tolimán	3	Marzo	2023-04-03T00:00:00	2024-11-08T20:00:00	7	Dirección del viento	1.61
110295	7	Sololá	713	San Lucas Tolimán	10	San Lucas Tolimán	3	Marzo	2023-04-03T00:00:00	2024-11-08T20:00:00	1	Precipitación	0
110296	7	Sololá	713	San Lucas Tolimán	10	San Lucas Tolimán	3	Marzo	2023-04-03T00:00:00	2024-11-08T20:00:00	8	Radiación solar	0
110297	7	Sololá	713	San Lucas Tolimán	10	San Lucas Tolimán	3	Marzo	2023-04-03T00:00:00	2024-11-08T21:00:00	2	Temperatura media	18.8
110298	7	Sololá	713	San Lucas Tolimán	10	San Lucas Tolimán	3	Marzo	2023-04-03T00:00:00	2024-11-08T21:00:00	4	Temperatura máxima	18.8
110299	7	Sololá	713	San Lucas Tolimán	10	San Lucas Tolimán	3	Marzo	2023-04-03T00:00:00	2024-11-08T21:00:00	3	Temperatura mínima	17.9
110300	7	Sololá	713	San Lucas Tolimán	10	San Lucas Tolimán	3	Marzo	2023-04-03T00:00:00	2024-11-08T21:00:00	5	Humedad	62
110301	7	Sololá	713	San Lucas Tolimán	10	San Lucas Tolimán	3	Marzo	2023-04-03T00:00:00	2024-11-08T21:00:00	6	Velocidad del viento	1.6
110302	7	Sololá	713	San Lucas Tolimán	10	San Lucas Tolimán	3	Marzo	2023-04-03T00:00:00	2024-11-08T21:00:00	7	Dirección del viento	1.61
110303	7	Sololá	713	San Lucas Tolimán	10	San Lucas Tolimán	3	Marzo	2023-04-03T00:00:00	2024-11-08T21:00:00	1	Precipitación	0
110304	7	Sololá	713	San Lucas Tolimán	10	San Lucas Tolimán	3	Marzo	2023-04-03T00:00:00	2024-11-08T21:00:00	8	Radiación solar	0
110305	7	Sololá	713	San Lucas Tolimán	10	San Lucas Tolimán	3	Marzo	2023-04-03T00:00:00	2024-11-08T22:00:00	2	Temperatura media	18.7
110306	7	Sololá	713	San Lucas Tolimán	10	San Lucas Tolimán	3	Marzo	2023-04-03T00:00:00	2024-11-08T22:00:00	4	Temperatura máxima	19
110307	7	Sololá	713	San Lucas Tolimán	10	San Lucas Tolimán	3	Marzo	2023-04-03T00:00:00	2024-11-08T22:00:00	3	Temperatura mínima	18.3
110308	7	Sololá	713	San Lucas Tolimán	10	San Lucas Tolimán	3	Marzo	2023-04-03T00:00:00	2024-11-08T22:00:00	5	Humedad	62
110309	7	Sololá	713	San Lucas Tolimán	10	San Lucas Tolimán	3	Marzo	2023-04-03T00:00:00	2024-11-08T22:00:00	6	Velocidad del viento	1.6
110310	7	Sololá	713	San Lucas Tolimán	10	San Lucas Tolimán	3	Marzo	2023-04-03T00:00:00	2024-11-08T22:00:00	7	Dirección del viento	1.61
110311	7	Sololá	713	San Lucas Tolimán	10	San Lucas Tolimán	3	Marzo	2023-04-03T00:00:00	2024-11-08T22:00:00	1	Precipitación	0
110312	7	Sololá	713	San Lucas Tolimán	10	San Lucas Tolimán	3	Marzo	2023-04-03T00:00:00	2024-11-08T22:00:00	8	Radiación solar	0
110313	7	Sololá	713	San Lucas Tolimán	10	San Lucas Tolimán	3	Marzo	2023-04-03T00:00:00	2024-11-08T23:00:00	2	Temperatura media	18.5
110314	7	Sololá	713	San Lucas Tolimán	10	San Lucas Tolimán	3	Marzo	2023-04-03T00:00:00	2024-11-08T23:00:00	4	Temperatura máxima	18.7
110315	7	Sololá	713	San Lucas Tolimán	10	San Lucas Tolimán	3	Marzo	2023-04-03T00:00:00	2024-11-08T23:00:00	3	Temperatura mínima	18.1
110316	7	Sololá	713	San Lucas Tolimán	10	San Lucas Tolimán	3	Marzo	2023-04-03T00:00:00	2024-11-08T23:00:00	5	Humedad	59
110317	7	Sololá	713	San Lucas Tolimán	10	San Lucas Tolimán	3	Marzo	2023-04-03T00:00:00	2024-11-08T23:00:00	6	Velocidad del viento	3.2
110318	7	Sololá	713	San Lucas Tolimán	10	San Lucas Tolimán	3	Marzo	2023-04-03T00:00:00	2024-11-08T23:00:00	7	Dirección del viento	3.22
110319	7	Sololá	713	San Lucas Tolimán	10	San Lucas Tolimán	3	Marzo	2023-04-03T00:00:00	2024-11-08T23:00:00	1	Precipitación	0
110320	7	Sololá	713	San Lucas Tolimán	10	San Lucas Tolimán	3	Marzo	2023-04-03T00:00:00	2024-11-08T23:00:00	8	Radiación solar	0
110321	7	Sololá	713	San Lucas Tolimán	10	San Lucas Tolimán	3	Marzo	2023-05-03T00:00:00	2024-11-08T00:00:00	2	Temperatura media	17.2
110322	7	Sololá	713	San Lucas Tolimán	10	San Lucas Tolimán	3	Marzo	2023-05-03T00:00:00	2024-11-08T00:00:00	4	Temperatura máxima	18.7
110323	7	Sololá	713	San Lucas Tolimán	10	San Lucas Tolimán	3	Marzo	2023-05-03T00:00:00	2024-11-08T00:00:00	3	Temperatura mínima	17.2
110324	7	Sololá	713	San Lucas Tolimán	10	San Lucas Tolimán	3	Marzo	2023-05-03T00:00:00	2024-11-08T00:00:00	5	Humedad	65
110325	7	Sololá	713	San Lucas Tolimán	10	San Lucas Tolimán	3	Marzo	2023-05-03T00:00:00	2024-11-08T00:00:00	6	Velocidad del viento	3.2
110326	7	Sololá	713	San Lucas Tolimán	10	San Lucas Tolimán	3	Marzo	2023-05-03T00:00:00	2024-11-08T00:00:00	7	Dirección del viento	3.22
110327	7	Sololá	713	San Lucas Tolimán	10	San Lucas Tolimán	3	Marzo	2023-05-03T00:00:00	2024-11-08T00:00:00	1	Precipitación	0
110328	7	Sololá	713	San Lucas Tolimán	10	San Lucas Tolimán	3	Marzo	2023-05-03T00:00:00	2024-11-08T00:00:00	8	Radiación solar	0
110329	7	Sololá	713	San Lucas Tolimán	10	San Lucas Tolimán	3	Marzo	2023-05-03T00:00:00	2024-11-08T01:00:00	2	Temperatura media	17.6
110330	7	Sololá	713	San Lucas Tolimán	10	San Lucas Tolimán	3	Marzo	2023-05-03T00:00:00	2024-11-08T01:00:00	4	Temperatura máxima	17.6
110331	7	Sololá	713	San Lucas Tolimán	10	San Lucas Tolimán	3	Marzo	2023-05-03T00:00:00	2024-11-08T01:00:00	3	Temperatura mínima	17
110332	7	Sololá	713	San Lucas Tolimán	10	San Lucas Tolimán	3	Marzo	2023-05-03T00:00:00	2024-11-08T01:00:00	5	Humedad	61
110333	7	Sololá	713	San Lucas Tolimán	10	San Lucas Tolimán	3	Marzo	2023-05-03T00:00:00	2024-11-08T01:00:00	6	Velocidad del viento	3.2
110334	7	Sololá	713	San Lucas Tolimán	10	San Lucas Tolimán	3	Marzo	2023-05-03T00:00:00	2024-11-08T01:00:00	7	Dirección del viento	3.22
110335	7	Sololá	713	San Lucas Tolimán	10	San Lucas Tolimán	3	Marzo	2023-05-03T00:00:00	2024-11-08T01:00:00	1	Precipitación	0
110336	7	Sololá	713	San Lucas Tolimán	10	San Lucas Tolimán	3	Marzo	2023-05-03T00:00:00	2024-11-08T01:00:00	8	Radiación solar	0
110337	7	Sololá	713	San Lucas Tolimán	10	San Lucas Tolimán	3	Marzo	2023-05-03T00:00:00	2024-11-08T02:00:00	2	Temperatura media	17.4
110338	7	Sololá	713	San Lucas Tolimán	10	San Lucas Tolimán	3	Marzo	2023-05-03T00:00:00	2024-11-08T02:00:00	4	Temperatura máxima	17.7
110339	7	Sololá	713	San Lucas Tolimán	10	San Lucas Tolimán	3	Marzo	2023-05-03T00:00:00	2024-11-08T02:00:00	3	Temperatura mínima	17.4
110340	7	Sololá	713	San Lucas Tolimán	10	San Lucas Tolimán	3	Marzo	2023-05-03T00:00:00	2024-11-08T02:00:00	5	Humedad	61
110341	7	Sololá	713	San Lucas Tolimán	10	San Lucas Tolimán	3	Marzo	2023-05-03T00:00:00	2024-11-08T02:00:00	6	Velocidad del viento	0
110342	7	Sololá	713	San Lucas Tolimán	10	San Lucas Tolimán	3	Marzo	2023-05-03T00:00:00	2024-11-08T02:00:00	7	Dirección del viento	0
110343	7	Sololá	713	San Lucas Tolimán	10	San Lucas Tolimán	3	Marzo	2023-05-03T00:00:00	2024-11-08T02:00:00	1	Precipitación	0
110344	7	Sololá	713	San Lucas Tolimán	10	San Lucas Tolimán	3	Marzo	2023-05-03T00:00:00	2024-11-08T02:00:00	8	Radiación solar	0
110345	7	Sololá	713	San Lucas Tolimán	10	San Lucas Tolimán	3	Marzo	2023-05-03T00:00:00	2024-11-08T03:00:00	2	Temperatura media	15.6
110346	7	Sololá	713	San Lucas Tolimán	10	San Lucas Tolimán	3	Marzo	2023-05-03T00:00:00	2024-11-08T03:00:00	4	Temperatura máxima	17.5
110347	7	Sololá	713	San Lucas Tolimán	10	San Lucas Tolimán	3	Marzo	2023-05-03T00:00:00	2024-11-08T03:00:00	3	Temperatura mínima	15.6
110348	7	Sololá	713	San Lucas Tolimán	10	San Lucas Tolimán	3	Marzo	2023-05-03T00:00:00	2024-11-08T03:00:00	5	Humedad	63
110349	7	Sololá	713	San Lucas Tolimán	10	San Lucas Tolimán	3	Marzo	2023-05-03T00:00:00	2024-11-08T03:00:00	6	Velocidad del viento	3.2
110350	7	Sololá	713	San Lucas Tolimán	10	San Lucas Tolimán	3	Marzo	2023-05-03T00:00:00	2024-11-08T03:00:00	7	Dirección del viento	3.22
110351	7	Sololá	713	San Lucas Tolimán	10	San Lucas Tolimán	3	Marzo	2023-05-03T00:00:00	2024-11-08T03:00:00	1	Precipitación	0
110352	7	Sololá	713	San Lucas Tolimán	10	San Lucas Tolimán	3	Marzo	2023-05-03T00:00:00	2024-11-08T03:00:00	8	Radiación solar	0
110353	7	Sololá	713	San Lucas Tolimán	10	San Lucas Tolimán	3	Marzo	2023-05-03T00:00:00	2024-11-08T04:00:00	2	Temperatura media	15.6
110354	7	Sololá	713	San Lucas Tolimán	10	San Lucas Tolimán	3	Marzo	2023-05-03T00:00:00	2024-11-08T04:00:00	4	Temperatura máxima	15.8
110355	7	Sololá	713	San Lucas Tolimán	10	San Lucas Tolimán	3	Marzo	2023-05-03T00:00:00	2024-11-08T04:00:00	3	Temperatura mínima	15.4
110356	7	Sololá	713	San Lucas Tolimán	10	San Lucas Tolimán	3	Marzo	2023-05-03T00:00:00	2024-11-08T04:00:00	5	Humedad	65
110357	7	Sololá	713	San Lucas Tolimán	10	San Lucas Tolimán	3	Marzo	2023-05-03T00:00:00	2024-11-08T04:00:00	6	Velocidad del viento	4.8
110358	7	Sololá	713	San Lucas Tolimán	10	San Lucas Tolimán	3	Marzo	2023-05-03T00:00:00	2024-11-08T04:00:00	7	Dirección del viento	4.83
110359	7	Sololá	713	San Lucas Tolimán	10	San Lucas Tolimán	3	Marzo	2023-05-03T00:00:00	2024-11-08T04:00:00	1	Precipitación	0
110360	7	Sololá	713	San Lucas Tolimán	10	San Lucas Tolimán	3	Marzo	2023-05-03T00:00:00	2024-11-08T04:00:00	8	Radiación solar	0
110361	7	Sololá	713	San Lucas Tolimán	10	San Lucas Tolimán	3	Marzo	2023-05-03T00:00:00	2024-11-08T05:00:00	2	Temperatura media	15.6
110362	7	Sololá	713	San Lucas Tolimán	10	San Lucas Tolimán	3	Marzo	2023-05-03T00:00:00	2024-11-08T05:00:00	4	Temperatura máxima	15.6
110363	7	Sololá	713	San Lucas Tolimán	10	San Lucas Tolimán	3	Marzo	2023-05-03T00:00:00	2024-11-08T05:00:00	3	Temperatura mínima	15.3
110364	7	Sololá	713	San Lucas Tolimán	10	San Lucas Tolimán	3	Marzo	2023-05-03T00:00:00	2024-11-08T05:00:00	5	Humedad	62
110365	7	Sololá	713	San Lucas Tolimán	10	San Lucas Tolimán	3	Marzo	2023-05-03T00:00:00	2024-11-08T05:00:00	6	Velocidad del viento	1.6
110366	7	Sololá	713	San Lucas Tolimán	10	San Lucas Tolimán	3	Marzo	2023-05-03T00:00:00	2024-11-08T05:00:00	7	Dirección del viento	1.61
110367	7	Sololá	713	San Lucas Tolimán	10	San Lucas Tolimán	3	Marzo	2023-05-03T00:00:00	2024-11-08T05:00:00	1	Precipitación	0
110368	7	Sololá	713	San Lucas Tolimán	10	San Lucas Tolimán	3	Marzo	2023-05-03T00:00:00	2024-11-08T05:00:00	8	Radiación solar	0
110369	7	Sololá	713	San Lucas Tolimán	10	San Lucas Tolimán	3	Marzo	2023-05-03T00:00:00	2024-11-08T06:00:00	2	Temperatura media	16.6
110370	7	Sololá	713	San Lucas Tolimán	10	San Lucas Tolimán	3	Marzo	2023-05-03T00:00:00	2024-11-08T06:00:00	4	Temperatura máxima	16.6
110371	7	Sololá	713	San Lucas Tolimán	10	San Lucas Tolimán	3	Marzo	2023-05-03T00:00:00	2024-11-08T06:00:00	3	Temperatura mínima	15.6
110372	7	Sololá	713	San Lucas Tolimán	10	San Lucas Tolimán	3	Marzo	2023-05-03T00:00:00	2024-11-08T06:00:00	5	Humedad	61
110373	7	Sololá	713	San Lucas Tolimán	10	San Lucas Tolimán	3	Marzo	2023-05-03T00:00:00	2024-11-08T06:00:00	6	Velocidad del viento	0
110374	7	Sololá	713	San Lucas Tolimán	10	San Lucas Tolimán	3	Marzo	2023-05-03T00:00:00	2024-11-08T06:00:00	7	Dirección del viento	0
110375	7	Sololá	713	San Lucas Tolimán	10	San Lucas Tolimán	3	Marzo	2023-05-03T00:00:00	2024-11-08T06:00:00	1	Precipitación	0
110376	7	Sololá	713	San Lucas Tolimán	10	San Lucas Tolimán	3	Marzo	2023-05-03T00:00:00	2024-11-08T06:00:00	8	Radiación solar	0
110377	7	Sololá	713	San Lucas Tolimán	10	San Lucas Tolimán	3	Marzo	2023-05-03T00:00:00	2024-11-08T07:00:00	2	Temperatura media	16.7
110378	7	Sololá	713	San Lucas Tolimán	10	San Lucas Tolimán	3	Marzo	2023-05-03T00:00:00	2024-11-08T07:00:00	4	Temperatura máxima	16.9
110379	7	Sololá	713	San Lucas Tolimán	10	San Lucas Tolimán	3	Marzo	2023-05-03T00:00:00	2024-11-08T07:00:00	3	Temperatura mínima	16.4
110380	7	Sololá	713	San Lucas Tolimán	10	San Lucas Tolimán	3	Marzo	2023-05-03T00:00:00	2024-11-08T07:00:00	5	Humedad	59
110381	7	Sololá	713	San Lucas Tolimán	10	San Lucas Tolimán	3	Marzo	2023-05-03T00:00:00	2024-11-08T07:00:00	6	Velocidad del viento	3.2
110382	7	Sololá	713	San Lucas Tolimán	10	San Lucas Tolimán	3	Marzo	2023-05-03T00:00:00	2024-11-08T07:00:00	7	Dirección del viento	3.22
110383	7	Sololá	713	San Lucas Tolimán	10	San Lucas Tolimán	3	Marzo	2023-05-03T00:00:00	2024-11-08T07:00:00	1	Precipitación	0
110384	7	Sololá	713	San Lucas Tolimán	10	San Lucas Tolimán	3	Marzo	2023-05-03T00:00:00	2024-11-08T07:00:00	8	Radiación solar	13
110385	7	Sololá	713	San Lucas Tolimán	10	San Lucas Tolimán	3	Marzo	2023-05-03T00:00:00	2024-11-08T08:00:00	2	Temperatura media	19.1
110386	7	Sololá	713	San Lucas Tolimán	10	San Lucas Tolimán	3	Marzo	2023-05-03T00:00:00	2024-11-08T08:00:00	4	Temperatura máxima	19.1
110387	7	Sololá	713	San Lucas Tolimán	10	San Lucas Tolimán	3	Marzo	2023-05-03T00:00:00	2024-11-08T08:00:00	3	Temperatura mínima	16.6
110388	7	Sololá	713	San Lucas Tolimán	10	San Lucas Tolimán	3	Marzo	2023-05-03T00:00:00	2024-11-08T08:00:00	5	Humedad	55
110389	7	Sololá	713	San Lucas Tolimán	10	San Lucas Tolimán	3	Marzo	2023-05-03T00:00:00	2024-11-08T08:00:00	6	Velocidad del viento	4.8
110390	7	Sololá	713	San Lucas Tolimán	10	San Lucas Tolimán	3	Marzo	2023-05-03T00:00:00	2024-11-08T08:00:00	7	Dirección del viento	4.83
110391	7	Sololá	713	San Lucas Tolimán	10	San Lucas Tolimán	3	Marzo	2023-05-03T00:00:00	2024-11-08T08:00:00	1	Precipitación	0
110392	7	Sololá	713	San Lucas Tolimán	10	San Lucas Tolimán	3	Marzo	2023-05-03T00:00:00	2024-11-08T08:00:00	8	Radiación solar	140
110393	7	Sololá	713	San Lucas Tolimán	10	San Lucas Tolimán	3	Marzo	2023-05-03T00:00:00	2024-11-08T09:00:00	2	Temperatura media	21.1
110394	7	Sololá	713	San Lucas Tolimán	10	San Lucas Tolimán	3	Marzo	2023-05-03T00:00:00	2024-11-08T09:00:00	4	Temperatura máxima	21.1
110395	7	Sololá	713	San Lucas Tolimán	10	San Lucas Tolimán	3	Marzo	2023-05-03T00:00:00	2024-11-08T09:00:00	3	Temperatura mínima	19.1
110396	7	Sololá	713	San Lucas Tolimán	10	San Lucas Tolimán	3	Marzo	2023-05-03T00:00:00	2024-11-08T09:00:00	5	Humedad	50
110397	7	Sololá	713	San Lucas Tolimán	10	San Lucas Tolimán	3	Marzo	2023-05-03T00:00:00	2024-11-08T09:00:00	6	Velocidad del viento	6.4
110398	7	Sololá	713	San Lucas Tolimán	10	San Lucas Tolimán	3	Marzo	2023-05-03T00:00:00	2024-11-08T09:00:00	7	Dirección del viento	6.44
110399	7	Sololá	713	San Lucas Tolimán	10	San Lucas Tolimán	3	Marzo	2023-05-03T00:00:00	2024-11-08T09:00:00	1	Precipitación	0
110400	7	Sololá	713	San Lucas Tolimán	10	San Lucas Tolimán	3	Marzo	2023-05-03T00:00:00	2024-11-08T09:00:00	8	Radiación solar	481
110401	7	Sololá	713	San Lucas Tolimán	10	San Lucas Tolimán	3	Marzo	2023-05-03T00:00:00	2024-11-08T10:00:00	2	Temperatura media	23.4
110402	7	Sololá	713	San Lucas Tolimán	10	San Lucas Tolimán	3	Marzo	2023-05-03T00:00:00	2024-11-08T10:00:00	4	Temperatura máxima	23.4
110403	7	Sololá	713	San Lucas Tolimán	10	San Lucas Tolimán	3	Marzo	2023-05-03T00:00:00	2024-11-08T10:00:00	3	Temperatura mínima	20.8
110404	7	Sololá	713	San Lucas Tolimán	10	San Lucas Tolimán	3	Marzo	2023-05-03T00:00:00	2024-11-08T10:00:00	5	Humedad	52
110405	7	Sololá	713	San Lucas Tolimán	10	San Lucas Tolimán	3	Marzo	2023-05-03T00:00:00	2024-11-08T10:00:00	6	Velocidad del viento	4.8
110406	7	Sololá	713	San Lucas Tolimán	10	San Lucas Tolimán	3	Marzo	2023-05-03T00:00:00	2024-11-08T10:00:00	7	Dirección del viento	4.83
110407	7	Sololá	713	San Lucas Tolimán	10	San Lucas Tolimán	3	Marzo	2023-05-03T00:00:00	2024-11-08T10:00:00	1	Precipitación	0
110408	7	Sololá	713	San Lucas Tolimán	10	San Lucas Tolimán	3	Marzo	2023-05-03T00:00:00	2024-11-08T10:00:00	8	Radiación solar	718
110409	7	Sololá	713	San Lucas Tolimán	10	San Lucas Tolimán	3	Marzo	2023-05-03T00:00:00	2024-11-08T11:00:00	2	Temperatura media	24.1
110410	7	Sololá	713	San Lucas Tolimán	10	San Lucas Tolimán	3	Marzo	2023-05-03T00:00:00	2024-11-08T11:00:00	4	Temperatura máxima	24.1
110411	7	Sololá	713	San Lucas Tolimán	10	San Lucas Tolimán	3	Marzo	2023-05-03T00:00:00	2024-11-08T11:00:00	3	Temperatura mínima	23.4
110412	7	Sololá	713	San Lucas Tolimán	10	San Lucas Tolimán	3	Marzo	2023-05-03T00:00:00	2024-11-08T11:00:00	5	Humedad	52
110413	7	Sololá	713	San Lucas Tolimán	10	San Lucas Tolimán	3	Marzo	2023-05-03T00:00:00	2024-11-08T11:00:00	6	Velocidad del viento	9.7
110414	7	Sololá	713	San Lucas Tolimán	10	San Lucas Tolimán	3	Marzo	2023-05-03T00:00:00	2024-11-08T11:00:00	7	Dirección del viento	9.66
110415	7	Sololá	713	San Lucas Tolimán	10	San Lucas Tolimán	3	Marzo	2023-05-03T00:00:00	2024-11-08T11:00:00	1	Precipitación	0
110416	7	Sololá	713	San Lucas Tolimán	10	San Lucas Tolimán	3	Marzo	2023-05-03T00:00:00	2024-11-08T11:00:00	8	Radiación solar	895
110417	7	Sololá	713	San Lucas Tolimán	10	San Lucas Tolimán	3	Marzo	2023-05-03T00:00:00	2024-11-08T12:00:00	2	Temperatura media	23.8
110418	7	Sololá	713	San Lucas Tolimán	10	San Lucas Tolimán	3	Marzo	2023-05-03T00:00:00	2024-11-08T12:00:00	4	Temperatura máxima	24.5
110419	7	Sololá	713	San Lucas Tolimán	10	San Lucas Tolimán	3	Marzo	2023-05-03T00:00:00	2024-11-08T12:00:00	3	Temperatura mínima	23.7
110420	7	Sololá	713	San Lucas Tolimán	10	San Lucas Tolimán	3	Marzo	2023-05-03T00:00:00	2024-11-08T12:00:00	5	Humedad	56
110421	7	Sololá	713	San Lucas Tolimán	10	San Lucas Tolimán	3	Marzo	2023-05-03T00:00:00	2024-11-08T12:00:00	6	Velocidad del viento	11.3
110422	7	Sololá	713	San Lucas Tolimán	10	San Lucas Tolimán	3	Marzo	2023-05-03T00:00:00	2024-11-08T12:00:00	7	Dirección del viento	11.27
110423	7	Sololá	713	San Lucas Tolimán	10	San Lucas Tolimán	3	Marzo	2023-05-03T00:00:00	2024-11-08T12:00:00	1	Precipitación	0
110424	7	Sololá	713	San Lucas Tolimán	10	San Lucas Tolimán	3	Marzo	2023-05-03T00:00:00	2024-11-08T12:00:00	8	Radiación solar	997
110425	7	Sololá	713	San Lucas Tolimán	10	San Lucas Tolimán	3	Marzo	2023-05-03T00:00:00	2024-11-08T13:00:00	2	Temperatura media	23.8
110426	7	Sololá	713	San Lucas Tolimán	10	San Lucas Tolimán	3	Marzo	2023-05-03T00:00:00	2024-11-08T13:00:00	4	Temperatura máxima	23.8
110427	7	Sololá	713	San Lucas Tolimán	10	San Lucas Tolimán	3	Marzo	2023-05-03T00:00:00	2024-11-08T13:00:00	3	Temperatura mínima	23.2
110428	7	Sololá	713	San Lucas Tolimán	10	San Lucas Tolimán	3	Marzo	2023-05-03T00:00:00	2024-11-08T13:00:00	5	Humedad	56
110429	7	Sololá	713	San Lucas Tolimán	10	San Lucas Tolimán	3	Marzo	2023-05-03T00:00:00	2024-11-08T13:00:00	6	Velocidad del viento	16.1
110430	7	Sololá	713	San Lucas Tolimán	10	San Lucas Tolimán	3	Marzo	2023-05-03T00:00:00	2024-11-08T13:00:00	7	Dirección del viento	16.09
110431	7	Sololá	713	San Lucas Tolimán	10	San Lucas Tolimán	3	Marzo	2023-05-03T00:00:00	2024-11-08T13:00:00	1	Precipitación	0
110432	7	Sololá	713	San Lucas Tolimán	10	San Lucas Tolimán	3	Marzo	2023-05-03T00:00:00	2024-11-08T13:00:00	8	Radiación solar	1045
110433	7	Sololá	713	San Lucas Tolimán	10	San Lucas Tolimán	3	Marzo	2023-05-03T00:00:00	2024-11-08T14:00:00	2	Temperatura media	24
110434	7	Sololá	713	San Lucas Tolimán	10	San Lucas Tolimán	3	Marzo	2023-05-03T00:00:00	2024-11-08T14:00:00	4	Temperatura máxima	24.6
110435	7	Sololá	713	San Lucas Tolimán	10	San Lucas Tolimán	3	Marzo	2023-05-03T00:00:00	2024-11-08T14:00:00	3	Temperatura mínima	23.4
110436	7	Sololá	713	San Lucas Tolimán	10	San Lucas Tolimán	3	Marzo	2023-05-03T00:00:00	2024-11-08T14:00:00	5	Humedad	56
110437	7	Sololá	713	San Lucas Tolimán	10	San Lucas Tolimán	3	Marzo	2023-05-03T00:00:00	2024-11-08T14:00:00	6	Velocidad del viento	14.5
110438	7	Sololá	713	San Lucas Tolimán	10	San Lucas Tolimán	3	Marzo	2023-05-03T00:00:00	2024-11-08T14:00:00	7	Dirección del viento	14.48
110439	7	Sololá	713	San Lucas Tolimán	10	San Lucas Tolimán	3	Marzo	2023-05-03T00:00:00	2024-11-08T14:00:00	1	Precipitación	0
110440	7	Sololá	713	San Lucas Tolimán	10	San Lucas Tolimán	3	Marzo	2023-05-03T00:00:00	2024-11-08T14:00:00	8	Radiación solar	1002
110441	7	Sololá	713	San Lucas Tolimán	10	San Lucas Tolimán	3	Marzo	2023-05-03T00:00:00	2024-11-08T15:00:00	2	Temperatura media	22.7
110442	7	Sololá	713	San Lucas Tolimán	10	San Lucas Tolimán	3	Marzo	2023-05-03T00:00:00	2024-11-08T15:00:00	4	Temperatura máxima	23.9
110443	7	Sololá	713	San Lucas Tolimán	10	San Lucas Tolimán	3	Marzo	2023-05-03T00:00:00	2024-11-08T15:00:00	3	Temperatura mínima	22.2
110444	7	Sololá	713	San Lucas Tolimán	10	San Lucas Tolimán	3	Marzo	2023-05-03T00:00:00	2024-11-08T15:00:00	5	Humedad	60
110445	7	Sololá	713	San Lucas Tolimán	10	San Lucas Tolimán	3	Marzo	2023-05-03T00:00:00	2024-11-08T15:00:00	6	Velocidad del viento	12.9
110446	7	Sololá	713	San Lucas Tolimán	10	San Lucas Tolimán	3	Marzo	2023-05-03T00:00:00	2024-11-08T15:00:00	7	Dirección del viento	12.87
110447	7	Sololá	713	San Lucas Tolimán	10	San Lucas Tolimán	3	Marzo	2023-05-03T00:00:00	2024-11-08T15:00:00	1	Precipitación	0
110448	7	Sololá	713	San Lucas Tolimán	10	San Lucas Tolimán	3	Marzo	2023-05-03T00:00:00	2024-11-08T15:00:00	8	Radiación solar	582
110449	7	Sololá	713	San Lucas Tolimán	10	San Lucas Tolimán	3	Marzo	2023-05-03T00:00:00	2024-11-08T16:00:00	2	Temperatura media	22.6
110450	7	Sololá	713	San Lucas Tolimán	10	San Lucas Tolimán	3	Marzo	2023-05-03T00:00:00	2024-11-08T16:00:00	4	Temperatura máxima	22.9
110451	7	Sololá	713	San Lucas Tolimán	10	San Lucas Tolimán	3	Marzo	2023-05-03T00:00:00	2024-11-08T16:00:00	3	Temperatura mínima	22.4
110452	7	Sololá	713	San Lucas Tolimán	10	San Lucas Tolimán	3	Marzo	2023-05-03T00:00:00	2024-11-08T16:00:00	5	Humedad	60
110453	7	Sololá	713	San Lucas Tolimán	10	San Lucas Tolimán	3	Marzo	2023-05-03T00:00:00	2024-11-08T16:00:00	6	Velocidad del viento	9.7
110454	7	Sololá	713	San Lucas Tolimán	10	San Lucas Tolimán	3	Marzo	2023-05-03T00:00:00	2024-11-08T16:00:00	7	Dirección del viento	9.66
110455	7	Sololá	713	San Lucas Tolimán	10	San Lucas Tolimán	3	Marzo	2023-05-03T00:00:00	2024-11-08T16:00:00	1	Precipitación	0
110456	7	Sololá	713	San Lucas Tolimán	10	San Lucas Tolimán	3	Marzo	2023-05-03T00:00:00	2024-11-08T16:00:00	8	Radiación solar	555
110457	7	Sololá	713	San Lucas Tolimán	10	San Lucas Tolimán	3	Marzo	2023-05-03T00:00:00	2024-11-08T17:00:00	2	Temperatura media	19.9
110458	7	Sololá	713	San Lucas Tolimán	10	San Lucas Tolimán	3	Marzo	2023-05-03T00:00:00	2024-11-08T17:00:00	4	Temperatura máxima	22.6
110459	7	Sololá	713	San Lucas Tolimán	10	San Lucas Tolimán	3	Marzo	2023-05-03T00:00:00	2024-11-08T17:00:00	3	Temperatura mínima	19.9
110460	7	Sololá	713	San Lucas Tolimán	10	San Lucas Tolimán	3	Marzo	2023-05-03T00:00:00	2024-11-08T17:00:00	5	Humedad	65
110461	7	Sololá	713	San Lucas Tolimán	10	San Lucas Tolimán	3	Marzo	2023-05-03T00:00:00	2024-11-08T17:00:00	6	Velocidad del viento	11.3
110462	7	Sololá	713	San Lucas Tolimán	10	San Lucas Tolimán	3	Marzo	2023-05-03T00:00:00	2024-11-08T17:00:00	7	Dirección del viento	11.27
110463	7	Sololá	713	San Lucas Tolimán	10	San Lucas Tolimán	3	Marzo	2023-05-03T00:00:00	2024-11-08T17:00:00	1	Precipitación	0
110464	7	Sololá	713	San Lucas Tolimán	10	San Lucas Tolimán	3	Marzo	2023-05-03T00:00:00	2024-11-08T17:00:00	8	Radiación solar	220
110465	7	Sololá	713	San Lucas Tolimán	10	San Lucas Tolimán	3	Marzo	2023-05-03T00:00:00	2024-11-08T18:00:00	2	Temperatura media	18.6
110466	7	Sololá	713	San Lucas Tolimán	10	San Lucas Tolimán	3	Marzo	2023-05-03T00:00:00	2024-11-08T18:00:00	4	Temperatura máxima	19.9
110467	7	Sololá	713	San Lucas Tolimán	10	San Lucas Tolimán	3	Marzo	2023-05-03T00:00:00	2024-11-08T18:00:00	3	Temperatura mínima	18.6
110468	7	Sololá	713	San Lucas Tolimán	10	San Lucas Tolimán	3	Marzo	2023-05-03T00:00:00	2024-11-08T18:00:00	5	Humedad	61
110469	7	Sololá	713	San Lucas Tolimán	10	San Lucas Tolimán	3	Marzo	2023-05-03T00:00:00	2024-11-08T18:00:00	6	Velocidad del viento	12.9
110470	7	Sololá	713	San Lucas Tolimán	10	San Lucas Tolimán	3	Marzo	2023-05-03T00:00:00	2024-11-08T18:00:00	7	Dirección del viento	12.87
110471	7	Sololá	713	San Lucas Tolimán	10	San Lucas Tolimán	3	Marzo	2023-05-03T00:00:00	2024-11-08T18:00:00	1	Precipitación	0
110472	7	Sololá	713	San Lucas Tolimán	10	San Lucas Tolimán	3	Marzo	2023-05-03T00:00:00	2024-11-08T18:00:00	8	Radiación solar	29
110473	7	Sololá	713	San Lucas Tolimán	10	San Lucas Tolimán	3	Marzo	2023-05-03T00:00:00	2024-11-08T19:00:00	2	Temperatura media	17.6
110474	7	Sololá	713	San Lucas Tolimán	10	San Lucas Tolimán	3	Marzo	2023-05-03T00:00:00	2024-11-08T19:00:00	4	Temperatura máxima	18.6
110475	7	Sololá	713	San Lucas Tolimán	10	San Lucas Tolimán	3	Marzo	2023-05-03T00:00:00	2024-11-08T19:00:00	3	Temperatura mínima	17.6
110476	7	Sololá	713	San Lucas Tolimán	10	San Lucas Tolimán	3	Marzo	2023-05-03T00:00:00	2024-11-08T19:00:00	5	Humedad	62
110477	7	Sololá	713	San Lucas Tolimán	10	San Lucas Tolimán	3	Marzo	2023-05-03T00:00:00	2024-11-08T19:00:00	6	Velocidad del viento	9.7
110478	7	Sololá	713	San Lucas Tolimán	10	San Lucas Tolimán	3	Marzo	2023-05-03T00:00:00	2024-11-08T19:00:00	7	Dirección del viento	9.66
110479	7	Sololá	713	San Lucas Tolimán	10	San Lucas Tolimán	3	Marzo	2023-05-03T00:00:00	2024-11-08T19:00:00	1	Precipitación	0
110480	7	Sololá	713	San Lucas Tolimán	10	San Lucas Tolimán	3	Marzo	2023-05-03T00:00:00	2024-11-08T19:00:00	8	Radiación solar	0
110481	7	Sololá	713	San Lucas Tolimán	10	San Lucas Tolimán	3	Marzo	2023-05-03T00:00:00	2024-11-08T20:00:00	2	Temperatura media	17.1
110482	7	Sololá	713	San Lucas Tolimán	10	San Lucas Tolimán	3	Marzo	2023-05-03T00:00:00	2024-11-08T20:00:00	4	Temperatura máxima	17.6
110483	7	Sololá	713	San Lucas Tolimán	10	San Lucas Tolimán	3	Marzo	2023-05-03T00:00:00	2024-11-08T20:00:00	3	Temperatura mínima	17.1
110484	7	Sololá	713	San Lucas Tolimán	10	San Lucas Tolimán	3	Marzo	2023-05-03T00:00:00	2024-11-08T20:00:00	5	Humedad	63
110485	7	Sololá	713	San Lucas Tolimán	10	San Lucas Tolimán	3	Marzo	2023-05-03T00:00:00	2024-11-08T20:00:00	6	Velocidad del viento	9.7
110486	7	Sololá	713	San Lucas Tolimán	10	San Lucas Tolimán	3	Marzo	2023-05-03T00:00:00	2024-11-08T20:00:00	7	Dirección del viento	9.66
110487	7	Sololá	713	San Lucas Tolimán	10	San Lucas Tolimán	3	Marzo	2023-05-03T00:00:00	2024-11-08T20:00:00	1	Precipitación	0
110488	7	Sololá	713	San Lucas Tolimán	10	San Lucas Tolimán	3	Marzo	2023-05-03T00:00:00	2024-11-08T20:00:00	8	Radiación solar	0
110489	7	Sololá	713	San Lucas Tolimán	10	San Lucas Tolimán	3	Marzo	2023-05-03T00:00:00	2024-11-08T21:00:00	2	Temperatura media	16.6
110490	7	Sololá	713	San Lucas Tolimán	10	San Lucas Tolimán	3	Marzo	2023-05-03T00:00:00	2024-11-08T21:00:00	4	Temperatura máxima	17.2
110491	7	Sololá	713	San Lucas Tolimán	10	San Lucas Tolimán	3	Marzo	2023-05-03T00:00:00	2024-11-08T21:00:00	3	Temperatura mínima	16.6
110492	7	Sololá	713	San Lucas Tolimán	10	San Lucas Tolimán	3	Marzo	2023-05-03T00:00:00	2024-11-08T21:00:00	5	Humedad	64
110493	7	Sololá	713	San Lucas Tolimán	10	San Lucas Tolimán	3	Marzo	2023-05-03T00:00:00	2024-11-08T21:00:00	6	Velocidad del viento	4.8
110494	7	Sololá	713	San Lucas Tolimán	10	San Lucas Tolimán	3	Marzo	2023-05-03T00:00:00	2024-11-08T21:00:00	7	Dirección del viento	4.83
110495	7	Sololá	713	San Lucas Tolimán	10	San Lucas Tolimán	3	Marzo	2023-05-03T00:00:00	2024-11-08T21:00:00	1	Precipitación	0
110496	7	Sololá	713	San Lucas Tolimán	10	San Lucas Tolimán	3	Marzo	2023-05-03T00:00:00	2024-11-08T21:00:00	8	Radiación solar	0
110497	7	Sololá	713	San Lucas Tolimán	10	San Lucas Tolimán	3	Marzo	2023-05-03T00:00:00	2024-11-08T22:00:00	2	Temperatura media	16.2
110498	7	Sololá	713	San Lucas Tolimán	10	San Lucas Tolimán	3	Marzo	2023-05-03T00:00:00	2024-11-08T22:00:00	4	Temperatura máxima	16.6
110499	7	Sololá	713	San Lucas Tolimán	10	San Lucas Tolimán	3	Marzo	2023-05-03T00:00:00	2024-11-08T22:00:00	3	Temperatura mínima	16.2
110500	7	Sololá	713	San Lucas Tolimán	10	San Lucas Tolimán	3	Marzo	2023-05-03T00:00:00	2024-11-08T22:00:00	5	Humedad	64
110501	7	Sololá	713	San Lucas Tolimán	10	San Lucas Tolimán	3	Marzo	2023-05-03T00:00:00	2024-11-08T22:00:00	6	Velocidad del viento	6.4
110502	7	Sololá	713	San Lucas Tolimán	10	San Lucas Tolimán	3	Marzo	2023-05-03T00:00:00	2024-11-08T22:00:00	7	Dirección del viento	6.44
110503	7	Sololá	713	San Lucas Tolimán	10	San Lucas Tolimán	3	Marzo	2023-05-03T00:00:00	2024-11-08T22:00:00	1	Precipitación	0
110504	7	Sololá	713	San Lucas Tolimán	10	San Lucas Tolimán	3	Marzo	2023-05-03T00:00:00	2024-11-08T22:00:00	8	Radiación solar	0
110505	7	Sololá	713	San Lucas Tolimán	10	San Lucas Tolimán	3	Marzo	2023-05-03T00:00:00	2024-11-08T23:00:00	2	Temperatura media	15.8
110506	7	Sololá	713	San Lucas Tolimán	10	San Lucas Tolimán	3	Marzo	2023-05-03T00:00:00	2024-11-08T23:00:00	4	Temperatura máxima	16.3
110507	7	Sololá	713	San Lucas Tolimán	10	San Lucas Tolimán	3	Marzo	2023-05-03T00:00:00	2024-11-08T23:00:00	3	Temperatura mínima	15.8
110508	7	Sololá	713	San Lucas Tolimán	10	San Lucas Tolimán	3	Marzo	2023-05-03T00:00:00	2024-11-08T23:00:00	5	Humedad	66
110509	7	Sololá	713	San Lucas Tolimán	10	San Lucas Tolimán	3	Marzo	2023-05-03T00:00:00	2024-11-08T23:00:00	6	Velocidad del viento	4.8
110510	7	Sololá	713	San Lucas Tolimán	10	San Lucas Tolimán	3	Marzo	2023-05-03T00:00:00	2024-11-08T23:00:00	7	Dirección del viento	4.83
110511	7	Sololá	713	San Lucas Tolimán	10	San Lucas Tolimán	3	Marzo	2023-05-03T00:00:00	2024-11-08T23:00:00	1	Precipitación	0
110512	7	Sololá	713	San Lucas Tolimán	10	San Lucas Tolimán	3	Marzo	2023-05-03T00:00:00	2024-11-08T23:00:00	8	Radiación solar	0
110513	7	Sololá	713	San Lucas Tolimán	10	San Lucas Tolimán	3	Marzo	2023-06-03T00:00:00	2024-11-08T00:00:00	2	Temperatura media	16.7
110514	7	Sololá	713	San Lucas Tolimán	10	San Lucas Tolimán	3	Marzo	2023-06-03T00:00:00	2024-11-08T00:00:00	4	Temperatura máxima	16.7
110515	7	Sololá	713	San Lucas Tolimán	10	San Lucas Tolimán	3	Marzo	2023-06-03T00:00:00	2024-11-08T00:00:00	3	Temperatura mínima	15.7
110516	7	Sololá	713	San Lucas Tolimán	10	San Lucas Tolimán	3	Marzo	2023-06-03T00:00:00	2024-11-08T00:00:00	5	Humedad	59
110517	7	Sololá	713	San Lucas Tolimán	10	San Lucas Tolimán	3	Marzo	2023-06-03T00:00:00	2024-11-08T00:00:00	6	Velocidad del viento	0
110518	7	Sololá	713	San Lucas Tolimán	10	San Lucas Tolimán	3	Marzo	2023-06-03T00:00:00	2024-11-08T00:00:00	7	Dirección del viento	0
110519	7	Sololá	713	San Lucas Tolimán	10	San Lucas Tolimán	3	Marzo	2023-06-03T00:00:00	2024-11-08T00:00:00	1	Precipitación	0
110520	7	Sololá	713	San Lucas Tolimán	10	San Lucas Tolimán	3	Marzo	2023-06-03T00:00:00	2024-11-08T00:00:00	8	Radiación solar	0
110521	7	Sololá	713	San Lucas Tolimán	10	San Lucas Tolimán	3	Marzo	2023-06-03T00:00:00	2024-11-08T01:00:00	2	Temperatura media	16.4
110522	7	Sololá	713	San Lucas Tolimán	10	San Lucas Tolimán	3	Marzo	2023-06-03T00:00:00	2024-11-08T01:00:00	4	Temperatura máxima	16.8
110523	7	Sololá	713	San Lucas Tolimán	10	San Lucas Tolimán	3	Marzo	2023-06-03T00:00:00	2024-11-08T01:00:00	3	Temperatura mínima	16.4
110524	7	Sololá	713	San Lucas Tolimán	10	San Lucas Tolimán	3	Marzo	2023-06-03T00:00:00	2024-11-08T01:00:00	5	Humedad	59
110525	7	Sololá	713	San Lucas Tolimán	10	San Lucas Tolimán	3	Marzo	2023-06-03T00:00:00	2024-11-08T01:00:00	6	Velocidad del viento	0
110526	7	Sololá	713	San Lucas Tolimán	10	San Lucas Tolimán	3	Marzo	2023-06-03T00:00:00	2024-11-08T01:00:00	7	Dirección del viento	0
110527	7	Sololá	713	San Lucas Tolimán	10	San Lucas Tolimán	3	Marzo	2023-06-03T00:00:00	2024-11-08T01:00:00	1	Precipitación	0
110528	7	Sololá	713	San Lucas Tolimán	10	San Lucas Tolimán	3	Marzo	2023-06-03T00:00:00	2024-11-08T01:00:00	8	Radiación solar	0
110529	7	Sololá	713	San Lucas Tolimán	10	San Lucas Tolimán	3	Marzo	2023-06-03T00:00:00	2024-11-08T02:00:00	2	Temperatura media	15.8
110530	7	Sololá	713	San Lucas Tolimán	10	San Lucas Tolimán	3	Marzo	2023-06-03T00:00:00	2024-11-08T02:00:00	4	Temperatura máxima	16.4
110531	7	Sololá	713	San Lucas Tolimán	10	San Lucas Tolimán	3	Marzo	2023-06-03T00:00:00	2024-11-08T02:00:00	3	Temperatura mínima	15.8
110532	7	Sololá	713	San Lucas Tolimán	10	San Lucas Tolimán	3	Marzo	2023-06-03T00:00:00	2024-11-08T02:00:00	5	Humedad	59
110533	7	Sololá	713	San Lucas Tolimán	10	San Lucas Tolimán	3	Marzo	2023-06-03T00:00:00	2024-11-08T02:00:00	6	Velocidad del viento	0
110534	7	Sololá	713	San Lucas Tolimán	10	San Lucas Tolimán	3	Marzo	2023-06-03T00:00:00	2024-11-08T02:00:00	7	Dirección del viento	0
110535	7	Sololá	713	San Lucas Tolimán	10	San Lucas Tolimán	3	Marzo	2023-06-03T00:00:00	2024-11-08T02:00:00	1	Precipitación	0
110536	7	Sololá	713	San Lucas Tolimán	10	San Lucas Tolimán	3	Marzo	2023-06-03T00:00:00	2024-11-08T02:00:00	8	Radiación solar	0
110537	7	Sololá	713	San Lucas Tolimán	10	San Lucas Tolimán	3	Marzo	2023-06-03T00:00:00	2024-11-08T03:00:00	2	Temperatura media	15.3
110538	7	Sololá	713	San Lucas Tolimán	10	San Lucas Tolimán	3	Marzo	2023-06-03T00:00:00	2024-11-08T03:00:00	4	Temperatura máxima	15.8
110539	7	Sololá	713	San Lucas Tolimán	10	San Lucas Tolimán	3	Marzo	2023-06-03T00:00:00	2024-11-08T03:00:00	3	Temperatura mínima	14.8
110540	7	Sololá	713	San Lucas Tolimán	10	San Lucas Tolimán	3	Marzo	2023-06-03T00:00:00	2024-11-08T03:00:00	5	Humedad	60
110541	7	Sololá	713	San Lucas Tolimán	10	San Lucas Tolimán	3	Marzo	2023-06-03T00:00:00	2024-11-08T03:00:00	6	Velocidad del viento	1.6
110542	7	Sololá	713	San Lucas Tolimán	10	San Lucas Tolimán	3	Marzo	2023-06-03T00:00:00	2024-11-08T03:00:00	7	Dirección del viento	1.61
110543	7	Sololá	713	San Lucas Tolimán	10	San Lucas Tolimán	3	Marzo	2023-06-03T00:00:00	2024-11-08T03:00:00	1	Precipitación	0
110544	7	Sololá	713	San Lucas Tolimán	10	San Lucas Tolimán	3	Marzo	2023-06-03T00:00:00	2024-11-08T03:00:00	8	Radiación solar	0
110545	7	Sololá	713	San Lucas Tolimán	10	San Lucas Tolimán	3	Marzo	2023-06-03T00:00:00	2024-11-08T04:00:00	2	Temperatura media	15.6
110546	7	Sololá	713	San Lucas Tolimán	10	San Lucas Tolimán	3	Marzo	2023-06-03T00:00:00	2024-11-08T04:00:00	4	Temperatura máxima	15.7
110547	7	Sololá	713	San Lucas Tolimán	10	San Lucas Tolimán	3	Marzo	2023-06-03T00:00:00	2024-11-08T04:00:00	3	Temperatura mínima	15.3
110548	7	Sololá	713	San Lucas Tolimán	10	San Lucas Tolimán	3	Marzo	2023-06-03T00:00:00	2024-11-08T04:00:00	5	Humedad	59
110549	7	Sololá	713	San Lucas Tolimán	10	San Lucas Tolimán	3	Marzo	2023-06-03T00:00:00	2024-11-08T04:00:00	6	Velocidad del viento	0
110550	7	Sololá	713	San Lucas Tolimán	10	San Lucas Tolimán	3	Marzo	2023-06-03T00:00:00	2024-11-08T04:00:00	7	Dirección del viento	0
110551	7	Sololá	713	San Lucas Tolimán	10	San Lucas Tolimán	3	Marzo	2023-06-03T00:00:00	2024-11-08T04:00:00	1	Precipitación	0
110552	7	Sololá	713	San Lucas Tolimán	10	San Lucas Tolimán	3	Marzo	2023-06-03T00:00:00	2024-11-08T04:00:00	8	Radiación solar	0
110553	7	Sololá	713	San Lucas Tolimán	10	San Lucas Tolimán	3	Marzo	2023-06-03T00:00:00	2024-11-08T05:00:00	2	Temperatura media	15.6
110554	7	Sololá	713	San Lucas Tolimán	10	San Lucas Tolimán	3	Marzo	2023-06-03T00:00:00	2024-11-08T05:00:00	4	Temperatura máxima	15.7
110555	7	Sololá	713	San Lucas Tolimán	10	San Lucas Tolimán	3	Marzo	2023-06-03T00:00:00	2024-11-08T05:00:00	3	Temperatura mínima	15.3
110556	7	Sololá	713	San Lucas Tolimán	10	San Lucas Tolimán	3	Marzo	2023-06-03T00:00:00	2024-11-08T05:00:00	5	Humedad	59
110557	7	Sololá	713	San Lucas Tolimán	10	San Lucas Tolimán	3	Marzo	2023-06-03T00:00:00	2024-11-08T05:00:00	6	Velocidad del viento	0
110558	7	Sololá	713	San Lucas Tolimán	10	San Lucas Tolimán	3	Marzo	2023-06-03T00:00:00	2024-11-08T05:00:00	7	Dirección del viento	0
110559	7	Sololá	713	San Lucas Tolimán	10	San Lucas Tolimán	3	Marzo	2023-06-03T00:00:00	2024-11-08T05:00:00	1	Precipitación	0
110560	7	Sololá	713	San Lucas Tolimán	10	San Lucas Tolimán	3	Marzo	2023-06-03T00:00:00	2024-11-08T05:00:00	8	Radiación solar	0
110561	7	Sololá	713	San Lucas Tolimán	10	San Lucas Tolimán	3	Marzo	2023-06-03T00:00:00	2024-11-08T06:00:00	2	Temperatura media	15.2
110562	7	Sololá	713	San Lucas Tolimán	10	San Lucas Tolimán	3	Marzo	2023-06-03T00:00:00	2024-11-08T06:00:00	4	Temperatura máxima	15.6
110563	7	Sololá	713	San Lucas Tolimán	10	San Lucas Tolimán	3	Marzo	2023-06-03T00:00:00	2024-11-08T06:00:00	3	Temperatura mínima	15.2
110564	7	Sololá	713	San Lucas Tolimán	10	San Lucas Tolimán	3	Marzo	2023-06-03T00:00:00	2024-11-08T06:00:00	5	Humedad	59
110565	7	Sololá	713	San Lucas Tolimán	10	San Lucas Tolimán	3	Marzo	2023-06-03T00:00:00	2024-11-08T06:00:00	6	Velocidad del viento	1.6
110566	7	Sololá	713	San Lucas Tolimán	10	San Lucas Tolimán	3	Marzo	2023-06-03T00:00:00	2024-11-08T06:00:00	7	Dirección del viento	1.61
110567	7	Sololá	713	San Lucas Tolimán	10	San Lucas Tolimán	3	Marzo	2023-06-03T00:00:00	2024-11-08T06:00:00	1	Precipitación	0
110568	7	Sololá	713	San Lucas Tolimán	10	San Lucas Tolimán	3	Marzo	2023-06-03T00:00:00	2024-11-08T06:00:00	8	Radiación solar	0
110569	7	Sololá	713	San Lucas Tolimán	10	San Lucas Tolimán	3	Marzo	2023-06-03T00:00:00	2024-11-08T07:00:00	2	Temperatura media	15.5
110570	7	Sololá	713	San Lucas Tolimán	10	San Lucas Tolimán	3	Marzo	2023-06-03T00:00:00	2024-11-08T07:00:00	4	Temperatura máxima	15.8
110571	7	Sololá	713	San Lucas Tolimán	10	San Lucas Tolimán	3	Marzo	2023-06-03T00:00:00	2024-11-08T07:00:00	3	Temperatura mínima	15.2
110572	7	Sololá	713	San Lucas Tolimán	10	San Lucas Tolimán	3	Marzo	2023-06-03T00:00:00	2024-11-08T07:00:00	5	Humedad	60
110573	7	Sololá	713	San Lucas Tolimán	10	San Lucas Tolimán	3	Marzo	2023-06-03T00:00:00	2024-11-08T07:00:00	6	Velocidad del viento	3.2
110574	7	Sololá	713	San Lucas Tolimán	10	San Lucas Tolimán	3	Marzo	2023-06-03T00:00:00	2024-11-08T07:00:00	7	Dirección del viento	3.22
110575	7	Sololá	713	San Lucas Tolimán	10	San Lucas Tolimán	3	Marzo	2023-06-03T00:00:00	2024-11-08T07:00:00	1	Precipitación	0
110576	7	Sololá	713	San Lucas Tolimán	10	San Lucas Tolimán	3	Marzo	2023-06-03T00:00:00	2024-11-08T07:00:00	8	Radiación solar	12
110577	7	Sololá	713	San Lucas Tolimán	10	San Lucas Tolimán	3	Marzo	2023-06-03T00:00:00	2024-11-08T08:00:00	2	Temperatura media	17.6
110578	7	Sololá	713	San Lucas Tolimán	10	San Lucas Tolimán	3	Marzo	2023-06-03T00:00:00	2024-11-08T08:00:00	4	Temperatura máxima	17.6
110579	7	Sololá	713	San Lucas Tolimán	10	San Lucas Tolimán	3	Marzo	2023-06-03T00:00:00	2024-11-08T08:00:00	3	Temperatura mínima	15.4
110580	7	Sololá	713	San Lucas Tolimán	10	San Lucas Tolimán	3	Marzo	2023-06-03T00:00:00	2024-11-08T08:00:00	5	Humedad	56
110581	7	Sololá	713	San Lucas Tolimán	10	San Lucas Tolimán	3	Marzo	2023-06-03T00:00:00	2024-11-08T08:00:00	6	Velocidad del viento	4.8
110582	7	Sololá	713	San Lucas Tolimán	10	San Lucas Tolimán	3	Marzo	2023-06-03T00:00:00	2024-11-08T08:00:00	7	Dirección del viento	4.83
110583	7	Sololá	713	San Lucas Tolimán	10	San Lucas Tolimán	3	Marzo	2023-06-03T00:00:00	2024-11-08T08:00:00	1	Precipitación	0
110584	7	Sololá	713	San Lucas Tolimán	10	San Lucas Tolimán	3	Marzo	2023-06-03T00:00:00	2024-11-08T08:00:00	8	Radiación solar	133
110585	7	Sololá	713	San Lucas Tolimán	10	San Lucas Tolimán	3	Marzo	2023-06-03T00:00:00	2024-11-08T09:00:00	2	Temperatura media	19.8
110586	7	Sololá	713	San Lucas Tolimán	10	San Lucas Tolimán	3	Marzo	2023-06-03T00:00:00	2024-11-08T09:00:00	4	Temperatura máxima	19.8
110587	7	Sololá	713	San Lucas Tolimán	10	San Lucas Tolimán	3	Marzo	2023-06-03T00:00:00	2024-11-08T09:00:00	3	Temperatura mínima	17.6
110588	7	Sololá	713	San Lucas Tolimán	10	San Lucas Tolimán	3	Marzo	2023-06-03T00:00:00	2024-11-08T09:00:00	5	Humedad	51
110589	7	Sololá	713	San Lucas Tolimán	10	San Lucas Tolimán	3	Marzo	2023-06-03T00:00:00	2024-11-08T09:00:00	6	Velocidad del viento	4.8
110590	7	Sololá	713	San Lucas Tolimán	10	San Lucas Tolimán	3	Marzo	2023-06-03T00:00:00	2024-11-08T09:00:00	7	Dirección del viento	4.83
110591	7	Sololá	713	San Lucas Tolimán	10	San Lucas Tolimán	3	Marzo	2023-06-03T00:00:00	2024-11-08T09:00:00	1	Precipitación	0
110592	7	Sololá	713	San Lucas Tolimán	10	San Lucas Tolimán	3	Marzo	2023-06-03T00:00:00	2024-11-08T09:00:00	8	Radiación solar	479
110593	7	Sololá	713	San Lucas Tolimán	10	San Lucas Tolimán	3	Marzo	2023-06-03T00:00:00	2024-11-08T10:00:00	2	Temperatura media	21.8
110594	7	Sololá	713	San Lucas Tolimán	10	San Lucas Tolimán	3	Marzo	2023-06-03T00:00:00	2024-11-08T10:00:00	4	Temperatura máxima	21.8
110595	7	Sololá	713	San Lucas Tolimán	10	San Lucas Tolimán	3	Marzo	2023-06-03T00:00:00	2024-11-08T10:00:00	3	Temperatura mínima	19.8
110596	7	Sololá	713	San Lucas Tolimán	10	San Lucas Tolimán	3	Marzo	2023-06-03T00:00:00	2024-11-08T10:00:00	5	Humedad	47
110597	7	Sololá	713	San Lucas Tolimán	10	San Lucas Tolimán	3	Marzo	2023-06-03T00:00:00	2024-11-08T10:00:00	6	Velocidad del viento	4.8
110598	7	Sololá	713	San Lucas Tolimán	10	San Lucas Tolimán	3	Marzo	2023-06-03T00:00:00	2024-11-08T10:00:00	7	Dirección del viento	4.83
110599	7	Sololá	713	San Lucas Tolimán	10	San Lucas Tolimán	3	Marzo	2023-06-03T00:00:00	2024-11-08T10:00:00	1	Precipitación	0
110600	7	Sololá	713	San Lucas Tolimán	10	San Lucas Tolimán	3	Marzo	2023-06-03T00:00:00	2024-11-08T10:00:00	8	Radiación solar	736
110601	7	Sololá	713	San Lucas Tolimán	10	San Lucas Tolimán	3	Marzo	2023-06-03T00:00:00	2024-11-08T11:00:00	2	Temperatura media	23.9
110602	7	Sololá	713	San Lucas Tolimán	10	San Lucas Tolimán	3	Marzo	2023-06-03T00:00:00	2024-11-08T11:00:00	4	Temperatura máxima	24.1
110603	7	Sololá	713	San Lucas Tolimán	10	San Lucas Tolimán	3	Marzo	2023-06-03T00:00:00	2024-11-08T11:00:00	3	Temperatura mínima	21.8
110604	7	Sololá	713	San Lucas Tolimán	10	San Lucas Tolimán	3	Marzo	2023-06-03T00:00:00	2024-11-08T11:00:00	5	Humedad	45
110605	7	Sololá	713	San Lucas Tolimán	10	San Lucas Tolimán	3	Marzo	2023-06-03T00:00:00	2024-11-08T11:00:00	6	Velocidad del viento	8
110606	7	Sololá	713	San Lucas Tolimán	10	San Lucas Tolimán	3	Marzo	2023-06-03T00:00:00	2024-11-08T11:00:00	7	Dirección del viento	8.05
110607	7	Sololá	713	San Lucas Tolimán	10	San Lucas Tolimán	3	Marzo	2023-06-03T00:00:00	2024-11-08T11:00:00	1	Precipitación	0
110608	7	Sololá	713	San Lucas Tolimán	10	San Lucas Tolimán	3	Marzo	2023-06-03T00:00:00	2024-11-08T11:00:00	8	Radiación solar	918
110609	7	Sololá	713	San Lucas Tolimán	10	San Lucas Tolimán	3	Marzo	2023-06-03T00:00:00	2024-11-08T12:00:00	2	Temperatura media	23.6
110610	7	Sololá	713	San Lucas Tolimán	10	San Lucas Tolimán	3	Marzo	2023-06-03T00:00:00	2024-11-08T12:00:00	4	Temperatura máxima	23.9
110611	7	Sololá	713	San Lucas Tolimán	10	San Lucas Tolimán	3	Marzo	2023-06-03T00:00:00	2024-11-08T12:00:00	3	Temperatura mínima	22.9
110612	7	Sololá	713	San Lucas Tolimán	10	San Lucas Tolimán	3	Marzo	2023-06-03T00:00:00	2024-11-08T12:00:00	5	Humedad	50
110613	7	Sololá	713	San Lucas Tolimán	10	San Lucas Tolimán	3	Marzo	2023-06-03T00:00:00	2024-11-08T12:00:00	6	Velocidad del viento	11.3
110614	7	Sololá	713	San Lucas Tolimán	10	San Lucas Tolimán	3	Marzo	2023-06-03T00:00:00	2024-11-08T12:00:00	7	Dirección del viento	11.27
110615	7	Sololá	713	San Lucas Tolimán	10	San Lucas Tolimán	3	Marzo	2023-06-03T00:00:00	2024-11-08T12:00:00	1	Precipitación	0
110616	7	Sololá	713	San Lucas Tolimán	10	San Lucas Tolimán	3	Marzo	2023-06-03T00:00:00	2024-11-08T12:00:00	8	Radiación solar	987
110617	7	Sololá	713	San Lucas Tolimán	10	San Lucas Tolimán	3	Marzo	2023-06-03T00:00:00	2024-11-08T13:00:00	2	Temperatura media	23.7
110618	7	Sololá	713	San Lucas Tolimán	10	San Lucas Tolimán	3	Marzo	2023-06-03T00:00:00	2024-11-08T13:00:00	4	Temperatura máxima	23.9
110619	7	Sololá	713	San Lucas Tolimán	10	San Lucas Tolimán	3	Marzo	2023-06-03T00:00:00	2024-11-08T13:00:00	3	Temperatura mínima	23.1
110620	7	Sololá	713	San Lucas Tolimán	10	San Lucas Tolimán	3	Marzo	2023-06-03T00:00:00	2024-11-08T13:00:00	5	Humedad	51
110621	7	Sololá	713	San Lucas Tolimán	10	San Lucas Tolimán	3	Marzo	2023-06-03T00:00:00	2024-11-08T13:00:00	6	Velocidad del viento	12.9
110622	7	Sololá	713	San Lucas Tolimán	10	San Lucas Tolimán	3	Marzo	2023-06-03T00:00:00	2024-11-08T13:00:00	7	Dirección del viento	12.87
110623	7	Sololá	713	San Lucas Tolimán	10	San Lucas Tolimán	3	Marzo	2023-06-03T00:00:00	2024-11-08T13:00:00	1	Precipitación	0
110624	7	Sololá	713	San Lucas Tolimán	10	San Lucas Tolimán	3	Marzo	2023-06-03T00:00:00	2024-11-08T13:00:00	8	Radiación solar	1020
110625	7	Sololá	713	San Lucas Tolimán	10	San Lucas Tolimán	3	Marzo	2023-06-03T00:00:00	2024-11-08T14:00:00	2	Temperatura media	23.3
110626	7	Sololá	713	San Lucas Tolimán	10	San Lucas Tolimán	3	Marzo	2023-06-03T00:00:00	2024-11-08T14:00:00	4	Temperatura máxima	24
110627	7	Sololá	713	San Lucas Tolimán	10	San Lucas Tolimán	3	Marzo	2023-06-03T00:00:00	2024-11-08T14:00:00	3	Temperatura mínima	23.2
110628	7	Sololá	713	San Lucas Tolimán	10	San Lucas Tolimán	3	Marzo	2023-06-03T00:00:00	2024-11-08T14:00:00	5	Humedad	52
110629	7	Sololá	713	San Lucas Tolimán	10	San Lucas Tolimán	3	Marzo	2023-06-03T00:00:00	2024-11-08T14:00:00	6	Velocidad del viento	14.5
110630	7	Sololá	713	San Lucas Tolimán	10	San Lucas Tolimán	3	Marzo	2023-06-03T00:00:00	2024-11-08T14:00:00	7	Dirección del viento	14.48
110631	7	Sololá	713	San Lucas Tolimán	10	San Lucas Tolimán	3	Marzo	2023-06-03T00:00:00	2024-11-08T14:00:00	1	Precipitación	0
110632	7	Sololá	713	San Lucas Tolimán	10	San Lucas Tolimán	3	Marzo	2023-06-03T00:00:00	2024-11-08T14:00:00	8	Radiación solar	964
110633	7	Sololá	713	San Lucas Tolimán	10	San Lucas Tolimán	3	Marzo	2023-06-03T00:00:00	2024-11-08T15:00:00	2	Temperatura media	23.7
110634	7	Sololá	713	San Lucas Tolimán	10	San Lucas Tolimán	3	Marzo	2023-06-03T00:00:00	2024-11-08T15:00:00	4	Temperatura máxima	23.9
110635	7	Sololá	713	San Lucas Tolimán	10	San Lucas Tolimán	3	Marzo	2023-06-03T00:00:00	2024-11-08T15:00:00	3	Temperatura mínima	22.9
110636	7	Sololá	713	San Lucas Tolimán	10	San Lucas Tolimán	3	Marzo	2023-06-03T00:00:00	2024-11-08T15:00:00	5	Humedad	51
110637	7	Sololá	713	San Lucas Tolimán	10	San Lucas Tolimán	3	Marzo	2023-06-03T00:00:00	2024-11-08T15:00:00	6	Velocidad del viento	14.5
110638	7	Sololá	713	San Lucas Tolimán	10	San Lucas Tolimán	3	Marzo	2023-06-03T00:00:00	2024-11-08T15:00:00	7	Dirección del viento	14.48
110639	7	Sololá	713	San Lucas Tolimán	10	San Lucas Tolimán	3	Marzo	2023-06-03T00:00:00	2024-11-08T15:00:00	1	Precipitación	0
110640	7	Sololá	713	San Lucas Tolimán	10	San Lucas Tolimán	3	Marzo	2023-06-03T00:00:00	2024-11-08T15:00:00	8	Radiación solar	823
110641	7	Sololá	713	San Lucas Tolimán	10	San Lucas Tolimán	3	Marzo	2023-06-03T00:00:00	2024-11-08T16:00:00	2	Temperatura media	23.3
110642	7	Sololá	713	San Lucas Tolimán	10	San Lucas Tolimán	3	Marzo	2023-06-03T00:00:00	2024-11-08T16:00:00	4	Temperatura máxima	24.2
110643	7	Sololá	713	San Lucas Tolimán	10	San Lucas Tolimán	3	Marzo	2023-06-03T00:00:00	2024-11-08T16:00:00	3	Temperatura mínima	23.3
110644	7	Sololá	713	San Lucas Tolimán	10	San Lucas Tolimán	3	Marzo	2023-06-03T00:00:00	2024-11-08T16:00:00	5	Humedad	54
110645	7	Sololá	713	San Lucas Tolimán	10	San Lucas Tolimán	3	Marzo	2023-06-03T00:00:00	2024-11-08T16:00:00	6	Velocidad del viento	9.7
110646	7	Sololá	713	San Lucas Tolimán	10	San Lucas Tolimán	3	Marzo	2023-06-03T00:00:00	2024-11-08T16:00:00	7	Dirección del viento	9.66
110647	7	Sololá	713	San Lucas Tolimán	10	San Lucas Tolimán	3	Marzo	2023-06-03T00:00:00	2024-11-08T16:00:00	1	Precipitación	0
110648	7	Sololá	713	San Lucas Tolimán	10	San Lucas Tolimán	3	Marzo	2023-06-03T00:00:00	2024-11-08T16:00:00	8	Radiación solar	610
110649	7	Sololá	713	San Lucas Tolimán	10	San Lucas Tolimán	3	Marzo	2023-06-03T00:00:00	2024-11-08T17:00:00	2	Temperatura media	21.3
110650	7	Sololá	713	San Lucas Tolimán	10	San Lucas Tolimán	3	Marzo	2023-06-03T00:00:00	2024-11-08T17:00:00	4	Temperatura máxima	23.3
110651	7	Sololá	713	San Lucas Tolimán	10	San Lucas Tolimán	3	Marzo	2023-06-03T00:00:00	2024-11-08T17:00:00	3	Temperatura mínima	21.3
110652	7	Sololá	713	San Lucas Tolimán	10	San Lucas Tolimán	3	Marzo	2023-06-03T00:00:00	2024-11-08T17:00:00	5	Humedad	62
110653	7	Sololá	713	San Lucas Tolimán	10	San Lucas Tolimán	3	Marzo	2023-06-03T00:00:00	2024-11-08T17:00:00	6	Velocidad del viento	8
110654	7	Sololá	713	San Lucas Tolimán	10	San Lucas Tolimán	3	Marzo	2023-06-03T00:00:00	2024-11-08T17:00:00	7	Dirección del viento	8.05
110655	7	Sololá	713	San Lucas Tolimán	10	San Lucas Tolimán	3	Marzo	2023-06-03T00:00:00	2024-11-08T17:00:00	1	Precipitación	0
110656	7	Sololá	713	San Lucas Tolimán	10	San Lucas Tolimán	3	Marzo	2023-06-03T00:00:00	2024-11-08T17:00:00	8	Radiación solar	358
110657	7	Sololá	713	San Lucas Tolimán	10	San Lucas Tolimán	3	Marzo	2023-06-03T00:00:00	2024-11-08T18:00:00	2	Temperatura media	19.4
110658	7	Sololá	713	San Lucas Tolimán	10	San Lucas Tolimán	3	Marzo	2023-06-03T00:00:00	2024-11-08T18:00:00	4	Temperatura máxima	21.3
110659	7	Sololá	713	San Lucas Tolimán	10	San Lucas Tolimán	3	Marzo	2023-06-03T00:00:00	2024-11-08T18:00:00	3	Temperatura mínima	19.4
110660	7	Sololá	713	San Lucas Tolimán	10	San Lucas Tolimán	3	Marzo	2023-06-03T00:00:00	2024-11-08T18:00:00	5	Humedad	62
110661	7	Sololá	713	San Lucas Tolimán	10	San Lucas Tolimán	3	Marzo	2023-06-03T00:00:00	2024-11-08T18:00:00	6	Velocidad del viento	9.7
110662	7	Sololá	713	San Lucas Tolimán	10	San Lucas Tolimán	3	Marzo	2023-06-03T00:00:00	2024-11-08T18:00:00	7	Dirección del viento	9.66
110663	7	Sololá	713	San Lucas Tolimán	10	San Lucas Tolimán	3	Marzo	2023-06-03T00:00:00	2024-11-08T18:00:00	1	Precipitación	0
110664	7	Sololá	713	San Lucas Tolimán	10	San Lucas Tolimán	3	Marzo	2023-06-03T00:00:00	2024-11-08T18:00:00	8	Radiación solar	79
110665	7	Sololá	713	San Lucas Tolimán	10	San Lucas Tolimán	3	Marzo	2023-06-03T00:00:00	2024-11-08T19:00:00	2	Temperatura media	18.2
110666	7	Sololá	713	San Lucas Tolimán	10	San Lucas Tolimán	3	Marzo	2023-06-03T00:00:00	2024-11-08T19:00:00	4	Temperatura máxima	19.4
110667	7	Sololá	713	San Lucas Tolimán	10	San Lucas Tolimán	3	Marzo	2023-06-03T00:00:00	2024-11-08T19:00:00	3	Temperatura mínima	18.2
110668	7	Sololá	713	San Lucas Tolimán	10	San Lucas Tolimán	3	Marzo	2023-06-03T00:00:00	2024-11-08T19:00:00	5	Humedad	62
110669	7	Sololá	713	San Lucas Tolimán	10	San Lucas Tolimán	3	Marzo	2023-06-03T00:00:00	2024-11-08T19:00:00	6	Velocidad del viento	12.9
110670	7	Sololá	713	San Lucas Tolimán	10	San Lucas Tolimán	3	Marzo	2023-06-03T00:00:00	2024-11-08T19:00:00	7	Dirección del viento	12.87
110671	7	Sololá	713	San Lucas Tolimán	10	San Lucas Tolimán	3	Marzo	2023-06-03T00:00:00	2024-11-08T19:00:00	1	Precipitación	0
110672	7	Sololá	713	San Lucas Tolimán	10	San Lucas Tolimán	3	Marzo	2023-06-03T00:00:00	2024-11-08T19:00:00	8	Radiación solar	0
110673	7	Sololá	713	San Lucas Tolimán	10	San Lucas Tolimán	3	Marzo	2023-06-03T00:00:00	2024-11-08T20:00:00	2	Temperatura media	17.7
110674	7	Sololá	713	San Lucas Tolimán	10	San Lucas Tolimán	3	Marzo	2023-06-03T00:00:00	2024-11-08T20:00:00	4	Temperatura máxima	18.2
110675	7	Sololá	713	San Lucas Tolimán	10	San Lucas Tolimán	3	Marzo	2023-06-03T00:00:00	2024-11-08T20:00:00	3	Temperatura mínima	17.7
110676	7	Sololá	713	San Lucas Tolimán	10	San Lucas Tolimán	3	Marzo	2023-06-03T00:00:00	2024-11-08T20:00:00	5	Humedad	62
110677	7	Sololá	713	San Lucas Tolimán	10	San Lucas Tolimán	3	Marzo	2023-06-03T00:00:00	2024-11-08T20:00:00	6	Velocidad del viento	4.8
110678	7	Sololá	713	San Lucas Tolimán	10	San Lucas Tolimán	3	Marzo	2023-06-03T00:00:00	2024-11-08T20:00:00	7	Dirección del viento	4.83
110679	7	Sololá	713	San Lucas Tolimán	10	San Lucas Tolimán	3	Marzo	2023-06-03T00:00:00	2024-11-08T20:00:00	1	Precipitación	0
110680	7	Sololá	713	San Lucas Tolimán	10	San Lucas Tolimán	3	Marzo	2023-06-03T00:00:00	2024-11-08T20:00:00	8	Radiación solar	0
110681	7	Sololá	713	San Lucas Tolimán	10	San Lucas Tolimán	3	Marzo	2023-06-03T00:00:00	2024-11-08T21:00:00	2	Temperatura media	16.9
110682	7	Sololá	713	San Lucas Tolimán	10	San Lucas Tolimán	3	Marzo	2023-06-03T00:00:00	2024-11-08T21:00:00	4	Temperatura máxima	17.7
110683	7	Sololá	713	San Lucas Tolimán	10	San Lucas Tolimán	3	Marzo	2023-06-03T00:00:00	2024-11-08T21:00:00	3	Temperatura mínima	16.8
110684	7	Sololá	713	San Lucas Tolimán	10	San Lucas Tolimán	3	Marzo	2023-06-03T00:00:00	2024-11-08T21:00:00	5	Humedad	62
110685	7	Sololá	713	San Lucas Tolimán	10	San Lucas Tolimán	3	Marzo	2023-06-03T00:00:00	2024-11-08T21:00:00	6	Velocidad del viento	1.6
110686	7	Sololá	713	San Lucas Tolimán	10	San Lucas Tolimán	3	Marzo	2023-06-03T00:00:00	2024-11-08T21:00:00	7	Dirección del viento	1.61
110687	7	Sololá	713	San Lucas Tolimán	10	San Lucas Tolimán	3	Marzo	2023-06-03T00:00:00	2024-11-08T21:00:00	1	Precipitación	0
110688	7	Sololá	713	San Lucas Tolimán	10	San Lucas Tolimán	3	Marzo	2023-06-03T00:00:00	2024-11-08T21:00:00	8	Radiación solar	0
110689	7	Sololá	713	San Lucas Tolimán	10	San Lucas Tolimán	3	Marzo	2023-06-03T00:00:00	2024-11-08T22:00:00	2	Temperatura media	16.3
110690	7	Sololá	713	San Lucas Tolimán	10	San Lucas Tolimán	3	Marzo	2023-06-03T00:00:00	2024-11-08T22:00:00	4	Temperatura máxima	16.9
110691	7	Sololá	713	San Lucas Tolimán	10	San Lucas Tolimán	3	Marzo	2023-06-03T00:00:00	2024-11-08T22:00:00	3	Temperatura mínima	16.3
110692	7	Sololá	713	San Lucas Tolimán	10	San Lucas Tolimán	3	Marzo	2023-06-03T00:00:00	2024-11-08T22:00:00	5	Humedad	61
110693	7	Sololá	713	San Lucas Tolimán	10	San Lucas Tolimán	3	Marzo	2023-06-03T00:00:00	2024-11-08T22:00:00	6	Velocidad del viento	4.8
110694	7	Sololá	713	San Lucas Tolimán	10	San Lucas Tolimán	3	Marzo	2023-06-03T00:00:00	2024-11-08T22:00:00	7	Dirección del viento	4.83
110695	7	Sololá	713	San Lucas Tolimán	10	San Lucas Tolimán	3	Marzo	2023-06-03T00:00:00	2024-11-08T22:00:00	1	Precipitación	0
110696	7	Sololá	713	San Lucas Tolimán	10	San Lucas Tolimán	3	Marzo	2023-06-03T00:00:00	2024-11-08T22:00:00	8	Radiación solar	0
110697	7	Sololá	713	San Lucas Tolimán	10	San Lucas Tolimán	3	Marzo	2023-06-03T00:00:00	2024-11-08T23:00:00	2	Temperatura media	15.5
110698	7	Sololá	713	San Lucas Tolimán	10	San Lucas Tolimán	3	Marzo	2023-06-03T00:00:00	2024-11-08T23:00:00	4	Temperatura máxima	16.3
110699	7	Sololá	713	San Lucas Tolimán	10	San Lucas Tolimán	3	Marzo	2023-06-03T00:00:00	2024-11-08T23:00:00	3	Temperatura mínima	15.5
110700	7	Sololá	713	San Lucas Tolimán	10	San Lucas Tolimán	3	Marzo	2023-06-03T00:00:00	2024-11-08T23:00:00	5	Humedad	58
110701	7	Sololá	713	San Lucas Tolimán	10	San Lucas Tolimán	3	Marzo	2023-06-03T00:00:00	2024-11-08T23:00:00	6	Velocidad del viento	3.2
110702	7	Sololá	713	San Lucas Tolimán	10	San Lucas Tolimán	3	Marzo	2023-06-03T00:00:00	2024-11-08T23:00:00	7	Dirección del viento	3.22
110703	7	Sololá	713	San Lucas Tolimán	10	San Lucas Tolimán	3	Marzo	2023-06-03T00:00:00	2024-11-08T23:00:00	1	Precipitación	0
110704	7	Sololá	713	San Lucas Tolimán	10	San Lucas Tolimán	3	Marzo	2023-06-03T00:00:00	2024-11-08T23:00:00	8	Radiación solar	0
110705	7	Sololá	713	San Lucas Tolimán	10	San Lucas Tolimán	3	Marzo	2023-07-03T00:00:00	2024-11-08T00:00:00	2	Temperatura media	14.7
110706	7	Sololá	713	San Lucas Tolimán	10	San Lucas Tolimán	3	Marzo	2023-07-03T00:00:00	2024-11-08T00:00:00	4	Temperatura máxima	15.5
110707	7	Sololá	713	San Lucas Tolimán	10	San Lucas Tolimán	3	Marzo	2023-07-03T00:00:00	2024-11-08T00:00:00	3	Temperatura mínima	14.7
110708	7	Sololá	713	San Lucas Tolimán	10	San Lucas Tolimán	3	Marzo	2023-07-03T00:00:00	2024-11-08T00:00:00	5	Humedad	59
110709	7	Sololá	713	San Lucas Tolimán	10	San Lucas Tolimán	3	Marzo	2023-07-03T00:00:00	2024-11-08T00:00:00	6	Velocidad del viento	3.2
110710	7	Sololá	713	San Lucas Tolimán	10	San Lucas Tolimán	3	Marzo	2023-07-03T00:00:00	2024-11-08T00:00:00	7	Dirección del viento	3.22
110711	7	Sololá	713	San Lucas Tolimán	10	San Lucas Tolimán	3	Marzo	2023-07-03T00:00:00	2024-11-08T00:00:00	1	Precipitación	0
110712	7	Sololá	713	San Lucas Tolimán	10	San Lucas Tolimán	3	Marzo	2023-07-03T00:00:00	2024-11-08T00:00:00	8	Radiación solar	0
110713	7	Sololá	713	San Lucas Tolimán	10	San Lucas Tolimán	3	Marzo	2023-07-03T00:00:00	2024-11-08T01:00:00	2	Temperatura media	14.1
110714	7	Sololá	713	San Lucas Tolimán	10	San Lucas Tolimán	3	Marzo	2023-07-03T00:00:00	2024-11-08T01:00:00	4	Temperatura máxima	14.8
110715	7	Sololá	713	San Lucas Tolimán	10	San Lucas Tolimán	3	Marzo	2023-07-03T00:00:00	2024-11-08T01:00:00	3	Temperatura mínima	14.1
110716	7	Sololá	713	San Lucas Tolimán	10	San Lucas Tolimán	3	Marzo	2023-07-03T00:00:00	2024-11-08T01:00:00	5	Humedad	58
110717	7	Sololá	713	San Lucas Tolimán	10	San Lucas Tolimán	3	Marzo	2023-07-03T00:00:00	2024-11-08T01:00:00	6	Velocidad del viento	3.2
110718	7	Sololá	713	San Lucas Tolimán	10	San Lucas Tolimán	3	Marzo	2023-07-03T00:00:00	2024-11-08T01:00:00	7	Dirección del viento	3.22
110719	7	Sololá	713	San Lucas Tolimán	10	San Lucas Tolimán	3	Marzo	2023-07-03T00:00:00	2024-11-08T01:00:00	1	Precipitación	0
110720	7	Sololá	713	San Lucas Tolimán	10	San Lucas Tolimán	3	Marzo	2023-07-03T00:00:00	2024-11-08T01:00:00	8	Radiación solar	0
110721	7	Sololá	713	San Lucas Tolimán	10	San Lucas Tolimán	3	Marzo	2023-07-03T00:00:00	2024-11-08T02:00:00	2	Temperatura media	13.8
110722	7	Sololá	713	San Lucas Tolimán	10	San Lucas Tolimán	3	Marzo	2023-07-03T00:00:00	2024-11-08T02:00:00	4	Temperatura máxima	14.1
110723	7	Sololá	713	San Lucas Tolimán	10	San Lucas Tolimán	3	Marzo	2023-07-03T00:00:00	2024-11-08T02:00:00	3	Temperatura mínima	13.8
110724	7	Sololá	713	San Lucas Tolimán	10	San Lucas Tolimán	3	Marzo	2023-07-03T00:00:00	2024-11-08T02:00:00	5	Humedad	59
110725	7	Sololá	713	San Lucas Tolimán	10	San Lucas Tolimán	3	Marzo	2023-07-03T00:00:00	2024-11-08T02:00:00	6	Velocidad del viento	3.2
110726	7	Sololá	713	San Lucas Tolimán	10	San Lucas Tolimán	3	Marzo	2023-07-03T00:00:00	2024-11-08T02:00:00	7	Dirección del viento	3.22
110727	7	Sololá	713	San Lucas Tolimán	10	San Lucas Tolimán	3	Marzo	2023-07-03T00:00:00	2024-11-08T02:00:00	1	Precipitación	0
110728	7	Sololá	713	San Lucas Tolimán	10	San Lucas Tolimán	3	Marzo	2023-07-03T00:00:00	2024-11-08T02:00:00	8	Radiación solar	0
110729	7	Sololá	713	San Lucas Tolimán	10	San Lucas Tolimán	3	Marzo	2023-07-03T00:00:00	2024-11-08T03:00:00	2	Temperatura media	13.2
110730	7	Sololá	713	San Lucas Tolimán	10	San Lucas Tolimán	3	Marzo	2023-07-03T00:00:00	2024-11-08T03:00:00	4	Temperatura máxima	13.8
110731	7	Sololá	713	San Lucas Tolimán	10	San Lucas Tolimán	3	Marzo	2023-07-03T00:00:00	2024-11-08T03:00:00	3	Temperatura mínima	13.2
110732	7	Sololá	713	San Lucas Tolimán	10	San Lucas Tolimán	3	Marzo	2023-07-03T00:00:00	2024-11-08T03:00:00	5	Humedad	61
110733	7	Sololá	713	San Lucas Tolimán	10	San Lucas Tolimán	3	Marzo	2023-07-03T00:00:00	2024-11-08T03:00:00	6	Velocidad del viento	3.2
110734	7	Sololá	713	San Lucas Tolimán	10	San Lucas Tolimán	3	Marzo	2023-07-03T00:00:00	2024-11-08T03:00:00	7	Dirección del viento	3.22
110735	7	Sololá	713	San Lucas Tolimán	10	San Lucas Tolimán	3	Marzo	2023-07-03T00:00:00	2024-11-08T03:00:00	1	Precipitación	0
110736	7	Sololá	713	San Lucas Tolimán	10	San Lucas Tolimán	3	Marzo	2023-07-03T00:00:00	2024-11-08T03:00:00	8	Radiación solar	0
110737	7	Sololá	713	San Lucas Tolimán	10	San Lucas Tolimán	3	Marzo	2023-07-03T00:00:00	2024-11-08T04:00:00	2	Temperatura media	12.9
110738	7	Sololá	713	San Lucas Tolimán	10	San Lucas Tolimán	3	Marzo	2023-07-03T00:00:00	2024-11-08T04:00:00	4	Temperatura máxima	13.2
110739	7	Sololá	713	San Lucas Tolimán	10	San Lucas Tolimán	3	Marzo	2023-07-03T00:00:00	2024-11-08T04:00:00	3	Temperatura mínima	12.9
110740	7	Sololá	713	San Lucas Tolimán	10	San Lucas Tolimán	3	Marzo	2023-07-03T00:00:00	2024-11-08T04:00:00	5	Humedad	62
110741	7	Sololá	713	San Lucas Tolimán	10	San Lucas Tolimán	3	Marzo	2023-07-03T00:00:00	2024-11-08T04:00:00	6	Velocidad del viento	3.2
110742	7	Sololá	713	San Lucas Tolimán	10	San Lucas Tolimán	3	Marzo	2023-07-03T00:00:00	2024-11-08T04:00:00	7	Dirección del viento	3.22
110743	7	Sololá	713	San Lucas Tolimán	10	San Lucas Tolimán	3	Marzo	2023-07-03T00:00:00	2024-11-08T04:00:00	1	Precipitación	0
110744	7	Sololá	713	San Lucas Tolimán	10	San Lucas Tolimán	3	Marzo	2023-07-03T00:00:00	2024-11-08T04:00:00	8	Radiación solar	0
110745	7	Sololá	713	San Lucas Tolimán	10	San Lucas Tolimán	3	Marzo	2023-07-03T00:00:00	2024-11-08T05:00:00	2	Temperatura media	14.8
110746	7	Sololá	713	San Lucas Tolimán	10	San Lucas Tolimán	3	Marzo	2023-07-03T00:00:00	2024-11-08T05:00:00	4	Temperatura máxima	14.8
110747	7	Sololá	713	San Lucas Tolimán	10	San Lucas Tolimán	3	Marzo	2023-07-03T00:00:00	2024-11-08T05:00:00	3	Temperatura mínima	12.9
110748	7	Sololá	713	San Lucas Tolimán	10	San Lucas Tolimán	3	Marzo	2023-07-03T00:00:00	2024-11-08T05:00:00	5	Humedad	58
110749	7	Sololá	713	San Lucas Tolimán	10	San Lucas Tolimán	3	Marzo	2023-07-03T00:00:00	2024-11-08T05:00:00	6	Velocidad del viento	3.2
110750	7	Sololá	713	San Lucas Tolimán	10	San Lucas Tolimán	3	Marzo	2023-07-03T00:00:00	2024-11-08T05:00:00	7	Dirección del viento	3.22
110751	7	Sololá	713	San Lucas Tolimán	10	San Lucas Tolimán	3	Marzo	2023-07-03T00:00:00	2024-11-08T05:00:00	1	Precipitación	0
110752	7	Sololá	713	San Lucas Tolimán	10	San Lucas Tolimán	3	Marzo	2023-07-03T00:00:00	2024-11-08T05:00:00	8	Radiación solar	0
110753	7	Sololá	713	San Lucas Tolimán	10	San Lucas Tolimán	3	Marzo	2023-07-03T00:00:00	2024-11-08T06:00:00	2	Temperatura media	15.3
110754	7	Sololá	713	San Lucas Tolimán	10	San Lucas Tolimán	3	Marzo	2023-07-03T00:00:00	2024-11-08T06:00:00	4	Temperatura máxima	15.4
110755	7	Sololá	713	San Lucas Tolimán	10	San Lucas Tolimán	3	Marzo	2023-07-03T00:00:00	2024-11-08T06:00:00	3	Temperatura mínima	14.8
110756	7	Sololá	713	San Lucas Tolimán	10	San Lucas Tolimán	3	Marzo	2023-07-03T00:00:00	2024-11-08T06:00:00	5	Humedad	57
110757	7	Sololá	713	San Lucas Tolimán	10	San Lucas Tolimán	3	Marzo	2023-07-03T00:00:00	2024-11-08T06:00:00	6	Velocidad del viento	3.2
110758	7	Sololá	713	San Lucas Tolimán	10	San Lucas Tolimán	3	Marzo	2023-07-03T00:00:00	2024-11-08T06:00:00	7	Dirección del viento	3.22
110759	7	Sololá	713	San Lucas Tolimán	10	San Lucas Tolimán	3	Marzo	2023-07-03T00:00:00	2024-11-08T06:00:00	1	Precipitación	0
110760	7	Sololá	713	San Lucas Tolimán	10	San Lucas Tolimán	3	Marzo	2023-07-03T00:00:00	2024-11-08T06:00:00	8	Radiación solar	0
110761	7	Sololá	713	San Lucas Tolimán	10	San Lucas Tolimán	3	Marzo	2023-07-03T00:00:00	2024-11-08T07:00:00	2	Temperatura media	15.3
110762	7	Sololá	713	San Lucas Tolimán	10	San Lucas Tolimán	3	Marzo	2023-07-03T00:00:00	2024-11-08T07:00:00	4	Temperatura máxima	15.3
110763	7	Sololá	713	San Lucas Tolimán	10	San Lucas Tolimán	3	Marzo	2023-07-03T00:00:00	2024-11-08T07:00:00	3	Temperatura mínima	14.8
110764	7	Sololá	713	San Lucas Tolimán	10	San Lucas Tolimán	3	Marzo	2023-07-03T00:00:00	2024-11-08T07:00:00	5	Humedad	57
110765	7	Sololá	713	San Lucas Tolimán	10	San Lucas Tolimán	3	Marzo	2023-07-03T00:00:00	2024-11-08T07:00:00	6	Velocidad del viento	1.6
110766	7	Sololá	713	San Lucas Tolimán	10	San Lucas Tolimán	3	Marzo	2023-07-03T00:00:00	2024-11-08T07:00:00	7	Dirección del viento	1.61
110767	7	Sololá	713	San Lucas Tolimán	10	San Lucas Tolimán	3	Marzo	2023-07-03T00:00:00	2024-11-08T07:00:00	1	Precipitación	0
110768	7	Sololá	713	San Lucas Tolimán	10	San Lucas Tolimán	3	Marzo	2023-07-03T00:00:00	2024-11-08T07:00:00	8	Radiación solar	17
110769	7	Sololá	713	San Lucas Tolimán	10	San Lucas Tolimán	3	Marzo	2023-07-03T00:00:00	2024-11-08T08:00:00	2	Temperatura media	16.5
110770	7	Sololá	713	San Lucas Tolimán	10	San Lucas Tolimán	3	Marzo	2023-07-03T00:00:00	2024-11-08T08:00:00	4	Temperatura máxima	16.5
110771	7	Sololá	713	San Lucas Tolimán	10	San Lucas Tolimán	3	Marzo	2023-07-03T00:00:00	2024-11-08T08:00:00	3	Temperatura mínima	15.3
110772	7	Sololá	713	San Lucas Tolimán	10	San Lucas Tolimán	3	Marzo	2023-07-03T00:00:00	2024-11-08T08:00:00	5	Humedad	56
110773	7	Sololá	713	San Lucas Tolimán	10	San Lucas Tolimán	3	Marzo	2023-07-03T00:00:00	2024-11-08T08:00:00	6	Velocidad del viento	0
110774	7	Sololá	713	San Lucas Tolimán	10	San Lucas Tolimán	3	Marzo	2023-07-03T00:00:00	2024-11-08T08:00:00	7	Dirección del viento	0
110775	7	Sololá	713	San Lucas Tolimán	10	San Lucas Tolimán	3	Marzo	2023-07-03T00:00:00	2024-11-08T08:00:00	1	Precipitación	0
110776	7	Sololá	713	San Lucas Tolimán	10	San Lucas Tolimán	3	Marzo	2023-07-03T00:00:00	2024-11-08T08:00:00	8	Radiación solar	134
110777	7	Sololá	713	San Lucas Tolimán	10	San Lucas Tolimán	3	Marzo	2023-07-03T00:00:00	2024-11-08T09:00:00	2	Temperatura media	19
110778	7	Sololá	713	San Lucas Tolimán	10	San Lucas Tolimán	3	Marzo	2023-07-03T00:00:00	2024-11-08T09:00:00	4	Temperatura máxima	19
110779	7	Sololá	713	San Lucas Tolimán	10	San Lucas Tolimán	3	Marzo	2023-07-03T00:00:00	2024-11-08T09:00:00	3	Temperatura mínima	16.4
110780	7	Sololá	713	San Lucas Tolimán	10	San Lucas Tolimán	3	Marzo	2023-07-03T00:00:00	2024-11-08T09:00:00	5	Humedad	55
110781	7	Sololá	713	San Lucas Tolimán	10	San Lucas Tolimán	3	Marzo	2023-07-03T00:00:00	2024-11-08T09:00:00	6	Velocidad del viento	1.6
110782	7	Sololá	713	San Lucas Tolimán	10	San Lucas Tolimán	3	Marzo	2023-07-03T00:00:00	2024-11-08T09:00:00	7	Dirección del viento	1.61
110783	7	Sololá	713	San Lucas Tolimán	10	San Lucas Tolimán	3	Marzo	2023-07-03T00:00:00	2024-11-08T09:00:00	1	Precipitación	0
110784	7	Sololá	713	San Lucas Tolimán	10	San Lucas Tolimán	3	Marzo	2023-07-03T00:00:00	2024-11-08T09:00:00	8	Radiación solar	361
110785	7	Sololá	713	San Lucas Tolimán	10	San Lucas Tolimán	3	Marzo	2023-07-03T00:00:00	2024-11-08T10:00:00	2	Temperatura media	19.2
110786	7	Sololá	713	San Lucas Tolimán	10	San Lucas Tolimán	3	Marzo	2023-07-03T00:00:00	2024-11-08T10:00:00	4	Temperatura máxima	20.6
110787	7	Sololá	713	San Lucas Tolimán	10	San Lucas Tolimán	3	Marzo	2023-07-03T00:00:00	2024-11-08T10:00:00	3	Temperatura mínima	19
110788	7	Sololá	713	San Lucas Tolimán	10	San Lucas Tolimán	3	Marzo	2023-07-03T00:00:00	2024-11-08T10:00:00	5	Humedad	55
110789	7	Sololá	713	San Lucas Tolimán	10	San Lucas Tolimán	3	Marzo	2023-07-03T00:00:00	2024-11-08T10:00:00	6	Velocidad del viento	4.8
110790	7	Sololá	713	San Lucas Tolimán	10	San Lucas Tolimán	3	Marzo	2023-07-03T00:00:00	2024-11-08T10:00:00	7	Dirección del viento	4.83
110791	7	Sololá	713	San Lucas Tolimán	10	San Lucas Tolimán	3	Marzo	2023-07-03T00:00:00	2024-11-08T10:00:00	1	Precipitación	0
110792	7	Sololá	713	San Lucas Tolimán	10	San Lucas Tolimán	3	Marzo	2023-07-03T00:00:00	2024-11-08T10:00:00	8	Radiación solar	632
110793	7	Sololá	713	San Lucas Tolimán	10	San Lucas Tolimán	3	Marzo	2023-07-03T00:00:00	2024-11-08T11:00:00	2	Temperatura media	22.4
110794	7	Sololá	713	San Lucas Tolimán	10	San Lucas Tolimán	3	Marzo	2023-07-03T00:00:00	2024-11-08T11:00:00	4	Temperatura máxima	22.7
110795	7	Sololá	713	San Lucas Tolimán	10	San Lucas Tolimán	3	Marzo	2023-07-03T00:00:00	2024-11-08T11:00:00	3	Temperatura mínima	19.2
110796	7	Sololá	713	San Lucas Tolimán	10	San Lucas Tolimán	3	Marzo	2023-07-03T00:00:00	2024-11-08T11:00:00	5	Humedad	47
110797	7	Sololá	713	San Lucas Tolimán	10	San Lucas Tolimán	3	Marzo	2023-07-03T00:00:00	2024-11-08T11:00:00	6	Velocidad del viento	6.4
110798	7	Sololá	713	San Lucas Tolimán	10	San Lucas Tolimán	3	Marzo	2023-07-03T00:00:00	2024-11-08T11:00:00	7	Dirección del viento	6.44
110799	7	Sololá	713	San Lucas Tolimán	10	San Lucas Tolimán	3	Marzo	2023-07-03T00:00:00	2024-11-08T11:00:00	1	Precipitación	0
110800	7	Sololá	713	San Lucas Tolimán	10	San Lucas Tolimán	3	Marzo	2023-07-03T00:00:00	2024-11-08T11:00:00	8	Radiación solar	842
110801	7	Sololá	713	San Lucas Tolimán	10	San Lucas Tolimán	3	Marzo	2023-07-03T00:00:00	2024-11-08T12:00:00	2	Temperatura media	21.4
110802	7	Sololá	713	San Lucas Tolimán	10	San Lucas Tolimán	3	Marzo	2023-07-03T00:00:00	2024-11-08T12:00:00	4	Temperatura máxima	22.8
110803	7	Sololá	713	San Lucas Tolimán	10	San Lucas Tolimán	3	Marzo	2023-07-03T00:00:00	2024-11-08T12:00:00	3	Temperatura mínima	21.4
110804	7	Sololá	713	San Lucas Tolimán	10	San Lucas Tolimán	3	Marzo	2023-07-03T00:00:00	2024-11-08T12:00:00	5	Humedad	51
110805	7	Sololá	713	San Lucas Tolimán	10	San Lucas Tolimán	3	Marzo	2023-07-03T00:00:00	2024-11-08T12:00:00	6	Velocidad del viento	9.7
110806	7	Sololá	713	San Lucas Tolimán	10	San Lucas Tolimán	3	Marzo	2023-07-03T00:00:00	2024-11-08T12:00:00	7	Dirección del viento	9.66
110807	7	Sololá	713	San Lucas Tolimán	10	San Lucas Tolimán	3	Marzo	2023-07-03T00:00:00	2024-11-08T12:00:00	1	Precipitación	0
110808	7	Sololá	713	San Lucas Tolimán	10	San Lucas Tolimán	3	Marzo	2023-07-03T00:00:00	2024-11-08T12:00:00	8	Radiación solar	932
110809	7	Sololá	713	San Lucas Tolimán	10	San Lucas Tolimán	3	Marzo	2023-07-03T00:00:00	2024-11-08T13:00:00	2	Temperatura media	21.1
110810	7	Sololá	713	San Lucas Tolimán	10	San Lucas Tolimán	3	Marzo	2023-07-03T00:00:00	2024-11-08T13:00:00	4	Temperatura máxima	23
110811	7	Sololá	713	San Lucas Tolimán	10	San Lucas Tolimán	3	Marzo	2023-07-03T00:00:00	2024-11-08T13:00:00	3	Temperatura mínima	21.1
110812	7	Sololá	713	San Lucas Tolimán	10	San Lucas Tolimán	3	Marzo	2023-07-03T00:00:00	2024-11-08T13:00:00	5	Humedad	56
110813	7	Sololá	713	San Lucas Tolimán	10	San Lucas Tolimán	3	Marzo	2023-07-03T00:00:00	2024-11-08T13:00:00	6	Velocidad del viento	9.7
110814	7	Sololá	713	San Lucas Tolimán	10	San Lucas Tolimán	3	Marzo	2023-07-03T00:00:00	2024-11-08T13:00:00	7	Dirección del viento	9.66
110815	7	Sololá	713	San Lucas Tolimán	10	San Lucas Tolimán	3	Marzo	2023-07-03T00:00:00	2024-11-08T13:00:00	1	Precipitación	0
110816	7	Sololá	713	San Lucas Tolimán	10	San Lucas Tolimán	3	Marzo	2023-07-03T00:00:00	2024-11-08T13:00:00	8	Radiación solar	800
110817	7	Sololá	713	San Lucas Tolimán	10	San Lucas Tolimán	3	Marzo	2023-07-03T00:00:00	2024-11-08T14:00:00	2	Temperatura media	21.4
110818	7	Sololá	713	San Lucas Tolimán	10	San Lucas Tolimán	3	Marzo	2023-07-03T00:00:00	2024-11-08T14:00:00	4	Temperatura máxima	22.4
110819	7	Sololá	713	San Lucas Tolimán	10	San Lucas Tolimán	3	Marzo	2023-07-03T00:00:00	2024-11-08T14:00:00	3	Temperatura mínima	21.1
110820	7	Sololá	713	San Lucas Tolimán	10	San Lucas Tolimán	3	Marzo	2023-07-03T00:00:00	2024-11-08T14:00:00	5	Humedad	58
110821	7	Sololá	713	San Lucas Tolimán	10	San Lucas Tolimán	3	Marzo	2023-07-03T00:00:00	2024-11-08T14:00:00	6	Velocidad del viento	9.7
110822	7	Sololá	713	San Lucas Tolimán	10	San Lucas Tolimán	3	Marzo	2023-07-03T00:00:00	2024-11-08T14:00:00	7	Dirección del viento	9.66
110823	7	Sololá	713	San Lucas Tolimán	10	San Lucas Tolimán	3	Marzo	2023-07-03T00:00:00	2024-11-08T14:00:00	1	Precipitación	0
110824	7	Sololá	713	San Lucas Tolimán	10	San Lucas Tolimán	3	Marzo	2023-07-03T00:00:00	2024-11-08T14:00:00	8	Radiación solar	674
110825	7	Sololá	713	San Lucas Tolimán	10	San Lucas Tolimán	3	Marzo	2023-07-03T00:00:00	2024-11-08T15:00:00	2	Temperatura media	21.1
110826	7	Sololá	713	San Lucas Tolimán	10	San Lucas Tolimán	3	Marzo	2023-07-03T00:00:00	2024-11-08T15:00:00	4	Temperatura máxima	22.4
110827	7	Sololá	713	San Lucas Tolimán	10	San Lucas Tolimán	3	Marzo	2023-07-03T00:00:00	2024-11-08T15:00:00	3	Temperatura mínima	21
110828	7	Sololá	713	San Lucas Tolimán	10	San Lucas Tolimán	3	Marzo	2023-07-03T00:00:00	2024-11-08T15:00:00	5	Humedad	59
110829	7	Sololá	713	San Lucas Tolimán	10	San Lucas Tolimán	3	Marzo	2023-07-03T00:00:00	2024-11-08T15:00:00	6	Velocidad del viento	9.7
110830	7	Sololá	713	San Lucas Tolimán	10	San Lucas Tolimán	3	Marzo	2023-07-03T00:00:00	2024-11-08T15:00:00	7	Dirección del viento	9.66
110831	7	Sololá	713	San Lucas Tolimán	10	San Lucas Tolimán	3	Marzo	2023-07-03T00:00:00	2024-11-08T15:00:00	1	Precipitación	0
110832	7	Sololá	713	San Lucas Tolimán	10	San Lucas Tolimán	3	Marzo	2023-07-03T00:00:00	2024-11-08T15:00:00	8	Radiación solar	741
110833	7	Sololá	713	San Lucas Tolimán	10	San Lucas Tolimán	3	Marzo	2023-07-03T00:00:00	2024-11-08T16:00:00	2	Temperatura media	19.9
110834	7	Sololá	713	San Lucas Tolimán	10	San Lucas Tolimán	3	Marzo	2023-07-03T00:00:00	2024-11-08T16:00:00	4	Temperatura máxima	21.1
110835	7	Sololá	713	San Lucas Tolimán	10	San Lucas Tolimán	3	Marzo	2023-07-03T00:00:00	2024-11-08T16:00:00	3	Temperatura mínima	19.9
110836	7	Sololá	713	San Lucas Tolimán	10	San Lucas Tolimán	3	Marzo	2023-07-03T00:00:00	2024-11-08T16:00:00	5	Humedad	62
110837	7	Sololá	713	San Lucas Tolimán	10	San Lucas Tolimán	3	Marzo	2023-07-03T00:00:00	2024-11-08T16:00:00	6	Velocidad del viento	9.7
110838	7	Sololá	713	San Lucas Tolimán	10	San Lucas Tolimán	3	Marzo	2023-07-03T00:00:00	2024-11-08T16:00:00	7	Dirección del viento	9.66
110839	7	Sololá	713	San Lucas Tolimán	10	San Lucas Tolimán	3	Marzo	2023-07-03T00:00:00	2024-11-08T16:00:00	1	Precipitación	0
110840	7	Sololá	713	San Lucas Tolimán	10	San Lucas Tolimán	3	Marzo	2023-07-03T00:00:00	2024-11-08T16:00:00	8	Radiación solar	358
110841	7	Sololá	713	San Lucas Tolimán	10	San Lucas Tolimán	3	Marzo	2023-07-03T00:00:00	2024-11-08T17:00:00	2	Temperatura media	19.2
110842	7	Sololá	713	San Lucas Tolimán	10	San Lucas Tolimán	3	Marzo	2023-07-03T00:00:00	2024-11-08T17:00:00	4	Temperatura máxima	19.9
110843	7	Sololá	713	San Lucas Tolimán	10	San Lucas Tolimán	3	Marzo	2023-07-03T00:00:00	2024-11-08T17:00:00	3	Temperatura mínima	19.2
110844	7	Sololá	713	San Lucas Tolimán	10	San Lucas Tolimán	3	Marzo	2023-07-03T00:00:00	2024-11-08T17:00:00	5	Humedad	63
110845	7	Sololá	713	San Lucas Tolimán	10	San Lucas Tolimán	3	Marzo	2023-07-03T00:00:00	2024-11-08T17:00:00	6	Velocidad del viento	6.4
110846	7	Sololá	713	San Lucas Tolimán	10	San Lucas Tolimán	3	Marzo	2023-07-03T00:00:00	2024-11-08T17:00:00	7	Dirección del viento	6.44
110847	7	Sololá	713	San Lucas Tolimán	10	San Lucas Tolimán	3	Marzo	2023-07-03T00:00:00	2024-11-08T17:00:00	1	Precipitación	0
110848	7	Sololá	713	San Lucas Tolimán	10	San Lucas Tolimán	3	Marzo	2023-07-03T00:00:00	2024-11-08T17:00:00	8	Radiación solar	146
110849	7	Sololá	713	San Lucas Tolimán	10	San Lucas Tolimán	3	Marzo	2023-07-03T00:00:00	2024-11-08T18:00:00	2	Temperatura media	18.2
110850	7	Sololá	713	San Lucas Tolimán	10	San Lucas Tolimán	3	Marzo	2023-07-03T00:00:00	2024-11-08T18:00:00	4	Temperatura máxima	19.3
110851	7	Sololá	713	San Lucas Tolimán	10	San Lucas Tolimán	3	Marzo	2023-07-03T00:00:00	2024-11-08T18:00:00	3	Temperatura mínima	18.2
110852	7	Sololá	713	San Lucas Tolimán	10	San Lucas Tolimán	3	Marzo	2023-07-03T00:00:00	2024-11-08T18:00:00	5	Humedad	62
110853	7	Sololá	713	San Lucas Tolimán	10	San Lucas Tolimán	3	Marzo	2023-07-03T00:00:00	2024-11-08T18:00:00	6	Velocidad del viento	8
110854	7	Sololá	713	San Lucas Tolimán	10	San Lucas Tolimán	3	Marzo	2023-07-03T00:00:00	2024-11-08T18:00:00	7	Dirección del viento	8.05
110855	7	Sololá	713	San Lucas Tolimán	10	San Lucas Tolimán	3	Marzo	2023-07-03T00:00:00	2024-11-08T18:00:00	1	Precipitación	0
110856	7	Sololá	713	San Lucas Tolimán	10	San Lucas Tolimán	3	Marzo	2023-07-03T00:00:00	2024-11-08T18:00:00	8	Radiación solar	70
110857	7	Sololá	713	San Lucas Tolimán	10	San Lucas Tolimán	3	Marzo	2023-07-03T00:00:00	2024-11-08T19:00:00	2	Temperatura media	17.7
110858	7	Sololá	713	San Lucas Tolimán	10	San Lucas Tolimán	3	Marzo	2023-07-03T00:00:00	2024-11-08T19:00:00	4	Temperatura máxima	18.2
110859	7	Sololá	713	San Lucas Tolimán	10	San Lucas Tolimán	3	Marzo	2023-07-03T00:00:00	2024-11-08T19:00:00	3	Temperatura mínima	17.7
110860	7	Sololá	713	San Lucas Tolimán	10	San Lucas Tolimán	3	Marzo	2023-07-03T00:00:00	2024-11-08T19:00:00	5	Humedad	63
110861	7	Sololá	713	San Lucas Tolimán	10	San Lucas Tolimán	3	Marzo	2023-07-03T00:00:00	2024-11-08T19:00:00	6	Velocidad del viento	6.4
110862	7	Sololá	713	San Lucas Tolimán	10	San Lucas Tolimán	3	Marzo	2023-07-03T00:00:00	2024-11-08T19:00:00	7	Dirección del viento	6.44
110863	7	Sololá	713	San Lucas Tolimán	10	San Lucas Tolimán	3	Marzo	2023-07-03T00:00:00	2024-11-08T19:00:00	1	Precipitación	0
110864	7	Sololá	713	San Lucas Tolimán	10	San Lucas Tolimán	3	Marzo	2023-07-03T00:00:00	2024-11-08T19:00:00	8	Radiación solar	0
110865	7	Sololá	713	San Lucas Tolimán	10	San Lucas Tolimán	3	Marzo	2023-07-03T00:00:00	2024-11-08T20:00:00	2	Temperatura media	17.6
110866	7	Sololá	713	San Lucas Tolimán	10	San Lucas Tolimán	3	Marzo	2023-07-03T00:00:00	2024-11-08T20:00:00	4	Temperatura máxima	17.8
110867	7	Sololá	713	San Lucas Tolimán	10	San Lucas Tolimán	3	Marzo	2023-07-03T00:00:00	2024-11-08T20:00:00	3	Temperatura mínima	17.6
110868	7	Sololá	713	San Lucas Tolimán	10	San Lucas Tolimán	3	Marzo	2023-07-03T00:00:00	2024-11-08T20:00:00	5	Humedad	62
110869	7	Sololá	713	San Lucas Tolimán	10	San Lucas Tolimán	3	Marzo	2023-07-03T00:00:00	2024-11-08T20:00:00	6	Velocidad del viento	6.4
110870	7	Sololá	713	San Lucas Tolimán	10	San Lucas Tolimán	3	Marzo	2023-07-03T00:00:00	2024-11-08T20:00:00	7	Dirección del viento	6.44
110871	7	Sololá	713	San Lucas Tolimán	10	San Lucas Tolimán	3	Marzo	2023-07-03T00:00:00	2024-11-08T20:00:00	1	Precipitación	0
110872	7	Sololá	713	San Lucas Tolimán	10	San Lucas Tolimán	3	Marzo	2023-07-03T00:00:00	2024-11-08T20:00:00	8	Radiación solar	0
110873	7	Sololá	713	San Lucas Tolimán	10	San Lucas Tolimán	3	Marzo	2023-07-03T00:00:00	2024-11-08T21:00:00	2	Temperatura media	17.3
110874	7	Sololá	713	San Lucas Tolimán	10	San Lucas Tolimán	3	Marzo	2023-07-03T00:00:00	2024-11-08T21:00:00	4	Temperatura máxima	17.7
110875	7	Sololá	713	San Lucas Tolimán	10	San Lucas Tolimán	3	Marzo	2023-07-03T00:00:00	2024-11-08T21:00:00	3	Temperatura mínima	17.2
110876	7	Sololá	713	San Lucas Tolimán	10	San Lucas Tolimán	3	Marzo	2023-07-03T00:00:00	2024-11-08T21:00:00	5	Humedad	63
110877	7	Sololá	713	San Lucas Tolimán	10	San Lucas Tolimán	3	Marzo	2023-07-03T00:00:00	2024-11-08T21:00:00	6	Velocidad del viento	4.8
110878	7	Sololá	713	San Lucas Tolimán	10	San Lucas Tolimán	3	Marzo	2023-07-03T00:00:00	2024-11-08T21:00:00	7	Dirección del viento	4.83
110879	7	Sololá	713	San Lucas Tolimán	10	San Lucas Tolimán	3	Marzo	2023-07-03T00:00:00	2024-11-08T21:00:00	1	Precipitación	0
110880	7	Sololá	713	San Lucas Tolimán	10	San Lucas Tolimán	3	Marzo	2023-07-03T00:00:00	2024-11-08T21:00:00	8	Radiación solar	0
110881	7	Sololá	713	San Lucas Tolimán	10	San Lucas Tolimán	3	Marzo	2023-07-03T00:00:00	2024-11-08T22:00:00	2	Temperatura media	17.1
110882	7	Sololá	713	San Lucas Tolimán	10	San Lucas Tolimán	3	Marzo	2023-07-03T00:00:00	2024-11-08T22:00:00	4	Temperatura máxima	17.4
110883	7	Sololá	713	San Lucas Tolimán	10	San Lucas Tolimán	3	Marzo	2023-07-03T00:00:00	2024-11-08T22:00:00	3	Temperatura mínima	16.9
110884	7	Sololá	713	San Lucas Tolimán	10	San Lucas Tolimán	3	Marzo	2023-07-03T00:00:00	2024-11-08T22:00:00	5	Humedad	58
110885	7	Sololá	713	San Lucas Tolimán	10	San Lucas Tolimán	3	Marzo	2023-07-03T00:00:00	2024-11-08T22:00:00	6	Velocidad del viento	3.2
110886	7	Sololá	713	San Lucas Tolimán	10	San Lucas Tolimán	3	Marzo	2023-07-03T00:00:00	2024-11-08T22:00:00	7	Dirección del viento	3.22
110887	7	Sololá	713	San Lucas Tolimán	10	San Lucas Tolimán	3	Marzo	2023-07-03T00:00:00	2024-11-08T22:00:00	1	Precipitación	0
110888	7	Sololá	713	San Lucas Tolimán	10	San Lucas Tolimán	3	Marzo	2023-07-03T00:00:00	2024-11-08T22:00:00	8	Radiación solar	0
110889	7	Sololá	713	San Lucas Tolimán	10	San Lucas Tolimán	3	Marzo	2023-07-03T00:00:00	2024-11-08T23:00:00	2	Temperatura media	16.6
110890	7	Sololá	713	San Lucas Tolimán	10	San Lucas Tolimán	3	Marzo	2023-07-03T00:00:00	2024-11-08T23:00:00	4	Temperatura máxima	17.3
110891	7	Sololá	713	San Lucas Tolimán	10	San Lucas Tolimán	3	Marzo	2023-07-03T00:00:00	2024-11-08T23:00:00	3	Temperatura mínima	16.5
110892	7	Sololá	713	San Lucas Tolimán	10	San Lucas Tolimán	3	Marzo	2023-07-03T00:00:00	2024-11-08T23:00:00	5	Humedad	61
110893	7	Sololá	713	San Lucas Tolimán	10	San Lucas Tolimán	3	Marzo	2023-07-03T00:00:00	2024-11-08T23:00:00	6	Velocidad del viento	3.2
110894	7	Sololá	713	San Lucas Tolimán	10	San Lucas Tolimán	3	Marzo	2023-07-03T00:00:00	2024-11-08T23:00:00	7	Dirección del viento	3.22
110895	7	Sololá	713	San Lucas Tolimán	10	San Lucas Tolimán	3	Marzo	2023-07-03T00:00:00	2024-11-08T23:00:00	1	Precipitación	0
110896	7	Sololá	713	San Lucas Tolimán	10	San Lucas Tolimán	3	Marzo	2023-07-03T00:00:00	2024-11-08T23:00:00	8	Radiación solar	0
110897	7	Sololá	713	San Lucas Tolimán	10	San Lucas Tolimán	3	Marzo	2023-08-03T00:00:00	2024-11-08T00:00:00	2	Temperatura media	16.2
110898	7	Sololá	713	San Lucas Tolimán	10	San Lucas Tolimán	3	Marzo	2023-08-03T00:00:00	2024-11-08T00:00:00	4	Temperatura máxima	16.6
110899	7	Sololá	713	San Lucas Tolimán	10	San Lucas Tolimán	3	Marzo	2023-08-03T00:00:00	2024-11-08T00:00:00	3	Temperatura mínima	16.2
110900	7	Sololá	713	San Lucas Tolimán	10	San Lucas Tolimán	3	Marzo	2023-08-03T00:00:00	2024-11-08T00:00:00	5	Humedad	62
110901	7	Sololá	713	San Lucas Tolimán	10	San Lucas Tolimán	3	Marzo	2023-08-03T00:00:00	2024-11-08T00:00:00	6	Velocidad del viento	4.8
110902	7	Sololá	713	San Lucas Tolimán	10	San Lucas Tolimán	3	Marzo	2023-08-03T00:00:00	2024-11-08T00:00:00	7	Dirección del viento	4.83
110903	7	Sololá	713	San Lucas Tolimán	10	San Lucas Tolimán	3	Marzo	2023-08-03T00:00:00	2024-11-08T00:00:00	1	Precipitación	0
110904	7	Sololá	713	San Lucas Tolimán	10	San Lucas Tolimán	3	Marzo	2023-08-03T00:00:00	2024-11-08T00:00:00	8	Radiación solar	0
110905	7	Sololá	713	San Lucas Tolimán	10	San Lucas Tolimán	3	Marzo	2023-08-03T00:00:00	2024-11-08T01:00:00	2	Temperatura media	16.5
110906	7	Sololá	713	San Lucas Tolimán	10	San Lucas Tolimán	3	Marzo	2023-08-03T00:00:00	2024-11-08T01:00:00	4	Temperatura máxima	16.6
110907	7	Sololá	713	San Lucas Tolimán	10	San Lucas Tolimán	3	Marzo	2023-08-03T00:00:00	2024-11-08T01:00:00	3	Temperatura mínima	15.7
110908	7	Sololá	713	San Lucas Tolimán	10	San Lucas Tolimán	3	Marzo	2023-08-03T00:00:00	2024-11-08T01:00:00	5	Humedad	59
110909	7	Sololá	713	San Lucas Tolimán	10	San Lucas Tolimán	3	Marzo	2023-08-03T00:00:00	2024-11-08T01:00:00	6	Velocidad del viento	4.8
110910	7	Sololá	713	San Lucas Tolimán	10	San Lucas Tolimán	3	Marzo	2023-08-03T00:00:00	2024-11-08T01:00:00	7	Dirección del viento	4.83
110911	7	Sololá	713	San Lucas Tolimán	10	San Lucas Tolimán	3	Marzo	2023-08-03T00:00:00	2024-11-08T01:00:00	1	Precipitación	0
110912	7	Sololá	713	San Lucas Tolimán	10	San Lucas Tolimán	3	Marzo	2023-08-03T00:00:00	2024-11-08T01:00:00	8	Radiación solar	0
110913	7	Sololá	713	San Lucas Tolimán	10	San Lucas Tolimán	3	Marzo	2023-08-03T00:00:00	2024-11-08T02:00:00	2	Temperatura media	15.5
110914	7	Sololá	713	San Lucas Tolimán	10	San Lucas Tolimán	3	Marzo	2023-08-03T00:00:00	2024-11-08T02:00:00	4	Temperatura máxima	16.6
110915	7	Sololá	713	San Lucas Tolimán	10	San Lucas Tolimán	3	Marzo	2023-08-03T00:00:00	2024-11-08T02:00:00	3	Temperatura mínima	15.5
110916	7	Sololá	713	San Lucas Tolimán	10	San Lucas Tolimán	3	Marzo	2023-08-03T00:00:00	2024-11-08T02:00:00	5	Humedad	60
110917	7	Sololá	713	San Lucas Tolimán	10	San Lucas Tolimán	3	Marzo	2023-08-03T00:00:00	2024-11-08T02:00:00	6	Velocidad del viento	3.2
110918	7	Sololá	713	San Lucas Tolimán	10	San Lucas Tolimán	3	Marzo	2023-08-03T00:00:00	2024-11-08T02:00:00	7	Dirección del viento	3.22
110919	7	Sololá	713	San Lucas Tolimán	10	San Lucas Tolimán	3	Marzo	2023-08-03T00:00:00	2024-11-08T02:00:00	1	Precipitación	0
110920	7	Sololá	713	San Lucas Tolimán	10	San Lucas Tolimán	3	Marzo	2023-08-03T00:00:00	2024-11-08T02:00:00	8	Radiación solar	0
110921	7	Sololá	713	San Lucas Tolimán	10	San Lucas Tolimán	3	Marzo	2023-08-03T00:00:00	2024-11-08T03:00:00	2	Temperatura media	15.5
110922	7	Sololá	713	San Lucas Tolimán	10	San Lucas Tolimán	3	Marzo	2023-08-03T00:00:00	2024-11-08T03:00:00	4	Temperatura máxima	15.6
110923	7	Sololá	713	San Lucas Tolimán	10	San Lucas Tolimán	3	Marzo	2023-08-03T00:00:00	2024-11-08T03:00:00	3	Temperatura mínima	15.3
110924	7	Sololá	713	San Lucas Tolimán	10	San Lucas Tolimán	3	Marzo	2023-08-03T00:00:00	2024-11-08T03:00:00	5	Humedad	59
110925	7	Sololá	713	San Lucas Tolimán	10	San Lucas Tolimán	3	Marzo	2023-08-03T00:00:00	2024-11-08T03:00:00	6	Velocidad del viento	3.2
110926	7	Sololá	713	San Lucas Tolimán	10	San Lucas Tolimán	3	Marzo	2023-08-03T00:00:00	2024-11-08T03:00:00	7	Dirección del viento	3.22
110927	7	Sololá	713	San Lucas Tolimán	10	San Lucas Tolimán	3	Marzo	2023-08-03T00:00:00	2024-11-08T03:00:00	1	Precipitación	0
110928	7	Sololá	713	San Lucas Tolimán	10	San Lucas Tolimán	3	Marzo	2023-08-03T00:00:00	2024-11-08T03:00:00	8	Radiación solar	0
110929	7	Sololá	713	San Lucas Tolimán	10	San Lucas Tolimán	3	Marzo	2023-08-03T00:00:00	2024-11-08T04:00:00	2	Temperatura media	15.3
110930	7	Sololá	713	San Lucas Tolimán	10	San Lucas Tolimán	3	Marzo	2023-08-03T00:00:00	2024-11-08T04:00:00	4	Temperatura máxima	15.6
110931	7	Sololá	713	San Lucas Tolimán	10	San Lucas Tolimán	3	Marzo	2023-08-03T00:00:00	2024-11-08T04:00:00	3	Temperatura mínima	15.2
110932	7	Sololá	713	San Lucas Tolimán	10	San Lucas Tolimán	3	Marzo	2023-08-03T00:00:00	2024-11-08T04:00:00	5	Humedad	61
110933	7	Sololá	713	San Lucas Tolimán	10	San Lucas Tolimán	3	Marzo	2023-08-03T00:00:00	2024-11-08T04:00:00	6	Velocidad del viento	1.6
110934	7	Sololá	713	San Lucas Tolimán	10	San Lucas Tolimán	3	Marzo	2023-08-03T00:00:00	2024-11-08T04:00:00	7	Dirección del viento	1.61
110935	7	Sololá	713	San Lucas Tolimán	10	San Lucas Tolimán	3	Marzo	2023-08-03T00:00:00	2024-11-08T04:00:00	1	Precipitación	0
110936	7	Sololá	713	San Lucas Tolimán	10	San Lucas Tolimán	3	Marzo	2023-08-03T00:00:00	2024-11-08T04:00:00	8	Radiación solar	0
110937	7	Sololá	713	San Lucas Tolimán	10	San Lucas Tolimán	3	Marzo	2023-08-03T00:00:00	2024-11-08T05:00:00	2	Temperatura media	14.5
110938	7	Sololá	713	San Lucas Tolimán	10	San Lucas Tolimán	3	Marzo	2023-08-03T00:00:00	2024-11-08T05:00:00	4	Temperatura máxima	15.3
110939	7	Sololá	713	San Lucas Tolimán	10	San Lucas Tolimán	3	Marzo	2023-08-03T00:00:00	2024-11-08T05:00:00	3	Temperatura mínima	14.5
110940	7	Sololá	713	San Lucas Tolimán	10	San Lucas Tolimán	3	Marzo	2023-08-03T00:00:00	2024-11-08T05:00:00	5	Humedad	61
110941	7	Sololá	713	San Lucas Tolimán	10	San Lucas Tolimán	3	Marzo	2023-08-03T00:00:00	2024-11-08T05:00:00	6	Velocidad del viento	1.6
110942	7	Sololá	713	San Lucas Tolimán	10	San Lucas Tolimán	3	Marzo	2023-08-03T00:00:00	2024-11-08T05:00:00	7	Dirección del viento	1.61
110943	7	Sololá	713	San Lucas Tolimán	10	San Lucas Tolimán	3	Marzo	2023-08-03T00:00:00	2024-11-08T05:00:00	1	Precipitación	0
110944	7	Sololá	713	San Lucas Tolimán	10	San Lucas Tolimán	3	Marzo	2023-08-03T00:00:00	2024-11-08T05:00:00	8	Radiación solar	0
110945	7	Sololá	713	San Lucas Tolimán	10	San Lucas Tolimán	3	Marzo	2023-08-03T00:00:00	2024-11-08T06:00:00	2	Temperatura media	14.8
110946	7	Sololá	713	San Lucas Tolimán	10	San Lucas Tolimán	3	Marzo	2023-08-03T00:00:00	2024-11-08T06:00:00	4	Temperatura máxima	14.8
110947	7	Sololá	713	San Lucas Tolimán	10	San Lucas Tolimán	3	Marzo	2023-08-03T00:00:00	2024-11-08T06:00:00	3	Temperatura mínima	14.4
110948	7	Sololá	713	San Lucas Tolimán	10	San Lucas Tolimán	3	Marzo	2023-08-03T00:00:00	2024-11-08T06:00:00	5	Humedad	61
110949	7	Sololá	713	San Lucas Tolimán	10	San Lucas Tolimán	3	Marzo	2023-08-03T00:00:00	2024-11-08T06:00:00	6	Velocidad del viento	3.2
110950	7	Sololá	713	San Lucas Tolimán	10	San Lucas Tolimán	3	Marzo	2023-08-03T00:00:00	2024-11-08T06:00:00	7	Dirección del viento	3.22
110951	7	Sololá	713	San Lucas Tolimán	10	San Lucas Tolimán	3	Marzo	2023-08-03T00:00:00	2024-11-08T06:00:00	1	Precipitación	0
110952	7	Sololá	713	San Lucas Tolimán	10	San Lucas Tolimán	3	Marzo	2023-08-03T00:00:00	2024-11-08T06:00:00	8	Radiación solar	0
110953	7	Sololá	713	San Lucas Tolimán	10	San Lucas Tolimán	3	Marzo	2023-08-03T00:00:00	2024-11-08T07:00:00	2	Temperatura media	14.8
110954	7	Sololá	713	San Lucas Tolimán	10	San Lucas Tolimán	3	Marzo	2023-08-03T00:00:00	2024-11-08T07:00:00	4	Temperatura máxima	14.9
110955	7	Sololá	713	San Lucas Tolimán	10	San Lucas Tolimán	3	Marzo	2023-08-03T00:00:00	2024-11-08T07:00:00	3	Temperatura mínima	14.7
110956	7	Sololá	713	San Lucas Tolimán	10	San Lucas Tolimán	3	Marzo	2023-08-03T00:00:00	2024-11-08T07:00:00	5	Humedad	61
110957	7	Sololá	713	San Lucas Tolimán	10	San Lucas Tolimán	3	Marzo	2023-08-03T00:00:00	2024-11-08T07:00:00	6	Velocidad del viento	4.8
110958	7	Sololá	713	San Lucas Tolimán	10	San Lucas Tolimán	3	Marzo	2023-08-03T00:00:00	2024-11-08T07:00:00	7	Dirección del viento	4.83
110959	7	Sololá	713	San Lucas Tolimán	10	San Lucas Tolimán	3	Marzo	2023-08-03T00:00:00	2024-11-08T07:00:00	1	Precipitación	0
110960	7	Sololá	713	San Lucas Tolimán	10	San Lucas Tolimán	3	Marzo	2023-08-03T00:00:00	2024-11-08T07:00:00	8	Radiación solar	10
110961	7	Sololá	713	San Lucas Tolimán	10	San Lucas Tolimán	3	Marzo	2023-08-03T00:00:00	2024-11-08T08:00:00	2	Temperatura media	18.1
110962	7	Sololá	713	San Lucas Tolimán	10	San Lucas Tolimán	3	Marzo	2023-08-03T00:00:00	2024-11-08T08:00:00	4	Temperatura máxima	18.1
110963	7	Sololá	713	San Lucas Tolimán	10	San Lucas Tolimán	3	Marzo	2023-08-03T00:00:00	2024-11-08T08:00:00	3	Temperatura mínima	14.8
110964	7	Sololá	713	San Lucas Tolimán	10	San Lucas Tolimán	3	Marzo	2023-08-03T00:00:00	2024-11-08T08:00:00	5	Humedad	56
110965	7	Sololá	713	San Lucas Tolimán	10	San Lucas Tolimán	3	Marzo	2023-08-03T00:00:00	2024-11-08T08:00:00	6	Velocidad del viento	1.6
110966	7	Sololá	713	San Lucas Tolimán	10	San Lucas Tolimán	3	Marzo	2023-08-03T00:00:00	2024-11-08T08:00:00	7	Dirección del viento	1.61
110967	7	Sololá	713	San Lucas Tolimán	10	San Lucas Tolimán	3	Marzo	2023-08-03T00:00:00	2024-11-08T08:00:00	1	Precipitación	0
110968	7	Sololá	713	San Lucas Tolimán	10	San Lucas Tolimán	3	Marzo	2023-08-03T00:00:00	2024-11-08T08:00:00	8	Radiación solar	193
110969	7	Sololá	713	San Lucas Tolimán	10	San Lucas Tolimán	3	Marzo	2023-08-03T00:00:00	2024-11-08T09:00:00	2	Temperatura media	18.8
110970	7	Sololá	713	San Lucas Tolimán	10	San Lucas Tolimán	3	Marzo	2023-08-03T00:00:00	2024-11-08T09:00:00	4	Temperatura máxima	19.2
110971	7	Sololá	713	San Lucas Tolimán	10	San Lucas Tolimán	3	Marzo	2023-08-03T00:00:00	2024-11-08T09:00:00	3	Temperatura mínima	18.1
110972	7	Sololá	713	San Lucas Tolimán	10	San Lucas Tolimán	3	Marzo	2023-08-03T00:00:00	2024-11-08T09:00:00	5	Humedad	56
110973	7	Sololá	713	San Lucas Tolimán	10	San Lucas Tolimán	3	Marzo	2023-08-03T00:00:00	2024-11-08T09:00:00	6	Velocidad del viento	1.6
110974	7	Sololá	713	San Lucas Tolimán	10	San Lucas Tolimán	3	Marzo	2023-08-03T00:00:00	2024-11-08T09:00:00	7	Dirección del viento	1.61
110975	7	Sololá	713	San Lucas Tolimán	10	San Lucas Tolimán	3	Marzo	2023-08-03T00:00:00	2024-11-08T09:00:00	1	Precipitación	0
110976	7	Sololá	713	San Lucas Tolimán	10	San Lucas Tolimán	3	Marzo	2023-08-03T00:00:00	2024-11-08T09:00:00	8	Radiación solar	322
110977	7	Sololá	713	San Lucas Tolimán	10	San Lucas Tolimán	3	Marzo	2023-08-03T00:00:00	2024-11-08T10:00:00	2	Temperatura media	18.8
110978	7	Sololá	713	San Lucas Tolimán	10	San Lucas Tolimán	3	Marzo	2023-08-03T00:00:00	2024-11-08T10:00:00	4	Temperatura máxima	19.3
110979	7	Sololá	713	San Lucas Tolimán	10	San Lucas Tolimán	3	Marzo	2023-08-03T00:00:00	2024-11-08T10:00:00	3	Temperatura mínima	18.6
110980	7	Sololá	713	San Lucas Tolimán	10	San Lucas Tolimán	3	Marzo	2023-08-03T00:00:00	2024-11-08T10:00:00	5	Humedad	59
110981	7	Sololá	713	San Lucas Tolimán	10	San Lucas Tolimán	3	Marzo	2023-08-03T00:00:00	2024-11-08T10:00:00	6	Velocidad del viento	4.8
110982	7	Sololá	713	San Lucas Tolimán	10	San Lucas Tolimán	3	Marzo	2023-08-03T00:00:00	2024-11-08T10:00:00	7	Dirección del viento	4.83
110983	7	Sololá	713	San Lucas Tolimán	10	San Lucas Tolimán	3	Marzo	2023-08-03T00:00:00	2024-11-08T10:00:00	1	Precipitación	0
110984	7	Sololá	713	San Lucas Tolimán	10	San Lucas Tolimán	3	Marzo	2023-08-03T00:00:00	2024-11-08T10:00:00	8	Radiación solar	199
110985	7	Sololá	713	San Lucas Tolimán	10	San Lucas Tolimán	3	Marzo	2023-08-03T00:00:00	2024-11-08T11:00:00	2	Temperatura media	19.6
110986	7	Sololá	713	San Lucas Tolimán	10	San Lucas Tolimán	3	Marzo	2023-08-03T00:00:00	2024-11-08T11:00:00	4	Temperatura máxima	20.2
110987	7	Sololá	713	San Lucas Tolimán	10	San Lucas Tolimán	3	Marzo	2023-08-03T00:00:00	2024-11-08T11:00:00	3	Temperatura mínima	18.8
110988	7	Sololá	713	San Lucas Tolimán	10	San Lucas Tolimán	3	Marzo	2023-08-03T00:00:00	2024-11-08T11:00:00	5	Humedad	57
110989	7	Sololá	713	San Lucas Tolimán	10	San Lucas Tolimán	3	Marzo	2023-08-03T00:00:00	2024-11-08T11:00:00	6	Velocidad del viento	6.4
110990	7	Sololá	713	San Lucas Tolimán	10	San Lucas Tolimán	3	Marzo	2023-08-03T00:00:00	2024-11-08T11:00:00	7	Dirección del viento	6.44
110991	7	Sololá	713	San Lucas Tolimán	10	San Lucas Tolimán	3	Marzo	2023-08-03T00:00:00	2024-11-08T11:00:00	1	Precipitación	0
110992	7	Sololá	713	San Lucas Tolimán	10	San Lucas Tolimán	3	Marzo	2023-08-03T00:00:00	2024-11-08T11:00:00	8	Radiación solar	426
110993	7	Sololá	713	San Lucas Tolimán	10	San Lucas Tolimán	3	Marzo	2023-08-03T00:00:00	2024-11-08T12:00:00	2	Temperatura media	20.9
110994	7	Sololá	713	San Lucas Tolimán	10	San Lucas Tolimán	3	Marzo	2023-08-03T00:00:00	2024-11-08T12:00:00	4	Temperatura máxima	21.6
110995	7	Sololá	713	San Lucas Tolimán	10	San Lucas Tolimán	3	Marzo	2023-08-03T00:00:00	2024-11-08T12:00:00	3	Temperatura mínima	18.9
110996	7	Sololá	713	San Lucas Tolimán	10	San Lucas Tolimán	3	Marzo	2023-08-03T00:00:00	2024-11-08T12:00:00	5	Humedad	52
110997	7	Sololá	713	San Lucas Tolimán	10	San Lucas Tolimán	3	Marzo	2023-08-03T00:00:00	2024-11-08T12:00:00	6	Velocidad del viento	11.3
110998	7	Sololá	713	San Lucas Tolimán	10	San Lucas Tolimán	3	Marzo	2023-08-03T00:00:00	2024-11-08T12:00:00	7	Dirección del viento	11.27
110999	7	Sololá	713	San Lucas Tolimán	10	San Lucas Tolimán	3	Marzo	2023-08-03T00:00:00	2024-11-08T12:00:00	1	Precipitación	0
111000	7	Sololá	713	San Lucas Tolimán	10	San Lucas Tolimán	3	Marzo	2023-08-03T00:00:00	2024-11-08T12:00:00	8	Radiación solar	926
111001	7	Sololá	713	San Lucas Tolimán	10	San Lucas Tolimán	3	Marzo	2023-08-03T00:00:00	2024-11-08T13:00:00	2	Temperatura media	21.8
111002	7	Sololá	713	San Lucas Tolimán	10	San Lucas Tolimán	3	Marzo	2023-08-03T00:00:00	2024-11-08T13:00:00	4	Temperatura máxima	22.2
111003	7	Sololá	713	San Lucas Tolimán	10	San Lucas Tolimán	3	Marzo	2023-08-03T00:00:00	2024-11-08T13:00:00	3	Temperatura mínima	20.9
111004	7	Sololá	713	San Lucas Tolimán	10	San Lucas Tolimán	3	Marzo	2023-08-03T00:00:00	2024-11-08T13:00:00	5	Humedad	54
111005	7	Sololá	713	San Lucas Tolimán	10	San Lucas Tolimán	3	Marzo	2023-08-03T00:00:00	2024-11-08T13:00:00	6	Velocidad del viento	11.3
111006	7	Sololá	713	San Lucas Tolimán	10	San Lucas Tolimán	3	Marzo	2023-08-03T00:00:00	2024-11-08T13:00:00	7	Dirección del viento	11.27
111007	7	Sololá	713	San Lucas Tolimán	10	San Lucas Tolimán	3	Marzo	2023-08-03T00:00:00	2024-11-08T13:00:00	1	Precipitación	0
111008	7	Sololá	713	San Lucas Tolimán	10	San Lucas Tolimán	3	Marzo	2023-08-03T00:00:00	2024-11-08T13:00:00	8	Radiación solar	1019
111009	7	Sololá	713	San Lucas Tolimán	10	San Lucas Tolimán	3	Marzo	2023-08-03T00:00:00	2024-11-08T14:00:00	2	Temperatura media	20.4
111010	7	Sololá	713	San Lucas Tolimán	10	San Lucas Tolimán	3	Marzo	2023-08-03T00:00:00	2024-11-08T14:00:00	4	Temperatura máxima	22.2
111011	7	Sololá	713	San Lucas Tolimán	10	San Lucas Tolimán	3	Marzo	2023-08-03T00:00:00	2024-11-08T14:00:00	3	Temperatura mínima	20.4
111012	7	Sololá	713	San Lucas Tolimán	10	San Lucas Tolimán	3	Marzo	2023-08-03T00:00:00	2024-11-08T14:00:00	5	Humedad	56
111013	7	Sololá	713	San Lucas Tolimán	10	San Lucas Tolimán	3	Marzo	2023-08-03T00:00:00	2024-11-08T14:00:00	6	Velocidad del viento	9.7
111014	7	Sololá	713	San Lucas Tolimán	10	San Lucas Tolimán	3	Marzo	2023-08-03T00:00:00	2024-11-08T14:00:00	7	Dirección del viento	9.66
111015	7	Sololá	713	San Lucas Tolimán	10	San Lucas Tolimán	3	Marzo	2023-08-03T00:00:00	2024-11-08T14:00:00	1	Precipitación	0
111016	7	Sololá	713	San Lucas Tolimán	10	San Lucas Tolimán	3	Marzo	2023-08-03T00:00:00	2024-11-08T14:00:00	8	Radiación solar	823
111017	7	Sololá	713	San Lucas Tolimán	10	San Lucas Tolimán	3	Marzo	2023-08-03T00:00:00	2024-11-08T15:00:00	2	Temperatura media	20.4
111018	7	Sololá	713	San Lucas Tolimán	10	San Lucas Tolimán	3	Marzo	2023-08-03T00:00:00	2024-11-08T15:00:00	4	Temperatura máxima	20.6
111019	7	Sololá	713	San Lucas Tolimán	10	San Lucas Tolimán	3	Marzo	2023-08-03T00:00:00	2024-11-08T15:00:00	3	Temperatura mínima	19.7
111020	7	Sololá	713	San Lucas Tolimán	10	San Lucas Tolimán	3	Marzo	2023-08-03T00:00:00	2024-11-08T15:00:00	5	Humedad	58
111021	7	Sololá	713	San Lucas Tolimán	10	San Lucas Tolimán	3	Marzo	2023-08-03T00:00:00	2024-11-08T15:00:00	6	Velocidad del viento	11.3
111022	7	Sololá	713	San Lucas Tolimán	10	San Lucas Tolimán	3	Marzo	2023-08-03T00:00:00	2024-11-08T15:00:00	7	Dirección del viento	11.27
111023	7	Sololá	713	San Lucas Tolimán	10	San Lucas Tolimán	3	Marzo	2023-08-03T00:00:00	2024-11-08T15:00:00	1	Precipitación	0
111024	7	Sololá	713	San Lucas Tolimán	10	San Lucas Tolimán	3	Marzo	2023-08-03T00:00:00	2024-11-08T15:00:00	8	Radiación solar	501
111025	7	Sololá	713	San Lucas Tolimán	10	San Lucas Tolimán	3	Marzo	2023-08-03T00:00:00	2024-11-08T16:00:00	2	Temperatura media	19.4
111026	7	Sololá	713	San Lucas Tolimán	10	San Lucas Tolimán	3	Marzo	2023-08-03T00:00:00	2024-11-08T16:00:00	4	Temperatura máxima	20.4
111027	7	Sololá	713	San Lucas Tolimán	10	San Lucas Tolimán	3	Marzo	2023-08-03T00:00:00	2024-11-08T16:00:00	3	Temperatura mínima	19.4
111028	7	Sololá	713	San Lucas Tolimán	10	San Lucas Tolimán	3	Marzo	2023-08-03T00:00:00	2024-11-08T16:00:00	5	Humedad	62
111029	7	Sololá	713	San Lucas Tolimán	10	San Lucas Tolimán	3	Marzo	2023-08-03T00:00:00	2024-11-08T16:00:00	6	Velocidad del viento	8
111030	7	Sololá	713	San Lucas Tolimán	10	San Lucas Tolimán	3	Marzo	2023-08-03T00:00:00	2024-11-08T16:00:00	7	Dirección del viento	8.05
111031	7	Sololá	713	San Lucas Tolimán	10	San Lucas Tolimán	3	Marzo	2023-08-03T00:00:00	2024-11-08T16:00:00	1	Precipitación	0
111032	7	Sololá	713	San Lucas Tolimán	10	San Lucas Tolimán	3	Marzo	2023-08-03T00:00:00	2024-11-08T16:00:00	8	Radiación solar	263
111033	7	Sololá	713	San Lucas Tolimán	10	San Lucas Tolimán	3	Marzo	2023-08-03T00:00:00	2024-11-08T17:00:00	2	Temperatura media	17.8
111034	7	Sololá	713	San Lucas Tolimán	10	San Lucas Tolimán	3	Marzo	2023-08-03T00:00:00	2024-11-08T17:00:00	4	Temperatura máxima	19.4
111035	7	Sololá	713	San Lucas Tolimán	10	San Lucas Tolimán	3	Marzo	2023-08-03T00:00:00	2024-11-08T17:00:00	3	Temperatura mínima	17.8
111036	7	Sololá	713	San Lucas Tolimán	10	San Lucas Tolimán	3	Marzo	2023-08-03T00:00:00	2024-11-08T17:00:00	5	Humedad	62
111037	7	Sololá	713	San Lucas Tolimán	10	San Lucas Tolimán	3	Marzo	2023-08-03T00:00:00	2024-11-08T17:00:00	6	Velocidad del viento	9.7
111038	7	Sololá	713	San Lucas Tolimán	10	San Lucas Tolimán	3	Marzo	2023-08-03T00:00:00	2024-11-08T17:00:00	7	Dirección del viento	9.66
111039	7	Sololá	713	San Lucas Tolimán	10	San Lucas Tolimán	3	Marzo	2023-08-03T00:00:00	2024-11-08T17:00:00	1	Precipitación	0
111040	7	Sololá	713	San Lucas Tolimán	10	San Lucas Tolimán	3	Marzo	2023-08-03T00:00:00	2024-11-08T17:00:00	8	Radiación solar	88
111041	7	Sololá	713	San Lucas Tolimán	10	San Lucas Tolimán	3	Marzo	2023-08-03T00:00:00	2024-11-08T18:00:00	2	Temperatura media	17.7
111042	7	Sololá	713	San Lucas Tolimán	10	San Lucas Tolimán	3	Marzo	2023-08-03T00:00:00	2024-11-08T18:00:00	4	Temperatura máxima	18.1
111043	7	Sololá	713	San Lucas Tolimán	10	San Lucas Tolimán	3	Marzo	2023-08-03T00:00:00	2024-11-08T18:00:00	3	Temperatura mínima	17.6
111044	7	Sololá	713	San Lucas Tolimán	10	San Lucas Tolimán	3	Marzo	2023-08-03T00:00:00	2024-11-08T18:00:00	5	Humedad	62
111045	7	Sololá	713	San Lucas Tolimán	10	San Lucas Tolimán	3	Marzo	2023-08-03T00:00:00	2024-11-08T18:00:00	6	Velocidad del viento	8
111046	7	Sololá	713	San Lucas Tolimán	10	San Lucas Tolimán	3	Marzo	2023-08-03T00:00:00	2024-11-08T18:00:00	7	Dirección del viento	8.05
111047	7	Sololá	713	San Lucas Tolimán	10	San Lucas Tolimán	3	Marzo	2023-08-03T00:00:00	2024-11-08T18:00:00	1	Precipitación	0
111048	7	Sololá	713	San Lucas Tolimán	10	San Lucas Tolimán	3	Marzo	2023-08-03T00:00:00	2024-11-08T18:00:00	8	Radiación solar	50
111049	7	Sololá	713	San Lucas Tolimán	10	San Lucas Tolimán	3	Marzo	2023-08-03T00:00:00	2024-11-08T19:00:00	2	Temperatura media	17.3
111050	7	Sololá	713	San Lucas Tolimán	10	San Lucas Tolimán	3	Marzo	2023-08-03T00:00:00	2024-11-08T19:00:00	4	Temperatura máxima	17.7
111051	7	Sololá	713	San Lucas Tolimán	10	San Lucas Tolimán	3	Marzo	2023-08-03T00:00:00	2024-11-08T19:00:00	3	Temperatura mínima	17.2
111052	7	Sololá	713	San Lucas Tolimán	10	San Lucas Tolimán	3	Marzo	2023-08-03T00:00:00	2024-11-08T19:00:00	5	Humedad	62
111053	7	Sololá	713	San Lucas Tolimán	10	San Lucas Tolimán	3	Marzo	2023-08-03T00:00:00	2024-11-08T19:00:00	6	Velocidad del viento	8
111054	7	Sololá	713	San Lucas Tolimán	10	San Lucas Tolimán	3	Marzo	2023-08-03T00:00:00	2024-11-08T19:00:00	7	Dirección del viento	8.05
111055	7	Sololá	713	San Lucas Tolimán	10	San Lucas Tolimán	3	Marzo	2023-08-03T00:00:00	2024-11-08T19:00:00	1	Precipitación	0
111056	7	Sololá	713	San Lucas Tolimán	10	San Lucas Tolimán	3	Marzo	2023-08-03T00:00:00	2024-11-08T19:00:00	8	Radiación solar	0
111057	7	Sololá	713	San Lucas Tolimán	10	San Lucas Tolimán	3	Marzo	2023-08-03T00:00:00	2024-11-08T20:00:00	2	Temperatura media	17
111058	7	Sololá	713	San Lucas Tolimán	10	San Lucas Tolimán	3	Marzo	2023-08-03T00:00:00	2024-11-08T20:00:00	4	Temperatura máxima	17.3
111059	7	Sololá	713	San Lucas Tolimán	10	San Lucas Tolimán	3	Marzo	2023-08-03T00:00:00	2024-11-08T20:00:00	3	Temperatura mínima	17
111060	7	Sololá	713	San Lucas Tolimán	10	San Lucas Tolimán	3	Marzo	2023-08-03T00:00:00	2024-11-08T20:00:00	5	Humedad	62
111061	7	Sololá	713	San Lucas Tolimán	10	San Lucas Tolimán	3	Marzo	2023-08-03T00:00:00	2024-11-08T20:00:00	6	Velocidad del viento	3.2
111062	7	Sololá	713	San Lucas Tolimán	10	San Lucas Tolimán	3	Marzo	2023-08-03T00:00:00	2024-11-08T20:00:00	7	Dirección del viento	3.22
111063	7	Sololá	713	San Lucas Tolimán	10	San Lucas Tolimán	3	Marzo	2023-08-03T00:00:00	2024-11-08T20:00:00	1	Precipitación	0
111064	7	Sololá	713	San Lucas Tolimán	10	San Lucas Tolimán	3	Marzo	2023-08-03T00:00:00	2024-11-08T20:00:00	8	Radiación solar	0
111065	7	Sololá	713	San Lucas Tolimán	10	San Lucas Tolimán	3	Marzo	2023-08-03T00:00:00	2024-11-08T21:00:00	2	Temperatura media	16.8
111066	7	Sololá	713	San Lucas Tolimán	10	San Lucas Tolimán	3	Marzo	2023-08-03T00:00:00	2024-11-08T21:00:00	4	Temperatura máxima	17.1
111067	7	Sololá	713	San Lucas Tolimán	10	San Lucas Tolimán	3	Marzo	2023-08-03T00:00:00	2024-11-08T21:00:00	3	Temperatura mínima	16.8
111068	7	Sololá	713	San Lucas Tolimán	10	San Lucas Tolimán	3	Marzo	2023-08-03T00:00:00	2024-11-08T21:00:00	5	Humedad	63
111069	7	Sololá	713	San Lucas Tolimán	10	San Lucas Tolimán	3	Marzo	2023-08-03T00:00:00	2024-11-08T21:00:00	6	Velocidad del viento	4.8
111070	7	Sololá	713	San Lucas Tolimán	10	San Lucas Tolimán	3	Marzo	2023-08-03T00:00:00	2024-11-08T21:00:00	7	Dirección del viento	4.83
111071	7	Sololá	713	San Lucas Tolimán	10	San Lucas Tolimán	3	Marzo	2023-08-03T00:00:00	2024-11-08T21:00:00	1	Precipitación	0
111072	7	Sololá	713	San Lucas Tolimán	10	San Lucas Tolimán	3	Marzo	2023-08-03T00:00:00	2024-11-08T21:00:00	8	Radiación solar	0
111073	7	Sololá	713	San Lucas Tolimán	10	San Lucas Tolimán	3	Marzo	2023-08-03T00:00:00	2024-11-08T22:00:00	2	Temperatura media	16.8
111074	7	Sololá	713	San Lucas Tolimán	10	San Lucas Tolimán	3	Marzo	2023-08-03T00:00:00	2024-11-08T22:00:00	4	Temperatura máxima	16.9
111075	7	Sololá	713	San Lucas Tolimán	10	San Lucas Tolimán	3	Marzo	2023-08-03T00:00:00	2024-11-08T22:00:00	3	Temperatura mínima	16.7
111076	7	Sololá	713	San Lucas Tolimán	10	San Lucas Tolimán	3	Marzo	2023-08-03T00:00:00	2024-11-08T22:00:00	5	Humedad	63
111077	7	Sololá	713	San Lucas Tolimán	10	San Lucas Tolimán	3	Marzo	2023-08-03T00:00:00	2024-11-08T22:00:00	6	Velocidad del viento	4.8
111078	7	Sololá	713	San Lucas Tolimán	10	San Lucas Tolimán	3	Marzo	2023-08-03T00:00:00	2024-11-08T22:00:00	7	Dirección del viento	4.83
111079	7	Sololá	713	San Lucas Tolimán	10	San Lucas Tolimán	3	Marzo	2023-08-03T00:00:00	2024-11-08T22:00:00	1	Precipitación	0
111080	7	Sololá	713	San Lucas Tolimán	10	San Lucas Tolimán	3	Marzo	2023-08-03T00:00:00	2024-11-08T22:00:00	8	Radiación solar	0
111081	7	Sololá	713	San Lucas Tolimán	10	San Lucas Tolimán	3	Marzo	2023-08-03T00:00:00	2024-11-08T23:00:00	2	Temperatura media	16.2
111082	7	Sololá	713	San Lucas Tolimán	10	San Lucas Tolimán	3	Marzo	2023-08-03T00:00:00	2024-11-08T23:00:00	4	Temperatura máxima	16.8
111083	7	Sololá	713	San Lucas Tolimán	10	San Lucas Tolimán	3	Marzo	2023-08-03T00:00:00	2024-11-08T23:00:00	3	Temperatura mínima	16.2
111084	7	Sololá	713	San Lucas Tolimán	10	San Lucas Tolimán	3	Marzo	2023-08-03T00:00:00	2024-11-08T23:00:00	5	Humedad	61
111085	7	Sololá	713	San Lucas Tolimán	10	San Lucas Tolimán	3	Marzo	2023-08-03T00:00:00	2024-11-08T23:00:00	6	Velocidad del viento	0
111086	7	Sololá	713	San Lucas Tolimán	10	San Lucas Tolimán	3	Marzo	2023-08-03T00:00:00	2024-11-08T23:00:00	7	Dirección del viento	0
111087	7	Sololá	713	San Lucas Tolimán	10	San Lucas Tolimán	3	Marzo	2023-08-03T00:00:00	2024-11-08T23:00:00	1	Precipitación	0
111088	7	Sololá	713	San Lucas Tolimán	10	San Lucas Tolimán	3	Marzo	2023-08-03T00:00:00	2024-11-08T23:00:00	8	Radiación solar	0
111089	7	Sololá	713	San Lucas Tolimán	10	San Lucas Tolimán	3	Marzo	2023-09-03T00:00:00	2024-11-08T00:00:00	2	Temperatura media	15.3
111090	7	Sololá	713	San Lucas Tolimán	10	San Lucas Tolimán	3	Marzo	2023-09-03T00:00:00	2024-11-08T00:00:00	4	Temperatura máxima	16.3
111091	7	Sololá	713	San Lucas Tolimán	10	San Lucas Tolimán	3	Marzo	2023-09-03T00:00:00	2024-11-08T00:00:00	3	Temperatura mínima	15.3
111092	7	Sololá	713	San Lucas Tolimán	10	San Lucas Tolimán	3	Marzo	2023-09-03T00:00:00	2024-11-08T00:00:00	5	Humedad	59
111093	7	Sololá	713	San Lucas Tolimán	10	San Lucas Tolimán	3	Marzo	2023-09-03T00:00:00	2024-11-08T00:00:00	6	Velocidad del viento	1.6
111094	7	Sololá	713	San Lucas Tolimán	10	San Lucas Tolimán	3	Marzo	2023-09-03T00:00:00	2024-11-08T00:00:00	7	Dirección del viento	1.61
111095	7	Sololá	713	San Lucas Tolimán	10	San Lucas Tolimán	3	Marzo	2023-09-03T00:00:00	2024-11-08T00:00:00	1	Precipitación	0
111096	7	Sololá	713	San Lucas Tolimán	10	San Lucas Tolimán	3	Marzo	2023-09-03T00:00:00	2024-11-08T00:00:00	8	Radiación solar	0
111097	7	Sololá	713	San Lucas Tolimán	10	San Lucas Tolimán	3	Marzo	2023-09-03T00:00:00	2024-11-08T01:00:00	2	Temperatura media	14.2
111098	7	Sololá	713	San Lucas Tolimán	10	San Lucas Tolimán	3	Marzo	2023-09-03T00:00:00	2024-11-08T01:00:00	4	Temperatura máxima	15.3
111099	7	Sololá	713	San Lucas Tolimán	10	San Lucas Tolimán	3	Marzo	2023-09-03T00:00:00	2024-11-08T01:00:00	3	Temperatura mínima	14.2
111100	7	Sololá	713	San Lucas Tolimán	10	San Lucas Tolimán	3	Marzo	2023-09-03T00:00:00	2024-11-08T01:00:00	5	Humedad	63
111101	7	Sololá	713	San Lucas Tolimán	10	San Lucas Tolimán	3	Marzo	2023-09-03T00:00:00	2024-11-08T01:00:00	6	Velocidad del viento	3.2
111102	7	Sololá	713	San Lucas Tolimán	10	San Lucas Tolimán	3	Marzo	2023-09-03T00:00:00	2024-11-08T01:00:00	7	Dirección del viento	3.22
111103	7	Sololá	713	San Lucas Tolimán	10	San Lucas Tolimán	3	Marzo	2023-09-03T00:00:00	2024-11-08T01:00:00	1	Precipitación	0
111104	7	Sololá	713	San Lucas Tolimán	10	San Lucas Tolimán	3	Marzo	2023-09-03T00:00:00	2024-11-08T01:00:00	8	Radiación solar	0
111105	7	Sololá	713	San Lucas Tolimán	10	San Lucas Tolimán	3	Marzo	2023-09-03T00:00:00	2024-11-08T02:00:00	2	Temperatura media	13.5
111106	7	Sololá	713	San Lucas Tolimán	10	San Lucas Tolimán	3	Marzo	2023-09-03T00:00:00	2024-11-08T02:00:00	4	Temperatura máxima	14.2
111107	7	Sololá	713	San Lucas Tolimán	10	San Lucas Tolimán	3	Marzo	2023-09-03T00:00:00	2024-11-08T02:00:00	3	Temperatura mínima	13.5
111108	7	Sololá	713	San Lucas Tolimán	10	San Lucas Tolimán	3	Marzo	2023-09-03T00:00:00	2024-11-08T02:00:00	5	Humedad	61
111109	7	Sololá	713	San Lucas Tolimán	10	San Lucas Tolimán	3	Marzo	2023-09-03T00:00:00	2024-11-08T02:00:00	6	Velocidad del viento	3.2
111110	7	Sololá	713	San Lucas Tolimán	10	San Lucas Tolimán	3	Marzo	2023-09-03T00:00:00	2024-11-08T02:00:00	7	Dirección del viento	3.22
111111	7	Sololá	713	San Lucas Tolimán	10	San Lucas Tolimán	3	Marzo	2023-09-03T00:00:00	2024-11-08T02:00:00	1	Precipitación	0
111112	7	Sololá	713	San Lucas Tolimán	10	San Lucas Tolimán	3	Marzo	2023-09-03T00:00:00	2024-11-08T02:00:00	8	Radiación solar	0
111113	7	Sololá	713	San Lucas Tolimán	10	San Lucas Tolimán	3	Marzo	2023-09-03T00:00:00	2024-11-08T03:00:00	2	Temperatura media	13.7
111114	7	Sololá	713	San Lucas Tolimán	10	San Lucas Tolimán	3	Marzo	2023-09-03T00:00:00	2024-11-08T03:00:00	4	Temperatura máxima	13.8
111115	7	Sololá	713	San Lucas Tolimán	10	San Lucas Tolimán	3	Marzo	2023-09-03T00:00:00	2024-11-08T03:00:00	3	Temperatura mínima	13.3
111116	7	Sololá	713	San Lucas Tolimán	10	San Lucas Tolimán	3	Marzo	2023-09-03T00:00:00	2024-11-08T03:00:00	5	Humedad	58
111117	7	Sololá	713	San Lucas Tolimán	10	San Lucas Tolimán	3	Marzo	2023-09-03T00:00:00	2024-11-08T03:00:00	6	Velocidad del viento	3.2
111118	7	Sololá	713	San Lucas Tolimán	10	San Lucas Tolimán	3	Marzo	2023-09-03T00:00:00	2024-11-08T03:00:00	7	Dirección del viento	3.22
111119	7	Sololá	713	San Lucas Tolimán	10	San Lucas Tolimán	3	Marzo	2023-09-03T00:00:00	2024-11-08T03:00:00	1	Precipitación	0
111120	7	Sololá	713	San Lucas Tolimán	10	San Lucas Tolimán	3	Marzo	2023-09-03T00:00:00	2024-11-08T03:00:00	8	Radiación solar	0
111121	7	Sololá	713	San Lucas Tolimán	10	San Lucas Tolimán	3	Marzo	2023-09-03T00:00:00	2024-11-08T04:00:00	2	Temperatura media	13.7
111122	7	Sololá	713	San Lucas Tolimán	10	San Lucas Tolimán	3	Marzo	2023-09-03T00:00:00	2024-11-08T04:00:00	4	Temperatura máxima	14.1
111123	7	Sololá	713	San Lucas Tolimán	10	San Lucas Tolimán	3	Marzo	2023-09-03T00:00:00	2024-11-08T04:00:00	3	Temperatura mínima	13.6
111124	7	Sololá	713	San Lucas Tolimán	10	San Lucas Tolimán	3	Marzo	2023-09-03T00:00:00	2024-11-08T04:00:00	5	Humedad	60
111125	7	Sololá	713	San Lucas Tolimán	10	San Lucas Tolimán	3	Marzo	2023-09-03T00:00:00	2024-11-08T04:00:00	6	Velocidad del viento	1.6
111126	7	Sololá	713	San Lucas Tolimán	10	San Lucas Tolimán	3	Marzo	2023-09-03T00:00:00	2024-11-08T04:00:00	7	Dirección del viento	1.61
111127	7	Sololá	713	San Lucas Tolimán	10	San Lucas Tolimán	3	Marzo	2023-09-03T00:00:00	2024-11-08T04:00:00	1	Precipitación	0
111128	7	Sololá	713	San Lucas Tolimán	10	San Lucas Tolimán	3	Marzo	2023-09-03T00:00:00	2024-11-08T04:00:00	8	Radiación solar	0
111129	7	Sololá	713	San Lucas Tolimán	10	San Lucas Tolimán	3	Marzo	2023-09-03T00:00:00	2024-11-08T05:00:00	2	Temperatura media	14.6
111130	7	Sololá	713	San Lucas Tolimán	10	San Lucas Tolimán	3	Marzo	2023-09-03T00:00:00	2024-11-08T05:00:00	4	Temperatura máxima	14.6
111131	7	Sololá	713	San Lucas Tolimán	10	San Lucas Tolimán	3	Marzo	2023-09-03T00:00:00	2024-11-08T05:00:00	3	Temperatura mínima	13.6
111132	7	Sololá	713	San Lucas Tolimán	10	San Lucas Tolimán	3	Marzo	2023-09-03T00:00:00	2024-11-08T05:00:00	5	Humedad	59
111133	7	Sololá	713	San Lucas Tolimán	10	San Lucas Tolimán	3	Marzo	2023-09-03T00:00:00	2024-11-08T05:00:00	6	Velocidad del viento	0
111134	7	Sololá	713	San Lucas Tolimán	10	San Lucas Tolimán	3	Marzo	2023-09-03T00:00:00	2024-11-08T05:00:00	7	Dirección del viento	0
111135	7	Sololá	713	San Lucas Tolimán	10	San Lucas Tolimán	3	Marzo	2023-09-03T00:00:00	2024-11-08T05:00:00	1	Precipitación	0
111136	7	Sololá	713	San Lucas Tolimán	10	San Lucas Tolimán	3	Marzo	2023-09-03T00:00:00	2024-11-08T05:00:00	8	Radiación solar	0
111137	7	Sololá	713	San Lucas Tolimán	10	San Lucas Tolimán	3	Marzo	2023-09-03T00:00:00	2024-11-08T06:00:00	2	Temperatura media	14.9
111138	7	Sololá	713	San Lucas Tolimán	10	San Lucas Tolimán	3	Marzo	2023-09-03T00:00:00	2024-11-08T06:00:00	4	Temperatura máxima	14.9
111139	7	Sololá	713	San Lucas Tolimán	10	San Lucas Tolimán	3	Marzo	2023-09-03T00:00:00	2024-11-08T06:00:00	3	Temperatura mínima	14.6
111140	7	Sololá	713	San Lucas Tolimán	10	San Lucas Tolimán	3	Marzo	2023-09-03T00:00:00	2024-11-08T06:00:00	5	Humedad	58
111141	7	Sololá	713	San Lucas Tolimán	10	San Lucas Tolimán	3	Marzo	2023-09-03T00:00:00	2024-11-08T06:00:00	6	Velocidad del viento	1.6
111142	7	Sololá	713	San Lucas Tolimán	10	San Lucas Tolimán	3	Marzo	2023-09-03T00:00:00	2024-11-08T06:00:00	7	Dirección del viento	1.61
111143	7	Sololá	713	San Lucas Tolimán	10	San Lucas Tolimán	3	Marzo	2023-09-03T00:00:00	2024-11-08T06:00:00	1	Precipitación	0
111144	7	Sololá	713	San Lucas Tolimán	10	San Lucas Tolimán	3	Marzo	2023-09-03T00:00:00	2024-11-08T06:00:00	8	Radiación solar	0
111145	7	Sololá	713	San Lucas Tolimán	10	San Lucas Tolimán	3	Marzo	2023-09-03T00:00:00	2024-11-08T07:00:00	2	Temperatura media	14.8
111146	7	Sololá	713	San Lucas Tolimán	10	San Lucas Tolimán	3	Marzo	2023-09-03T00:00:00	2024-11-08T07:00:00	4	Temperatura máxima	15.2
111147	7	Sololá	713	San Lucas Tolimán	10	San Lucas Tolimán	3	Marzo	2023-09-03T00:00:00	2024-11-08T07:00:00	3	Temperatura mínima	14.4
111148	7	Sololá	713	San Lucas Tolimán	10	San Lucas Tolimán	3	Marzo	2023-09-03T00:00:00	2024-11-08T07:00:00	5	Humedad	58
111149	7	Sololá	713	San Lucas Tolimán	10	San Lucas Tolimán	3	Marzo	2023-09-03T00:00:00	2024-11-08T07:00:00	6	Velocidad del viento	0
111150	7	Sololá	713	San Lucas Tolimán	10	San Lucas Tolimán	3	Marzo	2023-09-03T00:00:00	2024-11-08T07:00:00	7	Dirección del viento	0
111151	7	Sololá	713	San Lucas Tolimán	10	San Lucas Tolimán	3	Marzo	2023-09-03T00:00:00	2024-11-08T07:00:00	1	Precipitación	0
111152	7	Sololá	713	San Lucas Tolimán	10	San Lucas Tolimán	3	Marzo	2023-09-03T00:00:00	2024-11-08T07:00:00	8	Radiación solar	25
111153	7	Sololá	713	San Lucas Tolimán	10	San Lucas Tolimán	3	Marzo	2023-09-03T00:00:00	2024-11-08T08:00:00	2	Temperatura media	16.6
111154	7	Sololá	713	San Lucas Tolimán	10	San Lucas Tolimán	3	Marzo	2023-09-03T00:00:00	2024-11-08T08:00:00	4	Temperatura máxima	16.6
111155	7	Sololá	713	San Lucas Tolimán	10	San Lucas Tolimán	3	Marzo	2023-09-03T00:00:00	2024-11-08T08:00:00	3	Temperatura mínima	14.8
111156	7	Sololá	713	San Lucas Tolimán	10	San Lucas Tolimán	3	Marzo	2023-09-03T00:00:00	2024-11-08T08:00:00	5	Humedad	56
111157	7	Sololá	713	San Lucas Tolimán	10	San Lucas Tolimán	3	Marzo	2023-09-03T00:00:00	2024-11-08T08:00:00	6	Velocidad del viento	3.2
111158	7	Sololá	713	San Lucas Tolimán	10	San Lucas Tolimán	3	Marzo	2023-09-03T00:00:00	2024-11-08T08:00:00	7	Dirección del viento	3.22
111159	7	Sololá	713	San Lucas Tolimán	10	San Lucas Tolimán	3	Marzo	2023-09-03T00:00:00	2024-11-08T08:00:00	1	Precipitación	0
111160	7	Sololá	713	San Lucas Tolimán	10	San Lucas Tolimán	3	Marzo	2023-09-03T00:00:00	2024-11-08T08:00:00	8	Radiación solar	121
111161	7	Sololá	713	San Lucas Tolimán	10	San Lucas Tolimán	3	Marzo	2023-09-03T00:00:00	2024-11-08T09:00:00	2	Temperatura media	18.6
111162	7	Sololá	713	San Lucas Tolimán	10	San Lucas Tolimán	3	Marzo	2023-09-03T00:00:00	2024-11-08T09:00:00	4	Temperatura máxima	18.7
111163	7	Sololá	713	San Lucas Tolimán	10	San Lucas Tolimán	3	Marzo	2023-09-03T00:00:00	2024-11-08T09:00:00	3	Temperatura mínima	16.6
111164	7	Sololá	713	San Lucas Tolimán	10	San Lucas Tolimán	3	Marzo	2023-09-03T00:00:00	2024-11-08T09:00:00	5	Humedad	54
111165	7	Sololá	713	San Lucas Tolimán	10	San Lucas Tolimán	3	Marzo	2023-09-03T00:00:00	2024-11-08T09:00:00	6	Velocidad del viento	3.2
111166	7	Sololá	713	San Lucas Tolimán	10	San Lucas Tolimán	3	Marzo	2023-09-03T00:00:00	2024-11-08T09:00:00	7	Dirección del viento	3.22
111167	7	Sololá	713	San Lucas Tolimán	10	San Lucas Tolimán	3	Marzo	2023-09-03T00:00:00	2024-11-08T09:00:00	1	Precipitación	0
111168	7	Sololá	713	San Lucas Tolimán	10	San Lucas Tolimán	3	Marzo	2023-09-03T00:00:00	2024-11-08T09:00:00	8	Radiación solar	362
111169	7	Sololá	713	San Lucas Tolimán	10	San Lucas Tolimán	3	Marzo	2023-09-03T00:00:00	2024-11-08T10:00:00	2	Temperatura media	21
111170	7	Sololá	713	San Lucas Tolimán	10	San Lucas Tolimán	3	Marzo	2023-09-03T00:00:00	2024-11-08T10:00:00	4	Temperatura máxima	21.3
111171	7	Sololá	713	San Lucas Tolimán	10	San Lucas Tolimán	3	Marzo	2023-09-03T00:00:00	2024-11-08T10:00:00	3	Temperatura mínima	18.5
111172	7	Sololá	713	San Lucas Tolimán	10	San Lucas Tolimán	3	Marzo	2023-09-03T00:00:00	2024-11-08T10:00:00	5	Humedad	54
111173	7	Sololá	713	San Lucas Tolimán	10	San Lucas Tolimán	3	Marzo	2023-09-03T00:00:00	2024-11-08T10:00:00	6	Velocidad del viento	4.8
111174	7	Sololá	713	San Lucas Tolimán	10	San Lucas Tolimán	3	Marzo	2023-09-03T00:00:00	2024-11-08T10:00:00	7	Dirección del viento	4.83
111175	7	Sololá	713	San Lucas Tolimán	10	San Lucas Tolimán	3	Marzo	2023-09-03T00:00:00	2024-11-08T10:00:00	1	Precipitación	0
111176	7	Sololá	713	San Lucas Tolimán	10	San Lucas Tolimán	3	Marzo	2023-09-03T00:00:00	2024-11-08T10:00:00	8	Radiación solar	724
111177	7	Sololá	713	San Lucas Tolimán	10	San Lucas Tolimán	3	Marzo	2023-09-03T00:00:00	2024-11-08T11:00:00	2	Temperatura media	21.1
111178	7	Sololá	713	San Lucas Tolimán	10	San Lucas Tolimán	3	Marzo	2023-09-03T00:00:00	2024-11-08T11:00:00	4	Temperatura máxima	21.2
111179	7	Sololá	713	San Lucas Tolimán	10	San Lucas Tolimán	3	Marzo	2023-09-03T00:00:00	2024-11-08T11:00:00	3	Temperatura mínima	20.5
111180	7	Sololá	713	San Lucas Tolimán	10	San Lucas Tolimán	3	Marzo	2023-09-03T00:00:00	2024-11-08T11:00:00	5	Humedad	56
111181	7	Sololá	713	San Lucas Tolimán	10	San Lucas Tolimán	3	Marzo	2023-09-03T00:00:00	2024-11-08T11:00:00	6	Velocidad del viento	11.3
111182	7	Sololá	713	San Lucas Tolimán	10	San Lucas Tolimán	3	Marzo	2023-09-03T00:00:00	2024-11-08T11:00:00	7	Dirección del viento	11.27
111183	7	Sololá	713	San Lucas Tolimán	10	San Lucas Tolimán	3	Marzo	2023-09-03T00:00:00	2024-11-08T11:00:00	1	Precipitación	0
111184	7	Sololá	713	San Lucas Tolimán	10	San Lucas Tolimán	3	Marzo	2023-09-03T00:00:00	2024-11-08T11:00:00	8	Radiación solar	876
111185	7	Sololá	713	San Lucas Tolimán	10	San Lucas Tolimán	3	Marzo	2023-09-03T00:00:00	2024-11-08T12:00:00	2	Temperatura media	21.6
111186	7	Sololá	713	San Lucas Tolimán	10	San Lucas Tolimán	3	Marzo	2023-09-03T00:00:00	2024-11-08T12:00:00	4	Temperatura máxima	22.2
111187	7	Sololá	713	San Lucas Tolimán	10	San Lucas Tolimán	3	Marzo	2023-09-03T00:00:00	2024-11-08T12:00:00	3	Temperatura mínima	21.1
111188	7	Sololá	713	San Lucas Tolimán	10	San Lucas Tolimán	3	Marzo	2023-09-03T00:00:00	2024-11-08T12:00:00	5	Humedad	54
111189	7	Sololá	713	San Lucas Tolimán	10	San Lucas Tolimán	3	Marzo	2023-09-03T00:00:00	2024-11-08T12:00:00	6	Velocidad del viento	11.3
111190	7	Sololá	713	San Lucas Tolimán	10	San Lucas Tolimán	3	Marzo	2023-09-03T00:00:00	2024-11-08T12:00:00	7	Dirección del viento	11.27
111191	7	Sololá	713	San Lucas Tolimán	10	San Lucas Tolimán	3	Marzo	2023-09-03T00:00:00	2024-11-08T12:00:00	1	Precipitación	0
111192	7	Sololá	713	San Lucas Tolimán	10	San Lucas Tolimán	3	Marzo	2023-09-03T00:00:00	2024-11-08T12:00:00	8	Radiación solar	1023
111193	7	Sololá	713	San Lucas Tolimán	10	San Lucas Tolimán	3	Marzo	2023-09-03T00:00:00	2024-11-08T13:00:00	2	Temperatura media	20.5
111194	7	Sololá	713	San Lucas Tolimán	10	San Lucas Tolimán	3	Marzo	2023-09-03T00:00:00	2024-11-08T13:00:00	4	Temperatura máxima	21.8
111195	7	Sololá	713	San Lucas Tolimán	10	San Lucas Tolimán	3	Marzo	2023-09-03T00:00:00	2024-11-08T13:00:00	3	Temperatura mínima	20.5
111196	7	Sololá	713	San Lucas Tolimán	10	San Lucas Tolimán	3	Marzo	2023-09-03T00:00:00	2024-11-08T13:00:00	5	Humedad	59
111197	7	Sololá	713	San Lucas Tolimán	10	San Lucas Tolimán	3	Marzo	2023-09-03T00:00:00	2024-11-08T13:00:00	6	Velocidad del viento	12.9
111198	7	Sololá	713	San Lucas Tolimán	10	San Lucas Tolimán	3	Marzo	2023-09-03T00:00:00	2024-11-08T13:00:00	7	Dirección del viento	12.87
111199	7	Sololá	713	San Lucas Tolimán	10	San Lucas Tolimán	3	Marzo	2023-09-03T00:00:00	2024-11-08T13:00:00	1	Precipitación	0
111200	7	Sololá	713	San Lucas Tolimán	10	San Lucas Tolimán	3	Marzo	2023-09-03T00:00:00	2024-11-08T13:00:00	8	Radiación solar	960
111201	7	Sololá	713	San Lucas Tolimán	10	San Lucas Tolimán	3	Marzo	2023-09-03T00:00:00	2024-11-08T14:00:00	2	Temperatura media	20.3
111202	7	Sololá	713	San Lucas Tolimán	10	San Lucas Tolimán	3	Marzo	2023-09-03T00:00:00	2024-11-08T14:00:00	4	Temperatura máxima	20.6
111203	7	Sololá	713	San Lucas Tolimán	10	San Lucas Tolimán	3	Marzo	2023-09-03T00:00:00	2024-11-08T14:00:00	3	Temperatura mínima	19.9
111204	7	Sololá	713	San Lucas Tolimán	10	San Lucas Tolimán	3	Marzo	2023-09-03T00:00:00	2024-11-08T14:00:00	5	Humedad	60
111205	7	Sololá	713	San Lucas Tolimán	10	San Lucas Tolimán	3	Marzo	2023-09-03T00:00:00	2024-11-08T14:00:00	6	Velocidad del viento	12.9
111206	7	Sololá	713	San Lucas Tolimán	10	San Lucas Tolimán	3	Marzo	2023-09-03T00:00:00	2024-11-08T14:00:00	7	Dirección del viento	12.87
111207	7	Sololá	713	San Lucas Tolimán	10	San Lucas Tolimán	3	Marzo	2023-09-03T00:00:00	2024-11-08T14:00:00	1	Precipitación	0
111208	7	Sololá	713	San Lucas Tolimán	10	San Lucas Tolimán	3	Marzo	2023-09-03T00:00:00	2024-11-08T14:00:00	8	Radiación solar	483
111209	7	Sololá	713	San Lucas Tolimán	10	San Lucas Tolimán	3	Marzo	2023-09-03T00:00:00	2024-11-08T15:00:00	2	Temperatura media	21.6
111210	7	Sololá	713	San Lucas Tolimán	10	San Lucas Tolimán	3	Marzo	2023-09-03T00:00:00	2024-11-08T15:00:00	4	Temperatura máxima	21.9
111211	7	Sololá	713	San Lucas Tolimán	10	San Lucas Tolimán	3	Marzo	2023-09-03T00:00:00	2024-11-08T15:00:00	3	Temperatura mínima	20.3
111212	7	Sololá	713	San Lucas Tolimán	10	San Lucas Tolimán	3	Marzo	2023-09-03T00:00:00	2024-11-08T15:00:00	5	Humedad	57
111213	7	Sololá	713	San Lucas Tolimán	10	San Lucas Tolimán	3	Marzo	2023-09-03T00:00:00	2024-11-08T15:00:00	6	Velocidad del viento	8
111214	7	Sololá	713	San Lucas Tolimán	10	San Lucas Tolimán	3	Marzo	2023-09-03T00:00:00	2024-11-08T15:00:00	7	Dirección del viento	8.05
111215	7	Sololá	713	San Lucas Tolimán	10	San Lucas Tolimán	3	Marzo	2023-09-03T00:00:00	2024-11-08T15:00:00	1	Precipitación	0
111216	7	Sololá	713	San Lucas Tolimán	10	San Lucas Tolimán	3	Marzo	2023-09-03T00:00:00	2024-11-08T15:00:00	8	Radiación solar	823
111217	7	Sololá	713	San Lucas Tolimán	10	San Lucas Tolimán	3	Marzo	2023-09-03T00:00:00	2024-11-08T16:00:00	2	Temperatura media	20.8
111218	7	Sololá	713	San Lucas Tolimán	10	San Lucas Tolimán	3	Marzo	2023-09-03T00:00:00	2024-11-08T16:00:00	4	Temperatura máxima	21.7
111219	7	Sololá	713	San Lucas Tolimán	10	San Lucas Tolimán	3	Marzo	2023-09-03T00:00:00	2024-11-08T16:00:00	3	Temperatura mínima	20.8
111220	7	Sololá	713	San Lucas Tolimán	10	San Lucas Tolimán	3	Marzo	2023-09-03T00:00:00	2024-11-08T16:00:00	5	Humedad	60
111221	7	Sololá	713	San Lucas Tolimán	10	San Lucas Tolimán	3	Marzo	2023-09-03T00:00:00	2024-11-08T16:00:00	6	Velocidad del viento	8
111222	7	Sololá	713	San Lucas Tolimán	10	San Lucas Tolimán	3	Marzo	2023-09-03T00:00:00	2024-11-08T16:00:00	7	Dirección del viento	8.05
111223	7	Sololá	713	San Lucas Tolimán	10	San Lucas Tolimán	3	Marzo	2023-09-03T00:00:00	2024-11-08T16:00:00	1	Precipitación	0
111224	7	Sololá	713	San Lucas Tolimán	10	San Lucas Tolimán	3	Marzo	2023-09-03T00:00:00	2024-11-08T16:00:00	8	Radiación solar	505
111225	7	Sololá	713	San Lucas Tolimán	10	San Lucas Tolimán	3	Marzo	2023-09-03T00:00:00	2024-11-08T17:00:00	2	Temperatura media	19.4
111226	7	Sololá	713	San Lucas Tolimán	10	San Lucas Tolimán	3	Marzo	2023-09-03T00:00:00	2024-11-08T17:00:00	4	Temperatura máxima	20.8
111227	7	Sololá	713	San Lucas Tolimán	10	San Lucas Tolimán	3	Marzo	2023-09-03T00:00:00	2024-11-08T17:00:00	3	Temperatura mínima	19.4
111228	7	Sololá	713	San Lucas Tolimán	10	San Lucas Tolimán	3	Marzo	2023-09-03T00:00:00	2024-11-08T17:00:00	5	Humedad	62
111229	7	Sololá	713	San Lucas Tolimán	10	San Lucas Tolimán	3	Marzo	2023-09-03T00:00:00	2024-11-08T17:00:00	6	Velocidad del viento	8
111230	7	Sololá	713	San Lucas Tolimán	10	San Lucas Tolimán	3	Marzo	2023-09-03T00:00:00	2024-11-08T17:00:00	7	Dirección del viento	8.05
111231	7	Sololá	713	San Lucas Tolimán	10	San Lucas Tolimán	3	Marzo	2023-09-03T00:00:00	2024-11-08T17:00:00	1	Precipitación	0
111232	7	Sololá	713	San Lucas Tolimán	10	San Lucas Tolimán	3	Marzo	2023-09-03T00:00:00	2024-11-08T17:00:00	8	Radiación solar	208
111233	7	Sololá	713	San Lucas Tolimán	10	San Lucas Tolimán	3	Marzo	2023-09-03T00:00:00	2024-11-08T18:00:00	2	Temperatura media	18.5
111234	7	Sololá	713	San Lucas Tolimán	10	San Lucas Tolimán	3	Marzo	2023-09-03T00:00:00	2024-11-08T18:00:00	4	Temperatura máxima	19.5
111235	7	Sololá	713	San Lucas Tolimán	10	San Lucas Tolimán	3	Marzo	2023-09-03T00:00:00	2024-11-08T18:00:00	3	Temperatura mínima	18.4
111236	7	Sololá	713	San Lucas Tolimán	10	San Lucas Tolimán	3	Marzo	2023-09-03T00:00:00	2024-11-08T18:00:00	5	Humedad	62
111237	7	Sololá	713	San Lucas Tolimán	10	San Lucas Tolimán	3	Marzo	2023-09-03T00:00:00	2024-11-08T18:00:00	6	Velocidad del viento	8
111238	7	Sololá	713	San Lucas Tolimán	10	San Lucas Tolimán	3	Marzo	2023-09-03T00:00:00	2024-11-08T18:00:00	7	Dirección del viento	8.05
111239	7	Sololá	713	San Lucas Tolimán	10	San Lucas Tolimán	3	Marzo	2023-09-03T00:00:00	2024-11-08T18:00:00	1	Precipitación	0
111240	7	Sololá	713	San Lucas Tolimán	10	San Lucas Tolimán	3	Marzo	2023-09-03T00:00:00	2024-11-08T18:00:00	8	Radiación solar	41
111241	7	Sololá	713	San Lucas Tolimán	10	San Lucas Tolimán	3	Marzo	2023-09-03T00:00:00	2024-11-08T19:00:00	2	Temperatura media	18.3
111242	7	Sololá	713	San Lucas Tolimán	10	San Lucas Tolimán	3	Marzo	2023-09-03T00:00:00	2024-11-08T19:00:00	4	Temperatura máxima	18.5
111243	7	Sololá	713	San Lucas Tolimán	10	San Lucas Tolimán	3	Marzo	2023-09-03T00:00:00	2024-11-08T19:00:00	3	Temperatura mínima	18.2
111244	7	Sololá	713	San Lucas Tolimán	10	San Lucas Tolimán	3	Marzo	2023-09-03T00:00:00	2024-11-08T19:00:00	5	Humedad	61
111245	7	Sololá	713	San Lucas Tolimán	10	San Lucas Tolimán	3	Marzo	2023-09-03T00:00:00	2024-11-08T19:00:00	6	Velocidad del viento	4.8
111246	7	Sololá	713	San Lucas Tolimán	10	San Lucas Tolimán	3	Marzo	2023-09-03T00:00:00	2024-11-08T19:00:00	7	Dirección del viento	4.83
111247	7	Sololá	713	San Lucas Tolimán	10	San Lucas Tolimán	3	Marzo	2023-09-03T00:00:00	2024-11-08T19:00:00	1	Precipitación	0
111248	7	Sololá	713	San Lucas Tolimán	10	San Lucas Tolimán	3	Marzo	2023-09-03T00:00:00	2024-11-08T19:00:00	8	Radiación solar	0
111249	7	Sololá	713	San Lucas Tolimán	10	San Lucas Tolimán	3	Marzo	2023-09-03T00:00:00	2024-11-08T20:00:00	2	Temperatura media	17.1
111250	7	Sololá	713	San Lucas Tolimán	10	San Lucas Tolimán	3	Marzo	2023-09-03T00:00:00	2024-11-08T20:00:00	4	Temperatura máxima	18.3
111251	7	Sololá	713	San Lucas Tolimán	10	San Lucas Tolimán	3	Marzo	2023-09-03T00:00:00	2024-11-08T20:00:00	3	Temperatura mínima	17.1
111252	7	Sololá	713	San Lucas Tolimán	10	San Lucas Tolimán	3	Marzo	2023-09-03T00:00:00	2024-11-08T20:00:00	5	Humedad	67
111253	7	Sololá	713	San Lucas Tolimán	10	San Lucas Tolimán	3	Marzo	2023-09-03T00:00:00	2024-11-08T20:00:00	6	Velocidad del viento	9.7
111254	7	Sololá	713	San Lucas Tolimán	10	San Lucas Tolimán	3	Marzo	2023-09-03T00:00:00	2024-11-08T20:00:00	7	Dirección del viento	9.66
111255	7	Sololá	713	San Lucas Tolimán	10	San Lucas Tolimán	3	Marzo	2023-09-03T00:00:00	2024-11-08T20:00:00	1	Precipitación	0
111256	7	Sololá	713	San Lucas Tolimán	10	San Lucas Tolimán	3	Marzo	2023-09-03T00:00:00	2024-11-08T20:00:00	8	Radiación solar	0
111257	7	Sololá	713	San Lucas Tolimán	10	San Lucas Tolimán	3	Marzo	2023-09-03T00:00:00	2024-11-08T21:00:00	2	Temperatura media	16.2
111258	7	Sololá	713	San Lucas Tolimán	10	San Lucas Tolimán	3	Marzo	2023-09-03T00:00:00	2024-11-08T21:00:00	4	Temperatura máxima	17.1
111259	7	Sololá	713	San Lucas Tolimán	10	San Lucas Tolimán	3	Marzo	2023-09-03T00:00:00	2024-11-08T21:00:00	3	Temperatura mínima	16.2
111260	7	Sololá	713	San Lucas Tolimán	10	San Lucas Tolimán	3	Marzo	2023-09-03T00:00:00	2024-11-08T21:00:00	5	Humedad	70
111261	7	Sololá	713	San Lucas Tolimán	10	San Lucas Tolimán	3	Marzo	2023-09-03T00:00:00	2024-11-08T21:00:00	6	Velocidad del viento	6.4
111262	7	Sololá	713	San Lucas Tolimán	10	San Lucas Tolimán	3	Marzo	2023-09-03T00:00:00	2024-11-08T21:00:00	7	Dirección del viento	6.44
111263	7	Sololá	713	San Lucas Tolimán	10	San Lucas Tolimán	3	Marzo	2023-09-03T00:00:00	2024-11-08T21:00:00	1	Precipitación	0
111264	7	Sololá	713	San Lucas Tolimán	10	San Lucas Tolimán	3	Marzo	2023-09-03T00:00:00	2024-11-08T21:00:00	8	Radiación solar	0
111265	7	Sololá	713	San Lucas Tolimán	10	San Lucas Tolimán	3	Marzo	2023-09-03T00:00:00	2024-11-08T22:00:00	2	Temperatura media	15.9
111266	7	Sololá	713	San Lucas Tolimán	10	San Lucas Tolimán	3	Marzo	2023-09-03T00:00:00	2024-11-08T22:00:00	4	Temperatura máxima	16.3
111267	7	Sololá	713	San Lucas Tolimán	10	San Lucas Tolimán	3	Marzo	2023-09-03T00:00:00	2024-11-08T22:00:00	3	Temperatura mínima	15.9
111268	7	Sololá	713	San Lucas Tolimán	10	San Lucas Tolimán	3	Marzo	2023-09-03T00:00:00	2024-11-08T22:00:00	5	Humedad	70
111269	7	Sololá	713	San Lucas Tolimán	10	San Lucas Tolimán	3	Marzo	2023-09-03T00:00:00	2024-11-08T22:00:00	6	Velocidad del viento	8
111270	7	Sololá	713	San Lucas Tolimán	10	San Lucas Tolimán	3	Marzo	2023-09-03T00:00:00	2024-11-08T22:00:00	7	Dirección del viento	8.05
111271	7	Sololá	713	San Lucas Tolimán	10	San Lucas Tolimán	3	Marzo	2023-09-03T00:00:00	2024-11-08T22:00:00	1	Precipitación	0
111272	7	Sololá	713	San Lucas Tolimán	10	San Lucas Tolimán	3	Marzo	2023-09-03T00:00:00	2024-11-08T22:00:00	8	Radiación solar	0
111273	7	Sololá	713	San Lucas Tolimán	10	San Lucas Tolimán	3	Marzo	2023-09-03T00:00:00	2024-11-08T23:00:00	2	Temperatura media	15.6
111274	7	Sololá	713	San Lucas Tolimán	10	San Lucas Tolimán	3	Marzo	2023-09-03T00:00:00	2024-11-08T23:00:00	4	Temperatura máxima	15.9
111275	7	Sololá	713	San Lucas Tolimán	10	San Lucas Tolimán	3	Marzo	2023-09-03T00:00:00	2024-11-08T23:00:00	3	Temperatura mínima	15.6
111276	7	Sololá	713	San Lucas Tolimán	10	San Lucas Tolimán	3	Marzo	2023-09-03T00:00:00	2024-11-08T23:00:00	5	Humedad	69
111277	7	Sololá	713	San Lucas Tolimán	10	San Lucas Tolimán	3	Marzo	2023-09-03T00:00:00	2024-11-08T23:00:00	6	Velocidad del viento	6.4
111278	7	Sololá	713	San Lucas Tolimán	10	San Lucas Tolimán	3	Marzo	2023-09-03T00:00:00	2024-11-08T23:00:00	7	Dirección del viento	6.44
111279	7	Sololá	713	San Lucas Tolimán	10	San Lucas Tolimán	3	Marzo	2023-09-03T00:00:00	2024-11-08T23:00:00	1	Precipitación	0
111280	7	Sololá	713	San Lucas Tolimán	10	San Lucas Tolimán	3	Marzo	2023-09-03T00:00:00	2024-11-08T23:00:00	8	Radiación solar	0
111281	7	Sololá	713	San Lucas Tolimán	10	San Lucas Tolimán	3	Marzo	2023-10-03T00:00:00	2024-11-08T00:00:00	2	Temperatura media	15
111282	7	Sololá	713	San Lucas Tolimán	10	San Lucas Tolimán	3	Marzo	2023-10-03T00:00:00	2024-11-08T00:00:00	4	Temperatura máxima	15.5
111283	7	Sololá	713	San Lucas Tolimán	10	San Lucas Tolimán	3	Marzo	2023-10-03T00:00:00	2024-11-08T00:00:00	3	Temperatura mínima	15
111284	7	Sololá	713	San Lucas Tolimán	10	San Lucas Tolimán	3	Marzo	2023-10-03T00:00:00	2024-11-08T00:00:00	5	Humedad	68
111285	7	Sololá	713	San Lucas Tolimán	10	San Lucas Tolimán	3	Marzo	2023-10-03T00:00:00	2024-11-08T00:00:00	6	Velocidad del viento	4.8
111286	7	Sololá	713	San Lucas Tolimán	10	San Lucas Tolimán	3	Marzo	2023-10-03T00:00:00	2024-11-08T00:00:00	7	Dirección del viento	4.83
111287	7	Sololá	713	San Lucas Tolimán	10	San Lucas Tolimán	3	Marzo	2023-10-03T00:00:00	2024-11-08T00:00:00	1	Precipitación	0
111288	7	Sololá	713	San Lucas Tolimán	10	San Lucas Tolimán	3	Marzo	2023-10-03T00:00:00	2024-11-08T00:00:00	8	Radiación solar	0
111289	7	Sololá	713	San Lucas Tolimán	10	San Lucas Tolimán	3	Marzo	2023-10-03T00:00:00	2024-11-08T01:00:00	2	Temperatura media	14.8
111290	7	Sololá	713	San Lucas Tolimán	10	San Lucas Tolimán	3	Marzo	2023-10-03T00:00:00	2024-11-08T01:00:00	4	Temperatura máxima	15.4
111291	7	Sololá	713	San Lucas Tolimán	10	San Lucas Tolimán	3	Marzo	2023-10-03T00:00:00	2024-11-08T01:00:00	3	Temperatura mínima	14.8
111292	7	Sololá	713	San Lucas Tolimán	10	San Lucas Tolimán	3	Marzo	2023-10-03T00:00:00	2024-11-08T01:00:00	5	Humedad	68
111293	7	Sololá	713	San Lucas Tolimán	10	San Lucas Tolimán	3	Marzo	2023-10-03T00:00:00	2024-11-08T01:00:00	6	Velocidad del viento	6.4
111294	7	Sololá	713	San Lucas Tolimán	10	San Lucas Tolimán	3	Marzo	2023-10-03T00:00:00	2024-11-08T01:00:00	7	Dirección del viento	6.44
111295	7	Sololá	713	San Lucas Tolimán	10	San Lucas Tolimán	3	Marzo	2023-10-03T00:00:00	2024-11-08T01:00:00	1	Precipitación	0
111296	7	Sololá	713	San Lucas Tolimán	10	San Lucas Tolimán	3	Marzo	2023-10-03T00:00:00	2024-11-08T01:00:00	8	Radiación solar	0
111297	7	Sololá	713	San Lucas Tolimán	10	San Lucas Tolimán	3	Marzo	2023-10-03T00:00:00	2024-11-08T02:00:00	2	Temperatura media	14.2
111298	7	Sololá	713	San Lucas Tolimán	10	San Lucas Tolimán	3	Marzo	2023-10-03T00:00:00	2024-11-08T02:00:00	4	Temperatura máxima	14.9
111299	7	Sololá	713	San Lucas Tolimán	10	San Lucas Tolimán	3	Marzo	2023-10-03T00:00:00	2024-11-08T02:00:00	3	Temperatura mínima	14.1
111300	7	Sololá	713	San Lucas Tolimán	10	San Lucas Tolimán	3	Marzo	2023-10-03T00:00:00	2024-11-08T02:00:00	5	Humedad	68
111301	7	Sololá	713	San Lucas Tolimán	10	San Lucas Tolimán	3	Marzo	2023-10-03T00:00:00	2024-11-08T02:00:00	6	Velocidad del viento	3.2
111302	7	Sololá	713	San Lucas Tolimán	10	San Lucas Tolimán	3	Marzo	2023-10-03T00:00:00	2024-11-08T02:00:00	7	Dirección del viento	3.22
111303	7	Sololá	713	San Lucas Tolimán	10	San Lucas Tolimán	3	Marzo	2023-10-03T00:00:00	2024-11-08T02:00:00	1	Precipitación	0
111304	7	Sololá	713	San Lucas Tolimán	10	San Lucas Tolimán	3	Marzo	2023-10-03T00:00:00	2024-11-08T02:00:00	8	Radiación solar	0
111305	7	Sololá	713	San Lucas Tolimán	10	San Lucas Tolimán	3	Marzo	2023-10-03T00:00:00	2024-11-08T03:00:00	2	Temperatura media	14.6
111306	7	Sololá	713	San Lucas Tolimán	10	San Lucas Tolimán	3	Marzo	2023-10-03T00:00:00	2024-11-08T03:00:00	4	Temperatura máxima	14.6
111307	7	Sololá	713	San Lucas Tolimán	10	San Lucas Tolimán	3	Marzo	2023-10-03T00:00:00	2024-11-08T03:00:00	3	Temperatura mínima	14.2
111308	7	Sololá	713	San Lucas Tolimán	10	San Lucas Tolimán	3	Marzo	2023-10-03T00:00:00	2024-11-08T03:00:00	5	Humedad	67
111309	7	Sololá	713	San Lucas Tolimán	10	San Lucas Tolimán	3	Marzo	2023-10-03T00:00:00	2024-11-08T03:00:00	6	Velocidad del viento	1.6
111310	7	Sololá	713	San Lucas Tolimán	10	San Lucas Tolimán	3	Marzo	2023-10-03T00:00:00	2024-11-08T03:00:00	7	Dirección del viento	1.61
111311	7	Sololá	713	San Lucas Tolimán	10	San Lucas Tolimán	3	Marzo	2023-10-03T00:00:00	2024-11-08T03:00:00	1	Precipitación	0
111312	7	Sololá	713	San Lucas Tolimán	10	San Lucas Tolimán	3	Marzo	2023-10-03T00:00:00	2024-11-08T03:00:00	8	Radiación solar	0
111313	7	Sololá	713	San Lucas Tolimán	10	San Lucas Tolimán	3	Marzo	2023-10-03T00:00:00	2024-11-08T04:00:00	2	Temperatura media	14.4
111314	7	Sololá	713	San Lucas Tolimán	10	San Lucas Tolimán	3	Marzo	2023-10-03T00:00:00	2024-11-08T04:00:00	4	Temperatura máxima	14.6
111315	7	Sololá	713	San Lucas Tolimán	10	San Lucas Tolimán	3	Marzo	2023-10-03T00:00:00	2024-11-08T04:00:00	3	Temperatura mínima	14.3
111316	7	Sololá	713	San Lucas Tolimán	10	San Lucas Tolimán	3	Marzo	2023-10-03T00:00:00	2024-11-08T04:00:00	5	Humedad	67
111317	7	Sololá	713	San Lucas Tolimán	10	San Lucas Tolimán	3	Marzo	2023-10-03T00:00:00	2024-11-08T04:00:00	6	Velocidad del viento	3.2
111318	7	Sololá	713	San Lucas Tolimán	10	San Lucas Tolimán	3	Marzo	2023-10-03T00:00:00	2024-11-08T04:00:00	7	Dirección del viento	3.22
111319	7	Sololá	713	San Lucas Tolimán	10	San Lucas Tolimán	3	Marzo	2023-10-03T00:00:00	2024-11-08T04:00:00	1	Precipitación	0
111320	7	Sololá	713	San Lucas Tolimán	10	San Lucas Tolimán	3	Marzo	2023-10-03T00:00:00	2024-11-08T04:00:00	8	Radiación solar	0
111321	7	Sololá	713	San Lucas Tolimán	10	San Lucas Tolimán	3	Marzo	2023-10-03T00:00:00	2024-11-08T05:00:00	2	Temperatura media	13.9
111322	7	Sololá	713	San Lucas Tolimán	10	San Lucas Tolimán	3	Marzo	2023-10-03T00:00:00	2024-11-08T05:00:00	4	Temperatura máxima	14.4
111323	7	Sololá	713	San Lucas Tolimán	10	San Lucas Tolimán	3	Marzo	2023-10-03T00:00:00	2024-11-08T05:00:00	3	Temperatura mínima	13.8
111324	7	Sololá	713	San Lucas Tolimán	10	San Lucas Tolimán	3	Marzo	2023-10-03T00:00:00	2024-11-08T05:00:00	5	Humedad	68
111325	7	Sololá	713	San Lucas Tolimán	10	San Lucas Tolimán	3	Marzo	2023-10-03T00:00:00	2024-11-08T05:00:00	6	Velocidad del viento	4.8
111326	7	Sololá	713	San Lucas Tolimán	10	San Lucas Tolimán	3	Marzo	2023-10-03T00:00:00	2024-11-08T05:00:00	7	Dirección del viento	4.83
111327	7	Sololá	713	San Lucas Tolimán	10	San Lucas Tolimán	3	Marzo	2023-10-03T00:00:00	2024-11-08T05:00:00	1	Precipitación	0
111328	7	Sololá	713	San Lucas Tolimán	10	San Lucas Tolimán	3	Marzo	2023-10-03T00:00:00	2024-11-08T05:00:00	8	Radiación solar	0
111329	7	Sololá	713	San Lucas Tolimán	10	San Lucas Tolimán	3	Marzo	2023-10-03T00:00:00	2024-11-08T06:00:00	2	Temperatura media	13.3
111330	7	Sololá	713	San Lucas Tolimán	10	San Lucas Tolimán	3	Marzo	2023-10-03T00:00:00	2024-11-08T06:00:00	4	Temperatura máxima	13.9
111331	7	Sololá	713	San Lucas Tolimán	10	San Lucas Tolimán	3	Marzo	2023-10-03T00:00:00	2024-11-08T06:00:00	3	Temperatura mínima	13.3
111332	7	Sololá	713	San Lucas Tolimán	10	San Lucas Tolimán	3	Marzo	2023-10-03T00:00:00	2024-11-08T06:00:00	5	Humedad	67
111333	7	Sololá	713	San Lucas Tolimán	10	San Lucas Tolimán	3	Marzo	2023-10-03T00:00:00	2024-11-08T06:00:00	6	Velocidad del viento	1.6
111334	7	Sololá	713	San Lucas Tolimán	10	San Lucas Tolimán	3	Marzo	2023-10-03T00:00:00	2024-11-08T06:00:00	7	Dirección del viento	1.61
111335	7	Sololá	713	San Lucas Tolimán	10	San Lucas Tolimán	3	Marzo	2023-10-03T00:00:00	2024-11-08T06:00:00	1	Precipitación	0
111336	7	Sololá	713	San Lucas Tolimán	10	San Lucas Tolimán	3	Marzo	2023-10-03T00:00:00	2024-11-08T06:00:00	8	Radiación solar	0
111337	7	Sololá	713	San Lucas Tolimán	10	San Lucas Tolimán	3	Marzo	2023-10-03T00:00:00	2024-11-08T07:00:00	2	Temperatura media	14.1
111338	7	Sololá	713	San Lucas Tolimán	10	San Lucas Tolimán	3	Marzo	2023-10-03T00:00:00	2024-11-08T07:00:00	4	Temperatura máxima	14.1
111339	7	Sololá	713	San Lucas Tolimán	10	San Lucas Tolimán	3	Marzo	2023-10-03T00:00:00	2024-11-08T07:00:00	3	Temperatura mínima	13.2
111340	7	Sololá	713	San Lucas Tolimán	10	San Lucas Tolimán	3	Marzo	2023-10-03T00:00:00	2024-11-08T07:00:00	5	Humedad	67
111341	7	Sololá	713	San Lucas Tolimán	10	San Lucas Tolimán	3	Marzo	2023-10-03T00:00:00	2024-11-08T07:00:00	6	Velocidad del viento	1.6
111342	7	Sololá	713	San Lucas Tolimán	10	San Lucas Tolimán	3	Marzo	2023-10-03T00:00:00	2024-11-08T07:00:00	7	Dirección del viento	1.61
111343	7	Sololá	713	San Lucas Tolimán	10	San Lucas Tolimán	3	Marzo	2023-10-03T00:00:00	2024-11-08T07:00:00	1	Precipitación	0
111344	7	Sololá	713	San Lucas Tolimán	10	San Lucas Tolimán	3	Marzo	2023-10-03T00:00:00	2024-11-08T07:00:00	8	Radiación solar	22
111345	7	Sololá	713	San Lucas Tolimán	10	San Lucas Tolimán	3	Marzo	2023-10-03T00:00:00	2024-11-08T08:00:00	2	Temperatura media	17.3
111346	7	Sololá	713	San Lucas Tolimán	10	San Lucas Tolimán	3	Marzo	2023-10-03T00:00:00	2024-11-08T08:00:00	4	Temperatura máxima	17.3
111347	7	Sololá	713	San Lucas Tolimán	10	San Lucas Tolimán	3	Marzo	2023-10-03T00:00:00	2024-11-08T08:00:00	3	Temperatura mínima	14.1
111348	7	Sololá	713	San Lucas Tolimán	10	San Lucas Tolimán	3	Marzo	2023-10-03T00:00:00	2024-11-08T08:00:00	5	Humedad	62
111349	7	Sololá	713	San Lucas Tolimán	10	San Lucas Tolimán	3	Marzo	2023-10-03T00:00:00	2024-11-08T08:00:00	6	Velocidad del viento	0
111350	7	Sololá	713	San Lucas Tolimán	10	San Lucas Tolimán	3	Marzo	2023-10-03T00:00:00	2024-11-08T08:00:00	7	Dirección del viento	0
111351	7	Sololá	713	San Lucas Tolimán	10	San Lucas Tolimán	3	Marzo	2023-10-03T00:00:00	2024-11-08T08:00:00	1	Precipitación	0
111352	7	Sololá	713	San Lucas Tolimán	10	San Lucas Tolimán	3	Marzo	2023-10-03T00:00:00	2024-11-08T08:00:00	8	Radiación solar	163
111353	7	Sololá	713	San Lucas Tolimán	10	San Lucas Tolimán	3	Marzo	2023-10-03T00:00:00	2024-11-08T09:00:00	2	Temperatura media	18.3
111354	7	Sololá	713	San Lucas Tolimán	10	San Lucas Tolimán	3	Marzo	2023-10-03T00:00:00	2024-11-08T09:00:00	4	Temperatura máxima	18.3
111355	7	Sololá	713	San Lucas Tolimán	10	San Lucas Tolimán	3	Marzo	2023-10-03T00:00:00	2024-11-08T09:00:00	3	Temperatura mínima	17.3
111356	7	Sololá	713	San Lucas Tolimán	10	San Lucas Tolimán	3	Marzo	2023-10-03T00:00:00	2024-11-08T09:00:00	5	Humedad	55
111357	7	Sololá	713	San Lucas Tolimán	10	San Lucas Tolimán	3	Marzo	2023-10-03T00:00:00	2024-11-08T09:00:00	6	Velocidad del viento	3.2
111358	7	Sololá	713	San Lucas Tolimán	10	San Lucas Tolimán	3	Marzo	2023-10-03T00:00:00	2024-11-08T09:00:00	7	Dirección del viento	3.22
111359	7	Sololá	713	San Lucas Tolimán	10	San Lucas Tolimán	3	Marzo	2023-10-03T00:00:00	2024-11-08T09:00:00	1	Precipitación	0
111360	7	Sololá	713	San Lucas Tolimán	10	San Lucas Tolimán	3	Marzo	2023-10-03T00:00:00	2024-11-08T09:00:00	8	Radiación solar	206
111361	7	Sololá	713	San Lucas Tolimán	10	San Lucas Tolimán	3	Marzo	2023-10-03T00:00:00	2024-11-08T10:00:00	2	Temperatura media	18.6
111362	7	Sololá	713	San Lucas Tolimán	10	San Lucas Tolimán	3	Marzo	2023-10-03T00:00:00	2024-11-08T10:00:00	4	Temperatura máxima	19.2
111363	7	Sololá	713	San Lucas Tolimán	10	San Lucas Tolimán	3	Marzo	2023-10-03T00:00:00	2024-11-08T10:00:00	3	Temperatura mínima	18.3
111364	7	Sololá	713	San Lucas Tolimán	10	San Lucas Tolimán	3	Marzo	2023-10-03T00:00:00	2024-11-08T10:00:00	5	Humedad	56
111365	7	Sololá	713	San Lucas Tolimán	10	San Lucas Tolimán	3	Marzo	2023-10-03T00:00:00	2024-11-08T10:00:00	6	Velocidad del viento	6.4
111366	7	Sololá	713	San Lucas Tolimán	10	San Lucas Tolimán	3	Marzo	2023-10-03T00:00:00	2024-11-08T10:00:00	7	Dirección del viento	6.44
111367	7	Sololá	713	San Lucas Tolimán	10	San Lucas Tolimán	3	Marzo	2023-10-03T00:00:00	2024-11-08T10:00:00	1	Precipitación	0
111368	7	Sololá	713	San Lucas Tolimán	10	San Lucas Tolimán	3	Marzo	2023-10-03T00:00:00	2024-11-08T10:00:00	8	Radiación solar	331
111369	7	Sololá	713	San Lucas Tolimán	10	San Lucas Tolimán	3	Marzo	2023-10-03T00:00:00	2024-11-08T11:00:00	2	Temperatura media	18.3
111370	7	Sololá	713	San Lucas Tolimán	10	San Lucas Tolimán	3	Marzo	2023-10-03T00:00:00	2024-11-08T11:00:00	4	Temperatura máxima	19
111371	7	Sololá	713	San Lucas Tolimán	10	San Lucas Tolimán	3	Marzo	2023-10-03T00:00:00	2024-11-08T11:00:00	3	Temperatura mínima	18.3
111372	7	Sololá	713	San Lucas Tolimán	10	San Lucas Tolimán	3	Marzo	2023-10-03T00:00:00	2024-11-08T11:00:00	5	Humedad	57
111373	7	Sololá	713	San Lucas Tolimán	10	San Lucas Tolimán	3	Marzo	2023-10-03T00:00:00	2024-11-08T11:00:00	6	Velocidad del viento	8
111374	7	Sololá	713	San Lucas Tolimán	10	San Lucas Tolimán	3	Marzo	2023-10-03T00:00:00	2024-11-08T11:00:00	7	Dirección del viento	8.05
111375	7	Sololá	713	San Lucas Tolimán	10	San Lucas Tolimán	3	Marzo	2023-10-03T00:00:00	2024-11-08T11:00:00	1	Precipitación	0
111376	7	Sololá	713	San Lucas Tolimán	10	San Lucas Tolimán	3	Marzo	2023-10-03T00:00:00	2024-11-08T11:00:00	8	Radiación solar	301
111377	7	Sololá	713	San Lucas Tolimán	10	San Lucas Tolimán	3	Marzo	2023-10-03T00:00:00	2024-11-08T12:00:00	2	Temperatura media	18.1
111378	7	Sololá	713	San Lucas Tolimán	10	San Lucas Tolimán	3	Marzo	2023-10-03T00:00:00	2024-11-08T12:00:00	4	Temperatura máxima	18.3
111379	7	Sololá	713	San Lucas Tolimán	10	San Lucas Tolimán	3	Marzo	2023-10-03T00:00:00	2024-11-08T12:00:00	3	Temperatura mínima	17.7
111380	7	Sololá	713	San Lucas Tolimán	10	San Lucas Tolimán	3	Marzo	2023-10-03T00:00:00	2024-11-08T12:00:00	5	Humedad	59
111381	7	Sololá	713	San Lucas Tolimán	10	San Lucas Tolimán	3	Marzo	2023-10-03T00:00:00	2024-11-08T12:00:00	6	Velocidad del viento	11.3
111382	7	Sololá	713	San Lucas Tolimán	10	San Lucas Tolimán	3	Marzo	2023-10-03T00:00:00	2024-11-08T12:00:00	7	Dirección del viento	11.27
111383	7	Sololá	713	San Lucas Tolimán	10	San Lucas Tolimán	3	Marzo	2023-10-03T00:00:00	2024-11-08T12:00:00	1	Precipitación	0
111384	7	Sololá	713	San Lucas Tolimán	10	San Lucas Tolimán	3	Marzo	2023-10-03T00:00:00	2024-11-08T12:00:00	8	Radiación solar	205
111385	7	Sololá	713	San Lucas Tolimán	10	San Lucas Tolimán	3	Marzo	2023-10-03T00:00:00	2024-11-08T13:00:00	2	Temperatura media	19.4
111386	7	Sololá	713	San Lucas Tolimán	10	San Lucas Tolimán	3	Marzo	2023-10-03T00:00:00	2024-11-08T13:00:00	4	Temperatura máxima	19.8
111387	7	Sololá	713	San Lucas Tolimán	10	San Lucas Tolimán	3	Marzo	2023-10-03T00:00:00	2024-11-08T13:00:00	3	Temperatura mínima	18.1
111388	7	Sololá	713	San Lucas Tolimán	10	San Lucas Tolimán	3	Marzo	2023-10-03T00:00:00	2024-11-08T13:00:00	5	Humedad	56
111389	7	Sololá	713	San Lucas Tolimán	10	San Lucas Tolimán	3	Marzo	2023-10-03T00:00:00	2024-11-08T13:00:00	6	Velocidad del viento	6.4
111390	7	Sololá	713	San Lucas Tolimán	10	San Lucas Tolimán	3	Marzo	2023-10-03T00:00:00	2024-11-08T13:00:00	7	Dirección del viento	6.44
111391	7	Sololá	713	San Lucas Tolimán	10	San Lucas Tolimán	3	Marzo	2023-10-03T00:00:00	2024-11-08T13:00:00	1	Precipitación	0
111392	7	Sololá	713	San Lucas Tolimán	10	San Lucas Tolimán	3	Marzo	2023-10-03T00:00:00	2024-11-08T13:00:00	8	Radiación solar	427
111393	7	Sololá	713	San Lucas Tolimán	10	San Lucas Tolimán	3	Marzo	2023-10-03T00:00:00	2024-11-08T14:00:00	2	Temperatura media	21.6
111394	7	Sololá	713	San Lucas Tolimán	10	San Lucas Tolimán	3	Marzo	2023-10-03T00:00:00	2024-11-08T14:00:00	4	Temperatura máxima	21.6
111395	7	Sololá	713	San Lucas Tolimán	10	San Lucas Tolimán	3	Marzo	2023-10-03T00:00:00	2024-11-08T14:00:00	3	Temperatura mínima	19.2
111396	7	Sololá	713	San Lucas Tolimán	10	San Lucas Tolimán	3	Marzo	2023-10-03T00:00:00	2024-11-08T14:00:00	5	Humedad	50
111397	7	Sololá	713	San Lucas Tolimán	10	San Lucas Tolimán	3	Marzo	2023-10-03T00:00:00	2024-11-08T14:00:00	6	Velocidad del viento	8
111398	7	Sololá	713	San Lucas Tolimán	10	San Lucas Tolimán	3	Marzo	2023-10-03T00:00:00	2024-11-08T14:00:00	7	Dirección del viento	8.05
111399	7	Sololá	713	San Lucas Tolimán	10	San Lucas Tolimán	3	Marzo	2023-10-03T00:00:00	2024-11-08T14:00:00	1	Precipitación	0
111400	7	Sololá	713	San Lucas Tolimán	10	San Lucas Tolimán	3	Marzo	2023-10-03T00:00:00	2024-11-08T14:00:00	8	Radiación solar	682
111401	7	Sololá	713	San Lucas Tolimán	10	San Lucas Tolimán	3	Marzo	2023-10-03T00:00:00	2024-11-08T15:00:00	2	Temperatura media	20.1
111402	7	Sololá	713	San Lucas Tolimán	10	San Lucas Tolimán	3	Marzo	2023-10-03T00:00:00	2024-11-08T15:00:00	4	Temperatura máxima	21.7
111403	7	Sololá	713	San Lucas Tolimán	10	San Lucas Tolimán	3	Marzo	2023-10-03T00:00:00	2024-11-08T15:00:00	3	Temperatura mínima	18.9
111404	7	Sololá	713	San Lucas Tolimán	10	San Lucas Tolimán	3	Marzo	2023-10-03T00:00:00	2024-11-08T15:00:00	5	Humedad	57
111405	7	Sololá	713	San Lucas Tolimán	10	San Lucas Tolimán	3	Marzo	2023-10-03T00:00:00	2024-11-08T15:00:00	6	Velocidad del viento	9.7
111406	7	Sololá	713	San Lucas Tolimán	10	San Lucas Tolimán	3	Marzo	2023-10-03T00:00:00	2024-11-08T15:00:00	7	Dirección del viento	9.66
111407	7	Sololá	713	San Lucas Tolimán	10	San Lucas Tolimán	3	Marzo	2023-10-03T00:00:00	2024-11-08T15:00:00	1	Precipitación	0
111408	7	Sololá	713	San Lucas Tolimán	10	San Lucas Tolimán	3	Marzo	2023-10-03T00:00:00	2024-11-08T15:00:00	8	Radiación solar	413
111409	7	Sololá	713	San Lucas Tolimán	10	San Lucas Tolimán	3	Marzo	2023-10-03T00:00:00	2024-11-08T16:00:00	2	Temperatura media	20.1
111410	7	Sololá	713	San Lucas Tolimán	10	San Lucas Tolimán	3	Marzo	2023-10-03T00:00:00	2024-11-08T16:00:00	4	Temperatura máxima	20.1
111411	7	Sololá	713	San Lucas Tolimán	10	San Lucas Tolimán	3	Marzo	2023-10-03T00:00:00	2024-11-08T16:00:00	3	Temperatura mínima	19.3
111412	7	Sololá	713	San Lucas Tolimán	10	San Lucas Tolimán	3	Marzo	2023-10-03T00:00:00	2024-11-08T16:00:00	5	Humedad	58
111413	7	Sololá	713	San Lucas Tolimán	10	San Lucas Tolimán	3	Marzo	2023-10-03T00:00:00	2024-11-08T16:00:00	6	Velocidad del viento	9.7
111414	7	Sololá	713	San Lucas Tolimán	10	San Lucas Tolimán	3	Marzo	2023-10-03T00:00:00	2024-11-08T16:00:00	7	Dirección del viento	9.66
111415	7	Sololá	713	San Lucas Tolimán	10	San Lucas Tolimán	3	Marzo	2023-10-03T00:00:00	2024-11-08T16:00:00	1	Precipitación	0
111416	7	Sololá	713	San Lucas Tolimán	10	San Lucas Tolimán	3	Marzo	2023-10-03T00:00:00	2024-11-08T16:00:00	8	Radiación solar	412
111417	7	Sololá	713	San Lucas Tolimán	10	San Lucas Tolimán	3	Marzo	2023-10-03T00:00:00	2024-11-08T17:00:00	2	Temperatura media	19.3
111418	7	Sololá	713	San Lucas Tolimán	10	San Lucas Tolimán	3	Marzo	2023-10-03T00:00:00	2024-11-08T17:00:00	4	Temperatura máxima	20.4
111419	7	Sololá	713	San Lucas Tolimán	10	San Lucas Tolimán	3	Marzo	2023-10-03T00:00:00	2024-11-08T17:00:00	3	Temperatura mínima	19.1
111420	7	Sololá	713	San Lucas Tolimán	10	San Lucas Tolimán	3	Marzo	2023-10-03T00:00:00	2024-11-08T17:00:00	5	Humedad	62
111421	7	Sololá	713	San Lucas Tolimán	10	San Lucas Tolimán	3	Marzo	2023-10-03T00:00:00	2024-11-08T17:00:00	6	Velocidad del viento	6.4
111422	7	Sololá	713	San Lucas Tolimán	10	San Lucas Tolimán	3	Marzo	2023-10-03T00:00:00	2024-11-08T17:00:00	7	Dirección del viento	6.44
111423	7	Sololá	713	San Lucas Tolimán	10	San Lucas Tolimán	3	Marzo	2023-10-03T00:00:00	2024-11-08T17:00:00	1	Precipitación	0
111424	7	Sololá	713	San Lucas Tolimán	10	San Lucas Tolimán	3	Marzo	2023-10-03T00:00:00	2024-11-08T17:00:00	8	Radiación solar	229
111425	7	Sololá	713	San Lucas Tolimán	10	San Lucas Tolimán	3	Marzo	2023-10-03T00:00:00	2024-11-08T18:00:00	2	Temperatura media	18.4
111426	7	Sololá	713	San Lucas Tolimán	10	San Lucas Tolimán	3	Marzo	2023-10-03T00:00:00	2024-11-08T18:00:00	4	Temperatura máxima	19.3
111427	7	Sololá	713	San Lucas Tolimán	10	San Lucas Tolimán	3	Marzo	2023-10-03T00:00:00	2024-11-08T18:00:00	3	Temperatura mínima	18.3
111428	7	Sololá	713	San Lucas Tolimán	10	San Lucas Tolimán	3	Marzo	2023-10-03T00:00:00	2024-11-08T18:00:00	5	Humedad	64
111429	7	Sololá	713	San Lucas Tolimán	10	San Lucas Tolimán	3	Marzo	2023-10-03T00:00:00	2024-11-08T18:00:00	6	Velocidad del viento	6.4
111430	7	Sololá	713	San Lucas Tolimán	10	San Lucas Tolimán	3	Marzo	2023-10-03T00:00:00	2024-11-08T18:00:00	7	Dirección del viento	6.44
111431	7	Sololá	713	San Lucas Tolimán	10	San Lucas Tolimán	3	Marzo	2023-10-03T00:00:00	2024-11-08T18:00:00	1	Precipitación	0
111432	7	Sololá	713	San Lucas Tolimán	10	San Lucas Tolimán	3	Marzo	2023-10-03T00:00:00	2024-11-08T18:00:00	8	Radiación solar	69
111433	7	Sololá	713	San Lucas Tolimán	10	San Lucas Tolimán	3	Marzo	2023-10-03T00:00:00	2024-11-08T19:00:00	2	Temperatura media	17.7
111434	7	Sololá	713	San Lucas Tolimán	10	San Lucas Tolimán	3	Marzo	2023-10-03T00:00:00	2024-11-08T19:00:00	4	Temperatura máxima	18.4
111435	7	Sololá	713	San Lucas Tolimán	10	San Lucas Tolimán	3	Marzo	2023-10-03T00:00:00	2024-11-08T19:00:00	3	Temperatura mínima	17.6
111436	7	Sololá	713	San Lucas Tolimán	10	San Lucas Tolimán	3	Marzo	2023-10-03T00:00:00	2024-11-08T19:00:00	5	Humedad	66
111437	7	Sololá	713	San Lucas Tolimán	10	San Lucas Tolimán	3	Marzo	2023-10-03T00:00:00	2024-11-08T19:00:00	6	Velocidad del viento	4.8
111438	7	Sololá	713	San Lucas Tolimán	10	San Lucas Tolimán	3	Marzo	2023-10-03T00:00:00	2024-11-08T19:00:00	7	Dirección del viento	4.83
111439	7	Sololá	713	San Lucas Tolimán	10	San Lucas Tolimán	3	Marzo	2023-10-03T00:00:00	2024-11-08T19:00:00	1	Precipitación	0
111440	7	Sololá	713	San Lucas Tolimán	10	San Lucas Tolimán	3	Marzo	2023-10-03T00:00:00	2024-11-08T19:00:00	8	Radiación solar	0
111441	7	Sololá	713	San Lucas Tolimán	10	San Lucas Tolimán	3	Marzo	2023-10-03T00:00:00	2024-11-08T20:00:00	2	Temperatura media	16.8
111442	7	Sololá	713	San Lucas Tolimán	10	San Lucas Tolimán	3	Marzo	2023-10-03T00:00:00	2024-11-08T20:00:00	4	Temperatura máxima	17.7
111443	7	Sololá	713	San Lucas Tolimán	10	San Lucas Tolimán	3	Marzo	2023-10-03T00:00:00	2024-11-08T20:00:00	3	Temperatura mínima	16.8
111444	7	Sololá	713	San Lucas Tolimán	10	San Lucas Tolimán	3	Marzo	2023-10-03T00:00:00	2024-11-08T20:00:00	5	Humedad	65
111445	7	Sololá	713	San Lucas Tolimán	10	San Lucas Tolimán	3	Marzo	2023-10-03T00:00:00	2024-11-08T20:00:00	6	Velocidad del viento	4.8
111446	7	Sololá	713	San Lucas Tolimán	10	San Lucas Tolimán	3	Marzo	2023-10-03T00:00:00	2024-11-08T20:00:00	7	Dirección del viento	4.83
111447	7	Sololá	713	San Lucas Tolimán	10	San Lucas Tolimán	3	Marzo	2023-10-03T00:00:00	2024-11-08T20:00:00	1	Precipitación	0
111448	7	Sololá	713	San Lucas Tolimán	10	San Lucas Tolimán	3	Marzo	2023-10-03T00:00:00	2024-11-08T20:00:00	8	Radiación solar	0
111449	7	Sololá	713	San Lucas Tolimán	10	San Lucas Tolimán	3	Marzo	2023-10-03T00:00:00	2024-11-08T21:00:00	2	Temperatura media	17
111450	7	Sololá	713	San Lucas Tolimán	10	San Lucas Tolimán	3	Marzo	2023-10-03T00:00:00	2024-11-08T21:00:00	4	Temperatura máxima	17.2
111451	7	Sololá	713	San Lucas Tolimán	10	San Lucas Tolimán	3	Marzo	2023-10-03T00:00:00	2024-11-08T21:00:00	3	Temperatura mínima	16.8
111452	7	Sololá	713	San Lucas Tolimán	10	San Lucas Tolimán	3	Marzo	2023-10-03T00:00:00	2024-11-08T21:00:00	5	Humedad	67
111453	7	Sololá	713	San Lucas Tolimán	10	San Lucas Tolimán	3	Marzo	2023-10-03T00:00:00	2024-11-08T21:00:00	6	Velocidad del viento	4.8
111454	7	Sololá	713	San Lucas Tolimán	10	San Lucas Tolimán	3	Marzo	2023-10-03T00:00:00	2024-11-08T21:00:00	7	Dirección del viento	4.83
111455	7	Sololá	713	San Lucas Tolimán	10	San Lucas Tolimán	3	Marzo	2023-10-03T00:00:00	2024-11-08T21:00:00	1	Precipitación	0
111456	7	Sololá	713	San Lucas Tolimán	10	San Lucas Tolimán	3	Marzo	2023-10-03T00:00:00	2024-11-08T21:00:00	8	Radiación solar	0
111457	7	Sololá	713	San Lucas Tolimán	10	San Lucas Tolimán	3	Marzo	2023-10-03T00:00:00	2024-11-08T22:00:00	2	Temperatura media	16.7
111458	7	Sololá	713	San Lucas Tolimán	10	San Lucas Tolimán	3	Marzo	2023-10-03T00:00:00	2024-11-08T22:00:00	4	Temperatura máxima	17.2
111459	7	Sololá	713	San Lucas Tolimán	10	San Lucas Tolimán	3	Marzo	2023-10-03T00:00:00	2024-11-08T22:00:00	3	Temperatura mínima	16.7
111460	7	Sololá	713	San Lucas Tolimán	10	San Lucas Tolimán	3	Marzo	2023-10-03T00:00:00	2024-11-08T22:00:00	5	Humedad	69
111461	7	Sololá	713	San Lucas Tolimán	10	San Lucas Tolimán	3	Marzo	2023-10-03T00:00:00	2024-11-08T22:00:00	6	Velocidad del viento	4.8
111462	7	Sololá	713	San Lucas Tolimán	10	San Lucas Tolimán	3	Marzo	2023-10-03T00:00:00	2024-11-08T22:00:00	7	Dirección del viento	4.83
111463	7	Sololá	713	San Lucas Tolimán	10	San Lucas Tolimán	3	Marzo	2023-10-03T00:00:00	2024-11-08T22:00:00	1	Precipitación	0
111464	7	Sololá	713	San Lucas Tolimán	10	San Lucas Tolimán	3	Marzo	2023-10-03T00:00:00	2024-11-08T22:00:00	8	Radiación solar	0
111465	7	Sololá	713	San Lucas Tolimán	10	San Lucas Tolimán	3	Marzo	2023-10-03T00:00:00	2024-11-08T23:00:00	2	Temperatura media	16.8
111466	7	Sololá	713	San Lucas Tolimán	10	San Lucas Tolimán	3	Marzo	2023-10-03T00:00:00	2024-11-08T23:00:00	4	Temperatura máxima	16.9
111467	7	Sololá	713	San Lucas Tolimán	10	San Lucas Tolimán	3	Marzo	2023-10-03T00:00:00	2024-11-08T23:00:00	3	Temperatura mínima	16.7
111468	7	Sololá	713	San Lucas Tolimán	10	San Lucas Tolimán	3	Marzo	2023-10-03T00:00:00	2024-11-08T23:00:00	5	Humedad	68
111469	7	Sololá	713	San Lucas Tolimán	10	San Lucas Tolimán	3	Marzo	2023-10-03T00:00:00	2024-11-08T23:00:00	6	Velocidad del viento	6.4
111470	7	Sololá	713	San Lucas Tolimán	10	San Lucas Tolimán	3	Marzo	2023-10-03T00:00:00	2024-11-08T23:00:00	7	Dirección del viento	6.44
111471	7	Sololá	713	San Lucas Tolimán	10	San Lucas Tolimán	3	Marzo	2023-10-03T00:00:00	2024-11-08T23:00:00	1	Precipitación	0
111472	7	Sololá	713	San Lucas Tolimán	10	San Lucas Tolimán	3	Marzo	2023-10-03T00:00:00	2024-11-08T23:00:00	8	Radiación solar	0
111473	7	Sololá	713	San Lucas Tolimán	10	San Lucas Tolimán	3	Marzo	2023-11-03T00:00:00	2024-11-08T00:00:00	2	Temperatura media	16.7
111474	7	Sololá	713	San Lucas Tolimán	10	San Lucas Tolimán	3	Marzo	2023-11-03T00:00:00	2024-11-08T00:00:00	4	Temperatura máxima	17
111475	7	Sololá	713	San Lucas Tolimán	10	San Lucas Tolimán	3	Marzo	2023-11-03T00:00:00	2024-11-08T00:00:00	3	Temperatura mínima	16.6
111476	7	Sololá	713	San Lucas Tolimán	10	San Lucas Tolimán	3	Marzo	2023-11-03T00:00:00	2024-11-08T00:00:00	5	Humedad	65
111477	7	Sololá	713	San Lucas Tolimán	10	San Lucas Tolimán	3	Marzo	2023-11-03T00:00:00	2024-11-08T00:00:00	6	Velocidad del viento	1.6
111478	7	Sololá	713	San Lucas Tolimán	10	San Lucas Tolimán	3	Marzo	2023-11-03T00:00:00	2024-11-08T00:00:00	7	Dirección del viento	1.61
111479	7	Sololá	713	San Lucas Tolimán	10	San Lucas Tolimán	3	Marzo	2023-11-03T00:00:00	2024-11-08T00:00:00	1	Precipitación	0
111480	7	Sololá	713	San Lucas Tolimán	10	San Lucas Tolimán	3	Marzo	2023-11-03T00:00:00	2024-11-08T00:00:00	8	Radiación solar	0
111481	7	Sololá	713	San Lucas Tolimán	10	San Lucas Tolimán	3	Marzo	2023-11-03T00:00:00	2024-11-08T01:00:00	2	Temperatura media	16.4
111482	7	Sololá	713	San Lucas Tolimán	10	San Lucas Tolimán	3	Marzo	2023-11-03T00:00:00	2024-11-08T01:00:00	4	Temperatura máxima	16.7
111483	7	Sololá	713	San Lucas Tolimán	10	San Lucas Tolimán	3	Marzo	2023-11-03T00:00:00	2024-11-08T01:00:00	3	Temperatura mínima	16.3
111484	7	Sololá	713	San Lucas Tolimán	10	San Lucas Tolimán	3	Marzo	2023-11-03T00:00:00	2024-11-08T01:00:00	5	Humedad	66
111485	7	Sololá	713	San Lucas Tolimán	10	San Lucas Tolimán	3	Marzo	2023-11-03T00:00:00	2024-11-08T01:00:00	6	Velocidad del viento	1.6
111486	7	Sololá	713	San Lucas Tolimán	10	San Lucas Tolimán	3	Marzo	2023-11-03T00:00:00	2024-11-08T01:00:00	7	Dirección del viento	1.61
111487	7	Sololá	713	San Lucas Tolimán	10	San Lucas Tolimán	3	Marzo	2023-11-03T00:00:00	2024-11-08T01:00:00	1	Precipitación	0
111488	7	Sololá	713	San Lucas Tolimán	10	San Lucas Tolimán	3	Marzo	2023-11-03T00:00:00	2024-11-08T01:00:00	8	Radiación solar	0
111489	7	Sololá	713	San Lucas Tolimán	10	San Lucas Tolimán	3	Marzo	2023-11-03T00:00:00	2024-11-08T02:00:00	2	Temperatura media	15.7
111490	7	Sololá	713	San Lucas Tolimán	10	San Lucas Tolimán	3	Marzo	2023-11-03T00:00:00	2024-11-08T02:00:00	4	Temperatura máxima	16.5
111491	7	Sololá	713	San Lucas Tolimán	10	San Lucas Tolimán	3	Marzo	2023-11-03T00:00:00	2024-11-08T02:00:00	3	Temperatura mínima	15.7
111492	7	Sololá	713	San Lucas Tolimán	10	San Lucas Tolimán	3	Marzo	2023-11-03T00:00:00	2024-11-08T02:00:00	5	Humedad	66
111493	7	Sololá	713	San Lucas Tolimán	10	San Lucas Tolimán	3	Marzo	2023-11-03T00:00:00	2024-11-08T02:00:00	6	Velocidad del viento	1.6
111494	7	Sololá	713	San Lucas Tolimán	10	San Lucas Tolimán	3	Marzo	2023-11-03T00:00:00	2024-11-08T02:00:00	7	Dirección del viento	1.61
111495	7	Sololá	713	San Lucas Tolimán	10	San Lucas Tolimán	3	Marzo	2023-11-03T00:00:00	2024-11-08T02:00:00	1	Precipitación	0
111496	7	Sololá	713	San Lucas Tolimán	10	San Lucas Tolimán	3	Marzo	2023-11-03T00:00:00	2024-11-08T02:00:00	8	Radiación solar	0
111497	7	Sololá	713	San Lucas Tolimán	10	San Lucas Tolimán	3	Marzo	2023-11-03T00:00:00	2024-11-08T03:00:00	2	Temperatura media	14.4
111498	7	Sololá	713	San Lucas Tolimán	10	San Lucas Tolimán	3	Marzo	2023-11-03T00:00:00	2024-11-08T03:00:00	4	Temperatura máxima	15.8
111499	7	Sololá	713	San Lucas Tolimán	10	San Lucas Tolimán	3	Marzo	2023-11-03T00:00:00	2024-11-08T03:00:00	3	Temperatura mínima	14.4
111500	7	Sololá	713	San Lucas Tolimán	10	San Lucas Tolimán	3	Marzo	2023-11-03T00:00:00	2024-11-08T03:00:00	5	Humedad	67
111501	7	Sololá	713	San Lucas Tolimán	10	San Lucas Tolimán	3	Marzo	2023-11-03T00:00:00	2024-11-08T03:00:00	6	Velocidad del viento	1.6
111502	7	Sololá	713	San Lucas Tolimán	10	San Lucas Tolimán	3	Marzo	2023-11-03T00:00:00	2024-11-08T03:00:00	7	Dirección del viento	1.61
111503	7	Sololá	713	San Lucas Tolimán	10	San Lucas Tolimán	3	Marzo	2023-11-03T00:00:00	2024-11-08T03:00:00	1	Precipitación	0
111504	7	Sololá	713	San Lucas Tolimán	10	San Lucas Tolimán	3	Marzo	2023-11-03T00:00:00	2024-11-08T03:00:00	8	Radiación solar	0
111505	7	Sololá	713	San Lucas Tolimán	10	San Lucas Tolimán	3	Marzo	2023-11-03T00:00:00	2024-11-08T04:00:00	2	Temperatura media	14.4
111506	7	Sololá	713	San Lucas Tolimán	10	San Lucas Tolimán	3	Marzo	2023-11-03T00:00:00	2024-11-08T04:00:00	4	Temperatura máxima	14.7
111507	7	Sololá	713	San Lucas Tolimán	10	San Lucas Tolimán	3	Marzo	2023-11-03T00:00:00	2024-11-08T04:00:00	3	Temperatura mínima	14.3
111508	7	Sololá	713	San Lucas Tolimán	10	San Lucas Tolimán	3	Marzo	2023-11-03T00:00:00	2024-11-08T04:00:00	5	Humedad	65
111509	7	Sololá	713	San Lucas Tolimán	10	San Lucas Tolimán	3	Marzo	2023-11-03T00:00:00	2024-11-08T04:00:00	6	Velocidad del viento	3.2
111510	7	Sololá	713	San Lucas Tolimán	10	San Lucas Tolimán	3	Marzo	2023-11-03T00:00:00	2024-11-08T04:00:00	7	Dirección del viento	3.22
111511	7	Sololá	713	San Lucas Tolimán	10	San Lucas Tolimán	3	Marzo	2023-11-03T00:00:00	2024-11-08T04:00:00	1	Precipitación	0
111512	7	Sololá	713	San Lucas Tolimán	10	San Lucas Tolimán	3	Marzo	2023-11-03T00:00:00	2024-11-08T04:00:00	8	Radiación solar	0
111513	7	Sololá	713	San Lucas Tolimán	10	San Lucas Tolimán	3	Marzo	2023-11-03T00:00:00	2024-11-08T05:00:00	2	Temperatura media	14.7
111514	7	Sololá	713	San Lucas Tolimán	10	San Lucas Tolimán	3	Marzo	2023-11-03T00:00:00	2024-11-08T05:00:00	4	Temperatura máxima	14.8
111515	7	Sololá	713	San Lucas Tolimán	10	San Lucas Tolimán	3	Marzo	2023-11-03T00:00:00	2024-11-08T05:00:00	3	Temperatura mínima	14.3
111516	7	Sololá	713	San Lucas Tolimán	10	San Lucas Tolimán	3	Marzo	2023-11-03T00:00:00	2024-11-08T05:00:00	5	Humedad	65
111517	7	Sololá	713	San Lucas Tolimán	10	San Lucas Tolimán	3	Marzo	2023-11-03T00:00:00	2024-11-08T05:00:00	6	Velocidad del viento	4.8
111518	7	Sololá	713	San Lucas Tolimán	10	San Lucas Tolimán	3	Marzo	2023-11-03T00:00:00	2024-11-08T05:00:00	7	Dirección del viento	4.83
111519	7	Sololá	713	San Lucas Tolimán	10	San Lucas Tolimán	3	Marzo	2023-11-03T00:00:00	2024-11-08T05:00:00	1	Precipitación	0
111520	7	Sololá	713	San Lucas Tolimán	10	San Lucas Tolimán	3	Marzo	2023-11-03T00:00:00	2024-11-08T05:00:00	8	Radiación solar	0
111521	7	Sololá	713	San Lucas Tolimán	10	San Lucas Tolimán	3	Marzo	2023-11-03T00:00:00	2024-11-08T06:00:00	2	Temperatura media	14.9
111522	7	Sololá	713	San Lucas Tolimán	10	San Lucas Tolimán	3	Marzo	2023-11-03T00:00:00	2024-11-08T06:00:00	4	Temperatura máxima	15.1
111523	7	Sololá	713	San Lucas Tolimán	10	San Lucas Tolimán	3	Marzo	2023-11-03T00:00:00	2024-11-08T06:00:00	3	Temperatura mínima	14.7
111524	7	Sololá	713	San Lucas Tolimán	10	San Lucas Tolimán	3	Marzo	2023-11-03T00:00:00	2024-11-08T06:00:00	5	Humedad	65
111525	7	Sololá	713	San Lucas Tolimán	10	San Lucas Tolimán	3	Marzo	2023-11-03T00:00:00	2024-11-08T06:00:00	6	Velocidad del viento	4.8
111526	7	Sololá	713	San Lucas Tolimán	10	San Lucas Tolimán	3	Marzo	2023-11-03T00:00:00	2024-11-08T06:00:00	7	Dirección del viento	4.83
111527	7	Sololá	713	San Lucas Tolimán	10	San Lucas Tolimán	3	Marzo	2023-11-03T00:00:00	2024-11-08T06:00:00	1	Precipitación	0
111528	7	Sololá	713	San Lucas Tolimán	10	San Lucas Tolimán	3	Marzo	2023-11-03T00:00:00	2024-11-08T06:00:00	8	Radiación solar	0
111529	7	Sololá	713	San Lucas Tolimán	10	San Lucas Tolimán	3	Marzo	2023-11-03T00:00:00	2024-11-08T07:00:00	2	Temperatura media	15
111530	7	Sololá	713	San Lucas Tolimán	10	San Lucas Tolimán	3	Marzo	2023-11-03T00:00:00	2024-11-08T07:00:00	4	Temperatura máxima	15.1
111531	7	Sololá	713	San Lucas Tolimán	10	San Lucas Tolimán	3	Marzo	2023-11-03T00:00:00	2024-11-08T07:00:00	3	Temperatura mínima	14.7
111532	7	Sololá	713	San Lucas Tolimán	10	San Lucas Tolimán	3	Marzo	2023-11-03T00:00:00	2024-11-08T07:00:00	5	Humedad	66
111533	7	Sololá	713	San Lucas Tolimán	10	San Lucas Tolimán	3	Marzo	2023-11-03T00:00:00	2024-11-08T07:00:00	6	Velocidad del viento	3.2
111534	7	Sololá	713	San Lucas Tolimán	10	San Lucas Tolimán	3	Marzo	2023-11-03T00:00:00	2024-11-08T07:00:00	7	Dirección del viento	3.22
111535	7	Sololá	713	San Lucas Tolimán	10	San Lucas Tolimán	3	Marzo	2023-11-03T00:00:00	2024-11-08T07:00:00	1	Precipitación	0
111536	7	Sololá	713	San Lucas Tolimán	10	San Lucas Tolimán	3	Marzo	2023-11-03T00:00:00	2024-11-08T07:00:00	8	Radiación solar	19
111537	7	Sololá	713	San Lucas Tolimán	10	San Lucas Tolimán	3	Marzo	2023-11-03T00:00:00	2024-11-08T08:00:00	2	Temperatura media	17
111538	7	Sololá	713	San Lucas Tolimán	10	San Lucas Tolimán	3	Marzo	2023-11-03T00:00:00	2024-11-08T08:00:00	4	Temperatura máxima	17
111539	7	Sololá	713	San Lucas Tolimán	10	San Lucas Tolimán	3	Marzo	2023-11-03T00:00:00	2024-11-08T08:00:00	3	Temperatura mínima	14.9
111540	7	Sololá	713	San Lucas Tolimán	10	San Lucas Tolimán	3	Marzo	2023-11-03T00:00:00	2024-11-08T08:00:00	5	Humedad	64
111541	7	Sololá	713	San Lucas Tolimán	10	San Lucas Tolimán	3	Marzo	2023-11-03T00:00:00	2024-11-08T08:00:00	6	Velocidad del viento	3.2
111542	7	Sololá	713	San Lucas Tolimán	10	San Lucas Tolimán	3	Marzo	2023-11-03T00:00:00	2024-11-08T08:00:00	7	Dirección del viento	3.22
111543	7	Sololá	713	San Lucas Tolimán	10	San Lucas Tolimán	3	Marzo	2023-11-03T00:00:00	2024-11-08T08:00:00	1	Precipitación	0
111544	7	Sololá	713	San Lucas Tolimán	10	San Lucas Tolimán	3	Marzo	2023-11-03T00:00:00	2024-11-08T08:00:00	8	Radiación solar	128
111545	7	Sololá	713	San Lucas Tolimán	10	San Lucas Tolimán	3	Marzo	2023-11-03T00:00:00	2024-11-08T09:00:00	2	Temperatura media	17.6
111546	7	Sololá	713	San Lucas Tolimán	10	San Lucas Tolimán	3	Marzo	2023-11-03T00:00:00	2024-11-08T09:00:00	4	Temperatura máxima	17.6
111547	7	Sololá	713	San Lucas Tolimán	10	San Lucas Tolimán	3	Marzo	2023-11-03T00:00:00	2024-11-08T09:00:00	3	Temperatura mínima	16.7
111548	7	Sololá	713	San Lucas Tolimán	10	San Lucas Tolimán	3	Marzo	2023-11-03T00:00:00	2024-11-08T09:00:00	5	Humedad	62
111549	7	Sololá	713	San Lucas Tolimán	10	San Lucas Tolimán	3	Marzo	2023-11-03T00:00:00	2024-11-08T09:00:00	6	Velocidad del viento	4.8
111550	7	Sololá	713	San Lucas Tolimán	10	San Lucas Tolimán	3	Marzo	2023-11-03T00:00:00	2024-11-08T09:00:00	7	Dirección del viento	4.83
111551	7	Sololá	713	San Lucas Tolimán	10	San Lucas Tolimán	3	Marzo	2023-11-03T00:00:00	2024-11-08T09:00:00	1	Precipitación	0
111552	7	Sololá	713	San Lucas Tolimán	10	San Lucas Tolimán	3	Marzo	2023-11-03T00:00:00	2024-11-08T09:00:00	8	Radiación solar	207
111553	7	Sololá	713	San Lucas Tolimán	10	San Lucas Tolimán	3	Marzo	2023-11-03T00:00:00	2024-11-08T10:00:00	2	Temperatura media	18.4
111554	7	Sololá	713	San Lucas Tolimán	10	San Lucas Tolimán	3	Marzo	2023-11-03T00:00:00	2024-11-08T10:00:00	4	Temperatura máxima	18.9
111555	7	Sololá	713	San Lucas Tolimán	10	San Lucas Tolimán	3	Marzo	2023-11-03T00:00:00	2024-11-08T10:00:00	3	Temperatura mínima	17.6
111556	7	Sololá	713	San Lucas Tolimán	10	San Lucas Tolimán	3	Marzo	2023-11-03T00:00:00	2024-11-08T10:00:00	5	Humedad	60
111557	7	Sololá	713	San Lucas Tolimán	10	San Lucas Tolimán	3	Marzo	2023-11-03T00:00:00	2024-11-08T10:00:00	6	Velocidad del viento	8
111558	7	Sololá	713	San Lucas Tolimán	10	San Lucas Tolimán	3	Marzo	2023-11-03T00:00:00	2024-11-08T10:00:00	7	Dirección del viento	8.05
111559	7	Sololá	713	San Lucas Tolimán	10	San Lucas Tolimán	3	Marzo	2023-11-03T00:00:00	2024-11-08T10:00:00	1	Precipitación	0
111560	7	Sololá	713	San Lucas Tolimán	10	San Lucas Tolimán	3	Marzo	2023-11-03T00:00:00	2024-11-08T10:00:00	8	Radiación solar	416
111561	7	Sololá	713	San Lucas Tolimán	10	San Lucas Tolimán	3	Marzo	2023-11-03T00:00:00	2024-11-08T11:00:00	2	Temperatura media	19.6
111562	7	Sololá	713	San Lucas Tolimán	10	San Lucas Tolimán	3	Marzo	2023-11-03T00:00:00	2024-11-08T11:00:00	4	Temperatura máxima	20.2
111563	7	Sololá	713	San Lucas Tolimán	10	San Lucas Tolimán	3	Marzo	2023-11-03T00:00:00	2024-11-08T11:00:00	3	Temperatura mínima	18.3
111564	7	Sololá	713	San Lucas Tolimán	10	San Lucas Tolimán	3	Marzo	2023-11-03T00:00:00	2024-11-08T11:00:00	5	Humedad	58
111565	7	Sololá	713	San Lucas Tolimán	10	San Lucas Tolimán	3	Marzo	2023-11-03T00:00:00	2024-11-08T11:00:00	6	Velocidad del viento	11.3
111566	7	Sololá	713	San Lucas Tolimán	10	San Lucas Tolimán	3	Marzo	2023-11-03T00:00:00	2024-11-08T11:00:00	7	Dirección del viento	11.27
111567	7	Sololá	713	San Lucas Tolimán	10	San Lucas Tolimán	3	Marzo	2023-11-03T00:00:00	2024-11-08T11:00:00	1	Precipitación	0
111568	7	Sololá	713	San Lucas Tolimán	10	San Lucas Tolimán	3	Marzo	2023-11-03T00:00:00	2024-11-08T11:00:00	8	Radiación solar	742
111569	7	Sololá	713	San Lucas Tolimán	10	San Lucas Tolimán	3	Marzo	2023-11-03T00:00:00	2024-11-08T12:00:00	2	Temperatura media	20.2
111570	7	Sololá	713	San Lucas Tolimán	10	San Lucas Tolimán	3	Marzo	2023-11-03T00:00:00	2024-11-08T12:00:00	4	Temperatura máxima	21
111571	7	Sololá	713	San Lucas Tolimán	10	San Lucas Tolimán	3	Marzo	2023-11-03T00:00:00	2024-11-08T12:00:00	3	Temperatura mínima	19.6
111572	7	Sololá	713	San Lucas Tolimán	10	San Lucas Tolimán	3	Marzo	2023-11-03T00:00:00	2024-11-08T12:00:00	5	Humedad	56
111573	7	Sololá	713	San Lucas Tolimán	10	San Lucas Tolimán	3	Marzo	2023-11-03T00:00:00	2024-11-08T12:00:00	6	Velocidad del viento	9.7
111574	7	Sololá	713	San Lucas Tolimán	10	San Lucas Tolimán	3	Marzo	2023-11-03T00:00:00	2024-11-08T12:00:00	7	Dirección del viento	9.66
111575	7	Sololá	713	San Lucas Tolimán	10	San Lucas Tolimán	3	Marzo	2023-11-03T00:00:00	2024-11-08T12:00:00	1	Precipitación	0
111576	7	Sololá	713	San Lucas Tolimán	10	San Lucas Tolimán	3	Marzo	2023-11-03T00:00:00	2024-11-08T12:00:00	8	Radiación solar	771
111577	7	Sololá	713	San Lucas Tolimán	10	San Lucas Tolimán	3	Marzo	2023-11-03T00:00:00	2024-11-08T13:00:00	2	Temperatura media	21.4
111578	7	Sololá	713	San Lucas Tolimán	10	San Lucas Tolimán	3	Marzo	2023-11-03T00:00:00	2024-11-08T13:00:00	4	Temperatura máxima	21.6
111579	7	Sololá	713	San Lucas Tolimán	10	San Lucas Tolimán	3	Marzo	2023-11-03T00:00:00	2024-11-08T13:00:00	3	Temperatura mínima	19.8
111580	7	Sololá	713	San Lucas Tolimán	10	San Lucas Tolimán	3	Marzo	2023-11-03T00:00:00	2024-11-08T13:00:00	5	Humedad	54
111581	7	Sololá	713	San Lucas Tolimán	10	San Lucas Tolimán	3	Marzo	2023-11-03T00:00:00	2024-11-08T13:00:00	6	Velocidad del viento	9.7
111582	7	Sololá	713	San Lucas Tolimán	10	San Lucas Tolimán	3	Marzo	2023-11-03T00:00:00	2024-11-08T13:00:00	7	Dirección del viento	9.66
111583	7	Sololá	713	San Lucas Tolimán	10	San Lucas Tolimán	3	Marzo	2023-11-03T00:00:00	2024-11-08T13:00:00	1	Precipitación	0
111584	7	Sololá	713	San Lucas Tolimán	10	San Lucas Tolimán	3	Marzo	2023-11-03T00:00:00	2024-11-08T13:00:00	8	Radiación solar	1084
111585	7	Sololá	713	San Lucas Tolimán	10	San Lucas Tolimán	3	Marzo	2023-11-03T00:00:00	2024-11-08T14:00:00	2	Temperatura media	19.7
111586	7	Sololá	713	San Lucas Tolimán	10	San Lucas Tolimán	3	Marzo	2023-11-03T00:00:00	2024-11-08T14:00:00	4	Temperatura máxima	21.6
111587	7	Sololá	713	San Lucas Tolimán	10	San Lucas Tolimán	3	Marzo	2023-11-03T00:00:00	2024-11-08T14:00:00	3	Temperatura mínima	19.7
111588	7	Sololá	713	San Lucas Tolimán	10	San Lucas Tolimán	3	Marzo	2023-11-03T00:00:00	2024-11-08T14:00:00	5	Humedad	59
111589	7	Sololá	713	San Lucas Tolimán	10	San Lucas Tolimán	3	Marzo	2023-11-03T00:00:00	2024-11-08T14:00:00	6	Velocidad del viento	9.7
111590	7	Sololá	713	San Lucas Tolimán	10	San Lucas Tolimán	3	Marzo	2023-11-03T00:00:00	2024-11-08T14:00:00	7	Dirección del viento	9.66
111591	7	Sololá	713	San Lucas Tolimán	10	San Lucas Tolimán	3	Marzo	2023-11-03T00:00:00	2024-11-08T14:00:00	1	Precipitación	0
111592	7	Sololá	713	San Lucas Tolimán	10	San Lucas Tolimán	3	Marzo	2023-11-03T00:00:00	2024-11-08T14:00:00	8	Radiación solar	601
111593	7	Sololá	713	San Lucas Tolimán	10	San Lucas Tolimán	3	Marzo	2023-11-03T00:00:00	2024-11-08T15:00:00	2	Temperatura media	19.7
111594	7	Sololá	713	San Lucas Tolimán	10	San Lucas Tolimán	3	Marzo	2023-11-03T00:00:00	2024-11-08T15:00:00	4	Temperatura máxima	19.9
111595	7	Sololá	713	San Lucas Tolimán	10	San Lucas Tolimán	3	Marzo	2023-11-03T00:00:00	2024-11-08T15:00:00	3	Temperatura mínima	19.4
111596	7	Sololá	713	San Lucas Tolimán	10	San Lucas Tolimán	3	Marzo	2023-11-03T00:00:00	2024-11-08T15:00:00	5	Humedad	62
111597	7	Sololá	713	San Lucas Tolimán	10	San Lucas Tolimán	3	Marzo	2023-11-03T00:00:00	2024-11-08T15:00:00	6	Velocidad del viento	8
111598	7	Sololá	713	San Lucas Tolimán	10	San Lucas Tolimán	3	Marzo	2023-11-03T00:00:00	2024-11-08T15:00:00	7	Dirección del viento	8.05
111599	7	Sololá	713	San Lucas Tolimán	10	San Lucas Tolimán	3	Marzo	2023-11-03T00:00:00	2024-11-08T15:00:00	1	Precipitación	0
111600	7	Sololá	713	San Lucas Tolimán	10	San Lucas Tolimán	3	Marzo	2023-11-03T00:00:00	2024-11-08T15:00:00	8	Radiación solar	382
111601	7	Sololá	713	San Lucas Tolimán	10	San Lucas Tolimán	3	Marzo	2023-11-03T00:00:00	2024-11-08T16:00:00	2	Temperatura media	19.9
111602	7	Sololá	713	San Lucas Tolimán	10	San Lucas Tolimán	3	Marzo	2023-11-03T00:00:00	2024-11-08T16:00:00	4	Temperatura máxima	20.2
111603	7	Sololá	713	San Lucas Tolimán	10	San Lucas Tolimán	3	Marzo	2023-11-03T00:00:00	2024-11-08T16:00:00	3	Temperatura mínima	19.3
111604	7	Sololá	713	San Lucas Tolimán	10	San Lucas Tolimán	3	Marzo	2023-11-03T00:00:00	2024-11-08T16:00:00	5	Humedad	60
111605	7	Sololá	713	San Lucas Tolimán	10	San Lucas Tolimán	3	Marzo	2023-11-03T00:00:00	2024-11-08T16:00:00	6	Velocidad del viento	8
111606	7	Sololá	713	San Lucas Tolimán	10	San Lucas Tolimán	3	Marzo	2023-11-03T00:00:00	2024-11-08T16:00:00	7	Dirección del viento	8.05
111607	7	Sololá	713	San Lucas Tolimán	10	San Lucas Tolimán	3	Marzo	2023-11-03T00:00:00	2024-11-08T16:00:00	1	Precipitación	0
111608	7	Sololá	713	San Lucas Tolimán	10	San Lucas Tolimán	3	Marzo	2023-11-03T00:00:00	2024-11-08T16:00:00	8	Radiación solar	468
111609	7	Sololá	713	San Lucas Tolimán	10	San Lucas Tolimán	3	Marzo	2023-11-03T00:00:00	2024-11-08T17:00:00	2	Temperatura media	19.1
111610	7	Sololá	713	San Lucas Tolimán	10	San Lucas Tolimán	3	Marzo	2023-11-03T00:00:00	2024-11-08T17:00:00	4	Temperatura máxima	20.1
111611	7	Sololá	713	San Lucas Tolimán	10	San Lucas Tolimán	3	Marzo	2023-11-03T00:00:00	2024-11-08T17:00:00	3	Temperatura mínima	18.9
111612	7	Sololá	713	San Lucas Tolimán	10	San Lucas Tolimán	3	Marzo	2023-11-03T00:00:00	2024-11-08T17:00:00	5	Humedad	64
111613	7	Sololá	713	San Lucas Tolimán	10	San Lucas Tolimán	3	Marzo	2023-11-03T00:00:00	2024-11-08T17:00:00	6	Velocidad del viento	8
111614	7	Sololá	713	San Lucas Tolimán	10	San Lucas Tolimán	3	Marzo	2023-11-03T00:00:00	2024-11-08T17:00:00	7	Dirección del viento	8.05
111615	7	Sololá	713	San Lucas Tolimán	10	San Lucas Tolimán	3	Marzo	2023-11-03T00:00:00	2024-11-08T17:00:00	1	Precipitación	0
111616	7	Sololá	713	San Lucas Tolimán	10	San Lucas Tolimán	3	Marzo	2023-11-03T00:00:00	2024-11-08T17:00:00	8	Radiación solar	250
111617	7	Sololá	713	San Lucas Tolimán	10	San Lucas Tolimán	3	Marzo	2023-11-03T00:00:00	2024-11-08T18:00:00	2	Temperatura media	18.5
111618	7	Sololá	713	San Lucas Tolimán	10	San Lucas Tolimán	3	Marzo	2023-11-03T00:00:00	2024-11-08T18:00:00	4	Temperatura máxima	19.2
111619	7	Sololá	713	San Lucas Tolimán	10	San Lucas Tolimán	3	Marzo	2023-11-03T00:00:00	2024-11-08T18:00:00	3	Temperatura mínima	18.5
111620	7	Sololá	713	San Lucas Tolimán	10	San Lucas Tolimán	3	Marzo	2023-11-03T00:00:00	2024-11-08T18:00:00	5	Humedad	65
111621	7	Sololá	713	San Lucas Tolimán	10	San Lucas Tolimán	3	Marzo	2023-11-03T00:00:00	2024-11-08T18:00:00	6	Velocidad del viento	6.4
111622	7	Sololá	713	San Lucas Tolimán	10	San Lucas Tolimán	3	Marzo	2023-11-03T00:00:00	2024-11-08T18:00:00	7	Dirección del viento	6.44
111623	7	Sololá	713	San Lucas Tolimán	10	San Lucas Tolimán	3	Marzo	2023-11-03T00:00:00	2024-11-08T18:00:00	1	Precipitación	0
111624	7	Sololá	713	San Lucas Tolimán	10	San Lucas Tolimán	3	Marzo	2023-11-03T00:00:00	2024-11-08T18:00:00	8	Radiación solar	41
111625	7	Sololá	713	San Lucas Tolimán	10	San Lucas Tolimán	3	Marzo	2023-11-03T00:00:00	2024-11-08T19:00:00	2	Temperatura media	17.9
111626	7	Sololá	713	San Lucas Tolimán	10	San Lucas Tolimán	3	Marzo	2023-11-03T00:00:00	2024-11-08T19:00:00	4	Temperatura máxima	18.5
111627	7	Sololá	713	San Lucas Tolimán	10	San Lucas Tolimán	3	Marzo	2023-11-03T00:00:00	2024-11-08T19:00:00	3	Temperatura mínima	17.8
111628	7	Sololá	713	San Lucas Tolimán	10	San Lucas Tolimán	3	Marzo	2023-11-03T00:00:00	2024-11-08T19:00:00	5	Humedad	65
111629	7	Sololá	713	San Lucas Tolimán	10	San Lucas Tolimán	3	Marzo	2023-11-03T00:00:00	2024-11-08T19:00:00	6	Velocidad del viento	4.8
111630	7	Sololá	713	San Lucas Tolimán	10	San Lucas Tolimán	3	Marzo	2023-11-03T00:00:00	2024-11-08T19:00:00	7	Dirección del viento	4.83
111631	7	Sololá	713	San Lucas Tolimán	10	San Lucas Tolimán	3	Marzo	2023-11-03T00:00:00	2024-11-08T19:00:00	1	Precipitación	0
111632	7	Sololá	713	San Lucas Tolimán	10	San Lucas Tolimán	3	Marzo	2023-11-03T00:00:00	2024-11-08T19:00:00	8	Radiación solar	0
111633	7	Sololá	713	San Lucas Tolimán	10	San Lucas Tolimán	3	Marzo	2023-11-03T00:00:00	2024-11-08T20:00:00	2	Temperatura media	17.4
111634	7	Sololá	713	San Lucas Tolimán	10	San Lucas Tolimán	3	Marzo	2023-11-03T00:00:00	2024-11-08T20:00:00	4	Temperatura máxima	17.9
111635	7	Sololá	713	San Lucas Tolimán	10	San Lucas Tolimán	3	Marzo	2023-11-03T00:00:00	2024-11-08T20:00:00	3	Temperatura mínima	17.4
111636	7	Sololá	713	San Lucas Tolimán	10	San Lucas Tolimán	3	Marzo	2023-11-03T00:00:00	2024-11-08T20:00:00	5	Humedad	66
111637	7	Sololá	713	San Lucas Tolimán	10	San Lucas Tolimán	3	Marzo	2023-11-03T00:00:00	2024-11-08T20:00:00	6	Velocidad del viento	4.8
111638	7	Sololá	713	San Lucas Tolimán	10	San Lucas Tolimán	3	Marzo	2023-11-03T00:00:00	2024-11-08T20:00:00	7	Dirección del viento	4.83
111639	7	Sololá	713	San Lucas Tolimán	10	San Lucas Tolimán	3	Marzo	2023-11-03T00:00:00	2024-11-08T20:00:00	1	Precipitación	0
111640	7	Sololá	713	San Lucas Tolimán	10	San Lucas Tolimán	3	Marzo	2023-11-03T00:00:00	2024-11-08T20:00:00	8	Radiación solar	0
111641	7	Sololá	713	San Lucas Tolimán	10	San Lucas Tolimán	3	Marzo	2023-11-03T00:00:00	2024-11-08T21:00:00	2	Temperatura media	16.1
111642	7	Sololá	713	San Lucas Tolimán	10	San Lucas Tolimán	3	Marzo	2023-11-03T00:00:00	2024-11-08T21:00:00	4	Temperatura máxima	17.5
111643	7	Sololá	713	San Lucas Tolimán	10	San Lucas Tolimán	3	Marzo	2023-11-03T00:00:00	2024-11-08T21:00:00	3	Temperatura mínima	16.1
111644	7	Sololá	713	San Lucas Tolimán	10	San Lucas Tolimán	3	Marzo	2023-11-03T00:00:00	2024-11-08T21:00:00	5	Humedad	69
111645	7	Sololá	713	San Lucas Tolimán	10	San Lucas Tolimán	3	Marzo	2023-11-03T00:00:00	2024-11-08T21:00:00	6	Velocidad del viento	6.4
111646	7	Sololá	713	San Lucas Tolimán	10	San Lucas Tolimán	3	Marzo	2023-11-03T00:00:00	2024-11-08T21:00:00	7	Dirección del viento	6.44
111647	7	Sololá	713	San Lucas Tolimán	10	San Lucas Tolimán	3	Marzo	2023-11-03T00:00:00	2024-11-08T21:00:00	1	Precipitación	0
111648	7	Sololá	713	San Lucas Tolimán	10	San Lucas Tolimán	3	Marzo	2023-11-03T00:00:00	2024-11-08T21:00:00	8	Radiación solar	0
111649	7	Sololá	713	San Lucas Tolimán	10	San Lucas Tolimán	3	Marzo	2023-11-03T00:00:00	2024-11-08T22:00:00	2	Temperatura media	15.7
111650	7	Sololá	713	San Lucas Tolimán	10	San Lucas Tolimán	3	Marzo	2023-11-03T00:00:00	2024-11-08T22:00:00	4	Temperatura máxima	16.1
111651	7	Sololá	713	San Lucas Tolimán	10	San Lucas Tolimán	3	Marzo	2023-11-03T00:00:00	2024-11-08T22:00:00	3	Temperatura mínima	15.6
111652	7	Sololá	713	San Lucas Tolimán	10	San Lucas Tolimán	3	Marzo	2023-11-03T00:00:00	2024-11-08T22:00:00	5	Humedad	70
111653	7	Sololá	713	San Lucas Tolimán	10	San Lucas Tolimán	3	Marzo	2023-11-03T00:00:00	2024-11-08T22:00:00	6	Velocidad del viento	6.4
111654	7	Sololá	713	San Lucas Tolimán	10	San Lucas Tolimán	3	Marzo	2023-11-03T00:00:00	2024-11-08T22:00:00	7	Dirección del viento	6.44
111655	7	Sololá	713	San Lucas Tolimán	10	San Lucas Tolimán	3	Marzo	2023-11-03T00:00:00	2024-11-08T22:00:00	1	Precipitación	0
111656	7	Sololá	713	San Lucas Tolimán	10	San Lucas Tolimán	3	Marzo	2023-11-03T00:00:00	2024-11-08T22:00:00	8	Radiación solar	0
111657	7	Sololá	713	San Lucas Tolimán	10	San Lucas Tolimán	3	Marzo	2023-11-03T00:00:00	2024-11-08T23:00:00	2	Temperatura media	15.5
111658	7	Sololá	713	San Lucas Tolimán	10	San Lucas Tolimán	3	Marzo	2023-11-03T00:00:00	2024-11-08T23:00:00	4	Temperatura máxima	15.7
111659	7	Sololá	713	San Lucas Tolimán	10	San Lucas Tolimán	3	Marzo	2023-11-03T00:00:00	2024-11-08T23:00:00	3	Temperatura mínima	15.4
111660	7	Sololá	713	San Lucas Tolimán	10	San Lucas Tolimán	3	Marzo	2023-11-03T00:00:00	2024-11-08T23:00:00	5	Humedad	70
111661	7	Sololá	713	San Lucas Tolimán	10	San Lucas Tolimán	3	Marzo	2023-11-03T00:00:00	2024-11-08T23:00:00	6	Velocidad del viento	1.6
111662	7	Sololá	713	San Lucas Tolimán	10	San Lucas Tolimán	3	Marzo	2023-11-03T00:00:00	2024-11-08T23:00:00	7	Dirección del viento	1.61
111663	7	Sololá	713	San Lucas Tolimán	10	San Lucas Tolimán	3	Marzo	2023-11-03T00:00:00	2024-11-08T23:00:00	1	Precipitación	0
111664	7	Sololá	713	San Lucas Tolimán	10	San Lucas Tolimán	3	Marzo	2023-11-03T00:00:00	2024-11-08T23:00:00	8	Radiación solar	0
111665	7	Sololá	713	San Lucas Tolimán	10	San Lucas Tolimán	3	Marzo	2023-12-03T00:00:00	2024-11-08T00:00:00	2	Temperatura media	14.9
111666	7	Sololá	713	San Lucas Tolimán	10	San Lucas Tolimán	3	Marzo	2023-12-03T00:00:00	2024-11-08T00:00:00	4	Temperatura máxima	15.5
111667	7	Sololá	713	San Lucas Tolimán	10	San Lucas Tolimán	3	Marzo	2023-12-03T00:00:00	2024-11-08T00:00:00	3	Temperatura mínima	14.9
111668	7	Sololá	713	San Lucas Tolimán	10	San Lucas Tolimán	3	Marzo	2023-12-03T00:00:00	2024-11-08T00:00:00	5	Humedad	69
111669	7	Sololá	713	San Lucas Tolimán	10	San Lucas Tolimán	3	Marzo	2023-12-03T00:00:00	2024-11-08T00:00:00	6	Velocidad del viento	1.6
111670	7	Sololá	713	San Lucas Tolimán	10	San Lucas Tolimán	3	Marzo	2023-12-03T00:00:00	2024-11-08T00:00:00	7	Dirección del viento	1.61
111671	7	Sololá	713	San Lucas Tolimán	10	San Lucas Tolimán	3	Marzo	2023-12-03T00:00:00	2024-11-08T00:00:00	1	Precipitación	0
111672	7	Sololá	713	San Lucas Tolimán	10	San Lucas Tolimán	3	Marzo	2023-12-03T00:00:00	2024-11-08T00:00:00	8	Radiación solar	0
111673	7	Sololá	713	San Lucas Tolimán	10	San Lucas Tolimán	3	Marzo	2023-12-03T00:00:00	2024-11-08T01:00:00	2	Temperatura media	16
111674	7	Sololá	713	San Lucas Tolimán	10	San Lucas Tolimán	3	Marzo	2023-12-03T00:00:00	2024-11-08T01:00:00	4	Temperatura máxima	16
111675	7	Sololá	713	San Lucas Tolimán	10	San Lucas Tolimán	3	Marzo	2023-12-03T00:00:00	2024-11-08T01:00:00	3	Temperatura mínima	14.9
111676	7	Sololá	713	San Lucas Tolimán	10	San Lucas Tolimán	3	Marzo	2023-12-03T00:00:00	2024-11-08T01:00:00	5	Humedad	67
111677	7	Sololá	713	San Lucas Tolimán	10	San Lucas Tolimán	3	Marzo	2023-12-03T00:00:00	2024-11-08T01:00:00	6	Velocidad del viento	3.2
111678	7	Sololá	713	San Lucas Tolimán	10	San Lucas Tolimán	3	Marzo	2023-12-03T00:00:00	2024-11-08T01:00:00	7	Dirección del viento	3.22
111679	7	Sololá	713	San Lucas Tolimán	10	San Lucas Tolimán	3	Marzo	2023-12-03T00:00:00	2024-11-08T01:00:00	1	Precipitación	0
111680	7	Sololá	713	San Lucas Tolimán	10	San Lucas Tolimán	3	Marzo	2023-12-03T00:00:00	2024-11-08T01:00:00	8	Radiación solar	0
111681	7	Sololá	713	San Lucas Tolimán	10	San Lucas Tolimán	3	Marzo	2023-12-03T00:00:00	2024-11-08T02:00:00	2	Temperatura media	16.1
111682	7	Sololá	713	San Lucas Tolimán	10	San Lucas Tolimán	3	Marzo	2023-12-03T00:00:00	2024-11-08T02:00:00	4	Temperatura máxima	16.2
111683	7	Sololá	713	San Lucas Tolimán	10	San Lucas Tolimán	3	Marzo	2023-12-03T00:00:00	2024-11-08T02:00:00	3	Temperatura mínima	15.8
111684	7	Sololá	713	San Lucas Tolimán	10	San Lucas Tolimán	3	Marzo	2023-12-03T00:00:00	2024-11-08T02:00:00	5	Humedad	67
111685	7	Sololá	713	San Lucas Tolimán	10	San Lucas Tolimán	3	Marzo	2023-12-03T00:00:00	2024-11-08T02:00:00	6	Velocidad del viento	4.8
111686	7	Sololá	713	San Lucas Tolimán	10	San Lucas Tolimán	3	Marzo	2023-12-03T00:00:00	2024-11-08T02:00:00	7	Dirección del viento	4.83
111687	7	Sololá	713	San Lucas Tolimán	10	San Lucas Tolimán	3	Marzo	2023-12-03T00:00:00	2024-11-08T02:00:00	1	Precipitación	0
111688	7	Sololá	713	San Lucas Tolimán	10	San Lucas Tolimán	3	Marzo	2023-12-03T00:00:00	2024-11-08T02:00:00	8	Radiación solar	0
111689	7	Sololá	713	San Lucas Tolimán	10	San Lucas Tolimán	3	Marzo	2023-12-03T00:00:00	2024-11-08T03:00:00	2	Temperatura media	16.3
111690	7	Sololá	713	San Lucas Tolimán	10	San Lucas Tolimán	3	Marzo	2023-12-03T00:00:00	2024-11-08T03:00:00	4	Temperatura máxima	16.3
111691	7	Sololá	713	San Lucas Tolimán	10	San Lucas Tolimán	3	Marzo	2023-12-03T00:00:00	2024-11-08T03:00:00	3	Temperatura mínima	16.1
111692	7	Sololá	713	San Lucas Tolimán	10	San Lucas Tolimán	3	Marzo	2023-12-03T00:00:00	2024-11-08T03:00:00	5	Humedad	64
111693	7	Sololá	713	San Lucas Tolimán	10	San Lucas Tolimán	3	Marzo	2023-12-03T00:00:00	2024-11-08T03:00:00	6	Velocidad del viento	6.4
111694	7	Sololá	713	San Lucas Tolimán	10	San Lucas Tolimán	3	Marzo	2023-12-03T00:00:00	2024-11-08T03:00:00	7	Dirección del viento	6.44
111695	7	Sololá	713	San Lucas Tolimán	10	San Lucas Tolimán	3	Marzo	2023-12-03T00:00:00	2024-11-08T03:00:00	1	Precipitación	0
111696	7	Sololá	713	San Lucas Tolimán	10	San Lucas Tolimán	3	Marzo	2023-12-03T00:00:00	2024-11-08T03:00:00	8	Radiación solar	0
111697	7	Sololá	713	San Lucas Tolimán	10	San Lucas Tolimán	3	Marzo	2023-12-03T00:00:00	2024-11-08T04:00:00	2	Temperatura media	16.4
111698	7	Sololá	713	San Lucas Tolimán	10	San Lucas Tolimán	3	Marzo	2023-12-03T00:00:00	2024-11-08T04:00:00	4	Temperatura máxima	16.6
111699	7	Sololá	713	San Lucas Tolimán	10	San Lucas Tolimán	3	Marzo	2023-12-03T00:00:00	2024-11-08T04:00:00	3	Temperatura mínima	16.3
111700	7	Sololá	713	San Lucas Tolimán	10	San Lucas Tolimán	3	Marzo	2023-12-03T00:00:00	2024-11-08T04:00:00	5	Humedad	62
111701	7	Sololá	713	San Lucas Tolimán	10	San Lucas Tolimán	3	Marzo	2023-12-03T00:00:00	2024-11-08T04:00:00	6	Velocidad del viento	3.2
111702	7	Sololá	713	San Lucas Tolimán	10	San Lucas Tolimán	3	Marzo	2023-12-03T00:00:00	2024-11-08T04:00:00	7	Dirección del viento	3.22
111703	7	Sololá	713	San Lucas Tolimán	10	San Lucas Tolimán	3	Marzo	2023-12-03T00:00:00	2024-11-08T04:00:00	1	Precipitación	0
111704	7	Sololá	713	San Lucas Tolimán	10	San Lucas Tolimán	3	Marzo	2023-12-03T00:00:00	2024-11-08T04:00:00	8	Radiación solar	0
111705	7	Sololá	713	San Lucas Tolimán	10	San Lucas Tolimán	3	Marzo	2023-12-03T00:00:00	2024-11-08T05:00:00	2	Temperatura media	16.2
111706	7	Sololá	713	San Lucas Tolimán	10	San Lucas Tolimán	3	Marzo	2023-12-03T00:00:00	2024-11-08T05:00:00	4	Temperatura máxima	16.4
111707	7	Sololá	713	San Lucas Tolimán	10	San Lucas Tolimán	3	Marzo	2023-12-03T00:00:00	2024-11-08T05:00:00	3	Temperatura mínima	16.2
111708	7	Sololá	713	San Lucas Tolimán	10	San Lucas Tolimán	3	Marzo	2023-12-03T00:00:00	2024-11-08T05:00:00	5	Humedad	65
111709	7	Sololá	713	San Lucas Tolimán	10	San Lucas Tolimán	3	Marzo	2023-12-03T00:00:00	2024-11-08T05:00:00	6	Velocidad del viento	4.8
111710	7	Sololá	713	San Lucas Tolimán	10	San Lucas Tolimán	3	Marzo	2023-12-03T00:00:00	2024-11-08T05:00:00	7	Dirección del viento	4.83
111711	7	Sololá	713	San Lucas Tolimán	10	San Lucas Tolimán	3	Marzo	2023-12-03T00:00:00	2024-11-08T05:00:00	1	Precipitación	0
111712	7	Sololá	713	San Lucas Tolimán	10	San Lucas Tolimán	3	Marzo	2023-12-03T00:00:00	2024-11-08T05:00:00	8	Radiación solar	0
111713	7	Sololá	713	San Lucas Tolimán	10	San Lucas Tolimán	3	Marzo	2023-12-03T00:00:00	2024-11-08T06:00:00	2	Temperatura media	16
111714	7	Sololá	713	San Lucas Tolimán	10	San Lucas Tolimán	3	Marzo	2023-12-03T00:00:00	2024-11-08T06:00:00	4	Temperatura máxima	16.3
111715	7	Sololá	713	San Lucas Tolimán	10	San Lucas Tolimán	3	Marzo	2023-12-03T00:00:00	2024-11-08T06:00:00	3	Temperatura mínima	15.8
111716	7	Sololá	713	San Lucas Tolimán	10	San Lucas Tolimán	3	Marzo	2023-12-03T00:00:00	2024-11-08T06:00:00	5	Humedad	66
111717	7	Sololá	713	San Lucas Tolimán	10	San Lucas Tolimán	3	Marzo	2023-12-03T00:00:00	2024-11-08T06:00:00	6	Velocidad del viento	6.4
111718	7	Sololá	713	San Lucas Tolimán	10	San Lucas Tolimán	3	Marzo	2023-12-03T00:00:00	2024-11-08T06:00:00	7	Dirección del viento	6.44
111719	7	Sololá	713	San Lucas Tolimán	10	San Lucas Tolimán	3	Marzo	2023-12-03T00:00:00	2024-11-08T06:00:00	1	Precipitación	0
111720	7	Sololá	713	San Lucas Tolimán	10	San Lucas Tolimán	3	Marzo	2023-12-03T00:00:00	2024-11-08T06:00:00	8	Radiación solar	0
111721	7	Sololá	713	San Lucas Tolimán	10	San Lucas Tolimán	3	Marzo	2023-12-03T00:00:00	2024-11-08T07:00:00	2	Temperatura media	16.3
111722	7	Sololá	713	San Lucas Tolimán	10	San Lucas Tolimán	3	Marzo	2023-12-03T00:00:00	2024-11-08T07:00:00	4	Temperatura máxima	16.4
111723	7	Sololá	713	San Lucas Tolimán	10	San Lucas Tolimán	3	Marzo	2023-12-03T00:00:00	2024-11-08T07:00:00	3	Temperatura mínima	15.9
111724	7	Sololá	713	San Lucas Tolimán	10	San Lucas Tolimán	3	Marzo	2023-12-03T00:00:00	2024-11-08T07:00:00	5	Humedad	63
111725	7	Sololá	713	San Lucas Tolimán	10	San Lucas Tolimán	3	Marzo	2023-12-03T00:00:00	2024-11-08T07:00:00	6	Velocidad del viento	4.8
111726	7	Sololá	713	San Lucas Tolimán	10	San Lucas Tolimán	3	Marzo	2023-12-03T00:00:00	2024-11-08T07:00:00	7	Dirección del viento	4.83
111727	7	Sololá	713	San Lucas Tolimán	10	San Lucas Tolimán	3	Marzo	2023-12-03T00:00:00	2024-11-08T07:00:00	1	Precipitación	0
111728	7	Sololá	713	San Lucas Tolimán	10	San Lucas Tolimán	3	Marzo	2023-12-03T00:00:00	2024-11-08T07:00:00	8	Radiación solar	12
111729	7	Sololá	713	San Lucas Tolimán	10	San Lucas Tolimán	3	Marzo	2023-12-03T00:00:00	2024-11-08T08:00:00	2	Temperatura media	16.9
111730	7	Sololá	713	San Lucas Tolimán	10	San Lucas Tolimán	3	Marzo	2023-12-03T00:00:00	2024-11-08T08:00:00	4	Temperatura máxima	16.9
111731	7	Sololá	713	San Lucas Tolimán	10	San Lucas Tolimán	3	Marzo	2023-12-03T00:00:00	2024-11-08T08:00:00	3	Temperatura mínima	16.4
111732	7	Sololá	713	San Lucas Tolimán	10	San Lucas Tolimán	3	Marzo	2023-12-03T00:00:00	2024-11-08T08:00:00	5	Humedad	63
111733	7	Sololá	713	San Lucas Tolimán	10	San Lucas Tolimán	3	Marzo	2023-12-03T00:00:00	2024-11-08T08:00:00	6	Velocidad del viento	3.2
111734	7	Sololá	713	San Lucas Tolimán	10	San Lucas Tolimán	3	Marzo	2023-12-03T00:00:00	2024-11-08T08:00:00	7	Dirección del viento	3.22
111735	7	Sololá	713	San Lucas Tolimán	10	San Lucas Tolimán	3	Marzo	2023-12-03T00:00:00	2024-11-08T08:00:00	1	Precipitación	0
111736	7	Sololá	713	San Lucas Tolimán	10	San Lucas Tolimán	3	Marzo	2023-12-03T00:00:00	2024-11-08T08:00:00	8	Radiación solar	88
111737	7	Sololá	713	San Lucas Tolimán	10	San Lucas Tolimán	3	Marzo	2023-12-03T00:00:00	2024-11-08T09:00:00	2	Temperatura media	18.1
111738	7	Sololá	713	San Lucas Tolimán	10	San Lucas Tolimán	3	Marzo	2023-12-03T00:00:00	2024-11-08T09:00:00	4	Temperatura máxima	18.1
111739	7	Sololá	713	San Lucas Tolimán	10	San Lucas Tolimán	3	Marzo	2023-12-03T00:00:00	2024-11-08T09:00:00	3	Temperatura mínima	16.9
111740	7	Sololá	713	San Lucas Tolimán	10	San Lucas Tolimán	3	Marzo	2023-12-03T00:00:00	2024-11-08T09:00:00	5	Humedad	59
111741	7	Sololá	713	San Lucas Tolimán	10	San Lucas Tolimán	3	Marzo	2023-12-03T00:00:00	2024-11-08T09:00:00	6	Velocidad del viento	4.8
111742	7	Sololá	713	San Lucas Tolimán	10	San Lucas Tolimán	3	Marzo	2023-12-03T00:00:00	2024-11-08T09:00:00	7	Dirección del viento	4.83
111743	7	Sololá	713	San Lucas Tolimán	10	San Lucas Tolimán	3	Marzo	2023-12-03T00:00:00	2024-11-08T09:00:00	1	Precipitación	0
111744	7	Sololá	713	San Lucas Tolimán	10	San Lucas Tolimán	3	Marzo	2023-12-03T00:00:00	2024-11-08T09:00:00	8	Radiación solar	209
111745	7	Sololá	713	San Lucas Tolimán	10	San Lucas Tolimán	3	Marzo	2023-12-03T00:00:00	2024-11-08T10:00:00	2	Temperatura media	19
111746	7	Sololá	713	San Lucas Tolimán	10	San Lucas Tolimán	3	Marzo	2023-12-03T00:00:00	2024-11-08T10:00:00	4	Temperatura máxima	19.3
111747	7	Sololá	713	San Lucas Tolimán	10	San Lucas Tolimán	3	Marzo	2023-12-03T00:00:00	2024-11-08T10:00:00	3	Temperatura mínima	18.2
111748	7	Sololá	713	San Lucas Tolimán	10	San Lucas Tolimán	3	Marzo	2023-12-03T00:00:00	2024-11-08T10:00:00	5	Humedad	57
111749	7	Sololá	713	San Lucas Tolimán	10	San Lucas Tolimán	3	Marzo	2023-12-03T00:00:00	2024-11-08T10:00:00	6	Velocidad del viento	4.8
111750	7	Sololá	713	San Lucas Tolimán	10	San Lucas Tolimán	3	Marzo	2023-12-03T00:00:00	2024-11-08T10:00:00	7	Dirección del viento	4.83
111751	7	Sololá	713	San Lucas Tolimán	10	San Lucas Tolimán	3	Marzo	2023-12-03T00:00:00	2024-11-08T10:00:00	1	Precipitación	0
111752	7	Sololá	713	San Lucas Tolimán	10	San Lucas Tolimán	3	Marzo	2023-12-03T00:00:00	2024-11-08T10:00:00	8	Radiación solar	341
111753	7	Sololá	713	San Lucas Tolimán	10	San Lucas Tolimán	3	Marzo	2023-12-03T00:00:00	2024-11-08T11:00:00	2	Temperatura media	19.9
111754	7	Sololá	713	San Lucas Tolimán	10	San Lucas Tolimán	3	Marzo	2023-12-03T00:00:00	2024-11-08T11:00:00	4	Temperatura máxima	20.5
111755	7	Sololá	713	San Lucas Tolimán	10	San Lucas Tolimán	3	Marzo	2023-12-03T00:00:00	2024-11-08T11:00:00	3	Temperatura mínima	19
111756	7	Sololá	713	San Lucas Tolimán	10	San Lucas Tolimán	3	Marzo	2023-12-03T00:00:00	2024-11-08T11:00:00	5	Humedad	55
111757	7	Sololá	713	San Lucas Tolimán	10	San Lucas Tolimán	3	Marzo	2023-12-03T00:00:00	2024-11-08T11:00:00	6	Velocidad del viento	6.4
111758	7	Sololá	713	San Lucas Tolimán	10	San Lucas Tolimán	3	Marzo	2023-12-03T00:00:00	2024-11-08T11:00:00	7	Dirección del viento	6.44
111759	7	Sololá	713	San Lucas Tolimán	10	San Lucas Tolimán	3	Marzo	2023-12-03T00:00:00	2024-11-08T11:00:00	1	Precipitación	0
111760	7	Sololá	713	San Lucas Tolimán	10	San Lucas Tolimán	3	Marzo	2023-12-03T00:00:00	2024-11-08T11:00:00	8	Radiación solar	491
111761	7	Sololá	713	San Lucas Tolimán	10	San Lucas Tolimán	3	Marzo	2023-12-03T00:00:00	2024-11-08T12:00:00	2	Temperatura media	19.5
111762	7	Sololá	713	San Lucas Tolimán	10	San Lucas Tolimán	3	Marzo	2023-12-03T00:00:00	2024-11-08T12:00:00	4	Temperatura máxima	21
111763	7	Sololá	713	San Lucas Tolimán	10	San Lucas Tolimán	3	Marzo	2023-12-03T00:00:00	2024-11-08T12:00:00	3	Temperatura mínima	19.4
111764	7	Sololá	713	San Lucas Tolimán	10	San Lucas Tolimán	3	Marzo	2023-12-03T00:00:00	2024-11-08T12:00:00	5	Humedad	60
111765	7	Sololá	713	San Lucas Tolimán	10	San Lucas Tolimán	3	Marzo	2023-12-03T00:00:00	2024-11-08T12:00:00	6	Velocidad del viento	8
111766	7	Sololá	713	San Lucas Tolimán	10	San Lucas Tolimán	3	Marzo	2023-12-03T00:00:00	2024-11-08T12:00:00	7	Dirección del viento	8.05
111767	7	Sololá	713	San Lucas Tolimán	10	San Lucas Tolimán	3	Marzo	2023-12-03T00:00:00	2024-11-08T12:00:00	1	Precipitación	0
111768	7	Sololá	713	San Lucas Tolimán	10	San Lucas Tolimán	3	Marzo	2023-12-03T00:00:00	2024-11-08T12:00:00	8	Radiación solar	463
111769	7	Sololá	713	San Lucas Tolimán	10	San Lucas Tolimán	3	Marzo	2023-12-03T00:00:00	2024-11-08T13:00:00	2	Temperatura media	18.8
111770	7	Sololá	713	San Lucas Tolimán	10	San Lucas Tolimán	3	Marzo	2023-12-03T00:00:00	2024-11-08T13:00:00	4	Temperatura máxima	19.6
111771	7	Sololá	713	San Lucas Tolimán	10	San Lucas Tolimán	3	Marzo	2023-12-03T00:00:00	2024-11-08T13:00:00	3	Temperatura mínima	18.7
111772	7	Sololá	713	San Lucas Tolimán	10	San Lucas Tolimán	3	Marzo	2023-12-03T00:00:00	2024-11-08T13:00:00	5	Humedad	62
111773	7	Sololá	713	San Lucas Tolimán	10	San Lucas Tolimán	3	Marzo	2023-12-03T00:00:00	2024-11-08T13:00:00	6	Velocidad del viento	8
111774	7	Sololá	713	San Lucas Tolimán	10	San Lucas Tolimán	3	Marzo	2023-12-03T00:00:00	2024-11-08T13:00:00	7	Dirección del viento	8.05
111775	7	Sololá	713	San Lucas Tolimán	10	San Lucas Tolimán	3	Marzo	2023-12-03T00:00:00	2024-11-08T13:00:00	1	Precipitación	0
111776	7	Sololá	713	San Lucas Tolimán	10	San Lucas Tolimán	3	Marzo	2023-12-03T00:00:00	2024-11-08T13:00:00	8	Radiación solar	312
111777	7	Sololá	713	San Lucas Tolimán	10	San Lucas Tolimán	3	Marzo	2023-12-03T00:00:00	2024-11-08T14:00:00	2	Temperatura media	18.7
111778	7	Sololá	713	San Lucas Tolimán	10	San Lucas Tolimán	3	Marzo	2023-12-03T00:00:00	2024-11-08T14:00:00	4	Temperatura máxima	18.8
111779	7	Sololá	713	San Lucas Tolimán	10	San Lucas Tolimán	3	Marzo	2023-12-03T00:00:00	2024-11-08T14:00:00	3	Temperatura mínima	18.5
111780	7	Sololá	713	San Lucas Tolimán	10	San Lucas Tolimán	3	Marzo	2023-12-03T00:00:00	2024-11-08T14:00:00	5	Humedad	62
111781	7	Sololá	713	San Lucas Tolimán	10	San Lucas Tolimán	3	Marzo	2023-12-03T00:00:00	2024-11-08T14:00:00	6	Velocidad del viento	6.4
111782	7	Sololá	713	San Lucas Tolimán	10	San Lucas Tolimán	3	Marzo	2023-12-03T00:00:00	2024-11-08T14:00:00	7	Dirección del viento	6.44
111783	7	Sololá	713	San Lucas Tolimán	10	San Lucas Tolimán	3	Marzo	2023-12-03T00:00:00	2024-11-08T14:00:00	1	Precipitación	0
111784	7	Sololá	713	San Lucas Tolimán	10	San Lucas Tolimán	3	Marzo	2023-12-03T00:00:00	2024-11-08T14:00:00	8	Radiación solar	209
111785	7	Sololá	713	San Lucas Tolimán	10	San Lucas Tolimán	3	Marzo	2023-12-03T00:00:00	2024-11-08T15:00:00	2	Temperatura media	18.6
111786	7	Sololá	713	San Lucas Tolimán	10	San Lucas Tolimán	3	Marzo	2023-12-03T00:00:00	2024-11-08T15:00:00	4	Temperatura máxima	19.2
111787	7	Sololá	713	San Lucas Tolimán	10	San Lucas Tolimán	3	Marzo	2023-12-03T00:00:00	2024-11-08T15:00:00	3	Temperatura mínima	18.6
111788	7	Sololá	713	San Lucas Tolimán	10	San Lucas Tolimán	3	Marzo	2023-12-03T00:00:00	2024-11-08T15:00:00	5	Humedad	61
111789	7	Sololá	713	San Lucas Tolimán	10	San Lucas Tolimán	3	Marzo	2023-12-03T00:00:00	2024-11-08T15:00:00	6	Velocidad del viento	6.4
111790	7	Sololá	713	San Lucas Tolimán	10	San Lucas Tolimán	3	Marzo	2023-12-03T00:00:00	2024-11-08T15:00:00	7	Dirección del viento	6.44
111791	7	Sololá	713	San Lucas Tolimán	10	San Lucas Tolimán	3	Marzo	2023-12-03T00:00:00	2024-11-08T15:00:00	1	Precipitación	0
111792	7	Sololá	713	San Lucas Tolimán	10	San Lucas Tolimán	3	Marzo	2023-12-03T00:00:00	2024-11-08T15:00:00	8	Radiación solar	243
111793	7	Sololá	713	San Lucas Tolimán	10	San Lucas Tolimán	3	Marzo	2023-12-03T00:00:00	2024-11-08T16:00:00	2	Temperatura media	18
111794	7	Sololá	713	San Lucas Tolimán	10	San Lucas Tolimán	3	Marzo	2023-12-03T00:00:00	2024-11-08T16:00:00	4	Temperatura máxima	18.6
111795	7	Sololá	713	San Lucas Tolimán	10	San Lucas Tolimán	3	Marzo	2023-12-03T00:00:00	2024-11-08T16:00:00	3	Temperatura mínima	18
111796	7	Sololá	713	San Lucas Tolimán	10	San Lucas Tolimán	3	Marzo	2023-12-03T00:00:00	2024-11-08T16:00:00	5	Humedad	64
111797	7	Sololá	713	San Lucas Tolimán	10	San Lucas Tolimán	3	Marzo	2023-12-03T00:00:00	2024-11-08T16:00:00	6	Velocidad del viento	4.8
111798	7	Sololá	713	San Lucas Tolimán	10	San Lucas Tolimán	3	Marzo	2023-12-03T00:00:00	2024-11-08T16:00:00	7	Dirección del viento	4.83
111799	7	Sololá	713	San Lucas Tolimán	10	San Lucas Tolimán	3	Marzo	2023-12-03T00:00:00	2024-11-08T16:00:00	1	Precipitación	0
111800	7	Sololá	713	San Lucas Tolimán	10	San Lucas Tolimán	3	Marzo	2023-12-03T00:00:00	2024-11-08T16:00:00	8	Radiación solar	44
111801	7	Sololá	713	San Lucas Tolimán	10	San Lucas Tolimán	3	Marzo	2023-12-03T00:00:00	2024-11-08T17:00:00	2	Temperatura media	17.9
111802	7	Sololá	713	San Lucas Tolimán	10	San Lucas Tolimán	3	Marzo	2023-12-03T00:00:00	2024-11-08T17:00:00	4	Temperatura máxima	18.1
111803	7	Sololá	713	San Lucas Tolimán	10	San Lucas Tolimán	3	Marzo	2023-12-03T00:00:00	2024-11-08T17:00:00	3	Temperatura mínima	17.9
111804	7	Sololá	713	San Lucas Tolimán	10	San Lucas Tolimán	3	Marzo	2023-12-03T00:00:00	2024-11-08T17:00:00	5	Humedad	65
111805	7	Sololá	713	San Lucas Tolimán	10	San Lucas Tolimán	3	Marzo	2023-12-03T00:00:00	2024-11-08T17:00:00	6	Velocidad del viento	4.8
111806	7	Sololá	713	San Lucas Tolimán	10	San Lucas Tolimán	3	Marzo	2023-12-03T00:00:00	2024-11-08T17:00:00	7	Dirección del viento	4.83
111807	7	Sololá	713	San Lucas Tolimán	10	San Lucas Tolimán	3	Marzo	2023-12-03T00:00:00	2024-11-08T17:00:00	1	Precipitación	0
111808	7	Sololá	713	San Lucas Tolimán	10	San Lucas Tolimán	3	Marzo	2023-12-03T00:00:00	2024-11-08T17:00:00	8	Radiación solar	55
111809	7	Sololá	713	San Lucas Tolimán	10	San Lucas Tolimán	3	Marzo	2023-12-03T00:00:00	2024-11-08T18:00:00	2	Temperatura media	18.3
111810	7	Sololá	713	San Lucas Tolimán	10	San Lucas Tolimán	3	Marzo	2023-12-03T00:00:00	2024-11-08T18:00:00	4	Temperatura máxima	18.3
111811	7	Sololá	713	San Lucas Tolimán	10	San Lucas Tolimán	3	Marzo	2023-12-03T00:00:00	2024-11-08T18:00:00	3	Temperatura mínima	17.8
111812	7	Sololá	713	San Lucas Tolimán	10	San Lucas Tolimán	3	Marzo	2023-12-03T00:00:00	2024-11-08T18:00:00	5	Humedad	64
111813	7	Sololá	713	San Lucas Tolimán	10	San Lucas Tolimán	3	Marzo	2023-12-03T00:00:00	2024-11-08T18:00:00	6	Velocidad del viento	1.6
111814	7	Sololá	713	San Lucas Tolimán	10	San Lucas Tolimán	3	Marzo	2023-12-03T00:00:00	2024-11-08T18:00:00	7	Dirección del viento	1.61
111815	7	Sololá	713	San Lucas Tolimán	10	San Lucas Tolimán	3	Marzo	2023-12-03T00:00:00	2024-11-08T18:00:00	1	Precipitación	0
111816	7	Sololá	713	San Lucas Tolimán	10	San Lucas Tolimán	3	Marzo	2023-12-03T00:00:00	2024-11-08T18:00:00	8	Radiación solar	43
111817	7	Sololá	713	San Lucas Tolimán	10	San Lucas Tolimán	3	Marzo	2023-12-03T00:00:00	2024-11-08T19:00:00	2	Temperatura media	17.4
111818	7	Sololá	713	San Lucas Tolimán	10	San Lucas Tolimán	3	Marzo	2023-12-03T00:00:00	2024-11-08T19:00:00	4	Temperatura máxima	18.3
111819	7	Sololá	713	San Lucas Tolimán	10	San Lucas Tolimán	3	Marzo	2023-12-03T00:00:00	2024-11-08T19:00:00	3	Temperatura mínima	17.4
111820	7	Sololá	713	San Lucas Tolimán	10	San Lucas Tolimán	3	Marzo	2023-12-03T00:00:00	2024-11-08T19:00:00	5	Humedad	66
111821	7	Sololá	713	San Lucas Tolimán	10	San Lucas Tolimán	3	Marzo	2023-12-03T00:00:00	2024-11-08T19:00:00	6	Velocidad del viento	4.8
111822	7	Sololá	713	San Lucas Tolimán	10	San Lucas Tolimán	3	Marzo	2023-12-03T00:00:00	2024-11-08T19:00:00	7	Dirección del viento	4.83
111823	7	Sololá	713	San Lucas Tolimán	10	San Lucas Tolimán	3	Marzo	2023-12-03T00:00:00	2024-11-08T19:00:00	1	Precipitación	0
111824	7	Sololá	713	San Lucas Tolimán	10	San Lucas Tolimán	3	Marzo	2023-12-03T00:00:00	2024-11-08T19:00:00	8	Radiación solar	0
111825	7	Sololá	713	San Lucas Tolimán	10	San Lucas Tolimán	3	Marzo	2023-12-03T00:00:00	2024-11-08T20:00:00	2	Temperatura media	17.5
111826	7	Sololá	713	San Lucas Tolimán	10	San Lucas Tolimán	3	Marzo	2023-12-03T00:00:00	2024-11-08T20:00:00	4	Temperatura máxima	17.6
111827	7	Sololá	713	San Lucas Tolimán	10	San Lucas Tolimán	3	Marzo	2023-12-03T00:00:00	2024-11-08T20:00:00	3	Temperatura mínima	17.4
111828	7	Sololá	713	San Lucas Tolimán	10	San Lucas Tolimán	3	Marzo	2023-12-03T00:00:00	2024-11-08T20:00:00	5	Humedad	66
111829	7	Sololá	713	San Lucas Tolimán	10	San Lucas Tolimán	3	Marzo	2023-12-03T00:00:00	2024-11-08T20:00:00	6	Velocidad del viento	4.8
111830	7	Sololá	713	San Lucas Tolimán	10	San Lucas Tolimán	3	Marzo	2023-12-03T00:00:00	2024-11-08T20:00:00	7	Dirección del viento	4.83
111831	7	Sololá	713	San Lucas Tolimán	10	San Lucas Tolimán	3	Marzo	2023-12-03T00:00:00	2024-11-08T20:00:00	1	Precipitación	0
111832	7	Sololá	713	San Lucas Tolimán	10	San Lucas Tolimán	3	Marzo	2023-12-03T00:00:00	2024-11-08T20:00:00	8	Radiación solar	0
111833	7	Sololá	713	San Lucas Tolimán	10	San Lucas Tolimán	3	Marzo	2023-12-03T00:00:00	2024-11-08T21:00:00	2	Temperatura media	16.7
111834	7	Sololá	713	San Lucas Tolimán	10	San Lucas Tolimán	3	Marzo	2023-12-03T00:00:00	2024-11-08T21:00:00	4	Temperatura máxima	17.5
111835	7	Sololá	713	San Lucas Tolimán	10	San Lucas Tolimán	3	Marzo	2023-12-03T00:00:00	2024-11-08T21:00:00	3	Temperatura mínima	16.6
111836	7	Sololá	713	San Lucas Tolimán	10	San Lucas Tolimán	3	Marzo	2023-12-03T00:00:00	2024-11-08T21:00:00	5	Humedad	67
111837	7	Sololá	713	San Lucas Tolimán	10	San Lucas Tolimán	3	Marzo	2023-12-03T00:00:00	2024-11-08T21:00:00	6	Velocidad del viento	4.8
111838	7	Sololá	713	San Lucas Tolimán	10	San Lucas Tolimán	3	Marzo	2023-12-03T00:00:00	2024-11-08T21:00:00	7	Dirección del viento	4.83
111839	7	Sololá	713	San Lucas Tolimán	10	San Lucas Tolimán	3	Marzo	2023-12-03T00:00:00	2024-11-08T21:00:00	1	Precipitación	0
111840	7	Sololá	713	San Lucas Tolimán	10	San Lucas Tolimán	3	Marzo	2023-12-03T00:00:00	2024-11-08T21:00:00	8	Radiación solar	0
111841	7	Sololá	713	San Lucas Tolimán	10	San Lucas Tolimán	3	Marzo	2023-12-03T00:00:00	2024-11-08T22:00:00	2	Temperatura media	16.4
111842	7	Sololá	713	San Lucas Tolimán	10	San Lucas Tolimán	3	Marzo	2023-12-03T00:00:00	2024-11-08T22:00:00	4	Temperatura máxima	16.7
111843	7	Sololá	713	San Lucas Tolimán	10	San Lucas Tolimán	3	Marzo	2023-12-03T00:00:00	2024-11-08T22:00:00	3	Temperatura mínima	16.4
111844	7	Sololá	713	San Lucas Tolimán	10	San Lucas Tolimán	3	Marzo	2023-12-03T00:00:00	2024-11-08T22:00:00	5	Humedad	67
111845	7	Sololá	713	San Lucas Tolimán	10	San Lucas Tolimán	3	Marzo	2023-12-03T00:00:00	2024-11-08T22:00:00	6	Velocidad del viento	8
111846	7	Sololá	713	San Lucas Tolimán	10	San Lucas Tolimán	3	Marzo	2023-12-03T00:00:00	2024-11-08T22:00:00	7	Dirección del viento	8.05
111847	7	Sololá	713	San Lucas Tolimán	10	San Lucas Tolimán	3	Marzo	2023-12-03T00:00:00	2024-11-08T22:00:00	1	Precipitación	0
111848	7	Sololá	713	San Lucas Tolimán	10	San Lucas Tolimán	3	Marzo	2023-12-03T00:00:00	2024-11-08T22:00:00	8	Radiación solar	0
111849	7	Sololá	713	San Lucas Tolimán	10	San Lucas Tolimán	3	Marzo	2023-12-03T00:00:00	2024-11-08T23:00:00	2	Temperatura media	16.6
111850	7	Sololá	713	San Lucas Tolimán	10	San Lucas Tolimán	3	Marzo	2023-12-03T00:00:00	2024-11-08T23:00:00	4	Temperatura máxima	16.6
111851	7	Sololá	713	San Lucas Tolimán	10	San Lucas Tolimán	3	Marzo	2023-12-03T00:00:00	2024-11-08T23:00:00	3	Temperatura mínima	16.4
111852	7	Sololá	713	San Lucas Tolimán	10	San Lucas Tolimán	3	Marzo	2023-12-03T00:00:00	2024-11-08T23:00:00	5	Humedad	66
111853	7	Sololá	713	San Lucas Tolimán	10	San Lucas Tolimán	3	Marzo	2023-12-03T00:00:00	2024-11-08T23:00:00	6	Velocidad del viento	4.8
111854	7	Sololá	713	San Lucas Tolimán	10	San Lucas Tolimán	3	Marzo	2023-12-03T00:00:00	2024-11-08T23:00:00	7	Dirección del viento	4.83
111855	7	Sololá	713	San Lucas Tolimán	10	San Lucas Tolimán	3	Marzo	2023-12-03T00:00:00	2024-11-08T23:00:00	1	Precipitación	0
111856	7	Sololá	713	San Lucas Tolimán	10	San Lucas Tolimán	3	Marzo	2023-12-03T00:00:00	2024-11-08T23:00:00	8	Radiación solar	0
111857	7	Sololá	713	San Lucas Tolimán	10	San Lucas Tolimán	3	Marzo	2023-03-13T00:00:00	2024-11-08T00:00:00	2	Temperatura media	16.6
111858	7	Sololá	713	San Lucas Tolimán	10	San Lucas Tolimán	3	Marzo	2023-03-13T00:00:00	2024-11-08T00:00:00	4	Temperatura máxima	16.8
111859	7	Sololá	713	San Lucas Tolimán	10	San Lucas Tolimán	3	Marzo	2023-03-13T00:00:00	2024-11-08T00:00:00	3	Temperatura mínima	16.6
111860	7	Sololá	713	San Lucas Tolimán	10	San Lucas Tolimán	3	Marzo	2023-03-13T00:00:00	2024-11-08T00:00:00	5	Humedad	66
111861	7	Sololá	713	San Lucas Tolimán	10	San Lucas Tolimán	3	Marzo	2023-03-13T00:00:00	2024-11-08T00:00:00	6	Velocidad del viento	3.2
111862	7	Sololá	713	San Lucas Tolimán	10	San Lucas Tolimán	3	Marzo	2023-03-13T00:00:00	2024-11-08T00:00:00	7	Dirección del viento	3.22
111863	7	Sololá	713	San Lucas Tolimán	10	San Lucas Tolimán	3	Marzo	2023-03-13T00:00:00	2024-11-08T00:00:00	1	Precipitación	0
111864	7	Sololá	713	San Lucas Tolimán	10	San Lucas Tolimán	3	Marzo	2023-03-13T00:00:00	2024-11-08T00:00:00	8	Radiación solar	0
111865	7	Sololá	713	San Lucas Tolimán	10	San Lucas Tolimán	3	Marzo	2023-03-13T00:00:00	2024-11-08T01:00:00	2	Temperatura media	15.8
111866	7	Sololá	713	San Lucas Tolimán	10	San Lucas Tolimán	3	Marzo	2023-03-13T00:00:00	2024-11-08T01:00:00	4	Temperatura máxima	16.6
111867	7	Sololá	713	San Lucas Tolimán	10	San Lucas Tolimán	3	Marzo	2023-03-13T00:00:00	2024-11-08T01:00:00	3	Temperatura mínima	15.8
111868	7	Sololá	713	San Lucas Tolimán	10	San Lucas Tolimán	3	Marzo	2023-03-13T00:00:00	2024-11-08T01:00:00	5	Humedad	66
111869	7	Sololá	713	San Lucas Tolimán	10	San Lucas Tolimán	3	Marzo	2023-03-13T00:00:00	2024-11-08T01:00:00	6	Velocidad del viento	1.6
111870	7	Sololá	713	San Lucas Tolimán	10	San Lucas Tolimán	3	Marzo	2023-03-13T00:00:00	2024-11-08T01:00:00	7	Dirección del viento	1.61
111871	7	Sololá	713	San Lucas Tolimán	10	San Lucas Tolimán	3	Marzo	2023-03-13T00:00:00	2024-11-08T01:00:00	1	Precipitación	0
111872	7	Sololá	713	San Lucas Tolimán	10	San Lucas Tolimán	3	Marzo	2023-03-13T00:00:00	2024-11-08T01:00:00	8	Radiación solar	0
111873	7	Sololá	713	San Lucas Tolimán	10	San Lucas Tolimán	3	Marzo	2023-03-13T00:00:00	2024-11-08T02:00:00	2	Temperatura media	14.9
111874	7	Sololá	713	San Lucas Tolimán	10	San Lucas Tolimán	3	Marzo	2023-03-13T00:00:00	2024-11-08T02:00:00	4	Temperatura máxima	15.8
111875	7	Sololá	713	San Lucas Tolimán	10	San Lucas Tolimán	3	Marzo	2023-03-13T00:00:00	2024-11-08T02:00:00	3	Temperatura mínima	14.9
111876	7	Sololá	713	San Lucas Tolimán	10	San Lucas Tolimán	3	Marzo	2023-03-13T00:00:00	2024-11-08T02:00:00	5	Humedad	67
111877	7	Sololá	713	San Lucas Tolimán	10	San Lucas Tolimán	3	Marzo	2023-03-13T00:00:00	2024-11-08T02:00:00	6	Velocidad del viento	0
111878	7	Sololá	713	San Lucas Tolimán	10	San Lucas Tolimán	3	Marzo	2023-03-13T00:00:00	2024-11-08T02:00:00	7	Dirección del viento	0
111879	7	Sololá	713	San Lucas Tolimán	10	San Lucas Tolimán	3	Marzo	2023-03-13T00:00:00	2024-11-08T02:00:00	1	Precipitación	0
111880	7	Sololá	713	San Lucas Tolimán	10	San Lucas Tolimán	3	Marzo	2023-03-13T00:00:00	2024-11-08T02:00:00	8	Radiación solar	0
111881	7	Sololá	713	San Lucas Tolimán	10	San Lucas Tolimán	3	Marzo	2023-03-13T00:00:00	2024-11-08T03:00:00	2	Temperatura media	13.8
111882	7	Sololá	713	San Lucas Tolimán	10	San Lucas Tolimán	3	Marzo	2023-03-13T00:00:00	2024-11-08T03:00:00	4	Temperatura máxima	14.9
111883	7	Sololá	713	San Lucas Tolimán	10	San Lucas Tolimán	3	Marzo	2023-03-13T00:00:00	2024-11-08T03:00:00	3	Temperatura mínima	13.8
111884	7	Sololá	713	San Lucas Tolimán	10	San Lucas Tolimán	3	Marzo	2023-03-13T00:00:00	2024-11-08T03:00:00	5	Humedad	68
111885	7	Sololá	713	San Lucas Tolimán	10	San Lucas Tolimán	3	Marzo	2023-03-13T00:00:00	2024-11-08T03:00:00	6	Velocidad del viento	3.2
111886	7	Sololá	713	San Lucas Tolimán	10	San Lucas Tolimán	3	Marzo	2023-03-13T00:00:00	2024-11-08T03:00:00	7	Dirección del viento	3.22
111887	7	Sololá	713	San Lucas Tolimán	10	San Lucas Tolimán	3	Marzo	2023-03-13T00:00:00	2024-11-08T03:00:00	1	Precipitación	0
111888	7	Sololá	713	San Lucas Tolimán	10	San Lucas Tolimán	3	Marzo	2023-03-13T00:00:00	2024-11-08T03:00:00	8	Radiación solar	0
111889	7	Sololá	713	San Lucas Tolimán	10	San Lucas Tolimán	3	Marzo	2023-03-13T00:00:00	2024-11-08T04:00:00	2	Temperatura media	13.9
111890	7	Sololá	713	San Lucas Tolimán	10	San Lucas Tolimán	3	Marzo	2023-03-13T00:00:00	2024-11-08T04:00:00	4	Temperatura máxima	13.9
111891	7	Sololá	713	San Lucas Tolimán	10	San Lucas Tolimán	3	Marzo	2023-03-13T00:00:00	2024-11-08T04:00:00	3	Temperatura mínima	13.6
111892	7	Sololá	713	San Lucas Tolimán	10	San Lucas Tolimán	3	Marzo	2023-03-13T00:00:00	2024-11-08T04:00:00	5	Humedad	67
111893	7	Sololá	713	San Lucas Tolimán	10	San Lucas Tolimán	3	Marzo	2023-03-13T00:00:00	2024-11-08T04:00:00	6	Velocidad del viento	4.8
111894	7	Sololá	713	San Lucas Tolimán	10	San Lucas Tolimán	3	Marzo	2023-03-13T00:00:00	2024-11-08T04:00:00	7	Dirección del viento	4.83
111895	7	Sololá	713	San Lucas Tolimán	10	San Lucas Tolimán	3	Marzo	2023-03-13T00:00:00	2024-11-08T04:00:00	1	Precipitación	0
111896	7	Sololá	713	San Lucas Tolimán	10	San Lucas Tolimán	3	Marzo	2023-03-13T00:00:00	2024-11-08T04:00:00	8	Radiación solar	0
111897	7	Sololá	713	San Lucas Tolimán	10	San Lucas Tolimán	3	Marzo	2023-03-13T00:00:00	2024-11-08T05:00:00	2	Temperatura media	13.6
111898	7	Sololá	713	San Lucas Tolimán	10	San Lucas Tolimán	3	Marzo	2023-03-13T00:00:00	2024-11-08T05:00:00	4	Temperatura máxima	13.9
111899	7	Sololá	713	San Lucas Tolimán	10	San Lucas Tolimán	3	Marzo	2023-03-13T00:00:00	2024-11-08T05:00:00	3	Temperatura mínima	13.5
111900	7	Sololá	713	San Lucas Tolimán	10	San Lucas Tolimán	3	Marzo	2023-03-13T00:00:00	2024-11-08T05:00:00	5	Humedad	67
111901	7	Sololá	713	San Lucas Tolimán	10	San Lucas Tolimán	3	Marzo	2023-03-13T00:00:00	2024-11-08T05:00:00	6	Velocidad del viento	4.8
111902	7	Sololá	713	San Lucas Tolimán	10	San Lucas Tolimán	3	Marzo	2023-03-13T00:00:00	2024-11-08T05:00:00	7	Dirección del viento	4.83
111903	7	Sololá	713	San Lucas Tolimán	10	San Lucas Tolimán	3	Marzo	2023-03-13T00:00:00	2024-11-08T05:00:00	1	Precipitación	0
111904	7	Sololá	713	San Lucas Tolimán	10	San Lucas Tolimán	3	Marzo	2023-03-13T00:00:00	2024-11-08T05:00:00	8	Radiación solar	0
111905	7	Sololá	713	San Lucas Tolimán	10	San Lucas Tolimán	3	Marzo	2023-03-13T00:00:00	2024-11-08T06:00:00	2	Temperatura media	13.5
111906	7	Sololá	713	San Lucas Tolimán	10	San Lucas Tolimán	3	Marzo	2023-03-13T00:00:00	2024-11-08T06:00:00	4	Temperatura máxima	13.8
111907	7	Sololá	713	San Lucas Tolimán	10	San Lucas Tolimán	3	Marzo	2023-03-13T00:00:00	2024-11-08T06:00:00	3	Temperatura mínima	13.4
111908	7	Sololá	713	San Lucas Tolimán	10	San Lucas Tolimán	3	Marzo	2023-03-13T00:00:00	2024-11-08T06:00:00	5	Humedad	68
111909	7	Sololá	713	San Lucas Tolimán	10	San Lucas Tolimán	3	Marzo	2023-03-13T00:00:00	2024-11-08T06:00:00	6	Velocidad del viento	3.2
111910	7	Sololá	713	San Lucas Tolimán	10	San Lucas Tolimán	3	Marzo	2023-03-13T00:00:00	2024-11-08T06:00:00	7	Dirección del viento	3.22
111911	7	Sololá	713	San Lucas Tolimán	10	San Lucas Tolimán	3	Marzo	2023-03-13T00:00:00	2024-11-08T06:00:00	1	Precipitación	0
111912	7	Sololá	713	San Lucas Tolimán	10	San Lucas Tolimán	3	Marzo	2023-03-13T00:00:00	2024-11-08T06:00:00	8	Radiación solar	0
111913	7	Sololá	713	San Lucas Tolimán	10	San Lucas Tolimán	3	Marzo	2023-03-13T00:00:00	2024-11-08T07:00:00	2	Temperatura media	13.8
111914	7	Sololá	713	San Lucas Tolimán	10	San Lucas Tolimán	3	Marzo	2023-03-13T00:00:00	2024-11-08T07:00:00	4	Temperatura máxima	14.1
111915	7	Sololá	713	San Lucas Tolimán	10	San Lucas Tolimán	3	Marzo	2023-03-13T00:00:00	2024-11-08T07:00:00	3	Temperatura mínima	13.5
111916	7	Sololá	713	San Lucas Tolimán	10	San Lucas Tolimán	3	Marzo	2023-03-13T00:00:00	2024-11-08T07:00:00	5	Humedad	67
111917	7	Sololá	713	San Lucas Tolimán	10	San Lucas Tolimán	3	Marzo	2023-03-13T00:00:00	2024-11-08T07:00:00	6	Velocidad del viento	1.6
111918	7	Sololá	713	San Lucas Tolimán	10	San Lucas Tolimán	3	Marzo	2023-03-13T00:00:00	2024-11-08T07:00:00	7	Dirección del viento	1.61
111919	7	Sololá	713	San Lucas Tolimán	10	San Lucas Tolimán	3	Marzo	2023-03-13T00:00:00	2024-11-08T07:00:00	1	Precipitación	0
111920	7	Sololá	713	San Lucas Tolimán	10	San Lucas Tolimán	3	Marzo	2023-03-13T00:00:00	2024-11-08T07:00:00	8	Radiación solar	19
111921	7	Sololá	713	San Lucas Tolimán	10	San Lucas Tolimán	3	Marzo	2023-03-13T00:00:00	2024-11-08T08:00:00	2	Temperatura media	15.9
111922	7	Sololá	713	San Lucas Tolimán	10	San Lucas Tolimán	3	Marzo	2023-03-13T00:00:00	2024-11-08T08:00:00	4	Temperatura máxima	15.9
111923	7	Sololá	713	San Lucas Tolimán	10	San Lucas Tolimán	3	Marzo	2023-03-13T00:00:00	2024-11-08T08:00:00	3	Temperatura mínima	13.8
111924	7	Sololá	713	San Lucas Tolimán	10	San Lucas Tolimán	3	Marzo	2023-03-13T00:00:00	2024-11-08T08:00:00	5	Humedad	66
111925	7	Sololá	713	San Lucas Tolimán	10	San Lucas Tolimán	3	Marzo	2023-03-13T00:00:00	2024-11-08T08:00:00	6	Velocidad del viento	0
111926	7	Sololá	713	San Lucas Tolimán	10	San Lucas Tolimán	3	Marzo	2023-03-13T00:00:00	2024-11-08T08:00:00	7	Dirección del viento	0
111927	7	Sololá	713	San Lucas Tolimán	10	San Lucas Tolimán	3	Marzo	2023-03-13T00:00:00	2024-11-08T08:00:00	1	Precipitación	0
111928	7	Sololá	713	San Lucas Tolimán	10	San Lucas Tolimán	3	Marzo	2023-03-13T00:00:00	2024-11-08T08:00:00	8	Radiación solar	110
111929	7	Sololá	713	San Lucas Tolimán	10	San Lucas Tolimán	3	Marzo	2023-03-13T00:00:00	2024-11-08T09:00:00	2	Temperatura media	19.9
111930	7	Sololá	713	San Lucas Tolimán	10	San Lucas Tolimán	3	Marzo	2023-03-13T00:00:00	2024-11-08T09:00:00	4	Temperatura máxima	20.4
111931	7	Sololá	713	San Lucas Tolimán	10	San Lucas Tolimán	3	Marzo	2023-03-13T00:00:00	2024-11-08T09:00:00	3	Temperatura mínima	15.9
111932	7	Sololá	713	San Lucas Tolimán	10	San Lucas Tolimán	3	Marzo	2023-03-13T00:00:00	2024-11-08T09:00:00	5	Humedad	54
111933	7	Sololá	713	San Lucas Tolimán	10	San Lucas Tolimán	3	Marzo	2023-03-13T00:00:00	2024-11-08T09:00:00	6	Velocidad del viento	1.6
111934	7	Sololá	713	San Lucas Tolimán	10	San Lucas Tolimán	3	Marzo	2023-03-13T00:00:00	2024-11-08T09:00:00	7	Dirección del viento	1.61
111935	7	Sololá	713	San Lucas Tolimán	10	San Lucas Tolimán	3	Marzo	2023-03-13T00:00:00	2024-11-08T09:00:00	1	Precipitación	0
111936	7	Sololá	713	San Lucas Tolimán	10	San Lucas Tolimán	3	Marzo	2023-03-13T00:00:00	2024-11-08T09:00:00	8	Radiación solar	498
111937	7	Sololá	713	San Lucas Tolimán	10	San Lucas Tolimán	3	Marzo	2023-03-13T00:00:00	2024-11-08T10:00:00	2	Temperatura media	22.1
111938	7	Sololá	713	San Lucas Tolimán	10	San Lucas Tolimán	3	Marzo	2023-03-13T00:00:00	2024-11-08T10:00:00	4	Temperatura máxima	22.2
111939	7	Sololá	713	San Lucas Tolimán	10	San Lucas Tolimán	3	Marzo	2023-03-13T00:00:00	2024-11-08T10:00:00	3	Temperatura mínima	19.7
111940	7	Sololá	713	San Lucas Tolimán	10	San Lucas Tolimán	3	Marzo	2023-03-13T00:00:00	2024-11-08T10:00:00	5	Humedad	52
111941	7	Sololá	713	San Lucas Tolimán	10	San Lucas Tolimán	3	Marzo	2023-03-13T00:00:00	2024-11-08T10:00:00	6	Velocidad del viento	3.2
111942	7	Sololá	713	San Lucas Tolimán	10	San Lucas Tolimán	3	Marzo	2023-03-13T00:00:00	2024-11-08T10:00:00	7	Dirección del viento	3.22
111943	7	Sololá	713	San Lucas Tolimán	10	San Lucas Tolimán	3	Marzo	2023-03-13T00:00:00	2024-11-08T10:00:00	1	Precipitación	0
111944	7	Sololá	713	San Lucas Tolimán	10	San Lucas Tolimán	3	Marzo	2023-03-13T00:00:00	2024-11-08T10:00:00	8	Radiación solar	754
111945	7	Sololá	713	San Lucas Tolimán	10	San Lucas Tolimán	3	Marzo	2023-03-13T00:00:00	2024-11-08T11:00:00	2	Temperatura media	21.7
111946	7	Sololá	713	San Lucas Tolimán	10	San Lucas Tolimán	3	Marzo	2023-03-13T00:00:00	2024-11-08T11:00:00	4	Temperatura máxima	22.1
111947	7	Sololá	713	San Lucas Tolimán	10	San Lucas Tolimán	3	Marzo	2023-03-13T00:00:00	2024-11-08T11:00:00	3	Temperatura mínima	21.2
111948	7	Sololá	713	San Lucas Tolimán	10	San Lucas Tolimán	3	Marzo	2023-03-13T00:00:00	2024-11-08T11:00:00	5	Humedad	54
111949	7	Sololá	713	San Lucas Tolimán	10	San Lucas Tolimán	3	Marzo	2023-03-13T00:00:00	2024-11-08T11:00:00	6	Velocidad del viento	8
111950	7	Sololá	713	San Lucas Tolimán	10	San Lucas Tolimán	3	Marzo	2023-03-13T00:00:00	2024-11-08T11:00:00	7	Dirección del viento	8.05
111951	7	Sololá	713	San Lucas Tolimán	10	San Lucas Tolimán	3	Marzo	2023-03-13T00:00:00	2024-11-08T11:00:00	1	Precipitación	0
111952	7	Sololá	713	San Lucas Tolimán	10	San Lucas Tolimán	3	Marzo	2023-03-13T00:00:00	2024-11-08T11:00:00	8	Radiación solar	983
111953	7	Sololá	713	San Lucas Tolimán	10	San Lucas Tolimán	3	Marzo	2023-03-13T00:00:00	2024-11-08T12:00:00	2	Temperatura media	20.8
111954	7	Sololá	713	San Lucas Tolimán	10	San Lucas Tolimán	3	Marzo	2023-03-13T00:00:00	2024-11-08T12:00:00	4	Temperatura máxima	21.7
111955	7	Sololá	713	San Lucas Tolimán	10	San Lucas Tolimán	3	Marzo	2023-03-13T00:00:00	2024-11-08T12:00:00	3	Temperatura mínima	20.3
111956	7	Sololá	713	San Lucas Tolimán	10	San Lucas Tolimán	3	Marzo	2023-03-13T00:00:00	2024-11-08T12:00:00	5	Humedad	60
111957	7	Sololá	713	San Lucas Tolimán	10	San Lucas Tolimán	3	Marzo	2023-03-13T00:00:00	2024-11-08T12:00:00	6	Velocidad del viento	11.3
111958	7	Sololá	713	San Lucas Tolimán	10	San Lucas Tolimán	3	Marzo	2023-03-13T00:00:00	2024-11-08T12:00:00	7	Dirección del viento	11.27
111959	7	Sololá	713	San Lucas Tolimán	10	San Lucas Tolimán	3	Marzo	2023-03-13T00:00:00	2024-11-08T12:00:00	1	Precipitación	0
111960	7	Sololá	713	San Lucas Tolimán	10	San Lucas Tolimán	3	Marzo	2023-03-13T00:00:00	2024-11-08T12:00:00	8	Radiación solar	933
111961	7	Sololá	713	San Lucas Tolimán	10	San Lucas Tolimán	3	Marzo	2023-03-13T00:00:00	2024-11-08T13:00:00	2	Temperatura media	21
111962	7	Sololá	713	San Lucas Tolimán	10	San Lucas Tolimán	3	Marzo	2023-03-13T00:00:00	2024-11-08T13:00:00	4	Temperatura máxima	21.3
111963	7	Sololá	713	San Lucas Tolimán	10	San Lucas Tolimán	3	Marzo	2023-03-13T00:00:00	2024-11-08T13:00:00	3	Temperatura mínima	20.1
111964	7	Sololá	713	San Lucas Tolimán	10	San Lucas Tolimán	3	Marzo	2023-03-13T00:00:00	2024-11-08T13:00:00	5	Humedad	59
111965	7	Sololá	713	San Lucas Tolimán	10	San Lucas Tolimán	3	Marzo	2023-03-13T00:00:00	2024-11-08T13:00:00	6	Velocidad del viento	11.3
111966	7	Sololá	713	San Lucas Tolimán	10	San Lucas Tolimán	3	Marzo	2023-03-13T00:00:00	2024-11-08T13:00:00	7	Dirección del viento	11.27
111967	7	Sololá	713	San Lucas Tolimán	10	San Lucas Tolimán	3	Marzo	2023-03-13T00:00:00	2024-11-08T13:00:00	1	Precipitación	0
111968	7	Sololá	713	San Lucas Tolimán	10	San Lucas Tolimán	3	Marzo	2023-03-13T00:00:00	2024-11-08T13:00:00	8	Radiación solar	617
111969	7	Sololá	713	San Lucas Tolimán	10	San Lucas Tolimán	3	Marzo	2023-03-13T00:00:00	2024-11-08T14:00:00	2	Temperatura media	21
111970	7	Sololá	713	San Lucas Tolimán	10	San Lucas Tolimán	3	Marzo	2023-03-13T00:00:00	2024-11-08T14:00:00	4	Temperatura máxima	21.6
111971	7	Sololá	713	San Lucas Tolimán	10	San Lucas Tolimán	3	Marzo	2023-03-13T00:00:00	2024-11-08T14:00:00	3	Temperatura mínima	20.7
111972	7	Sololá	713	San Lucas Tolimán	10	San Lucas Tolimán	3	Marzo	2023-03-13T00:00:00	2024-11-08T14:00:00	5	Humedad	58
111973	7	Sololá	713	San Lucas Tolimán	10	San Lucas Tolimán	3	Marzo	2023-03-13T00:00:00	2024-11-08T14:00:00	6	Velocidad del viento	11.3
111974	7	Sololá	713	San Lucas Tolimán	10	San Lucas Tolimán	3	Marzo	2023-03-13T00:00:00	2024-11-08T14:00:00	7	Dirección del viento	11.27
111975	7	Sololá	713	San Lucas Tolimán	10	San Lucas Tolimán	3	Marzo	2023-03-13T00:00:00	2024-11-08T14:00:00	1	Precipitación	0
111976	7	Sololá	713	San Lucas Tolimán	10	San Lucas Tolimán	3	Marzo	2023-03-13T00:00:00	2024-11-08T14:00:00	8	Radiación solar	664
111977	7	Sololá	713	San Lucas Tolimán	10	San Lucas Tolimán	3	Marzo	2023-03-13T00:00:00	2024-11-08T15:00:00	2	Temperatura media	19.7
111978	7	Sololá	713	San Lucas Tolimán	10	San Lucas Tolimán	3	Marzo	2023-03-13T00:00:00	2024-11-08T15:00:00	4	Temperatura máxima	21.1
111979	7	Sololá	713	San Lucas Tolimán	10	San Lucas Tolimán	3	Marzo	2023-03-13T00:00:00	2024-11-08T15:00:00	3	Temperatura mínima	19.7
111980	7	Sololá	713	San Lucas Tolimán	10	San Lucas Tolimán	3	Marzo	2023-03-13T00:00:00	2024-11-08T15:00:00	5	Humedad	63
111981	7	Sololá	713	San Lucas Tolimán	10	San Lucas Tolimán	3	Marzo	2023-03-13T00:00:00	2024-11-08T15:00:00	6	Velocidad del viento	9.7
111982	7	Sololá	713	San Lucas Tolimán	10	San Lucas Tolimán	3	Marzo	2023-03-13T00:00:00	2024-11-08T15:00:00	7	Dirección del viento	9.66
111983	7	Sololá	713	San Lucas Tolimán	10	San Lucas Tolimán	3	Marzo	2023-03-13T00:00:00	2024-11-08T15:00:00	1	Precipitación	0
111984	7	Sololá	713	San Lucas Tolimán	10	San Lucas Tolimán	3	Marzo	2023-03-13T00:00:00	2024-11-08T15:00:00	8	Radiación solar	315
111985	7	Sololá	713	San Lucas Tolimán	10	San Lucas Tolimán	3	Marzo	2023-03-13T00:00:00	2024-11-08T16:00:00	2	Temperatura media	19.4
111986	7	Sololá	713	San Lucas Tolimán	10	San Lucas Tolimán	3	Marzo	2023-03-13T00:00:00	2024-11-08T16:00:00	4	Temperatura máxima	19.8
111987	7	Sololá	713	San Lucas Tolimán	10	San Lucas Tolimán	3	Marzo	2023-03-13T00:00:00	2024-11-08T16:00:00	3	Temperatura mínima	19.4
111988	7	Sololá	713	San Lucas Tolimán	10	San Lucas Tolimán	3	Marzo	2023-03-13T00:00:00	2024-11-08T16:00:00	5	Humedad	62
111989	7	Sololá	713	San Lucas Tolimán	10	San Lucas Tolimán	3	Marzo	2023-03-13T00:00:00	2024-11-08T16:00:00	6	Velocidad del viento	6.4
111990	7	Sololá	713	San Lucas Tolimán	10	San Lucas Tolimán	3	Marzo	2023-03-13T00:00:00	2024-11-08T16:00:00	7	Dirección del viento	6.44
111991	7	Sololá	713	San Lucas Tolimán	10	San Lucas Tolimán	3	Marzo	2023-03-13T00:00:00	2024-11-08T16:00:00	1	Precipitación	0
111992	7	Sololá	713	San Lucas Tolimán	10	San Lucas Tolimán	3	Marzo	2023-03-13T00:00:00	2024-11-08T16:00:00	8	Radiación solar	206
111993	7	Sololá	713	San Lucas Tolimán	10	San Lucas Tolimán	3	Marzo	2023-03-13T00:00:00	2024-11-08T17:00:00	2	Temperatura media	18.8
111994	7	Sololá	713	San Lucas Tolimán	10	San Lucas Tolimán	3	Marzo	2023-03-13T00:00:00	2024-11-08T17:00:00	4	Temperatura máxima	19.4
111995	7	Sololá	713	San Lucas Tolimán	10	San Lucas Tolimán	3	Marzo	2023-03-13T00:00:00	2024-11-08T17:00:00	3	Temperatura mínima	18.6
111996	7	Sololá	713	San Lucas Tolimán	10	San Lucas Tolimán	3	Marzo	2023-03-13T00:00:00	2024-11-08T17:00:00	5	Humedad	65
111997	7	Sololá	713	San Lucas Tolimán	10	San Lucas Tolimán	3	Marzo	2023-03-13T00:00:00	2024-11-08T17:00:00	6	Velocidad del viento	8
111998	7	Sololá	713	San Lucas Tolimán	10	San Lucas Tolimán	3	Marzo	2023-03-13T00:00:00	2024-11-08T17:00:00	7	Dirección del viento	8.05
111999	7	Sololá	713	San Lucas Tolimán	10	San Lucas Tolimán	3	Marzo	2023-03-13T00:00:00	2024-11-08T17:00:00	1	Precipitación	0
112000	7	Sololá	713	San Lucas Tolimán	10	San Lucas Tolimán	3	Marzo	2023-03-13T00:00:00	2024-11-08T17:00:00	8	Radiación solar	86
112001	7	Sololá	713	San Lucas Tolimán	10	San Lucas Tolimán	3	Marzo	2023-03-13T00:00:00	2024-11-08T18:00:00	2	Temperatura media	18.7
112002	7	Sololá	713	San Lucas Tolimán	10	San Lucas Tolimán	3	Marzo	2023-03-13T00:00:00	2024-11-08T18:00:00	4	Temperatura máxima	19
112003	7	Sololá	713	San Lucas Tolimán	10	San Lucas Tolimán	3	Marzo	2023-03-13T00:00:00	2024-11-08T18:00:00	3	Temperatura mínima	18.6
112004	7	Sololá	713	San Lucas Tolimán	10	San Lucas Tolimán	3	Marzo	2023-03-13T00:00:00	2024-11-08T18:00:00	5	Humedad	66
112005	7	Sololá	713	San Lucas Tolimán	10	San Lucas Tolimán	3	Marzo	2023-03-13T00:00:00	2024-11-08T18:00:00	6	Velocidad del viento	6.4
112006	7	Sololá	713	San Lucas Tolimán	10	San Lucas Tolimán	3	Marzo	2023-03-13T00:00:00	2024-11-08T18:00:00	7	Dirección del viento	6.44
112007	7	Sololá	713	San Lucas Tolimán	10	San Lucas Tolimán	3	Marzo	2023-03-13T00:00:00	2024-11-08T18:00:00	1	Precipitación	0
112008	7	Sololá	713	San Lucas Tolimán	10	San Lucas Tolimán	3	Marzo	2023-03-13T00:00:00	2024-11-08T18:00:00	8	Radiación solar	72
112009	7	Sololá	713	San Lucas Tolimán	10	San Lucas Tolimán	3	Marzo	2023-03-13T00:00:00	2024-11-08T19:00:00	2	Temperatura media	18
112010	7	Sololá	713	San Lucas Tolimán	10	San Lucas Tolimán	3	Marzo	2023-03-13T00:00:00	2024-11-08T19:00:00	4	Temperatura máxima	18.7
112011	7	Sololá	713	San Lucas Tolimán	10	San Lucas Tolimán	3	Marzo	2023-03-13T00:00:00	2024-11-08T19:00:00	3	Temperatura mínima	18
112012	7	Sololá	713	San Lucas Tolimán	10	San Lucas Tolimán	3	Marzo	2023-03-13T00:00:00	2024-11-08T19:00:00	5	Humedad	66
112013	7	Sololá	713	San Lucas Tolimán	10	San Lucas Tolimán	3	Marzo	2023-03-13T00:00:00	2024-11-08T19:00:00	6	Velocidad del viento	4.8
112014	7	Sololá	713	San Lucas Tolimán	10	San Lucas Tolimán	3	Marzo	2023-03-13T00:00:00	2024-11-08T19:00:00	7	Dirección del viento	4.83
112015	7	Sololá	713	San Lucas Tolimán	10	San Lucas Tolimán	3	Marzo	2023-03-13T00:00:00	2024-11-08T19:00:00	1	Precipitación	0
112016	7	Sololá	713	San Lucas Tolimán	10	San Lucas Tolimán	3	Marzo	2023-03-13T00:00:00	2024-11-08T19:00:00	8	Radiación solar	0
112017	7	Sololá	713	San Lucas Tolimán	10	San Lucas Tolimán	3	Marzo	2023-03-13T00:00:00	2024-11-08T20:00:00	2	Temperatura media	17.6
112018	7	Sololá	713	San Lucas Tolimán	10	San Lucas Tolimán	3	Marzo	2023-03-13T00:00:00	2024-11-08T20:00:00	4	Temperatura máxima	18
112019	7	Sololá	713	San Lucas Tolimán	10	San Lucas Tolimán	3	Marzo	2023-03-13T00:00:00	2024-11-08T20:00:00	3	Temperatura mínima	17.6
112020	7	Sololá	713	San Lucas Tolimán	10	San Lucas Tolimán	3	Marzo	2023-03-13T00:00:00	2024-11-08T20:00:00	5	Humedad	66
112021	7	Sololá	713	San Lucas Tolimán	10	San Lucas Tolimán	3	Marzo	2023-03-13T00:00:00	2024-11-08T20:00:00	6	Velocidad del viento	6.4
112022	7	Sololá	713	San Lucas Tolimán	10	San Lucas Tolimán	3	Marzo	2023-03-13T00:00:00	2024-11-08T20:00:00	7	Dirección del viento	6.44
112023	7	Sololá	713	San Lucas Tolimán	10	San Lucas Tolimán	3	Marzo	2023-03-13T00:00:00	2024-11-08T20:00:00	1	Precipitación	0
112024	7	Sololá	713	San Lucas Tolimán	10	San Lucas Tolimán	3	Marzo	2023-03-13T00:00:00	2024-11-08T20:00:00	8	Radiación solar	0
112025	7	Sololá	713	San Lucas Tolimán	10	San Lucas Tolimán	3	Marzo	2023-03-13T00:00:00	2024-11-08T21:00:00	2	Temperatura media	17.3
112026	7	Sololá	713	San Lucas Tolimán	10	San Lucas Tolimán	3	Marzo	2023-03-13T00:00:00	2024-11-08T21:00:00	4	Temperatura máxima	17.6
112027	7	Sololá	713	San Lucas Tolimán	10	San Lucas Tolimán	3	Marzo	2023-03-13T00:00:00	2024-11-08T21:00:00	3	Temperatura mínima	17.3
112028	7	Sololá	713	San Lucas Tolimán	10	San Lucas Tolimán	3	Marzo	2023-03-13T00:00:00	2024-11-08T21:00:00	5	Humedad	66
112029	7	Sololá	713	San Lucas Tolimán	10	San Lucas Tolimán	3	Marzo	2023-03-13T00:00:00	2024-11-08T21:00:00	6	Velocidad del viento	6.4
112030	7	Sololá	713	San Lucas Tolimán	10	San Lucas Tolimán	3	Marzo	2023-03-13T00:00:00	2024-11-08T21:00:00	7	Dirección del viento	6.44
112031	7	Sololá	713	San Lucas Tolimán	10	San Lucas Tolimán	3	Marzo	2023-03-13T00:00:00	2024-11-08T21:00:00	1	Precipitación	0
112032	7	Sololá	713	San Lucas Tolimán	10	San Lucas Tolimán	3	Marzo	2023-03-13T00:00:00	2024-11-08T21:00:00	8	Radiación solar	0
112033	7	Sololá	713	San Lucas Tolimán	10	San Lucas Tolimán	3	Marzo	2023-03-13T00:00:00	2024-11-08T22:00:00	2	Temperatura media	17.1
112034	7	Sololá	713	San Lucas Tolimán	10	San Lucas Tolimán	3	Marzo	2023-03-13T00:00:00	2024-11-08T22:00:00	4	Temperatura máxima	17.4
112035	7	Sololá	713	San Lucas Tolimán	10	San Lucas Tolimán	3	Marzo	2023-03-13T00:00:00	2024-11-08T22:00:00	3	Temperatura mínima	17.1
112036	7	Sololá	713	San Lucas Tolimán	10	San Lucas Tolimán	3	Marzo	2023-03-13T00:00:00	2024-11-08T22:00:00	5	Humedad	67
112037	7	Sololá	713	San Lucas Tolimán	10	San Lucas Tolimán	3	Marzo	2023-03-13T00:00:00	2024-11-08T22:00:00	6	Velocidad del viento	4.8
112038	7	Sololá	713	San Lucas Tolimán	10	San Lucas Tolimán	3	Marzo	2023-03-13T00:00:00	2024-11-08T22:00:00	7	Dirección del viento	4.83
112039	7	Sololá	713	San Lucas Tolimán	10	San Lucas Tolimán	3	Marzo	2023-03-13T00:00:00	2024-11-08T22:00:00	1	Precipitación	0
112040	7	Sololá	713	San Lucas Tolimán	10	San Lucas Tolimán	3	Marzo	2023-03-13T00:00:00	2024-11-08T22:00:00	8	Radiación solar	0
112041	7	Sololá	713	San Lucas Tolimán	10	San Lucas Tolimán	3	Marzo	2023-03-13T00:00:00	2024-11-08T23:00:00	2	Temperatura media	17.1
112042	7	Sololá	713	San Lucas Tolimán	10	San Lucas Tolimán	3	Marzo	2023-03-13T00:00:00	2024-11-08T23:00:00	4	Temperatura máxima	17.2
112043	7	Sololá	713	San Lucas Tolimán	10	San Lucas Tolimán	3	Marzo	2023-03-13T00:00:00	2024-11-08T23:00:00	3	Temperatura mínima	16.8
112044	7	Sololá	713	San Lucas Tolimán	10	San Lucas Tolimán	3	Marzo	2023-03-13T00:00:00	2024-11-08T23:00:00	5	Humedad	67
112045	7	Sololá	713	San Lucas Tolimán	10	San Lucas Tolimán	3	Marzo	2023-03-13T00:00:00	2024-11-08T23:00:00	6	Velocidad del viento	3.2
112046	7	Sololá	713	San Lucas Tolimán	10	San Lucas Tolimán	3	Marzo	2023-03-13T00:00:00	2024-11-08T23:00:00	7	Dirección del viento	3.22
112047	7	Sololá	713	San Lucas Tolimán	10	San Lucas Tolimán	3	Marzo	2023-03-13T00:00:00	2024-11-08T23:00:00	1	Precipitación	0
112048	7	Sololá	713	San Lucas Tolimán	10	San Lucas Tolimán	3	Marzo	2023-03-13T00:00:00	2024-11-08T23:00:00	8	Radiación solar	0
112049	7	Sololá	713	San Lucas Tolimán	10	San Lucas Tolimán	3	Marzo	2023-03-14T00:00:00	2024-11-08T00:00:00	2	Temperatura media	16.4
112050	7	Sololá	713	San Lucas Tolimán	10	San Lucas Tolimán	3	Marzo	2023-03-14T00:00:00	2024-11-08T00:00:00	4	Temperatura máxima	17.1
112051	7	Sololá	713	San Lucas Tolimán	10	San Lucas Tolimán	3	Marzo	2023-03-14T00:00:00	2024-11-08T00:00:00	3	Temperatura mínima	16.4
112052	7	Sololá	713	San Lucas Tolimán	10	San Lucas Tolimán	3	Marzo	2023-03-14T00:00:00	2024-11-08T00:00:00	5	Humedad	67
112053	7	Sololá	713	San Lucas Tolimán	10	San Lucas Tolimán	3	Marzo	2023-03-14T00:00:00	2024-11-08T00:00:00	6	Velocidad del viento	3.2
112054	7	Sololá	713	San Lucas Tolimán	10	San Lucas Tolimán	3	Marzo	2023-03-14T00:00:00	2024-11-08T00:00:00	7	Dirección del viento	3.22
112055	7	Sololá	713	San Lucas Tolimán	10	San Lucas Tolimán	3	Marzo	2023-03-14T00:00:00	2024-11-08T00:00:00	1	Precipitación	0
112056	7	Sololá	713	San Lucas Tolimán	10	San Lucas Tolimán	3	Marzo	2023-03-14T00:00:00	2024-11-08T00:00:00	8	Radiación solar	0
112057	7	Sololá	713	San Lucas Tolimán	10	San Lucas Tolimán	3	Marzo	2023-03-14T00:00:00	2024-11-08T01:00:00	2	Temperatura media	16.4
112058	7	Sololá	713	San Lucas Tolimán	10	San Lucas Tolimán	3	Marzo	2023-03-14T00:00:00	2024-11-08T01:00:00	4	Temperatura máxima	16.6
112059	7	Sololá	713	San Lucas Tolimán	10	San Lucas Tolimán	3	Marzo	2023-03-14T00:00:00	2024-11-08T01:00:00	3	Temperatura mínima	16.4
112060	7	Sololá	713	San Lucas Tolimán	10	San Lucas Tolimán	3	Marzo	2023-03-14T00:00:00	2024-11-08T01:00:00	5	Humedad	66
112061	7	Sololá	713	San Lucas Tolimán	10	San Lucas Tolimán	3	Marzo	2023-03-14T00:00:00	2024-11-08T01:00:00	6	Velocidad del viento	1.6
112062	7	Sololá	713	San Lucas Tolimán	10	San Lucas Tolimán	3	Marzo	2023-03-14T00:00:00	2024-11-08T01:00:00	7	Dirección del viento	1.61
112063	7	Sololá	713	San Lucas Tolimán	10	San Lucas Tolimán	3	Marzo	2023-03-14T00:00:00	2024-11-08T01:00:00	1	Precipitación	0
112064	7	Sololá	713	San Lucas Tolimán	10	San Lucas Tolimán	3	Marzo	2023-03-14T00:00:00	2024-11-08T01:00:00	8	Radiación solar	0
112065	7	Sololá	713	San Lucas Tolimán	10	San Lucas Tolimán	3	Marzo	2023-03-14T00:00:00	2024-11-08T02:00:00	2	Temperatura media	16.1
112066	7	Sololá	713	San Lucas Tolimán	10	San Lucas Tolimán	3	Marzo	2023-03-14T00:00:00	2024-11-08T02:00:00	4	Temperatura máxima	16.4
112067	7	Sololá	713	San Lucas Tolimán	10	San Lucas Tolimán	3	Marzo	2023-03-14T00:00:00	2024-11-08T02:00:00	3	Temperatura mínima	16
112068	7	Sololá	713	San Lucas Tolimán	10	San Lucas Tolimán	3	Marzo	2023-03-14T00:00:00	2024-11-08T02:00:00	5	Humedad	67
112069	7	Sololá	713	San Lucas Tolimán	10	San Lucas Tolimán	3	Marzo	2023-03-14T00:00:00	2024-11-08T02:00:00	6	Velocidad del viento	4.8
112070	7	Sololá	713	San Lucas Tolimán	10	San Lucas Tolimán	3	Marzo	2023-03-14T00:00:00	2024-11-08T02:00:00	7	Dirección del viento	4.83
112071	7	Sololá	713	San Lucas Tolimán	10	San Lucas Tolimán	3	Marzo	2023-03-14T00:00:00	2024-11-08T02:00:00	1	Precipitación	0
112072	7	Sololá	713	San Lucas Tolimán	10	San Lucas Tolimán	3	Marzo	2023-03-14T00:00:00	2024-11-08T02:00:00	8	Radiación solar	0
112073	7	Sololá	713	San Lucas Tolimán	10	San Lucas Tolimán	3	Marzo	2023-03-14T00:00:00	2024-11-08T03:00:00	2	Temperatura media	15.8
112074	7	Sololá	713	San Lucas Tolimán	10	San Lucas Tolimán	3	Marzo	2023-03-14T00:00:00	2024-11-08T03:00:00	4	Temperatura máxima	16.2
112075	7	Sololá	713	San Lucas Tolimán	10	San Lucas Tolimán	3	Marzo	2023-03-14T00:00:00	2024-11-08T03:00:00	3	Temperatura mínima	15.7
112076	7	Sololá	713	San Lucas Tolimán	10	San Lucas Tolimán	3	Marzo	2023-03-14T00:00:00	2024-11-08T03:00:00	5	Humedad	67
112077	7	Sololá	713	San Lucas Tolimán	10	San Lucas Tolimán	3	Marzo	2023-03-14T00:00:00	2024-11-08T03:00:00	6	Velocidad del viento	3.2
112078	7	Sololá	713	San Lucas Tolimán	10	San Lucas Tolimán	3	Marzo	2023-03-14T00:00:00	2024-11-08T03:00:00	7	Dirección del viento	3.22
112079	7	Sololá	713	San Lucas Tolimán	10	San Lucas Tolimán	3	Marzo	2023-03-14T00:00:00	2024-11-08T03:00:00	1	Precipitación	0
112080	7	Sololá	713	San Lucas Tolimán	10	San Lucas Tolimán	3	Marzo	2023-03-14T00:00:00	2024-11-08T03:00:00	8	Radiación solar	0
112081	7	Sololá	713	San Lucas Tolimán	10	San Lucas Tolimán	3	Marzo	2023-03-14T00:00:00	2024-11-08T04:00:00	2	Temperatura media	16
112082	7	Sololá	713	San Lucas Tolimán	10	San Lucas Tolimán	3	Marzo	2023-03-14T00:00:00	2024-11-08T04:00:00	4	Temperatura máxima	16.1
112083	7	Sololá	713	San Lucas Tolimán	10	San Lucas Tolimán	3	Marzo	2023-03-14T00:00:00	2024-11-08T04:00:00	3	Temperatura mínima	15.8
112084	7	Sololá	713	San Lucas Tolimán	10	San Lucas Tolimán	3	Marzo	2023-03-14T00:00:00	2024-11-08T04:00:00	5	Humedad	67
112085	7	Sololá	713	San Lucas Tolimán	10	San Lucas Tolimán	3	Marzo	2023-03-14T00:00:00	2024-11-08T04:00:00	6	Velocidad del viento	0
112086	7	Sololá	713	San Lucas Tolimán	10	San Lucas Tolimán	3	Marzo	2023-03-14T00:00:00	2024-11-08T04:00:00	7	Dirección del viento	0
112087	7	Sololá	713	San Lucas Tolimán	10	San Lucas Tolimán	3	Marzo	2023-03-14T00:00:00	2024-11-08T04:00:00	1	Precipitación	0
112088	7	Sololá	713	San Lucas Tolimán	10	San Lucas Tolimán	3	Marzo	2023-03-14T00:00:00	2024-11-08T04:00:00	8	Radiación solar	0
112089	7	Sololá	713	San Lucas Tolimán	10	San Lucas Tolimán	3	Marzo	2023-03-14T00:00:00	2024-11-08T05:00:00	2	Temperatura media	16.7
112090	7	Sololá	713	San Lucas Tolimán	10	San Lucas Tolimán	3	Marzo	2023-03-14T00:00:00	2024-11-08T05:00:00	4	Temperatura máxima	16.8
112091	7	Sololá	713	San Lucas Tolimán	10	San Lucas Tolimán	3	Marzo	2023-03-14T00:00:00	2024-11-08T05:00:00	3	Temperatura mínima	15.9
112092	7	Sololá	713	San Lucas Tolimán	10	San Lucas Tolimán	3	Marzo	2023-03-14T00:00:00	2024-11-08T05:00:00	5	Humedad	65
112093	7	Sololá	713	San Lucas Tolimán	10	San Lucas Tolimán	3	Marzo	2023-03-14T00:00:00	2024-11-08T05:00:00	6	Velocidad del viento	0
112094	7	Sololá	713	San Lucas Tolimán	10	San Lucas Tolimán	3	Marzo	2023-03-14T00:00:00	2024-11-08T05:00:00	7	Dirección del viento	0
112095	7	Sololá	713	San Lucas Tolimán	10	San Lucas Tolimán	3	Marzo	2023-03-14T00:00:00	2024-11-08T05:00:00	1	Precipitación	0
112096	7	Sololá	713	San Lucas Tolimán	10	San Lucas Tolimán	3	Marzo	2023-03-14T00:00:00	2024-11-08T05:00:00	8	Radiación solar	0
112097	7	Sololá	713	San Lucas Tolimán	10	San Lucas Tolimán	3	Marzo	2023-03-14T00:00:00	2024-11-08T06:00:00	2	Temperatura media	16.9
112098	7	Sololá	713	San Lucas Tolimán	10	San Lucas Tolimán	3	Marzo	2023-03-14T00:00:00	2024-11-08T06:00:00	4	Temperatura máxima	17.2
112099	7	Sololá	713	San Lucas Tolimán	10	San Lucas Tolimán	3	Marzo	2023-03-14T00:00:00	2024-11-08T06:00:00	3	Temperatura mínima	16.7
112100	7	Sololá	713	San Lucas Tolimán	10	San Lucas Tolimán	3	Marzo	2023-03-14T00:00:00	2024-11-08T06:00:00	5	Humedad	65
112101	7	Sololá	713	San Lucas Tolimán	10	San Lucas Tolimán	3	Marzo	2023-03-14T00:00:00	2024-11-08T06:00:00	6	Velocidad del viento	1.6
112102	7	Sololá	713	San Lucas Tolimán	10	San Lucas Tolimán	3	Marzo	2023-03-14T00:00:00	2024-11-08T06:00:00	7	Dirección del viento	1.61
112103	7	Sololá	713	San Lucas Tolimán	10	San Lucas Tolimán	3	Marzo	2023-03-14T00:00:00	2024-11-08T06:00:00	1	Precipitación	0
112104	7	Sololá	713	San Lucas Tolimán	10	San Lucas Tolimán	3	Marzo	2023-03-14T00:00:00	2024-11-08T06:00:00	8	Radiación solar	0
112105	7	Sololá	713	San Lucas Tolimán	10	San Lucas Tolimán	3	Marzo	2023-03-14T00:00:00	2024-11-08T07:00:00	2	Temperatura media	16.8
112106	7	Sololá	713	San Lucas Tolimán	10	San Lucas Tolimán	3	Marzo	2023-03-14T00:00:00	2024-11-08T07:00:00	4	Temperatura máxima	16.9
112107	7	Sololá	713	San Lucas Tolimán	10	San Lucas Tolimán	3	Marzo	2023-03-14T00:00:00	2024-11-08T07:00:00	3	Temperatura mínima	16.2
112108	7	Sololá	713	San Lucas Tolimán	10	San Lucas Tolimán	3	Marzo	2023-03-14T00:00:00	2024-11-08T07:00:00	5	Humedad	64
112109	7	Sololá	713	San Lucas Tolimán	10	San Lucas Tolimán	3	Marzo	2023-03-14T00:00:00	2024-11-08T07:00:00	6	Velocidad del viento	0
112110	7	Sololá	713	San Lucas Tolimán	10	San Lucas Tolimán	3	Marzo	2023-03-14T00:00:00	2024-11-08T07:00:00	7	Dirección del viento	0
112111	7	Sololá	713	San Lucas Tolimán	10	San Lucas Tolimán	3	Marzo	2023-03-14T00:00:00	2024-11-08T07:00:00	1	Precipitación	0
112112	7	Sololá	713	San Lucas Tolimán	10	San Lucas Tolimán	3	Marzo	2023-03-14T00:00:00	2024-11-08T07:00:00	8	Radiación solar	20
112113	7	Sololá	713	San Lucas Tolimán	10	San Lucas Tolimán	3	Marzo	2023-03-14T00:00:00	2024-11-08T08:00:00	2	Temperatura media	18.3
112114	7	Sololá	713	San Lucas Tolimán	10	San Lucas Tolimán	3	Marzo	2023-03-14T00:00:00	2024-11-08T08:00:00	4	Temperatura máxima	18.3
112115	7	Sololá	713	San Lucas Tolimán	10	San Lucas Tolimán	3	Marzo	2023-03-14T00:00:00	2024-11-08T08:00:00	3	Temperatura mínima	16.8
112116	7	Sololá	713	San Lucas Tolimán	10	San Lucas Tolimán	3	Marzo	2023-03-14T00:00:00	2024-11-08T08:00:00	5	Humedad	62
112117	7	Sololá	713	San Lucas Tolimán	10	San Lucas Tolimán	3	Marzo	2023-03-14T00:00:00	2024-11-08T08:00:00	6	Velocidad del viento	3.2
112118	7	Sololá	713	San Lucas Tolimán	10	San Lucas Tolimán	3	Marzo	2023-03-14T00:00:00	2024-11-08T08:00:00	7	Dirección del viento	3.22
112119	7	Sololá	713	San Lucas Tolimán	10	San Lucas Tolimán	3	Marzo	2023-03-14T00:00:00	2024-11-08T08:00:00	1	Precipitación	0
112120	7	Sololá	713	San Lucas Tolimán	10	San Lucas Tolimán	3	Marzo	2023-03-14T00:00:00	2024-11-08T08:00:00	8	Radiación solar	176
112121	7	Sololá	713	San Lucas Tolimán	10	San Lucas Tolimán	3	Marzo	2023-03-14T00:00:00	2024-11-08T09:00:00	2	Temperatura media	22.2
112122	7	Sololá	713	San Lucas Tolimán	10	San Lucas Tolimán	3	Marzo	2023-03-14T00:00:00	2024-11-08T09:00:00	4	Temperatura máxima	22.2
112123	7	Sololá	713	San Lucas Tolimán	10	San Lucas Tolimán	3	Marzo	2023-03-14T00:00:00	2024-11-08T09:00:00	3	Temperatura mínima	18.3
112124	7	Sololá	713	San Lucas Tolimán	10	San Lucas Tolimán	3	Marzo	2023-03-14T00:00:00	2024-11-08T09:00:00	5	Humedad	50
112125	7	Sololá	713	San Lucas Tolimán	10	San Lucas Tolimán	3	Marzo	2023-03-14T00:00:00	2024-11-08T09:00:00	6	Velocidad del viento	1.6
112126	7	Sololá	713	San Lucas Tolimán	10	San Lucas Tolimán	3	Marzo	2023-03-14T00:00:00	2024-11-08T09:00:00	7	Dirección del viento	1.61
112127	7	Sololá	713	San Lucas Tolimán	10	San Lucas Tolimán	3	Marzo	2023-03-14T00:00:00	2024-11-08T09:00:00	1	Precipitación	0
112128	7	Sololá	713	San Lucas Tolimán	10	San Lucas Tolimán	3	Marzo	2023-03-14T00:00:00	2024-11-08T09:00:00	8	Radiación solar	484
112129	7	Sololá	713	San Lucas Tolimán	10	San Lucas Tolimán	3	Marzo	2023-03-14T00:00:00	2024-11-08T10:00:00	2	Temperatura media	22.4
112130	7	Sololá	713	San Lucas Tolimán	10	San Lucas Tolimán	3	Marzo	2023-03-14T00:00:00	2024-11-08T10:00:00	4	Temperatura máxima	22.8
112131	7	Sololá	713	San Lucas Tolimán	10	San Lucas Tolimán	3	Marzo	2023-03-14T00:00:00	2024-11-08T10:00:00	3	Temperatura mínima	22.1
112132	7	Sololá	713	San Lucas Tolimán	10	San Lucas Tolimán	3	Marzo	2023-03-14T00:00:00	2024-11-08T10:00:00	5	Humedad	54
112133	7	Sololá	713	San Lucas Tolimán	10	San Lucas Tolimán	3	Marzo	2023-03-14T00:00:00	2024-11-08T10:00:00	6	Velocidad del viento	4.8
112134	7	Sololá	713	San Lucas Tolimán	10	San Lucas Tolimán	3	Marzo	2023-03-14T00:00:00	2024-11-08T10:00:00	7	Dirección del viento	4.83
112135	7	Sololá	713	San Lucas Tolimán	10	San Lucas Tolimán	3	Marzo	2023-03-14T00:00:00	2024-11-08T10:00:00	1	Precipitación	0
112136	7	Sololá	713	San Lucas Tolimán	10	San Lucas Tolimán	3	Marzo	2023-03-14T00:00:00	2024-11-08T10:00:00	8	Radiación solar	754
112137	7	Sololá	713	San Lucas Tolimán	10	San Lucas Tolimán	3	Marzo	2023-03-14T00:00:00	2024-11-08T11:00:00	2	Temperatura media	22
112138	7	Sololá	713	San Lucas Tolimán	10	San Lucas Tolimán	3	Marzo	2023-03-14T00:00:00	2024-11-08T11:00:00	4	Temperatura máxima	23.2
112139	7	Sololá	713	San Lucas Tolimán	10	San Lucas Tolimán	3	Marzo	2023-03-14T00:00:00	2024-11-08T11:00:00	3	Temperatura mínima	22
112140	7	Sololá	713	San Lucas Tolimán	10	San Lucas Tolimán	3	Marzo	2023-03-14T00:00:00	2024-11-08T11:00:00	5	Humedad	54
112141	7	Sololá	713	San Lucas Tolimán	10	San Lucas Tolimán	3	Marzo	2023-03-14T00:00:00	2024-11-08T11:00:00	6	Velocidad del viento	9.7
112142	7	Sololá	713	San Lucas Tolimán	10	San Lucas Tolimán	3	Marzo	2023-03-14T00:00:00	2024-11-08T11:00:00	7	Dirección del viento	9.66
112143	7	Sololá	713	San Lucas Tolimán	10	San Lucas Tolimán	3	Marzo	2023-03-14T00:00:00	2024-11-08T11:00:00	1	Precipitación	0
112144	7	Sololá	713	San Lucas Tolimán	10	San Lucas Tolimán	3	Marzo	2023-03-14T00:00:00	2024-11-08T11:00:00	8	Radiación solar	930
112145	7	Sololá	713	San Lucas Tolimán	10	San Lucas Tolimán	3	Marzo	2023-03-14T00:00:00	2024-11-08T12:00:00	2	Temperatura media	22.4
112146	7	Sololá	713	San Lucas Tolimán	10	San Lucas Tolimán	3	Marzo	2023-03-14T00:00:00	2024-11-08T12:00:00	4	Temperatura máxima	22.9
112147	7	Sololá	713	San Lucas Tolimán	10	San Lucas Tolimán	3	Marzo	2023-03-14T00:00:00	2024-11-08T12:00:00	3	Temperatura mínima	21.8
112148	7	Sololá	713	San Lucas Tolimán	10	San Lucas Tolimán	3	Marzo	2023-03-14T00:00:00	2024-11-08T12:00:00	5	Humedad	55
112149	7	Sololá	713	San Lucas Tolimán	10	San Lucas Tolimán	3	Marzo	2023-03-14T00:00:00	2024-11-08T12:00:00	6	Velocidad del viento	12.9
112150	7	Sololá	713	San Lucas Tolimán	10	San Lucas Tolimán	3	Marzo	2023-03-14T00:00:00	2024-11-08T12:00:00	7	Dirección del viento	12.87
112151	7	Sololá	713	San Lucas Tolimán	10	San Lucas Tolimán	3	Marzo	2023-03-14T00:00:00	2024-11-08T12:00:00	1	Precipitación	0
112152	7	Sololá	713	San Lucas Tolimán	10	San Lucas Tolimán	3	Marzo	2023-03-14T00:00:00	2024-11-08T12:00:00	8	Radiación solar	1055
112153	7	Sololá	713	San Lucas Tolimán	10	San Lucas Tolimán	3	Marzo	2023-03-14T00:00:00	2024-11-08T13:00:00	2	Temperatura media	22.1
112154	7	Sololá	713	San Lucas Tolimán	10	San Lucas Tolimán	3	Marzo	2023-03-14T00:00:00	2024-11-08T13:00:00	4	Temperatura máxima	22.6
112155	7	Sololá	713	San Lucas Tolimán	10	San Lucas Tolimán	3	Marzo	2023-03-14T00:00:00	2024-11-08T13:00:00	3	Temperatura mínima	21.6
112156	7	Sololá	713	San Lucas Tolimán	10	San Lucas Tolimán	3	Marzo	2023-03-14T00:00:00	2024-11-08T13:00:00	5	Humedad	57
112157	7	Sololá	713	San Lucas Tolimán	10	San Lucas Tolimán	3	Marzo	2023-03-14T00:00:00	2024-11-08T13:00:00	6	Velocidad del viento	12.9
112158	7	Sololá	713	San Lucas Tolimán	10	San Lucas Tolimán	3	Marzo	2023-03-14T00:00:00	2024-11-08T13:00:00	7	Dirección del viento	12.87
112159	7	Sololá	713	San Lucas Tolimán	10	San Lucas Tolimán	3	Marzo	2023-03-14T00:00:00	2024-11-08T13:00:00	1	Precipitación	0
112160	7	Sololá	713	San Lucas Tolimán	10	San Lucas Tolimán	3	Marzo	2023-03-14T00:00:00	2024-11-08T13:00:00	8	Radiación solar	793
112161	7	Sololá	713	San Lucas Tolimán	10	San Lucas Tolimán	3	Marzo	2023-03-14T00:00:00	2024-11-08T14:00:00	2	Temperatura media	21.1
112162	7	Sololá	713	San Lucas Tolimán	10	San Lucas Tolimán	3	Marzo	2023-03-14T00:00:00	2024-11-08T14:00:00	4	Temperatura máxima	22.3
112163	7	Sololá	713	San Lucas Tolimán	10	San Lucas Tolimán	3	Marzo	2023-03-14T00:00:00	2024-11-08T14:00:00	3	Temperatura mínima	21.1
112164	7	Sololá	713	San Lucas Tolimán	10	San Lucas Tolimán	3	Marzo	2023-03-14T00:00:00	2024-11-08T14:00:00	5	Humedad	61
112165	7	Sololá	713	San Lucas Tolimán	10	San Lucas Tolimán	3	Marzo	2023-03-14T00:00:00	2024-11-08T14:00:00	6	Velocidad del viento	9.7
112166	7	Sololá	713	San Lucas Tolimán	10	San Lucas Tolimán	3	Marzo	2023-03-14T00:00:00	2024-11-08T14:00:00	7	Dirección del viento	9.66
112167	7	Sololá	713	San Lucas Tolimán	10	San Lucas Tolimán	3	Marzo	2023-03-14T00:00:00	2024-11-08T14:00:00	1	Precipitación	0
112168	7	Sololá	713	San Lucas Tolimán	10	San Lucas Tolimán	3	Marzo	2023-03-14T00:00:00	2024-11-08T14:00:00	8	Radiación solar	289
112169	7	Sololá	713	San Lucas Tolimán	10	San Lucas Tolimán	3	Marzo	2023-03-14T00:00:00	2024-11-08T15:00:00	2	Temperatura media	20.6
112170	7	Sololá	713	San Lucas Tolimán	10	San Lucas Tolimán	3	Marzo	2023-03-14T00:00:00	2024-11-08T15:00:00	4	Temperatura máxima	22
112171	7	Sololá	713	San Lucas Tolimán	10	San Lucas Tolimán	3	Marzo	2023-03-14T00:00:00	2024-11-08T15:00:00	3	Temperatura mínima	20.6
112172	7	Sololá	713	San Lucas Tolimán	10	San Lucas Tolimán	3	Marzo	2023-03-14T00:00:00	2024-11-08T15:00:00	5	Humedad	61
112173	7	Sololá	713	San Lucas Tolimán	10	San Lucas Tolimán	3	Marzo	2023-03-14T00:00:00	2024-11-08T15:00:00	6	Velocidad del viento	8
112174	7	Sololá	713	San Lucas Tolimán	10	San Lucas Tolimán	3	Marzo	2023-03-14T00:00:00	2024-11-08T15:00:00	7	Dirección del viento	8.05
112175	7	Sololá	713	San Lucas Tolimán	10	San Lucas Tolimán	3	Marzo	2023-03-14T00:00:00	2024-11-08T15:00:00	1	Precipitación	0
112176	7	Sololá	713	San Lucas Tolimán	10	San Lucas Tolimán	3	Marzo	2023-03-14T00:00:00	2024-11-08T15:00:00	8	Radiación solar	407
112177	7	Sololá	713	San Lucas Tolimán	10	San Lucas Tolimán	3	Marzo	2023-03-14T00:00:00	2024-11-08T16:00:00	2	Temperatura media	20.3
112178	7	Sololá	713	San Lucas Tolimán	10	San Lucas Tolimán	3	Marzo	2023-03-14T00:00:00	2024-11-08T16:00:00	4	Temperatura máxima	20.9
112179	7	Sololá	713	San Lucas Tolimán	10	San Lucas Tolimán	3	Marzo	2023-03-14T00:00:00	2024-11-08T16:00:00	3	Temperatura mínima	20.1
112180	7	Sololá	713	San Lucas Tolimán	10	San Lucas Tolimán	3	Marzo	2023-03-14T00:00:00	2024-11-08T16:00:00	5	Humedad	61
112181	7	Sololá	713	San Lucas Tolimán	10	San Lucas Tolimán	3	Marzo	2023-03-14T00:00:00	2024-11-08T16:00:00	6	Velocidad del viento	9.7
112182	7	Sololá	713	San Lucas Tolimán	10	San Lucas Tolimán	3	Marzo	2023-03-14T00:00:00	2024-11-08T16:00:00	7	Dirección del viento	9.66
112183	7	Sololá	713	San Lucas Tolimán	10	San Lucas Tolimán	3	Marzo	2023-03-14T00:00:00	2024-11-08T16:00:00	1	Precipitación	0
112184	7	Sololá	713	San Lucas Tolimán	10	San Lucas Tolimán	3	Marzo	2023-03-14T00:00:00	2024-11-08T16:00:00	8	Radiación solar	192
112185	7	Sololá	713	San Lucas Tolimán	10	San Lucas Tolimán	3	Marzo	2023-03-14T00:00:00	2024-11-08T17:00:00	2	Temperatura media	19.8
112186	7	Sololá	713	San Lucas Tolimán	10	San Lucas Tolimán	3	Marzo	2023-03-14T00:00:00	2024-11-08T17:00:00	4	Temperatura máxima	20.7
112187	7	Sololá	713	San Lucas Tolimán	10	San Lucas Tolimán	3	Marzo	2023-03-14T00:00:00	2024-11-08T17:00:00	3	Temperatura mínima	19.8
112188	7	Sololá	713	San Lucas Tolimán	10	San Lucas Tolimán	3	Marzo	2023-03-14T00:00:00	2024-11-08T17:00:00	5	Humedad	64
112189	7	Sololá	713	San Lucas Tolimán	10	San Lucas Tolimán	3	Marzo	2023-03-14T00:00:00	2024-11-08T17:00:00	6	Velocidad del viento	8
112190	7	Sololá	713	San Lucas Tolimán	10	San Lucas Tolimán	3	Marzo	2023-03-14T00:00:00	2024-11-08T17:00:00	7	Dirección del viento	8.05
112191	7	Sololá	713	San Lucas Tolimán	10	San Lucas Tolimán	3	Marzo	2023-03-14T00:00:00	2024-11-08T17:00:00	1	Precipitación	0
112192	7	Sololá	713	San Lucas Tolimán	10	San Lucas Tolimán	3	Marzo	2023-03-14T00:00:00	2024-11-08T17:00:00	8	Radiación solar	161
112193	7	Sololá	713	San Lucas Tolimán	10	San Lucas Tolimán	3	Marzo	2023-03-14T00:00:00	2024-11-08T18:00:00	2	Temperatura media	19.3
112194	7	Sololá	713	San Lucas Tolimán	10	San Lucas Tolimán	3	Marzo	2023-03-14T00:00:00	2024-11-08T18:00:00	4	Temperatura máxima	19.8
112195	7	Sololá	713	San Lucas Tolimán	10	San Lucas Tolimán	3	Marzo	2023-03-14T00:00:00	2024-11-08T18:00:00	3	Temperatura mínima	19.3
112196	7	Sololá	713	San Lucas Tolimán	10	San Lucas Tolimán	3	Marzo	2023-03-14T00:00:00	2024-11-08T18:00:00	5	Humedad	65
112197	7	Sololá	713	San Lucas Tolimán	10	San Lucas Tolimán	3	Marzo	2023-03-14T00:00:00	2024-11-08T18:00:00	6	Velocidad del viento	6.4
112198	7	Sololá	713	San Lucas Tolimán	10	San Lucas Tolimán	3	Marzo	2023-03-14T00:00:00	2024-11-08T18:00:00	7	Dirección del viento	6.44
112199	7	Sololá	713	San Lucas Tolimán	10	San Lucas Tolimán	3	Marzo	2023-03-14T00:00:00	2024-11-08T18:00:00	1	Precipitación	0
112200	7	Sololá	713	San Lucas Tolimán	10	San Lucas Tolimán	3	Marzo	2023-03-14T00:00:00	2024-11-08T18:00:00	8	Radiación solar	50
112201	7	Sololá	713	San Lucas Tolimán	10	San Lucas Tolimán	3	Marzo	2023-03-14T00:00:00	2024-11-08T19:00:00	2	Temperatura media	18.7
112202	7	Sololá	713	San Lucas Tolimán	10	San Lucas Tolimán	3	Marzo	2023-03-14T00:00:00	2024-11-08T19:00:00	4	Temperatura máxima	19.3
112203	7	Sololá	713	San Lucas Tolimán	10	San Lucas Tolimán	3	Marzo	2023-03-14T00:00:00	2024-11-08T19:00:00	3	Temperatura mínima	18.7
112204	7	Sololá	713	San Lucas Tolimán	10	San Lucas Tolimán	3	Marzo	2023-03-14T00:00:00	2024-11-08T19:00:00	5	Humedad	65
112205	7	Sololá	713	San Lucas Tolimán	10	San Lucas Tolimán	3	Marzo	2023-03-14T00:00:00	2024-11-08T19:00:00	6	Velocidad del viento	4.8
112206	7	Sololá	713	San Lucas Tolimán	10	San Lucas Tolimán	3	Marzo	2023-03-14T00:00:00	2024-11-08T19:00:00	7	Dirección del viento	4.83
112207	7	Sololá	713	San Lucas Tolimán	10	San Lucas Tolimán	3	Marzo	2023-03-14T00:00:00	2024-11-08T19:00:00	1	Precipitación	0
112208	7	Sololá	713	San Lucas Tolimán	10	San Lucas Tolimán	3	Marzo	2023-03-14T00:00:00	2024-11-08T19:00:00	8	Radiación solar	0
112209	7	Sololá	713	San Lucas Tolimán	10	San Lucas Tolimán	3	Marzo	2023-03-14T00:00:00	2024-11-08T20:00:00	2	Temperatura media	18
112210	7	Sololá	713	San Lucas Tolimán	10	San Lucas Tolimán	3	Marzo	2023-03-14T00:00:00	2024-11-08T20:00:00	4	Temperatura máxima	18.6
112211	7	Sololá	713	San Lucas Tolimán	10	San Lucas Tolimán	3	Marzo	2023-03-14T00:00:00	2024-11-08T20:00:00	3	Temperatura mínima	17.9
112212	7	Sololá	713	San Lucas Tolimán	10	San Lucas Tolimán	3	Marzo	2023-03-14T00:00:00	2024-11-08T20:00:00	5	Humedad	66
112213	7	Sololá	713	San Lucas Tolimán	10	San Lucas Tolimán	3	Marzo	2023-03-14T00:00:00	2024-11-08T20:00:00	6	Velocidad del viento	4.8
112214	7	Sololá	713	San Lucas Tolimán	10	San Lucas Tolimán	3	Marzo	2023-03-14T00:00:00	2024-11-08T20:00:00	7	Dirección del viento	4.83
112215	7	Sololá	713	San Lucas Tolimán	10	San Lucas Tolimán	3	Marzo	2023-03-14T00:00:00	2024-11-08T20:00:00	1	Precipitación	0
112216	7	Sololá	713	San Lucas Tolimán	10	San Lucas Tolimán	3	Marzo	2023-03-14T00:00:00	2024-11-08T20:00:00	8	Radiación solar	0
112217	7	Sololá	713	San Lucas Tolimán	10	San Lucas Tolimán	3	Marzo	2023-03-14T00:00:00	2024-11-08T21:00:00	2	Temperatura media	18
112218	7	Sololá	713	San Lucas Tolimán	10	San Lucas Tolimán	3	Marzo	2023-03-14T00:00:00	2024-11-08T21:00:00	4	Temperatura máxima	18
112219	7	Sololá	713	San Lucas Tolimán	10	San Lucas Tolimán	3	Marzo	2023-03-14T00:00:00	2024-11-08T21:00:00	3	Temperatura mínima	17.7
112220	7	Sololá	713	San Lucas Tolimán	10	San Lucas Tolimán	3	Marzo	2023-03-14T00:00:00	2024-11-08T21:00:00	5	Humedad	64
112221	7	Sololá	713	San Lucas Tolimán	10	San Lucas Tolimán	3	Marzo	2023-03-14T00:00:00	2024-11-08T21:00:00	6	Velocidad del viento	3.2
112222	7	Sololá	713	San Lucas Tolimán	10	San Lucas Tolimán	3	Marzo	2023-03-14T00:00:00	2024-11-08T21:00:00	7	Dirección del viento	3.22
112223	7	Sololá	713	San Lucas Tolimán	10	San Lucas Tolimán	3	Marzo	2023-03-14T00:00:00	2024-11-08T21:00:00	1	Precipitación	0
112224	7	Sololá	713	San Lucas Tolimán	10	San Lucas Tolimán	3	Marzo	2023-03-14T00:00:00	2024-11-08T21:00:00	8	Radiación solar	0
112225	7	Sololá	713	San Lucas Tolimán	10	San Lucas Tolimán	3	Marzo	2023-03-14T00:00:00	2024-11-08T22:00:00	2	Temperatura media	17
112226	7	Sololá	713	San Lucas Tolimán	10	San Lucas Tolimán	3	Marzo	2023-03-14T00:00:00	2024-11-08T22:00:00	4	Temperatura máxima	18.2
112227	7	Sololá	713	San Lucas Tolimán	10	San Lucas Tolimán	3	Marzo	2023-03-14T00:00:00	2024-11-08T22:00:00	3	Temperatura mínima	17
112228	7	Sololá	713	San Lucas Tolimán	10	San Lucas Tolimán	3	Marzo	2023-03-14T00:00:00	2024-11-08T22:00:00	5	Humedad	67
112229	7	Sololá	713	San Lucas Tolimán	10	San Lucas Tolimán	3	Marzo	2023-03-14T00:00:00	2024-11-08T22:00:00	6	Velocidad del viento	4.8
112230	7	Sololá	713	San Lucas Tolimán	10	San Lucas Tolimán	3	Marzo	2023-03-14T00:00:00	2024-11-08T22:00:00	7	Dirección del viento	4.83
112231	7	Sololá	713	San Lucas Tolimán	10	San Lucas Tolimán	3	Marzo	2023-03-14T00:00:00	2024-11-08T22:00:00	1	Precipitación	0
112232	7	Sololá	713	San Lucas Tolimán	10	San Lucas Tolimán	3	Marzo	2023-03-14T00:00:00	2024-11-08T22:00:00	8	Radiación solar	0
112233	7	Sololá	713	San Lucas Tolimán	10	San Lucas Tolimán	3	Marzo	2023-03-14T00:00:00	2024-11-08T23:00:00	2	Temperatura media	16.5
112234	7	Sololá	713	San Lucas Tolimán	10	San Lucas Tolimán	3	Marzo	2023-03-14T00:00:00	2024-11-08T23:00:00	4	Temperatura máxima	17
112235	7	Sololá	713	San Lucas Tolimán	10	San Lucas Tolimán	3	Marzo	2023-03-14T00:00:00	2024-11-08T23:00:00	3	Temperatura mínima	16.5
112236	7	Sololá	713	San Lucas Tolimán	10	San Lucas Tolimán	3	Marzo	2023-03-14T00:00:00	2024-11-08T23:00:00	5	Humedad	68
112237	7	Sololá	713	San Lucas Tolimán	10	San Lucas Tolimán	3	Marzo	2023-03-14T00:00:00	2024-11-08T23:00:00	6	Velocidad del viento	1.6
112238	7	Sololá	713	San Lucas Tolimán	10	San Lucas Tolimán	3	Marzo	2023-03-14T00:00:00	2024-11-08T23:00:00	7	Dirección del viento	1.61
112239	7	Sololá	713	San Lucas Tolimán	10	San Lucas Tolimán	3	Marzo	2023-03-14T00:00:00	2024-11-08T23:00:00	1	Precipitación	0
112240	7	Sololá	713	San Lucas Tolimán	10	San Lucas Tolimán	3	Marzo	2023-03-14T00:00:00	2024-11-08T23:00:00	8	Radiación solar	0
112241	7	Sololá	713	San Lucas Tolimán	10	San Lucas Tolimán	3	Marzo	2023-03-15T00:00:00	2024-11-08T00:00:00	2	Temperatura media	17.2
112242	7	Sololá	713	San Lucas Tolimán	10	San Lucas Tolimán	3	Marzo	2023-03-15T00:00:00	2024-11-08T00:00:00	4	Temperatura máxima	17.4
112243	7	Sololá	713	San Lucas Tolimán	10	San Lucas Tolimán	3	Marzo	2023-03-15T00:00:00	2024-11-08T00:00:00	3	Temperatura mínima	16.5
112244	7	Sololá	713	San Lucas Tolimán	10	San Lucas Tolimán	3	Marzo	2023-03-15T00:00:00	2024-11-08T00:00:00	5	Humedad	65
112245	7	Sololá	713	San Lucas Tolimán	10	San Lucas Tolimán	3	Marzo	2023-03-15T00:00:00	2024-11-08T00:00:00	6	Velocidad del viento	3.2
112246	7	Sololá	713	San Lucas Tolimán	10	San Lucas Tolimán	3	Marzo	2023-03-15T00:00:00	2024-11-08T00:00:00	7	Dirección del viento	3.22
112247	7	Sololá	713	San Lucas Tolimán	10	San Lucas Tolimán	3	Marzo	2023-03-15T00:00:00	2024-11-08T00:00:00	1	Precipitación	0
112248	7	Sololá	713	San Lucas Tolimán	10	San Lucas Tolimán	3	Marzo	2023-03-15T00:00:00	2024-11-08T00:00:00	8	Radiación solar	0
112249	7	Sololá	713	San Lucas Tolimán	10	San Lucas Tolimán	3	Marzo	2023-03-15T00:00:00	2024-11-08T01:00:00	2	Temperatura media	15.9
112250	7	Sololá	713	San Lucas Tolimán	10	San Lucas Tolimán	3	Marzo	2023-03-15T00:00:00	2024-11-08T01:00:00	4	Temperatura máxima	17.2
112251	7	Sololá	713	San Lucas Tolimán	10	San Lucas Tolimán	3	Marzo	2023-03-15T00:00:00	2024-11-08T01:00:00	3	Temperatura mínima	15.9
112252	7	Sololá	713	San Lucas Tolimán	10	San Lucas Tolimán	3	Marzo	2023-03-15T00:00:00	2024-11-08T01:00:00	5	Humedad	66
112253	7	Sololá	713	San Lucas Tolimán	10	San Lucas Tolimán	3	Marzo	2023-03-15T00:00:00	2024-11-08T01:00:00	6	Velocidad del viento	3.2
112254	7	Sololá	713	San Lucas Tolimán	10	San Lucas Tolimán	3	Marzo	2023-03-15T00:00:00	2024-11-08T01:00:00	7	Dirección del viento	3.22
112255	7	Sololá	713	San Lucas Tolimán	10	San Lucas Tolimán	3	Marzo	2023-03-15T00:00:00	2024-11-08T01:00:00	1	Precipitación	0
112256	7	Sololá	713	San Lucas Tolimán	10	San Lucas Tolimán	3	Marzo	2023-03-15T00:00:00	2024-11-08T01:00:00	8	Radiación solar	0
112257	7	Sololá	713	San Lucas Tolimán	10	San Lucas Tolimán	3	Marzo	2023-03-15T00:00:00	2024-11-08T02:00:00	2	Temperatura media	15.9
112258	7	Sololá	713	San Lucas Tolimán	10	San Lucas Tolimán	3	Marzo	2023-03-15T00:00:00	2024-11-08T02:00:00	4	Temperatura máxima	15.9
112259	7	Sololá	713	San Lucas Tolimán	10	San Lucas Tolimán	3	Marzo	2023-03-15T00:00:00	2024-11-08T02:00:00	3	Temperatura mínima	15.6
112260	7	Sololá	713	San Lucas Tolimán	10	San Lucas Tolimán	3	Marzo	2023-03-15T00:00:00	2024-11-08T02:00:00	5	Humedad	66
112261	7	Sololá	713	San Lucas Tolimán	10	San Lucas Tolimán	3	Marzo	2023-03-15T00:00:00	2024-11-08T02:00:00	6	Velocidad del viento	0
112262	7	Sololá	713	San Lucas Tolimán	10	San Lucas Tolimán	3	Marzo	2023-03-15T00:00:00	2024-11-08T02:00:00	7	Dirección del viento	0
112263	7	Sololá	713	San Lucas Tolimán	10	San Lucas Tolimán	3	Marzo	2023-03-15T00:00:00	2024-11-08T02:00:00	1	Precipitación	0
112264	7	Sololá	713	San Lucas Tolimán	10	San Lucas Tolimán	3	Marzo	2023-03-15T00:00:00	2024-11-08T02:00:00	8	Radiación solar	0
112265	7	Sololá	713	San Lucas Tolimán	10	San Lucas Tolimán	3	Marzo	2023-03-15T00:00:00	2024-11-08T03:00:00	2	Temperatura media	15.7
112266	7	Sololá	713	San Lucas Tolimán	10	San Lucas Tolimán	3	Marzo	2023-03-15T00:00:00	2024-11-08T03:00:00	4	Temperatura máxima	16.2
112267	7	Sololá	713	San Lucas Tolimán	10	San Lucas Tolimán	3	Marzo	2023-03-15T00:00:00	2024-11-08T03:00:00	3	Temperatura mínima	15.6
112268	7	Sololá	713	San Lucas Tolimán	10	San Lucas Tolimán	3	Marzo	2023-03-15T00:00:00	2024-11-08T03:00:00	5	Humedad	65
112269	7	Sololá	713	San Lucas Tolimán	10	San Lucas Tolimán	3	Marzo	2023-03-15T00:00:00	2024-11-08T03:00:00	6	Velocidad del viento	1.6
112270	7	Sololá	713	San Lucas Tolimán	10	San Lucas Tolimán	3	Marzo	2023-03-15T00:00:00	2024-11-08T03:00:00	7	Dirección del viento	1.61
112271	7	Sololá	713	San Lucas Tolimán	10	San Lucas Tolimán	3	Marzo	2023-03-15T00:00:00	2024-11-08T03:00:00	1	Precipitación	0
112272	7	Sololá	713	San Lucas Tolimán	10	San Lucas Tolimán	3	Marzo	2023-03-15T00:00:00	2024-11-08T03:00:00	8	Radiación solar	0
112273	7	Sololá	713	San Lucas Tolimán	10	San Lucas Tolimán	3	Marzo	2023-03-15T00:00:00	2024-11-08T04:00:00	2	Temperatura media	15.2
112274	7	Sololá	713	San Lucas Tolimán	10	San Lucas Tolimán	3	Marzo	2023-03-15T00:00:00	2024-11-08T04:00:00	4	Temperatura máxima	15.8
112275	7	Sololá	713	San Lucas Tolimán	10	San Lucas Tolimán	3	Marzo	2023-03-15T00:00:00	2024-11-08T04:00:00	3	Temperatura mínima	15.2
112276	7	Sololá	713	San Lucas Tolimán	10	San Lucas Tolimán	3	Marzo	2023-03-15T00:00:00	2024-11-08T04:00:00	5	Humedad	64
112277	7	Sololá	713	San Lucas Tolimán	10	San Lucas Tolimán	3	Marzo	2023-03-15T00:00:00	2024-11-08T04:00:00	6	Velocidad del viento	0
112278	7	Sololá	713	San Lucas Tolimán	10	San Lucas Tolimán	3	Marzo	2023-03-15T00:00:00	2024-11-08T04:00:00	7	Dirección del viento	0
112279	7	Sololá	713	San Lucas Tolimán	10	San Lucas Tolimán	3	Marzo	2023-03-15T00:00:00	2024-11-08T04:00:00	1	Precipitación	0
112280	7	Sololá	713	San Lucas Tolimán	10	San Lucas Tolimán	3	Marzo	2023-03-15T00:00:00	2024-11-08T04:00:00	8	Radiación solar	0
112281	7	Sololá	713	San Lucas Tolimán	10	San Lucas Tolimán	3	Marzo	2023-03-15T00:00:00	2024-11-08T05:00:00	2	Temperatura media	15.4
112282	7	Sololá	713	San Lucas Tolimán	10	San Lucas Tolimán	3	Marzo	2023-03-15T00:00:00	2024-11-08T05:00:00	4	Temperatura máxima	15.8
112283	7	Sololá	713	San Lucas Tolimán	10	San Lucas Tolimán	3	Marzo	2023-03-15T00:00:00	2024-11-08T05:00:00	3	Temperatura mínima	15.1
112284	7	Sololá	713	San Lucas Tolimán	10	San Lucas Tolimán	3	Marzo	2023-03-15T00:00:00	2024-11-08T05:00:00	5	Humedad	65
112285	7	Sololá	713	San Lucas Tolimán	10	San Lucas Tolimán	3	Marzo	2023-03-15T00:00:00	2024-11-08T05:00:00	6	Velocidad del viento	1.6
112286	7	Sololá	713	San Lucas Tolimán	10	San Lucas Tolimán	3	Marzo	2023-03-15T00:00:00	2024-11-08T05:00:00	7	Dirección del viento	1.61
112287	7	Sololá	713	San Lucas Tolimán	10	San Lucas Tolimán	3	Marzo	2023-03-15T00:00:00	2024-11-08T05:00:00	1	Precipitación	0
112288	7	Sololá	713	San Lucas Tolimán	10	San Lucas Tolimán	3	Marzo	2023-03-15T00:00:00	2024-11-08T05:00:00	8	Radiación solar	0
112289	7	Sololá	713	San Lucas Tolimán	10	San Lucas Tolimán	3	Marzo	2023-03-15T00:00:00	2024-11-08T06:00:00	2	Temperatura media	15.3
112290	7	Sololá	713	San Lucas Tolimán	10	San Lucas Tolimán	3	Marzo	2023-03-15T00:00:00	2024-11-08T06:00:00	4	Temperatura máxima	15.4
112291	7	Sololá	713	San Lucas Tolimán	10	San Lucas Tolimán	3	Marzo	2023-03-15T00:00:00	2024-11-08T06:00:00	3	Temperatura mínima	15.1
112292	7	Sololá	713	San Lucas Tolimán	10	San Lucas Tolimán	3	Marzo	2023-03-15T00:00:00	2024-11-08T06:00:00	5	Humedad	65
112293	7	Sololá	713	San Lucas Tolimán	10	San Lucas Tolimán	3	Marzo	2023-03-15T00:00:00	2024-11-08T06:00:00	6	Velocidad del viento	0
112294	7	Sololá	713	San Lucas Tolimán	10	San Lucas Tolimán	3	Marzo	2023-03-15T00:00:00	2024-11-08T06:00:00	7	Dirección del viento	0
112295	7	Sololá	713	San Lucas Tolimán	10	San Lucas Tolimán	3	Marzo	2023-03-15T00:00:00	2024-11-08T06:00:00	1	Precipitación	0
112296	7	Sololá	713	San Lucas Tolimán	10	San Lucas Tolimán	3	Marzo	2023-03-15T00:00:00	2024-11-08T06:00:00	8	Radiación solar	0
112297	7	Sololá	713	San Lucas Tolimán	10	San Lucas Tolimán	3	Marzo	2023-03-15T00:00:00	2024-11-08T07:00:00	2	Temperatura media	15.6
112298	7	Sololá	713	San Lucas Tolimán	10	San Lucas Tolimán	3	Marzo	2023-03-15T00:00:00	2024-11-08T07:00:00	4	Temperatura máxima	15.6
112299	7	Sololá	713	San Lucas Tolimán	10	San Lucas Tolimán	3	Marzo	2023-03-15T00:00:00	2024-11-08T07:00:00	3	Temperatura mínima	15.2
112300	7	Sololá	713	San Lucas Tolimán	10	San Lucas Tolimán	3	Marzo	2023-03-15T00:00:00	2024-11-08T07:00:00	5	Humedad	65
112301	7	Sololá	713	San Lucas Tolimán	10	San Lucas Tolimán	3	Marzo	2023-03-15T00:00:00	2024-11-08T07:00:00	6	Velocidad del viento	1.6
112302	7	Sololá	713	San Lucas Tolimán	10	San Lucas Tolimán	3	Marzo	2023-03-15T00:00:00	2024-11-08T07:00:00	7	Dirección del viento	1.61
112303	7	Sololá	713	San Lucas Tolimán	10	San Lucas Tolimán	3	Marzo	2023-03-15T00:00:00	2024-11-08T07:00:00	1	Precipitación	0
112304	7	Sololá	713	San Lucas Tolimán	10	San Lucas Tolimán	3	Marzo	2023-03-15T00:00:00	2024-11-08T07:00:00	8	Radiación solar	15
112305	7	Sololá	713	San Lucas Tolimán	10	San Lucas Tolimán	3	Marzo	2023-03-15T00:00:00	2024-11-08T08:00:00	2	Temperatura media	18.9
112306	7	Sololá	713	San Lucas Tolimán	10	San Lucas Tolimán	3	Marzo	2023-03-15T00:00:00	2024-11-08T08:00:00	4	Temperatura máxima	18.9
112307	7	Sololá	713	San Lucas Tolimán	10	San Lucas Tolimán	3	Marzo	2023-03-15T00:00:00	2024-11-08T08:00:00	3	Temperatura mínima	15.6
112308	7	Sololá	713	San Lucas Tolimán	10	San Lucas Tolimán	3	Marzo	2023-03-15T00:00:00	2024-11-08T08:00:00	5	Humedad	56
112309	7	Sololá	713	San Lucas Tolimán	10	San Lucas Tolimán	3	Marzo	2023-03-15T00:00:00	2024-11-08T08:00:00	6	Velocidad del viento	4.8
112310	7	Sololá	713	San Lucas Tolimán	10	San Lucas Tolimán	3	Marzo	2023-03-15T00:00:00	2024-11-08T08:00:00	7	Dirección del viento	4.83
112311	7	Sololá	713	San Lucas Tolimán	10	San Lucas Tolimán	3	Marzo	2023-03-15T00:00:00	2024-11-08T08:00:00	1	Precipitación	0
112312	7	Sololá	713	San Lucas Tolimán	10	San Lucas Tolimán	3	Marzo	2023-03-15T00:00:00	2024-11-08T08:00:00	8	Radiación solar	189
112313	7	Sololá	713	San Lucas Tolimán	10	San Lucas Tolimán	3	Marzo	2023-03-15T00:00:00	2024-11-08T09:00:00	2	Temperatura media	21
112314	7	Sololá	713	San Lucas Tolimán	10	San Lucas Tolimán	3	Marzo	2023-03-15T00:00:00	2024-11-08T09:00:00	4	Temperatura máxima	21.2
112315	7	Sololá	713	San Lucas Tolimán	10	San Lucas Tolimán	3	Marzo	2023-03-15T00:00:00	2024-11-08T09:00:00	3	Temperatura mínima	18.9
112316	7	Sololá	713	San Lucas Tolimán	10	San Lucas Tolimán	3	Marzo	2023-03-15T00:00:00	2024-11-08T09:00:00	5	Humedad	48
112317	7	Sololá	713	San Lucas Tolimán	10	San Lucas Tolimán	3	Marzo	2023-03-15T00:00:00	2024-11-08T09:00:00	6	Velocidad del viento	6.4
112318	7	Sololá	713	San Lucas Tolimán	10	San Lucas Tolimán	3	Marzo	2023-03-15T00:00:00	2024-11-08T09:00:00	7	Dirección del viento	6.44
112319	7	Sololá	713	San Lucas Tolimán	10	San Lucas Tolimán	3	Marzo	2023-03-15T00:00:00	2024-11-08T09:00:00	1	Precipitación	0
112320	7	Sololá	713	San Lucas Tolimán	10	San Lucas Tolimán	3	Marzo	2023-03-15T00:00:00	2024-11-08T09:00:00	8	Radiación solar	516
112321	7	Sololá	713	San Lucas Tolimán	10	San Lucas Tolimán	3	Marzo	2023-03-15T00:00:00	2024-11-08T10:00:00	2	Temperatura media	22.1
112322	7	Sololá	713	San Lucas Tolimán	10	San Lucas Tolimán	3	Marzo	2023-03-15T00:00:00	2024-11-08T10:00:00	4	Temperatura máxima	22.1
112323	7	Sololá	713	San Lucas Tolimán	10	San Lucas Tolimán	3	Marzo	2023-03-15T00:00:00	2024-11-08T10:00:00	3	Temperatura mínima	20.9
112324	7	Sololá	713	San Lucas Tolimán	10	San Lucas Tolimán	3	Marzo	2023-03-15T00:00:00	2024-11-08T10:00:00	5	Humedad	45
112325	7	Sololá	713	San Lucas Tolimán	10	San Lucas Tolimán	3	Marzo	2023-03-15T00:00:00	2024-11-08T10:00:00	6	Velocidad del viento	4.8
112326	7	Sololá	713	San Lucas Tolimán	10	San Lucas Tolimán	3	Marzo	2023-03-15T00:00:00	2024-11-08T10:00:00	7	Dirección del viento	4.83
112327	7	Sololá	713	San Lucas Tolimán	10	San Lucas Tolimán	3	Marzo	2023-03-15T00:00:00	2024-11-08T10:00:00	1	Precipitación	0
112328	7	Sololá	713	San Lucas Tolimán	10	San Lucas Tolimán	3	Marzo	2023-03-15T00:00:00	2024-11-08T10:00:00	8	Radiación solar	419
112329	7	Sololá	713	San Lucas Tolimán	10	San Lucas Tolimán	3	Marzo	2023-03-15T00:00:00	2024-11-08T11:00:00	2	Temperatura media	22.9
112330	7	Sololá	713	San Lucas Tolimán	10	San Lucas Tolimán	3	Marzo	2023-03-15T00:00:00	2024-11-08T11:00:00	4	Temperatura máxima	24.8
112331	7	Sololá	713	San Lucas Tolimán	10	San Lucas Tolimán	3	Marzo	2023-03-15T00:00:00	2024-11-08T11:00:00	3	Temperatura mínima	22.1
112332	7	Sololá	713	San Lucas Tolimán	10	San Lucas Tolimán	3	Marzo	2023-03-15T00:00:00	2024-11-08T11:00:00	5	Humedad	56
112333	7	Sololá	713	San Lucas Tolimán	10	San Lucas Tolimán	3	Marzo	2023-03-15T00:00:00	2024-11-08T11:00:00	6	Velocidad del viento	4.8
112334	7	Sololá	713	San Lucas Tolimán	10	San Lucas Tolimán	3	Marzo	2023-03-15T00:00:00	2024-11-08T11:00:00	7	Dirección del viento	4.83
112335	7	Sololá	713	San Lucas Tolimán	10	San Lucas Tolimán	3	Marzo	2023-03-15T00:00:00	2024-11-08T11:00:00	1	Precipitación	0
112336	7	Sololá	713	San Lucas Tolimán	10	San Lucas Tolimán	3	Marzo	2023-03-15T00:00:00	2024-11-08T11:00:00	8	Radiación solar	771
112337	7	Sololá	713	San Lucas Tolimán	10	San Lucas Tolimán	3	Marzo	2023-03-15T00:00:00	2024-11-08T12:00:00	2	Temperatura media	22.7
112338	7	Sololá	713	San Lucas Tolimán	10	San Lucas Tolimán	3	Marzo	2023-03-15T00:00:00	2024-11-08T12:00:00	4	Temperatura máxima	24
112339	7	Sololá	713	San Lucas Tolimán	10	San Lucas Tolimán	3	Marzo	2023-03-15T00:00:00	2024-11-08T12:00:00	3	Temperatura mínima	22.7
112340	7	Sololá	713	San Lucas Tolimán	10	San Lucas Tolimán	3	Marzo	2023-03-15T00:00:00	2024-11-08T12:00:00	5	Humedad	58
112341	7	Sololá	713	San Lucas Tolimán	10	San Lucas Tolimán	3	Marzo	2023-03-15T00:00:00	2024-11-08T12:00:00	6	Velocidad del viento	11.3
112342	7	Sololá	713	San Lucas Tolimán	10	San Lucas Tolimán	3	Marzo	2023-03-15T00:00:00	2024-11-08T12:00:00	7	Dirección del viento	11.27
112343	7	Sololá	713	San Lucas Tolimán	10	San Lucas Tolimán	3	Marzo	2023-03-15T00:00:00	2024-11-08T12:00:00	1	Precipitación	0
112344	7	Sololá	713	San Lucas Tolimán	10	San Lucas Tolimán	3	Marzo	2023-03-15T00:00:00	2024-11-08T12:00:00	8	Radiación solar	1125
112345	7	Sololá	713	San Lucas Tolimán	10	San Lucas Tolimán	3	Marzo	2023-03-15T00:00:00	2024-11-08T13:00:00	2	Temperatura media	23.1
112346	7	Sololá	713	San Lucas Tolimán	10	San Lucas Tolimán	3	Marzo	2023-03-15T00:00:00	2024-11-08T13:00:00	4	Temperatura máxima	23.9
112347	7	Sololá	713	San Lucas Tolimán	10	San Lucas Tolimán	3	Marzo	2023-03-15T00:00:00	2024-11-08T13:00:00	3	Temperatura mínima	22.7
112348	7	Sololá	713	San Lucas Tolimán	10	San Lucas Tolimán	3	Marzo	2023-03-15T00:00:00	2024-11-08T13:00:00	5	Humedad	58
112349	7	Sololá	713	San Lucas Tolimán	10	San Lucas Tolimán	3	Marzo	2023-03-15T00:00:00	2024-11-08T13:00:00	6	Velocidad del viento	14.5
112350	7	Sololá	713	San Lucas Tolimán	10	San Lucas Tolimán	3	Marzo	2023-03-15T00:00:00	2024-11-08T13:00:00	7	Dirección del viento	14.48
112351	7	Sololá	713	San Lucas Tolimán	10	San Lucas Tolimán	3	Marzo	2023-03-15T00:00:00	2024-11-08T13:00:00	1	Precipitación	0
112352	7	Sololá	713	San Lucas Tolimán	10	San Lucas Tolimán	3	Marzo	2023-03-15T00:00:00	2024-11-08T13:00:00	8	Radiación solar	1134
112353	7	Sololá	713	San Lucas Tolimán	10	San Lucas Tolimán	3	Marzo	2023-03-15T00:00:00	2024-11-08T14:00:00	2	Temperatura media	21.8
112354	7	Sololá	713	San Lucas Tolimán	10	San Lucas Tolimán	3	Marzo	2023-03-15T00:00:00	2024-11-08T14:00:00	4	Temperatura máxima	23.6
112355	7	Sololá	713	San Lucas Tolimán	10	San Lucas Tolimán	3	Marzo	2023-03-15T00:00:00	2024-11-08T14:00:00	3	Temperatura mínima	21.8
112356	7	Sololá	713	San Lucas Tolimán	10	San Lucas Tolimán	3	Marzo	2023-03-15T00:00:00	2024-11-08T14:00:00	5	Humedad	61
112357	7	Sololá	713	San Lucas Tolimán	10	San Lucas Tolimán	3	Marzo	2023-03-15T00:00:00	2024-11-08T14:00:00	6	Velocidad del viento	12.9
112358	7	Sololá	713	San Lucas Tolimán	10	San Lucas Tolimán	3	Marzo	2023-03-15T00:00:00	2024-11-08T14:00:00	7	Dirección del viento	12.87
112359	7	Sololá	713	San Lucas Tolimán	10	San Lucas Tolimán	3	Marzo	2023-03-15T00:00:00	2024-11-08T14:00:00	1	Precipitación	0
112360	7	Sololá	713	San Lucas Tolimán	10	San Lucas Tolimán	3	Marzo	2023-03-15T00:00:00	2024-11-08T14:00:00	8	Radiación solar	775
112361	7	Sololá	713	San Lucas Tolimán	10	San Lucas Tolimán	3	Marzo	2023-03-15T00:00:00	2024-11-08T15:00:00	2	Temperatura media	20.8
112362	7	Sololá	713	San Lucas Tolimán	10	San Lucas Tolimán	3	Marzo	2023-03-15T00:00:00	2024-11-08T15:00:00	4	Temperatura máxima	21.8
112363	7	Sololá	713	San Lucas Tolimán	10	San Lucas Tolimán	3	Marzo	2023-03-15T00:00:00	2024-11-08T15:00:00	3	Temperatura mínima	20.4
112364	7	Sololá	713	San Lucas Tolimán	10	San Lucas Tolimán	3	Marzo	2023-03-15T00:00:00	2024-11-08T15:00:00	5	Humedad	60
112365	7	Sololá	713	San Lucas Tolimán	10	San Lucas Tolimán	3	Marzo	2023-03-15T00:00:00	2024-11-08T15:00:00	6	Velocidad del viento	8
112366	7	Sololá	713	San Lucas Tolimán	10	San Lucas Tolimán	3	Marzo	2023-03-15T00:00:00	2024-11-08T15:00:00	7	Dirección del viento	8.05
112367	7	Sololá	713	San Lucas Tolimán	10	San Lucas Tolimán	3	Marzo	2023-03-15T00:00:00	2024-11-08T15:00:00	1	Precipitación	0
112368	7	Sololá	713	San Lucas Tolimán	10	San Lucas Tolimán	3	Marzo	2023-03-15T00:00:00	2024-11-08T15:00:00	8	Radiación solar	349
112369	7	Sololá	713	San Lucas Tolimán	10	San Lucas Tolimán	3	Marzo	2023-03-15T00:00:00	2024-11-08T16:00:00	2	Temperatura media	19.9
112370	7	Sololá	713	San Lucas Tolimán	10	San Lucas Tolimán	3	Marzo	2023-03-15T00:00:00	2024-11-08T16:00:00	4	Temperatura máxima	21.1
112371	7	Sololá	713	San Lucas Tolimán	10	San Lucas Tolimán	3	Marzo	2023-03-15T00:00:00	2024-11-08T16:00:00	3	Temperatura mínima	19.7
112372	7	Sololá	713	San Lucas Tolimán	10	San Lucas Tolimán	3	Marzo	2023-03-15T00:00:00	2024-11-08T16:00:00	5	Humedad	62
112373	7	Sololá	713	San Lucas Tolimán	10	San Lucas Tolimán	3	Marzo	2023-03-15T00:00:00	2024-11-08T16:00:00	6	Velocidad del viento	8
112374	7	Sololá	713	San Lucas Tolimán	10	San Lucas Tolimán	3	Marzo	2023-03-15T00:00:00	2024-11-08T16:00:00	7	Dirección del viento	8.05
112375	7	Sololá	713	San Lucas Tolimán	10	San Lucas Tolimán	3	Marzo	2023-03-15T00:00:00	2024-11-08T16:00:00	1	Precipitación	0.6
112376	7	Sololá	713	San Lucas Tolimán	10	San Lucas Tolimán	3	Marzo	2023-03-15T00:00:00	2024-11-08T16:00:00	8	Radiación solar	157
112377	7	Sololá	713	San Lucas Tolimán	10	San Lucas Tolimán	3	Marzo	2023-03-15T00:00:00	2024-11-08T17:00:00	2	Temperatura media	18
112378	7	Sololá	713	San Lucas Tolimán	10	San Lucas Tolimán	3	Marzo	2023-03-15T00:00:00	2024-11-08T17:00:00	4	Temperatura máxima	19.9
112379	7	Sololá	713	San Lucas Tolimán	10	San Lucas Tolimán	3	Marzo	2023-03-15T00:00:00	2024-11-08T17:00:00	3	Temperatura mínima	18
112380	7	Sololá	713	San Lucas Tolimán	10	San Lucas Tolimán	3	Marzo	2023-03-15T00:00:00	2024-11-08T17:00:00	5	Humedad	62
112381	7	Sololá	713	San Lucas Tolimán	10	San Lucas Tolimán	3	Marzo	2023-03-15T00:00:00	2024-11-08T17:00:00	6	Velocidad del viento	3.2
112382	7	Sololá	713	San Lucas Tolimán	10	San Lucas Tolimán	3	Marzo	2023-03-15T00:00:00	2024-11-08T17:00:00	7	Dirección del viento	3.22
112383	7	Sololá	713	San Lucas Tolimán	10	San Lucas Tolimán	3	Marzo	2023-03-15T00:00:00	2024-11-08T17:00:00	1	Precipitación	0.4
112384	7	Sololá	713	San Lucas Tolimán	10	San Lucas Tolimán	3	Marzo	2023-03-15T00:00:00	2024-11-08T17:00:00	8	Radiación solar	15
112385	7	Sololá	713	San Lucas Tolimán	10	San Lucas Tolimán	3	Marzo	2023-03-15T00:00:00	2024-11-08T18:00:00	2	Temperatura media	17.9
112386	7	Sololá	713	San Lucas Tolimán	10	San Lucas Tolimán	3	Marzo	2023-03-15T00:00:00	2024-11-08T18:00:00	4	Temperatura máxima	18
112387	7	Sololá	713	San Lucas Tolimán	10	San Lucas Tolimán	3	Marzo	2023-03-15T00:00:00	2024-11-08T18:00:00	3	Temperatura mínima	17.7
112388	7	Sololá	713	San Lucas Tolimán	10	San Lucas Tolimán	3	Marzo	2023-03-15T00:00:00	2024-11-08T18:00:00	5	Humedad	61
112389	7	Sololá	713	San Lucas Tolimán	10	San Lucas Tolimán	3	Marzo	2023-03-15T00:00:00	2024-11-08T18:00:00	6	Velocidad del viento	3.2
112390	7	Sololá	713	San Lucas Tolimán	10	San Lucas Tolimán	3	Marzo	2023-03-15T00:00:00	2024-11-08T18:00:00	7	Dirección del viento	3.22
112391	7	Sololá	713	San Lucas Tolimán	10	San Lucas Tolimán	3	Marzo	2023-03-15T00:00:00	2024-11-08T18:00:00	1	Precipitación	1.8
112392	7	Sololá	713	San Lucas Tolimán	10	San Lucas Tolimán	3	Marzo	2023-03-15T00:00:00	2024-11-08T18:00:00	8	Radiación solar	14
112393	7	Sololá	713	San Lucas Tolimán	10	San Lucas Tolimán	3	Marzo	2023-03-15T00:00:00	2024-11-08T19:00:00	2	Temperatura media	17.1
112394	7	Sololá	713	San Lucas Tolimán	10	San Lucas Tolimán	3	Marzo	2023-03-15T00:00:00	2024-11-08T19:00:00	4	Temperatura máxima	18.1
112395	7	Sololá	713	San Lucas Tolimán	10	San Lucas Tolimán	3	Marzo	2023-03-15T00:00:00	2024-11-08T19:00:00	3	Temperatura mínima	17
112396	7	Sololá	713	San Lucas Tolimán	10	San Lucas Tolimán	3	Marzo	2023-03-15T00:00:00	2024-11-08T19:00:00	5	Humedad	62
112397	7	Sololá	713	San Lucas Tolimán	10	San Lucas Tolimán	3	Marzo	2023-03-15T00:00:00	2024-11-08T19:00:00	6	Velocidad del viento	6.4
112398	7	Sololá	713	San Lucas Tolimán	10	San Lucas Tolimán	3	Marzo	2023-03-15T00:00:00	2024-11-08T19:00:00	7	Dirección del viento	6.44
112399	7	Sololá	713	San Lucas Tolimán	10	San Lucas Tolimán	3	Marzo	2023-03-15T00:00:00	2024-11-08T19:00:00	1	Precipitación	0.8
112400	7	Sololá	713	San Lucas Tolimán	10	San Lucas Tolimán	3	Marzo	2023-03-15T00:00:00	2024-11-08T19:00:00	8	Radiación solar	0
112401	7	Sololá	713	San Lucas Tolimán	10	San Lucas Tolimán	3	Marzo	2023-03-15T00:00:00	2024-11-08T20:00:00	2	Temperatura media	16.5
112402	7	Sololá	713	San Lucas Tolimán	10	San Lucas Tolimán	3	Marzo	2023-03-15T00:00:00	2024-11-08T20:00:00	4	Temperatura máxima	17.2
112403	7	Sololá	713	San Lucas Tolimán	10	San Lucas Tolimán	3	Marzo	2023-03-15T00:00:00	2024-11-08T20:00:00	3	Temperatura mínima	16.3
112404	7	Sololá	713	San Lucas Tolimán	10	San Lucas Tolimán	3	Marzo	2023-03-15T00:00:00	2024-11-08T20:00:00	5	Humedad	62
112405	7	Sololá	713	San Lucas Tolimán	10	San Lucas Tolimán	3	Marzo	2023-03-15T00:00:00	2024-11-08T20:00:00	6	Velocidad del viento	3.2
112406	7	Sololá	713	San Lucas Tolimán	10	San Lucas Tolimán	3	Marzo	2023-03-15T00:00:00	2024-11-08T20:00:00	7	Dirección del viento	3.22
112407	7	Sololá	713	San Lucas Tolimán	10	San Lucas Tolimán	3	Marzo	2023-03-15T00:00:00	2024-11-08T20:00:00	1	Precipitación	0
112408	7	Sololá	713	San Lucas Tolimán	10	San Lucas Tolimán	3	Marzo	2023-03-15T00:00:00	2024-11-08T20:00:00	8	Radiación solar	0
112409	7	Sololá	713	San Lucas Tolimán	10	San Lucas Tolimán	3	Marzo	2023-03-15T00:00:00	2024-11-08T21:00:00	2	Temperatura media	16.3
112410	7	Sololá	713	San Lucas Tolimán	10	San Lucas Tolimán	3	Marzo	2023-03-15T00:00:00	2024-11-08T21:00:00	4	Temperatura máxima	16.7
112411	7	Sololá	713	San Lucas Tolimán	10	San Lucas Tolimán	3	Marzo	2023-03-15T00:00:00	2024-11-08T21:00:00	3	Temperatura mínima	16.3
112412	7	Sololá	713	San Lucas Tolimán	10	San Lucas Tolimán	3	Marzo	2023-03-15T00:00:00	2024-11-08T21:00:00	5	Humedad	61
112413	7	Sololá	713	San Lucas Tolimán	10	San Lucas Tolimán	3	Marzo	2023-03-15T00:00:00	2024-11-08T21:00:00	6	Velocidad del viento	1.6
112414	7	Sololá	713	San Lucas Tolimán	10	San Lucas Tolimán	3	Marzo	2023-03-15T00:00:00	2024-11-08T21:00:00	7	Dirección del viento	1.61
112415	7	Sololá	713	San Lucas Tolimán	10	San Lucas Tolimán	3	Marzo	2023-03-15T00:00:00	2024-11-08T21:00:00	1	Precipitación	0
112416	7	Sololá	713	San Lucas Tolimán	10	San Lucas Tolimán	3	Marzo	2023-03-15T00:00:00	2024-11-08T21:00:00	8	Radiación solar	0
112417	7	Sololá	713	San Lucas Tolimán	10	San Lucas Tolimán	3	Marzo	2023-03-15T00:00:00	2024-11-08T22:00:00	2	Temperatura media	16
112418	7	Sololá	713	San Lucas Tolimán	10	San Lucas Tolimán	3	Marzo	2023-03-15T00:00:00	2024-11-08T22:00:00	4	Temperatura máxima	16.3
112419	7	Sololá	713	San Lucas Tolimán	10	San Lucas Tolimán	3	Marzo	2023-03-15T00:00:00	2024-11-08T22:00:00	3	Temperatura mínima	15.9
112420	7	Sololá	713	San Lucas Tolimán	10	San Lucas Tolimán	3	Marzo	2023-03-15T00:00:00	2024-11-08T22:00:00	5	Humedad	59
112421	7	Sololá	713	San Lucas Tolimán	10	San Lucas Tolimán	3	Marzo	2023-03-15T00:00:00	2024-11-08T22:00:00	6	Velocidad del viento	3.2
112422	7	Sololá	713	San Lucas Tolimán	10	San Lucas Tolimán	3	Marzo	2023-03-15T00:00:00	2024-11-08T22:00:00	7	Dirección del viento	3.22
112423	7	Sololá	713	San Lucas Tolimán	10	San Lucas Tolimán	3	Marzo	2023-03-15T00:00:00	2024-11-08T22:00:00	1	Precipitación	0
112424	7	Sololá	713	San Lucas Tolimán	10	San Lucas Tolimán	3	Marzo	2023-03-15T00:00:00	2024-11-08T22:00:00	8	Radiación solar	0
112425	7	Sololá	713	San Lucas Tolimán	10	San Lucas Tolimán	3	Marzo	2023-03-15T00:00:00	2024-11-08T23:00:00	2	Temperatura media	15.8
112426	7	Sololá	713	San Lucas Tolimán	10	San Lucas Tolimán	3	Marzo	2023-03-15T00:00:00	2024-11-08T23:00:00	4	Temperatura máxima	16.3
112427	7	Sololá	713	San Lucas Tolimán	10	San Lucas Tolimán	3	Marzo	2023-03-15T00:00:00	2024-11-08T23:00:00	3	Temperatura mínima	15.7
112428	7	Sololá	713	San Lucas Tolimán	10	San Lucas Tolimán	3	Marzo	2023-03-15T00:00:00	2024-11-08T23:00:00	5	Humedad	61
112429	7	Sololá	713	San Lucas Tolimán	10	San Lucas Tolimán	3	Marzo	2023-03-15T00:00:00	2024-11-08T23:00:00	6	Velocidad del viento	4.8
112430	7	Sololá	713	San Lucas Tolimán	10	San Lucas Tolimán	3	Marzo	2023-03-15T00:00:00	2024-11-08T23:00:00	7	Dirección del viento	4.83
112431	7	Sololá	713	San Lucas Tolimán	10	San Lucas Tolimán	3	Marzo	2023-03-15T00:00:00	2024-11-08T23:00:00	1	Precipitación	0
112432	7	Sololá	713	San Lucas Tolimán	10	San Lucas Tolimán	3	Marzo	2023-03-15T00:00:00	2024-11-08T23:00:00	8	Radiación solar	0
112433	7	Sololá	713	San Lucas Tolimán	10	San Lucas Tolimán	3	Marzo	2023-03-16T00:00:00	2024-11-08T00:00:00	2	Temperatura media	15.3
112434	7	Sololá	713	San Lucas Tolimán	10	San Lucas Tolimán	3	Marzo	2023-03-16T00:00:00	2024-11-08T00:00:00	4	Temperatura máxima	15.9
112435	7	Sololá	713	San Lucas Tolimán	10	San Lucas Tolimán	3	Marzo	2023-03-16T00:00:00	2024-11-08T00:00:00	3	Temperatura mínima	15.3
112436	7	Sololá	713	San Lucas Tolimán	10	San Lucas Tolimán	3	Marzo	2023-03-16T00:00:00	2024-11-08T00:00:00	5	Humedad	59
112437	7	Sololá	713	San Lucas Tolimán	10	San Lucas Tolimán	3	Marzo	2023-03-16T00:00:00	2024-11-08T00:00:00	6	Velocidad del viento	0
112438	7	Sololá	713	San Lucas Tolimán	10	San Lucas Tolimán	3	Marzo	2023-03-16T00:00:00	2024-11-08T00:00:00	7	Dirección del viento	0
112439	7	Sololá	713	San Lucas Tolimán	10	San Lucas Tolimán	3	Marzo	2023-03-16T00:00:00	2024-11-08T00:00:00	1	Precipitación	0
112440	7	Sololá	713	San Lucas Tolimán	10	San Lucas Tolimán	3	Marzo	2023-03-16T00:00:00	2024-11-08T00:00:00	8	Radiación solar	0
112441	7	Sololá	713	San Lucas Tolimán	10	San Lucas Tolimán	3	Marzo	2023-03-16T00:00:00	2024-11-08T01:00:00	2	Temperatura media	15.7
112442	7	Sololá	713	San Lucas Tolimán	10	San Lucas Tolimán	3	Marzo	2023-03-16T00:00:00	2024-11-08T01:00:00	4	Temperatura máxima	15.7
112443	7	Sololá	713	San Lucas Tolimán	10	San Lucas Tolimán	3	Marzo	2023-03-16T00:00:00	2024-11-08T01:00:00	3	Temperatura mínima	15.1
112444	7	Sololá	713	San Lucas Tolimán	10	San Lucas Tolimán	3	Marzo	2023-03-16T00:00:00	2024-11-08T01:00:00	5	Humedad	58
112445	7	Sololá	713	San Lucas Tolimán	10	San Lucas Tolimán	3	Marzo	2023-03-16T00:00:00	2024-11-08T01:00:00	6	Velocidad del viento	1.6
112446	7	Sololá	713	San Lucas Tolimán	10	San Lucas Tolimán	3	Marzo	2023-03-16T00:00:00	2024-11-08T01:00:00	7	Dirección del viento	1.61
112447	7	Sololá	713	San Lucas Tolimán	10	San Lucas Tolimán	3	Marzo	2023-03-16T00:00:00	2024-11-08T01:00:00	1	Precipitación	0
112448	7	Sololá	713	San Lucas Tolimán	10	San Lucas Tolimán	3	Marzo	2023-03-16T00:00:00	2024-11-08T01:00:00	8	Radiación solar	0
112449	7	Sololá	713	San Lucas Tolimán	10	San Lucas Tolimán	3	Marzo	2023-03-16T00:00:00	2024-11-08T02:00:00	2	Temperatura media	16
112450	7	Sololá	713	San Lucas Tolimán	10	San Lucas Tolimán	3	Marzo	2023-03-16T00:00:00	2024-11-08T02:00:00	4	Temperatura máxima	16.1
112451	7	Sololá	713	San Lucas Tolimán	10	San Lucas Tolimán	3	Marzo	2023-03-16T00:00:00	2024-11-08T02:00:00	3	Temperatura mínima	15.6
112452	7	Sololá	713	San Lucas Tolimán	10	San Lucas Tolimán	3	Marzo	2023-03-16T00:00:00	2024-11-08T02:00:00	5	Humedad	58
112453	7	Sololá	713	San Lucas Tolimán	10	San Lucas Tolimán	3	Marzo	2023-03-16T00:00:00	2024-11-08T02:00:00	6	Velocidad del viento	3.2
112454	7	Sololá	713	San Lucas Tolimán	10	San Lucas Tolimán	3	Marzo	2023-03-16T00:00:00	2024-11-08T02:00:00	7	Dirección del viento	3.22
112455	7	Sololá	713	San Lucas Tolimán	10	San Lucas Tolimán	3	Marzo	2023-03-16T00:00:00	2024-11-08T02:00:00	1	Precipitación	0
112456	7	Sololá	713	San Lucas Tolimán	10	San Lucas Tolimán	3	Marzo	2023-03-16T00:00:00	2024-11-08T02:00:00	8	Radiación solar	0
112457	7	Sololá	713	San Lucas Tolimán	10	San Lucas Tolimán	3	Marzo	2023-03-16T00:00:00	2024-11-08T03:00:00	2	Temperatura media	15
112458	7	Sololá	713	San Lucas Tolimán	10	San Lucas Tolimán	3	Marzo	2023-03-16T00:00:00	2024-11-08T03:00:00	4	Temperatura máxima	16
112459	7	Sololá	713	San Lucas Tolimán	10	San Lucas Tolimán	3	Marzo	2023-03-16T00:00:00	2024-11-08T03:00:00	3	Temperatura mínima	14.9
112460	7	Sololá	713	San Lucas Tolimán	10	San Lucas Tolimán	3	Marzo	2023-03-16T00:00:00	2024-11-08T03:00:00	5	Humedad	60
112461	7	Sololá	713	San Lucas Tolimán	10	San Lucas Tolimán	3	Marzo	2023-03-16T00:00:00	2024-11-08T03:00:00	6	Velocidad del viento	1.6
112462	7	Sololá	713	San Lucas Tolimán	10	San Lucas Tolimán	3	Marzo	2023-03-16T00:00:00	2024-11-08T03:00:00	7	Dirección del viento	1.61
112463	7	Sololá	713	San Lucas Tolimán	10	San Lucas Tolimán	3	Marzo	2023-03-16T00:00:00	2024-11-08T03:00:00	1	Precipitación	0
112464	7	Sololá	713	San Lucas Tolimán	10	San Lucas Tolimán	3	Marzo	2023-03-16T00:00:00	2024-11-08T03:00:00	8	Radiación solar	0
112465	7	Sololá	713	San Lucas Tolimán	10	San Lucas Tolimán	3	Marzo	2023-03-16T00:00:00	2024-11-08T04:00:00	2	Temperatura media	13.4
112466	7	Sololá	713	San Lucas Tolimán	10	San Lucas Tolimán	3	Marzo	2023-03-16T00:00:00	2024-11-08T04:00:00	4	Temperatura máxima	15
112467	7	Sololá	713	San Lucas Tolimán	10	San Lucas Tolimán	3	Marzo	2023-03-16T00:00:00	2024-11-08T04:00:00	3	Temperatura mínima	13.4
112468	7	Sololá	713	San Lucas Tolimán	10	San Lucas Tolimán	3	Marzo	2023-03-16T00:00:00	2024-11-08T04:00:00	5	Humedad	62
112469	7	Sololá	713	San Lucas Tolimán	10	San Lucas Tolimán	3	Marzo	2023-03-16T00:00:00	2024-11-08T04:00:00	6	Velocidad del viento	3.2
112470	7	Sololá	713	San Lucas Tolimán	10	San Lucas Tolimán	3	Marzo	2023-03-16T00:00:00	2024-11-08T04:00:00	7	Dirección del viento	3.22
112471	7	Sololá	713	San Lucas Tolimán	10	San Lucas Tolimán	3	Marzo	2023-03-16T00:00:00	2024-11-08T04:00:00	1	Precipitación	0
112472	7	Sololá	713	San Lucas Tolimán	10	San Lucas Tolimán	3	Marzo	2023-03-16T00:00:00	2024-11-08T04:00:00	8	Radiación solar	0
112473	7	Sololá	713	San Lucas Tolimán	10	San Lucas Tolimán	3	Marzo	2023-03-16T00:00:00	2024-11-08T05:00:00	2	Temperatura media	13.8
112474	7	Sololá	713	San Lucas Tolimán	10	San Lucas Tolimán	3	Marzo	2023-03-16T00:00:00	2024-11-08T05:00:00	4	Temperatura máxima	13.8
112475	7	Sololá	713	San Lucas Tolimán	10	San Lucas Tolimán	3	Marzo	2023-03-16T00:00:00	2024-11-08T05:00:00	3	Temperatura mínima	13.4
112476	7	Sololá	713	San Lucas Tolimán	10	San Lucas Tolimán	3	Marzo	2023-03-16T00:00:00	2024-11-08T05:00:00	5	Humedad	61
112477	7	Sololá	713	San Lucas Tolimán	10	San Lucas Tolimán	3	Marzo	2023-03-16T00:00:00	2024-11-08T05:00:00	6	Velocidad del viento	0
112478	7	Sololá	713	San Lucas Tolimán	10	San Lucas Tolimán	3	Marzo	2023-03-16T00:00:00	2024-11-08T05:00:00	7	Dirección del viento	0
112479	7	Sololá	713	San Lucas Tolimán	10	San Lucas Tolimán	3	Marzo	2023-03-16T00:00:00	2024-11-08T05:00:00	1	Precipitación	0
112480	7	Sololá	713	San Lucas Tolimán	10	San Lucas Tolimán	3	Marzo	2023-03-16T00:00:00	2024-11-08T05:00:00	8	Radiación solar	0
112481	7	Sololá	713	San Lucas Tolimán	10	San Lucas Tolimán	3	Marzo	2023-03-16T00:00:00	2024-11-08T06:00:00	2	Temperatura media	14.2
112482	7	Sololá	713	San Lucas Tolimán	10	San Lucas Tolimán	3	Marzo	2023-03-16T00:00:00	2024-11-08T06:00:00	4	Temperatura máxima	14.2
112483	7	Sololá	713	San Lucas Tolimán	10	San Lucas Tolimán	3	Marzo	2023-03-16T00:00:00	2024-11-08T06:00:00	3	Temperatura mínima	13.7
112484	7	Sololá	713	San Lucas Tolimán	10	San Lucas Tolimán	3	Marzo	2023-03-16T00:00:00	2024-11-08T06:00:00	5	Humedad	61
112485	7	Sololá	713	San Lucas Tolimán	10	San Lucas Tolimán	3	Marzo	2023-03-16T00:00:00	2024-11-08T06:00:00	6	Velocidad del viento	1.6
112486	7	Sololá	713	San Lucas Tolimán	10	San Lucas Tolimán	3	Marzo	2023-03-16T00:00:00	2024-11-08T06:00:00	7	Dirección del viento	1.61
112487	7	Sololá	713	San Lucas Tolimán	10	San Lucas Tolimán	3	Marzo	2023-03-16T00:00:00	2024-11-08T06:00:00	1	Precipitación	0
112488	7	Sololá	713	San Lucas Tolimán	10	San Lucas Tolimán	3	Marzo	2023-03-16T00:00:00	2024-11-08T06:00:00	8	Radiación solar	0
112489	7	Sololá	713	San Lucas Tolimán	10	San Lucas Tolimán	3	Marzo	2023-03-16T00:00:00	2024-11-08T07:00:00	2	Temperatura media	14.1
112490	7	Sololá	713	San Lucas Tolimán	10	San Lucas Tolimán	3	Marzo	2023-03-16T00:00:00	2024-11-08T07:00:00	4	Temperatura máxima	14.3
112491	7	Sololá	713	San Lucas Tolimán	10	San Lucas Tolimán	3	Marzo	2023-03-16T00:00:00	2024-11-08T07:00:00	3	Temperatura mínima	14
112492	7	Sololá	713	San Lucas Tolimán	10	San Lucas Tolimán	3	Marzo	2023-03-16T00:00:00	2024-11-08T07:00:00	5	Humedad	62
112493	7	Sololá	713	San Lucas Tolimán	10	San Lucas Tolimán	3	Marzo	2023-03-16T00:00:00	2024-11-08T07:00:00	6	Velocidad del viento	0
112494	7	Sololá	713	San Lucas Tolimán	10	San Lucas Tolimán	3	Marzo	2023-03-16T00:00:00	2024-11-08T07:00:00	7	Dirección del viento	0
112495	7	Sololá	713	San Lucas Tolimán	10	San Lucas Tolimán	3	Marzo	2023-03-16T00:00:00	2024-11-08T07:00:00	1	Precipitación	0
112496	7	Sololá	713	San Lucas Tolimán	10	San Lucas Tolimán	3	Marzo	2023-03-16T00:00:00	2024-11-08T07:00:00	8	Radiación solar	16
112497	7	Sololá	713	San Lucas Tolimán	10	San Lucas Tolimán	3	Marzo	2023-03-16T00:00:00	2024-11-08T08:00:00	2	Temperatura media	17.5
112498	7	Sololá	713	San Lucas Tolimán	10	San Lucas Tolimán	3	Marzo	2023-03-16T00:00:00	2024-11-08T08:00:00	4	Temperatura máxima	17.5
112499	7	Sololá	713	San Lucas Tolimán	10	San Lucas Tolimán	3	Marzo	2023-03-16T00:00:00	2024-11-08T08:00:00	3	Temperatura mínima	14.1
112500	7	Sololá	713	San Lucas Tolimán	10	San Lucas Tolimán	3	Marzo	2023-03-16T00:00:00	2024-11-08T08:00:00	5	Humedad	57
112501	7	Sololá	713	San Lucas Tolimán	10	San Lucas Tolimán	3	Marzo	2023-03-16T00:00:00	2024-11-08T08:00:00	6	Velocidad del viento	1.6
112502	7	Sololá	713	San Lucas Tolimán	10	San Lucas Tolimán	3	Marzo	2023-03-16T00:00:00	2024-11-08T08:00:00	7	Dirección del viento	1.61
112503	7	Sololá	713	San Lucas Tolimán	10	San Lucas Tolimán	3	Marzo	2023-03-16T00:00:00	2024-11-08T08:00:00	1	Precipitación	0
112504	7	Sololá	713	San Lucas Tolimán	10	San Lucas Tolimán	3	Marzo	2023-03-16T00:00:00	2024-11-08T08:00:00	8	Radiación solar	194
112505	7	Sololá	713	San Lucas Tolimán	10	San Lucas Tolimán	3	Marzo	2023-03-16T00:00:00	2024-11-08T09:00:00	2	Temperatura media	20
112506	7	Sololá	713	San Lucas Tolimán	10	San Lucas Tolimán	3	Marzo	2023-03-16T00:00:00	2024-11-08T09:00:00	4	Temperatura máxima	20
112507	7	Sololá	713	San Lucas Tolimán	10	San Lucas Tolimán	3	Marzo	2023-03-16T00:00:00	2024-11-08T09:00:00	3	Temperatura mínima	17.5
112508	7	Sololá	713	San Lucas Tolimán	10	San Lucas Tolimán	3	Marzo	2023-03-16T00:00:00	2024-11-08T09:00:00	5	Humedad	57
112509	7	Sololá	713	San Lucas Tolimán	10	San Lucas Tolimán	3	Marzo	2023-03-16T00:00:00	2024-11-08T09:00:00	6	Velocidad del viento	3.2
112510	7	Sololá	713	San Lucas Tolimán	10	San Lucas Tolimán	3	Marzo	2023-03-16T00:00:00	2024-11-08T09:00:00	7	Dirección del viento	3.22
112511	7	Sololá	713	San Lucas Tolimán	10	San Lucas Tolimán	3	Marzo	2023-03-16T00:00:00	2024-11-08T09:00:00	1	Precipitación	0
112512	7	Sololá	713	San Lucas Tolimán	10	San Lucas Tolimán	3	Marzo	2023-03-16T00:00:00	2024-11-08T09:00:00	8	Radiación solar	519
112513	7	Sololá	713	San Lucas Tolimán	10	San Lucas Tolimán	3	Marzo	2023-03-16T00:00:00	2024-11-08T10:00:00	2	Temperatura media	21.3
112514	7	Sololá	713	San Lucas Tolimán	10	San Lucas Tolimán	3	Marzo	2023-03-16T00:00:00	2024-11-08T10:00:00	4	Temperatura máxima	21.3
112515	7	Sololá	713	San Lucas Tolimán	10	San Lucas Tolimán	3	Marzo	2023-03-16T00:00:00	2024-11-08T10:00:00	3	Temperatura mínima	20
112516	7	Sololá	713	San Lucas Tolimán	10	San Lucas Tolimán	3	Marzo	2023-03-16T00:00:00	2024-11-08T10:00:00	5	Humedad	57
112517	7	Sololá	713	San Lucas Tolimán	10	San Lucas Tolimán	3	Marzo	2023-03-16T00:00:00	2024-11-08T10:00:00	6	Velocidad del viento	6.4
112518	7	Sololá	713	San Lucas Tolimán	10	San Lucas Tolimán	3	Marzo	2023-03-16T00:00:00	2024-11-08T10:00:00	7	Dirección del viento	6.44
112519	7	Sololá	713	San Lucas Tolimán	10	San Lucas Tolimán	3	Marzo	2023-03-16T00:00:00	2024-11-08T10:00:00	1	Precipitación	0
112520	7	Sololá	713	San Lucas Tolimán	10	San Lucas Tolimán	3	Marzo	2023-03-16T00:00:00	2024-11-08T10:00:00	8	Radiación solar	767
112521	7	Sololá	713	San Lucas Tolimán	10	San Lucas Tolimán	3	Marzo	2023-03-16T00:00:00	2024-11-08T11:00:00	2	Temperatura media	21.7
112522	7	Sololá	713	San Lucas Tolimán	10	San Lucas Tolimán	3	Marzo	2023-03-16T00:00:00	2024-11-08T11:00:00	4	Temperatura máxima	21.9
112523	7	Sololá	713	San Lucas Tolimán	10	San Lucas Tolimán	3	Marzo	2023-03-16T00:00:00	2024-11-08T11:00:00	3	Temperatura mínima	21.3
112524	7	Sololá	713	San Lucas Tolimán	10	San Lucas Tolimán	3	Marzo	2023-03-16T00:00:00	2024-11-08T11:00:00	5	Humedad	56
112525	7	Sololá	713	San Lucas Tolimán	10	San Lucas Tolimán	3	Marzo	2023-03-16T00:00:00	2024-11-08T11:00:00	6	Velocidad del viento	9.7
112526	7	Sololá	713	San Lucas Tolimán	10	San Lucas Tolimán	3	Marzo	2023-03-16T00:00:00	2024-11-08T11:00:00	7	Dirección del viento	9.66
112527	7	Sololá	713	San Lucas Tolimán	10	San Lucas Tolimán	3	Marzo	2023-03-16T00:00:00	2024-11-08T11:00:00	1	Precipitación	0
112528	7	Sololá	713	San Lucas Tolimán	10	San Lucas Tolimán	3	Marzo	2023-03-16T00:00:00	2024-11-08T11:00:00	8	Radiación solar	971
112529	7	Sololá	713	San Lucas Tolimán	10	San Lucas Tolimán	3	Marzo	2023-03-16T00:00:00	2024-11-08T12:00:00	2	Temperatura media	20.8
112530	7	Sololá	713	San Lucas Tolimán	10	San Lucas Tolimán	3	Marzo	2023-03-16T00:00:00	2024-11-08T12:00:00	4	Temperatura máxima	22.3
112531	7	Sololá	713	San Lucas Tolimán	10	San Lucas Tolimán	3	Marzo	2023-03-16T00:00:00	2024-11-08T12:00:00	3	Temperatura mínima	20
112532	7	Sololá	713	San Lucas Tolimán	10	San Lucas Tolimán	3	Marzo	2023-03-16T00:00:00	2024-11-08T12:00:00	5	Humedad	60
112533	7	Sololá	713	San Lucas Tolimán	10	San Lucas Tolimán	3	Marzo	2023-03-16T00:00:00	2024-11-08T12:00:00	6	Velocidad del viento	12.9
112534	7	Sololá	713	San Lucas Tolimán	10	San Lucas Tolimán	3	Marzo	2023-03-16T00:00:00	2024-11-08T12:00:00	7	Dirección del viento	12.87
112535	7	Sololá	713	San Lucas Tolimán	10	San Lucas Tolimán	3	Marzo	2023-03-16T00:00:00	2024-11-08T12:00:00	1	Precipitación	0
112536	7	Sololá	713	San Lucas Tolimán	10	San Lucas Tolimán	3	Marzo	2023-03-16T00:00:00	2024-11-08T12:00:00	8	Radiación solar	914
112537	7	Sololá	713	San Lucas Tolimán	10	San Lucas Tolimán	3	Marzo	2023-03-16T00:00:00	2024-11-08T13:00:00	2	Temperatura media	21.8
112538	7	Sololá	713	San Lucas Tolimán	10	San Lucas Tolimán	3	Marzo	2023-03-16T00:00:00	2024-11-08T13:00:00	4	Temperatura máxima	21.9
112539	7	Sololá	713	San Lucas Tolimán	10	San Lucas Tolimán	3	Marzo	2023-03-16T00:00:00	2024-11-08T13:00:00	3	Temperatura mínima	20.8
112540	7	Sololá	713	San Lucas Tolimán	10	San Lucas Tolimán	3	Marzo	2023-03-16T00:00:00	2024-11-08T13:00:00	5	Humedad	58
112541	7	Sololá	713	San Lucas Tolimán	10	San Lucas Tolimán	3	Marzo	2023-03-16T00:00:00	2024-11-08T13:00:00	6	Velocidad del viento	11.3
112542	7	Sololá	713	San Lucas Tolimán	10	San Lucas Tolimán	3	Marzo	2023-03-16T00:00:00	2024-11-08T13:00:00	7	Dirección del viento	11.27
112543	7	Sololá	713	San Lucas Tolimán	10	San Lucas Tolimán	3	Marzo	2023-03-16T00:00:00	2024-11-08T13:00:00	1	Precipitación	0
112544	7	Sololá	713	San Lucas Tolimán	10	San Lucas Tolimán	3	Marzo	2023-03-16T00:00:00	2024-11-08T13:00:00	8	Radiación solar	1104
112545	7	Sololá	713	San Lucas Tolimán	10	San Lucas Tolimán	3	Marzo	2023-03-16T00:00:00	2024-11-08T14:00:00	2	Temperatura media	23
112546	7	Sololá	713	San Lucas Tolimán	10	San Lucas Tolimán	3	Marzo	2023-03-16T00:00:00	2024-11-08T14:00:00	4	Temperatura máxima	23.1
112547	7	Sololá	713	San Lucas Tolimán	10	San Lucas Tolimán	3	Marzo	2023-03-16T00:00:00	2024-11-08T14:00:00	3	Temperatura mínima	21.8
112548	7	Sololá	713	San Lucas Tolimán	10	San Lucas Tolimán	3	Marzo	2023-03-16T00:00:00	2024-11-08T14:00:00	5	Humedad	56
112549	7	Sololá	713	San Lucas Tolimán	10	San Lucas Tolimán	3	Marzo	2023-03-16T00:00:00	2024-11-08T14:00:00	6	Velocidad del viento	8
112550	7	Sololá	713	San Lucas Tolimán	10	San Lucas Tolimán	3	Marzo	2023-03-16T00:00:00	2024-11-08T14:00:00	7	Dirección del viento	8.05
112551	7	Sololá	713	San Lucas Tolimán	10	San Lucas Tolimán	3	Marzo	2023-03-16T00:00:00	2024-11-08T14:00:00	1	Precipitación	0
112552	7	Sololá	713	San Lucas Tolimán	10	San Lucas Tolimán	3	Marzo	2023-03-16T00:00:00	2024-11-08T14:00:00	8	Radiación solar	1084
112553	7	Sololá	713	San Lucas Tolimán	10	San Lucas Tolimán	3	Marzo	2023-03-16T00:00:00	2024-11-08T15:00:00	2	Temperatura media	22
112554	7	Sololá	713	San Lucas Tolimán	10	San Lucas Tolimán	3	Marzo	2023-03-16T00:00:00	2024-11-08T15:00:00	4	Temperatura máxima	23.4
112555	7	Sololá	713	San Lucas Tolimán	10	San Lucas Tolimán	3	Marzo	2023-03-16T00:00:00	2024-11-08T15:00:00	3	Temperatura mínima	21.5
112556	7	Sololá	713	San Lucas Tolimán	10	San Lucas Tolimán	3	Marzo	2023-03-16T00:00:00	2024-11-08T15:00:00	5	Humedad	58
112557	7	Sololá	713	San Lucas Tolimán	10	San Lucas Tolimán	3	Marzo	2023-03-16T00:00:00	2024-11-08T15:00:00	6	Velocidad del viento	8
112558	7	Sololá	713	San Lucas Tolimán	10	San Lucas Tolimán	3	Marzo	2023-03-16T00:00:00	2024-11-08T15:00:00	7	Dirección del viento	8.05
112559	7	Sololá	713	San Lucas Tolimán	10	San Lucas Tolimán	3	Marzo	2023-03-16T00:00:00	2024-11-08T15:00:00	1	Precipitación	0
112560	7	Sololá	713	San Lucas Tolimán	10	San Lucas Tolimán	3	Marzo	2023-03-16T00:00:00	2024-11-08T15:00:00	8	Radiación solar	578
112561	7	Sololá	713	San Lucas Tolimán	10	San Lucas Tolimán	3	Marzo	2023-03-16T00:00:00	2024-11-08T16:00:00	2	Temperatura media	19.5
112562	7	Sololá	713	San Lucas Tolimán	10	San Lucas Tolimán	3	Marzo	2023-03-16T00:00:00	2024-11-08T16:00:00	4	Temperatura máxima	22
112563	7	Sololá	713	San Lucas Tolimán	10	San Lucas Tolimán	3	Marzo	2023-03-16T00:00:00	2024-11-08T16:00:00	3	Temperatura mínima	19.5
112564	7	Sololá	713	San Lucas Tolimán	10	San Lucas Tolimán	3	Marzo	2023-03-16T00:00:00	2024-11-08T16:00:00	5	Humedad	63
112565	7	Sololá	713	San Lucas Tolimán	10	San Lucas Tolimán	3	Marzo	2023-03-16T00:00:00	2024-11-08T16:00:00	6	Velocidad del viento	8
112566	7	Sololá	713	San Lucas Tolimán	10	San Lucas Tolimán	3	Marzo	2023-03-16T00:00:00	2024-11-08T16:00:00	7	Dirección del viento	8.05
112567	7	Sololá	713	San Lucas Tolimán	10	San Lucas Tolimán	3	Marzo	2023-03-16T00:00:00	2024-11-08T16:00:00	1	Precipitación	0
112568	7	Sololá	713	San Lucas Tolimán	10	San Lucas Tolimán	3	Marzo	2023-03-16T00:00:00	2024-11-08T16:00:00	8	Radiación solar	263
112569	7	Sololá	713	San Lucas Tolimán	10	San Lucas Tolimán	3	Marzo	2023-03-16T00:00:00	2024-11-08T17:00:00	2	Temperatura media	19.3
112570	7	Sololá	713	San Lucas Tolimán	10	San Lucas Tolimán	3	Marzo	2023-03-16T00:00:00	2024-11-08T17:00:00	4	Temperatura máxima	20.1
112571	7	Sololá	713	San Lucas Tolimán	10	San Lucas Tolimán	3	Marzo	2023-03-16T00:00:00	2024-11-08T17:00:00	3	Temperatura mínima	19.2
112572	7	Sololá	713	San Lucas Tolimán	10	San Lucas Tolimán	3	Marzo	2023-03-16T00:00:00	2024-11-08T17:00:00	5	Humedad	62
112573	7	Sololá	713	San Lucas Tolimán	10	San Lucas Tolimán	3	Marzo	2023-03-16T00:00:00	2024-11-08T17:00:00	6	Velocidad del viento	8
112574	7	Sololá	713	San Lucas Tolimán	10	San Lucas Tolimán	3	Marzo	2023-03-16T00:00:00	2024-11-08T17:00:00	7	Dirección del viento	8.05
112575	7	Sololá	713	San Lucas Tolimán	10	San Lucas Tolimán	3	Marzo	2023-03-16T00:00:00	2024-11-08T17:00:00	1	Precipitación	0
112576	7	Sololá	713	San Lucas Tolimán	10	San Lucas Tolimán	3	Marzo	2023-03-16T00:00:00	2024-11-08T17:00:00	8	Radiación solar	111
112577	7	Sololá	713	San Lucas Tolimán	10	San Lucas Tolimán	3	Marzo	2023-03-16T00:00:00	2024-11-08T18:00:00	2	Temperatura media	18.5
112578	7	Sololá	713	San Lucas Tolimán	10	San Lucas Tolimán	3	Marzo	2023-03-16T00:00:00	2024-11-08T18:00:00	4	Temperatura máxima	19.3
112579	7	Sololá	713	San Lucas Tolimán	10	San Lucas Tolimán	3	Marzo	2023-03-16T00:00:00	2024-11-08T18:00:00	3	Temperatura mínima	18.4
112580	7	Sololá	713	San Lucas Tolimán	10	San Lucas Tolimán	3	Marzo	2023-03-16T00:00:00	2024-11-08T18:00:00	5	Humedad	61
112581	7	Sololá	713	San Lucas Tolimán	10	San Lucas Tolimán	3	Marzo	2023-03-16T00:00:00	2024-11-08T18:00:00	6	Velocidad del viento	6.4
112582	7	Sololá	713	San Lucas Tolimán	10	San Lucas Tolimán	3	Marzo	2023-03-16T00:00:00	2024-11-08T18:00:00	7	Dirección del viento	6.44
112583	7	Sololá	713	San Lucas Tolimán	10	San Lucas Tolimán	3	Marzo	2023-03-16T00:00:00	2024-11-08T18:00:00	1	Precipitación	0.2
112584	7	Sololá	713	San Lucas Tolimán	10	San Lucas Tolimán	3	Marzo	2023-03-16T00:00:00	2024-11-08T18:00:00	8	Radiación solar	14
112585	7	Sololá	713	San Lucas Tolimán	10	San Lucas Tolimán	3	Marzo	2023-03-16T00:00:00	2024-11-08T19:00:00	2	Temperatura media	17.9
112586	7	Sololá	713	San Lucas Tolimán	10	San Lucas Tolimán	3	Marzo	2023-03-16T00:00:00	2024-11-08T19:00:00	4	Temperatura máxima	18.6
112587	7	Sololá	713	San Lucas Tolimán	10	San Lucas Tolimán	3	Marzo	2023-03-16T00:00:00	2024-11-08T19:00:00	3	Temperatura mínima	17.9
112588	7	Sololá	713	San Lucas Tolimán	10	San Lucas Tolimán	3	Marzo	2023-03-16T00:00:00	2024-11-08T19:00:00	5	Humedad	61
112589	7	Sololá	713	San Lucas Tolimán	10	San Lucas Tolimán	3	Marzo	2023-03-16T00:00:00	2024-11-08T19:00:00	6	Velocidad del viento	1.6
112590	7	Sololá	713	San Lucas Tolimán	10	San Lucas Tolimán	3	Marzo	2023-03-16T00:00:00	2024-11-08T19:00:00	7	Dirección del viento	1.61
112591	7	Sololá	713	San Lucas Tolimán	10	San Lucas Tolimán	3	Marzo	2023-03-16T00:00:00	2024-11-08T19:00:00	1	Precipitación	0.8
112592	7	Sololá	713	San Lucas Tolimán	10	San Lucas Tolimán	3	Marzo	2023-03-16T00:00:00	2024-11-08T19:00:00	8	Radiación solar	0
112593	7	Sololá	713	San Lucas Tolimán	10	San Lucas Tolimán	3	Marzo	2023-03-16T00:00:00	2024-11-08T20:00:00	2	Temperatura media	17.7
112594	7	Sololá	713	San Lucas Tolimán	10	San Lucas Tolimán	3	Marzo	2023-03-16T00:00:00	2024-11-08T20:00:00	4	Temperatura máxima	18.1
112595	7	Sololá	713	San Lucas Tolimán	10	San Lucas Tolimán	3	Marzo	2023-03-16T00:00:00	2024-11-08T20:00:00	3	Temperatura mínima	17.7
112596	7	Sololá	713	San Lucas Tolimán	10	San Lucas Tolimán	3	Marzo	2023-03-16T00:00:00	2024-11-08T20:00:00	5	Humedad	62
112597	7	Sololá	713	San Lucas Tolimán	10	San Lucas Tolimán	3	Marzo	2023-03-16T00:00:00	2024-11-08T20:00:00	6	Velocidad del viento	1.6
112598	7	Sololá	713	San Lucas Tolimán	10	San Lucas Tolimán	3	Marzo	2023-03-16T00:00:00	2024-11-08T20:00:00	7	Dirección del viento	1.61
112599	7	Sololá	713	San Lucas Tolimán	10	San Lucas Tolimán	3	Marzo	2023-03-16T00:00:00	2024-11-08T20:00:00	1	Precipitación	0.2
112600	7	Sololá	713	San Lucas Tolimán	10	San Lucas Tolimán	3	Marzo	2023-03-16T00:00:00	2024-11-08T20:00:00	8	Radiación solar	0
112601	7	Sololá	713	San Lucas Tolimán	10	San Lucas Tolimán	3	Marzo	2023-03-16T00:00:00	2024-11-08T21:00:00	2	Temperatura media	16.3
112602	7	Sololá	713	San Lucas Tolimán	10	San Lucas Tolimán	3	Marzo	2023-03-16T00:00:00	2024-11-08T21:00:00	4	Temperatura máxima	17.7
112603	7	Sololá	713	San Lucas Tolimán	10	San Lucas Tolimán	3	Marzo	2023-03-16T00:00:00	2024-11-08T21:00:00	3	Temperatura mínima	16.2
112604	7	Sololá	713	San Lucas Tolimán	10	San Lucas Tolimán	3	Marzo	2023-03-16T00:00:00	2024-11-08T21:00:00	5	Humedad	63
112605	7	Sololá	713	San Lucas Tolimán	10	San Lucas Tolimán	3	Marzo	2023-03-16T00:00:00	2024-11-08T21:00:00	6	Velocidad del viento	1.6
112606	7	Sololá	713	San Lucas Tolimán	10	San Lucas Tolimán	3	Marzo	2023-03-16T00:00:00	2024-11-08T21:00:00	7	Dirección del viento	1.61
112607	7	Sololá	713	San Lucas Tolimán	10	San Lucas Tolimán	3	Marzo	2023-03-16T00:00:00	2024-11-08T21:00:00	1	Precipitación	0
112608	7	Sololá	713	San Lucas Tolimán	10	San Lucas Tolimán	3	Marzo	2023-03-16T00:00:00	2024-11-08T21:00:00	8	Radiación solar	0
112609	7	Sololá	713	San Lucas Tolimán	10	San Lucas Tolimán	3	Marzo	2023-03-16T00:00:00	2024-11-08T22:00:00	2	Temperatura media	16.6
112610	7	Sololá	713	San Lucas Tolimán	10	San Lucas Tolimán	3	Marzo	2023-03-16T00:00:00	2024-11-08T22:00:00	4	Temperatura máxima	16.8
112611	7	Sololá	713	San Lucas Tolimán	10	San Lucas Tolimán	3	Marzo	2023-03-16T00:00:00	2024-11-08T22:00:00	3	Temperatura mínima	16.2
112612	7	Sololá	713	San Lucas Tolimán	10	San Lucas Tolimán	3	Marzo	2023-03-16T00:00:00	2024-11-08T22:00:00	5	Humedad	64
112613	7	Sololá	713	San Lucas Tolimán	10	San Lucas Tolimán	3	Marzo	2023-03-16T00:00:00	2024-11-08T22:00:00	6	Velocidad del viento	3.2
112614	7	Sololá	713	San Lucas Tolimán	10	San Lucas Tolimán	3	Marzo	2023-03-16T00:00:00	2024-11-08T22:00:00	7	Dirección del viento	3.22
112615	7	Sololá	713	San Lucas Tolimán	10	San Lucas Tolimán	3	Marzo	2023-03-16T00:00:00	2024-11-08T22:00:00	1	Precipitación	0
112616	7	Sololá	713	San Lucas Tolimán	10	San Lucas Tolimán	3	Marzo	2023-03-16T00:00:00	2024-11-08T22:00:00	8	Radiación solar	0
112617	7	Sololá	713	San Lucas Tolimán	10	San Lucas Tolimán	3	Marzo	2023-03-16T00:00:00	2024-11-08T23:00:00	2	Temperatura media	16.4
112618	7	Sololá	713	San Lucas Tolimán	10	San Lucas Tolimán	3	Marzo	2023-03-16T00:00:00	2024-11-08T23:00:00	4	Temperatura máxima	16.6
112619	7	Sololá	713	San Lucas Tolimán	10	San Lucas Tolimán	3	Marzo	2023-03-16T00:00:00	2024-11-08T23:00:00	3	Temperatura mínima	16.4
112620	7	Sololá	713	San Lucas Tolimán	10	San Lucas Tolimán	3	Marzo	2023-03-16T00:00:00	2024-11-08T23:00:00	5	Humedad	64
112621	7	Sololá	713	San Lucas Tolimán	10	San Lucas Tolimán	3	Marzo	2023-03-16T00:00:00	2024-11-08T23:00:00	6	Velocidad del viento	1.6
112622	7	Sololá	713	San Lucas Tolimán	10	San Lucas Tolimán	3	Marzo	2023-03-16T00:00:00	2024-11-08T23:00:00	7	Dirección del viento	1.61
112623	7	Sololá	713	San Lucas Tolimán	10	San Lucas Tolimán	3	Marzo	2023-03-16T00:00:00	2024-11-08T23:00:00	1	Precipitación	0
112624	7	Sololá	713	San Lucas Tolimán	10	San Lucas Tolimán	3	Marzo	2023-03-16T00:00:00	2024-11-08T23:00:00	8	Radiación solar	0
112625	7	Sololá	713	San Lucas Tolimán	10	San Lucas Tolimán	3	Marzo	2023-03-17T00:00:00	2024-11-08T00:00:00	2	Temperatura media	16.3
112626	7	Sololá	713	San Lucas Tolimán	10	San Lucas Tolimán	3	Marzo	2023-03-17T00:00:00	2024-11-08T00:00:00	4	Temperatura máxima	16.4
112627	7	Sololá	713	San Lucas Tolimán	10	San Lucas Tolimán	3	Marzo	2023-03-17T00:00:00	2024-11-08T00:00:00	3	Temperatura mínima	15.9
112628	7	Sololá	713	San Lucas Tolimán	10	San Lucas Tolimán	3	Marzo	2023-03-17T00:00:00	2024-11-08T00:00:00	5	Humedad	66
112629	7	Sololá	713	San Lucas Tolimán	10	San Lucas Tolimán	3	Marzo	2023-03-17T00:00:00	2024-11-08T00:00:00	6	Velocidad del viento	3.2
112630	7	Sololá	713	San Lucas Tolimán	10	San Lucas Tolimán	3	Marzo	2023-03-17T00:00:00	2024-11-08T00:00:00	7	Dirección del viento	3.22
112631	7	Sololá	713	San Lucas Tolimán	10	San Lucas Tolimán	3	Marzo	2023-03-17T00:00:00	2024-11-08T00:00:00	1	Precipitación	0
112632	7	Sololá	713	San Lucas Tolimán	10	San Lucas Tolimán	3	Marzo	2023-03-17T00:00:00	2024-11-08T00:00:00	8	Radiación solar	0
112633	7	Sololá	713	San Lucas Tolimán	10	San Lucas Tolimán	3	Marzo	2023-03-17T00:00:00	2024-11-08T01:00:00	2	Temperatura media	16
112634	7	Sololá	713	San Lucas Tolimán	10	San Lucas Tolimán	3	Marzo	2023-03-17T00:00:00	2024-11-08T01:00:00	4	Temperatura máxima	16.4
112635	7	Sololá	713	San Lucas Tolimán	10	San Lucas Tolimán	3	Marzo	2023-03-17T00:00:00	2024-11-08T01:00:00	3	Temperatura mínima	15.8
112636	7	Sololá	713	San Lucas Tolimán	10	San Lucas Tolimán	3	Marzo	2023-03-17T00:00:00	2024-11-08T01:00:00	5	Humedad	67
112637	7	Sololá	713	San Lucas Tolimán	10	San Lucas Tolimán	3	Marzo	2023-03-17T00:00:00	2024-11-08T01:00:00	6	Velocidad del viento	0
112638	7	Sololá	713	San Lucas Tolimán	10	San Lucas Tolimán	3	Marzo	2023-03-17T00:00:00	2024-11-08T01:00:00	7	Dirección del viento	0
112639	7	Sololá	713	San Lucas Tolimán	10	San Lucas Tolimán	3	Marzo	2023-03-17T00:00:00	2024-11-08T01:00:00	1	Precipitación	0
112640	7	Sololá	713	San Lucas Tolimán	10	San Lucas Tolimán	3	Marzo	2023-03-17T00:00:00	2024-11-08T01:00:00	8	Radiación solar	0
112641	7	Sololá	713	San Lucas Tolimán	10	San Lucas Tolimán	3	Marzo	2023-03-17T00:00:00	2024-11-08T02:00:00	2	Temperatura media	15.3
112642	7	Sololá	713	San Lucas Tolimán	10	San Lucas Tolimán	3	Marzo	2023-03-17T00:00:00	2024-11-08T02:00:00	4	Temperatura máxima	16.2
112643	7	Sololá	713	San Lucas Tolimán	10	San Lucas Tolimán	3	Marzo	2023-03-17T00:00:00	2024-11-08T02:00:00	3	Temperatura mínima	15.2
112644	7	Sololá	713	San Lucas Tolimán	10	San Lucas Tolimán	3	Marzo	2023-03-17T00:00:00	2024-11-08T02:00:00	5	Humedad	63
112645	7	Sololá	713	San Lucas Tolimán	10	San Lucas Tolimán	3	Marzo	2023-03-17T00:00:00	2024-11-08T02:00:00	6	Velocidad del viento	1.6
112646	7	Sololá	713	San Lucas Tolimán	10	San Lucas Tolimán	3	Marzo	2023-03-17T00:00:00	2024-11-08T02:00:00	7	Dirección del viento	1.61
112647	7	Sololá	713	San Lucas Tolimán	10	San Lucas Tolimán	3	Marzo	2023-03-17T00:00:00	2024-11-08T02:00:00	1	Precipitación	0
112648	7	Sololá	713	San Lucas Tolimán	10	San Lucas Tolimán	3	Marzo	2023-03-17T00:00:00	2024-11-08T02:00:00	8	Radiación solar	0
112649	7	Sololá	713	San Lucas Tolimán	10	San Lucas Tolimán	3	Marzo	2023-03-17T00:00:00	2024-11-08T03:00:00	2	Temperatura media	14.4
112650	7	Sololá	713	San Lucas Tolimán	10	San Lucas Tolimán	3	Marzo	2023-03-17T00:00:00	2024-11-08T03:00:00	4	Temperatura máxima	15.3
112651	7	Sololá	713	San Lucas Tolimán	10	San Lucas Tolimán	3	Marzo	2023-03-17T00:00:00	2024-11-08T03:00:00	3	Temperatura mínima	14.3
112652	7	Sololá	713	San Lucas Tolimán	10	San Lucas Tolimán	3	Marzo	2023-03-17T00:00:00	2024-11-08T03:00:00	5	Humedad	66
112653	7	Sololá	713	San Lucas Tolimán	10	San Lucas Tolimán	3	Marzo	2023-03-17T00:00:00	2024-11-08T03:00:00	6	Velocidad del viento	1.6
112654	7	Sololá	713	San Lucas Tolimán	10	San Lucas Tolimán	3	Marzo	2023-03-17T00:00:00	2024-11-08T03:00:00	7	Dirección del viento	1.61
112655	7	Sololá	713	San Lucas Tolimán	10	San Lucas Tolimán	3	Marzo	2023-03-17T00:00:00	2024-11-08T03:00:00	1	Precipitación	0
112656	7	Sololá	713	San Lucas Tolimán	10	San Lucas Tolimán	3	Marzo	2023-03-17T00:00:00	2024-11-08T03:00:00	8	Radiación solar	0
112657	7	Sololá	713	San Lucas Tolimán	10	San Lucas Tolimán	3	Marzo	2023-03-17T00:00:00	2024-11-08T04:00:00	2	Temperatura media	14.3
112658	7	Sololá	713	San Lucas Tolimán	10	San Lucas Tolimán	3	Marzo	2023-03-17T00:00:00	2024-11-08T04:00:00	4	Temperatura máxima	14.4
112659	7	Sololá	713	San Lucas Tolimán	10	San Lucas Tolimán	3	Marzo	2023-03-17T00:00:00	2024-11-08T04:00:00	3	Temperatura mínima	14.1
112660	7	Sololá	713	San Lucas Tolimán	10	San Lucas Tolimán	3	Marzo	2023-03-17T00:00:00	2024-11-08T04:00:00	5	Humedad	67
112661	7	Sololá	713	San Lucas Tolimán	10	San Lucas Tolimán	3	Marzo	2023-03-17T00:00:00	2024-11-08T04:00:00	6	Velocidad del viento	3.2
112662	7	Sololá	713	San Lucas Tolimán	10	San Lucas Tolimán	3	Marzo	2023-03-17T00:00:00	2024-11-08T04:00:00	7	Dirección del viento	3.22
112663	7	Sololá	713	San Lucas Tolimán	10	San Lucas Tolimán	3	Marzo	2023-03-17T00:00:00	2024-11-08T04:00:00	1	Precipitación	0
112664	7	Sololá	713	San Lucas Tolimán	10	San Lucas Tolimán	3	Marzo	2023-03-17T00:00:00	2024-11-08T04:00:00	8	Radiación solar	0
112665	7	Sololá	713	San Lucas Tolimán	10	San Lucas Tolimán	3	Marzo	2023-03-17T00:00:00	2024-11-08T05:00:00	2	Temperatura media	14.4
112666	7	Sololá	713	San Lucas Tolimán	10	San Lucas Tolimán	3	Marzo	2023-03-17T00:00:00	2024-11-08T05:00:00	4	Temperatura máxima	14.4
112667	7	Sololá	713	San Lucas Tolimán	10	San Lucas Tolimán	3	Marzo	2023-03-17T00:00:00	2024-11-08T05:00:00	3	Temperatura mínima	13.9
112668	7	Sololá	713	San Lucas Tolimán	10	San Lucas Tolimán	3	Marzo	2023-03-17T00:00:00	2024-11-08T05:00:00	5	Humedad	68
112669	7	Sololá	713	San Lucas Tolimán	10	San Lucas Tolimán	3	Marzo	2023-03-17T00:00:00	2024-11-08T05:00:00	6	Velocidad del viento	1.6
112670	7	Sololá	713	San Lucas Tolimán	10	San Lucas Tolimán	3	Marzo	2023-03-17T00:00:00	2024-11-08T05:00:00	7	Dirección del viento	1.61
112671	7	Sololá	713	San Lucas Tolimán	10	San Lucas Tolimán	3	Marzo	2023-03-17T00:00:00	2024-11-08T05:00:00	1	Precipitación	0
112672	7	Sololá	713	San Lucas Tolimán	10	San Lucas Tolimán	3	Marzo	2023-03-17T00:00:00	2024-11-08T05:00:00	8	Radiación solar	0
112673	7	Sololá	713	San Lucas Tolimán	10	San Lucas Tolimán	3	Marzo	2023-03-17T00:00:00	2024-11-08T06:00:00	2	Temperatura media	13.9
112674	7	Sololá	713	San Lucas Tolimán	10	San Lucas Tolimán	3	Marzo	2023-03-17T00:00:00	2024-11-08T06:00:00	4	Temperatura máxima	14.5
112675	7	Sololá	713	San Lucas Tolimán	10	San Lucas Tolimán	3	Marzo	2023-03-17T00:00:00	2024-11-08T06:00:00	3	Temperatura mínima	13.9
112676	7	Sololá	713	San Lucas Tolimán	10	San Lucas Tolimán	3	Marzo	2023-03-17T00:00:00	2024-11-08T06:00:00	5	Humedad	67
112677	7	Sololá	713	San Lucas Tolimán	10	San Lucas Tolimán	3	Marzo	2023-03-17T00:00:00	2024-11-08T06:00:00	6	Velocidad del viento	1.6
112678	7	Sololá	713	San Lucas Tolimán	10	San Lucas Tolimán	3	Marzo	2023-03-17T00:00:00	2024-11-08T06:00:00	7	Dirección del viento	1.61
112679	7	Sololá	713	San Lucas Tolimán	10	San Lucas Tolimán	3	Marzo	2023-03-17T00:00:00	2024-11-08T06:00:00	1	Precipitación	0
112680	7	Sololá	713	San Lucas Tolimán	10	San Lucas Tolimán	3	Marzo	2023-03-17T00:00:00	2024-11-08T06:00:00	8	Radiación solar	0
112681	7	Sololá	713	San Lucas Tolimán	10	San Lucas Tolimán	3	Marzo	2023-03-17T00:00:00	2024-11-08T07:00:00	2	Temperatura media	15.1
112682	7	Sololá	713	San Lucas Tolimán	10	San Lucas Tolimán	3	Marzo	2023-03-17T00:00:00	2024-11-08T07:00:00	4	Temperatura máxima	15.1
112683	7	Sololá	713	San Lucas Tolimán	10	San Lucas Tolimán	3	Marzo	2023-03-17T00:00:00	2024-11-08T07:00:00	3	Temperatura mínima	13.9
112684	7	Sololá	713	San Lucas Tolimán	10	San Lucas Tolimán	3	Marzo	2023-03-17T00:00:00	2024-11-08T07:00:00	5	Humedad	67
112685	7	Sololá	713	San Lucas Tolimán	10	San Lucas Tolimán	3	Marzo	2023-03-17T00:00:00	2024-11-08T07:00:00	6	Velocidad del viento	0
112686	7	Sololá	713	San Lucas Tolimán	10	San Lucas Tolimán	3	Marzo	2023-03-17T00:00:00	2024-11-08T07:00:00	7	Dirección del viento	0
112687	7	Sololá	713	San Lucas Tolimán	10	San Lucas Tolimán	3	Marzo	2023-03-17T00:00:00	2024-11-08T07:00:00	1	Precipitación	0
112688	7	Sololá	713	San Lucas Tolimán	10	San Lucas Tolimán	3	Marzo	2023-03-17T00:00:00	2024-11-08T07:00:00	8	Radiación solar	35
112689	7	Sololá	713	San Lucas Tolimán	10	San Lucas Tolimán	3	Marzo	2023-03-17T00:00:00	2024-11-08T08:00:00	2	Temperatura media	17.2
112690	7	Sololá	713	San Lucas Tolimán	10	San Lucas Tolimán	3	Marzo	2023-03-17T00:00:00	2024-11-08T08:00:00	4	Temperatura máxima	17.2
112691	7	Sololá	713	San Lucas Tolimán	10	San Lucas Tolimán	3	Marzo	2023-03-17T00:00:00	2024-11-08T08:00:00	3	Temperatura mínima	15.1
112692	7	Sololá	713	San Lucas Tolimán	10	San Lucas Tolimán	3	Marzo	2023-03-17T00:00:00	2024-11-08T08:00:00	5	Humedad	58
112693	7	Sololá	713	San Lucas Tolimán	10	San Lucas Tolimán	3	Marzo	2023-03-17T00:00:00	2024-11-08T08:00:00	6	Velocidad del viento	1.6
112694	7	Sololá	713	San Lucas Tolimán	10	San Lucas Tolimán	3	Marzo	2023-03-17T00:00:00	2024-11-08T08:00:00	7	Dirección del viento	1.61
112695	7	Sololá	713	San Lucas Tolimán	10	San Lucas Tolimán	3	Marzo	2023-03-17T00:00:00	2024-11-08T08:00:00	1	Precipitación	0
112696	7	Sololá	713	San Lucas Tolimán	10	San Lucas Tolimán	3	Marzo	2023-03-17T00:00:00	2024-11-08T08:00:00	8	Radiación solar	166
112697	7	Sololá	713	San Lucas Tolimán	10	San Lucas Tolimán	3	Marzo	2023-03-17T00:00:00	2024-11-08T09:00:00	2	Temperatura media	19.4
112698	7	Sololá	713	San Lucas Tolimán	10	San Lucas Tolimán	3	Marzo	2023-03-17T00:00:00	2024-11-08T09:00:00	4	Temperatura máxima	19.4
112699	7	Sololá	713	San Lucas Tolimán	10	San Lucas Tolimán	3	Marzo	2023-03-17T00:00:00	2024-11-08T09:00:00	3	Temperatura mínima	17.2
112700	7	Sololá	713	San Lucas Tolimán	10	San Lucas Tolimán	3	Marzo	2023-03-17T00:00:00	2024-11-08T09:00:00	5	Humedad	56
112701	7	Sololá	713	San Lucas Tolimán	10	San Lucas Tolimán	3	Marzo	2023-03-17T00:00:00	2024-11-08T09:00:00	6	Velocidad del viento	4.8
112702	7	Sololá	713	San Lucas Tolimán	10	San Lucas Tolimán	3	Marzo	2023-03-17T00:00:00	2024-11-08T09:00:00	7	Dirección del viento	4.83
112703	7	Sololá	713	San Lucas Tolimán	10	San Lucas Tolimán	3	Marzo	2023-03-17T00:00:00	2024-11-08T09:00:00	1	Precipitación	0
112704	7	Sololá	713	San Lucas Tolimán	10	San Lucas Tolimán	3	Marzo	2023-03-17T00:00:00	2024-11-08T09:00:00	8	Radiación solar	468
112705	7	Sololá	713	San Lucas Tolimán	10	San Lucas Tolimán	3	Marzo	2023-03-17T00:00:00	2024-11-08T10:00:00	2	Temperatura media	20.3
112706	7	Sololá	713	San Lucas Tolimán	10	San Lucas Tolimán	3	Marzo	2023-03-17T00:00:00	2024-11-08T10:00:00	4	Temperatura máxima	20.7
112707	7	Sololá	713	San Lucas Tolimán	10	San Lucas Tolimán	3	Marzo	2023-03-17T00:00:00	2024-11-08T10:00:00	3	Temperatura mínima	19.3
112708	7	Sololá	713	San Lucas Tolimán	10	San Lucas Tolimán	3	Marzo	2023-03-17T00:00:00	2024-11-08T10:00:00	5	Humedad	58
112709	7	Sololá	713	San Lucas Tolimán	10	San Lucas Tolimán	3	Marzo	2023-03-17T00:00:00	2024-11-08T10:00:00	6	Velocidad del viento	4.8
112710	7	Sololá	713	San Lucas Tolimán	10	San Lucas Tolimán	3	Marzo	2023-03-17T00:00:00	2024-11-08T10:00:00	7	Dirección del viento	4.83
112711	7	Sololá	713	San Lucas Tolimán	10	San Lucas Tolimán	3	Marzo	2023-03-17T00:00:00	2024-11-08T10:00:00	1	Precipitación	0
112712	7	Sololá	713	San Lucas Tolimán	10	San Lucas Tolimán	3	Marzo	2023-03-17T00:00:00	2024-11-08T10:00:00	8	Radiación solar	620
112713	7	Sololá	713	San Lucas Tolimán	10	San Lucas Tolimán	3	Marzo	2023-03-17T00:00:00	2024-11-08T11:00:00	2	Temperatura media	22.2
112714	7	Sololá	713	San Lucas Tolimán	10	San Lucas Tolimán	3	Marzo	2023-03-17T00:00:00	2024-11-08T11:00:00	4	Temperatura máxima	22.3
112715	7	Sololá	713	San Lucas Tolimán	10	San Lucas Tolimán	3	Marzo	2023-03-17T00:00:00	2024-11-08T11:00:00	3	Temperatura mínima	20.1
112716	7	Sololá	713	San Lucas Tolimán	10	San Lucas Tolimán	3	Marzo	2023-03-17T00:00:00	2024-11-08T11:00:00	5	Humedad	59
112717	7	Sololá	713	San Lucas Tolimán	10	San Lucas Tolimán	3	Marzo	2023-03-17T00:00:00	2024-11-08T11:00:00	6	Velocidad del viento	6.4
112718	7	Sololá	713	San Lucas Tolimán	10	San Lucas Tolimán	3	Marzo	2023-03-17T00:00:00	2024-11-08T11:00:00	7	Dirección del viento	6.44
112719	7	Sololá	713	San Lucas Tolimán	10	San Lucas Tolimán	3	Marzo	2023-03-17T00:00:00	2024-11-08T11:00:00	1	Precipitación	0
112720	7	Sololá	713	San Lucas Tolimán	10	San Lucas Tolimán	3	Marzo	2023-03-17T00:00:00	2024-11-08T11:00:00	8	Radiación solar	951
112721	7	Sololá	713	San Lucas Tolimán	10	San Lucas Tolimán	3	Marzo	2023-03-17T00:00:00	2024-11-08T12:00:00	2	Temperatura media	20.9
112722	7	Sololá	713	San Lucas Tolimán	10	San Lucas Tolimán	3	Marzo	2023-03-17T00:00:00	2024-11-08T12:00:00	4	Temperatura máxima	22.3
112723	7	Sololá	713	San Lucas Tolimán	10	San Lucas Tolimán	3	Marzo	2023-03-17T00:00:00	2024-11-08T12:00:00	3	Temperatura mínima	20.8
112724	7	Sololá	713	San Lucas Tolimán	10	San Lucas Tolimán	3	Marzo	2023-03-17T00:00:00	2024-11-08T12:00:00	5	Humedad	62
112725	7	Sololá	713	San Lucas Tolimán	10	San Lucas Tolimán	3	Marzo	2023-03-17T00:00:00	2024-11-08T12:00:00	6	Velocidad del viento	9.7
112726	7	Sololá	713	San Lucas Tolimán	10	San Lucas Tolimán	3	Marzo	2023-03-17T00:00:00	2024-11-08T12:00:00	7	Dirección del viento	9.66
112727	7	Sololá	713	San Lucas Tolimán	10	San Lucas Tolimán	3	Marzo	2023-03-17T00:00:00	2024-11-08T12:00:00	1	Precipitación	0
112728	7	Sololá	713	San Lucas Tolimán	10	San Lucas Tolimán	3	Marzo	2023-03-17T00:00:00	2024-11-08T12:00:00	8	Radiación solar	1156
112729	7	Sololá	713	San Lucas Tolimán	10	San Lucas Tolimán	3	Marzo	2023-03-17T00:00:00	2024-11-08T13:00:00	2	Temperatura media	21.7
112730	7	Sololá	713	San Lucas Tolimán	10	San Lucas Tolimán	3	Marzo	2023-03-17T00:00:00	2024-11-08T13:00:00	4	Temperatura máxima	22.2
112731	7	Sololá	713	San Lucas Tolimán	10	San Lucas Tolimán	3	Marzo	2023-03-17T00:00:00	2024-11-08T13:00:00	3	Temperatura mínima	20.5
112732	7	Sololá	713	San Lucas Tolimán	10	San Lucas Tolimán	3	Marzo	2023-03-17T00:00:00	2024-11-08T13:00:00	5	Humedad	60
112733	7	Sololá	713	San Lucas Tolimán	10	San Lucas Tolimán	3	Marzo	2023-03-17T00:00:00	2024-11-08T13:00:00	6	Velocidad del viento	11.3
112734	7	Sololá	713	San Lucas Tolimán	10	San Lucas Tolimán	3	Marzo	2023-03-17T00:00:00	2024-11-08T13:00:00	7	Dirección del viento	11.27
112735	7	Sololá	713	San Lucas Tolimán	10	San Lucas Tolimán	3	Marzo	2023-03-17T00:00:00	2024-11-08T13:00:00	1	Precipitación	0
112736	7	Sololá	713	San Lucas Tolimán	10	San Lucas Tolimán	3	Marzo	2023-03-17T00:00:00	2024-11-08T13:00:00	8	Radiación solar	1006
112737	7	Sololá	713	San Lucas Tolimán	10	San Lucas Tolimán	3	Marzo	2023-03-17T00:00:00	2024-11-08T14:00:00	2	Temperatura media	20.2
112738	7	Sololá	713	San Lucas Tolimán	10	San Lucas Tolimán	3	Marzo	2023-03-17T00:00:00	2024-11-08T14:00:00	4	Temperatura máxima	21.8
112739	7	Sololá	713	San Lucas Tolimán	10	San Lucas Tolimán	3	Marzo	2023-03-17T00:00:00	2024-11-08T14:00:00	3	Temperatura mínima	20.2
112740	7	Sololá	713	San Lucas Tolimán	10	San Lucas Tolimán	3	Marzo	2023-03-17T00:00:00	2024-11-08T14:00:00	5	Humedad	63
112741	7	Sololá	713	San Lucas Tolimán	10	San Lucas Tolimán	3	Marzo	2023-03-17T00:00:00	2024-11-08T14:00:00	6	Velocidad del viento	11.3
112742	7	Sololá	713	San Lucas Tolimán	10	San Lucas Tolimán	3	Marzo	2023-03-17T00:00:00	2024-11-08T14:00:00	7	Dirección del viento	11.27
112743	7	Sololá	713	San Lucas Tolimán	10	San Lucas Tolimán	3	Marzo	2023-03-17T00:00:00	2024-11-08T14:00:00	1	Precipitación	0
112744	7	Sololá	713	San Lucas Tolimán	10	San Lucas Tolimán	3	Marzo	2023-03-17T00:00:00	2024-11-08T14:00:00	8	Radiación solar	467
112745	7	Sololá	713	San Lucas Tolimán	10	San Lucas Tolimán	3	Marzo	2023-03-17T00:00:00	2024-11-08T15:00:00	2	Temperatura media	20.1
112746	7	Sololá	713	San Lucas Tolimán	10	San Lucas Tolimán	3	Marzo	2023-03-17T00:00:00	2024-11-08T15:00:00	4	Temperatura máxima	20.2
112747	7	Sololá	713	San Lucas Tolimán	10	San Lucas Tolimán	3	Marzo	2023-03-17T00:00:00	2024-11-08T15:00:00	3	Temperatura mínima	19.6
112748	7	Sololá	713	San Lucas Tolimán	10	San Lucas Tolimán	3	Marzo	2023-03-17T00:00:00	2024-11-08T15:00:00	5	Humedad	58
112749	7	Sololá	713	San Lucas Tolimán	10	San Lucas Tolimán	3	Marzo	2023-03-17T00:00:00	2024-11-08T15:00:00	6	Velocidad del viento	6.4
112750	7	Sololá	713	San Lucas Tolimán	10	San Lucas Tolimán	3	Marzo	2023-03-17T00:00:00	2024-11-08T15:00:00	7	Dirección del viento	6.44
112751	7	Sololá	713	San Lucas Tolimán	10	San Lucas Tolimán	3	Marzo	2023-03-17T00:00:00	2024-11-08T15:00:00	1	Precipitación	0
112752	7	Sololá	713	San Lucas Tolimán	10	San Lucas Tolimán	3	Marzo	2023-03-17T00:00:00	2024-11-08T15:00:00	8	Radiación solar	265
112753	7	Sololá	713	San Lucas Tolimán	10	San Lucas Tolimán	3	Marzo	2023-03-17T00:00:00	2024-11-08T16:00:00	2	Temperatura media	19.7
112754	7	Sololá	713	San Lucas Tolimán	10	San Lucas Tolimán	3	Marzo	2023-03-17T00:00:00	2024-11-08T16:00:00	4	Temperatura máxima	20.7
112755	7	Sololá	713	San Lucas Tolimán	10	San Lucas Tolimán	3	Marzo	2023-03-17T00:00:00	2024-11-08T16:00:00	3	Temperatura mínima	19.6
112756	7	Sololá	713	San Lucas Tolimán	10	San Lucas Tolimán	3	Marzo	2023-03-17T00:00:00	2024-11-08T16:00:00	5	Humedad	57
112757	7	Sololá	713	San Lucas Tolimán	10	San Lucas Tolimán	3	Marzo	2023-03-17T00:00:00	2024-11-08T16:00:00	6	Velocidad del viento	4.8
112758	7	Sololá	713	San Lucas Tolimán	10	San Lucas Tolimán	3	Marzo	2023-03-17T00:00:00	2024-11-08T16:00:00	7	Dirección del viento	4.83
112759	7	Sololá	713	San Lucas Tolimán	10	San Lucas Tolimán	3	Marzo	2023-03-17T00:00:00	2024-11-08T16:00:00	1	Precipitación	0
112760	7	Sololá	713	San Lucas Tolimán	10	San Lucas Tolimán	3	Marzo	2023-03-17T00:00:00	2024-11-08T16:00:00	8	Radiación solar	147
112761	7	Sololá	713	San Lucas Tolimán	10	San Lucas Tolimán	3	Marzo	2023-03-17T00:00:00	2024-11-08T17:00:00	2	Temperatura media	17.8
112762	7	Sololá	713	San Lucas Tolimán	10	San Lucas Tolimán	3	Marzo	2023-03-17T00:00:00	2024-11-08T17:00:00	4	Temperatura máxima	19.7
112763	7	Sololá	713	San Lucas Tolimán	10	San Lucas Tolimán	3	Marzo	2023-03-17T00:00:00	2024-11-08T17:00:00	3	Temperatura mínima	17.7
112764	7	Sololá	713	San Lucas Tolimán	10	San Lucas Tolimán	3	Marzo	2023-03-17T00:00:00	2024-11-08T17:00:00	5	Humedad	63
112765	7	Sololá	713	San Lucas Tolimán	10	San Lucas Tolimán	3	Marzo	2023-03-17T00:00:00	2024-11-08T17:00:00	6	Velocidad del viento	4.8
112766	7	Sololá	713	San Lucas Tolimán	10	San Lucas Tolimán	3	Marzo	2023-03-17T00:00:00	2024-11-08T17:00:00	7	Dirección del viento	4.83
112767	7	Sololá	713	San Lucas Tolimán	10	San Lucas Tolimán	3	Marzo	2023-03-17T00:00:00	2024-11-08T17:00:00	1	Precipitación	0
112768	7	Sololá	713	San Lucas Tolimán	10	San Lucas Tolimán	3	Marzo	2023-03-17T00:00:00	2024-11-08T17:00:00	8	Radiación solar	45
112769	7	Sololá	713	San Lucas Tolimán	10	San Lucas Tolimán	3	Marzo	2023-03-17T00:00:00	2024-11-08T18:00:00	2	Temperatura media	16.9
112770	7	Sololá	713	San Lucas Tolimán	10	San Lucas Tolimán	3	Marzo	2023-03-17T00:00:00	2024-11-08T18:00:00	4	Temperatura máxima	17.8
112771	7	Sololá	713	San Lucas Tolimán	10	San Lucas Tolimán	3	Marzo	2023-03-17T00:00:00	2024-11-08T18:00:00	3	Temperatura mínima	16.9
112772	7	Sololá	713	San Lucas Tolimán	10	San Lucas Tolimán	3	Marzo	2023-03-17T00:00:00	2024-11-08T18:00:00	5	Humedad	66
112773	7	Sololá	713	San Lucas Tolimán	10	San Lucas Tolimán	3	Marzo	2023-03-17T00:00:00	2024-11-08T18:00:00	6	Velocidad del viento	8
112774	7	Sololá	713	San Lucas Tolimán	10	San Lucas Tolimán	3	Marzo	2023-03-17T00:00:00	2024-11-08T18:00:00	7	Dirección del viento	8.05
112775	7	Sololá	713	San Lucas Tolimán	10	San Lucas Tolimán	3	Marzo	2023-03-17T00:00:00	2024-11-08T18:00:00	1	Precipitación	0.4
112776	7	Sololá	713	San Lucas Tolimán	10	San Lucas Tolimán	3	Marzo	2023-03-17T00:00:00	2024-11-08T18:00:00	8	Radiación solar	57
112777	7	Sololá	713	San Lucas Tolimán	10	San Lucas Tolimán	3	Marzo	2023-03-17T00:00:00	2024-11-08T19:00:00	2	Temperatura media	17.1
112778	7	Sololá	713	San Lucas Tolimán	10	San Lucas Tolimán	3	Marzo	2023-03-17T00:00:00	2024-11-08T19:00:00	4	Temperatura máxima	17.1
112779	7	Sololá	713	San Lucas Tolimán	10	San Lucas Tolimán	3	Marzo	2023-03-17T00:00:00	2024-11-08T19:00:00	3	Temperatura mínima	16.8
112780	7	Sololá	713	San Lucas Tolimán	10	San Lucas Tolimán	3	Marzo	2023-03-17T00:00:00	2024-11-08T19:00:00	5	Humedad	63
112781	7	Sololá	713	San Lucas Tolimán	10	San Lucas Tolimán	3	Marzo	2023-03-17T00:00:00	2024-11-08T19:00:00	6	Velocidad del viento	8
112782	7	Sololá	713	San Lucas Tolimán	10	San Lucas Tolimán	3	Marzo	2023-03-17T00:00:00	2024-11-08T19:00:00	7	Dirección del viento	8.05
112783	7	Sololá	713	San Lucas Tolimán	10	San Lucas Tolimán	3	Marzo	2023-03-17T00:00:00	2024-11-08T19:00:00	1	Precipitación	0
112784	7	Sololá	713	San Lucas Tolimán	10	San Lucas Tolimán	3	Marzo	2023-03-17T00:00:00	2024-11-08T19:00:00	8	Radiación solar	0
112785	7	Sololá	713	San Lucas Tolimán	10	San Lucas Tolimán	3	Marzo	2023-03-17T00:00:00	2024-11-08T20:00:00	2	Temperatura media	16.8
112786	7	Sololá	713	San Lucas Tolimán	10	San Lucas Tolimán	3	Marzo	2023-03-17T00:00:00	2024-11-08T20:00:00	4	Temperatura máxima	17.3
112787	7	Sololá	713	San Lucas Tolimán	10	San Lucas Tolimán	3	Marzo	2023-03-17T00:00:00	2024-11-08T20:00:00	3	Temperatura mínima	16.8
112788	7	Sololá	713	San Lucas Tolimán	10	San Lucas Tolimán	3	Marzo	2023-03-17T00:00:00	2024-11-08T20:00:00	5	Humedad	63
112789	7	Sololá	713	San Lucas Tolimán	10	San Lucas Tolimán	3	Marzo	2023-03-17T00:00:00	2024-11-08T20:00:00	6	Velocidad del viento	4.8
112790	7	Sololá	713	San Lucas Tolimán	10	San Lucas Tolimán	3	Marzo	2023-03-17T00:00:00	2024-11-08T20:00:00	7	Dirección del viento	4.83
112791	7	Sololá	713	San Lucas Tolimán	10	San Lucas Tolimán	3	Marzo	2023-03-17T00:00:00	2024-11-08T20:00:00	1	Precipitación	0
112792	7	Sololá	713	San Lucas Tolimán	10	San Lucas Tolimán	3	Marzo	2023-03-17T00:00:00	2024-11-08T20:00:00	8	Radiación solar	0
112793	7	Sololá	713	San Lucas Tolimán	10	San Lucas Tolimán	3	Marzo	2023-03-17T00:00:00	2024-11-08T21:00:00	2	Temperatura media	16.6
112794	7	Sololá	713	San Lucas Tolimán	10	San Lucas Tolimán	3	Marzo	2023-03-17T00:00:00	2024-11-08T21:00:00	4	Temperatura máxima	16.8
112795	7	Sololá	713	San Lucas Tolimán	10	San Lucas Tolimán	3	Marzo	2023-03-17T00:00:00	2024-11-08T21:00:00	3	Temperatura mínima	16.5
112796	7	Sololá	713	San Lucas Tolimán	10	San Lucas Tolimán	3	Marzo	2023-03-17T00:00:00	2024-11-08T21:00:00	5	Humedad	63
112797	7	Sololá	713	San Lucas Tolimán	10	San Lucas Tolimán	3	Marzo	2023-03-17T00:00:00	2024-11-08T21:00:00	6	Velocidad del viento	4.8
112798	7	Sololá	713	San Lucas Tolimán	10	San Lucas Tolimán	3	Marzo	2023-03-17T00:00:00	2024-11-08T21:00:00	7	Dirección del viento	4.83
112799	7	Sololá	713	San Lucas Tolimán	10	San Lucas Tolimán	3	Marzo	2023-03-17T00:00:00	2024-11-08T21:00:00	1	Precipitación	0
112800	7	Sololá	713	San Lucas Tolimán	10	San Lucas Tolimán	3	Marzo	2023-03-17T00:00:00	2024-11-08T21:00:00	8	Radiación solar	0
112801	7	Sololá	713	San Lucas Tolimán	10	San Lucas Tolimán	3	Marzo	2023-03-17T00:00:00	2024-11-08T22:00:00	2	Temperatura media	16.3
112802	7	Sololá	713	San Lucas Tolimán	10	San Lucas Tolimán	3	Marzo	2023-03-17T00:00:00	2024-11-08T22:00:00	4	Temperatura máxima	16.6
112803	7	Sololá	713	San Lucas Tolimán	10	San Lucas Tolimán	3	Marzo	2023-03-17T00:00:00	2024-11-08T22:00:00	3	Temperatura mínima	16.2
112804	7	Sololá	713	San Lucas Tolimán	10	San Lucas Tolimán	3	Marzo	2023-03-17T00:00:00	2024-11-08T22:00:00	5	Humedad	61
112805	7	Sololá	713	San Lucas Tolimán	10	San Lucas Tolimán	3	Marzo	2023-03-17T00:00:00	2024-11-08T22:00:00	6	Velocidad del viento	4.8
112806	7	Sololá	713	San Lucas Tolimán	10	San Lucas Tolimán	3	Marzo	2023-03-17T00:00:00	2024-11-08T22:00:00	7	Dirección del viento	4.83
112807	7	Sololá	713	San Lucas Tolimán	10	San Lucas Tolimán	3	Marzo	2023-03-17T00:00:00	2024-11-08T22:00:00	1	Precipitación	0
112808	7	Sololá	713	San Lucas Tolimán	10	San Lucas Tolimán	3	Marzo	2023-03-17T00:00:00	2024-11-08T22:00:00	8	Radiación solar	0
112809	7	Sololá	713	San Lucas Tolimán	10	San Lucas Tolimán	3	Marzo	2023-03-17T00:00:00	2024-11-08T23:00:00	2	Temperatura media	15.9
112810	7	Sololá	713	San Lucas Tolimán	10	San Lucas Tolimán	3	Marzo	2023-03-17T00:00:00	2024-11-08T23:00:00	4	Temperatura máxima	16.3
112811	7	Sololá	713	San Lucas Tolimán	10	San Lucas Tolimán	3	Marzo	2023-03-17T00:00:00	2024-11-08T23:00:00	3	Temperatura mínima	15.9
112812	7	Sololá	713	San Lucas Tolimán	10	San Lucas Tolimán	3	Marzo	2023-03-17T00:00:00	2024-11-08T23:00:00	5	Humedad	62
112813	7	Sololá	713	San Lucas Tolimán	10	San Lucas Tolimán	3	Marzo	2023-03-17T00:00:00	2024-11-08T23:00:00	6	Velocidad del viento	4.8
112814	7	Sololá	713	San Lucas Tolimán	10	San Lucas Tolimán	3	Marzo	2023-03-17T00:00:00	2024-11-08T23:00:00	7	Dirección del viento	4.83
112815	7	Sololá	713	San Lucas Tolimán	10	San Lucas Tolimán	3	Marzo	2023-03-17T00:00:00	2024-11-08T23:00:00	1	Precipitación	0
112816	7	Sololá	713	San Lucas Tolimán	10	San Lucas Tolimán	3	Marzo	2023-03-17T00:00:00	2024-11-08T23:00:00	8	Radiación solar	0
112817	7	Sololá	713	San Lucas Tolimán	10	San Lucas Tolimán	3	Marzo	2023-03-18T00:00:00	2024-11-08T00:00:00	2	Temperatura media	15.2
112818	7	Sololá	713	San Lucas Tolimán	10	San Lucas Tolimán	3	Marzo	2023-03-18T00:00:00	2024-11-08T00:00:00	4	Temperatura máxima	15.9
112819	7	Sololá	713	San Lucas Tolimán	10	San Lucas Tolimán	3	Marzo	2023-03-18T00:00:00	2024-11-08T00:00:00	3	Temperatura mínima	15.2
112820	7	Sololá	713	San Lucas Tolimán	10	San Lucas Tolimán	3	Marzo	2023-03-18T00:00:00	2024-11-08T00:00:00	5	Humedad	62
112821	7	Sololá	713	San Lucas Tolimán	10	San Lucas Tolimán	3	Marzo	2023-03-18T00:00:00	2024-11-08T00:00:00	6	Velocidad del viento	4.8
112822	7	Sololá	713	San Lucas Tolimán	10	San Lucas Tolimán	3	Marzo	2023-03-18T00:00:00	2024-11-08T00:00:00	7	Dirección del viento	4.83
112823	7	Sololá	713	San Lucas Tolimán	10	San Lucas Tolimán	3	Marzo	2023-03-18T00:00:00	2024-11-08T00:00:00	1	Precipitación	0
112824	7	Sololá	713	San Lucas Tolimán	10	San Lucas Tolimán	3	Marzo	2023-03-18T00:00:00	2024-11-08T00:00:00	8	Radiación solar	0
112825	7	Sololá	713	San Lucas Tolimán	10	San Lucas Tolimán	3	Marzo	2023-03-18T00:00:00	2024-11-08T01:00:00	2	Temperatura media	14.9
112826	7	Sololá	713	San Lucas Tolimán	10	San Lucas Tolimán	3	Marzo	2023-03-18T00:00:00	2024-11-08T01:00:00	4	Temperatura máxima	15.2
112827	7	Sololá	713	San Lucas Tolimán	10	San Lucas Tolimán	3	Marzo	2023-03-18T00:00:00	2024-11-08T01:00:00	3	Temperatura mínima	14.9
112828	7	Sololá	713	San Lucas Tolimán	10	San Lucas Tolimán	3	Marzo	2023-03-18T00:00:00	2024-11-08T01:00:00	5	Humedad	62
112829	7	Sololá	713	San Lucas Tolimán	10	San Lucas Tolimán	3	Marzo	2023-03-18T00:00:00	2024-11-08T01:00:00	6	Velocidad del viento	4.8
112830	7	Sololá	713	San Lucas Tolimán	10	San Lucas Tolimán	3	Marzo	2023-03-18T00:00:00	2024-11-08T01:00:00	7	Dirección del viento	4.83
112831	7	Sololá	713	San Lucas Tolimán	10	San Lucas Tolimán	3	Marzo	2023-03-18T00:00:00	2024-11-08T01:00:00	1	Precipitación	0
112832	7	Sololá	713	San Lucas Tolimán	10	San Lucas Tolimán	3	Marzo	2023-03-18T00:00:00	2024-11-08T01:00:00	8	Radiación solar	0
112833	7	Sololá	713	San Lucas Tolimán	10	San Lucas Tolimán	3	Marzo	2023-03-18T00:00:00	2024-11-08T02:00:00	2	Temperatura media	15.6
112834	7	Sololá	713	San Lucas Tolimán	10	San Lucas Tolimán	3	Marzo	2023-03-18T00:00:00	2024-11-08T02:00:00	4	Temperatura máxima	15.6
112835	7	Sololá	713	San Lucas Tolimán	10	San Lucas Tolimán	3	Marzo	2023-03-18T00:00:00	2024-11-08T02:00:00	3	Temperatura mínima	14.9
112836	7	Sololá	713	San Lucas Tolimán	10	San Lucas Tolimán	3	Marzo	2023-03-18T00:00:00	2024-11-08T02:00:00	5	Humedad	62
112837	7	Sololá	713	San Lucas Tolimán	10	San Lucas Tolimán	3	Marzo	2023-03-18T00:00:00	2024-11-08T02:00:00	6	Velocidad del viento	1.6
112838	7	Sololá	713	San Lucas Tolimán	10	San Lucas Tolimán	3	Marzo	2023-03-18T00:00:00	2024-11-08T02:00:00	7	Dirección del viento	1.61
112839	7	Sololá	713	San Lucas Tolimán	10	San Lucas Tolimán	3	Marzo	2023-03-18T00:00:00	2024-11-08T02:00:00	1	Precipitación	0
112840	7	Sololá	713	San Lucas Tolimán	10	San Lucas Tolimán	3	Marzo	2023-03-18T00:00:00	2024-11-08T02:00:00	8	Radiación solar	0
112841	7	Sololá	713	San Lucas Tolimán	10	San Lucas Tolimán	3	Marzo	2023-03-18T00:00:00	2024-11-08T03:00:00	2	Temperatura media	15.8
112842	7	Sololá	713	San Lucas Tolimán	10	San Lucas Tolimán	3	Marzo	2023-03-18T00:00:00	2024-11-08T03:00:00	4	Temperatura máxima	15.8
112843	7	Sololá	713	San Lucas Tolimán	10	San Lucas Tolimán	3	Marzo	2023-03-18T00:00:00	2024-11-08T03:00:00	3	Temperatura mínima	15.6
112844	7	Sololá	713	San Lucas Tolimán	10	San Lucas Tolimán	3	Marzo	2023-03-18T00:00:00	2024-11-08T03:00:00	5	Humedad	62
112845	7	Sololá	713	San Lucas Tolimán	10	San Lucas Tolimán	3	Marzo	2023-03-18T00:00:00	2024-11-08T03:00:00	6	Velocidad del viento	0
112846	7	Sololá	713	San Lucas Tolimán	10	San Lucas Tolimán	3	Marzo	2023-03-18T00:00:00	2024-11-08T03:00:00	7	Dirección del viento	0
112847	7	Sololá	713	San Lucas Tolimán	10	San Lucas Tolimán	3	Marzo	2023-03-18T00:00:00	2024-11-08T03:00:00	1	Precipitación	0
112848	7	Sololá	713	San Lucas Tolimán	10	San Lucas Tolimán	3	Marzo	2023-03-18T00:00:00	2024-11-08T03:00:00	8	Radiación solar	0
112849	7	Sololá	713	San Lucas Tolimán	10	San Lucas Tolimán	3	Marzo	2023-03-18T00:00:00	2024-11-08T04:00:00	2	Temperatura media	15.9
112850	7	Sololá	713	San Lucas Tolimán	10	San Lucas Tolimán	3	Marzo	2023-03-18T00:00:00	2024-11-08T04:00:00	4	Temperatura máxima	16
112851	7	Sololá	713	San Lucas Tolimán	10	San Lucas Tolimán	3	Marzo	2023-03-18T00:00:00	2024-11-08T04:00:00	3	Temperatura mínima	15.8
112852	7	Sololá	713	San Lucas Tolimán	10	San Lucas Tolimán	3	Marzo	2023-03-18T00:00:00	2024-11-08T04:00:00	5	Humedad	62
112853	7	Sololá	713	San Lucas Tolimán	10	San Lucas Tolimán	3	Marzo	2023-03-18T00:00:00	2024-11-08T04:00:00	6	Velocidad del viento	0
112854	7	Sololá	713	San Lucas Tolimán	10	San Lucas Tolimán	3	Marzo	2023-03-18T00:00:00	2024-11-08T04:00:00	7	Dirección del viento	0
112855	7	Sololá	713	San Lucas Tolimán	10	San Lucas Tolimán	3	Marzo	2023-03-18T00:00:00	2024-11-08T04:00:00	1	Precipitación	0
112856	7	Sololá	713	San Lucas Tolimán	10	San Lucas Tolimán	3	Marzo	2023-03-18T00:00:00	2024-11-08T04:00:00	8	Radiación solar	0
112857	7	Sololá	713	San Lucas Tolimán	10	San Lucas Tolimán	3	Marzo	2023-03-18T00:00:00	2024-11-08T05:00:00	2	Temperatura media	15.4
112858	7	Sololá	713	San Lucas Tolimán	10	San Lucas Tolimán	3	Marzo	2023-03-18T00:00:00	2024-11-08T05:00:00	4	Temperatura máxima	16.1
112859	7	Sololá	713	San Lucas Tolimán	10	San Lucas Tolimán	3	Marzo	2023-03-18T00:00:00	2024-11-08T05:00:00	3	Temperatura mínima	15.3
112860	7	Sololá	713	San Lucas Tolimán	10	San Lucas Tolimán	3	Marzo	2023-03-18T00:00:00	2024-11-08T05:00:00	5	Humedad	62
112861	7	Sololá	713	San Lucas Tolimán	10	San Lucas Tolimán	3	Marzo	2023-03-18T00:00:00	2024-11-08T05:00:00	6	Velocidad del viento	0
112862	7	Sololá	713	San Lucas Tolimán	10	San Lucas Tolimán	3	Marzo	2023-03-18T00:00:00	2024-11-08T05:00:00	7	Dirección del viento	0
112863	7	Sololá	713	San Lucas Tolimán	10	San Lucas Tolimán	3	Marzo	2023-03-18T00:00:00	2024-11-08T05:00:00	1	Precipitación	0
112864	7	Sololá	713	San Lucas Tolimán	10	San Lucas Tolimán	3	Marzo	2023-03-18T00:00:00	2024-11-08T05:00:00	8	Radiación solar	0
112865	7	Sololá	713	San Lucas Tolimán	10	San Lucas Tolimán	3	Marzo	2023-03-18T00:00:00	2024-11-08T06:00:00	2	Temperatura media	15.2
112866	7	Sololá	713	San Lucas Tolimán	10	San Lucas Tolimán	3	Marzo	2023-03-18T00:00:00	2024-11-08T06:00:00	4	Temperatura máxima	15.6
112867	7	Sololá	713	San Lucas Tolimán	10	San Lucas Tolimán	3	Marzo	2023-03-18T00:00:00	2024-11-08T06:00:00	3	Temperatura mínima	15
112868	7	Sololá	713	San Lucas Tolimán	10	San Lucas Tolimán	3	Marzo	2023-03-18T00:00:00	2024-11-08T06:00:00	5	Humedad	59
112869	7	Sololá	713	San Lucas Tolimán	10	San Lucas Tolimán	3	Marzo	2023-03-18T00:00:00	2024-11-08T06:00:00	6	Velocidad del viento	3.2
112870	7	Sololá	713	San Lucas Tolimán	10	San Lucas Tolimán	3	Marzo	2023-03-18T00:00:00	2024-11-08T06:00:00	7	Dirección del viento	3.22
112871	7	Sololá	713	San Lucas Tolimán	10	San Lucas Tolimán	3	Marzo	2023-03-18T00:00:00	2024-11-08T06:00:00	1	Precipitación	0
112872	7	Sololá	713	San Lucas Tolimán	10	San Lucas Tolimán	3	Marzo	2023-03-18T00:00:00	2024-11-08T06:00:00	8	Radiación solar	0
112873	7	Sololá	713	San Lucas Tolimán	10	San Lucas Tolimán	3	Marzo	2023-03-18T00:00:00	2024-11-08T07:00:00	2	Temperatura media	14
112874	7	Sololá	713	San Lucas Tolimán	10	San Lucas Tolimán	3	Marzo	2023-03-18T00:00:00	2024-11-08T07:00:00	4	Temperatura máxima	15.3
112875	7	Sololá	713	San Lucas Tolimán	10	San Lucas Tolimán	3	Marzo	2023-03-18T00:00:00	2024-11-08T07:00:00	3	Temperatura mínima	13.9
112876	7	Sololá	713	San Lucas Tolimán	10	San Lucas Tolimán	3	Marzo	2023-03-18T00:00:00	2024-11-08T07:00:00	5	Humedad	62
112877	7	Sololá	713	San Lucas Tolimán	10	San Lucas Tolimán	3	Marzo	2023-03-18T00:00:00	2024-11-08T07:00:00	6	Velocidad del viento	1.6
112878	7	Sololá	713	San Lucas Tolimán	10	San Lucas Tolimán	3	Marzo	2023-03-18T00:00:00	2024-11-08T07:00:00	7	Dirección del viento	1.61
112879	7	Sololá	713	San Lucas Tolimán	10	San Lucas Tolimán	3	Marzo	2023-03-18T00:00:00	2024-11-08T07:00:00	1	Precipitación	0
112880	7	Sololá	713	San Lucas Tolimán	10	San Lucas Tolimán	3	Marzo	2023-03-18T00:00:00	2024-11-08T07:00:00	8	Radiación solar	16
112881	7	Sololá	713	San Lucas Tolimán	10	San Lucas Tolimán	3	Marzo	2023-03-18T00:00:00	2024-11-08T08:00:00	2	Temperatura media	17.8
112882	7	Sololá	713	San Lucas Tolimán	10	San Lucas Tolimán	3	Marzo	2023-03-18T00:00:00	2024-11-08T08:00:00	4	Temperatura máxima	17.8
112883	7	Sololá	713	San Lucas Tolimán	10	San Lucas Tolimán	3	Marzo	2023-03-18T00:00:00	2024-11-08T08:00:00	3	Temperatura mínima	14
112884	7	Sololá	713	San Lucas Tolimán	10	San Lucas Tolimán	3	Marzo	2023-03-18T00:00:00	2024-11-08T08:00:00	5	Humedad	57
112885	7	Sololá	713	San Lucas Tolimán	10	San Lucas Tolimán	3	Marzo	2023-03-18T00:00:00	2024-11-08T08:00:00	6	Velocidad del viento	3.2
112886	7	Sololá	713	San Lucas Tolimán	10	San Lucas Tolimán	3	Marzo	2023-03-18T00:00:00	2024-11-08T08:00:00	7	Dirección del viento	3.22
112887	7	Sololá	713	San Lucas Tolimán	10	San Lucas Tolimán	3	Marzo	2023-03-18T00:00:00	2024-11-08T08:00:00	1	Precipitación	0
112888	7	Sololá	713	San Lucas Tolimán	10	San Lucas Tolimán	3	Marzo	2023-03-18T00:00:00	2024-11-08T08:00:00	8	Radiación solar	201
112889	7	Sololá	713	San Lucas Tolimán	10	San Lucas Tolimán	3	Marzo	2023-03-18T00:00:00	2024-11-08T09:00:00	2	Temperatura media	19.9
112890	7	Sololá	713	San Lucas Tolimán	10	San Lucas Tolimán	3	Marzo	2023-03-18T00:00:00	2024-11-08T09:00:00	4	Temperatura máxima	20
112891	7	Sololá	713	San Lucas Tolimán	10	San Lucas Tolimán	3	Marzo	2023-03-18T00:00:00	2024-11-08T09:00:00	3	Temperatura mínima	17.7
112892	7	Sololá	713	San Lucas Tolimán	10	San Lucas Tolimán	3	Marzo	2023-03-18T00:00:00	2024-11-08T09:00:00	5	Humedad	55
112893	7	Sololá	713	San Lucas Tolimán	10	San Lucas Tolimán	3	Marzo	2023-03-18T00:00:00	2024-11-08T09:00:00	6	Velocidad del viento	4.8
112894	7	Sololá	713	San Lucas Tolimán	10	San Lucas Tolimán	3	Marzo	2023-03-18T00:00:00	2024-11-08T09:00:00	7	Dirección del viento	4.83
112895	7	Sololá	713	San Lucas Tolimán	10	San Lucas Tolimán	3	Marzo	2023-03-18T00:00:00	2024-11-08T09:00:00	1	Precipitación	0
112896	7	Sololá	713	San Lucas Tolimán	10	San Lucas Tolimán	3	Marzo	2023-03-18T00:00:00	2024-11-08T09:00:00	8	Radiación solar	526
112897	7	Sololá	713	San Lucas Tolimán	10	San Lucas Tolimán	3	Marzo	2023-03-18T00:00:00	2024-11-08T10:00:00	2	Temperatura media	21.8
112898	7	Sololá	713	San Lucas Tolimán	10	San Lucas Tolimán	3	Marzo	2023-03-18T00:00:00	2024-11-08T10:00:00	4	Temperatura máxima	21.8
112899	7	Sololá	713	San Lucas Tolimán	10	San Lucas Tolimán	3	Marzo	2023-03-18T00:00:00	2024-11-08T10:00:00	3	Temperatura mínima	19.9
112900	7	Sololá	713	San Lucas Tolimán	10	San Lucas Tolimán	3	Marzo	2023-03-18T00:00:00	2024-11-08T10:00:00	5	Humedad	53
112901	7	Sololá	713	San Lucas Tolimán	10	San Lucas Tolimán	3	Marzo	2023-03-18T00:00:00	2024-11-08T10:00:00	6	Velocidad del viento	6.4
112902	7	Sololá	713	San Lucas Tolimán	10	San Lucas Tolimán	3	Marzo	2023-03-18T00:00:00	2024-11-08T10:00:00	7	Dirección del viento	6.44
112903	7	Sololá	713	San Lucas Tolimán	10	San Lucas Tolimán	3	Marzo	2023-03-18T00:00:00	2024-11-08T10:00:00	1	Precipitación	0
112904	7	Sololá	713	San Lucas Tolimán	10	San Lucas Tolimán	3	Marzo	2023-03-18T00:00:00	2024-11-08T10:00:00	8	Radiación solar	759
112905	7	Sololá	713	San Lucas Tolimán	10	San Lucas Tolimán	3	Marzo	2023-03-18T00:00:00	2024-11-08T11:00:00	2	Temperatura media	21.5
112906	7	Sololá	713	San Lucas Tolimán	10	San Lucas Tolimán	3	Marzo	2023-03-18T00:00:00	2024-11-08T11:00:00	4	Temperatura máxima	21.8
112907	7	Sololá	713	San Lucas Tolimán	10	San Lucas Tolimán	3	Marzo	2023-03-18T00:00:00	2024-11-08T11:00:00	3	Temperatura mínima	21.2
112908	7	Sololá	713	San Lucas Tolimán	10	San Lucas Tolimán	3	Marzo	2023-03-18T00:00:00	2024-11-08T11:00:00	5	Humedad	57
112909	7	Sololá	713	San Lucas Tolimán	10	San Lucas Tolimán	3	Marzo	2023-03-18T00:00:00	2024-11-08T11:00:00	6	Velocidad del viento	9.7
112910	7	Sololá	713	San Lucas Tolimán	10	San Lucas Tolimán	3	Marzo	2023-03-18T00:00:00	2024-11-08T11:00:00	7	Dirección del viento	9.66
112911	7	Sololá	713	San Lucas Tolimán	10	San Lucas Tolimán	3	Marzo	2023-03-18T00:00:00	2024-11-08T11:00:00	1	Precipitación	0
112912	7	Sololá	713	San Lucas Tolimán	10	San Lucas Tolimán	3	Marzo	2023-03-18T00:00:00	2024-11-08T11:00:00	8	Radiación solar	968
112913	7	Sololá	713	San Lucas Tolimán	10	San Lucas Tolimán	3	Marzo	2023-03-18T00:00:00	2024-11-08T12:00:00	2	Temperatura media	22.2
112914	7	Sololá	713	San Lucas Tolimán	10	San Lucas Tolimán	3	Marzo	2023-03-18T00:00:00	2024-11-08T12:00:00	4	Temperatura máxima	22.4
112915	7	Sololá	713	San Lucas Tolimán	10	San Lucas Tolimán	3	Marzo	2023-03-18T00:00:00	2024-11-08T12:00:00	3	Temperatura mínima	21.2
112916	7	Sololá	713	San Lucas Tolimán	10	San Lucas Tolimán	3	Marzo	2023-03-18T00:00:00	2024-11-08T12:00:00	5	Humedad	55
112917	7	Sololá	713	San Lucas Tolimán	10	San Lucas Tolimán	3	Marzo	2023-03-18T00:00:00	2024-11-08T12:00:00	6	Velocidad del viento	11.3
112918	7	Sololá	713	San Lucas Tolimán	10	San Lucas Tolimán	3	Marzo	2023-03-18T00:00:00	2024-11-08T12:00:00	7	Dirección del viento	11.27
112919	7	Sololá	713	San Lucas Tolimán	10	San Lucas Tolimán	3	Marzo	2023-03-18T00:00:00	2024-11-08T12:00:00	1	Precipitación	0
112920	7	Sololá	713	San Lucas Tolimán	10	San Lucas Tolimán	3	Marzo	2023-03-18T00:00:00	2024-11-08T12:00:00	8	Radiación solar	1076
112921	7	Sololá	713	San Lucas Tolimán	10	San Lucas Tolimán	3	Marzo	2023-03-18T00:00:00	2024-11-08T13:00:00	2	Temperatura media	22.4
112922	7	Sololá	713	San Lucas Tolimán	10	San Lucas Tolimán	3	Marzo	2023-03-18T00:00:00	2024-11-08T13:00:00	4	Temperatura máxima	22.4
112923	7	Sololá	713	San Lucas Tolimán	10	San Lucas Tolimán	3	Marzo	2023-03-18T00:00:00	2024-11-08T13:00:00	3	Temperatura mínima	21.6
112924	7	Sololá	713	San Lucas Tolimán	10	San Lucas Tolimán	3	Marzo	2023-03-18T00:00:00	2024-11-08T13:00:00	5	Humedad	58
112925	7	Sololá	713	San Lucas Tolimán	10	San Lucas Tolimán	3	Marzo	2023-03-18T00:00:00	2024-11-08T13:00:00	6	Velocidad del viento	9.7
112926	7	Sololá	713	San Lucas Tolimán	10	San Lucas Tolimán	3	Marzo	2023-03-18T00:00:00	2024-11-08T13:00:00	7	Dirección del viento	9.66
112927	7	Sololá	713	San Lucas Tolimán	10	San Lucas Tolimán	3	Marzo	2023-03-18T00:00:00	2024-11-08T13:00:00	1	Precipitación	0
112928	7	Sololá	713	San Lucas Tolimán	10	San Lucas Tolimán	3	Marzo	2023-03-18T00:00:00	2024-11-08T13:00:00	8	Radiación solar	1181
112929	7	Sololá	713	San Lucas Tolimán	10	San Lucas Tolimán	3	Marzo	2023-03-18T00:00:00	2024-11-08T14:00:00	2	Temperatura media	22.6
112930	7	Sololá	713	San Lucas Tolimán	10	San Lucas Tolimán	3	Marzo	2023-03-18T00:00:00	2024-11-08T14:00:00	4	Temperatura máxima	23.3
112931	7	Sololá	713	San Lucas Tolimán	10	San Lucas Tolimán	3	Marzo	2023-03-18T00:00:00	2024-11-08T14:00:00	3	Temperatura mínima	22.2
112932	7	Sololá	713	San Lucas Tolimán	10	San Lucas Tolimán	3	Marzo	2023-03-18T00:00:00	2024-11-08T14:00:00	5	Humedad	57
112933	7	Sololá	713	San Lucas Tolimán	10	San Lucas Tolimán	3	Marzo	2023-03-18T00:00:00	2024-11-08T14:00:00	6	Velocidad del viento	9.7
112934	7	Sololá	713	San Lucas Tolimán	10	San Lucas Tolimán	3	Marzo	2023-03-18T00:00:00	2024-11-08T14:00:00	7	Dirección del viento	9.66
112935	7	Sololá	713	San Lucas Tolimán	10	San Lucas Tolimán	3	Marzo	2023-03-18T00:00:00	2024-11-08T14:00:00	1	Precipitación	0
112936	7	Sololá	713	San Lucas Tolimán	10	San Lucas Tolimán	3	Marzo	2023-03-18T00:00:00	2024-11-08T14:00:00	8	Radiación solar	1092
112937	7	Sololá	713	San Lucas Tolimán	10	San Lucas Tolimán	3	Marzo	2023-03-18T00:00:00	2024-11-08T15:00:00	2	Temperatura media	21.4
112938	7	Sololá	713	San Lucas Tolimán	10	San Lucas Tolimán	3	Marzo	2023-03-18T00:00:00	2024-11-08T15:00:00	4	Temperatura máxima	22.6
112939	7	Sololá	713	San Lucas Tolimán	10	San Lucas Tolimán	3	Marzo	2023-03-18T00:00:00	2024-11-08T15:00:00	3	Temperatura mínima	21.3
112940	7	Sololá	713	San Lucas Tolimán	10	San Lucas Tolimán	3	Marzo	2023-03-18T00:00:00	2024-11-08T15:00:00	5	Humedad	60
112941	7	Sololá	713	San Lucas Tolimán	10	San Lucas Tolimán	3	Marzo	2023-03-18T00:00:00	2024-11-08T15:00:00	6	Velocidad del viento	9.7
112942	7	Sololá	713	San Lucas Tolimán	10	San Lucas Tolimán	3	Marzo	2023-03-18T00:00:00	2024-11-08T15:00:00	7	Dirección del viento	9.66
112943	7	Sololá	713	San Lucas Tolimán	10	San Lucas Tolimán	3	Marzo	2023-03-18T00:00:00	2024-11-08T15:00:00	1	Precipitación	0
112944	7	Sololá	713	San Lucas Tolimán	10	San Lucas Tolimán	3	Marzo	2023-03-18T00:00:00	2024-11-08T15:00:00	8	Radiación solar	512
112945	7	Sololá	713	San Lucas Tolimán	10	San Lucas Tolimán	3	Marzo	2023-03-18T00:00:00	2024-11-08T16:00:00	2	Temperatura media	19.9
112946	7	Sololá	713	San Lucas Tolimán	10	San Lucas Tolimán	3	Marzo	2023-03-18T00:00:00	2024-11-08T16:00:00	4	Temperatura máxima	21.9
112947	7	Sololá	713	San Lucas Tolimán	10	San Lucas Tolimán	3	Marzo	2023-03-18T00:00:00	2024-11-08T16:00:00	3	Temperatura mínima	19.9
112948	7	Sololá	713	San Lucas Tolimán	10	San Lucas Tolimán	3	Marzo	2023-03-18T00:00:00	2024-11-08T16:00:00	5	Humedad	61
112949	7	Sololá	713	San Lucas Tolimán	10	San Lucas Tolimán	3	Marzo	2023-03-18T00:00:00	2024-11-08T16:00:00	6	Velocidad del viento	8
112950	7	Sololá	713	San Lucas Tolimán	10	San Lucas Tolimán	3	Marzo	2023-03-18T00:00:00	2024-11-08T16:00:00	7	Dirección del viento	8.05
112951	7	Sololá	713	San Lucas Tolimán	10	San Lucas Tolimán	3	Marzo	2023-03-18T00:00:00	2024-11-08T16:00:00	1	Precipitación	0
112952	7	Sololá	713	San Lucas Tolimán	10	San Lucas Tolimán	3	Marzo	2023-03-18T00:00:00	2024-11-08T16:00:00	8	Radiación solar	187
112953	7	Sololá	713	San Lucas Tolimán	10	San Lucas Tolimán	3	Marzo	2023-03-18T00:00:00	2024-11-08T17:00:00	2	Temperatura media	18.8
112954	7	Sololá	713	San Lucas Tolimán	10	San Lucas Tolimán	3	Marzo	2023-03-18T00:00:00	2024-11-08T17:00:00	4	Temperatura máxima	19.9
112955	7	Sololá	713	San Lucas Tolimán	10	San Lucas Tolimán	3	Marzo	2023-03-18T00:00:00	2024-11-08T17:00:00	3	Temperatura mínima	18.8
112956	7	Sololá	713	San Lucas Tolimán	10	San Lucas Tolimán	3	Marzo	2023-03-18T00:00:00	2024-11-08T17:00:00	5	Humedad	62
112957	7	Sololá	713	San Lucas Tolimán	10	San Lucas Tolimán	3	Marzo	2023-03-18T00:00:00	2024-11-08T17:00:00	6	Velocidad del viento	4.8
112958	7	Sololá	713	San Lucas Tolimán	10	San Lucas Tolimán	3	Marzo	2023-03-18T00:00:00	2024-11-08T17:00:00	7	Dirección del viento	4.83
112959	7	Sololá	713	San Lucas Tolimán	10	San Lucas Tolimán	3	Marzo	2023-03-18T00:00:00	2024-11-08T17:00:00	1	Precipitación	2.4
112960	7	Sololá	713	San Lucas Tolimán	10	San Lucas Tolimán	3	Marzo	2023-03-18T00:00:00	2024-11-08T17:00:00	8	Radiación solar	50
112961	7	Sololá	713	San Lucas Tolimán	10	San Lucas Tolimán	3	Marzo	2023-03-18T00:00:00	2024-11-08T18:00:00	2	Temperatura media	17.8
112962	7	Sololá	713	San Lucas Tolimán	10	San Lucas Tolimán	3	Marzo	2023-03-18T00:00:00	2024-11-08T18:00:00	4	Temperatura máxima	18.8
112963	7	Sololá	713	San Lucas Tolimán	10	San Lucas Tolimán	3	Marzo	2023-03-18T00:00:00	2024-11-08T18:00:00	3	Temperatura mínima	17.7
112964	7	Sololá	713	San Lucas Tolimán	10	San Lucas Tolimán	3	Marzo	2023-03-18T00:00:00	2024-11-08T18:00:00	5	Humedad	60
112965	7	Sololá	713	San Lucas Tolimán	10	San Lucas Tolimán	3	Marzo	2023-03-18T00:00:00	2024-11-08T18:00:00	6	Velocidad del viento	3.2
112966	7	Sololá	713	San Lucas Tolimán	10	San Lucas Tolimán	3	Marzo	2023-03-18T00:00:00	2024-11-08T18:00:00	7	Dirección del viento	3.22
112967	7	Sololá	713	San Lucas Tolimán	10	San Lucas Tolimán	3	Marzo	2023-03-18T00:00:00	2024-11-08T18:00:00	1	Precipitación	0.8
112968	7	Sololá	713	San Lucas Tolimán	10	San Lucas Tolimán	3	Marzo	2023-03-18T00:00:00	2024-11-08T18:00:00	8	Radiación solar	42
112969	7	Sololá	713	San Lucas Tolimán	10	San Lucas Tolimán	3	Marzo	2023-03-18T00:00:00	2024-11-08T19:00:00	2	Temperatura media	16.6
112970	7	Sololá	713	San Lucas Tolimán	10	San Lucas Tolimán	3	Marzo	2023-03-18T00:00:00	2024-11-08T19:00:00	4	Temperatura máxima	17.8
112971	7	Sololá	713	San Lucas Tolimán	10	San Lucas Tolimán	3	Marzo	2023-03-18T00:00:00	2024-11-08T19:00:00	3	Temperatura mínima	16.6
112972	7	Sololá	713	San Lucas Tolimán	10	San Lucas Tolimán	3	Marzo	2023-03-18T00:00:00	2024-11-08T19:00:00	5	Humedad	61
112973	7	Sololá	713	San Lucas Tolimán	10	San Lucas Tolimán	3	Marzo	2023-03-18T00:00:00	2024-11-08T19:00:00	6	Velocidad del viento	6.4
112974	7	Sololá	713	San Lucas Tolimán	10	San Lucas Tolimán	3	Marzo	2023-03-18T00:00:00	2024-11-08T19:00:00	7	Dirección del viento	6.44
112975	7	Sololá	713	San Lucas Tolimán	10	San Lucas Tolimán	3	Marzo	2023-03-18T00:00:00	2024-11-08T19:00:00	1	Precipitación	0
112976	7	Sololá	713	San Lucas Tolimán	10	San Lucas Tolimán	3	Marzo	2023-03-18T00:00:00	2024-11-08T19:00:00	8	Radiación solar	0
112977	7	Sololá	713	San Lucas Tolimán	10	San Lucas Tolimán	3	Marzo	2023-03-18T00:00:00	2024-11-08T20:00:00	2	Temperatura media	15.5
112978	7	Sololá	713	San Lucas Tolimán	10	San Lucas Tolimán	3	Marzo	2023-03-18T00:00:00	2024-11-08T20:00:00	4	Temperatura máxima	16.6
112979	7	Sololá	713	San Lucas Tolimán	10	San Lucas Tolimán	3	Marzo	2023-03-18T00:00:00	2024-11-08T20:00:00	3	Temperatura mínima	15.4
112980	7	Sololá	713	San Lucas Tolimán	10	San Lucas Tolimán	3	Marzo	2023-03-18T00:00:00	2024-11-08T20:00:00	5	Humedad	62
112981	7	Sololá	713	San Lucas Tolimán	10	San Lucas Tolimán	3	Marzo	2023-03-18T00:00:00	2024-11-08T20:00:00	6	Velocidad del viento	1.6
112982	7	Sololá	713	San Lucas Tolimán	10	San Lucas Tolimán	3	Marzo	2023-03-18T00:00:00	2024-11-08T20:00:00	7	Dirección del viento	1.61
112983	7	Sololá	713	San Lucas Tolimán	10	San Lucas Tolimán	3	Marzo	2023-03-18T00:00:00	2024-11-08T20:00:00	1	Precipitación	0
112984	7	Sololá	713	San Lucas Tolimán	10	San Lucas Tolimán	3	Marzo	2023-03-18T00:00:00	2024-11-08T20:00:00	8	Radiación solar	0
112985	7	Sololá	713	San Lucas Tolimán	10	San Lucas Tolimán	3	Marzo	2023-03-18T00:00:00	2024-11-08T21:00:00	2	Temperatura media	15.2
112986	7	Sololá	713	San Lucas Tolimán	10	San Lucas Tolimán	3	Marzo	2023-03-18T00:00:00	2024-11-08T21:00:00	4	Temperatura máxima	15.4
112987	7	Sololá	713	San Lucas Tolimán	10	San Lucas Tolimán	3	Marzo	2023-03-18T00:00:00	2024-11-08T21:00:00	3	Temperatura mínima	14.9
112988	7	Sololá	713	San Lucas Tolimán	10	San Lucas Tolimán	3	Marzo	2023-03-18T00:00:00	2024-11-08T21:00:00	5	Humedad	62
112989	7	Sololá	713	San Lucas Tolimán	10	San Lucas Tolimán	3	Marzo	2023-03-18T00:00:00	2024-11-08T21:00:00	6	Velocidad del viento	0
112990	7	Sololá	713	San Lucas Tolimán	10	San Lucas Tolimán	3	Marzo	2023-03-18T00:00:00	2024-11-08T21:00:00	7	Dirección del viento	0
112991	7	Sololá	713	San Lucas Tolimán	10	San Lucas Tolimán	3	Marzo	2023-03-18T00:00:00	2024-11-08T21:00:00	1	Precipitación	0
112992	7	Sololá	713	San Lucas Tolimán	10	San Lucas Tolimán	3	Marzo	2023-03-18T00:00:00	2024-11-08T21:00:00	8	Radiación solar	0
112993	7	Sololá	713	San Lucas Tolimán	10	San Lucas Tolimán	3	Marzo	2023-03-18T00:00:00	2024-11-08T22:00:00	2	Temperatura media	15.6
112994	7	Sololá	713	San Lucas Tolimán	10	San Lucas Tolimán	3	Marzo	2023-03-18T00:00:00	2024-11-08T22:00:00	4	Temperatura máxima	15.6
112995	7	Sololá	713	San Lucas Tolimán	10	San Lucas Tolimán	3	Marzo	2023-03-18T00:00:00	2024-11-08T22:00:00	3	Temperatura mínima	15.1
112996	7	Sololá	713	San Lucas Tolimán	10	San Lucas Tolimán	3	Marzo	2023-03-18T00:00:00	2024-11-08T22:00:00	5	Humedad	61
112997	7	Sololá	713	San Lucas Tolimán	10	San Lucas Tolimán	3	Marzo	2023-03-18T00:00:00	2024-11-08T22:00:00	6	Velocidad del viento	0
112998	7	Sololá	713	San Lucas Tolimán	10	San Lucas Tolimán	3	Marzo	2023-03-18T00:00:00	2024-11-08T22:00:00	7	Dirección del viento	0
112999	7	Sololá	713	San Lucas Tolimán	10	San Lucas Tolimán	3	Marzo	2023-03-18T00:00:00	2024-11-08T22:00:00	1	Precipitación	0
113000	7	Sololá	713	San Lucas Tolimán	10	San Lucas Tolimán	3	Marzo	2023-03-18T00:00:00	2024-11-08T22:00:00	8	Radiación solar	0
113001	7	Sololá	713	San Lucas Tolimán	10	San Lucas Tolimán	3	Marzo	2023-03-18T00:00:00	2024-11-08T23:00:00	2	Temperatura media	15.6
113002	7	Sololá	713	San Lucas Tolimán	10	San Lucas Tolimán	3	Marzo	2023-03-18T00:00:00	2024-11-08T23:00:00	4	Temperatura máxima	15.7
113003	7	Sololá	713	San Lucas Tolimán	10	San Lucas Tolimán	3	Marzo	2023-03-18T00:00:00	2024-11-08T23:00:00	3	Temperatura mínima	15.4
113004	7	Sololá	713	San Lucas Tolimán	10	San Lucas Tolimán	3	Marzo	2023-03-18T00:00:00	2024-11-08T23:00:00	5	Humedad	63
113005	7	Sololá	713	San Lucas Tolimán	10	San Lucas Tolimán	3	Marzo	2023-03-18T00:00:00	2024-11-08T23:00:00	6	Velocidad del viento	0
113006	7	Sololá	713	San Lucas Tolimán	10	San Lucas Tolimán	3	Marzo	2023-03-18T00:00:00	2024-11-08T23:00:00	7	Dirección del viento	0
113007	7	Sololá	713	San Lucas Tolimán	10	San Lucas Tolimán	3	Marzo	2023-03-18T00:00:00	2024-11-08T23:00:00	1	Precipitación	0
113008	7	Sololá	713	San Lucas Tolimán	10	San Lucas Tolimán	3	Marzo	2023-03-18T00:00:00	2024-11-08T23:00:00	8	Radiación solar	0
113009	7	Sololá	713	San Lucas Tolimán	10	San Lucas Tolimán	3	Marzo	2023-03-19T00:00:00	2024-11-08T00:00:00	2	Temperatura media	15.8
113010	7	Sololá	713	San Lucas Tolimán	10	San Lucas Tolimán	3	Marzo	2023-03-19T00:00:00	2024-11-08T00:00:00	4	Temperatura máxima	15.8
113011	7	Sololá	713	San Lucas Tolimán	10	San Lucas Tolimán	3	Marzo	2023-03-19T00:00:00	2024-11-08T00:00:00	3	Temperatura mínima	15.5
113012	7	Sololá	713	San Lucas Tolimán	10	San Lucas Tolimán	3	Marzo	2023-03-19T00:00:00	2024-11-08T00:00:00	5	Humedad	65
113013	7	Sololá	713	San Lucas Tolimán	10	San Lucas Tolimán	3	Marzo	2023-03-19T00:00:00	2024-11-08T00:00:00	6	Velocidad del viento	1.6
113014	7	Sololá	713	San Lucas Tolimán	10	San Lucas Tolimán	3	Marzo	2023-03-19T00:00:00	2024-11-08T00:00:00	7	Dirección del viento	1.61
113015	7	Sololá	713	San Lucas Tolimán	10	San Lucas Tolimán	3	Marzo	2023-03-19T00:00:00	2024-11-08T00:00:00	1	Precipitación	0
113016	7	Sololá	713	San Lucas Tolimán	10	San Lucas Tolimán	3	Marzo	2023-03-19T00:00:00	2024-11-08T00:00:00	8	Radiación solar	0
113017	7	Sololá	713	San Lucas Tolimán	10	San Lucas Tolimán	3	Marzo	2023-03-19T00:00:00	2024-11-08T01:00:00	2	Temperatura media	15.8
113018	7	Sololá	713	San Lucas Tolimán	10	San Lucas Tolimán	3	Marzo	2023-03-19T00:00:00	2024-11-08T01:00:00	4	Temperatura máxima	16.1
113019	7	Sololá	713	San Lucas Tolimán	10	San Lucas Tolimán	3	Marzo	2023-03-19T00:00:00	2024-11-08T01:00:00	3	Temperatura mínima	15.8
113020	7	Sololá	713	San Lucas Tolimán	10	San Lucas Tolimán	3	Marzo	2023-03-19T00:00:00	2024-11-08T01:00:00	5	Humedad	64
113021	7	Sololá	713	San Lucas Tolimán	10	San Lucas Tolimán	3	Marzo	2023-03-19T00:00:00	2024-11-08T01:00:00	6	Velocidad del viento	0
113022	7	Sololá	713	San Lucas Tolimán	10	San Lucas Tolimán	3	Marzo	2023-03-19T00:00:00	2024-11-08T01:00:00	7	Dirección del viento	0
113023	7	Sololá	713	San Lucas Tolimán	10	San Lucas Tolimán	3	Marzo	2023-03-19T00:00:00	2024-11-08T01:00:00	1	Precipitación	0
113024	7	Sololá	713	San Lucas Tolimán	10	San Lucas Tolimán	3	Marzo	2023-03-19T00:00:00	2024-11-08T01:00:00	8	Radiación solar	0
113025	7	Sololá	713	San Lucas Tolimán	10	San Lucas Tolimán	3	Marzo	2023-03-19T00:00:00	2024-11-08T02:00:00	2	Temperatura media	15.9
113026	7	Sololá	713	San Lucas Tolimán	10	San Lucas Tolimán	3	Marzo	2023-03-19T00:00:00	2024-11-08T02:00:00	4	Temperatura máxima	15.9
113027	7	Sololá	713	San Lucas Tolimán	10	San Lucas Tolimán	3	Marzo	2023-03-19T00:00:00	2024-11-08T02:00:00	3	Temperatura mínima	15.7
113028	7	Sololá	713	San Lucas Tolimán	10	San Lucas Tolimán	3	Marzo	2023-03-19T00:00:00	2024-11-08T02:00:00	5	Humedad	64
113029	7	Sololá	713	San Lucas Tolimán	10	San Lucas Tolimán	3	Marzo	2023-03-19T00:00:00	2024-11-08T02:00:00	6	Velocidad del viento	0
113030	7	Sololá	713	San Lucas Tolimán	10	San Lucas Tolimán	3	Marzo	2023-03-19T00:00:00	2024-11-08T02:00:00	7	Dirección del viento	0
113031	7	Sololá	713	San Lucas Tolimán	10	San Lucas Tolimán	3	Marzo	2023-03-19T00:00:00	2024-11-08T02:00:00	1	Precipitación	0
113032	7	Sololá	713	San Lucas Tolimán	10	San Lucas Tolimán	3	Marzo	2023-03-19T00:00:00	2024-11-08T02:00:00	8	Radiación solar	0
113033	7	Sololá	713	San Lucas Tolimán	10	San Lucas Tolimán	3	Marzo	2023-03-19T00:00:00	2024-11-08T03:00:00	2	Temperatura media	15.9
113034	7	Sololá	713	San Lucas Tolimán	10	San Lucas Tolimán	3	Marzo	2023-03-19T00:00:00	2024-11-08T03:00:00	4	Temperatura máxima	16.1
113035	7	Sololá	713	San Lucas Tolimán	10	San Lucas Tolimán	3	Marzo	2023-03-19T00:00:00	2024-11-08T03:00:00	3	Temperatura mínima	15.8
113036	7	Sololá	713	San Lucas Tolimán	10	San Lucas Tolimán	3	Marzo	2023-03-19T00:00:00	2024-11-08T03:00:00	5	Humedad	65
113037	7	Sololá	713	San Lucas Tolimán	10	San Lucas Tolimán	3	Marzo	2023-03-19T00:00:00	2024-11-08T03:00:00	6	Velocidad del viento	0
113038	7	Sololá	713	San Lucas Tolimán	10	San Lucas Tolimán	3	Marzo	2023-03-19T00:00:00	2024-11-08T03:00:00	7	Dirección del viento	0
113039	7	Sololá	713	San Lucas Tolimán	10	San Lucas Tolimán	3	Marzo	2023-03-19T00:00:00	2024-11-08T03:00:00	1	Precipitación	0
113040	7	Sololá	713	San Lucas Tolimán	10	San Lucas Tolimán	3	Marzo	2023-03-19T00:00:00	2024-11-08T03:00:00	8	Radiación solar	0
113041	7	Sololá	713	San Lucas Tolimán	10	San Lucas Tolimán	3	Marzo	2023-03-19T00:00:00	2024-11-08T04:00:00	2	Temperatura media	15.8
113042	7	Sololá	713	San Lucas Tolimán	10	San Lucas Tolimán	3	Marzo	2023-03-19T00:00:00	2024-11-08T04:00:00	4	Temperatura máxima	15.9
113043	7	Sololá	713	San Lucas Tolimán	10	San Lucas Tolimán	3	Marzo	2023-03-19T00:00:00	2024-11-08T04:00:00	3	Temperatura mínima	15.8
113044	7	Sololá	713	San Lucas Tolimán	10	San Lucas Tolimán	3	Marzo	2023-03-19T00:00:00	2024-11-08T04:00:00	5	Humedad	66
113045	7	Sololá	713	San Lucas Tolimán	10	San Lucas Tolimán	3	Marzo	2023-03-19T00:00:00	2024-11-08T04:00:00	6	Velocidad del viento	0
113046	7	Sololá	713	San Lucas Tolimán	10	San Lucas Tolimán	3	Marzo	2023-03-19T00:00:00	2024-11-08T04:00:00	7	Dirección del viento	0
113047	7	Sololá	713	San Lucas Tolimán	10	San Lucas Tolimán	3	Marzo	2023-03-19T00:00:00	2024-11-08T04:00:00	1	Precipitación	0
113048	7	Sololá	713	San Lucas Tolimán	10	San Lucas Tolimán	3	Marzo	2023-03-19T00:00:00	2024-11-08T04:00:00	8	Radiación solar	0
113049	7	Sololá	713	San Lucas Tolimán	10	San Lucas Tolimán	3	Marzo	2023-03-19T00:00:00	2024-11-08T05:00:00	2	Temperatura media	14.8
113050	7	Sololá	713	San Lucas Tolimán	10	San Lucas Tolimán	3	Marzo	2023-03-19T00:00:00	2024-11-08T05:00:00	4	Temperatura máxima	15.8
113051	7	Sololá	713	San Lucas Tolimán	10	San Lucas Tolimán	3	Marzo	2023-03-19T00:00:00	2024-11-08T05:00:00	3	Temperatura mínima	14.8
113052	7	Sololá	713	San Lucas Tolimán	10	San Lucas Tolimán	3	Marzo	2023-03-19T00:00:00	2024-11-08T05:00:00	5	Humedad	67
113053	7	Sololá	713	San Lucas Tolimán	10	San Lucas Tolimán	3	Marzo	2023-03-19T00:00:00	2024-11-08T05:00:00	6	Velocidad del viento	1.6
113054	7	Sololá	713	San Lucas Tolimán	10	San Lucas Tolimán	3	Marzo	2023-03-19T00:00:00	2024-11-08T05:00:00	7	Dirección del viento	1.61
113055	7	Sololá	713	San Lucas Tolimán	10	San Lucas Tolimán	3	Marzo	2023-03-19T00:00:00	2024-11-08T05:00:00	1	Precipitación	0
113056	7	Sololá	713	San Lucas Tolimán	10	San Lucas Tolimán	3	Marzo	2023-03-19T00:00:00	2024-11-08T05:00:00	8	Radiación solar	0
113057	7	Sololá	713	San Lucas Tolimán	10	San Lucas Tolimán	3	Marzo	2023-03-19T00:00:00	2024-11-08T06:00:00	2	Temperatura media	14.7
113058	7	Sololá	713	San Lucas Tolimán	10	San Lucas Tolimán	3	Marzo	2023-03-19T00:00:00	2024-11-08T06:00:00	4	Temperatura máxima	14.9
113059	7	Sololá	713	San Lucas Tolimán	10	San Lucas Tolimán	3	Marzo	2023-03-19T00:00:00	2024-11-08T06:00:00	3	Temperatura mínima	14.6
113060	7	Sololá	713	San Lucas Tolimán	10	San Lucas Tolimán	3	Marzo	2023-03-19T00:00:00	2024-11-08T06:00:00	5	Humedad	67
113061	7	Sololá	713	San Lucas Tolimán	10	San Lucas Tolimán	3	Marzo	2023-03-19T00:00:00	2024-11-08T06:00:00	6	Velocidad del viento	0
113062	7	Sololá	713	San Lucas Tolimán	10	San Lucas Tolimán	3	Marzo	2023-03-19T00:00:00	2024-11-08T06:00:00	7	Dirección del viento	0
113063	7	Sololá	713	San Lucas Tolimán	10	San Lucas Tolimán	3	Marzo	2023-03-19T00:00:00	2024-11-08T06:00:00	1	Precipitación	0
113064	7	Sololá	713	San Lucas Tolimán	10	San Lucas Tolimán	3	Marzo	2023-03-19T00:00:00	2024-11-08T06:00:00	8	Radiación solar	0
113065	7	Sololá	713	San Lucas Tolimán	10	San Lucas Tolimán	3	Marzo	2023-03-19T00:00:00	2024-11-08T07:00:00	2	Temperatura media	15
113066	7	Sololá	713	San Lucas Tolimán	10	San Lucas Tolimán	3	Marzo	2023-03-19T00:00:00	2024-11-08T07:00:00	4	Temperatura máxima	15.1
113067	7	Sololá	713	San Lucas Tolimán	10	San Lucas Tolimán	3	Marzo	2023-03-19T00:00:00	2024-11-08T07:00:00	3	Temperatura mínima	14.7
113068	7	Sololá	713	San Lucas Tolimán	10	San Lucas Tolimán	3	Marzo	2023-03-19T00:00:00	2024-11-08T07:00:00	5	Humedad	67
113069	7	Sololá	713	San Lucas Tolimán	10	San Lucas Tolimán	3	Marzo	2023-03-19T00:00:00	2024-11-08T07:00:00	6	Velocidad del viento	0
113070	7	Sololá	713	San Lucas Tolimán	10	San Lucas Tolimán	3	Marzo	2023-03-19T00:00:00	2024-11-08T07:00:00	7	Dirección del viento	0
113071	7	Sololá	713	San Lucas Tolimán	10	San Lucas Tolimán	3	Marzo	2023-03-19T00:00:00	2024-11-08T07:00:00	1	Precipitación	0
113072	7	Sololá	713	San Lucas Tolimán	10	San Lucas Tolimán	3	Marzo	2023-03-19T00:00:00	2024-11-08T07:00:00	8	Radiación solar	20
113073	7	Sololá	713	San Lucas Tolimán	10	San Lucas Tolimán	3	Marzo	2023-03-19T00:00:00	2024-11-08T08:00:00	2	Temperatura media	18.8
113074	7	Sololá	713	San Lucas Tolimán	10	San Lucas Tolimán	3	Marzo	2023-03-19T00:00:00	2024-11-08T08:00:00	4	Temperatura máxima	18.8
113075	7	Sololá	713	San Lucas Tolimán	10	San Lucas Tolimán	3	Marzo	2023-03-19T00:00:00	2024-11-08T08:00:00	3	Temperatura mínima	15
113076	7	Sololá	713	San Lucas Tolimán	10	San Lucas Tolimán	3	Marzo	2023-03-19T00:00:00	2024-11-08T08:00:00	5	Humedad	57
113077	7	Sololá	713	San Lucas Tolimán	10	San Lucas Tolimán	3	Marzo	2023-03-19T00:00:00	2024-11-08T08:00:00	6	Velocidad del viento	0
113078	7	Sololá	713	San Lucas Tolimán	10	San Lucas Tolimán	3	Marzo	2023-03-19T00:00:00	2024-11-08T08:00:00	7	Dirección del viento	0
113079	7	Sololá	713	San Lucas Tolimán	10	San Lucas Tolimán	3	Marzo	2023-03-19T00:00:00	2024-11-08T08:00:00	1	Precipitación	0
113080	7	Sololá	713	San Lucas Tolimán	10	San Lucas Tolimán	3	Marzo	2023-03-19T00:00:00	2024-11-08T08:00:00	8	Radiación solar	187
113081	7	Sololá	713	San Lucas Tolimán	10	San Lucas Tolimán	3	Marzo	2023-03-19T00:00:00	2024-11-08T09:00:00	2	Temperatura media	20.8
113082	7	Sololá	713	San Lucas Tolimán	10	San Lucas Tolimán	3	Marzo	2023-03-19T00:00:00	2024-11-08T09:00:00	4	Temperatura máxima	20.8
113083	7	Sololá	713	San Lucas Tolimán	10	San Lucas Tolimán	3	Marzo	2023-03-19T00:00:00	2024-11-08T09:00:00	3	Temperatura mínima	18.8
113084	7	Sololá	713	San Lucas Tolimán	10	San Lucas Tolimán	3	Marzo	2023-03-19T00:00:00	2024-11-08T09:00:00	5	Humedad	56
113085	7	Sololá	713	San Lucas Tolimán	10	San Lucas Tolimán	3	Marzo	2023-03-19T00:00:00	2024-11-08T09:00:00	6	Velocidad del viento	3.2
113086	7	Sololá	713	San Lucas Tolimán	10	San Lucas Tolimán	3	Marzo	2023-03-19T00:00:00	2024-11-08T09:00:00	7	Dirección del viento	3.22
113087	7	Sololá	713	San Lucas Tolimán	10	San Lucas Tolimán	3	Marzo	2023-03-19T00:00:00	2024-11-08T09:00:00	1	Precipitación	0
113088	7	Sololá	713	San Lucas Tolimán	10	San Lucas Tolimán	3	Marzo	2023-03-19T00:00:00	2024-11-08T09:00:00	8	Radiación solar	505
113089	7	Sololá	713	San Lucas Tolimán	10	San Lucas Tolimán	3	Marzo	2023-03-19T00:00:00	2024-11-08T10:00:00	2	Temperatura media	22.7
113090	7	Sololá	713	San Lucas Tolimán	10	San Lucas Tolimán	3	Marzo	2023-03-19T00:00:00	2024-11-08T10:00:00	4	Temperatura máxima	22.7
113091	7	Sololá	713	San Lucas Tolimán	10	San Lucas Tolimán	3	Marzo	2023-03-19T00:00:00	2024-11-08T10:00:00	3	Temperatura mínima	20.8
113092	7	Sololá	713	San Lucas Tolimán	10	San Lucas Tolimán	3	Marzo	2023-03-19T00:00:00	2024-11-08T10:00:00	5	Humedad	55
113093	7	Sololá	713	San Lucas Tolimán	10	San Lucas Tolimán	3	Marzo	2023-03-19T00:00:00	2024-11-08T10:00:00	6	Velocidad del viento	4.8
113094	7	Sololá	713	San Lucas Tolimán	10	San Lucas Tolimán	3	Marzo	2023-03-19T00:00:00	2024-11-08T10:00:00	7	Dirección del viento	4.83
113095	7	Sololá	713	San Lucas Tolimán	10	San Lucas Tolimán	3	Marzo	2023-03-19T00:00:00	2024-11-08T10:00:00	1	Precipitación	0
113096	7	Sololá	713	San Lucas Tolimán	10	San Lucas Tolimán	3	Marzo	2023-03-19T00:00:00	2024-11-08T10:00:00	8	Radiación solar	760
113097	7	Sololá	713	San Lucas Tolimán	10	San Lucas Tolimán	3	Marzo	2023-03-19T00:00:00	2024-11-08T11:00:00	2	Temperatura media	22.8
113098	7	Sololá	713	San Lucas Tolimán	10	San Lucas Tolimán	3	Marzo	2023-03-19T00:00:00	2024-11-08T11:00:00	4	Temperatura máxima	23.3
113099	7	Sololá	713	San Lucas Tolimán	10	San Lucas Tolimán	3	Marzo	2023-03-19T00:00:00	2024-11-08T11:00:00	3	Temperatura mínima	22.4
113100	7	Sololá	713	San Lucas Tolimán	10	San Lucas Tolimán	3	Marzo	2023-03-19T00:00:00	2024-11-08T11:00:00	5	Humedad	54
113101	7	Sololá	713	San Lucas Tolimán	10	San Lucas Tolimán	3	Marzo	2023-03-19T00:00:00	2024-11-08T11:00:00	6	Velocidad del viento	8
113102	7	Sololá	713	San Lucas Tolimán	10	San Lucas Tolimán	3	Marzo	2023-03-19T00:00:00	2024-11-08T11:00:00	7	Dirección del viento	8.05
113103	7	Sololá	713	San Lucas Tolimán	10	San Lucas Tolimán	3	Marzo	2023-03-19T00:00:00	2024-11-08T11:00:00	1	Precipitación	0
113104	7	Sololá	713	San Lucas Tolimán	10	San Lucas Tolimán	3	Marzo	2023-03-19T00:00:00	2024-11-08T11:00:00	8	Radiación solar	975
113105	7	Sololá	713	San Lucas Tolimán	10	San Lucas Tolimán	3	Marzo	2023-03-19T00:00:00	2024-11-08T12:00:00	2	Temperatura media	22
113106	7	Sololá	713	San Lucas Tolimán	10	San Lucas Tolimán	3	Marzo	2023-03-19T00:00:00	2024-11-08T12:00:00	4	Temperatura máxima	23.5
113107	7	Sololá	713	San Lucas Tolimán	10	San Lucas Tolimán	3	Marzo	2023-03-19T00:00:00	2024-11-08T12:00:00	3	Temperatura mínima	21.8
113108	7	Sololá	713	San Lucas Tolimán	10	San Lucas Tolimán	3	Marzo	2023-03-19T00:00:00	2024-11-08T12:00:00	5	Humedad	59
113109	7	Sololá	713	San Lucas Tolimán	10	San Lucas Tolimán	3	Marzo	2023-03-19T00:00:00	2024-11-08T12:00:00	6	Velocidad del viento	11.3
113110	7	Sololá	713	San Lucas Tolimán	10	San Lucas Tolimán	3	Marzo	2023-03-19T00:00:00	2024-11-08T12:00:00	7	Dirección del viento	11.27
113111	7	Sololá	713	San Lucas Tolimán	10	San Lucas Tolimán	3	Marzo	2023-03-19T00:00:00	2024-11-08T12:00:00	1	Precipitación	0
113112	7	Sololá	713	San Lucas Tolimán	10	San Lucas Tolimán	3	Marzo	2023-03-19T00:00:00	2024-11-08T12:00:00	8	Radiación solar	951
113113	7	Sololá	713	San Lucas Tolimán	10	San Lucas Tolimán	3	Marzo	2023-03-19T00:00:00	2024-11-08T13:00:00	2	Temperatura media	21.3
113114	7	Sololá	713	San Lucas Tolimán	10	San Lucas Tolimán	3	Marzo	2023-03-19T00:00:00	2024-11-08T13:00:00	4	Temperatura máxima	23.2
113115	7	Sololá	713	San Lucas Tolimán	10	San Lucas Tolimán	3	Marzo	2023-03-19T00:00:00	2024-11-08T13:00:00	3	Temperatura mínima	20.9
113116	7	Sololá	713	San Lucas Tolimán	10	San Lucas Tolimán	3	Marzo	2023-03-19T00:00:00	2024-11-08T13:00:00	5	Humedad	62
113117	7	Sololá	713	San Lucas Tolimán	10	San Lucas Tolimán	3	Marzo	2023-03-19T00:00:00	2024-11-08T13:00:00	6	Velocidad del viento	9.7
113118	7	Sololá	713	San Lucas Tolimán	10	San Lucas Tolimán	3	Marzo	2023-03-19T00:00:00	2024-11-08T13:00:00	7	Dirección del viento	9.66
113119	7	Sololá	713	San Lucas Tolimán	10	San Lucas Tolimán	3	Marzo	2023-03-19T00:00:00	2024-11-08T13:00:00	1	Precipitación	0
113120	7	Sololá	713	San Lucas Tolimán	10	San Lucas Tolimán	3	Marzo	2023-03-19T00:00:00	2024-11-08T13:00:00	8	Radiación solar	665
113121	7	Sololá	713	San Lucas Tolimán	10	San Lucas Tolimán	3	Marzo	2023-03-19T00:00:00	2024-11-08T14:00:00	2	Temperatura media	19
113122	7	Sololá	713	San Lucas Tolimán	10	San Lucas Tolimán	3	Marzo	2023-03-19T00:00:00	2024-11-08T14:00:00	4	Temperatura máxima	21.4
113123	7	Sololá	713	San Lucas Tolimán	10	San Lucas Tolimán	3	Marzo	2023-03-19T00:00:00	2024-11-08T14:00:00	3	Temperatura mínima	18.9
113124	7	Sololá	713	San Lucas Tolimán	10	San Lucas Tolimán	3	Marzo	2023-03-19T00:00:00	2024-11-08T14:00:00	5	Humedad	59
113125	7	Sololá	713	San Lucas Tolimán	10	San Lucas Tolimán	3	Marzo	2023-03-19T00:00:00	2024-11-08T14:00:00	6	Velocidad del viento	9.7
113126	7	Sololá	713	San Lucas Tolimán	10	San Lucas Tolimán	3	Marzo	2023-03-19T00:00:00	2024-11-08T14:00:00	7	Dirección del viento	9.66
113127	7	Sololá	713	San Lucas Tolimán	10	San Lucas Tolimán	3	Marzo	2023-03-19T00:00:00	2024-11-08T14:00:00	1	Precipitación	0
113128	7	Sololá	713	San Lucas Tolimán	10	San Lucas Tolimán	3	Marzo	2023-03-19T00:00:00	2024-11-08T14:00:00	8	Radiación solar	129
113129	7	Sololá	713	San Lucas Tolimán	10	San Lucas Tolimán	3	Marzo	2023-03-19T00:00:00	2024-11-08T15:00:00	2	Temperatura media	20.1
113130	7	Sololá	713	San Lucas Tolimán	10	San Lucas Tolimán	3	Marzo	2023-03-19T00:00:00	2024-11-08T15:00:00	4	Temperatura máxima	20.6
113131	7	Sololá	713	San Lucas Tolimán	10	San Lucas Tolimán	3	Marzo	2023-03-19T00:00:00	2024-11-08T15:00:00	3	Temperatura mínima	18.9
113132	7	Sololá	713	San Lucas Tolimán	10	San Lucas Tolimán	3	Marzo	2023-03-19T00:00:00	2024-11-08T15:00:00	5	Humedad	59
113133	7	Sololá	713	San Lucas Tolimán	10	San Lucas Tolimán	3	Marzo	2023-03-19T00:00:00	2024-11-08T15:00:00	6	Velocidad del viento	4.8
113134	7	Sololá	713	San Lucas Tolimán	10	San Lucas Tolimán	3	Marzo	2023-03-19T00:00:00	2024-11-08T15:00:00	7	Dirección del viento	4.83
113135	7	Sololá	713	San Lucas Tolimán	10	San Lucas Tolimán	3	Marzo	2023-03-19T00:00:00	2024-11-08T15:00:00	1	Precipitación	0
113136	7	Sololá	713	San Lucas Tolimán	10	San Lucas Tolimán	3	Marzo	2023-03-19T00:00:00	2024-11-08T15:00:00	8	Radiación solar	323
113137	7	Sololá	713	San Lucas Tolimán	10	San Lucas Tolimán	3	Marzo	2023-03-19T00:00:00	2024-11-08T16:00:00	2	Temperatura media	19.9
113138	7	Sololá	713	San Lucas Tolimán	10	San Lucas Tolimán	3	Marzo	2023-03-19T00:00:00	2024-11-08T16:00:00	4	Temperatura máxima	20.3
113139	7	Sololá	713	San Lucas Tolimán	10	San Lucas Tolimán	3	Marzo	2023-03-19T00:00:00	2024-11-08T16:00:00	3	Temperatura mínima	19.7
113140	7	Sololá	713	San Lucas Tolimán	10	San Lucas Tolimán	3	Marzo	2023-03-19T00:00:00	2024-11-08T16:00:00	5	Humedad	61
113141	7	Sololá	713	San Lucas Tolimán	10	San Lucas Tolimán	3	Marzo	2023-03-19T00:00:00	2024-11-08T16:00:00	6	Velocidad del viento	3.2
113142	7	Sololá	713	San Lucas Tolimán	10	San Lucas Tolimán	3	Marzo	2023-03-19T00:00:00	2024-11-08T16:00:00	7	Dirección del viento	3.22
113143	7	Sololá	713	San Lucas Tolimán	10	San Lucas Tolimán	3	Marzo	2023-03-19T00:00:00	2024-11-08T16:00:00	1	Precipitación	0
113144	7	Sololá	713	San Lucas Tolimán	10	San Lucas Tolimán	3	Marzo	2023-03-19T00:00:00	2024-11-08T16:00:00	8	Radiación solar	126
113145	7	Sololá	713	San Lucas Tolimán	10	San Lucas Tolimán	3	Marzo	2023-03-19T00:00:00	2024-11-08T17:00:00	2	Temperatura media	18.9
113146	7	Sololá	713	San Lucas Tolimán	10	San Lucas Tolimán	3	Marzo	2023-03-19T00:00:00	2024-11-08T17:00:00	4	Temperatura máxima	19.9
113147	7	Sololá	713	San Lucas Tolimán	10	San Lucas Tolimán	3	Marzo	2023-03-19T00:00:00	2024-11-08T17:00:00	3	Temperatura mínima	18.9
113148	7	Sololá	713	San Lucas Tolimán	10	San Lucas Tolimán	3	Marzo	2023-03-19T00:00:00	2024-11-08T17:00:00	5	Humedad	62
113149	7	Sololá	713	San Lucas Tolimán	10	San Lucas Tolimán	3	Marzo	2023-03-19T00:00:00	2024-11-08T17:00:00	6	Velocidad del viento	3.2
113150	7	Sololá	713	San Lucas Tolimán	10	San Lucas Tolimán	3	Marzo	2023-03-19T00:00:00	2024-11-08T17:00:00	7	Dirección del viento	3.22
113151	7	Sololá	713	San Lucas Tolimán	10	San Lucas Tolimán	3	Marzo	2023-03-19T00:00:00	2024-11-08T17:00:00	1	Precipitación	0.2
113152	7	Sololá	713	San Lucas Tolimán	10	San Lucas Tolimán	3	Marzo	2023-03-19T00:00:00	2024-11-08T17:00:00	8	Radiación solar	149
113153	7	Sololá	713	San Lucas Tolimán	10	San Lucas Tolimán	3	Marzo	2023-03-19T00:00:00	2024-11-08T18:00:00	2	Temperatura media	19.1
113154	7	Sololá	713	San Lucas Tolimán	10	San Lucas Tolimán	3	Marzo	2023-03-19T00:00:00	2024-11-08T18:00:00	4	Temperatura máxima	19.1
113155	7	Sololá	713	San Lucas Tolimán	10	San Lucas Tolimán	3	Marzo	2023-03-19T00:00:00	2024-11-08T18:00:00	3	Temperatura mínima	18.8
113156	7	Sololá	713	San Lucas Tolimán	10	San Lucas Tolimán	3	Marzo	2023-03-19T00:00:00	2024-11-08T18:00:00	5	Humedad	60
113157	7	Sololá	713	San Lucas Tolimán	10	San Lucas Tolimán	3	Marzo	2023-03-19T00:00:00	2024-11-08T18:00:00	6	Velocidad del viento	1.6
113158	7	Sololá	713	San Lucas Tolimán	10	San Lucas Tolimán	3	Marzo	2023-03-19T00:00:00	2024-11-08T18:00:00	7	Dirección del viento	1.61
113159	7	Sololá	713	San Lucas Tolimán	10	San Lucas Tolimán	3	Marzo	2023-03-19T00:00:00	2024-11-08T18:00:00	1	Precipitación	0
113160	7	Sololá	713	San Lucas Tolimán	10	San Lucas Tolimán	3	Marzo	2023-03-19T00:00:00	2024-11-08T18:00:00	8	Radiación solar	106
113161	7	Sololá	713	San Lucas Tolimán	10	San Lucas Tolimán	3	Marzo	2023-03-19T00:00:00	2024-11-08T19:00:00	2	Temperatura media	18.2
113162	7	Sololá	713	San Lucas Tolimán	10	San Lucas Tolimán	3	Marzo	2023-03-19T00:00:00	2024-11-08T19:00:00	4	Temperatura máxima	19.1
113163	7	Sololá	713	San Lucas Tolimán	10	San Lucas Tolimán	3	Marzo	2023-03-19T00:00:00	2024-11-08T19:00:00	3	Temperatura mínima	18.2
113164	7	Sololá	713	San Lucas Tolimán	10	San Lucas Tolimán	3	Marzo	2023-03-19T00:00:00	2024-11-08T19:00:00	5	Humedad	60
113165	7	Sololá	713	San Lucas Tolimán	10	San Lucas Tolimán	3	Marzo	2023-03-19T00:00:00	2024-11-08T19:00:00	6	Velocidad del viento	1.6
113166	7	Sololá	713	San Lucas Tolimán	10	San Lucas Tolimán	3	Marzo	2023-03-19T00:00:00	2024-11-08T19:00:00	7	Dirección del viento	1.61
113167	7	Sololá	713	San Lucas Tolimán	10	San Lucas Tolimán	3	Marzo	2023-03-19T00:00:00	2024-11-08T19:00:00	1	Precipitación	0
113168	7	Sololá	713	San Lucas Tolimán	10	San Lucas Tolimán	3	Marzo	2023-03-19T00:00:00	2024-11-08T19:00:00	8	Radiación solar	0
113169	7	Sololá	713	San Lucas Tolimán	10	San Lucas Tolimán	3	Marzo	2023-03-19T00:00:00	2024-11-08T20:00:00	2	Temperatura media	18.7
113170	7	Sololá	713	San Lucas Tolimán	10	San Lucas Tolimán	3	Marzo	2023-03-19T00:00:00	2024-11-08T20:00:00	4	Temperatura máxima	18.7
113171	7	Sololá	713	San Lucas Tolimán	10	San Lucas Tolimán	3	Marzo	2023-03-19T00:00:00	2024-11-08T20:00:00	3	Temperatura mínima	17.6
113172	7	Sololá	713	San Lucas Tolimán	10	San Lucas Tolimán	3	Marzo	2023-03-19T00:00:00	2024-11-08T20:00:00	5	Humedad	57
113173	7	Sololá	713	San Lucas Tolimán	10	San Lucas Tolimán	3	Marzo	2023-03-19T00:00:00	2024-11-08T20:00:00	6	Velocidad del viento	1.6
113174	7	Sololá	713	San Lucas Tolimán	10	San Lucas Tolimán	3	Marzo	2023-03-19T00:00:00	2024-11-08T20:00:00	7	Dirección del viento	1.61
113175	7	Sololá	713	San Lucas Tolimán	10	San Lucas Tolimán	3	Marzo	2023-03-19T00:00:00	2024-11-08T20:00:00	1	Precipitación	0
113176	7	Sololá	713	San Lucas Tolimán	10	San Lucas Tolimán	3	Marzo	2023-03-19T00:00:00	2024-11-08T20:00:00	8	Radiación solar	0
113177	7	Sololá	713	San Lucas Tolimán	10	San Lucas Tolimán	3	Marzo	2023-03-19T00:00:00	2024-11-08T21:00:00	2	Temperatura media	18.8
113178	7	Sololá	713	San Lucas Tolimán	10	San Lucas Tolimán	3	Marzo	2023-03-19T00:00:00	2024-11-08T21:00:00	4	Temperatura máxima	19.4
113179	7	Sololá	713	San Lucas Tolimán	10	San Lucas Tolimán	3	Marzo	2023-03-19T00:00:00	2024-11-08T21:00:00	3	Temperatura mínima	18.7
113180	7	Sololá	713	San Lucas Tolimán	10	San Lucas Tolimán	3	Marzo	2023-03-19T00:00:00	2024-11-08T21:00:00	5	Humedad	58
113181	7	Sololá	713	San Lucas Tolimán	10	San Lucas Tolimán	3	Marzo	2023-03-19T00:00:00	2024-11-08T21:00:00	6	Velocidad del viento	11.3
113182	7	Sololá	713	San Lucas Tolimán	10	San Lucas Tolimán	3	Marzo	2023-03-19T00:00:00	2024-11-08T21:00:00	7	Dirección del viento	11.27
113183	7	Sololá	713	San Lucas Tolimán	10	San Lucas Tolimán	3	Marzo	2023-03-19T00:00:00	2024-11-08T21:00:00	1	Precipitación	0
113184	7	Sololá	713	San Lucas Tolimán	10	San Lucas Tolimán	3	Marzo	2023-03-19T00:00:00	2024-11-08T21:00:00	8	Radiación solar	0
113185	7	Sololá	713	San Lucas Tolimán	10	San Lucas Tolimán	3	Marzo	2023-03-19T00:00:00	2024-11-08T22:00:00	2	Temperatura media	18.2
113186	7	Sololá	713	San Lucas Tolimán	10	San Lucas Tolimán	3	Marzo	2023-03-19T00:00:00	2024-11-08T22:00:00	4	Temperatura máxima	18.8
113187	7	Sololá	713	San Lucas Tolimán	10	San Lucas Tolimán	3	Marzo	2023-03-19T00:00:00	2024-11-08T22:00:00	3	Temperatura mínima	18.1
113188	7	Sololá	713	San Lucas Tolimán	10	San Lucas Tolimán	3	Marzo	2023-03-19T00:00:00	2024-11-08T22:00:00	5	Humedad	61
113189	7	Sololá	713	San Lucas Tolimán	10	San Lucas Tolimán	3	Marzo	2023-03-19T00:00:00	2024-11-08T22:00:00	6	Velocidad del viento	4.8
113190	7	Sololá	713	San Lucas Tolimán	10	San Lucas Tolimán	3	Marzo	2023-03-19T00:00:00	2024-11-08T22:00:00	7	Dirección del viento	4.83
113191	7	Sololá	713	San Lucas Tolimán	10	San Lucas Tolimán	3	Marzo	2023-03-19T00:00:00	2024-11-08T22:00:00	1	Precipitación	0
113192	7	Sololá	713	San Lucas Tolimán	10	San Lucas Tolimán	3	Marzo	2023-03-19T00:00:00	2024-11-08T22:00:00	8	Radiación solar	0
113193	7	Sololá	713	San Lucas Tolimán	10	San Lucas Tolimán	3	Marzo	2023-03-19T00:00:00	2024-11-08T23:00:00	2	Temperatura media	17.9
113194	7	Sololá	713	San Lucas Tolimán	10	San Lucas Tolimán	3	Marzo	2023-03-19T00:00:00	2024-11-08T23:00:00	4	Temperatura máxima	18.2
113195	7	Sololá	713	San Lucas Tolimán	10	San Lucas Tolimán	3	Marzo	2023-03-19T00:00:00	2024-11-08T23:00:00	3	Temperatura mínima	17.8
113196	7	Sololá	713	San Lucas Tolimán	10	San Lucas Tolimán	3	Marzo	2023-03-19T00:00:00	2024-11-08T23:00:00	5	Humedad	61
113197	7	Sololá	713	San Lucas Tolimán	10	San Lucas Tolimán	3	Marzo	2023-03-19T00:00:00	2024-11-08T23:00:00	6	Velocidad del viento	6.4
113198	7	Sololá	713	San Lucas Tolimán	10	San Lucas Tolimán	3	Marzo	2023-03-19T00:00:00	2024-11-08T23:00:00	7	Dirección del viento	6.44
113199	7	Sololá	713	San Lucas Tolimán	10	San Lucas Tolimán	3	Marzo	2023-03-19T00:00:00	2024-11-08T23:00:00	1	Precipitación	0
113200	7	Sololá	713	San Lucas Tolimán	10	San Lucas Tolimán	3	Marzo	2023-03-19T00:00:00	2024-11-08T23:00:00	8	Radiación solar	0
113201	7	Sololá	713	San Lucas Tolimán	10	San Lucas Tolimán	3	Marzo	2023-03-20T00:00:00	2024-11-08T00:00:00	2	Temperatura media	17.8
113202	7	Sololá	713	San Lucas Tolimán	10	San Lucas Tolimán	3	Marzo	2023-03-20T00:00:00	2024-11-08T00:00:00	4	Temperatura máxima	17.9
113203	7	Sololá	713	San Lucas Tolimán	10	San Lucas Tolimán	3	Marzo	2023-03-20T00:00:00	2024-11-08T00:00:00	3	Temperatura mínima	17.6
113204	7	Sololá	713	San Lucas Tolimán	10	San Lucas Tolimán	3	Marzo	2023-03-20T00:00:00	2024-11-08T00:00:00	5	Humedad	59
113205	7	Sololá	713	San Lucas Tolimán	10	San Lucas Tolimán	3	Marzo	2023-03-20T00:00:00	2024-11-08T00:00:00	6	Velocidad del viento	4.8
113206	7	Sololá	713	San Lucas Tolimán	10	San Lucas Tolimán	3	Marzo	2023-03-20T00:00:00	2024-11-08T00:00:00	7	Dirección del viento	4.83
113207	7	Sololá	713	San Lucas Tolimán	10	San Lucas Tolimán	3	Marzo	2023-03-20T00:00:00	2024-11-08T00:00:00	1	Precipitación	0
113208	7	Sololá	713	San Lucas Tolimán	10	San Lucas Tolimán	3	Marzo	2023-03-20T00:00:00	2024-11-08T00:00:00	8	Radiación solar	0
113209	7	Sololá	713	San Lucas Tolimán	10	San Lucas Tolimán	3	Marzo	2023-03-20T00:00:00	2024-11-08T01:00:00	2	Temperatura media	17.9
113210	7	Sololá	713	San Lucas Tolimán	10	San Lucas Tolimán	3	Marzo	2023-03-20T00:00:00	2024-11-08T01:00:00	4	Temperatura máxima	17.9
113211	7	Sololá	713	San Lucas Tolimán	10	San Lucas Tolimán	3	Marzo	2023-03-20T00:00:00	2024-11-08T01:00:00	3	Temperatura mínima	17.6
113212	7	Sololá	713	San Lucas Tolimán	10	San Lucas Tolimán	3	Marzo	2023-03-20T00:00:00	2024-11-08T01:00:00	5	Humedad	58
113213	7	Sololá	713	San Lucas Tolimán	10	San Lucas Tolimán	3	Marzo	2023-03-20T00:00:00	2024-11-08T01:00:00	6	Velocidad del viento	4.8
113214	7	Sololá	713	San Lucas Tolimán	10	San Lucas Tolimán	3	Marzo	2023-03-20T00:00:00	2024-11-08T01:00:00	7	Dirección del viento	4.83
113215	7	Sololá	713	San Lucas Tolimán	10	San Lucas Tolimán	3	Marzo	2023-03-20T00:00:00	2024-11-08T01:00:00	1	Precipitación	0
113216	7	Sololá	713	San Lucas Tolimán	10	San Lucas Tolimán	3	Marzo	2023-03-20T00:00:00	2024-11-08T01:00:00	8	Radiación solar	0
113217	7	Sololá	713	San Lucas Tolimán	10	San Lucas Tolimán	3	Marzo	2023-03-20T00:00:00	2024-11-08T02:00:00	2	Temperatura media	17.3
113218	7	Sololá	713	San Lucas Tolimán	10	San Lucas Tolimán	3	Marzo	2023-03-20T00:00:00	2024-11-08T02:00:00	4	Temperatura máxima	17.9
113219	7	Sololá	713	San Lucas Tolimán	10	San Lucas Tolimán	3	Marzo	2023-03-20T00:00:00	2024-11-08T02:00:00	3	Temperatura mínima	17.3
113220	7	Sololá	713	San Lucas Tolimán	10	San Lucas Tolimán	3	Marzo	2023-03-20T00:00:00	2024-11-08T02:00:00	5	Humedad	60
113221	7	Sololá	713	San Lucas Tolimán	10	San Lucas Tolimán	3	Marzo	2023-03-20T00:00:00	2024-11-08T02:00:00	6	Velocidad del viento	4.8
113222	7	Sololá	713	San Lucas Tolimán	10	San Lucas Tolimán	3	Marzo	2023-03-20T00:00:00	2024-11-08T02:00:00	7	Dirección del viento	4.83
113223	7	Sololá	713	San Lucas Tolimán	10	San Lucas Tolimán	3	Marzo	2023-03-20T00:00:00	2024-11-08T02:00:00	1	Precipitación	0
113224	7	Sololá	713	San Lucas Tolimán	10	San Lucas Tolimán	3	Marzo	2023-03-20T00:00:00	2024-11-08T02:00:00	8	Radiación solar	0
113225	7	Sololá	713	San Lucas Tolimán	10	San Lucas Tolimán	3	Marzo	2023-03-20T00:00:00	2024-11-08T03:00:00	2	Temperatura media	17.4
113226	7	Sololá	713	San Lucas Tolimán	10	San Lucas Tolimán	3	Marzo	2023-03-20T00:00:00	2024-11-08T03:00:00	4	Temperatura máxima	17.6
113227	7	Sololá	713	San Lucas Tolimán	10	San Lucas Tolimán	3	Marzo	2023-03-20T00:00:00	2024-11-08T03:00:00	3	Temperatura mínima	17.3
113228	7	Sololá	713	San Lucas Tolimán	10	San Lucas Tolimán	3	Marzo	2023-03-20T00:00:00	2024-11-08T03:00:00	5	Humedad	60
113229	7	Sololá	713	San Lucas Tolimán	10	San Lucas Tolimán	3	Marzo	2023-03-20T00:00:00	2024-11-08T03:00:00	6	Velocidad del viento	4.8
113230	7	Sololá	713	San Lucas Tolimán	10	San Lucas Tolimán	3	Marzo	2023-03-20T00:00:00	2024-11-08T03:00:00	7	Dirección del viento	4.83
113231	7	Sololá	713	San Lucas Tolimán	10	San Lucas Tolimán	3	Marzo	2023-03-20T00:00:00	2024-11-08T03:00:00	1	Precipitación	0
113232	7	Sololá	713	San Lucas Tolimán	10	San Lucas Tolimán	3	Marzo	2023-03-20T00:00:00	2024-11-08T03:00:00	8	Radiación solar	0
113233	7	Sololá	713	San Lucas Tolimán	10	San Lucas Tolimán	3	Marzo	2023-03-20T00:00:00	2024-11-08T04:00:00	2	Temperatura media	17.9
113234	7	Sololá	713	San Lucas Tolimán	10	San Lucas Tolimán	3	Marzo	2023-03-20T00:00:00	2024-11-08T04:00:00	4	Temperatura máxima	17.9
113235	7	Sololá	713	San Lucas Tolimán	10	San Lucas Tolimán	3	Marzo	2023-03-20T00:00:00	2024-11-08T04:00:00	3	Temperatura mínima	17.3
113236	7	Sololá	713	San Lucas Tolimán	10	San Lucas Tolimán	3	Marzo	2023-03-20T00:00:00	2024-11-08T04:00:00	5	Humedad	55
113237	7	Sololá	713	San Lucas Tolimán	10	San Lucas Tolimán	3	Marzo	2023-03-20T00:00:00	2024-11-08T04:00:00	6	Velocidad del viento	4.8
113238	7	Sololá	713	San Lucas Tolimán	10	San Lucas Tolimán	3	Marzo	2023-03-20T00:00:00	2024-11-08T04:00:00	7	Dirección del viento	4.83
113239	7	Sololá	713	San Lucas Tolimán	10	San Lucas Tolimán	3	Marzo	2023-03-20T00:00:00	2024-11-08T04:00:00	1	Precipitación	0
113240	7	Sololá	713	San Lucas Tolimán	10	San Lucas Tolimán	3	Marzo	2023-03-20T00:00:00	2024-11-08T04:00:00	8	Radiación solar	0
113241	7	Sololá	713	San Lucas Tolimán	10	San Lucas Tolimán	3	Marzo	2023-03-20T00:00:00	2024-11-08T05:00:00	2	Temperatura media	17.8
113242	7	Sololá	713	San Lucas Tolimán	10	San Lucas Tolimán	3	Marzo	2023-03-20T00:00:00	2024-11-08T05:00:00	4	Temperatura máxima	18.1
113243	7	Sololá	713	San Lucas Tolimán	10	San Lucas Tolimán	3	Marzo	2023-03-20T00:00:00	2024-11-08T05:00:00	3	Temperatura mínima	17.7
113244	7	Sololá	713	San Lucas Tolimán	10	San Lucas Tolimán	3	Marzo	2023-03-20T00:00:00	2024-11-08T05:00:00	5	Humedad	55
113245	7	Sololá	713	San Lucas Tolimán	10	San Lucas Tolimán	3	Marzo	2023-03-20T00:00:00	2024-11-08T05:00:00	6	Velocidad del viento	6.4
113246	7	Sololá	713	San Lucas Tolimán	10	San Lucas Tolimán	3	Marzo	2023-03-20T00:00:00	2024-11-08T05:00:00	7	Dirección del viento	6.44
113247	7	Sololá	713	San Lucas Tolimán	10	San Lucas Tolimán	3	Marzo	2023-03-20T00:00:00	2024-11-08T05:00:00	1	Precipitación	0
113248	7	Sololá	713	San Lucas Tolimán	10	San Lucas Tolimán	3	Marzo	2023-03-20T00:00:00	2024-11-08T05:00:00	8	Radiación solar	0
113249	7	Sololá	713	San Lucas Tolimán	10	San Lucas Tolimán	3	Marzo	2023-03-20T00:00:00	2024-11-08T06:00:00	2	Temperatura media	17.9
113250	7	Sololá	713	San Lucas Tolimán	10	San Lucas Tolimán	3	Marzo	2023-03-20T00:00:00	2024-11-08T06:00:00	4	Temperatura máxima	18.2
113251	7	Sololá	713	San Lucas Tolimán	10	San Lucas Tolimán	3	Marzo	2023-03-20T00:00:00	2024-11-08T06:00:00	3	Temperatura mínima	17.8
113252	7	Sololá	713	San Lucas Tolimán	10	San Lucas Tolimán	3	Marzo	2023-03-20T00:00:00	2024-11-08T06:00:00	5	Humedad	54
113253	7	Sololá	713	San Lucas Tolimán	10	San Lucas Tolimán	3	Marzo	2023-03-20T00:00:00	2024-11-08T06:00:00	6	Velocidad del viento	6.4
113254	7	Sololá	713	San Lucas Tolimán	10	San Lucas Tolimán	3	Marzo	2023-03-20T00:00:00	2024-11-08T06:00:00	7	Dirección del viento	6.44
113255	7	Sololá	713	San Lucas Tolimán	10	San Lucas Tolimán	3	Marzo	2023-03-20T00:00:00	2024-11-08T06:00:00	1	Precipitación	0
113256	7	Sololá	713	San Lucas Tolimán	10	San Lucas Tolimán	3	Marzo	2023-03-20T00:00:00	2024-11-08T06:00:00	8	Radiación solar	0
113257	7	Sololá	713	San Lucas Tolimán	10	San Lucas Tolimán	3	Marzo	2023-03-20T00:00:00	2024-11-08T07:00:00	2	Temperatura media	18.3
113258	7	Sololá	713	San Lucas Tolimán	10	San Lucas Tolimán	3	Marzo	2023-03-20T00:00:00	2024-11-08T07:00:00	4	Temperatura máxima	18.4
113259	7	Sololá	713	San Lucas Tolimán	10	San Lucas Tolimán	3	Marzo	2023-03-20T00:00:00	2024-11-08T07:00:00	3	Temperatura mínima	17.9
113260	7	Sololá	713	San Lucas Tolimán	10	San Lucas Tolimán	3	Marzo	2023-03-20T00:00:00	2024-11-08T07:00:00	5	Humedad	53
113261	7	Sololá	713	San Lucas Tolimán	10	San Lucas Tolimán	3	Marzo	2023-03-20T00:00:00	2024-11-08T07:00:00	6	Velocidad del viento	6.4
113262	7	Sololá	713	San Lucas Tolimán	10	San Lucas Tolimán	3	Marzo	2023-03-20T00:00:00	2024-11-08T07:00:00	7	Dirección del viento	6.44
113263	7	Sololá	713	San Lucas Tolimán	10	San Lucas Tolimán	3	Marzo	2023-03-20T00:00:00	2024-11-08T07:00:00	1	Precipitación	0
113264	7	Sololá	713	San Lucas Tolimán	10	San Lucas Tolimán	3	Marzo	2023-03-20T00:00:00	2024-11-08T07:00:00	8	Radiación solar	11
113265	7	Sololá	713	San Lucas Tolimán	10	San Lucas Tolimán	3	Marzo	2023-03-20T00:00:00	2024-11-08T08:00:00	2	Temperatura media	21.1
113266	7	Sololá	713	San Lucas Tolimán	10	San Lucas Tolimán	3	Marzo	2023-03-20T00:00:00	2024-11-08T08:00:00	4	Temperatura máxima	21.1
113267	7	Sololá	713	San Lucas Tolimán	10	San Lucas Tolimán	3	Marzo	2023-03-20T00:00:00	2024-11-08T08:00:00	3	Temperatura mínima	18.3
113268	7	Sololá	713	San Lucas Tolimán	10	San Lucas Tolimán	3	Marzo	2023-03-20T00:00:00	2024-11-08T08:00:00	5	Humedad	47
113269	7	Sololá	713	San Lucas Tolimán	10	San Lucas Tolimán	3	Marzo	2023-03-20T00:00:00	2024-11-08T08:00:00	6	Velocidad del viento	9.7
113270	7	Sololá	713	San Lucas Tolimán	10	San Lucas Tolimán	3	Marzo	2023-03-20T00:00:00	2024-11-08T08:00:00	7	Dirección del viento	9.66
113271	7	Sololá	713	San Lucas Tolimán	10	San Lucas Tolimán	3	Marzo	2023-03-20T00:00:00	2024-11-08T08:00:00	1	Precipitación	0
113272	7	Sololá	713	San Lucas Tolimán	10	San Lucas Tolimán	3	Marzo	2023-03-20T00:00:00	2024-11-08T08:00:00	8	Radiación solar	208
113273	7	Sololá	713	San Lucas Tolimán	10	San Lucas Tolimán	3	Marzo	2023-03-20T00:00:00	2024-11-08T09:00:00	2	Temperatura media	21.5
113274	7	Sololá	713	San Lucas Tolimán	10	San Lucas Tolimán	3	Marzo	2023-03-20T00:00:00	2024-11-08T09:00:00	4	Temperatura máxima	21.6
113275	7	Sololá	713	San Lucas Tolimán	10	San Lucas Tolimán	3	Marzo	2023-03-20T00:00:00	2024-11-08T09:00:00	3	Temperatura mínima	20.9
113276	7	Sololá	713	San Lucas Tolimán	10	San Lucas Tolimán	3	Marzo	2023-03-20T00:00:00	2024-11-08T09:00:00	5	Humedad	46
113277	7	Sololá	713	San Lucas Tolimán	10	San Lucas Tolimán	3	Marzo	2023-03-20T00:00:00	2024-11-08T09:00:00	6	Velocidad del viento	12.9
113278	7	Sololá	713	San Lucas Tolimán	10	San Lucas Tolimán	3	Marzo	2023-03-20T00:00:00	2024-11-08T09:00:00	7	Dirección del viento	12.87
113279	7	Sololá	713	San Lucas Tolimán	10	San Lucas Tolimán	3	Marzo	2023-03-20T00:00:00	2024-11-08T09:00:00	1	Precipitación	0
113280	7	Sololá	713	San Lucas Tolimán	10	San Lucas Tolimán	3	Marzo	2023-03-20T00:00:00	2024-11-08T09:00:00	8	Radiación solar	556
113281	7	Sololá	713	San Lucas Tolimán	10	San Lucas Tolimán	3	Marzo	2023-03-20T00:00:00	2024-11-08T10:00:00	2	Temperatura media	22.3
113282	7	Sololá	713	San Lucas Tolimán	10	San Lucas Tolimán	3	Marzo	2023-03-20T00:00:00	2024-11-08T10:00:00	4	Temperatura máxima	22.8
113283	7	Sololá	713	San Lucas Tolimán	10	San Lucas Tolimán	3	Marzo	2023-03-20T00:00:00	2024-11-08T10:00:00	3	Temperatura mínima	21.5
113284	7	Sololá	713	San Lucas Tolimán	10	San Lucas Tolimán	3	Marzo	2023-03-20T00:00:00	2024-11-08T10:00:00	5	Humedad	45
113285	7	Sololá	713	San Lucas Tolimán	10	San Lucas Tolimán	3	Marzo	2023-03-20T00:00:00	2024-11-08T10:00:00	6	Velocidad del viento	11.3
113286	7	Sololá	713	San Lucas Tolimán	10	San Lucas Tolimán	3	Marzo	2023-03-20T00:00:00	2024-11-08T10:00:00	7	Dirección del viento	11.27
113287	7	Sololá	713	San Lucas Tolimán	10	San Lucas Tolimán	3	Marzo	2023-03-20T00:00:00	2024-11-08T10:00:00	1	Precipitación	0
113288	7	Sololá	713	San Lucas Tolimán	10	San Lucas Tolimán	3	Marzo	2023-03-20T00:00:00	2024-11-08T10:00:00	8	Radiación solar	746
113289	7	Sololá	713	San Lucas Tolimán	10	San Lucas Tolimán	3	Marzo	2023-03-20T00:00:00	2024-11-08T11:00:00	2	Temperatura media	23.3
113290	7	Sololá	713	San Lucas Tolimán	10	San Lucas Tolimán	3	Marzo	2023-03-20T00:00:00	2024-11-08T11:00:00	4	Temperatura máxima	23.3
113291	7	Sololá	713	San Lucas Tolimán	10	San Lucas Tolimán	3	Marzo	2023-03-20T00:00:00	2024-11-08T11:00:00	3	Temperatura mínima	22.2
113292	7	Sololá	713	San Lucas Tolimán	10	San Lucas Tolimán	3	Marzo	2023-03-20T00:00:00	2024-11-08T11:00:00	5	Humedad	44
113293	7	Sololá	713	San Lucas Tolimán	10	San Lucas Tolimán	3	Marzo	2023-03-20T00:00:00	2024-11-08T11:00:00	6	Velocidad del viento	9.7
113294	7	Sololá	713	San Lucas Tolimán	10	San Lucas Tolimán	3	Marzo	2023-03-20T00:00:00	2024-11-08T11:00:00	7	Dirección del viento	9.66
113295	7	Sololá	713	San Lucas Tolimán	10	San Lucas Tolimán	3	Marzo	2023-03-20T00:00:00	2024-11-08T11:00:00	1	Precipitación	0
113296	7	Sololá	713	San Lucas Tolimán	10	San Lucas Tolimán	3	Marzo	2023-03-20T00:00:00	2024-11-08T11:00:00	8	Radiación solar	634
113297	7	Sololá	713	San Lucas Tolimán	10	San Lucas Tolimán	3	Marzo	2023-03-20T00:00:00	2024-11-08T12:00:00	2	Temperatura media	24.7
113298	7	Sololá	713	San Lucas Tolimán	10	San Lucas Tolimán	3	Marzo	2023-03-20T00:00:00	2024-11-08T12:00:00	4	Temperatura máxima	24.7
113299	7	Sololá	713	San Lucas Tolimán	10	San Lucas Tolimán	3	Marzo	2023-03-20T00:00:00	2024-11-08T12:00:00	3	Temperatura mínima	23.2
113300	7	Sololá	713	San Lucas Tolimán	10	San Lucas Tolimán	3	Marzo	2023-03-20T00:00:00	2024-11-08T12:00:00	5	Humedad	46
113301	7	Sololá	713	San Lucas Tolimán	10	San Lucas Tolimán	3	Marzo	2023-03-20T00:00:00	2024-11-08T12:00:00	6	Velocidad del viento	11.3
113302	7	Sololá	713	San Lucas Tolimán	10	San Lucas Tolimán	3	Marzo	2023-03-20T00:00:00	2024-11-08T12:00:00	7	Dirección del viento	11.27
113303	7	Sololá	713	San Lucas Tolimán	10	San Lucas Tolimán	3	Marzo	2023-03-20T00:00:00	2024-11-08T12:00:00	1	Precipitación	0
113304	7	Sololá	713	San Lucas Tolimán	10	San Lucas Tolimán	3	Marzo	2023-03-20T00:00:00	2024-11-08T12:00:00	8	Radiación solar	1168
113305	7	Sololá	713	San Lucas Tolimán	10	San Lucas Tolimán	3	Marzo	2023-03-20T00:00:00	2024-11-08T13:00:00	2	Temperatura media	22.7
113306	7	Sololá	713	San Lucas Tolimán	10	San Lucas Tolimán	3	Marzo	2023-03-20T00:00:00	2024-11-08T13:00:00	4	Temperatura máxima	24.7
113307	7	Sololá	713	San Lucas Tolimán	10	San Lucas Tolimán	3	Marzo	2023-03-20T00:00:00	2024-11-08T13:00:00	3	Temperatura mínima	22.4
113308	7	Sololá	713	San Lucas Tolimán	10	San Lucas Tolimán	3	Marzo	2023-03-20T00:00:00	2024-11-08T13:00:00	5	Humedad	60
113309	7	Sololá	713	San Lucas Tolimán	10	San Lucas Tolimán	3	Marzo	2023-03-20T00:00:00	2024-11-08T13:00:00	6	Velocidad del viento	6.4
113310	7	Sololá	713	San Lucas Tolimán	10	San Lucas Tolimán	3	Marzo	2023-03-20T00:00:00	2024-11-08T13:00:00	7	Dirección del viento	6.44
113311	7	Sololá	713	San Lucas Tolimán	10	San Lucas Tolimán	3	Marzo	2023-03-20T00:00:00	2024-11-08T13:00:00	1	Precipitación	0
113312	7	Sololá	713	San Lucas Tolimán	10	San Lucas Tolimán	3	Marzo	2023-03-20T00:00:00	2024-11-08T13:00:00	8	Radiación solar	662
113313	7	Sololá	713	San Lucas Tolimán	10	San Lucas Tolimán	3	Marzo	2023-03-20T00:00:00	2024-11-08T14:00:00	2	Temperatura media	22.3
113314	7	Sololá	713	San Lucas Tolimán	10	San Lucas Tolimán	3	Marzo	2023-03-20T00:00:00	2024-11-08T14:00:00	4	Temperatura máxima	23.2
113315	7	Sololá	713	San Lucas Tolimán	10	San Lucas Tolimán	3	Marzo	2023-03-20T00:00:00	2024-11-08T14:00:00	3	Temperatura mínima	22.1
113316	7	Sololá	713	San Lucas Tolimán	10	San Lucas Tolimán	3	Marzo	2023-03-20T00:00:00	2024-11-08T14:00:00	5	Humedad	58
113317	7	Sololá	713	San Lucas Tolimán	10	San Lucas Tolimán	3	Marzo	2023-03-20T00:00:00	2024-11-08T14:00:00	6	Velocidad del viento	9.7
113318	7	Sololá	713	San Lucas Tolimán	10	San Lucas Tolimán	3	Marzo	2023-03-20T00:00:00	2024-11-08T14:00:00	7	Dirección del viento	9.66
113319	7	Sololá	713	San Lucas Tolimán	10	San Lucas Tolimán	3	Marzo	2023-03-20T00:00:00	2024-11-08T14:00:00	1	Precipitación	0
113320	7	Sololá	713	San Lucas Tolimán	10	San Lucas Tolimán	3	Marzo	2023-03-20T00:00:00	2024-11-08T14:00:00	8	Radiación solar	559
113321	7	Sololá	713	San Lucas Tolimán	10	San Lucas Tolimán	3	Marzo	2023-03-20T00:00:00	2024-11-08T15:00:00	2	Temperatura media	22.3
113322	7	Sololá	713	San Lucas Tolimán	10	San Lucas Tolimán	3	Marzo	2023-03-20T00:00:00	2024-11-08T15:00:00	4	Temperatura máxima	23.5
113323	7	Sololá	713	San Lucas Tolimán	10	San Lucas Tolimán	3	Marzo	2023-03-20T00:00:00	2024-11-08T15:00:00	3	Temperatura mínima	22.1
113324	7	Sololá	713	San Lucas Tolimán	10	San Lucas Tolimán	3	Marzo	2023-03-20T00:00:00	2024-11-08T15:00:00	5	Humedad	59
113325	7	Sololá	713	San Lucas Tolimán	10	San Lucas Tolimán	3	Marzo	2023-03-20T00:00:00	2024-11-08T15:00:00	6	Velocidad del viento	11.3
113326	7	Sololá	713	San Lucas Tolimán	10	San Lucas Tolimán	3	Marzo	2023-03-20T00:00:00	2024-11-08T15:00:00	7	Dirección del viento	11.27
113327	7	Sololá	713	San Lucas Tolimán	10	San Lucas Tolimán	3	Marzo	2023-03-20T00:00:00	2024-11-08T15:00:00	1	Precipitación	0
113328	7	Sololá	713	San Lucas Tolimán	10	San Lucas Tolimán	3	Marzo	2023-03-20T00:00:00	2024-11-08T15:00:00	8	Radiación solar	504
113329	7	Sololá	713	San Lucas Tolimán	10	San Lucas Tolimán	3	Marzo	2023-03-20T00:00:00	2024-11-08T16:00:00	2	Temperatura media	21.1
113330	7	Sololá	713	San Lucas Tolimán	10	San Lucas Tolimán	3	Marzo	2023-03-20T00:00:00	2024-11-08T16:00:00	4	Temperatura máxima	22.9
113331	7	Sololá	713	San Lucas Tolimán	10	San Lucas Tolimán	3	Marzo	2023-03-20T00:00:00	2024-11-08T16:00:00	3	Temperatura mínima	21.1
113332	7	Sololá	713	San Lucas Tolimán	10	San Lucas Tolimán	3	Marzo	2023-03-20T00:00:00	2024-11-08T16:00:00	5	Humedad	61
113333	7	Sololá	713	San Lucas Tolimán	10	San Lucas Tolimán	3	Marzo	2023-03-20T00:00:00	2024-11-08T16:00:00	6	Velocidad del viento	11.3
113334	7	Sololá	713	San Lucas Tolimán	10	San Lucas Tolimán	3	Marzo	2023-03-20T00:00:00	2024-11-08T16:00:00	7	Dirección del viento	11.27
113335	7	Sololá	713	San Lucas Tolimán	10	San Lucas Tolimán	3	Marzo	2023-03-20T00:00:00	2024-11-08T16:00:00	1	Precipitación	0
113336	7	Sololá	713	San Lucas Tolimán	10	San Lucas Tolimán	3	Marzo	2023-03-20T00:00:00	2024-11-08T16:00:00	8	Radiación solar	237
113337	7	Sololá	713	San Lucas Tolimán	10	San Lucas Tolimán	3	Marzo	2023-03-20T00:00:00	2024-11-08T17:00:00	2	Temperatura media	20.5
113338	7	Sololá	713	San Lucas Tolimán	10	San Lucas Tolimán	3	Marzo	2023-03-20T00:00:00	2024-11-08T17:00:00	4	Temperatura máxima	21.1
113339	7	Sololá	713	San Lucas Tolimán	10	San Lucas Tolimán	3	Marzo	2023-03-20T00:00:00	2024-11-08T17:00:00	3	Temperatura mínima	20
113340	7	Sololá	713	San Lucas Tolimán	10	San Lucas Tolimán	3	Marzo	2023-03-20T00:00:00	2024-11-08T17:00:00	5	Humedad	59
113341	7	Sololá	713	San Lucas Tolimán	10	San Lucas Tolimán	3	Marzo	2023-03-20T00:00:00	2024-11-08T17:00:00	6	Velocidad del viento	4.8
113342	7	Sololá	713	San Lucas Tolimán	10	San Lucas Tolimán	3	Marzo	2023-03-20T00:00:00	2024-11-08T17:00:00	7	Dirección del viento	4.83
113343	7	Sololá	713	San Lucas Tolimán	10	San Lucas Tolimán	3	Marzo	2023-03-20T00:00:00	2024-11-08T17:00:00	1	Precipitación	0
113344	7	Sololá	713	San Lucas Tolimán	10	San Lucas Tolimán	3	Marzo	2023-03-20T00:00:00	2024-11-08T17:00:00	8	Radiación solar	22
113345	7	Sololá	713	San Lucas Tolimán	10	San Lucas Tolimán	3	Marzo	2023-03-20T00:00:00	2024-11-08T18:00:00	2	Temperatura media	20.7
113346	7	Sololá	713	San Lucas Tolimán	10	San Lucas Tolimán	3	Marzo	2023-03-20T00:00:00	2024-11-08T18:00:00	4	Temperatura máxima	20.7
113347	7	Sololá	713	San Lucas Tolimán	10	San Lucas Tolimán	3	Marzo	2023-03-20T00:00:00	2024-11-08T18:00:00	3	Temperatura mínima	19.3
113348	7	Sololá	713	San Lucas Tolimán	10	San Lucas Tolimán	3	Marzo	2023-03-20T00:00:00	2024-11-08T18:00:00	5	Humedad	49
113349	7	Sololá	713	San Lucas Tolimán	10	San Lucas Tolimán	3	Marzo	2023-03-20T00:00:00	2024-11-08T18:00:00	6	Velocidad del viento	6.4
113350	7	Sololá	713	San Lucas Tolimán	10	San Lucas Tolimán	3	Marzo	2023-03-20T00:00:00	2024-11-08T18:00:00	7	Dirección del viento	6.44
113351	7	Sololá	713	San Lucas Tolimán	10	San Lucas Tolimán	3	Marzo	2023-03-20T00:00:00	2024-11-08T18:00:00	1	Precipitación	0
113352	7	Sololá	713	San Lucas Tolimán	10	San Lucas Tolimán	3	Marzo	2023-03-20T00:00:00	2024-11-08T18:00:00	8	Radiación solar	7
113353	7	Sololá	713	San Lucas Tolimán	10	San Lucas Tolimán	3	Marzo	2023-03-20T00:00:00	2024-11-08T19:00:00	2	Temperatura media	20.1
113354	7	Sololá	713	San Lucas Tolimán	10	San Lucas Tolimán	3	Marzo	2023-03-20T00:00:00	2024-11-08T19:00:00	4	Temperatura máxima	20.7
113355	7	Sololá	713	San Lucas Tolimán	10	San Lucas Tolimán	3	Marzo	2023-03-20T00:00:00	2024-11-08T19:00:00	3	Temperatura mínima	19.9
113356	7	Sololá	713	San Lucas Tolimán	10	San Lucas Tolimán	3	Marzo	2023-03-20T00:00:00	2024-11-08T19:00:00	5	Humedad	51
113357	7	Sololá	713	San Lucas Tolimán	10	San Lucas Tolimán	3	Marzo	2023-03-20T00:00:00	2024-11-08T19:00:00	6	Velocidad del viento	14.5
113358	7	Sololá	713	San Lucas Tolimán	10	San Lucas Tolimán	3	Marzo	2023-03-20T00:00:00	2024-11-08T19:00:00	7	Dirección del viento	14.48
113359	7	Sololá	713	San Lucas Tolimán	10	San Lucas Tolimán	3	Marzo	2023-03-20T00:00:00	2024-11-08T19:00:00	1	Precipitación	0
113360	7	Sololá	713	San Lucas Tolimán	10	San Lucas Tolimán	3	Marzo	2023-03-20T00:00:00	2024-11-08T19:00:00	8	Radiación solar	0
113361	7	Sololá	713	San Lucas Tolimán	10	San Lucas Tolimán	3	Marzo	2023-03-20T00:00:00	2024-11-08T20:00:00	2	Temperatura media	19.1
113362	7	Sololá	713	San Lucas Tolimán	10	San Lucas Tolimán	3	Marzo	2023-03-20T00:00:00	2024-11-08T20:00:00	4	Temperatura máxima	20
113363	7	Sololá	713	San Lucas Tolimán	10	San Lucas Tolimán	3	Marzo	2023-03-20T00:00:00	2024-11-08T20:00:00	3	Temperatura mínima	19.1
113364	7	Sololá	713	San Lucas Tolimán	10	San Lucas Tolimán	3	Marzo	2023-03-20T00:00:00	2024-11-08T20:00:00	5	Humedad	54
113365	7	Sololá	713	San Lucas Tolimán	10	San Lucas Tolimán	3	Marzo	2023-03-20T00:00:00	2024-11-08T20:00:00	6	Velocidad del viento	9.7
113366	7	Sololá	713	San Lucas Tolimán	10	San Lucas Tolimán	3	Marzo	2023-03-20T00:00:00	2024-11-08T20:00:00	7	Dirección del viento	9.66
113367	7	Sololá	713	San Lucas Tolimán	10	San Lucas Tolimán	3	Marzo	2023-03-20T00:00:00	2024-11-08T20:00:00	1	Precipitación	0
113368	7	Sololá	713	San Lucas Tolimán	10	San Lucas Tolimán	3	Marzo	2023-03-20T00:00:00	2024-11-08T20:00:00	8	Radiación solar	0
113369	7	Sololá	713	San Lucas Tolimán	10	San Lucas Tolimán	3	Marzo	2023-03-20T00:00:00	2024-11-08T21:00:00	2	Temperatura media	17.8
113370	7	Sololá	713	San Lucas Tolimán	10	San Lucas Tolimán	3	Marzo	2023-03-20T00:00:00	2024-11-08T21:00:00	4	Temperatura máxima	19.1
113371	7	Sololá	713	San Lucas Tolimán	10	San Lucas Tolimán	3	Marzo	2023-03-20T00:00:00	2024-11-08T21:00:00	3	Temperatura mínima	17.7
113372	7	Sololá	713	San Lucas Tolimán	10	San Lucas Tolimán	3	Marzo	2023-03-20T00:00:00	2024-11-08T21:00:00	5	Humedad	57
113373	7	Sololá	713	San Lucas Tolimán	10	San Lucas Tolimán	3	Marzo	2023-03-20T00:00:00	2024-11-08T21:00:00	6	Velocidad del viento	0
113374	7	Sololá	713	San Lucas Tolimán	10	San Lucas Tolimán	3	Marzo	2023-03-20T00:00:00	2024-11-08T21:00:00	7	Dirección del viento	0
113375	7	Sololá	713	San Lucas Tolimán	10	San Lucas Tolimán	3	Marzo	2023-03-20T00:00:00	2024-11-08T21:00:00	1	Precipitación	0
113376	7	Sololá	713	San Lucas Tolimán	10	San Lucas Tolimán	3	Marzo	2023-03-20T00:00:00	2024-11-08T21:00:00	8	Radiación solar	0
113377	7	Sololá	713	San Lucas Tolimán	10	San Lucas Tolimán	3	Marzo	2023-03-20T00:00:00	2024-11-08T22:00:00	2	Temperatura media	17.2
113378	7	Sololá	713	San Lucas Tolimán	10	San Lucas Tolimán	3	Marzo	2023-03-20T00:00:00	2024-11-08T22:00:00	4	Temperatura máxima	17.9
113379	7	Sololá	713	San Lucas Tolimán	10	San Lucas Tolimán	3	Marzo	2023-03-20T00:00:00	2024-11-08T22:00:00	3	Temperatura mínima	17.2
113380	7	Sololá	713	San Lucas Tolimán	10	San Lucas Tolimán	3	Marzo	2023-03-20T00:00:00	2024-11-08T22:00:00	5	Humedad	60
113381	7	Sololá	713	San Lucas Tolimán	10	San Lucas Tolimán	3	Marzo	2023-03-20T00:00:00	2024-11-08T22:00:00	6	Velocidad del viento	3.2
113382	7	Sololá	713	San Lucas Tolimán	10	San Lucas Tolimán	3	Marzo	2023-03-20T00:00:00	2024-11-08T22:00:00	7	Dirección del viento	3.22
113383	7	Sololá	713	San Lucas Tolimán	10	San Lucas Tolimán	3	Marzo	2023-03-20T00:00:00	2024-11-08T22:00:00	1	Precipitación	0
113384	7	Sololá	713	San Lucas Tolimán	10	San Lucas Tolimán	3	Marzo	2023-03-20T00:00:00	2024-11-08T22:00:00	8	Radiación solar	0
113385	7	Sololá	713	San Lucas Tolimán	10	San Lucas Tolimán	3	Marzo	2023-03-20T00:00:00	2024-11-08T23:00:00	2	Temperatura media	17.8
113386	7	Sololá	713	San Lucas Tolimán	10	San Lucas Tolimán	3	Marzo	2023-03-20T00:00:00	2024-11-08T23:00:00	4	Temperatura máxima	18.1
113387	7	Sololá	713	San Lucas Tolimán	10	San Lucas Tolimán	3	Marzo	2023-03-20T00:00:00	2024-11-08T23:00:00	3	Temperatura mínima	17.1
113388	7	Sololá	713	San Lucas Tolimán	10	San Lucas Tolimán	3	Marzo	2023-03-20T00:00:00	2024-11-08T23:00:00	5	Humedad	57
113389	7	Sololá	713	San Lucas Tolimán	10	San Lucas Tolimán	3	Marzo	2023-03-20T00:00:00	2024-11-08T23:00:00	6	Velocidad del viento	3.2
113390	7	Sololá	713	San Lucas Tolimán	10	San Lucas Tolimán	3	Marzo	2023-03-20T00:00:00	2024-11-08T23:00:00	7	Dirección del viento	3.22
113391	7	Sololá	713	San Lucas Tolimán	10	San Lucas Tolimán	3	Marzo	2023-03-20T00:00:00	2024-11-08T23:00:00	1	Precipitación	0
113392	7	Sololá	713	San Lucas Tolimán	10	San Lucas Tolimán	3	Marzo	2023-03-20T00:00:00	2024-11-08T23:00:00	8	Radiación solar	0
113393	7	Sololá	713	San Lucas Tolimán	10	San Lucas Tolimán	3	Marzo	2023-03-21T00:00:00	2024-11-08T00:00:00	2	Temperatura media	19.3
113394	7	Sololá	713	San Lucas Tolimán	10	San Lucas Tolimán	3	Marzo	2023-03-21T00:00:00	2024-11-08T00:00:00	4	Temperatura máxima	19.3
113395	7	Sololá	713	San Lucas Tolimán	10	San Lucas Tolimán	3	Marzo	2023-03-21T00:00:00	2024-11-08T00:00:00	3	Temperatura mínima	17.8
113396	7	Sololá	713	San Lucas Tolimán	10	San Lucas Tolimán	3	Marzo	2023-03-21T00:00:00	2024-11-08T00:00:00	5	Humedad	52
113397	7	Sololá	713	San Lucas Tolimán	10	San Lucas Tolimán	3	Marzo	2023-03-21T00:00:00	2024-11-08T00:00:00	6	Velocidad del viento	4.8
113398	7	Sololá	713	San Lucas Tolimán	10	San Lucas Tolimán	3	Marzo	2023-03-21T00:00:00	2024-11-08T00:00:00	7	Dirección del viento	4.83
113399	7	Sololá	713	San Lucas Tolimán	10	San Lucas Tolimán	3	Marzo	2023-03-21T00:00:00	2024-11-08T00:00:00	1	Precipitación	0
113400	7	Sololá	713	San Lucas Tolimán	10	San Lucas Tolimán	3	Marzo	2023-03-21T00:00:00	2024-11-08T00:00:00	8	Radiación solar	0
113401	7	Sololá	713	San Lucas Tolimán	10	San Lucas Tolimán	3	Marzo	2023-03-21T00:00:00	2024-11-08T01:00:00	2	Temperatura media	17.9
113402	7	Sololá	713	San Lucas Tolimán	10	San Lucas Tolimán	3	Marzo	2023-03-21T00:00:00	2024-11-08T01:00:00	4	Temperatura máxima	19.5
113403	7	Sololá	713	San Lucas Tolimán	10	San Lucas Tolimán	3	Marzo	2023-03-21T00:00:00	2024-11-08T01:00:00	3	Temperatura mínima	17.9
113404	7	Sololá	713	San Lucas Tolimán	10	San Lucas Tolimán	3	Marzo	2023-03-21T00:00:00	2024-11-08T01:00:00	5	Humedad	56
113405	7	Sololá	713	San Lucas Tolimán	10	San Lucas Tolimán	3	Marzo	2023-03-21T00:00:00	2024-11-08T01:00:00	6	Velocidad del viento	6.4
113406	7	Sololá	713	San Lucas Tolimán	10	San Lucas Tolimán	3	Marzo	2023-03-21T00:00:00	2024-11-08T01:00:00	7	Dirección del viento	6.44
113407	7	Sololá	713	San Lucas Tolimán	10	San Lucas Tolimán	3	Marzo	2023-03-21T00:00:00	2024-11-08T01:00:00	1	Precipitación	0
113408	7	Sololá	713	San Lucas Tolimán	10	San Lucas Tolimán	3	Marzo	2023-03-21T00:00:00	2024-11-08T01:00:00	8	Radiación solar	0
113409	7	Sololá	713	San Lucas Tolimán	10	San Lucas Tolimán	3	Marzo	2023-03-21T00:00:00	2024-11-08T02:00:00	2	Temperatura media	17.9
113410	7	Sololá	713	San Lucas Tolimán	10	San Lucas Tolimán	3	Marzo	2023-03-21T00:00:00	2024-11-08T02:00:00	4	Temperatura máxima	18
113411	7	Sololá	713	San Lucas Tolimán	10	San Lucas Tolimán	3	Marzo	2023-03-21T00:00:00	2024-11-08T02:00:00	3	Temperatura mínima	17.1
113412	7	Sololá	713	San Lucas Tolimán	10	San Lucas Tolimán	3	Marzo	2023-03-21T00:00:00	2024-11-08T02:00:00	5	Humedad	56
113413	7	Sololá	713	San Lucas Tolimán	10	San Lucas Tolimán	3	Marzo	2023-03-21T00:00:00	2024-11-08T02:00:00	6	Velocidad del viento	3.2
113414	7	Sololá	713	San Lucas Tolimán	10	San Lucas Tolimán	3	Marzo	2023-03-21T00:00:00	2024-11-08T02:00:00	7	Dirección del viento	3.22
113415	7	Sololá	713	San Lucas Tolimán	10	San Lucas Tolimán	3	Marzo	2023-03-21T00:00:00	2024-11-08T02:00:00	1	Precipitación	0
113416	7	Sololá	713	San Lucas Tolimán	10	San Lucas Tolimán	3	Marzo	2023-03-21T00:00:00	2024-11-08T02:00:00	8	Radiación solar	0
113417	7	Sololá	713	San Lucas Tolimán	10	San Lucas Tolimán	3	Marzo	2023-03-21T00:00:00	2024-11-08T03:00:00	2	Temperatura media	17.3
113418	7	Sololá	713	San Lucas Tolimán	10	San Lucas Tolimán	3	Marzo	2023-03-21T00:00:00	2024-11-08T03:00:00	4	Temperatura máxima	18
113419	7	Sololá	713	San Lucas Tolimán	10	San Lucas Tolimán	3	Marzo	2023-03-21T00:00:00	2024-11-08T03:00:00	3	Temperatura mínima	16.8
113420	7	Sololá	713	San Lucas Tolimán	10	San Lucas Tolimán	3	Marzo	2023-03-21T00:00:00	2024-11-08T03:00:00	5	Humedad	59
113421	7	Sololá	713	San Lucas Tolimán	10	San Lucas Tolimán	3	Marzo	2023-03-21T00:00:00	2024-11-08T03:00:00	6	Velocidad del viento	3.2
113422	7	Sololá	713	San Lucas Tolimán	10	San Lucas Tolimán	3	Marzo	2023-03-21T00:00:00	2024-11-08T03:00:00	7	Dirección del viento	3.22
113423	7	Sololá	713	San Lucas Tolimán	10	San Lucas Tolimán	3	Marzo	2023-03-21T00:00:00	2024-11-08T03:00:00	1	Precipitación	0
113424	7	Sololá	713	San Lucas Tolimán	10	San Lucas Tolimán	3	Marzo	2023-03-21T00:00:00	2024-11-08T03:00:00	8	Radiación solar	0
113425	7	Sololá	713	San Lucas Tolimán	10	San Lucas Tolimán	3	Marzo	2023-03-21T00:00:00	2024-11-08T04:00:00	2	Temperatura media	17.3
113426	7	Sololá	713	San Lucas Tolimán	10	San Lucas Tolimán	3	Marzo	2023-03-21T00:00:00	2024-11-08T04:00:00	4	Temperatura máxima	17.6
113427	7	Sololá	713	San Lucas Tolimán	10	San Lucas Tolimán	3	Marzo	2023-03-21T00:00:00	2024-11-08T04:00:00	3	Temperatura mínima	16.8
113428	7	Sololá	713	San Lucas Tolimán	10	San Lucas Tolimán	3	Marzo	2023-03-21T00:00:00	2024-11-08T04:00:00	5	Humedad	58
113429	7	Sololá	713	San Lucas Tolimán	10	San Lucas Tolimán	3	Marzo	2023-03-21T00:00:00	2024-11-08T04:00:00	6	Velocidad del viento	3.2
113430	7	Sololá	713	San Lucas Tolimán	10	San Lucas Tolimán	3	Marzo	2023-03-21T00:00:00	2024-11-08T04:00:00	7	Dirección del viento	3.22
113431	7	Sololá	713	San Lucas Tolimán	10	San Lucas Tolimán	3	Marzo	2023-03-21T00:00:00	2024-11-08T04:00:00	1	Precipitación	0
113432	7	Sololá	713	San Lucas Tolimán	10	San Lucas Tolimán	3	Marzo	2023-03-21T00:00:00	2024-11-08T04:00:00	8	Radiación solar	0
113433	7	Sololá	713	San Lucas Tolimán	10	San Lucas Tolimán	3	Marzo	2023-03-21T00:00:00	2024-11-08T05:00:00	2	Temperatura media	16.9
113434	7	Sololá	713	San Lucas Tolimán	10	San Lucas Tolimán	3	Marzo	2023-03-21T00:00:00	2024-11-08T05:00:00	4	Temperatura máxima	17.3
113435	7	Sololá	713	San Lucas Tolimán	10	San Lucas Tolimán	3	Marzo	2023-03-21T00:00:00	2024-11-08T05:00:00	3	Temperatura mínima	16.5
113436	7	Sololá	713	San Lucas Tolimán	10	San Lucas Tolimán	3	Marzo	2023-03-21T00:00:00	2024-11-08T05:00:00	5	Humedad	59
113437	7	Sololá	713	San Lucas Tolimán	10	San Lucas Tolimán	3	Marzo	2023-03-21T00:00:00	2024-11-08T05:00:00	6	Velocidad del viento	3.2
113438	7	Sololá	713	San Lucas Tolimán	10	San Lucas Tolimán	3	Marzo	2023-03-21T00:00:00	2024-11-08T05:00:00	7	Dirección del viento	3.22
113439	7	Sololá	713	San Lucas Tolimán	10	San Lucas Tolimán	3	Marzo	2023-03-21T00:00:00	2024-11-08T05:00:00	1	Precipitación	0
113440	7	Sololá	713	San Lucas Tolimán	10	San Lucas Tolimán	3	Marzo	2023-03-21T00:00:00	2024-11-08T05:00:00	8	Radiación solar	0
113441	7	Sololá	713	San Lucas Tolimán	10	San Lucas Tolimán	3	Marzo	2023-03-21T00:00:00	2024-11-08T06:00:00	2	Temperatura media	17.8
113442	7	Sololá	713	San Lucas Tolimán	10	San Lucas Tolimán	3	Marzo	2023-03-21T00:00:00	2024-11-08T06:00:00	4	Temperatura máxima	17.8
113443	7	Sololá	713	San Lucas Tolimán	10	San Lucas Tolimán	3	Marzo	2023-03-21T00:00:00	2024-11-08T06:00:00	3	Temperatura mínima	16.9
113444	7	Sololá	713	San Lucas Tolimán	10	San Lucas Tolimán	3	Marzo	2023-03-21T00:00:00	2024-11-08T06:00:00	5	Humedad	56
113445	7	Sololá	713	San Lucas Tolimán	10	San Lucas Tolimán	3	Marzo	2023-03-21T00:00:00	2024-11-08T06:00:00	6	Velocidad del viento	3.2
113446	7	Sololá	713	San Lucas Tolimán	10	San Lucas Tolimán	3	Marzo	2023-03-21T00:00:00	2024-11-08T06:00:00	7	Dirección del viento	3.22
113447	7	Sololá	713	San Lucas Tolimán	10	San Lucas Tolimán	3	Marzo	2023-03-21T00:00:00	2024-11-08T06:00:00	1	Precipitación	0
113448	7	Sololá	713	San Lucas Tolimán	10	San Lucas Tolimán	3	Marzo	2023-03-21T00:00:00	2024-11-08T06:00:00	8	Radiación solar	0
113449	7	Sololá	713	San Lucas Tolimán	10	San Lucas Tolimán	3	Marzo	2023-03-21T00:00:00	2024-11-08T07:00:00	2	Temperatura media	17.8
113450	7	Sololá	713	San Lucas Tolimán	10	San Lucas Tolimán	3	Marzo	2023-03-21T00:00:00	2024-11-08T07:00:00	4	Temperatura máxima	17.8
113451	7	Sololá	713	San Lucas Tolimán	10	San Lucas Tolimán	3	Marzo	2023-03-21T00:00:00	2024-11-08T07:00:00	3	Temperatura mínima	17
113452	7	Sololá	713	San Lucas Tolimán	10	San Lucas Tolimán	3	Marzo	2023-03-21T00:00:00	2024-11-08T07:00:00	5	Humedad	55
113453	7	Sololá	713	San Lucas Tolimán	10	San Lucas Tolimán	3	Marzo	2023-03-21T00:00:00	2024-11-08T07:00:00	6	Velocidad del viento	1.6
113454	7	Sololá	713	San Lucas Tolimán	10	San Lucas Tolimán	3	Marzo	2023-03-21T00:00:00	2024-11-08T07:00:00	7	Dirección del viento	1.61
113455	7	Sololá	713	San Lucas Tolimán	10	San Lucas Tolimán	3	Marzo	2023-03-21T00:00:00	2024-11-08T07:00:00	1	Precipitación	0
113456	7	Sololá	713	San Lucas Tolimán	10	San Lucas Tolimán	3	Marzo	2023-03-21T00:00:00	2024-11-08T07:00:00	8	Radiación solar	23
113457	7	Sololá	713	San Lucas Tolimán	10	San Lucas Tolimán	3	Marzo	2023-03-21T00:00:00	2024-11-08T08:00:00	2	Temperatura media	19.7
113458	7	Sololá	713	San Lucas Tolimán	10	San Lucas Tolimán	3	Marzo	2023-03-21T00:00:00	2024-11-08T08:00:00	4	Temperatura máxima	20.5
113459	7	Sololá	713	San Lucas Tolimán	10	San Lucas Tolimán	3	Marzo	2023-03-21T00:00:00	2024-11-08T08:00:00	3	Temperatura mínima	17.8
113460	7	Sololá	713	San Lucas Tolimán	10	San Lucas Tolimán	3	Marzo	2023-03-21T00:00:00	2024-11-08T08:00:00	5	Humedad	53
113461	7	Sololá	713	San Lucas Tolimán	10	San Lucas Tolimán	3	Marzo	2023-03-21T00:00:00	2024-11-08T08:00:00	6	Velocidad del viento	3.2
113462	7	Sololá	713	San Lucas Tolimán	10	San Lucas Tolimán	3	Marzo	2023-03-21T00:00:00	2024-11-08T08:00:00	7	Dirección del viento	3.22
113463	7	Sololá	713	San Lucas Tolimán	10	San Lucas Tolimán	3	Marzo	2023-03-21T00:00:00	2024-11-08T08:00:00	1	Precipitación	0
113464	7	Sololá	713	San Lucas Tolimán	10	San Lucas Tolimán	3	Marzo	2023-03-21T00:00:00	2024-11-08T08:00:00	8	Radiación solar	190
113465	7	Sololá	713	San Lucas Tolimán	10	San Lucas Tolimán	3	Marzo	2023-03-21T00:00:00	2024-11-08T09:00:00	2	Temperatura media	22
113466	7	Sololá	713	San Lucas Tolimán	10	San Lucas Tolimán	3	Marzo	2023-03-21T00:00:00	2024-11-08T09:00:00	4	Temperatura máxima	22
113467	7	Sololá	713	San Lucas Tolimán	10	San Lucas Tolimán	3	Marzo	2023-03-21T00:00:00	2024-11-08T09:00:00	3	Temperatura mínima	19.4
113468	7	Sololá	713	San Lucas Tolimán	10	San Lucas Tolimán	3	Marzo	2023-03-21T00:00:00	2024-11-08T09:00:00	5	Humedad	47
113469	7	Sololá	713	San Lucas Tolimán	10	San Lucas Tolimán	3	Marzo	2023-03-21T00:00:00	2024-11-08T09:00:00	6	Velocidad del viento	4.8
113470	7	Sololá	713	San Lucas Tolimán	10	San Lucas Tolimán	3	Marzo	2023-03-21T00:00:00	2024-11-08T09:00:00	7	Dirección del viento	4.83
113471	7	Sololá	713	San Lucas Tolimán	10	San Lucas Tolimán	3	Marzo	2023-03-21T00:00:00	2024-11-08T09:00:00	1	Precipitación	0
113472	7	Sololá	713	San Lucas Tolimán	10	San Lucas Tolimán	3	Marzo	2023-03-21T00:00:00	2024-11-08T09:00:00	8	Radiación solar	542
113473	7	Sololá	713	San Lucas Tolimán	10	San Lucas Tolimán	3	Marzo	2023-03-21T00:00:00	2024-11-08T10:00:00	2	Temperatura media	22.4
113474	7	Sololá	713	San Lucas Tolimán	10	San Lucas Tolimán	3	Marzo	2023-03-21T00:00:00	2024-11-08T10:00:00	4	Temperatura máxima	23
113475	7	Sololá	713	San Lucas Tolimán	10	San Lucas Tolimán	3	Marzo	2023-03-21T00:00:00	2024-11-08T10:00:00	3	Temperatura mínima	21.9
113476	7	Sololá	713	San Lucas Tolimán	10	San Lucas Tolimán	3	Marzo	2023-03-21T00:00:00	2024-11-08T10:00:00	5	Humedad	46
113477	7	Sololá	713	San Lucas Tolimán	10	San Lucas Tolimán	3	Marzo	2023-03-21T00:00:00	2024-11-08T10:00:00	6	Velocidad del viento	8
113478	7	Sololá	713	San Lucas Tolimán	10	San Lucas Tolimán	3	Marzo	2023-03-21T00:00:00	2024-11-08T10:00:00	7	Dirección del viento	8.05
113479	7	Sololá	713	San Lucas Tolimán	10	San Lucas Tolimán	3	Marzo	2023-03-21T00:00:00	2024-11-08T10:00:00	1	Precipitación	0
113480	7	Sololá	713	San Lucas Tolimán	10	San Lucas Tolimán	3	Marzo	2023-03-21T00:00:00	2024-11-08T10:00:00	8	Radiación solar	794
113481	7	Sololá	713	San Lucas Tolimán	10	San Lucas Tolimán	3	Marzo	2023-03-21T00:00:00	2024-11-08T11:00:00	2	Temperatura media	23.8
113482	7	Sololá	713	San Lucas Tolimán	10	San Lucas Tolimán	3	Marzo	2023-03-21T00:00:00	2024-11-08T11:00:00	4	Temperatura máxima	23.8
113483	7	Sololá	713	San Lucas Tolimán	10	San Lucas Tolimán	3	Marzo	2023-03-21T00:00:00	2024-11-08T11:00:00	3	Temperatura mínima	21.8
113484	7	Sololá	713	San Lucas Tolimán	10	San Lucas Tolimán	3	Marzo	2023-03-21T00:00:00	2024-11-08T11:00:00	5	Humedad	41
113485	7	Sololá	713	San Lucas Tolimán	10	San Lucas Tolimán	3	Marzo	2023-03-21T00:00:00	2024-11-08T11:00:00	6	Velocidad del viento	9.7
113486	7	Sololá	713	San Lucas Tolimán	10	San Lucas Tolimán	3	Marzo	2023-03-21T00:00:00	2024-11-08T11:00:00	7	Dirección del viento	9.66
113487	7	Sololá	713	San Lucas Tolimán	10	San Lucas Tolimán	3	Marzo	2023-03-21T00:00:00	2024-11-08T11:00:00	1	Precipitación	0
113488	7	Sololá	713	San Lucas Tolimán	10	San Lucas Tolimán	3	Marzo	2023-03-21T00:00:00	2024-11-08T11:00:00	8	Radiación solar	615
113489	7	Sololá	713	San Lucas Tolimán	10	San Lucas Tolimán	3	Marzo	2023-03-21T00:00:00	2024-11-08T12:00:00	2	Temperatura media	24.7
113490	7	Sololá	713	San Lucas Tolimán	10	San Lucas Tolimán	3	Marzo	2023-03-21T00:00:00	2024-11-08T12:00:00	4	Temperatura máxima	25
113491	7	Sololá	713	San Lucas Tolimán	10	San Lucas Tolimán	3	Marzo	2023-03-21T00:00:00	2024-11-08T12:00:00	3	Temperatura mínima	23
113492	7	Sololá	713	San Lucas Tolimán	10	San Lucas Tolimán	3	Marzo	2023-03-21T00:00:00	2024-11-08T12:00:00	5	Humedad	37
113493	7	Sololá	713	San Lucas Tolimán	10	San Lucas Tolimán	3	Marzo	2023-03-21T00:00:00	2024-11-08T12:00:00	6	Velocidad del viento	14.5
113494	7	Sololá	713	San Lucas Tolimán	10	San Lucas Tolimán	3	Marzo	2023-03-21T00:00:00	2024-11-08T12:00:00	7	Dirección del viento	14.48
113495	7	Sololá	713	San Lucas Tolimán	10	San Lucas Tolimán	3	Marzo	2023-03-21T00:00:00	2024-11-08T12:00:00	1	Precipitación	0
113496	7	Sololá	713	San Lucas Tolimán	10	San Lucas Tolimán	3	Marzo	2023-03-21T00:00:00	2024-11-08T12:00:00	8	Radiación solar	1002
113497	7	Sololá	713	San Lucas Tolimán	10	San Lucas Tolimán	3	Marzo	2023-03-21T00:00:00	2024-11-08T13:00:00	2	Temperatura media	24.8
113498	7	Sololá	713	San Lucas Tolimán	10	San Lucas Tolimán	3	Marzo	2023-03-21T00:00:00	2024-11-08T13:00:00	4	Temperatura máxima	25.2
113499	7	Sololá	713	San Lucas Tolimán	10	San Lucas Tolimán	3	Marzo	2023-03-21T00:00:00	2024-11-08T13:00:00	3	Temperatura mínima	24.3
113500	7	Sololá	713	San Lucas Tolimán	10	San Lucas Tolimán	3	Marzo	2023-03-21T00:00:00	2024-11-08T13:00:00	5	Humedad	35
113501	7	Sololá	713	San Lucas Tolimán	10	San Lucas Tolimán	3	Marzo	2023-03-21T00:00:00	2024-11-08T13:00:00	6	Velocidad del viento	9.7
113502	7	Sololá	713	San Lucas Tolimán	10	San Lucas Tolimán	3	Marzo	2023-03-21T00:00:00	2024-11-08T13:00:00	7	Dirección del viento	9.66
113503	7	Sololá	713	San Lucas Tolimán	10	San Lucas Tolimán	3	Marzo	2023-03-21T00:00:00	2024-11-08T13:00:00	1	Precipitación	0
113504	7	Sololá	713	San Lucas Tolimán	10	San Lucas Tolimán	3	Marzo	2023-03-21T00:00:00	2024-11-08T13:00:00	8	Radiación solar	717
113505	7	Sololá	713	San Lucas Tolimán	10	San Lucas Tolimán	3	Marzo	2023-03-21T00:00:00	2024-11-08T14:00:00	2	Temperatura media	24.3
113506	7	Sololá	713	San Lucas Tolimán	10	San Lucas Tolimán	3	Marzo	2023-03-21T00:00:00	2024-11-08T14:00:00	4	Temperatura máxima	24.8
113507	7	Sololá	713	San Lucas Tolimán	10	San Lucas Tolimán	3	Marzo	2023-03-21T00:00:00	2024-11-08T14:00:00	3	Temperatura mínima	23.1
113508	7	Sololá	713	San Lucas Tolimán	10	San Lucas Tolimán	3	Marzo	2023-03-21T00:00:00	2024-11-08T14:00:00	5	Humedad	55
113509	7	Sololá	713	San Lucas Tolimán	10	San Lucas Tolimán	3	Marzo	2023-03-21T00:00:00	2024-11-08T14:00:00	6	Velocidad del viento	6.4
113510	7	Sololá	713	San Lucas Tolimán	10	San Lucas Tolimán	3	Marzo	2023-03-21T00:00:00	2024-11-08T14:00:00	7	Dirección del viento	6.44
113511	7	Sololá	713	San Lucas Tolimán	10	San Lucas Tolimán	3	Marzo	2023-03-21T00:00:00	2024-11-08T14:00:00	1	Precipitación	0
113512	7	Sololá	713	San Lucas Tolimán	10	San Lucas Tolimán	3	Marzo	2023-03-21T00:00:00	2024-11-08T14:00:00	8	Radiación solar	422
113513	7	Sololá	713	San Lucas Tolimán	10	San Lucas Tolimán	3	Marzo	2023-03-21T00:00:00	2024-11-08T15:00:00	2	Temperatura media	22.8
113514	7	Sololá	713	San Lucas Tolimán	10	San Lucas Tolimán	3	Marzo	2023-03-21T00:00:00	2024-11-08T15:00:00	4	Temperatura máxima	24.2
113515	7	Sololá	713	San Lucas Tolimán	10	San Lucas Tolimán	3	Marzo	2023-03-21T00:00:00	2024-11-08T15:00:00	3	Temperatura mínima	22.4
113516	7	Sololá	713	San Lucas Tolimán	10	San Lucas Tolimán	3	Marzo	2023-03-21T00:00:00	2024-11-08T15:00:00	5	Humedad	58
113517	7	Sololá	713	San Lucas Tolimán	10	San Lucas Tolimán	3	Marzo	2023-03-21T00:00:00	2024-11-08T15:00:00	6	Velocidad del viento	8
113518	7	Sololá	713	San Lucas Tolimán	10	San Lucas Tolimán	3	Marzo	2023-03-21T00:00:00	2024-11-08T15:00:00	7	Dirección del viento	8.05
113519	7	Sololá	713	San Lucas Tolimán	10	San Lucas Tolimán	3	Marzo	2023-03-21T00:00:00	2024-11-08T15:00:00	1	Precipitación	0
113520	7	Sololá	713	San Lucas Tolimán	10	San Lucas Tolimán	3	Marzo	2023-03-21T00:00:00	2024-11-08T15:00:00	8	Radiación solar	367
113521	7	Sololá	713	San Lucas Tolimán	10	San Lucas Tolimán	3	Marzo	2023-03-21T00:00:00	2024-11-08T16:00:00	2	Temperatura media	23.4
113522	7	Sololá	713	San Lucas Tolimán	10	San Lucas Tolimán	3	Marzo	2023-03-21T00:00:00	2024-11-08T16:00:00	4	Temperatura máxima	23.4
113523	7	Sololá	713	San Lucas Tolimán	10	San Lucas Tolimán	3	Marzo	2023-03-21T00:00:00	2024-11-08T16:00:00	3	Temperatura mínima	22.2
113524	7	Sololá	713	San Lucas Tolimán	10	San Lucas Tolimán	3	Marzo	2023-03-21T00:00:00	2024-11-08T16:00:00	5	Humedad	46
113525	7	Sololá	713	San Lucas Tolimán	10	San Lucas Tolimán	3	Marzo	2023-03-21T00:00:00	2024-11-08T16:00:00	6	Velocidad del viento	4.8
113526	7	Sololá	713	San Lucas Tolimán	10	San Lucas Tolimán	3	Marzo	2023-03-21T00:00:00	2024-11-08T16:00:00	7	Dirección del viento	4.83
113527	7	Sololá	713	San Lucas Tolimán	10	San Lucas Tolimán	3	Marzo	2023-03-21T00:00:00	2024-11-08T16:00:00	1	Precipitación	0
113528	7	Sololá	713	San Lucas Tolimán	10	San Lucas Tolimán	3	Marzo	2023-03-21T00:00:00	2024-11-08T16:00:00	8	Radiación solar	258
113529	7	Sololá	713	San Lucas Tolimán	10	San Lucas Tolimán	3	Marzo	2023-03-21T00:00:00	2024-11-08T17:00:00	2	Temperatura media	23.8
113530	7	Sololá	713	San Lucas Tolimán	10	San Lucas Tolimán	3	Marzo	2023-03-21T00:00:00	2024-11-08T17:00:00	4	Temperatura máxima	24
113531	7	Sololá	713	San Lucas Tolimán	10	San Lucas Tolimán	3	Marzo	2023-03-21T00:00:00	2024-11-08T17:00:00	3	Temperatura mínima	23
113532	7	Sololá	713	San Lucas Tolimán	10	San Lucas Tolimán	3	Marzo	2023-03-21T00:00:00	2024-11-08T17:00:00	5	Humedad	40
113533	7	Sololá	713	San Lucas Tolimán	10	San Lucas Tolimán	3	Marzo	2023-03-21T00:00:00	2024-11-08T17:00:00	6	Velocidad del viento	8
113534	7	Sololá	713	San Lucas Tolimán	10	San Lucas Tolimán	3	Marzo	2023-03-21T00:00:00	2024-11-08T17:00:00	7	Dirección del viento	8.05
113535	7	Sololá	713	San Lucas Tolimán	10	San Lucas Tolimán	3	Marzo	2023-03-21T00:00:00	2024-11-08T17:00:00	1	Precipitación	0
113536	7	Sololá	713	San Lucas Tolimán	10	San Lucas Tolimán	3	Marzo	2023-03-21T00:00:00	2024-11-08T17:00:00	8	Radiación solar	310
113537	7	Sololá	713	San Lucas Tolimán	10	San Lucas Tolimán	3	Marzo	2023-03-21T00:00:00	2024-11-08T18:00:00	2	Temperatura media	22.1
113538	7	Sololá	713	San Lucas Tolimán	10	San Lucas Tolimán	3	Marzo	2023-03-21T00:00:00	2024-11-08T18:00:00	4	Temperatura máxima	23.8
113539	7	Sololá	713	San Lucas Tolimán	10	San Lucas Tolimán	3	Marzo	2023-03-21T00:00:00	2024-11-08T18:00:00	3	Temperatura mínima	22.1
113540	7	Sololá	713	San Lucas Tolimán	10	San Lucas Tolimán	3	Marzo	2023-03-21T00:00:00	2024-11-08T18:00:00	5	Humedad	46
113541	7	Sololá	713	San Lucas Tolimán	10	San Lucas Tolimán	3	Marzo	2023-03-21T00:00:00	2024-11-08T18:00:00	6	Velocidad del viento	11.3
113542	7	Sololá	713	San Lucas Tolimán	10	San Lucas Tolimán	3	Marzo	2023-03-21T00:00:00	2024-11-08T18:00:00	7	Dirección del viento	11.27
113543	7	Sololá	713	San Lucas Tolimán	10	San Lucas Tolimán	3	Marzo	2023-03-21T00:00:00	2024-11-08T18:00:00	1	Precipitación	0
113544	7	Sololá	713	San Lucas Tolimán	10	San Lucas Tolimán	3	Marzo	2023-03-21T00:00:00	2024-11-08T18:00:00	8	Radiación solar	81
113545	7	Sololá	713	San Lucas Tolimán	10	San Lucas Tolimán	3	Marzo	2023-03-21T00:00:00	2024-11-08T19:00:00	2	Temperatura media	20.5
113546	7	Sololá	713	San Lucas Tolimán	10	San Lucas Tolimán	3	Marzo	2023-03-21T00:00:00	2024-11-08T19:00:00	4	Temperatura máxima	22.1
113547	7	Sololá	713	San Lucas Tolimán	10	San Lucas Tolimán	3	Marzo	2023-03-21T00:00:00	2024-11-08T19:00:00	3	Temperatura mínima	20.5
113548	7	Sololá	713	San Lucas Tolimán	10	San Lucas Tolimán	3	Marzo	2023-03-21T00:00:00	2024-11-08T19:00:00	5	Humedad	52
113549	7	Sololá	713	San Lucas Tolimán	10	San Lucas Tolimán	3	Marzo	2023-03-21T00:00:00	2024-11-08T19:00:00	6	Velocidad del viento	16.1
113550	7	Sololá	713	San Lucas Tolimán	10	San Lucas Tolimán	3	Marzo	2023-03-21T00:00:00	2024-11-08T19:00:00	7	Dirección del viento	16.09
113551	7	Sololá	713	San Lucas Tolimán	10	San Lucas Tolimán	3	Marzo	2023-03-21T00:00:00	2024-11-08T19:00:00	1	Precipitación	0
113552	7	Sololá	713	San Lucas Tolimán	10	San Lucas Tolimán	3	Marzo	2023-03-21T00:00:00	2024-11-08T19:00:00	8	Radiación solar	0
113553	7	Sololá	713	San Lucas Tolimán	10	San Lucas Tolimán	3	Marzo	2023-03-21T00:00:00	2024-11-08T20:00:00	2	Temperatura media	20.5
113554	7	Sololá	713	San Lucas Tolimán	10	San Lucas Tolimán	3	Marzo	2023-03-21T00:00:00	2024-11-08T20:00:00	4	Temperatura máxima	20.5
113555	7	Sololá	713	San Lucas Tolimán	10	San Lucas Tolimán	3	Marzo	2023-03-21T00:00:00	2024-11-08T20:00:00	3	Temperatura mínima	20.3
113556	7	Sololá	713	San Lucas Tolimán	10	San Lucas Tolimán	3	Marzo	2023-03-21T00:00:00	2024-11-08T20:00:00	5	Humedad	53
113557	7	Sololá	713	San Lucas Tolimán	10	San Lucas Tolimán	3	Marzo	2023-03-21T00:00:00	2024-11-08T20:00:00	6	Velocidad del viento	17.7
113558	7	Sololá	713	San Lucas Tolimán	10	San Lucas Tolimán	3	Marzo	2023-03-21T00:00:00	2024-11-08T20:00:00	7	Dirección del viento	17.7
113559	7	Sololá	713	San Lucas Tolimán	10	San Lucas Tolimán	3	Marzo	2023-03-21T00:00:00	2024-11-08T20:00:00	1	Precipitación	0
113560	7	Sololá	713	San Lucas Tolimán	10	San Lucas Tolimán	3	Marzo	2023-03-21T00:00:00	2024-11-08T20:00:00	8	Radiación solar	0
113561	7	Sololá	713	San Lucas Tolimán	10	San Lucas Tolimán	3	Marzo	2023-03-21T00:00:00	2024-11-08T21:00:00	2	Temperatura media	20.7
113562	7	Sololá	713	San Lucas Tolimán	10	San Lucas Tolimán	3	Marzo	2023-03-21T00:00:00	2024-11-08T21:00:00	4	Temperatura máxima	20.7
113563	7	Sololá	713	San Lucas Tolimán	10	San Lucas Tolimán	3	Marzo	2023-03-21T00:00:00	2024-11-08T21:00:00	3	Temperatura mínima	20.3
113564	7	Sololá	713	San Lucas Tolimán	10	San Lucas Tolimán	3	Marzo	2023-03-21T00:00:00	2024-11-08T21:00:00	5	Humedad	52
113565	7	Sololá	713	San Lucas Tolimán	10	San Lucas Tolimán	3	Marzo	2023-03-21T00:00:00	2024-11-08T21:00:00	6	Velocidad del viento	11.3
113566	7	Sololá	713	San Lucas Tolimán	10	San Lucas Tolimán	3	Marzo	2023-03-21T00:00:00	2024-11-08T21:00:00	7	Dirección del viento	11.27
113567	7	Sololá	713	San Lucas Tolimán	10	San Lucas Tolimán	3	Marzo	2023-03-21T00:00:00	2024-11-08T21:00:00	1	Precipitación	0
113568	7	Sololá	713	San Lucas Tolimán	10	San Lucas Tolimán	3	Marzo	2023-03-21T00:00:00	2024-11-08T21:00:00	8	Radiación solar	0
113569	7	Sololá	713	San Lucas Tolimán	10	San Lucas Tolimán	3	Marzo	2023-03-21T00:00:00	2024-11-08T22:00:00	2	Temperatura media	20.7
113570	7	Sololá	713	San Lucas Tolimán	10	San Lucas Tolimán	3	Marzo	2023-03-21T00:00:00	2024-11-08T22:00:00	4	Temperatura máxima	20.7
113571	7	Sololá	713	San Lucas Tolimán	10	San Lucas Tolimán	3	Marzo	2023-03-21T00:00:00	2024-11-08T22:00:00	3	Temperatura mínima	20.2
113572	7	Sololá	713	San Lucas Tolimán	10	San Lucas Tolimán	3	Marzo	2023-03-21T00:00:00	2024-11-08T22:00:00	5	Humedad	50
113573	7	Sololá	713	San Lucas Tolimán	10	San Lucas Tolimán	3	Marzo	2023-03-21T00:00:00	2024-11-08T22:00:00	6	Velocidad del viento	8
113574	7	Sololá	713	San Lucas Tolimán	10	San Lucas Tolimán	3	Marzo	2023-03-21T00:00:00	2024-11-08T22:00:00	7	Dirección del viento	8.05
113575	7	Sololá	713	San Lucas Tolimán	10	San Lucas Tolimán	3	Marzo	2023-03-21T00:00:00	2024-11-08T22:00:00	1	Precipitación	0
113576	7	Sololá	713	San Lucas Tolimán	10	San Lucas Tolimán	3	Marzo	2023-03-21T00:00:00	2024-11-08T22:00:00	8	Radiación solar	0
113577	7	Sololá	713	San Lucas Tolimán	10	San Lucas Tolimán	3	Marzo	2023-03-21T00:00:00	2024-11-08T23:00:00	2	Temperatura media	20.2
113578	7	Sololá	713	San Lucas Tolimán	10	San Lucas Tolimán	3	Marzo	2023-03-21T00:00:00	2024-11-08T23:00:00	4	Temperatura máxima	20.9
113579	7	Sololá	713	San Lucas Tolimán	10	San Lucas Tolimán	3	Marzo	2023-03-21T00:00:00	2024-11-08T23:00:00	3	Temperatura mínima	20.2
113580	7	Sololá	713	San Lucas Tolimán	10	San Lucas Tolimán	3	Marzo	2023-03-21T00:00:00	2024-11-08T23:00:00	5	Humedad	53
113581	7	Sololá	713	San Lucas Tolimán	10	San Lucas Tolimán	3	Marzo	2023-03-21T00:00:00	2024-11-08T23:00:00	6	Velocidad del viento	9.7
113582	7	Sololá	713	San Lucas Tolimán	10	San Lucas Tolimán	3	Marzo	2023-03-21T00:00:00	2024-11-08T23:00:00	7	Dirección del viento	9.66
113583	7	Sololá	713	San Lucas Tolimán	10	San Lucas Tolimán	3	Marzo	2023-03-21T00:00:00	2024-11-08T23:00:00	1	Precipitación	0
113584	7	Sololá	713	San Lucas Tolimán	10	San Lucas Tolimán	3	Marzo	2023-03-21T00:00:00	2024-11-08T23:00:00	8	Radiación solar	0
113585	7	Sololá	713	San Lucas Tolimán	10	San Lucas Tolimán	3	Marzo	2023-03-22T00:00:00	2024-11-08T00:00:00	2	Temperatura media	19.8
113586	7	Sololá	713	San Lucas Tolimán	10	San Lucas Tolimán	3	Marzo	2023-03-22T00:00:00	2024-11-08T00:00:00	4	Temperatura máxima	20.2
113587	7	Sololá	713	San Lucas Tolimán	10	San Lucas Tolimán	3	Marzo	2023-03-22T00:00:00	2024-11-08T00:00:00	3	Temperatura mínima	19.7
113588	7	Sololá	713	San Lucas Tolimán	10	San Lucas Tolimán	3	Marzo	2023-03-22T00:00:00	2024-11-08T00:00:00	5	Humedad	52
113589	7	Sololá	713	San Lucas Tolimán	10	San Lucas Tolimán	3	Marzo	2023-03-22T00:00:00	2024-11-08T00:00:00	6	Velocidad del viento	9.7
113590	7	Sololá	713	San Lucas Tolimán	10	San Lucas Tolimán	3	Marzo	2023-03-22T00:00:00	2024-11-08T00:00:00	7	Dirección del viento	9.66
113591	7	Sololá	713	San Lucas Tolimán	10	San Lucas Tolimán	3	Marzo	2023-03-22T00:00:00	2024-11-08T00:00:00	1	Precipitación	0
113592	7	Sololá	713	San Lucas Tolimán	10	San Lucas Tolimán	3	Marzo	2023-03-22T00:00:00	2024-11-08T00:00:00	8	Radiación solar	0
113593	7	Sololá	713	San Lucas Tolimán	10	San Lucas Tolimán	3	Marzo	2023-03-22T00:00:00	2024-11-08T01:00:00	2	Temperatura media	19.1
113594	7	Sololá	713	San Lucas Tolimán	10	San Lucas Tolimán	3	Marzo	2023-03-22T00:00:00	2024-11-08T01:00:00	4	Temperatura máxima	19.8
113595	7	Sololá	713	San Lucas Tolimán	10	San Lucas Tolimán	3	Marzo	2023-03-22T00:00:00	2024-11-08T01:00:00	3	Temperatura mínima	19.1
113596	7	Sololá	713	San Lucas Tolimán	10	San Lucas Tolimán	3	Marzo	2023-03-22T00:00:00	2024-11-08T01:00:00	5	Humedad	53
113597	7	Sololá	713	San Lucas Tolimán	10	San Lucas Tolimán	3	Marzo	2023-03-22T00:00:00	2024-11-08T01:00:00	6	Velocidad del viento	9.7
113598	7	Sololá	713	San Lucas Tolimán	10	San Lucas Tolimán	3	Marzo	2023-03-22T00:00:00	2024-11-08T01:00:00	7	Dirección del viento	9.66
113599	7	Sololá	713	San Lucas Tolimán	10	San Lucas Tolimán	3	Marzo	2023-03-22T00:00:00	2024-11-08T01:00:00	1	Precipitación	0
113600	7	Sololá	713	San Lucas Tolimán	10	San Lucas Tolimán	3	Marzo	2023-03-22T00:00:00	2024-11-08T01:00:00	8	Radiación solar	0
113601	7	Sololá	713	San Lucas Tolimán	10	San Lucas Tolimán	3	Marzo	2023-03-22T00:00:00	2024-11-08T02:00:00	2	Temperatura media	19.1
113602	7	Sololá	713	San Lucas Tolimán	10	San Lucas Tolimán	3	Marzo	2023-03-22T00:00:00	2024-11-08T02:00:00	4	Temperatura máxima	19.3
113603	7	Sololá	713	San Lucas Tolimán	10	San Lucas Tolimán	3	Marzo	2023-03-22T00:00:00	2024-11-08T02:00:00	3	Temperatura mínima	18.9
113604	7	Sololá	713	San Lucas Tolimán	10	San Lucas Tolimán	3	Marzo	2023-03-22T00:00:00	2024-11-08T02:00:00	5	Humedad	53
113605	7	Sololá	713	San Lucas Tolimán	10	San Lucas Tolimán	3	Marzo	2023-03-22T00:00:00	2024-11-08T02:00:00	6	Velocidad del viento	4.8
113606	7	Sololá	713	San Lucas Tolimán	10	San Lucas Tolimán	3	Marzo	2023-03-22T00:00:00	2024-11-08T02:00:00	7	Dirección del viento	4.83
113607	7	Sololá	713	San Lucas Tolimán	10	San Lucas Tolimán	3	Marzo	2023-03-22T00:00:00	2024-11-08T02:00:00	1	Precipitación	0
113608	7	Sololá	713	San Lucas Tolimán	10	San Lucas Tolimán	3	Marzo	2023-03-22T00:00:00	2024-11-08T02:00:00	8	Radiación solar	0
113609	7	Sololá	713	San Lucas Tolimán	10	San Lucas Tolimán	3	Marzo	2023-03-22T00:00:00	2024-11-08T03:00:00	2	Temperatura media	19.2
113610	7	Sololá	713	San Lucas Tolimán	10	San Lucas Tolimán	3	Marzo	2023-03-22T00:00:00	2024-11-08T03:00:00	4	Temperatura máxima	19.5
113611	7	Sololá	713	San Lucas Tolimán	10	San Lucas Tolimán	3	Marzo	2023-03-22T00:00:00	2024-11-08T03:00:00	3	Temperatura mínima	19
113612	7	Sololá	713	San Lucas Tolimán	10	San Lucas Tolimán	3	Marzo	2023-03-22T00:00:00	2024-11-08T03:00:00	5	Humedad	54
113613	7	Sololá	713	San Lucas Tolimán	10	San Lucas Tolimán	3	Marzo	2023-03-22T00:00:00	2024-11-08T03:00:00	6	Velocidad del viento	14.5
113614	7	Sololá	713	San Lucas Tolimán	10	San Lucas Tolimán	3	Marzo	2023-03-22T00:00:00	2024-11-08T03:00:00	7	Dirección del viento	14.48
113615	7	Sololá	713	San Lucas Tolimán	10	San Lucas Tolimán	3	Marzo	2023-03-22T00:00:00	2024-11-08T03:00:00	1	Precipitación	0
113616	7	Sololá	713	San Lucas Tolimán	10	San Lucas Tolimán	3	Marzo	2023-03-22T00:00:00	2024-11-08T03:00:00	8	Radiación solar	0
113617	7	Sololá	713	San Lucas Tolimán	10	San Lucas Tolimán	3	Marzo	2023-03-22T00:00:00	2024-11-08T04:00:00	2	Temperatura media	18.4
113618	7	Sololá	713	San Lucas Tolimán	10	San Lucas Tolimán	3	Marzo	2023-03-22T00:00:00	2024-11-08T04:00:00	4	Temperatura máxima	19.3
113619	7	Sololá	713	San Lucas Tolimán	10	San Lucas Tolimán	3	Marzo	2023-03-22T00:00:00	2024-11-08T04:00:00	3	Temperatura mínima	18.4
113620	7	Sololá	713	San Lucas Tolimán	10	San Lucas Tolimán	3	Marzo	2023-03-22T00:00:00	2024-11-08T04:00:00	5	Humedad	58
113621	7	Sololá	713	San Lucas Tolimán	10	San Lucas Tolimán	3	Marzo	2023-03-22T00:00:00	2024-11-08T04:00:00	6	Velocidad del viento	3.2
113622	7	Sololá	713	San Lucas Tolimán	10	San Lucas Tolimán	3	Marzo	2023-03-22T00:00:00	2024-11-08T04:00:00	7	Dirección del viento	3.22
113623	7	Sololá	713	San Lucas Tolimán	10	San Lucas Tolimán	3	Marzo	2023-03-22T00:00:00	2024-11-08T04:00:00	1	Precipitación	0
113624	7	Sololá	713	San Lucas Tolimán	10	San Lucas Tolimán	3	Marzo	2023-03-22T00:00:00	2024-11-08T04:00:00	8	Radiación solar	0
113625	7	Sololá	713	San Lucas Tolimán	10	San Lucas Tolimán	3	Marzo	2023-03-22T00:00:00	2024-11-08T05:00:00	2	Temperatura media	18.7
113626	7	Sololá	713	San Lucas Tolimán	10	San Lucas Tolimán	3	Marzo	2023-03-22T00:00:00	2024-11-08T05:00:00	4	Temperatura máxima	18.9
113627	7	Sololá	713	San Lucas Tolimán	10	San Lucas Tolimán	3	Marzo	2023-03-22T00:00:00	2024-11-08T05:00:00	3	Temperatura mínima	18
113628	7	Sololá	713	San Lucas Tolimán	10	San Lucas Tolimán	3	Marzo	2023-03-22T00:00:00	2024-11-08T05:00:00	5	Humedad	57
113629	7	Sololá	713	San Lucas Tolimán	10	San Lucas Tolimán	3	Marzo	2023-03-22T00:00:00	2024-11-08T05:00:00	6	Velocidad del viento	4.8
113630	7	Sololá	713	San Lucas Tolimán	10	San Lucas Tolimán	3	Marzo	2023-03-22T00:00:00	2024-11-08T05:00:00	7	Dirección del viento	4.83
113631	7	Sololá	713	San Lucas Tolimán	10	San Lucas Tolimán	3	Marzo	2023-03-22T00:00:00	2024-11-08T05:00:00	1	Precipitación	0
113632	7	Sololá	713	San Lucas Tolimán	10	San Lucas Tolimán	3	Marzo	2023-03-22T00:00:00	2024-11-08T05:00:00	8	Radiación solar	0
113633	7	Sololá	713	San Lucas Tolimán	10	San Lucas Tolimán	3	Marzo	2023-03-22T00:00:00	2024-11-08T06:00:00	2	Temperatura media	18.9
113634	7	Sololá	713	San Lucas Tolimán	10	San Lucas Tolimán	3	Marzo	2023-03-22T00:00:00	2024-11-08T06:00:00	4	Temperatura máxima	18.9
113635	7	Sololá	713	San Lucas Tolimán	10	San Lucas Tolimán	3	Marzo	2023-03-22T00:00:00	2024-11-08T06:00:00	3	Temperatura mínima	18.4
113636	7	Sololá	713	San Lucas Tolimán	10	San Lucas Tolimán	3	Marzo	2023-03-22T00:00:00	2024-11-08T06:00:00	5	Humedad	56
113637	7	Sololá	713	San Lucas Tolimán	10	San Lucas Tolimán	3	Marzo	2023-03-22T00:00:00	2024-11-08T06:00:00	6	Velocidad del viento	4.8
113638	7	Sololá	713	San Lucas Tolimán	10	San Lucas Tolimán	3	Marzo	2023-03-22T00:00:00	2024-11-08T06:00:00	7	Dirección del viento	4.83
113639	7	Sololá	713	San Lucas Tolimán	10	San Lucas Tolimán	3	Marzo	2023-03-22T00:00:00	2024-11-08T06:00:00	1	Precipitación	0
113640	7	Sololá	713	San Lucas Tolimán	10	San Lucas Tolimán	3	Marzo	2023-03-22T00:00:00	2024-11-08T06:00:00	8	Radiación solar	0
113641	7	Sololá	713	San Lucas Tolimán	10	San Lucas Tolimán	3	Marzo	2023-03-22T00:00:00	2024-11-08T07:00:00	2	Temperatura media	19.2
113642	7	Sololá	713	San Lucas Tolimán	10	San Lucas Tolimán	3	Marzo	2023-03-22T00:00:00	2024-11-08T07:00:00	4	Temperatura máxima	19.3
113643	7	Sololá	713	San Lucas Tolimán	10	San Lucas Tolimán	3	Marzo	2023-03-22T00:00:00	2024-11-08T07:00:00	3	Temperatura mínima	18.9
113644	7	Sololá	713	San Lucas Tolimán	10	San Lucas Tolimán	3	Marzo	2023-03-22T00:00:00	2024-11-08T07:00:00	5	Humedad	56
113645	7	Sololá	713	San Lucas Tolimán	10	San Lucas Tolimán	3	Marzo	2023-03-22T00:00:00	2024-11-08T07:00:00	6	Velocidad del viento	12.9
113646	7	Sololá	713	San Lucas Tolimán	10	San Lucas Tolimán	3	Marzo	2023-03-22T00:00:00	2024-11-08T07:00:00	7	Dirección del viento	12.87
113647	7	Sololá	713	San Lucas Tolimán	10	San Lucas Tolimán	3	Marzo	2023-03-22T00:00:00	2024-11-08T07:00:00	1	Precipitación	0
113648	7	Sololá	713	San Lucas Tolimán	10	San Lucas Tolimán	3	Marzo	2023-03-22T00:00:00	2024-11-08T07:00:00	8	Radiación solar	34
113649	7	Sololá	713	San Lucas Tolimán	10	San Lucas Tolimán	3	Marzo	2023-03-22T00:00:00	2024-11-08T08:00:00	2	Temperatura media	20.8
113650	7	Sololá	713	San Lucas Tolimán	10	San Lucas Tolimán	3	Marzo	2023-03-22T00:00:00	2024-11-08T08:00:00	4	Temperatura máxima	20.8
113651	7	Sololá	713	San Lucas Tolimán	10	San Lucas Tolimán	3	Marzo	2023-03-22T00:00:00	2024-11-08T08:00:00	3	Temperatura mínima	19.1
113652	7	Sololá	713	San Lucas Tolimán	10	San Lucas Tolimán	3	Marzo	2023-03-22T00:00:00	2024-11-08T08:00:00	5	Humedad	53
113653	7	Sololá	713	San Lucas Tolimán	10	San Lucas Tolimán	3	Marzo	2023-03-22T00:00:00	2024-11-08T08:00:00	6	Velocidad del viento	12.9
113654	7	Sololá	713	San Lucas Tolimán	10	San Lucas Tolimán	3	Marzo	2023-03-22T00:00:00	2024-11-08T08:00:00	7	Dirección del viento	12.87
113655	7	Sololá	713	San Lucas Tolimán	10	San Lucas Tolimán	3	Marzo	2023-03-22T00:00:00	2024-11-08T08:00:00	1	Precipitación	0
113656	7	Sololá	713	San Lucas Tolimán	10	San Lucas Tolimán	3	Marzo	2023-03-22T00:00:00	2024-11-08T08:00:00	8	Radiación solar	173
113657	7	Sololá	713	San Lucas Tolimán	10	San Lucas Tolimán	3	Marzo	2023-03-22T00:00:00	2024-11-08T09:00:00	2	Temperatura media	21.3
113658	7	Sololá	713	San Lucas Tolimán	10	San Lucas Tolimán	3	Marzo	2023-03-22T00:00:00	2024-11-08T09:00:00	4	Temperatura máxima	21.3
113659	7	Sololá	713	San Lucas Tolimán	10	San Lucas Tolimán	3	Marzo	2023-03-22T00:00:00	2024-11-08T09:00:00	3	Temperatura mínima	20.2
113660	7	Sololá	713	San Lucas Tolimán	10	San Lucas Tolimán	3	Marzo	2023-03-22T00:00:00	2024-11-08T09:00:00	5	Humedad	50
113661	7	Sololá	713	San Lucas Tolimán	10	San Lucas Tolimán	3	Marzo	2023-03-22T00:00:00	2024-11-08T09:00:00	6	Velocidad del viento	17.7
113662	7	Sololá	713	San Lucas Tolimán	10	San Lucas Tolimán	3	Marzo	2023-03-22T00:00:00	2024-11-08T09:00:00	7	Dirección del viento	17.7
113663	7	Sololá	713	San Lucas Tolimán	10	San Lucas Tolimán	3	Marzo	2023-03-22T00:00:00	2024-11-08T09:00:00	1	Precipitación	0
113664	7	Sololá	713	San Lucas Tolimán	10	San Lucas Tolimán	3	Marzo	2023-03-22T00:00:00	2024-11-08T09:00:00	8	Radiación solar	423
113665	7	Sololá	713	San Lucas Tolimán	10	San Lucas Tolimán	3	Marzo	2023-03-22T00:00:00	2024-11-08T10:00:00	2	Temperatura media	23.4
113666	7	Sololá	713	San Lucas Tolimán	10	San Lucas Tolimán	3	Marzo	2023-03-22T00:00:00	2024-11-08T10:00:00	4	Temperatura máxima	23.5
113667	7	Sololá	713	San Lucas Tolimán	10	San Lucas Tolimán	3	Marzo	2023-03-22T00:00:00	2024-11-08T10:00:00	3	Temperatura mínima	21.3
113668	7	Sololá	713	San Lucas Tolimán	10	San Lucas Tolimán	3	Marzo	2023-03-22T00:00:00	2024-11-08T10:00:00	5	Humedad	44
113669	7	Sololá	713	San Lucas Tolimán	10	San Lucas Tolimán	3	Marzo	2023-03-22T00:00:00	2024-11-08T10:00:00	6	Velocidad del viento	14.5
113670	7	Sololá	713	San Lucas Tolimán	10	San Lucas Tolimán	3	Marzo	2023-03-22T00:00:00	2024-11-08T10:00:00	7	Dirección del viento	14.48
113671	7	Sololá	713	San Lucas Tolimán	10	San Lucas Tolimán	3	Marzo	2023-03-22T00:00:00	2024-11-08T10:00:00	1	Precipitación	0
113672	7	Sololá	713	San Lucas Tolimán	10	San Lucas Tolimán	3	Marzo	2023-03-22T00:00:00	2024-11-08T10:00:00	8	Radiación solar	865
113673	7	Sololá	713	San Lucas Tolimán	10	San Lucas Tolimán	3	Marzo	2023-03-22T00:00:00	2024-11-08T11:00:00	2	Temperatura media	23.9
113674	7	Sololá	713	San Lucas Tolimán	10	San Lucas Tolimán	3	Marzo	2023-03-22T00:00:00	2024-11-08T11:00:00	4	Temperatura máxima	24.7
113675	7	Sololá	713	San Lucas Tolimán	10	San Lucas Tolimán	3	Marzo	2023-03-22T00:00:00	2024-11-08T11:00:00	3	Temperatura mínima	23.1
113676	7	Sololá	713	San Lucas Tolimán	10	San Lucas Tolimán	3	Marzo	2023-03-22T00:00:00	2024-11-08T11:00:00	5	Humedad	42
113677	7	Sololá	713	San Lucas Tolimán	10	San Lucas Tolimán	3	Marzo	2023-03-22T00:00:00	2024-11-08T11:00:00	6	Velocidad del viento	14.5
113678	7	Sololá	713	San Lucas Tolimán	10	San Lucas Tolimán	3	Marzo	2023-03-22T00:00:00	2024-11-08T11:00:00	7	Dirección del viento	14.48
113679	7	Sololá	713	San Lucas Tolimán	10	San Lucas Tolimán	3	Marzo	2023-03-22T00:00:00	2024-11-08T11:00:00	1	Precipitación	0
113680	7	Sololá	713	San Lucas Tolimán	10	San Lucas Tolimán	3	Marzo	2023-03-22T00:00:00	2024-11-08T11:00:00	8	Radiación solar	1019
113681	7	Sololá	713	San Lucas Tolimán	10	San Lucas Tolimán	3	Marzo	2023-03-22T00:00:00	2024-11-08T12:00:00	2	Temperatura media	25.2
113682	7	Sololá	713	San Lucas Tolimán	10	San Lucas Tolimán	3	Marzo	2023-03-22T00:00:00	2024-11-08T12:00:00	4	Temperatura máxima	25.2
113683	7	Sololá	713	San Lucas Tolimán	10	San Lucas Tolimán	3	Marzo	2023-03-22T00:00:00	2024-11-08T12:00:00	3	Temperatura mínima	23.9
113684	7	Sololá	713	San Lucas Tolimán	10	San Lucas Tolimán	3	Marzo	2023-03-22T00:00:00	2024-11-08T12:00:00	5	Humedad	38
113685	7	Sololá	713	San Lucas Tolimán	10	San Lucas Tolimán	3	Marzo	2023-03-22T00:00:00	2024-11-08T12:00:00	6	Velocidad del viento	12.9
113686	7	Sololá	713	San Lucas Tolimán	10	San Lucas Tolimán	3	Marzo	2023-03-22T00:00:00	2024-11-08T12:00:00	7	Dirección del viento	12.87
113687	7	Sololá	713	San Lucas Tolimán	10	San Lucas Tolimán	3	Marzo	2023-03-22T00:00:00	2024-11-08T12:00:00	1	Precipitación	0
113688	7	Sololá	713	San Lucas Tolimán	10	San Lucas Tolimán	3	Marzo	2023-03-22T00:00:00	2024-11-08T12:00:00	8	Radiación solar	866
113689	7	Sololá	713	San Lucas Tolimán	10	San Lucas Tolimán	3	Marzo	2023-03-22T00:00:00	2024-11-08T13:00:00	2	Temperatura media	25.1
113690	7	Sololá	713	San Lucas Tolimán	10	San Lucas Tolimán	3	Marzo	2023-03-22T00:00:00	2024-11-08T13:00:00	4	Temperatura máxima	25.6
113691	7	Sololá	713	San Lucas Tolimán	10	San Lucas Tolimán	3	Marzo	2023-03-22T00:00:00	2024-11-08T13:00:00	3	Temperatura mínima	24.6
113692	7	Sololá	713	San Lucas Tolimán	10	San Lucas Tolimán	3	Marzo	2023-03-22T00:00:00	2024-11-08T13:00:00	5	Humedad	37
113693	7	Sololá	713	San Lucas Tolimán	10	San Lucas Tolimán	3	Marzo	2023-03-22T00:00:00	2024-11-08T13:00:00	6	Velocidad del viento	12.9
113694	7	Sololá	713	San Lucas Tolimán	10	San Lucas Tolimán	3	Marzo	2023-03-22T00:00:00	2024-11-08T13:00:00	7	Dirección del viento	12.87
113695	7	Sololá	713	San Lucas Tolimán	10	San Lucas Tolimán	3	Marzo	2023-03-22T00:00:00	2024-11-08T13:00:00	1	Precipitación	0
113696	7	Sololá	713	San Lucas Tolimán	10	San Lucas Tolimán	3	Marzo	2023-03-22T00:00:00	2024-11-08T13:00:00	8	Radiación solar	898
113697	7	Sololá	713	San Lucas Tolimán	10	San Lucas Tolimán	3	Marzo	2023-03-22T00:00:00	2024-11-08T14:00:00	2	Temperatura media	26.1
113698	7	Sololá	713	San Lucas Tolimán	10	San Lucas Tolimán	3	Marzo	2023-03-22T00:00:00	2024-11-08T14:00:00	4	Temperatura máxima	26.6
113699	7	Sololá	713	San Lucas Tolimán	10	San Lucas Tolimán	3	Marzo	2023-03-22T00:00:00	2024-11-08T14:00:00	3	Temperatura mínima	24.9
113700	7	Sololá	713	San Lucas Tolimán	10	San Lucas Tolimán	3	Marzo	2023-03-22T00:00:00	2024-11-08T14:00:00	5	Humedad	51
113701	7	Sololá	713	San Lucas Tolimán	10	San Lucas Tolimán	3	Marzo	2023-03-22T00:00:00	2024-11-08T14:00:00	6	Velocidad del viento	11.3
113702	7	Sololá	713	San Lucas Tolimán	10	San Lucas Tolimán	3	Marzo	2023-03-22T00:00:00	2024-11-08T14:00:00	7	Dirección del viento	11.27
113703	7	Sololá	713	San Lucas Tolimán	10	San Lucas Tolimán	3	Marzo	2023-03-22T00:00:00	2024-11-08T14:00:00	1	Precipitación	0
113704	7	Sololá	713	San Lucas Tolimán	10	San Lucas Tolimán	3	Marzo	2023-03-22T00:00:00	2024-11-08T14:00:00	8	Radiación solar	971
113705	7	Sololá	713	San Lucas Tolimán	10	San Lucas Tolimán	3	Marzo	2023-03-22T00:00:00	2024-11-08T15:00:00	2	Temperatura media	24.7
113706	7	Sololá	713	San Lucas Tolimán	10	San Lucas Tolimán	3	Marzo	2023-03-22T00:00:00	2024-11-08T15:00:00	4	Temperatura máxima	26.2
113707	7	Sololá	713	San Lucas Tolimán	10	San Lucas Tolimán	3	Marzo	2023-03-22T00:00:00	2024-11-08T15:00:00	3	Temperatura mínima	24.7
113708	7	Sololá	713	San Lucas Tolimán	10	San Lucas Tolimán	3	Marzo	2023-03-22T00:00:00	2024-11-08T15:00:00	5	Humedad	55
113709	7	Sololá	713	San Lucas Tolimán	10	San Lucas Tolimán	3	Marzo	2023-03-22T00:00:00	2024-11-08T15:00:00	6	Velocidad del viento	6.4
113710	7	Sololá	713	San Lucas Tolimán	10	San Lucas Tolimán	3	Marzo	2023-03-22T00:00:00	2024-11-08T15:00:00	7	Dirección del viento	6.44
113711	7	Sololá	713	San Lucas Tolimán	10	San Lucas Tolimán	3	Marzo	2023-03-22T00:00:00	2024-11-08T15:00:00	1	Precipitación	0
113712	7	Sololá	713	San Lucas Tolimán	10	San Lucas Tolimán	3	Marzo	2023-03-22T00:00:00	2024-11-08T15:00:00	8	Radiación solar	778
113713	7	Sololá	713	San Lucas Tolimán	10	San Lucas Tolimán	3	Marzo	2023-03-22T00:00:00	2024-11-08T16:00:00	2	Temperatura media	20.7
113714	7	Sololá	713	San Lucas Tolimán	10	San Lucas Tolimán	3	Marzo	2023-03-22T00:00:00	2024-11-08T16:00:00	4	Temperatura máxima	25.9
113715	7	Sololá	713	San Lucas Tolimán	10	San Lucas Tolimán	3	Marzo	2023-03-22T00:00:00	2024-11-08T16:00:00	3	Temperatura mínima	20.7
113716	7	Sololá	713	San Lucas Tolimán	10	San Lucas Tolimán	3	Marzo	2023-03-22T00:00:00	2024-11-08T16:00:00	5	Humedad	62
113717	7	Sololá	713	San Lucas Tolimán	10	San Lucas Tolimán	3	Marzo	2023-03-22T00:00:00	2024-11-08T16:00:00	6	Velocidad del viento	6.4
113718	7	Sololá	713	San Lucas Tolimán	10	San Lucas Tolimán	3	Marzo	2023-03-22T00:00:00	2024-11-08T16:00:00	7	Dirección del viento	6.44
113719	7	Sololá	713	San Lucas Tolimán	10	San Lucas Tolimán	3	Marzo	2023-03-22T00:00:00	2024-11-08T16:00:00	1	Precipitación	0
113720	7	Sololá	713	San Lucas Tolimán	10	San Lucas Tolimán	3	Marzo	2023-03-22T00:00:00	2024-11-08T16:00:00	8	Radiación solar	401
113721	7	Sololá	713	San Lucas Tolimán	10	San Lucas Tolimán	3	Marzo	2023-03-22T00:00:00	2024-11-08T17:00:00	2	Temperatura media	20.8
113722	7	Sololá	713	San Lucas Tolimán	10	San Lucas Tolimán	3	Marzo	2023-03-22T00:00:00	2024-11-08T17:00:00	4	Temperatura máxima	20.9
113723	7	Sololá	713	San Lucas Tolimán	10	San Lucas Tolimán	3	Marzo	2023-03-22T00:00:00	2024-11-08T17:00:00	3	Temperatura mínima	19.8
113724	7	Sololá	713	San Lucas Tolimán	10	San Lucas Tolimán	3	Marzo	2023-03-22T00:00:00	2024-11-08T17:00:00	5	Humedad	58
113725	7	Sololá	713	San Lucas Tolimán	10	San Lucas Tolimán	3	Marzo	2023-03-22T00:00:00	2024-11-08T17:00:00	6	Velocidad del viento	9.7
113726	7	Sololá	713	San Lucas Tolimán	10	San Lucas Tolimán	3	Marzo	2023-03-22T00:00:00	2024-11-08T17:00:00	7	Dirección del viento	9.66
113727	7	Sololá	713	San Lucas Tolimán	10	San Lucas Tolimán	3	Marzo	2023-03-22T00:00:00	2024-11-08T17:00:00	1	Precipitación	0
113728	7	Sololá	713	San Lucas Tolimán	10	San Lucas Tolimán	3	Marzo	2023-03-22T00:00:00	2024-11-08T17:00:00	8	Radiación solar	153
113729	7	Sololá	713	San Lucas Tolimán	10	San Lucas Tolimán	3	Marzo	2023-03-22T00:00:00	2024-11-08T18:00:00	2	Temperatura media	19.7
113730	7	Sololá	713	San Lucas Tolimán	10	San Lucas Tolimán	3	Marzo	2023-03-22T00:00:00	2024-11-08T18:00:00	4	Temperatura máxima	20.8
113731	7	Sololá	713	San Lucas Tolimán	10	San Lucas Tolimán	3	Marzo	2023-03-22T00:00:00	2024-11-08T18:00:00	3	Temperatura mínima	19.7
113732	7	Sololá	713	San Lucas Tolimán	10	San Lucas Tolimán	3	Marzo	2023-03-22T00:00:00	2024-11-08T18:00:00	5	Humedad	59
113733	7	Sololá	713	San Lucas Tolimán	10	San Lucas Tolimán	3	Marzo	2023-03-22T00:00:00	2024-11-08T18:00:00	6	Velocidad del viento	8
113734	7	Sololá	713	San Lucas Tolimán	10	San Lucas Tolimán	3	Marzo	2023-03-22T00:00:00	2024-11-08T18:00:00	7	Dirección del viento	8.05
113735	7	Sololá	713	San Lucas Tolimán	10	San Lucas Tolimán	3	Marzo	2023-03-22T00:00:00	2024-11-08T18:00:00	1	Precipitación	0
113736	7	Sololá	713	San Lucas Tolimán	10	San Lucas Tolimán	3	Marzo	2023-03-22T00:00:00	2024-11-08T18:00:00	8	Radiación solar	126
113737	7	Sololá	713	San Lucas Tolimán	10	San Lucas Tolimán	3	Marzo	2023-03-22T00:00:00	2024-11-08T19:00:00	2	Temperatura media	21.6
113738	7	Sololá	713	San Lucas Tolimán	10	San Lucas Tolimán	3	Marzo	2023-03-22T00:00:00	2024-11-08T19:00:00	4	Temperatura máxima	21.9
113739	7	Sololá	713	San Lucas Tolimán	10	San Lucas Tolimán	3	Marzo	2023-03-22T00:00:00	2024-11-08T19:00:00	3	Temperatura mínima	19.6
113740	7	Sololá	713	San Lucas Tolimán	10	San Lucas Tolimán	3	Marzo	2023-03-22T00:00:00	2024-11-08T19:00:00	5	Humedad	45
113741	7	Sololá	713	San Lucas Tolimán	10	San Lucas Tolimán	3	Marzo	2023-03-22T00:00:00	2024-11-08T19:00:00	6	Velocidad del viento	12.9
113742	7	Sololá	713	San Lucas Tolimán	10	San Lucas Tolimán	3	Marzo	2023-03-22T00:00:00	2024-11-08T19:00:00	7	Dirección del viento	12.87
113743	7	Sololá	713	San Lucas Tolimán	10	San Lucas Tolimán	3	Marzo	2023-03-22T00:00:00	2024-11-08T19:00:00	1	Precipitación	0
113744	7	Sololá	713	San Lucas Tolimán	10	San Lucas Tolimán	3	Marzo	2023-03-22T00:00:00	2024-11-08T19:00:00	8	Radiación solar	0
113745	7	Sololá	713	San Lucas Tolimán	10	San Lucas Tolimán	3	Marzo	2023-03-22T00:00:00	2024-11-08T20:00:00	2	Temperatura media	20.4
113746	7	Sololá	713	San Lucas Tolimán	10	San Lucas Tolimán	3	Marzo	2023-03-22T00:00:00	2024-11-08T20:00:00	4	Temperatura máxima	21.6
113747	7	Sololá	713	San Lucas Tolimán	10	San Lucas Tolimán	3	Marzo	2023-03-22T00:00:00	2024-11-08T20:00:00	3	Temperatura mínima	20.4
113748	7	Sololá	713	San Lucas Tolimán	10	San Lucas Tolimán	3	Marzo	2023-03-22T00:00:00	2024-11-08T20:00:00	5	Humedad	49
113749	7	Sololá	713	San Lucas Tolimán	10	San Lucas Tolimán	3	Marzo	2023-03-22T00:00:00	2024-11-08T20:00:00	6	Velocidad del viento	17.7
113750	7	Sololá	713	San Lucas Tolimán	10	San Lucas Tolimán	3	Marzo	2023-03-22T00:00:00	2024-11-08T20:00:00	7	Dirección del viento	17.7
113751	7	Sololá	713	San Lucas Tolimán	10	San Lucas Tolimán	3	Marzo	2023-03-22T00:00:00	2024-11-08T20:00:00	1	Precipitación	0
113752	7	Sololá	713	San Lucas Tolimán	10	San Lucas Tolimán	3	Marzo	2023-03-22T00:00:00	2024-11-08T20:00:00	8	Radiación solar	0
113753	7	Sololá	713	San Lucas Tolimán	10	San Lucas Tolimán	3	Marzo	2023-03-22T00:00:00	2024-11-08T21:00:00	2	Temperatura media	19.7
113754	7	Sololá	713	San Lucas Tolimán	10	San Lucas Tolimán	3	Marzo	2023-03-22T00:00:00	2024-11-08T21:00:00	4	Temperatura máxima	20.4
113755	7	Sololá	713	San Lucas Tolimán	10	San Lucas Tolimán	3	Marzo	2023-03-22T00:00:00	2024-11-08T21:00:00	3	Temperatura mínima	19.7
113756	7	Sololá	713	San Lucas Tolimán	10	San Lucas Tolimán	3	Marzo	2023-03-22T00:00:00	2024-11-08T21:00:00	5	Humedad	51
113757	7	Sololá	713	San Lucas Tolimán	10	San Lucas Tolimán	3	Marzo	2023-03-22T00:00:00	2024-11-08T21:00:00	6	Velocidad del viento	20.9
113758	7	Sololá	713	San Lucas Tolimán	10	San Lucas Tolimán	3	Marzo	2023-03-22T00:00:00	2024-11-08T21:00:00	7	Dirección del viento	20.92
113759	7	Sololá	713	San Lucas Tolimán	10	San Lucas Tolimán	3	Marzo	2023-03-22T00:00:00	2024-11-08T21:00:00	1	Precipitación	0
113760	7	Sololá	713	San Lucas Tolimán	10	San Lucas Tolimán	3	Marzo	2023-03-22T00:00:00	2024-11-08T21:00:00	8	Radiación solar	0
113761	7	Sololá	713	San Lucas Tolimán	10	San Lucas Tolimán	3	Marzo	2023-03-22T00:00:00	2024-11-08T22:00:00	2	Temperatura media	19.4
113762	7	Sololá	713	San Lucas Tolimán	10	San Lucas Tolimán	3	Marzo	2023-03-22T00:00:00	2024-11-08T22:00:00	4	Temperatura máxima	19.8
113763	7	Sololá	713	San Lucas Tolimán	10	San Lucas Tolimán	3	Marzo	2023-03-22T00:00:00	2024-11-08T22:00:00	3	Temperatura mínima	19.4
113764	7	Sololá	713	San Lucas Tolimán	10	San Lucas Tolimán	3	Marzo	2023-03-22T00:00:00	2024-11-08T22:00:00	5	Humedad	51
113765	7	Sololá	713	San Lucas Tolimán	10	San Lucas Tolimán	3	Marzo	2023-03-22T00:00:00	2024-11-08T22:00:00	6	Velocidad del viento	17.7
113766	7	Sololá	713	San Lucas Tolimán	10	San Lucas Tolimán	3	Marzo	2023-03-22T00:00:00	2024-11-08T22:00:00	7	Dirección del viento	17.7
113767	7	Sololá	713	San Lucas Tolimán	10	San Lucas Tolimán	3	Marzo	2023-03-22T00:00:00	2024-11-08T22:00:00	1	Precipitación	0
113768	7	Sololá	713	San Lucas Tolimán	10	San Lucas Tolimán	3	Marzo	2023-03-22T00:00:00	2024-11-08T22:00:00	8	Radiación solar	0
113769	7	Sololá	713	San Lucas Tolimán	10	San Lucas Tolimán	3	Marzo	2023-03-22T00:00:00	2024-11-08T23:00:00	2	Temperatura media	18.6
113770	7	Sololá	713	San Lucas Tolimán	10	San Lucas Tolimán	3	Marzo	2023-03-22T00:00:00	2024-11-08T23:00:00	4	Temperatura máxima	19.4
113771	7	Sololá	713	San Lucas Tolimán	10	San Lucas Tolimán	3	Marzo	2023-03-22T00:00:00	2024-11-08T23:00:00	3	Temperatura mínima	18.5
113772	7	Sololá	713	San Lucas Tolimán	10	San Lucas Tolimán	3	Marzo	2023-03-22T00:00:00	2024-11-08T23:00:00	5	Humedad	53
113773	7	Sololá	713	San Lucas Tolimán	10	San Lucas Tolimán	3	Marzo	2023-03-22T00:00:00	2024-11-08T23:00:00	6	Velocidad del viento	4.8
113774	7	Sololá	713	San Lucas Tolimán	10	San Lucas Tolimán	3	Marzo	2023-03-22T00:00:00	2024-11-08T23:00:00	7	Dirección del viento	4.83
113775	7	Sololá	713	San Lucas Tolimán	10	San Lucas Tolimán	3	Marzo	2023-03-22T00:00:00	2024-11-08T23:00:00	1	Precipitación	0
113776	7	Sololá	713	San Lucas Tolimán	10	San Lucas Tolimán	3	Marzo	2023-03-22T00:00:00	2024-11-08T23:00:00	8	Radiación solar	0
113777	7	Sololá	713	San Lucas Tolimán	10	San Lucas Tolimán	3	Marzo	2023-03-23T00:00:00	2024-11-08T00:00:00	2	Temperatura media	18.1
113778	7	Sololá	713	San Lucas Tolimán	10	San Lucas Tolimán	3	Marzo	2023-03-23T00:00:00	2024-11-08T00:00:00	4	Temperatura máxima	18.9
113779	7	Sololá	713	San Lucas Tolimán	10	San Lucas Tolimán	3	Marzo	2023-03-23T00:00:00	2024-11-08T00:00:00	3	Temperatura mínima	18.1
113780	7	Sololá	713	San Lucas Tolimán	10	San Lucas Tolimán	3	Marzo	2023-03-23T00:00:00	2024-11-08T00:00:00	5	Humedad	53
113781	7	Sololá	713	San Lucas Tolimán	10	San Lucas Tolimán	3	Marzo	2023-03-23T00:00:00	2024-11-08T00:00:00	6	Velocidad del viento	6.4
113782	7	Sololá	713	San Lucas Tolimán	10	San Lucas Tolimán	3	Marzo	2023-03-23T00:00:00	2024-11-08T00:00:00	7	Dirección del viento	6.44
113783	7	Sololá	713	San Lucas Tolimán	10	San Lucas Tolimán	3	Marzo	2023-03-23T00:00:00	2024-11-08T00:00:00	1	Precipitación	0
113784	7	Sololá	713	San Lucas Tolimán	10	San Lucas Tolimán	3	Marzo	2023-03-23T00:00:00	2024-11-08T00:00:00	8	Radiación solar	0
113785	7	Sololá	713	San Lucas Tolimán	10	San Lucas Tolimán	3	Marzo	2023-03-23T00:00:00	2024-11-08T01:00:00	2	Temperatura media	16.8
113786	7	Sololá	713	San Lucas Tolimán	10	San Lucas Tolimán	3	Marzo	2023-03-23T00:00:00	2024-11-08T01:00:00	4	Temperatura máxima	18.2
113787	7	Sololá	713	San Lucas Tolimán	10	San Lucas Tolimán	3	Marzo	2023-03-23T00:00:00	2024-11-08T01:00:00	3	Temperatura mínima	16.8
113788	7	Sololá	713	San Lucas Tolimán	10	San Lucas Tolimán	3	Marzo	2023-03-23T00:00:00	2024-11-08T01:00:00	5	Humedad	56
113789	7	Sololá	713	San Lucas Tolimán	10	San Lucas Tolimán	3	Marzo	2023-03-23T00:00:00	2024-11-08T01:00:00	6	Velocidad del viento	1.6
113790	7	Sololá	713	San Lucas Tolimán	10	San Lucas Tolimán	3	Marzo	2023-03-23T00:00:00	2024-11-08T01:00:00	7	Dirección del viento	1.61
113791	7	Sololá	713	San Lucas Tolimán	10	San Lucas Tolimán	3	Marzo	2023-03-23T00:00:00	2024-11-08T01:00:00	1	Precipitación	0
113792	7	Sololá	713	San Lucas Tolimán	10	San Lucas Tolimán	3	Marzo	2023-03-23T00:00:00	2024-11-08T01:00:00	8	Radiación solar	0
113793	7	Sololá	713	San Lucas Tolimán	10	San Lucas Tolimán	3	Marzo	2023-03-23T00:00:00	2024-11-08T02:00:00	2	Temperatura media	17.2
113794	7	Sololá	713	San Lucas Tolimán	10	San Lucas Tolimán	3	Marzo	2023-03-23T00:00:00	2024-11-08T02:00:00	4	Temperatura máxima	17.4
113795	7	Sololá	713	San Lucas Tolimán	10	San Lucas Tolimán	3	Marzo	2023-03-23T00:00:00	2024-11-08T02:00:00	3	Temperatura mínima	16.8
113796	7	Sololá	713	San Lucas Tolimán	10	San Lucas Tolimán	3	Marzo	2023-03-23T00:00:00	2024-11-08T02:00:00	5	Humedad	57
113797	7	Sololá	713	San Lucas Tolimán	10	San Lucas Tolimán	3	Marzo	2023-03-23T00:00:00	2024-11-08T02:00:00	6	Velocidad del viento	3.2
113798	7	Sololá	713	San Lucas Tolimán	10	San Lucas Tolimán	3	Marzo	2023-03-23T00:00:00	2024-11-08T02:00:00	7	Dirección del viento	3.22
113799	7	Sololá	713	San Lucas Tolimán	10	San Lucas Tolimán	3	Marzo	2023-03-23T00:00:00	2024-11-08T02:00:00	1	Precipitación	0
113800	7	Sololá	713	San Lucas Tolimán	10	San Lucas Tolimán	3	Marzo	2023-03-23T00:00:00	2024-11-08T02:00:00	8	Radiación solar	0
113801	7	Sololá	713	San Lucas Tolimán	10	San Lucas Tolimán	3	Marzo	2023-03-23T00:00:00	2024-11-08T03:00:00	2	Temperatura media	16.3
113802	7	Sololá	713	San Lucas Tolimán	10	San Lucas Tolimán	3	Marzo	2023-03-23T00:00:00	2024-11-08T03:00:00	4	Temperatura máxima	17.2
113803	7	Sololá	713	San Lucas Tolimán	10	San Lucas Tolimán	3	Marzo	2023-03-23T00:00:00	2024-11-08T03:00:00	3	Temperatura mínima	16.2
113804	7	Sololá	713	San Lucas Tolimán	10	San Lucas Tolimán	3	Marzo	2023-03-23T00:00:00	2024-11-08T03:00:00	5	Humedad	58
113805	7	Sololá	713	San Lucas Tolimán	10	San Lucas Tolimán	3	Marzo	2023-03-23T00:00:00	2024-11-08T03:00:00	6	Velocidad del viento	1.6
113806	7	Sololá	713	San Lucas Tolimán	10	San Lucas Tolimán	3	Marzo	2023-03-23T00:00:00	2024-11-08T03:00:00	7	Dirección del viento	1.61
113807	7	Sololá	713	San Lucas Tolimán	10	San Lucas Tolimán	3	Marzo	2023-03-23T00:00:00	2024-11-08T03:00:00	1	Precipitación	0
113808	7	Sololá	713	San Lucas Tolimán	10	San Lucas Tolimán	3	Marzo	2023-03-23T00:00:00	2024-11-08T03:00:00	8	Radiación solar	0
113809	7	Sololá	713	San Lucas Tolimán	10	San Lucas Tolimán	3	Marzo	2023-03-23T00:00:00	2024-11-08T04:00:00	2	Temperatura media	17.2
113810	7	Sololá	713	San Lucas Tolimán	10	San Lucas Tolimán	3	Marzo	2023-03-23T00:00:00	2024-11-08T04:00:00	4	Temperatura máxima	17.2
113811	7	Sololá	713	San Lucas Tolimán	10	San Lucas Tolimán	3	Marzo	2023-03-23T00:00:00	2024-11-08T04:00:00	3	Temperatura mínima	16.3
113812	7	Sololá	713	San Lucas Tolimán	10	San Lucas Tolimán	3	Marzo	2023-03-23T00:00:00	2024-11-08T04:00:00	5	Humedad	56
113813	7	Sololá	713	San Lucas Tolimán	10	San Lucas Tolimán	3	Marzo	2023-03-23T00:00:00	2024-11-08T04:00:00	6	Velocidad del viento	3.2
113814	7	Sololá	713	San Lucas Tolimán	10	San Lucas Tolimán	3	Marzo	2023-03-23T00:00:00	2024-11-08T04:00:00	7	Dirección del viento	3.22
113815	7	Sololá	713	San Lucas Tolimán	10	San Lucas Tolimán	3	Marzo	2023-03-23T00:00:00	2024-11-08T04:00:00	1	Precipitación	0
113816	7	Sololá	713	San Lucas Tolimán	10	San Lucas Tolimán	3	Marzo	2023-03-23T00:00:00	2024-11-08T04:00:00	8	Radiación solar	0
113817	7	Sololá	713	San Lucas Tolimán	10	San Lucas Tolimán	3	Marzo	2023-03-23T00:00:00	2024-11-08T05:00:00	2	Temperatura media	16.6
113818	7	Sololá	713	San Lucas Tolimán	10	San Lucas Tolimán	3	Marzo	2023-03-23T00:00:00	2024-11-08T05:00:00	4	Temperatura máxima	17.2
113819	7	Sololá	713	San Lucas Tolimán	10	San Lucas Tolimán	3	Marzo	2023-03-23T00:00:00	2024-11-08T05:00:00	3	Temperatura mínima	16.6
113820	7	Sololá	713	San Lucas Tolimán	10	San Lucas Tolimán	3	Marzo	2023-03-23T00:00:00	2024-11-08T05:00:00	5	Humedad	57
113821	7	Sololá	713	San Lucas Tolimán	10	San Lucas Tolimán	3	Marzo	2023-03-23T00:00:00	2024-11-08T05:00:00	6	Velocidad del viento	1.6
113822	7	Sololá	713	San Lucas Tolimán	10	San Lucas Tolimán	3	Marzo	2023-03-23T00:00:00	2024-11-08T05:00:00	7	Dirección del viento	1.61
113823	7	Sololá	713	San Lucas Tolimán	10	San Lucas Tolimán	3	Marzo	2023-03-23T00:00:00	2024-11-08T05:00:00	1	Precipitación	0
113824	7	Sololá	713	San Lucas Tolimán	10	San Lucas Tolimán	3	Marzo	2023-03-23T00:00:00	2024-11-08T05:00:00	8	Radiación solar	0
113825	7	Sololá	713	San Lucas Tolimán	10	San Lucas Tolimán	3	Marzo	2023-03-23T00:00:00	2024-11-08T06:00:00	2	Temperatura media	15.7
113826	7	Sololá	713	San Lucas Tolimán	10	San Lucas Tolimán	3	Marzo	2023-03-23T00:00:00	2024-11-08T06:00:00	4	Temperatura máxima	16.6
113827	7	Sololá	713	San Lucas Tolimán	10	San Lucas Tolimán	3	Marzo	2023-03-23T00:00:00	2024-11-08T06:00:00	3	Temperatura mínima	15.7
113828	7	Sololá	713	San Lucas Tolimán	10	San Lucas Tolimán	3	Marzo	2023-03-23T00:00:00	2024-11-08T06:00:00	5	Humedad	60
113829	7	Sololá	713	San Lucas Tolimán	10	San Lucas Tolimán	3	Marzo	2023-03-23T00:00:00	2024-11-08T06:00:00	6	Velocidad del viento	1.6
113830	7	Sololá	713	San Lucas Tolimán	10	San Lucas Tolimán	3	Marzo	2023-03-23T00:00:00	2024-11-08T06:00:00	7	Dirección del viento	1.61
113831	7	Sololá	713	San Lucas Tolimán	10	San Lucas Tolimán	3	Marzo	2023-03-23T00:00:00	2024-11-08T06:00:00	1	Precipitación	0
113832	7	Sololá	713	San Lucas Tolimán	10	San Lucas Tolimán	3	Marzo	2023-03-23T00:00:00	2024-11-08T06:00:00	8	Radiación solar	0
113833	7	Sololá	713	San Lucas Tolimán	10	San Lucas Tolimán	3	Marzo	2023-03-23T00:00:00	2024-11-08T07:00:00	2	Temperatura media	17.2
113834	7	Sololá	713	San Lucas Tolimán	10	San Lucas Tolimán	3	Marzo	2023-03-23T00:00:00	2024-11-08T07:00:00	4	Temperatura máxima	17.2
113835	7	Sololá	713	San Lucas Tolimán	10	San Lucas Tolimán	3	Marzo	2023-03-23T00:00:00	2024-11-08T07:00:00	3	Temperatura mínima	15.3
113836	7	Sololá	713	San Lucas Tolimán	10	San Lucas Tolimán	3	Marzo	2023-03-23T00:00:00	2024-11-08T07:00:00	5	Humedad	56
113837	7	Sololá	713	San Lucas Tolimán	10	San Lucas Tolimán	3	Marzo	2023-03-23T00:00:00	2024-11-08T07:00:00	6	Velocidad del viento	1.6
113838	7	Sololá	713	San Lucas Tolimán	10	San Lucas Tolimán	3	Marzo	2023-03-23T00:00:00	2024-11-08T07:00:00	7	Dirección del viento	1.61
113839	7	Sololá	713	San Lucas Tolimán	10	San Lucas Tolimán	3	Marzo	2023-03-23T00:00:00	2024-11-08T07:00:00	1	Precipitación	0
113840	7	Sololá	713	San Lucas Tolimán	10	San Lucas Tolimán	3	Marzo	2023-03-23T00:00:00	2024-11-08T07:00:00	8	Radiación solar	13
113841	7	Sololá	713	San Lucas Tolimán	10	San Lucas Tolimán	3	Marzo	2023-03-23T00:00:00	2024-11-08T08:00:00	2	Temperatura media	20.2
113842	7	Sololá	713	San Lucas Tolimán	10	San Lucas Tolimán	3	Marzo	2023-03-23T00:00:00	2024-11-08T08:00:00	4	Temperatura máxima	20.2
113843	7	Sololá	713	San Lucas Tolimán	10	San Lucas Tolimán	3	Marzo	2023-03-23T00:00:00	2024-11-08T08:00:00	3	Temperatura mínima	17.3
113844	7	Sololá	713	San Lucas Tolimán	10	San Lucas Tolimán	3	Marzo	2023-03-23T00:00:00	2024-11-08T08:00:00	5	Humedad	49
113845	7	Sololá	713	San Lucas Tolimán	10	San Lucas Tolimán	3	Marzo	2023-03-23T00:00:00	2024-11-08T08:00:00	6	Velocidad del viento	14.5
113846	7	Sololá	713	San Lucas Tolimán	10	San Lucas Tolimán	3	Marzo	2023-03-23T00:00:00	2024-11-08T08:00:00	7	Dirección del viento	14.48
113847	7	Sololá	713	San Lucas Tolimán	10	San Lucas Tolimán	3	Marzo	2023-03-23T00:00:00	2024-11-08T08:00:00	1	Precipitación	0
113848	7	Sololá	713	San Lucas Tolimán	10	San Lucas Tolimán	3	Marzo	2023-03-23T00:00:00	2024-11-08T08:00:00	8	Radiación solar	217
113849	7	Sololá	713	San Lucas Tolimán	10	San Lucas Tolimán	3	Marzo	2023-03-23T00:00:00	2024-11-08T09:00:00	2	Temperatura media	22.1
113850	7	Sololá	713	San Lucas Tolimán	10	San Lucas Tolimán	3	Marzo	2023-03-23T00:00:00	2024-11-08T09:00:00	4	Temperatura máxima	22.1
113851	7	Sololá	713	San Lucas Tolimán	10	San Lucas Tolimán	3	Marzo	2023-03-23T00:00:00	2024-11-08T09:00:00	3	Temperatura mínima	20.2
113852	7	Sololá	713	San Lucas Tolimán	10	San Lucas Tolimán	3	Marzo	2023-03-23T00:00:00	2024-11-08T09:00:00	5	Humedad	45
113853	7	Sololá	713	San Lucas Tolimán	10	San Lucas Tolimán	3	Marzo	2023-03-23T00:00:00	2024-11-08T09:00:00	6	Velocidad del viento	8
113854	7	Sololá	713	San Lucas Tolimán	10	San Lucas Tolimán	3	Marzo	2023-03-23T00:00:00	2024-11-08T09:00:00	7	Dirección del viento	8.05
113855	7	Sololá	713	San Lucas Tolimán	10	San Lucas Tolimán	3	Marzo	2023-03-23T00:00:00	2024-11-08T09:00:00	1	Precipitación	0
113856	7	Sololá	713	San Lucas Tolimán	10	San Lucas Tolimán	3	Marzo	2023-03-23T00:00:00	2024-11-08T09:00:00	8	Radiación solar	576
113857	7	Sololá	713	San Lucas Tolimán	10	San Lucas Tolimán	3	Marzo	2023-03-23T00:00:00	2024-11-08T10:00:00	2	Temperatura media	23.4
113858	7	Sololá	713	San Lucas Tolimán	10	San Lucas Tolimán	3	Marzo	2023-03-23T00:00:00	2024-11-08T10:00:00	4	Temperatura máxima	23.6
113859	7	Sololá	713	San Lucas Tolimán	10	San Lucas Tolimán	3	Marzo	2023-03-23T00:00:00	2024-11-08T10:00:00	3	Temperatura mínima	22.1
113860	7	Sololá	713	San Lucas Tolimán	10	San Lucas Tolimán	3	Marzo	2023-03-23T00:00:00	2024-11-08T10:00:00	5	Humedad	40
113861	7	Sololá	713	San Lucas Tolimán	10	San Lucas Tolimán	3	Marzo	2023-03-23T00:00:00	2024-11-08T10:00:00	6	Velocidad del viento	9.7
113862	7	Sololá	713	San Lucas Tolimán	10	San Lucas Tolimán	3	Marzo	2023-03-23T00:00:00	2024-11-08T10:00:00	7	Dirección del viento	9.66
113863	7	Sololá	713	San Lucas Tolimán	10	San Lucas Tolimán	3	Marzo	2023-03-23T00:00:00	2024-11-08T10:00:00	1	Precipitación	0
113864	7	Sololá	713	San Lucas Tolimán	10	San Lucas Tolimán	3	Marzo	2023-03-23T00:00:00	2024-11-08T10:00:00	8	Radiación solar	896
113865	7	Sololá	713	San Lucas Tolimán	10	San Lucas Tolimán	3	Marzo	2023-03-23T00:00:00	2024-11-08T11:00:00	2	Temperatura media	23.4
113866	7	Sololá	713	San Lucas Tolimán	10	San Lucas Tolimán	3	Marzo	2023-03-23T00:00:00	2024-11-08T11:00:00	4	Temperatura máxima	24.1
113867	7	Sololá	713	San Lucas Tolimán	10	San Lucas Tolimán	3	Marzo	2023-03-23T00:00:00	2024-11-08T11:00:00	3	Temperatura mínima	23.2
113868	7	Sololá	713	San Lucas Tolimán	10	San Lucas Tolimán	3	Marzo	2023-03-23T00:00:00	2024-11-08T11:00:00	5	Humedad	40
113869	7	Sololá	713	San Lucas Tolimán	10	San Lucas Tolimán	3	Marzo	2023-03-23T00:00:00	2024-11-08T11:00:00	6	Velocidad del viento	11.3
113870	7	Sololá	713	San Lucas Tolimán	10	San Lucas Tolimán	3	Marzo	2023-03-23T00:00:00	2024-11-08T11:00:00	7	Dirección del viento	11.27
113871	7	Sololá	713	San Lucas Tolimán	10	San Lucas Tolimán	3	Marzo	2023-03-23T00:00:00	2024-11-08T11:00:00	1	Precipitación	0
113872	7	Sololá	713	San Lucas Tolimán	10	San Lucas Tolimán	3	Marzo	2023-03-23T00:00:00	2024-11-08T11:00:00	8	Radiación solar	893
113873	7	Sololá	713	San Lucas Tolimán	10	San Lucas Tolimán	3	Marzo	2023-03-23T00:00:00	2024-11-08T12:00:00	2	Temperatura media	23.6
113874	7	Sololá	713	San Lucas Tolimán	10	San Lucas Tolimán	3	Marzo	2023-03-23T00:00:00	2024-11-08T12:00:00	4	Temperatura máxima	24.3
113875	7	Sololá	713	San Lucas Tolimán	10	San Lucas Tolimán	3	Marzo	2023-03-23T00:00:00	2024-11-08T12:00:00	3	Temperatura mínima	23.3
113876	7	Sololá	713	San Lucas Tolimán	10	San Lucas Tolimán	3	Marzo	2023-03-23T00:00:00	2024-11-08T12:00:00	5	Humedad	55
113877	7	Sololá	713	San Lucas Tolimán	10	San Lucas Tolimán	3	Marzo	2023-03-23T00:00:00	2024-11-08T12:00:00	6	Velocidad del viento	9.7
113878	7	Sololá	713	San Lucas Tolimán	10	San Lucas Tolimán	3	Marzo	2023-03-23T00:00:00	2024-11-08T12:00:00	7	Dirección del viento	9.66
113879	7	Sololá	713	San Lucas Tolimán	10	San Lucas Tolimán	3	Marzo	2023-03-23T00:00:00	2024-11-08T12:00:00	1	Precipitación	0
113880	7	Sololá	713	San Lucas Tolimán	10	San Lucas Tolimán	3	Marzo	2023-03-23T00:00:00	2024-11-08T12:00:00	8	Radiación solar	448
113881	7	Sololá	713	San Lucas Tolimán	10	San Lucas Tolimán	3	Marzo	2023-03-23T00:00:00	2024-11-08T13:00:00	2	Temperatura media	22.3
113882	7	Sololá	713	San Lucas Tolimán	10	San Lucas Tolimán	3	Marzo	2023-03-23T00:00:00	2024-11-08T13:00:00	4	Temperatura máxima	23.8
113883	7	Sololá	713	San Lucas Tolimán	10	San Lucas Tolimán	3	Marzo	2023-03-23T00:00:00	2024-11-08T13:00:00	3	Temperatura mínima	22.3
113884	7	Sololá	713	San Lucas Tolimán	10	San Lucas Tolimán	3	Marzo	2023-03-23T00:00:00	2024-11-08T13:00:00	5	Humedad	59
113885	7	Sololá	713	San Lucas Tolimán	10	San Lucas Tolimán	3	Marzo	2023-03-23T00:00:00	2024-11-08T13:00:00	6	Velocidad del viento	9.7
113886	7	Sololá	713	San Lucas Tolimán	10	San Lucas Tolimán	3	Marzo	2023-03-23T00:00:00	2024-11-08T13:00:00	7	Dirección del viento	9.66
113887	7	Sololá	713	San Lucas Tolimán	10	San Lucas Tolimán	3	Marzo	2023-03-23T00:00:00	2024-11-08T13:00:00	1	Precipitación	0
113888	7	Sololá	713	San Lucas Tolimán	10	San Lucas Tolimán	3	Marzo	2023-03-23T00:00:00	2024-11-08T13:00:00	8	Radiación solar	697
113889	7	Sololá	713	San Lucas Tolimán	10	San Lucas Tolimán	3	Marzo	2023-03-23T00:00:00	2024-11-08T14:00:00	2	Temperatura media	24.2
113890	7	Sololá	713	San Lucas Tolimán	10	San Lucas Tolimán	3	Marzo	2023-03-23T00:00:00	2024-11-08T14:00:00	4	Temperatura máxima	24.5
113891	7	Sololá	713	San Lucas Tolimán	10	San Lucas Tolimán	3	Marzo	2023-03-23T00:00:00	2024-11-08T14:00:00	3	Temperatura mínima	22.3
113892	7	Sololá	713	San Lucas Tolimán	10	San Lucas Tolimán	3	Marzo	2023-03-23T00:00:00	2024-11-08T14:00:00	5	Humedad	55
113893	7	Sololá	713	San Lucas Tolimán	10	San Lucas Tolimán	3	Marzo	2023-03-23T00:00:00	2024-11-08T14:00:00	6	Velocidad del viento	9.7
113894	7	Sololá	713	San Lucas Tolimán	10	San Lucas Tolimán	3	Marzo	2023-03-23T00:00:00	2024-11-08T14:00:00	7	Dirección del viento	9.66
113895	7	Sololá	713	San Lucas Tolimán	10	San Lucas Tolimán	3	Marzo	2023-03-23T00:00:00	2024-11-08T14:00:00	1	Precipitación	0
113896	7	Sololá	713	San Lucas Tolimán	10	San Lucas Tolimán	3	Marzo	2023-03-23T00:00:00	2024-11-08T14:00:00	8	Radiación solar	1104
113897	7	Sololá	713	San Lucas Tolimán	10	San Lucas Tolimán	3	Marzo	2023-03-23T00:00:00	2024-11-08T15:00:00	2	Temperatura media	24.6
113898	7	Sololá	713	San Lucas Tolimán	10	San Lucas Tolimán	3	Marzo	2023-03-23T00:00:00	2024-11-08T15:00:00	4	Temperatura máxima	24.7
113899	7	Sololá	713	San Lucas Tolimán	10	San Lucas Tolimán	3	Marzo	2023-03-23T00:00:00	2024-11-08T15:00:00	3	Temperatura mínima	22.9
113900	7	Sololá	713	San Lucas Tolimán	10	San Lucas Tolimán	3	Marzo	2023-03-23T00:00:00	2024-11-08T15:00:00	5	Humedad	53
113901	7	Sololá	713	San Lucas Tolimán	10	San Lucas Tolimán	3	Marzo	2023-03-23T00:00:00	2024-11-08T15:00:00	6	Velocidad del viento	9.7
113902	7	Sololá	713	San Lucas Tolimán	10	San Lucas Tolimán	3	Marzo	2023-03-23T00:00:00	2024-11-08T15:00:00	7	Dirección del viento	9.66
113903	7	Sololá	713	San Lucas Tolimán	10	San Lucas Tolimán	3	Marzo	2023-03-23T00:00:00	2024-11-08T15:00:00	1	Precipitación	0
113904	7	Sololá	713	San Lucas Tolimán	10	San Lucas Tolimán	3	Marzo	2023-03-23T00:00:00	2024-11-08T15:00:00	8	Radiación solar	891
113905	7	Sololá	713	San Lucas Tolimán	10	San Lucas Tolimán	3	Marzo	2023-03-23T00:00:00	2024-11-08T16:00:00	2	Temperatura media	23.2
113906	7	Sololá	713	San Lucas Tolimán	10	San Lucas Tolimán	3	Marzo	2023-03-23T00:00:00	2024-11-08T16:00:00	4	Temperatura máxima	24.8
113907	7	Sololá	713	San Lucas Tolimán	10	San Lucas Tolimán	3	Marzo	2023-03-23T00:00:00	2024-11-08T16:00:00	3	Temperatura mínima	23.1
113908	7	Sololá	713	San Lucas Tolimán	10	San Lucas Tolimán	3	Marzo	2023-03-23T00:00:00	2024-11-08T16:00:00	5	Humedad	58
113909	7	Sololá	713	San Lucas Tolimán	10	San Lucas Tolimán	3	Marzo	2023-03-23T00:00:00	2024-11-08T16:00:00	6	Velocidad del viento	11.3
113910	7	Sololá	713	San Lucas Tolimán	10	San Lucas Tolimán	3	Marzo	2023-03-23T00:00:00	2024-11-08T16:00:00	7	Dirección del viento	11.27
113911	7	Sololá	713	San Lucas Tolimán	10	San Lucas Tolimán	3	Marzo	2023-03-23T00:00:00	2024-11-08T16:00:00	1	Precipitación	0
113912	7	Sololá	713	San Lucas Tolimán	10	San Lucas Tolimán	3	Marzo	2023-03-23T00:00:00	2024-11-08T16:00:00	8	Radiación solar	678
113913	7	Sololá	713	San Lucas Tolimán	10	San Lucas Tolimán	3	Marzo	2023-03-23T00:00:00	2024-11-08T17:00:00	2	Temperatura media	21.8
113914	7	Sololá	713	San Lucas Tolimán	10	San Lucas Tolimán	3	Marzo	2023-03-23T00:00:00	2024-11-08T17:00:00	4	Temperatura máxima	23.2
113915	7	Sololá	713	San Lucas Tolimán	10	San Lucas Tolimán	3	Marzo	2023-03-23T00:00:00	2024-11-08T17:00:00	3	Temperatura mínima	21.4
113916	7	Sololá	713	San Lucas Tolimán	10	San Lucas Tolimán	3	Marzo	2023-03-23T00:00:00	2024-11-08T17:00:00	5	Humedad	61
113917	7	Sololá	713	San Lucas Tolimán	10	San Lucas Tolimán	3	Marzo	2023-03-23T00:00:00	2024-11-08T17:00:00	6	Velocidad del viento	9.7
113918	7	Sololá	713	San Lucas Tolimán	10	San Lucas Tolimán	3	Marzo	2023-03-23T00:00:00	2024-11-08T17:00:00	7	Dirección del viento	9.66
113919	7	Sololá	713	San Lucas Tolimán	10	San Lucas Tolimán	3	Marzo	2023-03-23T00:00:00	2024-11-08T17:00:00	1	Precipitación	0
113920	7	Sololá	713	San Lucas Tolimán	10	San Lucas Tolimán	3	Marzo	2023-03-23T00:00:00	2024-11-08T17:00:00	8	Radiación solar	385
113921	7	Sololá	713	San Lucas Tolimán	10	San Lucas Tolimán	3	Marzo	2023-03-23T00:00:00	2024-11-08T18:00:00	2	Temperatura media	19.8
113922	7	Sololá	713	San Lucas Tolimán	10	San Lucas Tolimán	3	Marzo	2023-03-23T00:00:00	2024-11-08T18:00:00	4	Temperatura máxima	21.8
113923	7	Sololá	713	San Lucas Tolimán	10	San Lucas Tolimán	3	Marzo	2023-03-23T00:00:00	2024-11-08T18:00:00	3	Temperatura mínima	19.8
113924	7	Sololá	713	San Lucas Tolimán	10	San Lucas Tolimán	3	Marzo	2023-03-23T00:00:00	2024-11-08T18:00:00	5	Humedad	61
113925	7	Sololá	713	San Lucas Tolimán	10	San Lucas Tolimán	3	Marzo	2023-03-23T00:00:00	2024-11-08T18:00:00	6	Velocidad del viento	6.4
113926	7	Sololá	713	San Lucas Tolimán	10	San Lucas Tolimán	3	Marzo	2023-03-23T00:00:00	2024-11-08T18:00:00	7	Dirección del viento	6.44
113927	7	Sololá	713	San Lucas Tolimán	10	San Lucas Tolimán	3	Marzo	2023-03-23T00:00:00	2024-11-08T18:00:00	1	Precipitación	0
113928	7	Sololá	713	San Lucas Tolimán	10	San Lucas Tolimán	3	Marzo	2023-03-23T00:00:00	2024-11-08T18:00:00	8	Radiación solar	77
113929	7	Sololá	713	San Lucas Tolimán	10	San Lucas Tolimán	3	Marzo	2023-03-23T00:00:00	2024-11-08T19:00:00	2	Temperatura media	19
113930	7	Sololá	713	San Lucas Tolimán	10	San Lucas Tolimán	3	Marzo	2023-03-23T00:00:00	2024-11-08T19:00:00	4	Temperatura máxima	19.8
113931	7	Sololá	713	San Lucas Tolimán	10	San Lucas Tolimán	3	Marzo	2023-03-23T00:00:00	2024-11-08T19:00:00	3	Temperatura mínima	19
113932	7	Sololá	713	San Lucas Tolimán	10	San Lucas Tolimán	3	Marzo	2023-03-23T00:00:00	2024-11-08T19:00:00	5	Humedad	62
113933	7	Sololá	713	San Lucas Tolimán	10	San Lucas Tolimán	3	Marzo	2023-03-23T00:00:00	2024-11-08T19:00:00	6	Velocidad del viento	6.4
113934	7	Sololá	713	San Lucas Tolimán	10	San Lucas Tolimán	3	Marzo	2023-03-23T00:00:00	2024-11-08T19:00:00	7	Dirección del viento	6.44
113935	7	Sololá	713	San Lucas Tolimán	10	San Lucas Tolimán	3	Marzo	2023-03-23T00:00:00	2024-11-08T19:00:00	1	Precipitación	0
113936	7	Sololá	713	San Lucas Tolimán	10	San Lucas Tolimán	3	Marzo	2023-03-23T00:00:00	2024-11-08T19:00:00	8	Radiación solar	0
113937	7	Sololá	713	San Lucas Tolimán	10	San Lucas Tolimán	3	Marzo	2023-03-23T00:00:00	2024-11-08T20:00:00	2	Temperatura media	19.7
113938	7	Sololá	713	San Lucas Tolimán	10	San Lucas Tolimán	3	Marzo	2023-03-23T00:00:00	2024-11-08T20:00:00	4	Temperatura máxima	19.9
113939	7	Sololá	713	San Lucas Tolimán	10	San Lucas Tolimán	3	Marzo	2023-03-23T00:00:00	2024-11-08T20:00:00	3	Temperatura mínima	18.9
113940	7	Sololá	713	San Lucas Tolimán	10	San Lucas Tolimán	3	Marzo	2023-03-23T00:00:00	2024-11-08T20:00:00	5	Humedad	57
113941	7	Sololá	713	San Lucas Tolimán	10	San Lucas Tolimán	3	Marzo	2023-03-23T00:00:00	2024-11-08T20:00:00	6	Velocidad del viento	3.2
113942	7	Sololá	713	San Lucas Tolimán	10	San Lucas Tolimán	3	Marzo	2023-03-23T00:00:00	2024-11-08T20:00:00	7	Dirección del viento	3.22
113943	7	Sololá	713	San Lucas Tolimán	10	San Lucas Tolimán	3	Marzo	2023-03-23T00:00:00	2024-11-08T20:00:00	1	Precipitación	0
113944	7	Sololá	713	San Lucas Tolimán	10	San Lucas Tolimán	3	Marzo	2023-03-23T00:00:00	2024-11-08T20:00:00	8	Radiación solar	0
113945	7	Sololá	713	San Lucas Tolimán	10	San Lucas Tolimán	3	Marzo	2023-03-23T00:00:00	2024-11-08T21:00:00	2	Temperatura media	20
113946	7	Sololá	713	San Lucas Tolimán	10	San Lucas Tolimán	3	Marzo	2023-03-23T00:00:00	2024-11-08T21:00:00	4	Temperatura máxima	20.3
113947	7	Sololá	713	San Lucas Tolimán	10	San Lucas Tolimán	3	Marzo	2023-03-23T00:00:00	2024-11-08T21:00:00	3	Temperatura mínima	19.1
113948	7	Sololá	713	San Lucas Tolimán	10	San Lucas Tolimán	3	Marzo	2023-03-23T00:00:00	2024-11-08T21:00:00	5	Humedad	50
113949	7	Sololá	713	San Lucas Tolimán	10	San Lucas Tolimán	3	Marzo	2023-03-23T00:00:00	2024-11-08T21:00:00	6	Velocidad del viento	6.4
113950	7	Sololá	713	San Lucas Tolimán	10	San Lucas Tolimán	3	Marzo	2023-03-23T00:00:00	2024-11-08T21:00:00	7	Dirección del viento	6.44
113951	7	Sololá	713	San Lucas Tolimán	10	San Lucas Tolimán	3	Marzo	2023-03-23T00:00:00	2024-11-08T21:00:00	1	Precipitación	0
113952	7	Sololá	713	San Lucas Tolimán	10	San Lucas Tolimán	3	Marzo	2023-03-23T00:00:00	2024-11-08T21:00:00	8	Radiación solar	0
113953	7	Sololá	713	San Lucas Tolimán	10	San Lucas Tolimán	3	Marzo	2023-03-23T00:00:00	2024-11-08T22:00:00	2	Temperatura media	19.7
113954	7	Sololá	713	San Lucas Tolimán	10	San Lucas Tolimán	3	Marzo	2023-03-23T00:00:00	2024-11-08T22:00:00	4	Temperatura máxima	20.1
113955	7	Sololá	713	San Lucas Tolimán	10	San Lucas Tolimán	3	Marzo	2023-03-23T00:00:00	2024-11-08T22:00:00	3	Temperatura mínima	19.6
113956	7	Sololá	713	San Lucas Tolimán	10	San Lucas Tolimán	3	Marzo	2023-03-23T00:00:00	2024-11-08T22:00:00	5	Humedad	51
113957	7	Sololá	713	San Lucas Tolimán	10	San Lucas Tolimán	3	Marzo	2023-03-23T00:00:00	2024-11-08T22:00:00	6	Velocidad del viento	6.4
113958	7	Sololá	713	San Lucas Tolimán	10	San Lucas Tolimán	3	Marzo	2023-03-23T00:00:00	2024-11-08T22:00:00	7	Dirección del viento	6.44
113959	7	Sololá	713	San Lucas Tolimán	10	San Lucas Tolimán	3	Marzo	2023-03-23T00:00:00	2024-11-08T22:00:00	1	Precipitación	0
113960	7	Sololá	713	San Lucas Tolimán	10	San Lucas Tolimán	3	Marzo	2023-03-23T00:00:00	2024-11-08T22:00:00	8	Radiación solar	0
113961	7	Sololá	713	San Lucas Tolimán	10	San Lucas Tolimán	3	Marzo	2023-03-23T00:00:00	2024-11-08T23:00:00	2	Temperatura media	19.1
113962	7	Sololá	713	San Lucas Tolimán	10	San Lucas Tolimán	3	Marzo	2023-03-23T00:00:00	2024-11-08T23:00:00	4	Temperatura máxima	19.7
113963	7	Sololá	713	San Lucas Tolimán	10	San Lucas Tolimán	3	Marzo	2023-03-23T00:00:00	2024-11-08T23:00:00	3	Temperatura mínima	18.8
113964	7	Sololá	713	San Lucas Tolimán	10	San Lucas Tolimán	3	Marzo	2023-03-23T00:00:00	2024-11-08T23:00:00	5	Humedad	51
113965	7	Sololá	713	San Lucas Tolimán	10	San Lucas Tolimán	3	Marzo	2023-03-23T00:00:00	2024-11-08T23:00:00	6	Velocidad del viento	9.7
113966	7	Sololá	713	San Lucas Tolimán	10	San Lucas Tolimán	3	Marzo	2023-03-23T00:00:00	2024-11-08T23:00:00	7	Dirección del viento	9.66
113967	7	Sololá	713	San Lucas Tolimán	10	San Lucas Tolimán	3	Marzo	2023-03-23T00:00:00	2024-11-08T23:00:00	1	Precipitación	0
113968	7	Sololá	713	San Lucas Tolimán	10	San Lucas Tolimán	3	Marzo	2023-03-23T00:00:00	2024-11-08T23:00:00	8	Radiación solar	0
113969	7	Sololá	713	San Lucas Tolimán	10	San Lucas Tolimán	3	Marzo	2023-03-24T00:00:00	2024-11-08T00:00:00	2	Temperatura media	18.2
113970	7	Sololá	713	San Lucas Tolimán	10	San Lucas Tolimán	3	Marzo	2023-03-24T00:00:00	2024-11-08T00:00:00	4	Temperatura máxima	19.1
113971	7	Sololá	713	San Lucas Tolimán	10	San Lucas Tolimán	3	Marzo	2023-03-24T00:00:00	2024-11-08T00:00:00	3	Temperatura mínima	18.2
113972	7	Sololá	713	San Lucas Tolimán	10	San Lucas Tolimán	3	Marzo	2023-03-24T00:00:00	2024-11-08T00:00:00	5	Humedad	54
113973	7	Sololá	713	San Lucas Tolimán	10	San Lucas Tolimán	3	Marzo	2023-03-24T00:00:00	2024-11-08T00:00:00	6	Velocidad del viento	4.8
113974	7	Sololá	713	San Lucas Tolimán	10	San Lucas Tolimán	3	Marzo	2023-03-24T00:00:00	2024-11-08T00:00:00	7	Dirección del viento	4.83
113975	7	Sololá	713	San Lucas Tolimán	10	San Lucas Tolimán	3	Marzo	2023-03-24T00:00:00	2024-11-08T00:00:00	1	Precipitación	0
113976	7	Sololá	713	San Lucas Tolimán	10	San Lucas Tolimán	3	Marzo	2023-03-24T00:00:00	2024-11-08T00:00:00	8	Radiación solar	0
113977	7	Sololá	713	San Lucas Tolimán	10	San Lucas Tolimán	3	Marzo	2023-03-24T00:00:00	2024-11-08T01:00:00	2	Temperatura media	17.1
113978	7	Sololá	713	San Lucas Tolimán	10	San Lucas Tolimán	3	Marzo	2023-03-24T00:00:00	2024-11-08T01:00:00	4	Temperatura máxima	18.2
113979	7	Sololá	713	San Lucas Tolimán	10	San Lucas Tolimán	3	Marzo	2023-03-24T00:00:00	2024-11-08T01:00:00	3	Temperatura mínima	17.1
113980	7	Sololá	713	San Lucas Tolimán	10	San Lucas Tolimán	3	Marzo	2023-03-24T00:00:00	2024-11-08T01:00:00	5	Humedad	57
113981	7	Sololá	713	San Lucas Tolimán	10	San Lucas Tolimán	3	Marzo	2023-03-24T00:00:00	2024-11-08T01:00:00	6	Velocidad del viento	3.2
113982	7	Sololá	713	San Lucas Tolimán	10	San Lucas Tolimán	3	Marzo	2023-03-24T00:00:00	2024-11-08T01:00:00	7	Dirección del viento	3.22
113983	7	Sololá	713	San Lucas Tolimán	10	San Lucas Tolimán	3	Marzo	2023-03-24T00:00:00	2024-11-08T01:00:00	1	Precipitación	0
113984	7	Sololá	713	San Lucas Tolimán	10	San Lucas Tolimán	3	Marzo	2023-03-24T00:00:00	2024-11-08T01:00:00	8	Radiación solar	0
113985	7	Sololá	713	San Lucas Tolimán	10	San Lucas Tolimán	3	Marzo	2023-03-24T00:00:00	2024-11-08T02:00:00	2	Temperatura media	14.7
113986	7	Sololá	713	San Lucas Tolimán	10	San Lucas Tolimán	3	Marzo	2023-03-24T00:00:00	2024-11-08T02:00:00	4	Temperatura máxima	17.3
113987	7	Sololá	713	San Lucas Tolimán	10	San Lucas Tolimán	3	Marzo	2023-03-24T00:00:00	2024-11-08T02:00:00	3	Temperatura mínima	14.7
113988	7	Sololá	713	San Lucas Tolimán	10	San Lucas Tolimán	3	Marzo	2023-03-24T00:00:00	2024-11-08T02:00:00	5	Humedad	62
113989	7	Sololá	713	San Lucas Tolimán	10	San Lucas Tolimán	3	Marzo	2023-03-24T00:00:00	2024-11-08T02:00:00	6	Velocidad del viento	3.2
113990	7	Sololá	713	San Lucas Tolimán	10	San Lucas Tolimán	3	Marzo	2023-03-24T00:00:00	2024-11-08T02:00:00	7	Dirección del viento	3.22
113991	7	Sololá	713	San Lucas Tolimán	10	San Lucas Tolimán	3	Marzo	2023-03-24T00:00:00	2024-11-08T02:00:00	1	Precipitación	0
113992	7	Sololá	713	San Lucas Tolimán	10	San Lucas Tolimán	3	Marzo	2023-03-24T00:00:00	2024-11-08T02:00:00	8	Radiación solar	0
113993	7	Sololá	713	San Lucas Tolimán	10	San Lucas Tolimán	3	Marzo	2023-03-24T00:00:00	2024-11-08T03:00:00	2	Temperatura media	14.4
113994	7	Sololá	713	San Lucas Tolimán	10	San Lucas Tolimán	3	Marzo	2023-03-24T00:00:00	2024-11-08T03:00:00	4	Temperatura máxima	14.7
113995	7	Sololá	713	San Lucas Tolimán	10	San Lucas Tolimán	3	Marzo	2023-03-24T00:00:00	2024-11-08T03:00:00	3	Temperatura mínima	14.1
113996	7	Sololá	713	San Lucas Tolimán	10	San Lucas Tolimán	3	Marzo	2023-03-24T00:00:00	2024-11-08T03:00:00	5	Humedad	58
113997	7	Sololá	713	San Lucas Tolimán	10	San Lucas Tolimán	3	Marzo	2023-03-24T00:00:00	2024-11-08T03:00:00	6	Velocidad del viento	3.2
113998	7	Sololá	713	San Lucas Tolimán	10	San Lucas Tolimán	3	Marzo	2023-03-24T00:00:00	2024-11-08T03:00:00	7	Dirección del viento	3.22
113999	7	Sololá	713	San Lucas Tolimán	10	San Lucas Tolimán	3	Marzo	2023-03-24T00:00:00	2024-11-08T03:00:00	1	Precipitación	0
114000	7	Sololá	713	San Lucas Tolimán	10	San Lucas Tolimán	3	Marzo	2023-03-24T00:00:00	2024-11-08T03:00:00	8	Radiación solar	0
114001	7	Sololá	713	San Lucas Tolimán	10	San Lucas Tolimán	3	Marzo	2023-03-24T00:00:00	2024-11-08T04:00:00	2	Temperatura media	15.6
114002	7	Sololá	713	San Lucas Tolimán	10	San Lucas Tolimán	3	Marzo	2023-03-24T00:00:00	2024-11-08T04:00:00	4	Temperatura máxima	15.9
114003	7	Sololá	713	San Lucas Tolimán	10	San Lucas Tolimán	3	Marzo	2023-03-24T00:00:00	2024-11-08T04:00:00	3	Temperatura mínima	14.4
114004	7	Sololá	713	San Lucas Tolimán	10	San Lucas Tolimán	3	Marzo	2023-03-24T00:00:00	2024-11-08T04:00:00	5	Humedad	57
114005	7	Sololá	713	San Lucas Tolimán	10	San Lucas Tolimán	3	Marzo	2023-03-24T00:00:00	2024-11-08T04:00:00	6	Velocidad del viento	1.6
114006	7	Sololá	713	San Lucas Tolimán	10	San Lucas Tolimán	3	Marzo	2023-03-24T00:00:00	2024-11-08T04:00:00	7	Dirección del viento	1.61
114007	7	Sololá	713	San Lucas Tolimán	10	San Lucas Tolimán	3	Marzo	2023-03-24T00:00:00	2024-11-08T04:00:00	1	Precipitación	0
114008	7	Sololá	713	San Lucas Tolimán	10	San Lucas Tolimán	3	Marzo	2023-03-24T00:00:00	2024-11-08T04:00:00	8	Radiación solar	0
114009	7	Sololá	713	San Lucas Tolimán	10	San Lucas Tolimán	3	Marzo	2023-03-24T00:00:00	2024-11-08T05:00:00	2	Temperatura media	15.6
114010	7	Sololá	713	San Lucas Tolimán	10	San Lucas Tolimán	3	Marzo	2023-03-24T00:00:00	2024-11-08T05:00:00	4	Temperatura máxima	16.3
114011	7	Sololá	713	San Lucas Tolimán	10	San Lucas Tolimán	3	Marzo	2023-03-24T00:00:00	2024-11-08T05:00:00	3	Temperatura mínima	15.4
114012	7	Sololá	713	San Lucas Tolimán	10	San Lucas Tolimán	3	Marzo	2023-03-24T00:00:00	2024-11-08T05:00:00	5	Humedad	58
114013	7	Sololá	713	San Lucas Tolimán	10	San Lucas Tolimán	3	Marzo	2023-03-24T00:00:00	2024-11-08T05:00:00	6	Velocidad del viento	1.6
114014	7	Sololá	713	San Lucas Tolimán	10	San Lucas Tolimán	3	Marzo	2023-03-24T00:00:00	2024-11-08T05:00:00	7	Dirección del viento	1.61
114015	7	Sololá	713	San Lucas Tolimán	10	San Lucas Tolimán	3	Marzo	2023-03-24T00:00:00	2024-11-08T05:00:00	1	Precipitación	0
114016	7	Sololá	713	San Lucas Tolimán	10	San Lucas Tolimán	3	Marzo	2023-03-24T00:00:00	2024-11-08T05:00:00	8	Radiación solar	0
114017	7	Sololá	713	San Lucas Tolimán	10	San Lucas Tolimán	3	Marzo	2023-03-24T00:00:00	2024-11-08T06:00:00	2	Temperatura media	14.9
114018	7	Sololá	713	San Lucas Tolimán	10	San Lucas Tolimán	3	Marzo	2023-03-24T00:00:00	2024-11-08T06:00:00	4	Temperatura máxima	16
114019	7	Sololá	713	San Lucas Tolimán	10	San Lucas Tolimán	3	Marzo	2023-03-24T00:00:00	2024-11-08T06:00:00	3	Temperatura mínima	14.9
114020	7	Sololá	713	San Lucas Tolimán	10	San Lucas Tolimán	3	Marzo	2023-03-24T00:00:00	2024-11-08T06:00:00	5	Humedad	60
114021	7	Sololá	713	San Lucas Tolimán	10	San Lucas Tolimán	3	Marzo	2023-03-24T00:00:00	2024-11-08T06:00:00	6	Velocidad del viento	1.6
114022	7	Sololá	713	San Lucas Tolimán	10	San Lucas Tolimán	3	Marzo	2023-03-24T00:00:00	2024-11-08T06:00:00	7	Dirección del viento	1.61
114023	7	Sololá	713	San Lucas Tolimán	10	San Lucas Tolimán	3	Marzo	2023-03-24T00:00:00	2024-11-08T06:00:00	1	Precipitación	0
114024	7	Sololá	713	San Lucas Tolimán	10	San Lucas Tolimán	3	Marzo	2023-03-24T00:00:00	2024-11-08T06:00:00	8	Radiación solar	0
114025	7	Sololá	713	San Lucas Tolimán	10	San Lucas Tolimán	3	Marzo	2023-03-24T00:00:00	2024-11-08T07:00:00	2	Temperatura media	14.7
114026	7	Sololá	713	San Lucas Tolimán	10	San Lucas Tolimán	3	Marzo	2023-03-24T00:00:00	2024-11-08T07:00:00	4	Temperatura máxima	15
114027	7	Sololá	713	San Lucas Tolimán	10	San Lucas Tolimán	3	Marzo	2023-03-24T00:00:00	2024-11-08T07:00:00	3	Temperatura mínima	14.4
114028	7	Sololá	713	San Lucas Tolimán	10	San Lucas Tolimán	3	Marzo	2023-03-24T00:00:00	2024-11-08T07:00:00	5	Humedad	62
114029	7	Sololá	713	San Lucas Tolimán	10	San Lucas Tolimán	3	Marzo	2023-03-24T00:00:00	2024-11-08T07:00:00	6	Velocidad del viento	0
114030	7	Sololá	713	San Lucas Tolimán	10	San Lucas Tolimán	3	Marzo	2023-03-24T00:00:00	2024-11-08T07:00:00	7	Dirección del viento	0
114031	7	Sololá	713	San Lucas Tolimán	10	San Lucas Tolimán	3	Marzo	2023-03-24T00:00:00	2024-11-08T07:00:00	1	Precipitación	0
114032	7	Sololá	713	San Lucas Tolimán	10	San Lucas Tolimán	3	Marzo	2023-03-24T00:00:00	2024-11-08T07:00:00	8	Radiación solar	22
114033	7	Sololá	713	San Lucas Tolimán	10	San Lucas Tolimán	3	Marzo	2023-03-24T00:00:00	2024-11-08T08:00:00	2	Temperatura media	18.4
114034	7	Sololá	713	San Lucas Tolimán	10	San Lucas Tolimán	3	Marzo	2023-03-24T00:00:00	2024-11-08T08:00:00	4	Temperatura máxima	18.5
114035	7	Sololá	713	San Lucas Tolimán	10	San Lucas Tolimán	3	Marzo	2023-03-24T00:00:00	2024-11-08T08:00:00	3	Temperatura mínima	14.7
114036	7	Sololá	713	San Lucas Tolimán	10	San Lucas Tolimán	3	Marzo	2023-03-24T00:00:00	2024-11-08T08:00:00	5	Humedad	54
114037	7	Sololá	713	San Lucas Tolimán	10	San Lucas Tolimán	3	Marzo	2023-03-24T00:00:00	2024-11-08T08:00:00	6	Velocidad del viento	1.6
114038	7	Sololá	713	San Lucas Tolimán	10	San Lucas Tolimán	3	Marzo	2023-03-24T00:00:00	2024-11-08T08:00:00	7	Dirección del viento	1.61
114039	7	Sololá	713	San Lucas Tolimán	10	San Lucas Tolimán	3	Marzo	2023-03-24T00:00:00	2024-11-08T08:00:00	1	Precipitación	0
114040	7	Sololá	713	San Lucas Tolimán	10	San Lucas Tolimán	3	Marzo	2023-03-24T00:00:00	2024-11-08T08:00:00	8	Radiación solar	171
114041	7	Sololá	713	San Lucas Tolimán	10	San Lucas Tolimán	3	Marzo	2023-03-24T00:00:00	2024-11-08T09:00:00	2	Temperatura media	19.2
114042	7	Sololá	713	San Lucas Tolimán	10	San Lucas Tolimán	3	Marzo	2023-03-24T00:00:00	2024-11-08T09:00:00	4	Temperatura máxima	19.2
114043	7	Sololá	713	San Lucas Tolimán	10	San Lucas Tolimán	3	Marzo	2023-03-24T00:00:00	2024-11-08T09:00:00	3	Temperatura mínima	17.6
114044	7	Sololá	713	San Lucas Tolimán	10	San Lucas Tolimán	3	Marzo	2023-03-24T00:00:00	2024-11-08T09:00:00	5	Humedad	54
114045	7	Sololá	713	San Lucas Tolimán	10	San Lucas Tolimán	3	Marzo	2023-03-24T00:00:00	2024-11-08T09:00:00	6	Velocidad del viento	4.8
114046	7	Sololá	713	San Lucas Tolimán	10	San Lucas Tolimán	3	Marzo	2023-03-24T00:00:00	2024-11-08T09:00:00	7	Dirección del viento	4.83
114047	7	Sololá	713	San Lucas Tolimán	10	San Lucas Tolimán	3	Marzo	2023-03-24T00:00:00	2024-11-08T09:00:00	1	Precipitación	0
114048	7	Sololá	713	San Lucas Tolimán	10	San Lucas Tolimán	3	Marzo	2023-03-24T00:00:00	2024-11-08T09:00:00	8	Radiación solar	446
114049	7	Sololá	713	San Lucas Tolimán	10	San Lucas Tolimán	3	Marzo	2023-03-24T00:00:00	2024-11-08T10:00:00	2	Temperatura media	22.1
114050	7	Sololá	713	San Lucas Tolimán	10	San Lucas Tolimán	3	Marzo	2023-03-24T00:00:00	2024-11-08T10:00:00	4	Temperatura máxima	22.1
114051	7	Sololá	713	San Lucas Tolimán	10	San Lucas Tolimán	3	Marzo	2023-03-24T00:00:00	2024-11-08T10:00:00	3	Temperatura mínima	19.2
114052	7	Sololá	713	San Lucas Tolimán	10	San Lucas Tolimán	3	Marzo	2023-03-24T00:00:00	2024-11-08T10:00:00	5	Humedad	51
114053	7	Sololá	713	San Lucas Tolimán	10	San Lucas Tolimán	3	Marzo	2023-03-24T00:00:00	2024-11-08T10:00:00	6	Velocidad del viento	4.8
114054	7	Sololá	713	San Lucas Tolimán	10	San Lucas Tolimán	3	Marzo	2023-03-24T00:00:00	2024-11-08T10:00:00	7	Dirección del viento	4.83
114055	7	Sololá	713	San Lucas Tolimán	10	San Lucas Tolimán	3	Marzo	2023-03-24T00:00:00	2024-11-08T10:00:00	1	Precipitación	0
114056	7	Sololá	713	San Lucas Tolimán	10	San Lucas Tolimán	3	Marzo	2023-03-24T00:00:00	2024-11-08T10:00:00	8	Radiación solar	803
114057	7	Sololá	713	San Lucas Tolimán	10	San Lucas Tolimán	3	Marzo	2023-03-24T00:00:00	2024-11-08T11:00:00	2	Temperatura media	22.6
114058	7	Sololá	713	San Lucas Tolimán	10	San Lucas Tolimán	3	Marzo	2023-03-24T00:00:00	2024-11-08T11:00:00	4	Temperatura máxima	23.6
114059	7	Sololá	713	San Lucas Tolimán	10	San Lucas Tolimán	3	Marzo	2023-03-24T00:00:00	2024-11-08T11:00:00	3	Temperatura mínima	22.1
114060	7	Sololá	713	San Lucas Tolimán	10	San Lucas Tolimán	3	Marzo	2023-03-24T00:00:00	2024-11-08T11:00:00	5	Humedad	48
114061	7	Sololá	713	San Lucas Tolimán	10	San Lucas Tolimán	3	Marzo	2023-03-24T00:00:00	2024-11-08T11:00:00	6	Velocidad del viento	8
114062	7	Sololá	713	San Lucas Tolimán	10	San Lucas Tolimán	3	Marzo	2023-03-24T00:00:00	2024-11-08T11:00:00	7	Dirección del viento	8.05
114063	7	Sololá	713	San Lucas Tolimán	10	San Lucas Tolimán	3	Marzo	2023-03-24T00:00:00	2024-11-08T11:00:00	1	Precipitación	0
114064	7	Sololá	713	San Lucas Tolimán	10	San Lucas Tolimán	3	Marzo	2023-03-24T00:00:00	2024-11-08T11:00:00	8	Radiación solar	980
114065	7	Sololá	713	San Lucas Tolimán	10	San Lucas Tolimán	3	Marzo	2023-03-24T00:00:00	2024-11-08T12:00:00	2	Temperatura media	22.7
114066	7	Sololá	713	San Lucas Tolimán	10	San Lucas Tolimán	3	Marzo	2023-03-24T00:00:00	2024-11-08T12:00:00	4	Temperatura máxima	23.6
114067	7	Sololá	713	San Lucas Tolimán	10	San Lucas Tolimán	3	Marzo	2023-03-24T00:00:00	2024-11-08T12:00:00	3	Temperatura mínima	22.2
114068	7	Sololá	713	San Lucas Tolimán	10	San Lucas Tolimán	3	Marzo	2023-03-24T00:00:00	2024-11-08T12:00:00	5	Humedad	51
114069	7	Sololá	713	San Lucas Tolimán	10	San Lucas Tolimán	3	Marzo	2023-03-24T00:00:00	2024-11-08T12:00:00	6	Velocidad del viento	9.7
114070	7	Sololá	713	San Lucas Tolimán	10	San Lucas Tolimán	3	Marzo	2023-03-24T00:00:00	2024-11-08T12:00:00	7	Dirección del viento	9.66
114071	7	Sololá	713	San Lucas Tolimán	10	San Lucas Tolimán	3	Marzo	2023-03-24T00:00:00	2024-11-08T12:00:00	1	Precipitación	0
114072	7	Sololá	713	San Lucas Tolimán	10	San Lucas Tolimán	3	Marzo	2023-03-24T00:00:00	2024-11-08T12:00:00	8	Radiación solar	1119
114073	7	Sololá	713	San Lucas Tolimán	10	San Lucas Tolimán	3	Marzo	2023-03-24T00:00:00	2024-11-08T13:00:00	2	Temperatura media	22.6
114074	7	Sololá	713	San Lucas Tolimán	10	San Lucas Tolimán	3	Marzo	2023-03-24T00:00:00	2024-11-08T13:00:00	4	Temperatura máxima	23.2
114075	7	Sololá	713	San Lucas Tolimán	10	San Lucas Tolimán	3	Marzo	2023-03-24T00:00:00	2024-11-08T13:00:00	3	Temperatura mínima	22.2
114076	7	Sololá	713	San Lucas Tolimán	10	San Lucas Tolimán	3	Marzo	2023-03-24T00:00:00	2024-11-08T13:00:00	5	Humedad	57
114077	7	Sololá	713	San Lucas Tolimán	10	San Lucas Tolimán	3	Marzo	2023-03-24T00:00:00	2024-11-08T13:00:00	6	Velocidad del viento	11.3
114078	7	Sololá	713	San Lucas Tolimán	10	San Lucas Tolimán	3	Marzo	2023-03-24T00:00:00	2024-11-08T13:00:00	7	Dirección del viento	11.27
114079	7	Sololá	713	San Lucas Tolimán	10	San Lucas Tolimán	3	Marzo	2023-03-24T00:00:00	2024-11-08T13:00:00	1	Precipitación	0
114080	7	Sololá	713	San Lucas Tolimán	10	San Lucas Tolimán	3	Marzo	2023-03-24T00:00:00	2024-11-08T13:00:00	8	Radiación solar	1103
114081	7	Sololá	713	San Lucas Tolimán	10	San Lucas Tolimán	3	Marzo	2023-03-24T00:00:00	2024-11-08T14:00:00	2	Temperatura media	23.2
114082	7	Sololá	713	San Lucas Tolimán	10	San Lucas Tolimán	3	Marzo	2023-03-24T00:00:00	2024-11-08T14:00:00	4	Temperatura máxima	23.3
114083	7	Sololá	713	San Lucas Tolimán	10	San Lucas Tolimán	3	Marzo	2023-03-24T00:00:00	2024-11-08T14:00:00	3	Temperatura mínima	22.7
114084	7	Sololá	713	San Lucas Tolimán	10	San Lucas Tolimán	3	Marzo	2023-03-24T00:00:00	2024-11-08T14:00:00	5	Humedad	55
114085	7	Sololá	713	San Lucas Tolimán	10	San Lucas Tolimán	3	Marzo	2023-03-24T00:00:00	2024-11-08T14:00:00	6	Velocidad del viento	9.7
114086	7	Sololá	713	San Lucas Tolimán	10	San Lucas Tolimán	3	Marzo	2023-03-24T00:00:00	2024-11-08T14:00:00	7	Dirección del viento	9.66
114087	7	Sololá	713	San Lucas Tolimán	10	San Lucas Tolimán	3	Marzo	2023-03-24T00:00:00	2024-11-08T14:00:00	1	Precipitación	0
114088	7	Sololá	713	San Lucas Tolimán	10	San Lucas Tolimán	3	Marzo	2023-03-24T00:00:00	2024-11-08T14:00:00	8	Radiación solar	1090
114089	7	Sololá	713	San Lucas Tolimán	10	San Lucas Tolimán	3	Marzo	2023-03-24T00:00:00	2024-11-08T15:00:00	2	Temperatura media	23.1
114090	7	Sololá	713	San Lucas Tolimán	10	San Lucas Tolimán	3	Marzo	2023-03-24T00:00:00	2024-11-08T15:00:00	4	Temperatura máxima	23.9
114091	7	Sololá	713	San Lucas Tolimán	10	San Lucas Tolimán	3	Marzo	2023-03-24T00:00:00	2024-11-08T15:00:00	3	Temperatura mínima	22.8
114092	7	Sololá	713	San Lucas Tolimán	10	San Lucas Tolimán	3	Marzo	2023-03-24T00:00:00	2024-11-08T15:00:00	5	Humedad	56
114093	7	Sololá	713	San Lucas Tolimán	10	San Lucas Tolimán	3	Marzo	2023-03-24T00:00:00	2024-11-08T15:00:00	6	Velocidad del viento	9.7
114094	7	Sololá	713	San Lucas Tolimán	10	San Lucas Tolimán	3	Marzo	2023-03-24T00:00:00	2024-11-08T15:00:00	7	Dirección del viento	9.66
114095	7	Sololá	713	San Lucas Tolimán	10	San Lucas Tolimán	3	Marzo	2023-03-24T00:00:00	2024-11-08T15:00:00	1	Precipitación	0
114096	7	Sololá	713	San Lucas Tolimán	10	San Lucas Tolimán	3	Marzo	2023-03-24T00:00:00	2024-11-08T15:00:00	8	Radiación solar	884
114097	7	Sololá	713	San Lucas Tolimán	10	San Lucas Tolimán	3	Marzo	2023-03-24T00:00:00	2024-11-08T16:00:00	2	Temperatura media	23.1
114098	7	Sololá	713	San Lucas Tolimán	10	San Lucas Tolimán	3	Marzo	2023-03-24T00:00:00	2024-11-08T16:00:00	4	Temperatura máxima	24.2
114099	7	Sololá	713	San Lucas Tolimán	10	San Lucas Tolimán	3	Marzo	2023-03-24T00:00:00	2024-11-08T16:00:00	3	Temperatura mínima	23
114100	7	Sololá	713	San Lucas Tolimán	10	San Lucas Tolimán	3	Marzo	2023-03-24T00:00:00	2024-11-08T16:00:00	5	Humedad	58
114101	7	Sololá	713	San Lucas Tolimán	10	San Lucas Tolimán	3	Marzo	2023-03-24T00:00:00	2024-11-08T16:00:00	6	Velocidad del viento	8
114102	7	Sololá	713	San Lucas Tolimán	10	San Lucas Tolimán	3	Marzo	2023-03-24T00:00:00	2024-11-08T16:00:00	7	Dirección del viento	8.05
114103	7	Sololá	713	San Lucas Tolimán	10	San Lucas Tolimán	3	Marzo	2023-03-24T00:00:00	2024-11-08T16:00:00	1	Precipitación	0
114104	7	Sololá	713	San Lucas Tolimán	10	San Lucas Tolimán	3	Marzo	2023-03-24T00:00:00	2024-11-08T16:00:00	8	Radiación solar	687
114105	7	Sololá	713	San Lucas Tolimán	10	San Lucas Tolimán	3	Marzo	2023-03-24T00:00:00	2024-11-08T17:00:00	2	Temperatura media	19.1
114106	7	Sololá	713	San Lucas Tolimán	10	San Lucas Tolimán	3	Marzo	2023-03-24T00:00:00	2024-11-08T17:00:00	4	Temperatura máxima	23.1
114107	7	Sololá	713	San Lucas Tolimán	10	San Lucas Tolimán	3	Marzo	2023-03-24T00:00:00	2024-11-08T17:00:00	3	Temperatura mínima	19.1
114108	7	Sololá	713	San Lucas Tolimán	10	San Lucas Tolimán	3	Marzo	2023-03-24T00:00:00	2024-11-08T17:00:00	5	Humedad	62
114109	7	Sololá	713	San Lucas Tolimán	10	San Lucas Tolimán	3	Marzo	2023-03-24T00:00:00	2024-11-08T17:00:00	6	Velocidad del viento	9.7
114110	7	Sololá	713	San Lucas Tolimán	10	San Lucas Tolimán	3	Marzo	2023-03-24T00:00:00	2024-11-08T17:00:00	7	Dirección del viento	9.66
114111	7	Sololá	713	San Lucas Tolimán	10	San Lucas Tolimán	3	Marzo	2023-03-24T00:00:00	2024-11-08T17:00:00	1	Precipitación	0
114112	7	Sololá	713	San Lucas Tolimán	10	San Lucas Tolimán	3	Marzo	2023-03-24T00:00:00	2024-11-08T17:00:00	8	Radiación solar	139
114113	7	Sololá	713	San Lucas Tolimán	10	San Lucas Tolimán	3	Marzo	2023-03-24T00:00:00	2024-11-08T18:00:00	2	Temperatura media	18.9
114114	7	Sololá	713	San Lucas Tolimán	10	San Lucas Tolimán	3	Marzo	2023-03-24T00:00:00	2024-11-08T18:00:00	4	Temperatura máxima	19.1
114115	7	Sololá	713	San Lucas Tolimán	10	San Lucas Tolimán	3	Marzo	2023-03-24T00:00:00	2024-11-08T18:00:00	3	Temperatura mínima	18.8
114116	7	Sololá	713	San Lucas Tolimán	10	San Lucas Tolimán	3	Marzo	2023-03-24T00:00:00	2024-11-08T18:00:00	5	Humedad	61
114117	7	Sololá	713	San Lucas Tolimán	10	San Lucas Tolimán	3	Marzo	2023-03-24T00:00:00	2024-11-08T18:00:00	6	Velocidad del viento	6.4
114118	7	Sololá	713	San Lucas Tolimán	10	San Lucas Tolimán	3	Marzo	2023-03-24T00:00:00	2024-11-08T18:00:00	7	Dirección del viento	6.44
114119	7	Sololá	713	San Lucas Tolimán	10	San Lucas Tolimán	3	Marzo	2023-03-24T00:00:00	2024-11-08T18:00:00	1	Precipitación	0
114120	7	Sololá	713	San Lucas Tolimán	10	San Lucas Tolimán	3	Marzo	2023-03-24T00:00:00	2024-11-08T18:00:00	8	Radiación solar	31
114121	7	Sololá	713	San Lucas Tolimán	10	San Lucas Tolimán	3	Marzo	2023-03-24T00:00:00	2024-11-08T19:00:00	2	Temperatura media	17.9
114122	7	Sololá	713	San Lucas Tolimán	10	San Lucas Tolimán	3	Marzo	2023-03-24T00:00:00	2024-11-08T19:00:00	4	Temperatura máxima	18.9
114123	7	Sololá	713	San Lucas Tolimán	10	San Lucas Tolimán	3	Marzo	2023-03-24T00:00:00	2024-11-08T19:00:00	3	Temperatura mínima	17.9
114124	7	Sololá	713	San Lucas Tolimán	10	San Lucas Tolimán	3	Marzo	2023-03-24T00:00:00	2024-11-08T19:00:00	5	Humedad	66
114125	7	Sololá	713	San Lucas Tolimán	10	San Lucas Tolimán	3	Marzo	2023-03-24T00:00:00	2024-11-08T19:00:00	6	Velocidad del viento	6.4
114126	7	Sololá	713	San Lucas Tolimán	10	San Lucas Tolimán	3	Marzo	2023-03-24T00:00:00	2024-11-08T19:00:00	7	Dirección del viento	6.44
114127	7	Sololá	713	San Lucas Tolimán	10	San Lucas Tolimán	3	Marzo	2023-03-24T00:00:00	2024-11-08T19:00:00	1	Precipitación	0
114128	7	Sololá	713	San Lucas Tolimán	10	San Lucas Tolimán	3	Marzo	2023-03-24T00:00:00	2024-11-08T19:00:00	8	Radiación solar	0
114129	7	Sololá	713	San Lucas Tolimán	10	San Lucas Tolimán	3	Marzo	2023-03-24T00:00:00	2024-11-08T20:00:00	2	Temperatura media	17.8
114130	7	Sololá	713	San Lucas Tolimán	10	San Lucas Tolimán	3	Marzo	2023-03-24T00:00:00	2024-11-08T20:00:00	4	Temperatura máxima	17.8
114131	7	Sololá	713	San Lucas Tolimán	10	San Lucas Tolimán	3	Marzo	2023-03-24T00:00:00	2024-11-08T20:00:00	3	Temperatura mínima	17.7
114132	7	Sololá	713	San Lucas Tolimán	10	San Lucas Tolimán	3	Marzo	2023-03-24T00:00:00	2024-11-08T20:00:00	5	Humedad	69
114133	7	Sololá	713	San Lucas Tolimán	10	San Lucas Tolimán	3	Marzo	2023-03-24T00:00:00	2024-11-08T20:00:00	6	Velocidad del viento	4.8
114134	7	Sololá	713	San Lucas Tolimán	10	San Lucas Tolimán	3	Marzo	2023-03-24T00:00:00	2024-11-08T20:00:00	7	Dirección del viento	4.83
114135	7	Sololá	713	San Lucas Tolimán	10	San Lucas Tolimán	3	Marzo	2023-03-24T00:00:00	2024-11-08T20:00:00	1	Precipitación	0
114136	7	Sololá	713	San Lucas Tolimán	10	San Lucas Tolimán	3	Marzo	2023-03-24T00:00:00	2024-11-08T20:00:00	8	Radiación solar	0
114137	7	Sololá	713	San Lucas Tolimán	10	San Lucas Tolimán	3	Marzo	2023-03-24T00:00:00	2024-11-08T21:00:00	2	Temperatura media	17.7
114138	7	Sololá	713	San Lucas Tolimán	10	San Lucas Tolimán	3	Marzo	2023-03-24T00:00:00	2024-11-08T21:00:00	4	Temperatura máxima	17.8
114139	7	Sololá	713	San Lucas Tolimán	10	San Lucas Tolimán	3	Marzo	2023-03-24T00:00:00	2024-11-08T21:00:00	3	Temperatura mínima	17.6
114140	7	Sololá	713	San Lucas Tolimán	10	San Lucas Tolimán	3	Marzo	2023-03-24T00:00:00	2024-11-08T21:00:00	5	Humedad	65
114141	7	Sololá	713	San Lucas Tolimán	10	San Lucas Tolimán	3	Marzo	2023-03-24T00:00:00	2024-11-08T21:00:00	6	Velocidad del viento	4.8
114142	7	Sololá	713	San Lucas Tolimán	10	San Lucas Tolimán	3	Marzo	2023-03-24T00:00:00	2024-11-08T21:00:00	7	Dirección del viento	4.83
114143	7	Sololá	713	San Lucas Tolimán	10	San Lucas Tolimán	3	Marzo	2023-03-24T00:00:00	2024-11-08T21:00:00	1	Precipitación	0
114144	7	Sololá	713	San Lucas Tolimán	10	San Lucas Tolimán	3	Marzo	2023-03-24T00:00:00	2024-11-08T21:00:00	8	Radiación solar	0
114145	7	Sololá	713	San Lucas Tolimán	10	San Lucas Tolimán	3	Marzo	2023-03-24T00:00:00	2024-11-08T22:00:00	2	Temperatura media	16.8
114146	7	Sololá	713	San Lucas Tolimán	10	San Lucas Tolimán	3	Marzo	2023-03-24T00:00:00	2024-11-08T22:00:00	4	Temperatura máxima	17.7
114147	7	Sololá	713	San Lucas Tolimán	10	San Lucas Tolimán	3	Marzo	2023-03-24T00:00:00	2024-11-08T22:00:00	3	Temperatura mínima	16.8
114148	7	Sololá	713	San Lucas Tolimán	10	San Lucas Tolimán	3	Marzo	2023-03-24T00:00:00	2024-11-08T22:00:00	5	Humedad	61
114149	7	Sololá	713	San Lucas Tolimán	10	San Lucas Tolimán	3	Marzo	2023-03-24T00:00:00	2024-11-08T22:00:00	6	Velocidad del viento	3.2
114150	7	Sololá	713	San Lucas Tolimán	10	San Lucas Tolimán	3	Marzo	2023-03-24T00:00:00	2024-11-08T22:00:00	7	Dirección del viento	3.22
114151	7	Sololá	713	San Lucas Tolimán	10	San Lucas Tolimán	3	Marzo	2023-03-24T00:00:00	2024-11-08T22:00:00	1	Precipitación	0
114152	7	Sololá	713	San Lucas Tolimán	10	San Lucas Tolimán	3	Marzo	2023-03-24T00:00:00	2024-11-08T22:00:00	8	Radiación solar	0
114153	7	Sololá	713	San Lucas Tolimán	10	San Lucas Tolimán	3	Marzo	2023-03-24T00:00:00	2024-11-08T23:00:00	2	Temperatura media	16.8
114154	7	Sololá	713	San Lucas Tolimán	10	San Lucas Tolimán	3	Marzo	2023-03-24T00:00:00	2024-11-08T23:00:00	4	Temperatura máxima	16.9
114155	7	Sololá	713	San Lucas Tolimán	10	San Lucas Tolimán	3	Marzo	2023-03-24T00:00:00	2024-11-08T23:00:00	3	Temperatura mínima	16.6
114156	7	Sololá	713	San Lucas Tolimán	10	San Lucas Tolimán	3	Marzo	2023-03-24T00:00:00	2024-11-08T23:00:00	5	Humedad	58
114157	7	Sololá	713	San Lucas Tolimán	10	San Lucas Tolimán	3	Marzo	2023-03-24T00:00:00	2024-11-08T23:00:00	6	Velocidad del viento	3.2
114158	7	Sololá	713	San Lucas Tolimán	10	San Lucas Tolimán	3	Marzo	2023-03-24T00:00:00	2024-11-08T23:00:00	7	Dirección del viento	3.22
114159	7	Sololá	713	San Lucas Tolimán	10	San Lucas Tolimán	3	Marzo	2023-03-24T00:00:00	2024-11-08T23:00:00	1	Precipitación	0
114160	7	Sololá	713	San Lucas Tolimán	10	San Lucas Tolimán	3	Marzo	2023-03-24T00:00:00	2024-11-08T23:00:00	8	Radiación solar	0
114161	7	Sololá	713	San Lucas Tolimán	10	San Lucas Tolimán	3	Marzo	2023-03-25T00:00:00	2024-11-08T00:00:00	2	Temperatura media	16.5
114162	7	Sololá	713	San Lucas Tolimán	10	San Lucas Tolimán	3	Marzo	2023-03-25T00:00:00	2024-11-08T00:00:00	4	Temperatura máxima	16.8
114163	7	Sololá	713	San Lucas Tolimán	10	San Lucas Tolimán	3	Marzo	2023-03-25T00:00:00	2024-11-08T00:00:00	3	Temperatura mínima	16.3
114164	7	Sololá	713	San Lucas Tolimán	10	San Lucas Tolimán	3	Marzo	2023-03-25T00:00:00	2024-11-08T00:00:00	5	Humedad	59
114165	7	Sololá	713	San Lucas Tolimán	10	San Lucas Tolimán	3	Marzo	2023-03-25T00:00:00	2024-11-08T00:00:00	6	Velocidad del viento	3.2
114166	7	Sololá	713	San Lucas Tolimán	10	San Lucas Tolimán	3	Marzo	2023-03-25T00:00:00	2024-11-08T00:00:00	7	Dirección del viento	3.22
114167	7	Sololá	713	San Lucas Tolimán	10	San Lucas Tolimán	3	Marzo	2023-03-25T00:00:00	2024-11-08T00:00:00	1	Precipitación	0
114168	7	Sololá	713	San Lucas Tolimán	10	San Lucas Tolimán	3	Marzo	2023-03-25T00:00:00	2024-11-08T00:00:00	8	Radiación solar	0
114169	7	Sololá	713	San Lucas Tolimán	10	San Lucas Tolimán	3	Marzo	2023-03-25T00:00:00	2024-11-08T01:00:00	2	Temperatura media	17.1
114170	7	Sololá	713	San Lucas Tolimán	10	San Lucas Tolimán	3	Marzo	2023-03-25T00:00:00	2024-11-08T01:00:00	4	Temperatura máxima	17.3
114171	7	Sololá	713	San Lucas Tolimán	10	San Lucas Tolimán	3	Marzo	2023-03-25T00:00:00	2024-11-08T01:00:00	3	Temperatura mínima	16.5
114172	7	Sololá	713	San Lucas Tolimán	10	San Lucas Tolimán	3	Marzo	2023-03-25T00:00:00	2024-11-08T01:00:00	5	Humedad	64
114173	7	Sololá	713	San Lucas Tolimán	10	San Lucas Tolimán	3	Marzo	2023-03-25T00:00:00	2024-11-08T01:00:00	6	Velocidad del viento	4.8
114174	7	Sololá	713	San Lucas Tolimán	10	San Lucas Tolimán	3	Marzo	2023-03-25T00:00:00	2024-11-08T01:00:00	7	Dirección del viento	4.83
114175	7	Sololá	713	San Lucas Tolimán	10	San Lucas Tolimán	3	Marzo	2023-03-25T00:00:00	2024-11-08T01:00:00	1	Precipitación	0
114176	7	Sololá	713	San Lucas Tolimán	10	San Lucas Tolimán	3	Marzo	2023-03-25T00:00:00	2024-11-08T01:00:00	8	Radiación solar	0
114177	7	Sololá	713	San Lucas Tolimán	10	San Lucas Tolimán	3	Marzo	2023-03-25T00:00:00	2024-11-08T02:00:00	2	Temperatura media	15.8
114178	7	Sololá	713	San Lucas Tolimán	10	San Lucas Tolimán	3	Marzo	2023-03-25T00:00:00	2024-11-08T02:00:00	4	Temperatura máxima	17.1
114179	7	Sololá	713	San Lucas Tolimán	10	San Lucas Tolimán	3	Marzo	2023-03-25T00:00:00	2024-11-08T02:00:00	3	Temperatura mínima	15.8
114180	7	Sololá	713	San Lucas Tolimán	10	San Lucas Tolimán	3	Marzo	2023-03-25T00:00:00	2024-11-08T02:00:00	5	Humedad	62
114181	7	Sololá	713	San Lucas Tolimán	10	San Lucas Tolimán	3	Marzo	2023-03-25T00:00:00	2024-11-08T02:00:00	6	Velocidad del viento	4.8
114182	7	Sololá	713	San Lucas Tolimán	10	San Lucas Tolimán	3	Marzo	2023-03-25T00:00:00	2024-11-08T02:00:00	7	Dirección del viento	4.83
114183	7	Sololá	713	San Lucas Tolimán	10	San Lucas Tolimán	3	Marzo	2023-03-25T00:00:00	2024-11-08T02:00:00	1	Precipitación	0
114184	7	Sololá	713	San Lucas Tolimán	10	San Lucas Tolimán	3	Marzo	2023-03-25T00:00:00	2024-11-08T02:00:00	8	Radiación solar	0
114185	7	Sololá	713	San Lucas Tolimán	10	San Lucas Tolimán	3	Marzo	2023-03-25T00:00:00	2024-11-08T03:00:00	2	Temperatura media	16.4
114186	7	Sololá	713	San Lucas Tolimán	10	San Lucas Tolimán	3	Marzo	2023-03-25T00:00:00	2024-11-08T03:00:00	4	Temperatura máxima	16.4
114187	7	Sololá	713	San Lucas Tolimán	10	San Lucas Tolimán	3	Marzo	2023-03-25T00:00:00	2024-11-08T03:00:00	3	Temperatura mínima	15.8
114188	7	Sololá	713	San Lucas Tolimán	10	San Lucas Tolimán	3	Marzo	2023-03-25T00:00:00	2024-11-08T03:00:00	5	Humedad	61
114189	7	Sololá	713	San Lucas Tolimán	10	San Lucas Tolimán	3	Marzo	2023-03-25T00:00:00	2024-11-08T03:00:00	6	Velocidad del viento	1.6
114190	7	Sololá	713	San Lucas Tolimán	10	San Lucas Tolimán	3	Marzo	2023-03-25T00:00:00	2024-11-08T03:00:00	7	Dirección del viento	1.61
114191	7	Sololá	713	San Lucas Tolimán	10	San Lucas Tolimán	3	Marzo	2023-03-25T00:00:00	2024-11-08T03:00:00	1	Precipitación	0
114192	7	Sololá	713	San Lucas Tolimán	10	San Lucas Tolimán	3	Marzo	2023-03-25T00:00:00	2024-11-08T03:00:00	8	Radiación solar	0
114193	7	Sololá	713	San Lucas Tolimán	10	San Lucas Tolimán	3	Marzo	2023-03-25T00:00:00	2024-11-08T04:00:00	2	Temperatura media	17.3
114194	7	Sololá	713	San Lucas Tolimán	10	San Lucas Tolimán	3	Marzo	2023-03-25T00:00:00	2024-11-08T04:00:00	4	Temperatura máxima	17.4
114195	7	Sololá	713	San Lucas Tolimán	10	San Lucas Tolimán	3	Marzo	2023-03-25T00:00:00	2024-11-08T04:00:00	3	Temperatura mínima	16.4
114196	7	Sololá	713	San Lucas Tolimán	10	San Lucas Tolimán	3	Marzo	2023-03-25T00:00:00	2024-11-08T04:00:00	5	Humedad	61
114197	7	Sololá	713	San Lucas Tolimán	10	San Lucas Tolimán	3	Marzo	2023-03-25T00:00:00	2024-11-08T04:00:00	6	Velocidad del viento	3.2
114198	7	Sololá	713	San Lucas Tolimán	10	San Lucas Tolimán	3	Marzo	2023-03-25T00:00:00	2024-11-08T04:00:00	7	Dirección del viento	3.22
114199	7	Sololá	713	San Lucas Tolimán	10	San Lucas Tolimán	3	Marzo	2023-03-25T00:00:00	2024-11-08T04:00:00	1	Precipitación	0
114200	7	Sololá	713	San Lucas Tolimán	10	San Lucas Tolimán	3	Marzo	2023-03-25T00:00:00	2024-11-08T04:00:00	8	Radiación solar	0
114201	7	Sololá	713	San Lucas Tolimán	10	San Lucas Tolimán	3	Marzo	2023-03-25T00:00:00	2024-11-08T05:00:00	2	Temperatura media	17.3
114202	7	Sololá	713	San Lucas Tolimán	10	San Lucas Tolimán	3	Marzo	2023-03-25T00:00:00	2024-11-08T05:00:00	4	Temperatura máxima	17.4
114203	7	Sololá	713	San Lucas Tolimán	10	San Lucas Tolimán	3	Marzo	2023-03-25T00:00:00	2024-11-08T05:00:00	3	Temperatura mínima	17.2
114204	7	Sololá	713	San Lucas Tolimán	10	San Lucas Tolimán	3	Marzo	2023-03-25T00:00:00	2024-11-08T05:00:00	5	Humedad	60
114205	7	Sololá	713	San Lucas Tolimán	10	San Lucas Tolimán	3	Marzo	2023-03-25T00:00:00	2024-11-08T05:00:00	6	Velocidad del viento	3.2
114206	7	Sololá	713	San Lucas Tolimán	10	San Lucas Tolimán	3	Marzo	2023-03-25T00:00:00	2024-11-08T05:00:00	7	Dirección del viento	3.22
114207	7	Sololá	713	San Lucas Tolimán	10	San Lucas Tolimán	3	Marzo	2023-03-25T00:00:00	2024-11-08T05:00:00	1	Precipitación	0
114208	7	Sololá	713	San Lucas Tolimán	10	San Lucas Tolimán	3	Marzo	2023-03-25T00:00:00	2024-11-08T05:00:00	8	Radiación solar	0
114209	7	Sololá	713	San Lucas Tolimán	10	San Lucas Tolimán	3	Marzo	2023-03-25T00:00:00	2024-11-08T06:00:00	2	Temperatura media	16.9
114210	7	Sololá	713	San Lucas Tolimán	10	San Lucas Tolimán	3	Marzo	2023-03-25T00:00:00	2024-11-08T06:00:00	4	Temperatura máxima	17.4
114211	7	Sololá	713	San Lucas Tolimán	10	San Lucas Tolimán	3	Marzo	2023-03-25T00:00:00	2024-11-08T06:00:00	3	Temperatura mínima	16.9
114212	7	Sololá	713	San Lucas Tolimán	10	San Lucas Tolimán	3	Marzo	2023-03-25T00:00:00	2024-11-08T06:00:00	5	Humedad	63
114213	7	Sololá	713	San Lucas Tolimán	10	San Lucas Tolimán	3	Marzo	2023-03-25T00:00:00	2024-11-08T06:00:00	6	Velocidad del viento	3.2
114214	7	Sololá	713	San Lucas Tolimán	10	San Lucas Tolimán	3	Marzo	2023-03-25T00:00:00	2024-11-08T06:00:00	7	Dirección del viento	3.22
114215	7	Sololá	713	San Lucas Tolimán	10	San Lucas Tolimán	3	Marzo	2023-03-25T00:00:00	2024-11-08T06:00:00	1	Precipitación	0
114216	7	Sololá	713	San Lucas Tolimán	10	San Lucas Tolimán	3	Marzo	2023-03-25T00:00:00	2024-11-08T06:00:00	8	Radiación solar	0
114217	7	Sololá	713	San Lucas Tolimán	10	San Lucas Tolimán	3	Marzo	2023-03-25T00:00:00	2024-11-08T07:00:00	2	Temperatura media	17.1
114218	7	Sololá	713	San Lucas Tolimán	10	San Lucas Tolimán	3	Marzo	2023-03-25T00:00:00	2024-11-08T07:00:00	4	Temperatura máxima	17.1
114219	7	Sololá	713	San Lucas Tolimán	10	San Lucas Tolimán	3	Marzo	2023-03-25T00:00:00	2024-11-08T07:00:00	3	Temperatura mínima	16.7
114220	7	Sololá	713	San Lucas Tolimán	10	San Lucas Tolimán	3	Marzo	2023-03-25T00:00:00	2024-11-08T07:00:00	5	Humedad	62
114221	7	Sololá	713	San Lucas Tolimán	10	San Lucas Tolimán	3	Marzo	2023-03-25T00:00:00	2024-11-08T07:00:00	6	Velocidad del viento	0
114222	7	Sololá	713	San Lucas Tolimán	10	San Lucas Tolimán	3	Marzo	2023-03-25T00:00:00	2024-11-08T07:00:00	7	Dirección del viento	0
114223	7	Sololá	713	San Lucas Tolimán	10	San Lucas Tolimán	3	Marzo	2023-03-25T00:00:00	2024-11-08T07:00:00	1	Precipitación	0
114224	7	Sololá	713	San Lucas Tolimán	10	San Lucas Tolimán	3	Marzo	2023-03-25T00:00:00	2024-11-08T07:00:00	8	Radiación solar	33
114225	7	Sololá	713	San Lucas Tolimán	10	San Lucas Tolimán	3	Marzo	2023-03-25T00:00:00	2024-11-08T08:00:00	2	Temperatura media	18.4
114226	7	Sololá	713	San Lucas Tolimán	10	San Lucas Tolimán	3	Marzo	2023-03-25T00:00:00	2024-11-08T08:00:00	4	Temperatura máxima	18.4
114227	7	Sololá	713	San Lucas Tolimán	10	San Lucas Tolimán	3	Marzo	2023-03-25T00:00:00	2024-11-08T08:00:00	3	Temperatura mínima	17.1
114228	7	Sololá	713	San Lucas Tolimán	10	San Lucas Tolimán	3	Marzo	2023-03-25T00:00:00	2024-11-08T08:00:00	5	Humedad	59
114229	7	Sololá	713	San Lucas Tolimán	10	San Lucas Tolimán	3	Marzo	2023-03-25T00:00:00	2024-11-08T08:00:00	6	Velocidad del viento	3.2
114230	7	Sololá	713	San Lucas Tolimán	10	San Lucas Tolimán	3	Marzo	2023-03-25T00:00:00	2024-11-08T08:00:00	7	Dirección del viento	3.22
114231	7	Sololá	713	San Lucas Tolimán	10	San Lucas Tolimán	3	Marzo	2023-03-25T00:00:00	2024-11-08T08:00:00	1	Precipitación	0
114232	7	Sololá	713	San Lucas Tolimán	10	San Lucas Tolimán	3	Marzo	2023-03-25T00:00:00	2024-11-08T08:00:00	8	Radiación solar	149
114233	7	Sololá	713	San Lucas Tolimán	10	San Lucas Tolimán	3	Marzo	2023-03-25T00:00:00	2024-11-08T09:00:00	2	Temperatura media	19.2
114234	7	Sololá	713	San Lucas Tolimán	10	San Lucas Tolimán	3	Marzo	2023-03-25T00:00:00	2024-11-08T09:00:00	4	Temperatura máxima	19.2
114235	7	Sololá	713	San Lucas Tolimán	10	San Lucas Tolimán	3	Marzo	2023-03-25T00:00:00	2024-11-08T09:00:00	3	Temperatura mínima	18.3
114236	7	Sololá	713	San Lucas Tolimán	10	San Lucas Tolimán	3	Marzo	2023-03-25T00:00:00	2024-11-08T09:00:00	5	Humedad	59
114237	7	Sololá	713	San Lucas Tolimán	10	San Lucas Tolimán	3	Marzo	2023-03-25T00:00:00	2024-11-08T09:00:00	6	Velocidad del viento	4.8
114238	7	Sololá	713	San Lucas Tolimán	10	San Lucas Tolimán	3	Marzo	2023-03-25T00:00:00	2024-11-08T09:00:00	7	Dirección del viento	4.83
114239	7	Sololá	713	San Lucas Tolimán	10	San Lucas Tolimán	3	Marzo	2023-03-25T00:00:00	2024-11-08T09:00:00	1	Precipitación	0
114240	7	Sololá	713	San Lucas Tolimán	10	San Lucas Tolimán	3	Marzo	2023-03-25T00:00:00	2024-11-08T09:00:00	8	Radiación solar	270
114241	7	Sololá	713	San Lucas Tolimán	10	San Lucas Tolimán	3	Marzo	2023-03-25T00:00:00	2024-11-08T10:00:00	2	Temperatura media	20.6
114242	7	Sololá	713	San Lucas Tolimán	10	San Lucas Tolimán	3	Marzo	2023-03-25T00:00:00	2024-11-08T10:00:00	4	Temperatura máxima	20.7
114243	7	Sololá	713	San Lucas Tolimán	10	San Lucas Tolimán	3	Marzo	2023-03-25T00:00:00	2024-11-08T10:00:00	3	Temperatura mínima	19.1
114244	7	Sololá	713	San Lucas Tolimán	10	San Lucas Tolimán	3	Marzo	2023-03-25T00:00:00	2024-11-08T10:00:00	5	Humedad	59
114245	7	Sololá	713	San Lucas Tolimán	10	San Lucas Tolimán	3	Marzo	2023-03-25T00:00:00	2024-11-08T10:00:00	6	Velocidad del viento	8
114246	7	Sololá	713	San Lucas Tolimán	10	San Lucas Tolimán	3	Marzo	2023-03-25T00:00:00	2024-11-08T10:00:00	7	Dirección del viento	8.05
114247	7	Sololá	713	San Lucas Tolimán	10	San Lucas Tolimán	3	Marzo	2023-03-25T00:00:00	2024-11-08T10:00:00	1	Precipitación	0
114248	7	Sololá	713	San Lucas Tolimán	10	San Lucas Tolimán	3	Marzo	2023-03-25T00:00:00	2024-11-08T10:00:00	8	Radiación solar	530
114249	7	Sololá	713	San Lucas Tolimán	10	San Lucas Tolimán	3	Marzo	2023-03-25T00:00:00	2024-11-08T11:00:00	2	Temperatura media	22.1
114250	7	Sololá	713	San Lucas Tolimán	10	San Lucas Tolimán	3	Marzo	2023-03-25T00:00:00	2024-11-08T11:00:00	4	Temperatura máxima	22.2
114251	7	Sololá	713	San Lucas Tolimán	10	San Lucas Tolimán	3	Marzo	2023-03-25T00:00:00	2024-11-08T11:00:00	3	Temperatura mínima	20.4
114252	7	Sololá	713	San Lucas Tolimán	10	San Lucas Tolimán	3	Marzo	2023-03-25T00:00:00	2024-11-08T11:00:00	5	Humedad	54
114253	7	Sololá	713	San Lucas Tolimán	10	San Lucas Tolimán	3	Marzo	2023-03-25T00:00:00	2024-11-08T11:00:00	6	Velocidad del viento	9.7
114254	7	Sololá	713	San Lucas Tolimán	10	San Lucas Tolimán	3	Marzo	2023-03-25T00:00:00	2024-11-08T11:00:00	7	Dirección del viento	9.66
114255	7	Sololá	713	San Lucas Tolimán	10	San Lucas Tolimán	3	Marzo	2023-03-25T00:00:00	2024-11-08T11:00:00	1	Precipitación	0
114256	7	Sololá	713	San Lucas Tolimán	10	San Lucas Tolimán	3	Marzo	2023-03-25T00:00:00	2024-11-08T11:00:00	8	Radiación solar	1033
114257	7	Sololá	713	San Lucas Tolimán	10	San Lucas Tolimán	3	Marzo	2023-03-25T00:00:00	2024-11-08T12:00:00	2	Temperatura media	22.6
114258	7	Sololá	713	San Lucas Tolimán	10	San Lucas Tolimán	3	Marzo	2023-03-25T00:00:00	2024-11-08T12:00:00	4	Temperatura máxima	22.9
114259	7	Sololá	713	San Lucas Tolimán	10	San Lucas Tolimán	3	Marzo	2023-03-25T00:00:00	2024-11-08T12:00:00	3	Temperatura mínima	21.4
114260	7	Sololá	713	San Lucas Tolimán	10	San Lucas Tolimán	3	Marzo	2023-03-25T00:00:00	2024-11-08T12:00:00	5	Humedad	54
114261	7	Sololá	713	San Lucas Tolimán	10	San Lucas Tolimán	3	Marzo	2023-03-25T00:00:00	2024-11-08T12:00:00	6	Velocidad del viento	9.7
114262	7	Sololá	713	San Lucas Tolimán	10	San Lucas Tolimán	3	Marzo	2023-03-25T00:00:00	2024-11-08T12:00:00	7	Dirección del viento	9.66
114263	7	Sololá	713	San Lucas Tolimán	10	San Lucas Tolimán	3	Marzo	2023-03-25T00:00:00	2024-11-08T12:00:00	1	Precipitación	0
114264	7	Sololá	713	San Lucas Tolimán	10	San Lucas Tolimán	3	Marzo	2023-03-25T00:00:00	2024-11-08T12:00:00	8	Radiación solar	1067
114265	7	Sololá	713	San Lucas Tolimán	10	San Lucas Tolimán	3	Marzo	2023-03-25T00:00:00	2024-11-08T13:00:00	2	Temperatura media	23.3
114266	7	Sololá	713	San Lucas Tolimán	10	San Lucas Tolimán	3	Marzo	2023-03-25T00:00:00	2024-11-08T13:00:00	4	Temperatura máxima	23.3
114267	7	Sololá	713	San Lucas Tolimán	10	San Lucas Tolimán	3	Marzo	2023-03-25T00:00:00	2024-11-08T13:00:00	3	Temperatura mínima	21.9
114268	7	Sololá	713	San Lucas Tolimán	10	San Lucas Tolimán	3	Marzo	2023-03-25T00:00:00	2024-11-08T13:00:00	5	Humedad	53
114269	7	Sololá	713	San Lucas Tolimán	10	San Lucas Tolimán	3	Marzo	2023-03-25T00:00:00	2024-11-08T13:00:00	6	Velocidad del viento	9.7
114270	7	Sololá	713	San Lucas Tolimán	10	San Lucas Tolimán	3	Marzo	2023-03-25T00:00:00	2024-11-08T13:00:00	7	Dirección del viento	9.66
114271	7	Sololá	713	San Lucas Tolimán	10	San Lucas Tolimán	3	Marzo	2023-03-25T00:00:00	2024-11-08T13:00:00	1	Precipitación	0
114272	7	Sololá	713	San Lucas Tolimán	10	San Lucas Tolimán	3	Marzo	2023-03-25T00:00:00	2024-11-08T13:00:00	8	Radiación solar	1137
114273	7	Sololá	713	San Lucas Tolimán	10	San Lucas Tolimán	3	Marzo	2023-03-25T00:00:00	2024-11-08T14:00:00	2	Temperatura media	21.4
114274	7	Sololá	713	San Lucas Tolimán	10	San Lucas Tolimán	3	Marzo	2023-03-25T00:00:00	2024-11-08T14:00:00	4	Temperatura máxima	23.3
114275	7	Sololá	713	San Lucas Tolimán	10	San Lucas Tolimán	3	Marzo	2023-03-25T00:00:00	2024-11-08T14:00:00	3	Temperatura mínima	21.4
114276	7	Sololá	713	San Lucas Tolimán	10	San Lucas Tolimán	3	Marzo	2023-03-25T00:00:00	2024-11-08T14:00:00	5	Humedad	59
114277	7	Sololá	713	San Lucas Tolimán	10	San Lucas Tolimán	3	Marzo	2023-03-25T00:00:00	2024-11-08T14:00:00	6	Velocidad del viento	11.3
114278	7	Sololá	713	San Lucas Tolimán	10	San Lucas Tolimán	3	Marzo	2023-03-25T00:00:00	2024-11-08T14:00:00	7	Dirección del viento	11.27
114279	7	Sololá	713	San Lucas Tolimán	10	San Lucas Tolimán	3	Marzo	2023-03-25T00:00:00	2024-11-08T14:00:00	1	Precipitación	0
114280	7	Sololá	713	San Lucas Tolimán	10	San Lucas Tolimán	3	Marzo	2023-03-25T00:00:00	2024-11-08T14:00:00	8	Radiación solar	625
114281	7	Sololá	713	San Lucas Tolimán	10	San Lucas Tolimán	3	Marzo	2023-03-25T00:00:00	2024-11-08T15:00:00	2	Temperatura media	21.9
114282	7	Sololá	713	San Lucas Tolimán	10	San Lucas Tolimán	3	Marzo	2023-03-25T00:00:00	2024-11-08T15:00:00	4	Temperatura máxima	22.4
114283	7	Sololá	713	San Lucas Tolimán	10	San Lucas Tolimán	3	Marzo	2023-03-25T00:00:00	2024-11-08T15:00:00	3	Temperatura mínima	21.1
114284	7	Sololá	713	San Lucas Tolimán	10	San Lucas Tolimán	3	Marzo	2023-03-25T00:00:00	2024-11-08T15:00:00	5	Humedad	57
114285	7	Sololá	713	San Lucas Tolimán	10	San Lucas Tolimán	3	Marzo	2023-03-25T00:00:00	2024-11-08T15:00:00	6	Velocidad del viento	9.7
114286	7	Sololá	713	San Lucas Tolimán	10	San Lucas Tolimán	3	Marzo	2023-03-25T00:00:00	2024-11-08T15:00:00	7	Dirección del viento	9.66
114287	7	Sololá	713	San Lucas Tolimán	10	San Lucas Tolimán	3	Marzo	2023-03-25T00:00:00	2024-11-08T15:00:00	1	Precipitación	0
114288	7	Sololá	713	San Lucas Tolimán	10	San Lucas Tolimán	3	Marzo	2023-03-25T00:00:00	2024-11-08T15:00:00	8	Radiación solar	574
114289	7	Sololá	713	San Lucas Tolimán	10	San Lucas Tolimán	3	Marzo	2023-03-25T00:00:00	2024-11-08T16:00:00	2	Temperatura media	20.9
114290	7	Sololá	713	San Lucas Tolimán	10	San Lucas Tolimán	3	Marzo	2023-03-25T00:00:00	2024-11-08T16:00:00	4	Temperatura máxima	22.2
114291	7	Sololá	713	San Lucas Tolimán	10	San Lucas Tolimán	3	Marzo	2023-03-25T00:00:00	2024-11-08T16:00:00	3	Temperatura mínima	20.3
114292	7	Sololá	713	San Lucas Tolimán	10	San Lucas Tolimán	3	Marzo	2023-03-25T00:00:00	2024-11-08T16:00:00	5	Humedad	61
114293	7	Sololá	713	San Lucas Tolimán	10	San Lucas Tolimán	3	Marzo	2023-03-25T00:00:00	2024-11-08T16:00:00	6	Velocidad del viento	8
114294	7	Sololá	713	San Lucas Tolimán	10	San Lucas Tolimán	3	Marzo	2023-03-25T00:00:00	2024-11-08T16:00:00	7	Dirección del viento	8.05
114295	7	Sololá	713	San Lucas Tolimán	10	San Lucas Tolimán	3	Marzo	2023-03-25T00:00:00	2024-11-08T16:00:00	1	Precipitación	0
114296	7	Sololá	713	San Lucas Tolimán	10	San Lucas Tolimán	3	Marzo	2023-03-25T00:00:00	2024-11-08T16:00:00	8	Radiación solar	381
114297	7	Sololá	713	San Lucas Tolimán	10	San Lucas Tolimán	3	Marzo	2023-03-25T00:00:00	2024-11-08T17:00:00	2	Temperatura media	20.1
114298	7	Sololá	713	San Lucas Tolimán	10	San Lucas Tolimán	3	Marzo	2023-03-25T00:00:00	2024-11-08T17:00:00	4	Temperatura máxima	21.2
114299	7	Sololá	713	San Lucas Tolimán	10	San Lucas Tolimán	3	Marzo	2023-03-25T00:00:00	2024-11-08T17:00:00	3	Temperatura mínima	20
114300	7	Sololá	713	San Lucas Tolimán	10	San Lucas Tolimán	3	Marzo	2023-03-25T00:00:00	2024-11-08T17:00:00	5	Humedad	65
114301	7	Sololá	713	San Lucas Tolimán	10	San Lucas Tolimán	3	Marzo	2023-03-25T00:00:00	2024-11-08T17:00:00	6	Velocidad del viento	8
114302	7	Sololá	713	San Lucas Tolimán	10	San Lucas Tolimán	3	Marzo	2023-03-25T00:00:00	2024-11-08T17:00:00	7	Dirección del viento	8.05
114303	7	Sololá	713	San Lucas Tolimán	10	San Lucas Tolimán	3	Marzo	2023-03-25T00:00:00	2024-11-08T17:00:00	1	Precipitación	0
114304	7	Sololá	713	San Lucas Tolimán	10	San Lucas Tolimán	3	Marzo	2023-03-25T00:00:00	2024-11-08T17:00:00	8	Radiación solar	219
114305	7	Sololá	713	San Lucas Tolimán	10	San Lucas Tolimán	3	Marzo	2023-03-25T00:00:00	2024-11-08T18:00:00	2	Temperatura media	19.1
114306	7	Sololá	713	San Lucas Tolimán	10	San Lucas Tolimán	3	Marzo	2023-03-25T00:00:00	2024-11-08T18:00:00	4	Temperatura máxima	20
114307	7	Sololá	713	San Lucas Tolimán	10	San Lucas Tolimán	3	Marzo	2023-03-25T00:00:00	2024-11-08T18:00:00	3	Temperatura mínima	19.1
114308	7	Sololá	713	San Lucas Tolimán	10	San Lucas Tolimán	3	Marzo	2023-03-25T00:00:00	2024-11-08T18:00:00	5	Humedad	64
114309	7	Sololá	713	San Lucas Tolimán	10	San Lucas Tolimán	3	Marzo	2023-03-25T00:00:00	2024-11-08T18:00:00	6	Velocidad del viento	4.8
114310	7	Sololá	713	San Lucas Tolimán	10	San Lucas Tolimán	3	Marzo	2023-03-25T00:00:00	2024-11-08T18:00:00	7	Dirección del viento	4.83
114311	7	Sololá	713	San Lucas Tolimán	10	San Lucas Tolimán	3	Marzo	2023-03-25T00:00:00	2024-11-08T18:00:00	1	Precipitación	0
114312	7	Sololá	713	San Lucas Tolimán	10	San Lucas Tolimán	3	Marzo	2023-03-25T00:00:00	2024-11-08T18:00:00	8	Radiación solar	47
114313	7	Sololá	713	San Lucas Tolimán	10	San Lucas Tolimán	3	Marzo	2023-03-25T00:00:00	2024-11-08T19:00:00	2	Temperatura media	18.7
114314	7	Sololá	713	San Lucas Tolimán	10	San Lucas Tolimán	3	Marzo	2023-03-25T00:00:00	2024-11-08T19:00:00	4	Temperatura máxima	19.1
114315	7	Sololá	713	San Lucas Tolimán	10	San Lucas Tolimán	3	Marzo	2023-03-25T00:00:00	2024-11-08T19:00:00	3	Temperatura mínima	18.7
114316	7	Sololá	713	San Lucas Tolimán	10	San Lucas Tolimán	3	Marzo	2023-03-25T00:00:00	2024-11-08T19:00:00	5	Humedad	63
114317	7	Sololá	713	San Lucas Tolimán	10	San Lucas Tolimán	3	Marzo	2023-03-25T00:00:00	2024-11-08T19:00:00	6	Velocidad del viento	3.2
114318	7	Sololá	713	San Lucas Tolimán	10	San Lucas Tolimán	3	Marzo	2023-03-25T00:00:00	2024-11-08T19:00:00	7	Dirección del viento	3.22
114319	7	Sololá	713	San Lucas Tolimán	10	San Lucas Tolimán	3	Marzo	2023-03-25T00:00:00	2024-11-08T19:00:00	1	Precipitación	0
114320	7	Sololá	713	San Lucas Tolimán	10	San Lucas Tolimán	3	Marzo	2023-03-25T00:00:00	2024-11-08T19:00:00	8	Radiación solar	0
114321	7	Sololá	713	San Lucas Tolimán	10	San Lucas Tolimán	3	Marzo	2023-03-25T00:00:00	2024-11-08T20:00:00	2	Temperatura media	17.7
114322	7	Sololá	713	San Lucas Tolimán	10	San Lucas Tolimán	3	Marzo	2023-03-25T00:00:00	2024-11-08T20:00:00	4	Temperatura máxima	18.7
114323	7	Sololá	713	San Lucas Tolimán	10	San Lucas Tolimán	3	Marzo	2023-03-25T00:00:00	2024-11-08T20:00:00	3	Temperatura mínima	17.7
114324	7	Sololá	713	San Lucas Tolimán	10	San Lucas Tolimán	3	Marzo	2023-03-25T00:00:00	2024-11-08T20:00:00	5	Humedad	69
114325	7	Sololá	713	San Lucas Tolimán	10	San Lucas Tolimán	3	Marzo	2023-03-25T00:00:00	2024-11-08T20:00:00	6	Velocidad del viento	4.8
114326	7	Sololá	713	San Lucas Tolimán	10	San Lucas Tolimán	3	Marzo	2023-03-25T00:00:00	2024-11-08T20:00:00	7	Dirección del viento	4.83
114327	7	Sololá	713	San Lucas Tolimán	10	San Lucas Tolimán	3	Marzo	2023-03-25T00:00:00	2024-11-08T20:00:00	1	Precipitación	1
114328	7	Sololá	713	San Lucas Tolimán	10	San Lucas Tolimán	3	Marzo	2023-03-25T00:00:00	2024-11-08T20:00:00	8	Radiación solar	0
114329	7	Sololá	713	San Lucas Tolimán	10	San Lucas Tolimán	3	Marzo	2023-03-25T00:00:00	2024-11-08T21:00:00	2	Temperatura media	17.4
114330	7	Sololá	713	San Lucas Tolimán	10	San Lucas Tolimán	3	Marzo	2023-03-25T00:00:00	2024-11-08T21:00:00	4	Temperatura máxima	17.7
114331	7	Sololá	713	San Lucas Tolimán	10	San Lucas Tolimán	3	Marzo	2023-03-25T00:00:00	2024-11-08T21:00:00	3	Temperatura mínima	17.3
114332	7	Sololá	713	San Lucas Tolimán	10	San Lucas Tolimán	3	Marzo	2023-03-25T00:00:00	2024-11-08T21:00:00	5	Humedad	71
114333	7	Sololá	713	San Lucas Tolimán	10	San Lucas Tolimán	3	Marzo	2023-03-25T00:00:00	2024-11-08T21:00:00	6	Velocidad del viento	4.8
114334	7	Sololá	713	San Lucas Tolimán	10	San Lucas Tolimán	3	Marzo	2023-03-25T00:00:00	2024-11-08T21:00:00	7	Dirección del viento	4.83
114335	7	Sololá	713	San Lucas Tolimán	10	San Lucas Tolimán	3	Marzo	2023-03-25T00:00:00	2024-11-08T21:00:00	1	Precipitación	0
114336	7	Sololá	713	San Lucas Tolimán	10	San Lucas Tolimán	3	Marzo	2023-03-25T00:00:00	2024-11-08T21:00:00	8	Radiación solar	0
114337	7	Sololá	713	San Lucas Tolimán	10	San Lucas Tolimán	3	Marzo	2023-03-25T00:00:00	2024-11-08T22:00:00	2	Temperatura media	17.1
114338	7	Sololá	713	San Lucas Tolimán	10	San Lucas Tolimán	3	Marzo	2023-03-25T00:00:00	2024-11-08T22:00:00	4	Temperatura máxima	17.4
114339	7	Sololá	713	San Lucas Tolimán	10	San Lucas Tolimán	3	Marzo	2023-03-25T00:00:00	2024-11-08T22:00:00	3	Temperatura mínima	16.9
114340	7	Sololá	713	San Lucas Tolimán	10	San Lucas Tolimán	3	Marzo	2023-03-25T00:00:00	2024-11-08T22:00:00	5	Humedad	70
114341	7	Sololá	713	San Lucas Tolimán	10	San Lucas Tolimán	3	Marzo	2023-03-25T00:00:00	2024-11-08T22:00:00	6	Velocidad del viento	4.8
114342	7	Sololá	713	San Lucas Tolimán	10	San Lucas Tolimán	3	Marzo	2023-03-25T00:00:00	2024-11-08T22:00:00	7	Dirección del viento	4.83
114343	7	Sololá	713	San Lucas Tolimán	10	San Lucas Tolimán	3	Marzo	2023-03-25T00:00:00	2024-11-08T22:00:00	1	Precipitación	0.2
114344	7	Sololá	713	San Lucas Tolimán	10	San Lucas Tolimán	3	Marzo	2023-03-25T00:00:00	2024-11-08T22:00:00	8	Radiación solar	0
114345	7	Sololá	713	San Lucas Tolimán	10	San Lucas Tolimán	3	Marzo	2023-03-25T00:00:00	2024-11-08T23:00:00	2	Temperatura media	16.9
114346	7	Sololá	713	San Lucas Tolimán	10	San Lucas Tolimán	3	Marzo	2023-03-25T00:00:00	2024-11-08T23:00:00	4	Temperatura máxima	17.2
114347	7	Sololá	713	San Lucas Tolimán	10	San Lucas Tolimán	3	Marzo	2023-03-25T00:00:00	2024-11-08T23:00:00	3	Temperatura mínima	16.9
114348	7	Sololá	713	San Lucas Tolimán	10	San Lucas Tolimán	3	Marzo	2023-03-25T00:00:00	2024-11-08T23:00:00	5	Humedad	70
114349	7	Sololá	713	San Lucas Tolimán	10	San Lucas Tolimán	3	Marzo	2023-03-25T00:00:00	2024-11-08T23:00:00	6	Velocidad del viento	6.4
114350	7	Sololá	713	San Lucas Tolimán	10	San Lucas Tolimán	3	Marzo	2023-03-25T00:00:00	2024-11-08T23:00:00	7	Dirección del viento	6.44
114351	7	Sololá	713	San Lucas Tolimán	10	San Lucas Tolimán	3	Marzo	2023-03-25T00:00:00	2024-11-08T23:00:00	1	Precipitación	0
114352	7	Sololá	713	San Lucas Tolimán	10	San Lucas Tolimán	3	Marzo	2023-03-25T00:00:00	2024-11-08T23:00:00	8	Radiación solar	0
114353	7	Sololá	713	San Lucas Tolimán	10	San Lucas Tolimán	3	Marzo	2023-03-26T00:00:00	2024-11-08T00:00:00	2	Temperatura media	16.8
114354	7	Sololá	713	San Lucas Tolimán	10	San Lucas Tolimán	3	Marzo	2023-03-26T00:00:00	2024-11-08T00:00:00	4	Temperatura máxima	16.9
114355	7	Sololá	713	San Lucas Tolimán	10	San Lucas Tolimán	3	Marzo	2023-03-26T00:00:00	2024-11-08T00:00:00	3	Temperatura mínima	16.6
114356	7	Sololá	713	San Lucas Tolimán	10	San Lucas Tolimán	3	Marzo	2023-03-26T00:00:00	2024-11-08T00:00:00	5	Humedad	71
114357	7	Sololá	713	San Lucas Tolimán	10	San Lucas Tolimán	3	Marzo	2023-03-26T00:00:00	2024-11-08T00:00:00	6	Velocidad del viento	3.2
114358	7	Sololá	713	San Lucas Tolimán	10	San Lucas Tolimán	3	Marzo	2023-03-26T00:00:00	2024-11-08T00:00:00	7	Dirección del viento	3.22
114359	7	Sololá	713	San Lucas Tolimán	10	San Lucas Tolimán	3	Marzo	2023-03-26T00:00:00	2024-11-08T00:00:00	1	Precipitación	0
114360	7	Sololá	713	San Lucas Tolimán	10	San Lucas Tolimán	3	Marzo	2023-03-26T00:00:00	2024-11-08T00:00:00	8	Radiación solar	0
114361	7	Sololá	713	San Lucas Tolimán	10	San Lucas Tolimán	3	Marzo	2023-03-26T00:00:00	2024-11-08T01:00:00	2	Temperatura media	16.6
114362	7	Sololá	713	San Lucas Tolimán	10	San Lucas Tolimán	3	Marzo	2023-03-26T00:00:00	2024-11-08T01:00:00	4	Temperatura máxima	16.9
114363	7	Sololá	713	San Lucas Tolimán	10	San Lucas Tolimán	3	Marzo	2023-03-26T00:00:00	2024-11-08T01:00:00	3	Temperatura mínima	16.6
114364	7	Sololá	713	San Lucas Tolimán	10	San Lucas Tolimán	3	Marzo	2023-03-26T00:00:00	2024-11-08T01:00:00	5	Humedad	70
114365	7	Sololá	713	San Lucas Tolimán	10	San Lucas Tolimán	3	Marzo	2023-03-26T00:00:00	2024-11-08T01:00:00	6	Velocidad del viento	4.8
114366	7	Sololá	713	San Lucas Tolimán	10	San Lucas Tolimán	3	Marzo	2023-03-26T00:00:00	2024-11-08T01:00:00	7	Dirección del viento	4.83
114367	7	Sololá	713	San Lucas Tolimán	10	San Lucas Tolimán	3	Marzo	2023-03-26T00:00:00	2024-11-08T01:00:00	1	Precipitación	0
114368	7	Sololá	713	San Lucas Tolimán	10	San Lucas Tolimán	3	Marzo	2023-03-26T00:00:00	2024-11-08T01:00:00	8	Radiación solar	0
114369	7	Sololá	713	San Lucas Tolimán	10	San Lucas Tolimán	3	Marzo	2023-03-26T00:00:00	2024-11-08T02:00:00	2	Temperatura media	16.3
114370	7	Sololá	713	San Lucas Tolimán	10	San Lucas Tolimán	3	Marzo	2023-03-26T00:00:00	2024-11-08T02:00:00	4	Temperatura máxima	16.6
114371	7	Sololá	713	San Lucas Tolimán	10	San Lucas Tolimán	3	Marzo	2023-03-26T00:00:00	2024-11-08T02:00:00	3	Temperatura mínima	16.1
114372	7	Sololá	713	San Lucas Tolimán	10	San Lucas Tolimán	3	Marzo	2023-03-26T00:00:00	2024-11-08T02:00:00	5	Humedad	69
114373	7	Sololá	713	San Lucas Tolimán	10	San Lucas Tolimán	3	Marzo	2023-03-26T00:00:00	2024-11-08T02:00:00	6	Velocidad del viento	6.4
114374	7	Sololá	713	San Lucas Tolimán	10	San Lucas Tolimán	3	Marzo	2023-03-26T00:00:00	2024-11-08T02:00:00	7	Dirección del viento	6.44
114375	7	Sololá	713	San Lucas Tolimán	10	San Lucas Tolimán	3	Marzo	2023-03-26T00:00:00	2024-11-08T02:00:00	1	Precipitación	0
114376	7	Sololá	713	San Lucas Tolimán	10	San Lucas Tolimán	3	Marzo	2023-03-26T00:00:00	2024-11-08T02:00:00	8	Radiación solar	0
114377	7	Sololá	713	San Lucas Tolimán	10	San Lucas Tolimán	3	Marzo	2023-03-26T00:00:00	2024-11-08T03:00:00	2	Temperatura media	16.5
114378	7	Sololá	713	San Lucas Tolimán	10	San Lucas Tolimán	3	Marzo	2023-03-26T00:00:00	2024-11-08T03:00:00	4	Temperatura máxima	16.5
114379	7	Sololá	713	San Lucas Tolimán	10	San Lucas Tolimán	3	Marzo	2023-03-26T00:00:00	2024-11-08T03:00:00	3	Temperatura mínima	16.3
114380	7	Sololá	713	San Lucas Tolimán	10	San Lucas Tolimán	3	Marzo	2023-03-26T00:00:00	2024-11-08T03:00:00	5	Humedad	67
114381	7	Sololá	713	San Lucas Tolimán	10	San Lucas Tolimán	3	Marzo	2023-03-26T00:00:00	2024-11-08T03:00:00	6	Velocidad del viento	4.8
114382	7	Sololá	713	San Lucas Tolimán	10	San Lucas Tolimán	3	Marzo	2023-03-26T00:00:00	2024-11-08T03:00:00	7	Dirección del viento	4.83
114383	7	Sololá	713	San Lucas Tolimán	10	San Lucas Tolimán	3	Marzo	2023-03-26T00:00:00	2024-11-08T03:00:00	1	Precipitación	0
114384	7	Sololá	713	San Lucas Tolimán	10	San Lucas Tolimán	3	Marzo	2023-03-26T00:00:00	2024-11-08T03:00:00	8	Radiación solar	0
114385	7	Sololá	713	San Lucas Tolimán	10	San Lucas Tolimán	3	Marzo	2023-03-26T00:00:00	2024-11-08T04:00:00	2	Temperatura media	15.8
114386	7	Sololá	713	San Lucas Tolimán	10	San Lucas Tolimán	3	Marzo	2023-03-26T00:00:00	2024-11-08T04:00:00	4	Temperatura máxima	16.6
114387	7	Sololá	713	San Lucas Tolimán	10	San Lucas Tolimán	3	Marzo	2023-03-26T00:00:00	2024-11-08T04:00:00	3	Temperatura mínima	15.8
114388	7	Sololá	713	San Lucas Tolimán	10	San Lucas Tolimán	3	Marzo	2023-03-26T00:00:00	2024-11-08T04:00:00	5	Humedad	64
114389	7	Sololá	713	San Lucas Tolimán	10	San Lucas Tolimán	3	Marzo	2023-03-26T00:00:00	2024-11-08T04:00:00	6	Velocidad del viento	8
114390	7	Sololá	713	San Lucas Tolimán	10	San Lucas Tolimán	3	Marzo	2023-03-26T00:00:00	2024-11-08T04:00:00	7	Dirección del viento	8.05
114391	7	Sololá	713	San Lucas Tolimán	10	San Lucas Tolimán	3	Marzo	2023-03-26T00:00:00	2024-11-08T04:00:00	1	Precipitación	0
114392	7	Sololá	713	San Lucas Tolimán	10	San Lucas Tolimán	3	Marzo	2023-03-26T00:00:00	2024-11-08T04:00:00	8	Radiación solar	0
114393	7	Sololá	713	San Lucas Tolimán	10	San Lucas Tolimán	3	Marzo	2023-03-26T00:00:00	2024-11-08T05:00:00	2	Temperatura media	16.1
114394	7	Sololá	713	San Lucas Tolimán	10	San Lucas Tolimán	3	Marzo	2023-03-26T00:00:00	2024-11-08T05:00:00	4	Temperatura máxima	16.1
114395	7	Sololá	713	San Lucas Tolimán	10	San Lucas Tolimán	3	Marzo	2023-03-26T00:00:00	2024-11-08T05:00:00	3	Temperatura mínima	15.8
114396	7	Sololá	713	San Lucas Tolimán	10	San Lucas Tolimán	3	Marzo	2023-03-26T00:00:00	2024-11-08T05:00:00	5	Humedad	63
114397	7	Sololá	713	San Lucas Tolimán	10	San Lucas Tolimán	3	Marzo	2023-03-26T00:00:00	2024-11-08T05:00:00	6	Velocidad del viento	12.9
114398	7	Sololá	713	San Lucas Tolimán	10	San Lucas Tolimán	3	Marzo	2023-03-26T00:00:00	2024-11-08T05:00:00	7	Dirección del viento	12.87
114399	7	Sololá	713	San Lucas Tolimán	10	San Lucas Tolimán	3	Marzo	2023-03-26T00:00:00	2024-11-08T05:00:00	1	Precipitación	0
114400	7	Sololá	713	San Lucas Tolimán	10	San Lucas Tolimán	3	Marzo	2023-03-26T00:00:00	2024-11-08T05:00:00	8	Radiación solar	0
114401	7	Sololá	713	San Lucas Tolimán	10	San Lucas Tolimán	3	Marzo	2023-03-26T00:00:00	2024-11-08T06:00:00	2	Temperatura media	15.7
114402	7	Sololá	713	San Lucas Tolimán	10	San Lucas Tolimán	3	Marzo	2023-03-26T00:00:00	2024-11-08T06:00:00	4	Temperatura máxima	16.1
114403	7	Sololá	713	San Lucas Tolimán	10	San Lucas Tolimán	3	Marzo	2023-03-26T00:00:00	2024-11-08T06:00:00	3	Temperatura mínima	15.6
114404	7	Sololá	713	San Lucas Tolimán	10	San Lucas Tolimán	3	Marzo	2023-03-26T00:00:00	2024-11-08T06:00:00	5	Humedad	66
114405	7	Sololá	713	San Lucas Tolimán	10	San Lucas Tolimán	3	Marzo	2023-03-26T00:00:00	2024-11-08T06:00:00	6	Velocidad del viento	11.3
114406	7	Sololá	713	San Lucas Tolimán	10	San Lucas Tolimán	3	Marzo	2023-03-26T00:00:00	2024-11-08T06:00:00	7	Dirección del viento	11.27
114407	7	Sololá	713	San Lucas Tolimán	10	San Lucas Tolimán	3	Marzo	2023-03-26T00:00:00	2024-11-08T06:00:00	1	Precipitación	0
114408	7	Sololá	713	San Lucas Tolimán	10	San Lucas Tolimán	3	Marzo	2023-03-26T00:00:00	2024-11-08T06:00:00	8	Radiación solar	0
114409	7	Sololá	713	San Lucas Tolimán	10	San Lucas Tolimán	3	Marzo	2023-03-26T00:00:00	2024-11-08T07:00:00	2	Temperatura media	16.2
114410	7	Sololá	713	San Lucas Tolimán	10	San Lucas Tolimán	3	Marzo	2023-03-26T00:00:00	2024-11-08T07:00:00	4	Temperatura máxima	16.2
114411	7	Sololá	713	San Lucas Tolimán	10	San Lucas Tolimán	3	Marzo	2023-03-26T00:00:00	2024-11-08T07:00:00	3	Temperatura mínima	15.6
114412	7	Sololá	713	San Lucas Tolimán	10	San Lucas Tolimán	3	Marzo	2023-03-26T00:00:00	2024-11-08T07:00:00	5	Humedad	65
114413	7	Sololá	713	San Lucas Tolimán	10	San Lucas Tolimán	3	Marzo	2023-03-26T00:00:00	2024-11-08T07:00:00	6	Velocidad del viento	4.8
114414	7	Sololá	713	San Lucas Tolimán	10	San Lucas Tolimán	3	Marzo	2023-03-26T00:00:00	2024-11-08T07:00:00	7	Dirección del viento	4.83
114415	7	Sololá	713	San Lucas Tolimán	10	San Lucas Tolimán	3	Marzo	2023-03-26T00:00:00	2024-11-08T07:00:00	1	Precipitación	0
114416	7	Sololá	713	San Lucas Tolimán	10	San Lucas Tolimán	3	Marzo	2023-03-26T00:00:00	2024-11-08T07:00:00	8	Radiación solar	24
114417	7	Sololá	713	San Lucas Tolimán	10	San Lucas Tolimán	3	Marzo	2023-03-26T00:00:00	2024-11-08T08:00:00	2	Temperatura media	16.8
114418	7	Sololá	713	San Lucas Tolimán	10	San Lucas Tolimán	3	Marzo	2023-03-26T00:00:00	2024-11-08T08:00:00	4	Temperatura máxima	16.8
114419	7	Sololá	713	San Lucas Tolimán	10	San Lucas Tolimán	3	Marzo	2023-03-26T00:00:00	2024-11-08T08:00:00	3	Temperatura mínima	16.2
114420	7	Sololá	713	San Lucas Tolimán	10	San Lucas Tolimán	3	Marzo	2023-03-26T00:00:00	2024-11-08T08:00:00	5	Humedad	65
114421	7	Sololá	713	San Lucas Tolimán	10	San Lucas Tolimán	3	Marzo	2023-03-26T00:00:00	2024-11-08T08:00:00	6	Velocidad del viento	4.8
114422	7	Sololá	713	San Lucas Tolimán	10	San Lucas Tolimán	3	Marzo	2023-03-26T00:00:00	2024-11-08T08:00:00	7	Dirección del viento	4.83
114423	7	Sololá	713	San Lucas Tolimán	10	San Lucas Tolimán	3	Marzo	2023-03-26T00:00:00	2024-11-08T08:00:00	1	Precipitación	0
114424	7	Sololá	713	San Lucas Tolimán	10	San Lucas Tolimán	3	Marzo	2023-03-26T00:00:00	2024-11-08T08:00:00	8	Radiación solar	84
114425	7	Sololá	713	San Lucas Tolimán	10	San Lucas Tolimán	3	Marzo	2023-03-26T00:00:00	2024-11-08T09:00:00	2	Temperatura media	18.4
114426	7	Sololá	713	San Lucas Tolimán	10	San Lucas Tolimán	3	Marzo	2023-03-26T00:00:00	2024-11-08T09:00:00	4	Temperatura máxima	18.4
114427	7	Sololá	713	San Lucas Tolimán	10	San Lucas Tolimán	3	Marzo	2023-03-26T00:00:00	2024-11-08T09:00:00	3	Temperatura mínima	16.8
114428	7	Sololá	713	San Lucas Tolimán	10	San Lucas Tolimán	3	Marzo	2023-03-26T00:00:00	2024-11-08T09:00:00	5	Humedad	60
114429	7	Sololá	713	San Lucas Tolimán	10	San Lucas Tolimán	3	Marzo	2023-03-26T00:00:00	2024-11-08T09:00:00	6	Velocidad del viento	6.4
114430	7	Sololá	713	San Lucas Tolimán	10	San Lucas Tolimán	3	Marzo	2023-03-26T00:00:00	2024-11-08T09:00:00	7	Dirección del viento	6.44
114431	7	Sololá	713	San Lucas Tolimán	10	San Lucas Tolimán	3	Marzo	2023-03-26T00:00:00	2024-11-08T09:00:00	1	Precipitación	0
114432	7	Sololá	713	San Lucas Tolimán	10	San Lucas Tolimán	3	Marzo	2023-03-26T00:00:00	2024-11-08T09:00:00	8	Radiación solar	288
114433	7	Sololá	713	San Lucas Tolimán	10	San Lucas Tolimán	3	Marzo	2023-03-26T00:00:00	2024-11-08T10:00:00	2	Temperatura media	21.2
114434	7	Sololá	713	San Lucas Tolimán	10	San Lucas Tolimán	3	Marzo	2023-03-26T00:00:00	2024-11-08T10:00:00	4	Temperatura máxima	21.2
114435	7	Sololá	713	San Lucas Tolimán	10	San Lucas Tolimán	3	Marzo	2023-03-26T00:00:00	2024-11-08T10:00:00	3	Temperatura mínima	18.4
114436	7	Sololá	713	San Lucas Tolimán	10	San Lucas Tolimán	3	Marzo	2023-03-26T00:00:00	2024-11-08T10:00:00	5	Humedad	53
114437	7	Sololá	713	San Lucas Tolimán	10	San Lucas Tolimán	3	Marzo	2023-03-26T00:00:00	2024-11-08T10:00:00	6	Velocidad del viento	6.4
114438	7	Sololá	713	San Lucas Tolimán	10	San Lucas Tolimán	3	Marzo	2023-03-26T00:00:00	2024-11-08T10:00:00	7	Dirección del viento	6.44
114439	7	Sololá	713	San Lucas Tolimán	10	San Lucas Tolimán	3	Marzo	2023-03-26T00:00:00	2024-11-08T10:00:00	1	Precipitación	0
114440	7	Sololá	713	San Lucas Tolimán	10	San Lucas Tolimán	3	Marzo	2023-03-26T00:00:00	2024-11-08T10:00:00	8	Radiación solar	738
114441	7	Sololá	713	San Lucas Tolimán	10	San Lucas Tolimán	3	Marzo	2023-03-26T00:00:00	2024-11-08T11:00:00	2	Temperatura media	21.1
114442	7	Sololá	713	San Lucas Tolimán	10	San Lucas Tolimán	3	Marzo	2023-03-26T00:00:00	2024-11-08T11:00:00	4	Temperatura máxima	21.8
114443	7	Sololá	713	San Lucas Tolimán	10	San Lucas Tolimán	3	Marzo	2023-03-26T00:00:00	2024-11-08T11:00:00	3	Temperatura mínima	20.4
114444	7	Sololá	713	San Lucas Tolimán	10	San Lucas Tolimán	3	Marzo	2023-03-26T00:00:00	2024-11-08T11:00:00	5	Humedad	54
114445	7	Sololá	713	San Lucas Tolimán	10	San Lucas Tolimán	3	Marzo	2023-03-26T00:00:00	2024-11-08T11:00:00	6	Velocidad del viento	8
114446	7	Sololá	713	San Lucas Tolimán	10	San Lucas Tolimán	3	Marzo	2023-03-26T00:00:00	2024-11-08T11:00:00	7	Dirección del viento	8.05
114447	7	Sololá	713	San Lucas Tolimán	10	San Lucas Tolimán	3	Marzo	2023-03-26T00:00:00	2024-11-08T11:00:00	1	Precipitación	0
114448	7	Sololá	713	San Lucas Tolimán	10	San Lucas Tolimán	3	Marzo	2023-03-26T00:00:00	2024-11-08T11:00:00	8	Radiación solar	902
114449	7	Sololá	713	San Lucas Tolimán	10	San Lucas Tolimán	3	Marzo	2023-03-26T00:00:00	2024-11-08T12:00:00	2	Temperatura media	21.4
114450	7	Sololá	713	San Lucas Tolimán	10	San Lucas Tolimán	3	Marzo	2023-03-26T00:00:00	2024-11-08T12:00:00	4	Temperatura máxima	21.7
114451	7	Sololá	713	San Lucas Tolimán	10	San Lucas Tolimán	3	Marzo	2023-03-26T00:00:00	2024-11-08T12:00:00	3	Temperatura mínima	20.3
114452	7	Sololá	713	San Lucas Tolimán	10	San Lucas Tolimán	3	Marzo	2023-03-26T00:00:00	2024-11-08T12:00:00	5	Humedad	55
114453	7	Sololá	713	San Lucas Tolimán	10	San Lucas Tolimán	3	Marzo	2023-03-26T00:00:00	2024-11-08T12:00:00	6	Velocidad del viento	8
114454	7	Sololá	713	San Lucas Tolimán	10	San Lucas Tolimán	3	Marzo	2023-03-26T00:00:00	2024-11-08T12:00:00	7	Dirección del viento	8.05
114455	7	Sololá	713	San Lucas Tolimán	10	San Lucas Tolimán	3	Marzo	2023-03-26T00:00:00	2024-11-08T12:00:00	1	Precipitación	0
114456	7	Sololá	713	San Lucas Tolimán	10	San Lucas Tolimán	3	Marzo	2023-03-26T00:00:00	2024-11-08T12:00:00	8	Radiación solar	831
114457	7	Sololá	713	San Lucas Tolimán	10	San Lucas Tolimán	3	Marzo	2023-03-26T00:00:00	2024-11-08T13:00:00	2	Temperatura media	21.3
114458	7	Sololá	713	San Lucas Tolimán	10	San Lucas Tolimán	3	Marzo	2023-03-26T00:00:00	2024-11-08T13:00:00	4	Temperatura máxima	21.7
114459	7	Sololá	713	San Lucas Tolimán	10	San Lucas Tolimán	3	Marzo	2023-03-26T00:00:00	2024-11-08T13:00:00	3	Temperatura mínima	20.5
114460	7	Sololá	713	San Lucas Tolimán	10	San Lucas Tolimán	3	Marzo	2023-03-26T00:00:00	2024-11-08T13:00:00	5	Humedad	56
114461	7	Sololá	713	San Lucas Tolimán	10	San Lucas Tolimán	3	Marzo	2023-03-26T00:00:00	2024-11-08T13:00:00	6	Velocidad del viento	8
114462	7	Sololá	713	San Lucas Tolimán	10	San Lucas Tolimán	3	Marzo	2023-03-26T00:00:00	2024-11-08T13:00:00	7	Dirección del viento	8.05
114463	7	Sololá	713	San Lucas Tolimán	10	San Lucas Tolimán	3	Marzo	2023-03-26T00:00:00	2024-11-08T13:00:00	1	Precipitación	0
114464	7	Sololá	713	San Lucas Tolimán	10	San Lucas Tolimán	3	Marzo	2023-03-26T00:00:00	2024-11-08T13:00:00	8	Radiación solar	796
114465	7	Sololá	713	San Lucas Tolimán	10	San Lucas Tolimán	3	Marzo	2023-03-26T00:00:00	2024-11-08T14:00:00	2	Temperatura media	21.1
114466	7	Sololá	713	San Lucas Tolimán	10	San Lucas Tolimán	3	Marzo	2023-03-26T00:00:00	2024-11-08T14:00:00	4	Temperatura máxima	21.9
114467	7	Sololá	713	San Lucas Tolimán	10	San Lucas Tolimán	3	Marzo	2023-03-26T00:00:00	2024-11-08T14:00:00	3	Temperatura mínima	20.9
114468	7	Sololá	713	San Lucas Tolimán	10	San Lucas Tolimán	3	Marzo	2023-03-26T00:00:00	2024-11-08T14:00:00	5	Humedad	58
114469	7	Sololá	713	San Lucas Tolimán	10	San Lucas Tolimán	3	Marzo	2023-03-26T00:00:00	2024-11-08T14:00:00	6	Velocidad del viento	12.9
114470	7	Sololá	713	San Lucas Tolimán	10	San Lucas Tolimán	3	Marzo	2023-03-26T00:00:00	2024-11-08T14:00:00	7	Dirección del viento	12.87
114471	7	Sololá	713	San Lucas Tolimán	10	San Lucas Tolimán	3	Marzo	2023-03-26T00:00:00	2024-11-08T14:00:00	1	Precipitación	0
114472	7	Sololá	713	San Lucas Tolimán	10	San Lucas Tolimán	3	Marzo	2023-03-26T00:00:00	2024-11-08T14:00:00	8	Radiación solar	1070
114473	7	Sololá	713	San Lucas Tolimán	10	San Lucas Tolimán	3	Marzo	2023-03-26T00:00:00	2024-11-08T15:00:00	2	Temperatura media	21.2
114474	7	Sololá	713	San Lucas Tolimán	10	San Lucas Tolimán	3	Marzo	2023-03-26T00:00:00	2024-11-08T15:00:00	4	Temperatura máxima	21.7
114475	7	Sololá	713	San Lucas Tolimán	10	San Lucas Tolimán	3	Marzo	2023-03-26T00:00:00	2024-11-08T15:00:00	3	Temperatura mínima	20.9
114476	7	Sololá	713	San Lucas Tolimán	10	San Lucas Tolimán	3	Marzo	2023-03-26T00:00:00	2024-11-08T15:00:00	5	Humedad	58
114477	7	Sololá	713	San Lucas Tolimán	10	San Lucas Tolimán	3	Marzo	2023-03-26T00:00:00	2024-11-08T15:00:00	6	Velocidad del viento	11.3
114478	7	Sololá	713	San Lucas Tolimán	10	San Lucas Tolimán	3	Marzo	2023-03-26T00:00:00	2024-11-08T15:00:00	7	Dirección del viento	11.27
114479	7	Sololá	713	San Lucas Tolimán	10	San Lucas Tolimán	3	Marzo	2023-03-26T00:00:00	2024-11-08T15:00:00	1	Precipitación	0
114480	7	Sololá	713	San Lucas Tolimán	10	San Lucas Tolimán	3	Marzo	2023-03-26T00:00:00	2024-11-08T15:00:00	8	Radiación solar	892
114481	7	Sololá	713	San Lucas Tolimán	10	San Lucas Tolimán	3	Marzo	2023-03-26T00:00:00	2024-11-08T16:00:00	2	Temperatura media	20.9
114482	7	Sololá	713	San Lucas Tolimán	10	San Lucas Tolimán	3	Marzo	2023-03-26T00:00:00	2024-11-08T16:00:00	4	Temperatura máxima	21.4
114483	7	Sololá	713	San Lucas Tolimán	10	San Lucas Tolimán	3	Marzo	2023-03-26T00:00:00	2024-11-08T16:00:00	3	Temperatura mínima	20.3
114484	7	Sololá	713	San Lucas Tolimán	10	San Lucas Tolimán	3	Marzo	2023-03-26T00:00:00	2024-11-08T16:00:00	5	Humedad	59
114485	7	Sololá	713	San Lucas Tolimán	10	San Lucas Tolimán	3	Marzo	2023-03-26T00:00:00	2024-11-08T16:00:00	6	Velocidad del viento	9.7
114486	7	Sololá	713	San Lucas Tolimán	10	San Lucas Tolimán	3	Marzo	2023-03-26T00:00:00	2024-11-08T16:00:00	7	Dirección del viento	9.66
114487	7	Sololá	713	San Lucas Tolimán	10	San Lucas Tolimán	3	Marzo	2023-03-26T00:00:00	2024-11-08T16:00:00	1	Precipitación	0
114488	7	Sololá	713	San Lucas Tolimán	10	San Lucas Tolimán	3	Marzo	2023-03-26T00:00:00	2024-11-08T16:00:00	8	Radiación solar	605
114489	7	Sololá	713	San Lucas Tolimán	10	San Lucas Tolimán	3	Marzo	2023-03-26T00:00:00	2024-11-08T17:00:00	2	Temperatura media	20.1
114490	7	Sololá	713	San Lucas Tolimán	10	San Lucas Tolimán	3	Marzo	2023-03-26T00:00:00	2024-11-08T17:00:00	4	Temperatura máxima	20.9
114491	7	Sololá	713	San Lucas Tolimán	10	San Lucas Tolimán	3	Marzo	2023-03-26T00:00:00	2024-11-08T17:00:00	3	Temperatura mínima	20.1
114492	7	Sololá	713	San Lucas Tolimán	10	San Lucas Tolimán	3	Marzo	2023-03-26T00:00:00	2024-11-08T17:00:00	5	Humedad	62
114493	7	Sololá	713	San Lucas Tolimán	10	San Lucas Tolimán	3	Marzo	2023-03-26T00:00:00	2024-11-08T17:00:00	6	Velocidad del viento	9.7
114494	7	Sololá	713	San Lucas Tolimán	10	San Lucas Tolimán	3	Marzo	2023-03-26T00:00:00	2024-11-08T17:00:00	7	Dirección del viento	9.66
114495	7	Sololá	713	San Lucas Tolimán	10	San Lucas Tolimán	3	Marzo	2023-03-26T00:00:00	2024-11-08T17:00:00	1	Precipitación	0
114496	7	Sololá	713	San Lucas Tolimán	10	San Lucas Tolimán	3	Marzo	2023-03-26T00:00:00	2024-11-08T17:00:00	8	Radiación solar	341
114497	7	Sololá	713	San Lucas Tolimán	10	San Lucas Tolimán	3	Marzo	2023-03-26T00:00:00	2024-11-08T18:00:00	2	Temperatura media	18.8
114498	7	Sololá	713	San Lucas Tolimán	10	San Lucas Tolimán	3	Marzo	2023-03-26T00:00:00	2024-11-08T18:00:00	4	Temperatura máxima	20.1
114499	7	Sololá	713	San Lucas Tolimán	10	San Lucas Tolimán	3	Marzo	2023-03-26T00:00:00	2024-11-08T18:00:00	3	Temperatura mínima	18.8
114500	7	Sololá	713	San Lucas Tolimán	10	San Lucas Tolimán	3	Marzo	2023-03-26T00:00:00	2024-11-08T18:00:00	5	Humedad	66
114501	7	Sololá	713	San Lucas Tolimán	10	San Lucas Tolimán	3	Marzo	2023-03-26T00:00:00	2024-11-08T18:00:00	6	Velocidad del viento	6.4
114502	7	Sololá	713	San Lucas Tolimán	10	San Lucas Tolimán	3	Marzo	2023-03-26T00:00:00	2024-11-08T18:00:00	7	Dirección del viento	6.44
114503	7	Sololá	713	San Lucas Tolimán	10	San Lucas Tolimán	3	Marzo	2023-03-26T00:00:00	2024-11-08T18:00:00	1	Precipitación	0
114504	7	Sololá	713	San Lucas Tolimán	10	San Lucas Tolimán	3	Marzo	2023-03-26T00:00:00	2024-11-08T18:00:00	8	Radiación solar	79
114505	7	Sololá	713	San Lucas Tolimán	10	San Lucas Tolimán	3	Marzo	2023-03-26T00:00:00	2024-11-08T19:00:00	2	Temperatura media	18.7
114506	7	Sololá	713	San Lucas Tolimán	10	San Lucas Tolimán	3	Marzo	2023-03-26T00:00:00	2024-11-08T19:00:00	4	Temperatura máxima	18.8
114507	7	Sololá	713	San Lucas Tolimán	10	San Lucas Tolimán	3	Marzo	2023-03-26T00:00:00	2024-11-08T19:00:00	3	Temperatura mínima	18.6
114508	7	Sololá	713	San Lucas Tolimán	10	San Lucas Tolimán	3	Marzo	2023-03-26T00:00:00	2024-11-08T19:00:00	5	Humedad	66
114509	7	Sololá	713	San Lucas Tolimán	10	San Lucas Tolimán	3	Marzo	2023-03-26T00:00:00	2024-11-08T19:00:00	6	Velocidad del viento	4.8
114510	7	Sololá	713	San Lucas Tolimán	10	San Lucas Tolimán	3	Marzo	2023-03-26T00:00:00	2024-11-08T19:00:00	7	Dirección del viento	4.83
114511	7	Sololá	713	San Lucas Tolimán	10	San Lucas Tolimán	3	Marzo	2023-03-26T00:00:00	2024-11-08T19:00:00	1	Precipitación	0
114512	7	Sololá	713	San Lucas Tolimán	10	San Lucas Tolimán	3	Marzo	2023-03-26T00:00:00	2024-11-08T19:00:00	8	Radiación solar	0
114513	7	Sololá	713	San Lucas Tolimán	10	San Lucas Tolimán	3	Marzo	2023-03-26T00:00:00	2024-11-08T20:00:00	2	Temperatura media	18.5
114514	7	Sololá	713	San Lucas Tolimán	10	San Lucas Tolimán	3	Marzo	2023-03-26T00:00:00	2024-11-08T20:00:00	4	Temperatura máxima	18.7
114515	7	Sololá	713	San Lucas Tolimán	10	San Lucas Tolimán	3	Marzo	2023-03-26T00:00:00	2024-11-08T20:00:00	3	Temperatura mínima	18.4
114516	7	Sololá	713	San Lucas Tolimán	10	San Lucas Tolimán	3	Marzo	2023-03-26T00:00:00	2024-11-08T20:00:00	5	Humedad	66
114517	7	Sololá	713	San Lucas Tolimán	10	San Lucas Tolimán	3	Marzo	2023-03-26T00:00:00	2024-11-08T20:00:00	6	Velocidad del viento	1.6
114518	7	Sololá	713	San Lucas Tolimán	10	San Lucas Tolimán	3	Marzo	2023-03-26T00:00:00	2024-11-08T20:00:00	7	Dirección del viento	1.61
114519	7	Sololá	713	San Lucas Tolimán	10	San Lucas Tolimán	3	Marzo	2023-03-26T00:00:00	2024-11-08T20:00:00	1	Precipitación	0
114520	7	Sololá	713	San Lucas Tolimán	10	San Lucas Tolimán	3	Marzo	2023-03-26T00:00:00	2024-11-08T20:00:00	8	Radiación solar	0
114521	7	Sololá	713	San Lucas Tolimán	10	San Lucas Tolimán	3	Marzo	2023-03-26T00:00:00	2024-11-08T21:00:00	2	Temperatura media	18.3
114522	7	Sololá	713	San Lucas Tolimán	10	San Lucas Tolimán	3	Marzo	2023-03-26T00:00:00	2024-11-08T21:00:00	4	Temperatura máxima	18.8
114523	7	Sololá	713	San Lucas Tolimán	10	San Lucas Tolimán	3	Marzo	2023-03-26T00:00:00	2024-11-08T21:00:00	3	Temperatura mínima	18.3
114524	7	Sololá	713	San Lucas Tolimán	10	San Lucas Tolimán	3	Marzo	2023-03-26T00:00:00	2024-11-08T21:00:00	5	Humedad	67
114525	7	Sololá	713	San Lucas Tolimán	10	San Lucas Tolimán	3	Marzo	2023-03-26T00:00:00	2024-11-08T21:00:00	6	Velocidad del viento	3.2
114526	7	Sololá	713	San Lucas Tolimán	10	San Lucas Tolimán	3	Marzo	2023-03-26T00:00:00	2024-11-08T21:00:00	7	Dirección del viento	3.22
114527	7	Sololá	713	San Lucas Tolimán	10	San Lucas Tolimán	3	Marzo	2023-03-26T00:00:00	2024-11-08T21:00:00	1	Precipitación	0
114528	7	Sololá	713	San Lucas Tolimán	10	San Lucas Tolimán	3	Marzo	2023-03-26T00:00:00	2024-11-08T21:00:00	8	Radiación solar	0
114529	7	Sololá	713	San Lucas Tolimán	10	San Lucas Tolimán	3	Marzo	2023-03-26T00:00:00	2024-11-08T22:00:00	2	Temperatura media	17.1
114530	7	Sololá	713	San Lucas Tolimán	10	San Lucas Tolimán	3	Marzo	2023-03-26T00:00:00	2024-11-08T22:00:00	4	Temperatura máxima	18.3
114531	7	Sololá	713	San Lucas Tolimán	10	San Lucas Tolimán	3	Marzo	2023-03-26T00:00:00	2024-11-08T22:00:00	3	Temperatura mínima	16.9
114532	7	Sololá	713	San Lucas Tolimán	10	San Lucas Tolimán	3	Marzo	2023-03-26T00:00:00	2024-11-08T22:00:00	5	Humedad	67
114533	7	Sololá	713	San Lucas Tolimán	10	San Lucas Tolimán	3	Marzo	2023-03-26T00:00:00	2024-11-08T22:00:00	6	Velocidad del viento	3.2
114534	7	Sololá	713	San Lucas Tolimán	10	San Lucas Tolimán	3	Marzo	2023-03-26T00:00:00	2024-11-08T22:00:00	7	Dirección del viento	3.22
114535	7	Sololá	713	San Lucas Tolimán	10	San Lucas Tolimán	3	Marzo	2023-03-26T00:00:00	2024-11-08T22:00:00	1	Precipitación	0
114536	7	Sololá	713	San Lucas Tolimán	10	San Lucas Tolimán	3	Marzo	2023-03-26T00:00:00	2024-11-08T22:00:00	8	Radiación solar	0
114537	7	Sololá	713	San Lucas Tolimán	10	San Lucas Tolimán	3	Marzo	2023-03-26T00:00:00	2024-11-08T23:00:00	2	Temperatura media	17.1
114538	7	Sololá	713	San Lucas Tolimán	10	San Lucas Tolimán	3	Marzo	2023-03-26T00:00:00	2024-11-08T23:00:00	4	Temperatura máxima	17.1
114539	7	Sololá	713	San Lucas Tolimán	10	San Lucas Tolimán	3	Marzo	2023-03-26T00:00:00	2024-11-08T23:00:00	3	Temperatura mínima	16.9
114540	7	Sololá	713	San Lucas Tolimán	10	San Lucas Tolimán	3	Marzo	2023-03-26T00:00:00	2024-11-08T23:00:00	5	Humedad	65
114541	7	Sololá	713	San Lucas Tolimán	10	San Lucas Tolimán	3	Marzo	2023-03-26T00:00:00	2024-11-08T23:00:00	6	Velocidad del viento	3.2
114542	7	Sololá	713	San Lucas Tolimán	10	San Lucas Tolimán	3	Marzo	2023-03-26T00:00:00	2024-11-08T23:00:00	7	Dirección del viento	3.22
114543	7	Sololá	713	San Lucas Tolimán	10	San Lucas Tolimán	3	Marzo	2023-03-26T00:00:00	2024-11-08T23:00:00	1	Precipitación	0
114544	7	Sololá	713	San Lucas Tolimán	10	San Lucas Tolimán	3	Marzo	2023-03-26T00:00:00	2024-11-08T23:00:00	8	Radiación solar	0
114545	7	Sololá	713	San Lucas Tolimán	10	San Lucas Tolimán	3	Marzo	2023-03-27T00:00:00	2024-11-08T00:00:00	2	Temperatura media	16.9
114546	7	Sololá	713	San Lucas Tolimán	10	San Lucas Tolimán	3	Marzo	2023-03-27T00:00:00	2024-11-08T00:00:00	4	Temperatura máxima	17.4
114547	7	Sololá	713	San Lucas Tolimán	10	San Lucas Tolimán	3	Marzo	2023-03-27T00:00:00	2024-11-08T00:00:00	3	Temperatura mínima	16.9
114548	7	Sololá	713	San Lucas Tolimán	10	San Lucas Tolimán	3	Marzo	2023-03-27T00:00:00	2024-11-08T00:00:00	5	Humedad	67
114549	7	Sololá	713	San Lucas Tolimán	10	San Lucas Tolimán	3	Marzo	2023-03-27T00:00:00	2024-11-08T00:00:00	6	Velocidad del viento	1.6
114550	7	Sololá	713	San Lucas Tolimán	10	San Lucas Tolimán	3	Marzo	2023-03-27T00:00:00	2024-11-08T00:00:00	7	Dirección del viento	1.61
114551	7	Sololá	713	San Lucas Tolimán	10	San Lucas Tolimán	3	Marzo	2023-03-27T00:00:00	2024-11-08T00:00:00	1	Precipitación	0
114552	7	Sololá	713	San Lucas Tolimán	10	San Lucas Tolimán	3	Marzo	2023-03-27T00:00:00	2024-11-08T00:00:00	8	Radiación solar	0
114553	7	Sololá	713	San Lucas Tolimán	10	San Lucas Tolimán	3	Marzo	2023-03-27T00:00:00	2024-11-08T01:00:00	2	Temperatura media	16.4
114554	7	Sololá	713	San Lucas Tolimán	10	San Lucas Tolimán	3	Marzo	2023-03-27T00:00:00	2024-11-08T01:00:00	4	Temperatura máxima	16.9
114555	7	Sololá	713	San Lucas Tolimán	10	San Lucas Tolimán	3	Marzo	2023-03-27T00:00:00	2024-11-08T01:00:00	3	Temperatura mínima	15.7
114556	7	Sololá	713	San Lucas Tolimán	10	San Lucas Tolimán	3	Marzo	2023-03-27T00:00:00	2024-11-08T01:00:00	5	Humedad	66
114557	7	Sololá	713	San Lucas Tolimán	10	San Lucas Tolimán	3	Marzo	2023-03-27T00:00:00	2024-11-08T01:00:00	6	Velocidad del viento	3.2
114558	7	Sololá	713	San Lucas Tolimán	10	San Lucas Tolimán	3	Marzo	2023-03-27T00:00:00	2024-11-08T01:00:00	7	Dirección del viento	3.22
114559	7	Sololá	713	San Lucas Tolimán	10	San Lucas Tolimán	3	Marzo	2023-03-27T00:00:00	2024-11-08T01:00:00	1	Precipitación	0
114560	7	Sololá	713	San Lucas Tolimán	10	San Lucas Tolimán	3	Marzo	2023-03-27T00:00:00	2024-11-08T01:00:00	8	Radiación solar	0
114561	7	Sololá	713	San Lucas Tolimán	10	San Lucas Tolimán	3	Marzo	2023-03-27T00:00:00	2024-11-08T02:00:00	2	Temperatura media	15.9
114562	7	Sololá	713	San Lucas Tolimán	10	San Lucas Tolimán	3	Marzo	2023-03-27T00:00:00	2024-11-08T02:00:00	4	Temperatura máxima	16.4
114563	7	Sololá	713	San Lucas Tolimán	10	San Lucas Tolimán	3	Marzo	2023-03-27T00:00:00	2024-11-08T02:00:00	3	Temperatura mínima	15.9
114564	7	Sololá	713	San Lucas Tolimán	10	San Lucas Tolimán	3	Marzo	2023-03-27T00:00:00	2024-11-08T02:00:00	5	Humedad	66
114565	7	Sololá	713	San Lucas Tolimán	10	San Lucas Tolimán	3	Marzo	2023-03-27T00:00:00	2024-11-08T02:00:00	6	Velocidad del viento	4.8
114566	7	Sololá	713	San Lucas Tolimán	10	San Lucas Tolimán	3	Marzo	2023-03-27T00:00:00	2024-11-08T02:00:00	7	Dirección del viento	4.83
114567	7	Sololá	713	San Lucas Tolimán	10	San Lucas Tolimán	3	Marzo	2023-03-27T00:00:00	2024-11-08T02:00:00	1	Precipitación	0
114568	7	Sololá	713	San Lucas Tolimán	10	San Lucas Tolimán	3	Marzo	2023-03-27T00:00:00	2024-11-08T02:00:00	8	Radiación solar	0
114569	7	Sololá	713	San Lucas Tolimán	10	San Lucas Tolimán	3	Marzo	2023-03-27T00:00:00	2024-11-08T03:00:00	2	Temperatura media	15.6
114570	7	Sololá	713	San Lucas Tolimán	10	San Lucas Tolimán	3	Marzo	2023-03-27T00:00:00	2024-11-08T03:00:00	4	Temperatura máxima	15.8
114571	7	Sololá	713	San Lucas Tolimán	10	San Lucas Tolimán	3	Marzo	2023-03-27T00:00:00	2024-11-08T03:00:00	3	Temperatura mínima	15.3
114572	7	Sololá	713	San Lucas Tolimán	10	San Lucas Tolimán	3	Marzo	2023-03-27T00:00:00	2024-11-08T03:00:00	5	Humedad	67
114573	7	Sololá	713	San Lucas Tolimán	10	San Lucas Tolimán	3	Marzo	2023-03-27T00:00:00	2024-11-08T03:00:00	6	Velocidad del viento	6.4
114574	7	Sololá	713	San Lucas Tolimán	10	San Lucas Tolimán	3	Marzo	2023-03-27T00:00:00	2024-11-08T03:00:00	7	Dirección del viento	6.44
114575	7	Sololá	713	San Lucas Tolimán	10	San Lucas Tolimán	3	Marzo	2023-03-27T00:00:00	2024-11-08T03:00:00	1	Precipitación	0
114576	7	Sololá	713	San Lucas Tolimán	10	San Lucas Tolimán	3	Marzo	2023-03-27T00:00:00	2024-11-08T03:00:00	8	Radiación solar	0
114577	7	Sololá	713	San Lucas Tolimán	10	San Lucas Tolimán	3	Marzo	2023-03-27T00:00:00	2024-11-08T04:00:00	2	Temperatura media	15.1
114578	7	Sololá	713	San Lucas Tolimán	10	San Lucas Tolimán	3	Marzo	2023-03-27T00:00:00	2024-11-08T04:00:00	4	Temperatura máxima	15.6
114579	7	Sololá	713	San Lucas Tolimán	10	San Lucas Tolimán	3	Marzo	2023-03-27T00:00:00	2024-11-08T04:00:00	3	Temperatura mínima	15.1
114580	7	Sololá	713	San Lucas Tolimán	10	San Lucas Tolimán	3	Marzo	2023-03-27T00:00:00	2024-11-08T04:00:00	5	Humedad	65
114581	7	Sololá	713	San Lucas Tolimán	10	San Lucas Tolimán	3	Marzo	2023-03-27T00:00:00	2024-11-08T04:00:00	6	Velocidad del viento	4.8
114582	7	Sololá	713	San Lucas Tolimán	10	San Lucas Tolimán	3	Marzo	2023-03-27T00:00:00	2024-11-08T04:00:00	7	Dirección del viento	4.83
114583	7	Sololá	713	San Lucas Tolimán	10	San Lucas Tolimán	3	Marzo	2023-03-27T00:00:00	2024-11-08T04:00:00	1	Precipitación	0
114584	7	Sololá	713	San Lucas Tolimán	10	San Lucas Tolimán	3	Marzo	2023-03-27T00:00:00	2024-11-08T04:00:00	8	Radiación solar	0
114585	7	Sololá	713	San Lucas Tolimán	10	San Lucas Tolimán	3	Marzo	2023-03-27T00:00:00	2024-11-08T05:00:00	2	Temperatura media	14.4
114586	7	Sololá	713	San Lucas Tolimán	10	San Lucas Tolimán	3	Marzo	2023-03-27T00:00:00	2024-11-08T05:00:00	4	Temperatura máxima	15.2
114587	7	Sololá	713	San Lucas Tolimán	10	San Lucas Tolimán	3	Marzo	2023-03-27T00:00:00	2024-11-08T05:00:00	3	Temperatura mínima	14.4
114588	7	Sololá	713	San Lucas Tolimán	10	San Lucas Tolimán	3	Marzo	2023-03-27T00:00:00	2024-11-08T05:00:00	5	Humedad	62
114589	7	Sololá	713	San Lucas Tolimán	10	San Lucas Tolimán	3	Marzo	2023-03-27T00:00:00	2024-11-08T05:00:00	6	Velocidad del viento	4.8
114590	7	Sololá	713	San Lucas Tolimán	10	San Lucas Tolimán	3	Marzo	2023-03-27T00:00:00	2024-11-08T05:00:00	7	Dirección del viento	4.83
114591	7	Sololá	713	San Lucas Tolimán	10	San Lucas Tolimán	3	Marzo	2023-03-27T00:00:00	2024-11-08T05:00:00	1	Precipitación	0
114592	7	Sololá	713	San Lucas Tolimán	10	San Lucas Tolimán	3	Marzo	2023-03-27T00:00:00	2024-11-08T05:00:00	8	Radiación solar	0
114593	7	Sololá	713	San Lucas Tolimán	10	San Lucas Tolimán	3	Marzo	2023-03-27T00:00:00	2024-11-08T06:00:00	2	Temperatura media	14.1
114594	7	Sololá	713	San Lucas Tolimán	10	San Lucas Tolimán	3	Marzo	2023-03-27T00:00:00	2024-11-08T06:00:00	4	Temperatura máxima	14.4
114595	7	Sololá	713	San Lucas Tolimán	10	San Lucas Tolimán	3	Marzo	2023-03-27T00:00:00	2024-11-08T06:00:00	3	Temperatura mínima	14.1
114596	7	Sololá	713	San Lucas Tolimán	10	San Lucas Tolimán	3	Marzo	2023-03-27T00:00:00	2024-11-08T06:00:00	5	Humedad	62
114597	7	Sololá	713	San Lucas Tolimán	10	San Lucas Tolimán	3	Marzo	2023-03-27T00:00:00	2024-11-08T06:00:00	6	Velocidad del viento	0
114598	7	Sololá	713	San Lucas Tolimán	10	San Lucas Tolimán	3	Marzo	2023-03-27T00:00:00	2024-11-08T06:00:00	7	Dirección del viento	0
114599	7	Sololá	713	San Lucas Tolimán	10	San Lucas Tolimán	3	Marzo	2023-03-27T00:00:00	2024-11-08T06:00:00	1	Precipitación	0
114600	7	Sololá	713	San Lucas Tolimán	10	San Lucas Tolimán	3	Marzo	2023-03-27T00:00:00	2024-11-08T06:00:00	8	Radiación solar	0
114601	7	Sololá	713	San Lucas Tolimán	10	San Lucas Tolimán	3	Marzo	2023-03-27T00:00:00	2024-11-08T07:00:00	2	Temperatura media	14.2
114602	7	Sololá	713	San Lucas Tolimán	10	San Lucas Tolimán	3	Marzo	2023-03-27T00:00:00	2024-11-08T07:00:00	4	Temperatura máxima	14.2
114603	7	Sololá	713	San Lucas Tolimán	10	San Lucas Tolimán	3	Marzo	2023-03-27T00:00:00	2024-11-08T07:00:00	3	Temperatura mínima	13.4
114604	7	Sololá	713	San Lucas Tolimán	10	San Lucas Tolimán	3	Marzo	2023-03-27T00:00:00	2024-11-08T07:00:00	5	Humedad	64
114605	7	Sololá	713	San Lucas Tolimán	10	San Lucas Tolimán	3	Marzo	2023-03-27T00:00:00	2024-11-08T07:00:00	6	Velocidad del viento	1.6
114606	7	Sololá	713	San Lucas Tolimán	10	San Lucas Tolimán	3	Marzo	2023-03-27T00:00:00	2024-11-08T07:00:00	7	Dirección del viento	1.61
114607	7	Sololá	713	San Lucas Tolimán	10	San Lucas Tolimán	3	Marzo	2023-03-27T00:00:00	2024-11-08T07:00:00	1	Precipitación	0
114608	7	Sololá	713	San Lucas Tolimán	10	San Lucas Tolimán	3	Marzo	2023-03-27T00:00:00	2024-11-08T07:00:00	8	Radiación solar	23
114609	7	Sololá	713	San Lucas Tolimán	10	San Lucas Tolimán	3	Marzo	2023-03-27T00:00:00	2024-11-08T08:00:00	2	Temperatura media	19.5
114610	7	Sololá	713	San Lucas Tolimán	10	San Lucas Tolimán	3	Marzo	2023-03-27T00:00:00	2024-11-08T08:00:00	4	Temperatura máxima	19.5
114611	7	Sololá	713	San Lucas Tolimán	10	San Lucas Tolimán	3	Marzo	2023-03-27T00:00:00	2024-11-08T08:00:00	3	Temperatura mínima	14.2
114612	7	Sololá	713	San Lucas Tolimán	10	San Lucas Tolimán	3	Marzo	2023-03-27T00:00:00	2024-11-08T08:00:00	5	Humedad	55
114613	7	Sololá	713	San Lucas Tolimán	10	San Lucas Tolimán	3	Marzo	2023-03-27T00:00:00	2024-11-08T08:00:00	6	Velocidad del viento	0
114614	7	Sololá	713	San Lucas Tolimán	10	San Lucas Tolimán	3	Marzo	2023-03-27T00:00:00	2024-11-08T08:00:00	7	Dirección del viento	0
114615	7	Sololá	713	San Lucas Tolimán	10	San Lucas Tolimán	3	Marzo	2023-03-27T00:00:00	2024-11-08T08:00:00	1	Precipitación	0
114616	7	Sololá	713	San Lucas Tolimán	10	San Lucas Tolimán	3	Marzo	2023-03-27T00:00:00	2024-11-08T08:00:00	8	Radiación solar	214
114617	7	Sololá	713	San Lucas Tolimán	10	San Lucas Tolimán	3	Marzo	2023-03-27T00:00:00	2024-11-08T09:00:00	2	Temperatura media	21.6
114618	7	Sololá	713	San Lucas Tolimán	10	San Lucas Tolimán	3	Marzo	2023-03-27T00:00:00	2024-11-08T09:00:00	4	Temperatura máxima	21.6
114619	7	Sololá	713	San Lucas Tolimán	10	San Lucas Tolimán	3	Marzo	2023-03-27T00:00:00	2024-11-08T09:00:00	3	Temperatura mínima	19.6
114620	7	Sololá	713	San Lucas Tolimán	10	San Lucas Tolimán	3	Marzo	2023-03-27T00:00:00	2024-11-08T09:00:00	5	Humedad	49
114621	7	Sololá	713	San Lucas Tolimán	10	San Lucas Tolimán	3	Marzo	2023-03-27T00:00:00	2024-11-08T09:00:00	6	Velocidad del viento	3.2
114622	7	Sololá	713	San Lucas Tolimán	10	San Lucas Tolimán	3	Marzo	2023-03-27T00:00:00	2024-11-08T09:00:00	7	Dirección del viento	3.22
114623	7	Sololá	713	San Lucas Tolimán	10	San Lucas Tolimán	3	Marzo	2023-03-27T00:00:00	2024-11-08T09:00:00	1	Precipitación	0
114624	7	Sololá	713	San Lucas Tolimán	10	San Lucas Tolimán	3	Marzo	2023-03-27T00:00:00	2024-11-08T09:00:00	8	Radiación solar	524
114625	7	Sololá	713	San Lucas Tolimán	10	San Lucas Tolimán	3	Marzo	2023-03-27T00:00:00	2024-11-08T10:00:00	2	Temperatura media	21.9
114626	7	Sololá	713	San Lucas Tolimán	10	San Lucas Tolimán	3	Marzo	2023-03-27T00:00:00	2024-11-08T10:00:00	4	Temperatura máxima	22.1
114627	7	Sololá	713	San Lucas Tolimán	10	San Lucas Tolimán	3	Marzo	2023-03-27T00:00:00	2024-11-08T10:00:00	3	Temperatura mínima	21.6
114628	7	Sololá	713	San Lucas Tolimán	10	San Lucas Tolimán	3	Marzo	2023-03-27T00:00:00	2024-11-08T10:00:00	5	Humedad	47
114629	7	Sololá	713	San Lucas Tolimán	10	San Lucas Tolimán	3	Marzo	2023-03-27T00:00:00	2024-11-08T10:00:00	6	Velocidad del viento	6.4
114630	7	Sololá	713	San Lucas Tolimán	10	San Lucas Tolimán	3	Marzo	2023-03-27T00:00:00	2024-11-08T10:00:00	7	Dirección del viento	6.44
114631	7	Sololá	713	San Lucas Tolimán	10	San Lucas Tolimán	3	Marzo	2023-03-27T00:00:00	2024-11-08T10:00:00	1	Precipitación	0
114632	7	Sololá	713	San Lucas Tolimán	10	San Lucas Tolimán	3	Marzo	2023-03-27T00:00:00	2024-11-08T10:00:00	8	Radiación solar	799
114633	7	Sololá	713	San Lucas Tolimán	10	San Lucas Tolimán	3	Marzo	2023-03-27T00:00:00	2024-11-08T11:00:00	2	Temperatura media	23.5
114634	7	Sololá	713	San Lucas Tolimán	10	San Lucas Tolimán	3	Marzo	2023-03-27T00:00:00	2024-11-08T11:00:00	4	Temperatura máxima	23.8
114635	7	Sololá	713	San Lucas Tolimán	10	San Lucas Tolimán	3	Marzo	2023-03-27T00:00:00	2024-11-08T11:00:00	3	Temperatura mínima	21.9
114636	7	Sololá	713	San Lucas Tolimán	10	San Lucas Tolimán	3	Marzo	2023-03-27T00:00:00	2024-11-08T11:00:00	5	Humedad	49
114637	7	Sololá	713	San Lucas Tolimán	10	San Lucas Tolimán	3	Marzo	2023-03-27T00:00:00	2024-11-08T11:00:00	6	Velocidad del viento	8
114638	7	Sololá	713	San Lucas Tolimán	10	San Lucas Tolimán	3	Marzo	2023-03-27T00:00:00	2024-11-08T11:00:00	7	Dirección del viento	8.05
114639	7	Sololá	713	San Lucas Tolimán	10	San Lucas Tolimán	3	Marzo	2023-03-27T00:00:00	2024-11-08T11:00:00	1	Precipitación	0
114640	7	Sololá	713	San Lucas Tolimán	10	San Lucas Tolimán	3	Marzo	2023-03-27T00:00:00	2024-11-08T11:00:00	8	Radiación solar	1014
114641	7	Sololá	713	San Lucas Tolimán	10	San Lucas Tolimán	3	Marzo	2023-03-27T00:00:00	2024-11-08T12:00:00	2	Temperatura media	22.3
114642	7	Sololá	713	San Lucas Tolimán	10	San Lucas Tolimán	3	Marzo	2023-03-27T00:00:00	2024-11-08T12:00:00	4	Temperatura máxima	23.5
114643	7	Sololá	713	San Lucas Tolimán	10	San Lucas Tolimán	3	Marzo	2023-03-27T00:00:00	2024-11-08T12:00:00	3	Temperatura mínima	22.2
114644	7	Sololá	713	San Lucas Tolimán	10	San Lucas Tolimán	3	Marzo	2023-03-27T00:00:00	2024-11-08T12:00:00	5	Humedad	57
114645	7	Sololá	713	San Lucas Tolimán	10	San Lucas Tolimán	3	Marzo	2023-03-27T00:00:00	2024-11-08T12:00:00	6	Velocidad del viento	9.7
114646	7	Sololá	713	San Lucas Tolimán	10	San Lucas Tolimán	3	Marzo	2023-03-27T00:00:00	2024-11-08T12:00:00	7	Dirección del viento	9.66
114647	7	Sololá	713	San Lucas Tolimán	10	San Lucas Tolimán	3	Marzo	2023-03-27T00:00:00	2024-11-08T12:00:00	1	Precipitación	0
114648	7	Sololá	713	San Lucas Tolimán	10	San Lucas Tolimán	3	Marzo	2023-03-27T00:00:00	2024-11-08T12:00:00	8	Radiación solar	1141
114649	7	Sololá	713	San Lucas Tolimán	10	San Lucas Tolimán	3	Marzo	2023-03-27T00:00:00	2024-11-08T13:00:00	2	Temperatura media	22.6
114650	7	Sololá	713	San Lucas Tolimán	10	San Lucas Tolimán	3	Marzo	2023-03-27T00:00:00	2024-11-08T13:00:00	4	Temperatura máxima	23.1
114651	7	Sololá	713	San Lucas Tolimán	10	San Lucas Tolimán	3	Marzo	2023-03-27T00:00:00	2024-11-08T13:00:00	3	Temperatura mínima	22.2
114652	7	Sololá	713	San Lucas Tolimán	10	San Lucas Tolimán	3	Marzo	2023-03-27T00:00:00	2024-11-08T13:00:00	5	Humedad	57
114653	7	Sololá	713	San Lucas Tolimán	10	San Lucas Tolimán	3	Marzo	2023-03-27T00:00:00	2024-11-08T13:00:00	6	Velocidad del viento	9.7
114654	7	Sololá	713	San Lucas Tolimán	10	San Lucas Tolimán	3	Marzo	2023-03-27T00:00:00	2024-11-08T13:00:00	7	Dirección del viento	9.66
114655	7	Sololá	713	San Lucas Tolimán	10	San Lucas Tolimán	3	Marzo	2023-03-27T00:00:00	2024-11-08T13:00:00	1	Precipitación	0
114656	7	Sololá	713	San Lucas Tolimán	10	San Lucas Tolimán	3	Marzo	2023-03-27T00:00:00	2024-11-08T13:00:00	8	Radiación solar	1006
114657	7	Sololá	713	San Lucas Tolimán	10	San Lucas Tolimán	3	Marzo	2023-03-27T00:00:00	2024-11-08T14:00:00	2	Temperatura media	21.8
114658	7	Sololá	713	San Lucas Tolimán	10	San Lucas Tolimán	3	Marzo	2023-03-27T00:00:00	2024-11-08T14:00:00	4	Temperatura máxima	23.1
114659	7	Sololá	713	San Lucas Tolimán	10	San Lucas Tolimán	3	Marzo	2023-03-27T00:00:00	2024-11-08T14:00:00	3	Temperatura mínima	21.6
114660	7	Sololá	713	San Lucas Tolimán	10	San Lucas Tolimán	3	Marzo	2023-03-27T00:00:00	2024-11-08T14:00:00	5	Humedad	59
114661	7	Sololá	713	San Lucas Tolimán	10	San Lucas Tolimán	3	Marzo	2023-03-27T00:00:00	2024-11-08T14:00:00	6	Velocidad del viento	11.3
114662	7	Sololá	713	San Lucas Tolimán	10	San Lucas Tolimán	3	Marzo	2023-03-27T00:00:00	2024-11-08T14:00:00	7	Dirección del viento	11.27
114663	7	Sololá	713	San Lucas Tolimán	10	San Lucas Tolimán	3	Marzo	2023-03-27T00:00:00	2024-11-08T14:00:00	1	Precipitación	0
114664	7	Sololá	713	San Lucas Tolimán	10	San Lucas Tolimán	3	Marzo	2023-03-27T00:00:00	2024-11-08T14:00:00	8	Radiación solar	1062
114665	7	Sololá	713	San Lucas Tolimán	10	San Lucas Tolimán	3	Marzo	2023-03-27T00:00:00	2024-11-08T15:00:00	2	Temperatura media	22.9
114666	7	Sololá	713	San Lucas Tolimán	10	San Lucas Tolimán	3	Marzo	2023-03-27T00:00:00	2024-11-08T15:00:00	4	Temperatura máxima	22.9
114667	7	Sololá	713	San Lucas Tolimán	10	San Lucas Tolimán	3	Marzo	2023-03-27T00:00:00	2024-11-08T15:00:00	3	Temperatura mínima	21.8
114668	7	Sololá	713	San Lucas Tolimán	10	San Lucas Tolimán	3	Marzo	2023-03-27T00:00:00	2024-11-08T15:00:00	5	Humedad	57
114669	7	Sololá	713	San Lucas Tolimán	10	San Lucas Tolimán	3	Marzo	2023-03-27T00:00:00	2024-11-08T15:00:00	6	Velocidad del viento	11.3
114670	7	Sololá	713	San Lucas Tolimán	10	San Lucas Tolimán	3	Marzo	2023-03-27T00:00:00	2024-11-08T15:00:00	7	Dirección del viento	11.27
114671	7	Sololá	713	San Lucas Tolimán	10	San Lucas Tolimán	3	Marzo	2023-03-27T00:00:00	2024-11-08T15:00:00	1	Precipitación	0
114672	7	Sololá	713	San Lucas Tolimán	10	San Lucas Tolimán	3	Marzo	2023-03-27T00:00:00	2024-11-08T15:00:00	8	Radiación solar	893
114673	7	Sololá	713	San Lucas Tolimán	10	San Lucas Tolimán	3	Marzo	2023-03-27T00:00:00	2024-11-08T16:00:00	2	Temperatura media	21.4
114674	7	Sololá	713	San Lucas Tolimán	10	San Lucas Tolimán	3	Marzo	2023-03-27T00:00:00	2024-11-08T16:00:00	4	Temperatura máxima	23.1
114675	7	Sololá	713	San Lucas Tolimán	10	San Lucas Tolimán	3	Marzo	2023-03-27T00:00:00	2024-11-08T16:00:00	3	Temperatura mínima	21.4
114676	7	Sololá	713	San Lucas Tolimán	10	San Lucas Tolimán	3	Marzo	2023-03-27T00:00:00	2024-11-08T16:00:00	5	Humedad	60
114677	7	Sololá	713	San Lucas Tolimán	10	San Lucas Tolimán	3	Marzo	2023-03-27T00:00:00	2024-11-08T16:00:00	6	Velocidad del viento	11.3
114678	7	Sololá	713	San Lucas Tolimán	10	San Lucas Tolimán	3	Marzo	2023-03-27T00:00:00	2024-11-08T16:00:00	7	Dirección del viento	11.27
114679	7	Sololá	713	San Lucas Tolimán	10	San Lucas Tolimán	3	Marzo	2023-03-27T00:00:00	2024-11-08T16:00:00	1	Precipitación	0
114680	7	Sololá	713	San Lucas Tolimán	10	San Lucas Tolimán	3	Marzo	2023-03-27T00:00:00	2024-11-08T16:00:00	8	Radiación solar	654
114681	7	Sololá	713	San Lucas Tolimán	10	San Lucas Tolimán	3	Marzo	2023-03-27T00:00:00	2024-11-08T17:00:00	2	Temperatura media	21.1
114682	7	Sololá	713	San Lucas Tolimán	10	San Lucas Tolimán	3	Marzo	2023-03-27T00:00:00	2024-11-08T17:00:00	4	Temperatura máxima	21.5
114683	7	Sololá	713	San Lucas Tolimán	10	San Lucas Tolimán	3	Marzo	2023-03-27T00:00:00	2024-11-08T17:00:00	3	Temperatura mínima	20.6
114684	7	Sololá	713	San Lucas Tolimán	10	San Lucas Tolimán	3	Marzo	2023-03-27T00:00:00	2024-11-08T17:00:00	5	Humedad	63
114685	7	Sololá	713	San Lucas Tolimán	10	San Lucas Tolimán	3	Marzo	2023-03-27T00:00:00	2024-11-08T17:00:00	6	Velocidad del viento	9.7
114686	7	Sololá	713	San Lucas Tolimán	10	San Lucas Tolimán	3	Marzo	2023-03-27T00:00:00	2024-11-08T17:00:00	7	Dirección del viento	9.66
114687	7	Sololá	713	San Lucas Tolimán	10	San Lucas Tolimán	3	Marzo	2023-03-27T00:00:00	2024-11-08T17:00:00	1	Precipitación	0
114688	7	Sololá	713	San Lucas Tolimán	10	San Lucas Tolimán	3	Marzo	2023-03-27T00:00:00	2024-11-08T17:00:00	8	Radiación solar	328
114689	7	Sololá	713	San Lucas Tolimán	10	San Lucas Tolimán	3	Marzo	2023-03-27T00:00:00	2024-11-08T18:00:00	2	Temperatura media	19.8
114690	7	Sololá	713	San Lucas Tolimán	10	San Lucas Tolimán	3	Marzo	2023-03-27T00:00:00	2024-11-08T18:00:00	4	Temperatura máxima	21.1
114691	7	Sololá	713	San Lucas Tolimán	10	San Lucas Tolimán	3	Marzo	2023-03-27T00:00:00	2024-11-08T18:00:00	3	Temperatura mínima	19.8
114692	7	Sololá	713	San Lucas Tolimán	10	San Lucas Tolimán	3	Marzo	2023-03-27T00:00:00	2024-11-08T18:00:00	5	Humedad	62
114693	7	Sololá	713	San Lucas Tolimán	10	San Lucas Tolimán	3	Marzo	2023-03-27T00:00:00	2024-11-08T18:00:00	6	Velocidad del viento	6.4
114694	7	Sololá	713	San Lucas Tolimán	10	San Lucas Tolimán	3	Marzo	2023-03-27T00:00:00	2024-11-08T18:00:00	7	Dirección del viento	6.44
114695	7	Sololá	713	San Lucas Tolimán	10	San Lucas Tolimán	3	Marzo	2023-03-27T00:00:00	2024-11-08T18:00:00	1	Precipitación	0
114696	7	Sololá	713	San Lucas Tolimán	10	San Lucas Tolimán	3	Marzo	2023-03-27T00:00:00	2024-11-08T18:00:00	8	Radiación solar	67
114697	7	Sololá	713	San Lucas Tolimán	10	San Lucas Tolimán	3	Marzo	2023-03-27T00:00:00	2024-11-08T19:00:00	2	Temperatura media	19.1
114698	7	Sololá	713	San Lucas Tolimán	10	San Lucas Tolimán	3	Marzo	2023-03-27T00:00:00	2024-11-08T19:00:00	4	Temperatura máxima	19.9
114699	7	Sololá	713	San Lucas Tolimán	10	San Lucas Tolimán	3	Marzo	2023-03-27T00:00:00	2024-11-08T19:00:00	3	Temperatura mínima	19
114700	7	Sololá	713	San Lucas Tolimán	10	San Lucas Tolimán	3	Marzo	2023-03-27T00:00:00	2024-11-08T19:00:00	5	Humedad	63
114701	7	Sololá	713	San Lucas Tolimán	10	San Lucas Tolimán	3	Marzo	2023-03-27T00:00:00	2024-11-08T19:00:00	6	Velocidad del viento	6.4
114702	7	Sololá	713	San Lucas Tolimán	10	San Lucas Tolimán	3	Marzo	2023-03-27T00:00:00	2024-11-08T19:00:00	7	Dirección del viento	6.44
114703	7	Sololá	713	San Lucas Tolimán	10	San Lucas Tolimán	3	Marzo	2023-03-27T00:00:00	2024-11-08T19:00:00	1	Precipitación	0
114704	7	Sololá	713	San Lucas Tolimán	10	San Lucas Tolimán	3	Marzo	2023-03-27T00:00:00	2024-11-08T19:00:00	8	Radiación solar	0
114705	7	Sololá	713	San Lucas Tolimán	10	San Lucas Tolimán	3	Marzo	2023-03-27T00:00:00	2024-11-08T20:00:00	2	Temperatura media	18.8
114706	7	Sololá	713	San Lucas Tolimán	10	San Lucas Tolimán	3	Marzo	2023-03-27T00:00:00	2024-11-08T20:00:00	4	Temperatura máxima	19.1
114707	7	Sololá	713	San Lucas Tolimán	10	San Lucas Tolimán	3	Marzo	2023-03-27T00:00:00	2024-11-08T20:00:00	3	Temperatura mínima	18.8
114708	7	Sololá	713	San Lucas Tolimán	10	San Lucas Tolimán	3	Marzo	2023-03-27T00:00:00	2024-11-08T20:00:00	5	Humedad	62
114709	7	Sololá	713	San Lucas Tolimán	10	San Lucas Tolimán	3	Marzo	2023-03-27T00:00:00	2024-11-08T20:00:00	6	Velocidad del viento	4.8
114710	7	Sololá	713	San Lucas Tolimán	10	San Lucas Tolimán	3	Marzo	2023-03-27T00:00:00	2024-11-08T20:00:00	7	Dirección del viento	4.83
114711	7	Sololá	713	San Lucas Tolimán	10	San Lucas Tolimán	3	Marzo	2023-03-27T00:00:00	2024-11-08T20:00:00	1	Precipitación	0
114712	7	Sololá	713	San Lucas Tolimán	10	San Lucas Tolimán	3	Marzo	2023-03-27T00:00:00	2024-11-08T20:00:00	8	Radiación solar	0
114713	7	Sololá	713	San Lucas Tolimán	10	San Lucas Tolimán	3	Marzo	2023-03-27T00:00:00	2024-11-08T21:00:00	2	Temperatura media	18.6
114714	7	Sololá	713	San Lucas Tolimán	10	San Lucas Tolimán	3	Marzo	2023-03-27T00:00:00	2024-11-08T21:00:00	4	Temperatura máxima	18.8
114715	7	Sololá	713	San Lucas Tolimán	10	San Lucas Tolimán	3	Marzo	2023-03-27T00:00:00	2024-11-08T21:00:00	3	Temperatura mínima	18.4
114716	7	Sololá	713	San Lucas Tolimán	10	San Lucas Tolimán	3	Marzo	2023-03-27T00:00:00	2024-11-08T21:00:00	5	Humedad	63
114717	7	Sololá	713	San Lucas Tolimán	10	San Lucas Tolimán	3	Marzo	2023-03-27T00:00:00	2024-11-08T21:00:00	6	Velocidad del viento	4.8
114718	7	Sololá	713	San Lucas Tolimán	10	San Lucas Tolimán	3	Marzo	2023-03-27T00:00:00	2024-11-08T21:00:00	7	Dirección del viento	4.83
114719	7	Sololá	713	San Lucas Tolimán	10	San Lucas Tolimán	3	Marzo	2023-03-27T00:00:00	2024-11-08T21:00:00	1	Precipitación	0
114720	7	Sololá	713	San Lucas Tolimán	10	San Lucas Tolimán	3	Marzo	2023-03-27T00:00:00	2024-11-08T21:00:00	8	Radiación solar	0
114721	7	Sololá	713	San Lucas Tolimán	10	San Lucas Tolimán	3	Marzo	2023-03-27T00:00:00	2024-11-08T22:00:00	2	Temperatura media	18.1
114722	7	Sololá	713	San Lucas Tolimán	10	San Lucas Tolimán	3	Marzo	2023-03-27T00:00:00	2024-11-08T22:00:00	4	Temperatura máxima	18.6
114723	7	Sololá	713	San Lucas Tolimán	10	San Lucas Tolimán	3	Marzo	2023-03-27T00:00:00	2024-11-08T22:00:00	3	Temperatura mínima	18.1
114724	7	Sololá	713	San Lucas Tolimán	10	San Lucas Tolimán	3	Marzo	2023-03-27T00:00:00	2024-11-08T22:00:00	5	Humedad	63
114725	7	Sololá	713	San Lucas Tolimán	10	San Lucas Tolimán	3	Marzo	2023-03-27T00:00:00	2024-11-08T22:00:00	6	Velocidad del viento	6.4
114726	7	Sololá	713	San Lucas Tolimán	10	San Lucas Tolimán	3	Marzo	2023-03-27T00:00:00	2024-11-08T22:00:00	7	Dirección del viento	6.44
114727	7	Sololá	713	San Lucas Tolimán	10	San Lucas Tolimán	3	Marzo	2023-03-27T00:00:00	2024-11-08T22:00:00	1	Precipitación	0
114728	7	Sololá	713	San Lucas Tolimán	10	San Lucas Tolimán	3	Marzo	2023-03-27T00:00:00	2024-11-08T22:00:00	8	Radiación solar	0
114729	7	Sololá	713	San Lucas Tolimán	10	San Lucas Tolimán	3	Marzo	2023-03-27T00:00:00	2024-11-08T23:00:00	2	Temperatura media	17.4
114730	7	Sololá	713	San Lucas Tolimán	10	San Lucas Tolimán	3	Marzo	2023-03-27T00:00:00	2024-11-08T23:00:00	4	Temperatura máxima	18.1
114731	7	Sololá	713	San Lucas Tolimán	10	San Lucas Tolimán	3	Marzo	2023-03-27T00:00:00	2024-11-08T23:00:00	3	Temperatura mínima	17.3
114732	7	Sololá	713	San Lucas Tolimán	10	San Lucas Tolimán	3	Marzo	2023-03-27T00:00:00	2024-11-08T23:00:00	5	Humedad	61
114733	7	Sololá	713	San Lucas Tolimán	10	San Lucas Tolimán	3	Marzo	2023-03-27T00:00:00	2024-11-08T23:00:00	6	Velocidad del viento	4.8
114734	7	Sololá	713	San Lucas Tolimán	10	San Lucas Tolimán	3	Marzo	2023-03-27T00:00:00	2024-11-08T23:00:00	7	Dirección del viento	4.83
114735	7	Sololá	713	San Lucas Tolimán	10	San Lucas Tolimán	3	Marzo	2023-03-27T00:00:00	2024-11-08T23:00:00	1	Precipitación	0
114736	7	Sololá	713	San Lucas Tolimán	10	San Lucas Tolimán	3	Marzo	2023-03-27T00:00:00	2024-11-08T23:00:00	8	Radiación solar	0
114737	7	Sololá	713	San Lucas Tolimán	10	San Lucas Tolimán	3	Marzo	2023-03-28T00:00:00	2024-11-08T00:00:00	2	Temperatura media	16.6
114738	7	Sololá	713	San Lucas Tolimán	10	San Lucas Tolimán	3	Marzo	2023-03-28T00:00:00	2024-11-08T00:00:00	4	Temperatura máxima	17.5
114739	7	Sololá	713	San Lucas Tolimán	10	San Lucas Tolimán	3	Marzo	2023-03-28T00:00:00	2024-11-08T00:00:00	3	Temperatura mínima	16.6
114740	7	Sololá	713	San Lucas Tolimán	10	San Lucas Tolimán	3	Marzo	2023-03-28T00:00:00	2024-11-08T00:00:00	5	Humedad	62
114741	7	Sololá	713	San Lucas Tolimán	10	San Lucas Tolimán	3	Marzo	2023-03-28T00:00:00	2024-11-08T00:00:00	6	Velocidad del viento	3.2
114742	7	Sololá	713	San Lucas Tolimán	10	San Lucas Tolimán	3	Marzo	2023-03-28T00:00:00	2024-11-08T00:00:00	7	Dirección del viento	3.22
114743	7	Sololá	713	San Lucas Tolimán	10	San Lucas Tolimán	3	Marzo	2023-03-28T00:00:00	2024-11-08T00:00:00	1	Precipitación	0
114744	7	Sololá	713	San Lucas Tolimán	10	San Lucas Tolimán	3	Marzo	2023-03-28T00:00:00	2024-11-08T00:00:00	8	Radiación solar	0
114745	7	Sololá	713	San Lucas Tolimán	10	San Lucas Tolimán	3	Marzo	2023-03-28T00:00:00	2024-11-08T01:00:00	2	Temperatura media	15.9
114746	7	Sololá	713	San Lucas Tolimán	10	San Lucas Tolimán	3	Marzo	2023-03-28T00:00:00	2024-11-08T01:00:00	4	Temperatura máxima	16.6
114747	7	Sololá	713	San Lucas Tolimán	10	San Lucas Tolimán	3	Marzo	2023-03-28T00:00:00	2024-11-08T01:00:00	3	Temperatura mínima	15.9
114748	7	Sololá	713	San Lucas Tolimán	10	San Lucas Tolimán	3	Marzo	2023-03-28T00:00:00	2024-11-08T01:00:00	5	Humedad	63
114749	7	Sololá	713	San Lucas Tolimán	10	San Lucas Tolimán	3	Marzo	2023-03-28T00:00:00	2024-11-08T01:00:00	6	Velocidad del viento	3.2
114750	7	Sololá	713	San Lucas Tolimán	10	San Lucas Tolimán	3	Marzo	2023-03-28T00:00:00	2024-11-08T01:00:00	7	Dirección del viento	3.22
114751	7	Sololá	713	San Lucas Tolimán	10	San Lucas Tolimán	3	Marzo	2023-03-28T00:00:00	2024-11-08T01:00:00	1	Precipitación	0
114752	7	Sololá	713	San Lucas Tolimán	10	San Lucas Tolimán	3	Marzo	2023-03-28T00:00:00	2024-11-08T01:00:00	8	Radiación solar	0
114753	7	Sololá	713	San Lucas Tolimán	10	San Lucas Tolimán	3	Marzo	2023-03-28T00:00:00	2024-11-08T02:00:00	2	Temperatura media	16.3
114754	7	Sololá	713	San Lucas Tolimán	10	San Lucas Tolimán	3	Marzo	2023-03-28T00:00:00	2024-11-08T02:00:00	4	Temperatura máxima	16.3
114755	7	Sololá	713	San Lucas Tolimán	10	San Lucas Tolimán	3	Marzo	2023-03-28T00:00:00	2024-11-08T02:00:00	3	Temperatura mínima	15.7
114756	7	Sololá	713	San Lucas Tolimán	10	San Lucas Tolimán	3	Marzo	2023-03-28T00:00:00	2024-11-08T02:00:00	5	Humedad	64
114757	7	Sololá	713	San Lucas Tolimán	10	San Lucas Tolimán	3	Marzo	2023-03-28T00:00:00	2024-11-08T02:00:00	6	Velocidad del viento	4.8
114758	7	Sololá	713	San Lucas Tolimán	10	San Lucas Tolimán	3	Marzo	2023-03-28T00:00:00	2024-11-08T02:00:00	7	Dirección del viento	4.83
114759	7	Sololá	713	San Lucas Tolimán	10	San Lucas Tolimán	3	Marzo	2023-03-28T00:00:00	2024-11-08T02:00:00	1	Precipitación	0
114760	7	Sololá	713	San Lucas Tolimán	10	San Lucas Tolimán	3	Marzo	2023-03-28T00:00:00	2024-11-08T02:00:00	8	Radiación solar	0
114761	7	Sololá	713	San Lucas Tolimán	10	San Lucas Tolimán	3	Marzo	2023-03-28T00:00:00	2024-11-08T03:00:00	2	Temperatura media	16.6
114762	7	Sololá	713	San Lucas Tolimán	10	San Lucas Tolimán	3	Marzo	2023-03-28T00:00:00	2024-11-08T03:00:00	4	Temperatura máxima	16.6
114763	7	Sololá	713	San Lucas Tolimán	10	San Lucas Tolimán	3	Marzo	2023-03-28T00:00:00	2024-11-08T03:00:00	3	Temperatura mínima	16.2
114764	7	Sololá	713	San Lucas Tolimán	10	San Lucas Tolimán	3	Marzo	2023-03-28T00:00:00	2024-11-08T03:00:00	5	Humedad	62
114765	7	Sololá	713	San Lucas Tolimán	10	San Lucas Tolimán	3	Marzo	2023-03-28T00:00:00	2024-11-08T03:00:00	6	Velocidad del viento	0
114766	7	Sololá	713	San Lucas Tolimán	10	San Lucas Tolimán	3	Marzo	2023-03-28T00:00:00	2024-11-08T03:00:00	7	Dirección del viento	0
114767	7	Sololá	713	San Lucas Tolimán	10	San Lucas Tolimán	3	Marzo	2023-03-28T00:00:00	2024-11-08T03:00:00	1	Precipitación	0
114768	7	Sololá	713	San Lucas Tolimán	10	San Lucas Tolimán	3	Marzo	2023-03-28T00:00:00	2024-11-08T03:00:00	8	Radiación solar	0
114769	7	Sololá	713	San Lucas Tolimán	10	San Lucas Tolimán	3	Marzo	2023-03-28T00:00:00	2024-11-08T04:00:00	2	Temperatura media	16.6
114770	7	Sololá	713	San Lucas Tolimán	10	San Lucas Tolimán	3	Marzo	2023-03-28T00:00:00	2024-11-08T04:00:00	4	Temperatura máxima	16.8
114771	7	Sololá	713	San Lucas Tolimán	10	San Lucas Tolimán	3	Marzo	2023-03-28T00:00:00	2024-11-08T04:00:00	3	Temperatura mínima	16.5
114772	7	Sololá	713	San Lucas Tolimán	10	San Lucas Tolimán	3	Marzo	2023-03-28T00:00:00	2024-11-08T04:00:00	5	Humedad	60
114773	7	Sololá	713	San Lucas Tolimán	10	San Lucas Tolimán	3	Marzo	2023-03-28T00:00:00	2024-11-08T04:00:00	6	Velocidad del viento	1.6
114774	7	Sololá	713	San Lucas Tolimán	10	San Lucas Tolimán	3	Marzo	2023-03-28T00:00:00	2024-11-08T04:00:00	7	Dirección del viento	1.61
114775	7	Sololá	713	San Lucas Tolimán	10	San Lucas Tolimán	3	Marzo	2023-03-28T00:00:00	2024-11-08T04:00:00	1	Precipitación	0
114776	7	Sololá	713	San Lucas Tolimán	10	San Lucas Tolimán	3	Marzo	2023-03-28T00:00:00	2024-11-08T04:00:00	8	Radiación solar	0
114777	7	Sololá	713	San Lucas Tolimán	10	San Lucas Tolimán	3	Marzo	2023-03-28T00:00:00	2024-11-08T05:00:00	2	Temperatura media	15.7
114778	7	Sololá	713	San Lucas Tolimán	10	San Lucas Tolimán	3	Marzo	2023-03-28T00:00:00	2024-11-08T05:00:00	4	Temperatura máxima	16.6
114779	7	Sololá	713	San Lucas Tolimán	10	San Lucas Tolimán	3	Marzo	2023-03-28T00:00:00	2024-11-08T05:00:00	3	Temperatura mínima	15.3
114780	7	Sololá	713	San Lucas Tolimán	10	San Lucas Tolimán	3	Marzo	2023-03-28T00:00:00	2024-11-08T05:00:00	5	Humedad	61
114781	7	Sololá	713	San Lucas Tolimán	10	San Lucas Tolimán	3	Marzo	2023-03-28T00:00:00	2024-11-08T05:00:00	6	Velocidad del viento	1.6
114782	7	Sololá	713	San Lucas Tolimán	10	San Lucas Tolimán	3	Marzo	2023-03-28T00:00:00	2024-11-08T05:00:00	7	Dirección del viento	1.61
114783	7	Sololá	713	San Lucas Tolimán	10	San Lucas Tolimán	3	Marzo	2023-03-28T00:00:00	2024-11-08T05:00:00	1	Precipitación	0
114784	7	Sololá	713	San Lucas Tolimán	10	San Lucas Tolimán	3	Marzo	2023-03-28T00:00:00	2024-11-08T05:00:00	8	Radiación solar	0
114785	7	Sololá	713	San Lucas Tolimán	10	San Lucas Tolimán	3	Marzo	2023-03-28T00:00:00	2024-11-08T06:00:00	2	Temperatura media	16.1
114786	7	Sololá	713	San Lucas Tolimán	10	San Lucas Tolimán	3	Marzo	2023-03-28T00:00:00	2024-11-08T06:00:00	4	Temperatura máxima	16.2
114787	7	Sololá	713	San Lucas Tolimán	10	San Lucas Tolimán	3	Marzo	2023-03-28T00:00:00	2024-11-08T06:00:00	3	Temperatura mínima	15.7
114788	7	Sololá	713	San Lucas Tolimán	10	San Lucas Tolimán	3	Marzo	2023-03-28T00:00:00	2024-11-08T06:00:00	5	Humedad	60
114789	7	Sololá	713	San Lucas Tolimán	10	San Lucas Tolimán	3	Marzo	2023-03-28T00:00:00	2024-11-08T06:00:00	6	Velocidad del viento	0
114790	7	Sololá	713	San Lucas Tolimán	10	San Lucas Tolimán	3	Marzo	2023-03-28T00:00:00	2024-11-08T06:00:00	7	Dirección del viento	0
114791	7	Sololá	713	San Lucas Tolimán	10	San Lucas Tolimán	3	Marzo	2023-03-28T00:00:00	2024-11-08T06:00:00	1	Precipitación	0
114792	7	Sololá	713	San Lucas Tolimán	10	San Lucas Tolimán	3	Marzo	2023-03-28T00:00:00	2024-11-08T06:00:00	8	Radiación solar	0
114793	7	Sololá	713	San Lucas Tolimán	10	San Lucas Tolimán	3	Marzo	2023-03-28T00:00:00	2024-11-08T07:00:00	2	Temperatura media	16.6
114794	7	Sololá	713	San Lucas Tolimán	10	San Lucas Tolimán	3	Marzo	2023-03-28T00:00:00	2024-11-08T07:00:00	4	Temperatura máxima	16.6
114795	7	Sololá	713	San Lucas Tolimán	10	San Lucas Tolimán	3	Marzo	2023-03-28T00:00:00	2024-11-08T07:00:00	3	Temperatura mínima	16.1
114796	7	Sololá	713	San Lucas Tolimán	10	San Lucas Tolimán	3	Marzo	2023-03-28T00:00:00	2024-11-08T07:00:00	5	Humedad	60
114797	7	Sololá	713	San Lucas Tolimán	10	San Lucas Tolimán	3	Marzo	2023-03-28T00:00:00	2024-11-08T07:00:00	6	Velocidad del viento	0
114798	7	Sololá	713	San Lucas Tolimán	10	San Lucas Tolimán	3	Marzo	2023-03-28T00:00:00	2024-11-08T07:00:00	7	Dirección del viento	0
114799	7	Sololá	713	San Lucas Tolimán	10	San Lucas Tolimán	3	Marzo	2023-03-28T00:00:00	2024-11-08T07:00:00	1	Precipitación	0
114800	7	Sololá	713	San Lucas Tolimán	10	San Lucas Tolimán	3	Marzo	2023-03-28T00:00:00	2024-11-08T07:00:00	8	Radiación solar	31
114801	7	Sololá	713	San Lucas Tolimán	10	San Lucas Tolimán	3	Marzo	2023-03-28T00:00:00	2024-11-08T08:00:00	2	Temperatura media	19.2
114802	7	Sololá	713	San Lucas Tolimán	10	San Lucas Tolimán	3	Marzo	2023-03-28T00:00:00	2024-11-08T08:00:00	4	Temperatura máxima	19.5
114803	7	Sololá	713	San Lucas Tolimán	10	San Lucas Tolimán	3	Marzo	2023-03-28T00:00:00	2024-11-08T08:00:00	3	Temperatura mínima	16.6
114804	7	Sololá	713	San Lucas Tolimán	10	San Lucas Tolimán	3	Marzo	2023-03-28T00:00:00	2024-11-08T08:00:00	5	Humedad	58
114805	7	Sololá	713	San Lucas Tolimán	10	San Lucas Tolimán	3	Marzo	2023-03-28T00:00:00	2024-11-08T08:00:00	6	Velocidad del viento	1.6
114806	7	Sololá	713	San Lucas Tolimán	10	San Lucas Tolimán	3	Marzo	2023-03-28T00:00:00	2024-11-08T08:00:00	7	Dirección del viento	1.61
114807	7	Sololá	713	San Lucas Tolimán	10	San Lucas Tolimán	3	Marzo	2023-03-28T00:00:00	2024-11-08T08:00:00	1	Precipitación	0
114808	7	Sololá	713	San Lucas Tolimán	10	San Lucas Tolimán	3	Marzo	2023-03-28T00:00:00	2024-11-08T08:00:00	8	Radiación solar	198
114809	7	Sololá	713	San Lucas Tolimán	10	San Lucas Tolimán	3	Marzo	2023-03-28T00:00:00	2024-11-08T09:00:00	2	Temperatura media	20.7
114810	7	Sololá	713	San Lucas Tolimán	10	San Lucas Tolimán	3	Marzo	2023-03-28T00:00:00	2024-11-08T09:00:00	4	Temperatura máxima	20.7
114811	7	Sololá	713	San Lucas Tolimán	10	San Lucas Tolimán	3	Marzo	2023-03-28T00:00:00	2024-11-08T09:00:00	3	Temperatura mínima	18.9
114812	7	Sololá	713	San Lucas Tolimán	10	San Lucas Tolimán	3	Marzo	2023-03-28T00:00:00	2024-11-08T09:00:00	5	Humedad	57
114813	7	Sololá	713	San Lucas Tolimán	10	San Lucas Tolimán	3	Marzo	2023-03-28T00:00:00	2024-11-08T09:00:00	6	Velocidad del viento	3.2
114814	7	Sololá	713	San Lucas Tolimán	10	San Lucas Tolimán	3	Marzo	2023-03-28T00:00:00	2024-11-08T09:00:00	7	Dirección del viento	3.22
114815	7	Sololá	713	San Lucas Tolimán	10	San Lucas Tolimán	3	Marzo	2023-03-28T00:00:00	2024-11-08T09:00:00	1	Precipitación	0
114816	7	Sololá	713	San Lucas Tolimán	10	San Lucas Tolimán	3	Marzo	2023-03-28T00:00:00	2024-11-08T09:00:00	8	Radiación solar	424
114817	7	Sololá	713	San Lucas Tolimán	10	San Lucas Tolimán	3	Marzo	2023-03-28T00:00:00	2024-11-08T10:00:00	2	Temperatura media	21.9
114818	7	Sololá	713	San Lucas Tolimán	10	San Lucas Tolimán	3	Marzo	2023-03-28T00:00:00	2024-11-08T10:00:00	4	Temperatura máxima	22.2
114819	7	Sololá	713	San Lucas Tolimán	10	San Lucas Tolimán	3	Marzo	2023-03-28T00:00:00	2024-11-08T10:00:00	3	Temperatura mínima	20.3
114820	7	Sololá	713	San Lucas Tolimán	10	San Lucas Tolimán	3	Marzo	2023-03-28T00:00:00	2024-11-08T10:00:00	5	Humedad	58
114821	7	Sololá	713	San Lucas Tolimán	10	San Lucas Tolimán	3	Marzo	2023-03-28T00:00:00	2024-11-08T10:00:00	6	Velocidad del viento	6.4
114822	7	Sololá	713	San Lucas Tolimán	10	San Lucas Tolimán	3	Marzo	2023-03-28T00:00:00	2024-11-08T10:00:00	7	Dirección del viento	6.44
114823	7	Sololá	713	San Lucas Tolimán	10	San Lucas Tolimán	3	Marzo	2023-03-28T00:00:00	2024-11-08T10:00:00	1	Precipitación	0
114824	7	Sololá	713	San Lucas Tolimán	10	San Lucas Tolimán	3	Marzo	2023-03-28T00:00:00	2024-11-08T10:00:00	8	Radiación solar	798
114825	7	Sololá	713	San Lucas Tolimán	10	San Lucas Tolimán	3	Marzo	2023-03-28T00:00:00	2024-11-08T11:00:00	2	Temperatura media	22.8
114826	7	Sololá	713	San Lucas Tolimán	10	San Lucas Tolimán	3	Marzo	2023-03-28T00:00:00	2024-11-08T11:00:00	4	Temperatura máxima	23.1
114827	7	Sololá	713	San Lucas Tolimán	10	San Lucas Tolimán	3	Marzo	2023-03-28T00:00:00	2024-11-08T11:00:00	3	Temperatura mínima	21.9
114828	7	Sololá	713	San Lucas Tolimán	10	San Lucas Tolimán	3	Marzo	2023-03-28T00:00:00	2024-11-08T11:00:00	5	Humedad	55
114829	7	Sololá	713	San Lucas Tolimán	10	San Lucas Tolimán	3	Marzo	2023-03-28T00:00:00	2024-11-08T11:00:00	6	Velocidad del viento	9.7
114830	7	Sololá	713	San Lucas Tolimán	10	San Lucas Tolimán	3	Marzo	2023-03-28T00:00:00	2024-11-08T11:00:00	7	Dirección del viento	9.66
114831	7	Sololá	713	San Lucas Tolimán	10	San Lucas Tolimán	3	Marzo	2023-03-28T00:00:00	2024-11-08T11:00:00	1	Precipitación	0
114832	7	Sololá	713	San Lucas Tolimán	10	San Lucas Tolimán	3	Marzo	2023-03-28T00:00:00	2024-11-08T11:00:00	8	Radiación solar	985
114833	7	Sololá	713	San Lucas Tolimán	10	San Lucas Tolimán	3	Marzo	2023-03-28T00:00:00	2024-11-08T12:00:00	2	Temperatura media	23.4
114834	7	Sololá	713	San Lucas Tolimán	10	San Lucas Tolimán	3	Marzo	2023-03-28T00:00:00	2024-11-08T12:00:00	4	Temperatura máxima	23.4
114835	7	Sololá	713	San Lucas Tolimán	10	San Lucas Tolimán	3	Marzo	2023-03-28T00:00:00	2024-11-08T12:00:00	3	Temperatura mínima	22.4
114836	7	Sololá	713	San Lucas Tolimán	10	San Lucas Tolimán	3	Marzo	2023-03-28T00:00:00	2024-11-08T12:00:00	5	Humedad	54
114837	7	Sololá	713	San Lucas Tolimán	10	San Lucas Tolimán	3	Marzo	2023-03-28T00:00:00	2024-11-08T12:00:00	6	Velocidad del viento	9.7
114838	7	Sololá	713	San Lucas Tolimán	10	San Lucas Tolimán	3	Marzo	2023-03-28T00:00:00	2024-11-08T12:00:00	7	Dirección del viento	9.66
114839	7	Sololá	713	San Lucas Tolimán	10	San Lucas Tolimán	3	Marzo	2023-03-28T00:00:00	2024-11-08T12:00:00	1	Precipitación	0
114840	7	Sololá	713	San Lucas Tolimán	10	San Lucas Tolimán	3	Marzo	2023-03-28T00:00:00	2024-11-08T12:00:00	8	Radiación solar	1121
114841	7	Sololá	713	San Lucas Tolimán	10	San Lucas Tolimán	3	Marzo	2023-03-28T00:00:00	2024-11-08T13:00:00	2	Temperatura media	23.1
114842	7	Sololá	713	San Lucas Tolimán	10	San Lucas Tolimán	3	Marzo	2023-03-28T00:00:00	2024-11-08T13:00:00	4	Temperatura máxima	23.5
114843	7	Sololá	713	San Lucas Tolimán	10	San Lucas Tolimán	3	Marzo	2023-03-28T00:00:00	2024-11-08T13:00:00	3	Temperatura mínima	22.7
114844	7	Sololá	713	San Lucas Tolimán	10	San Lucas Tolimán	3	Marzo	2023-03-28T00:00:00	2024-11-08T13:00:00	5	Humedad	58
114845	7	Sololá	713	San Lucas Tolimán	10	San Lucas Tolimán	3	Marzo	2023-03-28T00:00:00	2024-11-08T13:00:00	6	Velocidad del viento	9.7
114846	7	Sololá	713	San Lucas Tolimán	10	San Lucas Tolimán	3	Marzo	2023-03-28T00:00:00	2024-11-08T13:00:00	7	Dirección del viento	9.66
114847	7	Sololá	713	San Lucas Tolimán	10	San Lucas Tolimán	3	Marzo	2023-03-28T00:00:00	2024-11-08T13:00:00	1	Precipitación	0
114848	7	Sololá	713	San Lucas Tolimán	10	San Lucas Tolimán	3	Marzo	2023-03-28T00:00:00	2024-11-08T13:00:00	8	Radiación solar	1150
114849	7	Sololá	713	San Lucas Tolimán	10	San Lucas Tolimán	3	Marzo	2023-03-28T00:00:00	2024-11-08T14:00:00	2	Temperatura media	22.9
114850	7	Sololá	713	San Lucas Tolimán	10	San Lucas Tolimán	3	Marzo	2023-03-28T00:00:00	2024-11-08T14:00:00	4	Temperatura máxima	23.3
114851	7	Sololá	713	San Lucas Tolimán	10	San Lucas Tolimán	3	Marzo	2023-03-28T00:00:00	2024-11-08T14:00:00	3	Temperatura mínima	22.3
114852	7	Sololá	713	San Lucas Tolimán	10	San Lucas Tolimán	3	Marzo	2023-03-28T00:00:00	2024-11-08T14:00:00	5	Humedad	57
114853	7	Sololá	713	San Lucas Tolimán	10	San Lucas Tolimán	3	Marzo	2023-03-28T00:00:00	2024-11-08T14:00:00	6	Velocidad del viento	9.7
114854	7	Sololá	713	San Lucas Tolimán	10	San Lucas Tolimán	3	Marzo	2023-03-28T00:00:00	2024-11-08T14:00:00	7	Dirección del viento	9.66
114855	7	Sololá	713	San Lucas Tolimán	10	San Lucas Tolimán	3	Marzo	2023-03-28T00:00:00	2024-11-08T14:00:00	1	Precipitación	0
114856	7	Sololá	713	San Lucas Tolimán	10	San Lucas Tolimán	3	Marzo	2023-03-28T00:00:00	2024-11-08T14:00:00	8	Radiación solar	1014
114857	7	Sololá	713	San Lucas Tolimán	10	San Lucas Tolimán	3	Marzo	2023-03-28T00:00:00	2024-11-08T15:00:00	2	Temperatura media	23
114858	7	Sololá	713	San Lucas Tolimán	10	San Lucas Tolimán	3	Marzo	2023-03-28T00:00:00	2024-11-08T15:00:00	4	Temperatura máxima	23.7
114859	7	Sololá	713	San Lucas Tolimán	10	San Lucas Tolimán	3	Marzo	2023-03-28T00:00:00	2024-11-08T15:00:00	3	Temperatura mínima	22.9
114860	7	Sololá	713	San Lucas Tolimán	10	San Lucas Tolimán	3	Marzo	2023-03-28T00:00:00	2024-11-08T15:00:00	5	Humedad	59
114861	7	Sololá	713	San Lucas Tolimán	10	San Lucas Tolimán	3	Marzo	2023-03-28T00:00:00	2024-11-08T15:00:00	6	Velocidad del viento	11.3
114862	7	Sololá	713	San Lucas Tolimán	10	San Lucas Tolimán	3	Marzo	2023-03-28T00:00:00	2024-11-08T15:00:00	7	Dirección del viento	11.27
114863	7	Sololá	713	San Lucas Tolimán	10	San Lucas Tolimán	3	Marzo	2023-03-28T00:00:00	2024-11-08T15:00:00	1	Precipitación	0
114864	7	Sololá	713	San Lucas Tolimán	10	San Lucas Tolimán	3	Marzo	2023-03-28T00:00:00	2024-11-08T15:00:00	8	Radiación solar	883
114865	7	Sololá	713	San Lucas Tolimán	10	San Lucas Tolimán	3	Marzo	2023-03-28T00:00:00	2024-11-08T16:00:00	2	Temperatura media	21.8
114866	7	Sololá	713	San Lucas Tolimán	10	San Lucas Tolimán	3	Marzo	2023-03-28T00:00:00	2024-11-08T16:00:00	4	Temperatura máxima	23
114867	7	Sololá	713	San Lucas Tolimán	10	San Lucas Tolimán	3	Marzo	2023-03-28T00:00:00	2024-11-08T16:00:00	3	Temperatura mínima	21.8
114868	7	Sololá	713	San Lucas Tolimán	10	San Lucas Tolimán	3	Marzo	2023-03-28T00:00:00	2024-11-08T16:00:00	5	Humedad	62
114869	7	Sololá	713	San Lucas Tolimán	10	San Lucas Tolimán	3	Marzo	2023-03-28T00:00:00	2024-11-08T16:00:00	6	Velocidad del viento	9.7
114870	7	Sololá	713	San Lucas Tolimán	10	San Lucas Tolimán	3	Marzo	2023-03-28T00:00:00	2024-11-08T16:00:00	7	Dirección del viento	9.66
114871	7	Sololá	713	San Lucas Tolimán	10	San Lucas Tolimán	3	Marzo	2023-03-28T00:00:00	2024-11-08T16:00:00	1	Precipitación	0
114872	7	Sololá	713	San Lucas Tolimán	10	San Lucas Tolimán	3	Marzo	2023-03-28T00:00:00	2024-11-08T16:00:00	8	Radiación solar	475
114873	7	Sololá	713	San Lucas Tolimán	10	San Lucas Tolimán	3	Marzo	2023-03-28T00:00:00	2024-11-08T17:00:00	2	Temperatura media	21.1
114874	7	Sololá	713	San Lucas Tolimán	10	San Lucas Tolimán	3	Marzo	2023-03-28T00:00:00	2024-11-08T17:00:00	4	Temperatura máxima	22.3
114875	7	Sololá	713	San Lucas Tolimán	10	San Lucas Tolimán	3	Marzo	2023-03-28T00:00:00	2024-11-08T17:00:00	3	Temperatura mínima	21.1
114876	7	Sololá	713	San Lucas Tolimán	10	San Lucas Tolimán	3	Marzo	2023-03-28T00:00:00	2024-11-08T17:00:00	5	Humedad	64
114877	7	Sololá	713	San Lucas Tolimán	10	San Lucas Tolimán	3	Marzo	2023-03-28T00:00:00	2024-11-08T17:00:00	6	Velocidad del viento	8
114878	7	Sololá	713	San Lucas Tolimán	10	San Lucas Tolimán	3	Marzo	2023-03-28T00:00:00	2024-11-08T17:00:00	7	Dirección del viento	8.05
114879	7	Sololá	713	San Lucas Tolimán	10	San Lucas Tolimán	3	Marzo	2023-03-28T00:00:00	2024-11-08T17:00:00	1	Precipitación	0
114880	7	Sololá	713	San Lucas Tolimán	10	San Lucas Tolimán	3	Marzo	2023-03-28T00:00:00	2024-11-08T17:00:00	8	Radiación solar	311
114881	7	Sololá	713	San Lucas Tolimán	10	San Lucas Tolimán	3	Marzo	2023-03-28T00:00:00	2024-11-08T18:00:00	2	Temperatura media	19.9
114882	7	Sololá	713	San Lucas Tolimán	10	San Lucas Tolimán	3	Marzo	2023-03-28T00:00:00	2024-11-08T18:00:00	4	Temperatura máxima	21
114883	7	Sololá	713	San Lucas Tolimán	10	San Lucas Tolimán	3	Marzo	2023-03-28T00:00:00	2024-11-08T18:00:00	3	Temperatura mínima	19.9
114884	7	Sololá	713	San Lucas Tolimán	10	San Lucas Tolimán	3	Marzo	2023-03-28T00:00:00	2024-11-08T18:00:00	5	Humedad	63
114885	7	Sololá	713	San Lucas Tolimán	10	San Lucas Tolimán	3	Marzo	2023-03-28T00:00:00	2024-11-08T18:00:00	6	Velocidad del viento	8
114886	7	Sololá	713	San Lucas Tolimán	10	San Lucas Tolimán	3	Marzo	2023-03-28T00:00:00	2024-11-08T18:00:00	7	Dirección del viento	8.05
114887	7	Sololá	713	San Lucas Tolimán	10	San Lucas Tolimán	3	Marzo	2023-03-28T00:00:00	2024-11-08T18:00:00	1	Precipitación	0
114888	7	Sololá	713	San Lucas Tolimán	10	San Lucas Tolimán	3	Marzo	2023-03-28T00:00:00	2024-11-08T18:00:00	8	Radiación solar	70
114889	7	Sololá	713	San Lucas Tolimán	10	San Lucas Tolimán	3	Marzo	2023-03-28T00:00:00	2024-11-08T19:00:00	2	Temperatura media	19.3
114890	7	Sololá	713	San Lucas Tolimán	10	San Lucas Tolimán	3	Marzo	2023-03-28T00:00:00	2024-11-08T19:00:00	4	Temperatura máxima	19.9
114891	7	Sololá	713	San Lucas Tolimán	10	San Lucas Tolimán	3	Marzo	2023-03-28T00:00:00	2024-11-08T19:00:00	3	Temperatura mínima	19.3
114892	7	Sololá	713	San Lucas Tolimán	10	San Lucas Tolimán	3	Marzo	2023-03-28T00:00:00	2024-11-08T19:00:00	5	Humedad	62
114893	7	Sololá	713	San Lucas Tolimán	10	San Lucas Tolimán	3	Marzo	2023-03-28T00:00:00	2024-11-08T19:00:00	6	Velocidad del viento	6.4
114894	7	Sololá	713	San Lucas Tolimán	10	San Lucas Tolimán	3	Marzo	2023-03-28T00:00:00	2024-11-08T19:00:00	7	Dirección del viento	6.44
114895	7	Sololá	713	San Lucas Tolimán	10	San Lucas Tolimán	3	Marzo	2023-03-28T00:00:00	2024-11-08T19:00:00	1	Precipitación	0
114896	7	Sololá	713	San Lucas Tolimán	10	San Lucas Tolimán	3	Marzo	2023-03-28T00:00:00	2024-11-08T19:00:00	8	Radiación solar	0
114897	7	Sololá	713	San Lucas Tolimán	10	San Lucas Tolimán	3	Marzo	2023-03-28T00:00:00	2024-11-08T20:00:00	2	Temperatura media	19.3
114898	7	Sololá	713	San Lucas Tolimán	10	San Lucas Tolimán	3	Marzo	2023-03-28T00:00:00	2024-11-08T20:00:00	4	Temperatura máxima	19.4
114899	7	Sololá	713	San Lucas Tolimán	10	San Lucas Tolimán	3	Marzo	2023-03-28T00:00:00	2024-11-08T20:00:00	3	Temperatura mínima	19.2
114900	7	Sololá	713	San Lucas Tolimán	10	San Lucas Tolimán	3	Marzo	2023-03-28T00:00:00	2024-11-08T20:00:00	5	Humedad	61
114901	7	Sololá	713	San Lucas Tolimán	10	San Lucas Tolimán	3	Marzo	2023-03-28T00:00:00	2024-11-08T20:00:00	6	Velocidad del viento	4.8
114902	7	Sololá	713	San Lucas Tolimán	10	San Lucas Tolimán	3	Marzo	2023-03-28T00:00:00	2024-11-08T20:00:00	7	Dirección del viento	4.83
114903	7	Sololá	713	San Lucas Tolimán	10	San Lucas Tolimán	3	Marzo	2023-03-28T00:00:00	2024-11-08T20:00:00	1	Precipitación	0
114904	7	Sololá	713	San Lucas Tolimán	10	San Lucas Tolimán	3	Marzo	2023-03-28T00:00:00	2024-11-08T20:00:00	8	Radiación solar	0
114905	7	Sololá	713	San Lucas Tolimán	10	San Lucas Tolimán	3	Marzo	2023-03-28T00:00:00	2024-11-08T21:00:00	2	Temperatura media	18.7
114906	7	Sololá	713	San Lucas Tolimán	10	San Lucas Tolimán	3	Marzo	2023-03-28T00:00:00	2024-11-08T21:00:00	4	Temperatura máxima	19.3
114907	7	Sololá	713	San Lucas Tolimán	10	San Lucas Tolimán	3	Marzo	2023-03-28T00:00:00	2024-11-08T21:00:00	3	Temperatura mínima	18.7
114908	7	Sololá	713	San Lucas Tolimán	10	San Lucas Tolimán	3	Marzo	2023-03-28T00:00:00	2024-11-08T21:00:00	5	Humedad	63
114909	7	Sololá	713	San Lucas Tolimán	10	San Lucas Tolimán	3	Marzo	2023-03-28T00:00:00	2024-11-08T21:00:00	6	Velocidad del viento	4.8
114910	7	Sololá	713	San Lucas Tolimán	10	San Lucas Tolimán	3	Marzo	2023-03-28T00:00:00	2024-11-08T21:00:00	7	Dirección del viento	4.83
114911	7	Sololá	713	San Lucas Tolimán	10	San Lucas Tolimán	3	Marzo	2023-03-28T00:00:00	2024-11-08T21:00:00	1	Precipitación	0
114912	7	Sololá	713	San Lucas Tolimán	10	San Lucas Tolimán	3	Marzo	2023-03-28T00:00:00	2024-11-08T21:00:00	8	Radiación solar	0
114913	7	Sololá	713	San Lucas Tolimán	10	San Lucas Tolimán	3	Marzo	2023-03-28T00:00:00	2024-11-08T22:00:00	2	Temperatura media	18.3
114914	7	Sololá	713	San Lucas Tolimán	10	San Lucas Tolimán	3	Marzo	2023-03-28T00:00:00	2024-11-08T22:00:00	4	Temperatura máxima	18.8
114915	7	Sololá	713	San Lucas Tolimán	10	San Lucas Tolimán	3	Marzo	2023-03-28T00:00:00	2024-11-08T22:00:00	3	Temperatura mínima	18.2
114916	7	Sololá	713	San Lucas Tolimán	10	San Lucas Tolimán	3	Marzo	2023-03-28T00:00:00	2024-11-08T22:00:00	5	Humedad	62
114917	7	Sololá	713	San Lucas Tolimán	10	San Lucas Tolimán	3	Marzo	2023-03-28T00:00:00	2024-11-08T22:00:00	6	Velocidad del viento	0
114918	7	Sololá	713	San Lucas Tolimán	10	San Lucas Tolimán	3	Marzo	2023-03-28T00:00:00	2024-11-08T22:00:00	7	Dirección del viento	0
114919	7	Sololá	713	San Lucas Tolimán	10	San Lucas Tolimán	3	Marzo	2023-03-28T00:00:00	2024-11-08T22:00:00	1	Precipitación	0
114920	7	Sololá	713	San Lucas Tolimán	10	San Lucas Tolimán	3	Marzo	2023-03-28T00:00:00	2024-11-08T22:00:00	8	Radiación solar	0
114921	7	Sololá	713	San Lucas Tolimán	10	San Lucas Tolimán	3	Marzo	2023-03-28T00:00:00	2024-11-08T23:00:00	2	Temperatura media	17.7
114922	7	Sololá	713	San Lucas Tolimán	10	San Lucas Tolimán	3	Marzo	2023-03-28T00:00:00	2024-11-08T23:00:00	4	Temperatura máxima	18.3
114923	7	Sololá	713	San Lucas Tolimán	10	San Lucas Tolimán	3	Marzo	2023-03-28T00:00:00	2024-11-08T23:00:00	3	Temperatura mínima	17.7
114924	7	Sololá	713	San Lucas Tolimán	10	San Lucas Tolimán	3	Marzo	2023-03-28T00:00:00	2024-11-08T23:00:00	5	Humedad	63
114925	7	Sololá	713	San Lucas Tolimán	10	San Lucas Tolimán	3	Marzo	2023-03-28T00:00:00	2024-11-08T23:00:00	6	Velocidad del viento	4.8
114926	7	Sololá	713	San Lucas Tolimán	10	San Lucas Tolimán	3	Marzo	2023-03-28T00:00:00	2024-11-08T23:00:00	7	Dirección del viento	4.83
114927	7	Sololá	713	San Lucas Tolimán	10	San Lucas Tolimán	3	Marzo	2023-03-28T00:00:00	2024-11-08T23:00:00	1	Precipitación	0
114928	7	Sololá	713	San Lucas Tolimán	10	San Lucas Tolimán	3	Marzo	2023-03-28T00:00:00	2024-11-08T23:00:00	8	Radiación solar	0
114929	7	Sololá	713	San Lucas Tolimán	10	San Lucas Tolimán	3	Marzo	2023-03-29T00:00:00	2024-11-08T00:00:00	2	Temperatura media	17.1
114930	7	Sololá	713	San Lucas Tolimán	10	San Lucas Tolimán	3	Marzo	2023-03-29T00:00:00	2024-11-08T00:00:00	4	Temperatura máxima	17.8
114931	7	Sololá	713	San Lucas Tolimán	10	San Lucas Tolimán	3	Marzo	2023-03-29T00:00:00	2024-11-08T00:00:00	3	Temperatura mínima	16.9
114932	7	Sololá	713	San Lucas Tolimán	10	San Lucas Tolimán	3	Marzo	2023-03-29T00:00:00	2024-11-08T00:00:00	5	Humedad	63
114933	7	Sololá	713	San Lucas Tolimán	10	San Lucas Tolimán	3	Marzo	2023-03-29T00:00:00	2024-11-08T00:00:00	6	Velocidad del viento	4.8
114934	7	Sololá	713	San Lucas Tolimán	10	San Lucas Tolimán	3	Marzo	2023-03-29T00:00:00	2024-11-08T00:00:00	7	Dirección del viento	4.83
114935	7	Sololá	713	San Lucas Tolimán	10	San Lucas Tolimán	3	Marzo	2023-03-29T00:00:00	2024-11-08T00:00:00	1	Precipitación	0
114936	7	Sololá	713	San Lucas Tolimán	10	San Lucas Tolimán	3	Marzo	2023-03-29T00:00:00	2024-11-08T00:00:00	8	Radiación solar	0
114937	7	Sololá	713	San Lucas Tolimán	10	San Lucas Tolimán	3	Marzo	2023-03-29T00:00:00	2024-11-08T01:00:00	2	Temperatura media	16
114938	7	Sololá	713	San Lucas Tolimán	10	San Lucas Tolimán	3	Marzo	2023-03-29T00:00:00	2024-11-08T01:00:00	4	Temperatura máxima	17.1
114939	7	Sololá	713	San Lucas Tolimán	10	San Lucas Tolimán	3	Marzo	2023-03-29T00:00:00	2024-11-08T01:00:00	3	Temperatura mínima	15.9
114940	7	Sololá	713	San Lucas Tolimán	10	San Lucas Tolimán	3	Marzo	2023-03-29T00:00:00	2024-11-08T01:00:00	5	Humedad	61
114941	7	Sololá	713	San Lucas Tolimán	10	San Lucas Tolimán	3	Marzo	2023-03-29T00:00:00	2024-11-08T01:00:00	6	Velocidad del viento	4.8
114942	7	Sololá	713	San Lucas Tolimán	10	San Lucas Tolimán	3	Marzo	2023-03-29T00:00:00	2024-11-08T01:00:00	7	Dirección del viento	4.83
114943	7	Sololá	713	San Lucas Tolimán	10	San Lucas Tolimán	3	Marzo	2023-03-29T00:00:00	2024-11-08T01:00:00	1	Precipitación	0
114944	7	Sololá	713	San Lucas Tolimán	10	San Lucas Tolimán	3	Marzo	2023-03-29T00:00:00	2024-11-08T01:00:00	8	Radiación solar	0
114945	7	Sololá	713	San Lucas Tolimán	10	San Lucas Tolimán	3	Marzo	2023-03-29T00:00:00	2024-11-08T02:00:00	2	Temperatura media	15
114946	7	Sololá	713	San Lucas Tolimán	10	San Lucas Tolimán	3	Marzo	2023-03-29T00:00:00	2024-11-08T02:00:00	4	Temperatura máxima	16
114947	7	Sololá	713	San Lucas Tolimán	10	San Lucas Tolimán	3	Marzo	2023-03-29T00:00:00	2024-11-08T02:00:00	3	Temperatura mínima	15
114948	7	Sololá	713	San Lucas Tolimán	10	San Lucas Tolimán	3	Marzo	2023-03-29T00:00:00	2024-11-08T02:00:00	5	Humedad	62
114949	7	Sololá	713	San Lucas Tolimán	10	San Lucas Tolimán	3	Marzo	2023-03-29T00:00:00	2024-11-08T02:00:00	6	Velocidad del viento	3.2
114950	7	Sololá	713	San Lucas Tolimán	10	San Lucas Tolimán	3	Marzo	2023-03-29T00:00:00	2024-11-08T02:00:00	7	Dirección del viento	3.22
114951	7	Sololá	713	San Lucas Tolimán	10	San Lucas Tolimán	3	Marzo	2023-03-29T00:00:00	2024-11-08T02:00:00	1	Precipitación	0
114952	7	Sololá	713	San Lucas Tolimán	10	San Lucas Tolimán	3	Marzo	2023-03-29T00:00:00	2024-11-08T02:00:00	8	Radiación solar	0
114953	7	Sololá	713	San Lucas Tolimán	10	San Lucas Tolimán	3	Marzo	2023-03-29T00:00:00	2024-11-08T03:00:00	2	Temperatura media	14.8
114954	7	Sololá	713	San Lucas Tolimán	10	San Lucas Tolimán	3	Marzo	2023-03-29T00:00:00	2024-11-08T03:00:00	4	Temperatura máxima	15
114955	7	Sololá	713	San Lucas Tolimán	10	San Lucas Tolimán	3	Marzo	2023-03-29T00:00:00	2024-11-08T03:00:00	3	Temperatura mínima	14.7
114956	7	Sololá	713	San Lucas Tolimán	10	San Lucas Tolimán	3	Marzo	2023-03-29T00:00:00	2024-11-08T03:00:00	5	Humedad	60
114957	7	Sololá	713	San Lucas Tolimán	10	San Lucas Tolimán	3	Marzo	2023-03-29T00:00:00	2024-11-08T03:00:00	6	Velocidad del viento	1.6
114958	7	Sololá	713	San Lucas Tolimán	10	San Lucas Tolimán	3	Marzo	2023-03-29T00:00:00	2024-11-08T03:00:00	7	Dirección del viento	1.61
114959	7	Sololá	713	San Lucas Tolimán	10	San Lucas Tolimán	3	Marzo	2023-03-29T00:00:00	2024-11-08T03:00:00	1	Precipitación	0
114960	7	Sololá	713	San Lucas Tolimán	10	San Lucas Tolimán	3	Marzo	2023-03-29T00:00:00	2024-11-08T03:00:00	8	Radiación solar	0
114961	7	Sololá	713	San Lucas Tolimán	10	San Lucas Tolimán	3	Marzo	2023-03-29T00:00:00	2024-11-08T04:00:00	2	Temperatura media	16.2
114962	7	Sololá	713	San Lucas Tolimán	10	San Lucas Tolimán	3	Marzo	2023-03-29T00:00:00	2024-11-08T04:00:00	4	Temperatura máxima	16.2
114963	7	Sololá	713	San Lucas Tolimán	10	San Lucas Tolimán	3	Marzo	2023-03-29T00:00:00	2024-11-08T04:00:00	3	Temperatura mínima	14.8
114964	7	Sololá	713	San Lucas Tolimán	10	San Lucas Tolimán	3	Marzo	2023-03-29T00:00:00	2024-11-08T04:00:00	5	Humedad	58
114965	7	Sololá	713	San Lucas Tolimán	10	San Lucas Tolimán	3	Marzo	2023-03-29T00:00:00	2024-11-08T04:00:00	6	Velocidad del viento	1.6
114966	7	Sololá	713	San Lucas Tolimán	10	San Lucas Tolimán	3	Marzo	2023-03-29T00:00:00	2024-11-08T04:00:00	7	Dirección del viento	1.61
114967	7	Sololá	713	San Lucas Tolimán	10	San Lucas Tolimán	3	Marzo	2023-03-29T00:00:00	2024-11-08T04:00:00	1	Precipitación	0
114968	7	Sololá	713	San Lucas Tolimán	10	San Lucas Tolimán	3	Marzo	2023-03-29T00:00:00	2024-11-08T04:00:00	8	Radiación solar	0
114969	7	Sololá	713	San Lucas Tolimán	10	San Lucas Tolimán	3	Marzo	2023-03-29T00:00:00	2024-11-08T05:00:00	2	Temperatura media	16.2
114970	7	Sololá	713	San Lucas Tolimán	10	San Lucas Tolimán	3	Marzo	2023-03-29T00:00:00	2024-11-08T05:00:00	4	Temperatura máxima	16.3
114971	7	Sololá	713	San Lucas Tolimán	10	San Lucas Tolimán	3	Marzo	2023-03-29T00:00:00	2024-11-08T05:00:00	3	Temperatura mínima	16.1
114972	7	Sololá	713	San Lucas Tolimán	10	San Lucas Tolimán	3	Marzo	2023-03-29T00:00:00	2024-11-08T05:00:00	5	Humedad	59
114973	7	Sololá	713	San Lucas Tolimán	10	San Lucas Tolimán	3	Marzo	2023-03-29T00:00:00	2024-11-08T05:00:00	6	Velocidad del viento	1.6
114974	7	Sololá	713	San Lucas Tolimán	10	San Lucas Tolimán	3	Marzo	2023-03-29T00:00:00	2024-11-08T05:00:00	7	Dirección del viento	1.61
114975	7	Sololá	713	San Lucas Tolimán	10	San Lucas Tolimán	3	Marzo	2023-03-29T00:00:00	2024-11-08T05:00:00	1	Precipitación	0
114976	7	Sololá	713	San Lucas Tolimán	10	San Lucas Tolimán	3	Marzo	2023-03-29T00:00:00	2024-11-08T05:00:00	8	Radiación solar	0
114977	7	Sololá	713	San Lucas Tolimán	10	San Lucas Tolimán	3	Marzo	2023-03-29T00:00:00	2024-11-08T06:00:00	2	Temperatura media	15.6
114978	7	Sololá	713	San Lucas Tolimán	10	San Lucas Tolimán	3	Marzo	2023-03-29T00:00:00	2024-11-08T06:00:00	4	Temperatura máxima	16.2
114979	7	Sololá	713	San Lucas Tolimán	10	San Lucas Tolimán	3	Marzo	2023-03-29T00:00:00	2024-11-08T06:00:00	3	Temperatura mínima	15.5
114980	7	Sololá	713	San Lucas Tolimán	10	San Lucas Tolimán	3	Marzo	2023-03-29T00:00:00	2024-11-08T06:00:00	5	Humedad	60
114981	7	Sololá	713	San Lucas Tolimán	10	San Lucas Tolimán	3	Marzo	2023-03-29T00:00:00	2024-11-08T06:00:00	6	Velocidad del viento	1.6
114982	7	Sololá	713	San Lucas Tolimán	10	San Lucas Tolimán	3	Marzo	2023-03-29T00:00:00	2024-11-08T06:00:00	7	Dirección del viento	1.61
114983	7	Sololá	713	San Lucas Tolimán	10	San Lucas Tolimán	3	Marzo	2023-03-29T00:00:00	2024-11-08T06:00:00	1	Precipitación	0
114984	7	Sololá	713	San Lucas Tolimán	10	San Lucas Tolimán	3	Marzo	2023-03-29T00:00:00	2024-11-08T06:00:00	8	Radiación solar	0
114985	7	Sololá	713	San Lucas Tolimán	10	San Lucas Tolimán	3	Marzo	2023-03-29T00:00:00	2024-11-08T07:00:00	2	Temperatura media	15.9
114986	7	Sololá	713	San Lucas Tolimán	10	San Lucas Tolimán	3	Marzo	2023-03-29T00:00:00	2024-11-08T07:00:00	4	Temperatura máxima	16.4
114987	7	Sololá	713	San Lucas Tolimán	10	San Lucas Tolimán	3	Marzo	2023-03-29T00:00:00	2024-11-08T07:00:00	3	Temperatura mínima	15.5
114988	7	Sololá	713	San Lucas Tolimán	10	San Lucas Tolimán	3	Marzo	2023-03-29T00:00:00	2024-11-08T07:00:00	5	Humedad	59
114989	7	Sololá	713	San Lucas Tolimán	10	San Lucas Tolimán	3	Marzo	2023-03-29T00:00:00	2024-11-08T07:00:00	6	Velocidad del viento	1.6
114990	7	Sololá	713	San Lucas Tolimán	10	San Lucas Tolimán	3	Marzo	2023-03-29T00:00:00	2024-11-08T07:00:00	7	Dirección del viento	1.61
114991	7	Sololá	713	San Lucas Tolimán	10	San Lucas Tolimán	3	Marzo	2023-03-29T00:00:00	2024-11-08T07:00:00	1	Precipitación	0
114992	7	Sololá	713	San Lucas Tolimán	10	San Lucas Tolimán	3	Marzo	2023-03-29T00:00:00	2024-11-08T07:00:00	8	Radiación solar	20
114993	7	Sololá	713	San Lucas Tolimán	10	San Lucas Tolimán	3	Marzo	2023-03-29T00:00:00	2024-11-08T08:00:00	2	Temperatura media	20.1
114994	7	Sololá	713	San Lucas Tolimán	10	San Lucas Tolimán	3	Marzo	2023-03-29T00:00:00	2024-11-08T08:00:00	4	Temperatura máxima	20.1
114995	7	Sololá	713	San Lucas Tolimán	10	San Lucas Tolimán	3	Marzo	2023-03-29T00:00:00	2024-11-08T08:00:00	3	Temperatura mínima	15.8
114996	7	Sololá	713	San Lucas Tolimán	10	San Lucas Tolimán	3	Marzo	2023-03-29T00:00:00	2024-11-08T08:00:00	5	Humedad	50
114997	7	Sololá	713	San Lucas Tolimán	10	San Lucas Tolimán	3	Marzo	2023-03-29T00:00:00	2024-11-08T08:00:00	6	Velocidad del viento	3.2
114998	7	Sololá	713	San Lucas Tolimán	10	San Lucas Tolimán	3	Marzo	2023-03-29T00:00:00	2024-11-08T08:00:00	7	Dirección del viento	3.22
114999	7	Sololá	713	San Lucas Tolimán	10	San Lucas Tolimán	3	Marzo	2023-03-29T00:00:00	2024-11-08T08:00:00	1	Precipitación	0
115000	7	Sololá	713	San Lucas Tolimán	10	San Lucas Tolimán	3	Marzo	2023-03-29T00:00:00	2024-11-08T08:00:00	8	Radiación solar	216
115001	7	Sololá	713	San Lucas Tolimán	10	San Lucas Tolimán	3	Marzo	2023-03-29T00:00:00	2024-11-08T09:00:00	2	Temperatura media	21.4
115002	7	Sololá	713	San Lucas Tolimán	10	San Lucas Tolimán	3	Marzo	2023-03-29T00:00:00	2024-11-08T09:00:00	4	Temperatura máxima	21.4
115003	7	Sololá	713	San Lucas Tolimán	10	San Lucas Tolimán	3	Marzo	2023-03-29T00:00:00	2024-11-08T09:00:00	3	Temperatura mínima	20.1
115004	7	Sololá	713	San Lucas Tolimán	10	San Lucas Tolimán	3	Marzo	2023-03-29T00:00:00	2024-11-08T09:00:00	5	Humedad	47
115005	7	Sololá	713	San Lucas Tolimán	10	San Lucas Tolimán	3	Marzo	2023-03-29T00:00:00	2024-11-08T09:00:00	6	Velocidad del viento	6.4
115006	7	Sololá	713	San Lucas Tolimán	10	San Lucas Tolimán	3	Marzo	2023-03-29T00:00:00	2024-11-08T09:00:00	7	Dirección del viento	6.44
115007	7	Sololá	713	San Lucas Tolimán	10	San Lucas Tolimán	3	Marzo	2023-03-29T00:00:00	2024-11-08T09:00:00	1	Precipitación	0
115008	7	Sololá	713	San Lucas Tolimán	10	San Lucas Tolimán	3	Marzo	2023-03-29T00:00:00	2024-11-08T09:00:00	8	Radiación solar	360
115009	7	Sololá	713	San Lucas Tolimán	10	San Lucas Tolimán	3	Marzo	2023-03-29T00:00:00	2024-11-08T10:00:00	2	Temperatura media	21.5
115010	7	Sololá	713	San Lucas Tolimán	10	San Lucas Tolimán	3	Marzo	2023-03-29T00:00:00	2024-11-08T10:00:00	4	Temperatura máxima	21.7
115011	7	Sololá	713	San Lucas Tolimán	10	San Lucas Tolimán	3	Marzo	2023-03-29T00:00:00	2024-11-08T10:00:00	3	Temperatura mínima	21.3
115012	7	Sololá	713	San Lucas Tolimán	10	San Lucas Tolimán	3	Marzo	2023-03-29T00:00:00	2024-11-08T10:00:00	5	Humedad	44
115013	7	Sololá	713	San Lucas Tolimán	10	San Lucas Tolimán	3	Marzo	2023-03-29T00:00:00	2024-11-08T10:00:00	6	Velocidad del viento	11.3
115014	7	Sololá	713	San Lucas Tolimán	10	San Lucas Tolimán	3	Marzo	2023-03-29T00:00:00	2024-11-08T10:00:00	7	Dirección del viento	11.27
115015	7	Sololá	713	San Lucas Tolimán	10	San Lucas Tolimán	3	Marzo	2023-03-29T00:00:00	2024-11-08T10:00:00	1	Precipitación	0
115016	7	Sololá	713	San Lucas Tolimán	10	San Lucas Tolimán	3	Marzo	2023-03-29T00:00:00	2024-11-08T10:00:00	8	Radiación solar	250
115017	7	Sololá	713	San Lucas Tolimán	10	San Lucas Tolimán	3	Marzo	2023-03-29T00:00:00	2024-11-08T11:00:00	2	Temperatura media	24
115018	7	Sololá	713	San Lucas Tolimán	10	San Lucas Tolimán	3	Marzo	2023-03-29T00:00:00	2024-11-08T11:00:00	4	Temperatura máxima	24.1
115019	7	Sololá	713	San Lucas Tolimán	10	San Lucas Tolimán	3	Marzo	2023-03-29T00:00:00	2024-11-08T11:00:00	3	Temperatura mínima	21.6
115020	7	Sololá	713	San Lucas Tolimán	10	San Lucas Tolimán	3	Marzo	2023-03-29T00:00:00	2024-11-08T11:00:00	5	Humedad	37
115021	7	Sololá	713	San Lucas Tolimán	10	San Lucas Tolimán	3	Marzo	2023-03-29T00:00:00	2024-11-08T11:00:00	6	Velocidad del viento	11.3
115022	7	Sololá	713	San Lucas Tolimán	10	San Lucas Tolimán	3	Marzo	2023-03-29T00:00:00	2024-11-08T11:00:00	7	Dirección del viento	11.27
115023	7	Sololá	713	San Lucas Tolimán	10	San Lucas Tolimán	3	Marzo	2023-03-29T00:00:00	2024-11-08T11:00:00	1	Precipitación	0
115024	7	Sololá	713	San Lucas Tolimán	10	San Lucas Tolimán	3	Marzo	2023-03-29T00:00:00	2024-11-08T11:00:00	8	Radiación solar	746
115025	7	Sololá	713	San Lucas Tolimán	10	San Lucas Tolimán	3	Marzo	2023-03-29T00:00:00	2024-11-08T12:00:00	2	Temperatura media	23.6
115026	7	Sololá	713	San Lucas Tolimán	10	San Lucas Tolimán	3	Marzo	2023-03-29T00:00:00	2024-11-08T12:00:00	4	Temperatura máxima	24.8
115027	7	Sololá	713	San Lucas Tolimán	10	San Lucas Tolimán	3	Marzo	2023-03-29T00:00:00	2024-11-08T12:00:00	3	Temperatura mínima	22.9
115028	7	Sololá	713	San Lucas Tolimán	10	San Lucas Tolimán	3	Marzo	2023-03-29T00:00:00	2024-11-08T12:00:00	5	Humedad	56
115029	7	Sololá	713	San Lucas Tolimán	10	San Lucas Tolimán	3	Marzo	2023-03-29T00:00:00	2024-11-08T12:00:00	6	Velocidad del viento	6.4
115030	7	Sololá	713	San Lucas Tolimán	10	San Lucas Tolimán	3	Marzo	2023-03-29T00:00:00	2024-11-08T12:00:00	7	Dirección del viento	6.44
115031	7	Sololá	713	San Lucas Tolimán	10	San Lucas Tolimán	3	Marzo	2023-03-29T00:00:00	2024-11-08T12:00:00	1	Precipitación	0
115032	7	Sololá	713	San Lucas Tolimán	10	San Lucas Tolimán	3	Marzo	2023-03-29T00:00:00	2024-11-08T12:00:00	8	Radiación solar	803
115033	7	Sololá	713	San Lucas Tolimán	10	San Lucas Tolimán	3	Marzo	2023-03-29T00:00:00	2024-11-08T13:00:00	2	Temperatura media	23.6
115034	7	Sololá	713	San Lucas Tolimán	10	San Lucas Tolimán	3	Marzo	2023-03-29T00:00:00	2024-11-08T13:00:00	4	Temperatura máxima	23.8
115035	7	Sololá	713	San Lucas Tolimán	10	San Lucas Tolimán	3	Marzo	2023-03-29T00:00:00	2024-11-08T13:00:00	3	Temperatura mínima	21.9
115036	7	Sololá	713	San Lucas Tolimán	10	San Lucas Tolimán	3	Marzo	2023-03-29T00:00:00	2024-11-08T13:00:00	5	Humedad	56
115037	7	Sololá	713	San Lucas Tolimán	10	San Lucas Tolimán	3	Marzo	2023-03-29T00:00:00	2024-11-08T13:00:00	6	Velocidad del viento	8
115038	7	Sololá	713	San Lucas Tolimán	10	San Lucas Tolimán	3	Marzo	2023-03-29T00:00:00	2024-11-08T13:00:00	7	Dirección del viento	8.05
115039	7	Sololá	713	San Lucas Tolimán	10	San Lucas Tolimán	3	Marzo	2023-03-29T00:00:00	2024-11-08T13:00:00	1	Precipitación	0
115040	7	Sololá	713	San Lucas Tolimán	10	San Lucas Tolimán	3	Marzo	2023-03-29T00:00:00	2024-11-08T13:00:00	8	Radiación solar	687
115041	7	Sololá	713	San Lucas Tolimán	10	San Lucas Tolimán	3	Marzo	2023-03-29T00:00:00	2024-11-08T14:00:00	2	Temperatura media	23.8
115042	7	Sololá	713	San Lucas Tolimán	10	San Lucas Tolimán	3	Marzo	2023-03-29T00:00:00	2024-11-08T14:00:00	4	Temperatura máxima	24.1
115043	7	Sololá	713	San Lucas Tolimán	10	San Lucas Tolimán	3	Marzo	2023-03-29T00:00:00	2024-11-08T14:00:00	3	Temperatura mínima	22.7
115044	7	Sololá	713	San Lucas Tolimán	10	San Lucas Tolimán	3	Marzo	2023-03-29T00:00:00	2024-11-08T14:00:00	5	Humedad	57
115045	7	Sololá	713	San Lucas Tolimán	10	San Lucas Tolimán	3	Marzo	2023-03-29T00:00:00	2024-11-08T14:00:00	6	Velocidad del viento	11.3
115046	7	Sololá	713	San Lucas Tolimán	10	San Lucas Tolimán	3	Marzo	2023-03-29T00:00:00	2024-11-08T14:00:00	7	Dirección del viento	11.27
115047	7	Sololá	713	San Lucas Tolimán	10	San Lucas Tolimán	3	Marzo	2023-03-29T00:00:00	2024-11-08T14:00:00	1	Precipitación	0
115048	7	Sololá	713	San Lucas Tolimán	10	San Lucas Tolimán	3	Marzo	2023-03-29T00:00:00	2024-11-08T14:00:00	8	Radiación solar	991
115049	7	Sololá	713	San Lucas Tolimán	10	San Lucas Tolimán	3	Marzo	2023-03-29T00:00:00	2024-11-08T15:00:00	2	Temperatura media	23.4
115050	7	Sololá	713	San Lucas Tolimán	10	San Lucas Tolimán	3	Marzo	2023-03-29T00:00:00	2024-11-08T15:00:00	4	Temperatura máxima	24.1
115051	7	Sololá	713	San Lucas Tolimán	10	San Lucas Tolimán	3	Marzo	2023-03-29T00:00:00	2024-11-08T15:00:00	3	Temperatura mínima	23
115052	7	Sololá	713	San Lucas Tolimán	10	San Lucas Tolimán	3	Marzo	2023-03-29T00:00:00	2024-11-08T15:00:00	5	Humedad	58
115053	7	Sololá	713	San Lucas Tolimán	10	San Lucas Tolimán	3	Marzo	2023-03-29T00:00:00	2024-11-08T15:00:00	6	Velocidad del viento	9.7
115054	7	Sololá	713	San Lucas Tolimán	10	San Lucas Tolimán	3	Marzo	2023-03-29T00:00:00	2024-11-08T15:00:00	7	Dirección del viento	9.66
115055	7	Sololá	713	San Lucas Tolimán	10	San Lucas Tolimán	3	Marzo	2023-03-29T00:00:00	2024-11-08T15:00:00	1	Precipitación	0
115056	7	Sololá	713	San Lucas Tolimán	10	San Lucas Tolimán	3	Marzo	2023-03-29T00:00:00	2024-11-08T15:00:00	8	Radiación solar	927
115057	7	Sololá	713	San Lucas Tolimán	10	San Lucas Tolimán	3	Marzo	2023-03-29T00:00:00	2024-11-08T16:00:00	2	Temperatura media	22.6
115058	7	Sololá	713	San Lucas Tolimán	10	San Lucas Tolimán	3	Marzo	2023-03-29T00:00:00	2024-11-08T16:00:00	4	Temperatura máxima	23.8
115059	7	Sololá	713	San Lucas Tolimán	10	San Lucas Tolimán	3	Marzo	2023-03-29T00:00:00	2024-11-08T16:00:00	3	Temperatura mínima	22.6
115060	7	Sololá	713	San Lucas Tolimán	10	San Lucas Tolimán	3	Marzo	2023-03-29T00:00:00	2024-11-08T16:00:00	5	Humedad	60
115061	7	Sololá	713	San Lucas Tolimán	10	San Lucas Tolimán	3	Marzo	2023-03-29T00:00:00	2024-11-08T16:00:00	6	Velocidad del viento	9.7
115062	7	Sololá	713	San Lucas Tolimán	10	San Lucas Tolimán	3	Marzo	2023-03-29T00:00:00	2024-11-08T16:00:00	7	Dirección del viento	9.66
115063	7	Sololá	713	San Lucas Tolimán	10	San Lucas Tolimán	3	Marzo	2023-03-29T00:00:00	2024-11-08T16:00:00	1	Precipitación	0
115064	7	Sololá	713	San Lucas Tolimán	10	San Lucas Tolimán	3	Marzo	2023-03-29T00:00:00	2024-11-08T16:00:00	8	Radiación solar	711
115065	7	Sololá	713	San Lucas Tolimán	10	San Lucas Tolimán	3	Marzo	2023-03-29T00:00:00	2024-11-08T17:00:00	2	Temperatura media	21.6
115066	7	Sololá	713	San Lucas Tolimán	10	San Lucas Tolimán	3	Marzo	2023-03-29T00:00:00	2024-11-08T17:00:00	4	Temperatura máxima	22.8
115067	7	Sololá	713	San Lucas Tolimán	10	San Lucas Tolimán	3	Marzo	2023-03-29T00:00:00	2024-11-08T17:00:00	3	Temperatura mínima	21.5
115068	7	Sololá	713	San Lucas Tolimán	10	San Lucas Tolimán	3	Marzo	2023-03-29T00:00:00	2024-11-08T17:00:00	5	Humedad	62
115069	7	Sololá	713	San Lucas Tolimán	10	San Lucas Tolimán	3	Marzo	2023-03-29T00:00:00	2024-11-08T17:00:00	6	Velocidad del viento	9.7
115070	7	Sololá	713	San Lucas Tolimán	10	San Lucas Tolimán	3	Marzo	2023-03-29T00:00:00	2024-11-08T17:00:00	7	Dirección del viento	9.66
115071	7	Sololá	713	San Lucas Tolimán	10	San Lucas Tolimán	3	Marzo	2023-03-29T00:00:00	2024-11-08T17:00:00	1	Precipitación	0
115072	7	Sololá	713	San Lucas Tolimán	10	San Lucas Tolimán	3	Marzo	2023-03-29T00:00:00	2024-11-08T17:00:00	8	Radiación solar	376
115073	7	Sololá	713	San Lucas Tolimán	10	San Lucas Tolimán	3	Marzo	2023-03-29T00:00:00	2024-11-08T18:00:00	2	Temperatura media	19.8
115074	7	Sololá	713	San Lucas Tolimán	10	San Lucas Tolimán	3	Marzo	2023-03-29T00:00:00	2024-11-08T18:00:00	4	Temperatura máxima	21.5
115075	7	Sololá	713	San Lucas Tolimán	10	San Lucas Tolimán	3	Marzo	2023-03-29T00:00:00	2024-11-08T18:00:00	3	Temperatura mínima	19.8
115076	7	Sololá	713	San Lucas Tolimán	10	San Lucas Tolimán	3	Marzo	2023-03-29T00:00:00	2024-11-08T18:00:00	5	Humedad	61
115077	7	Sololá	713	San Lucas Tolimán	10	San Lucas Tolimán	3	Marzo	2023-03-29T00:00:00	2024-11-08T18:00:00	6	Velocidad del viento	9.7
115078	7	Sololá	713	San Lucas Tolimán	10	San Lucas Tolimán	3	Marzo	2023-03-29T00:00:00	2024-11-08T18:00:00	7	Dirección del viento	9.66
115079	7	Sololá	713	San Lucas Tolimán	10	San Lucas Tolimán	3	Marzo	2023-03-29T00:00:00	2024-11-08T18:00:00	1	Precipitación	0
115080	7	Sololá	713	San Lucas Tolimán	10	San Lucas Tolimán	3	Marzo	2023-03-29T00:00:00	2024-11-08T18:00:00	8	Radiación solar	94
115081	7	Sololá	713	San Lucas Tolimán	10	San Lucas Tolimán	3	Marzo	2023-03-29T00:00:00	2024-11-08T19:00:00	2	Temperatura media	18.7
115082	7	Sololá	713	San Lucas Tolimán	10	San Lucas Tolimán	3	Marzo	2023-03-29T00:00:00	2024-11-08T19:00:00	4	Temperatura máxima	19.9
115083	7	Sololá	713	San Lucas Tolimán	10	San Lucas Tolimán	3	Marzo	2023-03-29T00:00:00	2024-11-08T19:00:00	3	Temperatura mínima	18.7
115084	7	Sololá	713	San Lucas Tolimán	10	San Lucas Tolimán	3	Marzo	2023-03-29T00:00:00	2024-11-08T19:00:00	5	Humedad	61
115085	7	Sololá	713	San Lucas Tolimán	10	San Lucas Tolimán	3	Marzo	2023-03-29T00:00:00	2024-11-08T19:00:00	6	Velocidad del viento	6.4
115086	7	Sololá	713	San Lucas Tolimán	10	San Lucas Tolimán	3	Marzo	2023-03-29T00:00:00	2024-11-08T19:00:00	7	Dirección del viento	6.44
115087	7	Sololá	713	San Lucas Tolimán	10	San Lucas Tolimán	3	Marzo	2023-03-29T00:00:00	2024-11-08T19:00:00	1	Precipitación	0
115088	7	Sololá	713	San Lucas Tolimán	10	San Lucas Tolimán	3	Marzo	2023-03-29T00:00:00	2024-11-08T19:00:00	8	Radiación solar	0
115089	7	Sololá	713	San Lucas Tolimán	10	San Lucas Tolimán	3	Marzo	2023-03-29T00:00:00	2024-11-08T20:00:00	2	Temperatura media	17.7
115090	7	Sololá	713	San Lucas Tolimán	10	San Lucas Tolimán	3	Marzo	2023-03-29T00:00:00	2024-11-08T20:00:00	4	Temperatura máxima	18.7
115091	7	Sololá	713	San Lucas Tolimán	10	San Lucas Tolimán	3	Marzo	2023-03-29T00:00:00	2024-11-08T20:00:00	3	Temperatura mínima	17.7
115092	7	Sololá	713	San Lucas Tolimán	10	San Lucas Tolimán	3	Marzo	2023-03-29T00:00:00	2024-11-08T20:00:00	5	Humedad	56
115093	7	Sololá	713	San Lucas Tolimán	10	San Lucas Tolimán	3	Marzo	2023-03-29T00:00:00	2024-11-08T20:00:00	6	Velocidad del viento	1.6
115094	7	Sololá	713	San Lucas Tolimán	10	San Lucas Tolimán	3	Marzo	2023-03-29T00:00:00	2024-11-08T20:00:00	7	Dirección del viento	1.61
115095	7	Sololá	713	San Lucas Tolimán	10	San Lucas Tolimán	3	Marzo	2023-03-29T00:00:00	2024-11-08T20:00:00	1	Precipitación	0
115096	7	Sololá	713	San Lucas Tolimán	10	San Lucas Tolimán	3	Marzo	2023-03-29T00:00:00	2024-11-08T20:00:00	8	Radiación solar	0
115097	7	Sololá	713	San Lucas Tolimán	10	San Lucas Tolimán	3	Marzo	2023-03-29T00:00:00	2024-11-08T21:00:00	2	Temperatura media	17.3
115098	7	Sololá	713	San Lucas Tolimán	10	San Lucas Tolimán	3	Marzo	2023-03-29T00:00:00	2024-11-08T21:00:00	4	Temperatura máxima	17.7
115099	7	Sololá	713	San Lucas Tolimán	10	San Lucas Tolimán	3	Marzo	2023-03-29T00:00:00	2024-11-08T21:00:00	3	Temperatura mínima	17
115100	7	Sololá	713	San Lucas Tolimán	10	San Lucas Tolimán	3	Marzo	2023-03-29T00:00:00	2024-11-08T21:00:00	5	Humedad	55
115101	7	Sololá	713	San Lucas Tolimán	10	San Lucas Tolimán	3	Marzo	2023-03-29T00:00:00	2024-11-08T21:00:00	6	Velocidad del viento	3.2
115102	7	Sololá	713	San Lucas Tolimán	10	San Lucas Tolimán	3	Marzo	2023-03-29T00:00:00	2024-11-08T21:00:00	7	Dirección del viento	3.22
115103	7	Sololá	713	San Lucas Tolimán	10	San Lucas Tolimán	3	Marzo	2023-03-29T00:00:00	2024-11-08T21:00:00	1	Precipitación	0
115104	7	Sololá	713	San Lucas Tolimán	10	San Lucas Tolimán	3	Marzo	2023-03-29T00:00:00	2024-11-08T21:00:00	8	Radiación solar	0
115105	7	Sololá	713	San Lucas Tolimán	10	San Lucas Tolimán	3	Marzo	2023-03-29T00:00:00	2024-11-08T22:00:00	2	Temperatura media	17.9
115106	7	Sololá	713	San Lucas Tolimán	10	San Lucas Tolimán	3	Marzo	2023-03-29T00:00:00	2024-11-08T22:00:00	4	Temperatura máxima	17.9
115107	7	Sololá	713	San Lucas Tolimán	10	San Lucas Tolimán	3	Marzo	2023-03-29T00:00:00	2024-11-08T22:00:00	3	Temperatura mínima	16.8
115108	7	Sololá	713	San Lucas Tolimán	10	San Lucas Tolimán	3	Marzo	2023-03-29T00:00:00	2024-11-08T22:00:00	5	Humedad	49
115109	7	Sololá	713	San Lucas Tolimán	10	San Lucas Tolimán	3	Marzo	2023-03-29T00:00:00	2024-11-08T22:00:00	6	Velocidad del viento	1.6
115110	7	Sololá	713	San Lucas Tolimán	10	San Lucas Tolimán	3	Marzo	2023-03-29T00:00:00	2024-11-08T22:00:00	7	Dirección del viento	1.61
115111	7	Sololá	713	San Lucas Tolimán	10	San Lucas Tolimán	3	Marzo	2023-03-29T00:00:00	2024-11-08T22:00:00	1	Precipitación	0
115112	7	Sololá	713	San Lucas Tolimán	10	San Lucas Tolimán	3	Marzo	2023-03-29T00:00:00	2024-11-08T22:00:00	8	Radiación solar	0
115113	7	Sololá	713	San Lucas Tolimán	10	San Lucas Tolimán	3	Marzo	2023-03-29T00:00:00	2024-11-08T23:00:00	2	Temperatura media	16.4
115114	7	Sololá	713	San Lucas Tolimán	10	San Lucas Tolimán	3	Marzo	2023-03-29T00:00:00	2024-11-08T23:00:00	4	Temperatura máxima	18.7
115115	7	Sololá	713	San Lucas Tolimán	10	San Lucas Tolimán	3	Marzo	2023-03-29T00:00:00	2024-11-08T23:00:00	3	Temperatura mínima	16.4
115116	7	Sololá	713	San Lucas Tolimán	10	San Lucas Tolimán	3	Marzo	2023-03-29T00:00:00	2024-11-08T23:00:00	5	Humedad	52
115117	7	Sololá	713	San Lucas Tolimán	10	San Lucas Tolimán	3	Marzo	2023-03-29T00:00:00	2024-11-08T23:00:00	6	Velocidad del viento	3.2
115118	7	Sololá	713	San Lucas Tolimán	10	San Lucas Tolimán	3	Marzo	2023-03-29T00:00:00	2024-11-08T23:00:00	7	Dirección del viento	3.22
115119	7	Sololá	713	San Lucas Tolimán	10	San Lucas Tolimán	3	Marzo	2023-03-29T00:00:00	2024-11-08T23:00:00	1	Precipitación	0
115120	7	Sololá	713	San Lucas Tolimán	10	San Lucas Tolimán	3	Marzo	2023-03-29T00:00:00	2024-11-08T23:00:00	8	Radiación solar	0
115121	7	Sololá	713	San Lucas Tolimán	10	San Lucas Tolimán	3	Marzo	2023-03-30T00:00:00	2024-11-08T00:00:00	2	Temperatura media	16.3
115122	7	Sololá	713	San Lucas Tolimán	10	San Lucas Tolimán	3	Marzo	2023-03-30T00:00:00	2024-11-08T00:00:00	4	Temperatura máxima	16.5
115123	7	Sololá	713	San Lucas Tolimán	10	San Lucas Tolimán	3	Marzo	2023-03-30T00:00:00	2024-11-08T00:00:00	3	Temperatura mínima	16
115124	7	Sololá	713	San Lucas Tolimán	10	San Lucas Tolimán	3	Marzo	2023-03-30T00:00:00	2024-11-08T00:00:00	5	Humedad	53
115125	7	Sololá	713	San Lucas Tolimán	10	San Lucas Tolimán	3	Marzo	2023-03-30T00:00:00	2024-11-08T00:00:00	6	Velocidad del viento	1.6
115126	7	Sololá	713	San Lucas Tolimán	10	San Lucas Tolimán	3	Marzo	2023-03-30T00:00:00	2024-11-08T00:00:00	7	Dirección del viento	1.61
115127	7	Sololá	713	San Lucas Tolimán	10	San Lucas Tolimán	3	Marzo	2023-03-30T00:00:00	2024-11-08T00:00:00	1	Precipitación	0
115128	7	Sololá	713	San Lucas Tolimán	10	San Lucas Tolimán	3	Marzo	2023-03-30T00:00:00	2024-11-08T00:00:00	8	Radiación solar	0
115129	7	Sololá	713	San Lucas Tolimán	10	San Lucas Tolimán	3	Marzo	2023-03-30T00:00:00	2024-11-08T01:00:00	2	Temperatura media	16.1
115130	7	Sololá	713	San Lucas Tolimán	10	San Lucas Tolimán	3	Marzo	2023-03-30T00:00:00	2024-11-08T01:00:00	4	Temperatura máxima	16.5
115131	7	Sololá	713	San Lucas Tolimán	10	San Lucas Tolimán	3	Marzo	2023-03-30T00:00:00	2024-11-08T01:00:00	3	Temperatura mínima	16.1
115132	7	Sololá	713	San Lucas Tolimán	10	San Lucas Tolimán	3	Marzo	2023-03-30T00:00:00	2024-11-08T01:00:00	5	Humedad	55
115133	7	Sololá	713	San Lucas Tolimán	10	San Lucas Tolimán	3	Marzo	2023-03-30T00:00:00	2024-11-08T01:00:00	6	Velocidad del viento	1.6
115134	7	Sololá	713	San Lucas Tolimán	10	San Lucas Tolimán	3	Marzo	2023-03-30T00:00:00	2024-11-08T01:00:00	7	Dirección del viento	1.61
115135	7	Sololá	713	San Lucas Tolimán	10	San Lucas Tolimán	3	Marzo	2023-03-30T00:00:00	2024-11-08T01:00:00	1	Precipitación	0
115136	7	Sololá	713	San Lucas Tolimán	10	San Lucas Tolimán	3	Marzo	2023-03-30T00:00:00	2024-11-08T01:00:00	8	Radiación solar	0
115137	7	Sololá	713	San Lucas Tolimán	10	San Lucas Tolimán	3	Marzo	2023-03-30T00:00:00	2024-11-08T02:00:00	2	Temperatura media	15.9
115138	7	Sololá	713	San Lucas Tolimán	10	San Lucas Tolimán	3	Marzo	2023-03-30T00:00:00	2024-11-08T02:00:00	4	Temperatura máxima	16.1
115139	7	Sololá	713	San Lucas Tolimán	10	San Lucas Tolimán	3	Marzo	2023-03-30T00:00:00	2024-11-08T02:00:00	3	Temperatura mínima	15.8
115140	7	Sololá	713	San Lucas Tolimán	10	San Lucas Tolimán	3	Marzo	2023-03-30T00:00:00	2024-11-08T02:00:00	5	Humedad	56
115141	7	Sololá	713	San Lucas Tolimán	10	San Lucas Tolimán	3	Marzo	2023-03-30T00:00:00	2024-11-08T02:00:00	6	Velocidad del viento	3.2
115142	7	Sololá	713	San Lucas Tolimán	10	San Lucas Tolimán	3	Marzo	2023-03-30T00:00:00	2024-11-08T02:00:00	7	Dirección del viento	3.22
115143	7	Sololá	713	San Lucas Tolimán	10	San Lucas Tolimán	3	Marzo	2023-03-30T00:00:00	2024-11-08T02:00:00	1	Precipitación	0
115144	7	Sololá	713	San Lucas Tolimán	10	San Lucas Tolimán	3	Marzo	2023-03-30T00:00:00	2024-11-08T02:00:00	8	Radiación solar	0
115145	7	Sololá	713	San Lucas Tolimán	10	San Lucas Tolimán	3	Marzo	2023-03-30T00:00:00	2024-11-08T03:00:00	2	Temperatura media	16.3
115146	7	Sololá	713	San Lucas Tolimán	10	San Lucas Tolimán	3	Marzo	2023-03-30T00:00:00	2024-11-08T03:00:00	4	Temperatura máxima	16.3
115147	7	Sololá	713	San Lucas Tolimán	10	San Lucas Tolimán	3	Marzo	2023-03-30T00:00:00	2024-11-08T03:00:00	3	Temperatura mínima	15.8
115148	7	Sololá	713	San Lucas Tolimán	10	San Lucas Tolimán	3	Marzo	2023-03-30T00:00:00	2024-11-08T03:00:00	5	Humedad	54
115149	7	Sololá	713	San Lucas Tolimán	10	San Lucas Tolimán	3	Marzo	2023-03-30T00:00:00	2024-11-08T03:00:00	6	Velocidad del viento	3.2
115150	7	Sololá	713	San Lucas Tolimán	10	San Lucas Tolimán	3	Marzo	2023-03-30T00:00:00	2024-11-08T03:00:00	7	Dirección del viento	3.22
115151	7	Sololá	713	San Lucas Tolimán	10	San Lucas Tolimán	3	Marzo	2023-03-30T00:00:00	2024-11-08T03:00:00	1	Precipitación	0
115152	7	Sololá	713	San Lucas Tolimán	10	San Lucas Tolimán	3	Marzo	2023-03-30T00:00:00	2024-11-08T03:00:00	8	Radiación solar	0
115153	7	Sololá	713	San Lucas Tolimán	10	San Lucas Tolimán	3	Marzo	2023-03-30T00:00:00	2024-11-08T04:00:00	2	Temperatura media	16
115154	7	Sololá	713	San Lucas Tolimán	10	San Lucas Tolimán	3	Marzo	2023-03-30T00:00:00	2024-11-08T04:00:00	4	Temperatura máxima	16.3
115155	7	Sololá	713	San Lucas Tolimán	10	San Lucas Tolimán	3	Marzo	2023-03-30T00:00:00	2024-11-08T04:00:00	3	Temperatura mínima	15.9
115156	7	Sololá	713	San Lucas Tolimán	10	San Lucas Tolimán	3	Marzo	2023-03-30T00:00:00	2024-11-08T04:00:00	5	Humedad	55
115157	7	Sololá	713	San Lucas Tolimán	10	San Lucas Tolimán	3	Marzo	2023-03-30T00:00:00	2024-11-08T04:00:00	6	Velocidad del viento	1.6
115158	7	Sololá	713	San Lucas Tolimán	10	San Lucas Tolimán	3	Marzo	2023-03-30T00:00:00	2024-11-08T04:00:00	7	Dirección del viento	1.61
115159	7	Sololá	713	San Lucas Tolimán	10	San Lucas Tolimán	3	Marzo	2023-03-30T00:00:00	2024-11-08T04:00:00	1	Precipitación	0
115160	7	Sololá	713	San Lucas Tolimán	10	San Lucas Tolimán	3	Marzo	2023-03-30T00:00:00	2024-11-08T04:00:00	8	Radiación solar	0
115161	7	Sololá	713	San Lucas Tolimán	10	San Lucas Tolimán	3	Marzo	2023-03-30T00:00:00	2024-11-08T05:00:00	2	Temperatura media	15.6
115162	7	Sololá	713	San Lucas Tolimán	10	San Lucas Tolimán	3	Marzo	2023-03-30T00:00:00	2024-11-08T05:00:00	4	Temperatura máxima	16.1
115163	7	Sololá	713	San Lucas Tolimán	10	San Lucas Tolimán	3	Marzo	2023-03-30T00:00:00	2024-11-08T05:00:00	3	Temperatura mínima	15.6
115164	7	Sololá	713	San Lucas Tolimán	10	San Lucas Tolimán	3	Marzo	2023-03-30T00:00:00	2024-11-08T05:00:00	5	Humedad	54
115165	7	Sololá	713	San Lucas Tolimán	10	San Lucas Tolimán	3	Marzo	2023-03-30T00:00:00	2024-11-08T05:00:00	6	Velocidad del viento	4.8
115166	7	Sololá	713	San Lucas Tolimán	10	San Lucas Tolimán	3	Marzo	2023-03-30T00:00:00	2024-11-08T05:00:00	7	Dirección del viento	4.83
115167	7	Sololá	713	San Lucas Tolimán	10	San Lucas Tolimán	3	Marzo	2023-03-30T00:00:00	2024-11-08T05:00:00	1	Precipitación	0
115168	7	Sololá	713	San Lucas Tolimán	10	San Lucas Tolimán	3	Marzo	2023-03-30T00:00:00	2024-11-08T05:00:00	8	Radiación solar	0
115169	7	Sololá	713	San Lucas Tolimán	10	San Lucas Tolimán	3	Marzo	2023-03-30T00:00:00	2024-11-08T06:00:00	2	Temperatura media	14.9
115170	7	Sololá	713	San Lucas Tolimán	10	San Lucas Tolimán	3	Marzo	2023-03-30T00:00:00	2024-11-08T06:00:00	4	Temperatura máxima	15.6
115171	7	Sololá	713	San Lucas Tolimán	10	San Lucas Tolimán	3	Marzo	2023-03-30T00:00:00	2024-11-08T06:00:00	3	Temperatura mínima	14.9
115172	7	Sololá	713	San Lucas Tolimán	10	San Lucas Tolimán	3	Marzo	2023-03-30T00:00:00	2024-11-08T06:00:00	5	Humedad	56
115173	7	Sololá	713	San Lucas Tolimán	10	San Lucas Tolimán	3	Marzo	2023-03-30T00:00:00	2024-11-08T06:00:00	6	Velocidad del viento	1.6
115174	7	Sololá	713	San Lucas Tolimán	10	San Lucas Tolimán	3	Marzo	2023-03-30T00:00:00	2024-11-08T06:00:00	7	Dirección del viento	1.61
115175	7	Sololá	713	San Lucas Tolimán	10	San Lucas Tolimán	3	Marzo	2023-03-30T00:00:00	2024-11-08T06:00:00	1	Precipitación	0
115176	7	Sololá	713	San Lucas Tolimán	10	San Lucas Tolimán	3	Marzo	2023-03-30T00:00:00	2024-11-08T06:00:00	8	Radiación solar	0
115177	7	Sololá	713	San Lucas Tolimán	10	San Lucas Tolimán	3	Marzo	2023-03-30T00:00:00	2024-11-08T07:00:00	2	Temperatura media	15.3
115178	7	Sololá	713	San Lucas Tolimán	10	San Lucas Tolimán	3	Marzo	2023-03-30T00:00:00	2024-11-08T07:00:00	4	Temperatura máxima	15.3
115179	7	Sololá	713	San Lucas Tolimán	10	San Lucas Tolimán	3	Marzo	2023-03-30T00:00:00	2024-11-08T07:00:00	3	Temperatura mínima	14.9
115180	7	Sololá	713	San Lucas Tolimán	10	San Lucas Tolimán	3	Marzo	2023-03-30T00:00:00	2024-11-08T07:00:00	5	Humedad	55
115181	7	Sololá	713	San Lucas Tolimán	10	San Lucas Tolimán	3	Marzo	2023-03-30T00:00:00	2024-11-08T07:00:00	6	Velocidad del viento	1.6
115182	7	Sololá	713	San Lucas Tolimán	10	San Lucas Tolimán	3	Marzo	2023-03-30T00:00:00	2024-11-08T07:00:00	7	Dirección del viento	1.61
115183	7	Sololá	713	San Lucas Tolimán	10	San Lucas Tolimán	3	Marzo	2023-03-30T00:00:00	2024-11-08T07:00:00	1	Precipitación	0
115184	7	Sololá	713	San Lucas Tolimán	10	San Lucas Tolimán	3	Marzo	2023-03-30T00:00:00	2024-11-08T07:00:00	8	Radiación solar	19
115185	7	Sololá	713	San Lucas Tolimán	10	San Lucas Tolimán	3	Marzo	2023-03-30T00:00:00	2024-11-08T08:00:00	2	Temperatura media	19
115186	7	Sololá	713	San Lucas Tolimán	10	San Lucas Tolimán	3	Marzo	2023-03-30T00:00:00	2024-11-08T08:00:00	4	Temperatura máxima	19
115187	7	Sololá	713	San Lucas Tolimán	10	San Lucas Tolimán	3	Marzo	2023-03-30T00:00:00	2024-11-08T08:00:00	3	Temperatura mínima	15.3
115188	7	Sololá	713	San Lucas Tolimán	10	San Lucas Tolimán	3	Marzo	2023-03-30T00:00:00	2024-11-08T08:00:00	5	Humedad	47
115189	7	Sololá	713	San Lucas Tolimán	10	San Lucas Tolimán	3	Marzo	2023-03-30T00:00:00	2024-11-08T08:00:00	6	Velocidad del viento	3.2
115190	7	Sololá	713	San Lucas Tolimán	10	San Lucas Tolimán	3	Marzo	2023-03-30T00:00:00	2024-11-08T08:00:00	7	Dirección del viento	3.22
115191	7	Sololá	713	San Lucas Tolimán	10	San Lucas Tolimán	3	Marzo	2023-03-30T00:00:00	2024-11-08T08:00:00	1	Precipitación	0
115192	7	Sololá	713	San Lucas Tolimán	10	San Lucas Tolimán	3	Marzo	2023-03-30T00:00:00	2024-11-08T08:00:00	8	Radiación solar	240
115193	7	Sololá	713	San Lucas Tolimán	10	San Lucas Tolimán	3	Marzo	2023-03-30T00:00:00	2024-11-08T09:00:00	2	Temperatura media	22.1
115194	7	Sololá	713	San Lucas Tolimán	10	San Lucas Tolimán	3	Marzo	2023-03-30T00:00:00	2024-11-08T09:00:00	4	Temperatura máxima	22.1
115195	7	Sololá	713	San Lucas Tolimán	10	San Lucas Tolimán	3	Marzo	2023-03-30T00:00:00	2024-11-08T09:00:00	3	Temperatura mínima	18.8
115196	7	Sololá	713	San Lucas Tolimán	10	San Lucas Tolimán	3	Marzo	2023-03-30T00:00:00	2024-11-08T09:00:00	5	Humedad	34
115197	7	Sololá	713	San Lucas Tolimán	10	San Lucas Tolimán	3	Marzo	2023-03-30T00:00:00	2024-11-08T09:00:00	6	Velocidad del viento	3.2
115198	7	Sololá	713	San Lucas Tolimán	10	San Lucas Tolimán	3	Marzo	2023-03-30T00:00:00	2024-11-08T09:00:00	7	Dirección del viento	3.22
115199	7	Sololá	713	San Lucas Tolimán	10	San Lucas Tolimán	3	Marzo	2023-03-30T00:00:00	2024-11-08T09:00:00	1	Precipitación	0
115200	7	Sololá	713	San Lucas Tolimán	10	San Lucas Tolimán	3	Marzo	2023-03-30T00:00:00	2024-11-08T09:00:00	8	Radiación solar	517
115201	7	Sololá	713	San Lucas Tolimán	10	San Lucas Tolimán	3	Marzo	2023-03-30T00:00:00	2024-11-08T10:00:00	2	Temperatura media	23.3
115202	7	Sololá	713	San Lucas Tolimán	10	San Lucas Tolimán	3	Marzo	2023-03-30T00:00:00	2024-11-08T10:00:00	4	Temperatura máxima	23.4
115203	7	Sololá	713	San Lucas Tolimán	10	San Lucas Tolimán	3	Marzo	2023-03-30T00:00:00	2024-11-08T10:00:00	3	Temperatura mínima	21.3
115204	7	Sololá	713	San Lucas Tolimán	10	San Lucas Tolimán	3	Marzo	2023-03-30T00:00:00	2024-11-08T10:00:00	5	Humedad	33
115205	7	Sololá	713	San Lucas Tolimán	10	San Lucas Tolimán	3	Marzo	2023-03-30T00:00:00	2024-11-08T10:00:00	6	Velocidad del viento	9.7
115206	7	Sololá	713	San Lucas Tolimán	10	San Lucas Tolimán	3	Marzo	2023-03-30T00:00:00	2024-11-08T10:00:00	7	Dirección del viento	9.66
115207	7	Sololá	713	San Lucas Tolimán	10	San Lucas Tolimán	3	Marzo	2023-03-30T00:00:00	2024-11-08T10:00:00	1	Precipitación	0
115208	7	Sololá	713	San Lucas Tolimán	10	San Lucas Tolimán	3	Marzo	2023-03-30T00:00:00	2024-11-08T10:00:00	8	Radiación solar	825
115209	7	Sololá	713	San Lucas Tolimán	10	San Lucas Tolimán	3	Marzo	2023-03-30T00:00:00	2024-11-08T11:00:00	2	Temperatura media	24
115210	7	Sololá	713	San Lucas Tolimán	10	San Lucas Tolimán	3	Marzo	2023-03-30T00:00:00	2024-11-08T11:00:00	4	Temperatura máxima	24
115211	7	Sololá	713	San Lucas Tolimán	10	San Lucas Tolimán	3	Marzo	2023-03-30T00:00:00	2024-11-08T11:00:00	3	Temperatura mínima	22.9
115212	7	Sololá	713	San Lucas Tolimán	10	San Lucas Tolimán	3	Marzo	2023-03-30T00:00:00	2024-11-08T11:00:00	5	Humedad	34
115213	7	Sololá	713	San Lucas Tolimán	10	San Lucas Tolimán	3	Marzo	2023-03-30T00:00:00	2024-11-08T11:00:00	6	Velocidad del viento	12.9
115214	7	Sololá	713	San Lucas Tolimán	10	San Lucas Tolimán	3	Marzo	2023-03-30T00:00:00	2024-11-08T11:00:00	7	Dirección del viento	12.87
115215	7	Sololá	713	San Lucas Tolimán	10	San Lucas Tolimán	3	Marzo	2023-03-30T00:00:00	2024-11-08T11:00:00	1	Precipitación	0
115216	7	Sololá	713	San Lucas Tolimán	10	San Lucas Tolimán	3	Marzo	2023-03-30T00:00:00	2024-11-08T11:00:00	8	Radiación solar	1010
115217	7	Sololá	713	San Lucas Tolimán	10	San Lucas Tolimán	3	Marzo	2023-03-30T00:00:00	2024-11-08T12:00:00	2	Temperatura media	24.6
115218	7	Sololá	713	San Lucas Tolimán	10	San Lucas Tolimán	3	Marzo	2023-03-30T00:00:00	2024-11-08T12:00:00	4	Temperatura máxima	24.9
115219	7	Sololá	713	San Lucas Tolimán	10	San Lucas Tolimán	3	Marzo	2023-03-30T00:00:00	2024-11-08T12:00:00	3	Temperatura mínima	23.8
115220	7	Sololá	713	San Lucas Tolimán	10	San Lucas Tolimán	3	Marzo	2023-03-30T00:00:00	2024-11-08T12:00:00	5	Humedad	51
115221	7	Sololá	713	San Lucas Tolimán	10	San Lucas Tolimán	3	Marzo	2023-03-30T00:00:00	2024-11-08T12:00:00	6	Velocidad del viento	11.3
115222	7	Sololá	713	San Lucas Tolimán	10	San Lucas Tolimán	3	Marzo	2023-03-30T00:00:00	2024-11-08T12:00:00	7	Dirección del viento	11.27
115223	7	Sololá	713	San Lucas Tolimán	10	San Lucas Tolimán	3	Marzo	2023-03-30T00:00:00	2024-11-08T12:00:00	1	Precipitación	0
115224	7	Sololá	713	San Lucas Tolimán	10	San Lucas Tolimán	3	Marzo	2023-03-30T00:00:00	2024-11-08T12:00:00	8	Radiación solar	1066
115225	7	Sololá	713	San Lucas Tolimán	10	San Lucas Tolimán	3	Marzo	2023-03-30T00:00:00	2024-11-08T13:00:00	2	Temperatura media	23.9
115226	7	Sololá	713	San Lucas Tolimán	10	San Lucas Tolimán	3	Marzo	2023-03-30T00:00:00	2024-11-08T13:00:00	4	Temperatura máxima	24.6
115227	7	Sololá	713	San Lucas Tolimán	10	San Lucas Tolimán	3	Marzo	2023-03-30T00:00:00	2024-11-08T13:00:00	3	Temperatura mínima	23.4
115228	7	Sololá	713	San Lucas Tolimán	10	San Lucas Tolimán	3	Marzo	2023-03-30T00:00:00	2024-11-08T13:00:00	5	Humedad	54
115229	7	Sololá	713	San Lucas Tolimán	10	San Lucas Tolimán	3	Marzo	2023-03-30T00:00:00	2024-11-08T13:00:00	6	Velocidad del viento	9.7
115230	7	Sololá	713	San Lucas Tolimán	10	San Lucas Tolimán	3	Marzo	2023-03-30T00:00:00	2024-11-08T13:00:00	7	Dirección del viento	9.66
115231	7	Sololá	713	San Lucas Tolimán	10	San Lucas Tolimán	3	Marzo	2023-03-30T00:00:00	2024-11-08T13:00:00	1	Precipitación	0
115232	7	Sololá	713	San Lucas Tolimán	10	San Lucas Tolimán	3	Marzo	2023-03-30T00:00:00	2024-11-08T13:00:00	8	Radiación solar	1069
115233	7	Sololá	713	San Lucas Tolimán	10	San Lucas Tolimán	3	Marzo	2023-03-30T00:00:00	2024-11-08T14:00:00	2	Temperatura media	24
115234	7	Sololá	713	San Lucas Tolimán	10	San Lucas Tolimán	3	Marzo	2023-03-30T00:00:00	2024-11-08T14:00:00	4	Temperatura máxima	24.5
115235	7	Sololá	713	San Lucas Tolimán	10	San Lucas Tolimán	3	Marzo	2023-03-30T00:00:00	2024-11-08T14:00:00	3	Temperatura mínima	23.6
115236	7	Sololá	713	San Lucas Tolimán	10	San Lucas Tolimán	3	Marzo	2023-03-30T00:00:00	2024-11-08T14:00:00	5	Humedad	52
115237	7	Sololá	713	San Lucas Tolimán	10	San Lucas Tolimán	3	Marzo	2023-03-30T00:00:00	2024-11-08T14:00:00	6	Velocidad del viento	9.7
115238	7	Sololá	713	San Lucas Tolimán	10	San Lucas Tolimán	3	Marzo	2023-03-30T00:00:00	2024-11-08T14:00:00	7	Dirección del viento	9.66
115239	7	Sololá	713	San Lucas Tolimán	10	San Lucas Tolimán	3	Marzo	2023-03-30T00:00:00	2024-11-08T14:00:00	1	Precipitación	0
115240	7	Sololá	713	San Lucas Tolimán	10	San Lucas Tolimán	3	Marzo	2023-03-30T00:00:00	2024-11-08T14:00:00	8	Radiación solar	1053
115241	7	Sololá	713	San Lucas Tolimán	10	San Lucas Tolimán	3	Marzo	2023-03-30T00:00:00	2024-11-08T15:00:00	2	Temperatura media	23.9
115242	7	Sololá	713	San Lucas Tolimán	10	San Lucas Tolimán	3	Marzo	2023-03-30T00:00:00	2024-11-08T15:00:00	4	Temperatura máxima	24.3
115243	7	Sololá	713	San Lucas Tolimán	10	San Lucas Tolimán	3	Marzo	2023-03-30T00:00:00	2024-11-08T15:00:00	3	Temperatura mínima	23.2
115244	7	Sololá	713	San Lucas Tolimán	10	San Lucas Tolimán	3	Marzo	2023-03-30T00:00:00	2024-11-08T15:00:00	5	Humedad	52
115245	7	Sololá	713	San Lucas Tolimán	10	San Lucas Tolimán	3	Marzo	2023-03-30T00:00:00	2024-11-08T15:00:00	6	Velocidad del viento	12.9
115246	7	Sololá	713	San Lucas Tolimán	10	San Lucas Tolimán	3	Marzo	2023-03-30T00:00:00	2024-11-08T15:00:00	7	Dirección del viento	12.87
115247	7	Sololá	713	San Lucas Tolimán	10	San Lucas Tolimán	3	Marzo	2023-03-30T00:00:00	2024-11-08T15:00:00	1	Precipitación	0
115248	7	Sololá	713	San Lucas Tolimán	10	San Lucas Tolimán	3	Marzo	2023-03-30T00:00:00	2024-11-08T15:00:00	8	Radiación solar	896
115249	7	Sololá	713	San Lucas Tolimán	10	San Lucas Tolimán	3	Marzo	2023-03-30T00:00:00	2024-11-08T16:00:00	2	Temperatura media	22.7
115250	7	Sololá	713	San Lucas Tolimán	10	San Lucas Tolimán	3	Marzo	2023-03-30T00:00:00	2024-11-08T16:00:00	4	Temperatura máxima	23.8
115251	7	Sololá	713	San Lucas Tolimán	10	San Lucas Tolimán	3	Marzo	2023-03-30T00:00:00	2024-11-08T16:00:00	3	Temperatura mínima	22.6
115252	7	Sololá	713	San Lucas Tolimán	10	San Lucas Tolimán	3	Marzo	2023-03-30T00:00:00	2024-11-08T16:00:00	5	Humedad	58
115253	7	Sololá	713	San Lucas Tolimán	10	San Lucas Tolimán	3	Marzo	2023-03-30T00:00:00	2024-11-08T16:00:00	6	Velocidad del viento	9.7
115254	7	Sololá	713	San Lucas Tolimán	10	San Lucas Tolimán	3	Marzo	2023-03-30T00:00:00	2024-11-08T16:00:00	7	Dirección del viento	9.66
115255	7	Sololá	713	San Lucas Tolimán	10	San Lucas Tolimán	3	Marzo	2023-03-30T00:00:00	2024-11-08T16:00:00	1	Precipitación	0
115256	7	Sololá	713	San Lucas Tolimán	10	San Lucas Tolimán	3	Marzo	2023-03-30T00:00:00	2024-11-08T16:00:00	8	Radiación solar	681
115257	7	Sololá	713	San Lucas Tolimán	10	San Lucas Tolimán	3	Marzo	2023-03-30T00:00:00	2024-11-08T17:00:00	2	Temperatura media	21.2
115258	7	Sololá	713	San Lucas Tolimán	10	San Lucas Tolimán	3	Marzo	2023-03-30T00:00:00	2024-11-08T17:00:00	4	Temperatura máxima	23
115259	7	Sololá	713	San Lucas Tolimán	10	San Lucas Tolimán	3	Marzo	2023-03-30T00:00:00	2024-11-08T17:00:00	3	Temperatura mínima	21.2
115260	7	Sololá	713	San Lucas Tolimán	10	San Lucas Tolimán	3	Marzo	2023-03-30T00:00:00	2024-11-08T17:00:00	5	Humedad	61
115261	7	Sololá	713	San Lucas Tolimán	10	San Lucas Tolimán	3	Marzo	2023-03-30T00:00:00	2024-11-08T17:00:00	6	Velocidad del viento	9.7
115262	7	Sololá	713	San Lucas Tolimán	10	San Lucas Tolimán	3	Marzo	2023-03-30T00:00:00	2024-11-08T17:00:00	7	Dirección del viento	9.66
115263	7	Sololá	713	San Lucas Tolimán	10	San Lucas Tolimán	3	Marzo	2023-03-30T00:00:00	2024-11-08T17:00:00	1	Precipitación	0
115264	7	Sololá	713	San Lucas Tolimán	10	San Lucas Tolimán	3	Marzo	2023-03-30T00:00:00	2024-11-08T17:00:00	8	Radiación solar	385
115265	7	Sololá	713	San Lucas Tolimán	10	San Lucas Tolimán	3	Marzo	2023-03-30T00:00:00	2024-11-08T18:00:00	2	Temperatura media	18.6
115266	7	Sololá	713	San Lucas Tolimán	10	San Lucas Tolimán	3	Marzo	2023-03-30T00:00:00	2024-11-08T18:00:00	4	Temperatura máxima	21.1
115267	7	Sololá	713	San Lucas Tolimán	10	San Lucas Tolimán	3	Marzo	2023-03-30T00:00:00	2024-11-08T18:00:00	3	Temperatura mínima	18.6
115268	7	Sololá	713	San Lucas Tolimán	10	San Lucas Tolimán	3	Marzo	2023-03-30T00:00:00	2024-11-08T18:00:00	5	Humedad	62
115269	7	Sololá	713	San Lucas Tolimán	10	San Lucas Tolimán	3	Marzo	2023-03-30T00:00:00	2024-11-08T18:00:00	6	Velocidad del viento	11.3
115270	7	Sololá	713	San Lucas Tolimán	10	San Lucas Tolimán	3	Marzo	2023-03-30T00:00:00	2024-11-08T18:00:00	7	Dirección del viento	11.27
115271	7	Sololá	713	San Lucas Tolimán	10	San Lucas Tolimán	3	Marzo	2023-03-30T00:00:00	2024-11-08T18:00:00	1	Precipitación	0
115272	7	Sololá	713	San Lucas Tolimán	10	San Lucas Tolimán	3	Marzo	2023-03-30T00:00:00	2024-11-08T18:00:00	8	Radiación solar	80
115273	7	Sololá	713	San Lucas Tolimán	10	San Lucas Tolimán	3	Marzo	2023-03-30T00:00:00	2024-11-08T19:00:00	2	Temperatura media	18.1
115274	7	Sololá	713	San Lucas Tolimán	10	San Lucas Tolimán	3	Marzo	2023-03-30T00:00:00	2024-11-08T19:00:00	4	Temperatura máxima	18.6
115275	7	Sololá	713	San Lucas Tolimán	10	San Lucas Tolimán	3	Marzo	2023-03-30T00:00:00	2024-11-08T19:00:00	3	Temperatura mínima	17.9
115276	7	Sololá	713	San Lucas Tolimán	10	San Lucas Tolimán	3	Marzo	2023-03-30T00:00:00	2024-11-08T19:00:00	5	Humedad	61
115277	7	Sololá	713	San Lucas Tolimán	10	San Lucas Tolimán	3	Marzo	2023-03-30T00:00:00	2024-11-08T19:00:00	6	Velocidad del viento	9.7
115278	7	Sololá	713	San Lucas Tolimán	10	San Lucas Tolimán	3	Marzo	2023-03-30T00:00:00	2024-11-08T19:00:00	7	Dirección del viento	9.66
115279	7	Sololá	713	San Lucas Tolimán	10	San Lucas Tolimán	3	Marzo	2023-03-30T00:00:00	2024-11-08T19:00:00	1	Precipitación	0
115280	7	Sololá	713	San Lucas Tolimán	10	San Lucas Tolimán	3	Marzo	2023-03-30T00:00:00	2024-11-08T19:00:00	8	Radiación solar	0
115281	7	Sololá	713	San Lucas Tolimán	10	San Lucas Tolimán	3	Marzo	2023-03-30T00:00:00	2024-11-08T20:00:00	2	Temperatura media	17.4
115282	7	Sololá	713	San Lucas Tolimán	10	San Lucas Tolimán	3	Marzo	2023-03-30T00:00:00	2024-11-08T20:00:00	4	Temperatura máxima	18.1
115283	7	Sololá	713	San Lucas Tolimán	10	San Lucas Tolimán	3	Marzo	2023-03-30T00:00:00	2024-11-08T20:00:00	3	Temperatura mínima	17.3
115284	7	Sololá	713	San Lucas Tolimán	10	San Lucas Tolimán	3	Marzo	2023-03-30T00:00:00	2024-11-08T20:00:00	5	Humedad	59
115285	7	Sololá	713	San Lucas Tolimán	10	San Lucas Tolimán	3	Marzo	2023-03-30T00:00:00	2024-11-08T20:00:00	6	Velocidad del viento	4.8
115286	7	Sololá	713	San Lucas Tolimán	10	San Lucas Tolimán	3	Marzo	2023-03-30T00:00:00	2024-11-08T20:00:00	7	Dirección del viento	4.83
115287	7	Sololá	713	San Lucas Tolimán	10	San Lucas Tolimán	3	Marzo	2023-03-30T00:00:00	2024-11-08T20:00:00	1	Precipitación	0
115288	7	Sololá	713	San Lucas Tolimán	10	San Lucas Tolimán	3	Marzo	2023-03-30T00:00:00	2024-11-08T20:00:00	8	Radiación solar	0
115289	7	Sololá	713	San Lucas Tolimán	10	San Lucas Tolimán	3	Marzo	2023-03-30T00:00:00	2024-11-08T21:00:00	2	Temperatura media	19.2
115290	7	Sololá	713	San Lucas Tolimán	10	San Lucas Tolimán	3	Marzo	2023-03-30T00:00:00	2024-11-08T21:00:00	4	Temperatura máxima	19.2
115291	7	Sololá	713	San Lucas Tolimán	10	San Lucas Tolimán	3	Marzo	2023-03-30T00:00:00	2024-11-08T21:00:00	3	Temperatura mínima	17.3
115292	7	Sololá	713	San Lucas Tolimán	10	San Lucas Tolimán	3	Marzo	2023-03-30T00:00:00	2024-11-08T21:00:00	5	Humedad	54
115293	7	Sololá	713	San Lucas Tolimán	10	San Lucas Tolimán	3	Marzo	2023-03-30T00:00:00	2024-11-08T21:00:00	6	Velocidad del viento	3.2
115294	7	Sololá	713	San Lucas Tolimán	10	San Lucas Tolimán	3	Marzo	2023-03-30T00:00:00	2024-11-08T21:00:00	7	Dirección del viento	3.22
115295	7	Sololá	713	San Lucas Tolimán	10	San Lucas Tolimán	3	Marzo	2023-03-30T00:00:00	2024-11-08T21:00:00	1	Precipitación	0
115296	7	Sololá	713	San Lucas Tolimán	10	San Lucas Tolimán	3	Marzo	2023-03-30T00:00:00	2024-11-08T21:00:00	8	Radiación solar	0
115297	7	Sololá	713	San Lucas Tolimán	10	San Lucas Tolimán	3	Marzo	2023-03-30T00:00:00	2024-11-08T22:00:00	2	Temperatura media	18.6
115298	7	Sololá	713	San Lucas Tolimán	10	San Lucas Tolimán	3	Marzo	2023-03-30T00:00:00	2024-11-08T22:00:00	4	Temperatura máxima	19.4
115299	7	Sololá	713	San Lucas Tolimán	10	San Lucas Tolimán	3	Marzo	2023-03-30T00:00:00	2024-11-08T22:00:00	3	Temperatura mínima	18.6
115300	7	Sololá	713	San Lucas Tolimán	10	San Lucas Tolimán	3	Marzo	2023-03-30T00:00:00	2024-11-08T22:00:00	5	Humedad	54
115301	7	Sololá	713	San Lucas Tolimán	10	San Lucas Tolimán	3	Marzo	2023-03-30T00:00:00	2024-11-08T22:00:00	6	Velocidad del viento	8
115302	7	Sololá	713	San Lucas Tolimán	10	San Lucas Tolimán	3	Marzo	2023-03-30T00:00:00	2024-11-08T22:00:00	7	Dirección del viento	8.05
115303	7	Sololá	713	San Lucas Tolimán	10	San Lucas Tolimán	3	Marzo	2023-03-30T00:00:00	2024-11-08T22:00:00	1	Precipitación	0
115304	7	Sololá	713	San Lucas Tolimán	10	San Lucas Tolimán	3	Marzo	2023-03-30T00:00:00	2024-11-08T22:00:00	8	Radiación solar	0
115305	7	Sololá	713	San Lucas Tolimán	10	San Lucas Tolimán	3	Marzo	2023-03-30T00:00:00	2024-11-08T23:00:00	2	Temperatura media	18.1
115306	7	Sololá	713	San Lucas Tolimán	10	San Lucas Tolimán	3	Marzo	2023-03-30T00:00:00	2024-11-08T23:00:00	4	Temperatura máxima	18.6
115307	7	Sololá	713	San Lucas Tolimán	10	San Lucas Tolimán	3	Marzo	2023-03-30T00:00:00	2024-11-08T23:00:00	3	Temperatura mínima	18.1
115308	7	Sololá	713	San Lucas Tolimán	10	San Lucas Tolimán	3	Marzo	2023-03-30T00:00:00	2024-11-08T23:00:00	5	Humedad	55
115309	7	Sololá	713	San Lucas Tolimán	10	San Lucas Tolimán	3	Marzo	2023-03-30T00:00:00	2024-11-08T23:00:00	6	Velocidad del viento	3.2
115310	7	Sololá	713	San Lucas Tolimán	10	San Lucas Tolimán	3	Marzo	2023-03-30T00:00:00	2024-11-08T23:00:00	7	Dirección del viento	3.22
115311	7	Sololá	713	San Lucas Tolimán	10	San Lucas Tolimán	3	Marzo	2023-03-30T00:00:00	2024-11-08T23:00:00	1	Precipitación	0
115312	7	Sololá	713	San Lucas Tolimán	10	San Lucas Tolimán	3	Marzo	2023-03-30T00:00:00	2024-11-08T23:00:00	8	Radiación solar	0
115313	7	Sololá	713	San Lucas Tolimán	10	San Lucas Tolimán	3	Marzo	2023-03-31T00:00:00	2024-11-08T00:00:00	2	Temperatura media	17.2
115314	7	Sololá	713	San Lucas Tolimán	10	San Lucas Tolimán	3	Marzo	2023-03-31T00:00:00	2024-11-08T00:00:00	4	Temperatura máxima	18.1
115315	7	Sololá	713	San Lucas Tolimán	10	San Lucas Tolimán	3	Marzo	2023-03-31T00:00:00	2024-11-08T00:00:00	3	Temperatura mínima	17.2
115316	7	Sololá	713	San Lucas Tolimán	10	San Lucas Tolimán	3	Marzo	2023-03-31T00:00:00	2024-11-08T00:00:00	5	Humedad	57
115317	7	Sololá	713	San Lucas Tolimán	10	San Lucas Tolimán	3	Marzo	2023-03-31T00:00:00	2024-11-08T00:00:00	6	Velocidad del viento	1.6
115318	7	Sololá	713	San Lucas Tolimán	10	San Lucas Tolimán	3	Marzo	2023-03-31T00:00:00	2024-11-08T00:00:00	7	Dirección del viento	1.61
115319	7	Sololá	713	San Lucas Tolimán	10	San Lucas Tolimán	3	Marzo	2023-03-31T00:00:00	2024-11-08T00:00:00	1	Precipitación	0
115320	7	Sololá	713	San Lucas Tolimán	10	San Lucas Tolimán	3	Marzo	2023-03-31T00:00:00	2024-11-08T00:00:00	8	Radiación solar	0
115321	7	Sololá	713	San Lucas Tolimán	10	San Lucas Tolimán	3	Marzo	2023-03-31T00:00:00	2024-11-08T01:00:00	2	Temperatura media	17.1
115322	7	Sololá	713	San Lucas Tolimán	10	San Lucas Tolimán	3	Marzo	2023-03-31T00:00:00	2024-11-08T01:00:00	4	Temperatura máxima	17.6
115323	7	Sololá	713	San Lucas Tolimán	10	San Lucas Tolimán	3	Marzo	2023-03-31T00:00:00	2024-11-08T01:00:00	3	Temperatura mínima	17.1
115324	7	Sololá	713	San Lucas Tolimán	10	San Lucas Tolimán	3	Marzo	2023-03-31T00:00:00	2024-11-08T01:00:00	5	Humedad	56
115325	7	Sololá	713	San Lucas Tolimán	10	San Lucas Tolimán	3	Marzo	2023-03-31T00:00:00	2024-11-08T01:00:00	6	Velocidad del viento	3.2
115326	7	Sololá	713	San Lucas Tolimán	10	San Lucas Tolimán	3	Marzo	2023-03-31T00:00:00	2024-11-08T01:00:00	7	Dirección del viento	3.22
115327	7	Sololá	713	San Lucas Tolimán	10	San Lucas Tolimán	3	Marzo	2023-03-31T00:00:00	2024-11-08T01:00:00	1	Precipitación	0
115328	7	Sololá	713	San Lucas Tolimán	10	San Lucas Tolimán	3	Marzo	2023-03-31T00:00:00	2024-11-08T01:00:00	8	Radiación solar	0
115329	7	Sololá	713	San Lucas Tolimán	10	San Lucas Tolimán	3	Marzo	2023-03-31T00:00:00	2024-11-08T02:00:00	2	Temperatura media	16.8
115330	7	Sololá	713	San Lucas Tolimán	10	San Lucas Tolimán	3	Marzo	2023-03-31T00:00:00	2024-11-08T02:00:00	4	Temperatura máxima	17.2
115331	7	Sololá	713	San Lucas Tolimán	10	San Lucas Tolimán	3	Marzo	2023-03-31T00:00:00	2024-11-08T02:00:00	3	Temperatura mínima	16.8
115332	7	Sololá	713	San Lucas Tolimán	10	San Lucas Tolimán	3	Marzo	2023-03-31T00:00:00	2024-11-08T02:00:00	5	Humedad	55
115333	7	Sololá	713	San Lucas Tolimán	10	San Lucas Tolimán	3	Marzo	2023-03-31T00:00:00	2024-11-08T02:00:00	6	Velocidad del viento	3.2
115334	7	Sololá	713	San Lucas Tolimán	10	San Lucas Tolimán	3	Marzo	2023-03-31T00:00:00	2024-11-08T02:00:00	7	Dirección del viento	3.22
115335	7	Sololá	713	San Lucas Tolimán	10	San Lucas Tolimán	3	Marzo	2023-03-31T00:00:00	2024-11-08T02:00:00	1	Precipitación	0
115336	7	Sololá	713	San Lucas Tolimán	10	San Lucas Tolimán	3	Marzo	2023-03-31T00:00:00	2024-11-08T02:00:00	8	Radiación solar	0
115337	7	Sololá	713	San Lucas Tolimán	10	San Lucas Tolimán	3	Marzo	2023-03-31T00:00:00	2024-11-08T03:00:00	2	Temperatura media	16.2
115338	7	Sololá	713	San Lucas Tolimán	10	San Lucas Tolimán	3	Marzo	2023-03-31T00:00:00	2024-11-08T03:00:00	4	Temperatura máxima	16.9
115339	7	Sololá	713	San Lucas Tolimán	10	San Lucas Tolimán	3	Marzo	2023-03-31T00:00:00	2024-11-08T03:00:00	3	Temperatura mínima	16.1
115340	7	Sololá	713	San Lucas Tolimán	10	San Lucas Tolimán	3	Marzo	2023-03-31T00:00:00	2024-11-08T03:00:00	5	Humedad	57
115341	7	Sololá	713	San Lucas Tolimán	10	San Lucas Tolimán	3	Marzo	2023-03-31T00:00:00	2024-11-08T03:00:00	6	Velocidad del viento	3.2
115342	7	Sololá	713	San Lucas Tolimán	10	San Lucas Tolimán	3	Marzo	2023-03-31T00:00:00	2024-11-08T03:00:00	7	Dirección del viento	3.22
115343	7	Sololá	713	San Lucas Tolimán	10	San Lucas Tolimán	3	Marzo	2023-03-31T00:00:00	2024-11-08T03:00:00	1	Precipitación	0
115344	7	Sololá	713	San Lucas Tolimán	10	San Lucas Tolimán	3	Marzo	2023-03-31T00:00:00	2024-11-08T03:00:00	8	Radiación solar	0
115345	7	Sololá	713	San Lucas Tolimán	10	San Lucas Tolimán	3	Marzo	2023-03-31T00:00:00	2024-11-08T04:00:00	2	Temperatura media	15.6
115346	7	Sololá	713	San Lucas Tolimán	10	San Lucas Tolimán	3	Marzo	2023-03-31T00:00:00	2024-11-08T04:00:00	4	Temperatura máxima	16.2
115347	7	Sololá	713	San Lucas Tolimán	10	San Lucas Tolimán	3	Marzo	2023-03-31T00:00:00	2024-11-08T04:00:00	3	Temperatura mínima	15.6
115348	7	Sololá	713	San Lucas Tolimán	10	San Lucas Tolimán	3	Marzo	2023-03-31T00:00:00	2024-11-08T04:00:00	5	Humedad	58
115349	7	Sololá	713	San Lucas Tolimán	10	San Lucas Tolimán	3	Marzo	2023-03-31T00:00:00	2024-11-08T04:00:00	6	Velocidad del viento	1.6
115350	7	Sololá	713	San Lucas Tolimán	10	San Lucas Tolimán	3	Marzo	2023-03-31T00:00:00	2024-11-08T04:00:00	7	Dirección del viento	1.61
115351	7	Sololá	713	San Lucas Tolimán	10	San Lucas Tolimán	3	Marzo	2023-03-31T00:00:00	2024-11-08T04:00:00	1	Precipitación	0
115352	7	Sololá	713	San Lucas Tolimán	10	San Lucas Tolimán	3	Marzo	2023-03-31T00:00:00	2024-11-08T04:00:00	8	Radiación solar	0
115353	7	Sololá	713	San Lucas Tolimán	10	San Lucas Tolimán	3	Marzo	2023-03-31T00:00:00	2024-11-08T05:00:00	2	Temperatura media	15.2
115354	7	Sololá	713	San Lucas Tolimán	10	San Lucas Tolimán	3	Marzo	2023-03-31T00:00:00	2024-11-08T05:00:00	4	Temperatura máxima	15.6
115355	7	Sololá	713	San Lucas Tolimán	10	San Lucas Tolimán	3	Marzo	2023-03-31T00:00:00	2024-11-08T05:00:00	3	Temperatura mínima	15.1
115356	7	Sololá	713	San Lucas Tolimán	10	San Lucas Tolimán	3	Marzo	2023-03-31T00:00:00	2024-11-08T05:00:00	5	Humedad	59
115357	7	Sololá	713	San Lucas Tolimán	10	San Lucas Tolimán	3	Marzo	2023-03-31T00:00:00	2024-11-08T05:00:00	6	Velocidad del viento	1.6
115358	7	Sololá	713	San Lucas Tolimán	10	San Lucas Tolimán	3	Marzo	2023-03-31T00:00:00	2024-11-08T05:00:00	7	Dirección del viento	1.61
115359	7	Sololá	713	San Lucas Tolimán	10	San Lucas Tolimán	3	Marzo	2023-03-31T00:00:00	2024-11-08T05:00:00	1	Precipitación	0
115360	7	Sololá	713	San Lucas Tolimán	10	San Lucas Tolimán	3	Marzo	2023-03-31T00:00:00	2024-11-08T05:00:00	8	Radiación solar	0
115361	7	Sololá	713	San Lucas Tolimán	10	San Lucas Tolimán	3	Marzo	2023-03-31T00:00:00	2024-11-08T06:00:00	2	Temperatura media	14.7
115362	7	Sololá	713	San Lucas Tolimán	10	San Lucas Tolimán	3	Marzo	2023-03-31T00:00:00	2024-11-08T06:00:00	4	Temperatura máxima	15.3
115363	7	Sololá	713	San Lucas Tolimán	10	San Lucas Tolimán	3	Marzo	2023-03-31T00:00:00	2024-11-08T06:00:00	3	Temperatura mínima	14.7
115364	7	Sololá	713	San Lucas Tolimán	10	San Lucas Tolimán	3	Marzo	2023-03-31T00:00:00	2024-11-08T06:00:00	5	Humedad	61
115365	7	Sololá	713	San Lucas Tolimán	10	San Lucas Tolimán	3	Marzo	2023-03-31T00:00:00	2024-11-08T06:00:00	6	Velocidad del viento	0
115366	7	Sololá	713	San Lucas Tolimán	10	San Lucas Tolimán	3	Marzo	2023-03-31T00:00:00	2024-11-08T06:00:00	7	Dirección del viento	0
115367	7	Sololá	713	San Lucas Tolimán	10	San Lucas Tolimán	3	Marzo	2023-03-31T00:00:00	2024-11-08T06:00:00	1	Precipitación	0
115368	7	Sololá	713	San Lucas Tolimán	10	San Lucas Tolimán	3	Marzo	2023-03-31T00:00:00	2024-11-08T06:00:00	8	Radiación solar	0
115369	7	Sololá	713	San Lucas Tolimán	10	San Lucas Tolimán	3	Marzo	2023-03-31T00:00:00	2024-11-08T07:00:00	2	Temperatura media	14.7
115370	7	Sololá	713	San Lucas Tolimán	10	San Lucas Tolimán	3	Marzo	2023-03-31T00:00:00	2024-11-08T07:00:00	4	Temperatura máxima	14.7
115371	7	Sololá	713	San Lucas Tolimán	10	San Lucas Tolimán	3	Marzo	2023-03-31T00:00:00	2024-11-08T07:00:00	3	Temperatura mínima	14.4
115372	7	Sololá	713	San Lucas Tolimán	10	San Lucas Tolimán	3	Marzo	2023-03-31T00:00:00	2024-11-08T07:00:00	5	Humedad	61
115373	7	Sololá	713	San Lucas Tolimán	10	San Lucas Tolimán	3	Marzo	2023-03-31T00:00:00	2024-11-08T07:00:00	6	Velocidad del viento	0
115374	7	Sololá	713	San Lucas Tolimán	10	San Lucas Tolimán	3	Marzo	2023-03-31T00:00:00	2024-11-08T07:00:00	7	Dirección del viento	0
115375	7	Sololá	713	San Lucas Tolimán	10	San Lucas Tolimán	3	Marzo	2023-03-31T00:00:00	2024-11-08T07:00:00	1	Precipitación	0
115376	7	Sololá	713	San Lucas Tolimán	10	San Lucas Tolimán	3	Marzo	2023-03-31T00:00:00	2024-11-08T07:00:00	8	Radiación solar	16
115377	7	Sololá	713	San Lucas Tolimán	10	San Lucas Tolimán	3	Marzo	2023-03-31T00:00:00	2024-11-08T08:00:00	2	Temperatura media	20.1
115378	7	Sololá	713	San Lucas Tolimán	10	San Lucas Tolimán	3	Marzo	2023-03-31T00:00:00	2024-11-08T08:00:00	4	Temperatura máxima	20.1
115379	7	Sololá	713	San Lucas Tolimán	10	San Lucas Tolimán	3	Marzo	2023-03-31T00:00:00	2024-11-08T08:00:00	3	Temperatura mínima	14.7
115380	7	Sololá	713	San Lucas Tolimán	10	San Lucas Tolimán	3	Marzo	2023-03-31T00:00:00	2024-11-08T08:00:00	5	Humedad	49
115381	7	Sololá	713	San Lucas Tolimán	10	San Lucas Tolimán	3	Marzo	2023-03-31T00:00:00	2024-11-08T08:00:00	6	Velocidad del viento	3.2
115382	7	Sololá	713	San Lucas Tolimán	10	San Lucas Tolimán	3	Marzo	2023-03-31T00:00:00	2024-11-08T08:00:00	7	Dirección del viento	3.22
115383	7	Sololá	713	San Lucas Tolimán	10	San Lucas Tolimán	3	Marzo	2023-03-31T00:00:00	2024-11-08T08:00:00	1	Precipitación	0
115384	7	Sololá	713	San Lucas Tolimán	10	San Lucas Tolimán	3	Marzo	2023-03-31T00:00:00	2024-11-08T08:00:00	8	Radiación solar	262
115385	7	Sololá	713	San Lucas Tolimán	10	San Lucas Tolimán	3	Marzo	2023-03-31T00:00:00	2024-11-08T09:00:00	2	Temperatura media	21.5
115386	7	Sololá	713	San Lucas Tolimán	10	San Lucas Tolimán	3	Marzo	2023-03-31T00:00:00	2024-11-08T09:00:00	4	Temperatura máxima	21.5
115387	7	Sololá	713	San Lucas Tolimán	10	San Lucas Tolimán	3	Marzo	2023-03-31T00:00:00	2024-11-08T09:00:00	3	Temperatura mínima	20.1
115388	7	Sololá	713	San Lucas Tolimán	10	San Lucas Tolimán	3	Marzo	2023-03-31T00:00:00	2024-11-08T09:00:00	5	Humedad	42
115389	7	Sololá	713	San Lucas Tolimán	10	San Lucas Tolimán	3	Marzo	2023-03-31T00:00:00	2024-11-08T09:00:00	6	Velocidad del viento	9.7
115390	7	Sololá	713	San Lucas Tolimán	10	San Lucas Tolimán	3	Marzo	2023-03-31T00:00:00	2024-11-08T09:00:00	7	Dirección del viento	9.66
115391	7	Sololá	713	San Lucas Tolimán	10	San Lucas Tolimán	3	Marzo	2023-03-31T00:00:00	2024-11-08T09:00:00	1	Precipitación	0
115392	7	Sololá	713	San Lucas Tolimán	10	San Lucas Tolimán	3	Marzo	2023-03-31T00:00:00	2024-11-08T09:00:00	8	Radiación solar	510
115393	7	Sololá	713	San Lucas Tolimán	10	San Lucas Tolimán	3	Marzo	2023-03-31T00:00:00	2024-11-08T10:00:00	2	Temperatura media	23.1
115394	7	Sololá	713	San Lucas Tolimán	10	San Lucas Tolimán	3	Marzo	2023-03-31T00:00:00	2024-11-08T10:00:00	4	Temperatura máxima	23.1
115395	7	Sololá	713	San Lucas Tolimán	10	San Lucas Tolimán	3	Marzo	2023-03-31T00:00:00	2024-11-08T10:00:00	3	Temperatura mínima	21.4
115396	7	Sololá	713	San Lucas Tolimán	10	San Lucas Tolimán	3	Marzo	2023-03-31T00:00:00	2024-11-08T10:00:00	5	Humedad	36
115397	7	Sololá	713	San Lucas Tolimán	10	San Lucas Tolimán	3	Marzo	2023-03-31T00:00:00	2024-11-08T10:00:00	6	Velocidad del viento	9.7
115398	7	Sololá	713	San Lucas Tolimán	10	San Lucas Tolimán	3	Marzo	2023-03-31T00:00:00	2024-11-08T10:00:00	7	Dirección del viento	9.66
115399	7	Sololá	713	San Lucas Tolimán	10	San Lucas Tolimán	3	Marzo	2023-03-31T00:00:00	2024-11-08T10:00:00	1	Precipitación	0
115400	7	Sololá	713	San Lucas Tolimán	10	San Lucas Tolimán	3	Marzo	2023-03-31T00:00:00	2024-11-08T10:00:00	8	Radiación solar	831
115401	7	Sololá	713	San Lucas Tolimán	10	San Lucas Tolimán	3	Marzo	2023-03-31T00:00:00	2024-11-08T11:00:00	2	Temperatura media	23.6
115402	7	Sololá	713	San Lucas Tolimán	10	San Lucas Tolimán	3	Marzo	2023-03-31T00:00:00	2024-11-08T11:00:00	4	Temperatura máxima	24.3
115403	7	Sololá	713	San Lucas Tolimán	10	San Lucas Tolimán	3	Marzo	2023-03-31T00:00:00	2024-11-08T11:00:00	3	Temperatura mínima	23.1
115404	7	Sololá	713	San Lucas Tolimán	10	San Lucas Tolimán	3	Marzo	2023-03-31T00:00:00	2024-11-08T11:00:00	5	Humedad	50
115405	7	Sololá	713	San Lucas Tolimán	10	San Lucas Tolimán	3	Marzo	2023-03-31T00:00:00	2024-11-08T11:00:00	6	Velocidad del viento	6.4
115406	7	Sololá	713	San Lucas Tolimán	10	San Lucas Tolimán	3	Marzo	2023-03-31T00:00:00	2024-11-08T11:00:00	7	Dirección del viento	6.44
115407	7	Sololá	713	San Lucas Tolimán	10	San Lucas Tolimán	3	Marzo	2023-03-31T00:00:00	2024-11-08T11:00:00	1	Precipitación	0
115408	7	Sololá	713	San Lucas Tolimán	10	San Lucas Tolimán	3	Marzo	2023-03-31T00:00:00	2024-11-08T11:00:00	8	Radiación solar	1004
115409	7	Sololá	713	San Lucas Tolimán	10	San Lucas Tolimán	3	Marzo	2023-03-31T00:00:00	2024-11-08T12:00:00	2	Temperatura media	23.3
115410	7	Sololá	713	San Lucas Tolimán	10	San Lucas Tolimán	3	Marzo	2023-03-31T00:00:00	2024-11-08T12:00:00	4	Temperatura máxima	24.2
115411	7	Sololá	713	San Lucas Tolimán	10	San Lucas Tolimán	3	Marzo	2023-03-31T00:00:00	2024-11-08T12:00:00	3	Temperatura mínima	22.9
115412	7	Sololá	713	San Lucas Tolimán	10	San Lucas Tolimán	3	Marzo	2023-03-31T00:00:00	2024-11-08T12:00:00	5	Humedad	54
115413	7	Sololá	713	San Lucas Tolimán	10	San Lucas Tolimán	3	Marzo	2023-03-31T00:00:00	2024-11-08T12:00:00	6	Velocidad del viento	11.3
115414	7	Sololá	713	San Lucas Tolimán	10	San Lucas Tolimán	3	Marzo	2023-03-31T00:00:00	2024-11-08T12:00:00	7	Dirección del viento	11.27
115415	7	Sololá	713	San Lucas Tolimán	10	San Lucas Tolimán	3	Marzo	2023-03-31T00:00:00	2024-11-08T12:00:00	1	Precipitación	0
115416	7	Sololá	713	San Lucas Tolimán	10	San Lucas Tolimán	3	Marzo	2023-03-31T00:00:00	2024-11-08T12:00:00	8	Radiación solar	1106
115417	7	Sololá	713	San Lucas Tolimán	10	San Lucas Tolimán	3	Marzo	2023-03-31T00:00:00	2024-11-08T13:00:00	2	Temperatura media	22.8
115418	7	Sololá	713	San Lucas Tolimán	10	San Lucas Tolimán	3	Marzo	2023-03-31T00:00:00	2024-11-08T13:00:00	4	Temperatura máxima	23.7
115419	7	Sololá	713	San Lucas Tolimán	10	San Lucas Tolimán	3	Marzo	2023-03-31T00:00:00	2024-11-08T13:00:00	3	Temperatura mínima	22.6
115420	7	Sololá	713	San Lucas Tolimán	10	San Lucas Tolimán	3	Marzo	2023-03-31T00:00:00	2024-11-08T13:00:00	5	Humedad	56
115421	7	Sololá	713	San Lucas Tolimán	10	San Lucas Tolimán	3	Marzo	2023-03-31T00:00:00	2024-11-08T13:00:00	6	Velocidad del viento	14.5
115422	7	Sololá	713	San Lucas Tolimán	10	San Lucas Tolimán	3	Marzo	2023-03-31T00:00:00	2024-11-08T13:00:00	7	Dirección del viento	14.48
115423	7	Sololá	713	San Lucas Tolimán	10	San Lucas Tolimán	3	Marzo	2023-03-31T00:00:00	2024-11-08T13:00:00	1	Precipitación	0
115424	7	Sololá	713	San Lucas Tolimán	10	San Lucas Tolimán	3	Marzo	2023-03-31T00:00:00	2024-11-08T13:00:00	8	Radiación solar	1125
115425	7	Sololá	713	San Lucas Tolimán	10	San Lucas Tolimán	3	Marzo	2023-03-31T00:00:00	2024-11-08T14:00:00	2	Temperatura media	22.9
115426	7	Sololá	713	San Lucas Tolimán	10	San Lucas Tolimán	3	Marzo	2023-03-31T00:00:00	2024-11-08T14:00:00	4	Temperatura máxima	23.8
115427	7	Sololá	713	San Lucas Tolimán	10	San Lucas Tolimán	3	Marzo	2023-03-31T00:00:00	2024-11-08T14:00:00	3	Temperatura mínima	22.7
115428	7	Sololá	713	San Lucas Tolimán	10	San Lucas Tolimán	3	Marzo	2023-03-31T00:00:00	2024-11-08T14:00:00	5	Humedad	56
115429	7	Sololá	713	San Lucas Tolimán	10	San Lucas Tolimán	3	Marzo	2023-03-31T00:00:00	2024-11-08T14:00:00	6	Velocidad del viento	14.5
115430	7	Sololá	713	San Lucas Tolimán	10	San Lucas Tolimán	3	Marzo	2023-03-31T00:00:00	2024-11-08T14:00:00	7	Dirección del viento	14.48
115431	7	Sololá	713	San Lucas Tolimán	10	San Lucas Tolimán	3	Marzo	2023-03-31T00:00:00	2024-11-08T14:00:00	1	Precipitación	0
115432	7	Sololá	713	San Lucas Tolimán	10	San Lucas Tolimán	3	Marzo	2023-03-31T00:00:00	2024-11-08T14:00:00	8	Radiación solar	1055
115433	7	Sololá	713	San Lucas Tolimán	10	San Lucas Tolimán	3	Marzo	2023-03-31T00:00:00	2024-11-08T15:00:00	2	Temperatura media	22.6
115434	7	Sololá	713	San Lucas Tolimán	10	San Lucas Tolimán	3	Marzo	2023-03-31T00:00:00	2024-11-08T15:00:00	4	Temperatura máxima	23.1
115435	7	Sololá	713	San Lucas Tolimán	10	San Lucas Tolimán	3	Marzo	2023-03-31T00:00:00	2024-11-08T15:00:00	3	Temperatura mínima	22.6
115436	7	Sololá	713	San Lucas Tolimán	10	San Lucas Tolimán	3	Marzo	2023-03-31T00:00:00	2024-11-08T15:00:00	5	Humedad	57
115437	7	Sololá	713	San Lucas Tolimán	10	San Lucas Tolimán	3	Marzo	2023-03-31T00:00:00	2024-11-08T15:00:00	6	Velocidad del viento	12.9
115438	7	Sololá	713	San Lucas Tolimán	10	San Lucas Tolimán	3	Marzo	2023-03-31T00:00:00	2024-11-08T15:00:00	7	Dirección del viento	12.87
115439	7	Sololá	713	San Lucas Tolimán	10	San Lucas Tolimán	3	Marzo	2023-03-31T00:00:00	2024-11-08T15:00:00	1	Precipitación	0
115440	7	Sololá	713	San Lucas Tolimán	10	San Lucas Tolimán	3	Marzo	2023-03-31T00:00:00	2024-11-08T15:00:00	8	Radiación solar	868
115441	7	Sololá	713	San Lucas Tolimán	10	San Lucas Tolimán	3	Marzo	2023-03-31T00:00:00	2024-11-08T16:00:00	2	Temperatura media	21.2
115442	7	Sololá	713	San Lucas Tolimán	10	San Lucas Tolimán	3	Marzo	2023-03-31T00:00:00	2024-11-08T16:00:00	4	Temperatura máxima	22.7
115443	7	Sololá	713	San Lucas Tolimán	10	San Lucas Tolimán	3	Marzo	2023-03-31T00:00:00	2024-11-08T16:00:00	3	Temperatura mínima	21.2
115444	7	Sololá	713	San Lucas Tolimán	10	San Lucas Tolimán	3	Marzo	2023-03-31T00:00:00	2024-11-08T16:00:00	5	Humedad	62
115445	7	Sololá	713	San Lucas Tolimán	10	San Lucas Tolimán	3	Marzo	2023-03-31T00:00:00	2024-11-08T16:00:00	6	Velocidad del viento	11.3
115446	7	Sololá	713	San Lucas Tolimán	10	San Lucas Tolimán	3	Marzo	2023-03-31T00:00:00	2024-11-08T16:00:00	7	Dirección del viento	11.27
115447	7	Sololá	713	San Lucas Tolimán	10	San Lucas Tolimán	3	Marzo	2023-03-31T00:00:00	2024-11-08T16:00:00	1	Precipitación	0
115448	7	Sololá	713	San Lucas Tolimán	10	San Lucas Tolimán	3	Marzo	2023-03-31T00:00:00	2024-11-08T16:00:00	8	Radiación solar	534
115449	7	Sololá	713	San Lucas Tolimán	10	San Lucas Tolimán	3	Marzo	2023-03-31T00:00:00	2024-11-08T17:00:00	2	Temperatura media	20.6
115450	7	Sololá	713	San Lucas Tolimán	10	San Lucas Tolimán	3	Marzo	2023-03-31T00:00:00	2024-11-08T17:00:00	4	Temperatura máxima	21.8
115451	7	Sololá	713	San Lucas Tolimán	10	San Lucas Tolimán	3	Marzo	2023-03-31T00:00:00	2024-11-08T17:00:00	3	Temperatura mínima	20.6
115452	7	Sololá	713	San Lucas Tolimán	10	San Lucas Tolimán	3	Marzo	2023-03-31T00:00:00	2024-11-08T17:00:00	5	Humedad	63
115453	7	Sololá	713	San Lucas Tolimán	10	San Lucas Tolimán	3	Marzo	2023-03-31T00:00:00	2024-11-08T17:00:00	6	Velocidad del viento	9.7
115454	7	Sololá	713	San Lucas Tolimán	10	San Lucas Tolimán	3	Marzo	2023-03-31T00:00:00	2024-11-08T17:00:00	7	Dirección del viento	9.66
115455	7	Sololá	713	San Lucas Tolimán	10	San Lucas Tolimán	3	Marzo	2023-03-31T00:00:00	2024-11-08T17:00:00	1	Precipitación	0
115456	7	Sololá	713	San Lucas Tolimán	10	San Lucas Tolimán	3	Marzo	2023-03-31T00:00:00	2024-11-08T17:00:00	8	Radiación solar	372
115457	7	Sololá	713	San Lucas Tolimán	10	San Lucas Tolimán	3	Marzo	2023-03-31T00:00:00	2024-11-08T18:00:00	2	Temperatura media	19.2
115458	7	Sololá	713	San Lucas Tolimán	10	San Lucas Tolimán	3	Marzo	2023-03-31T00:00:00	2024-11-08T18:00:00	4	Temperatura máxima	20.6
115459	7	Sololá	713	San Lucas Tolimán	10	San Lucas Tolimán	3	Marzo	2023-03-31T00:00:00	2024-11-08T18:00:00	3	Temperatura mínima	19.1
115460	7	Sololá	713	San Lucas Tolimán	10	San Lucas Tolimán	3	Marzo	2023-03-31T00:00:00	2024-11-08T18:00:00	5	Humedad	62
115461	7	Sololá	713	San Lucas Tolimán	10	San Lucas Tolimán	3	Marzo	2023-03-31T00:00:00	2024-11-08T18:00:00	6	Velocidad del viento	8
115462	7	Sololá	713	San Lucas Tolimán	10	San Lucas Tolimán	3	Marzo	2023-03-31T00:00:00	2024-11-08T18:00:00	7	Dirección del viento	8.05
115463	7	Sololá	713	San Lucas Tolimán	10	San Lucas Tolimán	3	Marzo	2023-03-31T00:00:00	2024-11-08T18:00:00	1	Precipitación	0
115464	7	Sololá	713	San Lucas Tolimán	10	San Lucas Tolimán	3	Marzo	2023-03-31T00:00:00	2024-11-08T18:00:00	8	Radiación solar	66
115465	7	Sololá	713	San Lucas Tolimán	10	San Lucas Tolimán	3	Marzo	2023-03-31T00:00:00	2024-11-08T19:00:00	2	Temperatura media	18.9
115466	7	Sololá	713	San Lucas Tolimán	10	San Lucas Tolimán	3	Marzo	2023-03-31T00:00:00	2024-11-08T19:00:00	4	Temperatura máxima	19.2
115467	7	Sololá	713	San Lucas Tolimán	10	San Lucas Tolimán	3	Marzo	2023-03-31T00:00:00	2024-11-08T19:00:00	3	Temperatura mínima	18.9
115468	7	Sololá	713	San Lucas Tolimán	10	San Lucas Tolimán	3	Marzo	2023-03-31T00:00:00	2024-11-08T19:00:00	5	Humedad	62
115469	7	Sololá	713	San Lucas Tolimán	10	San Lucas Tolimán	3	Marzo	2023-03-31T00:00:00	2024-11-08T19:00:00	6	Velocidad del viento	4.8
115470	7	Sololá	713	San Lucas Tolimán	10	San Lucas Tolimán	3	Marzo	2023-03-31T00:00:00	2024-11-08T19:00:00	7	Dirección del viento	4.83
115471	7	Sololá	713	San Lucas Tolimán	10	San Lucas Tolimán	3	Marzo	2023-03-31T00:00:00	2024-11-08T19:00:00	1	Precipitación	0
115472	7	Sololá	713	San Lucas Tolimán	10	San Lucas Tolimán	3	Marzo	2023-03-31T00:00:00	2024-11-08T19:00:00	8	Radiación solar	0
115473	7	Sololá	713	San Lucas Tolimán	10	San Lucas Tolimán	3	Marzo	2023-03-31T00:00:00	2024-11-08T20:00:00	2	Temperatura media	18.9
115474	7	Sololá	713	San Lucas Tolimán	10	San Lucas Tolimán	3	Marzo	2023-03-31T00:00:00	2024-11-08T20:00:00	4	Temperatura máxima	19
115475	7	Sololá	713	San Lucas Tolimán	10	San Lucas Tolimán	3	Marzo	2023-03-31T00:00:00	2024-11-08T20:00:00	3	Temperatura mínima	18.8
115476	7	Sololá	713	San Lucas Tolimán	10	San Lucas Tolimán	3	Marzo	2023-03-31T00:00:00	2024-11-08T20:00:00	5	Humedad	62
115477	7	Sololá	713	San Lucas Tolimán	10	San Lucas Tolimán	3	Marzo	2023-03-31T00:00:00	2024-11-08T20:00:00	6	Velocidad del viento	4.8
115478	7	Sololá	713	San Lucas Tolimán	10	San Lucas Tolimán	3	Marzo	2023-03-31T00:00:00	2024-11-08T20:00:00	7	Dirección del viento	4.83
115479	7	Sololá	713	San Lucas Tolimán	10	San Lucas Tolimán	3	Marzo	2023-03-31T00:00:00	2024-11-08T20:00:00	1	Precipitación	0
115480	7	Sololá	713	San Lucas Tolimán	10	San Lucas Tolimán	3	Marzo	2023-03-31T00:00:00	2024-11-08T20:00:00	8	Radiación solar	0
115481	7	Sololá	713	San Lucas Tolimán	10	San Lucas Tolimán	3	Marzo	2023-03-31T00:00:00	2024-11-08T21:00:00	2	Temperatura media	17.7
115482	7	Sololá	713	San Lucas Tolimán	10	San Lucas Tolimán	3	Marzo	2023-03-31T00:00:00	2024-11-08T21:00:00	4	Temperatura máxima	18.9
115483	7	Sololá	713	San Lucas Tolimán	10	San Lucas Tolimán	3	Marzo	2023-03-31T00:00:00	2024-11-08T21:00:00	3	Temperatura mínima	17.7
115484	7	Sololá	713	San Lucas Tolimán	10	San Lucas Tolimán	3	Marzo	2023-03-31T00:00:00	2024-11-08T21:00:00	5	Humedad	59
115485	7	Sololá	713	San Lucas Tolimán	10	San Lucas Tolimán	3	Marzo	2023-03-31T00:00:00	2024-11-08T21:00:00	6	Velocidad del viento	4.8
115486	7	Sololá	713	San Lucas Tolimán	10	San Lucas Tolimán	3	Marzo	2023-03-31T00:00:00	2024-11-08T21:00:00	7	Dirección del viento	4.83
115487	7	Sololá	713	San Lucas Tolimán	10	San Lucas Tolimán	3	Marzo	2023-03-31T00:00:00	2024-11-08T21:00:00	1	Precipitación	0
115488	7	Sololá	713	San Lucas Tolimán	10	San Lucas Tolimán	3	Marzo	2023-03-31T00:00:00	2024-11-08T21:00:00	8	Radiación solar	0
115489	7	Sololá	713	San Lucas Tolimán	10	San Lucas Tolimán	3	Marzo	2023-03-31T00:00:00	2024-11-08T22:00:00	2	Temperatura media	16.9
115490	7	Sololá	713	San Lucas Tolimán	10	San Lucas Tolimán	3	Marzo	2023-03-31T00:00:00	2024-11-08T22:00:00	4	Temperatura máxima	17.7
115491	7	Sololá	713	San Lucas Tolimán	10	San Lucas Tolimán	3	Marzo	2023-03-31T00:00:00	2024-11-08T22:00:00	3	Temperatura mínima	16.8
115492	7	Sololá	713	San Lucas Tolimán	10	San Lucas Tolimán	3	Marzo	2023-03-31T00:00:00	2024-11-08T22:00:00	5	Humedad	61
115493	7	Sololá	713	San Lucas Tolimán	10	San Lucas Tolimán	3	Marzo	2023-03-31T00:00:00	2024-11-08T22:00:00	6	Velocidad del viento	3.2
115494	7	Sololá	713	San Lucas Tolimán	10	San Lucas Tolimán	3	Marzo	2023-03-31T00:00:00	2024-11-08T22:00:00	7	Dirección del viento	3.22
115495	7	Sololá	713	San Lucas Tolimán	10	San Lucas Tolimán	3	Marzo	2023-03-31T00:00:00	2024-11-08T22:00:00	1	Precipitación	0
115496	7	Sololá	713	San Lucas Tolimán	10	San Lucas Tolimán	3	Marzo	2023-03-31T00:00:00	2024-11-08T22:00:00	8	Radiación solar	0
115497	7	Sololá	713	San Lucas Tolimán	10	San Lucas Tolimán	3	Marzo	2023-03-31T00:00:00	2024-11-08T23:00:00	2	Temperatura media	16.4
115498	7	Sololá	713	San Lucas Tolimán	10	San Lucas Tolimán	3	Marzo	2023-03-31T00:00:00	2024-11-08T23:00:00	4	Temperatura máxima	16.9
115499	7	Sololá	713	San Lucas Tolimán	10	San Lucas Tolimán	3	Marzo	2023-03-31T00:00:00	2024-11-08T23:00:00	3	Temperatura mínima	16.2
115500	7	Sololá	713	San Lucas Tolimán	10	San Lucas Tolimán	3	Marzo	2023-03-31T00:00:00	2024-11-08T23:00:00	5	Humedad	57
115501	7	Sololá	713	San Lucas Tolimán	10	San Lucas Tolimán	3	Marzo	2023-03-31T00:00:00	2024-11-08T23:00:00	6	Velocidad del viento	0
115502	7	Sololá	713	San Lucas Tolimán	10	San Lucas Tolimán	3	Marzo	2023-03-31T00:00:00	2024-11-08T23:00:00	7	Dirección del viento	0
115503	7	Sololá	713	San Lucas Tolimán	10	San Lucas Tolimán	3	Marzo	2023-03-31T00:00:00	2024-11-08T23:00:00	1	Precipitación	0
115504	7	Sololá	713	San Lucas Tolimán	10	San Lucas Tolimán	3	Marzo	2023-03-31T00:00:00	2024-11-08T23:00:00	8	Radiación solar	0
115505	7	Sololá	713	San Lucas Tolimán	10	San Lucas Tolimán	4	Abril	2023-01-04T00:00:00	2024-11-08T00:00:00	2	Temperatura media	17.1
115506	7	Sololá	713	San Lucas Tolimán	10	San Lucas Tolimán	4	Abril	2023-01-04T00:00:00	2024-11-08T00:00:00	4	Temperatura máxima	17.2
115507	7	Sololá	713	San Lucas Tolimán	10	San Lucas Tolimán	4	Abril	2023-01-04T00:00:00	2024-11-08T00:00:00	3	Temperatura mínima	16.3
115508	7	Sololá	713	San Lucas Tolimán	10	San Lucas Tolimán	4	Abril	2023-01-04T00:00:00	2024-11-08T00:00:00	5	Humedad	57
115509	7	Sololá	713	San Lucas Tolimán	10	San Lucas Tolimán	4	Abril	2023-01-04T00:00:00	2024-11-08T00:00:00	6	Velocidad del viento	0
115510	7	Sololá	713	San Lucas Tolimán	10	San Lucas Tolimán	4	Abril	2023-01-04T00:00:00	2024-11-08T00:00:00	7	Dirección del viento	0
115511	7	Sololá	713	San Lucas Tolimán	10	San Lucas Tolimán	4	Abril	2023-01-04T00:00:00	2024-11-08T00:00:00	1	Precipitación	0
115512	7	Sololá	713	San Lucas Tolimán	10	San Lucas Tolimán	4	Abril	2023-01-04T00:00:00	2024-11-08T00:00:00	8	Radiación solar	0
115513	7	Sololá	713	San Lucas Tolimán	10	San Lucas Tolimán	4	Abril	2023-01-04T00:00:00	2024-11-08T01:00:00	2	Temperatura media	16.9
115514	7	Sololá	713	San Lucas Tolimán	10	San Lucas Tolimán	4	Abril	2023-01-04T00:00:00	2024-11-08T01:00:00	4	Temperatura máxima	17.2
115515	7	Sololá	713	San Lucas Tolimán	10	San Lucas Tolimán	4	Abril	2023-01-04T00:00:00	2024-11-08T01:00:00	3	Temperatura mínima	16.8
115516	7	Sololá	713	San Lucas Tolimán	10	San Lucas Tolimán	4	Abril	2023-01-04T00:00:00	2024-11-08T01:00:00	5	Humedad	57
115517	7	Sololá	713	San Lucas Tolimán	10	San Lucas Tolimán	4	Abril	2023-01-04T00:00:00	2024-11-08T01:00:00	6	Velocidad del viento	1.6
115518	7	Sololá	713	San Lucas Tolimán	10	San Lucas Tolimán	4	Abril	2023-01-04T00:00:00	2024-11-08T01:00:00	7	Dirección del viento	1.61
115519	7	Sololá	713	San Lucas Tolimán	10	San Lucas Tolimán	4	Abril	2023-01-04T00:00:00	2024-11-08T01:00:00	1	Precipitación	0
115520	7	Sololá	713	San Lucas Tolimán	10	San Lucas Tolimán	4	Abril	2023-01-04T00:00:00	2024-11-08T01:00:00	8	Radiación solar	0
115521	7	Sololá	713	San Lucas Tolimán	10	San Lucas Tolimán	4	Abril	2023-01-04T00:00:00	2024-11-08T02:00:00	2	Temperatura media	16.3
115522	7	Sololá	713	San Lucas Tolimán	10	San Lucas Tolimán	4	Abril	2023-01-04T00:00:00	2024-11-08T02:00:00	4	Temperatura máxima	16.9
115523	7	Sololá	713	San Lucas Tolimán	10	San Lucas Tolimán	4	Abril	2023-01-04T00:00:00	2024-11-08T02:00:00	3	Temperatura mínima	16.3
115524	7	Sololá	713	San Lucas Tolimán	10	San Lucas Tolimán	4	Abril	2023-01-04T00:00:00	2024-11-08T02:00:00	5	Humedad	58
115525	7	Sololá	713	San Lucas Tolimán	10	San Lucas Tolimán	4	Abril	2023-01-04T00:00:00	2024-11-08T02:00:00	6	Velocidad del viento	0
115526	7	Sololá	713	San Lucas Tolimán	10	San Lucas Tolimán	4	Abril	2023-01-04T00:00:00	2024-11-08T02:00:00	7	Dirección del viento	0
115527	7	Sololá	713	San Lucas Tolimán	10	San Lucas Tolimán	4	Abril	2023-01-04T00:00:00	2024-11-08T02:00:00	1	Precipitación	0
115528	7	Sololá	713	San Lucas Tolimán	10	San Lucas Tolimán	4	Abril	2023-01-04T00:00:00	2024-11-08T02:00:00	8	Radiación solar	0
115529	7	Sololá	713	San Lucas Tolimán	10	San Lucas Tolimán	4	Abril	2023-01-04T00:00:00	2024-11-08T03:00:00	2	Temperatura media	15.5
115530	7	Sololá	713	San Lucas Tolimán	10	San Lucas Tolimán	4	Abril	2023-01-04T00:00:00	2024-11-08T03:00:00	4	Temperatura máxima	16.3
115531	7	Sololá	713	San Lucas Tolimán	10	San Lucas Tolimán	4	Abril	2023-01-04T00:00:00	2024-11-08T03:00:00	3	Temperatura mínima	15.4
115532	7	Sololá	713	San Lucas Tolimán	10	San Lucas Tolimán	4	Abril	2023-01-04T00:00:00	2024-11-08T03:00:00	5	Humedad	60
115533	7	Sololá	713	San Lucas Tolimán	10	San Lucas Tolimán	4	Abril	2023-01-04T00:00:00	2024-11-08T03:00:00	6	Velocidad del viento	0
115534	7	Sololá	713	San Lucas Tolimán	10	San Lucas Tolimán	4	Abril	2023-01-04T00:00:00	2024-11-08T03:00:00	7	Dirección del viento	0
115535	7	Sololá	713	San Lucas Tolimán	10	San Lucas Tolimán	4	Abril	2023-01-04T00:00:00	2024-11-08T03:00:00	1	Precipitación	0
115536	7	Sololá	713	San Lucas Tolimán	10	San Lucas Tolimán	4	Abril	2023-01-04T00:00:00	2024-11-08T03:00:00	8	Radiación solar	0
115537	7	Sololá	713	San Lucas Tolimán	10	San Lucas Tolimán	4	Abril	2023-01-04T00:00:00	2024-11-08T04:00:00	2	Temperatura media	15.9
115538	7	Sololá	713	San Lucas Tolimán	10	San Lucas Tolimán	4	Abril	2023-01-04T00:00:00	2024-11-08T04:00:00	4	Temperatura máxima	15.9
115539	7	Sololá	713	San Lucas Tolimán	10	San Lucas Tolimán	4	Abril	2023-01-04T00:00:00	2024-11-08T04:00:00	3	Temperatura mínima	15.4
115540	7	Sololá	713	San Lucas Tolimán	10	San Lucas Tolimán	4	Abril	2023-01-04T00:00:00	2024-11-08T04:00:00	5	Humedad	56
115541	7	Sololá	713	San Lucas Tolimán	10	San Lucas Tolimán	4	Abril	2023-01-04T00:00:00	2024-11-08T04:00:00	6	Velocidad del viento	1.6
115542	7	Sololá	713	San Lucas Tolimán	10	San Lucas Tolimán	4	Abril	2023-01-04T00:00:00	2024-11-08T04:00:00	7	Dirección del viento	1.61
115543	7	Sololá	713	San Lucas Tolimán	10	San Lucas Tolimán	4	Abril	2023-01-04T00:00:00	2024-11-08T04:00:00	1	Precipitación	0
115544	7	Sololá	713	San Lucas Tolimán	10	San Lucas Tolimán	4	Abril	2023-01-04T00:00:00	2024-11-08T04:00:00	8	Radiación solar	0
115545	7	Sololá	713	San Lucas Tolimán	10	San Lucas Tolimán	4	Abril	2023-01-04T00:00:00	2024-11-08T05:00:00	2	Temperatura media	15.4
115546	7	Sololá	713	San Lucas Tolimán	10	San Lucas Tolimán	4	Abril	2023-01-04T00:00:00	2024-11-08T05:00:00	4	Temperatura máxima	16.2
115547	7	Sololá	713	San Lucas Tolimán	10	San Lucas Tolimán	4	Abril	2023-01-04T00:00:00	2024-11-08T05:00:00	3	Temperatura mínima	15.4
115548	7	Sololá	713	San Lucas Tolimán	10	San Lucas Tolimán	4	Abril	2023-01-04T00:00:00	2024-11-08T05:00:00	5	Humedad	59
115549	7	Sololá	713	San Lucas Tolimán	10	San Lucas Tolimán	4	Abril	2023-01-04T00:00:00	2024-11-08T05:00:00	6	Velocidad del viento	1.6
115550	7	Sololá	713	San Lucas Tolimán	10	San Lucas Tolimán	4	Abril	2023-01-04T00:00:00	2024-11-08T05:00:00	7	Dirección del viento	1.61
115551	7	Sololá	713	San Lucas Tolimán	10	San Lucas Tolimán	4	Abril	2023-01-04T00:00:00	2024-11-08T05:00:00	1	Precipitación	0
115552	7	Sololá	713	San Lucas Tolimán	10	San Lucas Tolimán	4	Abril	2023-01-04T00:00:00	2024-11-08T05:00:00	8	Radiación solar	0
115553	7	Sololá	713	San Lucas Tolimán	10	San Lucas Tolimán	4	Abril	2023-01-04T00:00:00	2024-11-08T06:00:00	2	Temperatura media	14.7
115554	7	Sololá	713	San Lucas Tolimán	10	San Lucas Tolimán	4	Abril	2023-01-04T00:00:00	2024-11-08T06:00:00	4	Temperatura máxima	15.4
115555	7	Sololá	713	San Lucas Tolimán	10	San Lucas Tolimán	4	Abril	2023-01-04T00:00:00	2024-11-08T06:00:00	3	Temperatura mínima	14.7
115556	7	Sololá	713	San Lucas Tolimán	10	San Lucas Tolimán	4	Abril	2023-01-04T00:00:00	2024-11-08T06:00:00	5	Humedad	61
115557	7	Sololá	713	San Lucas Tolimán	10	San Lucas Tolimán	4	Abril	2023-01-04T00:00:00	2024-11-08T06:00:00	6	Velocidad del viento	0
115558	7	Sololá	713	San Lucas Tolimán	10	San Lucas Tolimán	4	Abril	2023-01-04T00:00:00	2024-11-08T06:00:00	7	Dirección del viento	0
115559	7	Sololá	713	San Lucas Tolimán	10	San Lucas Tolimán	4	Abril	2023-01-04T00:00:00	2024-11-08T06:00:00	1	Precipitación	0
115560	7	Sololá	713	San Lucas Tolimán	10	San Lucas Tolimán	4	Abril	2023-01-04T00:00:00	2024-11-08T06:00:00	8	Radiación solar	0
115561	7	Sololá	713	San Lucas Tolimán	10	San Lucas Tolimán	4	Abril	2023-01-04T00:00:00	2024-11-08T07:00:00	2	Temperatura media	14.8
115562	7	Sololá	713	San Lucas Tolimán	10	San Lucas Tolimán	4	Abril	2023-01-04T00:00:00	2024-11-08T07:00:00	4	Temperatura máxima	14.9
115563	7	Sololá	713	San Lucas Tolimán	10	San Lucas Tolimán	4	Abril	2023-01-04T00:00:00	2024-11-08T07:00:00	3	Temperatura mínima	14.6
115564	7	Sololá	713	San Lucas Tolimán	10	San Lucas Tolimán	4	Abril	2023-01-04T00:00:00	2024-11-08T07:00:00	5	Humedad	62
115565	7	Sololá	713	San Lucas Tolimán	10	San Lucas Tolimán	4	Abril	2023-01-04T00:00:00	2024-11-08T07:00:00	6	Velocidad del viento	0
115566	7	Sololá	713	San Lucas Tolimán	10	San Lucas Tolimán	4	Abril	2023-01-04T00:00:00	2024-11-08T07:00:00	7	Dirección del viento	0
115567	7	Sololá	713	San Lucas Tolimán	10	San Lucas Tolimán	4	Abril	2023-01-04T00:00:00	2024-11-08T07:00:00	1	Precipitación	0
115568	7	Sololá	713	San Lucas Tolimán	10	San Lucas Tolimán	4	Abril	2023-01-04T00:00:00	2024-11-08T07:00:00	8	Radiación solar	22
115569	7	Sololá	713	San Lucas Tolimán	10	San Lucas Tolimán	4	Abril	2023-01-04T00:00:00	2024-11-08T08:00:00	2	Temperatura media	18.6
115570	7	Sololá	713	San Lucas Tolimán	10	San Lucas Tolimán	4	Abril	2023-01-04T00:00:00	2024-11-08T08:00:00	4	Temperatura máxima	18.6
115571	7	Sololá	713	San Lucas Tolimán	10	San Lucas Tolimán	4	Abril	2023-01-04T00:00:00	2024-11-08T08:00:00	3	Temperatura mínima	14.7
115572	7	Sololá	713	San Lucas Tolimán	10	San Lucas Tolimán	4	Abril	2023-01-04T00:00:00	2024-11-08T08:00:00	5	Humedad	55
115573	7	Sololá	713	San Lucas Tolimán	10	San Lucas Tolimán	4	Abril	2023-01-04T00:00:00	2024-11-08T08:00:00	6	Velocidad del viento	3.2
115574	7	Sololá	713	San Lucas Tolimán	10	San Lucas Tolimán	4	Abril	2023-01-04T00:00:00	2024-11-08T08:00:00	7	Dirección del viento	3.22
115575	7	Sololá	713	San Lucas Tolimán	10	San Lucas Tolimán	4	Abril	2023-01-04T00:00:00	2024-11-08T08:00:00	1	Precipitación	0
115576	7	Sololá	713	San Lucas Tolimán	10	San Lucas Tolimán	4	Abril	2023-01-04T00:00:00	2024-11-08T08:00:00	8	Radiación solar	237
115577	7	Sololá	713	San Lucas Tolimán	10	San Lucas Tolimán	4	Abril	2023-01-04T00:00:00	2024-11-08T09:00:00	2	Temperatura media	20.2
115578	7	Sololá	713	San Lucas Tolimán	10	San Lucas Tolimán	4	Abril	2023-01-04T00:00:00	2024-11-08T09:00:00	4	Temperatura máxima	20.2
115579	7	Sololá	713	San Lucas Tolimán	10	San Lucas Tolimán	4	Abril	2023-01-04T00:00:00	2024-11-08T09:00:00	3	Temperatura mínima	18.6
115580	7	Sololá	713	San Lucas Tolimán	10	San Lucas Tolimán	4	Abril	2023-01-04T00:00:00	2024-11-08T09:00:00	5	Humedad	51
115581	7	Sololá	713	San Lucas Tolimán	10	San Lucas Tolimán	4	Abril	2023-01-04T00:00:00	2024-11-08T09:00:00	6	Velocidad del viento	4.8
115582	7	Sololá	713	San Lucas Tolimán	10	San Lucas Tolimán	4	Abril	2023-01-04T00:00:00	2024-11-08T09:00:00	7	Dirección del viento	4.83
115583	7	Sololá	713	San Lucas Tolimán	10	San Lucas Tolimán	4	Abril	2023-01-04T00:00:00	2024-11-08T09:00:00	1	Precipitación	0
115584	7	Sololá	713	San Lucas Tolimán	10	San Lucas Tolimán	4	Abril	2023-01-04T00:00:00	2024-11-08T09:00:00	8	Radiación solar	485
115585	7	Sololá	713	San Lucas Tolimán	10	San Lucas Tolimán	4	Abril	2023-01-04T00:00:00	2024-11-08T10:00:00	2	Temperatura media	22.7
115586	7	Sololá	713	San Lucas Tolimán	10	San Lucas Tolimán	4	Abril	2023-01-04T00:00:00	2024-11-08T10:00:00	4	Temperatura máxima	22.8
115587	7	Sololá	713	San Lucas Tolimán	10	San Lucas Tolimán	4	Abril	2023-01-04T00:00:00	2024-11-08T10:00:00	3	Temperatura mínima	20.2
115588	7	Sololá	713	San Lucas Tolimán	10	San Lucas Tolimán	4	Abril	2023-01-04T00:00:00	2024-11-08T10:00:00	5	Humedad	50
115589	7	Sololá	713	San Lucas Tolimán	10	San Lucas Tolimán	4	Abril	2023-01-04T00:00:00	2024-11-08T10:00:00	6	Velocidad del viento	4.8
115590	7	Sololá	713	San Lucas Tolimán	10	San Lucas Tolimán	4	Abril	2023-01-04T00:00:00	2024-11-08T10:00:00	7	Dirección del viento	4.83
115591	7	Sololá	713	San Lucas Tolimán	10	San Lucas Tolimán	4	Abril	2023-01-04T00:00:00	2024-11-08T10:00:00	1	Precipitación	0
115592	7	Sololá	713	San Lucas Tolimán	10	San Lucas Tolimán	4	Abril	2023-01-04T00:00:00	2024-11-08T10:00:00	8	Radiación solar	809
115593	7	Sololá	713	San Lucas Tolimán	10	San Lucas Tolimán	4	Abril	2023-01-04T00:00:00	2024-11-08T11:00:00	2	Temperatura media	22.7
115594	7	Sololá	713	San Lucas Tolimán	10	San Lucas Tolimán	4	Abril	2023-01-04T00:00:00	2024-11-08T11:00:00	4	Temperatura máxima	23.5
115595	7	Sololá	713	San Lucas Tolimán	10	San Lucas Tolimán	4	Abril	2023-01-04T00:00:00	2024-11-08T11:00:00	3	Temperatura mínima	22.5
115596	7	Sololá	713	San Lucas Tolimán	10	San Lucas Tolimán	4	Abril	2023-01-04T00:00:00	2024-11-08T11:00:00	5	Humedad	55
115597	7	Sololá	713	San Lucas Tolimán	10	San Lucas Tolimán	4	Abril	2023-01-04T00:00:00	2024-11-08T11:00:00	6	Velocidad del viento	8
115598	7	Sololá	713	San Lucas Tolimán	10	San Lucas Tolimán	4	Abril	2023-01-04T00:00:00	2024-11-08T11:00:00	7	Dirección del viento	8.05
115599	7	Sololá	713	San Lucas Tolimán	10	San Lucas Tolimán	4	Abril	2023-01-04T00:00:00	2024-11-08T11:00:00	1	Precipitación	0
115600	7	Sololá	713	San Lucas Tolimán	10	San Lucas Tolimán	4	Abril	2023-01-04T00:00:00	2024-11-08T11:00:00	8	Radiación solar	997
115601	7	Sololá	713	San Lucas Tolimán	10	San Lucas Tolimán	4	Abril	2023-01-04T00:00:00	2024-11-08T12:00:00	2	Temperatura media	22.6
115602	7	Sololá	713	San Lucas Tolimán	10	San Lucas Tolimán	4	Abril	2023-01-04T00:00:00	2024-11-08T12:00:00	4	Temperatura máxima	23.4
115603	7	Sololá	713	San Lucas Tolimán	10	San Lucas Tolimán	4	Abril	2023-01-04T00:00:00	2024-11-08T12:00:00	3	Temperatura mínima	22.4
115604	7	Sololá	713	San Lucas Tolimán	10	San Lucas Tolimán	4	Abril	2023-01-04T00:00:00	2024-11-08T12:00:00	5	Humedad	58
115605	7	Sololá	713	San Lucas Tolimán	10	San Lucas Tolimán	4	Abril	2023-01-04T00:00:00	2024-11-08T12:00:00	6	Velocidad del viento	9.7
115606	7	Sololá	713	San Lucas Tolimán	10	San Lucas Tolimán	4	Abril	2023-01-04T00:00:00	2024-11-08T12:00:00	7	Dirección del viento	9.66
115607	7	Sololá	713	San Lucas Tolimán	10	San Lucas Tolimán	4	Abril	2023-01-04T00:00:00	2024-11-08T12:00:00	1	Precipitación	0
115608	7	Sololá	713	San Lucas Tolimán	10	San Lucas Tolimán	4	Abril	2023-01-04T00:00:00	2024-11-08T12:00:00	8	Radiación solar	1086
115609	7	Sololá	713	San Lucas Tolimán	10	San Lucas Tolimán	4	Abril	2023-01-04T00:00:00	2024-11-08T13:00:00	2	Temperatura media	23.1
115610	7	Sololá	713	San Lucas Tolimán	10	San Lucas Tolimán	4	Abril	2023-01-04T00:00:00	2024-11-08T13:00:00	4	Temperatura máxima	23.4
115611	7	Sololá	713	San Lucas Tolimán	10	San Lucas Tolimán	4	Abril	2023-01-04T00:00:00	2024-11-08T13:00:00	3	Temperatura mínima	22.6
115612	7	Sololá	713	San Lucas Tolimán	10	San Lucas Tolimán	4	Abril	2023-01-04T00:00:00	2024-11-08T13:00:00	5	Humedad	58
115613	7	Sololá	713	San Lucas Tolimán	10	San Lucas Tolimán	4	Abril	2023-01-04T00:00:00	2024-11-08T13:00:00	6	Velocidad del viento	9.7
115614	7	Sololá	713	San Lucas Tolimán	10	San Lucas Tolimán	4	Abril	2023-01-04T00:00:00	2024-11-08T13:00:00	7	Dirección del viento	9.66
115615	7	Sololá	713	San Lucas Tolimán	10	San Lucas Tolimán	4	Abril	2023-01-04T00:00:00	2024-11-08T13:00:00	1	Precipitación	0
115616	7	Sololá	713	San Lucas Tolimán	10	San Lucas Tolimán	4	Abril	2023-01-04T00:00:00	2024-11-08T13:00:00	8	Radiación solar	1131
115617	7	Sololá	713	San Lucas Tolimán	10	San Lucas Tolimán	4	Abril	2023-01-04T00:00:00	2024-11-08T14:00:00	2	Temperatura media	22.7
115618	7	Sololá	713	San Lucas Tolimán	10	San Lucas Tolimán	4	Abril	2023-01-04T00:00:00	2024-11-08T14:00:00	4	Temperatura máxima	23.4
115619	7	Sololá	713	San Lucas Tolimán	10	San Lucas Tolimán	4	Abril	2023-01-04T00:00:00	2024-11-08T14:00:00	3	Temperatura mínima	22.4
115620	7	Sololá	713	San Lucas Tolimán	10	San Lucas Tolimán	4	Abril	2023-01-04T00:00:00	2024-11-08T14:00:00	5	Humedad	57
115621	7	Sololá	713	San Lucas Tolimán	10	San Lucas Tolimán	4	Abril	2023-01-04T00:00:00	2024-11-08T14:00:00	6	Velocidad del viento	12.9
115622	7	Sololá	713	San Lucas Tolimán	10	San Lucas Tolimán	4	Abril	2023-01-04T00:00:00	2024-11-08T14:00:00	7	Dirección del viento	12.87
115623	7	Sololá	713	San Lucas Tolimán	10	San Lucas Tolimán	4	Abril	2023-01-04T00:00:00	2024-11-08T14:00:00	1	Precipitación	0
115624	7	Sololá	713	San Lucas Tolimán	10	San Lucas Tolimán	4	Abril	2023-01-04T00:00:00	2024-11-08T14:00:00	8	Radiación solar	1059
115625	7	Sololá	713	San Lucas Tolimán	10	San Lucas Tolimán	4	Abril	2023-01-04T00:00:00	2024-11-08T15:00:00	2	Temperatura media	22.8
115626	7	Sololá	713	San Lucas Tolimán	10	San Lucas Tolimán	4	Abril	2023-01-04T00:00:00	2024-11-08T15:00:00	4	Temperatura máxima	22.9
115627	7	Sololá	713	San Lucas Tolimán	10	San Lucas Tolimán	4	Abril	2023-01-04T00:00:00	2024-11-08T15:00:00	3	Temperatura mínima	22.2
115628	7	Sololá	713	San Lucas Tolimán	10	San Lucas Tolimán	4	Abril	2023-01-04T00:00:00	2024-11-08T15:00:00	5	Humedad	58
115629	7	Sololá	713	San Lucas Tolimán	10	San Lucas Tolimán	4	Abril	2023-01-04T00:00:00	2024-11-08T15:00:00	6	Velocidad del viento	12.9
115630	7	Sololá	713	San Lucas Tolimán	10	San Lucas Tolimán	4	Abril	2023-01-04T00:00:00	2024-11-08T15:00:00	7	Dirección del viento	12.87
115631	7	Sololá	713	San Lucas Tolimán	10	San Lucas Tolimán	4	Abril	2023-01-04T00:00:00	2024-11-08T15:00:00	1	Precipitación	0
115632	7	Sololá	713	San Lucas Tolimán	10	San Lucas Tolimán	4	Abril	2023-01-04T00:00:00	2024-11-08T15:00:00	8	Radiación solar	850
115633	7	Sololá	713	San Lucas Tolimán	10	San Lucas Tolimán	4	Abril	2023-01-04T00:00:00	2024-11-08T16:00:00	2	Temperatura media	21.8
115634	7	Sololá	713	San Lucas Tolimán	10	San Lucas Tolimán	4	Abril	2023-01-04T00:00:00	2024-11-08T16:00:00	4	Temperatura máxima	23
115635	7	Sololá	713	San Lucas Tolimán	10	San Lucas Tolimán	4	Abril	2023-01-04T00:00:00	2024-11-08T16:00:00	3	Temperatura mínima	21.7
115636	7	Sololá	713	San Lucas Tolimán	10	San Lucas Tolimán	4	Abril	2023-01-04T00:00:00	2024-11-08T16:00:00	5	Humedad	61
115637	7	Sololá	713	San Lucas Tolimán	10	San Lucas Tolimán	4	Abril	2023-01-04T00:00:00	2024-11-08T16:00:00	6	Velocidad del viento	14.5
115638	7	Sololá	713	San Lucas Tolimán	10	San Lucas Tolimán	4	Abril	2023-01-04T00:00:00	2024-11-08T16:00:00	7	Dirección del viento	14.48
115639	7	Sololá	713	San Lucas Tolimán	10	San Lucas Tolimán	4	Abril	2023-01-04T00:00:00	2024-11-08T16:00:00	1	Precipitación	0
115640	7	Sololá	713	San Lucas Tolimán	10	San Lucas Tolimán	4	Abril	2023-01-04T00:00:00	2024-11-08T16:00:00	8	Radiación solar	679
115641	7	Sololá	713	San Lucas Tolimán	10	San Lucas Tolimán	4	Abril	2023-01-04T00:00:00	2024-11-08T17:00:00	2	Temperatura media	20.4
115642	7	Sololá	713	San Lucas Tolimán	10	San Lucas Tolimán	4	Abril	2023-01-04T00:00:00	2024-11-08T17:00:00	4	Temperatura máxima	22.1
115643	7	Sololá	713	San Lucas Tolimán	10	San Lucas Tolimán	4	Abril	2023-01-04T00:00:00	2024-11-08T17:00:00	3	Temperatura mínima	20.4
115644	7	Sololá	713	San Lucas Tolimán	10	San Lucas Tolimán	4	Abril	2023-01-04T00:00:00	2024-11-08T17:00:00	5	Humedad	61
115645	7	Sololá	713	San Lucas Tolimán	10	San Lucas Tolimán	4	Abril	2023-01-04T00:00:00	2024-11-08T17:00:00	6	Velocidad del viento	12.9
115646	7	Sololá	713	San Lucas Tolimán	10	San Lucas Tolimán	4	Abril	2023-01-04T00:00:00	2024-11-08T17:00:00	7	Dirección del viento	12.87
115647	7	Sololá	713	San Lucas Tolimán	10	San Lucas Tolimán	4	Abril	2023-01-04T00:00:00	2024-11-08T17:00:00	1	Precipitación	0
115648	7	Sololá	713	San Lucas Tolimán	10	San Lucas Tolimán	4	Abril	2023-01-04T00:00:00	2024-11-08T17:00:00	8	Radiación solar	316
115649	7	Sololá	713	San Lucas Tolimán	10	San Lucas Tolimán	4	Abril	2023-01-04T00:00:00	2024-11-08T18:00:00	2	Temperatura media	19.7
115650	7	Sololá	713	San Lucas Tolimán	10	San Lucas Tolimán	4	Abril	2023-01-04T00:00:00	2024-11-08T18:00:00	4	Temperatura máxima	20.4
115651	7	Sololá	713	San Lucas Tolimán	10	San Lucas Tolimán	4	Abril	2023-01-04T00:00:00	2024-11-08T18:00:00	3	Temperatura mínima	19.7
115652	7	Sololá	713	San Lucas Tolimán	10	San Lucas Tolimán	4	Abril	2023-01-04T00:00:00	2024-11-08T18:00:00	5	Humedad	61
115653	7	Sololá	713	San Lucas Tolimán	10	San Lucas Tolimán	4	Abril	2023-01-04T00:00:00	2024-11-08T18:00:00	6	Velocidad del viento	9.7
115654	7	Sololá	713	San Lucas Tolimán	10	San Lucas Tolimán	4	Abril	2023-01-04T00:00:00	2024-11-08T18:00:00	7	Dirección del viento	9.66
115655	7	Sololá	713	San Lucas Tolimán	10	San Lucas Tolimán	4	Abril	2023-01-04T00:00:00	2024-11-08T18:00:00	1	Precipitación	0
115656	7	Sololá	713	San Lucas Tolimán	10	San Lucas Tolimán	4	Abril	2023-01-04T00:00:00	2024-11-08T18:00:00	8	Radiación solar	70
115657	7	Sololá	713	San Lucas Tolimán	10	San Lucas Tolimán	4	Abril	2023-01-04T00:00:00	2024-11-08T19:00:00	2	Temperatura media	19
115658	7	Sololá	713	San Lucas Tolimán	10	San Lucas Tolimán	4	Abril	2023-01-04T00:00:00	2024-11-08T19:00:00	4	Temperatura máxima	19.7
115659	7	Sololá	713	San Lucas Tolimán	10	San Lucas Tolimán	4	Abril	2023-01-04T00:00:00	2024-11-08T19:00:00	3	Temperatura mínima	18.9
115660	7	Sololá	713	San Lucas Tolimán	10	San Lucas Tolimán	4	Abril	2023-01-04T00:00:00	2024-11-08T19:00:00	5	Humedad	62
115661	7	Sololá	713	San Lucas Tolimán	10	San Lucas Tolimán	4	Abril	2023-01-04T00:00:00	2024-11-08T19:00:00	6	Velocidad del viento	8
115662	7	Sololá	713	San Lucas Tolimán	10	San Lucas Tolimán	4	Abril	2023-01-04T00:00:00	2024-11-08T19:00:00	7	Dirección del viento	8.05
115663	7	Sololá	713	San Lucas Tolimán	10	San Lucas Tolimán	4	Abril	2023-01-04T00:00:00	2024-11-08T19:00:00	1	Precipitación	0
115664	7	Sololá	713	San Lucas Tolimán	10	San Lucas Tolimán	4	Abril	2023-01-04T00:00:00	2024-11-08T19:00:00	8	Radiación solar	0
115665	7	Sololá	713	San Lucas Tolimán	10	San Lucas Tolimán	4	Abril	2023-01-04T00:00:00	2024-11-08T20:00:00	2	Temperatura media	18.6
115666	7	Sololá	713	San Lucas Tolimán	10	San Lucas Tolimán	4	Abril	2023-01-04T00:00:00	2024-11-08T20:00:00	4	Temperatura máxima	19
115667	7	Sololá	713	San Lucas Tolimán	10	San Lucas Tolimán	4	Abril	2023-01-04T00:00:00	2024-11-08T20:00:00	3	Temperatura mínima	18.6
115668	7	Sololá	713	San Lucas Tolimán	10	San Lucas Tolimán	4	Abril	2023-01-04T00:00:00	2024-11-08T20:00:00	5	Humedad	61
115669	7	Sololá	713	San Lucas Tolimán	10	San Lucas Tolimán	4	Abril	2023-01-04T00:00:00	2024-11-08T20:00:00	6	Velocidad del viento	6.4
115670	7	Sololá	713	San Lucas Tolimán	10	San Lucas Tolimán	4	Abril	2023-01-04T00:00:00	2024-11-08T20:00:00	7	Dirección del viento	6.44
115671	7	Sololá	713	San Lucas Tolimán	10	San Lucas Tolimán	4	Abril	2023-01-04T00:00:00	2024-11-08T20:00:00	1	Precipitación	0
115672	7	Sololá	713	San Lucas Tolimán	10	San Lucas Tolimán	4	Abril	2023-01-04T00:00:00	2024-11-08T20:00:00	8	Radiación solar	0
115673	7	Sololá	713	San Lucas Tolimán	10	San Lucas Tolimán	4	Abril	2023-01-04T00:00:00	2024-11-08T21:00:00	2	Temperatura media	17.4
115674	7	Sololá	713	San Lucas Tolimán	10	San Lucas Tolimán	4	Abril	2023-01-04T00:00:00	2024-11-08T21:00:00	4	Temperatura máxima	18.6
115675	7	Sololá	713	San Lucas Tolimán	10	San Lucas Tolimán	4	Abril	2023-01-04T00:00:00	2024-11-08T21:00:00	3	Temperatura mínima	17.4
115676	7	Sololá	713	San Lucas Tolimán	10	San Lucas Tolimán	4	Abril	2023-01-04T00:00:00	2024-11-08T21:00:00	5	Humedad	61
115677	7	Sololá	713	San Lucas Tolimán	10	San Lucas Tolimán	4	Abril	2023-01-04T00:00:00	2024-11-08T21:00:00	6	Velocidad del viento	3.2
115678	7	Sololá	713	San Lucas Tolimán	10	San Lucas Tolimán	4	Abril	2023-01-04T00:00:00	2024-11-08T21:00:00	7	Dirección del viento	3.22
115679	7	Sololá	713	San Lucas Tolimán	10	San Lucas Tolimán	4	Abril	2023-01-04T00:00:00	2024-11-08T21:00:00	1	Precipitación	0
115680	7	Sololá	713	San Lucas Tolimán	10	San Lucas Tolimán	4	Abril	2023-01-04T00:00:00	2024-11-08T21:00:00	8	Radiación solar	0
115681	7	Sololá	713	San Lucas Tolimán	10	San Lucas Tolimán	4	Abril	2023-01-04T00:00:00	2024-11-08T22:00:00	2	Temperatura media	16.9
115682	7	Sololá	713	San Lucas Tolimán	10	San Lucas Tolimán	4	Abril	2023-01-04T00:00:00	2024-11-08T22:00:00	4	Temperatura máxima	17.6
115683	7	Sololá	713	San Lucas Tolimán	10	San Lucas Tolimán	4	Abril	2023-01-04T00:00:00	2024-11-08T22:00:00	3	Temperatura mínima	16.9
115684	7	Sololá	713	San Lucas Tolimán	10	San Lucas Tolimán	4	Abril	2023-01-04T00:00:00	2024-11-08T22:00:00	5	Humedad	58
115685	7	Sololá	713	San Lucas Tolimán	10	San Lucas Tolimán	4	Abril	2023-01-04T00:00:00	2024-11-08T22:00:00	6	Velocidad del viento	1.6
115686	7	Sololá	713	San Lucas Tolimán	10	San Lucas Tolimán	4	Abril	2023-01-04T00:00:00	2024-11-08T22:00:00	7	Dirección del viento	1.61
115687	7	Sololá	713	San Lucas Tolimán	10	San Lucas Tolimán	4	Abril	2023-01-04T00:00:00	2024-11-08T22:00:00	1	Precipitación	0
115688	7	Sololá	713	San Lucas Tolimán	10	San Lucas Tolimán	4	Abril	2023-01-04T00:00:00	2024-11-08T22:00:00	8	Radiación solar	0
115689	7	Sololá	713	San Lucas Tolimán	10	San Lucas Tolimán	4	Abril	2023-01-04T00:00:00	2024-11-08T23:00:00	2	Temperatura media	17.5
115690	7	Sololá	713	San Lucas Tolimán	10	San Lucas Tolimán	4	Abril	2023-01-04T00:00:00	2024-11-08T23:00:00	4	Temperatura máxima	18
115691	7	Sololá	713	San Lucas Tolimán	10	San Lucas Tolimán	4	Abril	2023-01-04T00:00:00	2024-11-08T23:00:00	3	Temperatura mínima	16.9
115692	7	Sololá	713	San Lucas Tolimán	10	San Lucas Tolimán	4	Abril	2023-01-04T00:00:00	2024-11-08T23:00:00	5	Humedad	57
115693	7	Sololá	713	San Lucas Tolimán	10	San Lucas Tolimán	4	Abril	2023-01-04T00:00:00	2024-11-08T23:00:00	6	Velocidad del viento	1.6
115694	7	Sololá	713	San Lucas Tolimán	10	San Lucas Tolimán	4	Abril	2023-01-04T00:00:00	2024-11-08T23:00:00	7	Dirección del viento	1.61
115695	7	Sololá	713	San Lucas Tolimán	10	San Lucas Tolimán	4	Abril	2023-01-04T00:00:00	2024-11-08T23:00:00	1	Precipitación	0
115696	7	Sololá	713	San Lucas Tolimán	10	San Lucas Tolimán	4	Abril	2023-01-04T00:00:00	2024-11-08T23:00:00	8	Radiación solar	0
115697	7	Sololá	713	San Lucas Tolimán	10	San Lucas Tolimán	4	Abril	2023-02-04T00:00:00	2024-11-08T00:00:00	2	Temperatura media	17.2
115698	7	Sololá	713	San Lucas Tolimán	10	San Lucas Tolimán	4	Abril	2023-02-04T00:00:00	2024-11-08T00:00:00	4	Temperatura máxima	17.5
115699	7	Sololá	713	San Lucas Tolimán	10	San Lucas Tolimán	4	Abril	2023-02-04T00:00:00	2024-11-08T00:00:00	3	Temperatura mínima	17.1
115700	7	Sololá	713	San Lucas Tolimán	10	San Lucas Tolimán	4	Abril	2023-02-04T00:00:00	2024-11-08T00:00:00	5	Humedad	57
115701	7	Sololá	713	San Lucas Tolimán	10	San Lucas Tolimán	4	Abril	2023-02-04T00:00:00	2024-11-08T00:00:00	6	Velocidad del viento	1.6
115702	7	Sololá	713	San Lucas Tolimán	10	San Lucas Tolimán	4	Abril	2023-02-04T00:00:00	2024-11-08T00:00:00	7	Dirección del viento	1.61
115703	7	Sololá	713	San Lucas Tolimán	10	San Lucas Tolimán	4	Abril	2023-02-04T00:00:00	2024-11-08T00:00:00	1	Precipitación	0
115704	7	Sololá	713	San Lucas Tolimán	10	San Lucas Tolimán	4	Abril	2023-02-04T00:00:00	2024-11-08T00:00:00	8	Radiación solar	0
115705	7	Sololá	713	San Lucas Tolimán	10	San Lucas Tolimán	4	Abril	2023-02-04T00:00:00	2024-11-08T01:00:00	2	Temperatura media	17
115706	7	Sololá	713	San Lucas Tolimán	10	San Lucas Tolimán	4	Abril	2023-02-04T00:00:00	2024-11-08T01:00:00	4	Temperatura máxima	17.3
115707	7	Sololá	713	San Lucas Tolimán	10	San Lucas Tolimán	4	Abril	2023-02-04T00:00:00	2024-11-08T01:00:00	3	Temperatura mínima	16.8
115708	7	Sololá	713	San Lucas Tolimán	10	San Lucas Tolimán	4	Abril	2023-02-04T00:00:00	2024-11-08T01:00:00	5	Humedad	56
115709	7	Sololá	713	San Lucas Tolimán	10	San Lucas Tolimán	4	Abril	2023-02-04T00:00:00	2024-11-08T01:00:00	6	Velocidad del viento	1.6
115710	7	Sololá	713	San Lucas Tolimán	10	San Lucas Tolimán	4	Abril	2023-02-04T00:00:00	2024-11-08T01:00:00	7	Dirección del viento	1.61
115711	7	Sololá	713	San Lucas Tolimán	10	San Lucas Tolimán	4	Abril	2023-02-04T00:00:00	2024-11-08T01:00:00	1	Precipitación	0
115712	7	Sololá	713	San Lucas Tolimán	10	San Lucas Tolimán	4	Abril	2023-02-04T00:00:00	2024-11-08T01:00:00	8	Radiación solar	0
115713	7	Sololá	713	San Lucas Tolimán	10	San Lucas Tolimán	4	Abril	2023-02-04T00:00:00	2024-11-08T02:00:00	2	Temperatura media	16.2
115714	7	Sololá	713	San Lucas Tolimán	10	San Lucas Tolimán	4	Abril	2023-02-04T00:00:00	2024-11-08T02:00:00	4	Temperatura máxima	17
115715	7	Sololá	713	San Lucas Tolimán	10	San Lucas Tolimán	4	Abril	2023-02-04T00:00:00	2024-11-08T02:00:00	3	Temperatura mínima	16.2
115716	7	Sololá	713	San Lucas Tolimán	10	San Lucas Tolimán	4	Abril	2023-02-04T00:00:00	2024-11-08T02:00:00	5	Humedad	57
115717	7	Sololá	713	San Lucas Tolimán	10	San Lucas Tolimán	4	Abril	2023-02-04T00:00:00	2024-11-08T02:00:00	6	Velocidad del viento	1.6
115718	7	Sololá	713	San Lucas Tolimán	10	San Lucas Tolimán	4	Abril	2023-02-04T00:00:00	2024-11-08T02:00:00	7	Dirección del viento	1.61
115719	7	Sololá	713	San Lucas Tolimán	10	San Lucas Tolimán	4	Abril	2023-02-04T00:00:00	2024-11-08T02:00:00	1	Precipitación	0
115720	7	Sololá	713	San Lucas Tolimán	10	San Lucas Tolimán	4	Abril	2023-02-04T00:00:00	2024-11-08T02:00:00	8	Radiación solar	0
115721	7	Sololá	713	San Lucas Tolimán	10	San Lucas Tolimán	4	Abril	2023-02-04T00:00:00	2024-11-08T03:00:00	2	Temperatura media	16
115722	7	Sololá	713	San Lucas Tolimán	10	San Lucas Tolimán	4	Abril	2023-02-04T00:00:00	2024-11-08T03:00:00	4	Temperatura máxima	16.2
115723	7	Sololá	713	San Lucas Tolimán	10	San Lucas Tolimán	4	Abril	2023-02-04T00:00:00	2024-11-08T03:00:00	3	Temperatura mínima	15.6
115724	7	Sololá	713	San Lucas Tolimán	10	San Lucas Tolimán	4	Abril	2023-02-04T00:00:00	2024-11-08T03:00:00	5	Humedad	57
115725	7	Sololá	713	San Lucas Tolimán	10	San Lucas Tolimán	4	Abril	2023-02-04T00:00:00	2024-11-08T03:00:00	6	Velocidad del viento	1.6
115726	7	Sololá	713	San Lucas Tolimán	10	San Lucas Tolimán	4	Abril	2023-02-04T00:00:00	2024-11-08T03:00:00	7	Dirección del viento	1.61
115727	7	Sololá	713	San Lucas Tolimán	10	San Lucas Tolimán	4	Abril	2023-02-04T00:00:00	2024-11-08T03:00:00	1	Precipitación	0
115728	7	Sololá	713	San Lucas Tolimán	10	San Lucas Tolimán	4	Abril	2023-02-04T00:00:00	2024-11-08T03:00:00	8	Radiación solar	0
115729	7	Sololá	713	San Lucas Tolimán	10	San Lucas Tolimán	4	Abril	2023-02-04T00:00:00	2024-11-08T04:00:00	2	Temperatura media	16.2
115730	7	Sololá	713	San Lucas Tolimán	10	San Lucas Tolimán	4	Abril	2023-02-04T00:00:00	2024-11-08T04:00:00	4	Temperatura máxima	16.2
115731	7	Sololá	713	San Lucas Tolimán	10	San Lucas Tolimán	4	Abril	2023-02-04T00:00:00	2024-11-08T04:00:00	3	Temperatura mínima	15.8
115732	7	Sololá	713	San Lucas Tolimán	10	San Lucas Tolimán	4	Abril	2023-02-04T00:00:00	2024-11-08T04:00:00	5	Humedad	55
115733	7	Sololá	713	San Lucas Tolimán	10	San Lucas Tolimán	4	Abril	2023-02-04T00:00:00	2024-11-08T04:00:00	6	Velocidad del viento	3.2
115734	7	Sololá	713	San Lucas Tolimán	10	San Lucas Tolimán	4	Abril	2023-02-04T00:00:00	2024-11-08T04:00:00	7	Dirección del viento	3.22
115735	7	Sololá	713	San Lucas Tolimán	10	San Lucas Tolimán	4	Abril	2023-02-04T00:00:00	2024-11-08T04:00:00	1	Precipitación	0
115736	7	Sololá	713	San Lucas Tolimán	10	San Lucas Tolimán	4	Abril	2023-02-04T00:00:00	2024-11-08T04:00:00	8	Radiación solar	0
115737	7	Sololá	713	San Lucas Tolimán	10	San Lucas Tolimán	4	Abril	2023-02-04T00:00:00	2024-11-08T05:00:00	2	Temperatura media	15.3
115738	7	Sololá	713	San Lucas Tolimán	10	San Lucas Tolimán	4	Abril	2023-02-04T00:00:00	2024-11-08T05:00:00	4	Temperatura máxima	16.3
115739	7	Sololá	713	San Lucas Tolimán	10	San Lucas Tolimán	4	Abril	2023-02-04T00:00:00	2024-11-08T05:00:00	3	Temperatura mínima	15.2
115740	7	Sololá	713	San Lucas Tolimán	10	San Lucas Tolimán	4	Abril	2023-02-04T00:00:00	2024-11-08T05:00:00	5	Humedad	58
115741	7	Sololá	713	San Lucas Tolimán	10	San Lucas Tolimán	4	Abril	2023-02-04T00:00:00	2024-11-08T05:00:00	6	Velocidad del viento	3.2
115742	7	Sololá	713	San Lucas Tolimán	10	San Lucas Tolimán	4	Abril	2023-02-04T00:00:00	2024-11-08T05:00:00	7	Dirección del viento	3.22
115743	7	Sololá	713	San Lucas Tolimán	10	San Lucas Tolimán	4	Abril	2023-02-04T00:00:00	2024-11-08T05:00:00	1	Precipitación	0
115744	7	Sololá	713	San Lucas Tolimán	10	San Lucas Tolimán	4	Abril	2023-02-04T00:00:00	2024-11-08T05:00:00	8	Radiación solar	0
115745	7	Sololá	713	San Lucas Tolimán	10	San Lucas Tolimán	4	Abril	2023-02-04T00:00:00	2024-11-08T06:00:00	2	Temperatura media	15
115746	7	Sololá	713	San Lucas Tolimán	10	San Lucas Tolimán	4	Abril	2023-02-04T00:00:00	2024-11-08T06:00:00	4	Temperatura máxima	15.2
115747	7	Sololá	713	San Lucas Tolimán	10	San Lucas Tolimán	4	Abril	2023-02-04T00:00:00	2024-11-08T06:00:00	3	Temperatura mínima	14.8
115748	7	Sololá	713	San Lucas Tolimán	10	San Lucas Tolimán	4	Abril	2023-02-04T00:00:00	2024-11-08T06:00:00	5	Humedad	53
115749	7	Sololá	713	San Lucas Tolimán	10	San Lucas Tolimán	4	Abril	2023-02-04T00:00:00	2024-11-08T06:00:00	6	Velocidad del viento	3.2
115750	7	Sololá	713	San Lucas Tolimán	10	San Lucas Tolimán	4	Abril	2023-02-04T00:00:00	2024-11-08T06:00:00	7	Dirección del viento	3.22
115751	7	Sololá	713	San Lucas Tolimán	10	San Lucas Tolimán	4	Abril	2023-02-04T00:00:00	2024-11-08T06:00:00	1	Precipitación	0
115752	7	Sololá	713	San Lucas Tolimán	10	San Lucas Tolimán	4	Abril	2023-02-04T00:00:00	2024-11-08T06:00:00	8	Radiación solar	0
115753	7	Sololá	713	San Lucas Tolimán	10	San Lucas Tolimán	4	Abril	2023-02-04T00:00:00	2024-11-08T07:00:00	2	Temperatura media	15.4
115754	7	Sololá	713	San Lucas Tolimán	10	San Lucas Tolimán	4	Abril	2023-02-04T00:00:00	2024-11-08T07:00:00	4	Temperatura máxima	15.4
115755	7	Sololá	713	San Lucas Tolimán	10	San Lucas Tolimán	4	Abril	2023-02-04T00:00:00	2024-11-08T07:00:00	3	Temperatura mínima	14.9
115756	7	Sololá	713	San Lucas Tolimán	10	San Lucas Tolimán	4	Abril	2023-02-04T00:00:00	2024-11-08T07:00:00	5	Humedad	49
115757	7	Sololá	713	San Lucas Tolimán	10	San Lucas Tolimán	4	Abril	2023-02-04T00:00:00	2024-11-08T07:00:00	6	Velocidad del viento	3.2
115758	7	Sololá	713	San Lucas Tolimán	10	San Lucas Tolimán	4	Abril	2023-02-04T00:00:00	2024-11-08T07:00:00	7	Dirección del viento	3.22
115759	7	Sololá	713	San Lucas Tolimán	10	San Lucas Tolimán	4	Abril	2023-02-04T00:00:00	2024-11-08T07:00:00	1	Precipitación	0
115760	7	Sololá	713	San Lucas Tolimán	10	San Lucas Tolimán	4	Abril	2023-02-04T00:00:00	2024-11-08T07:00:00	8	Radiación solar	21
115761	7	Sololá	713	San Lucas Tolimán	10	San Lucas Tolimán	4	Abril	2023-02-04T00:00:00	2024-11-08T08:00:00	2	Temperatura media	18.6
115762	7	Sololá	713	San Lucas Tolimán	10	San Lucas Tolimán	4	Abril	2023-02-04T00:00:00	2024-11-08T08:00:00	4	Temperatura máxima	18.7
115763	7	Sololá	713	San Lucas Tolimán	10	San Lucas Tolimán	4	Abril	2023-02-04T00:00:00	2024-11-08T08:00:00	3	Temperatura mínima	15.4
115764	7	Sololá	713	San Lucas Tolimán	10	San Lucas Tolimán	4	Abril	2023-02-04T00:00:00	2024-11-08T08:00:00	5	Humedad	47
115765	7	Sololá	713	San Lucas Tolimán	10	San Lucas Tolimán	4	Abril	2023-02-04T00:00:00	2024-11-08T08:00:00	6	Velocidad del viento	4.8
115766	7	Sololá	713	San Lucas Tolimán	10	San Lucas Tolimán	4	Abril	2023-02-04T00:00:00	2024-11-08T08:00:00	7	Dirección del viento	4.83
115767	7	Sololá	713	San Lucas Tolimán	10	San Lucas Tolimán	4	Abril	2023-02-04T00:00:00	2024-11-08T08:00:00	1	Precipitación	0
115768	7	Sololá	713	San Lucas Tolimán	10	San Lucas Tolimán	4	Abril	2023-02-04T00:00:00	2024-11-08T08:00:00	8	Radiación solar	248
115769	7	Sololá	713	San Lucas Tolimán	10	San Lucas Tolimán	4	Abril	2023-02-04T00:00:00	2024-11-08T09:00:00	2	Temperatura media	21
115770	7	Sololá	713	San Lucas Tolimán	10	San Lucas Tolimán	4	Abril	2023-02-04T00:00:00	2024-11-08T09:00:00	4	Temperatura máxima	21
115771	7	Sololá	713	San Lucas Tolimán	10	San Lucas Tolimán	4	Abril	2023-02-04T00:00:00	2024-11-08T09:00:00	3	Temperatura mínima	18.6
115772	7	Sololá	713	San Lucas Tolimán	10	San Lucas Tolimán	4	Abril	2023-02-04T00:00:00	2024-11-08T09:00:00	5	Humedad	39
115773	7	Sololá	713	San Lucas Tolimán	10	San Lucas Tolimán	4	Abril	2023-02-04T00:00:00	2024-11-08T09:00:00	6	Velocidad del viento	4.8
115774	7	Sololá	713	San Lucas Tolimán	10	San Lucas Tolimán	4	Abril	2023-02-04T00:00:00	2024-11-08T09:00:00	7	Dirección del viento	4.83
115775	7	Sololá	713	San Lucas Tolimán	10	San Lucas Tolimán	4	Abril	2023-02-04T00:00:00	2024-11-08T09:00:00	1	Precipitación	0
115776	7	Sololá	713	San Lucas Tolimán	10	San Lucas Tolimán	4	Abril	2023-02-04T00:00:00	2024-11-08T09:00:00	8	Radiación solar	491
115777	7	Sololá	713	San Lucas Tolimán	10	San Lucas Tolimán	4	Abril	2023-02-04T00:00:00	2024-11-08T10:00:00	2	Temperatura media	22.9
115778	7	Sololá	713	San Lucas Tolimán	10	San Lucas Tolimán	4	Abril	2023-02-04T00:00:00	2024-11-08T10:00:00	4	Temperatura máxima	23.4
115779	7	Sololá	713	San Lucas Tolimán	10	San Lucas Tolimán	4	Abril	2023-02-04T00:00:00	2024-11-08T10:00:00	3	Temperatura mínima	20.1
115780	7	Sololá	713	San Lucas Tolimán	10	San Lucas Tolimán	4	Abril	2023-02-04T00:00:00	2024-11-08T10:00:00	5	Humedad	50
115781	7	Sololá	713	San Lucas Tolimán	10	San Lucas Tolimán	4	Abril	2023-02-04T00:00:00	2024-11-08T10:00:00	6	Velocidad del viento	6.4
115782	7	Sololá	713	San Lucas Tolimán	10	San Lucas Tolimán	4	Abril	2023-02-04T00:00:00	2024-11-08T10:00:00	7	Dirección del viento	6.44
115783	7	Sololá	713	San Lucas Tolimán	10	San Lucas Tolimán	4	Abril	2023-02-04T00:00:00	2024-11-08T10:00:00	1	Precipitación	0
115784	7	Sololá	713	San Lucas Tolimán	10	San Lucas Tolimán	4	Abril	2023-02-04T00:00:00	2024-11-08T10:00:00	8	Radiación solar	819
115785	7	Sololá	713	San Lucas Tolimán	10	San Lucas Tolimán	4	Abril	2023-02-04T00:00:00	2024-11-08T11:00:00	2	Temperatura media	23.3
115786	7	Sololá	713	San Lucas Tolimán	10	San Lucas Tolimán	4	Abril	2023-02-04T00:00:00	2024-11-08T11:00:00	4	Temperatura máxima	23.6
115787	7	Sololá	713	San Lucas Tolimán	10	San Lucas Tolimán	4	Abril	2023-02-04T00:00:00	2024-11-08T11:00:00	3	Temperatura mínima	22.4
115788	7	Sololá	713	San Lucas Tolimán	10	San Lucas Tolimán	4	Abril	2023-02-04T00:00:00	2024-11-08T11:00:00	5	Humedad	51
115789	7	Sololá	713	San Lucas Tolimán	10	San Lucas Tolimán	4	Abril	2023-02-04T00:00:00	2024-11-08T11:00:00	6	Velocidad del viento	9.7
115790	7	Sololá	713	San Lucas Tolimán	10	San Lucas Tolimán	4	Abril	2023-02-04T00:00:00	2024-11-08T11:00:00	7	Dirección del viento	9.66
115791	7	Sololá	713	San Lucas Tolimán	10	San Lucas Tolimán	4	Abril	2023-02-04T00:00:00	2024-11-08T11:00:00	1	Precipitación	0
115792	7	Sololá	713	San Lucas Tolimán	10	San Lucas Tolimán	4	Abril	2023-02-04T00:00:00	2024-11-08T11:00:00	8	Radiación solar	996
115793	7	Sololá	713	San Lucas Tolimán	10	San Lucas Tolimán	4	Abril	2023-02-04T00:00:00	2024-11-08T12:00:00	2	Temperatura media	23.3
115794	7	Sololá	713	San Lucas Tolimán	10	San Lucas Tolimán	4	Abril	2023-02-04T00:00:00	2024-11-08T12:00:00	4	Temperatura máxima	23.8
115795	7	Sololá	713	San Lucas Tolimán	10	San Lucas Tolimán	4	Abril	2023-02-04T00:00:00	2024-11-08T12:00:00	3	Temperatura mínima	23.2
115796	7	Sololá	713	San Lucas Tolimán	10	San Lucas Tolimán	4	Abril	2023-02-04T00:00:00	2024-11-08T12:00:00	5	Humedad	53
115797	7	Sololá	713	San Lucas Tolimán	10	San Lucas Tolimán	4	Abril	2023-02-04T00:00:00	2024-11-08T12:00:00	6	Velocidad del viento	11.3
115798	7	Sololá	713	San Lucas Tolimán	10	San Lucas Tolimán	4	Abril	2023-02-04T00:00:00	2024-11-08T12:00:00	7	Dirección del viento	11.27
115799	7	Sololá	713	San Lucas Tolimán	10	San Lucas Tolimán	4	Abril	2023-02-04T00:00:00	2024-11-08T12:00:00	1	Precipitación	0
115800	7	Sololá	713	San Lucas Tolimán	10	San Lucas Tolimán	4	Abril	2023-02-04T00:00:00	2024-11-08T12:00:00	8	Radiación solar	1092
115801	7	Sololá	713	San Lucas Tolimán	10	San Lucas Tolimán	4	Abril	2023-02-04T00:00:00	2024-11-08T13:00:00	2	Temperatura media	23.6
115802	7	Sololá	713	San Lucas Tolimán	10	San Lucas Tolimán	4	Abril	2023-02-04T00:00:00	2024-11-08T13:00:00	4	Temperatura máxima	23.6
115803	7	Sololá	713	San Lucas Tolimán	10	San Lucas Tolimán	4	Abril	2023-02-04T00:00:00	2024-11-08T13:00:00	3	Temperatura mínima	23.1
115804	7	Sololá	713	San Lucas Tolimán	10	San Lucas Tolimán	4	Abril	2023-02-04T00:00:00	2024-11-08T13:00:00	5	Humedad	53
115805	7	Sololá	713	San Lucas Tolimán	10	San Lucas Tolimán	4	Abril	2023-02-04T00:00:00	2024-11-08T13:00:00	6	Velocidad del viento	14.5
115806	7	Sololá	713	San Lucas Tolimán	10	San Lucas Tolimán	4	Abril	2023-02-04T00:00:00	2024-11-08T13:00:00	7	Dirección del viento	14.48
115807	7	Sololá	713	San Lucas Tolimán	10	San Lucas Tolimán	4	Abril	2023-02-04T00:00:00	2024-11-08T13:00:00	1	Precipitación	0
115808	7	Sololá	713	San Lucas Tolimán	10	San Lucas Tolimán	4	Abril	2023-02-04T00:00:00	2024-11-08T13:00:00	8	Radiación solar	1105
115809	7	Sololá	713	San Lucas Tolimán	10	San Lucas Tolimán	4	Abril	2023-02-04T00:00:00	2024-11-08T14:00:00	2	Temperatura media	23.7
115810	7	Sololá	713	San Lucas Tolimán	10	San Lucas Tolimán	4	Abril	2023-02-04T00:00:00	2024-11-08T14:00:00	4	Temperatura máxima	24
115811	7	Sololá	713	San Lucas Tolimán	10	San Lucas Tolimán	4	Abril	2023-02-04T00:00:00	2024-11-08T14:00:00	3	Temperatura mínima	23.4
115812	7	Sololá	713	San Lucas Tolimán	10	San Lucas Tolimán	4	Abril	2023-02-04T00:00:00	2024-11-08T14:00:00	5	Humedad	55
115813	7	Sololá	713	San Lucas Tolimán	10	San Lucas Tolimán	4	Abril	2023-02-04T00:00:00	2024-11-08T14:00:00	6	Velocidad del viento	14.5
115814	7	Sololá	713	San Lucas Tolimán	10	San Lucas Tolimán	4	Abril	2023-02-04T00:00:00	2024-11-08T14:00:00	7	Dirección del viento	14.48
115815	7	Sololá	713	San Lucas Tolimán	10	San Lucas Tolimán	4	Abril	2023-02-04T00:00:00	2024-11-08T14:00:00	1	Precipitación	0
115816	7	Sololá	713	San Lucas Tolimán	10	San Lucas Tolimán	4	Abril	2023-02-04T00:00:00	2024-11-08T14:00:00	8	Radiación solar	1027
115817	7	Sololá	713	San Lucas Tolimán	10	San Lucas Tolimán	4	Abril	2023-02-04T00:00:00	2024-11-08T15:00:00	2	Temperatura media	23.4
115818	7	Sololá	713	San Lucas Tolimán	10	San Lucas Tolimán	4	Abril	2023-02-04T00:00:00	2024-11-08T15:00:00	4	Temperatura máxima	24.2
115819	7	Sololá	713	San Lucas Tolimán	10	San Lucas Tolimán	4	Abril	2023-02-04T00:00:00	2024-11-08T15:00:00	3	Temperatura mínima	23.3
115820	7	Sololá	713	San Lucas Tolimán	10	San Lucas Tolimán	4	Abril	2023-02-04T00:00:00	2024-11-08T15:00:00	5	Humedad	55
115821	7	Sololá	713	San Lucas Tolimán	10	San Lucas Tolimán	4	Abril	2023-02-04T00:00:00	2024-11-08T15:00:00	6	Velocidad del viento	12.9
115822	7	Sololá	713	San Lucas Tolimán	10	San Lucas Tolimán	4	Abril	2023-02-04T00:00:00	2024-11-08T15:00:00	7	Dirección del viento	12.87
115823	7	Sololá	713	San Lucas Tolimán	10	San Lucas Tolimán	4	Abril	2023-02-04T00:00:00	2024-11-08T15:00:00	1	Precipitación	0
115824	7	Sololá	713	San Lucas Tolimán	10	San Lucas Tolimán	4	Abril	2023-02-04T00:00:00	2024-11-08T15:00:00	8	Radiación solar	880
115825	7	Sololá	713	San Lucas Tolimán	10	San Lucas Tolimán	4	Abril	2023-02-04T00:00:00	2024-11-08T16:00:00	2	Temperatura media	22.4
115826	7	Sololá	713	San Lucas Tolimán	10	San Lucas Tolimán	4	Abril	2023-02-04T00:00:00	2024-11-08T16:00:00	4	Temperatura máxima	23.9
115827	7	Sololá	713	San Lucas Tolimán	10	San Lucas Tolimán	4	Abril	2023-02-04T00:00:00	2024-11-08T16:00:00	3	Temperatura mínima	22.4
115828	7	Sololá	713	San Lucas Tolimán	10	San Lucas Tolimán	4	Abril	2023-02-04T00:00:00	2024-11-08T16:00:00	5	Humedad	57
115829	7	Sololá	713	San Lucas Tolimán	10	San Lucas Tolimán	4	Abril	2023-02-04T00:00:00	2024-11-08T16:00:00	6	Velocidad del viento	14.5
115830	7	Sololá	713	San Lucas Tolimán	10	San Lucas Tolimán	4	Abril	2023-02-04T00:00:00	2024-11-08T16:00:00	7	Dirección del viento	14.48
115831	7	Sololá	713	San Lucas Tolimán	10	San Lucas Tolimán	4	Abril	2023-02-04T00:00:00	2024-11-08T16:00:00	1	Precipitación	0
115832	7	Sololá	713	San Lucas Tolimán	10	San Lucas Tolimán	4	Abril	2023-02-04T00:00:00	2024-11-08T16:00:00	8	Radiación solar	653
115833	7	Sololá	713	San Lucas Tolimán	10	San Lucas Tolimán	4	Abril	2023-02-04T00:00:00	2024-11-08T17:00:00	2	Temperatura media	21.7
115834	7	Sololá	713	San Lucas Tolimán	10	San Lucas Tolimán	4	Abril	2023-02-04T00:00:00	2024-11-08T17:00:00	4	Temperatura máxima	22.6
115835	7	Sololá	713	San Lucas Tolimán	10	San Lucas Tolimán	4	Abril	2023-02-04T00:00:00	2024-11-08T17:00:00	3	Temperatura mínima	21.5
115836	7	Sololá	713	San Lucas Tolimán	10	San Lucas Tolimán	4	Abril	2023-02-04T00:00:00	2024-11-08T17:00:00	5	Humedad	59
115837	7	Sololá	713	San Lucas Tolimán	10	San Lucas Tolimán	4	Abril	2023-02-04T00:00:00	2024-11-08T17:00:00	6	Velocidad del viento	14.5
115838	7	Sololá	713	San Lucas Tolimán	10	San Lucas Tolimán	4	Abril	2023-02-04T00:00:00	2024-11-08T17:00:00	7	Dirección del viento	14.48
115839	7	Sololá	713	San Lucas Tolimán	10	San Lucas Tolimán	4	Abril	2023-02-04T00:00:00	2024-11-08T17:00:00	1	Precipitación	0
115840	7	Sololá	713	San Lucas Tolimán	10	San Lucas Tolimán	4	Abril	2023-02-04T00:00:00	2024-11-08T17:00:00	8	Radiación solar	384
115841	7	Sololá	713	San Lucas Tolimán	10	San Lucas Tolimán	4	Abril	2023-02-04T00:00:00	2024-11-08T18:00:00	2	Temperatura media	19.2
115842	7	Sololá	713	San Lucas Tolimán	10	San Lucas Tolimán	4	Abril	2023-02-04T00:00:00	2024-11-08T18:00:00	4	Temperatura máxima	21.7
115843	7	Sololá	713	San Lucas Tolimán	10	San Lucas Tolimán	4	Abril	2023-02-04T00:00:00	2024-11-08T18:00:00	3	Temperatura mínima	19.2
115844	7	Sololá	713	San Lucas Tolimán	10	San Lucas Tolimán	4	Abril	2023-02-04T00:00:00	2024-11-08T18:00:00	5	Humedad	61
115845	7	Sololá	713	San Lucas Tolimán	10	San Lucas Tolimán	4	Abril	2023-02-04T00:00:00	2024-11-08T18:00:00	6	Velocidad del viento	11.3
115846	7	Sololá	713	San Lucas Tolimán	10	San Lucas Tolimán	4	Abril	2023-02-04T00:00:00	2024-11-08T18:00:00	7	Dirección del viento	11.27
115847	7	Sololá	713	San Lucas Tolimán	10	San Lucas Tolimán	4	Abril	2023-02-04T00:00:00	2024-11-08T18:00:00	1	Precipitación	0
115848	7	Sololá	713	San Lucas Tolimán	10	San Lucas Tolimán	4	Abril	2023-02-04T00:00:00	2024-11-08T18:00:00	8	Radiación solar	83
115849	7	Sololá	713	San Lucas Tolimán	10	San Lucas Tolimán	4	Abril	2023-02-04T00:00:00	2024-11-08T19:00:00	2	Temperatura media	18.7
115850	7	Sololá	713	San Lucas Tolimán	10	San Lucas Tolimán	4	Abril	2023-02-04T00:00:00	2024-11-08T19:00:00	4	Temperatura máxima	19.2
115851	7	Sololá	713	San Lucas Tolimán	10	San Lucas Tolimán	4	Abril	2023-02-04T00:00:00	2024-11-08T19:00:00	3	Temperatura mínima	18.7
115852	7	Sololá	713	San Lucas Tolimán	10	San Lucas Tolimán	4	Abril	2023-02-04T00:00:00	2024-11-08T19:00:00	5	Humedad	61
115853	7	Sololá	713	San Lucas Tolimán	10	San Lucas Tolimán	4	Abril	2023-02-04T00:00:00	2024-11-08T19:00:00	6	Velocidad del viento	6.4
115854	7	Sololá	713	San Lucas Tolimán	10	San Lucas Tolimán	4	Abril	2023-02-04T00:00:00	2024-11-08T19:00:00	7	Dirección del viento	6.44
115855	7	Sololá	713	San Lucas Tolimán	10	San Lucas Tolimán	4	Abril	2023-02-04T00:00:00	2024-11-08T19:00:00	1	Precipitación	0
115856	7	Sololá	713	San Lucas Tolimán	10	San Lucas Tolimán	4	Abril	2023-02-04T00:00:00	2024-11-08T19:00:00	8	Radiación solar	0
115857	7	Sololá	713	San Lucas Tolimán	10	San Lucas Tolimán	4	Abril	2023-02-04T00:00:00	2024-11-08T20:00:00	2	Temperatura media	17.8
115858	7	Sololá	713	San Lucas Tolimán	10	San Lucas Tolimán	4	Abril	2023-02-04T00:00:00	2024-11-08T20:00:00	4	Temperatura máxima	18.8
115859	7	Sololá	713	San Lucas Tolimán	10	San Lucas Tolimán	4	Abril	2023-02-04T00:00:00	2024-11-08T20:00:00	3	Temperatura mínima	17.8
115860	7	Sololá	713	San Lucas Tolimán	10	San Lucas Tolimán	4	Abril	2023-02-04T00:00:00	2024-11-08T20:00:00	5	Humedad	60
115861	7	Sololá	713	San Lucas Tolimán	10	San Lucas Tolimán	4	Abril	2023-02-04T00:00:00	2024-11-08T20:00:00	6	Velocidad del viento	4.8
115862	7	Sololá	713	San Lucas Tolimán	10	San Lucas Tolimán	4	Abril	2023-02-04T00:00:00	2024-11-08T20:00:00	7	Dirección del viento	4.83
115863	7	Sololá	713	San Lucas Tolimán	10	San Lucas Tolimán	4	Abril	2023-02-04T00:00:00	2024-11-08T20:00:00	1	Precipitación	0
115864	7	Sololá	713	San Lucas Tolimán	10	San Lucas Tolimán	4	Abril	2023-02-04T00:00:00	2024-11-08T20:00:00	8	Radiación solar	0
115865	7	Sololá	713	San Lucas Tolimán	10	San Lucas Tolimán	4	Abril	2023-02-04T00:00:00	2024-11-08T21:00:00	2	Temperatura media	17.6
115866	7	Sololá	713	San Lucas Tolimán	10	San Lucas Tolimán	4	Abril	2023-02-04T00:00:00	2024-11-08T21:00:00	4	Temperatura máxima	17.8
115867	7	Sololá	713	San Lucas Tolimán	10	San Lucas Tolimán	4	Abril	2023-02-04T00:00:00	2024-11-08T21:00:00	3	Temperatura mínima	17.4
115868	7	Sololá	713	San Lucas Tolimán	10	San Lucas Tolimán	4	Abril	2023-02-04T00:00:00	2024-11-08T21:00:00	5	Humedad	58
115869	7	Sololá	713	San Lucas Tolimán	10	San Lucas Tolimán	4	Abril	2023-02-04T00:00:00	2024-11-08T21:00:00	6	Velocidad del viento	0
115870	7	Sololá	713	San Lucas Tolimán	10	San Lucas Tolimán	4	Abril	2023-02-04T00:00:00	2024-11-08T21:00:00	7	Dirección del viento	0
115871	7	Sololá	713	San Lucas Tolimán	10	San Lucas Tolimán	4	Abril	2023-02-04T00:00:00	2024-11-08T21:00:00	1	Precipitación	0
115872	7	Sololá	713	San Lucas Tolimán	10	San Lucas Tolimán	4	Abril	2023-02-04T00:00:00	2024-11-08T21:00:00	8	Radiación solar	0
115873	7	Sololá	713	San Lucas Tolimán	10	San Lucas Tolimán	4	Abril	2023-02-04T00:00:00	2024-11-08T22:00:00	2	Temperatura media	19
115874	7	Sololá	713	San Lucas Tolimán	10	San Lucas Tolimán	4	Abril	2023-02-04T00:00:00	2024-11-08T22:00:00	4	Temperatura máxima	19.1
115875	7	Sololá	713	San Lucas Tolimán	10	San Lucas Tolimán	4	Abril	2023-02-04T00:00:00	2024-11-08T22:00:00	3	Temperatura mínima	17.5
115876	7	Sololá	713	San Lucas Tolimán	10	San Lucas Tolimán	4	Abril	2023-02-04T00:00:00	2024-11-08T22:00:00	5	Humedad	54
115877	7	Sololá	713	San Lucas Tolimán	10	San Lucas Tolimán	4	Abril	2023-02-04T00:00:00	2024-11-08T22:00:00	6	Velocidad del viento	3.2
115878	7	Sololá	713	San Lucas Tolimán	10	San Lucas Tolimán	4	Abril	2023-02-04T00:00:00	2024-11-08T22:00:00	7	Dirección del viento	3.22
115879	7	Sololá	713	San Lucas Tolimán	10	San Lucas Tolimán	4	Abril	2023-02-04T00:00:00	2024-11-08T22:00:00	1	Precipitación	0
115880	7	Sololá	713	San Lucas Tolimán	10	San Lucas Tolimán	4	Abril	2023-02-04T00:00:00	2024-11-08T22:00:00	8	Radiación solar	0
115881	7	Sololá	713	San Lucas Tolimán	10	San Lucas Tolimán	4	Abril	2023-02-04T00:00:00	2024-11-08T23:00:00	2	Temperatura media	17.8
115882	7	Sololá	713	San Lucas Tolimán	10	San Lucas Tolimán	4	Abril	2023-02-04T00:00:00	2024-11-08T23:00:00	4	Temperatura máxima	19
115883	7	Sololá	713	San Lucas Tolimán	10	San Lucas Tolimán	4	Abril	2023-02-04T00:00:00	2024-11-08T23:00:00	3	Temperatura mínima	17.7
115884	7	Sololá	713	San Lucas Tolimán	10	San Lucas Tolimán	4	Abril	2023-02-04T00:00:00	2024-11-08T23:00:00	5	Humedad	56
115885	7	Sololá	713	San Lucas Tolimán	10	San Lucas Tolimán	4	Abril	2023-02-04T00:00:00	2024-11-08T23:00:00	6	Velocidad del viento	3.2
115886	7	Sololá	713	San Lucas Tolimán	10	San Lucas Tolimán	4	Abril	2023-02-04T00:00:00	2024-11-08T23:00:00	7	Dirección del viento	3.22
115887	7	Sololá	713	San Lucas Tolimán	10	San Lucas Tolimán	4	Abril	2023-02-04T00:00:00	2024-11-08T23:00:00	1	Precipitación	0
115888	7	Sololá	713	San Lucas Tolimán	10	San Lucas Tolimán	4	Abril	2023-02-04T00:00:00	2024-11-08T23:00:00	8	Radiación solar	0
115889	7	Sololá	713	San Lucas Tolimán	10	San Lucas Tolimán	4	Abril	2023-03-04T00:00:00	2024-11-08T00:00:00	2	Temperatura media	17.1
115890	7	Sololá	713	San Lucas Tolimán	10	San Lucas Tolimán	4	Abril	2023-03-04T00:00:00	2024-11-08T00:00:00	4	Temperatura máxima	17.9
115891	7	Sololá	713	San Lucas Tolimán	10	San Lucas Tolimán	4	Abril	2023-03-04T00:00:00	2024-11-08T00:00:00	3	Temperatura mínima	17.1
115892	7	Sololá	713	San Lucas Tolimán	10	San Lucas Tolimán	4	Abril	2023-03-04T00:00:00	2024-11-08T00:00:00	5	Humedad	57
115893	7	Sololá	713	San Lucas Tolimán	10	San Lucas Tolimán	4	Abril	2023-03-04T00:00:00	2024-11-08T00:00:00	6	Velocidad del viento	1.6
115894	7	Sololá	713	San Lucas Tolimán	10	San Lucas Tolimán	4	Abril	2023-03-04T00:00:00	2024-11-08T00:00:00	7	Dirección del viento	1.61
115895	7	Sololá	713	San Lucas Tolimán	10	San Lucas Tolimán	4	Abril	2023-03-04T00:00:00	2024-11-08T00:00:00	1	Precipitación	0
115896	7	Sololá	713	San Lucas Tolimán	10	San Lucas Tolimán	4	Abril	2023-03-04T00:00:00	2024-11-08T00:00:00	8	Radiación solar	0
115897	7	Sololá	713	San Lucas Tolimán	10	San Lucas Tolimán	4	Abril	2023-03-04T00:00:00	2024-11-08T01:00:00	2	Temperatura media	16.6
115898	7	Sololá	713	San Lucas Tolimán	10	San Lucas Tolimán	4	Abril	2023-03-04T00:00:00	2024-11-08T01:00:00	4	Temperatura máxima	17.1
115899	7	Sololá	713	San Lucas Tolimán	10	San Lucas Tolimán	4	Abril	2023-03-04T00:00:00	2024-11-08T01:00:00	3	Temperatura mínima	16.6
115900	7	Sololá	713	San Lucas Tolimán	10	San Lucas Tolimán	4	Abril	2023-03-04T00:00:00	2024-11-08T01:00:00	5	Humedad	57
115901	7	Sololá	713	San Lucas Tolimán	10	San Lucas Tolimán	4	Abril	2023-03-04T00:00:00	2024-11-08T01:00:00	6	Velocidad del viento	0
115902	7	Sololá	713	San Lucas Tolimán	10	San Lucas Tolimán	4	Abril	2023-03-04T00:00:00	2024-11-08T01:00:00	7	Dirección del viento	0
115903	7	Sololá	713	San Lucas Tolimán	10	San Lucas Tolimán	4	Abril	2023-03-04T00:00:00	2024-11-08T01:00:00	1	Precipitación	0
115904	7	Sololá	713	San Lucas Tolimán	10	San Lucas Tolimán	4	Abril	2023-03-04T00:00:00	2024-11-08T01:00:00	8	Radiación solar	0
115905	7	Sololá	713	San Lucas Tolimán	10	San Lucas Tolimán	4	Abril	2023-03-04T00:00:00	2024-11-08T02:00:00	2	Temperatura media	16.9
115906	7	Sololá	713	San Lucas Tolimán	10	San Lucas Tolimán	4	Abril	2023-03-04T00:00:00	2024-11-08T02:00:00	4	Temperatura máxima	17.1
115907	7	Sololá	713	San Lucas Tolimán	10	San Lucas Tolimán	4	Abril	2023-03-04T00:00:00	2024-11-08T02:00:00	3	Temperatura mínima	16.6
115908	7	Sololá	713	San Lucas Tolimán	10	San Lucas Tolimán	4	Abril	2023-03-04T00:00:00	2024-11-08T02:00:00	5	Humedad	55
115909	7	Sololá	713	San Lucas Tolimán	10	San Lucas Tolimán	4	Abril	2023-03-04T00:00:00	2024-11-08T02:00:00	6	Velocidad del viento	3.2
115910	7	Sololá	713	San Lucas Tolimán	10	San Lucas Tolimán	4	Abril	2023-03-04T00:00:00	2024-11-08T02:00:00	7	Dirección del viento	3.22
115911	7	Sololá	713	San Lucas Tolimán	10	San Lucas Tolimán	4	Abril	2023-03-04T00:00:00	2024-11-08T02:00:00	1	Precipitación	0
115912	7	Sololá	713	San Lucas Tolimán	10	San Lucas Tolimán	4	Abril	2023-03-04T00:00:00	2024-11-08T02:00:00	8	Radiación solar	0
115913	7	Sololá	713	San Lucas Tolimán	10	San Lucas Tolimán	4	Abril	2023-03-04T00:00:00	2024-11-08T03:00:00	2	Temperatura media	15.9
115914	7	Sololá	713	San Lucas Tolimán	10	San Lucas Tolimán	4	Abril	2023-03-04T00:00:00	2024-11-08T03:00:00	4	Temperatura máxima	16.9
115915	7	Sololá	713	San Lucas Tolimán	10	San Lucas Tolimán	4	Abril	2023-03-04T00:00:00	2024-11-08T03:00:00	3	Temperatura mínima	15.9
115916	7	Sololá	713	San Lucas Tolimán	10	San Lucas Tolimán	4	Abril	2023-03-04T00:00:00	2024-11-08T03:00:00	5	Humedad	58
115917	7	Sololá	713	San Lucas Tolimán	10	San Lucas Tolimán	4	Abril	2023-03-04T00:00:00	2024-11-08T03:00:00	6	Velocidad del viento	1.6
115918	7	Sololá	713	San Lucas Tolimán	10	San Lucas Tolimán	4	Abril	2023-03-04T00:00:00	2024-11-08T03:00:00	7	Dirección del viento	1.61
115919	7	Sololá	713	San Lucas Tolimán	10	San Lucas Tolimán	4	Abril	2023-03-04T00:00:00	2024-11-08T03:00:00	1	Precipitación	0
115920	7	Sololá	713	San Lucas Tolimán	10	San Lucas Tolimán	4	Abril	2023-03-04T00:00:00	2024-11-08T03:00:00	8	Radiación solar	0
115921	7	Sololá	713	San Lucas Tolimán	10	San Lucas Tolimán	4	Abril	2023-03-04T00:00:00	2024-11-08T04:00:00	2	Temperatura media	14.9
115922	7	Sololá	713	San Lucas Tolimán	10	San Lucas Tolimán	4	Abril	2023-03-04T00:00:00	2024-11-08T04:00:00	4	Temperatura máxima	15.9
115923	7	Sololá	713	San Lucas Tolimán	10	San Lucas Tolimán	4	Abril	2023-03-04T00:00:00	2024-11-08T04:00:00	3	Temperatura mínima	14.9
115924	7	Sololá	713	San Lucas Tolimán	10	San Lucas Tolimán	4	Abril	2023-03-04T00:00:00	2024-11-08T04:00:00	5	Humedad	58
115925	7	Sololá	713	San Lucas Tolimán	10	San Lucas Tolimán	4	Abril	2023-03-04T00:00:00	2024-11-08T04:00:00	6	Velocidad del viento	0
115926	7	Sololá	713	San Lucas Tolimán	10	San Lucas Tolimán	4	Abril	2023-03-04T00:00:00	2024-11-08T04:00:00	7	Dirección del viento	0
115927	7	Sololá	713	San Lucas Tolimán	10	San Lucas Tolimán	4	Abril	2023-03-04T00:00:00	2024-11-08T04:00:00	1	Precipitación	0
115928	7	Sololá	713	San Lucas Tolimán	10	San Lucas Tolimán	4	Abril	2023-03-04T00:00:00	2024-11-08T04:00:00	8	Radiación solar	0
115929	7	Sololá	713	San Lucas Tolimán	10	San Lucas Tolimán	4	Abril	2023-03-04T00:00:00	2024-11-08T05:00:00	2	Temperatura media	14.3
115930	7	Sololá	713	San Lucas Tolimán	10	San Lucas Tolimán	4	Abril	2023-03-04T00:00:00	2024-11-08T05:00:00	4	Temperatura máxima	15.1
115931	7	Sololá	713	San Lucas Tolimán	10	San Lucas Tolimán	4	Abril	2023-03-04T00:00:00	2024-11-08T05:00:00	3	Temperatura mínima	14.3
115932	7	Sololá	713	San Lucas Tolimán	10	San Lucas Tolimán	4	Abril	2023-03-04T00:00:00	2024-11-08T05:00:00	5	Humedad	60
115933	7	Sololá	713	San Lucas Tolimán	10	San Lucas Tolimán	4	Abril	2023-03-04T00:00:00	2024-11-08T05:00:00	6	Velocidad del viento	0
115934	7	Sololá	713	San Lucas Tolimán	10	San Lucas Tolimán	4	Abril	2023-03-04T00:00:00	2024-11-08T05:00:00	7	Dirección del viento	0
115935	7	Sololá	713	San Lucas Tolimán	10	San Lucas Tolimán	4	Abril	2023-03-04T00:00:00	2024-11-08T05:00:00	1	Precipitación	0
115936	7	Sololá	713	San Lucas Tolimán	10	San Lucas Tolimán	4	Abril	2023-03-04T00:00:00	2024-11-08T05:00:00	8	Radiación solar	0
115937	7	Sololá	713	San Lucas Tolimán	10	San Lucas Tolimán	4	Abril	2023-03-04T00:00:00	2024-11-08T06:00:00	2	Temperatura media	13.3
115938	7	Sololá	713	San Lucas Tolimán	10	San Lucas Tolimán	4	Abril	2023-03-04T00:00:00	2024-11-08T06:00:00	4	Temperatura máxima	14.3
115939	7	Sololá	713	San Lucas Tolimán	10	San Lucas Tolimán	4	Abril	2023-03-04T00:00:00	2024-11-08T06:00:00	3	Temperatura mínima	13.3
115940	7	Sololá	713	San Lucas Tolimán	10	San Lucas Tolimán	4	Abril	2023-03-04T00:00:00	2024-11-08T06:00:00	5	Humedad	62
115941	7	Sololá	713	San Lucas Tolimán	10	San Lucas Tolimán	4	Abril	2023-03-04T00:00:00	2024-11-08T06:00:00	6	Velocidad del viento	0
115942	7	Sololá	713	San Lucas Tolimán	10	San Lucas Tolimán	4	Abril	2023-03-04T00:00:00	2024-11-08T06:00:00	7	Dirección del viento	0
115943	7	Sololá	713	San Lucas Tolimán	10	San Lucas Tolimán	4	Abril	2023-03-04T00:00:00	2024-11-08T06:00:00	1	Precipitación	0
115944	7	Sololá	713	San Lucas Tolimán	10	San Lucas Tolimán	4	Abril	2023-03-04T00:00:00	2024-11-08T06:00:00	8	Radiación solar	0
115945	7	Sololá	713	San Lucas Tolimán	10	San Lucas Tolimán	4	Abril	2023-03-04T00:00:00	2024-11-08T07:00:00	2	Temperatura media	13.6
115946	7	Sololá	713	San Lucas Tolimán	10	San Lucas Tolimán	4	Abril	2023-03-04T00:00:00	2024-11-08T07:00:00	4	Temperatura máxima	13.6
115947	7	Sololá	713	San Lucas Tolimán	10	San Lucas Tolimán	4	Abril	2023-03-04T00:00:00	2024-11-08T07:00:00	3	Temperatura mínima	13.1
115948	7	Sololá	713	San Lucas Tolimán	10	San Lucas Tolimán	4	Abril	2023-03-04T00:00:00	2024-11-08T07:00:00	5	Humedad	62
115949	7	Sololá	713	San Lucas Tolimán	10	San Lucas Tolimán	4	Abril	2023-03-04T00:00:00	2024-11-08T07:00:00	6	Velocidad del viento	0
115950	7	Sololá	713	San Lucas Tolimán	10	San Lucas Tolimán	4	Abril	2023-03-04T00:00:00	2024-11-08T07:00:00	7	Dirección del viento	0
115951	7	Sololá	713	San Lucas Tolimán	10	San Lucas Tolimán	4	Abril	2023-03-04T00:00:00	2024-11-08T07:00:00	1	Precipitación	0
115952	7	Sololá	713	San Lucas Tolimán	10	San Lucas Tolimán	4	Abril	2023-03-04T00:00:00	2024-11-08T07:00:00	8	Radiación solar	27
115953	7	Sololá	713	San Lucas Tolimán	10	San Lucas Tolimán	4	Abril	2023-03-04T00:00:00	2024-11-08T08:00:00	2	Temperatura media	18.8
115954	7	Sololá	713	San Lucas Tolimán	10	San Lucas Tolimán	4	Abril	2023-03-04T00:00:00	2024-11-08T08:00:00	4	Temperatura máxima	18.9
115955	7	Sololá	713	San Lucas Tolimán	10	San Lucas Tolimán	4	Abril	2023-03-04T00:00:00	2024-11-08T08:00:00	3	Temperatura mínima	13.6
115956	7	Sololá	713	San Lucas Tolimán	10	San Lucas Tolimán	4	Abril	2023-03-04T00:00:00	2024-11-08T08:00:00	5	Humedad	52
115957	7	Sololá	713	San Lucas Tolimán	10	San Lucas Tolimán	4	Abril	2023-03-04T00:00:00	2024-11-08T08:00:00	6	Velocidad del viento	1.6
115958	7	Sololá	713	San Lucas Tolimán	10	San Lucas Tolimán	4	Abril	2023-03-04T00:00:00	2024-11-08T08:00:00	7	Dirección del viento	1.61
115959	7	Sololá	713	San Lucas Tolimán	10	San Lucas Tolimán	4	Abril	2023-03-04T00:00:00	2024-11-08T08:00:00	1	Precipitación	0
115960	7	Sololá	713	San Lucas Tolimán	10	San Lucas Tolimán	4	Abril	2023-03-04T00:00:00	2024-11-08T08:00:00	8	Radiación solar	238
115961	7	Sololá	713	San Lucas Tolimán	10	San Lucas Tolimán	4	Abril	2023-03-04T00:00:00	2024-11-08T09:00:00	2	Temperatura media	21.7
115962	7	Sololá	713	San Lucas Tolimán	10	San Lucas Tolimán	4	Abril	2023-03-04T00:00:00	2024-11-08T09:00:00	4	Temperatura máxima	21.7
115963	7	Sololá	713	San Lucas Tolimán	10	San Lucas Tolimán	4	Abril	2023-03-04T00:00:00	2024-11-08T09:00:00	3	Temperatura mínima	18.8
115964	7	Sololá	713	San Lucas Tolimán	10	San Lucas Tolimán	4	Abril	2023-03-04T00:00:00	2024-11-08T09:00:00	5	Humedad	52
115965	7	Sololá	713	San Lucas Tolimán	10	San Lucas Tolimán	4	Abril	2023-03-04T00:00:00	2024-11-08T09:00:00	6	Velocidad del viento	3.2
115966	7	Sololá	713	San Lucas Tolimán	10	San Lucas Tolimán	4	Abril	2023-03-04T00:00:00	2024-11-08T09:00:00	7	Dirección del viento	3.22
115967	7	Sololá	713	San Lucas Tolimán	10	San Lucas Tolimán	4	Abril	2023-03-04T00:00:00	2024-11-08T09:00:00	1	Precipitación	0
115968	7	Sololá	713	San Lucas Tolimán	10	San Lucas Tolimán	4	Abril	2023-03-04T00:00:00	2024-11-08T09:00:00	8	Radiación solar	453
115969	7	Sololá	713	San Lucas Tolimán	10	San Lucas Tolimán	4	Abril	2023-03-04T00:00:00	2024-11-08T10:00:00	2	Temperatura media	22.3
115970	7	Sololá	713	San Lucas Tolimán	10	San Lucas Tolimán	4	Abril	2023-03-04T00:00:00	2024-11-08T10:00:00	4	Temperatura máxima	22.3
115971	7	Sololá	713	San Lucas Tolimán	10	San Lucas Tolimán	4	Abril	2023-03-04T00:00:00	2024-11-08T10:00:00	3	Temperatura mínima	21.6
115972	7	Sololá	713	San Lucas Tolimán	10	San Lucas Tolimán	4	Abril	2023-03-04T00:00:00	2024-11-08T10:00:00	5	Humedad	52
115973	7	Sololá	713	San Lucas Tolimán	10	San Lucas Tolimán	4	Abril	2023-03-04T00:00:00	2024-11-08T10:00:00	6	Velocidad del viento	4.8
115974	7	Sololá	713	San Lucas Tolimán	10	San Lucas Tolimán	4	Abril	2023-03-04T00:00:00	2024-11-08T10:00:00	7	Dirección del viento	4.83
115975	7	Sololá	713	San Lucas Tolimán	10	San Lucas Tolimán	4	Abril	2023-03-04T00:00:00	2024-11-08T10:00:00	1	Precipitación	0
115976	7	Sololá	713	San Lucas Tolimán	10	San Lucas Tolimán	4	Abril	2023-03-04T00:00:00	2024-11-08T10:00:00	8	Radiación solar	833
115977	7	Sololá	713	San Lucas Tolimán	10	San Lucas Tolimán	4	Abril	2023-03-04T00:00:00	2024-11-08T11:00:00	2	Temperatura media	22.7
115978	7	Sololá	713	San Lucas Tolimán	10	San Lucas Tolimán	4	Abril	2023-03-04T00:00:00	2024-11-08T11:00:00	4	Temperatura máxima	23.4
115979	7	Sololá	713	San Lucas Tolimán	10	San Lucas Tolimán	4	Abril	2023-03-04T00:00:00	2024-11-08T11:00:00	3	Temperatura mínima	22.3
115980	7	Sololá	713	San Lucas Tolimán	10	San Lucas Tolimán	4	Abril	2023-03-04T00:00:00	2024-11-08T11:00:00	5	Humedad	53
115981	7	Sololá	713	San Lucas Tolimán	10	San Lucas Tolimán	4	Abril	2023-03-04T00:00:00	2024-11-08T11:00:00	6	Velocidad del viento	8
115982	7	Sololá	713	San Lucas Tolimán	10	San Lucas Tolimán	4	Abril	2023-03-04T00:00:00	2024-11-08T11:00:00	7	Dirección del viento	8.05
115983	7	Sololá	713	San Lucas Tolimán	10	San Lucas Tolimán	4	Abril	2023-03-04T00:00:00	2024-11-08T11:00:00	1	Precipitación	0
115984	7	Sololá	713	San Lucas Tolimán	10	San Lucas Tolimán	4	Abril	2023-03-04T00:00:00	2024-11-08T11:00:00	8	Radiación solar	992
115985	7	Sololá	713	San Lucas Tolimán	10	San Lucas Tolimán	4	Abril	2023-03-04T00:00:00	2024-11-08T12:00:00	2	Temperatura media	22.4
115986	7	Sololá	713	San Lucas Tolimán	10	San Lucas Tolimán	4	Abril	2023-03-04T00:00:00	2024-11-08T12:00:00	4	Temperatura máxima	23.3
115987	7	Sololá	713	San Lucas Tolimán	10	San Lucas Tolimán	4	Abril	2023-03-04T00:00:00	2024-11-08T12:00:00	3	Temperatura mínima	22.4
115988	7	Sololá	713	San Lucas Tolimán	10	San Lucas Tolimán	4	Abril	2023-03-04T00:00:00	2024-11-08T12:00:00	5	Humedad	52
115989	7	Sololá	713	San Lucas Tolimán	10	San Lucas Tolimán	4	Abril	2023-03-04T00:00:00	2024-11-08T12:00:00	6	Velocidad del viento	11.3
115990	7	Sololá	713	San Lucas Tolimán	10	San Lucas Tolimán	4	Abril	2023-03-04T00:00:00	2024-11-08T12:00:00	7	Dirección del viento	11.27
115991	7	Sololá	713	San Lucas Tolimán	10	San Lucas Tolimán	4	Abril	2023-03-04T00:00:00	2024-11-08T12:00:00	1	Precipitación	0
115992	7	Sololá	713	San Lucas Tolimán	10	San Lucas Tolimán	4	Abril	2023-03-04T00:00:00	2024-11-08T12:00:00	8	Radiación solar	1093
115993	7	Sololá	713	San Lucas Tolimán	10	San Lucas Tolimán	4	Abril	2023-03-04T00:00:00	2024-11-08T13:00:00	2	Temperatura media	22.1
115994	7	Sololá	713	San Lucas Tolimán	10	San Lucas Tolimán	4	Abril	2023-03-04T00:00:00	2024-11-08T13:00:00	4	Temperatura máxima	23.3
115995	7	Sololá	713	San Lucas Tolimán	10	San Lucas Tolimán	4	Abril	2023-03-04T00:00:00	2024-11-08T13:00:00	3	Temperatura mínima	22
115996	7	Sololá	713	San Lucas Tolimán	10	San Lucas Tolimán	4	Abril	2023-03-04T00:00:00	2024-11-08T13:00:00	5	Humedad	54
115997	7	Sololá	713	San Lucas Tolimán	10	San Lucas Tolimán	4	Abril	2023-03-04T00:00:00	2024-11-08T13:00:00	6	Velocidad del viento	12.9
115998	7	Sololá	713	San Lucas Tolimán	10	San Lucas Tolimán	4	Abril	2023-03-04T00:00:00	2024-11-08T13:00:00	7	Dirección del viento	12.87
115999	7	Sololá	713	San Lucas Tolimán	10	San Lucas Tolimán	4	Abril	2023-03-04T00:00:00	2024-11-08T13:00:00	1	Precipitación	0
116000	7	Sololá	713	San Lucas Tolimán	10	San Lucas Tolimán	4	Abril	2023-03-04T00:00:00	2024-11-08T13:00:00	8	Radiación solar	1111
116001	7	Sololá	713	San Lucas Tolimán	10	San Lucas Tolimán	4	Abril	2023-03-04T00:00:00	2024-11-08T14:00:00	2	Temperatura media	22.7
116002	7	Sololá	713	San Lucas Tolimán	10	San Lucas Tolimán	4	Abril	2023-03-04T00:00:00	2024-11-08T14:00:00	4	Temperatura máxima	23
116003	7	Sololá	713	San Lucas Tolimán	10	San Lucas Tolimán	4	Abril	2023-03-04T00:00:00	2024-11-08T14:00:00	3	Temperatura mínima	22.1
116004	7	Sololá	713	San Lucas Tolimán	10	San Lucas Tolimán	4	Abril	2023-03-04T00:00:00	2024-11-08T14:00:00	5	Humedad	53
116005	7	Sololá	713	San Lucas Tolimán	10	San Lucas Tolimán	4	Abril	2023-03-04T00:00:00	2024-11-08T14:00:00	6	Velocidad del viento	11.3
116006	7	Sololá	713	San Lucas Tolimán	10	San Lucas Tolimán	4	Abril	2023-03-04T00:00:00	2024-11-08T14:00:00	7	Dirección del viento	11.27
116007	7	Sololá	713	San Lucas Tolimán	10	San Lucas Tolimán	4	Abril	2023-03-04T00:00:00	2024-11-08T14:00:00	1	Precipitación	0
116008	7	Sololá	713	San Lucas Tolimán	10	San Lucas Tolimán	4	Abril	2023-03-04T00:00:00	2024-11-08T14:00:00	8	Radiación solar	1016
116009	7	Sololá	713	San Lucas Tolimán	10	San Lucas Tolimán	4	Abril	2023-03-04T00:00:00	2024-11-08T15:00:00	2	Temperatura media	22.5
116010	7	Sololá	713	San Lucas Tolimán	10	San Lucas Tolimán	4	Abril	2023-03-04T00:00:00	2024-11-08T15:00:00	4	Temperatura máxima	23.1
116011	7	Sololá	713	San Lucas Tolimán	10	San Lucas Tolimán	4	Abril	2023-03-04T00:00:00	2024-11-08T15:00:00	3	Temperatura mínima	22.2
116012	7	Sololá	713	San Lucas Tolimán	10	San Lucas Tolimán	4	Abril	2023-03-04T00:00:00	2024-11-08T15:00:00	5	Humedad	54
116013	7	Sololá	713	San Lucas Tolimán	10	San Lucas Tolimán	4	Abril	2023-03-04T00:00:00	2024-11-08T15:00:00	6	Velocidad del viento	11.3
116014	7	Sololá	713	San Lucas Tolimán	10	San Lucas Tolimán	4	Abril	2023-03-04T00:00:00	2024-11-08T15:00:00	7	Dirección del viento	11.27
116015	7	Sololá	713	San Lucas Tolimán	10	San Lucas Tolimán	4	Abril	2023-03-04T00:00:00	2024-11-08T15:00:00	1	Precipitación	0
116016	7	Sololá	713	San Lucas Tolimán	10	San Lucas Tolimán	4	Abril	2023-03-04T00:00:00	2024-11-08T15:00:00	8	Radiación solar	819
116017	7	Sololá	713	San Lucas Tolimán	10	San Lucas Tolimán	4	Abril	2023-03-04T00:00:00	2024-11-08T16:00:00	2	Temperatura media	21
116018	7	Sololá	713	San Lucas Tolimán	10	San Lucas Tolimán	4	Abril	2023-03-04T00:00:00	2024-11-08T16:00:00	4	Temperatura máxima	22.4
116019	7	Sololá	713	San Lucas Tolimán	10	San Lucas Tolimán	4	Abril	2023-03-04T00:00:00	2024-11-08T16:00:00	3	Temperatura mínima	21
116020	7	Sololá	713	San Lucas Tolimán	10	San Lucas Tolimán	4	Abril	2023-03-04T00:00:00	2024-11-08T16:00:00	5	Humedad	60
116021	7	Sololá	713	San Lucas Tolimán	10	San Lucas Tolimán	4	Abril	2023-03-04T00:00:00	2024-11-08T16:00:00	6	Velocidad del viento	8
116022	7	Sololá	713	San Lucas Tolimán	10	San Lucas Tolimán	4	Abril	2023-03-04T00:00:00	2024-11-08T16:00:00	7	Dirección del viento	8.05
116023	7	Sololá	713	San Lucas Tolimán	10	San Lucas Tolimán	4	Abril	2023-03-04T00:00:00	2024-11-08T16:00:00	1	Precipitación	0
116024	7	Sololá	713	San Lucas Tolimán	10	San Lucas Tolimán	4	Abril	2023-03-04T00:00:00	2024-11-08T16:00:00	8	Radiación solar	384
116025	7	Sololá	713	San Lucas Tolimán	10	San Lucas Tolimán	4	Abril	2023-03-04T00:00:00	2024-11-08T17:00:00	2	Temperatura media	20.4
116026	7	Sololá	713	San Lucas Tolimán	10	San Lucas Tolimán	4	Abril	2023-03-04T00:00:00	2024-11-08T17:00:00	4	Temperatura máxima	21
116027	7	Sololá	713	San Lucas Tolimán	10	San Lucas Tolimán	4	Abril	2023-03-04T00:00:00	2024-11-08T17:00:00	3	Temperatura mínima	20.4
116028	7	Sololá	713	San Lucas Tolimán	10	San Lucas Tolimán	4	Abril	2023-03-04T00:00:00	2024-11-08T17:00:00	5	Humedad	62
116029	7	Sololá	713	San Lucas Tolimán	10	San Lucas Tolimán	4	Abril	2023-03-04T00:00:00	2024-11-08T17:00:00	6	Velocidad del viento	6.4
116030	7	Sololá	713	San Lucas Tolimán	10	San Lucas Tolimán	4	Abril	2023-03-04T00:00:00	2024-11-08T17:00:00	7	Dirección del viento	6.44
116031	7	Sololá	713	San Lucas Tolimán	10	San Lucas Tolimán	4	Abril	2023-03-04T00:00:00	2024-11-08T17:00:00	1	Precipitación	0
116032	7	Sololá	713	San Lucas Tolimán	10	San Lucas Tolimán	4	Abril	2023-03-04T00:00:00	2024-11-08T17:00:00	8	Radiación solar	184
116033	7	Sololá	713	San Lucas Tolimán	10	San Lucas Tolimán	4	Abril	2023-03-04T00:00:00	2024-11-08T18:00:00	2	Temperatura media	19.3
116034	7	Sololá	713	San Lucas Tolimán	10	San Lucas Tolimán	4	Abril	2023-03-04T00:00:00	2024-11-08T18:00:00	4	Temperatura máxima	20.5
116035	7	Sololá	713	San Lucas Tolimán	10	San Lucas Tolimán	4	Abril	2023-03-04T00:00:00	2024-11-08T18:00:00	3	Temperatura mínima	19.2
116036	7	Sololá	713	San Lucas Tolimán	10	San Lucas Tolimán	4	Abril	2023-03-04T00:00:00	2024-11-08T18:00:00	5	Humedad	62
116037	7	Sololá	713	San Lucas Tolimán	10	San Lucas Tolimán	4	Abril	2023-03-04T00:00:00	2024-11-08T18:00:00	6	Velocidad del viento	6.4
116038	7	Sololá	713	San Lucas Tolimán	10	San Lucas Tolimán	4	Abril	2023-03-04T00:00:00	2024-11-08T18:00:00	7	Dirección del viento	6.44
116039	7	Sololá	713	San Lucas Tolimán	10	San Lucas Tolimán	4	Abril	2023-03-04T00:00:00	2024-11-08T18:00:00	1	Precipitación	0
116040	7	Sololá	713	San Lucas Tolimán	10	San Lucas Tolimán	4	Abril	2023-03-04T00:00:00	2024-11-08T18:00:00	8	Radiación solar	58
116041	7	Sololá	713	San Lucas Tolimán	10	San Lucas Tolimán	4	Abril	2023-03-04T00:00:00	2024-11-08T19:00:00	2	Temperatura media	18.5
116042	7	Sololá	713	San Lucas Tolimán	10	San Lucas Tolimán	4	Abril	2023-03-04T00:00:00	2024-11-08T19:00:00	4	Temperatura máxima	19.2
116043	7	Sololá	713	San Lucas Tolimán	10	San Lucas Tolimán	4	Abril	2023-03-04T00:00:00	2024-11-08T19:00:00	3	Temperatura mínima	18.4
116044	7	Sololá	713	San Lucas Tolimán	10	San Lucas Tolimán	4	Abril	2023-03-04T00:00:00	2024-11-08T19:00:00	5	Humedad	62
116045	7	Sololá	713	San Lucas Tolimán	10	San Lucas Tolimán	4	Abril	2023-03-04T00:00:00	2024-11-08T19:00:00	6	Velocidad del viento	8
116046	7	Sololá	713	San Lucas Tolimán	10	San Lucas Tolimán	4	Abril	2023-03-04T00:00:00	2024-11-08T19:00:00	7	Dirección del viento	8.05
116047	7	Sololá	713	San Lucas Tolimán	10	San Lucas Tolimán	4	Abril	2023-03-04T00:00:00	2024-11-08T19:00:00	1	Precipitación	0
116048	7	Sololá	713	San Lucas Tolimán	10	San Lucas Tolimán	4	Abril	2023-03-04T00:00:00	2024-11-08T19:00:00	8	Radiación solar	0
116049	7	Sololá	713	San Lucas Tolimán	10	San Lucas Tolimán	4	Abril	2023-03-04T00:00:00	2024-11-08T20:00:00	2	Temperatura media	18.3
116050	7	Sololá	713	San Lucas Tolimán	10	San Lucas Tolimán	4	Abril	2023-03-04T00:00:00	2024-11-08T20:00:00	4	Temperatura máxima	18.6
116051	7	Sololá	713	San Lucas Tolimán	10	San Lucas Tolimán	4	Abril	2023-03-04T00:00:00	2024-11-08T20:00:00	3	Temperatura mínima	18.3
116052	7	Sololá	713	San Lucas Tolimán	10	San Lucas Tolimán	4	Abril	2023-03-04T00:00:00	2024-11-08T20:00:00	5	Humedad	62
116053	7	Sololá	713	San Lucas Tolimán	10	San Lucas Tolimán	4	Abril	2023-03-04T00:00:00	2024-11-08T20:00:00	6	Velocidad del viento	4.8
116054	7	Sololá	713	San Lucas Tolimán	10	San Lucas Tolimán	4	Abril	2023-03-04T00:00:00	2024-11-08T20:00:00	7	Dirección del viento	4.83
116055	7	Sololá	713	San Lucas Tolimán	10	San Lucas Tolimán	4	Abril	2023-03-04T00:00:00	2024-11-08T20:00:00	1	Precipitación	0
116056	7	Sololá	713	San Lucas Tolimán	10	San Lucas Tolimán	4	Abril	2023-03-04T00:00:00	2024-11-08T20:00:00	8	Radiación solar	0
116057	7	Sololá	713	San Lucas Tolimán	10	San Lucas Tolimán	4	Abril	2023-03-04T00:00:00	2024-11-08T21:00:00	2	Temperatura media	17.7
116058	7	Sololá	713	San Lucas Tolimán	10	San Lucas Tolimán	4	Abril	2023-03-04T00:00:00	2024-11-08T21:00:00	4	Temperatura máxima	18.3
116059	7	Sololá	713	San Lucas Tolimán	10	San Lucas Tolimán	4	Abril	2023-03-04T00:00:00	2024-11-08T21:00:00	3	Temperatura mínima	17.7
116060	7	Sololá	713	San Lucas Tolimán	10	San Lucas Tolimán	4	Abril	2023-03-04T00:00:00	2024-11-08T21:00:00	5	Humedad	61
116061	7	Sololá	713	San Lucas Tolimán	10	San Lucas Tolimán	4	Abril	2023-03-04T00:00:00	2024-11-08T21:00:00	6	Velocidad del viento	1.6
116062	7	Sololá	713	San Lucas Tolimán	10	San Lucas Tolimán	4	Abril	2023-03-04T00:00:00	2024-11-08T21:00:00	7	Dirección del viento	1.61
116063	7	Sololá	713	San Lucas Tolimán	10	San Lucas Tolimán	4	Abril	2023-03-04T00:00:00	2024-11-08T21:00:00	1	Precipitación	0
116064	7	Sololá	713	San Lucas Tolimán	10	San Lucas Tolimán	4	Abril	2023-03-04T00:00:00	2024-11-08T21:00:00	8	Radiación solar	0
116065	7	Sololá	713	San Lucas Tolimán	10	San Lucas Tolimán	4	Abril	2023-03-04T00:00:00	2024-11-08T22:00:00	2	Temperatura media	16.8
116066	7	Sololá	713	San Lucas Tolimán	10	San Lucas Tolimán	4	Abril	2023-03-04T00:00:00	2024-11-08T22:00:00	4	Temperatura máxima	17.7
116067	7	Sololá	713	San Lucas Tolimán	10	San Lucas Tolimán	4	Abril	2023-03-04T00:00:00	2024-11-08T22:00:00	3	Temperatura mínima	16.8
116068	7	Sololá	713	San Lucas Tolimán	10	San Lucas Tolimán	4	Abril	2023-03-04T00:00:00	2024-11-08T22:00:00	5	Humedad	61
116069	7	Sololá	713	San Lucas Tolimán	10	San Lucas Tolimán	4	Abril	2023-03-04T00:00:00	2024-11-08T22:00:00	6	Velocidad del viento	0
116070	7	Sololá	713	San Lucas Tolimán	10	San Lucas Tolimán	4	Abril	2023-03-04T00:00:00	2024-11-08T22:00:00	7	Dirección del viento	0
116071	7	Sololá	713	San Lucas Tolimán	10	San Lucas Tolimán	4	Abril	2023-03-04T00:00:00	2024-11-08T22:00:00	1	Precipitación	0
116072	7	Sololá	713	San Lucas Tolimán	10	San Lucas Tolimán	4	Abril	2023-03-04T00:00:00	2024-11-08T22:00:00	8	Radiación solar	0
116073	7	Sololá	713	San Lucas Tolimán	10	San Lucas Tolimán	4	Abril	2023-03-04T00:00:00	2024-11-08T23:00:00	2	Temperatura media	16
116074	7	Sololá	713	San Lucas Tolimán	10	San Lucas Tolimán	4	Abril	2023-03-04T00:00:00	2024-11-08T23:00:00	4	Temperatura máxima	16.8
116075	7	Sololá	713	San Lucas Tolimán	10	San Lucas Tolimán	4	Abril	2023-03-04T00:00:00	2024-11-08T23:00:00	3	Temperatura mínima	15.9
116076	7	Sololá	713	San Lucas Tolimán	10	San Lucas Tolimán	4	Abril	2023-03-04T00:00:00	2024-11-08T23:00:00	5	Humedad	66
116077	7	Sololá	713	San Lucas Tolimán	10	San Lucas Tolimán	4	Abril	2023-03-04T00:00:00	2024-11-08T23:00:00	6	Velocidad del viento	4.8
116078	7	Sololá	713	San Lucas Tolimán	10	San Lucas Tolimán	4	Abril	2023-03-04T00:00:00	2024-11-08T23:00:00	7	Dirección del viento	4.83
116079	7	Sololá	713	San Lucas Tolimán	10	San Lucas Tolimán	4	Abril	2023-03-04T00:00:00	2024-11-08T23:00:00	1	Precipitación	0
116080	7	Sololá	713	San Lucas Tolimán	10	San Lucas Tolimán	4	Abril	2023-03-04T00:00:00	2024-11-08T23:00:00	8	Radiación solar	0
116081	7	Sololá	713	San Lucas Tolimán	10	San Lucas Tolimán	4	Abril	2023-04-04T00:00:00	2024-11-08T00:00:00	2	Temperatura media	15.8
116082	7	Sololá	713	San Lucas Tolimán	10	San Lucas Tolimán	4	Abril	2023-04-04T00:00:00	2024-11-08T00:00:00	4	Temperatura máxima	16.1
116083	7	Sololá	713	San Lucas Tolimán	10	San Lucas Tolimán	4	Abril	2023-04-04T00:00:00	2024-11-08T00:00:00	3	Temperatura mínima	15.8
116084	7	Sololá	713	San Lucas Tolimán	10	San Lucas Tolimán	4	Abril	2023-04-04T00:00:00	2024-11-08T00:00:00	5	Humedad	64
116085	7	Sololá	713	San Lucas Tolimán	10	San Lucas Tolimán	4	Abril	2023-04-04T00:00:00	2024-11-08T00:00:00	6	Velocidad del viento	1.6
116086	7	Sololá	713	San Lucas Tolimán	10	San Lucas Tolimán	4	Abril	2023-04-04T00:00:00	2024-11-08T00:00:00	7	Dirección del viento	1.61
116087	7	Sololá	713	San Lucas Tolimán	10	San Lucas Tolimán	4	Abril	2023-04-04T00:00:00	2024-11-08T00:00:00	1	Precipitación	0
116088	7	Sololá	713	San Lucas Tolimán	10	San Lucas Tolimán	4	Abril	2023-04-04T00:00:00	2024-11-08T00:00:00	8	Radiación solar	0
116089	7	Sololá	713	San Lucas Tolimán	10	San Lucas Tolimán	4	Abril	2023-04-04T00:00:00	2024-11-08T01:00:00	2	Temperatura media	16.3
116090	7	Sololá	713	San Lucas Tolimán	10	San Lucas Tolimán	4	Abril	2023-04-04T00:00:00	2024-11-08T01:00:00	4	Temperatura máxima	16.4
116091	7	Sololá	713	San Lucas Tolimán	10	San Lucas Tolimán	4	Abril	2023-04-04T00:00:00	2024-11-08T01:00:00	3	Temperatura mínima	15.8
116092	7	Sololá	713	San Lucas Tolimán	10	San Lucas Tolimán	4	Abril	2023-04-04T00:00:00	2024-11-08T01:00:00	5	Humedad	58
116093	7	Sololá	713	San Lucas Tolimán	10	San Lucas Tolimán	4	Abril	2023-04-04T00:00:00	2024-11-08T01:00:00	6	Velocidad del viento	1.6
116094	7	Sololá	713	San Lucas Tolimán	10	San Lucas Tolimán	4	Abril	2023-04-04T00:00:00	2024-11-08T01:00:00	7	Dirección del viento	1.61
116095	7	Sololá	713	San Lucas Tolimán	10	San Lucas Tolimán	4	Abril	2023-04-04T00:00:00	2024-11-08T01:00:00	1	Precipitación	0
116096	7	Sololá	713	San Lucas Tolimán	10	San Lucas Tolimán	4	Abril	2023-04-04T00:00:00	2024-11-08T01:00:00	8	Radiación solar	0
116097	7	Sololá	713	San Lucas Tolimán	10	San Lucas Tolimán	4	Abril	2023-04-04T00:00:00	2024-11-08T02:00:00	2	Temperatura media	16.2
116098	7	Sololá	713	San Lucas Tolimán	10	San Lucas Tolimán	4	Abril	2023-04-04T00:00:00	2024-11-08T02:00:00	4	Temperatura máxima	16.4
116099	7	Sololá	713	San Lucas Tolimán	10	San Lucas Tolimán	4	Abril	2023-04-04T00:00:00	2024-11-08T02:00:00	3	Temperatura mínima	16.1
116100	7	Sololá	713	San Lucas Tolimán	10	San Lucas Tolimán	4	Abril	2023-04-04T00:00:00	2024-11-08T02:00:00	5	Humedad	57
116101	7	Sololá	713	San Lucas Tolimán	10	San Lucas Tolimán	4	Abril	2023-04-04T00:00:00	2024-11-08T02:00:00	6	Velocidad del viento	3.2
116102	7	Sololá	713	San Lucas Tolimán	10	San Lucas Tolimán	4	Abril	2023-04-04T00:00:00	2024-11-08T02:00:00	7	Dirección del viento	3.22
116103	7	Sololá	713	San Lucas Tolimán	10	San Lucas Tolimán	4	Abril	2023-04-04T00:00:00	2024-11-08T02:00:00	1	Precipitación	0
116104	7	Sololá	713	San Lucas Tolimán	10	San Lucas Tolimán	4	Abril	2023-04-04T00:00:00	2024-11-08T02:00:00	8	Radiación solar	0
116105	7	Sololá	713	San Lucas Tolimán	10	San Lucas Tolimán	4	Abril	2023-04-04T00:00:00	2024-11-08T03:00:00	2	Temperatura media	15.7
116106	7	Sololá	713	San Lucas Tolimán	10	San Lucas Tolimán	4	Abril	2023-04-04T00:00:00	2024-11-08T03:00:00	4	Temperatura máxima	16.2
116107	7	Sololá	713	San Lucas Tolimán	10	San Lucas Tolimán	4	Abril	2023-04-04T00:00:00	2024-11-08T03:00:00	3	Temperatura mínima	15.5
116108	7	Sololá	713	San Lucas Tolimán	10	San Lucas Tolimán	4	Abril	2023-04-04T00:00:00	2024-11-08T03:00:00	5	Humedad	58
116109	7	Sololá	713	San Lucas Tolimán	10	San Lucas Tolimán	4	Abril	2023-04-04T00:00:00	2024-11-08T03:00:00	6	Velocidad del viento	1.6
116110	7	Sololá	713	San Lucas Tolimán	10	San Lucas Tolimán	4	Abril	2023-04-04T00:00:00	2024-11-08T03:00:00	7	Dirección del viento	1.61
116111	7	Sololá	713	San Lucas Tolimán	10	San Lucas Tolimán	4	Abril	2023-04-04T00:00:00	2024-11-08T03:00:00	1	Precipitación	0
116112	7	Sololá	713	San Lucas Tolimán	10	San Lucas Tolimán	4	Abril	2023-04-04T00:00:00	2024-11-08T03:00:00	8	Radiación solar	0
116113	7	Sololá	713	San Lucas Tolimán	10	San Lucas Tolimán	4	Abril	2023-04-04T00:00:00	2024-11-08T04:00:00	2	Temperatura media	15
116114	7	Sololá	713	San Lucas Tolimán	10	San Lucas Tolimán	4	Abril	2023-04-04T00:00:00	2024-11-08T04:00:00	4	Temperatura máxima	15.7
116115	7	Sololá	713	San Lucas Tolimán	10	San Lucas Tolimán	4	Abril	2023-04-04T00:00:00	2024-11-08T04:00:00	3	Temperatura mínima	15
116116	7	Sololá	713	San Lucas Tolimán	10	San Lucas Tolimán	4	Abril	2023-04-04T00:00:00	2024-11-08T04:00:00	5	Humedad	59
116117	7	Sololá	713	San Lucas Tolimán	10	San Lucas Tolimán	4	Abril	2023-04-04T00:00:00	2024-11-08T04:00:00	6	Velocidad del viento	0
116118	7	Sololá	713	San Lucas Tolimán	10	San Lucas Tolimán	4	Abril	2023-04-04T00:00:00	2024-11-08T04:00:00	7	Dirección del viento	0
116119	7	Sololá	713	San Lucas Tolimán	10	San Lucas Tolimán	4	Abril	2023-04-04T00:00:00	2024-11-08T04:00:00	1	Precipitación	0
116120	7	Sololá	713	San Lucas Tolimán	10	San Lucas Tolimán	4	Abril	2023-04-04T00:00:00	2024-11-08T04:00:00	8	Radiación solar	0
116121	7	Sololá	713	San Lucas Tolimán	10	San Lucas Tolimán	4	Abril	2023-04-04T00:00:00	2024-11-08T05:00:00	2	Temperatura media	14.8
116122	7	Sololá	713	San Lucas Tolimán	10	San Lucas Tolimán	4	Abril	2023-04-04T00:00:00	2024-11-08T05:00:00	4	Temperatura máxima	15.1
116123	7	Sololá	713	San Lucas Tolimán	10	San Lucas Tolimán	4	Abril	2023-04-04T00:00:00	2024-11-08T05:00:00	3	Temperatura mínima	14.8
116124	7	Sololá	713	San Lucas Tolimán	10	San Lucas Tolimán	4	Abril	2023-04-04T00:00:00	2024-11-08T05:00:00	5	Humedad	59
116125	7	Sololá	713	San Lucas Tolimán	10	San Lucas Tolimán	4	Abril	2023-04-04T00:00:00	2024-11-08T05:00:00	6	Velocidad del viento	0
116126	7	Sololá	713	San Lucas Tolimán	10	San Lucas Tolimán	4	Abril	2023-04-04T00:00:00	2024-11-08T05:00:00	7	Dirección del viento	0
116127	7	Sololá	713	San Lucas Tolimán	10	San Lucas Tolimán	4	Abril	2023-04-04T00:00:00	2024-11-08T05:00:00	1	Precipitación	0
116128	7	Sololá	713	San Lucas Tolimán	10	San Lucas Tolimán	4	Abril	2023-04-04T00:00:00	2024-11-08T05:00:00	8	Radiación solar	0
116129	7	Sololá	713	San Lucas Tolimán	10	San Lucas Tolimán	4	Abril	2023-04-04T00:00:00	2024-11-08T06:00:00	2	Temperatura media	13.9
116130	7	Sololá	713	San Lucas Tolimán	10	San Lucas Tolimán	4	Abril	2023-04-04T00:00:00	2024-11-08T06:00:00	4	Temperatura máxima	14.8
116131	7	Sololá	713	San Lucas Tolimán	10	San Lucas Tolimán	4	Abril	2023-04-04T00:00:00	2024-11-08T06:00:00	3	Temperatura mínima	13.8
116132	7	Sololá	713	San Lucas Tolimán	10	San Lucas Tolimán	4	Abril	2023-04-04T00:00:00	2024-11-08T06:00:00	5	Humedad	61
116133	7	Sololá	713	San Lucas Tolimán	10	San Lucas Tolimán	4	Abril	2023-04-04T00:00:00	2024-11-08T06:00:00	6	Velocidad del viento	0
116134	7	Sololá	713	San Lucas Tolimán	10	San Lucas Tolimán	4	Abril	2023-04-04T00:00:00	2024-11-08T06:00:00	7	Dirección del viento	0
116135	7	Sololá	713	San Lucas Tolimán	10	San Lucas Tolimán	4	Abril	2023-04-04T00:00:00	2024-11-08T06:00:00	1	Precipitación	0
116136	7	Sololá	713	San Lucas Tolimán	10	San Lucas Tolimán	4	Abril	2023-04-04T00:00:00	2024-11-08T06:00:00	8	Radiación solar	0
116137	7	Sololá	713	San Lucas Tolimán	10	San Lucas Tolimán	4	Abril	2023-04-04T00:00:00	2024-11-08T07:00:00	2	Temperatura media	14.3
116138	7	Sololá	713	San Lucas Tolimán	10	San Lucas Tolimán	4	Abril	2023-04-04T00:00:00	2024-11-08T07:00:00	4	Temperatura máxima	14.3
116139	7	Sololá	713	San Lucas Tolimán	10	San Lucas Tolimán	4	Abril	2023-04-04T00:00:00	2024-11-08T07:00:00	3	Temperatura mínima	13.6
116140	7	Sololá	713	San Lucas Tolimán	10	San Lucas Tolimán	4	Abril	2023-04-04T00:00:00	2024-11-08T07:00:00	5	Humedad	61
116141	7	Sololá	713	San Lucas Tolimán	10	San Lucas Tolimán	4	Abril	2023-04-04T00:00:00	2024-11-08T07:00:00	6	Velocidad del viento	0
116142	7	Sololá	713	San Lucas Tolimán	10	San Lucas Tolimán	4	Abril	2023-04-04T00:00:00	2024-11-08T07:00:00	7	Dirección del viento	0
116143	7	Sololá	713	San Lucas Tolimán	10	San Lucas Tolimán	4	Abril	2023-04-04T00:00:00	2024-11-08T07:00:00	1	Precipitación	0
116144	7	Sololá	713	San Lucas Tolimán	10	San Lucas Tolimán	4	Abril	2023-04-04T00:00:00	2024-11-08T07:00:00	8	Radiación solar	46
116145	7	Sololá	713	San Lucas Tolimán	10	San Lucas Tolimán	4	Abril	2023-04-04T00:00:00	2024-11-08T08:00:00	2	Temperatura media	17.1
116146	7	Sololá	713	San Lucas Tolimán	10	San Lucas Tolimán	4	Abril	2023-04-04T00:00:00	2024-11-08T08:00:00	4	Temperatura máxima	17.3
116147	7	Sololá	713	San Lucas Tolimán	10	San Lucas Tolimán	4	Abril	2023-04-04T00:00:00	2024-11-08T08:00:00	3	Temperatura mínima	14.3
116148	7	Sololá	713	San Lucas Tolimán	10	San Lucas Tolimán	4	Abril	2023-04-04T00:00:00	2024-11-08T08:00:00	5	Humedad	59
116149	7	Sololá	713	San Lucas Tolimán	10	San Lucas Tolimán	4	Abril	2023-04-04T00:00:00	2024-11-08T08:00:00	6	Velocidad del viento	0
116150	7	Sololá	713	San Lucas Tolimán	10	San Lucas Tolimán	4	Abril	2023-04-04T00:00:00	2024-11-08T08:00:00	7	Dirección del viento	0
116151	7	Sololá	713	San Lucas Tolimán	10	San Lucas Tolimán	4	Abril	2023-04-04T00:00:00	2024-11-08T08:00:00	1	Precipitación	0
116152	7	Sololá	713	San Lucas Tolimán	10	San Lucas Tolimán	4	Abril	2023-04-04T00:00:00	2024-11-08T08:00:00	8	Radiación solar	153
116153	7	Sololá	713	San Lucas Tolimán	10	San Lucas Tolimán	4	Abril	2023-04-04T00:00:00	2024-11-08T09:00:00	2	Temperatura media	18.7
116154	7	Sololá	713	San Lucas Tolimán	10	San Lucas Tolimán	4	Abril	2023-04-04T00:00:00	2024-11-08T09:00:00	4	Temperatura máxima	18.7
116155	7	Sololá	713	San Lucas Tolimán	10	San Lucas Tolimán	4	Abril	2023-04-04T00:00:00	2024-11-08T09:00:00	3	Temperatura mínima	17.1
116156	7	Sololá	713	San Lucas Tolimán	10	San Lucas Tolimán	4	Abril	2023-04-04T00:00:00	2024-11-08T09:00:00	5	Humedad	56
116157	7	Sololá	713	San Lucas Tolimán	10	San Lucas Tolimán	4	Abril	2023-04-04T00:00:00	2024-11-08T09:00:00	6	Velocidad del viento	3.2
116158	7	Sololá	713	San Lucas Tolimán	10	San Lucas Tolimán	4	Abril	2023-04-04T00:00:00	2024-11-08T09:00:00	7	Dirección del viento	3.22
116159	7	Sololá	713	San Lucas Tolimán	10	San Lucas Tolimán	4	Abril	2023-04-04T00:00:00	2024-11-08T09:00:00	1	Precipitación	0
116160	7	Sololá	713	San Lucas Tolimán	10	San Lucas Tolimán	4	Abril	2023-04-04T00:00:00	2024-11-08T09:00:00	8	Radiación solar	301
116161	7	Sololá	713	San Lucas Tolimán	10	San Lucas Tolimán	4	Abril	2023-04-04T00:00:00	2024-11-08T10:00:00	2	Temperatura media	22.1
116162	7	Sololá	713	San Lucas Tolimán	10	San Lucas Tolimán	4	Abril	2023-04-04T00:00:00	2024-11-08T10:00:00	4	Temperatura máxima	22.3
116163	7	Sololá	713	San Lucas Tolimán	10	San Lucas Tolimán	4	Abril	2023-04-04T00:00:00	2024-11-08T10:00:00	3	Temperatura mínima	18.7
116164	7	Sololá	713	San Lucas Tolimán	10	San Lucas Tolimán	4	Abril	2023-04-04T00:00:00	2024-11-08T10:00:00	5	Humedad	49
116165	7	Sololá	713	San Lucas Tolimán	10	San Lucas Tolimán	4	Abril	2023-04-04T00:00:00	2024-11-08T10:00:00	6	Velocidad del viento	3.2
116166	7	Sololá	713	San Lucas Tolimán	10	San Lucas Tolimán	4	Abril	2023-04-04T00:00:00	2024-11-08T10:00:00	7	Dirección del viento	3.22
116167	7	Sololá	713	San Lucas Tolimán	10	San Lucas Tolimán	4	Abril	2023-04-04T00:00:00	2024-11-08T10:00:00	1	Precipitación	0
116168	7	Sololá	713	San Lucas Tolimán	10	San Lucas Tolimán	4	Abril	2023-04-04T00:00:00	2024-11-08T10:00:00	8	Radiación solar	519
116169	7	Sololá	713	San Lucas Tolimán	10	San Lucas Tolimán	4	Abril	2023-04-04T00:00:00	2024-11-08T11:00:00	2	Temperatura media	22.8
116170	7	Sololá	713	San Lucas Tolimán	10	San Lucas Tolimán	4	Abril	2023-04-04T00:00:00	2024-11-08T11:00:00	4	Temperatura máxima	23.3
116171	7	Sololá	713	San Lucas Tolimán	10	San Lucas Tolimán	4	Abril	2023-04-04T00:00:00	2024-11-08T11:00:00	3	Temperatura mínima	20.8
116172	7	Sololá	713	San Lucas Tolimán	10	San Lucas Tolimán	4	Abril	2023-04-04T00:00:00	2024-11-08T11:00:00	5	Humedad	52
116173	7	Sololá	713	San Lucas Tolimán	10	San Lucas Tolimán	4	Abril	2023-04-04T00:00:00	2024-11-08T11:00:00	6	Velocidad del viento	6.4
116174	7	Sololá	713	San Lucas Tolimán	10	San Lucas Tolimán	4	Abril	2023-04-04T00:00:00	2024-11-08T11:00:00	7	Dirección del viento	6.44
116175	7	Sololá	713	San Lucas Tolimán	10	San Lucas Tolimán	4	Abril	2023-04-04T00:00:00	2024-11-08T11:00:00	1	Precipitación	0
116176	7	Sololá	713	San Lucas Tolimán	10	San Lucas Tolimán	4	Abril	2023-04-04T00:00:00	2024-11-08T11:00:00	8	Radiación solar	978
116177	7	Sololá	713	San Lucas Tolimán	10	San Lucas Tolimán	4	Abril	2023-04-04T00:00:00	2024-11-08T12:00:00	2	Temperatura media	23.2
116178	7	Sololá	713	San Lucas Tolimán	10	San Lucas Tolimán	4	Abril	2023-04-04T00:00:00	2024-11-08T12:00:00	4	Temperatura máxima	23.3
116179	7	Sololá	713	San Lucas Tolimán	10	San Lucas Tolimán	4	Abril	2023-04-04T00:00:00	2024-11-08T12:00:00	3	Temperatura mínima	22.4
116180	7	Sololá	713	San Lucas Tolimán	10	San Lucas Tolimán	4	Abril	2023-04-04T00:00:00	2024-11-08T12:00:00	5	Humedad	52
116181	7	Sololá	713	San Lucas Tolimán	10	San Lucas Tolimán	4	Abril	2023-04-04T00:00:00	2024-11-08T12:00:00	6	Velocidad del viento	8
116182	7	Sololá	713	San Lucas Tolimán	10	San Lucas Tolimán	4	Abril	2023-04-04T00:00:00	2024-11-08T12:00:00	7	Dirección del viento	8.05
116183	7	Sololá	713	San Lucas Tolimán	10	San Lucas Tolimán	4	Abril	2023-04-04T00:00:00	2024-11-08T12:00:00	1	Precipitación	0
116184	7	Sololá	713	San Lucas Tolimán	10	San Lucas Tolimán	4	Abril	2023-04-04T00:00:00	2024-11-08T12:00:00	8	Radiación solar	1103
116185	7	Sololá	713	San Lucas Tolimán	10	San Lucas Tolimán	4	Abril	2023-04-04T00:00:00	2024-11-08T13:00:00	2	Temperatura media	23.3
116186	7	Sololá	713	San Lucas Tolimán	10	San Lucas Tolimán	4	Abril	2023-04-04T00:00:00	2024-11-08T13:00:00	4	Temperatura máxima	23.8
116187	7	Sololá	713	San Lucas Tolimán	10	San Lucas Tolimán	4	Abril	2023-04-04T00:00:00	2024-11-08T13:00:00	3	Temperatura mínima	22.8
116188	7	Sololá	713	San Lucas Tolimán	10	San Lucas Tolimán	4	Abril	2023-04-04T00:00:00	2024-11-08T13:00:00	5	Humedad	51
116189	7	Sololá	713	San Lucas Tolimán	10	San Lucas Tolimán	4	Abril	2023-04-04T00:00:00	2024-11-08T13:00:00	6	Velocidad del viento	11.3
116190	7	Sololá	713	San Lucas Tolimán	10	San Lucas Tolimán	4	Abril	2023-04-04T00:00:00	2024-11-08T13:00:00	7	Dirección del viento	11.27
116191	7	Sololá	713	San Lucas Tolimán	10	San Lucas Tolimán	4	Abril	2023-04-04T00:00:00	2024-11-08T13:00:00	1	Precipitación	0
116192	7	Sololá	713	San Lucas Tolimán	10	San Lucas Tolimán	4	Abril	2023-04-04T00:00:00	2024-11-08T13:00:00	8	Radiación solar	1117
116193	7	Sololá	713	San Lucas Tolimán	10	San Lucas Tolimán	4	Abril	2023-04-04T00:00:00	2024-11-08T14:00:00	2	Temperatura media	23.6
116194	7	Sololá	713	San Lucas Tolimán	10	San Lucas Tolimán	4	Abril	2023-04-04T00:00:00	2024-11-08T14:00:00	4	Temperatura máxima	23.8
116195	7	Sololá	713	San Lucas Tolimán	10	San Lucas Tolimán	4	Abril	2023-04-04T00:00:00	2024-11-08T14:00:00	3	Temperatura mínima	22.8
116196	7	Sololá	713	San Lucas Tolimán	10	San Lucas Tolimán	4	Abril	2023-04-04T00:00:00	2024-11-08T14:00:00	5	Humedad	52
116197	7	Sololá	713	San Lucas Tolimán	10	San Lucas Tolimán	4	Abril	2023-04-04T00:00:00	2024-11-08T14:00:00	6	Velocidad del viento	9.7
116198	7	Sololá	713	San Lucas Tolimán	10	San Lucas Tolimán	4	Abril	2023-04-04T00:00:00	2024-11-08T14:00:00	7	Dirección del viento	9.66
116199	7	Sololá	713	San Lucas Tolimán	10	San Lucas Tolimán	4	Abril	2023-04-04T00:00:00	2024-11-08T14:00:00	1	Precipitación	0
116200	7	Sololá	713	San Lucas Tolimán	10	San Lucas Tolimán	4	Abril	2023-04-04T00:00:00	2024-11-08T14:00:00	8	Radiación solar	1042
116201	7	Sololá	713	San Lucas Tolimán	10	San Lucas Tolimán	4	Abril	2023-04-04T00:00:00	2024-11-08T15:00:00	2	Temperatura media	21.8
116202	7	Sololá	713	San Lucas Tolimán	10	San Lucas Tolimán	4	Abril	2023-04-04T00:00:00	2024-11-08T15:00:00	4	Temperatura máxima	23.6
116203	7	Sololá	713	San Lucas Tolimán	10	San Lucas Tolimán	4	Abril	2023-04-04T00:00:00	2024-11-08T15:00:00	3	Temperatura mínima	21.7
116204	7	Sololá	713	San Lucas Tolimán	10	San Lucas Tolimán	4	Abril	2023-04-04T00:00:00	2024-11-08T15:00:00	5	Humedad	58
116205	7	Sololá	713	San Lucas Tolimán	10	San Lucas Tolimán	4	Abril	2023-04-04T00:00:00	2024-11-08T15:00:00	6	Velocidad del viento	9.7
116206	7	Sololá	713	San Lucas Tolimán	10	San Lucas Tolimán	4	Abril	2023-04-04T00:00:00	2024-11-08T15:00:00	7	Dirección del viento	9.66
116207	7	Sololá	713	San Lucas Tolimán	10	San Lucas Tolimán	4	Abril	2023-04-04T00:00:00	2024-11-08T15:00:00	1	Precipitación	0
116208	7	Sololá	713	San Lucas Tolimán	10	San Lucas Tolimán	4	Abril	2023-04-04T00:00:00	2024-11-08T15:00:00	8	Radiación solar	499
116209	7	Sololá	713	San Lucas Tolimán	10	San Lucas Tolimán	4	Abril	2023-04-04T00:00:00	2024-11-08T16:00:00	2	Temperatura media	21.4
116210	7	Sololá	713	San Lucas Tolimán	10	San Lucas Tolimán	4	Abril	2023-04-04T00:00:00	2024-11-08T16:00:00	4	Temperatura máxima	21.7
116211	7	Sololá	713	San Lucas Tolimán	10	San Lucas Tolimán	4	Abril	2023-04-04T00:00:00	2024-11-08T16:00:00	3	Temperatura mínima	21.2
116212	7	Sololá	713	San Lucas Tolimán	10	San Lucas Tolimán	4	Abril	2023-04-04T00:00:00	2024-11-08T16:00:00	5	Humedad	59
116213	7	Sololá	713	San Lucas Tolimán	10	San Lucas Tolimán	4	Abril	2023-04-04T00:00:00	2024-11-08T16:00:00	6	Velocidad del viento	11.3
116214	7	Sololá	713	San Lucas Tolimán	10	San Lucas Tolimán	4	Abril	2023-04-04T00:00:00	2024-11-08T16:00:00	7	Dirección del viento	11.27
116215	7	Sololá	713	San Lucas Tolimán	10	San Lucas Tolimán	4	Abril	2023-04-04T00:00:00	2024-11-08T16:00:00	1	Precipitación	0
116216	7	Sololá	713	San Lucas Tolimán	10	San Lucas Tolimán	4	Abril	2023-04-04T00:00:00	2024-11-08T16:00:00	8	Radiación solar	305
116217	7	Sololá	713	San Lucas Tolimán	10	San Lucas Tolimán	4	Abril	2023-04-04T00:00:00	2024-11-08T17:00:00	2	Temperatura media	21
116218	7	Sololá	713	San Lucas Tolimán	10	San Lucas Tolimán	4	Abril	2023-04-04T00:00:00	2024-11-08T17:00:00	4	Temperatura máxima	21.5
116219	7	Sololá	713	San Lucas Tolimán	10	San Lucas Tolimán	4	Abril	2023-04-04T00:00:00	2024-11-08T17:00:00	3	Temperatura mínima	21
116220	7	Sololá	713	San Lucas Tolimán	10	San Lucas Tolimán	4	Abril	2023-04-04T00:00:00	2024-11-08T17:00:00	5	Humedad	59
116221	7	Sololá	713	San Lucas Tolimán	10	San Lucas Tolimán	4	Abril	2023-04-04T00:00:00	2024-11-08T17:00:00	6	Velocidad del viento	8
116222	7	Sololá	713	San Lucas Tolimán	10	San Lucas Tolimán	4	Abril	2023-04-04T00:00:00	2024-11-08T17:00:00	7	Dirección del viento	8.05
116223	7	Sololá	713	San Lucas Tolimán	10	San Lucas Tolimán	4	Abril	2023-04-04T00:00:00	2024-11-08T17:00:00	1	Precipitación	0
116224	7	Sololá	713	San Lucas Tolimán	10	San Lucas Tolimán	4	Abril	2023-04-04T00:00:00	2024-11-08T17:00:00	8	Radiación solar	201
116225	7	Sololá	713	San Lucas Tolimán	10	San Lucas Tolimán	4	Abril	2023-04-04T00:00:00	2024-11-08T18:00:00	2	Temperatura media	19.8
116226	7	Sololá	713	San Lucas Tolimán	10	San Lucas Tolimán	4	Abril	2023-04-04T00:00:00	2024-11-08T18:00:00	4	Temperatura máxima	21
116227	7	Sololá	713	San Lucas Tolimán	10	San Lucas Tolimán	4	Abril	2023-04-04T00:00:00	2024-11-08T18:00:00	3	Temperatura mínima	19.8
116228	7	Sololá	713	San Lucas Tolimán	10	San Lucas Tolimán	4	Abril	2023-04-04T00:00:00	2024-11-08T18:00:00	5	Humedad	63
116229	7	Sololá	713	San Lucas Tolimán	10	San Lucas Tolimán	4	Abril	2023-04-04T00:00:00	2024-11-08T18:00:00	6	Velocidad del viento	8
116230	7	Sololá	713	San Lucas Tolimán	10	San Lucas Tolimán	4	Abril	2023-04-04T00:00:00	2024-11-08T18:00:00	7	Dirección del viento	8.05
116231	7	Sololá	713	San Lucas Tolimán	10	San Lucas Tolimán	4	Abril	2023-04-04T00:00:00	2024-11-08T18:00:00	1	Precipitación	0
116232	7	Sololá	713	San Lucas Tolimán	10	San Lucas Tolimán	4	Abril	2023-04-04T00:00:00	2024-11-08T18:00:00	8	Radiación solar	66
116233	7	Sololá	713	San Lucas Tolimán	10	San Lucas Tolimán	4	Abril	2023-04-04T00:00:00	2024-11-08T19:00:00	2	Temperatura media	18.9
116234	7	Sololá	713	San Lucas Tolimán	10	San Lucas Tolimán	4	Abril	2023-04-04T00:00:00	2024-11-08T19:00:00	4	Temperatura máxima	19.8
116235	7	Sololá	713	San Lucas Tolimán	10	San Lucas Tolimán	4	Abril	2023-04-04T00:00:00	2024-11-08T19:00:00	3	Temperatura mínima	18.9
116236	7	Sololá	713	San Lucas Tolimán	10	San Lucas Tolimán	4	Abril	2023-04-04T00:00:00	2024-11-08T19:00:00	5	Humedad	62
116237	7	Sololá	713	San Lucas Tolimán	10	San Lucas Tolimán	4	Abril	2023-04-04T00:00:00	2024-11-08T19:00:00	6	Velocidad del viento	4.8
116238	7	Sololá	713	San Lucas Tolimán	10	San Lucas Tolimán	4	Abril	2023-04-04T00:00:00	2024-11-08T19:00:00	7	Dirección del viento	4.83
116239	7	Sololá	713	San Lucas Tolimán	10	San Lucas Tolimán	4	Abril	2023-04-04T00:00:00	2024-11-08T19:00:00	1	Precipitación	0
116240	7	Sololá	713	San Lucas Tolimán	10	San Lucas Tolimán	4	Abril	2023-04-04T00:00:00	2024-11-08T19:00:00	8	Radiación solar	0
116241	7	Sololá	713	San Lucas Tolimán	10	San Lucas Tolimán	4	Abril	2023-04-04T00:00:00	2024-11-08T20:00:00	2	Temperatura media	18.2
116242	7	Sololá	713	San Lucas Tolimán	10	San Lucas Tolimán	4	Abril	2023-04-04T00:00:00	2024-11-08T20:00:00	4	Temperatura máxima	18.9
116243	7	Sololá	713	San Lucas Tolimán	10	San Lucas Tolimán	4	Abril	2023-04-04T00:00:00	2024-11-08T20:00:00	3	Temperatura mínima	18.2
116244	7	Sololá	713	San Lucas Tolimán	10	San Lucas Tolimán	4	Abril	2023-04-04T00:00:00	2024-11-08T20:00:00	5	Humedad	62
116245	7	Sololá	713	San Lucas Tolimán	10	San Lucas Tolimán	4	Abril	2023-04-04T00:00:00	2024-11-08T20:00:00	6	Velocidad del viento	1.6
116246	7	Sololá	713	San Lucas Tolimán	10	San Lucas Tolimán	4	Abril	2023-04-04T00:00:00	2024-11-08T20:00:00	7	Dirección del viento	1.61
116247	7	Sololá	713	San Lucas Tolimán	10	San Lucas Tolimán	4	Abril	2023-04-04T00:00:00	2024-11-08T20:00:00	1	Precipitación	0
116248	7	Sololá	713	San Lucas Tolimán	10	San Lucas Tolimán	4	Abril	2023-04-04T00:00:00	2024-11-08T20:00:00	8	Radiación solar	0
116249	7	Sololá	713	San Lucas Tolimán	10	San Lucas Tolimán	4	Abril	2023-04-04T00:00:00	2024-11-08T21:00:00	2	Temperatura media	17.6
116250	7	Sololá	713	San Lucas Tolimán	10	San Lucas Tolimán	4	Abril	2023-04-04T00:00:00	2024-11-08T21:00:00	4	Temperatura máxima	18.2
116251	7	Sololá	713	San Lucas Tolimán	10	San Lucas Tolimán	4	Abril	2023-04-04T00:00:00	2024-11-08T21:00:00	3	Temperatura mínima	17.3
116252	7	Sololá	713	San Lucas Tolimán	10	San Lucas Tolimán	4	Abril	2023-04-04T00:00:00	2024-11-08T21:00:00	5	Humedad	62
116253	7	Sololá	713	San Lucas Tolimán	10	San Lucas Tolimán	4	Abril	2023-04-04T00:00:00	2024-11-08T21:00:00	6	Velocidad del viento	4.8
116254	7	Sololá	713	San Lucas Tolimán	10	San Lucas Tolimán	4	Abril	2023-04-04T00:00:00	2024-11-08T21:00:00	7	Dirección del viento	4.83
116255	7	Sololá	713	San Lucas Tolimán	10	San Lucas Tolimán	4	Abril	2023-04-04T00:00:00	2024-11-08T21:00:00	1	Precipitación	0
116256	7	Sololá	713	San Lucas Tolimán	10	San Lucas Tolimán	4	Abril	2023-04-04T00:00:00	2024-11-08T21:00:00	8	Radiación solar	0
116257	7	Sololá	713	San Lucas Tolimán	10	San Lucas Tolimán	4	Abril	2023-04-04T00:00:00	2024-11-08T22:00:00	2	Temperatura media	17.3
116258	7	Sololá	713	San Lucas Tolimán	10	San Lucas Tolimán	4	Abril	2023-04-04T00:00:00	2024-11-08T22:00:00	4	Temperatura máxima	17.6
116259	7	Sololá	713	San Lucas Tolimán	10	San Lucas Tolimán	4	Abril	2023-04-04T00:00:00	2024-11-08T22:00:00	3	Temperatura mínima	17.2
116260	7	Sololá	713	San Lucas Tolimán	10	San Lucas Tolimán	4	Abril	2023-04-04T00:00:00	2024-11-08T22:00:00	5	Humedad	61
116261	7	Sololá	713	San Lucas Tolimán	10	San Lucas Tolimán	4	Abril	2023-04-04T00:00:00	2024-11-08T22:00:00	6	Velocidad del viento	1.6
116262	7	Sololá	713	San Lucas Tolimán	10	San Lucas Tolimán	4	Abril	2023-04-04T00:00:00	2024-11-08T22:00:00	7	Dirección del viento	1.61
116263	7	Sololá	713	San Lucas Tolimán	10	San Lucas Tolimán	4	Abril	2023-04-04T00:00:00	2024-11-08T22:00:00	1	Precipitación	0
116264	7	Sololá	713	San Lucas Tolimán	10	San Lucas Tolimán	4	Abril	2023-04-04T00:00:00	2024-11-08T22:00:00	8	Radiación solar	0
116265	7	Sololá	713	San Lucas Tolimán	10	San Lucas Tolimán	4	Abril	2023-04-04T00:00:00	2024-11-08T23:00:00	2	Temperatura media	17.4
116266	7	Sololá	713	San Lucas Tolimán	10	San Lucas Tolimán	4	Abril	2023-04-04T00:00:00	2024-11-08T23:00:00	4	Temperatura máxima	17.5
116267	7	Sololá	713	San Lucas Tolimán	10	San Lucas Tolimán	4	Abril	2023-04-04T00:00:00	2024-11-08T23:00:00	3	Temperatura mínima	17.2
116268	7	Sololá	713	San Lucas Tolimán	10	San Lucas Tolimán	4	Abril	2023-04-04T00:00:00	2024-11-08T23:00:00	5	Humedad	60
116269	7	Sololá	713	San Lucas Tolimán	10	San Lucas Tolimán	4	Abril	2023-04-04T00:00:00	2024-11-08T23:00:00	6	Velocidad del viento	1.6
116270	7	Sololá	713	San Lucas Tolimán	10	San Lucas Tolimán	4	Abril	2023-04-04T00:00:00	2024-11-08T23:00:00	7	Dirección del viento	1.61
116271	7	Sololá	713	San Lucas Tolimán	10	San Lucas Tolimán	4	Abril	2023-04-04T00:00:00	2024-11-08T23:00:00	1	Precipitación	0
116272	7	Sololá	713	San Lucas Tolimán	10	San Lucas Tolimán	4	Abril	2023-04-04T00:00:00	2024-11-08T23:00:00	8	Radiación solar	0
116273	7	Sololá	713	San Lucas Tolimán	10	San Lucas Tolimán	4	Abril	2023-05-04T00:00:00	2024-11-08T00:00:00	2	Temperatura media	16.7
116274	7	Sololá	713	San Lucas Tolimán	10	San Lucas Tolimán	4	Abril	2023-05-04T00:00:00	2024-11-08T00:00:00	4	Temperatura máxima	17.4
116275	7	Sololá	713	San Lucas Tolimán	10	San Lucas Tolimán	4	Abril	2023-05-04T00:00:00	2024-11-08T00:00:00	3	Temperatura mínima	16.3
116276	7	Sololá	713	San Lucas Tolimán	10	San Lucas Tolimán	4	Abril	2023-05-04T00:00:00	2024-11-08T00:00:00	5	Humedad	62
116277	7	Sololá	713	San Lucas Tolimán	10	San Lucas Tolimán	4	Abril	2023-05-04T00:00:00	2024-11-08T00:00:00	6	Velocidad del viento	1.6
116278	7	Sololá	713	San Lucas Tolimán	10	San Lucas Tolimán	4	Abril	2023-05-04T00:00:00	2024-11-08T00:00:00	7	Dirección del viento	1.61
116279	7	Sololá	713	San Lucas Tolimán	10	San Lucas Tolimán	4	Abril	2023-05-04T00:00:00	2024-11-08T00:00:00	1	Precipitación	0
116280	7	Sololá	713	San Lucas Tolimán	10	San Lucas Tolimán	4	Abril	2023-05-04T00:00:00	2024-11-08T00:00:00	8	Radiación solar	0
116281	7	Sololá	713	San Lucas Tolimán	10	San Lucas Tolimán	4	Abril	2023-05-04T00:00:00	2024-11-08T01:00:00	2	Temperatura media	16
116282	7	Sololá	713	San Lucas Tolimán	10	San Lucas Tolimán	4	Abril	2023-05-04T00:00:00	2024-11-08T01:00:00	4	Temperatura máxima	16.7
116283	7	Sololá	713	San Lucas Tolimán	10	San Lucas Tolimán	4	Abril	2023-05-04T00:00:00	2024-11-08T01:00:00	3	Temperatura mínima	16
116284	7	Sololá	713	San Lucas Tolimán	10	San Lucas Tolimán	4	Abril	2023-05-04T00:00:00	2024-11-08T01:00:00	5	Humedad	61
116285	7	Sololá	713	San Lucas Tolimán	10	San Lucas Tolimán	4	Abril	2023-05-04T00:00:00	2024-11-08T01:00:00	6	Velocidad del viento	1.6
116286	7	Sololá	713	San Lucas Tolimán	10	San Lucas Tolimán	4	Abril	2023-05-04T00:00:00	2024-11-08T01:00:00	7	Dirección del viento	1.61
116287	7	Sololá	713	San Lucas Tolimán	10	San Lucas Tolimán	4	Abril	2023-05-04T00:00:00	2024-11-08T01:00:00	1	Precipitación	0
116288	7	Sololá	713	San Lucas Tolimán	10	San Lucas Tolimán	4	Abril	2023-05-04T00:00:00	2024-11-08T01:00:00	8	Radiación solar	0
116289	7	Sololá	713	San Lucas Tolimán	10	San Lucas Tolimán	4	Abril	2023-05-04T00:00:00	2024-11-08T02:00:00	2	Temperatura media	15.4
116290	7	Sololá	713	San Lucas Tolimán	10	San Lucas Tolimán	4	Abril	2023-05-04T00:00:00	2024-11-08T02:00:00	4	Temperatura máxima	16
116291	7	Sololá	713	San Lucas Tolimán	10	San Lucas Tolimán	4	Abril	2023-05-04T00:00:00	2024-11-08T02:00:00	3	Temperatura mínima	15.2
116292	7	Sololá	713	San Lucas Tolimán	10	San Lucas Tolimán	4	Abril	2023-05-04T00:00:00	2024-11-08T02:00:00	5	Humedad	62
116293	7	Sololá	713	San Lucas Tolimán	10	San Lucas Tolimán	4	Abril	2023-05-04T00:00:00	2024-11-08T02:00:00	6	Velocidad del viento	1.6
116294	7	Sololá	713	San Lucas Tolimán	10	San Lucas Tolimán	4	Abril	2023-05-04T00:00:00	2024-11-08T02:00:00	7	Dirección del viento	1.61
116295	7	Sololá	713	San Lucas Tolimán	10	San Lucas Tolimán	4	Abril	2023-05-04T00:00:00	2024-11-08T02:00:00	1	Precipitación	0
116296	7	Sololá	713	San Lucas Tolimán	10	San Lucas Tolimán	4	Abril	2023-05-04T00:00:00	2024-11-08T02:00:00	8	Radiación solar	0
116297	7	Sololá	713	San Lucas Tolimán	10	San Lucas Tolimán	4	Abril	2023-05-04T00:00:00	2024-11-08T03:00:00	2	Temperatura media	15.9
116298	7	Sololá	713	San Lucas Tolimán	10	San Lucas Tolimán	4	Abril	2023-05-04T00:00:00	2024-11-08T03:00:00	4	Temperatura máxima	15.9
116299	7	Sololá	713	San Lucas Tolimán	10	San Lucas Tolimán	4	Abril	2023-05-04T00:00:00	2024-11-08T03:00:00	3	Temperatura mínima	15.1
116300	7	Sololá	713	San Lucas Tolimán	10	San Lucas Tolimán	4	Abril	2023-05-04T00:00:00	2024-11-08T03:00:00	5	Humedad	61
116301	7	Sololá	713	San Lucas Tolimán	10	San Lucas Tolimán	4	Abril	2023-05-04T00:00:00	2024-11-08T03:00:00	6	Velocidad del viento	0
116302	7	Sololá	713	San Lucas Tolimán	10	San Lucas Tolimán	4	Abril	2023-05-04T00:00:00	2024-11-08T03:00:00	7	Dirección del viento	0
116303	7	Sololá	713	San Lucas Tolimán	10	San Lucas Tolimán	4	Abril	2023-05-04T00:00:00	2024-11-08T03:00:00	1	Precipitación	0
116304	7	Sololá	713	San Lucas Tolimán	10	San Lucas Tolimán	4	Abril	2023-05-04T00:00:00	2024-11-08T03:00:00	8	Radiación solar	0
116305	7	Sololá	713	San Lucas Tolimán	10	San Lucas Tolimán	4	Abril	2023-05-04T00:00:00	2024-11-08T04:00:00	2	Temperatura media	15.9
116306	7	Sololá	713	San Lucas Tolimán	10	San Lucas Tolimán	4	Abril	2023-05-04T00:00:00	2024-11-08T04:00:00	4	Temperatura máxima	16.2
116307	7	Sololá	713	San Lucas Tolimán	10	San Lucas Tolimán	4	Abril	2023-05-04T00:00:00	2024-11-08T04:00:00	3	Temperatura mínima	15.8
116308	7	Sololá	713	San Lucas Tolimán	10	San Lucas Tolimán	4	Abril	2023-05-04T00:00:00	2024-11-08T04:00:00	5	Humedad	60
116309	7	Sololá	713	San Lucas Tolimán	10	San Lucas Tolimán	4	Abril	2023-05-04T00:00:00	2024-11-08T04:00:00	6	Velocidad del viento	1.6
116310	7	Sololá	713	San Lucas Tolimán	10	San Lucas Tolimán	4	Abril	2023-05-04T00:00:00	2024-11-08T04:00:00	7	Dirección del viento	1.61
116311	7	Sololá	713	San Lucas Tolimán	10	San Lucas Tolimán	4	Abril	2023-05-04T00:00:00	2024-11-08T04:00:00	1	Precipitación	0
116312	7	Sololá	713	San Lucas Tolimán	10	San Lucas Tolimán	4	Abril	2023-05-04T00:00:00	2024-11-08T04:00:00	8	Radiación solar	0
116313	7	Sololá	713	San Lucas Tolimán	10	San Lucas Tolimán	4	Abril	2023-05-04T00:00:00	2024-11-08T05:00:00	2	Temperatura media	15.4
116314	7	Sololá	713	San Lucas Tolimán	10	San Lucas Tolimán	4	Abril	2023-05-04T00:00:00	2024-11-08T05:00:00	4	Temperatura máxima	15.8
116315	7	Sololá	713	San Lucas Tolimán	10	San Lucas Tolimán	4	Abril	2023-05-04T00:00:00	2024-11-08T05:00:00	3	Temperatura mínima	15.4
116316	7	Sololá	713	San Lucas Tolimán	10	San Lucas Tolimán	4	Abril	2023-05-04T00:00:00	2024-11-08T05:00:00	5	Humedad	61
116317	7	Sololá	713	San Lucas Tolimán	10	San Lucas Tolimán	4	Abril	2023-05-04T00:00:00	2024-11-08T05:00:00	6	Velocidad del viento	0
116318	7	Sololá	713	San Lucas Tolimán	10	San Lucas Tolimán	4	Abril	2023-05-04T00:00:00	2024-11-08T05:00:00	7	Dirección del viento	0
116319	7	Sololá	713	San Lucas Tolimán	10	San Lucas Tolimán	4	Abril	2023-05-04T00:00:00	2024-11-08T05:00:00	1	Precipitación	0
116320	7	Sololá	713	San Lucas Tolimán	10	San Lucas Tolimán	4	Abril	2023-05-04T00:00:00	2024-11-08T05:00:00	8	Radiación solar	0
116321	7	Sololá	713	San Lucas Tolimán	10	San Lucas Tolimán	4	Abril	2023-05-04T00:00:00	2024-11-08T06:00:00	2	Temperatura media	14.9
116322	7	Sololá	713	San Lucas Tolimán	10	San Lucas Tolimán	4	Abril	2023-05-04T00:00:00	2024-11-08T06:00:00	4	Temperatura máxima	15.5
116323	7	Sololá	713	San Lucas Tolimán	10	San Lucas Tolimán	4	Abril	2023-05-04T00:00:00	2024-11-08T06:00:00	3	Temperatura mínima	14.9
116324	7	Sololá	713	San Lucas Tolimán	10	San Lucas Tolimán	4	Abril	2023-05-04T00:00:00	2024-11-08T06:00:00	5	Humedad	60
116325	7	Sololá	713	San Lucas Tolimán	10	San Lucas Tolimán	4	Abril	2023-05-04T00:00:00	2024-11-08T06:00:00	6	Velocidad del viento	0
116326	7	Sololá	713	San Lucas Tolimán	10	San Lucas Tolimán	4	Abril	2023-05-04T00:00:00	2024-11-08T06:00:00	7	Dirección del viento	0
116327	7	Sololá	713	San Lucas Tolimán	10	San Lucas Tolimán	4	Abril	2023-05-04T00:00:00	2024-11-08T06:00:00	1	Precipitación	0
116328	7	Sololá	713	San Lucas Tolimán	10	San Lucas Tolimán	4	Abril	2023-05-04T00:00:00	2024-11-08T06:00:00	8	Radiación solar	0
116329	7	Sololá	713	San Lucas Tolimán	10	San Lucas Tolimán	4	Abril	2023-05-04T00:00:00	2024-11-08T07:00:00	2	Temperatura media	15.6
116330	7	Sololá	713	San Lucas Tolimán	10	San Lucas Tolimán	4	Abril	2023-05-04T00:00:00	2024-11-08T07:00:00	4	Temperatura máxima	15.6
116331	7	Sololá	713	San Lucas Tolimán	10	San Lucas Tolimán	4	Abril	2023-05-04T00:00:00	2024-11-08T07:00:00	3	Temperatura mínima	14.9
116332	7	Sololá	713	San Lucas Tolimán	10	San Lucas Tolimán	4	Abril	2023-05-04T00:00:00	2024-11-08T07:00:00	5	Humedad	59
116333	7	Sololá	713	San Lucas Tolimán	10	San Lucas Tolimán	4	Abril	2023-05-04T00:00:00	2024-11-08T07:00:00	6	Velocidad del viento	1.6
116334	7	Sololá	713	San Lucas Tolimán	10	San Lucas Tolimán	4	Abril	2023-05-04T00:00:00	2024-11-08T07:00:00	7	Dirección del viento	1.61
116335	7	Sololá	713	San Lucas Tolimán	10	San Lucas Tolimán	4	Abril	2023-05-04T00:00:00	2024-11-08T07:00:00	1	Precipitación	0
116336	7	Sololá	713	San Lucas Tolimán	10	San Lucas Tolimán	4	Abril	2023-05-04T00:00:00	2024-11-08T07:00:00	8	Radiación solar	33
116337	7	Sololá	713	San Lucas Tolimán	10	San Lucas Tolimán	4	Abril	2023-05-04T00:00:00	2024-11-08T08:00:00	2	Temperatura media	18.9
116338	7	Sololá	713	San Lucas Tolimán	10	San Lucas Tolimán	4	Abril	2023-05-04T00:00:00	2024-11-08T08:00:00	4	Temperatura máxima	18.9
116339	7	Sololá	713	San Lucas Tolimán	10	San Lucas Tolimán	4	Abril	2023-05-04T00:00:00	2024-11-08T08:00:00	3	Temperatura mínima	15.5
116340	7	Sololá	713	San Lucas Tolimán	10	San Lucas Tolimán	4	Abril	2023-05-04T00:00:00	2024-11-08T08:00:00	5	Humedad	56
116341	7	Sololá	713	San Lucas Tolimán	10	San Lucas Tolimán	4	Abril	2023-05-04T00:00:00	2024-11-08T08:00:00	6	Velocidad del viento	3.2
116342	7	Sololá	713	San Lucas Tolimán	10	San Lucas Tolimán	4	Abril	2023-05-04T00:00:00	2024-11-08T08:00:00	7	Dirección del viento	3.22
116343	7	Sololá	713	San Lucas Tolimán	10	San Lucas Tolimán	4	Abril	2023-05-04T00:00:00	2024-11-08T08:00:00	1	Precipitación	0
116344	7	Sololá	713	San Lucas Tolimán	10	San Lucas Tolimán	4	Abril	2023-05-04T00:00:00	2024-11-08T08:00:00	8	Radiación solar	228
116345	7	Sololá	713	San Lucas Tolimán	10	San Lucas Tolimán	4	Abril	2023-05-04T00:00:00	2024-11-08T09:00:00	2	Temperatura media	20.7
116346	7	Sololá	713	San Lucas Tolimán	10	San Lucas Tolimán	4	Abril	2023-05-04T00:00:00	2024-11-08T09:00:00	4	Temperatura máxima	20.7
116347	7	Sololá	713	San Lucas Tolimán	10	San Lucas Tolimán	4	Abril	2023-05-04T00:00:00	2024-11-08T09:00:00	3	Temperatura mínima	18.9
116348	7	Sololá	713	San Lucas Tolimán	10	San Lucas Tolimán	4	Abril	2023-05-04T00:00:00	2024-11-08T09:00:00	5	Humedad	54
116349	7	Sololá	713	San Lucas Tolimán	10	San Lucas Tolimán	4	Abril	2023-05-04T00:00:00	2024-11-08T09:00:00	6	Velocidad del viento	4.8
116350	7	Sololá	713	San Lucas Tolimán	10	San Lucas Tolimán	4	Abril	2023-05-04T00:00:00	2024-11-08T09:00:00	7	Dirección del viento	4.83
116351	7	Sololá	713	San Lucas Tolimán	10	San Lucas Tolimán	4	Abril	2023-05-04T00:00:00	2024-11-08T09:00:00	1	Precipitación	0
116352	7	Sololá	713	San Lucas Tolimán	10	San Lucas Tolimán	4	Abril	2023-05-04T00:00:00	2024-11-08T09:00:00	8	Radiación solar	458
116353	7	Sololá	713	San Lucas Tolimán	10	San Lucas Tolimán	4	Abril	2023-05-04T00:00:00	2024-11-08T10:00:00	2	Temperatura media	23.2
116354	7	Sololá	713	San Lucas Tolimán	10	San Lucas Tolimán	4	Abril	2023-05-04T00:00:00	2024-11-08T10:00:00	4	Temperatura máxima	23.8
116355	7	Sololá	713	San Lucas Tolimán	10	San Lucas Tolimán	4	Abril	2023-05-04T00:00:00	2024-11-08T10:00:00	3	Temperatura mínima	20.7
116356	7	Sololá	713	San Lucas Tolimán	10	San Lucas Tolimán	4	Abril	2023-05-04T00:00:00	2024-11-08T10:00:00	5	Humedad	47
116357	7	Sololá	713	San Lucas Tolimán	10	San Lucas Tolimán	4	Abril	2023-05-04T00:00:00	2024-11-08T10:00:00	6	Velocidad del viento	4.8
116358	7	Sololá	713	San Lucas Tolimán	10	San Lucas Tolimán	4	Abril	2023-05-04T00:00:00	2024-11-08T10:00:00	7	Dirección del viento	4.83
116359	7	Sololá	713	San Lucas Tolimán	10	San Lucas Tolimán	4	Abril	2023-05-04T00:00:00	2024-11-08T10:00:00	1	Precipitación	0
116360	7	Sololá	713	San Lucas Tolimán	10	San Lucas Tolimán	4	Abril	2023-05-04T00:00:00	2024-11-08T10:00:00	8	Radiación solar	789
116361	7	Sololá	713	San Lucas Tolimán	10	San Lucas Tolimán	4	Abril	2023-05-04T00:00:00	2024-11-08T11:00:00	2	Temperatura media	22.7
116362	7	Sololá	713	San Lucas Tolimán	10	San Lucas Tolimán	4	Abril	2023-05-04T00:00:00	2024-11-08T11:00:00	4	Temperatura máxima	23.6
116363	7	Sololá	713	San Lucas Tolimán	10	San Lucas Tolimán	4	Abril	2023-05-04T00:00:00	2024-11-08T11:00:00	3	Temperatura mínima	22.7
116364	7	Sololá	713	San Lucas Tolimán	10	San Lucas Tolimán	4	Abril	2023-05-04T00:00:00	2024-11-08T11:00:00	5	Humedad	51
116365	7	Sololá	713	San Lucas Tolimán	10	San Lucas Tolimán	4	Abril	2023-05-04T00:00:00	2024-11-08T11:00:00	6	Velocidad del viento	9.7
116366	7	Sololá	713	San Lucas Tolimán	10	San Lucas Tolimán	4	Abril	2023-05-04T00:00:00	2024-11-08T11:00:00	7	Dirección del viento	9.66
116367	7	Sololá	713	San Lucas Tolimán	10	San Lucas Tolimán	4	Abril	2023-05-04T00:00:00	2024-11-08T11:00:00	1	Precipitación	0
116368	7	Sololá	713	San Lucas Tolimán	10	San Lucas Tolimán	4	Abril	2023-05-04T00:00:00	2024-11-08T11:00:00	8	Radiación solar	979
116369	7	Sololá	713	San Lucas Tolimán	10	San Lucas Tolimán	4	Abril	2023-05-04T00:00:00	2024-11-08T12:00:00	2	Temperatura media	23.4
116370	7	Sololá	713	San Lucas Tolimán	10	San Lucas Tolimán	4	Abril	2023-05-04T00:00:00	2024-11-08T12:00:00	4	Temperatura máxima	23.9
116371	7	Sololá	713	San Lucas Tolimán	10	San Lucas Tolimán	4	Abril	2023-05-04T00:00:00	2024-11-08T12:00:00	3	Temperatura mínima	22.7
116372	7	Sololá	713	San Lucas Tolimán	10	San Lucas Tolimán	4	Abril	2023-05-04T00:00:00	2024-11-08T12:00:00	5	Humedad	51
116373	7	Sololá	713	San Lucas Tolimán	10	San Lucas Tolimán	4	Abril	2023-05-04T00:00:00	2024-11-08T12:00:00	6	Velocidad del viento	11.3
116374	7	Sololá	713	San Lucas Tolimán	10	San Lucas Tolimán	4	Abril	2023-05-04T00:00:00	2024-11-08T12:00:00	7	Dirección del viento	11.27
116375	7	Sololá	713	San Lucas Tolimán	10	San Lucas Tolimán	4	Abril	2023-05-04T00:00:00	2024-11-08T12:00:00	1	Precipitación	0
116376	7	Sololá	713	San Lucas Tolimán	10	San Lucas Tolimán	4	Abril	2023-05-04T00:00:00	2024-11-08T12:00:00	8	Radiación solar	1088
116377	7	Sololá	713	San Lucas Tolimán	10	San Lucas Tolimán	4	Abril	2023-05-04T00:00:00	2024-11-08T13:00:00	2	Temperatura media	23.9
116378	7	Sololá	713	San Lucas Tolimán	10	San Lucas Tolimán	4	Abril	2023-05-04T00:00:00	2024-11-08T13:00:00	4	Temperatura máxima	23.9
116379	7	Sololá	713	San Lucas Tolimán	10	San Lucas Tolimán	4	Abril	2023-05-04T00:00:00	2024-11-08T13:00:00	3	Temperatura mínima	23.1
116380	7	Sololá	713	San Lucas Tolimán	10	San Lucas Tolimán	4	Abril	2023-05-04T00:00:00	2024-11-08T13:00:00	5	Humedad	53
116381	7	Sololá	713	San Lucas Tolimán	10	San Lucas Tolimán	4	Abril	2023-05-04T00:00:00	2024-11-08T13:00:00	6	Velocidad del viento	11.3
116382	7	Sololá	713	San Lucas Tolimán	10	San Lucas Tolimán	4	Abril	2023-05-04T00:00:00	2024-11-08T13:00:00	7	Dirección del viento	11.27
116383	7	Sololá	713	San Lucas Tolimán	10	San Lucas Tolimán	4	Abril	2023-05-04T00:00:00	2024-11-08T13:00:00	1	Precipitación	0
116384	7	Sololá	713	San Lucas Tolimán	10	San Lucas Tolimán	4	Abril	2023-05-04T00:00:00	2024-11-08T13:00:00	8	Radiación solar	1109
116385	7	Sololá	713	San Lucas Tolimán	10	San Lucas Tolimán	4	Abril	2023-05-04T00:00:00	2024-11-08T14:00:00	2	Temperatura media	23.3
116386	7	Sololá	713	San Lucas Tolimán	10	San Lucas Tolimán	4	Abril	2023-05-04T00:00:00	2024-11-08T14:00:00	4	Temperatura máxima	24.2
116387	7	Sololá	713	San Lucas Tolimán	10	San Lucas Tolimán	4	Abril	2023-05-04T00:00:00	2024-11-08T14:00:00	3	Temperatura mínima	23.2
116388	7	Sololá	713	San Lucas Tolimán	10	San Lucas Tolimán	4	Abril	2023-05-04T00:00:00	2024-11-08T14:00:00	5	Humedad	54
116389	7	Sololá	713	San Lucas Tolimán	10	San Lucas Tolimán	4	Abril	2023-05-04T00:00:00	2024-11-08T14:00:00	6	Velocidad del viento	11.3
116390	7	Sololá	713	San Lucas Tolimán	10	San Lucas Tolimán	4	Abril	2023-05-04T00:00:00	2024-11-08T14:00:00	7	Dirección del viento	11.27
116391	7	Sololá	713	San Lucas Tolimán	10	San Lucas Tolimán	4	Abril	2023-05-04T00:00:00	2024-11-08T14:00:00	1	Precipitación	0
116392	7	Sololá	713	San Lucas Tolimán	10	San Lucas Tolimán	4	Abril	2023-05-04T00:00:00	2024-11-08T14:00:00	8	Radiación solar	1023
116393	7	Sololá	713	San Lucas Tolimán	10	San Lucas Tolimán	4	Abril	2023-05-04T00:00:00	2024-11-08T15:00:00	2	Temperatura media	23.3
116394	7	Sololá	713	San Lucas Tolimán	10	San Lucas Tolimán	4	Abril	2023-05-04T00:00:00	2024-11-08T15:00:00	4	Temperatura máxima	24
116395	7	Sololá	713	San Lucas Tolimán	10	San Lucas Tolimán	4	Abril	2023-05-04T00:00:00	2024-11-08T15:00:00	3	Temperatura mínima	23.2
116396	7	Sololá	713	San Lucas Tolimán	10	San Lucas Tolimán	4	Abril	2023-05-04T00:00:00	2024-11-08T15:00:00	5	Humedad	58
116397	7	Sololá	713	San Lucas Tolimán	10	San Lucas Tolimán	4	Abril	2023-05-04T00:00:00	2024-11-08T15:00:00	6	Velocidad del viento	9.7
116398	7	Sololá	713	San Lucas Tolimán	10	San Lucas Tolimán	4	Abril	2023-05-04T00:00:00	2024-11-08T15:00:00	7	Dirección del viento	9.66
116399	7	Sololá	713	San Lucas Tolimán	10	San Lucas Tolimán	4	Abril	2023-05-04T00:00:00	2024-11-08T15:00:00	1	Precipitación	0
116400	7	Sololá	713	San Lucas Tolimán	10	San Lucas Tolimán	4	Abril	2023-05-04T00:00:00	2024-11-08T15:00:00	8	Radiación solar	838
116401	7	Sololá	713	San Lucas Tolimán	10	San Lucas Tolimán	4	Abril	2023-05-04T00:00:00	2024-11-08T16:00:00	2	Temperatura media	21.6
116402	7	Sololá	713	San Lucas Tolimán	10	San Lucas Tolimán	4	Abril	2023-05-04T00:00:00	2024-11-08T16:00:00	4	Temperatura máxima	23.3
116403	7	Sololá	713	San Lucas Tolimán	10	San Lucas Tolimán	4	Abril	2023-05-04T00:00:00	2024-11-08T16:00:00	3	Temperatura mínima	21.3
116404	7	Sololá	713	San Lucas Tolimán	10	San Lucas Tolimán	4	Abril	2023-05-04T00:00:00	2024-11-08T16:00:00	5	Humedad	61
116405	7	Sololá	713	San Lucas Tolimán	10	San Lucas Tolimán	4	Abril	2023-05-04T00:00:00	2024-11-08T16:00:00	6	Velocidad del viento	11.3
116406	7	Sololá	713	San Lucas Tolimán	10	San Lucas Tolimán	4	Abril	2023-05-04T00:00:00	2024-11-08T16:00:00	7	Dirección del viento	11.27
116407	7	Sololá	713	San Lucas Tolimán	10	San Lucas Tolimán	4	Abril	2023-05-04T00:00:00	2024-11-08T16:00:00	1	Precipitación	0
116408	7	Sololá	713	San Lucas Tolimán	10	San Lucas Tolimán	4	Abril	2023-05-04T00:00:00	2024-11-08T16:00:00	8	Radiación solar	417
116409	7	Sololá	713	San Lucas Tolimán	10	San Lucas Tolimán	4	Abril	2023-05-04T00:00:00	2024-11-08T17:00:00	2	Temperatura media	20.6
116410	7	Sololá	713	San Lucas Tolimán	10	San Lucas Tolimán	4	Abril	2023-05-04T00:00:00	2024-11-08T17:00:00	4	Temperatura máxima	21.8
116411	7	Sololá	713	San Lucas Tolimán	10	San Lucas Tolimán	4	Abril	2023-05-04T00:00:00	2024-11-08T17:00:00	3	Temperatura mínima	20.6
116412	7	Sololá	713	San Lucas Tolimán	10	San Lucas Tolimán	4	Abril	2023-05-04T00:00:00	2024-11-08T17:00:00	5	Humedad	62
116413	7	Sololá	713	San Lucas Tolimán	10	San Lucas Tolimán	4	Abril	2023-05-04T00:00:00	2024-11-08T17:00:00	6	Velocidad del viento	9.7
116414	7	Sololá	713	San Lucas Tolimán	10	San Lucas Tolimán	4	Abril	2023-05-04T00:00:00	2024-11-08T17:00:00	7	Dirección del viento	9.66
116415	7	Sololá	713	San Lucas Tolimán	10	San Lucas Tolimán	4	Abril	2023-05-04T00:00:00	2024-11-08T17:00:00	1	Precipitación	0
116416	7	Sololá	713	San Lucas Tolimán	10	San Lucas Tolimán	4	Abril	2023-05-04T00:00:00	2024-11-08T17:00:00	8	Radiación solar	197
116417	7	Sololá	713	San Lucas Tolimán	10	San Lucas Tolimán	4	Abril	2023-05-04T00:00:00	2024-11-08T18:00:00	2	Temperatura media	20.2
116418	7	Sololá	713	San Lucas Tolimán	10	San Lucas Tolimán	4	Abril	2023-05-04T00:00:00	2024-11-08T18:00:00	4	Temperatura máxima	20.7
116419	7	Sololá	713	San Lucas Tolimán	10	San Lucas Tolimán	4	Abril	2023-05-04T00:00:00	2024-11-08T18:00:00	3	Temperatura mínima	20.1
116420	7	Sololá	713	San Lucas Tolimán	10	San Lucas Tolimán	4	Abril	2023-05-04T00:00:00	2024-11-08T18:00:00	5	Humedad	61
116421	7	Sololá	713	San Lucas Tolimán	10	San Lucas Tolimán	4	Abril	2023-05-04T00:00:00	2024-11-08T18:00:00	6	Velocidad del viento	8
116422	7	Sololá	713	San Lucas Tolimán	10	San Lucas Tolimán	4	Abril	2023-05-04T00:00:00	2024-11-08T18:00:00	7	Dirección del viento	8.05
116423	7	Sololá	713	San Lucas Tolimán	10	San Lucas Tolimán	4	Abril	2023-05-04T00:00:00	2024-11-08T18:00:00	1	Precipitación	0
116424	7	Sololá	713	San Lucas Tolimán	10	San Lucas Tolimán	4	Abril	2023-05-04T00:00:00	2024-11-08T18:00:00	8	Radiación solar	40
116425	7	Sololá	713	San Lucas Tolimán	10	San Lucas Tolimán	4	Abril	2023-05-04T00:00:00	2024-11-08T19:00:00	2	Temperatura media	19.8
116426	7	Sololá	713	San Lucas Tolimán	10	San Lucas Tolimán	4	Abril	2023-05-04T00:00:00	2024-11-08T19:00:00	4	Temperatura máxima	20.3
116427	7	Sololá	713	San Lucas Tolimán	10	San Lucas Tolimán	4	Abril	2023-05-04T00:00:00	2024-11-08T19:00:00	3	Temperatura mínima	19.8
116428	7	Sololá	713	San Lucas Tolimán	10	San Lucas Tolimán	4	Abril	2023-05-04T00:00:00	2024-11-08T19:00:00	5	Humedad	61
116429	7	Sololá	713	San Lucas Tolimán	10	San Lucas Tolimán	4	Abril	2023-05-04T00:00:00	2024-11-08T19:00:00	6	Velocidad del viento	6.4
116430	7	Sololá	713	San Lucas Tolimán	10	San Lucas Tolimán	4	Abril	2023-05-04T00:00:00	2024-11-08T19:00:00	7	Dirección del viento	6.44
116431	7	Sololá	713	San Lucas Tolimán	10	San Lucas Tolimán	4	Abril	2023-05-04T00:00:00	2024-11-08T19:00:00	1	Precipitación	0
116432	7	Sololá	713	San Lucas Tolimán	10	San Lucas Tolimán	4	Abril	2023-05-04T00:00:00	2024-11-08T19:00:00	8	Radiación solar	0
116433	7	Sololá	713	San Lucas Tolimán	10	San Lucas Tolimán	4	Abril	2023-05-04T00:00:00	2024-11-08T20:00:00	2	Temperatura media	19.1
116434	7	Sololá	713	San Lucas Tolimán	10	San Lucas Tolimán	4	Abril	2023-05-04T00:00:00	2024-11-08T20:00:00	4	Temperatura máxima	19.9
116435	7	Sololá	713	San Lucas Tolimán	10	San Lucas Tolimán	4	Abril	2023-05-04T00:00:00	2024-11-08T20:00:00	3	Temperatura mínima	19.1
116436	7	Sololá	713	San Lucas Tolimán	10	San Lucas Tolimán	4	Abril	2023-05-04T00:00:00	2024-11-08T20:00:00	5	Humedad	66
116437	7	Sololá	713	San Lucas Tolimán	10	San Lucas Tolimán	4	Abril	2023-05-04T00:00:00	2024-11-08T20:00:00	6	Velocidad del viento	6.4
116438	7	Sololá	713	San Lucas Tolimán	10	San Lucas Tolimán	4	Abril	2023-05-04T00:00:00	2024-11-08T20:00:00	7	Dirección del viento	6.44
116439	7	Sololá	713	San Lucas Tolimán	10	San Lucas Tolimán	4	Abril	2023-05-04T00:00:00	2024-11-08T20:00:00	1	Precipitación	0
116440	7	Sololá	713	San Lucas Tolimán	10	San Lucas Tolimán	4	Abril	2023-05-04T00:00:00	2024-11-08T20:00:00	8	Radiación solar	0
116441	7	Sololá	713	San Lucas Tolimán	10	San Lucas Tolimán	4	Abril	2023-05-04T00:00:00	2024-11-08T21:00:00	2	Temperatura media	18.7
116442	7	Sololá	713	San Lucas Tolimán	10	San Lucas Tolimán	4	Abril	2023-05-04T00:00:00	2024-11-08T21:00:00	4	Temperatura máxima	19
116443	7	Sololá	713	San Lucas Tolimán	10	San Lucas Tolimán	4	Abril	2023-05-04T00:00:00	2024-11-08T21:00:00	3	Temperatura mínima	18.6
116444	7	Sololá	713	San Lucas Tolimán	10	San Lucas Tolimán	4	Abril	2023-05-04T00:00:00	2024-11-08T21:00:00	5	Humedad	70
116445	7	Sololá	713	San Lucas Tolimán	10	San Lucas Tolimán	4	Abril	2023-05-04T00:00:00	2024-11-08T21:00:00	6	Velocidad del viento	6.4
116446	7	Sololá	713	San Lucas Tolimán	10	San Lucas Tolimán	4	Abril	2023-05-04T00:00:00	2024-11-08T21:00:00	7	Dirección del viento	6.44
116447	7	Sololá	713	San Lucas Tolimán	10	San Lucas Tolimán	4	Abril	2023-05-04T00:00:00	2024-11-08T21:00:00	1	Precipitación	0.2
116448	7	Sololá	713	San Lucas Tolimán	10	San Lucas Tolimán	4	Abril	2023-05-04T00:00:00	2024-11-08T21:00:00	8	Radiación solar	0
116449	7	Sololá	713	San Lucas Tolimán	10	San Lucas Tolimán	4	Abril	2023-05-04T00:00:00	2024-11-08T22:00:00	2	Temperatura media	18.2
116450	7	Sololá	713	San Lucas Tolimán	10	San Lucas Tolimán	4	Abril	2023-05-04T00:00:00	2024-11-08T22:00:00	4	Temperatura máxima	18.7
116451	7	Sololá	713	San Lucas Tolimán	10	San Lucas Tolimán	4	Abril	2023-05-04T00:00:00	2024-11-08T22:00:00	3	Temperatura mínima	18.2
116452	7	Sololá	713	San Lucas Tolimán	10	San Lucas Tolimán	4	Abril	2023-05-04T00:00:00	2024-11-08T22:00:00	5	Humedad	70
116453	7	Sololá	713	San Lucas Tolimán	10	San Lucas Tolimán	4	Abril	2023-05-04T00:00:00	2024-11-08T22:00:00	6	Velocidad del viento	4.8
116454	7	Sololá	713	San Lucas Tolimán	10	San Lucas Tolimán	4	Abril	2023-05-04T00:00:00	2024-11-08T22:00:00	7	Dirección del viento	4.83
116455	7	Sololá	713	San Lucas Tolimán	10	San Lucas Tolimán	4	Abril	2023-05-04T00:00:00	2024-11-08T22:00:00	1	Precipitación	0.2
116456	7	Sololá	713	San Lucas Tolimán	10	San Lucas Tolimán	4	Abril	2023-05-04T00:00:00	2024-11-08T22:00:00	8	Radiación solar	0
116457	7	Sololá	713	San Lucas Tolimán	10	San Lucas Tolimán	4	Abril	2023-05-04T00:00:00	2024-11-08T23:00:00	2	Temperatura media	18.3
116458	7	Sololá	713	San Lucas Tolimán	10	San Lucas Tolimán	4	Abril	2023-05-04T00:00:00	2024-11-08T23:00:00	4	Temperatura máxima	18.5
116459	7	Sololá	713	San Lucas Tolimán	10	San Lucas Tolimán	4	Abril	2023-05-04T00:00:00	2024-11-08T23:00:00	3	Temperatura mínima	18.2
116460	7	Sololá	713	San Lucas Tolimán	10	San Lucas Tolimán	4	Abril	2023-05-04T00:00:00	2024-11-08T23:00:00	5	Humedad	68
116461	7	Sololá	713	San Lucas Tolimán	10	San Lucas Tolimán	4	Abril	2023-05-04T00:00:00	2024-11-08T23:00:00	6	Velocidad del viento	3.2
116462	7	Sololá	713	San Lucas Tolimán	10	San Lucas Tolimán	4	Abril	2023-05-04T00:00:00	2024-11-08T23:00:00	7	Dirección del viento	3.22
116463	7	Sololá	713	San Lucas Tolimán	10	San Lucas Tolimán	4	Abril	2023-05-04T00:00:00	2024-11-08T23:00:00	1	Precipitación	0
116464	7	Sololá	713	San Lucas Tolimán	10	San Lucas Tolimán	4	Abril	2023-05-04T00:00:00	2024-11-08T23:00:00	8	Radiación solar	0
116465	7	Sololá	713	San Lucas Tolimán	10	San Lucas Tolimán	4	Abril	2023-06-04T00:00:00	2024-11-08T00:00:00	2	Temperatura media	17.6
116466	7	Sololá	713	San Lucas Tolimán	10	San Lucas Tolimán	4	Abril	2023-06-04T00:00:00	2024-11-08T00:00:00	4	Temperatura máxima	18.3
116467	7	Sololá	713	San Lucas Tolimán	10	San Lucas Tolimán	4	Abril	2023-06-04T00:00:00	2024-11-08T00:00:00	3	Temperatura mínima	17.3
116468	7	Sololá	713	San Lucas Tolimán	10	San Lucas Tolimán	4	Abril	2023-06-04T00:00:00	2024-11-08T00:00:00	5	Humedad	68
116469	7	Sololá	713	San Lucas Tolimán	10	San Lucas Tolimán	4	Abril	2023-06-04T00:00:00	2024-11-08T00:00:00	6	Velocidad del viento	3.2
116470	7	Sololá	713	San Lucas Tolimán	10	San Lucas Tolimán	4	Abril	2023-06-04T00:00:00	2024-11-08T00:00:00	7	Dirección del viento	3.22
116471	7	Sololá	713	San Lucas Tolimán	10	San Lucas Tolimán	4	Abril	2023-06-04T00:00:00	2024-11-08T00:00:00	1	Precipitación	0
116472	7	Sololá	713	San Lucas Tolimán	10	San Lucas Tolimán	4	Abril	2023-06-04T00:00:00	2024-11-08T00:00:00	8	Radiación solar	0
116473	7	Sololá	713	San Lucas Tolimán	10	San Lucas Tolimán	4	Abril	2023-06-04T00:00:00	2024-11-08T01:00:00	2	Temperatura media	17.5
116474	7	Sololá	713	San Lucas Tolimán	10	San Lucas Tolimán	4	Abril	2023-06-04T00:00:00	2024-11-08T01:00:00	4	Temperatura máxima	17.8
116475	7	Sololá	713	San Lucas Tolimán	10	San Lucas Tolimán	4	Abril	2023-06-04T00:00:00	2024-11-08T01:00:00	3	Temperatura mínima	17.5
116476	7	Sololá	713	San Lucas Tolimán	10	San Lucas Tolimán	4	Abril	2023-06-04T00:00:00	2024-11-08T01:00:00	5	Humedad	69
116477	7	Sololá	713	San Lucas Tolimán	10	San Lucas Tolimán	4	Abril	2023-06-04T00:00:00	2024-11-08T01:00:00	6	Velocidad del viento	4.8
116478	7	Sololá	713	San Lucas Tolimán	10	San Lucas Tolimán	4	Abril	2023-06-04T00:00:00	2024-11-08T01:00:00	7	Dirección del viento	4.83
116479	7	Sololá	713	San Lucas Tolimán	10	San Lucas Tolimán	4	Abril	2023-06-04T00:00:00	2024-11-08T01:00:00	1	Precipitación	0
116480	7	Sololá	713	San Lucas Tolimán	10	San Lucas Tolimán	4	Abril	2023-06-04T00:00:00	2024-11-08T01:00:00	8	Radiación solar	0
116481	7	Sololá	713	San Lucas Tolimán	10	San Lucas Tolimán	4	Abril	2023-06-04T00:00:00	2024-11-08T02:00:00	2	Temperatura media	17.2
116482	7	Sololá	713	San Lucas Tolimán	10	San Lucas Tolimán	4	Abril	2023-06-04T00:00:00	2024-11-08T02:00:00	4	Temperatura máxima	17.7
116483	7	Sololá	713	San Lucas Tolimán	10	San Lucas Tolimán	4	Abril	2023-06-04T00:00:00	2024-11-08T02:00:00	3	Temperatura mínima	17.2
116484	7	Sololá	713	San Lucas Tolimán	10	San Lucas Tolimán	4	Abril	2023-06-04T00:00:00	2024-11-08T02:00:00	5	Humedad	69
116485	7	Sololá	713	San Lucas Tolimán	10	San Lucas Tolimán	4	Abril	2023-06-04T00:00:00	2024-11-08T02:00:00	6	Velocidad del viento	3.2
116486	7	Sololá	713	San Lucas Tolimán	10	San Lucas Tolimán	4	Abril	2023-06-04T00:00:00	2024-11-08T02:00:00	7	Dirección del viento	3.22
116487	7	Sololá	713	San Lucas Tolimán	10	San Lucas Tolimán	4	Abril	2023-06-04T00:00:00	2024-11-08T02:00:00	1	Precipitación	0
116488	7	Sololá	713	San Lucas Tolimán	10	San Lucas Tolimán	4	Abril	2023-06-04T00:00:00	2024-11-08T02:00:00	8	Radiación solar	0
116489	7	Sololá	713	San Lucas Tolimán	10	San Lucas Tolimán	4	Abril	2023-06-04T00:00:00	2024-11-08T03:00:00	2	Temperatura media	16.6
116490	7	Sololá	713	San Lucas Tolimán	10	San Lucas Tolimán	4	Abril	2023-06-04T00:00:00	2024-11-08T03:00:00	4	Temperatura máxima	17.2
116491	7	Sololá	713	San Lucas Tolimán	10	San Lucas Tolimán	4	Abril	2023-06-04T00:00:00	2024-11-08T03:00:00	3	Temperatura mínima	16.6
116492	7	Sololá	713	San Lucas Tolimán	10	San Lucas Tolimán	4	Abril	2023-06-04T00:00:00	2024-11-08T03:00:00	5	Humedad	68
116493	7	Sololá	713	San Lucas Tolimán	10	San Lucas Tolimán	4	Abril	2023-06-04T00:00:00	2024-11-08T03:00:00	6	Velocidad del viento	1.6
116494	7	Sololá	713	San Lucas Tolimán	10	San Lucas Tolimán	4	Abril	2023-06-04T00:00:00	2024-11-08T03:00:00	7	Dirección del viento	1.61
116495	7	Sololá	713	San Lucas Tolimán	10	San Lucas Tolimán	4	Abril	2023-06-04T00:00:00	2024-11-08T03:00:00	1	Precipitación	0
116496	7	Sololá	713	San Lucas Tolimán	10	San Lucas Tolimán	4	Abril	2023-06-04T00:00:00	2024-11-08T03:00:00	8	Radiación solar	0
116497	7	Sololá	713	San Lucas Tolimán	10	San Lucas Tolimán	4	Abril	2023-06-04T00:00:00	2024-11-08T04:00:00	2	Temperatura media	16.9
116498	7	Sololá	713	San Lucas Tolimán	10	San Lucas Tolimán	4	Abril	2023-06-04T00:00:00	2024-11-08T04:00:00	4	Temperatura máxima	16.9
116499	7	Sololá	713	San Lucas Tolimán	10	San Lucas Tolimán	4	Abril	2023-06-04T00:00:00	2024-11-08T04:00:00	3	Temperatura mínima	16.3
116500	7	Sololá	713	San Lucas Tolimán	10	San Lucas Tolimán	4	Abril	2023-06-04T00:00:00	2024-11-08T04:00:00	5	Humedad	67
116501	7	Sololá	713	San Lucas Tolimán	10	San Lucas Tolimán	4	Abril	2023-06-04T00:00:00	2024-11-08T04:00:00	6	Velocidad del viento	3.2
116502	7	Sololá	713	San Lucas Tolimán	10	San Lucas Tolimán	4	Abril	2023-06-04T00:00:00	2024-11-08T04:00:00	7	Dirección del viento	3.22
116503	7	Sololá	713	San Lucas Tolimán	10	San Lucas Tolimán	4	Abril	2023-06-04T00:00:00	2024-11-08T04:00:00	1	Precipitación	0
116504	7	Sololá	713	San Lucas Tolimán	10	San Lucas Tolimán	4	Abril	2023-06-04T00:00:00	2024-11-08T04:00:00	8	Radiación solar	0
116505	7	Sololá	713	San Lucas Tolimán	10	San Lucas Tolimán	4	Abril	2023-06-04T00:00:00	2024-11-08T05:00:00	2	Temperatura media	16.6
116506	7	Sololá	713	San Lucas Tolimán	10	San Lucas Tolimán	4	Abril	2023-06-04T00:00:00	2024-11-08T05:00:00	4	Temperatura máxima	17.2
116507	7	Sololá	713	San Lucas Tolimán	10	San Lucas Tolimán	4	Abril	2023-06-04T00:00:00	2024-11-08T05:00:00	3	Temperatura mínima	16.6
116508	7	Sololá	713	San Lucas Tolimán	10	San Lucas Tolimán	4	Abril	2023-06-04T00:00:00	2024-11-08T05:00:00	5	Humedad	67
116509	7	Sololá	713	San Lucas Tolimán	10	San Lucas Tolimán	4	Abril	2023-06-04T00:00:00	2024-11-08T05:00:00	6	Velocidad del viento	3.2
116510	7	Sololá	713	San Lucas Tolimán	10	San Lucas Tolimán	4	Abril	2023-06-04T00:00:00	2024-11-08T05:00:00	7	Dirección del viento	3.22
116511	7	Sololá	713	San Lucas Tolimán	10	San Lucas Tolimán	4	Abril	2023-06-04T00:00:00	2024-11-08T05:00:00	1	Precipitación	0
116512	7	Sololá	713	San Lucas Tolimán	10	San Lucas Tolimán	4	Abril	2023-06-04T00:00:00	2024-11-08T05:00:00	8	Radiación solar	0
116513	7	Sololá	713	San Lucas Tolimán	10	San Lucas Tolimán	4	Abril	2023-06-04T00:00:00	2024-11-08T06:00:00	2	Temperatura media	16
116514	7	Sololá	713	San Lucas Tolimán	10	San Lucas Tolimán	4	Abril	2023-06-04T00:00:00	2024-11-08T06:00:00	4	Temperatura máxima	16.6
116515	7	Sololá	713	San Lucas Tolimán	10	San Lucas Tolimán	4	Abril	2023-06-04T00:00:00	2024-11-08T06:00:00	3	Temperatura mínima	15.9
116516	7	Sololá	713	San Lucas Tolimán	10	San Lucas Tolimán	4	Abril	2023-06-04T00:00:00	2024-11-08T06:00:00	5	Humedad	66
116517	7	Sololá	713	San Lucas Tolimán	10	San Lucas Tolimán	4	Abril	2023-06-04T00:00:00	2024-11-08T06:00:00	6	Velocidad del viento	1.6
116518	7	Sololá	713	San Lucas Tolimán	10	San Lucas Tolimán	4	Abril	2023-06-04T00:00:00	2024-11-08T06:00:00	7	Dirección del viento	1.61
116519	7	Sololá	713	San Lucas Tolimán	10	San Lucas Tolimán	4	Abril	2023-06-04T00:00:00	2024-11-08T06:00:00	1	Precipitación	0
116520	7	Sololá	713	San Lucas Tolimán	10	San Lucas Tolimán	4	Abril	2023-06-04T00:00:00	2024-11-08T06:00:00	8	Radiación solar	0
116521	7	Sololá	713	San Lucas Tolimán	10	San Lucas Tolimán	4	Abril	2023-06-04T00:00:00	2024-11-08T07:00:00	2	Temperatura media	16.4
116522	7	Sololá	713	San Lucas Tolimán	10	San Lucas Tolimán	4	Abril	2023-06-04T00:00:00	2024-11-08T07:00:00	4	Temperatura máxima	16.4
116523	7	Sololá	713	San Lucas Tolimán	10	San Lucas Tolimán	4	Abril	2023-06-04T00:00:00	2024-11-08T07:00:00	3	Temperatura mínima	16
116524	7	Sololá	713	San Lucas Tolimán	10	San Lucas Tolimán	4	Abril	2023-06-04T00:00:00	2024-11-08T07:00:00	5	Humedad	66
116525	7	Sololá	713	San Lucas Tolimán	10	San Lucas Tolimán	4	Abril	2023-06-04T00:00:00	2024-11-08T07:00:00	6	Velocidad del viento	0
116526	7	Sololá	713	San Lucas Tolimán	10	San Lucas Tolimán	4	Abril	2023-06-04T00:00:00	2024-11-08T07:00:00	7	Dirección del viento	0
116527	7	Sololá	713	San Lucas Tolimán	10	San Lucas Tolimán	4	Abril	2023-06-04T00:00:00	2024-11-08T07:00:00	1	Precipitación	0
116528	7	Sololá	713	San Lucas Tolimán	10	San Lucas Tolimán	4	Abril	2023-06-04T00:00:00	2024-11-08T07:00:00	8	Radiación solar	45
116529	7	Sololá	713	San Lucas Tolimán	10	San Lucas Tolimán	4	Abril	2023-06-04T00:00:00	2024-11-08T08:00:00	2	Temperatura media	18.8
116530	7	Sololá	713	San Lucas Tolimán	10	San Lucas Tolimán	4	Abril	2023-06-04T00:00:00	2024-11-08T08:00:00	4	Temperatura máxima	18.8
116531	7	Sololá	713	San Lucas Tolimán	10	San Lucas Tolimán	4	Abril	2023-06-04T00:00:00	2024-11-08T08:00:00	3	Temperatura mínima	16.4
116532	7	Sololá	713	San Lucas Tolimán	10	San Lucas Tolimán	4	Abril	2023-06-04T00:00:00	2024-11-08T08:00:00	5	Humedad	63
116533	7	Sololá	713	San Lucas Tolimán	10	San Lucas Tolimán	4	Abril	2023-06-04T00:00:00	2024-11-08T08:00:00	6	Velocidad del viento	4.8
116534	7	Sololá	713	San Lucas Tolimán	10	San Lucas Tolimán	4	Abril	2023-06-04T00:00:00	2024-11-08T08:00:00	7	Dirección del viento	4.83
116535	7	Sololá	713	San Lucas Tolimán	10	San Lucas Tolimán	4	Abril	2023-06-04T00:00:00	2024-11-08T08:00:00	1	Precipitación	0
116536	7	Sololá	713	San Lucas Tolimán	10	San Lucas Tolimán	4	Abril	2023-06-04T00:00:00	2024-11-08T08:00:00	8	Radiación solar	184
116537	7	Sololá	713	San Lucas Tolimán	10	San Lucas Tolimán	4	Abril	2023-06-04T00:00:00	2024-11-08T09:00:00	2	Temperatura media	21.4
116538	7	Sololá	713	San Lucas Tolimán	10	San Lucas Tolimán	4	Abril	2023-06-04T00:00:00	2024-11-08T09:00:00	4	Temperatura máxima	21.4
116539	7	Sololá	713	San Lucas Tolimán	10	San Lucas Tolimán	4	Abril	2023-06-04T00:00:00	2024-11-08T09:00:00	3	Temperatura mínima	18.8
116540	7	Sololá	713	San Lucas Tolimán	10	San Lucas Tolimán	4	Abril	2023-06-04T00:00:00	2024-11-08T09:00:00	5	Humedad	56
116541	7	Sololá	713	San Lucas Tolimán	10	San Lucas Tolimán	4	Abril	2023-06-04T00:00:00	2024-11-08T09:00:00	6	Velocidad del viento	6.4
116542	7	Sololá	713	San Lucas Tolimán	10	San Lucas Tolimán	4	Abril	2023-06-04T00:00:00	2024-11-08T09:00:00	7	Dirección del viento	6.44
116543	7	Sololá	713	San Lucas Tolimán	10	San Lucas Tolimán	4	Abril	2023-06-04T00:00:00	2024-11-08T09:00:00	1	Precipitación	0
116544	7	Sololá	713	San Lucas Tolimán	10	San Lucas Tolimán	4	Abril	2023-06-04T00:00:00	2024-11-08T09:00:00	8	Radiación solar	479
116545	7	Sololá	713	San Lucas Tolimán	10	San Lucas Tolimán	4	Abril	2023-06-04T00:00:00	2024-11-08T10:00:00	2	Temperatura media	20.7
116546	7	Sololá	713	San Lucas Tolimán	10	San Lucas Tolimán	4	Abril	2023-06-04T00:00:00	2024-11-08T10:00:00	4	Temperatura máxima	21.5
116547	7	Sololá	713	San Lucas Tolimán	10	San Lucas Tolimán	4	Abril	2023-06-04T00:00:00	2024-11-08T10:00:00	3	Temperatura mínima	19.7
116548	7	Sololá	713	San Lucas Tolimán	10	San Lucas Tolimán	4	Abril	2023-06-04T00:00:00	2024-11-08T10:00:00	5	Humedad	56
116549	7	Sololá	713	San Lucas Tolimán	10	San Lucas Tolimán	4	Abril	2023-06-04T00:00:00	2024-11-08T10:00:00	6	Velocidad del viento	11.3
116550	7	Sololá	713	San Lucas Tolimán	10	San Lucas Tolimán	4	Abril	2023-06-04T00:00:00	2024-11-08T10:00:00	7	Dirección del viento	11.27
116551	7	Sololá	713	San Lucas Tolimán	10	San Lucas Tolimán	4	Abril	2023-06-04T00:00:00	2024-11-08T10:00:00	1	Precipitación	0
116552	7	Sololá	713	San Lucas Tolimán	10	San Lucas Tolimán	4	Abril	2023-06-04T00:00:00	2024-11-08T10:00:00	8	Radiación solar	497
116553	7	Sololá	713	San Lucas Tolimán	10	San Lucas Tolimán	4	Abril	2023-06-04T00:00:00	2024-11-08T11:00:00	2	Temperatura media	21.9
116554	7	Sololá	713	San Lucas Tolimán	10	San Lucas Tolimán	4	Abril	2023-06-04T00:00:00	2024-11-08T11:00:00	4	Temperatura máxima	22
116555	7	Sololá	713	San Lucas Tolimán	10	San Lucas Tolimán	4	Abril	2023-06-04T00:00:00	2024-11-08T11:00:00	3	Temperatura mínima	20.7
116556	7	Sololá	713	San Lucas Tolimán	10	San Lucas Tolimán	4	Abril	2023-06-04T00:00:00	2024-11-08T11:00:00	5	Humedad	52
116557	7	Sololá	713	San Lucas Tolimán	10	San Lucas Tolimán	4	Abril	2023-06-04T00:00:00	2024-11-08T11:00:00	6	Velocidad del viento	11.3
116558	7	Sololá	713	San Lucas Tolimán	10	San Lucas Tolimán	4	Abril	2023-06-04T00:00:00	2024-11-08T11:00:00	7	Dirección del viento	11.27
116559	7	Sololá	713	San Lucas Tolimán	10	San Lucas Tolimán	4	Abril	2023-06-04T00:00:00	2024-11-08T11:00:00	1	Precipitación	0
116560	7	Sololá	713	San Lucas Tolimán	10	San Lucas Tolimán	4	Abril	2023-06-04T00:00:00	2024-11-08T11:00:00	8	Radiación solar	1004
116561	7	Sololá	713	San Lucas Tolimán	10	San Lucas Tolimán	4	Abril	2023-06-04T00:00:00	2024-11-08T12:00:00	2	Temperatura media	22.6
116562	7	Sololá	713	San Lucas Tolimán	10	San Lucas Tolimán	4	Abril	2023-06-04T00:00:00	2024-11-08T12:00:00	4	Temperatura máxima	22.8
116563	7	Sololá	713	San Lucas Tolimán	10	San Lucas Tolimán	4	Abril	2023-06-04T00:00:00	2024-11-08T12:00:00	3	Temperatura mínima	21.9
116564	7	Sololá	713	San Lucas Tolimán	10	San Lucas Tolimán	4	Abril	2023-06-04T00:00:00	2024-11-08T12:00:00	5	Humedad	53
116565	7	Sololá	713	San Lucas Tolimán	10	San Lucas Tolimán	4	Abril	2023-06-04T00:00:00	2024-11-08T12:00:00	6	Velocidad del viento	9.7
116566	7	Sololá	713	San Lucas Tolimán	10	San Lucas Tolimán	4	Abril	2023-06-04T00:00:00	2024-11-08T12:00:00	7	Dirección del viento	9.66
116567	7	Sololá	713	San Lucas Tolimán	10	San Lucas Tolimán	4	Abril	2023-06-04T00:00:00	2024-11-08T12:00:00	1	Precipitación	0
116568	7	Sololá	713	San Lucas Tolimán	10	San Lucas Tolimán	4	Abril	2023-06-04T00:00:00	2024-11-08T12:00:00	8	Radiación solar	1092
116569	7	Sololá	713	San Lucas Tolimán	10	San Lucas Tolimán	4	Abril	2023-06-04T00:00:00	2024-11-08T13:00:00	2	Temperatura media	22.6
116570	7	Sololá	713	San Lucas Tolimán	10	San Lucas Tolimán	4	Abril	2023-06-04T00:00:00	2024-11-08T13:00:00	4	Temperatura máxima	22.8
116571	7	Sololá	713	San Lucas Tolimán	10	San Lucas Tolimán	4	Abril	2023-06-04T00:00:00	2024-11-08T13:00:00	3	Temperatura mínima	22
116572	7	Sololá	713	San Lucas Tolimán	10	San Lucas Tolimán	4	Abril	2023-06-04T00:00:00	2024-11-08T13:00:00	5	Humedad	53
116573	7	Sololá	713	San Lucas Tolimán	10	San Lucas Tolimán	4	Abril	2023-06-04T00:00:00	2024-11-08T13:00:00	6	Velocidad del viento	9.7
116574	7	Sololá	713	San Lucas Tolimán	10	San Lucas Tolimán	4	Abril	2023-06-04T00:00:00	2024-11-08T13:00:00	7	Dirección del viento	9.66
116575	7	Sololá	713	San Lucas Tolimán	10	San Lucas Tolimán	4	Abril	2023-06-04T00:00:00	2024-11-08T13:00:00	1	Precipitación	0
116576	7	Sololá	713	San Lucas Tolimán	10	San Lucas Tolimán	4	Abril	2023-06-04T00:00:00	2024-11-08T13:00:00	8	Radiación solar	958
116577	7	Sololá	713	San Lucas Tolimán	10	San Lucas Tolimán	4	Abril	2023-06-04T00:00:00	2024-11-08T14:00:00	2	Temperatura media	21.5
116578	7	Sololá	713	San Lucas Tolimán	10	San Lucas Tolimán	4	Abril	2023-06-04T00:00:00	2024-11-08T14:00:00	4	Temperatura máxima	22.9
116579	7	Sololá	713	San Lucas Tolimán	10	San Lucas Tolimán	4	Abril	2023-06-04T00:00:00	2024-11-08T14:00:00	3	Temperatura mínima	21.4
116580	7	Sololá	713	San Lucas Tolimán	10	San Lucas Tolimán	4	Abril	2023-06-04T00:00:00	2024-11-08T14:00:00	5	Humedad	60
116581	7	Sololá	713	San Lucas Tolimán	10	San Lucas Tolimán	4	Abril	2023-06-04T00:00:00	2024-11-08T14:00:00	6	Velocidad del viento	11.3
116582	7	Sololá	713	San Lucas Tolimán	10	San Lucas Tolimán	4	Abril	2023-06-04T00:00:00	2024-11-08T14:00:00	7	Dirección del viento	11.27
116583	7	Sololá	713	San Lucas Tolimán	10	San Lucas Tolimán	4	Abril	2023-06-04T00:00:00	2024-11-08T14:00:00	1	Precipitación	0
116584	7	Sololá	713	San Lucas Tolimán	10	San Lucas Tolimán	4	Abril	2023-06-04T00:00:00	2024-11-08T14:00:00	8	Radiación solar	706
116585	7	Sololá	713	San Lucas Tolimán	10	San Lucas Tolimán	4	Abril	2023-06-04T00:00:00	2024-11-08T15:00:00	2	Temperatura media	21.1
116586	7	Sololá	713	San Lucas Tolimán	10	San Lucas Tolimán	4	Abril	2023-06-04T00:00:00	2024-11-08T15:00:00	4	Temperatura máxima	21.5
116587	7	Sololá	713	San Lucas Tolimán	10	San Lucas Tolimán	4	Abril	2023-06-04T00:00:00	2024-11-08T15:00:00	3	Temperatura mínima	20.4
116588	7	Sololá	713	San Lucas Tolimán	10	San Lucas Tolimán	4	Abril	2023-06-04T00:00:00	2024-11-08T15:00:00	5	Humedad	62
116589	7	Sololá	713	San Lucas Tolimán	10	San Lucas Tolimán	4	Abril	2023-06-04T00:00:00	2024-11-08T15:00:00	6	Velocidad del viento	8
116590	7	Sololá	713	San Lucas Tolimán	10	San Lucas Tolimán	4	Abril	2023-06-04T00:00:00	2024-11-08T15:00:00	7	Dirección del viento	8.05
116591	7	Sololá	713	San Lucas Tolimán	10	San Lucas Tolimán	4	Abril	2023-06-04T00:00:00	2024-11-08T15:00:00	1	Precipitación	0
116592	7	Sololá	713	San Lucas Tolimán	10	San Lucas Tolimán	4	Abril	2023-06-04T00:00:00	2024-11-08T15:00:00	8	Radiación solar	316
116593	7	Sololá	713	San Lucas Tolimán	10	San Lucas Tolimán	4	Abril	2023-06-04T00:00:00	2024-11-08T16:00:00	2	Temperatura media	20.2
116594	7	Sololá	713	San Lucas Tolimán	10	San Lucas Tolimán	4	Abril	2023-06-04T00:00:00	2024-11-08T16:00:00	4	Temperatura máxima	21.4
116595	7	Sololá	713	San Lucas Tolimán	10	San Lucas Tolimán	4	Abril	2023-06-04T00:00:00	2024-11-08T16:00:00	3	Temperatura mínima	20.2
116596	7	Sololá	713	San Lucas Tolimán	10	San Lucas Tolimán	4	Abril	2023-06-04T00:00:00	2024-11-08T16:00:00	5	Humedad	63
116597	7	Sololá	713	San Lucas Tolimán	10	San Lucas Tolimán	4	Abril	2023-06-04T00:00:00	2024-11-08T16:00:00	6	Velocidad del viento	9.7
116598	7	Sololá	713	San Lucas Tolimán	10	San Lucas Tolimán	4	Abril	2023-06-04T00:00:00	2024-11-08T16:00:00	7	Dirección del viento	9.66
116599	7	Sololá	713	San Lucas Tolimán	10	San Lucas Tolimán	4	Abril	2023-06-04T00:00:00	2024-11-08T16:00:00	1	Precipitación	0
116600	7	Sololá	713	San Lucas Tolimán	10	San Lucas Tolimán	4	Abril	2023-06-04T00:00:00	2024-11-08T16:00:00	8	Radiación solar	304
116601	7	Sololá	713	San Lucas Tolimán	10	San Lucas Tolimán	4	Abril	2023-06-04T00:00:00	2024-11-08T17:00:00	2	Temperatura media	19.9
116602	7	Sololá	713	San Lucas Tolimán	10	San Lucas Tolimán	4	Abril	2023-06-04T00:00:00	2024-11-08T17:00:00	4	Temperatura máxima	20.7
116603	7	Sololá	713	San Lucas Tolimán	10	San Lucas Tolimán	4	Abril	2023-06-04T00:00:00	2024-11-08T17:00:00	3	Temperatura mínima	19.9
116604	7	Sololá	713	San Lucas Tolimán	10	San Lucas Tolimán	4	Abril	2023-06-04T00:00:00	2024-11-08T17:00:00	5	Humedad	62
116605	7	Sololá	713	San Lucas Tolimán	10	San Lucas Tolimán	4	Abril	2023-06-04T00:00:00	2024-11-08T17:00:00	6	Velocidad del viento	9.7
116606	7	Sololá	713	San Lucas Tolimán	10	San Lucas Tolimán	4	Abril	2023-06-04T00:00:00	2024-11-08T17:00:00	7	Dirección del viento	9.66
116607	7	Sololá	713	San Lucas Tolimán	10	San Lucas Tolimán	4	Abril	2023-06-04T00:00:00	2024-11-08T17:00:00	1	Precipitación	0
116608	7	Sololá	713	San Lucas Tolimán	10	San Lucas Tolimán	4	Abril	2023-06-04T00:00:00	2024-11-08T17:00:00	8	Radiación solar	297
116609	7	Sololá	713	San Lucas Tolimán	10	San Lucas Tolimán	4	Abril	2023-06-04T00:00:00	2024-11-08T18:00:00	2	Temperatura media	19.1
116610	7	Sololá	713	San Lucas Tolimán	10	San Lucas Tolimán	4	Abril	2023-06-04T00:00:00	2024-11-08T18:00:00	4	Temperatura máxima	19.9
116611	7	Sololá	713	San Lucas Tolimán	10	San Lucas Tolimán	4	Abril	2023-06-04T00:00:00	2024-11-08T18:00:00	3	Temperatura mínima	19.1
116612	7	Sololá	713	San Lucas Tolimán	10	San Lucas Tolimán	4	Abril	2023-06-04T00:00:00	2024-11-08T18:00:00	5	Humedad	64
116613	7	Sololá	713	San Lucas Tolimán	10	San Lucas Tolimán	4	Abril	2023-06-04T00:00:00	2024-11-08T18:00:00	6	Velocidad del viento	6.4
116614	7	Sololá	713	San Lucas Tolimán	10	San Lucas Tolimán	4	Abril	2023-06-04T00:00:00	2024-11-08T18:00:00	7	Dirección del viento	6.44
116615	7	Sololá	713	San Lucas Tolimán	10	San Lucas Tolimán	4	Abril	2023-06-04T00:00:00	2024-11-08T18:00:00	1	Precipitación	0
116616	7	Sololá	713	San Lucas Tolimán	10	San Lucas Tolimán	4	Abril	2023-06-04T00:00:00	2024-11-08T18:00:00	8	Radiación solar	96
116617	7	Sololá	713	San Lucas Tolimán	10	San Lucas Tolimán	4	Abril	2023-06-04T00:00:00	2024-11-08T19:00:00	2	Temperatura media	18.9
116618	7	Sololá	713	San Lucas Tolimán	10	San Lucas Tolimán	4	Abril	2023-06-04T00:00:00	2024-11-08T19:00:00	4	Temperatura máxima	19.1
116619	7	Sololá	713	San Lucas Tolimán	10	San Lucas Tolimán	4	Abril	2023-06-04T00:00:00	2024-11-08T19:00:00	3	Temperatura mínima	18.7
116620	7	Sololá	713	San Lucas Tolimán	10	San Lucas Tolimán	4	Abril	2023-06-04T00:00:00	2024-11-08T19:00:00	5	Humedad	64
116621	7	Sololá	713	San Lucas Tolimán	10	San Lucas Tolimán	4	Abril	2023-06-04T00:00:00	2024-11-08T19:00:00	6	Velocidad del viento	8
116622	7	Sololá	713	San Lucas Tolimán	10	San Lucas Tolimán	4	Abril	2023-06-04T00:00:00	2024-11-08T19:00:00	7	Dirección del viento	8.05
116623	7	Sololá	713	San Lucas Tolimán	10	San Lucas Tolimán	4	Abril	2023-06-04T00:00:00	2024-11-08T19:00:00	1	Precipitación	0
116624	7	Sololá	713	San Lucas Tolimán	10	San Lucas Tolimán	4	Abril	2023-06-04T00:00:00	2024-11-08T19:00:00	8	Radiación solar	0
116625	7	Sololá	713	San Lucas Tolimán	10	San Lucas Tolimán	4	Abril	2023-06-04T00:00:00	2024-11-08T20:00:00	2	Temperatura media	18.5
116626	7	Sololá	713	San Lucas Tolimán	10	San Lucas Tolimán	4	Abril	2023-06-04T00:00:00	2024-11-08T20:00:00	4	Temperatura máxima	18.9
116627	7	Sololá	713	San Lucas Tolimán	10	San Lucas Tolimán	4	Abril	2023-06-04T00:00:00	2024-11-08T20:00:00	3	Temperatura mínima	18.5
116628	7	Sololá	713	San Lucas Tolimán	10	San Lucas Tolimán	4	Abril	2023-06-04T00:00:00	2024-11-08T20:00:00	5	Humedad	65
116629	7	Sololá	713	San Lucas Tolimán	10	San Lucas Tolimán	4	Abril	2023-06-04T00:00:00	2024-11-08T20:00:00	6	Velocidad del viento	4.8
116630	7	Sololá	713	San Lucas Tolimán	10	San Lucas Tolimán	4	Abril	2023-06-04T00:00:00	2024-11-08T20:00:00	7	Dirección del viento	4.83
116631	7	Sololá	713	San Lucas Tolimán	10	San Lucas Tolimán	4	Abril	2023-06-04T00:00:00	2024-11-08T20:00:00	1	Precipitación	0
116632	7	Sololá	713	San Lucas Tolimán	10	San Lucas Tolimán	4	Abril	2023-06-04T00:00:00	2024-11-08T20:00:00	8	Radiación solar	0
116633	7	Sololá	713	San Lucas Tolimán	10	San Lucas Tolimán	4	Abril	2023-06-04T00:00:00	2024-11-08T21:00:00	2	Temperatura media	17.9
116634	7	Sololá	713	San Lucas Tolimán	10	San Lucas Tolimán	4	Abril	2023-06-04T00:00:00	2024-11-08T21:00:00	4	Temperatura máxima	18.5
116635	7	Sololá	713	San Lucas Tolimán	10	San Lucas Tolimán	4	Abril	2023-06-04T00:00:00	2024-11-08T21:00:00	3	Temperatura mínima	17.9
116636	7	Sololá	713	San Lucas Tolimán	10	San Lucas Tolimán	4	Abril	2023-06-04T00:00:00	2024-11-08T21:00:00	5	Humedad	66
116637	7	Sololá	713	San Lucas Tolimán	10	San Lucas Tolimán	4	Abril	2023-06-04T00:00:00	2024-11-08T21:00:00	6	Velocidad del viento	4.8
116638	7	Sololá	713	San Lucas Tolimán	10	San Lucas Tolimán	4	Abril	2023-06-04T00:00:00	2024-11-08T21:00:00	7	Dirección del viento	4.83
116639	7	Sololá	713	San Lucas Tolimán	10	San Lucas Tolimán	4	Abril	2023-06-04T00:00:00	2024-11-08T21:00:00	1	Precipitación	0
116640	7	Sololá	713	San Lucas Tolimán	10	San Lucas Tolimán	4	Abril	2023-06-04T00:00:00	2024-11-08T21:00:00	8	Radiación solar	0
116641	7	Sololá	713	San Lucas Tolimán	10	San Lucas Tolimán	4	Abril	2023-06-04T00:00:00	2024-11-08T22:00:00	2	Temperatura media	17.4
116642	7	Sololá	713	San Lucas Tolimán	10	San Lucas Tolimán	4	Abril	2023-06-04T00:00:00	2024-11-08T22:00:00	4	Temperatura máxima	17.9
116643	7	Sololá	713	San Lucas Tolimán	10	San Lucas Tolimán	4	Abril	2023-06-04T00:00:00	2024-11-08T22:00:00	3	Temperatura mínima	17.4
116644	7	Sololá	713	San Lucas Tolimán	10	San Lucas Tolimán	4	Abril	2023-06-04T00:00:00	2024-11-08T22:00:00	5	Humedad	67
116645	7	Sololá	713	San Lucas Tolimán	10	San Lucas Tolimán	4	Abril	2023-06-04T00:00:00	2024-11-08T22:00:00	6	Velocidad del viento	4.8
116646	7	Sololá	713	San Lucas Tolimán	10	San Lucas Tolimán	4	Abril	2023-06-04T00:00:00	2024-11-08T22:00:00	7	Dirección del viento	4.83
116647	7	Sololá	713	San Lucas Tolimán	10	San Lucas Tolimán	4	Abril	2023-06-04T00:00:00	2024-11-08T22:00:00	1	Precipitación	0
116648	7	Sololá	713	San Lucas Tolimán	10	San Lucas Tolimán	4	Abril	2023-06-04T00:00:00	2024-11-08T22:00:00	8	Radiación solar	0
116649	7	Sololá	713	San Lucas Tolimán	10	San Lucas Tolimán	4	Abril	2023-06-04T00:00:00	2024-11-08T23:00:00	2	Temperatura media	17.1
116650	7	Sololá	713	San Lucas Tolimán	10	San Lucas Tolimán	4	Abril	2023-06-04T00:00:00	2024-11-08T23:00:00	4	Temperatura máxima	17.4
116651	7	Sololá	713	San Lucas Tolimán	10	San Lucas Tolimán	4	Abril	2023-06-04T00:00:00	2024-11-08T23:00:00	3	Temperatura mínima	17.1
116652	7	Sololá	713	San Lucas Tolimán	10	San Lucas Tolimán	4	Abril	2023-06-04T00:00:00	2024-11-08T23:00:00	5	Humedad	67
116653	7	Sololá	713	San Lucas Tolimán	10	San Lucas Tolimán	4	Abril	2023-06-04T00:00:00	2024-11-08T23:00:00	6	Velocidad del viento	4.8
116654	7	Sololá	713	San Lucas Tolimán	10	San Lucas Tolimán	4	Abril	2023-06-04T00:00:00	2024-11-08T23:00:00	7	Dirección del viento	4.83
116655	7	Sololá	713	San Lucas Tolimán	10	San Lucas Tolimán	4	Abril	2023-06-04T00:00:00	2024-11-08T23:00:00	1	Precipitación	0
116656	7	Sololá	713	San Lucas Tolimán	10	San Lucas Tolimán	4	Abril	2023-06-04T00:00:00	2024-11-08T23:00:00	8	Radiación solar	0
116657	7	Sololá	713	San Lucas Tolimán	10	San Lucas Tolimán	4	Abril	2023-07-04T00:00:00	2024-11-08T00:00:00	2	Temperatura media	17.1
116658	7	Sololá	713	San Lucas Tolimán	10	San Lucas Tolimán	4	Abril	2023-07-04T00:00:00	2024-11-08T00:00:00	4	Temperatura máxima	17.3
116659	7	Sololá	713	San Lucas Tolimán	10	San Lucas Tolimán	4	Abril	2023-07-04T00:00:00	2024-11-08T00:00:00	3	Temperatura mínima	17
116660	7	Sololá	713	San Lucas Tolimán	10	San Lucas Tolimán	4	Abril	2023-07-04T00:00:00	2024-11-08T00:00:00	5	Humedad	67
116661	7	Sololá	713	San Lucas Tolimán	10	San Lucas Tolimán	4	Abril	2023-07-04T00:00:00	2024-11-08T00:00:00	6	Velocidad del viento	6.4
116662	7	Sololá	713	San Lucas Tolimán	10	San Lucas Tolimán	4	Abril	2023-07-04T00:00:00	2024-11-08T00:00:00	7	Dirección del viento	6.44
116663	7	Sololá	713	San Lucas Tolimán	10	San Lucas Tolimán	4	Abril	2023-07-04T00:00:00	2024-11-08T00:00:00	1	Precipitación	0
116664	7	Sololá	713	San Lucas Tolimán	10	San Lucas Tolimán	4	Abril	2023-07-04T00:00:00	2024-11-08T00:00:00	8	Radiación solar	0
116665	7	Sololá	713	San Lucas Tolimán	10	San Lucas Tolimán	4	Abril	2023-07-04T00:00:00	2024-11-08T01:00:00	2	Temperatura media	17.1
116666	7	Sololá	713	San Lucas Tolimán	10	San Lucas Tolimán	4	Abril	2023-07-04T00:00:00	2024-11-08T01:00:00	4	Temperatura máxima	17.2
116667	7	Sololá	713	San Lucas Tolimán	10	San Lucas Tolimán	4	Abril	2023-07-04T00:00:00	2024-11-08T01:00:00	3	Temperatura mínima	17
116668	7	Sololá	713	San Lucas Tolimán	10	San Lucas Tolimán	4	Abril	2023-07-04T00:00:00	2024-11-08T01:00:00	5	Humedad	66
116669	7	Sololá	713	San Lucas Tolimán	10	San Lucas Tolimán	4	Abril	2023-07-04T00:00:00	2024-11-08T01:00:00	6	Velocidad del viento	6.4
116670	7	Sololá	713	San Lucas Tolimán	10	San Lucas Tolimán	4	Abril	2023-07-04T00:00:00	2024-11-08T01:00:00	7	Dirección del viento	6.44
116671	7	Sololá	713	San Lucas Tolimán	10	San Lucas Tolimán	4	Abril	2023-07-04T00:00:00	2024-11-08T01:00:00	1	Precipitación	0
116672	7	Sololá	713	San Lucas Tolimán	10	San Lucas Tolimán	4	Abril	2023-07-04T00:00:00	2024-11-08T01:00:00	8	Radiación solar	0
116673	7	Sololá	713	San Lucas Tolimán	10	San Lucas Tolimán	4	Abril	2023-07-04T00:00:00	2024-11-08T02:00:00	2	Temperatura media	16.2
116674	7	Sololá	713	San Lucas Tolimán	10	San Lucas Tolimán	4	Abril	2023-07-04T00:00:00	2024-11-08T02:00:00	4	Temperatura máxima	16.6
116675	7	Sololá	713	San Lucas Tolimán	10	San Lucas Tolimán	4	Abril	2023-07-04T00:00:00	2024-11-08T02:00:00	3	Temperatura mínima	15.7
116676	7	Sololá	713	San Lucas Tolimán	10	San Lucas Tolimán	4	Abril	2023-07-04T00:00:00	2024-11-08T02:00:00	5	Humedad	65
116677	7	Sololá	713	San Lucas Tolimán	10	San Lucas Tolimán	4	Abril	2023-07-04T00:00:00	2024-11-08T02:00:00	6	Velocidad del viento	5.3
116678	7	Sololá	713	San Lucas Tolimán	10	San Lucas Tolimán	4	Abril	2023-07-04T00:00:00	2024-11-08T02:00:00	7	Dirección del viento	5.36
116679	7	Sololá	713	San Lucas Tolimán	10	San Lucas Tolimán	4	Abril	2023-07-04T00:00:00	2024-11-08T02:00:00	1	Precipitación	0
116680	7	Sololá	713	San Lucas Tolimán	10	San Lucas Tolimán	4	Abril	2023-07-04T00:00:00	2024-11-08T02:00:00	8	Radiación solar	0
116681	7	Sololá	713	San Lucas Tolimán	10	San Lucas Tolimán	4	Abril	2023-07-04T00:00:00	2024-11-08T03:00:00	2	Temperatura media	15.6
116682	7	Sololá	713	San Lucas Tolimán	10	San Lucas Tolimán	4	Abril	2023-07-04T00:00:00	2024-11-08T03:00:00	4	Temperatura máxima	15.7
116683	7	Sololá	713	San Lucas Tolimán	10	San Lucas Tolimán	4	Abril	2023-07-04T00:00:00	2024-11-08T03:00:00	3	Temperatura mínima	15.3
116684	7	Sololá	713	San Lucas Tolimán	10	San Lucas Tolimán	4	Abril	2023-07-04T00:00:00	2024-11-08T03:00:00	5	Humedad	64
116685	7	Sololá	713	San Lucas Tolimán	10	San Lucas Tolimán	4	Abril	2023-07-04T00:00:00	2024-11-08T03:00:00	6	Velocidad del viento	3.2
116686	7	Sololá	713	San Lucas Tolimán	10	San Lucas Tolimán	4	Abril	2023-07-04T00:00:00	2024-11-08T03:00:00	7	Dirección del viento	3.22
116687	7	Sololá	713	San Lucas Tolimán	10	San Lucas Tolimán	4	Abril	2023-07-04T00:00:00	2024-11-08T03:00:00	1	Precipitación	0
116688	7	Sololá	713	San Lucas Tolimán	10	San Lucas Tolimán	4	Abril	2023-07-04T00:00:00	2024-11-08T03:00:00	8	Radiación solar	0
116689	7	Sololá	713	San Lucas Tolimán	10	San Lucas Tolimán	4	Abril	2023-07-04T00:00:00	2024-11-08T04:00:00	2	Temperatura media	15.1
116690	7	Sololá	713	San Lucas Tolimán	10	San Lucas Tolimán	4	Abril	2023-07-04T00:00:00	2024-11-08T04:00:00	4	Temperatura máxima	15.7
116691	7	Sololá	713	San Lucas Tolimán	10	San Lucas Tolimán	4	Abril	2023-07-04T00:00:00	2024-11-08T04:00:00	3	Temperatura mínima	15.1
116692	7	Sololá	713	San Lucas Tolimán	10	San Lucas Tolimán	4	Abril	2023-07-04T00:00:00	2024-11-08T04:00:00	5	Humedad	65
116693	7	Sololá	713	San Lucas Tolimán	10	San Lucas Tolimán	4	Abril	2023-07-04T00:00:00	2024-11-08T04:00:00	6	Velocidad del viento	3.2
116694	7	Sololá	713	San Lucas Tolimán	10	San Lucas Tolimán	4	Abril	2023-07-04T00:00:00	2024-11-08T04:00:00	7	Dirección del viento	3.22
116695	7	Sololá	713	San Lucas Tolimán	10	San Lucas Tolimán	4	Abril	2023-07-04T00:00:00	2024-11-08T04:00:00	1	Precipitación	0
116696	7	Sololá	713	San Lucas Tolimán	10	San Lucas Tolimán	4	Abril	2023-07-04T00:00:00	2024-11-08T04:00:00	8	Radiación solar	0
116697	7	Sololá	713	San Lucas Tolimán	10	San Lucas Tolimán	4	Abril	2023-07-04T00:00:00	2024-11-08T05:00:00	2	Temperatura media	14.9
116698	7	Sololá	713	San Lucas Tolimán	10	San Lucas Tolimán	4	Abril	2023-07-04T00:00:00	2024-11-08T05:00:00	4	Temperatura máxima	15.1
116699	7	Sololá	713	San Lucas Tolimán	10	San Lucas Tolimán	4	Abril	2023-07-04T00:00:00	2024-11-08T05:00:00	3	Temperatura mínima	14.7
116700	7	Sololá	713	San Lucas Tolimán	10	San Lucas Tolimán	4	Abril	2023-07-04T00:00:00	2024-11-08T05:00:00	5	Humedad	63
116701	7	Sololá	713	San Lucas Tolimán	10	San Lucas Tolimán	4	Abril	2023-07-04T00:00:00	2024-11-08T05:00:00	6	Velocidad del viento	1.6
116702	7	Sololá	713	San Lucas Tolimán	10	San Lucas Tolimán	4	Abril	2023-07-04T00:00:00	2024-11-08T05:00:00	7	Dirección del viento	1.61
116703	7	Sololá	713	San Lucas Tolimán	10	San Lucas Tolimán	4	Abril	2023-07-04T00:00:00	2024-11-08T05:00:00	1	Precipitación	0
116704	7	Sololá	713	San Lucas Tolimán	10	San Lucas Tolimán	4	Abril	2023-07-04T00:00:00	2024-11-08T05:00:00	8	Radiación solar	0
116705	7	Sololá	713	San Lucas Tolimán	10	San Lucas Tolimán	4	Abril	2023-07-04T00:00:00	2024-11-08T06:00:00	2	Temperatura media	14.6
116706	7	Sololá	713	San Lucas Tolimán	10	San Lucas Tolimán	4	Abril	2023-07-04T00:00:00	2024-11-08T06:00:00	4	Temperatura máxima	15.1
116707	7	Sololá	713	San Lucas Tolimán	10	San Lucas Tolimán	4	Abril	2023-07-04T00:00:00	2024-11-08T06:00:00	3	Temperatura mínima	14.6
116708	7	Sololá	713	San Lucas Tolimán	10	San Lucas Tolimán	4	Abril	2023-07-04T00:00:00	2024-11-08T06:00:00	5	Humedad	63
116709	7	Sololá	713	San Lucas Tolimán	10	San Lucas Tolimán	4	Abril	2023-07-04T00:00:00	2024-11-08T06:00:00	6	Velocidad del viento	0
116710	7	Sololá	713	San Lucas Tolimán	10	San Lucas Tolimán	4	Abril	2023-07-04T00:00:00	2024-11-08T06:00:00	7	Dirección del viento	0
116711	7	Sololá	713	San Lucas Tolimán	10	San Lucas Tolimán	4	Abril	2023-07-04T00:00:00	2024-11-08T06:00:00	1	Precipitación	0
116712	7	Sololá	713	San Lucas Tolimán	10	San Lucas Tolimán	4	Abril	2023-07-04T00:00:00	2024-11-08T06:00:00	8	Radiación solar	0
116713	7	Sololá	713	San Lucas Tolimán	10	San Lucas Tolimán	4	Abril	2023-07-04T00:00:00	2024-11-08T07:00:00	2	Temperatura media	16.1
116714	7	Sololá	713	San Lucas Tolimán	10	San Lucas Tolimán	4	Abril	2023-07-04T00:00:00	2024-11-08T07:00:00	4	Temperatura máxima	16.1
116715	7	Sololá	713	San Lucas Tolimán	10	San Lucas Tolimán	4	Abril	2023-07-04T00:00:00	2024-11-08T07:00:00	3	Temperatura mínima	14.6
116716	7	Sololá	713	San Lucas Tolimán	10	San Lucas Tolimán	4	Abril	2023-07-04T00:00:00	2024-11-08T07:00:00	5	Humedad	61
116717	7	Sololá	713	San Lucas Tolimán	10	San Lucas Tolimán	4	Abril	2023-07-04T00:00:00	2024-11-08T07:00:00	6	Velocidad del viento	0
116718	7	Sololá	713	San Lucas Tolimán	10	San Lucas Tolimán	4	Abril	2023-07-04T00:00:00	2024-11-08T07:00:00	7	Dirección del viento	0
116719	7	Sololá	713	San Lucas Tolimán	10	San Lucas Tolimán	4	Abril	2023-07-04T00:00:00	2024-11-08T07:00:00	1	Precipitación	0
116720	7	Sololá	713	San Lucas Tolimán	10	San Lucas Tolimán	4	Abril	2023-07-04T00:00:00	2024-11-08T07:00:00	8	Radiación solar	38
116721	7	Sololá	713	San Lucas Tolimán	10	San Lucas Tolimán	4	Abril	2023-07-04T00:00:00	2024-11-08T08:00:00	2	Temperatura media	19.6
116722	7	Sololá	713	San Lucas Tolimán	10	San Lucas Tolimán	4	Abril	2023-07-04T00:00:00	2024-11-08T08:00:00	4	Temperatura máxima	19.6
116723	7	Sololá	713	San Lucas Tolimán	10	San Lucas Tolimán	4	Abril	2023-07-04T00:00:00	2024-11-08T08:00:00	3	Temperatura mínima	16.1
116724	7	Sololá	713	San Lucas Tolimán	10	San Lucas Tolimán	4	Abril	2023-07-04T00:00:00	2024-11-08T08:00:00	5	Humedad	52
116725	7	Sololá	713	San Lucas Tolimán	10	San Lucas Tolimán	4	Abril	2023-07-04T00:00:00	2024-11-08T08:00:00	6	Velocidad del viento	3.2
116726	7	Sololá	713	San Lucas Tolimán	10	San Lucas Tolimán	4	Abril	2023-07-04T00:00:00	2024-11-08T08:00:00	7	Dirección del viento	3.22
116727	7	Sololá	713	San Lucas Tolimán	10	San Lucas Tolimán	4	Abril	2023-07-04T00:00:00	2024-11-08T08:00:00	1	Precipitación	0
116728	7	Sololá	713	San Lucas Tolimán	10	San Lucas Tolimán	4	Abril	2023-07-04T00:00:00	2024-11-08T08:00:00	8	Radiación solar	217
116729	7	Sololá	713	San Lucas Tolimán	10	San Lucas Tolimán	4	Abril	2023-07-04T00:00:00	2024-11-08T09:00:00	2	Temperatura media	22.3
116730	7	Sololá	713	San Lucas Tolimán	10	San Lucas Tolimán	4	Abril	2023-07-04T00:00:00	2024-11-08T09:00:00	4	Temperatura máxima	22.3
116731	7	Sololá	713	San Lucas Tolimán	10	San Lucas Tolimán	4	Abril	2023-07-04T00:00:00	2024-11-08T09:00:00	3	Temperatura mínima	19.6
116732	7	Sololá	713	San Lucas Tolimán	10	San Lucas Tolimán	4	Abril	2023-07-04T00:00:00	2024-11-08T09:00:00	5	Humedad	44
116733	7	Sololá	713	San Lucas Tolimán	10	San Lucas Tolimán	4	Abril	2023-07-04T00:00:00	2024-11-08T09:00:00	6	Velocidad del viento	3.2
116734	7	Sololá	713	San Lucas Tolimán	10	San Lucas Tolimán	4	Abril	2023-07-04T00:00:00	2024-11-08T09:00:00	7	Dirección del viento	3.22
116735	7	Sololá	713	San Lucas Tolimán	10	San Lucas Tolimán	4	Abril	2023-07-04T00:00:00	2024-11-08T09:00:00	1	Precipitación	0
116736	7	Sololá	713	San Lucas Tolimán	10	San Lucas Tolimán	4	Abril	2023-07-04T00:00:00	2024-11-08T09:00:00	8	Radiación solar	455
116737	7	Sololá	713	San Lucas Tolimán	10	San Lucas Tolimán	4	Abril	2023-07-04T00:00:00	2024-11-08T10:00:00	2	Temperatura media	23.2
116738	7	Sololá	713	San Lucas Tolimán	10	San Lucas Tolimán	4	Abril	2023-07-04T00:00:00	2024-11-08T10:00:00	4	Temperatura máxima	23.5
116739	7	Sololá	713	San Lucas Tolimán	10	San Lucas Tolimán	4	Abril	2023-07-04T00:00:00	2024-11-08T10:00:00	3	Temperatura mínima	22.4
116740	7	Sololá	713	San Lucas Tolimán	10	San Lucas Tolimán	4	Abril	2023-07-04T00:00:00	2024-11-08T10:00:00	5	Humedad	49
116741	7	Sololá	713	San Lucas Tolimán	10	San Lucas Tolimán	4	Abril	2023-07-04T00:00:00	2024-11-08T10:00:00	6	Velocidad del viento	4.8
116742	7	Sololá	713	San Lucas Tolimán	10	San Lucas Tolimán	4	Abril	2023-07-04T00:00:00	2024-11-08T10:00:00	7	Dirección del viento	4.83
116743	7	Sololá	713	San Lucas Tolimán	10	San Lucas Tolimán	4	Abril	2023-07-04T00:00:00	2024-11-08T10:00:00	1	Precipitación	0
116744	7	Sololá	713	San Lucas Tolimán	10	San Lucas Tolimán	4	Abril	2023-07-04T00:00:00	2024-11-08T10:00:00	8	Radiación solar	784
116745	7	Sololá	713	San Lucas Tolimán	10	San Lucas Tolimán	4	Abril	2023-07-04T00:00:00	2024-11-08T11:00:00	2	Temperatura media	22.8
116746	7	Sololá	713	San Lucas Tolimán	10	San Lucas Tolimán	4	Abril	2023-07-04T00:00:00	2024-11-08T11:00:00	4	Temperatura máxima	23.2
116747	7	Sololá	713	San Lucas Tolimán	10	San Lucas Tolimán	4	Abril	2023-07-04T00:00:00	2024-11-08T11:00:00	3	Temperatura mínima	22.5
116748	7	Sololá	713	San Lucas Tolimán	10	San Lucas Tolimán	4	Abril	2023-07-04T00:00:00	2024-11-08T11:00:00	5	Humedad	52
116749	7	Sololá	713	San Lucas Tolimán	10	San Lucas Tolimán	4	Abril	2023-07-04T00:00:00	2024-11-08T11:00:00	6	Velocidad del viento	9.7
116750	7	Sololá	713	San Lucas Tolimán	10	San Lucas Tolimán	4	Abril	2023-07-04T00:00:00	2024-11-08T11:00:00	7	Dirección del viento	9.66
116751	7	Sololá	713	San Lucas Tolimán	10	San Lucas Tolimán	4	Abril	2023-07-04T00:00:00	2024-11-08T11:00:00	1	Precipitación	0
116752	7	Sololá	713	San Lucas Tolimán	10	San Lucas Tolimán	4	Abril	2023-07-04T00:00:00	2024-11-08T11:00:00	8	Radiación solar	954
116753	7	Sololá	713	San Lucas Tolimán	10	San Lucas Tolimán	4	Abril	2023-07-04T00:00:00	2024-11-08T12:00:00	2	Temperatura media	22.6
116754	7	Sololá	713	San Lucas Tolimán	10	San Lucas Tolimán	4	Abril	2023-07-04T00:00:00	2024-11-08T12:00:00	4	Temperatura máxima	23.2
116755	7	Sololá	713	San Lucas Tolimán	10	San Lucas Tolimán	4	Abril	2023-07-04T00:00:00	2024-11-08T12:00:00	3	Temperatura mínima	22.1
116756	7	Sololá	713	San Lucas Tolimán	10	San Lucas Tolimán	4	Abril	2023-07-04T00:00:00	2024-11-08T12:00:00	5	Humedad	53
116757	7	Sololá	713	San Lucas Tolimán	10	San Lucas Tolimán	4	Abril	2023-07-04T00:00:00	2024-11-08T12:00:00	6	Velocidad del viento	12.9
116758	7	Sololá	713	San Lucas Tolimán	10	San Lucas Tolimán	4	Abril	2023-07-04T00:00:00	2024-11-08T12:00:00	7	Dirección del viento	12.87
116759	7	Sololá	713	San Lucas Tolimán	10	San Lucas Tolimán	4	Abril	2023-07-04T00:00:00	2024-11-08T12:00:00	1	Precipitación	0
116760	7	Sololá	713	San Lucas Tolimán	10	San Lucas Tolimán	4	Abril	2023-07-04T00:00:00	2024-11-08T12:00:00	8	Radiación solar	1063
116761	7	Sololá	713	San Lucas Tolimán	10	San Lucas Tolimán	4	Abril	2023-07-04T00:00:00	2024-11-08T13:00:00	2	Temperatura media	22.9
116762	7	Sololá	713	San Lucas Tolimán	10	San Lucas Tolimán	4	Abril	2023-07-04T00:00:00	2024-11-08T13:00:00	4	Temperatura máxima	23
116763	7	Sololá	713	San Lucas Tolimán	10	San Lucas Tolimán	4	Abril	2023-07-04T00:00:00	2024-11-08T13:00:00	3	Temperatura mínima	22.2
116764	7	Sololá	713	San Lucas Tolimán	10	San Lucas Tolimán	4	Abril	2023-07-04T00:00:00	2024-11-08T13:00:00	5	Humedad	55
116765	7	Sololá	713	San Lucas Tolimán	10	San Lucas Tolimán	4	Abril	2023-07-04T00:00:00	2024-11-08T13:00:00	6	Velocidad del viento	12.9
116766	7	Sololá	713	San Lucas Tolimán	10	San Lucas Tolimán	4	Abril	2023-07-04T00:00:00	2024-11-08T13:00:00	7	Dirección del viento	12.87
116767	7	Sololá	713	San Lucas Tolimán	10	San Lucas Tolimán	4	Abril	2023-07-04T00:00:00	2024-11-08T13:00:00	1	Precipitación	0
116768	7	Sololá	713	San Lucas Tolimán	10	San Lucas Tolimán	4	Abril	2023-07-04T00:00:00	2024-11-08T13:00:00	8	Radiación solar	1086
116769	7	Sololá	713	San Lucas Tolimán	10	San Lucas Tolimán	4	Abril	2023-07-04T00:00:00	2024-11-08T14:00:00	2	Temperatura media	22.4
116770	7	Sololá	713	San Lucas Tolimán	10	San Lucas Tolimán	4	Abril	2023-07-04T00:00:00	2024-11-08T14:00:00	4	Temperatura máxima	22.8
116771	7	Sololá	713	San Lucas Tolimán	10	San Lucas Tolimán	4	Abril	2023-07-04T00:00:00	2024-11-08T14:00:00	3	Temperatura mínima	22.3
116772	7	Sololá	713	San Lucas Tolimán	10	San Lucas Tolimán	4	Abril	2023-07-04T00:00:00	2024-11-08T14:00:00	5	Humedad	57
116773	7	Sololá	713	San Lucas Tolimán	10	San Lucas Tolimán	4	Abril	2023-07-04T00:00:00	2024-11-08T14:00:00	6	Velocidad del viento	9.7
116774	7	Sololá	713	San Lucas Tolimán	10	San Lucas Tolimán	4	Abril	2023-07-04T00:00:00	2024-11-08T14:00:00	7	Dirección del viento	9.66
116775	7	Sololá	713	San Lucas Tolimán	10	San Lucas Tolimán	4	Abril	2023-07-04T00:00:00	2024-11-08T14:00:00	1	Precipitación	0
116776	7	Sololá	713	San Lucas Tolimán	10	San Lucas Tolimán	4	Abril	2023-07-04T00:00:00	2024-11-08T14:00:00	8	Radiación solar	978
116777	7	Sololá	713	San Lucas Tolimán	10	San Lucas Tolimán	4	Abril	2023-07-04T00:00:00	2024-11-08T15:00:00	2	Temperatura media	22.7
116778	7	Sololá	713	San Lucas Tolimán	10	San Lucas Tolimán	4	Abril	2023-07-04T00:00:00	2024-11-08T15:00:00	4	Temperatura máxima	22.8
116779	7	Sololá	713	San Lucas Tolimán	10	San Lucas Tolimán	4	Abril	2023-07-04T00:00:00	2024-11-08T15:00:00	3	Temperatura mínima	22.1
116780	7	Sololá	713	San Lucas Tolimán	10	San Lucas Tolimán	4	Abril	2023-07-04T00:00:00	2024-11-08T15:00:00	5	Humedad	58
116781	7	Sololá	713	San Lucas Tolimán	10	San Lucas Tolimán	4	Abril	2023-07-04T00:00:00	2024-11-08T15:00:00	6	Velocidad del viento	9.7
116782	7	Sololá	713	San Lucas Tolimán	10	San Lucas Tolimán	4	Abril	2023-07-04T00:00:00	2024-11-08T15:00:00	7	Dirección del viento	9.66
116783	7	Sololá	713	San Lucas Tolimán	10	San Lucas Tolimán	4	Abril	2023-07-04T00:00:00	2024-11-08T15:00:00	1	Precipitación	0
116784	7	Sololá	713	San Lucas Tolimán	10	San Lucas Tolimán	4	Abril	2023-07-04T00:00:00	2024-11-08T15:00:00	8	Radiación solar	860
116785	7	Sololá	713	San Lucas Tolimán	10	San Lucas Tolimán	4	Abril	2023-07-04T00:00:00	2024-11-08T16:00:00	2	Temperatura media	19.9
116786	7	Sololá	713	San Lucas Tolimán	10	San Lucas Tolimán	4	Abril	2023-07-04T00:00:00	2024-11-08T16:00:00	4	Temperatura máxima	22.7
116787	7	Sololá	713	San Lucas Tolimán	10	San Lucas Tolimán	4	Abril	2023-07-04T00:00:00	2024-11-08T16:00:00	3	Temperatura mínima	19.9
116788	7	Sololá	713	San Lucas Tolimán	10	San Lucas Tolimán	4	Abril	2023-07-04T00:00:00	2024-11-08T16:00:00	5	Humedad	61
116789	7	Sololá	713	San Lucas Tolimán	10	San Lucas Tolimán	4	Abril	2023-07-04T00:00:00	2024-11-08T16:00:00	6	Velocidad del viento	8
116790	7	Sololá	713	San Lucas Tolimán	10	San Lucas Tolimán	4	Abril	2023-07-04T00:00:00	2024-11-08T16:00:00	7	Dirección del viento	8.05
116791	7	Sololá	713	San Lucas Tolimán	10	San Lucas Tolimán	4	Abril	2023-07-04T00:00:00	2024-11-08T16:00:00	1	Precipitación	0
116792	7	Sololá	713	San Lucas Tolimán	10	San Lucas Tolimán	4	Abril	2023-07-04T00:00:00	2024-11-08T16:00:00	8	Radiación solar	368
116793	7	Sololá	713	San Lucas Tolimán	10	San Lucas Tolimán	4	Abril	2023-07-04T00:00:00	2024-11-08T17:00:00	2	Temperatura media	19.6
116794	7	Sololá	713	San Lucas Tolimán	10	San Lucas Tolimán	4	Abril	2023-07-04T00:00:00	2024-11-08T17:00:00	4	Temperatura máxima	20.3
116795	7	Sololá	713	San Lucas Tolimán	10	San Lucas Tolimán	4	Abril	2023-07-04T00:00:00	2024-11-08T17:00:00	3	Temperatura mínima	19.3
116796	7	Sololá	713	San Lucas Tolimán	10	San Lucas Tolimán	4	Abril	2023-07-04T00:00:00	2024-11-08T17:00:00	5	Humedad	60
116797	7	Sololá	713	San Lucas Tolimán	10	San Lucas Tolimán	4	Abril	2023-07-04T00:00:00	2024-11-08T17:00:00	6	Velocidad del viento	9.7
116798	7	Sololá	713	San Lucas Tolimán	10	San Lucas Tolimán	4	Abril	2023-07-04T00:00:00	2024-11-08T17:00:00	7	Dirección del viento	9.66
116799	7	Sololá	713	San Lucas Tolimán	10	San Lucas Tolimán	4	Abril	2023-07-04T00:00:00	2024-11-08T17:00:00	1	Precipitación	0
116800	7	Sololá	713	San Lucas Tolimán	10	San Lucas Tolimán	4	Abril	2023-07-04T00:00:00	2024-11-08T17:00:00	8	Radiación solar	190
116801	7	Sololá	713	San Lucas Tolimán	10	San Lucas Tolimán	4	Abril	2023-07-04T00:00:00	2024-11-08T18:00:00	2	Temperatura media	19.4
116802	7	Sololá	713	San Lucas Tolimán	10	San Lucas Tolimán	4	Abril	2023-07-04T00:00:00	2024-11-08T18:00:00	4	Temperatura máxima	20.3
116803	7	Sololá	713	San Lucas Tolimán	10	San Lucas Tolimán	4	Abril	2023-07-04T00:00:00	2024-11-08T18:00:00	3	Temperatura mínima	19.4
116804	7	Sololá	713	San Lucas Tolimán	10	San Lucas Tolimán	4	Abril	2023-07-04T00:00:00	2024-11-08T18:00:00	5	Humedad	61
116805	7	Sololá	713	San Lucas Tolimán	10	San Lucas Tolimán	4	Abril	2023-07-04T00:00:00	2024-11-08T18:00:00	6	Velocidad del viento	6.4
116806	7	Sololá	713	San Lucas Tolimán	10	San Lucas Tolimán	4	Abril	2023-07-04T00:00:00	2024-11-08T18:00:00	7	Dirección del viento	6.44
116807	7	Sololá	713	San Lucas Tolimán	10	San Lucas Tolimán	4	Abril	2023-07-04T00:00:00	2024-11-08T18:00:00	1	Precipitación	0
116808	7	Sololá	713	San Lucas Tolimán	10	San Lucas Tolimán	4	Abril	2023-07-04T00:00:00	2024-11-08T18:00:00	8	Radiación solar	93
116809	7	Sololá	713	San Lucas Tolimán	10	San Lucas Tolimán	4	Abril	2023-07-04T00:00:00	2024-11-08T19:00:00	2	Temperatura media	18.5
116810	7	Sololá	713	San Lucas Tolimán	10	San Lucas Tolimán	4	Abril	2023-07-04T00:00:00	2024-11-08T19:00:00	4	Temperatura máxima	19.4
116811	7	Sololá	713	San Lucas Tolimán	10	San Lucas Tolimán	4	Abril	2023-07-04T00:00:00	2024-11-08T19:00:00	3	Temperatura mínima	18.5
116812	7	Sololá	713	San Lucas Tolimán	10	San Lucas Tolimán	4	Abril	2023-07-04T00:00:00	2024-11-08T19:00:00	5	Humedad	61
116813	7	Sololá	713	San Lucas Tolimán	10	San Lucas Tolimán	4	Abril	2023-07-04T00:00:00	2024-11-08T19:00:00	6	Velocidad del viento	6.4
116814	7	Sololá	713	San Lucas Tolimán	10	San Lucas Tolimán	4	Abril	2023-07-04T00:00:00	2024-11-08T19:00:00	7	Dirección del viento	6.44
116815	7	Sololá	713	San Lucas Tolimán	10	San Lucas Tolimán	4	Abril	2023-07-04T00:00:00	2024-11-08T19:00:00	1	Precipitación	0
116816	7	Sololá	713	San Lucas Tolimán	10	San Lucas Tolimán	4	Abril	2023-07-04T00:00:00	2024-11-08T19:00:00	8	Radiación solar	0
116817	7	Sololá	713	San Lucas Tolimán	10	San Lucas Tolimán	4	Abril	2023-07-04T00:00:00	2024-11-08T20:00:00	2	Temperatura media	17.7
116818	7	Sololá	713	San Lucas Tolimán	10	San Lucas Tolimán	4	Abril	2023-07-04T00:00:00	2024-11-08T20:00:00	4	Temperatura máxima	18.5
116819	7	Sololá	713	San Lucas Tolimán	10	San Lucas Tolimán	4	Abril	2023-07-04T00:00:00	2024-11-08T20:00:00	3	Temperatura mínima	17.7
116820	7	Sololá	713	San Lucas Tolimán	10	San Lucas Tolimán	4	Abril	2023-07-04T00:00:00	2024-11-08T20:00:00	5	Humedad	59
116821	7	Sololá	713	San Lucas Tolimán	10	San Lucas Tolimán	4	Abril	2023-07-04T00:00:00	2024-11-08T20:00:00	6	Velocidad del viento	4.8
116822	7	Sololá	713	San Lucas Tolimán	10	San Lucas Tolimán	4	Abril	2023-07-04T00:00:00	2024-11-08T20:00:00	7	Dirección del viento	4.83
116823	7	Sololá	713	San Lucas Tolimán	10	San Lucas Tolimán	4	Abril	2023-07-04T00:00:00	2024-11-08T20:00:00	1	Precipitación	0
116824	7	Sololá	713	San Lucas Tolimán	10	San Lucas Tolimán	4	Abril	2023-07-04T00:00:00	2024-11-08T20:00:00	8	Radiación solar	0
116825	7	Sololá	713	San Lucas Tolimán	10	San Lucas Tolimán	4	Abril	2023-07-04T00:00:00	2024-11-08T21:00:00	2	Temperatura media	17.6
116826	7	Sololá	713	San Lucas Tolimán	10	San Lucas Tolimán	4	Abril	2023-07-04T00:00:00	2024-11-08T21:00:00	4	Temperatura máxima	19.1
116827	7	Sololá	713	San Lucas Tolimán	10	San Lucas Tolimán	4	Abril	2023-07-04T00:00:00	2024-11-08T21:00:00	3	Temperatura mínima	17.6
116828	7	Sololá	713	San Lucas Tolimán	10	San Lucas Tolimán	4	Abril	2023-07-04T00:00:00	2024-11-08T21:00:00	5	Humedad	62
116829	7	Sololá	713	San Lucas Tolimán	10	San Lucas Tolimán	4	Abril	2023-07-04T00:00:00	2024-11-08T21:00:00	6	Velocidad del viento	6.4
116830	7	Sololá	713	San Lucas Tolimán	10	San Lucas Tolimán	4	Abril	2023-07-04T00:00:00	2024-11-08T21:00:00	7	Dirección del viento	6.44
116831	7	Sololá	713	San Lucas Tolimán	10	San Lucas Tolimán	4	Abril	2023-07-04T00:00:00	2024-11-08T21:00:00	1	Precipitación	0
116832	7	Sololá	713	San Lucas Tolimán	10	San Lucas Tolimán	4	Abril	2023-07-04T00:00:00	2024-11-08T21:00:00	8	Radiación solar	0
116833	7	Sololá	713	San Lucas Tolimán	10	San Lucas Tolimán	4	Abril	2023-07-04T00:00:00	2024-11-08T22:00:00	2	Temperatura media	17.1
116834	7	Sololá	713	San Lucas Tolimán	10	San Lucas Tolimán	4	Abril	2023-07-04T00:00:00	2024-11-08T22:00:00	4	Temperatura máxima	17.6
116835	7	Sololá	713	San Lucas Tolimán	10	San Lucas Tolimán	4	Abril	2023-07-04T00:00:00	2024-11-08T22:00:00	3	Temperatura mínima	16.9
116836	7	Sololá	713	San Lucas Tolimán	10	San Lucas Tolimán	4	Abril	2023-07-04T00:00:00	2024-11-08T22:00:00	5	Humedad	58
116837	7	Sololá	713	San Lucas Tolimán	10	San Lucas Tolimán	4	Abril	2023-07-04T00:00:00	2024-11-08T22:00:00	6	Velocidad del viento	4.8
116838	7	Sololá	713	San Lucas Tolimán	10	San Lucas Tolimán	4	Abril	2023-07-04T00:00:00	2024-11-08T22:00:00	7	Dirección del viento	4.83
116839	7	Sololá	713	San Lucas Tolimán	10	San Lucas Tolimán	4	Abril	2023-07-04T00:00:00	2024-11-08T22:00:00	1	Precipitación	0
116840	7	Sololá	713	San Lucas Tolimán	10	San Lucas Tolimán	4	Abril	2023-07-04T00:00:00	2024-11-08T22:00:00	8	Radiación solar	0
116841	7	Sololá	713	San Lucas Tolimán	10	San Lucas Tolimán	4	Abril	2023-07-04T00:00:00	2024-11-08T23:00:00	2	Temperatura media	17.2
116842	7	Sololá	713	San Lucas Tolimán	10	San Lucas Tolimán	4	Abril	2023-07-04T00:00:00	2024-11-08T23:00:00	4	Temperatura máxima	17.6
116843	7	Sololá	713	San Lucas Tolimán	10	San Lucas Tolimán	4	Abril	2023-07-04T00:00:00	2024-11-08T23:00:00	3	Temperatura mínima	16.9
116844	7	Sololá	713	San Lucas Tolimán	10	San Lucas Tolimán	4	Abril	2023-07-04T00:00:00	2024-11-08T23:00:00	5	Humedad	58
116845	7	Sololá	713	San Lucas Tolimán	10	San Lucas Tolimán	4	Abril	2023-07-04T00:00:00	2024-11-08T23:00:00	6	Velocidad del viento	3.2
116846	7	Sololá	713	San Lucas Tolimán	10	San Lucas Tolimán	4	Abril	2023-07-04T00:00:00	2024-11-08T23:00:00	7	Dirección del viento	3.22
116847	7	Sololá	713	San Lucas Tolimán	10	San Lucas Tolimán	4	Abril	2023-07-04T00:00:00	2024-11-08T23:00:00	1	Precipitación	0
116848	7	Sololá	713	San Lucas Tolimán	10	San Lucas Tolimán	4	Abril	2023-07-04T00:00:00	2024-11-08T23:00:00	8	Radiación solar	0
116849	7	Sololá	713	San Lucas Tolimán	10	San Lucas Tolimán	4	Abril	2023-08-04T00:00:00	2024-11-08T00:00:00	2	Temperatura media	16.1
116850	7	Sololá	713	San Lucas Tolimán	10	San Lucas Tolimán	4	Abril	2023-08-04T00:00:00	2024-11-08T00:00:00	4	Temperatura máxima	17.2
116851	7	Sololá	713	San Lucas Tolimán	10	San Lucas Tolimán	4	Abril	2023-08-04T00:00:00	2024-11-08T00:00:00	3	Temperatura mínima	16.1
116852	7	Sololá	713	San Lucas Tolimán	10	San Lucas Tolimán	4	Abril	2023-08-04T00:00:00	2024-11-08T00:00:00	5	Humedad	59
116853	7	Sololá	713	San Lucas Tolimán	10	San Lucas Tolimán	4	Abril	2023-08-04T00:00:00	2024-11-08T00:00:00	6	Velocidad del viento	3.2
116854	7	Sololá	713	San Lucas Tolimán	10	San Lucas Tolimán	4	Abril	2023-08-04T00:00:00	2024-11-08T00:00:00	7	Dirección del viento	3.22
116855	7	Sololá	713	San Lucas Tolimán	10	San Lucas Tolimán	4	Abril	2023-08-04T00:00:00	2024-11-08T00:00:00	1	Precipitación	0
116856	7	Sololá	713	San Lucas Tolimán	10	San Lucas Tolimán	4	Abril	2023-08-04T00:00:00	2024-11-08T00:00:00	8	Radiación solar	0
116857	7	Sololá	713	San Lucas Tolimán	10	San Lucas Tolimán	4	Abril	2023-08-04T00:00:00	2024-11-08T01:00:00	2	Temperatura media	15.8
116858	7	Sololá	713	San Lucas Tolimán	10	San Lucas Tolimán	4	Abril	2023-08-04T00:00:00	2024-11-08T01:00:00	4	Temperatura máxima	16.1
116859	7	Sololá	713	San Lucas Tolimán	10	San Lucas Tolimán	4	Abril	2023-08-04T00:00:00	2024-11-08T01:00:00	3	Temperatura mínima	15.8
116860	7	Sololá	713	San Lucas Tolimán	10	San Lucas Tolimán	4	Abril	2023-08-04T00:00:00	2024-11-08T01:00:00	5	Humedad	58
116861	7	Sololá	713	San Lucas Tolimán	10	San Lucas Tolimán	4	Abril	2023-08-04T00:00:00	2024-11-08T01:00:00	6	Velocidad del viento	3.2
116862	7	Sololá	713	San Lucas Tolimán	10	San Lucas Tolimán	4	Abril	2023-08-04T00:00:00	2024-11-08T01:00:00	7	Dirección del viento	3.22
116863	7	Sololá	713	San Lucas Tolimán	10	San Lucas Tolimán	4	Abril	2023-08-04T00:00:00	2024-11-08T01:00:00	1	Precipitación	0
116864	7	Sololá	713	San Lucas Tolimán	10	San Lucas Tolimán	4	Abril	2023-08-04T00:00:00	2024-11-08T01:00:00	8	Radiación solar	0
116865	7	Sololá	713	San Lucas Tolimán	10	San Lucas Tolimán	4	Abril	2023-08-04T00:00:00	2024-11-08T02:00:00	2	Temperatura media	16.6
116866	7	Sololá	713	San Lucas Tolimán	10	San Lucas Tolimán	4	Abril	2023-08-04T00:00:00	2024-11-08T02:00:00	4	Temperatura máxima	16.6
116867	7	Sololá	713	San Lucas Tolimán	10	San Lucas Tolimán	4	Abril	2023-08-04T00:00:00	2024-11-08T02:00:00	3	Temperatura mínima	15.8
116868	7	Sololá	713	San Lucas Tolimán	10	San Lucas Tolimán	4	Abril	2023-08-04T00:00:00	2024-11-08T02:00:00	5	Humedad	56
116869	7	Sololá	713	San Lucas Tolimán	10	San Lucas Tolimán	4	Abril	2023-08-04T00:00:00	2024-11-08T02:00:00	6	Velocidad del viento	3.2
116870	7	Sololá	713	San Lucas Tolimán	10	San Lucas Tolimán	4	Abril	2023-08-04T00:00:00	2024-11-08T02:00:00	7	Dirección del viento	3.22
116871	7	Sololá	713	San Lucas Tolimán	10	San Lucas Tolimán	4	Abril	2023-08-04T00:00:00	2024-11-08T02:00:00	1	Precipitación	0
116872	7	Sololá	713	San Lucas Tolimán	10	San Lucas Tolimán	4	Abril	2023-08-04T00:00:00	2024-11-08T02:00:00	8	Radiación solar	0
116873	7	Sololá	713	San Lucas Tolimán	10	San Lucas Tolimán	4	Abril	2023-08-04T00:00:00	2024-11-08T03:00:00	2	Temperatura media	16.8
116874	7	Sololá	713	San Lucas Tolimán	10	San Lucas Tolimán	4	Abril	2023-08-04T00:00:00	2024-11-08T03:00:00	4	Temperatura máxima	17.3
116875	7	Sololá	713	San Lucas Tolimán	10	San Lucas Tolimán	4	Abril	2023-08-04T00:00:00	2024-11-08T03:00:00	3	Temperatura mínima	16.6
116876	7	Sololá	713	San Lucas Tolimán	10	San Lucas Tolimán	4	Abril	2023-08-04T00:00:00	2024-11-08T03:00:00	5	Humedad	57
116877	7	Sololá	713	San Lucas Tolimán	10	San Lucas Tolimán	4	Abril	2023-08-04T00:00:00	2024-11-08T03:00:00	6	Velocidad del viento	1.6
116878	7	Sololá	713	San Lucas Tolimán	10	San Lucas Tolimán	4	Abril	2023-08-04T00:00:00	2024-11-08T03:00:00	7	Dirección del viento	1.61
116879	7	Sololá	713	San Lucas Tolimán	10	San Lucas Tolimán	4	Abril	2023-08-04T00:00:00	2024-11-08T03:00:00	1	Precipitación	0
116880	7	Sololá	713	San Lucas Tolimán	10	San Lucas Tolimán	4	Abril	2023-08-04T00:00:00	2024-11-08T03:00:00	8	Radiación solar	0
116881	7	Sololá	713	San Lucas Tolimán	10	San Lucas Tolimán	4	Abril	2023-08-04T00:00:00	2024-11-08T04:00:00	2	Temperatura media	16.9
116882	7	Sololá	713	San Lucas Tolimán	10	San Lucas Tolimán	4	Abril	2023-08-04T00:00:00	2024-11-08T04:00:00	4	Temperatura máxima	17.3
116883	7	Sololá	713	San Lucas Tolimán	10	San Lucas Tolimán	4	Abril	2023-08-04T00:00:00	2024-11-08T04:00:00	3	Temperatura mínima	16.7
116884	7	Sololá	713	San Lucas Tolimán	10	San Lucas Tolimán	4	Abril	2023-08-04T00:00:00	2024-11-08T04:00:00	5	Humedad	57
116885	7	Sololá	713	San Lucas Tolimán	10	San Lucas Tolimán	4	Abril	2023-08-04T00:00:00	2024-11-08T04:00:00	6	Velocidad del viento	1.6
116886	7	Sololá	713	San Lucas Tolimán	10	San Lucas Tolimán	4	Abril	2023-08-04T00:00:00	2024-11-08T04:00:00	7	Dirección del viento	1.61
116887	7	Sololá	713	San Lucas Tolimán	10	San Lucas Tolimán	4	Abril	2023-08-04T00:00:00	2024-11-08T04:00:00	1	Precipitación	0
116888	7	Sololá	713	San Lucas Tolimán	10	San Lucas Tolimán	4	Abril	2023-08-04T00:00:00	2024-11-08T04:00:00	8	Radiación solar	0
116889	7	Sololá	713	San Lucas Tolimán	10	San Lucas Tolimán	4	Abril	2023-08-04T00:00:00	2024-11-08T05:00:00	2	Temperatura media	14.8
116890	7	Sololá	713	San Lucas Tolimán	10	San Lucas Tolimán	4	Abril	2023-08-04T00:00:00	2024-11-08T05:00:00	4	Temperatura máxima	16.9
116891	7	Sololá	713	San Lucas Tolimán	10	San Lucas Tolimán	4	Abril	2023-08-04T00:00:00	2024-11-08T05:00:00	3	Temperatura mínima	14.8
116892	7	Sololá	713	San Lucas Tolimán	10	San Lucas Tolimán	4	Abril	2023-08-04T00:00:00	2024-11-08T05:00:00	5	Humedad	62
116893	7	Sololá	713	San Lucas Tolimán	10	San Lucas Tolimán	4	Abril	2023-08-04T00:00:00	2024-11-08T05:00:00	6	Velocidad del viento	0
116894	7	Sololá	713	San Lucas Tolimán	10	San Lucas Tolimán	4	Abril	2023-08-04T00:00:00	2024-11-08T05:00:00	7	Dirección del viento	0
116895	7	Sololá	713	San Lucas Tolimán	10	San Lucas Tolimán	4	Abril	2023-08-04T00:00:00	2024-11-08T05:00:00	1	Precipitación	0
116896	7	Sololá	713	San Lucas Tolimán	10	San Lucas Tolimán	4	Abril	2023-08-04T00:00:00	2024-11-08T05:00:00	8	Radiación solar	0
116897	7	Sololá	713	San Lucas Tolimán	10	San Lucas Tolimán	4	Abril	2023-08-04T00:00:00	2024-11-08T06:00:00	2	Temperatura media	14
116898	7	Sololá	713	San Lucas Tolimán	10	San Lucas Tolimán	4	Abril	2023-08-04T00:00:00	2024-11-08T06:00:00	4	Temperatura máxima	14.9
116899	7	Sololá	713	San Lucas Tolimán	10	San Lucas Tolimán	4	Abril	2023-08-04T00:00:00	2024-11-08T06:00:00	3	Temperatura mínima	14
116900	7	Sololá	713	San Lucas Tolimán	10	San Lucas Tolimán	4	Abril	2023-08-04T00:00:00	2024-11-08T06:00:00	5	Humedad	63
116901	7	Sololá	713	San Lucas Tolimán	10	San Lucas Tolimán	4	Abril	2023-08-04T00:00:00	2024-11-08T06:00:00	6	Velocidad del viento	1.6
116902	7	Sololá	713	San Lucas Tolimán	10	San Lucas Tolimán	4	Abril	2023-08-04T00:00:00	2024-11-08T06:00:00	7	Dirección del viento	1.61
116903	7	Sololá	713	San Lucas Tolimán	10	San Lucas Tolimán	4	Abril	2023-08-04T00:00:00	2024-11-08T06:00:00	1	Precipitación	0
116904	7	Sololá	713	San Lucas Tolimán	10	San Lucas Tolimán	4	Abril	2023-08-04T00:00:00	2024-11-08T06:00:00	8	Radiación solar	0
116905	7	Sololá	713	San Lucas Tolimán	10	San Lucas Tolimán	4	Abril	2023-08-04T00:00:00	2024-11-08T07:00:00	2	Temperatura media	14.3
116906	7	Sololá	713	San Lucas Tolimán	10	San Lucas Tolimán	4	Abril	2023-08-04T00:00:00	2024-11-08T07:00:00	4	Temperatura máxima	14.3
116907	7	Sololá	713	San Lucas Tolimán	10	San Lucas Tolimán	4	Abril	2023-08-04T00:00:00	2024-11-08T07:00:00	3	Temperatura mínima	13.4
116908	7	Sololá	713	San Lucas Tolimán	10	San Lucas Tolimán	4	Abril	2023-08-04T00:00:00	2024-11-08T07:00:00	5	Humedad	62
116909	7	Sololá	713	San Lucas Tolimán	10	San Lucas Tolimán	4	Abril	2023-08-04T00:00:00	2024-11-08T07:00:00	6	Velocidad del viento	3.2
116910	7	Sololá	713	San Lucas Tolimán	10	San Lucas Tolimán	4	Abril	2023-08-04T00:00:00	2024-11-08T07:00:00	7	Dirección del viento	3.22
116911	7	Sololá	713	San Lucas Tolimán	10	San Lucas Tolimán	4	Abril	2023-08-04T00:00:00	2024-11-08T07:00:00	1	Precipitación	0
116912	7	Sololá	713	San Lucas Tolimán	10	San Lucas Tolimán	4	Abril	2023-08-04T00:00:00	2024-11-08T07:00:00	8	Radiación solar	31
116913	7	Sololá	713	San Lucas Tolimán	10	San Lucas Tolimán	4	Abril	2023-08-04T00:00:00	2024-11-08T08:00:00	2	Temperatura media	19.4
116914	7	Sololá	713	San Lucas Tolimán	10	San Lucas Tolimán	4	Abril	2023-08-04T00:00:00	2024-11-08T08:00:00	4	Temperatura máxima	19.4
116915	7	Sololá	713	San Lucas Tolimán	10	San Lucas Tolimán	4	Abril	2023-08-04T00:00:00	2024-11-08T08:00:00	3	Temperatura mínima	14.3
116916	7	Sololá	713	San Lucas Tolimán	10	San Lucas Tolimán	4	Abril	2023-08-04T00:00:00	2024-11-08T08:00:00	5	Humedad	55
116917	7	Sololá	713	San Lucas Tolimán	10	San Lucas Tolimán	4	Abril	2023-08-04T00:00:00	2024-11-08T08:00:00	6	Velocidad del viento	1.6
116918	7	Sololá	713	San Lucas Tolimán	10	San Lucas Tolimán	4	Abril	2023-08-04T00:00:00	2024-11-08T08:00:00	7	Dirección del viento	1.61
116919	7	Sololá	713	San Lucas Tolimán	10	San Lucas Tolimán	4	Abril	2023-08-04T00:00:00	2024-11-08T08:00:00	1	Precipitación	0
116920	7	Sololá	713	San Lucas Tolimán	10	San Lucas Tolimán	4	Abril	2023-08-04T00:00:00	2024-11-08T08:00:00	8	Radiación solar	220
116921	7	Sololá	713	San Lucas Tolimán	10	San Lucas Tolimán	4	Abril	2023-08-04T00:00:00	2024-11-08T09:00:00	2	Temperatura media	21
116922	7	Sololá	713	San Lucas Tolimán	10	San Lucas Tolimán	4	Abril	2023-08-04T00:00:00	2024-11-08T09:00:00	4	Temperatura máxima	21
116923	7	Sololá	713	San Lucas Tolimán	10	San Lucas Tolimán	4	Abril	2023-08-04T00:00:00	2024-11-08T09:00:00	3	Temperatura mínima	19.5
116924	7	Sololá	713	San Lucas Tolimán	10	San Lucas Tolimán	4	Abril	2023-08-04T00:00:00	2024-11-08T09:00:00	5	Humedad	49
116925	7	Sololá	713	San Lucas Tolimán	10	San Lucas Tolimán	4	Abril	2023-08-04T00:00:00	2024-11-08T09:00:00	6	Velocidad del viento	4.8
116926	7	Sololá	713	San Lucas Tolimán	10	San Lucas Tolimán	4	Abril	2023-08-04T00:00:00	2024-11-08T09:00:00	7	Dirección del viento	4.83
116927	7	Sololá	713	San Lucas Tolimán	10	San Lucas Tolimán	4	Abril	2023-08-04T00:00:00	2024-11-08T09:00:00	1	Precipitación	0
116928	7	Sololá	713	San Lucas Tolimán	10	San Lucas Tolimán	4	Abril	2023-08-04T00:00:00	2024-11-08T09:00:00	8	Radiación solar	460
116929	7	Sololá	713	San Lucas Tolimán	10	San Lucas Tolimán	4	Abril	2023-08-04T00:00:00	2024-11-08T10:00:00	2	Temperatura media	22.7
116930	7	Sololá	713	San Lucas Tolimán	10	San Lucas Tolimán	4	Abril	2023-08-04T00:00:00	2024-11-08T10:00:00	4	Temperatura máxima	23
116931	7	Sololá	713	San Lucas Tolimán	10	San Lucas Tolimán	4	Abril	2023-08-04T00:00:00	2024-11-08T10:00:00	3	Temperatura mínima	21
116932	7	Sololá	713	San Lucas Tolimán	10	San Lucas Tolimán	4	Abril	2023-08-04T00:00:00	2024-11-08T10:00:00	5	Humedad	50
116933	7	Sololá	713	San Lucas Tolimán	10	San Lucas Tolimán	4	Abril	2023-08-04T00:00:00	2024-11-08T10:00:00	6	Velocidad del viento	4.8
116934	7	Sololá	713	San Lucas Tolimán	10	San Lucas Tolimán	4	Abril	2023-08-04T00:00:00	2024-11-08T10:00:00	7	Dirección del viento	4.83
116935	7	Sololá	713	San Lucas Tolimán	10	San Lucas Tolimán	4	Abril	2023-08-04T00:00:00	2024-11-08T10:00:00	1	Precipitación	0
116936	7	Sololá	713	San Lucas Tolimán	10	San Lucas Tolimán	4	Abril	2023-08-04T00:00:00	2024-11-08T10:00:00	8	Radiación solar	806
116937	7	Sololá	713	San Lucas Tolimán	10	San Lucas Tolimán	4	Abril	2023-08-04T00:00:00	2024-11-08T11:00:00	2	Temperatura media	21.5
116938	7	Sololá	713	San Lucas Tolimán	10	San Lucas Tolimán	4	Abril	2023-08-04T00:00:00	2024-11-08T11:00:00	4	Temperatura máxima	22.7
116939	7	Sololá	713	San Lucas Tolimán	10	San Lucas Tolimán	4	Abril	2023-08-04T00:00:00	2024-11-08T11:00:00	3	Temperatura mínima	21.5
116940	7	Sololá	713	San Lucas Tolimán	10	San Lucas Tolimán	4	Abril	2023-08-04T00:00:00	2024-11-08T11:00:00	5	Humedad	59
116941	7	Sololá	713	San Lucas Tolimán	10	San Lucas Tolimán	4	Abril	2023-08-04T00:00:00	2024-11-08T11:00:00	6	Velocidad del viento	9.7
116942	7	Sololá	713	San Lucas Tolimán	10	San Lucas Tolimán	4	Abril	2023-08-04T00:00:00	2024-11-08T11:00:00	7	Dirección del viento	9.66
116943	7	Sololá	713	San Lucas Tolimán	10	San Lucas Tolimán	4	Abril	2023-08-04T00:00:00	2024-11-08T11:00:00	1	Precipitación	0
116944	7	Sololá	713	San Lucas Tolimán	10	San Lucas Tolimán	4	Abril	2023-08-04T00:00:00	2024-11-08T11:00:00	8	Radiación solar	996
116945	7	Sololá	713	San Lucas Tolimán	10	San Lucas Tolimán	4	Abril	2023-08-04T00:00:00	2024-11-08T12:00:00	2	Temperatura media	22.4
116946	7	Sololá	713	San Lucas Tolimán	10	San Lucas Tolimán	4	Abril	2023-08-04T00:00:00	2024-11-08T12:00:00	4	Temperatura máxima	22.6
116947	7	Sololá	713	San Lucas Tolimán	10	San Lucas Tolimán	4	Abril	2023-08-04T00:00:00	2024-11-08T12:00:00	3	Temperatura mínima	21
116948	7	Sololá	713	San Lucas Tolimán	10	San Lucas Tolimán	4	Abril	2023-08-04T00:00:00	2024-11-08T12:00:00	5	Humedad	57
116949	7	Sololá	713	San Lucas Tolimán	10	San Lucas Tolimán	4	Abril	2023-08-04T00:00:00	2024-11-08T12:00:00	6	Velocidad del viento	9.7
116950	7	Sololá	713	San Lucas Tolimán	10	San Lucas Tolimán	4	Abril	2023-08-04T00:00:00	2024-11-08T12:00:00	7	Dirección del viento	9.66
116951	7	Sololá	713	San Lucas Tolimán	10	San Lucas Tolimán	4	Abril	2023-08-04T00:00:00	2024-11-08T12:00:00	1	Precipitación	0
116952	7	Sololá	713	San Lucas Tolimán	10	San Lucas Tolimán	4	Abril	2023-08-04T00:00:00	2024-11-08T12:00:00	8	Radiación solar	1050
116953	7	Sololá	713	San Lucas Tolimán	10	San Lucas Tolimán	4	Abril	2023-08-04T00:00:00	2024-11-08T13:00:00	2	Temperatura media	22.2
116954	7	Sololá	713	San Lucas Tolimán	10	San Lucas Tolimán	4	Abril	2023-08-04T00:00:00	2024-11-08T13:00:00	4	Temperatura máxima	22.4
116955	7	Sololá	713	San Lucas Tolimán	10	San Lucas Tolimán	4	Abril	2023-08-04T00:00:00	2024-11-08T13:00:00	3	Temperatura mínima	21.4
116956	7	Sololá	713	San Lucas Tolimán	10	San Lucas Tolimán	4	Abril	2023-08-04T00:00:00	2024-11-08T13:00:00	5	Humedad	59
116957	7	Sololá	713	San Lucas Tolimán	10	San Lucas Tolimán	4	Abril	2023-08-04T00:00:00	2024-11-08T13:00:00	6	Velocidad del viento	9.7
116958	7	Sololá	713	San Lucas Tolimán	10	San Lucas Tolimán	4	Abril	2023-08-04T00:00:00	2024-11-08T13:00:00	7	Dirección del viento	9.66
116959	7	Sololá	713	San Lucas Tolimán	10	San Lucas Tolimán	4	Abril	2023-08-04T00:00:00	2024-11-08T13:00:00	1	Precipitación	0
116960	7	Sololá	713	San Lucas Tolimán	10	San Lucas Tolimán	4	Abril	2023-08-04T00:00:00	2024-11-08T13:00:00	8	Radiación solar	1165
116961	7	Sololá	713	San Lucas Tolimán	10	San Lucas Tolimán	4	Abril	2023-08-04T00:00:00	2024-11-08T14:00:00	2	Temperatura media	22.3
116962	7	Sololá	713	San Lucas Tolimán	10	San Lucas Tolimán	4	Abril	2023-08-04T00:00:00	2024-11-08T14:00:00	4	Temperatura máxima	23.2
116963	7	Sololá	713	San Lucas Tolimán	10	San Lucas Tolimán	4	Abril	2023-08-04T00:00:00	2024-11-08T14:00:00	3	Temperatura mínima	21.4
116964	7	Sololá	713	San Lucas Tolimán	10	San Lucas Tolimán	4	Abril	2023-08-04T00:00:00	2024-11-08T14:00:00	5	Humedad	59
116965	7	Sololá	713	San Lucas Tolimán	10	San Lucas Tolimán	4	Abril	2023-08-04T00:00:00	2024-11-08T14:00:00	6	Velocidad del viento	9.7
116966	7	Sololá	713	San Lucas Tolimán	10	San Lucas Tolimán	4	Abril	2023-08-04T00:00:00	2024-11-08T14:00:00	7	Dirección del viento	9.66
116967	7	Sololá	713	San Lucas Tolimán	10	San Lucas Tolimán	4	Abril	2023-08-04T00:00:00	2024-11-08T14:00:00	1	Precipitación	0
116968	7	Sololá	713	San Lucas Tolimán	10	San Lucas Tolimán	4	Abril	2023-08-04T00:00:00	2024-11-08T14:00:00	8	Radiación solar	931
116969	7	Sololá	713	San Lucas Tolimán	10	San Lucas Tolimán	4	Abril	2023-08-04T00:00:00	2024-11-08T15:00:00	2	Temperatura media	21.5
116970	7	Sololá	713	San Lucas Tolimán	10	San Lucas Tolimán	4	Abril	2023-08-04T00:00:00	2024-11-08T15:00:00	4	Temperatura máxima	22.5
116971	7	Sololá	713	San Lucas Tolimán	10	San Lucas Tolimán	4	Abril	2023-08-04T00:00:00	2024-11-08T15:00:00	3	Temperatura mínima	21.4
116972	7	Sololá	713	San Lucas Tolimán	10	San Lucas Tolimán	4	Abril	2023-08-04T00:00:00	2024-11-08T15:00:00	5	Humedad	62
116973	7	Sololá	713	San Lucas Tolimán	10	San Lucas Tolimán	4	Abril	2023-08-04T00:00:00	2024-11-08T15:00:00	6	Velocidad del viento	9.7
116974	7	Sololá	713	San Lucas Tolimán	10	San Lucas Tolimán	4	Abril	2023-08-04T00:00:00	2024-11-08T15:00:00	7	Dirección del viento	9.66
116975	7	Sololá	713	San Lucas Tolimán	10	San Lucas Tolimán	4	Abril	2023-08-04T00:00:00	2024-11-08T15:00:00	1	Precipitación	0
116976	7	Sololá	713	San Lucas Tolimán	10	San Lucas Tolimán	4	Abril	2023-08-04T00:00:00	2024-11-08T15:00:00	8	Radiación solar	613
116977	7	Sololá	713	San Lucas Tolimán	10	San Lucas Tolimán	4	Abril	2023-08-04T00:00:00	2024-11-08T16:00:00	2	Temperatura media	20.9
116978	7	Sololá	713	San Lucas Tolimán	10	San Lucas Tolimán	4	Abril	2023-08-04T00:00:00	2024-11-08T16:00:00	4	Temperatura máxima	21.6
116979	7	Sololá	713	San Lucas Tolimán	10	San Lucas Tolimán	4	Abril	2023-08-04T00:00:00	2024-11-08T16:00:00	3	Temperatura mínima	20.7
116980	7	Sololá	713	San Lucas Tolimán	10	San Lucas Tolimán	4	Abril	2023-08-04T00:00:00	2024-11-08T16:00:00	5	Humedad	63
116981	7	Sololá	713	San Lucas Tolimán	10	San Lucas Tolimán	4	Abril	2023-08-04T00:00:00	2024-11-08T16:00:00	6	Velocidad del viento	11.3
116982	7	Sololá	713	San Lucas Tolimán	10	San Lucas Tolimán	4	Abril	2023-08-04T00:00:00	2024-11-08T16:00:00	7	Dirección del viento	11.27
116983	7	Sololá	713	San Lucas Tolimán	10	San Lucas Tolimán	4	Abril	2023-08-04T00:00:00	2024-11-08T16:00:00	1	Precipitación	0
116984	7	Sololá	713	San Lucas Tolimán	10	San Lucas Tolimán	4	Abril	2023-08-04T00:00:00	2024-11-08T16:00:00	8	Radiación solar	463
116985	7	Sololá	713	San Lucas Tolimán	10	San Lucas Tolimán	4	Abril	2023-08-04T00:00:00	2024-11-08T17:00:00	2	Temperatura media	20.4
116986	7	Sololá	713	San Lucas Tolimán	10	San Lucas Tolimán	4	Abril	2023-08-04T00:00:00	2024-11-08T17:00:00	4	Temperatura máxima	21.1
116987	7	Sololá	713	San Lucas Tolimán	10	San Lucas Tolimán	4	Abril	2023-08-04T00:00:00	2024-11-08T17:00:00	3	Temperatura mínima	20.3
116988	7	Sololá	713	San Lucas Tolimán	10	San Lucas Tolimán	4	Abril	2023-08-04T00:00:00	2024-11-08T17:00:00	5	Humedad	62
116989	7	Sololá	713	San Lucas Tolimán	10	San Lucas Tolimán	4	Abril	2023-08-04T00:00:00	2024-11-08T17:00:00	6	Velocidad del viento	9.7
116990	7	Sololá	713	San Lucas Tolimán	10	San Lucas Tolimán	4	Abril	2023-08-04T00:00:00	2024-11-08T17:00:00	7	Dirección del viento	9.66
116991	7	Sololá	713	San Lucas Tolimán	10	San Lucas Tolimán	4	Abril	2023-08-04T00:00:00	2024-11-08T17:00:00	1	Precipitación	0
116992	7	Sololá	713	San Lucas Tolimán	10	San Lucas Tolimán	4	Abril	2023-08-04T00:00:00	2024-11-08T17:00:00	8	Radiación solar	264
116993	7	Sololá	713	San Lucas Tolimán	10	San Lucas Tolimán	4	Abril	2023-08-04T00:00:00	2024-11-08T18:00:00	2	Temperatura media	19.3
116994	7	Sololá	713	San Lucas Tolimán	10	San Lucas Tolimán	4	Abril	2023-08-04T00:00:00	2024-11-08T18:00:00	4	Temperatura máxima	20.4
116995	7	Sololá	713	San Lucas Tolimán	10	San Lucas Tolimán	4	Abril	2023-08-04T00:00:00	2024-11-08T18:00:00	3	Temperatura mínima	19.3
116996	7	Sololá	713	San Lucas Tolimán	10	San Lucas Tolimán	4	Abril	2023-08-04T00:00:00	2024-11-08T18:00:00	5	Humedad	61
116997	7	Sololá	713	San Lucas Tolimán	10	San Lucas Tolimán	4	Abril	2023-08-04T00:00:00	2024-11-08T18:00:00	6	Velocidad del viento	6.4
116998	7	Sololá	713	San Lucas Tolimán	10	San Lucas Tolimán	4	Abril	2023-08-04T00:00:00	2024-11-08T18:00:00	7	Dirección del viento	6.44
116999	7	Sololá	713	San Lucas Tolimán	10	San Lucas Tolimán	4	Abril	2023-08-04T00:00:00	2024-11-08T18:00:00	1	Precipitación	0
117000	7	Sololá	713	San Lucas Tolimán	10	San Lucas Tolimán	4	Abril	2023-08-04T00:00:00	2024-11-08T18:00:00	8	Radiación solar	60
117001	7	Sololá	713	San Lucas Tolimán	10	San Lucas Tolimán	4	Abril	2023-08-04T00:00:00	2024-11-08T19:00:00	2	Temperatura media	18.4
117002	7	Sololá	713	San Lucas Tolimán	10	San Lucas Tolimán	4	Abril	2023-08-04T00:00:00	2024-11-08T19:00:00	4	Temperatura máxima	19.4
117003	7	Sololá	713	San Lucas Tolimán	10	San Lucas Tolimán	4	Abril	2023-08-04T00:00:00	2024-11-08T19:00:00	3	Temperatura mínima	18.4
117004	7	Sololá	713	San Lucas Tolimán	10	San Lucas Tolimán	4	Abril	2023-08-04T00:00:00	2024-11-08T19:00:00	5	Humedad	61
117005	7	Sololá	713	San Lucas Tolimán	10	San Lucas Tolimán	4	Abril	2023-08-04T00:00:00	2024-11-08T19:00:00	6	Velocidad del viento	6.4
117006	7	Sololá	713	San Lucas Tolimán	10	San Lucas Tolimán	4	Abril	2023-08-04T00:00:00	2024-11-08T19:00:00	7	Dirección del viento	6.44
117007	7	Sololá	713	San Lucas Tolimán	10	San Lucas Tolimán	4	Abril	2023-08-04T00:00:00	2024-11-08T19:00:00	1	Precipitación	0
117008	7	Sololá	713	San Lucas Tolimán	10	San Lucas Tolimán	4	Abril	2023-08-04T00:00:00	2024-11-08T19:00:00	8	Radiación solar	0
117009	7	Sololá	713	San Lucas Tolimán	10	San Lucas Tolimán	4	Abril	2023-08-04T00:00:00	2024-11-08T20:00:00	2	Temperatura media	17.2
117010	7	Sololá	713	San Lucas Tolimán	10	San Lucas Tolimán	4	Abril	2023-08-04T00:00:00	2024-11-08T20:00:00	4	Temperatura máxima	18.4
117011	7	Sololá	713	San Lucas Tolimán	10	San Lucas Tolimán	4	Abril	2023-08-04T00:00:00	2024-11-08T20:00:00	3	Temperatura mínima	17.2
117012	7	Sololá	713	San Lucas Tolimán	10	San Lucas Tolimán	4	Abril	2023-08-04T00:00:00	2024-11-08T20:00:00	5	Humedad	57
117013	7	Sololá	713	San Lucas Tolimán	10	San Lucas Tolimán	4	Abril	2023-08-04T00:00:00	2024-11-08T20:00:00	6	Velocidad del viento	3.2
117014	7	Sololá	713	San Lucas Tolimán	10	San Lucas Tolimán	4	Abril	2023-08-04T00:00:00	2024-11-08T20:00:00	7	Dirección del viento	3.22
117015	7	Sololá	713	San Lucas Tolimán	10	San Lucas Tolimán	4	Abril	2023-08-04T00:00:00	2024-11-08T20:00:00	1	Precipitación	0
117016	7	Sololá	713	San Lucas Tolimán	10	San Lucas Tolimán	4	Abril	2023-08-04T00:00:00	2024-11-08T20:00:00	8	Radiación solar	0
117017	7	Sololá	713	San Lucas Tolimán	10	San Lucas Tolimán	4	Abril	2023-08-04T00:00:00	2024-11-08T21:00:00	2	Temperatura media	18.8
117018	7	Sololá	713	San Lucas Tolimán	10	San Lucas Tolimán	4	Abril	2023-08-04T00:00:00	2024-11-08T21:00:00	4	Temperatura máxima	18.9
117019	7	Sololá	713	San Lucas Tolimán	10	San Lucas Tolimán	4	Abril	2023-08-04T00:00:00	2024-11-08T21:00:00	3	Temperatura mínima	17.2
117020	7	Sololá	713	San Lucas Tolimán	10	San Lucas Tolimán	4	Abril	2023-08-04T00:00:00	2024-11-08T21:00:00	5	Humedad	48
117021	7	Sololá	713	San Lucas Tolimán	10	San Lucas Tolimán	4	Abril	2023-08-04T00:00:00	2024-11-08T21:00:00	6	Velocidad del viento	8
117022	7	Sololá	713	San Lucas Tolimán	10	San Lucas Tolimán	4	Abril	2023-08-04T00:00:00	2024-11-08T21:00:00	7	Dirección del viento	8.05
117023	7	Sololá	713	San Lucas Tolimán	10	San Lucas Tolimán	4	Abril	2023-08-04T00:00:00	2024-11-08T21:00:00	1	Precipitación	0
117024	7	Sololá	713	San Lucas Tolimán	10	San Lucas Tolimán	4	Abril	2023-08-04T00:00:00	2024-11-08T21:00:00	8	Radiación solar	0
117025	7	Sololá	713	San Lucas Tolimán	10	San Lucas Tolimán	4	Abril	2023-08-04T00:00:00	2024-11-08T22:00:00	2	Temperatura media	18.2
117026	7	Sololá	713	San Lucas Tolimán	10	San Lucas Tolimán	4	Abril	2023-08-04T00:00:00	2024-11-08T22:00:00	4	Temperatura máxima	18.8
117027	7	Sololá	713	San Lucas Tolimán	10	San Lucas Tolimán	4	Abril	2023-08-04T00:00:00	2024-11-08T22:00:00	3	Temperatura mínima	18.2
117028	7	Sololá	713	San Lucas Tolimán	10	San Lucas Tolimán	4	Abril	2023-08-04T00:00:00	2024-11-08T22:00:00	5	Humedad	50
117029	7	Sololá	713	San Lucas Tolimán	10	San Lucas Tolimán	4	Abril	2023-08-04T00:00:00	2024-11-08T22:00:00	6	Velocidad del viento	8
117030	7	Sololá	713	San Lucas Tolimán	10	San Lucas Tolimán	4	Abril	2023-08-04T00:00:00	2024-11-08T22:00:00	7	Dirección del viento	8.05
117031	7	Sololá	713	San Lucas Tolimán	10	San Lucas Tolimán	4	Abril	2023-08-04T00:00:00	2024-11-08T22:00:00	1	Precipitación	0
117032	7	Sololá	713	San Lucas Tolimán	10	San Lucas Tolimán	4	Abril	2023-08-04T00:00:00	2024-11-08T22:00:00	8	Radiación solar	0
117033	7	Sololá	713	San Lucas Tolimán	10	San Lucas Tolimán	4	Abril	2023-08-04T00:00:00	2024-11-08T23:00:00	2	Temperatura media	17.3
117034	7	Sololá	713	San Lucas Tolimán	10	San Lucas Tolimán	4	Abril	2023-08-04T00:00:00	2024-11-08T23:00:00	4	Temperatura máxima	18.2
117035	7	Sololá	713	San Lucas Tolimán	10	San Lucas Tolimán	4	Abril	2023-08-04T00:00:00	2024-11-08T23:00:00	3	Temperatura mínima	16.9
117036	7	Sololá	713	San Lucas Tolimán	10	San Lucas Tolimán	4	Abril	2023-08-04T00:00:00	2024-11-08T23:00:00	5	Humedad	47
117037	7	Sololá	713	San Lucas Tolimán	10	San Lucas Tolimán	4	Abril	2023-08-04T00:00:00	2024-11-08T23:00:00	6	Velocidad del viento	4.8
117038	7	Sololá	713	San Lucas Tolimán	10	San Lucas Tolimán	4	Abril	2023-08-04T00:00:00	2024-11-08T23:00:00	7	Dirección del viento	4.83
117039	7	Sololá	713	San Lucas Tolimán	10	San Lucas Tolimán	4	Abril	2023-08-04T00:00:00	2024-11-08T23:00:00	1	Precipitación	0
117040	7	Sololá	713	San Lucas Tolimán	10	San Lucas Tolimán	4	Abril	2023-08-04T00:00:00	2024-11-08T23:00:00	8	Radiación solar	0
117041	7	Sololá	713	San Lucas Tolimán	10	San Lucas Tolimán	4	Abril	2023-09-04T00:00:00	2024-11-08T00:00:00	2	Temperatura media	16.6
117042	7	Sololá	713	San Lucas Tolimán	10	San Lucas Tolimán	4	Abril	2023-09-04T00:00:00	2024-11-08T00:00:00	4	Temperatura máxima	17.6
117043	7	Sololá	713	San Lucas Tolimán	10	San Lucas Tolimán	4	Abril	2023-09-04T00:00:00	2024-11-08T00:00:00	3	Temperatura mínima	16.5
117044	7	Sololá	713	San Lucas Tolimán	10	San Lucas Tolimán	4	Abril	2023-09-04T00:00:00	2024-11-08T00:00:00	5	Humedad	49
117045	7	Sololá	713	San Lucas Tolimán	10	San Lucas Tolimán	4	Abril	2023-09-04T00:00:00	2024-11-08T00:00:00	6	Velocidad del viento	4.8
117046	7	Sololá	713	San Lucas Tolimán	10	San Lucas Tolimán	4	Abril	2023-09-04T00:00:00	2024-11-08T00:00:00	7	Dirección del viento	4.83
117047	7	Sololá	713	San Lucas Tolimán	10	San Lucas Tolimán	4	Abril	2023-09-04T00:00:00	2024-11-08T00:00:00	1	Precipitación	0
117048	7	Sololá	713	San Lucas Tolimán	10	San Lucas Tolimán	4	Abril	2023-09-04T00:00:00	2024-11-08T00:00:00	8	Radiación solar	0
117049	7	Sololá	713	San Lucas Tolimán	10	San Lucas Tolimán	4	Abril	2023-09-04T00:00:00	2024-11-08T01:00:00	2	Temperatura media	16.7
117050	7	Sololá	713	San Lucas Tolimán	10	San Lucas Tolimán	4	Abril	2023-09-04T00:00:00	2024-11-08T01:00:00	4	Temperatura máxima	16.7
117051	7	Sololá	713	San Lucas Tolimán	10	San Lucas Tolimán	4	Abril	2023-09-04T00:00:00	2024-11-08T01:00:00	3	Temperatura mínima	16.5
117052	7	Sololá	713	San Lucas Tolimán	10	San Lucas Tolimán	4	Abril	2023-09-04T00:00:00	2024-11-08T01:00:00	5	Humedad	49
117053	7	Sololá	713	San Lucas Tolimán	10	San Lucas Tolimán	4	Abril	2023-09-04T00:00:00	2024-11-08T01:00:00	6	Velocidad del viento	4.8
117054	7	Sololá	713	San Lucas Tolimán	10	San Lucas Tolimán	4	Abril	2023-09-04T00:00:00	2024-11-08T01:00:00	7	Dirección del viento	4.83
117055	7	Sololá	713	San Lucas Tolimán	10	San Lucas Tolimán	4	Abril	2023-09-04T00:00:00	2024-11-08T01:00:00	1	Precipitación	0
117056	7	Sololá	713	San Lucas Tolimán	10	San Lucas Tolimán	4	Abril	2023-09-04T00:00:00	2024-11-08T01:00:00	8	Radiación solar	0
117057	7	Sololá	713	San Lucas Tolimán	10	San Lucas Tolimán	4	Abril	2023-09-04T00:00:00	2024-11-08T02:00:00	2	Temperatura media	15.8
117058	7	Sololá	713	San Lucas Tolimán	10	San Lucas Tolimán	4	Abril	2023-09-04T00:00:00	2024-11-08T02:00:00	4	Temperatura máxima	16.7
117059	7	Sololá	713	San Lucas Tolimán	10	San Lucas Tolimán	4	Abril	2023-09-04T00:00:00	2024-11-08T02:00:00	3	Temperatura mínima	15.8
117060	7	Sololá	713	San Lucas Tolimán	10	San Lucas Tolimán	4	Abril	2023-09-04T00:00:00	2024-11-08T02:00:00	5	Humedad	52
117061	7	Sololá	713	San Lucas Tolimán	10	San Lucas Tolimán	4	Abril	2023-09-04T00:00:00	2024-11-08T02:00:00	6	Velocidad del viento	3.2
117062	7	Sololá	713	San Lucas Tolimán	10	San Lucas Tolimán	4	Abril	2023-09-04T00:00:00	2024-11-08T02:00:00	7	Dirección del viento	3.22
117063	7	Sololá	713	San Lucas Tolimán	10	San Lucas Tolimán	4	Abril	2023-09-04T00:00:00	2024-11-08T02:00:00	1	Precipitación	0
117064	7	Sololá	713	San Lucas Tolimán	10	San Lucas Tolimán	4	Abril	2023-09-04T00:00:00	2024-11-08T02:00:00	8	Radiación solar	0
117065	7	Sololá	713	San Lucas Tolimán	10	San Lucas Tolimán	4	Abril	2023-09-04T00:00:00	2024-11-08T03:00:00	2	Temperatura media	16.6
117066	7	Sololá	713	San Lucas Tolimán	10	San Lucas Tolimán	4	Abril	2023-09-04T00:00:00	2024-11-08T03:00:00	4	Temperatura máxima	16.6
117067	7	Sololá	713	San Lucas Tolimán	10	San Lucas Tolimán	4	Abril	2023-09-04T00:00:00	2024-11-08T03:00:00	3	Temperatura mínima	15.4
117068	7	Sololá	713	San Lucas Tolimán	10	San Lucas Tolimán	4	Abril	2023-09-04T00:00:00	2024-11-08T03:00:00	5	Humedad	53
117069	7	Sololá	713	San Lucas Tolimán	10	San Lucas Tolimán	4	Abril	2023-09-04T00:00:00	2024-11-08T03:00:00	6	Velocidad del viento	3.2
117070	7	Sololá	713	San Lucas Tolimán	10	San Lucas Tolimán	4	Abril	2023-09-04T00:00:00	2024-11-08T03:00:00	7	Dirección del viento	3.22
117071	7	Sololá	713	San Lucas Tolimán	10	San Lucas Tolimán	4	Abril	2023-09-04T00:00:00	2024-11-08T03:00:00	1	Precipitación	0
117072	7	Sololá	713	San Lucas Tolimán	10	San Lucas Tolimán	4	Abril	2023-09-04T00:00:00	2024-11-08T03:00:00	8	Radiación solar	0
117073	7	Sololá	713	San Lucas Tolimán	10	San Lucas Tolimán	4	Abril	2023-09-04T00:00:00	2024-11-08T04:00:00	2	Temperatura media	16.3
117074	7	Sololá	713	San Lucas Tolimán	10	San Lucas Tolimán	4	Abril	2023-09-04T00:00:00	2024-11-08T04:00:00	4	Temperatura máxima	16.6
117075	7	Sololá	713	San Lucas Tolimán	10	San Lucas Tolimán	4	Abril	2023-09-04T00:00:00	2024-11-08T04:00:00	3	Temperatura mínima	16.3
117076	7	Sololá	713	San Lucas Tolimán	10	San Lucas Tolimán	4	Abril	2023-09-04T00:00:00	2024-11-08T04:00:00	5	Humedad	53
117077	7	Sololá	713	San Lucas Tolimán	10	San Lucas Tolimán	4	Abril	2023-09-04T00:00:00	2024-11-08T04:00:00	6	Velocidad del viento	3.2
117078	7	Sololá	713	San Lucas Tolimán	10	San Lucas Tolimán	4	Abril	2023-09-04T00:00:00	2024-11-08T04:00:00	7	Dirección del viento	3.22
117079	7	Sololá	713	San Lucas Tolimán	10	San Lucas Tolimán	4	Abril	2023-09-04T00:00:00	2024-11-08T04:00:00	1	Precipitación	0
117080	7	Sololá	713	San Lucas Tolimán	10	San Lucas Tolimán	4	Abril	2023-09-04T00:00:00	2024-11-08T04:00:00	8	Radiación solar	0
117081	7	Sololá	713	San Lucas Tolimán	10	San Lucas Tolimán	4	Abril	2023-09-04T00:00:00	2024-11-08T05:00:00	2	Temperatura media	15.7
117082	7	Sololá	713	San Lucas Tolimán	10	San Lucas Tolimán	4	Abril	2023-09-04T00:00:00	2024-11-08T05:00:00	4	Temperatura máxima	16.3
117083	7	Sololá	713	San Lucas Tolimán	10	San Lucas Tolimán	4	Abril	2023-09-04T00:00:00	2024-11-08T05:00:00	3	Temperatura mínima	15.6
117084	7	Sololá	713	San Lucas Tolimán	10	San Lucas Tolimán	4	Abril	2023-09-04T00:00:00	2024-11-08T05:00:00	5	Humedad	54
117085	7	Sololá	713	San Lucas Tolimán	10	San Lucas Tolimán	4	Abril	2023-09-04T00:00:00	2024-11-08T05:00:00	6	Velocidad del viento	3.2
117086	7	Sololá	713	San Lucas Tolimán	10	San Lucas Tolimán	4	Abril	2023-09-04T00:00:00	2024-11-08T05:00:00	7	Dirección del viento	3.22
117087	7	Sololá	713	San Lucas Tolimán	10	San Lucas Tolimán	4	Abril	2023-09-04T00:00:00	2024-11-08T05:00:00	1	Precipitación	0
117088	7	Sololá	713	San Lucas Tolimán	10	San Lucas Tolimán	4	Abril	2023-09-04T00:00:00	2024-11-08T05:00:00	8	Radiación solar	0
117089	7	Sololá	713	San Lucas Tolimán	10	San Lucas Tolimán	4	Abril	2023-09-04T00:00:00	2024-11-08T06:00:00	2	Temperatura media	15.9
117090	7	Sololá	713	San Lucas Tolimán	10	San Lucas Tolimán	4	Abril	2023-09-04T00:00:00	2024-11-08T06:00:00	4	Temperatura máxima	16.1
117091	7	Sololá	713	San Lucas Tolimán	10	San Lucas Tolimán	4	Abril	2023-09-04T00:00:00	2024-11-08T06:00:00	3	Temperatura mínima	15.5
117092	7	Sololá	713	San Lucas Tolimán	10	San Lucas Tolimán	4	Abril	2023-09-04T00:00:00	2024-11-08T06:00:00	5	Humedad	53
117093	7	Sololá	713	San Lucas Tolimán	10	San Lucas Tolimán	4	Abril	2023-09-04T00:00:00	2024-11-08T06:00:00	6	Velocidad del viento	1.6
117094	7	Sololá	713	San Lucas Tolimán	10	San Lucas Tolimán	4	Abril	2023-09-04T00:00:00	2024-11-08T06:00:00	7	Dirección del viento	1.61
117095	7	Sololá	713	San Lucas Tolimán	10	San Lucas Tolimán	4	Abril	2023-09-04T00:00:00	2024-11-08T06:00:00	1	Precipitación	0
117096	7	Sololá	713	San Lucas Tolimán	10	San Lucas Tolimán	4	Abril	2023-09-04T00:00:00	2024-11-08T06:00:00	8	Radiación solar	0
117097	7	Sololá	713	San Lucas Tolimán	10	San Lucas Tolimán	4	Abril	2023-09-04T00:00:00	2024-11-08T07:00:00	2	Temperatura media	16.7
117098	7	Sololá	713	San Lucas Tolimán	10	San Lucas Tolimán	4	Abril	2023-09-04T00:00:00	2024-11-08T07:00:00	4	Temperatura máxima	16.7
117099	7	Sololá	713	San Lucas Tolimán	10	San Lucas Tolimán	4	Abril	2023-09-04T00:00:00	2024-11-08T07:00:00	3	Temperatura mínima	15.8
117100	7	Sololá	713	San Lucas Tolimán	10	San Lucas Tolimán	4	Abril	2023-09-04T00:00:00	2024-11-08T07:00:00	5	Humedad	53
117101	7	Sololá	713	San Lucas Tolimán	10	San Lucas Tolimán	4	Abril	2023-09-04T00:00:00	2024-11-08T07:00:00	6	Velocidad del viento	3.2
117102	7	Sololá	713	San Lucas Tolimán	10	San Lucas Tolimán	4	Abril	2023-09-04T00:00:00	2024-11-08T07:00:00	7	Dirección del viento	3.22
117103	7	Sololá	713	San Lucas Tolimán	10	San Lucas Tolimán	4	Abril	2023-09-04T00:00:00	2024-11-08T07:00:00	1	Precipitación	0
117104	7	Sololá	713	San Lucas Tolimán	10	San Lucas Tolimán	4	Abril	2023-09-04T00:00:00	2024-11-08T07:00:00	8	Radiación solar	31
117105	7	Sololá	713	San Lucas Tolimán	10	San Lucas Tolimán	4	Abril	2023-09-04T00:00:00	2024-11-08T08:00:00	2	Temperatura media	20.3
117106	7	Sololá	713	San Lucas Tolimán	10	San Lucas Tolimán	4	Abril	2023-09-04T00:00:00	2024-11-08T08:00:00	4	Temperatura máxima	20.3
117107	7	Sololá	713	San Lucas Tolimán	10	San Lucas Tolimán	4	Abril	2023-09-04T00:00:00	2024-11-08T08:00:00	3	Temperatura mínima	16.7
117108	7	Sololá	713	San Lucas Tolimán	10	San Lucas Tolimán	4	Abril	2023-09-04T00:00:00	2024-11-08T08:00:00	5	Humedad	44
117109	7	Sololá	713	San Lucas Tolimán	10	San Lucas Tolimán	4	Abril	2023-09-04T00:00:00	2024-11-08T08:00:00	6	Velocidad del viento	3.2
117110	7	Sololá	713	San Lucas Tolimán	10	San Lucas Tolimán	4	Abril	2023-09-04T00:00:00	2024-11-08T08:00:00	7	Dirección del viento	3.22
117111	7	Sololá	713	San Lucas Tolimán	10	San Lucas Tolimán	4	Abril	2023-09-04T00:00:00	2024-11-08T08:00:00	1	Precipitación	0
117112	7	Sololá	713	San Lucas Tolimán	10	San Lucas Tolimán	4	Abril	2023-09-04T00:00:00	2024-11-08T08:00:00	8	Radiación solar	229
117113	7	Sololá	713	San Lucas Tolimán	10	San Lucas Tolimán	4	Abril	2023-09-04T00:00:00	2024-11-08T09:00:00	2	Temperatura media	21.6
117114	7	Sololá	713	San Lucas Tolimán	10	San Lucas Tolimán	4	Abril	2023-09-04T00:00:00	2024-11-08T09:00:00	4	Temperatura máxima	21.9
117115	7	Sololá	713	San Lucas Tolimán	10	San Lucas Tolimán	4	Abril	2023-09-04T00:00:00	2024-11-08T09:00:00	3	Temperatura mínima	20.3
117116	7	Sololá	713	San Lucas Tolimán	10	San Lucas Tolimán	4	Abril	2023-09-04T00:00:00	2024-11-08T09:00:00	5	Humedad	36
117117	7	Sololá	713	San Lucas Tolimán	10	San Lucas Tolimán	4	Abril	2023-09-04T00:00:00	2024-11-08T09:00:00	6	Velocidad del viento	9.7
117118	7	Sololá	713	San Lucas Tolimán	10	San Lucas Tolimán	4	Abril	2023-09-04T00:00:00	2024-11-08T09:00:00	7	Dirección del viento	9.66
117119	7	Sololá	713	San Lucas Tolimán	10	San Lucas Tolimán	4	Abril	2023-09-04T00:00:00	2024-11-08T09:00:00	1	Precipitación	0
117120	7	Sololá	713	San Lucas Tolimán	10	San Lucas Tolimán	4	Abril	2023-09-04T00:00:00	2024-11-08T09:00:00	8	Radiación solar	470
117121	7	Sololá	713	San Lucas Tolimán	10	San Lucas Tolimán	4	Abril	2023-09-04T00:00:00	2024-11-08T10:00:00	2	Temperatura media	23.1
117122	7	Sololá	713	San Lucas Tolimán	10	San Lucas Tolimán	4	Abril	2023-09-04T00:00:00	2024-11-08T10:00:00	4	Temperatura máxima	23.1
117123	7	Sololá	713	San Lucas Tolimán	10	San Lucas Tolimán	4	Abril	2023-09-04T00:00:00	2024-11-08T10:00:00	3	Temperatura mínima	21.6
117124	7	Sololá	713	San Lucas Tolimán	10	San Lucas Tolimán	4	Abril	2023-09-04T00:00:00	2024-11-08T10:00:00	5	Humedad	32
117125	7	Sololá	713	San Lucas Tolimán	10	San Lucas Tolimán	4	Abril	2023-09-04T00:00:00	2024-11-08T10:00:00	6	Velocidad del viento	14.5
117126	7	Sololá	713	San Lucas Tolimán	10	San Lucas Tolimán	4	Abril	2023-09-04T00:00:00	2024-11-08T10:00:00	7	Dirección del viento	14.48
117127	7	Sololá	713	San Lucas Tolimán	10	San Lucas Tolimán	4	Abril	2023-09-04T00:00:00	2024-11-08T10:00:00	1	Precipitación	0
117128	7	Sololá	713	San Lucas Tolimán	10	San Lucas Tolimán	4	Abril	2023-09-04T00:00:00	2024-11-08T10:00:00	8	Radiación solar	812
117129	7	Sololá	713	San Lucas Tolimán	10	San Lucas Tolimán	4	Abril	2023-09-04T00:00:00	2024-11-08T11:00:00	2	Temperatura media	24.1
117130	7	Sololá	713	San Lucas Tolimán	10	San Lucas Tolimán	4	Abril	2023-09-04T00:00:00	2024-11-08T11:00:00	4	Temperatura máxima	24.4
117131	7	Sololá	713	San Lucas Tolimán	10	San Lucas Tolimán	4	Abril	2023-09-04T00:00:00	2024-11-08T11:00:00	3	Temperatura mínima	22.9
117132	7	Sololá	713	San Lucas Tolimán	10	San Lucas Tolimán	4	Abril	2023-09-04T00:00:00	2024-11-08T11:00:00	5	Humedad	31
117133	7	Sololá	713	San Lucas Tolimán	10	San Lucas Tolimán	4	Abril	2023-09-04T00:00:00	2024-11-08T11:00:00	6	Velocidad del viento	11.3
117134	7	Sololá	713	San Lucas Tolimán	10	San Lucas Tolimán	4	Abril	2023-09-04T00:00:00	2024-11-08T11:00:00	7	Dirección del viento	11.27
117135	7	Sololá	713	San Lucas Tolimán	10	San Lucas Tolimán	4	Abril	2023-09-04T00:00:00	2024-11-08T11:00:00	1	Precipitación	0
117136	7	Sololá	713	San Lucas Tolimán	10	San Lucas Tolimán	4	Abril	2023-09-04T00:00:00	2024-11-08T11:00:00	8	Radiación solar	1020
117137	7	Sololá	713	San Lucas Tolimán	10	San Lucas Tolimán	4	Abril	2023-09-04T00:00:00	2024-11-08T12:00:00	2	Temperatura media	22.7
117138	7	Sololá	713	San Lucas Tolimán	10	San Lucas Tolimán	4	Abril	2023-09-04T00:00:00	2024-11-08T12:00:00	4	Temperatura máxima	24.9
117139	7	Sololá	713	San Lucas Tolimán	10	San Lucas Tolimán	4	Abril	2023-09-04T00:00:00	2024-11-08T12:00:00	3	Temperatura mínima	22.7
117140	7	Sololá	713	San Lucas Tolimán	10	San Lucas Tolimán	4	Abril	2023-09-04T00:00:00	2024-11-08T12:00:00	5	Humedad	56
117141	7	Sololá	713	San Lucas Tolimán	10	San Lucas Tolimán	4	Abril	2023-09-04T00:00:00	2024-11-08T12:00:00	6	Velocidad del viento	8
117142	7	Sololá	713	San Lucas Tolimán	10	San Lucas Tolimán	4	Abril	2023-09-04T00:00:00	2024-11-08T12:00:00	7	Dirección del viento	8.05
117143	7	Sololá	713	San Lucas Tolimán	10	San Lucas Tolimán	4	Abril	2023-09-04T00:00:00	2024-11-08T12:00:00	1	Precipitación	0
117144	7	Sololá	713	San Lucas Tolimán	10	San Lucas Tolimán	4	Abril	2023-09-04T00:00:00	2024-11-08T12:00:00	8	Radiación solar	977
117145	7	Sololá	713	San Lucas Tolimán	10	San Lucas Tolimán	4	Abril	2023-09-04T00:00:00	2024-11-08T13:00:00	2	Temperatura media	23.6
117146	7	Sololá	713	San Lucas Tolimán	10	San Lucas Tolimán	4	Abril	2023-09-04T00:00:00	2024-11-08T13:00:00	4	Temperatura máxima	23.7
117147	7	Sololá	713	San Lucas Tolimán	10	San Lucas Tolimán	4	Abril	2023-09-04T00:00:00	2024-11-08T13:00:00	3	Temperatura mínima	22.4
117148	7	Sololá	713	San Lucas Tolimán	10	San Lucas Tolimán	4	Abril	2023-09-04T00:00:00	2024-11-08T13:00:00	5	Humedad	54
117149	7	Sololá	713	San Lucas Tolimán	10	San Lucas Tolimán	4	Abril	2023-09-04T00:00:00	2024-11-08T13:00:00	6	Velocidad del viento	9.7
117150	7	Sololá	713	San Lucas Tolimán	10	San Lucas Tolimán	4	Abril	2023-09-04T00:00:00	2024-11-08T13:00:00	7	Dirección del viento	9.66
117151	7	Sololá	713	San Lucas Tolimán	10	San Lucas Tolimán	4	Abril	2023-09-04T00:00:00	2024-11-08T13:00:00	1	Precipitación	0
117152	7	Sololá	713	San Lucas Tolimán	10	San Lucas Tolimán	4	Abril	2023-09-04T00:00:00	2024-11-08T13:00:00	8	Radiación solar	989
117153	7	Sololá	713	San Lucas Tolimán	10	San Lucas Tolimán	4	Abril	2023-09-04T00:00:00	2024-11-08T14:00:00	2	Temperatura media	23.3
117154	7	Sololá	713	San Lucas Tolimán	10	San Lucas Tolimán	4	Abril	2023-09-04T00:00:00	2024-11-08T14:00:00	4	Temperatura máxima	24
117155	7	Sololá	713	San Lucas Tolimán	10	San Lucas Tolimán	4	Abril	2023-09-04T00:00:00	2024-11-08T14:00:00	3	Temperatura mínima	22.9
117156	7	Sololá	713	San Lucas Tolimán	10	San Lucas Tolimán	4	Abril	2023-09-04T00:00:00	2024-11-08T14:00:00	5	Humedad	54
117157	7	Sololá	713	San Lucas Tolimán	10	San Lucas Tolimán	4	Abril	2023-09-04T00:00:00	2024-11-08T14:00:00	6	Velocidad del viento	11.3
117158	7	Sololá	713	San Lucas Tolimán	10	San Lucas Tolimán	4	Abril	2023-09-04T00:00:00	2024-11-08T14:00:00	7	Dirección del viento	11.27
117159	7	Sololá	713	San Lucas Tolimán	10	San Lucas Tolimán	4	Abril	2023-09-04T00:00:00	2024-11-08T14:00:00	1	Precipitación	0
117160	7	Sololá	713	San Lucas Tolimán	10	San Lucas Tolimán	4	Abril	2023-09-04T00:00:00	2024-11-08T14:00:00	8	Radiación solar	1070
117161	7	Sololá	713	San Lucas Tolimán	10	San Lucas Tolimán	4	Abril	2023-09-04T00:00:00	2024-11-08T15:00:00	2	Temperatura media	23.2
117162	7	Sololá	713	San Lucas Tolimán	10	San Lucas Tolimán	4	Abril	2023-09-04T00:00:00	2024-11-08T15:00:00	4	Temperatura máxima	23.5
117163	7	Sololá	713	San Lucas Tolimán	10	San Lucas Tolimán	4	Abril	2023-09-04T00:00:00	2024-11-08T15:00:00	3	Temperatura mínima	22.4
117164	7	Sololá	713	San Lucas Tolimán	10	San Lucas Tolimán	4	Abril	2023-09-04T00:00:00	2024-11-08T15:00:00	5	Humedad	54
117165	7	Sololá	713	San Lucas Tolimán	10	San Lucas Tolimán	4	Abril	2023-09-04T00:00:00	2024-11-08T15:00:00	6	Velocidad del viento	12.9
117166	7	Sololá	713	San Lucas Tolimán	10	San Lucas Tolimán	4	Abril	2023-09-04T00:00:00	2024-11-08T15:00:00	7	Dirección del viento	12.87
117167	7	Sololá	713	San Lucas Tolimán	10	San Lucas Tolimán	4	Abril	2023-09-04T00:00:00	2024-11-08T15:00:00	1	Precipitación	0
117168	7	Sololá	713	San Lucas Tolimán	10	San Lucas Tolimán	4	Abril	2023-09-04T00:00:00	2024-11-08T15:00:00	8	Radiación solar	704
117169	7	Sololá	713	San Lucas Tolimán	10	San Lucas Tolimán	4	Abril	2023-09-04T00:00:00	2024-11-08T16:00:00	2	Temperatura media	22.3
117170	7	Sololá	713	San Lucas Tolimán	10	San Lucas Tolimán	4	Abril	2023-09-04T00:00:00	2024-11-08T16:00:00	4	Temperatura máxima	23.2
117171	7	Sololá	713	San Lucas Tolimán	10	San Lucas Tolimán	4	Abril	2023-09-04T00:00:00	2024-11-08T16:00:00	3	Temperatura mínima	22.2
117172	7	Sololá	713	San Lucas Tolimán	10	San Lucas Tolimán	4	Abril	2023-09-04T00:00:00	2024-11-08T16:00:00	5	Humedad	57
117173	7	Sololá	713	San Lucas Tolimán	10	San Lucas Tolimán	4	Abril	2023-09-04T00:00:00	2024-11-08T16:00:00	6	Velocidad del viento	12.9
117174	7	Sololá	713	San Lucas Tolimán	10	San Lucas Tolimán	4	Abril	2023-09-04T00:00:00	2024-11-08T16:00:00	7	Dirección del viento	12.87
117175	7	Sololá	713	San Lucas Tolimán	10	San Lucas Tolimán	4	Abril	2023-09-04T00:00:00	2024-11-08T16:00:00	1	Precipitación	0
117176	7	Sololá	713	San Lucas Tolimán	10	San Lucas Tolimán	4	Abril	2023-09-04T00:00:00	2024-11-08T16:00:00	8	Radiación solar	601
117177	7	Sololá	713	San Lucas Tolimán	10	San Lucas Tolimán	4	Abril	2023-09-04T00:00:00	2024-11-08T17:00:00	2	Temperatura media	21.3
117178	7	Sololá	713	San Lucas Tolimán	10	San Lucas Tolimán	4	Abril	2023-09-04T00:00:00	2024-11-08T17:00:00	4	Temperatura máxima	22.3
117179	7	Sololá	713	San Lucas Tolimán	10	San Lucas Tolimán	4	Abril	2023-09-04T00:00:00	2024-11-08T17:00:00	3	Temperatura mínima	21.3
117180	7	Sololá	713	San Lucas Tolimán	10	San Lucas Tolimán	4	Abril	2023-09-04T00:00:00	2024-11-08T17:00:00	5	Humedad	60
117181	7	Sololá	713	San Lucas Tolimán	10	San Lucas Tolimán	4	Abril	2023-09-04T00:00:00	2024-11-08T17:00:00	6	Velocidad del viento	11.3
117182	7	Sololá	713	San Lucas Tolimán	10	San Lucas Tolimán	4	Abril	2023-09-04T00:00:00	2024-11-08T17:00:00	7	Dirección del viento	11.27
117183	7	Sololá	713	San Lucas Tolimán	10	San Lucas Tolimán	4	Abril	2023-09-04T00:00:00	2024-11-08T17:00:00	1	Precipitación	0
117184	7	Sololá	713	San Lucas Tolimán	10	San Lucas Tolimán	4	Abril	2023-09-04T00:00:00	2024-11-08T17:00:00	8	Radiación solar	356
117185	7	Sololá	713	San Lucas Tolimán	10	San Lucas Tolimán	4	Abril	2023-09-04T00:00:00	2024-11-08T18:00:00	2	Temperatura media	19.4
117186	7	Sololá	713	San Lucas Tolimán	10	San Lucas Tolimán	4	Abril	2023-09-04T00:00:00	2024-11-08T18:00:00	4	Temperatura máxima	21.3
117187	7	Sololá	713	San Lucas Tolimán	10	San Lucas Tolimán	4	Abril	2023-09-04T00:00:00	2024-11-08T18:00:00	3	Temperatura mínima	19.4
117188	7	Sololá	713	San Lucas Tolimán	10	San Lucas Tolimán	4	Abril	2023-09-04T00:00:00	2024-11-08T18:00:00	5	Humedad	61
117189	7	Sololá	713	San Lucas Tolimán	10	San Lucas Tolimán	4	Abril	2023-09-04T00:00:00	2024-11-08T18:00:00	6	Velocidad del viento	8
117190	7	Sololá	713	San Lucas Tolimán	10	San Lucas Tolimán	4	Abril	2023-09-04T00:00:00	2024-11-08T18:00:00	7	Dirección del viento	8.05
117191	7	Sololá	713	San Lucas Tolimán	10	San Lucas Tolimán	4	Abril	2023-09-04T00:00:00	2024-11-08T18:00:00	1	Precipitación	0
117192	7	Sololá	713	San Lucas Tolimán	10	San Lucas Tolimán	4	Abril	2023-09-04T00:00:00	2024-11-08T18:00:00	8	Radiación solar	98
117193	7	Sololá	713	San Lucas Tolimán	10	San Lucas Tolimán	4	Abril	2023-09-04T00:00:00	2024-11-08T19:00:00	2	Temperatura media	18.4
117194	7	Sololá	713	San Lucas Tolimán	10	San Lucas Tolimán	4	Abril	2023-09-04T00:00:00	2024-11-08T19:00:00	4	Temperatura máxima	19.5
117195	7	Sololá	713	San Lucas Tolimán	10	San Lucas Tolimán	4	Abril	2023-09-04T00:00:00	2024-11-08T19:00:00	3	Temperatura mínima	18.4
117196	7	Sololá	713	San Lucas Tolimán	10	San Lucas Tolimán	4	Abril	2023-09-04T00:00:00	2024-11-08T19:00:00	5	Humedad	62
117197	7	Sololá	713	San Lucas Tolimán	10	San Lucas Tolimán	4	Abril	2023-09-04T00:00:00	2024-11-08T19:00:00	6	Velocidad del viento	4.8
117198	7	Sololá	713	San Lucas Tolimán	10	San Lucas Tolimán	4	Abril	2023-09-04T00:00:00	2024-11-08T19:00:00	7	Dirección del viento	4.83
117199	7	Sololá	713	San Lucas Tolimán	10	San Lucas Tolimán	4	Abril	2023-09-04T00:00:00	2024-11-08T19:00:00	1	Precipitación	0
117200	7	Sololá	713	San Lucas Tolimán	10	San Lucas Tolimán	4	Abril	2023-09-04T00:00:00	2024-11-08T19:00:00	8	Radiación solar	0
117201	7	Sololá	713	San Lucas Tolimán	10	San Lucas Tolimán	4	Abril	2023-09-04T00:00:00	2024-11-08T20:00:00	2	Temperatura media	17.6
117202	7	Sololá	713	San Lucas Tolimán	10	San Lucas Tolimán	4	Abril	2023-09-04T00:00:00	2024-11-08T20:00:00	4	Temperatura máxima	18.4
117203	7	Sololá	713	San Lucas Tolimán	10	San Lucas Tolimán	4	Abril	2023-09-04T00:00:00	2024-11-08T20:00:00	3	Temperatura mínima	17.4
117204	7	Sololá	713	San Lucas Tolimán	10	San Lucas Tolimán	4	Abril	2023-09-04T00:00:00	2024-11-08T20:00:00	5	Humedad	58
117205	7	Sololá	713	San Lucas Tolimán	10	San Lucas Tolimán	4	Abril	2023-09-04T00:00:00	2024-11-08T20:00:00	6	Velocidad del viento	3.2
117206	7	Sololá	713	San Lucas Tolimán	10	San Lucas Tolimán	4	Abril	2023-09-04T00:00:00	2024-11-08T20:00:00	7	Dirección del viento	3.22
117207	7	Sololá	713	San Lucas Tolimán	10	San Lucas Tolimán	4	Abril	2023-09-04T00:00:00	2024-11-08T20:00:00	1	Precipitación	0
117208	7	Sololá	713	San Lucas Tolimán	10	San Lucas Tolimán	4	Abril	2023-09-04T00:00:00	2024-11-08T20:00:00	8	Radiación solar	0
117209	7	Sololá	713	San Lucas Tolimán	10	San Lucas Tolimán	4	Abril	2023-09-04T00:00:00	2024-11-08T21:00:00	2	Temperatura media	17.1
117210	7	Sololá	713	San Lucas Tolimán	10	San Lucas Tolimán	4	Abril	2023-09-04T00:00:00	2024-11-08T21:00:00	4	Temperatura máxima	17.6
117211	7	Sololá	713	San Lucas Tolimán	10	San Lucas Tolimán	4	Abril	2023-09-04T00:00:00	2024-11-08T21:00:00	3	Temperatura mínima	17
117212	7	Sololá	713	San Lucas Tolimán	10	San Lucas Tolimán	4	Abril	2023-09-04T00:00:00	2024-11-08T21:00:00	5	Humedad	55
117213	7	Sololá	713	San Lucas Tolimán	10	San Lucas Tolimán	4	Abril	2023-09-04T00:00:00	2024-11-08T21:00:00	6	Velocidad del viento	1.6
117214	7	Sololá	713	San Lucas Tolimán	10	San Lucas Tolimán	4	Abril	2023-09-04T00:00:00	2024-11-08T21:00:00	7	Dirección del viento	1.61
117215	7	Sololá	713	San Lucas Tolimán	10	San Lucas Tolimán	4	Abril	2023-09-04T00:00:00	2024-11-08T21:00:00	1	Precipitación	0
117216	7	Sololá	713	San Lucas Tolimán	10	San Lucas Tolimán	4	Abril	2023-09-04T00:00:00	2024-11-08T21:00:00	8	Radiación solar	0
117217	7	Sololá	713	San Lucas Tolimán	10	San Lucas Tolimán	4	Abril	2023-09-04T00:00:00	2024-11-08T22:00:00	2	Temperatura media	16.1
117218	7	Sololá	713	San Lucas Tolimán	10	San Lucas Tolimán	4	Abril	2023-09-04T00:00:00	2024-11-08T22:00:00	4	Temperatura máxima	17.1
117219	7	Sololá	713	San Lucas Tolimán	10	San Lucas Tolimán	4	Abril	2023-09-04T00:00:00	2024-11-08T22:00:00	3	Temperatura mínima	16.1
117220	7	Sololá	713	San Lucas Tolimán	10	San Lucas Tolimán	4	Abril	2023-09-04T00:00:00	2024-11-08T22:00:00	5	Humedad	52
117221	7	Sololá	713	San Lucas Tolimán	10	San Lucas Tolimán	4	Abril	2023-09-04T00:00:00	2024-11-08T22:00:00	6	Velocidad del viento	1.6
117222	7	Sololá	713	San Lucas Tolimán	10	San Lucas Tolimán	4	Abril	2023-09-04T00:00:00	2024-11-08T22:00:00	7	Dirección del viento	1.61
117223	7	Sololá	713	San Lucas Tolimán	10	San Lucas Tolimán	4	Abril	2023-09-04T00:00:00	2024-11-08T22:00:00	1	Precipitación	0
117224	7	Sololá	713	San Lucas Tolimán	10	San Lucas Tolimán	4	Abril	2023-09-04T00:00:00	2024-11-08T22:00:00	8	Radiación solar	0
117225	7	Sololá	713	San Lucas Tolimán	10	San Lucas Tolimán	4	Abril	2023-09-04T00:00:00	2024-11-08T23:00:00	2	Temperatura media	16.2
117226	7	Sololá	713	San Lucas Tolimán	10	San Lucas Tolimán	4	Abril	2023-09-04T00:00:00	2024-11-08T23:00:00	4	Temperatura máxima	16.3
117227	7	Sololá	713	San Lucas Tolimán	10	San Lucas Tolimán	4	Abril	2023-09-04T00:00:00	2024-11-08T23:00:00	3	Temperatura mínima	15.9
117228	7	Sololá	713	San Lucas Tolimán	10	San Lucas Tolimán	4	Abril	2023-09-04T00:00:00	2024-11-08T23:00:00	5	Humedad	52
117229	7	Sololá	713	San Lucas Tolimán	10	San Lucas Tolimán	4	Abril	2023-09-04T00:00:00	2024-11-08T23:00:00	6	Velocidad del viento	1.6
117230	7	Sololá	713	San Lucas Tolimán	10	San Lucas Tolimán	4	Abril	2023-09-04T00:00:00	2024-11-08T23:00:00	7	Dirección del viento	1.61
117231	7	Sololá	713	San Lucas Tolimán	10	San Lucas Tolimán	4	Abril	2023-09-04T00:00:00	2024-11-08T23:00:00	1	Precipitación	0
117232	7	Sololá	713	San Lucas Tolimán	10	San Lucas Tolimán	4	Abril	2023-09-04T00:00:00	2024-11-08T23:00:00	8	Radiación solar	0
117233	7	Sololá	713	San Lucas Tolimán	10	San Lucas Tolimán	4	Abril	2023-10-04T00:00:00	2024-11-08T00:00:00	2	Temperatura media	16
117234	7	Sololá	713	San Lucas Tolimán	10	San Lucas Tolimán	4	Abril	2023-10-04T00:00:00	2024-11-08T00:00:00	4	Temperatura máxima	16.4
117235	7	Sololá	713	San Lucas Tolimán	10	San Lucas Tolimán	4	Abril	2023-10-04T00:00:00	2024-11-08T00:00:00	3	Temperatura mínima	15.7
117236	7	Sololá	713	San Lucas Tolimán	10	San Lucas Tolimán	4	Abril	2023-10-04T00:00:00	2024-11-08T00:00:00	5	Humedad	52
117237	7	Sololá	713	San Lucas Tolimán	10	San Lucas Tolimán	4	Abril	2023-10-04T00:00:00	2024-11-08T00:00:00	6	Velocidad del viento	0
117238	7	Sololá	713	San Lucas Tolimán	10	San Lucas Tolimán	4	Abril	2023-10-04T00:00:00	2024-11-08T00:00:00	7	Dirección del viento	0
117239	7	Sololá	713	San Lucas Tolimán	10	San Lucas Tolimán	4	Abril	2023-10-04T00:00:00	2024-11-08T00:00:00	1	Precipitación	0
117240	7	Sololá	713	San Lucas Tolimán	10	San Lucas Tolimán	4	Abril	2023-10-04T00:00:00	2024-11-08T00:00:00	8	Radiación solar	0
117241	7	Sololá	713	San Lucas Tolimán	10	San Lucas Tolimán	4	Abril	2023-10-04T00:00:00	2024-11-08T01:00:00	2	Temperatura media	15.6
117242	7	Sololá	713	San Lucas Tolimán	10	San Lucas Tolimán	4	Abril	2023-10-04T00:00:00	2024-11-08T01:00:00	4	Temperatura máxima	16.4
117243	7	Sololá	713	San Lucas Tolimán	10	San Lucas Tolimán	4	Abril	2023-10-04T00:00:00	2024-11-08T01:00:00	3	Temperatura mínima	15.4
117244	7	Sololá	713	San Lucas Tolimán	10	San Lucas Tolimán	4	Abril	2023-10-04T00:00:00	2024-11-08T01:00:00	5	Humedad	50
117245	7	Sololá	713	San Lucas Tolimán	10	San Lucas Tolimán	4	Abril	2023-10-04T00:00:00	2024-11-08T01:00:00	6	Velocidad del viento	0
117246	7	Sololá	713	San Lucas Tolimán	10	San Lucas Tolimán	4	Abril	2023-10-04T00:00:00	2024-11-08T01:00:00	7	Dirección del viento	0
117247	7	Sololá	713	San Lucas Tolimán	10	San Lucas Tolimán	4	Abril	2023-10-04T00:00:00	2024-11-08T01:00:00	1	Precipitación	0
117248	7	Sololá	713	San Lucas Tolimán	10	San Lucas Tolimán	4	Abril	2023-10-04T00:00:00	2024-11-08T01:00:00	8	Radiación solar	0
117249	7	Sololá	713	San Lucas Tolimán	10	San Lucas Tolimán	4	Abril	2023-10-04T00:00:00	2024-11-08T02:00:00	2	Temperatura media	16.1
117250	7	Sololá	713	San Lucas Tolimán	10	San Lucas Tolimán	4	Abril	2023-10-04T00:00:00	2024-11-08T02:00:00	4	Temperatura máxima	16.2
117251	7	Sololá	713	San Lucas Tolimán	10	San Lucas Tolimán	4	Abril	2023-10-04T00:00:00	2024-11-08T02:00:00	3	Temperatura mínima	15.3
117252	7	Sololá	713	San Lucas Tolimán	10	San Lucas Tolimán	4	Abril	2023-10-04T00:00:00	2024-11-08T02:00:00	5	Humedad	50
117253	7	Sololá	713	San Lucas Tolimán	10	San Lucas Tolimán	4	Abril	2023-10-04T00:00:00	2024-11-08T02:00:00	6	Velocidad del viento	0
117254	7	Sololá	713	San Lucas Tolimán	10	San Lucas Tolimán	4	Abril	2023-10-04T00:00:00	2024-11-08T02:00:00	7	Dirección del viento	0
117255	7	Sololá	713	San Lucas Tolimán	10	San Lucas Tolimán	4	Abril	2023-10-04T00:00:00	2024-11-08T02:00:00	1	Precipitación	0
117256	7	Sololá	713	San Lucas Tolimán	10	San Lucas Tolimán	4	Abril	2023-10-04T00:00:00	2024-11-08T02:00:00	8	Radiación solar	0
117257	7	Sololá	713	San Lucas Tolimán	10	San Lucas Tolimán	4	Abril	2023-10-04T00:00:00	2024-11-08T03:00:00	2	Temperatura media	16.9
117258	7	Sololá	713	San Lucas Tolimán	10	San Lucas Tolimán	4	Abril	2023-10-04T00:00:00	2024-11-08T03:00:00	4	Temperatura máxima	17
117259	7	Sololá	713	San Lucas Tolimán	10	San Lucas Tolimán	4	Abril	2023-10-04T00:00:00	2024-11-08T03:00:00	3	Temperatura mínima	16.1
117260	7	Sololá	713	San Lucas Tolimán	10	San Lucas Tolimán	4	Abril	2023-10-04T00:00:00	2024-11-08T03:00:00	5	Humedad	47
117261	7	Sololá	713	San Lucas Tolimán	10	San Lucas Tolimán	4	Abril	2023-10-04T00:00:00	2024-11-08T03:00:00	6	Velocidad del viento	4.8
117262	7	Sololá	713	San Lucas Tolimán	10	San Lucas Tolimán	4	Abril	2023-10-04T00:00:00	2024-11-08T03:00:00	7	Dirección del viento	4.83
117263	7	Sololá	713	San Lucas Tolimán	10	San Lucas Tolimán	4	Abril	2023-10-04T00:00:00	2024-11-08T03:00:00	1	Precipitación	0
117264	7	Sololá	713	San Lucas Tolimán	10	San Lucas Tolimán	4	Abril	2023-10-04T00:00:00	2024-11-08T03:00:00	8	Radiación solar	0
117265	7	Sololá	713	San Lucas Tolimán	10	San Lucas Tolimán	4	Abril	2023-10-04T00:00:00	2024-11-08T04:00:00	2	Temperatura media	17
117266	7	Sololá	713	San Lucas Tolimán	10	San Lucas Tolimán	4	Abril	2023-10-04T00:00:00	2024-11-08T04:00:00	4	Temperatura máxima	17.1
117267	7	Sololá	713	San Lucas Tolimán	10	San Lucas Tolimán	4	Abril	2023-10-04T00:00:00	2024-11-08T04:00:00	3	Temperatura mínima	16.9
117268	7	Sololá	713	San Lucas Tolimán	10	San Lucas Tolimán	4	Abril	2023-10-04T00:00:00	2024-11-08T04:00:00	5	Humedad	47
117269	7	Sololá	713	San Lucas Tolimán	10	San Lucas Tolimán	4	Abril	2023-10-04T00:00:00	2024-11-08T04:00:00	6	Velocidad del viento	4.8
117270	7	Sololá	713	San Lucas Tolimán	10	San Lucas Tolimán	4	Abril	2023-10-04T00:00:00	2024-11-08T04:00:00	7	Dirección del viento	4.83
117271	7	Sololá	713	San Lucas Tolimán	10	San Lucas Tolimán	4	Abril	2023-10-04T00:00:00	2024-11-08T04:00:00	1	Precipitación	0
117272	7	Sololá	713	San Lucas Tolimán	10	San Lucas Tolimán	4	Abril	2023-10-04T00:00:00	2024-11-08T04:00:00	8	Radiación solar	0
117273	7	Sololá	713	San Lucas Tolimán	10	San Lucas Tolimán	4	Abril	2023-10-04T00:00:00	2024-11-08T05:00:00	2	Temperatura media	17.5
117274	7	Sololá	713	San Lucas Tolimán	10	San Lucas Tolimán	4	Abril	2023-10-04T00:00:00	2024-11-08T05:00:00	4	Temperatura máxima	17.5
117275	7	Sololá	713	San Lucas Tolimán	10	San Lucas Tolimán	4	Abril	2023-10-04T00:00:00	2024-11-08T05:00:00	3	Temperatura mínima	16.9
117276	7	Sololá	713	San Lucas Tolimán	10	San Lucas Tolimán	4	Abril	2023-10-04T00:00:00	2024-11-08T05:00:00	5	Humedad	48
117277	7	Sololá	713	San Lucas Tolimán	10	San Lucas Tolimán	4	Abril	2023-10-04T00:00:00	2024-11-08T05:00:00	6	Velocidad del viento	8
117278	7	Sololá	713	San Lucas Tolimán	10	San Lucas Tolimán	4	Abril	2023-10-04T00:00:00	2024-11-08T05:00:00	7	Dirección del viento	8.05
117279	7	Sololá	713	San Lucas Tolimán	10	San Lucas Tolimán	4	Abril	2023-10-04T00:00:00	2024-11-08T05:00:00	1	Precipitación	0
117280	7	Sololá	713	San Lucas Tolimán	10	San Lucas Tolimán	4	Abril	2023-10-04T00:00:00	2024-11-08T05:00:00	8	Radiación solar	0
117281	7	Sololá	713	San Lucas Tolimán	10	San Lucas Tolimán	4	Abril	2023-10-04T00:00:00	2024-11-08T06:00:00	2	Temperatura media	17.6
117282	7	Sololá	713	San Lucas Tolimán	10	San Lucas Tolimán	4	Abril	2023-10-04T00:00:00	2024-11-08T06:00:00	4	Temperatura máxima	17.9
117283	7	Sololá	713	San Lucas Tolimán	10	San Lucas Tolimán	4	Abril	2023-10-04T00:00:00	2024-11-08T06:00:00	3	Temperatura mínima	17.4
117284	7	Sololá	713	San Lucas Tolimán	10	San Lucas Tolimán	4	Abril	2023-10-04T00:00:00	2024-11-08T06:00:00	5	Humedad	46
117285	7	Sololá	713	San Lucas Tolimán	10	San Lucas Tolimán	4	Abril	2023-10-04T00:00:00	2024-11-08T06:00:00	6	Velocidad del viento	12.9
117286	7	Sololá	713	San Lucas Tolimán	10	San Lucas Tolimán	4	Abril	2023-10-04T00:00:00	2024-11-08T06:00:00	7	Dirección del viento	12.87
117287	7	Sololá	713	San Lucas Tolimán	10	San Lucas Tolimán	4	Abril	2023-10-04T00:00:00	2024-11-08T06:00:00	1	Precipitación	0
117288	7	Sololá	713	San Lucas Tolimán	10	San Lucas Tolimán	4	Abril	2023-10-04T00:00:00	2024-11-08T06:00:00	8	Radiación solar	0
117289	7	Sololá	713	San Lucas Tolimán	10	San Lucas Tolimán	4	Abril	2023-10-04T00:00:00	2024-11-08T07:00:00	2	Temperatura media	17.8
117290	7	Sololá	713	San Lucas Tolimán	10	San Lucas Tolimán	4	Abril	2023-10-04T00:00:00	2024-11-08T07:00:00	4	Temperatura máxima	17.8
117291	7	Sololá	713	San Lucas Tolimán	10	San Lucas Tolimán	4	Abril	2023-10-04T00:00:00	2024-11-08T07:00:00	3	Temperatura mínima	17.2
117292	7	Sololá	713	San Lucas Tolimán	10	San Lucas Tolimán	4	Abril	2023-10-04T00:00:00	2024-11-08T07:00:00	5	Humedad	47
117293	7	Sololá	713	San Lucas Tolimán	10	San Lucas Tolimán	4	Abril	2023-10-04T00:00:00	2024-11-08T07:00:00	6	Velocidad del viento	6.4
117294	7	Sololá	713	San Lucas Tolimán	10	San Lucas Tolimán	4	Abril	2023-10-04T00:00:00	2024-11-08T07:00:00	7	Dirección del viento	6.44
117295	7	Sololá	713	San Lucas Tolimán	10	San Lucas Tolimán	4	Abril	2023-10-04T00:00:00	2024-11-08T07:00:00	1	Precipitación	0
117296	7	Sololá	713	San Lucas Tolimán	10	San Lucas Tolimán	4	Abril	2023-10-04T00:00:00	2024-11-08T07:00:00	8	Radiación solar	31
117297	7	Sololá	713	San Lucas Tolimán	10	San Lucas Tolimán	4	Abril	2023-10-04T00:00:00	2024-11-08T08:00:00	2	Temperatura media	20
117298	7	Sololá	713	San Lucas Tolimán	10	San Lucas Tolimán	4	Abril	2023-10-04T00:00:00	2024-11-08T08:00:00	4	Temperatura máxima	20.1
117299	7	Sololá	713	San Lucas Tolimán	10	San Lucas Tolimán	4	Abril	2023-10-04T00:00:00	2024-11-08T08:00:00	3	Temperatura mínima	17.8
117300	7	Sololá	713	San Lucas Tolimán	10	San Lucas Tolimán	4	Abril	2023-10-04T00:00:00	2024-11-08T08:00:00	5	Humedad	44
117301	7	Sololá	713	San Lucas Tolimán	10	San Lucas Tolimán	4	Abril	2023-10-04T00:00:00	2024-11-08T08:00:00	6	Velocidad del viento	8
117302	7	Sololá	713	San Lucas Tolimán	10	San Lucas Tolimán	4	Abril	2023-10-04T00:00:00	2024-11-08T08:00:00	7	Dirección del viento	8.05
117303	7	Sololá	713	San Lucas Tolimán	10	San Lucas Tolimán	4	Abril	2023-10-04T00:00:00	2024-11-08T08:00:00	1	Precipitación	0
117304	7	Sololá	713	San Lucas Tolimán	10	San Lucas Tolimán	4	Abril	2023-10-04T00:00:00	2024-11-08T08:00:00	8	Radiación solar	228
117305	7	Sololá	713	San Lucas Tolimán	10	San Lucas Tolimán	4	Abril	2023-10-04T00:00:00	2024-11-08T09:00:00	2	Temperatura media	21.2
117306	7	Sololá	713	San Lucas Tolimán	10	San Lucas Tolimán	4	Abril	2023-10-04T00:00:00	2024-11-08T09:00:00	4	Temperatura máxima	21.2
117307	7	Sololá	713	San Lucas Tolimán	10	San Lucas Tolimán	4	Abril	2023-10-04T00:00:00	2024-11-08T09:00:00	3	Temperatura mínima	19.9
117308	7	Sololá	713	San Lucas Tolimán	10	San Lucas Tolimán	4	Abril	2023-10-04T00:00:00	2024-11-08T09:00:00	5	Humedad	39
117309	7	Sololá	713	San Lucas Tolimán	10	San Lucas Tolimán	4	Abril	2023-10-04T00:00:00	2024-11-08T09:00:00	6	Velocidad del viento	12.9
117310	7	Sololá	713	San Lucas Tolimán	10	San Lucas Tolimán	4	Abril	2023-10-04T00:00:00	2024-11-08T09:00:00	7	Dirección del viento	12.87
117311	7	Sololá	713	San Lucas Tolimán	10	San Lucas Tolimán	4	Abril	2023-10-04T00:00:00	2024-11-08T09:00:00	1	Precipitación	0
117312	7	Sololá	713	San Lucas Tolimán	10	San Lucas Tolimán	4	Abril	2023-10-04T00:00:00	2024-11-08T09:00:00	8	Radiación solar	468
117313	7	Sololá	713	San Lucas Tolimán	10	San Lucas Tolimán	4	Abril	2023-10-04T00:00:00	2024-11-08T10:00:00	2	Temperatura media	22.7
117314	7	Sololá	713	San Lucas Tolimán	10	San Lucas Tolimán	4	Abril	2023-10-04T00:00:00	2024-11-08T10:00:00	4	Temperatura máxima	22.7
117315	7	Sololá	713	San Lucas Tolimán	10	San Lucas Tolimán	4	Abril	2023-10-04T00:00:00	2024-11-08T10:00:00	3	Temperatura mínima	21.2
117316	7	Sololá	713	San Lucas Tolimán	10	San Lucas Tolimán	4	Abril	2023-10-04T00:00:00	2024-11-08T10:00:00	5	Humedad	34
117317	7	Sololá	713	San Lucas Tolimán	10	San Lucas Tolimán	4	Abril	2023-10-04T00:00:00	2024-11-08T10:00:00	6	Velocidad del viento	9.7
117318	7	Sololá	713	San Lucas Tolimán	10	San Lucas Tolimán	4	Abril	2023-10-04T00:00:00	2024-11-08T10:00:00	7	Dirección del viento	9.66
117319	7	Sololá	713	San Lucas Tolimán	10	San Lucas Tolimán	4	Abril	2023-10-04T00:00:00	2024-11-08T10:00:00	1	Precipitación	0
117320	7	Sololá	713	San Lucas Tolimán	10	San Lucas Tolimán	4	Abril	2023-10-04T00:00:00	2024-11-08T10:00:00	8	Radiación solar	813
117321	7	Sololá	713	San Lucas Tolimán	10	San Lucas Tolimán	4	Abril	2023-10-04T00:00:00	2024-11-08T11:00:00	2	Temperatura media	23.3
117322	7	Sololá	713	San Lucas Tolimán	10	San Lucas Tolimán	4	Abril	2023-10-04T00:00:00	2024-11-08T11:00:00	4	Temperatura máxima	23.4
117323	7	Sololá	713	San Lucas Tolimán	10	San Lucas Tolimán	4	Abril	2023-10-04T00:00:00	2024-11-08T11:00:00	3	Temperatura mínima	22.4
117324	7	Sololá	713	San Lucas Tolimán	10	San Lucas Tolimán	4	Abril	2023-10-04T00:00:00	2024-11-08T11:00:00	5	Humedad	33
117325	7	Sololá	713	San Lucas Tolimán	10	San Lucas Tolimán	4	Abril	2023-10-04T00:00:00	2024-11-08T11:00:00	6	Velocidad del viento	11.3
117326	7	Sololá	713	San Lucas Tolimán	10	San Lucas Tolimán	4	Abril	2023-10-04T00:00:00	2024-11-08T11:00:00	7	Dirección del viento	11.27
117327	7	Sololá	713	San Lucas Tolimán	10	San Lucas Tolimán	4	Abril	2023-10-04T00:00:00	2024-11-08T11:00:00	1	Precipitación	0
117328	7	Sololá	713	San Lucas Tolimán	10	San Lucas Tolimán	4	Abril	2023-10-04T00:00:00	2024-11-08T11:00:00	8	Radiación solar	1002
117329	7	Sololá	713	San Lucas Tolimán	10	San Lucas Tolimán	4	Abril	2023-10-04T00:00:00	2024-11-08T12:00:00	2	Temperatura media	24.7
117330	7	Sololá	713	San Lucas Tolimán	10	San Lucas Tolimán	4	Abril	2023-10-04T00:00:00	2024-11-08T12:00:00	4	Temperatura máxima	24.8
117331	7	Sololá	713	San Lucas Tolimán	10	San Lucas Tolimán	4	Abril	2023-10-04T00:00:00	2024-11-08T12:00:00	3	Temperatura mínima	23.1
117332	7	Sololá	713	San Lucas Tolimán	10	San Lucas Tolimán	4	Abril	2023-10-04T00:00:00	2024-11-08T12:00:00	5	Humedad	43
117333	7	Sololá	713	San Lucas Tolimán	10	San Lucas Tolimán	4	Abril	2023-10-04T00:00:00	2024-11-08T12:00:00	6	Velocidad del viento	8
117334	7	Sololá	713	San Lucas Tolimán	10	San Lucas Tolimán	4	Abril	2023-10-04T00:00:00	2024-11-08T12:00:00	7	Dirección del viento	8.05
117335	7	Sololá	713	San Lucas Tolimán	10	San Lucas Tolimán	4	Abril	2023-10-04T00:00:00	2024-11-08T12:00:00	1	Precipitación	0
117336	7	Sololá	713	San Lucas Tolimán	10	San Lucas Tolimán	4	Abril	2023-10-04T00:00:00	2024-11-08T12:00:00	8	Radiación solar	1143
117337	7	Sololá	713	San Lucas Tolimán	10	San Lucas Tolimán	4	Abril	2023-10-04T00:00:00	2024-11-08T13:00:00	2	Temperatura media	24.5
117338	7	Sololá	713	San Lucas Tolimán	10	San Lucas Tolimán	4	Abril	2023-10-04T00:00:00	2024-11-08T13:00:00	4	Temperatura máxima	25.1
117339	7	Sololá	713	San Lucas Tolimán	10	San Lucas Tolimán	4	Abril	2023-10-04T00:00:00	2024-11-08T13:00:00	3	Temperatura mínima	24.2
117340	7	Sololá	713	San Lucas Tolimán	10	San Lucas Tolimán	4	Abril	2023-10-04T00:00:00	2024-11-08T13:00:00	5	Humedad	45
117341	7	Sololá	713	San Lucas Tolimán	10	San Lucas Tolimán	4	Abril	2023-10-04T00:00:00	2024-11-08T13:00:00	6	Velocidad del viento	8
117342	7	Sololá	713	San Lucas Tolimán	10	San Lucas Tolimán	4	Abril	2023-10-04T00:00:00	2024-11-08T13:00:00	7	Dirección del viento	8.05
117343	7	Sololá	713	San Lucas Tolimán	10	San Lucas Tolimán	4	Abril	2023-10-04T00:00:00	2024-11-08T13:00:00	1	Precipitación	0
117344	7	Sololá	713	San Lucas Tolimán	10	San Lucas Tolimán	4	Abril	2023-10-04T00:00:00	2024-11-08T13:00:00	8	Radiación solar	1109
117345	7	Sololá	713	San Lucas Tolimán	10	San Lucas Tolimán	4	Abril	2023-10-04T00:00:00	2024-11-08T14:00:00	2	Temperatura media	24.3
117346	7	Sololá	713	San Lucas Tolimán	10	San Lucas Tolimán	4	Abril	2023-10-04T00:00:00	2024-11-08T14:00:00	4	Temperatura máxima	24.7
117347	7	Sololá	713	San Lucas Tolimán	10	San Lucas Tolimán	4	Abril	2023-10-04T00:00:00	2024-11-08T14:00:00	3	Temperatura mínima	23.9
117348	7	Sololá	713	San Lucas Tolimán	10	San Lucas Tolimán	4	Abril	2023-10-04T00:00:00	2024-11-08T14:00:00	5	Humedad	43
117349	7	Sololá	713	San Lucas Tolimán	10	San Lucas Tolimán	4	Abril	2023-10-04T00:00:00	2024-11-08T14:00:00	6	Velocidad del viento	12.9
117350	7	Sololá	713	San Lucas Tolimán	10	San Lucas Tolimán	4	Abril	2023-10-04T00:00:00	2024-11-08T14:00:00	7	Dirección del viento	12.87
117351	7	Sololá	713	San Lucas Tolimán	10	San Lucas Tolimán	4	Abril	2023-10-04T00:00:00	2024-11-08T14:00:00	1	Precipitación	0
117352	7	Sololá	713	San Lucas Tolimán	10	San Lucas Tolimán	4	Abril	2023-10-04T00:00:00	2024-11-08T14:00:00	8	Radiación solar	1055
117353	7	Sololá	713	San Lucas Tolimán	10	San Lucas Tolimán	4	Abril	2023-10-04T00:00:00	2024-11-08T15:00:00	2	Temperatura media	23.8
117354	7	Sololá	713	San Lucas Tolimán	10	San Lucas Tolimán	4	Abril	2023-10-04T00:00:00	2024-11-08T15:00:00	4	Temperatura máxima	24.6
117355	7	Sololá	713	San Lucas Tolimán	10	San Lucas Tolimán	4	Abril	2023-10-04T00:00:00	2024-11-08T15:00:00	3	Temperatura mínima	23.7
117356	7	Sololá	713	San Lucas Tolimán	10	San Lucas Tolimán	4	Abril	2023-10-04T00:00:00	2024-11-08T15:00:00	5	Humedad	43
117357	7	Sololá	713	San Lucas Tolimán	10	San Lucas Tolimán	4	Abril	2023-10-04T00:00:00	2024-11-08T15:00:00	6	Velocidad del viento	11.3
117358	7	Sololá	713	San Lucas Tolimán	10	San Lucas Tolimán	4	Abril	2023-10-04T00:00:00	2024-11-08T15:00:00	7	Dirección del viento	11.27
117359	7	Sololá	713	San Lucas Tolimán	10	San Lucas Tolimán	4	Abril	2023-10-04T00:00:00	2024-11-08T15:00:00	1	Precipitación	0
117360	7	Sololá	713	San Lucas Tolimán	10	San Lucas Tolimán	4	Abril	2023-10-04T00:00:00	2024-11-08T15:00:00	8	Radiación solar	906
117361	7	Sololá	713	San Lucas Tolimán	10	San Lucas Tolimán	4	Abril	2023-10-04T00:00:00	2024-11-08T16:00:00	2	Temperatura media	22.8
117362	7	Sololá	713	San Lucas Tolimán	10	San Lucas Tolimán	4	Abril	2023-10-04T00:00:00	2024-11-08T16:00:00	4	Temperatura máxima	24.2
117363	7	Sololá	713	San Lucas Tolimán	10	San Lucas Tolimán	4	Abril	2023-10-04T00:00:00	2024-11-08T16:00:00	3	Temperatura mínima	22.8
117364	7	Sololá	713	San Lucas Tolimán	10	San Lucas Tolimán	4	Abril	2023-10-04T00:00:00	2024-11-08T16:00:00	5	Humedad	51
117365	7	Sololá	713	San Lucas Tolimán	10	San Lucas Tolimán	4	Abril	2023-10-04T00:00:00	2024-11-08T16:00:00	6	Velocidad del viento	11.3
117366	7	Sololá	713	San Lucas Tolimán	10	San Lucas Tolimán	4	Abril	2023-10-04T00:00:00	2024-11-08T16:00:00	7	Dirección del viento	11.27
117367	7	Sololá	713	San Lucas Tolimán	10	San Lucas Tolimán	4	Abril	2023-10-04T00:00:00	2024-11-08T16:00:00	1	Precipitación	0
117368	7	Sololá	713	San Lucas Tolimán	10	San Lucas Tolimán	4	Abril	2023-10-04T00:00:00	2024-11-08T16:00:00	8	Radiación solar	602
117369	7	Sololá	713	San Lucas Tolimán	10	San Lucas Tolimán	4	Abril	2023-10-04T00:00:00	2024-11-08T17:00:00	2	Temperatura media	21.2
117370	7	Sololá	713	San Lucas Tolimán	10	San Lucas Tolimán	4	Abril	2023-10-04T00:00:00	2024-11-08T17:00:00	4	Temperatura máxima	22.8
117371	7	Sololá	713	San Lucas Tolimán	10	San Lucas Tolimán	4	Abril	2023-10-04T00:00:00	2024-11-08T17:00:00	3	Temperatura mínima	21.2
117372	7	Sololá	713	San Lucas Tolimán	10	San Lucas Tolimán	4	Abril	2023-10-04T00:00:00	2024-11-08T17:00:00	5	Humedad	60
117373	7	Sololá	713	San Lucas Tolimán	10	San Lucas Tolimán	4	Abril	2023-10-04T00:00:00	2024-11-08T17:00:00	6	Velocidad del viento	8
117374	7	Sololá	713	San Lucas Tolimán	10	San Lucas Tolimán	4	Abril	2023-10-04T00:00:00	2024-11-08T17:00:00	7	Dirección del viento	8.05
117375	7	Sololá	713	San Lucas Tolimán	10	San Lucas Tolimán	4	Abril	2023-10-04T00:00:00	2024-11-08T17:00:00	1	Precipitación	0
117376	7	Sololá	713	San Lucas Tolimán	10	San Lucas Tolimán	4	Abril	2023-10-04T00:00:00	2024-11-08T17:00:00	8	Radiación solar	176
117377	7	Sololá	713	San Lucas Tolimán	10	San Lucas Tolimán	4	Abril	2023-10-04T00:00:00	2024-11-08T18:00:00	2	Temperatura media	19.9
117378	7	Sololá	713	San Lucas Tolimán	10	San Lucas Tolimán	4	Abril	2023-10-04T00:00:00	2024-11-08T18:00:00	4	Temperatura máxima	21.4
117379	7	Sololá	713	San Lucas Tolimán	10	San Lucas Tolimán	4	Abril	2023-10-04T00:00:00	2024-11-08T18:00:00	3	Temperatura mínima	19.9
117380	7	Sololá	713	San Lucas Tolimán	10	San Lucas Tolimán	4	Abril	2023-10-04T00:00:00	2024-11-08T18:00:00	5	Humedad	62
117381	7	Sololá	713	San Lucas Tolimán	10	San Lucas Tolimán	4	Abril	2023-10-04T00:00:00	2024-11-08T18:00:00	6	Velocidad del viento	8
117382	7	Sololá	713	San Lucas Tolimán	10	San Lucas Tolimán	4	Abril	2023-10-04T00:00:00	2024-11-08T18:00:00	7	Dirección del viento	8.05
117383	7	Sololá	713	San Lucas Tolimán	10	San Lucas Tolimán	4	Abril	2023-10-04T00:00:00	2024-11-08T18:00:00	1	Precipitación	0
117384	7	Sololá	713	San Lucas Tolimán	10	San Lucas Tolimán	4	Abril	2023-10-04T00:00:00	2024-11-08T18:00:00	8	Radiación solar	96
117385	7	Sololá	713	San Lucas Tolimán	10	San Lucas Tolimán	4	Abril	2023-10-04T00:00:00	2024-11-08T19:00:00	2	Temperatura media	20.8
117386	7	Sololá	713	San Lucas Tolimán	10	San Lucas Tolimán	4	Abril	2023-10-04T00:00:00	2024-11-08T19:00:00	4	Temperatura máxima	21.2
117387	7	Sololá	713	San Lucas Tolimán	10	San Lucas Tolimán	4	Abril	2023-10-04T00:00:00	2024-11-08T19:00:00	3	Temperatura mínima	19.7
117388	7	Sololá	713	San Lucas Tolimán	10	San Lucas Tolimán	4	Abril	2023-10-04T00:00:00	2024-11-08T19:00:00	5	Humedad	38
117389	7	Sololá	713	San Lucas Tolimán	10	San Lucas Tolimán	4	Abril	2023-10-04T00:00:00	2024-11-08T19:00:00	6	Velocidad del viento	14.5
117390	7	Sololá	713	San Lucas Tolimán	10	San Lucas Tolimán	4	Abril	2023-10-04T00:00:00	2024-11-08T19:00:00	7	Dirección del viento	14.48
117391	7	Sololá	713	San Lucas Tolimán	10	San Lucas Tolimán	4	Abril	2023-10-04T00:00:00	2024-11-08T19:00:00	1	Precipitación	0
117392	7	Sololá	713	San Lucas Tolimán	10	San Lucas Tolimán	4	Abril	2023-10-04T00:00:00	2024-11-08T19:00:00	8	Radiación solar	0
117393	7	Sololá	713	San Lucas Tolimán	10	San Lucas Tolimán	4	Abril	2023-10-04T00:00:00	2024-11-08T20:00:00	2	Temperatura media	19.7
117394	7	Sololá	713	San Lucas Tolimán	10	San Lucas Tolimán	4	Abril	2023-10-04T00:00:00	2024-11-08T20:00:00	4	Temperatura máxima	20.9
117395	7	Sololá	713	San Lucas Tolimán	10	San Lucas Tolimán	4	Abril	2023-10-04T00:00:00	2024-11-08T20:00:00	3	Temperatura mínima	19.7
117396	7	Sololá	713	San Lucas Tolimán	10	San Lucas Tolimán	4	Abril	2023-10-04T00:00:00	2024-11-08T20:00:00	5	Humedad	42
117397	7	Sololá	713	San Lucas Tolimán	10	San Lucas Tolimán	4	Abril	2023-10-04T00:00:00	2024-11-08T20:00:00	6	Velocidad del viento	11.3
117398	7	Sololá	713	San Lucas Tolimán	10	San Lucas Tolimán	4	Abril	2023-10-04T00:00:00	2024-11-08T20:00:00	7	Dirección del viento	11.27
117399	7	Sololá	713	San Lucas Tolimán	10	San Lucas Tolimán	4	Abril	2023-10-04T00:00:00	2024-11-08T20:00:00	1	Precipitación	0
117400	7	Sololá	713	San Lucas Tolimán	10	San Lucas Tolimán	4	Abril	2023-10-04T00:00:00	2024-11-08T20:00:00	8	Radiación solar	0
117401	7	Sololá	713	San Lucas Tolimán	10	San Lucas Tolimán	4	Abril	2023-10-04T00:00:00	2024-11-08T21:00:00	2	Temperatura media	18.9
117402	7	Sololá	713	San Lucas Tolimán	10	San Lucas Tolimán	4	Abril	2023-10-04T00:00:00	2024-11-08T21:00:00	4	Temperatura máxima	19.7
117403	7	Sololá	713	San Lucas Tolimán	10	San Lucas Tolimán	4	Abril	2023-10-04T00:00:00	2024-11-08T21:00:00	3	Temperatura mínima	18.9
117404	7	Sololá	713	San Lucas Tolimán	10	San Lucas Tolimán	4	Abril	2023-10-04T00:00:00	2024-11-08T21:00:00	5	Humedad	44
117405	7	Sololá	713	San Lucas Tolimán	10	San Lucas Tolimán	4	Abril	2023-10-04T00:00:00	2024-11-08T21:00:00	6	Velocidad del viento	8
117406	7	Sololá	713	San Lucas Tolimán	10	San Lucas Tolimán	4	Abril	2023-10-04T00:00:00	2024-11-08T21:00:00	7	Dirección del viento	8.05
117407	7	Sololá	713	San Lucas Tolimán	10	San Lucas Tolimán	4	Abril	2023-10-04T00:00:00	2024-11-08T21:00:00	1	Precipitación	0
117408	7	Sololá	713	San Lucas Tolimán	10	San Lucas Tolimán	4	Abril	2023-10-04T00:00:00	2024-11-08T21:00:00	8	Radiación solar	0
117409	7	Sololá	713	San Lucas Tolimán	10	San Lucas Tolimán	4	Abril	2023-10-04T00:00:00	2024-11-08T22:00:00	2	Temperatura media	18.2
117410	7	Sololá	713	San Lucas Tolimán	10	San Lucas Tolimán	4	Abril	2023-10-04T00:00:00	2024-11-08T22:00:00	4	Temperatura máxima	18.9
117411	7	Sololá	713	San Lucas Tolimán	10	San Lucas Tolimán	4	Abril	2023-10-04T00:00:00	2024-11-08T22:00:00	3	Temperatura mínima	18.2
117412	7	Sololá	713	San Lucas Tolimán	10	San Lucas Tolimán	4	Abril	2023-10-04T00:00:00	2024-11-08T22:00:00	5	Humedad	41
117413	7	Sololá	713	San Lucas Tolimán	10	San Lucas Tolimán	4	Abril	2023-10-04T00:00:00	2024-11-08T22:00:00	6	Velocidad del viento	3.2
117414	7	Sololá	713	San Lucas Tolimán	10	San Lucas Tolimán	4	Abril	2023-10-04T00:00:00	2024-11-08T22:00:00	7	Dirección del viento	3.22
117415	7	Sololá	713	San Lucas Tolimán	10	San Lucas Tolimán	4	Abril	2023-10-04T00:00:00	2024-11-08T22:00:00	1	Precipitación	0
117416	7	Sololá	713	San Lucas Tolimán	10	San Lucas Tolimán	4	Abril	2023-10-04T00:00:00	2024-11-08T22:00:00	8	Radiación solar	0
117417	7	Sololá	713	San Lucas Tolimán	10	San Lucas Tolimán	4	Abril	2023-10-04T00:00:00	2024-11-08T23:00:00	2	Temperatura media	16.4
117418	7	Sololá	713	San Lucas Tolimán	10	San Lucas Tolimán	4	Abril	2023-10-04T00:00:00	2024-11-08T23:00:00	4	Temperatura máxima	18.2
117419	7	Sololá	713	San Lucas Tolimán	10	San Lucas Tolimán	4	Abril	2023-10-04T00:00:00	2024-11-08T23:00:00	3	Temperatura mínima	16.4
117420	7	Sololá	713	San Lucas Tolimán	10	San Lucas Tolimán	4	Abril	2023-10-04T00:00:00	2024-11-08T23:00:00	5	Humedad	45
117421	7	Sololá	713	San Lucas Tolimán	10	San Lucas Tolimán	4	Abril	2023-10-04T00:00:00	2024-11-08T23:00:00	6	Velocidad del viento	3.2
117422	7	Sololá	713	San Lucas Tolimán	10	San Lucas Tolimán	4	Abril	2023-10-04T00:00:00	2024-11-08T23:00:00	7	Dirección del viento	3.22
117423	7	Sololá	713	San Lucas Tolimán	10	San Lucas Tolimán	4	Abril	2023-10-04T00:00:00	2024-11-08T23:00:00	1	Precipitación	0
117424	7	Sololá	713	San Lucas Tolimán	10	San Lucas Tolimán	4	Abril	2023-10-04T00:00:00	2024-11-08T23:00:00	8	Radiación solar	0
117425	7	Sololá	713	San Lucas Tolimán	10	San Lucas Tolimán	4	Abril	2023-11-04T00:00:00	2024-11-08T00:00:00	2	Temperatura media	17.4
117426	7	Sololá	713	San Lucas Tolimán	10	San Lucas Tolimán	4	Abril	2023-11-04T00:00:00	2024-11-08T00:00:00	4	Temperatura máxima	17.4
117427	7	Sololá	713	San Lucas Tolimán	10	San Lucas Tolimán	4	Abril	2023-11-04T00:00:00	2024-11-08T00:00:00	3	Temperatura mínima	16.1
117428	7	Sololá	713	San Lucas Tolimán	10	San Lucas Tolimán	4	Abril	2023-11-04T00:00:00	2024-11-08T00:00:00	5	Humedad	44
117429	7	Sololá	713	San Lucas Tolimán	10	San Lucas Tolimán	4	Abril	2023-11-04T00:00:00	2024-11-08T00:00:00	6	Velocidad del viento	1.6
117430	7	Sololá	713	San Lucas Tolimán	10	San Lucas Tolimán	4	Abril	2023-11-04T00:00:00	2024-11-08T00:00:00	7	Dirección del viento	1.61
117431	7	Sololá	713	San Lucas Tolimán	10	San Lucas Tolimán	4	Abril	2023-11-04T00:00:00	2024-11-08T00:00:00	1	Precipitación	0
117432	7	Sololá	713	San Lucas Tolimán	10	San Lucas Tolimán	4	Abril	2023-11-04T00:00:00	2024-11-08T00:00:00	8	Radiación solar	0
117433	7	Sololá	713	San Lucas Tolimán	10	San Lucas Tolimán	4	Abril	2023-11-04T00:00:00	2024-11-08T01:00:00	2	Temperatura media	17.7
117434	7	Sololá	713	San Lucas Tolimán	10	San Lucas Tolimán	4	Abril	2023-11-04T00:00:00	2024-11-08T01:00:00	4	Temperatura máxima	18.1
117435	7	Sololá	713	San Lucas Tolimán	10	San Lucas Tolimán	4	Abril	2023-11-04T00:00:00	2024-11-08T01:00:00	3	Temperatura mínima	17.4
117436	7	Sololá	713	San Lucas Tolimán	10	San Lucas Tolimán	4	Abril	2023-11-04T00:00:00	2024-11-08T01:00:00	5	Humedad	45
117437	7	Sololá	713	San Lucas Tolimán	10	San Lucas Tolimán	4	Abril	2023-11-04T00:00:00	2024-11-08T01:00:00	6	Velocidad del viento	6.4
117438	7	Sololá	713	San Lucas Tolimán	10	San Lucas Tolimán	4	Abril	2023-11-04T00:00:00	2024-11-08T01:00:00	7	Dirección del viento	6.44
117439	7	Sololá	713	San Lucas Tolimán	10	San Lucas Tolimán	4	Abril	2023-11-04T00:00:00	2024-11-08T01:00:00	1	Precipitación	0
117440	7	Sololá	713	San Lucas Tolimán	10	San Lucas Tolimán	4	Abril	2023-11-04T00:00:00	2024-11-08T01:00:00	8	Radiación solar	0
117441	7	Sololá	713	San Lucas Tolimán	10	San Lucas Tolimán	4	Abril	2023-11-04T00:00:00	2024-11-08T02:00:00	2	Temperatura media	16.8
117442	7	Sololá	713	San Lucas Tolimán	10	San Lucas Tolimán	4	Abril	2023-11-04T00:00:00	2024-11-08T02:00:00	4	Temperatura máxima	17.7
117443	7	Sololá	713	San Lucas Tolimán	10	San Lucas Tolimán	4	Abril	2023-11-04T00:00:00	2024-11-08T02:00:00	3	Temperatura mínima	16.8
117444	7	Sololá	713	San Lucas Tolimán	10	San Lucas Tolimán	4	Abril	2023-11-04T00:00:00	2024-11-08T02:00:00	5	Humedad	49
117445	7	Sololá	713	San Lucas Tolimán	10	San Lucas Tolimán	4	Abril	2023-11-04T00:00:00	2024-11-08T02:00:00	6	Velocidad del viento	4.8
117446	7	Sololá	713	San Lucas Tolimán	10	San Lucas Tolimán	4	Abril	2023-11-04T00:00:00	2024-11-08T02:00:00	7	Dirección del viento	4.83
117447	7	Sololá	713	San Lucas Tolimán	10	San Lucas Tolimán	4	Abril	2023-11-04T00:00:00	2024-11-08T02:00:00	1	Precipitación	0
117448	7	Sololá	713	San Lucas Tolimán	10	San Lucas Tolimán	4	Abril	2023-11-04T00:00:00	2024-11-08T02:00:00	8	Radiación solar	0
117449	7	Sololá	713	San Lucas Tolimán	10	San Lucas Tolimán	4	Abril	2023-11-04T00:00:00	2024-11-08T03:00:00	2	Temperatura media	16.8
117450	7	Sololá	713	San Lucas Tolimán	10	San Lucas Tolimán	4	Abril	2023-11-04T00:00:00	2024-11-08T03:00:00	4	Temperatura máxima	17
117451	7	Sololá	713	San Lucas Tolimán	10	San Lucas Tolimán	4	Abril	2023-11-04T00:00:00	2024-11-08T03:00:00	3	Temperatura mínima	16.8
117452	7	Sololá	713	San Lucas Tolimán	10	San Lucas Tolimán	4	Abril	2023-11-04T00:00:00	2024-11-08T03:00:00	5	Humedad	51
117453	7	Sololá	713	San Lucas Tolimán	10	San Lucas Tolimán	4	Abril	2023-11-04T00:00:00	2024-11-08T03:00:00	6	Velocidad del viento	4.8
117454	7	Sololá	713	San Lucas Tolimán	10	San Lucas Tolimán	4	Abril	2023-11-04T00:00:00	2024-11-08T03:00:00	7	Dirección del viento	4.83
117455	7	Sololá	713	San Lucas Tolimán	10	San Lucas Tolimán	4	Abril	2023-11-04T00:00:00	2024-11-08T03:00:00	1	Precipitación	0
117456	7	Sololá	713	San Lucas Tolimán	10	San Lucas Tolimán	4	Abril	2023-11-04T00:00:00	2024-11-08T03:00:00	8	Radiación solar	0
117457	7	Sololá	713	San Lucas Tolimán	10	San Lucas Tolimán	4	Abril	2023-11-04T00:00:00	2024-11-08T04:00:00	2	Temperatura media	16.6
117458	7	Sololá	713	San Lucas Tolimán	10	San Lucas Tolimán	4	Abril	2023-11-04T00:00:00	2024-11-08T04:00:00	4	Temperatura máxima	16.9
117459	7	Sololá	713	San Lucas Tolimán	10	San Lucas Tolimán	4	Abril	2023-11-04T00:00:00	2024-11-08T04:00:00	3	Temperatura mínima	16.6
117460	7	Sololá	713	San Lucas Tolimán	10	San Lucas Tolimán	4	Abril	2023-11-04T00:00:00	2024-11-08T04:00:00	5	Humedad	51
117461	7	Sololá	713	San Lucas Tolimán	10	San Lucas Tolimán	4	Abril	2023-11-04T00:00:00	2024-11-08T04:00:00	6	Velocidad del viento	4.8
117462	7	Sololá	713	San Lucas Tolimán	10	San Lucas Tolimán	4	Abril	2023-11-04T00:00:00	2024-11-08T04:00:00	7	Dirección del viento	4.83
117463	7	Sololá	713	San Lucas Tolimán	10	San Lucas Tolimán	4	Abril	2023-11-04T00:00:00	2024-11-08T04:00:00	1	Precipitación	0
117464	7	Sololá	713	San Lucas Tolimán	10	San Lucas Tolimán	4	Abril	2023-11-04T00:00:00	2024-11-08T04:00:00	8	Radiación solar	0
117465	7	Sololá	713	San Lucas Tolimán	10	San Lucas Tolimán	4	Abril	2023-11-04T00:00:00	2024-11-08T05:00:00	2	Temperatura media	16.2
117466	7	Sololá	713	San Lucas Tolimán	10	San Lucas Tolimán	4	Abril	2023-11-04T00:00:00	2024-11-08T05:00:00	4	Temperatura máxima	16.6
117467	7	Sololá	713	San Lucas Tolimán	10	San Lucas Tolimán	4	Abril	2023-11-04T00:00:00	2024-11-08T05:00:00	3	Temperatura mínima	16.1
117468	7	Sololá	713	San Lucas Tolimán	10	San Lucas Tolimán	4	Abril	2023-11-04T00:00:00	2024-11-08T05:00:00	5	Humedad	53
117469	7	Sololá	713	San Lucas Tolimán	10	San Lucas Tolimán	4	Abril	2023-11-04T00:00:00	2024-11-08T05:00:00	6	Velocidad del viento	3.2
117470	7	Sololá	713	San Lucas Tolimán	10	San Lucas Tolimán	4	Abril	2023-11-04T00:00:00	2024-11-08T05:00:00	7	Dirección del viento	3.22
117471	7	Sololá	713	San Lucas Tolimán	10	San Lucas Tolimán	4	Abril	2023-11-04T00:00:00	2024-11-08T05:00:00	1	Precipitación	0
117472	7	Sololá	713	San Lucas Tolimán	10	San Lucas Tolimán	4	Abril	2023-11-04T00:00:00	2024-11-08T05:00:00	8	Radiación solar	0
117473	7	Sololá	713	San Lucas Tolimán	10	San Lucas Tolimán	4	Abril	2023-11-04T00:00:00	2024-11-08T06:00:00	2	Temperatura media	15.7
117474	7	Sololá	713	San Lucas Tolimán	10	San Lucas Tolimán	4	Abril	2023-11-04T00:00:00	2024-11-08T06:00:00	4	Temperatura máxima	16.2
117475	7	Sololá	713	San Lucas Tolimán	10	San Lucas Tolimán	4	Abril	2023-11-04T00:00:00	2024-11-08T06:00:00	3	Temperatura mínima	15.3
117476	7	Sololá	713	San Lucas Tolimán	10	San Lucas Tolimán	4	Abril	2023-11-04T00:00:00	2024-11-08T06:00:00	5	Humedad	55
117477	7	Sololá	713	San Lucas Tolimán	10	San Lucas Tolimán	4	Abril	2023-11-04T00:00:00	2024-11-08T06:00:00	6	Velocidad del viento	3.2
117478	7	Sololá	713	San Lucas Tolimán	10	San Lucas Tolimán	4	Abril	2023-11-04T00:00:00	2024-11-08T06:00:00	7	Dirección del viento	3.22
117479	7	Sololá	713	San Lucas Tolimán	10	San Lucas Tolimán	4	Abril	2023-11-04T00:00:00	2024-11-08T06:00:00	1	Precipitación	0
117480	7	Sololá	713	San Lucas Tolimán	10	San Lucas Tolimán	4	Abril	2023-11-04T00:00:00	2024-11-08T06:00:00	8	Radiación solar	0
117481	7	Sololá	713	San Lucas Tolimán	10	San Lucas Tolimán	4	Abril	2023-11-04T00:00:00	2024-11-08T07:00:00	2	Temperatura media	17.1
117482	7	Sololá	713	San Lucas Tolimán	10	San Lucas Tolimán	4	Abril	2023-11-04T00:00:00	2024-11-08T07:00:00	4	Temperatura máxima	17.1
117483	7	Sololá	713	San Lucas Tolimán	10	San Lucas Tolimán	4	Abril	2023-11-04T00:00:00	2024-11-08T07:00:00	3	Temperatura mínima	15.7
117484	7	Sololá	713	San Lucas Tolimán	10	San Lucas Tolimán	4	Abril	2023-11-04T00:00:00	2024-11-08T07:00:00	5	Humedad	52
117485	7	Sololá	713	San Lucas Tolimán	10	San Lucas Tolimán	4	Abril	2023-11-04T00:00:00	2024-11-08T07:00:00	6	Velocidad del viento	4.8
117486	7	Sololá	713	San Lucas Tolimán	10	San Lucas Tolimán	4	Abril	2023-11-04T00:00:00	2024-11-08T07:00:00	7	Dirección del viento	4.83
117487	7	Sololá	713	San Lucas Tolimán	10	San Lucas Tolimán	4	Abril	2023-11-04T00:00:00	2024-11-08T07:00:00	1	Precipitación	0
117488	7	Sololá	713	San Lucas Tolimán	10	San Lucas Tolimán	4	Abril	2023-11-04T00:00:00	2024-11-08T07:00:00	8	Radiación solar	34
117489	7	Sololá	713	San Lucas Tolimán	10	San Lucas Tolimán	4	Abril	2023-11-04T00:00:00	2024-11-08T08:00:00	2	Temperatura media	19.9
117490	7	Sololá	713	San Lucas Tolimán	10	San Lucas Tolimán	4	Abril	2023-11-04T00:00:00	2024-11-08T08:00:00	4	Temperatura máxima	20.1
117491	7	Sololá	713	San Lucas Tolimán	10	San Lucas Tolimán	4	Abril	2023-11-04T00:00:00	2024-11-08T08:00:00	3	Temperatura mínima	17.1
117492	7	Sololá	713	San Lucas Tolimán	10	San Lucas Tolimán	4	Abril	2023-11-04T00:00:00	2024-11-08T08:00:00	5	Humedad	44
117493	7	Sololá	713	San Lucas Tolimán	10	San Lucas Tolimán	4	Abril	2023-11-04T00:00:00	2024-11-08T08:00:00	6	Velocidad del viento	6.4
117494	7	Sololá	713	San Lucas Tolimán	10	San Lucas Tolimán	4	Abril	2023-11-04T00:00:00	2024-11-08T08:00:00	7	Dirección del viento	6.44
117495	7	Sololá	713	San Lucas Tolimán	10	San Lucas Tolimán	4	Abril	2023-11-04T00:00:00	2024-11-08T08:00:00	1	Precipitación	0
117496	7	Sololá	713	San Lucas Tolimán	10	San Lucas Tolimán	4	Abril	2023-11-04T00:00:00	2024-11-08T08:00:00	8	Radiación solar	233
117497	7	Sololá	713	San Lucas Tolimán	10	San Lucas Tolimán	4	Abril	2023-11-04T00:00:00	2024-11-08T09:00:00	2	Temperatura media	21.3
117498	7	Sololá	713	San Lucas Tolimán	10	San Lucas Tolimán	4	Abril	2023-11-04T00:00:00	2024-11-08T09:00:00	4	Temperatura máxima	21.6
117499	7	Sololá	713	San Lucas Tolimán	10	San Lucas Tolimán	4	Abril	2023-11-04T00:00:00	2024-11-08T09:00:00	3	Temperatura mínima	19.9
117500	7	Sololá	713	San Lucas Tolimán	10	San Lucas Tolimán	4	Abril	2023-11-04T00:00:00	2024-11-08T09:00:00	5	Humedad	40
117501	7	Sololá	713	San Lucas Tolimán	10	San Lucas Tolimán	4	Abril	2023-11-04T00:00:00	2024-11-08T09:00:00	6	Velocidad del viento	6.4
117502	7	Sololá	713	San Lucas Tolimán	10	San Lucas Tolimán	4	Abril	2023-11-04T00:00:00	2024-11-08T09:00:00	7	Dirección del viento	6.44
117503	7	Sololá	713	San Lucas Tolimán	10	San Lucas Tolimán	4	Abril	2023-11-04T00:00:00	2024-11-08T09:00:00	1	Precipitación	0
117504	7	Sololá	713	San Lucas Tolimán	10	San Lucas Tolimán	4	Abril	2023-11-04T00:00:00	2024-11-08T09:00:00	8	Radiación solar	463
117505	7	Sololá	713	San Lucas Tolimán	10	San Lucas Tolimán	4	Abril	2023-11-04T00:00:00	2024-11-08T10:00:00	2	Temperatura media	23.3
117506	7	Sololá	713	San Lucas Tolimán	10	San Lucas Tolimán	4	Abril	2023-11-04T00:00:00	2024-11-08T10:00:00	4	Temperatura máxima	23.3
117507	7	Sololá	713	San Lucas Tolimán	10	San Lucas Tolimán	4	Abril	2023-11-04T00:00:00	2024-11-08T10:00:00	3	Temperatura mínima	21.3
117508	7	Sololá	713	San Lucas Tolimán	10	San Lucas Tolimán	4	Abril	2023-11-04T00:00:00	2024-11-08T10:00:00	5	Humedad	33
117509	7	Sololá	713	San Lucas Tolimán	10	San Lucas Tolimán	4	Abril	2023-11-04T00:00:00	2024-11-08T10:00:00	6	Velocidad del viento	6.4
117510	7	Sololá	713	San Lucas Tolimán	10	San Lucas Tolimán	4	Abril	2023-11-04T00:00:00	2024-11-08T10:00:00	7	Dirección del viento	6.44
117511	7	Sololá	713	San Lucas Tolimán	10	San Lucas Tolimán	4	Abril	2023-11-04T00:00:00	2024-11-08T10:00:00	1	Precipitación	0
117512	7	Sololá	713	San Lucas Tolimán	10	San Lucas Tolimán	4	Abril	2023-11-04T00:00:00	2024-11-08T10:00:00	8	Radiación solar	807
117513	7	Sololá	713	San Lucas Tolimán	10	San Lucas Tolimán	4	Abril	2023-11-04T00:00:00	2024-11-08T11:00:00	2	Temperatura media	24.3
117514	7	Sololá	713	San Lucas Tolimán	10	San Lucas Tolimán	4	Abril	2023-11-04T00:00:00	2024-11-08T11:00:00	4	Temperatura máxima	24.3
117515	7	Sololá	713	San Lucas Tolimán	10	San Lucas Tolimán	4	Abril	2023-11-04T00:00:00	2024-11-08T11:00:00	3	Temperatura mínima	23.2
117516	7	Sololá	713	San Lucas Tolimán	10	San Lucas Tolimán	4	Abril	2023-11-04T00:00:00	2024-11-08T11:00:00	5	Humedad	42
117517	7	Sololá	713	San Lucas Tolimán	10	San Lucas Tolimán	4	Abril	2023-11-04T00:00:00	2024-11-08T11:00:00	6	Velocidad del viento	8
117518	7	Sololá	713	San Lucas Tolimán	10	San Lucas Tolimán	4	Abril	2023-11-04T00:00:00	2024-11-08T11:00:00	7	Dirección del viento	8.05
117519	7	Sololá	713	San Lucas Tolimán	10	San Lucas Tolimán	4	Abril	2023-11-04T00:00:00	2024-11-08T11:00:00	1	Precipitación	0
117520	7	Sololá	713	San Lucas Tolimán	10	San Lucas Tolimán	4	Abril	2023-11-04T00:00:00	2024-11-08T11:00:00	8	Radiación solar	984
117521	7	Sololá	713	San Lucas Tolimán	10	San Lucas Tolimán	4	Abril	2023-11-04T00:00:00	2024-11-08T12:00:00	2	Temperatura media	24.2
117522	7	Sololá	713	San Lucas Tolimán	10	San Lucas Tolimán	4	Abril	2023-11-04T00:00:00	2024-11-08T12:00:00	4	Temperatura máxima	24.8
117523	7	Sololá	713	San Lucas Tolimán	10	San Lucas Tolimán	4	Abril	2023-11-04T00:00:00	2024-11-08T12:00:00	3	Temperatura mínima	23.4
117524	7	Sololá	713	San Lucas Tolimán	10	San Lucas Tolimán	4	Abril	2023-11-04T00:00:00	2024-11-08T12:00:00	5	Humedad	46
117525	7	Sololá	713	San Lucas Tolimán	10	San Lucas Tolimán	4	Abril	2023-11-04T00:00:00	2024-11-08T12:00:00	6	Velocidad del viento	9.7
117526	7	Sololá	713	San Lucas Tolimán	10	San Lucas Tolimán	4	Abril	2023-11-04T00:00:00	2024-11-08T12:00:00	7	Dirección del viento	9.66
117527	7	Sololá	713	San Lucas Tolimán	10	San Lucas Tolimán	4	Abril	2023-11-04T00:00:00	2024-11-08T12:00:00	1	Precipitación	0
117528	7	Sololá	713	San Lucas Tolimán	10	San Lucas Tolimán	4	Abril	2023-11-04T00:00:00	2024-11-08T12:00:00	8	Radiación solar	1082
117529	7	Sololá	713	San Lucas Tolimán	10	San Lucas Tolimán	4	Abril	2023-11-04T00:00:00	2024-11-08T13:00:00	2	Temperatura media	24.2
117530	7	Sololá	713	San Lucas Tolimán	10	San Lucas Tolimán	4	Abril	2023-11-04T00:00:00	2024-11-08T13:00:00	4	Temperatura máxima	24.4
117531	7	Sololá	713	San Lucas Tolimán	10	San Lucas Tolimán	4	Abril	2023-11-04T00:00:00	2024-11-08T13:00:00	3	Temperatura mínima	23.8
117532	7	Sololá	713	San Lucas Tolimán	10	San Lucas Tolimán	4	Abril	2023-11-04T00:00:00	2024-11-08T13:00:00	5	Humedad	45
117533	7	Sololá	713	San Lucas Tolimán	10	San Lucas Tolimán	4	Abril	2023-11-04T00:00:00	2024-11-08T13:00:00	6	Velocidad del viento	11.3
117534	7	Sololá	713	San Lucas Tolimán	10	San Lucas Tolimán	4	Abril	2023-11-04T00:00:00	2024-11-08T13:00:00	7	Dirección del viento	11.27
117535	7	Sololá	713	San Lucas Tolimán	10	San Lucas Tolimán	4	Abril	2023-11-04T00:00:00	2024-11-08T13:00:00	1	Precipitación	0
117536	7	Sololá	713	San Lucas Tolimán	10	San Lucas Tolimán	4	Abril	2023-11-04T00:00:00	2024-11-08T13:00:00	8	Radiación solar	1091
117537	7	Sololá	713	San Lucas Tolimán	10	San Lucas Tolimán	4	Abril	2023-11-04T00:00:00	2024-11-08T14:00:00	2	Temperatura media	24
117538	7	Sololá	713	San Lucas Tolimán	10	San Lucas Tolimán	4	Abril	2023-11-04T00:00:00	2024-11-08T14:00:00	4	Temperatura máxima	24.6
117539	7	Sololá	713	San Lucas Tolimán	10	San Lucas Tolimán	4	Abril	2023-11-04T00:00:00	2024-11-08T14:00:00	3	Temperatura mínima	23.7
117540	7	Sololá	713	San Lucas Tolimán	10	San Lucas Tolimán	4	Abril	2023-11-04T00:00:00	2024-11-08T14:00:00	5	Humedad	46
117541	7	Sololá	713	San Lucas Tolimán	10	San Lucas Tolimán	4	Abril	2023-11-04T00:00:00	2024-11-08T14:00:00	6	Velocidad del viento	11.3
117542	7	Sololá	713	San Lucas Tolimán	10	San Lucas Tolimán	4	Abril	2023-11-04T00:00:00	2024-11-08T14:00:00	7	Dirección del viento	11.27
117543	7	Sololá	713	San Lucas Tolimán	10	San Lucas Tolimán	4	Abril	2023-11-04T00:00:00	2024-11-08T14:00:00	1	Precipitación	0
117544	7	Sololá	713	San Lucas Tolimán	10	San Lucas Tolimán	4	Abril	2023-11-04T00:00:00	2024-11-08T14:00:00	8	Radiación solar	995
117545	7	Sololá	713	San Lucas Tolimán	10	San Lucas Tolimán	4	Abril	2023-11-04T00:00:00	2024-11-08T15:00:00	2	Temperatura media	24.3
117546	7	Sololá	713	San Lucas Tolimán	10	San Lucas Tolimán	4	Abril	2023-11-04T00:00:00	2024-11-08T15:00:00	4	Temperatura máxima	24.4
117547	7	Sololá	713	San Lucas Tolimán	10	San Lucas Tolimán	4	Abril	2023-11-04T00:00:00	2024-11-08T15:00:00	3	Temperatura mínima	23.8
117548	7	Sololá	713	San Lucas Tolimán	10	San Lucas Tolimán	4	Abril	2023-11-04T00:00:00	2024-11-08T15:00:00	5	Humedad	46
117549	7	Sololá	713	San Lucas Tolimán	10	San Lucas Tolimán	4	Abril	2023-11-04T00:00:00	2024-11-08T15:00:00	6	Velocidad del viento	12.9
117550	7	Sololá	713	San Lucas Tolimán	10	San Lucas Tolimán	4	Abril	2023-11-04T00:00:00	2024-11-08T15:00:00	7	Dirección del viento	12.87
117551	7	Sololá	713	San Lucas Tolimán	10	San Lucas Tolimán	4	Abril	2023-11-04T00:00:00	2024-11-08T15:00:00	1	Precipitación	0
117552	7	Sololá	713	San Lucas Tolimán	10	San Lucas Tolimán	4	Abril	2023-11-04T00:00:00	2024-11-08T15:00:00	8	Radiación solar	858
117553	7	Sololá	713	San Lucas Tolimán	10	San Lucas Tolimán	4	Abril	2023-11-04T00:00:00	2024-11-08T16:00:00	2	Temperatura media	23.3
117554	7	Sololá	713	San Lucas Tolimán	10	San Lucas Tolimán	4	Abril	2023-11-04T00:00:00	2024-11-08T16:00:00	4	Temperatura máxima	24.5
117555	7	Sololá	713	San Lucas Tolimán	10	San Lucas Tolimán	4	Abril	2023-11-04T00:00:00	2024-11-08T16:00:00	3	Temperatura mínima	23.2
117556	7	Sololá	713	San Lucas Tolimán	10	San Lucas Tolimán	4	Abril	2023-11-04T00:00:00	2024-11-08T16:00:00	5	Humedad	52
117557	7	Sololá	713	San Lucas Tolimán	10	San Lucas Tolimán	4	Abril	2023-11-04T00:00:00	2024-11-08T16:00:00	6	Velocidad del viento	9.7
117558	7	Sololá	713	San Lucas Tolimán	10	San Lucas Tolimán	4	Abril	2023-11-04T00:00:00	2024-11-08T16:00:00	7	Dirección del viento	9.66
117559	7	Sololá	713	San Lucas Tolimán	10	San Lucas Tolimán	4	Abril	2023-11-04T00:00:00	2024-11-08T16:00:00	1	Precipitación	0
117560	7	Sololá	713	San Lucas Tolimán	10	San Lucas Tolimán	4	Abril	2023-11-04T00:00:00	2024-11-08T16:00:00	8	Radiación solar	644
117561	7	Sololá	713	San Lucas Tolimán	10	San Lucas Tolimán	4	Abril	2023-11-04T00:00:00	2024-11-08T17:00:00	2	Temperatura media	21.6
117562	7	Sololá	713	San Lucas Tolimán	10	San Lucas Tolimán	4	Abril	2023-11-04T00:00:00	2024-11-08T17:00:00	4	Temperatura máxima	23.3
117563	7	Sololá	713	San Lucas Tolimán	10	San Lucas Tolimán	4	Abril	2023-11-04T00:00:00	2024-11-08T17:00:00	3	Temperatura mínima	21.6
117564	7	Sololá	713	San Lucas Tolimán	10	San Lucas Tolimán	4	Abril	2023-11-04T00:00:00	2024-11-08T17:00:00	5	Humedad	61
117565	7	Sololá	713	San Lucas Tolimán	10	San Lucas Tolimán	4	Abril	2023-11-04T00:00:00	2024-11-08T17:00:00	6	Velocidad del viento	9.7
117566	7	Sololá	713	San Lucas Tolimán	10	San Lucas Tolimán	4	Abril	2023-11-04T00:00:00	2024-11-08T17:00:00	7	Dirección del viento	9.66
117567	7	Sololá	713	San Lucas Tolimán	10	San Lucas Tolimán	4	Abril	2023-11-04T00:00:00	2024-11-08T17:00:00	1	Precipitación	0
117568	7	Sololá	713	San Lucas Tolimán	10	San Lucas Tolimán	4	Abril	2023-11-04T00:00:00	2024-11-08T17:00:00	8	Radiación solar	330
117569	7	Sololá	713	San Lucas Tolimán	10	San Lucas Tolimán	4	Abril	2023-11-04T00:00:00	2024-11-08T18:00:00	2	Temperatura media	19.6
117570	7	Sololá	713	San Lucas Tolimán	10	San Lucas Tolimán	4	Abril	2023-11-04T00:00:00	2024-11-08T18:00:00	4	Temperatura máxima	21.5
117571	7	Sololá	713	San Lucas Tolimán	10	San Lucas Tolimán	4	Abril	2023-11-04T00:00:00	2024-11-08T18:00:00	3	Temperatura mínima	19.6
117572	7	Sololá	713	San Lucas Tolimán	10	San Lucas Tolimán	4	Abril	2023-11-04T00:00:00	2024-11-08T18:00:00	5	Humedad	62
117573	7	Sololá	713	San Lucas Tolimán	10	San Lucas Tolimán	4	Abril	2023-11-04T00:00:00	2024-11-08T18:00:00	6	Velocidad del viento	9.7
117574	7	Sololá	713	San Lucas Tolimán	10	San Lucas Tolimán	4	Abril	2023-11-04T00:00:00	2024-11-08T18:00:00	7	Dirección del viento	9.66
117575	7	Sololá	713	San Lucas Tolimán	10	San Lucas Tolimán	4	Abril	2023-11-04T00:00:00	2024-11-08T18:00:00	1	Precipitación	0
117576	7	Sololá	713	San Lucas Tolimán	10	San Lucas Tolimán	4	Abril	2023-11-04T00:00:00	2024-11-08T18:00:00	8	Radiación solar	84
117577	7	Sololá	713	San Lucas Tolimán	10	San Lucas Tolimán	4	Abril	2023-11-04T00:00:00	2024-11-08T19:00:00	2	Temperatura media	19
117578	7	Sololá	713	San Lucas Tolimán	10	San Lucas Tolimán	4	Abril	2023-11-04T00:00:00	2024-11-08T19:00:00	4	Temperatura máxima	19.6
117579	7	Sololá	713	San Lucas Tolimán	10	San Lucas Tolimán	4	Abril	2023-11-04T00:00:00	2024-11-08T19:00:00	3	Temperatura mínima	18.9
117580	7	Sololá	713	San Lucas Tolimán	10	San Lucas Tolimán	4	Abril	2023-11-04T00:00:00	2024-11-08T19:00:00	5	Humedad	62
117581	7	Sololá	713	San Lucas Tolimán	10	San Lucas Tolimán	4	Abril	2023-11-04T00:00:00	2024-11-08T19:00:00	6	Velocidad del viento	8
117582	7	Sololá	713	San Lucas Tolimán	10	San Lucas Tolimán	4	Abril	2023-11-04T00:00:00	2024-11-08T19:00:00	7	Dirección del viento	8.05
117583	7	Sololá	713	San Lucas Tolimán	10	San Lucas Tolimán	4	Abril	2023-11-04T00:00:00	2024-11-08T19:00:00	1	Precipitación	0
117584	7	Sololá	713	San Lucas Tolimán	10	San Lucas Tolimán	4	Abril	2023-11-04T00:00:00	2024-11-08T19:00:00	8	Radiación solar	0
117585	7	Sololá	713	San Lucas Tolimán	10	San Lucas Tolimán	4	Abril	2023-11-04T00:00:00	2024-11-08T20:00:00	2	Temperatura media	18.4
117586	7	Sololá	713	San Lucas Tolimán	10	San Lucas Tolimán	4	Abril	2023-11-04T00:00:00	2024-11-08T20:00:00	4	Temperatura máxima	18.9
117587	7	Sololá	713	San Lucas Tolimán	10	San Lucas Tolimán	4	Abril	2023-11-04T00:00:00	2024-11-08T20:00:00	3	Temperatura mínima	18.4
117588	7	Sololá	713	San Lucas Tolimán	10	San Lucas Tolimán	4	Abril	2023-11-04T00:00:00	2024-11-08T20:00:00	5	Humedad	62
117589	7	Sololá	713	San Lucas Tolimán	10	San Lucas Tolimán	4	Abril	2023-11-04T00:00:00	2024-11-08T20:00:00	6	Velocidad del viento	6.4
117590	7	Sololá	713	San Lucas Tolimán	10	San Lucas Tolimán	4	Abril	2023-11-04T00:00:00	2024-11-08T20:00:00	7	Dirección del viento	6.44
117591	7	Sololá	713	San Lucas Tolimán	10	San Lucas Tolimán	4	Abril	2023-11-04T00:00:00	2024-11-08T20:00:00	1	Precipitación	0
117592	7	Sololá	713	San Lucas Tolimán	10	San Lucas Tolimán	4	Abril	2023-11-04T00:00:00	2024-11-08T20:00:00	8	Radiación solar	0
117593	7	Sololá	713	San Lucas Tolimán	10	San Lucas Tolimán	4	Abril	2023-11-04T00:00:00	2024-11-08T21:00:00	2	Temperatura media	17.7
117594	7	Sololá	713	San Lucas Tolimán	10	San Lucas Tolimán	4	Abril	2023-11-04T00:00:00	2024-11-08T21:00:00	4	Temperatura máxima	18.4
117595	7	Sololá	713	San Lucas Tolimán	10	San Lucas Tolimán	4	Abril	2023-11-04T00:00:00	2024-11-08T21:00:00	3	Temperatura mínima	17.7
117596	7	Sololá	713	San Lucas Tolimán	10	San Lucas Tolimán	4	Abril	2023-11-04T00:00:00	2024-11-08T21:00:00	5	Humedad	57
117597	7	Sololá	713	San Lucas Tolimán	10	San Lucas Tolimán	4	Abril	2023-11-04T00:00:00	2024-11-08T21:00:00	6	Velocidad del viento	3.2
117598	7	Sololá	713	San Lucas Tolimán	10	San Lucas Tolimán	4	Abril	2023-11-04T00:00:00	2024-11-08T21:00:00	7	Dirección del viento	3.22
117599	7	Sololá	713	San Lucas Tolimán	10	San Lucas Tolimán	4	Abril	2023-11-04T00:00:00	2024-11-08T21:00:00	1	Precipitación	0
117600	7	Sololá	713	San Lucas Tolimán	10	San Lucas Tolimán	4	Abril	2023-11-04T00:00:00	2024-11-08T21:00:00	8	Radiación solar	0
117601	7	Sololá	713	San Lucas Tolimán	10	San Lucas Tolimán	4	Abril	2023-11-04T00:00:00	2024-11-08T22:00:00	2	Temperatura media	19.4
117602	7	Sololá	713	San Lucas Tolimán	10	San Lucas Tolimán	4	Abril	2023-11-04T00:00:00	2024-11-08T22:00:00	4	Temperatura máxima	19.6
117603	7	Sololá	713	San Lucas Tolimán	10	San Lucas Tolimán	4	Abril	2023-11-04T00:00:00	2024-11-08T22:00:00	3	Temperatura mínima	17.7
117604	7	Sololá	713	San Lucas Tolimán	10	San Lucas Tolimán	4	Abril	2023-11-04T00:00:00	2024-11-08T22:00:00	5	Humedad	51
117605	7	Sololá	713	San Lucas Tolimán	10	San Lucas Tolimán	4	Abril	2023-11-04T00:00:00	2024-11-08T22:00:00	6	Velocidad del viento	4.8
117606	7	Sololá	713	San Lucas Tolimán	10	San Lucas Tolimán	4	Abril	2023-11-04T00:00:00	2024-11-08T22:00:00	7	Dirección del viento	4.83
117607	7	Sololá	713	San Lucas Tolimán	10	San Lucas Tolimán	4	Abril	2023-11-04T00:00:00	2024-11-08T22:00:00	1	Precipitación	0
117608	7	Sololá	713	San Lucas Tolimán	10	San Lucas Tolimán	4	Abril	2023-11-04T00:00:00	2024-11-08T22:00:00	8	Radiación solar	0
117609	7	Sololá	713	San Lucas Tolimán	10	San Lucas Tolimán	4	Abril	2023-11-04T00:00:00	2024-11-08T23:00:00	2	Temperatura media	18.8
117610	7	Sololá	713	San Lucas Tolimán	10	San Lucas Tolimán	4	Abril	2023-11-04T00:00:00	2024-11-08T23:00:00	4	Temperatura máxima	19.6
117611	7	Sololá	713	San Lucas Tolimán	10	San Lucas Tolimán	4	Abril	2023-11-04T00:00:00	2024-11-08T23:00:00	3	Temperatura mínima	18.8
117612	7	Sololá	713	San Lucas Tolimán	10	San Lucas Tolimán	4	Abril	2023-11-04T00:00:00	2024-11-08T23:00:00	5	Humedad	53
117613	7	Sololá	713	San Lucas Tolimán	10	San Lucas Tolimán	4	Abril	2023-11-04T00:00:00	2024-11-08T23:00:00	6	Velocidad del viento	8
117614	7	Sololá	713	San Lucas Tolimán	10	San Lucas Tolimán	4	Abril	2023-11-04T00:00:00	2024-11-08T23:00:00	7	Dirección del viento	8.05
117615	7	Sololá	713	San Lucas Tolimán	10	San Lucas Tolimán	4	Abril	2023-11-04T00:00:00	2024-11-08T23:00:00	1	Precipitación	0
117616	7	Sololá	713	San Lucas Tolimán	10	San Lucas Tolimán	4	Abril	2023-11-04T00:00:00	2024-11-08T23:00:00	8	Radiación solar	0
117617	7	Sololá	713	San Lucas Tolimán	10	San Lucas Tolimán	4	Abril	2023-12-04T00:00:00	2024-11-08T00:00:00	2	Temperatura media	17.7
117618	7	Sololá	713	San Lucas Tolimán	10	San Lucas Tolimán	4	Abril	2023-12-04T00:00:00	2024-11-08T00:00:00	4	Temperatura máxima	18.7
117619	7	Sololá	713	San Lucas Tolimán	10	San Lucas Tolimán	4	Abril	2023-12-04T00:00:00	2024-11-08T00:00:00	3	Temperatura mínima	17.6
117620	7	Sololá	713	San Lucas Tolimán	10	San Lucas Tolimán	4	Abril	2023-12-04T00:00:00	2024-11-08T00:00:00	5	Humedad	56
117621	7	Sololá	713	San Lucas Tolimán	10	San Lucas Tolimán	4	Abril	2023-12-04T00:00:00	2024-11-08T00:00:00	6	Velocidad del viento	1.6
117622	7	Sololá	713	San Lucas Tolimán	10	San Lucas Tolimán	4	Abril	2023-12-04T00:00:00	2024-11-08T00:00:00	7	Dirección del viento	1.61
117623	7	Sololá	713	San Lucas Tolimán	10	San Lucas Tolimán	4	Abril	2023-12-04T00:00:00	2024-11-08T00:00:00	1	Precipitación	0
117624	7	Sololá	713	San Lucas Tolimán	10	San Lucas Tolimán	4	Abril	2023-12-04T00:00:00	2024-11-08T00:00:00	8	Radiación solar	0
117625	7	Sololá	713	San Lucas Tolimán	10	San Lucas Tolimán	4	Abril	2023-12-04T00:00:00	2024-11-08T01:00:00	2	Temperatura media	17.2
117626	7	Sololá	713	San Lucas Tolimán	10	San Lucas Tolimán	4	Abril	2023-12-04T00:00:00	2024-11-08T01:00:00	4	Temperatura máxima	17.7
117627	7	Sololá	713	San Lucas Tolimán	10	San Lucas Tolimán	4	Abril	2023-12-04T00:00:00	2024-11-08T01:00:00	3	Temperatura mínima	17.2
117628	7	Sololá	713	San Lucas Tolimán	10	San Lucas Tolimán	4	Abril	2023-12-04T00:00:00	2024-11-08T01:00:00	5	Humedad	56
117629	7	Sololá	713	San Lucas Tolimán	10	San Lucas Tolimán	4	Abril	2023-12-04T00:00:00	2024-11-08T01:00:00	6	Velocidad del viento	3.2
117630	7	Sololá	713	San Lucas Tolimán	10	San Lucas Tolimán	4	Abril	2023-12-04T00:00:00	2024-11-08T01:00:00	7	Dirección del viento	3.22
117631	7	Sololá	713	San Lucas Tolimán	10	San Lucas Tolimán	4	Abril	2023-12-04T00:00:00	2024-11-08T01:00:00	1	Precipitación	0
117632	7	Sololá	713	San Lucas Tolimán	10	San Lucas Tolimán	4	Abril	2023-12-04T00:00:00	2024-11-08T01:00:00	8	Radiación solar	0
117633	7	Sololá	713	San Lucas Tolimán	10	San Lucas Tolimán	4	Abril	2023-12-04T00:00:00	2024-11-08T02:00:00	2	Temperatura media	16.8
117634	7	Sololá	713	San Lucas Tolimán	10	San Lucas Tolimán	4	Abril	2023-12-04T00:00:00	2024-11-08T02:00:00	4	Temperatura máxima	17.2
117635	7	Sololá	713	San Lucas Tolimán	10	San Lucas Tolimán	4	Abril	2023-12-04T00:00:00	2024-11-08T02:00:00	3	Temperatura mínima	16.7
117636	7	Sololá	713	San Lucas Tolimán	10	San Lucas Tolimán	4	Abril	2023-12-04T00:00:00	2024-11-08T02:00:00	5	Humedad	57
117637	7	Sololá	713	San Lucas Tolimán	10	San Lucas Tolimán	4	Abril	2023-12-04T00:00:00	2024-11-08T02:00:00	6	Velocidad del viento	3.2
117638	7	Sololá	713	San Lucas Tolimán	10	San Lucas Tolimán	4	Abril	2023-12-04T00:00:00	2024-11-08T02:00:00	7	Dirección del viento	3.22
117639	7	Sololá	713	San Lucas Tolimán	10	San Lucas Tolimán	4	Abril	2023-12-04T00:00:00	2024-11-08T02:00:00	1	Precipitación	0
117640	7	Sololá	713	San Lucas Tolimán	10	San Lucas Tolimán	4	Abril	2023-12-04T00:00:00	2024-11-08T02:00:00	8	Radiación solar	0
117641	7	Sololá	713	San Lucas Tolimán	10	San Lucas Tolimán	4	Abril	2023-12-04T00:00:00	2024-11-08T03:00:00	2	Temperatura media	16.4
117642	7	Sololá	713	San Lucas Tolimán	10	San Lucas Tolimán	4	Abril	2023-12-04T00:00:00	2024-11-08T03:00:00	4	Temperatura máxima	16.8
117643	7	Sololá	713	San Lucas Tolimán	10	San Lucas Tolimán	4	Abril	2023-12-04T00:00:00	2024-11-08T03:00:00	3	Temperatura mínima	16.4
117644	7	Sololá	713	San Lucas Tolimán	10	San Lucas Tolimán	4	Abril	2023-12-04T00:00:00	2024-11-08T03:00:00	5	Humedad	57
117645	7	Sololá	713	San Lucas Tolimán	10	San Lucas Tolimán	4	Abril	2023-12-04T00:00:00	2024-11-08T03:00:00	6	Velocidad del viento	1.6
117646	7	Sololá	713	San Lucas Tolimán	10	San Lucas Tolimán	4	Abril	2023-12-04T00:00:00	2024-11-08T03:00:00	7	Dirección del viento	1.61
117647	7	Sololá	713	San Lucas Tolimán	10	San Lucas Tolimán	4	Abril	2023-12-04T00:00:00	2024-11-08T03:00:00	1	Precipitación	0
117648	7	Sololá	713	San Lucas Tolimán	10	San Lucas Tolimán	4	Abril	2023-12-04T00:00:00	2024-11-08T03:00:00	8	Radiación solar	0
117649	7	Sololá	713	San Lucas Tolimán	10	San Lucas Tolimán	4	Abril	2023-12-04T00:00:00	2024-11-08T04:00:00	2	Temperatura media	15.4
117650	7	Sololá	713	San Lucas Tolimán	10	San Lucas Tolimán	4	Abril	2023-12-04T00:00:00	2024-11-08T04:00:00	4	Temperatura máxima	16.4
117651	7	Sololá	713	San Lucas Tolimán	10	San Lucas Tolimán	4	Abril	2023-12-04T00:00:00	2024-11-08T04:00:00	3	Temperatura mínima	15.3
117652	7	Sololá	713	San Lucas Tolimán	10	San Lucas Tolimán	4	Abril	2023-12-04T00:00:00	2024-11-08T04:00:00	5	Humedad	59
117653	7	Sololá	713	San Lucas Tolimán	10	San Lucas Tolimán	4	Abril	2023-12-04T00:00:00	2024-11-08T04:00:00	6	Velocidad del viento	0
117654	7	Sololá	713	San Lucas Tolimán	10	San Lucas Tolimán	4	Abril	2023-12-04T00:00:00	2024-11-08T04:00:00	7	Dirección del viento	0
117655	7	Sololá	713	San Lucas Tolimán	10	San Lucas Tolimán	4	Abril	2023-12-04T00:00:00	2024-11-08T04:00:00	1	Precipitación	0
117656	7	Sololá	713	San Lucas Tolimán	10	San Lucas Tolimán	4	Abril	2023-12-04T00:00:00	2024-11-08T04:00:00	8	Radiación solar	0
117657	7	Sololá	713	San Lucas Tolimán	10	San Lucas Tolimán	4	Abril	2023-12-04T00:00:00	2024-11-08T05:00:00	2	Temperatura media	15.8
117658	7	Sololá	713	San Lucas Tolimán	10	San Lucas Tolimán	4	Abril	2023-12-04T00:00:00	2024-11-08T05:00:00	4	Temperatura máxima	15.8
117659	7	Sololá	713	San Lucas Tolimán	10	San Lucas Tolimán	4	Abril	2023-12-04T00:00:00	2024-11-08T05:00:00	3	Temperatura mínima	15.3
117660	7	Sololá	713	San Lucas Tolimán	10	San Lucas Tolimán	4	Abril	2023-12-04T00:00:00	2024-11-08T05:00:00	5	Humedad	57
117661	7	Sololá	713	San Lucas Tolimán	10	San Lucas Tolimán	4	Abril	2023-12-04T00:00:00	2024-11-08T05:00:00	6	Velocidad del viento	3.2
117662	7	Sololá	713	San Lucas Tolimán	10	San Lucas Tolimán	4	Abril	2023-12-04T00:00:00	2024-11-08T05:00:00	7	Dirección del viento	3.22
117663	7	Sololá	713	San Lucas Tolimán	10	San Lucas Tolimán	4	Abril	2023-12-04T00:00:00	2024-11-08T05:00:00	1	Precipitación	0
117664	7	Sololá	713	San Lucas Tolimán	10	San Lucas Tolimán	4	Abril	2023-12-04T00:00:00	2024-11-08T05:00:00	8	Radiación solar	0
117665	7	Sololá	713	San Lucas Tolimán	10	San Lucas Tolimán	4	Abril	2023-12-04T00:00:00	2024-11-08T06:00:00	2	Temperatura media	16.3
117666	7	Sololá	713	San Lucas Tolimán	10	San Lucas Tolimán	4	Abril	2023-12-04T00:00:00	2024-11-08T06:00:00	4	Temperatura máxima	16.3
117667	7	Sololá	713	San Lucas Tolimán	10	San Lucas Tolimán	4	Abril	2023-12-04T00:00:00	2024-11-08T06:00:00	3	Temperatura mínima	15.8
117668	7	Sololá	713	San Lucas Tolimán	10	San Lucas Tolimán	4	Abril	2023-12-04T00:00:00	2024-11-08T06:00:00	5	Humedad	55
117669	7	Sololá	713	San Lucas Tolimán	10	San Lucas Tolimán	4	Abril	2023-12-04T00:00:00	2024-11-08T06:00:00	6	Velocidad del viento	4.8
117670	7	Sololá	713	San Lucas Tolimán	10	San Lucas Tolimán	4	Abril	2023-12-04T00:00:00	2024-11-08T06:00:00	7	Dirección del viento	4.83
117671	7	Sololá	713	San Lucas Tolimán	10	San Lucas Tolimán	4	Abril	2023-12-04T00:00:00	2024-11-08T06:00:00	1	Precipitación	0
117672	7	Sololá	713	San Lucas Tolimán	10	San Lucas Tolimán	4	Abril	2023-12-04T00:00:00	2024-11-08T06:00:00	8	Radiación solar	0
117673	7	Sololá	713	San Lucas Tolimán	10	San Lucas Tolimán	4	Abril	2023-12-04T00:00:00	2024-11-08T07:00:00	2	Temperatura media	16.7
117674	7	Sololá	713	San Lucas Tolimán	10	San Lucas Tolimán	4	Abril	2023-12-04T00:00:00	2024-11-08T07:00:00	4	Temperatura máxima	16.7
117675	7	Sololá	713	San Lucas Tolimán	10	San Lucas Tolimán	4	Abril	2023-12-04T00:00:00	2024-11-08T07:00:00	3	Temperatura mínima	16.2
117676	7	Sololá	713	San Lucas Tolimán	10	San Lucas Tolimán	4	Abril	2023-12-04T00:00:00	2024-11-08T07:00:00	5	Humedad	54
117677	7	Sololá	713	San Lucas Tolimán	10	San Lucas Tolimán	4	Abril	2023-12-04T00:00:00	2024-11-08T07:00:00	6	Velocidad del viento	3.2
117678	7	Sololá	713	San Lucas Tolimán	10	San Lucas Tolimán	4	Abril	2023-12-04T00:00:00	2024-11-08T07:00:00	7	Dirección del viento	3.22
117679	7	Sololá	713	San Lucas Tolimán	10	San Lucas Tolimán	4	Abril	2023-12-04T00:00:00	2024-11-08T07:00:00	1	Precipitación	0
117680	7	Sololá	713	San Lucas Tolimán	10	San Lucas Tolimán	4	Abril	2023-12-04T00:00:00	2024-11-08T07:00:00	8	Radiación solar	48
117681	7	Sololá	713	San Lucas Tolimán	10	San Lucas Tolimán	4	Abril	2023-12-04T00:00:00	2024-11-08T08:00:00	2	Temperatura media	19.7
117682	7	Sololá	713	San Lucas Tolimán	10	San Lucas Tolimán	4	Abril	2023-12-04T00:00:00	2024-11-08T08:00:00	4	Temperatura máxima	19.7
117683	7	Sololá	713	San Lucas Tolimán	10	San Lucas Tolimán	4	Abril	2023-12-04T00:00:00	2024-11-08T08:00:00	3	Temperatura mínima	16.7
117684	7	Sololá	713	San Lucas Tolimán	10	San Lucas Tolimán	4	Abril	2023-12-04T00:00:00	2024-11-08T08:00:00	5	Humedad	48
117685	7	Sololá	713	San Lucas Tolimán	10	San Lucas Tolimán	4	Abril	2023-12-04T00:00:00	2024-11-08T08:00:00	6	Velocidad del viento	3.2
117686	7	Sololá	713	San Lucas Tolimán	10	San Lucas Tolimán	4	Abril	2023-12-04T00:00:00	2024-11-08T08:00:00	7	Dirección del viento	3.22
117687	7	Sololá	713	San Lucas Tolimán	10	San Lucas Tolimán	4	Abril	2023-12-04T00:00:00	2024-11-08T08:00:00	1	Precipitación	0
117688	7	Sololá	713	San Lucas Tolimán	10	San Lucas Tolimán	4	Abril	2023-12-04T00:00:00	2024-11-08T08:00:00	8	Radiación solar	227
117689	7	Sololá	713	San Lucas Tolimán	10	San Lucas Tolimán	4	Abril	2023-12-04T00:00:00	2024-11-08T09:00:00	2	Temperatura media	19.3
117690	7	Sololá	713	San Lucas Tolimán	10	San Lucas Tolimán	4	Abril	2023-12-04T00:00:00	2024-11-08T09:00:00	4	Temperatura máxima	19.9
117691	7	Sololá	713	San Lucas Tolimán	10	San Lucas Tolimán	4	Abril	2023-12-04T00:00:00	2024-11-08T09:00:00	3	Temperatura mínima	19.3
117692	7	Sololá	713	San Lucas Tolimán	10	San Lucas Tolimán	4	Abril	2023-12-04T00:00:00	2024-11-08T09:00:00	5	Humedad	48
117693	7	Sololá	713	San Lucas Tolimán	10	San Lucas Tolimán	4	Abril	2023-12-04T00:00:00	2024-11-08T09:00:00	6	Velocidad del viento	6.4
117694	7	Sololá	713	San Lucas Tolimán	10	San Lucas Tolimán	4	Abril	2023-12-04T00:00:00	2024-11-08T09:00:00	7	Dirección del viento	6.44
117695	7	Sololá	713	San Lucas Tolimán	10	San Lucas Tolimán	4	Abril	2023-12-04T00:00:00	2024-11-08T09:00:00	1	Precipitación	0
117696	7	Sololá	713	San Lucas Tolimán	10	San Lucas Tolimán	4	Abril	2023-12-04T00:00:00	2024-11-08T09:00:00	8	Radiación solar	368
117697	7	Sololá	713	San Lucas Tolimán	10	San Lucas Tolimán	4	Abril	2023-12-04T00:00:00	2024-11-08T10:00:00	2	Temperatura media	23
117698	7	Sololá	713	San Lucas Tolimán	10	San Lucas Tolimán	4	Abril	2023-12-04T00:00:00	2024-11-08T10:00:00	4	Temperatura máxima	23.2
117699	7	Sololá	713	San Lucas Tolimán	10	San Lucas Tolimán	4	Abril	2023-12-04T00:00:00	2024-11-08T10:00:00	3	Temperatura mínima	19.3
117700	7	Sololá	713	San Lucas Tolimán	10	San Lucas Tolimán	4	Abril	2023-12-04T00:00:00	2024-11-08T10:00:00	5	Humedad	37
117701	7	Sololá	713	San Lucas Tolimán	10	San Lucas Tolimán	4	Abril	2023-12-04T00:00:00	2024-11-08T10:00:00	6	Velocidad del viento	4.8
117702	7	Sololá	713	San Lucas Tolimán	10	San Lucas Tolimán	4	Abril	2023-12-04T00:00:00	2024-11-08T10:00:00	7	Dirección del viento	4.83
117703	7	Sololá	713	San Lucas Tolimán	10	San Lucas Tolimán	4	Abril	2023-12-04T00:00:00	2024-11-08T10:00:00	1	Precipitación	0
117704	7	Sololá	713	San Lucas Tolimán	10	San Lucas Tolimán	4	Abril	2023-12-04T00:00:00	2024-11-08T10:00:00	8	Radiación solar	528
117705	7	Sololá	713	San Lucas Tolimán	10	San Lucas Tolimán	4	Abril	2023-12-04T00:00:00	2024-11-08T11:00:00	2	Temperatura media	23.3
117706	7	Sololá	713	San Lucas Tolimán	10	San Lucas Tolimán	4	Abril	2023-12-04T00:00:00	2024-11-08T11:00:00	4	Temperatura máxima	23.3
117707	7	Sololá	713	San Lucas Tolimán	10	San Lucas Tolimán	4	Abril	2023-12-04T00:00:00	2024-11-08T11:00:00	3	Temperatura mínima	22.1
117708	7	Sololá	713	San Lucas Tolimán	10	San Lucas Tolimán	4	Abril	2023-12-04T00:00:00	2024-11-08T11:00:00	5	Humedad	41
117709	7	Sololá	713	San Lucas Tolimán	10	San Lucas Tolimán	4	Abril	2023-12-04T00:00:00	2024-11-08T11:00:00	6	Velocidad del viento	8
117710	7	Sololá	713	San Lucas Tolimán	10	San Lucas Tolimán	4	Abril	2023-12-04T00:00:00	2024-11-08T11:00:00	7	Dirección del viento	8.05
117711	7	Sololá	713	San Lucas Tolimán	10	San Lucas Tolimán	4	Abril	2023-12-04T00:00:00	2024-11-08T11:00:00	1	Precipitación	0
117712	7	Sololá	713	San Lucas Tolimán	10	San Lucas Tolimán	4	Abril	2023-12-04T00:00:00	2024-11-08T11:00:00	8	Radiación solar	559
117713	7	Sololá	713	San Lucas Tolimán	10	San Lucas Tolimán	4	Abril	2023-12-04T00:00:00	2024-11-08T12:00:00	2	Temperatura media	23.4
117714	7	Sololá	713	San Lucas Tolimán	10	San Lucas Tolimán	4	Abril	2023-12-04T00:00:00	2024-11-08T12:00:00	4	Temperatura máxima	23.7
117715	7	Sololá	713	San Lucas Tolimán	10	San Lucas Tolimán	4	Abril	2023-12-04T00:00:00	2024-11-08T12:00:00	3	Temperatura mínima	22.5
117716	7	Sololá	713	San Lucas Tolimán	10	San Lucas Tolimán	4	Abril	2023-12-04T00:00:00	2024-11-08T12:00:00	5	Humedad	40
117717	7	Sololá	713	San Lucas Tolimán	10	San Lucas Tolimán	4	Abril	2023-12-04T00:00:00	2024-11-08T12:00:00	6	Velocidad del viento	9.7
117718	7	Sololá	713	San Lucas Tolimán	10	San Lucas Tolimán	4	Abril	2023-12-04T00:00:00	2024-11-08T12:00:00	7	Dirección del viento	9.66
117719	7	Sololá	713	San Lucas Tolimán	10	San Lucas Tolimán	4	Abril	2023-12-04T00:00:00	2024-11-08T12:00:00	1	Precipitación	0
117720	7	Sololá	713	San Lucas Tolimán	10	San Lucas Tolimán	4	Abril	2023-12-04T00:00:00	2024-11-08T12:00:00	8	Radiación solar	878
117721	7	Sololá	713	San Lucas Tolimán	10	San Lucas Tolimán	4	Abril	2023-12-04T00:00:00	2024-11-08T13:00:00	2	Temperatura media	23.7
117722	7	Sololá	713	San Lucas Tolimán	10	San Lucas Tolimán	4	Abril	2023-12-04T00:00:00	2024-11-08T13:00:00	4	Temperatura máxima	24.1
117723	7	Sololá	713	San Lucas Tolimán	10	San Lucas Tolimán	4	Abril	2023-12-04T00:00:00	2024-11-08T13:00:00	3	Temperatura mínima	23.1
117724	7	Sololá	713	San Lucas Tolimán	10	San Lucas Tolimán	4	Abril	2023-12-04T00:00:00	2024-11-08T13:00:00	5	Humedad	47
117725	7	Sololá	713	San Lucas Tolimán	10	San Lucas Tolimán	4	Abril	2023-12-04T00:00:00	2024-11-08T13:00:00	6	Velocidad del viento	9.7
117726	7	Sololá	713	San Lucas Tolimán	10	San Lucas Tolimán	4	Abril	2023-12-04T00:00:00	2024-11-08T13:00:00	7	Dirección del viento	9.66
117727	7	Sololá	713	San Lucas Tolimán	10	San Lucas Tolimán	4	Abril	2023-12-04T00:00:00	2024-11-08T13:00:00	1	Precipitación	0
117728	7	Sololá	713	San Lucas Tolimán	10	San Lucas Tolimán	4	Abril	2023-12-04T00:00:00	2024-11-08T13:00:00	8	Radiación solar	1048
117729	7	Sololá	713	San Lucas Tolimán	10	San Lucas Tolimán	4	Abril	2023-12-04T00:00:00	2024-11-08T14:00:00	2	Temperatura media	22
117730	7	Sololá	713	San Lucas Tolimán	10	San Lucas Tolimán	4	Abril	2023-12-04T00:00:00	2024-11-08T14:00:00	4	Temperatura máxima	23.9
117731	7	Sololá	713	San Lucas Tolimán	10	San Lucas Tolimán	4	Abril	2023-12-04T00:00:00	2024-11-08T14:00:00	3	Temperatura mínima	21.9
117732	7	Sololá	713	San Lucas Tolimán	10	San Lucas Tolimán	4	Abril	2023-12-04T00:00:00	2024-11-08T14:00:00	5	Humedad	52
117733	7	Sololá	713	San Lucas Tolimán	10	San Lucas Tolimán	4	Abril	2023-12-04T00:00:00	2024-11-08T14:00:00	6	Velocidad del viento	11.3
117734	7	Sololá	713	San Lucas Tolimán	10	San Lucas Tolimán	4	Abril	2023-12-04T00:00:00	2024-11-08T14:00:00	7	Dirección del viento	11.27
117735	7	Sololá	713	San Lucas Tolimán	10	San Lucas Tolimán	4	Abril	2023-12-04T00:00:00	2024-11-08T14:00:00	1	Precipitación	0
117736	7	Sololá	713	San Lucas Tolimán	10	San Lucas Tolimán	4	Abril	2023-12-04T00:00:00	2024-11-08T14:00:00	8	Radiación solar	652
117737	7	Sololá	713	San Lucas Tolimán	10	San Lucas Tolimán	4	Abril	2023-12-04T00:00:00	2024-11-08T15:00:00	2	Temperatura media	21.7
117738	7	Sololá	713	San Lucas Tolimán	10	San Lucas Tolimán	4	Abril	2023-12-04T00:00:00	2024-11-08T15:00:00	4	Temperatura máxima	22.2
117739	7	Sololá	713	San Lucas Tolimán	10	San Lucas Tolimán	4	Abril	2023-12-04T00:00:00	2024-11-08T15:00:00	3	Temperatura mínima	21.6
117740	7	Sololá	713	San Lucas Tolimán	10	San Lucas Tolimán	4	Abril	2023-12-04T00:00:00	2024-11-08T15:00:00	5	Humedad	54
117741	7	Sololá	713	San Lucas Tolimán	10	San Lucas Tolimán	4	Abril	2023-12-04T00:00:00	2024-11-08T15:00:00	6	Velocidad del viento	9.7
117742	7	Sololá	713	San Lucas Tolimán	10	San Lucas Tolimán	4	Abril	2023-12-04T00:00:00	2024-11-08T15:00:00	7	Dirección del viento	9.66
117743	7	Sololá	713	San Lucas Tolimán	10	San Lucas Tolimán	4	Abril	2023-12-04T00:00:00	2024-11-08T15:00:00	1	Precipitación	0
117744	7	Sololá	713	San Lucas Tolimán	10	San Lucas Tolimán	4	Abril	2023-12-04T00:00:00	2024-11-08T15:00:00	8	Radiación solar	426
117745	7	Sololá	713	San Lucas Tolimán	10	San Lucas Tolimán	4	Abril	2023-12-04T00:00:00	2024-11-08T16:00:00	2	Temperatura media	21.6
117746	7	Sololá	713	San Lucas Tolimán	10	San Lucas Tolimán	4	Abril	2023-12-04T00:00:00	2024-11-08T16:00:00	4	Temperatura máxima	22.7
117747	7	Sololá	713	San Lucas Tolimán	10	San Lucas Tolimán	4	Abril	2023-12-04T00:00:00	2024-11-08T16:00:00	3	Temperatura mínima	21.6
117748	7	Sololá	713	San Lucas Tolimán	10	San Lucas Tolimán	4	Abril	2023-12-04T00:00:00	2024-11-08T16:00:00	5	Humedad	54
117749	7	Sololá	713	San Lucas Tolimán	10	San Lucas Tolimán	4	Abril	2023-12-04T00:00:00	2024-11-08T16:00:00	6	Velocidad del viento	8
117750	7	Sololá	713	San Lucas Tolimán	10	San Lucas Tolimán	4	Abril	2023-12-04T00:00:00	2024-11-08T16:00:00	7	Dirección del viento	8.05
117751	7	Sololá	713	San Lucas Tolimán	10	San Lucas Tolimán	4	Abril	2023-12-04T00:00:00	2024-11-08T16:00:00	1	Precipitación	0
117752	7	Sololá	713	San Lucas Tolimán	10	San Lucas Tolimán	4	Abril	2023-12-04T00:00:00	2024-11-08T16:00:00	8	Radiación solar	289
117753	7	Sololá	713	San Lucas Tolimán	10	San Lucas Tolimán	4	Abril	2023-12-04T00:00:00	2024-11-08T17:00:00	2	Temperatura media	21.7
117754	7	Sololá	713	San Lucas Tolimán	10	San Lucas Tolimán	4	Abril	2023-12-04T00:00:00	2024-11-08T17:00:00	4	Temperatura máxima	22
117755	7	Sololá	713	San Lucas Tolimán	10	San Lucas Tolimán	4	Abril	2023-12-04T00:00:00	2024-11-08T17:00:00	3	Temperatura mínima	21.1
117756	7	Sololá	713	San Lucas Tolimán	10	San Lucas Tolimán	4	Abril	2023-12-04T00:00:00	2024-11-08T17:00:00	5	Humedad	56
117757	7	Sololá	713	San Lucas Tolimán	10	San Lucas Tolimán	4	Abril	2023-12-04T00:00:00	2024-11-08T17:00:00	6	Velocidad del viento	8
117758	7	Sololá	713	San Lucas Tolimán	10	San Lucas Tolimán	4	Abril	2023-12-04T00:00:00	2024-11-08T17:00:00	7	Dirección del viento	8.05
117759	7	Sololá	713	San Lucas Tolimán	10	San Lucas Tolimán	4	Abril	2023-12-04T00:00:00	2024-11-08T17:00:00	1	Precipitación	0
117760	7	Sololá	713	San Lucas Tolimán	10	San Lucas Tolimán	4	Abril	2023-12-04T00:00:00	2024-11-08T17:00:00	8	Radiación solar	209
117761	7	Sololá	713	San Lucas Tolimán	10	San Lucas Tolimán	4	Abril	2023-12-04T00:00:00	2024-11-08T18:00:00	2	Temperatura media	19.9
117762	7	Sololá	713	San Lucas Tolimán	10	San Lucas Tolimán	4	Abril	2023-12-04T00:00:00	2024-11-08T18:00:00	4	Temperatura máxima	21.7
117763	7	Sololá	713	San Lucas Tolimán	10	San Lucas Tolimán	4	Abril	2023-12-04T00:00:00	2024-11-08T18:00:00	3	Temperatura mínima	19.8
117764	7	Sololá	713	San Lucas Tolimán	10	San Lucas Tolimán	4	Abril	2023-12-04T00:00:00	2024-11-08T18:00:00	5	Humedad	63
117765	7	Sololá	713	San Lucas Tolimán	10	San Lucas Tolimán	4	Abril	2023-12-04T00:00:00	2024-11-08T18:00:00	6	Velocidad del viento	9.7
117766	7	Sololá	713	San Lucas Tolimán	10	San Lucas Tolimán	4	Abril	2023-12-04T00:00:00	2024-11-08T18:00:00	7	Dirección del viento	9.66
117767	7	Sololá	713	San Lucas Tolimán	10	San Lucas Tolimán	4	Abril	2023-12-04T00:00:00	2024-11-08T18:00:00	1	Precipitación	0
117768	7	Sololá	713	San Lucas Tolimán	10	San Lucas Tolimán	4	Abril	2023-12-04T00:00:00	2024-11-08T18:00:00	8	Radiación solar	81
117769	7	Sololá	713	San Lucas Tolimán	10	San Lucas Tolimán	4	Abril	2023-12-04T00:00:00	2024-11-08T19:00:00	2	Temperatura media	18.7
117770	7	Sololá	713	San Lucas Tolimán	10	San Lucas Tolimán	4	Abril	2023-12-04T00:00:00	2024-11-08T19:00:00	4	Temperatura máxima	19.9
117771	7	Sololá	713	San Lucas Tolimán	10	San Lucas Tolimán	4	Abril	2023-12-04T00:00:00	2024-11-08T19:00:00	3	Temperatura mínima	18.7
117772	7	Sololá	713	San Lucas Tolimán	10	San Lucas Tolimán	4	Abril	2023-12-04T00:00:00	2024-11-08T19:00:00	5	Humedad	62
117773	7	Sololá	713	San Lucas Tolimán	10	San Lucas Tolimán	4	Abril	2023-12-04T00:00:00	2024-11-08T19:00:00	6	Velocidad del viento	6.4
117774	7	Sololá	713	San Lucas Tolimán	10	San Lucas Tolimán	4	Abril	2023-12-04T00:00:00	2024-11-08T19:00:00	7	Dirección del viento	6.44
117775	7	Sololá	713	San Lucas Tolimán	10	San Lucas Tolimán	4	Abril	2023-12-04T00:00:00	2024-11-08T19:00:00	1	Precipitación	0
117776	7	Sololá	713	San Lucas Tolimán	10	San Lucas Tolimán	4	Abril	2023-12-04T00:00:00	2024-11-08T19:00:00	8	Radiación solar	0
117777	7	Sololá	713	San Lucas Tolimán	10	San Lucas Tolimán	4	Abril	2023-12-04T00:00:00	2024-11-08T20:00:00	2	Temperatura media	18.1
117778	7	Sololá	713	San Lucas Tolimán	10	San Lucas Tolimán	4	Abril	2023-12-04T00:00:00	2024-11-08T20:00:00	4	Temperatura máxima	18.7
117779	7	Sololá	713	San Lucas Tolimán	10	San Lucas Tolimán	4	Abril	2023-12-04T00:00:00	2024-11-08T20:00:00	3	Temperatura mínima	18
117780	7	Sololá	713	San Lucas Tolimán	10	San Lucas Tolimán	4	Abril	2023-12-04T00:00:00	2024-11-08T20:00:00	5	Humedad	63
117781	7	Sololá	713	San Lucas Tolimán	10	San Lucas Tolimán	4	Abril	2023-12-04T00:00:00	2024-11-08T20:00:00	6	Velocidad del viento	6.4
117782	7	Sololá	713	San Lucas Tolimán	10	San Lucas Tolimán	4	Abril	2023-12-04T00:00:00	2024-11-08T20:00:00	7	Dirección del viento	6.44
117783	7	Sololá	713	San Lucas Tolimán	10	San Lucas Tolimán	4	Abril	2023-12-04T00:00:00	2024-11-08T20:00:00	1	Precipitación	0
117784	7	Sololá	713	San Lucas Tolimán	10	San Lucas Tolimán	4	Abril	2023-12-04T00:00:00	2024-11-08T20:00:00	8	Radiación solar	0
117785	7	Sololá	713	San Lucas Tolimán	10	San Lucas Tolimán	4	Abril	2023-12-04T00:00:00	2024-11-08T21:00:00	2	Temperatura media	18.3
117786	7	Sololá	713	San Lucas Tolimán	10	San Lucas Tolimán	4	Abril	2023-12-04T00:00:00	2024-11-08T21:00:00	4	Temperatura máxima	18.4
117787	7	Sololá	713	San Lucas Tolimán	10	San Lucas Tolimán	4	Abril	2023-12-04T00:00:00	2024-11-08T21:00:00	3	Temperatura mínima	17.8
117788	7	Sololá	713	San Lucas Tolimán	10	San Lucas Tolimán	4	Abril	2023-12-04T00:00:00	2024-11-08T21:00:00	5	Humedad	57
117789	7	Sololá	713	San Lucas Tolimán	10	San Lucas Tolimán	4	Abril	2023-12-04T00:00:00	2024-11-08T21:00:00	6	Velocidad del viento	3.2
117790	7	Sololá	713	San Lucas Tolimán	10	San Lucas Tolimán	4	Abril	2023-12-04T00:00:00	2024-11-08T21:00:00	7	Dirección del viento	3.22
117791	7	Sololá	713	San Lucas Tolimán	10	San Lucas Tolimán	4	Abril	2023-12-04T00:00:00	2024-11-08T21:00:00	1	Precipitación	0
117792	7	Sololá	713	San Lucas Tolimán	10	San Lucas Tolimán	4	Abril	2023-12-04T00:00:00	2024-11-08T21:00:00	8	Radiación solar	0
117793	7	Sololá	713	San Lucas Tolimán	10	San Lucas Tolimán	4	Abril	2023-12-04T00:00:00	2024-11-08T22:00:00	2	Temperatura media	18.6
117794	7	Sololá	713	San Lucas Tolimán	10	San Lucas Tolimán	4	Abril	2023-12-04T00:00:00	2024-11-08T22:00:00	4	Temperatura máxima	19.8
117795	7	Sololá	713	San Lucas Tolimán	10	San Lucas Tolimán	4	Abril	2023-12-04T00:00:00	2024-11-08T22:00:00	3	Temperatura mínima	18.3
117796	7	Sololá	713	San Lucas Tolimán	10	San Lucas Tolimán	4	Abril	2023-12-04T00:00:00	2024-11-08T22:00:00	5	Humedad	58
117797	7	Sololá	713	San Lucas Tolimán	10	San Lucas Tolimán	4	Abril	2023-12-04T00:00:00	2024-11-08T22:00:00	6	Velocidad del viento	3.2
117798	7	Sololá	713	San Lucas Tolimán	10	San Lucas Tolimán	4	Abril	2023-12-04T00:00:00	2024-11-08T22:00:00	7	Dirección del viento	3.22
117799	7	Sololá	713	San Lucas Tolimán	10	San Lucas Tolimán	4	Abril	2023-12-04T00:00:00	2024-11-08T22:00:00	1	Precipitación	0
117800	7	Sololá	713	San Lucas Tolimán	10	San Lucas Tolimán	4	Abril	2023-12-04T00:00:00	2024-11-08T22:00:00	8	Radiación solar	0
117801	7	Sololá	713	San Lucas Tolimán	10	San Lucas Tolimán	4	Abril	2023-12-04T00:00:00	2024-11-08T23:00:00	2	Temperatura media	17.9
117802	7	Sololá	713	San Lucas Tolimán	10	San Lucas Tolimán	4	Abril	2023-12-04T00:00:00	2024-11-08T23:00:00	4	Temperatura máxima	18.9
117803	7	Sololá	713	San Lucas Tolimán	10	San Lucas Tolimán	4	Abril	2023-12-04T00:00:00	2024-11-08T23:00:00	3	Temperatura mínima	17.9
117804	7	Sololá	713	San Lucas Tolimán	10	San Lucas Tolimán	4	Abril	2023-12-04T00:00:00	2024-11-08T23:00:00	5	Humedad	59
117805	7	Sololá	713	San Lucas Tolimán	10	San Lucas Tolimán	4	Abril	2023-12-04T00:00:00	2024-11-08T23:00:00	6	Velocidad del viento	1.6
117806	7	Sololá	713	San Lucas Tolimán	10	San Lucas Tolimán	4	Abril	2023-12-04T00:00:00	2024-11-08T23:00:00	7	Dirección del viento	1.61
117807	7	Sololá	713	San Lucas Tolimán	10	San Lucas Tolimán	4	Abril	2023-12-04T00:00:00	2024-11-08T23:00:00	1	Precipitación	0
117808	7	Sololá	713	San Lucas Tolimán	10	San Lucas Tolimán	4	Abril	2023-12-04T00:00:00	2024-11-08T23:00:00	8	Radiación solar	0
117809	7	Sololá	713	San Lucas Tolimán	10	San Lucas Tolimán	4	Abril	2023-04-13T00:00:00	2024-11-08T00:00:00	2	Temperatura media	17.7
117810	7	Sololá	713	San Lucas Tolimán	10	San Lucas Tolimán	4	Abril	2023-04-13T00:00:00	2024-11-08T00:00:00	4	Temperatura máxima	17.9
117811	7	Sololá	713	San Lucas Tolimán	10	San Lucas Tolimán	4	Abril	2023-04-13T00:00:00	2024-11-08T00:00:00	3	Temperatura mínima	17.6
117812	7	Sololá	713	San Lucas Tolimán	10	San Lucas Tolimán	4	Abril	2023-04-13T00:00:00	2024-11-08T00:00:00	5	Humedad	60
117813	7	Sololá	713	San Lucas Tolimán	10	San Lucas Tolimán	4	Abril	2023-04-13T00:00:00	2024-11-08T00:00:00	6	Velocidad del viento	0
117814	7	Sololá	713	San Lucas Tolimán	10	San Lucas Tolimán	4	Abril	2023-04-13T00:00:00	2024-11-08T00:00:00	7	Dirección del viento	0
117815	7	Sololá	713	San Lucas Tolimán	10	San Lucas Tolimán	4	Abril	2023-04-13T00:00:00	2024-11-08T00:00:00	1	Precipitación	0
117816	7	Sololá	713	San Lucas Tolimán	10	San Lucas Tolimán	4	Abril	2023-04-13T00:00:00	2024-11-08T00:00:00	8	Radiación solar	0
117817	7	Sololá	713	San Lucas Tolimán	10	San Lucas Tolimán	4	Abril	2023-04-13T00:00:00	2024-11-08T01:00:00	2	Temperatura media	17.4
117818	7	Sololá	713	San Lucas Tolimán	10	San Lucas Tolimán	4	Abril	2023-04-13T00:00:00	2024-11-08T01:00:00	4	Temperatura máxima	17.8
117819	7	Sololá	713	San Lucas Tolimán	10	San Lucas Tolimán	4	Abril	2023-04-13T00:00:00	2024-11-08T01:00:00	3	Temperatura mínima	17.4
117820	7	Sololá	713	San Lucas Tolimán	10	San Lucas Tolimán	4	Abril	2023-04-13T00:00:00	2024-11-08T01:00:00	5	Humedad	61
117821	7	Sololá	713	San Lucas Tolimán	10	San Lucas Tolimán	4	Abril	2023-04-13T00:00:00	2024-11-08T01:00:00	6	Velocidad del viento	0
117822	7	Sololá	713	San Lucas Tolimán	10	San Lucas Tolimán	4	Abril	2023-04-13T00:00:00	2024-11-08T01:00:00	7	Dirección del viento	0
117823	7	Sololá	713	San Lucas Tolimán	10	San Lucas Tolimán	4	Abril	2023-04-13T00:00:00	2024-11-08T01:00:00	1	Precipitación	0
117824	7	Sololá	713	San Lucas Tolimán	10	San Lucas Tolimán	4	Abril	2023-04-13T00:00:00	2024-11-08T01:00:00	8	Radiación solar	0
117825	7	Sololá	713	San Lucas Tolimán	10	San Lucas Tolimán	4	Abril	2023-04-13T00:00:00	2024-11-08T02:00:00	2	Temperatura media	17.9
117826	7	Sololá	713	San Lucas Tolimán	10	San Lucas Tolimán	4	Abril	2023-04-13T00:00:00	2024-11-08T02:00:00	4	Temperatura máxima	18.1
117827	7	Sololá	713	San Lucas Tolimán	10	San Lucas Tolimán	4	Abril	2023-04-13T00:00:00	2024-11-08T02:00:00	3	Temperatura mínima	17.4
117828	7	Sololá	713	San Lucas Tolimán	10	San Lucas Tolimán	4	Abril	2023-04-13T00:00:00	2024-11-08T02:00:00	5	Humedad	58
117829	7	Sololá	713	San Lucas Tolimán	10	San Lucas Tolimán	4	Abril	2023-04-13T00:00:00	2024-11-08T02:00:00	6	Velocidad del viento	1.6
117830	7	Sololá	713	San Lucas Tolimán	10	San Lucas Tolimán	4	Abril	2023-04-13T00:00:00	2024-11-08T02:00:00	7	Dirección del viento	1.61
117831	7	Sololá	713	San Lucas Tolimán	10	San Lucas Tolimán	4	Abril	2023-04-13T00:00:00	2024-11-08T02:00:00	1	Precipitación	0
117832	7	Sololá	713	San Lucas Tolimán	10	San Lucas Tolimán	4	Abril	2023-04-13T00:00:00	2024-11-08T02:00:00	8	Radiación solar	0
117833	7	Sololá	713	San Lucas Tolimán	10	San Lucas Tolimán	4	Abril	2023-04-13T00:00:00	2024-11-08T03:00:00	2	Temperatura media	17.2
117834	7	Sololá	713	San Lucas Tolimán	10	San Lucas Tolimán	4	Abril	2023-04-13T00:00:00	2024-11-08T03:00:00	4	Temperatura máxima	17.9
117835	7	Sololá	713	San Lucas Tolimán	10	San Lucas Tolimán	4	Abril	2023-04-13T00:00:00	2024-11-08T03:00:00	3	Temperatura mínima	17.2
117836	7	Sololá	713	San Lucas Tolimán	10	San Lucas Tolimán	4	Abril	2023-04-13T00:00:00	2024-11-08T03:00:00	5	Humedad	60
117837	7	Sololá	713	San Lucas Tolimán	10	San Lucas Tolimán	4	Abril	2023-04-13T00:00:00	2024-11-08T03:00:00	6	Velocidad del viento	0
117838	7	Sololá	713	San Lucas Tolimán	10	San Lucas Tolimán	4	Abril	2023-04-13T00:00:00	2024-11-08T03:00:00	7	Dirección del viento	0
117839	7	Sololá	713	San Lucas Tolimán	10	San Lucas Tolimán	4	Abril	2023-04-13T00:00:00	2024-11-08T03:00:00	1	Precipitación	0
117840	7	Sololá	713	San Lucas Tolimán	10	San Lucas Tolimán	4	Abril	2023-04-13T00:00:00	2024-11-08T03:00:00	8	Radiación solar	0
117841	7	Sololá	713	San Lucas Tolimán	10	San Lucas Tolimán	4	Abril	2023-04-13T00:00:00	2024-11-08T04:00:00	2	Temperatura media	16.7
117842	7	Sololá	713	San Lucas Tolimán	10	San Lucas Tolimán	4	Abril	2023-04-13T00:00:00	2024-11-08T04:00:00	4	Temperatura máxima	17.6
117843	7	Sololá	713	San Lucas Tolimán	10	San Lucas Tolimán	4	Abril	2023-04-13T00:00:00	2024-11-08T04:00:00	3	Temperatura mínima	16.7
117844	7	Sololá	713	San Lucas Tolimán	10	San Lucas Tolimán	4	Abril	2023-04-13T00:00:00	2024-11-08T04:00:00	5	Humedad	61
117845	7	Sololá	713	San Lucas Tolimán	10	San Lucas Tolimán	4	Abril	2023-04-13T00:00:00	2024-11-08T04:00:00	6	Velocidad del viento	0
117846	7	Sololá	713	San Lucas Tolimán	10	San Lucas Tolimán	4	Abril	2023-04-13T00:00:00	2024-11-08T04:00:00	7	Dirección del viento	0
117847	7	Sololá	713	San Lucas Tolimán	10	San Lucas Tolimán	4	Abril	2023-04-13T00:00:00	2024-11-08T04:00:00	1	Precipitación	0
117848	7	Sololá	713	San Lucas Tolimán	10	San Lucas Tolimán	4	Abril	2023-04-13T00:00:00	2024-11-08T04:00:00	8	Radiación solar	0
117849	7	Sololá	713	San Lucas Tolimán	10	San Lucas Tolimán	4	Abril	2023-04-13T00:00:00	2024-11-08T05:00:00	2	Temperatura media	15.7
117850	7	Sololá	713	San Lucas Tolimán	10	San Lucas Tolimán	4	Abril	2023-04-13T00:00:00	2024-11-08T05:00:00	4	Temperatura máxima	16.7
117851	7	Sololá	713	San Lucas Tolimán	10	San Lucas Tolimán	4	Abril	2023-04-13T00:00:00	2024-11-08T05:00:00	3	Temperatura mínima	15.7
117852	7	Sololá	713	San Lucas Tolimán	10	San Lucas Tolimán	4	Abril	2023-04-13T00:00:00	2024-11-08T05:00:00	5	Humedad	63
117853	7	Sololá	713	San Lucas Tolimán	10	San Lucas Tolimán	4	Abril	2023-04-13T00:00:00	2024-11-08T05:00:00	6	Velocidad del viento	0
117854	7	Sololá	713	San Lucas Tolimán	10	San Lucas Tolimán	4	Abril	2023-04-13T00:00:00	2024-11-08T05:00:00	7	Dirección del viento	0
117855	7	Sololá	713	San Lucas Tolimán	10	San Lucas Tolimán	4	Abril	2023-04-13T00:00:00	2024-11-08T05:00:00	1	Precipitación	0
117856	7	Sololá	713	San Lucas Tolimán	10	San Lucas Tolimán	4	Abril	2023-04-13T00:00:00	2024-11-08T05:00:00	8	Radiación solar	0
117857	7	Sololá	713	San Lucas Tolimán	10	San Lucas Tolimán	4	Abril	2023-04-13T00:00:00	2024-11-08T06:00:00	2	Temperatura media	15.2
117858	7	Sololá	713	San Lucas Tolimán	10	San Lucas Tolimán	4	Abril	2023-04-13T00:00:00	2024-11-08T06:00:00	4	Temperatura máxima	15.7
117859	7	Sololá	713	San Lucas Tolimán	10	San Lucas Tolimán	4	Abril	2023-04-13T00:00:00	2024-11-08T06:00:00	3	Temperatura mínima	15.2
117860	7	Sololá	713	San Lucas Tolimán	10	San Lucas Tolimán	4	Abril	2023-04-13T00:00:00	2024-11-08T06:00:00	5	Humedad	63
117861	7	Sololá	713	San Lucas Tolimán	10	San Lucas Tolimán	4	Abril	2023-04-13T00:00:00	2024-11-08T06:00:00	6	Velocidad del viento	0
117862	7	Sololá	713	San Lucas Tolimán	10	San Lucas Tolimán	4	Abril	2023-04-13T00:00:00	2024-11-08T06:00:00	7	Dirección del viento	0
117863	7	Sololá	713	San Lucas Tolimán	10	San Lucas Tolimán	4	Abril	2023-04-13T00:00:00	2024-11-08T06:00:00	1	Precipitación	0
117864	7	Sololá	713	San Lucas Tolimán	10	San Lucas Tolimán	4	Abril	2023-04-13T00:00:00	2024-11-08T06:00:00	8	Radiación solar	0
117865	7	Sololá	713	San Lucas Tolimán	10	San Lucas Tolimán	4	Abril	2023-04-13T00:00:00	2024-11-08T07:00:00	2	Temperatura media	15.4
117866	7	Sololá	713	San Lucas Tolimán	10	San Lucas Tolimán	4	Abril	2023-04-13T00:00:00	2024-11-08T07:00:00	4	Temperatura máxima	15.4
117867	7	Sololá	713	San Lucas Tolimán	10	San Lucas Tolimán	4	Abril	2023-04-13T00:00:00	2024-11-08T07:00:00	3	Temperatura mínima	14.7
117868	7	Sololá	713	San Lucas Tolimán	10	San Lucas Tolimán	4	Abril	2023-04-13T00:00:00	2024-11-08T07:00:00	5	Humedad	62
117869	7	Sololá	713	San Lucas Tolimán	10	San Lucas Tolimán	4	Abril	2023-04-13T00:00:00	2024-11-08T07:00:00	6	Velocidad del viento	1.6
117870	7	Sololá	713	San Lucas Tolimán	10	San Lucas Tolimán	4	Abril	2023-04-13T00:00:00	2024-11-08T07:00:00	7	Dirección del viento	1.61
117871	7	Sololá	713	San Lucas Tolimán	10	San Lucas Tolimán	4	Abril	2023-04-13T00:00:00	2024-11-08T07:00:00	1	Precipitación	0
117872	7	Sololá	713	San Lucas Tolimán	10	San Lucas Tolimán	4	Abril	2023-04-13T00:00:00	2024-11-08T07:00:00	8	Radiación solar	41
117873	7	Sololá	713	San Lucas Tolimán	10	San Lucas Tolimán	4	Abril	2023-04-13T00:00:00	2024-11-08T08:00:00	2	Temperatura media	19.7
117874	7	Sololá	713	San Lucas Tolimán	10	San Lucas Tolimán	4	Abril	2023-04-13T00:00:00	2024-11-08T08:00:00	4	Temperatura máxima	19.7
117875	7	Sololá	713	San Lucas Tolimán	10	San Lucas Tolimán	4	Abril	2023-04-13T00:00:00	2024-11-08T08:00:00	3	Temperatura mínima	15.4
117876	7	Sololá	713	San Lucas Tolimán	10	San Lucas Tolimán	4	Abril	2023-04-13T00:00:00	2024-11-08T08:00:00	5	Humedad	55
117877	7	Sololá	713	San Lucas Tolimán	10	San Lucas Tolimán	4	Abril	2023-04-13T00:00:00	2024-11-08T08:00:00	6	Velocidad del viento	1.6
117878	7	Sololá	713	San Lucas Tolimán	10	San Lucas Tolimán	4	Abril	2023-04-13T00:00:00	2024-11-08T08:00:00	7	Dirección del viento	1.61
117879	7	Sololá	713	San Lucas Tolimán	10	San Lucas Tolimán	4	Abril	2023-04-13T00:00:00	2024-11-08T08:00:00	1	Precipitación	0
117880	7	Sololá	713	San Lucas Tolimán	10	San Lucas Tolimán	4	Abril	2023-04-13T00:00:00	2024-11-08T08:00:00	8	Radiación solar	220
117881	7	Sololá	713	San Lucas Tolimán	10	San Lucas Tolimán	4	Abril	2023-04-13T00:00:00	2024-11-08T09:00:00	2	Temperatura media	21.6
117882	7	Sololá	713	San Lucas Tolimán	10	San Lucas Tolimán	4	Abril	2023-04-13T00:00:00	2024-11-08T09:00:00	4	Temperatura máxima	21.6
117883	7	Sololá	713	San Lucas Tolimán	10	San Lucas Tolimán	4	Abril	2023-04-13T00:00:00	2024-11-08T09:00:00	3	Temperatura mínima	19.7
117884	7	Sololá	713	San Lucas Tolimán	10	San Lucas Tolimán	4	Abril	2023-04-13T00:00:00	2024-11-08T09:00:00	5	Humedad	47
117885	7	Sololá	713	San Lucas Tolimán	10	San Lucas Tolimán	4	Abril	2023-04-13T00:00:00	2024-11-08T09:00:00	6	Velocidad del viento	4.8
117886	7	Sololá	713	San Lucas Tolimán	10	San Lucas Tolimán	4	Abril	2023-04-13T00:00:00	2024-11-08T09:00:00	7	Dirección del viento	4.83
117887	7	Sololá	713	San Lucas Tolimán	10	San Lucas Tolimán	4	Abril	2023-04-13T00:00:00	2024-11-08T09:00:00	1	Precipitación	0
117888	7	Sololá	713	San Lucas Tolimán	10	San Lucas Tolimán	4	Abril	2023-04-13T00:00:00	2024-11-08T09:00:00	8	Radiación solar	439
117889	7	Sololá	713	San Lucas Tolimán	10	San Lucas Tolimán	4	Abril	2023-04-13T00:00:00	2024-11-08T10:00:00	2	Temperatura media	23.1
117890	7	Sololá	713	San Lucas Tolimán	10	San Lucas Tolimán	4	Abril	2023-04-13T00:00:00	2024-11-08T10:00:00	4	Temperatura máxima	23.3
117891	7	Sololá	713	San Lucas Tolimán	10	San Lucas Tolimán	4	Abril	2023-04-13T00:00:00	2024-11-08T10:00:00	3	Temperatura mínima	21.4
117892	7	Sololá	713	San Lucas Tolimán	10	San Lucas Tolimán	4	Abril	2023-04-13T00:00:00	2024-11-08T10:00:00	5	Humedad	43
117893	7	Sololá	713	San Lucas Tolimán	10	San Lucas Tolimán	4	Abril	2023-04-13T00:00:00	2024-11-08T10:00:00	6	Velocidad del viento	8
117894	7	Sololá	713	San Lucas Tolimán	10	San Lucas Tolimán	4	Abril	2023-04-13T00:00:00	2024-11-08T10:00:00	7	Dirección del viento	8.05
117895	7	Sololá	713	San Lucas Tolimán	10	San Lucas Tolimán	4	Abril	2023-04-13T00:00:00	2024-11-08T10:00:00	1	Precipitación	0
117896	7	Sololá	713	San Lucas Tolimán	10	San Lucas Tolimán	4	Abril	2023-04-13T00:00:00	2024-11-08T10:00:00	8	Radiación solar	764
117897	7	Sololá	713	San Lucas Tolimán	10	San Lucas Tolimán	4	Abril	2023-04-13T00:00:00	2024-11-08T11:00:00	2	Temperatura media	22.6
117898	7	Sololá	713	San Lucas Tolimán	10	San Lucas Tolimán	4	Abril	2023-04-13T00:00:00	2024-11-08T11:00:00	4	Temperatura máxima	23.7
117899	7	Sololá	713	San Lucas Tolimán	10	San Lucas Tolimán	4	Abril	2023-04-13T00:00:00	2024-11-08T11:00:00	3	Temperatura mínima	22.3
117900	7	Sololá	713	San Lucas Tolimán	10	San Lucas Tolimán	4	Abril	2023-04-13T00:00:00	2024-11-08T11:00:00	5	Humedad	46
117901	7	Sololá	713	San Lucas Tolimán	10	San Lucas Tolimán	4	Abril	2023-04-13T00:00:00	2024-11-08T11:00:00	6	Velocidad del viento	11.3
117902	7	Sololá	713	San Lucas Tolimán	10	San Lucas Tolimán	4	Abril	2023-04-13T00:00:00	2024-11-08T11:00:00	7	Dirección del viento	11.27
117903	7	Sololá	713	San Lucas Tolimán	10	San Lucas Tolimán	4	Abril	2023-04-13T00:00:00	2024-11-08T11:00:00	1	Precipitación	0
117904	7	Sololá	713	San Lucas Tolimán	10	San Lucas Tolimán	4	Abril	2023-04-13T00:00:00	2024-11-08T11:00:00	8	Radiación solar	967
117905	7	Sololá	713	San Lucas Tolimán	10	San Lucas Tolimán	4	Abril	2023-04-13T00:00:00	2024-11-08T12:00:00	2	Temperatura media	23.1
117906	7	Sololá	713	San Lucas Tolimán	10	San Lucas Tolimán	4	Abril	2023-04-13T00:00:00	2024-11-08T12:00:00	4	Temperatura máxima	23.4
117907	7	Sololá	713	San Lucas Tolimán	10	San Lucas Tolimán	4	Abril	2023-04-13T00:00:00	2024-11-08T12:00:00	3	Temperatura mínima	22.6
117908	7	Sololá	713	San Lucas Tolimán	10	San Lucas Tolimán	4	Abril	2023-04-13T00:00:00	2024-11-08T12:00:00	5	Humedad	51
117909	7	Sololá	713	San Lucas Tolimán	10	San Lucas Tolimán	4	Abril	2023-04-13T00:00:00	2024-11-08T12:00:00	6	Velocidad del viento	11.3
117910	7	Sololá	713	San Lucas Tolimán	10	San Lucas Tolimán	4	Abril	2023-04-13T00:00:00	2024-11-08T12:00:00	7	Dirección del viento	11.27
117911	7	Sololá	713	San Lucas Tolimán	10	San Lucas Tolimán	4	Abril	2023-04-13T00:00:00	2024-11-08T12:00:00	1	Precipitación	0
117912	7	Sololá	713	San Lucas Tolimán	10	San Lucas Tolimán	4	Abril	2023-04-13T00:00:00	2024-11-08T12:00:00	8	Radiación solar	1058
117913	7	Sololá	713	San Lucas Tolimán	10	San Lucas Tolimán	4	Abril	2023-04-13T00:00:00	2024-11-08T13:00:00	2	Temperatura media	22.7
117914	7	Sololá	713	San Lucas Tolimán	10	San Lucas Tolimán	4	Abril	2023-04-13T00:00:00	2024-11-08T13:00:00	4	Temperatura máxima	23.5
117915	7	Sololá	713	San Lucas Tolimán	10	San Lucas Tolimán	4	Abril	2023-04-13T00:00:00	2024-11-08T13:00:00	3	Temperatura mínima	22.6
117916	7	Sololá	713	San Lucas Tolimán	10	San Lucas Tolimán	4	Abril	2023-04-13T00:00:00	2024-11-08T13:00:00	5	Humedad	55
117917	7	Sololá	713	San Lucas Tolimán	10	San Lucas Tolimán	4	Abril	2023-04-13T00:00:00	2024-11-08T13:00:00	6	Velocidad del viento	9.7
117918	7	Sololá	713	San Lucas Tolimán	10	San Lucas Tolimán	4	Abril	2023-04-13T00:00:00	2024-11-08T13:00:00	7	Dirección del viento	9.66
117919	7	Sololá	713	San Lucas Tolimán	10	San Lucas Tolimán	4	Abril	2023-04-13T00:00:00	2024-11-08T13:00:00	1	Precipitación	0
117920	7	Sololá	713	San Lucas Tolimán	10	San Lucas Tolimán	4	Abril	2023-04-13T00:00:00	2024-11-08T13:00:00	8	Radiación solar	1038
117921	7	Sololá	713	San Lucas Tolimán	10	San Lucas Tolimán	4	Abril	2023-04-13T00:00:00	2024-11-08T14:00:00	2	Temperatura media	21.8
117922	7	Sololá	713	San Lucas Tolimán	10	San Lucas Tolimán	4	Abril	2023-04-13T00:00:00	2024-11-08T14:00:00	4	Temperatura máxima	23.3
117923	7	Sololá	713	San Lucas Tolimán	10	San Lucas Tolimán	4	Abril	2023-04-13T00:00:00	2024-11-08T14:00:00	3	Temperatura mínima	21.3
117924	7	Sololá	713	San Lucas Tolimán	10	San Lucas Tolimán	4	Abril	2023-04-13T00:00:00	2024-11-08T14:00:00	5	Humedad	59
117925	7	Sololá	713	San Lucas Tolimán	10	San Lucas Tolimán	4	Abril	2023-04-13T00:00:00	2024-11-08T14:00:00	6	Velocidad del viento	9.7
117926	7	Sololá	713	San Lucas Tolimán	10	San Lucas Tolimán	4	Abril	2023-04-13T00:00:00	2024-11-08T14:00:00	7	Dirección del viento	9.66
117927	7	Sololá	713	San Lucas Tolimán	10	San Lucas Tolimán	4	Abril	2023-04-13T00:00:00	2024-11-08T14:00:00	1	Precipitación	0
117928	7	Sololá	713	San Lucas Tolimán	10	San Lucas Tolimán	4	Abril	2023-04-13T00:00:00	2024-11-08T14:00:00	8	Radiación solar	542
117929	7	Sololá	713	San Lucas Tolimán	10	San Lucas Tolimán	4	Abril	2023-04-13T00:00:00	2024-11-08T15:00:00	2	Temperatura media	21.6
117930	7	Sololá	713	San Lucas Tolimán	10	San Lucas Tolimán	4	Abril	2023-04-13T00:00:00	2024-11-08T15:00:00	4	Temperatura máxima	22.3
117931	7	Sololá	713	San Lucas Tolimán	10	San Lucas Tolimán	4	Abril	2023-04-13T00:00:00	2024-11-08T15:00:00	3	Temperatura mínima	21.6
117932	7	Sololá	713	San Lucas Tolimán	10	San Lucas Tolimán	4	Abril	2023-04-13T00:00:00	2024-11-08T15:00:00	5	Humedad	56
117933	7	Sololá	713	San Lucas Tolimán	10	San Lucas Tolimán	4	Abril	2023-04-13T00:00:00	2024-11-08T15:00:00	6	Velocidad del viento	11.3
117934	7	Sololá	713	San Lucas Tolimán	10	San Lucas Tolimán	4	Abril	2023-04-13T00:00:00	2024-11-08T15:00:00	7	Dirección del viento	11.27
117935	7	Sololá	713	San Lucas Tolimán	10	San Lucas Tolimán	4	Abril	2023-04-13T00:00:00	2024-11-08T15:00:00	1	Precipitación	0
117936	7	Sololá	713	San Lucas Tolimán	10	San Lucas Tolimán	4	Abril	2023-04-13T00:00:00	2024-11-08T15:00:00	8	Radiación solar	522
117937	7	Sololá	713	San Lucas Tolimán	10	San Lucas Tolimán	4	Abril	2023-04-13T00:00:00	2024-11-08T16:00:00	2	Temperatura media	20.7
117938	7	Sololá	713	San Lucas Tolimán	10	San Lucas Tolimán	4	Abril	2023-04-13T00:00:00	2024-11-08T16:00:00	4	Temperatura máxima	21.7
117939	7	Sololá	713	San Lucas Tolimán	10	San Lucas Tolimán	4	Abril	2023-04-13T00:00:00	2024-11-08T16:00:00	3	Temperatura mínima	20.6
117940	7	Sololá	713	San Lucas Tolimán	10	San Lucas Tolimán	4	Abril	2023-04-13T00:00:00	2024-11-08T16:00:00	5	Humedad	62
117941	7	Sololá	713	San Lucas Tolimán	10	San Lucas Tolimán	4	Abril	2023-04-13T00:00:00	2024-11-08T16:00:00	6	Velocidad del viento	11.3
117942	7	Sololá	713	San Lucas Tolimán	10	San Lucas Tolimán	4	Abril	2023-04-13T00:00:00	2024-11-08T16:00:00	7	Dirección del viento	11.27
117943	7	Sololá	713	San Lucas Tolimán	10	San Lucas Tolimán	4	Abril	2023-04-13T00:00:00	2024-11-08T16:00:00	1	Precipitación	0
117944	7	Sololá	713	San Lucas Tolimán	10	San Lucas Tolimán	4	Abril	2023-04-13T00:00:00	2024-11-08T16:00:00	8	Radiación solar	214
117945	7	Sololá	713	San Lucas Tolimán	10	San Lucas Tolimán	4	Abril	2023-04-13T00:00:00	2024-11-08T17:00:00	2	Temperatura media	19.2
117946	7	Sololá	713	San Lucas Tolimán	10	San Lucas Tolimán	4	Abril	2023-04-13T00:00:00	2024-11-08T17:00:00	4	Temperatura máxima	20.7
117947	7	Sololá	713	San Lucas Tolimán	10	San Lucas Tolimán	4	Abril	2023-04-13T00:00:00	2024-11-08T17:00:00	3	Temperatura mínima	19.1
117948	7	Sololá	713	San Lucas Tolimán	10	San Lucas Tolimán	4	Abril	2023-04-13T00:00:00	2024-11-08T17:00:00	5	Humedad	62
117949	7	Sololá	713	San Lucas Tolimán	10	San Lucas Tolimán	4	Abril	2023-04-13T00:00:00	2024-11-08T17:00:00	6	Velocidad del viento	8
117950	7	Sololá	713	San Lucas Tolimán	10	San Lucas Tolimán	4	Abril	2023-04-13T00:00:00	2024-11-08T17:00:00	7	Dirección del viento	8.05
117951	7	Sololá	713	San Lucas Tolimán	10	San Lucas Tolimán	4	Abril	2023-04-13T00:00:00	2024-11-08T17:00:00	1	Precipitación	0
117952	7	Sololá	713	San Lucas Tolimán	10	San Lucas Tolimán	4	Abril	2023-04-13T00:00:00	2024-11-08T17:00:00	8	Radiación solar	110
117953	7	Sololá	713	San Lucas Tolimán	10	San Lucas Tolimán	4	Abril	2023-04-13T00:00:00	2024-11-08T18:00:00	2	Temperatura media	18.5
117954	7	Sololá	713	San Lucas Tolimán	10	San Lucas Tolimán	4	Abril	2023-04-13T00:00:00	2024-11-08T18:00:00	4	Temperatura máxima	19.4
117955	7	Sololá	713	San Lucas Tolimán	10	San Lucas Tolimán	4	Abril	2023-04-13T00:00:00	2024-11-08T18:00:00	3	Temperatura mínima	18.4
117956	7	Sololá	713	San Lucas Tolimán	10	San Lucas Tolimán	4	Abril	2023-04-13T00:00:00	2024-11-08T18:00:00	5	Humedad	63
117957	7	Sololá	713	San Lucas Tolimán	10	San Lucas Tolimán	4	Abril	2023-04-13T00:00:00	2024-11-08T18:00:00	6	Velocidad del viento	6.4
117958	7	Sololá	713	San Lucas Tolimán	10	San Lucas Tolimán	4	Abril	2023-04-13T00:00:00	2024-11-08T18:00:00	7	Dirección del viento	6.44
117959	7	Sololá	713	San Lucas Tolimán	10	San Lucas Tolimán	4	Abril	2023-04-13T00:00:00	2024-11-08T18:00:00	1	Precipitación	0
117960	7	Sololá	713	San Lucas Tolimán	10	San Lucas Tolimán	4	Abril	2023-04-13T00:00:00	2024-11-08T18:00:00	8	Radiación solar	49
117961	7	Sololá	713	San Lucas Tolimán	10	San Lucas Tolimán	4	Abril	2023-04-13T00:00:00	2024-11-08T19:00:00	2	Temperatura media	18.4
117962	7	Sololá	713	San Lucas Tolimán	10	San Lucas Tolimán	4	Abril	2023-04-13T00:00:00	2024-11-08T19:00:00	4	Temperatura máxima	18.6
117963	7	Sololá	713	San Lucas Tolimán	10	San Lucas Tolimán	4	Abril	2023-04-13T00:00:00	2024-11-08T19:00:00	3	Temperatura mínima	18.3
117964	7	Sololá	713	San Lucas Tolimán	10	San Lucas Tolimán	4	Abril	2023-04-13T00:00:00	2024-11-08T19:00:00	5	Humedad	63
117965	7	Sololá	713	San Lucas Tolimán	10	San Lucas Tolimán	4	Abril	2023-04-13T00:00:00	2024-11-08T19:00:00	6	Velocidad del viento	6.4
117966	7	Sololá	713	San Lucas Tolimán	10	San Lucas Tolimán	4	Abril	2023-04-13T00:00:00	2024-11-08T19:00:00	7	Dirección del viento	6.44
117967	7	Sololá	713	San Lucas Tolimán	10	San Lucas Tolimán	4	Abril	2023-04-13T00:00:00	2024-11-08T19:00:00	1	Precipitación	0
117968	7	Sololá	713	San Lucas Tolimán	10	San Lucas Tolimán	4	Abril	2023-04-13T00:00:00	2024-11-08T19:00:00	8	Radiación solar	0
117969	7	Sololá	713	San Lucas Tolimán	10	San Lucas Tolimán	4	Abril	2023-04-13T00:00:00	2024-11-08T20:00:00	2	Temperatura media	18.3
117970	7	Sololá	713	San Lucas Tolimán	10	San Lucas Tolimán	4	Abril	2023-04-13T00:00:00	2024-11-08T20:00:00	4	Temperatura máxima	18.4
117971	7	Sololá	713	San Lucas Tolimán	10	San Lucas Tolimán	4	Abril	2023-04-13T00:00:00	2024-11-08T20:00:00	3	Temperatura mínima	18.3
117972	7	Sololá	713	San Lucas Tolimán	10	San Lucas Tolimán	4	Abril	2023-04-13T00:00:00	2024-11-08T20:00:00	5	Humedad	63
117973	7	Sololá	713	San Lucas Tolimán	10	San Lucas Tolimán	4	Abril	2023-04-13T00:00:00	2024-11-08T20:00:00	6	Velocidad del viento	4.8
117974	7	Sololá	713	San Lucas Tolimán	10	San Lucas Tolimán	4	Abril	2023-04-13T00:00:00	2024-11-08T20:00:00	7	Dirección del viento	4.83
117975	7	Sololá	713	San Lucas Tolimán	10	San Lucas Tolimán	4	Abril	2023-04-13T00:00:00	2024-11-08T20:00:00	1	Precipitación	0
117976	7	Sololá	713	San Lucas Tolimán	10	San Lucas Tolimán	4	Abril	2023-04-13T00:00:00	2024-11-08T20:00:00	8	Radiación solar	0
117977	7	Sololá	713	San Lucas Tolimán	10	San Lucas Tolimán	4	Abril	2023-04-13T00:00:00	2024-11-08T21:00:00	2	Temperatura media	18.2
117978	7	Sololá	713	San Lucas Tolimán	10	San Lucas Tolimán	4	Abril	2023-04-13T00:00:00	2024-11-08T21:00:00	4	Temperatura máxima	18.4
117979	7	Sololá	713	San Lucas Tolimán	10	San Lucas Tolimán	4	Abril	2023-04-13T00:00:00	2024-11-08T21:00:00	3	Temperatura mínima	18.2
117980	7	Sololá	713	San Lucas Tolimán	10	San Lucas Tolimán	4	Abril	2023-04-13T00:00:00	2024-11-08T21:00:00	5	Humedad	62
117981	7	Sololá	713	San Lucas Tolimán	10	San Lucas Tolimán	4	Abril	2023-04-13T00:00:00	2024-11-08T21:00:00	6	Velocidad del viento	3.2
117982	7	Sololá	713	San Lucas Tolimán	10	San Lucas Tolimán	4	Abril	2023-04-13T00:00:00	2024-11-08T21:00:00	7	Dirección del viento	3.22
117983	7	Sololá	713	San Lucas Tolimán	10	San Lucas Tolimán	4	Abril	2023-04-13T00:00:00	2024-11-08T21:00:00	1	Precipitación	0
117984	7	Sololá	713	San Lucas Tolimán	10	San Lucas Tolimán	4	Abril	2023-04-13T00:00:00	2024-11-08T21:00:00	8	Radiación solar	0
117985	7	Sololá	713	San Lucas Tolimán	10	San Lucas Tolimán	4	Abril	2023-04-13T00:00:00	2024-11-08T22:00:00	2	Temperatura media	17.8
117986	7	Sololá	713	San Lucas Tolimán	10	San Lucas Tolimán	4	Abril	2023-04-13T00:00:00	2024-11-08T22:00:00	4	Temperatura máxima	18.2
117987	7	Sololá	713	San Lucas Tolimán	10	San Lucas Tolimán	4	Abril	2023-04-13T00:00:00	2024-11-08T22:00:00	3	Temperatura mínima	17.8
117988	7	Sololá	713	San Lucas Tolimán	10	San Lucas Tolimán	4	Abril	2023-04-13T00:00:00	2024-11-08T22:00:00	5	Humedad	63
117989	7	Sololá	713	San Lucas Tolimán	10	San Lucas Tolimán	4	Abril	2023-04-13T00:00:00	2024-11-08T22:00:00	6	Velocidad del viento	3.2
117990	7	Sololá	713	San Lucas Tolimán	10	San Lucas Tolimán	4	Abril	2023-04-13T00:00:00	2024-11-08T22:00:00	7	Dirección del viento	3.22
117991	7	Sololá	713	San Lucas Tolimán	10	San Lucas Tolimán	4	Abril	2023-04-13T00:00:00	2024-11-08T22:00:00	1	Precipitación	0
117992	7	Sololá	713	San Lucas Tolimán	10	San Lucas Tolimán	4	Abril	2023-04-13T00:00:00	2024-11-08T22:00:00	8	Radiación solar	0
117993	7	Sololá	713	San Lucas Tolimán	10	San Lucas Tolimán	4	Abril	2023-04-13T00:00:00	2024-11-08T23:00:00	2	Temperatura media	17.3
117994	7	Sololá	713	San Lucas Tolimán	10	San Lucas Tolimán	4	Abril	2023-04-13T00:00:00	2024-11-08T23:00:00	4	Temperatura máxima	17.9
117995	7	Sololá	713	San Lucas Tolimán	10	San Lucas Tolimán	4	Abril	2023-04-13T00:00:00	2024-11-08T23:00:00	3	Temperatura mínima	17.2
117996	7	Sololá	713	San Lucas Tolimán	10	San Lucas Tolimán	4	Abril	2023-04-13T00:00:00	2024-11-08T23:00:00	5	Humedad	61
117997	7	Sololá	713	San Lucas Tolimán	10	San Lucas Tolimán	4	Abril	2023-04-13T00:00:00	2024-11-08T23:00:00	6	Velocidad del viento	1.6
117998	7	Sololá	713	San Lucas Tolimán	10	San Lucas Tolimán	4	Abril	2023-04-13T00:00:00	2024-11-08T23:00:00	7	Dirección del viento	1.61
117999	7	Sololá	713	San Lucas Tolimán	10	San Lucas Tolimán	4	Abril	2023-04-13T00:00:00	2024-11-08T23:00:00	1	Precipitación	0
118000	7	Sololá	713	San Lucas Tolimán	10	San Lucas Tolimán	4	Abril	2023-04-13T00:00:00	2024-11-08T23:00:00	8	Radiación solar	0
118001	7	Sololá	713	San Lucas Tolimán	10	San Lucas Tolimán	4	Abril	2023-04-14T00:00:00	2024-11-08T00:00:00	2	Temperatura media	16.8
118002	7	Sololá	713	San Lucas Tolimán	10	San Lucas Tolimán	4	Abril	2023-04-14T00:00:00	2024-11-08T00:00:00	4	Temperatura máxima	17.3
118003	7	Sololá	713	San Lucas Tolimán	10	San Lucas Tolimán	4	Abril	2023-04-14T00:00:00	2024-11-08T00:00:00	3	Temperatura mínima	16.7
118004	7	Sololá	713	San Lucas Tolimán	10	San Lucas Tolimán	4	Abril	2023-04-14T00:00:00	2024-11-08T00:00:00	5	Humedad	61
118005	7	Sololá	713	San Lucas Tolimán	10	San Lucas Tolimán	4	Abril	2023-04-14T00:00:00	2024-11-08T00:00:00	6	Velocidad del viento	1.6
118006	7	Sololá	713	San Lucas Tolimán	10	San Lucas Tolimán	4	Abril	2023-04-14T00:00:00	2024-11-08T00:00:00	7	Dirección del viento	1.61
118007	7	Sololá	713	San Lucas Tolimán	10	San Lucas Tolimán	4	Abril	2023-04-14T00:00:00	2024-11-08T00:00:00	1	Precipitación	0
118008	7	Sololá	713	San Lucas Tolimán	10	San Lucas Tolimán	4	Abril	2023-04-14T00:00:00	2024-11-08T00:00:00	8	Radiación solar	0
118009	7	Sololá	713	San Lucas Tolimán	10	San Lucas Tolimán	4	Abril	2023-04-14T00:00:00	2024-11-08T01:00:00	2	Temperatura media	16.3
118010	7	Sololá	713	San Lucas Tolimán	10	San Lucas Tolimán	4	Abril	2023-04-14T00:00:00	2024-11-08T01:00:00	4	Temperatura máxima	16.8
118011	7	Sololá	713	San Lucas Tolimán	10	San Lucas Tolimán	4	Abril	2023-04-14T00:00:00	2024-11-08T01:00:00	3	Temperatura mínima	16.2
118012	7	Sololá	713	San Lucas Tolimán	10	San Lucas Tolimán	4	Abril	2023-04-14T00:00:00	2024-11-08T01:00:00	5	Humedad	61
118013	7	Sololá	713	San Lucas Tolimán	10	San Lucas Tolimán	4	Abril	2023-04-14T00:00:00	2024-11-08T01:00:00	6	Velocidad del viento	0
118014	7	Sololá	713	San Lucas Tolimán	10	San Lucas Tolimán	4	Abril	2023-04-14T00:00:00	2024-11-08T01:00:00	7	Dirección del viento	0
118015	7	Sololá	713	San Lucas Tolimán	10	San Lucas Tolimán	4	Abril	2023-04-14T00:00:00	2024-11-08T01:00:00	1	Precipitación	0
118016	7	Sololá	713	San Lucas Tolimán	10	San Lucas Tolimán	4	Abril	2023-04-14T00:00:00	2024-11-08T01:00:00	8	Radiación solar	0
118017	7	Sololá	713	San Lucas Tolimán	10	San Lucas Tolimán	4	Abril	2023-04-14T00:00:00	2024-11-08T02:00:00	2	Temperatura media	15.3
118018	7	Sololá	713	San Lucas Tolimán	10	San Lucas Tolimán	4	Abril	2023-04-14T00:00:00	2024-11-08T02:00:00	4	Temperatura máxima	16.3
118019	7	Sololá	713	San Lucas Tolimán	10	San Lucas Tolimán	4	Abril	2023-04-14T00:00:00	2024-11-08T02:00:00	3	Temperatura mínima	15.3
118020	7	Sololá	713	San Lucas Tolimán	10	San Lucas Tolimán	4	Abril	2023-04-14T00:00:00	2024-11-08T02:00:00	5	Humedad	61
118021	7	Sololá	713	San Lucas Tolimán	10	San Lucas Tolimán	4	Abril	2023-04-14T00:00:00	2024-11-08T02:00:00	6	Velocidad del viento	1.6
118022	7	Sololá	713	San Lucas Tolimán	10	San Lucas Tolimán	4	Abril	2023-04-14T00:00:00	2024-11-08T02:00:00	7	Dirección del viento	1.61
118023	7	Sololá	713	San Lucas Tolimán	10	San Lucas Tolimán	4	Abril	2023-04-14T00:00:00	2024-11-08T02:00:00	1	Precipitación	0
118024	7	Sololá	713	San Lucas Tolimán	10	San Lucas Tolimán	4	Abril	2023-04-14T00:00:00	2024-11-08T02:00:00	8	Radiación solar	0
118025	7	Sololá	713	San Lucas Tolimán	10	San Lucas Tolimán	4	Abril	2023-04-14T00:00:00	2024-11-08T03:00:00	2	Temperatura media	16.4
118026	7	Sololá	713	San Lucas Tolimán	10	San Lucas Tolimán	4	Abril	2023-04-14T00:00:00	2024-11-08T03:00:00	4	Temperatura máxima	16.4
118027	7	Sololá	713	San Lucas Tolimán	10	San Lucas Tolimán	4	Abril	2023-04-14T00:00:00	2024-11-08T03:00:00	3	Temperatura mínima	15.2
118028	7	Sololá	713	San Lucas Tolimán	10	San Lucas Tolimán	4	Abril	2023-04-14T00:00:00	2024-11-08T03:00:00	5	Humedad	58
118029	7	Sololá	713	San Lucas Tolimán	10	San Lucas Tolimán	4	Abril	2023-04-14T00:00:00	2024-11-08T03:00:00	6	Velocidad del viento	1.6
118030	7	Sololá	713	San Lucas Tolimán	10	San Lucas Tolimán	4	Abril	2023-04-14T00:00:00	2024-11-08T03:00:00	7	Dirección del viento	1.61
118031	7	Sololá	713	San Lucas Tolimán	10	San Lucas Tolimán	4	Abril	2023-04-14T00:00:00	2024-11-08T03:00:00	1	Precipitación	0
118032	7	Sololá	713	San Lucas Tolimán	10	San Lucas Tolimán	4	Abril	2023-04-14T00:00:00	2024-11-08T03:00:00	8	Radiación solar	0
118033	7	Sololá	713	San Lucas Tolimán	10	San Lucas Tolimán	4	Abril	2023-04-14T00:00:00	2024-11-08T04:00:00	2	Temperatura media	16.1
118034	7	Sololá	713	San Lucas Tolimán	10	San Lucas Tolimán	4	Abril	2023-04-14T00:00:00	2024-11-08T04:00:00	4	Temperatura máxima	16.5
118035	7	Sololá	713	San Lucas Tolimán	10	San Lucas Tolimán	4	Abril	2023-04-14T00:00:00	2024-11-08T04:00:00	3	Temperatura mínima	15.8
118036	7	Sololá	713	San Lucas Tolimán	10	San Lucas Tolimán	4	Abril	2023-04-14T00:00:00	2024-11-08T04:00:00	5	Humedad	58
118037	7	Sololá	713	San Lucas Tolimán	10	San Lucas Tolimán	4	Abril	2023-04-14T00:00:00	2024-11-08T04:00:00	6	Velocidad del viento	3.2
118038	7	Sololá	713	San Lucas Tolimán	10	San Lucas Tolimán	4	Abril	2023-04-14T00:00:00	2024-11-08T04:00:00	7	Dirección del viento	3.22
118039	7	Sololá	713	San Lucas Tolimán	10	San Lucas Tolimán	4	Abril	2023-04-14T00:00:00	2024-11-08T04:00:00	1	Precipitación	0
118040	7	Sololá	713	San Lucas Tolimán	10	San Lucas Tolimán	4	Abril	2023-04-14T00:00:00	2024-11-08T04:00:00	8	Radiación solar	0
118041	7	Sololá	713	San Lucas Tolimán	10	San Lucas Tolimán	4	Abril	2023-04-14T00:00:00	2024-11-08T05:00:00	2	Temperatura media	16.1
118042	7	Sololá	713	San Lucas Tolimán	10	San Lucas Tolimán	4	Abril	2023-04-14T00:00:00	2024-11-08T05:00:00	4	Temperatura máxima	16.2
118043	7	Sololá	713	San Lucas Tolimán	10	San Lucas Tolimán	4	Abril	2023-04-14T00:00:00	2024-11-08T05:00:00	3	Temperatura mínima	15.8
118044	7	Sololá	713	San Lucas Tolimán	10	San Lucas Tolimán	4	Abril	2023-04-14T00:00:00	2024-11-08T05:00:00	5	Humedad	58
118045	7	Sololá	713	San Lucas Tolimán	10	San Lucas Tolimán	4	Abril	2023-04-14T00:00:00	2024-11-08T05:00:00	6	Velocidad del viento	1.6
118046	7	Sololá	713	San Lucas Tolimán	10	San Lucas Tolimán	4	Abril	2023-04-14T00:00:00	2024-11-08T05:00:00	7	Dirección del viento	1.61
118047	7	Sololá	713	San Lucas Tolimán	10	San Lucas Tolimán	4	Abril	2023-04-14T00:00:00	2024-11-08T05:00:00	1	Precipitación	0
118048	7	Sololá	713	San Lucas Tolimán	10	San Lucas Tolimán	4	Abril	2023-04-14T00:00:00	2024-11-08T05:00:00	8	Radiación solar	0
118049	7	Sololá	713	San Lucas Tolimán	10	San Lucas Tolimán	4	Abril	2023-04-14T00:00:00	2024-11-08T06:00:00	2	Temperatura media	15.8
118050	7	Sololá	713	San Lucas Tolimán	10	San Lucas Tolimán	4	Abril	2023-04-14T00:00:00	2024-11-08T06:00:00	4	Temperatura máxima	16.2
118051	7	Sololá	713	San Lucas Tolimán	10	San Lucas Tolimán	4	Abril	2023-04-14T00:00:00	2024-11-08T06:00:00	3	Temperatura mínima	15.4
118052	7	Sololá	713	San Lucas Tolimán	10	San Lucas Tolimán	4	Abril	2023-04-14T00:00:00	2024-11-08T06:00:00	5	Humedad	57
118053	7	Sololá	713	San Lucas Tolimán	10	San Lucas Tolimán	4	Abril	2023-04-14T00:00:00	2024-11-08T06:00:00	6	Velocidad del viento	1.6
118054	7	Sololá	713	San Lucas Tolimán	10	San Lucas Tolimán	4	Abril	2023-04-14T00:00:00	2024-11-08T06:00:00	7	Dirección del viento	1.61
118055	7	Sololá	713	San Lucas Tolimán	10	San Lucas Tolimán	4	Abril	2023-04-14T00:00:00	2024-11-08T06:00:00	1	Precipitación	0
118056	7	Sololá	713	San Lucas Tolimán	10	San Lucas Tolimán	4	Abril	2023-04-14T00:00:00	2024-11-08T06:00:00	8	Radiación solar	0
118057	7	Sololá	713	San Lucas Tolimán	10	San Lucas Tolimán	4	Abril	2023-04-14T00:00:00	2024-11-08T07:00:00	2	Temperatura media	16.7
118058	7	Sololá	713	San Lucas Tolimán	10	San Lucas Tolimán	4	Abril	2023-04-14T00:00:00	2024-11-08T07:00:00	4	Temperatura máxima	16.7
118059	7	Sololá	713	San Lucas Tolimán	10	San Lucas Tolimán	4	Abril	2023-04-14T00:00:00	2024-11-08T07:00:00	3	Temperatura mínima	15.3
118060	7	Sololá	713	San Lucas Tolimán	10	San Lucas Tolimán	4	Abril	2023-04-14T00:00:00	2024-11-08T07:00:00	5	Humedad	56
118061	7	Sololá	713	San Lucas Tolimán	10	San Lucas Tolimán	4	Abril	2023-04-14T00:00:00	2024-11-08T07:00:00	6	Velocidad del viento	1.6
118062	7	Sololá	713	San Lucas Tolimán	10	San Lucas Tolimán	4	Abril	2023-04-14T00:00:00	2024-11-08T07:00:00	7	Dirección del viento	1.61
118063	7	Sololá	713	San Lucas Tolimán	10	San Lucas Tolimán	4	Abril	2023-04-14T00:00:00	2024-11-08T07:00:00	1	Precipitación	0
118064	7	Sololá	713	San Lucas Tolimán	10	San Lucas Tolimán	4	Abril	2023-04-14T00:00:00	2024-11-08T07:00:00	8	Radiación solar	45
118065	7	Sololá	713	San Lucas Tolimán	10	San Lucas Tolimán	4	Abril	2023-04-14T00:00:00	2024-11-08T08:00:00	2	Temperatura media	19.2
118066	7	Sololá	713	San Lucas Tolimán	10	San Lucas Tolimán	4	Abril	2023-04-14T00:00:00	2024-11-08T08:00:00	4	Temperatura máxima	19.2
118067	7	Sololá	713	San Lucas Tolimán	10	San Lucas Tolimán	4	Abril	2023-04-14T00:00:00	2024-11-08T08:00:00	3	Temperatura mínima	16.7
118068	7	Sololá	713	San Lucas Tolimán	10	San Lucas Tolimán	4	Abril	2023-04-14T00:00:00	2024-11-08T08:00:00	5	Humedad	54
118069	7	Sololá	713	San Lucas Tolimán	10	San Lucas Tolimán	4	Abril	2023-04-14T00:00:00	2024-11-08T08:00:00	6	Velocidad del viento	4.8
118070	7	Sololá	713	San Lucas Tolimán	10	San Lucas Tolimán	4	Abril	2023-04-14T00:00:00	2024-11-08T08:00:00	7	Dirección del viento	4.83
118071	7	Sololá	713	San Lucas Tolimán	10	San Lucas Tolimán	4	Abril	2023-04-14T00:00:00	2024-11-08T08:00:00	1	Precipitación	0
118072	7	Sololá	713	San Lucas Tolimán	10	San Lucas Tolimán	4	Abril	2023-04-14T00:00:00	2024-11-08T08:00:00	8	Radiación solar	253
118073	7	Sololá	713	San Lucas Tolimán	10	San Lucas Tolimán	4	Abril	2023-04-14T00:00:00	2024-11-08T09:00:00	2	Temperatura media	22.4
118074	7	Sololá	713	San Lucas Tolimán	10	San Lucas Tolimán	4	Abril	2023-04-14T00:00:00	2024-11-08T09:00:00	4	Temperatura máxima	22.4
118075	7	Sololá	713	San Lucas Tolimán	10	San Lucas Tolimán	4	Abril	2023-04-14T00:00:00	2024-11-08T09:00:00	3	Temperatura mínima	19.2
118076	7	Sololá	713	San Lucas Tolimán	10	San Lucas Tolimán	4	Abril	2023-04-14T00:00:00	2024-11-08T09:00:00	5	Humedad	43
118077	7	Sololá	713	San Lucas Tolimán	10	San Lucas Tolimán	4	Abril	2023-04-14T00:00:00	2024-11-08T09:00:00	6	Velocidad del viento	3.2
118078	7	Sololá	713	San Lucas Tolimán	10	San Lucas Tolimán	4	Abril	2023-04-14T00:00:00	2024-11-08T09:00:00	7	Dirección del viento	3.22
118079	7	Sololá	713	San Lucas Tolimán	10	San Lucas Tolimán	4	Abril	2023-04-14T00:00:00	2024-11-08T09:00:00	1	Precipitación	0
118080	7	Sololá	713	San Lucas Tolimán	10	San Lucas Tolimán	4	Abril	2023-04-14T00:00:00	2024-11-08T09:00:00	8	Radiación solar	469
118081	7	Sololá	713	San Lucas Tolimán	10	San Lucas Tolimán	4	Abril	2023-04-14T00:00:00	2024-11-08T10:00:00	2	Temperatura media	23.8
118082	7	Sololá	713	San Lucas Tolimán	10	San Lucas Tolimán	4	Abril	2023-04-14T00:00:00	2024-11-08T10:00:00	4	Temperatura máxima	23.8
118083	7	Sololá	713	San Lucas Tolimán	10	San Lucas Tolimán	4	Abril	2023-04-14T00:00:00	2024-11-08T10:00:00	3	Temperatura mínima	22.4
118084	7	Sololá	713	San Lucas Tolimán	10	San Lucas Tolimán	4	Abril	2023-04-14T00:00:00	2024-11-08T10:00:00	5	Humedad	42
118085	7	Sololá	713	San Lucas Tolimán	10	San Lucas Tolimán	4	Abril	2023-04-14T00:00:00	2024-11-08T10:00:00	6	Velocidad del viento	6.4
118086	7	Sololá	713	San Lucas Tolimán	10	San Lucas Tolimán	4	Abril	2023-04-14T00:00:00	2024-11-08T10:00:00	7	Dirección del viento	6.44
118087	7	Sololá	713	San Lucas Tolimán	10	San Lucas Tolimán	4	Abril	2023-04-14T00:00:00	2024-11-08T10:00:00	1	Precipitación	0
118088	7	Sololá	713	San Lucas Tolimán	10	San Lucas Tolimán	4	Abril	2023-04-14T00:00:00	2024-11-08T10:00:00	8	Radiación solar	769
118089	7	Sololá	713	San Lucas Tolimán	10	San Lucas Tolimán	4	Abril	2023-04-14T00:00:00	2024-11-08T11:00:00	2	Temperatura media	23.4
118090	7	Sololá	713	San Lucas Tolimán	10	San Lucas Tolimán	4	Abril	2023-04-14T00:00:00	2024-11-08T11:00:00	4	Temperatura máxima	24.7
118091	7	Sololá	713	San Lucas Tolimán	10	San Lucas Tolimán	4	Abril	2023-04-14T00:00:00	2024-11-08T11:00:00	3	Temperatura mínima	23.2
118092	7	Sololá	713	San Lucas Tolimán	10	San Lucas Tolimán	4	Abril	2023-04-14T00:00:00	2024-11-08T11:00:00	5	Humedad	46
118093	7	Sololá	713	San Lucas Tolimán	10	San Lucas Tolimán	4	Abril	2023-04-14T00:00:00	2024-11-08T11:00:00	6	Velocidad del viento	9.7
118094	7	Sololá	713	San Lucas Tolimán	10	San Lucas Tolimán	4	Abril	2023-04-14T00:00:00	2024-11-08T11:00:00	7	Dirección del viento	9.66
118095	7	Sololá	713	San Lucas Tolimán	10	San Lucas Tolimán	4	Abril	2023-04-14T00:00:00	2024-11-08T11:00:00	1	Precipitación	0
118096	7	Sololá	713	San Lucas Tolimán	10	San Lucas Tolimán	4	Abril	2023-04-14T00:00:00	2024-11-08T11:00:00	8	Radiación solar	965
118097	7	Sololá	713	San Lucas Tolimán	10	San Lucas Tolimán	4	Abril	2023-04-14T00:00:00	2024-11-08T12:00:00	2	Temperatura media	23.8
118098	7	Sololá	713	San Lucas Tolimán	10	San Lucas Tolimán	4	Abril	2023-04-14T00:00:00	2024-11-08T12:00:00	4	Temperatura máxima	24.4
118099	7	Sololá	713	San Lucas Tolimán	10	San Lucas Tolimán	4	Abril	2023-04-14T00:00:00	2024-11-08T12:00:00	3	Temperatura mínima	23.4
118100	7	Sololá	713	San Lucas Tolimán	10	San Lucas Tolimán	4	Abril	2023-04-14T00:00:00	2024-11-08T12:00:00	5	Humedad	47
118101	7	Sololá	713	San Lucas Tolimán	10	San Lucas Tolimán	4	Abril	2023-04-14T00:00:00	2024-11-08T12:00:00	6	Velocidad del viento	11.3
118102	7	Sololá	713	San Lucas Tolimán	10	San Lucas Tolimán	4	Abril	2023-04-14T00:00:00	2024-11-08T12:00:00	7	Dirección del viento	11.27
118103	7	Sololá	713	San Lucas Tolimán	10	San Lucas Tolimán	4	Abril	2023-04-14T00:00:00	2024-11-08T12:00:00	1	Precipitación	0
118104	7	Sololá	713	San Lucas Tolimán	10	San Lucas Tolimán	4	Abril	2023-04-14T00:00:00	2024-11-08T12:00:00	8	Radiación solar	1052
118105	7	Sololá	713	San Lucas Tolimán	10	San Lucas Tolimán	4	Abril	2023-04-14T00:00:00	2024-11-08T13:00:00	2	Temperatura media	23.8
118106	7	Sololá	713	San Lucas Tolimán	10	San Lucas Tolimán	4	Abril	2023-04-14T00:00:00	2024-11-08T13:00:00	4	Temperatura máxima	24.2
118107	7	Sololá	713	San Lucas Tolimán	10	San Lucas Tolimán	4	Abril	2023-04-14T00:00:00	2024-11-08T13:00:00	3	Temperatura mínima	23.4
118108	7	Sololá	713	San Lucas Tolimán	10	San Lucas Tolimán	4	Abril	2023-04-14T00:00:00	2024-11-08T13:00:00	5	Humedad	50
118109	7	Sololá	713	San Lucas Tolimán	10	San Lucas Tolimán	4	Abril	2023-04-14T00:00:00	2024-11-08T13:00:00	6	Velocidad del viento	14.5
118110	7	Sololá	713	San Lucas Tolimán	10	San Lucas Tolimán	4	Abril	2023-04-14T00:00:00	2024-11-08T13:00:00	7	Dirección del viento	14.48
118111	7	Sololá	713	San Lucas Tolimán	10	San Lucas Tolimán	4	Abril	2023-04-14T00:00:00	2024-11-08T13:00:00	1	Precipitación	0
118112	7	Sololá	713	San Lucas Tolimán	10	San Lucas Tolimán	4	Abril	2023-04-14T00:00:00	2024-11-08T13:00:00	8	Radiación solar	1061
118113	7	Sololá	713	San Lucas Tolimán	10	San Lucas Tolimán	4	Abril	2023-04-14T00:00:00	2024-11-08T14:00:00	2	Temperatura media	23.4
118114	7	Sololá	713	San Lucas Tolimán	10	San Lucas Tolimán	4	Abril	2023-04-14T00:00:00	2024-11-08T14:00:00	4	Temperatura máxima	24
118115	7	Sololá	713	San Lucas Tolimán	10	San Lucas Tolimán	4	Abril	2023-04-14T00:00:00	2024-11-08T14:00:00	3	Temperatura mínima	23
118116	7	Sololá	713	San Lucas Tolimán	10	San Lucas Tolimán	4	Abril	2023-04-14T00:00:00	2024-11-08T14:00:00	5	Humedad	52
118117	7	Sololá	713	San Lucas Tolimán	10	San Lucas Tolimán	4	Abril	2023-04-14T00:00:00	2024-11-08T14:00:00	6	Velocidad del viento	12.9
118118	7	Sololá	713	San Lucas Tolimán	10	San Lucas Tolimán	4	Abril	2023-04-14T00:00:00	2024-11-08T14:00:00	7	Dirección del viento	12.87
118119	7	Sololá	713	San Lucas Tolimán	10	San Lucas Tolimán	4	Abril	2023-04-14T00:00:00	2024-11-08T14:00:00	1	Precipitación	0
118120	7	Sololá	713	San Lucas Tolimán	10	San Lucas Tolimán	4	Abril	2023-04-14T00:00:00	2024-11-08T14:00:00	8	Radiación solar	984
118121	7	Sololá	713	San Lucas Tolimán	10	San Lucas Tolimán	4	Abril	2023-04-14T00:00:00	2024-11-08T15:00:00	2	Temperatura media	23.8
118122	7	Sololá	713	San Lucas Tolimán	10	San Lucas Tolimán	4	Abril	2023-04-14T00:00:00	2024-11-08T15:00:00	4	Temperatura máxima	24.3
118123	7	Sololá	713	San Lucas Tolimán	10	San Lucas Tolimán	4	Abril	2023-04-14T00:00:00	2024-11-08T15:00:00	3	Temperatura mínima	23.4
118124	7	Sololá	713	San Lucas Tolimán	10	San Lucas Tolimán	4	Abril	2023-04-14T00:00:00	2024-11-08T15:00:00	5	Humedad	52
118125	7	Sololá	713	San Lucas Tolimán	10	San Lucas Tolimán	4	Abril	2023-04-14T00:00:00	2024-11-08T15:00:00	6	Velocidad del viento	11.3
118126	7	Sololá	713	San Lucas Tolimán	10	San Lucas Tolimán	4	Abril	2023-04-14T00:00:00	2024-11-08T15:00:00	7	Dirección del viento	11.27
118127	7	Sololá	713	San Lucas Tolimán	10	San Lucas Tolimán	4	Abril	2023-04-14T00:00:00	2024-11-08T15:00:00	1	Precipitación	0
118128	7	Sololá	713	San Lucas Tolimán	10	San Lucas Tolimán	4	Abril	2023-04-14T00:00:00	2024-11-08T15:00:00	8	Radiación solar	823
118129	7	Sololá	713	San Lucas Tolimán	10	San Lucas Tolimán	4	Abril	2023-04-14T00:00:00	2024-11-08T16:00:00	2	Temperatura media	22.9
118130	7	Sololá	713	San Lucas Tolimán	10	San Lucas Tolimán	4	Abril	2023-04-14T00:00:00	2024-11-08T16:00:00	4	Temperatura máxima	24.2
118131	7	Sololá	713	San Lucas Tolimán	10	San Lucas Tolimán	4	Abril	2023-04-14T00:00:00	2024-11-08T16:00:00	3	Temperatura mínima	22.7
118132	7	Sololá	713	San Lucas Tolimán	10	San Lucas Tolimán	4	Abril	2023-04-14T00:00:00	2024-11-08T16:00:00	5	Humedad	57
118133	7	Sololá	713	San Lucas Tolimán	10	San Lucas Tolimán	4	Abril	2023-04-14T00:00:00	2024-11-08T16:00:00	6	Velocidad del viento	11.3
118134	7	Sololá	713	San Lucas Tolimán	10	San Lucas Tolimán	4	Abril	2023-04-14T00:00:00	2024-11-08T16:00:00	7	Dirección del viento	11.27
118135	7	Sololá	713	San Lucas Tolimán	10	San Lucas Tolimán	4	Abril	2023-04-14T00:00:00	2024-11-08T16:00:00	1	Precipitación	0
118136	7	Sololá	713	San Lucas Tolimán	10	San Lucas Tolimán	4	Abril	2023-04-14T00:00:00	2024-11-08T16:00:00	8	Radiación solar	542
118137	7	Sololá	713	San Lucas Tolimán	10	San Lucas Tolimán	4	Abril	2023-04-14T00:00:00	2024-11-08T17:00:00	2	Temperatura media	21.3
118138	7	Sololá	713	San Lucas Tolimán	10	San Lucas Tolimán	4	Abril	2023-04-14T00:00:00	2024-11-08T17:00:00	4	Temperatura máxima	22.9
118139	7	Sololá	713	San Lucas Tolimán	10	San Lucas Tolimán	4	Abril	2023-04-14T00:00:00	2024-11-08T17:00:00	3	Temperatura mínima	21.3
118140	7	Sololá	713	San Lucas Tolimán	10	San Lucas Tolimán	4	Abril	2023-04-14T00:00:00	2024-11-08T17:00:00	5	Humedad	61
118141	7	Sololá	713	San Lucas Tolimán	10	San Lucas Tolimán	4	Abril	2023-04-14T00:00:00	2024-11-08T17:00:00	6	Velocidad del viento	9.7
118142	7	Sololá	713	San Lucas Tolimán	10	San Lucas Tolimán	4	Abril	2023-04-14T00:00:00	2024-11-08T17:00:00	7	Dirección del viento	9.66
118143	7	Sololá	713	San Lucas Tolimán	10	San Lucas Tolimán	4	Abril	2023-04-14T00:00:00	2024-11-08T17:00:00	1	Precipitación	0
118144	7	Sololá	713	San Lucas Tolimán	10	San Lucas Tolimán	4	Abril	2023-04-14T00:00:00	2024-11-08T17:00:00	8	Radiación solar	152
118145	7	Sololá	713	San Lucas Tolimán	10	San Lucas Tolimán	4	Abril	2023-04-14T00:00:00	2024-11-08T18:00:00	2	Temperatura media	20.3
118146	7	Sololá	713	San Lucas Tolimán	10	San Lucas Tolimán	4	Abril	2023-04-14T00:00:00	2024-11-08T18:00:00	4	Temperatura máxima	21.3
118147	7	Sololá	713	San Lucas Tolimán	10	San Lucas Tolimán	4	Abril	2023-04-14T00:00:00	2024-11-08T18:00:00	3	Temperatura mínima	20.3
118148	7	Sololá	713	San Lucas Tolimán	10	San Lucas Tolimán	4	Abril	2023-04-14T00:00:00	2024-11-08T18:00:00	5	Humedad	61
118149	7	Sololá	713	San Lucas Tolimán	10	San Lucas Tolimán	4	Abril	2023-04-14T00:00:00	2024-11-08T18:00:00	6	Velocidad del viento	6.4
118150	7	Sololá	713	San Lucas Tolimán	10	San Lucas Tolimán	4	Abril	2023-04-14T00:00:00	2024-11-08T18:00:00	7	Dirección del viento	6.44
118151	7	Sololá	713	San Lucas Tolimán	10	San Lucas Tolimán	4	Abril	2023-04-14T00:00:00	2024-11-08T18:00:00	1	Precipitación	0
118152	7	Sololá	713	San Lucas Tolimán	10	San Lucas Tolimán	4	Abril	2023-04-14T00:00:00	2024-11-08T18:00:00	8	Radiación solar	43
118153	7	Sololá	713	San Lucas Tolimán	10	San Lucas Tolimán	4	Abril	2023-04-14T00:00:00	2024-11-08T19:00:00	2	Temperatura media	19.4
118154	7	Sololá	713	San Lucas Tolimán	10	San Lucas Tolimán	4	Abril	2023-04-14T00:00:00	2024-11-08T19:00:00	4	Temperatura máxima	20.4
118155	7	Sololá	713	San Lucas Tolimán	10	San Lucas Tolimán	4	Abril	2023-04-14T00:00:00	2024-11-08T19:00:00	3	Temperatura mínima	19.4
118156	7	Sololá	713	San Lucas Tolimán	10	San Lucas Tolimán	4	Abril	2023-04-14T00:00:00	2024-11-08T19:00:00	5	Humedad	62
118157	7	Sololá	713	San Lucas Tolimán	10	San Lucas Tolimán	4	Abril	2023-04-14T00:00:00	2024-11-08T19:00:00	6	Velocidad del viento	4.8
118158	7	Sololá	713	San Lucas Tolimán	10	San Lucas Tolimán	4	Abril	2023-04-14T00:00:00	2024-11-08T19:00:00	7	Dirección del viento	4.83
118159	7	Sololá	713	San Lucas Tolimán	10	San Lucas Tolimán	4	Abril	2023-04-14T00:00:00	2024-11-08T19:00:00	1	Precipitación	0
118160	7	Sololá	713	San Lucas Tolimán	10	San Lucas Tolimán	4	Abril	2023-04-14T00:00:00	2024-11-08T19:00:00	8	Radiación solar	0
118161	7	Sololá	713	San Lucas Tolimán	10	San Lucas Tolimán	4	Abril	2023-04-14T00:00:00	2024-11-08T20:00:00	2	Temperatura media	19.2
118162	7	Sololá	713	San Lucas Tolimán	10	San Lucas Tolimán	4	Abril	2023-04-14T00:00:00	2024-11-08T20:00:00	4	Temperatura máxima	19.4
118163	7	Sololá	713	San Lucas Tolimán	10	San Lucas Tolimán	4	Abril	2023-04-14T00:00:00	2024-11-08T20:00:00	3	Temperatura mínima	19.1
118164	7	Sololá	713	San Lucas Tolimán	10	San Lucas Tolimán	4	Abril	2023-04-14T00:00:00	2024-11-08T20:00:00	5	Humedad	61
118165	7	Sololá	713	San Lucas Tolimán	10	San Lucas Tolimán	4	Abril	2023-04-14T00:00:00	2024-11-08T20:00:00	6	Velocidad del viento	4.8
118166	7	Sololá	713	San Lucas Tolimán	10	San Lucas Tolimán	4	Abril	2023-04-14T00:00:00	2024-11-08T20:00:00	7	Dirección del viento	4.83
118167	7	Sololá	713	San Lucas Tolimán	10	San Lucas Tolimán	4	Abril	2023-04-14T00:00:00	2024-11-08T20:00:00	1	Precipitación	0
118168	7	Sololá	713	San Lucas Tolimán	10	San Lucas Tolimán	4	Abril	2023-04-14T00:00:00	2024-11-08T20:00:00	8	Radiación solar	0
118169	7	Sololá	713	San Lucas Tolimán	10	San Lucas Tolimán	4	Abril	2023-04-14T00:00:00	2024-11-08T21:00:00	2	Temperatura media	19.1
118170	7	Sololá	713	San Lucas Tolimán	10	San Lucas Tolimán	4	Abril	2023-04-14T00:00:00	2024-11-08T21:00:00	4	Temperatura máxima	19.2
118171	7	Sololá	713	San Lucas Tolimán	10	San Lucas Tolimán	4	Abril	2023-04-14T00:00:00	2024-11-08T21:00:00	3	Temperatura mínima	18.8
118172	7	Sololá	713	San Lucas Tolimán	10	San Lucas Tolimán	4	Abril	2023-04-14T00:00:00	2024-11-08T21:00:00	5	Humedad	60
118173	7	Sololá	713	San Lucas Tolimán	10	San Lucas Tolimán	4	Abril	2023-04-14T00:00:00	2024-11-08T21:00:00	6	Velocidad del viento	3.2
118174	7	Sololá	713	San Lucas Tolimán	10	San Lucas Tolimán	4	Abril	2023-04-14T00:00:00	2024-11-08T21:00:00	7	Dirección del viento	3.22
118175	7	Sololá	713	San Lucas Tolimán	10	San Lucas Tolimán	4	Abril	2023-04-14T00:00:00	2024-11-08T21:00:00	1	Precipitación	0
118176	7	Sololá	713	San Lucas Tolimán	10	San Lucas Tolimán	4	Abril	2023-04-14T00:00:00	2024-11-08T21:00:00	8	Radiación solar	0
118177	7	Sololá	713	San Lucas Tolimán	10	San Lucas Tolimán	4	Abril	2023-04-14T00:00:00	2024-11-08T22:00:00	2	Temperatura media	17.9
118178	7	Sololá	713	San Lucas Tolimán	10	San Lucas Tolimán	4	Abril	2023-04-14T00:00:00	2024-11-08T22:00:00	4	Temperatura máxima	19.2
118179	7	Sololá	713	San Lucas Tolimán	10	San Lucas Tolimán	4	Abril	2023-04-14T00:00:00	2024-11-08T22:00:00	3	Temperatura mínima	17.9
118180	7	Sololá	713	San Lucas Tolimán	10	San Lucas Tolimán	4	Abril	2023-04-14T00:00:00	2024-11-08T22:00:00	5	Humedad	60
118181	7	Sololá	713	San Lucas Tolimán	10	San Lucas Tolimán	4	Abril	2023-04-14T00:00:00	2024-11-08T22:00:00	6	Velocidad del viento	3.2
118182	7	Sololá	713	San Lucas Tolimán	10	San Lucas Tolimán	4	Abril	2023-04-14T00:00:00	2024-11-08T22:00:00	7	Dirección del viento	3.22
118183	7	Sololá	713	San Lucas Tolimán	10	San Lucas Tolimán	4	Abril	2023-04-14T00:00:00	2024-11-08T22:00:00	1	Precipitación	0
118184	7	Sololá	713	San Lucas Tolimán	10	San Lucas Tolimán	4	Abril	2023-04-14T00:00:00	2024-11-08T22:00:00	8	Radiación solar	0
118185	7	Sololá	713	San Lucas Tolimán	10	San Lucas Tolimán	4	Abril	2023-04-14T00:00:00	2024-11-08T23:00:00	2	Temperatura media	18.6
118186	7	Sololá	713	San Lucas Tolimán	10	San Lucas Tolimán	4	Abril	2023-04-14T00:00:00	2024-11-08T23:00:00	4	Temperatura máxima	18.6
118187	7	Sololá	713	San Lucas Tolimán	10	San Lucas Tolimán	4	Abril	2023-04-14T00:00:00	2024-11-08T23:00:00	3	Temperatura mínima	17.9
118188	7	Sololá	713	San Lucas Tolimán	10	San Lucas Tolimán	4	Abril	2023-04-14T00:00:00	2024-11-08T23:00:00	5	Humedad	62
118189	7	Sololá	713	San Lucas Tolimán	10	San Lucas Tolimán	4	Abril	2023-04-14T00:00:00	2024-11-08T23:00:00	6	Velocidad del viento	4.8
118190	7	Sololá	713	San Lucas Tolimán	10	San Lucas Tolimán	4	Abril	2023-04-14T00:00:00	2024-11-08T23:00:00	7	Dirección del viento	4.83
118191	7	Sololá	713	San Lucas Tolimán	10	San Lucas Tolimán	4	Abril	2023-04-14T00:00:00	2024-11-08T23:00:00	1	Precipitación	0
118192	7	Sololá	713	San Lucas Tolimán	10	San Lucas Tolimán	4	Abril	2023-04-14T00:00:00	2024-11-08T23:00:00	8	Radiación solar	0
118193	7	Sololá	713	San Lucas Tolimán	10	San Lucas Tolimán	4	Abril	2023-04-15T00:00:00	2024-11-08T00:00:00	2	Temperatura media	18.4
118194	7	Sololá	713	San Lucas Tolimán	10	San Lucas Tolimán	4	Abril	2023-04-15T00:00:00	2024-11-08T00:00:00	4	Temperatura máxima	18.6
118195	7	Sololá	713	San Lucas Tolimán	10	San Lucas Tolimán	4	Abril	2023-04-15T00:00:00	2024-11-08T00:00:00	3	Temperatura mínima	18.4
118196	7	Sololá	713	San Lucas Tolimán	10	San Lucas Tolimán	4	Abril	2023-04-15T00:00:00	2024-11-08T00:00:00	5	Humedad	63
118197	7	Sololá	713	San Lucas Tolimán	10	San Lucas Tolimán	4	Abril	2023-04-15T00:00:00	2024-11-08T00:00:00	6	Velocidad del viento	4.8
118198	7	Sololá	713	San Lucas Tolimán	10	San Lucas Tolimán	4	Abril	2023-04-15T00:00:00	2024-11-08T00:00:00	7	Dirección del viento	4.83
118199	7	Sololá	713	San Lucas Tolimán	10	San Lucas Tolimán	4	Abril	2023-04-15T00:00:00	2024-11-08T00:00:00	1	Precipitación	0
118200	7	Sololá	713	San Lucas Tolimán	10	San Lucas Tolimán	4	Abril	2023-04-15T00:00:00	2024-11-08T00:00:00	8	Radiación solar	0
118201	7	Sololá	713	San Lucas Tolimán	10	San Lucas Tolimán	4	Abril	2023-04-15T00:00:00	2024-11-08T01:00:00	2	Temperatura media	18.2
118202	7	Sololá	713	San Lucas Tolimán	10	San Lucas Tolimán	4	Abril	2023-04-15T00:00:00	2024-11-08T01:00:00	4	Temperatura máxima	18.4
118203	7	Sololá	713	San Lucas Tolimán	10	San Lucas Tolimán	4	Abril	2023-04-15T00:00:00	2024-11-08T01:00:00	3	Temperatura mínima	17.9
118204	7	Sololá	713	San Lucas Tolimán	10	San Lucas Tolimán	4	Abril	2023-04-15T00:00:00	2024-11-08T01:00:00	5	Humedad	60
118205	7	Sololá	713	San Lucas Tolimán	10	San Lucas Tolimán	4	Abril	2023-04-15T00:00:00	2024-11-08T01:00:00	6	Velocidad del viento	6.4
118206	7	Sololá	713	San Lucas Tolimán	10	San Lucas Tolimán	4	Abril	2023-04-15T00:00:00	2024-11-08T01:00:00	7	Dirección del viento	6.44
118207	7	Sololá	713	San Lucas Tolimán	10	San Lucas Tolimán	4	Abril	2023-04-15T00:00:00	2024-11-08T01:00:00	1	Precipitación	0
118208	7	Sololá	713	San Lucas Tolimán	10	San Lucas Tolimán	4	Abril	2023-04-15T00:00:00	2024-11-08T01:00:00	8	Radiación solar	0
118209	7	Sololá	713	San Lucas Tolimán	10	San Lucas Tolimán	4	Abril	2023-04-15T00:00:00	2024-11-08T02:00:00	2	Temperatura media	17.8
118210	7	Sololá	713	San Lucas Tolimán	10	San Lucas Tolimán	4	Abril	2023-04-15T00:00:00	2024-11-08T02:00:00	4	Temperatura máxima	18.2
118211	7	Sololá	713	San Lucas Tolimán	10	San Lucas Tolimán	4	Abril	2023-04-15T00:00:00	2024-11-08T02:00:00	3	Temperatura mínima	17.8
118212	7	Sololá	713	San Lucas Tolimán	10	San Lucas Tolimán	4	Abril	2023-04-15T00:00:00	2024-11-08T02:00:00	5	Humedad	60
118213	7	Sololá	713	San Lucas Tolimán	10	San Lucas Tolimán	4	Abril	2023-04-15T00:00:00	2024-11-08T02:00:00	6	Velocidad del viento	3.2
118214	7	Sololá	713	San Lucas Tolimán	10	San Lucas Tolimán	4	Abril	2023-04-15T00:00:00	2024-11-08T02:00:00	7	Dirección del viento	3.22
118215	7	Sololá	713	San Lucas Tolimán	10	San Lucas Tolimán	4	Abril	2023-04-15T00:00:00	2024-11-08T02:00:00	1	Precipitación	0
118216	7	Sololá	713	San Lucas Tolimán	10	San Lucas Tolimán	4	Abril	2023-04-15T00:00:00	2024-11-08T02:00:00	8	Radiación solar	0
118217	7	Sololá	713	San Lucas Tolimán	10	San Lucas Tolimán	4	Abril	2023-04-15T00:00:00	2024-11-08T03:00:00	2	Temperatura media	16.8
118218	7	Sololá	713	San Lucas Tolimán	10	San Lucas Tolimán	4	Abril	2023-04-15T00:00:00	2024-11-08T03:00:00	4	Temperatura máxima	17.9
118219	7	Sololá	713	San Lucas Tolimán	10	San Lucas Tolimán	4	Abril	2023-04-15T00:00:00	2024-11-08T03:00:00	3	Temperatura mínima	16.8
118220	7	Sololá	713	San Lucas Tolimán	10	San Lucas Tolimán	4	Abril	2023-04-15T00:00:00	2024-11-08T03:00:00	5	Humedad	61
118221	7	Sololá	713	San Lucas Tolimán	10	San Lucas Tolimán	4	Abril	2023-04-15T00:00:00	2024-11-08T03:00:00	6	Velocidad del viento	1.6
118222	7	Sololá	713	San Lucas Tolimán	10	San Lucas Tolimán	4	Abril	2023-04-15T00:00:00	2024-11-08T03:00:00	7	Dirección del viento	1.61
118223	7	Sololá	713	San Lucas Tolimán	10	San Lucas Tolimán	4	Abril	2023-04-15T00:00:00	2024-11-08T03:00:00	1	Precipitación	0
118224	7	Sololá	713	San Lucas Tolimán	10	San Lucas Tolimán	4	Abril	2023-04-15T00:00:00	2024-11-08T03:00:00	8	Radiación solar	0
118225	7	Sololá	713	San Lucas Tolimán	10	San Lucas Tolimán	4	Abril	2023-04-15T00:00:00	2024-11-08T04:00:00	2	Temperatura media	16.1
118226	7	Sololá	713	San Lucas Tolimán	10	San Lucas Tolimán	4	Abril	2023-04-15T00:00:00	2024-11-08T04:00:00	4	Temperatura máxima	16.9
118227	7	Sololá	713	San Lucas Tolimán	10	San Lucas Tolimán	4	Abril	2023-04-15T00:00:00	2024-11-08T04:00:00	3	Temperatura mínima	16.1
118228	7	Sololá	713	San Lucas Tolimán	10	San Lucas Tolimán	4	Abril	2023-04-15T00:00:00	2024-11-08T04:00:00	5	Humedad	62
118229	7	Sololá	713	San Lucas Tolimán	10	San Lucas Tolimán	4	Abril	2023-04-15T00:00:00	2024-11-08T04:00:00	6	Velocidad del viento	1.6
118230	7	Sololá	713	San Lucas Tolimán	10	San Lucas Tolimán	4	Abril	2023-04-15T00:00:00	2024-11-08T04:00:00	7	Dirección del viento	1.61
118231	7	Sololá	713	San Lucas Tolimán	10	San Lucas Tolimán	4	Abril	2023-04-15T00:00:00	2024-11-08T04:00:00	1	Precipitación	0
118232	7	Sololá	713	San Lucas Tolimán	10	San Lucas Tolimán	4	Abril	2023-04-15T00:00:00	2024-11-08T04:00:00	8	Radiación solar	0
118233	7	Sololá	713	San Lucas Tolimán	10	San Lucas Tolimán	4	Abril	2023-04-15T00:00:00	2024-11-08T05:00:00	2	Temperatura media	16
118234	7	Sololá	713	San Lucas Tolimán	10	San Lucas Tolimán	4	Abril	2023-04-15T00:00:00	2024-11-08T05:00:00	4	Temperatura máxima	16.1
118235	7	Sololá	713	San Lucas Tolimán	10	San Lucas Tolimán	4	Abril	2023-04-15T00:00:00	2024-11-08T05:00:00	3	Temperatura mínima	15.9
118236	7	Sololá	713	San Lucas Tolimán	10	San Lucas Tolimán	4	Abril	2023-04-15T00:00:00	2024-11-08T05:00:00	5	Humedad	62
118237	7	Sololá	713	San Lucas Tolimán	10	San Lucas Tolimán	4	Abril	2023-04-15T00:00:00	2024-11-08T05:00:00	6	Velocidad del viento	0
118238	7	Sololá	713	San Lucas Tolimán	10	San Lucas Tolimán	4	Abril	2023-04-15T00:00:00	2024-11-08T05:00:00	7	Dirección del viento	0
118239	7	Sololá	713	San Lucas Tolimán	10	San Lucas Tolimán	4	Abril	2023-04-15T00:00:00	2024-11-08T05:00:00	1	Precipitación	0
118240	7	Sololá	713	San Lucas Tolimán	10	San Lucas Tolimán	4	Abril	2023-04-15T00:00:00	2024-11-08T05:00:00	8	Radiación solar	0
118241	7	Sololá	713	San Lucas Tolimán	10	San Lucas Tolimán	4	Abril	2023-04-15T00:00:00	2024-11-08T06:00:00	2	Temperatura media	15.8
118242	7	Sololá	713	San Lucas Tolimán	10	San Lucas Tolimán	4	Abril	2023-04-15T00:00:00	2024-11-08T06:00:00	4	Temperatura máxima	16.2
118243	7	Sololá	713	San Lucas Tolimán	10	San Lucas Tolimán	4	Abril	2023-04-15T00:00:00	2024-11-08T06:00:00	3	Temperatura mínima	15.8
118244	7	Sololá	713	San Lucas Tolimán	10	San Lucas Tolimán	4	Abril	2023-04-15T00:00:00	2024-11-08T06:00:00	5	Humedad	61
118245	7	Sololá	713	San Lucas Tolimán	10	San Lucas Tolimán	4	Abril	2023-04-15T00:00:00	2024-11-08T06:00:00	6	Velocidad del viento	0
118246	7	Sololá	713	San Lucas Tolimán	10	San Lucas Tolimán	4	Abril	2023-04-15T00:00:00	2024-11-08T06:00:00	7	Dirección del viento	0
118247	7	Sololá	713	San Lucas Tolimán	10	San Lucas Tolimán	4	Abril	2023-04-15T00:00:00	2024-11-08T06:00:00	1	Precipitación	0
118248	7	Sololá	713	San Lucas Tolimán	10	San Lucas Tolimán	4	Abril	2023-04-15T00:00:00	2024-11-08T06:00:00	8	Radiación solar	0
118249	7	Sololá	713	San Lucas Tolimán	10	San Lucas Tolimán	4	Abril	2023-04-15T00:00:00	2024-11-08T07:00:00	2	Temperatura media	16.6
118250	7	Sololá	713	San Lucas Tolimán	10	San Lucas Tolimán	4	Abril	2023-04-15T00:00:00	2024-11-08T07:00:00	4	Temperatura máxima	16.6
118251	7	Sololá	713	San Lucas Tolimán	10	San Lucas Tolimán	4	Abril	2023-04-15T00:00:00	2024-11-08T07:00:00	3	Temperatura mínima	15.5
118252	7	Sololá	713	San Lucas Tolimán	10	San Lucas Tolimán	4	Abril	2023-04-15T00:00:00	2024-11-08T07:00:00	5	Humedad	62
118253	7	Sololá	713	San Lucas Tolimán	10	San Lucas Tolimán	4	Abril	2023-04-15T00:00:00	2024-11-08T07:00:00	6	Velocidad del viento	0
118254	7	Sololá	713	San Lucas Tolimán	10	San Lucas Tolimán	4	Abril	2023-04-15T00:00:00	2024-11-08T07:00:00	7	Dirección del viento	0
118255	7	Sololá	713	San Lucas Tolimán	10	San Lucas Tolimán	4	Abril	2023-04-15T00:00:00	2024-11-08T07:00:00	1	Precipitación	0
118256	7	Sololá	713	San Lucas Tolimán	10	San Lucas Tolimán	4	Abril	2023-04-15T00:00:00	2024-11-08T07:00:00	8	Radiación solar	52
118257	7	Sololá	713	San Lucas Tolimán	10	San Lucas Tolimán	4	Abril	2023-04-15T00:00:00	2024-11-08T08:00:00	2	Temperatura media	19.7
118258	7	Sololá	713	San Lucas Tolimán	10	San Lucas Tolimán	4	Abril	2023-04-15T00:00:00	2024-11-08T08:00:00	4	Temperatura máxima	19.7
118259	7	Sololá	713	San Lucas Tolimán	10	San Lucas Tolimán	4	Abril	2023-04-15T00:00:00	2024-11-08T08:00:00	3	Temperatura mínima	16.7
118260	7	Sololá	713	San Lucas Tolimán	10	San Lucas Tolimán	4	Abril	2023-04-15T00:00:00	2024-11-08T08:00:00	5	Humedad	57
118261	7	Sololá	713	San Lucas Tolimán	10	San Lucas Tolimán	4	Abril	2023-04-15T00:00:00	2024-11-08T08:00:00	6	Velocidad del viento	1.6
118262	7	Sololá	713	San Lucas Tolimán	10	San Lucas Tolimán	4	Abril	2023-04-15T00:00:00	2024-11-08T08:00:00	7	Dirección del viento	1.61
118263	7	Sololá	713	San Lucas Tolimán	10	San Lucas Tolimán	4	Abril	2023-04-15T00:00:00	2024-11-08T08:00:00	1	Precipitación	0
118264	7	Sololá	713	San Lucas Tolimán	10	San Lucas Tolimán	4	Abril	2023-04-15T00:00:00	2024-11-08T08:00:00	8	Radiación solar	233
118265	7	Sololá	713	San Lucas Tolimán	10	San Lucas Tolimán	4	Abril	2023-04-15T00:00:00	2024-11-08T09:00:00	2	Temperatura media	21.4
118266	7	Sololá	713	San Lucas Tolimán	10	San Lucas Tolimán	4	Abril	2023-04-15T00:00:00	2024-11-08T09:00:00	4	Temperatura máxima	21.4
118267	7	Sololá	713	San Lucas Tolimán	10	San Lucas Tolimán	4	Abril	2023-04-15T00:00:00	2024-11-08T09:00:00	3	Temperatura mínima	19.7
118268	7	Sololá	713	San Lucas Tolimán	10	San Lucas Tolimán	4	Abril	2023-04-15T00:00:00	2024-11-08T09:00:00	5	Humedad	56
118269	7	Sololá	713	San Lucas Tolimán	10	San Lucas Tolimán	4	Abril	2023-04-15T00:00:00	2024-11-08T09:00:00	6	Velocidad del viento	6.4
118270	7	Sololá	713	San Lucas Tolimán	10	San Lucas Tolimán	4	Abril	2023-04-15T00:00:00	2024-11-08T09:00:00	7	Dirección del viento	6.44
118271	7	Sololá	713	San Lucas Tolimán	10	San Lucas Tolimán	4	Abril	2023-04-15T00:00:00	2024-11-08T09:00:00	1	Precipitación	0
118272	7	Sololá	713	San Lucas Tolimán	10	San Lucas Tolimán	4	Abril	2023-04-15T00:00:00	2024-11-08T09:00:00	8	Radiación solar	454
118273	7	Sololá	713	San Lucas Tolimán	10	San Lucas Tolimán	4	Abril	2023-04-15T00:00:00	2024-11-08T10:00:00	2	Temperatura media	22.9
118274	7	Sololá	713	San Lucas Tolimán	10	San Lucas Tolimán	4	Abril	2023-04-15T00:00:00	2024-11-08T10:00:00	4	Temperatura máxima	22.9
118275	7	Sololá	713	San Lucas Tolimán	10	San Lucas Tolimán	4	Abril	2023-04-15T00:00:00	2024-11-08T10:00:00	3	Temperatura mínima	21.4
118276	7	Sololá	713	San Lucas Tolimán	10	San Lucas Tolimán	4	Abril	2023-04-15T00:00:00	2024-11-08T10:00:00	5	Humedad	55
118277	7	Sololá	713	San Lucas Tolimán	10	San Lucas Tolimán	4	Abril	2023-04-15T00:00:00	2024-11-08T10:00:00	6	Velocidad del viento	4.8
118278	7	Sololá	713	San Lucas Tolimán	10	San Lucas Tolimán	4	Abril	2023-04-15T00:00:00	2024-11-08T10:00:00	7	Dirección del viento	4.83
118279	7	Sololá	713	San Lucas Tolimán	10	San Lucas Tolimán	4	Abril	2023-04-15T00:00:00	2024-11-08T10:00:00	1	Precipitación	0
118280	7	Sololá	713	San Lucas Tolimán	10	San Lucas Tolimán	4	Abril	2023-04-15T00:00:00	2024-11-08T10:00:00	8	Radiación solar	637
118281	7	Sololá	713	San Lucas Tolimán	10	San Lucas Tolimán	4	Abril	2023-04-15T00:00:00	2024-11-08T11:00:00	2	Temperatura media	23.1
118282	7	Sololá	713	San Lucas Tolimán	10	San Lucas Tolimán	4	Abril	2023-04-15T00:00:00	2024-11-08T11:00:00	4	Temperatura máxima	23.3
118283	7	Sololá	713	San Lucas Tolimán	10	San Lucas Tolimán	4	Abril	2023-04-15T00:00:00	2024-11-08T11:00:00	3	Temperatura mínima	22.4
118284	7	Sololá	713	San Lucas Tolimán	10	San Lucas Tolimán	4	Abril	2023-04-15T00:00:00	2024-11-08T11:00:00	5	Humedad	56
118285	7	Sololá	713	San Lucas Tolimán	10	San Lucas Tolimán	4	Abril	2023-04-15T00:00:00	2024-11-08T11:00:00	6	Velocidad del viento	11.3
118286	7	Sololá	713	San Lucas Tolimán	10	San Lucas Tolimán	4	Abril	2023-04-15T00:00:00	2024-11-08T11:00:00	7	Dirección del viento	11.27
118287	7	Sololá	713	San Lucas Tolimán	10	San Lucas Tolimán	4	Abril	2023-04-15T00:00:00	2024-11-08T11:00:00	1	Precipitación	0
118288	7	Sololá	713	San Lucas Tolimán	10	San Lucas Tolimán	4	Abril	2023-04-15T00:00:00	2024-11-08T11:00:00	8	Radiación solar	962
118289	7	Sololá	713	San Lucas Tolimán	10	San Lucas Tolimán	4	Abril	2023-04-15T00:00:00	2024-11-08T12:00:00	2	Temperatura media	22.8
118290	7	Sololá	713	San Lucas Tolimán	10	San Lucas Tolimán	4	Abril	2023-04-15T00:00:00	2024-11-08T12:00:00	4	Temperatura máxima	23.4
118291	7	Sololá	713	San Lucas Tolimán	10	San Lucas Tolimán	4	Abril	2023-04-15T00:00:00	2024-11-08T12:00:00	3	Temperatura mínima	22.4
118292	7	Sololá	713	San Lucas Tolimán	10	San Lucas Tolimán	4	Abril	2023-04-15T00:00:00	2024-11-08T12:00:00	5	Humedad	59
118293	7	Sololá	713	San Lucas Tolimán	10	San Lucas Tolimán	4	Abril	2023-04-15T00:00:00	2024-11-08T12:00:00	6	Velocidad del viento	9.7
118294	7	Sololá	713	San Lucas Tolimán	10	San Lucas Tolimán	4	Abril	2023-04-15T00:00:00	2024-11-08T12:00:00	7	Dirección del viento	9.66
118295	7	Sololá	713	San Lucas Tolimán	10	San Lucas Tolimán	4	Abril	2023-04-15T00:00:00	2024-11-08T12:00:00	1	Precipitación	0
118296	7	Sololá	713	San Lucas Tolimán	10	San Lucas Tolimán	4	Abril	2023-04-15T00:00:00	2024-11-08T12:00:00	8	Radiación solar	942
118297	7	Sololá	713	San Lucas Tolimán	10	San Lucas Tolimán	4	Abril	2023-04-15T00:00:00	2024-11-08T13:00:00	2	Temperatura media	23.6
118298	7	Sololá	713	San Lucas Tolimán	10	San Lucas Tolimán	4	Abril	2023-04-15T00:00:00	2024-11-08T13:00:00	4	Temperatura máxima	23.8
118299	7	Sololá	713	San Lucas Tolimán	10	San Lucas Tolimán	4	Abril	2023-04-15T00:00:00	2024-11-08T13:00:00	3	Temperatura mínima	22.8
118300	7	Sololá	713	San Lucas Tolimán	10	San Lucas Tolimán	4	Abril	2023-04-15T00:00:00	2024-11-08T13:00:00	5	Humedad	56
118301	7	Sololá	713	San Lucas Tolimán	10	San Lucas Tolimán	4	Abril	2023-04-15T00:00:00	2024-11-08T13:00:00	6	Velocidad del viento	9.7
118302	7	Sololá	713	San Lucas Tolimán	10	San Lucas Tolimán	4	Abril	2023-04-15T00:00:00	2024-11-08T13:00:00	7	Dirección del viento	9.66
118303	7	Sololá	713	San Lucas Tolimán	10	San Lucas Tolimán	4	Abril	2023-04-15T00:00:00	2024-11-08T13:00:00	1	Precipitación	0
118304	7	Sololá	713	San Lucas Tolimán	10	San Lucas Tolimán	4	Abril	2023-04-15T00:00:00	2024-11-08T13:00:00	8	Radiación solar	1026
118305	7	Sololá	713	San Lucas Tolimán	10	San Lucas Tolimán	4	Abril	2023-04-15T00:00:00	2024-11-08T14:00:00	2	Temperatura media	23.2
118306	7	Sololá	713	San Lucas Tolimán	10	San Lucas Tolimán	4	Abril	2023-04-15T00:00:00	2024-11-08T14:00:00	4	Temperatura máxima	24.2
118307	7	Sololá	713	San Lucas Tolimán	10	San Lucas Tolimán	4	Abril	2023-04-15T00:00:00	2024-11-08T14:00:00	3	Temperatura mínima	22.9
118308	7	Sololá	713	San Lucas Tolimán	10	San Lucas Tolimán	4	Abril	2023-04-15T00:00:00	2024-11-08T14:00:00	5	Humedad	58
118309	7	Sololá	713	San Lucas Tolimán	10	San Lucas Tolimán	4	Abril	2023-04-15T00:00:00	2024-11-08T14:00:00	6	Velocidad del viento	9.7
118310	7	Sololá	713	San Lucas Tolimán	10	San Lucas Tolimán	4	Abril	2023-04-15T00:00:00	2024-11-08T14:00:00	7	Dirección del viento	9.66
118311	7	Sololá	713	San Lucas Tolimán	10	San Lucas Tolimán	4	Abril	2023-04-15T00:00:00	2024-11-08T14:00:00	1	Precipitación	0
118312	7	Sololá	713	San Lucas Tolimán	10	San Lucas Tolimán	4	Abril	2023-04-15T00:00:00	2024-11-08T14:00:00	8	Radiación solar	969
118313	7	Sololá	713	San Lucas Tolimán	10	San Lucas Tolimán	4	Abril	2023-04-15T00:00:00	2024-11-08T15:00:00	2	Temperatura media	21.4
118314	7	Sololá	713	San Lucas Tolimán	10	San Lucas Tolimán	4	Abril	2023-04-15T00:00:00	2024-11-08T15:00:00	4	Temperatura máxima	23.4
118315	7	Sololá	713	San Lucas Tolimán	10	San Lucas Tolimán	4	Abril	2023-04-15T00:00:00	2024-11-08T15:00:00	3	Temperatura mínima	21.4
118316	7	Sololá	713	San Lucas Tolimán	10	San Lucas Tolimán	4	Abril	2023-04-15T00:00:00	2024-11-08T15:00:00	5	Humedad	62
118317	7	Sololá	713	San Lucas Tolimán	10	San Lucas Tolimán	4	Abril	2023-04-15T00:00:00	2024-11-08T15:00:00	6	Velocidad del viento	9.7
118318	7	Sololá	713	San Lucas Tolimán	10	San Lucas Tolimán	4	Abril	2023-04-15T00:00:00	2024-11-08T15:00:00	7	Dirección del viento	9.66
118319	7	Sololá	713	San Lucas Tolimán	10	San Lucas Tolimán	4	Abril	2023-04-15T00:00:00	2024-11-08T15:00:00	1	Precipitación	0
118320	7	Sololá	713	San Lucas Tolimán	10	San Lucas Tolimán	4	Abril	2023-04-15T00:00:00	2024-11-08T15:00:00	8	Radiación solar	420
118321	7	Sololá	713	San Lucas Tolimán	10	San Lucas Tolimán	4	Abril	2023-04-15T00:00:00	2024-11-08T16:00:00	2	Temperatura media	21.2
118322	7	Sololá	713	San Lucas Tolimán	10	San Lucas Tolimán	4	Abril	2023-04-15T00:00:00	2024-11-08T16:00:00	4	Temperatura máxima	21.9
118323	7	Sololá	713	San Lucas Tolimán	10	San Lucas Tolimán	4	Abril	2023-04-15T00:00:00	2024-11-08T16:00:00	3	Temperatura mínima	21
118324	7	Sololá	713	San Lucas Tolimán	10	San Lucas Tolimán	4	Abril	2023-04-15T00:00:00	2024-11-08T16:00:00	5	Humedad	62
118325	7	Sololá	713	San Lucas Tolimán	10	San Lucas Tolimán	4	Abril	2023-04-15T00:00:00	2024-11-08T16:00:00	6	Velocidad del viento	8
118326	7	Sololá	713	San Lucas Tolimán	10	San Lucas Tolimán	4	Abril	2023-04-15T00:00:00	2024-11-08T16:00:00	7	Dirección del viento	8.05
118327	7	Sololá	713	San Lucas Tolimán	10	San Lucas Tolimán	4	Abril	2023-04-15T00:00:00	2024-11-08T16:00:00	1	Precipitación	0
118328	7	Sololá	713	San Lucas Tolimán	10	San Lucas Tolimán	4	Abril	2023-04-15T00:00:00	2024-11-08T16:00:00	8	Radiación solar	244
118329	7	Sololá	713	San Lucas Tolimán	10	San Lucas Tolimán	4	Abril	2023-04-15T00:00:00	2024-11-08T17:00:00	2	Temperatura media	20.4
118330	7	Sololá	713	San Lucas Tolimán	10	San Lucas Tolimán	4	Abril	2023-04-15T00:00:00	2024-11-08T17:00:00	4	Temperatura máxima	21.5
118331	7	Sololá	713	San Lucas Tolimán	10	San Lucas Tolimán	4	Abril	2023-04-15T00:00:00	2024-11-08T17:00:00	3	Temperatura mínima	20.4
118332	7	Sololá	713	San Lucas Tolimán	10	San Lucas Tolimán	4	Abril	2023-04-15T00:00:00	2024-11-08T17:00:00	5	Humedad	63
118333	7	Sololá	713	San Lucas Tolimán	10	San Lucas Tolimán	4	Abril	2023-04-15T00:00:00	2024-11-08T17:00:00	6	Velocidad del viento	8
118334	7	Sololá	713	San Lucas Tolimán	10	San Lucas Tolimán	4	Abril	2023-04-15T00:00:00	2024-11-08T17:00:00	7	Dirección del viento	8.05
118335	7	Sololá	713	San Lucas Tolimán	10	San Lucas Tolimán	4	Abril	2023-04-15T00:00:00	2024-11-08T17:00:00	1	Precipitación	0
118336	7	Sololá	713	San Lucas Tolimán	10	San Lucas Tolimán	4	Abril	2023-04-15T00:00:00	2024-11-08T17:00:00	8	Radiación solar	161
118337	7	Sololá	713	San Lucas Tolimán	10	San Lucas Tolimán	4	Abril	2023-04-15T00:00:00	2024-11-08T18:00:00	2	Temperatura media	20.2
118338	7	Sololá	713	San Lucas Tolimán	10	San Lucas Tolimán	4	Abril	2023-04-15T00:00:00	2024-11-08T18:00:00	4	Temperatura máxima	20.4
118339	7	Sololá	713	San Lucas Tolimán	10	San Lucas Tolimán	4	Abril	2023-04-15T00:00:00	2024-11-08T18:00:00	3	Temperatura mínima	20.1
118340	7	Sololá	713	San Lucas Tolimán	10	San Lucas Tolimán	4	Abril	2023-04-15T00:00:00	2024-11-08T18:00:00	5	Humedad	61
118341	7	Sololá	713	San Lucas Tolimán	10	San Lucas Tolimán	4	Abril	2023-04-15T00:00:00	2024-11-08T18:00:00	6	Velocidad del viento	4.8
118342	7	Sololá	713	San Lucas Tolimán	10	San Lucas Tolimán	4	Abril	2023-04-15T00:00:00	2024-11-08T18:00:00	7	Dirección del viento	4.83
118343	7	Sololá	713	San Lucas Tolimán	10	San Lucas Tolimán	4	Abril	2023-04-15T00:00:00	2024-11-08T18:00:00	1	Precipitación	0
118344	7	Sololá	713	San Lucas Tolimán	10	San Lucas Tolimán	4	Abril	2023-04-15T00:00:00	2024-11-08T18:00:00	8	Radiación solar	17
118345	7	Sololá	713	San Lucas Tolimán	10	San Lucas Tolimán	4	Abril	2023-04-15T00:00:00	2024-11-08T19:00:00	2	Temperatura media	19.8
118346	7	Sololá	713	San Lucas Tolimán	10	San Lucas Tolimán	4	Abril	2023-04-15T00:00:00	2024-11-08T19:00:00	4	Temperatura máxima	20.2
118347	7	Sololá	713	San Lucas Tolimán	10	San Lucas Tolimán	4	Abril	2023-04-15T00:00:00	2024-11-08T19:00:00	3	Temperatura mínima	19.6
118348	7	Sololá	713	San Lucas Tolimán	10	San Lucas Tolimán	4	Abril	2023-04-15T00:00:00	2024-11-08T19:00:00	5	Humedad	60
118349	7	Sololá	713	San Lucas Tolimán	10	San Lucas Tolimán	4	Abril	2023-04-15T00:00:00	2024-11-08T19:00:00	6	Velocidad del viento	4.8
118350	7	Sololá	713	San Lucas Tolimán	10	San Lucas Tolimán	4	Abril	2023-04-15T00:00:00	2024-11-08T19:00:00	7	Dirección del viento	4.83
118351	7	Sololá	713	San Lucas Tolimán	10	San Lucas Tolimán	4	Abril	2023-04-15T00:00:00	2024-11-08T19:00:00	1	Precipitación	0
118352	7	Sololá	713	San Lucas Tolimán	10	San Lucas Tolimán	4	Abril	2023-04-15T00:00:00	2024-11-08T19:00:00	8	Radiación solar	0
118353	7	Sololá	713	San Lucas Tolimán	10	San Lucas Tolimán	4	Abril	2023-04-15T00:00:00	2024-11-08T20:00:00	2	Temperatura media	19.6
118354	7	Sololá	713	San Lucas Tolimán	10	San Lucas Tolimán	4	Abril	2023-04-15T00:00:00	2024-11-08T20:00:00	4	Temperatura máxima	20
118355	7	Sololá	713	San Lucas Tolimán	10	San Lucas Tolimán	4	Abril	2023-04-15T00:00:00	2024-11-08T20:00:00	3	Temperatura mínima	19.6
118356	7	Sololá	713	San Lucas Tolimán	10	San Lucas Tolimán	4	Abril	2023-04-15T00:00:00	2024-11-08T20:00:00	5	Humedad	61
118357	7	Sololá	713	San Lucas Tolimán	10	San Lucas Tolimán	4	Abril	2023-04-15T00:00:00	2024-11-08T20:00:00	6	Velocidad del viento	4.8
118358	7	Sololá	713	San Lucas Tolimán	10	San Lucas Tolimán	4	Abril	2023-04-15T00:00:00	2024-11-08T20:00:00	7	Dirección del viento	4.83
118359	7	Sololá	713	San Lucas Tolimán	10	San Lucas Tolimán	4	Abril	2023-04-15T00:00:00	2024-11-08T20:00:00	1	Precipitación	0
118360	7	Sololá	713	San Lucas Tolimán	10	San Lucas Tolimán	4	Abril	2023-04-15T00:00:00	2024-11-08T20:00:00	8	Radiación solar	0
118361	7	Sololá	713	San Lucas Tolimán	10	San Lucas Tolimán	4	Abril	2023-04-15T00:00:00	2024-11-08T21:00:00	2	Temperatura media	19.2
118362	7	Sololá	713	San Lucas Tolimán	10	San Lucas Tolimán	4	Abril	2023-04-15T00:00:00	2024-11-08T21:00:00	4	Temperatura máxima	19.6
118363	7	Sololá	713	San Lucas Tolimán	10	San Lucas Tolimán	4	Abril	2023-04-15T00:00:00	2024-11-08T21:00:00	3	Temperatura mínima	19.2
118364	7	Sololá	713	San Lucas Tolimán	10	San Lucas Tolimán	4	Abril	2023-04-15T00:00:00	2024-11-08T21:00:00	5	Humedad	62
118365	7	Sololá	713	San Lucas Tolimán	10	San Lucas Tolimán	4	Abril	2023-04-15T00:00:00	2024-11-08T21:00:00	6	Velocidad del viento	4.8
118366	7	Sololá	713	San Lucas Tolimán	10	San Lucas Tolimán	4	Abril	2023-04-15T00:00:00	2024-11-08T21:00:00	7	Dirección del viento	4.83
118367	7	Sololá	713	San Lucas Tolimán	10	San Lucas Tolimán	4	Abril	2023-04-15T00:00:00	2024-11-08T21:00:00	1	Precipitación	0
118368	7	Sololá	713	San Lucas Tolimán	10	San Lucas Tolimán	4	Abril	2023-04-15T00:00:00	2024-11-08T21:00:00	8	Radiación solar	0
118369	7	Sololá	713	San Lucas Tolimán	10	San Lucas Tolimán	4	Abril	2023-04-15T00:00:00	2024-11-08T22:00:00	2	Temperatura media	18.8
118370	7	Sololá	713	San Lucas Tolimán	10	San Lucas Tolimán	4	Abril	2023-04-15T00:00:00	2024-11-08T22:00:00	4	Temperatura máxima	19.2
118371	7	Sololá	713	San Lucas Tolimán	10	San Lucas Tolimán	4	Abril	2023-04-15T00:00:00	2024-11-08T22:00:00	3	Temperatura mínima	18.7
118372	7	Sololá	713	San Lucas Tolimán	10	San Lucas Tolimán	4	Abril	2023-04-15T00:00:00	2024-11-08T22:00:00	5	Humedad	61
118373	7	Sololá	713	San Lucas Tolimán	10	San Lucas Tolimán	4	Abril	2023-04-15T00:00:00	2024-11-08T22:00:00	6	Velocidad del viento	0
118374	7	Sololá	713	San Lucas Tolimán	10	San Lucas Tolimán	4	Abril	2023-04-15T00:00:00	2024-11-08T22:00:00	7	Dirección del viento	0
118375	7	Sololá	713	San Lucas Tolimán	10	San Lucas Tolimán	4	Abril	2023-04-15T00:00:00	2024-11-08T22:00:00	1	Precipitación	0
118376	7	Sololá	713	San Lucas Tolimán	10	San Lucas Tolimán	4	Abril	2023-04-15T00:00:00	2024-11-08T22:00:00	8	Radiación solar	0
118377	7	Sololá	713	San Lucas Tolimán	10	San Lucas Tolimán	4	Abril	2023-04-15T00:00:00	2024-11-08T23:00:00	2	Temperatura media	19.1
118378	7	Sololá	713	San Lucas Tolimán	10	San Lucas Tolimán	4	Abril	2023-04-15T00:00:00	2024-11-08T23:00:00	4	Temperatura máxima	19.1
118379	7	Sololá	713	San Lucas Tolimán	10	San Lucas Tolimán	4	Abril	2023-04-15T00:00:00	2024-11-08T23:00:00	3	Temperatura mínima	18.7
118380	7	Sololá	713	San Lucas Tolimán	10	San Lucas Tolimán	4	Abril	2023-04-15T00:00:00	2024-11-08T23:00:00	5	Humedad	59
118381	7	Sololá	713	San Lucas Tolimán	10	San Lucas Tolimán	4	Abril	2023-04-15T00:00:00	2024-11-08T23:00:00	6	Velocidad del viento	0
118382	7	Sololá	713	San Lucas Tolimán	10	San Lucas Tolimán	4	Abril	2023-04-15T00:00:00	2024-11-08T23:00:00	7	Dirección del viento	0
118383	7	Sololá	713	San Lucas Tolimán	10	San Lucas Tolimán	4	Abril	2023-04-15T00:00:00	2024-11-08T23:00:00	1	Precipitación	0
118384	7	Sololá	713	San Lucas Tolimán	10	San Lucas Tolimán	4	Abril	2023-04-15T00:00:00	2024-11-08T23:00:00	8	Radiación solar	0
118385	7	Sololá	713	San Lucas Tolimán	10	San Lucas Tolimán	4	Abril	2023-04-16T00:00:00	2024-11-08T00:00:00	2	Temperatura media	18.7
118386	7	Sololá	713	San Lucas Tolimán	10	San Lucas Tolimán	4	Abril	2023-04-16T00:00:00	2024-11-08T00:00:00	4	Temperatura máxima	19.1
118387	7	Sololá	713	San Lucas Tolimán	10	San Lucas Tolimán	4	Abril	2023-04-16T00:00:00	2024-11-08T00:00:00	3	Temperatura mínima	18.3
118388	7	Sololá	713	San Lucas Tolimán	10	San Lucas Tolimán	4	Abril	2023-04-16T00:00:00	2024-11-08T00:00:00	5	Humedad	60
118389	7	Sololá	713	San Lucas Tolimán	10	San Lucas Tolimán	4	Abril	2023-04-16T00:00:00	2024-11-08T00:00:00	6	Velocidad del viento	0
118390	7	Sololá	713	San Lucas Tolimán	10	San Lucas Tolimán	4	Abril	2023-04-16T00:00:00	2024-11-08T00:00:00	7	Dirección del viento	0
118391	7	Sololá	713	San Lucas Tolimán	10	San Lucas Tolimán	4	Abril	2023-04-16T00:00:00	2024-11-08T00:00:00	1	Precipitación	0
118392	7	Sololá	713	San Lucas Tolimán	10	San Lucas Tolimán	4	Abril	2023-04-16T00:00:00	2024-11-08T00:00:00	8	Radiación solar	0
118393	7	Sololá	713	San Lucas Tolimán	10	San Lucas Tolimán	4	Abril	2023-04-16T00:00:00	2024-11-08T01:00:00	2	Temperatura media	18.2
118394	7	Sololá	713	San Lucas Tolimán	10	San Lucas Tolimán	4	Abril	2023-04-16T00:00:00	2024-11-08T01:00:00	4	Temperatura máxima	18.7
118395	7	Sololá	713	San Lucas Tolimán	10	San Lucas Tolimán	4	Abril	2023-04-16T00:00:00	2024-11-08T01:00:00	3	Temperatura mínima	18.2
118396	7	Sololá	713	San Lucas Tolimán	10	San Lucas Tolimán	4	Abril	2023-04-16T00:00:00	2024-11-08T01:00:00	5	Humedad	61
118397	7	Sololá	713	San Lucas Tolimán	10	San Lucas Tolimán	4	Abril	2023-04-16T00:00:00	2024-11-08T01:00:00	6	Velocidad del viento	0
118398	7	Sololá	713	San Lucas Tolimán	10	San Lucas Tolimán	4	Abril	2023-04-16T00:00:00	2024-11-08T01:00:00	7	Dirección del viento	0
118399	7	Sololá	713	San Lucas Tolimán	10	San Lucas Tolimán	4	Abril	2023-04-16T00:00:00	2024-11-08T01:00:00	1	Precipitación	0
118400	7	Sololá	713	San Lucas Tolimán	10	San Lucas Tolimán	4	Abril	2023-04-16T00:00:00	2024-11-08T01:00:00	8	Radiación solar	0
118401	7	Sololá	713	San Lucas Tolimán	10	San Lucas Tolimán	4	Abril	2023-04-16T00:00:00	2024-11-08T02:00:00	2	Temperatura media	17.9
118402	7	Sololá	713	San Lucas Tolimán	10	San Lucas Tolimán	4	Abril	2023-04-16T00:00:00	2024-11-08T02:00:00	4	Temperatura máxima	18.2
118403	7	Sololá	713	San Lucas Tolimán	10	San Lucas Tolimán	4	Abril	2023-04-16T00:00:00	2024-11-08T02:00:00	3	Temperatura mínima	17.9
118404	7	Sololá	713	San Lucas Tolimán	10	San Lucas Tolimán	4	Abril	2023-04-16T00:00:00	2024-11-08T02:00:00	5	Humedad	62
118405	7	Sololá	713	San Lucas Tolimán	10	San Lucas Tolimán	4	Abril	2023-04-16T00:00:00	2024-11-08T02:00:00	6	Velocidad del viento	1.6
118406	7	Sololá	713	San Lucas Tolimán	10	San Lucas Tolimán	4	Abril	2023-04-16T00:00:00	2024-11-08T02:00:00	7	Dirección del viento	1.61
118407	7	Sololá	713	San Lucas Tolimán	10	San Lucas Tolimán	4	Abril	2023-04-16T00:00:00	2024-11-08T02:00:00	1	Precipitación	0
118408	7	Sololá	713	San Lucas Tolimán	10	San Lucas Tolimán	4	Abril	2023-04-16T00:00:00	2024-11-08T02:00:00	8	Radiación solar	0
118409	7	Sololá	713	San Lucas Tolimán	10	San Lucas Tolimán	4	Abril	2023-04-16T00:00:00	2024-11-08T03:00:00	2	Temperatura media	17.7
118410	7	Sololá	713	San Lucas Tolimán	10	San Lucas Tolimán	4	Abril	2023-04-16T00:00:00	2024-11-08T03:00:00	4	Temperatura máxima	17.9
118411	7	Sololá	713	San Lucas Tolimán	10	San Lucas Tolimán	4	Abril	2023-04-16T00:00:00	2024-11-08T03:00:00	3	Temperatura mínima	17.6
118412	7	Sololá	713	San Lucas Tolimán	10	San Lucas Tolimán	4	Abril	2023-04-16T00:00:00	2024-11-08T03:00:00	5	Humedad	63
118413	7	Sololá	713	San Lucas Tolimán	10	San Lucas Tolimán	4	Abril	2023-04-16T00:00:00	2024-11-08T03:00:00	6	Velocidad del viento	0
118414	7	Sololá	713	San Lucas Tolimán	10	San Lucas Tolimán	4	Abril	2023-04-16T00:00:00	2024-11-08T03:00:00	7	Dirección del viento	0
118415	7	Sololá	713	San Lucas Tolimán	10	San Lucas Tolimán	4	Abril	2023-04-16T00:00:00	2024-11-08T03:00:00	1	Precipitación	0
118416	7	Sololá	713	San Lucas Tolimán	10	San Lucas Tolimán	4	Abril	2023-04-16T00:00:00	2024-11-08T03:00:00	8	Radiación solar	0
118417	7	Sololá	713	San Lucas Tolimán	10	San Lucas Tolimán	4	Abril	2023-04-16T00:00:00	2024-11-08T04:00:00	2	Temperatura media	16.8
118418	7	Sololá	713	San Lucas Tolimán	10	San Lucas Tolimán	4	Abril	2023-04-16T00:00:00	2024-11-08T04:00:00	4	Temperatura máxima	17.9
118419	7	Sololá	713	San Lucas Tolimán	10	San Lucas Tolimán	4	Abril	2023-04-16T00:00:00	2024-11-08T04:00:00	3	Temperatura mínima	16.8
118420	7	Sololá	713	San Lucas Tolimán	10	San Lucas Tolimán	4	Abril	2023-04-16T00:00:00	2024-11-08T04:00:00	5	Humedad	62
118421	7	Sololá	713	San Lucas Tolimán	10	San Lucas Tolimán	4	Abril	2023-04-16T00:00:00	2024-11-08T04:00:00	6	Velocidad del viento	1.6
118422	7	Sololá	713	San Lucas Tolimán	10	San Lucas Tolimán	4	Abril	2023-04-16T00:00:00	2024-11-08T04:00:00	7	Dirección del viento	1.61
118423	7	Sololá	713	San Lucas Tolimán	10	San Lucas Tolimán	4	Abril	2023-04-16T00:00:00	2024-11-08T04:00:00	1	Precipitación	0
118424	7	Sololá	713	San Lucas Tolimán	10	San Lucas Tolimán	4	Abril	2023-04-16T00:00:00	2024-11-08T04:00:00	8	Radiación solar	0
118425	7	Sololá	713	San Lucas Tolimán	10	San Lucas Tolimán	4	Abril	2023-04-16T00:00:00	2024-11-08T05:00:00	2	Temperatura media	16.9
118426	7	Sololá	713	San Lucas Tolimán	10	San Lucas Tolimán	4	Abril	2023-04-16T00:00:00	2024-11-08T05:00:00	4	Temperatura máxima	17.1
118427	7	Sololá	713	San Lucas Tolimán	10	San Lucas Tolimán	4	Abril	2023-04-16T00:00:00	2024-11-08T05:00:00	3	Temperatura mínima	16.7
118428	7	Sololá	713	San Lucas Tolimán	10	San Lucas Tolimán	4	Abril	2023-04-16T00:00:00	2024-11-08T05:00:00	5	Humedad	63
118429	7	Sololá	713	San Lucas Tolimán	10	San Lucas Tolimán	4	Abril	2023-04-16T00:00:00	2024-11-08T05:00:00	6	Velocidad del viento	1.6
118430	7	Sololá	713	San Lucas Tolimán	10	San Lucas Tolimán	4	Abril	2023-04-16T00:00:00	2024-11-08T05:00:00	7	Dirección del viento	1.61
118431	7	Sololá	713	San Lucas Tolimán	10	San Lucas Tolimán	4	Abril	2023-04-16T00:00:00	2024-11-08T05:00:00	1	Precipitación	0
118432	7	Sololá	713	San Lucas Tolimán	10	San Lucas Tolimán	4	Abril	2023-04-16T00:00:00	2024-11-08T05:00:00	8	Radiación solar	0
118433	7	Sololá	713	San Lucas Tolimán	10	San Lucas Tolimán	4	Abril	2023-04-16T00:00:00	2024-11-08T06:00:00	2	Temperatura media	15.9
118434	7	Sololá	713	San Lucas Tolimán	10	San Lucas Tolimán	4	Abril	2023-04-16T00:00:00	2024-11-08T06:00:00	4	Temperatura máxima	16.9
118435	7	Sololá	713	San Lucas Tolimán	10	San Lucas Tolimán	4	Abril	2023-04-16T00:00:00	2024-11-08T06:00:00	3	Temperatura mínima	15.8
118436	7	Sololá	713	San Lucas Tolimán	10	San Lucas Tolimán	4	Abril	2023-04-16T00:00:00	2024-11-08T06:00:00	5	Humedad	63
118437	7	Sololá	713	San Lucas Tolimán	10	San Lucas Tolimán	4	Abril	2023-04-16T00:00:00	2024-11-08T06:00:00	6	Velocidad del viento	0
118438	7	Sololá	713	San Lucas Tolimán	10	San Lucas Tolimán	4	Abril	2023-04-16T00:00:00	2024-11-08T06:00:00	7	Dirección del viento	0
118439	7	Sololá	713	San Lucas Tolimán	10	San Lucas Tolimán	4	Abril	2023-04-16T00:00:00	2024-11-08T06:00:00	1	Precipitación	0
118440	7	Sololá	713	San Lucas Tolimán	10	San Lucas Tolimán	4	Abril	2023-04-16T00:00:00	2024-11-08T06:00:00	8	Radiación solar	1
118441	7	Sololá	713	San Lucas Tolimán	10	San Lucas Tolimán	4	Abril	2023-04-16T00:00:00	2024-11-08T07:00:00	2	Temperatura media	17.1
118442	7	Sololá	713	San Lucas Tolimán	10	San Lucas Tolimán	4	Abril	2023-04-16T00:00:00	2024-11-08T07:00:00	4	Temperatura máxima	17.1
118443	7	Sololá	713	San Lucas Tolimán	10	San Lucas Tolimán	4	Abril	2023-04-16T00:00:00	2024-11-08T07:00:00	3	Temperatura mínima	15.8
118444	7	Sololá	713	San Lucas Tolimán	10	San Lucas Tolimán	4	Abril	2023-04-16T00:00:00	2024-11-08T07:00:00	5	Humedad	61
118445	7	Sololá	713	San Lucas Tolimán	10	San Lucas Tolimán	4	Abril	2023-04-16T00:00:00	2024-11-08T07:00:00	6	Velocidad del viento	1.6
118446	7	Sololá	713	San Lucas Tolimán	10	San Lucas Tolimán	4	Abril	2023-04-16T00:00:00	2024-11-08T07:00:00	7	Dirección del viento	1.61
118447	7	Sololá	713	San Lucas Tolimán	10	San Lucas Tolimán	4	Abril	2023-04-16T00:00:00	2024-11-08T07:00:00	1	Precipitación	0
118448	7	Sololá	713	San Lucas Tolimán	10	San Lucas Tolimán	4	Abril	2023-04-16T00:00:00	2024-11-08T07:00:00	8	Radiación solar	57
118449	7	Sololá	713	San Lucas Tolimán	10	San Lucas Tolimán	4	Abril	2023-04-16T00:00:00	2024-11-08T08:00:00	2	Temperatura media	20.6
118450	7	Sololá	713	San Lucas Tolimán	10	San Lucas Tolimán	4	Abril	2023-04-16T00:00:00	2024-11-08T08:00:00	4	Temperatura máxima	20.6
118451	7	Sololá	713	San Lucas Tolimán	10	San Lucas Tolimán	4	Abril	2023-04-16T00:00:00	2024-11-08T08:00:00	3	Temperatura mínima	17.1
118452	7	Sololá	713	San Lucas Tolimán	10	San Lucas Tolimán	4	Abril	2023-04-16T00:00:00	2024-11-08T08:00:00	5	Humedad	55
118453	7	Sololá	713	San Lucas Tolimán	10	San Lucas Tolimán	4	Abril	2023-04-16T00:00:00	2024-11-08T08:00:00	6	Velocidad del viento	3.2
118454	7	Sololá	713	San Lucas Tolimán	10	San Lucas Tolimán	4	Abril	2023-04-16T00:00:00	2024-11-08T08:00:00	7	Dirección del viento	3.22
118455	7	Sololá	713	San Lucas Tolimán	10	San Lucas Tolimán	4	Abril	2023-04-16T00:00:00	2024-11-08T08:00:00	1	Precipitación	0
118456	7	Sololá	713	San Lucas Tolimán	10	San Lucas Tolimán	4	Abril	2023-04-16T00:00:00	2024-11-08T08:00:00	8	Radiación solar	234
118457	7	Sololá	713	San Lucas Tolimán	10	San Lucas Tolimán	4	Abril	2023-04-16T00:00:00	2024-11-08T09:00:00	2	Temperatura media	23.3
118458	7	Sololá	713	San Lucas Tolimán	10	San Lucas Tolimán	4	Abril	2023-04-16T00:00:00	2024-11-08T09:00:00	4	Temperatura máxima	23.3
118459	7	Sololá	713	San Lucas Tolimán	10	San Lucas Tolimán	4	Abril	2023-04-16T00:00:00	2024-11-08T09:00:00	3	Temperatura mínima	20.5
118460	7	Sololá	713	San Lucas Tolimán	10	San Lucas Tolimán	4	Abril	2023-04-16T00:00:00	2024-11-08T09:00:00	5	Humedad	54
118461	7	Sololá	713	San Lucas Tolimán	10	San Lucas Tolimán	4	Abril	2023-04-16T00:00:00	2024-11-08T09:00:00	6	Velocidad del viento	3.2
118462	7	Sololá	713	San Lucas Tolimán	10	San Lucas Tolimán	4	Abril	2023-04-16T00:00:00	2024-11-08T09:00:00	7	Dirección del viento	3.22
118463	7	Sololá	713	San Lucas Tolimán	10	San Lucas Tolimán	4	Abril	2023-04-16T00:00:00	2024-11-08T09:00:00	1	Precipitación	0
118464	7	Sololá	713	San Lucas Tolimán	10	San Lucas Tolimán	4	Abril	2023-04-16T00:00:00	2024-11-08T09:00:00	8	Radiación solar	442
118465	7	Sololá	713	San Lucas Tolimán	10	San Lucas Tolimán	4	Abril	2023-04-16T00:00:00	2024-11-08T10:00:00	2	Temperatura media	22.7
118466	7	Sololá	713	San Lucas Tolimán	10	San Lucas Tolimán	4	Abril	2023-04-16T00:00:00	2024-11-08T10:00:00	4	Temperatura máxima	23.7
118467	7	Sololá	713	San Lucas Tolimán	10	San Lucas Tolimán	4	Abril	2023-04-16T00:00:00	2024-11-08T10:00:00	3	Temperatura mínima	22.6
118468	7	Sololá	713	San Lucas Tolimán	10	San Lucas Tolimán	4	Abril	2023-04-16T00:00:00	2024-11-08T10:00:00	5	Humedad	58
118469	7	Sololá	713	San Lucas Tolimán	10	San Lucas Tolimán	4	Abril	2023-04-16T00:00:00	2024-11-08T10:00:00	6	Velocidad del viento	8
118470	7	Sololá	713	San Lucas Tolimán	10	San Lucas Tolimán	4	Abril	2023-04-16T00:00:00	2024-11-08T10:00:00	7	Dirección del viento	8.05
118471	7	Sololá	713	San Lucas Tolimán	10	San Lucas Tolimán	4	Abril	2023-04-16T00:00:00	2024-11-08T10:00:00	1	Precipitación	0
118472	7	Sololá	713	San Lucas Tolimán	10	San Lucas Tolimán	4	Abril	2023-04-16T00:00:00	2024-11-08T10:00:00	8	Radiación solar	719
118473	7	Sololá	713	San Lucas Tolimán	10	San Lucas Tolimán	4	Abril	2023-04-16T00:00:00	2024-11-08T11:00:00	2	Temperatura media	23.5
118474	7	Sololá	713	San Lucas Tolimán	10	San Lucas Tolimán	4	Abril	2023-04-16T00:00:00	2024-11-08T11:00:00	4	Temperatura máxima	24
118475	7	Sololá	713	San Lucas Tolimán	10	San Lucas Tolimán	4	Abril	2023-04-16T00:00:00	2024-11-08T11:00:00	3	Temperatura mínima	22.7
118476	7	Sololá	713	San Lucas Tolimán	10	San Lucas Tolimán	4	Abril	2023-04-16T00:00:00	2024-11-08T11:00:00	5	Humedad	56
118477	7	Sololá	713	San Lucas Tolimán	10	San Lucas Tolimán	4	Abril	2023-04-16T00:00:00	2024-11-08T11:00:00	6	Velocidad del viento	11.3
118478	7	Sololá	713	San Lucas Tolimán	10	San Lucas Tolimán	4	Abril	2023-04-16T00:00:00	2024-11-08T11:00:00	7	Dirección del viento	11.27
118479	7	Sololá	713	San Lucas Tolimán	10	San Lucas Tolimán	4	Abril	2023-04-16T00:00:00	2024-11-08T11:00:00	1	Precipitación	0
118480	7	Sololá	713	San Lucas Tolimán	10	San Lucas Tolimán	4	Abril	2023-04-16T00:00:00	2024-11-08T11:00:00	8	Radiación solar	923
118481	7	Sololá	713	San Lucas Tolimán	10	San Lucas Tolimán	4	Abril	2023-04-16T00:00:00	2024-11-08T12:00:00	2	Temperatura media	23.6
118482	7	Sololá	713	San Lucas Tolimán	10	San Lucas Tolimán	4	Abril	2023-04-16T00:00:00	2024-11-08T12:00:00	4	Temperatura máxima	23.8
118483	7	Sololá	713	San Lucas Tolimán	10	San Lucas Tolimán	4	Abril	2023-04-16T00:00:00	2024-11-08T12:00:00	3	Temperatura mínima	23.2
118484	7	Sololá	713	San Lucas Tolimán	10	San Lucas Tolimán	4	Abril	2023-04-16T00:00:00	2024-11-08T12:00:00	5	Humedad	54
118485	7	Sololá	713	San Lucas Tolimán	10	San Lucas Tolimán	4	Abril	2023-04-16T00:00:00	2024-11-08T12:00:00	6	Velocidad del viento	12.9
118486	7	Sololá	713	San Lucas Tolimán	10	San Lucas Tolimán	4	Abril	2023-04-16T00:00:00	2024-11-08T12:00:00	7	Dirección del viento	12.87
118487	7	Sololá	713	San Lucas Tolimán	10	San Lucas Tolimán	4	Abril	2023-04-16T00:00:00	2024-11-08T12:00:00	1	Precipitación	0
118488	7	Sololá	713	San Lucas Tolimán	10	San Lucas Tolimán	4	Abril	2023-04-16T00:00:00	2024-11-08T12:00:00	8	Radiación solar	1039
118489	7	Sololá	713	San Lucas Tolimán	10	San Lucas Tolimán	4	Abril	2023-04-16T00:00:00	2024-11-08T13:00:00	2	Temperatura media	24.3
118490	7	Sololá	713	San Lucas Tolimán	10	San Lucas Tolimán	4	Abril	2023-04-16T00:00:00	2024-11-08T13:00:00	4	Temperatura máxima	24.3
118491	7	Sololá	713	San Lucas Tolimán	10	San Lucas Tolimán	4	Abril	2023-04-16T00:00:00	2024-11-08T13:00:00	3	Temperatura mínima	23.5
118492	7	Sololá	713	San Lucas Tolimán	10	San Lucas Tolimán	4	Abril	2023-04-16T00:00:00	2024-11-08T13:00:00	5	Humedad	54
118493	7	Sololá	713	San Lucas Tolimán	10	San Lucas Tolimán	4	Abril	2023-04-16T00:00:00	2024-11-08T13:00:00	6	Velocidad del viento	12.9
118494	7	Sololá	713	San Lucas Tolimán	10	San Lucas Tolimán	4	Abril	2023-04-16T00:00:00	2024-11-08T13:00:00	7	Dirección del viento	12.87
118495	7	Sololá	713	San Lucas Tolimán	10	San Lucas Tolimán	4	Abril	2023-04-16T00:00:00	2024-11-08T13:00:00	1	Precipitación	0
118496	7	Sololá	713	San Lucas Tolimán	10	San Lucas Tolimán	4	Abril	2023-04-16T00:00:00	2024-11-08T13:00:00	8	Radiación solar	1056
118497	7	Sololá	713	San Lucas Tolimán	10	San Lucas Tolimán	4	Abril	2023-04-16T00:00:00	2024-11-08T14:00:00	2	Temperatura media	23.2
118498	7	Sololá	713	San Lucas Tolimán	10	San Lucas Tolimán	4	Abril	2023-04-16T00:00:00	2024-11-08T14:00:00	4	Temperatura máxima	24.7
118499	7	Sololá	713	San Lucas Tolimán	10	San Lucas Tolimán	4	Abril	2023-04-16T00:00:00	2024-11-08T14:00:00	3	Temperatura mínima	23.2
118500	7	Sololá	713	San Lucas Tolimán	10	San Lucas Tolimán	4	Abril	2023-04-16T00:00:00	2024-11-08T14:00:00	5	Humedad	57
118501	7	Sololá	713	San Lucas Tolimán	10	San Lucas Tolimán	4	Abril	2023-04-16T00:00:00	2024-11-08T14:00:00	6	Velocidad del viento	11.3
118502	7	Sololá	713	San Lucas Tolimán	10	San Lucas Tolimán	4	Abril	2023-04-16T00:00:00	2024-11-08T14:00:00	7	Dirección del viento	11.27
118503	7	Sololá	713	San Lucas Tolimán	10	San Lucas Tolimán	4	Abril	2023-04-16T00:00:00	2024-11-08T14:00:00	1	Precipitación	0
118504	7	Sololá	713	San Lucas Tolimán	10	San Lucas Tolimán	4	Abril	2023-04-16T00:00:00	2024-11-08T14:00:00	8	Radiación solar	886
118505	7	Sololá	713	San Lucas Tolimán	10	San Lucas Tolimán	4	Abril	2023-04-16T00:00:00	2024-11-08T15:00:00	2	Temperatura media	23.6
118506	7	Sololá	713	San Lucas Tolimán	10	San Lucas Tolimán	4	Abril	2023-04-16T00:00:00	2024-11-08T15:00:00	4	Temperatura máxima	23.8
118507	7	Sololá	713	San Lucas Tolimán	10	San Lucas Tolimán	4	Abril	2023-04-16T00:00:00	2024-11-08T15:00:00	3	Temperatura mínima	22.8
118508	7	Sololá	713	San Lucas Tolimán	10	San Lucas Tolimán	4	Abril	2023-04-16T00:00:00	2024-11-08T15:00:00	5	Humedad	55
118509	7	Sololá	713	San Lucas Tolimán	10	San Lucas Tolimán	4	Abril	2023-04-16T00:00:00	2024-11-08T15:00:00	6	Velocidad del viento	9.7
118510	7	Sololá	713	San Lucas Tolimán	10	San Lucas Tolimán	4	Abril	2023-04-16T00:00:00	2024-11-08T15:00:00	7	Dirección del viento	9.66
118511	7	Sololá	713	San Lucas Tolimán	10	San Lucas Tolimán	4	Abril	2023-04-16T00:00:00	2024-11-08T15:00:00	1	Precipitación	0
118512	7	Sololá	713	San Lucas Tolimán	10	San Lucas Tolimán	4	Abril	2023-04-16T00:00:00	2024-11-08T15:00:00	8	Radiación solar	536
118513	7	Sololá	713	San Lucas Tolimán	10	San Lucas Tolimán	4	Abril	2023-04-16T00:00:00	2024-11-08T16:00:00	2	Temperatura media	23.2
118514	7	Sololá	713	San Lucas Tolimán	10	San Lucas Tolimán	4	Abril	2023-04-16T00:00:00	2024-11-08T16:00:00	4	Temperatura máxima	23.7
118515	7	Sololá	713	San Lucas Tolimán	10	San Lucas Tolimán	4	Abril	2023-04-16T00:00:00	2024-11-08T16:00:00	3	Temperatura mínima	23
118516	7	Sololá	713	San Lucas Tolimán	10	San Lucas Tolimán	4	Abril	2023-04-16T00:00:00	2024-11-08T16:00:00	5	Humedad	56
118517	7	Sololá	713	San Lucas Tolimán	10	San Lucas Tolimán	4	Abril	2023-04-16T00:00:00	2024-11-08T16:00:00	6	Velocidad del viento	9.7
118518	7	Sololá	713	San Lucas Tolimán	10	San Lucas Tolimán	4	Abril	2023-04-16T00:00:00	2024-11-08T16:00:00	7	Dirección del viento	9.66
118519	7	Sololá	713	San Lucas Tolimán	10	San Lucas Tolimán	4	Abril	2023-04-16T00:00:00	2024-11-08T16:00:00	1	Precipitación	0
118520	7	Sololá	713	San Lucas Tolimán	10	San Lucas Tolimán	4	Abril	2023-04-16T00:00:00	2024-11-08T16:00:00	8	Radiación solar	462
118521	7	Sololá	713	San Lucas Tolimán	10	San Lucas Tolimán	4	Abril	2023-04-16T00:00:00	2024-11-08T17:00:00	2	Temperatura media	21.4
118522	7	Sololá	713	San Lucas Tolimán	10	San Lucas Tolimán	4	Abril	2023-04-16T00:00:00	2024-11-08T17:00:00	4	Temperatura máxima	23.3
118523	7	Sololá	713	San Lucas Tolimán	10	San Lucas Tolimán	4	Abril	2023-04-16T00:00:00	2024-11-08T17:00:00	3	Temperatura mínima	21.4
118524	7	Sololá	713	San Lucas Tolimán	10	San Lucas Tolimán	4	Abril	2023-04-16T00:00:00	2024-11-08T17:00:00	5	Humedad	60
118525	7	Sololá	713	San Lucas Tolimán	10	San Lucas Tolimán	4	Abril	2023-04-16T00:00:00	2024-11-08T17:00:00	6	Velocidad del viento	8
118526	7	Sololá	713	San Lucas Tolimán	10	San Lucas Tolimán	4	Abril	2023-04-16T00:00:00	2024-11-08T17:00:00	7	Dirección del viento	8.05
118527	7	Sololá	713	San Lucas Tolimán	10	San Lucas Tolimán	4	Abril	2023-04-16T00:00:00	2024-11-08T17:00:00	1	Precipitación	0
118528	7	Sololá	713	San Lucas Tolimán	10	San Lucas Tolimán	4	Abril	2023-04-16T00:00:00	2024-11-08T17:00:00	8	Radiación solar	162
118529	7	Sololá	713	San Lucas Tolimán	10	San Lucas Tolimán	4	Abril	2023-04-16T00:00:00	2024-11-08T18:00:00	2	Temperatura media	21.2
118530	7	Sololá	713	San Lucas Tolimán	10	San Lucas Tolimán	4	Abril	2023-04-16T00:00:00	2024-11-08T18:00:00	4	Temperatura máxima	21.4
118531	7	Sololá	713	San Lucas Tolimán	10	San Lucas Tolimán	4	Abril	2023-04-16T00:00:00	2024-11-08T18:00:00	3	Temperatura mínima	21.1
118532	7	Sololá	713	San Lucas Tolimán	10	San Lucas Tolimán	4	Abril	2023-04-16T00:00:00	2024-11-08T18:00:00	5	Humedad	61
118533	7	Sololá	713	San Lucas Tolimán	10	San Lucas Tolimán	4	Abril	2023-04-16T00:00:00	2024-11-08T18:00:00	6	Velocidad del viento	4.8
118534	7	Sololá	713	San Lucas Tolimán	10	San Lucas Tolimán	4	Abril	2023-04-16T00:00:00	2024-11-08T18:00:00	7	Dirección del viento	4.83
118535	7	Sololá	713	San Lucas Tolimán	10	San Lucas Tolimán	4	Abril	2023-04-16T00:00:00	2024-11-08T18:00:00	1	Precipitación	0
118536	7	Sololá	713	San Lucas Tolimán	10	San Lucas Tolimán	4	Abril	2023-04-16T00:00:00	2024-11-08T18:00:00	8	Radiación solar	18
118537	7	Sololá	713	San Lucas Tolimán	10	San Lucas Tolimán	4	Abril	2023-04-16T00:00:00	2024-11-08T19:00:00	2	Temperatura media	20.1
118538	7	Sololá	713	San Lucas Tolimán	10	San Lucas Tolimán	4	Abril	2023-04-16T00:00:00	2024-11-08T19:00:00	4	Temperatura máxima	21.2
118539	7	Sololá	713	San Lucas Tolimán	10	San Lucas Tolimán	4	Abril	2023-04-16T00:00:00	2024-11-08T19:00:00	3	Temperatura mínima	20.1
118540	7	Sololá	713	San Lucas Tolimán	10	San Lucas Tolimán	4	Abril	2023-04-16T00:00:00	2024-11-08T19:00:00	5	Humedad	61
118541	7	Sololá	713	San Lucas Tolimán	10	San Lucas Tolimán	4	Abril	2023-04-16T00:00:00	2024-11-08T19:00:00	6	Velocidad del viento	3.2
118542	7	Sololá	713	San Lucas Tolimán	10	San Lucas Tolimán	4	Abril	2023-04-16T00:00:00	2024-11-08T19:00:00	7	Dirección del viento	3.22
118543	7	Sololá	713	San Lucas Tolimán	10	San Lucas Tolimán	4	Abril	2023-04-16T00:00:00	2024-11-08T19:00:00	1	Precipitación	0
118544	7	Sololá	713	San Lucas Tolimán	10	San Lucas Tolimán	4	Abril	2023-04-16T00:00:00	2024-11-08T19:00:00	8	Radiación solar	0
118545	7	Sololá	713	San Lucas Tolimán	10	San Lucas Tolimán	4	Abril	2023-04-16T00:00:00	2024-11-08T20:00:00	2	Temperatura media	19.3
118546	7	Sololá	713	San Lucas Tolimán	10	San Lucas Tolimán	4	Abril	2023-04-16T00:00:00	2024-11-08T20:00:00	4	Temperatura máxima	20.2
118547	7	Sololá	713	San Lucas Tolimán	10	San Lucas Tolimán	4	Abril	2023-04-16T00:00:00	2024-11-08T20:00:00	3	Temperatura mínima	19.3
118548	7	Sololá	713	San Lucas Tolimán	10	San Lucas Tolimán	4	Abril	2023-04-16T00:00:00	2024-11-08T20:00:00	5	Humedad	61
118549	7	Sololá	713	San Lucas Tolimán	10	San Lucas Tolimán	4	Abril	2023-04-16T00:00:00	2024-11-08T20:00:00	6	Velocidad del viento	4.8
118550	7	Sololá	713	San Lucas Tolimán	10	San Lucas Tolimán	4	Abril	2023-04-16T00:00:00	2024-11-08T20:00:00	7	Dirección del viento	4.83
118551	7	Sololá	713	San Lucas Tolimán	10	San Lucas Tolimán	4	Abril	2023-04-16T00:00:00	2024-11-08T20:00:00	1	Precipitación	0
118552	7	Sololá	713	San Lucas Tolimán	10	San Lucas Tolimán	4	Abril	2023-04-16T00:00:00	2024-11-08T20:00:00	8	Radiación solar	0
118553	7	Sololá	713	San Lucas Tolimán	10	San Lucas Tolimán	4	Abril	2023-04-16T00:00:00	2024-11-08T21:00:00	2	Temperatura media	18.8
118554	7	Sololá	713	San Lucas Tolimán	10	San Lucas Tolimán	4	Abril	2023-04-16T00:00:00	2024-11-08T21:00:00	4	Temperatura máxima	19.3
118555	7	Sololá	713	San Lucas Tolimán	10	San Lucas Tolimán	4	Abril	2023-04-16T00:00:00	2024-11-08T21:00:00	3	Temperatura mínima	18.7
118556	7	Sololá	713	San Lucas Tolimán	10	San Lucas Tolimán	4	Abril	2023-04-16T00:00:00	2024-11-08T21:00:00	5	Humedad	59
118557	7	Sololá	713	San Lucas Tolimán	10	San Lucas Tolimán	4	Abril	2023-04-16T00:00:00	2024-11-08T21:00:00	6	Velocidad del viento	0
118558	7	Sololá	713	San Lucas Tolimán	10	San Lucas Tolimán	4	Abril	2023-04-16T00:00:00	2024-11-08T21:00:00	7	Dirección del viento	0
118559	7	Sololá	713	San Lucas Tolimán	10	San Lucas Tolimán	4	Abril	2023-04-16T00:00:00	2024-11-08T21:00:00	1	Precipitación	0
118560	7	Sololá	713	San Lucas Tolimán	10	San Lucas Tolimán	4	Abril	2023-04-16T00:00:00	2024-11-08T21:00:00	8	Radiación solar	0
118561	7	Sololá	713	San Lucas Tolimán	10	San Lucas Tolimán	4	Abril	2023-04-16T00:00:00	2024-11-08T22:00:00	2	Temperatura media	18.1
118562	7	Sololá	713	San Lucas Tolimán	10	San Lucas Tolimán	4	Abril	2023-04-16T00:00:00	2024-11-08T22:00:00	4	Temperatura máxima	18.9
118563	7	Sololá	713	San Lucas Tolimán	10	San Lucas Tolimán	4	Abril	2023-04-16T00:00:00	2024-11-08T22:00:00	3	Temperatura mínima	18.1
118564	7	Sololá	713	San Lucas Tolimán	10	San Lucas Tolimán	4	Abril	2023-04-16T00:00:00	2024-11-08T22:00:00	5	Humedad	62
118565	7	Sololá	713	San Lucas Tolimán	10	San Lucas Tolimán	4	Abril	2023-04-16T00:00:00	2024-11-08T22:00:00	6	Velocidad del viento	3.2
118566	7	Sololá	713	San Lucas Tolimán	10	San Lucas Tolimán	4	Abril	2023-04-16T00:00:00	2024-11-08T22:00:00	7	Dirección del viento	3.22
118567	7	Sololá	713	San Lucas Tolimán	10	San Lucas Tolimán	4	Abril	2023-04-16T00:00:00	2024-11-08T22:00:00	1	Precipitación	0
118568	7	Sololá	713	San Lucas Tolimán	10	San Lucas Tolimán	4	Abril	2023-04-16T00:00:00	2024-11-08T22:00:00	8	Radiación solar	0
118569	7	Sololá	713	San Lucas Tolimán	10	San Lucas Tolimán	4	Abril	2023-04-16T00:00:00	2024-11-08T23:00:00	2	Temperatura media	17.8
118570	7	Sololá	713	San Lucas Tolimán	10	San Lucas Tolimán	4	Abril	2023-04-16T00:00:00	2024-11-08T23:00:00	4	Temperatura máxima	18.1
118571	7	Sololá	713	San Lucas Tolimán	10	San Lucas Tolimán	4	Abril	2023-04-16T00:00:00	2024-11-08T23:00:00	3	Temperatura mínima	17.6
118572	7	Sololá	713	San Lucas Tolimán	10	San Lucas Tolimán	4	Abril	2023-04-16T00:00:00	2024-11-08T23:00:00	5	Humedad	62
118573	7	Sololá	713	San Lucas Tolimán	10	San Lucas Tolimán	4	Abril	2023-04-16T00:00:00	2024-11-08T23:00:00	6	Velocidad del viento	8
118574	7	Sololá	713	San Lucas Tolimán	10	San Lucas Tolimán	4	Abril	2023-04-16T00:00:00	2024-11-08T23:00:00	7	Dirección del viento	8.05
118575	7	Sololá	713	San Lucas Tolimán	10	San Lucas Tolimán	4	Abril	2023-04-16T00:00:00	2024-11-08T23:00:00	1	Precipitación	0
118576	7	Sololá	713	San Lucas Tolimán	10	San Lucas Tolimán	4	Abril	2023-04-16T00:00:00	2024-11-08T23:00:00	8	Radiación solar	0
118577	7	Sololá	713	San Lucas Tolimán	10	San Lucas Tolimán	4	Abril	2023-04-17T00:00:00	2024-11-08T00:00:00	2	Temperatura media	16.9
118578	7	Sololá	713	San Lucas Tolimán	10	San Lucas Tolimán	4	Abril	2023-04-17T00:00:00	2024-11-08T00:00:00	4	Temperatura máxima	17.8
118579	7	Sololá	713	San Lucas Tolimán	10	San Lucas Tolimán	4	Abril	2023-04-17T00:00:00	2024-11-08T00:00:00	3	Temperatura mínima	16.9
118580	7	Sololá	713	San Lucas Tolimán	10	San Lucas Tolimán	4	Abril	2023-04-17T00:00:00	2024-11-08T00:00:00	5	Humedad	60
118581	7	Sololá	713	San Lucas Tolimán	10	San Lucas Tolimán	4	Abril	2023-04-17T00:00:00	2024-11-08T00:00:00	6	Velocidad del viento	3.2
118582	7	Sololá	713	San Lucas Tolimán	10	San Lucas Tolimán	4	Abril	2023-04-17T00:00:00	2024-11-08T00:00:00	7	Dirección del viento	3.22
118583	7	Sololá	713	San Lucas Tolimán	10	San Lucas Tolimán	4	Abril	2023-04-17T00:00:00	2024-11-08T00:00:00	1	Precipitación	0
118584	7	Sololá	713	San Lucas Tolimán	10	San Lucas Tolimán	4	Abril	2023-04-17T00:00:00	2024-11-08T00:00:00	8	Radiación solar	0
118585	7	Sololá	713	San Lucas Tolimán	10	San Lucas Tolimán	4	Abril	2023-04-17T00:00:00	2024-11-08T01:00:00	2	Temperatura media	16
118586	7	Sololá	713	San Lucas Tolimán	10	San Lucas Tolimán	4	Abril	2023-04-17T00:00:00	2024-11-08T01:00:00	4	Temperatura máxima	16.9
118587	7	Sololá	713	San Lucas Tolimán	10	San Lucas Tolimán	4	Abril	2023-04-17T00:00:00	2024-11-08T01:00:00	3	Temperatura mínima	15.8
118588	7	Sololá	713	San Lucas Tolimán	10	San Lucas Tolimán	4	Abril	2023-04-17T00:00:00	2024-11-08T01:00:00	5	Humedad	60
118589	7	Sololá	713	San Lucas Tolimán	10	San Lucas Tolimán	4	Abril	2023-04-17T00:00:00	2024-11-08T01:00:00	6	Velocidad del viento	3.2
118590	7	Sololá	713	San Lucas Tolimán	10	San Lucas Tolimán	4	Abril	2023-04-17T00:00:00	2024-11-08T01:00:00	7	Dirección del viento	3.22
118591	7	Sololá	713	San Lucas Tolimán	10	San Lucas Tolimán	4	Abril	2023-04-17T00:00:00	2024-11-08T01:00:00	1	Precipitación	0
118592	7	Sololá	713	San Lucas Tolimán	10	San Lucas Tolimán	4	Abril	2023-04-17T00:00:00	2024-11-08T01:00:00	8	Radiación solar	0
118593	7	Sololá	713	San Lucas Tolimán	10	San Lucas Tolimán	4	Abril	2023-04-17T00:00:00	2024-11-08T02:00:00	2	Temperatura media	15.8
118594	7	Sololá	713	San Lucas Tolimán	10	San Lucas Tolimán	4	Abril	2023-04-17T00:00:00	2024-11-08T02:00:00	4	Temperatura máxima	16.3
118595	7	Sololá	713	San Lucas Tolimán	10	San Lucas Tolimán	4	Abril	2023-04-17T00:00:00	2024-11-08T02:00:00	3	Temperatura mínima	15.8
118596	7	Sololá	713	San Lucas Tolimán	10	San Lucas Tolimán	4	Abril	2023-04-17T00:00:00	2024-11-08T02:00:00	5	Humedad	60
118597	7	Sololá	713	San Lucas Tolimán	10	San Lucas Tolimán	4	Abril	2023-04-17T00:00:00	2024-11-08T02:00:00	6	Velocidad del viento	1.6
118598	7	Sololá	713	San Lucas Tolimán	10	San Lucas Tolimán	4	Abril	2023-04-17T00:00:00	2024-11-08T02:00:00	7	Dirección del viento	1.61
118599	7	Sololá	713	San Lucas Tolimán	10	San Lucas Tolimán	4	Abril	2023-04-17T00:00:00	2024-11-08T02:00:00	1	Precipitación	0
118600	7	Sololá	713	San Lucas Tolimán	10	San Lucas Tolimán	4	Abril	2023-04-17T00:00:00	2024-11-08T02:00:00	8	Radiación solar	0
118601	7	Sololá	713	San Lucas Tolimán	10	San Lucas Tolimán	4	Abril	2023-04-17T00:00:00	2024-11-08T03:00:00	2	Temperatura media	16
118602	7	Sololá	713	San Lucas Tolimán	10	San Lucas Tolimán	4	Abril	2023-04-17T00:00:00	2024-11-08T03:00:00	4	Temperatura máxima	16
118603	7	Sololá	713	San Lucas Tolimán	10	San Lucas Tolimán	4	Abril	2023-04-17T00:00:00	2024-11-08T03:00:00	3	Temperatura mínima	15.5
118604	7	Sololá	713	San Lucas Tolimán	10	San Lucas Tolimán	4	Abril	2023-04-17T00:00:00	2024-11-08T03:00:00	5	Humedad	58
118605	7	Sololá	713	San Lucas Tolimán	10	San Lucas Tolimán	4	Abril	2023-04-17T00:00:00	2024-11-08T03:00:00	6	Velocidad del viento	1.6
118606	7	Sololá	713	San Lucas Tolimán	10	San Lucas Tolimán	4	Abril	2023-04-17T00:00:00	2024-11-08T03:00:00	7	Dirección del viento	1.61
118607	7	Sololá	713	San Lucas Tolimán	10	San Lucas Tolimán	4	Abril	2023-04-17T00:00:00	2024-11-08T03:00:00	1	Precipitación	0
118608	7	Sololá	713	San Lucas Tolimán	10	San Lucas Tolimán	4	Abril	2023-04-17T00:00:00	2024-11-08T03:00:00	8	Radiación solar	0
118609	7	Sololá	713	San Lucas Tolimán	10	San Lucas Tolimán	4	Abril	2023-04-17T00:00:00	2024-11-08T04:00:00	2	Temperatura media	15.8
118610	7	Sololá	713	San Lucas Tolimán	10	San Lucas Tolimán	4	Abril	2023-04-17T00:00:00	2024-11-08T04:00:00	4	Temperatura máxima	16.5
118611	7	Sololá	713	San Lucas Tolimán	10	San Lucas Tolimán	4	Abril	2023-04-17T00:00:00	2024-11-08T04:00:00	3	Temperatura mínima	15.8
118612	7	Sololá	713	San Lucas Tolimán	10	San Lucas Tolimán	4	Abril	2023-04-17T00:00:00	2024-11-08T04:00:00	5	Humedad	59
118613	7	Sololá	713	San Lucas Tolimán	10	San Lucas Tolimán	4	Abril	2023-04-17T00:00:00	2024-11-08T04:00:00	6	Velocidad del viento	1.6
118614	7	Sololá	713	San Lucas Tolimán	10	San Lucas Tolimán	4	Abril	2023-04-17T00:00:00	2024-11-08T04:00:00	7	Dirección del viento	1.61
118615	7	Sololá	713	San Lucas Tolimán	10	San Lucas Tolimán	4	Abril	2023-04-17T00:00:00	2024-11-08T04:00:00	1	Precipitación	0
118616	7	Sololá	713	San Lucas Tolimán	10	San Lucas Tolimán	4	Abril	2023-04-17T00:00:00	2024-11-08T04:00:00	8	Radiación solar	0
118617	7	Sololá	713	San Lucas Tolimán	10	San Lucas Tolimán	4	Abril	2023-04-17T00:00:00	2024-11-08T05:00:00	2	Temperatura media	14.9
118618	7	Sololá	713	San Lucas Tolimán	10	San Lucas Tolimán	4	Abril	2023-04-17T00:00:00	2024-11-08T05:00:00	4	Temperatura máxima	15.8
118619	7	Sololá	713	San Lucas Tolimán	10	San Lucas Tolimán	4	Abril	2023-04-17T00:00:00	2024-11-08T05:00:00	3	Temperatura mínima	14.9
118620	7	Sololá	713	San Lucas Tolimán	10	San Lucas Tolimán	4	Abril	2023-04-17T00:00:00	2024-11-08T05:00:00	5	Humedad	61
118621	7	Sololá	713	San Lucas Tolimán	10	San Lucas Tolimán	4	Abril	2023-04-17T00:00:00	2024-11-08T05:00:00	6	Velocidad del viento	1.6
118622	7	Sololá	713	San Lucas Tolimán	10	San Lucas Tolimán	4	Abril	2023-04-17T00:00:00	2024-11-08T05:00:00	7	Dirección del viento	1.61
118623	7	Sololá	713	San Lucas Tolimán	10	San Lucas Tolimán	4	Abril	2023-04-17T00:00:00	2024-11-08T05:00:00	1	Precipitación	0
118624	7	Sololá	713	San Lucas Tolimán	10	San Lucas Tolimán	4	Abril	2023-04-17T00:00:00	2024-11-08T05:00:00	8	Radiación solar	0
118625	7	Sololá	713	San Lucas Tolimán	10	San Lucas Tolimán	4	Abril	2023-04-17T00:00:00	2024-11-08T06:00:00	2	Temperatura media	15.7
118626	7	Sololá	713	San Lucas Tolimán	10	San Lucas Tolimán	4	Abril	2023-04-17T00:00:00	2024-11-08T06:00:00	4	Temperatura máxima	15.7
118627	7	Sololá	713	San Lucas Tolimán	10	San Lucas Tolimán	4	Abril	2023-04-17T00:00:00	2024-11-08T06:00:00	3	Temperatura mínima	14.8
118628	7	Sololá	713	San Lucas Tolimán	10	San Lucas Tolimán	4	Abril	2023-04-17T00:00:00	2024-11-08T06:00:00	5	Humedad	58
118629	7	Sololá	713	San Lucas Tolimán	10	San Lucas Tolimán	4	Abril	2023-04-17T00:00:00	2024-11-08T06:00:00	6	Velocidad del viento	0
118630	7	Sololá	713	San Lucas Tolimán	10	San Lucas Tolimán	4	Abril	2023-04-17T00:00:00	2024-11-08T06:00:00	7	Dirección del viento	0
118631	7	Sololá	713	San Lucas Tolimán	10	San Lucas Tolimán	4	Abril	2023-04-17T00:00:00	2024-11-08T06:00:00	1	Precipitación	0
118632	7	Sololá	713	San Lucas Tolimán	10	San Lucas Tolimán	4	Abril	2023-04-17T00:00:00	2024-11-08T06:00:00	8	Radiación solar	0
118633	7	Sololá	713	San Lucas Tolimán	10	San Lucas Tolimán	4	Abril	2023-04-17T00:00:00	2024-11-08T07:00:00	2	Temperatura media	18.1
118634	7	Sololá	713	San Lucas Tolimán	10	San Lucas Tolimán	4	Abril	2023-04-17T00:00:00	2024-11-08T07:00:00	4	Temperatura máxima	18.2
118635	7	Sololá	713	San Lucas Tolimán	10	San Lucas Tolimán	4	Abril	2023-04-17T00:00:00	2024-11-08T07:00:00	3	Temperatura mínima	15.7
118636	7	Sololá	713	San Lucas Tolimán	10	San Lucas Tolimán	4	Abril	2023-04-17T00:00:00	2024-11-08T07:00:00	5	Humedad	56
118637	7	Sololá	713	San Lucas Tolimán	10	San Lucas Tolimán	4	Abril	2023-04-17T00:00:00	2024-11-08T07:00:00	6	Velocidad del viento	0
118638	7	Sololá	713	San Lucas Tolimán	10	San Lucas Tolimán	4	Abril	2023-04-17T00:00:00	2024-11-08T07:00:00	7	Dirección del viento	0
118639	7	Sololá	713	San Lucas Tolimán	10	San Lucas Tolimán	4	Abril	2023-04-17T00:00:00	2024-11-08T07:00:00	1	Precipitación	0
118640	7	Sololá	713	San Lucas Tolimán	10	San Lucas Tolimán	4	Abril	2023-04-17T00:00:00	2024-11-08T07:00:00	8	Radiación solar	56
118641	7	Sololá	713	San Lucas Tolimán	10	San Lucas Tolimán	4	Abril	2023-04-17T00:00:00	2024-11-08T08:00:00	2	Temperatura media	21.3
118642	7	Sololá	713	San Lucas Tolimán	10	San Lucas Tolimán	4	Abril	2023-04-17T00:00:00	2024-11-08T08:00:00	4	Temperatura máxima	21.3
118643	7	Sololá	713	San Lucas Tolimán	10	San Lucas Tolimán	4	Abril	2023-04-17T00:00:00	2024-11-08T08:00:00	3	Temperatura mínima	18.2
118644	7	Sololá	713	San Lucas Tolimán	10	San Lucas Tolimán	4	Abril	2023-04-17T00:00:00	2024-11-08T08:00:00	5	Humedad	49
118645	7	Sololá	713	San Lucas Tolimán	10	San Lucas Tolimán	4	Abril	2023-04-17T00:00:00	2024-11-08T08:00:00	6	Velocidad del viento	3.2
118646	7	Sololá	713	San Lucas Tolimán	10	San Lucas Tolimán	4	Abril	2023-04-17T00:00:00	2024-11-08T08:00:00	7	Dirección del viento	3.22
118647	7	Sololá	713	San Lucas Tolimán	10	San Lucas Tolimán	4	Abril	2023-04-17T00:00:00	2024-11-08T08:00:00	1	Precipitación	0
118648	7	Sololá	713	San Lucas Tolimán	10	San Lucas Tolimán	4	Abril	2023-04-17T00:00:00	2024-11-08T08:00:00	8	Radiación solar	249
118649	7	Sololá	713	San Lucas Tolimán	10	San Lucas Tolimán	4	Abril	2023-04-17T00:00:00	2024-11-08T09:00:00	2	Temperatura media	23.5
118650	7	Sololá	713	San Lucas Tolimán	10	San Lucas Tolimán	4	Abril	2023-04-17T00:00:00	2024-11-08T09:00:00	4	Temperatura máxima	23.5
118651	7	Sololá	713	San Lucas Tolimán	10	San Lucas Tolimán	4	Abril	2023-04-17T00:00:00	2024-11-08T09:00:00	3	Temperatura mínima	21.3
118652	7	Sololá	713	San Lucas Tolimán	10	San Lucas Tolimán	4	Abril	2023-04-17T00:00:00	2024-11-08T09:00:00	5	Humedad	41
118653	7	Sololá	713	San Lucas Tolimán	10	San Lucas Tolimán	4	Abril	2023-04-17T00:00:00	2024-11-08T09:00:00	6	Velocidad del viento	4.8
118654	7	Sololá	713	San Lucas Tolimán	10	San Lucas Tolimán	4	Abril	2023-04-17T00:00:00	2024-11-08T09:00:00	7	Dirección del viento	4.83
118655	7	Sololá	713	San Lucas Tolimán	10	San Lucas Tolimán	4	Abril	2023-04-17T00:00:00	2024-11-08T09:00:00	1	Precipitación	0
118656	7	Sololá	713	San Lucas Tolimán	10	San Lucas Tolimán	4	Abril	2023-04-17T00:00:00	2024-11-08T09:00:00	8	Radiación solar	462
118657	7	Sololá	713	San Lucas Tolimán	10	San Lucas Tolimán	4	Abril	2023-04-17T00:00:00	2024-11-08T10:00:00	2	Temperatura media	23.1
118658	7	Sololá	713	San Lucas Tolimán	10	San Lucas Tolimán	4	Abril	2023-04-17T00:00:00	2024-11-08T10:00:00	4	Temperatura máxima	23.7
118659	7	Sololá	713	San Lucas Tolimán	10	San Lucas Tolimán	4	Abril	2023-04-17T00:00:00	2024-11-08T10:00:00	3	Temperatura mínima	21.7
118660	7	Sololá	713	San Lucas Tolimán	10	San Lucas Tolimán	4	Abril	2023-04-17T00:00:00	2024-11-08T10:00:00	5	Humedad	53
118661	7	Sololá	713	San Lucas Tolimán	10	San Lucas Tolimán	4	Abril	2023-04-17T00:00:00	2024-11-08T10:00:00	6	Velocidad del viento	8
118662	7	Sololá	713	San Lucas Tolimán	10	San Lucas Tolimán	4	Abril	2023-04-17T00:00:00	2024-11-08T10:00:00	7	Dirección del viento	8.05
118663	7	Sololá	713	San Lucas Tolimán	10	San Lucas Tolimán	4	Abril	2023-04-17T00:00:00	2024-11-08T10:00:00	1	Precipitación	0
118664	7	Sololá	713	San Lucas Tolimán	10	San Lucas Tolimán	4	Abril	2023-04-17T00:00:00	2024-11-08T10:00:00	8	Radiación solar	727
118665	7	Sololá	713	San Lucas Tolimán	10	San Lucas Tolimán	4	Abril	2023-04-17T00:00:00	2024-11-08T11:00:00	2	Temperatura media	23.3
118666	7	Sololá	713	San Lucas Tolimán	10	San Lucas Tolimán	4	Abril	2023-04-17T00:00:00	2024-11-08T11:00:00	4	Temperatura máxima	23.7
118667	7	Sololá	713	San Lucas Tolimán	10	San Lucas Tolimán	4	Abril	2023-04-17T00:00:00	2024-11-08T11:00:00	3	Temperatura mínima	22.3
118668	7	Sololá	713	San Lucas Tolimán	10	San Lucas Tolimán	4	Abril	2023-04-17T00:00:00	2024-11-08T11:00:00	5	Humedad	55
118669	7	Sololá	713	San Lucas Tolimán	10	San Lucas Tolimán	4	Abril	2023-04-17T00:00:00	2024-11-08T11:00:00	6	Velocidad del viento	11.3
118670	7	Sololá	713	San Lucas Tolimán	10	San Lucas Tolimán	4	Abril	2023-04-17T00:00:00	2024-11-08T11:00:00	7	Dirección del viento	11.27
118671	7	Sololá	713	San Lucas Tolimán	10	San Lucas Tolimán	4	Abril	2023-04-17T00:00:00	2024-11-08T11:00:00	1	Precipitación	0
118672	7	Sololá	713	San Lucas Tolimán	10	San Lucas Tolimán	4	Abril	2023-04-17T00:00:00	2024-11-08T11:00:00	8	Radiación solar	960
118673	7	Sololá	713	San Lucas Tolimán	10	San Lucas Tolimán	4	Abril	2023-04-17T00:00:00	2024-11-08T12:00:00	2	Temperatura media	24.4
118674	7	Sololá	713	San Lucas Tolimán	10	San Lucas Tolimán	4	Abril	2023-04-17T00:00:00	2024-11-08T12:00:00	4	Temperatura máxima	24.6
118675	7	Sololá	713	San Lucas Tolimán	10	San Lucas Tolimán	4	Abril	2023-04-17T00:00:00	2024-11-08T12:00:00	3	Temperatura mínima	23.2
118676	7	Sololá	713	San Lucas Tolimán	10	San Lucas Tolimán	4	Abril	2023-04-17T00:00:00	2024-11-08T12:00:00	5	Humedad	52
118677	7	Sololá	713	San Lucas Tolimán	10	San Lucas Tolimán	4	Abril	2023-04-17T00:00:00	2024-11-08T12:00:00	6	Velocidad del viento	11.3
118678	7	Sololá	713	San Lucas Tolimán	10	San Lucas Tolimán	4	Abril	2023-04-17T00:00:00	2024-11-08T12:00:00	7	Dirección del viento	11.27
118679	7	Sololá	713	San Lucas Tolimán	10	San Lucas Tolimán	4	Abril	2023-04-17T00:00:00	2024-11-08T12:00:00	1	Precipitación	0
118680	7	Sololá	713	San Lucas Tolimán	10	San Lucas Tolimán	4	Abril	2023-04-17T00:00:00	2024-11-08T12:00:00	8	Radiación solar	1057
118681	7	Sololá	713	San Lucas Tolimán	10	San Lucas Tolimán	4	Abril	2023-04-17T00:00:00	2024-11-08T13:00:00	2	Temperatura media	23.6
118682	7	Sololá	713	San Lucas Tolimán	10	San Lucas Tolimán	4	Abril	2023-04-17T00:00:00	2024-11-08T13:00:00	4	Temperatura máxima	24.6
118683	7	Sololá	713	San Lucas Tolimán	10	San Lucas Tolimán	4	Abril	2023-04-17T00:00:00	2024-11-08T13:00:00	3	Temperatura mínima	23.1
118684	7	Sololá	713	San Lucas Tolimán	10	San Lucas Tolimán	4	Abril	2023-04-17T00:00:00	2024-11-08T13:00:00	5	Humedad	56
118685	7	Sololá	713	San Lucas Tolimán	10	San Lucas Tolimán	4	Abril	2023-04-17T00:00:00	2024-11-08T13:00:00	6	Velocidad del viento	14.5
118686	7	Sololá	713	San Lucas Tolimán	10	San Lucas Tolimán	4	Abril	2023-04-17T00:00:00	2024-11-08T13:00:00	7	Dirección del viento	14.48
118687	7	Sololá	713	San Lucas Tolimán	10	San Lucas Tolimán	4	Abril	2023-04-17T00:00:00	2024-11-08T13:00:00	1	Precipitación	0
118688	7	Sololá	713	San Lucas Tolimán	10	San Lucas Tolimán	4	Abril	2023-04-17T00:00:00	2024-11-08T13:00:00	8	Radiación solar	1077
118689	7	Sololá	713	San Lucas Tolimán	10	San Lucas Tolimán	4	Abril	2023-04-17T00:00:00	2024-11-08T14:00:00	2	Temperatura media	22.5
118690	7	Sololá	713	San Lucas Tolimán	10	San Lucas Tolimán	4	Abril	2023-04-17T00:00:00	2024-11-08T14:00:00	4	Temperatura máxima	23.8
118691	7	Sololá	713	San Lucas Tolimán	10	San Lucas Tolimán	4	Abril	2023-04-17T00:00:00	2024-11-08T14:00:00	3	Temperatura mínima	22.5
118692	7	Sololá	713	San Lucas Tolimán	10	San Lucas Tolimán	4	Abril	2023-04-17T00:00:00	2024-11-08T14:00:00	5	Humedad	58
118693	7	Sololá	713	San Lucas Tolimán	10	San Lucas Tolimán	4	Abril	2023-04-17T00:00:00	2024-11-08T14:00:00	6	Velocidad del viento	14.5
118694	7	Sololá	713	San Lucas Tolimán	10	San Lucas Tolimán	4	Abril	2023-04-17T00:00:00	2024-11-08T14:00:00	7	Dirección del viento	14.48
118695	7	Sololá	713	San Lucas Tolimán	10	San Lucas Tolimán	4	Abril	2023-04-17T00:00:00	2024-11-08T14:00:00	1	Precipitación	0
118696	7	Sololá	713	San Lucas Tolimán	10	San Lucas Tolimán	4	Abril	2023-04-17T00:00:00	2024-11-08T14:00:00	8	Radiación solar	805
118697	7	Sololá	713	San Lucas Tolimán	10	San Lucas Tolimán	4	Abril	2023-04-17T00:00:00	2024-11-08T15:00:00	2	Temperatura media	22.1
118698	7	Sololá	713	San Lucas Tolimán	10	San Lucas Tolimán	4	Abril	2023-04-17T00:00:00	2024-11-08T15:00:00	4	Temperatura máxima	22.4
118699	7	Sololá	713	San Lucas Tolimán	10	San Lucas Tolimán	4	Abril	2023-04-17T00:00:00	2024-11-08T15:00:00	3	Temperatura mínima	21.7
118700	7	Sololá	713	San Lucas Tolimán	10	San Lucas Tolimán	4	Abril	2023-04-17T00:00:00	2024-11-08T15:00:00	5	Humedad	60
118701	7	Sololá	713	San Lucas Tolimán	10	San Lucas Tolimán	4	Abril	2023-04-17T00:00:00	2024-11-08T15:00:00	6	Velocidad del viento	8
118702	7	Sololá	713	San Lucas Tolimán	10	San Lucas Tolimán	4	Abril	2023-04-17T00:00:00	2024-11-08T15:00:00	7	Dirección del viento	8.05
118703	7	Sololá	713	San Lucas Tolimán	10	San Lucas Tolimán	4	Abril	2023-04-17T00:00:00	2024-11-08T15:00:00	1	Precipitación	0
118704	7	Sololá	713	San Lucas Tolimán	10	San Lucas Tolimán	4	Abril	2023-04-17T00:00:00	2024-11-08T15:00:00	8	Radiación solar	268
118705	7	Sololá	713	San Lucas Tolimán	10	San Lucas Tolimán	4	Abril	2023-04-17T00:00:00	2024-11-08T16:00:00	2	Temperatura media	15.8
118706	7	Sololá	713	San Lucas Tolimán	10	San Lucas Tolimán	4	Abril	2023-04-17T00:00:00	2024-11-08T16:00:00	4	Temperatura máxima	22.1
118707	7	Sololá	713	San Lucas Tolimán	10	San Lucas Tolimán	4	Abril	2023-04-17T00:00:00	2024-11-08T16:00:00	3	Temperatura mínima	15.6
118708	7	Sololá	713	San Lucas Tolimán	10	San Lucas Tolimán	4	Abril	2023-04-17T00:00:00	2024-11-08T16:00:00	5	Humedad	63
118709	7	Sololá	713	San Lucas Tolimán	10	San Lucas Tolimán	4	Abril	2023-04-17T00:00:00	2024-11-08T16:00:00	6	Velocidad del viento	9.7
118710	7	Sololá	713	San Lucas Tolimán	10	San Lucas Tolimán	4	Abril	2023-04-17T00:00:00	2024-11-08T16:00:00	7	Dirección del viento	9.66
118711	7	Sololá	713	San Lucas Tolimán	10	San Lucas Tolimán	4	Abril	2023-04-17T00:00:00	2024-11-08T16:00:00	1	Precipitación	22.8
118712	7	Sololá	713	San Lucas Tolimán	10	San Lucas Tolimán	4	Abril	2023-04-17T00:00:00	2024-11-08T16:00:00	8	Radiación solar	28
118713	7	Sololá	713	San Lucas Tolimán	10	San Lucas Tolimán	4	Abril	2023-04-17T00:00:00	2024-11-08T17:00:00	2	Temperatura media	16.1
118714	7	Sololá	713	San Lucas Tolimán	10	San Lucas Tolimán	4	Abril	2023-04-17T00:00:00	2024-11-08T17:00:00	4	Temperatura máxima	16.2
118715	7	Sololá	713	San Lucas Tolimán	10	San Lucas Tolimán	4	Abril	2023-04-17T00:00:00	2024-11-08T17:00:00	3	Temperatura mínima	15.6
118716	7	Sololá	713	San Lucas Tolimán	10	San Lucas Tolimán	4	Abril	2023-04-17T00:00:00	2024-11-08T17:00:00	5	Humedad	65
118717	7	Sololá	713	San Lucas Tolimán	10	San Lucas Tolimán	4	Abril	2023-04-17T00:00:00	2024-11-08T17:00:00	6	Velocidad del viento	3.2
118718	7	Sololá	713	San Lucas Tolimán	10	San Lucas Tolimán	4	Abril	2023-04-17T00:00:00	2024-11-08T17:00:00	7	Dirección del viento	3.22
118719	7	Sololá	713	San Lucas Tolimán	10	San Lucas Tolimán	4	Abril	2023-04-17T00:00:00	2024-11-08T17:00:00	1	Precipitación	2.4
118720	7	Sololá	713	San Lucas Tolimán	10	San Lucas Tolimán	4	Abril	2023-04-17T00:00:00	2024-11-08T17:00:00	8	Radiación solar	17
118721	7	Sololá	713	San Lucas Tolimán	10	San Lucas Tolimán	4	Abril	2023-04-17T00:00:00	2024-11-08T18:00:00	2	Temperatura media	16.2
118722	7	Sololá	713	San Lucas Tolimán	10	San Lucas Tolimán	4	Abril	2023-04-17T00:00:00	2024-11-08T18:00:00	4	Temperatura máxima	16.5
118723	7	Sololá	713	San Lucas Tolimán	10	San Lucas Tolimán	4	Abril	2023-04-17T00:00:00	2024-11-08T18:00:00	3	Temperatura mínima	16.1
118724	7	Sololá	713	San Lucas Tolimán	10	San Lucas Tolimán	4	Abril	2023-04-17T00:00:00	2024-11-08T18:00:00	5	Humedad	66
118725	7	Sololá	713	San Lucas Tolimán	10	San Lucas Tolimán	4	Abril	2023-04-17T00:00:00	2024-11-08T18:00:00	6	Velocidad del viento	3.2
118726	7	Sololá	713	San Lucas Tolimán	10	San Lucas Tolimán	4	Abril	2023-04-17T00:00:00	2024-11-08T18:00:00	7	Dirección del viento	3.22
118727	7	Sololá	713	San Lucas Tolimán	10	San Lucas Tolimán	4	Abril	2023-04-17T00:00:00	2024-11-08T18:00:00	1	Precipitación	0.6
118728	7	Sololá	713	San Lucas Tolimán	10	San Lucas Tolimán	4	Abril	2023-04-17T00:00:00	2024-11-08T18:00:00	8	Radiación solar	59
118729	7	Sololá	713	San Lucas Tolimán	10	San Lucas Tolimán	4	Abril	2023-04-17T00:00:00	2024-11-08T19:00:00	2	Temperatura media	15.9
118730	7	Sololá	713	San Lucas Tolimán	10	San Lucas Tolimán	4	Abril	2023-04-17T00:00:00	2024-11-08T19:00:00	4	Temperatura máxima	16.2
118731	7	Sololá	713	San Lucas Tolimán	10	San Lucas Tolimán	4	Abril	2023-04-17T00:00:00	2024-11-08T19:00:00	3	Temperatura mínima	15.9
118732	7	Sololá	713	San Lucas Tolimán	10	San Lucas Tolimán	4	Abril	2023-04-17T00:00:00	2024-11-08T19:00:00	5	Humedad	68
118733	7	Sololá	713	San Lucas Tolimán	10	San Lucas Tolimán	4	Abril	2023-04-17T00:00:00	2024-11-08T19:00:00	6	Velocidad del viento	4.8
118734	7	Sololá	713	San Lucas Tolimán	10	San Lucas Tolimán	4	Abril	2023-04-17T00:00:00	2024-11-08T19:00:00	7	Dirección del viento	4.83
118735	7	Sololá	713	San Lucas Tolimán	10	San Lucas Tolimán	4	Abril	2023-04-17T00:00:00	2024-11-08T19:00:00	1	Precipitación	0
118736	7	Sololá	713	San Lucas Tolimán	10	San Lucas Tolimán	4	Abril	2023-04-17T00:00:00	2024-11-08T19:00:00	8	Radiación solar	0
118737	7	Sololá	713	San Lucas Tolimán	10	San Lucas Tolimán	4	Abril	2023-04-17T00:00:00	2024-11-08T20:00:00	2	Temperatura media	15.9
118738	7	Sololá	713	San Lucas Tolimán	10	San Lucas Tolimán	4	Abril	2023-04-17T00:00:00	2024-11-08T20:00:00	4	Temperatura máxima	16.1
118739	7	Sololá	713	San Lucas Tolimán	10	San Lucas Tolimán	4	Abril	2023-04-17T00:00:00	2024-11-08T20:00:00	3	Temperatura mínima	15.8
118740	7	Sololá	713	San Lucas Tolimán	10	San Lucas Tolimán	4	Abril	2023-04-17T00:00:00	2024-11-08T20:00:00	5	Humedad	69
118741	7	Sololá	713	San Lucas Tolimán	10	San Lucas Tolimán	4	Abril	2023-04-17T00:00:00	2024-11-08T20:00:00	6	Velocidad del viento	1.6
118742	7	Sololá	713	San Lucas Tolimán	10	San Lucas Tolimán	4	Abril	2023-04-17T00:00:00	2024-11-08T20:00:00	7	Dirección del viento	1.61
118743	7	Sololá	713	San Lucas Tolimán	10	San Lucas Tolimán	4	Abril	2023-04-17T00:00:00	2024-11-08T20:00:00	1	Precipitación	0
118744	7	Sololá	713	San Lucas Tolimán	10	San Lucas Tolimán	4	Abril	2023-04-17T00:00:00	2024-11-08T20:00:00	8	Radiación solar	0
118745	7	Sololá	713	San Lucas Tolimán	10	San Lucas Tolimán	4	Abril	2023-04-17T00:00:00	2024-11-08T21:00:00	2	Temperatura media	16.3
118746	7	Sololá	713	San Lucas Tolimán	10	San Lucas Tolimán	4	Abril	2023-04-17T00:00:00	2024-11-08T21:00:00	4	Temperatura máxima	16.3
118747	7	Sololá	713	San Lucas Tolimán	10	San Lucas Tolimán	4	Abril	2023-04-17T00:00:00	2024-11-08T21:00:00	3	Temperatura mínima	15.9
118748	7	Sololá	713	San Lucas Tolimán	10	San Lucas Tolimán	4	Abril	2023-04-17T00:00:00	2024-11-08T21:00:00	5	Humedad	68
118749	7	Sololá	713	San Lucas Tolimán	10	San Lucas Tolimán	4	Abril	2023-04-17T00:00:00	2024-11-08T21:00:00	6	Velocidad del viento	3.2
118750	7	Sololá	713	San Lucas Tolimán	10	San Lucas Tolimán	4	Abril	2023-04-17T00:00:00	2024-11-08T21:00:00	7	Dirección del viento	3.22
118751	7	Sololá	713	San Lucas Tolimán	10	San Lucas Tolimán	4	Abril	2023-04-17T00:00:00	2024-11-08T21:00:00	1	Precipitación	0
118752	7	Sololá	713	San Lucas Tolimán	10	San Lucas Tolimán	4	Abril	2023-04-17T00:00:00	2024-11-08T21:00:00	8	Radiación solar	0
118753	7	Sololá	713	San Lucas Tolimán	10	San Lucas Tolimán	4	Abril	2023-04-17T00:00:00	2024-11-08T22:00:00	2	Temperatura media	16.6
118754	7	Sololá	713	San Lucas Tolimán	10	San Lucas Tolimán	4	Abril	2023-04-17T00:00:00	2024-11-08T22:00:00	4	Temperatura máxima	16.8
118755	7	Sololá	713	San Lucas Tolimán	10	San Lucas Tolimán	4	Abril	2023-04-17T00:00:00	2024-11-08T22:00:00	3	Temperatura mínima	16.3
118756	7	Sololá	713	San Lucas Tolimán	10	San Lucas Tolimán	4	Abril	2023-04-17T00:00:00	2024-11-08T22:00:00	5	Humedad	61
118757	7	Sololá	713	San Lucas Tolimán	10	San Lucas Tolimán	4	Abril	2023-04-17T00:00:00	2024-11-08T22:00:00	6	Velocidad del viento	3.2
118758	7	Sololá	713	San Lucas Tolimán	10	San Lucas Tolimán	4	Abril	2023-04-17T00:00:00	2024-11-08T22:00:00	7	Dirección del viento	3.22
118759	7	Sololá	713	San Lucas Tolimán	10	San Lucas Tolimán	4	Abril	2023-04-17T00:00:00	2024-11-08T22:00:00	1	Precipitación	0
118760	7	Sololá	713	San Lucas Tolimán	10	San Lucas Tolimán	4	Abril	2023-04-17T00:00:00	2024-11-08T22:00:00	8	Radiación solar	0
118761	7	Sololá	713	San Lucas Tolimán	10	San Lucas Tolimán	4	Abril	2023-04-17T00:00:00	2024-11-08T23:00:00	2	Temperatura media	15.8
118762	7	Sololá	713	San Lucas Tolimán	10	San Lucas Tolimán	4	Abril	2023-04-17T00:00:00	2024-11-08T23:00:00	4	Temperatura máxima	16.6
118763	7	Sololá	713	San Lucas Tolimán	10	San Lucas Tolimán	4	Abril	2023-04-17T00:00:00	2024-11-08T23:00:00	3	Temperatura mínima	15.7
118764	7	Sololá	713	San Lucas Tolimán	10	San Lucas Tolimán	4	Abril	2023-04-17T00:00:00	2024-11-08T23:00:00	5	Humedad	62
118765	7	Sololá	713	San Lucas Tolimán	10	San Lucas Tolimán	4	Abril	2023-04-17T00:00:00	2024-11-08T23:00:00	6	Velocidad del viento	0
118766	7	Sololá	713	San Lucas Tolimán	10	San Lucas Tolimán	4	Abril	2023-04-17T00:00:00	2024-11-08T23:00:00	7	Dirección del viento	0
118767	7	Sololá	713	San Lucas Tolimán	10	San Lucas Tolimán	4	Abril	2023-04-17T00:00:00	2024-11-08T23:00:00	1	Precipitación	0
118768	7	Sololá	713	San Lucas Tolimán	10	San Lucas Tolimán	4	Abril	2023-04-17T00:00:00	2024-11-08T23:00:00	8	Radiación solar	0
118769	7	Sololá	713	San Lucas Tolimán	10	San Lucas Tolimán	4	Abril	2023-04-18T00:00:00	2024-11-08T00:00:00	2	Temperatura media	15.3
118770	7	Sololá	713	San Lucas Tolimán	10	San Lucas Tolimán	4	Abril	2023-04-18T00:00:00	2024-11-08T00:00:00	4	Temperatura máxima	15.7
118771	7	Sololá	713	San Lucas Tolimán	10	San Lucas Tolimán	4	Abril	2023-04-18T00:00:00	2024-11-08T00:00:00	3	Temperatura mínima	14.8
118772	7	Sololá	713	San Lucas Tolimán	10	San Lucas Tolimán	4	Abril	2023-04-18T00:00:00	2024-11-08T00:00:00	5	Humedad	61
118773	7	Sololá	713	San Lucas Tolimán	10	San Lucas Tolimán	4	Abril	2023-04-18T00:00:00	2024-11-08T00:00:00	6	Velocidad del viento	3.2
118774	7	Sololá	713	San Lucas Tolimán	10	San Lucas Tolimán	4	Abril	2023-04-18T00:00:00	2024-11-08T00:00:00	7	Dirección del viento	3.22
118775	7	Sololá	713	San Lucas Tolimán	10	San Lucas Tolimán	4	Abril	2023-04-18T00:00:00	2024-11-08T00:00:00	1	Precipitación	0
118776	7	Sololá	713	San Lucas Tolimán	10	San Lucas Tolimán	4	Abril	2023-04-18T00:00:00	2024-11-08T00:00:00	8	Radiación solar	0
118777	7	Sololá	713	San Lucas Tolimán	10	San Lucas Tolimán	4	Abril	2023-04-18T00:00:00	2024-11-08T01:00:00	2	Temperatura media	15.4
118778	7	Sololá	713	San Lucas Tolimán	10	San Lucas Tolimán	4	Abril	2023-04-18T00:00:00	2024-11-08T01:00:00	4	Temperatura máxima	15.8
118779	7	Sololá	713	San Lucas Tolimán	10	San Lucas Tolimán	4	Abril	2023-04-18T00:00:00	2024-11-08T01:00:00	3	Temperatura mínima	15.3
118780	7	Sololá	713	San Lucas Tolimán	10	San Lucas Tolimán	4	Abril	2023-04-18T00:00:00	2024-11-08T01:00:00	5	Humedad	62
118781	7	Sololá	713	San Lucas Tolimán	10	San Lucas Tolimán	4	Abril	2023-04-18T00:00:00	2024-11-08T01:00:00	6	Velocidad del viento	3.2
118782	7	Sololá	713	San Lucas Tolimán	10	San Lucas Tolimán	4	Abril	2023-04-18T00:00:00	2024-11-08T01:00:00	7	Dirección del viento	3.22
118783	7	Sololá	713	San Lucas Tolimán	10	San Lucas Tolimán	4	Abril	2023-04-18T00:00:00	2024-11-08T01:00:00	1	Precipitación	0
118784	7	Sololá	713	San Lucas Tolimán	10	San Lucas Tolimán	4	Abril	2023-04-18T00:00:00	2024-11-08T01:00:00	8	Radiación solar	0
118785	7	Sololá	713	San Lucas Tolimán	10	San Lucas Tolimán	4	Abril	2023-04-18T00:00:00	2024-11-08T02:00:00	2	Temperatura media	15.3
118786	7	Sololá	713	San Lucas Tolimán	10	San Lucas Tolimán	4	Abril	2023-04-18T00:00:00	2024-11-08T02:00:00	4	Temperatura máxima	15.4
118787	7	Sololá	713	San Lucas Tolimán	10	San Lucas Tolimán	4	Abril	2023-04-18T00:00:00	2024-11-08T02:00:00	3	Temperatura mínima	14.9
118788	7	Sololá	713	San Lucas Tolimán	10	San Lucas Tolimán	4	Abril	2023-04-18T00:00:00	2024-11-08T02:00:00	5	Humedad	62
118789	7	Sololá	713	San Lucas Tolimán	10	San Lucas Tolimán	4	Abril	2023-04-18T00:00:00	2024-11-08T02:00:00	6	Velocidad del viento	1.6
118790	7	Sololá	713	San Lucas Tolimán	10	San Lucas Tolimán	4	Abril	2023-04-18T00:00:00	2024-11-08T02:00:00	7	Dirección del viento	1.61
118791	7	Sololá	713	San Lucas Tolimán	10	San Lucas Tolimán	4	Abril	2023-04-18T00:00:00	2024-11-08T02:00:00	1	Precipitación	0
118792	7	Sololá	713	San Lucas Tolimán	10	San Lucas Tolimán	4	Abril	2023-04-18T00:00:00	2024-11-08T02:00:00	8	Radiación solar	0
118793	7	Sololá	713	San Lucas Tolimán	10	San Lucas Tolimán	4	Abril	2023-04-18T00:00:00	2024-11-08T03:00:00	2	Temperatura media	16.6
118794	7	Sololá	713	San Lucas Tolimán	10	San Lucas Tolimán	4	Abril	2023-04-18T00:00:00	2024-11-08T03:00:00	4	Temperatura máxima	16.8
118795	7	Sololá	713	San Lucas Tolimán	10	San Lucas Tolimán	4	Abril	2023-04-18T00:00:00	2024-11-08T03:00:00	3	Temperatura mínima	15.3
118796	7	Sololá	713	San Lucas Tolimán	10	San Lucas Tolimán	4	Abril	2023-04-18T00:00:00	2024-11-08T03:00:00	5	Humedad	59
118797	7	Sololá	713	San Lucas Tolimán	10	San Lucas Tolimán	4	Abril	2023-04-18T00:00:00	2024-11-08T03:00:00	6	Velocidad del viento	0
118798	7	Sololá	713	San Lucas Tolimán	10	San Lucas Tolimán	4	Abril	2023-04-18T00:00:00	2024-11-08T03:00:00	7	Dirección del viento	0
118799	7	Sololá	713	San Lucas Tolimán	10	San Lucas Tolimán	4	Abril	2023-04-18T00:00:00	2024-11-08T03:00:00	1	Precipitación	0
118800	7	Sololá	713	San Lucas Tolimán	10	San Lucas Tolimán	4	Abril	2023-04-18T00:00:00	2024-11-08T03:00:00	8	Radiación solar	0
118801	7	Sololá	713	San Lucas Tolimán	10	San Lucas Tolimán	4	Abril	2023-04-18T00:00:00	2024-11-08T04:00:00	2	Temperatura media	15.9
118802	7	Sololá	713	San Lucas Tolimán	10	San Lucas Tolimán	4	Abril	2023-04-18T00:00:00	2024-11-08T04:00:00	4	Temperatura máxima	16.6
118803	7	Sololá	713	San Lucas Tolimán	10	San Lucas Tolimán	4	Abril	2023-04-18T00:00:00	2024-11-08T04:00:00	3	Temperatura mínima	15.9
118804	7	Sololá	713	San Lucas Tolimán	10	San Lucas Tolimán	4	Abril	2023-04-18T00:00:00	2024-11-08T04:00:00	5	Humedad	61
118805	7	Sololá	713	San Lucas Tolimán	10	San Lucas Tolimán	4	Abril	2023-04-18T00:00:00	2024-11-08T04:00:00	6	Velocidad del viento	1.6
118806	7	Sololá	713	San Lucas Tolimán	10	San Lucas Tolimán	4	Abril	2023-04-18T00:00:00	2024-11-08T04:00:00	7	Dirección del viento	1.61
118807	7	Sololá	713	San Lucas Tolimán	10	San Lucas Tolimán	4	Abril	2023-04-18T00:00:00	2024-11-08T04:00:00	1	Precipitación	0
118808	7	Sololá	713	San Lucas Tolimán	10	San Lucas Tolimán	4	Abril	2023-04-18T00:00:00	2024-11-08T04:00:00	8	Radiación solar	0
118809	7	Sololá	713	San Lucas Tolimán	10	San Lucas Tolimán	4	Abril	2023-04-18T00:00:00	2024-11-08T05:00:00	2	Temperatura media	15.8
118810	7	Sololá	713	San Lucas Tolimán	10	San Lucas Tolimán	4	Abril	2023-04-18T00:00:00	2024-11-08T05:00:00	4	Temperatura máxima	16.1
118811	7	Sololá	713	San Lucas Tolimán	10	San Lucas Tolimán	4	Abril	2023-04-18T00:00:00	2024-11-08T05:00:00	3	Temperatura mínima	15.8
118812	7	Sololá	713	San Lucas Tolimán	10	San Lucas Tolimán	4	Abril	2023-04-18T00:00:00	2024-11-08T05:00:00	5	Humedad	58
118813	7	Sololá	713	San Lucas Tolimán	10	San Lucas Tolimán	4	Abril	2023-04-18T00:00:00	2024-11-08T05:00:00	6	Velocidad del viento	0
118814	7	Sololá	713	San Lucas Tolimán	10	San Lucas Tolimán	4	Abril	2023-04-18T00:00:00	2024-11-08T05:00:00	7	Dirección del viento	0
118815	7	Sololá	713	San Lucas Tolimán	10	San Lucas Tolimán	4	Abril	2023-04-18T00:00:00	2024-11-08T05:00:00	1	Precipitación	0
118816	7	Sololá	713	San Lucas Tolimán	10	San Lucas Tolimán	4	Abril	2023-04-18T00:00:00	2024-11-08T05:00:00	8	Radiación solar	0
118817	7	Sololá	713	San Lucas Tolimán	10	San Lucas Tolimán	4	Abril	2023-04-18T00:00:00	2024-11-08T06:00:00	2	Temperatura media	16.1
118818	7	Sololá	713	San Lucas Tolimán	10	San Lucas Tolimán	4	Abril	2023-04-18T00:00:00	2024-11-08T06:00:00	4	Temperatura máxima	16.1
118819	7	Sololá	713	San Lucas Tolimán	10	San Lucas Tolimán	4	Abril	2023-04-18T00:00:00	2024-11-08T06:00:00	3	Temperatura mínima	15.4
118820	7	Sololá	713	San Lucas Tolimán	10	San Lucas Tolimán	4	Abril	2023-04-18T00:00:00	2024-11-08T06:00:00	5	Humedad	59
118821	7	Sololá	713	San Lucas Tolimán	10	San Lucas Tolimán	4	Abril	2023-04-18T00:00:00	2024-11-08T06:00:00	6	Velocidad del viento	1.6
118822	7	Sololá	713	San Lucas Tolimán	10	San Lucas Tolimán	4	Abril	2023-04-18T00:00:00	2024-11-08T06:00:00	7	Dirección del viento	1.61
118823	7	Sololá	713	San Lucas Tolimán	10	San Lucas Tolimán	4	Abril	2023-04-18T00:00:00	2024-11-08T06:00:00	1	Precipitación	0
118824	7	Sololá	713	San Lucas Tolimán	10	San Lucas Tolimán	4	Abril	2023-04-18T00:00:00	2024-11-08T06:00:00	8	Radiación solar	1
118825	7	Sololá	713	San Lucas Tolimán	10	San Lucas Tolimán	4	Abril	2023-04-18T00:00:00	2024-11-08T07:00:00	2	Temperatura media	17.1
118826	7	Sololá	713	San Lucas Tolimán	10	San Lucas Tolimán	4	Abril	2023-04-18T00:00:00	2024-11-08T07:00:00	4	Temperatura máxima	17.1
118827	7	Sololá	713	San Lucas Tolimán	10	San Lucas Tolimán	4	Abril	2023-04-18T00:00:00	2024-11-08T07:00:00	3	Temperatura mínima	15.7
118828	7	Sololá	713	San Lucas Tolimán	10	San Lucas Tolimán	4	Abril	2023-04-18T00:00:00	2024-11-08T07:00:00	5	Humedad	59
118829	7	Sololá	713	San Lucas Tolimán	10	San Lucas Tolimán	4	Abril	2023-04-18T00:00:00	2024-11-08T07:00:00	6	Velocidad del viento	0
118830	7	Sololá	713	San Lucas Tolimán	10	San Lucas Tolimán	4	Abril	2023-04-18T00:00:00	2024-11-08T07:00:00	7	Dirección del viento	0
118831	7	Sololá	713	San Lucas Tolimán	10	San Lucas Tolimán	4	Abril	2023-04-18T00:00:00	2024-11-08T07:00:00	1	Precipitación	0
118832	7	Sololá	713	San Lucas Tolimán	10	San Lucas Tolimán	4	Abril	2023-04-18T00:00:00	2024-11-08T07:00:00	8	Radiación solar	56
118833	7	Sololá	713	San Lucas Tolimán	10	San Lucas Tolimán	4	Abril	2023-04-18T00:00:00	2024-11-08T08:00:00	2	Temperatura media	19.7
118834	7	Sololá	713	San Lucas Tolimán	10	San Lucas Tolimán	4	Abril	2023-04-18T00:00:00	2024-11-08T08:00:00	4	Temperatura máxima	19.7
118835	7	Sololá	713	San Lucas Tolimán	10	San Lucas Tolimán	4	Abril	2023-04-18T00:00:00	2024-11-08T08:00:00	3	Temperatura mínima	17.1
118836	7	Sololá	713	San Lucas Tolimán	10	San Lucas Tolimán	4	Abril	2023-04-18T00:00:00	2024-11-08T08:00:00	5	Humedad	55
118837	7	Sololá	713	San Lucas Tolimán	10	San Lucas Tolimán	4	Abril	2023-04-18T00:00:00	2024-11-08T08:00:00	6	Velocidad del viento	3.2
118838	7	Sololá	713	San Lucas Tolimán	10	San Lucas Tolimán	4	Abril	2023-04-18T00:00:00	2024-11-08T08:00:00	7	Dirección del viento	3.22
118839	7	Sololá	713	San Lucas Tolimán	10	San Lucas Tolimán	4	Abril	2023-04-18T00:00:00	2024-11-08T08:00:00	1	Precipitación	0
118840	7	Sololá	713	San Lucas Tolimán	10	San Lucas Tolimán	4	Abril	2023-04-18T00:00:00	2024-11-08T08:00:00	8	Radiación solar	288
118841	7	Sololá	713	San Lucas Tolimán	10	San Lucas Tolimán	4	Abril	2023-04-18T00:00:00	2024-11-08T09:00:00	2	Temperatura media	20.7
118842	7	Sololá	713	San Lucas Tolimán	10	San Lucas Tolimán	4	Abril	2023-04-18T00:00:00	2024-11-08T09:00:00	4	Temperatura máxima	20.9
118843	7	Sololá	713	San Lucas Tolimán	10	San Lucas Tolimán	4	Abril	2023-04-18T00:00:00	2024-11-08T09:00:00	3	Temperatura mínima	19.7
118844	7	Sololá	713	San Lucas Tolimán	10	San Lucas Tolimán	4	Abril	2023-04-18T00:00:00	2024-11-08T09:00:00	5	Humedad	53
118845	7	Sololá	713	San Lucas Tolimán	10	San Lucas Tolimán	4	Abril	2023-04-18T00:00:00	2024-11-08T09:00:00	6	Velocidad del viento	4.8
118846	7	Sololá	713	San Lucas Tolimán	10	San Lucas Tolimán	4	Abril	2023-04-18T00:00:00	2024-11-08T09:00:00	7	Dirección del viento	4.83
118847	7	Sololá	713	San Lucas Tolimán	10	San Lucas Tolimán	4	Abril	2023-04-18T00:00:00	2024-11-08T09:00:00	1	Precipitación	0
118848	7	Sololá	713	San Lucas Tolimán	10	San Lucas Tolimán	4	Abril	2023-04-18T00:00:00	2024-11-08T09:00:00	8	Radiación solar	485
118849	7	Sololá	713	San Lucas Tolimán	10	San Lucas Tolimán	4	Abril	2023-04-18T00:00:00	2024-11-08T10:00:00	2	Temperatura media	23.1
118850	7	Sololá	713	San Lucas Tolimán	10	San Lucas Tolimán	4	Abril	2023-04-18T00:00:00	2024-11-08T10:00:00	4	Temperatura máxima	23.3
118851	7	Sololá	713	San Lucas Tolimán	10	San Lucas Tolimán	4	Abril	2023-04-18T00:00:00	2024-11-08T10:00:00	3	Temperatura mínima	20.7
118852	7	Sololá	713	San Lucas Tolimán	10	San Lucas Tolimán	4	Abril	2023-04-18T00:00:00	2024-11-08T10:00:00	5	Humedad	51
118853	7	Sololá	713	San Lucas Tolimán	10	San Lucas Tolimán	4	Abril	2023-04-18T00:00:00	2024-11-08T10:00:00	6	Velocidad del viento	3.2
118854	7	Sololá	713	San Lucas Tolimán	10	San Lucas Tolimán	4	Abril	2023-04-18T00:00:00	2024-11-08T10:00:00	7	Dirección del viento	3.22
118855	7	Sololá	713	San Lucas Tolimán	10	San Lucas Tolimán	4	Abril	2023-04-18T00:00:00	2024-11-08T10:00:00	1	Precipitación	0
118856	7	Sololá	713	San Lucas Tolimán	10	San Lucas Tolimán	4	Abril	2023-04-18T00:00:00	2024-11-08T10:00:00	8	Radiación solar	745
118857	7	Sololá	713	San Lucas Tolimán	10	San Lucas Tolimán	4	Abril	2023-04-18T00:00:00	2024-11-08T11:00:00	2	Temperatura media	22.9
118858	7	Sololá	713	San Lucas Tolimán	10	San Lucas Tolimán	4	Abril	2023-04-18T00:00:00	2024-11-08T11:00:00	4	Temperatura máxima	23.1
118859	7	Sololá	713	San Lucas Tolimán	10	San Lucas Tolimán	4	Abril	2023-04-18T00:00:00	2024-11-08T11:00:00	3	Temperatura mínima	22.4
118860	7	Sololá	713	San Lucas Tolimán	10	San Lucas Tolimán	4	Abril	2023-04-18T00:00:00	2024-11-08T11:00:00	5	Humedad	52
118861	7	Sololá	713	San Lucas Tolimán	10	San Lucas Tolimán	4	Abril	2023-04-18T00:00:00	2024-11-08T11:00:00	6	Velocidad del viento	9.7
118862	7	Sololá	713	San Lucas Tolimán	10	San Lucas Tolimán	4	Abril	2023-04-18T00:00:00	2024-11-08T11:00:00	7	Dirección del viento	9.66
118863	7	Sololá	713	San Lucas Tolimán	10	San Lucas Tolimán	4	Abril	2023-04-18T00:00:00	2024-11-08T11:00:00	1	Precipitación	0
118864	7	Sololá	713	San Lucas Tolimán	10	San Lucas Tolimán	4	Abril	2023-04-18T00:00:00	2024-11-08T11:00:00	8	Radiación solar	1013
118865	7	Sololá	713	San Lucas Tolimán	10	San Lucas Tolimán	4	Abril	2023-04-18T00:00:00	2024-11-08T12:00:00	2	Temperatura media	23.2
118866	7	Sololá	713	San Lucas Tolimán	10	San Lucas Tolimán	4	Abril	2023-04-18T00:00:00	2024-11-08T12:00:00	4	Temperatura máxima	23.2
118867	7	Sololá	713	San Lucas Tolimán	10	San Lucas Tolimán	4	Abril	2023-04-18T00:00:00	2024-11-08T12:00:00	3	Temperatura mínima	22.3
118868	7	Sololá	713	San Lucas Tolimán	10	San Lucas Tolimán	4	Abril	2023-04-18T00:00:00	2024-11-08T12:00:00	5	Humedad	52
118869	7	Sololá	713	San Lucas Tolimán	10	San Lucas Tolimán	4	Abril	2023-04-18T00:00:00	2024-11-08T12:00:00	6	Velocidad del viento	11.3
118870	7	Sololá	713	San Lucas Tolimán	10	San Lucas Tolimán	4	Abril	2023-04-18T00:00:00	2024-11-08T12:00:00	7	Dirección del viento	11.27
118871	7	Sololá	713	San Lucas Tolimán	10	San Lucas Tolimán	4	Abril	2023-04-18T00:00:00	2024-11-08T12:00:00	1	Precipitación	0
118872	7	Sololá	713	San Lucas Tolimán	10	San Lucas Tolimán	4	Abril	2023-04-18T00:00:00	2024-11-08T12:00:00	8	Radiación solar	1149
118873	7	Sololá	713	San Lucas Tolimán	10	San Lucas Tolimán	4	Abril	2023-04-18T00:00:00	2024-11-08T13:00:00	2	Temperatura media	22.9
118874	7	Sololá	713	San Lucas Tolimán	10	San Lucas Tolimán	4	Abril	2023-04-18T00:00:00	2024-11-08T13:00:00	4	Temperatura máxima	23.5
118875	7	Sololá	713	San Lucas Tolimán	10	San Lucas Tolimán	4	Abril	2023-04-18T00:00:00	2024-11-08T13:00:00	3	Temperatura mínima	22.6
118876	7	Sololá	713	San Lucas Tolimán	10	San Lucas Tolimán	4	Abril	2023-04-18T00:00:00	2024-11-08T13:00:00	5	Humedad	53
118877	7	Sololá	713	San Lucas Tolimán	10	San Lucas Tolimán	4	Abril	2023-04-18T00:00:00	2024-11-08T13:00:00	6	Velocidad del viento	8
118878	7	Sololá	713	San Lucas Tolimán	10	San Lucas Tolimán	4	Abril	2023-04-18T00:00:00	2024-11-08T13:00:00	7	Dirección del viento	8.05
118879	7	Sololá	713	San Lucas Tolimán	10	San Lucas Tolimán	4	Abril	2023-04-18T00:00:00	2024-11-08T13:00:00	1	Precipitación	0
118880	7	Sololá	713	San Lucas Tolimán	10	San Lucas Tolimán	4	Abril	2023-04-18T00:00:00	2024-11-08T13:00:00	8	Radiación solar	1163
118881	7	Sololá	713	San Lucas Tolimán	10	San Lucas Tolimán	4	Abril	2023-04-18T00:00:00	2024-11-08T14:00:00	2	Temperatura media	23.1
118882	7	Sololá	713	San Lucas Tolimán	10	San Lucas Tolimán	4	Abril	2023-04-18T00:00:00	2024-11-08T14:00:00	4	Temperatura máxima	23.7
118883	7	Sololá	713	San Lucas Tolimán	10	San Lucas Tolimán	4	Abril	2023-04-18T00:00:00	2024-11-08T14:00:00	3	Temperatura mínima	22.8
118884	7	Sololá	713	San Lucas Tolimán	10	San Lucas Tolimán	4	Abril	2023-04-18T00:00:00	2024-11-08T14:00:00	5	Humedad	54
118885	7	Sololá	713	San Lucas Tolimán	10	San Lucas Tolimán	4	Abril	2023-04-18T00:00:00	2024-11-08T14:00:00	6	Velocidad del viento	9.7
118886	7	Sololá	713	San Lucas Tolimán	10	San Lucas Tolimán	4	Abril	2023-04-18T00:00:00	2024-11-08T14:00:00	7	Dirección del viento	9.66
118887	7	Sololá	713	San Lucas Tolimán	10	San Lucas Tolimán	4	Abril	2023-04-18T00:00:00	2024-11-08T14:00:00	1	Precipitación	0
118888	7	Sololá	713	San Lucas Tolimán	10	San Lucas Tolimán	4	Abril	2023-04-18T00:00:00	2024-11-08T14:00:00	8	Radiación solar	1075
118889	7	Sololá	713	San Lucas Tolimán	10	San Lucas Tolimán	4	Abril	2023-04-18T00:00:00	2024-11-08T15:00:00	2	Temperatura media	22.3
118890	7	Sololá	713	San Lucas Tolimán	10	San Lucas Tolimán	4	Abril	2023-04-18T00:00:00	2024-11-08T15:00:00	4	Temperatura máxima	23.7
118891	7	Sololá	713	San Lucas Tolimán	10	San Lucas Tolimán	4	Abril	2023-04-18T00:00:00	2024-11-08T15:00:00	3	Temperatura mínima	22.1
118892	7	Sololá	713	San Lucas Tolimán	10	San Lucas Tolimán	4	Abril	2023-04-18T00:00:00	2024-11-08T15:00:00	5	Humedad	56
118893	7	Sololá	713	San Lucas Tolimán	10	San Lucas Tolimán	4	Abril	2023-04-18T00:00:00	2024-11-08T15:00:00	6	Velocidad del viento	8
118894	7	Sololá	713	San Lucas Tolimán	10	San Lucas Tolimán	4	Abril	2023-04-18T00:00:00	2024-11-08T15:00:00	7	Dirección del viento	8.05
118895	7	Sololá	713	San Lucas Tolimán	10	San Lucas Tolimán	4	Abril	2023-04-18T00:00:00	2024-11-08T15:00:00	1	Precipitación	0
118896	7	Sololá	713	San Lucas Tolimán	10	San Lucas Tolimán	4	Abril	2023-04-18T00:00:00	2024-11-08T15:00:00	8	Radiación solar	702
118897	7	Sololá	713	San Lucas Tolimán	10	San Lucas Tolimán	4	Abril	2023-04-18T00:00:00	2024-11-08T16:00:00	2	Temperatura media	21.4
118898	7	Sololá	713	San Lucas Tolimán	10	San Lucas Tolimán	4	Abril	2023-04-18T00:00:00	2024-11-08T16:00:00	4	Temperatura máxima	22.2
118899	7	Sololá	713	San Lucas Tolimán	10	San Lucas Tolimán	4	Abril	2023-04-18T00:00:00	2024-11-08T16:00:00	3	Temperatura mínima	21.4
118900	7	Sololá	713	San Lucas Tolimán	10	San Lucas Tolimán	4	Abril	2023-04-18T00:00:00	2024-11-08T16:00:00	5	Humedad	59
118901	7	Sololá	713	San Lucas Tolimán	10	San Lucas Tolimán	4	Abril	2023-04-18T00:00:00	2024-11-08T16:00:00	6	Velocidad del viento	9.7
118902	7	Sololá	713	San Lucas Tolimán	10	San Lucas Tolimán	4	Abril	2023-04-18T00:00:00	2024-11-08T16:00:00	7	Dirección del viento	9.66
118903	7	Sololá	713	San Lucas Tolimán	10	San Lucas Tolimán	4	Abril	2023-04-18T00:00:00	2024-11-08T16:00:00	1	Precipitación	0
118904	7	Sololá	713	San Lucas Tolimán	10	San Lucas Tolimán	4	Abril	2023-04-18T00:00:00	2024-11-08T16:00:00	8	Radiación solar	453
118905	7	Sololá	713	San Lucas Tolimán	10	San Lucas Tolimán	4	Abril	2023-04-18T00:00:00	2024-11-08T17:00:00	2	Temperatura media	19.7
118906	7	Sololá	713	San Lucas Tolimán	10	San Lucas Tolimán	4	Abril	2023-04-18T00:00:00	2024-11-08T17:00:00	4	Temperatura máxima	21.4
118907	7	Sololá	713	San Lucas Tolimán	10	San Lucas Tolimán	4	Abril	2023-04-18T00:00:00	2024-11-08T17:00:00	3	Temperatura mínima	19.7
118908	7	Sololá	713	San Lucas Tolimán	10	San Lucas Tolimán	4	Abril	2023-04-18T00:00:00	2024-11-08T17:00:00	5	Humedad	64
118909	7	Sololá	713	San Lucas Tolimán	10	San Lucas Tolimán	4	Abril	2023-04-18T00:00:00	2024-11-08T17:00:00	6	Velocidad del viento	8
118910	7	Sololá	713	San Lucas Tolimán	10	San Lucas Tolimán	4	Abril	2023-04-18T00:00:00	2024-11-08T17:00:00	7	Dirección del viento	8.05
118911	7	Sololá	713	San Lucas Tolimán	10	San Lucas Tolimán	4	Abril	2023-04-18T00:00:00	2024-11-08T17:00:00	1	Precipitación	0
118912	7	Sololá	713	San Lucas Tolimán	10	San Lucas Tolimán	4	Abril	2023-04-18T00:00:00	2024-11-08T17:00:00	8	Radiación solar	99
118913	7	Sololá	713	San Lucas Tolimán	10	San Lucas Tolimán	4	Abril	2023-04-18T00:00:00	2024-11-08T18:00:00	2	Temperatura media	19.4
118914	7	Sololá	713	San Lucas Tolimán	10	San Lucas Tolimán	4	Abril	2023-04-18T00:00:00	2024-11-08T18:00:00	4	Temperatura máxima	19.7
118915	7	Sololá	713	San Lucas Tolimán	10	San Lucas Tolimán	4	Abril	2023-04-18T00:00:00	2024-11-08T18:00:00	3	Temperatura mínima	19.3
118916	7	Sololá	713	San Lucas Tolimán	10	San Lucas Tolimán	4	Abril	2023-04-18T00:00:00	2024-11-08T18:00:00	5	Humedad	63
118917	7	Sololá	713	San Lucas Tolimán	10	San Lucas Tolimán	4	Abril	2023-04-18T00:00:00	2024-11-08T18:00:00	6	Velocidad del viento	6.4
118918	7	Sololá	713	San Lucas Tolimán	10	San Lucas Tolimán	4	Abril	2023-04-18T00:00:00	2024-11-08T18:00:00	7	Dirección del viento	6.44
118919	7	Sololá	713	San Lucas Tolimán	10	San Lucas Tolimán	4	Abril	2023-04-18T00:00:00	2024-11-08T18:00:00	1	Precipitación	0
118920	7	Sololá	713	San Lucas Tolimán	10	San Lucas Tolimán	4	Abril	2023-04-18T00:00:00	2024-11-08T18:00:00	8	Radiación solar	26
118921	7	Sololá	713	San Lucas Tolimán	10	San Lucas Tolimán	4	Abril	2023-04-18T00:00:00	2024-11-08T19:00:00	2	Temperatura media	18.8
118922	7	Sololá	713	San Lucas Tolimán	10	San Lucas Tolimán	4	Abril	2023-04-18T00:00:00	2024-11-08T19:00:00	4	Temperatura máxima	19.4
118923	7	Sololá	713	San Lucas Tolimán	10	San Lucas Tolimán	4	Abril	2023-04-18T00:00:00	2024-11-08T19:00:00	3	Temperatura mínima	18.8
118924	7	Sololá	713	San Lucas Tolimán	10	San Lucas Tolimán	4	Abril	2023-04-18T00:00:00	2024-11-08T19:00:00	5	Humedad	62
118925	7	Sololá	713	San Lucas Tolimán	10	San Lucas Tolimán	4	Abril	2023-04-18T00:00:00	2024-11-08T19:00:00	6	Velocidad del viento	4.8
118926	7	Sololá	713	San Lucas Tolimán	10	San Lucas Tolimán	4	Abril	2023-04-18T00:00:00	2024-11-08T19:00:00	7	Dirección del viento	4.83
118927	7	Sololá	713	San Lucas Tolimán	10	San Lucas Tolimán	4	Abril	2023-04-18T00:00:00	2024-11-08T19:00:00	1	Precipitación	0
118928	7	Sololá	713	San Lucas Tolimán	10	San Lucas Tolimán	4	Abril	2023-04-18T00:00:00	2024-11-08T19:00:00	8	Radiación solar	0
118929	7	Sololá	713	San Lucas Tolimán	10	San Lucas Tolimán	4	Abril	2023-04-18T00:00:00	2024-11-08T20:00:00	2	Temperatura media	18.6
118930	7	Sololá	713	San Lucas Tolimán	10	San Lucas Tolimán	4	Abril	2023-04-18T00:00:00	2024-11-08T20:00:00	4	Temperatura máxima	18.9
118931	7	Sololá	713	San Lucas Tolimán	10	San Lucas Tolimán	4	Abril	2023-04-18T00:00:00	2024-11-08T20:00:00	3	Temperatura mínima	18.6
118932	7	Sololá	713	San Lucas Tolimán	10	San Lucas Tolimán	4	Abril	2023-04-18T00:00:00	2024-11-08T20:00:00	5	Humedad	61
118933	7	Sololá	713	San Lucas Tolimán	10	San Lucas Tolimán	4	Abril	2023-04-18T00:00:00	2024-11-08T20:00:00	6	Velocidad del viento	4.8
118934	7	Sololá	713	San Lucas Tolimán	10	San Lucas Tolimán	4	Abril	2023-04-18T00:00:00	2024-11-08T20:00:00	7	Dirección del viento	4.83
118935	7	Sololá	713	San Lucas Tolimán	10	San Lucas Tolimán	4	Abril	2023-04-18T00:00:00	2024-11-08T20:00:00	1	Precipitación	0
118936	7	Sololá	713	San Lucas Tolimán	10	San Lucas Tolimán	4	Abril	2023-04-18T00:00:00	2024-11-08T20:00:00	8	Radiación solar	0
118937	7	Sololá	713	San Lucas Tolimán	10	San Lucas Tolimán	4	Abril	2023-04-18T00:00:00	2024-11-08T21:00:00	2	Temperatura media	18.4
118938	7	Sololá	713	San Lucas Tolimán	10	San Lucas Tolimán	4	Abril	2023-04-18T00:00:00	2024-11-08T21:00:00	4	Temperatura máxima	18.7
118939	7	Sololá	713	San Lucas Tolimán	10	San Lucas Tolimán	4	Abril	2023-04-18T00:00:00	2024-11-08T21:00:00	3	Temperatura mínima	18.3
118940	7	Sololá	713	San Lucas Tolimán	10	San Lucas Tolimán	4	Abril	2023-04-18T00:00:00	2024-11-08T21:00:00	5	Humedad	62
118941	7	Sololá	713	San Lucas Tolimán	10	San Lucas Tolimán	4	Abril	2023-04-18T00:00:00	2024-11-08T21:00:00	6	Velocidad del viento	6.4
118942	7	Sololá	713	San Lucas Tolimán	10	San Lucas Tolimán	4	Abril	2023-04-18T00:00:00	2024-11-08T21:00:00	7	Dirección del viento	6.44
118943	7	Sololá	713	San Lucas Tolimán	10	San Lucas Tolimán	4	Abril	2023-04-18T00:00:00	2024-11-08T21:00:00	1	Precipitación	0
118944	7	Sololá	713	San Lucas Tolimán	10	San Lucas Tolimán	4	Abril	2023-04-18T00:00:00	2024-11-08T21:00:00	8	Radiación solar	0
118945	7	Sololá	713	San Lucas Tolimán	10	San Lucas Tolimán	4	Abril	2023-04-18T00:00:00	2024-11-08T22:00:00	2	Temperatura media	17.4
118946	7	Sololá	713	San Lucas Tolimán	10	San Lucas Tolimán	4	Abril	2023-04-18T00:00:00	2024-11-08T22:00:00	4	Temperatura máxima	18.4
118947	7	Sololá	713	San Lucas Tolimán	10	San Lucas Tolimán	4	Abril	2023-04-18T00:00:00	2024-11-08T22:00:00	3	Temperatura mínima	17.4
118948	7	Sololá	713	San Lucas Tolimán	10	San Lucas Tolimán	4	Abril	2023-04-18T00:00:00	2024-11-08T22:00:00	5	Humedad	62
118949	7	Sololá	713	San Lucas Tolimán	10	San Lucas Tolimán	4	Abril	2023-04-18T00:00:00	2024-11-08T22:00:00	6	Velocidad del viento	3.2
118950	7	Sololá	713	San Lucas Tolimán	10	San Lucas Tolimán	4	Abril	2023-04-18T00:00:00	2024-11-08T22:00:00	7	Dirección del viento	3.22
118951	7	Sololá	713	San Lucas Tolimán	10	San Lucas Tolimán	4	Abril	2023-04-18T00:00:00	2024-11-08T22:00:00	1	Precipitación	0
118952	7	Sololá	713	San Lucas Tolimán	10	San Lucas Tolimán	4	Abril	2023-04-18T00:00:00	2024-11-08T22:00:00	8	Radiación solar	0
118953	7	Sololá	713	San Lucas Tolimán	10	San Lucas Tolimán	4	Abril	2023-04-18T00:00:00	2024-11-08T23:00:00	2	Temperatura media	17
118954	7	Sololá	713	San Lucas Tolimán	10	San Lucas Tolimán	4	Abril	2023-04-18T00:00:00	2024-11-08T23:00:00	4	Temperatura máxima	17.4
118955	7	Sololá	713	San Lucas Tolimán	10	San Lucas Tolimán	4	Abril	2023-04-18T00:00:00	2024-11-08T23:00:00	3	Temperatura mínima	17
118956	7	Sololá	713	San Lucas Tolimán	10	San Lucas Tolimán	4	Abril	2023-04-18T00:00:00	2024-11-08T23:00:00	5	Humedad	62
118957	7	Sololá	713	San Lucas Tolimán	10	San Lucas Tolimán	4	Abril	2023-04-18T00:00:00	2024-11-08T23:00:00	6	Velocidad del viento	1.6
118958	7	Sololá	713	San Lucas Tolimán	10	San Lucas Tolimán	4	Abril	2023-04-18T00:00:00	2024-11-08T23:00:00	7	Dirección del viento	1.61
118959	7	Sololá	713	San Lucas Tolimán	10	San Lucas Tolimán	4	Abril	2023-04-18T00:00:00	2024-11-08T23:00:00	1	Precipitación	0
118960	7	Sololá	713	San Lucas Tolimán	10	San Lucas Tolimán	4	Abril	2023-04-18T00:00:00	2024-11-08T23:00:00	8	Radiación solar	0
118961	7	Sololá	713	San Lucas Tolimán	10	San Lucas Tolimán	4	Abril	2023-04-19T00:00:00	2024-11-08T00:00:00	2	Temperatura media	16.7
118962	7	Sololá	713	San Lucas Tolimán	10	San Lucas Tolimán	4	Abril	2023-04-19T00:00:00	2024-11-08T00:00:00	4	Temperatura máxima	17
118963	7	Sololá	713	San Lucas Tolimán	10	San Lucas Tolimán	4	Abril	2023-04-19T00:00:00	2024-11-08T00:00:00	3	Temperatura mínima	16.6
118964	7	Sololá	713	San Lucas Tolimán	10	San Lucas Tolimán	4	Abril	2023-04-19T00:00:00	2024-11-08T00:00:00	5	Humedad	59
118965	7	Sololá	713	San Lucas Tolimán	10	San Lucas Tolimán	4	Abril	2023-04-19T00:00:00	2024-11-08T00:00:00	6	Velocidad del viento	0
118966	7	Sololá	713	San Lucas Tolimán	10	San Lucas Tolimán	4	Abril	2023-04-19T00:00:00	2024-11-08T00:00:00	7	Dirección del viento	0
118967	7	Sololá	713	San Lucas Tolimán	10	San Lucas Tolimán	4	Abril	2023-04-19T00:00:00	2024-11-08T00:00:00	1	Precipitación	0
118968	7	Sololá	713	San Lucas Tolimán	10	San Lucas Tolimán	4	Abril	2023-04-19T00:00:00	2024-11-08T00:00:00	8	Radiación solar	0
118969	7	Sololá	713	San Lucas Tolimán	10	San Lucas Tolimán	4	Abril	2023-04-19T00:00:00	2024-11-08T01:00:00	2	Temperatura media	16.9
118970	7	Sololá	713	San Lucas Tolimán	10	San Lucas Tolimán	4	Abril	2023-04-19T00:00:00	2024-11-08T01:00:00	4	Temperatura máxima	16.9
118971	7	Sololá	713	San Lucas Tolimán	10	San Lucas Tolimán	4	Abril	2023-04-19T00:00:00	2024-11-08T01:00:00	3	Temperatura mínima	16.6
118972	7	Sololá	713	San Lucas Tolimán	10	San Lucas Tolimán	4	Abril	2023-04-19T00:00:00	2024-11-08T01:00:00	5	Humedad	57
118973	7	Sololá	713	San Lucas Tolimán	10	San Lucas Tolimán	4	Abril	2023-04-19T00:00:00	2024-11-08T01:00:00	6	Velocidad del viento	0
118974	7	Sololá	713	San Lucas Tolimán	10	San Lucas Tolimán	4	Abril	2023-04-19T00:00:00	2024-11-08T01:00:00	7	Dirección del viento	0
118975	7	Sololá	713	San Lucas Tolimán	10	San Lucas Tolimán	4	Abril	2023-04-19T00:00:00	2024-11-08T01:00:00	1	Precipitación	0
118976	7	Sololá	713	San Lucas Tolimán	10	San Lucas Tolimán	4	Abril	2023-04-19T00:00:00	2024-11-08T01:00:00	8	Radiación solar	0
118977	7	Sololá	713	San Lucas Tolimán	10	San Lucas Tolimán	4	Abril	2023-04-19T00:00:00	2024-11-08T02:00:00	2	Temperatura media	17.7
118978	7	Sololá	713	San Lucas Tolimán	10	San Lucas Tolimán	4	Abril	2023-04-19T00:00:00	2024-11-08T02:00:00	4	Temperatura máxima	18.1
118979	7	Sololá	713	San Lucas Tolimán	10	San Lucas Tolimán	4	Abril	2023-04-19T00:00:00	2024-11-08T02:00:00	3	Temperatura mínima	16.9
118980	7	Sololá	713	San Lucas Tolimán	10	San Lucas Tolimán	4	Abril	2023-04-19T00:00:00	2024-11-08T02:00:00	5	Humedad	58
118981	7	Sololá	713	San Lucas Tolimán	10	San Lucas Tolimán	4	Abril	2023-04-19T00:00:00	2024-11-08T02:00:00	6	Velocidad del viento	3.2
118982	7	Sololá	713	San Lucas Tolimán	10	San Lucas Tolimán	4	Abril	2023-04-19T00:00:00	2024-11-08T02:00:00	7	Dirección del viento	3.22
118983	7	Sololá	713	San Lucas Tolimán	10	San Lucas Tolimán	4	Abril	2023-04-19T00:00:00	2024-11-08T02:00:00	1	Precipitación	0
118984	7	Sololá	713	San Lucas Tolimán	10	San Lucas Tolimán	4	Abril	2023-04-19T00:00:00	2024-11-08T02:00:00	8	Radiación solar	0
118985	7	Sololá	713	San Lucas Tolimán	10	San Lucas Tolimán	4	Abril	2023-04-19T00:00:00	2024-11-08T03:00:00	2	Temperatura media	17.1
118986	7	Sololá	713	San Lucas Tolimán	10	San Lucas Tolimán	4	Abril	2023-04-19T00:00:00	2024-11-08T03:00:00	4	Temperatura máxima	17.7
118987	7	Sololá	713	San Lucas Tolimán	10	San Lucas Tolimán	4	Abril	2023-04-19T00:00:00	2024-11-08T03:00:00	3	Temperatura mínima	16.9
118988	7	Sololá	713	San Lucas Tolimán	10	San Lucas Tolimán	4	Abril	2023-04-19T00:00:00	2024-11-08T03:00:00	5	Humedad	58
118989	7	Sololá	713	San Lucas Tolimán	10	San Lucas Tolimán	4	Abril	2023-04-19T00:00:00	2024-11-08T03:00:00	6	Velocidad del viento	0
118990	7	Sololá	713	San Lucas Tolimán	10	San Lucas Tolimán	4	Abril	2023-04-19T00:00:00	2024-11-08T03:00:00	7	Dirección del viento	0
118991	7	Sololá	713	San Lucas Tolimán	10	San Lucas Tolimán	4	Abril	2023-04-19T00:00:00	2024-11-08T03:00:00	1	Precipitación	0
118992	7	Sololá	713	San Lucas Tolimán	10	San Lucas Tolimán	4	Abril	2023-04-19T00:00:00	2024-11-08T03:00:00	8	Radiación solar	0
118993	7	Sololá	713	San Lucas Tolimán	10	San Lucas Tolimán	4	Abril	2023-04-19T00:00:00	2024-11-08T04:00:00	2	Temperatura media	15.9
118994	7	Sololá	713	San Lucas Tolimán	10	San Lucas Tolimán	4	Abril	2023-04-19T00:00:00	2024-11-08T04:00:00	4	Temperatura máxima	17.2
118995	7	Sololá	713	San Lucas Tolimán	10	San Lucas Tolimán	4	Abril	2023-04-19T00:00:00	2024-11-08T04:00:00	3	Temperatura mínima	15.9
118996	7	Sololá	713	San Lucas Tolimán	10	San Lucas Tolimán	4	Abril	2023-04-19T00:00:00	2024-11-08T04:00:00	5	Humedad	61
118997	7	Sololá	713	San Lucas Tolimán	10	San Lucas Tolimán	4	Abril	2023-04-19T00:00:00	2024-11-08T04:00:00	6	Velocidad del viento	1.6
118998	7	Sololá	713	San Lucas Tolimán	10	San Lucas Tolimán	4	Abril	2023-04-19T00:00:00	2024-11-08T04:00:00	7	Dirección del viento	1.61
118999	7	Sololá	713	San Lucas Tolimán	10	San Lucas Tolimán	4	Abril	2023-04-19T00:00:00	2024-11-08T04:00:00	1	Precipitación	0
119000	7	Sololá	713	San Lucas Tolimán	10	San Lucas Tolimán	4	Abril	2023-04-19T00:00:00	2024-11-08T04:00:00	8	Radiación solar	0
119001	7	Sololá	713	San Lucas Tolimán	10	San Lucas Tolimán	4	Abril	2023-04-19T00:00:00	2024-11-08T05:00:00	2	Temperatura media	14.4
119002	7	Sololá	713	San Lucas Tolimán	10	San Lucas Tolimán	4	Abril	2023-04-19T00:00:00	2024-11-08T05:00:00	4	Temperatura máxima	16
119003	7	Sololá	713	San Lucas Tolimán	10	San Lucas Tolimán	4	Abril	2023-04-19T00:00:00	2024-11-08T05:00:00	3	Temperatura mínima	14.3
119004	7	Sololá	713	San Lucas Tolimán	10	San Lucas Tolimán	4	Abril	2023-04-19T00:00:00	2024-11-08T05:00:00	5	Humedad	64
119005	7	Sololá	713	San Lucas Tolimán	10	San Lucas Tolimán	4	Abril	2023-04-19T00:00:00	2024-11-08T05:00:00	6	Velocidad del viento	1.6
119006	7	Sololá	713	San Lucas Tolimán	10	San Lucas Tolimán	4	Abril	2023-04-19T00:00:00	2024-11-08T05:00:00	7	Dirección del viento	1.61
119007	7	Sololá	713	San Lucas Tolimán	10	San Lucas Tolimán	4	Abril	2023-04-19T00:00:00	2024-11-08T05:00:00	1	Precipitación	0
119008	7	Sololá	713	San Lucas Tolimán	10	San Lucas Tolimán	4	Abril	2023-04-19T00:00:00	2024-11-08T05:00:00	8	Radiación solar	0
119009	7	Sololá	713	San Lucas Tolimán	10	San Lucas Tolimán	4	Abril	2023-04-19T00:00:00	2024-11-08T06:00:00	2	Temperatura media	15.4
119010	7	Sololá	713	San Lucas Tolimán	10	San Lucas Tolimán	4	Abril	2023-04-19T00:00:00	2024-11-08T06:00:00	4	Temperatura máxima	15.4
119011	7	Sololá	713	San Lucas Tolimán	10	San Lucas Tolimán	4	Abril	2023-04-19T00:00:00	2024-11-08T06:00:00	3	Temperatura mínima	14.3
119012	7	Sololá	713	San Lucas Tolimán	10	San Lucas Tolimán	4	Abril	2023-04-19T00:00:00	2024-11-08T06:00:00	5	Humedad	59
119013	7	Sololá	713	San Lucas Tolimán	10	San Lucas Tolimán	4	Abril	2023-04-19T00:00:00	2024-11-08T06:00:00	6	Velocidad del viento	1.6
119014	7	Sololá	713	San Lucas Tolimán	10	San Lucas Tolimán	4	Abril	2023-04-19T00:00:00	2024-11-08T06:00:00	7	Dirección del viento	1.61
119015	7	Sololá	713	San Lucas Tolimán	10	San Lucas Tolimán	4	Abril	2023-04-19T00:00:00	2024-11-08T06:00:00	1	Precipitación	0
119016	7	Sololá	713	San Lucas Tolimán	10	San Lucas Tolimán	4	Abril	2023-04-19T00:00:00	2024-11-08T06:00:00	8	Radiación solar	1
119017	7	Sololá	713	San Lucas Tolimán	10	San Lucas Tolimán	4	Abril	2023-04-19T00:00:00	2024-11-08T07:00:00	2	Temperatura media	16.9
119018	7	Sololá	713	San Lucas Tolimán	10	San Lucas Tolimán	4	Abril	2023-04-19T00:00:00	2024-11-08T07:00:00	4	Temperatura máxima	16.9
119019	7	Sololá	713	San Lucas Tolimán	10	San Lucas Tolimán	4	Abril	2023-04-19T00:00:00	2024-11-08T07:00:00	3	Temperatura mínima	15.3
119020	7	Sololá	713	San Lucas Tolimán	10	San Lucas Tolimán	4	Abril	2023-04-19T00:00:00	2024-11-08T07:00:00	5	Humedad	56
119021	7	Sololá	713	San Lucas Tolimán	10	San Lucas Tolimán	4	Abril	2023-04-19T00:00:00	2024-11-08T07:00:00	6	Velocidad del viento	0
119022	7	Sololá	713	San Lucas Tolimán	10	San Lucas Tolimán	4	Abril	2023-04-19T00:00:00	2024-11-08T07:00:00	7	Dirección del viento	0
119023	7	Sololá	713	San Lucas Tolimán	10	San Lucas Tolimán	4	Abril	2023-04-19T00:00:00	2024-11-08T07:00:00	1	Precipitación	0
119024	7	Sololá	713	San Lucas Tolimán	10	San Lucas Tolimán	4	Abril	2023-04-19T00:00:00	2024-11-08T07:00:00	8	Radiación solar	56
119025	7	Sololá	713	San Lucas Tolimán	10	San Lucas Tolimán	4	Abril	2023-04-19T00:00:00	2024-11-08T08:00:00	2	Temperatura media	19.7
119026	7	Sololá	713	San Lucas Tolimán	10	San Lucas Tolimán	4	Abril	2023-04-19T00:00:00	2024-11-08T08:00:00	4	Temperatura máxima	19.7
119027	7	Sololá	713	San Lucas Tolimán	10	San Lucas Tolimán	4	Abril	2023-04-19T00:00:00	2024-11-08T08:00:00	3	Temperatura mínima	16.9
119028	7	Sololá	713	San Lucas Tolimán	10	San Lucas Tolimán	4	Abril	2023-04-19T00:00:00	2024-11-08T08:00:00	5	Humedad	51
119029	7	Sololá	713	San Lucas Tolimán	10	San Lucas Tolimán	4	Abril	2023-04-19T00:00:00	2024-11-08T08:00:00	6	Velocidad del viento	3.2
119030	7	Sololá	713	San Lucas Tolimán	10	San Lucas Tolimán	4	Abril	2023-04-19T00:00:00	2024-11-08T08:00:00	7	Dirección del viento	3.22
119031	7	Sololá	713	San Lucas Tolimán	10	San Lucas Tolimán	4	Abril	2023-04-19T00:00:00	2024-11-08T08:00:00	1	Precipitación	0
119032	7	Sololá	713	San Lucas Tolimán	10	San Lucas Tolimán	4	Abril	2023-04-19T00:00:00	2024-11-08T08:00:00	8	Radiación solar	299
119033	7	Sololá	713	San Lucas Tolimán	10	San Lucas Tolimán	4	Abril	2023-04-19T00:00:00	2024-11-08T09:00:00	2	Temperatura media	20.9
119034	7	Sololá	713	San Lucas Tolimán	10	San Lucas Tolimán	4	Abril	2023-04-19T00:00:00	2024-11-08T09:00:00	4	Temperatura máxima	20.9
119035	7	Sololá	713	San Lucas Tolimán	10	San Lucas Tolimán	4	Abril	2023-04-19T00:00:00	2024-11-08T09:00:00	3	Temperatura mínima	19.6
119036	7	Sololá	713	San Lucas Tolimán	10	San Lucas Tolimán	4	Abril	2023-04-19T00:00:00	2024-11-08T09:00:00	5	Humedad	48
119037	7	Sololá	713	San Lucas Tolimán	10	San Lucas Tolimán	4	Abril	2023-04-19T00:00:00	2024-11-08T09:00:00	6	Velocidad del viento	4.8
119038	7	Sololá	713	San Lucas Tolimán	10	San Lucas Tolimán	4	Abril	2023-04-19T00:00:00	2024-11-08T09:00:00	7	Dirección del viento	4.83
119039	7	Sololá	713	San Lucas Tolimán	10	San Lucas Tolimán	4	Abril	2023-04-19T00:00:00	2024-11-08T09:00:00	1	Precipitación	0
119040	7	Sololá	713	San Lucas Tolimán	10	San Lucas Tolimán	4	Abril	2023-04-19T00:00:00	2024-11-08T09:00:00	8	Radiación solar	491
119041	7	Sololá	713	San Lucas Tolimán	10	San Lucas Tolimán	4	Abril	2023-04-19T00:00:00	2024-11-08T10:00:00	2	Temperatura media	24
119042	7	Sololá	713	San Lucas Tolimán	10	San Lucas Tolimán	4	Abril	2023-04-19T00:00:00	2024-11-08T10:00:00	4	Temperatura máxima	24.2
119043	7	Sololá	713	San Lucas Tolimán	10	San Lucas Tolimán	4	Abril	2023-04-19T00:00:00	2024-11-08T10:00:00	3	Temperatura mínima	20.9
119044	7	Sololá	713	San Lucas Tolimán	10	San Lucas Tolimán	4	Abril	2023-04-19T00:00:00	2024-11-08T10:00:00	5	Humedad	45
119045	7	Sololá	713	San Lucas Tolimán	10	San Lucas Tolimán	4	Abril	2023-04-19T00:00:00	2024-11-08T10:00:00	6	Velocidad del viento	4.8
119046	7	Sololá	713	San Lucas Tolimán	10	San Lucas Tolimán	4	Abril	2023-04-19T00:00:00	2024-11-08T10:00:00	7	Dirección del viento	4.83
119047	7	Sololá	713	San Lucas Tolimán	10	San Lucas Tolimán	4	Abril	2023-04-19T00:00:00	2024-11-08T10:00:00	1	Precipitación	0
119048	7	Sololá	713	San Lucas Tolimán	10	San Lucas Tolimán	4	Abril	2023-04-19T00:00:00	2024-11-08T10:00:00	8	Radiación solar	733
119049	7	Sololá	713	San Lucas Tolimán	10	San Lucas Tolimán	4	Abril	2023-04-19T00:00:00	2024-11-08T11:00:00	2	Temperatura media	23.2
119050	7	Sololá	713	San Lucas Tolimán	10	San Lucas Tolimán	4	Abril	2023-04-19T00:00:00	2024-11-08T11:00:00	4	Temperatura máxima	24.1
119051	7	Sololá	713	San Lucas Tolimán	10	San Lucas Tolimán	4	Abril	2023-04-19T00:00:00	2024-11-08T11:00:00	3	Temperatura mínima	22.8
119052	7	Sololá	713	San Lucas Tolimán	10	San Lucas Tolimán	4	Abril	2023-04-19T00:00:00	2024-11-08T11:00:00	5	Humedad	51
119053	7	Sololá	713	San Lucas Tolimán	10	San Lucas Tolimán	4	Abril	2023-04-19T00:00:00	2024-11-08T11:00:00	6	Velocidad del viento	9.7
119054	7	Sololá	713	San Lucas Tolimán	10	San Lucas Tolimán	4	Abril	2023-04-19T00:00:00	2024-11-08T11:00:00	7	Dirección del viento	9.66
119055	7	Sololá	713	San Lucas Tolimán	10	San Lucas Tolimán	4	Abril	2023-04-19T00:00:00	2024-11-08T11:00:00	1	Precipitación	0
119056	7	Sololá	713	San Lucas Tolimán	10	San Lucas Tolimán	4	Abril	2023-04-19T00:00:00	2024-11-08T11:00:00	8	Radiación solar	993
119057	7	Sololá	713	San Lucas Tolimán	10	San Lucas Tolimán	4	Abril	2023-04-19T00:00:00	2024-11-08T12:00:00	2	Temperatura media	23.3
119058	7	Sololá	713	San Lucas Tolimán	10	San Lucas Tolimán	4	Abril	2023-04-19T00:00:00	2024-11-08T12:00:00	4	Temperatura máxima	23.9
119059	7	Sololá	713	San Lucas Tolimán	10	San Lucas Tolimán	4	Abril	2023-04-19T00:00:00	2024-11-08T12:00:00	3	Temperatura mínima	22.9
119060	7	Sololá	713	San Lucas Tolimán	10	San Lucas Tolimán	4	Abril	2023-04-19T00:00:00	2024-11-08T12:00:00	5	Humedad	57
119061	7	Sololá	713	San Lucas Tolimán	10	San Lucas Tolimán	4	Abril	2023-04-19T00:00:00	2024-11-08T12:00:00	6	Velocidad del viento	9.7
119062	7	Sololá	713	San Lucas Tolimán	10	San Lucas Tolimán	4	Abril	2023-04-19T00:00:00	2024-11-08T12:00:00	7	Dirección del viento	9.66
119063	7	Sololá	713	San Lucas Tolimán	10	San Lucas Tolimán	4	Abril	2023-04-19T00:00:00	2024-11-08T12:00:00	1	Precipitación	0
119064	7	Sololá	713	San Lucas Tolimán	10	San Lucas Tolimán	4	Abril	2023-04-19T00:00:00	2024-11-08T12:00:00	8	Radiación solar	1108
119065	7	Sololá	713	San Lucas Tolimán	10	San Lucas Tolimán	4	Abril	2023-04-19T00:00:00	2024-11-08T13:00:00	2	Temperatura media	23.8
119066	7	Sololá	713	San Lucas Tolimán	10	San Lucas Tolimán	4	Abril	2023-04-19T00:00:00	2024-11-08T13:00:00	4	Temperatura máxima	23.9
119067	7	Sololá	713	San Lucas Tolimán	10	San Lucas Tolimán	4	Abril	2023-04-19T00:00:00	2024-11-08T13:00:00	3	Temperatura mínima	23.3
119068	7	Sololá	713	San Lucas Tolimán	10	San Lucas Tolimán	4	Abril	2023-04-19T00:00:00	2024-11-08T13:00:00	5	Humedad	56
119069	7	Sololá	713	San Lucas Tolimán	10	San Lucas Tolimán	4	Abril	2023-04-19T00:00:00	2024-11-08T13:00:00	6	Velocidad del viento	9.7
119070	7	Sololá	713	San Lucas Tolimán	10	San Lucas Tolimán	4	Abril	2023-04-19T00:00:00	2024-11-08T13:00:00	7	Dirección del viento	9.66
119071	7	Sololá	713	San Lucas Tolimán	10	San Lucas Tolimán	4	Abril	2023-04-19T00:00:00	2024-11-08T13:00:00	1	Precipitación	0
119072	7	Sololá	713	San Lucas Tolimán	10	San Lucas Tolimán	4	Abril	2023-04-19T00:00:00	2024-11-08T13:00:00	8	Radiación solar	1144
119073	7	Sololá	713	San Lucas Tolimán	10	San Lucas Tolimán	4	Abril	2023-04-19T00:00:00	2024-11-08T14:00:00	2	Temperatura media	23.1
119074	7	Sololá	713	San Lucas Tolimán	10	San Lucas Tolimán	4	Abril	2023-04-19T00:00:00	2024-11-08T14:00:00	4	Temperatura máxima	23.9
119075	7	Sololá	713	San Lucas Tolimán	10	San Lucas Tolimán	4	Abril	2023-04-19T00:00:00	2024-11-08T14:00:00	3	Temperatura mínima	22.7
119076	7	Sololá	713	San Lucas Tolimán	10	San Lucas Tolimán	4	Abril	2023-04-19T00:00:00	2024-11-08T14:00:00	5	Humedad	59
119077	7	Sololá	713	San Lucas Tolimán	10	San Lucas Tolimán	4	Abril	2023-04-19T00:00:00	2024-11-08T14:00:00	6	Velocidad del viento	9.7
119078	7	Sololá	713	San Lucas Tolimán	10	San Lucas Tolimán	4	Abril	2023-04-19T00:00:00	2024-11-08T14:00:00	7	Dirección del viento	9.66
119079	7	Sololá	713	San Lucas Tolimán	10	San Lucas Tolimán	4	Abril	2023-04-19T00:00:00	2024-11-08T14:00:00	1	Precipitación	0
119080	7	Sololá	713	San Lucas Tolimán	10	San Lucas Tolimán	4	Abril	2023-04-19T00:00:00	2024-11-08T14:00:00	8	Radiación solar	1008
119081	7	Sololá	713	San Lucas Tolimán	10	San Lucas Tolimán	4	Abril	2023-04-19T00:00:00	2024-11-08T15:00:00	2	Temperatura media	23.1
119082	7	Sololá	713	San Lucas Tolimán	10	San Lucas Tolimán	4	Abril	2023-04-19T00:00:00	2024-11-08T15:00:00	4	Temperatura máxima	23.8
119083	7	Sololá	713	San Lucas Tolimán	10	San Lucas Tolimán	4	Abril	2023-04-19T00:00:00	2024-11-08T15:00:00	3	Temperatura mínima	22.7
119084	7	Sololá	713	San Lucas Tolimán	10	San Lucas Tolimán	4	Abril	2023-04-19T00:00:00	2024-11-08T15:00:00	5	Humedad	57
119085	7	Sololá	713	San Lucas Tolimán	10	San Lucas Tolimán	4	Abril	2023-04-19T00:00:00	2024-11-08T15:00:00	6	Velocidad del viento	11.3
119086	7	Sololá	713	San Lucas Tolimán	10	San Lucas Tolimán	4	Abril	2023-04-19T00:00:00	2024-11-08T15:00:00	7	Dirección del viento	11.27
119087	7	Sololá	713	San Lucas Tolimán	10	San Lucas Tolimán	4	Abril	2023-04-19T00:00:00	2024-11-08T15:00:00	1	Precipitación	0
119088	7	Sololá	713	San Lucas Tolimán	10	San Lucas Tolimán	4	Abril	2023-04-19T00:00:00	2024-11-08T15:00:00	8	Radiación solar	913
119089	7	Sololá	713	San Lucas Tolimán	10	San Lucas Tolimán	4	Abril	2023-04-19T00:00:00	2024-11-08T16:00:00	2	Temperatura media	22.7
119090	7	Sololá	713	San Lucas Tolimán	10	San Lucas Tolimán	4	Abril	2023-04-19T00:00:00	2024-11-08T16:00:00	4	Temperatura máxima	23.4
119091	7	Sololá	713	San Lucas Tolimán	10	San Lucas Tolimán	4	Abril	2023-04-19T00:00:00	2024-11-08T16:00:00	3	Temperatura mínima	22.4
119092	7	Sololá	713	San Lucas Tolimán	10	San Lucas Tolimán	4	Abril	2023-04-19T00:00:00	2024-11-08T16:00:00	5	Humedad	57
119093	7	Sololá	713	San Lucas Tolimán	10	San Lucas Tolimán	4	Abril	2023-04-19T00:00:00	2024-11-08T16:00:00	6	Velocidad del viento	9.7
119094	7	Sololá	713	San Lucas Tolimán	10	San Lucas Tolimán	4	Abril	2023-04-19T00:00:00	2024-11-08T16:00:00	7	Dirección del viento	9.66
119095	7	Sololá	713	San Lucas Tolimán	10	San Lucas Tolimán	4	Abril	2023-04-19T00:00:00	2024-11-08T16:00:00	1	Precipitación	0
119096	7	Sololá	713	San Lucas Tolimán	10	San Lucas Tolimán	4	Abril	2023-04-19T00:00:00	2024-11-08T16:00:00	8	Radiación solar	523
119097	7	Sololá	713	San Lucas Tolimán	10	San Lucas Tolimán	4	Abril	2023-04-19T00:00:00	2024-11-08T17:00:00	2	Temperatura media	20.8
119098	7	Sololá	713	San Lucas Tolimán	10	San Lucas Tolimán	4	Abril	2023-04-19T00:00:00	2024-11-08T17:00:00	4	Temperatura máxima	22.7
119099	7	Sololá	713	San Lucas Tolimán	10	San Lucas Tolimán	4	Abril	2023-04-19T00:00:00	2024-11-08T17:00:00	3	Temperatura mínima	20.8
119100	7	Sololá	713	San Lucas Tolimán	10	San Lucas Tolimán	4	Abril	2023-04-19T00:00:00	2024-11-08T17:00:00	5	Humedad	61
119101	7	Sololá	713	San Lucas Tolimán	10	San Lucas Tolimán	4	Abril	2023-04-19T00:00:00	2024-11-08T17:00:00	6	Velocidad del viento	8
119102	7	Sololá	713	San Lucas Tolimán	10	San Lucas Tolimán	4	Abril	2023-04-19T00:00:00	2024-11-08T17:00:00	7	Dirección del viento	8.05
119103	7	Sololá	713	San Lucas Tolimán	10	San Lucas Tolimán	4	Abril	2023-04-19T00:00:00	2024-11-08T17:00:00	1	Precipitación	0
119104	7	Sololá	713	San Lucas Tolimán	10	San Lucas Tolimán	4	Abril	2023-04-19T00:00:00	2024-11-08T17:00:00	8	Radiación solar	145
119105	7	Sololá	713	San Lucas Tolimán	10	San Lucas Tolimán	4	Abril	2023-04-19T00:00:00	2024-11-08T18:00:00	2	Temperatura media	18.9
119106	7	Sololá	713	San Lucas Tolimán	10	San Lucas Tolimán	4	Abril	2023-04-19T00:00:00	2024-11-08T18:00:00	4	Temperatura máxima	20.8
119107	7	Sololá	713	San Lucas Tolimán	10	San Lucas Tolimán	4	Abril	2023-04-19T00:00:00	2024-11-08T18:00:00	3	Temperatura mínima	18.9
119108	7	Sololá	713	San Lucas Tolimán	10	San Lucas Tolimán	4	Abril	2023-04-19T00:00:00	2024-11-08T18:00:00	5	Humedad	68
119109	7	Sololá	713	San Lucas Tolimán	10	San Lucas Tolimán	4	Abril	2023-04-19T00:00:00	2024-11-08T18:00:00	6	Velocidad del viento	8
119110	7	Sololá	713	San Lucas Tolimán	10	San Lucas Tolimán	4	Abril	2023-04-19T00:00:00	2024-11-08T18:00:00	7	Dirección del viento	8.05
119111	7	Sololá	713	San Lucas Tolimán	10	San Lucas Tolimán	4	Abril	2023-04-19T00:00:00	2024-11-08T18:00:00	1	Precipitación	0.6
119112	7	Sololá	713	San Lucas Tolimán	10	San Lucas Tolimán	4	Abril	2023-04-19T00:00:00	2024-11-08T18:00:00	8	Radiación solar	19
119113	7	Sololá	713	San Lucas Tolimán	10	San Lucas Tolimán	4	Abril	2023-04-19T00:00:00	2024-11-08T19:00:00	2	Temperatura media	18.8
119114	7	Sololá	713	San Lucas Tolimán	10	San Lucas Tolimán	4	Abril	2023-04-19T00:00:00	2024-11-08T19:00:00	4	Temperatura máxima	19
119115	7	Sololá	713	San Lucas Tolimán	10	San Lucas Tolimán	4	Abril	2023-04-19T00:00:00	2024-11-08T19:00:00	3	Temperatura mínima	18.7
119116	7	Sololá	713	San Lucas Tolimán	10	San Lucas Tolimán	4	Abril	2023-04-19T00:00:00	2024-11-08T19:00:00	5	Humedad	68
119117	7	Sololá	713	San Lucas Tolimán	10	San Lucas Tolimán	4	Abril	2023-04-19T00:00:00	2024-11-08T19:00:00	6	Velocidad del viento	4.8
119118	7	Sololá	713	San Lucas Tolimán	10	San Lucas Tolimán	4	Abril	2023-04-19T00:00:00	2024-11-08T19:00:00	7	Dirección del viento	4.83
119119	7	Sololá	713	San Lucas Tolimán	10	San Lucas Tolimán	4	Abril	2023-04-19T00:00:00	2024-11-08T19:00:00	1	Precipitación	0
119120	7	Sololá	713	San Lucas Tolimán	10	San Lucas Tolimán	4	Abril	2023-04-19T00:00:00	2024-11-08T19:00:00	8	Radiación solar	0
119121	7	Sololá	713	San Lucas Tolimán	10	San Lucas Tolimán	4	Abril	2023-04-19T00:00:00	2024-11-08T20:00:00	2	Temperatura media	18.8
119122	7	Sololá	713	San Lucas Tolimán	10	San Lucas Tolimán	4	Abril	2023-04-19T00:00:00	2024-11-08T20:00:00	4	Temperatura máxima	18.9
119123	7	Sololá	713	San Lucas Tolimán	10	San Lucas Tolimán	4	Abril	2023-04-19T00:00:00	2024-11-08T20:00:00	3	Temperatura mínima	18.7
119124	7	Sololá	713	San Lucas Tolimán	10	San Lucas Tolimán	4	Abril	2023-04-19T00:00:00	2024-11-08T20:00:00	5	Humedad	67
119125	7	Sololá	713	San Lucas Tolimán	10	San Lucas Tolimán	4	Abril	2023-04-19T00:00:00	2024-11-08T20:00:00	6	Velocidad del viento	4.8
119126	7	Sololá	713	San Lucas Tolimán	10	San Lucas Tolimán	4	Abril	2023-04-19T00:00:00	2024-11-08T20:00:00	7	Dirección del viento	4.83
119127	7	Sololá	713	San Lucas Tolimán	10	San Lucas Tolimán	4	Abril	2023-04-19T00:00:00	2024-11-08T20:00:00	1	Precipitación	0
119128	7	Sololá	713	San Lucas Tolimán	10	San Lucas Tolimán	4	Abril	2023-04-19T00:00:00	2024-11-08T20:00:00	8	Radiación solar	0
119129	7	Sololá	713	San Lucas Tolimán	10	San Lucas Tolimán	4	Abril	2023-04-19T00:00:00	2024-11-08T21:00:00	2	Temperatura media	18.5
119130	7	Sololá	713	San Lucas Tolimán	10	San Lucas Tolimán	4	Abril	2023-04-19T00:00:00	2024-11-08T21:00:00	4	Temperatura máxima	18.8
119131	7	Sololá	713	San Lucas Tolimán	10	San Lucas Tolimán	4	Abril	2023-04-19T00:00:00	2024-11-08T21:00:00	3	Temperatura mínima	18.5
119132	7	Sololá	713	San Lucas Tolimán	10	San Lucas Tolimán	4	Abril	2023-04-19T00:00:00	2024-11-08T21:00:00	5	Humedad	67
119133	7	Sololá	713	San Lucas Tolimán	10	San Lucas Tolimán	4	Abril	2023-04-19T00:00:00	2024-11-08T21:00:00	6	Velocidad del viento	4.8
119134	7	Sololá	713	San Lucas Tolimán	10	San Lucas Tolimán	4	Abril	2023-04-19T00:00:00	2024-11-08T21:00:00	7	Dirección del viento	4.83
119135	7	Sololá	713	San Lucas Tolimán	10	San Lucas Tolimán	4	Abril	2023-04-19T00:00:00	2024-11-08T21:00:00	1	Precipitación	0
119136	7	Sololá	713	San Lucas Tolimán	10	San Lucas Tolimán	4	Abril	2023-04-19T00:00:00	2024-11-08T21:00:00	8	Radiación solar	0
119137	7	Sololá	713	San Lucas Tolimán	10	San Lucas Tolimán	4	Abril	2023-04-19T00:00:00	2024-11-08T22:00:00	2	Temperatura media	18.4
119138	7	Sololá	713	San Lucas Tolimán	10	San Lucas Tolimán	4	Abril	2023-04-19T00:00:00	2024-11-08T22:00:00	4	Temperatura máxima	18.6
119139	7	Sololá	713	San Lucas Tolimán	10	San Lucas Tolimán	4	Abril	2023-04-19T00:00:00	2024-11-08T22:00:00	3	Temperatura mínima	18.4
119140	7	Sololá	713	San Lucas Tolimán	10	San Lucas Tolimán	4	Abril	2023-04-19T00:00:00	2024-11-08T22:00:00	5	Humedad	68
119141	7	Sololá	713	San Lucas Tolimán	10	San Lucas Tolimán	4	Abril	2023-04-19T00:00:00	2024-11-08T22:00:00	6	Velocidad del viento	4.8
119142	7	Sololá	713	San Lucas Tolimán	10	San Lucas Tolimán	4	Abril	2023-04-19T00:00:00	2024-11-08T22:00:00	7	Dirección del viento	4.83
119143	7	Sololá	713	San Lucas Tolimán	10	San Lucas Tolimán	4	Abril	2023-04-19T00:00:00	2024-11-08T22:00:00	1	Precipitación	0
119144	7	Sololá	713	San Lucas Tolimán	10	San Lucas Tolimán	4	Abril	2023-04-19T00:00:00	2024-11-08T22:00:00	8	Radiación solar	0
119145	7	Sololá	713	San Lucas Tolimán	10	San Lucas Tolimán	4	Abril	2023-04-19T00:00:00	2024-11-08T23:00:00	2	Temperatura media	18.1
119146	7	Sololá	713	San Lucas Tolimán	10	San Lucas Tolimán	4	Abril	2023-04-19T00:00:00	2024-11-08T23:00:00	4	Temperatura máxima	18.5
119147	7	Sololá	713	San Lucas Tolimán	10	San Lucas Tolimán	4	Abril	2023-04-19T00:00:00	2024-11-08T23:00:00	3	Temperatura mínima	18.1
119148	7	Sololá	713	San Lucas Tolimán	10	San Lucas Tolimán	4	Abril	2023-04-19T00:00:00	2024-11-08T23:00:00	5	Humedad	68
119149	7	Sololá	713	San Lucas Tolimán	10	San Lucas Tolimán	4	Abril	2023-04-19T00:00:00	2024-11-08T23:00:00	6	Velocidad del viento	4.8
119150	7	Sololá	713	San Lucas Tolimán	10	San Lucas Tolimán	4	Abril	2023-04-19T00:00:00	2024-11-08T23:00:00	7	Dirección del viento	4.83
119151	7	Sololá	713	San Lucas Tolimán	10	San Lucas Tolimán	4	Abril	2023-04-19T00:00:00	2024-11-08T23:00:00	1	Precipitación	0
119152	7	Sololá	713	San Lucas Tolimán	10	San Lucas Tolimán	4	Abril	2023-04-19T00:00:00	2024-11-08T23:00:00	8	Radiación solar	0
119153	7	Sololá	713	San Lucas Tolimán	10	San Lucas Tolimán	4	Abril	2023-04-20T00:00:00	2024-11-08T00:00:00	2	Temperatura media	17.8
119154	7	Sololá	713	San Lucas Tolimán	10	San Lucas Tolimán	4	Abril	2023-04-20T00:00:00	2024-11-08T00:00:00	4	Temperatura máxima	18.1
119155	7	Sololá	713	San Lucas Tolimán	10	San Lucas Tolimán	4	Abril	2023-04-20T00:00:00	2024-11-08T00:00:00	3	Temperatura mínima	17.8
119156	7	Sololá	713	San Lucas Tolimán	10	San Lucas Tolimán	4	Abril	2023-04-20T00:00:00	2024-11-08T00:00:00	5	Humedad	68
119157	7	Sololá	713	San Lucas Tolimán	10	San Lucas Tolimán	4	Abril	2023-04-20T00:00:00	2024-11-08T00:00:00	6	Velocidad del viento	6.4
119158	7	Sololá	713	San Lucas Tolimán	10	San Lucas Tolimán	4	Abril	2023-04-20T00:00:00	2024-11-08T00:00:00	7	Dirección del viento	6.44
119159	7	Sololá	713	San Lucas Tolimán	10	San Lucas Tolimán	4	Abril	2023-04-20T00:00:00	2024-11-08T00:00:00	1	Precipitación	0
119160	7	Sololá	713	San Lucas Tolimán	10	San Lucas Tolimán	4	Abril	2023-04-20T00:00:00	2024-11-08T00:00:00	8	Radiación solar	0
119161	7	Sololá	713	San Lucas Tolimán	10	San Lucas Tolimán	4	Abril	2023-04-20T00:00:00	2024-11-08T01:00:00	2	Temperatura media	17.3
119162	7	Sololá	713	San Lucas Tolimán	10	San Lucas Tolimán	4	Abril	2023-04-20T00:00:00	2024-11-08T01:00:00	4	Temperatura máxima	17.8
119163	7	Sololá	713	San Lucas Tolimán	10	San Lucas Tolimán	4	Abril	2023-04-20T00:00:00	2024-11-08T01:00:00	3	Temperatura mínima	17.3
119164	7	Sololá	713	San Lucas Tolimán	10	San Lucas Tolimán	4	Abril	2023-04-20T00:00:00	2024-11-08T01:00:00	5	Humedad	68
119165	7	Sololá	713	San Lucas Tolimán	10	San Lucas Tolimán	4	Abril	2023-04-20T00:00:00	2024-11-08T01:00:00	6	Velocidad del viento	4.8
119166	7	Sololá	713	San Lucas Tolimán	10	San Lucas Tolimán	4	Abril	2023-04-20T00:00:00	2024-11-08T01:00:00	7	Dirección del viento	4.83
119167	7	Sololá	713	San Lucas Tolimán	10	San Lucas Tolimán	4	Abril	2023-04-20T00:00:00	2024-11-08T01:00:00	1	Precipitación	0
119168	7	Sololá	713	San Lucas Tolimán	10	San Lucas Tolimán	4	Abril	2023-04-20T00:00:00	2024-11-08T01:00:00	8	Radiación solar	0
119169	7	Sololá	713	San Lucas Tolimán	10	San Lucas Tolimán	4	Abril	2023-04-20T00:00:00	2024-11-08T02:00:00	2	Temperatura media	17.1
119170	7	Sololá	713	San Lucas Tolimán	10	San Lucas Tolimán	4	Abril	2023-04-20T00:00:00	2024-11-08T02:00:00	4	Temperatura máxima	17.4
119171	7	Sololá	713	San Lucas Tolimán	10	San Lucas Tolimán	4	Abril	2023-04-20T00:00:00	2024-11-08T02:00:00	3	Temperatura mínima	17.1
119172	7	Sololá	713	San Lucas Tolimán	10	San Lucas Tolimán	4	Abril	2023-04-20T00:00:00	2024-11-08T02:00:00	5	Humedad	67
119173	7	Sololá	713	San Lucas Tolimán	10	San Lucas Tolimán	4	Abril	2023-04-20T00:00:00	2024-11-08T02:00:00	6	Velocidad del viento	4.8
119174	7	Sololá	713	San Lucas Tolimán	10	San Lucas Tolimán	4	Abril	2023-04-20T00:00:00	2024-11-08T02:00:00	7	Dirección del viento	4.83
119175	7	Sololá	713	San Lucas Tolimán	10	San Lucas Tolimán	4	Abril	2023-04-20T00:00:00	2024-11-08T02:00:00	1	Precipitación	0
119176	7	Sololá	713	San Lucas Tolimán	10	San Lucas Tolimán	4	Abril	2023-04-20T00:00:00	2024-11-08T02:00:00	8	Radiación solar	0
119177	7	Sololá	713	San Lucas Tolimán	10	San Lucas Tolimán	4	Abril	2023-04-20T00:00:00	2024-11-08T03:00:00	2	Temperatura media	16.1
119178	7	Sololá	713	San Lucas Tolimán	10	San Lucas Tolimán	4	Abril	2023-04-20T00:00:00	2024-11-08T03:00:00	4	Temperatura máxima	17.1
119179	7	Sololá	713	San Lucas Tolimán	10	San Lucas Tolimán	4	Abril	2023-04-20T00:00:00	2024-11-08T03:00:00	3	Temperatura mínima	16
119180	7	Sololá	713	San Lucas Tolimán	10	San Lucas Tolimán	4	Abril	2023-04-20T00:00:00	2024-11-08T03:00:00	5	Humedad	64
119181	7	Sololá	713	San Lucas Tolimán	10	San Lucas Tolimán	4	Abril	2023-04-20T00:00:00	2024-11-08T03:00:00	6	Velocidad del viento	3.2
119182	7	Sololá	713	San Lucas Tolimán	10	San Lucas Tolimán	4	Abril	2023-04-20T00:00:00	2024-11-08T03:00:00	7	Dirección del viento	3.22
119183	7	Sololá	713	San Lucas Tolimán	10	San Lucas Tolimán	4	Abril	2023-04-20T00:00:00	2024-11-08T03:00:00	1	Precipitación	0
119184	7	Sololá	713	San Lucas Tolimán	10	San Lucas Tolimán	4	Abril	2023-04-20T00:00:00	2024-11-08T03:00:00	8	Radiación solar	0
119185	7	Sololá	713	San Lucas Tolimán	10	San Lucas Tolimán	4	Abril	2023-04-20T00:00:00	2024-11-08T04:00:00	2	Temperatura media	15.8
119186	7	Sololá	713	San Lucas Tolimán	10	San Lucas Tolimán	4	Abril	2023-04-20T00:00:00	2024-11-08T04:00:00	4	Temperatura máxima	16.3
119187	7	Sololá	713	San Lucas Tolimán	10	San Lucas Tolimán	4	Abril	2023-04-20T00:00:00	2024-11-08T04:00:00	3	Temperatura mínima	15.8
119188	7	Sololá	713	San Lucas Tolimán	10	San Lucas Tolimán	4	Abril	2023-04-20T00:00:00	2024-11-08T04:00:00	5	Humedad	63
119189	7	Sololá	713	San Lucas Tolimán	10	San Lucas Tolimán	4	Abril	2023-04-20T00:00:00	2024-11-08T04:00:00	6	Velocidad del viento	3.2
119190	7	Sololá	713	San Lucas Tolimán	10	San Lucas Tolimán	4	Abril	2023-04-20T00:00:00	2024-11-08T04:00:00	7	Dirección del viento	3.22
119191	7	Sololá	713	San Lucas Tolimán	10	San Lucas Tolimán	4	Abril	2023-04-20T00:00:00	2024-11-08T04:00:00	1	Precipitación	0
119192	7	Sololá	713	San Lucas Tolimán	10	San Lucas Tolimán	4	Abril	2023-04-20T00:00:00	2024-11-08T04:00:00	8	Radiación solar	0
119193	7	Sololá	713	San Lucas Tolimán	10	San Lucas Tolimán	4	Abril	2023-04-20T00:00:00	2024-11-08T05:00:00	2	Temperatura media	16.3
119194	7	Sololá	713	San Lucas Tolimán	10	San Lucas Tolimán	4	Abril	2023-04-20T00:00:00	2024-11-08T05:00:00	4	Temperatura máxima	16.6
119195	7	Sololá	713	San Lucas Tolimán	10	San Lucas Tolimán	4	Abril	2023-04-20T00:00:00	2024-11-08T05:00:00	3	Temperatura mínima	15.7
119196	7	Sololá	713	San Lucas Tolimán	10	San Lucas Tolimán	4	Abril	2023-04-20T00:00:00	2024-11-08T05:00:00	5	Humedad	61
119197	7	Sololá	713	San Lucas Tolimán	10	San Lucas Tolimán	4	Abril	2023-04-20T00:00:00	2024-11-08T05:00:00	6	Velocidad del viento	1.6
119198	7	Sololá	713	San Lucas Tolimán	10	San Lucas Tolimán	4	Abril	2023-04-20T00:00:00	2024-11-08T05:00:00	7	Dirección del viento	1.61
119199	7	Sololá	713	San Lucas Tolimán	10	San Lucas Tolimán	4	Abril	2023-04-20T00:00:00	2024-11-08T05:00:00	1	Precipitación	0
119200	7	Sololá	713	San Lucas Tolimán	10	San Lucas Tolimán	4	Abril	2023-04-20T00:00:00	2024-11-08T05:00:00	8	Radiación solar	0
119201	7	Sololá	713	San Lucas Tolimán	10	San Lucas Tolimán	4	Abril	2023-04-20T00:00:00	2024-11-08T06:00:00	2	Temperatura media	16
119202	7	Sololá	713	San Lucas Tolimán	10	San Lucas Tolimán	4	Abril	2023-04-20T00:00:00	2024-11-08T06:00:00	4	Temperatura máxima	16.7
119203	7	Sololá	713	San Lucas Tolimán	10	San Lucas Tolimán	4	Abril	2023-04-20T00:00:00	2024-11-08T06:00:00	3	Temperatura mínima	15.8
119204	7	Sololá	713	San Lucas Tolimán	10	San Lucas Tolimán	4	Abril	2023-04-20T00:00:00	2024-11-08T06:00:00	5	Humedad	60
119205	7	Sololá	713	San Lucas Tolimán	10	San Lucas Tolimán	4	Abril	2023-04-20T00:00:00	2024-11-08T06:00:00	6	Velocidad del viento	1.6
119206	7	Sololá	713	San Lucas Tolimán	10	San Lucas Tolimán	4	Abril	2023-04-20T00:00:00	2024-11-08T06:00:00	7	Dirección del viento	1.61
119207	7	Sololá	713	San Lucas Tolimán	10	San Lucas Tolimán	4	Abril	2023-04-20T00:00:00	2024-11-08T06:00:00	1	Precipitación	0
119208	7	Sololá	713	San Lucas Tolimán	10	San Lucas Tolimán	4	Abril	2023-04-20T00:00:00	2024-11-08T06:00:00	8	Radiación solar	0
119209	7	Sololá	713	San Lucas Tolimán	10	San Lucas Tolimán	4	Abril	2023-04-20T00:00:00	2024-11-08T07:00:00	2	Temperatura media	16.9
119210	7	Sololá	713	San Lucas Tolimán	10	San Lucas Tolimán	4	Abril	2023-04-20T00:00:00	2024-11-08T07:00:00	4	Temperatura máxima	17
119211	7	Sololá	713	San Lucas Tolimán	10	San Lucas Tolimán	4	Abril	2023-04-20T00:00:00	2024-11-08T07:00:00	3	Temperatura mínima	16
119212	7	Sololá	713	San Lucas Tolimán	10	San Lucas Tolimán	4	Abril	2023-04-20T00:00:00	2024-11-08T07:00:00	5	Humedad	59
119213	7	Sololá	713	San Lucas Tolimán	10	San Lucas Tolimán	4	Abril	2023-04-20T00:00:00	2024-11-08T07:00:00	6	Velocidad del viento	1.6
119214	7	Sololá	713	San Lucas Tolimán	10	San Lucas Tolimán	4	Abril	2023-04-20T00:00:00	2024-11-08T07:00:00	7	Dirección del viento	1.61
119215	7	Sololá	713	San Lucas Tolimán	10	San Lucas Tolimán	4	Abril	2023-04-20T00:00:00	2024-11-08T07:00:00	1	Precipitación	0
119216	7	Sololá	713	San Lucas Tolimán	10	San Lucas Tolimán	4	Abril	2023-04-20T00:00:00	2024-11-08T07:00:00	8	Radiación solar	54
119217	7	Sololá	713	San Lucas Tolimán	10	San Lucas Tolimán	4	Abril	2023-04-20T00:00:00	2024-11-08T08:00:00	2	Temperatura media	18.1
119218	7	Sololá	713	San Lucas Tolimán	10	San Lucas Tolimán	4	Abril	2023-04-20T00:00:00	2024-11-08T08:00:00	4	Temperatura máxima	18.1
119219	7	Sololá	713	San Lucas Tolimán	10	San Lucas Tolimán	4	Abril	2023-04-20T00:00:00	2024-11-08T08:00:00	3	Temperatura mínima	16.9
119220	7	Sololá	713	San Lucas Tolimán	10	San Lucas Tolimán	4	Abril	2023-04-20T00:00:00	2024-11-08T08:00:00	5	Humedad	56
119221	7	Sololá	713	San Lucas Tolimán	10	San Lucas Tolimán	4	Abril	2023-04-20T00:00:00	2024-11-08T08:00:00	6	Velocidad del viento	1.6
119222	7	Sololá	713	San Lucas Tolimán	10	San Lucas Tolimán	4	Abril	2023-04-20T00:00:00	2024-11-08T08:00:00	7	Dirección del viento	1.61
119223	7	Sololá	713	San Lucas Tolimán	10	San Lucas Tolimán	4	Abril	2023-04-20T00:00:00	2024-11-08T08:00:00	1	Precipitación	0
119224	7	Sololá	713	San Lucas Tolimán	10	San Lucas Tolimán	4	Abril	2023-04-20T00:00:00	2024-11-08T08:00:00	8	Radiación solar	196
119225	7	Sololá	713	San Lucas Tolimán	10	San Lucas Tolimán	4	Abril	2023-04-20T00:00:00	2024-11-08T09:00:00	2	Temperatura media	19.4
119226	7	Sololá	713	San Lucas Tolimán	10	San Lucas Tolimán	4	Abril	2023-04-20T00:00:00	2024-11-08T09:00:00	4	Temperatura máxima	19.4
119227	7	Sololá	713	San Lucas Tolimán	10	San Lucas Tolimán	4	Abril	2023-04-20T00:00:00	2024-11-08T09:00:00	3	Temperatura mínima	18.1
119228	7	Sololá	713	San Lucas Tolimán	10	San Lucas Tolimán	4	Abril	2023-04-20T00:00:00	2024-11-08T09:00:00	5	Humedad	53
119229	7	Sololá	713	San Lucas Tolimán	10	San Lucas Tolimán	4	Abril	2023-04-20T00:00:00	2024-11-08T09:00:00	6	Velocidad del viento	3.2
119230	7	Sololá	713	San Lucas Tolimán	10	San Lucas Tolimán	4	Abril	2023-04-20T00:00:00	2024-11-08T09:00:00	7	Dirección del viento	3.22
119231	7	Sololá	713	San Lucas Tolimán	10	San Lucas Tolimán	4	Abril	2023-04-20T00:00:00	2024-11-08T09:00:00	1	Precipitación	0
119232	7	Sololá	713	San Lucas Tolimán	10	San Lucas Tolimán	4	Abril	2023-04-20T00:00:00	2024-11-08T09:00:00	8	Radiación solar	330
119233	7	Sololá	713	San Lucas Tolimán	10	San Lucas Tolimán	4	Abril	2023-04-20T00:00:00	2024-11-08T10:00:00	2	Temperatura media	20.6
119234	7	Sololá	713	San Lucas Tolimán	10	San Lucas Tolimán	4	Abril	2023-04-20T00:00:00	2024-11-08T10:00:00	4	Temperatura máxima	20.7
119235	7	Sololá	713	San Lucas Tolimán	10	San Lucas Tolimán	4	Abril	2023-04-20T00:00:00	2024-11-08T10:00:00	3	Temperatura mínima	19.4
119236	7	Sololá	713	San Lucas Tolimán	10	San Lucas Tolimán	4	Abril	2023-04-20T00:00:00	2024-11-08T10:00:00	5	Humedad	52
119237	7	Sololá	713	San Lucas Tolimán	10	San Lucas Tolimán	4	Abril	2023-04-20T00:00:00	2024-11-08T10:00:00	6	Velocidad del viento	4.8
119238	7	Sololá	713	San Lucas Tolimán	10	San Lucas Tolimán	4	Abril	2023-04-20T00:00:00	2024-11-08T10:00:00	7	Dirección del viento	4.83
119239	7	Sololá	713	San Lucas Tolimán	10	San Lucas Tolimán	4	Abril	2023-04-20T00:00:00	2024-11-08T10:00:00	1	Precipitación	0
119240	7	Sololá	713	San Lucas Tolimán	10	San Lucas Tolimán	4	Abril	2023-04-20T00:00:00	2024-11-08T10:00:00	8	Radiación solar	545
119241	7	Sololá	713	San Lucas Tolimán	10	San Lucas Tolimán	4	Abril	2023-04-20T00:00:00	2024-11-08T11:00:00	2	Temperatura media	21.4
119242	7	Sololá	713	San Lucas Tolimán	10	San Lucas Tolimán	4	Abril	2023-04-20T00:00:00	2024-11-08T11:00:00	4	Temperatura máxima	22.1
119243	7	Sololá	713	San Lucas Tolimán	10	San Lucas Tolimán	4	Abril	2023-04-20T00:00:00	2024-11-08T11:00:00	3	Temperatura mínima	20.6
119244	7	Sololá	713	San Lucas Tolimán	10	San Lucas Tolimán	4	Abril	2023-04-20T00:00:00	2024-11-08T11:00:00	5	Humedad	57
119245	7	Sololá	713	San Lucas Tolimán	10	San Lucas Tolimán	4	Abril	2023-04-20T00:00:00	2024-11-08T11:00:00	6	Velocidad del viento	6.4
119246	7	Sololá	713	San Lucas Tolimán	10	San Lucas Tolimán	4	Abril	2023-04-20T00:00:00	2024-11-08T11:00:00	7	Dirección del viento	6.44
119247	7	Sololá	713	San Lucas Tolimán	10	San Lucas Tolimán	4	Abril	2023-04-20T00:00:00	2024-11-08T11:00:00	1	Precipitación	0
119248	7	Sololá	713	San Lucas Tolimán	10	San Lucas Tolimán	4	Abril	2023-04-20T00:00:00	2024-11-08T11:00:00	8	Radiación solar	563
119249	7	Sololá	713	San Lucas Tolimán	10	San Lucas Tolimán	4	Abril	2023-04-20T00:00:00	2024-11-08T12:00:00	2	Temperatura media	21.8
119250	7	Sololá	713	San Lucas Tolimán	10	San Lucas Tolimán	4	Abril	2023-04-20T00:00:00	2024-11-08T12:00:00	4	Temperatura máxima	21.8
119251	7	Sololá	713	San Lucas Tolimán	10	San Lucas Tolimán	4	Abril	2023-04-20T00:00:00	2024-11-08T12:00:00	3	Temperatura mínima	21.3
119252	7	Sololá	713	San Lucas Tolimán	10	San Lucas Tolimán	4	Abril	2023-04-20T00:00:00	2024-11-08T12:00:00	5	Humedad	57
119253	7	Sololá	713	San Lucas Tolimán	10	San Lucas Tolimán	4	Abril	2023-04-20T00:00:00	2024-11-08T12:00:00	6	Velocidad del viento	8
119254	7	Sololá	713	San Lucas Tolimán	10	San Lucas Tolimán	4	Abril	2023-04-20T00:00:00	2024-11-08T12:00:00	7	Dirección del viento	8.05
119255	7	Sololá	713	San Lucas Tolimán	10	San Lucas Tolimán	4	Abril	2023-04-20T00:00:00	2024-11-08T12:00:00	1	Precipitación	0
119256	7	Sololá	713	San Lucas Tolimán	10	San Lucas Tolimán	4	Abril	2023-04-20T00:00:00	2024-11-08T12:00:00	8	Radiación solar	621
119257	7	Sololá	713	San Lucas Tolimán	10	San Lucas Tolimán	4	Abril	2023-04-20T00:00:00	2024-11-08T13:00:00	2	Temperatura media	22.3
119258	7	Sololá	713	San Lucas Tolimán	10	San Lucas Tolimán	4	Abril	2023-04-20T00:00:00	2024-11-08T13:00:00	4	Temperatura máxima	22.5
119259	7	Sololá	713	San Lucas Tolimán	10	San Lucas Tolimán	4	Abril	2023-04-20T00:00:00	2024-11-08T13:00:00	3	Temperatura mínima	21.8
119260	7	Sololá	713	San Lucas Tolimán	10	San Lucas Tolimán	4	Abril	2023-04-20T00:00:00	2024-11-08T13:00:00	5	Humedad	55
119261	7	Sololá	713	San Lucas Tolimán	10	San Lucas Tolimán	4	Abril	2023-04-20T00:00:00	2024-11-08T13:00:00	6	Velocidad del viento	8
119262	7	Sololá	713	San Lucas Tolimán	10	San Lucas Tolimán	4	Abril	2023-04-20T00:00:00	2024-11-08T13:00:00	7	Dirección del viento	8.05
119263	7	Sololá	713	San Lucas Tolimán	10	San Lucas Tolimán	4	Abril	2023-04-20T00:00:00	2024-11-08T13:00:00	1	Precipitación	0
119264	7	Sololá	713	San Lucas Tolimán	10	San Lucas Tolimán	4	Abril	2023-04-20T00:00:00	2024-11-08T13:00:00	8	Radiación solar	672
119265	7	Sololá	713	San Lucas Tolimán	10	San Lucas Tolimán	4	Abril	2023-04-20T00:00:00	2024-11-08T14:00:00	2	Temperatura media	22.7
119266	7	Sololá	713	San Lucas Tolimán	10	San Lucas Tolimán	4	Abril	2023-04-20T00:00:00	2024-11-08T14:00:00	4	Temperatura máxima	23.3
119267	7	Sololá	713	San Lucas Tolimán	10	San Lucas Tolimán	4	Abril	2023-04-20T00:00:00	2024-11-08T14:00:00	3	Temperatura mínima	22.2
119268	7	Sololá	713	San Lucas Tolimán	10	San Lucas Tolimán	4	Abril	2023-04-20T00:00:00	2024-11-08T14:00:00	5	Humedad	60
119269	7	Sololá	713	San Lucas Tolimán	10	San Lucas Tolimán	4	Abril	2023-04-20T00:00:00	2024-11-08T14:00:00	6	Velocidad del viento	9.7
119270	7	Sololá	713	San Lucas Tolimán	10	San Lucas Tolimán	4	Abril	2023-04-20T00:00:00	2024-11-08T14:00:00	7	Dirección del viento	9.66
119271	7	Sololá	713	San Lucas Tolimán	10	San Lucas Tolimán	4	Abril	2023-04-20T00:00:00	2024-11-08T14:00:00	1	Precipitación	0
119272	7	Sololá	713	San Lucas Tolimán	10	San Lucas Tolimán	4	Abril	2023-04-20T00:00:00	2024-11-08T14:00:00	8	Radiación solar	816
119273	7	Sololá	713	San Lucas Tolimán	10	San Lucas Tolimán	4	Abril	2023-04-20T00:00:00	2024-11-08T15:00:00	2	Temperatura media	20.9
119274	7	Sololá	713	San Lucas Tolimán	10	San Lucas Tolimán	4	Abril	2023-04-20T00:00:00	2024-11-08T15:00:00	4	Temperatura máxima	22.7
119275	7	Sololá	713	San Lucas Tolimán	10	San Lucas Tolimán	4	Abril	2023-04-20T00:00:00	2024-11-08T15:00:00	3	Temperatura mínima	20.8
119276	7	Sololá	713	San Lucas Tolimán	10	San Lucas Tolimán	4	Abril	2023-04-20T00:00:00	2024-11-08T15:00:00	5	Humedad	63
119277	7	Sololá	713	San Lucas Tolimán	10	San Lucas Tolimán	4	Abril	2023-04-20T00:00:00	2024-11-08T15:00:00	6	Velocidad del viento	9.7
119278	7	Sololá	713	San Lucas Tolimán	10	San Lucas Tolimán	4	Abril	2023-04-20T00:00:00	2024-11-08T15:00:00	7	Dirección del viento	9.66
119279	7	Sololá	713	San Lucas Tolimán	10	San Lucas Tolimán	4	Abril	2023-04-20T00:00:00	2024-11-08T15:00:00	1	Precipitación	0
119280	7	Sololá	713	San Lucas Tolimán	10	San Lucas Tolimán	4	Abril	2023-04-20T00:00:00	2024-11-08T15:00:00	8	Radiación solar	561
119281	7	Sololá	713	San Lucas Tolimán	10	San Lucas Tolimán	4	Abril	2023-04-20T00:00:00	2024-11-08T16:00:00	2	Temperatura media	21.2
119282	7	Sololá	713	San Lucas Tolimán	10	San Lucas Tolimán	4	Abril	2023-04-20T00:00:00	2024-11-08T16:00:00	4	Temperatura máxima	21.9
119283	7	Sololá	713	San Lucas Tolimán	10	San Lucas Tolimán	4	Abril	2023-04-20T00:00:00	2024-11-08T16:00:00	3	Temperatura mínima	20.9
119284	7	Sololá	713	San Lucas Tolimán	10	San Lucas Tolimán	4	Abril	2023-04-20T00:00:00	2024-11-08T16:00:00	5	Humedad	62
119285	7	Sololá	713	San Lucas Tolimán	10	San Lucas Tolimán	4	Abril	2023-04-20T00:00:00	2024-11-08T16:00:00	6	Velocidad del viento	8
119286	7	Sololá	713	San Lucas Tolimán	10	San Lucas Tolimán	4	Abril	2023-04-20T00:00:00	2024-11-08T16:00:00	7	Dirección del viento	8.05
119287	7	Sololá	713	San Lucas Tolimán	10	San Lucas Tolimán	4	Abril	2023-04-20T00:00:00	2024-11-08T16:00:00	1	Precipitación	0
119288	7	Sololá	713	San Lucas Tolimán	10	San Lucas Tolimán	4	Abril	2023-04-20T00:00:00	2024-11-08T16:00:00	8	Radiación solar	540
119289	7	Sololá	713	San Lucas Tolimán	10	San Lucas Tolimán	4	Abril	2023-04-20T00:00:00	2024-11-08T17:00:00	2	Temperatura media	20.5
119290	7	Sololá	713	San Lucas Tolimán	10	San Lucas Tolimán	4	Abril	2023-04-20T00:00:00	2024-11-08T17:00:00	4	Temperatura máxima	21.2
119291	7	Sololá	713	San Lucas Tolimán	10	San Lucas Tolimán	4	Abril	2023-04-20T00:00:00	2024-11-08T17:00:00	3	Temperatura mínima	20.5
119292	7	Sololá	713	San Lucas Tolimán	10	San Lucas Tolimán	4	Abril	2023-04-20T00:00:00	2024-11-08T17:00:00	5	Humedad	64
119293	7	Sololá	713	San Lucas Tolimán	10	San Lucas Tolimán	4	Abril	2023-04-20T00:00:00	2024-11-08T17:00:00	6	Velocidad del viento	9.7
119294	7	Sololá	713	San Lucas Tolimán	10	San Lucas Tolimán	4	Abril	2023-04-20T00:00:00	2024-11-08T17:00:00	7	Dirección del viento	9.66
119295	7	Sololá	713	San Lucas Tolimán	10	San Lucas Tolimán	4	Abril	2023-04-20T00:00:00	2024-11-08T17:00:00	1	Precipitación	0
119296	7	Sololá	713	San Lucas Tolimán	10	San Lucas Tolimán	4	Abril	2023-04-20T00:00:00	2024-11-08T17:00:00	8	Radiación solar	246
119297	7	Sololá	713	San Lucas Tolimán	10	San Lucas Tolimán	4	Abril	2023-04-20T00:00:00	2024-11-08T18:00:00	2	Temperatura media	19.4
119298	7	Sololá	713	San Lucas Tolimán	10	San Lucas Tolimán	4	Abril	2023-04-20T00:00:00	2024-11-08T18:00:00	4	Temperatura máxima	20.5
119299	7	Sololá	713	San Lucas Tolimán	10	San Lucas Tolimán	4	Abril	2023-04-20T00:00:00	2024-11-08T18:00:00	3	Temperatura mínima	19.4
119300	7	Sololá	713	San Lucas Tolimán	10	San Lucas Tolimán	4	Abril	2023-04-20T00:00:00	2024-11-08T18:00:00	5	Humedad	63
119301	7	Sololá	713	San Lucas Tolimán	10	San Lucas Tolimán	4	Abril	2023-04-20T00:00:00	2024-11-08T18:00:00	6	Velocidad del viento	8
119302	7	Sololá	713	San Lucas Tolimán	10	San Lucas Tolimán	4	Abril	2023-04-20T00:00:00	2024-11-08T18:00:00	7	Dirección del viento	8.05
119303	7	Sololá	713	San Lucas Tolimán	10	San Lucas Tolimán	4	Abril	2023-04-20T00:00:00	2024-11-08T18:00:00	1	Precipitación	0
119304	7	Sololá	713	San Lucas Tolimán	10	San Lucas Tolimán	4	Abril	2023-04-20T00:00:00	2024-11-08T18:00:00	8	Radiación solar	75
119305	7	Sololá	713	San Lucas Tolimán	10	San Lucas Tolimán	4	Abril	2023-04-20T00:00:00	2024-11-08T19:00:00	2	Temperatura media	19.3
119306	7	Sololá	713	San Lucas Tolimán	10	San Lucas Tolimán	4	Abril	2023-04-20T00:00:00	2024-11-08T19:00:00	4	Temperatura máxima	19.5
119307	7	Sololá	713	San Lucas Tolimán	10	San Lucas Tolimán	4	Abril	2023-04-20T00:00:00	2024-11-08T19:00:00	3	Temperatura mínima	19.2
119308	7	Sololá	713	San Lucas Tolimán	10	San Lucas Tolimán	4	Abril	2023-04-20T00:00:00	2024-11-08T19:00:00	5	Humedad	63
119309	7	Sololá	713	San Lucas Tolimán	10	San Lucas Tolimán	4	Abril	2023-04-20T00:00:00	2024-11-08T19:00:00	6	Velocidad del viento	4.8
119310	7	Sololá	713	San Lucas Tolimán	10	San Lucas Tolimán	4	Abril	2023-04-20T00:00:00	2024-11-08T19:00:00	7	Dirección del viento	4.83
119311	7	Sololá	713	San Lucas Tolimán	10	San Lucas Tolimán	4	Abril	2023-04-20T00:00:00	2024-11-08T19:00:00	1	Precipitación	0
119312	7	Sololá	713	San Lucas Tolimán	10	San Lucas Tolimán	4	Abril	2023-04-20T00:00:00	2024-11-08T19:00:00	8	Radiación solar	0
119313	7	Sololá	713	San Lucas Tolimán	10	San Lucas Tolimán	4	Abril	2023-04-20T00:00:00	2024-11-08T20:00:00	2	Temperatura media	18.5
119314	7	Sololá	713	San Lucas Tolimán	10	San Lucas Tolimán	4	Abril	2023-04-20T00:00:00	2024-11-08T20:00:00	4	Temperatura máxima	19.3
119315	7	Sololá	713	San Lucas Tolimán	10	San Lucas Tolimán	4	Abril	2023-04-20T00:00:00	2024-11-08T20:00:00	3	Temperatura mínima	18.5
119316	7	Sololá	713	San Lucas Tolimán	10	San Lucas Tolimán	4	Abril	2023-04-20T00:00:00	2024-11-08T20:00:00	5	Humedad	63
119317	7	Sololá	713	San Lucas Tolimán	10	San Lucas Tolimán	4	Abril	2023-04-20T00:00:00	2024-11-08T20:00:00	6	Velocidad del viento	3.2
119318	7	Sololá	713	San Lucas Tolimán	10	San Lucas Tolimán	4	Abril	2023-04-20T00:00:00	2024-11-08T20:00:00	7	Dirección del viento	3.22
119319	7	Sololá	713	San Lucas Tolimán	10	San Lucas Tolimán	4	Abril	2023-04-20T00:00:00	2024-11-08T20:00:00	1	Precipitación	0
119320	7	Sololá	713	San Lucas Tolimán	10	San Lucas Tolimán	4	Abril	2023-04-20T00:00:00	2024-11-08T20:00:00	8	Radiación solar	0
119321	7	Sololá	713	San Lucas Tolimán	10	San Lucas Tolimán	4	Abril	2023-04-20T00:00:00	2024-11-08T21:00:00	2	Temperatura media	17.9
119322	7	Sololá	713	San Lucas Tolimán	10	San Lucas Tolimán	4	Abril	2023-04-20T00:00:00	2024-11-08T21:00:00	4	Temperatura máxima	18.6
119323	7	Sololá	713	San Lucas Tolimán	10	San Lucas Tolimán	4	Abril	2023-04-20T00:00:00	2024-11-08T21:00:00	3	Temperatura mínima	17.7
119324	7	Sololá	713	San Lucas Tolimán	10	San Lucas Tolimán	4	Abril	2023-04-20T00:00:00	2024-11-08T21:00:00	5	Humedad	62
119325	7	Sololá	713	San Lucas Tolimán	10	San Lucas Tolimán	4	Abril	2023-04-20T00:00:00	2024-11-08T21:00:00	6	Velocidad del viento	3.2
119326	7	Sololá	713	San Lucas Tolimán	10	San Lucas Tolimán	4	Abril	2023-04-20T00:00:00	2024-11-08T21:00:00	7	Dirección del viento	3.22
119327	7	Sololá	713	San Lucas Tolimán	10	San Lucas Tolimán	4	Abril	2023-04-20T00:00:00	2024-11-08T21:00:00	1	Precipitación	0
119328	7	Sololá	713	San Lucas Tolimán	10	San Lucas Tolimán	4	Abril	2023-04-20T00:00:00	2024-11-08T21:00:00	8	Radiación solar	0
119329	7	Sololá	713	San Lucas Tolimán	10	San Lucas Tolimán	4	Abril	2023-04-20T00:00:00	2024-11-08T22:00:00	2	Temperatura media	17.6
119330	7	Sololá	713	San Lucas Tolimán	10	San Lucas Tolimán	4	Abril	2023-04-20T00:00:00	2024-11-08T22:00:00	4	Temperatura máxima	18.1
119331	7	Sololá	713	San Lucas Tolimán	10	San Lucas Tolimán	4	Abril	2023-04-20T00:00:00	2024-11-08T22:00:00	3	Temperatura mínima	17.5
119332	7	Sololá	713	San Lucas Tolimán	10	San Lucas Tolimán	4	Abril	2023-04-20T00:00:00	2024-11-08T22:00:00	5	Humedad	63
119333	7	Sololá	713	San Lucas Tolimán	10	San Lucas Tolimán	4	Abril	2023-04-20T00:00:00	2024-11-08T22:00:00	6	Velocidad del viento	3.2
119334	7	Sololá	713	San Lucas Tolimán	10	San Lucas Tolimán	4	Abril	2023-04-20T00:00:00	2024-11-08T22:00:00	7	Dirección del viento	3.22
119335	7	Sololá	713	San Lucas Tolimán	10	San Lucas Tolimán	4	Abril	2023-04-20T00:00:00	2024-11-08T22:00:00	1	Precipitación	0
119336	7	Sololá	713	San Lucas Tolimán	10	San Lucas Tolimán	4	Abril	2023-04-20T00:00:00	2024-11-08T22:00:00	8	Radiación solar	0
119337	7	Sololá	713	San Lucas Tolimán	10	San Lucas Tolimán	4	Abril	2023-04-20T00:00:00	2024-11-08T23:00:00	2	Temperatura media	17
119338	7	Sololá	713	San Lucas Tolimán	10	San Lucas Tolimán	4	Abril	2023-04-20T00:00:00	2024-11-08T23:00:00	4	Temperatura máxima	17.6
119339	7	Sololá	713	San Lucas Tolimán	10	San Lucas Tolimán	4	Abril	2023-04-20T00:00:00	2024-11-08T23:00:00	3	Temperatura mínima	16.9
119340	7	Sololá	713	San Lucas Tolimán	10	San Lucas Tolimán	4	Abril	2023-04-20T00:00:00	2024-11-08T23:00:00	5	Humedad	63
119341	7	Sololá	713	San Lucas Tolimán	10	San Lucas Tolimán	4	Abril	2023-04-20T00:00:00	2024-11-08T23:00:00	6	Velocidad del viento	1.6
119342	7	Sololá	713	San Lucas Tolimán	10	San Lucas Tolimán	4	Abril	2023-04-20T00:00:00	2024-11-08T23:00:00	7	Dirección del viento	1.61
119343	7	Sololá	713	San Lucas Tolimán	10	San Lucas Tolimán	4	Abril	2023-04-20T00:00:00	2024-11-08T23:00:00	1	Precipitación	0
119344	7	Sololá	713	San Lucas Tolimán	10	San Lucas Tolimán	4	Abril	2023-04-20T00:00:00	2024-11-08T23:00:00	8	Radiación solar	0
119345	7	Sololá	713	San Lucas Tolimán	10	San Lucas Tolimán	4	Abril	2023-04-21T00:00:00	2024-11-08T00:00:00	2	Temperatura media	16.5
119346	7	Sololá	713	San Lucas Tolimán	10	San Lucas Tolimán	4	Abril	2023-04-21T00:00:00	2024-11-08T00:00:00	4	Temperatura máxima	17.1
119347	7	Sololá	713	San Lucas Tolimán	10	San Lucas Tolimán	4	Abril	2023-04-21T00:00:00	2024-11-08T00:00:00	3	Temperatura mínima	16.5
119348	7	Sololá	713	San Lucas Tolimán	10	San Lucas Tolimán	4	Abril	2023-04-21T00:00:00	2024-11-08T00:00:00	5	Humedad	63
119349	7	Sololá	713	San Lucas Tolimán	10	San Lucas Tolimán	4	Abril	2023-04-21T00:00:00	2024-11-08T00:00:00	6	Velocidad del viento	0
119350	7	Sololá	713	San Lucas Tolimán	10	San Lucas Tolimán	4	Abril	2023-04-21T00:00:00	2024-11-08T00:00:00	7	Dirección del viento	0
119351	7	Sololá	713	San Lucas Tolimán	10	San Lucas Tolimán	4	Abril	2023-04-21T00:00:00	2024-11-08T00:00:00	1	Precipitación	0
119352	7	Sololá	713	San Lucas Tolimán	10	San Lucas Tolimán	4	Abril	2023-04-21T00:00:00	2024-11-08T00:00:00	8	Radiación solar	0
119353	7	Sololá	713	San Lucas Tolimán	10	San Lucas Tolimán	4	Abril	2023-04-21T00:00:00	2024-11-08T01:00:00	2	Temperatura media	17.1
119354	7	Sololá	713	San Lucas Tolimán	10	San Lucas Tolimán	4	Abril	2023-04-21T00:00:00	2024-11-08T01:00:00	4	Temperatura máxima	17.2
119355	7	Sololá	713	San Lucas Tolimán	10	San Lucas Tolimán	4	Abril	2023-04-21T00:00:00	2024-11-08T01:00:00	3	Temperatura mínima	16.4
119356	7	Sololá	713	San Lucas Tolimán	10	San Lucas Tolimán	4	Abril	2023-04-21T00:00:00	2024-11-08T01:00:00	5	Humedad	63
119357	7	Sololá	713	San Lucas Tolimán	10	San Lucas Tolimán	4	Abril	2023-04-21T00:00:00	2024-11-08T01:00:00	6	Velocidad del viento	1.6
119358	7	Sololá	713	San Lucas Tolimán	10	San Lucas Tolimán	4	Abril	2023-04-21T00:00:00	2024-11-08T01:00:00	7	Dirección del viento	1.61
119359	7	Sololá	713	San Lucas Tolimán	10	San Lucas Tolimán	4	Abril	2023-04-21T00:00:00	2024-11-08T01:00:00	1	Precipitación	0
119360	7	Sololá	713	San Lucas Tolimán	10	San Lucas Tolimán	4	Abril	2023-04-21T00:00:00	2024-11-08T01:00:00	8	Radiación solar	0
119361	7	Sololá	713	San Lucas Tolimán	10	San Lucas Tolimán	4	Abril	2023-04-21T00:00:00	2024-11-08T02:00:00	2	Temperatura media	16.6
119362	7	Sololá	713	San Lucas Tolimán	10	San Lucas Tolimán	4	Abril	2023-04-21T00:00:00	2024-11-08T02:00:00	4	Temperatura máxima	17.3
119363	7	Sololá	713	San Lucas Tolimán	10	San Lucas Tolimán	4	Abril	2023-04-21T00:00:00	2024-11-08T02:00:00	3	Temperatura mínima	16.6
119364	7	Sololá	713	San Lucas Tolimán	10	San Lucas Tolimán	4	Abril	2023-04-21T00:00:00	2024-11-08T02:00:00	5	Humedad	62
119365	7	Sololá	713	San Lucas Tolimán	10	San Lucas Tolimán	4	Abril	2023-04-21T00:00:00	2024-11-08T02:00:00	6	Velocidad del viento	1.6
119366	7	Sololá	713	San Lucas Tolimán	10	San Lucas Tolimán	4	Abril	2023-04-21T00:00:00	2024-11-08T02:00:00	7	Dirección del viento	1.61
119367	7	Sololá	713	San Lucas Tolimán	10	San Lucas Tolimán	4	Abril	2023-04-21T00:00:00	2024-11-08T02:00:00	1	Precipitación	0
119368	7	Sololá	713	San Lucas Tolimán	10	San Lucas Tolimán	4	Abril	2023-04-21T00:00:00	2024-11-08T02:00:00	8	Radiación solar	0
119369	7	Sololá	713	San Lucas Tolimán	10	San Lucas Tolimán	4	Abril	2023-04-21T00:00:00	2024-11-08T03:00:00	2	Temperatura media	15.1
119370	7	Sololá	713	San Lucas Tolimán	10	San Lucas Tolimán	4	Abril	2023-04-21T00:00:00	2024-11-08T03:00:00	4	Temperatura máxima	16.6
119371	7	Sololá	713	San Lucas Tolimán	10	San Lucas Tolimán	4	Abril	2023-04-21T00:00:00	2024-11-08T03:00:00	3	Temperatura mínima	14.9
119372	7	Sololá	713	San Lucas Tolimán	10	San Lucas Tolimán	4	Abril	2023-04-21T00:00:00	2024-11-08T03:00:00	5	Humedad	63
119373	7	Sololá	713	San Lucas Tolimán	10	San Lucas Tolimán	4	Abril	2023-04-21T00:00:00	2024-11-08T03:00:00	6	Velocidad del viento	4.8
119374	7	Sololá	713	San Lucas Tolimán	10	San Lucas Tolimán	4	Abril	2023-04-21T00:00:00	2024-11-08T03:00:00	7	Dirección del viento	4.83
119375	7	Sololá	713	San Lucas Tolimán	10	San Lucas Tolimán	4	Abril	2023-04-21T00:00:00	2024-11-08T03:00:00	1	Precipitación	0
119376	7	Sololá	713	San Lucas Tolimán	10	San Lucas Tolimán	4	Abril	2023-04-21T00:00:00	2024-11-08T03:00:00	8	Radiación solar	0
119377	7	Sololá	713	San Lucas Tolimán	10	San Lucas Tolimán	4	Abril	2023-04-21T00:00:00	2024-11-08T04:00:00	2	Temperatura media	15.3
119378	7	Sololá	713	San Lucas Tolimán	10	San Lucas Tolimán	4	Abril	2023-04-21T00:00:00	2024-11-08T04:00:00	4	Temperatura máxima	15.3
119379	7	Sololá	713	San Lucas Tolimán	10	San Lucas Tolimán	4	Abril	2023-04-21T00:00:00	2024-11-08T04:00:00	3	Temperatura mínima	14.8
119380	7	Sololá	713	San Lucas Tolimán	10	San Lucas Tolimán	4	Abril	2023-04-21T00:00:00	2024-11-08T04:00:00	5	Humedad	62
119381	7	Sololá	713	San Lucas Tolimán	10	San Lucas Tolimán	4	Abril	2023-04-21T00:00:00	2024-11-08T04:00:00	6	Velocidad del viento	3.2
119382	7	Sololá	713	San Lucas Tolimán	10	San Lucas Tolimán	4	Abril	2023-04-21T00:00:00	2024-11-08T04:00:00	7	Dirección del viento	3.22
119383	7	Sololá	713	San Lucas Tolimán	10	San Lucas Tolimán	4	Abril	2023-04-21T00:00:00	2024-11-08T04:00:00	1	Precipitación	0
119384	7	Sololá	713	San Lucas Tolimán	10	San Lucas Tolimán	4	Abril	2023-04-21T00:00:00	2024-11-08T04:00:00	8	Radiación solar	0
119385	7	Sololá	713	San Lucas Tolimán	10	San Lucas Tolimán	4	Abril	2023-04-21T00:00:00	2024-11-08T05:00:00	2	Temperatura media	15.8
119386	7	Sololá	713	San Lucas Tolimán	10	San Lucas Tolimán	4	Abril	2023-04-21T00:00:00	2024-11-08T05:00:00	4	Temperatura máxima	15.8
119387	7	Sololá	713	San Lucas Tolimán	10	San Lucas Tolimán	4	Abril	2023-04-21T00:00:00	2024-11-08T05:00:00	3	Temperatura mínima	15.2
119388	7	Sololá	713	San Lucas Tolimán	10	San Lucas Tolimán	4	Abril	2023-04-21T00:00:00	2024-11-08T05:00:00	5	Humedad	62
119389	7	Sololá	713	San Lucas Tolimán	10	San Lucas Tolimán	4	Abril	2023-04-21T00:00:00	2024-11-08T05:00:00	6	Velocidad del viento	0
119390	7	Sololá	713	San Lucas Tolimán	10	San Lucas Tolimán	4	Abril	2023-04-21T00:00:00	2024-11-08T05:00:00	7	Dirección del viento	0
119391	7	Sololá	713	San Lucas Tolimán	10	San Lucas Tolimán	4	Abril	2023-04-21T00:00:00	2024-11-08T05:00:00	1	Precipitación	0
119392	7	Sololá	713	San Lucas Tolimán	10	San Lucas Tolimán	4	Abril	2023-04-21T00:00:00	2024-11-08T05:00:00	8	Radiación solar	0
119393	7	Sololá	713	San Lucas Tolimán	10	San Lucas Tolimán	4	Abril	2023-04-21T00:00:00	2024-11-08T06:00:00	2	Temperatura media	16.5
119394	7	Sololá	713	San Lucas Tolimán	10	San Lucas Tolimán	4	Abril	2023-04-21T00:00:00	2024-11-08T06:00:00	4	Temperatura máxima	16.5
119395	7	Sololá	713	San Lucas Tolimán	10	San Lucas Tolimán	4	Abril	2023-04-21T00:00:00	2024-11-08T06:00:00	3	Temperatura mínima	15.8
119396	7	Sololá	713	San Lucas Tolimán	10	San Lucas Tolimán	4	Abril	2023-04-21T00:00:00	2024-11-08T06:00:00	5	Humedad	61
119397	7	Sololá	713	San Lucas Tolimán	10	San Lucas Tolimán	4	Abril	2023-04-21T00:00:00	2024-11-08T06:00:00	6	Velocidad del viento	3.2
119398	7	Sololá	713	San Lucas Tolimán	10	San Lucas Tolimán	4	Abril	2023-04-21T00:00:00	2024-11-08T06:00:00	7	Dirección del viento	3.22
119399	7	Sololá	713	San Lucas Tolimán	10	San Lucas Tolimán	4	Abril	2023-04-21T00:00:00	2024-11-08T06:00:00	1	Precipitación	0
119400	7	Sololá	713	San Lucas Tolimán	10	San Lucas Tolimán	4	Abril	2023-04-21T00:00:00	2024-11-08T06:00:00	8	Radiación solar	1
119401	7	Sololá	713	San Lucas Tolimán	10	San Lucas Tolimán	4	Abril	2023-04-21T00:00:00	2024-11-08T07:00:00	2	Temperatura media	17.5
119402	7	Sololá	713	San Lucas Tolimán	10	San Lucas Tolimán	4	Abril	2023-04-21T00:00:00	2024-11-08T07:00:00	4	Temperatura máxima	17.5
119403	7	Sololá	713	San Lucas Tolimán	10	San Lucas Tolimán	4	Abril	2023-04-21T00:00:00	2024-11-08T07:00:00	3	Temperatura mínima	16.3
119404	7	Sololá	713	San Lucas Tolimán	10	San Lucas Tolimán	4	Abril	2023-04-21T00:00:00	2024-11-08T07:00:00	5	Humedad	60
119405	7	Sololá	713	San Lucas Tolimán	10	San Lucas Tolimán	4	Abril	2023-04-21T00:00:00	2024-11-08T07:00:00	6	Velocidad del viento	1.6
119406	7	Sololá	713	San Lucas Tolimán	10	San Lucas Tolimán	4	Abril	2023-04-21T00:00:00	2024-11-08T07:00:00	7	Dirección del viento	1.61
119407	7	Sololá	713	San Lucas Tolimán	10	San Lucas Tolimán	4	Abril	2023-04-21T00:00:00	2024-11-08T07:00:00	1	Precipitación	0
119408	7	Sololá	713	San Lucas Tolimán	10	San Lucas Tolimán	4	Abril	2023-04-21T00:00:00	2024-11-08T07:00:00	8	Radiación solar	64
119409	7	Sololá	713	San Lucas Tolimán	10	San Lucas Tolimán	4	Abril	2023-04-21T00:00:00	2024-11-08T08:00:00	2	Temperatura media	19.6
119410	7	Sololá	713	San Lucas Tolimán	10	San Lucas Tolimán	4	Abril	2023-04-21T00:00:00	2024-11-08T08:00:00	4	Temperatura máxima	19.6
119411	7	Sololá	713	San Lucas Tolimán	10	San Lucas Tolimán	4	Abril	2023-04-21T00:00:00	2024-11-08T08:00:00	3	Temperatura mínima	17.4
119412	7	Sololá	713	San Lucas Tolimán	10	San Lucas Tolimán	4	Abril	2023-04-21T00:00:00	2024-11-08T08:00:00	5	Humedad	57
119413	7	Sololá	713	San Lucas Tolimán	10	San Lucas Tolimán	4	Abril	2023-04-21T00:00:00	2024-11-08T08:00:00	6	Velocidad del viento	4.8
119414	7	Sololá	713	San Lucas Tolimán	10	San Lucas Tolimán	4	Abril	2023-04-21T00:00:00	2024-11-08T08:00:00	7	Dirección del viento	4.83
119415	7	Sololá	713	San Lucas Tolimán	10	San Lucas Tolimán	4	Abril	2023-04-21T00:00:00	2024-11-08T08:00:00	1	Precipitación	0
119416	7	Sololá	713	San Lucas Tolimán	10	San Lucas Tolimán	4	Abril	2023-04-21T00:00:00	2024-11-08T08:00:00	8	Radiación solar	282
119417	7	Sololá	713	San Lucas Tolimán	10	San Lucas Tolimán	4	Abril	2023-04-21T00:00:00	2024-11-08T09:00:00	2	Temperatura media	20.7
119418	7	Sololá	713	San Lucas Tolimán	10	San Lucas Tolimán	4	Abril	2023-04-21T00:00:00	2024-11-08T09:00:00	4	Temperatura máxima	20.7
119419	7	Sololá	713	San Lucas Tolimán	10	San Lucas Tolimán	4	Abril	2023-04-21T00:00:00	2024-11-08T09:00:00	3	Temperatura mínima	19.5
119420	7	Sololá	713	San Lucas Tolimán	10	San Lucas Tolimán	4	Abril	2023-04-21T00:00:00	2024-11-08T09:00:00	5	Humedad	54
119421	7	Sololá	713	San Lucas Tolimán	10	San Lucas Tolimán	4	Abril	2023-04-21T00:00:00	2024-11-08T09:00:00	6	Velocidad del viento	6.4
119422	7	Sololá	713	San Lucas Tolimán	10	San Lucas Tolimán	4	Abril	2023-04-21T00:00:00	2024-11-08T09:00:00	7	Dirección del viento	6.44
119423	7	Sololá	713	San Lucas Tolimán	10	San Lucas Tolimán	4	Abril	2023-04-21T00:00:00	2024-11-08T09:00:00	1	Precipitación	0
119424	7	Sololá	713	San Lucas Tolimán	10	San Lucas Tolimán	4	Abril	2023-04-21T00:00:00	2024-11-08T09:00:00	8	Radiación solar	459
119425	7	Sololá	713	San Lucas Tolimán	10	San Lucas Tolimán	4	Abril	2023-04-21T00:00:00	2024-11-08T10:00:00	2	Temperatura media	24.1
119426	7	Sololá	713	San Lucas Tolimán	10	San Lucas Tolimán	4	Abril	2023-04-21T00:00:00	2024-11-08T10:00:00	4	Temperatura máxima	24.2
119427	7	Sololá	713	San Lucas Tolimán	10	San Lucas Tolimán	4	Abril	2023-04-21T00:00:00	2024-11-08T10:00:00	3	Temperatura mínima	20.7
119428	7	Sololá	713	San Lucas Tolimán	10	San Lucas Tolimán	4	Abril	2023-04-21T00:00:00	2024-11-08T10:00:00	5	Humedad	50
119429	7	Sololá	713	San Lucas Tolimán	10	San Lucas Tolimán	4	Abril	2023-04-21T00:00:00	2024-11-08T10:00:00	6	Velocidad del viento	4.8
119430	7	Sololá	713	San Lucas Tolimán	10	San Lucas Tolimán	4	Abril	2023-04-21T00:00:00	2024-11-08T10:00:00	7	Dirección del viento	4.83
119431	7	Sololá	713	San Lucas Tolimán	10	San Lucas Tolimán	4	Abril	2023-04-21T00:00:00	2024-11-08T10:00:00	1	Precipitación	0
119432	7	Sololá	713	San Lucas Tolimán	10	San Lucas Tolimán	4	Abril	2023-04-21T00:00:00	2024-11-08T10:00:00	8	Radiación solar	677
119433	7	Sololá	713	San Lucas Tolimán	10	San Lucas Tolimán	4	Abril	2023-04-21T00:00:00	2024-11-08T11:00:00	2	Temperatura media	22.7
119434	7	Sololá	713	San Lucas Tolimán	10	San Lucas Tolimán	4	Abril	2023-04-21T00:00:00	2024-11-08T11:00:00	4	Temperatura máxima	24.2
119435	7	Sololá	713	San Lucas Tolimán	10	San Lucas Tolimán	4	Abril	2023-04-21T00:00:00	2024-11-08T11:00:00	3	Temperatura mínima	22.7
119436	7	Sololá	713	San Lucas Tolimán	10	San Lucas Tolimán	4	Abril	2023-04-21T00:00:00	2024-11-08T11:00:00	5	Humedad	58
119437	7	Sololá	713	San Lucas Tolimán	10	San Lucas Tolimán	4	Abril	2023-04-21T00:00:00	2024-11-08T11:00:00	6	Velocidad del viento	9.7
119438	7	Sololá	713	San Lucas Tolimán	10	San Lucas Tolimán	4	Abril	2023-04-21T00:00:00	2024-11-08T11:00:00	7	Dirección del viento	9.66
119439	7	Sololá	713	San Lucas Tolimán	10	San Lucas Tolimán	4	Abril	2023-04-21T00:00:00	2024-11-08T11:00:00	1	Precipitación	0
119440	7	Sololá	713	San Lucas Tolimán	10	San Lucas Tolimán	4	Abril	2023-04-21T00:00:00	2024-11-08T11:00:00	8	Radiación solar	978
119441	7	Sololá	713	San Lucas Tolimán	10	San Lucas Tolimán	4	Abril	2023-04-21T00:00:00	2024-11-08T12:00:00	2	Temperatura media	21.2
119442	7	Sololá	713	San Lucas Tolimán	10	San Lucas Tolimán	4	Abril	2023-04-21T00:00:00	2024-11-08T12:00:00	4	Temperatura máxima	23
119443	7	Sololá	713	San Lucas Tolimán	10	San Lucas Tolimán	4	Abril	2023-04-21T00:00:00	2024-11-08T12:00:00	3	Temperatura mínima	20.8
119444	7	Sololá	713	San Lucas Tolimán	10	San Lucas Tolimán	4	Abril	2023-04-21T00:00:00	2024-11-08T12:00:00	5	Humedad	63
119445	7	Sololá	713	San Lucas Tolimán	10	San Lucas Tolimán	4	Abril	2023-04-21T00:00:00	2024-11-08T12:00:00	6	Velocidad del viento	9.7
119446	7	Sololá	713	San Lucas Tolimán	10	San Lucas Tolimán	4	Abril	2023-04-21T00:00:00	2024-11-08T12:00:00	7	Dirección del viento	9.66
119447	7	Sololá	713	San Lucas Tolimán	10	San Lucas Tolimán	4	Abril	2023-04-21T00:00:00	2024-11-08T12:00:00	1	Precipitación	0
119448	7	Sololá	713	San Lucas Tolimán	10	San Lucas Tolimán	4	Abril	2023-04-21T00:00:00	2024-11-08T12:00:00	8	Radiación solar	643
119449	7	Sololá	713	San Lucas Tolimán	10	San Lucas Tolimán	4	Abril	2023-04-21T00:00:00	2024-11-08T13:00:00	2	Temperatura media	22.4
119450	7	Sololá	713	San Lucas Tolimán	10	San Lucas Tolimán	4	Abril	2023-04-21T00:00:00	2024-11-08T13:00:00	4	Temperatura máxima	22.4
119451	7	Sololá	713	San Lucas Tolimán	10	San Lucas Tolimán	4	Abril	2023-04-21T00:00:00	2024-11-08T13:00:00	3	Temperatura mínima	20.5
119452	7	Sololá	713	San Lucas Tolimán	10	San Lucas Tolimán	4	Abril	2023-04-21T00:00:00	2024-11-08T13:00:00	5	Humedad	59
119453	7	Sololá	713	San Lucas Tolimán	10	San Lucas Tolimán	4	Abril	2023-04-21T00:00:00	2024-11-08T13:00:00	6	Velocidad del viento	8
119454	7	Sololá	713	San Lucas Tolimán	10	San Lucas Tolimán	4	Abril	2023-04-21T00:00:00	2024-11-08T13:00:00	7	Dirección del viento	8.05
119455	7	Sololá	713	San Lucas Tolimán	10	San Lucas Tolimán	4	Abril	2023-04-21T00:00:00	2024-11-08T13:00:00	1	Precipitación	0
119456	7	Sololá	713	San Lucas Tolimán	10	San Lucas Tolimán	4	Abril	2023-04-21T00:00:00	2024-11-08T13:00:00	8	Radiación solar	595
119457	7	Sololá	713	San Lucas Tolimán	10	San Lucas Tolimán	4	Abril	2023-04-21T00:00:00	2024-11-08T14:00:00	2	Temperatura media	20.8
119458	7	Sololá	713	San Lucas Tolimán	10	San Lucas Tolimán	4	Abril	2023-04-21T00:00:00	2024-11-08T14:00:00	4	Temperatura máxima	23
119459	7	Sololá	713	San Lucas Tolimán	10	San Lucas Tolimán	4	Abril	2023-04-21T00:00:00	2024-11-08T14:00:00	3	Temperatura mínima	20.7
119460	7	Sololá	713	San Lucas Tolimán	10	San Lucas Tolimán	4	Abril	2023-04-21T00:00:00	2024-11-08T14:00:00	5	Humedad	63
119461	7	Sololá	713	San Lucas Tolimán	10	San Lucas Tolimán	4	Abril	2023-04-21T00:00:00	2024-11-08T14:00:00	6	Velocidad del viento	8
119462	7	Sololá	713	San Lucas Tolimán	10	San Lucas Tolimán	4	Abril	2023-04-21T00:00:00	2024-11-08T14:00:00	7	Dirección del viento	8.05
119463	7	Sololá	713	San Lucas Tolimán	10	San Lucas Tolimán	4	Abril	2023-04-21T00:00:00	2024-11-08T14:00:00	1	Precipitación	0
119464	7	Sololá	713	San Lucas Tolimán	10	San Lucas Tolimán	4	Abril	2023-04-21T00:00:00	2024-11-08T14:00:00	8	Radiación solar	527
119465	7	Sololá	713	San Lucas Tolimán	10	San Lucas Tolimán	4	Abril	2023-04-21T00:00:00	2024-11-08T15:00:00	2	Temperatura media	21.4
119466	7	Sololá	713	San Lucas Tolimán	10	San Lucas Tolimán	4	Abril	2023-04-21T00:00:00	2024-11-08T15:00:00	4	Temperatura máxima	22.2
119467	7	Sololá	713	San Lucas Tolimán	10	San Lucas Tolimán	4	Abril	2023-04-21T00:00:00	2024-11-08T15:00:00	3	Temperatura mínima	20.8
119468	7	Sololá	713	San Lucas Tolimán	10	San Lucas Tolimán	4	Abril	2023-04-21T00:00:00	2024-11-08T15:00:00	5	Humedad	61
119469	7	Sololá	713	San Lucas Tolimán	10	San Lucas Tolimán	4	Abril	2023-04-21T00:00:00	2024-11-08T15:00:00	6	Velocidad del viento	8
119470	7	Sololá	713	San Lucas Tolimán	10	San Lucas Tolimán	4	Abril	2023-04-21T00:00:00	2024-11-08T15:00:00	7	Dirección del viento	8.05
119471	7	Sololá	713	San Lucas Tolimán	10	San Lucas Tolimán	4	Abril	2023-04-21T00:00:00	2024-11-08T15:00:00	1	Precipitación	0
119472	7	Sololá	713	San Lucas Tolimán	10	San Lucas Tolimán	4	Abril	2023-04-21T00:00:00	2024-11-08T15:00:00	8	Radiación solar	434
119473	7	Sololá	713	San Lucas Tolimán	10	San Lucas Tolimán	4	Abril	2023-04-21T00:00:00	2024-11-08T16:00:00	2	Temperatura media	21.1
119474	7	Sololá	713	San Lucas Tolimán	10	San Lucas Tolimán	4	Abril	2023-04-21T00:00:00	2024-11-08T16:00:00	4	Temperatura máxima	21.4
119475	7	Sololá	713	San Lucas Tolimán	10	San Lucas Tolimán	4	Abril	2023-04-21T00:00:00	2024-11-08T16:00:00	3	Temperatura mínima	20.8
119476	7	Sololá	713	San Lucas Tolimán	10	San Lucas Tolimán	4	Abril	2023-04-21T00:00:00	2024-11-08T16:00:00	5	Humedad	62
119477	7	Sololá	713	San Lucas Tolimán	10	San Lucas Tolimán	4	Abril	2023-04-21T00:00:00	2024-11-08T16:00:00	6	Velocidad del viento	8
119478	7	Sololá	713	San Lucas Tolimán	10	San Lucas Tolimán	4	Abril	2023-04-21T00:00:00	2024-11-08T16:00:00	7	Dirección del viento	8.05
119479	7	Sololá	713	San Lucas Tolimán	10	San Lucas Tolimán	4	Abril	2023-04-21T00:00:00	2024-11-08T16:00:00	1	Precipitación	0
119480	7	Sololá	713	San Lucas Tolimán	10	San Lucas Tolimán	4	Abril	2023-04-21T00:00:00	2024-11-08T16:00:00	8	Radiación solar	285
119481	7	Sololá	713	San Lucas Tolimán	10	San Lucas Tolimán	4	Abril	2023-04-21T00:00:00	2024-11-08T17:00:00	2	Temperatura media	21.3
119482	7	Sololá	713	San Lucas Tolimán	10	San Lucas Tolimán	4	Abril	2023-04-21T00:00:00	2024-11-08T17:00:00	4	Temperatura máxima	21.6
119483	7	Sololá	713	San Lucas Tolimán	10	San Lucas Tolimán	4	Abril	2023-04-21T00:00:00	2024-11-08T17:00:00	3	Temperatura mínima	21.1
119484	7	Sololá	713	San Lucas Tolimán	10	San Lucas Tolimán	4	Abril	2023-04-21T00:00:00	2024-11-08T17:00:00	5	Humedad	62
119485	7	Sololá	713	San Lucas Tolimán	10	San Lucas Tolimán	4	Abril	2023-04-21T00:00:00	2024-11-08T17:00:00	6	Velocidad del viento	6.4
119486	7	Sololá	713	San Lucas Tolimán	10	San Lucas Tolimán	4	Abril	2023-04-21T00:00:00	2024-11-08T17:00:00	7	Dirección del viento	6.44
119487	7	Sololá	713	San Lucas Tolimán	10	San Lucas Tolimán	4	Abril	2023-04-21T00:00:00	2024-11-08T17:00:00	1	Precipitación	0
119488	7	Sololá	713	San Lucas Tolimán	10	San Lucas Tolimán	4	Abril	2023-04-21T00:00:00	2024-11-08T17:00:00	8	Radiación solar	279
119489	7	Sololá	713	San Lucas Tolimán	10	San Lucas Tolimán	4	Abril	2023-04-21T00:00:00	2024-11-08T18:00:00	2	Temperatura media	20.3
119490	7	Sololá	713	San Lucas Tolimán	10	San Lucas Tolimán	4	Abril	2023-04-21T00:00:00	2024-11-08T18:00:00	4	Temperatura máxima	21.4
119491	7	Sololá	713	San Lucas Tolimán	10	San Lucas Tolimán	4	Abril	2023-04-21T00:00:00	2024-11-08T18:00:00	3	Temperatura mínima	20.3
119492	7	Sololá	713	San Lucas Tolimán	10	San Lucas Tolimán	4	Abril	2023-04-21T00:00:00	2024-11-08T18:00:00	5	Humedad	65
119493	7	Sololá	713	San Lucas Tolimán	10	San Lucas Tolimán	4	Abril	2023-04-21T00:00:00	2024-11-08T18:00:00	6	Velocidad del viento	6.4
119494	7	Sololá	713	San Lucas Tolimán	10	San Lucas Tolimán	4	Abril	2023-04-21T00:00:00	2024-11-08T18:00:00	7	Dirección del viento	6.44
119495	7	Sololá	713	San Lucas Tolimán	10	San Lucas Tolimán	4	Abril	2023-04-21T00:00:00	2024-11-08T18:00:00	1	Precipitación	0
119496	7	Sololá	713	San Lucas Tolimán	10	San Lucas Tolimán	4	Abril	2023-04-21T00:00:00	2024-11-08T18:00:00	8	Radiación solar	83
119497	7	Sololá	713	San Lucas Tolimán	10	San Lucas Tolimán	4	Abril	2023-04-21T00:00:00	2024-11-08T19:00:00	2	Temperatura media	19.3
119498	7	Sololá	713	San Lucas Tolimán	10	San Lucas Tolimán	4	Abril	2023-04-21T00:00:00	2024-11-08T19:00:00	4	Temperatura máxima	20.3
119499	7	Sololá	713	San Lucas Tolimán	10	San Lucas Tolimán	4	Abril	2023-04-21T00:00:00	2024-11-08T19:00:00	3	Temperatura mínima	19.3
119500	7	Sololá	713	San Lucas Tolimán	10	San Lucas Tolimán	4	Abril	2023-04-21T00:00:00	2024-11-08T19:00:00	5	Humedad	63
119501	7	Sololá	713	San Lucas Tolimán	10	San Lucas Tolimán	4	Abril	2023-04-21T00:00:00	2024-11-08T19:00:00	6	Velocidad del viento	4.8
119502	7	Sololá	713	San Lucas Tolimán	10	San Lucas Tolimán	4	Abril	2023-04-21T00:00:00	2024-11-08T19:00:00	7	Dirección del viento	4.83
119503	7	Sololá	713	San Lucas Tolimán	10	San Lucas Tolimán	4	Abril	2023-04-21T00:00:00	2024-11-08T19:00:00	1	Precipitación	0
119504	7	Sololá	713	San Lucas Tolimán	10	San Lucas Tolimán	4	Abril	2023-04-21T00:00:00	2024-11-08T19:00:00	8	Radiación solar	0
119505	7	Sololá	713	San Lucas Tolimán	10	San Lucas Tolimán	4	Abril	2023-04-21T00:00:00	2024-11-08T20:00:00	2	Temperatura media	18.8
119506	7	Sololá	713	San Lucas Tolimán	10	San Lucas Tolimán	4	Abril	2023-04-21T00:00:00	2024-11-08T20:00:00	4	Temperatura máxima	19.5
119507	7	Sololá	713	San Lucas Tolimán	10	San Lucas Tolimán	4	Abril	2023-04-21T00:00:00	2024-11-08T20:00:00	3	Temperatura mínima	18.8
119508	7	Sololá	713	San Lucas Tolimán	10	San Lucas Tolimán	4	Abril	2023-04-21T00:00:00	2024-11-08T20:00:00	5	Humedad	62
119509	7	Sololá	713	San Lucas Tolimán	10	San Lucas Tolimán	4	Abril	2023-04-21T00:00:00	2024-11-08T20:00:00	6	Velocidad del viento	4.8
119510	7	Sololá	713	San Lucas Tolimán	10	San Lucas Tolimán	4	Abril	2023-04-21T00:00:00	2024-11-08T20:00:00	7	Dirección del viento	4.83
119511	7	Sololá	713	San Lucas Tolimán	10	San Lucas Tolimán	4	Abril	2023-04-21T00:00:00	2024-11-08T20:00:00	1	Precipitación	0
119512	7	Sololá	713	San Lucas Tolimán	10	San Lucas Tolimán	4	Abril	2023-04-21T00:00:00	2024-11-08T20:00:00	8	Radiación solar	0
119513	7	Sololá	713	San Lucas Tolimán	10	San Lucas Tolimán	4	Abril	2023-04-21T00:00:00	2024-11-08T21:00:00	2	Temperatura media	17.9
119514	7	Sololá	713	San Lucas Tolimán	10	San Lucas Tolimán	4	Abril	2023-04-21T00:00:00	2024-11-08T21:00:00	4	Temperatura máxima	18.8
119515	7	Sololá	713	San Lucas Tolimán	10	San Lucas Tolimán	4	Abril	2023-04-21T00:00:00	2024-11-08T21:00:00	3	Temperatura mínima	17.9
119516	7	Sololá	713	San Lucas Tolimán	10	San Lucas Tolimán	4	Abril	2023-04-21T00:00:00	2024-11-08T21:00:00	5	Humedad	62
119517	7	Sololá	713	San Lucas Tolimán	10	San Lucas Tolimán	4	Abril	2023-04-21T00:00:00	2024-11-08T21:00:00	6	Velocidad del viento	1.6
119518	7	Sololá	713	San Lucas Tolimán	10	San Lucas Tolimán	4	Abril	2023-04-21T00:00:00	2024-11-08T21:00:00	7	Dirección del viento	1.61
119519	7	Sololá	713	San Lucas Tolimán	10	San Lucas Tolimán	4	Abril	2023-04-21T00:00:00	2024-11-08T21:00:00	1	Precipitación	0
119520	7	Sololá	713	San Lucas Tolimán	10	San Lucas Tolimán	4	Abril	2023-04-21T00:00:00	2024-11-08T21:00:00	8	Radiación solar	0
119521	7	Sololá	713	San Lucas Tolimán	10	San Lucas Tolimán	4	Abril	2023-04-21T00:00:00	2024-11-08T22:00:00	2	Temperatura media	18.1
119522	7	Sololá	713	San Lucas Tolimán	10	San Lucas Tolimán	4	Abril	2023-04-21T00:00:00	2024-11-08T22:00:00	4	Temperatura máxima	18.2
119523	7	Sololá	713	San Lucas Tolimán	10	San Lucas Tolimán	4	Abril	2023-04-21T00:00:00	2024-11-08T22:00:00	3	Temperatura mínima	17.6
119524	7	Sololá	713	San Lucas Tolimán	10	San Lucas Tolimán	4	Abril	2023-04-21T00:00:00	2024-11-08T22:00:00	5	Humedad	61
119525	7	Sololá	713	San Lucas Tolimán	10	San Lucas Tolimán	4	Abril	2023-04-21T00:00:00	2024-11-08T22:00:00	6	Velocidad del viento	1.6
119526	7	Sololá	713	San Lucas Tolimán	10	San Lucas Tolimán	4	Abril	2023-04-21T00:00:00	2024-11-08T22:00:00	7	Dirección del viento	1.61
119527	7	Sololá	713	San Lucas Tolimán	10	San Lucas Tolimán	4	Abril	2023-04-21T00:00:00	2024-11-08T22:00:00	1	Precipitación	0
119528	7	Sololá	713	San Lucas Tolimán	10	San Lucas Tolimán	4	Abril	2023-04-21T00:00:00	2024-11-08T22:00:00	8	Radiación solar	0
119529	7	Sololá	713	San Lucas Tolimán	10	San Lucas Tolimán	4	Abril	2023-04-21T00:00:00	2024-11-08T23:00:00	2	Temperatura media	17.9
119530	7	Sololá	713	San Lucas Tolimán	10	San Lucas Tolimán	4	Abril	2023-04-21T00:00:00	2024-11-08T23:00:00	4	Temperatura máxima	18.3
119531	7	Sololá	713	San Lucas Tolimán	10	San Lucas Tolimán	4	Abril	2023-04-21T00:00:00	2024-11-08T23:00:00	3	Temperatura mínima	17.9
119532	7	Sololá	713	San Lucas Tolimán	10	San Lucas Tolimán	4	Abril	2023-04-21T00:00:00	2024-11-08T23:00:00	5	Humedad	63
119533	7	Sololá	713	San Lucas Tolimán	10	San Lucas Tolimán	4	Abril	2023-04-21T00:00:00	2024-11-08T23:00:00	6	Velocidad del viento	0
119534	7	Sololá	713	San Lucas Tolimán	10	San Lucas Tolimán	4	Abril	2023-04-21T00:00:00	2024-11-08T23:00:00	7	Dirección del viento	0
119535	7	Sololá	713	San Lucas Tolimán	10	San Lucas Tolimán	4	Abril	2023-04-21T00:00:00	2024-11-08T23:00:00	1	Precipitación	0
119536	7	Sololá	713	San Lucas Tolimán	10	San Lucas Tolimán	4	Abril	2023-04-21T00:00:00	2024-11-08T23:00:00	8	Radiación solar	0
119537	7	Sololá	713	San Lucas Tolimán	10	San Lucas Tolimán	4	Abril	2023-04-22T00:00:00	2024-11-08T00:00:00	2	Temperatura media	16.9
119538	7	Sololá	713	San Lucas Tolimán	10	San Lucas Tolimán	4	Abril	2023-04-22T00:00:00	2024-11-08T00:00:00	4	Temperatura máxima	17.9
119539	7	Sololá	713	San Lucas Tolimán	10	San Lucas Tolimán	4	Abril	2023-04-22T00:00:00	2024-11-08T00:00:00	3	Temperatura mínima	16.9
119540	7	Sololá	713	San Lucas Tolimán	10	San Lucas Tolimán	4	Abril	2023-04-22T00:00:00	2024-11-08T00:00:00	5	Humedad	63
119541	7	Sololá	713	San Lucas Tolimán	10	San Lucas Tolimán	4	Abril	2023-04-22T00:00:00	2024-11-08T00:00:00	6	Velocidad del viento	0
119542	7	Sololá	713	San Lucas Tolimán	10	San Lucas Tolimán	4	Abril	2023-04-22T00:00:00	2024-11-08T00:00:00	7	Dirección del viento	0
119543	7	Sololá	713	San Lucas Tolimán	10	San Lucas Tolimán	4	Abril	2023-04-22T00:00:00	2024-11-08T00:00:00	1	Precipitación	0
119544	7	Sololá	713	San Lucas Tolimán	10	San Lucas Tolimán	4	Abril	2023-04-22T00:00:00	2024-11-08T00:00:00	8	Radiación solar	0
119545	7	Sololá	713	San Lucas Tolimán	10	San Lucas Tolimán	4	Abril	2023-04-22T00:00:00	2024-11-08T01:00:00	2	Temperatura media	16.7
119546	7	Sololá	713	San Lucas Tolimán	10	San Lucas Tolimán	4	Abril	2023-04-22T00:00:00	2024-11-08T01:00:00	4	Temperatura máxima	16.9
119547	7	Sololá	713	San Lucas Tolimán	10	San Lucas Tolimán	4	Abril	2023-04-22T00:00:00	2024-11-08T01:00:00	3	Temperatura mínima	16.5
119548	7	Sololá	713	San Lucas Tolimán	10	San Lucas Tolimán	4	Abril	2023-04-22T00:00:00	2024-11-08T01:00:00	5	Humedad	64
119549	7	Sololá	713	San Lucas Tolimán	10	San Lucas Tolimán	4	Abril	2023-04-22T00:00:00	2024-11-08T01:00:00	6	Velocidad del viento	0
119550	7	Sololá	713	San Lucas Tolimán	10	San Lucas Tolimán	4	Abril	2023-04-22T00:00:00	2024-11-08T01:00:00	7	Dirección del viento	0
119551	7	Sololá	713	San Lucas Tolimán	10	San Lucas Tolimán	4	Abril	2023-04-22T00:00:00	2024-11-08T01:00:00	1	Precipitación	0
119552	7	Sololá	713	San Lucas Tolimán	10	San Lucas Tolimán	4	Abril	2023-04-22T00:00:00	2024-11-08T01:00:00	8	Radiación solar	0
119553	7	Sololá	713	San Lucas Tolimán	10	San Lucas Tolimán	4	Abril	2023-04-22T00:00:00	2024-11-08T02:00:00	2	Temperatura media	17.2
119554	7	Sololá	713	San Lucas Tolimán	10	San Lucas Tolimán	4	Abril	2023-04-22T00:00:00	2024-11-08T02:00:00	4	Temperatura máxima	17.2
119555	7	Sololá	713	San Lucas Tolimán	10	San Lucas Tolimán	4	Abril	2023-04-22T00:00:00	2024-11-08T02:00:00	3	Temperatura mínima	16.7
119556	7	Sololá	713	San Lucas Tolimán	10	San Lucas Tolimán	4	Abril	2023-04-22T00:00:00	2024-11-08T02:00:00	5	Humedad	63
119557	7	Sololá	713	San Lucas Tolimán	10	San Lucas Tolimán	4	Abril	2023-04-22T00:00:00	2024-11-08T02:00:00	6	Velocidad del viento	0
119558	7	Sololá	713	San Lucas Tolimán	10	San Lucas Tolimán	4	Abril	2023-04-22T00:00:00	2024-11-08T02:00:00	7	Dirección del viento	0
119559	7	Sololá	713	San Lucas Tolimán	10	San Lucas Tolimán	4	Abril	2023-04-22T00:00:00	2024-11-08T02:00:00	1	Precipitación	0
119560	7	Sololá	713	San Lucas Tolimán	10	San Lucas Tolimán	4	Abril	2023-04-22T00:00:00	2024-11-08T02:00:00	8	Radiación solar	0
119561	7	Sololá	713	San Lucas Tolimán	10	San Lucas Tolimán	4	Abril	2023-04-22T00:00:00	2024-11-08T03:00:00	2	Temperatura media	16.9
119562	7	Sololá	713	San Lucas Tolimán	10	San Lucas Tolimán	4	Abril	2023-04-22T00:00:00	2024-11-08T03:00:00	4	Temperatura máxima	17.3
119563	7	Sololá	713	San Lucas Tolimán	10	San Lucas Tolimán	4	Abril	2023-04-22T00:00:00	2024-11-08T03:00:00	3	Temperatura mínima	16.9
119564	7	Sololá	713	San Lucas Tolimán	10	San Lucas Tolimán	4	Abril	2023-04-22T00:00:00	2024-11-08T03:00:00	5	Humedad	62
119565	7	Sololá	713	San Lucas Tolimán	10	San Lucas Tolimán	4	Abril	2023-04-22T00:00:00	2024-11-08T03:00:00	6	Velocidad del viento	0
119566	7	Sololá	713	San Lucas Tolimán	10	San Lucas Tolimán	4	Abril	2023-04-22T00:00:00	2024-11-08T03:00:00	7	Dirección del viento	0
119567	7	Sololá	713	San Lucas Tolimán	10	San Lucas Tolimán	4	Abril	2023-04-22T00:00:00	2024-11-08T03:00:00	1	Precipitación	0
119568	7	Sololá	713	San Lucas Tolimán	10	San Lucas Tolimán	4	Abril	2023-04-22T00:00:00	2024-11-08T03:00:00	8	Radiación solar	0
119569	7	Sololá	713	San Lucas Tolimán	10	San Lucas Tolimán	4	Abril	2023-04-22T00:00:00	2024-11-08T04:00:00	2	Temperatura media	16.7
119570	7	Sololá	713	San Lucas Tolimán	10	San Lucas Tolimán	4	Abril	2023-04-22T00:00:00	2024-11-08T04:00:00	4	Temperatura máxima	17
119571	7	Sololá	713	San Lucas Tolimán	10	San Lucas Tolimán	4	Abril	2023-04-22T00:00:00	2024-11-08T04:00:00	3	Temperatura mínima	16.7
119572	7	Sololá	713	San Lucas Tolimán	10	San Lucas Tolimán	4	Abril	2023-04-22T00:00:00	2024-11-08T04:00:00	5	Humedad	61
119573	7	Sololá	713	San Lucas Tolimán	10	San Lucas Tolimán	4	Abril	2023-04-22T00:00:00	2024-11-08T04:00:00	6	Velocidad del viento	1.6
119574	7	Sololá	713	San Lucas Tolimán	10	San Lucas Tolimán	4	Abril	2023-04-22T00:00:00	2024-11-08T04:00:00	7	Dirección del viento	1.61
119575	7	Sololá	713	San Lucas Tolimán	10	San Lucas Tolimán	4	Abril	2023-04-22T00:00:00	2024-11-08T04:00:00	1	Precipitación	0
119576	7	Sololá	713	San Lucas Tolimán	10	San Lucas Tolimán	4	Abril	2023-04-22T00:00:00	2024-11-08T04:00:00	8	Radiación solar	0
119577	7	Sololá	713	San Lucas Tolimán	10	San Lucas Tolimán	4	Abril	2023-04-22T00:00:00	2024-11-08T05:00:00	2	Temperatura media	16.4
119578	7	Sololá	713	San Lucas Tolimán	10	San Lucas Tolimán	4	Abril	2023-04-22T00:00:00	2024-11-08T05:00:00	4	Temperatura máxima	16.7
119579	7	Sololá	713	San Lucas Tolimán	10	San Lucas Tolimán	4	Abril	2023-04-22T00:00:00	2024-11-08T05:00:00	3	Temperatura mínima	16.4
119580	7	Sololá	713	San Lucas Tolimán	10	San Lucas Tolimán	4	Abril	2023-04-22T00:00:00	2024-11-08T05:00:00	5	Humedad	63
119581	7	Sololá	713	San Lucas Tolimán	10	San Lucas Tolimán	4	Abril	2023-04-22T00:00:00	2024-11-08T05:00:00	6	Velocidad del viento	1.6
119582	7	Sololá	713	San Lucas Tolimán	10	San Lucas Tolimán	4	Abril	2023-04-22T00:00:00	2024-11-08T05:00:00	7	Dirección del viento	1.61
119583	7	Sololá	713	San Lucas Tolimán	10	San Lucas Tolimán	4	Abril	2023-04-22T00:00:00	2024-11-08T05:00:00	1	Precipitación	0
119584	7	Sololá	713	San Lucas Tolimán	10	San Lucas Tolimán	4	Abril	2023-04-22T00:00:00	2024-11-08T05:00:00	8	Radiación solar	0
119585	7	Sololá	713	San Lucas Tolimán	10	San Lucas Tolimán	4	Abril	2023-04-22T00:00:00	2024-11-08T06:00:00	2	Temperatura media	16
119586	7	Sololá	713	San Lucas Tolimán	10	San Lucas Tolimán	4	Abril	2023-04-22T00:00:00	2024-11-08T06:00:00	4	Temperatura máxima	16.4
119587	7	Sololá	713	San Lucas Tolimán	10	San Lucas Tolimán	4	Abril	2023-04-22T00:00:00	2024-11-08T06:00:00	3	Temperatura mínima	15.9
119588	7	Sololá	713	San Lucas Tolimán	10	San Lucas Tolimán	4	Abril	2023-04-22T00:00:00	2024-11-08T06:00:00	5	Humedad	62
119589	7	Sololá	713	San Lucas Tolimán	10	San Lucas Tolimán	4	Abril	2023-04-22T00:00:00	2024-11-08T06:00:00	6	Velocidad del viento	1.6
119590	7	Sololá	713	San Lucas Tolimán	10	San Lucas Tolimán	4	Abril	2023-04-22T00:00:00	2024-11-08T06:00:00	7	Dirección del viento	1.61
119591	7	Sololá	713	San Lucas Tolimán	10	San Lucas Tolimán	4	Abril	2023-04-22T00:00:00	2024-11-08T06:00:00	1	Precipitación	0
119592	7	Sololá	713	San Lucas Tolimán	10	San Lucas Tolimán	4	Abril	2023-04-22T00:00:00	2024-11-08T06:00:00	8	Radiación solar	1
119593	7	Sololá	713	San Lucas Tolimán	10	San Lucas Tolimán	4	Abril	2023-04-22T00:00:00	2024-11-08T07:00:00	2	Temperatura media	17.4
119594	7	Sololá	713	San Lucas Tolimán	10	San Lucas Tolimán	4	Abril	2023-04-22T00:00:00	2024-11-08T07:00:00	4	Temperatura máxima	17.4
119595	7	Sololá	713	San Lucas Tolimán	10	San Lucas Tolimán	4	Abril	2023-04-22T00:00:00	2024-11-08T07:00:00	3	Temperatura mínima	16
119596	7	Sololá	713	San Lucas Tolimán	10	San Lucas Tolimán	4	Abril	2023-04-22T00:00:00	2024-11-08T07:00:00	5	Humedad	61
119597	7	Sololá	713	San Lucas Tolimán	10	San Lucas Tolimán	4	Abril	2023-04-22T00:00:00	2024-11-08T07:00:00	6	Velocidad del viento	1.6
119598	7	Sololá	713	San Lucas Tolimán	10	San Lucas Tolimán	4	Abril	2023-04-22T00:00:00	2024-11-08T07:00:00	7	Dirección del viento	1.61
119599	7	Sololá	713	San Lucas Tolimán	10	San Lucas Tolimán	4	Abril	2023-04-22T00:00:00	2024-11-08T07:00:00	1	Precipitación	0
119600	7	Sololá	713	San Lucas Tolimán	10	San Lucas Tolimán	4	Abril	2023-04-22T00:00:00	2024-11-08T07:00:00	8	Radiación solar	63
119601	7	Sololá	713	San Lucas Tolimán	10	San Lucas Tolimán	4	Abril	2023-04-22T00:00:00	2024-11-08T08:00:00	2	Temperatura media	19.7
119602	7	Sololá	713	San Lucas Tolimán	10	San Lucas Tolimán	4	Abril	2023-04-22T00:00:00	2024-11-08T08:00:00	4	Temperatura máxima	19.7
119603	7	Sololá	713	San Lucas Tolimán	10	San Lucas Tolimán	4	Abril	2023-04-22T00:00:00	2024-11-08T08:00:00	3	Temperatura mínima	17.4
119604	7	Sololá	713	San Lucas Tolimán	10	San Lucas Tolimán	4	Abril	2023-04-22T00:00:00	2024-11-08T08:00:00	5	Humedad	58
119605	7	Sololá	713	San Lucas Tolimán	10	San Lucas Tolimán	4	Abril	2023-04-22T00:00:00	2024-11-08T08:00:00	6	Velocidad del viento	4.8
119606	7	Sololá	713	San Lucas Tolimán	10	San Lucas Tolimán	4	Abril	2023-04-22T00:00:00	2024-11-08T08:00:00	7	Dirección del viento	4.83
119607	7	Sololá	713	San Lucas Tolimán	10	San Lucas Tolimán	4	Abril	2023-04-22T00:00:00	2024-11-08T08:00:00	1	Precipitación	0
119608	7	Sololá	713	San Lucas Tolimán	10	San Lucas Tolimán	4	Abril	2023-04-22T00:00:00	2024-11-08T08:00:00	8	Radiación solar	292
119609	7	Sololá	713	San Lucas Tolimán	10	San Lucas Tolimán	4	Abril	2023-04-22T00:00:00	2024-11-08T09:00:00	2	Temperatura media	21.4
119610	7	Sololá	713	San Lucas Tolimán	10	San Lucas Tolimán	4	Abril	2023-04-22T00:00:00	2024-11-08T09:00:00	4	Temperatura máxima	21.4
119611	7	Sololá	713	San Lucas Tolimán	10	San Lucas Tolimán	4	Abril	2023-04-22T00:00:00	2024-11-08T09:00:00	3	Temperatura mínima	19.7
119612	7	Sololá	713	San Lucas Tolimán	10	San Lucas Tolimán	4	Abril	2023-04-22T00:00:00	2024-11-08T09:00:00	5	Humedad	55
119613	7	Sololá	713	San Lucas Tolimán	10	San Lucas Tolimán	4	Abril	2023-04-22T00:00:00	2024-11-08T09:00:00	6	Velocidad del viento	6.4
119614	7	Sololá	713	San Lucas Tolimán	10	San Lucas Tolimán	4	Abril	2023-04-22T00:00:00	2024-11-08T09:00:00	7	Dirección del viento	6.44
119615	7	Sololá	713	San Lucas Tolimán	10	San Lucas Tolimán	4	Abril	2023-04-22T00:00:00	2024-11-08T09:00:00	1	Precipitación	0
119616	7	Sololá	713	San Lucas Tolimán	10	San Lucas Tolimán	4	Abril	2023-04-22T00:00:00	2024-11-08T09:00:00	8	Radiación solar	474
119617	7	Sololá	713	San Lucas Tolimán	10	San Lucas Tolimán	4	Abril	2023-04-22T00:00:00	2024-11-08T10:00:00	2	Temperatura media	25.1
119618	7	Sololá	713	San Lucas Tolimán	10	San Lucas Tolimán	4	Abril	2023-04-22T00:00:00	2024-11-08T10:00:00	4	Temperatura máxima	25.4
119619	7	Sololá	713	San Lucas Tolimán	10	San Lucas Tolimán	4	Abril	2023-04-22T00:00:00	2024-11-08T10:00:00	3	Temperatura mínima	21.5
119620	7	Sololá	713	San Lucas Tolimán	10	San Lucas Tolimán	4	Abril	2023-04-22T00:00:00	2024-11-08T10:00:00	5	Humedad	48
119621	7	Sololá	713	San Lucas Tolimán	10	San Lucas Tolimán	4	Abril	2023-04-22T00:00:00	2024-11-08T10:00:00	6	Velocidad del viento	4.8
119622	7	Sololá	713	San Lucas Tolimán	10	San Lucas Tolimán	4	Abril	2023-04-22T00:00:00	2024-11-08T10:00:00	7	Dirección del viento	4.83
119623	7	Sololá	713	San Lucas Tolimán	10	San Lucas Tolimán	4	Abril	2023-04-22T00:00:00	2024-11-08T10:00:00	1	Precipitación	0
119624	7	Sololá	713	San Lucas Tolimán	10	San Lucas Tolimán	4	Abril	2023-04-22T00:00:00	2024-11-08T10:00:00	8	Radiación solar	668
119625	7	Sololá	713	San Lucas Tolimán	10	San Lucas Tolimán	4	Abril	2023-04-22T00:00:00	2024-11-08T11:00:00	2	Temperatura media	24.3
119626	7	Sololá	713	San Lucas Tolimán	10	San Lucas Tolimán	4	Abril	2023-04-22T00:00:00	2024-11-08T11:00:00	4	Temperatura máxima	25.4
119627	7	Sololá	713	San Lucas Tolimán	10	San Lucas Tolimán	4	Abril	2023-04-22T00:00:00	2024-11-08T11:00:00	3	Temperatura mínima	24.2
119628	7	Sololá	713	San Lucas Tolimán	10	San Lucas Tolimán	4	Abril	2023-04-22T00:00:00	2024-11-08T11:00:00	5	Humedad	53
119629	7	Sololá	713	San Lucas Tolimán	10	San Lucas Tolimán	4	Abril	2023-04-22T00:00:00	2024-11-08T11:00:00	6	Velocidad del viento	9.7
119630	7	Sololá	713	San Lucas Tolimán	10	San Lucas Tolimán	4	Abril	2023-04-22T00:00:00	2024-11-08T11:00:00	7	Dirección del viento	9.66
119631	7	Sololá	713	San Lucas Tolimán	10	San Lucas Tolimán	4	Abril	2023-04-22T00:00:00	2024-11-08T11:00:00	1	Precipitación	0
119632	7	Sololá	713	San Lucas Tolimán	10	San Lucas Tolimán	4	Abril	2023-04-22T00:00:00	2024-11-08T11:00:00	8	Radiación solar	960
119633	7	Sololá	713	San Lucas Tolimán	10	San Lucas Tolimán	4	Abril	2023-04-22T00:00:00	2024-11-08T12:00:00	2	Temperatura media	24.8
119634	7	Sololá	713	San Lucas Tolimán	10	San Lucas Tolimán	4	Abril	2023-04-22T00:00:00	2024-11-08T12:00:00	4	Temperatura máxima	24.8
119635	7	Sololá	713	San Lucas Tolimán	10	San Lucas Tolimán	4	Abril	2023-04-22T00:00:00	2024-11-08T12:00:00	3	Temperatura mínima	24.1
119636	7	Sololá	713	San Lucas Tolimán	10	San Lucas Tolimán	4	Abril	2023-04-22T00:00:00	2024-11-08T12:00:00	5	Humedad	52
119637	7	Sololá	713	San Lucas Tolimán	10	San Lucas Tolimán	4	Abril	2023-04-22T00:00:00	2024-11-08T12:00:00	6	Velocidad del viento	11.3
119638	7	Sololá	713	San Lucas Tolimán	10	San Lucas Tolimán	4	Abril	2023-04-22T00:00:00	2024-11-08T12:00:00	7	Dirección del viento	11.27
119639	7	Sololá	713	San Lucas Tolimán	10	San Lucas Tolimán	4	Abril	2023-04-22T00:00:00	2024-11-08T12:00:00	1	Precipitación	0
119640	7	Sololá	713	San Lucas Tolimán	10	San Lucas Tolimán	4	Abril	2023-04-22T00:00:00	2024-11-08T12:00:00	8	Radiación solar	1062
119641	7	Sololá	713	San Lucas Tolimán	10	San Lucas Tolimán	4	Abril	2023-04-22T00:00:00	2024-11-08T13:00:00	2	Temperatura media	24.2
119642	7	Sololá	713	San Lucas Tolimán	10	San Lucas Tolimán	4	Abril	2023-04-22T00:00:00	2024-11-08T13:00:00	4	Temperatura máxima	25
119643	7	Sololá	713	San Lucas Tolimán	10	San Lucas Tolimán	4	Abril	2023-04-22T00:00:00	2024-11-08T13:00:00	3	Temperatura mínima	24.2
119644	7	Sololá	713	San Lucas Tolimán	10	San Lucas Tolimán	4	Abril	2023-04-22T00:00:00	2024-11-08T13:00:00	5	Humedad	55
119645	7	Sololá	713	San Lucas Tolimán	10	San Lucas Tolimán	4	Abril	2023-04-22T00:00:00	2024-11-08T13:00:00	6	Velocidad del viento	12.9
119646	7	Sololá	713	San Lucas Tolimán	10	San Lucas Tolimán	4	Abril	2023-04-22T00:00:00	2024-11-08T13:00:00	7	Dirección del viento	12.87
119647	7	Sololá	713	San Lucas Tolimán	10	San Lucas Tolimán	4	Abril	2023-04-22T00:00:00	2024-11-08T13:00:00	1	Precipitación	0
119648	7	Sololá	713	San Lucas Tolimán	10	San Lucas Tolimán	4	Abril	2023-04-22T00:00:00	2024-11-08T13:00:00	8	Radiación solar	1066
119649	7	Sololá	713	San Lucas Tolimán	10	San Lucas Tolimán	4	Abril	2023-04-22T00:00:00	2024-11-08T14:00:00	2	Temperatura media	23.6
119650	7	Sololá	713	San Lucas Tolimán	10	San Lucas Tolimán	4	Abril	2023-04-22T00:00:00	2024-11-08T14:00:00	4	Temperatura máxima	24.4
119651	7	Sololá	713	San Lucas Tolimán	10	San Lucas Tolimán	4	Abril	2023-04-22T00:00:00	2024-11-08T14:00:00	3	Temperatura mínima	23.1
119652	7	Sololá	713	San Lucas Tolimán	10	San Lucas Tolimán	4	Abril	2023-04-22T00:00:00	2024-11-08T14:00:00	5	Humedad	59
119653	7	Sololá	713	San Lucas Tolimán	10	San Lucas Tolimán	4	Abril	2023-04-22T00:00:00	2024-11-08T14:00:00	6	Velocidad del viento	12.9
119654	7	Sololá	713	San Lucas Tolimán	10	San Lucas Tolimán	4	Abril	2023-04-22T00:00:00	2024-11-08T14:00:00	7	Dirección del viento	12.87
119655	7	Sololá	713	San Lucas Tolimán	10	San Lucas Tolimán	4	Abril	2023-04-22T00:00:00	2024-11-08T14:00:00	1	Precipitación	0
119656	7	Sololá	713	San Lucas Tolimán	10	San Lucas Tolimán	4	Abril	2023-04-22T00:00:00	2024-11-08T14:00:00	8	Radiación solar	870
119657	7	Sololá	713	San Lucas Tolimán	10	San Lucas Tolimán	4	Abril	2023-04-22T00:00:00	2024-11-08T15:00:00	2	Temperatura media	22.8
119658	7	Sololá	713	San Lucas Tolimán	10	San Lucas Tolimán	4	Abril	2023-04-22T00:00:00	2024-11-08T15:00:00	4	Temperatura máxima	23.7
119659	7	Sololá	713	San Lucas Tolimán	10	San Lucas Tolimán	4	Abril	2023-04-22T00:00:00	2024-11-08T15:00:00	3	Temperatura mínima	22.7
119660	7	Sololá	713	San Lucas Tolimán	10	San Lucas Tolimán	4	Abril	2023-04-22T00:00:00	2024-11-08T15:00:00	5	Humedad	60
119661	7	Sololá	713	San Lucas Tolimán	10	San Lucas Tolimán	4	Abril	2023-04-22T00:00:00	2024-11-08T15:00:00	6	Velocidad del viento	12.9
119662	7	Sololá	713	San Lucas Tolimán	10	San Lucas Tolimán	4	Abril	2023-04-22T00:00:00	2024-11-08T15:00:00	7	Dirección del viento	12.87
119663	7	Sololá	713	San Lucas Tolimán	10	San Lucas Tolimán	4	Abril	2023-04-22T00:00:00	2024-11-08T15:00:00	1	Precipitación	0
119664	7	Sololá	713	San Lucas Tolimán	10	San Lucas Tolimán	4	Abril	2023-04-22T00:00:00	2024-11-08T15:00:00	8	Radiación solar	676
119665	7	Sololá	713	San Lucas Tolimán	10	San Lucas Tolimán	4	Abril	2023-04-22T00:00:00	2024-11-08T16:00:00	2	Temperatura media	22.2
119666	7	Sololá	713	San Lucas Tolimán	10	San Lucas Tolimán	4	Abril	2023-04-22T00:00:00	2024-11-08T16:00:00	4	Temperatura máxima	23.2
119667	7	Sololá	713	San Lucas Tolimán	10	San Lucas Tolimán	4	Abril	2023-04-22T00:00:00	2024-11-08T16:00:00	3	Temperatura mínima	22.2
119668	7	Sololá	713	San Lucas Tolimán	10	San Lucas Tolimán	4	Abril	2023-04-22T00:00:00	2024-11-08T16:00:00	5	Humedad	61
119669	7	Sololá	713	San Lucas Tolimán	10	San Lucas Tolimán	4	Abril	2023-04-22T00:00:00	2024-11-08T16:00:00	6	Velocidad del viento	9.7
119670	7	Sololá	713	San Lucas Tolimán	10	San Lucas Tolimán	4	Abril	2023-04-22T00:00:00	2024-11-08T16:00:00	7	Dirección del viento	9.66
119671	7	Sololá	713	San Lucas Tolimán	10	San Lucas Tolimán	4	Abril	2023-04-22T00:00:00	2024-11-08T16:00:00	1	Precipitación	0
119672	7	Sololá	713	San Lucas Tolimán	10	San Lucas Tolimán	4	Abril	2023-04-22T00:00:00	2024-11-08T16:00:00	8	Radiación solar	348
119673	7	Sololá	713	San Lucas Tolimán	10	San Lucas Tolimán	4	Abril	2023-04-22T00:00:00	2024-11-08T17:00:00	2	Temperatura media	21.8
119674	7	Sololá	713	San Lucas Tolimán	10	San Lucas Tolimán	4	Abril	2023-04-22T00:00:00	2024-11-08T17:00:00	4	Temperatura máxima	22.3
119675	7	Sololá	713	San Lucas Tolimán	10	San Lucas Tolimán	4	Abril	2023-04-22T00:00:00	2024-11-08T17:00:00	3	Temperatura mínima	21.7
119676	7	Sololá	713	San Lucas Tolimán	10	San Lucas Tolimán	4	Abril	2023-04-22T00:00:00	2024-11-08T17:00:00	5	Humedad	61
119677	7	Sololá	713	San Lucas Tolimán	10	San Lucas Tolimán	4	Abril	2023-04-22T00:00:00	2024-11-08T17:00:00	6	Velocidad del viento	8
119678	7	Sololá	713	San Lucas Tolimán	10	San Lucas Tolimán	4	Abril	2023-04-22T00:00:00	2024-11-08T17:00:00	7	Dirección del viento	8.05
119679	7	Sololá	713	San Lucas Tolimán	10	San Lucas Tolimán	4	Abril	2023-04-22T00:00:00	2024-11-08T17:00:00	1	Precipitación	0
119680	7	Sololá	713	San Lucas Tolimán	10	San Lucas Tolimán	4	Abril	2023-04-22T00:00:00	2024-11-08T17:00:00	8	Radiación solar	128
119681	7	Sololá	713	San Lucas Tolimán	10	San Lucas Tolimán	4	Abril	2023-04-22T00:00:00	2024-11-08T18:00:00	2	Temperatura media	21.2
119682	7	Sololá	713	San Lucas Tolimán	10	San Lucas Tolimán	4	Abril	2023-04-22T00:00:00	2024-11-08T18:00:00	4	Temperatura máxima	22.1
119683	7	Sololá	713	San Lucas Tolimán	10	San Lucas Tolimán	4	Abril	2023-04-22T00:00:00	2024-11-08T18:00:00	3	Temperatura mínima	21.2
119684	7	Sololá	713	San Lucas Tolimán	10	San Lucas Tolimán	4	Abril	2023-04-22T00:00:00	2024-11-08T18:00:00	5	Humedad	61
119685	7	Sololá	713	San Lucas Tolimán	10	San Lucas Tolimán	4	Abril	2023-04-22T00:00:00	2024-11-08T18:00:00	6	Velocidad del viento	4.8
119686	7	Sololá	713	San Lucas Tolimán	10	San Lucas Tolimán	4	Abril	2023-04-22T00:00:00	2024-11-08T18:00:00	7	Dirección del viento	4.83
119687	7	Sololá	713	San Lucas Tolimán	10	San Lucas Tolimán	4	Abril	2023-04-22T00:00:00	2024-11-08T18:00:00	1	Precipitación	0
119688	7	Sololá	713	San Lucas Tolimán	10	San Lucas Tolimán	4	Abril	2023-04-22T00:00:00	2024-11-08T18:00:00	8	Radiación solar	56
119689	7	Sololá	713	San Lucas Tolimán	10	San Lucas Tolimán	4	Abril	2023-04-22T00:00:00	2024-11-08T19:00:00	2	Temperatura media	20.8
119690	7	Sololá	713	San Lucas Tolimán	10	San Lucas Tolimán	4	Abril	2023-04-22T00:00:00	2024-11-08T19:00:00	4	Temperatura máxima	21.2
119691	7	Sololá	713	San Lucas Tolimán	10	San Lucas Tolimán	4	Abril	2023-04-22T00:00:00	2024-11-08T19:00:00	3	Temperatura mínima	20.8
119692	7	Sololá	713	San Lucas Tolimán	10	San Lucas Tolimán	4	Abril	2023-04-22T00:00:00	2024-11-08T19:00:00	5	Humedad	61
119693	7	Sololá	713	San Lucas Tolimán	10	San Lucas Tolimán	4	Abril	2023-04-22T00:00:00	2024-11-08T19:00:00	6	Velocidad del viento	3.2
119694	7	Sololá	713	San Lucas Tolimán	10	San Lucas Tolimán	4	Abril	2023-04-22T00:00:00	2024-11-08T19:00:00	7	Dirección del viento	3.22
119695	7	Sololá	713	San Lucas Tolimán	10	San Lucas Tolimán	4	Abril	2023-04-22T00:00:00	2024-11-08T19:00:00	1	Precipitación	0
119696	7	Sololá	713	San Lucas Tolimán	10	San Lucas Tolimán	4	Abril	2023-04-22T00:00:00	2024-11-08T19:00:00	8	Radiación solar	0
119697	7	Sololá	713	San Lucas Tolimán	10	San Lucas Tolimán	4	Abril	2023-04-22T00:00:00	2024-11-08T20:00:00	2	Temperatura media	20.1
119698	7	Sololá	713	San Lucas Tolimán	10	San Lucas Tolimán	4	Abril	2023-04-22T00:00:00	2024-11-08T20:00:00	4	Temperatura máxima	20.8
119699	7	Sololá	713	San Lucas Tolimán	10	San Lucas Tolimán	4	Abril	2023-04-22T00:00:00	2024-11-08T20:00:00	3	Temperatura mínima	20.1
119700	7	Sololá	713	San Lucas Tolimán	10	San Lucas Tolimán	4	Abril	2023-04-22T00:00:00	2024-11-08T20:00:00	5	Humedad	61
119701	7	Sololá	713	San Lucas Tolimán	10	San Lucas Tolimán	4	Abril	2023-04-22T00:00:00	2024-11-08T20:00:00	6	Velocidad del viento	4.8
119702	7	Sololá	713	San Lucas Tolimán	10	San Lucas Tolimán	4	Abril	2023-04-22T00:00:00	2024-11-08T20:00:00	7	Dirección del viento	4.83
119703	7	Sololá	713	San Lucas Tolimán	10	San Lucas Tolimán	4	Abril	2023-04-22T00:00:00	2024-11-08T20:00:00	1	Precipitación	0
119704	7	Sololá	713	San Lucas Tolimán	10	San Lucas Tolimán	4	Abril	2023-04-22T00:00:00	2024-11-08T20:00:00	8	Radiación solar	0
119705	7	Sololá	713	San Lucas Tolimán	10	San Lucas Tolimán	4	Abril	2023-04-22T00:00:00	2024-11-08T21:00:00	2	Temperatura media	19.8
119706	7	Sololá	713	San Lucas Tolimán	10	San Lucas Tolimán	4	Abril	2023-04-22T00:00:00	2024-11-08T21:00:00	4	Temperatura máxima	20.1
119707	7	Sololá	713	San Lucas Tolimán	10	San Lucas Tolimán	4	Abril	2023-04-22T00:00:00	2024-11-08T21:00:00	3	Temperatura mínima	19.8
119708	7	Sololá	713	San Lucas Tolimán	10	San Lucas Tolimán	4	Abril	2023-04-22T00:00:00	2024-11-08T21:00:00	5	Humedad	62
119709	7	Sololá	713	San Lucas Tolimán	10	San Lucas Tolimán	4	Abril	2023-04-22T00:00:00	2024-11-08T21:00:00	6	Velocidad del viento	6.4
119710	7	Sololá	713	San Lucas Tolimán	10	San Lucas Tolimán	4	Abril	2023-04-22T00:00:00	2024-11-08T21:00:00	7	Dirección del viento	6.44
119711	7	Sololá	713	San Lucas Tolimán	10	San Lucas Tolimán	4	Abril	2023-04-22T00:00:00	2024-11-08T21:00:00	1	Precipitación	0
119712	7	Sololá	713	San Lucas Tolimán	10	San Lucas Tolimán	4	Abril	2023-04-22T00:00:00	2024-11-08T21:00:00	8	Radiación solar	0
119713	7	Sololá	713	San Lucas Tolimán	10	San Lucas Tolimán	4	Abril	2023-04-22T00:00:00	2024-11-08T22:00:00	2	Temperatura media	19.8
119714	7	Sololá	713	San Lucas Tolimán	10	San Lucas Tolimán	4	Abril	2023-04-22T00:00:00	2024-11-08T22:00:00	4	Temperatura máxima	20
119715	7	Sololá	713	San Lucas Tolimán	10	San Lucas Tolimán	4	Abril	2023-04-22T00:00:00	2024-11-08T22:00:00	3	Temperatura mínima	19.8
119716	7	Sololá	713	San Lucas Tolimán	10	San Lucas Tolimán	4	Abril	2023-04-22T00:00:00	2024-11-08T22:00:00	5	Humedad	60
119717	7	Sololá	713	San Lucas Tolimán	10	San Lucas Tolimán	4	Abril	2023-04-22T00:00:00	2024-11-08T22:00:00	6	Velocidad del viento	3.2
119718	7	Sololá	713	San Lucas Tolimán	10	San Lucas Tolimán	4	Abril	2023-04-22T00:00:00	2024-11-08T22:00:00	7	Dirección del viento	3.22
119719	7	Sololá	713	San Lucas Tolimán	10	San Lucas Tolimán	4	Abril	2023-04-22T00:00:00	2024-11-08T22:00:00	1	Precipitación	0
119720	7	Sololá	713	San Lucas Tolimán	10	San Lucas Tolimán	4	Abril	2023-04-22T00:00:00	2024-11-08T22:00:00	8	Radiación solar	0
119721	7	Sololá	713	San Lucas Tolimán	10	San Lucas Tolimán	4	Abril	2023-04-22T00:00:00	2024-11-08T23:00:00	2	Temperatura media	19.6
119722	7	Sololá	713	San Lucas Tolimán	10	San Lucas Tolimán	4	Abril	2023-04-22T00:00:00	2024-11-08T23:00:00	4	Temperatura máxima	19.9
119723	7	Sololá	713	San Lucas Tolimán	10	San Lucas Tolimán	4	Abril	2023-04-22T00:00:00	2024-11-08T23:00:00	3	Temperatura mínima	19.6
119724	7	Sololá	713	San Lucas Tolimán	10	San Lucas Tolimán	4	Abril	2023-04-22T00:00:00	2024-11-08T23:00:00	5	Humedad	61
119725	7	Sololá	713	San Lucas Tolimán	10	San Lucas Tolimán	4	Abril	2023-04-22T00:00:00	2024-11-08T23:00:00	6	Velocidad del viento	1.6
119726	7	Sololá	713	San Lucas Tolimán	10	San Lucas Tolimán	4	Abril	2023-04-22T00:00:00	2024-11-08T23:00:00	7	Dirección del viento	1.61
119727	7	Sololá	713	San Lucas Tolimán	10	San Lucas Tolimán	4	Abril	2023-04-22T00:00:00	2024-11-08T23:00:00	1	Precipitación	0
119728	7	Sololá	713	San Lucas Tolimán	10	San Lucas Tolimán	4	Abril	2023-04-22T00:00:00	2024-11-08T23:00:00	8	Radiación solar	0
119729	7	Sololá	713	San Lucas Tolimán	10	San Lucas Tolimán	4	Abril	2023-04-23T00:00:00	2024-11-08T00:00:00	2	Temperatura media	18.3
119730	7	Sololá	713	San Lucas Tolimán	10	San Lucas Tolimán	4	Abril	2023-04-23T00:00:00	2024-11-08T00:00:00	4	Temperatura máxima	19.6
119731	7	Sololá	713	San Lucas Tolimán	10	San Lucas Tolimán	4	Abril	2023-04-23T00:00:00	2024-11-08T00:00:00	3	Temperatura mínima	18.3
119732	7	Sololá	713	San Lucas Tolimán	10	San Lucas Tolimán	4	Abril	2023-04-23T00:00:00	2024-11-08T00:00:00	5	Humedad	58
119733	7	Sololá	713	San Lucas Tolimán	10	San Lucas Tolimán	4	Abril	2023-04-23T00:00:00	2024-11-08T00:00:00	6	Velocidad del viento	0
119734	7	Sololá	713	San Lucas Tolimán	10	San Lucas Tolimán	4	Abril	2023-04-23T00:00:00	2024-11-08T00:00:00	7	Dirección del viento	0
119735	7	Sololá	713	San Lucas Tolimán	10	San Lucas Tolimán	4	Abril	2023-04-23T00:00:00	2024-11-08T00:00:00	1	Precipitación	0
119736	7	Sololá	713	San Lucas Tolimán	10	San Lucas Tolimán	4	Abril	2023-04-23T00:00:00	2024-11-08T00:00:00	8	Radiación solar	0
119737	7	Sololá	713	San Lucas Tolimán	10	San Lucas Tolimán	4	Abril	2023-04-23T00:00:00	2024-11-08T01:00:00	2	Temperatura media	17.6
119738	7	Sololá	713	San Lucas Tolimán	10	San Lucas Tolimán	4	Abril	2023-04-23T00:00:00	2024-11-08T01:00:00	4	Temperatura máxima	18.3
119739	7	Sololá	713	San Lucas Tolimán	10	San Lucas Tolimán	4	Abril	2023-04-23T00:00:00	2024-11-08T01:00:00	3	Temperatura mínima	17.6
119740	7	Sololá	713	San Lucas Tolimán	10	San Lucas Tolimán	4	Abril	2023-04-23T00:00:00	2024-11-08T01:00:00	5	Humedad	60
119741	7	Sololá	713	San Lucas Tolimán	10	San Lucas Tolimán	4	Abril	2023-04-23T00:00:00	2024-11-08T01:00:00	6	Velocidad del viento	1.6
119742	7	Sololá	713	San Lucas Tolimán	10	San Lucas Tolimán	4	Abril	2023-04-23T00:00:00	2024-11-08T01:00:00	7	Dirección del viento	1.61
119743	7	Sololá	713	San Lucas Tolimán	10	San Lucas Tolimán	4	Abril	2023-04-23T00:00:00	2024-11-08T01:00:00	1	Precipitación	0
119744	7	Sololá	713	San Lucas Tolimán	10	San Lucas Tolimán	4	Abril	2023-04-23T00:00:00	2024-11-08T01:00:00	8	Radiación solar	0
119745	7	Sololá	713	San Lucas Tolimán	10	San Lucas Tolimán	4	Abril	2023-04-23T00:00:00	2024-11-08T02:00:00	2	Temperatura media	17.1
119746	7	Sololá	713	San Lucas Tolimán	10	San Lucas Tolimán	4	Abril	2023-04-23T00:00:00	2024-11-08T02:00:00	4	Temperatura máxima	17.6
119747	7	Sololá	713	San Lucas Tolimán	10	San Lucas Tolimán	4	Abril	2023-04-23T00:00:00	2024-11-08T02:00:00	3	Temperatura mínima	17.1
119748	7	Sololá	713	San Lucas Tolimán	10	San Lucas Tolimán	4	Abril	2023-04-23T00:00:00	2024-11-08T02:00:00	5	Humedad	58
119749	7	Sololá	713	San Lucas Tolimán	10	San Lucas Tolimán	4	Abril	2023-04-23T00:00:00	2024-11-08T02:00:00	6	Velocidad del viento	1.6
119750	7	Sololá	713	San Lucas Tolimán	10	San Lucas Tolimán	4	Abril	2023-04-23T00:00:00	2024-11-08T02:00:00	7	Dirección del viento	1.61
119751	7	Sololá	713	San Lucas Tolimán	10	San Lucas Tolimán	4	Abril	2023-04-23T00:00:00	2024-11-08T02:00:00	1	Precipitación	0
119752	7	Sololá	713	San Lucas Tolimán	10	San Lucas Tolimán	4	Abril	2023-04-23T00:00:00	2024-11-08T02:00:00	8	Radiación solar	0
119753	7	Sololá	713	San Lucas Tolimán	10	San Lucas Tolimán	4	Abril	2023-04-23T00:00:00	2024-11-08T03:00:00	2	Temperatura media	17.1
119754	7	Sololá	713	San Lucas Tolimán	10	San Lucas Tolimán	4	Abril	2023-04-23T00:00:00	2024-11-08T03:00:00	4	Temperatura máxima	17.2
119755	7	Sololá	713	San Lucas Tolimán	10	San Lucas Tolimán	4	Abril	2023-04-23T00:00:00	2024-11-08T03:00:00	3	Temperatura mínima	16.9
119756	7	Sololá	713	San Lucas Tolimán	10	San Lucas Tolimán	4	Abril	2023-04-23T00:00:00	2024-11-08T03:00:00	5	Humedad	57
119757	7	Sololá	713	San Lucas Tolimán	10	San Lucas Tolimán	4	Abril	2023-04-23T00:00:00	2024-11-08T03:00:00	6	Velocidad del viento	0
119758	7	Sololá	713	San Lucas Tolimán	10	San Lucas Tolimán	4	Abril	2023-04-23T00:00:00	2024-11-08T03:00:00	7	Dirección del viento	0
119759	7	Sololá	713	San Lucas Tolimán	10	San Lucas Tolimán	4	Abril	2023-04-23T00:00:00	2024-11-08T03:00:00	1	Precipitación	0
119760	7	Sololá	713	San Lucas Tolimán	10	San Lucas Tolimán	4	Abril	2023-04-23T00:00:00	2024-11-08T03:00:00	8	Radiación solar	0
119761	7	Sololá	713	San Lucas Tolimán	10	San Lucas Tolimán	4	Abril	2023-04-23T00:00:00	2024-11-08T04:00:00	2	Temperatura media	17.1
119762	7	Sololá	713	San Lucas Tolimán	10	San Lucas Tolimán	4	Abril	2023-04-23T00:00:00	2024-11-08T04:00:00	4	Temperatura máxima	17.4
119763	7	Sololá	713	San Lucas Tolimán	10	San Lucas Tolimán	4	Abril	2023-04-23T00:00:00	2024-11-08T04:00:00	3	Temperatura mínima	17.1
119764	7	Sololá	713	San Lucas Tolimán	10	San Lucas Tolimán	4	Abril	2023-04-23T00:00:00	2024-11-08T04:00:00	5	Humedad	59
119765	7	Sololá	713	San Lucas Tolimán	10	San Lucas Tolimán	4	Abril	2023-04-23T00:00:00	2024-11-08T04:00:00	6	Velocidad del viento	1.6
119766	7	Sololá	713	San Lucas Tolimán	10	San Lucas Tolimán	4	Abril	2023-04-23T00:00:00	2024-11-08T04:00:00	7	Dirección del viento	1.61
119767	7	Sololá	713	San Lucas Tolimán	10	San Lucas Tolimán	4	Abril	2023-04-23T00:00:00	2024-11-08T04:00:00	1	Precipitación	0
119768	7	Sololá	713	San Lucas Tolimán	10	San Lucas Tolimán	4	Abril	2023-04-23T00:00:00	2024-11-08T04:00:00	8	Radiación solar	0
119769	7	Sololá	713	San Lucas Tolimán	10	San Lucas Tolimán	4	Abril	2023-04-23T00:00:00	2024-11-08T05:00:00	2	Temperatura media	17.8
119770	7	Sololá	713	San Lucas Tolimán	10	San Lucas Tolimán	4	Abril	2023-04-23T00:00:00	2024-11-08T05:00:00	4	Temperatura máxima	17.8
119771	7	Sololá	713	San Lucas Tolimán	10	San Lucas Tolimán	4	Abril	2023-04-23T00:00:00	2024-11-08T05:00:00	3	Temperatura mínima	16.6
119772	7	Sololá	713	San Lucas Tolimán	10	San Lucas Tolimán	4	Abril	2023-04-23T00:00:00	2024-11-08T05:00:00	5	Humedad	56
119773	7	Sololá	713	San Lucas Tolimán	10	San Lucas Tolimán	4	Abril	2023-04-23T00:00:00	2024-11-08T05:00:00	6	Velocidad del viento	1.6
119774	7	Sololá	713	San Lucas Tolimán	10	San Lucas Tolimán	4	Abril	2023-04-23T00:00:00	2024-11-08T05:00:00	7	Dirección del viento	1.61
119775	7	Sololá	713	San Lucas Tolimán	10	San Lucas Tolimán	4	Abril	2023-04-23T00:00:00	2024-11-08T05:00:00	1	Precipitación	0
119776	7	Sololá	713	San Lucas Tolimán	10	San Lucas Tolimán	4	Abril	2023-04-23T00:00:00	2024-11-08T05:00:00	8	Radiación solar	0
119777	7	Sololá	713	San Lucas Tolimán	10	San Lucas Tolimán	4	Abril	2023-04-23T00:00:00	2024-11-08T06:00:00	2	Temperatura media	16.2
119778	7	Sololá	713	San Lucas Tolimán	10	San Lucas Tolimán	4	Abril	2023-04-23T00:00:00	2024-11-08T06:00:00	4	Temperatura máxima	18.2
119779	7	Sololá	713	San Lucas Tolimán	10	San Lucas Tolimán	4	Abril	2023-04-23T00:00:00	2024-11-08T06:00:00	3	Temperatura mínima	16.1
119780	7	Sololá	713	San Lucas Tolimán	10	San Lucas Tolimán	4	Abril	2023-04-23T00:00:00	2024-11-08T06:00:00	5	Humedad	61
119781	7	Sololá	713	San Lucas Tolimán	10	San Lucas Tolimán	4	Abril	2023-04-23T00:00:00	2024-11-08T06:00:00	6	Velocidad del viento	1.6
119782	7	Sololá	713	San Lucas Tolimán	10	San Lucas Tolimán	4	Abril	2023-04-23T00:00:00	2024-11-08T06:00:00	7	Dirección del viento	1.61
119783	7	Sololá	713	San Lucas Tolimán	10	San Lucas Tolimán	4	Abril	2023-04-23T00:00:00	2024-11-08T06:00:00	1	Precipitación	0
119784	7	Sololá	713	San Lucas Tolimán	10	San Lucas Tolimán	4	Abril	2023-04-23T00:00:00	2024-11-08T06:00:00	8	Radiación solar	1
119785	7	Sololá	713	San Lucas Tolimán	10	San Lucas Tolimán	4	Abril	2023-04-23T00:00:00	2024-11-08T07:00:00	2	Temperatura media	16.3
119786	7	Sololá	713	San Lucas Tolimán	10	San Lucas Tolimán	4	Abril	2023-04-23T00:00:00	2024-11-08T07:00:00	4	Temperatura máxima	16.3
119787	7	Sololá	713	San Lucas Tolimán	10	San Lucas Tolimán	4	Abril	2023-04-23T00:00:00	2024-11-08T07:00:00	3	Temperatura mínima	15.8
119788	7	Sololá	713	San Lucas Tolimán	10	San Lucas Tolimán	4	Abril	2023-04-23T00:00:00	2024-11-08T07:00:00	5	Humedad	60
119789	7	Sololá	713	San Lucas Tolimán	10	San Lucas Tolimán	4	Abril	2023-04-23T00:00:00	2024-11-08T07:00:00	6	Velocidad del viento	1.6
119790	7	Sololá	713	San Lucas Tolimán	10	San Lucas Tolimán	4	Abril	2023-04-23T00:00:00	2024-11-08T07:00:00	7	Dirección del viento	1.61
119791	7	Sololá	713	San Lucas Tolimán	10	San Lucas Tolimán	4	Abril	2023-04-23T00:00:00	2024-11-08T07:00:00	1	Precipitación	0
119792	7	Sololá	713	San Lucas Tolimán	10	San Lucas Tolimán	4	Abril	2023-04-23T00:00:00	2024-11-08T07:00:00	8	Radiación solar	60
119793	7	Sololá	713	San Lucas Tolimán	10	San Lucas Tolimán	4	Abril	2023-04-23T00:00:00	2024-11-08T08:00:00	2	Temperatura media	20.6
119794	7	Sololá	713	San Lucas Tolimán	10	San Lucas Tolimán	4	Abril	2023-04-23T00:00:00	2024-11-08T08:00:00	4	Temperatura máxima	20.6
119795	7	Sololá	713	San Lucas Tolimán	10	San Lucas Tolimán	4	Abril	2023-04-23T00:00:00	2024-11-08T08:00:00	3	Temperatura mínima	16.3
119796	7	Sololá	713	San Lucas Tolimán	10	San Lucas Tolimán	4	Abril	2023-04-23T00:00:00	2024-11-08T08:00:00	5	Humedad	56
119797	7	Sololá	713	San Lucas Tolimán	10	San Lucas Tolimán	4	Abril	2023-04-23T00:00:00	2024-11-08T08:00:00	6	Velocidad del viento	1.6
119798	7	Sololá	713	San Lucas Tolimán	10	San Lucas Tolimán	4	Abril	2023-04-23T00:00:00	2024-11-08T08:00:00	7	Dirección del viento	1.61
119799	7	Sololá	713	San Lucas Tolimán	10	San Lucas Tolimán	4	Abril	2023-04-23T00:00:00	2024-11-08T08:00:00	1	Precipitación	0
119800	7	Sololá	713	San Lucas Tolimán	10	San Lucas Tolimán	4	Abril	2023-04-23T00:00:00	2024-11-08T08:00:00	8	Radiación solar	271
119801	7	Sololá	713	San Lucas Tolimán	10	San Lucas Tolimán	4	Abril	2023-04-23T00:00:00	2024-11-08T09:00:00	2	Temperatura media	22.3
119802	7	Sololá	713	San Lucas Tolimán	10	San Lucas Tolimán	4	Abril	2023-04-23T00:00:00	2024-11-08T09:00:00	4	Temperatura máxima	22.3
119803	7	Sololá	713	San Lucas Tolimán	10	San Lucas Tolimán	4	Abril	2023-04-23T00:00:00	2024-11-08T09:00:00	3	Temperatura mínima	20.5
119804	7	Sololá	713	San Lucas Tolimán	10	San Lucas Tolimán	4	Abril	2023-04-23T00:00:00	2024-11-08T09:00:00	5	Humedad	52
119805	7	Sololá	713	San Lucas Tolimán	10	San Lucas Tolimán	4	Abril	2023-04-23T00:00:00	2024-11-08T09:00:00	6	Velocidad del viento	3.2
119806	7	Sololá	713	San Lucas Tolimán	10	San Lucas Tolimán	4	Abril	2023-04-23T00:00:00	2024-11-08T09:00:00	7	Dirección del viento	3.22
119807	7	Sololá	713	San Lucas Tolimán	10	San Lucas Tolimán	4	Abril	2023-04-23T00:00:00	2024-11-08T09:00:00	1	Precipitación	0
119808	7	Sololá	713	San Lucas Tolimán	10	San Lucas Tolimán	4	Abril	2023-04-23T00:00:00	2024-11-08T09:00:00	8	Radiación solar	451
119809	7	Sololá	713	San Lucas Tolimán	10	San Lucas Tolimán	4	Abril	2023-04-23T00:00:00	2024-11-08T10:00:00	2	Temperatura media	23.7
119810	7	Sololá	713	San Lucas Tolimán	10	San Lucas Tolimán	4	Abril	2023-04-23T00:00:00	2024-11-08T10:00:00	4	Temperatura máxima	24.1
119811	7	Sololá	713	San Lucas Tolimán	10	San Lucas Tolimán	4	Abril	2023-04-23T00:00:00	2024-11-08T10:00:00	3	Temperatura mínima	22.2
119812	7	Sololá	713	San Lucas Tolimán	10	San Lucas Tolimán	4	Abril	2023-04-23T00:00:00	2024-11-08T10:00:00	5	Humedad	56
119813	7	Sololá	713	San Lucas Tolimán	10	San Lucas Tolimán	4	Abril	2023-04-23T00:00:00	2024-11-08T10:00:00	6	Velocidad del viento	4.8
119814	7	Sololá	713	San Lucas Tolimán	10	San Lucas Tolimán	4	Abril	2023-04-23T00:00:00	2024-11-08T10:00:00	7	Dirección del viento	4.83
119815	7	Sololá	713	San Lucas Tolimán	10	San Lucas Tolimán	4	Abril	2023-04-23T00:00:00	2024-11-08T10:00:00	1	Precipitación	0
119816	7	Sololá	713	San Lucas Tolimán	10	San Lucas Tolimán	4	Abril	2023-04-23T00:00:00	2024-11-08T10:00:00	8	Radiación solar	660
119817	7	Sololá	713	San Lucas Tolimán	10	San Lucas Tolimán	4	Abril	2023-04-23T00:00:00	2024-11-08T11:00:00	2	Temperatura media	24.8
119818	7	Sololá	713	San Lucas Tolimán	10	San Lucas Tolimán	4	Abril	2023-04-23T00:00:00	2024-11-08T11:00:00	4	Temperatura máxima	24.8
119819	7	Sololá	713	San Lucas Tolimán	10	San Lucas Tolimán	4	Abril	2023-04-23T00:00:00	2024-11-08T11:00:00	3	Temperatura mínima	23.4
119820	7	Sololá	713	San Lucas Tolimán	10	San Lucas Tolimán	4	Abril	2023-04-23T00:00:00	2024-11-08T11:00:00	5	Humedad	54
119821	7	Sololá	713	San Lucas Tolimán	10	San Lucas Tolimán	4	Abril	2023-04-23T00:00:00	2024-11-08T11:00:00	6	Velocidad del viento	8
119822	7	Sololá	713	San Lucas Tolimán	10	San Lucas Tolimán	4	Abril	2023-04-23T00:00:00	2024-11-08T11:00:00	7	Dirección del viento	8.05
119823	7	Sololá	713	San Lucas Tolimán	10	San Lucas Tolimán	4	Abril	2023-04-23T00:00:00	2024-11-08T11:00:00	1	Precipitación	0
119824	7	Sololá	713	San Lucas Tolimán	10	San Lucas Tolimán	4	Abril	2023-04-23T00:00:00	2024-11-08T11:00:00	8	Radiación solar	984
119825	7	Sololá	713	San Lucas Tolimán	10	San Lucas Tolimán	4	Abril	2023-04-23T00:00:00	2024-11-08T12:00:00	2	Temperatura media	23.1
119826	7	Sololá	713	San Lucas Tolimán	10	San Lucas Tolimán	4	Abril	2023-04-23T00:00:00	2024-11-08T12:00:00	4	Temperatura máxima	25.1
119827	7	Sololá	713	San Lucas Tolimán	10	San Lucas Tolimán	4	Abril	2023-04-23T00:00:00	2024-11-08T12:00:00	3	Temperatura mínima	23.1
119828	7	Sololá	713	San Lucas Tolimán	10	San Lucas Tolimán	4	Abril	2023-04-23T00:00:00	2024-11-08T12:00:00	5	Humedad	60
119829	7	Sololá	713	San Lucas Tolimán	10	San Lucas Tolimán	4	Abril	2023-04-23T00:00:00	2024-11-08T12:00:00	6	Velocidad del viento	9.7
119830	7	Sololá	713	San Lucas Tolimán	10	San Lucas Tolimán	4	Abril	2023-04-23T00:00:00	2024-11-08T12:00:00	7	Dirección del viento	9.66
119831	7	Sololá	713	San Lucas Tolimán	10	San Lucas Tolimán	4	Abril	2023-04-23T00:00:00	2024-11-08T12:00:00	1	Precipitación	0
119832	7	Sololá	713	San Lucas Tolimán	10	San Lucas Tolimán	4	Abril	2023-04-23T00:00:00	2024-11-08T12:00:00	8	Radiación solar	1004
119833	7	Sololá	713	San Lucas Tolimán	10	San Lucas Tolimán	4	Abril	2023-04-23T00:00:00	2024-11-08T13:00:00	2	Temperatura media	23.3
119834	7	Sololá	713	San Lucas Tolimán	10	San Lucas Tolimán	4	Abril	2023-04-23T00:00:00	2024-11-08T13:00:00	4	Temperatura máxima	23.5
119835	7	Sololá	713	San Lucas Tolimán	10	San Lucas Tolimán	4	Abril	2023-04-23T00:00:00	2024-11-08T13:00:00	3	Temperatura mínima	22.6
119836	7	Sololá	713	San Lucas Tolimán	10	San Lucas Tolimán	4	Abril	2023-04-23T00:00:00	2024-11-08T13:00:00	5	Humedad	60
119837	7	Sololá	713	San Lucas Tolimán	10	San Lucas Tolimán	4	Abril	2023-04-23T00:00:00	2024-11-08T13:00:00	6	Velocidad del viento	11.3
119838	7	Sololá	713	San Lucas Tolimán	10	San Lucas Tolimán	4	Abril	2023-04-23T00:00:00	2024-11-08T13:00:00	7	Dirección del viento	11.27
119839	7	Sololá	713	San Lucas Tolimán	10	San Lucas Tolimán	4	Abril	2023-04-23T00:00:00	2024-11-08T13:00:00	1	Precipitación	0
119840	7	Sololá	713	San Lucas Tolimán	10	San Lucas Tolimán	4	Abril	2023-04-23T00:00:00	2024-11-08T13:00:00	8	Radiación solar	807
119841	7	Sololá	713	San Lucas Tolimán	10	San Lucas Tolimán	4	Abril	2023-04-23T00:00:00	2024-11-08T14:00:00	2	Temperatura media	22.3
119842	7	Sololá	713	San Lucas Tolimán	10	San Lucas Tolimán	4	Abril	2023-04-23T00:00:00	2024-11-08T14:00:00	4	Temperatura máxima	23.4
119843	7	Sololá	713	San Lucas Tolimán	10	San Lucas Tolimán	4	Abril	2023-04-23T00:00:00	2024-11-08T14:00:00	3	Temperatura mínima	21.7
119844	7	Sololá	713	San Lucas Tolimán	10	San Lucas Tolimán	4	Abril	2023-04-23T00:00:00	2024-11-08T14:00:00	5	Humedad	61
119845	7	Sololá	713	San Lucas Tolimán	10	San Lucas Tolimán	4	Abril	2023-04-23T00:00:00	2024-11-08T14:00:00	6	Velocidad del viento	11.3
119846	7	Sololá	713	San Lucas Tolimán	10	San Lucas Tolimán	4	Abril	2023-04-23T00:00:00	2024-11-08T14:00:00	7	Dirección del viento	11.27
119847	7	Sololá	713	San Lucas Tolimán	10	San Lucas Tolimán	4	Abril	2023-04-23T00:00:00	2024-11-08T14:00:00	1	Precipitación	0
119848	7	Sololá	713	San Lucas Tolimán	10	San Lucas Tolimán	4	Abril	2023-04-23T00:00:00	2024-11-08T14:00:00	8	Radiación solar	511
119849	7	Sololá	713	San Lucas Tolimán	10	San Lucas Tolimán	4	Abril	2023-04-23T00:00:00	2024-11-08T15:00:00	2	Temperatura media	22.7
119850	7	Sololá	713	San Lucas Tolimán	10	San Lucas Tolimán	4	Abril	2023-04-23T00:00:00	2024-11-08T15:00:00	4	Temperatura máxima	24
119851	7	Sololá	713	San Lucas Tolimán	10	San Lucas Tolimán	4	Abril	2023-04-23T00:00:00	2024-11-08T15:00:00	3	Temperatura mínima	22
119852	7	Sololá	713	San Lucas Tolimán	10	San Lucas Tolimán	4	Abril	2023-04-23T00:00:00	2024-11-08T15:00:00	5	Humedad	58
119853	7	Sololá	713	San Lucas Tolimán	10	San Lucas Tolimán	4	Abril	2023-04-23T00:00:00	2024-11-08T15:00:00	6	Velocidad del viento	8
119854	7	Sololá	713	San Lucas Tolimán	10	San Lucas Tolimán	4	Abril	2023-04-23T00:00:00	2024-11-08T15:00:00	7	Dirección del viento	8.05
119855	7	Sololá	713	San Lucas Tolimán	10	San Lucas Tolimán	4	Abril	2023-04-23T00:00:00	2024-11-08T15:00:00	1	Precipitación	0
119856	7	Sololá	713	San Lucas Tolimán	10	San Lucas Tolimán	4	Abril	2023-04-23T00:00:00	2024-11-08T15:00:00	8	Radiación solar	754
119857	7	Sololá	713	San Lucas Tolimán	10	San Lucas Tolimán	4	Abril	2023-04-23T00:00:00	2024-11-08T16:00:00	2	Temperatura media	21.7
119858	7	Sololá	713	San Lucas Tolimán	10	San Lucas Tolimán	4	Abril	2023-04-23T00:00:00	2024-11-08T16:00:00	4	Temperatura máxima	23.1
119859	7	Sololá	713	San Lucas Tolimán	10	San Lucas Tolimán	4	Abril	2023-04-23T00:00:00	2024-11-08T16:00:00	3	Temperatura mínima	21.6
119860	7	Sololá	713	San Lucas Tolimán	10	San Lucas Tolimán	4	Abril	2023-04-23T00:00:00	2024-11-08T16:00:00	5	Humedad	62
119861	7	Sololá	713	San Lucas Tolimán	10	San Lucas Tolimán	4	Abril	2023-04-23T00:00:00	2024-11-08T16:00:00	6	Velocidad del viento	8
119862	7	Sololá	713	San Lucas Tolimán	10	San Lucas Tolimán	4	Abril	2023-04-23T00:00:00	2024-11-08T16:00:00	7	Dirección del viento	8.05
119863	7	Sololá	713	San Lucas Tolimán	10	San Lucas Tolimán	4	Abril	2023-04-23T00:00:00	2024-11-08T16:00:00	1	Precipitación	0
119864	7	Sololá	713	San Lucas Tolimán	10	San Lucas Tolimán	4	Abril	2023-04-23T00:00:00	2024-11-08T16:00:00	8	Radiación solar	292
119865	7	Sololá	713	San Lucas Tolimán	10	San Lucas Tolimán	4	Abril	2023-04-23T00:00:00	2024-11-08T17:00:00	2	Temperatura media	20.4
119866	7	Sololá	713	San Lucas Tolimán	10	San Lucas Tolimán	4	Abril	2023-04-23T00:00:00	2024-11-08T17:00:00	4	Temperatura máxima	21.8
119867	7	Sololá	713	San Lucas Tolimán	10	San Lucas Tolimán	4	Abril	2023-04-23T00:00:00	2024-11-08T17:00:00	3	Temperatura mínima	20.4
119868	7	Sololá	713	San Lucas Tolimán	10	San Lucas Tolimán	4	Abril	2023-04-23T00:00:00	2024-11-08T17:00:00	5	Humedad	62
119869	7	Sololá	713	San Lucas Tolimán	10	San Lucas Tolimán	4	Abril	2023-04-23T00:00:00	2024-11-08T17:00:00	6	Velocidad del viento	8
119870	7	Sololá	713	San Lucas Tolimán	10	San Lucas Tolimán	4	Abril	2023-04-23T00:00:00	2024-11-08T17:00:00	7	Dirección del viento	8.05
119871	7	Sololá	713	San Lucas Tolimán	10	San Lucas Tolimán	4	Abril	2023-04-23T00:00:00	2024-11-08T17:00:00	1	Precipitación	0
119872	7	Sololá	713	San Lucas Tolimán	10	San Lucas Tolimán	4	Abril	2023-04-23T00:00:00	2024-11-08T17:00:00	8	Radiación solar	179
119873	7	Sololá	713	San Lucas Tolimán	10	San Lucas Tolimán	4	Abril	2023-04-23T00:00:00	2024-11-08T18:00:00	2	Temperatura media	19.7
119874	7	Sololá	713	San Lucas Tolimán	10	San Lucas Tolimán	4	Abril	2023-04-23T00:00:00	2024-11-08T18:00:00	4	Temperatura máxima	20.4
119875	7	Sololá	713	San Lucas Tolimán	10	San Lucas Tolimán	4	Abril	2023-04-23T00:00:00	2024-11-08T18:00:00	3	Temperatura mínima	19.7
119876	7	Sololá	713	San Lucas Tolimán	10	San Lucas Tolimán	4	Abril	2023-04-23T00:00:00	2024-11-08T18:00:00	5	Humedad	62
119877	7	Sololá	713	San Lucas Tolimán	10	San Lucas Tolimán	4	Abril	2023-04-23T00:00:00	2024-11-08T18:00:00	6	Velocidad del viento	6.4
119878	7	Sololá	713	San Lucas Tolimán	10	San Lucas Tolimán	4	Abril	2023-04-23T00:00:00	2024-11-08T18:00:00	7	Dirección del viento	6.44
119879	7	Sololá	713	San Lucas Tolimán	10	San Lucas Tolimán	4	Abril	2023-04-23T00:00:00	2024-11-08T18:00:00	1	Precipitación	0
119880	7	Sololá	713	San Lucas Tolimán	10	San Lucas Tolimán	4	Abril	2023-04-23T00:00:00	2024-11-08T18:00:00	8	Radiación solar	19
119881	7	Sololá	713	San Lucas Tolimán	10	San Lucas Tolimán	4	Abril	2023-04-23T00:00:00	2024-11-08T19:00:00	2	Temperatura media	19.6
119882	7	Sololá	713	San Lucas Tolimán	10	San Lucas Tolimán	4	Abril	2023-04-23T00:00:00	2024-11-08T19:00:00	4	Temperatura máxima	19.7
119883	7	Sololá	713	San Lucas Tolimán	10	San Lucas Tolimán	4	Abril	2023-04-23T00:00:00	2024-11-08T19:00:00	3	Temperatura mínima	19.4
119884	7	Sololá	713	San Lucas Tolimán	10	San Lucas Tolimán	4	Abril	2023-04-23T00:00:00	2024-11-08T19:00:00	5	Humedad	60
119885	7	Sololá	713	San Lucas Tolimán	10	San Lucas Tolimán	4	Abril	2023-04-23T00:00:00	2024-11-08T19:00:00	6	Velocidad del viento	3.2
119886	7	Sololá	713	San Lucas Tolimán	10	San Lucas Tolimán	4	Abril	2023-04-23T00:00:00	2024-11-08T19:00:00	7	Dirección del viento	3.22
119887	7	Sololá	713	San Lucas Tolimán	10	San Lucas Tolimán	4	Abril	2023-04-23T00:00:00	2024-11-08T19:00:00	1	Precipitación	0
119888	7	Sololá	713	San Lucas Tolimán	10	San Lucas Tolimán	4	Abril	2023-04-23T00:00:00	2024-11-08T19:00:00	8	Radiación solar	0
119889	7	Sololá	713	San Lucas Tolimán	10	San Lucas Tolimán	4	Abril	2023-04-23T00:00:00	2024-11-08T20:00:00	2	Temperatura media	19.2
119890	7	Sololá	713	San Lucas Tolimán	10	San Lucas Tolimán	4	Abril	2023-04-23T00:00:00	2024-11-08T20:00:00	4	Temperatura máxima	19.7
119891	7	Sololá	713	San Lucas Tolimán	10	San Lucas Tolimán	4	Abril	2023-04-23T00:00:00	2024-11-08T20:00:00	3	Temperatura mínima	19.2
119892	7	Sololá	713	San Lucas Tolimán	10	San Lucas Tolimán	4	Abril	2023-04-23T00:00:00	2024-11-08T20:00:00	5	Humedad	61
119893	7	Sololá	713	San Lucas Tolimán	10	San Lucas Tolimán	4	Abril	2023-04-23T00:00:00	2024-11-08T20:00:00	6	Velocidad del viento	3.2
119894	7	Sololá	713	San Lucas Tolimán	10	San Lucas Tolimán	4	Abril	2023-04-23T00:00:00	2024-11-08T20:00:00	7	Dirección del viento	3.22
119895	7	Sololá	713	San Lucas Tolimán	10	San Lucas Tolimán	4	Abril	2023-04-23T00:00:00	2024-11-08T20:00:00	1	Precipitación	0
119896	7	Sololá	713	San Lucas Tolimán	10	San Lucas Tolimán	4	Abril	2023-04-23T00:00:00	2024-11-08T20:00:00	8	Radiación solar	0
119897	7	Sololá	713	San Lucas Tolimán	10	San Lucas Tolimán	4	Abril	2023-04-23T00:00:00	2024-11-08T21:00:00	2	Temperatura media	18.8
119898	7	Sololá	713	San Lucas Tolimán	10	San Lucas Tolimán	4	Abril	2023-04-23T00:00:00	2024-11-08T21:00:00	4	Temperatura máxima	19.2
119899	7	Sololá	713	San Lucas Tolimán	10	San Lucas Tolimán	4	Abril	2023-04-23T00:00:00	2024-11-08T21:00:00	3	Temperatura mínima	18.7
119900	7	Sololá	713	San Lucas Tolimán	10	San Lucas Tolimán	4	Abril	2023-04-23T00:00:00	2024-11-08T21:00:00	5	Humedad	60
119901	7	Sololá	713	San Lucas Tolimán	10	San Lucas Tolimán	4	Abril	2023-04-23T00:00:00	2024-11-08T21:00:00	6	Velocidad del viento	4.8
119902	7	Sololá	713	San Lucas Tolimán	10	San Lucas Tolimán	4	Abril	2023-04-23T00:00:00	2024-11-08T21:00:00	7	Dirección del viento	4.83
119903	7	Sololá	713	San Lucas Tolimán	10	San Lucas Tolimán	4	Abril	2023-04-23T00:00:00	2024-11-08T21:00:00	1	Precipitación	0
119904	7	Sololá	713	San Lucas Tolimán	10	San Lucas Tolimán	4	Abril	2023-04-23T00:00:00	2024-11-08T21:00:00	8	Radiación solar	0
119905	7	Sololá	713	San Lucas Tolimán	10	San Lucas Tolimán	4	Abril	2023-04-23T00:00:00	2024-11-08T22:00:00	2	Temperatura media	18.3
119906	7	Sololá	713	San Lucas Tolimán	10	San Lucas Tolimán	4	Abril	2023-04-23T00:00:00	2024-11-08T22:00:00	4	Temperatura máxima	18.8
119907	7	Sololá	713	San Lucas Tolimán	10	San Lucas Tolimán	4	Abril	2023-04-23T00:00:00	2024-11-08T22:00:00	3	Temperatura mínima	18.2
119908	7	Sololá	713	San Lucas Tolimán	10	San Lucas Tolimán	4	Abril	2023-04-23T00:00:00	2024-11-08T22:00:00	5	Humedad	61
119909	7	Sololá	713	San Lucas Tolimán	10	San Lucas Tolimán	4	Abril	2023-04-23T00:00:00	2024-11-08T22:00:00	6	Velocidad del viento	3.2
119910	7	Sololá	713	San Lucas Tolimán	10	San Lucas Tolimán	4	Abril	2023-04-23T00:00:00	2024-11-08T22:00:00	7	Dirección del viento	3.22
119911	7	Sololá	713	San Lucas Tolimán	10	San Lucas Tolimán	4	Abril	2023-04-23T00:00:00	2024-11-08T22:00:00	1	Precipitación	0
119912	7	Sololá	713	San Lucas Tolimán	10	San Lucas Tolimán	4	Abril	2023-04-23T00:00:00	2024-11-08T22:00:00	8	Radiación solar	0
119913	7	Sololá	713	San Lucas Tolimán	10	San Lucas Tolimán	4	Abril	2023-04-23T00:00:00	2024-11-08T23:00:00	2	Temperatura media	18.5
119914	7	Sololá	713	San Lucas Tolimán	10	San Lucas Tolimán	4	Abril	2023-04-23T00:00:00	2024-11-08T23:00:00	4	Temperatura máxima	18.6
119915	7	Sololá	713	San Lucas Tolimán	10	San Lucas Tolimán	4	Abril	2023-04-23T00:00:00	2024-11-08T23:00:00	3	Temperatura mínima	18.2
119916	7	Sololá	713	San Lucas Tolimán	10	San Lucas Tolimán	4	Abril	2023-04-23T00:00:00	2024-11-08T23:00:00	5	Humedad	58
119917	7	Sololá	713	San Lucas Tolimán	10	San Lucas Tolimán	4	Abril	2023-04-23T00:00:00	2024-11-08T23:00:00	6	Velocidad del viento	1.6
119918	7	Sololá	713	San Lucas Tolimán	10	San Lucas Tolimán	4	Abril	2023-04-23T00:00:00	2024-11-08T23:00:00	7	Dirección del viento	1.61
119919	7	Sololá	713	San Lucas Tolimán	10	San Lucas Tolimán	4	Abril	2023-04-23T00:00:00	2024-11-08T23:00:00	1	Precipitación	0
119920	7	Sololá	713	San Lucas Tolimán	10	San Lucas Tolimán	4	Abril	2023-04-23T00:00:00	2024-11-08T23:00:00	8	Radiación solar	0
119921	7	Sololá	713	San Lucas Tolimán	10	San Lucas Tolimán	4	Abril	2023-04-24T00:00:00	2024-11-08T00:00:00	2	Temperatura media	18.3
119922	7	Sololá	713	San Lucas Tolimán	10	San Lucas Tolimán	4	Abril	2023-04-24T00:00:00	2024-11-08T00:00:00	4	Temperatura máxima	18.5
119923	7	Sololá	713	San Lucas Tolimán	10	San Lucas Tolimán	4	Abril	2023-04-24T00:00:00	2024-11-08T00:00:00	3	Temperatura mínima	18.3
119924	7	Sololá	713	San Lucas Tolimán	10	San Lucas Tolimán	4	Abril	2023-04-24T00:00:00	2024-11-08T00:00:00	5	Humedad	58
119925	7	Sololá	713	San Lucas Tolimán	10	San Lucas Tolimán	4	Abril	2023-04-24T00:00:00	2024-11-08T00:00:00	6	Velocidad del viento	0
119926	7	Sololá	713	San Lucas Tolimán	10	San Lucas Tolimán	4	Abril	2023-04-24T00:00:00	2024-11-08T00:00:00	7	Dirección del viento	0
119927	7	Sololá	713	San Lucas Tolimán	10	San Lucas Tolimán	4	Abril	2023-04-24T00:00:00	2024-11-08T00:00:00	1	Precipitación	0
119928	7	Sololá	713	San Lucas Tolimán	10	San Lucas Tolimán	4	Abril	2023-04-24T00:00:00	2024-11-08T00:00:00	8	Radiación solar	0
119929	7	Sololá	713	San Lucas Tolimán	10	San Lucas Tolimán	4	Abril	2023-04-24T00:00:00	2024-11-08T01:00:00	2	Temperatura media	17.8
119930	7	Sololá	713	San Lucas Tolimán	10	San Lucas Tolimán	4	Abril	2023-04-24T00:00:00	2024-11-08T01:00:00	4	Temperatura máxima	18.4
119931	7	Sololá	713	San Lucas Tolimán	10	San Lucas Tolimán	4	Abril	2023-04-24T00:00:00	2024-11-08T01:00:00	3	Temperatura mínima	17.8
119932	7	Sololá	713	San Lucas Tolimán	10	San Lucas Tolimán	4	Abril	2023-04-24T00:00:00	2024-11-08T01:00:00	5	Humedad	59
119933	7	Sololá	713	San Lucas Tolimán	10	San Lucas Tolimán	4	Abril	2023-04-24T00:00:00	2024-11-08T01:00:00	6	Velocidad del viento	0
119934	7	Sololá	713	San Lucas Tolimán	10	San Lucas Tolimán	4	Abril	2023-04-24T00:00:00	2024-11-08T01:00:00	7	Dirección del viento	0
119935	7	Sololá	713	San Lucas Tolimán	10	San Lucas Tolimán	4	Abril	2023-04-24T00:00:00	2024-11-08T01:00:00	1	Precipitación	0
119936	7	Sololá	713	San Lucas Tolimán	10	San Lucas Tolimán	4	Abril	2023-04-24T00:00:00	2024-11-08T01:00:00	8	Radiación solar	0
119937	7	Sololá	713	San Lucas Tolimán	10	San Lucas Tolimán	4	Abril	2023-04-24T00:00:00	2024-11-08T02:00:00	2	Temperatura media	16.9
119938	7	Sololá	713	San Lucas Tolimán	10	San Lucas Tolimán	4	Abril	2023-04-24T00:00:00	2024-11-08T02:00:00	4	Temperatura máxima	17.9
119939	7	Sololá	713	San Lucas Tolimán	10	San Lucas Tolimán	4	Abril	2023-04-24T00:00:00	2024-11-08T02:00:00	3	Temperatura mínima	16.9
119940	7	Sololá	713	San Lucas Tolimán	10	San Lucas Tolimán	4	Abril	2023-04-24T00:00:00	2024-11-08T02:00:00	5	Humedad	61
119941	7	Sololá	713	San Lucas Tolimán	10	San Lucas Tolimán	4	Abril	2023-04-24T00:00:00	2024-11-08T02:00:00	6	Velocidad del viento	1.6
119942	7	Sololá	713	San Lucas Tolimán	10	San Lucas Tolimán	4	Abril	2023-04-24T00:00:00	2024-11-08T02:00:00	7	Dirección del viento	1.61
119943	7	Sololá	713	San Lucas Tolimán	10	San Lucas Tolimán	4	Abril	2023-04-24T00:00:00	2024-11-08T02:00:00	1	Precipitación	0
119944	7	Sololá	713	San Lucas Tolimán	10	San Lucas Tolimán	4	Abril	2023-04-24T00:00:00	2024-11-08T02:00:00	8	Radiación solar	0
119945	7	Sololá	713	San Lucas Tolimán	10	San Lucas Tolimán	4	Abril	2023-04-24T00:00:00	2024-11-08T03:00:00	2	Temperatura media	17.4
119946	7	Sololá	713	San Lucas Tolimán	10	San Lucas Tolimán	4	Abril	2023-04-24T00:00:00	2024-11-08T03:00:00	4	Temperatura máxima	17.4
119947	7	Sololá	713	San Lucas Tolimán	10	San Lucas Tolimán	4	Abril	2023-04-24T00:00:00	2024-11-08T03:00:00	3	Temperatura mínima	16.9
119948	7	Sololá	713	San Lucas Tolimán	10	San Lucas Tolimán	4	Abril	2023-04-24T00:00:00	2024-11-08T03:00:00	5	Humedad	59
119949	7	Sololá	713	San Lucas Tolimán	10	San Lucas Tolimán	4	Abril	2023-04-24T00:00:00	2024-11-08T03:00:00	6	Velocidad del viento	1.6
119950	7	Sololá	713	San Lucas Tolimán	10	San Lucas Tolimán	4	Abril	2023-04-24T00:00:00	2024-11-08T03:00:00	7	Dirección del viento	1.61
119951	7	Sololá	713	San Lucas Tolimán	10	San Lucas Tolimán	4	Abril	2023-04-24T00:00:00	2024-11-08T03:00:00	1	Precipitación	0
119952	7	Sololá	713	San Lucas Tolimán	10	San Lucas Tolimán	4	Abril	2023-04-24T00:00:00	2024-11-08T03:00:00	8	Radiación solar	0
119953	7	Sololá	713	San Lucas Tolimán	10	San Lucas Tolimán	4	Abril	2023-04-24T00:00:00	2024-11-08T04:00:00	2	Temperatura media	17.3
119954	7	Sololá	713	San Lucas Tolimán	10	San Lucas Tolimán	4	Abril	2023-04-24T00:00:00	2024-11-08T04:00:00	4	Temperatura máxima	17.6
119955	7	Sololá	713	San Lucas Tolimán	10	San Lucas Tolimán	4	Abril	2023-04-24T00:00:00	2024-11-08T04:00:00	3	Temperatura mínima	17.3
119956	7	Sololá	713	San Lucas Tolimán	10	San Lucas Tolimán	4	Abril	2023-04-24T00:00:00	2024-11-08T04:00:00	5	Humedad	59
119957	7	Sololá	713	San Lucas Tolimán	10	San Lucas Tolimán	4	Abril	2023-04-24T00:00:00	2024-11-08T04:00:00	6	Velocidad del viento	1.6
119958	7	Sololá	713	San Lucas Tolimán	10	San Lucas Tolimán	4	Abril	2023-04-24T00:00:00	2024-11-08T04:00:00	7	Dirección del viento	1.61
119959	7	Sololá	713	San Lucas Tolimán	10	San Lucas Tolimán	4	Abril	2023-04-24T00:00:00	2024-11-08T04:00:00	1	Precipitación	0
119960	7	Sololá	713	San Lucas Tolimán	10	San Lucas Tolimán	4	Abril	2023-04-24T00:00:00	2024-11-08T04:00:00	8	Radiación solar	0
119961	7	Sololá	713	San Lucas Tolimán	10	San Lucas Tolimán	4	Abril	2023-04-24T00:00:00	2024-11-08T05:00:00	2	Temperatura media	17.1
119962	7	Sololá	713	San Lucas Tolimán	10	San Lucas Tolimán	4	Abril	2023-04-24T00:00:00	2024-11-08T05:00:00	4	Temperatura máxima	17.4
119963	7	Sololá	713	San Lucas Tolimán	10	San Lucas Tolimán	4	Abril	2023-04-24T00:00:00	2024-11-08T05:00:00	3	Temperatura mínima	17
119964	7	Sololá	713	San Lucas Tolimán	10	San Lucas Tolimán	4	Abril	2023-04-24T00:00:00	2024-11-08T05:00:00	5	Humedad	61
119965	7	Sololá	713	San Lucas Tolimán	10	San Lucas Tolimán	4	Abril	2023-04-24T00:00:00	2024-11-08T05:00:00	6	Velocidad del viento	0
119966	7	Sololá	713	San Lucas Tolimán	10	San Lucas Tolimán	4	Abril	2023-04-24T00:00:00	2024-11-08T05:00:00	7	Dirección del viento	0
119967	7	Sololá	713	San Lucas Tolimán	10	San Lucas Tolimán	4	Abril	2023-04-24T00:00:00	2024-11-08T05:00:00	1	Precipitación	0
119968	7	Sololá	713	San Lucas Tolimán	10	San Lucas Tolimán	4	Abril	2023-04-24T00:00:00	2024-11-08T05:00:00	8	Radiación solar	0
119969	7	Sololá	713	San Lucas Tolimán	10	San Lucas Tolimán	4	Abril	2023-04-24T00:00:00	2024-11-08T06:00:00	2	Temperatura media	16.8
119970	7	Sololá	713	San Lucas Tolimán	10	San Lucas Tolimán	4	Abril	2023-04-24T00:00:00	2024-11-08T06:00:00	4	Temperatura máxima	17.1
119971	7	Sololá	713	San Lucas Tolimán	10	San Lucas Tolimán	4	Abril	2023-04-24T00:00:00	2024-11-08T06:00:00	3	Temperatura mínima	16.8
119972	7	Sololá	713	San Lucas Tolimán	10	San Lucas Tolimán	4	Abril	2023-04-24T00:00:00	2024-11-08T06:00:00	5	Humedad	61
119973	7	Sololá	713	San Lucas Tolimán	10	San Lucas Tolimán	4	Abril	2023-04-24T00:00:00	2024-11-08T06:00:00	6	Velocidad del viento	0
119974	7	Sololá	713	San Lucas Tolimán	10	San Lucas Tolimán	4	Abril	2023-04-24T00:00:00	2024-11-08T06:00:00	7	Dirección del viento	0
119975	7	Sololá	713	San Lucas Tolimán	10	San Lucas Tolimán	4	Abril	2023-04-24T00:00:00	2024-11-08T06:00:00	1	Precipitación	0
119976	7	Sololá	713	San Lucas Tolimán	10	San Lucas Tolimán	4	Abril	2023-04-24T00:00:00	2024-11-08T06:00:00	8	Radiación solar	1
119977	7	Sololá	713	San Lucas Tolimán	10	San Lucas Tolimán	4	Abril	2023-04-24T00:00:00	2024-11-08T07:00:00	2	Temperatura media	18
119978	7	Sololá	713	San Lucas Tolimán	10	San Lucas Tolimán	4	Abril	2023-04-24T00:00:00	2024-11-08T07:00:00	4	Temperatura máxima	18
119979	7	Sololá	713	San Lucas Tolimán	10	San Lucas Tolimán	4	Abril	2023-04-24T00:00:00	2024-11-08T07:00:00	3	Temperatura mínima	16.7
119980	7	Sololá	713	San Lucas Tolimán	10	San Lucas Tolimán	4	Abril	2023-04-24T00:00:00	2024-11-08T07:00:00	5	Humedad	58
119981	7	Sololá	713	San Lucas Tolimán	10	San Lucas Tolimán	4	Abril	2023-04-24T00:00:00	2024-11-08T07:00:00	6	Velocidad del viento	0
119982	7	Sololá	713	San Lucas Tolimán	10	San Lucas Tolimán	4	Abril	2023-04-24T00:00:00	2024-11-08T07:00:00	7	Dirección del viento	0
119983	7	Sololá	713	San Lucas Tolimán	10	San Lucas Tolimán	4	Abril	2023-04-24T00:00:00	2024-11-08T07:00:00	1	Precipitación	0
119984	7	Sololá	713	San Lucas Tolimán	10	San Lucas Tolimán	4	Abril	2023-04-24T00:00:00	2024-11-08T07:00:00	8	Radiación solar	52
119985	7	Sololá	713	San Lucas Tolimán	10	San Lucas Tolimán	4	Abril	2023-04-24T00:00:00	2024-11-08T08:00:00	2	Temperatura media	19.4
119986	7	Sololá	713	San Lucas Tolimán	10	San Lucas Tolimán	4	Abril	2023-04-24T00:00:00	2024-11-08T08:00:00	4	Temperatura máxima	19.4
119987	7	Sololá	713	San Lucas Tolimán	10	San Lucas Tolimán	4	Abril	2023-04-24T00:00:00	2024-11-08T08:00:00	3	Temperatura mínima	17.9
119988	7	Sololá	713	San Lucas Tolimán	10	San Lucas Tolimán	4	Abril	2023-04-24T00:00:00	2024-11-08T08:00:00	5	Humedad	56
119989	7	Sololá	713	San Lucas Tolimán	10	San Lucas Tolimán	4	Abril	2023-04-24T00:00:00	2024-11-08T08:00:00	6	Velocidad del viento	0
119990	7	Sololá	713	San Lucas Tolimán	10	San Lucas Tolimán	4	Abril	2023-04-24T00:00:00	2024-11-08T08:00:00	7	Dirección del viento	0
119991	7	Sololá	713	San Lucas Tolimán	10	San Lucas Tolimán	4	Abril	2023-04-24T00:00:00	2024-11-08T08:00:00	1	Precipitación	0
119992	7	Sololá	713	San Lucas Tolimán	10	San Lucas Tolimán	4	Abril	2023-04-24T00:00:00	2024-11-08T08:00:00	8	Radiación solar	145
119993	7	Sololá	713	San Lucas Tolimán	10	San Lucas Tolimán	4	Abril	2023-04-24T00:00:00	2024-11-08T09:00:00	2	Temperatura media	20.8
119994	7	Sololá	713	San Lucas Tolimán	10	San Lucas Tolimán	4	Abril	2023-04-24T00:00:00	2024-11-08T09:00:00	4	Temperatura máxima	20.8
119995	7	Sololá	713	San Lucas Tolimán	10	San Lucas Tolimán	4	Abril	2023-04-24T00:00:00	2024-11-08T09:00:00	3	Temperatura mínima	19.4
119996	7	Sololá	713	San Lucas Tolimán	10	San Lucas Tolimán	4	Abril	2023-04-24T00:00:00	2024-11-08T09:00:00	5	Humedad	56
119997	7	Sololá	713	San Lucas Tolimán	10	San Lucas Tolimán	4	Abril	2023-04-24T00:00:00	2024-11-08T09:00:00	6	Velocidad del viento	3.2
119998	7	Sololá	713	San Lucas Tolimán	10	San Lucas Tolimán	4	Abril	2023-04-24T00:00:00	2024-11-08T09:00:00	7	Dirección del viento	3.22
119999	7	Sololá	713	San Lucas Tolimán	10	San Lucas Tolimán	4	Abril	2023-04-24T00:00:00	2024-11-08T09:00:00	1	Precipitación	0
120000	7	Sololá	713	San Lucas Tolimán	10	San Lucas Tolimán	4	Abril	2023-04-24T00:00:00	2024-11-08T09:00:00	8	Radiación solar	295
120001	7	Sololá	713	San Lucas Tolimán	10	San Lucas Tolimán	4	Abril	2023-04-24T00:00:00	2024-11-08T10:00:00	2	Temperatura media	22.2
120002	7	Sololá	713	San Lucas Tolimán	10	San Lucas Tolimán	4	Abril	2023-04-24T00:00:00	2024-11-08T10:00:00	4	Temperatura máxima	22.2
120003	7	Sololá	713	San Lucas Tolimán	10	San Lucas Tolimán	4	Abril	2023-04-24T00:00:00	2024-11-08T10:00:00	3	Temperatura mínima	20.8
120004	7	Sololá	713	San Lucas Tolimán	10	San Lucas Tolimán	4	Abril	2023-04-24T00:00:00	2024-11-08T10:00:00	5	Humedad	56
120005	7	Sololá	713	San Lucas Tolimán	10	San Lucas Tolimán	4	Abril	2023-04-24T00:00:00	2024-11-08T10:00:00	6	Velocidad del viento	4.8
120006	7	Sololá	713	San Lucas Tolimán	10	San Lucas Tolimán	4	Abril	2023-04-24T00:00:00	2024-11-08T10:00:00	7	Dirección del viento	4.83
120007	7	Sololá	713	San Lucas Tolimán	10	San Lucas Tolimán	4	Abril	2023-04-24T00:00:00	2024-11-08T10:00:00	1	Precipitación	0
120008	7	Sololá	713	San Lucas Tolimán	10	San Lucas Tolimán	4	Abril	2023-04-24T00:00:00	2024-11-08T10:00:00	8	Radiación solar	554
120009	7	Sololá	713	San Lucas Tolimán	10	San Lucas Tolimán	4	Abril	2023-04-24T00:00:00	2024-11-08T11:00:00	2	Temperatura media	22.7
120010	7	Sololá	713	San Lucas Tolimán	10	San Lucas Tolimán	4	Abril	2023-04-24T00:00:00	2024-11-08T11:00:00	4	Temperatura máxima	22.7
120011	7	Sololá	713	San Lucas Tolimán	10	San Lucas Tolimán	4	Abril	2023-04-24T00:00:00	2024-11-08T11:00:00	3	Temperatura mínima	21.7
120012	7	Sololá	713	San Lucas Tolimán	10	San Lucas Tolimán	4	Abril	2023-04-24T00:00:00	2024-11-08T11:00:00	5	Humedad	57
120013	7	Sololá	713	San Lucas Tolimán	10	San Lucas Tolimán	4	Abril	2023-04-24T00:00:00	2024-11-08T11:00:00	6	Velocidad del viento	6.4
120014	7	Sololá	713	San Lucas Tolimán	10	San Lucas Tolimán	4	Abril	2023-04-24T00:00:00	2024-11-08T11:00:00	7	Dirección del viento	6.44
120015	7	Sololá	713	San Lucas Tolimán	10	San Lucas Tolimán	4	Abril	2023-04-24T00:00:00	2024-11-08T11:00:00	1	Precipitación	0
120016	7	Sololá	713	San Lucas Tolimán	10	San Lucas Tolimán	4	Abril	2023-04-24T00:00:00	2024-11-08T11:00:00	8	Radiación solar	793
120017	7	Sololá	713	San Lucas Tolimán	10	San Lucas Tolimán	4	Abril	2023-04-24T00:00:00	2024-11-08T12:00:00	2	Temperatura media	22.9
120018	7	Sololá	713	San Lucas Tolimán	10	San Lucas Tolimán	4	Abril	2023-04-24T00:00:00	2024-11-08T12:00:00	4	Temperatura máxima	24
120019	7	Sololá	713	San Lucas Tolimán	10	San Lucas Tolimán	4	Abril	2023-04-24T00:00:00	2024-11-08T12:00:00	3	Temperatura mínima	22.7
120020	7	Sololá	713	San Lucas Tolimán	10	San Lucas Tolimán	4	Abril	2023-04-24T00:00:00	2024-11-08T12:00:00	5	Humedad	59
120021	7	Sololá	713	San Lucas Tolimán	10	San Lucas Tolimán	4	Abril	2023-04-24T00:00:00	2024-11-08T12:00:00	6	Velocidad del viento	8
120022	7	Sololá	713	San Lucas Tolimán	10	San Lucas Tolimán	4	Abril	2023-04-24T00:00:00	2024-11-08T12:00:00	7	Dirección del viento	8.05
120023	7	Sololá	713	San Lucas Tolimán	10	San Lucas Tolimán	4	Abril	2023-04-24T00:00:00	2024-11-08T12:00:00	1	Precipitación	0
120024	7	Sololá	713	San Lucas Tolimán	10	San Lucas Tolimán	4	Abril	2023-04-24T00:00:00	2024-11-08T12:00:00	8	Radiación solar	945
120025	7	Sololá	713	San Lucas Tolimán	10	San Lucas Tolimán	4	Abril	2023-04-24T00:00:00	2024-11-08T13:00:00	2	Temperatura media	22.2
120026	7	Sololá	713	San Lucas Tolimán	10	San Lucas Tolimán	4	Abril	2023-04-24T00:00:00	2024-11-08T13:00:00	4	Temperatura máxima	23.5
120027	7	Sololá	713	San Lucas Tolimán	10	San Lucas Tolimán	4	Abril	2023-04-24T00:00:00	2024-11-08T13:00:00	3	Temperatura mínima	22.2
120028	7	Sololá	713	San Lucas Tolimán	10	San Lucas Tolimán	4	Abril	2023-04-24T00:00:00	2024-11-08T13:00:00	5	Humedad	60
120029	7	Sololá	713	San Lucas Tolimán	10	San Lucas Tolimán	4	Abril	2023-04-24T00:00:00	2024-11-08T13:00:00	6	Velocidad del viento	8
120030	7	Sololá	713	San Lucas Tolimán	10	San Lucas Tolimán	4	Abril	2023-04-24T00:00:00	2024-11-08T13:00:00	7	Dirección del viento	8.05
120031	7	Sololá	713	San Lucas Tolimán	10	San Lucas Tolimán	4	Abril	2023-04-24T00:00:00	2024-11-08T13:00:00	1	Precipitación	0
120032	7	Sololá	713	San Lucas Tolimán	10	San Lucas Tolimán	4	Abril	2023-04-24T00:00:00	2024-11-08T13:00:00	8	Radiación solar	821
120033	7	Sololá	713	San Lucas Tolimán	10	San Lucas Tolimán	4	Abril	2023-04-24T00:00:00	2024-11-08T14:00:00	2	Temperatura media	20.2
120034	7	Sololá	713	San Lucas Tolimán	10	San Lucas Tolimán	4	Abril	2023-04-24T00:00:00	2024-11-08T14:00:00	4	Temperatura máxima	22.6
120035	7	Sololá	713	San Lucas Tolimán	10	San Lucas Tolimán	4	Abril	2023-04-24T00:00:00	2024-11-08T14:00:00	3	Temperatura mínima	20
120036	7	Sololá	713	San Lucas Tolimán	10	San Lucas Tolimán	4	Abril	2023-04-24T00:00:00	2024-11-08T14:00:00	5	Humedad	60
120037	7	Sololá	713	San Lucas Tolimán	10	San Lucas Tolimán	4	Abril	2023-04-24T00:00:00	2024-11-08T14:00:00	6	Velocidad del viento	9.7
120038	7	Sololá	713	San Lucas Tolimán	10	San Lucas Tolimán	4	Abril	2023-04-24T00:00:00	2024-11-08T14:00:00	7	Dirección del viento	9.66
120039	7	Sololá	713	San Lucas Tolimán	10	San Lucas Tolimán	4	Abril	2023-04-24T00:00:00	2024-11-08T14:00:00	1	Precipitación	0
120040	7	Sololá	713	San Lucas Tolimán	10	San Lucas Tolimán	4	Abril	2023-04-24T00:00:00	2024-11-08T14:00:00	8	Radiación solar	356
120041	7	Sololá	713	San Lucas Tolimán	10	San Lucas Tolimán	4	Abril	2023-04-24T00:00:00	2024-11-08T15:00:00	2	Temperatura media	20.3
120042	7	Sololá	713	San Lucas Tolimán	10	San Lucas Tolimán	4	Abril	2023-04-24T00:00:00	2024-11-08T15:00:00	4	Temperatura máxima	21.1
120043	7	Sololá	713	San Lucas Tolimán	10	San Lucas Tolimán	4	Abril	2023-04-24T00:00:00	2024-11-08T15:00:00	3	Temperatura mínima	20.1
120044	7	Sololá	713	San Lucas Tolimán	10	San Lucas Tolimán	4	Abril	2023-04-24T00:00:00	2024-11-08T15:00:00	5	Humedad	58
120045	7	Sololá	713	San Lucas Tolimán	10	San Lucas Tolimán	4	Abril	2023-04-24T00:00:00	2024-11-08T15:00:00	6	Velocidad del viento	9.7
120046	7	Sololá	713	San Lucas Tolimán	10	San Lucas Tolimán	4	Abril	2023-04-24T00:00:00	2024-11-08T15:00:00	7	Dirección del viento	9.66
120047	7	Sololá	713	San Lucas Tolimán	10	San Lucas Tolimán	4	Abril	2023-04-24T00:00:00	2024-11-08T15:00:00	1	Precipitación	0
120048	7	Sololá	713	San Lucas Tolimán	10	San Lucas Tolimán	4	Abril	2023-04-24T00:00:00	2024-11-08T15:00:00	8	Radiación solar	399
120049	7	Sololá	713	San Lucas Tolimán	10	San Lucas Tolimán	4	Abril	2023-04-24T00:00:00	2024-11-08T16:00:00	2	Temperatura media	19.7
120050	7	Sololá	713	San Lucas Tolimán	10	San Lucas Tolimán	4	Abril	2023-04-24T00:00:00	2024-11-08T16:00:00	4	Temperatura máxima	20.3
120051	7	Sololá	713	San Lucas Tolimán	10	San Lucas Tolimán	4	Abril	2023-04-24T00:00:00	2024-11-08T16:00:00	3	Temperatura mínima	19.3
120052	7	Sololá	713	San Lucas Tolimán	10	San Lucas Tolimán	4	Abril	2023-04-24T00:00:00	2024-11-08T16:00:00	5	Humedad	59
120053	7	Sololá	713	San Lucas Tolimán	10	San Lucas Tolimán	4	Abril	2023-04-24T00:00:00	2024-11-08T16:00:00	6	Velocidad del viento	8
120054	7	Sololá	713	San Lucas Tolimán	10	San Lucas Tolimán	4	Abril	2023-04-24T00:00:00	2024-11-08T16:00:00	7	Dirección del viento	8.05
120055	7	Sololá	713	San Lucas Tolimán	10	San Lucas Tolimán	4	Abril	2023-04-24T00:00:00	2024-11-08T16:00:00	1	Precipitación	0
120056	7	Sololá	713	San Lucas Tolimán	10	San Lucas Tolimán	4	Abril	2023-04-24T00:00:00	2024-11-08T16:00:00	8	Radiación solar	105
120057	7	Sololá	713	San Lucas Tolimán	10	San Lucas Tolimán	4	Abril	2023-04-24T00:00:00	2024-11-08T17:00:00	2	Temperatura media	18.6
120058	7	Sololá	713	San Lucas Tolimán	10	San Lucas Tolimán	4	Abril	2023-04-24T00:00:00	2024-11-08T17:00:00	4	Temperatura máxima	19.9
120059	7	Sololá	713	San Lucas Tolimán	10	San Lucas Tolimán	4	Abril	2023-04-24T00:00:00	2024-11-08T17:00:00	3	Temperatura mínima	18.6
120060	7	Sololá	713	San Lucas Tolimán	10	San Lucas Tolimán	4	Abril	2023-04-24T00:00:00	2024-11-08T17:00:00	5	Humedad	59
120061	7	Sololá	713	San Lucas Tolimán	10	San Lucas Tolimán	4	Abril	2023-04-24T00:00:00	2024-11-08T17:00:00	6	Velocidad del viento	6.4
120062	7	Sololá	713	San Lucas Tolimán	10	San Lucas Tolimán	4	Abril	2023-04-24T00:00:00	2024-11-08T17:00:00	7	Dirección del viento	6.44
120063	7	Sololá	713	San Lucas Tolimán	10	San Lucas Tolimán	4	Abril	2023-04-24T00:00:00	2024-11-08T17:00:00	1	Precipitación	0.2
120064	7	Sololá	713	San Lucas Tolimán	10	San Lucas Tolimán	4	Abril	2023-04-24T00:00:00	2024-11-08T17:00:00	8	Radiación solar	44
120065	7	Sololá	713	San Lucas Tolimán	10	San Lucas Tolimán	4	Abril	2023-04-24T00:00:00	2024-11-08T18:00:00	2	Temperatura media	17.3
120066	7	Sololá	713	San Lucas Tolimán	10	San Lucas Tolimán	4	Abril	2023-04-24T00:00:00	2024-11-08T18:00:00	4	Temperatura máxima	18.6
120067	7	Sololá	713	San Lucas Tolimán	10	San Lucas Tolimán	4	Abril	2023-04-24T00:00:00	2024-11-08T18:00:00	3	Temperatura mínima	16.9
120068	7	Sololá	713	San Lucas Tolimán	10	San Lucas Tolimán	4	Abril	2023-04-24T00:00:00	2024-11-08T18:00:00	5	Humedad	63
120069	7	Sololá	713	San Lucas Tolimán	10	San Lucas Tolimán	4	Abril	2023-04-24T00:00:00	2024-11-08T18:00:00	6	Velocidad del viento	3.2
120070	7	Sololá	713	San Lucas Tolimán	10	San Lucas Tolimán	4	Abril	2023-04-24T00:00:00	2024-11-08T18:00:00	7	Dirección del viento	3.22
120071	7	Sololá	713	San Lucas Tolimán	10	San Lucas Tolimán	4	Abril	2023-04-24T00:00:00	2024-11-08T18:00:00	1	Precipitación	9.2
120072	7	Sololá	713	San Lucas Tolimán	10	San Lucas Tolimán	4	Abril	2023-04-24T00:00:00	2024-11-08T18:00:00	8	Radiación solar	18
120073	7	Sololá	713	San Lucas Tolimán	10	San Lucas Tolimán	4	Abril	2023-04-24T00:00:00	2024-11-08T19:00:00	2	Temperatura media	17.4
120074	7	Sololá	713	San Lucas Tolimán	10	San Lucas Tolimán	4	Abril	2023-04-24T00:00:00	2024-11-08T19:00:00	4	Temperatura máxima	17.6
120075	7	Sololá	713	San Lucas Tolimán	10	San Lucas Tolimán	4	Abril	2023-04-24T00:00:00	2024-11-08T19:00:00	3	Temperatura mínima	17.2
120076	7	Sololá	713	San Lucas Tolimán	10	San Lucas Tolimán	4	Abril	2023-04-24T00:00:00	2024-11-08T19:00:00	5	Humedad	65
120077	7	Sololá	713	San Lucas Tolimán	10	San Lucas Tolimán	4	Abril	2023-04-24T00:00:00	2024-11-08T19:00:00	6	Velocidad del viento	1.6
120078	7	Sololá	713	San Lucas Tolimán	10	San Lucas Tolimán	4	Abril	2023-04-24T00:00:00	2024-11-08T19:00:00	7	Dirección del viento	1.61
120079	7	Sololá	713	San Lucas Tolimán	10	San Lucas Tolimán	4	Abril	2023-04-24T00:00:00	2024-11-08T19:00:00	1	Precipitación	0
120080	7	Sololá	713	San Lucas Tolimán	10	San Lucas Tolimán	4	Abril	2023-04-24T00:00:00	2024-11-08T19:00:00	8	Radiación solar	0
120081	7	Sololá	713	San Lucas Tolimán	10	San Lucas Tolimán	4	Abril	2023-04-24T00:00:00	2024-11-08T20:00:00	2	Temperatura media	17.6
120082	7	Sololá	713	San Lucas Tolimán	10	San Lucas Tolimán	4	Abril	2023-04-24T00:00:00	2024-11-08T20:00:00	4	Temperatura máxima	17.6
120083	7	Sololá	713	San Lucas Tolimán	10	San Lucas Tolimán	4	Abril	2023-04-24T00:00:00	2024-11-08T20:00:00	3	Temperatura mínima	17.2
120084	7	Sololá	713	San Lucas Tolimán	10	San Lucas Tolimán	4	Abril	2023-04-24T00:00:00	2024-11-08T20:00:00	5	Humedad	64
120085	7	Sololá	713	San Lucas Tolimán	10	San Lucas Tolimán	4	Abril	2023-04-24T00:00:00	2024-11-08T20:00:00	6	Velocidad del viento	4.8
120086	7	Sololá	713	San Lucas Tolimán	10	San Lucas Tolimán	4	Abril	2023-04-24T00:00:00	2024-11-08T20:00:00	7	Dirección del viento	4.83
120087	7	Sololá	713	San Lucas Tolimán	10	San Lucas Tolimán	4	Abril	2023-04-24T00:00:00	2024-11-08T20:00:00	1	Precipitación	0
120088	7	Sololá	713	San Lucas Tolimán	10	San Lucas Tolimán	4	Abril	2023-04-24T00:00:00	2024-11-08T20:00:00	8	Radiación solar	0
120089	7	Sololá	713	San Lucas Tolimán	10	San Lucas Tolimán	4	Abril	2023-04-24T00:00:00	2024-11-08T21:00:00	2	Temperatura media	17.5
120090	7	Sololá	713	San Lucas Tolimán	10	San Lucas Tolimán	4	Abril	2023-04-24T00:00:00	2024-11-08T21:00:00	4	Temperatura máxima	17.7
120091	7	Sololá	713	San Lucas Tolimán	10	San Lucas Tolimán	4	Abril	2023-04-24T00:00:00	2024-11-08T21:00:00	3	Temperatura mínima	17.4
120092	7	Sololá	713	San Lucas Tolimán	10	San Lucas Tolimán	4	Abril	2023-04-24T00:00:00	2024-11-08T21:00:00	5	Humedad	64
120093	7	Sololá	713	San Lucas Tolimán	10	San Lucas Tolimán	4	Abril	2023-04-24T00:00:00	2024-11-08T21:00:00	6	Velocidad del viento	3.2
120094	7	Sololá	713	San Lucas Tolimán	10	San Lucas Tolimán	4	Abril	2023-04-24T00:00:00	2024-11-08T21:00:00	7	Dirección del viento	3.22
120095	7	Sololá	713	San Lucas Tolimán	10	San Lucas Tolimán	4	Abril	2023-04-24T00:00:00	2024-11-08T21:00:00	1	Precipitación	0
120096	7	Sololá	713	San Lucas Tolimán	10	San Lucas Tolimán	4	Abril	2023-04-24T00:00:00	2024-11-08T21:00:00	8	Radiación solar	0
120097	7	Sololá	713	San Lucas Tolimán	10	San Lucas Tolimán	4	Abril	2023-04-24T00:00:00	2024-11-08T22:00:00	2	Temperatura media	17
120098	7	Sololá	713	San Lucas Tolimán	10	San Lucas Tolimán	4	Abril	2023-04-24T00:00:00	2024-11-08T22:00:00	4	Temperatura máxima	17.6
120099	7	Sololá	713	San Lucas Tolimán	10	San Lucas Tolimán	4	Abril	2023-04-24T00:00:00	2024-11-08T22:00:00	3	Temperatura mínima	17
120100	7	Sololá	713	San Lucas Tolimán	10	San Lucas Tolimán	4	Abril	2023-04-24T00:00:00	2024-11-08T22:00:00	5	Humedad	64
120101	7	Sololá	713	San Lucas Tolimán	10	San Lucas Tolimán	4	Abril	2023-04-24T00:00:00	2024-11-08T22:00:00	6	Velocidad del viento	1.6
120102	7	Sololá	713	San Lucas Tolimán	10	San Lucas Tolimán	4	Abril	2023-04-24T00:00:00	2024-11-08T22:00:00	7	Dirección del viento	1.61
120103	7	Sololá	713	San Lucas Tolimán	10	San Lucas Tolimán	4	Abril	2023-04-24T00:00:00	2024-11-08T22:00:00	1	Precipitación	0
120104	7	Sololá	713	San Lucas Tolimán	10	San Lucas Tolimán	4	Abril	2023-04-24T00:00:00	2024-11-08T22:00:00	8	Radiación solar	0
120105	7	Sololá	713	San Lucas Tolimán	10	San Lucas Tolimán	4	Abril	2023-04-24T00:00:00	2024-11-08T23:00:00	2	Temperatura media	16.8
120106	7	Sololá	713	San Lucas Tolimán	10	San Lucas Tolimán	4	Abril	2023-04-24T00:00:00	2024-11-08T23:00:00	4	Temperatura máxima	17.2
120107	7	Sololá	713	San Lucas Tolimán	10	San Lucas Tolimán	4	Abril	2023-04-24T00:00:00	2024-11-08T23:00:00	3	Temperatura mínima	16.7
120108	7	Sololá	713	San Lucas Tolimán	10	San Lucas Tolimán	4	Abril	2023-04-24T00:00:00	2024-11-08T23:00:00	5	Humedad	65
120109	7	Sololá	713	San Lucas Tolimán	10	San Lucas Tolimán	4	Abril	2023-04-24T00:00:00	2024-11-08T23:00:00	6	Velocidad del viento	1.6
120110	7	Sololá	713	San Lucas Tolimán	10	San Lucas Tolimán	4	Abril	2023-04-24T00:00:00	2024-11-08T23:00:00	7	Dirección del viento	1.61
120111	7	Sololá	713	San Lucas Tolimán	10	San Lucas Tolimán	4	Abril	2023-04-24T00:00:00	2024-11-08T23:00:00	1	Precipitación	0
120112	7	Sololá	713	San Lucas Tolimán	10	San Lucas Tolimán	4	Abril	2023-04-24T00:00:00	2024-11-08T23:00:00	8	Radiación solar	0
120113	7	Sololá	713	San Lucas Tolimán	10	San Lucas Tolimán	4	Abril	2023-04-25T00:00:00	2024-11-08T00:00:00	2	Temperatura media	16.7
120114	7	Sololá	713	San Lucas Tolimán	10	San Lucas Tolimán	4	Abril	2023-04-25T00:00:00	2024-11-08T00:00:00	4	Temperatura máxima	16.8
120115	7	Sololá	713	San Lucas Tolimán	10	San Lucas Tolimán	4	Abril	2023-04-25T00:00:00	2024-11-08T00:00:00	3	Temperatura mínima	16.6
120116	7	Sololá	713	San Lucas Tolimán	10	San Lucas Tolimán	4	Abril	2023-04-25T00:00:00	2024-11-08T00:00:00	5	Humedad	64
120117	7	Sololá	713	San Lucas Tolimán	10	San Lucas Tolimán	4	Abril	2023-04-25T00:00:00	2024-11-08T00:00:00	6	Velocidad del viento	1.6
120118	7	Sololá	713	San Lucas Tolimán	10	San Lucas Tolimán	4	Abril	2023-04-25T00:00:00	2024-11-08T00:00:00	7	Dirección del viento	1.61
120119	7	Sololá	713	San Lucas Tolimán	10	San Lucas Tolimán	4	Abril	2023-04-25T00:00:00	2024-11-08T00:00:00	1	Precipitación	0
120120	7	Sololá	713	San Lucas Tolimán	10	San Lucas Tolimán	4	Abril	2023-04-25T00:00:00	2024-11-08T00:00:00	8	Radiación solar	0
120121	7	Sololá	713	San Lucas Tolimán	10	San Lucas Tolimán	4	Abril	2023-04-25T00:00:00	2024-11-08T01:00:00	2	Temperatura media	16.6
120122	7	Sololá	713	San Lucas Tolimán	10	San Lucas Tolimán	4	Abril	2023-04-25T00:00:00	2024-11-08T01:00:00	4	Temperatura máxima	16.8
120123	7	Sololá	713	San Lucas Tolimán	10	San Lucas Tolimán	4	Abril	2023-04-25T00:00:00	2024-11-08T01:00:00	3	Temperatura mínima	16.4
120124	7	Sololá	713	San Lucas Tolimán	10	San Lucas Tolimán	4	Abril	2023-04-25T00:00:00	2024-11-08T01:00:00	5	Humedad	64
120125	7	Sololá	713	San Lucas Tolimán	10	San Lucas Tolimán	4	Abril	2023-04-25T00:00:00	2024-11-08T01:00:00	6	Velocidad del viento	1.6
120126	7	Sololá	713	San Lucas Tolimán	10	San Lucas Tolimán	4	Abril	2023-04-25T00:00:00	2024-11-08T01:00:00	7	Dirección del viento	1.61
120127	7	Sololá	713	San Lucas Tolimán	10	San Lucas Tolimán	4	Abril	2023-04-25T00:00:00	2024-11-08T01:00:00	1	Precipitación	0
120128	7	Sololá	713	San Lucas Tolimán	10	San Lucas Tolimán	4	Abril	2023-04-25T00:00:00	2024-11-08T01:00:00	8	Radiación solar	0
120129	7	Sololá	713	San Lucas Tolimán	10	San Lucas Tolimán	4	Abril	2023-04-25T00:00:00	2024-11-08T02:00:00	2	Temperatura media	16.2
120130	7	Sololá	713	San Lucas Tolimán	10	San Lucas Tolimán	4	Abril	2023-04-25T00:00:00	2024-11-08T02:00:00	4	Temperatura máxima	16.6
120131	7	Sololá	713	San Lucas Tolimán	10	San Lucas Tolimán	4	Abril	2023-04-25T00:00:00	2024-11-08T02:00:00	3	Temperatura mínima	15.9
120132	7	Sololá	713	San Lucas Tolimán	10	San Lucas Tolimán	4	Abril	2023-04-25T00:00:00	2024-11-08T02:00:00	5	Humedad	65
120133	7	Sololá	713	San Lucas Tolimán	10	San Lucas Tolimán	4	Abril	2023-04-25T00:00:00	2024-11-08T02:00:00	6	Velocidad del viento	1.6
120134	7	Sololá	713	San Lucas Tolimán	10	San Lucas Tolimán	4	Abril	2023-04-25T00:00:00	2024-11-08T02:00:00	7	Dirección del viento	1.61
120135	7	Sololá	713	San Lucas Tolimán	10	San Lucas Tolimán	4	Abril	2023-04-25T00:00:00	2024-11-08T02:00:00	1	Precipitación	0
120136	7	Sololá	713	San Lucas Tolimán	10	San Lucas Tolimán	4	Abril	2023-04-25T00:00:00	2024-11-08T02:00:00	8	Radiación solar	0
120137	7	Sololá	713	San Lucas Tolimán	10	San Lucas Tolimán	4	Abril	2023-04-25T00:00:00	2024-11-08T03:00:00	2	Temperatura media	16.2
120138	7	Sololá	713	San Lucas Tolimán	10	San Lucas Tolimán	4	Abril	2023-04-25T00:00:00	2024-11-08T03:00:00	4	Temperatura máxima	16.3
120139	7	Sololá	713	San Lucas Tolimán	10	San Lucas Tolimán	4	Abril	2023-04-25T00:00:00	2024-11-08T03:00:00	3	Temperatura mínima	16.1
120140	7	Sololá	713	San Lucas Tolimán	10	San Lucas Tolimán	4	Abril	2023-04-25T00:00:00	2024-11-08T03:00:00	5	Humedad	63
120141	7	Sololá	713	San Lucas Tolimán	10	San Lucas Tolimán	4	Abril	2023-04-25T00:00:00	2024-11-08T03:00:00	6	Velocidad del viento	1.6
120142	7	Sololá	713	San Lucas Tolimán	10	San Lucas Tolimán	4	Abril	2023-04-25T00:00:00	2024-11-08T03:00:00	7	Dirección del viento	1.61
120143	7	Sololá	713	San Lucas Tolimán	10	San Lucas Tolimán	4	Abril	2023-04-25T00:00:00	2024-11-08T03:00:00	1	Precipitación	0
120144	7	Sololá	713	San Lucas Tolimán	10	San Lucas Tolimán	4	Abril	2023-04-25T00:00:00	2024-11-08T03:00:00	8	Radiación solar	0
120145	7	Sololá	713	San Lucas Tolimán	10	San Lucas Tolimán	4	Abril	2023-04-25T00:00:00	2024-11-08T04:00:00	2	Temperatura media	15.7
120146	7	Sololá	713	San Lucas Tolimán	10	San Lucas Tolimán	4	Abril	2023-04-25T00:00:00	2024-11-08T04:00:00	4	Temperatura máxima	16.2
120147	7	Sololá	713	San Lucas Tolimán	10	San Lucas Tolimán	4	Abril	2023-04-25T00:00:00	2024-11-08T04:00:00	3	Temperatura mínima	15.7
120148	7	Sololá	713	San Lucas Tolimán	10	San Lucas Tolimán	4	Abril	2023-04-25T00:00:00	2024-11-08T04:00:00	5	Humedad	64
120149	7	Sololá	713	San Lucas Tolimán	10	San Lucas Tolimán	4	Abril	2023-04-25T00:00:00	2024-11-08T04:00:00	6	Velocidad del viento	0
120150	7	Sololá	713	San Lucas Tolimán	10	San Lucas Tolimán	4	Abril	2023-04-25T00:00:00	2024-11-08T04:00:00	7	Dirección del viento	0
120151	7	Sololá	713	San Lucas Tolimán	10	San Lucas Tolimán	4	Abril	2023-04-25T00:00:00	2024-11-08T04:00:00	1	Precipitación	0
120152	7	Sololá	713	San Lucas Tolimán	10	San Lucas Tolimán	4	Abril	2023-04-25T00:00:00	2024-11-08T04:00:00	8	Radiación solar	0
120153	7	Sololá	713	San Lucas Tolimán	10	San Lucas Tolimán	4	Abril	2023-04-25T00:00:00	2024-11-08T05:00:00	2	Temperatura media	15.5
120154	7	Sololá	713	San Lucas Tolimán	10	San Lucas Tolimán	4	Abril	2023-04-25T00:00:00	2024-11-08T05:00:00	4	Temperatura máxima	15.8
120155	7	Sololá	713	San Lucas Tolimán	10	San Lucas Tolimán	4	Abril	2023-04-25T00:00:00	2024-11-08T05:00:00	3	Temperatura mínima	15.3
120156	7	Sololá	713	San Lucas Tolimán	10	San Lucas Tolimán	4	Abril	2023-04-25T00:00:00	2024-11-08T05:00:00	5	Humedad	63
120157	7	Sololá	713	San Lucas Tolimán	10	San Lucas Tolimán	4	Abril	2023-04-25T00:00:00	2024-11-08T05:00:00	6	Velocidad del viento	0
120158	7	Sololá	713	San Lucas Tolimán	10	San Lucas Tolimán	4	Abril	2023-04-25T00:00:00	2024-11-08T05:00:00	7	Dirección del viento	0
120159	7	Sololá	713	San Lucas Tolimán	10	San Lucas Tolimán	4	Abril	2023-04-25T00:00:00	2024-11-08T05:00:00	1	Precipitación	0
120160	7	Sololá	713	San Lucas Tolimán	10	San Lucas Tolimán	4	Abril	2023-04-25T00:00:00	2024-11-08T05:00:00	8	Radiación solar	0
120161	7	Sololá	713	San Lucas Tolimán	10	San Lucas Tolimán	4	Abril	2023-04-25T00:00:00	2024-11-08T06:00:00	2	Temperatura media	15.8
120162	7	Sololá	713	San Lucas Tolimán	10	San Lucas Tolimán	4	Abril	2023-04-25T00:00:00	2024-11-08T06:00:00	4	Temperatura máxima	16.1
120163	7	Sololá	713	San Lucas Tolimán	10	San Lucas Tolimán	4	Abril	2023-04-25T00:00:00	2024-11-08T06:00:00	3	Temperatura mínima	15.5
120164	7	Sololá	713	San Lucas Tolimán	10	San Lucas Tolimán	4	Abril	2023-04-25T00:00:00	2024-11-08T06:00:00	5	Humedad	61
120165	7	Sololá	713	San Lucas Tolimán	10	San Lucas Tolimán	4	Abril	2023-04-25T00:00:00	2024-11-08T06:00:00	6	Velocidad del viento	1.6
120166	7	Sololá	713	San Lucas Tolimán	10	San Lucas Tolimán	4	Abril	2023-04-25T00:00:00	2024-11-08T06:00:00	7	Dirección del viento	1.61
120167	7	Sololá	713	San Lucas Tolimán	10	San Lucas Tolimán	4	Abril	2023-04-25T00:00:00	2024-11-08T06:00:00	1	Precipitación	0
120168	7	Sololá	713	San Lucas Tolimán	10	San Lucas Tolimán	4	Abril	2023-04-25T00:00:00	2024-11-08T06:00:00	8	Radiación solar	2
120169	7	Sololá	713	San Lucas Tolimán	10	San Lucas Tolimán	4	Abril	2023-04-25T00:00:00	2024-11-08T07:00:00	2	Temperatura media	16.9
120170	7	Sololá	713	San Lucas Tolimán	10	San Lucas Tolimán	4	Abril	2023-04-25T00:00:00	2024-11-08T07:00:00	4	Temperatura máxima	16.9
120171	7	Sololá	713	San Lucas Tolimán	10	San Lucas Tolimán	4	Abril	2023-04-25T00:00:00	2024-11-08T07:00:00	3	Temperatura mínima	15.8
120172	7	Sololá	713	San Lucas Tolimán	10	San Lucas Tolimán	4	Abril	2023-04-25T00:00:00	2024-11-08T07:00:00	5	Humedad	61
120173	7	Sololá	713	San Lucas Tolimán	10	San Lucas Tolimán	4	Abril	2023-04-25T00:00:00	2024-11-08T07:00:00	6	Velocidad del viento	0
120174	7	Sololá	713	San Lucas Tolimán	10	San Lucas Tolimán	4	Abril	2023-04-25T00:00:00	2024-11-08T07:00:00	7	Dirección del viento	0
120175	7	Sololá	713	San Lucas Tolimán	10	San Lucas Tolimán	4	Abril	2023-04-25T00:00:00	2024-11-08T07:00:00	1	Precipitación	0
120176	7	Sololá	713	San Lucas Tolimán	10	San Lucas Tolimán	4	Abril	2023-04-25T00:00:00	2024-11-08T07:00:00	8	Radiación solar	69
120177	7	Sololá	713	San Lucas Tolimán	10	San Lucas Tolimán	4	Abril	2023-04-25T00:00:00	2024-11-08T08:00:00	2	Temperatura media	18.9
120178	7	Sololá	713	San Lucas Tolimán	10	San Lucas Tolimán	4	Abril	2023-04-25T00:00:00	2024-11-08T08:00:00	4	Temperatura máxima	18.9
120179	7	Sololá	713	San Lucas Tolimán	10	San Lucas Tolimán	4	Abril	2023-04-25T00:00:00	2024-11-08T08:00:00	3	Temperatura mínima	16.9
120180	7	Sololá	713	San Lucas Tolimán	10	San Lucas Tolimán	4	Abril	2023-04-25T00:00:00	2024-11-08T08:00:00	5	Humedad	56
120181	7	Sololá	713	San Lucas Tolimán	10	San Lucas Tolimán	4	Abril	2023-04-25T00:00:00	2024-11-08T08:00:00	6	Velocidad del viento	4.8
120182	7	Sololá	713	San Lucas Tolimán	10	San Lucas Tolimán	4	Abril	2023-04-25T00:00:00	2024-11-08T08:00:00	7	Dirección del viento	4.83
120183	7	Sololá	713	San Lucas Tolimán	10	San Lucas Tolimán	4	Abril	2023-04-25T00:00:00	2024-11-08T08:00:00	1	Precipitación	0
120184	7	Sololá	713	San Lucas Tolimán	10	San Lucas Tolimán	4	Abril	2023-04-25T00:00:00	2024-11-08T08:00:00	8	Radiación solar	261
120185	7	Sololá	713	San Lucas Tolimán	10	San Lucas Tolimán	4	Abril	2023-04-25T00:00:00	2024-11-08T09:00:00	2	Temperatura media	20.7
120186	7	Sololá	713	San Lucas Tolimán	10	San Lucas Tolimán	4	Abril	2023-04-25T00:00:00	2024-11-08T09:00:00	4	Temperatura máxima	20.7
120187	7	Sololá	713	San Lucas Tolimán	10	San Lucas Tolimán	4	Abril	2023-04-25T00:00:00	2024-11-08T09:00:00	3	Temperatura mínima	18.9
120188	7	Sololá	713	San Lucas Tolimán	10	San Lucas Tolimán	4	Abril	2023-04-25T00:00:00	2024-11-08T09:00:00	5	Humedad	57
120189	7	Sololá	713	San Lucas Tolimán	10	San Lucas Tolimán	4	Abril	2023-04-25T00:00:00	2024-11-08T09:00:00	6	Velocidad del viento	4.8
120190	7	Sololá	713	San Lucas Tolimán	10	San Lucas Tolimán	4	Abril	2023-04-25T00:00:00	2024-11-08T09:00:00	7	Dirección del viento	4.83
120191	7	Sololá	713	San Lucas Tolimán	10	San Lucas Tolimán	4	Abril	2023-04-25T00:00:00	2024-11-08T09:00:00	1	Precipitación	0
120192	7	Sololá	713	San Lucas Tolimán	10	San Lucas Tolimán	4	Abril	2023-04-25T00:00:00	2024-11-08T09:00:00	8	Radiación solar	460
120193	7	Sololá	713	San Lucas Tolimán	10	San Lucas Tolimán	4	Abril	2023-04-25T00:00:00	2024-11-08T10:00:00	2	Temperatura media	23.8
120194	7	Sololá	713	San Lucas Tolimán	10	San Lucas Tolimán	4	Abril	2023-04-25T00:00:00	2024-11-08T10:00:00	4	Temperatura máxima	23.8
120195	7	Sololá	713	San Lucas Tolimán	10	San Lucas Tolimán	4	Abril	2023-04-25T00:00:00	2024-11-08T10:00:00	3	Temperatura mínima	20.7
120196	7	Sololá	713	San Lucas Tolimán	10	San Lucas Tolimán	4	Abril	2023-04-25T00:00:00	2024-11-08T10:00:00	5	Humedad	54
120197	7	Sololá	713	San Lucas Tolimán	10	San Lucas Tolimán	4	Abril	2023-04-25T00:00:00	2024-11-08T10:00:00	6	Velocidad del viento	4.8
120198	7	Sololá	713	San Lucas Tolimán	10	San Lucas Tolimán	4	Abril	2023-04-25T00:00:00	2024-11-08T10:00:00	7	Dirección del viento	4.83
120199	7	Sololá	713	San Lucas Tolimán	10	San Lucas Tolimán	4	Abril	2023-04-25T00:00:00	2024-11-08T10:00:00	1	Precipitación	0
120200	7	Sololá	713	San Lucas Tolimán	10	San Lucas Tolimán	4	Abril	2023-04-25T00:00:00	2024-11-08T10:00:00	8	Radiación solar	645
120201	7	Sololá	713	San Lucas Tolimán	10	San Lucas Tolimán	4	Abril	2023-04-25T00:00:00	2024-11-08T11:00:00	2	Temperatura media	23.1
120202	7	Sololá	713	San Lucas Tolimán	10	San Lucas Tolimán	4	Abril	2023-04-25T00:00:00	2024-11-08T11:00:00	4	Temperatura máxima	23.9
120203	7	Sololá	713	San Lucas Tolimán	10	San Lucas Tolimán	4	Abril	2023-04-25T00:00:00	2024-11-08T11:00:00	3	Temperatura mínima	23.1
120204	7	Sololá	713	San Lucas Tolimán	10	San Lucas Tolimán	4	Abril	2023-04-25T00:00:00	2024-11-08T11:00:00	5	Humedad	57
120205	7	Sololá	713	San Lucas Tolimán	10	San Lucas Tolimán	4	Abril	2023-04-25T00:00:00	2024-11-08T11:00:00	6	Velocidad del viento	8
120206	7	Sololá	713	San Lucas Tolimán	10	San Lucas Tolimán	4	Abril	2023-04-25T00:00:00	2024-11-08T11:00:00	7	Dirección del viento	8.05
120207	7	Sololá	713	San Lucas Tolimán	10	San Lucas Tolimán	4	Abril	2023-04-25T00:00:00	2024-11-08T11:00:00	1	Precipitación	0
120208	7	Sololá	713	San Lucas Tolimán	10	San Lucas Tolimán	4	Abril	2023-04-25T00:00:00	2024-11-08T11:00:00	8	Radiación solar	946
120209	7	Sololá	713	San Lucas Tolimán	10	San Lucas Tolimán	4	Abril	2023-04-25T00:00:00	2024-11-08T12:00:00	2	Temperatura media	23.8
120210	7	Sololá	713	San Lucas Tolimán	10	San Lucas Tolimán	4	Abril	2023-04-25T00:00:00	2024-11-08T12:00:00	4	Temperatura máxima	23.8
120211	7	Sololá	713	San Lucas Tolimán	10	San Lucas Tolimán	4	Abril	2023-04-25T00:00:00	2024-11-08T12:00:00	3	Temperatura mínima	23.1
120212	7	Sololá	713	San Lucas Tolimán	10	San Lucas Tolimán	4	Abril	2023-04-25T00:00:00	2024-11-08T12:00:00	5	Humedad	55
120213	7	Sololá	713	San Lucas Tolimán	10	San Lucas Tolimán	4	Abril	2023-04-25T00:00:00	2024-11-08T12:00:00	6	Velocidad del viento	11.3
120214	7	Sololá	713	San Lucas Tolimán	10	San Lucas Tolimán	4	Abril	2023-04-25T00:00:00	2024-11-08T12:00:00	7	Dirección del viento	11.27
120215	7	Sololá	713	San Lucas Tolimán	10	San Lucas Tolimán	4	Abril	2023-04-25T00:00:00	2024-11-08T12:00:00	1	Precipitación	0
120216	7	Sololá	713	San Lucas Tolimán	10	San Lucas Tolimán	4	Abril	2023-04-25T00:00:00	2024-11-08T12:00:00	8	Radiación solar	1073
120217	7	Sololá	713	San Lucas Tolimán	10	San Lucas Tolimán	4	Abril	2023-04-25T00:00:00	2024-11-08T13:00:00	2	Temperatura media	24.1
120218	7	Sololá	713	San Lucas Tolimán	10	San Lucas Tolimán	4	Abril	2023-04-25T00:00:00	2024-11-08T13:00:00	4	Temperatura máxima	24.2
120219	7	Sololá	713	San Lucas Tolimán	10	San Lucas Tolimán	4	Abril	2023-04-25T00:00:00	2024-11-08T13:00:00	3	Temperatura mínima	23.4
120220	7	Sololá	713	San Lucas Tolimán	10	San Lucas Tolimán	4	Abril	2023-04-25T00:00:00	2024-11-08T13:00:00	5	Humedad	53
120221	7	Sololá	713	San Lucas Tolimán	10	San Lucas Tolimán	4	Abril	2023-04-25T00:00:00	2024-11-08T13:00:00	6	Velocidad del viento	11.3
120222	7	Sololá	713	San Lucas Tolimán	10	San Lucas Tolimán	4	Abril	2023-04-25T00:00:00	2024-11-08T13:00:00	7	Dirección del viento	11.27
120223	7	Sololá	713	San Lucas Tolimán	10	San Lucas Tolimán	4	Abril	2023-04-25T00:00:00	2024-11-08T13:00:00	1	Precipitación	0
120224	7	Sololá	713	San Lucas Tolimán	10	San Lucas Tolimán	4	Abril	2023-04-25T00:00:00	2024-11-08T13:00:00	8	Radiación solar	1116
120225	7	Sololá	713	San Lucas Tolimán	10	San Lucas Tolimán	4	Abril	2023-04-25T00:00:00	2024-11-08T14:00:00	2	Temperatura media	22.8
120226	7	Sololá	713	San Lucas Tolimán	10	San Lucas Tolimán	4	Abril	2023-04-25T00:00:00	2024-11-08T14:00:00	4	Temperatura máxima	24.1
120227	7	Sololá	713	San Lucas Tolimán	10	San Lucas Tolimán	4	Abril	2023-04-25T00:00:00	2024-11-08T14:00:00	3	Temperatura mínima	22.8
120228	7	Sololá	713	San Lucas Tolimán	10	San Lucas Tolimán	4	Abril	2023-04-25T00:00:00	2024-11-08T14:00:00	5	Humedad	58
120229	7	Sololá	713	San Lucas Tolimán	10	San Lucas Tolimán	4	Abril	2023-04-25T00:00:00	2024-11-08T14:00:00	6	Velocidad del viento	12.9
120230	7	Sololá	713	San Lucas Tolimán	10	San Lucas Tolimán	4	Abril	2023-04-25T00:00:00	2024-11-08T14:00:00	7	Dirección del viento	12.87
120231	7	Sololá	713	San Lucas Tolimán	10	San Lucas Tolimán	4	Abril	2023-04-25T00:00:00	2024-11-08T14:00:00	1	Precipitación	0
120232	7	Sololá	713	San Lucas Tolimán	10	San Lucas Tolimán	4	Abril	2023-04-25T00:00:00	2024-11-08T14:00:00	8	Radiación solar	517
120233	7	Sololá	713	San Lucas Tolimán	10	San Lucas Tolimán	4	Abril	2023-04-25T00:00:00	2024-11-08T15:00:00	2	Temperatura media	22.2
120234	7	Sololá	713	San Lucas Tolimán	10	San Lucas Tolimán	4	Abril	2023-04-25T00:00:00	2024-11-08T15:00:00	4	Temperatura máxima	22.7
120235	7	Sololá	713	San Lucas Tolimán	10	San Lucas Tolimán	4	Abril	2023-04-25T00:00:00	2024-11-08T15:00:00	3	Temperatura mínima	21.7
120236	7	Sololá	713	San Lucas Tolimán	10	San Lucas Tolimán	4	Abril	2023-04-25T00:00:00	2024-11-08T15:00:00	5	Humedad	61
120237	7	Sololá	713	San Lucas Tolimán	10	San Lucas Tolimán	4	Abril	2023-04-25T00:00:00	2024-11-08T15:00:00	6	Velocidad del viento	11.3
120238	7	Sololá	713	San Lucas Tolimán	10	San Lucas Tolimán	4	Abril	2023-04-25T00:00:00	2024-11-08T15:00:00	7	Dirección del viento	11.27
120239	7	Sololá	713	San Lucas Tolimán	10	San Lucas Tolimán	4	Abril	2023-04-25T00:00:00	2024-11-08T15:00:00	1	Precipitación	0
120240	7	Sololá	713	San Lucas Tolimán	10	San Lucas Tolimán	4	Abril	2023-04-25T00:00:00	2024-11-08T15:00:00	8	Radiación solar	251
120241	7	Sololá	713	San Lucas Tolimán	10	San Lucas Tolimán	4	Abril	2023-04-25T00:00:00	2024-11-08T16:00:00	2	Temperatura media	21
120242	7	Sololá	713	San Lucas Tolimán	10	San Lucas Tolimán	4	Abril	2023-04-25T00:00:00	2024-11-08T16:00:00	4	Temperatura máxima	22.4
120243	7	Sololá	713	San Lucas Tolimán	10	San Lucas Tolimán	4	Abril	2023-04-25T00:00:00	2024-11-08T16:00:00	3	Temperatura mínima	20.9
120244	7	Sololá	713	San Lucas Tolimán	10	San Lucas Tolimán	4	Abril	2023-04-25T00:00:00	2024-11-08T16:00:00	5	Humedad	61
120245	7	Sololá	713	San Lucas Tolimán	10	San Lucas Tolimán	4	Abril	2023-04-25T00:00:00	2024-11-08T16:00:00	6	Velocidad del viento	9.7
120246	7	Sololá	713	San Lucas Tolimán	10	San Lucas Tolimán	4	Abril	2023-04-25T00:00:00	2024-11-08T16:00:00	7	Dirección del viento	9.66
120247	7	Sololá	713	San Lucas Tolimán	10	San Lucas Tolimán	4	Abril	2023-04-25T00:00:00	2024-11-08T16:00:00	1	Precipitación	0
120248	7	Sololá	713	San Lucas Tolimán	10	San Lucas Tolimán	4	Abril	2023-04-25T00:00:00	2024-11-08T16:00:00	8	Radiación solar	210
120249	7	Sololá	713	San Lucas Tolimán	10	San Lucas Tolimán	4	Abril	2023-04-25T00:00:00	2024-11-08T17:00:00	2	Temperatura media	20
120250	7	Sololá	713	San Lucas Tolimán	10	San Lucas Tolimán	4	Abril	2023-04-25T00:00:00	2024-11-08T17:00:00	4	Temperatura máxima	21
120251	7	Sololá	713	San Lucas Tolimán	10	San Lucas Tolimán	4	Abril	2023-04-25T00:00:00	2024-11-08T17:00:00	3	Temperatura mínima	19.9
120252	7	Sololá	713	San Lucas Tolimán	10	San Lucas Tolimán	4	Abril	2023-04-25T00:00:00	2024-11-08T17:00:00	5	Humedad	60
120253	7	Sololá	713	San Lucas Tolimán	10	San Lucas Tolimán	4	Abril	2023-04-25T00:00:00	2024-11-08T17:00:00	6	Velocidad del viento	8
120254	7	Sololá	713	San Lucas Tolimán	10	San Lucas Tolimán	4	Abril	2023-04-25T00:00:00	2024-11-08T17:00:00	7	Dirección del viento	8.05
120255	7	Sololá	713	San Lucas Tolimán	10	San Lucas Tolimán	4	Abril	2023-04-25T00:00:00	2024-11-08T17:00:00	1	Precipitación	0
120256	7	Sololá	713	San Lucas Tolimán	10	San Lucas Tolimán	4	Abril	2023-04-25T00:00:00	2024-11-08T17:00:00	8	Radiación solar	82
120257	7	Sololá	713	San Lucas Tolimán	10	San Lucas Tolimán	4	Abril	2023-04-25T00:00:00	2024-11-08T18:00:00	2	Temperatura media	20
120258	7	Sololá	713	San Lucas Tolimán	10	San Lucas Tolimán	4	Abril	2023-04-25T00:00:00	2024-11-08T18:00:00	4	Temperatura máxima	20.4
120259	7	Sololá	713	San Lucas Tolimán	10	San Lucas Tolimán	4	Abril	2023-04-25T00:00:00	2024-11-08T18:00:00	3	Temperatura mínima	20
120260	7	Sololá	713	San Lucas Tolimán	10	San Lucas Tolimán	4	Abril	2023-04-25T00:00:00	2024-11-08T18:00:00	5	Humedad	61
120261	7	Sololá	713	San Lucas Tolimán	10	San Lucas Tolimán	4	Abril	2023-04-25T00:00:00	2024-11-08T18:00:00	6	Velocidad del viento	4.8
120262	7	Sololá	713	San Lucas Tolimán	10	San Lucas Tolimán	4	Abril	2023-04-25T00:00:00	2024-11-08T18:00:00	7	Dirección del viento	4.83
120263	7	Sololá	713	San Lucas Tolimán	10	San Lucas Tolimán	4	Abril	2023-04-25T00:00:00	2024-11-08T18:00:00	1	Precipitación	0
120264	7	Sololá	713	San Lucas Tolimán	10	San Lucas Tolimán	4	Abril	2023-04-25T00:00:00	2024-11-08T18:00:00	8	Radiación solar	29
120265	7	Sololá	713	San Lucas Tolimán	10	San Lucas Tolimán	4	Abril	2023-04-25T00:00:00	2024-11-08T19:00:00	2	Temperatura media	19.3
120266	7	Sololá	713	San Lucas Tolimán	10	San Lucas Tolimán	4	Abril	2023-04-25T00:00:00	2024-11-08T19:00:00	4	Temperatura máxima	20
120267	7	Sololá	713	San Lucas Tolimán	10	San Lucas Tolimán	4	Abril	2023-04-25T00:00:00	2024-11-08T19:00:00	3	Temperatura mínima	19.2
120268	7	Sololá	713	San Lucas Tolimán	10	San Lucas Tolimán	4	Abril	2023-04-25T00:00:00	2024-11-08T19:00:00	5	Humedad	61
120269	7	Sololá	713	San Lucas Tolimán	10	San Lucas Tolimán	4	Abril	2023-04-25T00:00:00	2024-11-08T19:00:00	6	Velocidad del viento	4.8
120270	7	Sololá	713	San Lucas Tolimán	10	San Lucas Tolimán	4	Abril	2023-04-25T00:00:00	2024-11-08T19:00:00	7	Dirección del viento	4.83
120271	7	Sololá	713	San Lucas Tolimán	10	San Lucas Tolimán	4	Abril	2023-04-25T00:00:00	2024-11-08T19:00:00	1	Precipitación	0
120272	7	Sololá	713	San Lucas Tolimán	10	San Lucas Tolimán	4	Abril	2023-04-25T00:00:00	2024-11-08T19:00:00	8	Radiación solar	0
120273	7	Sololá	713	San Lucas Tolimán	10	San Lucas Tolimán	4	Abril	2023-04-25T00:00:00	2024-11-08T20:00:00	2	Temperatura media	19.5
120274	7	Sololá	713	San Lucas Tolimán	10	San Lucas Tolimán	4	Abril	2023-04-25T00:00:00	2024-11-08T20:00:00	4	Temperatura máxima	19.5
120275	7	Sololá	713	San Lucas Tolimán	10	San Lucas Tolimán	4	Abril	2023-04-25T00:00:00	2024-11-08T20:00:00	3	Temperatura mínima	19.2
120276	7	Sololá	713	San Lucas Tolimán	10	San Lucas Tolimán	4	Abril	2023-04-25T00:00:00	2024-11-08T20:00:00	5	Humedad	60
120277	7	Sololá	713	San Lucas Tolimán	10	San Lucas Tolimán	4	Abril	2023-04-25T00:00:00	2024-11-08T20:00:00	6	Velocidad del viento	0
120278	7	Sololá	713	San Lucas Tolimán	10	San Lucas Tolimán	4	Abril	2023-04-25T00:00:00	2024-11-08T20:00:00	7	Dirección del viento	0
120279	7	Sololá	713	San Lucas Tolimán	10	San Lucas Tolimán	4	Abril	2023-04-25T00:00:00	2024-11-08T20:00:00	1	Precipitación	0
120280	7	Sololá	713	San Lucas Tolimán	10	San Lucas Tolimán	4	Abril	2023-04-25T00:00:00	2024-11-08T20:00:00	8	Radiación solar	0
120281	7	Sololá	713	San Lucas Tolimán	10	San Lucas Tolimán	4	Abril	2023-04-25T00:00:00	2024-11-08T21:00:00	2	Temperatura media	19.3
120282	7	Sololá	713	San Lucas Tolimán	10	San Lucas Tolimán	4	Abril	2023-04-25T00:00:00	2024-11-08T21:00:00	4	Temperatura máxima	19.7
120283	7	Sololá	713	San Lucas Tolimán	10	San Lucas Tolimán	4	Abril	2023-04-25T00:00:00	2024-11-08T21:00:00	3	Temperatura mínima	19.3
120284	7	Sololá	713	San Lucas Tolimán	10	San Lucas Tolimán	4	Abril	2023-04-25T00:00:00	2024-11-08T21:00:00	5	Humedad	59
120285	7	Sololá	713	San Lucas Tolimán	10	San Lucas Tolimán	4	Abril	2023-04-25T00:00:00	2024-11-08T21:00:00	6	Velocidad del viento	0
120286	7	Sololá	713	San Lucas Tolimán	10	San Lucas Tolimán	4	Abril	2023-04-25T00:00:00	2024-11-08T21:00:00	7	Dirección del viento	0
120287	7	Sololá	713	San Lucas Tolimán	10	San Lucas Tolimán	4	Abril	2023-04-25T00:00:00	2024-11-08T21:00:00	1	Precipitación	0
120288	7	Sololá	713	San Lucas Tolimán	10	San Lucas Tolimán	4	Abril	2023-04-25T00:00:00	2024-11-08T21:00:00	8	Radiación solar	0
120289	7	Sololá	713	San Lucas Tolimán	10	San Lucas Tolimán	4	Abril	2023-04-25T00:00:00	2024-11-08T22:00:00	2	Temperatura media	18.9
120290	7	Sololá	713	San Lucas Tolimán	10	San Lucas Tolimán	4	Abril	2023-04-25T00:00:00	2024-11-08T22:00:00	4	Temperatura máxima	19.4
120291	7	Sololá	713	San Lucas Tolimán	10	San Lucas Tolimán	4	Abril	2023-04-25T00:00:00	2024-11-08T22:00:00	3	Temperatura mínima	18.9
120292	7	Sololá	713	San Lucas Tolimán	10	San Lucas Tolimán	4	Abril	2023-04-25T00:00:00	2024-11-08T22:00:00	5	Humedad	59
120293	7	Sololá	713	San Lucas Tolimán	10	San Lucas Tolimán	4	Abril	2023-04-25T00:00:00	2024-11-08T22:00:00	6	Velocidad del viento	0
120294	7	Sololá	713	San Lucas Tolimán	10	San Lucas Tolimán	4	Abril	2023-04-25T00:00:00	2024-11-08T22:00:00	7	Dirección del viento	0
120295	7	Sololá	713	San Lucas Tolimán	10	San Lucas Tolimán	4	Abril	2023-04-25T00:00:00	2024-11-08T22:00:00	1	Precipitación	0
120296	7	Sololá	713	San Lucas Tolimán	10	San Lucas Tolimán	4	Abril	2023-04-25T00:00:00	2024-11-08T22:00:00	8	Radiación solar	0
120297	7	Sololá	713	San Lucas Tolimán	10	San Lucas Tolimán	4	Abril	2023-04-25T00:00:00	2024-11-08T23:00:00	2	Temperatura media	18.6
120298	7	Sololá	713	San Lucas Tolimán	10	San Lucas Tolimán	4	Abril	2023-04-25T00:00:00	2024-11-08T23:00:00	4	Temperatura máxima	18.9
120299	7	Sololá	713	San Lucas Tolimán	10	San Lucas Tolimán	4	Abril	2023-04-25T00:00:00	2024-11-08T23:00:00	3	Temperatura mínima	18.5
120300	7	Sololá	713	San Lucas Tolimán	10	San Lucas Tolimán	4	Abril	2023-04-25T00:00:00	2024-11-08T23:00:00	5	Humedad	60
120301	7	Sololá	713	San Lucas Tolimán	10	San Lucas Tolimán	4	Abril	2023-04-25T00:00:00	2024-11-08T23:00:00	6	Velocidad del viento	1.6
120302	7	Sololá	713	San Lucas Tolimán	10	San Lucas Tolimán	4	Abril	2023-04-25T00:00:00	2024-11-08T23:00:00	7	Dirección del viento	1.61
120303	7	Sololá	713	San Lucas Tolimán	10	San Lucas Tolimán	4	Abril	2023-04-25T00:00:00	2024-11-08T23:00:00	1	Precipitación	0
120304	7	Sololá	713	San Lucas Tolimán	10	San Lucas Tolimán	4	Abril	2023-04-25T00:00:00	2024-11-08T23:00:00	8	Radiación solar	0
120305	7	Sololá	713	San Lucas Tolimán	10	San Lucas Tolimán	4	Abril	2023-04-26T00:00:00	2024-11-08T00:00:00	2	Temperatura media	18.7
120306	7	Sololá	713	San Lucas Tolimán	10	San Lucas Tolimán	4	Abril	2023-04-26T00:00:00	2024-11-08T00:00:00	4	Temperatura máxima	18.7
120307	7	Sololá	713	San Lucas Tolimán	10	San Lucas Tolimán	4	Abril	2023-04-26T00:00:00	2024-11-08T00:00:00	3	Temperatura mínima	18.6
120308	7	Sololá	713	San Lucas Tolimán	10	San Lucas Tolimán	4	Abril	2023-04-26T00:00:00	2024-11-08T00:00:00	5	Humedad	59
120309	7	Sololá	713	San Lucas Tolimán	10	San Lucas Tolimán	4	Abril	2023-04-26T00:00:00	2024-11-08T00:00:00	6	Velocidad del viento	3.2
120310	7	Sololá	713	San Lucas Tolimán	10	San Lucas Tolimán	4	Abril	2023-04-26T00:00:00	2024-11-08T00:00:00	7	Dirección del viento	3.22
120311	7	Sololá	713	San Lucas Tolimán	10	San Lucas Tolimán	4	Abril	2023-04-26T00:00:00	2024-11-08T00:00:00	1	Precipitación	0
120312	7	Sololá	713	San Lucas Tolimán	10	San Lucas Tolimán	4	Abril	2023-04-26T00:00:00	2024-11-08T00:00:00	8	Radiación solar	0
120313	7	Sololá	713	San Lucas Tolimán	10	San Lucas Tolimán	4	Abril	2023-04-26T00:00:00	2024-11-08T01:00:00	2	Temperatura media	18.6
120314	7	Sololá	713	San Lucas Tolimán	10	San Lucas Tolimán	4	Abril	2023-04-26T00:00:00	2024-11-08T01:00:00	4	Temperatura máxima	18.7
120315	7	Sololá	713	San Lucas Tolimán	10	San Lucas Tolimán	4	Abril	2023-04-26T00:00:00	2024-11-08T01:00:00	3	Temperatura mínima	18.5
120316	7	Sololá	713	San Lucas Tolimán	10	San Lucas Tolimán	4	Abril	2023-04-26T00:00:00	2024-11-08T01:00:00	5	Humedad	60
120317	7	Sololá	713	San Lucas Tolimán	10	San Lucas Tolimán	4	Abril	2023-04-26T00:00:00	2024-11-08T01:00:00	6	Velocidad del viento	1.6
120318	7	Sololá	713	San Lucas Tolimán	10	San Lucas Tolimán	4	Abril	2023-04-26T00:00:00	2024-11-08T01:00:00	7	Dirección del viento	1.61
120319	7	Sololá	713	San Lucas Tolimán	10	San Lucas Tolimán	4	Abril	2023-04-26T00:00:00	2024-11-08T01:00:00	1	Precipitación	0
120320	7	Sololá	713	San Lucas Tolimán	10	San Lucas Tolimán	4	Abril	2023-04-26T00:00:00	2024-11-08T01:00:00	8	Radiación solar	0
120321	7	Sololá	713	San Lucas Tolimán	10	San Lucas Tolimán	4	Abril	2023-04-26T00:00:00	2024-11-08T02:00:00	2	Temperatura media	18.4
120322	7	Sololá	713	San Lucas Tolimán	10	San Lucas Tolimán	4	Abril	2023-04-26T00:00:00	2024-11-08T02:00:00	4	Temperatura máxima	18.6
120323	7	Sololá	713	San Lucas Tolimán	10	San Lucas Tolimán	4	Abril	2023-04-26T00:00:00	2024-11-08T02:00:00	3	Temperatura mínima	18.4
120324	7	Sololá	713	San Lucas Tolimán	10	San Lucas Tolimán	4	Abril	2023-04-26T00:00:00	2024-11-08T02:00:00	5	Humedad	61
120325	7	Sololá	713	San Lucas Tolimán	10	San Lucas Tolimán	4	Abril	2023-04-26T00:00:00	2024-11-08T02:00:00	6	Velocidad del viento	0
120326	7	Sololá	713	San Lucas Tolimán	10	San Lucas Tolimán	4	Abril	2023-04-26T00:00:00	2024-11-08T02:00:00	7	Dirección del viento	0
120327	7	Sololá	713	San Lucas Tolimán	10	San Lucas Tolimán	4	Abril	2023-04-26T00:00:00	2024-11-08T02:00:00	1	Precipitación	0
120328	7	Sololá	713	San Lucas Tolimán	10	San Lucas Tolimán	4	Abril	2023-04-26T00:00:00	2024-11-08T02:00:00	8	Radiación solar	0
120329	7	Sololá	713	San Lucas Tolimán	10	San Lucas Tolimán	4	Abril	2023-04-26T00:00:00	2024-11-08T03:00:00	2	Temperatura media	18.3
120330	7	Sololá	713	San Lucas Tolimán	10	San Lucas Tolimán	4	Abril	2023-04-26T00:00:00	2024-11-08T03:00:00	4	Temperatura máxima	18.4
120331	7	Sololá	713	San Lucas Tolimán	10	San Lucas Tolimán	4	Abril	2023-04-26T00:00:00	2024-11-08T03:00:00	3	Temperatura mínima	18.3
120332	7	Sololá	713	San Lucas Tolimán	10	San Lucas Tolimán	4	Abril	2023-04-26T00:00:00	2024-11-08T03:00:00	5	Humedad	61
120333	7	Sololá	713	San Lucas Tolimán	10	San Lucas Tolimán	4	Abril	2023-04-26T00:00:00	2024-11-08T03:00:00	6	Velocidad del viento	0
120334	7	Sololá	713	San Lucas Tolimán	10	San Lucas Tolimán	4	Abril	2023-04-26T00:00:00	2024-11-08T03:00:00	7	Dirección del viento	0
120335	7	Sololá	713	San Lucas Tolimán	10	San Lucas Tolimán	4	Abril	2023-04-26T00:00:00	2024-11-08T03:00:00	1	Precipitación	0
120336	7	Sololá	713	San Lucas Tolimán	10	San Lucas Tolimán	4	Abril	2023-04-26T00:00:00	2024-11-08T03:00:00	8	Radiación solar	0
120337	7	Sololá	713	San Lucas Tolimán	10	San Lucas Tolimán	4	Abril	2023-04-26T00:00:00	2024-11-08T04:00:00	2	Temperatura media	17.7
120338	7	Sololá	713	San Lucas Tolimán	10	San Lucas Tolimán	4	Abril	2023-04-26T00:00:00	2024-11-08T04:00:00	4	Temperatura máxima	18.3
120339	7	Sololá	713	San Lucas Tolimán	10	San Lucas Tolimán	4	Abril	2023-04-26T00:00:00	2024-11-08T04:00:00	3	Temperatura mínima	17.7
120340	7	Sololá	713	San Lucas Tolimán	10	San Lucas Tolimán	4	Abril	2023-04-26T00:00:00	2024-11-08T04:00:00	5	Humedad	62
120341	7	Sololá	713	San Lucas Tolimán	10	San Lucas Tolimán	4	Abril	2023-04-26T00:00:00	2024-11-08T04:00:00	6	Velocidad del viento	0
120342	7	Sololá	713	San Lucas Tolimán	10	San Lucas Tolimán	4	Abril	2023-04-26T00:00:00	2024-11-08T04:00:00	7	Dirección del viento	0
120343	7	Sololá	713	San Lucas Tolimán	10	San Lucas Tolimán	4	Abril	2023-04-26T00:00:00	2024-11-08T04:00:00	1	Precipitación	0
120344	7	Sololá	713	San Lucas Tolimán	10	San Lucas Tolimán	4	Abril	2023-04-26T00:00:00	2024-11-08T04:00:00	8	Radiación solar	0
120345	7	Sololá	713	San Lucas Tolimán	10	San Lucas Tolimán	4	Abril	2023-04-26T00:00:00	2024-11-08T05:00:00	2	Temperatura media	17.3
120346	7	Sololá	713	San Lucas Tolimán	10	San Lucas Tolimán	4	Abril	2023-04-26T00:00:00	2024-11-08T05:00:00	4	Temperatura máxima	17.8
120347	7	Sololá	713	San Lucas Tolimán	10	San Lucas Tolimán	4	Abril	2023-04-26T00:00:00	2024-11-08T05:00:00	3	Temperatura mínima	17.3
120348	7	Sololá	713	San Lucas Tolimán	10	San Lucas Tolimán	4	Abril	2023-04-26T00:00:00	2024-11-08T05:00:00	5	Humedad	62
120349	7	Sololá	713	San Lucas Tolimán	10	San Lucas Tolimán	4	Abril	2023-04-26T00:00:00	2024-11-08T05:00:00	6	Velocidad del viento	0
120350	7	Sololá	713	San Lucas Tolimán	10	San Lucas Tolimán	4	Abril	2023-04-26T00:00:00	2024-11-08T05:00:00	7	Dirección del viento	0
120351	7	Sololá	713	San Lucas Tolimán	10	San Lucas Tolimán	4	Abril	2023-04-26T00:00:00	2024-11-08T05:00:00	1	Precipitación	0
120352	7	Sololá	713	San Lucas Tolimán	10	San Lucas Tolimán	4	Abril	2023-04-26T00:00:00	2024-11-08T05:00:00	8	Radiación solar	0
120353	7	Sololá	713	San Lucas Tolimán	10	San Lucas Tolimán	4	Abril	2023-04-26T00:00:00	2024-11-08T06:00:00	2	Temperatura media	16.4
120354	7	Sololá	713	San Lucas Tolimán	10	San Lucas Tolimán	4	Abril	2023-04-26T00:00:00	2024-11-08T06:00:00	4	Temperatura máxima	17.3
120355	7	Sololá	713	San Lucas Tolimán	10	San Lucas Tolimán	4	Abril	2023-04-26T00:00:00	2024-11-08T06:00:00	3	Temperatura mínima	16.4
120356	7	Sololá	713	San Lucas Tolimán	10	San Lucas Tolimán	4	Abril	2023-04-26T00:00:00	2024-11-08T06:00:00	5	Humedad	63
120357	7	Sololá	713	San Lucas Tolimán	10	San Lucas Tolimán	4	Abril	2023-04-26T00:00:00	2024-11-08T06:00:00	6	Velocidad del viento	0
120358	7	Sololá	713	San Lucas Tolimán	10	San Lucas Tolimán	4	Abril	2023-04-26T00:00:00	2024-11-08T06:00:00	7	Dirección del viento	0
120359	7	Sololá	713	San Lucas Tolimán	10	San Lucas Tolimán	4	Abril	2023-04-26T00:00:00	2024-11-08T06:00:00	1	Precipitación	0
120360	7	Sololá	713	San Lucas Tolimán	10	San Lucas Tolimán	4	Abril	2023-04-26T00:00:00	2024-11-08T06:00:00	8	Radiación solar	1
120361	7	Sololá	713	San Lucas Tolimán	10	San Lucas Tolimán	4	Abril	2023-04-26T00:00:00	2024-11-08T07:00:00	2	Temperatura media	17.8
120362	7	Sololá	713	San Lucas Tolimán	10	San Lucas Tolimán	4	Abril	2023-04-26T00:00:00	2024-11-08T07:00:00	4	Temperatura máxima	17.8
120363	7	Sololá	713	San Lucas Tolimán	10	San Lucas Tolimán	4	Abril	2023-04-26T00:00:00	2024-11-08T07:00:00	3	Temperatura mínima	16.3
120364	7	Sololá	713	San Lucas Tolimán	10	San Lucas Tolimán	4	Abril	2023-04-26T00:00:00	2024-11-08T07:00:00	5	Humedad	62
120365	7	Sololá	713	San Lucas Tolimán	10	San Lucas Tolimán	4	Abril	2023-04-26T00:00:00	2024-11-08T07:00:00	6	Velocidad del viento	1.6
120366	7	Sololá	713	San Lucas Tolimán	10	San Lucas Tolimán	4	Abril	2023-04-26T00:00:00	2024-11-08T07:00:00	7	Dirección del viento	1.61
120367	7	Sololá	713	San Lucas Tolimán	10	San Lucas Tolimán	4	Abril	2023-04-26T00:00:00	2024-11-08T07:00:00	1	Precipitación	0
120368	7	Sololá	713	San Lucas Tolimán	10	San Lucas Tolimán	4	Abril	2023-04-26T00:00:00	2024-11-08T07:00:00	8	Radiación solar	70
120369	7	Sololá	713	San Lucas Tolimán	10	San Lucas Tolimán	4	Abril	2023-04-26T00:00:00	2024-11-08T08:00:00	2	Temperatura media	20.1
120370	7	Sololá	713	San Lucas Tolimán	10	San Lucas Tolimán	4	Abril	2023-04-26T00:00:00	2024-11-08T08:00:00	4	Temperatura máxima	20.4
120371	7	Sololá	713	San Lucas Tolimán	10	San Lucas Tolimán	4	Abril	2023-04-26T00:00:00	2024-11-08T08:00:00	3	Temperatura mínima	17.8
120372	7	Sololá	713	San Lucas Tolimán	10	San Lucas Tolimán	4	Abril	2023-04-26T00:00:00	2024-11-08T08:00:00	5	Humedad	57
120373	7	Sololá	713	San Lucas Tolimán	10	San Lucas Tolimán	4	Abril	2023-04-26T00:00:00	2024-11-08T08:00:00	6	Velocidad del viento	0
120374	7	Sololá	713	San Lucas Tolimán	10	San Lucas Tolimán	4	Abril	2023-04-26T00:00:00	2024-11-08T08:00:00	7	Dirección del viento	0
120375	7	Sololá	713	San Lucas Tolimán	10	San Lucas Tolimán	4	Abril	2023-04-26T00:00:00	2024-11-08T08:00:00	1	Precipitación	0
120376	7	Sololá	713	San Lucas Tolimán	10	San Lucas Tolimán	4	Abril	2023-04-26T00:00:00	2024-11-08T08:00:00	8	Radiación solar	188
120377	7	Sololá	713	San Lucas Tolimán	10	San Lucas Tolimán	4	Abril	2023-04-26T00:00:00	2024-11-08T09:00:00	2	Temperatura media	21.2
120378	7	Sololá	713	San Lucas Tolimán	10	San Lucas Tolimán	4	Abril	2023-04-26T00:00:00	2024-11-08T09:00:00	4	Temperatura máxima	21.2
120379	7	Sololá	713	San Lucas Tolimán	10	San Lucas Tolimán	4	Abril	2023-04-26T00:00:00	2024-11-08T09:00:00	3	Temperatura mínima	20.1
120380	7	Sololá	713	San Lucas Tolimán	10	San Lucas Tolimán	4	Abril	2023-04-26T00:00:00	2024-11-08T09:00:00	5	Humedad	56
120381	7	Sololá	713	San Lucas Tolimán	10	San Lucas Tolimán	4	Abril	2023-04-26T00:00:00	2024-11-08T09:00:00	6	Velocidad del viento	3.2
120382	7	Sololá	713	San Lucas Tolimán	10	San Lucas Tolimán	4	Abril	2023-04-26T00:00:00	2024-11-08T09:00:00	7	Dirección del viento	3.22
120383	7	Sololá	713	San Lucas Tolimán	10	San Lucas Tolimán	4	Abril	2023-04-26T00:00:00	2024-11-08T09:00:00	1	Precipitación	0
120384	7	Sololá	713	San Lucas Tolimán	10	San Lucas Tolimán	4	Abril	2023-04-26T00:00:00	2024-11-08T09:00:00	8	Radiación solar	375
120385	7	Sololá	713	San Lucas Tolimán	10	San Lucas Tolimán	4	Abril	2023-04-26T00:00:00	2024-11-08T10:00:00	2	Temperatura media	23.7
120386	7	Sololá	713	San Lucas Tolimán	10	San Lucas Tolimán	4	Abril	2023-04-26T00:00:00	2024-11-08T10:00:00	4	Temperatura máxima	23.9
120387	7	Sololá	713	San Lucas Tolimán	10	San Lucas Tolimán	4	Abril	2023-04-26T00:00:00	2024-11-08T10:00:00	3	Temperatura mínima	21.2
120388	7	Sololá	713	San Lucas Tolimán	10	San Lucas Tolimán	4	Abril	2023-04-26T00:00:00	2024-11-08T10:00:00	5	Humedad	54
120389	7	Sololá	713	San Lucas Tolimán	10	San Lucas Tolimán	4	Abril	2023-04-26T00:00:00	2024-11-08T10:00:00	6	Velocidad del viento	4.8
120390	7	Sololá	713	San Lucas Tolimán	10	San Lucas Tolimán	4	Abril	2023-04-26T00:00:00	2024-11-08T10:00:00	7	Dirección del viento	4.83
120391	7	Sololá	713	San Lucas Tolimán	10	San Lucas Tolimán	4	Abril	2023-04-26T00:00:00	2024-11-08T10:00:00	1	Precipitación	0
120392	7	Sololá	713	San Lucas Tolimán	10	San Lucas Tolimán	4	Abril	2023-04-26T00:00:00	2024-11-08T10:00:00	8	Radiación solar	695
120393	7	Sololá	713	San Lucas Tolimán	10	San Lucas Tolimán	4	Abril	2023-04-26T00:00:00	2024-11-08T11:00:00	2	Temperatura media	23.8
120394	7	Sololá	713	San Lucas Tolimán	10	San Lucas Tolimán	4	Abril	2023-04-26T00:00:00	2024-11-08T11:00:00	4	Temperatura máxima	24.2
120395	7	Sololá	713	San Lucas Tolimán	10	San Lucas Tolimán	4	Abril	2023-04-26T00:00:00	2024-11-08T11:00:00	3	Temperatura mínima	23.5
120396	7	Sololá	713	San Lucas Tolimán	10	San Lucas Tolimán	4	Abril	2023-04-26T00:00:00	2024-11-08T11:00:00	5	Humedad	55
120397	7	Sololá	713	San Lucas Tolimán	10	San Lucas Tolimán	4	Abril	2023-04-26T00:00:00	2024-11-08T11:00:00	6	Velocidad del viento	8
120398	7	Sololá	713	San Lucas Tolimán	10	San Lucas Tolimán	4	Abril	2023-04-26T00:00:00	2024-11-08T11:00:00	7	Dirección del viento	8.05
120399	7	Sololá	713	San Lucas Tolimán	10	San Lucas Tolimán	4	Abril	2023-04-26T00:00:00	2024-11-08T11:00:00	1	Precipitación	0
120400	7	Sololá	713	San Lucas Tolimán	10	San Lucas Tolimán	4	Abril	2023-04-26T00:00:00	2024-11-08T11:00:00	8	Radiación solar	958
120401	7	Sololá	713	San Lucas Tolimán	10	San Lucas Tolimán	4	Abril	2023-04-26T00:00:00	2024-11-08T12:00:00	2	Temperatura media	23.1
120402	7	Sololá	713	San Lucas Tolimán	10	San Lucas Tolimán	4	Abril	2023-04-26T00:00:00	2024-11-08T12:00:00	4	Temperatura máxima	24.2
120403	7	Sololá	713	San Lucas Tolimán	10	San Lucas Tolimán	4	Abril	2023-04-26T00:00:00	2024-11-08T12:00:00	3	Temperatura mínima	23.1
120404	7	Sololá	713	San Lucas Tolimán	10	San Lucas Tolimán	4	Abril	2023-04-26T00:00:00	2024-11-08T12:00:00	5	Humedad	60
120405	7	Sololá	713	San Lucas Tolimán	10	San Lucas Tolimán	4	Abril	2023-04-26T00:00:00	2024-11-08T12:00:00	6	Velocidad del viento	11.3
120406	7	Sololá	713	San Lucas Tolimán	10	San Lucas Tolimán	4	Abril	2023-04-26T00:00:00	2024-11-08T12:00:00	7	Dirección del viento	11.27
120407	7	Sololá	713	San Lucas Tolimán	10	San Lucas Tolimán	4	Abril	2023-04-26T00:00:00	2024-11-08T12:00:00	1	Precipitación	0
120408	7	Sololá	713	San Lucas Tolimán	10	San Lucas Tolimán	4	Abril	2023-04-26T00:00:00	2024-11-08T12:00:00	8	Radiación solar	1052
120409	7	Sololá	713	San Lucas Tolimán	10	San Lucas Tolimán	4	Abril	2023-04-26T00:00:00	2024-11-08T13:00:00	2	Temperatura media	23.3
120410	7	Sololá	713	San Lucas Tolimán	10	San Lucas Tolimán	4	Abril	2023-04-26T00:00:00	2024-11-08T13:00:00	4	Temperatura máxima	23.8
120411	7	Sololá	713	San Lucas Tolimán	10	San Lucas Tolimán	4	Abril	2023-04-26T00:00:00	2024-11-08T13:00:00	3	Temperatura mínima	22.5
120412	7	Sololá	713	San Lucas Tolimán	10	San Lucas Tolimán	4	Abril	2023-04-26T00:00:00	2024-11-08T13:00:00	5	Humedad	59
120413	7	Sololá	713	San Lucas Tolimán	10	San Lucas Tolimán	4	Abril	2023-04-26T00:00:00	2024-11-08T13:00:00	6	Velocidad del viento	9.7
120414	7	Sololá	713	San Lucas Tolimán	10	San Lucas Tolimán	4	Abril	2023-04-26T00:00:00	2024-11-08T13:00:00	7	Dirección del viento	9.66
120415	7	Sololá	713	San Lucas Tolimán	10	San Lucas Tolimán	4	Abril	2023-04-26T00:00:00	2024-11-08T13:00:00	1	Precipitación	0
120416	7	Sololá	713	San Lucas Tolimán	10	San Lucas Tolimán	4	Abril	2023-04-26T00:00:00	2024-11-08T13:00:00	8	Radiación solar	959
120417	7	Sololá	713	San Lucas Tolimán	10	San Lucas Tolimán	4	Abril	2023-04-26T00:00:00	2024-11-08T14:00:00	2	Temperatura media	21.4
120418	7	Sololá	713	San Lucas Tolimán	10	San Lucas Tolimán	4	Abril	2023-04-26T00:00:00	2024-11-08T14:00:00	4	Temperatura máxima	23.3
120419	7	Sololá	713	San Lucas Tolimán	10	San Lucas Tolimán	4	Abril	2023-04-26T00:00:00	2024-11-08T14:00:00	3	Temperatura mínima	21.4
120420	7	Sololá	713	San Lucas Tolimán	10	San Lucas Tolimán	4	Abril	2023-04-26T00:00:00	2024-11-08T14:00:00	5	Humedad	62
120421	7	Sololá	713	San Lucas Tolimán	10	San Lucas Tolimán	4	Abril	2023-04-26T00:00:00	2024-11-08T14:00:00	6	Velocidad del viento	9.7
120422	7	Sololá	713	San Lucas Tolimán	10	San Lucas Tolimán	4	Abril	2023-04-26T00:00:00	2024-11-08T14:00:00	7	Dirección del viento	9.66
120423	7	Sololá	713	San Lucas Tolimán	10	San Lucas Tolimán	4	Abril	2023-04-26T00:00:00	2024-11-08T14:00:00	1	Precipitación	0
120424	7	Sololá	713	San Lucas Tolimán	10	San Lucas Tolimán	4	Abril	2023-04-26T00:00:00	2024-11-08T14:00:00	8	Radiación solar	437
120425	7	Sololá	713	San Lucas Tolimán	10	San Lucas Tolimán	4	Abril	2023-04-26T00:00:00	2024-11-08T15:00:00	2	Temperatura media	19.8
120426	7	Sololá	713	San Lucas Tolimán	10	San Lucas Tolimán	4	Abril	2023-04-26T00:00:00	2024-11-08T15:00:00	4	Temperatura máxima	21.4
120427	7	Sololá	713	San Lucas Tolimán	10	San Lucas Tolimán	4	Abril	2023-04-26T00:00:00	2024-11-08T15:00:00	3	Temperatura mínima	19.8
120428	7	Sololá	713	San Lucas Tolimán	10	San Lucas Tolimán	4	Abril	2023-04-26T00:00:00	2024-11-08T15:00:00	5	Humedad	60
120429	7	Sololá	713	San Lucas Tolimán	10	San Lucas Tolimán	4	Abril	2023-04-26T00:00:00	2024-11-08T15:00:00	6	Velocidad del viento	8
120430	7	Sololá	713	San Lucas Tolimán	10	San Lucas Tolimán	4	Abril	2023-04-26T00:00:00	2024-11-08T15:00:00	7	Dirección del viento	8.05
120431	7	Sololá	713	San Lucas Tolimán	10	San Lucas Tolimán	4	Abril	2023-04-26T00:00:00	2024-11-08T15:00:00	1	Precipitación	0
120432	7	Sololá	713	San Lucas Tolimán	10	San Lucas Tolimán	4	Abril	2023-04-26T00:00:00	2024-11-08T15:00:00	8	Radiación solar	128
120433	7	Sololá	713	San Lucas Tolimán	10	San Lucas Tolimán	4	Abril	2023-04-26T00:00:00	2024-11-08T16:00:00	2	Temperatura media	21.9
120434	7	Sololá	713	San Lucas Tolimán	10	San Lucas Tolimán	4	Abril	2023-04-26T00:00:00	2024-11-08T16:00:00	4	Temperatura máxima	22.3
120435	7	Sololá	713	San Lucas Tolimán	10	San Lucas Tolimán	4	Abril	2023-04-26T00:00:00	2024-11-08T16:00:00	3	Temperatura mínima	19.7
120436	7	Sololá	713	San Lucas Tolimán	10	San Lucas Tolimán	4	Abril	2023-04-26T00:00:00	2024-11-08T16:00:00	5	Humedad	57
120437	7	Sololá	713	San Lucas Tolimán	10	San Lucas Tolimán	4	Abril	2023-04-26T00:00:00	2024-11-08T16:00:00	6	Velocidad del viento	6.4
120438	7	Sololá	713	San Lucas Tolimán	10	San Lucas Tolimán	4	Abril	2023-04-26T00:00:00	2024-11-08T16:00:00	7	Dirección del viento	6.44
120439	7	Sololá	713	San Lucas Tolimán	10	San Lucas Tolimán	4	Abril	2023-04-26T00:00:00	2024-11-08T16:00:00	1	Precipitación	0
120440	7	Sololá	713	San Lucas Tolimán	10	San Lucas Tolimán	4	Abril	2023-04-26T00:00:00	2024-11-08T16:00:00	8	Radiación solar	367
120441	7	Sololá	713	San Lucas Tolimán	10	San Lucas Tolimán	4	Abril	2023-04-26T00:00:00	2024-11-08T17:00:00	2	Temperatura media	21.1
120442	7	Sololá	713	San Lucas Tolimán	10	San Lucas Tolimán	4	Abril	2023-04-26T00:00:00	2024-11-08T17:00:00	4	Temperatura máxima	21.9
120443	7	Sololá	713	San Lucas Tolimán	10	San Lucas Tolimán	4	Abril	2023-04-26T00:00:00	2024-11-08T17:00:00	3	Temperatura mínima	20.8
120444	7	Sololá	713	San Lucas Tolimán	10	San Lucas Tolimán	4	Abril	2023-04-26T00:00:00	2024-11-08T17:00:00	5	Humedad	59
120445	7	Sololá	713	San Lucas Tolimán	10	San Lucas Tolimán	4	Abril	2023-04-26T00:00:00	2024-11-08T17:00:00	6	Velocidad del viento	6.4
120446	7	Sololá	713	San Lucas Tolimán	10	San Lucas Tolimán	4	Abril	2023-04-26T00:00:00	2024-11-08T17:00:00	7	Dirección del viento	6.44
120447	7	Sololá	713	San Lucas Tolimán	10	San Lucas Tolimán	4	Abril	2023-04-26T00:00:00	2024-11-08T17:00:00	1	Precipitación	0
120448	7	Sololá	713	San Lucas Tolimán	10	San Lucas Tolimán	4	Abril	2023-04-26T00:00:00	2024-11-08T17:00:00	8	Radiación solar	170
120449	7	Sololá	713	San Lucas Tolimán	10	San Lucas Tolimán	4	Abril	2023-04-26T00:00:00	2024-11-08T18:00:00	2	Temperatura media	19.8
120450	7	Sololá	713	San Lucas Tolimán	10	San Lucas Tolimán	4	Abril	2023-04-26T00:00:00	2024-11-08T18:00:00	4	Temperatura máxima	21.2
120451	7	Sololá	713	San Lucas Tolimán	10	San Lucas Tolimán	4	Abril	2023-04-26T00:00:00	2024-11-08T18:00:00	3	Temperatura mínima	19.8
120452	7	Sololá	713	San Lucas Tolimán	10	San Lucas Tolimán	4	Abril	2023-04-26T00:00:00	2024-11-08T18:00:00	5	Humedad	62
120453	7	Sololá	713	San Lucas Tolimán	10	San Lucas Tolimán	4	Abril	2023-04-26T00:00:00	2024-11-08T18:00:00	6	Velocidad del viento	4.8
120454	7	Sololá	713	San Lucas Tolimán	10	San Lucas Tolimán	4	Abril	2023-04-26T00:00:00	2024-11-08T18:00:00	7	Dirección del viento	4.83
120455	7	Sololá	713	San Lucas Tolimán	10	San Lucas Tolimán	4	Abril	2023-04-26T00:00:00	2024-11-08T18:00:00	1	Precipitación	0
120456	7	Sololá	713	San Lucas Tolimán	10	San Lucas Tolimán	4	Abril	2023-04-26T00:00:00	2024-11-08T18:00:00	8	Radiación solar	62
120457	7	Sololá	713	San Lucas Tolimán	10	San Lucas Tolimán	4	Abril	2023-04-26T00:00:00	2024-11-08T19:00:00	2	Temperatura media	18.7
120458	7	Sololá	713	San Lucas Tolimán	10	San Lucas Tolimán	4	Abril	2023-04-26T00:00:00	2024-11-08T19:00:00	4	Temperatura máxima	19.8
120459	7	Sololá	713	San Lucas Tolimán	10	San Lucas Tolimán	4	Abril	2023-04-26T00:00:00	2024-11-08T19:00:00	3	Temperatura mínima	18.7
120460	7	Sololá	713	San Lucas Tolimán	10	San Lucas Tolimán	4	Abril	2023-04-26T00:00:00	2024-11-08T19:00:00	5	Humedad	61
120461	7	Sololá	713	San Lucas Tolimán	10	San Lucas Tolimán	4	Abril	2023-04-26T00:00:00	2024-11-08T19:00:00	6	Velocidad del viento	3.2
120462	7	Sololá	713	San Lucas Tolimán	10	San Lucas Tolimán	4	Abril	2023-04-26T00:00:00	2024-11-08T19:00:00	7	Dirección del viento	3.22
120463	7	Sololá	713	San Lucas Tolimán	10	San Lucas Tolimán	4	Abril	2023-04-26T00:00:00	2024-11-08T19:00:00	1	Precipitación	0
120464	7	Sololá	713	San Lucas Tolimán	10	San Lucas Tolimán	4	Abril	2023-04-26T00:00:00	2024-11-08T19:00:00	8	Radiación solar	0
120465	7	Sololá	713	San Lucas Tolimán	10	San Lucas Tolimán	4	Abril	2023-04-26T00:00:00	2024-11-08T20:00:00	2	Temperatura media	18.2
120466	7	Sololá	713	San Lucas Tolimán	10	San Lucas Tolimán	4	Abril	2023-04-26T00:00:00	2024-11-08T20:00:00	4	Temperatura máxima	18.7
120467	7	Sololá	713	San Lucas Tolimán	10	San Lucas Tolimán	4	Abril	2023-04-26T00:00:00	2024-11-08T20:00:00	3	Temperatura mínima	18.2
120468	7	Sololá	713	San Lucas Tolimán	10	San Lucas Tolimán	4	Abril	2023-04-26T00:00:00	2024-11-08T20:00:00	5	Humedad	61
120469	7	Sololá	713	San Lucas Tolimán	10	San Lucas Tolimán	4	Abril	2023-04-26T00:00:00	2024-11-08T20:00:00	6	Velocidad del viento	3.2
120470	7	Sololá	713	San Lucas Tolimán	10	San Lucas Tolimán	4	Abril	2023-04-26T00:00:00	2024-11-08T20:00:00	7	Dirección del viento	3.22
120471	7	Sololá	713	San Lucas Tolimán	10	San Lucas Tolimán	4	Abril	2023-04-26T00:00:00	2024-11-08T20:00:00	1	Precipitación	0
120472	7	Sololá	713	San Lucas Tolimán	10	San Lucas Tolimán	4	Abril	2023-04-26T00:00:00	2024-11-08T20:00:00	8	Radiación solar	0
120473	7	Sololá	713	San Lucas Tolimán	10	San Lucas Tolimán	4	Abril	2023-04-26T00:00:00	2024-11-08T21:00:00	2	Temperatura media	18.2
120474	7	Sololá	713	San Lucas Tolimán	10	San Lucas Tolimán	4	Abril	2023-04-26T00:00:00	2024-11-08T21:00:00	4	Temperatura máxima	18.2
120475	7	Sololá	713	San Lucas Tolimán	10	San Lucas Tolimán	4	Abril	2023-04-26T00:00:00	2024-11-08T21:00:00	3	Temperatura mínima	17.8
120476	7	Sololá	713	San Lucas Tolimán	10	San Lucas Tolimán	4	Abril	2023-04-26T00:00:00	2024-11-08T21:00:00	5	Humedad	59
120477	7	Sololá	713	San Lucas Tolimán	10	San Lucas Tolimán	4	Abril	2023-04-26T00:00:00	2024-11-08T21:00:00	6	Velocidad del viento	1.6
120478	7	Sololá	713	San Lucas Tolimán	10	San Lucas Tolimán	4	Abril	2023-04-26T00:00:00	2024-11-08T21:00:00	7	Dirección del viento	1.61
120479	7	Sololá	713	San Lucas Tolimán	10	San Lucas Tolimán	4	Abril	2023-04-26T00:00:00	2024-11-08T21:00:00	1	Precipitación	0
120480	7	Sololá	713	San Lucas Tolimán	10	San Lucas Tolimán	4	Abril	2023-04-26T00:00:00	2024-11-08T21:00:00	8	Radiación solar	0
120481	7	Sololá	713	San Lucas Tolimán	10	San Lucas Tolimán	4	Abril	2023-04-26T00:00:00	2024-11-08T22:00:00	2	Temperatura media	17.8
120482	7	Sololá	713	San Lucas Tolimán	10	San Lucas Tolimán	4	Abril	2023-04-26T00:00:00	2024-11-08T22:00:00	4	Temperatura máxima	18.4
120483	7	Sololá	713	San Lucas Tolimán	10	San Lucas Tolimán	4	Abril	2023-04-26T00:00:00	2024-11-08T22:00:00	3	Temperatura mínima	17.8
120484	7	Sololá	713	San Lucas Tolimán	10	San Lucas Tolimán	4	Abril	2023-04-26T00:00:00	2024-11-08T22:00:00	5	Humedad	60
120485	7	Sololá	713	San Lucas Tolimán	10	San Lucas Tolimán	4	Abril	2023-04-26T00:00:00	2024-11-08T22:00:00	6	Velocidad del viento	1.6
120486	7	Sololá	713	San Lucas Tolimán	10	San Lucas Tolimán	4	Abril	2023-04-26T00:00:00	2024-11-08T22:00:00	7	Dirección del viento	1.61
120487	7	Sololá	713	San Lucas Tolimán	10	San Lucas Tolimán	4	Abril	2023-04-26T00:00:00	2024-11-08T22:00:00	1	Precipitación	0
120488	7	Sololá	713	San Lucas Tolimán	10	San Lucas Tolimán	4	Abril	2023-04-26T00:00:00	2024-11-08T22:00:00	8	Radiación solar	0
120489	7	Sololá	713	San Lucas Tolimán	10	San Lucas Tolimán	4	Abril	2023-04-26T00:00:00	2024-11-08T23:00:00	2	Temperatura media	16.9
120490	7	Sololá	713	San Lucas Tolimán	10	San Lucas Tolimán	4	Abril	2023-04-26T00:00:00	2024-11-08T23:00:00	4	Temperatura máxima	17.8
120491	7	Sololá	713	San Lucas Tolimán	10	San Lucas Tolimán	4	Abril	2023-04-26T00:00:00	2024-11-08T23:00:00	3	Temperatura mínima	16.8
120492	7	Sololá	713	San Lucas Tolimán	10	San Lucas Tolimán	4	Abril	2023-04-26T00:00:00	2024-11-08T23:00:00	5	Humedad	62
120493	7	Sololá	713	San Lucas Tolimán	10	San Lucas Tolimán	4	Abril	2023-04-26T00:00:00	2024-11-08T23:00:00	6	Velocidad del viento	3.2
120494	7	Sololá	713	San Lucas Tolimán	10	San Lucas Tolimán	4	Abril	2023-04-26T00:00:00	2024-11-08T23:00:00	7	Dirección del viento	3.22
120495	7	Sololá	713	San Lucas Tolimán	10	San Lucas Tolimán	4	Abril	2023-04-26T00:00:00	2024-11-08T23:00:00	1	Precipitación	0
120496	7	Sololá	713	San Lucas Tolimán	10	San Lucas Tolimán	4	Abril	2023-04-26T00:00:00	2024-11-08T23:00:00	8	Radiación solar	0
120497	7	Sololá	713	San Lucas Tolimán	10	San Lucas Tolimán	4	Abril	2023-04-27T00:00:00	2024-11-08T00:00:00	2	Temperatura media	17.1
120498	7	Sololá	713	San Lucas Tolimán	10	San Lucas Tolimán	4	Abril	2023-04-27T00:00:00	2024-11-08T00:00:00	4	Temperatura máxima	17.1
120499	7	Sololá	713	San Lucas Tolimán	10	San Lucas Tolimán	4	Abril	2023-04-27T00:00:00	2024-11-08T00:00:00	3	Temperatura mínima	16.7
120500	7	Sololá	713	San Lucas Tolimán	10	San Lucas Tolimán	4	Abril	2023-04-27T00:00:00	2024-11-08T00:00:00	5	Humedad	61
120501	7	Sololá	713	San Lucas Tolimán	10	San Lucas Tolimán	4	Abril	2023-04-27T00:00:00	2024-11-08T00:00:00	6	Velocidad del viento	1.6
120502	7	Sololá	713	San Lucas Tolimán	10	San Lucas Tolimán	4	Abril	2023-04-27T00:00:00	2024-11-08T00:00:00	7	Dirección del viento	1.61
120503	7	Sololá	713	San Lucas Tolimán	10	San Lucas Tolimán	4	Abril	2023-04-27T00:00:00	2024-11-08T00:00:00	1	Precipitación	0
120504	7	Sololá	713	San Lucas Tolimán	10	San Lucas Tolimán	4	Abril	2023-04-27T00:00:00	2024-11-08T00:00:00	8	Radiación solar	0
120505	7	Sololá	713	San Lucas Tolimán	10	San Lucas Tolimán	4	Abril	2023-04-27T00:00:00	2024-11-08T01:00:00	2	Temperatura media	16.9
120506	7	Sololá	713	San Lucas Tolimán	10	San Lucas Tolimán	4	Abril	2023-04-27T00:00:00	2024-11-08T01:00:00	4	Temperatura máxima	17.4
120507	7	Sololá	713	San Lucas Tolimán	10	San Lucas Tolimán	4	Abril	2023-04-27T00:00:00	2024-11-08T01:00:00	3	Temperatura mínima	16.9
120508	7	Sololá	713	San Lucas Tolimán	10	San Lucas Tolimán	4	Abril	2023-04-27T00:00:00	2024-11-08T01:00:00	5	Humedad	61
120509	7	Sololá	713	San Lucas Tolimán	10	San Lucas Tolimán	4	Abril	2023-04-27T00:00:00	2024-11-08T01:00:00	6	Velocidad del viento	1.6
120510	7	Sololá	713	San Lucas Tolimán	10	San Lucas Tolimán	4	Abril	2023-04-27T00:00:00	2024-11-08T01:00:00	7	Dirección del viento	1.61
120511	7	Sololá	713	San Lucas Tolimán	10	San Lucas Tolimán	4	Abril	2023-04-27T00:00:00	2024-11-08T01:00:00	1	Precipitación	0
120512	7	Sololá	713	San Lucas Tolimán	10	San Lucas Tolimán	4	Abril	2023-04-27T00:00:00	2024-11-08T01:00:00	8	Radiación solar	0
120513	7	Sololá	713	San Lucas Tolimán	10	San Lucas Tolimán	4	Abril	2023-04-27T00:00:00	2024-11-08T02:00:00	2	Temperatura media	17.4
120514	7	Sololá	713	San Lucas Tolimán	10	San Lucas Tolimán	4	Abril	2023-04-27T00:00:00	2024-11-08T02:00:00	4	Temperatura máxima	17.4
120515	7	Sololá	713	San Lucas Tolimán	10	San Lucas Tolimán	4	Abril	2023-04-27T00:00:00	2024-11-08T02:00:00	3	Temperatura mínima	16.7
120516	7	Sololá	713	San Lucas Tolimán	10	San Lucas Tolimán	4	Abril	2023-04-27T00:00:00	2024-11-08T02:00:00	5	Humedad	60
120517	7	Sololá	713	San Lucas Tolimán	10	San Lucas Tolimán	4	Abril	2023-04-27T00:00:00	2024-11-08T02:00:00	6	Velocidad del viento	0
120518	7	Sololá	713	San Lucas Tolimán	10	San Lucas Tolimán	4	Abril	2023-04-27T00:00:00	2024-11-08T02:00:00	7	Dirección del viento	0
120519	7	Sololá	713	San Lucas Tolimán	10	San Lucas Tolimán	4	Abril	2023-04-27T00:00:00	2024-11-08T02:00:00	1	Precipitación	0
120520	7	Sololá	713	San Lucas Tolimán	10	San Lucas Tolimán	4	Abril	2023-04-27T00:00:00	2024-11-08T02:00:00	8	Radiación solar	0
120521	7	Sololá	713	San Lucas Tolimán	10	San Lucas Tolimán	4	Abril	2023-04-27T00:00:00	2024-11-08T03:00:00	2	Temperatura media	17.2
120522	7	Sololá	713	San Lucas Tolimán	10	San Lucas Tolimán	4	Abril	2023-04-27T00:00:00	2024-11-08T03:00:00	4	Temperatura máxima	17.7
120523	7	Sololá	713	San Lucas Tolimán	10	San Lucas Tolimán	4	Abril	2023-04-27T00:00:00	2024-11-08T03:00:00	3	Temperatura mínima	17.2
120524	7	Sololá	713	San Lucas Tolimán	10	San Lucas Tolimán	4	Abril	2023-04-27T00:00:00	2024-11-08T03:00:00	5	Humedad	60
120525	7	Sololá	713	San Lucas Tolimán	10	San Lucas Tolimán	4	Abril	2023-04-27T00:00:00	2024-11-08T03:00:00	6	Velocidad del viento	1.6
120526	7	Sololá	713	San Lucas Tolimán	10	San Lucas Tolimán	4	Abril	2023-04-27T00:00:00	2024-11-08T03:00:00	7	Dirección del viento	1.61
120527	7	Sololá	713	San Lucas Tolimán	10	San Lucas Tolimán	4	Abril	2023-04-27T00:00:00	2024-11-08T03:00:00	1	Precipitación	0
120528	7	Sololá	713	San Lucas Tolimán	10	San Lucas Tolimán	4	Abril	2023-04-27T00:00:00	2024-11-08T03:00:00	8	Radiación solar	0
120529	7	Sololá	713	San Lucas Tolimán	10	San Lucas Tolimán	4	Abril	2023-04-27T00:00:00	2024-11-08T04:00:00	2	Temperatura media	16.4
120530	7	Sololá	713	San Lucas Tolimán	10	San Lucas Tolimán	4	Abril	2023-04-27T00:00:00	2024-11-08T04:00:00	4	Temperatura máxima	17.2
120531	7	Sololá	713	San Lucas Tolimán	10	San Lucas Tolimán	4	Abril	2023-04-27T00:00:00	2024-11-08T04:00:00	3	Temperatura mínima	16.4
120532	7	Sololá	713	San Lucas Tolimán	10	San Lucas Tolimán	4	Abril	2023-04-27T00:00:00	2024-11-08T04:00:00	5	Humedad	60
120533	7	Sololá	713	San Lucas Tolimán	10	San Lucas Tolimán	4	Abril	2023-04-27T00:00:00	2024-11-08T04:00:00	6	Velocidad del viento	0
120534	7	Sololá	713	San Lucas Tolimán	10	San Lucas Tolimán	4	Abril	2023-04-27T00:00:00	2024-11-08T04:00:00	7	Dirección del viento	0
120535	7	Sololá	713	San Lucas Tolimán	10	San Lucas Tolimán	4	Abril	2023-04-27T00:00:00	2024-11-08T04:00:00	1	Precipitación	0
120536	7	Sololá	713	San Lucas Tolimán	10	San Lucas Tolimán	4	Abril	2023-04-27T00:00:00	2024-11-08T04:00:00	8	Radiación solar	0
120537	7	Sololá	713	San Lucas Tolimán	10	San Lucas Tolimán	4	Abril	2023-04-27T00:00:00	2024-11-08T05:00:00	2	Temperatura media	16.1
120538	7	Sololá	713	San Lucas Tolimán	10	San Lucas Tolimán	4	Abril	2023-04-27T00:00:00	2024-11-08T05:00:00	4	Temperatura máxima	16.5
120539	7	Sololá	713	San Lucas Tolimán	10	San Lucas Tolimán	4	Abril	2023-04-27T00:00:00	2024-11-08T05:00:00	3	Temperatura mínima	16.1
120540	7	Sololá	713	San Lucas Tolimán	10	San Lucas Tolimán	4	Abril	2023-04-27T00:00:00	2024-11-08T05:00:00	5	Humedad	61
120541	7	Sololá	713	San Lucas Tolimán	10	San Lucas Tolimán	4	Abril	2023-04-27T00:00:00	2024-11-08T05:00:00	6	Velocidad del viento	0
120542	7	Sololá	713	San Lucas Tolimán	10	San Lucas Tolimán	4	Abril	2023-04-27T00:00:00	2024-11-08T05:00:00	7	Dirección del viento	0
120543	7	Sololá	713	San Lucas Tolimán	10	San Lucas Tolimán	4	Abril	2023-04-27T00:00:00	2024-11-08T05:00:00	1	Precipitación	0
120544	7	Sololá	713	San Lucas Tolimán	10	San Lucas Tolimán	4	Abril	2023-04-27T00:00:00	2024-11-08T05:00:00	8	Radiación solar	0
120545	7	Sololá	713	San Lucas Tolimán	10	San Lucas Tolimán	4	Abril	2023-04-27T00:00:00	2024-11-08T06:00:00	2	Temperatura media	15.3
120546	7	Sololá	713	San Lucas Tolimán	10	San Lucas Tolimán	4	Abril	2023-04-27T00:00:00	2024-11-08T06:00:00	4	Temperatura máxima	16.1
120547	7	Sololá	713	San Lucas Tolimán	10	San Lucas Tolimán	4	Abril	2023-04-27T00:00:00	2024-11-08T06:00:00	3	Temperatura mínima	15.2
120548	7	Sololá	713	San Lucas Tolimán	10	San Lucas Tolimán	4	Abril	2023-04-27T00:00:00	2024-11-08T06:00:00	5	Humedad	63
120549	7	Sololá	713	San Lucas Tolimán	10	San Lucas Tolimán	4	Abril	2023-04-27T00:00:00	2024-11-08T06:00:00	6	Velocidad del viento	1.6
120550	7	Sololá	713	San Lucas Tolimán	10	San Lucas Tolimán	4	Abril	2023-04-27T00:00:00	2024-11-08T06:00:00	7	Dirección del viento	1.61
120551	7	Sololá	713	San Lucas Tolimán	10	San Lucas Tolimán	4	Abril	2023-04-27T00:00:00	2024-11-08T06:00:00	1	Precipitación	0
120552	7	Sololá	713	San Lucas Tolimán	10	San Lucas Tolimán	4	Abril	2023-04-27T00:00:00	2024-11-08T06:00:00	8	Radiación solar	1
120553	7	Sololá	713	San Lucas Tolimán	10	San Lucas Tolimán	4	Abril	2023-04-27T00:00:00	2024-11-08T07:00:00	2	Temperatura media	16.9
120554	7	Sololá	713	San Lucas Tolimán	10	San Lucas Tolimán	4	Abril	2023-04-27T00:00:00	2024-11-08T07:00:00	4	Temperatura máxima	16.9
120555	7	Sololá	713	San Lucas Tolimán	10	San Lucas Tolimán	4	Abril	2023-04-27T00:00:00	2024-11-08T07:00:00	3	Temperatura mínima	15.3
120556	7	Sololá	713	San Lucas Tolimán	10	San Lucas Tolimán	4	Abril	2023-04-27T00:00:00	2024-11-08T07:00:00	5	Humedad	60
120557	7	Sololá	713	San Lucas Tolimán	10	San Lucas Tolimán	4	Abril	2023-04-27T00:00:00	2024-11-08T07:00:00	6	Velocidad del viento	0
120558	7	Sololá	713	San Lucas Tolimán	10	San Lucas Tolimán	4	Abril	2023-04-27T00:00:00	2024-11-08T07:00:00	7	Dirección del viento	0
120559	7	Sololá	713	San Lucas Tolimán	10	San Lucas Tolimán	4	Abril	2023-04-27T00:00:00	2024-11-08T07:00:00	1	Precipitación	0
120560	7	Sololá	713	San Lucas Tolimán	10	San Lucas Tolimán	4	Abril	2023-04-27T00:00:00	2024-11-08T07:00:00	8	Radiación solar	69
120561	7	Sololá	713	San Lucas Tolimán	10	San Lucas Tolimán	4	Abril	2023-04-27T00:00:00	2024-11-08T08:00:00	2	Temperatura media	19.7
120562	7	Sololá	713	San Lucas Tolimán	10	San Lucas Tolimán	4	Abril	2023-04-27T00:00:00	2024-11-08T08:00:00	4	Temperatura máxima	19.7
120563	7	Sololá	713	San Lucas Tolimán	10	San Lucas Tolimán	4	Abril	2023-04-27T00:00:00	2024-11-08T08:00:00	3	Temperatura mínima	16.9
120564	7	Sololá	713	San Lucas Tolimán	10	San Lucas Tolimán	4	Abril	2023-04-27T00:00:00	2024-11-08T08:00:00	5	Humedad	57
120565	7	Sololá	713	San Lucas Tolimán	10	San Lucas Tolimán	4	Abril	2023-04-27T00:00:00	2024-11-08T08:00:00	6	Velocidad del viento	3.2
120566	7	Sololá	713	San Lucas Tolimán	10	San Lucas Tolimán	4	Abril	2023-04-27T00:00:00	2024-11-08T08:00:00	7	Dirección del viento	3.22
120567	7	Sololá	713	San Lucas Tolimán	10	San Lucas Tolimán	4	Abril	2023-04-27T00:00:00	2024-11-08T08:00:00	1	Precipitación	0
120568	7	Sololá	713	San Lucas Tolimán	10	San Lucas Tolimán	4	Abril	2023-04-27T00:00:00	2024-11-08T08:00:00	8	Radiación solar	264
120569	7	Sololá	713	San Lucas Tolimán	10	San Lucas Tolimán	4	Abril	2023-04-27T00:00:00	2024-11-08T09:00:00	2	Temperatura media	22.3
120570	7	Sololá	713	San Lucas Tolimán	10	San Lucas Tolimán	4	Abril	2023-04-27T00:00:00	2024-11-08T09:00:00	4	Temperatura máxima	22.6
120571	7	Sololá	713	San Lucas Tolimán	10	San Lucas Tolimán	4	Abril	2023-04-27T00:00:00	2024-11-08T09:00:00	3	Temperatura mínima	19.7
120572	7	Sololá	713	San Lucas Tolimán	10	San Lucas Tolimán	4	Abril	2023-04-27T00:00:00	2024-11-08T09:00:00	5	Humedad	56
120573	7	Sololá	713	San Lucas Tolimán	10	San Lucas Tolimán	4	Abril	2023-04-27T00:00:00	2024-11-08T09:00:00	6	Velocidad del viento	3.2
120574	7	Sololá	713	San Lucas Tolimán	10	San Lucas Tolimán	4	Abril	2023-04-27T00:00:00	2024-11-08T09:00:00	7	Dirección del viento	3.22
120575	7	Sololá	713	San Lucas Tolimán	10	San Lucas Tolimán	4	Abril	2023-04-27T00:00:00	2024-11-08T09:00:00	1	Precipitación	0
120576	7	Sololá	713	San Lucas Tolimán	10	San Lucas Tolimán	4	Abril	2023-04-27T00:00:00	2024-11-08T09:00:00	8	Radiación solar	475
120577	7	Sololá	713	San Lucas Tolimán	10	San Lucas Tolimán	4	Abril	2023-04-27T00:00:00	2024-11-08T10:00:00	2	Temperatura media	23.1
120578	7	Sololá	713	San Lucas Tolimán	10	San Lucas Tolimán	4	Abril	2023-04-27T00:00:00	2024-11-08T10:00:00	4	Temperatura máxima	23.2
120579	7	Sololá	713	San Lucas Tolimán	10	San Lucas Tolimán	4	Abril	2023-04-27T00:00:00	2024-11-08T10:00:00	3	Temperatura mínima	22.2
120580	7	Sololá	713	San Lucas Tolimán	10	San Lucas Tolimán	4	Abril	2023-04-27T00:00:00	2024-11-08T10:00:00	5	Humedad	55
120581	7	Sololá	713	San Lucas Tolimán	10	San Lucas Tolimán	4	Abril	2023-04-27T00:00:00	2024-11-08T10:00:00	6	Velocidad del viento	8
120582	7	Sololá	713	San Lucas Tolimán	10	San Lucas Tolimán	4	Abril	2023-04-27T00:00:00	2024-11-08T10:00:00	7	Dirección del viento	8.05
120583	7	Sololá	713	San Lucas Tolimán	10	San Lucas Tolimán	4	Abril	2023-04-27T00:00:00	2024-11-08T10:00:00	1	Precipitación	0
120584	7	Sololá	713	San Lucas Tolimán	10	San Lucas Tolimán	4	Abril	2023-04-27T00:00:00	2024-11-08T10:00:00	8	Radiación solar	654
120585	7	Sololá	713	San Lucas Tolimán	10	San Lucas Tolimán	4	Abril	2023-04-27T00:00:00	2024-11-08T11:00:00	2	Temperatura media	23.4
120586	7	Sololá	713	San Lucas Tolimán	10	San Lucas Tolimán	4	Abril	2023-04-27T00:00:00	2024-11-08T11:00:00	4	Temperatura máxima	23.7
120587	7	Sololá	713	San Lucas Tolimán	10	San Lucas Tolimán	4	Abril	2023-04-27T00:00:00	2024-11-08T11:00:00	3	Temperatura mínima	23.1
120588	7	Sololá	713	San Lucas Tolimán	10	San Lucas Tolimán	4	Abril	2023-04-27T00:00:00	2024-11-08T11:00:00	5	Humedad	57
120589	7	Sololá	713	San Lucas Tolimán	10	San Lucas Tolimán	4	Abril	2023-04-27T00:00:00	2024-11-08T11:00:00	6	Velocidad del viento	9.7
120590	7	Sololá	713	San Lucas Tolimán	10	San Lucas Tolimán	4	Abril	2023-04-27T00:00:00	2024-11-08T11:00:00	7	Dirección del viento	9.66
120591	7	Sololá	713	San Lucas Tolimán	10	San Lucas Tolimán	4	Abril	2023-04-27T00:00:00	2024-11-08T11:00:00	1	Precipitación	0
120592	7	Sololá	713	San Lucas Tolimán	10	San Lucas Tolimán	4	Abril	2023-04-27T00:00:00	2024-11-08T11:00:00	8	Radiación solar	954
120593	7	Sololá	713	San Lucas Tolimán	10	San Lucas Tolimán	4	Abril	2023-04-27T00:00:00	2024-11-08T12:00:00	2	Temperatura media	23.1
120594	7	Sololá	713	San Lucas Tolimán	10	San Lucas Tolimán	4	Abril	2023-04-27T00:00:00	2024-11-08T12:00:00	4	Temperatura máxima	23.8
120595	7	Sololá	713	San Lucas Tolimán	10	San Lucas Tolimán	4	Abril	2023-04-27T00:00:00	2024-11-08T12:00:00	3	Temperatura mínima	22
120596	7	Sololá	713	San Lucas Tolimán	10	San Lucas Tolimán	4	Abril	2023-04-27T00:00:00	2024-11-08T12:00:00	5	Humedad	59
120597	7	Sololá	713	San Lucas Tolimán	10	San Lucas Tolimán	4	Abril	2023-04-27T00:00:00	2024-11-08T12:00:00	6	Velocidad del viento	9.7
120598	7	Sololá	713	San Lucas Tolimán	10	San Lucas Tolimán	4	Abril	2023-04-27T00:00:00	2024-11-08T12:00:00	7	Dirección del viento	9.66
120599	7	Sololá	713	San Lucas Tolimán	10	San Lucas Tolimán	4	Abril	2023-04-27T00:00:00	2024-11-08T12:00:00	1	Precipitación	0
120600	7	Sololá	713	San Lucas Tolimán	10	San Lucas Tolimán	4	Abril	2023-04-27T00:00:00	2024-11-08T12:00:00	8	Radiación solar	862
120601	7	Sololá	713	San Lucas Tolimán	10	San Lucas Tolimán	4	Abril	2023-04-27T00:00:00	2024-11-08T13:00:00	2	Temperatura media	22.8
120602	7	Sololá	713	San Lucas Tolimán	10	San Lucas Tolimán	4	Abril	2023-04-27T00:00:00	2024-11-08T13:00:00	4	Temperatura máxima	23.1
120603	7	Sololá	713	San Lucas Tolimán	10	San Lucas Tolimán	4	Abril	2023-04-27T00:00:00	2024-11-08T13:00:00	3	Temperatura mínima	22.1
120604	7	Sololá	713	San Lucas Tolimán	10	San Lucas Tolimán	4	Abril	2023-04-27T00:00:00	2024-11-08T13:00:00	5	Humedad	61
120605	7	Sololá	713	San Lucas Tolimán	10	San Lucas Tolimán	4	Abril	2023-04-27T00:00:00	2024-11-08T13:00:00	6	Velocidad del viento	11.3
120606	7	Sololá	713	San Lucas Tolimán	10	San Lucas Tolimán	4	Abril	2023-04-27T00:00:00	2024-11-08T13:00:00	7	Dirección del viento	11.27
120607	7	Sololá	713	San Lucas Tolimán	10	San Lucas Tolimán	4	Abril	2023-04-27T00:00:00	2024-11-08T13:00:00	1	Precipitación	0
120608	7	Sololá	713	San Lucas Tolimán	10	San Lucas Tolimán	4	Abril	2023-04-27T00:00:00	2024-11-08T13:00:00	8	Radiación solar	749
120609	7	Sololá	713	San Lucas Tolimán	10	San Lucas Tolimán	4	Abril	2023-04-27T00:00:00	2024-11-08T14:00:00	2	Temperatura media	22.2
120610	7	Sololá	713	San Lucas Tolimán	10	San Lucas Tolimán	4	Abril	2023-04-27T00:00:00	2024-11-08T14:00:00	4	Temperatura máxima	23.3
120611	7	Sololá	713	San Lucas Tolimán	10	San Lucas Tolimán	4	Abril	2023-04-27T00:00:00	2024-11-08T14:00:00	3	Temperatura mínima	22.1
120612	7	Sololá	713	San Lucas Tolimán	10	San Lucas Tolimán	4	Abril	2023-04-27T00:00:00	2024-11-08T14:00:00	5	Humedad	62
120613	7	Sololá	713	San Lucas Tolimán	10	San Lucas Tolimán	4	Abril	2023-04-27T00:00:00	2024-11-08T14:00:00	6	Velocidad del viento	12.9
120614	7	Sololá	713	San Lucas Tolimán	10	San Lucas Tolimán	4	Abril	2023-04-27T00:00:00	2024-11-08T14:00:00	7	Dirección del viento	12.87
120615	7	Sololá	713	San Lucas Tolimán	10	San Lucas Tolimán	4	Abril	2023-04-27T00:00:00	2024-11-08T14:00:00	1	Precipitación	0
120616	7	Sololá	713	San Lucas Tolimán	10	San Lucas Tolimán	4	Abril	2023-04-27T00:00:00	2024-11-08T14:00:00	8	Radiación solar	817
120617	7	Sololá	713	San Lucas Tolimán	10	San Lucas Tolimán	4	Abril	2023-04-27T00:00:00	2024-11-08T15:00:00	2	Temperatura media	22.9
120618	7	Sololá	713	San Lucas Tolimán	10	San Lucas Tolimán	4	Abril	2023-04-27T00:00:00	2024-11-08T15:00:00	4	Temperatura máxima	23.2
120619	7	Sololá	713	San Lucas Tolimán	10	San Lucas Tolimán	4	Abril	2023-04-27T00:00:00	2024-11-08T15:00:00	3	Temperatura mínima	22.1
120620	7	Sololá	713	San Lucas Tolimán	10	San Lucas Tolimán	4	Abril	2023-04-27T00:00:00	2024-11-08T15:00:00	5	Humedad	58
120621	7	Sololá	713	San Lucas Tolimán	10	San Lucas Tolimán	4	Abril	2023-04-27T00:00:00	2024-11-08T15:00:00	6	Velocidad del viento	9.7
120622	7	Sololá	713	San Lucas Tolimán	10	San Lucas Tolimán	4	Abril	2023-04-27T00:00:00	2024-11-08T15:00:00	7	Dirección del viento	9.66
120623	7	Sololá	713	San Lucas Tolimán	10	San Lucas Tolimán	4	Abril	2023-04-27T00:00:00	2024-11-08T15:00:00	1	Precipitación	0
120624	7	Sololá	713	San Lucas Tolimán	10	San Lucas Tolimán	4	Abril	2023-04-27T00:00:00	2024-11-08T15:00:00	8	Radiación solar	654
120625	7	Sololá	713	San Lucas Tolimán	10	San Lucas Tolimán	4	Abril	2023-04-27T00:00:00	2024-11-08T16:00:00	2	Temperatura media	21.4
120626	7	Sololá	713	San Lucas Tolimán	10	San Lucas Tolimán	4	Abril	2023-04-27T00:00:00	2024-11-08T16:00:00	4	Temperatura máxima	22.9
120627	7	Sololá	713	San Lucas Tolimán	10	San Lucas Tolimán	4	Abril	2023-04-27T00:00:00	2024-11-08T16:00:00	3	Temperatura mínima	21.4
120628	7	Sololá	713	San Lucas Tolimán	10	San Lucas Tolimán	4	Abril	2023-04-27T00:00:00	2024-11-08T16:00:00	5	Humedad	63
120629	7	Sololá	713	San Lucas Tolimán	10	San Lucas Tolimán	4	Abril	2023-04-27T00:00:00	2024-11-08T16:00:00	6	Velocidad del viento	9.7
120630	7	Sololá	713	San Lucas Tolimán	10	San Lucas Tolimán	4	Abril	2023-04-27T00:00:00	2024-11-08T16:00:00	7	Dirección del viento	9.66
120631	7	Sololá	713	San Lucas Tolimán	10	San Lucas Tolimán	4	Abril	2023-04-27T00:00:00	2024-11-08T16:00:00	1	Precipitación	0
120632	7	Sololá	713	San Lucas Tolimán	10	San Lucas Tolimán	4	Abril	2023-04-27T00:00:00	2024-11-08T16:00:00	8	Radiación solar	399
120633	7	Sololá	713	San Lucas Tolimán	10	San Lucas Tolimán	4	Abril	2023-04-27T00:00:00	2024-11-08T17:00:00	2	Temperatura media	18.8
120634	7	Sololá	713	San Lucas Tolimán	10	San Lucas Tolimán	4	Abril	2023-04-27T00:00:00	2024-11-08T17:00:00	4	Temperatura máxima	21.4
120635	7	Sololá	713	San Lucas Tolimán	10	San Lucas Tolimán	4	Abril	2023-04-27T00:00:00	2024-11-08T17:00:00	3	Temperatura mínima	18.8
120636	7	Sololá	713	San Lucas Tolimán	10	San Lucas Tolimán	4	Abril	2023-04-27T00:00:00	2024-11-08T17:00:00	5	Humedad	62
120637	7	Sololá	713	San Lucas Tolimán	10	San Lucas Tolimán	4	Abril	2023-04-27T00:00:00	2024-11-08T17:00:00	6	Velocidad del viento	9.7
120638	7	Sololá	713	San Lucas Tolimán	10	San Lucas Tolimán	4	Abril	2023-04-27T00:00:00	2024-11-08T17:00:00	7	Dirección del viento	9.66
120639	7	Sololá	713	San Lucas Tolimán	10	San Lucas Tolimán	4	Abril	2023-04-27T00:00:00	2024-11-08T17:00:00	1	Precipitación	1
120640	7	Sololá	713	San Lucas Tolimán	10	San Lucas Tolimán	4	Abril	2023-04-27T00:00:00	2024-11-08T17:00:00	8	Radiación solar	31
120641	7	Sololá	713	San Lucas Tolimán	10	San Lucas Tolimán	4	Abril	2023-04-27T00:00:00	2024-11-08T18:00:00	2	Temperatura media	18.8
120642	7	Sololá	713	San Lucas Tolimán	10	San Lucas Tolimán	4	Abril	2023-04-27T00:00:00	2024-11-08T18:00:00	4	Temperatura máxima	18.8
120643	7	Sololá	713	San Lucas Tolimán	10	San Lucas Tolimán	4	Abril	2023-04-27T00:00:00	2024-11-08T18:00:00	3	Temperatura mínima	18.7
120644	7	Sololá	713	San Lucas Tolimán	10	San Lucas Tolimán	4	Abril	2023-04-27T00:00:00	2024-11-08T18:00:00	5	Humedad	62
120645	7	Sololá	713	San Lucas Tolimán	10	San Lucas Tolimán	4	Abril	2023-04-27T00:00:00	2024-11-08T18:00:00	6	Velocidad del viento	8
120646	7	Sololá	713	San Lucas Tolimán	10	San Lucas Tolimán	4	Abril	2023-04-27T00:00:00	2024-11-08T18:00:00	7	Dirección del viento	8.05
120647	7	Sololá	713	San Lucas Tolimán	10	San Lucas Tolimán	4	Abril	2023-04-27T00:00:00	2024-11-08T18:00:00	1	Precipitación	0.2
120648	7	Sololá	713	San Lucas Tolimán	10	San Lucas Tolimán	4	Abril	2023-04-27T00:00:00	2024-11-08T18:00:00	8	Radiación solar	15
120649	7	Sololá	713	San Lucas Tolimán	10	San Lucas Tolimán	4	Abril	2023-04-27T00:00:00	2024-11-08T19:00:00	2	Temperatura media	18.8
120650	7	Sololá	713	San Lucas Tolimán	10	San Lucas Tolimán	4	Abril	2023-04-27T00:00:00	2024-11-08T19:00:00	4	Temperatura máxima	18.9
120651	7	Sololá	713	San Lucas Tolimán	10	San Lucas Tolimán	4	Abril	2023-04-27T00:00:00	2024-11-08T19:00:00	3	Temperatura mínima	18.7
120652	7	Sololá	713	San Lucas Tolimán	10	San Lucas Tolimán	4	Abril	2023-04-27T00:00:00	2024-11-08T19:00:00	5	Humedad	62
120653	7	Sololá	713	San Lucas Tolimán	10	San Lucas Tolimán	4	Abril	2023-04-27T00:00:00	2024-11-08T19:00:00	6	Velocidad del viento	4.8
120654	7	Sololá	713	San Lucas Tolimán	10	San Lucas Tolimán	4	Abril	2023-04-27T00:00:00	2024-11-08T19:00:00	7	Dirección del viento	4.83
120655	7	Sololá	713	San Lucas Tolimán	10	San Lucas Tolimán	4	Abril	2023-04-27T00:00:00	2024-11-08T19:00:00	1	Precipitación	0
120656	7	Sololá	713	San Lucas Tolimán	10	San Lucas Tolimán	4	Abril	2023-04-27T00:00:00	2024-11-08T19:00:00	8	Radiación solar	0
120657	7	Sololá	713	San Lucas Tolimán	10	San Lucas Tolimán	4	Abril	2023-04-27T00:00:00	2024-11-08T20:00:00	2	Temperatura media	18.4
120658	7	Sololá	713	San Lucas Tolimán	10	San Lucas Tolimán	4	Abril	2023-04-27T00:00:00	2024-11-08T20:00:00	4	Temperatura máxima	18.8
120659	7	Sololá	713	San Lucas Tolimán	10	San Lucas Tolimán	4	Abril	2023-04-27T00:00:00	2024-11-08T20:00:00	3	Temperatura mínima	18.4
120660	7	Sololá	713	San Lucas Tolimán	10	San Lucas Tolimán	4	Abril	2023-04-27T00:00:00	2024-11-08T20:00:00	5	Humedad	66
120661	7	Sololá	713	San Lucas Tolimán	10	San Lucas Tolimán	4	Abril	2023-04-27T00:00:00	2024-11-08T20:00:00	6	Velocidad del viento	8
120662	7	Sololá	713	San Lucas Tolimán	10	San Lucas Tolimán	4	Abril	2023-04-27T00:00:00	2024-11-08T20:00:00	7	Dirección del viento	8.05
120663	7	Sololá	713	San Lucas Tolimán	10	San Lucas Tolimán	4	Abril	2023-04-27T00:00:00	2024-11-08T20:00:00	1	Precipitación	0
120664	7	Sololá	713	San Lucas Tolimán	10	San Lucas Tolimán	4	Abril	2023-04-27T00:00:00	2024-11-08T20:00:00	8	Radiación solar	0
120665	7	Sololá	713	San Lucas Tolimán	10	San Lucas Tolimán	4	Abril	2023-04-27T00:00:00	2024-11-08T21:00:00	2	Temperatura media	18.3
120666	7	Sololá	713	San Lucas Tolimán	10	San Lucas Tolimán	4	Abril	2023-04-27T00:00:00	2024-11-08T21:00:00	4	Temperatura máxima	18.4
120667	7	Sololá	713	San Lucas Tolimán	10	San Lucas Tolimán	4	Abril	2023-04-27T00:00:00	2024-11-08T21:00:00	3	Temperatura mínima	18.3
120668	7	Sololá	713	San Lucas Tolimán	10	San Lucas Tolimán	4	Abril	2023-04-27T00:00:00	2024-11-08T21:00:00	5	Humedad	68
120669	7	Sololá	713	San Lucas Tolimán	10	San Lucas Tolimán	4	Abril	2023-04-27T00:00:00	2024-11-08T21:00:00	6	Velocidad del viento	4.8
120670	7	Sololá	713	San Lucas Tolimán	10	San Lucas Tolimán	4	Abril	2023-04-27T00:00:00	2024-11-08T21:00:00	7	Dirección del viento	4.83
120671	7	Sololá	713	San Lucas Tolimán	10	San Lucas Tolimán	4	Abril	2023-04-27T00:00:00	2024-11-08T21:00:00	1	Precipitación	0
120672	7	Sololá	713	San Lucas Tolimán	10	San Lucas Tolimán	4	Abril	2023-04-27T00:00:00	2024-11-08T21:00:00	8	Radiación solar	0
120673	7	Sololá	713	San Lucas Tolimán	10	San Lucas Tolimán	4	Abril	2023-04-27T00:00:00	2024-11-08T22:00:00	2	Temperatura media	18.2
120674	7	Sololá	713	San Lucas Tolimán	10	San Lucas Tolimán	4	Abril	2023-04-27T00:00:00	2024-11-08T22:00:00	4	Temperatura máxima	18.4
120675	7	Sololá	713	San Lucas Tolimán	10	San Lucas Tolimán	4	Abril	2023-04-27T00:00:00	2024-11-08T22:00:00	3	Temperatura mínima	18.2
120676	7	Sololá	713	San Lucas Tolimán	10	San Lucas Tolimán	4	Abril	2023-04-27T00:00:00	2024-11-08T22:00:00	5	Humedad	68
120677	7	Sololá	713	San Lucas Tolimán	10	San Lucas Tolimán	4	Abril	2023-04-27T00:00:00	2024-11-08T22:00:00	6	Velocidad del viento	4.8
120678	7	Sololá	713	San Lucas Tolimán	10	San Lucas Tolimán	4	Abril	2023-04-27T00:00:00	2024-11-08T22:00:00	7	Dirección del viento	4.83
120679	7	Sololá	713	San Lucas Tolimán	10	San Lucas Tolimán	4	Abril	2023-04-27T00:00:00	2024-11-08T22:00:00	1	Precipitación	0
120680	7	Sololá	713	San Lucas Tolimán	10	San Lucas Tolimán	4	Abril	2023-04-27T00:00:00	2024-11-08T22:00:00	8	Radiación solar	0
120681	7	Sololá	713	San Lucas Tolimán	10	San Lucas Tolimán	4	Abril	2023-04-27T00:00:00	2024-11-08T23:00:00	2	Temperatura media	18.1
120682	7	Sololá	713	San Lucas Tolimán	10	San Lucas Tolimán	4	Abril	2023-04-27T00:00:00	2024-11-08T23:00:00	4	Temperatura máxima	18.3
120683	7	Sololá	713	San Lucas Tolimán	10	San Lucas Tolimán	4	Abril	2023-04-27T00:00:00	2024-11-08T23:00:00	3	Temperatura mínima	18.1
120684	7	Sololá	713	San Lucas Tolimán	10	San Lucas Tolimán	4	Abril	2023-04-27T00:00:00	2024-11-08T23:00:00	5	Humedad	67
120685	7	Sololá	713	San Lucas Tolimán	10	San Lucas Tolimán	4	Abril	2023-04-27T00:00:00	2024-11-08T23:00:00	6	Velocidad del viento	3.2
120686	7	Sololá	713	San Lucas Tolimán	10	San Lucas Tolimán	4	Abril	2023-04-27T00:00:00	2024-11-08T23:00:00	7	Dirección del viento	3.22
120687	7	Sololá	713	San Lucas Tolimán	10	San Lucas Tolimán	4	Abril	2023-04-27T00:00:00	2024-11-08T23:00:00	1	Precipitación	0
120688	7	Sololá	713	San Lucas Tolimán	10	San Lucas Tolimán	4	Abril	2023-04-27T00:00:00	2024-11-08T23:00:00	8	Radiación solar	0
120689	7	Sololá	713	San Lucas Tolimán	10	San Lucas Tolimán	4	Abril	2023-04-28T00:00:00	2024-11-08T00:00:00	2	Temperatura media	17.5
120690	7	Sololá	713	San Lucas Tolimán	10	San Lucas Tolimán	4	Abril	2023-04-28T00:00:00	2024-11-08T00:00:00	4	Temperatura máxima	18.1
120691	7	Sololá	713	San Lucas Tolimán	10	San Lucas Tolimán	4	Abril	2023-04-28T00:00:00	2024-11-08T00:00:00	3	Temperatura mínima	17.4
120692	7	Sololá	713	San Lucas Tolimán	10	San Lucas Tolimán	4	Abril	2023-04-28T00:00:00	2024-11-08T00:00:00	5	Humedad	67
120693	7	Sololá	713	San Lucas Tolimán	10	San Lucas Tolimán	4	Abril	2023-04-28T00:00:00	2024-11-08T00:00:00	6	Velocidad del viento	4.8
120694	7	Sololá	713	San Lucas Tolimán	10	San Lucas Tolimán	4	Abril	2023-04-28T00:00:00	2024-11-08T00:00:00	7	Dirección del viento	4.83
120695	7	Sololá	713	San Lucas Tolimán	10	San Lucas Tolimán	4	Abril	2023-04-28T00:00:00	2024-11-08T00:00:00	1	Precipitación	0
120696	7	Sololá	713	San Lucas Tolimán	10	San Lucas Tolimán	4	Abril	2023-04-28T00:00:00	2024-11-08T00:00:00	8	Radiación solar	0
120697	7	Sololá	713	San Lucas Tolimán	10	San Lucas Tolimán	4	Abril	2023-04-28T00:00:00	2024-11-08T01:00:00	2	Temperatura media	17.2
120698	7	Sololá	713	San Lucas Tolimán	10	San Lucas Tolimán	4	Abril	2023-04-28T00:00:00	2024-11-08T01:00:00	4	Temperatura máxima	17.6
120699	7	Sololá	713	San Lucas Tolimán	10	San Lucas Tolimán	4	Abril	2023-04-28T00:00:00	2024-11-08T01:00:00	3	Temperatura mínima	17.2
120700	7	Sololá	713	San Lucas Tolimán	10	San Lucas Tolimán	4	Abril	2023-04-28T00:00:00	2024-11-08T01:00:00	5	Humedad	65
120701	7	Sololá	713	San Lucas Tolimán	10	San Lucas Tolimán	4	Abril	2023-04-28T00:00:00	2024-11-08T01:00:00	6	Velocidad del viento	3.2
120702	7	Sololá	713	San Lucas Tolimán	10	San Lucas Tolimán	4	Abril	2023-04-28T00:00:00	2024-11-08T01:00:00	7	Dirección del viento	3.22
120703	7	Sololá	713	San Lucas Tolimán	10	San Lucas Tolimán	4	Abril	2023-04-28T00:00:00	2024-11-08T01:00:00	1	Precipitación	0
120704	7	Sololá	713	San Lucas Tolimán	10	San Lucas Tolimán	4	Abril	2023-04-28T00:00:00	2024-11-08T01:00:00	8	Radiación solar	0
120705	7	Sololá	713	San Lucas Tolimán	10	San Lucas Tolimán	4	Abril	2023-04-28T00:00:00	2024-11-08T02:00:00	2	Temperatura media	17.7
120706	7	Sololá	713	San Lucas Tolimán	10	San Lucas Tolimán	4	Abril	2023-04-28T00:00:00	2024-11-08T02:00:00	4	Temperatura máxima	17.7
120707	7	Sololá	713	San Lucas Tolimán	10	San Lucas Tolimán	4	Abril	2023-04-28T00:00:00	2024-11-08T02:00:00	3	Temperatura mínima	17.3
120708	7	Sololá	713	San Lucas Tolimán	10	San Lucas Tolimán	4	Abril	2023-04-28T00:00:00	2024-11-08T02:00:00	5	Humedad	64
120709	7	Sololá	713	San Lucas Tolimán	10	San Lucas Tolimán	4	Abril	2023-04-28T00:00:00	2024-11-08T02:00:00	6	Velocidad del viento	3.2
120710	7	Sololá	713	San Lucas Tolimán	10	San Lucas Tolimán	4	Abril	2023-04-28T00:00:00	2024-11-08T02:00:00	7	Dirección del viento	3.22
120711	7	Sololá	713	San Lucas Tolimán	10	San Lucas Tolimán	4	Abril	2023-04-28T00:00:00	2024-11-08T02:00:00	1	Precipitación	0
120712	7	Sololá	713	San Lucas Tolimán	10	San Lucas Tolimán	4	Abril	2023-04-28T00:00:00	2024-11-08T02:00:00	8	Radiación solar	0
120713	7	Sololá	713	San Lucas Tolimán	10	San Lucas Tolimán	4	Abril	2023-04-28T00:00:00	2024-11-08T03:00:00	2	Temperatura media	16.7
120714	7	Sololá	713	San Lucas Tolimán	10	San Lucas Tolimán	4	Abril	2023-04-28T00:00:00	2024-11-08T03:00:00	4	Temperatura máxima	17.7
120715	7	Sololá	713	San Lucas Tolimán	10	San Lucas Tolimán	4	Abril	2023-04-28T00:00:00	2024-11-08T03:00:00	3	Temperatura mínima	16.6
120716	7	Sololá	713	San Lucas Tolimán	10	San Lucas Tolimán	4	Abril	2023-04-28T00:00:00	2024-11-08T03:00:00	5	Humedad	65
120717	7	Sololá	713	San Lucas Tolimán	10	San Lucas Tolimán	4	Abril	2023-04-28T00:00:00	2024-11-08T03:00:00	6	Velocidad del viento	3.2
120718	7	Sololá	713	San Lucas Tolimán	10	San Lucas Tolimán	4	Abril	2023-04-28T00:00:00	2024-11-08T03:00:00	7	Dirección del viento	3.22
120719	7	Sololá	713	San Lucas Tolimán	10	San Lucas Tolimán	4	Abril	2023-04-28T00:00:00	2024-11-08T03:00:00	1	Precipitación	0
120720	7	Sololá	713	San Lucas Tolimán	10	San Lucas Tolimán	4	Abril	2023-04-28T00:00:00	2024-11-08T03:00:00	8	Radiación solar	0
120721	7	Sololá	713	San Lucas Tolimán	10	San Lucas Tolimán	4	Abril	2023-04-28T00:00:00	2024-11-08T04:00:00	2	Temperatura media	16.4
120722	7	Sololá	713	San Lucas Tolimán	10	San Lucas Tolimán	4	Abril	2023-04-28T00:00:00	2024-11-08T04:00:00	4	Temperatura máxima	16.7
120723	7	Sololá	713	San Lucas Tolimán	10	San Lucas Tolimán	4	Abril	2023-04-28T00:00:00	2024-11-08T04:00:00	3	Temperatura mínima	16.2
120724	7	Sololá	713	San Lucas Tolimán	10	San Lucas Tolimán	4	Abril	2023-04-28T00:00:00	2024-11-08T04:00:00	5	Humedad	65
120725	7	Sololá	713	San Lucas Tolimán	10	San Lucas Tolimán	4	Abril	2023-04-28T00:00:00	2024-11-08T04:00:00	6	Velocidad del viento	3.2
120726	7	Sololá	713	San Lucas Tolimán	10	San Lucas Tolimán	4	Abril	2023-04-28T00:00:00	2024-11-08T04:00:00	7	Dirección del viento	3.22
120727	7	Sololá	713	San Lucas Tolimán	10	San Lucas Tolimán	4	Abril	2023-04-28T00:00:00	2024-11-08T04:00:00	1	Precipitación	0
120728	7	Sololá	713	San Lucas Tolimán	10	San Lucas Tolimán	4	Abril	2023-04-28T00:00:00	2024-11-08T04:00:00	8	Radiación solar	0
120729	7	Sololá	713	San Lucas Tolimán	10	San Lucas Tolimán	4	Abril	2023-04-28T00:00:00	2024-11-08T05:00:00	2	Temperatura media	16.7
120730	7	Sololá	713	San Lucas Tolimán	10	San Lucas Tolimán	4	Abril	2023-04-28T00:00:00	2024-11-08T05:00:00	4	Temperatura máxima	16.7
120731	7	Sololá	713	San Lucas Tolimán	10	San Lucas Tolimán	4	Abril	2023-04-28T00:00:00	2024-11-08T05:00:00	3	Temperatura mínima	16.4
120732	7	Sololá	713	San Lucas Tolimán	10	San Lucas Tolimán	4	Abril	2023-04-28T00:00:00	2024-11-08T05:00:00	5	Humedad	65
120733	7	Sololá	713	San Lucas Tolimán	10	San Lucas Tolimán	4	Abril	2023-04-28T00:00:00	2024-11-08T05:00:00	6	Velocidad del viento	3.2
120734	7	Sololá	713	San Lucas Tolimán	10	San Lucas Tolimán	4	Abril	2023-04-28T00:00:00	2024-11-08T05:00:00	7	Dirección del viento	3.22
120735	7	Sololá	713	San Lucas Tolimán	10	San Lucas Tolimán	4	Abril	2023-04-28T00:00:00	2024-11-08T05:00:00	1	Precipitación	0
120736	7	Sololá	713	San Lucas Tolimán	10	San Lucas Tolimán	4	Abril	2023-04-28T00:00:00	2024-11-08T05:00:00	8	Radiación solar	0
120737	7	Sololá	713	San Lucas Tolimán	10	San Lucas Tolimán	4	Abril	2023-04-28T00:00:00	2024-11-08T06:00:00	2	Temperatura media	17.1
120738	7	Sololá	713	San Lucas Tolimán	10	San Lucas Tolimán	4	Abril	2023-04-28T00:00:00	2024-11-08T06:00:00	4	Temperatura máxima	17.1
120739	7	Sololá	713	San Lucas Tolimán	10	San Lucas Tolimán	4	Abril	2023-04-28T00:00:00	2024-11-08T06:00:00	3	Temperatura mínima	16.7
120740	7	Sololá	713	San Lucas Tolimán	10	San Lucas Tolimán	4	Abril	2023-04-28T00:00:00	2024-11-08T06:00:00	5	Humedad	65
120741	7	Sololá	713	San Lucas Tolimán	10	San Lucas Tolimán	4	Abril	2023-04-28T00:00:00	2024-11-08T06:00:00	6	Velocidad del viento	1.6
120742	7	Sololá	713	San Lucas Tolimán	10	San Lucas Tolimán	4	Abril	2023-04-28T00:00:00	2024-11-08T06:00:00	7	Dirección del viento	1.61
120743	7	Sololá	713	San Lucas Tolimán	10	San Lucas Tolimán	4	Abril	2023-04-28T00:00:00	2024-11-08T06:00:00	1	Precipitación	0
120744	7	Sololá	713	San Lucas Tolimán	10	San Lucas Tolimán	4	Abril	2023-04-28T00:00:00	2024-11-08T06:00:00	8	Radiación solar	1
120745	7	Sololá	713	San Lucas Tolimán	10	San Lucas Tolimán	4	Abril	2023-04-28T00:00:00	2024-11-08T07:00:00	2	Temperatura media	18.3
120746	7	Sololá	713	San Lucas Tolimán	10	San Lucas Tolimán	4	Abril	2023-04-28T00:00:00	2024-11-08T07:00:00	4	Temperatura máxima	18.3
120747	7	Sololá	713	San Lucas Tolimán	10	San Lucas Tolimán	4	Abril	2023-04-28T00:00:00	2024-11-08T07:00:00	3	Temperatura mínima	17.1
120748	7	Sololá	713	San Lucas Tolimán	10	San Lucas Tolimán	4	Abril	2023-04-28T00:00:00	2024-11-08T07:00:00	5	Humedad	61
120749	7	Sololá	713	San Lucas Tolimán	10	San Lucas Tolimán	4	Abril	2023-04-28T00:00:00	2024-11-08T07:00:00	6	Velocidad del viento	1.6
120750	7	Sololá	713	San Lucas Tolimán	10	San Lucas Tolimán	4	Abril	2023-04-28T00:00:00	2024-11-08T07:00:00	7	Dirección del viento	1.61
120751	7	Sololá	713	San Lucas Tolimán	10	San Lucas Tolimán	4	Abril	2023-04-28T00:00:00	2024-11-08T07:00:00	1	Precipitación	0
120752	7	Sololá	713	San Lucas Tolimán	10	San Lucas Tolimán	4	Abril	2023-04-28T00:00:00	2024-11-08T07:00:00	8	Radiación solar	62
120753	7	Sololá	713	San Lucas Tolimán	10	San Lucas Tolimán	4	Abril	2023-04-28T00:00:00	2024-11-08T08:00:00	2	Temperatura media	20.3
120754	7	Sololá	713	San Lucas Tolimán	10	San Lucas Tolimán	4	Abril	2023-04-28T00:00:00	2024-11-08T08:00:00	4	Temperatura máxima	20.3
120755	7	Sololá	713	San Lucas Tolimán	10	San Lucas Tolimán	4	Abril	2023-04-28T00:00:00	2024-11-08T08:00:00	3	Temperatura mínima	18.3
120756	7	Sololá	713	San Lucas Tolimán	10	San Lucas Tolimán	4	Abril	2023-04-28T00:00:00	2024-11-08T08:00:00	5	Humedad	58
120757	7	Sololá	713	San Lucas Tolimán	10	San Lucas Tolimán	4	Abril	2023-04-28T00:00:00	2024-11-08T08:00:00	6	Velocidad del viento	3.2
120758	7	Sololá	713	San Lucas Tolimán	10	San Lucas Tolimán	4	Abril	2023-04-28T00:00:00	2024-11-08T08:00:00	7	Dirección del viento	3.22
120759	7	Sololá	713	San Lucas Tolimán	10	San Lucas Tolimán	4	Abril	2023-04-28T00:00:00	2024-11-08T08:00:00	1	Precipitación	0
120760	7	Sololá	713	San Lucas Tolimán	10	San Lucas Tolimán	4	Abril	2023-04-28T00:00:00	2024-11-08T08:00:00	8	Radiación solar	268
120761	7	Sololá	713	San Lucas Tolimán	10	San Lucas Tolimán	4	Abril	2023-04-28T00:00:00	2024-11-08T09:00:00	2	Temperatura media	22.7
120762	7	Sololá	713	San Lucas Tolimán	10	San Lucas Tolimán	4	Abril	2023-04-28T00:00:00	2024-11-08T09:00:00	4	Temperatura máxima	22.7
120763	7	Sololá	713	San Lucas Tolimán	10	San Lucas Tolimán	4	Abril	2023-04-28T00:00:00	2024-11-08T09:00:00	3	Temperatura mínima	20.3
120764	7	Sololá	713	San Lucas Tolimán	10	San Lucas Tolimán	4	Abril	2023-04-28T00:00:00	2024-11-08T09:00:00	5	Humedad	57
120765	7	Sololá	713	San Lucas Tolimán	10	San Lucas Tolimán	4	Abril	2023-04-28T00:00:00	2024-11-08T09:00:00	6	Velocidad del viento	3.2
120766	7	Sololá	713	San Lucas Tolimán	10	San Lucas Tolimán	4	Abril	2023-04-28T00:00:00	2024-11-08T09:00:00	7	Dirección del viento	3.22
120767	7	Sololá	713	San Lucas Tolimán	10	San Lucas Tolimán	4	Abril	2023-04-28T00:00:00	2024-11-08T09:00:00	1	Precipitación	0
120768	7	Sololá	713	San Lucas Tolimán	10	San Lucas Tolimán	4	Abril	2023-04-28T00:00:00	2024-11-08T09:00:00	8	Radiación solar	500
120769	7	Sololá	713	San Lucas Tolimán	10	San Lucas Tolimán	4	Abril	2023-04-28T00:00:00	2024-11-08T10:00:00	2	Temperatura media	23.3
120770	7	Sololá	713	San Lucas Tolimán	10	San Lucas Tolimán	4	Abril	2023-04-28T00:00:00	2024-11-08T10:00:00	4	Temperatura máxima	23.5
120771	7	Sololá	713	San Lucas Tolimán	10	San Lucas Tolimán	4	Abril	2023-04-28T00:00:00	2024-11-08T10:00:00	3	Temperatura mínima	22.7
120772	7	Sololá	713	San Lucas Tolimán	10	San Lucas Tolimán	4	Abril	2023-04-28T00:00:00	2024-11-08T10:00:00	5	Humedad	57
120773	7	Sololá	713	San Lucas Tolimán	10	San Lucas Tolimán	4	Abril	2023-04-28T00:00:00	2024-11-08T10:00:00	6	Velocidad del viento	6.4
120774	7	Sololá	713	San Lucas Tolimán	10	San Lucas Tolimán	4	Abril	2023-04-28T00:00:00	2024-11-08T10:00:00	7	Dirección del viento	6.44
120775	7	Sololá	713	San Lucas Tolimán	10	San Lucas Tolimán	4	Abril	2023-04-28T00:00:00	2024-11-08T10:00:00	1	Precipitación	0
120776	7	Sololá	713	San Lucas Tolimán	10	San Lucas Tolimán	4	Abril	2023-04-28T00:00:00	2024-11-08T10:00:00	8	Radiación solar	650
120777	7	Sololá	713	San Lucas Tolimán	10	San Lucas Tolimán	4	Abril	2023-04-28T00:00:00	2024-11-08T11:00:00	2	Temperatura media	22.6
120778	7	Sololá	713	San Lucas Tolimán	10	San Lucas Tolimán	4	Abril	2023-04-28T00:00:00	2024-11-08T11:00:00	4	Temperatura máxima	23.7
120779	7	Sololá	713	San Lucas Tolimán	10	San Lucas Tolimán	4	Abril	2023-04-28T00:00:00	2024-11-08T11:00:00	3	Temperatura mínima	22.6
120780	7	Sololá	713	San Lucas Tolimán	10	San Lucas Tolimán	4	Abril	2023-04-28T00:00:00	2024-11-08T11:00:00	5	Humedad	61
120781	7	Sololá	713	San Lucas Tolimán	10	San Lucas Tolimán	4	Abril	2023-04-28T00:00:00	2024-11-08T11:00:00	6	Velocidad del viento	11.3
120782	7	Sololá	713	San Lucas Tolimán	10	San Lucas Tolimán	4	Abril	2023-04-28T00:00:00	2024-11-08T11:00:00	7	Dirección del viento	11.27
120783	7	Sololá	713	San Lucas Tolimán	10	San Lucas Tolimán	4	Abril	2023-04-28T00:00:00	2024-11-08T11:00:00	1	Precipitación	0
120784	7	Sololá	713	San Lucas Tolimán	10	San Lucas Tolimán	4	Abril	2023-04-28T00:00:00	2024-11-08T11:00:00	8	Radiación solar	904
120785	7	Sololá	713	San Lucas Tolimán	10	San Lucas Tolimán	4	Abril	2023-04-28T00:00:00	2024-11-08T12:00:00	2	Temperatura media	22.3
120786	7	Sololá	713	San Lucas Tolimán	10	San Lucas Tolimán	4	Abril	2023-04-28T00:00:00	2024-11-08T12:00:00	4	Temperatura máxima	22.6
120787	7	Sololá	713	San Lucas Tolimán	10	San Lucas Tolimán	4	Abril	2023-04-28T00:00:00	2024-11-08T12:00:00	3	Temperatura mínima	20.9
120788	7	Sololá	713	San Lucas Tolimán	10	San Lucas Tolimán	4	Abril	2023-04-28T00:00:00	2024-11-08T12:00:00	5	Humedad	60
120789	7	Sololá	713	San Lucas Tolimán	10	San Lucas Tolimán	4	Abril	2023-04-28T00:00:00	2024-11-08T12:00:00	6	Velocidad del viento	11.3
120790	7	Sololá	713	San Lucas Tolimán	10	San Lucas Tolimán	4	Abril	2023-04-28T00:00:00	2024-11-08T12:00:00	7	Dirección del viento	11.27
120791	7	Sololá	713	San Lucas Tolimán	10	San Lucas Tolimán	4	Abril	2023-04-28T00:00:00	2024-11-08T12:00:00	1	Precipitación	0
120792	7	Sololá	713	San Lucas Tolimán	10	San Lucas Tolimán	4	Abril	2023-04-28T00:00:00	2024-11-08T12:00:00	8	Radiación solar	428
120793	7	Sololá	713	San Lucas Tolimán	10	San Lucas Tolimán	4	Abril	2023-04-28T00:00:00	2024-11-08T13:00:00	2	Temperatura media	22.4
120794	7	Sololá	713	San Lucas Tolimán	10	San Lucas Tolimán	4	Abril	2023-04-28T00:00:00	2024-11-08T13:00:00	4	Temperatura máxima	22.9
120795	7	Sololá	713	San Lucas Tolimán	10	San Lucas Tolimán	4	Abril	2023-04-28T00:00:00	2024-11-08T13:00:00	3	Temperatura mínima	22
120796	7	Sololá	713	San Lucas Tolimán	10	San Lucas Tolimán	4	Abril	2023-04-28T00:00:00	2024-11-08T13:00:00	5	Humedad	60
120797	7	Sololá	713	San Lucas Tolimán	10	San Lucas Tolimán	4	Abril	2023-04-28T00:00:00	2024-11-08T13:00:00	6	Velocidad del viento	11.3
120798	7	Sololá	713	San Lucas Tolimán	10	San Lucas Tolimán	4	Abril	2023-04-28T00:00:00	2024-11-08T13:00:00	7	Dirección del viento	11.27
120799	7	Sololá	713	San Lucas Tolimán	10	San Lucas Tolimán	4	Abril	2023-04-28T00:00:00	2024-11-08T13:00:00	1	Precipitación	0
120800	7	Sololá	713	San Lucas Tolimán	10	San Lucas Tolimán	4	Abril	2023-04-28T00:00:00	2024-11-08T13:00:00	8	Radiación solar	587
120801	7	Sololá	713	San Lucas Tolimán	10	San Lucas Tolimán	4	Abril	2023-04-28T00:00:00	2024-11-08T14:00:00	2	Temperatura media	22.3
120802	7	Sololá	713	San Lucas Tolimán	10	San Lucas Tolimán	4	Abril	2023-04-28T00:00:00	2024-11-08T14:00:00	4	Temperatura máxima	22.7
120803	7	Sololá	713	San Lucas Tolimán	10	San Lucas Tolimán	4	Abril	2023-04-28T00:00:00	2024-11-08T14:00:00	3	Temperatura mínima	21.3
120804	7	Sololá	713	San Lucas Tolimán	10	San Lucas Tolimán	4	Abril	2023-04-28T00:00:00	2024-11-08T14:00:00	5	Humedad	60
120805	7	Sololá	713	San Lucas Tolimán	10	San Lucas Tolimán	4	Abril	2023-04-28T00:00:00	2024-11-08T14:00:00	6	Velocidad del viento	9.7
120806	7	Sololá	713	San Lucas Tolimán	10	San Lucas Tolimán	4	Abril	2023-04-28T00:00:00	2024-11-08T14:00:00	7	Dirección del viento	9.66
120807	7	Sololá	713	San Lucas Tolimán	10	San Lucas Tolimán	4	Abril	2023-04-28T00:00:00	2024-11-08T14:00:00	1	Precipitación	0
120808	7	Sololá	713	San Lucas Tolimán	10	San Lucas Tolimán	4	Abril	2023-04-28T00:00:00	2024-11-08T14:00:00	8	Radiación solar	416
120809	7	Sololá	713	San Lucas Tolimán	10	San Lucas Tolimán	4	Abril	2023-04-28T00:00:00	2024-11-08T15:00:00	2	Temperatura media	20.6
120810	7	Sololá	713	San Lucas Tolimán	10	San Lucas Tolimán	4	Abril	2023-04-28T00:00:00	2024-11-08T15:00:00	4	Temperatura máxima	22.4
120811	7	Sololá	713	San Lucas Tolimán	10	San Lucas Tolimán	4	Abril	2023-04-28T00:00:00	2024-11-08T15:00:00	3	Temperatura mínima	20.6
120812	7	Sololá	713	San Lucas Tolimán	10	San Lucas Tolimán	4	Abril	2023-04-28T00:00:00	2024-11-08T15:00:00	5	Humedad	64
120813	7	Sololá	713	San Lucas Tolimán	10	San Lucas Tolimán	4	Abril	2023-04-28T00:00:00	2024-11-08T15:00:00	6	Velocidad del viento	9.7
120814	7	Sololá	713	San Lucas Tolimán	10	San Lucas Tolimán	4	Abril	2023-04-28T00:00:00	2024-11-08T15:00:00	7	Dirección del viento	9.66
120815	7	Sololá	713	San Lucas Tolimán	10	San Lucas Tolimán	4	Abril	2023-04-28T00:00:00	2024-11-08T15:00:00	1	Precipitación	0
120816	7	Sololá	713	San Lucas Tolimán	10	San Lucas Tolimán	4	Abril	2023-04-28T00:00:00	2024-11-08T15:00:00	8	Radiación solar	250
120817	7	Sololá	713	San Lucas Tolimán	10	San Lucas Tolimán	4	Abril	2023-04-28T00:00:00	2024-11-08T16:00:00	2	Temperatura media	21.3
120818	7	Sololá	713	San Lucas Tolimán	10	San Lucas Tolimán	4	Abril	2023-04-28T00:00:00	2024-11-08T16:00:00	4	Temperatura máxima	21.6
120819	7	Sololá	713	San Lucas Tolimán	10	San Lucas Tolimán	4	Abril	2023-04-28T00:00:00	2024-11-08T16:00:00	3	Temperatura mínima	20.4
120820	7	Sololá	713	San Lucas Tolimán	10	San Lucas Tolimán	4	Abril	2023-04-28T00:00:00	2024-11-08T16:00:00	5	Humedad	60
120821	7	Sololá	713	San Lucas Tolimán	10	San Lucas Tolimán	4	Abril	2023-04-28T00:00:00	2024-11-08T16:00:00	6	Velocidad del viento	8
120822	7	Sololá	713	San Lucas Tolimán	10	San Lucas Tolimán	4	Abril	2023-04-28T00:00:00	2024-11-08T16:00:00	7	Dirección del viento	8.05
120823	7	Sololá	713	San Lucas Tolimán	10	San Lucas Tolimán	4	Abril	2023-04-28T00:00:00	2024-11-08T16:00:00	1	Precipitación	0
120824	7	Sololá	713	San Lucas Tolimán	10	San Lucas Tolimán	4	Abril	2023-04-28T00:00:00	2024-11-08T16:00:00	8	Radiación solar	386
120825	7	Sololá	713	San Lucas Tolimán	10	San Lucas Tolimán	4	Abril	2023-04-28T00:00:00	2024-11-08T17:00:00	2	Temperatura media	20.2
120826	7	Sololá	713	San Lucas Tolimán	10	San Lucas Tolimán	4	Abril	2023-04-28T00:00:00	2024-11-08T17:00:00	4	Temperatura máxima	21.3
120827	7	Sololá	713	San Lucas Tolimán	10	San Lucas Tolimán	4	Abril	2023-04-28T00:00:00	2024-11-08T17:00:00	3	Temperatura mínima	20.2
120828	7	Sololá	713	San Lucas Tolimán	10	San Lucas Tolimán	4	Abril	2023-04-28T00:00:00	2024-11-08T17:00:00	5	Humedad	63
120829	7	Sololá	713	San Lucas Tolimán	10	San Lucas Tolimán	4	Abril	2023-04-28T00:00:00	2024-11-08T17:00:00	6	Velocidad del viento	6.4
120830	7	Sololá	713	San Lucas Tolimán	10	San Lucas Tolimán	4	Abril	2023-04-28T00:00:00	2024-11-08T17:00:00	7	Dirección del viento	6.44
120831	7	Sololá	713	San Lucas Tolimán	10	San Lucas Tolimán	4	Abril	2023-04-28T00:00:00	2024-11-08T17:00:00	1	Precipitación	0
120832	7	Sololá	713	San Lucas Tolimán	10	San Lucas Tolimán	4	Abril	2023-04-28T00:00:00	2024-11-08T17:00:00	8	Radiación solar	97
120833	7	Sololá	713	San Lucas Tolimán	10	San Lucas Tolimán	4	Abril	2023-04-28T00:00:00	2024-11-08T18:00:00	2	Temperatura media	18.8
120834	7	Sololá	713	San Lucas Tolimán	10	San Lucas Tolimán	4	Abril	2023-04-28T00:00:00	2024-11-08T18:00:00	4	Temperatura máxima	20.2
120835	7	Sololá	713	San Lucas Tolimán	10	San Lucas Tolimán	4	Abril	2023-04-28T00:00:00	2024-11-08T18:00:00	3	Temperatura mínima	18.8
120836	7	Sololá	713	San Lucas Tolimán	10	San Lucas Tolimán	4	Abril	2023-04-28T00:00:00	2024-11-08T18:00:00	5	Humedad	62
120837	7	Sololá	713	San Lucas Tolimán	10	San Lucas Tolimán	4	Abril	2023-04-28T00:00:00	2024-11-08T18:00:00	6	Velocidad del viento	6.4
120838	7	Sololá	713	San Lucas Tolimán	10	San Lucas Tolimán	4	Abril	2023-04-28T00:00:00	2024-11-08T18:00:00	7	Dirección del viento	6.44
120839	7	Sololá	713	San Lucas Tolimán	10	San Lucas Tolimán	4	Abril	2023-04-28T00:00:00	2024-11-08T18:00:00	1	Precipitación	0.8
120840	7	Sololá	713	San Lucas Tolimán	10	San Lucas Tolimán	4	Abril	2023-04-28T00:00:00	2024-11-08T18:00:00	8	Radiación solar	25
120841	7	Sololá	713	San Lucas Tolimán	10	San Lucas Tolimán	4	Abril	2023-04-28T00:00:00	2024-11-08T19:00:00	2	Temperatura media	18.1
120842	7	Sololá	713	San Lucas Tolimán	10	San Lucas Tolimán	4	Abril	2023-04-28T00:00:00	2024-11-08T19:00:00	4	Temperatura máxima	18.8
120843	7	Sololá	713	San Lucas Tolimán	10	San Lucas Tolimán	4	Abril	2023-04-28T00:00:00	2024-11-08T19:00:00	3	Temperatura mínima	17.9
120844	7	Sololá	713	San Lucas Tolimán	10	San Lucas Tolimán	4	Abril	2023-04-28T00:00:00	2024-11-08T19:00:00	5	Humedad	68
120845	7	Sololá	713	San Lucas Tolimán	10	San Lucas Tolimán	4	Abril	2023-04-28T00:00:00	2024-11-08T19:00:00	6	Velocidad del viento	4.8
120846	7	Sololá	713	San Lucas Tolimán	10	San Lucas Tolimán	4	Abril	2023-04-28T00:00:00	2024-11-08T19:00:00	7	Dirección del viento	4.83
120847	7	Sololá	713	San Lucas Tolimán	10	San Lucas Tolimán	4	Abril	2023-04-28T00:00:00	2024-11-08T19:00:00	1	Precipitación	0.2
120848	7	Sololá	713	San Lucas Tolimán	10	San Lucas Tolimán	4	Abril	2023-04-28T00:00:00	2024-11-08T19:00:00	8	Radiación solar	0
120849	7	Sololá	713	San Lucas Tolimán	10	San Lucas Tolimán	4	Abril	2023-04-28T00:00:00	2024-11-08T20:00:00	2	Temperatura media	17.8
120850	7	Sololá	713	San Lucas Tolimán	10	San Lucas Tolimán	4	Abril	2023-04-28T00:00:00	2024-11-08T20:00:00	4	Temperatura máxima	18.1
120851	7	Sololá	713	San Lucas Tolimán	10	San Lucas Tolimán	4	Abril	2023-04-28T00:00:00	2024-11-08T20:00:00	3	Temperatura mínima	17.8
120852	7	Sololá	713	San Lucas Tolimán	10	San Lucas Tolimán	4	Abril	2023-04-28T00:00:00	2024-11-08T20:00:00	5	Humedad	69
120853	7	Sololá	713	San Lucas Tolimán	10	San Lucas Tolimán	4	Abril	2023-04-28T00:00:00	2024-11-08T20:00:00	6	Velocidad del viento	4.8
120854	7	Sololá	713	San Lucas Tolimán	10	San Lucas Tolimán	4	Abril	2023-04-28T00:00:00	2024-11-08T20:00:00	7	Dirección del viento	4.83
120855	7	Sololá	713	San Lucas Tolimán	10	San Lucas Tolimán	4	Abril	2023-04-28T00:00:00	2024-11-08T20:00:00	1	Precipitación	2.4
120856	7	Sololá	713	San Lucas Tolimán	10	San Lucas Tolimán	4	Abril	2023-04-28T00:00:00	2024-11-08T20:00:00	8	Radiación solar	0
120857	7	Sololá	713	San Lucas Tolimán	10	San Lucas Tolimán	4	Abril	2023-04-28T00:00:00	2024-11-08T21:00:00	2	Temperatura media	17.9
120858	7	Sololá	713	San Lucas Tolimán	10	San Lucas Tolimán	4	Abril	2023-04-28T00:00:00	2024-11-08T21:00:00	4	Temperatura máxima	18
120859	7	Sololá	713	San Lucas Tolimán	10	San Lucas Tolimán	4	Abril	2023-04-28T00:00:00	2024-11-08T21:00:00	3	Temperatura mínima	17.8
120860	7	Sololá	713	San Lucas Tolimán	10	San Lucas Tolimán	4	Abril	2023-04-28T00:00:00	2024-11-08T21:00:00	5	Humedad	68
120861	7	Sololá	713	San Lucas Tolimán	10	San Lucas Tolimán	4	Abril	2023-04-28T00:00:00	2024-11-08T21:00:00	6	Velocidad del viento	4.8
120862	7	Sololá	713	San Lucas Tolimán	10	San Lucas Tolimán	4	Abril	2023-04-28T00:00:00	2024-11-08T21:00:00	7	Dirección del viento	4.83
120863	7	Sololá	713	San Lucas Tolimán	10	San Lucas Tolimán	4	Abril	2023-04-28T00:00:00	2024-11-08T21:00:00	1	Precipitación	0
120864	7	Sololá	713	San Lucas Tolimán	10	San Lucas Tolimán	4	Abril	2023-04-28T00:00:00	2024-11-08T21:00:00	8	Radiación solar	0
120865	7	Sololá	713	San Lucas Tolimán	10	San Lucas Tolimán	4	Abril	2023-04-28T00:00:00	2024-11-08T22:00:00	2	Temperatura media	17.7
120866	7	Sololá	713	San Lucas Tolimán	10	San Lucas Tolimán	4	Abril	2023-04-28T00:00:00	2024-11-08T22:00:00	4	Temperatura máxima	18.1
120867	7	Sololá	713	San Lucas Tolimán	10	San Lucas Tolimán	4	Abril	2023-04-28T00:00:00	2024-11-08T22:00:00	3	Temperatura mínima	17.7
120868	7	Sololá	713	San Lucas Tolimán	10	San Lucas Tolimán	4	Abril	2023-04-28T00:00:00	2024-11-08T22:00:00	5	Humedad	69
120869	7	Sololá	713	San Lucas Tolimán	10	San Lucas Tolimán	4	Abril	2023-04-28T00:00:00	2024-11-08T22:00:00	6	Velocidad del viento	6.4
120870	7	Sololá	713	San Lucas Tolimán	10	San Lucas Tolimán	4	Abril	2023-04-28T00:00:00	2024-11-08T22:00:00	7	Dirección del viento	6.44
120871	7	Sololá	713	San Lucas Tolimán	10	San Lucas Tolimán	4	Abril	2023-04-28T00:00:00	2024-11-08T22:00:00	1	Precipitación	0.2
120872	7	Sololá	713	San Lucas Tolimán	10	San Lucas Tolimán	4	Abril	2023-04-28T00:00:00	2024-11-08T22:00:00	8	Radiación solar	0
120873	7	Sololá	713	San Lucas Tolimán	10	San Lucas Tolimán	4	Abril	2023-04-28T00:00:00	2024-11-08T23:00:00	2	Temperatura media	17.7
120874	7	Sololá	713	San Lucas Tolimán	10	San Lucas Tolimán	4	Abril	2023-04-28T00:00:00	2024-11-08T23:00:00	4	Temperatura máxima	17.8
120875	7	Sololá	713	San Lucas Tolimán	10	San Lucas Tolimán	4	Abril	2023-04-28T00:00:00	2024-11-08T23:00:00	3	Temperatura mínima	17.6
120876	7	Sololá	713	San Lucas Tolimán	10	San Lucas Tolimán	4	Abril	2023-04-28T00:00:00	2024-11-08T23:00:00	5	Humedad	69
120877	7	Sololá	713	San Lucas Tolimán	10	San Lucas Tolimán	4	Abril	2023-04-28T00:00:00	2024-11-08T23:00:00	6	Velocidad del viento	1.6
120878	7	Sololá	713	San Lucas Tolimán	10	San Lucas Tolimán	4	Abril	2023-04-28T00:00:00	2024-11-08T23:00:00	7	Dirección del viento	1.61
120879	7	Sololá	713	San Lucas Tolimán	10	San Lucas Tolimán	4	Abril	2023-04-28T00:00:00	2024-11-08T23:00:00	1	Precipitación	0.2
120880	7	Sololá	713	San Lucas Tolimán	10	San Lucas Tolimán	4	Abril	2023-04-28T00:00:00	2024-11-08T23:00:00	8	Radiación solar	0
120881	7	Sololá	713	San Lucas Tolimán	10	San Lucas Tolimán	4	Abril	2023-04-29T00:00:00	2024-11-08T00:00:00	2	Temperatura media	18.1
120882	7	Sololá	713	San Lucas Tolimán	10	San Lucas Tolimán	4	Abril	2023-04-29T00:00:00	2024-11-08T00:00:00	4	Temperatura máxima	18.2
120883	7	Sololá	713	San Lucas Tolimán	10	San Lucas Tolimán	4	Abril	2023-04-29T00:00:00	2024-11-08T00:00:00	3	Temperatura mínima	17.7
120884	7	Sololá	713	San Lucas Tolimán	10	San Lucas Tolimán	4	Abril	2023-04-29T00:00:00	2024-11-08T00:00:00	5	Humedad	69
120885	7	Sololá	713	San Lucas Tolimán	10	San Lucas Tolimán	4	Abril	2023-04-29T00:00:00	2024-11-08T00:00:00	6	Velocidad del viento	3.2
120886	7	Sololá	713	San Lucas Tolimán	10	San Lucas Tolimán	4	Abril	2023-04-29T00:00:00	2024-11-08T00:00:00	7	Dirección del viento	3.22
120887	7	Sololá	713	San Lucas Tolimán	10	San Lucas Tolimán	4	Abril	2023-04-29T00:00:00	2024-11-08T00:00:00	1	Precipitación	0
120888	7	Sololá	713	San Lucas Tolimán	10	San Lucas Tolimán	4	Abril	2023-04-29T00:00:00	2024-11-08T00:00:00	8	Radiación solar	0
120889	7	Sololá	713	San Lucas Tolimán	10	San Lucas Tolimán	4	Abril	2023-04-29T00:00:00	2024-11-08T01:00:00	2	Temperatura media	17.6
120890	7	Sololá	713	San Lucas Tolimán	10	San Lucas Tolimán	4	Abril	2023-04-29T00:00:00	2024-11-08T01:00:00	4	Temperatura máxima	18.2
120891	7	Sololá	713	San Lucas Tolimán	10	San Lucas Tolimán	4	Abril	2023-04-29T00:00:00	2024-11-08T01:00:00	3	Temperatura mínima	17.5
120892	7	Sololá	713	San Lucas Tolimán	10	San Lucas Tolimán	4	Abril	2023-04-29T00:00:00	2024-11-08T01:00:00	5	Humedad	66
120893	7	Sololá	713	San Lucas Tolimán	10	San Lucas Tolimán	4	Abril	2023-04-29T00:00:00	2024-11-08T01:00:00	6	Velocidad del viento	4.8
120894	7	Sololá	713	San Lucas Tolimán	10	San Lucas Tolimán	4	Abril	2023-04-29T00:00:00	2024-11-08T01:00:00	7	Dirección del viento	4.83
120895	7	Sololá	713	San Lucas Tolimán	10	San Lucas Tolimán	4	Abril	2023-04-29T00:00:00	2024-11-08T01:00:00	1	Precipitación	0
120896	7	Sololá	713	San Lucas Tolimán	10	San Lucas Tolimán	4	Abril	2023-04-29T00:00:00	2024-11-08T01:00:00	8	Radiación solar	0
120897	7	Sololá	713	San Lucas Tolimán	10	San Lucas Tolimán	4	Abril	2023-04-29T00:00:00	2024-11-08T02:00:00	2	Temperatura media	16.8
120898	7	Sololá	713	San Lucas Tolimán	10	San Lucas Tolimán	4	Abril	2023-04-29T00:00:00	2024-11-08T02:00:00	4	Temperatura máxima	17.8
120899	7	Sololá	713	San Lucas Tolimán	10	San Lucas Tolimán	4	Abril	2023-04-29T00:00:00	2024-11-08T02:00:00	3	Temperatura mínima	16.7
120900	7	Sololá	713	San Lucas Tolimán	10	San Lucas Tolimán	4	Abril	2023-04-29T00:00:00	2024-11-08T02:00:00	5	Humedad	67
120901	7	Sololá	713	San Lucas Tolimán	10	San Lucas Tolimán	4	Abril	2023-04-29T00:00:00	2024-11-08T02:00:00	6	Velocidad del viento	3.2
120902	7	Sololá	713	San Lucas Tolimán	10	San Lucas Tolimán	4	Abril	2023-04-29T00:00:00	2024-11-08T02:00:00	7	Dirección del viento	3.22
120903	7	Sololá	713	San Lucas Tolimán	10	San Lucas Tolimán	4	Abril	2023-04-29T00:00:00	2024-11-08T02:00:00	1	Precipitación	0
120904	7	Sololá	713	San Lucas Tolimán	10	San Lucas Tolimán	4	Abril	2023-04-29T00:00:00	2024-11-08T02:00:00	8	Radiación solar	0
120905	7	Sololá	713	San Lucas Tolimán	10	San Lucas Tolimán	4	Abril	2023-04-29T00:00:00	2024-11-08T03:00:00	2	Temperatura media	16.4
120906	7	Sololá	713	San Lucas Tolimán	10	San Lucas Tolimán	4	Abril	2023-04-29T00:00:00	2024-11-08T03:00:00	4	Temperatura máxima	16.8
120907	7	Sololá	713	San Lucas Tolimán	10	San Lucas Tolimán	4	Abril	2023-04-29T00:00:00	2024-11-08T03:00:00	3	Temperatura mínima	16.4
120908	7	Sololá	713	San Lucas Tolimán	10	San Lucas Tolimán	4	Abril	2023-04-29T00:00:00	2024-11-08T03:00:00	5	Humedad	67
120909	7	Sololá	713	San Lucas Tolimán	10	San Lucas Tolimán	4	Abril	2023-04-29T00:00:00	2024-11-08T03:00:00	6	Velocidad del viento	3.2
120910	7	Sololá	713	San Lucas Tolimán	10	San Lucas Tolimán	4	Abril	2023-04-29T00:00:00	2024-11-08T03:00:00	7	Dirección del viento	3.22
120911	7	Sololá	713	San Lucas Tolimán	10	San Lucas Tolimán	4	Abril	2023-04-29T00:00:00	2024-11-08T03:00:00	1	Precipitación	0
120912	7	Sololá	713	San Lucas Tolimán	10	San Lucas Tolimán	4	Abril	2023-04-29T00:00:00	2024-11-08T03:00:00	8	Radiación solar	0
120913	7	Sololá	713	San Lucas Tolimán	10	San Lucas Tolimán	4	Abril	2023-04-29T00:00:00	2024-11-08T04:00:00	2	Temperatura media	15.9
120914	7	Sololá	713	San Lucas Tolimán	10	San Lucas Tolimán	4	Abril	2023-04-29T00:00:00	2024-11-08T04:00:00	4	Temperatura máxima	16.4
120915	7	Sololá	713	San Lucas Tolimán	10	San Lucas Tolimán	4	Abril	2023-04-29T00:00:00	2024-11-08T04:00:00	3	Temperatura mínima	15.9
120916	7	Sololá	713	San Lucas Tolimán	10	San Lucas Tolimán	4	Abril	2023-04-29T00:00:00	2024-11-08T04:00:00	5	Humedad	68
120917	7	Sololá	713	San Lucas Tolimán	10	San Lucas Tolimán	4	Abril	2023-04-29T00:00:00	2024-11-08T04:00:00	6	Velocidad del viento	1.6
120918	7	Sololá	713	San Lucas Tolimán	10	San Lucas Tolimán	4	Abril	2023-04-29T00:00:00	2024-11-08T04:00:00	7	Dirección del viento	1.61
120919	7	Sololá	713	San Lucas Tolimán	10	San Lucas Tolimán	4	Abril	2023-04-29T00:00:00	2024-11-08T04:00:00	1	Precipitación	0
120920	7	Sololá	713	San Lucas Tolimán	10	San Lucas Tolimán	4	Abril	2023-04-29T00:00:00	2024-11-08T04:00:00	8	Radiación solar	0
120921	7	Sololá	713	San Lucas Tolimán	10	San Lucas Tolimán	4	Abril	2023-04-29T00:00:00	2024-11-08T05:00:00	2	Temperatura media	16.1
120922	7	Sololá	713	San Lucas Tolimán	10	San Lucas Tolimán	4	Abril	2023-04-29T00:00:00	2024-11-08T05:00:00	4	Temperatura máxima	16.1
120923	7	Sololá	713	San Lucas Tolimán	10	San Lucas Tolimán	4	Abril	2023-04-29T00:00:00	2024-11-08T05:00:00	3	Temperatura mínima	15.8
120924	7	Sololá	713	San Lucas Tolimán	10	San Lucas Tolimán	4	Abril	2023-04-29T00:00:00	2024-11-08T05:00:00	5	Humedad	68
120925	7	Sololá	713	San Lucas Tolimán	10	San Lucas Tolimán	4	Abril	2023-04-29T00:00:00	2024-11-08T05:00:00	6	Velocidad del viento	3.2
120926	7	Sololá	713	San Lucas Tolimán	10	San Lucas Tolimán	4	Abril	2023-04-29T00:00:00	2024-11-08T05:00:00	7	Dirección del viento	3.22
120927	7	Sololá	713	San Lucas Tolimán	10	San Lucas Tolimán	4	Abril	2023-04-29T00:00:00	2024-11-08T05:00:00	1	Precipitación	0
120928	7	Sololá	713	San Lucas Tolimán	10	San Lucas Tolimán	4	Abril	2023-04-29T00:00:00	2024-11-08T05:00:00	8	Radiación solar	0
120929	7	Sololá	713	San Lucas Tolimán	10	San Lucas Tolimán	4	Abril	2023-04-29T00:00:00	2024-11-08T06:00:00	2	Temperatura media	15.8
120930	7	Sololá	713	San Lucas Tolimán	10	San Lucas Tolimán	4	Abril	2023-04-29T00:00:00	2024-11-08T06:00:00	4	Temperatura máxima	16.2
120931	7	Sololá	713	San Lucas Tolimán	10	San Lucas Tolimán	4	Abril	2023-04-29T00:00:00	2024-11-08T06:00:00	3	Temperatura mínima	15.8
120932	7	Sololá	713	San Lucas Tolimán	10	San Lucas Tolimán	4	Abril	2023-04-29T00:00:00	2024-11-08T06:00:00	5	Humedad	68
120933	7	Sololá	713	San Lucas Tolimán	10	San Lucas Tolimán	4	Abril	2023-04-29T00:00:00	2024-11-08T06:00:00	6	Velocidad del viento	1.6
120934	7	Sololá	713	San Lucas Tolimán	10	San Lucas Tolimán	4	Abril	2023-04-29T00:00:00	2024-11-08T06:00:00	7	Dirección del viento	1.61
120935	7	Sololá	713	San Lucas Tolimán	10	San Lucas Tolimán	4	Abril	2023-04-29T00:00:00	2024-11-08T06:00:00	1	Precipitación	0
120936	7	Sololá	713	San Lucas Tolimán	10	San Lucas Tolimán	4	Abril	2023-04-29T00:00:00	2024-11-08T06:00:00	8	Radiación solar	1
120937	7	Sololá	713	San Lucas Tolimán	10	San Lucas Tolimán	4	Abril	2023-04-29T00:00:00	2024-11-08T07:00:00	2	Temperatura media	16.6
120938	7	Sololá	713	San Lucas Tolimán	10	San Lucas Tolimán	4	Abril	2023-04-29T00:00:00	2024-11-08T07:00:00	4	Temperatura máxima	16.6
120939	7	Sololá	713	San Lucas Tolimán	10	San Lucas Tolimán	4	Abril	2023-04-29T00:00:00	2024-11-08T07:00:00	3	Temperatura mínima	15.8
120940	7	Sololá	713	San Lucas Tolimán	10	San Lucas Tolimán	4	Abril	2023-04-29T00:00:00	2024-11-08T07:00:00	5	Humedad	68
120941	7	Sololá	713	San Lucas Tolimán	10	San Lucas Tolimán	4	Abril	2023-04-29T00:00:00	2024-11-08T07:00:00	6	Velocidad del viento	1.6
120942	7	Sololá	713	San Lucas Tolimán	10	San Lucas Tolimán	4	Abril	2023-04-29T00:00:00	2024-11-08T07:00:00	7	Dirección del viento	1.61
120943	7	Sololá	713	San Lucas Tolimán	10	San Lucas Tolimán	4	Abril	2023-04-29T00:00:00	2024-11-08T07:00:00	1	Precipitación	0
120944	7	Sololá	713	San Lucas Tolimán	10	San Lucas Tolimán	4	Abril	2023-04-29T00:00:00	2024-11-08T07:00:00	8	Radiación solar	58
120945	7	Sololá	713	San Lucas Tolimán	10	San Lucas Tolimán	4	Abril	2023-04-29T00:00:00	2024-11-08T08:00:00	2	Temperatura media	18.7
120946	7	Sololá	713	San Lucas Tolimán	10	San Lucas Tolimán	4	Abril	2023-04-29T00:00:00	2024-11-08T08:00:00	4	Temperatura máxima	18.7
120947	7	Sololá	713	San Lucas Tolimán	10	San Lucas Tolimán	4	Abril	2023-04-29T00:00:00	2024-11-08T08:00:00	3	Temperatura mínima	16.6
120948	7	Sololá	713	San Lucas Tolimán	10	San Lucas Tolimán	4	Abril	2023-04-29T00:00:00	2024-11-08T08:00:00	5	Humedad	62
120949	7	Sololá	713	San Lucas Tolimán	10	San Lucas Tolimán	4	Abril	2023-04-29T00:00:00	2024-11-08T08:00:00	6	Velocidad del viento	3.2
120950	7	Sololá	713	San Lucas Tolimán	10	San Lucas Tolimán	4	Abril	2023-04-29T00:00:00	2024-11-08T08:00:00	7	Dirección del viento	3.22
120951	7	Sololá	713	San Lucas Tolimán	10	San Lucas Tolimán	4	Abril	2023-04-29T00:00:00	2024-11-08T08:00:00	1	Precipitación	0
120952	7	Sololá	713	San Lucas Tolimán	10	San Lucas Tolimán	4	Abril	2023-04-29T00:00:00	2024-11-08T08:00:00	8	Radiación solar	169
120953	7	Sololá	713	San Lucas Tolimán	10	San Lucas Tolimán	4	Abril	2023-04-29T00:00:00	2024-11-08T09:00:00	2	Temperatura media	21.4
120954	7	Sololá	713	San Lucas Tolimán	10	San Lucas Tolimán	4	Abril	2023-04-29T00:00:00	2024-11-08T09:00:00	4	Temperatura máxima	21.4
120955	7	Sololá	713	San Lucas Tolimán	10	San Lucas Tolimán	4	Abril	2023-04-29T00:00:00	2024-11-08T09:00:00	3	Temperatura mínima	18.7
120956	7	Sololá	713	San Lucas Tolimán	10	San Lucas Tolimán	4	Abril	2023-04-29T00:00:00	2024-11-08T09:00:00	5	Humedad	52
120957	7	Sololá	713	San Lucas Tolimán	10	San Lucas Tolimán	4	Abril	2023-04-29T00:00:00	2024-11-08T09:00:00	6	Velocidad del viento	4.8
120958	7	Sololá	713	San Lucas Tolimán	10	San Lucas Tolimán	4	Abril	2023-04-29T00:00:00	2024-11-08T09:00:00	7	Dirección del viento	4.83
120959	7	Sololá	713	San Lucas Tolimán	10	San Lucas Tolimán	4	Abril	2023-04-29T00:00:00	2024-11-08T09:00:00	1	Precipitación	0
120960	7	Sololá	713	San Lucas Tolimán	10	San Lucas Tolimán	4	Abril	2023-04-29T00:00:00	2024-11-08T09:00:00	8	Radiación solar	483
120961	7	Sololá	713	San Lucas Tolimán	10	San Lucas Tolimán	4	Abril	2023-04-29T00:00:00	2024-11-08T10:00:00	2	Temperatura media	21.4
120962	7	Sololá	713	San Lucas Tolimán	10	San Lucas Tolimán	4	Abril	2023-04-29T00:00:00	2024-11-08T10:00:00	4	Temperatura máxima	22.6
120963	7	Sololá	713	San Lucas Tolimán	10	San Lucas Tolimán	4	Abril	2023-04-29T00:00:00	2024-11-08T10:00:00	3	Temperatura mínima	21.4
120964	7	Sololá	713	San Lucas Tolimán	10	San Lucas Tolimán	4	Abril	2023-04-29T00:00:00	2024-11-08T10:00:00	5	Humedad	57
120965	7	Sololá	713	San Lucas Tolimán	10	San Lucas Tolimán	4	Abril	2023-04-29T00:00:00	2024-11-08T10:00:00	6	Velocidad del viento	6.4
120966	7	Sololá	713	San Lucas Tolimán	10	San Lucas Tolimán	4	Abril	2023-04-29T00:00:00	2024-11-08T10:00:00	7	Dirección del viento	6.44
120967	7	Sololá	713	San Lucas Tolimán	10	San Lucas Tolimán	4	Abril	2023-04-29T00:00:00	2024-11-08T10:00:00	1	Precipitación	0
120968	7	Sololá	713	San Lucas Tolimán	10	San Lucas Tolimán	4	Abril	2023-04-29T00:00:00	2024-11-08T10:00:00	8	Radiación solar	647
120969	7	Sololá	713	San Lucas Tolimán	10	San Lucas Tolimán	4	Abril	2023-04-29T00:00:00	2024-11-08T11:00:00	2	Temperatura media	22.4
120970	7	Sololá	713	San Lucas Tolimán	10	San Lucas Tolimán	4	Abril	2023-04-29T00:00:00	2024-11-08T11:00:00	4	Temperatura máxima	22.4
120971	7	Sololá	713	San Lucas Tolimán	10	San Lucas Tolimán	4	Abril	2023-04-29T00:00:00	2024-11-08T11:00:00	3	Temperatura mínima	21.3
120972	7	Sololá	713	San Lucas Tolimán	10	San Lucas Tolimán	4	Abril	2023-04-29T00:00:00	2024-11-08T11:00:00	5	Humedad	57
120973	7	Sololá	713	San Lucas Tolimán	10	San Lucas Tolimán	4	Abril	2023-04-29T00:00:00	2024-11-08T11:00:00	6	Velocidad del viento	9.7
120974	7	Sololá	713	San Lucas Tolimán	10	San Lucas Tolimán	4	Abril	2023-04-29T00:00:00	2024-11-08T11:00:00	7	Dirección del viento	9.66
120975	7	Sololá	713	San Lucas Tolimán	10	San Lucas Tolimán	4	Abril	2023-04-29T00:00:00	2024-11-08T11:00:00	1	Precipitación	0
120976	7	Sololá	713	San Lucas Tolimán	10	San Lucas Tolimán	4	Abril	2023-04-29T00:00:00	2024-11-08T11:00:00	8	Radiación solar	968
120977	7	Sololá	713	San Lucas Tolimán	10	San Lucas Tolimán	4	Abril	2023-04-29T00:00:00	2024-11-08T12:00:00	2	Temperatura media	22.6
120978	7	Sololá	713	San Lucas Tolimán	10	San Lucas Tolimán	4	Abril	2023-04-29T00:00:00	2024-11-08T12:00:00	4	Temperatura máxima	23.2
120979	7	Sololá	713	San Lucas Tolimán	10	San Lucas Tolimán	4	Abril	2023-04-29T00:00:00	2024-11-08T12:00:00	3	Temperatura mínima	22
120980	7	Sololá	713	San Lucas Tolimán	10	San Lucas Tolimán	4	Abril	2023-04-29T00:00:00	2024-11-08T12:00:00	5	Humedad	57
120981	7	Sololá	713	San Lucas Tolimán	10	San Lucas Tolimán	4	Abril	2023-04-29T00:00:00	2024-11-08T12:00:00	6	Velocidad del viento	11.3
120982	7	Sololá	713	San Lucas Tolimán	10	San Lucas Tolimán	4	Abril	2023-04-29T00:00:00	2024-11-08T12:00:00	7	Dirección del viento	11.27
120983	7	Sololá	713	San Lucas Tolimán	10	San Lucas Tolimán	4	Abril	2023-04-29T00:00:00	2024-11-08T12:00:00	1	Precipitación	0
120984	7	Sololá	713	San Lucas Tolimán	10	San Lucas Tolimán	4	Abril	2023-04-29T00:00:00	2024-11-08T12:00:00	8	Radiación solar	1130
120985	7	Sololá	713	San Lucas Tolimán	10	San Lucas Tolimán	4	Abril	2023-04-29T00:00:00	2024-11-08T13:00:00	2	Temperatura media	22.5
120986	7	Sololá	713	San Lucas Tolimán	10	San Lucas Tolimán	4	Abril	2023-04-29T00:00:00	2024-11-08T13:00:00	4	Temperatura máxima	22.8
120987	7	Sololá	713	San Lucas Tolimán	10	San Lucas Tolimán	4	Abril	2023-04-29T00:00:00	2024-11-08T13:00:00	3	Temperatura mínima	21.9
120988	7	Sololá	713	San Lucas Tolimán	10	San Lucas Tolimán	4	Abril	2023-04-29T00:00:00	2024-11-08T13:00:00	5	Humedad	58
120989	7	Sololá	713	San Lucas Tolimán	10	San Lucas Tolimán	4	Abril	2023-04-29T00:00:00	2024-11-08T13:00:00	6	Velocidad del viento	9.7
120990	7	Sololá	713	San Lucas Tolimán	10	San Lucas Tolimán	4	Abril	2023-04-29T00:00:00	2024-11-08T13:00:00	7	Dirección del viento	9.66
120991	7	Sololá	713	San Lucas Tolimán	10	San Lucas Tolimán	4	Abril	2023-04-29T00:00:00	2024-11-08T13:00:00	1	Precipitación	0
120992	7	Sololá	713	San Lucas Tolimán	10	San Lucas Tolimán	4	Abril	2023-04-29T00:00:00	2024-11-08T13:00:00	8	Radiación solar	697
120993	7	Sololá	713	San Lucas Tolimán	10	San Lucas Tolimán	4	Abril	2023-04-29T00:00:00	2024-11-08T14:00:00	2	Temperatura media	21.4
120994	7	Sololá	713	San Lucas Tolimán	10	San Lucas Tolimán	4	Abril	2023-04-29T00:00:00	2024-11-08T14:00:00	4	Temperatura máxima	22.9
120995	7	Sololá	713	San Lucas Tolimán	10	San Lucas Tolimán	4	Abril	2023-04-29T00:00:00	2024-11-08T14:00:00	3	Temperatura mínima	21.4
120996	7	Sololá	713	San Lucas Tolimán	10	San Lucas Tolimán	4	Abril	2023-04-29T00:00:00	2024-11-08T14:00:00	5	Humedad	59
120997	7	Sololá	713	San Lucas Tolimán	10	San Lucas Tolimán	4	Abril	2023-04-29T00:00:00	2024-11-08T14:00:00	6	Velocidad del viento	9.7
120998	7	Sololá	713	San Lucas Tolimán	10	San Lucas Tolimán	4	Abril	2023-04-29T00:00:00	2024-11-08T14:00:00	7	Dirección del viento	9.66
120999	7	Sololá	713	San Lucas Tolimán	10	San Lucas Tolimán	4	Abril	2023-04-29T00:00:00	2024-11-08T14:00:00	1	Precipitación	0
121000	7	Sololá	713	San Lucas Tolimán	10	San Lucas Tolimán	4	Abril	2023-04-29T00:00:00	2024-11-08T14:00:00	8	Radiación solar	575
121001	7	Sololá	713	San Lucas Tolimán	10	San Lucas Tolimán	4	Abril	2023-04-29T00:00:00	2024-11-08T15:00:00	2	Temperatura media	21.7
121002	7	Sololá	713	San Lucas Tolimán	10	San Lucas Tolimán	4	Abril	2023-04-29T00:00:00	2024-11-08T15:00:00	4	Temperatura máxima	21.8
121003	7	Sololá	713	San Lucas Tolimán	10	San Lucas Tolimán	4	Abril	2023-04-29T00:00:00	2024-11-08T15:00:00	3	Temperatura mínima	20.5
121004	7	Sololá	713	San Lucas Tolimán	10	San Lucas Tolimán	4	Abril	2023-04-29T00:00:00	2024-11-08T15:00:00	5	Humedad	57
121005	7	Sololá	713	San Lucas Tolimán	10	San Lucas Tolimán	4	Abril	2023-04-29T00:00:00	2024-11-08T15:00:00	6	Velocidad del viento	9.7
121006	7	Sololá	713	San Lucas Tolimán	10	San Lucas Tolimán	4	Abril	2023-04-29T00:00:00	2024-11-08T15:00:00	7	Dirección del viento	9.66
121007	7	Sololá	713	San Lucas Tolimán	10	San Lucas Tolimán	4	Abril	2023-04-29T00:00:00	2024-11-08T15:00:00	1	Precipitación	0
121008	7	Sololá	713	San Lucas Tolimán	10	San Lucas Tolimán	4	Abril	2023-04-29T00:00:00	2024-11-08T15:00:00	8	Radiación solar	434
121009	7	Sololá	713	San Lucas Tolimán	10	San Lucas Tolimán	4	Abril	2023-04-29T00:00:00	2024-11-08T16:00:00	2	Temperatura media	20.4
121010	7	Sololá	713	San Lucas Tolimán	10	San Lucas Tolimán	4	Abril	2023-04-29T00:00:00	2024-11-08T16:00:00	4	Temperatura máxima	21.7
121011	7	Sololá	713	San Lucas Tolimán	10	San Lucas Tolimán	4	Abril	2023-04-29T00:00:00	2024-11-08T16:00:00	3	Temperatura mínima	20.4
121012	7	Sololá	713	San Lucas Tolimán	10	San Lucas Tolimán	4	Abril	2023-04-29T00:00:00	2024-11-08T16:00:00	5	Humedad	60
121013	7	Sololá	713	San Lucas Tolimán	10	San Lucas Tolimán	4	Abril	2023-04-29T00:00:00	2024-11-08T16:00:00	6	Velocidad del viento	9.7
121014	7	Sololá	713	San Lucas Tolimán	10	San Lucas Tolimán	4	Abril	2023-04-29T00:00:00	2024-11-08T16:00:00	7	Dirección del viento	9.66
121015	7	Sololá	713	San Lucas Tolimán	10	San Lucas Tolimán	4	Abril	2023-04-29T00:00:00	2024-11-08T16:00:00	1	Precipitación	0
121016	7	Sololá	713	San Lucas Tolimán	10	San Lucas Tolimán	4	Abril	2023-04-29T00:00:00	2024-11-08T16:00:00	8	Radiación solar	238
121017	7	Sololá	713	San Lucas Tolimán	10	San Lucas Tolimán	4	Abril	2023-04-29T00:00:00	2024-11-08T17:00:00	2	Temperatura media	20.5
121018	7	Sololá	713	San Lucas Tolimán	10	San Lucas Tolimán	4	Abril	2023-04-29T00:00:00	2024-11-08T17:00:00	4	Temperatura máxima	20.7
121019	7	Sololá	713	San Lucas Tolimán	10	San Lucas Tolimán	4	Abril	2023-04-29T00:00:00	2024-11-08T17:00:00	3	Temperatura mínima	20.4
121020	7	Sololá	713	San Lucas Tolimán	10	San Lucas Tolimán	4	Abril	2023-04-29T00:00:00	2024-11-08T17:00:00	5	Humedad	60
121021	7	Sololá	713	San Lucas Tolimán	10	San Lucas Tolimán	4	Abril	2023-04-29T00:00:00	2024-11-08T17:00:00	6	Velocidad del viento	4.8
121022	7	Sololá	713	San Lucas Tolimán	10	San Lucas Tolimán	4	Abril	2023-04-29T00:00:00	2024-11-08T17:00:00	7	Dirección del viento	4.83
121023	7	Sololá	713	San Lucas Tolimán	10	San Lucas Tolimán	4	Abril	2023-04-29T00:00:00	2024-11-08T17:00:00	1	Precipitación	0
121024	7	Sololá	713	San Lucas Tolimán	10	San Lucas Tolimán	4	Abril	2023-04-29T00:00:00	2024-11-08T17:00:00	8	Radiación solar	87
121025	7	Sololá	713	San Lucas Tolimán	10	San Lucas Tolimán	4	Abril	2023-04-29T00:00:00	2024-11-08T18:00:00	2	Temperatura media	19.8
121026	7	Sololá	713	San Lucas Tolimán	10	San Lucas Tolimán	4	Abril	2023-04-29T00:00:00	2024-11-08T18:00:00	4	Temperatura máxima	20.5
121027	7	Sololá	713	San Lucas Tolimán	10	San Lucas Tolimán	4	Abril	2023-04-29T00:00:00	2024-11-08T18:00:00	3	Temperatura mínima	19.8
121028	7	Sololá	713	San Lucas Tolimán	10	San Lucas Tolimán	4	Abril	2023-04-29T00:00:00	2024-11-08T18:00:00	5	Humedad	64
121029	7	Sololá	713	San Lucas Tolimán	10	San Lucas Tolimán	4	Abril	2023-04-29T00:00:00	2024-11-08T18:00:00	6	Velocidad del viento	4.8
121030	7	Sololá	713	San Lucas Tolimán	10	San Lucas Tolimán	4	Abril	2023-04-29T00:00:00	2024-11-08T18:00:00	7	Dirección del viento	4.83
121031	7	Sololá	713	San Lucas Tolimán	10	San Lucas Tolimán	4	Abril	2023-04-29T00:00:00	2024-11-08T18:00:00	1	Precipitación	0
121032	7	Sololá	713	San Lucas Tolimán	10	San Lucas Tolimán	4	Abril	2023-04-29T00:00:00	2024-11-08T18:00:00	8	Radiación solar	80
121033	7	Sololá	713	San Lucas Tolimán	10	San Lucas Tolimán	4	Abril	2023-04-29T00:00:00	2024-11-08T19:00:00	2	Temperatura media	19.4
121034	7	Sololá	713	San Lucas Tolimán	10	San Lucas Tolimán	4	Abril	2023-04-29T00:00:00	2024-11-08T19:00:00	4	Temperatura máxima	19.8
121035	7	Sololá	713	San Lucas Tolimán	10	San Lucas Tolimán	4	Abril	2023-04-29T00:00:00	2024-11-08T19:00:00	3	Temperatura mínima	19.3
121036	7	Sololá	713	San Lucas Tolimán	10	San Lucas Tolimán	4	Abril	2023-04-29T00:00:00	2024-11-08T19:00:00	5	Humedad	65
121037	7	Sololá	713	San Lucas Tolimán	10	San Lucas Tolimán	4	Abril	2023-04-29T00:00:00	2024-11-08T19:00:00	6	Velocidad del viento	4.8
121038	7	Sololá	713	San Lucas Tolimán	10	San Lucas Tolimán	4	Abril	2023-04-29T00:00:00	2024-11-08T19:00:00	7	Dirección del viento	4.83
121039	7	Sololá	713	San Lucas Tolimán	10	San Lucas Tolimán	4	Abril	2023-04-29T00:00:00	2024-11-08T19:00:00	1	Precipitación	0
121040	7	Sololá	713	San Lucas Tolimán	10	San Lucas Tolimán	4	Abril	2023-04-29T00:00:00	2024-11-08T19:00:00	8	Radiación solar	0
121041	7	Sololá	713	San Lucas Tolimán	10	San Lucas Tolimán	4	Abril	2023-04-29T00:00:00	2024-11-08T20:00:00	2	Temperatura media	18.7
121042	7	Sololá	713	San Lucas Tolimán	10	San Lucas Tolimán	4	Abril	2023-04-29T00:00:00	2024-11-08T20:00:00	4	Temperatura máxima	19.4
121043	7	Sololá	713	San Lucas Tolimán	10	San Lucas Tolimán	4	Abril	2023-04-29T00:00:00	2024-11-08T20:00:00	3	Temperatura mínima	18.7
121044	7	Sololá	713	San Lucas Tolimán	10	San Lucas Tolimán	4	Abril	2023-04-29T00:00:00	2024-11-08T20:00:00	5	Humedad	64
121045	7	Sololá	713	San Lucas Tolimán	10	San Lucas Tolimán	4	Abril	2023-04-29T00:00:00	2024-11-08T20:00:00	6	Velocidad del viento	3.2
121046	7	Sololá	713	San Lucas Tolimán	10	San Lucas Tolimán	4	Abril	2023-04-29T00:00:00	2024-11-08T20:00:00	7	Dirección del viento	3.22
121047	7	Sololá	713	San Lucas Tolimán	10	San Lucas Tolimán	4	Abril	2023-04-29T00:00:00	2024-11-08T20:00:00	1	Precipitación	0
121048	7	Sololá	713	San Lucas Tolimán	10	San Lucas Tolimán	4	Abril	2023-04-29T00:00:00	2024-11-08T20:00:00	8	Radiación solar	0
121049	7	Sololá	713	San Lucas Tolimán	10	San Lucas Tolimán	4	Abril	2023-04-29T00:00:00	2024-11-08T21:00:00	2	Temperatura media	18.2
121050	7	Sololá	713	San Lucas Tolimán	10	San Lucas Tolimán	4	Abril	2023-04-29T00:00:00	2024-11-08T21:00:00	4	Temperatura máxima	18.9
121051	7	Sololá	713	San Lucas Tolimán	10	San Lucas Tolimán	4	Abril	2023-04-29T00:00:00	2024-11-08T21:00:00	3	Temperatura mínima	18.2
121052	7	Sololá	713	San Lucas Tolimán	10	San Lucas Tolimán	4	Abril	2023-04-29T00:00:00	2024-11-08T21:00:00	5	Humedad	66
121053	7	Sololá	713	San Lucas Tolimán	10	San Lucas Tolimán	4	Abril	2023-04-29T00:00:00	2024-11-08T21:00:00	6	Velocidad del viento	4.8
121054	7	Sololá	713	San Lucas Tolimán	10	San Lucas Tolimán	4	Abril	2023-04-29T00:00:00	2024-11-08T21:00:00	7	Dirección del viento	4.83
121055	7	Sololá	713	San Lucas Tolimán	10	San Lucas Tolimán	4	Abril	2023-04-29T00:00:00	2024-11-08T21:00:00	1	Precipitación	0
121056	7	Sololá	713	San Lucas Tolimán	10	San Lucas Tolimán	4	Abril	2023-04-29T00:00:00	2024-11-08T21:00:00	8	Radiación solar	0
121057	7	Sololá	713	San Lucas Tolimán	10	San Lucas Tolimán	4	Abril	2023-04-29T00:00:00	2024-11-08T22:00:00	2	Temperatura media	18.1
121058	7	Sololá	713	San Lucas Tolimán	10	San Lucas Tolimán	4	Abril	2023-04-29T00:00:00	2024-11-08T22:00:00	4	Temperatura máxima	18.2
121059	7	Sololá	713	San Lucas Tolimán	10	San Lucas Tolimán	4	Abril	2023-04-29T00:00:00	2024-11-08T22:00:00	3	Temperatura mínima	17.9
121060	7	Sololá	713	San Lucas Tolimán	10	San Lucas Tolimán	4	Abril	2023-04-29T00:00:00	2024-11-08T22:00:00	5	Humedad	64
121061	7	Sololá	713	San Lucas Tolimán	10	San Lucas Tolimán	4	Abril	2023-04-29T00:00:00	2024-11-08T22:00:00	6	Velocidad del viento	0
121062	7	Sololá	713	San Lucas Tolimán	10	San Lucas Tolimán	4	Abril	2023-04-29T00:00:00	2024-11-08T22:00:00	7	Dirección del viento	0
121063	7	Sololá	713	San Lucas Tolimán	10	San Lucas Tolimán	4	Abril	2023-04-29T00:00:00	2024-11-08T22:00:00	1	Precipitación	0
121064	7	Sololá	713	San Lucas Tolimán	10	San Lucas Tolimán	4	Abril	2023-04-29T00:00:00	2024-11-08T22:00:00	8	Radiación solar	0
121065	7	Sololá	713	San Lucas Tolimán	10	San Lucas Tolimán	4	Abril	2023-04-29T00:00:00	2024-11-08T23:00:00	2	Temperatura media	18.4
121066	7	Sololá	713	San Lucas Tolimán	10	San Lucas Tolimán	4	Abril	2023-04-29T00:00:00	2024-11-08T23:00:00	4	Temperatura máxima	18.5
121067	7	Sololá	713	San Lucas Tolimán	10	San Lucas Tolimán	4	Abril	2023-04-29T00:00:00	2024-11-08T23:00:00	3	Temperatura mínima	18.1
121068	7	Sololá	713	San Lucas Tolimán	10	San Lucas Tolimán	4	Abril	2023-04-29T00:00:00	2024-11-08T23:00:00	5	Humedad	64
121069	7	Sololá	713	San Lucas Tolimán	10	San Lucas Tolimán	4	Abril	2023-04-29T00:00:00	2024-11-08T23:00:00	6	Velocidad del viento	1.6
121070	7	Sololá	713	San Lucas Tolimán	10	San Lucas Tolimán	4	Abril	2023-04-29T00:00:00	2024-11-08T23:00:00	7	Dirección del viento	1.61
121071	7	Sololá	713	San Lucas Tolimán	10	San Lucas Tolimán	4	Abril	2023-04-29T00:00:00	2024-11-08T23:00:00	1	Precipitación	0
121072	7	Sololá	713	San Lucas Tolimán	10	San Lucas Tolimán	4	Abril	2023-04-29T00:00:00	2024-11-08T23:00:00	8	Radiación solar	0
121073	7	Sololá	713	San Lucas Tolimán	10	San Lucas Tolimán	4	Abril	2023-04-30T00:00:00	2024-11-08T00:00:00	2	Temperatura media	17.6
121074	7	Sololá	713	San Lucas Tolimán	10	San Lucas Tolimán	4	Abril	2023-04-30T00:00:00	2024-11-08T00:00:00	4	Temperatura máxima	18.5
121075	7	Sololá	713	San Lucas Tolimán	10	San Lucas Tolimán	4	Abril	2023-04-30T00:00:00	2024-11-08T00:00:00	3	Temperatura mínima	17.6
121076	7	Sololá	713	San Lucas Tolimán	10	San Lucas Tolimán	4	Abril	2023-04-30T00:00:00	2024-11-08T00:00:00	5	Humedad	65
121077	7	Sololá	713	San Lucas Tolimán	10	San Lucas Tolimán	4	Abril	2023-04-30T00:00:00	2024-11-08T00:00:00	6	Velocidad del viento	3.2
121078	7	Sololá	713	San Lucas Tolimán	10	San Lucas Tolimán	4	Abril	2023-04-30T00:00:00	2024-11-08T00:00:00	7	Dirección del viento	3.22
121079	7	Sololá	713	San Lucas Tolimán	10	San Lucas Tolimán	4	Abril	2023-04-30T00:00:00	2024-11-08T00:00:00	1	Precipitación	0
121080	7	Sololá	713	San Lucas Tolimán	10	San Lucas Tolimán	4	Abril	2023-04-30T00:00:00	2024-11-08T00:00:00	8	Radiación solar	0
121081	7	Sololá	713	San Lucas Tolimán	10	San Lucas Tolimán	4	Abril	2023-04-30T00:00:00	2024-11-08T01:00:00	2	Temperatura media	17.1
121082	7	Sololá	713	San Lucas Tolimán	10	San Lucas Tolimán	4	Abril	2023-04-30T00:00:00	2024-11-08T01:00:00	4	Temperatura máxima	17.6
121083	7	Sololá	713	San Lucas Tolimán	10	San Lucas Tolimán	4	Abril	2023-04-30T00:00:00	2024-11-08T01:00:00	3	Temperatura mínima	17.1
121084	7	Sololá	713	San Lucas Tolimán	10	San Lucas Tolimán	4	Abril	2023-04-30T00:00:00	2024-11-08T01:00:00	5	Humedad	64
121085	7	Sololá	713	San Lucas Tolimán	10	San Lucas Tolimán	4	Abril	2023-04-30T00:00:00	2024-11-08T01:00:00	6	Velocidad del viento	1.6
121086	7	Sololá	713	San Lucas Tolimán	10	San Lucas Tolimán	4	Abril	2023-04-30T00:00:00	2024-11-08T01:00:00	7	Dirección del viento	1.61
121087	7	Sololá	713	San Lucas Tolimán	10	San Lucas Tolimán	4	Abril	2023-04-30T00:00:00	2024-11-08T01:00:00	1	Precipitación	0
121088	7	Sololá	713	San Lucas Tolimán	10	San Lucas Tolimán	4	Abril	2023-04-30T00:00:00	2024-11-08T01:00:00	8	Radiación solar	0
121089	7	Sololá	713	San Lucas Tolimán	10	San Lucas Tolimán	4	Abril	2023-04-30T00:00:00	2024-11-08T02:00:00	2	Temperatura media	16.4
121090	7	Sololá	713	San Lucas Tolimán	10	San Lucas Tolimán	4	Abril	2023-04-30T00:00:00	2024-11-08T02:00:00	4	Temperatura máxima	17.1
121091	7	Sololá	713	San Lucas Tolimán	10	San Lucas Tolimán	4	Abril	2023-04-30T00:00:00	2024-11-08T02:00:00	3	Temperatura mínima	16.4
121092	7	Sololá	713	San Lucas Tolimán	10	San Lucas Tolimán	4	Abril	2023-04-30T00:00:00	2024-11-08T02:00:00	5	Humedad	64
121093	7	Sololá	713	San Lucas Tolimán	10	San Lucas Tolimán	4	Abril	2023-04-30T00:00:00	2024-11-08T02:00:00	6	Velocidad del viento	1.6
121094	7	Sololá	713	San Lucas Tolimán	10	San Lucas Tolimán	4	Abril	2023-04-30T00:00:00	2024-11-08T02:00:00	7	Dirección del viento	1.61
121095	7	Sololá	713	San Lucas Tolimán	10	San Lucas Tolimán	4	Abril	2023-04-30T00:00:00	2024-11-08T02:00:00	1	Precipitación	0
121096	7	Sololá	713	San Lucas Tolimán	10	San Lucas Tolimán	4	Abril	2023-04-30T00:00:00	2024-11-08T02:00:00	8	Radiación solar	0
121097	7	Sololá	713	San Lucas Tolimán	10	San Lucas Tolimán	4	Abril	2023-04-30T00:00:00	2024-11-08T03:00:00	2	Temperatura media	16.4
121098	7	Sololá	713	San Lucas Tolimán	10	San Lucas Tolimán	4	Abril	2023-04-30T00:00:00	2024-11-08T03:00:00	4	Temperatura máxima	16.4
121099	7	Sololá	713	San Lucas Tolimán	10	San Lucas Tolimán	4	Abril	2023-04-30T00:00:00	2024-11-08T03:00:00	3	Temperatura mínima	15.9
121100	7	Sololá	713	San Lucas Tolimán	10	San Lucas Tolimán	4	Abril	2023-04-30T00:00:00	2024-11-08T03:00:00	5	Humedad	62
121101	7	Sololá	713	San Lucas Tolimán	10	San Lucas Tolimán	4	Abril	2023-04-30T00:00:00	2024-11-08T03:00:00	6	Velocidad del viento	1.6
121102	7	Sololá	713	San Lucas Tolimán	10	San Lucas Tolimán	4	Abril	2023-04-30T00:00:00	2024-11-08T03:00:00	7	Dirección del viento	1.61
121103	7	Sololá	713	San Lucas Tolimán	10	San Lucas Tolimán	4	Abril	2023-04-30T00:00:00	2024-11-08T03:00:00	1	Precipitación	0
121104	7	Sololá	713	San Lucas Tolimán	10	San Lucas Tolimán	4	Abril	2023-04-30T00:00:00	2024-11-08T03:00:00	8	Radiación solar	0
121105	7	Sololá	713	San Lucas Tolimán	10	San Lucas Tolimán	4	Abril	2023-04-30T00:00:00	2024-11-08T04:00:00	2	Temperatura media	16.2
121106	7	Sololá	713	San Lucas Tolimán	10	San Lucas Tolimán	4	Abril	2023-04-30T00:00:00	2024-11-08T04:00:00	4	Temperatura máxima	16.8
121107	7	Sololá	713	San Lucas Tolimán	10	San Lucas Tolimán	4	Abril	2023-04-30T00:00:00	2024-11-08T04:00:00	3	Temperatura mínima	16.1
121108	7	Sololá	713	San Lucas Tolimán	10	San Lucas Tolimán	4	Abril	2023-04-30T00:00:00	2024-11-08T04:00:00	5	Humedad	63
121109	7	Sololá	713	San Lucas Tolimán	10	San Lucas Tolimán	4	Abril	2023-04-30T00:00:00	2024-11-08T04:00:00	6	Velocidad del viento	0
121110	7	Sololá	713	San Lucas Tolimán	10	San Lucas Tolimán	4	Abril	2023-04-30T00:00:00	2024-11-08T04:00:00	7	Dirección del viento	0
121111	7	Sololá	713	San Lucas Tolimán	10	San Lucas Tolimán	4	Abril	2023-04-30T00:00:00	2024-11-08T04:00:00	1	Precipitación	0
121112	7	Sololá	713	San Lucas Tolimán	10	San Lucas Tolimán	4	Abril	2023-04-30T00:00:00	2024-11-08T04:00:00	8	Radiación solar	0
121113	7	Sololá	713	San Lucas Tolimán	10	San Lucas Tolimán	4	Abril	2023-04-30T00:00:00	2024-11-08T05:00:00	2	Temperatura media	18.4
121114	7	Sololá	713	San Lucas Tolimán	10	San Lucas Tolimán	4	Abril	2023-04-30T00:00:00	2024-11-08T05:00:00	4	Temperatura máxima	18.4
121115	7	Sololá	713	San Lucas Tolimán	10	San Lucas Tolimán	4	Abril	2023-04-30T00:00:00	2024-11-08T05:00:00	3	Temperatura mínima	16.2
121116	7	Sololá	713	San Lucas Tolimán	10	San Lucas Tolimán	4	Abril	2023-04-30T00:00:00	2024-11-08T05:00:00	5	Humedad	56
121117	7	Sololá	713	San Lucas Tolimán	10	San Lucas Tolimán	4	Abril	2023-04-30T00:00:00	2024-11-08T05:00:00	6	Velocidad del viento	4.8
121118	7	Sololá	713	San Lucas Tolimán	10	San Lucas Tolimán	4	Abril	2023-04-30T00:00:00	2024-11-08T05:00:00	7	Dirección del viento	4.83
121119	7	Sololá	713	San Lucas Tolimán	10	San Lucas Tolimán	4	Abril	2023-04-30T00:00:00	2024-11-08T05:00:00	1	Precipitación	0
121120	7	Sololá	713	San Lucas Tolimán	10	San Lucas Tolimán	4	Abril	2023-04-30T00:00:00	2024-11-08T05:00:00	8	Radiación solar	0
121121	7	Sololá	713	San Lucas Tolimán	10	San Lucas Tolimán	4	Abril	2023-04-30T00:00:00	2024-11-08T06:00:00	2	Temperatura media	17.9
121122	7	Sololá	713	San Lucas Tolimán	10	San Lucas Tolimán	4	Abril	2023-04-30T00:00:00	2024-11-08T06:00:00	4	Temperatura máxima	18.4
121123	7	Sololá	713	San Lucas Tolimán	10	San Lucas Tolimán	4	Abril	2023-04-30T00:00:00	2024-11-08T06:00:00	3	Temperatura mínima	17.9
121124	7	Sololá	713	San Lucas Tolimán	10	San Lucas Tolimán	4	Abril	2023-04-30T00:00:00	2024-11-08T06:00:00	5	Humedad	57
121125	7	Sololá	713	San Lucas Tolimán	10	San Lucas Tolimán	4	Abril	2023-04-30T00:00:00	2024-11-08T06:00:00	6	Velocidad del viento	3.2
121126	7	Sololá	713	San Lucas Tolimán	10	San Lucas Tolimán	4	Abril	2023-04-30T00:00:00	2024-11-08T06:00:00	7	Dirección del viento	3.22
121127	7	Sololá	713	San Lucas Tolimán	10	San Lucas Tolimán	4	Abril	2023-04-30T00:00:00	2024-11-08T06:00:00	1	Precipitación	0
121128	7	Sololá	713	San Lucas Tolimán	10	San Lucas Tolimán	4	Abril	2023-04-30T00:00:00	2024-11-08T06:00:00	8	Radiación solar	2
121129	7	Sololá	713	San Lucas Tolimán	10	San Lucas Tolimán	4	Abril	2023-04-30T00:00:00	2024-11-08T07:00:00	2	Temperatura media	19.6
121130	7	Sololá	713	San Lucas Tolimán	10	San Lucas Tolimán	4	Abril	2023-04-30T00:00:00	2024-11-08T07:00:00	4	Temperatura máxima	19.6
121131	7	Sololá	713	San Lucas Tolimán	10	San Lucas Tolimán	4	Abril	2023-04-30T00:00:00	2024-11-08T07:00:00	3	Temperatura mínima	17.7
121132	7	Sololá	713	San Lucas Tolimán	10	San Lucas Tolimán	4	Abril	2023-04-30T00:00:00	2024-11-08T07:00:00	5	Humedad	55
121133	7	Sololá	713	San Lucas Tolimán	10	San Lucas Tolimán	4	Abril	2023-04-30T00:00:00	2024-11-08T07:00:00	6	Velocidad del viento	3.2
121134	7	Sololá	713	San Lucas Tolimán	10	San Lucas Tolimán	4	Abril	2023-04-30T00:00:00	2024-11-08T07:00:00	7	Dirección del viento	3.22
121135	7	Sololá	713	San Lucas Tolimán	10	San Lucas Tolimán	4	Abril	2023-04-30T00:00:00	2024-11-08T07:00:00	1	Precipitación	0
121136	7	Sololá	713	San Lucas Tolimán	10	San Lucas Tolimán	4	Abril	2023-04-30T00:00:00	2024-11-08T07:00:00	8	Radiación solar	83
121137	7	Sololá	713	San Lucas Tolimán	10	San Lucas Tolimán	4	Abril	2023-04-30T00:00:00	2024-11-08T08:00:00	2	Temperatura media	21.7
121138	7	Sololá	713	San Lucas Tolimán	10	San Lucas Tolimán	4	Abril	2023-04-30T00:00:00	2024-11-08T08:00:00	4	Temperatura máxima	21.7
121139	7	Sololá	713	San Lucas Tolimán	10	San Lucas Tolimán	4	Abril	2023-04-30T00:00:00	2024-11-08T08:00:00	3	Temperatura mínima	19.6
121140	7	Sololá	713	San Lucas Tolimán	10	San Lucas Tolimán	4	Abril	2023-04-30T00:00:00	2024-11-08T08:00:00	5	Humedad	47
121141	7	Sololá	713	San Lucas Tolimán	10	San Lucas Tolimán	4	Abril	2023-04-30T00:00:00	2024-11-08T08:00:00	6	Velocidad del viento	8
121142	7	Sololá	713	San Lucas Tolimán	10	San Lucas Tolimán	4	Abril	2023-04-30T00:00:00	2024-11-08T08:00:00	7	Dirección del viento	8.05
121143	7	Sololá	713	San Lucas Tolimán	10	San Lucas Tolimán	4	Abril	2023-04-30T00:00:00	2024-11-08T08:00:00	1	Precipitación	0
121144	7	Sololá	713	San Lucas Tolimán	10	San Lucas Tolimán	4	Abril	2023-04-30T00:00:00	2024-11-08T08:00:00	8	Radiación solar	284
121145	7	Sololá	713	San Lucas Tolimán	10	San Lucas Tolimán	4	Abril	2023-04-30T00:00:00	2024-11-08T09:00:00	2	Temperatura media	23.4
121146	7	Sololá	713	San Lucas Tolimán	10	San Lucas Tolimán	4	Abril	2023-04-30T00:00:00	2024-11-08T09:00:00	4	Temperatura máxima	23.6
121147	7	Sololá	713	San Lucas Tolimán	10	San Lucas Tolimán	4	Abril	2023-04-30T00:00:00	2024-11-08T09:00:00	3	Temperatura mínima	21.7
121148	7	Sololá	713	San Lucas Tolimán	10	San Lucas Tolimán	4	Abril	2023-04-30T00:00:00	2024-11-08T09:00:00	5	Humedad	52
121149	7	Sololá	713	San Lucas Tolimán	10	San Lucas Tolimán	4	Abril	2023-04-30T00:00:00	2024-11-08T09:00:00	6	Velocidad del viento	4.8
121150	7	Sololá	713	San Lucas Tolimán	10	San Lucas Tolimán	4	Abril	2023-04-30T00:00:00	2024-11-08T09:00:00	7	Dirección del viento	4.83
121151	7	Sololá	713	San Lucas Tolimán	10	San Lucas Tolimán	4	Abril	2023-04-30T00:00:00	2024-11-08T09:00:00	1	Precipitación	0
121152	7	Sololá	713	San Lucas Tolimán	10	San Lucas Tolimán	4	Abril	2023-04-30T00:00:00	2024-11-08T09:00:00	8	Radiación solar	519
121153	7	Sololá	713	San Lucas Tolimán	10	San Lucas Tolimán	4	Abril	2023-04-30T00:00:00	2024-11-08T10:00:00	2	Temperatura media	23.2
121154	7	Sololá	713	San Lucas Tolimán	10	San Lucas Tolimán	4	Abril	2023-04-30T00:00:00	2024-11-08T10:00:00	4	Temperatura máxima	24.3
121155	7	Sololá	713	San Lucas Tolimán	10	San Lucas Tolimán	4	Abril	2023-04-30T00:00:00	2024-11-08T10:00:00	3	Temperatura mínima	23.2
121156	7	Sololá	713	San Lucas Tolimán	10	San Lucas Tolimán	4	Abril	2023-04-30T00:00:00	2024-11-08T10:00:00	5	Humedad	58
121157	7	Sololá	713	San Lucas Tolimán	10	San Lucas Tolimán	4	Abril	2023-04-30T00:00:00	2024-11-08T10:00:00	6	Velocidad del viento	8
121158	7	Sololá	713	San Lucas Tolimán	10	San Lucas Tolimán	4	Abril	2023-04-30T00:00:00	2024-11-08T10:00:00	7	Dirección del viento	8.05
121159	7	Sololá	713	San Lucas Tolimán	10	San Lucas Tolimán	4	Abril	2023-04-30T00:00:00	2024-11-08T10:00:00	1	Precipitación	0
121160	7	Sololá	713	San Lucas Tolimán	10	San Lucas Tolimán	4	Abril	2023-04-30T00:00:00	2024-11-08T10:00:00	8	Radiación solar	681
121161	7	Sololá	713	San Lucas Tolimán	10	San Lucas Tolimán	4	Abril	2023-04-30T00:00:00	2024-11-08T11:00:00	2	Temperatura media	23.4
121162	7	Sololá	713	San Lucas Tolimán	10	San Lucas Tolimán	4	Abril	2023-04-30T00:00:00	2024-11-08T11:00:00	4	Temperatura máxima	23.8
121163	7	Sololá	713	San Lucas Tolimán	10	San Lucas Tolimán	4	Abril	2023-04-30T00:00:00	2024-11-08T11:00:00	3	Temperatura mínima	23.2
121164	7	Sololá	713	San Lucas Tolimán	10	San Lucas Tolimán	4	Abril	2023-04-30T00:00:00	2024-11-08T11:00:00	5	Humedad	58
121165	7	Sololá	713	San Lucas Tolimán	10	San Lucas Tolimán	4	Abril	2023-04-30T00:00:00	2024-11-08T11:00:00	6	Velocidad del viento	11.3
121166	7	Sololá	713	San Lucas Tolimán	10	San Lucas Tolimán	4	Abril	2023-04-30T00:00:00	2024-11-08T11:00:00	7	Dirección del viento	11.27
121167	7	Sololá	713	San Lucas Tolimán	10	San Lucas Tolimán	4	Abril	2023-04-30T00:00:00	2024-11-08T11:00:00	1	Precipitación	0
121168	7	Sololá	713	San Lucas Tolimán	10	San Lucas Tolimán	4	Abril	2023-04-30T00:00:00	2024-11-08T11:00:00	8	Radiación solar	961
121169	7	Sololá	713	San Lucas Tolimán	10	San Lucas Tolimán	4	Abril	2023-04-30T00:00:00	2024-11-08T12:00:00	2	Temperatura media	23.1
121170	7	Sololá	713	San Lucas Tolimán	10	San Lucas Tolimán	4	Abril	2023-04-30T00:00:00	2024-11-08T12:00:00	4	Temperatura máxima	23.4
121171	7	Sololá	713	San Lucas Tolimán	10	San Lucas Tolimán	4	Abril	2023-04-30T00:00:00	2024-11-08T12:00:00	3	Temperatura mínima	23
121172	7	Sololá	713	San Lucas Tolimán	10	San Lucas Tolimán	4	Abril	2023-04-30T00:00:00	2024-11-08T12:00:00	5	Humedad	61
121173	7	Sololá	713	San Lucas Tolimán	10	San Lucas Tolimán	4	Abril	2023-04-30T00:00:00	2024-11-08T12:00:00	6	Velocidad del viento	14.5
121174	7	Sololá	713	San Lucas Tolimán	10	San Lucas Tolimán	4	Abril	2023-04-30T00:00:00	2024-11-08T12:00:00	7	Dirección del viento	14.48
121175	7	Sololá	713	San Lucas Tolimán	10	San Lucas Tolimán	4	Abril	2023-04-30T00:00:00	2024-11-08T12:00:00	1	Precipitación	0
121176	7	Sololá	713	San Lucas Tolimán	10	San Lucas Tolimán	4	Abril	2023-04-30T00:00:00	2024-11-08T12:00:00	8	Radiación solar	1096
121177	7	Sololá	713	San Lucas Tolimán	10	San Lucas Tolimán	4	Abril	2023-04-30T00:00:00	2024-11-08T13:00:00	2	Temperatura media	21.7
121178	7	Sololá	713	San Lucas Tolimán	10	San Lucas Tolimán	4	Abril	2023-04-30T00:00:00	2024-11-08T13:00:00	4	Temperatura máxima	23.1
121179	7	Sololá	713	San Lucas Tolimán	10	San Lucas Tolimán	4	Abril	2023-04-30T00:00:00	2024-11-08T13:00:00	3	Temperatura mínima	21.4
121180	7	Sololá	713	San Lucas Tolimán	10	San Lucas Tolimán	4	Abril	2023-04-30T00:00:00	2024-11-08T13:00:00	5	Humedad	61
121181	7	Sololá	713	San Lucas Tolimán	10	San Lucas Tolimán	4	Abril	2023-04-30T00:00:00	2024-11-08T13:00:00	6	Velocidad del viento	14.5
121182	7	Sololá	713	San Lucas Tolimán	10	San Lucas Tolimán	4	Abril	2023-04-30T00:00:00	2024-11-08T13:00:00	7	Dirección del viento	14.48
121183	7	Sololá	713	San Lucas Tolimán	10	San Lucas Tolimán	4	Abril	2023-04-30T00:00:00	2024-11-08T13:00:00	1	Precipitación	0
121184	7	Sololá	713	San Lucas Tolimán	10	San Lucas Tolimán	4	Abril	2023-04-30T00:00:00	2024-11-08T13:00:00	8	Radiación solar	519
121185	7	Sololá	713	San Lucas Tolimán	10	San Lucas Tolimán	4	Abril	2023-04-30T00:00:00	2024-11-08T14:00:00	2	Temperatura media	22.4
121186	7	Sololá	713	San Lucas Tolimán	10	San Lucas Tolimán	4	Abril	2023-04-30T00:00:00	2024-11-08T14:00:00	4	Temperatura máxima	23.1
121187	7	Sololá	713	San Lucas Tolimán	10	San Lucas Tolimán	4	Abril	2023-04-30T00:00:00	2024-11-08T14:00:00	3	Temperatura mínima	21.7
121188	7	Sololá	713	San Lucas Tolimán	10	San Lucas Tolimán	4	Abril	2023-04-30T00:00:00	2024-11-08T14:00:00	5	Humedad	59
121189	7	Sololá	713	San Lucas Tolimán	10	San Lucas Tolimán	4	Abril	2023-04-30T00:00:00	2024-11-08T14:00:00	6	Velocidad del viento	12.9
121190	7	Sololá	713	San Lucas Tolimán	10	San Lucas Tolimán	4	Abril	2023-04-30T00:00:00	2024-11-08T14:00:00	7	Dirección del viento	12.87
121191	7	Sololá	713	San Lucas Tolimán	10	San Lucas Tolimán	4	Abril	2023-04-30T00:00:00	2024-11-08T14:00:00	1	Precipitación	0
121192	7	Sololá	713	San Lucas Tolimán	10	San Lucas Tolimán	4	Abril	2023-04-30T00:00:00	2024-11-08T14:00:00	8	Radiación solar	878
121193	7	Sololá	713	San Lucas Tolimán	10	San Lucas Tolimán	4	Abril	2023-04-30T00:00:00	2024-11-08T15:00:00	2	Temperatura media	22
121194	7	Sololá	713	San Lucas Tolimán	10	San Lucas Tolimán	4	Abril	2023-04-30T00:00:00	2024-11-08T15:00:00	4	Temperatura máxima	22.4
121195	7	Sololá	713	San Lucas Tolimán	10	San Lucas Tolimán	4	Abril	2023-04-30T00:00:00	2024-11-08T15:00:00	3	Temperatura mínima	22
121196	7	Sololá	713	San Lucas Tolimán	10	San Lucas Tolimán	4	Abril	2023-04-30T00:00:00	2024-11-08T15:00:00	5	Humedad	61
121197	7	Sololá	713	San Lucas Tolimán	10	San Lucas Tolimán	4	Abril	2023-04-30T00:00:00	2024-11-08T15:00:00	6	Velocidad del viento	11.3
121198	7	Sololá	713	San Lucas Tolimán	10	San Lucas Tolimán	4	Abril	2023-04-30T00:00:00	2024-11-08T15:00:00	7	Dirección del viento	11.27
121199	7	Sololá	713	San Lucas Tolimán	10	San Lucas Tolimán	4	Abril	2023-04-30T00:00:00	2024-11-08T15:00:00	1	Precipitación	0
121200	7	Sololá	713	San Lucas Tolimán	10	San Lucas Tolimán	4	Abril	2023-04-30T00:00:00	2024-11-08T15:00:00	8	Radiación solar	611
121201	7	Sololá	713	San Lucas Tolimán	10	San Lucas Tolimán	4	Abril	2023-04-30T00:00:00	2024-11-08T16:00:00	2	Temperatura media	21.2
121202	7	Sololá	713	San Lucas Tolimán	10	San Lucas Tolimán	4	Abril	2023-04-30T00:00:00	2024-11-08T16:00:00	4	Temperatura máxima	22.1
121203	7	Sololá	713	San Lucas Tolimán	10	San Lucas Tolimán	4	Abril	2023-04-30T00:00:00	2024-11-08T16:00:00	3	Temperatura mínima	21.2
121204	7	Sololá	713	San Lucas Tolimán	10	San Lucas Tolimán	4	Abril	2023-04-30T00:00:00	2024-11-08T16:00:00	5	Humedad	62
121205	7	Sololá	713	San Lucas Tolimán	10	San Lucas Tolimán	4	Abril	2023-04-30T00:00:00	2024-11-08T16:00:00	6	Velocidad del viento	9.7
121206	7	Sololá	713	San Lucas Tolimán	10	San Lucas Tolimán	4	Abril	2023-04-30T00:00:00	2024-11-08T16:00:00	7	Dirección del viento	9.66
121207	7	Sololá	713	San Lucas Tolimán	10	San Lucas Tolimán	4	Abril	2023-04-30T00:00:00	2024-11-08T16:00:00	1	Precipitación	0
121208	7	Sololá	713	San Lucas Tolimán	10	San Lucas Tolimán	4	Abril	2023-04-30T00:00:00	2024-11-08T16:00:00	8	Radiación solar	340
121209	7	Sololá	713	San Lucas Tolimán	10	San Lucas Tolimán	4	Abril	2023-04-30T00:00:00	2024-11-08T17:00:00	2	Temperatura media	21.1
121210	7	Sololá	713	San Lucas Tolimán	10	San Lucas Tolimán	4	Abril	2023-04-30T00:00:00	2024-11-08T17:00:00	4	Temperatura máxima	21.2
121211	7	Sololá	713	San Lucas Tolimán	10	San Lucas Tolimán	4	Abril	2023-04-30T00:00:00	2024-11-08T17:00:00	3	Temperatura mínima	20.9
121212	7	Sololá	713	San Lucas Tolimán	10	San Lucas Tolimán	4	Abril	2023-04-30T00:00:00	2024-11-08T17:00:00	5	Humedad	62
121213	7	Sololá	713	San Lucas Tolimán	10	San Lucas Tolimán	4	Abril	2023-04-30T00:00:00	2024-11-08T17:00:00	6	Velocidad del viento	6.4
121214	7	Sololá	713	San Lucas Tolimán	10	San Lucas Tolimán	4	Abril	2023-04-30T00:00:00	2024-11-08T17:00:00	7	Dirección del viento	6.44
121215	7	Sololá	713	San Lucas Tolimán	10	San Lucas Tolimán	4	Abril	2023-04-30T00:00:00	2024-11-08T17:00:00	1	Precipitación	0
121216	7	Sololá	713	San Lucas Tolimán	10	San Lucas Tolimán	4	Abril	2023-04-30T00:00:00	2024-11-08T17:00:00	8	Radiación solar	172
121217	7	Sololá	713	San Lucas Tolimán	10	San Lucas Tolimán	4	Abril	2023-04-30T00:00:00	2024-11-08T18:00:00	2	Temperatura media	20.9
121218	7	Sololá	713	San Lucas Tolimán	10	San Lucas Tolimán	4	Abril	2023-04-30T00:00:00	2024-11-08T18:00:00	4	Temperatura máxima	21.1
121219	7	Sololá	713	San Lucas Tolimán	10	San Lucas Tolimán	4	Abril	2023-04-30T00:00:00	2024-11-08T18:00:00	3	Temperatura mínima	20.8
121220	7	Sololá	713	San Lucas Tolimán	10	San Lucas Tolimán	4	Abril	2023-04-30T00:00:00	2024-11-08T18:00:00	5	Humedad	62
121221	7	Sololá	713	San Lucas Tolimán	10	San Lucas Tolimán	4	Abril	2023-04-30T00:00:00	2024-11-08T18:00:00	6	Velocidad del viento	4.8
121222	7	Sololá	713	San Lucas Tolimán	10	San Lucas Tolimán	4	Abril	2023-04-30T00:00:00	2024-11-08T18:00:00	7	Dirección del viento	4.83
121223	7	Sololá	713	San Lucas Tolimán	10	San Lucas Tolimán	4	Abril	2023-04-30T00:00:00	2024-11-08T18:00:00	1	Precipitación	0
121224	7	Sololá	713	San Lucas Tolimán	10	San Lucas Tolimán	4	Abril	2023-04-30T00:00:00	2024-11-08T18:00:00	8	Radiación solar	60
121225	7	Sololá	713	San Lucas Tolimán	10	San Lucas Tolimán	4	Abril	2023-04-30T00:00:00	2024-11-08T19:00:00	2	Temperatura media	19.8
121226	7	Sololá	713	San Lucas Tolimán	10	San Lucas Tolimán	4	Abril	2023-04-30T00:00:00	2024-11-08T19:00:00	4	Temperatura máxima	20.9
121227	7	Sololá	713	San Lucas Tolimán	10	San Lucas Tolimán	4	Abril	2023-04-30T00:00:00	2024-11-08T19:00:00	3	Temperatura mínima	19.8
121228	7	Sololá	713	San Lucas Tolimán	10	San Lucas Tolimán	4	Abril	2023-04-30T00:00:00	2024-11-08T19:00:00	5	Humedad	61
121229	7	Sololá	713	San Lucas Tolimán	10	San Lucas Tolimán	4	Abril	2023-04-30T00:00:00	2024-11-08T19:00:00	6	Velocidad del viento	1.6
121230	7	Sololá	713	San Lucas Tolimán	10	San Lucas Tolimán	4	Abril	2023-04-30T00:00:00	2024-11-08T19:00:00	7	Dirección del viento	1.61
121231	7	Sololá	713	San Lucas Tolimán	10	San Lucas Tolimán	4	Abril	2023-04-30T00:00:00	2024-11-08T19:00:00	1	Precipitación	0
121232	7	Sololá	713	San Lucas Tolimán	10	San Lucas Tolimán	4	Abril	2023-04-30T00:00:00	2024-11-08T19:00:00	8	Radiación solar	0
121233	7	Sololá	713	San Lucas Tolimán	10	San Lucas Tolimán	4	Abril	2023-04-30T00:00:00	2024-11-08T20:00:00	2	Temperatura media	19.8
121234	7	Sololá	713	San Lucas Tolimán	10	San Lucas Tolimán	4	Abril	2023-04-30T00:00:00	2024-11-08T20:00:00	4	Temperatura máxima	20.1
121235	7	Sololá	713	San Lucas Tolimán	10	San Lucas Tolimán	4	Abril	2023-04-30T00:00:00	2024-11-08T20:00:00	3	Temperatura mínima	19.6
121236	7	Sololá	713	San Lucas Tolimán	10	San Lucas Tolimán	4	Abril	2023-04-30T00:00:00	2024-11-08T20:00:00	5	Humedad	58
121237	7	Sololá	713	San Lucas Tolimán	10	San Lucas Tolimán	4	Abril	2023-04-30T00:00:00	2024-11-08T20:00:00	6	Velocidad del viento	1.6
121238	7	Sololá	713	San Lucas Tolimán	10	San Lucas Tolimán	4	Abril	2023-04-30T00:00:00	2024-11-08T20:00:00	7	Dirección del viento	1.61
121239	7	Sololá	713	San Lucas Tolimán	10	San Lucas Tolimán	4	Abril	2023-04-30T00:00:00	2024-11-08T20:00:00	1	Precipitación	0
121240	7	Sololá	713	San Lucas Tolimán	10	San Lucas Tolimán	4	Abril	2023-04-30T00:00:00	2024-11-08T20:00:00	8	Radiación solar	0
121241	7	Sololá	713	San Lucas Tolimán	10	San Lucas Tolimán	4	Abril	2023-04-30T00:00:00	2024-11-08T21:00:00	2	Temperatura media	21.4
121242	7	Sololá	713	San Lucas Tolimán	10	San Lucas Tolimán	4	Abril	2023-04-30T00:00:00	2024-11-08T21:00:00	4	Temperatura máxima	21.4
121243	7	Sololá	713	San Lucas Tolimán	10	San Lucas Tolimán	4	Abril	2023-04-30T00:00:00	2024-11-08T21:00:00	3	Temperatura mínima	19.5
121244	7	Sololá	713	San Lucas Tolimán	10	San Lucas Tolimán	4	Abril	2023-04-30T00:00:00	2024-11-08T21:00:00	5	Humedad	53
121245	7	Sololá	713	San Lucas Tolimán	10	San Lucas Tolimán	4	Abril	2023-04-30T00:00:00	2024-11-08T21:00:00	6	Velocidad del viento	4.8
121246	7	Sololá	713	San Lucas Tolimán	10	San Lucas Tolimán	4	Abril	2023-04-30T00:00:00	2024-11-08T21:00:00	7	Dirección del viento	4.83
121247	7	Sololá	713	San Lucas Tolimán	10	San Lucas Tolimán	4	Abril	2023-04-30T00:00:00	2024-11-08T21:00:00	1	Precipitación	0
121248	7	Sololá	713	San Lucas Tolimán	10	San Lucas Tolimán	4	Abril	2023-04-30T00:00:00	2024-11-08T21:00:00	8	Radiación solar	0
121249	7	Sololá	713	San Lucas Tolimán	10	San Lucas Tolimán	4	Abril	2023-04-30T00:00:00	2024-11-08T22:00:00	2	Temperatura media	20.8
121250	7	Sololá	713	San Lucas Tolimán	10	San Lucas Tolimán	4	Abril	2023-04-30T00:00:00	2024-11-08T22:00:00	4	Temperatura máxima	21.4
121251	7	Sololá	713	San Lucas Tolimán	10	San Lucas Tolimán	4	Abril	2023-04-30T00:00:00	2024-11-08T22:00:00	3	Temperatura mínima	20.3
121252	7	Sololá	713	San Lucas Tolimán	10	San Lucas Tolimán	4	Abril	2023-04-30T00:00:00	2024-11-08T22:00:00	5	Humedad	51
121253	7	Sololá	713	San Lucas Tolimán	10	San Lucas Tolimán	4	Abril	2023-04-30T00:00:00	2024-11-08T22:00:00	6	Velocidad del viento	3.2
121254	7	Sololá	713	San Lucas Tolimán	10	San Lucas Tolimán	4	Abril	2023-04-30T00:00:00	2024-11-08T22:00:00	7	Dirección del viento	3.22
121255	7	Sololá	713	San Lucas Tolimán	10	San Lucas Tolimán	4	Abril	2023-04-30T00:00:00	2024-11-08T22:00:00	1	Precipitación	0
121256	7	Sololá	713	San Lucas Tolimán	10	San Lucas Tolimán	4	Abril	2023-04-30T00:00:00	2024-11-08T22:00:00	8	Radiación solar	0
121257	7	Sololá	713	San Lucas Tolimán	10	San Lucas Tolimán	4	Abril	2023-04-30T00:00:00	2024-11-08T23:00:00	2	Temperatura media	19.8
121258	7	Sololá	713	San Lucas Tolimán	10	San Lucas Tolimán	4	Abril	2023-04-30T00:00:00	2024-11-08T23:00:00	4	Temperatura máxima	20.9
121259	7	Sololá	713	San Lucas Tolimán	10	San Lucas Tolimán	4	Abril	2023-04-30T00:00:00	2024-11-08T23:00:00	3	Temperatura mínima	19.8
121260	7	Sololá	713	San Lucas Tolimán	10	San Lucas Tolimán	4	Abril	2023-04-30T00:00:00	2024-11-08T23:00:00	5	Humedad	56
121261	7	Sololá	713	San Lucas Tolimán	10	San Lucas Tolimán	4	Abril	2023-04-30T00:00:00	2024-11-08T23:00:00	6	Velocidad del viento	3.2
121262	7	Sololá	713	San Lucas Tolimán	10	San Lucas Tolimán	4	Abril	2023-04-30T00:00:00	2024-11-08T23:00:00	7	Dirección del viento	3.22
121263	7	Sololá	713	San Lucas Tolimán	10	San Lucas Tolimán	4	Abril	2023-04-30T00:00:00	2024-11-08T23:00:00	1	Precipitación	0
121264	7	Sololá	713	San Lucas Tolimán	10	San Lucas Tolimán	4	Abril	2023-04-30T00:00:00	2024-11-08T23:00:00	8	Radiación solar	0
121265	7	Sololá	713	San Lucas Tolimán	10	San Lucas Tolimán	5	Mayo	2023-01-05T00:00:00	2024-11-08T00:00:00	2	Temperatura media	19.3
121266	7	Sololá	713	San Lucas Tolimán	10	San Lucas Tolimán	5	Mayo	2023-01-05T00:00:00	2024-11-08T00:00:00	4	Temperatura máxima	19.8
121267	7	Sololá	713	San Lucas Tolimán	10	San Lucas Tolimán	5	Mayo	2023-01-05T00:00:00	2024-11-08T00:00:00	3	Temperatura mínima	19.2
121268	7	Sololá	713	San Lucas Tolimán	10	San Lucas Tolimán	5	Mayo	2023-01-05T00:00:00	2024-11-08T00:00:00	5	Humedad	57
121269	7	Sololá	713	San Lucas Tolimán	10	San Lucas Tolimán	5	Mayo	2023-01-05T00:00:00	2024-11-08T00:00:00	6	Velocidad del viento	1.6
121270	7	Sololá	713	San Lucas Tolimán	10	San Lucas Tolimán	5	Mayo	2023-01-05T00:00:00	2024-11-08T00:00:00	7	Dirección del viento	1.61
121271	7	Sololá	713	San Lucas Tolimán	10	San Lucas Tolimán	5	Mayo	2023-01-05T00:00:00	2024-11-08T00:00:00	1	Precipitación	0
121272	7	Sololá	713	San Lucas Tolimán	10	San Lucas Tolimán	5	Mayo	2023-01-05T00:00:00	2024-11-08T00:00:00	8	Radiación solar	0
121273	7	Sololá	713	San Lucas Tolimán	10	San Lucas Tolimán	5	Mayo	2023-01-05T00:00:00	2024-11-08T01:00:00	2	Temperatura media	18.7
121274	7	Sololá	713	San Lucas Tolimán	10	San Lucas Tolimán	5	Mayo	2023-01-05T00:00:00	2024-11-08T01:00:00	4	Temperatura máxima	19
121275	7	Sololá	713	San Lucas Tolimán	10	San Lucas Tolimán	5	Mayo	2023-01-05T00:00:00	2024-11-08T01:00:00	3	Temperatura mínima	18.7
121276	7	Sololá	713	San Lucas Tolimán	10	San Lucas Tolimán	5	Mayo	2023-01-05T00:00:00	2024-11-08T01:00:00	5	Humedad	59
121277	7	Sololá	713	San Lucas Tolimán	10	San Lucas Tolimán	5	Mayo	2023-01-05T00:00:00	2024-11-08T01:00:00	6	Velocidad del viento	3.2
121278	7	Sololá	713	San Lucas Tolimán	10	San Lucas Tolimán	5	Mayo	2023-01-05T00:00:00	2024-11-08T01:00:00	7	Dirección del viento	3.22
121279	7	Sololá	713	San Lucas Tolimán	10	San Lucas Tolimán	5	Mayo	2023-01-05T00:00:00	2024-11-08T01:00:00	1	Precipitación	0
121280	7	Sololá	713	San Lucas Tolimán	10	San Lucas Tolimán	5	Mayo	2023-01-05T00:00:00	2024-11-08T01:00:00	8	Radiación solar	0
121281	7	Sololá	713	San Lucas Tolimán	10	San Lucas Tolimán	5	Mayo	2023-01-05T00:00:00	2024-11-08T02:00:00	2	Temperatura media	18.4
121282	7	Sololá	713	San Lucas Tolimán	10	San Lucas Tolimán	5	Mayo	2023-01-05T00:00:00	2024-11-08T02:00:00	4	Temperatura máxima	18.8
121283	7	Sololá	713	San Lucas Tolimán	10	San Lucas Tolimán	5	Mayo	2023-01-05T00:00:00	2024-11-08T02:00:00	3	Temperatura mínima	18.2
121284	7	Sololá	713	San Lucas Tolimán	10	San Lucas Tolimán	5	Mayo	2023-01-05T00:00:00	2024-11-08T02:00:00	5	Humedad	59
121285	7	Sololá	713	San Lucas Tolimán	10	San Lucas Tolimán	5	Mayo	2023-01-05T00:00:00	2024-11-08T02:00:00	6	Velocidad del viento	1.6
121286	7	Sololá	713	San Lucas Tolimán	10	San Lucas Tolimán	5	Mayo	2023-01-05T00:00:00	2024-11-08T02:00:00	7	Dirección del viento	1.61
121287	7	Sololá	713	San Lucas Tolimán	10	San Lucas Tolimán	5	Mayo	2023-01-05T00:00:00	2024-11-08T02:00:00	1	Precipitación	0
121288	7	Sololá	713	San Lucas Tolimán	10	San Lucas Tolimán	5	Mayo	2023-01-05T00:00:00	2024-11-08T02:00:00	8	Radiación solar	0
121289	7	Sololá	713	San Lucas Tolimán	10	San Lucas Tolimán	5	Mayo	2023-01-05T00:00:00	2024-11-08T03:00:00	2	Temperatura media	18.1
121290	7	Sololá	713	San Lucas Tolimán	10	San Lucas Tolimán	5	Mayo	2023-01-05T00:00:00	2024-11-08T03:00:00	4	Temperatura máxima	18.4
121291	7	Sololá	713	San Lucas Tolimán	10	San Lucas Tolimán	5	Mayo	2023-01-05T00:00:00	2024-11-08T03:00:00	3	Temperatura mínima	18.1
121292	7	Sololá	713	San Lucas Tolimán	10	San Lucas Tolimán	5	Mayo	2023-01-05T00:00:00	2024-11-08T03:00:00	5	Humedad	60
121293	7	Sololá	713	San Lucas Tolimán	10	San Lucas Tolimán	5	Mayo	2023-01-05T00:00:00	2024-11-08T03:00:00	6	Velocidad del viento	1.6
121294	7	Sololá	713	San Lucas Tolimán	10	San Lucas Tolimán	5	Mayo	2023-01-05T00:00:00	2024-11-08T03:00:00	7	Dirección del viento	1.61
121295	7	Sololá	713	San Lucas Tolimán	10	San Lucas Tolimán	5	Mayo	2023-01-05T00:00:00	2024-11-08T03:00:00	1	Precipitación	0
121296	7	Sololá	713	San Lucas Tolimán	10	San Lucas Tolimán	5	Mayo	2023-01-05T00:00:00	2024-11-08T03:00:00	8	Radiación solar	0
121297	7	Sololá	713	San Lucas Tolimán	10	San Lucas Tolimán	5	Mayo	2023-01-05T00:00:00	2024-11-08T04:00:00	2	Temperatura media	17.8
121298	7	Sololá	713	San Lucas Tolimán	10	San Lucas Tolimán	5	Mayo	2023-01-05T00:00:00	2024-11-08T04:00:00	4	Temperatura máxima	18.1
121299	7	Sololá	713	San Lucas Tolimán	10	San Lucas Tolimán	5	Mayo	2023-01-05T00:00:00	2024-11-08T04:00:00	3	Temperatura mínima	17.8
121300	7	Sololá	713	San Lucas Tolimán	10	San Lucas Tolimán	5	Mayo	2023-01-05T00:00:00	2024-11-08T04:00:00	5	Humedad	60
121301	7	Sololá	713	San Lucas Tolimán	10	San Lucas Tolimán	5	Mayo	2023-01-05T00:00:00	2024-11-08T04:00:00	6	Velocidad del viento	3.2
121302	7	Sololá	713	San Lucas Tolimán	10	San Lucas Tolimán	5	Mayo	2023-01-05T00:00:00	2024-11-08T04:00:00	7	Dirección del viento	3.22
121303	7	Sololá	713	San Lucas Tolimán	10	San Lucas Tolimán	5	Mayo	2023-01-05T00:00:00	2024-11-08T04:00:00	1	Precipitación	0
121304	7	Sololá	713	San Lucas Tolimán	10	San Lucas Tolimán	5	Mayo	2023-01-05T00:00:00	2024-11-08T04:00:00	8	Radiación solar	0
121305	7	Sololá	713	San Lucas Tolimán	10	San Lucas Tolimán	5	Mayo	2023-01-05T00:00:00	2024-11-08T05:00:00	2	Temperatura media	17.3
121306	7	Sololá	713	San Lucas Tolimán	10	San Lucas Tolimán	5	Mayo	2023-01-05T00:00:00	2024-11-08T05:00:00	4	Temperatura máxima	18
121307	7	Sololá	713	San Lucas Tolimán	10	San Lucas Tolimán	5	Mayo	2023-01-05T00:00:00	2024-11-08T05:00:00	3	Temperatura mínima	17.3
121308	7	Sololá	713	San Lucas Tolimán	10	San Lucas Tolimán	5	Mayo	2023-01-05T00:00:00	2024-11-08T05:00:00	5	Humedad	63
121309	7	Sololá	713	San Lucas Tolimán	10	San Lucas Tolimán	5	Mayo	2023-01-05T00:00:00	2024-11-08T05:00:00	6	Velocidad del viento	1.6
121310	7	Sololá	713	San Lucas Tolimán	10	San Lucas Tolimán	5	Mayo	2023-01-05T00:00:00	2024-11-08T05:00:00	7	Dirección del viento	1.61
121311	7	Sololá	713	San Lucas Tolimán	10	San Lucas Tolimán	5	Mayo	2023-01-05T00:00:00	2024-11-08T05:00:00	1	Precipitación	0
121312	7	Sololá	713	San Lucas Tolimán	10	San Lucas Tolimán	5	Mayo	2023-01-05T00:00:00	2024-11-08T05:00:00	8	Radiación solar	0
121313	7	Sololá	713	San Lucas Tolimán	10	San Lucas Tolimán	5	Mayo	2023-01-05T00:00:00	2024-11-08T06:00:00	2	Temperatura media	16.8
121314	7	Sololá	713	San Lucas Tolimán	10	San Lucas Tolimán	5	Mayo	2023-01-05T00:00:00	2024-11-08T06:00:00	4	Temperatura máxima	17.4
121315	7	Sololá	713	San Lucas Tolimán	10	San Lucas Tolimán	5	Mayo	2023-01-05T00:00:00	2024-11-08T06:00:00	3	Temperatura mínima	16.8
121316	7	Sololá	713	San Lucas Tolimán	10	San Lucas Tolimán	5	Mayo	2023-01-05T00:00:00	2024-11-08T06:00:00	5	Humedad	63
121317	7	Sololá	713	San Lucas Tolimán	10	San Lucas Tolimán	5	Mayo	2023-01-05T00:00:00	2024-11-08T06:00:00	6	Velocidad del viento	0
121318	7	Sololá	713	San Lucas Tolimán	10	San Lucas Tolimán	5	Mayo	2023-01-05T00:00:00	2024-11-08T06:00:00	7	Dirección del viento	0
121319	7	Sololá	713	San Lucas Tolimán	10	San Lucas Tolimán	5	Mayo	2023-01-05T00:00:00	2024-11-08T06:00:00	1	Precipitación	0
121320	7	Sololá	713	San Lucas Tolimán	10	San Lucas Tolimán	5	Mayo	2023-01-05T00:00:00	2024-11-08T06:00:00	8	Radiación solar	1
121321	7	Sololá	713	San Lucas Tolimán	10	San Lucas Tolimán	5	Mayo	2023-01-05T00:00:00	2024-11-08T07:00:00	2	Temperatura media	18.3
121322	7	Sololá	713	San Lucas Tolimán	10	San Lucas Tolimán	5	Mayo	2023-01-05T00:00:00	2024-11-08T07:00:00	4	Temperatura máxima	18.3
121323	7	Sololá	713	San Lucas Tolimán	10	San Lucas Tolimán	5	Mayo	2023-01-05T00:00:00	2024-11-08T07:00:00	3	Temperatura mínima	16.7
121324	7	Sololá	713	San Lucas Tolimán	10	San Lucas Tolimán	5	Mayo	2023-01-05T00:00:00	2024-11-08T07:00:00	5	Humedad	61
121325	7	Sololá	713	San Lucas Tolimán	10	San Lucas Tolimán	5	Mayo	2023-01-05T00:00:00	2024-11-08T07:00:00	6	Velocidad del viento	1.6
121326	7	Sololá	713	San Lucas Tolimán	10	San Lucas Tolimán	5	Mayo	2023-01-05T00:00:00	2024-11-08T07:00:00	7	Dirección del viento	1.61
121327	7	Sololá	713	San Lucas Tolimán	10	San Lucas Tolimán	5	Mayo	2023-01-05T00:00:00	2024-11-08T07:00:00	1	Precipitación	0
121328	7	Sololá	713	San Lucas Tolimán	10	San Lucas Tolimán	5	Mayo	2023-01-05T00:00:00	2024-11-08T07:00:00	8	Radiación solar	81
121329	7	Sololá	713	San Lucas Tolimán	10	San Lucas Tolimán	5	Mayo	2023-01-05T00:00:00	2024-11-08T08:00:00	2	Temperatura media	20.8
121330	7	Sololá	713	San Lucas Tolimán	10	San Lucas Tolimán	5	Mayo	2023-01-05T00:00:00	2024-11-08T08:00:00	4	Temperatura máxima	20.8
121331	7	Sololá	713	San Lucas Tolimán	10	San Lucas Tolimán	5	Mayo	2023-01-05T00:00:00	2024-11-08T08:00:00	3	Temperatura mínima	18.3
121332	7	Sololá	713	San Lucas Tolimán	10	San Lucas Tolimán	5	Mayo	2023-01-05T00:00:00	2024-11-08T08:00:00	5	Humedad	56
121333	7	Sololá	713	San Lucas Tolimán	10	San Lucas Tolimán	5	Mayo	2023-01-05T00:00:00	2024-11-08T08:00:00	6	Velocidad del viento	3.2
121334	7	Sololá	713	San Lucas Tolimán	10	San Lucas Tolimán	5	Mayo	2023-01-05T00:00:00	2024-11-08T08:00:00	7	Dirección del viento	3.22
121335	7	Sololá	713	San Lucas Tolimán	10	San Lucas Tolimán	5	Mayo	2023-01-05T00:00:00	2024-11-08T08:00:00	1	Precipitación	0
121336	7	Sololá	713	San Lucas Tolimán	10	San Lucas Tolimán	5	Mayo	2023-01-05T00:00:00	2024-11-08T08:00:00	8	Radiación solar	282
121337	7	Sololá	713	San Lucas Tolimán	10	San Lucas Tolimán	5	Mayo	2023-01-05T00:00:00	2024-11-08T09:00:00	2	Temperatura media	23.5
121338	7	Sololá	713	San Lucas Tolimán	10	San Lucas Tolimán	5	Mayo	2023-01-05T00:00:00	2024-11-08T09:00:00	4	Temperatura máxima	23.5
121339	7	Sololá	713	San Lucas Tolimán	10	San Lucas Tolimán	5	Mayo	2023-01-05T00:00:00	2024-11-08T09:00:00	3	Temperatura mínima	20.8
121340	7	Sololá	713	San Lucas Tolimán	10	San Lucas Tolimán	5	Mayo	2023-01-05T00:00:00	2024-11-08T09:00:00	5	Humedad	47
121341	7	Sololá	713	San Lucas Tolimán	10	San Lucas Tolimán	5	Mayo	2023-01-05T00:00:00	2024-11-08T09:00:00	6	Velocidad del viento	3.2
121342	7	Sololá	713	San Lucas Tolimán	10	San Lucas Tolimán	5	Mayo	2023-01-05T00:00:00	2024-11-08T09:00:00	7	Dirección del viento	3.22
121343	7	Sololá	713	San Lucas Tolimán	10	San Lucas Tolimán	5	Mayo	2023-01-05T00:00:00	2024-11-08T09:00:00	1	Precipitación	0
121344	7	Sololá	713	San Lucas Tolimán	10	San Lucas Tolimán	5	Mayo	2023-01-05T00:00:00	2024-11-08T09:00:00	8	Radiación solar	517
121345	7	Sololá	713	San Lucas Tolimán	10	San Lucas Tolimán	5	Mayo	2023-01-05T00:00:00	2024-11-08T10:00:00	2	Temperatura media	22.6
121346	7	Sololá	713	San Lucas Tolimán	10	San Lucas Tolimán	5	Mayo	2023-01-05T00:00:00	2024-11-08T10:00:00	4	Temperatura máxima	23.8
121347	7	Sololá	713	San Lucas Tolimán	10	San Lucas Tolimán	5	Mayo	2023-01-05T00:00:00	2024-11-08T10:00:00	3	Temperatura mínima	21.9
121348	7	Sololá	713	San Lucas Tolimán	10	San Lucas Tolimán	5	Mayo	2023-01-05T00:00:00	2024-11-08T10:00:00	5	Humedad	53
121349	7	Sololá	713	San Lucas Tolimán	10	San Lucas Tolimán	5	Mayo	2023-01-05T00:00:00	2024-11-08T10:00:00	6	Velocidad del viento	6.4
121350	7	Sololá	713	San Lucas Tolimán	10	San Lucas Tolimán	5	Mayo	2023-01-05T00:00:00	2024-11-08T10:00:00	7	Dirección del viento	6.44
121351	7	Sololá	713	San Lucas Tolimán	10	San Lucas Tolimán	5	Mayo	2023-01-05T00:00:00	2024-11-08T10:00:00	1	Precipitación	0
121352	7	Sololá	713	San Lucas Tolimán	10	San Lucas Tolimán	5	Mayo	2023-01-05T00:00:00	2024-11-08T10:00:00	8	Radiación solar	613
121353	7	Sololá	713	San Lucas Tolimán	10	San Lucas Tolimán	5	Mayo	2023-01-05T00:00:00	2024-11-08T11:00:00	2	Temperatura media	25.2
121354	7	Sololá	713	San Lucas Tolimán	10	San Lucas Tolimán	5	Mayo	2023-01-05T00:00:00	2024-11-08T11:00:00	4	Temperatura máxima	25.4
121355	7	Sololá	713	San Lucas Tolimán	10	San Lucas Tolimán	5	Mayo	2023-01-05T00:00:00	2024-11-08T11:00:00	3	Temperatura mínima	22.6
121356	7	Sololá	713	San Lucas Tolimán	10	San Lucas Tolimán	5	Mayo	2023-01-05T00:00:00	2024-11-08T11:00:00	5	Humedad	48
121357	7	Sololá	713	San Lucas Tolimán	10	San Lucas Tolimán	5	Mayo	2023-01-05T00:00:00	2024-11-08T11:00:00	6	Velocidad del viento	6.4
121358	7	Sololá	713	San Lucas Tolimán	10	San Lucas Tolimán	5	Mayo	2023-01-05T00:00:00	2024-11-08T11:00:00	7	Dirección del viento	6.44
121359	7	Sololá	713	San Lucas Tolimán	10	San Lucas Tolimán	5	Mayo	2023-01-05T00:00:00	2024-11-08T11:00:00	1	Precipitación	0
121360	7	Sololá	713	San Lucas Tolimán	10	San Lucas Tolimán	5	Mayo	2023-01-05T00:00:00	2024-11-08T11:00:00	8	Radiación solar	919
121361	7	Sololá	713	San Lucas Tolimán	10	San Lucas Tolimán	5	Mayo	2023-01-05T00:00:00	2024-11-08T12:00:00	2	Temperatura media	24.1
121362	7	Sololá	713	San Lucas Tolimán	10	San Lucas Tolimán	5	Mayo	2023-01-05T00:00:00	2024-11-08T12:00:00	4	Temperatura máxima	25.2
121363	7	Sololá	713	San Lucas Tolimán	10	San Lucas Tolimán	5	Mayo	2023-01-05T00:00:00	2024-11-08T12:00:00	3	Temperatura mínima	24.1
121364	7	Sololá	713	San Lucas Tolimán	10	San Lucas Tolimán	5	Mayo	2023-01-05T00:00:00	2024-11-08T12:00:00	5	Humedad	55
121365	7	Sololá	713	San Lucas Tolimán	10	San Lucas Tolimán	5	Mayo	2023-01-05T00:00:00	2024-11-08T12:00:00	6	Velocidad del viento	11.3
121366	7	Sololá	713	San Lucas Tolimán	10	San Lucas Tolimán	5	Mayo	2023-01-05T00:00:00	2024-11-08T12:00:00	7	Dirección del viento	11.27
121367	7	Sololá	713	San Lucas Tolimán	10	San Lucas Tolimán	5	Mayo	2023-01-05T00:00:00	2024-11-08T12:00:00	1	Precipitación	0
121368	7	Sololá	713	San Lucas Tolimán	10	San Lucas Tolimán	5	Mayo	2023-01-05T00:00:00	2024-11-08T12:00:00	8	Radiación solar	1049
121369	7	Sololá	713	San Lucas Tolimán	10	San Lucas Tolimán	5	Mayo	2023-01-05T00:00:00	2024-11-08T13:00:00	2	Temperatura media	24.1
121370	7	Sololá	713	San Lucas Tolimán	10	San Lucas Tolimán	5	Mayo	2023-01-05T00:00:00	2024-11-08T13:00:00	4	Temperatura máxima	24.6
121371	7	Sololá	713	San Lucas Tolimán	10	San Lucas Tolimán	5	Mayo	2023-01-05T00:00:00	2024-11-08T13:00:00	3	Temperatura mínima	23.8
121372	7	Sololá	713	San Lucas Tolimán	10	San Lucas Tolimán	5	Mayo	2023-01-05T00:00:00	2024-11-08T13:00:00	5	Humedad	56
121373	7	Sololá	713	San Lucas Tolimán	10	San Lucas Tolimán	5	Mayo	2023-01-05T00:00:00	2024-11-08T13:00:00	6	Velocidad del viento	12.9
121374	7	Sololá	713	San Lucas Tolimán	10	San Lucas Tolimán	5	Mayo	2023-01-05T00:00:00	2024-11-08T13:00:00	7	Dirección del viento	12.87
121375	7	Sololá	713	San Lucas Tolimán	10	San Lucas Tolimán	5	Mayo	2023-01-05T00:00:00	2024-11-08T13:00:00	1	Precipitación	0
121376	7	Sololá	713	San Lucas Tolimán	10	San Lucas Tolimán	5	Mayo	2023-01-05T00:00:00	2024-11-08T13:00:00	8	Radiación solar	1009
121377	7	Sololá	713	San Lucas Tolimán	10	San Lucas Tolimán	5	Mayo	2023-01-05T00:00:00	2024-11-08T14:00:00	2	Temperatura media	23.3
121378	7	Sololá	713	San Lucas Tolimán	10	San Lucas Tolimán	5	Mayo	2023-01-05T00:00:00	2024-11-08T14:00:00	4	Temperatura máxima	24.1
121379	7	Sololá	713	San Lucas Tolimán	10	San Lucas Tolimán	5	Mayo	2023-01-05T00:00:00	2024-11-08T14:00:00	3	Temperatura mínima	23.1
121380	7	Sololá	713	San Lucas Tolimán	10	San Lucas Tolimán	5	Mayo	2023-01-05T00:00:00	2024-11-08T14:00:00	5	Humedad	57
121381	7	Sololá	713	San Lucas Tolimán	10	San Lucas Tolimán	5	Mayo	2023-01-05T00:00:00	2024-11-08T14:00:00	6	Velocidad del viento	16.1
121382	7	Sololá	713	San Lucas Tolimán	10	San Lucas Tolimán	5	Mayo	2023-01-05T00:00:00	2024-11-08T14:00:00	7	Dirección del viento	16.09
121383	7	Sololá	713	San Lucas Tolimán	10	San Lucas Tolimán	5	Mayo	2023-01-05T00:00:00	2024-11-08T14:00:00	1	Precipitación	0
121384	7	Sololá	713	San Lucas Tolimán	10	San Lucas Tolimán	5	Mayo	2023-01-05T00:00:00	2024-11-08T14:00:00	8	Radiación solar	768
121385	7	Sololá	713	San Lucas Tolimán	10	San Lucas Tolimán	5	Mayo	2023-01-05T00:00:00	2024-11-08T15:00:00	2	Temperatura media	22.5
121386	7	Sololá	713	San Lucas Tolimán	10	San Lucas Tolimán	5	Mayo	2023-01-05T00:00:00	2024-11-08T15:00:00	4	Temperatura máxima	23.2
121387	7	Sololá	713	San Lucas Tolimán	10	San Lucas Tolimán	5	Mayo	2023-01-05T00:00:00	2024-11-08T15:00:00	3	Temperatura mínima	22.4
121388	7	Sololá	713	San Lucas Tolimán	10	San Lucas Tolimán	5	Mayo	2023-01-05T00:00:00	2024-11-08T15:00:00	5	Humedad	61
121389	7	Sololá	713	San Lucas Tolimán	10	San Lucas Tolimán	5	Mayo	2023-01-05T00:00:00	2024-11-08T15:00:00	6	Velocidad del viento	12.9
121390	7	Sololá	713	San Lucas Tolimán	10	San Lucas Tolimán	5	Mayo	2023-01-05T00:00:00	2024-11-08T15:00:00	7	Dirección del viento	12.87
121391	7	Sololá	713	San Lucas Tolimán	10	San Lucas Tolimán	5	Mayo	2023-01-05T00:00:00	2024-11-08T15:00:00	1	Precipitación	0
121392	7	Sololá	713	San Lucas Tolimán	10	San Lucas Tolimán	5	Mayo	2023-01-05T00:00:00	2024-11-08T15:00:00	8	Radiación solar	449
121393	7	Sololá	713	San Lucas Tolimán	10	San Lucas Tolimán	5	Mayo	2023-01-05T00:00:00	2024-11-08T16:00:00	2	Temperatura media	21.3
121394	7	Sololá	713	San Lucas Tolimán	10	San Lucas Tolimán	5	Mayo	2023-01-05T00:00:00	2024-11-08T16:00:00	4	Temperatura máxima	22.4
121395	7	Sololá	713	San Lucas Tolimán	10	San Lucas Tolimán	5	Mayo	2023-01-05T00:00:00	2024-11-08T16:00:00	3	Temperatura mínima	21.3
121396	7	Sololá	713	San Lucas Tolimán	10	San Lucas Tolimán	5	Mayo	2023-01-05T00:00:00	2024-11-08T16:00:00	5	Humedad	63
121397	7	Sololá	713	San Lucas Tolimán	10	San Lucas Tolimán	5	Mayo	2023-01-05T00:00:00	2024-11-08T16:00:00	6	Velocidad del viento	11.3
121398	7	Sololá	713	San Lucas Tolimán	10	San Lucas Tolimán	5	Mayo	2023-01-05T00:00:00	2024-11-08T16:00:00	7	Dirección del viento	11.27
121399	7	Sololá	713	San Lucas Tolimán	10	San Lucas Tolimán	5	Mayo	2023-01-05T00:00:00	2024-11-08T16:00:00	1	Precipitación	0
121400	7	Sololá	713	San Lucas Tolimán	10	San Lucas Tolimán	5	Mayo	2023-01-05T00:00:00	2024-11-08T16:00:00	8	Radiación solar	205
121401	7	Sololá	713	San Lucas Tolimán	10	San Lucas Tolimán	5	Mayo	2023-01-05T00:00:00	2024-11-08T17:00:00	2	Temperatura media	19.7
121402	7	Sololá	713	San Lucas Tolimán	10	San Lucas Tolimán	5	Mayo	2023-01-05T00:00:00	2024-11-08T17:00:00	4	Temperatura máxima	21.7
121403	7	Sololá	713	San Lucas Tolimán	10	San Lucas Tolimán	5	Mayo	2023-01-05T00:00:00	2024-11-08T17:00:00	3	Temperatura mínima	19.6
121404	7	Sololá	713	San Lucas Tolimán	10	San Lucas Tolimán	5	Mayo	2023-01-05T00:00:00	2024-11-08T17:00:00	5	Humedad	63
121405	7	Sololá	713	San Lucas Tolimán	10	San Lucas Tolimán	5	Mayo	2023-01-05T00:00:00	2024-11-08T17:00:00	6	Velocidad del viento	8
121406	7	Sololá	713	San Lucas Tolimán	10	San Lucas Tolimán	5	Mayo	2023-01-05T00:00:00	2024-11-08T17:00:00	7	Dirección del viento	8.05
121407	7	Sololá	713	San Lucas Tolimán	10	San Lucas Tolimán	5	Mayo	2023-01-05T00:00:00	2024-11-08T17:00:00	1	Precipitación	0
121408	7	Sololá	713	San Lucas Tolimán	10	San Lucas Tolimán	5	Mayo	2023-01-05T00:00:00	2024-11-08T17:00:00	8	Radiación solar	58
121409	7	Sololá	713	San Lucas Tolimán	10	San Lucas Tolimán	5	Mayo	2023-01-05T00:00:00	2024-11-08T18:00:00	2	Temperatura media	19.1
121410	7	Sololá	713	San Lucas Tolimán	10	San Lucas Tolimán	5	Mayo	2023-01-05T00:00:00	2024-11-08T18:00:00	4	Temperatura máxima	19.7
121411	7	Sololá	713	San Lucas Tolimán	10	San Lucas Tolimán	5	Mayo	2023-01-05T00:00:00	2024-11-08T18:00:00	3	Temperatura mínima	19.1
121412	7	Sololá	713	San Lucas Tolimán	10	San Lucas Tolimán	5	Mayo	2023-01-05T00:00:00	2024-11-08T18:00:00	5	Humedad	65
121413	7	Sololá	713	San Lucas Tolimán	10	San Lucas Tolimán	5	Mayo	2023-01-05T00:00:00	2024-11-08T18:00:00	6	Velocidad del viento	6.4
121414	7	Sololá	713	San Lucas Tolimán	10	San Lucas Tolimán	5	Mayo	2023-01-05T00:00:00	2024-11-08T18:00:00	7	Dirección del viento	6.44
121415	7	Sololá	713	San Lucas Tolimán	10	San Lucas Tolimán	5	Mayo	2023-01-05T00:00:00	2024-11-08T18:00:00	1	Precipitación	0
121416	7	Sololá	713	San Lucas Tolimán	10	San Lucas Tolimán	5	Mayo	2023-01-05T00:00:00	2024-11-08T18:00:00	8	Radiación solar	16
121417	7	Sololá	713	San Lucas Tolimán	10	San Lucas Tolimán	5	Mayo	2023-01-05T00:00:00	2024-11-08T19:00:00	2	Temperatura media	19.4
121418	7	Sololá	713	San Lucas Tolimán	10	San Lucas Tolimán	5	Mayo	2023-01-05T00:00:00	2024-11-08T19:00:00	4	Temperatura máxima	19.4
121419	7	Sololá	713	San Lucas Tolimán	10	San Lucas Tolimán	5	Mayo	2023-01-05T00:00:00	2024-11-08T19:00:00	3	Temperatura mínima	19.1
121420	7	Sololá	713	San Lucas Tolimán	10	San Lucas Tolimán	5	Mayo	2023-01-05T00:00:00	2024-11-08T19:00:00	5	Humedad	63
121421	7	Sololá	713	San Lucas Tolimán	10	San Lucas Tolimán	5	Mayo	2023-01-05T00:00:00	2024-11-08T19:00:00	6	Velocidad del viento	6.4
121422	7	Sololá	713	San Lucas Tolimán	10	San Lucas Tolimán	5	Mayo	2023-01-05T00:00:00	2024-11-08T19:00:00	7	Dirección del viento	6.44
121423	7	Sololá	713	San Lucas Tolimán	10	San Lucas Tolimán	5	Mayo	2023-01-05T00:00:00	2024-11-08T19:00:00	1	Precipitación	0
121424	7	Sololá	713	San Lucas Tolimán	10	San Lucas Tolimán	5	Mayo	2023-01-05T00:00:00	2024-11-08T19:00:00	8	Radiación solar	0
121425	7	Sololá	713	San Lucas Tolimán	10	San Lucas Tolimán	5	Mayo	2023-01-05T00:00:00	2024-11-08T20:00:00	2	Temperatura media	19
121426	7	Sololá	713	San Lucas Tolimán	10	San Lucas Tolimán	5	Mayo	2023-01-05T00:00:00	2024-11-08T20:00:00	4	Temperatura máxima	19.4
121427	7	Sololá	713	San Lucas Tolimán	10	San Lucas Tolimán	5	Mayo	2023-01-05T00:00:00	2024-11-08T20:00:00	3	Temperatura mínima	19
121428	7	Sololá	713	San Lucas Tolimán	10	San Lucas Tolimán	5	Mayo	2023-01-05T00:00:00	2024-11-08T20:00:00	5	Humedad	65
121429	7	Sololá	713	San Lucas Tolimán	10	San Lucas Tolimán	5	Mayo	2023-01-05T00:00:00	2024-11-08T20:00:00	6	Velocidad del viento	6.4
121430	7	Sololá	713	San Lucas Tolimán	10	San Lucas Tolimán	5	Mayo	2023-01-05T00:00:00	2024-11-08T20:00:00	7	Dirección del viento	6.44
121431	7	Sololá	713	San Lucas Tolimán	10	San Lucas Tolimán	5	Mayo	2023-01-05T00:00:00	2024-11-08T20:00:00	1	Precipitación	0
121432	7	Sololá	713	San Lucas Tolimán	10	San Lucas Tolimán	5	Mayo	2023-01-05T00:00:00	2024-11-08T20:00:00	8	Radiación solar	0
121433	7	Sololá	713	San Lucas Tolimán	10	San Lucas Tolimán	5	Mayo	2023-01-05T00:00:00	2024-11-08T21:00:00	2	Temperatura media	18.4
121434	7	Sololá	713	San Lucas Tolimán	10	San Lucas Tolimán	5	Mayo	2023-01-05T00:00:00	2024-11-08T21:00:00	4	Temperatura máxima	19
121435	7	Sololá	713	San Lucas Tolimán	10	San Lucas Tolimán	5	Mayo	2023-01-05T00:00:00	2024-11-08T21:00:00	3	Temperatura mínima	18.3
121436	7	Sololá	713	San Lucas Tolimán	10	San Lucas Tolimán	5	Mayo	2023-01-05T00:00:00	2024-11-08T21:00:00	5	Humedad	64
121437	7	Sololá	713	San Lucas Tolimán	10	San Lucas Tolimán	5	Mayo	2023-01-05T00:00:00	2024-11-08T21:00:00	6	Velocidad del viento	4.8
121438	7	Sololá	713	San Lucas Tolimán	10	San Lucas Tolimán	5	Mayo	2023-01-05T00:00:00	2024-11-08T21:00:00	7	Dirección del viento	4.83
121439	7	Sololá	713	San Lucas Tolimán	10	San Lucas Tolimán	5	Mayo	2023-01-05T00:00:00	2024-11-08T21:00:00	1	Precipitación	0.2
121440	7	Sololá	713	San Lucas Tolimán	10	San Lucas Tolimán	5	Mayo	2023-01-05T00:00:00	2024-11-08T21:00:00	8	Radiación solar	0
121441	7	Sololá	713	San Lucas Tolimán	10	San Lucas Tolimán	5	Mayo	2023-01-05T00:00:00	2024-11-08T22:00:00	2	Temperatura media	18.6
121442	7	Sololá	713	San Lucas Tolimán	10	San Lucas Tolimán	5	Mayo	2023-01-05T00:00:00	2024-11-08T22:00:00	4	Temperatura máxima	18.7
121443	7	Sololá	713	San Lucas Tolimán	10	San Lucas Tolimán	5	Mayo	2023-01-05T00:00:00	2024-11-08T22:00:00	3	Temperatura mínima	18.4
121444	7	Sololá	713	San Lucas Tolimán	10	San Lucas Tolimán	5	Mayo	2023-01-05T00:00:00	2024-11-08T22:00:00	5	Humedad	62
121445	7	Sololá	713	San Lucas Tolimán	10	San Lucas Tolimán	5	Mayo	2023-01-05T00:00:00	2024-11-08T22:00:00	6	Velocidad del viento	3.2
121446	7	Sololá	713	San Lucas Tolimán	10	San Lucas Tolimán	5	Mayo	2023-01-05T00:00:00	2024-11-08T22:00:00	7	Dirección del viento	3.22
121447	7	Sololá	713	San Lucas Tolimán	10	San Lucas Tolimán	5	Mayo	2023-01-05T00:00:00	2024-11-08T22:00:00	1	Precipitación	0
121448	7	Sololá	713	San Lucas Tolimán	10	San Lucas Tolimán	5	Mayo	2023-01-05T00:00:00	2024-11-08T22:00:00	8	Radiación solar	0
121449	7	Sololá	713	San Lucas Tolimán	10	San Lucas Tolimán	5	Mayo	2023-01-05T00:00:00	2024-11-08T23:00:00	2	Temperatura media	18.3
121450	7	Sololá	713	San Lucas Tolimán	10	San Lucas Tolimán	5	Mayo	2023-01-05T00:00:00	2024-11-08T23:00:00	4	Temperatura máxima	18.6
121451	7	Sololá	713	San Lucas Tolimán	10	San Lucas Tolimán	5	Mayo	2023-01-05T00:00:00	2024-11-08T23:00:00	3	Temperatura mínima	18.3
121452	7	Sololá	713	San Lucas Tolimán	10	San Lucas Tolimán	5	Mayo	2023-01-05T00:00:00	2024-11-08T23:00:00	5	Humedad	62
121453	7	Sololá	713	San Lucas Tolimán	10	San Lucas Tolimán	5	Mayo	2023-01-05T00:00:00	2024-11-08T23:00:00	6	Velocidad del viento	3.2
121454	7	Sololá	713	San Lucas Tolimán	10	San Lucas Tolimán	5	Mayo	2023-01-05T00:00:00	2024-11-08T23:00:00	7	Dirección del viento	3.22
121455	7	Sololá	713	San Lucas Tolimán	10	San Lucas Tolimán	5	Mayo	2023-01-05T00:00:00	2024-11-08T23:00:00	1	Precipitación	0
121456	7	Sololá	713	San Lucas Tolimán	10	San Lucas Tolimán	5	Mayo	2023-01-05T00:00:00	2024-11-08T23:00:00	8	Radiación solar	0
121457	7	Sololá	713	San Lucas Tolimán	10	San Lucas Tolimán	5	Mayo	2023-02-05T00:00:00	2024-11-08T00:00:00	2	Temperatura media	18.4
121458	7	Sololá	713	San Lucas Tolimán	10	San Lucas Tolimán	5	Mayo	2023-02-05T00:00:00	2024-11-08T00:00:00	4	Temperatura máxima	18.4
121459	7	Sololá	713	San Lucas Tolimán	10	San Lucas Tolimán	5	Mayo	2023-02-05T00:00:00	2024-11-08T00:00:00	3	Temperatura mínima	18.2
121460	7	Sololá	713	San Lucas Tolimán	10	San Lucas Tolimán	5	Mayo	2023-02-05T00:00:00	2024-11-08T00:00:00	5	Humedad	62
121461	7	Sololá	713	San Lucas Tolimán	10	San Lucas Tolimán	5	Mayo	2023-02-05T00:00:00	2024-11-08T00:00:00	6	Velocidad del viento	0
121462	7	Sololá	713	San Lucas Tolimán	10	San Lucas Tolimán	5	Mayo	2023-02-05T00:00:00	2024-11-08T00:00:00	7	Dirección del viento	0
121463	7	Sololá	713	San Lucas Tolimán	10	San Lucas Tolimán	5	Mayo	2023-02-05T00:00:00	2024-11-08T00:00:00	1	Precipitación	0
121464	7	Sololá	713	San Lucas Tolimán	10	San Lucas Tolimán	5	Mayo	2023-02-05T00:00:00	2024-11-08T00:00:00	8	Radiación solar	0
121465	7	Sololá	713	San Lucas Tolimán	10	San Lucas Tolimán	5	Mayo	2023-02-05T00:00:00	2024-11-08T01:00:00	2	Temperatura media	18.7
121466	7	Sololá	713	San Lucas Tolimán	10	San Lucas Tolimán	5	Mayo	2023-02-05T00:00:00	2024-11-08T01:00:00	4	Temperatura máxima	18.8
121467	7	Sololá	713	San Lucas Tolimán	10	San Lucas Tolimán	5	Mayo	2023-02-05T00:00:00	2024-11-08T01:00:00	3	Temperatura mínima	18.4
121468	7	Sololá	713	San Lucas Tolimán	10	San Lucas Tolimán	5	Mayo	2023-02-05T00:00:00	2024-11-08T01:00:00	5	Humedad	60
121469	7	Sololá	713	San Lucas Tolimán	10	San Lucas Tolimán	5	Mayo	2023-02-05T00:00:00	2024-11-08T01:00:00	6	Velocidad del viento	0
121470	7	Sololá	713	San Lucas Tolimán	10	San Lucas Tolimán	5	Mayo	2023-02-05T00:00:00	2024-11-08T01:00:00	7	Dirección del viento	0
121471	7	Sololá	713	San Lucas Tolimán	10	San Lucas Tolimán	5	Mayo	2023-02-05T00:00:00	2024-11-08T01:00:00	1	Precipitación	0
121472	7	Sololá	713	San Lucas Tolimán	10	San Lucas Tolimán	5	Mayo	2023-02-05T00:00:00	2024-11-08T01:00:00	8	Radiación solar	0
121473	7	Sololá	713	San Lucas Tolimán	10	San Lucas Tolimán	5	Mayo	2023-02-05T00:00:00	2024-11-08T02:00:00	2	Temperatura media	18.4
121474	7	Sololá	713	San Lucas Tolimán	10	San Lucas Tolimán	5	Mayo	2023-02-05T00:00:00	2024-11-08T02:00:00	4	Temperatura máxima	18.8
121475	7	Sololá	713	San Lucas Tolimán	10	San Lucas Tolimán	5	Mayo	2023-02-05T00:00:00	2024-11-08T02:00:00	3	Temperatura mínima	18.3
121476	7	Sololá	713	San Lucas Tolimán	10	San Lucas Tolimán	5	Mayo	2023-02-05T00:00:00	2024-11-08T02:00:00	5	Humedad	59
121477	7	Sololá	713	San Lucas Tolimán	10	San Lucas Tolimán	5	Mayo	2023-02-05T00:00:00	2024-11-08T02:00:00	6	Velocidad del viento	1.6
121478	7	Sololá	713	San Lucas Tolimán	10	San Lucas Tolimán	5	Mayo	2023-02-05T00:00:00	2024-11-08T02:00:00	7	Dirección del viento	1.61
121479	7	Sololá	713	San Lucas Tolimán	10	San Lucas Tolimán	5	Mayo	2023-02-05T00:00:00	2024-11-08T02:00:00	1	Precipitación	0
121480	7	Sololá	713	San Lucas Tolimán	10	San Lucas Tolimán	5	Mayo	2023-02-05T00:00:00	2024-11-08T02:00:00	8	Radiación solar	0
121481	7	Sololá	713	San Lucas Tolimán	10	San Lucas Tolimán	5	Mayo	2023-02-05T00:00:00	2024-11-08T03:00:00	2	Temperatura media	17.8
121482	7	Sololá	713	San Lucas Tolimán	10	San Lucas Tolimán	5	Mayo	2023-02-05T00:00:00	2024-11-08T03:00:00	4	Temperatura máxima	18.6
121483	7	Sololá	713	San Lucas Tolimán	10	San Lucas Tolimán	5	Mayo	2023-02-05T00:00:00	2024-11-08T03:00:00	3	Temperatura mínima	17.7
121484	7	Sololá	713	San Lucas Tolimán	10	San Lucas Tolimán	5	Mayo	2023-02-05T00:00:00	2024-11-08T03:00:00	5	Humedad	60
121485	7	Sololá	713	San Lucas Tolimán	10	San Lucas Tolimán	5	Mayo	2023-02-05T00:00:00	2024-11-08T03:00:00	6	Velocidad del viento	0
121486	7	Sololá	713	San Lucas Tolimán	10	San Lucas Tolimán	5	Mayo	2023-02-05T00:00:00	2024-11-08T03:00:00	7	Dirección del viento	0
121487	7	Sololá	713	San Lucas Tolimán	10	San Lucas Tolimán	5	Mayo	2023-02-05T00:00:00	2024-11-08T03:00:00	1	Precipitación	0
121488	7	Sololá	713	San Lucas Tolimán	10	San Lucas Tolimán	5	Mayo	2023-02-05T00:00:00	2024-11-08T03:00:00	8	Radiación solar	0
121489	7	Sololá	713	San Lucas Tolimán	10	San Lucas Tolimán	5	Mayo	2023-02-05T00:00:00	2024-11-08T04:00:00	2	Temperatura media	16.9
121490	7	Sololá	713	San Lucas Tolimán	10	San Lucas Tolimán	5	Mayo	2023-02-05T00:00:00	2024-11-08T04:00:00	4	Temperatura máxima	17.8
121491	7	Sololá	713	San Lucas Tolimán	10	San Lucas Tolimán	5	Mayo	2023-02-05T00:00:00	2024-11-08T04:00:00	3	Temperatura mínima	16.9
121492	7	Sololá	713	San Lucas Tolimán	10	San Lucas Tolimán	5	Mayo	2023-02-05T00:00:00	2024-11-08T04:00:00	5	Humedad	62
121493	7	Sololá	713	San Lucas Tolimán	10	San Lucas Tolimán	5	Mayo	2023-02-05T00:00:00	2024-11-08T04:00:00	6	Velocidad del viento	0
121494	7	Sololá	713	San Lucas Tolimán	10	San Lucas Tolimán	5	Mayo	2023-02-05T00:00:00	2024-11-08T04:00:00	7	Dirección del viento	0
121495	7	Sololá	713	San Lucas Tolimán	10	San Lucas Tolimán	5	Mayo	2023-02-05T00:00:00	2024-11-08T04:00:00	1	Precipitación	0
121496	7	Sololá	713	San Lucas Tolimán	10	San Lucas Tolimán	5	Mayo	2023-02-05T00:00:00	2024-11-08T04:00:00	8	Radiación solar	0
121497	7	Sololá	713	San Lucas Tolimán	10	San Lucas Tolimán	5	Mayo	2023-02-05T00:00:00	2024-11-08T05:00:00	2	Temperatura media	16.8
121498	7	Sololá	713	San Lucas Tolimán	10	San Lucas Tolimán	5	Mayo	2023-02-05T00:00:00	2024-11-08T05:00:00	4	Temperatura máxima	17
121499	7	Sololá	713	San Lucas Tolimán	10	San Lucas Tolimán	5	Mayo	2023-02-05T00:00:00	2024-11-08T05:00:00	3	Temperatura mínima	16.8
121500	7	Sololá	713	San Lucas Tolimán	10	San Lucas Tolimán	5	Mayo	2023-02-05T00:00:00	2024-11-08T05:00:00	5	Humedad	61
121501	7	Sololá	713	San Lucas Tolimán	10	San Lucas Tolimán	5	Mayo	2023-02-05T00:00:00	2024-11-08T05:00:00	6	Velocidad del viento	0
121502	7	Sololá	713	San Lucas Tolimán	10	San Lucas Tolimán	5	Mayo	2023-02-05T00:00:00	2024-11-08T05:00:00	7	Dirección del viento	0
121503	7	Sololá	713	San Lucas Tolimán	10	San Lucas Tolimán	5	Mayo	2023-02-05T00:00:00	2024-11-08T05:00:00	1	Precipitación	0
121504	7	Sololá	713	San Lucas Tolimán	10	San Lucas Tolimán	5	Mayo	2023-02-05T00:00:00	2024-11-08T05:00:00	8	Radiación solar	0
121505	7	Sololá	713	San Lucas Tolimán	10	San Lucas Tolimán	5	Mayo	2023-02-05T00:00:00	2024-11-08T06:00:00	2	Temperatura media	17
121506	7	Sololá	713	San Lucas Tolimán	10	San Lucas Tolimán	5	Mayo	2023-02-05T00:00:00	2024-11-08T06:00:00	4	Temperatura máxima	17
121507	7	Sololá	713	San Lucas Tolimán	10	San Lucas Tolimán	5	Mayo	2023-02-05T00:00:00	2024-11-08T06:00:00	3	Temperatura mínima	16.7
121508	7	Sololá	713	San Lucas Tolimán	10	San Lucas Tolimán	5	Mayo	2023-02-05T00:00:00	2024-11-08T06:00:00	5	Humedad	61
121509	7	Sololá	713	San Lucas Tolimán	10	San Lucas Tolimán	5	Mayo	2023-02-05T00:00:00	2024-11-08T06:00:00	6	Velocidad del viento	0
121510	7	Sololá	713	San Lucas Tolimán	10	San Lucas Tolimán	5	Mayo	2023-02-05T00:00:00	2024-11-08T06:00:00	7	Dirección del viento	0
121511	7	Sololá	713	San Lucas Tolimán	10	San Lucas Tolimán	5	Mayo	2023-02-05T00:00:00	2024-11-08T06:00:00	1	Precipitación	0
121512	7	Sololá	713	San Lucas Tolimán	10	San Lucas Tolimán	5	Mayo	2023-02-05T00:00:00	2024-11-08T06:00:00	8	Radiación solar	3
121513	7	Sololá	713	San Lucas Tolimán	10	San Lucas Tolimán	5	Mayo	2023-02-05T00:00:00	2024-11-08T07:00:00	2	Temperatura media	18.7
121514	7	Sololá	713	San Lucas Tolimán	10	San Lucas Tolimán	5	Mayo	2023-02-05T00:00:00	2024-11-08T07:00:00	4	Temperatura máxima	18.7
121515	7	Sololá	713	San Lucas Tolimán	10	San Lucas Tolimán	5	Mayo	2023-02-05T00:00:00	2024-11-08T07:00:00	3	Temperatura mínima	16.9
121516	7	Sololá	713	San Lucas Tolimán	10	San Lucas Tolimán	5	Mayo	2023-02-05T00:00:00	2024-11-08T07:00:00	5	Humedad	58
121517	7	Sololá	713	San Lucas Tolimán	10	San Lucas Tolimán	5	Mayo	2023-02-05T00:00:00	2024-11-08T07:00:00	6	Velocidad del viento	0
121518	7	Sololá	713	San Lucas Tolimán	10	San Lucas Tolimán	5	Mayo	2023-02-05T00:00:00	2024-11-08T07:00:00	7	Dirección del viento	0
121519	7	Sololá	713	San Lucas Tolimán	10	San Lucas Tolimán	5	Mayo	2023-02-05T00:00:00	2024-11-08T07:00:00	1	Precipitación	0
121520	7	Sololá	713	San Lucas Tolimán	10	San Lucas Tolimán	5	Mayo	2023-02-05T00:00:00	2024-11-08T07:00:00	8	Radiación solar	93
121521	7	Sololá	713	San Lucas Tolimán	10	San Lucas Tolimán	5	Mayo	2023-02-05T00:00:00	2024-11-08T08:00:00	2	Temperatura media	20.6
121522	7	Sololá	713	San Lucas Tolimán	10	San Lucas Tolimán	5	Mayo	2023-02-05T00:00:00	2024-11-08T08:00:00	4	Temperatura máxima	20.6
121523	7	Sololá	713	San Lucas Tolimán	10	San Lucas Tolimán	5	Mayo	2023-02-05T00:00:00	2024-11-08T08:00:00	3	Temperatura mínima	18.7
121524	7	Sololá	713	San Lucas Tolimán	10	San Lucas Tolimán	5	Mayo	2023-02-05T00:00:00	2024-11-08T08:00:00	5	Humedad	57
121525	7	Sololá	713	San Lucas Tolimán	10	San Lucas Tolimán	5	Mayo	2023-02-05T00:00:00	2024-11-08T08:00:00	6	Velocidad del viento	1.6
121526	7	Sololá	713	San Lucas Tolimán	10	San Lucas Tolimán	5	Mayo	2023-02-05T00:00:00	2024-11-08T08:00:00	7	Dirección del viento	1.61
121527	7	Sololá	713	San Lucas Tolimán	10	San Lucas Tolimán	5	Mayo	2023-02-05T00:00:00	2024-11-08T08:00:00	1	Precipitación	0
121528	7	Sololá	713	San Lucas Tolimán	10	San Lucas Tolimán	5	Mayo	2023-02-05T00:00:00	2024-11-08T08:00:00	8	Radiación solar	290
121529	7	Sololá	713	San Lucas Tolimán	10	San Lucas Tolimán	5	Mayo	2023-02-05T00:00:00	2024-11-08T09:00:00	2	Temperatura media	22.2
121530	7	Sololá	713	San Lucas Tolimán	10	San Lucas Tolimán	5	Mayo	2023-02-05T00:00:00	2024-11-08T09:00:00	4	Temperatura máxima	22.2
121531	7	Sololá	713	San Lucas Tolimán	10	San Lucas Tolimán	5	Mayo	2023-02-05T00:00:00	2024-11-08T09:00:00	3	Temperatura mínima	20.6
121532	7	Sololá	713	San Lucas Tolimán	10	San Lucas Tolimán	5	Mayo	2023-02-05T00:00:00	2024-11-08T09:00:00	5	Humedad	56
121533	7	Sololá	713	San Lucas Tolimán	10	San Lucas Tolimán	5	Mayo	2023-02-05T00:00:00	2024-11-08T09:00:00	6	Velocidad del viento	4.8
121534	7	Sololá	713	San Lucas Tolimán	10	San Lucas Tolimán	5	Mayo	2023-02-05T00:00:00	2024-11-08T09:00:00	7	Dirección del viento	4.83
121535	7	Sololá	713	San Lucas Tolimán	10	San Lucas Tolimán	5	Mayo	2023-02-05T00:00:00	2024-11-08T09:00:00	1	Precipitación	0
121536	7	Sololá	713	San Lucas Tolimán	10	San Lucas Tolimán	5	Mayo	2023-02-05T00:00:00	2024-11-08T09:00:00	8	Radiación solar	488
121537	7	Sololá	713	San Lucas Tolimán	10	San Lucas Tolimán	5	Mayo	2023-02-05T00:00:00	2024-11-08T10:00:00	2	Temperatura media	22.8
121538	7	Sololá	713	San Lucas Tolimán	10	San Lucas Tolimán	5	Mayo	2023-02-05T00:00:00	2024-11-08T10:00:00	4	Temperatura máxima	22.9
121539	7	Sololá	713	San Lucas Tolimán	10	San Lucas Tolimán	5	Mayo	2023-02-05T00:00:00	2024-11-08T10:00:00	3	Temperatura mínima	21.6
121540	7	Sololá	713	San Lucas Tolimán	10	San Lucas Tolimán	5	Mayo	2023-02-05T00:00:00	2024-11-08T10:00:00	5	Humedad	57
121541	7	Sololá	713	San Lucas Tolimán	10	San Lucas Tolimán	5	Mayo	2023-02-05T00:00:00	2024-11-08T10:00:00	6	Velocidad del viento	6.4
121542	7	Sololá	713	San Lucas Tolimán	10	San Lucas Tolimán	5	Mayo	2023-02-05T00:00:00	2024-11-08T10:00:00	7	Dirección del viento	6.44
121543	7	Sololá	713	San Lucas Tolimán	10	San Lucas Tolimán	5	Mayo	2023-02-05T00:00:00	2024-11-08T10:00:00	1	Precipitación	0
121544	7	Sololá	713	San Lucas Tolimán	10	San Lucas Tolimán	5	Mayo	2023-02-05T00:00:00	2024-11-08T10:00:00	8	Radiación solar	612
121545	7	Sololá	713	San Lucas Tolimán	10	San Lucas Tolimán	5	Mayo	2023-02-05T00:00:00	2024-11-08T11:00:00	2	Temperatura media	22.5
121546	7	Sololá	713	San Lucas Tolimán	10	San Lucas Tolimán	5	Mayo	2023-02-05T00:00:00	2024-11-08T11:00:00	4	Temperatura máxima	23.6
121547	7	Sololá	713	San Lucas Tolimán	10	San Lucas Tolimán	5	Mayo	2023-02-05T00:00:00	2024-11-08T11:00:00	3	Temperatura mínima	22.5
121548	7	Sololá	713	San Lucas Tolimán	10	San Lucas Tolimán	5	Mayo	2023-02-05T00:00:00	2024-11-08T11:00:00	5	Humedad	60
121549	7	Sololá	713	San Lucas Tolimán	10	San Lucas Tolimán	5	Mayo	2023-02-05T00:00:00	2024-11-08T11:00:00	6	Velocidad del viento	8
121550	7	Sololá	713	San Lucas Tolimán	10	San Lucas Tolimán	5	Mayo	2023-02-05T00:00:00	2024-11-08T11:00:00	7	Dirección del viento	8.05
121551	7	Sololá	713	San Lucas Tolimán	10	San Lucas Tolimán	5	Mayo	2023-02-05T00:00:00	2024-11-08T11:00:00	1	Precipitación	0
121552	7	Sololá	713	San Lucas Tolimán	10	San Lucas Tolimán	5	Mayo	2023-02-05T00:00:00	2024-11-08T11:00:00	8	Radiación solar	798
121553	7	Sololá	713	San Lucas Tolimán	10	San Lucas Tolimán	5	Mayo	2023-02-05T00:00:00	2024-11-08T12:00:00	2	Temperatura media	22.8
121554	7	Sololá	713	San Lucas Tolimán	10	San Lucas Tolimán	5	Mayo	2023-02-05T00:00:00	2024-11-08T12:00:00	4	Temperatura máxima	23.3
121555	7	Sololá	713	San Lucas Tolimán	10	San Lucas Tolimán	5	Mayo	2023-02-05T00:00:00	2024-11-08T12:00:00	3	Temperatura mínima	21.8
121556	7	Sololá	713	San Lucas Tolimán	10	San Lucas Tolimán	5	Mayo	2023-02-05T00:00:00	2024-11-08T12:00:00	5	Humedad	59
121557	7	Sololá	713	San Lucas Tolimán	10	San Lucas Tolimán	5	Mayo	2023-02-05T00:00:00	2024-11-08T12:00:00	6	Velocidad del viento	8
121558	7	Sololá	713	San Lucas Tolimán	10	San Lucas Tolimán	5	Mayo	2023-02-05T00:00:00	2024-11-08T12:00:00	7	Dirección del viento	8.05
121559	7	Sololá	713	San Lucas Tolimán	10	San Lucas Tolimán	5	Mayo	2023-02-05T00:00:00	2024-11-08T12:00:00	1	Precipitación	0
121560	7	Sololá	713	San Lucas Tolimán	10	San Lucas Tolimán	5	Mayo	2023-02-05T00:00:00	2024-11-08T12:00:00	8	Radiación solar	789
121561	7	Sololá	713	San Lucas Tolimán	10	San Lucas Tolimán	5	Mayo	2023-02-05T00:00:00	2024-11-08T13:00:00	2	Temperatura media	23.4
121562	7	Sololá	713	San Lucas Tolimán	10	San Lucas Tolimán	5	Mayo	2023-02-05T00:00:00	2024-11-08T13:00:00	4	Temperatura máxima	23.6
121563	7	Sololá	713	San Lucas Tolimán	10	San Lucas Tolimán	5	Mayo	2023-02-05T00:00:00	2024-11-08T13:00:00	3	Temperatura mínima	22.7
121564	7	Sololá	713	San Lucas Tolimán	10	San Lucas Tolimán	5	Mayo	2023-02-05T00:00:00	2024-11-08T13:00:00	5	Humedad	58
121565	7	Sololá	713	San Lucas Tolimán	10	San Lucas Tolimán	5	Mayo	2023-02-05T00:00:00	2024-11-08T13:00:00	6	Velocidad del viento	11.3
121566	7	Sololá	713	San Lucas Tolimán	10	San Lucas Tolimán	5	Mayo	2023-02-05T00:00:00	2024-11-08T13:00:00	7	Dirección del viento	11.27
121567	7	Sololá	713	San Lucas Tolimán	10	San Lucas Tolimán	5	Mayo	2023-02-05T00:00:00	2024-11-08T13:00:00	1	Precipitación	0
121568	7	Sololá	713	San Lucas Tolimán	10	San Lucas Tolimán	5	Mayo	2023-02-05T00:00:00	2024-11-08T13:00:00	8	Radiación solar	1042
121569	7	Sololá	713	San Lucas Tolimán	10	San Lucas Tolimán	5	Mayo	2023-02-05T00:00:00	2024-11-08T14:00:00	2	Temperatura media	22.6
121570	7	Sololá	713	San Lucas Tolimán	10	San Lucas Tolimán	5	Mayo	2023-02-05T00:00:00	2024-11-08T14:00:00	4	Temperatura máxima	23.5
121571	7	Sololá	713	San Lucas Tolimán	10	San Lucas Tolimán	5	Mayo	2023-02-05T00:00:00	2024-11-08T14:00:00	3	Temperatura mínima	22.3
121572	7	Sololá	713	San Lucas Tolimán	10	San Lucas Tolimán	5	Mayo	2023-02-05T00:00:00	2024-11-08T14:00:00	5	Humedad	62
121573	7	Sololá	713	San Lucas Tolimán	10	San Lucas Tolimán	5	Mayo	2023-02-05T00:00:00	2024-11-08T14:00:00	6	Velocidad del viento	11.3
121574	7	Sololá	713	San Lucas Tolimán	10	San Lucas Tolimán	5	Mayo	2023-02-05T00:00:00	2024-11-08T14:00:00	7	Dirección del viento	11.27
121575	7	Sololá	713	San Lucas Tolimán	10	San Lucas Tolimán	5	Mayo	2023-02-05T00:00:00	2024-11-08T14:00:00	1	Precipitación	0
121576	7	Sololá	713	San Lucas Tolimán	10	San Lucas Tolimán	5	Mayo	2023-02-05T00:00:00	2024-11-08T14:00:00	8	Radiación solar	729
121577	7	Sololá	713	San Lucas Tolimán	10	San Lucas Tolimán	5	Mayo	2023-02-05T00:00:00	2024-11-08T15:00:00	2	Temperatura media	21.8
121578	7	Sololá	713	San Lucas Tolimán	10	San Lucas Tolimán	5	Mayo	2023-02-05T00:00:00	2024-11-08T15:00:00	4	Temperatura máxima	22.8
121579	7	Sololá	713	San Lucas Tolimán	10	San Lucas Tolimán	5	Mayo	2023-02-05T00:00:00	2024-11-08T15:00:00	3	Temperatura mínima	21.2
121580	7	Sololá	713	San Lucas Tolimán	10	San Lucas Tolimán	5	Mayo	2023-02-05T00:00:00	2024-11-08T15:00:00	5	Humedad	61
121581	7	Sololá	713	San Lucas Tolimán	10	San Lucas Tolimán	5	Mayo	2023-02-05T00:00:00	2024-11-08T15:00:00	6	Velocidad del viento	6.4
121582	7	Sololá	713	San Lucas Tolimán	10	San Lucas Tolimán	5	Mayo	2023-02-05T00:00:00	2024-11-08T15:00:00	7	Dirección del viento	6.44
121583	7	Sololá	713	San Lucas Tolimán	10	San Lucas Tolimán	5	Mayo	2023-02-05T00:00:00	2024-11-08T15:00:00	1	Precipitación	0
121584	7	Sololá	713	San Lucas Tolimán	10	San Lucas Tolimán	5	Mayo	2023-02-05T00:00:00	2024-11-08T15:00:00	8	Radiación solar	250
121585	7	Sololá	713	San Lucas Tolimán	10	San Lucas Tolimán	5	Mayo	2023-02-05T00:00:00	2024-11-08T16:00:00	2	Temperatura media	19.8
121586	7	Sololá	713	San Lucas Tolimán	10	San Lucas Tolimán	5	Mayo	2023-02-05T00:00:00	2024-11-08T16:00:00	4	Temperatura máxima	22.1
121587	7	Sololá	713	San Lucas Tolimán	10	San Lucas Tolimán	5	Mayo	2023-02-05T00:00:00	2024-11-08T16:00:00	3	Temperatura mínima	19.8
121588	7	Sololá	713	San Lucas Tolimán	10	San Lucas Tolimán	5	Mayo	2023-02-05T00:00:00	2024-11-08T16:00:00	5	Humedad	61
121589	7	Sololá	713	San Lucas Tolimán	10	San Lucas Tolimán	5	Mayo	2023-02-05T00:00:00	2024-11-08T16:00:00	6	Velocidad del viento	8
121590	7	Sololá	713	San Lucas Tolimán	10	San Lucas Tolimán	5	Mayo	2023-02-05T00:00:00	2024-11-08T16:00:00	7	Dirección del viento	8.05
121591	7	Sololá	713	San Lucas Tolimán	10	San Lucas Tolimán	5	Mayo	2023-02-05T00:00:00	2024-11-08T16:00:00	1	Precipitación	1.2
121592	7	Sololá	713	San Lucas Tolimán	10	San Lucas Tolimán	5	Mayo	2023-02-05T00:00:00	2024-11-08T16:00:00	8	Radiación solar	84
121593	7	Sololá	713	San Lucas Tolimán	10	San Lucas Tolimán	5	Mayo	2023-02-05T00:00:00	2024-11-08T17:00:00	2	Temperatura media	16.7
121594	7	Sololá	713	San Lucas Tolimán	10	San Lucas Tolimán	5	Mayo	2023-02-05T00:00:00	2024-11-08T17:00:00	4	Temperatura máxima	19.8
121595	7	Sololá	713	San Lucas Tolimán	10	San Lucas Tolimán	5	Mayo	2023-02-05T00:00:00	2024-11-08T17:00:00	3	Temperatura mínima	16.6
121596	7	Sololá	713	San Lucas Tolimán	10	San Lucas Tolimán	5	Mayo	2023-02-05T00:00:00	2024-11-08T17:00:00	5	Humedad	63
121597	7	Sololá	713	San Lucas Tolimán	10	San Lucas Tolimán	5	Mayo	2023-02-05T00:00:00	2024-11-08T17:00:00	6	Velocidad del viento	8
121598	7	Sololá	713	San Lucas Tolimán	10	San Lucas Tolimán	5	Mayo	2023-02-05T00:00:00	2024-11-08T17:00:00	7	Dirección del viento	8.05
121599	7	Sololá	713	San Lucas Tolimán	10	San Lucas Tolimán	5	Mayo	2023-02-05T00:00:00	2024-11-08T17:00:00	1	Precipitación	8.6
121600	7	Sololá	713	San Lucas Tolimán	10	San Lucas Tolimán	5	Mayo	2023-02-05T00:00:00	2024-11-08T17:00:00	8	Radiación solar	0
121601	7	Sololá	713	San Lucas Tolimán	10	San Lucas Tolimán	5	Mayo	2023-02-05T00:00:00	2024-11-08T18:00:00	2	Temperatura media	16.9
121602	7	Sololá	713	San Lucas Tolimán	10	San Lucas Tolimán	5	Mayo	2023-02-05T00:00:00	2024-11-08T18:00:00	4	Temperatura máxima	17.1
121603	7	Sololá	713	San Lucas Tolimán	10	San Lucas Tolimán	5	Mayo	2023-02-05T00:00:00	2024-11-08T18:00:00	3	Temperatura mínima	16.6
121604	7	Sololá	713	San Lucas Tolimán	10	San Lucas Tolimán	5	Mayo	2023-02-05T00:00:00	2024-11-08T18:00:00	5	Humedad	63
121605	7	Sololá	713	San Lucas Tolimán	10	San Lucas Tolimán	5	Mayo	2023-02-05T00:00:00	2024-11-08T18:00:00	6	Velocidad del viento	8
121606	7	Sololá	713	San Lucas Tolimán	10	San Lucas Tolimán	5	Mayo	2023-02-05T00:00:00	2024-11-08T18:00:00	7	Dirección del viento	8.05
121607	7	Sololá	713	San Lucas Tolimán	10	San Lucas Tolimán	5	Mayo	2023-02-05T00:00:00	2024-11-08T18:00:00	1	Precipitación	1.6
121608	7	Sololá	713	San Lucas Tolimán	10	San Lucas Tolimán	5	Mayo	2023-02-05T00:00:00	2024-11-08T18:00:00	8	Radiación solar	0
121609	7	Sololá	713	San Lucas Tolimán	10	San Lucas Tolimán	5	Mayo	2023-02-05T00:00:00	2024-11-08T19:00:00	2	Temperatura media	17.3
121610	7	Sololá	713	San Lucas Tolimán	10	San Lucas Tolimán	5	Mayo	2023-02-05T00:00:00	2024-11-08T19:00:00	4	Temperatura máxima	17.4
121611	7	Sololá	713	San Lucas Tolimán	10	San Lucas Tolimán	5	Mayo	2023-02-05T00:00:00	2024-11-08T19:00:00	3	Temperatura mínima	16.9
121612	7	Sololá	713	San Lucas Tolimán	10	San Lucas Tolimán	5	Mayo	2023-02-05T00:00:00	2024-11-08T19:00:00	5	Humedad	63
121613	7	Sololá	713	San Lucas Tolimán	10	San Lucas Tolimán	5	Mayo	2023-02-05T00:00:00	2024-11-08T19:00:00	6	Velocidad del viento	9.7
121614	7	Sololá	713	San Lucas Tolimán	10	San Lucas Tolimán	5	Mayo	2023-02-05T00:00:00	2024-11-08T19:00:00	7	Dirección del viento	9.66
121615	7	Sololá	713	San Lucas Tolimán	10	San Lucas Tolimán	5	Mayo	2023-02-05T00:00:00	2024-11-08T19:00:00	1	Precipitación	1.6
121616	7	Sololá	713	San Lucas Tolimán	10	San Lucas Tolimán	5	Mayo	2023-02-05T00:00:00	2024-11-08T19:00:00	8	Radiación solar	0
121617	7	Sololá	713	San Lucas Tolimán	10	San Lucas Tolimán	5	Mayo	2023-02-05T00:00:00	2024-11-08T20:00:00	2	Temperatura media	17.7
121618	7	Sololá	713	San Lucas Tolimán	10	San Lucas Tolimán	5	Mayo	2023-02-05T00:00:00	2024-11-08T20:00:00	4	Temperatura máxima	17.8
121619	7	Sololá	713	San Lucas Tolimán	10	San Lucas Tolimán	5	Mayo	2023-02-05T00:00:00	2024-11-08T20:00:00	3	Temperatura mínima	17.1
121620	7	Sololá	713	San Lucas Tolimán	10	San Lucas Tolimán	5	Mayo	2023-02-05T00:00:00	2024-11-08T20:00:00	5	Humedad	58
121621	7	Sololá	713	San Lucas Tolimán	10	San Lucas Tolimán	5	Mayo	2023-02-05T00:00:00	2024-11-08T20:00:00	6	Velocidad del viento	4.8
121622	7	Sololá	713	San Lucas Tolimán	10	San Lucas Tolimán	5	Mayo	2023-02-05T00:00:00	2024-11-08T20:00:00	7	Dirección del viento	4.83
121623	7	Sololá	713	San Lucas Tolimán	10	San Lucas Tolimán	5	Mayo	2023-02-05T00:00:00	2024-11-08T20:00:00	1	Precipitación	0
121624	7	Sololá	713	San Lucas Tolimán	10	San Lucas Tolimán	5	Mayo	2023-02-05T00:00:00	2024-11-08T20:00:00	8	Radiación solar	0
121625	7	Sololá	713	San Lucas Tolimán	10	San Lucas Tolimán	5	Mayo	2023-02-05T00:00:00	2024-11-08T21:00:00	2	Temperatura media	17.1
121626	7	Sololá	713	San Lucas Tolimán	10	San Lucas Tolimán	5	Mayo	2023-02-05T00:00:00	2024-11-08T21:00:00	4	Temperatura máxima	17.9
121627	7	Sololá	713	San Lucas Tolimán	10	San Lucas Tolimán	5	Mayo	2023-02-05T00:00:00	2024-11-08T21:00:00	3	Temperatura mínima	17.1
121628	7	Sololá	713	San Lucas Tolimán	10	San Lucas Tolimán	5	Mayo	2023-02-05T00:00:00	2024-11-08T21:00:00	5	Humedad	61
121629	7	Sololá	713	San Lucas Tolimán	10	San Lucas Tolimán	5	Mayo	2023-02-05T00:00:00	2024-11-08T21:00:00	6	Velocidad del viento	1.6
121630	7	Sololá	713	San Lucas Tolimán	10	San Lucas Tolimán	5	Mayo	2023-02-05T00:00:00	2024-11-08T21:00:00	7	Dirección del viento	1.61
121631	7	Sololá	713	San Lucas Tolimán	10	San Lucas Tolimán	5	Mayo	2023-02-05T00:00:00	2024-11-08T21:00:00	1	Precipitación	0
121632	7	Sololá	713	San Lucas Tolimán	10	San Lucas Tolimán	5	Mayo	2023-02-05T00:00:00	2024-11-08T21:00:00	8	Radiación solar	0
121633	7	Sololá	713	San Lucas Tolimán	10	San Lucas Tolimán	5	Mayo	2023-02-05T00:00:00	2024-11-08T22:00:00	2	Temperatura media	16.8
121634	7	Sololá	713	San Lucas Tolimán	10	San Lucas Tolimán	5	Mayo	2023-02-05T00:00:00	2024-11-08T22:00:00	4	Temperatura máxima	17.3
121635	7	Sololá	713	San Lucas Tolimán	10	San Lucas Tolimán	5	Mayo	2023-02-05T00:00:00	2024-11-08T22:00:00	3	Temperatura mínima	16.8
121636	7	Sololá	713	San Lucas Tolimán	10	San Lucas Tolimán	5	Mayo	2023-02-05T00:00:00	2024-11-08T22:00:00	5	Humedad	62
121637	7	Sololá	713	San Lucas Tolimán	10	San Lucas Tolimán	5	Mayo	2023-02-05T00:00:00	2024-11-08T22:00:00	6	Velocidad del viento	1.6
121638	7	Sololá	713	San Lucas Tolimán	10	San Lucas Tolimán	5	Mayo	2023-02-05T00:00:00	2024-11-08T22:00:00	7	Dirección del viento	1.61
121639	7	Sololá	713	San Lucas Tolimán	10	San Lucas Tolimán	5	Mayo	2023-02-05T00:00:00	2024-11-08T22:00:00	1	Precipitación	0
121640	7	Sololá	713	San Lucas Tolimán	10	San Lucas Tolimán	5	Mayo	2023-02-05T00:00:00	2024-11-08T22:00:00	8	Radiación solar	0
121641	7	Sololá	713	San Lucas Tolimán	10	San Lucas Tolimán	5	Mayo	2023-02-05T00:00:00	2024-11-08T23:00:00	2	Temperatura media	17.1
121642	7	Sololá	713	San Lucas Tolimán	10	San Lucas Tolimán	5	Mayo	2023-02-05T00:00:00	2024-11-08T23:00:00	4	Temperatura máxima	17.1
121643	7	Sololá	713	San Lucas Tolimán	10	San Lucas Tolimán	5	Mayo	2023-02-05T00:00:00	2024-11-08T23:00:00	3	Temperatura mínima	16.7
121644	7	Sololá	713	San Lucas Tolimán	10	San Lucas Tolimán	5	Mayo	2023-02-05T00:00:00	2024-11-08T23:00:00	5	Humedad	63
121645	7	Sololá	713	San Lucas Tolimán	10	San Lucas Tolimán	5	Mayo	2023-02-05T00:00:00	2024-11-08T23:00:00	6	Velocidad del viento	1.6
121646	7	Sololá	713	San Lucas Tolimán	10	San Lucas Tolimán	5	Mayo	2023-02-05T00:00:00	2024-11-08T23:00:00	7	Dirección del viento	1.61
121647	7	Sololá	713	San Lucas Tolimán	10	San Lucas Tolimán	5	Mayo	2023-02-05T00:00:00	2024-11-08T23:00:00	1	Precipitación	0
121648	7	Sololá	713	San Lucas Tolimán	10	San Lucas Tolimán	5	Mayo	2023-02-05T00:00:00	2024-11-08T23:00:00	8	Radiación solar	0
121649	7	Sololá	713	San Lucas Tolimán	10	San Lucas Tolimán	5	Mayo	2023-03-05T00:00:00	2024-11-08T00:00:00	2	Temperatura media	17.4
121650	7	Sololá	713	San Lucas Tolimán	10	San Lucas Tolimán	5	Mayo	2023-03-05T00:00:00	2024-11-08T00:00:00	4	Temperatura máxima	17.6
121651	7	Sololá	713	San Lucas Tolimán	10	San Lucas Tolimán	5	Mayo	2023-03-05T00:00:00	2024-11-08T00:00:00	3	Temperatura mínima	17.1
121652	7	Sololá	713	San Lucas Tolimán	10	San Lucas Tolimán	5	Mayo	2023-03-05T00:00:00	2024-11-08T00:00:00	5	Humedad	61
121653	7	Sololá	713	San Lucas Tolimán	10	San Lucas Tolimán	5	Mayo	2023-03-05T00:00:00	2024-11-08T00:00:00	6	Velocidad del viento	3.2
121654	7	Sololá	713	San Lucas Tolimán	10	San Lucas Tolimán	5	Mayo	2023-03-05T00:00:00	2024-11-08T00:00:00	7	Dirección del viento	3.22
121655	7	Sololá	713	San Lucas Tolimán	10	San Lucas Tolimán	5	Mayo	2023-03-05T00:00:00	2024-11-08T00:00:00	1	Precipitación	0
121656	7	Sololá	713	San Lucas Tolimán	10	San Lucas Tolimán	5	Mayo	2023-03-05T00:00:00	2024-11-08T00:00:00	8	Radiación solar	0
121657	7	Sololá	713	San Lucas Tolimán	10	San Lucas Tolimán	5	Mayo	2023-03-05T00:00:00	2024-11-08T01:00:00	2	Temperatura media	16.9
121658	7	Sololá	713	San Lucas Tolimán	10	San Lucas Tolimán	5	Mayo	2023-03-05T00:00:00	2024-11-08T01:00:00	4	Temperatura máxima	17.4
121659	7	Sololá	713	San Lucas Tolimán	10	San Lucas Tolimán	5	Mayo	2023-03-05T00:00:00	2024-11-08T01:00:00	3	Temperatura mínima	16.8
121660	7	Sololá	713	San Lucas Tolimán	10	San Lucas Tolimán	5	Mayo	2023-03-05T00:00:00	2024-11-08T01:00:00	5	Humedad	60
121661	7	Sololá	713	San Lucas Tolimán	10	San Lucas Tolimán	5	Mayo	2023-03-05T00:00:00	2024-11-08T01:00:00	6	Velocidad del viento	4.8
121662	7	Sololá	713	San Lucas Tolimán	10	San Lucas Tolimán	5	Mayo	2023-03-05T00:00:00	2024-11-08T01:00:00	7	Dirección del viento	4.83
121663	7	Sololá	713	San Lucas Tolimán	10	San Lucas Tolimán	5	Mayo	2023-03-05T00:00:00	2024-11-08T01:00:00	1	Precipitación	0
121664	7	Sololá	713	San Lucas Tolimán	10	San Lucas Tolimán	5	Mayo	2023-03-05T00:00:00	2024-11-08T01:00:00	8	Radiación solar	0
121665	7	Sololá	713	San Lucas Tolimán	10	San Lucas Tolimán	5	Mayo	2023-03-05T00:00:00	2024-11-08T02:00:00	2	Temperatura media	17
121666	7	Sololá	713	San Lucas Tolimán	10	San Lucas Tolimán	5	Mayo	2023-03-05T00:00:00	2024-11-08T02:00:00	4	Temperatura máxima	17.2
121667	7	Sololá	713	San Lucas Tolimán	10	San Lucas Tolimán	5	Mayo	2023-03-05T00:00:00	2024-11-08T02:00:00	3	Temperatura mínima	16.8
121668	7	Sololá	713	San Lucas Tolimán	10	San Lucas Tolimán	5	Mayo	2023-03-05T00:00:00	2024-11-08T02:00:00	5	Humedad	58
121669	7	Sololá	713	San Lucas Tolimán	10	San Lucas Tolimán	5	Mayo	2023-03-05T00:00:00	2024-11-08T02:00:00	6	Velocidad del viento	3.2
121670	7	Sololá	713	San Lucas Tolimán	10	San Lucas Tolimán	5	Mayo	2023-03-05T00:00:00	2024-11-08T02:00:00	7	Dirección del viento	3.22
121671	7	Sololá	713	San Lucas Tolimán	10	San Lucas Tolimán	5	Mayo	2023-03-05T00:00:00	2024-11-08T02:00:00	1	Precipitación	0
121672	7	Sololá	713	San Lucas Tolimán	10	San Lucas Tolimán	5	Mayo	2023-03-05T00:00:00	2024-11-08T02:00:00	8	Radiación solar	0
121673	7	Sololá	713	San Lucas Tolimán	10	San Lucas Tolimán	5	Mayo	2023-03-05T00:00:00	2024-11-08T03:00:00	2	Temperatura media	16.5
121674	7	Sololá	713	San Lucas Tolimán	10	San Lucas Tolimán	5	Mayo	2023-03-05T00:00:00	2024-11-08T03:00:00	4	Temperatura máxima	17.6
121675	7	Sololá	713	San Lucas Tolimán	10	San Lucas Tolimán	5	Mayo	2023-03-05T00:00:00	2024-11-08T03:00:00	3	Temperatura mínima	16.4
121676	7	Sololá	713	San Lucas Tolimán	10	San Lucas Tolimán	5	Mayo	2023-03-05T00:00:00	2024-11-08T03:00:00	5	Humedad	61
121677	7	Sololá	713	San Lucas Tolimán	10	San Lucas Tolimán	5	Mayo	2023-03-05T00:00:00	2024-11-08T03:00:00	6	Velocidad del viento	3.2
121678	7	Sololá	713	San Lucas Tolimán	10	San Lucas Tolimán	5	Mayo	2023-03-05T00:00:00	2024-11-08T03:00:00	7	Dirección del viento	3.22
121679	7	Sololá	713	San Lucas Tolimán	10	San Lucas Tolimán	5	Mayo	2023-03-05T00:00:00	2024-11-08T03:00:00	1	Precipitación	0
121680	7	Sololá	713	San Lucas Tolimán	10	San Lucas Tolimán	5	Mayo	2023-03-05T00:00:00	2024-11-08T03:00:00	8	Radiación solar	0
121681	7	Sololá	713	San Lucas Tolimán	10	San Lucas Tolimán	5	Mayo	2023-03-05T00:00:00	2024-11-08T04:00:00	2	Temperatura media	16.8
121682	7	Sololá	713	San Lucas Tolimán	10	San Lucas Tolimán	5	Mayo	2023-03-05T00:00:00	2024-11-08T04:00:00	4	Temperatura máxima	16.8
121683	7	Sololá	713	San Lucas Tolimán	10	San Lucas Tolimán	5	Mayo	2023-03-05T00:00:00	2024-11-08T04:00:00	3	Temperatura mínima	16.4
121684	7	Sololá	713	San Lucas Tolimán	10	San Lucas Tolimán	5	Mayo	2023-03-05T00:00:00	2024-11-08T04:00:00	5	Humedad	60
121685	7	Sololá	713	San Lucas Tolimán	10	San Lucas Tolimán	5	Mayo	2023-03-05T00:00:00	2024-11-08T04:00:00	6	Velocidad del viento	1.6
121686	7	Sololá	713	San Lucas Tolimán	10	San Lucas Tolimán	5	Mayo	2023-03-05T00:00:00	2024-11-08T04:00:00	7	Dirección del viento	1.61
121687	7	Sololá	713	San Lucas Tolimán	10	San Lucas Tolimán	5	Mayo	2023-03-05T00:00:00	2024-11-08T04:00:00	1	Precipitación	0
121688	7	Sololá	713	San Lucas Tolimán	10	San Lucas Tolimán	5	Mayo	2023-03-05T00:00:00	2024-11-08T04:00:00	8	Radiación solar	0
121689	7	Sololá	713	San Lucas Tolimán	10	San Lucas Tolimán	5	Mayo	2023-03-05T00:00:00	2024-11-08T05:00:00	2	Temperatura media	16.4
121690	7	Sololá	713	San Lucas Tolimán	10	San Lucas Tolimán	5	Mayo	2023-03-05T00:00:00	2024-11-08T05:00:00	4	Temperatura máxima	16.9
121691	7	Sololá	713	San Lucas Tolimán	10	San Lucas Tolimán	5	Mayo	2023-03-05T00:00:00	2024-11-08T05:00:00	3	Temperatura mínima	16.4
121692	7	Sololá	713	San Lucas Tolimán	10	San Lucas Tolimán	5	Mayo	2023-03-05T00:00:00	2024-11-08T05:00:00	5	Humedad	61
121693	7	Sololá	713	San Lucas Tolimán	10	San Lucas Tolimán	5	Mayo	2023-03-05T00:00:00	2024-11-08T05:00:00	6	Velocidad del viento	1.6
121694	7	Sololá	713	San Lucas Tolimán	10	San Lucas Tolimán	5	Mayo	2023-03-05T00:00:00	2024-11-08T05:00:00	7	Dirección del viento	1.61
121695	7	Sololá	713	San Lucas Tolimán	10	San Lucas Tolimán	5	Mayo	2023-03-05T00:00:00	2024-11-08T05:00:00	1	Precipitación	0
121696	7	Sololá	713	San Lucas Tolimán	10	San Lucas Tolimán	5	Mayo	2023-03-05T00:00:00	2024-11-08T05:00:00	8	Radiación solar	0
121697	7	Sololá	713	San Lucas Tolimán	10	San Lucas Tolimán	5	Mayo	2023-03-05T00:00:00	2024-11-08T06:00:00	2	Temperatura media	16.4
121698	7	Sololá	713	San Lucas Tolimán	10	San Lucas Tolimán	5	Mayo	2023-03-05T00:00:00	2024-11-08T06:00:00	4	Temperatura máxima	16.8
121699	7	Sololá	713	San Lucas Tolimán	10	San Lucas Tolimán	5	Mayo	2023-03-05T00:00:00	2024-11-08T06:00:00	3	Temperatura mínima	16.3
121700	7	Sololá	713	San Lucas Tolimán	10	San Lucas Tolimán	5	Mayo	2023-03-05T00:00:00	2024-11-08T06:00:00	5	Humedad	61
121701	7	Sololá	713	San Lucas Tolimán	10	San Lucas Tolimán	5	Mayo	2023-03-05T00:00:00	2024-11-08T06:00:00	6	Velocidad del viento	1.6
121702	7	Sololá	713	San Lucas Tolimán	10	San Lucas Tolimán	5	Mayo	2023-03-05T00:00:00	2024-11-08T06:00:00	7	Dirección del viento	1.61
121703	7	Sololá	713	San Lucas Tolimán	10	San Lucas Tolimán	5	Mayo	2023-03-05T00:00:00	2024-11-08T06:00:00	1	Precipitación	0
121704	7	Sololá	713	San Lucas Tolimán	10	San Lucas Tolimán	5	Mayo	2023-03-05T00:00:00	2024-11-08T06:00:00	8	Radiación solar	1
121705	7	Sololá	713	San Lucas Tolimán	10	San Lucas Tolimán	5	Mayo	2023-03-05T00:00:00	2024-11-08T07:00:00	2	Temperatura media	17
121706	7	Sololá	713	San Lucas Tolimán	10	San Lucas Tolimán	5	Mayo	2023-03-05T00:00:00	2024-11-08T07:00:00	4	Temperatura máxima	17
121707	7	Sololá	713	San Lucas Tolimán	10	San Lucas Tolimán	5	Mayo	2023-03-05T00:00:00	2024-11-08T07:00:00	3	Temperatura mínima	15.7
121708	7	Sololá	713	San Lucas Tolimán	10	San Lucas Tolimán	5	Mayo	2023-03-05T00:00:00	2024-11-08T07:00:00	5	Humedad	61
121709	7	Sololá	713	San Lucas Tolimán	10	San Lucas Tolimán	5	Mayo	2023-03-05T00:00:00	2024-11-08T07:00:00	6	Velocidad del viento	3.2
121710	7	Sololá	713	San Lucas Tolimán	10	San Lucas Tolimán	5	Mayo	2023-03-05T00:00:00	2024-11-08T07:00:00	7	Dirección del viento	3.22
121711	7	Sololá	713	San Lucas Tolimán	10	San Lucas Tolimán	5	Mayo	2023-03-05T00:00:00	2024-11-08T07:00:00	1	Precipitación	0
121712	7	Sololá	713	San Lucas Tolimán	10	San Lucas Tolimán	5	Mayo	2023-03-05T00:00:00	2024-11-08T07:00:00	8	Radiación solar	80
121713	7	Sololá	713	San Lucas Tolimán	10	San Lucas Tolimán	5	Mayo	2023-03-05T00:00:00	2024-11-08T08:00:00	2	Temperatura media	20.1
121714	7	Sololá	713	San Lucas Tolimán	10	San Lucas Tolimán	5	Mayo	2023-03-05T00:00:00	2024-11-08T08:00:00	4	Temperatura máxima	20.1
121715	7	Sololá	713	San Lucas Tolimán	10	San Lucas Tolimán	5	Mayo	2023-03-05T00:00:00	2024-11-08T08:00:00	3	Temperatura mínima	17.1
121716	7	Sololá	713	San Lucas Tolimán	10	San Lucas Tolimán	5	Mayo	2023-03-05T00:00:00	2024-11-08T08:00:00	5	Humedad	57
121717	7	Sololá	713	San Lucas Tolimán	10	San Lucas Tolimán	5	Mayo	2023-03-05T00:00:00	2024-11-08T08:00:00	6	Velocidad del viento	1.6
121718	7	Sololá	713	San Lucas Tolimán	10	San Lucas Tolimán	5	Mayo	2023-03-05T00:00:00	2024-11-08T08:00:00	7	Dirección del viento	1.61
121719	7	Sololá	713	San Lucas Tolimán	10	San Lucas Tolimán	5	Mayo	2023-03-05T00:00:00	2024-11-08T08:00:00	1	Precipitación	0
121720	7	Sololá	713	San Lucas Tolimán	10	San Lucas Tolimán	5	Mayo	2023-03-05T00:00:00	2024-11-08T08:00:00	8	Radiación solar	271
121721	7	Sololá	713	San Lucas Tolimán	10	San Lucas Tolimán	5	Mayo	2023-03-05T00:00:00	2024-11-08T09:00:00	2	Temperatura media	21.5
121722	7	Sololá	713	San Lucas Tolimán	10	San Lucas Tolimán	5	Mayo	2023-03-05T00:00:00	2024-11-08T09:00:00	4	Temperatura máxima	21.5
121723	7	Sololá	713	San Lucas Tolimán	10	San Lucas Tolimán	5	Mayo	2023-03-05T00:00:00	2024-11-08T09:00:00	3	Temperatura mínima	20.1
121724	7	Sololá	713	San Lucas Tolimán	10	San Lucas Tolimán	5	Mayo	2023-03-05T00:00:00	2024-11-08T09:00:00	5	Humedad	54
121725	7	Sololá	713	San Lucas Tolimán	10	San Lucas Tolimán	5	Mayo	2023-03-05T00:00:00	2024-11-08T09:00:00	6	Velocidad del viento	4.8
121726	7	Sololá	713	San Lucas Tolimán	10	San Lucas Tolimán	5	Mayo	2023-03-05T00:00:00	2024-11-08T09:00:00	7	Dirección del viento	4.83
121727	7	Sololá	713	San Lucas Tolimán	10	San Lucas Tolimán	5	Mayo	2023-03-05T00:00:00	2024-11-08T09:00:00	1	Precipitación	0
121728	7	Sololá	713	San Lucas Tolimán	10	San Lucas Tolimán	5	Mayo	2023-03-05T00:00:00	2024-11-08T09:00:00	8	Radiación solar	525
121729	7	Sololá	713	San Lucas Tolimán	10	San Lucas Tolimán	5	Mayo	2023-03-05T00:00:00	2024-11-08T10:00:00	2	Temperatura media	22.8
121730	7	Sololá	713	San Lucas Tolimán	10	San Lucas Tolimán	5	Mayo	2023-03-05T00:00:00	2024-11-08T10:00:00	4	Temperatura máxima	22.8
121731	7	Sololá	713	San Lucas Tolimán	10	San Lucas Tolimán	5	Mayo	2023-03-05T00:00:00	2024-11-08T10:00:00	3	Temperatura mínima	21.4
121732	7	Sololá	713	San Lucas Tolimán	10	San Lucas Tolimán	5	Mayo	2023-03-05T00:00:00	2024-11-08T10:00:00	5	Humedad	54
121733	7	Sololá	713	San Lucas Tolimán	10	San Lucas Tolimán	5	Mayo	2023-03-05T00:00:00	2024-11-08T10:00:00	6	Velocidad del viento	4.8
121734	7	Sololá	713	San Lucas Tolimán	10	San Lucas Tolimán	5	Mayo	2023-03-05T00:00:00	2024-11-08T10:00:00	7	Dirección del viento	4.83
121735	7	Sololá	713	San Lucas Tolimán	10	San Lucas Tolimán	5	Mayo	2023-03-05T00:00:00	2024-11-08T10:00:00	1	Precipitación	0
121736	7	Sololá	713	San Lucas Tolimán	10	San Lucas Tolimán	5	Mayo	2023-03-05T00:00:00	2024-11-08T10:00:00	8	Radiación solar	674
121737	7	Sololá	713	San Lucas Tolimán	10	San Lucas Tolimán	5	Mayo	2023-03-05T00:00:00	2024-11-08T11:00:00	2	Temperatura media	23.9
121738	7	Sololá	713	San Lucas Tolimán	10	San Lucas Tolimán	5	Mayo	2023-03-05T00:00:00	2024-11-08T11:00:00	4	Temperatura máxima	24.8
121739	7	Sololá	713	San Lucas Tolimán	10	San Lucas Tolimán	5	Mayo	2023-03-05T00:00:00	2024-11-08T11:00:00	3	Temperatura mínima	22.8
121740	7	Sololá	713	San Lucas Tolimán	10	San Lucas Tolimán	5	Mayo	2023-03-05T00:00:00	2024-11-08T11:00:00	5	Humedad	56
121741	7	Sololá	713	San Lucas Tolimán	10	San Lucas Tolimán	5	Mayo	2023-03-05T00:00:00	2024-11-08T11:00:00	6	Velocidad del viento	6.4
121742	7	Sololá	713	San Lucas Tolimán	10	San Lucas Tolimán	5	Mayo	2023-03-05T00:00:00	2024-11-08T11:00:00	7	Dirección del viento	6.44
121743	7	Sololá	713	San Lucas Tolimán	10	San Lucas Tolimán	5	Mayo	2023-03-05T00:00:00	2024-11-08T11:00:00	1	Precipitación	0
121744	7	Sololá	713	San Lucas Tolimán	10	San Lucas Tolimán	5	Mayo	2023-03-05T00:00:00	2024-11-08T11:00:00	8	Radiación solar	919
121745	7	Sololá	713	San Lucas Tolimán	10	San Lucas Tolimán	5	Mayo	2023-03-05T00:00:00	2024-11-08T12:00:00	2	Temperatura media	23.2
121746	7	Sololá	713	San Lucas Tolimán	10	San Lucas Tolimán	5	Mayo	2023-03-05T00:00:00	2024-11-08T12:00:00	4	Temperatura máxima	23.9
121747	7	Sololá	713	San Lucas Tolimán	10	San Lucas Tolimán	5	Mayo	2023-03-05T00:00:00	2024-11-08T12:00:00	3	Temperatura mínima	23.2
121748	7	Sololá	713	San Lucas Tolimán	10	San Lucas Tolimán	5	Mayo	2023-03-05T00:00:00	2024-11-08T12:00:00	5	Humedad	59
121749	7	Sololá	713	San Lucas Tolimán	10	San Lucas Tolimán	5	Mayo	2023-03-05T00:00:00	2024-11-08T12:00:00	6	Velocidad del viento	9.7
121750	7	Sololá	713	San Lucas Tolimán	10	San Lucas Tolimán	5	Mayo	2023-03-05T00:00:00	2024-11-08T12:00:00	7	Dirección del viento	9.66
121751	7	Sololá	713	San Lucas Tolimán	10	San Lucas Tolimán	5	Mayo	2023-03-05T00:00:00	2024-11-08T12:00:00	1	Precipitación	0
121752	7	Sololá	713	San Lucas Tolimán	10	San Lucas Tolimán	5	Mayo	2023-03-05T00:00:00	2024-11-08T12:00:00	8	Radiación solar	1029
121753	7	Sololá	713	San Lucas Tolimán	10	San Lucas Tolimán	5	Mayo	2023-03-05T00:00:00	2024-11-08T13:00:00	2	Temperatura media	24.2
121754	7	Sololá	713	San Lucas Tolimán	10	San Lucas Tolimán	5	Mayo	2023-03-05T00:00:00	2024-11-08T13:00:00	4	Temperatura máxima	24.3
121755	7	Sololá	713	San Lucas Tolimán	10	San Lucas Tolimán	5	Mayo	2023-03-05T00:00:00	2024-11-08T13:00:00	3	Temperatura mínima	23.1
121756	7	Sololá	713	San Lucas Tolimán	10	San Lucas Tolimán	5	Mayo	2023-03-05T00:00:00	2024-11-08T13:00:00	5	Humedad	56
121757	7	Sololá	713	San Lucas Tolimán	10	San Lucas Tolimán	5	Mayo	2023-03-05T00:00:00	2024-11-08T13:00:00	6	Velocidad del viento	11.3
121758	7	Sololá	713	San Lucas Tolimán	10	San Lucas Tolimán	5	Mayo	2023-03-05T00:00:00	2024-11-08T13:00:00	7	Dirección del viento	11.27
121759	7	Sololá	713	San Lucas Tolimán	10	San Lucas Tolimán	5	Mayo	2023-03-05T00:00:00	2024-11-08T13:00:00	1	Precipitación	0
121760	7	Sololá	713	San Lucas Tolimán	10	San Lucas Tolimán	5	Mayo	2023-03-05T00:00:00	2024-11-08T13:00:00	8	Radiación solar	1056
121761	7	Sololá	713	San Lucas Tolimán	10	San Lucas Tolimán	5	Mayo	2023-03-05T00:00:00	2024-11-08T14:00:00	2	Temperatura media	24.3
121762	7	Sololá	713	San Lucas Tolimán	10	San Lucas Tolimán	5	Mayo	2023-03-05T00:00:00	2024-11-08T14:00:00	4	Temperatura máxima	24.8
121763	7	Sololá	713	San Lucas Tolimán	10	San Lucas Tolimán	5	Mayo	2023-03-05T00:00:00	2024-11-08T14:00:00	3	Temperatura mínima	23.8
121764	7	Sololá	713	San Lucas Tolimán	10	San Lucas Tolimán	5	Mayo	2023-03-05T00:00:00	2024-11-08T14:00:00	5	Humedad	57
121765	7	Sololá	713	San Lucas Tolimán	10	San Lucas Tolimán	5	Mayo	2023-03-05T00:00:00	2024-11-08T14:00:00	6	Velocidad del viento	9.7
121766	7	Sololá	713	San Lucas Tolimán	10	San Lucas Tolimán	5	Mayo	2023-03-05T00:00:00	2024-11-08T14:00:00	7	Dirección del viento	9.66
121767	7	Sololá	713	San Lucas Tolimán	10	San Lucas Tolimán	5	Mayo	2023-03-05T00:00:00	2024-11-08T14:00:00	1	Precipitación	0
121768	7	Sololá	713	San Lucas Tolimán	10	San Lucas Tolimán	5	Mayo	2023-03-05T00:00:00	2024-11-08T14:00:00	8	Radiación solar	965
121769	7	Sololá	713	San Lucas Tolimán	10	San Lucas Tolimán	5	Mayo	2023-03-05T00:00:00	2024-11-08T15:00:00	2	Temperatura media	23.3
121770	7	Sololá	713	San Lucas Tolimán	10	San Lucas Tolimán	5	Mayo	2023-03-05T00:00:00	2024-11-08T15:00:00	4	Temperatura máxima	24.4
121771	7	Sololá	713	San Lucas Tolimán	10	San Lucas Tolimán	5	Mayo	2023-03-05T00:00:00	2024-11-08T15:00:00	3	Temperatura mínima	23.3
121772	7	Sololá	713	San Lucas Tolimán	10	San Lucas Tolimán	5	Mayo	2023-03-05T00:00:00	2024-11-08T15:00:00	5	Humedad	60
121773	7	Sololá	713	San Lucas Tolimán	10	San Lucas Tolimán	5	Mayo	2023-03-05T00:00:00	2024-11-08T15:00:00	6	Velocidad del viento	11.3
121774	7	Sololá	713	San Lucas Tolimán	10	San Lucas Tolimán	5	Mayo	2023-03-05T00:00:00	2024-11-08T15:00:00	7	Dirección del viento	11.27
121775	7	Sololá	713	San Lucas Tolimán	10	San Lucas Tolimán	5	Mayo	2023-03-05T00:00:00	2024-11-08T15:00:00	1	Precipitación	0
121776	7	Sololá	713	San Lucas Tolimán	10	San Lucas Tolimán	5	Mayo	2023-03-05T00:00:00	2024-11-08T15:00:00	8	Radiación solar	802
121777	7	Sololá	713	San Lucas Tolimán	10	San Lucas Tolimán	5	Mayo	2023-03-05T00:00:00	2024-11-08T16:00:00	2	Temperatura media	22.8
121778	7	Sololá	713	San Lucas Tolimán	10	San Lucas Tolimán	5	Mayo	2023-03-05T00:00:00	2024-11-08T16:00:00	4	Temperatura máxima	23.5
121779	7	Sololá	713	San Lucas Tolimán	10	San Lucas Tolimán	5	Mayo	2023-03-05T00:00:00	2024-11-08T16:00:00	3	Temperatura mínima	22.7
121780	7	Sololá	713	San Lucas Tolimán	10	San Lucas Tolimán	5	Mayo	2023-03-05T00:00:00	2024-11-08T16:00:00	5	Humedad	62
121781	7	Sololá	713	San Lucas Tolimán	10	San Lucas Tolimán	5	Mayo	2023-03-05T00:00:00	2024-11-08T16:00:00	6	Velocidad del viento	4.8
121782	7	Sololá	713	San Lucas Tolimán	10	San Lucas Tolimán	5	Mayo	2023-03-05T00:00:00	2024-11-08T16:00:00	7	Dirección del viento	4.83
121783	7	Sololá	713	San Lucas Tolimán	10	San Lucas Tolimán	5	Mayo	2023-03-05T00:00:00	2024-11-08T16:00:00	1	Precipitación	0
121784	7	Sololá	713	San Lucas Tolimán	10	San Lucas Tolimán	5	Mayo	2023-03-05T00:00:00	2024-11-08T16:00:00	8	Radiación solar	241
121785	7	Sololá	713	San Lucas Tolimán	10	San Lucas Tolimán	5	Mayo	2023-03-05T00:00:00	2024-11-08T17:00:00	2	Temperatura media	22.9
121786	7	Sololá	713	San Lucas Tolimán	10	San Lucas Tolimán	5	Mayo	2023-03-05T00:00:00	2024-11-08T17:00:00	4	Temperatura máxima	23.4
121787	7	Sololá	713	San Lucas Tolimán	10	San Lucas Tolimán	5	Mayo	2023-03-05T00:00:00	2024-11-08T17:00:00	3	Temperatura mínima	22.4
121788	7	Sololá	713	San Lucas Tolimán	10	San Lucas Tolimán	5	Mayo	2023-03-05T00:00:00	2024-11-08T17:00:00	5	Humedad	62
121789	7	Sololá	713	San Lucas Tolimán	10	San Lucas Tolimán	5	Mayo	2023-03-05T00:00:00	2024-11-08T17:00:00	6	Velocidad del viento	4.8
121790	7	Sololá	713	San Lucas Tolimán	10	San Lucas Tolimán	5	Mayo	2023-03-05T00:00:00	2024-11-08T17:00:00	7	Dirección del viento	4.83
121791	7	Sololá	713	San Lucas Tolimán	10	San Lucas Tolimán	5	Mayo	2023-03-05T00:00:00	2024-11-08T17:00:00	1	Precipitación	0
121792	7	Sololá	713	San Lucas Tolimán	10	San Lucas Tolimán	5	Mayo	2023-03-05T00:00:00	2024-11-08T17:00:00	8	Radiación solar	274
121793	7	Sololá	713	San Lucas Tolimán	10	San Lucas Tolimán	5	Mayo	2023-03-05T00:00:00	2024-11-08T18:00:00	2	Temperatura media	21.9
121794	7	Sololá	713	San Lucas Tolimán	10	San Lucas Tolimán	5	Mayo	2023-03-05T00:00:00	2024-11-08T18:00:00	4	Temperatura máxima	23.1
121795	7	Sololá	713	San Lucas Tolimán	10	San Lucas Tolimán	5	Mayo	2023-03-05T00:00:00	2024-11-08T18:00:00	3	Temperatura mínima	21.9
121796	7	Sololá	713	San Lucas Tolimán	10	San Lucas Tolimán	5	Mayo	2023-03-05T00:00:00	2024-11-08T18:00:00	5	Humedad	64
121797	7	Sololá	713	San Lucas Tolimán	10	San Lucas Tolimán	5	Mayo	2023-03-05T00:00:00	2024-11-08T18:00:00	6	Velocidad del viento	4.8
121798	7	Sololá	713	San Lucas Tolimán	10	San Lucas Tolimán	5	Mayo	2023-03-05T00:00:00	2024-11-08T18:00:00	7	Dirección del viento	4.83
121799	7	Sololá	713	San Lucas Tolimán	10	San Lucas Tolimán	5	Mayo	2023-03-05T00:00:00	2024-11-08T18:00:00	1	Precipitación	0
121800	7	Sololá	713	San Lucas Tolimán	10	San Lucas Tolimán	5	Mayo	2023-03-05T00:00:00	2024-11-08T18:00:00	8	Radiación solar	110
121801	7	Sololá	713	San Lucas Tolimán	10	San Lucas Tolimán	5	Mayo	2023-03-05T00:00:00	2024-11-08T19:00:00	2	Temperatura media	20.4
121802	7	Sololá	713	San Lucas Tolimán	10	San Lucas Tolimán	5	Mayo	2023-03-05T00:00:00	2024-11-08T19:00:00	4	Temperatura máxima	21.9
121803	7	Sololá	713	San Lucas Tolimán	10	San Lucas Tolimán	5	Mayo	2023-03-05T00:00:00	2024-11-08T19:00:00	3	Temperatura mínima	20.4
121804	7	Sololá	713	San Lucas Tolimán	10	San Lucas Tolimán	5	Mayo	2023-03-05T00:00:00	2024-11-08T19:00:00	5	Humedad	61
121805	7	Sololá	713	San Lucas Tolimán	10	San Lucas Tolimán	5	Mayo	2023-03-05T00:00:00	2024-11-08T19:00:00	6	Velocidad del viento	6.4
121806	7	Sololá	713	San Lucas Tolimán	10	San Lucas Tolimán	5	Mayo	2023-03-05T00:00:00	2024-11-08T19:00:00	7	Dirección del viento	6.44
121807	7	Sololá	713	San Lucas Tolimán	10	San Lucas Tolimán	5	Mayo	2023-03-05T00:00:00	2024-11-08T19:00:00	1	Precipitación	0
121808	7	Sololá	713	San Lucas Tolimán	10	San Lucas Tolimán	5	Mayo	2023-03-05T00:00:00	2024-11-08T19:00:00	8	Radiación solar	0
121809	7	Sololá	713	San Lucas Tolimán	10	San Lucas Tolimán	5	Mayo	2023-03-05T00:00:00	2024-11-08T20:00:00	2	Temperatura media	19.9
121810	7	Sololá	713	San Lucas Tolimán	10	San Lucas Tolimán	5	Mayo	2023-03-05T00:00:00	2024-11-08T20:00:00	4	Temperatura máxima	20.4
121811	7	Sololá	713	San Lucas Tolimán	10	San Lucas Tolimán	5	Mayo	2023-03-05T00:00:00	2024-11-08T20:00:00	3	Temperatura mínima	19.8
121812	7	Sololá	713	San Lucas Tolimán	10	San Lucas Tolimán	5	Mayo	2023-03-05T00:00:00	2024-11-08T20:00:00	5	Humedad	61
121813	7	Sololá	713	San Lucas Tolimán	10	San Lucas Tolimán	5	Mayo	2023-03-05T00:00:00	2024-11-08T20:00:00	6	Velocidad del viento	8
121814	7	Sololá	713	San Lucas Tolimán	10	San Lucas Tolimán	5	Mayo	2023-03-05T00:00:00	2024-11-08T20:00:00	7	Dirección del viento	8.05
121815	7	Sololá	713	San Lucas Tolimán	10	San Lucas Tolimán	5	Mayo	2023-03-05T00:00:00	2024-11-08T20:00:00	1	Precipitación	0
121816	7	Sololá	713	San Lucas Tolimán	10	San Lucas Tolimán	5	Mayo	2023-03-05T00:00:00	2024-11-08T20:00:00	8	Radiación solar	0
121817	7	Sololá	713	San Lucas Tolimán	10	San Lucas Tolimán	5	Mayo	2023-03-05T00:00:00	2024-11-08T21:00:00	2	Temperatura media	19.6
121818	7	Sololá	713	San Lucas Tolimán	10	San Lucas Tolimán	5	Mayo	2023-03-05T00:00:00	2024-11-08T21:00:00	4	Temperatura máxima	19.9
121819	7	Sololá	713	San Lucas Tolimán	10	San Lucas Tolimán	5	Mayo	2023-03-05T00:00:00	2024-11-08T21:00:00	3	Temperatura mínima	19.5
121820	7	Sololá	713	San Lucas Tolimán	10	San Lucas Tolimán	5	Mayo	2023-03-05T00:00:00	2024-11-08T21:00:00	5	Humedad	59
121821	7	Sololá	713	San Lucas Tolimán	10	San Lucas Tolimán	5	Mayo	2023-03-05T00:00:00	2024-11-08T21:00:00	6	Velocidad del viento	3.2
121822	7	Sololá	713	San Lucas Tolimán	10	San Lucas Tolimán	5	Mayo	2023-03-05T00:00:00	2024-11-08T21:00:00	7	Dirección del viento	3.22
121823	7	Sololá	713	San Lucas Tolimán	10	San Lucas Tolimán	5	Mayo	2023-03-05T00:00:00	2024-11-08T21:00:00	1	Precipitación	0
121824	7	Sololá	713	San Lucas Tolimán	10	San Lucas Tolimán	5	Mayo	2023-03-05T00:00:00	2024-11-08T21:00:00	8	Radiación solar	0
121825	7	Sololá	713	San Lucas Tolimán	10	San Lucas Tolimán	5	Mayo	2023-03-05T00:00:00	2024-11-08T22:00:00	2	Temperatura media	20.1
121826	7	Sololá	713	San Lucas Tolimán	10	San Lucas Tolimán	5	Mayo	2023-03-05T00:00:00	2024-11-08T22:00:00	4	Temperatura máxima	20.1
121827	7	Sololá	713	San Lucas Tolimán	10	San Lucas Tolimán	5	Mayo	2023-03-05T00:00:00	2024-11-08T22:00:00	3	Temperatura mínima	19.3
121828	7	Sololá	713	San Lucas Tolimán	10	San Lucas Tolimán	5	Mayo	2023-03-05T00:00:00	2024-11-08T22:00:00	5	Humedad	60
121829	7	Sololá	713	San Lucas Tolimán	10	San Lucas Tolimán	5	Mayo	2023-03-05T00:00:00	2024-11-08T22:00:00	6	Velocidad del viento	3.2
121830	7	Sololá	713	San Lucas Tolimán	10	San Lucas Tolimán	5	Mayo	2023-03-05T00:00:00	2024-11-08T22:00:00	7	Dirección del viento	3.22
121831	7	Sololá	713	San Lucas Tolimán	10	San Lucas Tolimán	5	Mayo	2023-03-05T00:00:00	2024-11-08T22:00:00	1	Precipitación	0
121832	7	Sololá	713	San Lucas Tolimán	10	San Lucas Tolimán	5	Mayo	2023-03-05T00:00:00	2024-11-08T22:00:00	8	Radiación solar	0
121833	7	Sololá	713	San Lucas Tolimán	10	San Lucas Tolimán	5	Mayo	2023-03-05T00:00:00	2024-11-08T23:00:00	2	Temperatura media	18.8
121834	7	Sololá	713	San Lucas Tolimán	10	San Lucas Tolimán	5	Mayo	2023-03-05T00:00:00	2024-11-08T23:00:00	4	Temperatura máxima	20.1
121835	7	Sololá	713	San Lucas Tolimán	10	San Lucas Tolimán	5	Mayo	2023-03-05T00:00:00	2024-11-08T23:00:00	3	Temperatura mínima	18.8
121836	7	Sololá	713	San Lucas Tolimán	10	San Lucas Tolimán	5	Mayo	2023-03-05T00:00:00	2024-11-08T23:00:00	5	Humedad	61
121837	7	Sololá	713	San Lucas Tolimán	10	San Lucas Tolimán	5	Mayo	2023-03-05T00:00:00	2024-11-08T23:00:00	6	Velocidad del viento	8
121838	7	Sololá	713	San Lucas Tolimán	10	San Lucas Tolimán	5	Mayo	2023-03-05T00:00:00	2024-11-08T23:00:00	7	Dirección del viento	8.05
121839	7	Sololá	713	San Lucas Tolimán	10	San Lucas Tolimán	5	Mayo	2023-03-05T00:00:00	2024-11-08T23:00:00	1	Precipitación	0
121840	7	Sololá	713	San Lucas Tolimán	10	San Lucas Tolimán	5	Mayo	2023-03-05T00:00:00	2024-11-08T23:00:00	8	Radiación solar	0
121841	7	Sololá	713	San Lucas Tolimán	10	San Lucas Tolimán	5	Mayo	2023-04-05T00:00:00	2024-11-08T00:00:00	2	Temperatura media	18.4
121842	7	Sololá	713	San Lucas Tolimán	10	San Lucas Tolimán	5	Mayo	2023-04-05T00:00:00	2024-11-08T00:00:00	4	Temperatura máxima	19.1
121843	7	Sololá	713	San Lucas Tolimán	10	San Lucas Tolimán	5	Mayo	2023-04-05T00:00:00	2024-11-08T00:00:00	3	Temperatura mínima	18.4
121844	7	Sololá	713	San Lucas Tolimán	10	San Lucas Tolimán	5	Mayo	2023-04-05T00:00:00	2024-11-08T00:00:00	5	Humedad	62
121845	7	Sololá	713	San Lucas Tolimán	10	San Lucas Tolimán	5	Mayo	2023-04-05T00:00:00	2024-11-08T00:00:00	6	Velocidad del viento	4.8
121846	7	Sololá	713	San Lucas Tolimán	10	San Lucas Tolimán	5	Mayo	2023-04-05T00:00:00	2024-11-08T00:00:00	7	Dirección del viento	4.83
121847	7	Sololá	713	San Lucas Tolimán	10	San Lucas Tolimán	5	Mayo	2023-04-05T00:00:00	2024-11-08T00:00:00	1	Precipitación	0
121848	7	Sololá	713	San Lucas Tolimán	10	San Lucas Tolimán	5	Mayo	2023-04-05T00:00:00	2024-11-08T00:00:00	8	Radiación solar	0
121849	7	Sololá	713	San Lucas Tolimán	10	San Lucas Tolimán	5	Mayo	2023-04-05T00:00:00	2024-11-08T01:00:00	2	Temperatura media	18.7
121850	7	Sololá	713	San Lucas Tolimán	10	San Lucas Tolimán	5	Mayo	2023-04-05T00:00:00	2024-11-08T01:00:00	4	Temperatura máxima	18.7
121851	7	Sololá	713	San Lucas Tolimán	10	San Lucas Tolimán	5	Mayo	2023-04-05T00:00:00	2024-11-08T01:00:00	3	Temperatura mínima	18.1
121852	7	Sololá	713	San Lucas Tolimán	10	San Lucas Tolimán	5	Mayo	2023-04-05T00:00:00	2024-11-08T01:00:00	5	Humedad	58
121853	7	Sololá	713	San Lucas Tolimán	10	San Lucas Tolimán	5	Mayo	2023-04-05T00:00:00	2024-11-08T01:00:00	6	Velocidad del viento	1.6
121854	7	Sololá	713	San Lucas Tolimán	10	San Lucas Tolimán	5	Mayo	2023-04-05T00:00:00	2024-11-08T01:00:00	7	Dirección del viento	1.61
121855	7	Sololá	713	San Lucas Tolimán	10	San Lucas Tolimán	5	Mayo	2023-04-05T00:00:00	2024-11-08T01:00:00	1	Precipitación	0
121856	7	Sololá	713	San Lucas Tolimán	10	San Lucas Tolimán	5	Mayo	2023-04-05T00:00:00	2024-11-08T01:00:00	8	Radiación solar	0
121857	7	Sololá	713	San Lucas Tolimán	10	San Lucas Tolimán	5	Mayo	2023-04-05T00:00:00	2024-11-08T02:00:00	2	Temperatura media	18.9
121858	7	Sololá	713	San Lucas Tolimán	10	San Lucas Tolimán	5	Mayo	2023-04-05T00:00:00	2024-11-08T02:00:00	4	Temperatura máxima	18.9
121859	7	Sololá	713	San Lucas Tolimán	10	San Lucas Tolimán	5	Mayo	2023-04-05T00:00:00	2024-11-08T02:00:00	3	Temperatura mínima	18.6
121860	7	Sololá	713	San Lucas Tolimán	10	San Lucas Tolimán	5	Mayo	2023-04-05T00:00:00	2024-11-08T02:00:00	5	Humedad	58
121861	7	Sololá	713	San Lucas Tolimán	10	San Lucas Tolimán	5	Mayo	2023-04-05T00:00:00	2024-11-08T02:00:00	6	Velocidad del viento	1.6
121862	7	Sololá	713	San Lucas Tolimán	10	San Lucas Tolimán	5	Mayo	2023-04-05T00:00:00	2024-11-08T02:00:00	7	Dirección del viento	1.61
121863	7	Sololá	713	San Lucas Tolimán	10	San Lucas Tolimán	5	Mayo	2023-04-05T00:00:00	2024-11-08T02:00:00	1	Precipitación	0
121864	7	Sololá	713	San Lucas Tolimán	10	San Lucas Tolimán	5	Mayo	2023-04-05T00:00:00	2024-11-08T02:00:00	8	Radiación solar	0
121865	7	Sololá	713	San Lucas Tolimán	10	San Lucas Tolimán	5	Mayo	2023-04-05T00:00:00	2024-11-08T03:00:00	2	Temperatura media	19.3
121866	7	Sololá	713	San Lucas Tolimán	10	San Lucas Tolimán	5	Mayo	2023-04-05T00:00:00	2024-11-08T03:00:00	4	Temperatura máxima	19.4
121867	7	Sololá	713	San Lucas Tolimán	10	San Lucas Tolimán	5	Mayo	2023-04-05T00:00:00	2024-11-08T03:00:00	3	Temperatura mínima	18.8
121868	7	Sololá	713	San Lucas Tolimán	10	San Lucas Tolimán	5	Mayo	2023-04-05T00:00:00	2024-11-08T03:00:00	5	Humedad	59
121869	7	Sololá	713	San Lucas Tolimán	10	San Lucas Tolimán	5	Mayo	2023-04-05T00:00:00	2024-11-08T03:00:00	6	Velocidad del viento	1.6
121870	7	Sololá	713	San Lucas Tolimán	10	San Lucas Tolimán	5	Mayo	2023-04-05T00:00:00	2024-11-08T03:00:00	7	Dirección del viento	1.61
121871	7	Sololá	713	San Lucas Tolimán	10	San Lucas Tolimán	5	Mayo	2023-04-05T00:00:00	2024-11-08T03:00:00	1	Precipitación	0
121872	7	Sololá	713	San Lucas Tolimán	10	San Lucas Tolimán	5	Mayo	2023-04-05T00:00:00	2024-11-08T03:00:00	8	Radiación solar	0
121873	7	Sololá	713	San Lucas Tolimán	10	San Lucas Tolimán	5	Mayo	2023-04-05T00:00:00	2024-11-08T04:00:00	2	Temperatura media	18.5
121874	7	Sololá	713	San Lucas Tolimán	10	San Lucas Tolimán	5	Mayo	2023-04-05T00:00:00	2024-11-08T04:00:00	4	Temperatura máxima	19.7
121875	7	Sololá	713	San Lucas Tolimán	10	San Lucas Tolimán	5	Mayo	2023-04-05T00:00:00	2024-11-08T04:00:00	3	Temperatura mínima	18.5
121876	7	Sololá	713	San Lucas Tolimán	10	San Lucas Tolimán	5	Mayo	2023-04-05T00:00:00	2024-11-08T04:00:00	5	Humedad	61
121877	7	Sololá	713	San Lucas Tolimán	10	San Lucas Tolimán	5	Mayo	2023-04-05T00:00:00	2024-11-08T04:00:00	6	Velocidad del viento	1.6
121878	7	Sololá	713	San Lucas Tolimán	10	San Lucas Tolimán	5	Mayo	2023-04-05T00:00:00	2024-11-08T04:00:00	7	Dirección del viento	1.61
121879	7	Sololá	713	San Lucas Tolimán	10	San Lucas Tolimán	5	Mayo	2023-04-05T00:00:00	2024-11-08T04:00:00	1	Precipitación	0
121880	7	Sololá	713	San Lucas Tolimán	10	San Lucas Tolimán	5	Mayo	2023-04-05T00:00:00	2024-11-08T04:00:00	8	Radiación solar	0
121881	7	Sololá	713	San Lucas Tolimán	10	San Lucas Tolimán	5	Mayo	2023-04-05T00:00:00	2024-11-08T05:00:00	2	Temperatura media	17.2
121882	7	Sololá	713	San Lucas Tolimán	10	San Lucas Tolimán	5	Mayo	2023-04-05T00:00:00	2024-11-08T05:00:00	4	Temperatura máxima	18.6
121883	7	Sololá	713	San Lucas Tolimán	10	San Lucas Tolimán	5	Mayo	2023-04-05T00:00:00	2024-11-08T05:00:00	3	Temperatura mínima	17.2
121884	7	Sololá	713	San Lucas Tolimán	10	San Lucas Tolimán	5	Mayo	2023-04-05T00:00:00	2024-11-08T05:00:00	5	Humedad	63
121885	7	Sololá	713	San Lucas Tolimán	10	San Lucas Tolimán	5	Mayo	2023-04-05T00:00:00	2024-11-08T05:00:00	6	Velocidad del viento	0
121886	7	Sololá	713	San Lucas Tolimán	10	San Lucas Tolimán	5	Mayo	2023-04-05T00:00:00	2024-11-08T05:00:00	7	Dirección del viento	0
121887	7	Sololá	713	San Lucas Tolimán	10	San Lucas Tolimán	5	Mayo	2023-04-05T00:00:00	2024-11-08T05:00:00	1	Precipitación	0
121888	7	Sololá	713	San Lucas Tolimán	10	San Lucas Tolimán	5	Mayo	2023-04-05T00:00:00	2024-11-08T05:00:00	8	Radiación solar	0
121889	7	Sololá	713	San Lucas Tolimán	10	San Lucas Tolimán	5	Mayo	2023-04-05T00:00:00	2024-11-08T06:00:00	2	Temperatura media	16.9
121890	7	Sololá	713	San Lucas Tolimán	10	San Lucas Tolimán	5	Mayo	2023-04-05T00:00:00	2024-11-08T06:00:00	4	Temperatura máxima	17.5
121891	7	Sololá	713	San Lucas Tolimán	10	San Lucas Tolimán	5	Mayo	2023-04-05T00:00:00	2024-11-08T06:00:00	3	Temperatura mínima	16.8
121892	7	Sololá	713	San Lucas Tolimán	10	San Lucas Tolimán	5	Mayo	2023-04-05T00:00:00	2024-11-08T06:00:00	5	Humedad	62
121893	7	Sololá	713	San Lucas Tolimán	10	San Lucas Tolimán	5	Mayo	2023-04-05T00:00:00	2024-11-08T06:00:00	6	Velocidad del viento	6.4
121894	7	Sololá	713	San Lucas Tolimán	10	San Lucas Tolimán	5	Mayo	2023-04-05T00:00:00	2024-11-08T06:00:00	7	Dirección del viento	6.44
121895	7	Sololá	713	San Lucas Tolimán	10	San Lucas Tolimán	5	Mayo	2023-04-05T00:00:00	2024-11-08T06:00:00	1	Precipitación	0
121896	7	Sololá	713	San Lucas Tolimán	10	San Lucas Tolimán	5	Mayo	2023-04-05T00:00:00	2024-11-08T06:00:00	8	Radiación solar	4
121897	7	Sololá	713	San Lucas Tolimán	10	San Lucas Tolimán	5	Mayo	2023-04-05T00:00:00	2024-11-08T07:00:00	2	Temperatura media	18.4
121898	7	Sololá	713	San Lucas Tolimán	10	San Lucas Tolimán	5	Mayo	2023-04-05T00:00:00	2024-11-08T07:00:00	4	Temperatura máxima	18.4
121899	7	Sololá	713	San Lucas Tolimán	10	San Lucas Tolimán	5	Mayo	2023-04-05T00:00:00	2024-11-08T07:00:00	3	Temperatura mínima	16.9
121900	7	Sololá	713	San Lucas Tolimán	10	San Lucas Tolimán	5	Mayo	2023-04-05T00:00:00	2024-11-08T07:00:00	5	Humedad	58
121901	7	Sololá	713	San Lucas Tolimán	10	San Lucas Tolimán	5	Mayo	2023-04-05T00:00:00	2024-11-08T07:00:00	6	Velocidad del viento	3.2
121902	7	Sololá	713	San Lucas Tolimán	10	San Lucas Tolimán	5	Mayo	2023-04-05T00:00:00	2024-11-08T07:00:00	7	Dirección del viento	3.22
121903	7	Sololá	713	San Lucas Tolimán	10	San Lucas Tolimán	5	Mayo	2023-04-05T00:00:00	2024-11-08T07:00:00	1	Precipitación	0
121904	7	Sololá	713	San Lucas Tolimán	10	San Lucas Tolimán	5	Mayo	2023-04-05T00:00:00	2024-11-08T07:00:00	8	Radiación solar	84
121905	7	Sololá	713	San Lucas Tolimán	10	San Lucas Tolimán	5	Mayo	2023-04-05T00:00:00	2024-11-08T08:00:00	2	Temperatura media	22.2
121906	7	Sololá	713	San Lucas Tolimán	10	San Lucas Tolimán	5	Mayo	2023-04-05T00:00:00	2024-11-08T08:00:00	4	Temperatura máxima	22.2
121907	7	Sololá	713	San Lucas Tolimán	10	San Lucas Tolimán	5	Mayo	2023-04-05T00:00:00	2024-11-08T08:00:00	3	Temperatura mínima	18.4
121908	7	Sololá	713	San Lucas Tolimán	10	San Lucas Tolimán	5	Mayo	2023-04-05T00:00:00	2024-11-08T08:00:00	5	Humedad	55
121909	7	Sololá	713	San Lucas Tolimán	10	San Lucas Tolimán	5	Mayo	2023-04-05T00:00:00	2024-11-08T08:00:00	6	Velocidad del viento	1.6
121910	7	Sololá	713	San Lucas Tolimán	10	San Lucas Tolimán	5	Mayo	2023-04-05T00:00:00	2024-11-08T08:00:00	7	Dirección del viento	1.61
121911	7	Sololá	713	San Lucas Tolimán	10	San Lucas Tolimán	5	Mayo	2023-04-05T00:00:00	2024-11-08T08:00:00	1	Precipitación	0
121912	7	Sololá	713	San Lucas Tolimán	10	San Lucas Tolimán	5	Mayo	2023-04-05T00:00:00	2024-11-08T08:00:00	8	Radiación solar	304
121913	7	Sololá	713	San Lucas Tolimán	10	San Lucas Tolimán	5	Mayo	2023-04-05T00:00:00	2024-11-08T09:00:00	2	Temperatura media	24.2
121914	7	Sololá	713	San Lucas Tolimán	10	San Lucas Tolimán	5	Mayo	2023-04-05T00:00:00	2024-11-08T09:00:00	4	Temperatura máxima	24.5
121915	7	Sololá	713	San Lucas Tolimán	10	San Lucas Tolimán	5	Mayo	2023-04-05T00:00:00	2024-11-08T09:00:00	3	Temperatura mínima	22.2
121916	7	Sololá	713	San Lucas Tolimán	10	San Lucas Tolimán	5	Mayo	2023-04-05T00:00:00	2024-11-08T09:00:00	5	Humedad	48
121917	7	Sololá	713	San Lucas Tolimán	10	San Lucas Tolimán	5	Mayo	2023-04-05T00:00:00	2024-11-08T09:00:00	6	Velocidad del viento	3.2
121918	7	Sololá	713	San Lucas Tolimán	10	San Lucas Tolimán	5	Mayo	2023-04-05T00:00:00	2024-11-08T09:00:00	7	Dirección del viento	3.22
121919	7	Sololá	713	San Lucas Tolimán	10	San Lucas Tolimán	5	Mayo	2023-04-05T00:00:00	2024-11-08T09:00:00	1	Precipitación	0
121920	7	Sololá	713	San Lucas Tolimán	10	San Lucas Tolimán	5	Mayo	2023-04-05T00:00:00	2024-11-08T09:00:00	8	Radiación solar	547
121921	7	Sololá	713	San Lucas Tolimán	10	San Lucas Tolimán	5	Mayo	2023-04-05T00:00:00	2024-11-08T10:00:00	2	Temperatura media	24.3
121922	7	Sololá	713	San Lucas Tolimán	10	San Lucas Tolimán	5	Mayo	2023-04-05T00:00:00	2024-11-08T10:00:00	4	Temperatura máxima	25
121923	7	Sololá	713	San Lucas Tolimán	10	San Lucas Tolimán	5	Mayo	2023-04-05T00:00:00	2024-11-08T10:00:00	3	Temperatura mínima	24.2
121924	7	Sololá	713	San Lucas Tolimán	10	San Lucas Tolimán	5	Mayo	2023-04-05T00:00:00	2024-11-08T10:00:00	5	Humedad	51
121925	7	Sololá	713	San Lucas Tolimán	10	San Lucas Tolimán	5	Mayo	2023-04-05T00:00:00	2024-11-08T10:00:00	6	Velocidad del viento	4.8
121926	7	Sololá	713	San Lucas Tolimán	10	San Lucas Tolimán	5	Mayo	2023-04-05T00:00:00	2024-11-08T10:00:00	7	Dirección del viento	4.83
121927	7	Sololá	713	San Lucas Tolimán	10	San Lucas Tolimán	5	Mayo	2023-04-05T00:00:00	2024-11-08T10:00:00	1	Precipitación	0
121928	7	Sololá	713	San Lucas Tolimán	10	San Lucas Tolimán	5	Mayo	2023-04-05T00:00:00	2024-11-08T10:00:00	8	Radiación solar	704
121929	7	Sololá	713	San Lucas Tolimán	10	San Lucas Tolimán	5	Mayo	2023-04-05T00:00:00	2024-11-08T11:00:00	2	Temperatura media	24.3
121930	7	Sololá	713	San Lucas Tolimán	10	San Lucas Tolimán	5	Mayo	2023-04-05T00:00:00	2024-11-08T11:00:00	4	Temperatura máxima	24.4
121931	7	Sololá	713	San Lucas Tolimán	10	San Lucas Tolimán	5	Mayo	2023-04-05T00:00:00	2024-11-08T11:00:00	3	Temperatura mínima	23.9
121932	7	Sololá	713	San Lucas Tolimán	10	San Lucas Tolimán	5	Mayo	2023-04-05T00:00:00	2024-11-08T11:00:00	5	Humedad	53
121933	7	Sololá	713	San Lucas Tolimán	10	San Lucas Tolimán	5	Mayo	2023-04-05T00:00:00	2024-11-08T11:00:00	6	Velocidad del viento	11.3
121934	7	Sololá	713	San Lucas Tolimán	10	San Lucas Tolimán	5	Mayo	2023-04-05T00:00:00	2024-11-08T11:00:00	7	Dirección del viento	11.27
121935	7	Sololá	713	San Lucas Tolimán	10	San Lucas Tolimán	5	Mayo	2023-04-05T00:00:00	2024-11-08T11:00:00	1	Precipitación	0
121936	7	Sololá	713	San Lucas Tolimán	10	San Lucas Tolimán	5	Mayo	2023-04-05T00:00:00	2024-11-08T11:00:00	8	Radiación solar	934
121937	7	Sololá	713	San Lucas Tolimán	10	San Lucas Tolimán	5	Mayo	2023-04-05T00:00:00	2024-11-08T12:00:00	2	Temperatura media	25.1
121938	7	Sololá	713	San Lucas Tolimán	10	San Lucas Tolimán	5	Mayo	2023-04-05T00:00:00	2024-11-08T12:00:00	4	Temperatura máxima	25.4
121939	7	Sololá	713	San Lucas Tolimán	10	San Lucas Tolimán	5	Mayo	2023-04-05T00:00:00	2024-11-08T12:00:00	3	Temperatura mínima	24.3
121940	7	Sololá	713	San Lucas Tolimán	10	San Lucas Tolimán	5	Mayo	2023-04-05T00:00:00	2024-11-08T12:00:00	5	Humedad	54
121941	7	Sololá	713	San Lucas Tolimán	10	San Lucas Tolimán	5	Mayo	2023-04-05T00:00:00	2024-11-08T12:00:00	6	Velocidad del viento	11.3
121942	7	Sololá	713	San Lucas Tolimán	10	San Lucas Tolimán	5	Mayo	2023-04-05T00:00:00	2024-11-08T12:00:00	7	Dirección del viento	11.27
121943	7	Sololá	713	San Lucas Tolimán	10	San Lucas Tolimán	5	Mayo	2023-04-05T00:00:00	2024-11-08T12:00:00	1	Precipitación	0
121944	7	Sololá	713	San Lucas Tolimán	10	San Lucas Tolimán	5	Mayo	2023-04-05T00:00:00	2024-11-08T12:00:00	8	Radiación solar	1080
121945	7	Sololá	713	San Lucas Tolimán	10	San Lucas Tolimán	5	Mayo	2023-04-05T00:00:00	2024-11-08T13:00:00	2	Temperatura media	25.3
121946	7	Sololá	713	San Lucas Tolimán	10	San Lucas Tolimán	5	Mayo	2023-04-05T00:00:00	2024-11-08T13:00:00	4	Temperatura máxima	25.6
121947	7	Sololá	713	San Lucas Tolimán	10	San Lucas Tolimán	5	Mayo	2023-04-05T00:00:00	2024-11-08T13:00:00	3	Temperatura mínima	24.8
121948	7	Sololá	713	San Lucas Tolimán	10	San Lucas Tolimán	5	Mayo	2023-04-05T00:00:00	2024-11-08T13:00:00	5	Humedad	55
121949	7	Sololá	713	San Lucas Tolimán	10	San Lucas Tolimán	5	Mayo	2023-04-05T00:00:00	2024-11-08T13:00:00	6	Velocidad del viento	11.3
121950	7	Sololá	713	San Lucas Tolimán	10	San Lucas Tolimán	5	Mayo	2023-04-05T00:00:00	2024-11-08T13:00:00	7	Dirección del viento	11.27
121951	7	Sololá	713	San Lucas Tolimán	10	San Lucas Tolimán	5	Mayo	2023-04-05T00:00:00	2024-11-08T13:00:00	1	Precipitación	0
121952	7	Sololá	713	San Lucas Tolimán	10	San Lucas Tolimán	5	Mayo	2023-04-05T00:00:00	2024-11-08T13:00:00	8	Radiación solar	1081
121953	7	Sololá	713	San Lucas Tolimán	10	San Lucas Tolimán	5	Mayo	2023-04-05T00:00:00	2024-11-08T14:00:00	2	Temperatura media	24.3
121954	7	Sololá	713	San Lucas Tolimán	10	San Lucas Tolimán	5	Mayo	2023-04-05T00:00:00	2024-11-08T14:00:00	4	Temperatura máxima	25.3
121955	7	Sololá	713	San Lucas Tolimán	10	San Lucas Tolimán	5	Mayo	2023-04-05T00:00:00	2024-11-08T14:00:00	3	Temperatura mínima	24.3
121956	7	Sololá	713	San Lucas Tolimán	10	San Lucas Tolimán	5	Mayo	2023-04-05T00:00:00	2024-11-08T14:00:00	5	Humedad	58
121957	7	Sololá	713	San Lucas Tolimán	10	San Lucas Tolimán	5	Mayo	2023-04-05T00:00:00	2024-11-08T14:00:00	6	Velocidad del viento	12.9
121958	7	Sololá	713	San Lucas Tolimán	10	San Lucas Tolimán	5	Mayo	2023-04-05T00:00:00	2024-11-08T14:00:00	7	Dirección del viento	12.87
121959	7	Sololá	713	San Lucas Tolimán	10	San Lucas Tolimán	5	Mayo	2023-04-05T00:00:00	2024-11-08T14:00:00	1	Precipitación	0
121960	7	Sololá	713	San Lucas Tolimán	10	San Lucas Tolimán	5	Mayo	2023-04-05T00:00:00	2024-11-08T14:00:00	8	Radiación solar	1024
121961	7	Sololá	713	San Lucas Tolimán	10	San Lucas Tolimán	5	Mayo	2023-04-05T00:00:00	2024-11-08T15:00:00	2	Temperatura media	23.8
121962	7	Sololá	713	San Lucas Tolimán	10	San Lucas Tolimán	5	Mayo	2023-04-05T00:00:00	2024-11-08T15:00:00	4	Temperatura máxima	24.7
121963	7	Sololá	713	San Lucas Tolimán	10	San Lucas Tolimán	5	Mayo	2023-04-05T00:00:00	2024-11-08T15:00:00	3	Temperatura mínima	23.8
121964	7	Sololá	713	San Lucas Tolimán	10	San Lucas Tolimán	5	Mayo	2023-04-05T00:00:00	2024-11-08T15:00:00	5	Humedad	58
121965	7	Sololá	713	San Lucas Tolimán	10	San Lucas Tolimán	5	Mayo	2023-04-05T00:00:00	2024-11-08T15:00:00	6	Velocidad del viento	12.9
121966	7	Sololá	713	San Lucas Tolimán	10	San Lucas Tolimán	5	Mayo	2023-04-05T00:00:00	2024-11-08T15:00:00	7	Dirección del viento	12.87
121967	7	Sololá	713	San Lucas Tolimán	10	San Lucas Tolimán	5	Mayo	2023-04-05T00:00:00	2024-11-08T15:00:00	1	Precipitación	0
121968	7	Sololá	713	San Lucas Tolimán	10	San Lucas Tolimán	5	Mayo	2023-04-05T00:00:00	2024-11-08T15:00:00	8	Radiación solar	766
121969	7	Sololá	713	San Lucas Tolimán	10	San Lucas Tolimán	5	Mayo	2023-04-05T00:00:00	2024-11-08T16:00:00	2	Temperatura media	22.6
121970	7	Sololá	713	San Lucas Tolimán	10	San Lucas Tolimán	5	Mayo	2023-04-05T00:00:00	2024-11-08T16:00:00	4	Temperatura máxima	23.7
121971	7	Sololá	713	San Lucas Tolimán	10	San Lucas Tolimán	5	Mayo	2023-04-05T00:00:00	2024-11-08T16:00:00	3	Temperatura mínima	22.2
121972	7	Sololá	713	San Lucas Tolimán	10	San Lucas Tolimán	5	Mayo	2023-04-05T00:00:00	2024-11-08T16:00:00	5	Humedad	62
121973	7	Sololá	713	San Lucas Tolimán	10	San Lucas Tolimán	5	Mayo	2023-04-05T00:00:00	2024-11-08T16:00:00	6	Velocidad del viento	16.1
121974	7	Sololá	713	San Lucas Tolimán	10	San Lucas Tolimán	5	Mayo	2023-04-05T00:00:00	2024-11-08T16:00:00	7	Dirección del viento	16.09
121975	7	Sololá	713	San Lucas Tolimán	10	San Lucas Tolimán	5	Mayo	2023-04-05T00:00:00	2024-11-08T16:00:00	1	Precipitación	0
121976	7	Sololá	713	San Lucas Tolimán	10	San Lucas Tolimán	5	Mayo	2023-04-05T00:00:00	2024-11-08T16:00:00	8	Radiación solar	493
121977	7	Sololá	713	San Lucas Tolimán	10	San Lucas Tolimán	5	Mayo	2023-04-05T00:00:00	2024-11-08T17:00:00	2	Temperatura media	21.6
121978	7	Sololá	713	San Lucas Tolimán	10	San Lucas Tolimán	5	Mayo	2023-04-05T00:00:00	2024-11-08T17:00:00	4	Temperatura máxima	23
121979	7	Sololá	713	San Lucas Tolimán	10	San Lucas Tolimán	5	Mayo	2023-04-05T00:00:00	2024-11-08T17:00:00	3	Temperatura mínima	21.6
121980	7	Sololá	713	San Lucas Tolimán	10	San Lucas Tolimán	5	Mayo	2023-04-05T00:00:00	2024-11-08T17:00:00	5	Humedad	63
121981	7	Sololá	713	San Lucas Tolimán	10	San Lucas Tolimán	5	Mayo	2023-04-05T00:00:00	2024-11-08T17:00:00	6	Velocidad del viento	11.3
121982	7	Sololá	713	San Lucas Tolimán	10	San Lucas Tolimán	5	Mayo	2023-04-05T00:00:00	2024-11-08T17:00:00	7	Dirección del viento	11.27
121983	7	Sololá	713	San Lucas Tolimán	10	San Lucas Tolimán	5	Mayo	2023-04-05T00:00:00	2024-11-08T17:00:00	1	Precipitación	0
121984	7	Sololá	713	San Lucas Tolimán	10	San Lucas Tolimán	5	Mayo	2023-04-05T00:00:00	2024-11-08T17:00:00	8	Radiación solar	297
121985	7	Sololá	713	San Lucas Tolimán	10	San Lucas Tolimán	5	Mayo	2023-04-05T00:00:00	2024-11-08T18:00:00	2	Temperatura media	20.4
121986	7	Sololá	713	San Lucas Tolimán	10	San Lucas Tolimán	5	Mayo	2023-04-05T00:00:00	2024-11-08T18:00:00	4	Temperatura máxima	21.6
121987	7	Sololá	713	San Lucas Tolimán	10	San Lucas Tolimán	5	Mayo	2023-04-05T00:00:00	2024-11-08T18:00:00	3	Temperatura mínima	20.4
121988	7	Sololá	713	San Lucas Tolimán	10	San Lucas Tolimán	5	Mayo	2023-04-05T00:00:00	2024-11-08T18:00:00	5	Humedad	61
121989	7	Sololá	713	San Lucas Tolimán	10	San Lucas Tolimán	5	Mayo	2023-04-05T00:00:00	2024-11-08T18:00:00	6	Velocidad del viento	6.4
121990	7	Sololá	713	San Lucas Tolimán	10	San Lucas Tolimán	5	Mayo	2023-04-05T00:00:00	2024-11-08T18:00:00	7	Dirección del viento	6.44
121991	7	Sololá	713	San Lucas Tolimán	10	San Lucas Tolimán	5	Mayo	2023-04-05T00:00:00	2024-11-08T18:00:00	1	Precipitación	0
121992	7	Sololá	713	San Lucas Tolimán	10	San Lucas Tolimán	5	Mayo	2023-04-05T00:00:00	2024-11-08T18:00:00	8	Radiación solar	45
121993	7	Sololá	713	San Lucas Tolimán	10	San Lucas Tolimán	5	Mayo	2023-04-05T00:00:00	2024-11-08T19:00:00	2	Temperatura media	20
121994	7	Sololá	713	San Lucas Tolimán	10	San Lucas Tolimán	5	Mayo	2023-04-05T00:00:00	2024-11-08T19:00:00	4	Temperatura máxima	20.4
121995	7	Sololá	713	San Lucas Tolimán	10	San Lucas Tolimán	5	Mayo	2023-04-05T00:00:00	2024-11-08T19:00:00	3	Temperatura mínima	19.9
121996	7	Sololá	713	San Lucas Tolimán	10	San Lucas Tolimán	5	Mayo	2023-04-05T00:00:00	2024-11-08T19:00:00	5	Humedad	61
121997	7	Sololá	713	San Lucas Tolimán	10	San Lucas Tolimán	5	Mayo	2023-04-05T00:00:00	2024-11-08T19:00:00	6	Velocidad del viento	6.4
121998	7	Sololá	713	San Lucas Tolimán	10	San Lucas Tolimán	5	Mayo	2023-04-05T00:00:00	2024-11-08T19:00:00	7	Dirección del viento	6.44
121999	7	Sololá	713	San Lucas Tolimán	10	San Lucas Tolimán	5	Mayo	2023-04-05T00:00:00	2024-11-08T19:00:00	1	Precipitación	0
122000	7	Sololá	713	San Lucas Tolimán	10	San Lucas Tolimán	5	Mayo	2023-04-05T00:00:00	2024-11-08T19:00:00	8	Radiación solar	0
122001	7	Sololá	713	San Lucas Tolimán	10	San Lucas Tolimán	5	Mayo	2023-04-05T00:00:00	2024-11-08T20:00:00	2	Temperatura media	19.8
122002	7	Sololá	713	San Lucas Tolimán	10	San Lucas Tolimán	5	Mayo	2023-04-05T00:00:00	2024-11-08T20:00:00	4	Temperatura máxima	20
122003	7	Sololá	713	San Lucas Tolimán	10	San Lucas Tolimán	5	Mayo	2023-04-05T00:00:00	2024-11-08T20:00:00	3	Temperatura mínima	19.7
122004	7	Sololá	713	San Lucas Tolimán	10	San Lucas Tolimán	5	Mayo	2023-04-05T00:00:00	2024-11-08T20:00:00	5	Humedad	60
122005	7	Sololá	713	San Lucas Tolimán	10	San Lucas Tolimán	5	Mayo	2023-04-05T00:00:00	2024-11-08T20:00:00	6	Velocidad del viento	1.6
122006	7	Sololá	713	San Lucas Tolimán	10	San Lucas Tolimán	5	Mayo	2023-04-05T00:00:00	2024-11-08T20:00:00	7	Dirección del viento	1.61
122007	7	Sololá	713	San Lucas Tolimán	10	San Lucas Tolimán	5	Mayo	2023-04-05T00:00:00	2024-11-08T20:00:00	1	Precipitación	0
122008	7	Sololá	713	San Lucas Tolimán	10	San Lucas Tolimán	5	Mayo	2023-04-05T00:00:00	2024-11-08T20:00:00	8	Radiación solar	0
122009	7	Sololá	713	San Lucas Tolimán	10	San Lucas Tolimán	5	Mayo	2023-04-05T00:00:00	2024-11-08T21:00:00	2	Temperatura media	19.3
122010	7	Sololá	713	San Lucas Tolimán	10	San Lucas Tolimán	5	Mayo	2023-04-05T00:00:00	2024-11-08T21:00:00	4	Temperatura máxima	19.8
122011	7	Sololá	713	San Lucas Tolimán	10	San Lucas Tolimán	5	Mayo	2023-04-05T00:00:00	2024-11-08T21:00:00	3	Temperatura mínima	19.2
122012	7	Sololá	713	San Lucas Tolimán	10	San Lucas Tolimán	5	Mayo	2023-04-05T00:00:00	2024-11-08T21:00:00	5	Humedad	61
122013	7	Sololá	713	San Lucas Tolimán	10	San Lucas Tolimán	5	Mayo	2023-04-05T00:00:00	2024-11-08T21:00:00	6	Velocidad del viento	1.6
122014	7	Sololá	713	San Lucas Tolimán	10	San Lucas Tolimán	5	Mayo	2023-04-05T00:00:00	2024-11-08T21:00:00	7	Dirección del viento	1.61
122015	7	Sololá	713	San Lucas Tolimán	10	San Lucas Tolimán	5	Mayo	2023-04-05T00:00:00	2024-11-08T21:00:00	1	Precipitación	0
122016	7	Sololá	713	San Lucas Tolimán	10	San Lucas Tolimán	5	Mayo	2023-04-05T00:00:00	2024-11-08T21:00:00	8	Radiación solar	0
122017	7	Sololá	713	San Lucas Tolimán	10	San Lucas Tolimán	5	Mayo	2023-04-05T00:00:00	2024-11-08T22:00:00	2	Temperatura media	20.6
122018	7	Sololá	713	San Lucas Tolimán	10	San Lucas Tolimán	5	Mayo	2023-04-05T00:00:00	2024-11-08T22:00:00	4	Temperatura máxima	20.9
122019	7	Sololá	713	San Lucas Tolimán	10	San Lucas Tolimán	5	Mayo	2023-04-05T00:00:00	2024-11-08T22:00:00	3	Temperatura mínima	19.2
122020	7	Sololá	713	San Lucas Tolimán	10	San Lucas Tolimán	5	Mayo	2023-04-05T00:00:00	2024-11-08T22:00:00	5	Humedad	56
122021	7	Sololá	713	San Lucas Tolimán	10	San Lucas Tolimán	5	Mayo	2023-04-05T00:00:00	2024-11-08T22:00:00	6	Velocidad del viento	1.6
122022	7	Sololá	713	San Lucas Tolimán	10	San Lucas Tolimán	5	Mayo	2023-04-05T00:00:00	2024-11-08T22:00:00	7	Dirección del viento	1.61
122023	7	Sololá	713	San Lucas Tolimán	10	San Lucas Tolimán	5	Mayo	2023-04-05T00:00:00	2024-11-08T22:00:00	1	Precipitación	0
122024	7	Sololá	713	San Lucas Tolimán	10	San Lucas Tolimán	5	Mayo	2023-04-05T00:00:00	2024-11-08T22:00:00	8	Radiación solar	0
122025	7	Sololá	713	San Lucas Tolimán	10	San Lucas Tolimán	5	Mayo	2023-04-05T00:00:00	2024-11-08T23:00:00	2	Temperatura media	19.6
122026	7	Sololá	713	San Lucas Tolimán	10	San Lucas Tolimán	5	Mayo	2023-04-05T00:00:00	2024-11-08T23:00:00	4	Temperatura máxima	21.1
122027	7	Sololá	713	San Lucas Tolimán	10	San Lucas Tolimán	5	Mayo	2023-04-05T00:00:00	2024-11-08T23:00:00	3	Temperatura mínima	19.6
122028	7	Sololá	713	San Lucas Tolimán	10	San Lucas Tolimán	5	Mayo	2023-04-05T00:00:00	2024-11-08T23:00:00	5	Humedad	60
122029	7	Sololá	713	San Lucas Tolimán	10	San Lucas Tolimán	5	Mayo	2023-04-05T00:00:00	2024-11-08T23:00:00	6	Velocidad del viento	3.2
122030	7	Sololá	713	San Lucas Tolimán	10	San Lucas Tolimán	5	Mayo	2023-04-05T00:00:00	2024-11-08T23:00:00	7	Dirección del viento	3.22
122031	7	Sololá	713	San Lucas Tolimán	10	San Lucas Tolimán	5	Mayo	2023-04-05T00:00:00	2024-11-08T23:00:00	1	Precipitación	0
122032	7	Sololá	713	San Lucas Tolimán	10	San Lucas Tolimán	5	Mayo	2023-04-05T00:00:00	2024-11-08T23:00:00	8	Radiación solar	0
122033	7	Sololá	713	San Lucas Tolimán	10	San Lucas Tolimán	5	Mayo	2023-05-05T00:00:00	2024-11-08T00:00:00	2	Temperatura media	18.1
122034	7	Sololá	713	San Lucas Tolimán	10	San Lucas Tolimán	5	Mayo	2023-05-05T00:00:00	2024-11-08T00:00:00	4	Temperatura máxima	19.6
122035	7	Sololá	713	San Lucas Tolimán	10	San Lucas Tolimán	5	Mayo	2023-05-05T00:00:00	2024-11-08T00:00:00	3	Temperatura mínima	18.1
122036	7	Sololá	713	San Lucas Tolimán	10	San Lucas Tolimán	5	Mayo	2023-05-05T00:00:00	2024-11-08T00:00:00	5	Humedad	63
122037	7	Sololá	713	San Lucas Tolimán	10	San Lucas Tolimán	5	Mayo	2023-05-05T00:00:00	2024-11-08T00:00:00	6	Velocidad del viento	1.6
122038	7	Sololá	713	San Lucas Tolimán	10	San Lucas Tolimán	5	Mayo	2023-05-05T00:00:00	2024-11-08T00:00:00	7	Dirección del viento	1.61
122039	7	Sololá	713	San Lucas Tolimán	10	San Lucas Tolimán	5	Mayo	2023-05-05T00:00:00	2024-11-08T00:00:00	1	Precipitación	0
122040	7	Sololá	713	San Lucas Tolimán	10	San Lucas Tolimán	5	Mayo	2023-05-05T00:00:00	2024-11-08T00:00:00	8	Radiación solar	0
122041	7	Sololá	713	San Lucas Tolimán	10	San Lucas Tolimán	5	Mayo	2023-05-05T00:00:00	2024-11-08T01:00:00	2	Temperatura media	17.9
122042	7	Sololá	713	San Lucas Tolimán	10	San Lucas Tolimán	5	Mayo	2023-05-05T00:00:00	2024-11-08T01:00:00	4	Temperatura máxima	18.1
122043	7	Sololá	713	San Lucas Tolimán	10	San Lucas Tolimán	5	Mayo	2023-05-05T00:00:00	2024-11-08T01:00:00	3	Temperatura mínima	17.4
122044	7	Sololá	713	San Lucas Tolimán	10	San Lucas Tolimán	5	Mayo	2023-05-05T00:00:00	2024-11-08T01:00:00	5	Humedad	61
122045	7	Sololá	713	San Lucas Tolimán	10	San Lucas Tolimán	5	Mayo	2023-05-05T00:00:00	2024-11-08T01:00:00	6	Velocidad del viento	1.6
122046	7	Sololá	713	San Lucas Tolimán	10	San Lucas Tolimán	5	Mayo	2023-05-05T00:00:00	2024-11-08T01:00:00	7	Dirección del viento	1.61
122047	7	Sololá	713	San Lucas Tolimán	10	San Lucas Tolimán	5	Mayo	2023-05-05T00:00:00	2024-11-08T01:00:00	1	Precipitación	0
122048	7	Sololá	713	San Lucas Tolimán	10	San Lucas Tolimán	5	Mayo	2023-05-05T00:00:00	2024-11-08T01:00:00	8	Radiación solar	0
122049	7	Sololá	713	San Lucas Tolimán	10	San Lucas Tolimán	5	Mayo	2023-05-05T00:00:00	2024-11-08T02:00:00	2	Temperatura media	17.5
122050	7	Sololá	713	San Lucas Tolimán	10	San Lucas Tolimán	5	Mayo	2023-05-05T00:00:00	2024-11-08T02:00:00	4	Temperatura máxima	17.9
122051	7	Sololá	713	San Lucas Tolimán	10	San Lucas Tolimán	5	Mayo	2023-05-05T00:00:00	2024-11-08T02:00:00	3	Temperatura mínima	17.5
122052	7	Sololá	713	San Lucas Tolimán	10	San Lucas Tolimán	5	Mayo	2023-05-05T00:00:00	2024-11-08T02:00:00	5	Humedad	61
122053	7	Sololá	713	San Lucas Tolimán	10	San Lucas Tolimán	5	Mayo	2023-05-05T00:00:00	2024-11-08T02:00:00	6	Velocidad del viento	1.6
122054	7	Sololá	713	San Lucas Tolimán	10	San Lucas Tolimán	5	Mayo	2023-05-05T00:00:00	2024-11-08T02:00:00	7	Dirección del viento	1.61
122055	7	Sololá	713	San Lucas Tolimán	10	San Lucas Tolimán	5	Mayo	2023-05-05T00:00:00	2024-11-08T02:00:00	1	Precipitación	0
122056	7	Sololá	713	San Lucas Tolimán	10	San Lucas Tolimán	5	Mayo	2023-05-05T00:00:00	2024-11-08T02:00:00	8	Radiación solar	0
122057	7	Sololá	713	San Lucas Tolimán	10	San Lucas Tolimán	5	Mayo	2023-05-05T00:00:00	2024-11-08T03:00:00	2	Temperatura media	16.6
122058	7	Sololá	713	San Lucas Tolimán	10	San Lucas Tolimán	5	Mayo	2023-05-05T00:00:00	2024-11-08T03:00:00	4	Temperatura máxima	17.6
122059	7	Sololá	713	San Lucas Tolimán	10	San Lucas Tolimán	5	Mayo	2023-05-05T00:00:00	2024-11-08T03:00:00	3	Temperatura mínima	16.6
122060	7	Sololá	713	San Lucas Tolimán	10	San Lucas Tolimán	5	Mayo	2023-05-05T00:00:00	2024-11-08T03:00:00	5	Humedad	64
122061	7	Sololá	713	San Lucas Tolimán	10	San Lucas Tolimán	5	Mayo	2023-05-05T00:00:00	2024-11-08T03:00:00	6	Velocidad del viento	1.6
122062	7	Sololá	713	San Lucas Tolimán	10	San Lucas Tolimán	5	Mayo	2023-05-05T00:00:00	2024-11-08T03:00:00	7	Dirección del viento	1.61
122063	7	Sololá	713	San Lucas Tolimán	10	San Lucas Tolimán	5	Mayo	2023-05-05T00:00:00	2024-11-08T03:00:00	1	Precipitación	0
122064	7	Sololá	713	San Lucas Tolimán	10	San Lucas Tolimán	5	Mayo	2023-05-05T00:00:00	2024-11-08T03:00:00	8	Radiación solar	0
122065	7	Sololá	713	San Lucas Tolimán	10	San Lucas Tolimán	5	Mayo	2023-05-05T00:00:00	2024-11-08T04:00:00	2	Temperatura media	17.2
122066	7	Sololá	713	San Lucas Tolimán	10	San Lucas Tolimán	5	Mayo	2023-05-05T00:00:00	2024-11-08T04:00:00	4	Temperatura máxima	17.3
122067	7	Sololá	713	San Lucas Tolimán	10	San Lucas Tolimán	5	Mayo	2023-05-05T00:00:00	2024-11-08T04:00:00	3	Temperatura mínima	16.4
122068	7	Sololá	713	San Lucas Tolimán	10	San Lucas Tolimán	5	Mayo	2023-05-05T00:00:00	2024-11-08T04:00:00	5	Humedad	61
122069	7	Sololá	713	San Lucas Tolimán	10	San Lucas Tolimán	5	Mayo	2023-05-05T00:00:00	2024-11-08T04:00:00	6	Velocidad del viento	3.2
122070	7	Sololá	713	San Lucas Tolimán	10	San Lucas Tolimán	5	Mayo	2023-05-05T00:00:00	2024-11-08T04:00:00	7	Dirección del viento	3.22
122071	7	Sololá	713	San Lucas Tolimán	10	San Lucas Tolimán	5	Mayo	2023-05-05T00:00:00	2024-11-08T04:00:00	1	Precipitación	0
122072	7	Sololá	713	San Lucas Tolimán	10	San Lucas Tolimán	5	Mayo	2023-05-05T00:00:00	2024-11-08T04:00:00	8	Radiación solar	0
122073	7	Sololá	713	San Lucas Tolimán	10	San Lucas Tolimán	5	Mayo	2023-05-05T00:00:00	2024-11-08T05:00:00	2	Temperatura media	18.7
122074	7	Sololá	713	San Lucas Tolimán	10	San Lucas Tolimán	5	Mayo	2023-05-05T00:00:00	2024-11-08T05:00:00	4	Temperatura máxima	18.9
122075	7	Sololá	713	San Lucas Tolimán	10	San Lucas Tolimán	5	Mayo	2023-05-05T00:00:00	2024-11-08T05:00:00	3	Temperatura mínima	17.1
122076	7	Sololá	713	San Lucas Tolimán	10	San Lucas Tolimán	5	Mayo	2023-05-05T00:00:00	2024-11-08T05:00:00	5	Humedad	55
122077	7	Sololá	713	San Lucas Tolimán	10	San Lucas Tolimán	5	Mayo	2023-05-05T00:00:00	2024-11-08T05:00:00	6	Velocidad del viento	1.6
122078	7	Sololá	713	San Lucas Tolimán	10	San Lucas Tolimán	5	Mayo	2023-05-05T00:00:00	2024-11-08T05:00:00	7	Dirección del viento	1.61
122079	7	Sololá	713	San Lucas Tolimán	10	San Lucas Tolimán	5	Mayo	2023-05-05T00:00:00	2024-11-08T05:00:00	1	Precipitación	0
122080	7	Sololá	713	San Lucas Tolimán	10	San Lucas Tolimán	5	Mayo	2023-05-05T00:00:00	2024-11-08T05:00:00	8	Radiación solar	0
122081	7	Sololá	713	San Lucas Tolimán	10	San Lucas Tolimán	5	Mayo	2023-05-05T00:00:00	2024-11-08T06:00:00	2	Temperatura media	17.2
122082	7	Sololá	713	San Lucas Tolimán	10	San Lucas Tolimán	5	Mayo	2023-05-05T00:00:00	2024-11-08T06:00:00	4	Temperatura máxima	18.8
122083	7	Sololá	713	San Lucas Tolimán	10	San Lucas Tolimán	5	Mayo	2023-05-05T00:00:00	2024-11-08T06:00:00	3	Temperatura mínima	17.2
122084	7	Sololá	713	San Lucas Tolimán	10	San Lucas Tolimán	5	Mayo	2023-05-05T00:00:00	2024-11-08T06:00:00	5	Humedad	60
122085	7	Sololá	713	San Lucas Tolimán	10	San Lucas Tolimán	5	Mayo	2023-05-05T00:00:00	2024-11-08T06:00:00	6	Velocidad del viento	1.6
122086	7	Sololá	713	San Lucas Tolimán	10	San Lucas Tolimán	5	Mayo	2023-05-05T00:00:00	2024-11-08T06:00:00	7	Dirección del viento	1.61
122087	7	Sololá	713	San Lucas Tolimán	10	San Lucas Tolimán	5	Mayo	2023-05-05T00:00:00	2024-11-08T06:00:00	1	Precipitación	0
122088	7	Sololá	713	San Lucas Tolimán	10	San Lucas Tolimán	5	Mayo	2023-05-05T00:00:00	2024-11-08T06:00:00	8	Radiación solar	3
122089	7	Sololá	713	San Lucas Tolimán	10	San Lucas Tolimán	5	Mayo	2023-05-05T00:00:00	2024-11-08T07:00:00	2	Temperatura media	19.6
122090	7	Sololá	713	San Lucas Tolimán	10	San Lucas Tolimán	5	Mayo	2023-05-05T00:00:00	2024-11-08T07:00:00	4	Temperatura máxima	19.6
122091	7	Sololá	713	San Lucas Tolimán	10	San Lucas Tolimán	5	Mayo	2023-05-05T00:00:00	2024-11-08T07:00:00	3	Temperatura mínima	17.1
122092	7	Sololá	713	San Lucas Tolimán	10	San Lucas Tolimán	5	Mayo	2023-05-05T00:00:00	2024-11-08T07:00:00	5	Humedad	56
122093	7	Sololá	713	San Lucas Tolimán	10	San Lucas Tolimán	5	Mayo	2023-05-05T00:00:00	2024-11-08T07:00:00	6	Velocidad del viento	1.6
122094	7	Sololá	713	San Lucas Tolimán	10	San Lucas Tolimán	5	Mayo	2023-05-05T00:00:00	2024-11-08T07:00:00	7	Dirección del viento	1.61
122095	7	Sololá	713	San Lucas Tolimán	10	San Lucas Tolimán	5	Mayo	2023-05-05T00:00:00	2024-11-08T07:00:00	1	Precipitación	0
122096	7	Sololá	713	San Lucas Tolimán	10	San Lucas Tolimán	5	Mayo	2023-05-05T00:00:00	2024-11-08T07:00:00	8	Radiación solar	96
122097	7	Sololá	713	San Lucas Tolimán	10	San Lucas Tolimán	5	Mayo	2023-05-05T00:00:00	2024-11-08T08:00:00	2	Temperatura media	23
122098	7	Sololá	713	San Lucas Tolimán	10	San Lucas Tolimán	5	Mayo	2023-05-05T00:00:00	2024-11-08T08:00:00	4	Temperatura máxima	23
122099	7	Sololá	713	San Lucas Tolimán	10	San Lucas Tolimán	5	Mayo	2023-05-05T00:00:00	2024-11-08T08:00:00	3	Temperatura mínima	19.6
122100	7	Sololá	713	San Lucas Tolimán	10	San Lucas Tolimán	5	Mayo	2023-05-05T00:00:00	2024-11-08T08:00:00	5	Humedad	44
122101	7	Sololá	713	San Lucas Tolimán	10	San Lucas Tolimán	5	Mayo	2023-05-05T00:00:00	2024-11-08T08:00:00	6	Velocidad del viento	1.6
122102	7	Sololá	713	San Lucas Tolimán	10	San Lucas Tolimán	5	Mayo	2023-05-05T00:00:00	2024-11-08T08:00:00	7	Dirección del viento	1.61
122103	7	Sololá	713	San Lucas Tolimán	10	San Lucas Tolimán	5	Mayo	2023-05-05T00:00:00	2024-11-08T08:00:00	1	Precipitación	0
122104	7	Sololá	713	San Lucas Tolimán	10	San Lucas Tolimán	5	Mayo	2023-05-05T00:00:00	2024-11-08T08:00:00	8	Radiación solar	313
122105	7	Sololá	713	San Lucas Tolimán	10	San Lucas Tolimán	5	Mayo	2023-05-05T00:00:00	2024-11-08T09:00:00	2	Temperatura media	26.2
122106	7	Sololá	713	San Lucas Tolimán	10	San Lucas Tolimán	5	Mayo	2023-05-05T00:00:00	2024-11-08T09:00:00	4	Temperatura máxima	26.3
122107	7	Sololá	713	San Lucas Tolimán	10	San Lucas Tolimán	5	Mayo	2023-05-05T00:00:00	2024-11-08T09:00:00	3	Temperatura mínima	22.9
122108	7	Sololá	713	San Lucas Tolimán	10	San Lucas Tolimán	5	Mayo	2023-05-05T00:00:00	2024-11-08T09:00:00	5	Humedad	30
122109	7	Sololá	713	San Lucas Tolimán	10	San Lucas Tolimán	5	Mayo	2023-05-05T00:00:00	2024-11-08T09:00:00	6	Velocidad del viento	3.2
122110	7	Sololá	713	San Lucas Tolimán	10	San Lucas Tolimán	5	Mayo	2023-05-05T00:00:00	2024-11-08T09:00:00	7	Dirección del viento	3.22
122111	7	Sololá	713	San Lucas Tolimán	10	San Lucas Tolimán	5	Mayo	2023-05-05T00:00:00	2024-11-08T09:00:00	1	Precipitación	0
122112	7	Sololá	713	San Lucas Tolimán	10	San Lucas Tolimán	5	Mayo	2023-05-05T00:00:00	2024-11-08T09:00:00	8	Radiación solar	571
122113	7	Sololá	713	San Lucas Tolimán	10	San Lucas Tolimán	5	Mayo	2023-05-05T00:00:00	2024-11-08T10:00:00	2	Temperatura media	27.8
122114	7	Sololá	713	San Lucas Tolimán	10	San Lucas Tolimán	5	Mayo	2023-05-05T00:00:00	2024-11-08T10:00:00	4	Temperatura máxima	27.8
122115	7	Sololá	713	San Lucas Tolimán	10	San Lucas Tolimán	5	Mayo	2023-05-05T00:00:00	2024-11-08T10:00:00	3	Temperatura mínima	25.9
122116	7	Sololá	713	San Lucas Tolimán	10	San Lucas Tolimán	5	Mayo	2023-05-05T00:00:00	2024-11-08T10:00:00	5	Humedad	26
122117	7	Sololá	713	San Lucas Tolimán	10	San Lucas Tolimán	5	Mayo	2023-05-05T00:00:00	2024-11-08T10:00:00	6	Velocidad del viento	11.3
122118	7	Sololá	713	San Lucas Tolimán	10	San Lucas Tolimán	5	Mayo	2023-05-05T00:00:00	2024-11-08T10:00:00	7	Dirección del viento	11.27
122119	7	Sololá	713	San Lucas Tolimán	10	San Lucas Tolimán	5	Mayo	2023-05-05T00:00:00	2024-11-08T10:00:00	1	Precipitación	0
122120	7	Sololá	713	San Lucas Tolimán	10	San Lucas Tolimán	5	Mayo	2023-05-05T00:00:00	2024-11-08T10:00:00	8	Radiación solar	710
122121	7	Sololá	713	San Lucas Tolimán	10	San Lucas Tolimán	5	Mayo	2023-05-05T00:00:00	2024-11-08T11:00:00	2	Temperatura media	26.8
122122	7	Sololá	713	San Lucas Tolimán	10	San Lucas Tolimán	5	Mayo	2023-05-05T00:00:00	2024-11-08T11:00:00	4	Temperatura máxima	27.9
122123	7	Sololá	713	San Lucas Tolimán	10	San Lucas Tolimán	5	Mayo	2023-05-05T00:00:00	2024-11-08T11:00:00	3	Temperatura mínima	26.8
122124	7	Sololá	713	San Lucas Tolimán	10	San Lucas Tolimán	5	Mayo	2023-05-05T00:00:00	2024-11-08T11:00:00	5	Humedad	50
122125	7	Sololá	713	San Lucas Tolimán	10	San Lucas Tolimán	5	Mayo	2023-05-05T00:00:00	2024-11-08T11:00:00	6	Velocidad del viento	6.4
122126	7	Sololá	713	San Lucas Tolimán	10	San Lucas Tolimán	5	Mayo	2023-05-05T00:00:00	2024-11-08T11:00:00	7	Dirección del viento	6.44
122127	7	Sololá	713	San Lucas Tolimán	10	San Lucas Tolimán	5	Mayo	2023-05-05T00:00:00	2024-11-08T11:00:00	1	Precipitación	0
122128	7	Sololá	713	San Lucas Tolimán	10	San Lucas Tolimán	5	Mayo	2023-05-05T00:00:00	2024-11-08T11:00:00	8	Radiación solar	972
122129	7	Sololá	713	San Lucas Tolimán	10	San Lucas Tolimán	5	Mayo	2023-05-05T00:00:00	2024-11-08T12:00:00	2	Temperatura media	26.9
122130	7	Sololá	713	San Lucas Tolimán	10	San Lucas Tolimán	5	Mayo	2023-05-05T00:00:00	2024-11-08T12:00:00	4	Temperatura máxima	27.6
122131	7	Sololá	713	San Lucas Tolimán	10	San Lucas Tolimán	5	Mayo	2023-05-05T00:00:00	2024-11-08T12:00:00	3	Temperatura mínima	26.3
122132	7	Sololá	713	San Lucas Tolimán	10	San Lucas Tolimán	5	Mayo	2023-05-05T00:00:00	2024-11-08T12:00:00	5	Humedad	49
122133	7	Sololá	713	San Lucas Tolimán	10	San Lucas Tolimán	5	Mayo	2023-05-05T00:00:00	2024-11-08T12:00:00	6	Velocidad del viento	8
122134	7	Sololá	713	San Lucas Tolimán	10	San Lucas Tolimán	5	Mayo	2023-05-05T00:00:00	2024-11-08T12:00:00	7	Dirección del viento	8.05
122135	7	Sololá	713	San Lucas Tolimán	10	San Lucas Tolimán	5	Mayo	2023-05-05T00:00:00	2024-11-08T12:00:00	1	Precipitación	0
122136	7	Sololá	713	San Lucas Tolimán	10	San Lucas Tolimán	5	Mayo	2023-05-05T00:00:00	2024-11-08T12:00:00	8	Radiación solar	1073
122137	7	Sololá	713	San Lucas Tolimán	10	San Lucas Tolimán	5	Mayo	2023-05-05T00:00:00	2024-11-08T13:00:00	2	Temperatura media	25.2
122138	7	Sololá	713	San Lucas Tolimán	10	San Lucas Tolimán	5	Mayo	2023-05-05T00:00:00	2024-11-08T13:00:00	4	Temperatura máxima	27
122139	7	Sololá	713	San Lucas Tolimán	10	San Lucas Tolimán	5	Mayo	2023-05-05T00:00:00	2024-11-08T13:00:00	3	Temperatura mínima	25.1
122140	7	Sololá	713	San Lucas Tolimán	10	San Lucas Tolimán	5	Mayo	2023-05-05T00:00:00	2024-11-08T13:00:00	5	Humedad	57
122141	7	Sololá	713	San Lucas Tolimán	10	San Lucas Tolimán	5	Mayo	2023-05-05T00:00:00	2024-11-08T13:00:00	6	Velocidad del viento	11.3
122142	7	Sololá	713	San Lucas Tolimán	10	San Lucas Tolimán	5	Mayo	2023-05-05T00:00:00	2024-11-08T13:00:00	7	Dirección del viento	11.27
122143	7	Sololá	713	San Lucas Tolimán	10	San Lucas Tolimán	5	Mayo	2023-05-05T00:00:00	2024-11-08T13:00:00	1	Precipitación	0
122144	7	Sololá	713	San Lucas Tolimán	10	San Lucas Tolimán	5	Mayo	2023-05-05T00:00:00	2024-11-08T13:00:00	8	Radiación solar	1086
122145	7	Sololá	713	San Lucas Tolimán	10	San Lucas Tolimán	5	Mayo	2023-05-05T00:00:00	2024-11-08T14:00:00	2	Temperatura media	25.4
122146	7	Sololá	713	San Lucas Tolimán	10	San Lucas Tolimán	5	Mayo	2023-05-05T00:00:00	2024-11-08T14:00:00	4	Temperatura máxima	25.9
122147	7	Sololá	713	San Lucas Tolimán	10	San Lucas Tolimán	5	Mayo	2023-05-05T00:00:00	2024-11-08T14:00:00	3	Temperatura mínima	25.2
122148	7	Sololá	713	San Lucas Tolimán	10	San Lucas Tolimán	5	Mayo	2023-05-05T00:00:00	2024-11-08T14:00:00	5	Humedad	56
122149	7	Sololá	713	San Lucas Tolimán	10	San Lucas Tolimán	5	Mayo	2023-05-05T00:00:00	2024-11-08T14:00:00	6	Velocidad del viento	11.3
122150	7	Sololá	713	San Lucas Tolimán	10	San Lucas Tolimán	5	Mayo	2023-05-05T00:00:00	2024-11-08T14:00:00	7	Dirección del viento	11.27
122151	7	Sololá	713	San Lucas Tolimán	10	San Lucas Tolimán	5	Mayo	2023-05-05T00:00:00	2024-11-08T14:00:00	1	Precipitación	0
122152	7	Sololá	713	San Lucas Tolimán	10	San Lucas Tolimán	5	Mayo	2023-05-05T00:00:00	2024-11-08T14:00:00	8	Radiación solar	1018
122153	7	Sololá	713	San Lucas Tolimán	10	San Lucas Tolimán	5	Mayo	2023-05-05T00:00:00	2024-11-08T15:00:00	2	Temperatura media	25.7
122154	7	Sololá	713	San Lucas Tolimán	10	San Lucas Tolimán	5	Mayo	2023-05-05T00:00:00	2024-11-08T15:00:00	4	Temperatura máxima	25.9
122155	7	Sololá	713	San Lucas Tolimán	10	San Lucas Tolimán	5	Mayo	2023-05-05T00:00:00	2024-11-08T15:00:00	3	Temperatura mínima	25.2
122156	7	Sololá	713	San Lucas Tolimán	10	San Lucas Tolimán	5	Mayo	2023-05-05T00:00:00	2024-11-08T15:00:00	5	Humedad	54
122157	7	Sololá	713	San Lucas Tolimán	10	San Lucas Tolimán	5	Mayo	2023-05-05T00:00:00	2024-11-08T15:00:00	6	Velocidad del viento	11.3
122158	7	Sololá	713	San Lucas Tolimán	10	San Lucas Tolimán	5	Mayo	2023-05-05T00:00:00	2024-11-08T15:00:00	7	Dirección del viento	11.27
122159	7	Sololá	713	San Lucas Tolimán	10	San Lucas Tolimán	5	Mayo	2023-05-05T00:00:00	2024-11-08T15:00:00	1	Precipitación	0
122160	7	Sololá	713	San Lucas Tolimán	10	San Lucas Tolimán	5	Mayo	2023-05-05T00:00:00	2024-11-08T15:00:00	8	Radiación solar	860
122161	7	Sololá	713	San Lucas Tolimán	10	San Lucas Tolimán	5	Mayo	2023-05-05T00:00:00	2024-11-08T16:00:00	2	Temperatura media	23.8
122162	7	Sololá	713	San Lucas Tolimán	10	San Lucas Tolimán	5	Mayo	2023-05-05T00:00:00	2024-11-08T16:00:00	4	Temperatura máxima	25.7
122163	7	Sololá	713	San Lucas Tolimán	10	San Lucas Tolimán	5	Mayo	2023-05-05T00:00:00	2024-11-08T16:00:00	3	Temperatura mínima	23.8
122164	7	Sololá	713	San Lucas Tolimán	10	San Lucas Tolimán	5	Mayo	2023-05-05T00:00:00	2024-11-08T16:00:00	5	Humedad	61
122165	7	Sololá	713	San Lucas Tolimán	10	San Lucas Tolimán	5	Mayo	2023-05-05T00:00:00	2024-11-08T16:00:00	6	Velocidad del viento	12.9
122166	7	Sololá	713	San Lucas Tolimán	10	San Lucas Tolimán	5	Mayo	2023-05-05T00:00:00	2024-11-08T16:00:00	7	Dirección del viento	12.87
122167	7	Sololá	713	San Lucas Tolimán	10	San Lucas Tolimán	5	Mayo	2023-05-05T00:00:00	2024-11-08T16:00:00	1	Precipitación	0
122168	7	Sololá	713	San Lucas Tolimán	10	San Lucas Tolimán	5	Mayo	2023-05-05T00:00:00	2024-11-08T16:00:00	8	Radiación solar	653
122169	7	Sololá	713	San Lucas Tolimán	10	San Lucas Tolimán	5	Mayo	2023-05-05T00:00:00	2024-11-08T17:00:00	2	Temperatura media	22.9
122170	7	Sololá	713	San Lucas Tolimán	10	San Lucas Tolimán	5	Mayo	2023-05-05T00:00:00	2024-11-08T17:00:00	4	Temperatura máxima	23.8
122171	7	Sololá	713	San Lucas Tolimán	10	San Lucas Tolimán	5	Mayo	2023-05-05T00:00:00	2024-11-08T17:00:00	3	Temperatura mínima	22.9
122172	7	Sololá	713	San Lucas Tolimán	10	San Lucas Tolimán	5	Mayo	2023-05-05T00:00:00	2024-11-08T17:00:00	5	Humedad	61
122173	7	Sololá	713	San Lucas Tolimán	10	San Lucas Tolimán	5	Mayo	2023-05-05T00:00:00	2024-11-08T17:00:00	6	Velocidad del viento	11.3
122174	7	Sololá	713	San Lucas Tolimán	10	San Lucas Tolimán	5	Mayo	2023-05-05T00:00:00	2024-11-08T17:00:00	7	Dirección del viento	11.27
122175	7	Sololá	713	San Lucas Tolimán	10	San Lucas Tolimán	5	Mayo	2023-05-05T00:00:00	2024-11-08T17:00:00	1	Precipitación	0
122176	7	Sololá	713	San Lucas Tolimán	10	San Lucas Tolimán	5	Mayo	2023-05-05T00:00:00	2024-11-08T17:00:00	8	Radiación solar	355
122177	7	Sololá	713	San Lucas Tolimán	10	San Lucas Tolimán	5	Mayo	2023-05-05T00:00:00	2024-11-08T18:00:00	2	Temperatura media	21.3
122178	7	Sololá	713	San Lucas Tolimán	10	San Lucas Tolimán	5	Mayo	2023-05-05T00:00:00	2024-11-08T18:00:00	4	Temperatura máxima	22.9
122179	7	Sololá	713	San Lucas Tolimán	10	San Lucas Tolimán	5	Mayo	2023-05-05T00:00:00	2024-11-08T18:00:00	3	Temperatura mínima	21.3
122180	7	Sololá	713	San Lucas Tolimán	10	San Lucas Tolimán	5	Mayo	2023-05-05T00:00:00	2024-11-08T18:00:00	5	Humedad	60
122181	7	Sololá	713	San Lucas Tolimán	10	San Lucas Tolimán	5	Mayo	2023-05-05T00:00:00	2024-11-08T18:00:00	6	Velocidad del viento	9.7
122182	7	Sololá	713	San Lucas Tolimán	10	San Lucas Tolimán	5	Mayo	2023-05-05T00:00:00	2024-11-08T18:00:00	7	Dirección del viento	9.66
122183	7	Sololá	713	San Lucas Tolimán	10	San Lucas Tolimán	5	Mayo	2023-05-05T00:00:00	2024-11-08T18:00:00	1	Precipitación	0
122184	7	Sololá	713	San Lucas Tolimán	10	San Lucas Tolimán	5	Mayo	2023-05-05T00:00:00	2024-11-08T18:00:00	8	Radiación solar	106
122185	7	Sololá	713	San Lucas Tolimán	10	San Lucas Tolimán	5	Mayo	2023-05-05T00:00:00	2024-11-08T19:00:00	2	Temperatura media	20.6
122186	7	Sololá	713	San Lucas Tolimán	10	San Lucas Tolimán	5	Mayo	2023-05-05T00:00:00	2024-11-08T19:00:00	4	Temperatura máxima	21.4
122187	7	Sololá	713	San Lucas Tolimán	10	San Lucas Tolimán	5	Mayo	2023-05-05T00:00:00	2024-11-08T19:00:00	3	Temperatura mínima	20.6
122188	7	Sololá	713	San Lucas Tolimán	10	San Lucas Tolimán	5	Mayo	2023-05-05T00:00:00	2024-11-08T19:00:00	5	Humedad	60
122189	7	Sololá	713	San Lucas Tolimán	10	San Lucas Tolimán	5	Mayo	2023-05-05T00:00:00	2024-11-08T19:00:00	6	Velocidad del viento	6.4
122190	7	Sololá	713	San Lucas Tolimán	10	San Lucas Tolimán	5	Mayo	2023-05-05T00:00:00	2024-11-08T19:00:00	7	Dirección del viento	6.44
122191	7	Sololá	713	San Lucas Tolimán	10	San Lucas Tolimán	5	Mayo	2023-05-05T00:00:00	2024-11-08T19:00:00	1	Precipitación	0
122192	7	Sololá	713	San Lucas Tolimán	10	San Lucas Tolimán	5	Mayo	2023-05-05T00:00:00	2024-11-08T19:00:00	8	Radiación solar	0
122193	7	Sololá	713	San Lucas Tolimán	10	San Lucas Tolimán	5	Mayo	2023-05-05T00:00:00	2024-11-08T20:00:00	2	Temperatura media	20.2
122194	7	Sololá	713	San Lucas Tolimán	10	San Lucas Tolimán	5	Mayo	2023-05-05T00:00:00	2024-11-08T20:00:00	4	Temperatura máxima	20.7
122195	7	Sololá	713	San Lucas Tolimán	10	San Lucas Tolimán	5	Mayo	2023-05-05T00:00:00	2024-11-08T20:00:00	3	Temperatura mínima	20.2
122196	7	Sololá	713	San Lucas Tolimán	10	San Lucas Tolimán	5	Mayo	2023-05-05T00:00:00	2024-11-08T20:00:00	5	Humedad	60
122197	7	Sololá	713	San Lucas Tolimán	10	San Lucas Tolimán	5	Mayo	2023-05-05T00:00:00	2024-11-08T20:00:00	6	Velocidad del viento	1.6
122198	7	Sololá	713	San Lucas Tolimán	10	San Lucas Tolimán	5	Mayo	2023-05-05T00:00:00	2024-11-08T20:00:00	7	Dirección del viento	1.61
122199	7	Sololá	713	San Lucas Tolimán	10	San Lucas Tolimán	5	Mayo	2023-05-05T00:00:00	2024-11-08T20:00:00	1	Precipitación	0
122200	7	Sololá	713	San Lucas Tolimán	10	San Lucas Tolimán	5	Mayo	2023-05-05T00:00:00	2024-11-08T20:00:00	8	Radiación solar	0
122201	7	Sololá	713	San Lucas Tolimán	10	San Lucas Tolimán	5	Mayo	2023-05-05T00:00:00	2024-11-08T21:00:00	2	Temperatura media	20.2
122202	7	Sololá	713	San Lucas Tolimán	10	San Lucas Tolimán	5	Mayo	2023-05-05T00:00:00	2024-11-08T21:00:00	4	Temperatura máxima	20.3
122203	7	Sololá	713	San Lucas Tolimán	10	San Lucas Tolimán	5	Mayo	2023-05-05T00:00:00	2024-11-08T21:00:00	3	Temperatura mínima	20.1
122204	7	Sololá	713	San Lucas Tolimán	10	San Lucas Tolimán	5	Mayo	2023-05-05T00:00:00	2024-11-08T21:00:00	5	Humedad	58
122205	7	Sololá	713	San Lucas Tolimán	10	San Lucas Tolimán	5	Mayo	2023-05-05T00:00:00	2024-11-08T21:00:00	6	Velocidad del viento	0
122206	7	Sololá	713	San Lucas Tolimán	10	San Lucas Tolimán	5	Mayo	2023-05-05T00:00:00	2024-11-08T21:00:00	7	Dirección del viento	0
122207	7	Sololá	713	San Lucas Tolimán	10	San Lucas Tolimán	5	Mayo	2023-05-05T00:00:00	2024-11-08T21:00:00	1	Precipitación	0
122208	7	Sololá	713	San Lucas Tolimán	10	San Lucas Tolimán	5	Mayo	2023-05-05T00:00:00	2024-11-08T21:00:00	8	Radiación solar	0
122209	7	Sololá	713	San Lucas Tolimán	10	San Lucas Tolimán	5	Mayo	2023-05-05T00:00:00	2024-11-08T22:00:00	2	Temperatura media	20
122210	7	Sololá	713	San Lucas Tolimán	10	San Lucas Tolimán	5	Mayo	2023-05-05T00:00:00	2024-11-08T22:00:00	4	Temperatura máxima	20.2
122211	7	Sololá	713	San Lucas Tolimán	10	San Lucas Tolimán	5	Mayo	2023-05-05T00:00:00	2024-11-08T22:00:00	3	Temperatura mínima	19.6
122212	7	Sololá	713	San Lucas Tolimán	10	San Lucas Tolimán	5	Mayo	2023-05-05T00:00:00	2024-11-08T22:00:00	5	Humedad	56
122213	7	Sololá	713	San Lucas Tolimán	10	San Lucas Tolimán	5	Mayo	2023-05-05T00:00:00	2024-11-08T22:00:00	6	Velocidad del viento	0
122214	7	Sololá	713	San Lucas Tolimán	10	San Lucas Tolimán	5	Mayo	2023-05-05T00:00:00	2024-11-08T22:00:00	7	Dirección del viento	0
122215	7	Sololá	713	San Lucas Tolimán	10	San Lucas Tolimán	5	Mayo	2023-05-05T00:00:00	2024-11-08T22:00:00	1	Precipitación	0
122216	7	Sololá	713	San Lucas Tolimán	10	San Lucas Tolimán	5	Mayo	2023-05-05T00:00:00	2024-11-08T22:00:00	8	Radiación solar	0
122217	7	Sololá	713	San Lucas Tolimán	10	San Lucas Tolimán	5	Mayo	2023-05-05T00:00:00	2024-11-08T23:00:00	2	Temperatura media	19.2
122218	7	Sololá	713	San Lucas Tolimán	10	San Lucas Tolimán	5	Mayo	2023-05-05T00:00:00	2024-11-08T23:00:00	4	Temperatura máxima	20
122219	7	Sololá	713	San Lucas Tolimán	10	San Lucas Tolimán	5	Mayo	2023-05-05T00:00:00	2024-11-08T23:00:00	3	Temperatura mínima	18.9
122220	7	Sololá	713	San Lucas Tolimán	10	San Lucas Tolimán	5	Mayo	2023-05-05T00:00:00	2024-11-08T23:00:00	5	Humedad	56
122221	7	Sololá	713	San Lucas Tolimán	10	San Lucas Tolimán	5	Mayo	2023-05-05T00:00:00	2024-11-08T23:00:00	6	Velocidad del viento	1.6
122222	7	Sololá	713	San Lucas Tolimán	10	San Lucas Tolimán	5	Mayo	2023-05-05T00:00:00	2024-11-08T23:00:00	7	Dirección del viento	1.61
122223	7	Sololá	713	San Lucas Tolimán	10	San Lucas Tolimán	5	Mayo	2023-05-05T00:00:00	2024-11-08T23:00:00	1	Precipitación	0
122224	7	Sololá	713	San Lucas Tolimán	10	San Lucas Tolimán	5	Mayo	2023-05-05T00:00:00	2024-11-08T23:00:00	8	Radiación solar	0
122225	7	Sololá	713	San Lucas Tolimán	10	San Lucas Tolimán	5	Mayo	2023-06-05T00:00:00	2024-11-08T00:00:00	2	Temperatura media	20.1
122226	7	Sololá	713	San Lucas Tolimán	10	San Lucas Tolimán	5	Mayo	2023-06-05T00:00:00	2024-11-08T00:00:00	4	Temperatura máxima	20.1
122227	7	Sololá	713	San Lucas Tolimán	10	San Lucas Tolimán	5	Mayo	2023-06-05T00:00:00	2024-11-08T00:00:00	3	Temperatura mínima	19.1
122228	7	Sololá	713	San Lucas Tolimán	10	San Lucas Tolimán	5	Mayo	2023-06-05T00:00:00	2024-11-08T00:00:00	5	Humedad	54
122229	7	Sololá	713	San Lucas Tolimán	10	San Lucas Tolimán	5	Mayo	2023-06-05T00:00:00	2024-11-08T00:00:00	6	Velocidad del viento	1.6
122230	7	Sololá	713	San Lucas Tolimán	10	San Lucas Tolimán	5	Mayo	2023-06-05T00:00:00	2024-11-08T00:00:00	7	Dirección del viento	1.61
122231	7	Sololá	713	San Lucas Tolimán	10	San Lucas Tolimán	5	Mayo	2023-06-05T00:00:00	2024-11-08T00:00:00	1	Precipitación	0
122232	7	Sololá	713	San Lucas Tolimán	10	San Lucas Tolimán	5	Mayo	2023-06-05T00:00:00	2024-11-08T00:00:00	8	Radiación solar	0
122233	7	Sololá	713	San Lucas Tolimán	10	San Lucas Tolimán	5	Mayo	2023-06-05T00:00:00	2024-11-08T01:00:00	2	Temperatura media	20.9
122234	7	Sololá	713	San Lucas Tolimán	10	San Lucas Tolimán	5	Mayo	2023-06-05T00:00:00	2024-11-08T01:00:00	4	Temperatura máxima	21.1
122235	7	Sololá	713	San Lucas Tolimán	10	San Lucas Tolimán	5	Mayo	2023-06-05T00:00:00	2024-11-08T01:00:00	3	Temperatura mínima	20.1
122236	7	Sololá	713	San Lucas Tolimán	10	San Lucas Tolimán	5	Mayo	2023-06-05T00:00:00	2024-11-08T01:00:00	5	Humedad	53
122237	7	Sololá	713	San Lucas Tolimán	10	San Lucas Tolimán	5	Mayo	2023-06-05T00:00:00	2024-11-08T01:00:00	6	Velocidad del viento	8
122238	7	Sololá	713	San Lucas Tolimán	10	San Lucas Tolimán	5	Mayo	2023-06-05T00:00:00	2024-11-08T01:00:00	7	Dirección del viento	8.05
122239	7	Sololá	713	San Lucas Tolimán	10	San Lucas Tolimán	5	Mayo	2023-06-05T00:00:00	2024-11-08T01:00:00	1	Precipitación	0
122240	7	Sololá	713	San Lucas Tolimán	10	San Lucas Tolimán	5	Mayo	2023-06-05T00:00:00	2024-11-08T01:00:00	8	Radiación solar	0
122241	7	Sololá	713	San Lucas Tolimán	10	San Lucas Tolimán	5	Mayo	2023-06-05T00:00:00	2024-11-08T02:00:00	2	Temperatura media	19.5
122242	7	Sololá	713	San Lucas Tolimán	10	San Lucas Tolimán	5	Mayo	2023-06-05T00:00:00	2024-11-08T02:00:00	4	Temperatura máxima	20.9
122243	7	Sololá	713	San Lucas Tolimán	10	San Lucas Tolimán	5	Mayo	2023-06-05T00:00:00	2024-11-08T02:00:00	3	Temperatura mínima	19.5
122244	7	Sololá	713	San Lucas Tolimán	10	San Lucas Tolimán	5	Mayo	2023-06-05T00:00:00	2024-11-08T02:00:00	5	Humedad	57
122245	7	Sololá	713	San Lucas Tolimán	10	San Lucas Tolimán	5	Mayo	2023-06-05T00:00:00	2024-11-08T02:00:00	6	Velocidad del viento	4.8
122246	7	Sololá	713	San Lucas Tolimán	10	San Lucas Tolimán	5	Mayo	2023-06-05T00:00:00	2024-11-08T02:00:00	7	Dirección del viento	4.83
122247	7	Sololá	713	San Lucas Tolimán	10	San Lucas Tolimán	5	Mayo	2023-06-05T00:00:00	2024-11-08T02:00:00	1	Precipitación	0
122248	7	Sololá	713	San Lucas Tolimán	10	San Lucas Tolimán	5	Mayo	2023-06-05T00:00:00	2024-11-08T02:00:00	8	Radiación solar	0
122249	7	Sololá	713	San Lucas Tolimán	10	San Lucas Tolimán	5	Mayo	2023-06-05T00:00:00	2024-11-08T03:00:00	2	Temperatura media	18.6
122250	7	Sololá	713	San Lucas Tolimán	10	San Lucas Tolimán	5	Mayo	2023-06-05T00:00:00	2024-11-08T03:00:00	4	Temperatura máxima	19.6
122251	7	Sololá	713	San Lucas Tolimán	10	San Lucas Tolimán	5	Mayo	2023-06-05T00:00:00	2024-11-08T03:00:00	3	Temperatura mínima	18.6
122252	7	Sololá	713	San Lucas Tolimán	10	San Lucas Tolimán	5	Mayo	2023-06-05T00:00:00	2024-11-08T03:00:00	5	Humedad	60
122253	7	Sololá	713	San Lucas Tolimán	10	San Lucas Tolimán	5	Mayo	2023-06-05T00:00:00	2024-11-08T03:00:00	6	Velocidad del viento	3.2
122254	7	Sololá	713	San Lucas Tolimán	10	San Lucas Tolimán	5	Mayo	2023-06-05T00:00:00	2024-11-08T03:00:00	7	Dirección del viento	3.22
122255	7	Sololá	713	San Lucas Tolimán	10	San Lucas Tolimán	5	Mayo	2023-06-05T00:00:00	2024-11-08T03:00:00	1	Precipitación	0
122256	7	Sololá	713	San Lucas Tolimán	10	San Lucas Tolimán	5	Mayo	2023-06-05T00:00:00	2024-11-08T03:00:00	8	Radiación solar	0
122257	7	Sololá	713	San Lucas Tolimán	10	San Lucas Tolimán	5	Mayo	2023-06-05T00:00:00	2024-11-08T04:00:00	2	Temperatura media	18.2
122258	7	Sololá	713	San Lucas Tolimán	10	San Lucas Tolimán	5	Mayo	2023-06-05T00:00:00	2024-11-08T04:00:00	4	Temperatura máxima	18.6
122259	7	Sololá	713	San Lucas Tolimán	10	San Lucas Tolimán	5	Mayo	2023-06-05T00:00:00	2024-11-08T04:00:00	3	Temperatura mínima	18.2
122260	7	Sololá	713	San Lucas Tolimán	10	San Lucas Tolimán	5	Mayo	2023-06-05T00:00:00	2024-11-08T04:00:00	5	Humedad	59
122261	7	Sololá	713	San Lucas Tolimán	10	San Lucas Tolimán	5	Mayo	2023-06-05T00:00:00	2024-11-08T04:00:00	6	Velocidad del viento	1.6
122262	7	Sololá	713	San Lucas Tolimán	10	San Lucas Tolimán	5	Mayo	2023-06-05T00:00:00	2024-11-08T04:00:00	7	Dirección del viento	1.61
122263	7	Sololá	713	San Lucas Tolimán	10	San Lucas Tolimán	5	Mayo	2023-06-05T00:00:00	2024-11-08T04:00:00	1	Precipitación	0
122264	7	Sololá	713	San Lucas Tolimán	10	San Lucas Tolimán	5	Mayo	2023-06-05T00:00:00	2024-11-08T04:00:00	8	Radiación solar	0
122265	7	Sololá	713	San Lucas Tolimán	10	San Lucas Tolimán	5	Mayo	2023-06-05T00:00:00	2024-11-08T05:00:00	2	Temperatura media	18
122266	7	Sololá	713	San Lucas Tolimán	10	San Lucas Tolimán	5	Mayo	2023-06-05T00:00:00	2024-11-08T05:00:00	4	Temperatura máxima	18.4
122267	7	Sololá	713	San Lucas Tolimán	10	San Lucas Tolimán	5	Mayo	2023-06-05T00:00:00	2024-11-08T05:00:00	3	Temperatura mínima	17.9
122268	7	Sololá	713	San Lucas Tolimán	10	San Lucas Tolimán	5	Mayo	2023-06-05T00:00:00	2024-11-08T05:00:00	5	Humedad	56
122269	7	Sololá	713	San Lucas Tolimán	10	San Lucas Tolimán	5	Mayo	2023-06-05T00:00:00	2024-11-08T05:00:00	6	Velocidad del viento	3.2
122270	7	Sololá	713	San Lucas Tolimán	10	San Lucas Tolimán	5	Mayo	2023-06-05T00:00:00	2024-11-08T05:00:00	7	Dirección del viento	3.22
122271	7	Sololá	713	San Lucas Tolimán	10	San Lucas Tolimán	5	Mayo	2023-06-05T00:00:00	2024-11-08T05:00:00	1	Precipitación	0
122272	7	Sololá	713	San Lucas Tolimán	10	San Lucas Tolimán	5	Mayo	2023-06-05T00:00:00	2024-11-08T05:00:00	8	Radiación solar	0
122273	7	Sololá	713	San Lucas Tolimán	10	San Lucas Tolimán	5	Mayo	2023-06-05T00:00:00	2024-11-08T06:00:00	2	Temperatura media	17.8
122274	7	Sololá	713	San Lucas Tolimán	10	San Lucas Tolimán	5	Mayo	2023-06-05T00:00:00	2024-11-08T06:00:00	4	Temperatura máxima	18.3
122275	7	Sololá	713	San Lucas Tolimán	10	San Lucas Tolimán	5	Mayo	2023-06-05T00:00:00	2024-11-08T06:00:00	3	Temperatura mínima	17.3
122276	7	Sololá	713	San Lucas Tolimán	10	San Lucas Tolimán	5	Mayo	2023-06-05T00:00:00	2024-11-08T06:00:00	5	Humedad	57
122277	7	Sololá	713	San Lucas Tolimán	10	San Lucas Tolimán	5	Mayo	2023-06-05T00:00:00	2024-11-08T06:00:00	6	Velocidad del viento	3.2
122278	7	Sololá	713	San Lucas Tolimán	10	San Lucas Tolimán	5	Mayo	2023-06-05T00:00:00	2024-11-08T06:00:00	7	Dirección del viento	3.22
122279	7	Sololá	713	San Lucas Tolimán	10	San Lucas Tolimán	5	Mayo	2023-06-05T00:00:00	2024-11-08T06:00:00	1	Precipitación	0
122280	7	Sololá	713	San Lucas Tolimán	10	San Lucas Tolimán	5	Mayo	2023-06-05T00:00:00	2024-11-08T06:00:00	8	Radiación solar	3
122281	7	Sololá	713	San Lucas Tolimán	10	San Lucas Tolimán	5	Mayo	2023-06-05T00:00:00	2024-11-08T07:00:00	2	Temperatura media	19.2
122282	7	Sololá	713	San Lucas Tolimán	10	San Lucas Tolimán	5	Mayo	2023-06-05T00:00:00	2024-11-08T07:00:00	4	Temperatura máxima	19.2
122283	7	Sololá	713	San Lucas Tolimán	10	San Lucas Tolimán	5	Mayo	2023-06-05T00:00:00	2024-11-08T07:00:00	3	Temperatura mínima	17.7
122284	7	Sololá	713	San Lucas Tolimán	10	San Lucas Tolimán	5	Mayo	2023-06-05T00:00:00	2024-11-08T07:00:00	5	Humedad	56
122285	7	Sololá	713	San Lucas Tolimán	10	San Lucas Tolimán	5	Mayo	2023-06-05T00:00:00	2024-11-08T07:00:00	6	Velocidad del viento	3.2
122286	7	Sololá	713	San Lucas Tolimán	10	San Lucas Tolimán	5	Mayo	2023-06-05T00:00:00	2024-11-08T07:00:00	7	Dirección del viento	3.22
122287	7	Sololá	713	San Lucas Tolimán	10	San Lucas Tolimán	5	Mayo	2023-06-05T00:00:00	2024-11-08T07:00:00	1	Precipitación	0
122288	7	Sololá	713	San Lucas Tolimán	10	San Lucas Tolimán	5	Mayo	2023-06-05T00:00:00	2024-11-08T07:00:00	8	Radiación solar	97
122289	7	Sololá	713	San Lucas Tolimán	10	San Lucas Tolimán	5	Mayo	2023-06-05T00:00:00	2024-11-08T08:00:00	2	Temperatura media	21.7
122290	7	Sololá	713	San Lucas Tolimán	10	San Lucas Tolimán	5	Mayo	2023-06-05T00:00:00	2024-11-08T08:00:00	4	Temperatura máxima	21.7
122291	7	Sololá	713	San Lucas Tolimán	10	San Lucas Tolimán	5	Mayo	2023-06-05T00:00:00	2024-11-08T08:00:00	3	Temperatura mínima	19.2
122292	7	Sololá	713	San Lucas Tolimán	10	San Lucas Tolimán	5	Mayo	2023-06-05T00:00:00	2024-11-08T08:00:00	5	Humedad	49
122293	7	Sololá	713	San Lucas Tolimán	10	San Lucas Tolimán	5	Mayo	2023-06-05T00:00:00	2024-11-08T08:00:00	6	Velocidad del viento	3.2
122294	7	Sololá	713	San Lucas Tolimán	10	San Lucas Tolimán	5	Mayo	2023-06-05T00:00:00	2024-11-08T08:00:00	7	Dirección del viento	3.22
122295	7	Sololá	713	San Lucas Tolimán	10	San Lucas Tolimán	5	Mayo	2023-06-05T00:00:00	2024-11-08T08:00:00	1	Precipitación	0
122296	7	Sololá	713	San Lucas Tolimán	10	San Lucas Tolimán	5	Mayo	2023-06-05T00:00:00	2024-11-08T08:00:00	8	Radiación solar	339
122297	7	Sololá	713	San Lucas Tolimán	10	San Lucas Tolimán	5	Mayo	2023-06-05T00:00:00	2024-11-08T09:00:00	2	Temperatura media	23.1
122298	7	Sololá	713	San Lucas Tolimán	10	San Lucas Tolimán	5	Mayo	2023-06-05T00:00:00	2024-11-08T09:00:00	4	Temperatura máxima	23.8
122299	7	Sololá	713	San Lucas Tolimán	10	San Lucas Tolimán	5	Mayo	2023-06-05T00:00:00	2024-11-08T09:00:00	3	Temperatura mínima	21.7
122300	7	Sololá	713	San Lucas Tolimán	10	San Lucas Tolimán	5	Mayo	2023-06-05T00:00:00	2024-11-08T09:00:00	5	Humedad	44
122301	7	Sololá	713	San Lucas Tolimán	10	San Lucas Tolimán	5	Mayo	2023-06-05T00:00:00	2024-11-08T09:00:00	6	Velocidad del viento	4.8
122302	7	Sololá	713	San Lucas Tolimán	10	San Lucas Tolimán	5	Mayo	2023-06-05T00:00:00	2024-11-08T09:00:00	7	Dirección del viento	4.83
122303	7	Sololá	713	San Lucas Tolimán	10	San Lucas Tolimán	5	Mayo	2023-06-05T00:00:00	2024-11-08T09:00:00	1	Precipitación	0
122304	7	Sololá	713	San Lucas Tolimán	10	San Lucas Tolimán	5	Mayo	2023-06-05T00:00:00	2024-11-08T09:00:00	8	Radiación solar	537
122305	7	Sololá	713	San Lucas Tolimán	10	San Lucas Tolimán	5	Mayo	2023-06-05T00:00:00	2024-11-08T10:00:00	2	Temperatura media	26
122306	7	Sololá	713	San Lucas Tolimán	10	San Lucas Tolimán	5	Mayo	2023-06-05T00:00:00	2024-11-08T10:00:00	4	Temperatura máxima	26.1
122307	7	Sololá	713	San Lucas Tolimán	10	San Lucas Tolimán	5	Mayo	2023-06-05T00:00:00	2024-11-08T10:00:00	3	Temperatura mínima	22.9
122308	7	Sololá	713	San Lucas Tolimán	10	San Lucas Tolimán	5	Mayo	2023-06-05T00:00:00	2024-11-08T10:00:00	5	Humedad	43
122309	7	Sololá	713	San Lucas Tolimán	10	San Lucas Tolimán	5	Mayo	2023-06-05T00:00:00	2024-11-08T10:00:00	6	Velocidad del viento	4.8
122310	7	Sololá	713	San Lucas Tolimán	10	San Lucas Tolimán	5	Mayo	2023-06-05T00:00:00	2024-11-08T10:00:00	7	Dirección del viento	4.83
122311	7	Sololá	713	San Lucas Tolimán	10	San Lucas Tolimán	5	Mayo	2023-06-05T00:00:00	2024-11-08T10:00:00	1	Precipitación	0
122312	7	Sololá	713	San Lucas Tolimán	10	San Lucas Tolimán	5	Mayo	2023-06-05T00:00:00	2024-11-08T10:00:00	8	Radiación solar	724
122313	7	Sololá	713	San Lucas Tolimán	10	San Lucas Tolimán	5	Mayo	2023-06-05T00:00:00	2024-11-08T11:00:00	2	Temperatura media	25.7
122314	7	Sololá	713	San Lucas Tolimán	10	San Lucas Tolimán	5	Mayo	2023-06-05T00:00:00	2024-11-08T11:00:00	4	Temperatura máxima	26.1
122315	7	Sololá	713	San Lucas Tolimán	10	San Lucas Tolimán	5	Mayo	2023-06-05T00:00:00	2024-11-08T11:00:00	3	Temperatura mínima	25.3
122316	7	Sololá	713	San Lucas Tolimán	10	San Lucas Tolimán	5	Mayo	2023-06-05T00:00:00	2024-11-08T11:00:00	5	Humedad	46
122317	7	Sololá	713	San Lucas Tolimán	10	San Lucas Tolimán	5	Mayo	2023-06-05T00:00:00	2024-11-08T11:00:00	6	Velocidad del viento	8
122318	7	Sololá	713	San Lucas Tolimán	10	San Lucas Tolimán	5	Mayo	2023-06-05T00:00:00	2024-11-08T11:00:00	7	Dirección del viento	8.05
122319	7	Sololá	713	San Lucas Tolimán	10	San Lucas Tolimán	5	Mayo	2023-06-05T00:00:00	2024-11-08T11:00:00	1	Precipitación	0
122320	7	Sololá	713	San Lucas Tolimán	10	San Lucas Tolimán	5	Mayo	2023-06-05T00:00:00	2024-11-08T11:00:00	8	Radiación solar	951
122321	7	Sololá	713	San Lucas Tolimán	10	San Lucas Tolimán	5	Mayo	2023-06-05T00:00:00	2024-11-08T12:00:00	2	Temperatura media	25.6
122322	7	Sololá	713	San Lucas Tolimán	10	San Lucas Tolimán	5	Mayo	2023-06-05T00:00:00	2024-11-08T12:00:00	4	Temperatura máxima	26.2
122323	7	Sololá	713	San Lucas Tolimán	10	San Lucas Tolimán	5	Mayo	2023-06-05T00:00:00	2024-11-08T12:00:00	3	Temperatura mínima	25.6
122324	7	Sololá	713	San Lucas Tolimán	10	San Lucas Tolimán	5	Mayo	2023-06-05T00:00:00	2024-11-08T12:00:00	5	Humedad	51
122325	7	Sololá	713	San Lucas Tolimán	10	San Lucas Tolimán	5	Mayo	2023-06-05T00:00:00	2024-11-08T12:00:00	6	Velocidad del viento	9.7
122326	7	Sololá	713	San Lucas Tolimán	10	San Lucas Tolimán	5	Mayo	2023-06-05T00:00:00	2024-11-08T12:00:00	7	Dirección del viento	9.66
122327	7	Sololá	713	San Lucas Tolimán	10	San Lucas Tolimán	5	Mayo	2023-06-05T00:00:00	2024-11-08T12:00:00	1	Precipitación	0
122328	7	Sololá	713	San Lucas Tolimán	10	San Lucas Tolimán	5	Mayo	2023-06-05T00:00:00	2024-11-08T12:00:00	8	Radiación solar	1048
122329	7	Sololá	713	San Lucas Tolimán	10	San Lucas Tolimán	5	Mayo	2023-06-05T00:00:00	2024-11-08T13:00:00	2	Temperatura media	25.3
122330	7	Sololá	713	San Lucas Tolimán	10	San Lucas Tolimán	5	Mayo	2023-06-05T00:00:00	2024-11-08T13:00:00	4	Temperatura máxima	25.7
122331	7	Sololá	713	San Lucas Tolimán	10	San Lucas Tolimán	5	Mayo	2023-06-05T00:00:00	2024-11-08T13:00:00	3	Temperatura mínima	25
122332	7	Sololá	713	San Lucas Tolimán	10	San Lucas Tolimán	5	Mayo	2023-06-05T00:00:00	2024-11-08T13:00:00	5	Humedad	55
122333	7	Sololá	713	San Lucas Tolimán	10	San Lucas Tolimán	5	Mayo	2023-06-05T00:00:00	2024-11-08T13:00:00	6	Velocidad del viento	12.9
122334	7	Sololá	713	San Lucas Tolimán	10	San Lucas Tolimán	5	Mayo	2023-06-05T00:00:00	2024-11-08T13:00:00	7	Dirección del viento	12.87
122335	7	Sololá	713	San Lucas Tolimán	10	San Lucas Tolimán	5	Mayo	2023-06-05T00:00:00	2024-11-08T13:00:00	1	Precipitación	0
122336	7	Sololá	713	San Lucas Tolimán	10	San Lucas Tolimán	5	Mayo	2023-06-05T00:00:00	2024-11-08T13:00:00	8	Radiación solar	1044
122337	7	Sololá	713	San Lucas Tolimán	10	San Lucas Tolimán	5	Mayo	2023-06-05T00:00:00	2024-11-08T14:00:00	2	Temperatura media	25.3
122338	7	Sololá	713	San Lucas Tolimán	10	San Lucas Tolimán	5	Mayo	2023-06-05T00:00:00	2024-11-08T14:00:00	4	Temperatura máxima	26.1
122339	7	Sololá	713	San Lucas Tolimán	10	San Lucas Tolimán	5	Mayo	2023-06-05T00:00:00	2024-11-08T14:00:00	3	Temperatura mínima	25
122340	7	Sololá	713	San Lucas Tolimán	10	San Lucas Tolimán	5	Mayo	2023-06-05T00:00:00	2024-11-08T14:00:00	5	Humedad	55
122341	7	Sololá	713	San Lucas Tolimán	10	San Lucas Tolimán	5	Mayo	2023-06-05T00:00:00	2024-11-08T14:00:00	6	Velocidad del viento	11.3
122342	7	Sololá	713	San Lucas Tolimán	10	San Lucas Tolimán	5	Mayo	2023-06-05T00:00:00	2024-11-08T14:00:00	7	Dirección del viento	11.27
122343	7	Sololá	713	San Lucas Tolimán	10	San Lucas Tolimán	5	Mayo	2023-06-05T00:00:00	2024-11-08T14:00:00	1	Precipitación	0
122344	7	Sololá	713	San Lucas Tolimán	10	San Lucas Tolimán	5	Mayo	2023-06-05T00:00:00	2024-11-08T14:00:00	8	Radiación solar	939
122345	7	Sololá	713	San Lucas Tolimán	10	San Lucas Tolimán	5	Mayo	2023-06-05T00:00:00	2024-11-08T15:00:00	2	Temperatura media	24.2
122346	7	Sololá	713	San Lucas Tolimán	10	San Lucas Tolimán	5	Mayo	2023-06-05T00:00:00	2024-11-08T15:00:00	4	Temperatura máxima	25.4
122347	7	Sololá	713	San Lucas Tolimán	10	San Lucas Tolimán	5	Mayo	2023-06-05T00:00:00	2024-11-08T15:00:00	3	Temperatura mínima	24.2
122348	7	Sololá	713	San Lucas Tolimán	10	San Lucas Tolimán	5	Mayo	2023-06-05T00:00:00	2024-11-08T15:00:00	5	Humedad	58
122349	7	Sololá	713	San Lucas Tolimán	10	San Lucas Tolimán	5	Mayo	2023-06-05T00:00:00	2024-11-08T15:00:00	6	Velocidad del viento	14.5
122350	7	Sololá	713	San Lucas Tolimán	10	San Lucas Tolimán	5	Mayo	2023-06-05T00:00:00	2024-11-08T15:00:00	7	Dirección del viento	14.48
122351	7	Sololá	713	San Lucas Tolimán	10	San Lucas Tolimán	5	Mayo	2023-06-05T00:00:00	2024-11-08T15:00:00	1	Precipitación	0
122352	7	Sololá	713	San Lucas Tolimán	10	San Lucas Tolimán	5	Mayo	2023-06-05T00:00:00	2024-11-08T15:00:00	8	Radiación solar	767
122353	7	Sololá	713	San Lucas Tolimán	10	San Lucas Tolimán	5	Mayo	2023-06-05T00:00:00	2024-11-08T16:00:00	2	Temperatura media	24.9
122354	7	Sololá	713	San Lucas Tolimán	10	San Lucas Tolimán	5	Mayo	2023-06-05T00:00:00	2024-11-08T16:00:00	4	Temperatura máxima	25
122355	7	Sololá	713	San Lucas Tolimán	10	San Lucas Tolimán	5	Mayo	2023-06-05T00:00:00	2024-11-08T16:00:00	3	Temperatura mínima	24.2
122356	7	Sololá	713	San Lucas Tolimán	10	San Lucas Tolimán	5	Mayo	2023-06-05T00:00:00	2024-11-08T16:00:00	5	Humedad	55
122357	7	Sololá	713	San Lucas Tolimán	10	San Lucas Tolimán	5	Mayo	2023-06-05T00:00:00	2024-11-08T16:00:00	6	Velocidad del viento	11.3
122358	7	Sololá	713	San Lucas Tolimán	10	San Lucas Tolimán	5	Mayo	2023-06-05T00:00:00	2024-11-08T16:00:00	7	Dirección del viento	11.27
122359	7	Sololá	713	San Lucas Tolimán	10	San Lucas Tolimán	5	Mayo	2023-06-05T00:00:00	2024-11-08T16:00:00	1	Precipitación	0
122360	7	Sololá	713	San Lucas Tolimán	10	San Lucas Tolimán	5	Mayo	2023-06-05T00:00:00	2024-11-08T16:00:00	8	Radiación solar	622
122361	7	Sololá	713	San Lucas Tolimán	10	San Lucas Tolimán	5	Mayo	2023-06-05T00:00:00	2024-11-08T17:00:00	2	Temperatura media	23.7
122362	7	Sololá	713	San Lucas Tolimán	10	San Lucas Tolimán	5	Mayo	2023-06-05T00:00:00	2024-11-08T17:00:00	4	Temperatura máxima	24.9
122363	7	Sololá	713	San Lucas Tolimán	10	San Lucas Tolimán	5	Mayo	2023-06-05T00:00:00	2024-11-08T17:00:00	3	Temperatura mínima	23.7
122364	7	Sololá	713	San Lucas Tolimán	10	San Lucas Tolimán	5	Mayo	2023-06-05T00:00:00	2024-11-08T17:00:00	5	Humedad	62
122365	7	Sololá	713	San Lucas Tolimán	10	San Lucas Tolimán	5	Mayo	2023-06-05T00:00:00	2024-11-08T17:00:00	6	Velocidad del viento	8
122366	7	Sololá	713	San Lucas Tolimán	10	San Lucas Tolimán	5	Mayo	2023-06-05T00:00:00	2024-11-08T17:00:00	7	Dirección del viento	8.05
122367	7	Sololá	713	San Lucas Tolimán	10	San Lucas Tolimán	5	Mayo	2023-06-05T00:00:00	2024-11-08T17:00:00	1	Precipitación	0
122368	7	Sololá	713	San Lucas Tolimán	10	San Lucas Tolimán	5	Mayo	2023-06-05T00:00:00	2024-11-08T17:00:00	8	Radiación solar	380
122369	7	Sololá	713	San Lucas Tolimán	10	San Lucas Tolimán	5	Mayo	2023-06-05T00:00:00	2024-11-08T18:00:00	2	Temperatura media	21.7
122370	7	Sololá	713	San Lucas Tolimán	10	San Lucas Tolimán	5	Mayo	2023-06-05T00:00:00	2024-11-08T18:00:00	4	Temperatura máxima	23.8
122371	7	Sololá	713	San Lucas Tolimán	10	San Lucas Tolimán	5	Mayo	2023-06-05T00:00:00	2024-11-08T18:00:00	3	Temperatura mínima	21.7
122372	7	Sololá	713	San Lucas Tolimán	10	San Lucas Tolimán	5	Mayo	2023-06-05T00:00:00	2024-11-08T18:00:00	5	Humedad	60
122373	7	Sololá	713	San Lucas Tolimán	10	San Lucas Tolimán	5	Mayo	2023-06-05T00:00:00	2024-11-08T18:00:00	6	Velocidad del viento	8
122374	7	Sololá	713	San Lucas Tolimán	10	San Lucas Tolimán	5	Mayo	2023-06-05T00:00:00	2024-11-08T18:00:00	7	Dirección del viento	8.05
122375	7	Sololá	713	San Lucas Tolimán	10	San Lucas Tolimán	5	Mayo	2023-06-05T00:00:00	2024-11-08T18:00:00	1	Precipitación	0
122376	7	Sololá	713	San Lucas Tolimán	10	San Lucas Tolimán	5	Mayo	2023-06-05T00:00:00	2024-11-08T18:00:00	8	Radiación solar	99
122377	7	Sololá	713	San Lucas Tolimán	10	San Lucas Tolimán	5	Mayo	2023-06-05T00:00:00	2024-11-08T19:00:00	2	Temperatura media	21.1
122378	7	Sololá	713	San Lucas Tolimán	10	San Lucas Tolimán	5	Mayo	2023-06-05T00:00:00	2024-11-08T19:00:00	4	Temperatura máxima	21.8
122379	7	Sololá	713	San Lucas Tolimán	10	San Lucas Tolimán	5	Mayo	2023-06-05T00:00:00	2024-11-08T19:00:00	3	Temperatura mínima	20.9
122380	7	Sololá	713	San Lucas Tolimán	10	San Lucas Tolimán	5	Mayo	2023-06-05T00:00:00	2024-11-08T19:00:00	5	Humedad	56
122381	7	Sololá	713	San Lucas Tolimán	10	San Lucas Tolimán	5	Mayo	2023-06-05T00:00:00	2024-11-08T19:00:00	6	Velocidad del viento	4.8
122382	7	Sololá	713	San Lucas Tolimán	10	San Lucas Tolimán	5	Mayo	2023-06-05T00:00:00	2024-11-08T19:00:00	7	Dirección del viento	4.83
122383	7	Sololá	713	San Lucas Tolimán	10	San Lucas Tolimán	5	Mayo	2023-06-05T00:00:00	2024-11-08T19:00:00	1	Precipitación	0
122384	7	Sololá	713	San Lucas Tolimán	10	San Lucas Tolimán	5	Mayo	2023-06-05T00:00:00	2024-11-08T19:00:00	8	Radiación solar	0
122385	7	Sololá	713	San Lucas Tolimán	10	San Lucas Tolimán	5	Mayo	2023-06-05T00:00:00	2024-11-08T20:00:00	2	Temperatura media	23.4
122386	7	Sololá	713	San Lucas Tolimán	10	San Lucas Tolimán	5	Mayo	2023-06-05T00:00:00	2024-11-08T20:00:00	4	Temperatura máxima	23.4
122387	7	Sololá	713	San Lucas Tolimán	10	San Lucas Tolimán	5	Mayo	2023-06-05T00:00:00	2024-11-08T20:00:00	3	Temperatura mínima	20.8
122388	7	Sololá	713	San Lucas Tolimán	10	San Lucas Tolimán	5	Mayo	2023-06-05T00:00:00	2024-11-08T20:00:00	5	Humedad	36
122389	7	Sololá	713	San Lucas Tolimán	10	San Lucas Tolimán	5	Mayo	2023-06-05T00:00:00	2024-11-08T20:00:00	6	Velocidad del viento	6.4
122390	7	Sololá	713	San Lucas Tolimán	10	San Lucas Tolimán	5	Mayo	2023-06-05T00:00:00	2024-11-08T20:00:00	7	Dirección del viento	6.44
122391	7	Sololá	713	San Lucas Tolimán	10	San Lucas Tolimán	5	Mayo	2023-06-05T00:00:00	2024-11-08T20:00:00	1	Precipitación	0
122392	7	Sololá	713	San Lucas Tolimán	10	San Lucas Tolimán	5	Mayo	2023-06-05T00:00:00	2024-11-08T20:00:00	8	Radiación solar	0
122393	7	Sololá	713	San Lucas Tolimán	10	San Lucas Tolimán	5	Mayo	2023-06-05T00:00:00	2024-11-08T21:00:00	2	Temperatura media	21.4
122394	7	Sololá	713	San Lucas Tolimán	10	San Lucas Tolimán	5	Mayo	2023-06-05T00:00:00	2024-11-08T21:00:00	4	Temperatura máxima	23.6
122395	7	Sololá	713	San Lucas Tolimán	10	San Lucas Tolimán	5	Mayo	2023-06-05T00:00:00	2024-11-08T21:00:00	3	Temperatura mínima	21.4
122396	7	Sololá	713	San Lucas Tolimán	10	San Lucas Tolimán	5	Mayo	2023-06-05T00:00:00	2024-11-08T21:00:00	5	Humedad	43
122397	7	Sololá	713	San Lucas Tolimán	10	San Lucas Tolimán	5	Mayo	2023-06-05T00:00:00	2024-11-08T21:00:00	6	Velocidad del viento	6.4
122398	7	Sololá	713	San Lucas Tolimán	10	San Lucas Tolimán	5	Mayo	2023-06-05T00:00:00	2024-11-08T21:00:00	7	Dirección del viento	6.44
122399	7	Sololá	713	San Lucas Tolimán	10	San Lucas Tolimán	5	Mayo	2023-06-05T00:00:00	2024-11-08T21:00:00	1	Precipitación	0
122400	7	Sololá	713	San Lucas Tolimán	10	San Lucas Tolimán	5	Mayo	2023-06-05T00:00:00	2024-11-08T21:00:00	8	Radiación solar	0
122401	7	Sololá	713	San Lucas Tolimán	10	San Lucas Tolimán	5	Mayo	2023-06-05T00:00:00	2024-11-08T22:00:00	2	Temperatura media	20.4
122402	7	Sololá	713	San Lucas Tolimán	10	San Lucas Tolimán	5	Mayo	2023-06-05T00:00:00	2024-11-08T22:00:00	4	Temperatura máxima	21.4
122403	7	Sololá	713	San Lucas Tolimán	10	San Lucas Tolimán	5	Mayo	2023-06-05T00:00:00	2024-11-08T22:00:00	3	Temperatura mínima	20.3
122404	7	Sololá	713	San Lucas Tolimán	10	San Lucas Tolimán	5	Mayo	2023-06-05T00:00:00	2024-11-08T22:00:00	5	Humedad	48
122405	7	Sololá	713	San Lucas Tolimán	10	San Lucas Tolimán	5	Mayo	2023-06-05T00:00:00	2024-11-08T22:00:00	6	Velocidad del viento	1.6
122406	7	Sololá	713	San Lucas Tolimán	10	San Lucas Tolimán	5	Mayo	2023-06-05T00:00:00	2024-11-08T22:00:00	7	Dirección del viento	1.61
122407	7	Sololá	713	San Lucas Tolimán	10	San Lucas Tolimán	5	Mayo	2023-06-05T00:00:00	2024-11-08T22:00:00	1	Precipitación	0
122408	7	Sololá	713	San Lucas Tolimán	10	San Lucas Tolimán	5	Mayo	2023-06-05T00:00:00	2024-11-08T22:00:00	8	Radiación solar	0
122409	7	Sololá	713	San Lucas Tolimán	10	San Lucas Tolimán	5	Mayo	2023-06-05T00:00:00	2024-11-08T23:00:00	2	Temperatura media	19.8
122410	7	Sololá	713	San Lucas Tolimán	10	San Lucas Tolimán	5	Mayo	2023-06-05T00:00:00	2024-11-08T23:00:00	4	Temperatura máxima	20.7
122411	7	Sololá	713	San Lucas Tolimán	10	San Lucas Tolimán	5	Mayo	2023-06-05T00:00:00	2024-11-08T23:00:00	3	Temperatura mínima	19.8
122412	7	Sololá	713	San Lucas Tolimán	10	San Lucas Tolimán	5	Mayo	2023-06-05T00:00:00	2024-11-08T23:00:00	5	Humedad	48
122413	7	Sololá	713	San Lucas Tolimán	10	San Lucas Tolimán	5	Mayo	2023-06-05T00:00:00	2024-11-08T23:00:00	6	Velocidad del viento	1.6
122414	7	Sololá	713	San Lucas Tolimán	10	San Lucas Tolimán	5	Mayo	2023-06-05T00:00:00	2024-11-08T23:00:00	7	Dirección del viento	1.61
122415	7	Sololá	713	San Lucas Tolimán	10	San Lucas Tolimán	5	Mayo	2023-06-05T00:00:00	2024-11-08T23:00:00	1	Precipitación	0
122416	7	Sololá	713	San Lucas Tolimán	10	San Lucas Tolimán	5	Mayo	2023-06-05T00:00:00	2024-11-08T23:00:00	8	Radiación solar	0
122417	7	Sololá	713	San Lucas Tolimán	10	San Lucas Tolimán	5	Mayo	2023-07-05T00:00:00	2024-11-08T00:00:00	2	Temperatura media	18.2
122418	7	Sololá	713	San Lucas Tolimán	10	San Lucas Tolimán	5	Mayo	2023-07-05T00:00:00	2024-11-08T00:00:00	4	Temperatura máxima	20.2
122419	7	Sololá	713	San Lucas Tolimán	10	San Lucas Tolimán	5	Mayo	2023-07-05T00:00:00	2024-11-08T00:00:00	3	Temperatura mínima	18.2
122420	7	Sololá	713	San Lucas Tolimán	10	San Lucas Tolimán	5	Mayo	2023-07-05T00:00:00	2024-11-08T00:00:00	5	Humedad	52
122421	7	Sololá	713	San Lucas Tolimán	10	San Lucas Tolimán	5	Mayo	2023-07-05T00:00:00	2024-11-08T00:00:00	6	Velocidad del viento	0
122422	7	Sololá	713	San Lucas Tolimán	10	San Lucas Tolimán	5	Mayo	2023-07-05T00:00:00	2024-11-08T00:00:00	7	Dirección del viento	0
122423	7	Sololá	713	San Lucas Tolimán	10	San Lucas Tolimán	5	Mayo	2023-07-05T00:00:00	2024-11-08T00:00:00	1	Precipitación	0
122424	7	Sololá	713	San Lucas Tolimán	10	San Lucas Tolimán	5	Mayo	2023-07-05T00:00:00	2024-11-08T00:00:00	8	Radiación solar	0
122425	7	Sololá	713	San Lucas Tolimán	10	San Lucas Tolimán	5	Mayo	2023-07-05T00:00:00	2024-11-08T01:00:00	2	Temperatura media	17.7
122426	7	Sololá	713	San Lucas Tolimán	10	San Lucas Tolimán	5	Mayo	2023-07-05T00:00:00	2024-11-08T01:00:00	4	Temperatura máxima	18.2
122427	7	Sololá	713	San Lucas Tolimán	10	San Lucas Tolimán	5	Mayo	2023-07-05T00:00:00	2024-11-08T01:00:00	3	Temperatura mínima	17.3
122428	7	Sololá	713	San Lucas Tolimán	10	San Lucas Tolimán	5	Mayo	2023-07-05T00:00:00	2024-11-08T01:00:00	5	Humedad	48
122429	7	Sololá	713	San Lucas Tolimán	10	San Lucas Tolimán	5	Mayo	2023-07-05T00:00:00	2024-11-08T01:00:00	6	Velocidad del viento	0
122430	7	Sololá	713	San Lucas Tolimán	10	San Lucas Tolimán	5	Mayo	2023-07-05T00:00:00	2024-11-08T01:00:00	7	Dirección del viento	0
122431	7	Sololá	713	San Lucas Tolimán	10	San Lucas Tolimán	5	Mayo	2023-07-05T00:00:00	2024-11-08T01:00:00	1	Precipitación	0
122432	7	Sololá	713	San Lucas Tolimán	10	San Lucas Tolimán	5	Mayo	2023-07-05T00:00:00	2024-11-08T01:00:00	8	Radiación solar	0
122433	7	Sololá	713	San Lucas Tolimán	10	San Lucas Tolimán	5	Mayo	2023-07-05T00:00:00	2024-11-08T02:00:00	2	Temperatura media	17.3
122434	7	Sololá	713	San Lucas Tolimán	10	San Lucas Tolimán	5	Mayo	2023-07-05T00:00:00	2024-11-08T02:00:00	4	Temperatura máxima	17.9
122435	7	Sololá	713	San Lucas Tolimán	10	San Lucas Tolimán	5	Mayo	2023-07-05T00:00:00	2024-11-08T02:00:00	3	Temperatura mínima	17.3
122436	7	Sololá	713	San Lucas Tolimán	10	San Lucas Tolimán	5	Mayo	2023-07-05T00:00:00	2024-11-08T02:00:00	5	Humedad	51
122437	7	Sololá	713	San Lucas Tolimán	10	San Lucas Tolimán	5	Mayo	2023-07-05T00:00:00	2024-11-08T02:00:00	6	Velocidad del viento	0
122438	7	Sololá	713	San Lucas Tolimán	10	San Lucas Tolimán	5	Mayo	2023-07-05T00:00:00	2024-11-08T02:00:00	7	Dirección del viento	0
122439	7	Sololá	713	San Lucas Tolimán	10	San Lucas Tolimán	5	Mayo	2023-07-05T00:00:00	2024-11-08T02:00:00	1	Precipitación	0
122440	7	Sololá	713	San Lucas Tolimán	10	San Lucas Tolimán	5	Mayo	2023-07-05T00:00:00	2024-11-08T02:00:00	8	Radiación solar	0
122441	7	Sololá	713	San Lucas Tolimán	10	San Lucas Tolimán	5	Mayo	2023-07-05T00:00:00	2024-11-08T03:00:00	2	Temperatura media	16.7
122442	7	Sololá	713	San Lucas Tolimán	10	San Lucas Tolimán	5	Mayo	2023-07-05T00:00:00	2024-11-08T03:00:00	4	Temperatura máxima	17.3
122443	7	Sololá	713	San Lucas Tolimán	10	San Lucas Tolimán	5	Mayo	2023-07-05T00:00:00	2024-11-08T03:00:00	3	Temperatura mínima	16.6
122444	7	Sololá	713	San Lucas Tolimán	10	San Lucas Tolimán	5	Mayo	2023-07-05T00:00:00	2024-11-08T03:00:00	5	Humedad	51
122445	7	Sololá	713	San Lucas Tolimán	10	San Lucas Tolimán	5	Mayo	2023-07-05T00:00:00	2024-11-08T03:00:00	6	Velocidad del viento	0
122446	7	Sololá	713	San Lucas Tolimán	10	San Lucas Tolimán	5	Mayo	2023-07-05T00:00:00	2024-11-08T03:00:00	7	Dirección del viento	0
122447	7	Sololá	713	San Lucas Tolimán	10	San Lucas Tolimán	5	Mayo	2023-07-05T00:00:00	2024-11-08T03:00:00	1	Precipitación	0
122448	7	Sololá	713	San Lucas Tolimán	10	San Lucas Tolimán	5	Mayo	2023-07-05T00:00:00	2024-11-08T03:00:00	8	Radiación solar	0
122449	7	Sololá	713	San Lucas Tolimán	10	San Lucas Tolimán	5	Mayo	2023-07-05T00:00:00	2024-11-08T04:00:00	2	Temperatura media	16.5
122450	7	Sololá	713	San Lucas Tolimán	10	San Lucas Tolimán	5	Mayo	2023-07-05T00:00:00	2024-11-08T04:00:00	4	Temperatura máxima	16.7
122451	7	Sololá	713	San Lucas Tolimán	10	San Lucas Tolimán	5	Mayo	2023-07-05T00:00:00	2024-11-08T04:00:00	3	Temperatura mínima	15.9
122452	7	Sololá	713	San Lucas Tolimán	10	San Lucas Tolimán	5	Mayo	2023-07-05T00:00:00	2024-11-08T04:00:00	5	Humedad	49
122453	7	Sololá	713	San Lucas Tolimán	10	San Lucas Tolimán	5	Mayo	2023-07-05T00:00:00	2024-11-08T04:00:00	6	Velocidad del viento	1.6
122454	7	Sololá	713	San Lucas Tolimán	10	San Lucas Tolimán	5	Mayo	2023-07-05T00:00:00	2024-11-08T04:00:00	7	Dirección del viento	1.61
122455	7	Sololá	713	San Lucas Tolimán	10	San Lucas Tolimán	5	Mayo	2023-07-05T00:00:00	2024-11-08T04:00:00	1	Precipitación	0
122456	7	Sololá	713	San Lucas Tolimán	10	San Lucas Tolimán	5	Mayo	2023-07-05T00:00:00	2024-11-08T04:00:00	8	Radiación solar	0
122457	7	Sololá	713	San Lucas Tolimán	10	San Lucas Tolimán	5	Mayo	2023-07-05T00:00:00	2024-11-08T05:00:00	2	Temperatura media	16.9
122458	7	Sololá	713	San Lucas Tolimán	10	San Lucas Tolimán	5	Mayo	2023-07-05T00:00:00	2024-11-08T05:00:00	4	Temperatura máxima	17.2
122459	7	Sololá	713	San Lucas Tolimán	10	San Lucas Tolimán	5	Mayo	2023-07-05T00:00:00	2024-11-08T05:00:00	3	Temperatura mínima	16.5
122460	7	Sololá	713	San Lucas Tolimán	10	San Lucas Tolimán	5	Mayo	2023-07-05T00:00:00	2024-11-08T05:00:00	5	Humedad	51
122461	7	Sololá	713	San Lucas Tolimán	10	San Lucas Tolimán	5	Mayo	2023-07-05T00:00:00	2024-11-08T05:00:00	6	Velocidad del viento	1.6
122462	7	Sololá	713	San Lucas Tolimán	10	San Lucas Tolimán	5	Mayo	2023-07-05T00:00:00	2024-11-08T05:00:00	7	Dirección del viento	1.61
122463	7	Sololá	713	San Lucas Tolimán	10	San Lucas Tolimán	5	Mayo	2023-07-05T00:00:00	2024-11-08T05:00:00	1	Precipitación	0
122464	7	Sololá	713	San Lucas Tolimán	10	San Lucas Tolimán	5	Mayo	2023-07-05T00:00:00	2024-11-08T05:00:00	8	Radiación solar	0
122465	7	Sololá	713	San Lucas Tolimán	10	San Lucas Tolimán	5	Mayo	2023-07-05T00:00:00	2024-11-08T06:00:00	2	Temperatura media	16.8
122466	7	Sololá	713	San Lucas Tolimán	10	San Lucas Tolimán	5	Mayo	2023-07-05T00:00:00	2024-11-08T06:00:00	4	Temperatura máxima	17.3
122467	7	Sololá	713	San Lucas Tolimán	10	San Lucas Tolimán	5	Mayo	2023-07-05T00:00:00	2024-11-08T06:00:00	3	Temperatura mínima	16.7
122468	7	Sololá	713	San Lucas Tolimán	10	San Lucas Tolimán	5	Mayo	2023-07-05T00:00:00	2024-11-08T06:00:00	5	Humedad	50
122469	7	Sololá	713	San Lucas Tolimán	10	San Lucas Tolimán	5	Mayo	2023-07-05T00:00:00	2024-11-08T06:00:00	6	Velocidad del viento	1.6
122470	7	Sololá	713	San Lucas Tolimán	10	San Lucas Tolimán	5	Mayo	2023-07-05T00:00:00	2024-11-08T06:00:00	7	Dirección del viento	1.61
122471	7	Sololá	713	San Lucas Tolimán	10	San Lucas Tolimán	5	Mayo	2023-07-05T00:00:00	2024-11-08T06:00:00	1	Precipitación	0
122472	7	Sololá	713	San Lucas Tolimán	10	San Lucas Tolimán	5	Mayo	2023-07-05T00:00:00	2024-11-08T06:00:00	8	Radiación solar	3
122473	7	Sololá	713	San Lucas Tolimán	10	San Lucas Tolimán	5	Mayo	2023-07-05T00:00:00	2024-11-08T07:00:00	2	Temperatura media	18
122474	7	Sololá	713	San Lucas Tolimán	10	San Lucas Tolimán	5	Mayo	2023-07-05T00:00:00	2024-11-08T07:00:00	4	Temperatura máxima	18
122475	7	Sololá	713	San Lucas Tolimán	10	San Lucas Tolimán	5	Mayo	2023-07-05T00:00:00	2024-11-08T07:00:00	3	Temperatura mínima	16.8
122476	7	Sololá	713	San Lucas Tolimán	10	San Lucas Tolimán	5	Mayo	2023-07-05T00:00:00	2024-11-08T07:00:00	5	Humedad	49
122477	7	Sololá	713	San Lucas Tolimán	10	San Lucas Tolimán	5	Mayo	2023-07-05T00:00:00	2024-11-08T07:00:00	6	Velocidad del viento	3.2
122478	7	Sololá	713	San Lucas Tolimán	10	San Lucas Tolimán	5	Mayo	2023-07-05T00:00:00	2024-11-08T07:00:00	7	Dirección del viento	3.22
122479	7	Sololá	713	San Lucas Tolimán	10	San Lucas Tolimán	5	Mayo	2023-07-05T00:00:00	2024-11-08T07:00:00	1	Precipitación	0
122480	7	Sololá	713	San Lucas Tolimán	10	San Lucas Tolimán	5	Mayo	2023-07-05T00:00:00	2024-11-08T07:00:00	8	Radiación solar	73
122481	7	Sololá	713	San Lucas Tolimán	10	San Lucas Tolimán	5	Mayo	2023-07-05T00:00:00	2024-11-08T08:00:00	2	Temperatura media	20.6
122482	7	Sololá	713	San Lucas Tolimán	10	San Lucas Tolimán	5	Mayo	2023-07-05T00:00:00	2024-11-08T08:00:00	4	Temperatura máxima	20.6
122483	7	Sololá	713	San Lucas Tolimán	10	San Lucas Tolimán	5	Mayo	2023-07-05T00:00:00	2024-11-08T08:00:00	3	Temperatura mínima	18
122484	7	Sololá	713	San Lucas Tolimán	10	San Lucas Tolimán	5	Mayo	2023-07-05T00:00:00	2024-11-08T08:00:00	5	Humedad	46
122485	7	Sololá	713	San Lucas Tolimán	10	San Lucas Tolimán	5	Mayo	2023-07-05T00:00:00	2024-11-08T08:00:00	6	Velocidad del viento	4.8
122486	7	Sololá	713	San Lucas Tolimán	10	San Lucas Tolimán	5	Mayo	2023-07-05T00:00:00	2024-11-08T08:00:00	7	Dirección del viento	4.83
122487	7	Sololá	713	San Lucas Tolimán	10	San Lucas Tolimán	5	Mayo	2023-07-05T00:00:00	2024-11-08T08:00:00	1	Precipitación	0
122488	7	Sololá	713	San Lucas Tolimán	10	San Lucas Tolimán	5	Mayo	2023-07-05T00:00:00	2024-11-08T08:00:00	8	Radiación solar	296
122489	7	Sololá	713	San Lucas Tolimán	10	San Lucas Tolimán	5	Mayo	2023-07-05T00:00:00	2024-11-08T09:00:00	2	Temperatura media	24.2
122490	7	Sololá	713	San Lucas Tolimán	10	San Lucas Tolimán	5	Mayo	2023-07-05T00:00:00	2024-11-08T09:00:00	4	Temperatura máxima	24.2
122491	7	Sololá	713	San Lucas Tolimán	10	San Lucas Tolimán	5	Mayo	2023-07-05T00:00:00	2024-11-08T09:00:00	3	Temperatura mínima	20.6
122492	7	Sololá	713	San Lucas Tolimán	10	San Lucas Tolimán	5	Mayo	2023-07-05T00:00:00	2024-11-08T09:00:00	5	Humedad	33
122493	7	Sololá	713	San Lucas Tolimán	10	San Lucas Tolimán	5	Mayo	2023-07-05T00:00:00	2024-11-08T09:00:00	6	Velocidad del viento	3.2
122494	7	Sololá	713	San Lucas Tolimán	10	San Lucas Tolimán	5	Mayo	2023-07-05T00:00:00	2024-11-08T09:00:00	7	Dirección del viento	3.22
122495	7	Sololá	713	San Lucas Tolimán	10	San Lucas Tolimán	5	Mayo	2023-07-05T00:00:00	2024-11-08T09:00:00	1	Precipitación	0
122496	7	Sololá	713	San Lucas Tolimán	10	San Lucas Tolimán	5	Mayo	2023-07-05T00:00:00	2024-11-08T09:00:00	8	Radiación solar	555
122497	7	Sololá	713	San Lucas Tolimán	10	San Lucas Tolimán	5	Mayo	2023-07-05T00:00:00	2024-11-08T10:00:00	2	Temperatura media	25.1
122498	7	Sololá	713	San Lucas Tolimán	10	San Lucas Tolimán	5	Mayo	2023-07-05T00:00:00	2024-11-08T10:00:00	4	Temperatura máxima	25.1
122499	7	Sololá	713	San Lucas Tolimán	10	San Lucas Tolimán	5	Mayo	2023-07-05T00:00:00	2024-11-08T10:00:00	3	Temperatura mínima	23
122500	7	Sololá	713	San Lucas Tolimán	10	San Lucas Tolimán	5	Mayo	2023-07-05T00:00:00	2024-11-08T10:00:00	5	Humedad	33
122501	7	Sololá	713	San Lucas Tolimán	10	San Lucas Tolimán	5	Mayo	2023-07-05T00:00:00	2024-11-08T10:00:00	6	Velocidad del viento	6.4
122502	7	Sololá	713	San Lucas Tolimán	10	San Lucas Tolimán	5	Mayo	2023-07-05T00:00:00	2024-11-08T10:00:00	7	Dirección del viento	6.44
122503	7	Sololá	713	San Lucas Tolimán	10	San Lucas Tolimán	5	Mayo	2023-07-05T00:00:00	2024-11-08T10:00:00	1	Precipitación	0
122504	7	Sololá	713	San Lucas Tolimán	10	San Lucas Tolimán	5	Mayo	2023-07-05T00:00:00	2024-11-08T10:00:00	8	Radiación solar	751
122505	7	Sololá	713	San Lucas Tolimán	10	San Lucas Tolimán	5	Mayo	2023-07-05T00:00:00	2024-11-08T11:00:00	2	Temperatura media	26.7
122506	7	Sololá	713	San Lucas Tolimán	10	San Lucas Tolimán	5	Mayo	2023-07-05T00:00:00	2024-11-08T11:00:00	4	Temperatura máxima	27.1
122507	7	Sololá	713	San Lucas Tolimán	10	San Lucas Tolimán	5	Mayo	2023-07-05T00:00:00	2024-11-08T11:00:00	3	Temperatura mínima	25.2
122508	7	Sololá	713	San Lucas Tolimán	10	San Lucas Tolimán	5	Mayo	2023-07-05T00:00:00	2024-11-08T11:00:00	5	Humedad	40
122509	7	Sololá	713	San Lucas Tolimán	10	San Lucas Tolimán	5	Mayo	2023-07-05T00:00:00	2024-11-08T11:00:00	6	Velocidad del viento	6.4
122510	7	Sololá	713	San Lucas Tolimán	10	San Lucas Tolimán	5	Mayo	2023-07-05T00:00:00	2024-11-08T11:00:00	7	Dirección del viento	6.44
122511	7	Sololá	713	San Lucas Tolimán	10	San Lucas Tolimán	5	Mayo	2023-07-05T00:00:00	2024-11-08T11:00:00	1	Precipitación	0
122512	7	Sololá	713	San Lucas Tolimán	10	San Lucas Tolimán	5	Mayo	2023-07-05T00:00:00	2024-11-08T11:00:00	8	Radiación solar	979
122513	7	Sololá	713	San Lucas Tolimán	10	San Lucas Tolimán	5	Mayo	2023-07-05T00:00:00	2024-11-08T12:00:00	2	Temperatura media	25.2
122514	7	Sololá	713	San Lucas Tolimán	10	San Lucas Tolimán	5	Mayo	2023-07-05T00:00:00	2024-11-08T12:00:00	4	Temperatura máxima	26.8
122515	7	Sololá	713	San Lucas Tolimán	10	San Lucas Tolimán	5	Mayo	2023-07-05T00:00:00	2024-11-08T12:00:00	3	Temperatura mínima	25.1
122516	7	Sololá	713	San Lucas Tolimán	10	San Lucas Tolimán	5	Mayo	2023-07-05T00:00:00	2024-11-08T12:00:00	5	Humedad	55
122517	7	Sololá	713	San Lucas Tolimán	10	San Lucas Tolimán	5	Mayo	2023-07-05T00:00:00	2024-11-08T12:00:00	6	Velocidad del viento	11.3
122518	7	Sololá	713	San Lucas Tolimán	10	San Lucas Tolimán	5	Mayo	2023-07-05T00:00:00	2024-11-08T12:00:00	7	Dirección del viento	11.27
122519	7	Sololá	713	San Lucas Tolimán	10	San Lucas Tolimán	5	Mayo	2023-07-05T00:00:00	2024-11-08T12:00:00	1	Precipitación	0
122520	7	Sololá	713	San Lucas Tolimán	10	San Lucas Tolimán	5	Mayo	2023-07-05T00:00:00	2024-11-08T12:00:00	8	Radiación solar	1055
122521	7	Sololá	713	San Lucas Tolimán	10	San Lucas Tolimán	5	Mayo	2023-07-05T00:00:00	2024-11-08T13:00:00	2	Temperatura media	25.8
122522	7	Sololá	713	San Lucas Tolimán	10	San Lucas Tolimán	5	Mayo	2023-07-05T00:00:00	2024-11-08T13:00:00	4	Temperatura máxima	26.4
122523	7	Sololá	713	San Lucas Tolimán	10	San Lucas Tolimán	5	Mayo	2023-07-05T00:00:00	2024-11-08T13:00:00	3	Temperatura mínima	25.1
122524	7	Sololá	713	San Lucas Tolimán	10	San Lucas Tolimán	5	Mayo	2023-07-05T00:00:00	2024-11-08T13:00:00	5	Humedad	52
122525	7	Sololá	713	San Lucas Tolimán	10	San Lucas Tolimán	5	Mayo	2023-07-05T00:00:00	2024-11-08T13:00:00	6	Velocidad del viento	11.3
122526	7	Sololá	713	San Lucas Tolimán	10	San Lucas Tolimán	5	Mayo	2023-07-05T00:00:00	2024-11-08T13:00:00	7	Dirección del viento	11.27
122527	7	Sololá	713	San Lucas Tolimán	10	San Lucas Tolimán	5	Mayo	2023-07-05T00:00:00	2024-11-08T13:00:00	1	Precipitación	0
122528	7	Sololá	713	San Lucas Tolimán	10	San Lucas Tolimán	5	Mayo	2023-07-05T00:00:00	2024-11-08T13:00:00	8	Radiación solar	1064
122529	7	Sololá	713	San Lucas Tolimán	10	San Lucas Tolimán	5	Mayo	2023-07-05T00:00:00	2024-11-08T14:00:00	2	Temperatura media	25.8
122530	7	Sololá	713	San Lucas Tolimán	10	San Lucas Tolimán	5	Mayo	2023-07-05T00:00:00	2024-11-08T14:00:00	4	Temperatura máxima	26.2
122531	7	Sololá	713	San Lucas Tolimán	10	San Lucas Tolimán	5	Mayo	2023-07-05T00:00:00	2024-11-08T14:00:00	3	Temperatura mínima	25.3
122532	7	Sololá	713	San Lucas Tolimán	10	San Lucas Tolimán	5	Mayo	2023-07-05T00:00:00	2024-11-08T14:00:00	5	Humedad	53
122533	7	Sololá	713	San Lucas Tolimán	10	San Lucas Tolimán	5	Mayo	2023-07-05T00:00:00	2024-11-08T14:00:00	6	Velocidad del viento	12.9
122534	7	Sololá	713	San Lucas Tolimán	10	San Lucas Tolimán	5	Mayo	2023-07-05T00:00:00	2024-11-08T14:00:00	7	Dirección del viento	12.87
122535	7	Sololá	713	San Lucas Tolimán	10	San Lucas Tolimán	5	Mayo	2023-07-05T00:00:00	2024-11-08T14:00:00	1	Precipitación	0
122536	7	Sololá	713	San Lucas Tolimán	10	San Lucas Tolimán	5	Mayo	2023-07-05T00:00:00	2024-11-08T14:00:00	8	Radiación solar	1008
122537	7	Sololá	713	San Lucas Tolimán	10	San Lucas Tolimán	5	Mayo	2023-07-05T00:00:00	2024-11-08T15:00:00	2	Temperatura media	24.9
122538	7	Sololá	713	San Lucas Tolimán	10	San Lucas Tolimán	5	Mayo	2023-07-05T00:00:00	2024-11-08T15:00:00	4	Temperatura máxima	26.1
122539	7	Sololá	713	San Lucas Tolimán	10	San Lucas Tolimán	5	Mayo	2023-07-05T00:00:00	2024-11-08T15:00:00	3	Temperatura mínima	24.9
122540	7	Sololá	713	San Lucas Tolimán	10	San Lucas Tolimán	5	Mayo	2023-07-05T00:00:00	2024-11-08T15:00:00	5	Humedad	54
122541	7	Sololá	713	San Lucas Tolimán	10	San Lucas Tolimán	5	Mayo	2023-07-05T00:00:00	2024-11-08T15:00:00	6	Velocidad del viento	14.5
122542	7	Sololá	713	San Lucas Tolimán	10	San Lucas Tolimán	5	Mayo	2023-07-05T00:00:00	2024-11-08T15:00:00	7	Dirección del viento	14.48
122543	7	Sololá	713	San Lucas Tolimán	10	San Lucas Tolimán	5	Mayo	2023-07-05T00:00:00	2024-11-08T15:00:00	1	Precipitación	0
122544	7	Sololá	713	San Lucas Tolimán	10	San Lucas Tolimán	5	Mayo	2023-07-05T00:00:00	2024-11-08T15:00:00	8	Radiación solar	865
122545	7	Sololá	713	San Lucas Tolimán	10	San Lucas Tolimán	5	Mayo	2023-07-05T00:00:00	2024-11-08T16:00:00	2	Temperatura media	24.9
122546	7	Sololá	713	San Lucas Tolimán	10	San Lucas Tolimán	5	Mayo	2023-07-05T00:00:00	2024-11-08T16:00:00	4	Temperatura máxima	25.4
122547	7	Sololá	713	San Lucas Tolimán	10	San Lucas Tolimán	5	Mayo	2023-07-05T00:00:00	2024-11-08T16:00:00	3	Temperatura mínima	24.9
122548	7	Sololá	713	San Lucas Tolimán	10	San Lucas Tolimán	5	Mayo	2023-07-05T00:00:00	2024-11-08T16:00:00	5	Humedad	55
122549	7	Sololá	713	San Lucas Tolimán	10	San Lucas Tolimán	5	Mayo	2023-07-05T00:00:00	2024-11-08T16:00:00	6	Velocidad del viento	14.5
122550	7	Sololá	713	San Lucas Tolimán	10	San Lucas Tolimán	5	Mayo	2023-07-05T00:00:00	2024-11-08T16:00:00	7	Dirección del viento	14.48
122551	7	Sololá	713	San Lucas Tolimán	10	San Lucas Tolimán	5	Mayo	2023-07-05T00:00:00	2024-11-08T16:00:00	1	Precipitación	0
122552	7	Sololá	713	San Lucas Tolimán	10	San Lucas Tolimán	5	Mayo	2023-07-05T00:00:00	2024-11-08T16:00:00	8	Radiación solar	650
122553	7	Sololá	713	San Lucas Tolimán	10	San Lucas Tolimán	5	Mayo	2023-07-05T00:00:00	2024-11-08T17:00:00	2	Temperatura media	23.8
122554	7	Sololá	713	San Lucas Tolimán	10	San Lucas Tolimán	5	Mayo	2023-07-05T00:00:00	2024-11-08T17:00:00	4	Temperatura máxima	24.9
122555	7	Sololá	713	San Lucas Tolimán	10	San Lucas Tolimán	5	Mayo	2023-07-05T00:00:00	2024-11-08T17:00:00	3	Temperatura mínima	23.8
122556	7	Sololá	713	San Lucas Tolimán	10	San Lucas Tolimán	5	Mayo	2023-07-05T00:00:00	2024-11-08T17:00:00	5	Humedad	60
122557	7	Sololá	713	San Lucas Tolimán	10	San Lucas Tolimán	5	Mayo	2023-07-05T00:00:00	2024-11-08T17:00:00	6	Velocidad del viento	12.9
122558	7	Sololá	713	San Lucas Tolimán	10	San Lucas Tolimán	5	Mayo	2023-07-05T00:00:00	2024-11-08T17:00:00	7	Dirección del viento	12.87
122559	7	Sololá	713	San Lucas Tolimán	10	San Lucas Tolimán	5	Mayo	2023-07-05T00:00:00	2024-11-08T17:00:00	1	Precipitación	0
122560	7	Sololá	713	San Lucas Tolimán	10	San Lucas Tolimán	5	Mayo	2023-07-05T00:00:00	2024-11-08T17:00:00	8	Radiación solar	385
122561	7	Sololá	713	San Lucas Tolimán	10	San Lucas Tolimán	5	Mayo	2023-07-05T00:00:00	2024-11-08T18:00:00	2	Temperatura media	22.1
122562	7	Sololá	713	San Lucas Tolimán	10	San Lucas Tolimán	5	Mayo	2023-07-05T00:00:00	2024-11-08T18:00:00	4	Temperatura máxima	23.8
122563	7	Sololá	713	San Lucas Tolimán	10	San Lucas Tolimán	5	Mayo	2023-07-05T00:00:00	2024-11-08T18:00:00	3	Temperatura mínima	22.1
122564	7	Sololá	713	San Lucas Tolimán	10	San Lucas Tolimán	5	Mayo	2023-07-05T00:00:00	2024-11-08T18:00:00	5	Humedad	61
122565	7	Sololá	713	San Lucas Tolimán	10	San Lucas Tolimán	5	Mayo	2023-07-05T00:00:00	2024-11-08T18:00:00	6	Velocidad del viento	8
122566	7	Sololá	713	San Lucas Tolimán	10	San Lucas Tolimán	5	Mayo	2023-07-05T00:00:00	2024-11-08T18:00:00	7	Dirección del viento	8.05
122567	7	Sololá	713	San Lucas Tolimán	10	San Lucas Tolimán	5	Mayo	2023-07-05T00:00:00	2024-11-08T18:00:00	1	Precipitación	0
122568	7	Sololá	713	San Lucas Tolimán	10	San Lucas Tolimán	5	Mayo	2023-07-05T00:00:00	2024-11-08T18:00:00	8	Radiación solar	112
122569	7	Sololá	713	San Lucas Tolimán	10	San Lucas Tolimán	5	Mayo	2023-07-05T00:00:00	2024-11-08T19:00:00	2	Temperatura media	20.9
122570	7	Sololá	713	San Lucas Tolimán	10	San Lucas Tolimán	5	Mayo	2023-07-05T00:00:00	2024-11-08T19:00:00	4	Temperatura máxima	22.1
122571	7	Sololá	713	San Lucas Tolimán	10	San Lucas Tolimán	5	Mayo	2023-07-05T00:00:00	2024-11-08T19:00:00	3	Temperatura mínima	20.9
122572	7	Sololá	713	San Lucas Tolimán	10	San Lucas Tolimán	5	Mayo	2023-07-05T00:00:00	2024-11-08T19:00:00	5	Humedad	61
122573	7	Sololá	713	San Lucas Tolimán	10	San Lucas Tolimán	5	Mayo	2023-07-05T00:00:00	2024-11-08T19:00:00	6	Velocidad del viento	8
122574	7	Sololá	713	San Lucas Tolimán	10	San Lucas Tolimán	5	Mayo	2023-07-05T00:00:00	2024-11-08T19:00:00	7	Dirección del viento	8.05
122575	7	Sololá	713	San Lucas Tolimán	10	San Lucas Tolimán	5	Mayo	2023-07-05T00:00:00	2024-11-08T19:00:00	1	Precipitación	0
122576	7	Sololá	713	San Lucas Tolimán	10	San Lucas Tolimán	5	Mayo	2023-07-05T00:00:00	2024-11-08T19:00:00	8	Radiación solar	0
122577	7	Sololá	713	San Lucas Tolimán	10	San Lucas Tolimán	5	Mayo	2023-07-05T00:00:00	2024-11-08T20:00:00	2	Temperatura media	19.9
122578	7	Sololá	713	San Lucas Tolimán	10	San Lucas Tolimán	5	Mayo	2023-07-05T00:00:00	2024-11-08T20:00:00	4	Temperatura máxima	20.9
122579	7	Sololá	713	San Lucas Tolimán	10	San Lucas Tolimán	5	Mayo	2023-07-05T00:00:00	2024-11-08T20:00:00	3	Temperatura mínima	19.9
122580	7	Sololá	713	San Lucas Tolimán	10	San Lucas Tolimán	5	Mayo	2023-07-05T00:00:00	2024-11-08T20:00:00	5	Humedad	62
122581	7	Sololá	713	San Lucas Tolimán	10	San Lucas Tolimán	5	Mayo	2023-07-05T00:00:00	2024-11-08T20:00:00	6	Velocidad del viento	8
122582	7	Sololá	713	San Lucas Tolimán	10	San Lucas Tolimán	5	Mayo	2023-07-05T00:00:00	2024-11-08T20:00:00	7	Dirección del viento	8.05
122583	7	Sololá	713	San Lucas Tolimán	10	San Lucas Tolimán	5	Mayo	2023-07-05T00:00:00	2024-11-08T20:00:00	1	Precipitación	0
122584	7	Sololá	713	San Lucas Tolimán	10	San Lucas Tolimán	5	Mayo	2023-07-05T00:00:00	2024-11-08T20:00:00	8	Radiación solar	0
122585	7	Sololá	713	San Lucas Tolimán	10	San Lucas Tolimán	5	Mayo	2023-07-05T00:00:00	2024-11-08T21:00:00	2	Temperatura media	19
122586	7	Sololá	713	San Lucas Tolimán	10	San Lucas Tolimán	5	Mayo	2023-07-05T00:00:00	2024-11-08T21:00:00	4	Temperatura máxima	19.9
122587	7	Sololá	713	San Lucas Tolimán	10	San Lucas Tolimán	5	Mayo	2023-07-05T00:00:00	2024-11-08T21:00:00	3	Temperatura mínima	19
122588	7	Sololá	713	San Lucas Tolimán	10	San Lucas Tolimán	5	Mayo	2023-07-05T00:00:00	2024-11-08T21:00:00	5	Humedad	61
122589	7	Sololá	713	San Lucas Tolimán	10	San Lucas Tolimán	5	Mayo	2023-07-05T00:00:00	2024-11-08T21:00:00	6	Velocidad del viento	4.8
122590	7	Sololá	713	San Lucas Tolimán	10	San Lucas Tolimán	5	Mayo	2023-07-05T00:00:00	2024-11-08T21:00:00	7	Dirección del viento	4.83
122591	7	Sololá	713	San Lucas Tolimán	10	San Lucas Tolimán	5	Mayo	2023-07-05T00:00:00	2024-11-08T21:00:00	1	Precipitación	0
122592	7	Sololá	713	San Lucas Tolimán	10	San Lucas Tolimán	5	Mayo	2023-07-05T00:00:00	2024-11-08T21:00:00	8	Radiación solar	0
122593	7	Sololá	713	San Lucas Tolimán	10	San Lucas Tolimán	5	Mayo	2023-07-05T00:00:00	2024-11-08T22:00:00	2	Temperatura media	19.1
122594	7	Sololá	713	San Lucas Tolimán	10	San Lucas Tolimán	5	Mayo	2023-07-05T00:00:00	2024-11-08T22:00:00	4	Temperatura máxima	20.6
122595	7	Sololá	713	San Lucas Tolimán	10	San Lucas Tolimán	5	Mayo	2023-07-05T00:00:00	2024-11-08T22:00:00	3	Temperatura mínima	18.9
122596	7	Sololá	713	San Lucas Tolimán	10	San Lucas Tolimán	5	Mayo	2023-07-05T00:00:00	2024-11-08T22:00:00	5	Humedad	60
122597	7	Sololá	713	San Lucas Tolimán	10	San Lucas Tolimán	5	Mayo	2023-07-05T00:00:00	2024-11-08T22:00:00	6	Velocidad del viento	3.2
122598	7	Sololá	713	San Lucas Tolimán	10	San Lucas Tolimán	5	Mayo	2023-07-05T00:00:00	2024-11-08T22:00:00	7	Dirección del viento	3.22
122599	7	Sololá	713	San Lucas Tolimán	10	San Lucas Tolimán	5	Mayo	2023-07-05T00:00:00	2024-11-08T22:00:00	1	Precipitación	0
122600	7	Sololá	713	San Lucas Tolimán	10	San Lucas Tolimán	5	Mayo	2023-07-05T00:00:00	2024-11-08T22:00:00	8	Radiación solar	0
122601	7	Sololá	713	San Lucas Tolimán	10	San Lucas Tolimán	5	Mayo	2023-07-05T00:00:00	2024-11-08T23:00:00	2	Temperatura media	18.3
122602	7	Sololá	713	San Lucas Tolimán	10	San Lucas Tolimán	5	Mayo	2023-07-05T00:00:00	2024-11-08T23:00:00	4	Temperatura máxima	19.1
122603	7	Sololá	713	San Lucas Tolimán	10	San Lucas Tolimán	5	Mayo	2023-07-05T00:00:00	2024-11-08T23:00:00	3	Temperatura mínima	18.3
122604	7	Sololá	713	San Lucas Tolimán	10	San Lucas Tolimán	5	Mayo	2023-07-05T00:00:00	2024-11-08T23:00:00	5	Humedad	60
122605	7	Sololá	713	San Lucas Tolimán	10	San Lucas Tolimán	5	Mayo	2023-07-05T00:00:00	2024-11-08T23:00:00	6	Velocidad del viento	1.6
122606	7	Sololá	713	San Lucas Tolimán	10	San Lucas Tolimán	5	Mayo	2023-07-05T00:00:00	2024-11-08T23:00:00	7	Dirección del viento	1.61
122607	7	Sololá	713	San Lucas Tolimán	10	San Lucas Tolimán	5	Mayo	2023-07-05T00:00:00	2024-11-08T23:00:00	1	Precipitación	0
122608	7	Sololá	713	San Lucas Tolimán	10	San Lucas Tolimán	5	Mayo	2023-07-05T00:00:00	2024-11-08T23:00:00	8	Radiación solar	0
122609	7	Sololá	713	San Lucas Tolimán	10	San Lucas Tolimán	5	Mayo	2023-08-05T00:00:00	2024-11-08T00:00:00	2	Temperatura media	19.1
122610	7	Sololá	713	San Lucas Tolimán	10	San Lucas Tolimán	5	Mayo	2023-08-05T00:00:00	2024-11-08T00:00:00	4	Temperatura máxima	19.1
122611	7	Sololá	713	San Lucas Tolimán	10	San Lucas Tolimán	5	Mayo	2023-08-05T00:00:00	2024-11-08T00:00:00	3	Temperatura mínima	17.3
122612	7	Sololá	713	San Lucas Tolimán	10	San Lucas Tolimán	5	Mayo	2023-08-05T00:00:00	2024-11-08T00:00:00	5	Humedad	56
122613	7	Sololá	713	San Lucas Tolimán	10	San Lucas Tolimán	5	Mayo	2023-08-05T00:00:00	2024-11-08T00:00:00	6	Velocidad del viento	3.2
122614	7	Sololá	713	San Lucas Tolimán	10	San Lucas Tolimán	5	Mayo	2023-08-05T00:00:00	2024-11-08T00:00:00	7	Dirección del viento	3.22
122615	7	Sololá	713	San Lucas Tolimán	10	San Lucas Tolimán	5	Mayo	2023-08-05T00:00:00	2024-11-08T00:00:00	1	Precipitación	0
122616	7	Sololá	713	San Lucas Tolimán	10	San Lucas Tolimán	5	Mayo	2023-08-05T00:00:00	2024-11-08T00:00:00	8	Radiación solar	0
122617	7	Sololá	713	San Lucas Tolimán	10	San Lucas Tolimán	5	Mayo	2023-08-05T00:00:00	2024-11-08T01:00:00	2	Temperatura media	17.8
122618	7	Sololá	713	San Lucas Tolimán	10	San Lucas Tolimán	5	Mayo	2023-08-05T00:00:00	2024-11-08T01:00:00	4	Temperatura máxima	19.1
122619	7	Sololá	713	San Lucas Tolimán	10	San Lucas Tolimán	5	Mayo	2023-08-05T00:00:00	2024-11-08T01:00:00	3	Temperatura mínima	17.8
122620	7	Sololá	713	San Lucas Tolimán	10	San Lucas Tolimán	5	Mayo	2023-08-05T00:00:00	2024-11-08T01:00:00	5	Humedad	59
122621	7	Sololá	713	San Lucas Tolimán	10	San Lucas Tolimán	5	Mayo	2023-08-05T00:00:00	2024-11-08T01:00:00	6	Velocidad del viento	0
122622	7	Sololá	713	San Lucas Tolimán	10	San Lucas Tolimán	5	Mayo	2023-08-05T00:00:00	2024-11-08T01:00:00	7	Dirección del viento	0
122623	7	Sololá	713	San Lucas Tolimán	10	San Lucas Tolimán	5	Mayo	2023-08-05T00:00:00	2024-11-08T01:00:00	1	Precipitación	0
122624	7	Sololá	713	San Lucas Tolimán	10	San Lucas Tolimán	5	Mayo	2023-08-05T00:00:00	2024-11-08T01:00:00	8	Radiación solar	0
122625	7	Sololá	713	San Lucas Tolimán	10	San Lucas Tolimán	5	Mayo	2023-08-05T00:00:00	2024-11-08T02:00:00	2	Temperatura media	16.3
122626	7	Sololá	713	San Lucas Tolimán	10	San Lucas Tolimán	5	Mayo	2023-08-05T00:00:00	2024-11-08T02:00:00	4	Temperatura máxima	17.7
122627	7	Sololá	713	San Lucas Tolimán	10	San Lucas Tolimán	5	Mayo	2023-08-05T00:00:00	2024-11-08T02:00:00	3	Temperatura mínima	16.3
122628	7	Sololá	713	San Lucas Tolimán	10	San Lucas Tolimán	5	Mayo	2023-08-05T00:00:00	2024-11-08T02:00:00	5	Humedad	62
122629	7	Sololá	713	San Lucas Tolimán	10	San Lucas Tolimán	5	Mayo	2023-08-05T00:00:00	2024-11-08T02:00:00	6	Velocidad del viento	1.6
122630	7	Sololá	713	San Lucas Tolimán	10	San Lucas Tolimán	5	Mayo	2023-08-05T00:00:00	2024-11-08T02:00:00	7	Dirección del viento	1.61
122631	7	Sololá	713	San Lucas Tolimán	10	San Lucas Tolimán	5	Mayo	2023-08-05T00:00:00	2024-11-08T02:00:00	1	Precipitación	0
122632	7	Sololá	713	San Lucas Tolimán	10	San Lucas Tolimán	5	Mayo	2023-08-05T00:00:00	2024-11-08T02:00:00	8	Radiación solar	0
122633	7	Sololá	713	San Lucas Tolimán	10	San Lucas Tolimán	5	Mayo	2023-08-05T00:00:00	2024-11-08T03:00:00	2	Temperatura media	16.9
122634	7	Sololá	713	San Lucas Tolimán	10	San Lucas Tolimán	5	Mayo	2023-08-05T00:00:00	2024-11-08T03:00:00	4	Temperatura máxima	16.9
122635	7	Sololá	713	San Lucas Tolimán	10	San Lucas Tolimán	5	Mayo	2023-08-05T00:00:00	2024-11-08T03:00:00	3	Temperatura mínima	15.9
122636	7	Sololá	713	San Lucas Tolimán	10	San Lucas Tolimán	5	Mayo	2023-08-05T00:00:00	2024-11-08T03:00:00	5	Humedad	59
122637	7	Sololá	713	San Lucas Tolimán	10	San Lucas Tolimán	5	Mayo	2023-08-05T00:00:00	2024-11-08T03:00:00	6	Velocidad del viento	0
122638	7	Sololá	713	San Lucas Tolimán	10	San Lucas Tolimán	5	Mayo	2023-08-05T00:00:00	2024-11-08T03:00:00	7	Dirección del viento	0
122639	7	Sololá	713	San Lucas Tolimán	10	San Lucas Tolimán	5	Mayo	2023-08-05T00:00:00	2024-11-08T03:00:00	1	Precipitación	0
122640	7	Sololá	713	San Lucas Tolimán	10	San Lucas Tolimán	5	Mayo	2023-08-05T00:00:00	2024-11-08T03:00:00	8	Radiación solar	0
122641	7	Sololá	713	San Lucas Tolimán	10	San Lucas Tolimán	5	Mayo	2023-08-05T00:00:00	2024-11-08T04:00:00	2	Temperatura media	16.9
122642	7	Sololá	713	San Lucas Tolimán	10	San Lucas Tolimán	5	Mayo	2023-08-05T00:00:00	2024-11-08T04:00:00	4	Temperatura máxima	17.3
122643	7	Sololá	713	San Lucas Tolimán	10	San Lucas Tolimán	5	Mayo	2023-08-05T00:00:00	2024-11-08T04:00:00	3	Temperatura mínima	16.8
122644	7	Sololá	713	San Lucas Tolimán	10	San Lucas Tolimán	5	Mayo	2023-08-05T00:00:00	2024-11-08T04:00:00	5	Humedad	60
122645	7	Sololá	713	San Lucas Tolimán	10	San Lucas Tolimán	5	Mayo	2023-08-05T00:00:00	2024-11-08T04:00:00	6	Velocidad del viento	0
122646	7	Sololá	713	San Lucas Tolimán	10	San Lucas Tolimán	5	Mayo	2023-08-05T00:00:00	2024-11-08T04:00:00	7	Dirección del viento	0
122647	7	Sololá	713	San Lucas Tolimán	10	San Lucas Tolimán	5	Mayo	2023-08-05T00:00:00	2024-11-08T04:00:00	1	Precipitación	0
122648	7	Sololá	713	San Lucas Tolimán	10	San Lucas Tolimán	5	Mayo	2023-08-05T00:00:00	2024-11-08T04:00:00	8	Radiación solar	0
122649	7	Sololá	713	San Lucas Tolimán	10	San Lucas Tolimán	5	Mayo	2023-08-05T00:00:00	2024-11-08T05:00:00	2	Temperatura media	16.8
122650	7	Sololá	713	San Lucas Tolimán	10	San Lucas Tolimán	5	Mayo	2023-08-05T00:00:00	2024-11-08T05:00:00	4	Temperatura máxima	17.2
122651	7	Sololá	713	San Lucas Tolimán	10	San Lucas Tolimán	5	Mayo	2023-08-05T00:00:00	2024-11-08T05:00:00	3	Temperatura mínima	16.7
122652	7	Sololá	713	San Lucas Tolimán	10	San Lucas Tolimán	5	Mayo	2023-08-05T00:00:00	2024-11-08T05:00:00	5	Humedad	56
122653	7	Sololá	713	San Lucas Tolimán	10	San Lucas Tolimán	5	Mayo	2023-08-05T00:00:00	2024-11-08T05:00:00	6	Velocidad del viento	1.6
122654	7	Sololá	713	San Lucas Tolimán	10	San Lucas Tolimán	5	Mayo	2023-08-05T00:00:00	2024-11-08T05:00:00	7	Dirección del viento	1.61
122655	7	Sololá	713	San Lucas Tolimán	10	San Lucas Tolimán	5	Mayo	2023-08-05T00:00:00	2024-11-08T05:00:00	1	Precipitación	0
122656	7	Sololá	713	San Lucas Tolimán	10	San Lucas Tolimán	5	Mayo	2023-08-05T00:00:00	2024-11-08T05:00:00	8	Radiación solar	0
122657	7	Sololá	713	San Lucas Tolimán	10	San Lucas Tolimán	5	Mayo	2023-08-05T00:00:00	2024-11-08T06:00:00	2	Temperatura media	17
122658	7	Sololá	713	San Lucas Tolimán	10	San Lucas Tolimán	5	Mayo	2023-08-05T00:00:00	2024-11-08T06:00:00	4	Temperatura máxima	17.1
122659	7	Sololá	713	San Lucas Tolimán	10	San Lucas Tolimán	5	Mayo	2023-08-05T00:00:00	2024-11-08T06:00:00	3	Temperatura mínima	16.4
122660	7	Sololá	713	San Lucas Tolimán	10	San Lucas Tolimán	5	Mayo	2023-08-05T00:00:00	2024-11-08T06:00:00	5	Humedad	56
122661	7	Sololá	713	San Lucas Tolimán	10	San Lucas Tolimán	5	Mayo	2023-08-05T00:00:00	2024-11-08T06:00:00	6	Velocidad del viento	1.6
122662	7	Sololá	713	San Lucas Tolimán	10	San Lucas Tolimán	5	Mayo	2023-08-05T00:00:00	2024-11-08T06:00:00	7	Dirección del viento	1.61
122663	7	Sololá	713	San Lucas Tolimán	10	San Lucas Tolimán	5	Mayo	2023-08-05T00:00:00	2024-11-08T06:00:00	1	Precipitación	0
122664	7	Sololá	713	San Lucas Tolimán	10	San Lucas Tolimán	5	Mayo	2023-08-05T00:00:00	2024-11-08T06:00:00	8	Radiación solar	8
122665	7	Sololá	713	San Lucas Tolimán	10	San Lucas Tolimán	5	Mayo	2023-08-05T00:00:00	2024-11-08T07:00:00	2	Temperatura media	18.2
122666	7	Sololá	713	San Lucas Tolimán	10	San Lucas Tolimán	5	Mayo	2023-08-05T00:00:00	2024-11-08T07:00:00	4	Temperatura máxima	18.2
122667	7	Sololá	713	San Lucas Tolimán	10	San Lucas Tolimán	5	Mayo	2023-08-05T00:00:00	2024-11-08T07:00:00	3	Temperatura mínima	16.9
122668	7	Sololá	713	San Lucas Tolimán	10	San Lucas Tolimán	5	Mayo	2023-08-05T00:00:00	2024-11-08T07:00:00	5	Humedad	55
122669	7	Sololá	713	San Lucas Tolimán	10	San Lucas Tolimán	5	Mayo	2023-08-05T00:00:00	2024-11-08T07:00:00	6	Velocidad del viento	4.8
122670	7	Sololá	713	San Lucas Tolimán	10	San Lucas Tolimán	5	Mayo	2023-08-05T00:00:00	2024-11-08T07:00:00	7	Dirección del viento	4.83
122671	7	Sololá	713	San Lucas Tolimán	10	San Lucas Tolimán	5	Mayo	2023-08-05T00:00:00	2024-11-08T07:00:00	1	Precipitación	0
122672	7	Sololá	713	San Lucas Tolimán	10	San Lucas Tolimán	5	Mayo	2023-08-05T00:00:00	2024-11-08T07:00:00	8	Radiación solar	79
122673	7	Sololá	713	San Lucas Tolimán	10	San Lucas Tolimán	5	Mayo	2023-08-05T00:00:00	2024-11-08T08:00:00	2	Temperatura media	20.7
122674	7	Sololá	713	San Lucas Tolimán	10	San Lucas Tolimán	5	Mayo	2023-08-05T00:00:00	2024-11-08T08:00:00	4	Temperatura máxima	20.7
122675	7	Sololá	713	San Lucas Tolimán	10	San Lucas Tolimán	5	Mayo	2023-08-05T00:00:00	2024-11-08T08:00:00	3	Temperatura mínima	18.2
122676	7	Sololá	713	San Lucas Tolimán	10	San Lucas Tolimán	5	Mayo	2023-08-05T00:00:00	2024-11-08T08:00:00	5	Humedad	48
122677	7	Sololá	713	San Lucas Tolimán	10	San Lucas Tolimán	5	Mayo	2023-08-05T00:00:00	2024-11-08T08:00:00	6	Velocidad del viento	4.8
122678	7	Sololá	713	San Lucas Tolimán	10	San Lucas Tolimán	5	Mayo	2023-08-05T00:00:00	2024-11-08T08:00:00	7	Dirección del viento	4.83
122679	7	Sololá	713	San Lucas Tolimán	10	San Lucas Tolimán	5	Mayo	2023-08-05T00:00:00	2024-11-08T08:00:00	1	Precipitación	0
122680	7	Sololá	713	San Lucas Tolimán	10	San Lucas Tolimán	5	Mayo	2023-08-05T00:00:00	2024-11-08T08:00:00	8	Radiación solar	352
122681	7	Sololá	713	San Lucas Tolimán	10	San Lucas Tolimán	5	Mayo	2023-08-05T00:00:00	2024-11-08T09:00:00	2	Temperatura media	22.2
122682	7	Sololá	713	San Lucas Tolimán	10	San Lucas Tolimán	5	Mayo	2023-08-05T00:00:00	2024-11-08T09:00:00	4	Temperatura máxima	22.2
122683	7	Sololá	713	San Lucas Tolimán	10	San Lucas Tolimán	5	Mayo	2023-08-05T00:00:00	2024-11-08T09:00:00	3	Temperatura mínima	20.6
122684	7	Sololá	713	San Lucas Tolimán	10	San Lucas Tolimán	5	Mayo	2023-08-05T00:00:00	2024-11-08T09:00:00	5	Humedad	41
122685	7	Sololá	713	San Lucas Tolimán	10	San Lucas Tolimán	5	Mayo	2023-08-05T00:00:00	2024-11-08T09:00:00	6	Velocidad del viento	4.8
122686	7	Sololá	713	San Lucas Tolimán	10	San Lucas Tolimán	5	Mayo	2023-08-05T00:00:00	2024-11-08T09:00:00	7	Dirección del viento	4.83
122687	7	Sololá	713	San Lucas Tolimán	10	San Lucas Tolimán	5	Mayo	2023-08-05T00:00:00	2024-11-08T09:00:00	1	Precipitación	0
122688	7	Sololá	713	San Lucas Tolimán	10	San Lucas Tolimán	5	Mayo	2023-08-05T00:00:00	2024-11-08T09:00:00	8	Radiación solar	574
122689	7	Sololá	713	San Lucas Tolimán	10	San Lucas Tolimán	5	Mayo	2023-08-05T00:00:00	2024-11-08T10:00:00	2	Temperatura media	25.2
122690	7	Sololá	713	San Lucas Tolimán	10	San Lucas Tolimán	5	Mayo	2023-08-05T00:00:00	2024-11-08T10:00:00	4	Temperatura máxima	25.3
122691	7	Sololá	713	San Lucas Tolimán	10	San Lucas Tolimán	5	Mayo	2023-08-05T00:00:00	2024-11-08T10:00:00	3	Temperatura mínima	22.2
122692	7	Sololá	713	San Lucas Tolimán	10	San Lucas Tolimán	5	Mayo	2023-08-05T00:00:00	2024-11-08T10:00:00	5	Humedad	40
122693	7	Sololá	713	San Lucas Tolimán	10	San Lucas Tolimán	5	Mayo	2023-08-05T00:00:00	2024-11-08T10:00:00	6	Velocidad del viento	4.8
122694	7	Sololá	713	San Lucas Tolimán	10	San Lucas Tolimán	5	Mayo	2023-08-05T00:00:00	2024-11-08T10:00:00	7	Dirección del viento	4.83
122695	7	Sololá	713	San Lucas Tolimán	10	San Lucas Tolimán	5	Mayo	2023-08-05T00:00:00	2024-11-08T10:00:00	1	Precipitación	0
122696	7	Sololá	713	San Lucas Tolimán	10	San Lucas Tolimán	5	Mayo	2023-08-05T00:00:00	2024-11-08T10:00:00	8	Radiación solar	759
122697	7	Sololá	713	San Lucas Tolimán	10	San Lucas Tolimán	5	Mayo	2023-08-05T00:00:00	2024-11-08T11:00:00	2	Temperatura media	24.7
122698	7	Sololá	713	San Lucas Tolimán	10	San Lucas Tolimán	5	Mayo	2023-08-05T00:00:00	2024-11-08T11:00:00	4	Temperatura máxima	25.6
122699	7	Sololá	713	San Lucas Tolimán	10	San Lucas Tolimán	5	Mayo	2023-08-05T00:00:00	2024-11-08T11:00:00	3	Temperatura mínima	24.7
122700	7	Sololá	713	San Lucas Tolimán	10	San Lucas Tolimán	5	Mayo	2023-08-05T00:00:00	2024-11-08T11:00:00	5	Humedad	46
122701	7	Sololá	713	San Lucas Tolimán	10	San Lucas Tolimán	5	Mayo	2023-08-05T00:00:00	2024-11-08T11:00:00	6	Velocidad del viento	8
122702	7	Sololá	713	San Lucas Tolimán	10	San Lucas Tolimán	5	Mayo	2023-08-05T00:00:00	2024-11-08T11:00:00	7	Dirección del viento	8.05
122703	7	Sololá	713	San Lucas Tolimán	10	San Lucas Tolimán	5	Mayo	2023-08-05T00:00:00	2024-11-08T11:00:00	1	Precipitación	0
122704	7	Sololá	713	San Lucas Tolimán	10	San Lucas Tolimán	5	Mayo	2023-08-05T00:00:00	2024-11-08T11:00:00	8	Radiación solar	950
122705	7	Sololá	713	San Lucas Tolimán	10	San Lucas Tolimán	5	Mayo	2023-08-05T00:00:00	2024-11-08T12:00:00	2	Temperatura media	25.3
122706	7	Sololá	713	San Lucas Tolimán	10	San Lucas Tolimán	5	Mayo	2023-08-05T00:00:00	2024-11-08T12:00:00	4	Temperatura máxima	25.3
122707	7	Sololá	713	San Lucas Tolimán	10	San Lucas Tolimán	5	Mayo	2023-08-05T00:00:00	2024-11-08T12:00:00	3	Temperatura mínima	24.7
122708	7	Sololá	713	San Lucas Tolimán	10	San Lucas Tolimán	5	Mayo	2023-08-05T00:00:00	2024-11-08T12:00:00	5	Humedad	50
122709	7	Sololá	713	San Lucas Tolimán	10	San Lucas Tolimán	5	Mayo	2023-08-05T00:00:00	2024-11-08T12:00:00	6	Velocidad del viento	9.7
122710	7	Sololá	713	San Lucas Tolimán	10	San Lucas Tolimán	5	Mayo	2023-08-05T00:00:00	2024-11-08T12:00:00	7	Dirección del viento	9.66
122711	7	Sololá	713	San Lucas Tolimán	10	San Lucas Tolimán	5	Mayo	2023-08-05T00:00:00	2024-11-08T12:00:00	1	Precipitación	0
122712	7	Sololá	713	San Lucas Tolimán	10	San Lucas Tolimán	5	Mayo	2023-08-05T00:00:00	2024-11-08T12:00:00	8	Radiación solar	1030
122713	7	Sololá	713	San Lucas Tolimán	10	San Lucas Tolimán	5	Mayo	2023-08-05T00:00:00	2024-11-08T13:00:00	2	Temperatura media	24.8
122714	7	Sololá	713	San Lucas Tolimán	10	San Lucas Tolimán	5	Mayo	2023-08-05T00:00:00	2024-11-08T13:00:00	4	Temperatura máxima	25.5
122715	7	Sololá	713	San Lucas Tolimán	10	San Lucas Tolimán	5	Mayo	2023-08-05T00:00:00	2024-11-08T13:00:00	3	Temperatura mínima	24.4
122716	7	Sololá	713	San Lucas Tolimán	10	San Lucas Tolimán	5	Mayo	2023-08-05T00:00:00	2024-11-08T13:00:00	5	Humedad	55
122717	7	Sololá	713	San Lucas Tolimán	10	San Lucas Tolimán	5	Mayo	2023-08-05T00:00:00	2024-11-08T13:00:00	6	Velocidad del viento	12.9
122718	7	Sololá	713	San Lucas Tolimán	10	San Lucas Tolimán	5	Mayo	2023-08-05T00:00:00	2024-11-08T13:00:00	7	Dirección del viento	12.87
122719	7	Sololá	713	San Lucas Tolimán	10	San Lucas Tolimán	5	Mayo	2023-08-05T00:00:00	2024-11-08T13:00:00	1	Precipitación	0
122720	7	Sololá	713	San Lucas Tolimán	10	San Lucas Tolimán	5	Mayo	2023-08-05T00:00:00	2024-11-08T13:00:00	8	Radiación solar	1025
122721	7	Sololá	713	San Lucas Tolimán	10	San Lucas Tolimán	5	Mayo	2023-08-05T00:00:00	2024-11-08T14:00:00	2	Temperatura media	24.4
122722	7	Sololá	713	San Lucas Tolimán	10	San Lucas Tolimán	5	Mayo	2023-08-05T00:00:00	2024-11-08T14:00:00	4	Temperatura máxima	25.3
122723	7	Sololá	713	San Lucas Tolimán	10	San Lucas Tolimán	5	Mayo	2023-08-05T00:00:00	2024-11-08T14:00:00	3	Temperatura mínima	24.4
122724	7	Sololá	713	San Lucas Tolimán	10	San Lucas Tolimán	5	Mayo	2023-08-05T00:00:00	2024-11-08T14:00:00	5	Humedad	55
122725	7	Sololá	713	San Lucas Tolimán	10	San Lucas Tolimán	5	Mayo	2023-08-05T00:00:00	2024-11-08T14:00:00	6	Velocidad del viento	11.3
122726	7	Sololá	713	San Lucas Tolimán	10	San Lucas Tolimán	5	Mayo	2023-08-05T00:00:00	2024-11-08T14:00:00	7	Dirección del viento	11.27
122727	7	Sololá	713	San Lucas Tolimán	10	San Lucas Tolimán	5	Mayo	2023-08-05T00:00:00	2024-11-08T14:00:00	1	Precipitación	0
122728	7	Sololá	713	San Lucas Tolimán	10	San Lucas Tolimán	5	Mayo	2023-08-05T00:00:00	2024-11-08T14:00:00	8	Radiación solar	937
122729	7	Sololá	713	San Lucas Tolimán	10	San Lucas Tolimán	5	Mayo	2023-08-05T00:00:00	2024-11-08T15:00:00	2	Temperatura media	24.1
122730	7	Sololá	713	San Lucas Tolimán	10	San Lucas Tolimán	5	Mayo	2023-08-05T00:00:00	2024-11-08T15:00:00	4	Temperatura máxima	25.1
122731	7	Sololá	713	San Lucas Tolimán	10	San Lucas Tolimán	5	Mayo	2023-08-05T00:00:00	2024-11-08T15:00:00	3	Temperatura mínima	24.1
122732	7	Sololá	713	San Lucas Tolimán	10	San Lucas Tolimán	5	Mayo	2023-08-05T00:00:00	2024-11-08T15:00:00	5	Humedad	58
122733	7	Sololá	713	San Lucas Tolimán	10	San Lucas Tolimán	5	Mayo	2023-08-05T00:00:00	2024-11-08T15:00:00	6	Velocidad del viento	12.9
122734	7	Sololá	713	San Lucas Tolimán	10	San Lucas Tolimán	5	Mayo	2023-08-05T00:00:00	2024-11-08T15:00:00	7	Dirección del viento	12.87
122735	7	Sololá	713	San Lucas Tolimán	10	San Lucas Tolimán	5	Mayo	2023-08-05T00:00:00	2024-11-08T15:00:00	1	Precipitación	0
122736	7	Sololá	713	San Lucas Tolimán	10	San Lucas Tolimán	5	Mayo	2023-08-05T00:00:00	2024-11-08T15:00:00	8	Radiación solar	798
122737	7	Sololá	713	San Lucas Tolimán	10	San Lucas Tolimán	5	Mayo	2023-08-05T00:00:00	2024-11-08T16:00:00	2	Temperatura media	23.4
122738	7	Sololá	713	San Lucas Tolimán	10	San Lucas Tolimán	5	Mayo	2023-08-05T00:00:00	2024-11-08T16:00:00	4	Temperatura máxima	24.2
122739	7	Sololá	713	San Lucas Tolimán	10	San Lucas Tolimán	5	Mayo	2023-08-05T00:00:00	2024-11-08T16:00:00	3	Temperatura mínima	23.4
122740	7	Sololá	713	San Lucas Tolimán	10	San Lucas Tolimán	5	Mayo	2023-08-05T00:00:00	2024-11-08T16:00:00	5	Humedad	59
122741	7	Sololá	713	San Lucas Tolimán	10	San Lucas Tolimán	5	Mayo	2023-08-05T00:00:00	2024-11-08T16:00:00	6	Velocidad del viento	14.5
122742	7	Sololá	713	San Lucas Tolimán	10	San Lucas Tolimán	5	Mayo	2023-08-05T00:00:00	2024-11-08T16:00:00	7	Dirección del viento	14.48
122743	7	Sololá	713	San Lucas Tolimán	10	San Lucas Tolimán	5	Mayo	2023-08-05T00:00:00	2024-11-08T16:00:00	1	Precipitación	0
122744	7	Sololá	713	San Lucas Tolimán	10	San Lucas Tolimán	5	Mayo	2023-08-05T00:00:00	2024-11-08T16:00:00	8	Radiación solar	557
122745	7	Sololá	713	San Lucas Tolimán	10	San Lucas Tolimán	5	Mayo	2023-08-05T00:00:00	2024-11-08T17:00:00	2	Temperatura media	22.1
122746	7	Sololá	713	San Lucas Tolimán	10	San Lucas Tolimán	5	Mayo	2023-08-05T00:00:00	2024-11-08T17:00:00	4	Temperatura máxima	23.4
122747	7	Sololá	713	San Lucas Tolimán	10	San Lucas Tolimán	5	Mayo	2023-08-05T00:00:00	2024-11-08T17:00:00	3	Temperatura mínima	22.1
122748	7	Sololá	713	San Lucas Tolimán	10	San Lucas Tolimán	5	Mayo	2023-08-05T00:00:00	2024-11-08T17:00:00	5	Humedad	61
122749	7	Sololá	713	San Lucas Tolimán	10	San Lucas Tolimán	5	Mayo	2023-08-05T00:00:00	2024-11-08T17:00:00	6	Velocidad del viento	11.3
122750	7	Sololá	713	San Lucas Tolimán	10	San Lucas Tolimán	5	Mayo	2023-08-05T00:00:00	2024-11-08T17:00:00	7	Dirección del viento	11.27
122751	7	Sololá	713	San Lucas Tolimán	10	San Lucas Tolimán	5	Mayo	2023-08-05T00:00:00	2024-11-08T17:00:00	1	Precipitación	0
122752	7	Sololá	713	San Lucas Tolimán	10	San Lucas Tolimán	5	Mayo	2023-08-05T00:00:00	2024-11-08T17:00:00	8	Radiación solar	258
122753	7	Sololá	713	San Lucas Tolimán	10	San Lucas Tolimán	5	Mayo	2023-08-05T00:00:00	2024-11-08T18:00:00	2	Temperatura media	21.4
122754	7	Sololá	713	San Lucas Tolimán	10	San Lucas Tolimán	5	Mayo	2023-08-05T00:00:00	2024-11-08T18:00:00	4	Temperatura máxima	22.2
122755	7	Sololá	713	San Lucas Tolimán	10	San Lucas Tolimán	5	Mayo	2023-08-05T00:00:00	2024-11-08T18:00:00	3	Temperatura mínima	21.4
122756	7	Sololá	713	San Lucas Tolimán	10	San Lucas Tolimán	5	Mayo	2023-08-05T00:00:00	2024-11-08T18:00:00	5	Humedad	63
122757	7	Sololá	713	San Lucas Tolimán	10	San Lucas Tolimán	5	Mayo	2023-08-05T00:00:00	2024-11-08T18:00:00	6	Velocidad del viento	6.4
122758	7	Sololá	713	San Lucas Tolimán	10	San Lucas Tolimán	5	Mayo	2023-08-05T00:00:00	2024-11-08T18:00:00	7	Dirección del viento	6.44
122759	7	Sololá	713	San Lucas Tolimán	10	San Lucas Tolimán	5	Mayo	2023-08-05T00:00:00	2024-11-08T18:00:00	1	Precipitación	0
122760	7	Sololá	713	San Lucas Tolimán	10	San Lucas Tolimán	5	Mayo	2023-08-05T00:00:00	2024-11-08T18:00:00	8	Radiación solar	35
122761	7	Sololá	713	San Lucas Tolimán	10	San Lucas Tolimán	5	Mayo	2023-08-05T00:00:00	2024-11-08T19:00:00	2	Temperatura media	20.9
122762	7	Sololá	713	San Lucas Tolimán	10	San Lucas Tolimán	5	Mayo	2023-08-05T00:00:00	2024-11-08T19:00:00	4	Temperatura máxima	21.4
122763	7	Sololá	713	San Lucas Tolimán	10	San Lucas Tolimán	5	Mayo	2023-08-05T00:00:00	2024-11-08T19:00:00	3	Temperatura mínima	20.9
122764	7	Sololá	713	San Lucas Tolimán	10	San Lucas Tolimán	5	Mayo	2023-08-05T00:00:00	2024-11-08T19:00:00	5	Humedad	61
122765	7	Sololá	713	San Lucas Tolimán	10	San Lucas Tolimán	5	Mayo	2023-08-05T00:00:00	2024-11-08T19:00:00	6	Velocidad del viento	4.8
122766	7	Sololá	713	San Lucas Tolimán	10	San Lucas Tolimán	5	Mayo	2023-08-05T00:00:00	2024-11-08T19:00:00	7	Dirección del viento	4.83
122767	7	Sololá	713	San Lucas Tolimán	10	San Lucas Tolimán	5	Mayo	2023-08-05T00:00:00	2024-11-08T19:00:00	1	Precipitación	0
122768	7	Sololá	713	San Lucas Tolimán	10	San Lucas Tolimán	5	Mayo	2023-08-05T00:00:00	2024-11-08T19:00:00	8	Radiación solar	0
122769	7	Sololá	713	San Lucas Tolimán	10	San Lucas Tolimán	5	Mayo	2023-08-05T00:00:00	2024-11-08T20:00:00	2	Temperatura media	20.2
122770	7	Sololá	713	San Lucas Tolimán	10	San Lucas Tolimán	5	Mayo	2023-08-05T00:00:00	2024-11-08T20:00:00	4	Temperatura máxima	20.9
122771	7	Sololá	713	San Lucas Tolimán	10	San Lucas Tolimán	5	Mayo	2023-08-05T00:00:00	2024-11-08T20:00:00	3	Temperatura mínima	20.2
122772	7	Sololá	713	San Lucas Tolimán	10	San Lucas Tolimán	5	Mayo	2023-08-05T00:00:00	2024-11-08T20:00:00	5	Humedad	62
122773	7	Sololá	713	San Lucas Tolimán	10	San Lucas Tolimán	5	Mayo	2023-08-05T00:00:00	2024-11-08T20:00:00	6	Velocidad del viento	4.8
122774	7	Sololá	713	San Lucas Tolimán	10	San Lucas Tolimán	5	Mayo	2023-08-05T00:00:00	2024-11-08T20:00:00	7	Dirección del viento	4.83
122775	7	Sololá	713	San Lucas Tolimán	10	San Lucas Tolimán	5	Mayo	2023-08-05T00:00:00	2024-11-08T20:00:00	1	Precipitación	0
122776	7	Sololá	713	San Lucas Tolimán	10	San Lucas Tolimán	5	Mayo	2023-08-05T00:00:00	2024-11-08T20:00:00	8	Radiación solar	0
122777	7	Sololá	713	San Lucas Tolimán	10	San Lucas Tolimán	5	Mayo	2023-08-05T00:00:00	2024-11-08T21:00:00	2	Temperatura media	20.1
122778	7	Sololá	713	San Lucas Tolimán	10	San Lucas Tolimán	5	Mayo	2023-08-05T00:00:00	2024-11-08T21:00:00	4	Temperatura máxima	20.3
122779	7	Sololá	713	San Lucas Tolimán	10	San Lucas Tolimán	5	Mayo	2023-08-05T00:00:00	2024-11-08T21:00:00	3	Temperatura mínima	19.9
122780	7	Sololá	713	San Lucas Tolimán	10	San Lucas Tolimán	5	Mayo	2023-08-05T00:00:00	2024-11-08T21:00:00	5	Humedad	56
122781	7	Sololá	713	San Lucas Tolimán	10	San Lucas Tolimán	5	Mayo	2023-08-05T00:00:00	2024-11-08T21:00:00	6	Velocidad del viento	3.2
122782	7	Sololá	713	San Lucas Tolimán	10	San Lucas Tolimán	5	Mayo	2023-08-05T00:00:00	2024-11-08T21:00:00	7	Dirección del viento	3.22
122783	7	Sololá	713	San Lucas Tolimán	10	San Lucas Tolimán	5	Mayo	2023-08-05T00:00:00	2024-11-08T21:00:00	1	Precipitación	0
122784	7	Sololá	713	San Lucas Tolimán	10	San Lucas Tolimán	5	Mayo	2023-08-05T00:00:00	2024-11-08T21:00:00	8	Radiación solar	0
122785	7	Sololá	713	San Lucas Tolimán	10	San Lucas Tolimán	5	Mayo	2023-08-05T00:00:00	2024-11-08T22:00:00	2	Temperatura media	20.9
122786	7	Sololá	713	San Lucas Tolimán	10	San Lucas Tolimán	5	Mayo	2023-08-05T00:00:00	2024-11-08T22:00:00	4	Temperatura máxima	21.7
122787	7	Sololá	713	San Lucas Tolimán	10	San Lucas Tolimán	5	Mayo	2023-08-05T00:00:00	2024-11-08T22:00:00	3	Temperatura mínima	20.1
122788	7	Sololá	713	San Lucas Tolimán	10	San Lucas Tolimán	5	Mayo	2023-08-05T00:00:00	2024-11-08T22:00:00	5	Humedad	57
122789	7	Sololá	713	San Lucas Tolimán	10	San Lucas Tolimán	5	Mayo	2023-08-05T00:00:00	2024-11-08T22:00:00	6	Velocidad del viento	1.6
122790	7	Sololá	713	San Lucas Tolimán	10	San Lucas Tolimán	5	Mayo	2023-08-05T00:00:00	2024-11-08T22:00:00	7	Dirección del viento	1.61
122791	7	Sololá	713	San Lucas Tolimán	10	San Lucas Tolimán	5	Mayo	2023-08-05T00:00:00	2024-11-08T22:00:00	1	Precipitación	0
122792	7	Sololá	713	San Lucas Tolimán	10	San Lucas Tolimán	5	Mayo	2023-08-05T00:00:00	2024-11-08T22:00:00	8	Radiación solar	0
122793	7	Sololá	713	San Lucas Tolimán	10	San Lucas Tolimán	5	Mayo	2023-08-05T00:00:00	2024-11-08T23:00:00	2	Temperatura media	21.3
122794	7	Sololá	713	San Lucas Tolimán	10	San Lucas Tolimán	5	Mayo	2023-08-05T00:00:00	2024-11-08T23:00:00	4	Temperatura máxima	21.4
122795	7	Sololá	713	San Lucas Tolimán	10	San Lucas Tolimán	5	Mayo	2023-08-05T00:00:00	2024-11-08T23:00:00	3	Temperatura mínima	19.4
122796	7	Sololá	713	San Lucas Tolimán	10	San Lucas Tolimán	5	Mayo	2023-08-05T00:00:00	2024-11-08T23:00:00	5	Humedad	53
122797	7	Sololá	713	San Lucas Tolimán	10	San Lucas Tolimán	5	Mayo	2023-08-05T00:00:00	2024-11-08T23:00:00	6	Velocidad del viento	6.4
122798	7	Sololá	713	San Lucas Tolimán	10	San Lucas Tolimán	5	Mayo	2023-08-05T00:00:00	2024-11-08T23:00:00	7	Dirección del viento	6.44
122799	7	Sololá	713	San Lucas Tolimán	10	San Lucas Tolimán	5	Mayo	2023-08-05T00:00:00	2024-11-08T23:00:00	1	Precipitación	0
122800	7	Sololá	713	San Lucas Tolimán	10	San Lucas Tolimán	5	Mayo	2023-08-05T00:00:00	2024-11-08T23:00:00	8	Radiación solar	0
122801	7	Sololá	713	San Lucas Tolimán	10	San Lucas Tolimán	5	Mayo	2023-09-05T00:00:00	2024-11-08T00:00:00	2	Temperatura media	19.9
122802	7	Sololá	713	San Lucas Tolimán	10	San Lucas Tolimán	5	Mayo	2023-09-05T00:00:00	2024-11-08T00:00:00	4	Temperatura máxima	21.4
122803	7	Sololá	713	San Lucas Tolimán	10	San Lucas Tolimán	5	Mayo	2023-09-05T00:00:00	2024-11-08T00:00:00	3	Temperatura mínima	19.9
122804	7	Sololá	713	San Lucas Tolimán	10	San Lucas Tolimán	5	Mayo	2023-09-05T00:00:00	2024-11-08T00:00:00	5	Humedad	57
122805	7	Sololá	713	San Lucas Tolimán	10	San Lucas Tolimán	5	Mayo	2023-09-05T00:00:00	2024-11-08T00:00:00	6	Velocidad del viento	4.8
122806	7	Sololá	713	San Lucas Tolimán	10	San Lucas Tolimán	5	Mayo	2023-09-05T00:00:00	2024-11-08T00:00:00	7	Dirección del viento	4.83
122807	7	Sololá	713	San Lucas Tolimán	10	San Lucas Tolimán	5	Mayo	2023-09-05T00:00:00	2024-11-08T00:00:00	1	Precipitación	0
122808	7	Sololá	713	San Lucas Tolimán	10	San Lucas Tolimán	5	Mayo	2023-09-05T00:00:00	2024-11-08T00:00:00	8	Radiación solar	0
122809	7	Sololá	713	San Lucas Tolimán	10	San Lucas Tolimán	5	Mayo	2023-09-05T00:00:00	2024-11-08T01:00:00	2	Temperatura media	19.6
122810	7	Sololá	713	San Lucas Tolimán	10	San Lucas Tolimán	5	Mayo	2023-09-05T00:00:00	2024-11-08T01:00:00	4	Temperatura máxima	19.9
122811	7	Sololá	713	San Lucas Tolimán	10	San Lucas Tolimán	5	Mayo	2023-09-05T00:00:00	2024-11-08T01:00:00	3	Temperatura mínima	19.4
122812	7	Sololá	713	San Lucas Tolimán	10	San Lucas Tolimán	5	Mayo	2023-09-05T00:00:00	2024-11-08T01:00:00	5	Humedad	55
122813	7	Sololá	713	San Lucas Tolimán	10	San Lucas Tolimán	5	Mayo	2023-09-05T00:00:00	2024-11-08T01:00:00	6	Velocidad del viento	1.6
122814	7	Sololá	713	San Lucas Tolimán	10	San Lucas Tolimán	5	Mayo	2023-09-05T00:00:00	2024-11-08T01:00:00	7	Dirección del viento	1.61
122815	7	Sololá	713	San Lucas Tolimán	10	San Lucas Tolimán	5	Mayo	2023-09-05T00:00:00	2024-11-08T01:00:00	1	Precipitación	0
122816	7	Sololá	713	San Lucas Tolimán	10	San Lucas Tolimán	5	Mayo	2023-09-05T00:00:00	2024-11-08T01:00:00	8	Radiación solar	0
122817	7	Sololá	713	San Lucas Tolimán	10	San Lucas Tolimán	5	Mayo	2023-09-05T00:00:00	2024-11-08T02:00:00	2	Temperatura media	18.1
122818	7	Sololá	713	San Lucas Tolimán	10	San Lucas Tolimán	5	Mayo	2023-09-05T00:00:00	2024-11-08T02:00:00	4	Temperatura máxima	19.6
122819	7	Sololá	713	San Lucas Tolimán	10	San Lucas Tolimán	5	Mayo	2023-09-05T00:00:00	2024-11-08T02:00:00	3	Temperatura mínima	18.1
122820	7	Sololá	713	San Lucas Tolimán	10	San Lucas Tolimán	5	Mayo	2023-09-05T00:00:00	2024-11-08T02:00:00	5	Humedad	59
122821	7	Sololá	713	San Lucas Tolimán	10	San Lucas Tolimán	5	Mayo	2023-09-05T00:00:00	2024-11-08T02:00:00	6	Velocidad del viento	1.6
122822	7	Sololá	713	San Lucas Tolimán	10	San Lucas Tolimán	5	Mayo	2023-09-05T00:00:00	2024-11-08T02:00:00	7	Dirección del viento	1.61
122823	7	Sololá	713	San Lucas Tolimán	10	San Lucas Tolimán	5	Mayo	2023-09-05T00:00:00	2024-11-08T02:00:00	1	Precipitación	0
122824	7	Sololá	713	San Lucas Tolimán	10	San Lucas Tolimán	5	Mayo	2023-09-05T00:00:00	2024-11-08T02:00:00	8	Radiación solar	0
122825	7	Sololá	713	San Lucas Tolimán	10	San Lucas Tolimán	5	Mayo	2023-09-05T00:00:00	2024-11-08T03:00:00	2	Temperatura media	16.5
122826	7	Sololá	713	San Lucas Tolimán	10	San Lucas Tolimán	5	Mayo	2023-09-05T00:00:00	2024-11-08T03:00:00	4	Temperatura máxima	18.1
122827	7	Sololá	713	San Lucas Tolimán	10	San Lucas Tolimán	5	Mayo	2023-09-05T00:00:00	2024-11-08T03:00:00	3	Temperatura mínima	16.4
122828	7	Sololá	713	San Lucas Tolimán	10	San Lucas Tolimán	5	Mayo	2023-09-05T00:00:00	2024-11-08T03:00:00	5	Humedad	61
122829	7	Sololá	713	San Lucas Tolimán	10	San Lucas Tolimán	5	Mayo	2023-09-05T00:00:00	2024-11-08T03:00:00	6	Velocidad del viento	0
122830	7	Sololá	713	San Lucas Tolimán	10	San Lucas Tolimán	5	Mayo	2023-09-05T00:00:00	2024-11-08T03:00:00	7	Dirección del viento	0
122831	7	Sololá	713	San Lucas Tolimán	10	San Lucas Tolimán	5	Mayo	2023-09-05T00:00:00	2024-11-08T03:00:00	1	Precipitación	0
122832	7	Sololá	713	San Lucas Tolimán	10	San Lucas Tolimán	5	Mayo	2023-09-05T00:00:00	2024-11-08T03:00:00	8	Radiación solar	0
122833	7	Sololá	713	San Lucas Tolimán	10	San Lucas Tolimán	5	Mayo	2023-09-05T00:00:00	2024-11-08T04:00:00	2	Temperatura media	17
122834	7	Sololá	713	San Lucas Tolimán	10	San Lucas Tolimán	5	Mayo	2023-09-05T00:00:00	2024-11-08T04:00:00	4	Temperatura máxima	17.6
122835	7	Sololá	713	San Lucas Tolimán	10	San Lucas Tolimán	5	Mayo	2023-09-05T00:00:00	2024-11-08T04:00:00	3	Temperatura mínima	16.4
122836	7	Sololá	713	San Lucas Tolimán	10	San Lucas Tolimán	5	Mayo	2023-09-05T00:00:00	2024-11-08T04:00:00	5	Humedad	59
122837	7	Sololá	713	San Lucas Tolimán	10	San Lucas Tolimán	5	Mayo	2023-09-05T00:00:00	2024-11-08T04:00:00	6	Velocidad del viento	1.6
122838	7	Sololá	713	San Lucas Tolimán	10	San Lucas Tolimán	5	Mayo	2023-09-05T00:00:00	2024-11-08T04:00:00	7	Dirección del viento	1.61
122839	7	Sololá	713	San Lucas Tolimán	10	San Lucas Tolimán	5	Mayo	2023-09-05T00:00:00	2024-11-08T04:00:00	1	Precipitación	0
122840	7	Sololá	713	San Lucas Tolimán	10	San Lucas Tolimán	5	Mayo	2023-09-05T00:00:00	2024-11-08T04:00:00	8	Radiación solar	0
122841	7	Sololá	713	San Lucas Tolimán	10	San Lucas Tolimán	5	Mayo	2023-09-05T00:00:00	2024-11-08T05:00:00	2	Temperatura media	17.1
122842	7	Sololá	713	San Lucas Tolimán	10	San Lucas Tolimán	5	Mayo	2023-09-05T00:00:00	2024-11-08T05:00:00	4	Temperatura máxima	17.4
122843	7	Sololá	713	San Lucas Tolimán	10	San Lucas Tolimán	5	Mayo	2023-09-05T00:00:00	2024-11-08T05:00:00	3	Temperatura mínima	17
122844	7	Sololá	713	San Lucas Tolimán	10	San Lucas Tolimán	5	Mayo	2023-09-05T00:00:00	2024-11-08T05:00:00	5	Humedad	59
122845	7	Sololá	713	San Lucas Tolimán	10	San Lucas Tolimán	5	Mayo	2023-09-05T00:00:00	2024-11-08T05:00:00	6	Velocidad del viento	0
122846	7	Sololá	713	San Lucas Tolimán	10	San Lucas Tolimán	5	Mayo	2023-09-05T00:00:00	2024-11-08T05:00:00	7	Dirección del viento	0
122847	7	Sololá	713	San Lucas Tolimán	10	San Lucas Tolimán	5	Mayo	2023-09-05T00:00:00	2024-11-08T05:00:00	1	Precipitación	0
122848	7	Sololá	713	San Lucas Tolimán	10	San Lucas Tolimán	5	Mayo	2023-09-05T00:00:00	2024-11-08T05:00:00	8	Radiación solar	0
122849	7	Sololá	713	San Lucas Tolimán	10	San Lucas Tolimán	5	Mayo	2023-09-05T00:00:00	2024-11-08T06:00:00	2	Temperatura media	17.4
122850	7	Sololá	713	San Lucas Tolimán	10	San Lucas Tolimán	5	Mayo	2023-09-05T00:00:00	2024-11-08T06:00:00	4	Temperatura máxima	17.7
122851	7	Sololá	713	San Lucas Tolimán	10	San Lucas Tolimán	5	Mayo	2023-09-05T00:00:00	2024-11-08T06:00:00	3	Temperatura mínima	16.8
122852	7	Sololá	713	San Lucas Tolimán	10	San Lucas Tolimán	5	Mayo	2023-09-05T00:00:00	2024-11-08T06:00:00	5	Humedad	56
122853	7	Sololá	713	San Lucas Tolimán	10	San Lucas Tolimán	5	Mayo	2023-09-05T00:00:00	2024-11-08T06:00:00	6	Velocidad del viento	3.2
122854	7	Sololá	713	San Lucas Tolimán	10	San Lucas Tolimán	5	Mayo	2023-09-05T00:00:00	2024-11-08T06:00:00	7	Dirección del viento	3.22
122855	7	Sololá	713	San Lucas Tolimán	10	San Lucas Tolimán	5	Mayo	2023-09-05T00:00:00	2024-11-08T06:00:00	1	Precipitación	0
122856	7	Sololá	713	San Lucas Tolimán	10	San Lucas Tolimán	5	Mayo	2023-09-05T00:00:00	2024-11-08T06:00:00	8	Radiación solar	5
122857	7	Sololá	713	San Lucas Tolimán	10	San Lucas Tolimán	5	Mayo	2023-09-05T00:00:00	2024-11-08T07:00:00	2	Temperatura media	19.2
122858	7	Sololá	713	San Lucas Tolimán	10	San Lucas Tolimán	5	Mayo	2023-09-05T00:00:00	2024-11-08T07:00:00	4	Temperatura máxima	19.2
122859	7	Sololá	713	San Lucas Tolimán	10	San Lucas Tolimán	5	Mayo	2023-09-05T00:00:00	2024-11-08T07:00:00	3	Temperatura mínima	17.3
122860	7	Sololá	713	San Lucas Tolimán	10	San Lucas Tolimán	5	Mayo	2023-09-05T00:00:00	2024-11-08T07:00:00	5	Humedad	50
122861	7	Sololá	713	San Lucas Tolimán	10	San Lucas Tolimán	5	Mayo	2023-09-05T00:00:00	2024-11-08T07:00:00	6	Velocidad del viento	3.2
122862	7	Sololá	713	San Lucas Tolimán	10	San Lucas Tolimán	5	Mayo	2023-09-05T00:00:00	2024-11-08T07:00:00	7	Dirección del viento	3.22
122863	7	Sololá	713	San Lucas Tolimán	10	San Lucas Tolimán	5	Mayo	2023-09-05T00:00:00	2024-11-08T07:00:00	1	Precipitación	0
122864	7	Sololá	713	San Lucas Tolimán	10	San Lucas Tolimán	5	Mayo	2023-09-05T00:00:00	2024-11-08T07:00:00	8	Radiación solar	111
122865	7	Sololá	713	San Lucas Tolimán	10	San Lucas Tolimán	5	Mayo	2023-09-05T00:00:00	2024-11-08T08:00:00	2	Temperatura media	20.7
122866	7	Sololá	713	San Lucas Tolimán	10	San Lucas Tolimán	5	Mayo	2023-09-05T00:00:00	2024-11-08T08:00:00	4	Temperatura máxima	20.7
122867	7	Sololá	713	San Lucas Tolimán	10	San Lucas Tolimán	5	Mayo	2023-09-05T00:00:00	2024-11-08T08:00:00	3	Temperatura mínima	19.2
122868	7	Sololá	713	San Lucas Tolimán	10	San Lucas Tolimán	5	Mayo	2023-09-05T00:00:00	2024-11-08T08:00:00	5	Humedad	51
122869	7	Sololá	713	San Lucas Tolimán	10	San Lucas Tolimán	5	Mayo	2023-09-05T00:00:00	2024-11-08T08:00:00	6	Velocidad del viento	3.2
122870	7	Sololá	713	San Lucas Tolimán	10	San Lucas Tolimán	5	Mayo	2023-09-05T00:00:00	2024-11-08T08:00:00	7	Dirección del viento	3.22
122871	7	Sololá	713	San Lucas Tolimán	10	San Lucas Tolimán	5	Mayo	2023-09-05T00:00:00	2024-11-08T08:00:00	1	Precipitación	0
122872	7	Sololá	713	San Lucas Tolimán	10	San Lucas Tolimán	5	Mayo	2023-09-05T00:00:00	2024-11-08T08:00:00	8	Radiación solar	298
122873	7	Sololá	713	San Lucas Tolimán	10	San Lucas Tolimán	5	Mayo	2023-09-05T00:00:00	2024-11-08T09:00:00	2	Temperatura media	21.6
122874	7	Sololá	713	San Lucas Tolimán	10	San Lucas Tolimán	5	Mayo	2023-09-05T00:00:00	2024-11-08T09:00:00	4	Temperatura máxima	21.8
122875	7	Sololá	713	San Lucas Tolimán	10	San Lucas Tolimán	5	Mayo	2023-09-05T00:00:00	2024-11-08T09:00:00	3	Temperatura mínima	20.6
122876	7	Sololá	713	San Lucas Tolimán	10	San Lucas Tolimán	5	Mayo	2023-09-05T00:00:00	2024-11-08T09:00:00	5	Humedad	44
122877	7	Sololá	713	San Lucas Tolimán	10	San Lucas Tolimán	5	Mayo	2023-09-05T00:00:00	2024-11-08T09:00:00	6	Velocidad del viento	6.4
122878	7	Sololá	713	San Lucas Tolimán	10	San Lucas Tolimán	5	Mayo	2023-09-05T00:00:00	2024-11-08T09:00:00	7	Dirección del viento	6.44
122879	7	Sololá	713	San Lucas Tolimán	10	San Lucas Tolimán	5	Mayo	2023-09-05T00:00:00	2024-11-08T09:00:00	1	Precipitación	0
122880	7	Sololá	713	San Lucas Tolimán	10	San Lucas Tolimán	5	Mayo	2023-09-05T00:00:00	2024-11-08T09:00:00	8	Radiación solar	561
122881	7	Sololá	713	San Lucas Tolimán	10	San Lucas Tolimán	5	Mayo	2023-09-05T00:00:00	2024-11-08T10:00:00	2	Temperatura media	24.6
122882	7	Sololá	713	San Lucas Tolimán	10	San Lucas Tolimán	5	Mayo	2023-09-05T00:00:00	2024-11-08T10:00:00	4	Temperatura máxima	25.1
122883	7	Sololá	713	San Lucas Tolimán	10	San Lucas Tolimán	5	Mayo	2023-09-05T00:00:00	2024-11-08T10:00:00	3	Temperatura mínima	21.6
122884	7	Sololá	713	San Lucas Tolimán	10	San Lucas Tolimán	5	Mayo	2023-09-05T00:00:00	2024-11-08T10:00:00	5	Humedad	45
122885	7	Sololá	713	San Lucas Tolimán	10	San Lucas Tolimán	5	Mayo	2023-09-05T00:00:00	2024-11-08T10:00:00	6	Velocidad del viento	4.8
122886	7	Sololá	713	San Lucas Tolimán	10	San Lucas Tolimán	5	Mayo	2023-09-05T00:00:00	2024-11-08T10:00:00	7	Dirección del viento	4.83
122887	7	Sololá	713	San Lucas Tolimán	10	San Lucas Tolimán	5	Mayo	2023-09-05T00:00:00	2024-11-08T10:00:00	1	Precipitación	0
122888	7	Sololá	713	San Lucas Tolimán	10	San Lucas Tolimán	5	Mayo	2023-09-05T00:00:00	2024-11-08T10:00:00	8	Radiación solar	773
122889	7	Sololá	713	San Lucas Tolimán	10	San Lucas Tolimán	5	Mayo	2023-09-05T00:00:00	2024-11-08T11:00:00	2	Temperatura media	24.7
122890	7	Sololá	713	San Lucas Tolimán	10	San Lucas Tolimán	5	Mayo	2023-09-05T00:00:00	2024-11-08T11:00:00	4	Temperatura máxima	25.1
122891	7	Sololá	713	San Lucas Tolimán	10	San Lucas Tolimán	5	Mayo	2023-09-05T00:00:00	2024-11-08T11:00:00	3	Temperatura mínima	24.6
122892	7	Sololá	713	San Lucas Tolimán	10	San Lucas Tolimán	5	Mayo	2023-09-05T00:00:00	2024-11-08T11:00:00	5	Humedad	49
122893	7	Sololá	713	San Lucas Tolimán	10	San Lucas Tolimán	5	Mayo	2023-09-05T00:00:00	2024-11-08T11:00:00	6	Velocidad del viento	9.7
122894	7	Sololá	713	San Lucas Tolimán	10	San Lucas Tolimán	5	Mayo	2023-09-05T00:00:00	2024-11-08T11:00:00	7	Dirección del viento	9.66
122895	7	Sololá	713	San Lucas Tolimán	10	San Lucas Tolimán	5	Mayo	2023-09-05T00:00:00	2024-11-08T11:00:00	1	Precipitación	0
122896	7	Sololá	713	San Lucas Tolimán	10	San Lucas Tolimán	5	Mayo	2023-09-05T00:00:00	2024-11-08T11:00:00	8	Radiación solar	977
122897	7	Sololá	713	San Lucas Tolimán	10	San Lucas Tolimán	5	Mayo	2023-09-05T00:00:00	2024-11-08T12:00:00	2	Temperatura media	24.4
122898	7	Sololá	713	San Lucas Tolimán	10	San Lucas Tolimán	5	Mayo	2023-09-05T00:00:00	2024-11-08T12:00:00	4	Temperatura máxima	25.3
122899	7	Sololá	713	San Lucas Tolimán	10	San Lucas Tolimán	5	Mayo	2023-09-05T00:00:00	2024-11-08T12:00:00	3	Temperatura mínima	24.2
122900	7	Sololá	713	San Lucas Tolimán	10	San Lucas Tolimán	5	Mayo	2023-09-05T00:00:00	2024-11-08T12:00:00	5	Humedad	58
122901	7	Sololá	713	San Lucas Tolimán	10	San Lucas Tolimán	5	Mayo	2023-09-05T00:00:00	2024-11-08T12:00:00	6	Velocidad del viento	9.7
122902	7	Sololá	713	San Lucas Tolimán	10	San Lucas Tolimán	5	Mayo	2023-09-05T00:00:00	2024-11-08T12:00:00	7	Dirección del viento	9.66
122903	7	Sololá	713	San Lucas Tolimán	10	San Lucas Tolimán	5	Mayo	2023-09-05T00:00:00	2024-11-08T12:00:00	1	Precipitación	0
122904	7	Sololá	713	San Lucas Tolimán	10	San Lucas Tolimán	5	Mayo	2023-09-05T00:00:00	2024-11-08T12:00:00	8	Radiación solar	1080
122905	7	Sololá	713	San Lucas Tolimán	10	San Lucas Tolimán	5	Mayo	2023-09-05T00:00:00	2024-11-08T13:00:00	2	Temperatura media	24.7
122906	7	Sololá	713	San Lucas Tolimán	10	San Lucas Tolimán	5	Mayo	2023-09-05T00:00:00	2024-11-08T13:00:00	4	Temperatura máxima	24.9
122907	7	Sololá	713	San Lucas Tolimán	10	San Lucas Tolimán	5	Mayo	2023-09-05T00:00:00	2024-11-08T13:00:00	3	Temperatura mínima	23.7
122908	7	Sololá	713	San Lucas Tolimán	10	San Lucas Tolimán	5	Mayo	2023-09-05T00:00:00	2024-11-08T13:00:00	5	Humedad	56
122909	7	Sololá	713	San Lucas Tolimán	10	San Lucas Tolimán	5	Mayo	2023-09-05T00:00:00	2024-11-08T13:00:00	6	Velocidad del viento	9.7
122910	7	Sololá	713	San Lucas Tolimán	10	San Lucas Tolimán	5	Mayo	2023-09-05T00:00:00	2024-11-08T13:00:00	7	Dirección del viento	9.66
122911	7	Sololá	713	San Lucas Tolimán	10	San Lucas Tolimán	5	Mayo	2023-09-05T00:00:00	2024-11-08T13:00:00	1	Precipitación	0
122912	7	Sololá	713	San Lucas Tolimán	10	San Lucas Tolimán	5	Mayo	2023-09-05T00:00:00	2024-11-08T13:00:00	8	Radiación solar	1068
122913	7	Sololá	713	San Lucas Tolimán	10	San Lucas Tolimán	5	Mayo	2023-09-05T00:00:00	2024-11-08T14:00:00	2	Temperatura media	24.4
122914	7	Sololá	713	San Lucas Tolimán	10	San Lucas Tolimán	5	Mayo	2023-09-05T00:00:00	2024-11-08T14:00:00	4	Temperatura máxima	25.1
122915	7	Sololá	713	San Lucas Tolimán	10	San Lucas Tolimán	5	Mayo	2023-09-05T00:00:00	2024-11-08T14:00:00	3	Temperatura mínima	23.4
122916	7	Sololá	713	San Lucas Tolimán	10	San Lucas Tolimán	5	Mayo	2023-09-05T00:00:00	2024-11-08T14:00:00	5	Humedad	56
122917	7	Sololá	713	San Lucas Tolimán	10	San Lucas Tolimán	5	Mayo	2023-09-05T00:00:00	2024-11-08T14:00:00	6	Velocidad del viento	9.7
122918	7	Sololá	713	San Lucas Tolimán	10	San Lucas Tolimán	5	Mayo	2023-09-05T00:00:00	2024-11-08T14:00:00	7	Dirección del viento	9.66
122919	7	Sololá	713	San Lucas Tolimán	10	San Lucas Tolimán	5	Mayo	2023-09-05T00:00:00	2024-11-08T14:00:00	1	Precipitación	0
122920	7	Sololá	713	San Lucas Tolimán	10	San Lucas Tolimán	5	Mayo	2023-09-05T00:00:00	2024-11-08T14:00:00	8	Radiación solar	904
122921	7	Sololá	713	San Lucas Tolimán	10	San Lucas Tolimán	5	Mayo	2023-09-05T00:00:00	2024-11-08T15:00:00	2	Temperatura media	23.8
122922	7	Sololá	713	San Lucas Tolimán	10	San Lucas Tolimán	5	Mayo	2023-09-05T00:00:00	2024-11-08T15:00:00	4	Temperatura máxima	24.6
122923	7	Sololá	713	San Lucas Tolimán	10	San Lucas Tolimán	5	Mayo	2023-09-05T00:00:00	2024-11-08T15:00:00	3	Temperatura mínima	23.4
122924	7	Sololá	713	San Lucas Tolimán	10	San Lucas Tolimán	5	Mayo	2023-09-05T00:00:00	2024-11-08T15:00:00	5	Humedad	58
122925	7	Sololá	713	San Lucas Tolimán	10	San Lucas Tolimán	5	Mayo	2023-09-05T00:00:00	2024-11-08T15:00:00	6	Velocidad del viento	11.3
122926	7	Sololá	713	San Lucas Tolimán	10	San Lucas Tolimán	5	Mayo	2023-09-05T00:00:00	2024-11-08T15:00:00	7	Dirección del viento	11.27
122927	7	Sololá	713	San Lucas Tolimán	10	San Lucas Tolimán	5	Mayo	2023-09-05T00:00:00	2024-11-08T15:00:00	1	Precipitación	0
122928	7	Sololá	713	San Lucas Tolimán	10	San Lucas Tolimán	5	Mayo	2023-09-05T00:00:00	2024-11-08T15:00:00	8	Radiación solar	761
122929	7	Sololá	713	San Lucas Tolimán	10	San Lucas Tolimán	5	Mayo	2023-09-05T00:00:00	2024-11-08T16:00:00	2	Temperatura media	21.9
122930	7	Sololá	713	San Lucas Tolimán	10	San Lucas Tolimán	5	Mayo	2023-09-05T00:00:00	2024-11-08T16:00:00	4	Temperatura máxima	24.1
122931	7	Sololá	713	San Lucas Tolimán	10	San Lucas Tolimán	5	Mayo	2023-09-05T00:00:00	2024-11-08T16:00:00	3	Temperatura mínima	21.9
122932	7	Sololá	713	San Lucas Tolimán	10	San Lucas Tolimán	5	Mayo	2023-09-05T00:00:00	2024-11-08T16:00:00	5	Humedad	62
122933	7	Sololá	713	San Lucas Tolimán	10	San Lucas Tolimán	5	Mayo	2023-09-05T00:00:00	2024-11-08T16:00:00	6	Velocidad del viento	9.7
122934	7	Sololá	713	San Lucas Tolimán	10	San Lucas Tolimán	5	Mayo	2023-09-05T00:00:00	2024-11-08T16:00:00	7	Dirección del viento	9.66
122935	7	Sololá	713	San Lucas Tolimán	10	San Lucas Tolimán	5	Mayo	2023-09-05T00:00:00	2024-11-08T16:00:00	1	Precipitación	0
122936	7	Sololá	713	San Lucas Tolimán	10	San Lucas Tolimán	5	Mayo	2023-09-05T00:00:00	2024-11-08T16:00:00	8	Radiación solar	298
122937	7	Sololá	713	San Lucas Tolimán	10	San Lucas Tolimán	5	Mayo	2023-09-05T00:00:00	2024-11-08T17:00:00	2	Temperatura media	20.3
122938	7	Sololá	713	San Lucas Tolimán	10	San Lucas Tolimán	5	Mayo	2023-09-05T00:00:00	2024-11-08T17:00:00	4	Temperatura máxima	22
122939	7	Sololá	713	San Lucas Tolimán	10	San Lucas Tolimán	5	Mayo	2023-09-05T00:00:00	2024-11-08T17:00:00	3	Temperatura mínima	20.2
122940	7	Sololá	713	San Lucas Tolimán	10	San Lucas Tolimán	5	Mayo	2023-09-05T00:00:00	2024-11-08T17:00:00	5	Humedad	60
122941	7	Sololá	713	San Lucas Tolimán	10	San Lucas Tolimán	5	Mayo	2023-09-05T00:00:00	2024-11-08T17:00:00	6	Velocidad del viento	9.7
122942	7	Sololá	713	San Lucas Tolimán	10	San Lucas Tolimán	5	Mayo	2023-09-05T00:00:00	2024-11-08T17:00:00	7	Dirección del viento	9.66
122943	7	Sololá	713	San Lucas Tolimán	10	San Lucas Tolimán	5	Mayo	2023-09-05T00:00:00	2024-11-08T17:00:00	1	Precipitación	0
122944	7	Sololá	713	San Lucas Tolimán	10	San Lucas Tolimán	5	Mayo	2023-09-05T00:00:00	2024-11-08T17:00:00	8	Radiación solar	99
122945	7	Sololá	713	San Lucas Tolimán	10	San Lucas Tolimán	5	Mayo	2023-09-05T00:00:00	2024-11-08T18:00:00	2	Temperatura media	20
122946	7	Sololá	713	San Lucas Tolimán	10	San Lucas Tolimán	5	Mayo	2023-09-05T00:00:00	2024-11-08T18:00:00	4	Temperatura máxima	20.3
122947	7	Sololá	713	San Lucas Tolimán	10	San Lucas Tolimán	5	Mayo	2023-09-05T00:00:00	2024-11-08T18:00:00	3	Temperatura mínima	19.9
122948	7	Sololá	713	San Lucas Tolimán	10	San Lucas Tolimán	5	Mayo	2023-09-05T00:00:00	2024-11-08T18:00:00	5	Humedad	61
122949	7	Sololá	713	San Lucas Tolimán	10	San Lucas Tolimán	5	Mayo	2023-09-05T00:00:00	2024-11-08T18:00:00	6	Velocidad del viento	8
122950	7	Sololá	713	San Lucas Tolimán	10	San Lucas Tolimán	5	Mayo	2023-09-05T00:00:00	2024-11-08T18:00:00	7	Dirección del viento	8.05
122951	7	Sololá	713	San Lucas Tolimán	10	San Lucas Tolimán	5	Mayo	2023-09-05T00:00:00	2024-11-08T18:00:00	1	Precipitación	0
122952	7	Sololá	713	San Lucas Tolimán	10	San Lucas Tolimán	5	Mayo	2023-09-05T00:00:00	2024-11-08T18:00:00	8	Radiación solar	19
122953	7	Sololá	713	San Lucas Tolimán	10	San Lucas Tolimán	5	Mayo	2023-09-05T00:00:00	2024-11-08T19:00:00	2	Temperatura media	19.8
122954	7	Sololá	713	San Lucas Tolimán	10	San Lucas Tolimán	5	Mayo	2023-09-05T00:00:00	2024-11-08T19:00:00	4	Temperatura máxima	20.3
122955	7	Sololá	713	San Lucas Tolimán	10	San Lucas Tolimán	5	Mayo	2023-09-05T00:00:00	2024-11-08T19:00:00	3	Temperatura mínima	19.8
122956	7	Sololá	713	San Lucas Tolimán	10	San Lucas Tolimán	5	Mayo	2023-09-05T00:00:00	2024-11-08T19:00:00	5	Humedad	61
122957	7	Sololá	713	San Lucas Tolimán	10	San Lucas Tolimán	5	Mayo	2023-09-05T00:00:00	2024-11-08T19:00:00	6	Velocidad del viento	6.4
122958	7	Sololá	713	San Lucas Tolimán	10	San Lucas Tolimán	5	Mayo	2023-09-05T00:00:00	2024-11-08T19:00:00	7	Dirección del viento	6.44
122959	7	Sololá	713	San Lucas Tolimán	10	San Lucas Tolimán	5	Mayo	2023-09-05T00:00:00	2024-11-08T19:00:00	1	Precipitación	0
122960	7	Sololá	713	San Lucas Tolimán	10	San Lucas Tolimán	5	Mayo	2023-09-05T00:00:00	2024-11-08T19:00:00	8	Radiación solar	0
122961	7	Sololá	713	San Lucas Tolimán	10	San Lucas Tolimán	5	Mayo	2023-09-05T00:00:00	2024-11-08T20:00:00	2	Temperatura media	19.7
122962	7	Sololá	713	San Lucas Tolimán	10	San Lucas Tolimán	5	Mayo	2023-09-05T00:00:00	2024-11-08T20:00:00	4	Temperatura máxima	19.9
122963	7	Sololá	713	San Lucas Tolimán	10	San Lucas Tolimán	5	Mayo	2023-09-05T00:00:00	2024-11-08T20:00:00	3	Temperatura mínima	19.7
122964	7	Sololá	713	San Lucas Tolimán	10	San Lucas Tolimán	5	Mayo	2023-09-05T00:00:00	2024-11-08T20:00:00	5	Humedad	61
122965	7	Sololá	713	San Lucas Tolimán	10	San Lucas Tolimán	5	Mayo	2023-09-05T00:00:00	2024-11-08T20:00:00	6	Velocidad del viento	6.4
122966	7	Sololá	713	San Lucas Tolimán	10	San Lucas Tolimán	5	Mayo	2023-09-05T00:00:00	2024-11-08T20:00:00	7	Dirección del viento	6.44
122967	7	Sololá	713	San Lucas Tolimán	10	San Lucas Tolimán	5	Mayo	2023-09-05T00:00:00	2024-11-08T20:00:00	1	Precipitación	0
122968	7	Sololá	713	San Lucas Tolimán	10	San Lucas Tolimán	5	Mayo	2023-09-05T00:00:00	2024-11-08T20:00:00	8	Radiación solar	0
122969	7	Sololá	713	San Lucas Tolimán	10	San Lucas Tolimán	5	Mayo	2023-09-05T00:00:00	2024-11-08T21:00:00	2	Temperatura media	19.7
122970	7	Sololá	713	San Lucas Tolimán	10	San Lucas Tolimán	5	Mayo	2023-09-05T00:00:00	2024-11-08T21:00:00	4	Temperatura máxima	19.9
122971	7	Sololá	713	San Lucas Tolimán	10	San Lucas Tolimán	5	Mayo	2023-09-05T00:00:00	2024-11-08T21:00:00	3	Temperatura mínima	19.7
122972	7	Sololá	713	San Lucas Tolimán	10	San Lucas Tolimán	5	Mayo	2023-09-05T00:00:00	2024-11-08T21:00:00	5	Humedad	61
122973	7	Sololá	713	San Lucas Tolimán	10	San Lucas Tolimán	5	Mayo	2023-09-05T00:00:00	2024-11-08T21:00:00	6	Velocidad del viento	4.8
122974	7	Sololá	713	San Lucas Tolimán	10	San Lucas Tolimán	5	Mayo	2023-09-05T00:00:00	2024-11-08T21:00:00	7	Dirección del viento	4.83
122975	7	Sololá	713	San Lucas Tolimán	10	San Lucas Tolimán	5	Mayo	2023-09-05T00:00:00	2024-11-08T21:00:00	1	Precipitación	0
122976	7	Sololá	713	San Lucas Tolimán	10	San Lucas Tolimán	5	Mayo	2023-09-05T00:00:00	2024-11-08T21:00:00	8	Radiación solar	0
122977	7	Sololá	713	San Lucas Tolimán	10	San Lucas Tolimán	5	Mayo	2023-09-05T00:00:00	2024-11-08T22:00:00	2	Temperatura media	19.4
122978	7	Sololá	713	San Lucas Tolimán	10	San Lucas Tolimán	5	Mayo	2023-09-05T00:00:00	2024-11-08T22:00:00	4	Temperatura máxima	19.8
122979	7	Sololá	713	San Lucas Tolimán	10	San Lucas Tolimán	5	Mayo	2023-09-05T00:00:00	2024-11-08T22:00:00	3	Temperatura mínima	19.4
122980	7	Sololá	713	San Lucas Tolimán	10	San Lucas Tolimán	5	Mayo	2023-09-05T00:00:00	2024-11-08T22:00:00	5	Humedad	62
122981	7	Sololá	713	San Lucas Tolimán	10	San Lucas Tolimán	5	Mayo	2023-09-05T00:00:00	2024-11-08T22:00:00	6	Velocidad del viento	4.8
122982	7	Sololá	713	San Lucas Tolimán	10	San Lucas Tolimán	5	Mayo	2023-09-05T00:00:00	2024-11-08T22:00:00	7	Dirección del viento	4.83
122983	7	Sololá	713	San Lucas Tolimán	10	San Lucas Tolimán	5	Mayo	2023-09-05T00:00:00	2024-11-08T22:00:00	1	Precipitación	0
122984	7	Sololá	713	San Lucas Tolimán	10	San Lucas Tolimán	5	Mayo	2023-09-05T00:00:00	2024-11-08T22:00:00	8	Radiación solar	0
122985	7	Sololá	713	San Lucas Tolimán	10	San Lucas Tolimán	5	Mayo	2023-09-05T00:00:00	2024-11-08T23:00:00	2	Temperatura media	19.2
122986	7	Sololá	713	San Lucas Tolimán	10	San Lucas Tolimán	5	Mayo	2023-09-05T00:00:00	2024-11-08T23:00:00	4	Temperatura máxima	19.4
122987	7	Sololá	713	San Lucas Tolimán	10	San Lucas Tolimán	5	Mayo	2023-09-05T00:00:00	2024-11-08T23:00:00	3	Temperatura mínima	18.8
122988	7	Sololá	713	San Lucas Tolimán	10	San Lucas Tolimán	5	Mayo	2023-09-05T00:00:00	2024-11-08T23:00:00	5	Humedad	61
122989	7	Sololá	713	San Lucas Tolimán	10	San Lucas Tolimán	5	Mayo	2023-09-05T00:00:00	2024-11-08T23:00:00	6	Velocidad del viento	4.8
122990	7	Sololá	713	San Lucas Tolimán	10	San Lucas Tolimán	5	Mayo	2023-09-05T00:00:00	2024-11-08T23:00:00	7	Dirección del viento	4.83
122991	7	Sololá	713	San Lucas Tolimán	10	San Lucas Tolimán	5	Mayo	2023-09-05T00:00:00	2024-11-08T23:00:00	1	Precipitación	0
122992	7	Sololá	713	San Lucas Tolimán	10	San Lucas Tolimán	5	Mayo	2023-09-05T00:00:00	2024-11-08T23:00:00	8	Radiación solar	0
122993	7	Sololá	713	San Lucas Tolimán	10	San Lucas Tolimán	5	Mayo	2023-10-05T00:00:00	2024-11-08T00:00:00	2	Temperatura media	19
122994	7	Sololá	713	San Lucas Tolimán	10	San Lucas Tolimán	5	Mayo	2023-10-05T00:00:00	2024-11-08T00:00:00	4	Temperatura máxima	19.3
122995	7	Sololá	713	San Lucas Tolimán	10	San Lucas Tolimán	5	Mayo	2023-10-05T00:00:00	2024-11-08T00:00:00	3	Temperatura mínima	18.9
122996	7	Sololá	713	San Lucas Tolimán	10	San Lucas Tolimán	5	Mayo	2023-10-05T00:00:00	2024-11-08T00:00:00	5	Humedad	62
122997	7	Sololá	713	San Lucas Tolimán	10	San Lucas Tolimán	5	Mayo	2023-10-05T00:00:00	2024-11-08T00:00:00	6	Velocidad del viento	4.8
122998	7	Sololá	713	San Lucas Tolimán	10	San Lucas Tolimán	5	Mayo	2023-10-05T00:00:00	2024-11-08T00:00:00	7	Dirección del viento	4.83
122999	7	Sololá	713	San Lucas Tolimán	10	San Lucas Tolimán	5	Mayo	2023-10-05T00:00:00	2024-11-08T00:00:00	1	Precipitación	0
123000	7	Sololá	713	San Lucas Tolimán	10	San Lucas Tolimán	5	Mayo	2023-10-05T00:00:00	2024-11-08T00:00:00	8	Radiación solar	0
123001	7	Sololá	713	San Lucas Tolimán	10	San Lucas Tolimán	5	Mayo	2023-10-05T00:00:00	2024-11-08T01:00:00	2	Temperatura media	18.8
123002	7	Sololá	713	San Lucas Tolimán	10	San Lucas Tolimán	5	Mayo	2023-10-05T00:00:00	2024-11-08T01:00:00	4	Temperatura máxima	19.1
123003	7	Sololá	713	San Lucas Tolimán	10	San Lucas Tolimán	5	Mayo	2023-10-05T00:00:00	2024-11-08T01:00:00	3	Temperatura mínima	18.8
123004	7	Sololá	713	San Lucas Tolimán	10	San Lucas Tolimán	5	Mayo	2023-10-05T00:00:00	2024-11-08T01:00:00	5	Humedad	62
123005	7	Sololá	713	San Lucas Tolimán	10	San Lucas Tolimán	5	Mayo	2023-10-05T00:00:00	2024-11-08T01:00:00	6	Velocidad del viento	3.2
123006	7	Sololá	713	San Lucas Tolimán	10	San Lucas Tolimán	5	Mayo	2023-10-05T00:00:00	2024-11-08T01:00:00	7	Dirección del viento	3.22
123007	7	Sololá	713	San Lucas Tolimán	10	San Lucas Tolimán	5	Mayo	2023-10-05T00:00:00	2024-11-08T01:00:00	1	Precipitación	0
123008	7	Sololá	713	San Lucas Tolimán	10	San Lucas Tolimán	5	Mayo	2023-10-05T00:00:00	2024-11-08T01:00:00	8	Radiación solar	0
123009	7	Sololá	713	San Lucas Tolimán	10	San Lucas Tolimán	5	Mayo	2023-10-05T00:00:00	2024-11-08T02:00:00	2	Temperatura media	18.7
123010	7	Sololá	713	San Lucas Tolimán	10	San Lucas Tolimán	5	Mayo	2023-10-05T00:00:00	2024-11-08T02:00:00	4	Temperatura máxima	18.9
123011	7	Sololá	713	San Lucas Tolimán	10	San Lucas Tolimán	5	Mayo	2023-10-05T00:00:00	2024-11-08T02:00:00	3	Temperatura mínima	18.7
123012	7	Sololá	713	San Lucas Tolimán	10	San Lucas Tolimán	5	Mayo	2023-10-05T00:00:00	2024-11-08T02:00:00	5	Humedad	63
123013	7	Sololá	713	San Lucas Tolimán	10	San Lucas Tolimán	5	Mayo	2023-10-05T00:00:00	2024-11-08T02:00:00	6	Velocidad del viento	4.8
123014	7	Sololá	713	San Lucas Tolimán	10	San Lucas Tolimán	5	Mayo	2023-10-05T00:00:00	2024-11-08T02:00:00	7	Dirección del viento	4.83
123015	7	Sololá	713	San Lucas Tolimán	10	San Lucas Tolimán	5	Mayo	2023-10-05T00:00:00	2024-11-08T02:00:00	1	Precipitación	0
123016	7	Sololá	713	San Lucas Tolimán	10	San Lucas Tolimán	5	Mayo	2023-10-05T00:00:00	2024-11-08T02:00:00	8	Radiación solar	0
123017	7	Sololá	713	San Lucas Tolimán	10	San Lucas Tolimán	5	Mayo	2023-10-05T00:00:00	2024-11-08T03:00:00	2	Temperatura media	18.2
123018	7	Sololá	713	San Lucas Tolimán	10	San Lucas Tolimán	5	Mayo	2023-10-05T00:00:00	2024-11-08T03:00:00	4	Temperatura máxima	18.8
123019	7	Sololá	713	San Lucas Tolimán	10	San Lucas Tolimán	5	Mayo	2023-10-05T00:00:00	2024-11-08T03:00:00	3	Temperatura mínima	18.2
123020	7	Sololá	713	San Lucas Tolimán	10	San Lucas Tolimán	5	Mayo	2023-10-05T00:00:00	2024-11-08T03:00:00	5	Humedad	63
123021	7	Sololá	713	San Lucas Tolimán	10	San Lucas Tolimán	5	Mayo	2023-10-05T00:00:00	2024-11-08T03:00:00	6	Velocidad del viento	1.6
123022	7	Sololá	713	San Lucas Tolimán	10	San Lucas Tolimán	5	Mayo	2023-10-05T00:00:00	2024-11-08T03:00:00	7	Dirección del viento	1.61
123023	7	Sololá	713	San Lucas Tolimán	10	San Lucas Tolimán	5	Mayo	2023-10-05T00:00:00	2024-11-08T03:00:00	1	Precipitación	0
123024	7	Sololá	713	San Lucas Tolimán	10	San Lucas Tolimán	5	Mayo	2023-10-05T00:00:00	2024-11-08T03:00:00	8	Radiación solar	0
123025	7	Sololá	713	San Lucas Tolimán	10	San Lucas Tolimán	5	Mayo	2023-10-05T00:00:00	2024-11-08T04:00:00	2	Temperatura media	17.7
123026	7	Sololá	713	San Lucas Tolimán	10	San Lucas Tolimán	5	Mayo	2023-10-05T00:00:00	2024-11-08T04:00:00	4	Temperatura máxima	18.2
123027	7	Sololá	713	San Lucas Tolimán	10	San Lucas Tolimán	5	Mayo	2023-10-05T00:00:00	2024-11-08T04:00:00	3	Temperatura mínima	17.7
123028	7	Sololá	713	San Lucas Tolimán	10	San Lucas Tolimán	5	Mayo	2023-10-05T00:00:00	2024-11-08T04:00:00	5	Humedad	62
123029	7	Sololá	713	San Lucas Tolimán	10	San Lucas Tolimán	5	Mayo	2023-10-05T00:00:00	2024-11-08T04:00:00	6	Velocidad del viento	1.6
123030	7	Sololá	713	San Lucas Tolimán	10	San Lucas Tolimán	5	Mayo	2023-10-05T00:00:00	2024-11-08T04:00:00	7	Dirección del viento	1.61
123031	7	Sololá	713	San Lucas Tolimán	10	San Lucas Tolimán	5	Mayo	2023-10-05T00:00:00	2024-11-08T04:00:00	1	Precipitación	0
123032	7	Sololá	713	San Lucas Tolimán	10	San Lucas Tolimán	5	Mayo	2023-10-05T00:00:00	2024-11-08T04:00:00	8	Radiación solar	0
123033	7	Sololá	713	San Lucas Tolimán	10	San Lucas Tolimán	5	Mayo	2023-10-05T00:00:00	2024-11-08T05:00:00	2	Temperatura media	17.1
123034	7	Sololá	713	San Lucas Tolimán	10	San Lucas Tolimán	5	Mayo	2023-10-05T00:00:00	2024-11-08T05:00:00	4	Temperatura máxima	17.8
123035	7	Sololá	713	San Lucas Tolimán	10	San Lucas Tolimán	5	Mayo	2023-10-05T00:00:00	2024-11-08T05:00:00	3	Temperatura mínima	17.1
123036	7	Sololá	713	San Lucas Tolimán	10	San Lucas Tolimán	5	Mayo	2023-10-05T00:00:00	2024-11-08T05:00:00	5	Humedad	62
123037	7	Sololá	713	San Lucas Tolimán	10	San Lucas Tolimán	5	Mayo	2023-10-05T00:00:00	2024-11-08T05:00:00	6	Velocidad del viento	1.6
123038	7	Sololá	713	San Lucas Tolimán	10	San Lucas Tolimán	5	Mayo	2023-10-05T00:00:00	2024-11-08T05:00:00	7	Dirección del viento	1.61
123039	7	Sololá	713	San Lucas Tolimán	10	San Lucas Tolimán	5	Mayo	2023-10-05T00:00:00	2024-11-08T05:00:00	1	Precipitación	0
123040	7	Sololá	713	San Lucas Tolimán	10	San Lucas Tolimán	5	Mayo	2023-10-05T00:00:00	2024-11-08T05:00:00	8	Radiación solar	0
123041	7	Sololá	713	San Lucas Tolimán	10	San Lucas Tolimán	5	Mayo	2023-10-05T00:00:00	2024-11-08T06:00:00	2	Temperatura media	17.4
123042	7	Sololá	713	San Lucas Tolimán	10	San Lucas Tolimán	5	Mayo	2023-10-05T00:00:00	2024-11-08T06:00:00	4	Temperatura máxima	17.4
123043	7	Sololá	713	San Lucas Tolimán	10	San Lucas Tolimán	5	Mayo	2023-10-05T00:00:00	2024-11-08T06:00:00	3	Temperatura mínima	16.9
123044	7	Sololá	713	San Lucas Tolimán	10	San Lucas Tolimán	5	Mayo	2023-10-05T00:00:00	2024-11-08T06:00:00	5	Humedad	60
123045	7	Sololá	713	San Lucas Tolimán	10	San Lucas Tolimán	5	Mayo	2023-10-05T00:00:00	2024-11-08T06:00:00	6	Velocidad del viento	1.6
123046	7	Sololá	713	San Lucas Tolimán	10	San Lucas Tolimán	5	Mayo	2023-10-05T00:00:00	2024-11-08T06:00:00	7	Dirección del viento	1.61
123047	7	Sololá	713	San Lucas Tolimán	10	San Lucas Tolimán	5	Mayo	2023-10-05T00:00:00	2024-11-08T06:00:00	1	Precipitación	0
123048	7	Sololá	713	San Lucas Tolimán	10	San Lucas Tolimán	5	Mayo	2023-10-05T00:00:00	2024-11-08T06:00:00	8	Radiación solar	3
123049	7	Sololá	713	San Lucas Tolimán	10	San Lucas Tolimán	5	Mayo	2023-10-05T00:00:00	2024-11-08T07:00:00	2	Temperatura media	18.3
123050	7	Sololá	713	San Lucas Tolimán	10	San Lucas Tolimán	5	Mayo	2023-10-05T00:00:00	2024-11-08T07:00:00	4	Temperatura máxima	18.3
123051	7	Sololá	713	San Lucas Tolimán	10	San Lucas Tolimán	5	Mayo	2023-10-05T00:00:00	2024-11-08T07:00:00	3	Temperatura mínima	17.4
123052	7	Sololá	713	San Lucas Tolimán	10	San Lucas Tolimán	5	Mayo	2023-10-05T00:00:00	2024-11-08T07:00:00	5	Humedad	61
123053	7	Sololá	713	San Lucas Tolimán	10	San Lucas Tolimán	5	Mayo	2023-10-05T00:00:00	2024-11-08T07:00:00	6	Velocidad del viento	0
123054	7	Sololá	713	San Lucas Tolimán	10	San Lucas Tolimán	5	Mayo	2023-10-05T00:00:00	2024-11-08T07:00:00	7	Dirección del viento	0
123055	7	Sololá	713	San Lucas Tolimán	10	San Lucas Tolimán	5	Mayo	2023-10-05T00:00:00	2024-11-08T07:00:00	1	Precipitación	0
123056	7	Sololá	713	San Lucas Tolimán	10	San Lucas Tolimán	5	Mayo	2023-10-05T00:00:00	2024-11-08T07:00:00	8	Radiación solar	50
123057	7	Sololá	713	San Lucas Tolimán	10	San Lucas Tolimán	5	Mayo	2023-10-05T00:00:00	2024-11-08T08:00:00	2	Temperatura media	20.4
123058	7	Sololá	713	San Lucas Tolimán	10	San Lucas Tolimán	5	Mayo	2023-10-05T00:00:00	2024-11-08T08:00:00	4	Temperatura máxima	20.4
123059	7	Sololá	713	San Lucas Tolimán	10	San Lucas Tolimán	5	Mayo	2023-10-05T00:00:00	2024-11-08T08:00:00	3	Temperatura mínima	18.3
123060	7	Sololá	713	San Lucas Tolimán	10	San Lucas Tolimán	5	Mayo	2023-10-05T00:00:00	2024-11-08T08:00:00	5	Humedad	56
123061	7	Sololá	713	San Lucas Tolimán	10	San Lucas Tolimán	5	Mayo	2023-10-05T00:00:00	2024-11-08T08:00:00	6	Velocidad del viento	1.6
123062	7	Sololá	713	San Lucas Tolimán	10	San Lucas Tolimán	5	Mayo	2023-10-05T00:00:00	2024-11-08T08:00:00	7	Dirección del viento	1.61
123063	7	Sololá	713	San Lucas Tolimán	10	San Lucas Tolimán	5	Mayo	2023-10-05T00:00:00	2024-11-08T08:00:00	1	Precipitación	0
123064	7	Sololá	713	San Lucas Tolimán	10	San Lucas Tolimán	5	Mayo	2023-10-05T00:00:00	2024-11-08T08:00:00	8	Radiación solar	153
123065	7	Sololá	713	San Lucas Tolimán	10	San Lucas Tolimán	5	Mayo	2023-10-05T00:00:00	2024-11-08T09:00:00	2	Temperatura media	21.3
123066	7	Sololá	713	San Lucas Tolimán	10	San Lucas Tolimán	5	Mayo	2023-10-05T00:00:00	2024-11-08T09:00:00	4	Temperatura máxima	21.3
123067	7	Sololá	713	San Lucas Tolimán	10	San Lucas Tolimán	5	Mayo	2023-10-05T00:00:00	2024-11-08T09:00:00	3	Temperatura mínima	20.4
123068	7	Sololá	713	San Lucas Tolimán	10	San Lucas Tolimán	5	Mayo	2023-10-05T00:00:00	2024-11-08T09:00:00	5	Humedad	56
123069	7	Sololá	713	San Lucas Tolimán	10	San Lucas Tolimán	5	Mayo	2023-10-05T00:00:00	2024-11-08T09:00:00	6	Velocidad del viento	1.6
123070	7	Sololá	713	San Lucas Tolimán	10	San Lucas Tolimán	5	Mayo	2023-10-05T00:00:00	2024-11-08T09:00:00	7	Dirección del viento	1.61
123071	7	Sololá	713	San Lucas Tolimán	10	San Lucas Tolimán	5	Mayo	2023-10-05T00:00:00	2024-11-08T09:00:00	1	Precipitación	0
123072	7	Sololá	713	San Lucas Tolimán	10	San Lucas Tolimán	5	Mayo	2023-10-05T00:00:00	2024-11-08T09:00:00	8	Radiación solar	248
123073	7	Sololá	713	San Lucas Tolimán	10	San Lucas Tolimán	5	Mayo	2023-10-05T00:00:00	2024-11-08T10:00:00	2	Temperatura media	22.9
123074	7	Sololá	713	San Lucas Tolimán	10	San Lucas Tolimán	5	Mayo	2023-10-05T00:00:00	2024-11-08T10:00:00	4	Temperatura máxima	23.1
123075	7	Sololá	713	San Lucas Tolimán	10	San Lucas Tolimán	5	Mayo	2023-10-05T00:00:00	2024-11-08T10:00:00	3	Temperatura mínima	21.2
123076	7	Sololá	713	San Lucas Tolimán	10	San Lucas Tolimán	5	Mayo	2023-10-05T00:00:00	2024-11-08T10:00:00	5	Humedad	57
123077	7	Sololá	713	San Lucas Tolimán	10	San Lucas Tolimán	5	Mayo	2023-10-05T00:00:00	2024-11-08T10:00:00	6	Velocidad del viento	4.8
123078	7	Sololá	713	San Lucas Tolimán	10	San Lucas Tolimán	5	Mayo	2023-10-05T00:00:00	2024-11-08T10:00:00	7	Dirección del viento	4.83
123079	7	Sololá	713	San Lucas Tolimán	10	San Lucas Tolimán	5	Mayo	2023-10-05T00:00:00	2024-11-08T10:00:00	1	Precipitación	0
123080	7	Sololá	713	San Lucas Tolimán	10	San Lucas Tolimán	5	Mayo	2023-10-05T00:00:00	2024-11-08T10:00:00	8	Radiación solar	480
123081	7	Sololá	713	San Lucas Tolimán	10	San Lucas Tolimán	5	Mayo	2023-10-05T00:00:00	2024-11-08T11:00:00	2	Temperatura media	23.6
123082	7	Sololá	713	San Lucas Tolimán	10	San Lucas Tolimán	5	Mayo	2023-10-05T00:00:00	2024-11-08T11:00:00	4	Temperatura máxima	23.9
123083	7	Sololá	713	San Lucas Tolimán	10	San Lucas Tolimán	5	Mayo	2023-10-05T00:00:00	2024-11-08T11:00:00	3	Temperatura mínima	22.9
123084	7	Sololá	713	San Lucas Tolimán	10	San Lucas Tolimán	5	Mayo	2023-10-05T00:00:00	2024-11-08T11:00:00	5	Humedad	57
123085	7	Sololá	713	San Lucas Tolimán	10	San Lucas Tolimán	5	Mayo	2023-10-05T00:00:00	2024-11-08T11:00:00	6	Velocidad del viento	8
123086	7	Sololá	713	San Lucas Tolimán	10	San Lucas Tolimán	5	Mayo	2023-10-05T00:00:00	2024-11-08T11:00:00	7	Dirección del viento	8.05
123087	7	Sololá	713	San Lucas Tolimán	10	San Lucas Tolimán	5	Mayo	2023-10-05T00:00:00	2024-11-08T11:00:00	1	Precipitación	0
123088	7	Sololá	713	San Lucas Tolimán	10	San Lucas Tolimán	5	Mayo	2023-10-05T00:00:00	2024-11-08T11:00:00	8	Radiación solar	1024
123089	7	Sololá	713	San Lucas Tolimán	10	San Lucas Tolimán	5	Mayo	2023-10-05T00:00:00	2024-11-08T12:00:00	2	Temperatura media	23.3
123090	7	Sololá	713	San Lucas Tolimán	10	San Lucas Tolimán	5	Mayo	2023-10-05T00:00:00	2024-11-08T12:00:00	4	Temperatura máxima	23.9
123091	7	Sololá	713	San Lucas Tolimán	10	San Lucas Tolimán	5	Mayo	2023-10-05T00:00:00	2024-11-08T12:00:00	3	Temperatura mínima	23
123092	7	Sololá	713	San Lucas Tolimán	10	San Lucas Tolimán	5	Mayo	2023-10-05T00:00:00	2024-11-08T12:00:00	5	Humedad	57
123093	7	Sololá	713	San Lucas Tolimán	10	San Lucas Tolimán	5	Mayo	2023-10-05T00:00:00	2024-11-08T12:00:00	6	Velocidad del viento	9.7
123094	7	Sololá	713	San Lucas Tolimán	10	San Lucas Tolimán	5	Mayo	2023-10-05T00:00:00	2024-11-08T12:00:00	7	Dirección del viento	9.66
123095	7	Sololá	713	San Lucas Tolimán	10	San Lucas Tolimán	5	Mayo	2023-10-05T00:00:00	2024-11-08T12:00:00	1	Precipitación	0
123096	7	Sololá	713	San Lucas Tolimán	10	San Lucas Tolimán	5	Mayo	2023-10-05T00:00:00	2024-11-08T12:00:00	8	Radiación solar	1153
123097	7	Sololá	713	San Lucas Tolimán	10	San Lucas Tolimán	5	Mayo	2023-10-05T00:00:00	2024-11-08T13:00:00	2	Temperatura media	23.3
123098	7	Sololá	713	San Lucas Tolimán	10	San Lucas Tolimán	5	Mayo	2023-10-05T00:00:00	2024-11-08T13:00:00	4	Temperatura máxima	24.1
123099	7	Sololá	713	San Lucas Tolimán	10	San Lucas Tolimán	5	Mayo	2023-10-05T00:00:00	2024-11-08T13:00:00	3	Temperatura mínima	23.3
123100	7	Sololá	713	San Lucas Tolimán	10	San Lucas Tolimán	5	Mayo	2023-10-05T00:00:00	2024-11-08T13:00:00	5	Humedad	59
123101	7	Sololá	713	San Lucas Tolimán	10	San Lucas Tolimán	5	Mayo	2023-10-05T00:00:00	2024-11-08T13:00:00	6	Velocidad del viento	9.7
123102	7	Sololá	713	San Lucas Tolimán	10	San Lucas Tolimán	5	Mayo	2023-10-05T00:00:00	2024-11-08T13:00:00	7	Dirección del viento	9.66
123103	7	Sololá	713	San Lucas Tolimán	10	San Lucas Tolimán	5	Mayo	2023-10-05T00:00:00	2024-11-08T13:00:00	1	Precipitación	0
123104	7	Sololá	713	San Lucas Tolimán	10	San Lucas Tolimán	5	Mayo	2023-10-05T00:00:00	2024-11-08T13:00:00	8	Radiación solar	1050
123105	7	Sololá	713	San Lucas Tolimán	10	San Lucas Tolimán	5	Mayo	2023-10-05T00:00:00	2024-11-08T14:00:00	2	Temperatura media	22.3
123106	7	Sololá	713	San Lucas Tolimán	10	San Lucas Tolimán	5	Mayo	2023-10-05T00:00:00	2024-11-08T14:00:00	4	Temperatura máxima	23.8
123107	7	Sololá	713	San Lucas Tolimán	10	San Lucas Tolimán	5	Mayo	2023-10-05T00:00:00	2024-11-08T14:00:00	3	Temperatura mínima	22.3
123108	7	Sololá	713	San Lucas Tolimán	10	San Lucas Tolimán	5	Mayo	2023-10-05T00:00:00	2024-11-08T14:00:00	5	Humedad	61
123109	7	Sololá	713	San Lucas Tolimán	10	San Lucas Tolimán	5	Mayo	2023-10-05T00:00:00	2024-11-08T14:00:00	6	Velocidad del viento	9.7
123110	7	Sololá	713	San Lucas Tolimán	10	San Lucas Tolimán	5	Mayo	2023-10-05T00:00:00	2024-11-08T14:00:00	7	Dirección del viento	9.66
123111	7	Sololá	713	San Lucas Tolimán	10	San Lucas Tolimán	5	Mayo	2023-10-05T00:00:00	2024-11-08T14:00:00	1	Precipitación	0
123112	7	Sololá	713	San Lucas Tolimán	10	San Lucas Tolimán	5	Mayo	2023-10-05T00:00:00	2024-11-08T14:00:00	8	Radiación solar	552
123113	7	Sololá	713	San Lucas Tolimán	10	San Lucas Tolimán	5	Mayo	2023-10-05T00:00:00	2024-11-08T15:00:00	2	Temperatura media	21.3
123114	7	Sololá	713	San Lucas Tolimán	10	San Lucas Tolimán	5	Mayo	2023-10-05T00:00:00	2024-11-08T15:00:00	4	Temperatura máxima	22.2
123115	7	Sololá	713	San Lucas Tolimán	10	San Lucas Tolimán	5	Mayo	2023-10-05T00:00:00	2024-11-08T15:00:00	3	Temperatura mínima	21.2
123116	7	Sololá	713	San Lucas Tolimán	10	San Lucas Tolimán	5	Mayo	2023-10-05T00:00:00	2024-11-08T15:00:00	5	Humedad	61
123117	7	Sololá	713	San Lucas Tolimán	10	San Lucas Tolimán	5	Mayo	2023-10-05T00:00:00	2024-11-08T15:00:00	6	Velocidad del viento	6.4
123118	7	Sololá	713	San Lucas Tolimán	10	San Lucas Tolimán	5	Mayo	2023-10-05T00:00:00	2024-11-08T15:00:00	7	Dirección del viento	6.44
123119	7	Sololá	713	San Lucas Tolimán	10	San Lucas Tolimán	5	Mayo	2023-10-05T00:00:00	2024-11-08T15:00:00	1	Precipitación	0
123120	7	Sololá	713	San Lucas Tolimán	10	San Lucas Tolimán	5	Mayo	2023-10-05T00:00:00	2024-11-08T15:00:00	8	Radiación solar	166
123121	7	Sololá	713	San Lucas Tolimán	10	San Lucas Tolimán	5	Mayo	2023-10-05T00:00:00	2024-11-08T16:00:00	2	Temperatura media	19.9
123122	7	Sololá	713	San Lucas Tolimán	10	San Lucas Tolimán	5	Mayo	2023-10-05T00:00:00	2024-11-08T16:00:00	4	Temperatura máxima	21.3
123123	7	Sololá	713	San Lucas Tolimán	10	San Lucas Tolimán	5	Mayo	2023-10-05T00:00:00	2024-11-08T16:00:00	3	Temperatura mínima	19.9
123124	7	Sololá	713	San Lucas Tolimán	10	San Lucas Tolimán	5	Mayo	2023-10-05T00:00:00	2024-11-08T16:00:00	5	Humedad	61
123125	7	Sololá	713	San Lucas Tolimán	10	San Lucas Tolimán	5	Mayo	2023-10-05T00:00:00	2024-11-08T16:00:00	6	Velocidad del viento	6.4
123126	7	Sololá	713	San Lucas Tolimán	10	San Lucas Tolimán	5	Mayo	2023-10-05T00:00:00	2024-11-08T16:00:00	7	Dirección del viento	6.44
123127	7	Sololá	713	San Lucas Tolimán	10	San Lucas Tolimán	5	Mayo	2023-10-05T00:00:00	2024-11-08T16:00:00	1	Precipitación	0.2
123128	7	Sololá	713	San Lucas Tolimán	10	San Lucas Tolimán	5	Mayo	2023-10-05T00:00:00	2024-11-08T16:00:00	8	Radiación solar	35
123129	7	Sololá	713	San Lucas Tolimán	10	San Lucas Tolimán	5	Mayo	2023-10-05T00:00:00	2024-11-08T17:00:00	2	Temperatura media	19.6
123130	7	Sololá	713	San Lucas Tolimán	10	San Lucas Tolimán	5	Mayo	2023-10-05T00:00:00	2024-11-08T17:00:00	4	Temperatura máxima	20.3
123131	7	Sololá	713	San Lucas Tolimán	10	San Lucas Tolimán	5	Mayo	2023-10-05T00:00:00	2024-11-08T17:00:00	3	Temperatura mínima	19.5
123132	7	Sololá	713	San Lucas Tolimán	10	San Lucas Tolimán	5	Mayo	2023-10-05T00:00:00	2024-11-08T17:00:00	5	Humedad	59
123133	7	Sololá	713	San Lucas Tolimán	10	San Lucas Tolimán	5	Mayo	2023-10-05T00:00:00	2024-11-08T17:00:00	6	Velocidad del viento	6.4
123134	7	Sololá	713	San Lucas Tolimán	10	San Lucas Tolimán	5	Mayo	2023-10-05T00:00:00	2024-11-08T17:00:00	7	Dirección del viento	6.44
123135	7	Sololá	713	San Lucas Tolimán	10	San Lucas Tolimán	5	Mayo	2023-10-05T00:00:00	2024-11-08T17:00:00	1	Precipitación	0.2
123136	7	Sololá	713	San Lucas Tolimán	10	San Lucas Tolimán	5	Mayo	2023-10-05T00:00:00	2024-11-08T17:00:00	8	Radiación solar	80
123137	7	Sololá	713	San Lucas Tolimán	10	San Lucas Tolimán	5	Mayo	2023-10-05T00:00:00	2024-11-08T18:00:00	2	Temperatura media	19
123138	7	Sololá	713	San Lucas Tolimán	10	San Lucas Tolimán	5	Mayo	2023-10-05T00:00:00	2024-11-08T18:00:00	4	Temperatura máxima	19.7
123139	7	Sololá	713	San Lucas Tolimán	10	San Lucas Tolimán	5	Mayo	2023-10-05T00:00:00	2024-11-08T18:00:00	3	Temperatura mínima	19
123140	7	Sololá	713	San Lucas Tolimán	10	San Lucas Tolimán	5	Mayo	2023-10-05T00:00:00	2024-11-08T18:00:00	5	Humedad	62
123141	7	Sololá	713	San Lucas Tolimán	10	San Lucas Tolimán	5	Mayo	2023-10-05T00:00:00	2024-11-08T18:00:00	6	Velocidad del viento	4.8
123142	7	Sololá	713	San Lucas Tolimán	10	San Lucas Tolimán	5	Mayo	2023-10-05T00:00:00	2024-11-08T18:00:00	7	Dirección del viento	4.83
123143	7	Sololá	713	San Lucas Tolimán	10	San Lucas Tolimán	5	Mayo	2023-10-05T00:00:00	2024-11-08T18:00:00	1	Precipitación	0
123144	7	Sololá	713	San Lucas Tolimán	10	San Lucas Tolimán	5	Mayo	2023-10-05T00:00:00	2024-11-08T18:00:00	8	Radiación solar	31
123145	7	Sololá	713	San Lucas Tolimán	10	San Lucas Tolimán	5	Mayo	2023-10-05T00:00:00	2024-11-08T19:00:00	2	Temperatura media	19.2
123146	7	Sololá	713	San Lucas Tolimán	10	San Lucas Tolimán	5	Mayo	2023-10-05T00:00:00	2024-11-08T19:00:00	4	Temperatura máxima	19.3
123147	7	Sololá	713	San Lucas Tolimán	10	San Lucas Tolimán	5	Mayo	2023-10-05T00:00:00	2024-11-08T19:00:00	3	Temperatura mínima	18.9
123148	7	Sololá	713	San Lucas Tolimán	10	San Lucas Tolimán	5	Mayo	2023-10-05T00:00:00	2024-11-08T19:00:00	5	Humedad	61
123149	7	Sololá	713	San Lucas Tolimán	10	San Lucas Tolimán	5	Mayo	2023-10-05T00:00:00	2024-11-08T19:00:00	6	Velocidad del viento	3.2
123150	7	Sololá	713	San Lucas Tolimán	10	San Lucas Tolimán	5	Mayo	2023-10-05T00:00:00	2024-11-08T19:00:00	7	Dirección del viento	3.22
123151	7	Sololá	713	San Lucas Tolimán	10	San Lucas Tolimán	5	Mayo	2023-10-05T00:00:00	2024-11-08T19:00:00	1	Precipitación	0
123152	7	Sololá	713	San Lucas Tolimán	10	San Lucas Tolimán	5	Mayo	2023-10-05T00:00:00	2024-11-08T19:00:00	8	Radiación solar	0
123153	7	Sololá	713	San Lucas Tolimán	10	San Lucas Tolimán	5	Mayo	2023-10-05T00:00:00	2024-11-08T20:00:00	2	Temperatura media	15.2
123154	7	Sololá	713	San Lucas Tolimán	10	San Lucas Tolimán	5	Mayo	2023-10-05T00:00:00	2024-11-08T20:00:00	4	Temperatura máxima	19.2
123155	7	Sololá	713	San Lucas Tolimán	10	San Lucas Tolimán	5	Mayo	2023-10-05T00:00:00	2024-11-08T20:00:00	3	Temperatura mínima	15.1
123156	7	Sololá	713	San Lucas Tolimán	10	San Lucas Tolimán	5	Mayo	2023-10-05T00:00:00	2024-11-08T20:00:00	5	Humedad	63
123157	7	Sololá	713	San Lucas Tolimán	10	San Lucas Tolimán	5	Mayo	2023-10-05T00:00:00	2024-11-08T20:00:00	6	Velocidad del viento	11.3
123158	7	Sololá	713	San Lucas Tolimán	10	San Lucas Tolimán	5	Mayo	2023-10-05T00:00:00	2024-11-08T20:00:00	7	Dirección del viento	11.27
123159	7	Sololá	713	San Lucas Tolimán	10	San Lucas Tolimán	5	Mayo	2023-10-05T00:00:00	2024-11-08T20:00:00	1	Precipitación	16.6
123160	7	Sololá	713	San Lucas Tolimán	10	San Lucas Tolimán	5	Mayo	2023-10-05T00:00:00	2024-11-08T20:00:00	8	Radiación solar	0
123161	7	Sololá	713	San Lucas Tolimán	10	San Lucas Tolimán	5	Mayo	2023-10-05T00:00:00	2024-11-08T21:00:00	2	Temperatura media	15.3
123162	7	Sololá	713	San Lucas Tolimán	10	San Lucas Tolimán	5	Mayo	2023-10-05T00:00:00	2024-11-08T21:00:00	4	Temperatura máxima	15.5
123163	7	Sololá	713	San Lucas Tolimán	10	San Lucas Tolimán	5	Mayo	2023-10-05T00:00:00	2024-11-08T21:00:00	3	Temperatura mínima	15.1
123164	7	Sololá	713	San Lucas Tolimán	10	San Lucas Tolimán	5	Mayo	2023-10-05T00:00:00	2024-11-08T21:00:00	5	Humedad	64
123165	7	Sololá	713	San Lucas Tolimán	10	San Lucas Tolimán	5	Mayo	2023-10-05T00:00:00	2024-11-08T21:00:00	6	Velocidad del viento	9.7
123166	7	Sololá	713	San Lucas Tolimán	10	San Lucas Tolimán	5	Mayo	2023-10-05T00:00:00	2024-11-08T21:00:00	7	Dirección del viento	9.66
123167	7	Sololá	713	San Lucas Tolimán	10	San Lucas Tolimán	5	Mayo	2023-10-05T00:00:00	2024-11-08T21:00:00	1	Precipitación	1.8
123168	7	Sololá	713	San Lucas Tolimán	10	San Lucas Tolimán	5	Mayo	2023-10-05T00:00:00	2024-11-08T21:00:00	8	Radiación solar	0
123169	7	Sololá	713	San Lucas Tolimán	10	San Lucas Tolimán	5	Mayo	2023-10-05T00:00:00	2024-11-08T22:00:00	2	Temperatura media	15.4
123170	7	Sololá	713	San Lucas Tolimán	10	San Lucas Tolimán	5	Mayo	2023-10-05T00:00:00	2024-11-08T22:00:00	4	Temperatura máxima	15.6
123171	7	Sololá	713	San Lucas Tolimán	10	San Lucas Tolimán	5	Mayo	2023-10-05T00:00:00	2024-11-08T22:00:00	3	Temperatura mínima	15.2
123172	7	Sololá	713	San Lucas Tolimán	10	San Lucas Tolimán	5	Mayo	2023-10-05T00:00:00	2024-11-08T22:00:00	5	Humedad	66
123173	7	Sololá	713	San Lucas Tolimán	10	San Lucas Tolimán	5	Mayo	2023-10-05T00:00:00	2024-11-08T22:00:00	6	Velocidad del viento	6.4
123174	7	Sololá	713	San Lucas Tolimán	10	San Lucas Tolimán	5	Mayo	2023-10-05T00:00:00	2024-11-08T22:00:00	7	Dirección del viento	6.44
123175	7	Sololá	713	San Lucas Tolimán	10	San Lucas Tolimán	5	Mayo	2023-10-05T00:00:00	2024-11-08T22:00:00	1	Precipitación	0.2
123176	7	Sololá	713	San Lucas Tolimán	10	San Lucas Tolimán	5	Mayo	2023-10-05T00:00:00	2024-11-08T22:00:00	8	Radiación solar	0
123177	7	Sololá	713	San Lucas Tolimán	10	San Lucas Tolimán	5	Mayo	2023-10-05T00:00:00	2024-11-08T23:00:00	2	Temperatura media	15.7
123178	7	Sololá	713	San Lucas Tolimán	10	San Lucas Tolimán	5	Mayo	2023-10-05T00:00:00	2024-11-08T23:00:00	4	Temperatura máxima	15.8
123179	7	Sololá	713	San Lucas Tolimán	10	San Lucas Tolimán	5	Mayo	2023-10-05T00:00:00	2024-11-08T23:00:00	3	Temperatura mínima	15.4
123180	7	Sololá	713	San Lucas Tolimán	10	San Lucas Tolimán	5	Mayo	2023-10-05T00:00:00	2024-11-08T23:00:00	5	Humedad	60
123181	7	Sololá	713	San Lucas Tolimán	10	San Lucas Tolimán	5	Mayo	2023-10-05T00:00:00	2024-11-08T23:00:00	6	Velocidad del viento	4.8
123182	7	Sololá	713	San Lucas Tolimán	10	San Lucas Tolimán	5	Mayo	2023-10-05T00:00:00	2024-11-08T23:00:00	7	Dirección del viento	4.83
123183	7	Sololá	713	San Lucas Tolimán	10	San Lucas Tolimán	5	Mayo	2023-10-05T00:00:00	2024-11-08T23:00:00	1	Precipitación	0
123184	7	Sololá	713	San Lucas Tolimán	10	San Lucas Tolimán	5	Mayo	2023-10-05T00:00:00	2024-11-08T23:00:00	8	Radiación solar	0
123185	7	Sololá	713	San Lucas Tolimán	10	San Lucas Tolimán	5	Mayo	2023-11-05T00:00:00	2024-11-08T00:00:00	2	Temperatura media	15.1
123186	7	Sololá	713	San Lucas Tolimán	10	San Lucas Tolimán	5	Mayo	2023-11-05T00:00:00	2024-11-08T00:00:00	4	Temperatura máxima	16.3
123187	7	Sololá	713	San Lucas Tolimán	10	San Lucas Tolimán	5	Mayo	2023-11-05T00:00:00	2024-11-08T00:00:00	3	Temperatura mínima	15
123188	7	Sololá	713	San Lucas Tolimán	10	San Lucas Tolimán	5	Mayo	2023-11-05T00:00:00	2024-11-08T00:00:00	5	Humedad	61
123189	7	Sololá	713	San Lucas Tolimán	10	San Lucas Tolimán	5	Mayo	2023-11-05T00:00:00	2024-11-08T00:00:00	6	Velocidad del viento	6.4
123190	7	Sololá	713	San Lucas Tolimán	10	San Lucas Tolimán	5	Mayo	2023-11-05T00:00:00	2024-11-08T00:00:00	7	Dirección del viento	6.44
123191	7	Sololá	713	San Lucas Tolimán	10	San Lucas Tolimán	5	Mayo	2023-11-05T00:00:00	2024-11-08T00:00:00	1	Precipitación	0
123192	7	Sololá	713	San Lucas Tolimán	10	San Lucas Tolimán	5	Mayo	2023-11-05T00:00:00	2024-11-08T00:00:00	8	Radiación solar	0
123193	7	Sololá	713	San Lucas Tolimán	10	San Lucas Tolimán	5	Mayo	2023-11-05T00:00:00	2024-11-08T01:00:00	2	Temperatura media	16.3
123194	7	Sololá	713	San Lucas Tolimán	10	San Lucas Tolimán	5	Mayo	2023-11-05T00:00:00	2024-11-08T01:00:00	4	Temperatura máxima	16.3
123195	7	Sololá	713	San Lucas Tolimán	10	San Lucas Tolimán	5	Mayo	2023-11-05T00:00:00	2024-11-08T01:00:00	3	Temperatura mínima	15
123196	7	Sololá	713	San Lucas Tolimán	10	San Lucas Tolimán	5	Mayo	2023-11-05T00:00:00	2024-11-08T01:00:00	5	Humedad	61
123197	7	Sololá	713	San Lucas Tolimán	10	San Lucas Tolimán	5	Mayo	2023-11-05T00:00:00	2024-11-08T01:00:00	6	Velocidad del viento	3.2
123198	7	Sololá	713	San Lucas Tolimán	10	San Lucas Tolimán	5	Mayo	2023-11-05T00:00:00	2024-11-08T01:00:00	7	Dirección del viento	3.22
123199	7	Sololá	713	San Lucas Tolimán	10	San Lucas Tolimán	5	Mayo	2023-11-05T00:00:00	2024-11-08T01:00:00	1	Precipitación	0
123200	7	Sololá	713	San Lucas Tolimán	10	San Lucas Tolimán	5	Mayo	2023-11-05T00:00:00	2024-11-08T01:00:00	8	Radiación solar	0
123201	7	Sololá	713	San Lucas Tolimán	10	San Lucas Tolimán	5	Mayo	2023-11-05T00:00:00	2024-11-08T02:00:00	2	Temperatura media	15.7
123202	7	Sololá	713	San Lucas Tolimán	10	San Lucas Tolimán	5	Mayo	2023-11-05T00:00:00	2024-11-08T02:00:00	4	Temperatura máxima	16.3
123203	7	Sololá	713	San Lucas Tolimán	10	San Lucas Tolimán	5	Mayo	2023-11-05T00:00:00	2024-11-08T02:00:00	3	Temperatura mínima	15.7
123204	7	Sololá	713	San Lucas Tolimán	10	San Lucas Tolimán	5	Mayo	2023-11-05T00:00:00	2024-11-08T02:00:00	5	Humedad	61
123205	7	Sololá	713	San Lucas Tolimán	10	San Lucas Tolimán	5	Mayo	2023-11-05T00:00:00	2024-11-08T02:00:00	6	Velocidad del viento	0
123206	7	Sololá	713	San Lucas Tolimán	10	San Lucas Tolimán	5	Mayo	2023-11-05T00:00:00	2024-11-08T02:00:00	7	Dirección del viento	0
123207	7	Sololá	713	San Lucas Tolimán	10	San Lucas Tolimán	5	Mayo	2023-11-05T00:00:00	2024-11-08T02:00:00	1	Precipitación	0
123208	7	Sololá	713	San Lucas Tolimán	10	San Lucas Tolimán	5	Mayo	2023-11-05T00:00:00	2024-11-08T02:00:00	8	Radiación solar	0
123209	7	Sololá	713	San Lucas Tolimán	10	San Lucas Tolimán	5	Mayo	2023-11-05T00:00:00	2024-11-08T03:00:00	2	Temperatura media	15.8
123210	7	Sololá	713	San Lucas Tolimán	10	San Lucas Tolimán	5	Mayo	2023-11-05T00:00:00	2024-11-08T03:00:00	4	Temperatura máxima	15.8
123211	7	Sololá	713	San Lucas Tolimán	10	San Lucas Tolimán	5	Mayo	2023-11-05T00:00:00	2024-11-08T03:00:00	3	Temperatura mínima	15.6
123212	7	Sololá	713	San Lucas Tolimán	10	San Lucas Tolimán	5	Mayo	2023-11-05T00:00:00	2024-11-08T03:00:00	5	Humedad	61
123213	7	Sololá	713	San Lucas Tolimán	10	San Lucas Tolimán	5	Mayo	2023-11-05T00:00:00	2024-11-08T03:00:00	6	Velocidad del viento	3.2
123214	7	Sololá	713	San Lucas Tolimán	10	San Lucas Tolimán	5	Mayo	2023-11-05T00:00:00	2024-11-08T03:00:00	7	Dirección del viento	3.22
123215	7	Sololá	713	San Lucas Tolimán	10	San Lucas Tolimán	5	Mayo	2023-11-05T00:00:00	2024-11-08T03:00:00	1	Precipitación	0
123216	7	Sololá	713	San Lucas Tolimán	10	San Lucas Tolimán	5	Mayo	2023-11-05T00:00:00	2024-11-08T03:00:00	8	Radiación solar	0
123217	7	Sololá	713	San Lucas Tolimán	10	San Lucas Tolimán	5	Mayo	2023-11-05T00:00:00	2024-11-08T04:00:00	2	Temperatura media	15.6
123218	7	Sololá	713	San Lucas Tolimán	10	San Lucas Tolimán	5	Mayo	2023-11-05T00:00:00	2024-11-08T04:00:00	4	Temperatura máxima	16.1
123219	7	Sololá	713	San Lucas Tolimán	10	San Lucas Tolimán	5	Mayo	2023-11-05T00:00:00	2024-11-08T04:00:00	3	Temperatura mínima	15.6
123220	7	Sololá	713	San Lucas Tolimán	10	San Lucas Tolimán	5	Mayo	2023-11-05T00:00:00	2024-11-08T04:00:00	5	Humedad	61
123221	7	Sololá	713	San Lucas Tolimán	10	San Lucas Tolimán	5	Mayo	2023-11-05T00:00:00	2024-11-08T04:00:00	6	Velocidad del viento	3.2
123222	7	Sololá	713	San Lucas Tolimán	10	San Lucas Tolimán	5	Mayo	2023-11-05T00:00:00	2024-11-08T04:00:00	7	Dirección del viento	3.22
123223	7	Sololá	713	San Lucas Tolimán	10	San Lucas Tolimán	5	Mayo	2023-11-05T00:00:00	2024-11-08T04:00:00	1	Precipitación	0
123224	7	Sololá	713	San Lucas Tolimán	10	San Lucas Tolimán	5	Mayo	2023-11-05T00:00:00	2024-11-08T04:00:00	8	Radiación solar	0
123225	7	Sololá	713	San Lucas Tolimán	10	San Lucas Tolimán	5	Mayo	2023-11-05T00:00:00	2024-11-08T05:00:00	2	Temperatura media	15.5
123226	7	Sololá	713	San Lucas Tolimán	10	San Lucas Tolimán	5	Mayo	2023-11-05T00:00:00	2024-11-08T05:00:00	4	Temperatura máxima	15.6
123227	7	Sololá	713	San Lucas Tolimán	10	San Lucas Tolimán	5	Mayo	2023-11-05T00:00:00	2024-11-08T05:00:00	3	Temperatura mínima	15.4
123228	7	Sololá	713	San Lucas Tolimán	10	San Lucas Tolimán	5	Mayo	2023-11-05T00:00:00	2024-11-08T05:00:00	5	Humedad	60
123229	7	Sololá	713	San Lucas Tolimán	10	San Lucas Tolimán	5	Mayo	2023-11-05T00:00:00	2024-11-08T05:00:00	6	Velocidad del viento	0
123230	7	Sololá	713	San Lucas Tolimán	10	San Lucas Tolimán	5	Mayo	2023-11-05T00:00:00	2024-11-08T05:00:00	7	Dirección del viento	0
123231	7	Sololá	713	San Lucas Tolimán	10	San Lucas Tolimán	5	Mayo	2023-11-05T00:00:00	2024-11-08T05:00:00	1	Precipitación	0
123232	7	Sololá	713	San Lucas Tolimán	10	San Lucas Tolimán	5	Mayo	2023-11-05T00:00:00	2024-11-08T05:00:00	8	Radiación solar	0
123233	7	Sololá	713	San Lucas Tolimán	10	San Lucas Tolimán	5	Mayo	2023-11-05T00:00:00	2024-11-08T06:00:00	2	Temperatura media	15.1
123234	7	Sololá	713	San Lucas Tolimán	10	San Lucas Tolimán	5	Mayo	2023-11-05T00:00:00	2024-11-08T06:00:00	4	Temperatura máxima	15.6
123235	7	Sololá	713	San Lucas Tolimán	10	San Lucas Tolimán	5	Mayo	2023-11-05T00:00:00	2024-11-08T06:00:00	3	Temperatura mínima	15
123236	7	Sololá	713	San Lucas Tolimán	10	San Lucas Tolimán	5	Mayo	2023-11-05T00:00:00	2024-11-08T06:00:00	5	Humedad	61
123237	7	Sololá	713	San Lucas Tolimán	10	San Lucas Tolimán	5	Mayo	2023-11-05T00:00:00	2024-11-08T06:00:00	6	Velocidad del viento	0
123238	7	Sololá	713	San Lucas Tolimán	10	San Lucas Tolimán	5	Mayo	2023-11-05T00:00:00	2024-11-08T06:00:00	7	Dirección del viento	0
123239	7	Sololá	713	San Lucas Tolimán	10	San Lucas Tolimán	5	Mayo	2023-11-05T00:00:00	2024-11-08T06:00:00	1	Precipitación	0
123240	7	Sololá	713	San Lucas Tolimán	10	San Lucas Tolimán	5	Mayo	2023-11-05T00:00:00	2024-11-08T06:00:00	8	Radiación solar	3
123241	7	Sololá	713	San Lucas Tolimán	10	San Lucas Tolimán	5	Mayo	2023-11-05T00:00:00	2024-11-08T07:00:00	2	Temperatura media	16.9
123242	7	Sololá	713	San Lucas Tolimán	10	San Lucas Tolimán	5	Mayo	2023-11-05T00:00:00	2024-11-08T07:00:00	4	Temperatura máxima	16.9
123243	7	Sololá	713	San Lucas Tolimán	10	San Lucas Tolimán	5	Mayo	2023-11-05T00:00:00	2024-11-08T07:00:00	3	Temperatura mínima	15.1
123244	7	Sololá	713	San Lucas Tolimán	10	San Lucas Tolimán	5	Mayo	2023-11-05T00:00:00	2024-11-08T07:00:00	5	Humedad	60
123245	7	Sololá	713	San Lucas Tolimán	10	San Lucas Tolimán	5	Mayo	2023-11-05T00:00:00	2024-11-08T07:00:00	6	Velocidad del viento	0
123246	7	Sololá	713	San Lucas Tolimán	10	San Lucas Tolimán	5	Mayo	2023-11-05T00:00:00	2024-11-08T07:00:00	7	Dirección del viento	0
123247	7	Sololá	713	San Lucas Tolimán	10	San Lucas Tolimán	5	Mayo	2023-11-05T00:00:00	2024-11-08T07:00:00	1	Precipitación	0
123248	7	Sololá	713	San Lucas Tolimán	10	San Lucas Tolimán	5	Mayo	2023-11-05T00:00:00	2024-11-08T07:00:00	8	Radiación solar	93
123249	7	Sololá	713	San Lucas Tolimán	10	San Lucas Tolimán	5	Mayo	2023-11-05T00:00:00	2024-11-08T08:00:00	2	Temperatura media	18.9
123250	7	Sololá	713	San Lucas Tolimán	10	San Lucas Tolimán	5	Mayo	2023-11-05T00:00:00	2024-11-08T08:00:00	4	Temperatura máxima	18.9
123251	7	Sololá	713	San Lucas Tolimán	10	San Lucas Tolimán	5	Mayo	2023-11-05T00:00:00	2024-11-08T08:00:00	3	Temperatura mínima	16.9
123252	7	Sololá	713	San Lucas Tolimán	10	San Lucas Tolimán	5	Mayo	2023-11-05T00:00:00	2024-11-08T08:00:00	5	Humedad	56
123253	7	Sololá	713	San Lucas Tolimán	10	San Lucas Tolimán	5	Mayo	2023-11-05T00:00:00	2024-11-08T08:00:00	6	Velocidad del viento	4.8
123254	7	Sololá	713	San Lucas Tolimán	10	San Lucas Tolimán	5	Mayo	2023-11-05T00:00:00	2024-11-08T08:00:00	7	Dirección del viento	4.83
123255	7	Sololá	713	San Lucas Tolimán	10	San Lucas Tolimán	5	Mayo	2023-11-05T00:00:00	2024-11-08T08:00:00	1	Precipitación	0
123256	7	Sololá	713	San Lucas Tolimán	10	San Lucas Tolimán	5	Mayo	2023-11-05T00:00:00	2024-11-08T08:00:00	8	Radiación solar	340
123257	7	Sololá	713	San Lucas Tolimán	10	San Lucas Tolimán	5	Mayo	2023-11-05T00:00:00	2024-11-08T09:00:00	2	Temperatura media	20.7
123258	7	Sololá	713	San Lucas Tolimán	10	San Lucas Tolimán	5	Mayo	2023-11-05T00:00:00	2024-11-08T09:00:00	4	Temperatura máxima	20.7
123259	7	Sololá	713	San Lucas Tolimán	10	San Lucas Tolimán	5	Mayo	2023-11-05T00:00:00	2024-11-08T09:00:00	3	Temperatura mínima	18.9
123260	7	Sololá	713	San Lucas Tolimán	10	San Lucas Tolimán	5	Mayo	2023-11-05T00:00:00	2024-11-08T09:00:00	5	Humedad	56
123261	7	Sololá	713	San Lucas Tolimán	10	San Lucas Tolimán	5	Mayo	2023-11-05T00:00:00	2024-11-08T09:00:00	6	Velocidad del viento	3.2
123262	7	Sololá	713	San Lucas Tolimán	10	San Lucas Tolimán	5	Mayo	2023-11-05T00:00:00	2024-11-08T09:00:00	7	Dirección del viento	3.22
123263	7	Sololá	713	San Lucas Tolimán	10	San Lucas Tolimán	5	Mayo	2023-11-05T00:00:00	2024-11-08T09:00:00	1	Precipitación	0
123264	7	Sololá	713	San Lucas Tolimán	10	San Lucas Tolimán	5	Mayo	2023-11-05T00:00:00	2024-11-08T09:00:00	8	Radiación solar	362
123265	7	Sololá	713	San Lucas Tolimán	10	San Lucas Tolimán	5	Mayo	2023-11-05T00:00:00	2024-11-08T10:00:00	2	Temperatura media	21.5
123266	7	Sololá	713	San Lucas Tolimán	10	San Lucas Tolimán	5	Mayo	2023-11-05T00:00:00	2024-11-08T10:00:00	4	Temperatura máxima	21.6
123267	7	Sololá	713	San Lucas Tolimán	10	San Lucas Tolimán	5	Mayo	2023-11-05T00:00:00	2024-11-08T10:00:00	3	Temperatura mínima	20.7
123268	7	Sololá	713	San Lucas Tolimán	10	San Lucas Tolimán	5	Mayo	2023-11-05T00:00:00	2024-11-08T10:00:00	5	Humedad	57
123269	7	Sololá	713	San Lucas Tolimán	10	San Lucas Tolimán	5	Mayo	2023-11-05T00:00:00	2024-11-08T10:00:00	6	Velocidad del viento	4.8
123270	7	Sololá	713	San Lucas Tolimán	10	San Lucas Tolimán	5	Mayo	2023-11-05T00:00:00	2024-11-08T10:00:00	7	Dirección del viento	4.83
123271	7	Sololá	713	San Lucas Tolimán	10	San Lucas Tolimán	5	Mayo	2023-11-05T00:00:00	2024-11-08T10:00:00	1	Precipitación	0
123272	7	Sololá	713	San Lucas Tolimán	10	San Lucas Tolimán	5	Mayo	2023-11-05T00:00:00	2024-11-08T10:00:00	8	Radiación solar	747
123273	7	Sololá	713	San Lucas Tolimán	10	San Lucas Tolimán	5	Mayo	2023-11-05T00:00:00	2024-11-08T11:00:00	2	Temperatura media	23.4
123274	7	Sololá	713	San Lucas Tolimán	10	San Lucas Tolimán	5	Mayo	2023-11-05T00:00:00	2024-11-08T11:00:00	4	Temperatura máxima	23.6
123275	7	Sololá	713	San Lucas Tolimán	10	San Lucas Tolimán	5	Mayo	2023-11-05T00:00:00	2024-11-08T11:00:00	3	Temperatura mínima	21.5
123276	7	Sololá	713	San Lucas Tolimán	10	San Lucas Tolimán	5	Mayo	2023-11-05T00:00:00	2024-11-08T11:00:00	5	Humedad	54
123277	7	Sololá	713	San Lucas Tolimán	10	San Lucas Tolimán	5	Mayo	2023-11-05T00:00:00	2024-11-08T11:00:00	6	Velocidad del viento	6.4
123278	7	Sololá	713	San Lucas Tolimán	10	San Lucas Tolimán	5	Mayo	2023-11-05T00:00:00	2024-11-08T11:00:00	7	Dirección del viento	6.44
123279	7	Sololá	713	San Lucas Tolimán	10	San Lucas Tolimán	5	Mayo	2023-11-05T00:00:00	2024-11-08T11:00:00	1	Precipitación	0
123280	7	Sololá	713	San Lucas Tolimán	10	San Lucas Tolimán	5	Mayo	2023-11-05T00:00:00	2024-11-08T11:00:00	8	Radiación solar	992
123281	7	Sololá	713	San Lucas Tolimán	10	San Lucas Tolimán	5	Mayo	2023-11-05T00:00:00	2024-11-08T12:00:00	2	Temperatura media	23.8
123282	7	Sololá	713	San Lucas Tolimán	10	San Lucas Tolimán	5	Mayo	2023-11-05T00:00:00	2024-11-08T12:00:00	4	Temperatura máxima	24
123283	7	Sololá	713	San Lucas Tolimán	10	San Lucas Tolimán	5	Mayo	2023-11-05T00:00:00	2024-11-08T12:00:00	3	Temperatura mínima	23.3
123284	7	Sololá	713	San Lucas Tolimán	10	San Lucas Tolimán	5	Mayo	2023-11-05T00:00:00	2024-11-08T12:00:00	5	Humedad	57
123285	7	Sololá	713	San Lucas Tolimán	10	San Lucas Tolimán	5	Mayo	2023-11-05T00:00:00	2024-11-08T12:00:00	6	Velocidad del viento	8
123286	7	Sololá	713	San Lucas Tolimán	10	San Lucas Tolimán	5	Mayo	2023-11-05T00:00:00	2024-11-08T12:00:00	7	Dirección del viento	8.05
123287	7	Sololá	713	San Lucas Tolimán	10	San Lucas Tolimán	5	Mayo	2023-11-05T00:00:00	2024-11-08T12:00:00	1	Precipitación	0
123288	7	Sololá	713	San Lucas Tolimán	10	San Lucas Tolimán	5	Mayo	2023-11-05T00:00:00	2024-11-08T12:00:00	8	Radiación solar	1080
123289	7	Sololá	713	San Lucas Tolimán	10	San Lucas Tolimán	5	Mayo	2023-11-05T00:00:00	2024-11-08T13:00:00	2	Temperatura media	23
123290	7	Sololá	713	San Lucas Tolimán	10	San Lucas Tolimán	5	Mayo	2023-11-05T00:00:00	2024-11-08T13:00:00	4	Temperatura máxima	24.3
123291	7	Sololá	713	San Lucas Tolimán	10	San Lucas Tolimán	5	Mayo	2023-11-05T00:00:00	2024-11-08T13:00:00	3	Temperatura mínima	23
123292	7	Sololá	713	San Lucas Tolimán	10	San Lucas Tolimán	5	Mayo	2023-11-05T00:00:00	2024-11-08T13:00:00	5	Humedad	57
123293	7	Sololá	713	San Lucas Tolimán	10	San Lucas Tolimán	5	Mayo	2023-11-05T00:00:00	2024-11-08T13:00:00	6	Velocidad del viento	11.3
123294	7	Sololá	713	San Lucas Tolimán	10	San Lucas Tolimán	5	Mayo	2023-11-05T00:00:00	2024-11-08T13:00:00	7	Dirección del viento	11.27
123295	7	Sololá	713	San Lucas Tolimán	10	San Lucas Tolimán	5	Mayo	2023-11-05T00:00:00	2024-11-08T13:00:00	1	Precipitación	0
123296	7	Sololá	713	San Lucas Tolimán	10	San Lucas Tolimán	5	Mayo	2023-11-05T00:00:00	2024-11-08T13:00:00	8	Radiación solar	1029
123297	7	Sololá	713	San Lucas Tolimán	10	San Lucas Tolimán	5	Mayo	2023-11-05T00:00:00	2024-11-08T14:00:00	2	Temperatura media	21.9
123298	7	Sololá	713	San Lucas Tolimán	10	San Lucas Tolimán	5	Mayo	2023-11-05T00:00:00	2024-11-08T14:00:00	4	Temperatura máxima	23.8
123299	7	Sololá	713	San Lucas Tolimán	10	San Lucas Tolimán	5	Mayo	2023-11-05T00:00:00	2024-11-08T14:00:00	3	Temperatura mínima	21.9
123300	7	Sololá	713	San Lucas Tolimán	10	San Lucas Tolimán	5	Mayo	2023-11-05T00:00:00	2024-11-08T14:00:00	5	Humedad	60
123301	7	Sololá	713	San Lucas Tolimán	10	San Lucas Tolimán	5	Mayo	2023-11-05T00:00:00	2024-11-08T14:00:00	6	Velocidad del viento	9.7
123302	7	Sololá	713	San Lucas Tolimán	10	San Lucas Tolimán	5	Mayo	2023-11-05T00:00:00	2024-11-08T14:00:00	7	Dirección del viento	9.66
123303	7	Sololá	713	San Lucas Tolimán	10	San Lucas Tolimán	5	Mayo	2023-11-05T00:00:00	2024-11-08T14:00:00	1	Precipitación	0
123304	7	Sololá	713	San Lucas Tolimán	10	San Lucas Tolimán	5	Mayo	2023-11-05T00:00:00	2024-11-08T14:00:00	8	Radiación solar	541
123305	7	Sololá	713	San Lucas Tolimán	10	San Lucas Tolimán	5	Mayo	2023-11-05T00:00:00	2024-11-08T15:00:00	2	Temperatura media	21.6
123306	7	Sololá	713	San Lucas Tolimán	10	San Lucas Tolimán	5	Mayo	2023-11-05T00:00:00	2024-11-08T15:00:00	4	Temperatura máxima	22.3
123307	7	Sololá	713	San Lucas Tolimán	10	San Lucas Tolimán	5	Mayo	2023-11-05T00:00:00	2024-11-08T15:00:00	3	Temperatura mínima	21.5
123308	7	Sololá	713	San Lucas Tolimán	10	San Lucas Tolimán	5	Mayo	2023-11-05T00:00:00	2024-11-08T15:00:00	5	Humedad	63
123309	7	Sololá	713	San Lucas Tolimán	10	San Lucas Tolimán	5	Mayo	2023-11-05T00:00:00	2024-11-08T15:00:00	6	Velocidad del viento	8
123310	7	Sololá	713	San Lucas Tolimán	10	San Lucas Tolimán	5	Mayo	2023-11-05T00:00:00	2024-11-08T15:00:00	7	Dirección del viento	8.05
123311	7	Sololá	713	San Lucas Tolimán	10	San Lucas Tolimán	5	Mayo	2023-11-05T00:00:00	2024-11-08T15:00:00	1	Precipitación	0
123312	7	Sololá	713	San Lucas Tolimán	10	San Lucas Tolimán	5	Mayo	2023-11-05T00:00:00	2024-11-08T15:00:00	8	Radiación solar	309
123313	7	Sololá	713	San Lucas Tolimán	10	San Lucas Tolimán	5	Mayo	2023-11-05T00:00:00	2024-11-08T16:00:00	2	Temperatura media	21.7
123314	7	Sololá	713	San Lucas Tolimán	10	San Lucas Tolimán	5	Mayo	2023-11-05T00:00:00	2024-11-08T16:00:00	4	Temperatura máxima	21.7
123315	7	Sololá	713	San Lucas Tolimán	10	San Lucas Tolimán	5	Mayo	2023-11-05T00:00:00	2024-11-08T16:00:00	3	Temperatura mínima	20.9
123316	7	Sololá	713	San Lucas Tolimán	10	San Lucas Tolimán	5	Mayo	2023-11-05T00:00:00	2024-11-08T16:00:00	5	Humedad	61
123317	7	Sololá	713	San Lucas Tolimán	10	San Lucas Tolimán	5	Mayo	2023-11-05T00:00:00	2024-11-08T16:00:00	6	Velocidad del viento	6.4
123318	7	Sololá	713	San Lucas Tolimán	10	San Lucas Tolimán	5	Mayo	2023-11-05T00:00:00	2024-11-08T16:00:00	7	Dirección del viento	6.44
123319	7	Sololá	713	San Lucas Tolimán	10	San Lucas Tolimán	5	Mayo	2023-11-05T00:00:00	2024-11-08T16:00:00	1	Precipitación	0
123320	7	Sololá	713	San Lucas Tolimán	10	San Lucas Tolimán	5	Mayo	2023-11-05T00:00:00	2024-11-08T16:00:00	8	Radiación solar	199
123321	7	Sololá	713	San Lucas Tolimán	10	San Lucas Tolimán	5	Mayo	2023-11-05T00:00:00	2024-11-08T17:00:00	2	Temperatura media	20.4
123322	7	Sololá	713	San Lucas Tolimán	10	San Lucas Tolimán	5	Mayo	2023-11-05T00:00:00	2024-11-08T17:00:00	4	Temperatura máxima	21.7
123323	7	Sololá	713	San Lucas Tolimán	10	San Lucas Tolimán	5	Mayo	2023-11-05T00:00:00	2024-11-08T17:00:00	3	Temperatura mínima	20.4
123324	7	Sololá	713	San Lucas Tolimán	10	San Lucas Tolimán	5	Mayo	2023-11-05T00:00:00	2024-11-08T17:00:00	5	Humedad	60
123325	7	Sololá	713	San Lucas Tolimán	10	San Lucas Tolimán	5	Mayo	2023-11-05T00:00:00	2024-11-08T17:00:00	6	Velocidad del viento	8
123326	7	Sololá	713	San Lucas Tolimán	10	San Lucas Tolimán	5	Mayo	2023-11-05T00:00:00	2024-11-08T17:00:00	7	Dirección del viento	8.05
123327	7	Sololá	713	San Lucas Tolimán	10	San Lucas Tolimán	5	Mayo	2023-11-05T00:00:00	2024-11-08T17:00:00	1	Precipitación	0
123328	7	Sololá	713	San Lucas Tolimán	10	San Lucas Tolimán	5	Mayo	2023-11-05T00:00:00	2024-11-08T17:00:00	8	Radiación solar	135
123329	7	Sololá	713	San Lucas Tolimán	10	San Lucas Tolimán	5	Mayo	2023-11-05T00:00:00	2024-11-08T18:00:00	2	Temperatura media	20.2
123330	7	Sololá	713	San Lucas Tolimán	10	San Lucas Tolimán	5	Mayo	2023-11-05T00:00:00	2024-11-08T18:00:00	4	Temperatura máxima	20.4
123331	7	Sololá	713	San Lucas Tolimán	10	San Lucas Tolimán	5	Mayo	2023-11-05T00:00:00	2024-11-08T18:00:00	3	Temperatura mínima	20.2
123332	7	Sololá	713	San Lucas Tolimán	10	San Lucas Tolimán	5	Mayo	2023-11-05T00:00:00	2024-11-08T18:00:00	5	Humedad	61
123333	7	Sololá	713	San Lucas Tolimán	10	San Lucas Tolimán	5	Mayo	2023-11-05T00:00:00	2024-11-08T18:00:00	6	Velocidad del viento	3.2
123334	7	Sololá	713	San Lucas Tolimán	10	San Lucas Tolimán	5	Mayo	2023-11-05T00:00:00	2024-11-08T18:00:00	7	Dirección del viento	3.22
123335	7	Sololá	713	San Lucas Tolimán	10	San Lucas Tolimán	5	Mayo	2023-11-05T00:00:00	2024-11-08T18:00:00	1	Precipitación	0
123336	7	Sololá	713	San Lucas Tolimán	10	San Lucas Tolimán	5	Mayo	2023-11-05T00:00:00	2024-11-08T18:00:00	8	Radiación solar	47
123337	7	Sololá	713	San Lucas Tolimán	10	San Lucas Tolimán	5	Mayo	2023-11-05T00:00:00	2024-11-08T19:00:00	2	Temperatura media	19.4
123338	7	Sololá	713	San Lucas Tolimán	10	San Lucas Tolimán	5	Mayo	2023-11-05T00:00:00	2024-11-08T19:00:00	4	Temperatura máxima	20.3
123339	7	Sololá	713	San Lucas Tolimán	10	San Lucas Tolimán	5	Mayo	2023-11-05T00:00:00	2024-11-08T19:00:00	3	Temperatura mínima	19.4
123340	7	Sololá	713	San Lucas Tolimán	10	San Lucas Tolimán	5	Mayo	2023-11-05T00:00:00	2024-11-08T19:00:00	5	Humedad	62
123341	7	Sololá	713	San Lucas Tolimán	10	San Lucas Tolimán	5	Mayo	2023-11-05T00:00:00	2024-11-08T19:00:00	6	Velocidad del viento	1.6
123342	7	Sololá	713	San Lucas Tolimán	10	San Lucas Tolimán	5	Mayo	2023-11-05T00:00:00	2024-11-08T19:00:00	7	Dirección del viento	1.61
123343	7	Sololá	713	San Lucas Tolimán	10	San Lucas Tolimán	5	Mayo	2023-11-05T00:00:00	2024-11-08T19:00:00	1	Precipitación	0
123344	7	Sololá	713	San Lucas Tolimán	10	San Lucas Tolimán	5	Mayo	2023-11-05T00:00:00	2024-11-08T19:00:00	8	Radiación solar	0
123345	7	Sololá	713	San Lucas Tolimán	10	San Lucas Tolimán	5	Mayo	2023-11-05T00:00:00	2024-11-08T20:00:00	2	Temperatura media	18.8
123346	7	Sololá	713	San Lucas Tolimán	10	San Lucas Tolimán	5	Mayo	2023-11-05T00:00:00	2024-11-08T20:00:00	4	Temperatura máxima	19.4
123347	7	Sololá	713	San Lucas Tolimán	10	San Lucas Tolimán	5	Mayo	2023-11-05T00:00:00	2024-11-08T20:00:00	3	Temperatura mínima	18.6
123348	7	Sololá	713	San Lucas Tolimán	10	San Lucas Tolimán	5	Mayo	2023-11-05T00:00:00	2024-11-08T20:00:00	5	Humedad	60
123349	7	Sololá	713	San Lucas Tolimán	10	San Lucas Tolimán	5	Mayo	2023-11-05T00:00:00	2024-11-08T20:00:00	6	Velocidad del viento	1.6
123350	7	Sololá	713	San Lucas Tolimán	10	San Lucas Tolimán	5	Mayo	2023-11-05T00:00:00	2024-11-08T20:00:00	7	Dirección del viento	1.61
123351	7	Sololá	713	San Lucas Tolimán	10	San Lucas Tolimán	5	Mayo	2023-11-05T00:00:00	2024-11-08T20:00:00	1	Precipitación	0
123352	7	Sololá	713	San Lucas Tolimán	10	San Lucas Tolimán	5	Mayo	2023-11-05T00:00:00	2024-11-08T20:00:00	8	Radiación solar	0
123353	7	Sololá	713	San Lucas Tolimán	10	San Lucas Tolimán	5	Mayo	2023-11-05T00:00:00	2024-11-08T21:00:00	2	Temperatura media	18.2
123354	7	Sololá	713	San Lucas Tolimán	10	San Lucas Tolimán	5	Mayo	2023-11-05T00:00:00	2024-11-08T21:00:00	4	Temperatura máxima	19.1
123355	7	Sololá	713	San Lucas Tolimán	10	San Lucas Tolimán	5	Mayo	2023-11-05T00:00:00	2024-11-08T21:00:00	3	Temperatura mínima	18.1
123356	7	Sololá	713	San Lucas Tolimán	10	San Lucas Tolimán	5	Mayo	2023-11-05T00:00:00	2024-11-08T21:00:00	5	Humedad	62
123357	7	Sololá	713	San Lucas Tolimán	10	San Lucas Tolimán	5	Mayo	2023-11-05T00:00:00	2024-11-08T21:00:00	6	Velocidad del viento	4.8
123358	7	Sololá	713	San Lucas Tolimán	10	San Lucas Tolimán	5	Mayo	2023-11-05T00:00:00	2024-11-08T21:00:00	7	Dirección del viento	4.83
123359	7	Sololá	713	San Lucas Tolimán	10	San Lucas Tolimán	5	Mayo	2023-11-05T00:00:00	2024-11-08T21:00:00	1	Precipitación	0
123360	7	Sololá	713	San Lucas Tolimán	10	San Lucas Tolimán	5	Mayo	2023-11-05T00:00:00	2024-11-08T21:00:00	8	Radiación solar	0
123361	7	Sololá	713	San Lucas Tolimán	10	San Lucas Tolimán	5	Mayo	2023-11-05T00:00:00	2024-11-08T22:00:00	2	Temperatura media	18.1
123362	7	Sololá	713	San Lucas Tolimán	10	San Lucas Tolimán	5	Mayo	2023-11-05T00:00:00	2024-11-08T22:00:00	4	Temperatura máxima	18.4
123363	7	Sololá	713	San Lucas Tolimán	10	San Lucas Tolimán	5	Mayo	2023-11-05T00:00:00	2024-11-08T22:00:00	3	Temperatura mínima	18.1
123364	7	Sololá	713	San Lucas Tolimán	10	San Lucas Tolimán	5	Mayo	2023-11-05T00:00:00	2024-11-08T22:00:00	5	Humedad	59
123365	7	Sololá	713	San Lucas Tolimán	10	San Lucas Tolimán	5	Mayo	2023-11-05T00:00:00	2024-11-08T22:00:00	6	Velocidad del viento	3.2
123366	7	Sololá	713	San Lucas Tolimán	10	San Lucas Tolimán	5	Mayo	2023-11-05T00:00:00	2024-11-08T22:00:00	7	Dirección del viento	3.22
123367	7	Sololá	713	San Lucas Tolimán	10	San Lucas Tolimán	5	Mayo	2023-11-05T00:00:00	2024-11-08T22:00:00	1	Precipitación	0
123368	7	Sololá	713	San Lucas Tolimán	10	San Lucas Tolimán	5	Mayo	2023-11-05T00:00:00	2024-11-08T22:00:00	8	Radiación solar	0
123369	7	Sololá	713	San Lucas Tolimán	10	San Lucas Tolimán	5	Mayo	2023-11-05T00:00:00	2024-11-08T23:00:00	2	Temperatura media	18.3
123370	7	Sololá	713	San Lucas Tolimán	10	San Lucas Tolimán	5	Mayo	2023-11-05T00:00:00	2024-11-08T23:00:00	4	Temperatura máxima	18.5
123371	7	Sololá	713	San Lucas Tolimán	10	San Lucas Tolimán	5	Mayo	2023-11-05T00:00:00	2024-11-08T23:00:00	3	Temperatura mínima	18.1
123372	7	Sololá	713	San Lucas Tolimán	10	San Lucas Tolimán	5	Mayo	2023-11-05T00:00:00	2024-11-08T23:00:00	5	Humedad	60
123373	7	Sololá	713	San Lucas Tolimán	10	San Lucas Tolimán	5	Mayo	2023-11-05T00:00:00	2024-11-08T23:00:00	6	Velocidad del viento	3.2
123374	7	Sololá	713	San Lucas Tolimán	10	San Lucas Tolimán	5	Mayo	2023-11-05T00:00:00	2024-11-08T23:00:00	7	Dirección del viento	3.22
123375	7	Sololá	713	San Lucas Tolimán	10	San Lucas Tolimán	5	Mayo	2023-11-05T00:00:00	2024-11-08T23:00:00	1	Precipitación	0
123376	7	Sololá	713	San Lucas Tolimán	10	San Lucas Tolimán	5	Mayo	2023-11-05T00:00:00	2024-11-08T23:00:00	8	Radiación solar	0
123377	7	Sololá	713	San Lucas Tolimán	10	San Lucas Tolimán	5	Mayo	2023-12-05T00:00:00	2024-11-08T00:00:00	2	Temperatura media	18.4
123378	7	Sololá	713	San Lucas Tolimán	10	San Lucas Tolimán	5	Mayo	2023-12-05T00:00:00	2024-11-08T00:00:00	4	Temperatura máxima	18.4
123379	7	Sololá	713	San Lucas Tolimán	10	San Lucas Tolimán	5	Mayo	2023-12-05T00:00:00	2024-11-08T00:00:00	3	Temperatura mínima	18.1
123380	7	Sololá	713	San Lucas Tolimán	10	San Lucas Tolimán	5	Mayo	2023-12-05T00:00:00	2024-11-08T00:00:00	5	Humedad	60
123381	7	Sololá	713	San Lucas Tolimán	10	San Lucas Tolimán	5	Mayo	2023-12-05T00:00:00	2024-11-08T00:00:00	6	Velocidad del viento	3.2
123382	7	Sololá	713	San Lucas Tolimán	10	San Lucas Tolimán	5	Mayo	2023-12-05T00:00:00	2024-11-08T00:00:00	7	Dirección del viento	3.22
123383	7	Sololá	713	San Lucas Tolimán	10	San Lucas Tolimán	5	Mayo	2023-12-05T00:00:00	2024-11-08T00:00:00	1	Precipitación	0
123384	7	Sololá	713	San Lucas Tolimán	10	San Lucas Tolimán	5	Mayo	2023-12-05T00:00:00	2024-11-08T00:00:00	8	Radiación solar	0
123385	7	Sololá	713	San Lucas Tolimán	10	San Lucas Tolimán	5	Mayo	2023-12-05T00:00:00	2024-11-08T01:00:00	2	Temperatura media	18.2
123386	7	Sololá	713	San Lucas Tolimán	10	San Lucas Tolimán	5	Mayo	2023-12-05T00:00:00	2024-11-08T01:00:00	4	Temperatura máxima	18.4
123387	7	Sololá	713	San Lucas Tolimán	10	San Lucas Tolimán	5	Mayo	2023-12-05T00:00:00	2024-11-08T01:00:00	3	Temperatura mínima	18.1
123388	7	Sololá	713	San Lucas Tolimán	10	San Lucas Tolimán	5	Mayo	2023-12-05T00:00:00	2024-11-08T01:00:00	5	Humedad	61
123389	7	Sololá	713	San Lucas Tolimán	10	San Lucas Tolimán	5	Mayo	2023-12-05T00:00:00	2024-11-08T01:00:00	6	Velocidad del viento	3.2
123390	7	Sololá	713	San Lucas Tolimán	10	San Lucas Tolimán	5	Mayo	2023-12-05T00:00:00	2024-11-08T01:00:00	7	Dirección del viento	3.22
123391	7	Sololá	713	San Lucas Tolimán	10	San Lucas Tolimán	5	Mayo	2023-12-05T00:00:00	2024-11-08T01:00:00	1	Precipitación	0
123392	7	Sololá	713	San Lucas Tolimán	10	San Lucas Tolimán	5	Mayo	2023-12-05T00:00:00	2024-11-08T01:00:00	8	Radiación solar	0
123393	7	Sololá	713	San Lucas Tolimán	10	San Lucas Tolimán	5	Mayo	2023-12-05T00:00:00	2024-11-08T02:00:00	2	Temperatura media	17.6
123394	7	Sololá	713	San Lucas Tolimán	10	San Lucas Tolimán	5	Mayo	2023-12-05T00:00:00	2024-11-08T02:00:00	4	Temperatura máxima	18.3
123395	7	Sololá	713	San Lucas Tolimán	10	San Lucas Tolimán	5	Mayo	2023-12-05T00:00:00	2024-11-08T02:00:00	3	Temperatura mínima	17.5
123396	7	Sololá	713	San Lucas Tolimán	10	San Lucas Tolimán	5	Mayo	2023-12-05T00:00:00	2024-11-08T02:00:00	5	Humedad	62
123397	7	Sololá	713	San Lucas Tolimán	10	San Lucas Tolimán	5	Mayo	2023-12-05T00:00:00	2024-11-08T02:00:00	6	Velocidad del viento	1.6
123398	7	Sololá	713	San Lucas Tolimán	10	San Lucas Tolimán	5	Mayo	2023-12-05T00:00:00	2024-11-08T02:00:00	7	Dirección del viento	1.61
123399	7	Sololá	713	San Lucas Tolimán	10	San Lucas Tolimán	5	Mayo	2023-12-05T00:00:00	2024-11-08T02:00:00	1	Precipitación	0
123400	7	Sololá	713	San Lucas Tolimán	10	San Lucas Tolimán	5	Mayo	2023-12-05T00:00:00	2024-11-08T02:00:00	8	Radiación solar	0
123401	7	Sololá	713	San Lucas Tolimán	10	San Lucas Tolimán	5	Mayo	2023-12-05T00:00:00	2024-11-08T03:00:00	2	Temperatura media	17.7
123402	7	Sololá	713	San Lucas Tolimán	10	San Lucas Tolimán	5	Mayo	2023-12-05T00:00:00	2024-11-08T03:00:00	4	Temperatura máxima	17.7
123403	7	Sololá	713	San Lucas Tolimán	10	San Lucas Tolimán	5	Mayo	2023-12-05T00:00:00	2024-11-08T03:00:00	3	Temperatura mínima	17.3
123404	7	Sololá	713	San Lucas Tolimán	10	San Lucas Tolimán	5	Mayo	2023-12-05T00:00:00	2024-11-08T03:00:00	5	Humedad	62
123405	7	Sololá	713	San Lucas Tolimán	10	San Lucas Tolimán	5	Mayo	2023-12-05T00:00:00	2024-11-08T03:00:00	6	Velocidad del viento	3.2
123406	7	Sololá	713	San Lucas Tolimán	10	San Lucas Tolimán	5	Mayo	2023-12-05T00:00:00	2024-11-08T03:00:00	7	Dirección del viento	3.22
123407	7	Sololá	713	San Lucas Tolimán	10	San Lucas Tolimán	5	Mayo	2023-12-05T00:00:00	2024-11-08T03:00:00	1	Precipitación	0
123408	7	Sololá	713	San Lucas Tolimán	10	San Lucas Tolimán	5	Mayo	2023-12-05T00:00:00	2024-11-08T03:00:00	8	Radiación solar	0
123409	7	Sololá	713	San Lucas Tolimán	10	San Lucas Tolimán	5	Mayo	2023-12-05T00:00:00	2024-11-08T04:00:00	2	Temperatura media	17.2
123410	7	Sololá	713	San Lucas Tolimán	10	San Lucas Tolimán	5	Mayo	2023-12-05T00:00:00	2024-11-08T04:00:00	4	Temperatura máxima	17.8
123411	7	Sololá	713	San Lucas Tolimán	10	San Lucas Tolimán	5	Mayo	2023-12-05T00:00:00	2024-11-08T04:00:00	3	Temperatura mínima	17.2
123412	7	Sololá	713	San Lucas Tolimán	10	San Lucas Tolimán	5	Mayo	2023-12-05T00:00:00	2024-11-08T04:00:00	5	Humedad	62
123413	7	Sololá	713	San Lucas Tolimán	10	San Lucas Tolimán	5	Mayo	2023-12-05T00:00:00	2024-11-08T04:00:00	6	Velocidad del viento	0
123414	7	Sololá	713	San Lucas Tolimán	10	San Lucas Tolimán	5	Mayo	2023-12-05T00:00:00	2024-11-08T04:00:00	7	Dirección del viento	0
123415	7	Sololá	713	San Lucas Tolimán	10	San Lucas Tolimán	5	Mayo	2023-12-05T00:00:00	2024-11-08T04:00:00	1	Precipitación	0
123416	7	Sololá	713	San Lucas Tolimán	10	San Lucas Tolimán	5	Mayo	2023-12-05T00:00:00	2024-11-08T04:00:00	8	Radiación solar	0
123417	7	Sololá	713	San Lucas Tolimán	10	San Lucas Tolimán	5	Mayo	2023-12-05T00:00:00	2024-11-08T05:00:00	2	Temperatura media	16.3
123418	7	Sololá	713	San Lucas Tolimán	10	San Lucas Tolimán	5	Mayo	2023-12-05T00:00:00	2024-11-08T05:00:00	4	Temperatura máxima	17.2
123419	7	Sololá	713	San Lucas Tolimán	10	San Lucas Tolimán	5	Mayo	2023-12-05T00:00:00	2024-11-08T05:00:00	3	Temperatura mínima	16.1
123420	7	Sololá	713	San Lucas Tolimán	10	San Lucas Tolimán	5	Mayo	2023-12-05T00:00:00	2024-11-08T05:00:00	5	Humedad	63
123421	7	Sololá	713	San Lucas Tolimán	10	San Lucas Tolimán	5	Mayo	2023-12-05T00:00:00	2024-11-08T05:00:00	6	Velocidad del viento	3.2
123422	7	Sololá	713	San Lucas Tolimán	10	San Lucas Tolimán	5	Mayo	2023-12-05T00:00:00	2024-11-08T05:00:00	7	Dirección del viento	3.22
123423	7	Sololá	713	San Lucas Tolimán	10	San Lucas Tolimán	5	Mayo	2023-12-05T00:00:00	2024-11-08T05:00:00	1	Precipitación	0
123424	7	Sololá	713	San Lucas Tolimán	10	San Lucas Tolimán	5	Mayo	2023-12-05T00:00:00	2024-11-08T05:00:00	8	Radiación solar	0
123425	7	Sololá	713	San Lucas Tolimán	10	San Lucas Tolimán	5	Mayo	2023-12-05T00:00:00	2024-11-08T06:00:00	2	Temperatura media	16.2
123426	7	Sololá	713	San Lucas Tolimán	10	San Lucas Tolimán	5	Mayo	2023-12-05T00:00:00	2024-11-08T06:00:00	4	Temperatura máxima	16.3
123427	7	Sololá	713	San Lucas Tolimán	10	San Lucas Tolimán	5	Mayo	2023-12-05T00:00:00	2024-11-08T06:00:00	3	Temperatura mínima	16
123428	7	Sololá	713	San Lucas Tolimán	10	San Lucas Tolimán	5	Mayo	2023-12-05T00:00:00	2024-11-08T06:00:00	5	Humedad	63
123429	7	Sololá	713	San Lucas Tolimán	10	San Lucas Tolimán	5	Mayo	2023-12-05T00:00:00	2024-11-08T06:00:00	6	Velocidad del viento	3.2
123430	7	Sololá	713	San Lucas Tolimán	10	San Lucas Tolimán	5	Mayo	2023-12-05T00:00:00	2024-11-08T06:00:00	7	Dirección del viento	3.22
123431	7	Sololá	713	San Lucas Tolimán	10	San Lucas Tolimán	5	Mayo	2023-12-05T00:00:00	2024-11-08T06:00:00	1	Precipitación	0
123432	7	Sololá	713	San Lucas Tolimán	10	San Lucas Tolimán	5	Mayo	2023-12-05T00:00:00	2024-11-08T06:00:00	8	Radiación solar	6
123433	7	Sololá	713	San Lucas Tolimán	10	San Lucas Tolimán	5	Mayo	2023-12-05T00:00:00	2024-11-08T07:00:00	2	Temperatura media	17.8
123434	7	Sololá	713	San Lucas Tolimán	10	San Lucas Tolimán	5	Mayo	2023-12-05T00:00:00	2024-11-08T07:00:00	4	Temperatura máxima	17.8
123435	7	Sololá	713	San Lucas Tolimán	10	San Lucas Tolimán	5	Mayo	2023-12-05T00:00:00	2024-11-08T07:00:00	3	Temperatura mínima	16.1
123436	7	Sololá	713	San Lucas Tolimán	10	San Lucas Tolimán	5	Mayo	2023-12-05T00:00:00	2024-11-08T07:00:00	5	Humedad	63
123437	7	Sololá	713	San Lucas Tolimán	10	San Lucas Tolimán	5	Mayo	2023-12-05T00:00:00	2024-11-08T07:00:00	6	Velocidad del viento	1.6
123438	7	Sololá	713	San Lucas Tolimán	10	San Lucas Tolimán	5	Mayo	2023-12-05T00:00:00	2024-11-08T07:00:00	7	Dirección del viento	1.61
123439	7	Sololá	713	San Lucas Tolimán	10	San Lucas Tolimán	5	Mayo	2023-12-05T00:00:00	2024-11-08T07:00:00	1	Precipitación	0
123440	7	Sololá	713	San Lucas Tolimán	10	San Lucas Tolimán	5	Mayo	2023-12-05T00:00:00	2024-11-08T07:00:00	8	Radiación solar	77
123441	7	Sololá	713	San Lucas Tolimán	10	San Lucas Tolimán	5	Mayo	2023-12-05T00:00:00	2024-11-08T08:00:00	2	Temperatura media	20.4
123442	7	Sololá	713	San Lucas Tolimán	10	San Lucas Tolimán	5	Mayo	2023-12-05T00:00:00	2024-11-08T08:00:00	4	Temperatura máxima	20.4
123443	7	Sololá	713	San Lucas Tolimán	10	San Lucas Tolimán	5	Mayo	2023-12-05T00:00:00	2024-11-08T08:00:00	3	Temperatura mínima	17.8
123444	7	Sololá	713	San Lucas Tolimán	10	San Lucas Tolimán	5	Mayo	2023-12-05T00:00:00	2024-11-08T08:00:00	5	Humedad	56
123445	7	Sololá	713	San Lucas Tolimán	10	San Lucas Tolimán	5	Mayo	2023-12-05T00:00:00	2024-11-08T08:00:00	6	Velocidad del viento	3.2
123446	7	Sololá	713	San Lucas Tolimán	10	San Lucas Tolimán	5	Mayo	2023-12-05T00:00:00	2024-11-08T08:00:00	7	Dirección del viento	3.22
123447	7	Sololá	713	San Lucas Tolimán	10	San Lucas Tolimán	5	Mayo	2023-12-05T00:00:00	2024-11-08T08:00:00	1	Precipitación	0
123448	7	Sololá	713	San Lucas Tolimán	10	San Lucas Tolimán	5	Mayo	2023-12-05T00:00:00	2024-11-08T08:00:00	8	Radiación solar	268
123449	7	Sololá	713	San Lucas Tolimán	10	San Lucas Tolimán	5	Mayo	2023-12-05T00:00:00	2024-11-08T09:00:00	2	Temperatura media	20.4
123450	7	Sololá	713	San Lucas Tolimán	10	San Lucas Tolimán	5	Mayo	2023-12-05T00:00:00	2024-11-08T09:00:00	4	Temperatura máxima	20.7
123451	7	Sololá	713	San Lucas Tolimán	10	San Lucas Tolimán	5	Mayo	2023-12-05T00:00:00	2024-11-08T09:00:00	3	Temperatura mínima	19.9
123452	7	Sololá	713	San Lucas Tolimán	10	San Lucas Tolimán	5	Mayo	2023-12-05T00:00:00	2024-11-08T09:00:00	5	Humedad	57
123453	7	Sololá	713	San Lucas Tolimán	10	San Lucas Tolimán	5	Mayo	2023-12-05T00:00:00	2024-11-08T09:00:00	6	Velocidad del viento	6.4
123454	7	Sololá	713	San Lucas Tolimán	10	San Lucas Tolimán	5	Mayo	2023-12-05T00:00:00	2024-11-08T09:00:00	7	Dirección del viento	6.44
123455	7	Sololá	713	San Lucas Tolimán	10	San Lucas Tolimán	5	Mayo	2023-12-05T00:00:00	2024-11-08T09:00:00	1	Precipitación	0
123456	7	Sololá	713	San Lucas Tolimán	10	San Lucas Tolimán	5	Mayo	2023-12-05T00:00:00	2024-11-08T09:00:00	8	Radiación solar	332
123457	7	Sololá	713	San Lucas Tolimán	10	San Lucas Tolimán	5	Mayo	2023-12-05T00:00:00	2024-11-08T10:00:00	2	Temperatura media	22.1
123458	7	Sololá	713	San Lucas Tolimán	10	San Lucas Tolimán	5	Mayo	2023-12-05T00:00:00	2024-11-08T10:00:00	4	Temperatura máxima	22.1
123459	7	Sololá	713	San Lucas Tolimán	10	San Lucas Tolimán	5	Mayo	2023-12-05T00:00:00	2024-11-08T10:00:00	3	Temperatura mínima	20.4
123460	7	Sololá	713	San Lucas Tolimán	10	San Lucas Tolimán	5	Mayo	2023-12-05T00:00:00	2024-11-08T10:00:00	5	Humedad	56
123461	7	Sololá	713	San Lucas Tolimán	10	San Lucas Tolimán	5	Mayo	2023-12-05T00:00:00	2024-11-08T10:00:00	6	Velocidad del viento	6.4
123462	7	Sololá	713	San Lucas Tolimán	10	San Lucas Tolimán	5	Mayo	2023-12-05T00:00:00	2024-11-08T10:00:00	7	Dirección del viento	6.44
123463	7	Sololá	713	San Lucas Tolimán	10	San Lucas Tolimán	5	Mayo	2023-12-05T00:00:00	2024-11-08T10:00:00	1	Precipitación	0
123464	7	Sololá	713	San Lucas Tolimán	10	San Lucas Tolimán	5	Mayo	2023-12-05T00:00:00	2024-11-08T10:00:00	8	Radiación solar	734
123465	7	Sololá	713	San Lucas Tolimán	10	San Lucas Tolimán	5	Mayo	2023-12-05T00:00:00	2024-11-08T11:00:00	2	Temperatura media	23.6
123466	7	Sololá	713	San Lucas Tolimán	10	San Lucas Tolimán	5	Mayo	2023-12-05T00:00:00	2024-11-08T11:00:00	4	Temperatura máxima	24.5
123467	7	Sololá	713	San Lucas Tolimán	10	San Lucas Tolimán	5	Mayo	2023-12-05T00:00:00	2024-11-08T11:00:00	3	Temperatura mínima	22.1
123468	7	Sololá	713	San Lucas Tolimán	10	San Lucas Tolimán	5	Mayo	2023-12-05T00:00:00	2024-11-08T11:00:00	5	Humedad	56
123469	7	Sololá	713	San Lucas Tolimán	10	San Lucas Tolimán	5	Mayo	2023-12-05T00:00:00	2024-11-08T11:00:00	6	Velocidad del viento	6.4
123470	7	Sololá	713	San Lucas Tolimán	10	San Lucas Tolimán	5	Mayo	2023-12-05T00:00:00	2024-11-08T11:00:00	7	Dirección del viento	6.44
123471	7	Sololá	713	San Lucas Tolimán	10	San Lucas Tolimán	5	Mayo	2023-12-05T00:00:00	2024-11-08T11:00:00	1	Precipitación	0
123472	7	Sololá	713	San Lucas Tolimán	10	San Lucas Tolimán	5	Mayo	2023-12-05T00:00:00	2024-11-08T11:00:00	8	Radiación solar	1009
123473	7	Sololá	713	San Lucas Tolimán	10	San Lucas Tolimán	5	Mayo	2023-12-05T00:00:00	2024-11-08T12:00:00	2	Temperatura media	23.6
123474	7	Sololá	713	San Lucas Tolimán	10	San Lucas Tolimán	5	Mayo	2023-12-05T00:00:00	2024-11-08T12:00:00	4	Temperatura máxima	24.2
123475	7	Sololá	713	San Lucas Tolimán	10	San Lucas Tolimán	5	Mayo	2023-12-05T00:00:00	2024-11-08T12:00:00	3	Temperatura mínima	22.9
123476	7	Sololá	713	San Lucas Tolimán	10	San Lucas Tolimán	5	Mayo	2023-12-05T00:00:00	2024-11-08T12:00:00	5	Humedad	60
123477	7	Sololá	713	San Lucas Tolimán	10	San Lucas Tolimán	5	Mayo	2023-12-05T00:00:00	2024-11-08T12:00:00	6	Velocidad del viento	9.7
123478	7	Sololá	713	San Lucas Tolimán	10	San Lucas Tolimán	5	Mayo	2023-12-05T00:00:00	2024-11-08T12:00:00	7	Dirección del viento	9.66
123479	7	Sololá	713	San Lucas Tolimán	10	San Lucas Tolimán	5	Mayo	2023-12-05T00:00:00	2024-11-08T12:00:00	1	Precipitación	0
123480	7	Sololá	713	San Lucas Tolimán	10	San Lucas Tolimán	5	Mayo	2023-12-05T00:00:00	2024-11-08T12:00:00	8	Radiación solar	1112
123481	7	Sololá	713	San Lucas Tolimán	10	San Lucas Tolimán	5	Mayo	2023-12-05T00:00:00	2024-11-08T13:00:00	2	Temperatura media	24
123482	7	Sololá	713	San Lucas Tolimán	10	San Lucas Tolimán	5	Mayo	2023-12-05T00:00:00	2024-11-08T13:00:00	4	Temperatura máxima	24.1
123483	7	Sololá	713	San Lucas Tolimán	10	San Lucas Tolimán	5	Mayo	2023-12-05T00:00:00	2024-11-08T13:00:00	3	Temperatura mínima	23.4
123484	7	Sololá	713	San Lucas Tolimán	10	San Lucas Tolimán	5	Mayo	2023-12-05T00:00:00	2024-11-08T13:00:00	5	Humedad	59
123485	7	Sololá	713	San Lucas Tolimán	10	San Lucas Tolimán	5	Mayo	2023-12-05T00:00:00	2024-11-08T13:00:00	6	Velocidad del viento	9.7
123486	7	Sololá	713	San Lucas Tolimán	10	San Lucas Tolimán	5	Mayo	2023-12-05T00:00:00	2024-11-08T13:00:00	7	Dirección del viento	9.66
123487	7	Sololá	713	San Lucas Tolimán	10	San Lucas Tolimán	5	Mayo	2023-12-05T00:00:00	2024-11-08T13:00:00	1	Precipitación	0
123488	7	Sololá	713	San Lucas Tolimán	10	San Lucas Tolimán	5	Mayo	2023-12-05T00:00:00	2024-11-08T13:00:00	8	Radiación solar	1053
123489	7	Sololá	713	San Lucas Tolimán	10	San Lucas Tolimán	5	Mayo	2023-12-05T00:00:00	2024-11-08T14:00:00	2	Temperatura media	22.2
123490	7	Sololá	713	San Lucas Tolimán	10	San Lucas Tolimán	5	Mayo	2023-12-05T00:00:00	2024-11-08T14:00:00	4	Temperatura máxima	24.2
123491	7	Sololá	713	San Lucas Tolimán	10	San Lucas Tolimán	5	Mayo	2023-12-05T00:00:00	2024-11-08T14:00:00	3	Temperatura mínima	22.2
123492	7	Sololá	713	San Lucas Tolimán	10	San Lucas Tolimán	5	Mayo	2023-12-05T00:00:00	2024-11-08T14:00:00	5	Humedad	63
123493	7	Sololá	713	San Lucas Tolimán	10	San Lucas Tolimán	5	Mayo	2023-12-05T00:00:00	2024-11-08T14:00:00	6	Velocidad del viento	11.3
123494	7	Sololá	713	San Lucas Tolimán	10	San Lucas Tolimán	5	Mayo	2023-12-05T00:00:00	2024-11-08T14:00:00	7	Dirección del viento	11.27
123495	7	Sololá	713	San Lucas Tolimán	10	San Lucas Tolimán	5	Mayo	2023-12-05T00:00:00	2024-11-08T14:00:00	1	Precipitación	0
123496	7	Sololá	713	San Lucas Tolimán	10	San Lucas Tolimán	5	Mayo	2023-12-05T00:00:00	2024-11-08T14:00:00	8	Radiación solar	647
123497	7	Sololá	713	San Lucas Tolimán	10	San Lucas Tolimán	5	Mayo	2023-12-05T00:00:00	2024-11-08T15:00:00	2	Temperatura media	21
123498	7	Sololá	713	San Lucas Tolimán	10	San Lucas Tolimán	5	Mayo	2023-12-05T00:00:00	2024-11-08T15:00:00	4	Temperatura máxima	22.3
123499	7	Sololá	713	San Lucas Tolimán	10	San Lucas Tolimán	5	Mayo	2023-12-05T00:00:00	2024-11-08T15:00:00	3	Temperatura mínima	20.9
123500	7	Sololá	713	San Lucas Tolimán	10	San Lucas Tolimán	5	Mayo	2023-12-05T00:00:00	2024-11-08T15:00:00	5	Humedad	58
123501	7	Sololá	713	San Lucas Tolimán	10	San Lucas Tolimán	5	Mayo	2023-12-05T00:00:00	2024-11-08T15:00:00	6	Velocidad del viento	8
123502	7	Sololá	713	San Lucas Tolimán	10	San Lucas Tolimán	5	Mayo	2023-12-05T00:00:00	2024-11-08T15:00:00	7	Dirección del viento	8.05
123503	7	Sololá	713	San Lucas Tolimán	10	San Lucas Tolimán	5	Mayo	2023-12-05T00:00:00	2024-11-08T15:00:00	1	Precipitación	0
123504	7	Sololá	713	San Lucas Tolimán	10	San Lucas Tolimán	5	Mayo	2023-12-05T00:00:00	2024-11-08T15:00:00	8	Radiación solar	226
123505	7	Sololá	713	San Lucas Tolimán	10	San Lucas Tolimán	5	Mayo	2023-12-05T00:00:00	2024-11-08T16:00:00	2	Temperatura media	20.8
123506	7	Sololá	713	San Lucas Tolimán	10	San Lucas Tolimán	5	Mayo	2023-12-05T00:00:00	2024-11-08T16:00:00	4	Temperatura máxima	21.1
123507	7	Sololá	713	San Lucas Tolimán	10	San Lucas Tolimán	5	Mayo	2023-12-05T00:00:00	2024-11-08T16:00:00	3	Temperatura mínima	20.4
123508	7	Sololá	713	San Lucas Tolimán	10	San Lucas Tolimán	5	Mayo	2023-12-05T00:00:00	2024-11-08T16:00:00	5	Humedad	59
123509	7	Sololá	713	San Lucas Tolimán	10	San Lucas Tolimán	5	Mayo	2023-12-05T00:00:00	2024-11-08T16:00:00	6	Velocidad del viento	6.4
123510	7	Sololá	713	San Lucas Tolimán	10	San Lucas Tolimán	5	Mayo	2023-12-05T00:00:00	2024-11-08T16:00:00	7	Dirección del viento	6.44
123511	7	Sololá	713	San Lucas Tolimán	10	San Lucas Tolimán	5	Mayo	2023-12-05T00:00:00	2024-11-08T16:00:00	1	Precipitación	0
123512	7	Sololá	713	San Lucas Tolimán	10	San Lucas Tolimán	5	Mayo	2023-12-05T00:00:00	2024-11-08T16:00:00	8	Radiación solar	95
123513	7	Sololá	713	San Lucas Tolimán	10	San Lucas Tolimán	5	Mayo	2023-12-05T00:00:00	2024-11-08T17:00:00	2	Temperatura media	20.5
123514	7	Sololá	713	San Lucas Tolimán	10	San Lucas Tolimán	5	Mayo	2023-12-05T00:00:00	2024-11-08T17:00:00	4	Temperatura máxima	20.9
123515	7	Sololá	713	San Lucas Tolimán	10	San Lucas Tolimán	5	Mayo	2023-12-05T00:00:00	2024-11-08T17:00:00	3	Temperatura mínima	20.5
123516	7	Sololá	713	San Lucas Tolimán	10	San Lucas Tolimán	5	Mayo	2023-12-05T00:00:00	2024-11-08T17:00:00	5	Humedad	61
123517	7	Sololá	713	San Lucas Tolimán	10	San Lucas Tolimán	5	Mayo	2023-12-05T00:00:00	2024-11-08T17:00:00	6	Velocidad del viento	8
123518	7	Sololá	713	San Lucas Tolimán	10	San Lucas Tolimán	5	Mayo	2023-12-05T00:00:00	2024-11-08T17:00:00	7	Dirección del viento	8.05
123519	7	Sololá	713	San Lucas Tolimán	10	San Lucas Tolimán	5	Mayo	2023-12-05T00:00:00	2024-11-08T17:00:00	1	Precipitación	0
123520	7	Sololá	713	San Lucas Tolimán	10	San Lucas Tolimán	5	Mayo	2023-12-05T00:00:00	2024-11-08T17:00:00	8	Radiación solar	132
123521	7	Sololá	713	San Lucas Tolimán	10	San Lucas Tolimán	5	Mayo	2023-12-05T00:00:00	2024-11-08T18:00:00	2	Temperatura media	18.5
123522	7	Sololá	713	San Lucas Tolimán	10	San Lucas Tolimán	5	Mayo	2023-12-05T00:00:00	2024-11-08T18:00:00	4	Temperatura máxima	20.5
123523	7	Sololá	713	San Lucas Tolimán	10	San Lucas Tolimán	5	Mayo	2023-12-05T00:00:00	2024-11-08T18:00:00	3	Temperatura mínima	17.9
123524	7	Sololá	713	San Lucas Tolimán	10	San Lucas Tolimán	5	Mayo	2023-12-05T00:00:00	2024-11-08T18:00:00	5	Humedad	60
123525	7	Sololá	713	San Lucas Tolimán	10	San Lucas Tolimán	5	Mayo	2023-12-05T00:00:00	2024-11-08T18:00:00	6	Velocidad del viento	8
123526	7	Sololá	713	San Lucas Tolimán	10	San Lucas Tolimán	5	Mayo	2023-12-05T00:00:00	2024-11-08T18:00:00	7	Dirección del viento	8.05
123527	7	Sololá	713	San Lucas Tolimán	10	San Lucas Tolimán	5	Mayo	2023-12-05T00:00:00	2024-11-08T18:00:00	1	Precipitación	0
123528	7	Sololá	713	San Lucas Tolimán	10	San Lucas Tolimán	5	Mayo	2023-12-05T00:00:00	2024-11-08T18:00:00	8	Radiación solar	10
123529	7	Sololá	713	San Lucas Tolimán	10	San Lucas Tolimán	5	Mayo	2023-12-05T00:00:00	2024-11-08T19:00:00	2	Temperatura media	18.7
123530	7	Sololá	713	San Lucas Tolimán	10	San Lucas Tolimán	5	Mayo	2023-12-05T00:00:00	2024-11-08T19:00:00	4	Temperatura máxima	18.8
123531	7	Sololá	713	San Lucas Tolimán	10	San Lucas Tolimán	5	Mayo	2023-12-05T00:00:00	2024-11-08T19:00:00	3	Temperatura mínima	18.4
123532	7	Sololá	713	San Lucas Tolimán	10	San Lucas Tolimán	5	Mayo	2023-12-05T00:00:00	2024-11-08T19:00:00	5	Humedad	61
123533	7	Sololá	713	San Lucas Tolimán	10	San Lucas Tolimán	5	Mayo	2023-12-05T00:00:00	2024-11-08T19:00:00	6	Velocidad del viento	3.2
123534	7	Sololá	713	San Lucas Tolimán	10	San Lucas Tolimán	5	Mayo	2023-12-05T00:00:00	2024-11-08T19:00:00	7	Dirección del viento	3.22
123535	7	Sololá	713	San Lucas Tolimán	10	San Lucas Tolimán	5	Mayo	2023-12-05T00:00:00	2024-11-08T19:00:00	1	Precipitación	0.2
123536	7	Sololá	713	San Lucas Tolimán	10	San Lucas Tolimán	5	Mayo	2023-12-05T00:00:00	2024-11-08T19:00:00	8	Radiación solar	0
123537	7	Sololá	713	San Lucas Tolimán	10	San Lucas Tolimán	5	Mayo	2023-12-05T00:00:00	2024-11-08T20:00:00	2	Temperatura media	18.7
123538	7	Sololá	713	San Lucas Tolimán	10	San Lucas Tolimán	5	Mayo	2023-12-05T00:00:00	2024-11-08T20:00:00	4	Temperatura máxima	18.7
123539	7	Sololá	713	San Lucas Tolimán	10	San Lucas Tolimán	5	Mayo	2023-12-05T00:00:00	2024-11-08T20:00:00	3	Temperatura mínima	18.6
123540	7	Sololá	713	San Lucas Tolimán	10	San Lucas Tolimán	5	Mayo	2023-12-05T00:00:00	2024-11-08T20:00:00	5	Humedad	62
123541	7	Sololá	713	San Lucas Tolimán	10	San Lucas Tolimán	5	Mayo	2023-12-05T00:00:00	2024-11-08T20:00:00	6	Velocidad del viento	1.6
123542	7	Sololá	713	San Lucas Tolimán	10	San Lucas Tolimán	5	Mayo	2023-12-05T00:00:00	2024-11-08T20:00:00	7	Dirección del viento	1.61
123543	7	Sololá	713	San Lucas Tolimán	10	San Lucas Tolimán	5	Mayo	2023-12-05T00:00:00	2024-11-08T20:00:00	1	Precipitación	0
123544	7	Sololá	713	San Lucas Tolimán	10	San Lucas Tolimán	5	Mayo	2023-12-05T00:00:00	2024-11-08T20:00:00	8	Radiación solar	0
123545	7	Sololá	713	San Lucas Tolimán	10	San Lucas Tolimán	5	Mayo	2023-12-05T00:00:00	2024-11-08T21:00:00	2	Temperatura media	18.6
123546	7	Sololá	713	San Lucas Tolimán	10	San Lucas Tolimán	5	Mayo	2023-12-05T00:00:00	2024-11-08T21:00:00	4	Temperatura máxima	18.7
123547	7	Sololá	713	San Lucas Tolimán	10	San Lucas Tolimán	5	Mayo	2023-12-05T00:00:00	2024-11-08T21:00:00	3	Temperatura mínima	18.5
123548	7	Sololá	713	San Lucas Tolimán	10	San Lucas Tolimán	5	Mayo	2023-12-05T00:00:00	2024-11-08T21:00:00	5	Humedad	63
123549	7	Sololá	713	San Lucas Tolimán	10	San Lucas Tolimán	5	Mayo	2023-12-05T00:00:00	2024-11-08T21:00:00	6	Velocidad del viento	1.6
123550	7	Sololá	713	San Lucas Tolimán	10	San Lucas Tolimán	5	Mayo	2023-12-05T00:00:00	2024-11-08T21:00:00	7	Dirección del viento	1.61
123551	7	Sololá	713	San Lucas Tolimán	10	San Lucas Tolimán	5	Mayo	2023-12-05T00:00:00	2024-11-08T21:00:00	1	Precipitación	0
123552	7	Sololá	713	San Lucas Tolimán	10	San Lucas Tolimán	5	Mayo	2023-12-05T00:00:00	2024-11-08T21:00:00	8	Radiación solar	0
123553	7	Sololá	713	San Lucas Tolimán	10	San Lucas Tolimán	5	Mayo	2023-12-05T00:00:00	2024-11-08T22:00:00	2	Temperatura media	18.1
123554	7	Sololá	713	San Lucas Tolimán	10	San Lucas Tolimán	5	Mayo	2023-12-05T00:00:00	2024-11-08T22:00:00	4	Temperatura máxima	18.7
123555	7	Sololá	713	San Lucas Tolimán	10	San Lucas Tolimán	5	Mayo	2023-12-05T00:00:00	2024-11-08T22:00:00	3	Temperatura mínima	18.1
123556	7	Sololá	713	San Lucas Tolimán	10	San Lucas Tolimán	5	Mayo	2023-12-05T00:00:00	2024-11-08T22:00:00	5	Humedad	63
123557	7	Sololá	713	San Lucas Tolimán	10	San Lucas Tolimán	5	Mayo	2023-12-05T00:00:00	2024-11-08T22:00:00	6	Velocidad del viento	1.6
123558	7	Sololá	713	San Lucas Tolimán	10	San Lucas Tolimán	5	Mayo	2023-12-05T00:00:00	2024-11-08T22:00:00	7	Dirección del viento	1.61
123559	7	Sololá	713	San Lucas Tolimán	10	San Lucas Tolimán	5	Mayo	2023-12-05T00:00:00	2024-11-08T22:00:00	1	Precipitación	0
123560	7	Sololá	713	San Lucas Tolimán	10	San Lucas Tolimán	5	Mayo	2023-12-05T00:00:00	2024-11-08T22:00:00	8	Radiación solar	0
123561	7	Sololá	713	San Lucas Tolimán	10	San Lucas Tolimán	5	Mayo	2023-12-05T00:00:00	2024-11-08T23:00:00	2	Temperatura media	18.1
123562	7	Sololá	713	San Lucas Tolimán	10	San Lucas Tolimán	5	Mayo	2023-12-05T00:00:00	2024-11-08T23:00:00	4	Temperatura máxima	18.1
123563	7	Sololá	713	San Lucas Tolimán	10	San Lucas Tolimán	5	Mayo	2023-12-05T00:00:00	2024-11-08T23:00:00	3	Temperatura mínima	17.7
123564	7	Sololá	713	San Lucas Tolimán	10	San Lucas Tolimán	5	Mayo	2023-12-05T00:00:00	2024-11-08T23:00:00	5	Humedad	62
123565	7	Sololá	713	San Lucas Tolimán	10	San Lucas Tolimán	5	Mayo	2023-12-05T00:00:00	2024-11-08T23:00:00	6	Velocidad del viento	3.2
123566	7	Sololá	713	San Lucas Tolimán	10	San Lucas Tolimán	5	Mayo	2023-12-05T00:00:00	2024-11-08T23:00:00	7	Dirección del viento	3.22
123567	7	Sololá	713	San Lucas Tolimán	10	San Lucas Tolimán	5	Mayo	2023-12-05T00:00:00	2024-11-08T23:00:00	1	Precipitación	0
123568	7	Sololá	713	San Lucas Tolimán	10	San Lucas Tolimán	5	Mayo	2023-12-05T00:00:00	2024-11-08T23:00:00	8	Radiación solar	0
123569	7	Sololá	713	San Lucas Tolimán	10	San Lucas Tolimán	5	Mayo	2023-05-13T00:00:00	2024-11-08T00:00:00	2	Temperatura media	18.1
123570	7	Sololá	713	San Lucas Tolimán	10	San Lucas Tolimán	5	Mayo	2023-05-13T00:00:00	2024-11-08T00:00:00	4	Temperatura máxima	18.7
123571	7	Sololá	713	San Lucas Tolimán	10	San Lucas Tolimán	5	Mayo	2023-05-13T00:00:00	2024-11-08T00:00:00	3	Temperatura mínima	17.8
123572	7	Sololá	713	San Lucas Tolimán	10	San Lucas Tolimán	5	Mayo	2023-05-13T00:00:00	2024-11-08T00:00:00	5	Humedad	60
123573	7	Sololá	713	San Lucas Tolimán	10	San Lucas Tolimán	5	Mayo	2023-05-13T00:00:00	2024-11-08T00:00:00	6	Velocidad del viento	4.8
123574	7	Sololá	713	San Lucas Tolimán	10	San Lucas Tolimán	5	Mayo	2023-05-13T00:00:00	2024-11-08T00:00:00	7	Dirección del viento	4.83
123575	7	Sololá	713	San Lucas Tolimán	10	San Lucas Tolimán	5	Mayo	2023-05-13T00:00:00	2024-11-08T00:00:00	1	Precipitación	0
123576	7	Sololá	713	San Lucas Tolimán	10	San Lucas Tolimán	5	Mayo	2023-05-13T00:00:00	2024-11-08T00:00:00	8	Radiación solar	0
123577	7	Sololá	713	San Lucas Tolimán	10	San Lucas Tolimán	5	Mayo	2023-05-13T00:00:00	2024-11-08T01:00:00	2	Temperatura media	17.8
123578	7	Sololá	713	San Lucas Tolimán	10	San Lucas Tolimán	5	Mayo	2023-05-13T00:00:00	2024-11-08T01:00:00	4	Temperatura máxima	18.1
123579	7	Sololá	713	San Lucas Tolimán	10	San Lucas Tolimán	5	Mayo	2023-05-13T00:00:00	2024-11-08T01:00:00	3	Temperatura mínima	17.7
123580	7	Sololá	713	San Lucas Tolimán	10	San Lucas Tolimán	5	Mayo	2023-05-13T00:00:00	2024-11-08T01:00:00	5	Humedad	63
123581	7	Sololá	713	San Lucas Tolimán	10	San Lucas Tolimán	5	Mayo	2023-05-13T00:00:00	2024-11-08T01:00:00	6	Velocidad del viento	1.6
123582	7	Sololá	713	San Lucas Tolimán	10	San Lucas Tolimán	5	Mayo	2023-05-13T00:00:00	2024-11-08T01:00:00	7	Dirección del viento	1.61
123583	7	Sololá	713	San Lucas Tolimán	10	San Lucas Tolimán	5	Mayo	2023-05-13T00:00:00	2024-11-08T01:00:00	1	Precipitación	0
123584	7	Sololá	713	San Lucas Tolimán	10	San Lucas Tolimán	5	Mayo	2023-05-13T00:00:00	2024-11-08T01:00:00	8	Radiación solar	0
123585	7	Sololá	713	San Lucas Tolimán	10	San Lucas Tolimán	5	Mayo	2023-05-13T00:00:00	2024-11-08T02:00:00	2	Temperatura media	18.1
123586	7	Sololá	713	San Lucas Tolimán	10	San Lucas Tolimán	5	Mayo	2023-05-13T00:00:00	2024-11-08T02:00:00	4	Temperatura máxima	18.1
123587	7	Sololá	713	San Lucas Tolimán	10	San Lucas Tolimán	5	Mayo	2023-05-13T00:00:00	2024-11-08T02:00:00	3	Temperatura mínima	17.8
123588	7	Sololá	713	San Lucas Tolimán	10	San Lucas Tolimán	5	Mayo	2023-05-13T00:00:00	2024-11-08T02:00:00	5	Humedad	62
123589	7	Sololá	713	San Lucas Tolimán	10	San Lucas Tolimán	5	Mayo	2023-05-13T00:00:00	2024-11-08T02:00:00	6	Velocidad del viento	0
123590	7	Sololá	713	San Lucas Tolimán	10	San Lucas Tolimán	5	Mayo	2023-05-13T00:00:00	2024-11-08T02:00:00	7	Dirección del viento	0
123591	7	Sololá	713	San Lucas Tolimán	10	San Lucas Tolimán	5	Mayo	2023-05-13T00:00:00	2024-11-08T02:00:00	1	Precipitación	0
123592	7	Sololá	713	San Lucas Tolimán	10	San Lucas Tolimán	5	Mayo	2023-05-13T00:00:00	2024-11-08T02:00:00	8	Radiación solar	0
123593	7	Sololá	713	San Lucas Tolimán	10	San Lucas Tolimán	5	Mayo	2023-05-13T00:00:00	2024-11-08T03:00:00	2	Temperatura media	17.8
123594	7	Sololá	713	San Lucas Tolimán	10	San Lucas Tolimán	5	Mayo	2023-05-13T00:00:00	2024-11-08T03:00:00	4	Temperatura máxima	18.1
123595	7	Sololá	713	San Lucas Tolimán	10	San Lucas Tolimán	5	Mayo	2023-05-13T00:00:00	2024-11-08T03:00:00	3	Temperatura mínima	17.8
123596	7	Sololá	713	San Lucas Tolimán	10	San Lucas Tolimán	5	Mayo	2023-05-13T00:00:00	2024-11-08T03:00:00	5	Humedad	63
123597	7	Sololá	713	San Lucas Tolimán	10	San Lucas Tolimán	5	Mayo	2023-05-13T00:00:00	2024-11-08T03:00:00	6	Velocidad del viento	0
123598	7	Sololá	713	San Lucas Tolimán	10	San Lucas Tolimán	5	Mayo	2023-05-13T00:00:00	2024-11-08T03:00:00	7	Dirección del viento	0
123599	7	Sololá	713	San Lucas Tolimán	10	San Lucas Tolimán	5	Mayo	2023-05-13T00:00:00	2024-11-08T03:00:00	1	Precipitación	0
123600	7	Sololá	713	San Lucas Tolimán	10	San Lucas Tolimán	5	Mayo	2023-05-13T00:00:00	2024-11-08T03:00:00	8	Radiación solar	0
123601	7	Sololá	713	San Lucas Tolimán	10	San Lucas Tolimán	5	Mayo	2023-05-13T00:00:00	2024-11-08T04:00:00	2	Temperatura media	17.3
123602	7	Sololá	713	San Lucas Tolimán	10	San Lucas Tolimán	5	Mayo	2023-05-13T00:00:00	2024-11-08T04:00:00	4	Temperatura máxima	17.8
123603	7	Sololá	713	San Lucas Tolimán	10	San Lucas Tolimán	5	Mayo	2023-05-13T00:00:00	2024-11-08T04:00:00	3	Temperatura mínima	17.3
123604	7	Sololá	713	San Lucas Tolimán	10	San Lucas Tolimán	5	Mayo	2023-05-13T00:00:00	2024-11-08T04:00:00	5	Humedad	63
123605	7	Sololá	713	San Lucas Tolimán	10	San Lucas Tolimán	5	Mayo	2023-05-13T00:00:00	2024-11-08T04:00:00	6	Velocidad del viento	1.6
123606	7	Sololá	713	San Lucas Tolimán	10	San Lucas Tolimán	5	Mayo	2023-05-13T00:00:00	2024-11-08T04:00:00	7	Dirección del viento	1.61
123607	7	Sololá	713	San Lucas Tolimán	10	San Lucas Tolimán	5	Mayo	2023-05-13T00:00:00	2024-11-08T04:00:00	1	Precipitación	0
123608	7	Sololá	713	San Lucas Tolimán	10	San Lucas Tolimán	5	Mayo	2023-05-13T00:00:00	2024-11-08T04:00:00	8	Radiación solar	0
123609	7	Sololá	713	San Lucas Tolimán	10	San Lucas Tolimán	5	Mayo	2023-05-13T00:00:00	2024-11-08T05:00:00	2	Temperatura media	17.3
123610	7	Sololá	713	San Lucas Tolimán	10	San Lucas Tolimán	5	Mayo	2023-05-13T00:00:00	2024-11-08T05:00:00	4	Temperatura máxima	17.4
123611	7	Sololá	713	San Lucas Tolimán	10	San Lucas Tolimán	5	Mayo	2023-05-13T00:00:00	2024-11-08T05:00:00	3	Temperatura mínima	17.2
123612	7	Sololá	713	San Lucas Tolimán	10	San Lucas Tolimán	5	Mayo	2023-05-13T00:00:00	2024-11-08T05:00:00	5	Humedad	63
123613	7	Sololá	713	San Lucas Tolimán	10	San Lucas Tolimán	5	Mayo	2023-05-13T00:00:00	2024-11-08T05:00:00	6	Velocidad del viento	1.6
123614	7	Sololá	713	San Lucas Tolimán	10	San Lucas Tolimán	5	Mayo	2023-05-13T00:00:00	2024-11-08T05:00:00	7	Dirección del viento	1.61
123615	7	Sololá	713	San Lucas Tolimán	10	San Lucas Tolimán	5	Mayo	2023-05-13T00:00:00	2024-11-08T05:00:00	1	Precipitación	0
123616	7	Sololá	713	San Lucas Tolimán	10	San Lucas Tolimán	5	Mayo	2023-05-13T00:00:00	2024-11-08T05:00:00	8	Radiación solar	0
123617	7	Sololá	713	San Lucas Tolimán	10	San Lucas Tolimán	5	Mayo	2023-05-13T00:00:00	2024-11-08T06:00:00	2	Temperatura media	17.1
123618	7	Sololá	713	San Lucas Tolimán	10	San Lucas Tolimán	5	Mayo	2023-05-13T00:00:00	2024-11-08T06:00:00	4	Temperatura máxima	17.4
123619	7	Sololá	713	San Lucas Tolimán	10	San Lucas Tolimán	5	Mayo	2023-05-13T00:00:00	2024-11-08T06:00:00	3	Temperatura mínima	17.1
123620	7	Sololá	713	San Lucas Tolimán	10	San Lucas Tolimán	5	Mayo	2023-05-13T00:00:00	2024-11-08T06:00:00	5	Humedad	63
123621	7	Sololá	713	San Lucas Tolimán	10	San Lucas Tolimán	5	Mayo	2023-05-13T00:00:00	2024-11-08T06:00:00	6	Velocidad del viento	1.6
123622	7	Sololá	713	San Lucas Tolimán	10	San Lucas Tolimán	5	Mayo	2023-05-13T00:00:00	2024-11-08T06:00:00	7	Dirección del viento	1.61
123623	7	Sololá	713	San Lucas Tolimán	10	San Lucas Tolimán	5	Mayo	2023-05-13T00:00:00	2024-11-08T06:00:00	1	Precipitación	0
123624	7	Sololá	713	San Lucas Tolimán	10	San Lucas Tolimán	5	Mayo	2023-05-13T00:00:00	2024-11-08T06:00:00	8	Radiación solar	4
123625	7	Sololá	713	San Lucas Tolimán	10	San Lucas Tolimán	5	Mayo	2023-05-13T00:00:00	2024-11-08T07:00:00	2	Temperatura media	18.6
123626	7	Sololá	713	San Lucas Tolimán	10	San Lucas Tolimán	5	Mayo	2023-05-13T00:00:00	2024-11-08T07:00:00	4	Temperatura máxima	18.6
123627	7	Sololá	713	San Lucas Tolimán	10	San Lucas Tolimán	5	Mayo	2023-05-13T00:00:00	2024-11-08T07:00:00	3	Temperatura mínima	16.9
123628	7	Sololá	713	San Lucas Tolimán	10	San Lucas Tolimán	5	Mayo	2023-05-13T00:00:00	2024-11-08T07:00:00	5	Humedad	59
123629	7	Sololá	713	San Lucas Tolimán	10	San Lucas Tolimán	5	Mayo	2023-05-13T00:00:00	2024-11-08T07:00:00	6	Velocidad del viento	1.6
123630	7	Sololá	713	San Lucas Tolimán	10	San Lucas Tolimán	5	Mayo	2023-05-13T00:00:00	2024-11-08T07:00:00	7	Dirección del viento	1.61
123631	7	Sololá	713	San Lucas Tolimán	10	San Lucas Tolimán	5	Mayo	2023-05-13T00:00:00	2024-11-08T07:00:00	1	Precipitación	0
123632	7	Sololá	713	San Lucas Tolimán	10	San Lucas Tolimán	5	Mayo	2023-05-13T00:00:00	2024-11-08T07:00:00	8	Radiación solar	88
123633	7	Sololá	713	San Lucas Tolimán	10	San Lucas Tolimán	5	Mayo	2023-05-13T00:00:00	2024-11-08T08:00:00	2	Temperatura media	20.6
123634	7	Sololá	713	San Lucas Tolimán	10	San Lucas Tolimán	5	Mayo	2023-05-13T00:00:00	2024-11-08T08:00:00	4	Temperatura máxima	20.6
123635	7	Sololá	713	San Lucas Tolimán	10	San Lucas Tolimán	5	Mayo	2023-05-13T00:00:00	2024-11-08T08:00:00	3	Temperatura mínima	18.6
123636	7	Sololá	713	San Lucas Tolimán	10	San Lucas Tolimán	5	Mayo	2023-05-13T00:00:00	2024-11-08T08:00:00	5	Humedad	56
123637	7	Sololá	713	San Lucas Tolimán	10	San Lucas Tolimán	5	Mayo	2023-05-13T00:00:00	2024-11-08T08:00:00	6	Velocidad del viento	4.8
123638	7	Sololá	713	San Lucas Tolimán	10	San Lucas Tolimán	5	Mayo	2023-05-13T00:00:00	2024-11-08T08:00:00	7	Dirección del viento	4.83
123639	7	Sololá	713	San Lucas Tolimán	10	San Lucas Tolimán	5	Mayo	2023-05-13T00:00:00	2024-11-08T08:00:00	1	Precipitación	0
123640	7	Sololá	713	San Lucas Tolimán	10	San Lucas Tolimán	5	Mayo	2023-05-13T00:00:00	2024-11-08T08:00:00	8	Radiación solar	316
123641	7	Sololá	713	San Lucas Tolimán	10	San Lucas Tolimán	5	Mayo	2023-05-13T00:00:00	2024-11-08T09:00:00	2	Temperatura media	22.6
123642	7	Sololá	713	San Lucas Tolimán	10	San Lucas Tolimán	5	Mayo	2023-05-13T00:00:00	2024-11-08T09:00:00	4	Temperatura máxima	22.6
123643	7	Sololá	713	San Lucas Tolimán	10	San Lucas Tolimán	5	Mayo	2023-05-13T00:00:00	2024-11-08T09:00:00	3	Temperatura mínima	20.6
123644	7	Sololá	713	San Lucas Tolimán	10	San Lucas Tolimán	5	Mayo	2023-05-13T00:00:00	2024-11-08T09:00:00	5	Humedad	55
123645	7	Sololá	713	San Lucas Tolimán	10	San Lucas Tolimán	5	Mayo	2023-05-13T00:00:00	2024-11-08T09:00:00	6	Velocidad del viento	3.2
123646	7	Sololá	713	San Lucas Tolimán	10	San Lucas Tolimán	5	Mayo	2023-05-13T00:00:00	2024-11-08T09:00:00	7	Dirección del viento	3.22
123647	7	Sololá	713	San Lucas Tolimán	10	San Lucas Tolimán	5	Mayo	2023-05-13T00:00:00	2024-11-08T09:00:00	1	Precipitación	0
123648	7	Sololá	713	San Lucas Tolimán	10	San Lucas Tolimán	5	Mayo	2023-05-13T00:00:00	2024-11-08T09:00:00	8	Radiación solar	482
123649	7	Sololá	713	San Lucas Tolimán	10	San Lucas Tolimán	5	Mayo	2023-05-13T00:00:00	2024-11-08T10:00:00	2	Temperatura media	23.7
123650	7	Sololá	713	San Lucas Tolimán	10	San Lucas Tolimán	5	Mayo	2023-05-13T00:00:00	2024-11-08T10:00:00	4	Temperatura máxima	23.7
123651	7	Sololá	713	San Lucas Tolimán	10	San Lucas Tolimán	5	Mayo	2023-05-13T00:00:00	2024-11-08T10:00:00	3	Temperatura mínima	22.6
123652	7	Sololá	713	San Lucas Tolimán	10	San Lucas Tolimán	5	Mayo	2023-05-13T00:00:00	2024-11-08T10:00:00	5	Humedad	53
123653	7	Sololá	713	San Lucas Tolimán	10	San Lucas Tolimán	5	Mayo	2023-05-13T00:00:00	2024-11-08T10:00:00	6	Velocidad del viento	6.4
123654	7	Sololá	713	San Lucas Tolimán	10	San Lucas Tolimán	5	Mayo	2023-05-13T00:00:00	2024-11-08T10:00:00	7	Dirección del viento	6.44
123655	7	Sololá	713	San Lucas Tolimán	10	San Lucas Tolimán	5	Mayo	2023-05-13T00:00:00	2024-11-08T10:00:00	1	Precipitación	0
123656	7	Sololá	713	San Lucas Tolimán	10	San Lucas Tolimán	5	Mayo	2023-05-13T00:00:00	2024-11-08T10:00:00	8	Radiación solar	825
123657	7	Sololá	713	San Lucas Tolimán	10	San Lucas Tolimán	5	Mayo	2023-05-13T00:00:00	2024-11-08T11:00:00	2	Temperatura media	22.8
123658	7	Sololá	713	San Lucas Tolimán	10	San Lucas Tolimán	5	Mayo	2023-05-13T00:00:00	2024-11-08T11:00:00	4	Temperatura máxima	23.8
123659	7	Sololá	713	San Lucas Tolimán	10	San Lucas Tolimán	5	Mayo	2023-05-13T00:00:00	2024-11-08T11:00:00	3	Temperatura mínima	22.1
123660	7	Sololá	713	San Lucas Tolimán	10	San Lucas Tolimán	5	Mayo	2023-05-13T00:00:00	2024-11-08T11:00:00	5	Humedad	56
123661	7	Sololá	713	San Lucas Tolimán	10	San Lucas Tolimán	5	Mayo	2023-05-13T00:00:00	2024-11-08T11:00:00	6	Velocidad del viento	12.9
123662	7	Sololá	713	San Lucas Tolimán	10	San Lucas Tolimán	5	Mayo	2023-05-13T00:00:00	2024-11-08T11:00:00	7	Dirección del viento	12.87
123663	7	Sololá	713	San Lucas Tolimán	10	San Lucas Tolimán	5	Mayo	2023-05-13T00:00:00	2024-11-08T11:00:00	1	Precipitación	0
123664	7	Sololá	713	San Lucas Tolimán	10	San Lucas Tolimán	5	Mayo	2023-05-13T00:00:00	2024-11-08T11:00:00	8	Radiación solar	854
123665	7	Sololá	713	San Lucas Tolimán	10	San Lucas Tolimán	5	Mayo	2023-05-13T00:00:00	2024-11-08T12:00:00	2	Temperatura media	22.7
123666	7	Sololá	713	San Lucas Tolimán	10	San Lucas Tolimán	5	Mayo	2023-05-13T00:00:00	2024-11-08T12:00:00	4	Temperatura máxima	23.1
123667	7	Sololá	713	San Lucas Tolimán	10	San Lucas Tolimán	5	Mayo	2023-05-13T00:00:00	2024-11-08T12:00:00	3	Temperatura mínima	21.9
123668	7	Sololá	713	San Lucas Tolimán	10	San Lucas Tolimán	5	Mayo	2023-05-13T00:00:00	2024-11-08T12:00:00	5	Humedad	58
123669	7	Sololá	713	San Lucas Tolimán	10	San Lucas Tolimán	5	Mayo	2023-05-13T00:00:00	2024-11-08T12:00:00	6	Velocidad del viento	11.3
123670	7	Sololá	713	San Lucas Tolimán	10	San Lucas Tolimán	5	Mayo	2023-05-13T00:00:00	2024-11-08T12:00:00	7	Dirección del viento	11.27
123671	7	Sololá	713	San Lucas Tolimán	10	San Lucas Tolimán	5	Mayo	2023-05-13T00:00:00	2024-11-08T12:00:00	1	Precipitación	0
123672	7	Sololá	713	San Lucas Tolimán	10	San Lucas Tolimán	5	Mayo	2023-05-13T00:00:00	2024-11-08T12:00:00	8	Radiación solar	1002
123673	7	Sololá	713	San Lucas Tolimán	10	San Lucas Tolimán	5	Mayo	2023-05-13T00:00:00	2024-11-08T13:00:00	2	Temperatura media	21.6
123674	7	Sololá	713	San Lucas Tolimán	10	San Lucas Tolimán	5	Mayo	2023-05-13T00:00:00	2024-11-08T13:00:00	4	Temperatura máxima	23.1
123675	7	Sololá	713	San Lucas Tolimán	10	San Lucas Tolimán	5	Mayo	2023-05-13T00:00:00	2024-11-08T13:00:00	3	Temperatura mínima	21.2
123676	7	Sololá	713	San Lucas Tolimán	10	San Lucas Tolimán	5	Mayo	2023-05-13T00:00:00	2024-11-08T13:00:00	5	Humedad	60
123677	7	Sololá	713	San Lucas Tolimán	10	San Lucas Tolimán	5	Mayo	2023-05-13T00:00:00	2024-11-08T13:00:00	6	Velocidad del viento	9.7
123678	7	Sololá	713	San Lucas Tolimán	10	San Lucas Tolimán	5	Mayo	2023-05-13T00:00:00	2024-11-08T13:00:00	7	Dirección del viento	9.66
123679	7	Sololá	713	San Lucas Tolimán	10	San Lucas Tolimán	5	Mayo	2023-05-13T00:00:00	2024-11-08T13:00:00	1	Precipitación	0
123680	7	Sololá	713	San Lucas Tolimán	10	San Lucas Tolimán	5	Mayo	2023-05-13T00:00:00	2024-11-08T13:00:00	8	Radiación solar	591
123681	7	Sololá	713	San Lucas Tolimán	10	San Lucas Tolimán	5	Mayo	2023-05-13T00:00:00	2024-11-08T14:00:00	2	Temperatura media	21
123682	7	Sololá	713	San Lucas Tolimán	10	San Lucas Tolimán	5	Mayo	2023-05-13T00:00:00	2024-11-08T14:00:00	4	Temperatura máxima	21.7
123683	7	Sololá	713	San Lucas Tolimán	10	San Lucas Tolimán	5	Mayo	2023-05-13T00:00:00	2024-11-08T14:00:00	3	Temperatura mínima	20.8
123684	7	Sololá	713	San Lucas Tolimán	10	San Lucas Tolimán	5	Mayo	2023-05-13T00:00:00	2024-11-08T14:00:00	5	Humedad	59
123685	7	Sololá	713	San Lucas Tolimán	10	San Lucas Tolimán	5	Mayo	2023-05-13T00:00:00	2024-11-08T14:00:00	6	Velocidad del viento	9.7
123686	7	Sololá	713	San Lucas Tolimán	10	San Lucas Tolimán	5	Mayo	2023-05-13T00:00:00	2024-11-08T14:00:00	7	Dirección del viento	9.66
123687	7	Sololá	713	San Lucas Tolimán	10	San Lucas Tolimán	5	Mayo	2023-05-13T00:00:00	2024-11-08T14:00:00	1	Precipitación	0
123688	7	Sololá	713	San Lucas Tolimán	10	San Lucas Tolimán	5	Mayo	2023-05-13T00:00:00	2024-11-08T14:00:00	8	Radiación solar	301
123689	7	Sololá	713	San Lucas Tolimán	10	San Lucas Tolimán	5	Mayo	2023-05-13T00:00:00	2024-11-08T15:00:00	2	Temperatura media	20.8
123690	7	Sololá	713	San Lucas Tolimán	10	San Lucas Tolimán	5	Mayo	2023-05-13T00:00:00	2024-11-08T15:00:00	4	Temperatura máxima	21.4
123691	7	Sololá	713	San Lucas Tolimán	10	San Lucas Tolimán	5	Mayo	2023-05-13T00:00:00	2024-11-08T15:00:00	3	Temperatura mínima	20.6
123692	7	Sololá	713	San Lucas Tolimán	10	San Lucas Tolimán	5	Mayo	2023-05-13T00:00:00	2024-11-08T15:00:00	5	Humedad	62
123693	7	Sololá	713	San Lucas Tolimán	10	San Lucas Tolimán	5	Mayo	2023-05-13T00:00:00	2024-11-08T15:00:00	6	Velocidad del viento	8
123694	7	Sololá	713	San Lucas Tolimán	10	San Lucas Tolimán	5	Mayo	2023-05-13T00:00:00	2024-11-08T15:00:00	7	Dirección del viento	8.05
123695	7	Sololá	713	San Lucas Tolimán	10	San Lucas Tolimán	5	Mayo	2023-05-13T00:00:00	2024-11-08T15:00:00	1	Precipitación	0
123696	7	Sololá	713	San Lucas Tolimán	10	San Lucas Tolimán	5	Mayo	2023-05-13T00:00:00	2024-11-08T15:00:00	8	Radiación solar	294
123697	7	Sololá	713	San Lucas Tolimán	10	San Lucas Tolimán	5	Mayo	2023-05-13T00:00:00	2024-11-08T16:00:00	2	Temperatura media	18.4
123698	7	Sololá	713	San Lucas Tolimán	10	San Lucas Tolimán	5	Mayo	2023-05-13T00:00:00	2024-11-08T16:00:00	4	Temperatura máxima	20.9
123699	7	Sololá	713	San Lucas Tolimán	10	San Lucas Tolimán	5	Mayo	2023-05-13T00:00:00	2024-11-08T16:00:00	3	Temperatura mínima	18.3
123700	7	Sololá	713	San Lucas Tolimán	10	San Lucas Tolimán	5	Mayo	2023-05-13T00:00:00	2024-11-08T16:00:00	5	Humedad	68
123701	7	Sololá	713	San Lucas Tolimán	10	San Lucas Tolimán	5	Mayo	2023-05-13T00:00:00	2024-11-08T16:00:00	6	Velocidad del viento	6.4
123702	7	Sololá	713	San Lucas Tolimán	10	San Lucas Tolimán	5	Mayo	2023-05-13T00:00:00	2024-11-08T16:00:00	7	Dirección del viento	6.44
123703	7	Sololá	713	San Lucas Tolimán	10	San Lucas Tolimán	5	Mayo	2023-05-13T00:00:00	2024-11-08T16:00:00	1	Precipitación	0
123704	7	Sololá	713	San Lucas Tolimán	10	San Lucas Tolimán	5	Mayo	2023-05-13T00:00:00	2024-11-08T16:00:00	8	Radiación solar	63
123705	7	Sololá	713	San Lucas Tolimán	10	San Lucas Tolimán	5	Mayo	2023-05-13T00:00:00	2024-11-08T17:00:00	2	Temperatura media	19.2
123706	7	Sololá	713	San Lucas Tolimán	10	San Lucas Tolimán	5	Mayo	2023-05-13T00:00:00	2024-11-08T17:00:00	4	Temperatura máxima	19.5
123707	7	Sololá	713	San Lucas Tolimán	10	San Lucas Tolimán	5	Mayo	2023-05-13T00:00:00	2024-11-08T17:00:00	3	Temperatura mínima	18.4
123708	7	Sololá	713	San Lucas Tolimán	10	San Lucas Tolimán	5	Mayo	2023-05-13T00:00:00	2024-11-08T17:00:00	5	Humedad	65
123709	7	Sololá	713	San Lucas Tolimán	10	San Lucas Tolimán	5	Mayo	2023-05-13T00:00:00	2024-11-08T17:00:00	6	Velocidad del viento	3.2
123710	7	Sololá	713	San Lucas Tolimán	10	San Lucas Tolimán	5	Mayo	2023-05-13T00:00:00	2024-11-08T17:00:00	7	Dirección del viento	3.22
123711	7	Sololá	713	San Lucas Tolimán	10	San Lucas Tolimán	5	Mayo	2023-05-13T00:00:00	2024-11-08T17:00:00	1	Precipitación	0.6
123712	7	Sololá	713	San Lucas Tolimán	10	San Lucas Tolimán	5	Mayo	2023-05-13T00:00:00	2024-11-08T17:00:00	8	Radiación solar	97
123713	7	Sololá	713	San Lucas Tolimán	10	San Lucas Tolimán	5	Mayo	2023-05-13T00:00:00	2024-11-08T18:00:00	2	Temperatura media	18.9
123714	7	Sololá	713	San Lucas Tolimán	10	San Lucas Tolimán	5	Mayo	2023-05-13T00:00:00	2024-11-08T18:00:00	4	Temperatura máxima	19.4
123715	7	Sololá	713	San Lucas Tolimán	10	San Lucas Tolimán	5	Mayo	2023-05-13T00:00:00	2024-11-08T18:00:00	3	Temperatura mínima	18.5
123716	7	Sololá	713	San Lucas Tolimán	10	San Lucas Tolimán	5	Mayo	2023-05-13T00:00:00	2024-11-08T18:00:00	5	Humedad	62
123717	7	Sololá	713	San Lucas Tolimán	10	San Lucas Tolimán	5	Mayo	2023-05-13T00:00:00	2024-11-08T18:00:00	6	Velocidad del viento	3.5
123718	7	Sololá	713	San Lucas Tolimán	10	San Lucas Tolimán	5	Mayo	2023-05-13T00:00:00	2024-11-08T18:00:00	7	Dirección del viento	4.23
123719	7	Sololá	713	San Lucas Tolimán	10	San Lucas Tolimán	5	Mayo	2023-05-13T00:00:00	2024-11-08T18:00:00	1	Precipitación	0
123720	7	Sololá	713	San Lucas Tolimán	10	San Lucas Tolimán	5	Mayo	2023-05-13T00:00:00	2024-11-08T18:00:00	8	Radiación solar	55
123721	7	Sololá	713	San Lucas Tolimán	10	San Lucas Tolimán	5	Mayo	2023-05-13T00:00:00	2024-11-08T19:00:00	2	Temperatura media	18.7
123722	7	Sololá	713	San Lucas Tolimán	10	San Lucas Tolimán	5	Mayo	2023-05-13T00:00:00	2024-11-08T19:00:00	4	Temperatura máxima	19.1
123723	7	Sololá	713	San Lucas Tolimán	10	San Lucas Tolimán	5	Mayo	2023-05-13T00:00:00	2024-11-08T19:00:00	3	Temperatura mínima	18.7
123724	7	Sololá	713	San Lucas Tolimán	10	San Lucas Tolimán	5	Mayo	2023-05-13T00:00:00	2024-11-08T19:00:00	5	Humedad	62
123725	7	Sololá	713	San Lucas Tolimán	10	San Lucas Tolimán	5	Mayo	2023-05-13T00:00:00	2024-11-08T19:00:00	6	Velocidad del viento	4.8
123726	7	Sololá	713	San Lucas Tolimán	10	San Lucas Tolimán	5	Mayo	2023-05-13T00:00:00	2024-11-08T19:00:00	7	Dirección del viento	4.83
123727	7	Sololá	713	San Lucas Tolimán	10	San Lucas Tolimán	5	Mayo	2023-05-13T00:00:00	2024-11-08T19:00:00	1	Precipitación	0
123728	7	Sololá	713	San Lucas Tolimán	10	San Lucas Tolimán	5	Mayo	2023-05-13T00:00:00	2024-11-08T19:00:00	8	Radiación solar	0
123729	7	Sololá	713	San Lucas Tolimán	10	San Lucas Tolimán	5	Mayo	2023-05-13T00:00:00	2024-11-08T20:00:00	2	Temperatura media	18.3
123730	7	Sololá	713	San Lucas Tolimán	10	San Lucas Tolimán	5	Mayo	2023-05-13T00:00:00	2024-11-08T20:00:00	4	Temperatura máxima	18.9
123731	7	Sololá	713	San Lucas Tolimán	10	San Lucas Tolimán	5	Mayo	2023-05-13T00:00:00	2024-11-08T20:00:00	3	Temperatura mínima	18.2
123732	7	Sololá	713	San Lucas Tolimán	10	San Lucas Tolimán	5	Mayo	2023-05-13T00:00:00	2024-11-08T20:00:00	5	Humedad	62
123733	7	Sololá	713	San Lucas Tolimán	10	San Lucas Tolimán	5	Mayo	2023-05-13T00:00:00	2024-11-08T20:00:00	6	Velocidad del viento	3.2
123734	7	Sololá	713	San Lucas Tolimán	10	San Lucas Tolimán	5	Mayo	2023-05-13T00:00:00	2024-11-08T20:00:00	7	Dirección del viento	3.22
123735	7	Sololá	713	San Lucas Tolimán	10	San Lucas Tolimán	5	Mayo	2023-05-13T00:00:00	2024-11-08T20:00:00	1	Precipitación	0
123736	7	Sololá	713	San Lucas Tolimán	10	San Lucas Tolimán	5	Mayo	2023-05-13T00:00:00	2024-11-08T20:00:00	8	Radiación solar	0
123737	7	Sololá	713	San Lucas Tolimán	10	San Lucas Tolimán	5	Mayo	2023-05-13T00:00:00	2024-11-08T21:00:00	2	Temperatura media	17.8
123738	7	Sololá	713	San Lucas Tolimán	10	San Lucas Tolimán	5	Mayo	2023-05-13T00:00:00	2024-11-08T21:00:00	4	Temperatura máxima	18.4
123739	7	Sololá	713	San Lucas Tolimán	10	San Lucas Tolimán	5	Mayo	2023-05-13T00:00:00	2024-11-08T21:00:00	3	Temperatura mínima	17.8
123740	7	Sololá	713	San Lucas Tolimán	10	San Lucas Tolimán	5	Mayo	2023-05-13T00:00:00	2024-11-08T21:00:00	5	Humedad	63
123741	7	Sololá	713	San Lucas Tolimán	10	San Lucas Tolimán	5	Mayo	2023-05-13T00:00:00	2024-11-08T21:00:00	6	Velocidad del viento	6.4
123742	7	Sololá	713	San Lucas Tolimán	10	San Lucas Tolimán	5	Mayo	2023-05-13T00:00:00	2024-11-08T21:00:00	7	Dirección del viento	6.44
123743	7	Sololá	713	San Lucas Tolimán	10	San Lucas Tolimán	5	Mayo	2023-05-13T00:00:00	2024-11-08T21:00:00	1	Precipitación	0
123744	7	Sololá	713	San Lucas Tolimán	10	San Lucas Tolimán	5	Mayo	2023-05-13T00:00:00	2024-11-08T21:00:00	8	Radiación solar	0
123745	7	Sololá	713	San Lucas Tolimán	10	San Lucas Tolimán	5	Mayo	2023-05-13T00:00:00	2024-11-08T22:00:00	2	Temperatura media	18.1
123746	7	Sololá	713	San Lucas Tolimán	10	San Lucas Tolimán	5	Mayo	2023-05-13T00:00:00	2024-11-08T22:00:00	4	Temperatura máxima	18.4
123747	7	Sololá	713	San Lucas Tolimán	10	San Lucas Tolimán	5	Mayo	2023-05-13T00:00:00	2024-11-08T22:00:00	3	Temperatura mínima	17.8
123748	7	Sololá	713	San Lucas Tolimán	10	San Lucas Tolimán	5	Mayo	2023-05-13T00:00:00	2024-11-08T22:00:00	5	Humedad	62
123749	7	Sololá	713	San Lucas Tolimán	10	San Lucas Tolimán	5	Mayo	2023-05-13T00:00:00	2024-11-08T22:00:00	6	Velocidad del viento	8
123750	7	Sololá	713	San Lucas Tolimán	10	San Lucas Tolimán	5	Mayo	2023-05-13T00:00:00	2024-11-08T22:00:00	7	Dirección del viento	8.05
123751	7	Sololá	713	San Lucas Tolimán	10	San Lucas Tolimán	5	Mayo	2023-05-13T00:00:00	2024-11-08T22:00:00	1	Precipitación	0
123752	7	Sololá	713	San Lucas Tolimán	10	San Lucas Tolimán	5	Mayo	2023-05-13T00:00:00	2024-11-08T22:00:00	8	Radiación solar	0
123753	7	Sololá	713	San Lucas Tolimán	10	San Lucas Tolimán	5	Mayo	2023-05-13T00:00:00	2024-11-08T23:00:00	2	Temperatura media	18.4
123754	7	Sololá	713	San Lucas Tolimán	10	San Lucas Tolimán	5	Mayo	2023-05-13T00:00:00	2024-11-08T23:00:00	4	Temperatura máxima	18.4
123755	7	Sololá	713	San Lucas Tolimán	10	San Lucas Tolimán	5	Mayo	2023-05-13T00:00:00	2024-11-08T23:00:00	3	Temperatura mínima	17.9
123756	7	Sololá	713	San Lucas Tolimán	10	San Lucas Tolimán	5	Mayo	2023-05-13T00:00:00	2024-11-08T23:00:00	5	Humedad	62
123757	7	Sololá	713	San Lucas Tolimán	10	San Lucas Tolimán	5	Mayo	2023-05-13T00:00:00	2024-11-08T23:00:00	6	Velocidad del viento	3.2
123758	7	Sololá	713	San Lucas Tolimán	10	San Lucas Tolimán	5	Mayo	2023-05-13T00:00:00	2024-11-08T23:00:00	7	Dirección del viento	3.22
123759	7	Sololá	713	San Lucas Tolimán	10	San Lucas Tolimán	5	Mayo	2023-05-13T00:00:00	2024-11-08T23:00:00	1	Precipitación	0
123760	7	Sololá	713	San Lucas Tolimán	10	San Lucas Tolimán	5	Mayo	2023-05-13T00:00:00	2024-11-08T23:00:00	8	Radiación solar	0
123761	7	Sololá	713	San Lucas Tolimán	10	San Lucas Tolimán	5	Mayo	2023-05-14T00:00:00	2024-11-08T00:00:00	2	Temperatura media	18.1
123762	7	Sololá	713	San Lucas Tolimán	10	San Lucas Tolimán	5	Mayo	2023-05-14T00:00:00	2024-11-08T00:00:00	4	Temperatura máxima	18.6
123763	7	Sololá	713	San Lucas Tolimán	10	San Lucas Tolimán	5	Mayo	2023-05-14T00:00:00	2024-11-08T00:00:00	3	Temperatura mínima	17.9
123764	7	Sololá	713	San Lucas Tolimán	10	San Lucas Tolimán	5	Mayo	2023-05-14T00:00:00	2024-11-08T00:00:00	5	Humedad	61
123765	7	Sololá	713	San Lucas Tolimán	10	San Lucas Tolimán	5	Mayo	2023-05-14T00:00:00	2024-11-08T00:00:00	6	Velocidad del viento	3.2
123766	7	Sololá	713	San Lucas Tolimán	10	San Lucas Tolimán	5	Mayo	2023-05-14T00:00:00	2024-11-08T00:00:00	7	Dirección del viento	3.22
123767	7	Sololá	713	San Lucas Tolimán	10	San Lucas Tolimán	5	Mayo	2023-05-14T00:00:00	2024-11-08T00:00:00	1	Precipitación	0
123768	7	Sololá	713	San Lucas Tolimán	10	San Lucas Tolimán	5	Mayo	2023-05-14T00:00:00	2024-11-08T00:00:00	8	Radiación solar	0
123769	7	Sololá	713	San Lucas Tolimán	10	San Lucas Tolimán	5	Mayo	2023-05-14T00:00:00	2024-11-08T01:00:00	2	Temperatura media	17.6
123770	7	Sololá	713	San Lucas Tolimán	10	San Lucas Tolimán	5	Mayo	2023-05-14T00:00:00	2024-11-08T01:00:00	4	Temperatura máxima	18.1
123771	7	Sololá	713	San Lucas Tolimán	10	San Lucas Tolimán	5	Mayo	2023-05-14T00:00:00	2024-11-08T01:00:00	3	Temperatura mínima	17.6
123772	7	Sololá	713	San Lucas Tolimán	10	San Lucas Tolimán	5	Mayo	2023-05-14T00:00:00	2024-11-08T01:00:00	5	Humedad	62
123773	7	Sololá	713	San Lucas Tolimán	10	San Lucas Tolimán	5	Mayo	2023-05-14T00:00:00	2024-11-08T01:00:00	6	Velocidad del viento	1.6
123774	7	Sololá	713	San Lucas Tolimán	10	San Lucas Tolimán	5	Mayo	2023-05-14T00:00:00	2024-11-08T01:00:00	7	Dirección del viento	1.61
123775	7	Sololá	713	San Lucas Tolimán	10	San Lucas Tolimán	5	Mayo	2023-05-14T00:00:00	2024-11-08T01:00:00	1	Precipitación	0
123776	7	Sololá	713	San Lucas Tolimán	10	San Lucas Tolimán	5	Mayo	2023-05-14T00:00:00	2024-11-08T01:00:00	8	Radiación solar	0
123777	7	Sololá	713	San Lucas Tolimán	10	San Lucas Tolimán	5	Mayo	2023-05-14T00:00:00	2024-11-08T02:00:00	2	Temperatura media	17.8
123778	7	Sololá	713	San Lucas Tolimán	10	San Lucas Tolimán	5	Mayo	2023-05-14T00:00:00	2024-11-08T02:00:00	4	Temperatura máxima	17.8
123779	7	Sololá	713	San Lucas Tolimán	10	San Lucas Tolimán	5	Mayo	2023-05-14T00:00:00	2024-11-08T02:00:00	3	Temperatura mínima	17.4
123780	7	Sololá	713	San Lucas Tolimán	10	San Lucas Tolimán	5	Mayo	2023-05-14T00:00:00	2024-11-08T02:00:00	5	Humedad	62
123781	7	Sololá	713	San Lucas Tolimán	10	San Lucas Tolimán	5	Mayo	2023-05-14T00:00:00	2024-11-08T02:00:00	6	Velocidad del viento	0
123782	7	Sololá	713	San Lucas Tolimán	10	San Lucas Tolimán	5	Mayo	2023-05-14T00:00:00	2024-11-08T02:00:00	7	Dirección del viento	0
123783	7	Sololá	713	San Lucas Tolimán	10	San Lucas Tolimán	5	Mayo	2023-05-14T00:00:00	2024-11-08T02:00:00	1	Precipitación	0
123784	7	Sololá	713	San Lucas Tolimán	10	San Lucas Tolimán	5	Mayo	2023-05-14T00:00:00	2024-11-08T02:00:00	8	Radiación solar	0
123785	7	Sololá	713	San Lucas Tolimán	10	San Lucas Tolimán	5	Mayo	2023-05-14T00:00:00	2024-11-08T03:00:00	2	Temperatura media	17.9
123786	7	Sololá	713	San Lucas Tolimán	10	San Lucas Tolimán	5	Mayo	2023-05-14T00:00:00	2024-11-08T03:00:00	4	Temperatura máxima	17.9
123787	7	Sololá	713	San Lucas Tolimán	10	San Lucas Tolimán	5	Mayo	2023-05-14T00:00:00	2024-11-08T03:00:00	3	Temperatura mínima	17.7
123788	7	Sololá	713	San Lucas Tolimán	10	San Lucas Tolimán	5	Mayo	2023-05-14T00:00:00	2024-11-08T03:00:00	5	Humedad	60
123789	7	Sololá	713	San Lucas Tolimán	10	San Lucas Tolimán	5	Mayo	2023-05-14T00:00:00	2024-11-08T03:00:00	6	Velocidad del viento	0
123790	7	Sololá	713	San Lucas Tolimán	10	San Lucas Tolimán	5	Mayo	2023-05-14T00:00:00	2024-11-08T03:00:00	7	Dirección del viento	0
123791	7	Sololá	713	San Lucas Tolimán	10	San Lucas Tolimán	5	Mayo	2023-05-14T00:00:00	2024-11-08T03:00:00	1	Precipitación	0
123792	7	Sololá	713	San Lucas Tolimán	10	San Lucas Tolimán	5	Mayo	2023-05-14T00:00:00	2024-11-08T03:00:00	8	Radiación solar	0
123793	7	Sololá	713	San Lucas Tolimán	10	San Lucas Tolimán	5	Mayo	2023-05-14T00:00:00	2024-11-08T04:00:00	2	Temperatura media	17.9
123794	7	Sololá	713	San Lucas Tolimán	10	San Lucas Tolimán	5	Mayo	2023-05-14T00:00:00	2024-11-08T04:00:00	4	Temperatura máxima	18.7
123795	7	Sololá	713	San Lucas Tolimán	10	San Lucas Tolimán	5	Mayo	2023-05-14T00:00:00	2024-11-08T04:00:00	3	Temperatura mínima	17.4
123796	7	Sololá	713	San Lucas Tolimán	10	San Lucas Tolimán	5	Mayo	2023-05-14T00:00:00	2024-11-08T04:00:00	5	Humedad	57
123797	7	Sololá	713	San Lucas Tolimán	10	San Lucas Tolimán	5	Mayo	2023-05-14T00:00:00	2024-11-08T04:00:00	6	Velocidad del viento	14.5
123798	7	Sololá	713	San Lucas Tolimán	10	San Lucas Tolimán	5	Mayo	2023-05-14T00:00:00	2024-11-08T04:00:00	7	Dirección del viento	14.48
123799	7	Sololá	713	San Lucas Tolimán	10	San Lucas Tolimán	5	Mayo	2023-05-14T00:00:00	2024-11-08T04:00:00	1	Precipitación	1.4
123800	7	Sololá	713	San Lucas Tolimán	10	San Lucas Tolimán	5	Mayo	2023-05-14T00:00:00	2024-11-08T04:00:00	8	Radiación solar	0
123801	7	Sololá	713	San Lucas Tolimán	10	San Lucas Tolimán	5	Mayo	2023-05-14T00:00:00	2024-11-08T05:00:00	2	Temperatura media	18.1
123802	7	Sololá	713	San Lucas Tolimán	10	San Lucas Tolimán	5	Mayo	2023-05-14T00:00:00	2024-11-08T05:00:00	4	Temperatura máxima	19
123803	7	Sololá	713	San Lucas Tolimán	10	San Lucas Tolimán	5	Mayo	2023-05-14T00:00:00	2024-11-08T05:00:00	3	Temperatura mínima	17.8
123804	7	Sololá	713	San Lucas Tolimán	10	San Lucas Tolimán	5	Mayo	2023-05-14T00:00:00	2024-11-08T05:00:00	5	Humedad	56
123805	7	Sololá	713	San Lucas Tolimán	10	San Lucas Tolimán	5	Mayo	2023-05-14T00:00:00	2024-11-08T05:00:00	6	Velocidad del viento	17.7
123806	7	Sololá	713	San Lucas Tolimán	10	San Lucas Tolimán	5	Mayo	2023-05-14T00:00:00	2024-11-08T05:00:00	7	Dirección del viento	17.7
123807	7	Sololá	713	San Lucas Tolimán	10	San Lucas Tolimán	5	Mayo	2023-05-14T00:00:00	2024-11-08T05:00:00	1	Precipitación	0
123808	7	Sololá	713	San Lucas Tolimán	10	San Lucas Tolimán	5	Mayo	2023-05-14T00:00:00	2024-11-08T05:00:00	8	Radiación solar	0
123809	7	Sololá	713	San Lucas Tolimán	10	San Lucas Tolimán	5	Mayo	2023-05-14T00:00:00	2024-11-08T06:00:00	2	Temperatura media	16.8
123810	7	Sololá	713	San Lucas Tolimán	10	San Lucas Tolimán	5	Mayo	2023-05-14T00:00:00	2024-11-08T06:00:00	4	Temperatura máxima	18.3
123811	7	Sololá	713	San Lucas Tolimán	10	San Lucas Tolimán	5	Mayo	2023-05-14T00:00:00	2024-11-08T06:00:00	3	Temperatura mínima	16.8
123812	7	Sololá	713	San Lucas Tolimán	10	San Lucas Tolimán	5	Mayo	2023-05-14T00:00:00	2024-11-08T06:00:00	5	Humedad	64
123813	7	Sololá	713	San Lucas Tolimán	10	San Lucas Tolimán	5	Mayo	2023-05-14T00:00:00	2024-11-08T06:00:00	6	Velocidad del viento	3.2
123814	7	Sololá	713	San Lucas Tolimán	10	San Lucas Tolimán	5	Mayo	2023-05-14T00:00:00	2024-11-08T06:00:00	7	Dirección del viento	3.22
123815	7	Sololá	713	San Lucas Tolimán	10	San Lucas Tolimán	5	Mayo	2023-05-14T00:00:00	2024-11-08T06:00:00	1	Precipitación	0
123816	7	Sololá	713	San Lucas Tolimán	10	San Lucas Tolimán	5	Mayo	2023-05-14T00:00:00	2024-11-08T06:00:00	8	Radiación solar	1
123817	7	Sololá	713	San Lucas Tolimán	10	San Lucas Tolimán	5	Mayo	2023-05-14T00:00:00	2024-11-08T07:00:00	2	Temperatura media	16.6
123818	7	Sololá	713	San Lucas Tolimán	10	San Lucas Tolimán	5	Mayo	2023-05-14T00:00:00	2024-11-08T07:00:00	4	Temperatura máxima	16.9
123819	7	Sololá	713	San Lucas Tolimán	10	San Lucas Tolimán	5	Mayo	2023-05-14T00:00:00	2024-11-08T07:00:00	3	Temperatura mínima	16.4
123820	7	Sololá	713	San Lucas Tolimán	10	San Lucas Tolimán	5	Mayo	2023-05-14T00:00:00	2024-11-08T07:00:00	5	Humedad	63
123821	7	Sololá	713	San Lucas Tolimán	10	San Lucas Tolimán	5	Mayo	2023-05-14T00:00:00	2024-11-08T07:00:00	6	Velocidad del viento	1.6
123822	7	Sololá	713	San Lucas Tolimán	10	San Lucas Tolimán	5	Mayo	2023-05-14T00:00:00	2024-11-08T07:00:00	7	Dirección del viento	1.61
123823	7	Sololá	713	San Lucas Tolimán	10	San Lucas Tolimán	5	Mayo	2023-05-14T00:00:00	2024-11-08T07:00:00	1	Precipitación	0
123824	7	Sololá	713	San Lucas Tolimán	10	San Lucas Tolimán	5	Mayo	2023-05-14T00:00:00	2024-11-08T07:00:00	8	Radiación solar	16
123825	7	Sololá	713	San Lucas Tolimán	10	San Lucas Tolimán	5	Mayo	2023-05-14T00:00:00	2024-11-08T08:00:00	2	Temperatura media	18.2
123826	7	Sololá	713	San Lucas Tolimán	10	San Lucas Tolimán	5	Mayo	2023-05-14T00:00:00	2024-11-08T08:00:00	4	Temperatura máxima	18.2
123827	7	Sololá	713	San Lucas Tolimán	10	San Lucas Tolimán	5	Mayo	2023-05-14T00:00:00	2024-11-08T08:00:00	3	Temperatura mínima	16.6
123828	7	Sololá	713	San Lucas Tolimán	10	San Lucas Tolimán	5	Mayo	2023-05-14T00:00:00	2024-11-08T08:00:00	5	Humedad	59
123829	7	Sololá	713	San Lucas Tolimán	10	San Lucas Tolimán	5	Mayo	2023-05-14T00:00:00	2024-11-08T08:00:00	6	Velocidad del viento	3.2
123830	7	Sololá	713	San Lucas Tolimán	10	San Lucas Tolimán	5	Mayo	2023-05-14T00:00:00	2024-11-08T08:00:00	7	Dirección del viento	3.22
123831	7	Sololá	713	San Lucas Tolimán	10	San Lucas Tolimán	5	Mayo	2023-05-14T00:00:00	2024-11-08T08:00:00	1	Precipitación	0
123832	7	Sololá	713	San Lucas Tolimán	10	San Lucas Tolimán	5	Mayo	2023-05-14T00:00:00	2024-11-08T08:00:00	8	Radiación solar	67
123833	7	Sololá	713	San Lucas Tolimán	10	San Lucas Tolimán	5	Mayo	2023-05-14T00:00:00	2024-11-08T09:00:00	2	Temperatura media	20.7
123834	7	Sololá	713	San Lucas Tolimán	10	San Lucas Tolimán	5	Mayo	2023-05-14T00:00:00	2024-11-08T09:00:00	4	Temperatura máxima	20.7
123835	7	Sololá	713	San Lucas Tolimán	10	San Lucas Tolimán	5	Mayo	2023-05-14T00:00:00	2024-11-08T09:00:00	3	Temperatura mínima	18.2
123836	7	Sololá	713	San Lucas Tolimán	10	San Lucas Tolimán	5	Mayo	2023-05-14T00:00:00	2024-11-08T09:00:00	5	Humedad	49
123837	7	Sololá	713	San Lucas Tolimán	10	San Lucas Tolimán	5	Mayo	2023-05-14T00:00:00	2024-11-08T09:00:00	6	Velocidad del viento	3.2
123838	7	Sololá	713	San Lucas Tolimán	10	San Lucas Tolimán	5	Mayo	2023-05-14T00:00:00	2024-11-08T09:00:00	7	Dirección del viento	3.22
123839	7	Sololá	713	San Lucas Tolimán	10	San Lucas Tolimán	5	Mayo	2023-05-14T00:00:00	2024-11-08T09:00:00	1	Precipitación	0
123840	7	Sololá	713	San Lucas Tolimán	10	San Lucas Tolimán	5	Mayo	2023-05-14T00:00:00	2024-11-08T09:00:00	8	Radiación solar	333
123841	7	Sololá	713	San Lucas Tolimán	10	San Lucas Tolimán	5	Mayo	2023-05-14T00:00:00	2024-11-08T10:00:00	2	Temperatura media	20.6
123842	7	Sololá	713	San Lucas Tolimán	10	San Lucas Tolimán	5	Mayo	2023-05-14T00:00:00	2024-11-08T10:00:00	4	Temperatura máxima	21.6
123843	7	Sololá	713	San Lucas Tolimán	10	San Lucas Tolimán	5	Mayo	2023-05-14T00:00:00	2024-11-08T10:00:00	3	Temperatura mínima	20.1
123844	7	Sololá	713	San Lucas Tolimán	10	San Lucas Tolimán	5	Mayo	2023-05-14T00:00:00	2024-11-08T10:00:00	5	Humedad	49
123845	7	Sololá	713	San Lucas Tolimán	10	San Lucas Tolimán	5	Mayo	2023-05-14T00:00:00	2024-11-08T10:00:00	6	Velocidad del viento	6.4
123846	7	Sololá	713	San Lucas Tolimán	10	San Lucas Tolimán	5	Mayo	2023-05-14T00:00:00	2024-11-08T10:00:00	7	Dirección del viento	6.44
123847	7	Sololá	713	San Lucas Tolimán	10	San Lucas Tolimán	5	Mayo	2023-05-14T00:00:00	2024-11-08T10:00:00	1	Precipitación	0
123848	7	Sololá	713	San Lucas Tolimán	10	San Lucas Tolimán	5	Mayo	2023-05-14T00:00:00	2024-11-08T10:00:00	8	Radiación solar	318
123849	7	Sololá	713	San Lucas Tolimán	10	San Lucas Tolimán	5	Mayo	2023-05-14T00:00:00	2024-11-08T11:00:00	2	Temperatura media	22.4
123850	7	Sololá	713	San Lucas Tolimán	10	San Lucas Tolimán	5	Mayo	2023-05-14T00:00:00	2024-11-08T11:00:00	4	Temperatura máxima	22.4
123851	7	Sololá	713	San Lucas Tolimán	10	San Lucas Tolimán	5	Mayo	2023-05-14T00:00:00	2024-11-08T11:00:00	3	Temperatura mínima	20.6
123852	7	Sololá	713	San Lucas Tolimán	10	San Lucas Tolimán	5	Mayo	2023-05-14T00:00:00	2024-11-08T11:00:00	5	Humedad	47
123853	7	Sololá	713	San Lucas Tolimán	10	San Lucas Tolimán	5	Mayo	2023-05-14T00:00:00	2024-11-08T11:00:00	6	Velocidad del viento	9.7
123854	7	Sololá	713	San Lucas Tolimán	10	San Lucas Tolimán	5	Mayo	2023-05-14T00:00:00	2024-11-08T11:00:00	7	Dirección del viento	9.66
123855	7	Sololá	713	San Lucas Tolimán	10	San Lucas Tolimán	5	Mayo	2023-05-14T00:00:00	2024-11-08T11:00:00	1	Precipitación	0
123856	7	Sololá	713	San Lucas Tolimán	10	San Lucas Tolimán	5	Mayo	2023-05-14T00:00:00	2024-11-08T11:00:00	8	Radiación solar	599
123857	7	Sololá	713	San Lucas Tolimán	10	San Lucas Tolimán	5	Mayo	2023-05-14T00:00:00	2024-11-08T12:00:00	2	Temperatura media	23.7
123858	7	Sololá	713	San Lucas Tolimán	10	San Lucas Tolimán	5	Mayo	2023-05-14T00:00:00	2024-11-08T12:00:00	4	Temperatura máxima	23.7
123859	7	Sololá	713	San Lucas Tolimán	10	San Lucas Tolimán	5	Mayo	2023-05-14T00:00:00	2024-11-08T12:00:00	3	Temperatura mínima	22.2
123860	7	Sololá	713	San Lucas Tolimán	10	San Lucas Tolimán	5	Mayo	2023-05-14T00:00:00	2024-11-08T12:00:00	5	Humedad	49
123861	7	Sololá	713	San Lucas Tolimán	10	San Lucas Tolimán	5	Mayo	2023-05-14T00:00:00	2024-11-08T12:00:00	6	Velocidad del viento	6.4
123862	7	Sololá	713	San Lucas Tolimán	10	San Lucas Tolimán	5	Mayo	2023-05-14T00:00:00	2024-11-08T12:00:00	7	Dirección del viento	6.44
123863	7	Sololá	713	San Lucas Tolimán	10	San Lucas Tolimán	5	Mayo	2023-05-14T00:00:00	2024-11-08T12:00:00	1	Precipitación	0
123864	7	Sololá	713	San Lucas Tolimán	10	San Lucas Tolimán	5	Mayo	2023-05-14T00:00:00	2024-11-08T12:00:00	8	Radiación solar	829
123865	7	Sololá	713	San Lucas Tolimán	10	San Lucas Tolimán	5	Mayo	2023-05-14T00:00:00	2024-11-08T13:00:00	2	Temperatura media	23.8
123866	7	Sololá	713	San Lucas Tolimán	10	San Lucas Tolimán	5	Mayo	2023-05-14T00:00:00	2024-11-08T13:00:00	4	Temperatura máxima	24.3
123867	7	Sololá	713	San Lucas Tolimán	10	San Lucas Tolimán	5	Mayo	2023-05-14T00:00:00	2024-11-08T13:00:00	3	Temperatura mínima	23.7
123868	7	Sololá	713	San Lucas Tolimán	10	San Lucas Tolimán	5	Mayo	2023-05-14T00:00:00	2024-11-08T13:00:00	5	Humedad	52
123869	7	Sololá	713	San Lucas Tolimán	10	San Lucas Tolimán	5	Mayo	2023-05-14T00:00:00	2024-11-08T13:00:00	6	Velocidad del viento	9.7
123870	7	Sololá	713	San Lucas Tolimán	10	San Lucas Tolimán	5	Mayo	2023-05-14T00:00:00	2024-11-08T13:00:00	7	Dirección del viento	9.66
123871	7	Sololá	713	San Lucas Tolimán	10	San Lucas Tolimán	5	Mayo	2023-05-14T00:00:00	2024-11-08T13:00:00	1	Precipitación	0
123872	7	Sololá	713	San Lucas Tolimán	10	San Lucas Tolimán	5	Mayo	2023-05-14T00:00:00	2024-11-08T13:00:00	8	Radiación solar	1072
123873	7	Sololá	713	San Lucas Tolimán	10	San Lucas Tolimán	5	Mayo	2023-05-14T00:00:00	2024-11-08T14:00:00	2	Temperatura media	23.6
123874	7	Sololá	713	San Lucas Tolimán	10	San Lucas Tolimán	5	Mayo	2023-05-14T00:00:00	2024-11-08T14:00:00	4	Temperatura máxima	23.9
123875	7	Sololá	713	San Lucas Tolimán	10	San Lucas Tolimán	5	Mayo	2023-05-14T00:00:00	2024-11-08T14:00:00	3	Temperatura mínima	23.4
123876	7	Sololá	713	San Lucas Tolimán	10	San Lucas Tolimán	5	Mayo	2023-05-14T00:00:00	2024-11-08T14:00:00	5	Humedad	54
123877	7	Sololá	713	San Lucas Tolimán	10	San Lucas Tolimán	5	Mayo	2023-05-14T00:00:00	2024-11-08T14:00:00	6	Velocidad del viento	9.7
123878	7	Sololá	713	San Lucas Tolimán	10	San Lucas Tolimán	5	Mayo	2023-05-14T00:00:00	2024-11-08T14:00:00	7	Dirección del viento	9.66
123879	7	Sololá	713	San Lucas Tolimán	10	San Lucas Tolimán	5	Mayo	2023-05-14T00:00:00	2024-11-08T14:00:00	1	Precipitación	0
123880	7	Sololá	713	San Lucas Tolimán	10	San Lucas Tolimán	5	Mayo	2023-05-14T00:00:00	2024-11-08T14:00:00	8	Radiación solar	807
123881	7	Sololá	713	San Lucas Tolimán	10	San Lucas Tolimán	5	Mayo	2023-05-14T00:00:00	2024-11-08T15:00:00	2	Temperatura media	23.4
123882	7	Sololá	713	San Lucas Tolimán	10	San Lucas Tolimán	5	Mayo	2023-05-14T00:00:00	2024-11-08T15:00:00	4	Temperatura máxima	23.9
123883	7	Sololá	713	San Lucas Tolimán	10	San Lucas Tolimán	5	Mayo	2023-05-14T00:00:00	2024-11-08T15:00:00	3	Temperatura mínima	23.2
123884	7	Sololá	713	San Lucas Tolimán	10	San Lucas Tolimán	5	Mayo	2023-05-14T00:00:00	2024-11-08T15:00:00	5	Humedad	56
123885	7	Sololá	713	San Lucas Tolimán	10	San Lucas Tolimán	5	Mayo	2023-05-14T00:00:00	2024-11-08T15:00:00	6	Velocidad del viento	11.3
123886	7	Sololá	713	San Lucas Tolimán	10	San Lucas Tolimán	5	Mayo	2023-05-14T00:00:00	2024-11-08T15:00:00	7	Dirección del viento	11.27
123887	7	Sololá	713	San Lucas Tolimán	10	San Lucas Tolimán	5	Mayo	2023-05-14T00:00:00	2024-11-08T15:00:00	1	Precipitación	0
123888	7	Sololá	713	San Lucas Tolimán	10	San Lucas Tolimán	5	Mayo	2023-05-14T00:00:00	2024-11-08T15:00:00	8	Radiación solar	813
123889	7	Sololá	713	San Lucas Tolimán	10	San Lucas Tolimán	5	Mayo	2023-05-14T00:00:00	2024-11-08T16:00:00	2	Temperatura media	23.9
123890	7	Sololá	713	San Lucas Tolimán	10	San Lucas Tolimán	5	Mayo	2023-05-14T00:00:00	2024-11-08T16:00:00	4	Temperatura máxima	23.9
123891	7	Sololá	713	San Lucas Tolimán	10	San Lucas Tolimán	5	Mayo	2023-05-14T00:00:00	2024-11-08T16:00:00	3	Temperatura mínima	23.1
123892	7	Sololá	713	San Lucas Tolimán	10	San Lucas Tolimán	5	Mayo	2023-05-14T00:00:00	2024-11-08T16:00:00	5	Humedad	58
123893	7	Sololá	713	San Lucas Tolimán	10	San Lucas Tolimán	5	Mayo	2023-05-14T00:00:00	2024-11-08T16:00:00	6	Velocidad del viento	8
123894	7	Sololá	713	San Lucas Tolimán	10	San Lucas Tolimán	5	Mayo	2023-05-14T00:00:00	2024-11-08T16:00:00	7	Dirección del viento	8.05
123895	7	Sololá	713	San Lucas Tolimán	10	San Lucas Tolimán	5	Mayo	2023-05-14T00:00:00	2024-11-08T16:00:00	1	Precipitación	0
123896	7	Sololá	713	San Lucas Tolimán	10	San Lucas Tolimán	5	Mayo	2023-05-14T00:00:00	2024-11-08T16:00:00	8	Radiación solar	547
123897	7	Sololá	713	San Lucas Tolimán	10	San Lucas Tolimán	5	Mayo	2023-05-14T00:00:00	2024-11-08T17:00:00	2	Temperatura media	21.8
123898	7	Sololá	713	San Lucas Tolimán	10	San Lucas Tolimán	5	Mayo	2023-05-14T00:00:00	2024-11-08T17:00:00	4	Temperatura máxima	23.9
123899	7	Sololá	713	San Lucas Tolimán	10	San Lucas Tolimán	5	Mayo	2023-05-14T00:00:00	2024-11-08T17:00:00	3	Temperatura mínima	21.8
123900	7	Sololá	713	San Lucas Tolimán	10	San Lucas Tolimán	5	Mayo	2023-05-14T00:00:00	2024-11-08T17:00:00	5	Humedad	63
123901	7	Sololá	713	San Lucas Tolimán	10	San Lucas Tolimán	5	Mayo	2023-05-14T00:00:00	2024-11-08T17:00:00	6	Velocidad del viento	8
123902	7	Sololá	713	San Lucas Tolimán	10	San Lucas Tolimán	5	Mayo	2023-05-14T00:00:00	2024-11-08T17:00:00	7	Dirección del viento	8.05
123903	7	Sololá	713	San Lucas Tolimán	10	San Lucas Tolimán	5	Mayo	2023-05-14T00:00:00	2024-11-08T17:00:00	1	Precipitación	0
123904	7	Sololá	713	San Lucas Tolimán	10	San Lucas Tolimán	5	Mayo	2023-05-14T00:00:00	2024-11-08T17:00:00	8	Radiación solar	310
123905	7	Sololá	713	San Lucas Tolimán	10	San Lucas Tolimán	5	Mayo	2023-05-14T00:00:00	2024-11-08T18:00:00	2	Temperatura media	20.7
123906	7	Sololá	713	San Lucas Tolimán	10	San Lucas Tolimán	5	Mayo	2023-05-14T00:00:00	2024-11-08T18:00:00	4	Temperatura máxima	21.8
123907	7	Sololá	713	San Lucas Tolimán	10	San Lucas Tolimán	5	Mayo	2023-05-14T00:00:00	2024-11-08T18:00:00	3	Temperatura mínima	20.5
123908	7	Sololá	713	San Lucas Tolimán	10	San Lucas Tolimán	5	Mayo	2023-05-14T00:00:00	2024-11-08T18:00:00	5	Humedad	60
123909	7	Sololá	713	San Lucas Tolimán	10	San Lucas Tolimán	5	Mayo	2023-05-14T00:00:00	2024-11-08T18:00:00	6	Velocidad del viento	9.7
123910	7	Sololá	713	San Lucas Tolimán	10	San Lucas Tolimán	5	Mayo	2023-05-14T00:00:00	2024-11-08T18:00:00	7	Dirección del viento	9.66
123911	7	Sololá	713	San Lucas Tolimán	10	San Lucas Tolimán	5	Mayo	2023-05-14T00:00:00	2024-11-08T18:00:00	1	Precipitación	0
123912	7	Sololá	713	San Lucas Tolimán	10	San Lucas Tolimán	5	Mayo	2023-05-14T00:00:00	2024-11-08T18:00:00	8	Radiación solar	48
123913	7	Sololá	713	San Lucas Tolimán	10	San Lucas Tolimán	5	Mayo	2023-05-14T00:00:00	2024-11-08T19:00:00	2	Temperatura media	20.2
123914	7	Sololá	713	San Lucas Tolimán	10	San Lucas Tolimán	5	Mayo	2023-05-14T00:00:00	2024-11-08T19:00:00	4	Temperatura máxima	20.7
123915	7	Sololá	713	San Lucas Tolimán	10	San Lucas Tolimán	5	Mayo	2023-05-14T00:00:00	2024-11-08T19:00:00	3	Temperatura mínima	20.2
123916	7	Sololá	713	San Lucas Tolimán	10	San Lucas Tolimán	5	Mayo	2023-05-14T00:00:00	2024-11-08T19:00:00	5	Humedad	61
123917	7	Sololá	713	San Lucas Tolimán	10	San Lucas Tolimán	5	Mayo	2023-05-14T00:00:00	2024-11-08T19:00:00	6	Velocidad del viento	6.4
123918	7	Sololá	713	San Lucas Tolimán	10	San Lucas Tolimán	5	Mayo	2023-05-14T00:00:00	2024-11-08T19:00:00	7	Dirección del viento	6.44
123919	7	Sololá	713	San Lucas Tolimán	10	San Lucas Tolimán	5	Mayo	2023-05-14T00:00:00	2024-11-08T19:00:00	1	Precipitación	0
123920	7	Sololá	713	San Lucas Tolimán	10	San Lucas Tolimán	5	Mayo	2023-05-14T00:00:00	2024-11-08T19:00:00	8	Radiación solar	0
123921	7	Sololá	713	San Lucas Tolimán	10	San Lucas Tolimán	5	Mayo	2023-05-14T00:00:00	2024-11-08T20:00:00	2	Temperatura media	20.2
123922	7	Sololá	713	San Lucas Tolimán	10	San Lucas Tolimán	5	Mayo	2023-05-14T00:00:00	2024-11-08T20:00:00	4	Temperatura máxima	20.2
123923	7	Sololá	713	San Lucas Tolimán	10	San Lucas Tolimán	5	Mayo	2023-05-14T00:00:00	2024-11-08T20:00:00	3	Temperatura mínima	19.9
123924	7	Sololá	713	San Lucas Tolimán	10	San Lucas Tolimán	5	Mayo	2023-05-14T00:00:00	2024-11-08T20:00:00	5	Humedad	61
123925	7	Sololá	713	San Lucas Tolimán	10	San Lucas Tolimán	5	Mayo	2023-05-14T00:00:00	2024-11-08T20:00:00	6	Velocidad del viento	3.2
123926	7	Sololá	713	San Lucas Tolimán	10	San Lucas Tolimán	5	Mayo	2023-05-14T00:00:00	2024-11-08T20:00:00	7	Dirección del viento	3.22
123927	7	Sololá	713	San Lucas Tolimán	10	San Lucas Tolimán	5	Mayo	2023-05-14T00:00:00	2024-11-08T20:00:00	1	Precipitación	0
123928	7	Sololá	713	San Lucas Tolimán	10	San Lucas Tolimán	5	Mayo	2023-05-14T00:00:00	2024-11-08T20:00:00	8	Radiación solar	0
123929	7	Sololá	713	San Lucas Tolimán	10	San Lucas Tolimán	5	Mayo	2023-05-14T00:00:00	2024-11-08T21:00:00	2	Temperatura media	20.1
123930	7	Sololá	713	San Lucas Tolimán	10	San Lucas Tolimán	5	Mayo	2023-05-14T00:00:00	2024-11-08T21:00:00	4	Temperatura máxima	20.2
123931	7	Sololá	713	San Lucas Tolimán	10	San Lucas Tolimán	5	Mayo	2023-05-14T00:00:00	2024-11-08T21:00:00	3	Temperatura mínima	19.9
123932	7	Sololá	713	San Lucas Tolimán	10	San Lucas Tolimán	5	Mayo	2023-05-14T00:00:00	2024-11-08T21:00:00	5	Humedad	58
123933	7	Sololá	713	San Lucas Tolimán	10	San Lucas Tolimán	5	Mayo	2023-05-14T00:00:00	2024-11-08T21:00:00	6	Velocidad del viento	3.2
123934	7	Sololá	713	San Lucas Tolimán	10	San Lucas Tolimán	5	Mayo	2023-05-14T00:00:00	2024-11-08T21:00:00	7	Dirección del viento	3.22
123935	7	Sololá	713	San Lucas Tolimán	10	San Lucas Tolimán	5	Mayo	2023-05-14T00:00:00	2024-11-08T21:00:00	1	Precipitación	0
123936	7	Sololá	713	San Lucas Tolimán	10	San Lucas Tolimán	5	Mayo	2023-05-14T00:00:00	2024-11-08T21:00:00	8	Radiación solar	0
123937	7	Sololá	713	San Lucas Tolimán	10	San Lucas Tolimán	5	Mayo	2023-05-14T00:00:00	2024-11-08T22:00:00	2	Temperatura media	18.8
123938	7	Sololá	713	San Lucas Tolimán	10	San Lucas Tolimán	5	Mayo	2023-05-14T00:00:00	2024-11-08T22:00:00	4	Temperatura máxima	20.1
123939	7	Sololá	713	San Lucas Tolimán	10	San Lucas Tolimán	5	Mayo	2023-05-14T00:00:00	2024-11-08T22:00:00	3	Temperatura mínima	18.7
123940	7	Sololá	713	San Lucas Tolimán	10	San Lucas Tolimán	5	Mayo	2023-05-14T00:00:00	2024-11-08T22:00:00	5	Humedad	62
123941	7	Sololá	713	San Lucas Tolimán	10	San Lucas Tolimán	5	Mayo	2023-05-14T00:00:00	2024-11-08T22:00:00	6	Velocidad del viento	3.2
123942	7	Sololá	713	San Lucas Tolimán	10	San Lucas Tolimán	5	Mayo	2023-05-14T00:00:00	2024-11-08T22:00:00	7	Dirección del viento	3.22
123943	7	Sololá	713	San Lucas Tolimán	10	San Lucas Tolimán	5	Mayo	2023-05-14T00:00:00	2024-11-08T22:00:00	1	Precipitación	0
123944	7	Sololá	713	San Lucas Tolimán	10	San Lucas Tolimán	5	Mayo	2023-05-14T00:00:00	2024-11-08T22:00:00	8	Radiación solar	0
123945	7	Sololá	713	San Lucas Tolimán	10	San Lucas Tolimán	5	Mayo	2023-05-14T00:00:00	2024-11-08T23:00:00	2	Temperatura media	18.2
123946	7	Sololá	713	San Lucas Tolimán	10	San Lucas Tolimán	5	Mayo	2023-05-14T00:00:00	2024-11-08T23:00:00	4	Temperatura máxima	18.8
123947	7	Sololá	713	San Lucas Tolimán	10	San Lucas Tolimán	5	Mayo	2023-05-14T00:00:00	2024-11-08T23:00:00	3	Temperatura mínima	18.2
123948	7	Sololá	713	San Lucas Tolimán	10	San Lucas Tolimán	5	Mayo	2023-05-14T00:00:00	2024-11-08T23:00:00	5	Humedad	62
123949	7	Sololá	713	San Lucas Tolimán	10	San Lucas Tolimán	5	Mayo	2023-05-14T00:00:00	2024-11-08T23:00:00	6	Velocidad del viento	1.6
123950	7	Sololá	713	San Lucas Tolimán	10	San Lucas Tolimán	5	Mayo	2023-05-14T00:00:00	2024-11-08T23:00:00	7	Dirección del viento	1.61
123951	7	Sololá	713	San Lucas Tolimán	10	San Lucas Tolimán	5	Mayo	2023-05-14T00:00:00	2024-11-08T23:00:00	1	Precipitación	0
123952	7	Sololá	713	San Lucas Tolimán	10	San Lucas Tolimán	5	Mayo	2023-05-14T00:00:00	2024-11-08T23:00:00	8	Radiación solar	0
123953	7	Sololá	713	San Lucas Tolimán	10	San Lucas Tolimán	5	Mayo	2023-05-15T00:00:00	2024-11-08T00:00:00	2	Temperatura media	19.1
123954	7	Sololá	713	San Lucas Tolimán	10	San Lucas Tolimán	5	Mayo	2023-05-15T00:00:00	2024-11-08T00:00:00	4	Temperatura máxima	19.1
123955	7	Sololá	713	San Lucas Tolimán	10	San Lucas Tolimán	5	Mayo	2023-05-15T00:00:00	2024-11-08T00:00:00	3	Temperatura mínima	18.1
123956	7	Sololá	713	San Lucas Tolimán	10	San Lucas Tolimán	5	Mayo	2023-05-15T00:00:00	2024-11-08T00:00:00	5	Humedad	57
123957	7	Sololá	713	San Lucas Tolimán	10	San Lucas Tolimán	5	Mayo	2023-05-15T00:00:00	2024-11-08T00:00:00	6	Velocidad del viento	1.6
123958	7	Sololá	713	San Lucas Tolimán	10	San Lucas Tolimán	5	Mayo	2023-05-15T00:00:00	2024-11-08T00:00:00	7	Dirección del viento	1.61
123959	7	Sololá	713	San Lucas Tolimán	10	San Lucas Tolimán	5	Mayo	2023-05-15T00:00:00	2024-11-08T00:00:00	1	Precipitación	0
123960	7	Sololá	713	San Lucas Tolimán	10	San Lucas Tolimán	5	Mayo	2023-05-15T00:00:00	2024-11-08T00:00:00	8	Radiación solar	0
123961	7	Sololá	713	San Lucas Tolimán	10	San Lucas Tolimán	5	Mayo	2023-05-15T00:00:00	2024-11-08T01:00:00	2	Temperatura media	18.4
123962	7	Sololá	713	San Lucas Tolimán	10	San Lucas Tolimán	5	Mayo	2023-05-15T00:00:00	2024-11-08T01:00:00	4	Temperatura máxima	19.1
123963	7	Sololá	713	San Lucas Tolimán	10	San Lucas Tolimán	5	Mayo	2023-05-15T00:00:00	2024-11-08T01:00:00	3	Temperatura mínima	18.3
123964	7	Sololá	713	San Lucas Tolimán	10	San Lucas Tolimán	5	Mayo	2023-05-15T00:00:00	2024-11-08T01:00:00	5	Humedad	57
123965	7	Sololá	713	San Lucas Tolimán	10	San Lucas Tolimán	5	Mayo	2023-05-15T00:00:00	2024-11-08T01:00:00	6	Velocidad del viento	0
123966	7	Sololá	713	San Lucas Tolimán	10	San Lucas Tolimán	5	Mayo	2023-05-15T00:00:00	2024-11-08T01:00:00	7	Dirección del viento	0
123967	7	Sololá	713	San Lucas Tolimán	10	San Lucas Tolimán	5	Mayo	2023-05-15T00:00:00	2024-11-08T01:00:00	1	Precipitación	0
123968	7	Sololá	713	San Lucas Tolimán	10	San Lucas Tolimán	5	Mayo	2023-05-15T00:00:00	2024-11-08T01:00:00	8	Radiación solar	0
123969	7	Sololá	713	San Lucas Tolimán	10	San Lucas Tolimán	5	Mayo	2023-05-15T00:00:00	2024-11-08T02:00:00	2	Temperatura media	18.8
123970	7	Sololá	713	San Lucas Tolimán	10	San Lucas Tolimán	5	Mayo	2023-05-15T00:00:00	2024-11-08T02:00:00	4	Temperatura máxima	18.8
123971	7	Sololá	713	San Lucas Tolimán	10	San Lucas Tolimán	5	Mayo	2023-05-15T00:00:00	2024-11-08T02:00:00	3	Temperatura mínima	18.3
123972	7	Sololá	713	San Lucas Tolimán	10	San Lucas Tolimán	5	Mayo	2023-05-15T00:00:00	2024-11-08T02:00:00	5	Humedad	57
123973	7	Sololá	713	San Lucas Tolimán	10	San Lucas Tolimán	5	Mayo	2023-05-15T00:00:00	2024-11-08T02:00:00	6	Velocidad del viento	1.6
123974	7	Sololá	713	San Lucas Tolimán	10	San Lucas Tolimán	5	Mayo	2023-05-15T00:00:00	2024-11-08T02:00:00	7	Dirección del viento	1.61
123975	7	Sololá	713	San Lucas Tolimán	10	San Lucas Tolimán	5	Mayo	2023-05-15T00:00:00	2024-11-08T02:00:00	1	Precipitación	0
123976	7	Sololá	713	San Lucas Tolimán	10	San Lucas Tolimán	5	Mayo	2023-05-15T00:00:00	2024-11-08T02:00:00	8	Radiación solar	0
123977	7	Sololá	713	San Lucas Tolimán	10	San Lucas Tolimán	5	Mayo	2023-05-15T00:00:00	2024-11-08T03:00:00	2	Temperatura media	18.3
123978	7	Sololá	713	San Lucas Tolimán	10	San Lucas Tolimán	5	Mayo	2023-05-15T00:00:00	2024-11-08T03:00:00	4	Temperatura máxima	18.8
123979	7	Sololá	713	San Lucas Tolimán	10	San Lucas Tolimán	5	Mayo	2023-05-15T00:00:00	2024-11-08T03:00:00	3	Temperatura mínima	18.3
123980	7	Sololá	713	San Lucas Tolimán	10	San Lucas Tolimán	5	Mayo	2023-05-15T00:00:00	2024-11-08T03:00:00	5	Humedad	58
123981	7	Sololá	713	San Lucas Tolimán	10	San Lucas Tolimán	5	Mayo	2023-05-15T00:00:00	2024-11-08T03:00:00	6	Velocidad del viento	0
123982	7	Sololá	713	San Lucas Tolimán	10	San Lucas Tolimán	5	Mayo	2023-05-15T00:00:00	2024-11-08T03:00:00	7	Dirección del viento	0
123983	7	Sololá	713	San Lucas Tolimán	10	San Lucas Tolimán	5	Mayo	2023-05-15T00:00:00	2024-11-08T03:00:00	1	Precipitación	0
123984	7	Sololá	713	San Lucas Tolimán	10	San Lucas Tolimán	5	Mayo	2023-05-15T00:00:00	2024-11-08T03:00:00	8	Radiación solar	0
123985	7	Sololá	713	San Lucas Tolimán	10	San Lucas Tolimán	5	Mayo	2023-05-15T00:00:00	2024-11-08T04:00:00	2	Temperatura media	18.4
123986	7	Sololá	713	San Lucas Tolimán	10	San Lucas Tolimán	5	Mayo	2023-05-15T00:00:00	2024-11-08T04:00:00	4	Temperatura máxima	18.4
123987	7	Sololá	713	San Lucas Tolimán	10	San Lucas Tolimán	5	Mayo	2023-05-15T00:00:00	2024-11-08T04:00:00	3	Temperatura mínima	18
123988	7	Sololá	713	San Lucas Tolimán	10	San Lucas Tolimán	5	Mayo	2023-05-15T00:00:00	2024-11-08T04:00:00	5	Humedad	58
123989	7	Sololá	713	San Lucas Tolimán	10	San Lucas Tolimán	5	Mayo	2023-05-15T00:00:00	2024-11-08T04:00:00	6	Velocidad del viento	1.6
123990	7	Sololá	713	San Lucas Tolimán	10	San Lucas Tolimán	5	Mayo	2023-05-15T00:00:00	2024-11-08T04:00:00	7	Dirección del viento	1.61
123991	7	Sololá	713	San Lucas Tolimán	10	San Lucas Tolimán	5	Mayo	2023-05-15T00:00:00	2024-11-08T04:00:00	1	Precipitación	0
123992	7	Sololá	713	San Lucas Tolimán	10	San Lucas Tolimán	5	Mayo	2023-05-15T00:00:00	2024-11-08T04:00:00	8	Radiación solar	0
123993	7	Sololá	713	San Lucas Tolimán	10	San Lucas Tolimán	5	Mayo	2023-05-15T00:00:00	2024-11-08T05:00:00	2	Temperatura media	18.8
123994	7	Sololá	713	San Lucas Tolimán	10	San Lucas Tolimán	5	Mayo	2023-05-15T00:00:00	2024-11-08T05:00:00	4	Temperatura máxima	18.9
123995	7	Sololá	713	San Lucas Tolimán	10	San Lucas Tolimán	5	Mayo	2023-05-15T00:00:00	2024-11-08T05:00:00	3	Temperatura mínima	18.4
123996	7	Sololá	713	San Lucas Tolimán	10	San Lucas Tolimán	5	Mayo	2023-05-15T00:00:00	2024-11-08T05:00:00	5	Humedad	57
123997	7	Sololá	713	San Lucas Tolimán	10	San Lucas Tolimán	5	Mayo	2023-05-15T00:00:00	2024-11-08T05:00:00	6	Velocidad del viento	3.2
123998	7	Sololá	713	San Lucas Tolimán	10	San Lucas Tolimán	5	Mayo	2023-05-15T00:00:00	2024-11-08T05:00:00	7	Dirección del viento	3.22
123999	7	Sololá	713	San Lucas Tolimán	10	San Lucas Tolimán	5	Mayo	2023-05-15T00:00:00	2024-11-08T05:00:00	1	Precipitación	0
124000	7	Sololá	713	San Lucas Tolimán	10	San Lucas Tolimán	5	Mayo	2023-05-15T00:00:00	2024-11-08T05:00:00	8	Radiación solar	0
124001	7	Sololá	713	San Lucas Tolimán	10	San Lucas Tolimán	5	Mayo	2023-05-15T00:00:00	2024-11-08T06:00:00	2	Temperatura media	18
124002	7	Sololá	713	San Lucas Tolimán	10	San Lucas Tolimán	5	Mayo	2023-05-15T00:00:00	2024-11-08T06:00:00	4	Temperatura máxima	18.8
124003	7	Sololá	713	San Lucas Tolimán	10	San Lucas Tolimán	5	Mayo	2023-05-15T00:00:00	2024-11-08T06:00:00	3	Temperatura mínima	17.9
124004	7	Sololá	713	San Lucas Tolimán	10	San Lucas Tolimán	5	Mayo	2023-05-15T00:00:00	2024-11-08T06:00:00	5	Humedad	59
124005	7	Sololá	713	San Lucas Tolimán	10	San Lucas Tolimán	5	Mayo	2023-05-15T00:00:00	2024-11-08T06:00:00	6	Velocidad del viento	1.6
124006	7	Sololá	713	San Lucas Tolimán	10	San Lucas Tolimán	5	Mayo	2023-05-15T00:00:00	2024-11-08T06:00:00	7	Dirección del viento	1.61
124007	7	Sololá	713	San Lucas Tolimán	10	San Lucas Tolimán	5	Mayo	2023-05-15T00:00:00	2024-11-08T06:00:00	1	Precipitación	0
124008	7	Sololá	713	San Lucas Tolimán	10	San Lucas Tolimán	5	Mayo	2023-05-15T00:00:00	2024-11-08T06:00:00	8	Radiación solar	4
124009	7	Sololá	713	San Lucas Tolimán	10	San Lucas Tolimán	5	Mayo	2023-05-15T00:00:00	2024-11-08T07:00:00	2	Temperatura media	19.7
124010	7	Sololá	713	San Lucas Tolimán	10	San Lucas Tolimán	5	Mayo	2023-05-15T00:00:00	2024-11-08T07:00:00	4	Temperatura máxima	19.7
124011	7	Sololá	713	San Lucas Tolimán	10	San Lucas Tolimán	5	Mayo	2023-05-15T00:00:00	2024-11-08T07:00:00	3	Temperatura mínima	17.9
124012	7	Sololá	713	San Lucas Tolimán	10	San Lucas Tolimán	5	Mayo	2023-05-15T00:00:00	2024-11-08T07:00:00	5	Humedad	56
124013	7	Sololá	713	San Lucas Tolimán	10	San Lucas Tolimán	5	Mayo	2023-05-15T00:00:00	2024-11-08T07:00:00	6	Velocidad del viento	0
124014	7	Sololá	713	San Lucas Tolimán	10	San Lucas Tolimán	5	Mayo	2023-05-15T00:00:00	2024-11-08T07:00:00	7	Dirección del viento	0
124015	7	Sololá	713	San Lucas Tolimán	10	San Lucas Tolimán	5	Mayo	2023-05-15T00:00:00	2024-11-08T07:00:00	1	Precipitación	0
124016	7	Sololá	713	San Lucas Tolimán	10	San Lucas Tolimán	5	Mayo	2023-05-15T00:00:00	2024-11-08T07:00:00	8	Radiación solar	105
124017	7	Sololá	713	San Lucas Tolimán	10	San Lucas Tolimán	5	Mayo	2023-05-15T00:00:00	2024-11-08T08:00:00	2	Temperatura media	20.6
124018	7	Sololá	713	San Lucas Tolimán	10	San Lucas Tolimán	5	Mayo	2023-05-15T00:00:00	2024-11-08T08:00:00	4	Temperatura máxima	20.9
124019	7	Sololá	713	San Lucas Tolimán	10	San Lucas Tolimán	5	Mayo	2023-05-15T00:00:00	2024-11-08T08:00:00	3	Temperatura mínima	19.7
124020	7	Sololá	713	San Lucas Tolimán	10	San Lucas Tolimán	5	Mayo	2023-05-15T00:00:00	2024-11-08T08:00:00	5	Humedad	57
124021	7	Sololá	713	San Lucas Tolimán	10	San Lucas Tolimán	5	Mayo	2023-05-15T00:00:00	2024-11-08T08:00:00	6	Velocidad del viento	3.2
124022	7	Sololá	713	San Lucas Tolimán	10	San Lucas Tolimán	5	Mayo	2023-05-15T00:00:00	2024-11-08T08:00:00	7	Dirección del viento	3.22
124023	7	Sololá	713	San Lucas Tolimán	10	San Lucas Tolimán	5	Mayo	2023-05-15T00:00:00	2024-11-08T08:00:00	1	Precipitación	0
124024	7	Sololá	713	San Lucas Tolimán	10	San Lucas Tolimán	5	Mayo	2023-05-15T00:00:00	2024-11-08T08:00:00	8	Radiación solar	277
124025	7	Sololá	713	San Lucas Tolimán	10	San Lucas Tolimán	5	Mayo	2023-05-15T00:00:00	2024-11-08T09:00:00	2	Temperatura media	21.9
124026	7	Sololá	713	San Lucas Tolimán	10	San Lucas Tolimán	5	Mayo	2023-05-15T00:00:00	2024-11-08T09:00:00	4	Temperatura máxima	22.6
124027	7	Sololá	713	San Lucas Tolimán	10	San Lucas Tolimán	5	Mayo	2023-05-15T00:00:00	2024-11-08T09:00:00	3	Temperatura mínima	20.6
124028	7	Sololá	713	San Lucas Tolimán	10	San Lucas Tolimán	5	Mayo	2023-05-15T00:00:00	2024-11-08T09:00:00	5	Humedad	52
124029	7	Sololá	713	San Lucas Tolimán	10	San Lucas Tolimán	5	Mayo	2023-05-15T00:00:00	2024-11-08T09:00:00	6	Velocidad del viento	3.2
124030	7	Sololá	713	San Lucas Tolimán	10	San Lucas Tolimán	5	Mayo	2023-05-15T00:00:00	2024-11-08T09:00:00	7	Dirección del viento	3.22
124031	7	Sololá	713	San Lucas Tolimán	10	San Lucas Tolimán	5	Mayo	2023-05-15T00:00:00	2024-11-08T09:00:00	1	Precipitación	0
124032	7	Sololá	713	San Lucas Tolimán	10	San Lucas Tolimán	5	Mayo	2023-05-15T00:00:00	2024-11-08T09:00:00	8	Radiación solar	347
124033	7	Sololá	713	San Lucas Tolimán	10	San Lucas Tolimán	5	Mayo	2023-05-15T00:00:00	2024-11-08T10:00:00	2	Temperatura media	23.3
124034	7	Sololá	713	San Lucas Tolimán	10	San Lucas Tolimán	5	Mayo	2023-05-15T00:00:00	2024-11-08T10:00:00	4	Temperatura máxima	23.3
124035	7	Sololá	713	San Lucas Tolimán	10	San Lucas Tolimán	5	Mayo	2023-05-15T00:00:00	2024-11-08T10:00:00	3	Temperatura mínima	21.8
124036	7	Sololá	713	San Lucas Tolimán	10	San Lucas Tolimán	5	Mayo	2023-05-15T00:00:00	2024-11-08T10:00:00	5	Humedad	50
124037	7	Sololá	713	San Lucas Tolimán	10	San Lucas Tolimán	5	Mayo	2023-05-15T00:00:00	2024-11-08T10:00:00	6	Velocidad del viento	6.4
124038	7	Sololá	713	San Lucas Tolimán	10	San Lucas Tolimán	5	Mayo	2023-05-15T00:00:00	2024-11-08T10:00:00	7	Dirección del viento	6.44
124039	7	Sololá	713	San Lucas Tolimán	10	San Lucas Tolimán	5	Mayo	2023-05-15T00:00:00	2024-11-08T10:00:00	1	Precipitación	0
124040	7	Sololá	713	San Lucas Tolimán	10	San Lucas Tolimán	5	Mayo	2023-05-15T00:00:00	2024-11-08T10:00:00	8	Radiación solar	433
124041	7	Sololá	713	San Lucas Tolimán	10	San Lucas Tolimán	5	Mayo	2023-05-15T00:00:00	2024-11-08T11:00:00	2	Temperatura media	24.4
124042	7	Sololá	713	San Lucas Tolimán	10	San Lucas Tolimán	5	Mayo	2023-05-15T00:00:00	2024-11-08T11:00:00	4	Temperatura máxima	24.6
124043	7	Sololá	713	San Lucas Tolimán	10	San Lucas Tolimán	5	Mayo	2023-05-15T00:00:00	2024-11-08T11:00:00	3	Temperatura mínima	23.2
124044	7	Sololá	713	San Lucas Tolimán	10	San Lucas Tolimán	5	Mayo	2023-05-15T00:00:00	2024-11-08T11:00:00	5	Humedad	51
124045	7	Sololá	713	San Lucas Tolimán	10	San Lucas Tolimán	5	Mayo	2023-05-15T00:00:00	2024-11-08T11:00:00	6	Velocidad del viento	8
124046	7	Sololá	713	San Lucas Tolimán	10	San Lucas Tolimán	5	Mayo	2023-05-15T00:00:00	2024-11-08T11:00:00	7	Dirección del viento	8.05
124047	7	Sololá	713	San Lucas Tolimán	10	San Lucas Tolimán	5	Mayo	2023-05-15T00:00:00	2024-11-08T11:00:00	1	Precipitación	0
124048	7	Sololá	713	San Lucas Tolimán	10	San Lucas Tolimán	5	Mayo	2023-05-15T00:00:00	2024-11-08T11:00:00	8	Radiación solar	1050
124049	7	Sololá	713	San Lucas Tolimán	10	San Lucas Tolimán	5	Mayo	2023-05-15T00:00:00	2024-11-08T12:00:00	2	Temperatura media	24.1
124050	7	Sololá	713	San Lucas Tolimán	10	San Lucas Tolimán	5	Mayo	2023-05-15T00:00:00	2024-11-08T12:00:00	4	Temperatura máxima	24.7
124051	7	Sololá	713	San Lucas Tolimán	10	San Lucas Tolimán	5	Mayo	2023-05-15T00:00:00	2024-11-08T12:00:00	3	Temperatura mínima	23.9
124052	7	Sololá	713	San Lucas Tolimán	10	San Lucas Tolimán	5	Mayo	2023-05-15T00:00:00	2024-11-08T12:00:00	5	Humedad	51
124053	7	Sololá	713	San Lucas Tolimán	10	San Lucas Tolimán	5	Mayo	2023-05-15T00:00:00	2024-11-08T12:00:00	6	Velocidad del viento	9.7
124054	7	Sololá	713	San Lucas Tolimán	10	San Lucas Tolimán	5	Mayo	2023-05-15T00:00:00	2024-11-08T12:00:00	7	Dirección del viento	9.66
124055	7	Sololá	713	San Lucas Tolimán	10	San Lucas Tolimán	5	Mayo	2023-05-15T00:00:00	2024-11-08T12:00:00	1	Precipitación	0
124056	7	Sololá	713	San Lucas Tolimán	10	San Lucas Tolimán	5	Mayo	2023-05-15T00:00:00	2024-11-08T12:00:00	8	Radiación solar	1009
124057	7	Sololá	713	San Lucas Tolimán	10	San Lucas Tolimán	5	Mayo	2023-05-15T00:00:00	2024-11-08T13:00:00	2	Temperatura media	24.6
124058	7	Sololá	713	San Lucas Tolimán	10	San Lucas Tolimán	5	Mayo	2023-05-15T00:00:00	2024-11-08T13:00:00	4	Temperatura máxima	24.9
124059	7	Sololá	713	San Lucas Tolimán	10	San Lucas Tolimán	5	Mayo	2023-05-15T00:00:00	2024-11-08T13:00:00	3	Temperatura mínima	23.7
124060	7	Sololá	713	San Lucas Tolimán	10	San Lucas Tolimán	5	Mayo	2023-05-15T00:00:00	2024-11-08T13:00:00	5	Humedad	54
124061	7	Sololá	713	San Lucas Tolimán	10	San Lucas Tolimán	5	Mayo	2023-05-15T00:00:00	2024-11-08T13:00:00	6	Velocidad del viento	8
124062	7	Sololá	713	San Lucas Tolimán	10	San Lucas Tolimán	5	Mayo	2023-05-15T00:00:00	2024-11-08T13:00:00	7	Dirección del viento	8.05
124063	7	Sololá	713	San Lucas Tolimán	10	San Lucas Tolimán	5	Mayo	2023-05-15T00:00:00	2024-11-08T13:00:00	1	Precipitación	0
124064	7	Sololá	713	San Lucas Tolimán	10	San Lucas Tolimán	5	Mayo	2023-05-15T00:00:00	2024-11-08T13:00:00	8	Radiación solar	1023
124065	7	Sololá	713	San Lucas Tolimán	10	San Lucas Tolimán	5	Mayo	2023-05-15T00:00:00	2024-11-08T14:00:00	2	Temperatura media	23.9
124066	7	Sololá	713	San Lucas Tolimán	10	San Lucas Tolimán	5	Mayo	2023-05-15T00:00:00	2024-11-08T14:00:00	4	Temperatura máxima	24.7
124067	7	Sololá	713	San Lucas Tolimán	10	San Lucas Tolimán	5	Mayo	2023-05-15T00:00:00	2024-11-08T14:00:00	3	Temperatura mínima	23.8
124068	7	Sololá	713	San Lucas Tolimán	10	San Lucas Tolimán	5	Mayo	2023-05-15T00:00:00	2024-11-08T14:00:00	5	Humedad	56
124069	7	Sololá	713	San Lucas Tolimán	10	San Lucas Tolimán	5	Mayo	2023-05-15T00:00:00	2024-11-08T14:00:00	6	Velocidad del viento	11.3
124070	7	Sololá	713	San Lucas Tolimán	10	San Lucas Tolimán	5	Mayo	2023-05-15T00:00:00	2024-11-08T14:00:00	7	Dirección del viento	11.27
124071	7	Sololá	713	San Lucas Tolimán	10	San Lucas Tolimán	5	Mayo	2023-05-15T00:00:00	2024-11-08T14:00:00	1	Precipitación	0
124072	7	Sololá	713	San Lucas Tolimán	10	San Lucas Tolimán	5	Mayo	2023-05-15T00:00:00	2024-11-08T14:00:00	8	Radiación solar	988
124073	7	Sololá	713	San Lucas Tolimán	10	San Lucas Tolimán	5	Mayo	2023-05-15T00:00:00	2024-11-08T15:00:00	2	Temperatura media	23.9
124074	7	Sololá	713	San Lucas Tolimán	10	San Lucas Tolimán	5	Mayo	2023-05-15T00:00:00	2024-11-08T15:00:00	4	Temperatura máxima	24.1
124075	7	Sololá	713	San Lucas Tolimán	10	San Lucas Tolimán	5	Mayo	2023-05-15T00:00:00	2024-11-08T15:00:00	3	Temperatura mínima	22.6
124076	7	Sololá	713	San Lucas Tolimán	10	San Lucas Tolimán	5	Mayo	2023-05-15T00:00:00	2024-11-08T15:00:00	5	Humedad	57
124077	7	Sololá	713	San Lucas Tolimán	10	San Lucas Tolimán	5	Mayo	2023-05-15T00:00:00	2024-11-08T15:00:00	6	Velocidad del viento	9.7
124078	7	Sololá	713	San Lucas Tolimán	10	San Lucas Tolimán	5	Mayo	2023-05-15T00:00:00	2024-11-08T15:00:00	7	Dirección del viento	9.66
124079	7	Sololá	713	San Lucas Tolimán	10	San Lucas Tolimán	5	Mayo	2023-05-15T00:00:00	2024-11-08T15:00:00	1	Precipitación	0
124080	7	Sololá	713	San Lucas Tolimán	10	San Lucas Tolimán	5	Mayo	2023-05-15T00:00:00	2024-11-08T15:00:00	8	Radiación solar	601
124081	7	Sololá	713	San Lucas Tolimán	10	San Lucas Tolimán	5	Mayo	2023-05-15T00:00:00	2024-11-08T16:00:00	2	Temperatura media	21.7
124082	7	Sololá	713	San Lucas Tolimán	10	San Lucas Tolimán	5	Mayo	2023-05-15T00:00:00	2024-11-08T16:00:00	4	Temperatura máxima	24.3
124083	7	Sololá	713	San Lucas Tolimán	10	San Lucas Tolimán	5	Mayo	2023-05-15T00:00:00	2024-11-08T16:00:00	3	Temperatura mínima	21.7
124084	7	Sololá	713	San Lucas Tolimán	10	San Lucas Tolimán	5	Mayo	2023-05-15T00:00:00	2024-11-08T16:00:00	5	Humedad	63
124085	7	Sololá	713	San Lucas Tolimán	10	San Lucas Tolimán	5	Mayo	2023-05-15T00:00:00	2024-11-08T16:00:00	6	Velocidad del viento	8
124086	7	Sololá	713	San Lucas Tolimán	10	San Lucas Tolimán	5	Mayo	2023-05-15T00:00:00	2024-11-08T16:00:00	7	Dirección del viento	8.05
124087	7	Sololá	713	San Lucas Tolimán	10	San Lucas Tolimán	5	Mayo	2023-05-15T00:00:00	2024-11-08T16:00:00	1	Precipitación	0
124088	7	Sololá	713	San Lucas Tolimán	10	San Lucas Tolimán	5	Mayo	2023-05-15T00:00:00	2024-11-08T16:00:00	8	Radiación solar	397
124089	7	Sololá	713	San Lucas Tolimán	10	San Lucas Tolimán	5	Mayo	2023-05-15T00:00:00	2024-11-08T17:00:00	2	Temperatura media	20.2
124090	7	Sololá	713	San Lucas Tolimán	10	San Lucas Tolimán	5	Mayo	2023-05-15T00:00:00	2024-11-08T17:00:00	4	Temperatura máxima	21.8
124091	7	Sololá	713	San Lucas Tolimán	10	San Lucas Tolimán	5	Mayo	2023-05-15T00:00:00	2024-11-08T17:00:00	3	Temperatura mínima	20.2
124092	7	Sololá	713	San Lucas Tolimán	10	San Lucas Tolimán	5	Mayo	2023-05-15T00:00:00	2024-11-08T17:00:00	5	Humedad	61
124093	7	Sololá	713	San Lucas Tolimán	10	San Lucas Tolimán	5	Mayo	2023-05-15T00:00:00	2024-11-08T17:00:00	6	Velocidad del viento	6.4
124094	7	Sololá	713	San Lucas Tolimán	10	San Lucas Tolimán	5	Mayo	2023-05-15T00:00:00	2024-11-08T17:00:00	7	Dirección del viento	6.44
124095	7	Sololá	713	San Lucas Tolimán	10	San Lucas Tolimán	5	Mayo	2023-05-15T00:00:00	2024-11-08T17:00:00	1	Precipitación	0
124096	7	Sololá	713	San Lucas Tolimán	10	San Lucas Tolimán	5	Mayo	2023-05-15T00:00:00	2024-11-08T17:00:00	8	Radiación solar	124
124097	7	Sololá	713	San Lucas Tolimán	10	San Lucas Tolimán	5	Mayo	2023-05-15T00:00:00	2024-11-08T18:00:00	2	Temperatura media	18.1
124098	7	Sololá	713	San Lucas Tolimán	10	San Lucas Tolimán	5	Mayo	2023-05-15T00:00:00	2024-11-08T18:00:00	4	Temperatura máxima	20.3
124099	7	Sololá	713	San Lucas Tolimán	10	San Lucas Tolimán	5	Mayo	2023-05-15T00:00:00	2024-11-08T18:00:00	3	Temperatura mínima	17.9
124100	7	Sololá	713	San Lucas Tolimán	10	San Lucas Tolimán	5	Mayo	2023-05-15T00:00:00	2024-11-08T18:00:00	5	Humedad	58
124101	7	Sololá	713	San Lucas Tolimán	10	San Lucas Tolimán	5	Mayo	2023-05-15T00:00:00	2024-11-08T18:00:00	6	Velocidad del viento	8
124102	7	Sololá	713	San Lucas Tolimán	10	San Lucas Tolimán	5	Mayo	2023-05-15T00:00:00	2024-11-08T18:00:00	7	Dirección del viento	8.05
124103	7	Sololá	713	San Lucas Tolimán	10	San Lucas Tolimán	5	Mayo	2023-05-15T00:00:00	2024-11-08T18:00:00	1	Precipitación	11.4
124104	7	Sololá	713	San Lucas Tolimán	10	San Lucas Tolimán	5	Mayo	2023-05-15T00:00:00	2024-11-08T18:00:00	8	Radiación solar	3
124105	7	Sololá	713	San Lucas Tolimán	10	San Lucas Tolimán	5	Mayo	2023-05-15T00:00:00	2024-11-08T19:00:00	2	Temperatura media	16.3
124106	7	Sololá	713	San Lucas Tolimán	10	San Lucas Tolimán	5	Mayo	2023-05-15T00:00:00	2024-11-08T19:00:00	4	Temperatura máxima	18.1
124107	7	Sololá	713	San Lucas Tolimán	10	San Lucas Tolimán	5	Mayo	2023-05-15T00:00:00	2024-11-08T19:00:00	3	Temperatura mínima	15.9
124108	7	Sololá	713	San Lucas Tolimán	10	San Lucas Tolimán	5	Mayo	2023-05-15T00:00:00	2024-11-08T19:00:00	5	Humedad	61
124109	7	Sololá	713	San Lucas Tolimán	10	San Lucas Tolimán	5	Mayo	2023-05-15T00:00:00	2024-11-08T19:00:00	6	Velocidad del viento	3.2
124110	7	Sololá	713	San Lucas Tolimán	10	San Lucas Tolimán	5	Mayo	2023-05-15T00:00:00	2024-11-08T19:00:00	7	Dirección del viento	3.22
124111	7	Sololá	713	San Lucas Tolimán	10	San Lucas Tolimán	5	Mayo	2023-05-15T00:00:00	2024-11-08T19:00:00	1	Precipitación	4.4
124112	7	Sololá	713	San Lucas Tolimán	10	San Lucas Tolimán	5	Mayo	2023-05-15T00:00:00	2024-11-08T19:00:00	8	Radiación solar	0
124113	7	Sololá	713	San Lucas Tolimán	10	San Lucas Tolimán	5	Mayo	2023-05-15T00:00:00	2024-11-08T20:00:00	2	Temperatura media	17.4
124114	7	Sololá	713	San Lucas Tolimán	10	San Lucas Tolimán	5	Mayo	2023-05-15T00:00:00	2024-11-08T20:00:00	4	Temperatura máxima	17.4
124115	7	Sololá	713	San Lucas Tolimán	10	San Lucas Tolimán	5	Mayo	2023-05-15T00:00:00	2024-11-08T20:00:00	3	Temperatura mínima	16.1
124116	7	Sololá	713	San Lucas Tolimán	10	San Lucas Tolimán	5	Mayo	2023-05-15T00:00:00	2024-11-08T20:00:00	5	Humedad	59
124117	7	Sololá	713	San Lucas Tolimán	10	San Lucas Tolimán	5	Mayo	2023-05-15T00:00:00	2024-11-08T20:00:00	6	Velocidad del viento	4.8
124118	7	Sololá	713	San Lucas Tolimán	10	San Lucas Tolimán	5	Mayo	2023-05-15T00:00:00	2024-11-08T20:00:00	7	Dirección del viento	4.83
124119	7	Sololá	713	San Lucas Tolimán	10	San Lucas Tolimán	5	Mayo	2023-05-15T00:00:00	2024-11-08T20:00:00	1	Precipitación	0.2
124120	7	Sololá	713	San Lucas Tolimán	10	San Lucas Tolimán	5	Mayo	2023-05-15T00:00:00	2024-11-08T20:00:00	8	Radiación solar	0
124121	7	Sololá	713	San Lucas Tolimán	10	San Lucas Tolimán	5	Mayo	2023-05-15T00:00:00	2024-11-08T21:00:00	2	Temperatura media	17.7
124122	7	Sololá	713	San Lucas Tolimán	10	San Lucas Tolimán	5	Mayo	2023-05-15T00:00:00	2024-11-08T21:00:00	4	Temperatura máxima	17.7
124123	7	Sololá	713	San Lucas Tolimán	10	San Lucas Tolimán	5	Mayo	2023-05-15T00:00:00	2024-11-08T21:00:00	3	Temperatura mínima	16.9
124124	7	Sololá	713	San Lucas Tolimán	10	San Lucas Tolimán	5	Mayo	2023-05-15T00:00:00	2024-11-08T21:00:00	5	Humedad	60
124125	7	Sololá	713	San Lucas Tolimán	10	San Lucas Tolimán	5	Mayo	2023-05-15T00:00:00	2024-11-08T21:00:00	6	Velocidad del viento	3.2
124126	7	Sololá	713	San Lucas Tolimán	10	San Lucas Tolimán	5	Mayo	2023-05-15T00:00:00	2024-11-08T21:00:00	7	Dirección del viento	3.22
124127	7	Sololá	713	San Lucas Tolimán	10	San Lucas Tolimán	5	Mayo	2023-05-15T00:00:00	2024-11-08T21:00:00	1	Precipitación	0
124128	7	Sololá	713	San Lucas Tolimán	10	San Lucas Tolimán	5	Mayo	2023-05-15T00:00:00	2024-11-08T21:00:00	8	Radiación solar	0
124129	7	Sololá	713	San Lucas Tolimán	10	San Lucas Tolimán	5	Mayo	2023-05-15T00:00:00	2024-11-08T22:00:00	2	Temperatura media	16.8
124130	7	Sololá	713	San Lucas Tolimán	10	San Lucas Tolimán	5	Mayo	2023-05-15T00:00:00	2024-11-08T22:00:00	4	Temperatura máxima	17.6
124131	7	Sololá	713	San Lucas Tolimán	10	San Lucas Tolimán	5	Mayo	2023-05-15T00:00:00	2024-11-08T22:00:00	3	Temperatura mínima	16.7
124132	7	Sololá	713	San Lucas Tolimán	10	San Lucas Tolimán	5	Mayo	2023-05-15T00:00:00	2024-11-08T22:00:00	5	Humedad	60
124133	7	Sololá	713	San Lucas Tolimán	10	San Lucas Tolimán	5	Mayo	2023-05-15T00:00:00	2024-11-08T22:00:00	6	Velocidad del viento	1.6
124134	7	Sololá	713	San Lucas Tolimán	10	San Lucas Tolimán	5	Mayo	2023-05-15T00:00:00	2024-11-08T22:00:00	7	Dirección del viento	1.61
124135	7	Sololá	713	San Lucas Tolimán	10	San Lucas Tolimán	5	Mayo	2023-05-15T00:00:00	2024-11-08T22:00:00	1	Precipitación	0
124136	7	Sololá	713	San Lucas Tolimán	10	San Lucas Tolimán	5	Mayo	2023-05-15T00:00:00	2024-11-08T22:00:00	8	Radiación solar	0
124137	7	Sololá	713	San Lucas Tolimán	10	San Lucas Tolimán	5	Mayo	2023-05-15T00:00:00	2024-11-08T23:00:00	2	Temperatura media	16.7
124138	7	Sololá	713	San Lucas Tolimán	10	San Lucas Tolimán	5	Mayo	2023-05-15T00:00:00	2024-11-08T23:00:00	4	Temperatura máxima	17.3
124139	7	Sololá	713	San Lucas Tolimán	10	San Lucas Tolimán	5	Mayo	2023-05-15T00:00:00	2024-11-08T23:00:00	3	Temperatura mínima	16.6
124140	7	Sololá	713	San Lucas Tolimán	10	San Lucas Tolimán	5	Mayo	2023-05-15T00:00:00	2024-11-08T23:00:00	5	Humedad	58
124141	7	Sololá	713	San Lucas Tolimán	10	San Lucas Tolimán	5	Mayo	2023-05-15T00:00:00	2024-11-08T23:00:00	6	Velocidad del viento	4.8
124142	7	Sololá	713	San Lucas Tolimán	10	San Lucas Tolimán	5	Mayo	2023-05-15T00:00:00	2024-11-08T23:00:00	7	Dirección del viento	4.83
124143	7	Sololá	713	San Lucas Tolimán	10	San Lucas Tolimán	5	Mayo	2023-05-15T00:00:00	2024-11-08T23:00:00	1	Precipitación	0
124144	7	Sololá	713	San Lucas Tolimán	10	San Lucas Tolimán	5	Mayo	2023-05-15T00:00:00	2024-11-08T23:00:00	8	Radiación solar	0
124145	7	Sololá	713	San Lucas Tolimán	10	San Lucas Tolimán	5	Mayo	2023-05-16T00:00:00	2024-11-08T00:00:00	2	Temperatura media	16.7
124146	7	Sololá	713	San Lucas Tolimán	10	San Lucas Tolimán	5	Mayo	2023-05-16T00:00:00	2024-11-08T00:00:00	4	Temperatura máxima	17.2
124147	7	Sololá	713	San Lucas Tolimán	10	San Lucas Tolimán	5	Mayo	2023-05-16T00:00:00	2024-11-08T00:00:00	3	Temperatura mínima	16.6
124148	7	Sololá	713	San Lucas Tolimán	10	San Lucas Tolimán	5	Mayo	2023-05-16T00:00:00	2024-11-08T00:00:00	5	Humedad	59
124149	7	Sololá	713	San Lucas Tolimán	10	San Lucas Tolimán	5	Mayo	2023-05-16T00:00:00	2024-11-08T00:00:00	6	Velocidad del viento	3.2
124150	7	Sololá	713	San Lucas Tolimán	10	San Lucas Tolimán	5	Mayo	2023-05-16T00:00:00	2024-11-08T00:00:00	7	Dirección del viento	3.22
124151	7	Sololá	713	San Lucas Tolimán	10	San Lucas Tolimán	5	Mayo	2023-05-16T00:00:00	2024-11-08T00:00:00	1	Precipitación	0
124152	7	Sololá	713	San Lucas Tolimán	10	San Lucas Tolimán	5	Mayo	2023-05-16T00:00:00	2024-11-08T00:00:00	8	Radiación solar	0
124153	7	Sololá	713	San Lucas Tolimán	10	San Lucas Tolimán	5	Mayo	2023-05-16T00:00:00	2024-11-08T01:00:00	2	Temperatura media	15.3
124154	7	Sololá	713	San Lucas Tolimán	10	San Lucas Tolimán	5	Mayo	2023-05-16T00:00:00	2024-11-08T01:00:00	4	Temperatura máxima	16.7
124155	7	Sololá	713	San Lucas Tolimán	10	San Lucas Tolimán	5	Mayo	2023-05-16T00:00:00	2024-11-08T01:00:00	3	Temperatura mínima	15.2
124156	7	Sololá	713	San Lucas Tolimán	10	San Lucas Tolimán	5	Mayo	2023-05-16T00:00:00	2024-11-08T01:00:00	5	Humedad	61
124157	7	Sololá	713	San Lucas Tolimán	10	San Lucas Tolimán	5	Mayo	2023-05-16T00:00:00	2024-11-08T01:00:00	6	Velocidad del viento	3.2
124158	7	Sololá	713	San Lucas Tolimán	10	San Lucas Tolimán	5	Mayo	2023-05-16T00:00:00	2024-11-08T01:00:00	7	Dirección del viento	3.22
124159	7	Sololá	713	San Lucas Tolimán	10	San Lucas Tolimán	5	Mayo	2023-05-16T00:00:00	2024-11-08T01:00:00	1	Precipitación	0
124160	7	Sololá	713	San Lucas Tolimán	10	San Lucas Tolimán	5	Mayo	2023-05-16T00:00:00	2024-11-08T01:00:00	8	Radiación solar	0
124161	7	Sololá	713	San Lucas Tolimán	10	San Lucas Tolimán	5	Mayo	2023-05-16T00:00:00	2024-11-08T02:00:00	2	Temperatura media	14.8
124162	7	Sololá	713	San Lucas Tolimán	10	San Lucas Tolimán	5	Mayo	2023-05-16T00:00:00	2024-11-08T02:00:00	4	Temperatura máxima	15.3
124163	7	Sololá	713	San Lucas Tolimán	10	San Lucas Tolimán	5	Mayo	2023-05-16T00:00:00	2024-11-08T02:00:00	3	Temperatura mínima	14.8
124164	7	Sololá	713	San Lucas Tolimán	10	San Lucas Tolimán	5	Mayo	2023-05-16T00:00:00	2024-11-08T02:00:00	5	Humedad	62
124165	7	Sololá	713	San Lucas Tolimán	10	San Lucas Tolimán	5	Mayo	2023-05-16T00:00:00	2024-11-08T02:00:00	6	Velocidad del viento	1.6
124166	7	Sololá	713	San Lucas Tolimán	10	San Lucas Tolimán	5	Mayo	2023-05-16T00:00:00	2024-11-08T02:00:00	7	Dirección del viento	1.61
124167	7	Sololá	713	San Lucas Tolimán	10	San Lucas Tolimán	5	Mayo	2023-05-16T00:00:00	2024-11-08T02:00:00	1	Precipitación	0
124168	7	Sololá	713	San Lucas Tolimán	10	San Lucas Tolimán	5	Mayo	2023-05-16T00:00:00	2024-11-08T02:00:00	8	Radiación solar	0
124169	7	Sololá	713	San Lucas Tolimán	10	San Lucas Tolimán	5	Mayo	2023-05-16T00:00:00	2024-11-08T03:00:00	2	Temperatura media	15.9
124170	7	Sololá	713	San Lucas Tolimán	10	San Lucas Tolimán	5	Mayo	2023-05-16T00:00:00	2024-11-08T03:00:00	4	Temperatura máxima	15.9
124171	7	Sololá	713	San Lucas Tolimán	10	San Lucas Tolimán	5	Mayo	2023-05-16T00:00:00	2024-11-08T03:00:00	3	Temperatura mínima	14.7
124172	7	Sololá	713	San Lucas Tolimán	10	San Lucas Tolimán	5	Mayo	2023-05-16T00:00:00	2024-11-08T03:00:00	5	Humedad	59
124173	7	Sololá	713	San Lucas Tolimán	10	San Lucas Tolimán	5	Mayo	2023-05-16T00:00:00	2024-11-08T03:00:00	6	Velocidad del viento	1.6
124174	7	Sololá	713	San Lucas Tolimán	10	San Lucas Tolimán	5	Mayo	2023-05-16T00:00:00	2024-11-08T03:00:00	7	Dirección del viento	1.61
124175	7	Sololá	713	San Lucas Tolimán	10	San Lucas Tolimán	5	Mayo	2023-05-16T00:00:00	2024-11-08T03:00:00	1	Precipitación	0
124176	7	Sololá	713	San Lucas Tolimán	10	San Lucas Tolimán	5	Mayo	2023-05-16T00:00:00	2024-11-08T03:00:00	8	Radiación solar	0
124177	7	Sololá	713	San Lucas Tolimán	10	San Lucas Tolimán	5	Mayo	2023-05-16T00:00:00	2024-11-08T04:00:00	2	Temperatura media	15.8
124178	7	Sololá	713	San Lucas Tolimán	10	San Lucas Tolimán	5	Mayo	2023-05-16T00:00:00	2024-11-08T04:00:00	4	Temperatura máxima	16.1
124179	7	Sololá	713	San Lucas Tolimán	10	San Lucas Tolimán	5	Mayo	2023-05-16T00:00:00	2024-11-08T04:00:00	3	Temperatura mínima	15.4
124180	7	Sololá	713	San Lucas Tolimán	10	San Lucas Tolimán	5	Mayo	2023-05-16T00:00:00	2024-11-08T04:00:00	5	Humedad	59
124181	7	Sololá	713	San Lucas Tolimán	10	San Lucas Tolimán	5	Mayo	2023-05-16T00:00:00	2024-11-08T04:00:00	6	Velocidad del viento	1.6
124182	7	Sololá	713	San Lucas Tolimán	10	San Lucas Tolimán	5	Mayo	2023-05-16T00:00:00	2024-11-08T04:00:00	7	Dirección del viento	1.61
124183	7	Sololá	713	San Lucas Tolimán	10	San Lucas Tolimán	5	Mayo	2023-05-16T00:00:00	2024-11-08T04:00:00	1	Precipitación	0
124184	7	Sololá	713	San Lucas Tolimán	10	San Lucas Tolimán	5	Mayo	2023-05-16T00:00:00	2024-11-08T04:00:00	8	Radiación solar	0
124185	7	Sololá	713	San Lucas Tolimán	10	San Lucas Tolimán	5	Mayo	2023-05-16T00:00:00	2024-11-08T05:00:00	2	Temperatura media	15.4
124186	7	Sololá	713	San Lucas Tolimán	10	San Lucas Tolimán	5	Mayo	2023-05-16T00:00:00	2024-11-08T05:00:00	4	Temperatura máxima	15.9
124187	7	Sololá	713	San Lucas Tolimán	10	San Lucas Tolimán	5	Mayo	2023-05-16T00:00:00	2024-11-08T05:00:00	3	Temperatura mínima	15.4
124188	7	Sololá	713	San Lucas Tolimán	10	San Lucas Tolimán	5	Mayo	2023-05-16T00:00:00	2024-11-08T05:00:00	5	Humedad	59
124189	7	Sololá	713	San Lucas Tolimán	10	San Lucas Tolimán	5	Mayo	2023-05-16T00:00:00	2024-11-08T05:00:00	6	Velocidad del viento	0
124190	7	Sololá	713	San Lucas Tolimán	10	San Lucas Tolimán	5	Mayo	2023-05-16T00:00:00	2024-11-08T05:00:00	7	Dirección del viento	0
124191	7	Sololá	713	San Lucas Tolimán	10	San Lucas Tolimán	5	Mayo	2023-05-16T00:00:00	2024-11-08T05:00:00	1	Precipitación	0
124192	7	Sololá	713	San Lucas Tolimán	10	San Lucas Tolimán	5	Mayo	2023-05-16T00:00:00	2024-11-08T05:00:00	8	Radiación solar	0
124193	7	Sololá	713	San Lucas Tolimán	10	San Lucas Tolimán	5	Mayo	2023-05-16T00:00:00	2024-11-08T06:00:00	2	Temperatura media	16.1
124194	7	Sololá	713	San Lucas Tolimán	10	San Lucas Tolimán	5	Mayo	2023-05-16T00:00:00	2024-11-08T06:00:00	4	Temperatura máxima	16.2
124195	7	Sololá	713	San Lucas Tolimán	10	San Lucas Tolimán	5	Mayo	2023-05-16T00:00:00	2024-11-08T06:00:00	3	Temperatura mínima	15.1
124196	7	Sololá	713	San Lucas Tolimán	10	San Lucas Tolimán	5	Mayo	2023-05-16T00:00:00	2024-11-08T06:00:00	5	Humedad	59
124197	7	Sololá	713	San Lucas Tolimán	10	San Lucas Tolimán	5	Mayo	2023-05-16T00:00:00	2024-11-08T06:00:00	6	Velocidad del viento	3.2
124198	7	Sololá	713	San Lucas Tolimán	10	San Lucas Tolimán	5	Mayo	2023-05-16T00:00:00	2024-11-08T06:00:00	7	Dirección del viento	3.22
124199	7	Sololá	713	San Lucas Tolimán	10	San Lucas Tolimán	5	Mayo	2023-05-16T00:00:00	2024-11-08T06:00:00	1	Precipitación	0
124200	7	Sololá	713	San Lucas Tolimán	10	San Lucas Tolimán	5	Mayo	2023-05-16T00:00:00	2024-11-08T06:00:00	8	Radiación solar	4
124201	7	Sololá	713	San Lucas Tolimán	10	San Lucas Tolimán	5	Mayo	2023-05-16T00:00:00	2024-11-08T07:00:00	2	Temperatura media	17.3
124202	7	Sololá	713	San Lucas Tolimán	10	San Lucas Tolimán	5	Mayo	2023-05-16T00:00:00	2024-11-08T07:00:00	4	Temperatura máxima	17.4
124203	7	Sololá	713	San Lucas Tolimán	10	San Lucas Tolimán	5	Mayo	2023-05-16T00:00:00	2024-11-08T07:00:00	3	Temperatura mínima	15.9
124204	7	Sololá	713	San Lucas Tolimán	10	San Lucas Tolimán	5	Mayo	2023-05-16T00:00:00	2024-11-08T07:00:00	5	Humedad	58
124205	7	Sololá	713	San Lucas Tolimán	10	San Lucas Tolimán	5	Mayo	2023-05-16T00:00:00	2024-11-08T07:00:00	6	Velocidad del viento	3.2
124206	7	Sololá	713	San Lucas Tolimán	10	San Lucas Tolimán	5	Mayo	2023-05-16T00:00:00	2024-11-08T07:00:00	7	Dirección del viento	3.22
124207	7	Sololá	713	San Lucas Tolimán	10	San Lucas Tolimán	5	Mayo	2023-05-16T00:00:00	2024-11-08T07:00:00	1	Precipitación	0
124208	7	Sololá	713	San Lucas Tolimán	10	San Lucas Tolimán	5	Mayo	2023-05-16T00:00:00	2024-11-08T07:00:00	8	Radiación solar	107
124209	7	Sololá	713	San Lucas Tolimán	10	San Lucas Tolimán	5	Mayo	2023-05-16T00:00:00	2024-11-08T08:00:00	2	Temperatura media	19.7
124210	7	Sololá	713	San Lucas Tolimán	10	San Lucas Tolimán	5	Mayo	2023-05-16T00:00:00	2024-11-08T08:00:00	4	Temperatura máxima	19.7
124211	7	Sololá	713	San Lucas Tolimán	10	San Lucas Tolimán	5	Mayo	2023-05-16T00:00:00	2024-11-08T08:00:00	3	Temperatura mínima	17.3
124212	7	Sololá	713	San Lucas Tolimán	10	San Lucas Tolimán	5	Mayo	2023-05-16T00:00:00	2024-11-08T08:00:00	5	Humedad	57
124213	7	Sololá	713	San Lucas Tolimán	10	San Lucas Tolimán	5	Mayo	2023-05-16T00:00:00	2024-11-08T08:00:00	6	Velocidad del viento	4.8
124214	7	Sololá	713	San Lucas Tolimán	10	San Lucas Tolimán	5	Mayo	2023-05-16T00:00:00	2024-11-08T08:00:00	7	Dirección del viento	4.83
124215	7	Sololá	713	San Lucas Tolimán	10	San Lucas Tolimán	5	Mayo	2023-05-16T00:00:00	2024-11-08T08:00:00	1	Precipitación	0
124216	7	Sololá	713	San Lucas Tolimán	10	San Lucas Tolimán	5	Mayo	2023-05-16T00:00:00	2024-11-08T08:00:00	8	Radiación solar	351
124217	7	Sololá	713	San Lucas Tolimán	10	San Lucas Tolimán	5	Mayo	2023-05-16T00:00:00	2024-11-08T09:00:00	2	Temperatura media	21.4
124218	7	Sololá	713	San Lucas Tolimán	10	San Lucas Tolimán	5	Mayo	2023-05-16T00:00:00	2024-11-08T09:00:00	4	Temperatura máxima	21.4
124219	7	Sololá	713	San Lucas Tolimán	10	San Lucas Tolimán	5	Mayo	2023-05-16T00:00:00	2024-11-08T09:00:00	3	Temperatura mínima	19.7
124220	7	Sololá	713	San Lucas Tolimán	10	San Lucas Tolimán	5	Mayo	2023-05-16T00:00:00	2024-11-08T09:00:00	5	Humedad	53
124221	7	Sololá	713	San Lucas Tolimán	10	San Lucas Tolimán	5	Mayo	2023-05-16T00:00:00	2024-11-08T09:00:00	6	Velocidad del viento	4.8
124222	7	Sololá	713	San Lucas Tolimán	10	San Lucas Tolimán	5	Mayo	2023-05-16T00:00:00	2024-11-08T09:00:00	7	Dirección del viento	4.83
124223	7	Sololá	713	San Lucas Tolimán	10	San Lucas Tolimán	5	Mayo	2023-05-16T00:00:00	2024-11-08T09:00:00	1	Precipitación	0
124224	7	Sololá	713	San Lucas Tolimán	10	San Lucas Tolimán	5	Mayo	2023-05-16T00:00:00	2024-11-08T09:00:00	8	Radiación solar	616
124225	7	Sololá	713	San Lucas Tolimán	10	San Lucas Tolimán	5	Mayo	2023-05-16T00:00:00	2024-11-08T10:00:00	2	Temperatura media	23.3
124226	7	Sololá	713	San Lucas Tolimán	10	San Lucas Tolimán	5	Mayo	2023-05-16T00:00:00	2024-11-08T10:00:00	4	Temperatura máxima	23.4
124227	7	Sololá	713	San Lucas Tolimán	10	San Lucas Tolimán	5	Mayo	2023-05-16T00:00:00	2024-11-08T10:00:00	3	Temperatura mínima	21.4
124228	7	Sololá	713	San Lucas Tolimán	10	San Lucas Tolimán	5	Mayo	2023-05-16T00:00:00	2024-11-08T10:00:00	5	Humedad	51
124229	7	Sololá	713	San Lucas Tolimán	10	San Lucas Tolimán	5	Mayo	2023-05-16T00:00:00	2024-11-08T10:00:00	6	Velocidad del viento	4.8
124230	7	Sololá	713	San Lucas Tolimán	10	San Lucas Tolimán	5	Mayo	2023-05-16T00:00:00	2024-11-08T10:00:00	7	Dirección del viento	4.83
124231	7	Sololá	713	San Lucas Tolimán	10	San Lucas Tolimán	5	Mayo	2023-05-16T00:00:00	2024-11-08T10:00:00	1	Precipitación	0
124232	7	Sololá	713	San Lucas Tolimán	10	San Lucas Tolimán	5	Mayo	2023-05-16T00:00:00	2024-11-08T10:00:00	8	Radiación solar	829
124233	7	Sololá	713	San Lucas Tolimán	10	San Lucas Tolimán	5	Mayo	2023-05-16T00:00:00	2024-11-08T11:00:00	2	Temperatura media	23.8
124234	7	Sololá	713	San Lucas Tolimán	10	San Lucas Tolimán	5	Mayo	2023-05-16T00:00:00	2024-11-08T11:00:00	4	Temperatura máxima	24.2
124235	7	Sololá	713	San Lucas Tolimán	10	San Lucas Tolimán	5	Mayo	2023-05-16T00:00:00	2024-11-08T11:00:00	3	Temperatura mínima	23.2
124236	7	Sololá	713	San Lucas Tolimán	10	San Lucas Tolimán	5	Mayo	2023-05-16T00:00:00	2024-11-08T11:00:00	5	Humedad	48
124237	7	Sololá	713	San Lucas Tolimán	10	San Lucas Tolimán	5	Mayo	2023-05-16T00:00:00	2024-11-08T11:00:00	6	Velocidad del viento	8
124238	7	Sololá	713	San Lucas Tolimán	10	San Lucas Tolimán	5	Mayo	2023-05-16T00:00:00	2024-11-08T11:00:00	7	Dirección del viento	8.05
124239	7	Sololá	713	San Lucas Tolimán	10	San Lucas Tolimán	5	Mayo	2023-05-16T00:00:00	2024-11-08T11:00:00	1	Precipitación	0
124240	7	Sololá	713	San Lucas Tolimán	10	San Lucas Tolimán	5	Mayo	2023-05-16T00:00:00	2024-11-08T11:00:00	8	Radiación solar	986
124241	7	Sololá	713	San Lucas Tolimán	10	San Lucas Tolimán	5	Mayo	2023-05-16T00:00:00	2024-11-08T12:00:00	2	Temperatura media	24.2
124242	7	Sololá	713	San Lucas Tolimán	10	San Lucas Tolimán	5	Mayo	2023-05-16T00:00:00	2024-11-08T12:00:00	4	Temperatura máxima	24.3
124243	7	Sololá	713	San Lucas Tolimán	10	San Lucas Tolimán	5	Mayo	2023-05-16T00:00:00	2024-11-08T12:00:00	3	Temperatura mínima	23.6
124244	7	Sololá	713	San Lucas Tolimán	10	San Lucas Tolimán	5	Mayo	2023-05-16T00:00:00	2024-11-08T12:00:00	5	Humedad	48
124245	7	Sololá	713	San Lucas Tolimán	10	San Lucas Tolimán	5	Mayo	2023-05-16T00:00:00	2024-11-08T12:00:00	6	Velocidad del viento	9.7
124246	7	Sololá	713	San Lucas Tolimán	10	San Lucas Tolimán	5	Mayo	2023-05-16T00:00:00	2024-11-08T12:00:00	7	Dirección del viento	9.66
124247	7	Sololá	713	San Lucas Tolimán	10	San Lucas Tolimán	5	Mayo	2023-05-16T00:00:00	2024-11-08T12:00:00	1	Precipitación	0
124248	7	Sololá	713	San Lucas Tolimán	10	San Lucas Tolimán	5	Mayo	2023-05-16T00:00:00	2024-11-08T12:00:00	8	Radiación solar	1084
124249	7	Sololá	713	San Lucas Tolimán	10	San Lucas Tolimán	5	Mayo	2023-05-16T00:00:00	2024-11-08T13:00:00	2	Temperatura media	23.8
124250	7	Sololá	713	San Lucas Tolimán	10	San Lucas Tolimán	5	Mayo	2023-05-16T00:00:00	2024-11-08T13:00:00	4	Temperatura máxima	24.4
124251	7	Sololá	713	San Lucas Tolimán	10	San Lucas Tolimán	5	Mayo	2023-05-16T00:00:00	2024-11-08T13:00:00	3	Temperatura mínima	23.8
124252	7	Sololá	713	San Lucas Tolimán	10	San Lucas Tolimán	5	Mayo	2023-05-16T00:00:00	2024-11-08T13:00:00	5	Humedad	53
124253	7	Sololá	713	San Lucas Tolimán	10	San Lucas Tolimán	5	Mayo	2023-05-16T00:00:00	2024-11-08T13:00:00	6	Velocidad del viento	11.3
124254	7	Sololá	713	San Lucas Tolimán	10	San Lucas Tolimán	5	Mayo	2023-05-16T00:00:00	2024-11-08T13:00:00	7	Dirección del viento	11.27
124255	7	Sololá	713	San Lucas Tolimán	10	San Lucas Tolimán	5	Mayo	2023-05-16T00:00:00	2024-11-08T13:00:00	1	Precipitación	0
124256	7	Sololá	713	San Lucas Tolimán	10	San Lucas Tolimán	5	Mayo	2023-05-16T00:00:00	2024-11-08T13:00:00	8	Radiación solar	1090
124257	7	Sololá	713	San Lucas Tolimán	10	San Lucas Tolimán	5	Mayo	2023-05-16T00:00:00	2024-11-08T14:00:00	2	Temperatura media	22.9
124258	7	Sololá	713	San Lucas Tolimán	10	San Lucas Tolimán	5	Mayo	2023-05-16T00:00:00	2024-11-08T14:00:00	4	Temperatura máxima	25
124259	7	Sololá	713	San Lucas Tolimán	10	San Lucas Tolimán	5	Mayo	2023-05-16T00:00:00	2024-11-08T14:00:00	3	Temperatura mínima	22.9
124260	7	Sololá	713	San Lucas Tolimán	10	San Lucas Tolimán	5	Mayo	2023-05-16T00:00:00	2024-11-08T14:00:00	5	Humedad	56
124261	7	Sololá	713	San Lucas Tolimán	10	San Lucas Tolimán	5	Mayo	2023-05-16T00:00:00	2024-11-08T14:00:00	6	Velocidad del viento	9.7
124262	7	Sololá	713	San Lucas Tolimán	10	San Lucas Tolimán	5	Mayo	2023-05-16T00:00:00	2024-11-08T14:00:00	7	Dirección del viento	9.66
124263	7	Sololá	713	San Lucas Tolimán	10	San Lucas Tolimán	5	Mayo	2023-05-16T00:00:00	2024-11-08T14:00:00	1	Precipitación	0
124264	7	Sololá	713	San Lucas Tolimán	10	San Lucas Tolimán	5	Mayo	2023-05-16T00:00:00	2024-11-08T14:00:00	8	Radiación solar	790
124265	7	Sololá	713	San Lucas Tolimán	10	San Lucas Tolimán	5	Mayo	2023-05-16T00:00:00	2024-11-08T15:00:00	2	Temperatura media	21.4
124266	7	Sololá	713	San Lucas Tolimán	10	San Lucas Tolimán	5	Mayo	2023-05-16T00:00:00	2024-11-08T15:00:00	4	Temperatura máxima	22.9
124267	7	Sololá	713	San Lucas Tolimán	10	San Lucas Tolimán	5	Mayo	2023-05-16T00:00:00	2024-11-08T15:00:00	3	Temperatura mínima	21.4
124268	7	Sololá	713	San Lucas Tolimán	10	San Lucas Tolimán	5	Mayo	2023-05-16T00:00:00	2024-11-08T15:00:00	5	Humedad	61
124269	7	Sololá	713	San Lucas Tolimán	10	San Lucas Tolimán	5	Mayo	2023-05-16T00:00:00	2024-11-08T15:00:00	6	Velocidad del viento	12.9
124270	7	Sololá	713	San Lucas Tolimán	10	San Lucas Tolimán	5	Mayo	2023-05-16T00:00:00	2024-11-08T15:00:00	7	Dirección del viento	12.87
124271	7	Sololá	713	San Lucas Tolimán	10	San Lucas Tolimán	5	Mayo	2023-05-16T00:00:00	2024-11-08T15:00:00	1	Precipitación	0
124272	7	Sololá	713	San Lucas Tolimán	10	San Lucas Tolimán	5	Mayo	2023-05-16T00:00:00	2024-11-08T15:00:00	8	Radiación solar	237
124273	7	Sololá	713	San Lucas Tolimán	10	San Lucas Tolimán	5	Mayo	2023-05-16T00:00:00	2024-11-08T16:00:00	2	Temperatura media	20.1
124274	7	Sololá	713	San Lucas Tolimán	10	San Lucas Tolimán	5	Mayo	2023-05-16T00:00:00	2024-11-08T16:00:00	4	Temperatura máxima	21.5
124275	7	Sololá	713	San Lucas Tolimán	10	San Lucas Tolimán	5	Mayo	2023-05-16T00:00:00	2024-11-08T16:00:00	3	Temperatura mínima	20.1
124276	7	Sololá	713	San Lucas Tolimán	10	San Lucas Tolimán	5	Mayo	2023-05-16T00:00:00	2024-11-08T16:00:00	5	Humedad	62
124277	7	Sololá	713	San Lucas Tolimán	10	San Lucas Tolimán	5	Mayo	2023-05-16T00:00:00	2024-11-08T16:00:00	6	Velocidad del viento	12.9
124278	7	Sololá	713	San Lucas Tolimán	10	San Lucas Tolimán	5	Mayo	2023-05-16T00:00:00	2024-11-08T16:00:00	7	Dirección del viento	12.87
124279	7	Sololá	713	San Lucas Tolimán	10	San Lucas Tolimán	5	Mayo	2023-05-16T00:00:00	2024-11-08T16:00:00	1	Precipitación	0
124280	7	Sololá	713	San Lucas Tolimán	10	San Lucas Tolimán	5	Mayo	2023-05-16T00:00:00	2024-11-08T16:00:00	8	Radiación solar	188
124281	7	Sololá	713	San Lucas Tolimán	10	San Lucas Tolimán	5	Mayo	2023-05-16T00:00:00	2024-11-08T17:00:00	2	Temperatura media	20.1
124282	7	Sololá	713	San Lucas Tolimán	10	San Lucas Tolimán	5	Mayo	2023-05-16T00:00:00	2024-11-08T17:00:00	4	Temperatura máxima	20.6
124283	7	Sololá	713	San Lucas Tolimán	10	San Lucas Tolimán	5	Mayo	2023-05-16T00:00:00	2024-11-08T17:00:00	3	Temperatura mínima	20.1
124284	7	Sololá	713	San Lucas Tolimán	10	San Lucas Tolimán	5	Mayo	2023-05-16T00:00:00	2024-11-08T17:00:00	5	Humedad	58
124285	7	Sololá	713	San Lucas Tolimán	10	San Lucas Tolimán	5	Mayo	2023-05-16T00:00:00	2024-11-08T17:00:00	6	Velocidad del viento	4.8
124286	7	Sololá	713	San Lucas Tolimán	10	San Lucas Tolimán	5	Mayo	2023-05-16T00:00:00	2024-11-08T17:00:00	7	Dirección del viento	4.83
124287	7	Sololá	713	San Lucas Tolimán	10	San Lucas Tolimán	5	Mayo	2023-05-16T00:00:00	2024-11-08T17:00:00	1	Precipitación	0
124288	7	Sololá	713	San Lucas Tolimán	10	San Lucas Tolimán	5	Mayo	2023-05-16T00:00:00	2024-11-08T17:00:00	8	Radiación solar	75
124289	7	Sololá	713	San Lucas Tolimán	10	San Lucas Tolimán	5	Mayo	2023-05-16T00:00:00	2024-11-08T18:00:00	2	Temperatura media	17.5
124290	7	Sololá	713	San Lucas Tolimán	10	San Lucas Tolimán	5	Mayo	2023-05-16T00:00:00	2024-11-08T18:00:00	4	Temperatura máxima	20.1
124291	7	Sololá	713	San Lucas Tolimán	10	San Lucas Tolimán	5	Mayo	2023-05-16T00:00:00	2024-11-08T18:00:00	3	Temperatura mínima	17.5
124292	7	Sololá	713	San Lucas Tolimán	10	San Lucas Tolimán	5	Mayo	2023-05-16T00:00:00	2024-11-08T18:00:00	5	Humedad	62
124293	7	Sololá	713	San Lucas Tolimán	10	San Lucas Tolimán	5	Mayo	2023-05-16T00:00:00	2024-11-08T18:00:00	6	Velocidad del viento	6.4
124294	7	Sololá	713	San Lucas Tolimán	10	San Lucas Tolimán	5	Mayo	2023-05-16T00:00:00	2024-11-08T18:00:00	7	Dirección del viento	6.44
124295	7	Sololá	713	San Lucas Tolimán	10	San Lucas Tolimán	5	Mayo	2023-05-16T00:00:00	2024-11-08T18:00:00	1	Precipitación	4.4
124296	7	Sololá	713	San Lucas Tolimán	10	San Lucas Tolimán	5	Mayo	2023-05-16T00:00:00	2024-11-08T18:00:00	8	Radiación solar	6
124297	7	Sololá	713	San Lucas Tolimán	10	San Lucas Tolimán	5	Mayo	2023-05-16T00:00:00	2024-11-08T19:00:00	2	Temperatura media	16.7
124298	7	Sololá	713	San Lucas Tolimán	10	San Lucas Tolimán	5	Mayo	2023-05-16T00:00:00	2024-11-08T19:00:00	4	Temperatura máxima	17.5
124299	7	Sololá	713	San Lucas Tolimán	10	San Lucas Tolimán	5	Mayo	2023-05-16T00:00:00	2024-11-08T19:00:00	3	Temperatura mínima	16.7
124300	7	Sololá	713	San Lucas Tolimán	10	San Lucas Tolimán	5	Mayo	2023-05-16T00:00:00	2024-11-08T19:00:00	5	Humedad	61
124301	7	Sololá	713	San Lucas Tolimán	10	San Lucas Tolimán	5	Mayo	2023-05-16T00:00:00	2024-11-08T19:00:00	6	Velocidad del viento	4.8
124302	7	Sololá	713	San Lucas Tolimán	10	San Lucas Tolimán	5	Mayo	2023-05-16T00:00:00	2024-11-08T19:00:00	7	Dirección del viento	4.83
124303	7	Sololá	713	San Lucas Tolimán	10	San Lucas Tolimán	5	Mayo	2023-05-16T00:00:00	2024-11-08T19:00:00	1	Precipitación	3.2
124304	7	Sololá	713	San Lucas Tolimán	10	San Lucas Tolimán	5	Mayo	2023-05-16T00:00:00	2024-11-08T19:00:00	8	Radiación solar	0
124305	7	Sololá	713	San Lucas Tolimán	10	San Lucas Tolimán	5	Mayo	2023-05-16T00:00:00	2024-11-08T20:00:00	2	Temperatura media	16.2
124306	7	Sololá	713	San Lucas Tolimán	10	San Lucas Tolimán	5	Mayo	2023-05-16T00:00:00	2024-11-08T20:00:00	4	Temperatura máxima	16.7
124307	7	Sololá	713	San Lucas Tolimán	10	San Lucas Tolimán	5	Mayo	2023-05-16T00:00:00	2024-11-08T20:00:00	3	Temperatura mínima	16.2
124308	7	Sololá	713	San Lucas Tolimán	10	San Lucas Tolimán	5	Mayo	2023-05-16T00:00:00	2024-11-08T20:00:00	5	Humedad	62
124309	7	Sololá	713	San Lucas Tolimán	10	San Lucas Tolimán	5	Mayo	2023-05-16T00:00:00	2024-11-08T20:00:00	6	Velocidad del viento	3.2
124310	7	Sololá	713	San Lucas Tolimán	10	San Lucas Tolimán	5	Mayo	2023-05-16T00:00:00	2024-11-08T20:00:00	7	Dirección del viento	3.22
124311	7	Sololá	713	San Lucas Tolimán	10	San Lucas Tolimán	5	Mayo	2023-05-16T00:00:00	2024-11-08T20:00:00	1	Precipitación	0
124312	7	Sololá	713	San Lucas Tolimán	10	San Lucas Tolimán	5	Mayo	2023-05-16T00:00:00	2024-11-08T20:00:00	8	Radiación solar	0
124313	7	Sololá	713	San Lucas Tolimán	10	San Lucas Tolimán	5	Mayo	2023-05-16T00:00:00	2024-11-08T21:00:00	2	Temperatura media	16.4
124314	7	Sololá	713	San Lucas Tolimán	10	San Lucas Tolimán	5	Mayo	2023-05-16T00:00:00	2024-11-08T21:00:00	4	Temperatura máxima	16.6
124315	7	Sololá	713	San Lucas Tolimán	10	San Lucas Tolimán	5	Mayo	2023-05-16T00:00:00	2024-11-08T21:00:00	3	Temperatura mínima	16.1
124316	7	Sololá	713	San Lucas Tolimán	10	San Lucas Tolimán	5	Mayo	2023-05-16T00:00:00	2024-11-08T21:00:00	5	Humedad	64
124317	7	Sololá	713	San Lucas Tolimán	10	San Lucas Tolimán	5	Mayo	2023-05-16T00:00:00	2024-11-08T21:00:00	6	Velocidad del viento	0
124318	7	Sololá	713	San Lucas Tolimán	10	San Lucas Tolimán	5	Mayo	2023-05-16T00:00:00	2024-11-08T21:00:00	7	Dirección del viento	0
124319	7	Sololá	713	San Lucas Tolimán	10	San Lucas Tolimán	5	Mayo	2023-05-16T00:00:00	2024-11-08T21:00:00	1	Precipitación	0.2
124320	7	Sololá	713	San Lucas Tolimán	10	San Lucas Tolimán	5	Mayo	2023-05-16T00:00:00	2024-11-08T21:00:00	8	Radiación solar	0
124321	7	Sololá	713	San Lucas Tolimán	10	San Lucas Tolimán	5	Mayo	2023-05-16T00:00:00	2024-11-08T22:00:00	2	Temperatura media	16.6
124322	7	Sololá	713	San Lucas Tolimán	10	San Lucas Tolimán	5	Mayo	2023-05-16T00:00:00	2024-11-08T22:00:00	4	Temperatura máxima	16.6
124323	7	Sololá	713	San Lucas Tolimán	10	San Lucas Tolimán	5	Mayo	2023-05-16T00:00:00	2024-11-08T22:00:00	3	Temperatura mínima	16.3
124324	7	Sololá	713	San Lucas Tolimán	10	San Lucas Tolimán	5	Mayo	2023-05-16T00:00:00	2024-11-08T22:00:00	5	Humedad	65
124325	7	Sololá	713	San Lucas Tolimán	10	San Lucas Tolimán	5	Mayo	2023-05-16T00:00:00	2024-11-08T22:00:00	6	Velocidad del viento	1.6
124326	7	Sololá	713	San Lucas Tolimán	10	San Lucas Tolimán	5	Mayo	2023-05-16T00:00:00	2024-11-08T22:00:00	7	Dirección del viento	1.61
124327	7	Sololá	713	San Lucas Tolimán	10	San Lucas Tolimán	5	Mayo	2023-05-16T00:00:00	2024-11-08T22:00:00	1	Precipitación	0
124328	7	Sololá	713	San Lucas Tolimán	10	San Lucas Tolimán	5	Mayo	2023-05-16T00:00:00	2024-11-08T22:00:00	8	Radiación solar	0
124329	7	Sololá	713	San Lucas Tolimán	10	San Lucas Tolimán	5	Mayo	2023-05-16T00:00:00	2024-11-08T23:00:00	2	Temperatura media	16.7
124330	7	Sololá	713	San Lucas Tolimán	10	San Lucas Tolimán	5	Mayo	2023-05-16T00:00:00	2024-11-08T23:00:00	4	Temperatura máxima	16.7
124331	7	Sololá	713	San Lucas Tolimán	10	San Lucas Tolimán	5	Mayo	2023-05-16T00:00:00	2024-11-08T23:00:00	3	Temperatura mínima	16.5
124332	7	Sololá	713	San Lucas Tolimán	10	San Lucas Tolimán	5	Mayo	2023-05-16T00:00:00	2024-11-08T23:00:00	5	Humedad	65
124333	7	Sololá	713	San Lucas Tolimán	10	San Lucas Tolimán	5	Mayo	2023-05-16T00:00:00	2024-11-08T23:00:00	6	Velocidad del viento	1.6
124334	7	Sololá	713	San Lucas Tolimán	10	San Lucas Tolimán	5	Mayo	2023-05-16T00:00:00	2024-11-08T23:00:00	7	Dirección del viento	1.61
124335	7	Sololá	713	San Lucas Tolimán	10	San Lucas Tolimán	5	Mayo	2023-05-16T00:00:00	2024-11-08T23:00:00	1	Precipitación	0
124336	7	Sololá	713	San Lucas Tolimán	10	San Lucas Tolimán	5	Mayo	2023-05-16T00:00:00	2024-11-08T23:00:00	8	Radiación solar	0
124337	7	Sololá	713	San Lucas Tolimán	10	San Lucas Tolimán	5	Mayo	2023-05-17T00:00:00	2024-11-08T00:00:00	2	Temperatura media	17.6
124338	7	Sololá	713	San Lucas Tolimán	10	San Lucas Tolimán	5	Mayo	2023-05-17T00:00:00	2024-11-08T00:00:00	4	Temperatura máxima	17.8
124339	7	Sololá	713	San Lucas Tolimán	10	San Lucas Tolimán	5	Mayo	2023-05-17T00:00:00	2024-11-08T00:00:00	3	Temperatura mínima	16.7
124340	7	Sololá	713	San Lucas Tolimán	10	San Lucas Tolimán	5	Mayo	2023-05-17T00:00:00	2024-11-08T00:00:00	5	Humedad	61
124341	7	Sololá	713	San Lucas Tolimán	10	San Lucas Tolimán	5	Mayo	2023-05-17T00:00:00	2024-11-08T00:00:00	6	Velocidad del viento	4.8
124342	7	Sololá	713	San Lucas Tolimán	10	San Lucas Tolimán	5	Mayo	2023-05-17T00:00:00	2024-11-08T00:00:00	7	Dirección del viento	4.83
124343	7	Sololá	713	San Lucas Tolimán	10	San Lucas Tolimán	5	Mayo	2023-05-17T00:00:00	2024-11-08T00:00:00	1	Precipitación	0
124344	7	Sololá	713	San Lucas Tolimán	10	San Lucas Tolimán	5	Mayo	2023-05-17T00:00:00	2024-11-08T00:00:00	8	Radiación solar	0
124345	7	Sololá	713	San Lucas Tolimán	10	San Lucas Tolimán	5	Mayo	2023-05-17T00:00:00	2024-11-08T01:00:00	2	Temperatura media	16.6
124346	7	Sololá	713	San Lucas Tolimán	10	San Lucas Tolimán	5	Mayo	2023-05-17T00:00:00	2024-11-08T01:00:00	4	Temperatura máxima	17.6
124347	7	Sololá	713	San Lucas Tolimán	10	San Lucas Tolimán	5	Mayo	2023-05-17T00:00:00	2024-11-08T01:00:00	3	Temperatura mínima	16.6
124348	7	Sololá	713	San Lucas Tolimán	10	San Lucas Tolimán	5	Mayo	2023-05-17T00:00:00	2024-11-08T01:00:00	5	Humedad	62
124349	7	Sololá	713	San Lucas Tolimán	10	San Lucas Tolimán	5	Mayo	2023-05-17T00:00:00	2024-11-08T01:00:00	6	Velocidad del viento	3.2
124350	7	Sololá	713	San Lucas Tolimán	10	San Lucas Tolimán	5	Mayo	2023-05-17T00:00:00	2024-11-08T01:00:00	7	Dirección del viento	3.22
124351	7	Sololá	713	San Lucas Tolimán	10	San Lucas Tolimán	5	Mayo	2023-05-17T00:00:00	2024-11-08T01:00:00	1	Precipitación	0
124352	7	Sololá	713	San Lucas Tolimán	10	San Lucas Tolimán	5	Mayo	2023-05-17T00:00:00	2024-11-08T01:00:00	8	Radiación solar	0
124353	7	Sololá	713	San Lucas Tolimán	10	San Lucas Tolimán	5	Mayo	2023-05-17T00:00:00	2024-11-08T02:00:00	2	Temperatura media	16.4
124354	7	Sololá	713	San Lucas Tolimán	10	San Lucas Tolimán	5	Mayo	2023-05-17T00:00:00	2024-11-08T02:00:00	4	Temperatura máxima	17.4
124355	7	Sololá	713	San Lucas Tolimán	10	San Lucas Tolimán	5	Mayo	2023-05-17T00:00:00	2024-11-08T02:00:00	3	Temperatura mínima	16.4
124356	7	Sololá	713	San Lucas Tolimán	10	San Lucas Tolimán	5	Mayo	2023-05-17T00:00:00	2024-11-08T02:00:00	5	Humedad	61
124357	7	Sololá	713	San Lucas Tolimán	10	San Lucas Tolimán	5	Mayo	2023-05-17T00:00:00	2024-11-08T02:00:00	6	Velocidad del viento	3.2
124358	7	Sololá	713	San Lucas Tolimán	10	San Lucas Tolimán	5	Mayo	2023-05-17T00:00:00	2024-11-08T02:00:00	7	Dirección del viento	3.22
124359	7	Sololá	713	San Lucas Tolimán	10	San Lucas Tolimán	5	Mayo	2023-05-17T00:00:00	2024-11-08T02:00:00	1	Precipitación	0
124360	7	Sololá	713	San Lucas Tolimán	10	San Lucas Tolimán	5	Mayo	2023-05-17T00:00:00	2024-11-08T02:00:00	8	Radiación solar	0
124361	7	Sololá	713	San Lucas Tolimán	10	San Lucas Tolimán	5	Mayo	2023-05-17T00:00:00	2024-11-08T03:00:00	2	Temperatura media	17.3
124362	7	Sololá	713	San Lucas Tolimán	10	San Lucas Tolimán	5	Mayo	2023-05-17T00:00:00	2024-11-08T03:00:00	4	Temperatura máxima	17.4
124363	7	Sololá	713	San Lucas Tolimán	10	San Lucas Tolimán	5	Mayo	2023-05-17T00:00:00	2024-11-08T03:00:00	3	Temperatura mínima	16.4
124364	7	Sololá	713	San Lucas Tolimán	10	San Lucas Tolimán	5	Mayo	2023-05-17T00:00:00	2024-11-08T03:00:00	5	Humedad	59
124365	7	Sololá	713	San Lucas Tolimán	10	San Lucas Tolimán	5	Mayo	2023-05-17T00:00:00	2024-11-08T03:00:00	6	Velocidad del viento	4.8
124366	7	Sololá	713	San Lucas Tolimán	10	San Lucas Tolimán	5	Mayo	2023-05-17T00:00:00	2024-11-08T03:00:00	7	Dirección del viento	4.83
124367	7	Sololá	713	San Lucas Tolimán	10	San Lucas Tolimán	5	Mayo	2023-05-17T00:00:00	2024-11-08T03:00:00	1	Precipitación	0
124368	7	Sololá	713	San Lucas Tolimán	10	San Lucas Tolimán	5	Mayo	2023-05-17T00:00:00	2024-11-08T03:00:00	8	Radiación solar	0
124369	7	Sololá	713	San Lucas Tolimán	10	San Lucas Tolimán	5	Mayo	2023-05-17T00:00:00	2024-11-08T04:00:00	2	Temperatura media	16.1
124370	7	Sololá	713	San Lucas Tolimán	10	San Lucas Tolimán	5	Mayo	2023-05-17T00:00:00	2024-11-08T04:00:00	4	Temperatura máxima	17.4
124371	7	Sololá	713	San Lucas Tolimán	10	San Lucas Tolimán	5	Mayo	2023-05-17T00:00:00	2024-11-08T04:00:00	3	Temperatura mínima	16
124372	7	Sololá	713	San Lucas Tolimán	10	San Lucas Tolimán	5	Mayo	2023-05-17T00:00:00	2024-11-08T04:00:00	5	Humedad	61
124373	7	Sololá	713	San Lucas Tolimán	10	San Lucas Tolimán	5	Mayo	2023-05-17T00:00:00	2024-11-08T04:00:00	6	Velocidad del viento	1.6
124374	7	Sololá	713	San Lucas Tolimán	10	San Lucas Tolimán	5	Mayo	2023-05-17T00:00:00	2024-11-08T04:00:00	7	Dirección del viento	1.61
124375	7	Sololá	713	San Lucas Tolimán	10	San Lucas Tolimán	5	Mayo	2023-05-17T00:00:00	2024-11-08T04:00:00	1	Precipitación	0
124376	7	Sololá	713	San Lucas Tolimán	10	San Lucas Tolimán	5	Mayo	2023-05-17T00:00:00	2024-11-08T04:00:00	8	Radiación solar	0
124377	7	Sololá	713	San Lucas Tolimán	10	San Lucas Tolimán	5	Mayo	2023-05-17T00:00:00	2024-11-08T05:00:00	2	Temperatura media	14.9
124378	7	Sololá	713	San Lucas Tolimán	10	San Lucas Tolimán	5	Mayo	2023-05-17T00:00:00	2024-11-08T05:00:00	4	Temperatura máxima	16.1
124379	7	Sololá	713	San Lucas Tolimán	10	San Lucas Tolimán	5	Mayo	2023-05-17T00:00:00	2024-11-08T05:00:00	3	Temperatura mínima	14.8
124380	7	Sololá	713	San Lucas Tolimán	10	San Lucas Tolimán	5	Mayo	2023-05-17T00:00:00	2024-11-08T05:00:00	5	Humedad	64
124381	7	Sololá	713	San Lucas Tolimán	10	San Lucas Tolimán	5	Mayo	2023-05-17T00:00:00	2024-11-08T05:00:00	6	Velocidad del viento	1.6
124382	7	Sololá	713	San Lucas Tolimán	10	San Lucas Tolimán	5	Mayo	2023-05-17T00:00:00	2024-11-08T05:00:00	7	Dirección del viento	1.61
124383	7	Sololá	713	San Lucas Tolimán	10	San Lucas Tolimán	5	Mayo	2023-05-17T00:00:00	2024-11-08T05:00:00	1	Precipitación	0
124384	7	Sololá	713	San Lucas Tolimán	10	San Lucas Tolimán	5	Mayo	2023-05-17T00:00:00	2024-11-08T05:00:00	8	Radiación solar	0
124385	7	Sololá	713	San Lucas Tolimán	10	San Lucas Tolimán	5	Mayo	2023-05-17T00:00:00	2024-11-08T06:00:00	2	Temperatura media	15.6
124386	7	Sololá	713	San Lucas Tolimán	10	San Lucas Tolimán	5	Mayo	2023-05-17T00:00:00	2024-11-08T06:00:00	4	Temperatura máxima	15.7
124387	7	Sololá	713	San Lucas Tolimán	10	San Lucas Tolimán	5	Mayo	2023-05-17T00:00:00	2024-11-08T06:00:00	3	Temperatura mínima	14.9
124388	7	Sololá	713	San Lucas Tolimán	10	San Lucas Tolimán	5	Mayo	2023-05-17T00:00:00	2024-11-08T06:00:00	5	Humedad	62
124389	7	Sololá	713	San Lucas Tolimán	10	San Lucas Tolimán	5	Mayo	2023-05-17T00:00:00	2024-11-08T06:00:00	6	Velocidad del viento	1.6
124390	7	Sololá	713	San Lucas Tolimán	10	San Lucas Tolimán	5	Mayo	2023-05-17T00:00:00	2024-11-08T06:00:00	7	Dirección del viento	1.61
124391	7	Sololá	713	San Lucas Tolimán	10	San Lucas Tolimán	5	Mayo	2023-05-17T00:00:00	2024-11-08T06:00:00	1	Precipitación	0
124392	7	Sololá	713	San Lucas Tolimán	10	San Lucas Tolimán	5	Mayo	2023-05-17T00:00:00	2024-11-08T06:00:00	8	Radiación solar	4
124393	7	Sololá	713	San Lucas Tolimán	10	San Lucas Tolimán	5	Mayo	2023-05-17T00:00:00	2024-11-08T07:00:00	2	Temperatura media	18.1
124394	7	Sololá	713	San Lucas Tolimán	10	San Lucas Tolimán	5	Mayo	2023-05-17T00:00:00	2024-11-08T07:00:00	4	Temperatura máxima	18.1
124395	7	Sololá	713	San Lucas Tolimán	10	San Lucas Tolimán	5	Mayo	2023-05-17T00:00:00	2024-11-08T07:00:00	3	Temperatura mínima	15.6
124396	7	Sololá	713	San Lucas Tolimán	10	San Lucas Tolimán	5	Mayo	2023-05-17T00:00:00	2024-11-08T07:00:00	5	Humedad	58
124397	7	Sololá	713	San Lucas Tolimán	10	San Lucas Tolimán	5	Mayo	2023-05-17T00:00:00	2024-11-08T07:00:00	6	Velocidad del viento	3.2
124398	7	Sololá	713	San Lucas Tolimán	10	San Lucas Tolimán	5	Mayo	2023-05-17T00:00:00	2024-11-08T07:00:00	7	Dirección del viento	3.22
124399	7	Sololá	713	San Lucas Tolimán	10	San Lucas Tolimán	5	Mayo	2023-05-17T00:00:00	2024-11-08T07:00:00	1	Precipitación	0
124400	7	Sololá	713	San Lucas Tolimán	10	San Lucas Tolimán	5	Mayo	2023-05-17T00:00:00	2024-11-08T07:00:00	8	Radiación solar	94
124401	7	Sololá	713	San Lucas Tolimán	10	San Lucas Tolimán	5	Mayo	2023-05-17T00:00:00	2024-11-08T08:00:00	2	Temperatura media	20.1
124402	7	Sololá	713	San Lucas Tolimán	10	San Lucas Tolimán	5	Mayo	2023-05-17T00:00:00	2024-11-08T08:00:00	4	Temperatura máxima	20.1
124403	7	Sololá	713	San Lucas Tolimán	10	San Lucas Tolimán	5	Mayo	2023-05-17T00:00:00	2024-11-08T08:00:00	3	Temperatura mínima	18.1
124404	7	Sololá	713	San Lucas Tolimán	10	San Lucas Tolimán	5	Mayo	2023-05-17T00:00:00	2024-11-08T08:00:00	5	Humedad	57
124405	7	Sololá	713	San Lucas Tolimán	10	San Lucas Tolimán	5	Mayo	2023-05-17T00:00:00	2024-11-08T08:00:00	6	Velocidad del viento	4.8
124406	7	Sololá	713	San Lucas Tolimán	10	San Lucas Tolimán	5	Mayo	2023-05-17T00:00:00	2024-11-08T08:00:00	7	Dirección del viento	4.83
124407	7	Sololá	713	San Lucas Tolimán	10	San Lucas Tolimán	5	Mayo	2023-05-17T00:00:00	2024-11-08T08:00:00	1	Precipitación	0
124408	7	Sololá	713	San Lucas Tolimán	10	San Lucas Tolimán	5	Mayo	2023-05-17T00:00:00	2024-11-08T08:00:00	8	Radiación solar	365
124409	7	Sololá	713	San Lucas Tolimán	10	San Lucas Tolimán	5	Mayo	2023-05-17T00:00:00	2024-11-08T09:00:00	2	Temperatura media	21.7
124410	7	Sololá	713	San Lucas Tolimán	10	San Lucas Tolimán	5	Mayo	2023-05-17T00:00:00	2024-11-08T09:00:00	4	Temperatura máxima	21.7
124411	7	Sololá	713	San Lucas Tolimán	10	San Lucas Tolimán	5	Mayo	2023-05-17T00:00:00	2024-11-08T09:00:00	3	Temperatura mínima	20.1
124412	7	Sololá	713	San Lucas Tolimán	10	San Lucas Tolimán	5	Mayo	2023-05-17T00:00:00	2024-11-08T09:00:00	5	Humedad	54
124413	7	Sololá	713	San Lucas Tolimán	10	San Lucas Tolimán	5	Mayo	2023-05-17T00:00:00	2024-11-08T09:00:00	6	Velocidad del viento	4.8
124414	7	Sololá	713	San Lucas Tolimán	10	San Lucas Tolimán	5	Mayo	2023-05-17T00:00:00	2024-11-08T09:00:00	7	Dirección del viento	4.83
124415	7	Sololá	713	San Lucas Tolimán	10	San Lucas Tolimán	5	Mayo	2023-05-17T00:00:00	2024-11-08T09:00:00	1	Precipitación	0
124416	7	Sololá	713	San Lucas Tolimán	10	San Lucas Tolimán	5	Mayo	2023-05-17T00:00:00	2024-11-08T09:00:00	8	Radiación solar	624
124417	7	Sololá	713	San Lucas Tolimán	10	San Lucas Tolimán	5	Mayo	2023-05-17T00:00:00	2024-11-08T10:00:00	2	Temperatura media	24
124418	7	Sololá	713	San Lucas Tolimán	10	San Lucas Tolimán	5	Mayo	2023-05-17T00:00:00	2024-11-08T10:00:00	4	Temperatura máxima	24
124419	7	Sololá	713	San Lucas Tolimán	10	San Lucas Tolimán	5	Mayo	2023-05-17T00:00:00	2024-11-08T10:00:00	3	Temperatura mínima	21.7
124420	7	Sololá	713	San Lucas Tolimán	10	San Lucas Tolimán	5	Mayo	2023-05-17T00:00:00	2024-11-08T10:00:00	5	Humedad	53
124421	7	Sololá	713	San Lucas Tolimán	10	San Lucas Tolimán	5	Mayo	2023-05-17T00:00:00	2024-11-08T10:00:00	6	Velocidad del viento	4.8
124422	7	Sololá	713	San Lucas Tolimán	10	San Lucas Tolimán	5	Mayo	2023-05-17T00:00:00	2024-11-08T10:00:00	7	Dirección del viento	4.83
124423	7	Sololá	713	San Lucas Tolimán	10	San Lucas Tolimán	5	Mayo	2023-05-17T00:00:00	2024-11-08T10:00:00	1	Precipitación	0
124424	7	Sololá	713	San Lucas Tolimán	10	San Lucas Tolimán	5	Mayo	2023-05-17T00:00:00	2024-11-08T10:00:00	8	Radiación solar	834
124425	7	Sololá	713	San Lucas Tolimán	10	San Lucas Tolimán	5	Mayo	2023-05-17T00:00:00	2024-11-08T11:00:00	2	Temperatura media	24.2
124426	7	Sololá	713	San Lucas Tolimán	10	San Lucas Tolimán	5	Mayo	2023-05-17T00:00:00	2024-11-08T11:00:00	4	Temperatura máxima	24.4
124427	7	Sololá	713	San Lucas Tolimán	10	San Lucas Tolimán	5	Mayo	2023-05-17T00:00:00	2024-11-08T11:00:00	3	Temperatura mínima	24
124428	7	Sololá	713	San Lucas Tolimán	10	San Lucas Tolimán	5	Mayo	2023-05-17T00:00:00	2024-11-08T11:00:00	5	Humedad	54
124429	7	Sololá	713	San Lucas Tolimán	10	San Lucas Tolimán	5	Mayo	2023-05-17T00:00:00	2024-11-08T11:00:00	6	Velocidad del viento	6.4
124430	7	Sololá	713	San Lucas Tolimán	10	San Lucas Tolimán	5	Mayo	2023-05-17T00:00:00	2024-11-08T11:00:00	7	Dirección del viento	6.44
124431	7	Sololá	713	San Lucas Tolimán	10	San Lucas Tolimán	5	Mayo	2023-05-17T00:00:00	2024-11-08T11:00:00	1	Precipitación	0
124432	7	Sololá	713	San Lucas Tolimán	10	San Lucas Tolimán	5	Mayo	2023-05-17T00:00:00	2024-11-08T11:00:00	8	Radiación solar	990
124433	7	Sololá	713	San Lucas Tolimán	10	San Lucas Tolimán	5	Mayo	2023-05-17T00:00:00	2024-11-08T12:00:00	2	Temperatura media	24.6
124434	7	Sololá	713	San Lucas Tolimán	10	San Lucas Tolimán	5	Mayo	2023-05-17T00:00:00	2024-11-08T12:00:00	4	Temperatura máxima	24.6
124435	7	Sololá	713	San Lucas Tolimán	10	San Lucas Tolimán	5	Mayo	2023-05-17T00:00:00	2024-11-08T12:00:00	3	Temperatura mínima	24.1
124436	7	Sololá	713	San Lucas Tolimán	10	San Lucas Tolimán	5	Mayo	2023-05-17T00:00:00	2024-11-08T12:00:00	5	Humedad	56
124437	7	Sololá	713	San Lucas Tolimán	10	San Lucas Tolimán	5	Mayo	2023-05-17T00:00:00	2024-11-08T12:00:00	6	Velocidad del viento	8
124438	7	Sololá	713	San Lucas Tolimán	10	San Lucas Tolimán	5	Mayo	2023-05-17T00:00:00	2024-11-08T12:00:00	7	Dirección del viento	8.05
124439	7	Sololá	713	San Lucas Tolimán	10	San Lucas Tolimán	5	Mayo	2023-05-17T00:00:00	2024-11-08T12:00:00	1	Precipitación	0
124440	7	Sololá	713	San Lucas Tolimán	10	San Lucas Tolimán	5	Mayo	2023-05-17T00:00:00	2024-11-08T12:00:00	8	Radiación solar	1078
124441	7	Sololá	713	San Lucas Tolimán	10	San Lucas Tolimán	5	Mayo	2023-05-17T00:00:00	2024-11-08T13:00:00	2	Temperatura media	22.9
124442	7	Sololá	713	San Lucas Tolimán	10	San Lucas Tolimán	5	Mayo	2023-05-17T00:00:00	2024-11-08T13:00:00	4	Temperatura máxima	24.7
124443	7	Sololá	713	San Lucas Tolimán	10	San Lucas Tolimán	5	Mayo	2023-05-17T00:00:00	2024-11-08T13:00:00	3	Temperatura mínima	22.9
124444	7	Sololá	713	San Lucas Tolimán	10	San Lucas Tolimán	5	Mayo	2023-05-17T00:00:00	2024-11-08T13:00:00	5	Humedad	62
124445	7	Sololá	713	San Lucas Tolimán	10	San Lucas Tolimán	5	Mayo	2023-05-17T00:00:00	2024-11-08T13:00:00	6	Velocidad del viento	11.3
124446	7	Sololá	713	San Lucas Tolimán	10	San Lucas Tolimán	5	Mayo	2023-05-17T00:00:00	2024-11-08T13:00:00	7	Dirección del viento	11.27
124447	7	Sololá	713	San Lucas Tolimán	10	San Lucas Tolimán	5	Mayo	2023-05-17T00:00:00	2024-11-08T13:00:00	1	Precipitación	0
124448	7	Sololá	713	San Lucas Tolimán	10	San Lucas Tolimán	5	Mayo	2023-05-17T00:00:00	2024-11-08T13:00:00	8	Radiación solar	958
124449	7	Sololá	713	San Lucas Tolimán	10	San Lucas Tolimán	5	Mayo	2023-05-17T00:00:00	2024-11-08T14:00:00	2	Temperatura media	22.8
124450	7	Sololá	713	San Lucas Tolimán	10	San Lucas Tolimán	5	Mayo	2023-05-17T00:00:00	2024-11-08T14:00:00	4	Temperatura máxima	23.3
124451	7	Sololá	713	San Lucas Tolimán	10	San Lucas Tolimán	5	Mayo	2023-05-17T00:00:00	2024-11-08T14:00:00	3	Temperatura mínima	22.1
124452	7	Sololá	713	San Lucas Tolimán	10	San Lucas Tolimán	5	Mayo	2023-05-17T00:00:00	2024-11-08T14:00:00	5	Humedad	60
124453	7	Sololá	713	San Lucas Tolimán	10	San Lucas Tolimán	5	Mayo	2023-05-17T00:00:00	2024-11-08T14:00:00	6	Velocidad del viento	11.3
124454	7	Sololá	713	San Lucas Tolimán	10	San Lucas Tolimán	5	Mayo	2023-05-17T00:00:00	2024-11-08T14:00:00	7	Dirección del viento	11.27
124455	7	Sololá	713	San Lucas Tolimán	10	San Lucas Tolimán	5	Mayo	2023-05-17T00:00:00	2024-11-08T14:00:00	1	Precipitación	0
124456	7	Sololá	713	San Lucas Tolimán	10	San Lucas Tolimán	5	Mayo	2023-05-17T00:00:00	2024-11-08T14:00:00	8	Radiación solar	867
124457	7	Sololá	713	San Lucas Tolimán	10	San Lucas Tolimán	5	Mayo	2023-05-17T00:00:00	2024-11-08T15:00:00	2	Temperatura media	22.2
124458	7	Sololá	713	San Lucas Tolimán	10	San Lucas Tolimán	5	Mayo	2023-05-17T00:00:00	2024-11-08T15:00:00	4	Temperatura máxima	22.8
124459	7	Sololá	713	San Lucas Tolimán	10	San Lucas Tolimán	5	Mayo	2023-05-17T00:00:00	2024-11-08T15:00:00	3	Temperatura mínima	22
124460	7	Sololá	713	San Lucas Tolimán	10	San Lucas Tolimán	5	Mayo	2023-05-17T00:00:00	2024-11-08T15:00:00	5	Humedad	58
124461	7	Sololá	713	San Lucas Tolimán	10	San Lucas Tolimán	5	Mayo	2023-05-17T00:00:00	2024-11-08T15:00:00	6	Velocidad del viento	11.3
124462	7	Sololá	713	San Lucas Tolimán	10	San Lucas Tolimán	5	Mayo	2023-05-17T00:00:00	2024-11-08T15:00:00	7	Dirección del viento	11.27
124463	7	Sololá	713	San Lucas Tolimán	10	San Lucas Tolimán	5	Mayo	2023-05-17T00:00:00	2024-11-08T15:00:00	1	Precipitación	0
124464	7	Sololá	713	San Lucas Tolimán	10	San Lucas Tolimán	5	Mayo	2023-05-17T00:00:00	2024-11-08T15:00:00	8	Radiación solar	406
124465	7	Sololá	713	San Lucas Tolimán	10	San Lucas Tolimán	5	Mayo	2023-05-17T00:00:00	2024-11-08T16:00:00	2	Temperatura media	21.1
124466	7	Sololá	713	San Lucas Tolimán	10	San Lucas Tolimán	5	Mayo	2023-05-17T00:00:00	2024-11-08T16:00:00	4	Temperatura máxima	22.3
124467	7	Sololá	713	San Lucas Tolimán	10	San Lucas Tolimán	5	Mayo	2023-05-17T00:00:00	2024-11-08T16:00:00	3	Temperatura mínima	21.1
124468	7	Sololá	713	San Lucas Tolimán	10	San Lucas Tolimán	5	Mayo	2023-05-17T00:00:00	2024-11-08T16:00:00	5	Humedad	63
124469	7	Sololá	713	San Lucas Tolimán	10	San Lucas Tolimán	5	Mayo	2023-05-17T00:00:00	2024-11-08T16:00:00	6	Velocidad del viento	11.3
124470	7	Sololá	713	San Lucas Tolimán	10	San Lucas Tolimán	5	Mayo	2023-05-17T00:00:00	2024-11-08T16:00:00	7	Dirección del viento	11.27
124471	7	Sololá	713	San Lucas Tolimán	10	San Lucas Tolimán	5	Mayo	2023-05-17T00:00:00	2024-11-08T16:00:00	1	Precipitación	0
124472	7	Sololá	713	San Lucas Tolimán	10	San Lucas Tolimán	5	Mayo	2023-05-17T00:00:00	2024-11-08T16:00:00	8	Radiación solar	233
124473	7	Sololá	713	San Lucas Tolimán	10	San Lucas Tolimán	5	Mayo	2023-05-17T00:00:00	2024-11-08T17:00:00	2	Temperatura media	20.5
124474	7	Sololá	713	San Lucas Tolimán	10	San Lucas Tolimán	5	Mayo	2023-05-17T00:00:00	2024-11-08T17:00:00	4	Temperatura máxima	21.3
124475	7	Sololá	713	San Lucas Tolimán	10	San Lucas Tolimán	5	Mayo	2023-05-17T00:00:00	2024-11-08T17:00:00	3	Temperatura mínima	20.4
124476	7	Sololá	713	San Lucas Tolimán	10	San Lucas Tolimán	5	Mayo	2023-05-17T00:00:00	2024-11-08T17:00:00	5	Humedad	63
124477	7	Sololá	713	San Lucas Tolimán	10	San Lucas Tolimán	5	Mayo	2023-05-17T00:00:00	2024-11-08T17:00:00	6	Velocidad del viento	9.7
124478	7	Sololá	713	San Lucas Tolimán	10	San Lucas Tolimán	5	Mayo	2023-05-17T00:00:00	2024-11-08T17:00:00	7	Dirección del viento	9.66
124479	7	Sololá	713	San Lucas Tolimán	10	San Lucas Tolimán	5	Mayo	2023-05-17T00:00:00	2024-11-08T17:00:00	1	Precipitación	0
124480	7	Sololá	713	San Lucas Tolimán	10	San Lucas Tolimán	5	Mayo	2023-05-17T00:00:00	2024-11-08T17:00:00	8	Radiación solar	75
124481	7	Sololá	713	San Lucas Tolimán	10	San Lucas Tolimán	5	Mayo	2023-05-17T00:00:00	2024-11-08T18:00:00	2	Temperatura media	19.1
124482	7	Sololá	713	San Lucas Tolimán	10	San Lucas Tolimán	5	Mayo	2023-05-17T00:00:00	2024-11-08T18:00:00	4	Temperatura máxima	20.5
124483	7	Sololá	713	San Lucas Tolimán	10	San Lucas Tolimán	5	Mayo	2023-05-17T00:00:00	2024-11-08T18:00:00	3	Temperatura mínima	19.1
124484	7	Sololá	713	San Lucas Tolimán	10	San Lucas Tolimán	5	Mayo	2023-05-17T00:00:00	2024-11-08T18:00:00	5	Humedad	61
124485	7	Sololá	713	San Lucas Tolimán	10	San Lucas Tolimán	5	Mayo	2023-05-17T00:00:00	2024-11-08T18:00:00	6	Velocidad del viento	6.4
124486	7	Sololá	713	San Lucas Tolimán	10	San Lucas Tolimán	5	Mayo	2023-05-17T00:00:00	2024-11-08T18:00:00	7	Dirección del viento	6.44
124487	7	Sololá	713	San Lucas Tolimán	10	San Lucas Tolimán	5	Mayo	2023-05-17T00:00:00	2024-11-08T18:00:00	1	Precipitación	1
124488	7	Sololá	713	San Lucas Tolimán	10	San Lucas Tolimán	5	Mayo	2023-05-17T00:00:00	2024-11-08T18:00:00	8	Radiación solar	20
124489	7	Sololá	713	San Lucas Tolimán	10	San Lucas Tolimán	5	Mayo	2023-05-17T00:00:00	2024-11-08T19:00:00	2	Temperatura media	18.5
124490	7	Sololá	713	San Lucas Tolimán	10	San Lucas Tolimán	5	Mayo	2023-05-17T00:00:00	2024-11-08T19:00:00	4	Temperatura máxima	19.1
124491	7	Sololá	713	San Lucas Tolimán	10	San Lucas Tolimán	5	Mayo	2023-05-17T00:00:00	2024-11-08T19:00:00	3	Temperatura mínima	18.4
124492	7	Sololá	713	San Lucas Tolimán	10	San Lucas Tolimán	5	Mayo	2023-05-17T00:00:00	2024-11-08T19:00:00	5	Humedad	69
124493	7	Sololá	713	San Lucas Tolimán	10	San Lucas Tolimán	5	Mayo	2023-05-17T00:00:00	2024-11-08T19:00:00	6	Velocidad del viento	6.4
124494	7	Sololá	713	San Lucas Tolimán	10	San Lucas Tolimán	5	Mayo	2023-05-17T00:00:00	2024-11-08T19:00:00	7	Dirección del viento	6.44
124495	7	Sololá	713	San Lucas Tolimán	10	San Lucas Tolimán	5	Mayo	2023-05-17T00:00:00	2024-11-08T19:00:00	1	Precipitación	0.2
124496	7	Sololá	713	San Lucas Tolimán	10	San Lucas Tolimán	5	Mayo	2023-05-17T00:00:00	2024-11-08T19:00:00	8	Radiación solar	0
124497	7	Sololá	713	San Lucas Tolimán	10	San Lucas Tolimán	5	Mayo	2023-05-17T00:00:00	2024-11-08T20:00:00	2	Temperatura media	18.3
124498	7	Sololá	713	San Lucas Tolimán	10	San Lucas Tolimán	5	Mayo	2023-05-17T00:00:00	2024-11-08T20:00:00	4	Temperatura máxima	18.6
124499	7	Sololá	713	San Lucas Tolimán	10	San Lucas Tolimán	5	Mayo	2023-05-17T00:00:00	2024-11-08T20:00:00	3	Temperatura mínima	18.3
124500	7	Sololá	713	San Lucas Tolimán	10	San Lucas Tolimán	5	Mayo	2023-05-17T00:00:00	2024-11-08T20:00:00	5	Humedad	69
124501	7	Sololá	713	San Lucas Tolimán	10	San Lucas Tolimán	5	Mayo	2023-05-17T00:00:00	2024-11-08T20:00:00	6	Velocidad del viento	1.6
124502	7	Sololá	713	San Lucas Tolimán	10	San Lucas Tolimán	5	Mayo	2023-05-17T00:00:00	2024-11-08T20:00:00	7	Dirección del viento	1.61
124503	7	Sololá	713	San Lucas Tolimán	10	San Lucas Tolimán	5	Mayo	2023-05-17T00:00:00	2024-11-08T20:00:00	1	Precipitación	0
124504	7	Sololá	713	San Lucas Tolimán	10	San Lucas Tolimán	5	Mayo	2023-05-17T00:00:00	2024-11-08T20:00:00	8	Radiación solar	0
124505	7	Sololá	713	San Lucas Tolimán	10	San Lucas Tolimán	5	Mayo	2023-05-17T00:00:00	2024-11-08T21:00:00	2	Temperatura media	18.2
124506	7	Sololá	713	San Lucas Tolimán	10	San Lucas Tolimán	5	Mayo	2023-05-17T00:00:00	2024-11-08T21:00:00	4	Temperatura máxima	18.3
124507	7	Sololá	713	San Lucas Tolimán	10	San Lucas Tolimán	5	Mayo	2023-05-17T00:00:00	2024-11-08T21:00:00	3	Temperatura mínima	17.9
124508	7	Sololá	713	San Lucas Tolimán	10	San Lucas Tolimán	5	Mayo	2023-05-17T00:00:00	2024-11-08T21:00:00	5	Humedad	69
124509	7	Sololá	713	San Lucas Tolimán	10	San Lucas Tolimán	5	Mayo	2023-05-17T00:00:00	2024-11-08T21:00:00	6	Velocidad del viento	4.8
124510	7	Sololá	713	San Lucas Tolimán	10	San Lucas Tolimán	5	Mayo	2023-05-17T00:00:00	2024-11-08T21:00:00	7	Dirección del viento	4.83
124511	7	Sololá	713	San Lucas Tolimán	10	San Lucas Tolimán	5	Mayo	2023-05-17T00:00:00	2024-11-08T21:00:00	1	Precipitación	0
124512	7	Sololá	713	San Lucas Tolimán	10	San Lucas Tolimán	5	Mayo	2023-05-17T00:00:00	2024-11-08T21:00:00	8	Radiación solar	0
124513	7	Sololá	713	San Lucas Tolimán	10	San Lucas Tolimán	5	Mayo	2023-05-17T00:00:00	2024-11-08T22:00:00	2	Temperatura media	18.3
124514	7	Sololá	713	San Lucas Tolimán	10	San Lucas Tolimán	5	Mayo	2023-05-17T00:00:00	2024-11-08T22:00:00	4	Temperatura máxima	18.7
124515	7	Sololá	713	San Lucas Tolimán	10	San Lucas Tolimán	5	Mayo	2023-05-17T00:00:00	2024-11-08T22:00:00	3	Temperatura mínima	18.1
124516	7	Sololá	713	San Lucas Tolimán	10	San Lucas Tolimán	5	Mayo	2023-05-17T00:00:00	2024-11-08T22:00:00	5	Humedad	68
124517	7	Sololá	713	San Lucas Tolimán	10	San Lucas Tolimán	5	Mayo	2023-05-17T00:00:00	2024-11-08T22:00:00	6	Velocidad del viento	6.4
124518	7	Sololá	713	San Lucas Tolimán	10	San Lucas Tolimán	5	Mayo	2023-05-17T00:00:00	2024-11-08T22:00:00	7	Dirección del viento	6.44
124519	7	Sololá	713	San Lucas Tolimán	10	San Lucas Tolimán	5	Mayo	2023-05-17T00:00:00	2024-11-08T22:00:00	1	Precipitación	0
124520	7	Sololá	713	San Lucas Tolimán	10	San Lucas Tolimán	5	Mayo	2023-05-17T00:00:00	2024-11-08T22:00:00	8	Radiación solar	0
124521	7	Sololá	713	San Lucas Tolimán	10	San Lucas Tolimán	5	Mayo	2023-05-17T00:00:00	2024-11-08T23:00:00	2	Temperatura media	18.3
124522	7	Sololá	713	San Lucas Tolimán	10	San Lucas Tolimán	5	Mayo	2023-05-17T00:00:00	2024-11-08T23:00:00	4	Temperatura máxima	18.3
124523	7	Sololá	713	San Lucas Tolimán	10	San Lucas Tolimán	5	Mayo	2023-05-17T00:00:00	2024-11-08T23:00:00	3	Temperatura mínima	18.2
124524	7	Sololá	713	San Lucas Tolimán	10	San Lucas Tolimán	5	Mayo	2023-05-17T00:00:00	2024-11-08T23:00:00	5	Humedad	69
124525	7	Sololá	713	San Lucas Tolimán	10	San Lucas Tolimán	5	Mayo	2023-05-17T00:00:00	2024-11-08T23:00:00	6	Velocidad del viento	1.6
124526	7	Sololá	713	San Lucas Tolimán	10	San Lucas Tolimán	5	Mayo	2023-05-17T00:00:00	2024-11-08T23:00:00	7	Dirección del viento	1.61
124527	7	Sololá	713	San Lucas Tolimán	10	San Lucas Tolimán	5	Mayo	2023-05-17T00:00:00	2024-11-08T23:00:00	1	Precipitación	0
124528	7	Sololá	713	San Lucas Tolimán	10	San Lucas Tolimán	5	Mayo	2023-05-17T00:00:00	2024-11-08T23:00:00	8	Radiación solar	0
124529	7	Sololá	713	San Lucas Tolimán	10	San Lucas Tolimán	5	Mayo	2023-05-18T00:00:00	2024-11-08T00:00:00	2	Temperatura media	17.6
124530	7	Sololá	713	San Lucas Tolimán	10	San Lucas Tolimán	5	Mayo	2023-05-18T00:00:00	2024-11-08T00:00:00	4	Temperatura máxima	18.3
124531	7	Sololá	713	San Lucas Tolimán	10	San Lucas Tolimán	5	Mayo	2023-05-18T00:00:00	2024-11-08T00:00:00	3	Temperatura mínima	17.5
124532	7	Sololá	713	San Lucas Tolimán	10	San Lucas Tolimán	5	Mayo	2023-05-18T00:00:00	2024-11-08T00:00:00	5	Humedad	69
124533	7	Sololá	713	San Lucas Tolimán	10	San Lucas Tolimán	5	Mayo	2023-05-18T00:00:00	2024-11-08T00:00:00	6	Velocidad del viento	0
124534	7	Sololá	713	San Lucas Tolimán	10	San Lucas Tolimán	5	Mayo	2023-05-18T00:00:00	2024-11-08T00:00:00	7	Dirección del viento	0
124535	7	Sololá	713	San Lucas Tolimán	10	San Lucas Tolimán	5	Mayo	2023-05-18T00:00:00	2024-11-08T00:00:00	1	Precipitación	0
124536	7	Sololá	713	San Lucas Tolimán	10	San Lucas Tolimán	5	Mayo	2023-05-18T00:00:00	2024-11-08T00:00:00	8	Radiación solar	0
124537	7	Sololá	713	San Lucas Tolimán	10	San Lucas Tolimán	5	Mayo	2023-05-18T00:00:00	2024-11-08T01:00:00	2	Temperatura media	17.3
124538	7	Sololá	713	San Lucas Tolimán	10	San Lucas Tolimán	5	Mayo	2023-05-18T00:00:00	2024-11-08T01:00:00	4	Temperatura máxima	17.6
124539	7	Sololá	713	San Lucas Tolimán	10	San Lucas Tolimán	5	Mayo	2023-05-18T00:00:00	2024-11-08T01:00:00	3	Temperatura mínima	17.3
124540	7	Sololá	713	San Lucas Tolimán	10	San Lucas Tolimán	5	Mayo	2023-05-18T00:00:00	2024-11-08T01:00:00	5	Humedad	69
124541	7	Sololá	713	San Lucas Tolimán	10	San Lucas Tolimán	5	Mayo	2023-05-18T00:00:00	2024-11-08T01:00:00	6	Velocidad del viento	0
124542	7	Sololá	713	San Lucas Tolimán	10	San Lucas Tolimán	5	Mayo	2023-05-18T00:00:00	2024-11-08T01:00:00	7	Dirección del viento	0
124543	7	Sololá	713	San Lucas Tolimán	10	San Lucas Tolimán	5	Mayo	2023-05-18T00:00:00	2024-11-08T01:00:00	1	Precipitación	0
124544	7	Sololá	713	San Lucas Tolimán	10	San Lucas Tolimán	5	Mayo	2023-05-18T00:00:00	2024-11-08T01:00:00	8	Radiación solar	0
124545	7	Sololá	713	San Lucas Tolimán	10	San Lucas Tolimán	5	Mayo	2023-05-18T00:00:00	2024-11-08T02:00:00	2	Temperatura media	17.3
124546	7	Sololá	713	San Lucas Tolimán	10	San Lucas Tolimán	5	Mayo	2023-05-18T00:00:00	2024-11-08T02:00:00	4	Temperatura máxima	17.5
124547	7	Sololá	713	San Lucas Tolimán	10	San Lucas Tolimán	5	Mayo	2023-05-18T00:00:00	2024-11-08T02:00:00	3	Temperatura mínima	17.2
124548	7	Sololá	713	San Lucas Tolimán	10	San Lucas Tolimán	5	Mayo	2023-05-18T00:00:00	2024-11-08T02:00:00	5	Humedad	68
124549	7	Sololá	713	San Lucas Tolimán	10	San Lucas Tolimán	5	Mayo	2023-05-18T00:00:00	2024-11-08T02:00:00	6	Velocidad del viento	0
124550	7	Sololá	713	San Lucas Tolimán	10	San Lucas Tolimán	5	Mayo	2023-05-18T00:00:00	2024-11-08T02:00:00	7	Dirección del viento	0
124551	7	Sololá	713	San Lucas Tolimán	10	San Lucas Tolimán	5	Mayo	2023-05-18T00:00:00	2024-11-08T02:00:00	1	Precipitación	0
124552	7	Sololá	713	San Lucas Tolimán	10	San Lucas Tolimán	5	Mayo	2023-05-18T00:00:00	2024-11-08T02:00:00	8	Radiación solar	0
124553	7	Sololá	713	San Lucas Tolimán	10	San Lucas Tolimán	5	Mayo	2023-05-18T00:00:00	2024-11-08T03:00:00	2	Temperatura media	17.3
124554	7	Sololá	713	San Lucas Tolimán	10	San Lucas Tolimán	5	Mayo	2023-05-18T00:00:00	2024-11-08T03:00:00	4	Temperatura máxima	17.5
124555	7	Sololá	713	San Lucas Tolimán	10	San Lucas Tolimán	5	Mayo	2023-05-18T00:00:00	2024-11-08T03:00:00	3	Temperatura mínima	17.2
124556	7	Sololá	713	San Lucas Tolimán	10	San Lucas Tolimán	5	Mayo	2023-05-18T00:00:00	2024-11-08T03:00:00	5	Humedad	68
124557	7	Sololá	713	San Lucas Tolimán	10	San Lucas Tolimán	5	Mayo	2023-05-18T00:00:00	2024-11-08T03:00:00	6	Velocidad del viento	0
124558	7	Sololá	713	San Lucas Tolimán	10	San Lucas Tolimán	5	Mayo	2023-05-18T00:00:00	2024-11-08T03:00:00	7	Dirección del viento	0
124559	7	Sololá	713	San Lucas Tolimán	10	San Lucas Tolimán	5	Mayo	2023-05-18T00:00:00	2024-11-08T03:00:00	1	Precipitación	0
124560	7	Sololá	713	San Lucas Tolimán	10	San Lucas Tolimán	5	Mayo	2023-05-18T00:00:00	2024-11-08T03:00:00	8	Radiación solar	0
124561	7	Sololá	713	San Lucas Tolimán	10	San Lucas Tolimán	5	Mayo	2023-05-18T00:00:00	2024-11-08T04:00:00	2	Temperatura media	17.3
124562	7	Sololá	713	San Lucas Tolimán	10	San Lucas Tolimán	5	Mayo	2023-05-18T00:00:00	2024-11-08T04:00:00	4	Temperatura máxima	17.3
124563	7	Sololá	713	San Lucas Tolimán	10	San Lucas Tolimán	5	Mayo	2023-05-18T00:00:00	2024-11-08T04:00:00	3	Temperatura mínima	17
124564	7	Sololá	713	San Lucas Tolimán	10	San Lucas Tolimán	5	Mayo	2023-05-18T00:00:00	2024-11-08T04:00:00	5	Humedad	68
124565	7	Sololá	713	San Lucas Tolimán	10	San Lucas Tolimán	5	Mayo	2023-05-18T00:00:00	2024-11-08T04:00:00	6	Velocidad del viento	0
124566	7	Sololá	713	San Lucas Tolimán	10	San Lucas Tolimán	5	Mayo	2023-05-18T00:00:00	2024-11-08T04:00:00	7	Dirección del viento	0
124567	7	Sololá	713	San Lucas Tolimán	10	San Lucas Tolimán	5	Mayo	2023-05-18T00:00:00	2024-11-08T04:00:00	1	Precipitación	0
124568	7	Sololá	713	San Lucas Tolimán	10	San Lucas Tolimán	5	Mayo	2023-05-18T00:00:00	2024-11-08T04:00:00	8	Radiación solar	0
124569	7	Sololá	713	San Lucas Tolimán	10	San Lucas Tolimán	5	Mayo	2023-05-18T00:00:00	2024-11-08T05:00:00	2	Temperatura media	18.1
124570	7	Sololá	713	San Lucas Tolimán	10	San Lucas Tolimán	5	Mayo	2023-05-18T00:00:00	2024-11-08T05:00:00	4	Temperatura máxima	18.1
124571	7	Sololá	713	San Lucas Tolimán	10	San Lucas Tolimán	5	Mayo	2023-05-18T00:00:00	2024-11-08T05:00:00	3	Temperatura mínima	17.3
124572	7	Sololá	713	San Lucas Tolimán	10	San Lucas Tolimán	5	Mayo	2023-05-18T00:00:00	2024-11-08T05:00:00	5	Humedad	64
124573	7	Sololá	713	San Lucas Tolimán	10	San Lucas Tolimán	5	Mayo	2023-05-18T00:00:00	2024-11-08T05:00:00	6	Velocidad del viento	3.2
124574	7	Sololá	713	San Lucas Tolimán	10	San Lucas Tolimán	5	Mayo	2023-05-18T00:00:00	2024-11-08T05:00:00	7	Dirección del viento	3.22
124575	7	Sololá	713	San Lucas Tolimán	10	San Lucas Tolimán	5	Mayo	2023-05-18T00:00:00	2024-11-08T05:00:00	1	Precipitación	0
124576	7	Sololá	713	San Lucas Tolimán	10	San Lucas Tolimán	5	Mayo	2023-05-18T00:00:00	2024-11-08T05:00:00	8	Radiación solar	0
124577	7	Sololá	713	San Lucas Tolimán	10	San Lucas Tolimán	5	Mayo	2023-05-18T00:00:00	2024-11-08T06:00:00	2	Temperatura media	18.1
124578	7	Sololá	713	San Lucas Tolimán	10	San Lucas Tolimán	5	Mayo	2023-05-18T00:00:00	2024-11-08T06:00:00	4	Temperatura máxima	18.1
124579	7	Sololá	713	San Lucas Tolimán	10	San Lucas Tolimán	5	Mayo	2023-05-18T00:00:00	2024-11-08T06:00:00	3	Temperatura mínima	17.8
124580	7	Sololá	713	San Lucas Tolimán	10	San Lucas Tolimán	5	Mayo	2023-05-18T00:00:00	2024-11-08T06:00:00	5	Humedad	64
124581	7	Sololá	713	San Lucas Tolimán	10	San Lucas Tolimán	5	Mayo	2023-05-18T00:00:00	2024-11-08T06:00:00	6	Velocidad del viento	3.2
124582	7	Sololá	713	San Lucas Tolimán	10	San Lucas Tolimán	5	Mayo	2023-05-18T00:00:00	2024-11-08T06:00:00	7	Dirección del viento	3.22
124583	7	Sololá	713	San Lucas Tolimán	10	San Lucas Tolimán	5	Mayo	2023-05-18T00:00:00	2024-11-08T06:00:00	1	Precipitación	0
124584	7	Sololá	713	San Lucas Tolimán	10	San Lucas Tolimán	5	Mayo	2023-05-18T00:00:00	2024-11-08T06:00:00	8	Radiación solar	4
124585	7	Sololá	713	San Lucas Tolimán	10	San Lucas Tolimán	5	Mayo	2023-05-18T00:00:00	2024-11-08T07:00:00	2	Temperatura media	19.5
124586	7	Sololá	713	San Lucas Tolimán	10	San Lucas Tolimán	5	Mayo	2023-05-18T00:00:00	2024-11-08T07:00:00	4	Temperatura máxima	19.5
124587	7	Sololá	713	San Lucas Tolimán	10	San Lucas Tolimán	5	Mayo	2023-05-18T00:00:00	2024-11-08T07:00:00	3	Temperatura mínima	17.8
124588	7	Sololá	713	San Lucas Tolimán	10	San Lucas Tolimán	5	Mayo	2023-05-18T00:00:00	2024-11-08T07:00:00	5	Humedad	61
124589	7	Sololá	713	San Lucas Tolimán	10	San Lucas Tolimán	5	Mayo	2023-05-18T00:00:00	2024-11-08T07:00:00	6	Velocidad del viento	3.2
124590	7	Sololá	713	San Lucas Tolimán	10	San Lucas Tolimán	5	Mayo	2023-05-18T00:00:00	2024-11-08T07:00:00	7	Dirección del viento	3.22
124591	7	Sololá	713	San Lucas Tolimán	10	San Lucas Tolimán	5	Mayo	2023-05-18T00:00:00	2024-11-08T07:00:00	1	Precipitación	0
124592	7	Sololá	713	San Lucas Tolimán	10	San Lucas Tolimán	5	Mayo	2023-05-18T00:00:00	2024-11-08T07:00:00	8	Radiación solar	105
124593	7	Sololá	713	San Lucas Tolimán	10	San Lucas Tolimán	5	Mayo	2023-05-18T00:00:00	2024-11-08T08:00:00	2	Temperatura media	20.3
124594	7	Sololá	713	San Lucas Tolimán	10	San Lucas Tolimán	5	Mayo	2023-05-18T00:00:00	2024-11-08T08:00:00	4	Temperatura máxima	20.4
124595	7	Sololá	713	San Lucas Tolimán	10	San Lucas Tolimán	5	Mayo	2023-05-18T00:00:00	2024-11-08T08:00:00	3	Temperatura mínima	19.4
124596	7	Sololá	713	San Lucas Tolimán	10	San Lucas Tolimán	5	Mayo	2023-05-18T00:00:00	2024-11-08T08:00:00	5	Humedad	58
124597	7	Sololá	713	San Lucas Tolimán	10	San Lucas Tolimán	5	Mayo	2023-05-18T00:00:00	2024-11-08T08:00:00	6	Velocidad del viento	4.8
124598	7	Sololá	713	San Lucas Tolimán	10	San Lucas Tolimán	5	Mayo	2023-05-18T00:00:00	2024-11-08T08:00:00	7	Dirección del viento	4.83
124599	7	Sololá	713	San Lucas Tolimán	10	San Lucas Tolimán	5	Mayo	2023-05-18T00:00:00	2024-11-08T08:00:00	1	Precipitación	0
124600	7	Sololá	713	San Lucas Tolimán	10	San Lucas Tolimán	5	Mayo	2023-05-18T00:00:00	2024-11-08T08:00:00	8	Radiación solar	286
124601	7	Sololá	713	San Lucas Tolimán	10	San Lucas Tolimán	5	Mayo	2023-05-18T00:00:00	2024-11-08T09:00:00	2	Temperatura media	21.3
124602	7	Sololá	713	San Lucas Tolimán	10	San Lucas Tolimán	5	Mayo	2023-05-18T00:00:00	2024-11-08T09:00:00	4	Temperatura máxima	21.5
124603	7	Sololá	713	San Lucas Tolimán	10	San Lucas Tolimán	5	Mayo	2023-05-18T00:00:00	2024-11-08T09:00:00	3	Temperatura mínima	20.3
124604	7	Sololá	713	San Lucas Tolimán	10	San Lucas Tolimán	5	Mayo	2023-05-18T00:00:00	2024-11-08T09:00:00	5	Humedad	56
124605	7	Sololá	713	San Lucas Tolimán	10	San Lucas Tolimán	5	Mayo	2023-05-18T00:00:00	2024-11-08T09:00:00	6	Velocidad del viento	6.4
124606	7	Sololá	713	San Lucas Tolimán	10	San Lucas Tolimán	5	Mayo	2023-05-18T00:00:00	2024-11-08T09:00:00	7	Dirección del viento	6.44
124607	7	Sololá	713	San Lucas Tolimán	10	San Lucas Tolimán	5	Mayo	2023-05-18T00:00:00	2024-11-08T09:00:00	1	Precipitación	0
124608	7	Sololá	713	San Lucas Tolimán	10	San Lucas Tolimán	5	Mayo	2023-05-18T00:00:00	2024-11-08T09:00:00	8	Radiación solar	415
124609	7	Sololá	713	San Lucas Tolimán	10	San Lucas Tolimán	5	Mayo	2023-05-18T00:00:00	2024-11-08T10:00:00	2	Temperatura media	24
124610	7	Sololá	713	San Lucas Tolimán	10	San Lucas Tolimán	5	Mayo	2023-05-18T00:00:00	2024-11-08T10:00:00	4	Temperatura máxima	24
124611	7	Sololá	713	San Lucas Tolimán	10	San Lucas Tolimán	5	Mayo	2023-05-18T00:00:00	2024-11-08T10:00:00	3	Temperatura mínima	21.3
124612	7	Sololá	713	San Lucas Tolimán	10	San Lucas Tolimán	5	Mayo	2023-05-18T00:00:00	2024-11-08T10:00:00	5	Humedad	54
124613	7	Sololá	713	San Lucas Tolimán	10	San Lucas Tolimán	5	Mayo	2023-05-18T00:00:00	2024-11-08T10:00:00	6	Velocidad del viento	4.8
124614	7	Sololá	713	San Lucas Tolimán	10	San Lucas Tolimán	5	Mayo	2023-05-18T00:00:00	2024-11-08T10:00:00	7	Dirección del viento	4.83
124615	7	Sololá	713	San Lucas Tolimán	10	San Lucas Tolimán	5	Mayo	2023-05-18T00:00:00	2024-11-08T10:00:00	1	Precipitación	0
124616	7	Sololá	713	San Lucas Tolimán	10	San Lucas Tolimán	5	Mayo	2023-05-18T00:00:00	2024-11-08T10:00:00	8	Radiación solar	749
124617	7	Sololá	713	San Lucas Tolimán	10	San Lucas Tolimán	5	Mayo	2023-05-18T00:00:00	2024-11-08T11:00:00	2	Temperatura media	24.7
124618	7	Sololá	713	San Lucas Tolimán	10	San Lucas Tolimán	5	Mayo	2023-05-18T00:00:00	2024-11-08T11:00:00	4	Temperatura máxima	25.1
124619	7	Sololá	713	San Lucas Tolimán	10	San Lucas Tolimán	5	Mayo	2023-05-18T00:00:00	2024-11-08T11:00:00	3	Temperatura mínima	23.8
124620	7	Sololá	713	San Lucas Tolimán	10	San Lucas Tolimán	5	Mayo	2023-05-18T00:00:00	2024-11-08T11:00:00	5	Humedad	49
124621	7	Sololá	713	San Lucas Tolimán	10	San Lucas Tolimán	5	Mayo	2023-05-18T00:00:00	2024-11-08T11:00:00	6	Velocidad del viento	8
124622	7	Sololá	713	San Lucas Tolimán	10	San Lucas Tolimán	5	Mayo	2023-05-18T00:00:00	2024-11-08T11:00:00	7	Dirección del viento	8.05
124623	7	Sololá	713	San Lucas Tolimán	10	San Lucas Tolimán	5	Mayo	2023-05-18T00:00:00	2024-11-08T11:00:00	1	Precipitación	0
124624	7	Sololá	713	San Lucas Tolimán	10	San Lucas Tolimán	5	Mayo	2023-05-18T00:00:00	2024-11-08T11:00:00	8	Radiación solar	939
124625	7	Sololá	713	San Lucas Tolimán	10	San Lucas Tolimán	5	Mayo	2023-05-18T00:00:00	2024-11-08T12:00:00	2	Temperatura media	24.1
124626	7	Sololá	713	San Lucas Tolimán	10	San Lucas Tolimán	5	Mayo	2023-05-18T00:00:00	2024-11-08T12:00:00	4	Temperatura máxima	24.7
124627	7	Sololá	713	San Lucas Tolimán	10	San Lucas Tolimán	5	Mayo	2023-05-18T00:00:00	2024-11-08T12:00:00	3	Temperatura mínima	23.8
124628	7	Sololá	713	San Lucas Tolimán	10	San Lucas Tolimán	5	Mayo	2023-05-18T00:00:00	2024-11-08T12:00:00	5	Humedad	51
124629	7	Sololá	713	San Lucas Tolimán	10	San Lucas Tolimán	5	Mayo	2023-05-18T00:00:00	2024-11-08T12:00:00	6	Velocidad del viento	11.3
124630	7	Sololá	713	San Lucas Tolimán	10	San Lucas Tolimán	5	Mayo	2023-05-18T00:00:00	2024-11-08T12:00:00	7	Dirección del viento	11.27
124631	7	Sololá	713	San Lucas Tolimán	10	San Lucas Tolimán	5	Mayo	2023-05-18T00:00:00	2024-11-08T12:00:00	1	Precipitación	0
124632	7	Sololá	713	San Lucas Tolimán	10	San Lucas Tolimán	5	Mayo	2023-05-18T00:00:00	2024-11-08T12:00:00	8	Radiación solar	1000
124633	7	Sololá	713	San Lucas Tolimán	10	San Lucas Tolimán	5	Mayo	2023-05-18T00:00:00	2024-11-08T13:00:00	2	Temperatura media	24.8
124634	7	Sololá	713	San Lucas Tolimán	10	San Lucas Tolimán	5	Mayo	2023-05-18T00:00:00	2024-11-08T13:00:00	4	Temperatura máxima	24.9
124635	7	Sololá	713	San Lucas Tolimán	10	San Lucas Tolimán	5	Mayo	2023-05-18T00:00:00	2024-11-08T13:00:00	3	Temperatura mínima	24
124636	7	Sololá	713	San Lucas Tolimán	10	San Lucas Tolimán	5	Mayo	2023-05-18T00:00:00	2024-11-08T13:00:00	5	Humedad	51
124637	7	Sololá	713	San Lucas Tolimán	10	San Lucas Tolimán	5	Mayo	2023-05-18T00:00:00	2024-11-08T13:00:00	6	Velocidad del viento	11.3
124638	7	Sololá	713	San Lucas Tolimán	10	San Lucas Tolimán	5	Mayo	2023-05-18T00:00:00	2024-11-08T13:00:00	7	Dirección del viento	11.27
124639	7	Sololá	713	San Lucas Tolimán	10	San Lucas Tolimán	5	Mayo	2023-05-18T00:00:00	2024-11-08T13:00:00	1	Precipitación	0
124640	7	Sololá	713	San Lucas Tolimán	10	San Lucas Tolimán	5	Mayo	2023-05-18T00:00:00	2024-11-08T13:00:00	8	Radiación solar	1028
124641	7	Sololá	713	San Lucas Tolimán	10	San Lucas Tolimán	5	Mayo	2023-05-18T00:00:00	2024-11-08T14:00:00	2	Temperatura media	24.9
124642	7	Sololá	713	San Lucas Tolimán	10	San Lucas Tolimán	5	Mayo	2023-05-18T00:00:00	2024-11-08T14:00:00	4	Temperatura máxima	25.3
124643	7	Sololá	713	San Lucas Tolimán	10	San Lucas Tolimán	5	Mayo	2023-05-18T00:00:00	2024-11-08T14:00:00	3	Temperatura mínima	24.3
124644	7	Sololá	713	San Lucas Tolimán	10	San Lucas Tolimán	5	Mayo	2023-05-18T00:00:00	2024-11-08T14:00:00	5	Humedad	54
124645	7	Sololá	713	San Lucas Tolimán	10	San Lucas Tolimán	5	Mayo	2023-05-18T00:00:00	2024-11-08T14:00:00	6	Velocidad del viento	9.7
124646	7	Sololá	713	San Lucas Tolimán	10	San Lucas Tolimán	5	Mayo	2023-05-18T00:00:00	2024-11-08T14:00:00	7	Dirección del viento	9.66
124647	7	Sololá	713	San Lucas Tolimán	10	San Lucas Tolimán	5	Mayo	2023-05-18T00:00:00	2024-11-08T14:00:00	1	Precipitación	0
124648	7	Sololá	713	San Lucas Tolimán	10	San Lucas Tolimán	5	Mayo	2023-05-18T00:00:00	2024-11-08T14:00:00	8	Radiación solar	947
124649	7	Sololá	713	San Lucas Tolimán	10	San Lucas Tolimán	5	Mayo	2023-05-18T00:00:00	2024-11-08T15:00:00	2	Temperatura media	23.8
124650	7	Sololá	713	San Lucas Tolimán	10	San Lucas Tolimán	5	Mayo	2023-05-18T00:00:00	2024-11-08T15:00:00	4	Temperatura máxima	25
124651	7	Sololá	713	San Lucas Tolimán	10	San Lucas Tolimán	5	Mayo	2023-05-18T00:00:00	2024-11-08T15:00:00	3	Temperatura mínima	23.7
124652	7	Sololá	713	San Lucas Tolimán	10	San Lucas Tolimán	5	Mayo	2023-05-18T00:00:00	2024-11-08T15:00:00	5	Humedad	57
124653	7	Sololá	713	San Lucas Tolimán	10	San Lucas Tolimán	5	Mayo	2023-05-18T00:00:00	2024-11-08T15:00:00	6	Velocidad del viento	11.3
124654	7	Sololá	713	San Lucas Tolimán	10	San Lucas Tolimán	5	Mayo	2023-05-18T00:00:00	2024-11-08T15:00:00	7	Dirección del viento	11.27
124655	7	Sololá	713	San Lucas Tolimán	10	San Lucas Tolimán	5	Mayo	2023-05-18T00:00:00	2024-11-08T15:00:00	1	Precipitación	0
124656	7	Sololá	713	San Lucas Tolimán	10	San Lucas Tolimán	5	Mayo	2023-05-18T00:00:00	2024-11-08T15:00:00	8	Radiación solar	720
124657	7	Sololá	713	San Lucas Tolimán	10	San Lucas Tolimán	5	Mayo	2023-05-18T00:00:00	2024-11-08T16:00:00	2	Temperatura media	23.4
124658	7	Sololá	713	San Lucas Tolimán	10	San Lucas Tolimán	5	Mayo	2023-05-18T00:00:00	2024-11-08T16:00:00	4	Temperatura máxima	23.9
124659	7	Sololá	713	San Lucas Tolimán	10	San Lucas Tolimán	5	Mayo	2023-05-18T00:00:00	2024-11-08T16:00:00	3	Temperatura mínima	23.1
124660	7	Sololá	713	San Lucas Tolimán	10	San Lucas Tolimán	5	Mayo	2023-05-18T00:00:00	2024-11-08T16:00:00	5	Humedad	59
124661	7	Sololá	713	San Lucas Tolimán	10	San Lucas Tolimán	5	Mayo	2023-05-18T00:00:00	2024-11-08T16:00:00	6	Velocidad del viento	9.7
124662	7	Sololá	713	San Lucas Tolimán	10	San Lucas Tolimán	5	Mayo	2023-05-18T00:00:00	2024-11-08T16:00:00	7	Dirección del viento	9.66
124663	7	Sololá	713	San Lucas Tolimán	10	San Lucas Tolimán	5	Mayo	2023-05-18T00:00:00	2024-11-08T16:00:00	1	Precipitación	0
124664	7	Sololá	713	San Lucas Tolimán	10	San Lucas Tolimán	5	Mayo	2023-05-18T00:00:00	2024-11-08T16:00:00	8	Radiación solar	510
124665	7	Sololá	713	San Lucas Tolimán	10	San Lucas Tolimán	5	Mayo	2023-05-18T00:00:00	2024-11-08T17:00:00	2	Temperatura media	21.5
124666	7	Sololá	713	San Lucas Tolimán	10	San Lucas Tolimán	5	Mayo	2023-05-18T00:00:00	2024-11-08T17:00:00	4	Temperatura máxima	23.4
124667	7	Sololá	713	San Lucas Tolimán	10	San Lucas Tolimán	5	Mayo	2023-05-18T00:00:00	2024-11-08T17:00:00	3	Temperatura mínima	21.5
124668	7	Sololá	713	San Lucas Tolimán	10	San Lucas Tolimán	5	Mayo	2023-05-18T00:00:00	2024-11-08T17:00:00	5	Humedad	65
124669	7	Sololá	713	San Lucas Tolimán	10	San Lucas Tolimán	5	Mayo	2023-05-18T00:00:00	2024-11-08T17:00:00	6	Velocidad del viento	9.7
124670	7	Sololá	713	San Lucas Tolimán	10	San Lucas Tolimán	5	Mayo	2023-05-18T00:00:00	2024-11-08T17:00:00	7	Dirección del viento	9.66
124671	7	Sololá	713	San Lucas Tolimán	10	San Lucas Tolimán	5	Mayo	2023-05-18T00:00:00	2024-11-08T17:00:00	1	Precipitación	0
124672	7	Sololá	713	San Lucas Tolimán	10	San Lucas Tolimán	5	Mayo	2023-05-18T00:00:00	2024-11-08T17:00:00	8	Radiación solar	218
124673	7	Sololá	713	San Lucas Tolimán	10	San Lucas Tolimán	5	Mayo	2023-05-18T00:00:00	2024-11-08T18:00:00	2	Temperatura media	20.4
124674	7	Sololá	713	San Lucas Tolimán	10	San Lucas Tolimán	5	Mayo	2023-05-18T00:00:00	2024-11-08T18:00:00	4	Temperatura máxima	21.5
124675	7	Sololá	713	San Lucas Tolimán	10	San Lucas Tolimán	5	Mayo	2023-05-18T00:00:00	2024-11-08T18:00:00	3	Temperatura mínima	20.4
124676	7	Sololá	713	San Lucas Tolimán	10	San Lucas Tolimán	5	Mayo	2023-05-18T00:00:00	2024-11-08T18:00:00	5	Humedad	65
124677	7	Sololá	713	San Lucas Tolimán	10	San Lucas Tolimán	5	Mayo	2023-05-18T00:00:00	2024-11-08T18:00:00	6	Velocidad del viento	11.3
124678	7	Sololá	713	San Lucas Tolimán	10	San Lucas Tolimán	5	Mayo	2023-05-18T00:00:00	2024-11-08T18:00:00	7	Dirección del viento	11.27
124679	7	Sololá	713	San Lucas Tolimán	10	San Lucas Tolimán	5	Mayo	2023-05-18T00:00:00	2024-11-08T18:00:00	1	Precipitación	0
124680	7	Sololá	713	San Lucas Tolimán	10	San Lucas Tolimán	5	Mayo	2023-05-18T00:00:00	2024-11-08T18:00:00	8	Radiación solar	23
124681	7	Sololá	713	San Lucas Tolimán	10	San Lucas Tolimán	5	Mayo	2023-05-18T00:00:00	2024-11-08T19:00:00	2	Temperatura media	20.4
124682	7	Sololá	713	San Lucas Tolimán	10	San Lucas Tolimán	5	Mayo	2023-05-18T00:00:00	2024-11-08T19:00:00	4	Temperatura máxima	20.8
124683	7	Sololá	713	San Lucas Tolimán	10	San Lucas Tolimán	5	Mayo	2023-05-18T00:00:00	2024-11-08T19:00:00	3	Temperatura mínima	20.4
124684	7	Sololá	713	San Lucas Tolimán	10	San Lucas Tolimán	5	Mayo	2023-05-18T00:00:00	2024-11-08T19:00:00	5	Humedad	65
124685	7	Sololá	713	San Lucas Tolimán	10	San Lucas Tolimán	5	Mayo	2023-05-18T00:00:00	2024-11-08T19:00:00	6	Velocidad del viento	4.8
124686	7	Sololá	713	San Lucas Tolimán	10	San Lucas Tolimán	5	Mayo	2023-05-18T00:00:00	2024-11-08T19:00:00	7	Dirección del viento	4.83
124687	7	Sololá	713	San Lucas Tolimán	10	San Lucas Tolimán	5	Mayo	2023-05-18T00:00:00	2024-11-08T19:00:00	1	Precipitación	0
124688	7	Sololá	713	San Lucas Tolimán	10	San Lucas Tolimán	5	Mayo	2023-05-18T00:00:00	2024-11-08T19:00:00	8	Radiación solar	0
124689	7	Sololá	713	San Lucas Tolimán	10	San Lucas Tolimán	5	Mayo	2023-05-18T00:00:00	2024-11-08T20:00:00	2	Temperatura media	20
124690	7	Sololá	713	San Lucas Tolimán	10	San Lucas Tolimán	5	Mayo	2023-05-18T00:00:00	2024-11-08T20:00:00	4	Temperatura máxima	20.4
124691	7	Sololá	713	San Lucas Tolimán	10	San Lucas Tolimán	5	Mayo	2023-05-18T00:00:00	2024-11-08T20:00:00	3	Temperatura mínima	20
124692	7	Sololá	713	San Lucas Tolimán	10	San Lucas Tolimán	5	Mayo	2023-05-18T00:00:00	2024-11-08T20:00:00	5	Humedad	64
124693	7	Sololá	713	San Lucas Tolimán	10	San Lucas Tolimán	5	Mayo	2023-05-18T00:00:00	2024-11-08T20:00:00	6	Velocidad del viento	4.8
124694	7	Sololá	713	San Lucas Tolimán	10	San Lucas Tolimán	5	Mayo	2023-05-18T00:00:00	2024-11-08T20:00:00	7	Dirección del viento	4.83
124695	7	Sololá	713	San Lucas Tolimán	10	San Lucas Tolimán	5	Mayo	2023-05-18T00:00:00	2024-11-08T20:00:00	1	Precipitación	0
124696	7	Sololá	713	San Lucas Tolimán	10	San Lucas Tolimán	5	Mayo	2023-05-18T00:00:00	2024-11-08T20:00:00	8	Radiación solar	0
124697	7	Sololá	713	San Lucas Tolimán	10	San Lucas Tolimán	5	Mayo	2023-05-18T00:00:00	2024-11-08T21:00:00	2	Temperatura media	19.3
124698	7	Sololá	713	San Lucas Tolimán	10	San Lucas Tolimán	5	Mayo	2023-05-18T00:00:00	2024-11-08T21:00:00	4	Temperatura máxima	20
124699	7	Sololá	713	San Lucas Tolimán	10	San Lucas Tolimán	5	Mayo	2023-05-18T00:00:00	2024-11-08T21:00:00	3	Temperatura mínima	19.2
124700	7	Sololá	713	San Lucas Tolimán	10	San Lucas Tolimán	5	Mayo	2023-05-18T00:00:00	2024-11-08T21:00:00	5	Humedad	65
124701	7	Sololá	713	San Lucas Tolimán	10	San Lucas Tolimán	5	Mayo	2023-05-18T00:00:00	2024-11-08T21:00:00	6	Velocidad del viento	4.8
124702	7	Sololá	713	San Lucas Tolimán	10	San Lucas Tolimán	5	Mayo	2023-05-18T00:00:00	2024-11-08T21:00:00	7	Dirección del viento	4.83
124703	7	Sololá	713	San Lucas Tolimán	10	San Lucas Tolimán	5	Mayo	2023-05-18T00:00:00	2024-11-08T21:00:00	1	Precipitación	0
124704	7	Sololá	713	San Lucas Tolimán	10	San Lucas Tolimán	5	Mayo	2023-05-18T00:00:00	2024-11-08T21:00:00	8	Radiación solar	0
124705	7	Sololá	713	San Lucas Tolimán	10	San Lucas Tolimán	5	Mayo	2023-05-18T00:00:00	2024-11-08T22:00:00	2	Temperatura media	18.5
124706	7	Sololá	713	San Lucas Tolimán	10	San Lucas Tolimán	5	Mayo	2023-05-18T00:00:00	2024-11-08T22:00:00	4	Temperatura máxima	19.3
124707	7	Sololá	713	San Lucas Tolimán	10	San Lucas Tolimán	5	Mayo	2023-05-18T00:00:00	2024-11-08T22:00:00	3	Temperatura mínima	18.5
124708	7	Sololá	713	San Lucas Tolimán	10	San Lucas Tolimán	5	Mayo	2023-05-18T00:00:00	2024-11-08T22:00:00	5	Humedad	65
124709	7	Sololá	713	San Lucas Tolimán	10	San Lucas Tolimán	5	Mayo	2023-05-18T00:00:00	2024-11-08T22:00:00	6	Velocidad del viento	3.2
124710	7	Sololá	713	San Lucas Tolimán	10	San Lucas Tolimán	5	Mayo	2023-05-18T00:00:00	2024-11-08T22:00:00	7	Dirección del viento	3.22
124711	7	Sololá	713	San Lucas Tolimán	10	San Lucas Tolimán	5	Mayo	2023-05-18T00:00:00	2024-11-08T22:00:00	1	Precipitación	0
124712	7	Sololá	713	San Lucas Tolimán	10	San Lucas Tolimán	5	Mayo	2023-05-18T00:00:00	2024-11-08T22:00:00	8	Radiación solar	0
124713	7	Sololá	713	San Lucas Tolimán	10	San Lucas Tolimán	5	Mayo	2023-05-18T00:00:00	2024-11-08T23:00:00	2	Temperatura media	18.4
124714	7	Sololá	713	San Lucas Tolimán	10	San Lucas Tolimán	5	Mayo	2023-05-18T00:00:00	2024-11-08T23:00:00	4	Temperatura máxima	18.6
124715	7	Sololá	713	San Lucas Tolimán	10	San Lucas Tolimán	5	Mayo	2023-05-18T00:00:00	2024-11-08T23:00:00	3	Temperatura mínima	18.4
124716	7	Sololá	713	San Lucas Tolimán	10	San Lucas Tolimán	5	Mayo	2023-05-18T00:00:00	2024-11-08T23:00:00	5	Humedad	64
124717	7	Sololá	713	San Lucas Tolimán	10	San Lucas Tolimán	5	Mayo	2023-05-18T00:00:00	2024-11-08T23:00:00	6	Velocidad del viento	3.2
124718	7	Sololá	713	San Lucas Tolimán	10	San Lucas Tolimán	5	Mayo	2023-05-18T00:00:00	2024-11-08T23:00:00	7	Dirección del viento	3.22
124719	7	Sololá	713	San Lucas Tolimán	10	San Lucas Tolimán	5	Mayo	2023-05-18T00:00:00	2024-11-08T23:00:00	1	Precipitación	0
124720	7	Sololá	713	San Lucas Tolimán	10	San Lucas Tolimán	5	Mayo	2023-05-18T00:00:00	2024-11-08T23:00:00	8	Radiación solar	0
124721	7	Sololá	713	San Lucas Tolimán	10	San Lucas Tolimán	5	Mayo	2023-05-19T00:00:00	2024-11-08T00:00:00	2	Temperatura media	18
124722	7	Sololá	713	San Lucas Tolimán	10	San Lucas Tolimán	5	Mayo	2023-05-19T00:00:00	2024-11-08T00:00:00	4	Temperatura máxima	18.4
124723	7	Sololá	713	San Lucas Tolimán	10	San Lucas Tolimán	5	Mayo	2023-05-19T00:00:00	2024-11-08T00:00:00	3	Temperatura mínima	18
124724	7	Sololá	713	San Lucas Tolimán	10	San Lucas Tolimán	5	Mayo	2023-05-19T00:00:00	2024-11-08T00:00:00	5	Humedad	64
124725	7	Sololá	713	San Lucas Tolimán	10	San Lucas Tolimán	5	Mayo	2023-05-19T00:00:00	2024-11-08T00:00:00	6	Velocidad del viento	3.2
124726	7	Sololá	713	San Lucas Tolimán	10	San Lucas Tolimán	5	Mayo	2023-05-19T00:00:00	2024-11-08T00:00:00	7	Dirección del viento	3.22
124727	7	Sololá	713	San Lucas Tolimán	10	San Lucas Tolimán	5	Mayo	2023-05-19T00:00:00	2024-11-08T00:00:00	1	Precipitación	0
124728	7	Sololá	713	San Lucas Tolimán	10	San Lucas Tolimán	5	Mayo	2023-05-19T00:00:00	2024-11-08T00:00:00	8	Radiación solar	0
124729	7	Sololá	713	San Lucas Tolimán	10	San Lucas Tolimán	5	Mayo	2023-05-19T00:00:00	2024-11-08T01:00:00	2	Temperatura media	17.3
124730	7	Sololá	713	San Lucas Tolimán	10	San Lucas Tolimán	5	Mayo	2023-05-19T00:00:00	2024-11-08T01:00:00	4	Temperatura máxima	18.1
124731	7	Sololá	713	San Lucas Tolimán	10	San Lucas Tolimán	5	Mayo	2023-05-19T00:00:00	2024-11-08T01:00:00	3	Temperatura mínima	17.3
124732	7	Sololá	713	San Lucas Tolimán	10	San Lucas Tolimán	5	Mayo	2023-05-19T00:00:00	2024-11-08T01:00:00	5	Humedad	65
124733	7	Sololá	713	San Lucas Tolimán	10	San Lucas Tolimán	5	Mayo	2023-05-19T00:00:00	2024-11-08T01:00:00	6	Velocidad del viento	3.2
124734	7	Sololá	713	San Lucas Tolimán	10	San Lucas Tolimán	5	Mayo	2023-05-19T00:00:00	2024-11-08T01:00:00	7	Dirección del viento	3.22
124735	7	Sololá	713	San Lucas Tolimán	10	San Lucas Tolimán	5	Mayo	2023-05-19T00:00:00	2024-11-08T01:00:00	1	Precipitación	0
124736	7	Sololá	713	San Lucas Tolimán	10	San Lucas Tolimán	5	Mayo	2023-05-19T00:00:00	2024-11-08T01:00:00	8	Radiación solar	0
124737	7	Sololá	713	San Lucas Tolimán	10	San Lucas Tolimán	5	Mayo	2023-05-19T00:00:00	2024-11-08T02:00:00	2	Temperatura media	17.1
124738	7	Sololá	713	San Lucas Tolimán	10	San Lucas Tolimán	5	Mayo	2023-05-19T00:00:00	2024-11-08T02:00:00	4	Temperatura máxima	17.5
124739	7	Sololá	713	San Lucas Tolimán	10	San Lucas Tolimán	5	Mayo	2023-05-19T00:00:00	2024-11-08T02:00:00	3	Temperatura mínima	17
124740	7	Sololá	713	San Lucas Tolimán	10	San Lucas Tolimán	5	Mayo	2023-05-19T00:00:00	2024-11-08T02:00:00	5	Humedad	65
124741	7	Sololá	713	San Lucas Tolimán	10	San Lucas Tolimán	5	Mayo	2023-05-19T00:00:00	2024-11-08T02:00:00	6	Velocidad del viento	3.2
124742	7	Sololá	713	San Lucas Tolimán	10	San Lucas Tolimán	5	Mayo	2023-05-19T00:00:00	2024-11-08T02:00:00	7	Dirección del viento	3.22
124743	7	Sololá	713	San Lucas Tolimán	10	San Lucas Tolimán	5	Mayo	2023-05-19T00:00:00	2024-11-08T02:00:00	1	Precipitación	0
124744	7	Sololá	713	San Lucas Tolimán	10	San Lucas Tolimán	5	Mayo	2023-05-19T00:00:00	2024-11-08T02:00:00	8	Radiación solar	0
124745	7	Sololá	713	San Lucas Tolimán	10	San Lucas Tolimán	5	Mayo	2023-05-19T00:00:00	2024-11-08T03:00:00	2	Temperatura media	17.2
124746	7	Sololá	713	San Lucas Tolimán	10	San Lucas Tolimán	5	Mayo	2023-05-19T00:00:00	2024-11-08T03:00:00	4	Temperatura máxima	17.2
124747	7	Sololá	713	San Lucas Tolimán	10	San Lucas Tolimán	5	Mayo	2023-05-19T00:00:00	2024-11-08T03:00:00	3	Temperatura mínima	16.8
124748	7	Sololá	713	San Lucas Tolimán	10	San Lucas Tolimán	5	Mayo	2023-05-19T00:00:00	2024-11-08T03:00:00	5	Humedad	64
124749	7	Sololá	713	San Lucas Tolimán	10	San Lucas Tolimán	5	Mayo	2023-05-19T00:00:00	2024-11-08T03:00:00	6	Velocidad del viento	3.2
124750	7	Sololá	713	San Lucas Tolimán	10	San Lucas Tolimán	5	Mayo	2023-05-19T00:00:00	2024-11-08T03:00:00	7	Dirección del viento	3.22
124751	7	Sololá	713	San Lucas Tolimán	10	San Lucas Tolimán	5	Mayo	2023-05-19T00:00:00	2024-11-08T03:00:00	1	Precipitación	0
124752	7	Sololá	713	San Lucas Tolimán	10	San Lucas Tolimán	5	Mayo	2023-05-19T00:00:00	2024-11-08T03:00:00	8	Radiación solar	0
124753	7	Sololá	713	San Lucas Tolimán	10	San Lucas Tolimán	5	Mayo	2023-05-19T00:00:00	2024-11-08T04:00:00	2	Temperatura media	17.2
124754	7	Sololá	713	San Lucas Tolimán	10	San Lucas Tolimán	5	Mayo	2023-05-19T00:00:00	2024-11-08T04:00:00	4	Temperatura máxima	17.4
124755	7	Sololá	713	San Lucas Tolimán	10	San Lucas Tolimán	5	Mayo	2023-05-19T00:00:00	2024-11-08T04:00:00	3	Temperatura mínima	17.1
124756	7	Sololá	713	San Lucas Tolimán	10	San Lucas Tolimán	5	Mayo	2023-05-19T00:00:00	2024-11-08T04:00:00	5	Humedad	64
124757	7	Sololá	713	San Lucas Tolimán	10	San Lucas Tolimán	5	Mayo	2023-05-19T00:00:00	2024-11-08T04:00:00	6	Velocidad del viento	1.6
124758	7	Sololá	713	San Lucas Tolimán	10	San Lucas Tolimán	5	Mayo	2023-05-19T00:00:00	2024-11-08T04:00:00	7	Dirección del viento	1.61
124759	7	Sololá	713	San Lucas Tolimán	10	San Lucas Tolimán	5	Mayo	2023-05-19T00:00:00	2024-11-08T04:00:00	1	Precipitación	0
124760	7	Sololá	713	San Lucas Tolimán	10	San Lucas Tolimán	5	Mayo	2023-05-19T00:00:00	2024-11-08T04:00:00	8	Radiación solar	0
124761	7	Sololá	713	San Lucas Tolimán	10	San Lucas Tolimán	5	Mayo	2023-05-19T00:00:00	2024-11-08T05:00:00	2	Temperatura media	17.7
124762	7	Sololá	713	San Lucas Tolimán	10	San Lucas Tolimán	5	Mayo	2023-05-19T00:00:00	2024-11-08T05:00:00	4	Temperatura máxima	17.7
124763	7	Sololá	713	San Lucas Tolimán	10	San Lucas Tolimán	5	Mayo	2023-05-19T00:00:00	2024-11-08T05:00:00	3	Temperatura mínima	17.2
124764	7	Sololá	713	San Lucas Tolimán	10	San Lucas Tolimán	5	Mayo	2023-05-19T00:00:00	2024-11-08T05:00:00	5	Humedad	63
124765	7	Sololá	713	San Lucas Tolimán	10	San Lucas Tolimán	5	Mayo	2023-05-19T00:00:00	2024-11-08T05:00:00	6	Velocidad del viento	0
124766	7	Sololá	713	San Lucas Tolimán	10	San Lucas Tolimán	5	Mayo	2023-05-19T00:00:00	2024-11-08T05:00:00	7	Dirección del viento	0
124767	7	Sololá	713	San Lucas Tolimán	10	San Lucas Tolimán	5	Mayo	2023-05-19T00:00:00	2024-11-08T05:00:00	1	Precipitación	0
124768	7	Sololá	713	San Lucas Tolimán	10	San Lucas Tolimán	5	Mayo	2023-05-19T00:00:00	2024-11-08T05:00:00	8	Radiación solar	0
124769	7	Sololá	713	San Lucas Tolimán	10	San Lucas Tolimán	5	Mayo	2023-05-19T00:00:00	2024-11-08T06:00:00	2	Temperatura media	17.7
124770	7	Sololá	713	San Lucas Tolimán	10	San Lucas Tolimán	5	Mayo	2023-05-19T00:00:00	2024-11-08T06:00:00	4	Temperatura máxima	18.1
124771	7	Sololá	713	San Lucas Tolimán	10	San Lucas Tolimán	5	Mayo	2023-05-19T00:00:00	2024-11-08T06:00:00	3	Temperatura mínima	17.5
124772	7	Sololá	713	San Lucas Tolimán	10	San Lucas Tolimán	5	Mayo	2023-05-19T00:00:00	2024-11-08T06:00:00	5	Humedad	63
124773	7	Sololá	713	San Lucas Tolimán	10	San Lucas Tolimán	5	Mayo	2023-05-19T00:00:00	2024-11-08T06:00:00	6	Velocidad del viento	1.6
124774	7	Sololá	713	San Lucas Tolimán	10	San Lucas Tolimán	5	Mayo	2023-05-19T00:00:00	2024-11-08T06:00:00	7	Dirección del viento	1.61
124775	7	Sololá	713	San Lucas Tolimán	10	San Lucas Tolimán	5	Mayo	2023-05-19T00:00:00	2024-11-08T06:00:00	1	Precipitación	0
124776	7	Sololá	713	San Lucas Tolimán	10	San Lucas Tolimán	5	Mayo	2023-05-19T00:00:00	2024-11-08T06:00:00	8	Radiación solar	4
124777	7	Sololá	713	San Lucas Tolimán	10	San Lucas Tolimán	5	Mayo	2023-05-19T00:00:00	2024-11-08T07:00:00	2	Temperatura media	20.2
124778	7	Sololá	713	San Lucas Tolimán	10	San Lucas Tolimán	5	Mayo	2023-05-19T00:00:00	2024-11-08T07:00:00	4	Temperatura máxima	20.2
124779	7	Sololá	713	San Lucas Tolimán	10	San Lucas Tolimán	5	Mayo	2023-05-19T00:00:00	2024-11-08T07:00:00	3	Temperatura mínima	17.6
124780	7	Sololá	713	San Lucas Tolimán	10	San Lucas Tolimán	5	Mayo	2023-05-19T00:00:00	2024-11-08T07:00:00	5	Humedad	60
124781	7	Sololá	713	San Lucas Tolimán	10	San Lucas Tolimán	5	Mayo	2023-05-19T00:00:00	2024-11-08T07:00:00	6	Velocidad del viento	3.2
124782	7	Sololá	713	San Lucas Tolimán	10	San Lucas Tolimán	5	Mayo	2023-05-19T00:00:00	2024-11-08T07:00:00	7	Dirección del viento	3.22
124783	7	Sololá	713	San Lucas Tolimán	10	San Lucas Tolimán	5	Mayo	2023-05-19T00:00:00	2024-11-08T07:00:00	1	Precipitación	0
124784	7	Sololá	713	San Lucas Tolimán	10	San Lucas Tolimán	5	Mayo	2023-05-19T00:00:00	2024-11-08T07:00:00	8	Radiación solar	95
124785	7	Sololá	713	San Lucas Tolimán	10	San Lucas Tolimán	5	Mayo	2023-05-19T00:00:00	2024-11-08T08:00:00	2	Temperatura media	23.6
124786	7	Sololá	713	San Lucas Tolimán	10	San Lucas Tolimán	5	Mayo	2023-05-19T00:00:00	2024-11-08T08:00:00	4	Temperatura máxima	23.6
124787	7	Sololá	713	San Lucas Tolimán	10	San Lucas Tolimán	5	Mayo	2023-05-19T00:00:00	2024-11-08T08:00:00	3	Temperatura mínima	20.2
124788	7	Sololá	713	San Lucas Tolimán	10	San Lucas Tolimán	5	Mayo	2023-05-19T00:00:00	2024-11-08T08:00:00	5	Humedad	50
124789	7	Sololá	713	San Lucas Tolimán	10	San Lucas Tolimán	5	Mayo	2023-05-19T00:00:00	2024-11-08T08:00:00	6	Velocidad del viento	3.2
124790	7	Sololá	713	San Lucas Tolimán	10	San Lucas Tolimán	5	Mayo	2023-05-19T00:00:00	2024-11-08T08:00:00	7	Dirección del viento	3.22
124791	7	Sololá	713	San Lucas Tolimán	10	San Lucas Tolimán	5	Mayo	2023-05-19T00:00:00	2024-11-08T08:00:00	1	Precipitación	0
124792	7	Sololá	713	San Lucas Tolimán	10	San Lucas Tolimán	5	Mayo	2023-05-19T00:00:00	2024-11-08T08:00:00	8	Radiación solar	363
124793	7	Sololá	713	San Lucas Tolimán	10	San Lucas Tolimán	5	Mayo	2023-05-19T00:00:00	2024-11-08T09:00:00	2	Temperatura media	24.3
124794	7	Sololá	713	San Lucas Tolimán	10	San Lucas Tolimán	5	Mayo	2023-05-19T00:00:00	2024-11-08T09:00:00	4	Temperatura máxima	24.9
124795	7	Sololá	713	San Lucas Tolimán	10	San Lucas Tolimán	5	Mayo	2023-05-19T00:00:00	2024-11-08T09:00:00	3	Temperatura mínima	23.6
124796	7	Sololá	713	San Lucas Tolimán	10	San Lucas Tolimán	5	Mayo	2023-05-19T00:00:00	2024-11-08T09:00:00	5	Humedad	46
124797	7	Sololá	713	San Lucas Tolimán	10	San Lucas Tolimán	5	Mayo	2023-05-19T00:00:00	2024-11-08T09:00:00	6	Velocidad del viento	3.2
124798	7	Sololá	713	San Lucas Tolimán	10	San Lucas Tolimán	5	Mayo	2023-05-19T00:00:00	2024-11-08T09:00:00	7	Dirección del viento	3.22
124799	7	Sololá	713	San Lucas Tolimán	10	San Lucas Tolimán	5	Mayo	2023-05-19T00:00:00	2024-11-08T09:00:00	1	Precipitación	0
124800	7	Sololá	713	San Lucas Tolimán	10	San Lucas Tolimán	5	Mayo	2023-05-19T00:00:00	2024-11-08T09:00:00	8	Radiación solar	605
124801	7	Sololá	713	San Lucas Tolimán	10	San Lucas Tolimán	5	Mayo	2023-05-19T00:00:00	2024-11-08T10:00:00	2	Temperatura media	24.6
124802	7	Sololá	713	San Lucas Tolimán	10	San Lucas Tolimán	5	Mayo	2023-05-19T00:00:00	2024-11-08T10:00:00	4	Temperatura máxima	25.3
124803	7	Sololá	713	San Lucas Tolimán	10	San Lucas Tolimán	5	Mayo	2023-05-19T00:00:00	2024-11-08T10:00:00	3	Temperatura mínima	24.3
124804	7	Sololá	713	San Lucas Tolimán	10	San Lucas Tolimán	5	Mayo	2023-05-19T00:00:00	2024-11-08T10:00:00	5	Humedad	53
124805	7	Sololá	713	San Lucas Tolimán	10	San Lucas Tolimán	5	Mayo	2023-05-19T00:00:00	2024-11-08T10:00:00	6	Velocidad del viento	8
124806	7	Sololá	713	San Lucas Tolimán	10	San Lucas Tolimán	5	Mayo	2023-05-19T00:00:00	2024-11-08T10:00:00	7	Dirección del viento	8.05
124807	7	Sololá	713	San Lucas Tolimán	10	San Lucas Tolimán	5	Mayo	2023-05-19T00:00:00	2024-11-08T10:00:00	1	Precipitación	0
124808	7	Sololá	713	San Lucas Tolimán	10	San Lucas Tolimán	5	Mayo	2023-05-19T00:00:00	2024-11-08T10:00:00	8	Radiación solar	821
124809	7	Sololá	713	San Lucas Tolimán	10	San Lucas Tolimán	5	Mayo	2023-05-19T00:00:00	2024-11-08T11:00:00	2	Temperatura media	25.8
124810	7	Sololá	713	San Lucas Tolimán	10	San Lucas Tolimán	5	Mayo	2023-05-19T00:00:00	2024-11-08T11:00:00	4	Temperatura máxima	25.9
124811	7	Sololá	713	San Lucas Tolimán	10	San Lucas Tolimán	5	Mayo	2023-05-19T00:00:00	2024-11-08T11:00:00	3	Temperatura mínima	24.4
124812	7	Sololá	713	San Lucas Tolimán	10	San Lucas Tolimán	5	Mayo	2023-05-19T00:00:00	2024-11-08T11:00:00	5	Humedad	50
124813	7	Sololá	713	San Lucas Tolimán	10	San Lucas Tolimán	5	Mayo	2023-05-19T00:00:00	2024-11-08T11:00:00	6	Velocidad del viento	8
124814	7	Sololá	713	San Lucas Tolimán	10	San Lucas Tolimán	5	Mayo	2023-05-19T00:00:00	2024-11-08T11:00:00	7	Dirección del viento	8.05
124815	7	Sololá	713	San Lucas Tolimán	10	San Lucas Tolimán	5	Mayo	2023-05-19T00:00:00	2024-11-08T11:00:00	1	Precipitación	0
124816	7	Sololá	713	San Lucas Tolimán	10	San Lucas Tolimán	5	Mayo	2023-05-19T00:00:00	2024-11-08T11:00:00	8	Radiación solar	970
124817	7	Sololá	713	San Lucas Tolimán	10	San Lucas Tolimán	5	Mayo	2023-05-19T00:00:00	2024-11-08T12:00:00	2	Temperatura media	24.8
124818	7	Sololá	713	San Lucas Tolimán	10	San Lucas Tolimán	5	Mayo	2023-05-19T00:00:00	2024-11-08T12:00:00	4	Temperatura máxima	26.1
124819	7	Sololá	713	San Lucas Tolimán	10	San Lucas Tolimán	5	Mayo	2023-05-19T00:00:00	2024-11-08T12:00:00	3	Temperatura mínima	24.8
124820	7	Sololá	713	San Lucas Tolimán	10	San Lucas Tolimán	5	Mayo	2023-05-19T00:00:00	2024-11-08T12:00:00	5	Humedad	58
124821	7	Sololá	713	San Lucas Tolimán	10	San Lucas Tolimán	5	Mayo	2023-05-19T00:00:00	2024-11-08T12:00:00	6	Velocidad del viento	9.7
124822	7	Sololá	713	San Lucas Tolimán	10	San Lucas Tolimán	5	Mayo	2023-05-19T00:00:00	2024-11-08T12:00:00	7	Dirección del viento	9.66
124823	7	Sololá	713	San Lucas Tolimán	10	San Lucas Tolimán	5	Mayo	2023-05-19T00:00:00	2024-11-08T12:00:00	1	Precipitación	0
124824	7	Sololá	713	San Lucas Tolimán	10	San Lucas Tolimán	5	Mayo	2023-05-19T00:00:00	2024-11-08T12:00:00	8	Radiación solar	1038
124825	7	Sololá	713	San Lucas Tolimán	10	San Lucas Tolimán	5	Mayo	2023-05-19T00:00:00	2024-11-08T13:00:00	2	Temperatura media	25.5
124826	7	Sololá	713	San Lucas Tolimán	10	San Lucas Tolimán	5	Mayo	2023-05-19T00:00:00	2024-11-08T13:00:00	4	Temperatura máxima	25.7
124827	7	Sololá	713	San Lucas Tolimán	10	San Lucas Tolimán	5	Mayo	2023-05-19T00:00:00	2024-11-08T13:00:00	3	Temperatura mínima	24.8
124828	7	Sololá	713	San Lucas Tolimán	10	San Lucas Tolimán	5	Mayo	2023-05-19T00:00:00	2024-11-08T13:00:00	5	Humedad	56
124829	7	Sololá	713	San Lucas Tolimán	10	San Lucas Tolimán	5	Mayo	2023-05-19T00:00:00	2024-11-08T13:00:00	6	Velocidad del viento	11.3
124830	7	Sololá	713	San Lucas Tolimán	10	San Lucas Tolimán	5	Mayo	2023-05-19T00:00:00	2024-11-08T13:00:00	7	Dirección del viento	11.27
124831	7	Sololá	713	San Lucas Tolimán	10	San Lucas Tolimán	5	Mayo	2023-05-19T00:00:00	2024-11-08T13:00:00	1	Precipitación	0
124832	7	Sololá	713	San Lucas Tolimán	10	San Lucas Tolimán	5	Mayo	2023-05-19T00:00:00	2024-11-08T13:00:00	8	Radiación solar	1017
124833	7	Sololá	713	San Lucas Tolimán	10	San Lucas Tolimán	5	Mayo	2023-05-19T00:00:00	2024-11-08T14:00:00	2	Temperatura media	25.4
124834	7	Sololá	713	San Lucas Tolimán	10	San Lucas Tolimán	5	Mayo	2023-05-19T00:00:00	2024-11-08T14:00:00	4	Temperatura máxima	26.3
124835	7	Sololá	713	San Lucas Tolimán	10	San Lucas Tolimán	5	Mayo	2023-05-19T00:00:00	2024-11-08T14:00:00	3	Temperatura mínima	25.4
124836	7	Sololá	713	San Lucas Tolimán	10	San Lucas Tolimán	5	Mayo	2023-05-19T00:00:00	2024-11-08T14:00:00	5	Humedad	57
124837	7	Sololá	713	San Lucas Tolimán	10	San Lucas Tolimán	5	Mayo	2023-05-19T00:00:00	2024-11-08T14:00:00	6	Velocidad del viento	11.3
124838	7	Sololá	713	San Lucas Tolimán	10	San Lucas Tolimán	5	Mayo	2023-05-19T00:00:00	2024-11-08T14:00:00	7	Dirección del viento	11.27
124839	7	Sololá	713	San Lucas Tolimán	10	San Lucas Tolimán	5	Mayo	2023-05-19T00:00:00	2024-11-08T14:00:00	1	Precipitación	0
124840	7	Sololá	713	San Lucas Tolimán	10	San Lucas Tolimán	5	Mayo	2023-05-19T00:00:00	2024-11-08T14:00:00	8	Radiación solar	869
124841	7	Sololá	713	San Lucas Tolimán	10	San Lucas Tolimán	5	Mayo	2023-05-19T00:00:00	2024-11-08T15:00:00	2	Temperatura media	24.2
124842	7	Sololá	713	San Lucas Tolimán	10	San Lucas Tolimán	5	Mayo	2023-05-19T00:00:00	2024-11-08T15:00:00	4	Temperatura máxima	25.8
124843	7	Sololá	713	San Lucas Tolimán	10	San Lucas Tolimán	5	Mayo	2023-05-19T00:00:00	2024-11-08T15:00:00	3	Temperatura mínima	24.2
124844	7	Sololá	713	San Lucas Tolimán	10	San Lucas Tolimán	5	Mayo	2023-05-19T00:00:00	2024-11-08T15:00:00	5	Humedad	61
124845	7	Sololá	713	San Lucas Tolimán	10	San Lucas Tolimán	5	Mayo	2023-05-19T00:00:00	2024-11-08T15:00:00	6	Velocidad del viento	11.3
124846	7	Sololá	713	San Lucas Tolimán	10	San Lucas Tolimán	5	Mayo	2023-05-19T00:00:00	2024-11-08T15:00:00	7	Dirección del viento	11.27
124847	7	Sololá	713	San Lucas Tolimán	10	San Lucas Tolimán	5	Mayo	2023-05-19T00:00:00	2024-11-08T15:00:00	1	Precipitación	0
124848	7	Sololá	713	San Lucas Tolimán	10	San Lucas Tolimán	5	Mayo	2023-05-19T00:00:00	2024-11-08T15:00:00	8	Radiación solar	599
124849	7	Sololá	713	San Lucas Tolimán	10	San Lucas Tolimán	5	Mayo	2023-05-19T00:00:00	2024-11-08T16:00:00	2	Temperatura media	23.7
124850	7	Sololá	713	San Lucas Tolimán	10	San Lucas Tolimán	5	Mayo	2023-05-19T00:00:00	2024-11-08T16:00:00	4	Temperatura máxima	24.7
124851	7	Sololá	713	San Lucas Tolimán	10	San Lucas Tolimán	5	Mayo	2023-05-19T00:00:00	2024-11-08T16:00:00	3	Temperatura mínima	23.3
124852	7	Sololá	713	San Lucas Tolimán	10	San Lucas Tolimán	5	Mayo	2023-05-19T00:00:00	2024-11-08T16:00:00	5	Humedad	59
124853	7	Sololá	713	San Lucas Tolimán	10	San Lucas Tolimán	5	Mayo	2023-05-19T00:00:00	2024-11-08T16:00:00	6	Velocidad del viento	12.9
124854	7	Sololá	713	San Lucas Tolimán	10	San Lucas Tolimán	5	Mayo	2023-05-19T00:00:00	2024-11-08T16:00:00	7	Dirección del viento	12.87
124855	7	Sololá	713	San Lucas Tolimán	10	San Lucas Tolimán	5	Mayo	2023-05-19T00:00:00	2024-11-08T16:00:00	1	Precipitación	0
124856	7	Sololá	713	San Lucas Tolimán	10	San Lucas Tolimán	5	Mayo	2023-05-19T00:00:00	2024-11-08T16:00:00	8	Radiación solar	329
124857	7	Sololá	713	San Lucas Tolimán	10	San Lucas Tolimán	5	Mayo	2023-05-19T00:00:00	2024-11-08T17:00:00	2	Temperatura media	21.8
124858	7	Sololá	713	San Lucas Tolimán	10	San Lucas Tolimán	5	Mayo	2023-05-19T00:00:00	2024-11-08T17:00:00	4	Temperatura máxima	23.7
124859	7	Sololá	713	San Lucas Tolimán	10	San Lucas Tolimán	5	Mayo	2023-05-19T00:00:00	2024-11-08T17:00:00	3	Temperatura mínima	21.8
124860	7	Sololá	713	San Lucas Tolimán	10	San Lucas Tolimán	5	Mayo	2023-05-19T00:00:00	2024-11-08T17:00:00	5	Humedad	60
124861	7	Sololá	713	San Lucas Tolimán	10	San Lucas Tolimán	5	Mayo	2023-05-19T00:00:00	2024-11-08T17:00:00	6	Velocidad del viento	11.3
124862	7	Sololá	713	San Lucas Tolimán	10	San Lucas Tolimán	5	Mayo	2023-05-19T00:00:00	2024-11-08T17:00:00	7	Dirección del viento	11.27
124863	7	Sololá	713	San Lucas Tolimán	10	San Lucas Tolimán	5	Mayo	2023-05-19T00:00:00	2024-11-08T17:00:00	1	Precipitación	0
124864	7	Sololá	713	San Lucas Tolimán	10	San Lucas Tolimán	5	Mayo	2023-05-19T00:00:00	2024-11-08T17:00:00	8	Radiación solar	71
124865	7	Sololá	713	San Lucas Tolimán	10	San Lucas Tolimán	5	Mayo	2023-05-19T00:00:00	2024-11-08T18:00:00	2	Temperatura media	21.8
124866	7	Sololá	713	San Lucas Tolimán	10	San Lucas Tolimán	5	Mayo	2023-05-19T00:00:00	2024-11-08T18:00:00	4	Temperatura máxima	21.9
124867	7	Sololá	713	San Lucas Tolimán	10	San Lucas Tolimán	5	Mayo	2023-05-19T00:00:00	2024-11-08T18:00:00	3	Temperatura mínima	21.5
124868	7	Sololá	713	San Lucas Tolimán	10	San Lucas Tolimán	5	Mayo	2023-05-19T00:00:00	2024-11-08T18:00:00	5	Humedad	58
124869	7	Sololá	713	San Lucas Tolimán	10	San Lucas Tolimán	5	Mayo	2023-05-19T00:00:00	2024-11-08T18:00:00	6	Velocidad del viento	8
124870	7	Sololá	713	San Lucas Tolimán	10	San Lucas Tolimán	5	Mayo	2023-05-19T00:00:00	2024-11-08T18:00:00	7	Dirección del viento	8.05
124871	7	Sololá	713	San Lucas Tolimán	10	San Lucas Tolimán	5	Mayo	2023-05-19T00:00:00	2024-11-08T18:00:00	1	Precipitación	0
124872	7	Sololá	713	San Lucas Tolimán	10	San Lucas Tolimán	5	Mayo	2023-05-19T00:00:00	2024-11-08T18:00:00	8	Radiación solar	55
124873	7	Sololá	713	San Lucas Tolimán	10	San Lucas Tolimán	5	Mayo	2023-05-19T00:00:00	2024-11-08T19:00:00	2	Temperatura media	20.4
124874	7	Sololá	713	San Lucas Tolimán	10	San Lucas Tolimán	5	Mayo	2023-05-19T00:00:00	2024-11-08T19:00:00	4	Temperatura máxima	22.3
124875	7	Sololá	713	San Lucas Tolimán	10	San Lucas Tolimán	5	Mayo	2023-05-19T00:00:00	2024-11-08T19:00:00	3	Temperatura mínima	20.4
124876	7	Sololá	713	San Lucas Tolimán	10	San Lucas Tolimán	5	Mayo	2023-05-19T00:00:00	2024-11-08T19:00:00	5	Humedad	60
124877	7	Sololá	713	San Lucas Tolimán	10	San Lucas Tolimán	5	Mayo	2023-05-19T00:00:00	2024-11-08T19:00:00	6	Velocidad del viento	6.4
124878	7	Sololá	713	San Lucas Tolimán	10	San Lucas Tolimán	5	Mayo	2023-05-19T00:00:00	2024-11-08T19:00:00	7	Dirección del viento	6.44
124879	7	Sololá	713	San Lucas Tolimán	10	San Lucas Tolimán	5	Mayo	2023-05-19T00:00:00	2024-11-08T19:00:00	1	Precipitación	0
124880	7	Sololá	713	San Lucas Tolimán	10	San Lucas Tolimán	5	Mayo	2023-05-19T00:00:00	2024-11-08T19:00:00	8	Radiación solar	0
124881	7	Sololá	713	San Lucas Tolimán	10	San Lucas Tolimán	5	Mayo	2023-05-19T00:00:00	2024-11-08T20:00:00	2	Temperatura media	19.4
124882	7	Sololá	713	San Lucas Tolimán	10	San Lucas Tolimán	5	Mayo	2023-05-19T00:00:00	2024-11-08T20:00:00	4	Temperatura máxima	20.4
124883	7	Sololá	713	San Lucas Tolimán	10	San Lucas Tolimán	5	Mayo	2023-05-19T00:00:00	2024-11-08T20:00:00	3	Temperatura mínima	19.4
124884	7	Sololá	713	San Lucas Tolimán	10	San Lucas Tolimán	5	Mayo	2023-05-19T00:00:00	2024-11-08T20:00:00	5	Humedad	60
124885	7	Sololá	713	San Lucas Tolimán	10	San Lucas Tolimán	5	Mayo	2023-05-19T00:00:00	2024-11-08T20:00:00	6	Velocidad del viento	8
124886	7	Sololá	713	San Lucas Tolimán	10	San Lucas Tolimán	5	Mayo	2023-05-19T00:00:00	2024-11-08T20:00:00	7	Dirección del viento	8.05
124887	7	Sololá	713	San Lucas Tolimán	10	San Lucas Tolimán	5	Mayo	2023-05-19T00:00:00	2024-11-08T20:00:00	1	Precipitación	0
124888	7	Sololá	713	San Lucas Tolimán	10	San Lucas Tolimán	5	Mayo	2023-05-19T00:00:00	2024-11-08T20:00:00	8	Radiación solar	0
124889	7	Sololá	713	San Lucas Tolimán	10	San Lucas Tolimán	5	Mayo	2023-05-19T00:00:00	2024-11-08T21:00:00	2	Temperatura media	19.2
124890	7	Sololá	713	San Lucas Tolimán	10	San Lucas Tolimán	5	Mayo	2023-05-19T00:00:00	2024-11-08T21:00:00	4	Temperatura máxima	19.4
124891	7	Sololá	713	San Lucas Tolimán	10	San Lucas Tolimán	5	Mayo	2023-05-19T00:00:00	2024-11-08T21:00:00	3	Temperatura mínima	19.1
124892	7	Sololá	713	San Lucas Tolimán	10	San Lucas Tolimán	5	Mayo	2023-05-19T00:00:00	2024-11-08T21:00:00	5	Humedad	57
124893	7	Sololá	713	San Lucas Tolimán	10	San Lucas Tolimán	5	Mayo	2023-05-19T00:00:00	2024-11-08T21:00:00	6	Velocidad del viento	6.4
124894	7	Sololá	713	San Lucas Tolimán	10	San Lucas Tolimán	5	Mayo	2023-05-19T00:00:00	2024-11-08T21:00:00	7	Dirección del viento	6.44
124895	7	Sololá	713	San Lucas Tolimán	10	San Lucas Tolimán	5	Mayo	2023-05-19T00:00:00	2024-11-08T21:00:00	1	Precipitación	0
124896	7	Sololá	713	San Lucas Tolimán	10	San Lucas Tolimán	5	Mayo	2023-05-19T00:00:00	2024-11-08T21:00:00	8	Radiación solar	0
124897	7	Sololá	713	San Lucas Tolimán	10	San Lucas Tolimán	5	Mayo	2023-05-19T00:00:00	2024-11-08T22:00:00	2	Temperatura media	21.3
124898	7	Sololá	713	San Lucas Tolimán	10	San Lucas Tolimán	5	Mayo	2023-05-19T00:00:00	2024-11-08T22:00:00	4	Temperatura máxima	21.3
124899	7	Sololá	713	San Lucas Tolimán	10	San Lucas Tolimán	5	Mayo	2023-05-19T00:00:00	2024-11-08T22:00:00	3	Temperatura mínima	18.9
124900	7	Sololá	713	San Lucas Tolimán	10	San Lucas Tolimán	5	Mayo	2023-05-19T00:00:00	2024-11-08T22:00:00	5	Humedad	52
124901	7	Sololá	713	San Lucas Tolimán	10	San Lucas Tolimán	5	Mayo	2023-05-19T00:00:00	2024-11-08T22:00:00	6	Velocidad del viento	4.8
124902	7	Sololá	713	San Lucas Tolimán	10	San Lucas Tolimán	5	Mayo	2023-05-19T00:00:00	2024-11-08T22:00:00	7	Dirección del viento	4.83
124903	7	Sololá	713	San Lucas Tolimán	10	San Lucas Tolimán	5	Mayo	2023-05-19T00:00:00	2024-11-08T22:00:00	1	Precipitación	0
124904	7	Sololá	713	San Lucas Tolimán	10	San Lucas Tolimán	5	Mayo	2023-05-19T00:00:00	2024-11-08T22:00:00	8	Radiación solar	0
124905	7	Sololá	713	San Lucas Tolimán	10	San Lucas Tolimán	5	Mayo	2023-05-19T00:00:00	2024-11-08T23:00:00	2	Temperatura media	20.5
124906	7	Sololá	713	San Lucas Tolimán	10	San Lucas Tolimán	5	Mayo	2023-05-19T00:00:00	2024-11-08T23:00:00	4	Temperatura máxima	21.7
124907	7	Sololá	713	San Lucas Tolimán	10	San Lucas Tolimán	5	Mayo	2023-05-19T00:00:00	2024-11-08T23:00:00	3	Temperatura mínima	20.5
124908	7	Sololá	713	San Lucas Tolimán	10	San Lucas Tolimán	5	Mayo	2023-05-19T00:00:00	2024-11-08T23:00:00	5	Humedad	56
124909	7	Sololá	713	San Lucas Tolimán	10	San Lucas Tolimán	5	Mayo	2023-05-19T00:00:00	2024-11-08T23:00:00	6	Velocidad del viento	4.8
124910	7	Sololá	713	San Lucas Tolimán	10	San Lucas Tolimán	5	Mayo	2023-05-19T00:00:00	2024-11-08T23:00:00	7	Dirección del viento	4.83
124911	7	Sololá	713	San Lucas Tolimán	10	San Lucas Tolimán	5	Mayo	2023-05-19T00:00:00	2024-11-08T23:00:00	1	Precipitación	0
124912	7	Sololá	713	San Lucas Tolimán	10	San Lucas Tolimán	5	Mayo	2023-05-19T00:00:00	2024-11-08T23:00:00	8	Radiación solar	0
124913	7	Sololá	713	San Lucas Tolimán	10	San Lucas Tolimán	5	Mayo	2023-05-20T00:00:00	2024-11-08T00:00:00	2	Temperatura media	20.3
124914	7	Sololá	713	San Lucas Tolimán	10	San Lucas Tolimán	5	Mayo	2023-05-20T00:00:00	2024-11-08T00:00:00	4	Temperatura máxima	20.5
124915	7	Sololá	713	San Lucas Tolimán	10	San Lucas Tolimán	5	Mayo	2023-05-20T00:00:00	2024-11-08T00:00:00	3	Temperatura mínima	19.7
124916	7	Sololá	713	San Lucas Tolimán	10	San Lucas Tolimán	5	Mayo	2023-05-20T00:00:00	2024-11-08T00:00:00	5	Humedad	57
124917	7	Sololá	713	San Lucas Tolimán	10	San Lucas Tolimán	5	Mayo	2023-05-20T00:00:00	2024-11-08T00:00:00	6	Velocidad del viento	1.6
124918	7	Sololá	713	San Lucas Tolimán	10	San Lucas Tolimán	5	Mayo	2023-05-20T00:00:00	2024-11-08T00:00:00	7	Dirección del viento	1.61
124919	7	Sololá	713	San Lucas Tolimán	10	San Lucas Tolimán	5	Mayo	2023-05-20T00:00:00	2024-11-08T00:00:00	1	Precipitación	0
124920	7	Sololá	713	San Lucas Tolimán	10	San Lucas Tolimán	5	Mayo	2023-05-20T00:00:00	2024-11-08T00:00:00	8	Radiación solar	0
124921	7	Sololá	713	San Lucas Tolimán	10	San Lucas Tolimán	5	Mayo	2023-05-20T00:00:00	2024-11-08T01:00:00	2	Temperatura media	18.8
124922	7	Sololá	713	San Lucas Tolimán	10	San Lucas Tolimán	5	Mayo	2023-05-20T00:00:00	2024-11-08T01:00:00	4	Temperatura máxima	20.3
124923	7	Sololá	713	San Lucas Tolimán	10	San Lucas Tolimán	5	Mayo	2023-05-20T00:00:00	2024-11-08T01:00:00	3	Temperatura mínima	18.7
124924	7	Sololá	713	San Lucas Tolimán	10	San Lucas Tolimán	5	Mayo	2023-05-20T00:00:00	2024-11-08T01:00:00	5	Humedad	61
124925	7	Sololá	713	San Lucas Tolimán	10	San Lucas Tolimán	5	Mayo	2023-05-20T00:00:00	2024-11-08T01:00:00	6	Velocidad del viento	1.6
124926	7	Sololá	713	San Lucas Tolimán	10	San Lucas Tolimán	5	Mayo	2023-05-20T00:00:00	2024-11-08T01:00:00	7	Dirección del viento	1.61
124927	7	Sololá	713	San Lucas Tolimán	10	San Lucas Tolimán	5	Mayo	2023-05-20T00:00:00	2024-11-08T01:00:00	1	Precipitación	0
124928	7	Sololá	713	San Lucas Tolimán	10	San Lucas Tolimán	5	Mayo	2023-05-20T00:00:00	2024-11-08T01:00:00	8	Radiación solar	0
124929	7	Sololá	713	San Lucas Tolimán	10	San Lucas Tolimán	5	Mayo	2023-05-20T00:00:00	2024-11-08T02:00:00	2	Temperatura media	19.1
124930	7	Sololá	713	San Lucas Tolimán	10	San Lucas Tolimán	5	Mayo	2023-05-20T00:00:00	2024-11-08T02:00:00	4	Temperatura máxima	19.1
124931	7	Sololá	713	San Lucas Tolimán	10	San Lucas Tolimán	5	Mayo	2023-05-20T00:00:00	2024-11-08T02:00:00	3	Temperatura mínima	17.8
124932	7	Sololá	713	San Lucas Tolimán	10	San Lucas Tolimán	5	Mayo	2023-05-20T00:00:00	2024-11-08T02:00:00	5	Humedad	58
124933	7	Sololá	713	San Lucas Tolimán	10	San Lucas Tolimán	5	Mayo	2023-05-20T00:00:00	2024-11-08T02:00:00	6	Velocidad del viento	1.6
124934	7	Sololá	713	San Lucas Tolimán	10	San Lucas Tolimán	5	Mayo	2023-05-20T00:00:00	2024-11-08T02:00:00	7	Dirección del viento	1.61
124935	7	Sololá	713	San Lucas Tolimán	10	San Lucas Tolimán	5	Mayo	2023-05-20T00:00:00	2024-11-08T02:00:00	1	Precipitación	0
124936	7	Sololá	713	San Lucas Tolimán	10	San Lucas Tolimán	5	Mayo	2023-05-20T00:00:00	2024-11-08T02:00:00	8	Radiación solar	0
124937	7	Sololá	713	San Lucas Tolimán	10	San Lucas Tolimán	5	Mayo	2023-05-20T00:00:00	2024-11-08T03:00:00	2	Temperatura media	17.8
124938	7	Sololá	713	San Lucas Tolimán	10	San Lucas Tolimán	5	Mayo	2023-05-20T00:00:00	2024-11-08T03:00:00	4	Temperatura máxima	19.1
124939	7	Sololá	713	San Lucas Tolimán	10	San Lucas Tolimán	5	Mayo	2023-05-20T00:00:00	2024-11-08T03:00:00	3	Temperatura mínima	17.8
124940	7	Sololá	713	San Lucas Tolimán	10	San Lucas Tolimán	5	Mayo	2023-05-20T00:00:00	2024-11-08T03:00:00	5	Humedad	60
124941	7	Sololá	713	San Lucas Tolimán	10	San Lucas Tolimán	5	Mayo	2023-05-20T00:00:00	2024-11-08T03:00:00	6	Velocidad del viento	1.6
124942	7	Sololá	713	San Lucas Tolimán	10	San Lucas Tolimán	5	Mayo	2023-05-20T00:00:00	2024-11-08T03:00:00	7	Dirección del viento	1.61
124943	7	Sololá	713	San Lucas Tolimán	10	San Lucas Tolimán	5	Mayo	2023-05-20T00:00:00	2024-11-08T03:00:00	1	Precipitación	0
124944	7	Sololá	713	San Lucas Tolimán	10	San Lucas Tolimán	5	Mayo	2023-05-20T00:00:00	2024-11-08T03:00:00	8	Radiación solar	0
124945	7	Sololá	713	San Lucas Tolimán	10	San Lucas Tolimán	5	Mayo	2023-05-20T00:00:00	2024-11-08T04:00:00	2	Temperatura media	18.2
124946	7	Sololá	713	San Lucas Tolimán	10	San Lucas Tolimán	5	Mayo	2023-05-20T00:00:00	2024-11-08T04:00:00	4	Temperatura máxima	18.2
124947	7	Sololá	713	San Lucas Tolimán	10	San Lucas Tolimán	5	Mayo	2023-05-20T00:00:00	2024-11-08T04:00:00	3	Temperatura mínima	17.7
124948	7	Sololá	713	San Lucas Tolimán	10	San Lucas Tolimán	5	Mayo	2023-05-20T00:00:00	2024-11-08T04:00:00	5	Humedad	60
124949	7	Sololá	713	San Lucas Tolimán	10	San Lucas Tolimán	5	Mayo	2023-05-20T00:00:00	2024-11-08T04:00:00	6	Velocidad del viento	1.6
124950	7	Sololá	713	San Lucas Tolimán	10	San Lucas Tolimán	5	Mayo	2023-05-20T00:00:00	2024-11-08T04:00:00	7	Dirección del viento	1.61
124951	7	Sololá	713	San Lucas Tolimán	10	San Lucas Tolimán	5	Mayo	2023-05-20T00:00:00	2024-11-08T04:00:00	1	Precipitación	0
124952	7	Sololá	713	San Lucas Tolimán	10	San Lucas Tolimán	5	Mayo	2023-05-20T00:00:00	2024-11-08T04:00:00	8	Radiación solar	0
124953	7	Sololá	713	San Lucas Tolimán	10	San Lucas Tolimán	5	Mayo	2023-05-20T00:00:00	2024-11-08T05:00:00	2	Temperatura media	18
124954	7	Sololá	713	San Lucas Tolimán	10	San Lucas Tolimán	5	Mayo	2023-05-20T00:00:00	2024-11-08T05:00:00	4	Temperatura máxima	19.2
124955	7	Sololá	713	San Lucas Tolimán	10	San Lucas Tolimán	5	Mayo	2023-05-20T00:00:00	2024-11-08T05:00:00	3	Temperatura mínima	18
124956	7	Sololá	713	San Lucas Tolimán	10	San Lucas Tolimán	5	Mayo	2023-05-20T00:00:00	2024-11-08T05:00:00	5	Humedad	60
124957	7	Sololá	713	San Lucas Tolimán	10	San Lucas Tolimán	5	Mayo	2023-05-20T00:00:00	2024-11-08T05:00:00	6	Velocidad del viento	1.6
124958	7	Sololá	713	San Lucas Tolimán	10	San Lucas Tolimán	5	Mayo	2023-05-20T00:00:00	2024-11-08T05:00:00	7	Dirección del viento	1.61
124959	7	Sololá	713	San Lucas Tolimán	10	San Lucas Tolimán	5	Mayo	2023-05-20T00:00:00	2024-11-08T05:00:00	1	Precipitación	0
124960	7	Sololá	713	San Lucas Tolimán	10	San Lucas Tolimán	5	Mayo	2023-05-20T00:00:00	2024-11-08T05:00:00	8	Radiación solar	0
124961	7	Sololá	713	San Lucas Tolimán	10	San Lucas Tolimán	5	Mayo	2023-05-20T00:00:00	2024-11-08T06:00:00	2	Temperatura media	18.5
124962	7	Sololá	713	San Lucas Tolimán	10	San Lucas Tolimán	5	Mayo	2023-05-20T00:00:00	2024-11-08T06:00:00	4	Temperatura máxima	18.9
124963	7	Sololá	713	San Lucas Tolimán	10	San Lucas Tolimán	5	Mayo	2023-05-20T00:00:00	2024-11-08T06:00:00	3	Temperatura mínima	17.7
124964	7	Sololá	713	San Lucas Tolimán	10	San Lucas Tolimán	5	Mayo	2023-05-20T00:00:00	2024-11-08T06:00:00	5	Humedad	55
124965	7	Sololá	713	San Lucas Tolimán	10	San Lucas Tolimán	5	Mayo	2023-05-20T00:00:00	2024-11-08T06:00:00	6	Velocidad del viento	3.2
124966	7	Sololá	713	San Lucas Tolimán	10	San Lucas Tolimán	5	Mayo	2023-05-20T00:00:00	2024-11-08T06:00:00	7	Dirección del viento	3.22
124967	7	Sololá	713	San Lucas Tolimán	10	San Lucas Tolimán	5	Mayo	2023-05-20T00:00:00	2024-11-08T06:00:00	1	Precipitación	0
124968	7	Sololá	713	San Lucas Tolimán	10	San Lucas Tolimán	5	Mayo	2023-05-20T00:00:00	2024-11-08T06:00:00	8	Radiación solar	7
124969	7	Sololá	713	San Lucas Tolimán	10	San Lucas Tolimán	5	Mayo	2023-05-20T00:00:00	2024-11-08T07:00:00	2	Temperatura media	19.2
124970	7	Sololá	713	San Lucas Tolimán	10	San Lucas Tolimán	5	Mayo	2023-05-20T00:00:00	2024-11-08T07:00:00	4	Temperatura máxima	19.2
124971	7	Sololá	713	San Lucas Tolimán	10	San Lucas Tolimán	5	Mayo	2023-05-20T00:00:00	2024-11-08T07:00:00	3	Temperatura mínima	18.3
124972	7	Sololá	713	San Lucas Tolimán	10	San Lucas Tolimán	5	Mayo	2023-05-20T00:00:00	2024-11-08T07:00:00	5	Humedad	56
124973	7	Sololá	713	San Lucas Tolimán	10	San Lucas Tolimán	5	Mayo	2023-05-20T00:00:00	2024-11-08T07:00:00	6	Velocidad del viento	4.8
124974	7	Sololá	713	San Lucas Tolimán	10	San Lucas Tolimán	5	Mayo	2023-05-20T00:00:00	2024-11-08T07:00:00	7	Dirección del viento	4.83
124975	7	Sololá	713	San Lucas Tolimán	10	San Lucas Tolimán	5	Mayo	2023-05-20T00:00:00	2024-11-08T07:00:00	1	Precipitación	0
124976	7	Sololá	713	San Lucas Tolimán	10	San Lucas Tolimán	5	Mayo	2023-05-20T00:00:00	2024-11-08T07:00:00	8	Radiación solar	115
124977	7	Sololá	713	San Lucas Tolimán	10	San Lucas Tolimán	5	Mayo	2023-05-20T00:00:00	2024-11-08T08:00:00	2	Temperatura media	22.3
124978	7	Sololá	713	San Lucas Tolimán	10	San Lucas Tolimán	5	Mayo	2023-05-20T00:00:00	2024-11-08T08:00:00	4	Temperatura máxima	22.5
124979	7	Sololá	713	San Lucas Tolimán	10	San Lucas Tolimán	5	Mayo	2023-05-20T00:00:00	2024-11-08T08:00:00	3	Temperatura mínima	19.2
124980	7	Sololá	713	San Lucas Tolimán	10	San Lucas Tolimán	5	Mayo	2023-05-20T00:00:00	2024-11-08T08:00:00	5	Humedad	45
124981	7	Sololá	713	San Lucas Tolimán	10	San Lucas Tolimán	5	Mayo	2023-05-20T00:00:00	2024-11-08T08:00:00	6	Velocidad del viento	3.2
124982	7	Sololá	713	San Lucas Tolimán	10	San Lucas Tolimán	5	Mayo	2023-05-20T00:00:00	2024-11-08T08:00:00	7	Dirección del viento	3.22
124983	7	Sololá	713	San Lucas Tolimán	10	San Lucas Tolimán	5	Mayo	2023-05-20T00:00:00	2024-11-08T08:00:00	1	Precipitación	0
124984	7	Sololá	713	San Lucas Tolimán	10	San Lucas Tolimán	5	Mayo	2023-05-20T00:00:00	2024-11-08T08:00:00	8	Radiación solar	354
124985	7	Sololá	713	San Lucas Tolimán	10	San Lucas Tolimán	5	Mayo	2023-05-20T00:00:00	2024-11-08T09:00:00	2	Temperatura media	25.1
124986	7	Sololá	713	San Lucas Tolimán	10	San Lucas Tolimán	5	Mayo	2023-05-20T00:00:00	2024-11-08T09:00:00	4	Temperatura máxima	25.1
124987	7	Sololá	713	San Lucas Tolimán	10	San Lucas Tolimán	5	Mayo	2023-05-20T00:00:00	2024-11-08T09:00:00	3	Temperatura mínima	22.3
124988	7	Sololá	713	San Lucas Tolimán	10	San Lucas Tolimán	5	Mayo	2023-05-20T00:00:00	2024-11-08T09:00:00	5	Humedad	36
124989	7	Sololá	713	San Lucas Tolimán	10	San Lucas Tolimán	5	Mayo	2023-05-20T00:00:00	2024-11-08T09:00:00	6	Velocidad del viento	3.2
124990	7	Sololá	713	San Lucas Tolimán	10	San Lucas Tolimán	5	Mayo	2023-05-20T00:00:00	2024-11-08T09:00:00	7	Dirección del viento	3.22
124991	7	Sololá	713	San Lucas Tolimán	10	San Lucas Tolimán	5	Mayo	2023-05-20T00:00:00	2024-11-08T09:00:00	1	Precipitación	0
124992	7	Sololá	713	San Lucas Tolimán	10	San Lucas Tolimán	5	Mayo	2023-05-20T00:00:00	2024-11-08T09:00:00	8	Radiación solar	605
124993	7	Sololá	713	San Lucas Tolimán	10	San Lucas Tolimán	5	Mayo	2023-05-20T00:00:00	2024-11-08T10:00:00	2	Temperatura media	26
124994	7	Sololá	713	San Lucas Tolimán	10	San Lucas Tolimán	5	Mayo	2023-05-20T00:00:00	2024-11-08T10:00:00	4	Temperatura máxima	26.1
124995	7	Sololá	713	San Lucas Tolimán	10	San Lucas Tolimán	5	Mayo	2023-05-20T00:00:00	2024-11-08T10:00:00	3	Temperatura mínima	24.8
124996	7	Sololá	713	San Lucas Tolimán	10	San Lucas Tolimán	5	Mayo	2023-05-20T00:00:00	2024-11-08T10:00:00	5	Humedad	32
124997	7	Sololá	713	San Lucas Tolimán	10	San Lucas Tolimán	5	Mayo	2023-05-20T00:00:00	2024-11-08T10:00:00	6	Velocidad del viento	8
124998	7	Sololá	713	San Lucas Tolimán	10	San Lucas Tolimán	5	Mayo	2023-05-20T00:00:00	2024-11-08T10:00:00	7	Dirección del viento	8.05
124999	7	Sololá	713	San Lucas Tolimán	10	San Lucas Tolimán	5	Mayo	2023-05-20T00:00:00	2024-11-08T10:00:00	1	Precipitación	0
125000	7	Sololá	713	San Lucas Tolimán	10	San Lucas Tolimán	5	Mayo	2023-05-20T00:00:00	2024-11-08T10:00:00	8	Radiación solar	827
125001	7	Sololá	713	San Lucas Tolimán	10	San Lucas Tolimán	5	Mayo	2023-05-20T00:00:00	2024-11-08T11:00:00	2	Temperatura media	26.7
125002	7	Sololá	713	San Lucas Tolimán	10	San Lucas Tolimán	5	Mayo	2023-05-20T00:00:00	2024-11-08T11:00:00	4	Temperatura máxima	27.1
125003	7	Sololá	713	San Lucas Tolimán	10	San Lucas Tolimán	5	Mayo	2023-05-20T00:00:00	2024-11-08T11:00:00	3	Temperatura mínima	26
125004	7	Sololá	713	San Lucas Tolimán	10	San Lucas Tolimán	5	Mayo	2023-05-20T00:00:00	2024-11-08T11:00:00	5	Humedad	43
125005	7	Sololá	713	San Lucas Tolimán	10	San Lucas Tolimán	5	Mayo	2023-05-20T00:00:00	2024-11-08T11:00:00	6	Velocidad del viento	6.4
125006	7	Sololá	713	San Lucas Tolimán	10	San Lucas Tolimán	5	Mayo	2023-05-20T00:00:00	2024-11-08T11:00:00	7	Dirección del viento	6.44
125007	7	Sololá	713	San Lucas Tolimán	10	San Lucas Tolimán	5	Mayo	2023-05-20T00:00:00	2024-11-08T11:00:00	1	Precipitación	0
125008	7	Sololá	713	San Lucas Tolimán	10	San Lucas Tolimán	5	Mayo	2023-05-20T00:00:00	2024-11-08T11:00:00	8	Radiación solar	913
125009	7	Sololá	713	San Lucas Tolimán	10	San Lucas Tolimán	5	Mayo	2023-05-20T00:00:00	2024-11-08T12:00:00	2	Temperatura media	25.9
125010	7	Sololá	713	San Lucas Tolimán	10	San Lucas Tolimán	5	Mayo	2023-05-20T00:00:00	2024-11-08T12:00:00	4	Temperatura máxima	27
125011	7	Sololá	713	San Lucas Tolimán	10	San Lucas Tolimán	5	Mayo	2023-05-20T00:00:00	2024-11-08T12:00:00	3	Temperatura mínima	25.9
125012	7	Sololá	713	San Lucas Tolimán	10	San Lucas Tolimán	5	Mayo	2023-05-20T00:00:00	2024-11-08T12:00:00	5	Humedad	50
125013	7	Sololá	713	San Lucas Tolimán	10	San Lucas Tolimán	5	Mayo	2023-05-20T00:00:00	2024-11-08T12:00:00	6	Velocidad del viento	8
125014	7	Sololá	713	San Lucas Tolimán	10	San Lucas Tolimán	5	Mayo	2023-05-20T00:00:00	2024-11-08T12:00:00	7	Dirección del viento	8.05
125015	7	Sololá	713	San Lucas Tolimán	10	San Lucas Tolimán	5	Mayo	2023-05-20T00:00:00	2024-11-08T12:00:00	1	Precipitación	0
125016	7	Sololá	713	San Lucas Tolimán	10	San Lucas Tolimán	5	Mayo	2023-05-20T00:00:00	2024-11-08T12:00:00	8	Radiación solar	1020
125017	7	Sololá	713	San Lucas Tolimán	10	San Lucas Tolimán	5	Mayo	2023-05-20T00:00:00	2024-11-08T13:00:00	2	Temperatura media	25.7
125018	7	Sololá	713	San Lucas Tolimán	10	San Lucas Tolimán	5	Mayo	2023-05-20T00:00:00	2024-11-08T13:00:00	4	Temperatura máxima	26.6
125019	7	Sololá	713	San Lucas Tolimán	10	San Lucas Tolimán	5	Mayo	2023-05-20T00:00:00	2024-11-08T13:00:00	3	Temperatura mínima	25.7
125020	7	Sololá	713	San Lucas Tolimán	10	San Lucas Tolimán	5	Mayo	2023-05-20T00:00:00	2024-11-08T13:00:00	5	Humedad	54
125021	7	Sololá	713	San Lucas Tolimán	10	San Lucas Tolimán	5	Mayo	2023-05-20T00:00:00	2024-11-08T13:00:00	6	Velocidad del viento	9.7
125022	7	Sololá	713	San Lucas Tolimán	10	San Lucas Tolimán	5	Mayo	2023-05-20T00:00:00	2024-11-08T13:00:00	7	Dirección del viento	9.66
125023	7	Sololá	713	San Lucas Tolimán	10	San Lucas Tolimán	5	Mayo	2023-05-20T00:00:00	2024-11-08T13:00:00	1	Precipitación	0
125024	7	Sololá	713	San Lucas Tolimán	10	San Lucas Tolimán	5	Mayo	2023-05-20T00:00:00	2024-11-08T13:00:00	8	Radiación solar	1083
125025	7	Sololá	713	San Lucas Tolimán	10	San Lucas Tolimán	5	Mayo	2023-05-20T00:00:00	2024-11-08T14:00:00	2	Temperatura media	25.9
125026	7	Sololá	713	San Lucas Tolimán	10	San Lucas Tolimán	5	Mayo	2023-05-20T00:00:00	2024-11-08T14:00:00	4	Temperatura máxima	26.5
125027	7	Sololá	713	San Lucas Tolimán	10	San Lucas Tolimán	5	Mayo	2023-05-20T00:00:00	2024-11-08T14:00:00	3	Temperatura mínima	25.4
125028	7	Sololá	713	San Lucas Tolimán	10	San Lucas Tolimán	5	Mayo	2023-05-20T00:00:00	2024-11-08T14:00:00	5	Humedad	53
125029	7	Sololá	713	San Lucas Tolimán	10	San Lucas Tolimán	5	Mayo	2023-05-20T00:00:00	2024-11-08T14:00:00	6	Velocidad del viento	11.3
125030	7	Sololá	713	San Lucas Tolimán	10	San Lucas Tolimán	5	Mayo	2023-05-20T00:00:00	2024-11-08T14:00:00	7	Dirección del viento	11.27
125031	7	Sololá	713	San Lucas Tolimán	10	San Lucas Tolimán	5	Mayo	2023-05-20T00:00:00	2024-11-08T14:00:00	1	Precipitación	0
125032	7	Sololá	713	San Lucas Tolimán	10	San Lucas Tolimán	5	Mayo	2023-05-20T00:00:00	2024-11-08T14:00:00	8	Radiación solar	1039
125033	7	Sololá	713	San Lucas Tolimán	10	San Lucas Tolimán	5	Mayo	2023-05-20T00:00:00	2024-11-08T15:00:00	2	Temperatura media	25
125034	7	Sololá	713	San Lucas Tolimán	10	San Lucas Tolimán	5	Mayo	2023-05-20T00:00:00	2024-11-08T15:00:00	4	Temperatura máxima	26.1
125035	7	Sololá	713	San Lucas Tolimán	10	San Lucas Tolimán	5	Mayo	2023-05-20T00:00:00	2024-11-08T15:00:00	3	Temperatura mínima	24.9
125036	7	Sololá	713	San Lucas Tolimán	10	San Lucas Tolimán	5	Mayo	2023-05-20T00:00:00	2024-11-08T15:00:00	5	Humedad	54
125037	7	Sololá	713	San Lucas Tolimán	10	San Lucas Tolimán	5	Mayo	2023-05-20T00:00:00	2024-11-08T15:00:00	6	Velocidad del viento	11.3
125038	7	Sololá	713	San Lucas Tolimán	10	San Lucas Tolimán	5	Mayo	2023-05-20T00:00:00	2024-11-08T15:00:00	7	Dirección del viento	11.27
125039	7	Sololá	713	San Lucas Tolimán	10	San Lucas Tolimán	5	Mayo	2023-05-20T00:00:00	2024-11-08T15:00:00	1	Precipitación	0
125040	7	Sololá	713	San Lucas Tolimán	10	San Lucas Tolimán	5	Mayo	2023-05-20T00:00:00	2024-11-08T15:00:00	8	Radiación solar	724
125041	7	Sololá	713	San Lucas Tolimán	10	San Lucas Tolimán	5	Mayo	2023-05-20T00:00:00	2024-11-08T16:00:00	2	Temperatura media	24
125042	7	Sololá	713	San Lucas Tolimán	10	San Lucas Tolimán	5	Mayo	2023-05-20T00:00:00	2024-11-08T16:00:00	4	Temperatura máxima	25.2
125043	7	Sololá	713	San Lucas Tolimán	10	San Lucas Tolimán	5	Mayo	2023-05-20T00:00:00	2024-11-08T16:00:00	3	Temperatura mínima	23.9
125044	7	Sololá	713	San Lucas Tolimán	10	San Lucas Tolimán	5	Mayo	2023-05-20T00:00:00	2024-11-08T16:00:00	5	Humedad	57
125045	7	Sololá	713	San Lucas Tolimán	10	San Lucas Tolimán	5	Mayo	2023-05-20T00:00:00	2024-11-08T16:00:00	6	Velocidad del viento	9.7
125046	7	Sololá	713	San Lucas Tolimán	10	San Lucas Tolimán	5	Mayo	2023-05-20T00:00:00	2024-11-08T16:00:00	7	Dirección del viento	9.66
125047	7	Sololá	713	San Lucas Tolimán	10	San Lucas Tolimán	5	Mayo	2023-05-20T00:00:00	2024-11-08T16:00:00	1	Precipitación	0
125048	7	Sololá	713	San Lucas Tolimán	10	San Lucas Tolimán	5	Mayo	2023-05-20T00:00:00	2024-11-08T16:00:00	8	Radiación solar	462
125049	7	Sololá	713	San Lucas Tolimán	10	San Lucas Tolimán	5	Mayo	2023-05-20T00:00:00	2024-11-08T17:00:00	2	Temperatura media	23.8
125050	7	Sololá	713	San Lucas Tolimán	10	San Lucas Tolimán	5	Mayo	2023-05-20T00:00:00	2024-11-08T17:00:00	4	Temperatura máxima	24.1
125051	7	Sololá	713	San Lucas Tolimán	10	San Lucas Tolimán	5	Mayo	2023-05-20T00:00:00	2024-11-08T17:00:00	3	Temperatura mínima	23.6
125052	7	Sololá	713	San Lucas Tolimán	10	San Lucas Tolimán	5	Mayo	2023-05-20T00:00:00	2024-11-08T17:00:00	5	Humedad	61
125053	7	Sololá	713	San Lucas Tolimán	10	San Lucas Tolimán	5	Mayo	2023-05-20T00:00:00	2024-11-08T17:00:00	6	Velocidad del viento	11.3
125054	7	Sololá	713	San Lucas Tolimán	10	San Lucas Tolimán	5	Mayo	2023-05-20T00:00:00	2024-11-08T17:00:00	7	Dirección del viento	11.27
125055	7	Sololá	713	San Lucas Tolimán	10	San Lucas Tolimán	5	Mayo	2023-05-20T00:00:00	2024-11-08T17:00:00	1	Precipitación	0
125056	7	Sololá	713	San Lucas Tolimán	10	San Lucas Tolimán	5	Mayo	2023-05-20T00:00:00	2024-11-08T17:00:00	8	Radiación solar	371
125057	7	Sololá	713	San Lucas Tolimán	10	San Lucas Tolimán	5	Mayo	2023-05-20T00:00:00	2024-11-08T18:00:00	2	Temperatura media	21.7
125058	7	Sololá	713	San Lucas Tolimán	10	San Lucas Tolimán	5	Mayo	2023-05-20T00:00:00	2024-11-08T18:00:00	4	Temperatura máxima	23.8
125059	7	Sololá	713	San Lucas Tolimán	10	San Lucas Tolimán	5	Mayo	2023-05-20T00:00:00	2024-11-08T18:00:00	3	Temperatura mínima	21.7
125060	7	Sololá	713	San Lucas Tolimán	10	San Lucas Tolimán	5	Mayo	2023-05-20T00:00:00	2024-11-08T18:00:00	5	Humedad	60
125061	7	Sololá	713	San Lucas Tolimán	10	San Lucas Tolimán	5	Mayo	2023-05-20T00:00:00	2024-11-08T18:00:00	6	Velocidad del viento	9.7
125062	7	Sololá	713	San Lucas Tolimán	10	San Lucas Tolimán	5	Mayo	2023-05-20T00:00:00	2024-11-08T18:00:00	7	Dirección del viento	9.66
125063	7	Sololá	713	San Lucas Tolimán	10	San Lucas Tolimán	5	Mayo	2023-05-20T00:00:00	2024-11-08T18:00:00	1	Precipitación	0
125064	7	Sololá	713	San Lucas Tolimán	10	San Lucas Tolimán	5	Mayo	2023-05-20T00:00:00	2024-11-08T18:00:00	8	Radiación solar	114
125065	7	Sololá	713	San Lucas Tolimán	10	San Lucas Tolimán	5	Mayo	2023-05-20T00:00:00	2024-11-08T19:00:00	2	Temperatura media	21.1
125066	7	Sololá	713	San Lucas Tolimán	10	San Lucas Tolimán	5	Mayo	2023-05-20T00:00:00	2024-11-08T19:00:00	4	Temperatura máxima	21.8
125067	7	Sololá	713	San Lucas Tolimán	10	San Lucas Tolimán	5	Mayo	2023-05-20T00:00:00	2024-11-08T19:00:00	3	Temperatura mínima	21.1
125068	7	Sololá	713	San Lucas Tolimán	10	San Lucas Tolimán	5	Mayo	2023-05-20T00:00:00	2024-11-08T19:00:00	5	Humedad	61
125069	7	Sololá	713	San Lucas Tolimán	10	San Lucas Tolimán	5	Mayo	2023-05-20T00:00:00	2024-11-08T19:00:00	6	Velocidad del viento	6.4
125070	7	Sololá	713	San Lucas Tolimán	10	San Lucas Tolimán	5	Mayo	2023-05-20T00:00:00	2024-11-08T19:00:00	7	Dirección del viento	6.44
125071	7	Sololá	713	San Lucas Tolimán	10	San Lucas Tolimán	5	Mayo	2023-05-20T00:00:00	2024-11-08T19:00:00	1	Precipitación	0
125072	7	Sololá	713	San Lucas Tolimán	10	San Lucas Tolimán	5	Mayo	2023-05-20T00:00:00	2024-11-08T19:00:00	8	Radiación solar	0
125073	7	Sololá	713	San Lucas Tolimán	10	San Lucas Tolimán	5	Mayo	2023-05-20T00:00:00	2024-11-08T20:00:00	2	Temperatura media	20.7
125074	7	Sololá	713	San Lucas Tolimán	10	San Lucas Tolimán	5	Mayo	2023-05-20T00:00:00	2024-11-08T20:00:00	4	Temperatura máxima	21.2
125075	7	Sololá	713	San Lucas Tolimán	10	San Lucas Tolimán	5	Mayo	2023-05-20T00:00:00	2024-11-08T20:00:00	3	Temperatura mínima	20.6
125076	7	Sololá	713	San Lucas Tolimán	10	San Lucas Tolimán	5	Mayo	2023-05-20T00:00:00	2024-11-08T20:00:00	5	Humedad	56
125077	7	Sololá	713	San Lucas Tolimán	10	San Lucas Tolimán	5	Mayo	2023-05-20T00:00:00	2024-11-08T20:00:00	6	Velocidad del viento	4.8
125078	7	Sololá	713	San Lucas Tolimán	10	San Lucas Tolimán	5	Mayo	2023-05-20T00:00:00	2024-11-08T20:00:00	7	Dirección del viento	4.83
125079	7	Sololá	713	San Lucas Tolimán	10	San Lucas Tolimán	5	Mayo	2023-05-20T00:00:00	2024-11-08T20:00:00	1	Precipitación	0
125080	7	Sololá	713	San Lucas Tolimán	10	San Lucas Tolimán	5	Mayo	2023-05-20T00:00:00	2024-11-08T20:00:00	8	Radiación solar	0
125081	7	Sololá	713	San Lucas Tolimán	10	San Lucas Tolimán	5	Mayo	2023-05-20T00:00:00	2024-11-08T21:00:00	2	Temperatura media	20.3
125082	7	Sololá	713	San Lucas Tolimán	10	San Lucas Tolimán	5	Mayo	2023-05-20T00:00:00	2024-11-08T21:00:00	4	Temperatura máxima	21.6
125083	7	Sololá	713	San Lucas Tolimán	10	San Lucas Tolimán	5	Mayo	2023-05-20T00:00:00	2024-11-08T21:00:00	3	Temperatura mínima	20.3
125084	7	Sololá	713	San Lucas Tolimán	10	San Lucas Tolimán	5	Mayo	2023-05-20T00:00:00	2024-11-08T21:00:00	5	Humedad	60
125085	7	Sololá	713	San Lucas Tolimán	10	San Lucas Tolimán	5	Mayo	2023-05-20T00:00:00	2024-11-08T21:00:00	6	Velocidad del viento	3.2
125086	7	Sololá	713	San Lucas Tolimán	10	San Lucas Tolimán	5	Mayo	2023-05-20T00:00:00	2024-11-08T21:00:00	7	Dirección del viento	3.22
125087	7	Sololá	713	San Lucas Tolimán	10	San Lucas Tolimán	5	Mayo	2023-05-20T00:00:00	2024-11-08T21:00:00	1	Precipitación	0
125088	7	Sololá	713	San Lucas Tolimán	10	San Lucas Tolimán	5	Mayo	2023-05-20T00:00:00	2024-11-08T21:00:00	8	Radiación solar	0
125089	7	Sololá	713	San Lucas Tolimán	10	San Lucas Tolimán	5	Mayo	2023-05-20T00:00:00	2024-11-08T22:00:00	2	Temperatura media	19.4
125090	7	Sololá	713	San Lucas Tolimán	10	San Lucas Tolimán	5	Mayo	2023-05-20T00:00:00	2024-11-08T22:00:00	4	Temperatura máxima	20.3
125091	7	Sololá	713	San Lucas Tolimán	10	San Lucas Tolimán	5	Mayo	2023-05-20T00:00:00	2024-11-08T22:00:00	3	Temperatura mínima	19.4
125092	7	Sololá	713	San Lucas Tolimán	10	San Lucas Tolimán	5	Mayo	2023-05-20T00:00:00	2024-11-08T22:00:00	5	Humedad	58
125093	7	Sololá	713	San Lucas Tolimán	10	San Lucas Tolimán	5	Mayo	2023-05-20T00:00:00	2024-11-08T22:00:00	6	Velocidad del viento	1.6
125094	7	Sololá	713	San Lucas Tolimán	10	San Lucas Tolimán	5	Mayo	2023-05-20T00:00:00	2024-11-08T22:00:00	7	Dirección del viento	1.61
125095	7	Sololá	713	San Lucas Tolimán	10	San Lucas Tolimán	5	Mayo	2023-05-20T00:00:00	2024-11-08T22:00:00	1	Precipitación	0
125096	7	Sololá	713	San Lucas Tolimán	10	San Lucas Tolimán	5	Mayo	2023-05-20T00:00:00	2024-11-08T22:00:00	8	Radiación solar	0
125097	7	Sololá	713	San Lucas Tolimán	10	San Lucas Tolimán	5	Mayo	2023-05-20T00:00:00	2024-11-08T23:00:00	2	Temperatura media	18.8
125098	7	Sololá	713	San Lucas Tolimán	10	San Lucas Tolimán	5	Mayo	2023-05-20T00:00:00	2024-11-08T23:00:00	4	Temperatura máxima	20.1
125099	7	Sololá	713	San Lucas Tolimán	10	San Lucas Tolimán	5	Mayo	2023-05-20T00:00:00	2024-11-08T23:00:00	3	Temperatura mínima	18.8
125100	7	Sololá	713	San Lucas Tolimán	10	San Lucas Tolimán	5	Mayo	2023-05-20T00:00:00	2024-11-08T23:00:00	5	Humedad	58
125101	7	Sololá	713	San Lucas Tolimán	10	San Lucas Tolimán	5	Mayo	2023-05-20T00:00:00	2024-11-08T23:00:00	6	Velocidad del viento	1.6
125102	7	Sololá	713	San Lucas Tolimán	10	San Lucas Tolimán	5	Mayo	2023-05-20T00:00:00	2024-11-08T23:00:00	7	Dirección del viento	1.61
125103	7	Sololá	713	San Lucas Tolimán	10	San Lucas Tolimán	5	Mayo	2023-05-20T00:00:00	2024-11-08T23:00:00	1	Precipitación	0
125104	7	Sololá	713	San Lucas Tolimán	10	San Lucas Tolimán	5	Mayo	2023-05-20T00:00:00	2024-11-08T23:00:00	8	Radiación solar	0
125105	7	Sololá	713	San Lucas Tolimán	10	San Lucas Tolimán	5	Mayo	2023-05-21T00:00:00	2024-11-08T00:00:00	2	Temperatura media	19.4
125106	7	Sololá	713	San Lucas Tolimán	10	San Lucas Tolimán	5	Mayo	2023-05-21T00:00:00	2024-11-08T00:00:00	4	Temperatura máxima	19.5
125107	7	Sololá	713	San Lucas Tolimán	10	San Lucas Tolimán	5	Mayo	2023-05-21T00:00:00	2024-11-08T00:00:00	3	Temperatura mínima	18.8
125108	7	Sololá	713	San Lucas Tolimán	10	San Lucas Tolimán	5	Mayo	2023-05-21T00:00:00	2024-11-08T00:00:00	5	Humedad	55
125109	7	Sololá	713	San Lucas Tolimán	10	San Lucas Tolimán	5	Mayo	2023-05-21T00:00:00	2024-11-08T00:00:00	6	Velocidad del viento	3.2
125110	7	Sololá	713	San Lucas Tolimán	10	San Lucas Tolimán	5	Mayo	2023-05-21T00:00:00	2024-11-08T00:00:00	7	Dirección del viento	3.22
125111	7	Sololá	713	San Lucas Tolimán	10	San Lucas Tolimán	5	Mayo	2023-05-21T00:00:00	2024-11-08T00:00:00	1	Precipitación	0
125112	7	Sololá	713	San Lucas Tolimán	10	San Lucas Tolimán	5	Mayo	2023-05-21T00:00:00	2024-11-08T00:00:00	8	Radiación solar	0
125113	7	Sololá	713	San Lucas Tolimán	10	San Lucas Tolimán	5	Mayo	2023-05-21T00:00:00	2024-11-08T01:00:00	2	Temperatura media	19.5
125114	7	Sololá	713	San Lucas Tolimán	10	San Lucas Tolimán	5	Mayo	2023-05-21T00:00:00	2024-11-08T01:00:00	4	Temperatura máxima	19.6
125115	7	Sololá	713	San Lucas Tolimán	10	San Lucas Tolimán	5	Mayo	2023-05-21T00:00:00	2024-11-08T01:00:00	3	Temperatura mínima	19
125116	7	Sololá	713	San Lucas Tolimán	10	San Lucas Tolimán	5	Mayo	2023-05-21T00:00:00	2024-11-08T01:00:00	5	Humedad	55
125117	7	Sololá	713	San Lucas Tolimán	10	San Lucas Tolimán	5	Mayo	2023-05-21T00:00:00	2024-11-08T01:00:00	6	Velocidad del viento	6.4
125118	7	Sololá	713	San Lucas Tolimán	10	San Lucas Tolimán	5	Mayo	2023-05-21T00:00:00	2024-11-08T01:00:00	7	Dirección del viento	6.44
125119	7	Sololá	713	San Lucas Tolimán	10	San Lucas Tolimán	5	Mayo	2023-05-21T00:00:00	2024-11-08T01:00:00	1	Precipitación	0
125120	7	Sololá	713	San Lucas Tolimán	10	San Lucas Tolimán	5	Mayo	2023-05-21T00:00:00	2024-11-08T01:00:00	8	Radiación solar	0
125121	7	Sololá	713	San Lucas Tolimán	10	San Lucas Tolimán	5	Mayo	2023-05-21T00:00:00	2024-11-08T02:00:00	2	Temperatura media	19.1
125122	7	Sololá	713	San Lucas Tolimán	10	San Lucas Tolimán	5	Mayo	2023-05-21T00:00:00	2024-11-08T02:00:00	4	Temperatura máxima	19.6
125123	7	Sololá	713	San Lucas Tolimán	10	San Lucas Tolimán	5	Mayo	2023-05-21T00:00:00	2024-11-08T02:00:00	3	Temperatura mínima	19.1
125124	7	Sololá	713	San Lucas Tolimán	10	San Lucas Tolimán	5	Mayo	2023-05-21T00:00:00	2024-11-08T02:00:00	5	Humedad	57
125125	7	Sololá	713	San Lucas Tolimán	10	San Lucas Tolimán	5	Mayo	2023-05-21T00:00:00	2024-11-08T02:00:00	6	Velocidad del viento	4.8
125126	7	Sololá	713	San Lucas Tolimán	10	San Lucas Tolimán	5	Mayo	2023-05-21T00:00:00	2024-11-08T02:00:00	7	Dirección del viento	4.83
125127	7	Sololá	713	San Lucas Tolimán	10	San Lucas Tolimán	5	Mayo	2023-05-21T00:00:00	2024-11-08T02:00:00	1	Precipitación	0
125128	7	Sololá	713	San Lucas Tolimán	10	San Lucas Tolimán	5	Mayo	2023-05-21T00:00:00	2024-11-08T02:00:00	8	Radiación solar	0
125129	7	Sololá	713	San Lucas Tolimán	10	San Lucas Tolimán	5	Mayo	2023-05-21T00:00:00	2024-11-08T03:00:00	2	Temperatura media	18.8
125130	7	Sololá	713	San Lucas Tolimán	10	San Lucas Tolimán	5	Mayo	2023-05-21T00:00:00	2024-11-08T03:00:00	4	Temperatura máxima	19.1
125131	7	Sololá	713	San Lucas Tolimán	10	San Lucas Tolimán	5	Mayo	2023-05-21T00:00:00	2024-11-08T03:00:00	3	Temperatura mínima	18.7
125132	7	Sololá	713	San Lucas Tolimán	10	San Lucas Tolimán	5	Mayo	2023-05-21T00:00:00	2024-11-08T03:00:00	5	Humedad	57
125133	7	Sololá	713	San Lucas Tolimán	10	San Lucas Tolimán	5	Mayo	2023-05-21T00:00:00	2024-11-08T03:00:00	6	Velocidad del viento	3.2
125134	7	Sololá	713	San Lucas Tolimán	10	San Lucas Tolimán	5	Mayo	2023-05-21T00:00:00	2024-11-08T03:00:00	7	Dirección del viento	3.22
125135	7	Sololá	713	San Lucas Tolimán	10	San Lucas Tolimán	5	Mayo	2023-05-21T00:00:00	2024-11-08T03:00:00	1	Precipitación	0
125136	7	Sololá	713	San Lucas Tolimán	10	San Lucas Tolimán	5	Mayo	2023-05-21T00:00:00	2024-11-08T03:00:00	8	Radiación solar	0
125137	7	Sololá	713	San Lucas Tolimán	10	San Lucas Tolimán	5	Mayo	2023-05-21T00:00:00	2024-11-08T04:00:00	2	Temperatura media	18.6
125138	7	Sololá	713	San Lucas Tolimán	10	San Lucas Tolimán	5	Mayo	2023-05-21T00:00:00	2024-11-08T04:00:00	4	Temperatura máxima	18.8
125139	7	Sololá	713	San Lucas Tolimán	10	San Lucas Tolimán	5	Mayo	2023-05-21T00:00:00	2024-11-08T04:00:00	3	Temperatura mínima	18.6
125140	7	Sololá	713	San Lucas Tolimán	10	San Lucas Tolimán	5	Mayo	2023-05-21T00:00:00	2024-11-08T04:00:00	5	Humedad	58
125141	7	Sololá	713	San Lucas Tolimán	10	San Lucas Tolimán	5	Mayo	2023-05-21T00:00:00	2024-11-08T04:00:00	6	Velocidad del viento	0
125142	7	Sololá	713	San Lucas Tolimán	10	San Lucas Tolimán	5	Mayo	2023-05-21T00:00:00	2024-11-08T04:00:00	7	Dirección del viento	0
125143	7	Sololá	713	San Lucas Tolimán	10	San Lucas Tolimán	5	Mayo	2023-05-21T00:00:00	2024-11-08T04:00:00	1	Precipitación	0
125144	7	Sololá	713	San Lucas Tolimán	10	San Lucas Tolimán	5	Mayo	2023-05-21T00:00:00	2024-11-08T04:00:00	8	Radiación solar	0
125145	7	Sololá	713	San Lucas Tolimán	10	San Lucas Tolimán	5	Mayo	2023-05-21T00:00:00	2024-11-08T05:00:00	2	Temperatura media	18.3
125146	7	Sololá	713	San Lucas Tolimán	10	San Lucas Tolimán	5	Mayo	2023-05-21T00:00:00	2024-11-08T05:00:00	4	Temperatura máxima	18.6
125147	7	Sololá	713	San Lucas Tolimán	10	San Lucas Tolimán	5	Mayo	2023-05-21T00:00:00	2024-11-08T05:00:00	3	Temperatura mínima	18.2
125148	7	Sololá	713	San Lucas Tolimán	10	San Lucas Tolimán	5	Mayo	2023-05-21T00:00:00	2024-11-08T05:00:00	5	Humedad	58
125149	7	Sololá	713	San Lucas Tolimán	10	San Lucas Tolimán	5	Mayo	2023-05-21T00:00:00	2024-11-08T05:00:00	6	Velocidad del viento	0
125150	7	Sololá	713	San Lucas Tolimán	10	San Lucas Tolimán	5	Mayo	2023-05-21T00:00:00	2024-11-08T05:00:00	7	Dirección del viento	0
125151	7	Sololá	713	San Lucas Tolimán	10	San Lucas Tolimán	5	Mayo	2023-05-21T00:00:00	2024-11-08T05:00:00	1	Precipitación	0
125152	7	Sololá	713	San Lucas Tolimán	10	San Lucas Tolimán	5	Mayo	2023-05-21T00:00:00	2024-11-08T05:00:00	8	Radiación solar	0
125153	7	Sololá	713	San Lucas Tolimán	10	San Lucas Tolimán	5	Mayo	2023-05-21T00:00:00	2024-11-08T06:00:00	2	Temperatura media	18.6
125154	7	Sololá	713	San Lucas Tolimán	10	San Lucas Tolimán	5	Mayo	2023-05-21T00:00:00	2024-11-08T06:00:00	4	Temperatura máxima	18.6
125155	7	Sololá	713	San Lucas Tolimán	10	San Lucas Tolimán	5	Mayo	2023-05-21T00:00:00	2024-11-08T06:00:00	3	Temperatura mínima	18.2
125156	7	Sololá	713	San Lucas Tolimán	10	San Lucas Tolimán	5	Mayo	2023-05-21T00:00:00	2024-11-08T06:00:00	5	Humedad	59
125157	7	Sololá	713	San Lucas Tolimán	10	San Lucas Tolimán	5	Mayo	2023-05-21T00:00:00	2024-11-08T06:00:00	6	Velocidad del viento	1.6
125158	7	Sololá	713	San Lucas Tolimán	10	San Lucas Tolimán	5	Mayo	2023-05-21T00:00:00	2024-11-08T06:00:00	7	Dirección del viento	1.61
125159	7	Sololá	713	San Lucas Tolimán	10	San Lucas Tolimán	5	Mayo	2023-05-21T00:00:00	2024-11-08T06:00:00	1	Precipitación	0
125160	7	Sololá	713	San Lucas Tolimán	10	San Lucas Tolimán	5	Mayo	2023-05-21T00:00:00	2024-11-08T06:00:00	8	Radiación solar	1
125161	7	Sololá	713	San Lucas Tolimán	10	San Lucas Tolimán	5	Mayo	2023-05-21T00:00:00	2024-11-08T07:00:00	2	Temperatura media	18.9
125162	7	Sololá	713	San Lucas Tolimán	10	San Lucas Tolimán	5	Mayo	2023-05-21T00:00:00	2024-11-08T07:00:00	4	Temperatura máxima	19.2
125163	7	Sololá	713	San Lucas Tolimán	10	San Lucas Tolimán	5	Mayo	2023-05-21T00:00:00	2024-11-08T07:00:00	3	Temperatura mínima	18.6
125164	7	Sololá	713	San Lucas Tolimán	10	San Lucas Tolimán	5	Mayo	2023-05-21T00:00:00	2024-11-08T07:00:00	5	Humedad	60
125165	7	Sololá	713	San Lucas Tolimán	10	San Lucas Tolimán	5	Mayo	2023-05-21T00:00:00	2024-11-08T07:00:00	6	Velocidad del viento	0
125166	7	Sololá	713	San Lucas Tolimán	10	San Lucas Tolimán	5	Mayo	2023-05-21T00:00:00	2024-11-08T07:00:00	7	Dirección del viento	0
125167	7	Sololá	713	San Lucas Tolimán	10	San Lucas Tolimán	5	Mayo	2023-05-21T00:00:00	2024-11-08T07:00:00	1	Precipitación	0
125168	7	Sololá	713	San Lucas Tolimán	10	San Lucas Tolimán	5	Mayo	2023-05-21T00:00:00	2024-11-08T07:00:00	8	Radiación solar	21
125169	7	Sololá	713	San Lucas Tolimán	10	San Lucas Tolimán	5	Mayo	2023-05-21T00:00:00	2024-11-08T08:00:00	2	Temperatura media	21.1
125170	7	Sololá	713	San Lucas Tolimán	10	San Lucas Tolimán	5	Mayo	2023-05-21T00:00:00	2024-11-08T08:00:00	4	Temperatura máxima	21.2
125171	7	Sololá	713	San Lucas Tolimán	10	San Lucas Tolimán	5	Mayo	2023-05-21T00:00:00	2024-11-08T08:00:00	3	Temperatura mínima	18.9
125172	7	Sololá	713	San Lucas Tolimán	10	San Lucas Tolimán	5	Mayo	2023-05-21T00:00:00	2024-11-08T08:00:00	5	Humedad	54
125173	7	Sololá	713	San Lucas Tolimán	10	San Lucas Tolimán	5	Mayo	2023-05-21T00:00:00	2024-11-08T08:00:00	6	Velocidad del viento	3.2
125174	7	Sololá	713	San Lucas Tolimán	10	San Lucas Tolimán	5	Mayo	2023-05-21T00:00:00	2024-11-08T08:00:00	7	Dirección del viento	3.22
125175	7	Sololá	713	San Lucas Tolimán	10	San Lucas Tolimán	5	Mayo	2023-05-21T00:00:00	2024-11-08T08:00:00	1	Precipitación	0
125176	7	Sololá	713	San Lucas Tolimán	10	San Lucas Tolimán	5	Mayo	2023-05-21T00:00:00	2024-11-08T08:00:00	8	Radiación solar	151
125177	7	Sololá	713	San Lucas Tolimán	10	San Lucas Tolimán	5	Mayo	2023-05-21T00:00:00	2024-11-08T09:00:00	2	Temperatura media	21.9
125178	7	Sololá	713	San Lucas Tolimán	10	San Lucas Tolimán	5	Mayo	2023-05-21T00:00:00	2024-11-08T09:00:00	4	Temperatura máxima	21.9
125179	7	Sololá	713	San Lucas Tolimán	10	San Lucas Tolimán	5	Mayo	2023-05-21T00:00:00	2024-11-08T09:00:00	3	Temperatura mínima	21.1
125180	7	Sololá	713	San Lucas Tolimán	10	San Lucas Tolimán	5	Mayo	2023-05-21T00:00:00	2024-11-08T09:00:00	5	Humedad	52
125181	7	Sololá	713	San Lucas Tolimán	10	San Lucas Tolimán	5	Mayo	2023-05-21T00:00:00	2024-11-08T09:00:00	6	Velocidad del viento	1.6
125182	7	Sololá	713	San Lucas Tolimán	10	San Lucas Tolimán	5	Mayo	2023-05-21T00:00:00	2024-11-08T09:00:00	7	Dirección del viento	1.61
125183	7	Sololá	713	San Lucas Tolimán	10	San Lucas Tolimán	5	Mayo	2023-05-21T00:00:00	2024-11-08T09:00:00	1	Precipitación	0
125184	7	Sololá	713	San Lucas Tolimán	10	San Lucas Tolimán	5	Mayo	2023-05-21T00:00:00	2024-11-08T09:00:00	8	Radiación solar	131
125185	7	Sololá	713	San Lucas Tolimán	10	San Lucas Tolimán	5	Mayo	2023-05-21T00:00:00	2024-11-08T10:00:00	2	Temperatura media	23.1
125186	7	Sololá	713	San Lucas Tolimán	10	San Lucas Tolimán	5	Mayo	2023-05-21T00:00:00	2024-11-08T10:00:00	4	Temperatura máxima	23.3
125187	7	Sololá	713	San Lucas Tolimán	10	San Lucas Tolimán	5	Mayo	2023-05-21T00:00:00	2024-11-08T10:00:00	3	Temperatura mínima	21.9
125188	7	Sololá	713	San Lucas Tolimán	10	San Lucas Tolimán	5	Mayo	2023-05-21T00:00:00	2024-11-08T10:00:00	5	Humedad	53
125189	7	Sololá	713	San Lucas Tolimán	10	San Lucas Tolimán	5	Mayo	2023-05-21T00:00:00	2024-11-08T10:00:00	6	Velocidad del viento	3.2
125190	7	Sololá	713	San Lucas Tolimán	10	San Lucas Tolimán	5	Mayo	2023-05-21T00:00:00	2024-11-08T10:00:00	7	Dirección del viento	3.22
125191	7	Sololá	713	San Lucas Tolimán	10	San Lucas Tolimán	5	Mayo	2023-05-21T00:00:00	2024-11-08T10:00:00	1	Precipitación	0
125192	7	Sololá	713	San Lucas Tolimán	10	San Lucas Tolimán	5	Mayo	2023-05-21T00:00:00	2024-11-08T10:00:00	8	Radiación solar	318
125193	7	Sololá	713	San Lucas Tolimán	10	San Lucas Tolimán	5	Mayo	2023-05-21T00:00:00	2024-11-08T11:00:00	2	Temperatura media	24.7
125194	7	Sololá	713	San Lucas Tolimán	10	San Lucas Tolimán	5	Mayo	2023-05-21T00:00:00	2024-11-08T11:00:00	4	Temperatura máxima	24.7
125195	7	Sololá	713	San Lucas Tolimán	10	San Lucas Tolimán	5	Mayo	2023-05-21T00:00:00	2024-11-08T11:00:00	3	Temperatura mínima	22.4
125196	7	Sololá	713	San Lucas Tolimán	10	San Lucas Tolimán	5	Mayo	2023-05-21T00:00:00	2024-11-08T11:00:00	5	Humedad	47
125197	7	Sololá	713	San Lucas Tolimán	10	San Lucas Tolimán	5	Mayo	2023-05-21T00:00:00	2024-11-08T11:00:00	6	Velocidad del viento	6.4
125198	7	Sololá	713	San Lucas Tolimán	10	San Lucas Tolimán	5	Mayo	2023-05-21T00:00:00	2024-11-08T11:00:00	7	Dirección del viento	6.44
125199	7	Sololá	713	San Lucas Tolimán	10	San Lucas Tolimán	5	Mayo	2023-05-21T00:00:00	2024-11-08T11:00:00	1	Precipitación	0
125200	7	Sololá	713	San Lucas Tolimán	10	San Lucas Tolimán	5	Mayo	2023-05-21T00:00:00	2024-11-08T11:00:00	8	Radiación solar	467
125201	7	Sololá	713	San Lucas Tolimán	10	San Lucas Tolimán	5	Mayo	2023-05-21T00:00:00	2024-11-08T12:00:00	2	Temperatura media	22.1
125202	7	Sololá	713	San Lucas Tolimán	10	San Lucas Tolimán	5	Mayo	2023-05-21T00:00:00	2024-11-08T12:00:00	4	Temperatura máxima	24.8
125203	7	Sololá	713	San Lucas Tolimán	10	San Lucas Tolimán	5	Mayo	2023-05-21T00:00:00	2024-11-08T12:00:00	3	Temperatura mínima	21.8
125204	7	Sololá	713	San Lucas Tolimán	10	San Lucas Tolimán	5	Mayo	2023-05-21T00:00:00	2024-11-08T12:00:00	5	Humedad	60
125205	7	Sololá	713	San Lucas Tolimán	10	San Lucas Tolimán	5	Mayo	2023-05-21T00:00:00	2024-11-08T12:00:00	6	Velocidad del viento	8
125206	7	Sololá	713	San Lucas Tolimán	10	San Lucas Tolimán	5	Mayo	2023-05-21T00:00:00	2024-11-08T12:00:00	7	Dirección del viento	8.05
125207	7	Sololá	713	San Lucas Tolimán	10	San Lucas Tolimán	5	Mayo	2023-05-21T00:00:00	2024-11-08T12:00:00	1	Precipitación	0
125208	7	Sololá	713	San Lucas Tolimán	10	San Lucas Tolimán	5	Mayo	2023-05-21T00:00:00	2024-11-08T12:00:00	8	Radiación solar	275
125209	7	Sololá	713	San Lucas Tolimán	10	San Lucas Tolimán	5	Mayo	2023-05-21T00:00:00	2024-11-08T13:00:00	2	Temperatura media	21.8
125210	7	Sololá	713	San Lucas Tolimán	10	San Lucas Tolimán	5	Mayo	2023-05-21T00:00:00	2024-11-08T13:00:00	4	Temperatura máxima	22.1
125211	7	Sololá	713	San Lucas Tolimán	10	San Lucas Tolimán	5	Mayo	2023-05-21T00:00:00	2024-11-08T13:00:00	3	Temperatura mínima	21.7
125212	7	Sololá	713	San Lucas Tolimán	10	San Lucas Tolimán	5	Mayo	2023-05-21T00:00:00	2024-11-08T13:00:00	5	Humedad	59
125213	7	Sololá	713	San Lucas Tolimán	10	San Lucas Tolimán	5	Mayo	2023-05-21T00:00:00	2024-11-08T13:00:00	6	Velocidad del viento	6.4
125214	7	Sololá	713	San Lucas Tolimán	10	San Lucas Tolimán	5	Mayo	2023-05-21T00:00:00	2024-11-08T13:00:00	7	Dirección del viento	6.44
125215	7	Sololá	713	San Lucas Tolimán	10	San Lucas Tolimán	5	Mayo	2023-05-21T00:00:00	2024-11-08T13:00:00	1	Precipitación	0
125216	7	Sololá	713	San Lucas Tolimán	10	San Lucas Tolimán	5	Mayo	2023-05-21T00:00:00	2024-11-08T13:00:00	8	Radiación solar	254
125217	7	Sololá	713	San Lucas Tolimán	10	San Lucas Tolimán	5	Mayo	2023-05-21T00:00:00	2024-11-08T14:00:00	2	Temperatura media	21.2
125218	7	Sololá	713	San Lucas Tolimán	10	San Lucas Tolimán	5	Mayo	2023-05-21T00:00:00	2024-11-08T14:00:00	4	Temperatura máxima	21.8
125219	7	Sololá	713	San Lucas Tolimán	10	San Lucas Tolimán	5	Mayo	2023-05-21T00:00:00	2024-11-08T14:00:00	3	Temperatura mínima	21.1
125220	7	Sololá	713	San Lucas Tolimán	10	San Lucas Tolimán	5	Mayo	2023-05-21T00:00:00	2024-11-08T14:00:00	5	Humedad	62
125221	7	Sololá	713	San Lucas Tolimán	10	San Lucas Tolimán	5	Mayo	2023-05-21T00:00:00	2024-11-08T14:00:00	6	Velocidad del viento	6.4
125222	7	Sololá	713	San Lucas Tolimán	10	San Lucas Tolimán	5	Mayo	2023-05-21T00:00:00	2024-11-08T14:00:00	7	Dirección del viento	6.44
125223	7	Sololá	713	San Lucas Tolimán	10	San Lucas Tolimán	5	Mayo	2023-05-21T00:00:00	2024-11-08T14:00:00	1	Precipitación	0
125224	7	Sololá	713	San Lucas Tolimán	10	San Lucas Tolimán	5	Mayo	2023-05-21T00:00:00	2024-11-08T14:00:00	8	Radiación solar	247
125225	7	Sololá	713	San Lucas Tolimán	10	San Lucas Tolimán	5	Mayo	2023-05-21T00:00:00	2024-11-08T15:00:00	2	Temperatura media	22.7
125226	7	Sololá	713	San Lucas Tolimán	10	San Lucas Tolimán	5	Mayo	2023-05-21T00:00:00	2024-11-08T15:00:00	4	Temperatura máxima	22.8
125227	7	Sololá	713	San Lucas Tolimán	10	San Lucas Tolimán	5	Mayo	2023-05-21T00:00:00	2024-11-08T15:00:00	3	Temperatura mínima	21.1
125228	7	Sololá	713	San Lucas Tolimán	10	San Lucas Tolimán	5	Mayo	2023-05-21T00:00:00	2024-11-08T15:00:00	5	Humedad	57
125229	7	Sololá	713	San Lucas Tolimán	10	San Lucas Tolimán	5	Mayo	2023-05-21T00:00:00	2024-11-08T15:00:00	6	Velocidad del viento	6.4
125230	7	Sololá	713	San Lucas Tolimán	10	San Lucas Tolimán	5	Mayo	2023-05-21T00:00:00	2024-11-08T15:00:00	7	Dirección del viento	6.44
125231	7	Sololá	713	San Lucas Tolimán	10	San Lucas Tolimán	5	Mayo	2023-05-21T00:00:00	2024-11-08T15:00:00	1	Precipitación	0
125232	7	Sololá	713	San Lucas Tolimán	10	San Lucas Tolimán	5	Mayo	2023-05-21T00:00:00	2024-11-08T15:00:00	8	Radiación solar	360
125233	7	Sololá	713	San Lucas Tolimán	10	San Lucas Tolimán	5	Mayo	2023-05-21T00:00:00	2024-11-08T16:00:00	2	Temperatura media	21.8
125234	7	Sololá	713	San Lucas Tolimán	10	San Lucas Tolimán	5	Mayo	2023-05-21T00:00:00	2024-11-08T16:00:00	4	Temperatura máxima	23.3
125235	7	Sololá	713	San Lucas Tolimán	10	San Lucas Tolimán	5	Mayo	2023-05-21T00:00:00	2024-11-08T16:00:00	3	Temperatura mínima	21.8
125236	7	Sololá	713	San Lucas Tolimán	10	San Lucas Tolimán	5	Mayo	2023-05-21T00:00:00	2024-11-08T16:00:00	5	Humedad	60
125237	7	Sololá	713	San Lucas Tolimán	10	San Lucas Tolimán	5	Mayo	2023-05-21T00:00:00	2024-11-08T16:00:00	6	Velocidad del viento	6.4
125238	7	Sololá	713	San Lucas Tolimán	10	San Lucas Tolimán	5	Mayo	2023-05-21T00:00:00	2024-11-08T16:00:00	7	Dirección del viento	6.44
125239	7	Sololá	713	San Lucas Tolimán	10	San Lucas Tolimán	5	Mayo	2023-05-21T00:00:00	2024-11-08T16:00:00	1	Precipitación	0
125240	7	Sololá	713	San Lucas Tolimán	10	San Lucas Tolimán	5	Mayo	2023-05-21T00:00:00	2024-11-08T16:00:00	8	Radiación solar	323
125241	7	Sololá	713	San Lucas Tolimán	10	San Lucas Tolimán	5	Mayo	2023-05-21T00:00:00	2024-11-08T17:00:00	2	Temperatura media	20.7
125242	7	Sololá	713	San Lucas Tolimán	10	San Lucas Tolimán	5	Mayo	2023-05-21T00:00:00	2024-11-08T17:00:00	4	Temperatura máxima	21.9
125243	7	Sololá	713	San Lucas Tolimán	10	San Lucas Tolimán	5	Mayo	2023-05-21T00:00:00	2024-11-08T17:00:00	3	Temperatura mínima	20.7
125244	7	Sololá	713	San Lucas Tolimán	10	San Lucas Tolimán	5	Mayo	2023-05-21T00:00:00	2024-11-08T17:00:00	5	Humedad	62
125245	7	Sololá	713	San Lucas Tolimán	10	San Lucas Tolimán	5	Mayo	2023-05-21T00:00:00	2024-11-08T17:00:00	6	Velocidad del viento	8
125246	7	Sololá	713	San Lucas Tolimán	10	San Lucas Tolimán	5	Mayo	2023-05-21T00:00:00	2024-11-08T17:00:00	7	Dirección del viento	8.05
125247	7	Sololá	713	San Lucas Tolimán	10	San Lucas Tolimán	5	Mayo	2023-05-21T00:00:00	2024-11-08T17:00:00	1	Precipitación	0
125248	7	Sololá	713	San Lucas Tolimán	10	San Lucas Tolimán	5	Mayo	2023-05-21T00:00:00	2024-11-08T17:00:00	8	Radiación solar	200
125249	7	Sololá	713	San Lucas Tolimán	10	San Lucas Tolimán	5	Mayo	2023-05-21T00:00:00	2024-11-08T18:00:00	2	Temperatura media	20
125250	7	Sololá	713	San Lucas Tolimán	10	San Lucas Tolimán	5	Mayo	2023-05-21T00:00:00	2024-11-08T18:00:00	4	Temperatura máxima	20.7
125251	7	Sololá	713	San Lucas Tolimán	10	San Lucas Tolimán	5	Mayo	2023-05-21T00:00:00	2024-11-08T18:00:00	3	Temperatura mínima	20
125252	7	Sololá	713	San Lucas Tolimán	10	San Lucas Tolimán	5	Mayo	2023-05-21T00:00:00	2024-11-08T18:00:00	5	Humedad	61
125253	7	Sololá	713	San Lucas Tolimán	10	San Lucas Tolimán	5	Mayo	2023-05-21T00:00:00	2024-11-08T18:00:00	6	Velocidad del viento	8
125254	7	Sololá	713	San Lucas Tolimán	10	San Lucas Tolimán	5	Mayo	2023-05-21T00:00:00	2024-11-08T18:00:00	7	Dirección del viento	8.05
125255	7	Sololá	713	San Lucas Tolimán	10	San Lucas Tolimán	5	Mayo	2023-05-21T00:00:00	2024-11-08T18:00:00	1	Precipitación	0
125256	7	Sololá	713	San Lucas Tolimán	10	San Lucas Tolimán	5	Mayo	2023-05-21T00:00:00	2024-11-08T18:00:00	8	Radiación solar	41
125257	7	Sololá	713	San Lucas Tolimán	10	San Lucas Tolimán	5	Mayo	2023-05-21T00:00:00	2024-11-08T19:00:00	2	Temperatura media	19.6
125258	7	Sololá	713	San Lucas Tolimán	10	San Lucas Tolimán	5	Mayo	2023-05-21T00:00:00	2024-11-08T19:00:00	4	Temperatura máxima	20.1
125259	7	Sololá	713	San Lucas Tolimán	10	San Lucas Tolimán	5	Mayo	2023-05-21T00:00:00	2024-11-08T19:00:00	3	Temperatura mínima	19.4
125260	7	Sololá	713	San Lucas Tolimán	10	San Lucas Tolimán	5	Mayo	2023-05-21T00:00:00	2024-11-08T19:00:00	5	Humedad	62
125261	7	Sololá	713	San Lucas Tolimán	10	San Lucas Tolimán	5	Mayo	2023-05-21T00:00:00	2024-11-08T19:00:00	6	Velocidad del viento	4.8
125262	7	Sololá	713	San Lucas Tolimán	10	San Lucas Tolimán	5	Mayo	2023-05-21T00:00:00	2024-11-08T19:00:00	7	Dirección del viento	4.83
125263	7	Sololá	713	San Lucas Tolimán	10	San Lucas Tolimán	5	Mayo	2023-05-21T00:00:00	2024-11-08T19:00:00	1	Precipitación	0
125264	7	Sololá	713	San Lucas Tolimán	10	San Lucas Tolimán	5	Mayo	2023-05-21T00:00:00	2024-11-08T19:00:00	8	Radiación solar	0
125265	7	Sololá	713	San Lucas Tolimán	10	San Lucas Tolimán	5	Mayo	2023-05-21T00:00:00	2024-11-08T20:00:00	2	Temperatura media	19.5
125266	7	Sololá	713	San Lucas Tolimán	10	San Lucas Tolimán	5	Mayo	2023-05-21T00:00:00	2024-11-08T20:00:00	4	Temperatura máxima	19.6
125267	7	Sololá	713	San Lucas Tolimán	10	San Lucas Tolimán	5	Mayo	2023-05-21T00:00:00	2024-11-08T20:00:00	3	Temperatura mínima	18.9
125268	7	Sololá	713	San Lucas Tolimán	10	San Lucas Tolimán	5	Mayo	2023-05-21T00:00:00	2024-11-08T20:00:00	5	Humedad	57
125269	7	Sololá	713	San Lucas Tolimán	10	San Lucas Tolimán	5	Mayo	2023-05-21T00:00:00	2024-11-08T20:00:00	6	Velocidad del viento	1.6
125270	7	Sololá	713	San Lucas Tolimán	10	San Lucas Tolimán	5	Mayo	2023-05-21T00:00:00	2024-11-08T20:00:00	7	Dirección del viento	1.61
125271	7	Sololá	713	San Lucas Tolimán	10	San Lucas Tolimán	5	Mayo	2023-05-21T00:00:00	2024-11-08T20:00:00	1	Precipitación	0
125272	7	Sololá	713	San Lucas Tolimán	10	San Lucas Tolimán	5	Mayo	2023-05-21T00:00:00	2024-11-08T20:00:00	8	Radiación solar	0
125273	7	Sololá	713	San Lucas Tolimán	10	San Lucas Tolimán	5	Mayo	2023-05-21T00:00:00	2024-11-08T21:00:00	2	Temperatura media	21.2
125274	7	Sololá	713	San Lucas Tolimán	10	San Lucas Tolimán	5	Mayo	2023-05-21T00:00:00	2024-11-08T21:00:00	4	Temperatura máxima	21.2
125275	7	Sololá	713	San Lucas Tolimán	10	San Lucas Tolimán	5	Mayo	2023-05-21T00:00:00	2024-11-08T21:00:00	3	Temperatura mínima	19.5
125276	7	Sololá	713	San Lucas Tolimán	10	San Lucas Tolimán	5	Mayo	2023-05-21T00:00:00	2024-11-08T21:00:00	5	Humedad	56
125277	7	Sololá	713	San Lucas Tolimán	10	San Lucas Tolimán	5	Mayo	2023-05-21T00:00:00	2024-11-08T21:00:00	6	Velocidad del viento	1.6
125278	7	Sololá	713	San Lucas Tolimán	10	San Lucas Tolimán	5	Mayo	2023-05-21T00:00:00	2024-11-08T21:00:00	7	Dirección del viento	1.61
125279	7	Sololá	713	San Lucas Tolimán	10	San Lucas Tolimán	5	Mayo	2023-05-21T00:00:00	2024-11-08T21:00:00	1	Precipitación	0
125280	7	Sololá	713	San Lucas Tolimán	10	San Lucas Tolimán	5	Mayo	2023-05-21T00:00:00	2024-11-08T21:00:00	8	Radiación solar	0
125281	7	Sololá	713	San Lucas Tolimán	10	San Lucas Tolimán	5	Mayo	2023-05-21T00:00:00	2024-11-08T22:00:00	2	Temperatura media	20.5
125282	7	Sololá	713	San Lucas Tolimán	10	San Lucas Tolimán	5	Mayo	2023-05-21T00:00:00	2024-11-08T22:00:00	4	Temperatura máxima	21.2
125283	7	Sololá	713	San Lucas Tolimán	10	San Lucas Tolimán	5	Mayo	2023-05-21T00:00:00	2024-11-08T22:00:00	3	Temperatura mínima	20.4
125284	7	Sololá	713	San Lucas Tolimán	10	San Lucas Tolimán	5	Mayo	2023-05-21T00:00:00	2024-11-08T22:00:00	5	Humedad	58
125285	7	Sololá	713	San Lucas Tolimán	10	San Lucas Tolimán	5	Mayo	2023-05-21T00:00:00	2024-11-08T22:00:00	6	Velocidad del viento	1.6
125286	7	Sololá	713	San Lucas Tolimán	10	San Lucas Tolimán	5	Mayo	2023-05-21T00:00:00	2024-11-08T22:00:00	7	Dirección del viento	1.61
125287	7	Sololá	713	San Lucas Tolimán	10	San Lucas Tolimán	5	Mayo	2023-05-21T00:00:00	2024-11-08T22:00:00	1	Precipitación	0
125288	7	Sololá	713	San Lucas Tolimán	10	San Lucas Tolimán	5	Mayo	2023-05-21T00:00:00	2024-11-08T22:00:00	8	Radiación solar	0
125289	7	Sololá	713	San Lucas Tolimán	10	San Lucas Tolimán	5	Mayo	2023-05-21T00:00:00	2024-11-08T23:00:00	2	Temperatura media	20
125290	7	Sololá	713	San Lucas Tolimán	10	San Lucas Tolimán	5	Mayo	2023-05-21T00:00:00	2024-11-08T23:00:00	4	Temperatura máxima	20.5
125291	7	Sololá	713	San Lucas Tolimán	10	San Lucas Tolimán	5	Mayo	2023-05-21T00:00:00	2024-11-08T23:00:00	3	Temperatura mínima	19.9
125292	7	Sololá	713	San Lucas Tolimán	10	San Lucas Tolimán	5	Mayo	2023-05-21T00:00:00	2024-11-08T23:00:00	5	Humedad	58
125293	7	Sololá	713	San Lucas Tolimán	10	San Lucas Tolimán	5	Mayo	2023-05-21T00:00:00	2024-11-08T23:00:00	6	Velocidad del viento	1.6
125294	7	Sololá	713	San Lucas Tolimán	10	San Lucas Tolimán	5	Mayo	2023-05-21T00:00:00	2024-11-08T23:00:00	7	Dirección del viento	1.61
125295	7	Sololá	713	San Lucas Tolimán	10	San Lucas Tolimán	5	Mayo	2023-05-21T00:00:00	2024-11-08T23:00:00	1	Precipitación	0
125296	7	Sololá	713	San Lucas Tolimán	10	San Lucas Tolimán	5	Mayo	2023-05-21T00:00:00	2024-11-08T23:00:00	8	Radiación solar	0
125297	7	Sololá	713	San Lucas Tolimán	10	San Lucas Tolimán	5	Mayo	2023-05-22T00:00:00	2024-11-08T00:00:00	2	Temperatura media	18.2
125298	7	Sololá	713	San Lucas Tolimán	10	San Lucas Tolimán	5	Mayo	2023-05-22T00:00:00	2024-11-08T00:00:00	4	Temperatura máxima	20
125299	7	Sololá	713	San Lucas Tolimán	10	San Lucas Tolimán	5	Mayo	2023-05-22T00:00:00	2024-11-08T00:00:00	3	Temperatura mínima	18.2
125300	7	Sololá	713	San Lucas Tolimán	10	San Lucas Tolimán	5	Mayo	2023-05-22T00:00:00	2024-11-08T00:00:00	5	Humedad	61
125301	7	Sololá	713	San Lucas Tolimán	10	San Lucas Tolimán	5	Mayo	2023-05-22T00:00:00	2024-11-08T00:00:00	6	Velocidad del viento	3.2
125302	7	Sololá	713	San Lucas Tolimán	10	San Lucas Tolimán	5	Mayo	2023-05-22T00:00:00	2024-11-08T00:00:00	7	Dirección del viento	3.22
125303	7	Sololá	713	San Lucas Tolimán	10	San Lucas Tolimán	5	Mayo	2023-05-22T00:00:00	2024-11-08T00:00:00	1	Precipitación	0
125304	7	Sololá	713	San Lucas Tolimán	10	San Lucas Tolimán	5	Mayo	2023-05-22T00:00:00	2024-11-08T00:00:00	8	Radiación solar	0
125305	7	Sololá	713	San Lucas Tolimán	10	San Lucas Tolimán	5	Mayo	2023-05-22T00:00:00	2024-11-08T01:00:00	2	Temperatura media	17.7
125306	7	Sololá	713	San Lucas Tolimán	10	San Lucas Tolimán	5	Mayo	2023-05-22T00:00:00	2024-11-08T01:00:00	4	Temperatura máxima	18.3
125307	7	Sololá	713	San Lucas Tolimán	10	San Lucas Tolimán	5	Mayo	2023-05-22T00:00:00	2024-11-08T01:00:00	3	Temperatura mínima	17.7
125308	7	Sololá	713	San Lucas Tolimán	10	San Lucas Tolimán	5	Mayo	2023-05-22T00:00:00	2024-11-08T01:00:00	5	Humedad	62
125309	7	Sololá	713	San Lucas Tolimán	10	San Lucas Tolimán	5	Mayo	2023-05-22T00:00:00	2024-11-08T01:00:00	6	Velocidad del viento	3.2
125310	7	Sololá	713	San Lucas Tolimán	10	San Lucas Tolimán	5	Mayo	2023-05-22T00:00:00	2024-11-08T01:00:00	7	Dirección del viento	3.22
125311	7	Sololá	713	San Lucas Tolimán	10	San Lucas Tolimán	5	Mayo	2023-05-22T00:00:00	2024-11-08T01:00:00	1	Precipitación	0
125312	7	Sololá	713	San Lucas Tolimán	10	San Lucas Tolimán	5	Mayo	2023-05-22T00:00:00	2024-11-08T01:00:00	8	Radiación solar	0
125313	7	Sololá	713	San Lucas Tolimán	10	San Lucas Tolimán	5	Mayo	2023-05-22T00:00:00	2024-11-08T02:00:00	2	Temperatura media	17.1
125314	7	Sololá	713	San Lucas Tolimán	10	San Lucas Tolimán	5	Mayo	2023-05-22T00:00:00	2024-11-08T02:00:00	4	Temperatura máxima	17.7
125315	7	Sololá	713	San Lucas Tolimán	10	San Lucas Tolimán	5	Mayo	2023-05-22T00:00:00	2024-11-08T02:00:00	3	Temperatura mínima	17
125316	7	Sololá	713	San Lucas Tolimán	10	San Lucas Tolimán	5	Mayo	2023-05-22T00:00:00	2024-11-08T02:00:00	5	Humedad	62
125317	7	Sololá	713	San Lucas Tolimán	10	San Lucas Tolimán	5	Mayo	2023-05-22T00:00:00	2024-11-08T02:00:00	6	Velocidad del viento	1.6
125318	7	Sololá	713	San Lucas Tolimán	10	San Lucas Tolimán	5	Mayo	2023-05-22T00:00:00	2024-11-08T02:00:00	7	Dirección del viento	1.61
125319	7	Sololá	713	San Lucas Tolimán	10	San Lucas Tolimán	5	Mayo	2023-05-22T00:00:00	2024-11-08T02:00:00	1	Precipitación	0
125320	7	Sololá	713	San Lucas Tolimán	10	San Lucas Tolimán	5	Mayo	2023-05-22T00:00:00	2024-11-08T02:00:00	8	Radiación solar	0
125321	7	Sololá	713	San Lucas Tolimán	10	San Lucas Tolimán	5	Mayo	2023-05-22T00:00:00	2024-11-08T03:00:00	2	Temperatura media	17.9
125322	7	Sololá	713	San Lucas Tolimán	10	San Lucas Tolimán	5	Mayo	2023-05-22T00:00:00	2024-11-08T03:00:00	4	Temperatura máxima	17.9
125323	7	Sololá	713	San Lucas Tolimán	10	San Lucas Tolimán	5	Mayo	2023-05-22T00:00:00	2024-11-08T03:00:00	3	Temperatura mínima	17
125324	7	Sololá	713	San Lucas Tolimán	10	San Lucas Tolimán	5	Mayo	2023-05-22T00:00:00	2024-11-08T03:00:00	5	Humedad	60
125325	7	Sololá	713	San Lucas Tolimán	10	San Lucas Tolimán	5	Mayo	2023-05-22T00:00:00	2024-11-08T03:00:00	6	Velocidad del viento	0
125326	7	Sololá	713	San Lucas Tolimán	10	San Lucas Tolimán	5	Mayo	2023-05-22T00:00:00	2024-11-08T03:00:00	7	Dirección del viento	0
125327	7	Sololá	713	San Lucas Tolimán	10	San Lucas Tolimán	5	Mayo	2023-05-22T00:00:00	2024-11-08T03:00:00	1	Precipitación	0
125328	7	Sololá	713	San Lucas Tolimán	10	San Lucas Tolimán	5	Mayo	2023-05-22T00:00:00	2024-11-08T03:00:00	8	Radiación solar	0
125329	7	Sololá	713	San Lucas Tolimán	10	San Lucas Tolimán	5	Mayo	2023-05-22T00:00:00	2024-11-08T04:00:00	2	Temperatura media	18.4
125330	7	Sololá	713	San Lucas Tolimán	10	San Lucas Tolimán	5	Mayo	2023-05-22T00:00:00	2024-11-08T04:00:00	4	Temperatura máxima	18.4
125331	7	Sololá	713	San Lucas Tolimán	10	San Lucas Tolimán	5	Mayo	2023-05-22T00:00:00	2024-11-08T04:00:00	3	Temperatura mínima	17.9
125332	7	Sololá	713	San Lucas Tolimán	10	San Lucas Tolimán	5	Mayo	2023-05-22T00:00:00	2024-11-08T04:00:00	5	Humedad	60
125333	7	Sololá	713	San Lucas Tolimán	10	San Lucas Tolimán	5	Mayo	2023-05-22T00:00:00	2024-11-08T04:00:00	6	Velocidad del viento	0
125334	7	Sololá	713	San Lucas Tolimán	10	San Lucas Tolimán	5	Mayo	2023-05-22T00:00:00	2024-11-08T04:00:00	7	Dirección del viento	0
125335	7	Sololá	713	San Lucas Tolimán	10	San Lucas Tolimán	5	Mayo	2023-05-22T00:00:00	2024-11-08T04:00:00	1	Precipitación	0
125336	7	Sololá	713	San Lucas Tolimán	10	San Lucas Tolimán	5	Mayo	2023-05-22T00:00:00	2024-11-08T04:00:00	8	Radiación solar	0
125337	7	Sololá	713	San Lucas Tolimán	10	San Lucas Tolimán	5	Mayo	2023-05-22T00:00:00	2024-11-08T05:00:00	2	Temperatura media	18.1
125338	7	Sololá	713	San Lucas Tolimán	10	San Lucas Tolimán	5	Mayo	2023-05-22T00:00:00	2024-11-08T05:00:00	4	Temperatura máxima	18.4
125339	7	Sololá	713	San Lucas Tolimán	10	San Lucas Tolimán	5	Mayo	2023-05-22T00:00:00	2024-11-08T05:00:00	3	Temperatura mínima	18.1
125340	7	Sololá	713	San Lucas Tolimán	10	San Lucas Tolimán	5	Mayo	2023-05-22T00:00:00	2024-11-08T05:00:00	5	Humedad	61
125341	7	Sololá	713	San Lucas Tolimán	10	San Lucas Tolimán	5	Mayo	2023-05-22T00:00:00	2024-11-08T05:00:00	6	Velocidad del viento	0
125342	7	Sololá	713	San Lucas Tolimán	10	San Lucas Tolimán	5	Mayo	2023-05-22T00:00:00	2024-11-08T05:00:00	7	Dirección del viento	0
125343	7	Sololá	713	San Lucas Tolimán	10	San Lucas Tolimán	5	Mayo	2023-05-22T00:00:00	2024-11-08T05:00:00	1	Precipitación	0.2
125344	7	Sololá	713	San Lucas Tolimán	10	San Lucas Tolimán	5	Mayo	2023-05-22T00:00:00	2024-11-08T05:00:00	8	Radiación solar	0
125345	7	Sololá	713	San Lucas Tolimán	10	San Lucas Tolimán	5	Mayo	2023-05-22T00:00:00	2024-11-08T06:00:00	2	Temperatura media	17.9
125346	7	Sololá	713	San Lucas Tolimán	10	San Lucas Tolimán	5	Mayo	2023-05-22T00:00:00	2024-11-08T06:00:00	4	Temperatura máxima	18.1
125347	7	Sololá	713	San Lucas Tolimán	10	San Lucas Tolimán	5	Mayo	2023-05-22T00:00:00	2024-11-08T06:00:00	3	Temperatura mínima	17.9
125348	7	Sololá	713	San Lucas Tolimán	10	San Lucas Tolimán	5	Mayo	2023-05-22T00:00:00	2024-11-08T06:00:00	5	Humedad	60
125349	7	Sololá	713	San Lucas Tolimán	10	San Lucas Tolimán	5	Mayo	2023-05-22T00:00:00	2024-11-08T06:00:00	6	Velocidad del viento	0
125350	7	Sololá	713	San Lucas Tolimán	10	San Lucas Tolimán	5	Mayo	2023-05-22T00:00:00	2024-11-08T06:00:00	7	Dirección del viento	0
125351	7	Sololá	713	San Lucas Tolimán	10	San Lucas Tolimán	5	Mayo	2023-05-22T00:00:00	2024-11-08T06:00:00	1	Precipitación	0
125352	7	Sololá	713	San Lucas Tolimán	10	San Lucas Tolimán	5	Mayo	2023-05-22T00:00:00	2024-11-08T06:00:00	8	Radiación solar	0
125353	7	Sololá	713	San Lucas Tolimán	10	San Lucas Tolimán	5	Mayo	2023-05-22T00:00:00	2024-11-08T07:00:00	2	Temperatura media	18.7
125354	7	Sololá	713	San Lucas Tolimán	10	San Lucas Tolimán	5	Mayo	2023-05-22T00:00:00	2024-11-08T07:00:00	4	Temperatura máxima	18.7
125355	7	Sololá	713	San Lucas Tolimán	10	San Lucas Tolimán	5	Mayo	2023-05-22T00:00:00	2024-11-08T07:00:00	3	Temperatura mínima	17.9
125356	7	Sololá	713	San Lucas Tolimán	10	San Lucas Tolimán	5	Mayo	2023-05-22T00:00:00	2024-11-08T07:00:00	5	Humedad	59
125357	7	Sololá	713	San Lucas Tolimán	10	San Lucas Tolimán	5	Mayo	2023-05-22T00:00:00	2024-11-08T07:00:00	6	Velocidad del viento	0
125358	7	Sololá	713	San Lucas Tolimán	10	San Lucas Tolimán	5	Mayo	2023-05-22T00:00:00	2024-11-08T07:00:00	7	Dirección del viento	0
125359	7	Sololá	713	San Lucas Tolimán	10	San Lucas Tolimán	5	Mayo	2023-05-22T00:00:00	2024-11-08T07:00:00	1	Precipitación	0
125360	7	Sololá	713	San Lucas Tolimán	10	San Lucas Tolimán	5	Mayo	2023-05-22T00:00:00	2024-11-08T07:00:00	8	Radiación solar	48
125361	7	Sololá	713	San Lucas Tolimán	10	San Lucas Tolimán	5	Mayo	2023-05-22T00:00:00	2024-11-08T08:00:00	2	Temperatura media	20.5
125362	7	Sololá	713	San Lucas Tolimán	10	San Lucas Tolimán	5	Mayo	2023-05-22T00:00:00	2024-11-08T08:00:00	4	Temperatura máxima	20.5
125363	7	Sololá	713	San Lucas Tolimán	10	San Lucas Tolimán	5	Mayo	2023-05-22T00:00:00	2024-11-08T08:00:00	3	Temperatura mínima	18.6
125364	7	Sololá	713	San Lucas Tolimán	10	San Lucas Tolimán	5	Mayo	2023-05-22T00:00:00	2024-11-08T08:00:00	5	Humedad	56
125365	7	Sololá	713	San Lucas Tolimán	10	San Lucas Tolimán	5	Mayo	2023-05-22T00:00:00	2024-11-08T08:00:00	6	Velocidad del viento	1.6
125366	7	Sololá	713	San Lucas Tolimán	10	San Lucas Tolimán	5	Mayo	2023-05-22T00:00:00	2024-11-08T08:00:00	7	Dirección del viento	1.61
125367	7	Sololá	713	San Lucas Tolimán	10	San Lucas Tolimán	5	Mayo	2023-05-22T00:00:00	2024-11-08T08:00:00	1	Precipitación	0
125368	7	Sololá	713	San Lucas Tolimán	10	San Lucas Tolimán	5	Mayo	2023-05-22T00:00:00	2024-11-08T08:00:00	8	Radiación solar	160
125369	7	Sololá	713	San Lucas Tolimán	10	San Lucas Tolimán	5	Mayo	2023-05-22T00:00:00	2024-11-08T09:00:00	2	Temperatura media	21.4
125370	7	Sololá	713	San Lucas Tolimán	10	San Lucas Tolimán	5	Mayo	2023-05-22T00:00:00	2024-11-08T09:00:00	4	Temperatura máxima	21.5
125371	7	Sololá	713	San Lucas Tolimán	10	San Lucas Tolimán	5	Mayo	2023-05-22T00:00:00	2024-11-08T09:00:00	3	Temperatura mínima	20.6
125372	7	Sololá	713	San Lucas Tolimán	10	San Lucas Tolimán	5	Mayo	2023-05-22T00:00:00	2024-11-08T09:00:00	5	Humedad	56
125373	7	Sololá	713	San Lucas Tolimán	10	San Lucas Tolimán	5	Mayo	2023-05-22T00:00:00	2024-11-08T09:00:00	6	Velocidad del viento	4.8
125374	7	Sololá	713	San Lucas Tolimán	10	San Lucas Tolimán	5	Mayo	2023-05-22T00:00:00	2024-11-08T09:00:00	7	Dirección del viento	4.83
125375	7	Sololá	713	San Lucas Tolimán	10	San Lucas Tolimán	5	Mayo	2023-05-22T00:00:00	2024-11-08T09:00:00	1	Precipitación	0
125376	7	Sololá	713	San Lucas Tolimán	10	San Lucas Tolimán	5	Mayo	2023-05-22T00:00:00	2024-11-08T09:00:00	8	Radiación solar	367
125377	7	Sololá	713	San Lucas Tolimán	10	San Lucas Tolimán	5	Mayo	2023-05-22T00:00:00	2024-11-08T10:00:00	2	Temperatura media	23.9
125378	7	Sololá	713	San Lucas Tolimán	10	San Lucas Tolimán	5	Mayo	2023-05-22T00:00:00	2024-11-08T10:00:00	4	Temperatura máxima	24.2
125379	7	Sololá	713	San Lucas Tolimán	10	San Lucas Tolimán	5	Mayo	2023-05-22T00:00:00	2024-11-08T10:00:00	3	Temperatura mínima	21.4
125380	7	Sololá	713	San Lucas Tolimán	10	San Lucas Tolimán	5	Mayo	2023-05-22T00:00:00	2024-11-08T10:00:00	5	Humedad	49
125381	7	Sololá	713	San Lucas Tolimán	10	San Lucas Tolimán	5	Mayo	2023-05-22T00:00:00	2024-11-08T10:00:00	6	Velocidad del viento	3.2
125382	7	Sololá	713	San Lucas Tolimán	10	San Lucas Tolimán	5	Mayo	2023-05-22T00:00:00	2024-11-08T10:00:00	7	Dirección del viento	3.22
125383	7	Sololá	713	San Lucas Tolimán	10	San Lucas Tolimán	5	Mayo	2023-05-22T00:00:00	2024-11-08T10:00:00	1	Precipitación	0
125384	7	Sololá	713	San Lucas Tolimán	10	San Lucas Tolimán	5	Mayo	2023-05-22T00:00:00	2024-11-08T10:00:00	8	Radiación solar	566
125385	7	Sololá	713	San Lucas Tolimán	10	San Lucas Tolimán	5	Mayo	2023-05-22T00:00:00	2024-11-08T11:00:00	2	Temperatura media	22.4
125386	7	Sololá	713	San Lucas Tolimán	10	San Lucas Tolimán	5	Mayo	2023-05-22T00:00:00	2024-11-08T11:00:00	4	Temperatura máxima	24.9
125387	7	Sololá	713	San Lucas Tolimán	10	San Lucas Tolimán	5	Mayo	2023-05-22T00:00:00	2024-11-08T11:00:00	3	Temperatura mínima	22.3
125388	7	Sololá	713	San Lucas Tolimán	10	San Lucas Tolimán	5	Mayo	2023-05-22T00:00:00	2024-11-08T11:00:00	5	Humedad	62
125389	7	Sololá	713	San Lucas Tolimán	10	San Lucas Tolimán	5	Mayo	2023-05-22T00:00:00	2024-11-08T11:00:00	6	Velocidad del viento	6.4
125390	7	Sololá	713	San Lucas Tolimán	10	San Lucas Tolimán	5	Mayo	2023-05-22T00:00:00	2024-11-08T11:00:00	7	Dirección del viento	6.44
125391	7	Sololá	713	San Lucas Tolimán	10	San Lucas Tolimán	5	Mayo	2023-05-22T00:00:00	2024-11-08T11:00:00	1	Precipitación	0
125392	7	Sololá	713	San Lucas Tolimán	10	San Lucas Tolimán	5	Mayo	2023-05-22T00:00:00	2024-11-08T11:00:00	8	Radiación solar	778
125393	7	Sololá	713	San Lucas Tolimán	10	San Lucas Tolimán	5	Mayo	2023-05-22T00:00:00	2024-11-08T12:00:00	2	Temperatura media	21.4
125394	7	Sololá	713	San Lucas Tolimán	10	San Lucas Tolimán	5	Mayo	2023-05-22T00:00:00	2024-11-08T12:00:00	4	Temperatura máxima	22.4
125395	7	Sololá	713	San Lucas Tolimán	10	San Lucas Tolimán	5	Mayo	2023-05-22T00:00:00	2024-11-08T12:00:00	3	Temperatura mínima	20.8
125396	7	Sololá	713	San Lucas Tolimán	10	San Lucas Tolimán	5	Mayo	2023-05-22T00:00:00	2024-11-08T12:00:00	5	Humedad	60
125397	7	Sololá	713	San Lucas Tolimán	10	San Lucas Tolimán	5	Mayo	2023-05-22T00:00:00	2024-11-08T12:00:00	6	Velocidad del viento	12.9
125398	7	Sololá	713	San Lucas Tolimán	10	San Lucas Tolimán	5	Mayo	2023-05-22T00:00:00	2024-11-08T12:00:00	7	Dirección del viento	12.87
125399	7	Sololá	713	San Lucas Tolimán	10	San Lucas Tolimán	5	Mayo	2023-05-22T00:00:00	2024-11-08T12:00:00	1	Precipitación	0
125400	7	Sololá	713	San Lucas Tolimán	10	San Lucas Tolimán	5	Mayo	2023-05-22T00:00:00	2024-11-08T12:00:00	8	Radiación solar	382
125401	7	Sololá	713	San Lucas Tolimán	10	San Lucas Tolimán	5	Mayo	2023-05-22T00:00:00	2024-11-08T13:00:00	2	Temperatura media	23.2
125402	7	Sololá	713	San Lucas Tolimán	10	San Lucas Tolimán	5	Mayo	2023-05-22T00:00:00	2024-11-08T13:00:00	4	Temperatura máxima	23.6
125403	7	Sololá	713	San Lucas Tolimán	10	San Lucas Tolimán	5	Mayo	2023-05-22T00:00:00	2024-11-08T13:00:00	3	Temperatura mínima	21.4
125404	7	Sololá	713	San Lucas Tolimán	10	San Lucas Tolimán	5	Mayo	2023-05-22T00:00:00	2024-11-08T13:00:00	5	Humedad	55
125405	7	Sololá	713	San Lucas Tolimán	10	San Lucas Tolimán	5	Mayo	2023-05-22T00:00:00	2024-11-08T13:00:00	6	Velocidad del viento	11.3
125406	7	Sololá	713	San Lucas Tolimán	10	San Lucas Tolimán	5	Mayo	2023-05-22T00:00:00	2024-11-08T13:00:00	7	Dirección del viento	11.27
125407	7	Sololá	713	San Lucas Tolimán	10	San Lucas Tolimán	5	Mayo	2023-05-22T00:00:00	2024-11-08T13:00:00	1	Precipitación	0
125408	7	Sololá	713	San Lucas Tolimán	10	San Lucas Tolimán	5	Mayo	2023-05-22T00:00:00	2024-11-08T13:00:00	8	Radiación solar	1003
125409	7	Sololá	713	San Lucas Tolimán	10	San Lucas Tolimán	5	Mayo	2023-05-22T00:00:00	2024-11-08T14:00:00	2	Temperatura media	23.2
125410	7	Sololá	713	San Lucas Tolimán	10	San Lucas Tolimán	5	Mayo	2023-05-22T00:00:00	2024-11-08T14:00:00	4	Temperatura máxima	24.3
125411	7	Sololá	713	San Lucas Tolimán	10	San Lucas Tolimán	5	Mayo	2023-05-22T00:00:00	2024-11-08T14:00:00	3	Temperatura mínima	22.8
125412	7	Sololá	713	San Lucas Tolimán	10	San Lucas Tolimán	5	Mayo	2023-05-22T00:00:00	2024-11-08T14:00:00	5	Humedad	57
125413	7	Sololá	713	San Lucas Tolimán	10	San Lucas Tolimán	5	Mayo	2023-05-22T00:00:00	2024-11-08T14:00:00	6	Velocidad del viento	9.7
125414	7	Sololá	713	San Lucas Tolimán	10	San Lucas Tolimán	5	Mayo	2023-05-22T00:00:00	2024-11-08T14:00:00	7	Dirección del viento	9.66
125415	7	Sololá	713	San Lucas Tolimán	10	San Lucas Tolimán	5	Mayo	2023-05-22T00:00:00	2024-11-08T14:00:00	1	Precipitación	0
125416	7	Sololá	713	San Lucas Tolimán	10	San Lucas Tolimán	5	Mayo	2023-05-22T00:00:00	2024-11-08T14:00:00	8	Radiación solar	677
125417	7	Sololá	713	San Lucas Tolimán	10	San Lucas Tolimán	5	Mayo	2023-05-22T00:00:00	2024-11-08T15:00:00	2	Temperatura media	22.2
125418	7	Sololá	713	San Lucas Tolimán	10	San Lucas Tolimán	5	Mayo	2023-05-22T00:00:00	2024-11-08T15:00:00	4	Temperatura máxima	23.2
125419	7	Sololá	713	San Lucas Tolimán	10	San Lucas Tolimán	5	Mayo	2023-05-22T00:00:00	2024-11-08T15:00:00	3	Temperatura mínima	22.2
125420	7	Sololá	713	San Lucas Tolimán	10	San Lucas Tolimán	5	Mayo	2023-05-22T00:00:00	2024-11-08T15:00:00	5	Humedad	61
125421	7	Sololá	713	San Lucas Tolimán	10	San Lucas Tolimán	5	Mayo	2023-05-22T00:00:00	2024-11-08T15:00:00	6	Velocidad del viento	9.7
125422	7	Sololá	713	San Lucas Tolimán	10	San Lucas Tolimán	5	Mayo	2023-05-22T00:00:00	2024-11-08T15:00:00	7	Dirección del viento	9.66
125423	7	Sololá	713	San Lucas Tolimán	10	San Lucas Tolimán	5	Mayo	2023-05-22T00:00:00	2024-11-08T15:00:00	1	Precipitación	0
125424	7	Sololá	713	San Lucas Tolimán	10	San Lucas Tolimán	5	Mayo	2023-05-22T00:00:00	2024-11-08T15:00:00	8	Radiación solar	330
125425	7	Sololá	713	San Lucas Tolimán	10	San Lucas Tolimán	5	Mayo	2023-05-22T00:00:00	2024-11-08T16:00:00	2	Temperatura media	22.1
125426	7	Sololá	713	San Lucas Tolimán	10	San Lucas Tolimán	5	Mayo	2023-05-22T00:00:00	2024-11-08T16:00:00	4	Temperatura máxima	22.8
125427	7	Sololá	713	San Lucas Tolimán	10	San Lucas Tolimán	5	Mayo	2023-05-22T00:00:00	2024-11-08T16:00:00	3	Temperatura mínima	22
125428	7	Sololá	713	San Lucas Tolimán	10	San Lucas Tolimán	5	Mayo	2023-05-22T00:00:00	2024-11-08T16:00:00	5	Humedad	62
125429	7	Sololá	713	San Lucas Tolimán	10	San Lucas Tolimán	5	Mayo	2023-05-22T00:00:00	2024-11-08T16:00:00	6	Velocidad del viento	8
125430	7	Sololá	713	San Lucas Tolimán	10	San Lucas Tolimán	5	Mayo	2023-05-22T00:00:00	2024-11-08T16:00:00	7	Dirección del viento	8.05
125431	7	Sololá	713	San Lucas Tolimán	10	San Lucas Tolimán	5	Mayo	2023-05-22T00:00:00	2024-11-08T16:00:00	1	Precipitación	0
125432	7	Sololá	713	San Lucas Tolimán	10	San Lucas Tolimán	5	Mayo	2023-05-22T00:00:00	2024-11-08T16:00:00	8	Radiación solar	256
125433	7	Sololá	713	San Lucas Tolimán	10	San Lucas Tolimán	5	Mayo	2023-05-22T00:00:00	2024-11-08T17:00:00	2	Temperatura media	21.9
125434	7	Sololá	713	San Lucas Tolimán	10	San Lucas Tolimán	5	Mayo	2023-05-22T00:00:00	2024-11-08T17:00:00	4	Temperatura máxima	22.1
125435	7	Sololá	713	San Lucas Tolimán	10	San Lucas Tolimán	5	Mayo	2023-05-22T00:00:00	2024-11-08T17:00:00	3	Temperatura mínima	21.6
125436	7	Sololá	713	San Lucas Tolimán	10	San Lucas Tolimán	5	Mayo	2023-05-22T00:00:00	2024-11-08T17:00:00	5	Humedad	60
125437	7	Sololá	713	San Lucas Tolimán	10	San Lucas Tolimán	5	Mayo	2023-05-22T00:00:00	2024-11-08T17:00:00	6	Velocidad del viento	8
125438	7	Sololá	713	San Lucas Tolimán	10	San Lucas Tolimán	5	Mayo	2023-05-22T00:00:00	2024-11-08T17:00:00	7	Dirección del viento	8.05
125439	7	Sololá	713	San Lucas Tolimán	10	San Lucas Tolimán	5	Mayo	2023-05-22T00:00:00	2024-11-08T17:00:00	1	Precipitación	0
125440	7	Sololá	713	San Lucas Tolimán	10	San Lucas Tolimán	5	Mayo	2023-05-22T00:00:00	2024-11-08T17:00:00	8	Radiación solar	227
125441	7	Sololá	713	San Lucas Tolimán	10	San Lucas Tolimán	5	Mayo	2023-05-22T00:00:00	2024-11-08T18:00:00	2	Temperatura media	20.7
125442	7	Sololá	713	San Lucas Tolimán	10	San Lucas Tolimán	5	Mayo	2023-05-22T00:00:00	2024-11-08T18:00:00	4	Temperatura máxima	22.1
125443	7	Sololá	713	San Lucas Tolimán	10	San Lucas Tolimán	5	Mayo	2023-05-22T00:00:00	2024-11-08T18:00:00	3	Temperatura mínima	20.7
125444	7	Sololá	713	San Lucas Tolimán	10	San Lucas Tolimán	5	Mayo	2023-05-22T00:00:00	2024-11-08T18:00:00	5	Humedad	61
125445	7	Sololá	713	San Lucas Tolimán	10	San Lucas Tolimán	5	Mayo	2023-05-22T00:00:00	2024-11-08T18:00:00	6	Velocidad del viento	6.4
125446	7	Sololá	713	San Lucas Tolimán	10	San Lucas Tolimán	5	Mayo	2023-05-22T00:00:00	2024-11-08T18:00:00	7	Dirección del viento	6.44
125447	7	Sololá	713	San Lucas Tolimán	10	San Lucas Tolimán	5	Mayo	2023-05-22T00:00:00	2024-11-08T18:00:00	1	Precipitación	0
125448	7	Sololá	713	San Lucas Tolimán	10	San Lucas Tolimán	5	Mayo	2023-05-22T00:00:00	2024-11-08T18:00:00	8	Radiación solar	102
125449	7	Sololá	713	San Lucas Tolimán	10	San Lucas Tolimán	5	Mayo	2023-05-22T00:00:00	2024-11-08T19:00:00	2	Temperatura media	19.9
125450	7	Sololá	713	San Lucas Tolimán	10	San Lucas Tolimán	5	Mayo	2023-05-22T00:00:00	2024-11-08T19:00:00	4	Temperatura máxima	20.7
125451	7	Sololá	713	San Lucas Tolimán	10	San Lucas Tolimán	5	Mayo	2023-05-22T00:00:00	2024-11-08T19:00:00	3	Temperatura mínima	19.9
125452	7	Sololá	713	San Lucas Tolimán	10	San Lucas Tolimán	5	Mayo	2023-05-22T00:00:00	2024-11-08T19:00:00	5	Humedad	62
125453	7	Sololá	713	San Lucas Tolimán	10	San Lucas Tolimán	5	Mayo	2023-05-22T00:00:00	2024-11-08T19:00:00	6	Velocidad del viento	6.4
125454	7	Sololá	713	San Lucas Tolimán	10	San Lucas Tolimán	5	Mayo	2023-05-22T00:00:00	2024-11-08T19:00:00	7	Dirección del viento	6.44
125455	7	Sololá	713	San Lucas Tolimán	10	San Lucas Tolimán	5	Mayo	2023-05-22T00:00:00	2024-11-08T19:00:00	1	Precipitación	0
125456	7	Sololá	713	San Lucas Tolimán	10	San Lucas Tolimán	5	Mayo	2023-05-22T00:00:00	2024-11-08T19:00:00	8	Radiación solar	0
125457	7	Sololá	713	San Lucas Tolimán	10	San Lucas Tolimán	5	Mayo	2023-05-22T00:00:00	2024-11-08T20:00:00	2	Temperatura media	20
125458	7	Sololá	713	San Lucas Tolimán	10	San Lucas Tolimán	5	Mayo	2023-05-22T00:00:00	2024-11-08T20:00:00	4	Temperatura máxima	20.1
125459	7	Sololá	713	San Lucas Tolimán	10	San Lucas Tolimán	5	Mayo	2023-05-22T00:00:00	2024-11-08T20:00:00	3	Temperatura mínima	19.8
125460	7	Sololá	713	San Lucas Tolimán	10	San Lucas Tolimán	5	Mayo	2023-05-22T00:00:00	2024-11-08T20:00:00	5	Humedad	61
125461	7	Sololá	713	San Lucas Tolimán	10	San Lucas Tolimán	5	Mayo	2023-05-22T00:00:00	2024-11-08T20:00:00	6	Velocidad del viento	6.4
125462	7	Sololá	713	San Lucas Tolimán	10	San Lucas Tolimán	5	Mayo	2023-05-22T00:00:00	2024-11-08T20:00:00	7	Dirección del viento	6.44
125463	7	Sololá	713	San Lucas Tolimán	10	San Lucas Tolimán	5	Mayo	2023-05-22T00:00:00	2024-11-08T20:00:00	1	Precipitación	0
125464	7	Sololá	713	San Lucas Tolimán	10	San Lucas Tolimán	5	Mayo	2023-05-22T00:00:00	2024-11-08T20:00:00	8	Radiación solar	0
125465	7	Sololá	713	San Lucas Tolimán	10	San Lucas Tolimán	5	Mayo	2023-05-22T00:00:00	2024-11-08T21:00:00	2	Temperatura media	19.6
125466	7	Sololá	713	San Lucas Tolimán	10	San Lucas Tolimán	5	Mayo	2023-05-22T00:00:00	2024-11-08T21:00:00	4	Temperatura máxima	20
125467	7	Sololá	713	San Lucas Tolimán	10	San Lucas Tolimán	5	Mayo	2023-05-22T00:00:00	2024-11-08T21:00:00	3	Temperatura mínima	19.6
125468	7	Sololá	713	San Lucas Tolimán	10	San Lucas Tolimán	5	Mayo	2023-05-22T00:00:00	2024-11-08T21:00:00	5	Humedad	62
125469	7	Sololá	713	San Lucas Tolimán	10	San Lucas Tolimán	5	Mayo	2023-05-22T00:00:00	2024-11-08T21:00:00	6	Velocidad del viento	6.4
125470	7	Sololá	713	San Lucas Tolimán	10	San Lucas Tolimán	5	Mayo	2023-05-22T00:00:00	2024-11-08T21:00:00	7	Dirección del viento	6.44
125471	7	Sololá	713	San Lucas Tolimán	10	San Lucas Tolimán	5	Mayo	2023-05-22T00:00:00	2024-11-08T21:00:00	1	Precipitación	0
125472	7	Sololá	713	San Lucas Tolimán	10	San Lucas Tolimán	5	Mayo	2023-05-22T00:00:00	2024-11-08T21:00:00	8	Radiación solar	0
125473	7	Sololá	713	San Lucas Tolimán	10	San Lucas Tolimán	5	Mayo	2023-05-22T00:00:00	2024-11-08T22:00:00	2	Temperatura media	18.7
125474	7	Sololá	713	San Lucas Tolimán	10	San Lucas Tolimán	5	Mayo	2023-05-22T00:00:00	2024-11-08T22:00:00	4	Temperatura máxima	19.6
125475	7	Sololá	713	San Lucas Tolimán	10	San Lucas Tolimán	5	Mayo	2023-05-22T00:00:00	2024-11-08T22:00:00	3	Temperatura mínima	18.7
125476	7	Sololá	713	San Lucas Tolimán	10	San Lucas Tolimán	5	Mayo	2023-05-22T00:00:00	2024-11-08T22:00:00	5	Humedad	63
125477	7	Sololá	713	San Lucas Tolimán	10	San Lucas Tolimán	5	Mayo	2023-05-22T00:00:00	2024-11-08T22:00:00	6	Velocidad del viento	6.4
125478	7	Sololá	713	San Lucas Tolimán	10	San Lucas Tolimán	5	Mayo	2023-05-22T00:00:00	2024-11-08T22:00:00	7	Dirección del viento	6.44
125479	7	Sololá	713	San Lucas Tolimán	10	San Lucas Tolimán	5	Mayo	2023-05-22T00:00:00	2024-11-08T22:00:00	1	Precipitación	0
125480	7	Sololá	713	San Lucas Tolimán	10	San Lucas Tolimán	5	Mayo	2023-05-22T00:00:00	2024-11-08T22:00:00	8	Radiación solar	0
125481	7	Sololá	713	San Lucas Tolimán	10	San Lucas Tolimán	5	Mayo	2023-05-22T00:00:00	2024-11-08T23:00:00	2	Temperatura media	18.1
125482	7	Sololá	713	San Lucas Tolimán	10	San Lucas Tolimán	5	Mayo	2023-05-22T00:00:00	2024-11-08T23:00:00	4	Temperatura máxima	18.7
125483	7	Sololá	713	San Lucas Tolimán	10	San Lucas Tolimán	5	Mayo	2023-05-22T00:00:00	2024-11-08T23:00:00	3	Temperatura mínima	18.1
125484	7	Sololá	713	San Lucas Tolimán	10	San Lucas Tolimán	5	Mayo	2023-05-22T00:00:00	2024-11-08T23:00:00	5	Humedad	65
125485	7	Sololá	713	San Lucas Tolimán	10	San Lucas Tolimán	5	Mayo	2023-05-22T00:00:00	2024-11-08T23:00:00	6	Velocidad del viento	4.8
125486	7	Sololá	713	San Lucas Tolimán	10	San Lucas Tolimán	5	Mayo	2023-05-22T00:00:00	2024-11-08T23:00:00	7	Dirección del viento	4.83
125487	7	Sololá	713	San Lucas Tolimán	10	San Lucas Tolimán	5	Mayo	2023-05-22T00:00:00	2024-11-08T23:00:00	1	Precipitación	0
125488	7	Sololá	713	San Lucas Tolimán	10	San Lucas Tolimán	5	Mayo	2023-05-22T00:00:00	2024-11-08T23:00:00	8	Radiación solar	0
125489	7	Sololá	713	San Lucas Tolimán	10	San Lucas Tolimán	5	Mayo	2023-05-23T00:00:00	2024-11-08T00:00:00	2	Temperatura media	17.9
125490	7	Sololá	713	San Lucas Tolimán	10	San Lucas Tolimán	5	Mayo	2023-05-23T00:00:00	2024-11-08T00:00:00	4	Temperatura máxima	18.2
125491	7	Sololá	713	San Lucas Tolimán	10	San Lucas Tolimán	5	Mayo	2023-05-23T00:00:00	2024-11-08T00:00:00	3	Temperatura mínima	17.9
125492	7	Sololá	713	San Lucas Tolimán	10	San Lucas Tolimán	5	Mayo	2023-05-23T00:00:00	2024-11-08T00:00:00	5	Humedad	66
125493	7	Sololá	713	San Lucas Tolimán	10	San Lucas Tolimán	5	Mayo	2023-05-23T00:00:00	2024-11-08T00:00:00	6	Velocidad del viento	8
125494	7	Sololá	713	San Lucas Tolimán	10	San Lucas Tolimán	5	Mayo	2023-05-23T00:00:00	2024-11-08T00:00:00	7	Dirección del viento	8.05
125495	7	Sololá	713	San Lucas Tolimán	10	San Lucas Tolimán	5	Mayo	2023-05-23T00:00:00	2024-11-08T00:00:00	1	Precipitación	0
125496	7	Sololá	713	San Lucas Tolimán	10	San Lucas Tolimán	5	Mayo	2023-05-23T00:00:00	2024-11-08T00:00:00	8	Radiación solar	0
125497	7	Sololá	713	San Lucas Tolimán	10	San Lucas Tolimán	5	Mayo	2023-05-23T00:00:00	2024-11-08T01:00:00	2	Temperatura media	17.7
125498	7	Sololá	713	San Lucas Tolimán	10	San Lucas Tolimán	5	Mayo	2023-05-23T00:00:00	2024-11-08T01:00:00	4	Temperatura máxima	17.9
125499	7	Sololá	713	San Lucas Tolimán	10	San Lucas Tolimán	5	Mayo	2023-05-23T00:00:00	2024-11-08T01:00:00	3	Temperatura mínima	17.7
125500	7	Sololá	713	San Lucas Tolimán	10	San Lucas Tolimán	5	Mayo	2023-05-23T00:00:00	2024-11-08T01:00:00	5	Humedad	66
125501	7	Sololá	713	San Lucas Tolimán	10	San Lucas Tolimán	5	Mayo	2023-05-23T00:00:00	2024-11-08T01:00:00	6	Velocidad del viento	8
125502	7	Sololá	713	San Lucas Tolimán	10	San Lucas Tolimán	5	Mayo	2023-05-23T00:00:00	2024-11-08T01:00:00	7	Dirección del viento	8.05
125503	7	Sololá	713	San Lucas Tolimán	10	San Lucas Tolimán	5	Mayo	2023-05-23T00:00:00	2024-11-08T01:00:00	1	Precipitación	0
125504	7	Sololá	713	San Lucas Tolimán	10	San Lucas Tolimán	5	Mayo	2023-05-23T00:00:00	2024-11-08T01:00:00	8	Radiación solar	0
125505	7	Sololá	713	San Lucas Tolimán	10	San Lucas Tolimán	5	Mayo	2023-05-23T00:00:00	2024-11-08T02:00:00	2	Temperatura media	17.2
125506	7	Sololá	713	San Lucas Tolimán	10	San Lucas Tolimán	5	Mayo	2023-05-23T00:00:00	2024-11-08T02:00:00	4	Temperatura máxima	17.7
125507	7	Sololá	713	San Lucas Tolimán	10	San Lucas Tolimán	5	Mayo	2023-05-23T00:00:00	2024-11-08T02:00:00	3	Temperatura mínima	17.1
125508	7	Sololá	713	San Lucas Tolimán	10	San Lucas Tolimán	5	Mayo	2023-05-23T00:00:00	2024-11-08T02:00:00	5	Humedad	65
125509	7	Sololá	713	San Lucas Tolimán	10	San Lucas Tolimán	5	Mayo	2023-05-23T00:00:00	2024-11-08T02:00:00	6	Velocidad del viento	4.8
125510	7	Sololá	713	San Lucas Tolimán	10	San Lucas Tolimán	5	Mayo	2023-05-23T00:00:00	2024-11-08T02:00:00	7	Dirección del viento	4.83
125511	7	Sololá	713	San Lucas Tolimán	10	San Lucas Tolimán	5	Mayo	2023-05-23T00:00:00	2024-11-08T02:00:00	1	Precipitación	0
125512	7	Sololá	713	San Lucas Tolimán	10	San Lucas Tolimán	5	Mayo	2023-05-23T00:00:00	2024-11-08T02:00:00	8	Radiación solar	0
125513	7	Sololá	713	San Lucas Tolimán	10	San Lucas Tolimán	5	Mayo	2023-05-23T00:00:00	2024-11-08T03:00:00	2	Temperatura media	16.7
125514	7	Sololá	713	San Lucas Tolimán	10	San Lucas Tolimán	5	Mayo	2023-05-23T00:00:00	2024-11-08T03:00:00	4	Temperatura máxima	17.2
125515	7	Sololá	713	San Lucas Tolimán	10	San Lucas Tolimán	5	Mayo	2023-05-23T00:00:00	2024-11-08T03:00:00	3	Temperatura mínima	16.7
125516	7	Sololá	713	San Lucas Tolimán	10	San Lucas Tolimán	5	Mayo	2023-05-23T00:00:00	2024-11-08T03:00:00	5	Humedad	62
125517	7	Sololá	713	San Lucas Tolimán	10	San Lucas Tolimán	5	Mayo	2023-05-23T00:00:00	2024-11-08T03:00:00	6	Velocidad del viento	1.6
125518	7	Sololá	713	San Lucas Tolimán	10	San Lucas Tolimán	5	Mayo	2023-05-23T00:00:00	2024-11-08T03:00:00	7	Dirección del viento	1.61
125519	7	Sololá	713	San Lucas Tolimán	10	San Lucas Tolimán	5	Mayo	2023-05-23T00:00:00	2024-11-08T03:00:00	1	Precipitación	0
125520	7	Sololá	713	San Lucas Tolimán	10	San Lucas Tolimán	5	Mayo	2023-05-23T00:00:00	2024-11-08T03:00:00	8	Radiación solar	0
125521	7	Sololá	713	San Lucas Tolimán	10	San Lucas Tolimán	5	Mayo	2023-05-23T00:00:00	2024-11-08T04:00:00	2	Temperatura media	16.6
125522	7	Sololá	713	San Lucas Tolimán	10	San Lucas Tolimán	5	Mayo	2023-05-23T00:00:00	2024-11-08T04:00:00	4	Temperatura máxima	16.9
125523	7	Sololá	713	San Lucas Tolimán	10	San Lucas Tolimán	5	Mayo	2023-05-23T00:00:00	2024-11-08T04:00:00	3	Temperatura mínima	16.5
125524	7	Sololá	713	San Lucas Tolimán	10	San Lucas Tolimán	5	Mayo	2023-05-23T00:00:00	2024-11-08T04:00:00	5	Humedad	62
125525	7	Sololá	713	San Lucas Tolimán	10	San Lucas Tolimán	5	Mayo	2023-05-23T00:00:00	2024-11-08T04:00:00	6	Velocidad del viento	1.6
125526	7	Sololá	713	San Lucas Tolimán	10	San Lucas Tolimán	5	Mayo	2023-05-23T00:00:00	2024-11-08T04:00:00	7	Dirección del viento	1.61
125527	7	Sololá	713	San Lucas Tolimán	10	San Lucas Tolimán	5	Mayo	2023-05-23T00:00:00	2024-11-08T04:00:00	1	Precipitación	0
125528	7	Sololá	713	San Lucas Tolimán	10	San Lucas Tolimán	5	Mayo	2023-05-23T00:00:00	2024-11-08T04:00:00	8	Radiación solar	0
125529	7	Sololá	713	San Lucas Tolimán	10	San Lucas Tolimán	5	Mayo	2023-05-23T00:00:00	2024-11-08T05:00:00	2	Temperatura media	16.7
125530	7	Sololá	713	San Lucas Tolimán	10	San Lucas Tolimán	5	Mayo	2023-05-23T00:00:00	2024-11-08T05:00:00	4	Temperatura máxima	16.7
125531	7	Sololá	713	San Lucas Tolimán	10	San Lucas Tolimán	5	Mayo	2023-05-23T00:00:00	2024-11-08T05:00:00	3	Temperatura mínima	16.4
125532	7	Sololá	713	San Lucas Tolimán	10	San Lucas Tolimán	5	Mayo	2023-05-23T00:00:00	2024-11-08T05:00:00	5	Humedad	61
125533	7	Sololá	713	San Lucas Tolimán	10	San Lucas Tolimán	5	Mayo	2023-05-23T00:00:00	2024-11-08T05:00:00	6	Velocidad del viento	0
125534	7	Sololá	713	San Lucas Tolimán	10	San Lucas Tolimán	5	Mayo	2023-05-23T00:00:00	2024-11-08T05:00:00	7	Dirección del viento	0
125535	7	Sololá	713	San Lucas Tolimán	10	San Lucas Tolimán	5	Mayo	2023-05-23T00:00:00	2024-11-08T05:00:00	1	Precipitación	0
125536	7	Sololá	713	San Lucas Tolimán	10	San Lucas Tolimán	5	Mayo	2023-05-23T00:00:00	2024-11-08T05:00:00	8	Radiación solar	0
125537	7	Sololá	713	San Lucas Tolimán	10	San Lucas Tolimán	5	Mayo	2023-05-23T00:00:00	2024-11-08T06:00:00	2	Temperatura media	17
125538	7	Sololá	713	San Lucas Tolimán	10	San Lucas Tolimán	5	Mayo	2023-05-23T00:00:00	2024-11-08T06:00:00	4	Temperatura máxima	17
125539	7	Sololá	713	San Lucas Tolimán	10	San Lucas Tolimán	5	Mayo	2023-05-23T00:00:00	2024-11-08T06:00:00	3	Temperatura mínima	16.4
125540	7	Sololá	713	San Lucas Tolimán	10	San Lucas Tolimán	5	Mayo	2023-05-23T00:00:00	2024-11-08T06:00:00	5	Humedad	59
125541	7	Sololá	713	San Lucas Tolimán	10	San Lucas Tolimán	5	Mayo	2023-05-23T00:00:00	2024-11-08T06:00:00	6	Velocidad del viento	0
125542	7	Sololá	713	San Lucas Tolimán	10	San Lucas Tolimán	5	Mayo	2023-05-23T00:00:00	2024-11-08T06:00:00	7	Dirección del viento	0
125543	7	Sololá	713	San Lucas Tolimán	10	San Lucas Tolimán	5	Mayo	2023-05-23T00:00:00	2024-11-08T06:00:00	1	Precipitación	0
125544	7	Sololá	713	San Lucas Tolimán	10	San Lucas Tolimán	5	Mayo	2023-05-23T00:00:00	2024-11-08T06:00:00	8	Radiación solar	9
125545	7	Sololá	713	San Lucas Tolimán	10	San Lucas Tolimán	5	Mayo	2023-05-23T00:00:00	2024-11-08T07:00:00	2	Temperatura media	18.7
125546	7	Sololá	713	San Lucas Tolimán	10	San Lucas Tolimán	5	Mayo	2023-05-23T00:00:00	2024-11-08T07:00:00	4	Temperatura máxima	18.7
125547	7	Sololá	713	San Lucas Tolimán	10	San Lucas Tolimán	5	Mayo	2023-05-23T00:00:00	2024-11-08T07:00:00	3	Temperatura mínima	17
125548	7	Sololá	713	San Lucas Tolimán	10	San Lucas Tolimán	5	Mayo	2023-05-23T00:00:00	2024-11-08T07:00:00	5	Humedad	57
125549	7	Sololá	713	San Lucas Tolimán	10	San Lucas Tolimán	5	Mayo	2023-05-23T00:00:00	2024-11-08T07:00:00	6	Velocidad del viento	0
125550	7	Sololá	713	San Lucas Tolimán	10	San Lucas Tolimán	5	Mayo	2023-05-23T00:00:00	2024-11-08T07:00:00	7	Dirección del viento	0
125551	7	Sololá	713	San Lucas Tolimán	10	San Lucas Tolimán	5	Mayo	2023-05-23T00:00:00	2024-11-08T07:00:00	1	Precipitación	0
125552	7	Sololá	713	San Lucas Tolimán	10	San Lucas Tolimán	5	Mayo	2023-05-23T00:00:00	2024-11-08T07:00:00	8	Radiación solar	96
125553	7	Sololá	713	San Lucas Tolimán	10	San Lucas Tolimán	5	Mayo	2023-05-23T00:00:00	2024-11-08T08:00:00	2	Temperatura media	21.4
125554	7	Sololá	713	San Lucas Tolimán	10	San Lucas Tolimán	5	Mayo	2023-05-23T00:00:00	2024-11-08T08:00:00	4	Temperatura máxima	21.4
125555	7	Sololá	713	San Lucas Tolimán	10	San Lucas Tolimán	5	Mayo	2023-05-23T00:00:00	2024-11-08T08:00:00	3	Temperatura mínima	18.7
125556	7	Sololá	713	San Lucas Tolimán	10	San Lucas Tolimán	5	Mayo	2023-05-23T00:00:00	2024-11-08T08:00:00	5	Humedad	55
125557	7	Sololá	713	San Lucas Tolimán	10	San Lucas Tolimán	5	Mayo	2023-05-23T00:00:00	2024-11-08T08:00:00	6	Velocidad del viento	4.8
125558	7	Sololá	713	San Lucas Tolimán	10	San Lucas Tolimán	5	Mayo	2023-05-23T00:00:00	2024-11-08T08:00:00	7	Dirección del viento	4.83
125559	7	Sololá	713	San Lucas Tolimán	10	San Lucas Tolimán	5	Mayo	2023-05-23T00:00:00	2024-11-08T08:00:00	1	Precipitación	0
125560	7	Sololá	713	San Lucas Tolimán	10	San Lucas Tolimán	5	Mayo	2023-05-23T00:00:00	2024-11-08T08:00:00	8	Radiación solar	328
125561	7	Sololá	713	San Lucas Tolimán	10	San Lucas Tolimán	5	Mayo	2023-05-23T00:00:00	2024-11-08T09:00:00	2	Temperatura media	22.3
125562	7	Sololá	713	San Lucas Tolimán	10	San Lucas Tolimán	5	Mayo	2023-05-23T00:00:00	2024-11-08T09:00:00	4	Temperatura máxima	22.9
125563	7	Sololá	713	San Lucas Tolimán	10	San Lucas Tolimán	5	Mayo	2023-05-23T00:00:00	2024-11-08T09:00:00	3	Temperatura mínima	21.4
125564	7	Sololá	713	San Lucas Tolimán	10	San Lucas Tolimán	5	Mayo	2023-05-23T00:00:00	2024-11-08T09:00:00	5	Humedad	58
125565	7	Sololá	713	San Lucas Tolimán	10	San Lucas Tolimán	5	Mayo	2023-05-23T00:00:00	2024-11-08T09:00:00	6	Velocidad del viento	4.8
125566	7	Sololá	713	San Lucas Tolimán	10	San Lucas Tolimán	5	Mayo	2023-05-23T00:00:00	2024-11-08T09:00:00	7	Dirección del viento	4.83
125567	7	Sololá	713	San Lucas Tolimán	10	San Lucas Tolimán	5	Mayo	2023-05-23T00:00:00	2024-11-08T09:00:00	1	Precipitación	0
125568	7	Sololá	713	San Lucas Tolimán	10	San Lucas Tolimán	5	Mayo	2023-05-23T00:00:00	2024-11-08T09:00:00	8	Radiación solar	604
125569	7	Sololá	713	San Lucas Tolimán	10	San Lucas Tolimán	5	Mayo	2023-05-23T00:00:00	2024-11-08T10:00:00	2	Temperatura media	23.3
125570	7	Sololá	713	San Lucas Tolimán	10	San Lucas Tolimán	5	Mayo	2023-05-23T00:00:00	2024-11-08T10:00:00	4	Temperatura máxima	23.3
125571	7	Sololá	713	San Lucas Tolimán	10	San Lucas Tolimán	5	Mayo	2023-05-23T00:00:00	2024-11-08T10:00:00	3	Temperatura mínima	22.3
125572	7	Sololá	713	San Lucas Tolimán	10	San Lucas Tolimán	5	Mayo	2023-05-23T00:00:00	2024-11-08T10:00:00	5	Humedad	57
125573	7	Sololá	713	San Lucas Tolimán	10	San Lucas Tolimán	5	Mayo	2023-05-23T00:00:00	2024-11-08T10:00:00	6	Velocidad del viento	8
125574	7	Sololá	713	San Lucas Tolimán	10	San Lucas Tolimán	5	Mayo	2023-05-23T00:00:00	2024-11-08T10:00:00	7	Dirección del viento	8.05
125575	7	Sololá	713	San Lucas Tolimán	10	San Lucas Tolimán	5	Mayo	2023-05-23T00:00:00	2024-11-08T10:00:00	1	Precipitación	0
125576	7	Sololá	713	San Lucas Tolimán	10	San Lucas Tolimán	5	Mayo	2023-05-23T00:00:00	2024-11-08T10:00:00	8	Radiación solar	767
125577	7	Sololá	713	San Lucas Tolimán	10	San Lucas Tolimán	5	Mayo	2023-05-23T00:00:00	2024-11-08T11:00:00	2	Temperatura media	23.3
125578	7	Sololá	713	San Lucas Tolimán	10	San Lucas Tolimán	5	Mayo	2023-05-23T00:00:00	2024-11-08T11:00:00	4	Temperatura máxima	23.8
125579	7	Sololá	713	San Lucas Tolimán	10	San Lucas Tolimán	5	Mayo	2023-05-23T00:00:00	2024-11-08T11:00:00	3	Temperatura mínima	23.1
125580	7	Sololá	713	San Lucas Tolimán	10	San Lucas Tolimán	5	Mayo	2023-05-23T00:00:00	2024-11-08T11:00:00	5	Humedad	60
125581	7	Sololá	713	San Lucas Tolimán	10	San Lucas Tolimán	5	Mayo	2023-05-23T00:00:00	2024-11-08T11:00:00	6	Velocidad del viento	11.3
125582	7	Sololá	713	San Lucas Tolimán	10	San Lucas Tolimán	5	Mayo	2023-05-23T00:00:00	2024-11-08T11:00:00	7	Dirección del viento	11.27
125583	7	Sololá	713	San Lucas Tolimán	10	San Lucas Tolimán	5	Mayo	2023-05-23T00:00:00	2024-11-08T11:00:00	1	Precipitación	0
125584	7	Sololá	713	San Lucas Tolimán	10	San Lucas Tolimán	5	Mayo	2023-05-23T00:00:00	2024-11-08T11:00:00	8	Radiación solar	1002
125585	7	Sololá	713	San Lucas Tolimán	10	San Lucas Tolimán	5	Mayo	2023-05-23T00:00:00	2024-11-08T12:00:00	2	Temperatura media	23.1
125586	7	Sololá	713	San Lucas Tolimán	10	San Lucas Tolimán	5	Mayo	2023-05-23T00:00:00	2024-11-08T12:00:00	4	Temperatura máxima	23.4
125587	7	Sololá	713	San Lucas Tolimán	10	San Lucas Tolimán	5	Mayo	2023-05-23T00:00:00	2024-11-08T12:00:00	3	Temperatura mínima	22.4
125588	7	Sololá	713	San Lucas Tolimán	10	San Lucas Tolimán	5	Mayo	2023-05-23T00:00:00	2024-11-08T12:00:00	5	Humedad	61
125589	7	Sololá	713	San Lucas Tolimán	10	San Lucas Tolimán	5	Mayo	2023-05-23T00:00:00	2024-11-08T12:00:00	6	Velocidad del viento	11.3
125590	7	Sololá	713	San Lucas Tolimán	10	San Lucas Tolimán	5	Mayo	2023-05-23T00:00:00	2024-11-08T12:00:00	7	Dirección del viento	11.27
125591	7	Sololá	713	San Lucas Tolimán	10	San Lucas Tolimán	5	Mayo	2023-05-23T00:00:00	2024-11-08T12:00:00	1	Precipitación	0
125592	7	Sololá	713	San Lucas Tolimán	10	San Lucas Tolimán	5	Mayo	2023-05-23T00:00:00	2024-11-08T12:00:00	8	Radiación solar	1109
125593	7	Sololá	713	San Lucas Tolimán	10	San Lucas Tolimán	5	Mayo	2023-05-23T00:00:00	2024-11-08T13:00:00	2	Temperatura media	23.6
125594	7	Sololá	713	San Lucas Tolimán	10	San Lucas Tolimán	5	Mayo	2023-05-23T00:00:00	2024-11-08T13:00:00	4	Temperatura máxima	24.6
125595	7	Sololá	713	San Lucas Tolimán	10	San Lucas Tolimán	5	Mayo	2023-05-23T00:00:00	2024-11-08T13:00:00	3	Temperatura mínima	22.9
125596	7	Sololá	713	San Lucas Tolimán	10	San Lucas Tolimán	5	Mayo	2023-05-23T00:00:00	2024-11-08T13:00:00	5	Humedad	60
125597	7	Sololá	713	San Lucas Tolimán	10	San Lucas Tolimán	5	Mayo	2023-05-23T00:00:00	2024-11-08T13:00:00	6	Velocidad del viento	9.7
125598	7	Sololá	713	San Lucas Tolimán	10	San Lucas Tolimán	5	Mayo	2023-05-23T00:00:00	2024-11-08T13:00:00	7	Dirección del viento	9.66
125599	7	Sololá	713	San Lucas Tolimán	10	San Lucas Tolimán	5	Mayo	2023-05-23T00:00:00	2024-11-08T13:00:00	1	Precipitación	0
125600	7	Sololá	713	San Lucas Tolimán	10	San Lucas Tolimán	5	Mayo	2023-05-23T00:00:00	2024-11-08T13:00:00	8	Radiación solar	1152
125601	7	Sololá	713	San Lucas Tolimán	10	San Lucas Tolimán	5	Mayo	2023-05-23T00:00:00	2024-11-08T14:00:00	2	Temperatura media	24.1
125602	7	Sololá	713	San Lucas Tolimán	10	San Lucas Tolimán	5	Mayo	2023-05-23T00:00:00	2024-11-08T14:00:00	4	Temperatura máxima	24.4
125603	7	Sololá	713	San Lucas Tolimán	10	San Lucas Tolimán	5	Mayo	2023-05-23T00:00:00	2024-11-08T14:00:00	3	Temperatura mínima	23.4
125604	7	Sololá	713	San Lucas Tolimán	10	San Lucas Tolimán	5	Mayo	2023-05-23T00:00:00	2024-11-08T14:00:00	5	Humedad	56
125605	7	Sololá	713	San Lucas Tolimán	10	San Lucas Tolimán	5	Mayo	2023-05-23T00:00:00	2024-11-08T14:00:00	6	Velocidad del viento	9.7
125606	7	Sololá	713	San Lucas Tolimán	10	San Lucas Tolimán	5	Mayo	2023-05-23T00:00:00	2024-11-08T14:00:00	7	Dirección del viento	9.66
125607	7	Sololá	713	San Lucas Tolimán	10	San Lucas Tolimán	5	Mayo	2023-05-23T00:00:00	2024-11-08T14:00:00	1	Precipitación	0
125608	7	Sololá	713	San Lucas Tolimán	10	San Lucas Tolimán	5	Mayo	2023-05-23T00:00:00	2024-11-08T14:00:00	8	Radiación solar	994
125609	7	Sololá	713	San Lucas Tolimán	10	San Lucas Tolimán	5	Mayo	2023-05-23T00:00:00	2024-11-08T15:00:00	2	Temperatura media	23.3
125610	7	Sololá	713	San Lucas Tolimán	10	San Lucas Tolimán	5	Mayo	2023-05-23T00:00:00	2024-11-08T15:00:00	4	Temperatura máxima	24.1
125611	7	Sololá	713	San Lucas Tolimán	10	San Lucas Tolimán	5	Mayo	2023-05-23T00:00:00	2024-11-08T15:00:00	3	Temperatura mínima	22.9
125612	7	Sololá	713	San Lucas Tolimán	10	San Lucas Tolimán	5	Mayo	2023-05-23T00:00:00	2024-11-08T15:00:00	5	Humedad	60
125613	7	Sololá	713	San Lucas Tolimán	10	San Lucas Tolimán	5	Mayo	2023-05-23T00:00:00	2024-11-08T15:00:00	6	Velocidad del viento	9.7
125614	7	Sololá	713	San Lucas Tolimán	10	San Lucas Tolimán	5	Mayo	2023-05-23T00:00:00	2024-11-08T15:00:00	7	Dirección del viento	9.66
125615	7	Sololá	713	San Lucas Tolimán	10	San Lucas Tolimán	5	Mayo	2023-05-23T00:00:00	2024-11-08T15:00:00	1	Precipitación	0
125616	7	Sololá	713	San Lucas Tolimán	10	San Lucas Tolimán	5	Mayo	2023-05-23T00:00:00	2024-11-08T15:00:00	8	Radiación solar	605
125617	7	Sololá	713	San Lucas Tolimán	10	San Lucas Tolimán	5	Mayo	2023-05-23T00:00:00	2024-11-08T16:00:00	2	Temperatura media	22.3
125618	7	Sololá	713	San Lucas Tolimán	10	San Lucas Tolimán	5	Mayo	2023-05-23T00:00:00	2024-11-08T16:00:00	4	Temperatura máxima	23.7
125619	7	Sololá	713	San Lucas Tolimán	10	San Lucas Tolimán	5	Mayo	2023-05-23T00:00:00	2024-11-08T16:00:00	3	Temperatura mínima	22.2
125620	7	Sololá	713	San Lucas Tolimán	10	San Lucas Tolimán	5	Mayo	2023-05-23T00:00:00	2024-11-08T16:00:00	5	Humedad	62
125621	7	Sololá	713	San Lucas Tolimán	10	San Lucas Tolimán	5	Mayo	2023-05-23T00:00:00	2024-11-08T16:00:00	6	Velocidad del viento	8
125622	7	Sololá	713	San Lucas Tolimán	10	San Lucas Tolimán	5	Mayo	2023-05-23T00:00:00	2024-11-08T16:00:00	7	Dirección del viento	8.05
125623	7	Sololá	713	San Lucas Tolimán	10	San Lucas Tolimán	5	Mayo	2023-05-23T00:00:00	2024-11-08T16:00:00	1	Precipitación	0
125624	7	Sololá	713	San Lucas Tolimán	10	San Lucas Tolimán	5	Mayo	2023-05-23T00:00:00	2024-11-08T16:00:00	8	Radiación solar	380
125625	7	Sololá	713	San Lucas Tolimán	10	San Lucas Tolimán	5	Mayo	2023-05-23T00:00:00	2024-11-08T17:00:00	2	Temperatura media	21.2
125626	7	Sololá	713	San Lucas Tolimán	10	San Lucas Tolimán	5	Mayo	2023-05-23T00:00:00	2024-11-08T17:00:00	4	Temperatura máxima	22.3
125627	7	Sololá	713	San Lucas Tolimán	10	San Lucas Tolimán	5	Mayo	2023-05-23T00:00:00	2024-11-08T17:00:00	3	Temperatura mínima	21.2
125628	7	Sololá	713	San Lucas Tolimán	10	San Lucas Tolimán	5	Mayo	2023-05-23T00:00:00	2024-11-08T17:00:00	5	Humedad	62
125629	7	Sololá	713	San Lucas Tolimán	10	San Lucas Tolimán	5	Mayo	2023-05-23T00:00:00	2024-11-08T17:00:00	6	Velocidad del viento	8
125630	7	Sololá	713	San Lucas Tolimán	10	San Lucas Tolimán	5	Mayo	2023-05-23T00:00:00	2024-11-08T17:00:00	7	Dirección del viento	8.05
125631	7	Sololá	713	San Lucas Tolimán	10	San Lucas Tolimán	5	Mayo	2023-05-23T00:00:00	2024-11-08T17:00:00	1	Precipitación	0
125632	7	Sololá	713	San Lucas Tolimán	10	San Lucas Tolimán	5	Mayo	2023-05-23T00:00:00	2024-11-08T17:00:00	8	Radiación solar	164
125633	7	Sololá	713	San Lucas Tolimán	10	San Lucas Tolimán	5	Mayo	2023-05-23T00:00:00	2024-11-08T18:00:00	2	Temperatura media	20.7
125634	7	Sololá	713	San Lucas Tolimán	10	San Lucas Tolimán	5	Mayo	2023-05-23T00:00:00	2024-11-08T18:00:00	4	Temperatura máxima	21.4
125635	7	Sololá	713	San Lucas Tolimán	10	San Lucas Tolimán	5	Mayo	2023-05-23T00:00:00	2024-11-08T18:00:00	3	Temperatura mínima	20.7
125636	7	Sololá	713	San Lucas Tolimán	10	San Lucas Tolimán	5	Mayo	2023-05-23T00:00:00	2024-11-08T18:00:00	5	Humedad	63
125637	7	Sololá	713	San Lucas Tolimán	10	San Lucas Tolimán	5	Mayo	2023-05-23T00:00:00	2024-11-08T18:00:00	6	Velocidad del viento	6.4
125638	7	Sololá	713	San Lucas Tolimán	10	San Lucas Tolimán	5	Mayo	2023-05-23T00:00:00	2024-11-08T18:00:00	7	Dirección del viento	6.44
125639	7	Sololá	713	San Lucas Tolimán	10	San Lucas Tolimán	5	Mayo	2023-05-23T00:00:00	2024-11-08T18:00:00	1	Precipitación	0
125640	7	Sololá	713	San Lucas Tolimán	10	San Lucas Tolimán	5	Mayo	2023-05-23T00:00:00	2024-11-08T18:00:00	8	Radiación solar	43
125641	7	Sololá	713	San Lucas Tolimán	10	San Lucas Tolimán	5	Mayo	2023-05-23T00:00:00	2024-11-08T19:00:00	2	Temperatura media	20.3
125642	7	Sololá	713	San Lucas Tolimán	10	San Lucas Tolimán	5	Mayo	2023-05-23T00:00:00	2024-11-08T19:00:00	4	Temperatura máxima	20.8
125643	7	Sololá	713	San Lucas Tolimán	10	San Lucas Tolimán	5	Mayo	2023-05-23T00:00:00	2024-11-08T19:00:00	3	Temperatura mínima	20.2
125644	7	Sololá	713	San Lucas Tolimán	10	San Lucas Tolimán	5	Mayo	2023-05-23T00:00:00	2024-11-08T19:00:00	5	Humedad	62
125645	7	Sololá	713	San Lucas Tolimán	10	San Lucas Tolimán	5	Mayo	2023-05-23T00:00:00	2024-11-08T19:00:00	6	Velocidad del viento	6.4
125646	7	Sololá	713	San Lucas Tolimán	10	San Lucas Tolimán	5	Mayo	2023-05-23T00:00:00	2024-11-08T19:00:00	7	Dirección del viento	6.44
125647	7	Sololá	713	San Lucas Tolimán	10	San Lucas Tolimán	5	Mayo	2023-05-23T00:00:00	2024-11-08T19:00:00	1	Precipitación	0
125648	7	Sololá	713	San Lucas Tolimán	10	San Lucas Tolimán	5	Mayo	2023-05-23T00:00:00	2024-11-08T19:00:00	8	Radiación solar	0
125649	7	Sololá	713	San Lucas Tolimán	10	San Lucas Tolimán	5	Mayo	2023-05-23T00:00:00	2024-11-08T20:00:00	2	Temperatura media	20.1
125650	7	Sololá	713	San Lucas Tolimán	10	San Lucas Tolimán	5	Mayo	2023-05-23T00:00:00	2024-11-08T20:00:00	4	Temperatura máxima	20.3
125651	7	Sololá	713	San Lucas Tolimán	10	San Lucas Tolimán	5	Mayo	2023-05-23T00:00:00	2024-11-08T20:00:00	3	Temperatura mínima	19.9
125652	7	Sololá	713	San Lucas Tolimán	10	San Lucas Tolimán	5	Mayo	2023-05-23T00:00:00	2024-11-08T20:00:00	5	Humedad	61
125653	7	Sololá	713	San Lucas Tolimán	10	San Lucas Tolimán	5	Mayo	2023-05-23T00:00:00	2024-11-08T20:00:00	6	Velocidad del viento	4.8
125654	7	Sololá	713	San Lucas Tolimán	10	San Lucas Tolimán	5	Mayo	2023-05-23T00:00:00	2024-11-08T20:00:00	7	Dirección del viento	4.83
125655	7	Sololá	713	San Lucas Tolimán	10	San Lucas Tolimán	5	Mayo	2023-05-23T00:00:00	2024-11-08T20:00:00	1	Precipitación	0
125656	7	Sololá	713	San Lucas Tolimán	10	San Lucas Tolimán	5	Mayo	2023-05-23T00:00:00	2024-11-08T20:00:00	8	Radiación solar	0
125657	7	Sololá	713	San Lucas Tolimán	10	San Lucas Tolimán	5	Mayo	2023-05-23T00:00:00	2024-11-08T21:00:00	2	Temperatura media	20.1
125658	7	Sololá	713	San Lucas Tolimán	10	San Lucas Tolimán	5	Mayo	2023-05-23T00:00:00	2024-11-08T21:00:00	4	Temperatura máxima	20.2
125659	7	Sololá	713	San Lucas Tolimán	10	San Lucas Tolimán	5	Mayo	2023-05-23T00:00:00	2024-11-08T21:00:00	3	Temperatura mínima	19.9
125660	7	Sololá	713	San Lucas Tolimán	10	San Lucas Tolimán	5	Mayo	2023-05-23T00:00:00	2024-11-08T21:00:00	5	Humedad	60
125661	7	Sololá	713	San Lucas Tolimán	10	San Lucas Tolimán	5	Mayo	2023-05-23T00:00:00	2024-11-08T21:00:00	6	Velocidad del viento	4.8
125662	7	Sololá	713	San Lucas Tolimán	10	San Lucas Tolimán	5	Mayo	2023-05-23T00:00:00	2024-11-08T21:00:00	7	Dirección del viento	4.83
125663	7	Sololá	713	San Lucas Tolimán	10	San Lucas Tolimán	5	Mayo	2023-05-23T00:00:00	2024-11-08T21:00:00	1	Precipitación	0
125664	7	Sololá	713	San Lucas Tolimán	10	San Lucas Tolimán	5	Mayo	2023-05-23T00:00:00	2024-11-08T21:00:00	8	Radiación solar	0
125665	7	Sololá	713	San Lucas Tolimán	10	San Lucas Tolimán	5	Mayo	2023-05-23T00:00:00	2024-11-08T22:00:00	2	Temperatura media	19.1
125666	7	Sololá	713	San Lucas Tolimán	10	San Lucas Tolimán	5	Mayo	2023-05-23T00:00:00	2024-11-08T22:00:00	4	Temperatura máxima	20.2
125667	7	Sololá	713	San Lucas Tolimán	10	San Lucas Tolimán	5	Mayo	2023-05-23T00:00:00	2024-11-08T22:00:00	3	Temperatura mínima	19.1
125668	7	Sololá	713	San Lucas Tolimán	10	San Lucas Tolimán	5	Mayo	2023-05-23T00:00:00	2024-11-08T22:00:00	5	Humedad	61
125669	7	Sololá	713	San Lucas Tolimán	10	San Lucas Tolimán	5	Mayo	2023-05-23T00:00:00	2024-11-08T22:00:00	6	Velocidad del viento	3.2
125670	7	Sololá	713	San Lucas Tolimán	10	San Lucas Tolimán	5	Mayo	2023-05-23T00:00:00	2024-11-08T22:00:00	7	Dirección del viento	3.22
125671	7	Sololá	713	San Lucas Tolimán	10	San Lucas Tolimán	5	Mayo	2023-05-23T00:00:00	2024-11-08T22:00:00	1	Precipitación	0
125672	7	Sololá	713	San Lucas Tolimán	10	San Lucas Tolimán	5	Mayo	2023-05-23T00:00:00	2024-11-08T22:00:00	8	Radiación solar	0
125673	7	Sololá	713	San Lucas Tolimán	10	San Lucas Tolimán	5	Mayo	2023-05-23T00:00:00	2024-11-08T23:00:00	2	Temperatura media	18.3
125674	7	Sololá	713	San Lucas Tolimán	10	San Lucas Tolimán	5	Mayo	2023-05-23T00:00:00	2024-11-08T23:00:00	4	Temperatura máxima	19.1
125675	7	Sololá	713	San Lucas Tolimán	10	San Lucas Tolimán	5	Mayo	2023-05-23T00:00:00	2024-11-08T23:00:00	3	Temperatura mínima	18.3
125676	7	Sololá	713	San Lucas Tolimán	10	San Lucas Tolimán	5	Mayo	2023-05-23T00:00:00	2024-11-08T23:00:00	5	Humedad	60
125677	7	Sololá	713	San Lucas Tolimán	10	San Lucas Tolimán	5	Mayo	2023-05-23T00:00:00	2024-11-08T23:00:00	6	Velocidad del viento	3.2
125678	7	Sololá	713	San Lucas Tolimán	10	San Lucas Tolimán	5	Mayo	2023-05-23T00:00:00	2024-11-08T23:00:00	7	Dirección del viento	3.22
125679	7	Sololá	713	San Lucas Tolimán	10	San Lucas Tolimán	5	Mayo	2023-05-23T00:00:00	2024-11-08T23:00:00	1	Precipitación	0
125680	7	Sololá	713	San Lucas Tolimán	10	San Lucas Tolimán	5	Mayo	2023-05-23T00:00:00	2024-11-08T23:00:00	8	Radiación solar	0
125681	7	Sololá	713	San Lucas Tolimán	10	San Lucas Tolimán	5	Mayo	2023-05-24T00:00:00	2024-11-08T00:00:00	2	Temperatura media	17.6
125682	7	Sololá	713	San Lucas Tolimán	10	San Lucas Tolimán	5	Mayo	2023-05-24T00:00:00	2024-11-08T00:00:00	4	Temperatura máxima	18.3
125683	7	Sololá	713	San Lucas Tolimán	10	San Lucas Tolimán	5	Mayo	2023-05-24T00:00:00	2024-11-08T00:00:00	3	Temperatura mínima	17.6
125684	7	Sololá	713	San Lucas Tolimán	10	San Lucas Tolimán	5	Mayo	2023-05-24T00:00:00	2024-11-08T00:00:00	5	Humedad	61
125685	7	Sololá	713	San Lucas Tolimán	10	San Lucas Tolimán	5	Mayo	2023-05-24T00:00:00	2024-11-08T00:00:00	6	Velocidad del viento	3.2
125686	7	Sololá	713	San Lucas Tolimán	10	San Lucas Tolimán	5	Mayo	2023-05-24T00:00:00	2024-11-08T00:00:00	7	Dirección del viento	3.22
125687	7	Sololá	713	San Lucas Tolimán	10	San Lucas Tolimán	5	Mayo	2023-05-24T00:00:00	2024-11-08T00:00:00	1	Precipitación	0
125688	7	Sololá	713	San Lucas Tolimán	10	San Lucas Tolimán	5	Mayo	2023-05-24T00:00:00	2024-11-08T00:00:00	8	Radiación solar	0
125689	7	Sololá	713	San Lucas Tolimán	10	San Lucas Tolimán	5	Mayo	2023-05-24T00:00:00	2024-11-08T01:00:00	2	Temperatura media	17.4
125690	7	Sololá	713	San Lucas Tolimán	10	San Lucas Tolimán	5	Mayo	2023-05-24T00:00:00	2024-11-08T01:00:00	4	Temperatura máxima	17.8
125691	7	Sololá	713	San Lucas Tolimán	10	San Lucas Tolimán	5	Mayo	2023-05-24T00:00:00	2024-11-08T01:00:00	3	Temperatura mínima	17.4
125692	7	Sololá	713	San Lucas Tolimán	10	San Lucas Tolimán	5	Mayo	2023-05-24T00:00:00	2024-11-08T01:00:00	5	Humedad	59
125693	7	Sololá	713	San Lucas Tolimán	10	San Lucas Tolimán	5	Mayo	2023-05-24T00:00:00	2024-11-08T01:00:00	6	Velocidad del viento	3.2
125694	7	Sololá	713	San Lucas Tolimán	10	San Lucas Tolimán	5	Mayo	2023-05-24T00:00:00	2024-11-08T01:00:00	7	Dirección del viento	3.22
125695	7	Sololá	713	San Lucas Tolimán	10	San Lucas Tolimán	5	Mayo	2023-05-24T00:00:00	2024-11-08T01:00:00	1	Precipitación	0
125696	7	Sololá	713	San Lucas Tolimán	10	San Lucas Tolimán	5	Mayo	2023-05-24T00:00:00	2024-11-08T01:00:00	8	Radiación solar	0
125697	7	Sololá	713	San Lucas Tolimán	10	San Lucas Tolimán	5	Mayo	2023-05-24T00:00:00	2024-11-08T02:00:00	2	Temperatura media	17.1
125698	7	Sololá	713	San Lucas Tolimán	10	San Lucas Tolimán	5	Mayo	2023-05-24T00:00:00	2024-11-08T02:00:00	4	Temperatura máxima	17.5
125699	7	Sololá	713	San Lucas Tolimán	10	San Lucas Tolimán	5	Mayo	2023-05-24T00:00:00	2024-11-08T02:00:00	3	Temperatura mínima	17.1
125700	7	Sololá	713	San Lucas Tolimán	10	San Lucas Tolimán	5	Mayo	2023-05-24T00:00:00	2024-11-08T02:00:00	5	Humedad	61
125701	7	Sololá	713	San Lucas Tolimán	10	San Lucas Tolimán	5	Mayo	2023-05-24T00:00:00	2024-11-08T02:00:00	6	Velocidad del viento	1.6
125702	7	Sololá	713	San Lucas Tolimán	10	San Lucas Tolimán	5	Mayo	2023-05-24T00:00:00	2024-11-08T02:00:00	7	Dirección del viento	1.61
125703	7	Sololá	713	San Lucas Tolimán	10	San Lucas Tolimán	5	Mayo	2023-05-24T00:00:00	2024-11-08T02:00:00	1	Precipitación	0
125704	7	Sololá	713	San Lucas Tolimán	10	San Lucas Tolimán	5	Mayo	2023-05-24T00:00:00	2024-11-08T02:00:00	8	Radiación solar	0
125705	7	Sololá	713	San Lucas Tolimán	10	San Lucas Tolimán	5	Mayo	2023-05-24T00:00:00	2024-11-08T03:00:00	2	Temperatura media	16.7
125706	7	Sololá	713	San Lucas Tolimán	10	San Lucas Tolimán	5	Mayo	2023-05-24T00:00:00	2024-11-08T03:00:00	4	Temperatura máxima	17.2
125707	7	Sololá	713	San Lucas Tolimán	10	San Lucas Tolimán	5	Mayo	2023-05-24T00:00:00	2024-11-08T03:00:00	3	Temperatura mínima	16.6
125708	7	Sololá	713	San Lucas Tolimán	10	San Lucas Tolimán	5	Mayo	2023-05-24T00:00:00	2024-11-08T03:00:00	5	Humedad	62
125709	7	Sololá	713	San Lucas Tolimán	10	San Lucas Tolimán	5	Mayo	2023-05-24T00:00:00	2024-11-08T03:00:00	6	Velocidad del viento	1.6
125710	7	Sololá	713	San Lucas Tolimán	10	San Lucas Tolimán	5	Mayo	2023-05-24T00:00:00	2024-11-08T03:00:00	7	Dirección del viento	1.61
125711	7	Sololá	713	San Lucas Tolimán	10	San Lucas Tolimán	5	Mayo	2023-05-24T00:00:00	2024-11-08T03:00:00	1	Precipitación	0
125712	7	Sololá	713	San Lucas Tolimán	10	San Lucas Tolimán	5	Mayo	2023-05-24T00:00:00	2024-11-08T03:00:00	8	Radiación solar	0
125713	7	Sololá	713	San Lucas Tolimán	10	San Lucas Tolimán	5	Mayo	2023-05-24T00:00:00	2024-11-08T04:00:00	2	Temperatura media	16.8
125714	7	Sololá	713	San Lucas Tolimán	10	San Lucas Tolimán	5	Mayo	2023-05-24T00:00:00	2024-11-08T04:00:00	4	Temperatura máxima	16.9
125715	7	Sololá	713	San Lucas Tolimán	10	San Lucas Tolimán	5	Mayo	2023-05-24T00:00:00	2024-11-08T04:00:00	3	Temperatura mínima	16.6
125716	7	Sololá	713	San Lucas Tolimán	10	San Lucas Tolimán	5	Mayo	2023-05-24T00:00:00	2024-11-08T04:00:00	5	Humedad	60
125717	7	Sololá	713	San Lucas Tolimán	10	San Lucas Tolimán	5	Mayo	2023-05-24T00:00:00	2024-11-08T04:00:00	6	Velocidad del viento	0
125718	7	Sololá	713	San Lucas Tolimán	10	San Lucas Tolimán	5	Mayo	2023-05-24T00:00:00	2024-11-08T04:00:00	7	Dirección del viento	0
125719	7	Sololá	713	San Lucas Tolimán	10	San Lucas Tolimán	5	Mayo	2023-05-24T00:00:00	2024-11-08T04:00:00	1	Precipitación	0
125720	7	Sololá	713	San Lucas Tolimán	10	San Lucas Tolimán	5	Mayo	2023-05-24T00:00:00	2024-11-08T04:00:00	8	Radiación solar	0
125721	7	Sololá	713	San Lucas Tolimán	10	San Lucas Tolimán	5	Mayo	2023-05-24T00:00:00	2024-11-08T05:00:00	2	Temperatura media	16.4
125722	7	Sololá	713	San Lucas Tolimán	10	San Lucas Tolimán	5	Mayo	2023-05-24T00:00:00	2024-11-08T05:00:00	4	Temperatura máxima	16.8
125723	7	Sololá	713	San Lucas Tolimán	10	San Lucas Tolimán	5	Mayo	2023-05-24T00:00:00	2024-11-08T05:00:00	3	Temperatura mínima	16.4
125724	7	Sololá	713	San Lucas Tolimán	10	San Lucas Tolimán	5	Mayo	2023-05-24T00:00:00	2024-11-08T05:00:00	5	Humedad	61
125725	7	Sololá	713	San Lucas Tolimán	10	San Lucas Tolimán	5	Mayo	2023-05-24T00:00:00	2024-11-08T05:00:00	6	Velocidad del viento	0
125726	7	Sololá	713	San Lucas Tolimán	10	San Lucas Tolimán	5	Mayo	2023-05-24T00:00:00	2024-11-08T05:00:00	7	Dirección del viento	0
125727	7	Sololá	713	San Lucas Tolimán	10	San Lucas Tolimán	5	Mayo	2023-05-24T00:00:00	2024-11-08T05:00:00	1	Precipitación	0
125728	7	Sololá	713	San Lucas Tolimán	10	San Lucas Tolimán	5	Mayo	2023-05-24T00:00:00	2024-11-08T05:00:00	8	Radiación solar	0
125729	7	Sololá	713	San Lucas Tolimán	10	San Lucas Tolimán	5	Mayo	2023-05-24T00:00:00	2024-11-08T06:00:00	2	Temperatura media	16.3
125730	7	Sololá	713	San Lucas Tolimán	10	San Lucas Tolimán	5	Mayo	2023-05-24T00:00:00	2024-11-08T06:00:00	4	Temperatura máxima	16.6
125731	7	Sololá	713	San Lucas Tolimán	10	San Lucas Tolimán	5	Mayo	2023-05-24T00:00:00	2024-11-08T06:00:00	3	Temperatura mínima	16.2
125732	7	Sololá	713	San Lucas Tolimán	10	San Lucas Tolimán	5	Mayo	2023-05-24T00:00:00	2024-11-08T06:00:00	5	Humedad	60
125733	7	Sololá	713	San Lucas Tolimán	10	San Lucas Tolimán	5	Mayo	2023-05-24T00:00:00	2024-11-08T06:00:00	6	Velocidad del viento	0
125734	7	Sololá	713	San Lucas Tolimán	10	San Lucas Tolimán	5	Mayo	2023-05-24T00:00:00	2024-11-08T06:00:00	7	Dirección del viento	0
125735	7	Sololá	713	San Lucas Tolimán	10	San Lucas Tolimán	5	Mayo	2023-05-24T00:00:00	2024-11-08T06:00:00	1	Precipitación	0
125736	7	Sololá	713	San Lucas Tolimán	10	San Lucas Tolimán	5	Mayo	2023-05-24T00:00:00	2024-11-08T06:00:00	8	Radiación solar	4
125737	7	Sololá	713	San Lucas Tolimán	10	San Lucas Tolimán	5	Mayo	2023-05-24T00:00:00	2024-11-08T07:00:00	2	Temperatura media	18.1
125738	7	Sololá	713	San Lucas Tolimán	10	San Lucas Tolimán	5	Mayo	2023-05-24T00:00:00	2024-11-08T07:00:00	4	Temperatura máxima	18.1
125739	7	Sololá	713	San Lucas Tolimán	10	San Lucas Tolimán	5	Mayo	2023-05-24T00:00:00	2024-11-08T07:00:00	3	Temperatura mínima	16.3
125740	7	Sololá	713	San Lucas Tolimán	10	San Lucas Tolimán	5	Mayo	2023-05-24T00:00:00	2024-11-08T07:00:00	5	Humedad	58
125741	7	Sololá	713	San Lucas Tolimán	10	San Lucas Tolimán	5	Mayo	2023-05-24T00:00:00	2024-11-08T07:00:00	6	Velocidad del viento	1.6
125742	7	Sololá	713	San Lucas Tolimán	10	San Lucas Tolimán	5	Mayo	2023-05-24T00:00:00	2024-11-08T07:00:00	7	Dirección del viento	1.61
125743	7	Sololá	713	San Lucas Tolimán	10	San Lucas Tolimán	5	Mayo	2023-05-24T00:00:00	2024-11-08T07:00:00	1	Precipitación	0
125744	7	Sololá	713	San Lucas Tolimán	10	San Lucas Tolimán	5	Mayo	2023-05-24T00:00:00	2024-11-08T07:00:00	8	Radiación solar	64
125745	7	Sololá	713	San Lucas Tolimán	10	San Lucas Tolimán	5	Mayo	2023-05-24T00:00:00	2024-11-08T08:00:00	2	Temperatura media	20.5
125746	7	Sololá	713	San Lucas Tolimán	10	San Lucas Tolimán	5	Mayo	2023-05-24T00:00:00	2024-11-08T08:00:00	4	Temperatura máxima	20.5
125747	7	Sololá	713	San Lucas Tolimán	10	San Lucas Tolimán	5	Mayo	2023-05-24T00:00:00	2024-11-08T08:00:00	3	Temperatura mínima	18.1
125748	7	Sololá	713	San Lucas Tolimán	10	San Lucas Tolimán	5	Mayo	2023-05-24T00:00:00	2024-11-08T08:00:00	5	Humedad	56
125749	7	Sololá	713	San Lucas Tolimán	10	San Lucas Tolimán	5	Mayo	2023-05-24T00:00:00	2024-11-08T08:00:00	6	Velocidad del viento	4.8
125750	7	Sololá	713	San Lucas Tolimán	10	San Lucas Tolimán	5	Mayo	2023-05-24T00:00:00	2024-11-08T08:00:00	7	Dirección del viento	4.83
125751	7	Sololá	713	San Lucas Tolimán	10	San Lucas Tolimán	5	Mayo	2023-05-24T00:00:00	2024-11-08T08:00:00	1	Precipitación	0
125752	7	Sololá	713	San Lucas Tolimán	10	San Lucas Tolimán	5	Mayo	2023-05-24T00:00:00	2024-11-08T08:00:00	8	Radiación solar	377
125753	7	Sololá	713	San Lucas Tolimán	10	San Lucas Tolimán	5	Mayo	2023-05-24T00:00:00	2024-11-08T09:00:00	2	Temperatura media	22.5
125754	7	Sololá	713	San Lucas Tolimán	10	San Lucas Tolimán	5	Mayo	2023-05-24T00:00:00	2024-11-08T09:00:00	4	Temperatura máxima	22.6
125755	7	Sololá	713	San Lucas Tolimán	10	San Lucas Tolimán	5	Mayo	2023-05-24T00:00:00	2024-11-08T09:00:00	3	Temperatura mínima	20.5
125756	7	Sololá	713	San Lucas Tolimán	10	San Lucas Tolimán	5	Mayo	2023-05-24T00:00:00	2024-11-08T09:00:00	5	Humedad	53
125757	7	Sololá	713	San Lucas Tolimán	10	San Lucas Tolimán	5	Mayo	2023-05-24T00:00:00	2024-11-08T09:00:00	6	Velocidad del viento	4.8
125758	7	Sololá	713	San Lucas Tolimán	10	San Lucas Tolimán	5	Mayo	2023-05-24T00:00:00	2024-11-08T09:00:00	7	Dirección del viento	4.83
125759	7	Sololá	713	San Lucas Tolimán	10	San Lucas Tolimán	5	Mayo	2023-05-24T00:00:00	2024-11-08T09:00:00	1	Precipitación	0
125760	7	Sololá	713	San Lucas Tolimán	10	San Lucas Tolimán	5	Mayo	2023-05-24T00:00:00	2024-11-08T09:00:00	8	Radiación solar	622
125761	7	Sololá	713	San Lucas Tolimán	10	San Lucas Tolimán	5	Mayo	2023-05-24T00:00:00	2024-11-08T10:00:00	2	Temperatura media	24
125762	7	Sololá	713	San Lucas Tolimán	10	San Lucas Tolimán	5	Mayo	2023-05-24T00:00:00	2024-11-08T10:00:00	4	Temperatura máxima	24.2
125763	7	Sololá	713	San Lucas Tolimán	10	San Lucas Tolimán	5	Mayo	2023-05-24T00:00:00	2024-11-08T10:00:00	3	Temperatura mínima	22.4
125764	7	Sololá	713	San Lucas Tolimán	10	San Lucas Tolimán	5	Mayo	2023-05-24T00:00:00	2024-11-08T10:00:00	5	Humedad	53
125765	7	Sololá	713	San Lucas Tolimán	10	San Lucas Tolimán	5	Mayo	2023-05-24T00:00:00	2024-11-08T10:00:00	6	Velocidad del viento	4.8
125766	7	Sololá	713	San Lucas Tolimán	10	San Lucas Tolimán	5	Mayo	2023-05-24T00:00:00	2024-11-08T10:00:00	7	Dirección del viento	4.83
125767	7	Sololá	713	San Lucas Tolimán	10	San Lucas Tolimán	5	Mayo	2023-05-24T00:00:00	2024-11-08T10:00:00	1	Precipitación	0
125768	7	Sololá	713	San Lucas Tolimán	10	San Lucas Tolimán	5	Mayo	2023-05-24T00:00:00	2024-11-08T10:00:00	8	Radiación solar	806
125769	7	Sololá	713	San Lucas Tolimán	10	San Lucas Tolimán	5	Mayo	2023-05-24T00:00:00	2024-11-08T11:00:00	2	Temperatura media	24.3
125770	7	Sololá	713	San Lucas Tolimán	10	San Lucas Tolimán	5	Mayo	2023-05-24T00:00:00	2024-11-08T11:00:00	4	Temperatura máxima	24.6
125771	7	Sololá	713	San Lucas Tolimán	10	San Lucas Tolimán	5	Mayo	2023-05-24T00:00:00	2024-11-08T11:00:00	3	Temperatura mínima	23.7
125772	7	Sololá	713	San Lucas Tolimán	10	San Lucas Tolimán	5	Mayo	2023-05-24T00:00:00	2024-11-08T11:00:00	5	Humedad	53
125773	7	Sololá	713	San Lucas Tolimán	10	San Lucas Tolimán	5	Mayo	2023-05-24T00:00:00	2024-11-08T11:00:00	6	Velocidad del viento	8
125774	7	Sololá	713	San Lucas Tolimán	10	San Lucas Tolimán	5	Mayo	2023-05-24T00:00:00	2024-11-08T11:00:00	7	Dirección del viento	8.05
125775	7	Sololá	713	San Lucas Tolimán	10	San Lucas Tolimán	5	Mayo	2023-05-24T00:00:00	2024-11-08T11:00:00	1	Precipitación	0
125776	7	Sololá	713	San Lucas Tolimán	10	San Lucas Tolimán	5	Mayo	2023-05-24T00:00:00	2024-11-08T11:00:00	8	Radiación solar	971
125777	7	Sololá	713	San Lucas Tolimán	10	San Lucas Tolimán	5	Mayo	2023-05-24T00:00:00	2024-11-08T12:00:00	2	Temperatura media	23.9
125778	7	Sololá	713	San Lucas Tolimán	10	San Lucas Tolimán	5	Mayo	2023-05-24T00:00:00	2024-11-08T12:00:00	4	Temperatura máxima	24.7
125779	7	Sololá	713	San Lucas Tolimán	10	San Lucas Tolimán	5	Mayo	2023-05-24T00:00:00	2024-11-08T12:00:00	3	Temperatura mínima	23.7
125780	7	Sololá	713	San Lucas Tolimán	10	San Lucas Tolimán	5	Mayo	2023-05-24T00:00:00	2024-11-08T12:00:00	5	Humedad	57
125781	7	Sololá	713	San Lucas Tolimán	10	San Lucas Tolimán	5	Mayo	2023-05-24T00:00:00	2024-11-08T12:00:00	6	Velocidad del viento	9.7
125782	7	Sololá	713	San Lucas Tolimán	10	San Lucas Tolimán	5	Mayo	2023-05-24T00:00:00	2024-11-08T12:00:00	7	Dirección del viento	9.66
125783	7	Sololá	713	San Lucas Tolimán	10	San Lucas Tolimán	5	Mayo	2023-05-24T00:00:00	2024-11-08T12:00:00	1	Precipitación	0
125784	7	Sololá	713	San Lucas Tolimán	10	San Lucas Tolimán	5	Mayo	2023-05-24T00:00:00	2024-11-08T12:00:00	8	Radiación solar	1038
125785	7	Sololá	713	San Lucas Tolimán	10	San Lucas Tolimán	5	Mayo	2023-05-24T00:00:00	2024-11-08T13:00:00	2	Temperatura media	24.2
125786	7	Sololá	713	San Lucas Tolimán	10	San Lucas Tolimán	5	Mayo	2023-05-24T00:00:00	2024-11-08T13:00:00	4	Temperatura máxima	24.4
125787	7	Sololá	713	San Lucas Tolimán	10	San Lucas Tolimán	5	Mayo	2023-05-24T00:00:00	2024-11-08T13:00:00	3	Temperatura mínima	23.9
125788	7	Sololá	713	San Lucas Tolimán	10	San Lucas Tolimán	5	Mayo	2023-05-24T00:00:00	2024-11-08T13:00:00	5	Humedad	58
125789	7	Sololá	713	San Lucas Tolimán	10	San Lucas Tolimán	5	Mayo	2023-05-24T00:00:00	2024-11-08T13:00:00	6	Velocidad del viento	11.3
125790	7	Sololá	713	San Lucas Tolimán	10	San Lucas Tolimán	5	Mayo	2023-05-24T00:00:00	2024-11-08T13:00:00	7	Dirección del viento	11.27
125791	7	Sololá	713	San Lucas Tolimán	10	San Lucas Tolimán	5	Mayo	2023-05-24T00:00:00	2024-11-08T13:00:00	1	Precipitación	0
125792	7	Sololá	713	San Lucas Tolimán	10	San Lucas Tolimán	5	Mayo	2023-05-24T00:00:00	2024-11-08T13:00:00	8	Radiación solar	1063
125793	7	Sololá	713	San Lucas Tolimán	10	San Lucas Tolimán	5	Mayo	2023-05-24T00:00:00	2024-11-08T14:00:00	2	Temperatura media	24.4
125794	7	Sololá	713	San Lucas Tolimán	10	San Lucas Tolimán	5	Mayo	2023-05-24T00:00:00	2024-11-08T14:00:00	4	Temperatura máxima	24.7
125795	7	Sololá	713	San Lucas Tolimán	10	San Lucas Tolimán	5	Mayo	2023-05-24T00:00:00	2024-11-08T14:00:00	3	Temperatura mínima	24.1
125796	7	Sololá	713	San Lucas Tolimán	10	San Lucas Tolimán	5	Mayo	2023-05-24T00:00:00	2024-11-08T14:00:00	5	Humedad	58
125797	7	Sololá	713	San Lucas Tolimán	10	San Lucas Tolimán	5	Mayo	2023-05-24T00:00:00	2024-11-08T14:00:00	6	Velocidad del viento	11.3
125798	7	Sololá	713	San Lucas Tolimán	10	San Lucas Tolimán	5	Mayo	2023-05-24T00:00:00	2024-11-08T14:00:00	7	Dirección del viento	11.27
125799	7	Sololá	713	San Lucas Tolimán	10	San Lucas Tolimán	5	Mayo	2023-05-24T00:00:00	2024-11-08T14:00:00	1	Precipitación	0
125800	7	Sololá	713	San Lucas Tolimán	10	San Lucas Tolimán	5	Mayo	2023-05-24T00:00:00	2024-11-08T14:00:00	8	Radiación solar	1061
125801	7	Sololá	713	San Lucas Tolimán	10	San Lucas Tolimán	5	Mayo	2023-05-24T00:00:00	2024-11-08T15:00:00	2	Temperatura media	23.4
125802	7	Sololá	713	San Lucas Tolimán	10	San Lucas Tolimán	5	Mayo	2023-05-24T00:00:00	2024-11-08T15:00:00	4	Temperatura máxima	24.6
125803	7	Sololá	713	San Lucas Tolimán	10	San Lucas Tolimán	5	Mayo	2023-05-24T00:00:00	2024-11-08T15:00:00	3	Temperatura mínima	23.3
125804	7	Sololá	713	San Lucas Tolimán	10	San Lucas Tolimán	5	Mayo	2023-05-24T00:00:00	2024-11-08T15:00:00	5	Humedad	62
125805	7	Sololá	713	San Lucas Tolimán	10	San Lucas Tolimán	5	Mayo	2023-05-24T00:00:00	2024-11-08T15:00:00	6	Velocidad del viento	9.7
125806	7	Sololá	713	San Lucas Tolimán	10	San Lucas Tolimán	5	Mayo	2023-05-24T00:00:00	2024-11-08T15:00:00	7	Dirección del viento	9.66
125807	7	Sololá	713	San Lucas Tolimán	10	San Lucas Tolimán	5	Mayo	2023-05-24T00:00:00	2024-11-08T15:00:00	1	Precipitación	0
125808	7	Sololá	713	San Lucas Tolimán	10	San Lucas Tolimán	5	Mayo	2023-05-24T00:00:00	2024-11-08T15:00:00	8	Radiación solar	845
125809	7	Sololá	713	San Lucas Tolimán	10	San Lucas Tolimán	5	Mayo	2023-05-24T00:00:00	2024-11-08T16:00:00	2	Temperatura media	23.1
125810	7	Sololá	713	San Lucas Tolimán	10	San Lucas Tolimán	5	Mayo	2023-05-24T00:00:00	2024-11-08T16:00:00	4	Temperatura máxima	24.4
125811	7	Sololá	713	San Lucas Tolimán	10	San Lucas Tolimán	5	Mayo	2023-05-24T00:00:00	2024-11-08T16:00:00	3	Temperatura mínima	22.8
125812	7	Sololá	713	San Lucas Tolimán	10	San Lucas Tolimán	5	Mayo	2023-05-24T00:00:00	2024-11-08T16:00:00	5	Humedad	62
125813	7	Sololá	713	San Lucas Tolimán	10	San Lucas Tolimán	5	Mayo	2023-05-24T00:00:00	2024-11-08T16:00:00	6	Velocidad del viento	11.3
125814	7	Sololá	713	San Lucas Tolimán	10	San Lucas Tolimán	5	Mayo	2023-05-24T00:00:00	2024-11-08T16:00:00	7	Dirección del viento	11.27
125815	7	Sololá	713	San Lucas Tolimán	10	San Lucas Tolimán	5	Mayo	2023-05-24T00:00:00	2024-11-08T16:00:00	1	Precipitación	0
125816	7	Sololá	713	San Lucas Tolimán	10	San Lucas Tolimán	5	Mayo	2023-05-24T00:00:00	2024-11-08T16:00:00	8	Radiación solar	612
125817	7	Sololá	713	San Lucas Tolimán	10	San Lucas Tolimán	5	Mayo	2023-05-24T00:00:00	2024-11-08T17:00:00	2	Temperatura media	21.9
125818	7	Sololá	713	San Lucas Tolimán	10	San Lucas Tolimán	5	Mayo	2023-05-24T00:00:00	2024-11-08T17:00:00	4	Temperatura máxima	23.1
125819	7	Sololá	713	San Lucas Tolimán	10	San Lucas Tolimán	5	Mayo	2023-05-24T00:00:00	2024-11-08T17:00:00	3	Temperatura mínima	21.7
125820	7	Sololá	713	San Lucas Tolimán	10	San Lucas Tolimán	5	Mayo	2023-05-24T00:00:00	2024-11-08T17:00:00	5	Humedad	62
125821	7	Sololá	713	San Lucas Tolimán	10	San Lucas Tolimán	5	Mayo	2023-05-24T00:00:00	2024-11-08T17:00:00	6	Velocidad del viento	8
125822	7	Sololá	713	San Lucas Tolimán	10	San Lucas Tolimán	5	Mayo	2023-05-24T00:00:00	2024-11-08T17:00:00	7	Dirección del viento	8.05
125823	7	Sololá	713	San Lucas Tolimán	10	San Lucas Tolimán	5	Mayo	2023-05-24T00:00:00	2024-11-08T17:00:00	1	Precipitación	0
125824	7	Sololá	713	San Lucas Tolimán	10	San Lucas Tolimán	5	Mayo	2023-05-24T00:00:00	2024-11-08T17:00:00	8	Radiación solar	131
125825	7	Sololá	713	San Lucas Tolimán	10	San Lucas Tolimán	5	Mayo	2023-05-24T00:00:00	2024-11-08T18:00:00	2	Temperatura media	21.7
125826	7	Sololá	713	San Lucas Tolimán	10	San Lucas Tolimán	5	Mayo	2023-05-24T00:00:00	2024-11-08T18:00:00	4	Temperatura máxima	22.6
125827	7	Sololá	713	San Lucas Tolimán	10	San Lucas Tolimán	5	Mayo	2023-05-24T00:00:00	2024-11-08T18:00:00	3	Temperatura mínima	21.7
125828	7	Sololá	713	San Lucas Tolimán	10	San Lucas Tolimán	5	Mayo	2023-05-24T00:00:00	2024-11-08T18:00:00	5	Humedad	62
125829	7	Sololá	713	San Lucas Tolimán	10	San Lucas Tolimán	5	Mayo	2023-05-24T00:00:00	2024-11-08T18:00:00	6	Velocidad del viento	6.4
125830	7	Sololá	713	San Lucas Tolimán	10	San Lucas Tolimán	5	Mayo	2023-05-24T00:00:00	2024-11-08T18:00:00	7	Dirección del viento	6.44
125831	7	Sololá	713	San Lucas Tolimán	10	San Lucas Tolimán	5	Mayo	2023-05-24T00:00:00	2024-11-08T18:00:00	1	Precipitación	0
125832	7	Sololá	713	San Lucas Tolimán	10	San Lucas Tolimán	5	Mayo	2023-05-24T00:00:00	2024-11-08T18:00:00	8	Radiación solar	154
125833	7	Sololá	713	San Lucas Tolimán	10	San Lucas Tolimán	5	Mayo	2023-05-24T00:00:00	2024-11-08T19:00:00	2	Temperatura media	20.9
125834	7	Sololá	713	San Lucas Tolimán	10	San Lucas Tolimán	5	Mayo	2023-05-24T00:00:00	2024-11-08T19:00:00	4	Temperatura máxima	21.7
125835	7	Sololá	713	San Lucas Tolimán	10	San Lucas Tolimán	5	Mayo	2023-05-24T00:00:00	2024-11-08T19:00:00	3	Temperatura mínima	20.8
125836	7	Sololá	713	San Lucas Tolimán	10	San Lucas Tolimán	5	Mayo	2023-05-24T00:00:00	2024-11-08T19:00:00	5	Humedad	60
125837	7	Sololá	713	San Lucas Tolimán	10	San Lucas Tolimán	5	Mayo	2023-05-24T00:00:00	2024-11-08T19:00:00	6	Velocidad del viento	6.4
125838	7	Sololá	713	San Lucas Tolimán	10	San Lucas Tolimán	5	Mayo	2023-05-24T00:00:00	2024-11-08T19:00:00	7	Dirección del viento	6.44
125839	7	Sololá	713	San Lucas Tolimán	10	San Lucas Tolimán	5	Mayo	2023-05-24T00:00:00	2024-11-08T19:00:00	1	Precipitación	0
125840	7	Sololá	713	San Lucas Tolimán	10	San Lucas Tolimán	5	Mayo	2023-05-24T00:00:00	2024-11-08T19:00:00	8	Radiación solar	0
125841	7	Sololá	713	San Lucas Tolimán	10	San Lucas Tolimán	5	Mayo	2023-05-24T00:00:00	2024-11-08T20:00:00	2	Temperatura media	19.9
125842	7	Sololá	713	San Lucas Tolimán	10	San Lucas Tolimán	5	Mayo	2023-05-24T00:00:00	2024-11-08T20:00:00	4	Temperatura máxima	21.1
125843	7	Sololá	713	San Lucas Tolimán	10	San Lucas Tolimán	5	Mayo	2023-05-24T00:00:00	2024-11-08T20:00:00	3	Temperatura mínima	19.8
125844	7	Sololá	713	San Lucas Tolimán	10	San Lucas Tolimán	5	Mayo	2023-05-24T00:00:00	2024-11-08T20:00:00	5	Humedad	66
125845	7	Sololá	713	San Lucas Tolimán	10	San Lucas Tolimán	5	Mayo	2023-05-24T00:00:00	2024-11-08T20:00:00	6	Velocidad del viento	4.8
125846	7	Sololá	713	San Lucas Tolimán	10	San Lucas Tolimán	5	Mayo	2023-05-24T00:00:00	2024-11-08T20:00:00	7	Dirección del viento	4.83
125847	7	Sololá	713	San Lucas Tolimán	10	San Lucas Tolimán	5	Mayo	2023-05-24T00:00:00	2024-11-08T20:00:00	1	Precipitación	0
125848	7	Sololá	713	San Lucas Tolimán	10	San Lucas Tolimán	5	Mayo	2023-05-24T00:00:00	2024-11-08T20:00:00	8	Radiación solar	0
125849	7	Sololá	713	San Lucas Tolimán	10	San Lucas Tolimán	5	Mayo	2023-05-24T00:00:00	2024-11-08T21:00:00	2	Temperatura media	19.8
125850	7	Sololá	713	San Lucas Tolimán	10	San Lucas Tolimán	5	Mayo	2023-05-24T00:00:00	2024-11-08T21:00:00	4	Temperatura máxima	19.9
125851	7	Sololá	713	San Lucas Tolimán	10	San Lucas Tolimán	5	Mayo	2023-05-24T00:00:00	2024-11-08T21:00:00	3	Temperatura mínima	19.7
125852	7	Sololá	713	San Lucas Tolimán	10	San Lucas Tolimán	5	Mayo	2023-05-24T00:00:00	2024-11-08T21:00:00	5	Humedad	66
125853	7	Sololá	713	San Lucas Tolimán	10	San Lucas Tolimán	5	Mayo	2023-05-24T00:00:00	2024-11-08T21:00:00	6	Velocidad del viento	4.8
125854	7	Sololá	713	San Lucas Tolimán	10	San Lucas Tolimán	5	Mayo	2023-05-24T00:00:00	2024-11-08T21:00:00	7	Dirección del viento	4.83
125855	7	Sololá	713	San Lucas Tolimán	10	San Lucas Tolimán	5	Mayo	2023-05-24T00:00:00	2024-11-08T21:00:00	1	Precipitación	0
125856	7	Sololá	713	San Lucas Tolimán	10	San Lucas Tolimán	5	Mayo	2023-05-24T00:00:00	2024-11-08T21:00:00	8	Radiación solar	0
125857	7	Sololá	713	San Lucas Tolimán	10	San Lucas Tolimán	5	Mayo	2023-05-24T00:00:00	2024-11-08T22:00:00	2	Temperatura media	19.3
125858	7	Sololá	713	San Lucas Tolimán	10	San Lucas Tolimán	5	Mayo	2023-05-24T00:00:00	2024-11-08T22:00:00	4	Temperatura máxima	19.8
125859	7	Sololá	713	San Lucas Tolimán	10	San Lucas Tolimán	5	Mayo	2023-05-24T00:00:00	2024-11-08T22:00:00	3	Temperatura mínima	19.3
125860	7	Sololá	713	San Lucas Tolimán	10	San Lucas Tolimán	5	Mayo	2023-05-24T00:00:00	2024-11-08T22:00:00	5	Humedad	68
125861	7	Sololá	713	San Lucas Tolimán	10	San Lucas Tolimán	5	Mayo	2023-05-24T00:00:00	2024-11-08T22:00:00	6	Velocidad del viento	6.4
125862	7	Sololá	713	San Lucas Tolimán	10	San Lucas Tolimán	5	Mayo	2023-05-24T00:00:00	2024-11-08T22:00:00	7	Dirección del viento	6.44
125863	7	Sololá	713	San Lucas Tolimán	10	San Lucas Tolimán	5	Mayo	2023-05-24T00:00:00	2024-11-08T22:00:00	1	Precipitación	0
125864	7	Sololá	713	San Lucas Tolimán	10	San Lucas Tolimán	5	Mayo	2023-05-24T00:00:00	2024-11-08T22:00:00	8	Radiación solar	0
125865	7	Sololá	713	San Lucas Tolimán	10	San Lucas Tolimán	5	Mayo	2023-05-24T00:00:00	2024-11-08T23:00:00	2	Temperatura media	19.5
125866	7	Sololá	713	San Lucas Tolimán	10	San Lucas Tolimán	5	Mayo	2023-05-24T00:00:00	2024-11-08T23:00:00	4	Temperatura máxima	19.5
125867	7	Sololá	713	San Lucas Tolimán	10	San Lucas Tolimán	5	Mayo	2023-05-24T00:00:00	2024-11-08T23:00:00	3	Temperatura mínima	19.3
125868	7	Sololá	713	San Lucas Tolimán	10	San Lucas Tolimán	5	Mayo	2023-05-24T00:00:00	2024-11-08T23:00:00	5	Humedad	68
125869	7	Sololá	713	San Lucas Tolimán	10	San Lucas Tolimán	5	Mayo	2023-05-24T00:00:00	2024-11-08T23:00:00	6	Velocidad del viento	4.8
125870	7	Sololá	713	San Lucas Tolimán	10	San Lucas Tolimán	5	Mayo	2023-05-24T00:00:00	2024-11-08T23:00:00	7	Dirección del viento	4.83
125871	7	Sololá	713	San Lucas Tolimán	10	San Lucas Tolimán	5	Mayo	2023-05-24T00:00:00	2024-11-08T23:00:00	1	Precipitación	0
125872	7	Sololá	713	San Lucas Tolimán	10	San Lucas Tolimán	5	Mayo	2023-05-24T00:00:00	2024-11-08T23:00:00	8	Radiación solar	0
125873	7	Sololá	713	San Lucas Tolimán	10	San Lucas Tolimán	5	Mayo	2023-05-25T00:00:00	2024-11-08T00:00:00	2	Temperatura media	19.1
125874	7	Sololá	713	San Lucas Tolimán	10	San Lucas Tolimán	5	Mayo	2023-05-25T00:00:00	2024-11-08T00:00:00	4	Temperatura máxima	19.7
125875	7	Sololá	713	San Lucas Tolimán	10	San Lucas Tolimán	5	Mayo	2023-05-25T00:00:00	2024-11-08T00:00:00	3	Temperatura mínima	19.1
125876	7	Sololá	713	San Lucas Tolimán	10	San Lucas Tolimán	5	Mayo	2023-05-25T00:00:00	2024-11-08T00:00:00	5	Humedad	66
125877	7	Sololá	713	San Lucas Tolimán	10	San Lucas Tolimán	5	Mayo	2023-05-25T00:00:00	2024-11-08T00:00:00	6	Velocidad del viento	4.8
125878	7	Sololá	713	San Lucas Tolimán	10	San Lucas Tolimán	5	Mayo	2023-05-25T00:00:00	2024-11-08T00:00:00	7	Dirección del viento	4.83
125879	7	Sololá	713	San Lucas Tolimán	10	San Lucas Tolimán	5	Mayo	2023-05-25T00:00:00	2024-11-08T00:00:00	1	Precipitación	0
125880	7	Sololá	713	San Lucas Tolimán	10	San Lucas Tolimán	5	Mayo	2023-05-25T00:00:00	2024-11-08T00:00:00	8	Radiación solar	0
125881	7	Sololá	713	San Lucas Tolimán	10	San Lucas Tolimán	5	Mayo	2023-05-25T00:00:00	2024-11-08T01:00:00	2	Temperatura media	19.2
125882	7	Sololá	713	San Lucas Tolimán	10	San Lucas Tolimán	5	Mayo	2023-05-25T00:00:00	2024-11-08T01:00:00	4	Temperatura máxima	19.3
125883	7	Sololá	713	San Lucas Tolimán	10	San Lucas Tolimán	5	Mayo	2023-05-25T00:00:00	2024-11-08T01:00:00	3	Temperatura mínima	19.1
125884	7	Sololá	713	San Lucas Tolimán	10	San Lucas Tolimán	5	Mayo	2023-05-25T00:00:00	2024-11-08T01:00:00	5	Humedad	64
125885	7	Sololá	713	San Lucas Tolimán	10	San Lucas Tolimán	5	Mayo	2023-05-25T00:00:00	2024-11-08T01:00:00	6	Velocidad del viento	3.2
125886	7	Sololá	713	San Lucas Tolimán	10	San Lucas Tolimán	5	Mayo	2023-05-25T00:00:00	2024-11-08T01:00:00	7	Dirección del viento	3.22
125887	7	Sololá	713	San Lucas Tolimán	10	San Lucas Tolimán	5	Mayo	2023-05-25T00:00:00	2024-11-08T01:00:00	1	Precipitación	0
125888	7	Sololá	713	San Lucas Tolimán	10	San Lucas Tolimán	5	Mayo	2023-05-25T00:00:00	2024-11-08T01:00:00	8	Radiación solar	0
125889	7	Sololá	713	San Lucas Tolimán	10	San Lucas Tolimán	5	Mayo	2023-05-25T00:00:00	2024-11-08T02:00:00	2	Temperatura media	18.8
125890	7	Sololá	713	San Lucas Tolimán	10	San Lucas Tolimán	5	Mayo	2023-05-25T00:00:00	2024-11-08T02:00:00	4	Temperatura máxima	19.2
125891	7	Sololá	713	San Lucas Tolimán	10	San Lucas Tolimán	5	Mayo	2023-05-25T00:00:00	2024-11-08T02:00:00	3	Temperatura mínima	18.7
125892	7	Sololá	713	San Lucas Tolimán	10	San Lucas Tolimán	5	Mayo	2023-05-25T00:00:00	2024-11-08T02:00:00	5	Humedad	65
125893	7	Sololá	713	San Lucas Tolimán	10	San Lucas Tolimán	5	Mayo	2023-05-25T00:00:00	2024-11-08T02:00:00	6	Velocidad del viento	1.6
125894	7	Sololá	713	San Lucas Tolimán	10	San Lucas Tolimán	5	Mayo	2023-05-25T00:00:00	2024-11-08T02:00:00	7	Dirección del viento	1.61
125895	7	Sololá	713	San Lucas Tolimán	10	San Lucas Tolimán	5	Mayo	2023-05-25T00:00:00	2024-11-08T02:00:00	1	Precipitación	0
125896	7	Sololá	713	San Lucas Tolimán	10	San Lucas Tolimán	5	Mayo	2023-05-25T00:00:00	2024-11-08T02:00:00	8	Radiación solar	0
125897	7	Sololá	713	San Lucas Tolimán	10	San Lucas Tolimán	5	Mayo	2023-05-25T00:00:00	2024-11-08T03:00:00	2	Temperatura media	17.8
125898	7	Sololá	713	San Lucas Tolimán	10	San Lucas Tolimán	5	Mayo	2023-05-25T00:00:00	2024-11-08T03:00:00	4	Temperatura máxima	18.7
125899	7	Sololá	713	San Lucas Tolimán	10	San Lucas Tolimán	5	Mayo	2023-05-25T00:00:00	2024-11-08T03:00:00	3	Temperatura mínima	17.8
125900	7	Sololá	713	San Lucas Tolimán	10	San Lucas Tolimán	5	Mayo	2023-05-25T00:00:00	2024-11-08T03:00:00	5	Humedad	65
125901	7	Sololá	713	San Lucas Tolimán	10	San Lucas Tolimán	5	Mayo	2023-05-25T00:00:00	2024-11-08T03:00:00	6	Velocidad del viento	1.6
125902	7	Sololá	713	San Lucas Tolimán	10	San Lucas Tolimán	5	Mayo	2023-05-25T00:00:00	2024-11-08T03:00:00	7	Dirección del viento	1.61
125903	7	Sololá	713	San Lucas Tolimán	10	San Lucas Tolimán	5	Mayo	2023-05-25T00:00:00	2024-11-08T03:00:00	1	Precipitación	0
125904	7	Sololá	713	San Lucas Tolimán	10	San Lucas Tolimán	5	Mayo	2023-05-25T00:00:00	2024-11-08T03:00:00	8	Radiación solar	0
125905	7	Sololá	713	San Lucas Tolimán	10	San Lucas Tolimán	5	Mayo	2023-05-25T00:00:00	2024-11-08T04:00:00	2	Temperatura media	17.4
125906	7	Sololá	713	San Lucas Tolimán	10	San Lucas Tolimán	5	Mayo	2023-05-25T00:00:00	2024-11-08T04:00:00	4	Temperatura máxima	17.9
125907	7	Sololá	713	San Lucas Tolimán	10	San Lucas Tolimán	5	Mayo	2023-05-25T00:00:00	2024-11-08T04:00:00	3	Temperatura mínima	17.3
125908	7	Sololá	713	San Lucas Tolimán	10	San Lucas Tolimán	5	Mayo	2023-05-25T00:00:00	2024-11-08T04:00:00	5	Humedad	65
125909	7	Sololá	713	San Lucas Tolimán	10	San Lucas Tolimán	5	Mayo	2023-05-25T00:00:00	2024-11-08T04:00:00	6	Velocidad del viento	1.6
125910	7	Sololá	713	San Lucas Tolimán	10	San Lucas Tolimán	5	Mayo	2023-05-25T00:00:00	2024-11-08T04:00:00	7	Dirección del viento	1.61
125911	7	Sololá	713	San Lucas Tolimán	10	San Lucas Tolimán	5	Mayo	2023-05-25T00:00:00	2024-11-08T04:00:00	1	Precipitación	0
125912	7	Sololá	713	San Lucas Tolimán	10	San Lucas Tolimán	5	Mayo	2023-05-25T00:00:00	2024-11-08T04:00:00	8	Radiación solar	0
125913	7	Sololá	713	San Lucas Tolimán	10	San Lucas Tolimán	5	Mayo	2023-05-25T00:00:00	2024-11-08T05:00:00	2	Temperatura media	16.8
125914	7	Sololá	713	San Lucas Tolimán	10	San Lucas Tolimán	5	Mayo	2023-05-25T00:00:00	2024-11-08T05:00:00	4	Temperatura máxima	17.3
125915	7	Sololá	713	San Lucas Tolimán	10	San Lucas Tolimán	5	Mayo	2023-05-25T00:00:00	2024-11-08T05:00:00	3	Temperatura mínima	16.7
125916	7	Sololá	713	San Lucas Tolimán	10	San Lucas Tolimán	5	Mayo	2023-05-25T00:00:00	2024-11-08T05:00:00	5	Humedad	65
125917	7	Sololá	713	San Lucas Tolimán	10	San Lucas Tolimán	5	Mayo	2023-05-25T00:00:00	2024-11-08T05:00:00	6	Velocidad del viento	1.6
125918	7	Sololá	713	San Lucas Tolimán	10	San Lucas Tolimán	5	Mayo	2023-05-25T00:00:00	2024-11-08T05:00:00	7	Dirección del viento	1.61
125919	7	Sololá	713	San Lucas Tolimán	10	San Lucas Tolimán	5	Mayo	2023-05-25T00:00:00	2024-11-08T05:00:00	1	Precipitación	0
125920	7	Sololá	713	San Lucas Tolimán	10	San Lucas Tolimán	5	Mayo	2023-05-25T00:00:00	2024-11-08T05:00:00	8	Radiación solar	0
125921	7	Sololá	713	San Lucas Tolimán	10	San Lucas Tolimán	5	Mayo	2023-05-25T00:00:00	2024-11-08T06:00:00	2	Temperatura media	16.8
125922	7	Sololá	713	San Lucas Tolimán	10	San Lucas Tolimán	5	Mayo	2023-05-25T00:00:00	2024-11-08T06:00:00	4	Temperatura máxima	16.9
125923	7	Sololá	713	San Lucas Tolimán	10	San Lucas Tolimán	5	Mayo	2023-05-25T00:00:00	2024-11-08T06:00:00	3	Temperatura mínima	16.7
125924	7	Sololá	713	San Lucas Tolimán	10	San Lucas Tolimán	5	Mayo	2023-05-25T00:00:00	2024-11-08T06:00:00	5	Humedad	64
125925	7	Sololá	713	San Lucas Tolimán	10	San Lucas Tolimán	5	Mayo	2023-05-25T00:00:00	2024-11-08T06:00:00	6	Velocidad del viento	1.6
125926	7	Sololá	713	San Lucas Tolimán	10	San Lucas Tolimán	5	Mayo	2023-05-25T00:00:00	2024-11-08T06:00:00	7	Dirección del viento	1.61
125927	7	Sololá	713	San Lucas Tolimán	10	San Lucas Tolimán	5	Mayo	2023-05-25T00:00:00	2024-11-08T06:00:00	1	Precipitación	0
125928	7	Sololá	713	San Lucas Tolimán	10	San Lucas Tolimán	5	Mayo	2023-05-25T00:00:00	2024-11-08T06:00:00	8	Radiación solar	11
125929	7	Sololá	713	San Lucas Tolimán	10	San Lucas Tolimán	5	Mayo	2023-05-25T00:00:00	2024-11-08T07:00:00	2	Temperatura media	19.1
125930	7	Sololá	713	San Lucas Tolimán	10	San Lucas Tolimán	5	Mayo	2023-05-25T00:00:00	2024-11-08T07:00:00	4	Temperatura máxima	19.1
125931	7	Sololá	713	San Lucas Tolimán	10	San Lucas Tolimán	5	Mayo	2023-05-25T00:00:00	2024-11-08T07:00:00	3	Temperatura mínima	16.8
125932	7	Sololá	713	San Lucas Tolimán	10	San Lucas Tolimán	5	Mayo	2023-05-25T00:00:00	2024-11-08T07:00:00	5	Humedad	61
125933	7	Sololá	713	San Lucas Tolimán	10	San Lucas Tolimán	5	Mayo	2023-05-25T00:00:00	2024-11-08T07:00:00	6	Velocidad del viento	1.6
125934	7	Sololá	713	San Lucas Tolimán	10	San Lucas Tolimán	5	Mayo	2023-05-25T00:00:00	2024-11-08T07:00:00	7	Dirección del viento	1.61
125935	7	Sololá	713	San Lucas Tolimán	10	San Lucas Tolimán	5	Mayo	2023-05-25T00:00:00	2024-11-08T07:00:00	1	Precipitación	0
125936	7	Sololá	713	San Lucas Tolimán	10	San Lucas Tolimán	5	Mayo	2023-05-25T00:00:00	2024-11-08T07:00:00	8	Radiación solar	92
125937	7	Sololá	713	San Lucas Tolimán	10	San Lucas Tolimán	5	Mayo	2023-05-25T00:00:00	2024-11-08T08:00:00	2	Temperatura media	21.2
125938	7	Sololá	713	San Lucas Tolimán	10	San Lucas Tolimán	5	Mayo	2023-05-25T00:00:00	2024-11-08T08:00:00	4	Temperatura máxima	21.2
125939	7	Sololá	713	San Lucas Tolimán	10	San Lucas Tolimán	5	Mayo	2023-05-25T00:00:00	2024-11-08T08:00:00	3	Temperatura mínima	19.1
125940	7	Sololá	713	San Lucas Tolimán	10	San Lucas Tolimán	5	Mayo	2023-05-25T00:00:00	2024-11-08T08:00:00	5	Humedad	56
125941	7	Sololá	713	San Lucas Tolimán	10	San Lucas Tolimán	5	Mayo	2023-05-25T00:00:00	2024-11-08T08:00:00	6	Velocidad del viento	3.2
125942	7	Sololá	713	San Lucas Tolimán	10	San Lucas Tolimán	5	Mayo	2023-05-25T00:00:00	2024-11-08T08:00:00	7	Dirección del viento	3.22
125943	7	Sololá	713	San Lucas Tolimán	10	San Lucas Tolimán	5	Mayo	2023-05-25T00:00:00	2024-11-08T08:00:00	1	Precipitación	0
125944	7	Sololá	713	San Lucas Tolimán	10	San Lucas Tolimán	5	Mayo	2023-05-25T00:00:00	2024-11-08T08:00:00	8	Radiación solar	310
125945	7	Sololá	713	San Lucas Tolimán	10	San Lucas Tolimán	5	Mayo	2023-05-25T00:00:00	2024-11-08T09:00:00	2	Temperatura media	23.6
125946	7	Sololá	713	San Lucas Tolimán	10	San Lucas Tolimán	5	Mayo	2023-05-25T00:00:00	2024-11-08T09:00:00	4	Temperatura máxima	23.6
125947	7	Sololá	713	San Lucas Tolimán	10	San Lucas Tolimán	5	Mayo	2023-05-25T00:00:00	2024-11-08T09:00:00	3	Temperatura mínima	21.1
125948	7	Sololá	713	San Lucas Tolimán	10	San Lucas Tolimán	5	Mayo	2023-05-25T00:00:00	2024-11-08T09:00:00	5	Humedad	52
125949	7	Sololá	713	San Lucas Tolimán	10	San Lucas Tolimán	5	Mayo	2023-05-25T00:00:00	2024-11-08T09:00:00	6	Velocidad del viento	4.8
125950	7	Sololá	713	San Lucas Tolimán	10	San Lucas Tolimán	5	Mayo	2023-05-25T00:00:00	2024-11-08T09:00:00	7	Dirección del viento	4.83
125951	7	Sololá	713	San Lucas Tolimán	10	San Lucas Tolimán	5	Mayo	2023-05-25T00:00:00	2024-11-08T09:00:00	1	Precipitación	0
125952	7	Sololá	713	San Lucas Tolimán	10	San Lucas Tolimán	5	Mayo	2023-05-25T00:00:00	2024-11-08T09:00:00	8	Radiación solar	597
125953	7	Sololá	713	San Lucas Tolimán	10	San Lucas Tolimán	5	Mayo	2023-05-25T00:00:00	2024-11-08T10:00:00	2	Temperatura media	24
125954	7	Sololá	713	San Lucas Tolimán	10	San Lucas Tolimán	5	Mayo	2023-05-25T00:00:00	2024-11-08T10:00:00	4	Temperatura máxima	24.8
125955	7	Sololá	713	San Lucas Tolimán	10	San Lucas Tolimán	5	Mayo	2023-05-25T00:00:00	2024-11-08T10:00:00	3	Temperatura mínima	23.6
125956	7	Sololá	713	San Lucas Tolimán	10	San Lucas Tolimán	5	Mayo	2023-05-25T00:00:00	2024-11-08T10:00:00	5	Humedad	51
125957	7	Sololá	713	San Lucas Tolimán	10	San Lucas Tolimán	5	Mayo	2023-05-25T00:00:00	2024-11-08T10:00:00	6	Velocidad del viento	6.4
125958	7	Sololá	713	San Lucas Tolimán	10	San Lucas Tolimán	5	Mayo	2023-05-25T00:00:00	2024-11-08T10:00:00	7	Dirección del viento	6.44
125959	7	Sololá	713	San Lucas Tolimán	10	San Lucas Tolimán	5	Mayo	2023-05-25T00:00:00	2024-11-08T10:00:00	1	Precipitación	0
125960	7	Sololá	713	San Lucas Tolimán	10	San Lucas Tolimán	5	Mayo	2023-05-25T00:00:00	2024-11-08T10:00:00	8	Radiación solar	807
125961	7	Sololá	713	San Lucas Tolimán	10	San Lucas Tolimán	5	Mayo	2023-05-25T00:00:00	2024-11-08T11:00:00	2	Temperatura media	24.2
125962	7	Sololá	713	San Lucas Tolimán	10	San Lucas Tolimán	5	Mayo	2023-05-25T00:00:00	2024-11-08T11:00:00	4	Temperatura máxima	24.5
125963	7	Sololá	713	San Lucas Tolimán	10	San Lucas Tolimán	5	Mayo	2023-05-25T00:00:00	2024-11-08T11:00:00	3	Temperatura mínima	23.9
125964	7	Sololá	713	San Lucas Tolimán	10	San Lucas Tolimán	5	Mayo	2023-05-25T00:00:00	2024-11-08T11:00:00	5	Humedad	54
125965	7	Sololá	713	San Lucas Tolimán	10	San Lucas Tolimán	5	Mayo	2023-05-25T00:00:00	2024-11-08T11:00:00	6	Velocidad del viento	9.7
125966	7	Sololá	713	San Lucas Tolimán	10	San Lucas Tolimán	5	Mayo	2023-05-25T00:00:00	2024-11-08T11:00:00	7	Dirección del viento	9.66
125967	7	Sololá	713	San Lucas Tolimán	10	San Lucas Tolimán	5	Mayo	2023-05-25T00:00:00	2024-11-08T11:00:00	1	Precipitación	0
125968	7	Sololá	713	San Lucas Tolimán	10	San Lucas Tolimán	5	Mayo	2023-05-25T00:00:00	2024-11-08T11:00:00	8	Radiación solar	973
125969	7	Sololá	713	San Lucas Tolimán	10	San Lucas Tolimán	5	Mayo	2023-05-25T00:00:00	2024-11-08T12:00:00	2	Temperatura media	24.1
125970	7	Sololá	713	San Lucas Tolimán	10	San Lucas Tolimán	5	Mayo	2023-05-25T00:00:00	2024-11-08T12:00:00	4	Temperatura máxima	24.5
125971	7	Sololá	713	San Lucas Tolimán	10	San Lucas Tolimán	5	Mayo	2023-05-25T00:00:00	2024-11-08T12:00:00	3	Temperatura mínima	23.8
125972	7	Sololá	713	San Lucas Tolimán	10	San Lucas Tolimán	5	Mayo	2023-05-25T00:00:00	2024-11-08T12:00:00	5	Humedad	56
125973	7	Sololá	713	San Lucas Tolimán	10	San Lucas Tolimán	5	Mayo	2023-05-25T00:00:00	2024-11-08T12:00:00	6	Velocidad del viento	11.3
125974	7	Sololá	713	San Lucas Tolimán	10	San Lucas Tolimán	5	Mayo	2023-05-25T00:00:00	2024-11-08T12:00:00	7	Dirección del viento	11.27
125975	7	Sololá	713	San Lucas Tolimán	10	San Lucas Tolimán	5	Mayo	2023-05-25T00:00:00	2024-11-08T12:00:00	1	Precipitación	0
125976	7	Sololá	713	San Lucas Tolimán	10	San Lucas Tolimán	5	Mayo	2023-05-25T00:00:00	2024-11-08T12:00:00	8	Radiación solar	1008
125977	7	Sololá	713	San Lucas Tolimán	10	San Lucas Tolimán	5	Mayo	2023-05-25T00:00:00	2024-11-08T13:00:00	2	Temperatura media	23.8
125978	7	Sololá	713	San Lucas Tolimán	10	San Lucas Tolimán	5	Mayo	2023-05-25T00:00:00	2024-11-08T13:00:00	4	Temperatura máxima	24.7
125979	7	Sololá	713	San Lucas Tolimán	10	San Lucas Tolimán	5	Mayo	2023-05-25T00:00:00	2024-11-08T13:00:00	3	Temperatura mínima	23.6
125980	7	Sololá	713	San Lucas Tolimán	10	San Lucas Tolimán	5	Mayo	2023-05-25T00:00:00	2024-11-08T13:00:00	5	Humedad	58
125981	7	Sololá	713	San Lucas Tolimán	10	San Lucas Tolimán	5	Mayo	2023-05-25T00:00:00	2024-11-08T13:00:00	6	Velocidad del viento	11.3
125982	7	Sololá	713	San Lucas Tolimán	10	San Lucas Tolimán	5	Mayo	2023-05-25T00:00:00	2024-11-08T13:00:00	7	Dirección del viento	11.27
125983	7	Sololá	713	San Lucas Tolimán	10	San Lucas Tolimán	5	Mayo	2023-05-25T00:00:00	2024-11-08T13:00:00	1	Precipitación	0
125984	7	Sololá	713	San Lucas Tolimán	10	San Lucas Tolimán	5	Mayo	2023-05-25T00:00:00	2024-11-08T13:00:00	8	Radiación solar	1049
125985	7	Sololá	713	San Lucas Tolimán	10	San Lucas Tolimán	5	Mayo	2023-05-25T00:00:00	2024-11-08T14:00:00	2	Temperatura media	23.8
125986	7	Sololá	713	San Lucas Tolimán	10	San Lucas Tolimán	5	Mayo	2023-05-25T00:00:00	2024-11-08T14:00:00	4	Temperatura máxima	24.2
125987	7	Sololá	713	San Lucas Tolimán	10	San Lucas Tolimán	5	Mayo	2023-05-25T00:00:00	2024-11-08T14:00:00	3	Temperatura mínima	23.3
125988	7	Sololá	713	San Lucas Tolimán	10	San Lucas Tolimán	5	Mayo	2023-05-25T00:00:00	2024-11-08T14:00:00	5	Humedad	60
125989	7	Sololá	713	San Lucas Tolimán	10	San Lucas Tolimán	5	Mayo	2023-05-25T00:00:00	2024-11-08T14:00:00	6	Velocidad del viento	9.7
125990	7	Sololá	713	San Lucas Tolimán	10	San Lucas Tolimán	5	Mayo	2023-05-25T00:00:00	2024-11-08T14:00:00	7	Dirección del viento	9.66
125991	7	Sololá	713	San Lucas Tolimán	10	San Lucas Tolimán	5	Mayo	2023-05-25T00:00:00	2024-11-08T14:00:00	1	Precipitación	0
125992	7	Sololá	713	San Lucas Tolimán	10	San Lucas Tolimán	5	Mayo	2023-05-25T00:00:00	2024-11-08T14:00:00	8	Radiación solar	798
125993	7	Sololá	713	San Lucas Tolimán	10	San Lucas Tolimán	5	Mayo	2023-05-25T00:00:00	2024-11-08T15:00:00	2	Temperatura media	23.3
125994	7	Sololá	713	San Lucas Tolimán	10	San Lucas Tolimán	5	Mayo	2023-05-25T00:00:00	2024-11-08T15:00:00	4	Temperatura máxima	23.9
125995	7	Sololá	713	San Lucas Tolimán	10	San Lucas Tolimán	5	Mayo	2023-05-25T00:00:00	2024-11-08T15:00:00	3	Temperatura mínima	22.6
125996	7	Sololá	713	San Lucas Tolimán	10	San Lucas Tolimán	5	Mayo	2023-05-25T00:00:00	2024-11-08T15:00:00	5	Humedad	61
125997	7	Sololá	713	San Lucas Tolimán	10	San Lucas Tolimán	5	Mayo	2023-05-25T00:00:00	2024-11-08T15:00:00	6	Velocidad del viento	9.7
125998	7	Sololá	713	San Lucas Tolimán	10	San Lucas Tolimán	5	Mayo	2023-05-25T00:00:00	2024-11-08T15:00:00	7	Dirección del viento	9.66
125999	7	Sololá	713	San Lucas Tolimán	10	San Lucas Tolimán	5	Mayo	2023-05-25T00:00:00	2024-11-08T15:00:00	1	Precipitación	0
126000	7	Sololá	713	San Lucas Tolimán	10	San Lucas Tolimán	5	Mayo	2023-05-25T00:00:00	2024-11-08T15:00:00	8	Radiación solar	495
126001	7	Sololá	713	San Lucas Tolimán	10	San Lucas Tolimán	5	Mayo	2023-05-25T00:00:00	2024-11-08T16:00:00	2	Temperatura media	21.5
126002	7	Sololá	713	San Lucas Tolimán	10	San Lucas Tolimán	5	Mayo	2023-05-25T00:00:00	2024-11-08T16:00:00	4	Temperatura máxima	23.7
126003	7	Sololá	713	San Lucas Tolimán	10	San Lucas Tolimán	5	Mayo	2023-05-25T00:00:00	2024-11-08T16:00:00	3	Temperatura mínima	21.3
126004	7	Sololá	713	San Lucas Tolimán	10	San Lucas Tolimán	5	Mayo	2023-05-25T00:00:00	2024-11-08T16:00:00	5	Humedad	65
126005	7	Sololá	713	San Lucas Tolimán	10	San Lucas Tolimán	5	Mayo	2023-05-25T00:00:00	2024-11-08T16:00:00	6	Velocidad del viento	8
126006	7	Sololá	713	San Lucas Tolimán	10	San Lucas Tolimán	5	Mayo	2023-05-25T00:00:00	2024-11-08T16:00:00	7	Dirección del viento	8.05
126007	7	Sololá	713	San Lucas Tolimán	10	San Lucas Tolimán	5	Mayo	2023-05-25T00:00:00	2024-11-08T16:00:00	1	Precipitación	0
126008	7	Sololá	713	San Lucas Tolimán	10	San Lucas Tolimán	5	Mayo	2023-05-25T00:00:00	2024-11-08T16:00:00	8	Radiación solar	139
126009	7	Sololá	713	San Lucas Tolimán	10	San Lucas Tolimán	5	Mayo	2023-05-25T00:00:00	2024-11-08T17:00:00	2	Temperatura media	20.9
126010	7	Sololá	713	San Lucas Tolimán	10	San Lucas Tolimán	5	Mayo	2023-05-25T00:00:00	2024-11-08T17:00:00	4	Temperatura máxima	21.6
126011	7	Sololá	713	San Lucas Tolimán	10	San Lucas Tolimán	5	Mayo	2023-05-25T00:00:00	2024-11-08T17:00:00	3	Temperatura mínima	20.8
126012	7	Sololá	713	San Lucas Tolimán	10	San Lucas Tolimán	5	Mayo	2023-05-25T00:00:00	2024-11-08T17:00:00	5	Humedad	64
126013	7	Sololá	713	San Lucas Tolimán	10	San Lucas Tolimán	5	Mayo	2023-05-25T00:00:00	2024-11-08T17:00:00	6	Velocidad del viento	9.7
126014	7	Sololá	713	San Lucas Tolimán	10	San Lucas Tolimán	5	Mayo	2023-05-25T00:00:00	2024-11-08T17:00:00	7	Dirección del viento	9.66
126015	7	Sololá	713	San Lucas Tolimán	10	San Lucas Tolimán	5	Mayo	2023-05-25T00:00:00	2024-11-08T17:00:00	1	Precipitación	0
126016	7	Sololá	713	San Lucas Tolimán	10	San Lucas Tolimán	5	Mayo	2023-05-25T00:00:00	2024-11-08T17:00:00	8	Radiación solar	67
126017	7	Sololá	713	San Lucas Tolimán	10	San Lucas Tolimán	5	Mayo	2023-05-25T00:00:00	2024-11-08T18:00:00	2	Temperatura media	20.9
126018	7	Sololá	713	San Lucas Tolimán	10	San Lucas Tolimán	5	Mayo	2023-05-25T00:00:00	2024-11-08T18:00:00	4	Temperatura máxima	20.9
126019	7	Sololá	713	San Lucas Tolimán	10	San Lucas Tolimán	5	Mayo	2023-05-25T00:00:00	2024-11-08T18:00:00	3	Temperatura mínima	20.6
126020	7	Sololá	713	San Lucas Tolimán	10	San Lucas Tolimán	5	Mayo	2023-05-25T00:00:00	2024-11-08T18:00:00	5	Humedad	61
126021	7	Sololá	713	San Lucas Tolimán	10	San Lucas Tolimán	5	Mayo	2023-05-25T00:00:00	2024-11-08T18:00:00	6	Velocidad del viento	4.8
126022	7	Sololá	713	San Lucas Tolimán	10	San Lucas Tolimán	5	Mayo	2023-05-25T00:00:00	2024-11-08T18:00:00	7	Dirección del viento	4.83
126023	7	Sololá	713	San Lucas Tolimán	10	San Lucas Tolimán	5	Mayo	2023-05-25T00:00:00	2024-11-08T18:00:00	1	Precipitación	0
126024	7	Sololá	713	San Lucas Tolimán	10	San Lucas Tolimán	5	Mayo	2023-05-25T00:00:00	2024-11-08T18:00:00	8	Radiación solar	10
126025	7	Sololá	713	San Lucas Tolimán	10	San Lucas Tolimán	5	Mayo	2023-05-25T00:00:00	2024-11-08T19:00:00	2	Temperatura media	18.6
126026	7	Sololá	713	San Lucas Tolimán	10	San Lucas Tolimán	5	Mayo	2023-05-25T00:00:00	2024-11-08T19:00:00	4	Temperatura máxima	21
126027	7	Sololá	713	San Lucas Tolimán	10	San Lucas Tolimán	5	Mayo	2023-05-25T00:00:00	2024-11-08T19:00:00	3	Temperatura mínima	18.6
126028	7	Sololá	713	San Lucas Tolimán	10	San Lucas Tolimán	5	Mayo	2023-05-25T00:00:00	2024-11-08T19:00:00	5	Humedad	65
126029	7	Sololá	713	San Lucas Tolimán	10	San Lucas Tolimán	5	Mayo	2023-05-25T00:00:00	2024-11-08T19:00:00	6	Velocidad del viento	6.4
126030	7	Sololá	713	San Lucas Tolimán	10	San Lucas Tolimán	5	Mayo	2023-05-25T00:00:00	2024-11-08T19:00:00	7	Dirección del viento	6.44
126031	7	Sololá	713	San Lucas Tolimán	10	San Lucas Tolimán	5	Mayo	2023-05-25T00:00:00	2024-11-08T19:00:00	1	Precipitación	1.2
126032	7	Sololá	713	San Lucas Tolimán	10	San Lucas Tolimán	5	Mayo	2023-05-25T00:00:00	2024-11-08T19:00:00	8	Radiación solar	0
126033	7	Sololá	713	San Lucas Tolimán	10	San Lucas Tolimán	5	Mayo	2023-05-25T00:00:00	2024-11-08T20:00:00	2	Temperatura media	18.1
126034	7	Sololá	713	San Lucas Tolimán	10	San Lucas Tolimán	5	Mayo	2023-05-25T00:00:00	2024-11-08T20:00:00	4	Temperatura máxima	18.6
126035	7	Sololá	713	San Lucas Tolimán	10	San Lucas Tolimán	5	Mayo	2023-05-25T00:00:00	2024-11-08T20:00:00	3	Temperatura mínima	18
126036	7	Sololá	713	San Lucas Tolimán	10	San Lucas Tolimán	5	Mayo	2023-05-25T00:00:00	2024-11-08T20:00:00	5	Humedad	69
126037	7	Sololá	713	San Lucas Tolimán	10	San Lucas Tolimán	5	Mayo	2023-05-25T00:00:00	2024-11-08T20:00:00	6	Velocidad del viento	4.8
126038	7	Sololá	713	San Lucas Tolimán	10	San Lucas Tolimán	5	Mayo	2023-05-25T00:00:00	2024-11-08T20:00:00	7	Dirección del viento	4.83
126039	7	Sololá	713	San Lucas Tolimán	10	San Lucas Tolimán	5	Mayo	2023-05-25T00:00:00	2024-11-08T20:00:00	1	Precipitación	0.8
126040	7	Sololá	713	San Lucas Tolimán	10	San Lucas Tolimán	5	Mayo	2023-05-25T00:00:00	2024-11-08T20:00:00	8	Radiación solar	0
126041	7	Sololá	713	San Lucas Tolimán	10	San Lucas Tolimán	5	Mayo	2023-05-25T00:00:00	2024-11-08T21:00:00	2	Temperatura media	17.8
126042	7	Sololá	713	San Lucas Tolimán	10	San Lucas Tolimán	5	Mayo	2023-05-25T00:00:00	2024-11-08T21:00:00	4	Temperatura máxima	18.1
126043	7	Sololá	713	San Lucas Tolimán	10	San Lucas Tolimán	5	Mayo	2023-05-25T00:00:00	2024-11-08T21:00:00	3	Temperatura mínima	17.7
126044	7	Sololá	713	San Lucas Tolimán	10	San Lucas Tolimán	5	Mayo	2023-05-25T00:00:00	2024-11-08T21:00:00	5	Humedad	70
126045	7	Sololá	713	San Lucas Tolimán	10	San Lucas Tolimán	5	Mayo	2023-05-25T00:00:00	2024-11-08T21:00:00	6	Velocidad del viento	6.4
126046	7	Sololá	713	San Lucas Tolimán	10	San Lucas Tolimán	5	Mayo	2023-05-25T00:00:00	2024-11-08T21:00:00	7	Dirección del viento	6.44
126047	7	Sololá	713	San Lucas Tolimán	10	San Lucas Tolimán	5	Mayo	2023-05-25T00:00:00	2024-11-08T21:00:00	1	Precipitación	0
126048	7	Sololá	713	San Lucas Tolimán	10	San Lucas Tolimán	5	Mayo	2023-05-25T00:00:00	2024-11-08T21:00:00	8	Radiación solar	0
126049	7	Sololá	713	San Lucas Tolimán	10	San Lucas Tolimán	5	Mayo	2023-05-25T00:00:00	2024-11-08T22:00:00	2	Temperatura media	17.6
126050	7	Sololá	713	San Lucas Tolimán	10	San Lucas Tolimán	5	Mayo	2023-05-25T00:00:00	2024-11-08T22:00:00	4	Temperatura máxima	17.9
126051	7	Sololá	713	San Lucas Tolimán	10	San Lucas Tolimán	5	Mayo	2023-05-25T00:00:00	2024-11-08T22:00:00	3	Temperatura mínima	17.6
126052	7	Sololá	713	San Lucas Tolimán	10	San Lucas Tolimán	5	Mayo	2023-05-25T00:00:00	2024-11-08T22:00:00	5	Humedad	70
126053	7	Sololá	713	San Lucas Tolimán	10	San Lucas Tolimán	5	Mayo	2023-05-25T00:00:00	2024-11-08T22:00:00	6	Velocidad del viento	1.6
126054	7	Sololá	713	San Lucas Tolimán	10	San Lucas Tolimán	5	Mayo	2023-05-25T00:00:00	2024-11-08T22:00:00	7	Dirección del viento	1.61
126055	7	Sololá	713	San Lucas Tolimán	10	San Lucas Tolimán	5	Mayo	2023-05-25T00:00:00	2024-11-08T22:00:00	1	Precipitación	0
126056	7	Sololá	713	San Lucas Tolimán	10	San Lucas Tolimán	5	Mayo	2023-05-25T00:00:00	2024-11-08T22:00:00	8	Radiación solar	0
126057	7	Sololá	713	San Lucas Tolimán	10	San Lucas Tolimán	5	Mayo	2023-05-25T00:00:00	2024-11-08T23:00:00	2	Temperatura media	17.8
126058	7	Sololá	713	San Lucas Tolimán	10	San Lucas Tolimán	5	Mayo	2023-05-25T00:00:00	2024-11-08T23:00:00	4	Temperatura máxima	17.8
126059	7	Sololá	713	San Lucas Tolimán	10	San Lucas Tolimán	5	Mayo	2023-05-25T00:00:00	2024-11-08T23:00:00	3	Temperatura mínima	17.5
126060	7	Sololá	713	San Lucas Tolimán	10	San Lucas Tolimán	5	Mayo	2023-05-25T00:00:00	2024-11-08T23:00:00	5	Humedad	69
126061	7	Sololá	713	San Lucas Tolimán	10	San Lucas Tolimán	5	Mayo	2023-05-25T00:00:00	2024-11-08T23:00:00	6	Velocidad del viento	1.6
126062	7	Sololá	713	San Lucas Tolimán	10	San Lucas Tolimán	5	Mayo	2023-05-25T00:00:00	2024-11-08T23:00:00	7	Dirección del viento	1.61
126063	7	Sololá	713	San Lucas Tolimán	10	San Lucas Tolimán	5	Mayo	2023-05-25T00:00:00	2024-11-08T23:00:00	1	Precipitación	0
126064	7	Sololá	713	San Lucas Tolimán	10	San Lucas Tolimán	5	Mayo	2023-05-25T00:00:00	2024-11-08T23:00:00	8	Radiación solar	0
126065	7	Sololá	713	San Lucas Tolimán	10	San Lucas Tolimán	5	Mayo	2023-05-26T00:00:00	2024-11-08T00:00:00	2	Temperatura media	17.7
126066	7	Sololá	713	San Lucas Tolimán	10	San Lucas Tolimán	5	Mayo	2023-05-26T00:00:00	2024-11-08T00:00:00	4	Temperatura máxima	17.9
126067	7	Sololá	713	San Lucas Tolimán	10	San Lucas Tolimán	5	Mayo	2023-05-26T00:00:00	2024-11-08T00:00:00	3	Temperatura mínima	17.7
126068	7	Sololá	713	San Lucas Tolimán	10	San Lucas Tolimán	5	Mayo	2023-05-26T00:00:00	2024-11-08T00:00:00	5	Humedad	68
126069	7	Sololá	713	San Lucas Tolimán	10	San Lucas Tolimán	5	Mayo	2023-05-26T00:00:00	2024-11-08T00:00:00	6	Velocidad del viento	1.6
126070	7	Sololá	713	San Lucas Tolimán	10	San Lucas Tolimán	5	Mayo	2023-05-26T00:00:00	2024-11-08T00:00:00	7	Dirección del viento	1.61
126071	7	Sololá	713	San Lucas Tolimán	10	San Lucas Tolimán	5	Mayo	2023-05-26T00:00:00	2024-11-08T00:00:00	1	Precipitación	0
126072	7	Sololá	713	San Lucas Tolimán	10	San Lucas Tolimán	5	Mayo	2023-05-26T00:00:00	2024-11-08T00:00:00	8	Radiación solar	0
126073	7	Sololá	713	San Lucas Tolimán	10	San Lucas Tolimán	5	Mayo	2023-05-26T00:00:00	2024-11-08T01:00:00	2	Temperatura media	16.9
126074	7	Sololá	713	San Lucas Tolimán	10	San Lucas Tolimán	5	Mayo	2023-05-26T00:00:00	2024-11-08T01:00:00	4	Temperatura máxima	17.7
126075	7	Sololá	713	San Lucas Tolimán	10	San Lucas Tolimán	5	Mayo	2023-05-26T00:00:00	2024-11-08T01:00:00	3	Temperatura mínima	16.9
126076	7	Sololá	713	San Lucas Tolimán	10	San Lucas Tolimán	5	Mayo	2023-05-26T00:00:00	2024-11-08T01:00:00	5	Humedad	68
126077	7	Sololá	713	San Lucas Tolimán	10	San Lucas Tolimán	5	Mayo	2023-05-26T00:00:00	2024-11-08T01:00:00	6	Velocidad del viento	1.6
126078	7	Sololá	713	San Lucas Tolimán	10	San Lucas Tolimán	5	Mayo	2023-05-26T00:00:00	2024-11-08T01:00:00	7	Dirección del viento	1.61
126079	7	Sololá	713	San Lucas Tolimán	10	San Lucas Tolimán	5	Mayo	2023-05-26T00:00:00	2024-11-08T01:00:00	1	Precipitación	0.2
126080	7	Sololá	713	San Lucas Tolimán	10	San Lucas Tolimán	5	Mayo	2023-05-26T00:00:00	2024-11-08T01:00:00	8	Radiación solar	0
126081	7	Sololá	713	San Lucas Tolimán	10	San Lucas Tolimán	5	Mayo	2023-05-26T00:00:00	2024-11-08T02:00:00	2	Temperatura media	16.9
126082	7	Sololá	713	San Lucas Tolimán	10	San Lucas Tolimán	5	Mayo	2023-05-26T00:00:00	2024-11-08T02:00:00	4	Temperatura máxima	17.3
126083	7	Sololá	713	San Lucas Tolimán	10	San Lucas Tolimán	5	Mayo	2023-05-26T00:00:00	2024-11-08T02:00:00	3	Temperatura mínima	16.9
126084	7	Sololá	713	San Lucas Tolimán	10	San Lucas Tolimán	5	Mayo	2023-05-26T00:00:00	2024-11-08T02:00:00	5	Humedad	67
126085	7	Sololá	713	San Lucas Tolimán	10	San Lucas Tolimán	5	Mayo	2023-05-26T00:00:00	2024-11-08T02:00:00	6	Velocidad del viento	4.8
126086	7	Sololá	713	San Lucas Tolimán	10	San Lucas Tolimán	5	Mayo	2023-05-26T00:00:00	2024-11-08T02:00:00	7	Dirección del viento	4.83
126087	7	Sololá	713	San Lucas Tolimán	10	San Lucas Tolimán	5	Mayo	2023-05-26T00:00:00	2024-11-08T02:00:00	1	Precipitación	0
126088	7	Sololá	713	San Lucas Tolimán	10	San Lucas Tolimán	5	Mayo	2023-05-26T00:00:00	2024-11-08T02:00:00	8	Radiación solar	0
126089	7	Sololá	713	San Lucas Tolimán	10	San Lucas Tolimán	5	Mayo	2023-05-26T00:00:00	2024-11-08T03:00:00	2	Temperatura media	16.7
126090	7	Sololá	713	San Lucas Tolimán	10	San Lucas Tolimán	5	Mayo	2023-05-26T00:00:00	2024-11-08T03:00:00	4	Temperatura máxima	16.9
126091	7	Sololá	713	San Lucas Tolimán	10	San Lucas Tolimán	5	Mayo	2023-05-26T00:00:00	2024-11-08T03:00:00	3	Temperatura mínima	16.6
126092	7	Sololá	713	San Lucas Tolimán	10	San Lucas Tolimán	5	Mayo	2023-05-26T00:00:00	2024-11-08T03:00:00	5	Humedad	67
126093	7	Sololá	713	San Lucas Tolimán	10	San Lucas Tolimán	5	Mayo	2023-05-26T00:00:00	2024-11-08T03:00:00	6	Velocidad del viento	3.2
126094	7	Sololá	713	San Lucas Tolimán	10	San Lucas Tolimán	5	Mayo	2023-05-26T00:00:00	2024-11-08T03:00:00	7	Dirección del viento	3.22
126095	7	Sololá	713	San Lucas Tolimán	10	San Lucas Tolimán	5	Mayo	2023-05-26T00:00:00	2024-11-08T03:00:00	1	Precipitación	0
126096	7	Sololá	713	San Lucas Tolimán	10	San Lucas Tolimán	5	Mayo	2023-05-26T00:00:00	2024-11-08T03:00:00	8	Radiación solar	0
126097	7	Sololá	713	San Lucas Tolimán	10	San Lucas Tolimán	5	Mayo	2023-05-26T00:00:00	2024-11-08T04:00:00	2	Temperatura media	16.7
126098	7	Sololá	713	San Lucas Tolimán	10	San Lucas Tolimán	5	Mayo	2023-05-26T00:00:00	2024-11-08T04:00:00	4	Temperatura máxima	16.7
126099	7	Sololá	713	San Lucas Tolimán	10	San Lucas Tolimán	5	Mayo	2023-05-26T00:00:00	2024-11-08T04:00:00	3	Temperatura mínima	16.5
126100	7	Sololá	713	San Lucas Tolimán	10	San Lucas Tolimán	5	Mayo	2023-05-26T00:00:00	2024-11-08T04:00:00	5	Humedad	67
126101	7	Sololá	713	San Lucas Tolimán	10	San Lucas Tolimán	5	Mayo	2023-05-26T00:00:00	2024-11-08T04:00:00	6	Velocidad del viento	3.2
126102	7	Sololá	713	San Lucas Tolimán	10	San Lucas Tolimán	5	Mayo	2023-05-26T00:00:00	2024-11-08T04:00:00	7	Dirección del viento	3.22
126103	7	Sololá	713	San Lucas Tolimán	10	San Lucas Tolimán	5	Mayo	2023-05-26T00:00:00	2024-11-08T04:00:00	1	Precipitación	0
126104	7	Sololá	713	San Lucas Tolimán	10	San Lucas Tolimán	5	Mayo	2023-05-26T00:00:00	2024-11-08T04:00:00	8	Radiación solar	0
126105	7	Sololá	713	San Lucas Tolimán	10	San Lucas Tolimán	5	Mayo	2023-05-26T00:00:00	2024-11-08T05:00:00	2	Temperatura media	16.3
126106	7	Sololá	713	San Lucas Tolimán	10	San Lucas Tolimán	5	Mayo	2023-05-26T00:00:00	2024-11-08T05:00:00	4	Temperatura máxima	16.8
126107	7	Sololá	713	San Lucas Tolimán	10	San Lucas Tolimán	5	Mayo	2023-05-26T00:00:00	2024-11-08T05:00:00	3	Temperatura mínima	16.3
126108	7	Sololá	713	San Lucas Tolimán	10	San Lucas Tolimán	5	Mayo	2023-05-26T00:00:00	2024-11-08T05:00:00	5	Humedad	67
126109	7	Sololá	713	San Lucas Tolimán	10	San Lucas Tolimán	5	Mayo	2023-05-26T00:00:00	2024-11-08T05:00:00	6	Velocidad del viento	4.8
126110	7	Sololá	713	San Lucas Tolimán	10	San Lucas Tolimán	5	Mayo	2023-05-26T00:00:00	2024-11-08T05:00:00	7	Dirección del viento	4.83
126111	7	Sololá	713	San Lucas Tolimán	10	San Lucas Tolimán	5	Mayo	2023-05-26T00:00:00	2024-11-08T05:00:00	1	Precipitación	0
126112	7	Sololá	713	San Lucas Tolimán	10	San Lucas Tolimán	5	Mayo	2023-05-26T00:00:00	2024-11-08T05:00:00	8	Radiación solar	0
126113	7	Sololá	713	San Lucas Tolimán	10	San Lucas Tolimán	5	Mayo	2023-05-26T00:00:00	2024-11-08T06:00:00	2	Temperatura media	15.8
126114	7	Sololá	713	San Lucas Tolimán	10	San Lucas Tolimán	5	Mayo	2023-05-26T00:00:00	2024-11-08T06:00:00	4	Temperatura máxima	16.3
126115	7	Sololá	713	San Lucas Tolimán	10	San Lucas Tolimán	5	Mayo	2023-05-26T00:00:00	2024-11-08T06:00:00	3	Temperatura mínima	15.7
126116	7	Sololá	713	San Lucas Tolimán	10	San Lucas Tolimán	5	Mayo	2023-05-26T00:00:00	2024-11-08T06:00:00	5	Humedad	68
126117	7	Sololá	713	San Lucas Tolimán	10	San Lucas Tolimán	5	Mayo	2023-05-26T00:00:00	2024-11-08T06:00:00	6	Velocidad del viento	1.6
126118	7	Sololá	713	San Lucas Tolimán	10	San Lucas Tolimán	5	Mayo	2023-05-26T00:00:00	2024-11-08T06:00:00	7	Dirección del viento	1.61
126119	7	Sololá	713	San Lucas Tolimán	10	San Lucas Tolimán	5	Mayo	2023-05-26T00:00:00	2024-11-08T06:00:00	1	Precipitación	0
126120	7	Sololá	713	San Lucas Tolimán	10	San Lucas Tolimán	5	Mayo	2023-05-26T00:00:00	2024-11-08T06:00:00	8	Radiación solar	3
126121	7	Sololá	713	San Lucas Tolimán	10	San Lucas Tolimán	5	Mayo	2023-05-26T00:00:00	2024-11-08T07:00:00	2	Temperatura media	17.1
126122	7	Sololá	713	San Lucas Tolimán	10	San Lucas Tolimán	5	Mayo	2023-05-26T00:00:00	2024-11-08T07:00:00	4	Temperatura máxima	17.1
126123	7	Sololá	713	San Lucas Tolimán	10	San Lucas Tolimán	5	Mayo	2023-05-26T00:00:00	2024-11-08T07:00:00	3	Temperatura mínima	15.8
126124	7	Sololá	713	San Lucas Tolimán	10	San Lucas Tolimán	5	Mayo	2023-05-26T00:00:00	2024-11-08T07:00:00	5	Humedad	66
126125	7	Sololá	713	San Lucas Tolimán	10	San Lucas Tolimán	5	Mayo	2023-05-26T00:00:00	2024-11-08T07:00:00	6	Velocidad del viento	0
126126	7	Sololá	713	San Lucas Tolimán	10	San Lucas Tolimán	5	Mayo	2023-05-26T00:00:00	2024-11-08T07:00:00	7	Dirección del viento	0
126127	7	Sololá	713	San Lucas Tolimán	10	San Lucas Tolimán	5	Mayo	2023-05-26T00:00:00	2024-11-08T07:00:00	1	Precipitación	0
126128	7	Sololá	713	San Lucas Tolimán	10	San Lucas Tolimán	5	Mayo	2023-05-26T00:00:00	2024-11-08T07:00:00	8	Radiación solar	83
126129	7	Sololá	713	San Lucas Tolimán	10	San Lucas Tolimán	5	Mayo	2023-05-26T00:00:00	2024-11-08T08:00:00	2	Temperatura media	19.1
126130	7	Sololá	713	San Lucas Tolimán	10	San Lucas Tolimán	5	Mayo	2023-05-26T00:00:00	2024-11-08T08:00:00	4	Temperatura máxima	19.1
126131	7	Sololá	713	San Lucas Tolimán	10	San Lucas Tolimán	5	Mayo	2023-05-26T00:00:00	2024-11-08T08:00:00	3	Temperatura mínima	17.1
126132	7	Sololá	713	San Lucas Tolimán	10	San Lucas Tolimán	5	Mayo	2023-05-26T00:00:00	2024-11-08T08:00:00	5	Humedad	59
126133	7	Sololá	713	San Lucas Tolimán	10	San Lucas Tolimán	5	Mayo	2023-05-26T00:00:00	2024-11-08T08:00:00	6	Velocidad del viento	3.2
126134	7	Sololá	713	San Lucas Tolimán	10	San Lucas Tolimán	5	Mayo	2023-05-26T00:00:00	2024-11-08T08:00:00	7	Dirección del viento	3.22
126135	7	Sololá	713	San Lucas Tolimán	10	San Lucas Tolimán	5	Mayo	2023-05-26T00:00:00	2024-11-08T08:00:00	1	Precipitación	0
126136	7	Sololá	713	San Lucas Tolimán	10	San Lucas Tolimán	5	Mayo	2023-05-26T00:00:00	2024-11-08T08:00:00	8	Radiación solar	197
126137	7	Sololá	713	San Lucas Tolimán	10	San Lucas Tolimán	5	Mayo	2023-05-26T00:00:00	2024-11-08T09:00:00	2	Temperatura media	20.9
126138	7	Sololá	713	San Lucas Tolimán	10	San Lucas Tolimán	5	Mayo	2023-05-26T00:00:00	2024-11-08T09:00:00	4	Temperatura máxima	21.1
126139	7	Sololá	713	San Lucas Tolimán	10	San Lucas Tolimán	5	Mayo	2023-05-26T00:00:00	2024-11-08T09:00:00	3	Temperatura mínima	19
126140	7	Sololá	713	San Lucas Tolimán	10	San Lucas Tolimán	5	Mayo	2023-05-26T00:00:00	2024-11-08T09:00:00	5	Humedad	52
126141	7	Sololá	713	San Lucas Tolimán	10	San Lucas Tolimán	5	Mayo	2023-05-26T00:00:00	2024-11-08T09:00:00	6	Velocidad del viento	3.2
126142	7	Sololá	713	San Lucas Tolimán	10	San Lucas Tolimán	5	Mayo	2023-05-26T00:00:00	2024-11-08T09:00:00	7	Dirección del viento	3.22
126143	7	Sololá	713	San Lucas Tolimán	10	San Lucas Tolimán	5	Mayo	2023-05-26T00:00:00	2024-11-08T09:00:00	1	Precipitación	0
126144	7	Sololá	713	San Lucas Tolimán	10	San Lucas Tolimán	5	Mayo	2023-05-26T00:00:00	2024-11-08T09:00:00	8	Radiación solar	431
126145	7	Sololá	713	San Lucas Tolimán	10	San Lucas Tolimán	5	Mayo	2023-05-26T00:00:00	2024-11-08T10:00:00	2	Temperatura media	21.6
126146	7	Sololá	713	San Lucas Tolimán	10	San Lucas Tolimán	5	Mayo	2023-05-26T00:00:00	2024-11-08T10:00:00	4	Temperatura máxima	21.6
126147	7	Sololá	713	San Lucas Tolimán	10	San Lucas Tolimán	5	Mayo	2023-05-26T00:00:00	2024-11-08T10:00:00	3	Temperatura mínima	20.6
126148	7	Sololá	713	San Lucas Tolimán	10	San Lucas Tolimán	5	Mayo	2023-05-26T00:00:00	2024-11-08T10:00:00	5	Humedad	53
126149	7	Sololá	713	San Lucas Tolimán	10	San Lucas Tolimán	5	Mayo	2023-05-26T00:00:00	2024-11-08T10:00:00	6	Velocidad del viento	4.8
126150	7	Sololá	713	San Lucas Tolimán	10	San Lucas Tolimán	5	Mayo	2023-05-26T00:00:00	2024-11-08T10:00:00	7	Dirección del viento	4.83
126151	7	Sololá	713	San Lucas Tolimán	10	San Lucas Tolimán	5	Mayo	2023-05-26T00:00:00	2024-11-08T10:00:00	1	Precipitación	0
126152	7	Sololá	713	San Lucas Tolimán	10	San Lucas Tolimán	5	Mayo	2023-05-26T00:00:00	2024-11-08T10:00:00	8	Radiación solar	512
126153	7	Sololá	713	San Lucas Tolimán	10	San Lucas Tolimán	5	Mayo	2023-05-26T00:00:00	2024-11-08T11:00:00	2	Temperatura media	21.9
126154	7	Sololá	713	San Lucas Tolimán	10	San Lucas Tolimán	5	Mayo	2023-05-26T00:00:00	2024-11-08T11:00:00	4	Temperatura máxima	21.9
126155	7	Sololá	713	San Lucas Tolimán	10	San Lucas Tolimán	5	Mayo	2023-05-26T00:00:00	2024-11-08T11:00:00	3	Temperatura mínima	21.4
126156	7	Sololá	713	San Lucas Tolimán	10	San Lucas Tolimán	5	Mayo	2023-05-26T00:00:00	2024-11-08T11:00:00	5	Humedad	54
126157	7	Sololá	713	San Lucas Tolimán	10	San Lucas Tolimán	5	Mayo	2023-05-26T00:00:00	2024-11-08T11:00:00	6	Velocidad del viento	6.4
126158	7	Sololá	713	San Lucas Tolimán	10	San Lucas Tolimán	5	Mayo	2023-05-26T00:00:00	2024-11-08T11:00:00	7	Dirección del viento	6.44
126159	7	Sololá	713	San Lucas Tolimán	10	San Lucas Tolimán	5	Mayo	2023-05-26T00:00:00	2024-11-08T11:00:00	1	Precipitación	0
126160	7	Sololá	713	San Lucas Tolimán	10	San Lucas Tolimán	5	Mayo	2023-05-26T00:00:00	2024-11-08T11:00:00	8	Radiación solar	672
126161	7	Sololá	713	San Lucas Tolimán	10	San Lucas Tolimán	5	Mayo	2023-05-26T00:00:00	2024-11-08T12:00:00	2	Temperatura media	21.9
126162	7	Sololá	713	San Lucas Tolimán	10	San Lucas Tolimán	5	Mayo	2023-05-26T00:00:00	2024-11-08T12:00:00	4	Temperatura máxima	22.3
126163	7	Sololá	713	San Lucas Tolimán	10	San Lucas Tolimán	5	Mayo	2023-05-26T00:00:00	2024-11-08T12:00:00	3	Temperatura mínima	21.8
126164	7	Sololá	713	San Lucas Tolimán	10	San Lucas Tolimán	5	Mayo	2023-05-26T00:00:00	2024-11-08T12:00:00	5	Humedad	54
126165	7	Sololá	713	San Lucas Tolimán	10	San Lucas Tolimán	5	Mayo	2023-05-26T00:00:00	2024-11-08T12:00:00	6	Velocidad del viento	9.7
126166	7	Sololá	713	San Lucas Tolimán	10	San Lucas Tolimán	5	Mayo	2023-05-26T00:00:00	2024-11-08T12:00:00	7	Dirección del viento	9.66
126167	7	Sololá	713	San Lucas Tolimán	10	San Lucas Tolimán	5	Mayo	2023-05-26T00:00:00	2024-11-08T12:00:00	1	Precipitación	0
126168	7	Sololá	713	San Lucas Tolimán	10	San Lucas Tolimán	5	Mayo	2023-05-26T00:00:00	2024-11-08T12:00:00	8	Radiación solar	867
126169	7	Sololá	713	San Lucas Tolimán	10	San Lucas Tolimán	5	Mayo	2023-05-26T00:00:00	2024-11-08T13:00:00	2	Temperatura media	22.6
126170	7	Sololá	713	San Lucas Tolimán	10	San Lucas Tolimán	5	Mayo	2023-05-26T00:00:00	2024-11-08T13:00:00	4	Temperatura máxima	22.6
126171	7	Sololá	713	San Lucas Tolimán	10	San Lucas Tolimán	5	Mayo	2023-05-26T00:00:00	2024-11-08T13:00:00	3	Temperatura mínima	21.9
126172	7	Sololá	713	San Lucas Tolimán	10	San Lucas Tolimán	5	Mayo	2023-05-26T00:00:00	2024-11-08T13:00:00	5	Humedad	54
126173	7	Sololá	713	San Lucas Tolimán	10	San Lucas Tolimán	5	Mayo	2023-05-26T00:00:00	2024-11-08T13:00:00	6	Velocidad del viento	11.3
126174	7	Sololá	713	San Lucas Tolimán	10	San Lucas Tolimán	5	Mayo	2023-05-26T00:00:00	2024-11-08T13:00:00	7	Dirección del viento	11.27
126175	7	Sololá	713	San Lucas Tolimán	10	San Lucas Tolimán	5	Mayo	2023-05-26T00:00:00	2024-11-08T13:00:00	1	Precipitación	0
126176	7	Sololá	713	San Lucas Tolimán	10	San Lucas Tolimán	5	Mayo	2023-05-26T00:00:00	2024-11-08T13:00:00	8	Radiación solar	925
126177	7	Sololá	713	San Lucas Tolimán	10	San Lucas Tolimán	5	Mayo	2023-05-26T00:00:00	2024-11-08T14:00:00	2	Temperatura media	23.6
126178	7	Sololá	713	San Lucas Tolimán	10	San Lucas Tolimán	5	Mayo	2023-05-26T00:00:00	2024-11-08T14:00:00	4	Temperatura máxima	23.6
126179	7	Sololá	713	San Lucas Tolimán	10	San Lucas Tolimán	5	Mayo	2023-05-26T00:00:00	2024-11-08T14:00:00	3	Temperatura mínima	22.6
126180	7	Sololá	713	San Lucas Tolimán	10	San Lucas Tolimán	5	Mayo	2023-05-26T00:00:00	2024-11-08T14:00:00	5	Humedad	52
126181	7	Sololá	713	San Lucas Tolimán	10	San Lucas Tolimán	5	Mayo	2023-05-26T00:00:00	2024-11-08T14:00:00	6	Velocidad del viento	8
126182	7	Sololá	713	San Lucas Tolimán	10	San Lucas Tolimán	5	Mayo	2023-05-26T00:00:00	2024-11-08T14:00:00	7	Dirección del viento	8.05
126183	7	Sololá	713	San Lucas Tolimán	10	San Lucas Tolimán	5	Mayo	2023-05-26T00:00:00	2024-11-08T14:00:00	1	Precipitación	0
126184	7	Sololá	713	San Lucas Tolimán	10	San Lucas Tolimán	5	Mayo	2023-05-26T00:00:00	2024-11-08T14:00:00	8	Radiación solar	848
126185	7	Sololá	713	San Lucas Tolimán	10	San Lucas Tolimán	5	Mayo	2023-05-26T00:00:00	2024-11-08T15:00:00	2	Temperatura media	22.2
126186	7	Sololá	713	San Lucas Tolimán	10	San Lucas Tolimán	5	Mayo	2023-05-26T00:00:00	2024-11-08T15:00:00	4	Temperatura máxima	24
126187	7	Sololá	713	San Lucas Tolimán	10	San Lucas Tolimán	5	Mayo	2023-05-26T00:00:00	2024-11-08T15:00:00	3	Temperatura mínima	22.2
126188	7	Sololá	713	San Lucas Tolimán	10	San Lucas Tolimán	5	Mayo	2023-05-26T00:00:00	2024-11-08T15:00:00	5	Humedad	59
126189	7	Sololá	713	San Lucas Tolimán	10	San Lucas Tolimán	5	Mayo	2023-05-26T00:00:00	2024-11-08T15:00:00	6	Velocidad del viento	9.7
126190	7	Sololá	713	San Lucas Tolimán	10	San Lucas Tolimán	5	Mayo	2023-05-26T00:00:00	2024-11-08T15:00:00	7	Dirección del viento	9.66
126191	7	Sololá	713	San Lucas Tolimán	10	San Lucas Tolimán	5	Mayo	2023-05-26T00:00:00	2024-11-08T15:00:00	1	Precipitación	0
126192	7	Sololá	713	San Lucas Tolimán	10	San Lucas Tolimán	5	Mayo	2023-05-26T00:00:00	2024-11-08T15:00:00	8	Radiación solar	731
126193	7	Sololá	713	San Lucas Tolimán	10	San Lucas Tolimán	5	Mayo	2023-05-26T00:00:00	2024-11-08T16:00:00	2	Temperatura media	21.7
126194	7	Sololá	713	San Lucas Tolimán	10	San Lucas Tolimán	5	Mayo	2023-05-26T00:00:00	2024-11-08T16:00:00	4	Temperatura máxima	22.2
126195	7	Sololá	713	San Lucas Tolimán	10	San Lucas Tolimán	5	Mayo	2023-05-26T00:00:00	2024-11-08T16:00:00	3	Temperatura mínima	21.1
126196	7	Sololá	713	San Lucas Tolimán	10	San Lucas Tolimán	5	Mayo	2023-05-26T00:00:00	2024-11-08T16:00:00	5	Humedad	59
126197	7	Sololá	713	San Lucas Tolimán	10	San Lucas Tolimán	5	Mayo	2023-05-26T00:00:00	2024-11-08T16:00:00	6	Velocidad del viento	11.3
126198	7	Sololá	713	San Lucas Tolimán	10	San Lucas Tolimán	5	Mayo	2023-05-26T00:00:00	2024-11-08T16:00:00	7	Dirección del viento	11.27
126199	7	Sololá	713	San Lucas Tolimán	10	San Lucas Tolimán	5	Mayo	2023-05-26T00:00:00	2024-11-08T16:00:00	1	Precipitación	0
126200	7	Sololá	713	San Lucas Tolimán	10	San Lucas Tolimán	5	Mayo	2023-05-26T00:00:00	2024-11-08T16:00:00	8	Radiación solar	405
126201	7	Sololá	713	San Lucas Tolimán	10	San Lucas Tolimán	5	Mayo	2023-05-26T00:00:00	2024-11-08T17:00:00	2	Temperatura media	21.3
126202	7	Sololá	713	San Lucas Tolimán	10	San Lucas Tolimán	5	Mayo	2023-05-26T00:00:00	2024-11-08T17:00:00	4	Temperatura máxima	21.8
126203	7	Sololá	713	San Lucas Tolimán	10	San Lucas Tolimán	5	Mayo	2023-05-26T00:00:00	2024-11-08T17:00:00	3	Temperatura mínima	21.3
126204	7	Sololá	713	San Lucas Tolimán	10	San Lucas Tolimán	5	Mayo	2023-05-26T00:00:00	2024-11-08T17:00:00	5	Humedad	60
126205	7	Sololá	713	San Lucas Tolimán	10	San Lucas Tolimán	5	Mayo	2023-05-26T00:00:00	2024-11-08T17:00:00	6	Velocidad del viento	6.4
126206	7	Sololá	713	San Lucas Tolimán	10	San Lucas Tolimán	5	Mayo	2023-05-26T00:00:00	2024-11-08T17:00:00	7	Dirección del viento	6.44
126207	7	Sololá	713	San Lucas Tolimán	10	San Lucas Tolimán	5	Mayo	2023-05-26T00:00:00	2024-11-08T17:00:00	1	Precipitación	0
126208	7	Sololá	713	San Lucas Tolimán	10	San Lucas Tolimán	5	Mayo	2023-05-26T00:00:00	2024-11-08T17:00:00	8	Radiación solar	129
126209	7	Sololá	713	San Lucas Tolimán	10	San Lucas Tolimán	5	Mayo	2023-05-26T00:00:00	2024-11-08T18:00:00	2	Temperatura media	20.4
126210	7	Sololá	713	San Lucas Tolimán	10	San Lucas Tolimán	5	Mayo	2023-05-26T00:00:00	2024-11-08T18:00:00	4	Temperatura máxima	21.3
126211	7	Sololá	713	San Lucas Tolimán	10	San Lucas Tolimán	5	Mayo	2023-05-26T00:00:00	2024-11-08T18:00:00	3	Temperatura mínima	20.4
126212	7	Sololá	713	San Lucas Tolimán	10	San Lucas Tolimán	5	Mayo	2023-05-26T00:00:00	2024-11-08T18:00:00	5	Humedad	64
126213	7	Sololá	713	San Lucas Tolimán	10	San Lucas Tolimán	5	Mayo	2023-05-26T00:00:00	2024-11-08T18:00:00	6	Velocidad del viento	6.4
126214	7	Sololá	713	San Lucas Tolimán	10	San Lucas Tolimán	5	Mayo	2023-05-26T00:00:00	2024-11-08T18:00:00	7	Dirección del viento	6.44
126215	7	Sololá	713	San Lucas Tolimán	10	San Lucas Tolimán	5	Mayo	2023-05-26T00:00:00	2024-11-08T18:00:00	1	Precipitación	0
126216	7	Sololá	713	San Lucas Tolimán	10	San Lucas Tolimán	5	Mayo	2023-05-26T00:00:00	2024-11-08T18:00:00	8	Radiación solar	29
126217	7	Sololá	713	San Lucas Tolimán	10	San Lucas Tolimán	5	Mayo	2023-05-26T00:00:00	2024-11-08T19:00:00	2	Temperatura media	20.2
126218	7	Sololá	713	San Lucas Tolimán	10	San Lucas Tolimán	5	Mayo	2023-05-26T00:00:00	2024-11-08T19:00:00	4	Temperatura máxima	20.5
126219	7	Sololá	713	San Lucas Tolimán	10	San Lucas Tolimán	5	Mayo	2023-05-26T00:00:00	2024-11-08T19:00:00	3	Temperatura mínima	20.1
126220	7	Sololá	713	San Lucas Tolimán	10	San Lucas Tolimán	5	Mayo	2023-05-26T00:00:00	2024-11-08T19:00:00	5	Humedad	64
126221	7	Sololá	713	San Lucas Tolimán	10	San Lucas Tolimán	5	Mayo	2023-05-26T00:00:00	2024-11-08T19:00:00	6	Velocidad del viento	4.8
126222	7	Sololá	713	San Lucas Tolimán	10	San Lucas Tolimán	5	Mayo	2023-05-26T00:00:00	2024-11-08T19:00:00	7	Dirección del viento	4.83
126223	7	Sololá	713	San Lucas Tolimán	10	San Lucas Tolimán	5	Mayo	2023-05-26T00:00:00	2024-11-08T19:00:00	1	Precipitación	0
126224	7	Sololá	713	San Lucas Tolimán	10	San Lucas Tolimán	5	Mayo	2023-05-26T00:00:00	2024-11-08T19:00:00	8	Radiación solar	0
126225	7	Sololá	713	San Lucas Tolimán	10	San Lucas Tolimán	5	Mayo	2023-05-26T00:00:00	2024-11-08T20:00:00	2	Temperatura media	19.7
126226	7	Sololá	713	San Lucas Tolimán	10	San Lucas Tolimán	5	Mayo	2023-05-26T00:00:00	2024-11-08T20:00:00	4	Temperatura máxima	20.3
126227	7	Sololá	713	San Lucas Tolimán	10	San Lucas Tolimán	5	Mayo	2023-05-26T00:00:00	2024-11-08T20:00:00	3	Temperatura mínima	19.4
126228	7	Sololá	713	San Lucas Tolimán	10	San Lucas Tolimán	5	Mayo	2023-05-26T00:00:00	2024-11-08T20:00:00	5	Humedad	64
126229	7	Sololá	713	San Lucas Tolimán	10	San Lucas Tolimán	5	Mayo	2023-05-26T00:00:00	2024-11-08T20:00:00	6	Velocidad del viento	3.2
126230	7	Sololá	713	San Lucas Tolimán	10	San Lucas Tolimán	5	Mayo	2023-05-26T00:00:00	2024-11-08T20:00:00	7	Dirección del viento	3.22
126231	7	Sololá	713	San Lucas Tolimán	10	San Lucas Tolimán	5	Mayo	2023-05-26T00:00:00	2024-11-08T20:00:00	1	Precipitación	0
126232	7	Sololá	713	San Lucas Tolimán	10	San Lucas Tolimán	5	Mayo	2023-05-26T00:00:00	2024-11-08T20:00:00	8	Radiación solar	0
126233	7	Sololá	713	San Lucas Tolimán	10	San Lucas Tolimán	5	Mayo	2023-05-26T00:00:00	2024-11-08T21:00:00	2	Temperatura media	19.6
126234	7	Sololá	713	San Lucas Tolimán	10	San Lucas Tolimán	5	Mayo	2023-05-26T00:00:00	2024-11-08T21:00:00	4	Temperatura máxima	19.7
126235	7	Sololá	713	San Lucas Tolimán	10	San Lucas Tolimán	5	Mayo	2023-05-26T00:00:00	2024-11-08T21:00:00	3	Temperatura mínima	19.3
126236	7	Sololá	713	San Lucas Tolimán	10	San Lucas Tolimán	5	Mayo	2023-05-26T00:00:00	2024-11-08T21:00:00	5	Humedad	63
126237	7	Sololá	713	San Lucas Tolimán	10	San Lucas Tolimán	5	Mayo	2023-05-26T00:00:00	2024-11-08T21:00:00	6	Velocidad del viento	1.6
126238	7	Sololá	713	San Lucas Tolimán	10	San Lucas Tolimán	5	Mayo	2023-05-26T00:00:00	2024-11-08T21:00:00	7	Dirección del viento	1.61
126239	7	Sololá	713	San Lucas Tolimán	10	San Lucas Tolimán	5	Mayo	2023-05-26T00:00:00	2024-11-08T21:00:00	1	Precipitación	0
126240	7	Sololá	713	San Lucas Tolimán	10	San Lucas Tolimán	5	Mayo	2023-05-26T00:00:00	2024-11-08T21:00:00	8	Radiación solar	0
126241	7	Sololá	713	San Lucas Tolimán	10	San Lucas Tolimán	5	Mayo	2023-05-26T00:00:00	2024-11-08T22:00:00	2	Temperatura media	19.7
126242	7	Sololá	713	San Lucas Tolimán	10	San Lucas Tolimán	5	Mayo	2023-05-26T00:00:00	2024-11-08T22:00:00	4	Temperatura máxima	19.8
126243	7	Sololá	713	San Lucas Tolimán	10	San Lucas Tolimán	5	Mayo	2023-05-26T00:00:00	2024-11-08T22:00:00	3	Temperatura mínima	19.6
126244	7	Sololá	713	San Lucas Tolimán	10	San Lucas Tolimán	5	Mayo	2023-05-26T00:00:00	2024-11-08T22:00:00	5	Humedad	61
126245	7	Sololá	713	San Lucas Tolimán	10	San Lucas Tolimán	5	Mayo	2023-05-26T00:00:00	2024-11-08T22:00:00	6	Velocidad del viento	1.6
126246	7	Sololá	713	San Lucas Tolimán	10	San Lucas Tolimán	5	Mayo	2023-05-26T00:00:00	2024-11-08T22:00:00	7	Dirección del viento	1.61
126247	7	Sololá	713	San Lucas Tolimán	10	San Lucas Tolimán	5	Mayo	2023-05-26T00:00:00	2024-11-08T22:00:00	1	Precipitación	0
126248	7	Sololá	713	San Lucas Tolimán	10	San Lucas Tolimán	5	Mayo	2023-05-26T00:00:00	2024-11-08T22:00:00	8	Radiación solar	0
126249	7	Sololá	713	San Lucas Tolimán	10	San Lucas Tolimán	5	Mayo	2023-05-26T00:00:00	2024-11-08T23:00:00	2	Temperatura media	19.4
126250	7	Sololá	713	San Lucas Tolimán	10	San Lucas Tolimán	5	Mayo	2023-05-26T00:00:00	2024-11-08T23:00:00	4	Temperatura máxima	19.8
126251	7	Sololá	713	San Lucas Tolimán	10	San Lucas Tolimán	5	Mayo	2023-05-26T00:00:00	2024-11-08T23:00:00	3	Temperatura mínima	19.4
126252	7	Sololá	713	San Lucas Tolimán	10	San Lucas Tolimán	5	Mayo	2023-05-26T00:00:00	2024-11-08T23:00:00	5	Humedad	59
126253	7	Sololá	713	San Lucas Tolimán	10	San Lucas Tolimán	5	Mayo	2023-05-26T00:00:00	2024-11-08T23:00:00	6	Velocidad del viento	0
126254	7	Sololá	713	San Lucas Tolimán	10	San Lucas Tolimán	5	Mayo	2023-05-26T00:00:00	2024-11-08T23:00:00	7	Dirección del viento	0
126255	7	Sololá	713	San Lucas Tolimán	10	San Lucas Tolimán	5	Mayo	2023-05-26T00:00:00	2024-11-08T23:00:00	1	Precipitación	0
126256	7	Sololá	713	San Lucas Tolimán	10	San Lucas Tolimán	5	Mayo	2023-05-26T00:00:00	2024-11-08T23:00:00	8	Radiación solar	0
126257	7	Sololá	713	San Lucas Tolimán	10	San Lucas Tolimán	5	Mayo	2023-05-27T00:00:00	2024-11-08T00:00:00	2	Temperatura media	18.1
126258	7	Sololá	713	San Lucas Tolimán	10	San Lucas Tolimán	5	Mayo	2023-05-27T00:00:00	2024-11-08T00:00:00	4	Temperatura máxima	19.4
126259	7	Sololá	713	San Lucas Tolimán	10	San Lucas Tolimán	5	Mayo	2023-05-27T00:00:00	2024-11-08T00:00:00	3	Temperatura mínima	18.1
126260	7	Sololá	713	San Lucas Tolimán	10	San Lucas Tolimán	5	Mayo	2023-05-27T00:00:00	2024-11-08T00:00:00	5	Humedad	63
126261	7	Sololá	713	San Lucas Tolimán	10	San Lucas Tolimán	5	Mayo	2023-05-27T00:00:00	2024-11-08T00:00:00	6	Velocidad del viento	1.6
126262	7	Sololá	713	San Lucas Tolimán	10	San Lucas Tolimán	5	Mayo	2023-05-27T00:00:00	2024-11-08T00:00:00	7	Dirección del viento	1.61
126263	7	Sololá	713	San Lucas Tolimán	10	San Lucas Tolimán	5	Mayo	2023-05-27T00:00:00	2024-11-08T00:00:00	1	Precipitación	0
126264	7	Sololá	713	San Lucas Tolimán	10	San Lucas Tolimán	5	Mayo	2023-05-27T00:00:00	2024-11-08T00:00:00	8	Radiación solar	0
126265	7	Sololá	713	San Lucas Tolimán	10	San Lucas Tolimán	5	Mayo	2023-05-27T00:00:00	2024-11-08T01:00:00	2	Temperatura media	17.4
126266	7	Sololá	713	San Lucas Tolimán	10	San Lucas Tolimán	5	Mayo	2023-05-27T00:00:00	2024-11-08T01:00:00	4	Temperatura máxima	18.1
126267	7	Sololá	713	San Lucas Tolimán	10	San Lucas Tolimán	5	Mayo	2023-05-27T00:00:00	2024-11-08T01:00:00	3	Temperatura mínima	17.4
126268	7	Sololá	713	San Lucas Tolimán	10	San Lucas Tolimán	5	Mayo	2023-05-27T00:00:00	2024-11-08T01:00:00	5	Humedad	61
126269	7	Sololá	713	San Lucas Tolimán	10	San Lucas Tolimán	5	Mayo	2023-05-27T00:00:00	2024-11-08T01:00:00	6	Velocidad del viento	1.6
126270	7	Sololá	713	San Lucas Tolimán	10	San Lucas Tolimán	5	Mayo	2023-05-27T00:00:00	2024-11-08T01:00:00	7	Dirección del viento	1.61
126271	7	Sololá	713	San Lucas Tolimán	10	San Lucas Tolimán	5	Mayo	2023-05-27T00:00:00	2024-11-08T01:00:00	1	Precipitación	0
126272	7	Sololá	713	San Lucas Tolimán	10	San Lucas Tolimán	5	Mayo	2023-05-27T00:00:00	2024-11-08T01:00:00	8	Radiación solar	0
126273	7	Sololá	713	San Lucas Tolimán	10	San Lucas Tolimán	5	Mayo	2023-05-27T00:00:00	2024-11-08T02:00:00	2	Temperatura media	16.9
126274	7	Sololá	713	San Lucas Tolimán	10	San Lucas Tolimán	5	Mayo	2023-05-27T00:00:00	2024-11-08T02:00:00	4	Temperatura máxima	17.5
126275	7	Sololá	713	San Lucas Tolimán	10	San Lucas Tolimán	5	Mayo	2023-05-27T00:00:00	2024-11-08T02:00:00	3	Temperatura mínima	16.7
126276	7	Sololá	713	San Lucas Tolimán	10	San Lucas Tolimán	5	Mayo	2023-05-27T00:00:00	2024-11-08T02:00:00	5	Humedad	66
126277	7	Sololá	713	San Lucas Tolimán	10	San Lucas Tolimán	5	Mayo	2023-05-27T00:00:00	2024-11-08T02:00:00	6	Velocidad del viento	3.2
126278	7	Sololá	713	San Lucas Tolimán	10	San Lucas Tolimán	5	Mayo	2023-05-27T00:00:00	2024-11-08T02:00:00	7	Dirección del viento	3.22
126279	7	Sololá	713	San Lucas Tolimán	10	San Lucas Tolimán	5	Mayo	2023-05-27T00:00:00	2024-11-08T02:00:00	1	Precipitación	0
126280	7	Sololá	713	San Lucas Tolimán	10	San Lucas Tolimán	5	Mayo	2023-05-27T00:00:00	2024-11-08T02:00:00	8	Radiación solar	0
126281	7	Sololá	713	San Lucas Tolimán	10	San Lucas Tolimán	5	Mayo	2023-05-27T00:00:00	2024-11-08T03:00:00	2	Temperatura media	16.1
126282	7	Sololá	713	San Lucas Tolimán	10	San Lucas Tolimán	5	Mayo	2023-05-27T00:00:00	2024-11-08T03:00:00	4	Temperatura máxima	16.9
126283	7	Sololá	713	San Lucas Tolimán	10	San Lucas Tolimán	5	Mayo	2023-05-27T00:00:00	2024-11-08T03:00:00	3	Temperatura mínima	16
126284	7	Sololá	713	San Lucas Tolimán	10	San Lucas Tolimán	5	Mayo	2023-05-27T00:00:00	2024-11-08T03:00:00	5	Humedad	66
126285	7	Sololá	713	San Lucas Tolimán	10	San Lucas Tolimán	5	Mayo	2023-05-27T00:00:00	2024-11-08T03:00:00	6	Velocidad del viento	1.6
126286	7	Sololá	713	San Lucas Tolimán	10	San Lucas Tolimán	5	Mayo	2023-05-27T00:00:00	2024-11-08T03:00:00	7	Dirección del viento	1.61
126287	7	Sololá	713	San Lucas Tolimán	10	San Lucas Tolimán	5	Mayo	2023-05-27T00:00:00	2024-11-08T03:00:00	1	Precipitación	0
126288	7	Sololá	713	San Lucas Tolimán	10	San Lucas Tolimán	5	Mayo	2023-05-27T00:00:00	2024-11-08T03:00:00	8	Radiación solar	0
126289	7	Sololá	713	San Lucas Tolimán	10	San Lucas Tolimán	5	Mayo	2023-05-27T00:00:00	2024-11-08T04:00:00	2	Temperatura media	15.9
126290	7	Sololá	713	San Lucas Tolimán	10	San Lucas Tolimán	5	Mayo	2023-05-27T00:00:00	2024-11-08T04:00:00	4	Temperatura máxima	16.1
126291	7	Sololá	713	San Lucas Tolimán	10	San Lucas Tolimán	5	Mayo	2023-05-27T00:00:00	2024-11-08T04:00:00	3	Temperatura mínima	15.6
126292	7	Sololá	713	San Lucas Tolimán	10	San Lucas Tolimán	5	Mayo	2023-05-27T00:00:00	2024-11-08T04:00:00	5	Humedad	64
126293	7	Sololá	713	San Lucas Tolimán	10	San Lucas Tolimán	5	Mayo	2023-05-27T00:00:00	2024-11-08T04:00:00	6	Velocidad del viento	1.6
126294	7	Sololá	713	San Lucas Tolimán	10	San Lucas Tolimán	5	Mayo	2023-05-27T00:00:00	2024-11-08T04:00:00	7	Dirección del viento	1.61
126295	7	Sololá	713	San Lucas Tolimán	10	San Lucas Tolimán	5	Mayo	2023-05-27T00:00:00	2024-11-08T04:00:00	1	Precipitación	0
126296	7	Sololá	713	San Lucas Tolimán	10	San Lucas Tolimán	5	Mayo	2023-05-27T00:00:00	2024-11-08T04:00:00	8	Radiación solar	0
126297	7	Sololá	713	San Lucas Tolimán	10	San Lucas Tolimán	5	Mayo	2023-05-27T00:00:00	2024-11-08T05:00:00	2	Temperatura media	16.5
126298	7	Sololá	713	San Lucas Tolimán	10	San Lucas Tolimán	5	Mayo	2023-05-27T00:00:00	2024-11-08T05:00:00	4	Temperatura máxima	17.5
126299	7	Sololá	713	San Lucas Tolimán	10	San Lucas Tolimán	5	Mayo	2023-05-27T00:00:00	2024-11-08T05:00:00	3	Temperatura mínima	15.9
126300	7	Sololá	713	San Lucas Tolimán	10	San Lucas Tolimán	5	Mayo	2023-05-27T00:00:00	2024-11-08T05:00:00	5	Humedad	65
126301	7	Sololá	713	San Lucas Tolimán	10	San Lucas Tolimán	5	Mayo	2023-05-27T00:00:00	2024-11-08T05:00:00	6	Velocidad del viento	6.4
126302	7	Sololá	713	San Lucas Tolimán	10	San Lucas Tolimán	5	Mayo	2023-05-27T00:00:00	2024-11-08T05:00:00	7	Dirección del viento	6.44
126303	7	Sololá	713	San Lucas Tolimán	10	San Lucas Tolimán	5	Mayo	2023-05-27T00:00:00	2024-11-08T05:00:00	1	Precipitación	0
126304	7	Sololá	713	San Lucas Tolimán	10	San Lucas Tolimán	5	Mayo	2023-05-27T00:00:00	2024-11-08T05:00:00	8	Radiación solar	0
126305	7	Sololá	713	San Lucas Tolimán	10	San Lucas Tolimán	5	Mayo	2023-05-27T00:00:00	2024-11-08T06:00:00	2	Temperatura media	16.7
126306	7	Sololá	713	San Lucas Tolimán	10	San Lucas Tolimán	5	Mayo	2023-05-27T00:00:00	2024-11-08T06:00:00	4	Temperatura máxima	17
126307	7	Sololá	713	San Lucas Tolimán	10	San Lucas Tolimán	5	Mayo	2023-05-27T00:00:00	2024-11-08T06:00:00	3	Temperatura mínima	16.6
126308	7	Sololá	713	San Lucas Tolimán	10	San Lucas Tolimán	5	Mayo	2023-05-27T00:00:00	2024-11-08T06:00:00	5	Humedad	66
126309	7	Sololá	713	San Lucas Tolimán	10	San Lucas Tolimán	5	Mayo	2023-05-27T00:00:00	2024-11-08T06:00:00	6	Velocidad del viento	1.6
126310	7	Sololá	713	San Lucas Tolimán	10	San Lucas Tolimán	5	Mayo	2023-05-27T00:00:00	2024-11-08T06:00:00	7	Dirección del viento	1.61
126311	7	Sololá	713	San Lucas Tolimán	10	San Lucas Tolimán	5	Mayo	2023-05-27T00:00:00	2024-11-08T06:00:00	1	Precipitación	0
126312	7	Sololá	713	San Lucas Tolimán	10	San Lucas Tolimán	5	Mayo	2023-05-27T00:00:00	2024-11-08T06:00:00	8	Radiación solar	4
126313	7	Sololá	713	San Lucas Tolimán	10	San Lucas Tolimán	5	Mayo	2023-05-27T00:00:00	2024-11-08T07:00:00	2	Temperatura media	18.1
126314	7	Sololá	713	San Lucas Tolimán	10	San Lucas Tolimán	5	Mayo	2023-05-27T00:00:00	2024-11-08T07:00:00	4	Temperatura máxima	18.1
126315	7	Sololá	713	San Lucas Tolimán	10	San Lucas Tolimán	5	Mayo	2023-05-27T00:00:00	2024-11-08T07:00:00	3	Temperatura mínima	16.7
126316	7	Sololá	713	San Lucas Tolimán	10	San Lucas Tolimán	5	Mayo	2023-05-27T00:00:00	2024-11-08T07:00:00	5	Humedad	59
126317	7	Sololá	713	San Lucas Tolimán	10	San Lucas Tolimán	5	Mayo	2023-05-27T00:00:00	2024-11-08T07:00:00	6	Velocidad del viento	1.6
126318	7	Sololá	713	San Lucas Tolimán	10	San Lucas Tolimán	5	Mayo	2023-05-27T00:00:00	2024-11-08T07:00:00	7	Dirección del viento	1.61
126319	7	Sololá	713	San Lucas Tolimán	10	San Lucas Tolimán	5	Mayo	2023-05-27T00:00:00	2024-11-08T07:00:00	1	Precipitación	0
126320	7	Sololá	713	San Lucas Tolimán	10	San Lucas Tolimán	5	Mayo	2023-05-27T00:00:00	2024-11-08T07:00:00	8	Radiación solar	75
126321	7	Sololá	713	San Lucas Tolimán	10	San Lucas Tolimán	5	Mayo	2023-05-27T00:00:00	2024-11-08T08:00:00	2	Temperatura media	20.6
126322	7	Sololá	713	San Lucas Tolimán	10	San Lucas Tolimán	5	Mayo	2023-05-27T00:00:00	2024-11-08T08:00:00	4	Temperatura máxima	20.6
126323	7	Sololá	713	San Lucas Tolimán	10	San Lucas Tolimán	5	Mayo	2023-05-27T00:00:00	2024-11-08T08:00:00	3	Temperatura mínima	18.1
126324	7	Sololá	713	San Lucas Tolimán	10	San Lucas Tolimán	5	Mayo	2023-05-27T00:00:00	2024-11-08T08:00:00	5	Humedad	48
126325	7	Sololá	713	San Lucas Tolimán	10	San Lucas Tolimán	5	Mayo	2023-05-27T00:00:00	2024-11-08T08:00:00	6	Velocidad del viento	3.2
126326	7	Sololá	713	San Lucas Tolimán	10	San Lucas Tolimán	5	Mayo	2023-05-27T00:00:00	2024-11-08T08:00:00	7	Dirección del viento	3.22
126327	7	Sololá	713	San Lucas Tolimán	10	San Lucas Tolimán	5	Mayo	2023-05-27T00:00:00	2024-11-08T08:00:00	1	Precipitación	0
126328	7	Sololá	713	San Lucas Tolimán	10	San Lucas Tolimán	5	Mayo	2023-05-27T00:00:00	2024-11-08T08:00:00	8	Radiación solar	285
126329	7	Sololá	713	San Lucas Tolimán	10	San Lucas Tolimán	5	Mayo	2023-05-27T00:00:00	2024-11-08T09:00:00	2	Temperatura media	21.4
126330	7	Sololá	713	San Lucas Tolimán	10	San Lucas Tolimán	5	Mayo	2023-05-27T00:00:00	2024-11-08T09:00:00	4	Temperatura máxima	21.5
126331	7	Sololá	713	San Lucas Tolimán	10	San Lucas Tolimán	5	Mayo	2023-05-27T00:00:00	2024-11-08T09:00:00	3	Temperatura mínima	20.6
126332	7	Sololá	713	San Lucas Tolimán	10	San Lucas Tolimán	5	Mayo	2023-05-27T00:00:00	2024-11-08T09:00:00	5	Humedad	45
126333	7	Sololá	713	San Lucas Tolimán	10	San Lucas Tolimán	5	Mayo	2023-05-27T00:00:00	2024-11-08T09:00:00	6	Velocidad del viento	3.2
126334	7	Sololá	713	San Lucas Tolimán	10	San Lucas Tolimán	5	Mayo	2023-05-27T00:00:00	2024-11-08T09:00:00	7	Dirección del viento	3.22
126335	7	Sololá	713	San Lucas Tolimán	10	San Lucas Tolimán	5	Mayo	2023-05-27T00:00:00	2024-11-08T09:00:00	1	Precipitación	0
126336	7	Sololá	713	San Lucas Tolimán	10	San Lucas Tolimán	5	Mayo	2023-05-27T00:00:00	2024-11-08T09:00:00	8	Radiación solar	476
126337	7	Sololá	713	San Lucas Tolimán	10	San Lucas Tolimán	5	Mayo	2023-05-27T00:00:00	2024-11-08T10:00:00	2	Temperatura media	22.4
126338	7	Sololá	713	San Lucas Tolimán	10	San Lucas Tolimán	5	Mayo	2023-05-27T00:00:00	2024-11-08T10:00:00	4	Temperatura máxima	22.4
126339	7	Sololá	713	San Lucas Tolimán	10	San Lucas Tolimán	5	Mayo	2023-05-27T00:00:00	2024-11-08T10:00:00	3	Temperatura mínima	21.4
126340	7	Sololá	713	San Lucas Tolimán	10	San Lucas Tolimán	5	Mayo	2023-05-27T00:00:00	2024-11-08T10:00:00	5	Humedad	46
126341	7	Sololá	713	San Lucas Tolimán	10	San Lucas Tolimán	5	Mayo	2023-05-27T00:00:00	2024-11-08T10:00:00	6	Velocidad del viento	4.8
126342	7	Sololá	713	San Lucas Tolimán	10	San Lucas Tolimán	5	Mayo	2023-05-27T00:00:00	2024-11-08T10:00:00	7	Dirección del viento	4.83
126343	7	Sololá	713	San Lucas Tolimán	10	San Lucas Tolimán	5	Mayo	2023-05-27T00:00:00	2024-11-08T10:00:00	1	Precipitación	0
126344	7	Sololá	713	San Lucas Tolimán	10	San Lucas Tolimán	5	Mayo	2023-05-27T00:00:00	2024-11-08T10:00:00	8	Radiación solar	607
126345	7	Sololá	713	San Lucas Tolimán	10	San Lucas Tolimán	5	Mayo	2023-05-27T00:00:00	2024-11-08T11:00:00	2	Temperatura media	22.6
126346	7	Sololá	713	San Lucas Tolimán	10	San Lucas Tolimán	5	Mayo	2023-05-27T00:00:00	2024-11-08T11:00:00	4	Temperatura máxima	22.6
126347	7	Sololá	713	San Lucas Tolimán	10	San Lucas Tolimán	5	Mayo	2023-05-27T00:00:00	2024-11-08T11:00:00	3	Temperatura mínima	21.6
126348	7	Sololá	713	San Lucas Tolimán	10	San Lucas Tolimán	5	Mayo	2023-05-27T00:00:00	2024-11-08T11:00:00	5	Humedad	46
126349	7	Sololá	713	San Lucas Tolimán	10	San Lucas Tolimán	5	Mayo	2023-05-27T00:00:00	2024-11-08T11:00:00	6	Velocidad del viento	8
126350	7	Sololá	713	San Lucas Tolimán	10	San Lucas Tolimán	5	Mayo	2023-05-27T00:00:00	2024-11-08T11:00:00	7	Dirección del viento	8.05
126351	7	Sololá	713	San Lucas Tolimán	10	San Lucas Tolimán	5	Mayo	2023-05-27T00:00:00	2024-11-08T11:00:00	1	Precipitación	0
126352	7	Sololá	713	San Lucas Tolimán	10	San Lucas Tolimán	5	Mayo	2023-05-27T00:00:00	2024-11-08T11:00:00	8	Radiación solar	721
126353	7	Sololá	713	San Lucas Tolimán	10	San Lucas Tolimán	5	Mayo	2023-05-27T00:00:00	2024-11-08T12:00:00	2	Temperatura media	23.6
126354	7	Sololá	713	San Lucas Tolimán	10	San Lucas Tolimán	5	Mayo	2023-05-27T00:00:00	2024-11-08T12:00:00	4	Temperatura máxima	23.9
126355	7	Sololá	713	San Lucas Tolimán	10	San Lucas Tolimán	5	Mayo	2023-05-27T00:00:00	2024-11-08T12:00:00	3	Temperatura mínima	22.3
126356	7	Sololá	713	San Lucas Tolimán	10	San Lucas Tolimán	5	Mayo	2023-05-27T00:00:00	2024-11-08T12:00:00	5	Humedad	56
126357	7	Sololá	713	San Lucas Tolimán	10	San Lucas Tolimán	5	Mayo	2023-05-27T00:00:00	2024-11-08T12:00:00	6	Velocidad del viento	9.7
126358	7	Sololá	713	San Lucas Tolimán	10	San Lucas Tolimán	5	Mayo	2023-05-27T00:00:00	2024-11-08T12:00:00	7	Dirección del viento	9.66
126359	7	Sololá	713	San Lucas Tolimán	10	San Lucas Tolimán	5	Mayo	2023-05-27T00:00:00	2024-11-08T12:00:00	1	Precipitación	0
126360	7	Sololá	713	San Lucas Tolimán	10	San Lucas Tolimán	5	Mayo	2023-05-27T00:00:00	2024-11-08T12:00:00	8	Radiación solar	1071
126361	7	Sololá	713	San Lucas Tolimán	10	San Lucas Tolimán	5	Mayo	2023-05-27T00:00:00	2024-11-08T13:00:00	2	Temperatura media	23.2
126362	7	Sololá	713	San Lucas Tolimán	10	San Lucas Tolimán	5	Mayo	2023-05-27T00:00:00	2024-11-08T13:00:00	4	Temperatura máxima	23.6
126363	7	Sololá	713	San Lucas Tolimán	10	San Lucas Tolimán	5	Mayo	2023-05-27T00:00:00	2024-11-08T13:00:00	3	Temperatura mínima	22.3
126364	7	Sololá	713	San Lucas Tolimán	10	San Lucas Tolimán	5	Mayo	2023-05-27T00:00:00	2024-11-08T13:00:00	5	Humedad	57
126365	7	Sololá	713	San Lucas Tolimán	10	San Lucas Tolimán	5	Mayo	2023-05-27T00:00:00	2024-11-08T13:00:00	6	Velocidad del viento	11.3
126366	7	Sololá	713	San Lucas Tolimán	10	San Lucas Tolimán	5	Mayo	2023-05-27T00:00:00	2024-11-08T13:00:00	7	Dirección del viento	11.27
126367	7	Sololá	713	San Lucas Tolimán	10	San Lucas Tolimán	5	Mayo	2023-05-27T00:00:00	2024-11-08T13:00:00	1	Precipitación	0
126368	7	Sololá	713	San Lucas Tolimán	10	San Lucas Tolimán	5	Mayo	2023-05-27T00:00:00	2024-11-08T13:00:00	8	Radiación solar	974
126369	7	Sololá	713	San Lucas Tolimán	10	San Lucas Tolimán	5	Mayo	2023-05-27T00:00:00	2024-11-08T14:00:00	2	Temperatura media	22.2
126370	7	Sololá	713	San Lucas Tolimán	10	San Lucas Tolimán	5	Mayo	2023-05-27T00:00:00	2024-11-08T14:00:00	4	Temperatura máxima	24.1
126371	7	Sololá	713	San Lucas Tolimán	10	San Lucas Tolimán	5	Mayo	2023-05-27T00:00:00	2024-11-08T14:00:00	3	Temperatura mínima	22.2
126372	7	Sololá	713	San Lucas Tolimán	10	San Lucas Tolimán	5	Mayo	2023-05-27T00:00:00	2024-11-08T14:00:00	5	Humedad	61
126373	7	Sololá	713	San Lucas Tolimán	10	San Lucas Tolimán	5	Mayo	2023-05-27T00:00:00	2024-11-08T14:00:00	6	Velocidad del viento	9.7
126374	7	Sololá	713	San Lucas Tolimán	10	San Lucas Tolimán	5	Mayo	2023-05-27T00:00:00	2024-11-08T14:00:00	7	Dirección del viento	9.66
126375	7	Sololá	713	San Lucas Tolimán	10	San Lucas Tolimán	5	Mayo	2023-05-27T00:00:00	2024-11-08T14:00:00	1	Precipitación	0
126376	7	Sololá	713	San Lucas Tolimán	10	San Lucas Tolimán	5	Mayo	2023-05-27T00:00:00	2024-11-08T14:00:00	8	Radiación solar	776
126377	7	Sololá	713	San Lucas Tolimán	10	San Lucas Tolimán	5	Mayo	2023-05-27T00:00:00	2024-11-08T15:00:00	2	Temperatura media	22.3
126378	7	Sololá	713	San Lucas Tolimán	10	San Lucas Tolimán	5	Mayo	2023-05-27T00:00:00	2024-11-08T15:00:00	4	Temperatura máxima	23.1
126379	7	Sololá	713	San Lucas Tolimán	10	San Lucas Tolimán	5	Mayo	2023-05-27T00:00:00	2024-11-08T15:00:00	3	Temperatura mínima	22.2
126380	7	Sololá	713	San Lucas Tolimán	10	San Lucas Tolimán	5	Mayo	2023-05-27T00:00:00	2024-11-08T15:00:00	5	Humedad	61
126381	7	Sololá	713	San Lucas Tolimán	10	San Lucas Tolimán	5	Mayo	2023-05-27T00:00:00	2024-11-08T15:00:00	6	Velocidad del viento	9.7
126382	7	Sololá	713	San Lucas Tolimán	10	San Lucas Tolimán	5	Mayo	2023-05-27T00:00:00	2024-11-08T15:00:00	7	Dirección del viento	9.66
126383	7	Sololá	713	San Lucas Tolimán	10	San Lucas Tolimán	5	Mayo	2023-05-27T00:00:00	2024-11-08T15:00:00	1	Precipitación	0
126384	7	Sololá	713	San Lucas Tolimán	10	San Lucas Tolimán	5	Mayo	2023-05-27T00:00:00	2024-11-08T15:00:00	8	Radiación solar	460
126385	7	Sololá	713	San Lucas Tolimán	10	San Lucas Tolimán	5	Mayo	2023-05-27T00:00:00	2024-11-08T16:00:00	2	Temperatura media	21.3
126386	7	Sololá	713	San Lucas Tolimán	10	San Lucas Tolimán	5	Mayo	2023-05-27T00:00:00	2024-11-08T16:00:00	4	Temperatura máxima	22.8
126387	7	Sololá	713	San Lucas Tolimán	10	San Lucas Tolimán	5	Mayo	2023-05-27T00:00:00	2024-11-08T16:00:00	3	Temperatura mínima	21.3
126388	7	Sololá	713	San Lucas Tolimán	10	San Lucas Tolimán	5	Mayo	2023-05-27T00:00:00	2024-11-08T16:00:00	5	Humedad	63
126389	7	Sololá	713	San Lucas Tolimán	10	San Lucas Tolimán	5	Mayo	2023-05-27T00:00:00	2024-11-08T16:00:00	6	Velocidad del viento	9.7
126390	7	Sololá	713	San Lucas Tolimán	10	San Lucas Tolimán	5	Mayo	2023-05-27T00:00:00	2024-11-08T16:00:00	7	Dirección del viento	9.66
126391	7	Sololá	713	San Lucas Tolimán	10	San Lucas Tolimán	5	Mayo	2023-05-27T00:00:00	2024-11-08T16:00:00	1	Precipitación	0
126392	7	Sololá	713	San Lucas Tolimán	10	San Lucas Tolimán	5	Mayo	2023-05-27T00:00:00	2024-11-08T16:00:00	8	Radiación solar	338
126393	7	Sololá	713	San Lucas Tolimán	10	San Lucas Tolimán	5	Mayo	2023-05-27T00:00:00	2024-11-08T17:00:00	2	Temperatura media	21.3
126394	7	Sololá	713	San Lucas Tolimán	10	San Lucas Tolimán	5	Mayo	2023-05-27T00:00:00	2024-11-08T17:00:00	4	Temperatura máxima	22.3
126395	7	Sololá	713	San Lucas Tolimán	10	San Lucas Tolimán	5	Mayo	2023-05-27T00:00:00	2024-11-08T17:00:00	3	Temperatura mínima	21.2
126396	7	Sololá	713	San Lucas Tolimán	10	San Lucas Tolimán	5	Mayo	2023-05-27T00:00:00	2024-11-08T17:00:00	5	Humedad	60
126397	7	Sololá	713	San Lucas Tolimán	10	San Lucas Tolimán	5	Mayo	2023-05-27T00:00:00	2024-11-08T17:00:00	6	Velocidad del viento	8
126398	7	Sololá	713	San Lucas Tolimán	10	San Lucas Tolimán	5	Mayo	2023-05-27T00:00:00	2024-11-08T17:00:00	7	Dirección del viento	8.05
126399	7	Sololá	713	San Lucas Tolimán	10	San Lucas Tolimán	5	Mayo	2023-05-27T00:00:00	2024-11-08T17:00:00	1	Precipitación	0
126400	7	Sololá	713	San Lucas Tolimán	10	San Lucas Tolimán	5	Mayo	2023-05-27T00:00:00	2024-11-08T17:00:00	8	Radiación solar	290
126401	7	Sololá	713	San Lucas Tolimán	10	San Lucas Tolimán	5	Mayo	2023-05-27T00:00:00	2024-11-08T18:00:00	2	Temperatura media	20.4
126402	7	Sololá	713	San Lucas Tolimán	10	San Lucas Tolimán	5	Mayo	2023-05-27T00:00:00	2024-11-08T18:00:00	4	Temperatura máxima	21.3
126403	7	Sololá	713	San Lucas Tolimán	10	San Lucas Tolimán	5	Mayo	2023-05-27T00:00:00	2024-11-08T18:00:00	3	Temperatura mínima	20.4
126404	7	Sololá	713	San Lucas Tolimán	10	San Lucas Tolimán	5	Mayo	2023-05-27T00:00:00	2024-11-08T18:00:00	5	Humedad	61
126405	7	Sololá	713	San Lucas Tolimán	10	San Lucas Tolimán	5	Mayo	2023-05-27T00:00:00	2024-11-08T18:00:00	6	Velocidad del viento	8
126406	7	Sololá	713	San Lucas Tolimán	10	San Lucas Tolimán	5	Mayo	2023-05-27T00:00:00	2024-11-08T18:00:00	7	Dirección del viento	8.05
126407	7	Sololá	713	San Lucas Tolimán	10	San Lucas Tolimán	5	Mayo	2023-05-27T00:00:00	2024-11-08T18:00:00	1	Precipitación	0
126408	7	Sololá	713	San Lucas Tolimán	10	San Lucas Tolimán	5	Mayo	2023-05-27T00:00:00	2024-11-08T18:00:00	8	Radiación solar	79
126409	7	Sololá	713	San Lucas Tolimán	10	San Lucas Tolimán	5	Mayo	2023-05-27T00:00:00	2024-11-08T19:00:00	2	Temperatura media	19.6
126410	7	Sololá	713	San Lucas Tolimán	10	San Lucas Tolimán	5	Mayo	2023-05-27T00:00:00	2024-11-08T19:00:00	4	Temperatura máxima	20.4
126411	7	Sololá	713	San Lucas Tolimán	10	San Lucas Tolimán	5	Mayo	2023-05-27T00:00:00	2024-11-08T19:00:00	3	Temperatura mínima	19.6
126412	7	Sololá	713	San Lucas Tolimán	10	San Lucas Tolimán	5	Mayo	2023-05-27T00:00:00	2024-11-08T19:00:00	5	Humedad	60
126413	7	Sololá	713	San Lucas Tolimán	10	San Lucas Tolimán	5	Mayo	2023-05-27T00:00:00	2024-11-08T19:00:00	6	Velocidad del viento	6.4
126414	7	Sololá	713	San Lucas Tolimán	10	San Lucas Tolimán	5	Mayo	2023-05-27T00:00:00	2024-11-08T19:00:00	7	Dirección del viento	6.44
126415	7	Sololá	713	San Lucas Tolimán	10	San Lucas Tolimán	5	Mayo	2023-05-27T00:00:00	2024-11-08T19:00:00	1	Precipitación	0
126416	7	Sololá	713	San Lucas Tolimán	10	San Lucas Tolimán	5	Mayo	2023-05-27T00:00:00	2024-11-08T19:00:00	8	Radiación solar	0
126417	7	Sololá	713	San Lucas Tolimán	10	San Lucas Tolimán	5	Mayo	2023-05-27T00:00:00	2024-11-08T20:00:00	2	Temperatura media	19.5
126418	7	Sololá	713	San Lucas Tolimán	10	San Lucas Tolimán	5	Mayo	2023-05-27T00:00:00	2024-11-08T20:00:00	4	Temperatura máxima	19.7
126419	7	Sololá	713	San Lucas Tolimán	10	San Lucas Tolimán	5	Mayo	2023-05-27T00:00:00	2024-11-08T20:00:00	3	Temperatura mínima	18.8
126420	7	Sololá	713	San Lucas Tolimán	10	San Lucas Tolimán	5	Mayo	2023-05-27T00:00:00	2024-11-08T20:00:00	5	Humedad	58
126421	7	Sololá	713	San Lucas Tolimán	10	San Lucas Tolimán	5	Mayo	2023-05-27T00:00:00	2024-11-08T20:00:00	6	Velocidad del viento	9.7
126422	7	Sololá	713	San Lucas Tolimán	10	San Lucas Tolimán	5	Mayo	2023-05-27T00:00:00	2024-11-08T20:00:00	7	Dirección del viento	9.66
126423	7	Sololá	713	San Lucas Tolimán	10	San Lucas Tolimán	5	Mayo	2023-05-27T00:00:00	2024-11-08T20:00:00	1	Precipitación	0
126424	7	Sololá	713	San Lucas Tolimán	10	San Lucas Tolimán	5	Mayo	2023-05-27T00:00:00	2024-11-08T20:00:00	8	Radiación solar	0
126425	7	Sololá	713	San Lucas Tolimán	10	San Lucas Tolimán	5	Mayo	2023-05-27T00:00:00	2024-11-08T21:00:00	2	Temperatura media	19.4
126426	7	Sololá	713	San Lucas Tolimán	10	San Lucas Tolimán	5	Mayo	2023-05-27T00:00:00	2024-11-08T21:00:00	4	Temperatura máxima	19.7
126427	7	Sololá	713	San Lucas Tolimán	10	San Lucas Tolimán	5	Mayo	2023-05-27T00:00:00	2024-11-08T21:00:00	3	Temperatura mínima	19.3
126428	7	Sololá	713	San Lucas Tolimán	10	San Lucas Tolimán	5	Mayo	2023-05-27T00:00:00	2024-11-08T21:00:00	5	Humedad	58
126429	7	Sololá	713	San Lucas Tolimán	10	San Lucas Tolimán	5	Mayo	2023-05-27T00:00:00	2024-11-08T21:00:00	6	Velocidad del viento	8
126430	7	Sololá	713	San Lucas Tolimán	10	San Lucas Tolimán	5	Mayo	2023-05-27T00:00:00	2024-11-08T21:00:00	7	Dirección del viento	8.05
126431	7	Sololá	713	San Lucas Tolimán	10	San Lucas Tolimán	5	Mayo	2023-05-27T00:00:00	2024-11-08T21:00:00	1	Precipitación	0
126432	7	Sololá	713	San Lucas Tolimán	10	San Lucas Tolimán	5	Mayo	2023-05-27T00:00:00	2024-11-08T21:00:00	8	Radiación solar	0
126433	7	Sololá	713	San Lucas Tolimán	10	San Lucas Tolimán	5	Mayo	2023-05-27T00:00:00	2024-11-08T22:00:00	2	Temperatura media	18.4
126434	7	Sololá	713	San Lucas Tolimán	10	San Lucas Tolimán	5	Mayo	2023-05-27T00:00:00	2024-11-08T22:00:00	4	Temperatura máxima	19.7
126435	7	Sololá	713	San Lucas Tolimán	10	San Lucas Tolimán	5	Mayo	2023-05-27T00:00:00	2024-11-08T22:00:00	3	Temperatura mínima	18.4
126436	7	Sololá	713	San Lucas Tolimán	10	San Lucas Tolimán	5	Mayo	2023-05-27T00:00:00	2024-11-08T22:00:00	5	Humedad	61
126437	7	Sololá	713	San Lucas Tolimán	10	San Lucas Tolimán	5	Mayo	2023-05-27T00:00:00	2024-11-08T22:00:00	6	Velocidad del viento	6.4
126438	7	Sololá	713	San Lucas Tolimán	10	San Lucas Tolimán	5	Mayo	2023-05-27T00:00:00	2024-11-08T22:00:00	7	Dirección del viento	6.44
126439	7	Sololá	713	San Lucas Tolimán	10	San Lucas Tolimán	5	Mayo	2023-05-27T00:00:00	2024-11-08T22:00:00	1	Precipitación	1.2
126440	7	Sololá	713	San Lucas Tolimán	10	San Lucas Tolimán	5	Mayo	2023-05-27T00:00:00	2024-11-08T22:00:00	8	Radiación solar	0
126441	7	Sololá	713	San Lucas Tolimán	10	San Lucas Tolimán	5	Mayo	2023-05-27T00:00:00	2024-11-08T23:00:00	2	Temperatura media	17.6
126442	7	Sololá	713	San Lucas Tolimán	10	San Lucas Tolimán	5	Mayo	2023-05-27T00:00:00	2024-11-08T23:00:00	4	Temperatura máxima	18.5
126443	7	Sololá	713	San Lucas Tolimán	10	San Lucas Tolimán	5	Mayo	2023-05-27T00:00:00	2024-11-08T23:00:00	3	Temperatura mínima	17.6
126444	7	Sololá	713	San Lucas Tolimán	10	San Lucas Tolimán	5	Mayo	2023-05-27T00:00:00	2024-11-08T23:00:00	5	Humedad	62
126445	7	Sololá	713	San Lucas Tolimán	10	San Lucas Tolimán	5	Mayo	2023-05-27T00:00:00	2024-11-08T23:00:00	6	Velocidad del viento	3.2
126446	7	Sololá	713	San Lucas Tolimán	10	San Lucas Tolimán	5	Mayo	2023-05-27T00:00:00	2024-11-08T23:00:00	7	Dirección del viento	3.22
126447	7	Sololá	713	San Lucas Tolimán	10	San Lucas Tolimán	5	Mayo	2023-05-27T00:00:00	2024-11-08T23:00:00	1	Precipitación	2.8
126448	7	Sololá	713	San Lucas Tolimán	10	San Lucas Tolimán	5	Mayo	2023-05-27T00:00:00	2024-11-08T23:00:00	8	Radiación solar	0
126449	7	Sololá	713	San Lucas Tolimán	10	San Lucas Tolimán	5	Mayo	2023-05-28T00:00:00	2024-11-08T00:00:00	2	Temperatura media	17.6
126450	7	Sololá	713	San Lucas Tolimán	10	San Lucas Tolimán	5	Mayo	2023-05-28T00:00:00	2024-11-08T00:00:00	4	Temperatura máxima	17.8
126451	7	Sololá	713	San Lucas Tolimán	10	San Lucas Tolimán	5	Mayo	2023-05-28T00:00:00	2024-11-08T00:00:00	3	Temperatura mínima	17.4
126452	7	Sololá	713	San Lucas Tolimán	10	San Lucas Tolimán	5	Mayo	2023-05-28T00:00:00	2024-11-08T00:00:00	5	Humedad	65
126453	7	Sololá	713	San Lucas Tolimán	10	San Lucas Tolimán	5	Mayo	2023-05-28T00:00:00	2024-11-08T00:00:00	6	Velocidad del viento	0
126454	7	Sololá	713	San Lucas Tolimán	10	San Lucas Tolimán	5	Mayo	2023-05-28T00:00:00	2024-11-08T00:00:00	7	Dirección del viento	0
126455	7	Sololá	713	San Lucas Tolimán	10	San Lucas Tolimán	5	Mayo	2023-05-28T00:00:00	2024-11-08T00:00:00	1	Precipitación	0.4
126456	7	Sololá	713	San Lucas Tolimán	10	San Lucas Tolimán	5	Mayo	2023-05-28T00:00:00	2024-11-08T00:00:00	8	Radiación solar	0
126457	7	Sololá	713	San Lucas Tolimán	10	San Lucas Tolimán	5	Mayo	2023-05-28T00:00:00	2024-11-08T01:00:00	2	Temperatura media	18.1
126458	7	Sololá	713	San Lucas Tolimán	10	San Lucas Tolimán	5	Mayo	2023-05-28T00:00:00	2024-11-08T01:00:00	4	Temperatura máxima	18.1
126459	7	Sololá	713	San Lucas Tolimán	10	San Lucas Tolimán	5	Mayo	2023-05-28T00:00:00	2024-11-08T01:00:00	3	Temperatura mínima	17.6
126460	7	Sololá	713	San Lucas Tolimán	10	San Lucas Tolimán	5	Mayo	2023-05-28T00:00:00	2024-11-08T01:00:00	5	Humedad	64
126461	7	Sololá	713	San Lucas Tolimán	10	San Lucas Tolimán	5	Mayo	2023-05-28T00:00:00	2024-11-08T01:00:00	6	Velocidad del viento	0
126462	7	Sololá	713	San Lucas Tolimán	10	San Lucas Tolimán	5	Mayo	2023-05-28T00:00:00	2024-11-08T01:00:00	7	Dirección del viento	0
126463	7	Sololá	713	San Lucas Tolimán	10	San Lucas Tolimán	5	Mayo	2023-05-28T00:00:00	2024-11-08T01:00:00	1	Precipitación	0
126464	7	Sololá	713	San Lucas Tolimán	10	San Lucas Tolimán	5	Mayo	2023-05-28T00:00:00	2024-11-08T01:00:00	8	Radiación solar	0
126465	7	Sololá	713	San Lucas Tolimán	10	San Lucas Tolimán	5	Mayo	2023-05-28T00:00:00	2024-11-08T02:00:00	2	Temperatura media	17.7
126466	7	Sololá	713	San Lucas Tolimán	10	San Lucas Tolimán	5	Mayo	2023-05-28T00:00:00	2024-11-08T02:00:00	4	Temperatura máxima	18.1
126467	7	Sololá	713	San Lucas Tolimán	10	San Lucas Tolimán	5	Mayo	2023-05-28T00:00:00	2024-11-08T02:00:00	3	Temperatura mínima	17.6
126468	7	Sololá	713	San Lucas Tolimán	10	San Lucas Tolimán	5	Mayo	2023-05-28T00:00:00	2024-11-08T02:00:00	5	Humedad	59
126469	7	Sololá	713	San Lucas Tolimán	10	San Lucas Tolimán	5	Mayo	2023-05-28T00:00:00	2024-11-08T02:00:00	6	Velocidad del viento	4.8
126470	7	Sololá	713	San Lucas Tolimán	10	San Lucas Tolimán	5	Mayo	2023-05-28T00:00:00	2024-11-08T02:00:00	7	Dirección del viento	4.83
126471	7	Sololá	713	San Lucas Tolimán	10	San Lucas Tolimán	5	Mayo	2023-05-28T00:00:00	2024-11-08T02:00:00	1	Precipitación	0
126472	7	Sololá	713	San Lucas Tolimán	10	San Lucas Tolimán	5	Mayo	2023-05-28T00:00:00	2024-11-08T02:00:00	8	Radiación solar	0
126473	7	Sololá	713	San Lucas Tolimán	10	San Lucas Tolimán	5	Mayo	2023-05-28T00:00:00	2024-11-08T03:00:00	2	Temperatura media	17.9
126474	7	Sololá	713	San Lucas Tolimán	10	San Lucas Tolimán	5	Mayo	2023-05-28T00:00:00	2024-11-08T03:00:00	4	Temperatura máxima	18
126475	7	Sololá	713	San Lucas Tolimán	10	San Lucas Tolimán	5	Mayo	2023-05-28T00:00:00	2024-11-08T03:00:00	3	Temperatura mínima	17.7
126476	7	Sololá	713	San Lucas Tolimán	10	San Lucas Tolimán	5	Mayo	2023-05-28T00:00:00	2024-11-08T03:00:00	5	Humedad	60
126477	7	Sololá	713	San Lucas Tolimán	10	San Lucas Tolimán	5	Mayo	2023-05-28T00:00:00	2024-11-08T03:00:00	6	Velocidad del viento	4.8
126478	7	Sololá	713	San Lucas Tolimán	10	San Lucas Tolimán	5	Mayo	2023-05-28T00:00:00	2024-11-08T03:00:00	7	Dirección del viento	4.83
126479	7	Sololá	713	San Lucas Tolimán	10	San Lucas Tolimán	5	Mayo	2023-05-28T00:00:00	2024-11-08T03:00:00	1	Precipitación	0
126480	7	Sololá	713	San Lucas Tolimán	10	San Lucas Tolimán	5	Mayo	2023-05-28T00:00:00	2024-11-08T03:00:00	8	Radiación solar	0
126481	7	Sololá	713	San Lucas Tolimán	10	San Lucas Tolimán	5	Mayo	2023-05-28T00:00:00	2024-11-08T04:00:00	2	Temperatura media	17.8
126482	7	Sololá	713	San Lucas Tolimán	10	San Lucas Tolimán	5	Mayo	2023-05-28T00:00:00	2024-11-08T04:00:00	4	Temperatura máxima	18.1
126483	7	Sololá	713	San Lucas Tolimán	10	San Lucas Tolimán	5	Mayo	2023-05-28T00:00:00	2024-11-08T04:00:00	3	Temperatura mínima	17.8
126484	7	Sololá	713	San Lucas Tolimán	10	San Lucas Tolimán	5	Mayo	2023-05-28T00:00:00	2024-11-08T04:00:00	5	Humedad	59
126485	7	Sololá	713	San Lucas Tolimán	10	San Lucas Tolimán	5	Mayo	2023-05-28T00:00:00	2024-11-08T04:00:00	6	Velocidad del viento	6.4
126486	7	Sololá	713	San Lucas Tolimán	10	San Lucas Tolimán	5	Mayo	2023-05-28T00:00:00	2024-11-08T04:00:00	7	Dirección del viento	6.44
126487	7	Sololá	713	San Lucas Tolimán	10	San Lucas Tolimán	5	Mayo	2023-05-28T00:00:00	2024-11-08T04:00:00	1	Precipitación	0
126488	7	Sololá	713	San Lucas Tolimán	10	San Lucas Tolimán	5	Mayo	2023-05-28T00:00:00	2024-11-08T04:00:00	8	Radiación solar	0
126489	7	Sololá	713	San Lucas Tolimán	10	San Lucas Tolimán	5	Mayo	2023-05-28T00:00:00	2024-11-08T05:00:00	2	Temperatura media	17.9
126490	7	Sololá	713	San Lucas Tolimán	10	San Lucas Tolimán	5	Mayo	2023-05-28T00:00:00	2024-11-08T05:00:00	4	Temperatura máxima	18
126491	7	Sololá	713	San Lucas Tolimán	10	San Lucas Tolimán	5	Mayo	2023-05-28T00:00:00	2024-11-08T05:00:00	3	Temperatura mínima	17.7
126492	7	Sololá	713	San Lucas Tolimán	10	San Lucas Tolimán	5	Mayo	2023-05-28T00:00:00	2024-11-08T05:00:00	5	Humedad	59
126493	7	Sololá	713	San Lucas Tolimán	10	San Lucas Tolimán	5	Mayo	2023-05-28T00:00:00	2024-11-08T05:00:00	6	Velocidad del viento	1.6
126494	7	Sololá	713	San Lucas Tolimán	10	San Lucas Tolimán	5	Mayo	2023-05-28T00:00:00	2024-11-08T05:00:00	7	Dirección del viento	1.61
126495	7	Sololá	713	San Lucas Tolimán	10	San Lucas Tolimán	5	Mayo	2023-05-28T00:00:00	2024-11-08T05:00:00	1	Precipitación	0
126496	7	Sololá	713	San Lucas Tolimán	10	San Lucas Tolimán	5	Mayo	2023-05-28T00:00:00	2024-11-08T05:00:00	8	Radiación solar	0
126497	7	Sololá	713	San Lucas Tolimán	10	San Lucas Tolimán	5	Mayo	2023-05-28T00:00:00	2024-11-08T06:00:00	2	Temperatura media	17.8
126498	7	Sololá	713	San Lucas Tolimán	10	San Lucas Tolimán	5	Mayo	2023-05-28T00:00:00	2024-11-08T06:00:00	4	Temperatura máxima	17.9
126499	7	Sololá	713	San Lucas Tolimán	10	San Lucas Tolimán	5	Mayo	2023-05-28T00:00:00	2024-11-08T06:00:00	3	Temperatura mínima	17.7
126500	7	Sololá	713	San Lucas Tolimán	10	San Lucas Tolimán	5	Mayo	2023-05-28T00:00:00	2024-11-08T06:00:00	5	Humedad	60
126501	7	Sololá	713	San Lucas Tolimán	10	San Lucas Tolimán	5	Mayo	2023-05-28T00:00:00	2024-11-08T06:00:00	6	Velocidad del viento	0
126502	7	Sololá	713	San Lucas Tolimán	10	San Lucas Tolimán	5	Mayo	2023-05-28T00:00:00	2024-11-08T06:00:00	7	Dirección del viento	0
126503	7	Sololá	713	San Lucas Tolimán	10	San Lucas Tolimán	5	Mayo	2023-05-28T00:00:00	2024-11-08T06:00:00	1	Precipitación	0
126504	7	Sololá	713	San Lucas Tolimán	10	San Lucas Tolimán	5	Mayo	2023-05-28T00:00:00	2024-11-08T06:00:00	8	Radiación solar	5
126505	7	Sololá	713	San Lucas Tolimán	10	San Lucas Tolimán	5	Mayo	2023-05-28T00:00:00	2024-11-08T07:00:00	2	Temperatura media	18.3
126506	7	Sololá	713	San Lucas Tolimán	10	San Lucas Tolimán	5	Mayo	2023-05-28T00:00:00	2024-11-08T07:00:00	4	Temperatura máxima	18.3
126507	7	Sololá	713	San Lucas Tolimán	10	San Lucas Tolimán	5	Mayo	2023-05-28T00:00:00	2024-11-08T07:00:00	3	Temperatura mínima	17.8
126508	7	Sololá	713	San Lucas Tolimán	10	San Lucas Tolimán	5	Mayo	2023-05-28T00:00:00	2024-11-08T07:00:00	5	Humedad	60
126509	7	Sololá	713	San Lucas Tolimán	10	San Lucas Tolimán	5	Mayo	2023-05-28T00:00:00	2024-11-08T07:00:00	6	Velocidad del viento	1.6
126510	7	Sololá	713	San Lucas Tolimán	10	San Lucas Tolimán	5	Mayo	2023-05-28T00:00:00	2024-11-08T07:00:00	7	Dirección del viento	1.61
126511	7	Sololá	713	San Lucas Tolimán	10	San Lucas Tolimán	5	Mayo	2023-05-28T00:00:00	2024-11-08T07:00:00	1	Precipitación	0
126512	7	Sololá	713	San Lucas Tolimán	10	San Lucas Tolimán	5	Mayo	2023-05-28T00:00:00	2024-11-08T07:00:00	8	Radiación solar	34
126513	7	Sololá	713	San Lucas Tolimán	10	San Lucas Tolimán	5	Mayo	2023-05-28T00:00:00	2024-11-08T08:00:00	2	Temperatura media	20.3
126514	7	Sololá	713	San Lucas Tolimán	10	San Lucas Tolimán	5	Mayo	2023-05-28T00:00:00	2024-11-08T08:00:00	4	Temperatura máxima	20.3
126515	7	Sololá	713	San Lucas Tolimán	10	San Lucas Tolimán	5	Mayo	2023-05-28T00:00:00	2024-11-08T08:00:00	3	Temperatura mínima	18.2
126516	7	Sololá	713	San Lucas Tolimán	10	San Lucas Tolimán	5	Mayo	2023-05-28T00:00:00	2024-11-08T08:00:00	5	Humedad	57
126517	7	Sololá	713	San Lucas Tolimán	10	San Lucas Tolimán	5	Mayo	2023-05-28T00:00:00	2024-11-08T08:00:00	6	Velocidad del viento	3.2
126518	7	Sololá	713	San Lucas Tolimán	10	San Lucas Tolimán	5	Mayo	2023-05-28T00:00:00	2024-11-08T08:00:00	7	Dirección del viento	3.22
126519	7	Sololá	713	San Lucas Tolimán	10	San Lucas Tolimán	5	Mayo	2023-05-28T00:00:00	2024-11-08T08:00:00	1	Precipitación	0
126520	7	Sololá	713	San Lucas Tolimán	10	San Lucas Tolimán	5	Mayo	2023-05-28T00:00:00	2024-11-08T08:00:00	8	Radiación solar	237
126521	7	Sololá	713	San Lucas Tolimán	10	San Lucas Tolimán	5	Mayo	2023-05-28T00:00:00	2024-11-08T09:00:00	2	Temperatura media	20.3
126522	7	Sololá	713	San Lucas Tolimán	10	San Lucas Tolimán	5	Mayo	2023-05-28T00:00:00	2024-11-08T09:00:00	4	Temperatura máxima	21.1
126523	7	Sololá	713	San Lucas Tolimán	10	San Lucas Tolimán	5	Mayo	2023-05-28T00:00:00	2024-11-08T09:00:00	3	Temperatura mínima	20.3
126524	7	Sololá	713	San Lucas Tolimán	10	San Lucas Tolimán	5	Mayo	2023-05-28T00:00:00	2024-11-08T09:00:00	5	Humedad	61
126525	7	Sololá	713	San Lucas Tolimán	10	San Lucas Tolimán	5	Mayo	2023-05-28T00:00:00	2024-11-08T09:00:00	6	Velocidad del viento	4.8
126526	7	Sololá	713	San Lucas Tolimán	10	San Lucas Tolimán	5	Mayo	2023-05-28T00:00:00	2024-11-08T09:00:00	7	Dirección del viento	4.83
126527	7	Sololá	713	San Lucas Tolimán	10	San Lucas Tolimán	5	Mayo	2023-05-28T00:00:00	2024-11-08T09:00:00	1	Precipitación	0
126528	7	Sololá	713	San Lucas Tolimán	10	San Lucas Tolimán	5	Mayo	2023-05-28T00:00:00	2024-11-08T09:00:00	8	Radiación solar	455
126529	7	Sololá	713	San Lucas Tolimán	10	San Lucas Tolimán	5	Mayo	2023-05-28T00:00:00	2024-11-08T10:00:00	2	Temperatura media	21.5
126530	7	Sololá	713	San Lucas Tolimán	10	San Lucas Tolimán	5	Mayo	2023-05-28T00:00:00	2024-11-08T10:00:00	4	Temperatura máxima	21.9
126531	7	Sololá	713	San Lucas Tolimán	10	San Lucas Tolimán	5	Mayo	2023-05-28T00:00:00	2024-11-08T10:00:00	3	Temperatura mínima	20.3
126532	7	Sololá	713	San Lucas Tolimán	10	San Lucas Tolimán	5	Mayo	2023-05-28T00:00:00	2024-11-08T10:00:00	5	Humedad	58
126533	7	Sololá	713	San Lucas Tolimán	10	San Lucas Tolimán	5	Mayo	2023-05-28T00:00:00	2024-11-08T10:00:00	6	Velocidad del viento	6.4
126534	7	Sololá	713	San Lucas Tolimán	10	San Lucas Tolimán	5	Mayo	2023-05-28T00:00:00	2024-11-08T10:00:00	7	Dirección del viento	6.44
126535	7	Sololá	713	San Lucas Tolimán	10	San Lucas Tolimán	5	Mayo	2023-05-28T00:00:00	2024-11-08T10:00:00	1	Precipitación	0
126536	7	Sololá	713	San Lucas Tolimán	10	San Lucas Tolimán	5	Mayo	2023-05-28T00:00:00	2024-11-08T10:00:00	8	Radiación solar	488
126537	7	Sololá	713	San Lucas Tolimán	10	San Lucas Tolimán	5	Mayo	2023-05-28T00:00:00	2024-11-08T11:00:00	2	Temperatura media	21.1
126538	7	Sololá	713	San Lucas Tolimán	10	San Lucas Tolimán	5	Mayo	2023-05-28T00:00:00	2024-11-08T11:00:00	4	Temperatura máxima	22.2
126539	7	Sololá	713	San Lucas Tolimán	10	San Lucas Tolimán	5	Mayo	2023-05-28T00:00:00	2024-11-08T11:00:00	3	Temperatura mínima	21.1
126540	7	Sololá	713	San Lucas Tolimán	10	San Lucas Tolimán	5	Mayo	2023-05-28T00:00:00	2024-11-08T11:00:00	5	Humedad	61
126541	7	Sololá	713	San Lucas Tolimán	10	San Lucas Tolimán	5	Mayo	2023-05-28T00:00:00	2024-11-08T11:00:00	6	Velocidad del viento	8
126542	7	Sololá	713	San Lucas Tolimán	10	San Lucas Tolimán	5	Mayo	2023-05-28T00:00:00	2024-11-08T11:00:00	7	Dirección del viento	8.05
126543	7	Sololá	713	San Lucas Tolimán	10	San Lucas Tolimán	5	Mayo	2023-05-28T00:00:00	2024-11-08T11:00:00	1	Precipitación	0
126544	7	Sololá	713	San Lucas Tolimán	10	San Lucas Tolimán	5	Mayo	2023-05-28T00:00:00	2024-11-08T11:00:00	8	Radiación solar	477
126545	7	Sololá	713	San Lucas Tolimán	10	San Lucas Tolimán	5	Mayo	2023-05-28T00:00:00	2024-11-08T12:00:00	2	Temperatura media	21.7
126546	7	Sololá	713	San Lucas Tolimán	10	San Lucas Tolimán	5	Mayo	2023-05-28T00:00:00	2024-11-08T12:00:00	4	Temperatura máxima	21.7
126547	7	Sololá	713	San Lucas Tolimán	10	San Lucas Tolimán	5	Mayo	2023-05-28T00:00:00	2024-11-08T12:00:00	3	Temperatura mínima	20.7
126548	7	Sololá	713	San Lucas Tolimán	10	San Lucas Tolimán	5	Mayo	2023-05-28T00:00:00	2024-11-08T12:00:00	5	Humedad	61
126549	7	Sololá	713	San Lucas Tolimán	10	San Lucas Tolimán	5	Mayo	2023-05-28T00:00:00	2024-11-08T12:00:00	6	Velocidad del viento	9.7
126550	7	Sololá	713	San Lucas Tolimán	10	San Lucas Tolimán	5	Mayo	2023-05-28T00:00:00	2024-11-08T12:00:00	7	Dirección del viento	9.66
126551	7	Sololá	713	San Lucas Tolimán	10	San Lucas Tolimán	5	Mayo	2023-05-28T00:00:00	2024-11-08T12:00:00	1	Precipitación	0
126552	7	Sololá	713	San Lucas Tolimán	10	San Lucas Tolimán	5	Mayo	2023-05-28T00:00:00	2024-11-08T12:00:00	8	Radiación solar	485
126553	7	Sololá	713	San Lucas Tolimán	10	San Lucas Tolimán	5	Mayo	2023-05-28T00:00:00	2024-11-08T13:00:00	2	Temperatura media	21.5
126554	7	Sololá	713	San Lucas Tolimán	10	San Lucas Tolimán	5	Mayo	2023-05-28T00:00:00	2024-11-08T13:00:00	4	Temperatura máxima	21.8
126555	7	Sololá	713	San Lucas Tolimán	10	San Lucas Tolimán	5	Mayo	2023-05-28T00:00:00	2024-11-08T13:00:00	3	Temperatura mínima	20.4
126556	7	Sololá	713	San Lucas Tolimán	10	San Lucas Tolimán	5	Mayo	2023-05-28T00:00:00	2024-11-08T13:00:00	5	Humedad	58
126557	7	Sololá	713	San Lucas Tolimán	10	San Lucas Tolimán	5	Mayo	2023-05-28T00:00:00	2024-11-08T13:00:00	6	Velocidad del viento	9.7
126558	7	Sololá	713	San Lucas Tolimán	10	San Lucas Tolimán	5	Mayo	2023-05-28T00:00:00	2024-11-08T13:00:00	7	Dirección del viento	9.66
126559	7	Sololá	713	San Lucas Tolimán	10	San Lucas Tolimán	5	Mayo	2023-05-28T00:00:00	2024-11-08T13:00:00	1	Precipitación	0
126560	7	Sololá	713	San Lucas Tolimán	10	San Lucas Tolimán	5	Mayo	2023-05-28T00:00:00	2024-11-08T13:00:00	8	Radiación solar	656
126561	7	Sololá	713	San Lucas Tolimán	10	San Lucas Tolimán	5	Mayo	2023-05-28T00:00:00	2024-11-08T14:00:00	2	Temperatura media	21.3
126562	7	Sololá	713	San Lucas Tolimán	10	San Lucas Tolimán	5	Mayo	2023-05-28T00:00:00	2024-11-08T14:00:00	4	Temperatura máxima	21.6
126563	7	Sololá	713	San Lucas Tolimán	10	San Lucas Tolimán	5	Mayo	2023-05-28T00:00:00	2024-11-08T14:00:00	3	Temperatura mínima	20.9
126564	7	Sololá	713	San Lucas Tolimán	10	San Lucas Tolimán	5	Mayo	2023-05-28T00:00:00	2024-11-08T14:00:00	5	Humedad	59
126565	7	Sololá	713	San Lucas Tolimán	10	San Lucas Tolimán	5	Mayo	2023-05-28T00:00:00	2024-11-08T14:00:00	6	Velocidad del viento	11.3
126566	7	Sololá	713	San Lucas Tolimán	10	San Lucas Tolimán	5	Mayo	2023-05-28T00:00:00	2024-11-08T14:00:00	7	Dirección del viento	11.27
126567	7	Sololá	713	San Lucas Tolimán	10	San Lucas Tolimán	5	Mayo	2023-05-28T00:00:00	2024-11-08T14:00:00	1	Precipitación	0
126568	7	Sololá	713	San Lucas Tolimán	10	San Lucas Tolimán	5	Mayo	2023-05-28T00:00:00	2024-11-08T14:00:00	8	Radiación solar	573
126569	7	Sololá	713	San Lucas Tolimán	10	San Lucas Tolimán	5	Mayo	2023-05-28T00:00:00	2024-11-08T15:00:00	2	Temperatura media	20.2
126570	7	Sololá	713	San Lucas Tolimán	10	San Lucas Tolimán	5	Mayo	2023-05-28T00:00:00	2024-11-08T15:00:00	4	Temperatura máxima	21.4
126571	7	Sololá	713	San Lucas Tolimán	10	San Lucas Tolimán	5	Mayo	2023-05-28T00:00:00	2024-11-08T15:00:00	3	Temperatura mínima	19.9
126572	7	Sololá	713	San Lucas Tolimán	10	San Lucas Tolimán	5	Mayo	2023-05-28T00:00:00	2024-11-08T15:00:00	5	Humedad	61
126573	7	Sololá	713	San Lucas Tolimán	10	San Lucas Tolimán	5	Mayo	2023-05-28T00:00:00	2024-11-08T15:00:00	6	Velocidad del viento	9.7
126574	7	Sololá	713	San Lucas Tolimán	10	San Lucas Tolimán	5	Mayo	2023-05-28T00:00:00	2024-11-08T15:00:00	7	Dirección del viento	9.66
126575	7	Sololá	713	San Lucas Tolimán	10	San Lucas Tolimán	5	Mayo	2023-05-28T00:00:00	2024-11-08T15:00:00	1	Precipitación	0
126576	7	Sololá	713	San Lucas Tolimán	10	San Lucas Tolimán	5	Mayo	2023-05-28T00:00:00	2024-11-08T15:00:00	8	Radiación solar	218
126577	7	Sololá	713	San Lucas Tolimán	10	San Lucas Tolimán	5	Mayo	2023-05-28T00:00:00	2024-11-08T16:00:00	2	Temperatura media	20.5
126578	7	Sololá	713	San Lucas Tolimán	10	San Lucas Tolimán	5	Mayo	2023-05-28T00:00:00	2024-11-08T16:00:00	4	Temperatura máxima	20.6
126579	7	Sololá	713	San Lucas Tolimán	10	San Lucas Tolimán	5	Mayo	2023-05-28T00:00:00	2024-11-08T16:00:00	3	Temperatura mínima	20
126580	7	Sololá	713	San Lucas Tolimán	10	San Lucas Tolimán	5	Mayo	2023-05-28T00:00:00	2024-11-08T16:00:00	5	Humedad	60
126581	7	Sololá	713	San Lucas Tolimán	10	San Lucas Tolimán	5	Mayo	2023-05-28T00:00:00	2024-11-08T16:00:00	6	Velocidad del viento	9.7
126582	7	Sololá	713	San Lucas Tolimán	10	San Lucas Tolimán	5	Mayo	2023-05-28T00:00:00	2024-11-08T16:00:00	7	Dirección del viento	9.66
126583	7	Sololá	713	San Lucas Tolimán	10	San Lucas Tolimán	5	Mayo	2023-05-28T00:00:00	2024-11-08T16:00:00	1	Precipitación	0
126584	7	Sololá	713	San Lucas Tolimán	10	San Lucas Tolimán	5	Mayo	2023-05-28T00:00:00	2024-11-08T16:00:00	8	Radiación solar	292
126585	7	Sololá	713	San Lucas Tolimán	10	San Lucas Tolimán	5	Mayo	2023-05-28T00:00:00	2024-11-08T17:00:00	2	Temperatura media	18.9
126586	7	Sololá	713	San Lucas Tolimán	10	San Lucas Tolimán	5	Mayo	2023-05-28T00:00:00	2024-11-08T17:00:00	4	Temperatura máxima	20.5
126587	7	Sololá	713	San Lucas Tolimán	10	San Lucas Tolimán	5	Mayo	2023-05-28T00:00:00	2024-11-08T17:00:00	3	Temperatura mínima	18.9
126588	7	Sololá	713	San Lucas Tolimán	10	San Lucas Tolimán	5	Mayo	2023-05-28T00:00:00	2024-11-08T17:00:00	5	Humedad	61
126589	7	Sololá	713	San Lucas Tolimán	10	San Lucas Tolimán	5	Mayo	2023-05-28T00:00:00	2024-11-08T17:00:00	6	Velocidad del viento	9.7
126590	7	Sololá	713	San Lucas Tolimán	10	San Lucas Tolimán	5	Mayo	2023-05-28T00:00:00	2024-11-08T17:00:00	7	Dirección del viento	9.66
126591	7	Sololá	713	San Lucas Tolimán	10	San Lucas Tolimán	5	Mayo	2023-05-28T00:00:00	2024-11-08T17:00:00	1	Precipitación	0
126592	7	Sololá	713	San Lucas Tolimán	10	San Lucas Tolimán	5	Mayo	2023-05-28T00:00:00	2024-11-08T17:00:00	8	Radiación solar	82
126593	7	Sololá	713	San Lucas Tolimán	10	San Lucas Tolimán	5	Mayo	2023-05-28T00:00:00	2024-11-08T18:00:00	2	Temperatura media	19.2
126594	7	Sololá	713	San Lucas Tolimán	10	San Lucas Tolimán	5	Mayo	2023-05-28T00:00:00	2024-11-08T18:00:00	4	Temperatura máxima	19.3
126595	7	Sololá	713	San Lucas Tolimán	10	San Lucas Tolimán	5	Mayo	2023-05-28T00:00:00	2024-11-08T18:00:00	3	Temperatura mínima	18.8
126596	7	Sololá	713	San Lucas Tolimán	10	San Lucas Tolimán	5	Mayo	2023-05-28T00:00:00	2024-11-08T18:00:00	5	Humedad	60
126597	7	Sololá	713	San Lucas Tolimán	10	San Lucas Tolimán	5	Mayo	2023-05-28T00:00:00	2024-11-08T18:00:00	6	Velocidad del viento	6.4
126598	7	Sololá	713	San Lucas Tolimán	10	San Lucas Tolimán	5	Mayo	2023-05-28T00:00:00	2024-11-08T18:00:00	7	Dirección del viento	6.44
126599	7	Sololá	713	San Lucas Tolimán	10	San Lucas Tolimán	5	Mayo	2023-05-28T00:00:00	2024-11-08T18:00:00	1	Precipitación	0
126600	7	Sololá	713	San Lucas Tolimán	10	San Lucas Tolimán	5	Mayo	2023-05-28T00:00:00	2024-11-08T18:00:00	8	Radiación solar	23
126601	7	Sololá	713	San Lucas Tolimán	10	San Lucas Tolimán	5	Mayo	2023-05-28T00:00:00	2024-11-08T19:00:00	2	Temperatura media	18.9
126602	7	Sololá	713	San Lucas Tolimán	10	San Lucas Tolimán	5	Mayo	2023-05-28T00:00:00	2024-11-08T19:00:00	4	Temperatura máxima	19.3
126603	7	Sololá	713	San Lucas Tolimán	10	San Lucas Tolimán	5	Mayo	2023-05-28T00:00:00	2024-11-08T19:00:00	3	Temperatura mínima	18.9
126604	7	Sololá	713	San Lucas Tolimán	10	San Lucas Tolimán	5	Mayo	2023-05-28T00:00:00	2024-11-08T19:00:00	5	Humedad	61
126605	7	Sololá	713	San Lucas Tolimán	10	San Lucas Tolimán	5	Mayo	2023-05-28T00:00:00	2024-11-08T19:00:00	6	Velocidad del viento	4.8
126606	7	Sololá	713	San Lucas Tolimán	10	San Lucas Tolimán	5	Mayo	2023-05-28T00:00:00	2024-11-08T19:00:00	7	Dirección del viento	4.83
126607	7	Sololá	713	San Lucas Tolimán	10	San Lucas Tolimán	5	Mayo	2023-05-28T00:00:00	2024-11-08T19:00:00	1	Precipitación	0
126608	7	Sololá	713	San Lucas Tolimán	10	San Lucas Tolimán	5	Mayo	2023-05-28T00:00:00	2024-11-08T19:00:00	8	Radiación solar	0
126609	7	Sololá	713	San Lucas Tolimán	10	San Lucas Tolimán	5	Mayo	2023-05-28T00:00:00	2024-11-08T20:00:00	2	Temperatura media	18.8
126610	7	Sololá	713	San Lucas Tolimán	10	San Lucas Tolimán	5	Mayo	2023-05-28T00:00:00	2024-11-08T20:00:00	4	Temperatura máxima	18.9
126611	7	Sololá	713	San Lucas Tolimán	10	San Lucas Tolimán	5	Mayo	2023-05-28T00:00:00	2024-11-08T20:00:00	3	Temperatura mínima	18.8
126612	7	Sololá	713	San Lucas Tolimán	10	San Lucas Tolimán	5	Mayo	2023-05-28T00:00:00	2024-11-08T20:00:00	5	Humedad	60
126613	7	Sololá	713	San Lucas Tolimán	10	San Lucas Tolimán	5	Mayo	2023-05-28T00:00:00	2024-11-08T20:00:00	6	Velocidad del viento	3.2
126614	7	Sololá	713	San Lucas Tolimán	10	San Lucas Tolimán	5	Mayo	2023-05-28T00:00:00	2024-11-08T20:00:00	7	Dirección del viento	3.22
126615	7	Sololá	713	San Lucas Tolimán	10	San Lucas Tolimán	5	Mayo	2023-05-28T00:00:00	2024-11-08T20:00:00	1	Precipitación	0
126616	7	Sololá	713	San Lucas Tolimán	10	San Lucas Tolimán	5	Mayo	2023-05-28T00:00:00	2024-11-08T20:00:00	8	Radiación solar	0
126617	7	Sololá	713	San Lucas Tolimán	10	San Lucas Tolimán	5	Mayo	2023-05-28T00:00:00	2024-11-08T21:00:00	2	Temperatura media	18.2
126618	7	Sololá	713	San Lucas Tolimán	10	San Lucas Tolimán	5	Mayo	2023-05-28T00:00:00	2024-11-08T21:00:00	4	Temperatura máxima	18.9
126619	7	Sololá	713	San Lucas Tolimán	10	San Lucas Tolimán	5	Mayo	2023-05-28T00:00:00	2024-11-08T21:00:00	3	Temperatura mínima	18.2
126620	7	Sololá	713	San Lucas Tolimán	10	San Lucas Tolimán	5	Mayo	2023-05-28T00:00:00	2024-11-08T21:00:00	5	Humedad	62
126621	7	Sololá	713	San Lucas Tolimán	10	San Lucas Tolimán	5	Mayo	2023-05-28T00:00:00	2024-11-08T21:00:00	6	Velocidad del viento	1.6
126622	7	Sololá	713	San Lucas Tolimán	10	San Lucas Tolimán	5	Mayo	2023-05-28T00:00:00	2024-11-08T21:00:00	7	Dirección del viento	1.61
126623	7	Sololá	713	San Lucas Tolimán	10	San Lucas Tolimán	5	Mayo	2023-05-28T00:00:00	2024-11-08T21:00:00	1	Precipitación	0
126624	7	Sololá	713	San Lucas Tolimán	10	San Lucas Tolimán	5	Mayo	2023-05-28T00:00:00	2024-11-08T21:00:00	8	Radiación solar	0
126625	7	Sololá	713	San Lucas Tolimán	10	San Lucas Tolimán	5	Mayo	2023-05-28T00:00:00	2024-11-08T22:00:00	2	Temperatura media	18.6
126626	7	Sololá	713	San Lucas Tolimán	10	San Lucas Tolimán	5	Mayo	2023-05-28T00:00:00	2024-11-08T22:00:00	4	Temperatura máxima	18.6
126627	7	Sololá	713	San Lucas Tolimán	10	San Lucas Tolimán	5	Mayo	2023-05-28T00:00:00	2024-11-08T22:00:00	3	Temperatura mínima	18
126628	7	Sololá	713	San Lucas Tolimán	10	San Lucas Tolimán	5	Mayo	2023-05-28T00:00:00	2024-11-08T22:00:00	5	Humedad	61
126629	7	Sololá	713	San Lucas Tolimán	10	San Lucas Tolimán	5	Mayo	2023-05-28T00:00:00	2024-11-08T22:00:00	6	Velocidad del viento	6.4
126630	7	Sololá	713	San Lucas Tolimán	10	San Lucas Tolimán	5	Mayo	2023-05-28T00:00:00	2024-11-08T22:00:00	7	Dirección del viento	6.44
126631	7	Sololá	713	San Lucas Tolimán	10	San Lucas Tolimán	5	Mayo	2023-05-28T00:00:00	2024-11-08T22:00:00	1	Precipitación	0
126632	7	Sololá	713	San Lucas Tolimán	10	San Lucas Tolimán	5	Mayo	2023-05-28T00:00:00	2024-11-08T22:00:00	8	Radiación solar	0
126633	7	Sololá	713	San Lucas Tolimán	10	San Lucas Tolimán	5	Mayo	2023-05-28T00:00:00	2024-11-08T23:00:00	2	Temperatura media	18.2
126634	7	Sololá	713	San Lucas Tolimán	10	San Lucas Tolimán	5	Mayo	2023-05-28T00:00:00	2024-11-08T23:00:00	4	Temperatura máxima	18.7
126635	7	Sololá	713	San Lucas Tolimán	10	San Lucas Tolimán	5	Mayo	2023-05-28T00:00:00	2024-11-08T23:00:00	3	Temperatura mínima	18.2
126636	7	Sololá	713	San Lucas Tolimán	10	San Lucas Tolimán	5	Mayo	2023-05-28T00:00:00	2024-11-08T23:00:00	5	Humedad	65
126637	7	Sololá	713	San Lucas Tolimán	10	San Lucas Tolimán	5	Mayo	2023-05-28T00:00:00	2024-11-08T23:00:00	6	Velocidad del viento	6.4
126638	7	Sololá	713	San Lucas Tolimán	10	San Lucas Tolimán	5	Mayo	2023-05-28T00:00:00	2024-11-08T23:00:00	7	Dirección del viento	6.44
126639	7	Sololá	713	San Lucas Tolimán	10	San Lucas Tolimán	5	Mayo	2023-05-28T00:00:00	2024-11-08T23:00:00	1	Precipitación	0.2
126640	7	Sololá	713	San Lucas Tolimán	10	San Lucas Tolimán	5	Mayo	2023-05-28T00:00:00	2024-11-08T23:00:00	8	Radiación solar	0
126641	7	Sololá	713	San Lucas Tolimán	10	San Lucas Tolimán	5	Mayo	2023-05-29T00:00:00	2024-11-08T00:00:00	2	Temperatura media	18.1
126642	7	Sololá	713	San Lucas Tolimán	10	San Lucas Tolimán	5	Mayo	2023-05-29T00:00:00	2024-11-08T00:00:00	4	Temperatura máxima	18.2
126643	7	Sololá	713	San Lucas Tolimán	10	San Lucas Tolimán	5	Mayo	2023-05-29T00:00:00	2024-11-08T00:00:00	3	Temperatura mínima	18.1
126644	7	Sololá	713	San Lucas Tolimán	10	San Lucas Tolimán	5	Mayo	2023-05-29T00:00:00	2024-11-08T00:00:00	5	Humedad	67
126645	7	Sololá	713	San Lucas Tolimán	10	San Lucas Tolimán	5	Mayo	2023-05-29T00:00:00	2024-11-08T00:00:00	6	Velocidad del viento	4.8
126646	7	Sololá	713	San Lucas Tolimán	10	San Lucas Tolimán	5	Mayo	2023-05-29T00:00:00	2024-11-08T00:00:00	7	Dirección del viento	4.83
126647	7	Sololá	713	San Lucas Tolimán	10	San Lucas Tolimán	5	Mayo	2023-05-29T00:00:00	2024-11-08T00:00:00	1	Precipitación	0
126648	7	Sololá	713	San Lucas Tolimán	10	San Lucas Tolimán	5	Mayo	2023-05-29T00:00:00	2024-11-08T00:00:00	8	Radiación solar	0
126649	7	Sololá	713	San Lucas Tolimán	10	San Lucas Tolimán	5	Mayo	2023-05-29T00:00:00	2024-11-08T01:00:00	2	Temperatura media	18.1
126650	7	Sololá	713	San Lucas Tolimán	10	San Lucas Tolimán	5	Mayo	2023-05-29T00:00:00	2024-11-08T01:00:00	4	Temperatura máxima	18.2
126651	7	Sololá	713	San Lucas Tolimán	10	San Lucas Tolimán	5	Mayo	2023-05-29T00:00:00	2024-11-08T01:00:00	3	Temperatura mínima	18
126652	7	Sololá	713	San Lucas Tolimán	10	San Lucas Tolimán	5	Mayo	2023-05-29T00:00:00	2024-11-08T01:00:00	5	Humedad	68
126653	7	Sololá	713	San Lucas Tolimán	10	San Lucas Tolimán	5	Mayo	2023-05-29T00:00:00	2024-11-08T01:00:00	6	Velocidad del viento	3.2
126654	7	Sololá	713	San Lucas Tolimán	10	San Lucas Tolimán	5	Mayo	2023-05-29T00:00:00	2024-11-08T01:00:00	7	Dirección del viento	3.22
126655	7	Sololá	713	San Lucas Tolimán	10	San Lucas Tolimán	5	Mayo	2023-05-29T00:00:00	2024-11-08T01:00:00	1	Precipitación	0
126656	7	Sololá	713	San Lucas Tolimán	10	San Lucas Tolimán	5	Mayo	2023-05-29T00:00:00	2024-11-08T01:00:00	8	Radiación solar	0
126657	7	Sololá	713	San Lucas Tolimán	10	San Lucas Tolimán	5	Mayo	2023-05-29T00:00:00	2024-11-08T02:00:00	2	Temperatura media	16.9
126658	7	Sololá	713	San Lucas Tolimán	10	San Lucas Tolimán	5	Mayo	2023-05-29T00:00:00	2024-11-08T02:00:00	4	Temperatura máxima	18.1
126659	7	Sololá	713	San Lucas Tolimán	10	San Lucas Tolimán	5	Mayo	2023-05-29T00:00:00	2024-11-08T02:00:00	3	Temperatura mínima	16.8
126660	7	Sololá	713	San Lucas Tolimán	10	San Lucas Tolimán	5	Mayo	2023-05-29T00:00:00	2024-11-08T02:00:00	5	Humedad	63
126661	7	Sololá	713	San Lucas Tolimán	10	San Lucas Tolimán	5	Mayo	2023-05-29T00:00:00	2024-11-08T02:00:00	6	Velocidad del viento	4.8
126662	7	Sololá	713	San Lucas Tolimán	10	San Lucas Tolimán	5	Mayo	2023-05-29T00:00:00	2024-11-08T02:00:00	7	Dirección del viento	4.83
126663	7	Sololá	713	San Lucas Tolimán	10	San Lucas Tolimán	5	Mayo	2023-05-29T00:00:00	2024-11-08T02:00:00	1	Precipitación	0.6
126664	7	Sololá	713	San Lucas Tolimán	10	San Lucas Tolimán	5	Mayo	2023-05-29T00:00:00	2024-11-08T02:00:00	8	Radiación solar	0
126665	7	Sololá	713	San Lucas Tolimán	10	San Lucas Tolimán	5	Mayo	2023-05-29T00:00:00	2024-11-08T03:00:00	2	Temperatura media	16.3
126666	7	Sololá	713	San Lucas Tolimán	10	San Lucas Tolimán	5	Mayo	2023-05-29T00:00:00	2024-11-08T03:00:00	4	Temperatura máxima	16.9
126667	7	Sololá	713	San Lucas Tolimán	10	San Lucas Tolimán	5	Mayo	2023-05-29T00:00:00	2024-11-08T03:00:00	3	Temperatura mínima	16.2
126668	7	Sololá	713	San Lucas Tolimán	10	San Lucas Tolimán	5	Mayo	2023-05-29T00:00:00	2024-11-08T03:00:00	5	Humedad	68
126669	7	Sololá	713	San Lucas Tolimán	10	San Lucas Tolimán	5	Mayo	2023-05-29T00:00:00	2024-11-08T03:00:00	6	Velocidad del viento	4.8
126670	7	Sololá	713	San Lucas Tolimán	10	San Lucas Tolimán	5	Mayo	2023-05-29T00:00:00	2024-11-08T03:00:00	7	Dirección del viento	4.83
126671	7	Sololá	713	San Lucas Tolimán	10	San Lucas Tolimán	5	Mayo	2023-05-29T00:00:00	2024-11-08T03:00:00	1	Precipitación	9.8
126672	7	Sololá	713	San Lucas Tolimán	10	San Lucas Tolimán	5	Mayo	2023-05-29T00:00:00	2024-11-08T03:00:00	8	Radiación solar	0
126673	7	Sololá	713	San Lucas Tolimán	10	San Lucas Tolimán	5	Mayo	2023-05-29T00:00:00	2024-11-08T04:00:00	2	Temperatura media	16.4
126674	7	Sololá	713	San Lucas Tolimán	10	San Lucas Tolimán	5	Mayo	2023-05-29T00:00:00	2024-11-08T04:00:00	4	Temperatura máxima	16.4
126675	7	Sololá	713	San Lucas Tolimán	10	San Lucas Tolimán	5	Mayo	2023-05-29T00:00:00	2024-11-08T04:00:00	3	Temperatura mínima	16.2
126676	7	Sololá	713	San Lucas Tolimán	10	San Lucas Tolimán	5	Mayo	2023-05-29T00:00:00	2024-11-08T04:00:00	5	Humedad	69
126677	7	Sololá	713	San Lucas Tolimán	10	San Lucas Tolimán	5	Mayo	2023-05-29T00:00:00	2024-11-08T04:00:00	6	Velocidad del viento	3.2
126678	7	Sololá	713	San Lucas Tolimán	10	San Lucas Tolimán	5	Mayo	2023-05-29T00:00:00	2024-11-08T04:00:00	7	Dirección del viento	3.22
126679	7	Sololá	713	San Lucas Tolimán	10	San Lucas Tolimán	5	Mayo	2023-05-29T00:00:00	2024-11-08T04:00:00	1	Precipitación	1.2
126680	7	Sololá	713	San Lucas Tolimán	10	San Lucas Tolimán	5	Mayo	2023-05-29T00:00:00	2024-11-08T04:00:00	8	Radiación solar	0
126681	7	Sololá	713	San Lucas Tolimán	10	San Lucas Tolimán	5	Mayo	2023-05-29T00:00:00	2024-11-08T05:00:00	2	Temperatura media	16.7
126682	7	Sololá	713	San Lucas Tolimán	10	San Lucas Tolimán	5	Mayo	2023-05-29T00:00:00	2024-11-08T05:00:00	4	Temperatura máxima	16.8
126683	7	Sololá	713	San Lucas Tolimán	10	San Lucas Tolimán	5	Mayo	2023-05-29T00:00:00	2024-11-08T05:00:00	3	Temperatura mínima	16.4
126684	7	Sololá	713	San Lucas Tolimán	10	San Lucas Tolimán	5	Mayo	2023-05-29T00:00:00	2024-11-08T05:00:00	5	Humedad	69
126685	7	Sololá	713	San Lucas Tolimán	10	San Lucas Tolimán	5	Mayo	2023-05-29T00:00:00	2024-11-08T05:00:00	6	Velocidad del viento	4.8
126686	7	Sololá	713	San Lucas Tolimán	10	San Lucas Tolimán	5	Mayo	2023-05-29T00:00:00	2024-11-08T05:00:00	7	Dirección del viento	4.83
126687	7	Sololá	713	San Lucas Tolimán	10	San Lucas Tolimán	5	Mayo	2023-05-29T00:00:00	2024-11-08T05:00:00	1	Precipitación	4
126688	7	Sololá	713	San Lucas Tolimán	10	San Lucas Tolimán	5	Mayo	2023-05-29T00:00:00	2024-11-08T05:00:00	8	Radiación solar	0
126689	7	Sololá	713	San Lucas Tolimán	10	San Lucas Tolimán	5	Mayo	2023-05-29T00:00:00	2024-11-08T06:00:00	2	Temperatura media	16.7
126690	7	Sololá	713	San Lucas Tolimán	10	San Lucas Tolimán	5	Mayo	2023-05-29T00:00:00	2024-11-08T06:00:00	4	Temperatura máxima	16.7
126691	7	Sololá	713	San Lucas Tolimán	10	San Lucas Tolimán	5	Mayo	2023-05-29T00:00:00	2024-11-08T06:00:00	3	Temperatura mínima	16.5
126692	7	Sololá	713	San Lucas Tolimán	10	San Lucas Tolimán	5	Mayo	2023-05-29T00:00:00	2024-11-08T06:00:00	5	Humedad	69
126693	7	Sololá	713	San Lucas Tolimán	10	San Lucas Tolimán	5	Mayo	2023-05-29T00:00:00	2024-11-08T06:00:00	6	Velocidad del viento	0
126694	7	Sololá	713	San Lucas Tolimán	10	San Lucas Tolimán	5	Mayo	2023-05-29T00:00:00	2024-11-08T06:00:00	7	Dirección del viento	0
126695	7	Sololá	713	San Lucas Tolimán	10	San Lucas Tolimán	5	Mayo	2023-05-29T00:00:00	2024-11-08T06:00:00	1	Precipitación	1
126696	7	Sololá	713	San Lucas Tolimán	10	San Lucas Tolimán	5	Mayo	2023-05-29T00:00:00	2024-11-08T06:00:00	8	Radiación solar	1
126697	7	Sololá	713	San Lucas Tolimán	10	San Lucas Tolimán	5	Mayo	2023-05-29T00:00:00	2024-11-08T07:00:00	2	Temperatura media	16.9
126698	7	Sololá	713	San Lucas Tolimán	10	San Lucas Tolimán	5	Mayo	2023-05-29T00:00:00	2024-11-08T07:00:00	4	Temperatura máxima	16.9
126699	7	Sololá	713	San Lucas Tolimán	10	San Lucas Tolimán	5	Mayo	2023-05-29T00:00:00	2024-11-08T07:00:00	3	Temperatura mínima	16.6
126700	7	Sololá	713	San Lucas Tolimán	10	San Lucas Tolimán	5	Mayo	2023-05-29T00:00:00	2024-11-08T07:00:00	5	Humedad	69
126701	7	Sololá	713	San Lucas Tolimán	10	San Lucas Tolimán	5	Mayo	2023-05-29T00:00:00	2024-11-08T07:00:00	6	Velocidad del viento	0
126702	7	Sololá	713	San Lucas Tolimán	10	San Lucas Tolimán	5	Mayo	2023-05-29T00:00:00	2024-11-08T07:00:00	7	Dirección del viento	0
126703	7	Sololá	713	San Lucas Tolimán	10	San Lucas Tolimán	5	Mayo	2023-05-29T00:00:00	2024-11-08T07:00:00	1	Precipitación	0.2
126704	7	Sololá	713	San Lucas Tolimán	10	San Lucas Tolimán	5	Mayo	2023-05-29T00:00:00	2024-11-08T07:00:00	8	Radiación solar	31
126705	7	Sololá	713	San Lucas Tolimán	10	San Lucas Tolimán	5	Mayo	2023-05-29T00:00:00	2024-11-08T08:00:00	2	Temperatura media	17.8
126706	7	Sololá	713	San Lucas Tolimán	10	San Lucas Tolimán	5	Mayo	2023-05-29T00:00:00	2024-11-08T08:00:00	4	Temperatura máxima	17.8
126707	7	Sololá	713	San Lucas Tolimán	10	San Lucas Tolimán	5	Mayo	2023-05-29T00:00:00	2024-11-08T08:00:00	3	Temperatura mínima	16.9
126708	7	Sololá	713	San Lucas Tolimán	10	San Lucas Tolimán	5	Mayo	2023-05-29T00:00:00	2024-11-08T08:00:00	5	Humedad	66
126709	7	Sololá	713	San Lucas Tolimán	10	San Lucas Tolimán	5	Mayo	2023-05-29T00:00:00	2024-11-08T08:00:00	6	Velocidad del viento	3.2
126710	7	Sololá	713	San Lucas Tolimán	10	San Lucas Tolimán	5	Mayo	2023-05-29T00:00:00	2024-11-08T08:00:00	7	Dirección del viento	3.22
126711	7	Sololá	713	San Lucas Tolimán	10	San Lucas Tolimán	5	Mayo	2023-05-29T00:00:00	2024-11-08T08:00:00	1	Precipitación	0
126712	7	Sololá	713	San Lucas Tolimán	10	San Lucas Tolimán	5	Mayo	2023-05-29T00:00:00	2024-11-08T08:00:00	8	Radiación solar	138
126713	7	Sololá	713	San Lucas Tolimán	10	San Lucas Tolimán	5	Mayo	2023-05-29T00:00:00	2024-11-08T09:00:00	2	Temperatura media	19
126714	7	Sololá	713	San Lucas Tolimán	10	San Lucas Tolimán	5	Mayo	2023-05-29T00:00:00	2024-11-08T09:00:00	4	Temperatura máxima	19.1
126715	7	Sololá	713	San Lucas Tolimán	10	San Lucas Tolimán	5	Mayo	2023-05-29T00:00:00	2024-11-08T09:00:00	3	Temperatura mínima	17.8
126716	7	Sololá	713	San Lucas Tolimán	10	San Lucas Tolimán	5	Mayo	2023-05-29T00:00:00	2024-11-08T09:00:00	5	Humedad	63
126717	7	Sololá	713	San Lucas Tolimán	10	San Lucas Tolimán	5	Mayo	2023-05-29T00:00:00	2024-11-08T09:00:00	6	Velocidad del viento	6.4
126718	7	Sololá	713	San Lucas Tolimán	10	San Lucas Tolimán	5	Mayo	2023-05-29T00:00:00	2024-11-08T09:00:00	7	Dirección del viento	6.44
126719	7	Sololá	713	San Lucas Tolimán	10	San Lucas Tolimán	5	Mayo	2023-05-29T00:00:00	2024-11-08T09:00:00	1	Precipitación	0
126720	7	Sololá	713	San Lucas Tolimán	10	San Lucas Tolimán	5	Mayo	2023-05-29T00:00:00	2024-11-08T09:00:00	8	Radiación solar	224
126721	7	Sololá	713	San Lucas Tolimán	10	San Lucas Tolimán	5	Mayo	2023-05-29T00:00:00	2024-11-08T10:00:00	2	Temperatura media	19.6
126722	7	Sololá	713	San Lucas Tolimán	10	San Lucas Tolimán	5	Mayo	2023-05-29T00:00:00	2024-11-08T10:00:00	4	Temperatura máxima	19.6
126723	7	Sololá	713	San Lucas Tolimán	10	San Lucas Tolimán	5	Mayo	2023-05-29T00:00:00	2024-11-08T10:00:00	3	Temperatura mínima	18.9
126724	7	Sololá	713	San Lucas Tolimán	10	San Lucas Tolimán	5	Mayo	2023-05-29T00:00:00	2024-11-08T10:00:00	5	Humedad	62
126725	7	Sololá	713	San Lucas Tolimán	10	San Lucas Tolimán	5	Mayo	2023-05-29T00:00:00	2024-11-08T10:00:00	6	Velocidad del viento	6.4
126726	7	Sololá	713	San Lucas Tolimán	10	San Lucas Tolimán	5	Mayo	2023-05-29T00:00:00	2024-11-08T10:00:00	7	Dirección del viento	6.44
126727	7	Sololá	713	San Lucas Tolimán	10	San Lucas Tolimán	5	Mayo	2023-05-29T00:00:00	2024-11-08T10:00:00	1	Precipitación	0.2
126728	7	Sololá	713	San Lucas Tolimán	10	San Lucas Tolimán	5	Mayo	2023-05-29T00:00:00	2024-11-08T10:00:00	8	Radiación solar	456
126729	7	Sololá	713	San Lucas Tolimán	10	San Lucas Tolimán	5	Mayo	2023-05-29T00:00:00	2024-11-08T11:00:00	2	Temperatura media	21.6
126730	7	Sololá	713	San Lucas Tolimán	10	San Lucas Tolimán	5	Mayo	2023-05-29T00:00:00	2024-11-08T11:00:00	4	Temperatura máxima	21.6
126731	7	Sololá	713	San Lucas Tolimán	10	San Lucas Tolimán	5	Mayo	2023-05-29T00:00:00	2024-11-08T11:00:00	3	Temperatura mínima	19.6
126732	7	Sololá	713	San Lucas Tolimán	10	San Lucas Tolimán	5	Mayo	2023-05-29T00:00:00	2024-11-08T11:00:00	5	Humedad	57
126733	7	Sololá	713	San Lucas Tolimán	10	San Lucas Tolimán	5	Mayo	2023-05-29T00:00:00	2024-11-08T11:00:00	6	Velocidad del viento	8
126734	7	Sololá	713	San Lucas Tolimán	10	San Lucas Tolimán	5	Mayo	2023-05-29T00:00:00	2024-11-08T11:00:00	7	Dirección del viento	8.05
126735	7	Sololá	713	San Lucas Tolimán	10	San Lucas Tolimán	5	Mayo	2023-05-29T00:00:00	2024-11-08T11:00:00	1	Precipitación	0
126736	7	Sololá	713	San Lucas Tolimán	10	San Lucas Tolimán	5	Mayo	2023-05-29T00:00:00	2024-11-08T11:00:00	8	Radiación solar	948
126737	7	Sololá	713	San Lucas Tolimán	10	San Lucas Tolimán	5	Mayo	2023-05-29T00:00:00	2024-11-08T12:00:00	2	Temperatura media	23.4
126738	7	Sololá	713	San Lucas Tolimán	10	San Lucas Tolimán	5	Mayo	2023-05-29T00:00:00	2024-11-08T12:00:00	4	Temperatura máxima	23.4
126739	7	Sololá	713	San Lucas Tolimán	10	San Lucas Tolimán	5	Mayo	2023-05-29T00:00:00	2024-11-08T12:00:00	3	Temperatura mínima	21.4
126740	7	Sololá	713	San Lucas Tolimán	10	San Lucas Tolimán	5	Mayo	2023-05-29T00:00:00	2024-11-08T12:00:00	5	Humedad	60
126741	7	Sololá	713	San Lucas Tolimán	10	San Lucas Tolimán	5	Mayo	2023-05-29T00:00:00	2024-11-08T12:00:00	6	Velocidad del viento	8
126742	7	Sololá	713	San Lucas Tolimán	10	San Lucas Tolimán	5	Mayo	2023-05-29T00:00:00	2024-11-08T12:00:00	7	Dirección del viento	8.05
126743	7	Sololá	713	San Lucas Tolimán	10	San Lucas Tolimán	5	Mayo	2023-05-29T00:00:00	2024-11-08T12:00:00	1	Precipitación	0
126744	7	Sololá	713	San Lucas Tolimán	10	San Lucas Tolimán	5	Mayo	2023-05-29T00:00:00	2024-11-08T12:00:00	8	Radiación solar	1038
126745	7	Sololá	713	San Lucas Tolimán	10	San Lucas Tolimán	5	Mayo	2023-05-29T00:00:00	2024-11-08T13:00:00	2	Temperatura media	23.2
126746	7	Sololá	713	San Lucas Tolimán	10	San Lucas Tolimán	5	Mayo	2023-05-29T00:00:00	2024-11-08T13:00:00	4	Temperatura máxima	23.6
126747	7	Sololá	713	San Lucas Tolimán	10	San Lucas Tolimán	5	Mayo	2023-05-29T00:00:00	2024-11-08T13:00:00	3	Temperatura mínima	23.1
126748	7	Sololá	713	San Lucas Tolimán	10	San Lucas Tolimán	5	Mayo	2023-05-29T00:00:00	2024-11-08T13:00:00	5	Humedad	60
126749	7	Sololá	713	San Lucas Tolimán	10	San Lucas Tolimán	5	Mayo	2023-05-29T00:00:00	2024-11-08T13:00:00	6	Velocidad del viento	8
126750	7	Sololá	713	San Lucas Tolimán	10	San Lucas Tolimán	5	Mayo	2023-05-29T00:00:00	2024-11-08T13:00:00	7	Dirección del viento	8.05
126751	7	Sololá	713	San Lucas Tolimán	10	San Lucas Tolimán	5	Mayo	2023-05-29T00:00:00	2024-11-08T13:00:00	1	Precipitación	0
126752	7	Sololá	713	San Lucas Tolimán	10	San Lucas Tolimán	5	Mayo	2023-05-29T00:00:00	2024-11-08T13:00:00	8	Radiación solar	905
126753	7	Sololá	713	San Lucas Tolimán	10	San Lucas Tolimán	5	Mayo	2023-05-29T00:00:00	2024-11-08T14:00:00	2	Temperatura media	22.9
126754	7	Sololá	713	San Lucas Tolimán	10	San Lucas Tolimán	5	Mayo	2023-05-29T00:00:00	2024-11-08T14:00:00	4	Temperatura máxima	23.9
126755	7	Sololá	713	San Lucas Tolimán	10	San Lucas Tolimán	5	Mayo	2023-05-29T00:00:00	2024-11-08T14:00:00	3	Temperatura mínima	22.9
126756	7	Sololá	713	San Lucas Tolimán	10	San Lucas Tolimán	5	Mayo	2023-05-29T00:00:00	2024-11-08T14:00:00	5	Humedad	59
126757	7	Sololá	713	San Lucas Tolimán	10	San Lucas Tolimán	5	Mayo	2023-05-29T00:00:00	2024-11-08T14:00:00	6	Velocidad del viento	9.7
126758	7	Sololá	713	San Lucas Tolimán	10	San Lucas Tolimán	5	Mayo	2023-05-29T00:00:00	2024-11-08T14:00:00	7	Dirección del viento	9.66
126759	7	Sololá	713	San Lucas Tolimán	10	San Lucas Tolimán	5	Mayo	2023-05-29T00:00:00	2024-11-08T14:00:00	1	Precipitación	0
126760	7	Sololá	713	San Lucas Tolimán	10	San Lucas Tolimán	5	Mayo	2023-05-29T00:00:00	2024-11-08T14:00:00	8	Radiación solar	713
126761	7	Sololá	713	San Lucas Tolimán	10	San Lucas Tolimán	5	Mayo	2023-05-29T00:00:00	2024-11-08T15:00:00	2	Temperatura media	21.6
126762	7	Sololá	713	San Lucas Tolimán	10	San Lucas Tolimán	5	Mayo	2023-05-29T00:00:00	2024-11-08T15:00:00	4	Temperatura máxima	23.8
126763	7	Sololá	713	San Lucas Tolimán	10	San Lucas Tolimán	5	Mayo	2023-05-29T00:00:00	2024-11-08T15:00:00	3	Temperatura mínima	21.6
126764	7	Sololá	713	San Lucas Tolimán	10	San Lucas Tolimán	5	Mayo	2023-05-29T00:00:00	2024-11-08T15:00:00	5	Humedad	64
126765	7	Sololá	713	San Lucas Tolimán	10	San Lucas Tolimán	5	Mayo	2023-05-29T00:00:00	2024-11-08T15:00:00	6	Velocidad del viento	9.7
126766	7	Sololá	713	San Lucas Tolimán	10	San Lucas Tolimán	5	Mayo	2023-05-29T00:00:00	2024-11-08T15:00:00	7	Dirección del viento	9.66
126767	7	Sololá	713	San Lucas Tolimán	10	San Lucas Tolimán	5	Mayo	2023-05-29T00:00:00	2024-11-08T15:00:00	1	Precipitación	0
126768	7	Sololá	713	San Lucas Tolimán	10	San Lucas Tolimán	5	Mayo	2023-05-29T00:00:00	2024-11-08T15:00:00	8	Radiación solar	426
126769	7	Sololá	713	San Lucas Tolimán	10	San Lucas Tolimán	5	Mayo	2023-05-29T00:00:00	2024-11-08T16:00:00	2	Temperatura media	21.4
126770	7	Sololá	713	San Lucas Tolimán	10	San Lucas Tolimán	5	Mayo	2023-05-29T00:00:00	2024-11-08T16:00:00	4	Temperatura máxima	21.8
126771	7	Sololá	713	San Lucas Tolimán	10	San Lucas Tolimán	5	Mayo	2023-05-29T00:00:00	2024-11-08T16:00:00	3	Temperatura mínima	21.4
126772	7	Sololá	713	San Lucas Tolimán	10	San Lucas Tolimán	5	Mayo	2023-05-29T00:00:00	2024-11-08T16:00:00	5	Humedad	62
126773	7	Sololá	713	San Lucas Tolimán	10	San Lucas Tolimán	5	Mayo	2023-05-29T00:00:00	2024-11-08T16:00:00	6	Velocidad del viento	9.7
126774	7	Sololá	713	San Lucas Tolimán	10	San Lucas Tolimán	5	Mayo	2023-05-29T00:00:00	2024-11-08T16:00:00	7	Dirección del viento	9.66
126775	7	Sololá	713	San Lucas Tolimán	10	San Lucas Tolimán	5	Mayo	2023-05-29T00:00:00	2024-11-08T16:00:00	1	Precipitación	0
126776	7	Sololá	713	San Lucas Tolimán	10	San Lucas Tolimán	5	Mayo	2023-05-29T00:00:00	2024-11-08T16:00:00	8	Radiación solar	252
126777	7	Sololá	713	San Lucas Tolimán	10	San Lucas Tolimán	5	Mayo	2023-05-29T00:00:00	2024-11-08T17:00:00	2	Temperatura media	20.5
126778	7	Sololá	713	San Lucas Tolimán	10	San Lucas Tolimán	5	Mayo	2023-05-29T00:00:00	2024-11-08T17:00:00	4	Temperatura máxima	21.4
126779	7	Sololá	713	San Lucas Tolimán	10	San Lucas Tolimán	5	Mayo	2023-05-29T00:00:00	2024-11-08T17:00:00	3	Temperatura mínima	20.4
126780	7	Sololá	713	San Lucas Tolimán	10	San Lucas Tolimán	5	Mayo	2023-05-29T00:00:00	2024-11-08T17:00:00	5	Humedad	63
126781	7	Sololá	713	San Lucas Tolimán	10	San Lucas Tolimán	5	Mayo	2023-05-29T00:00:00	2024-11-08T17:00:00	6	Velocidad del viento	4.8
126782	7	Sololá	713	San Lucas Tolimán	10	San Lucas Tolimán	5	Mayo	2023-05-29T00:00:00	2024-11-08T17:00:00	7	Dirección del viento	4.83
126783	7	Sololá	713	San Lucas Tolimán	10	San Lucas Tolimán	5	Mayo	2023-05-29T00:00:00	2024-11-08T17:00:00	1	Precipitación	0.2
126784	7	Sololá	713	San Lucas Tolimán	10	San Lucas Tolimán	5	Mayo	2023-05-29T00:00:00	2024-11-08T17:00:00	8	Radiación solar	81
126785	7	Sololá	713	San Lucas Tolimán	10	San Lucas Tolimán	5	Mayo	2023-05-29T00:00:00	2024-11-08T18:00:00	2	Temperatura media	18.9
126786	7	Sololá	713	San Lucas Tolimán	10	San Lucas Tolimán	5	Mayo	2023-05-29T00:00:00	2024-11-08T18:00:00	4	Temperatura máxima	20.6
126787	7	Sololá	713	San Lucas Tolimán	10	San Lucas Tolimán	5	Mayo	2023-05-29T00:00:00	2024-11-08T18:00:00	3	Temperatura mínima	18.9
126788	7	Sololá	713	San Lucas Tolimán	10	San Lucas Tolimán	5	Mayo	2023-05-29T00:00:00	2024-11-08T18:00:00	5	Humedad	60
126789	7	Sololá	713	San Lucas Tolimán	10	San Lucas Tolimán	5	Mayo	2023-05-29T00:00:00	2024-11-08T18:00:00	6	Velocidad del viento	4.8
126790	7	Sololá	713	San Lucas Tolimán	10	San Lucas Tolimán	5	Mayo	2023-05-29T00:00:00	2024-11-08T18:00:00	7	Dirección del viento	4.83
126791	7	Sololá	713	San Lucas Tolimán	10	San Lucas Tolimán	5	Mayo	2023-05-29T00:00:00	2024-11-08T18:00:00	1	Precipitación	0.2
126792	7	Sololá	713	San Lucas Tolimán	10	San Lucas Tolimán	5	Mayo	2023-05-29T00:00:00	2024-11-08T18:00:00	8	Radiación solar	44
126793	7	Sololá	713	San Lucas Tolimán	10	San Lucas Tolimán	5	Mayo	2023-05-29T00:00:00	2024-11-08T19:00:00	2	Temperatura media	19.1
126794	7	Sololá	713	San Lucas Tolimán	10	San Lucas Tolimán	5	Mayo	2023-05-29T00:00:00	2024-11-08T19:00:00	4	Temperatura máxima	19.3
126795	7	Sololá	713	San Lucas Tolimán	10	San Lucas Tolimán	5	Mayo	2023-05-29T00:00:00	2024-11-08T19:00:00	3	Temperatura mínima	18.7
126796	7	Sololá	713	San Lucas Tolimán	10	San Lucas Tolimán	5	Mayo	2023-05-29T00:00:00	2024-11-08T19:00:00	5	Humedad	60
126797	7	Sololá	713	San Lucas Tolimán	10	San Lucas Tolimán	5	Mayo	2023-05-29T00:00:00	2024-11-08T19:00:00	6	Velocidad del viento	3.2
126798	7	Sololá	713	San Lucas Tolimán	10	San Lucas Tolimán	5	Mayo	2023-05-29T00:00:00	2024-11-08T19:00:00	7	Dirección del viento	3.22
126799	7	Sololá	713	San Lucas Tolimán	10	San Lucas Tolimán	5	Mayo	2023-05-29T00:00:00	2024-11-08T19:00:00	1	Precipitación	0
126800	7	Sololá	713	San Lucas Tolimán	10	San Lucas Tolimán	5	Mayo	2023-05-29T00:00:00	2024-11-08T19:00:00	8	Radiación solar	0
126801	7	Sololá	713	San Lucas Tolimán	10	San Lucas Tolimán	5	Mayo	2023-05-29T00:00:00	2024-11-08T20:00:00	2	Temperatura media	18.1
126802	7	Sololá	713	San Lucas Tolimán	10	San Lucas Tolimán	5	Mayo	2023-05-29T00:00:00	2024-11-08T20:00:00	4	Temperatura máxima	19.1
126803	7	Sololá	713	San Lucas Tolimán	10	San Lucas Tolimán	5	Mayo	2023-05-29T00:00:00	2024-11-08T20:00:00	3	Temperatura mínima	18.1
126804	7	Sololá	713	San Lucas Tolimán	10	San Lucas Tolimán	5	Mayo	2023-05-29T00:00:00	2024-11-08T20:00:00	5	Humedad	64
126805	7	Sololá	713	San Lucas Tolimán	10	San Lucas Tolimán	5	Mayo	2023-05-29T00:00:00	2024-11-08T20:00:00	6	Velocidad del viento	0
126806	7	Sololá	713	San Lucas Tolimán	10	San Lucas Tolimán	5	Mayo	2023-05-29T00:00:00	2024-11-08T20:00:00	7	Dirección del viento	0
126807	7	Sololá	713	San Lucas Tolimán	10	San Lucas Tolimán	5	Mayo	2023-05-29T00:00:00	2024-11-08T20:00:00	1	Precipitación	0
126808	7	Sololá	713	San Lucas Tolimán	10	San Lucas Tolimán	5	Mayo	2023-05-29T00:00:00	2024-11-08T20:00:00	8	Radiación solar	0
126809	7	Sololá	713	San Lucas Tolimán	10	San Lucas Tolimán	5	Mayo	2023-05-29T00:00:00	2024-11-08T21:00:00	2	Temperatura media	17.9
126810	7	Sololá	713	San Lucas Tolimán	10	San Lucas Tolimán	5	Mayo	2023-05-29T00:00:00	2024-11-08T21:00:00	4	Temperatura máxima	18.3
126811	7	Sololá	713	San Lucas Tolimán	10	San Lucas Tolimán	5	Mayo	2023-05-29T00:00:00	2024-11-08T21:00:00	3	Temperatura mínima	17.9
126812	7	Sololá	713	San Lucas Tolimán	10	San Lucas Tolimán	5	Mayo	2023-05-29T00:00:00	2024-11-08T21:00:00	5	Humedad	64
126813	7	Sololá	713	San Lucas Tolimán	10	San Lucas Tolimán	5	Mayo	2023-05-29T00:00:00	2024-11-08T21:00:00	6	Velocidad del viento	1.6
126814	7	Sololá	713	San Lucas Tolimán	10	San Lucas Tolimán	5	Mayo	2023-05-29T00:00:00	2024-11-08T21:00:00	7	Dirección del viento	1.61
126815	7	Sololá	713	San Lucas Tolimán	10	San Lucas Tolimán	5	Mayo	2023-05-29T00:00:00	2024-11-08T21:00:00	1	Precipitación	0
126816	7	Sololá	713	San Lucas Tolimán	10	San Lucas Tolimán	5	Mayo	2023-05-29T00:00:00	2024-11-08T21:00:00	8	Radiación solar	0
126817	7	Sololá	713	San Lucas Tolimán	10	San Lucas Tolimán	5	Mayo	2023-05-29T00:00:00	2024-11-08T22:00:00	2	Temperatura media	17.8
126818	7	Sololá	713	San Lucas Tolimán	10	San Lucas Tolimán	5	Mayo	2023-05-29T00:00:00	2024-11-08T22:00:00	4	Temperatura máxima	17.9
126819	7	Sololá	713	San Lucas Tolimán	10	San Lucas Tolimán	5	Mayo	2023-05-29T00:00:00	2024-11-08T22:00:00	3	Temperatura mínima	17.5
126820	7	Sololá	713	San Lucas Tolimán	10	San Lucas Tolimán	5	Mayo	2023-05-29T00:00:00	2024-11-08T22:00:00	5	Humedad	65
126821	7	Sololá	713	San Lucas Tolimán	10	San Lucas Tolimán	5	Mayo	2023-05-29T00:00:00	2024-11-08T22:00:00	6	Velocidad del viento	1.6
126822	7	Sololá	713	San Lucas Tolimán	10	San Lucas Tolimán	5	Mayo	2023-05-29T00:00:00	2024-11-08T22:00:00	7	Dirección del viento	1.61
126823	7	Sololá	713	San Lucas Tolimán	10	San Lucas Tolimán	5	Mayo	2023-05-29T00:00:00	2024-11-08T22:00:00	1	Precipitación	0
126824	7	Sololá	713	San Lucas Tolimán	10	San Lucas Tolimán	5	Mayo	2023-05-29T00:00:00	2024-11-08T22:00:00	8	Radiación solar	0
126825	7	Sololá	713	San Lucas Tolimán	10	San Lucas Tolimán	5	Mayo	2023-05-29T00:00:00	2024-11-08T23:00:00	2	Temperatura media	17.8
126826	7	Sololá	713	San Lucas Tolimán	10	San Lucas Tolimán	5	Mayo	2023-05-29T00:00:00	2024-11-08T23:00:00	4	Temperatura máxima	17.9
126827	7	Sololá	713	San Lucas Tolimán	10	San Lucas Tolimán	5	Mayo	2023-05-29T00:00:00	2024-11-08T23:00:00	3	Temperatura mínima	17.7
126828	7	Sololá	713	San Lucas Tolimán	10	San Lucas Tolimán	5	Mayo	2023-05-29T00:00:00	2024-11-08T23:00:00	5	Humedad	65
126829	7	Sololá	713	San Lucas Tolimán	10	San Lucas Tolimán	5	Mayo	2023-05-29T00:00:00	2024-11-08T23:00:00	6	Velocidad del viento	1.6
126830	7	Sololá	713	San Lucas Tolimán	10	San Lucas Tolimán	5	Mayo	2023-05-29T00:00:00	2024-11-08T23:00:00	7	Dirección del viento	1.61
126831	7	Sololá	713	San Lucas Tolimán	10	San Lucas Tolimán	5	Mayo	2023-05-29T00:00:00	2024-11-08T23:00:00	1	Precipitación	0
126832	7	Sololá	713	San Lucas Tolimán	10	San Lucas Tolimán	5	Mayo	2023-05-29T00:00:00	2024-11-08T23:00:00	8	Radiación solar	0
126833	7	Sololá	713	San Lucas Tolimán	10	San Lucas Tolimán	5	Mayo	2023-05-30T00:00:00	2024-11-08T00:00:00	2	Temperatura media	18.3
126834	7	Sololá	713	San Lucas Tolimán	10	San Lucas Tolimán	5	Mayo	2023-05-30T00:00:00	2024-11-08T00:00:00	4	Temperatura máxima	18.3
126835	7	Sololá	713	San Lucas Tolimán	10	San Lucas Tolimán	5	Mayo	2023-05-30T00:00:00	2024-11-08T00:00:00	3	Temperatura mínima	17.8
126836	7	Sololá	713	San Lucas Tolimán	10	San Lucas Tolimán	5	Mayo	2023-05-30T00:00:00	2024-11-08T00:00:00	5	Humedad	64
126837	7	Sololá	713	San Lucas Tolimán	10	San Lucas Tolimán	5	Mayo	2023-05-30T00:00:00	2024-11-08T00:00:00	6	Velocidad del viento	1.6
126838	7	Sololá	713	San Lucas Tolimán	10	San Lucas Tolimán	5	Mayo	2023-05-30T00:00:00	2024-11-08T00:00:00	7	Dirección del viento	1.61
126839	7	Sololá	713	San Lucas Tolimán	10	San Lucas Tolimán	5	Mayo	2023-05-30T00:00:00	2024-11-08T00:00:00	1	Precipitación	0
126840	7	Sololá	713	San Lucas Tolimán	10	San Lucas Tolimán	5	Mayo	2023-05-30T00:00:00	2024-11-08T00:00:00	8	Radiación solar	0
126841	7	Sololá	713	San Lucas Tolimán	10	San Lucas Tolimán	5	Mayo	2023-05-30T00:00:00	2024-11-08T01:00:00	2	Temperatura media	18.3
126842	7	Sololá	713	San Lucas Tolimán	10	San Lucas Tolimán	5	Mayo	2023-05-30T00:00:00	2024-11-08T01:00:00	4	Temperatura máxima	18.3
126843	7	Sololá	713	San Lucas Tolimán	10	San Lucas Tolimán	5	Mayo	2023-05-30T00:00:00	2024-11-08T01:00:00	3	Temperatura mínima	18.1
126844	7	Sololá	713	San Lucas Tolimán	10	San Lucas Tolimán	5	Mayo	2023-05-30T00:00:00	2024-11-08T01:00:00	5	Humedad	64
126845	7	Sololá	713	San Lucas Tolimán	10	San Lucas Tolimán	5	Mayo	2023-05-30T00:00:00	2024-11-08T01:00:00	6	Velocidad del viento	3.2
126846	7	Sololá	713	San Lucas Tolimán	10	San Lucas Tolimán	5	Mayo	2023-05-30T00:00:00	2024-11-08T01:00:00	7	Dirección del viento	3.22
126847	7	Sololá	713	San Lucas Tolimán	10	San Lucas Tolimán	5	Mayo	2023-05-30T00:00:00	2024-11-08T01:00:00	1	Precipitación	0
126848	7	Sololá	713	San Lucas Tolimán	10	San Lucas Tolimán	5	Mayo	2023-05-30T00:00:00	2024-11-08T01:00:00	8	Radiación solar	0
126849	7	Sololá	713	San Lucas Tolimán	10	San Lucas Tolimán	5	Mayo	2023-05-30T00:00:00	2024-11-08T02:00:00	2	Temperatura media	18.2
126850	7	Sololá	713	San Lucas Tolimán	10	San Lucas Tolimán	5	Mayo	2023-05-30T00:00:00	2024-11-08T02:00:00	4	Temperatura máxima	18.4
126851	7	Sololá	713	San Lucas Tolimán	10	San Lucas Tolimán	5	Mayo	2023-05-30T00:00:00	2024-11-08T02:00:00	3	Temperatura mínima	18.2
126852	7	Sololá	713	San Lucas Tolimán	10	San Lucas Tolimán	5	Mayo	2023-05-30T00:00:00	2024-11-08T02:00:00	5	Humedad	63
126853	7	Sololá	713	San Lucas Tolimán	10	San Lucas Tolimán	5	Mayo	2023-05-30T00:00:00	2024-11-08T02:00:00	6	Velocidad del viento	3.2
126854	7	Sololá	713	San Lucas Tolimán	10	San Lucas Tolimán	5	Mayo	2023-05-30T00:00:00	2024-11-08T02:00:00	7	Dirección del viento	3.22
126855	7	Sololá	713	San Lucas Tolimán	10	San Lucas Tolimán	5	Mayo	2023-05-30T00:00:00	2024-11-08T02:00:00	1	Precipitación	0
126856	7	Sololá	713	San Lucas Tolimán	10	San Lucas Tolimán	5	Mayo	2023-05-30T00:00:00	2024-11-08T02:00:00	8	Radiación solar	0
126857	7	Sololá	713	San Lucas Tolimán	10	San Lucas Tolimán	5	Mayo	2023-05-30T00:00:00	2024-11-08T03:00:00	2	Temperatura media	17.7
126858	7	Sololá	713	San Lucas Tolimán	10	San Lucas Tolimán	5	Mayo	2023-05-30T00:00:00	2024-11-08T03:00:00	4	Temperatura máxima	18.3
126859	7	Sololá	713	San Lucas Tolimán	10	San Lucas Tolimán	5	Mayo	2023-05-30T00:00:00	2024-11-08T03:00:00	3	Temperatura mínima	17.7
126860	7	Sololá	713	San Lucas Tolimán	10	San Lucas Tolimán	5	Mayo	2023-05-30T00:00:00	2024-11-08T03:00:00	5	Humedad	64
126861	7	Sololá	713	San Lucas Tolimán	10	San Lucas Tolimán	5	Mayo	2023-05-30T00:00:00	2024-11-08T03:00:00	6	Velocidad del viento	0
126862	7	Sololá	713	San Lucas Tolimán	10	San Lucas Tolimán	5	Mayo	2023-05-30T00:00:00	2024-11-08T03:00:00	7	Dirección del viento	0
126863	7	Sololá	713	San Lucas Tolimán	10	San Lucas Tolimán	5	Mayo	2023-05-30T00:00:00	2024-11-08T03:00:00	1	Precipitación	0
126864	7	Sololá	713	San Lucas Tolimán	10	San Lucas Tolimán	5	Mayo	2023-05-30T00:00:00	2024-11-08T03:00:00	8	Radiación solar	0
126865	7	Sololá	713	San Lucas Tolimán	10	San Lucas Tolimán	5	Mayo	2023-05-30T00:00:00	2024-11-08T04:00:00	2	Temperatura media	17.1
126866	7	Sololá	713	San Lucas Tolimán	10	San Lucas Tolimán	5	Mayo	2023-05-30T00:00:00	2024-11-08T04:00:00	4	Temperatura máxima	17.7
126867	7	Sololá	713	San Lucas Tolimán	10	San Lucas Tolimán	5	Mayo	2023-05-30T00:00:00	2024-11-08T04:00:00	3	Temperatura mínima	17.1
126868	7	Sololá	713	San Lucas Tolimán	10	San Lucas Tolimán	5	Mayo	2023-05-30T00:00:00	2024-11-08T04:00:00	5	Humedad	65
126869	7	Sololá	713	San Lucas Tolimán	10	San Lucas Tolimán	5	Mayo	2023-05-30T00:00:00	2024-11-08T04:00:00	6	Velocidad del viento	0
126870	7	Sololá	713	San Lucas Tolimán	10	San Lucas Tolimán	5	Mayo	2023-05-30T00:00:00	2024-11-08T04:00:00	7	Dirección del viento	0
126871	7	Sololá	713	San Lucas Tolimán	10	San Lucas Tolimán	5	Mayo	2023-05-30T00:00:00	2024-11-08T04:00:00	1	Precipitación	0
126872	7	Sololá	713	San Lucas Tolimán	10	San Lucas Tolimán	5	Mayo	2023-05-30T00:00:00	2024-11-08T04:00:00	8	Radiación solar	0
126873	7	Sololá	713	San Lucas Tolimán	10	San Lucas Tolimán	5	Mayo	2023-05-30T00:00:00	2024-11-08T05:00:00	2	Temperatura media	17.2
126874	7	Sololá	713	San Lucas Tolimán	10	San Lucas Tolimán	5	Mayo	2023-05-30T00:00:00	2024-11-08T05:00:00	4	Temperatura máxima	17.3
126875	7	Sololá	713	San Lucas Tolimán	10	San Lucas Tolimán	5	Mayo	2023-05-30T00:00:00	2024-11-08T05:00:00	3	Temperatura mínima	17.1
126876	7	Sololá	713	San Lucas Tolimán	10	San Lucas Tolimán	5	Mayo	2023-05-30T00:00:00	2024-11-08T05:00:00	5	Humedad	65
126877	7	Sololá	713	San Lucas Tolimán	10	San Lucas Tolimán	5	Mayo	2023-05-30T00:00:00	2024-11-08T05:00:00	6	Velocidad del viento	0
126878	7	Sololá	713	San Lucas Tolimán	10	San Lucas Tolimán	5	Mayo	2023-05-30T00:00:00	2024-11-08T05:00:00	7	Dirección del viento	0
126879	7	Sololá	713	San Lucas Tolimán	10	San Lucas Tolimán	5	Mayo	2023-05-30T00:00:00	2024-11-08T05:00:00	1	Precipitación	0
126880	7	Sololá	713	San Lucas Tolimán	10	San Lucas Tolimán	5	Mayo	2023-05-30T00:00:00	2024-11-08T05:00:00	8	Radiación solar	0
126881	7	Sololá	713	San Lucas Tolimán	10	San Lucas Tolimán	5	Mayo	2023-05-30T00:00:00	2024-11-08T06:00:00	2	Temperatura media	17.4
126882	7	Sololá	713	San Lucas Tolimán	10	San Lucas Tolimán	5	Mayo	2023-05-30T00:00:00	2024-11-08T06:00:00	4	Temperatura máxima	17.5
126883	7	Sololá	713	San Lucas Tolimán	10	San Lucas Tolimán	5	Mayo	2023-05-30T00:00:00	2024-11-08T06:00:00	3	Temperatura mínima	17.2
126884	7	Sololá	713	San Lucas Tolimán	10	San Lucas Tolimán	5	Mayo	2023-05-30T00:00:00	2024-11-08T06:00:00	5	Humedad	65
126885	7	Sololá	713	San Lucas Tolimán	10	San Lucas Tolimán	5	Mayo	2023-05-30T00:00:00	2024-11-08T06:00:00	6	Velocidad del viento	1.6
126886	7	Sololá	713	San Lucas Tolimán	10	San Lucas Tolimán	5	Mayo	2023-05-30T00:00:00	2024-11-08T06:00:00	7	Dirección del viento	1.61
126887	7	Sololá	713	San Lucas Tolimán	10	San Lucas Tolimán	5	Mayo	2023-05-30T00:00:00	2024-11-08T06:00:00	1	Precipitación	0
126888	7	Sololá	713	San Lucas Tolimán	10	San Lucas Tolimán	5	Mayo	2023-05-30T00:00:00	2024-11-08T06:00:00	8	Radiación solar	8
126889	7	Sololá	713	San Lucas Tolimán	10	San Lucas Tolimán	5	Mayo	2023-05-30T00:00:00	2024-11-08T07:00:00	2	Temperatura media	19.4
126890	7	Sololá	713	San Lucas Tolimán	10	San Lucas Tolimán	5	Mayo	2023-05-30T00:00:00	2024-11-08T07:00:00	4	Temperatura máxima	19.4
126891	7	Sololá	713	San Lucas Tolimán	10	San Lucas Tolimán	5	Mayo	2023-05-30T00:00:00	2024-11-08T07:00:00	3	Temperatura mínima	17.4
126892	7	Sololá	713	San Lucas Tolimán	10	San Lucas Tolimán	5	Mayo	2023-05-30T00:00:00	2024-11-08T07:00:00	5	Humedad	61
126893	7	Sololá	713	San Lucas Tolimán	10	San Lucas Tolimán	5	Mayo	2023-05-30T00:00:00	2024-11-08T07:00:00	6	Velocidad del viento	1.6
126894	7	Sololá	713	San Lucas Tolimán	10	San Lucas Tolimán	5	Mayo	2023-05-30T00:00:00	2024-11-08T07:00:00	7	Dirección del viento	1.61
126895	7	Sololá	713	San Lucas Tolimán	10	San Lucas Tolimán	5	Mayo	2023-05-30T00:00:00	2024-11-08T07:00:00	1	Precipitación	0
126896	7	Sololá	713	San Lucas Tolimán	10	San Lucas Tolimán	5	Mayo	2023-05-30T00:00:00	2024-11-08T07:00:00	8	Radiación solar	137
126897	7	Sololá	713	San Lucas Tolimán	10	San Lucas Tolimán	5	Mayo	2023-05-30T00:00:00	2024-11-08T08:00:00	2	Temperatura media	20.2
126898	7	Sololá	713	San Lucas Tolimán	10	San Lucas Tolimán	5	Mayo	2023-05-30T00:00:00	2024-11-08T08:00:00	4	Temperatura máxima	20.2
126899	7	Sololá	713	San Lucas Tolimán	10	San Lucas Tolimán	5	Mayo	2023-05-30T00:00:00	2024-11-08T08:00:00	3	Temperatura mínima	19.4
126900	7	Sololá	713	San Lucas Tolimán	10	San Lucas Tolimán	5	Mayo	2023-05-30T00:00:00	2024-11-08T08:00:00	5	Humedad	60
126901	7	Sololá	713	San Lucas Tolimán	10	San Lucas Tolimán	5	Mayo	2023-05-30T00:00:00	2024-11-08T08:00:00	6	Velocidad del viento	1.6
126902	7	Sololá	713	San Lucas Tolimán	10	San Lucas Tolimán	5	Mayo	2023-05-30T00:00:00	2024-11-08T08:00:00	7	Dirección del viento	1.61
126903	7	Sololá	713	San Lucas Tolimán	10	San Lucas Tolimán	5	Mayo	2023-05-30T00:00:00	2024-11-08T08:00:00	1	Precipitación	0
126904	7	Sololá	713	San Lucas Tolimán	10	San Lucas Tolimán	5	Mayo	2023-05-30T00:00:00	2024-11-08T08:00:00	8	Radiación solar	224
126905	7	Sololá	713	San Lucas Tolimán	10	San Lucas Tolimán	5	Mayo	2023-05-30T00:00:00	2024-11-08T09:00:00	2	Temperatura media	21.1
126906	7	Sololá	713	San Lucas Tolimán	10	San Lucas Tolimán	5	Mayo	2023-05-30T00:00:00	2024-11-08T09:00:00	4	Temperatura máxima	21.1
126907	7	Sololá	713	San Lucas Tolimán	10	San Lucas Tolimán	5	Mayo	2023-05-30T00:00:00	2024-11-08T09:00:00	3	Temperatura mínima	19.9
126908	7	Sololá	713	San Lucas Tolimán	10	San Lucas Tolimán	5	Mayo	2023-05-30T00:00:00	2024-11-08T09:00:00	5	Humedad	59
126909	7	Sololá	713	San Lucas Tolimán	10	San Lucas Tolimán	5	Mayo	2023-05-30T00:00:00	2024-11-08T09:00:00	6	Velocidad del viento	4.8
126910	7	Sololá	713	San Lucas Tolimán	10	San Lucas Tolimán	5	Mayo	2023-05-30T00:00:00	2024-11-08T09:00:00	7	Dirección del viento	4.83
126911	7	Sololá	713	San Lucas Tolimán	10	San Lucas Tolimán	5	Mayo	2023-05-30T00:00:00	2024-11-08T09:00:00	1	Precipitación	0
126912	7	Sololá	713	San Lucas Tolimán	10	San Lucas Tolimán	5	Mayo	2023-05-30T00:00:00	2024-11-08T09:00:00	8	Radiación solar	328
126913	7	Sololá	713	San Lucas Tolimán	10	San Lucas Tolimán	5	Mayo	2023-05-30T00:00:00	2024-11-08T10:00:00	2	Temperatura media	22
126914	7	Sololá	713	San Lucas Tolimán	10	San Lucas Tolimán	5	Mayo	2023-05-30T00:00:00	2024-11-08T10:00:00	4	Temperatura máxima	22
126915	7	Sololá	713	San Lucas Tolimán	10	San Lucas Tolimán	5	Mayo	2023-05-30T00:00:00	2024-11-08T10:00:00	3	Temperatura mínima	20.3
126916	7	Sololá	713	San Lucas Tolimán	10	San Lucas Tolimán	5	Mayo	2023-05-30T00:00:00	2024-11-08T10:00:00	5	Humedad	58
126917	7	Sololá	713	San Lucas Tolimán	10	San Lucas Tolimán	5	Mayo	2023-05-30T00:00:00	2024-11-08T10:00:00	6	Velocidad del viento	8
126918	7	Sololá	713	San Lucas Tolimán	10	San Lucas Tolimán	5	Mayo	2023-05-30T00:00:00	2024-11-08T10:00:00	7	Dirección del viento	8.05
126919	7	Sololá	713	San Lucas Tolimán	10	San Lucas Tolimán	5	Mayo	2023-05-30T00:00:00	2024-11-08T10:00:00	1	Precipitación	0
126920	7	Sololá	713	San Lucas Tolimán	10	San Lucas Tolimán	5	Mayo	2023-05-30T00:00:00	2024-11-08T10:00:00	8	Radiación solar	729
126921	7	Sololá	713	San Lucas Tolimán	10	San Lucas Tolimán	5	Mayo	2023-05-30T00:00:00	2024-11-08T11:00:00	2	Temperatura media	22.8
126922	7	Sololá	713	San Lucas Tolimán	10	San Lucas Tolimán	5	Mayo	2023-05-30T00:00:00	2024-11-08T11:00:00	4	Temperatura máxima	23.1
126923	7	Sololá	713	San Lucas Tolimán	10	San Lucas Tolimán	5	Mayo	2023-05-30T00:00:00	2024-11-08T11:00:00	3	Temperatura mínima	22
126924	7	Sololá	713	San Lucas Tolimán	10	San Lucas Tolimán	5	Mayo	2023-05-30T00:00:00	2024-11-08T11:00:00	5	Humedad	56
126925	7	Sololá	713	San Lucas Tolimán	10	San Lucas Tolimán	5	Mayo	2023-05-30T00:00:00	2024-11-08T11:00:00	6	Velocidad del viento	9.7
126926	7	Sololá	713	San Lucas Tolimán	10	San Lucas Tolimán	5	Mayo	2023-05-30T00:00:00	2024-11-08T11:00:00	7	Dirección del viento	9.66
126927	7	Sololá	713	San Lucas Tolimán	10	San Lucas Tolimán	5	Mayo	2023-05-30T00:00:00	2024-11-08T11:00:00	1	Precipitación	0
126928	7	Sololá	713	San Lucas Tolimán	10	San Lucas Tolimán	5	Mayo	2023-05-30T00:00:00	2024-11-08T11:00:00	8	Radiación solar	963
126929	7	Sololá	713	San Lucas Tolimán	10	San Lucas Tolimán	5	Mayo	2023-05-30T00:00:00	2024-11-08T12:00:00	2	Temperatura media	23.3
126930	7	Sololá	713	San Lucas Tolimán	10	San Lucas Tolimán	5	Mayo	2023-05-30T00:00:00	2024-11-08T12:00:00	4	Temperatura máxima	23.5
126931	7	Sololá	713	San Lucas Tolimán	10	San Lucas Tolimán	5	Mayo	2023-05-30T00:00:00	2024-11-08T12:00:00	3	Temperatura mínima	22.7
126932	7	Sololá	713	San Lucas Tolimán	10	San Lucas Tolimán	5	Mayo	2023-05-30T00:00:00	2024-11-08T12:00:00	5	Humedad	58
126933	7	Sololá	713	San Lucas Tolimán	10	San Lucas Tolimán	5	Mayo	2023-05-30T00:00:00	2024-11-08T12:00:00	6	Velocidad del viento	9.7
126934	7	Sololá	713	San Lucas Tolimán	10	San Lucas Tolimán	5	Mayo	2023-05-30T00:00:00	2024-11-08T12:00:00	7	Dirección del viento	9.66
126935	7	Sololá	713	San Lucas Tolimán	10	San Lucas Tolimán	5	Mayo	2023-05-30T00:00:00	2024-11-08T12:00:00	1	Precipitación	0
126936	7	Sololá	713	San Lucas Tolimán	10	San Lucas Tolimán	5	Mayo	2023-05-30T00:00:00	2024-11-08T12:00:00	8	Radiación solar	1115
126937	7	Sololá	713	San Lucas Tolimán	10	San Lucas Tolimán	5	Mayo	2023-05-30T00:00:00	2024-11-08T13:00:00	2	Temperatura media	21.4
126938	7	Sololá	713	San Lucas Tolimán	10	San Lucas Tolimán	5	Mayo	2023-05-30T00:00:00	2024-11-08T13:00:00	4	Temperatura máxima	23.4
126939	7	Sololá	713	San Lucas Tolimán	10	San Lucas Tolimán	5	Mayo	2023-05-30T00:00:00	2024-11-08T13:00:00	3	Temperatura mínima	21.4
126940	7	Sololá	713	San Lucas Tolimán	10	San Lucas Tolimán	5	Mayo	2023-05-30T00:00:00	2024-11-08T13:00:00	5	Humedad	61
126941	7	Sololá	713	San Lucas Tolimán	10	San Lucas Tolimán	5	Mayo	2023-05-30T00:00:00	2024-11-08T13:00:00	6	Velocidad del viento	9.7
126942	7	Sololá	713	San Lucas Tolimán	10	San Lucas Tolimán	5	Mayo	2023-05-30T00:00:00	2024-11-08T13:00:00	7	Dirección del viento	9.66
126943	7	Sololá	713	San Lucas Tolimán	10	San Lucas Tolimán	5	Mayo	2023-05-30T00:00:00	2024-11-08T13:00:00	1	Precipitación	0
126944	7	Sololá	713	San Lucas Tolimán	10	San Lucas Tolimán	5	Mayo	2023-05-30T00:00:00	2024-11-08T13:00:00	8	Radiación solar	777
126945	7	Sololá	713	San Lucas Tolimán	10	San Lucas Tolimán	5	Mayo	2023-05-30T00:00:00	2024-11-08T14:00:00	2	Temperatura media	19.1
126946	7	Sololá	713	San Lucas Tolimán	10	San Lucas Tolimán	5	Mayo	2023-05-30T00:00:00	2024-11-08T14:00:00	4	Temperatura máxima	21.4
126947	7	Sololá	713	San Lucas Tolimán	10	San Lucas Tolimán	5	Mayo	2023-05-30T00:00:00	2024-11-08T14:00:00	3	Temperatura mínima	19.1
126948	7	Sololá	713	San Lucas Tolimán	10	San Lucas Tolimán	5	Mayo	2023-05-30T00:00:00	2024-11-08T14:00:00	5	Humedad	65
126949	7	Sololá	713	San Lucas Tolimán	10	San Lucas Tolimán	5	Mayo	2023-05-30T00:00:00	2024-11-08T14:00:00	6	Velocidad del viento	9.7
126950	7	Sololá	713	San Lucas Tolimán	10	San Lucas Tolimán	5	Mayo	2023-05-30T00:00:00	2024-11-08T14:00:00	7	Dirección del viento	9.66
126951	7	Sololá	713	San Lucas Tolimán	10	San Lucas Tolimán	5	Mayo	2023-05-30T00:00:00	2024-11-08T14:00:00	1	Precipitación	0.2
126952	7	Sololá	713	San Lucas Tolimán	10	San Lucas Tolimán	5	Mayo	2023-05-30T00:00:00	2024-11-08T14:00:00	8	Radiación solar	190
126953	7	Sololá	713	San Lucas Tolimán	10	San Lucas Tolimán	5	Mayo	2023-05-30T00:00:00	2024-11-08T15:00:00	2	Temperatura media	17.8
126954	7	Sololá	713	San Lucas Tolimán	10	San Lucas Tolimán	5	Mayo	2023-05-30T00:00:00	2024-11-08T15:00:00	4	Temperatura máxima	19.2
126955	7	Sololá	713	San Lucas Tolimán	10	San Lucas Tolimán	5	Mayo	2023-05-30T00:00:00	2024-11-08T15:00:00	3	Temperatura mínima	17.8
126956	7	Sololá	713	San Lucas Tolimán	10	San Lucas Tolimán	5	Mayo	2023-05-30T00:00:00	2024-11-08T15:00:00	5	Humedad	65
126957	7	Sololá	713	San Lucas Tolimán	10	San Lucas Tolimán	5	Mayo	2023-05-30T00:00:00	2024-11-08T15:00:00	6	Velocidad del viento	6.4
126958	7	Sololá	713	San Lucas Tolimán	10	San Lucas Tolimán	5	Mayo	2023-05-30T00:00:00	2024-11-08T15:00:00	7	Dirección del viento	6.44
126959	7	Sololá	713	San Lucas Tolimán	10	San Lucas Tolimán	5	Mayo	2023-05-30T00:00:00	2024-11-08T15:00:00	1	Precipitación	2.8
126960	7	Sololá	713	San Lucas Tolimán	10	San Lucas Tolimán	5	Mayo	2023-05-30T00:00:00	2024-11-08T15:00:00	8	Radiación solar	25
126961	7	Sololá	713	San Lucas Tolimán	10	San Lucas Tolimán	5	Mayo	2023-05-30T00:00:00	2024-11-08T16:00:00	2	Temperatura media	18.3
126962	7	Sololá	713	San Lucas Tolimán	10	San Lucas Tolimán	5	Mayo	2023-05-30T00:00:00	2024-11-08T16:00:00	4	Temperatura máxima	18.4
126963	7	Sololá	713	San Lucas Tolimán	10	San Lucas Tolimán	5	Mayo	2023-05-30T00:00:00	2024-11-08T16:00:00	3	Temperatura mínima	17.8
126964	7	Sololá	713	San Lucas Tolimán	10	San Lucas Tolimán	5	Mayo	2023-05-30T00:00:00	2024-11-08T16:00:00	5	Humedad	64
126965	7	Sololá	713	San Lucas Tolimán	10	San Lucas Tolimán	5	Mayo	2023-05-30T00:00:00	2024-11-08T16:00:00	6	Velocidad del viento	4.8
126966	7	Sololá	713	San Lucas Tolimán	10	San Lucas Tolimán	5	Mayo	2023-05-30T00:00:00	2024-11-08T16:00:00	7	Dirección del viento	4.83
126967	7	Sololá	713	San Lucas Tolimán	10	San Lucas Tolimán	5	Mayo	2023-05-30T00:00:00	2024-11-08T16:00:00	1	Precipitación	1.6
126968	7	Sololá	713	San Lucas Tolimán	10	San Lucas Tolimán	5	Mayo	2023-05-30T00:00:00	2024-11-08T16:00:00	8	Radiación solar	91
126969	7	Sololá	713	San Lucas Tolimán	10	San Lucas Tolimán	5	Mayo	2023-05-30T00:00:00	2024-11-08T17:00:00	2	Temperatura media	18.2
126970	7	Sololá	713	San Lucas Tolimán	10	San Lucas Tolimán	5	Mayo	2023-05-30T00:00:00	2024-11-08T17:00:00	4	Temperatura máxima	18.4
126971	7	Sololá	713	San Lucas Tolimán	10	San Lucas Tolimán	5	Mayo	2023-05-30T00:00:00	2024-11-08T17:00:00	3	Temperatura mínima	18.1
126972	7	Sololá	713	San Lucas Tolimán	10	San Lucas Tolimán	5	Mayo	2023-05-30T00:00:00	2024-11-08T17:00:00	5	Humedad	64
126973	7	Sololá	713	San Lucas Tolimán	10	San Lucas Tolimán	5	Mayo	2023-05-30T00:00:00	2024-11-08T17:00:00	6	Velocidad del viento	4.8
126974	7	Sololá	713	San Lucas Tolimán	10	San Lucas Tolimán	5	Mayo	2023-05-30T00:00:00	2024-11-08T17:00:00	7	Dirección del viento	4.83
126975	7	Sololá	713	San Lucas Tolimán	10	San Lucas Tolimán	5	Mayo	2023-05-30T00:00:00	2024-11-08T17:00:00	1	Precipitación	0.4
126976	7	Sololá	713	San Lucas Tolimán	10	San Lucas Tolimán	5	Mayo	2023-05-30T00:00:00	2024-11-08T17:00:00	8	Radiación solar	32
126977	7	Sololá	713	San Lucas Tolimán	10	San Lucas Tolimán	5	Mayo	2023-05-30T00:00:00	2024-11-08T18:00:00	2	Temperatura media	18.4
126978	7	Sololá	713	San Lucas Tolimán	10	San Lucas Tolimán	5	Mayo	2023-05-30T00:00:00	2024-11-08T18:00:00	4	Temperatura máxima	18.4
126979	7	Sololá	713	San Lucas Tolimán	10	San Lucas Tolimán	5	Mayo	2023-05-30T00:00:00	2024-11-08T18:00:00	3	Temperatura mínima	18.2
126980	7	Sololá	713	San Lucas Tolimán	10	San Lucas Tolimán	5	Mayo	2023-05-30T00:00:00	2024-11-08T18:00:00	5	Humedad	64
126981	7	Sololá	713	San Lucas Tolimán	10	San Lucas Tolimán	5	Mayo	2023-05-30T00:00:00	2024-11-08T18:00:00	6	Velocidad del viento	8
126982	7	Sololá	713	San Lucas Tolimán	10	San Lucas Tolimán	5	Mayo	2023-05-30T00:00:00	2024-11-08T18:00:00	7	Dirección del viento	8.05
126983	7	Sololá	713	San Lucas Tolimán	10	San Lucas Tolimán	5	Mayo	2023-05-30T00:00:00	2024-11-08T18:00:00	1	Precipitación	0.4
126984	7	Sololá	713	San Lucas Tolimán	10	San Lucas Tolimán	5	Mayo	2023-05-30T00:00:00	2024-11-08T18:00:00	8	Radiación solar	15
126985	7	Sololá	713	San Lucas Tolimán	10	San Lucas Tolimán	5	Mayo	2023-05-30T00:00:00	2024-11-08T19:00:00	2	Temperatura media	18.4
126986	7	Sololá	713	San Lucas Tolimán	10	San Lucas Tolimán	5	Mayo	2023-05-30T00:00:00	2024-11-08T19:00:00	4	Temperatura máxima	18.5
126987	7	Sololá	713	San Lucas Tolimán	10	San Lucas Tolimán	5	Mayo	2023-05-30T00:00:00	2024-11-08T19:00:00	3	Temperatura mínima	18.2
126988	7	Sololá	713	San Lucas Tolimán	10	San Lucas Tolimán	5	Mayo	2023-05-30T00:00:00	2024-11-08T19:00:00	5	Humedad	64
126989	7	Sololá	713	San Lucas Tolimán	10	San Lucas Tolimán	5	Mayo	2023-05-30T00:00:00	2024-11-08T19:00:00	6	Velocidad del viento	4.8
126990	7	Sololá	713	San Lucas Tolimán	10	San Lucas Tolimán	5	Mayo	2023-05-30T00:00:00	2024-11-08T19:00:00	7	Dirección del viento	4.83
126991	7	Sololá	713	San Lucas Tolimán	10	San Lucas Tolimán	5	Mayo	2023-05-30T00:00:00	2024-11-08T19:00:00	1	Precipitación	0.2
126992	7	Sololá	713	San Lucas Tolimán	10	San Lucas Tolimán	5	Mayo	2023-05-30T00:00:00	2024-11-08T19:00:00	8	Radiación solar	0
126993	7	Sololá	713	San Lucas Tolimán	10	San Lucas Tolimán	5	Mayo	2023-05-30T00:00:00	2024-11-08T20:00:00	2	Temperatura media	17.8
126994	7	Sololá	713	San Lucas Tolimán	10	San Lucas Tolimán	5	Mayo	2023-05-30T00:00:00	2024-11-08T20:00:00	4	Temperatura máxima	18.4
126995	7	Sololá	713	San Lucas Tolimán	10	San Lucas Tolimán	5	Mayo	2023-05-30T00:00:00	2024-11-08T20:00:00	3	Temperatura mínima	17.6
126996	7	Sololá	713	San Lucas Tolimán	10	San Lucas Tolimán	5	Mayo	2023-05-30T00:00:00	2024-11-08T20:00:00	5	Humedad	63
126997	7	Sololá	713	San Lucas Tolimán	10	San Lucas Tolimán	5	Mayo	2023-05-30T00:00:00	2024-11-08T20:00:00	6	Velocidad del viento	3.2
126998	7	Sololá	713	San Lucas Tolimán	10	San Lucas Tolimán	5	Mayo	2023-05-30T00:00:00	2024-11-08T20:00:00	7	Dirección del viento	3.22
126999	7	Sololá	713	San Lucas Tolimán	10	San Lucas Tolimán	5	Mayo	2023-05-30T00:00:00	2024-11-08T20:00:00	1	Precipitación	0.2
127000	7	Sololá	713	San Lucas Tolimán	10	San Lucas Tolimán	5	Mayo	2023-05-30T00:00:00	2024-11-08T20:00:00	8	Radiación solar	0
127001	7	Sololá	713	San Lucas Tolimán	10	San Lucas Tolimán	5	Mayo	2023-05-30T00:00:00	2024-11-08T21:00:00	2	Temperatura media	17.6
127002	7	Sololá	713	San Lucas Tolimán	10	San Lucas Tolimán	5	Mayo	2023-05-30T00:00:00	2024-11-08T21:00:00	4	Temperatura máxima	18.3
127003	7	Sololá	713	San Lucas Tolimán	10	San Lucas Tolimán	5	Mayo	2023-05-30T00:00:00	2024-11-08T21:00:00	3	Temperatura mínima	17.6
127004	7	Sololá	713	San Lucas Tolimán	10	San Lucas Tolimán	5	Mayo	2023-05-30T00:00:00	2024-11-08T21:00:00	5	Humedad	65
127005	7	Sololá	713	San Lucas Tolimán	10	San Lucas Tolimán	5	Mayo	2023-05-30T00:00:00	2024-11-08T21:00:00	6	Velocidad del viento	1.6
127006	7	Sololá	713	San Lucas Tolimán	10	San Lucas Tolimán	5	Mayo	2023-05-30T00:00:00	2024-11-08T21:00:00	7	Dirección del viento	1.61
127007	7	Sololá	713	San Lucas Tolimán	10	San Lucas Tolimán	5	Mayo	2023-05-30T00:00:00	2024-11-08T21:00:00	1	Precipitación	0
127008	7	Sololá	713	San Lucas Tolimán	10	San Lucas Tolimán	5	Mayo	2023-05-30T00:00:00	2024-11-08T21:00:00	8	Radiación solar	0
127009	7	Sololá	713	San Lucas Tolimán	10	San Lucas Tolimán	5	Mayo	2023-05-30T00:00:00	2024-11-08T22:00:00	2	Temperatura media	17.3
127010	7	Sololá	713	San Lucas Tolimán	10	San Lucas Tolimán	5	Mayo	2023-05-30T00:00:00	2024-11-08T22:00:00	4	Temperatura máxima	17.6
127011	7	Sololá	713	San Lucas Tolimán	10	San Lucas Tolimán	5	Mayo	2023-05-30T00:00:00	2024-11-08T22:00:00	3	Temperatura mínima	17.1
127012	7	Sololá	713	San Lucas Tolimán	10	San Lucas Tolimán	5	Mayo	2023-05-30T00:00:00	2024-11-08T22:00:00	5	Humedad	64
127013	7	Sololá	713	San Lucas Tolimán	10	San Lucas Tolimán	5	Mayo	2023-05-30T00:00:00	2024-11-08T22:00:00	6	Velocidad del viento	1.6
127014	7	Sololá	713	San Lucas Tolimán	10	San Lucas Tolimán	5	Mayo	2023-05-30T00:00:00	2024-11-08T22:00:00	7	Dirección del viento	1.61
127015	7	Sololá	713	San Lucas Tolimán	10	San Lucas Tolimán	5	Mayo	2023-05-30T00:00:00	2024-11-08T22:00:00	1	Precipitación	0
127016	7	Sololá	713	San Lucas Tolimán	10	San Lucas Tolimán	5	Mayo	2023-05-30T00:00:00	2024-11-08T22:00:00	8	Radiación solar	0
127017	7	Sololá	713	San Lucas Tolimán	10	San Lucas Tolimán	5	Mayo	2023-05-30T00:00:00	2024-11-08T23:00:00	2	Temperatura media	17.8
127018	7	Sololá	713	San Lucas Tolimán	10	San Lucas Tolimán	5	Mayo	2023-05-30T00:00:00	2024-11-08T23:00:00	4	Temperatura máxima	17.9
127019	7	Sololá	713	San Lucas Tolimán	10	San Lucas Tolimán	5	Mayo	2023-05-30T00:00:00	2024-11-08T23:00:00	3	Temperatura mínima	17.3
127020	7	Sololá	713	San Lucas Tolimán	10	San Lucas Tolimán	5	Mayo	2023-05-30T00:00:00	2024-11-08T23:00:00	5	Humedad	64
127021	7	Sololá	713	San Lucas Tolimán	10	San Lucas Tolimán	5	Mayo	2023-05-30T00:00:00	2024-11-08T23:00:00	6	Velocidad del viento	1.6
127022	7	Sololá	713	San Lucas Tolimán	10	San Lucas Tolimán	5	Mayo	2023-05-30T00:00:00	2024-11-08T23:00:00	7	Dirección del viento	1.61
127023	7	Sololá	713	San Lucas Tolimán	10	San Lucas Tolimán	5	Mayo	2023-05-30T00:00:00	2024-11-08T23:00:00	1	Precipitación	0
127024	7	Sololá	713	San Lucas Tolimán	10	San Lucas Tolimán	5	Mayo	2023-05-30T00:00:00	2024-11-08T23:00:00	8	Radiación solar	0
127025	7	Sololá	713	San Lucas Tolimán	10	San Lucas Tolimán	5	Mayo	2023-05-31T00:00:00	2024-11-08T00:00:00	2	Temperatura media	17.8
127026	7	Sololá	713	San Lucas Tolimán	10	San Lucas Tolimán	5	Mayo	2023-05-31T00:00:00	2024-11-08T00:00:00	4	Temperatura máxima	17.8
127027	7	Sololá	713	San Lucas Tolimán	10	San Lucas Tolimán	5	Mayo	2023-05-31T00:00:00	2024-11-08T00:00:00	3	Temperatura mínima	17.7
127028	7	Sololá	713	San Lucas Tolimán	10	San Lucas Tolimán	5	Mayo	2023-05-31T00:00:00	2024-11-08T00:00:00	5	Humedad	64
127029	7	Sololá	713	San Lucas Tolimán	10	San Lucas Tolimán	5	Mayo	2023-05-31T00:00:00	2024-11-08T00:00:00	6	Velocidad del viento	0
127030	7	Sololá	713	San Lucas Tolimán	10	San Lucas Tolimán	5	Mayo	2023-05-31T00:00:00	2024-11-08T00:00:00	7	Dirección del viento	0
127031	7	Sololá	713	San Lucas Tolimán	10	San Lucas Tolimán	5	Mayo	2023-05-31T00:00:00	2024-11-08T00:00:00	1	Precipitación	0
127032	7	Sololá	713	San Lucas Tolimán	10	San Lucas Tolimán	5	Mayo	2023-05-31T00:00:00	2024-11-08T00:00:00	8	Radiación solar	0
127033	7	Sololá	713	San Lucas Tolimán	10	San Lucas Tolimán	5	Mayo	2023-05-31T00:00:00	2024-11-08T01:00:00	2	Temperatura media	17.4
127034	7	Sololá	713	San Lucas Tolimán	10	San Lucas Tolimán	5	Mayo	2023-05-31T00:00:00	2024-11-08T01:00:00	4	Temperatura máxima	17.8
127035	7	Sololá	713	San Lucas Tolimán	10	San Lucas Tolimán	5	Mayo	2023-05-31T00:00:00	2024-11-08T01:00:00	3	Temperatura mínima	17.3
127036	7	Sololá	713	San Lucas Tolimán	10	San Lucas Tolimán	5	Mayo	2023-05-31T00:00:00	2024-11-08T01:00:00	5	Humedad	64
127037	7	Sololá	713	San Lucas Tolimán	10	San Lucas Tolimán	5	Mayo	2023-05-31T00:00:00	2024-11-08T01:00:00	6	Velocidad del viento	0
127038	7	Sololá	713	San Lucas Tolimán	10	San Lucas Tolimán	5	Mayo	2023-05-31T00:00:00	2024-11-08T01:00:00	7	Dirección del viento	0
127039	7	Sololá	713	San Lucas Tolimán	10	San Lucas Tolimán	5	Mayo	2023-05-31T00:00:00	2024-11-08T01:00:00	1	Precipitación	0
127040	7	Sololá	713	San Lucas Tolimán	10	San Lucas Tolimán	5	Mayo	2023-05-31T00:00:00	2024-11-08T01:00:00	8	Radiación solar	0
127041	7	Sololá	713	San Lucas Tolimán	10	San Lucas Tolimán	5	Mayo	2023-05-31T00:00:00	2024-11-08T02:00:00	2	Temperatura media	16.7
127042	7	Sololá	713	San Lucas Tolimán	10	San Lucas Tolimán	5	Mayo	2023-05-31T00:00:00	2024-11-08T02:00:00	4	Temperatura máxima	17.4
127043	7	Sololá	713	San Lucas Tolimán	10	San Lucas Tolimán	5	Mayo	2023-05-31T00:00:00	2024-11-08T02:00:00	3	Temperatura mínima	16.6
127044	7	Sololá	713	San Lucas Tolimán	10	San Lucas Tolimán	5	Mayo	2023-05-31T00:00:00	2024-11-08T02:00:00	5	Humedad	64
127045	7	Sololá	713	San Lucas Tolimán	10	San Lucas Tolimán	5	Mayo	2023-05-31T00:00:00	2024-11-08T02:00:00	6	Velocidad del viento	1.6
127046	7	Sololá	713	San Lucas Tolimán	10	San Lucas Tolimán	5	Mayo	2023-05-31T00:00:00	2024-11-08T02:00:00	7	Dirección del viento	1.61
127047	7	Sololá	713	San Lucas Tolimán	10	San Lucas Tolimán	5	Mayo	2023-05-31T00:00:00	2024-11-08T02:00:00	1	Precipitación	0
127048	7	Sololá	713	San Lucas Tolimán	10	San Lucas Tolimán	5	Mayo	2023-05-31T00:00:00	2024-11-08T02:00:00	8	Radiación solar	0
127049	7	Sololá	713	San Lucas Tolimán	10	San Lucas Tolimán	5	Mayo	2023-05-31T00:00:00	2024-11-08T03:00:00	2	Temperatura media	16.6
127050	7	Sololá	713	San Lucas Tolimán	10	San Lucas Tolimán	5	Mayo	2023-05-31T00:00:00	2024-11-08T03:00:00	4	Temperatura máxima	16.8
127051	7	Sololá	713	San Lucas Tolimán	10	San Lucas Tolimán	5	Mayo	2023-05-31T00:00:00	2024-11-08T03:00:00	3	Temperatura mínima	16.6
127052	7	Sololá	713	San Lucas Tolimán	10	San Lucas Tolimán	5	Mayo	2023-05-31T00:00:00	2024-11-08T03:00:00	5	Humedad	64
127053	7	Sololá	713	San Lucas Tolimán	10	San Lucas Tolimán	5	Mayo	2023-05-31T00:00:00	2024-11-08T03:00:00	6	Velocidad del viento	3.2
127054	7	Sololá	713	San Lucas Tolimán	10	San Lucas Tolimán	5	Mayo	2023-05-31T00:00:00	2024-11-08T03:00:00	7	Dirección del viento	3.22
127055	7	Sololá	713	San Lucas Tolimán	10	San Lucas Tolimán	5	Mayo	2023-05-31T00:00:00	2024-11-08T03:00:00	1	Precipitación	0
127056	7	Sololá	713	San Lucas Tolimán	10	San Lucas Tolimán	5	Mayo	2023-05-31T00:00:00	2024-11-08T03:00:00	8	Radiación solar	0
127057	7	Sololá	713	San Lucas Tolimán	10	San Lucas Tolimán	5	Mayo	2023-05-31T00:00:00	2024-11-08T04:00:00	2	Temperatura media	16.7
127058	7	Sololá	713	San Lucas Tolimán	10	San Lucas Tolimán	5	Mayo	2023-05-31T00:00:00	2024-11-08T04:00:00	4	Temperatura máxima	16.7
127059	7	Sololá	713	San Lucas Tolimán	10	San Lucas Tolimán	5	Mayo	2023-05-31T00:00:00	2024-11-08T04:00:00	3	Temperatura mínima	16.6
127060	7	Sololá	713	San Lucas Tolimán	10	San Lucas Tolimán	5	Mayo	2023-05-31T00:00:00	2024-11-08T04:00:00	5	Humedad	64
127061	7	Sololá	713	San Lucas Tolimán	10	San Lucas Tolimán	5	Mayo	2023-05-31T00:00:00	2024-11-08T04:00:00	6	Velocidad del viento	3.2
127062	7	Sololá	713	San Lucas Tolimán	10	San Lucas Tolimán	5	Mayo	2023-05-31T00:00:00	2024-11-08T04:00:00	7	Dirección del viento	3.22
127063	7	Sololá	713	San Lucas Tolimán	10	San Lucas Tolimán	5	Mayo	2023-05-31T00:00:00	2024-11-08T04:00:00	1	Precipitación	0
127064	7	Sololá	713	San Lucas Tolimán	10	San Lucas Tolimán	5	Mayo	2023-05-31T00:00:00	2024-11-08T04:00:00	8	Radiación solar	0
127065	7	Sololá	713	San Lucas Tolimán	10	San Lucas Tolimán	5	Mayo	2023-05-31T00:00:00	2024-11-08T05:00:00	2	Temperatura media	16.6
127066	7	Sololá	713	San Lucas Tolimán	10	San Lucas Tolimán	5	Mayo	2023-05-31T00:00:00	2024-11-08T05:00:00	4	Temperatura máxima	16.8
127067	7	Sololá	713	San Lucas Tolimán	10	San Lucas Tolimán	5	Mayo	2023-05-31T00:00:00	2024-11-08T05:00:00	3	Temperatura mínima	16.6
127068	7	Sololá	713	San Lucas Tolimán	10	San Lucas Tolimán	5	Mayo	2023-05-31T00:00:00	2024-11-08T05:00:00	5	Humedad	64
127069	7	Sololá	713	San Lucas Tolimán	10	San Lucas Tolimán	5	Mayo	2023-05-31T00:00:00	2024-11-08T05:00:00	6	Velocidad del viento	3.2
127070	7	Sololá	713	San Lucas Tolimán	10	San Lucas Tolimán	5	Mayo	2023-05-31T00:00:00	2024-11-08T05:00:00	7	Dirección del viento	3.22
127071	7	Sololá	713	San Lucas Tolimán	10	San Lucas Tolimán	5	Mayo	2023-05-31T00:00:00	2024-11-08T05:00:00	1	Precipitación	0
127072	7	Sololá	713	San Lucas Tolimán	10	San Lucas Tolimán	5	Mayo	2023-05-31T00:00:00	2024-11-08T05:00:00	8	Radiación solar	0
127073	7	Sololá	713	San Lucas Tolimán	10	San Lucas Tolimán	5	Mayo	2023-05-31T00:00:00	2024-11-08T06:00:00	2	Temperatura media	16.1
127074	7	Sololá	713	San Lucas Tolimán	10	San Lucas Tolimán	5	Mayo	2023-05-31T00:00:00	2024-11-08T06:00:00	4	Temperatura máxima	16.6
127075	7	Sololá	713	San Lucas Tolimán	10	San Lucas Tolimán	5	Mayo	2023-05-31T00:00:00	2024-11-08T06:00:00	3	Temperatura mínima	16
127076	7	Sololá	713	San Lucas Tolimán	10	San Lucas Tolimán	5	Mayo	2023-05-31T00:00:00	2024-11-08T06:00:00	5	Humedad	65
127077	7	Sololá	713	San Lucas Tolimán	10	San Lucas Tolimán	5	Mayo	2023-05-31T00:00:00	2024-11-08T06:00:00	6	Velocidad del viento	1.6
127078	7	Sololá	713	San Lucas Tolimán	10	San Lucas Tolimán	5	Mayo	2023-05-31T00:00:00	2024-11-08T06:00:00	7	Dirección del viento	1.61
127079	7	Sololá	713	San Lucas Tolimán	10	San Lucas Tolimán	5	Mayo	2023-05-31T00:00:00	2024-11-08T06:00:00	1	Precipitación	0
127080	7	Sololá	713	San Lucas Tolimán	10	San Lucas Tolimán	5	Mayo	2023-05-31T00:00:00	2024-11-08T06:00:00	8	Radiación solar	6
127081	7	Sololá	713	San Lucas Tolimán	10	San Lucas Tolimán	5	Mayo	2023-05-31T00:00:00	2024-11-08T07:00:00	2	Temperatura media	17.2
127082	7	Sololá	713	San Lucas Tolimán	10	San Lucas Tolimán	5	Mayo	2023-05-31T00:00:00	2024-11-08T07:00:00	4	Temperatura máxima	17.2
127083	7	Sololá	713	San Lucas Tolimán	10	San Lucas Tolimán	5	Mayo	2023-05-31T00:00:00	2024-11-08T07:00:00	3	Temperatura mínima	16
127084	7	Sololá	713	San Lucas Tolimán	10	San Lucas Tolimán	5	Mayo	2023-05-31T00:00:00	2024-11-08T07:00:00	5	Humedad	63
127085	7	Sololá	713	San Lucas Tolimán	10	San Lucas Tolimán	5	Mayo	2023-05-31T00:00:00	2024-11-08T07:00:00	6	Velocidad del viento	1.6
127086	7	Sololá	713	San Lucas Tolimán	10	San Lucas Tolimán	5	Mayo	2023-05-31T00:00:00	2024-11-08T07:00:00	7	Dirección del viento	1.61
127087	7	Sololá	713	San Lucas Tolimán	10	San Lucas Tolimán	5	Mayo	2023-05-31T00:00:00	2024-11-08T07:00:00	1	Precipitación	0
127088	7	Sololá	713	San Lucas Tolimán	10	San Lucas Tolimán	5	Mayo	2023-05-31T00:00:00	2024-11-08T07:00:00	8	Radiación solar	92
127089	7	Sololá	713	San Lucas Tolimán	10	San Lucas Tolimán	5	Mayo	2023-05-31T00:00:00	2024-11-08T08:00:00	2	Temperatura media	19.6
127090	7	Sololá	713	San Lucas Tolimán	10	San Lucas Tolimán	5	Mayo	2023-05-31T00:00:00	2024-11-08T08:00:00	4	Temperatura máxima	19.7
127091	7	Sololá	713	San Lucas Tolimán	10	San Lucas Tolimán	5	Mayo	2023-05-31T00:00:00	2024-11-08T08:00:00	3	Temperatura mínima	17.2
127092	7	Sololá	713	San Lucas Tolimán	10	San Lucas Tolimán	5	Mayo	2023-05-31T00:00:00	2024-11-08T08:00:00	5	Humedad	60
127093	7	Sololá	713	San Lucas Tolimán	10	San Lucas Tolimán	5	Mayo	2023-05-31T00:00:00	2024-11-08T08:00:00	6	Velocidad del viento	3.2
127094	7	Sololá	713	San Lucas Tolimán	10	San Lucas Tolimán	5	Mayo	2023-05-31T00:00:00	2024-11-08T08:00:00	7	Dirección del viento	3.22
127095	7	Sololá	713	San Lucas Tolimán	10	San Lucas Tolimán	5	Mayo	2023-05-31T00:00:00	2024-11-08T08:00:00	1	Precipitación	0
127096	7	Sololá	713	San Lucas Tolimán	10	San Lucas Tolimán	5	Mayo	2023-05-31T00:00:00	2024-11-08T08:00:00	8	Radiación solar	314
127097	7	Sololá	713	San Lucas Tolimán	10	San Lucas Tolimán	5	Mayo	2023-05-31T00:00:00	2024-11-08T09:00:00	2	Temperatura media	20.1
127098	7	Sololá	713	San Lucas Tolimán	10	San Lucas Tolimán	5	Mayo	2023-05-31T00:00:00	2024-11-08T09:00:00	4	Temperatura máxima	21.2
127099	7	Sololá	713	San Lucas Tolimán	10	San Lucas Tolimán	5	Mayo	2023-05-31T00:00:00	2024-11-08T09:00:00	3	Temperatura mínima	19.6
127100	7	Sololá	713	San Lucas Tolimán	10	San Lucas Tolimán	5	Mayo	2023-05-31T00:00:00	2024-11-08T09:00:00	5	Humedad	62
127101	7	Sololá	713	San Lucas Tolimán	10	San Lucas Tolimán	5	Mayo	2023-05-31T00:00:00	2024-11-08T09:00:00	6	Velocidad del viento	3.2
127102	7	Sololá	713	San Lucas Tolimán	10	San Lucas Tolimán	5	Mayo	2023-05-31T00:00:00	2024-11-08T09:00:00	7	Dirección del viento	3.22
127103	7	Sololá	713	San Lucas Tolimán	10	San Lucas Tolimán	5	Mayo	2023-05-31T00:00:00	2024-11-08T09:00:00	1	Precipitación	0
127104	7	Sololá	713	San Lucas Tolimán	10	San Lucas Tolimán	5	Mayo	2023-05-31T00:00:00	2024-11-08T09:00:00	8	Radiación solar	411
127105	7	Sololá	713	San Lucas Tolimán	10	San Lucas Tolimán	5	Mayo	2023-05-31T00:00:00	2024-11-08T10:00:00	2	Temperatura media	20.7
127106	7	Sololá	713	San Lucas Tolimán	10	San Lucas Tolimán	5	Mayo	2023-05-31T00:00:00	2024-11-08T10:00:00	4	Temperatura máxima	21.3
127107	7	Sololá	713	San Lucas Tolimán	10	San Lucas Tolimán	5	Mayo	2023-05-31T00:00:00	2024-11-08T10:00:00	3	Temperatura mínima	20.1
127108	7	Sololá	713	San Lucas Tolimán	10	San Lucas Tolimán	5	Mayo	2023-05-31T00:00:00	2024-11-08T10:00:00	5	Humedad	63
127109	7	Sololá	713	San Lucas Tolimán	10	San Lucas Tolimán	5	Mayo	2023-05-31T00:00:00	2024-11-08T10:00:00	6	Velocidad del viento	8
127110	7	Sololá	713	San Lucas Tolimán	10	San Lucas Tolimán	5	Mayo	2023-05-31T00:00:00	2024-11-08T10:00:00	7	Dirección del viento	8.05
127111	7	Sololá	713	San Lucas Tolimán	10	San Lucas Tolimán	5	Mayo	2023-05-31T00:00:00	2024-11-08T10:00:00	1	Precipitación	0
127112	7	Sololá	713	San Lucas Tolimán	10	San Lucas Tolimán	5	Mayo	2023-05-31T00:00:00	2024-11-08T10:00:00	8	Radiación solar	596
127113	7	Sololá	713	San Lucas Tolimán	10	San Lucas Tolimán	5	Mayo	2023-05-31T00:00:00	2024-11-08T11:00:00	2	Temperatura media	21.3
127114	7	Sololá	713	San Lucas Tolimán	10	San Lucas Tolimán	5	Mayo	2023-05-31T00:00:00	2024-11-08T11:00:00	4	Temperatura máxima	21.4
127115	7	Sololá	713	San Lucas Tolimán	10	San Lucas Tolimán	5	Mayo	2023-05-31T00:00:00	2024-11-08T11:00:00	3	Temperatura mínima	20.7
127116	7	Sololá	713	San Lucas Tolimán	10	San Lucas Tolimán	5	Mayo	2023-05-31T00:00:00	2024-11-08T11:00:00	5	Humedad	60
127117	7	Sololá	713	San Lucas Tolimán	10	San Lucas Tolimán	5	Mayo	2023-05-31T00:00:00	2024-11-08T11:00:00	6	Velocidad del viento	9.7
127118	7	Sololá	713	San Lucas Tolimán	10	San Lucas Tolimán	5	Mayo	2023-05-31T00:00:00	2024-11-08T11:00:00	7	Dirección del viento	9.66
127119	7	Sololá	713	San Lucas Tolimán	10	San Lucas Tolimán	5	Mayo	2023-05-31T00:00:00	2024-11-08T11:00:00	1	Precipitación	0
127120	7	Sololá	713	San Lucas Tolimán	10	San Lucas Tolimán	5	Mayo	2023-05-31T00:00:00	2024-11-08T11:00:00	8	Radiación solar	709
127121	7	Sololá	713	San Lucas Tolimán	10	San Lucas Tolimán	5	Mayo	2023-05-31T00:00:00	2024-11-08T12:00:00	2	Temperatura media	21.3
127122	7	Sololá	713	San Lucas Tolimán	10	San Lucas Tolimán	5	Mayo	2023-05-31T00:00:00	2024-11-08T12:00:00	4	Temperatura máxima	21.8
127123	7	Sololá	713	San Lucas Tolimán	10	San Lucas Tolimán	5	Mayo	2023-05-31T00:00:00	2024-11-08T12:00:00	3	Temperatura mínima	21.1
127124	7	Sololá	713	San Lucas Tolimán	10	San Lucas Tolimán	5	Mayo	2023-05-31T00:00:00	2024-11-08T12:00:00	5	Humedad	61
127125	7	Sololá	713	San Lucas Tolimán	10	San Lucas Tolimán	5	Mayo	2023-05-31T00:00:00	2024-11-08T12:00:00	6	Velocidad del viento	9.7
127126	7	Sololá	713	San Lucas Tolimán	10	San Lucas Tolimán	5	Mayo	2023-05-31T00:00:00	2024-11-08T12:00:00	7	Dirección del viento	9.66
127127	7	Sololá	713	San Lucas Tolimán	10	San Lucas Tolimán	5	Mayo	2023-05-31T00:00:00	2024-11-08T12:00:00	1	Precipitación	0
127128	7	Sololá	713	San Lucas Tolimán	10	San Lucas Tolimán	5	Mayo	2023-05-31T00:00:00	2024-11-08T12:00:00	8	Radiación solar	763
127129	7	Sololá	713	San Lucas Tolimán	10	San Lucas Tolimán	5	Mayo	2023-05-31T00:00:00	2024-11-08T13:00:00	2	Temperatura media	20.4
127130	7	Sololá	713	San Lucas Tolimán	10	San Lucas Tolimán	5	Mayo	2023-05-31T00:00:00	2024-11-08T13:00:00	4	Temperatura máxima	21.9
127131	7	Sololá	713	San Lucas Tolimán	10	San Lucas Tolimán	5	Mayo	2023-05-31T00:00:00	2024-11-08T13:00:00	3	Temperatura mínima	20.4
127132	7	Sololá	713	San Lucas Tolimán	10	San Lucas Tolimán	5	Mayo	2023-05-31T00:00:00	2024-11-08T13:00:00	5	Humedad	64
127133	7	Sololá	713	San Lucas Tolimán	10	San Lucas Tolimán	5	Mayo	2023-05-31T00:00:00	2024-11-08T13:00:00	6	Velocidad del viento	9.7
127134	7	Sololá	713	San Lucas Tolimán	10	San Lucas Tolimán	5	Mayo	2023-05-31T00:00:00	2024-11-08T13:00:00	7	Dirección del viento	9.66
127135	7	Sololá	713	San Lucas Tolimán	10	San Lucas Tolimán	5	Mayo	2023-05-31T00:00:00	2024-11-08T13:00:00	1	Precipitación	0
127136	7	Sololá	713	San Lucas Tolimán	10	San Lucas Tolimán	5	Mayo	2023-05-31T00:00:00	2024-11-08T13:00:00	8	Radiación solar	606
127137	7	Sololá	713	San Lucas Tolimán	10	San Lucas Tolimán	5	Mayo	2023-05-31T00:00:00	2024-11-08T14:00:00	2	Temperatura media	22.6
127138	7	Sololá	713	San Lucas Tolimán	10	San Lucas Tolimán	5	Mayo	2023-05-31T00:00:00	2024-11-08T14:00:00	4	Temperatura máxima	22.6
127139	7	Sololá	713	San Lucas Tolimán	10	San Lucas Tolimán	5	Mayo	2023-05-31T00:00:00	2024-11-08T14:00:00	3	Temperatura mínima	20.3
127140	7	Sololá	713	San Lucas Tolimán	10	San Lucas Tolimán	5	Mayo	2023-05-31T00:00:00	2024-11-08T14:00:00	5	Humedad	58
127141	7	Sololá	713	San Lucas Tolimán	10	San Lucas Tolimán	5	Mayo	2023-05-31T00:00:00	2024-11-08T14:00:00	6	Velocidad del viento	8
127142	7	Sololá	713	San Lucas Tolimán	10	San Lucas Tolimán	5	Mayo	2023-05-31T00:00:00	2024-11-08T14:00:00	7	Dirección del viento	8.05
127143	7	Sololá	713	San Lucas Tolimán	10	San Lucas Tolimán	5	Mayo	2023-05-31T00:00:00	2024-11-08T14:00:00	1	Precipitación	0
127144	7	Sololá	713	San Lucas Tolimán	10	San Lucas Tolimán	5	Mayo	2023-05-31T00:00:00	2024-11-08T14:00:00	8	Radiación solar	602
127145	7	Sololá	713	San Lucas Tolimán	10	San Lucas Tolimán	5	Mayo	2023-05-31T00:00:00	2024-11-08T15:00:00	2	Temperatura media	20.4
127146	7	Sololá	713	San Lucas Tolimán	10	San Lucas Tolimán	5	Mayo	2023-05-31T00:00:00	2024-11-08T15:00:00	4	Temperatura máxima	22.6
127147	7	Sololá	713	San Lucas Tolimán	10	San Lucas Tolimán	5	Mayo	2023-05-31T00:00:00	2024-11-08T15:00:00	3	Temperatura mínima	20.4
127148	7	Sololá	713	San Lucas Tolimán	10	San Lucas Tolimán	5	Mayo	2023-05-31T00:00:00	2024-11-08T15:00:00	5	Humedad	64
127149	7	Sololá	713	San Lucas Tolimán	10	San Lucas Tolimán	5	Mayo	2023-05-31T00:00:00	2024-11-08T15:00:00	6	Velocidad del viento	11.3
127150	7	Sololá	713	San Lucas Tolimán	10	San Lucas Tolimán	5	Mayo	2023-05-31T00:00:00	2024-11-08T15:00:00	7	Dirección del viento	11.27
127151	7	Sololá	713	San Lucas Tolimán	10	San Lucas Tolimán	5	Mayo	2023-05-31T00:00:00	2024-11-08T15:00:00	1	Precipitación	0
127152	7	Sololá	713	San Lucas Tolimán	10	San Lucas Tolimán	5	Mayo	2023-05-31T00:00:00	2024-11-08T15:00:00	8	Radiación solar	484
127153	7	Sololá	713	San Lucas Tolimán	10	San Lucas Tolimán	5	Mayo	2023-05-31T00:00:00	2024-11-08T16:00:00	2	Temperatura media	19.4
127154	7	Sololá	713	San Lucas Tolimán	10	San Lucas Tolimán	5	Mayo	2023-05-31T00:00:00	2024-11-08T16:00:00	4	Temperatura máxima	20.4
127155	7	Sololá	713	San Lucas Tolimán	10	San Lucas Tolimán	5	Mayo	2023-05-31T00:00:00	2024-11-08T16:00:00	3	Temperatura mínima	19.4
127156	7	Sololá	713	San Lucas Tolimán	10	San Lucas Tolimán	5	Mayo	2023-05-31T00:00:00	2024-11-08T16:00:00	5	Humedad	64
127157	7	Sololá	713	San Lucas Tolimán	10	San Lucas Tolimán	5	Mayo	2023-05-31T00:00:00	2024-11-08T16:00:00	6	Velocidad del viento	8
127158	7	Sololá	713	San Lucas Tolimán	10	San Lucas Tolimán	5	Mayo	2023-05-31T00:00:00	2024-11-08T16:00:00	7	Dirección del viento	8.05
127159	7	Sololá	713	San Lucas Tolimán	10	San Lucas Tolimán	5	Mayo	2023-05-31T00:00:00	2024-11-08T16:00:00	1	Precipitación	0
127160	7	Sololá	713	San Lucas Tolimán	10	San Lucas Tolimán	5	Mayo	2023-05-31T00:00:00	2024-11-08T16:00:00	8	Radiación solar	80
127161	7	Sololá	713	San Lucas Tolimán	10	San Lucas Tolimán	5	Mayo	2023-05-31T00:00:00	2024-11-08T17:00:00	2	Temperatura media	18.8
127162	7	Sololá	713	San Lucas Tolimán	10	San Lucas Tolimán	5	Mayo	2023-05-31T00:00:00	2024-11-08T17:00:00	4	Temperatura máxima	19.4
127163	7	Sololá	713	San Lucas Tolimán	10	San Lucas Tolimán	5	Mayo	2023-05-31T00:00:00	2024-11-08T17:00:00	3	Temperatura mínima	18.8
127164	7	Sololá	713	San Lucas Tolimán	10	San Lucas Tolimán	5	Mayo	2023-05-31T00:00:00	2024-11-08T17:00:00	5	Humedad	65
127165	7	Sololá	713	San Lucas Tolimán	10	San Lucas Tolimán	5	Mayo	2023-05-31T00:00:00	2024-11-08T17:00:00	6	Velocidad del viento	6.4
127166	7	Sololá	713	San Lucas Tolimán	10	San Lucas Tolimán	5	Mayo	2023-05-31T00:00:00	2024-11-08T17:00:00	7	Dirección del viento	6.44
127167	7	Sololá	713	San Lucas Tolimán	10	San Lucas Tolimán	5	Mayo	2023-05-31T00:00:00	2024-11-08T17:00:00	1	Precipitación	0
127168	7	Sololá	713	San Lucas Tolimán	10	San Lucas Tolimán	5	Mayo	2023-05-31T00:00:00	2024-11-08T17:00:00	8	Radiación solar	26
127169	7	Sololá	713	San Lucas Tolimán	10	San Lucas Tolimán	5	Mayo	2023-05-31T00:00:00	2024-11-08T18:00:00	2	Temperatura media	18.8
127170	7	Sololá	713	San Lucas Tolimán	10	San Lucas Tolimán	5	Mayo	2023-05-31T00:00:00	2024-11-08T18:00:00	4	Temperatura máxima	18.9
127171	7	Sololá	713	San Lucas Tolimán	10	San Lucas Tolimán	5	Mayo	2023-05-31T00:00:00	2024-11-08T18:00:00	3	Temperatura mínima	18.7
127172	7	Sololá	713	San Lucas Tolimán	10	San Lucas Tolimán	5	Mayo	2023-05-31T00:00:00	2024-11-08T18:00:00	5	Humedad	67
127173	7	Sololá	713	San Lucas Tolimán	10	San Lucas Tolimán	5	Mayo	2023-05-31T00:00:00	2024-11-08T18:00:00	6	Velocidad del viento	6.4
127174	7	Sololá	713	San Lucas Tolimán	10	San Lucas Tolimán	5	Mayo	2023-05-31T00:00:00	2024-11-08T18:00:00	7	Dirección del viento	6.44
127175	7	Sololá	713	San Lucas Tolimán	10	San Lucas Tolimán	5	Mayo	2023-05-31T00:00:00	2024-11-08T18:00:00	1	Precipitación	0.4
127176	7	Sololá	713	San Lucas Tolimán	10	San Lucas Tolimán	5	Mayo	2023-05-31T00:00:00	2024-11-08T18:00:00	8	Radiación solar	16
127177	7	Sololá	713	San Lucas Tolimán	10	San Lucas Tolimán	5	Mayo	2023-05-31T00:00:00	2024-11-08T19:00:00	2	Temperatura media	18.4
127178	7	Sololá	713	San Lucas Tolimán	10	San Lucas Tolimán	5	Mayo	2023-05-31T00:00:00	2024-11-08T19:00:00	4	Temperatura máxima	18.8
127179	7	Sololá	713	San Lucas Tolimán	10	San Lucas Tolimán	5	Mayo	2023-05-31T00:00:00	2024-11-08T19:00:00	3	Temperatura mínima	18.4
127180	7	Sololá	713	San Lucas Tolimán	10	San Lucas Tolimán	5	Mayo	2023-05-31T00:00:00	2024-11-08T19:00:00	5	Humedad	68
127181	7	Sololá	713	San Lucas Tolimán	10	San Lucas Tolimán	5	Mayo	2023-05-31T00:00:00	2024-11-08T19:00:00	6	Velocidad del viento	4.8
127182	7	Sololá	713	San Lucas Tolimán	10	San Lucas Tolimán	5	Mayo	2023-05-31T00:00:00	2024-11-08T19:00:00	7	Dirección del viento	4.83
127183	7	Sololá	713	San Lucas Tolimán	10	San Lucas Tolimán	5	Mayo	2023-05-31T00:00:00	2024-11-08T19:00:00	1	Precipitación	1
127184	7	Sololá	713	San Lucas Tolimán	10	San Lucas Tolimán	5	Mayo	2023-05-31T00:00:00	2024-11-08T19:00:00	8	Radiación solar	0
127185	7	Sololá	713	San Lucas Tolimán	10	San Lucas Tolimán	5	Mayo	2023-05-31T00:00:00	2024-11-08T20:00:00	2	Temperatura media	18.3
127186	7	Sololá	713	San Lucas Tolimán	10	San Lucas Tolimán	5	Mayo	2023-05-31T00:00:00	2024-11-08T20:00:00	4	Temperatura máxima	18.5
127187	7	Sololá	713	San Lucas Tolimán	10	San Lucas Tolimán	5	Mayo	2023-05-31T00:00:00	2024-11-08T20:00:00	3	Temperatura mínima	18.2
127188	7	Sololá	713	San Lucas Tolimán	10	San Lucas Tolimán	5	Mayo	2023-05-31T00:00:00	2024-11-08T20:00:00	5	Humedad	68
127189	7	Sololá	713	San Lucas Tolimán	10	San Lucas Tolimán	5	Mayo	2023-05-31T00:00:00	2024-11-08T20:00:00	6	Velocidad del viento	0
127190	7	Sololá	713	San Lucas Tolimán	10	San Lucas Tolimán	5	Mayo	2023-05-31T00:00:00	2024-11-08T20:00:00	7	Dirección del viento	0
127191	7	Sololá	713	San Lucas Tolimán	10	San Lucas Tolimán	5	Mayo	2023-05-31T00:00:00	2024-11-08T20:00:00	1	Precipitación	0
127192	7	Sololá	713	San Lucas Tolimán	10	San Lucas Tolimán	5	Mayo	2023-05-31T00:00:00	2024-11-08T20:00:00	8	Radiación solar	0
127193	7	Sololá	713	San Lucas Tolimán	10	San Lucas Tolimán	5	Mayo	2023-05-31T00:00:00	2024-11-08T21:00:00	2	Temperatura media	17.4
127194	7	Sololá	713	San Lucas Tolimán	10	San Lucas Tolimán	5	Mayo	2023-05-31T00:00:00	2024-11-08T21:00:00	4	Temperatura máxima	18.3
127195	7	Sololá	713	San Lucas Tolimán	10	San Lucas Tolimán	5	Mayo	2023-05-31T00:00:00	2024-11-08T21:00:00	3	Temperatura mínima	17.3
127196	7	Sololá	713	San Lucas Tolimán	10	San Lucas Tolimán	5	Mayo	2023-05-31T00:00:00	2024-11-08T21:00:00	5	Humedad	68
127197	7	Sololá	713	San Lucas Tolimán	10	San Lucas Tolimán	5	Mayo	2023-05-31T00:00:00	2024-11-08T21:00:00	6	Velocidad del viento	3.2
127198	7	Sololá	713	San Lucas Tolimán	10	San Lucas Tolimán	5	Mayo	2023-05-31T00:00:00	2024-11-08T21:00:00	7	Dirección del viento	3.22
127199	7	Sololá	713	San Lucas Tolimán	10	San Lucas Tolimán	5	Mayo	2023-05-31T00:00:00	2024-11-08T21:00:00	1	Precipitación	0.2
127200	7	Sololá	713	San Lucas Tolimán	10	San Lucas Tolimán	5	Mayo	2023-05-31T00:00:00	2024-11-08T21:00:00	8	Radiación solar	0
127201	7	Sololá	713	San Lucas Tolimán	10	San Lucas Tolimán	5	Mayo	2023-05-31T00:00:00	2024-11-08T22:00:00	2	Temperatura media	17.3
127202	7	Sololá	713	San Lucas Tolimán	10	San Lucas Tolimán	5	Mayo	2023-05-31T00:00:00	2024-11-08T22:00:00	4	Temperatura máxima	17.3
127203	7	Sololá	713	San Lucas Tolimán	10	San Lucas Tolimán	5	Mayo	2023-05-31T00:00:00	2024-11-08T22:00:00	3	Temperatura mínima	17.2
127204	7	Sololá	713	San Lucas Tolimán	10	San Lucas Tolimán	5	Mayo	2023-05-31T00:00:00	2024-11-08T22:00:00	5	Humedad	68
127205	7	Sololá	713	San Lucas Tolimán	10	San Lucas Tolimán	5	Mayo	2023-05-31T00:00:00	2024-11-08T22:00:00	6	Velocidad del viento	1.6
127206	7	Sololá	713	San Lucas Tolimán	10	San Lucas Tolimán	5	Mayo	2023-05-31T00:00:00	2024-11-08T22:00:00	7	Dirección del viento	1.61
127207	7	Sololá	713	San Lucas Tolimán	10	San Lucas Tolimán	5	Mayo	2023-05-31T00:00:00	2024-11-08T22:00:00	1	Precipitación	0
127208	7	Sololá	713	San Lucas Tolimán	10	San Lucas Tolimán	5	Mayo	2023-05-31T00:00:00	2024-11-08T22:00:00	8	Radiación solar	0
127209	7	Sololá	713	San Lucas Tolimán	10	San Lucas Tolimán	5	Mayo	2023-05-31T00:00:00	2024-11-08T23:00:00	2	Temperatura media	17.7
127210	7	Sololá	713	San Lucas Tolimán	10	San Lucas Tolimán	5	Mayo	2023-05-31T00:00:00	2024-11-08T23:00:00	4	Temperatura máxima	17.7
127211	7	Sololá	713	San Lucas Tolimán	10	San Lucas Tolimán	5	Mayo	2023-05-31T00:00:00	2024-11-08T23:00:00	3	Temperatura mínima	17.3
127212	7	Sololá	713	San Lucas Tolimán	10	San Lucas Tolimán	5	Mayo	2023-05-31T00:00:00	2024-11-08T23:00:00	5	Humedad	67
127213	7	Sololá	713	San Lucas Tolimán	10	San Lucas Tolimán	5	Mayo	2023-05-31T00:00:00	2024-11-08T23:00:00	6	Velocidad del viento	3.2
127214	7	Sololá	713	San Lucas Tolimán	10	San Lucas Tolimán	5	Mayo	2023-05-31T00:00:00	2024-11-08T23:00:00	7	Dirección del viento	3.22
127215	7	Sololá	713	San Lucas Tolimán	10	San Lucas Tolimán	5	Mayo	2023-05-31T00:00:00	2024-11-08T23:00:00	1	Precipitación	0
127216	7	Sololá	713	San Lucas Tolimán	10	San Lucas Tolimán	5	Mayo	2023-05-31T00:00:00	2024-11-08T23:00:00	8	Radiación solar	0
127217	7	Sololá	713	San Lucas Tolimán	10	San Lucas Tolimán	6	Junio	2023-01-06T00:00:00	2024-11-08T00:00:00	2	Temperatura media	17.7
127218	7	Sololá	713	San Lucas Tolimán	10	San Lucas Tolimán	6	Junio	2023-01-06T00:00:00	2024-11-08T00:00:00	4	Temperatura máxima	17.7
127219	7	Sololá	713	San Lucas Tolimán	10	San Lucas Tolimán	6	Junio	2023-01-06T00:00:00	2024-11-08T00:00:00	3	Temperatura mínima	17.6
127220	7	Sololá	713	San Lucas Tolimán	10	San Lucas Tolimán	6	Junio	2023-01-06T00:00:00	2024-11-08T00:00:00	5	Humedad	68
127221	7	Sololá	713	San Lucas Tolimán	10	San Lucas Tolimán	6	Junio	2023-01-06T00:00:00	2024-11-08T00:00:00	6	Velocidad del viento	6.4
127222	7	Sololá	713	San Lucas Tolimán	10	San Lucas Tolimán	6	Junio	2023-01-06T00:00:00	2024-11-08T00:00:00	7	Dirección del viento	6.44
127223	7	Sololá	713	San Lucas Tolimán	10	San Lucas Tolimán	6	Junio	2023-01-06T00:00:00	2024-11-08T00:00:00	1	Precipitación	0
127224	7	Sololá	713	San Lucas Tolimán	10	San Lucas Tolimán	6	Junio	2023-01-06T00:00:00	2024-11-08T00:00:00	8	Radiación solar	0
127225	7	Sololá	713	San Lucas Tolimán	10	San Lucas Tolimán	6	Junio	2023-01-06T00:00:00	2024-11-08T01:00:00	2	Temperatura media	17.6
127226	7	Sololá	713	San Lucas Tolimán	10	San Lucas Tolimán	6	Junio	2023-01-06T00:00:00	2024-11-08T01:00:00	4	Temperatura máxima	17.7
127227	7	Sololá	713	San Lucas Tolimán	10	San Lucas Tolimán	6	Junio	2023-01-06T00:00:00	2024-11-08T01:00:00	3	Temperatura mínima	17.4
127228	7	Sololá	713	San Lucas Tolimán	10	San Lucas Tolimán	6	Junio	2023-01-06T00:00:00	2024-11-08T01:00:00	5	Humedad	69
127229	7	Sololá	713	San Lucas Tolimán	10	San Lucas Tolimán	6	Junio	2023-01-06T00:00:00	2024-11-08T01:00:00	6	Velocidad del viento	1.6
127230	7	Sololá	713	San Lucas Tolimán	10	San Lucas Tolimán	6	Junio	2023-01-06T00:00:00	2024-11-08T01:00:00	7	Dirección del viento	1.61
127231	7	Sololá	713	San Lucas Tolimán	10	San Lucas Tolimán	6	Junio	2023-01-06T00:00:00	2024-11-08T01:00:00	1	Precipitación	7.2
127232	7	Sololá	713	San Lucas Tolimán	10	San Lucas Tolimán	6	Junio	2023-01-06T00:00:00	2024-11-08T01:00:00	8	Radiación solar	0
127233	7	Sololá	713	San Lucas Tolimán	10	San Lucas Tolimán	6	Junio	2023-01-06T00:00:00	2024-11-08T02:00:00	2	Temperatura media	17.1
127234	7	Sololá	713	San Lucas Tolimán	10	San Lucas Tolimán	6	Junio	2023-01-06T00:00:00	2024-11-08T02:00:00	4	Temperatura máxima	17.6
127235	7	Sololá	713	San Lucas Tolimán	10	San Lucas Tolimán	6	Junio	2023-01-06T00:00:00	2024-11-08T02:00:00	3	Temperatura mínima	16.9
127236	7	Sololá	713	San Lucas Tolimán	10	San Lucas Tolimán	6	Junio	2023-01-06T00:00:00	2024-11-08T02:00:00	5	Humedad	69
127237	7	Sololá	713	San Lucas Tolimán	10	San Lucas Tolimán	6	Junio	2023-01-06T00:00:00	2024-11-08T02:00:00	6	Velocidad del viento	1.6
127238	7	Sololá	713	San Lucas Tolimán	10	San Lucas Tolimán	6	Junio	2023-01-06T00:00:00	2024-11-08T02:00:00	7	Dirección del viento	1.61
127239	7	Sololá	713	San Lucas Tolimán	10	San Lucas Tolimán	6	Junio	2023-01-06T00:00:00	2024-11-08T02:00:00	1	Precipitación	0
127240	7	Sololá	713	San Lucas Tolimán	10	San Lucas Tolimán	6	Junio	2023-01-06T00:00:00	2024-11-08T02:00:00	8	Radiación solar	0
127241	7	Sololá	713	San Lucas Tolimán	10	San Lucas Tolimán	6	Junio	2023-01-06T00:00:00	2024-11-08T03:00:00	2	Temperatura media	17.1
127242	7	Sololá	713	San Lucas Tolimán	10	San Lucas Tolimán	6	Junio	2023-01-06T00:00:00	2024-11-08T03:00:00	4	Temperatura máxima	17.1
127243	7	Sololá	713	San Lucas Tolimán	10	San Lucas Tolimán	6	Junio	2023-01-06T00:00:00	2024-11-08T03:00:00	3	Temperatura mínima	16.8
127244	7	Sololá	713	San Lucas Tolimán	10	San Lucas Tolimán	6	Junio	2023-01-06T00:00:00	2024-11-08T03:00:00	5	Humedad	69
127245	7	Sololá	713	San Lucas Tolimán	10	San Lucas Tolimán	6	Junio	2023-01-06T00:00:00	2024-11-08T03:00:00	6	Velocidad del viento	3.2
127246	7	Sololá	713	San Lucas Tolimán	10	San Lucas Tolimán	6	Junio	2023-01-06T00:00:00	2024-11-08T03:00:00	7	Dirección del viento	3.22
127247	7	Sololá	713	San Lucas Tolimán	10	San Lucas Tolimán	6	Junio	2023-01-06T00:00:00	2024-11-08T03:00:00	1	Precipitación	0
127248	7	Sololá	713	San Lucas Tolimán	10	San Lucas Tolimán	6	Junio	2023-01-06T00:00:00	2024-11-08T03:00:00	8	Radiación solar	0
127249	7	Sololá	713	San Lucas Tolimán	10	San Lucas Tolimán	6	Junio	2023-01-06T00:00:00	2024-11-08T04:00:00	2	Temperatura media	16.7
127250	7	Sololá	713	San Lucas Tolimán	10	San Lucas Tolimán	6	Junio	2023-01-06T00:00:00	2024-11-08T04:00:00	4	Temperatura máxima	17.2
127251	7	Sololá	713	San Lucas Tolimán	10	San Lucas Tolimán	6	Junio	2023-01-06T00:00:00	2024-11-08T04:00:00	3	Temperatura mínima	16.7
127252	7	Sololá	713	San Lucas Tolimán	10	San Lucas Tolimán	6	Junio	2023-01-06T00:00:00	2024-11-08T04:00:00	5	Humedad	69
127253	7	Sololá	713	San Lucas Tolimán	10	San Lucas Tolimán	6	Junio	2023-01-06T00:00:00	2024-11-08T04:00:00	6	Velocidad del viento	1.6
127254	7	Sololá	713	San Lucas Tolimán	10	San Lucas Tolimán	6	Junio	2023-01-06T00:00:00	2024-11-08T04:00:00	7	Dirección del viento	1.61
127255	7	Sololá	713	San Lucas Tolimán	10	San Lucas Tolimán	6	Junio	2023-01-06T00:00:00	2024-11-08T04:00:00	1	Precipitación	0
127256	7	Sololá	713	San Lucas Tolimán	10	San Lucas Tolimán	6	Junio	2023-01-06T00:00:00	2024-11-08T04:00:00	8	Radiación solar	0
127257	7	Sololá	713	San Lucas Tolimán	10	San Lucas Tolimán	6	Junio	2023-01-06T00:00:00	2024-11-08T05:00:00	2	Temperatura media	16.6
127258	7	Sololá	713	San Lucas Tolimán	10	San Lucas Tolimán	6	Junio	2023-01-06T00:00:00	2024-11-08T05:00:00	4	Temperatura máxima	16.8
127259	7	Sololá	713	San Lucas Tolimán	10	San Lucas Tolimán	6	Junio	2023-01-06T00:00:00	2024-11-08T05:00:00	3	Temperatura mínima	16.4
127260	7	Sololá	713	San Lucas Tolimán	10	San Lucas Tolimán	6	Junio	2023-01-06T00:00:00	2024-11-08T05:00:00	5	Humedad	69
127261	7	Sololá	713	San Lucas Tolimán	10	San Lucas Tolimán	6	Junio	2023-01-06T00:00:00	2024-11-08T05:00:00	6	Velocidad del viento	3.2
127262	7	Sololá	713	San Lucas Tolimán	10	San Lucas Tolimán	6	Junio	2023-01-06T00:00:00	2024-11-08T05:00:00	7	Dirección del viento	3.22
127263	7	Sololá	713	San Lucas Tolimán	10	San Lucas Tolimán	6	Junio	2023-01-06T00:00:00	2024-11-08T05:00:00	1	Precipitación	0
127264	7	Sololá	713	San Lucas Tolimán	10	San Lucas Tolimán	6	Junio	2023-01-06T00:00:00	2024-11-08T05:00:00	8	Radiación solar	0
127265	7	Sololá	713	San Lucas Tolimán	10	San Lucas Tolimán	6	Junio	2023-01-06T00:00:00	2024-11-08T06:00:00	2	Temperatura media	16.4
127266	7	Sololá	713	San Lucas Tolimán	10	San Lucas Tolimán	6	Junio	2023-01-06T00:00:00	2024-11-08T06:00:00	4	Temperatura máxima	16.6
127267	7	Sololá	713	San Lucas Tolimán	10	San Lucas Tolimán	6	Junio	2023-01-06T00:00:00	2024-11-08T06:00:00	3	Temperatura mínima	16.3
127268	7	Sololá	713	San Lucas Tolimán	10	San Lucas Tolimán	6	Junio	2023-01-06T00:00:00	2024-11-08T06:00:00	5	Humedad	69
127269	7	Sololá	713	San Lucas Tolimán	10	San Lucas Tolimán	6	Junio	2023-01-06T00:00:00	2024-11-08T06:00:00	6	Velocidad del viento	3.2
127270	7	Sololá	713	San Lucas Tolimán	10	San Lucas Tolimán	6	Junio	2023-01-06T00:00:00	2024-11-08T06:00:00	7	Dirección del viento	3.22
127271	7	Sololá	713	San Lucas Tolimán	10	San Lucas Tolimán	6	Junio	2023-01-06T00:00:00	2024-11-08T06:00:00	1	Precipitación	0
127272	7	Sololá	713	San Lucas Tolimán	10	San Lucas Tolimán	6	Junio	2023-01-06T00:00:00	2024-11-08T06:00:00	8	Radiación solar	7
127273	7	Sololá	713	San Lucas Tolimán	10	San Lucas Tolimán	6	Junio	2023-01-06T00:00:00	2024-11-08T07:00:00	2	Temperatura media	17.6
127274	7	Sololá	713	San Lucas Tolimán	10	San Lucas Tolimán	6	Junio	2023-01-06T00:00:00	2024-11-08T07:00:00	4	Temperatura máxima	17.6
127275	7	Sololá	713	San Lucas Tolimán	10	San Lucas Tolimán	6	Junio	2023-01-06T00:00:00	2024-11-08T07:00:00	3	Temperatura mínima	16.3
127276	7	Sololá	713	San Lucas Tolimán	10	San Lucas Tolimán	6	Junio	2023-01-06T00:00:00	2024-11-08T07:00:00	5	Humedad	69
127277	7	Sololá	713	San Lucas Tolimán	10	San Lucas Tolimán	6	Junio	2023-01-06T00:00:00	2024-11-08T07:00:00	6	Velocidad del viento	1.6
127278	7	Sololá	713	San Lucas Tolimán	10	San Lucas Tolimán	6	Junio	2023-01-06T00:00:00	2024-11-08T07:00:00	7	Dirección del viento	1.61
127279	7	Sololá	713	San Lucas Tolimán	10	San Lucas Tolimán	6	Junio	2023-01-06T00:00:00	2024-11-08T07:00:00	1	Precipitación	0
127280	7	Sololá	713	San Lucas Tolimán	10	San Lucas Tolimán	6	Junio	2023-01-06T00:00:00	2024-11-08T07:00:00	8	Radiación solar	102
127281	7	Sololá	713	San Lucas Tolimán	10	San Lucas Tolimán	6	Junio	2023-01-06T00:00:00	2024-11-08T08:00:00	2	Temperatura media	19.7
127282	7	Sololá	713	San Lucas Tolimán	10	San Lucas Tolimán	6	Junio	2023-01-06T00:00:00	2024-11-08T08:00:00	4	Temperatura máxima	19.7
127283	7	Sololá	713	San Lucas Tolimán	10	San Lucas Tolimán	6	Junio	2023-01-06T00:00:00	2024-11-08T08:00:00	3	Temperatura mínima	17.6
127284	7	Sololá	713	San Lucas Tolimán	10	San Lucas Tolimán	6	Junio	2023-01-06T00:00:00	2024-11-08T08:00:00	5	Humedad	61
127285	7	Sololá	713	San Lucas Tolimán	10	San Lucas Tolimán	6	Junio	2023-01-06T00:00:00	2024-11-08T08:00:00	6	Velocidad del viento	3.2
127286	7	Sololá	713	San Lucas Tolimán	10	San Lucas Tolimán	6	Junio	2023-01-06T00:00:00	2024-11-08T08:00:00	7	Dirección del viento	3.22
127287	7	Sololá	713	San Lucas Tolimán	10	San Lucas Tolimán	6	Junio	2023-01-06T00:00:00	2024-11-08T08:00:00	1	Precipitación	0
127288	7	Sololá	713	San Lucas Tolimán	10	San Lucas Tolimán	6	Junio	2023-01-06T00:00:00	2024-11-08T08:00:00	8	Radiación solar	232
127289	7	Sololá	713	San Lucas Tolimán	10	San Lucas Tolimán	6	Junio	2023-01-06T00:00:00	2024-11-08T09:00:00	2	Temperatura media	21.1
127290	7	Sololá	713	San Lucas Tolimán	10	San Lucas Tolimán	6	Junio	2023-01-06T00:00:00	2024-11-08T09:00:00	4	Temperatura máxima	21.2
127291	7	Sololá	713	San Lucas Tolimán	10	San Lucas Tolimán	6	Junio	2023-01-06T00:00:00	2024-11-08T09:00:00	3	Temperatura mínima	19.7
127292	7	Sololá	713	San Lucas Tolimán	10	San Lucas Tolimán	6	Junio	2023-01-06T00:00:00	2024-11-08T09:00:00	5	Humedad	59
127293	7	Sololá	713	San Lucas Tolimán	10	San Lucas Tolimán	6	Junio	2023-01-06T00:00:00	2024-11-08T09:00:00	6	Velocidad del viento	4.8
127294	7	Sololá	713	San Lucas Tolimán	10	San Lucas Tolimán	6	Junio	2023-01-06T00:00:00	2024-11-08T09:00:00	7	Dirección del viento	4.83
127295	7	Sololá	713	San Lucas Tolimán	10	San Lucas Tolimán	6	Junio	2023-01-06T00:00:00	2024-11-08T09:00:00	1	Precipitación	0
127296	7	Sololá	713	San Lucas Tolimán	10	San Lucas Tolimán	6	Junio	2023-01-06T00:00:00	2024-11-08T09:00:00	8	Radiación solar	576
127297	7	Sololá	713	San Lucas Tolimán	10	San Lucas Tolimán	6	Junio	2023-01-06T00:00:00	2024-11-08T10:00:00	2	Temperatura media	22.1
127298	7	Sololá	713	San Lucas Tolimán	10	San Lucas Tolimán	6	Junio	2023-01-06T00:00:00	2024-11-08T10:00:00	4	Temperatura máxima	22.7
127299	7	Sololá	713	San Lucas Tolimán	10	San Lucas Tolimán	6	Junio	2023-01-06T00:00:00	2024-11-08T10:00:00	3	Temperatura mínima	21.1
127300	7	Sololá	713	San Lucas Tolimán	10	San Lucas Tolimán	6	Junio	2023-01-06T00:00:00	2024-11-08T10:00:00	5	Humedad	61
127301	7	Sololá	713	San Lucas Tolimán	10	San Lucas Tolimán	6	Junio	2023-01-06T00:00:00	2024-11-08T10:00:00	6	Velocidad del viento	6.4
127302	7	Sololá	713	San Lucas Tolimán	10	San Lucas Tolimán	6	Junio	2023-01-06T00:00:00	2024-11-08T10:00:00	7	Dirección del viento	6.44
127303	7	Sololá	713	San Lucas Tolimán	10	San Lucas Tolimán	6	Junio	2023-01-06T00:00:00	2024-11-08T10:00:00	1	Precipitación	0
127304	7	Sololá	713	San Lucas Tolimán	10	San Lucas Tolimán	6	Junio	2023-01-06T00:00:00	2024-11-08T10:00:00	8	Radiación solar	808
127305	7	Sololá	713	San Lucas Tolimán	10	San Lucas Tolimán	6	Junio	2023-01-06T00:00:00	2024-11-08T11:00:00	2	Temperatura media	22.9
127306	7	Sololá	713	San Lucas Tolimán	10	San Lucas Tolimán	6	Junio	2023-01-06T00:00:00	2024-11-08T11:00:00	4	Temperatura máxima	22.9
127307	7	Sololá	713	San Lucas Tolimán	10	San Lucas Tolimán	6	Junio	2023-01-06T00:00:00	2024-11-08T11:00:00	3	Temperatura mínima	21.5
127308	7	Sololá	713	San Lucas Tolimán	10	San Lucas Tolimán	6	Junio	2023-01-06T00:00:00	2024-11-08T11:00:00	5	Humedad	59
127309	7	Sololá	713	San Lucas Tolimán	10	San Lucas Tolimán	6	Junio	2023-01-06T00:00:00	2024-11-08T11:00:00	6	Velocidad del viento	8
127310	7	Sololá	713	San Lucas Tolimán	10	San Lucas Tolimán	6	Junio	2023-01-06T00:00:00	2024-11-08T11:00:00	7	Dirección del viento	8.05
127311	7	Sololá	713	San Lucas Tolimán	10	San Lucas Tolimán	6	Junio	2023-01-06T00:00:00	2024-11-08T11:00:00	1	Precipitación	0
127312	7	Sololá	713	San Lucas Tolimán	10	San Lucas Tolimán	6	Junio	2023-01-06T00:00:00	2024-11-08T11:00:00	8	Radiación solar	1018
127313	7	Sololá	713	San Lucas Tolimán	10	San Lucas Tolimán	6	Junio	2023-01-06T00:00:00	2024-11-08T12:00:00	2	Temperatura media	22.9
127314	7	Sololá	713	San Lucas Tolimán	10	San Lucas Tolimán	6	Junio	2023-01-06T00:00:00	2024-11-08T12:00:00	4	Temperatura máxima	23.4
127315	7	Sololá	713	San Lucas Tolimán	10	San Lucas Tolimán	6	Junio	2023-01-06T00:00:00	2024-11-08T12:00:00	3	Temperatura mínima	22.8
127316	7	Sololá	713	San Lucas Tolimán	10	San Lucas Tolimán	6	Junio	2023-01-06T00:00:00	2024-11-08T12:00:00	5	Humedad	58
127317	7	Sololá	713	San Lucas Tolimán	10	San Lucas Tolimán	6	Junio	2023-01-06T00:00:00	2024-11-08T12:00:00	6	Velocidad del viento	9.7
127318	7	Sololá	713	San Lucas Tolimán	10	San Lucas Tolimán	6	Junio	2023-01-06T00:00:00	2024-11-08T12:00:00	7	Dirección del viento	9.66
127319	7	Sololá	713	San Lucas Tolimán	10	San Lucas Tolimán	6	Junio	2023-01-06T00:00:00	2024-11-08T12:00:00	1	Precipitación	0
127320	7	Sololá	713	San Lucas Tolimán	10	San Lucas Tolimán	6	Junio	2023-01-06T00:00:00	2024-11-08T12:00:00	8	Radiación solar	1128
127321	7	Sololá	713	San Lucas Tolimán	10	San Lucas Tolimán	6	Junio	2023-01-06T00:00:00	2024-11-08T13:00:00	2	Temperatura media	22.6
127322	7	Sololá	713	San Lucas Tolimán	10	San Lucas Tolimán	6	Junio	2023-01-06T00:00:00	2024-11-08T13:00:00	4	Temperatura máxima	23.2
127323	7	Sololá	713	San Lucas Tolimán	10	San Lucas Tolimán	6	Junio	2023-01-06T00:00:00	2024-11-08T13:00:00	3	Temperatura mínima	22.3
127324	7	Sololá	713	San Lucas Tolimán	10	San Lucas Tolimán	6	Junio	2023-01-06T00:00:00	2024-11-08T13:00:00	5	Humedad	59
127325	7	Sololá	713	San Lucas Tolimán	10	San Lucas Tolimán	6	Junio	2023-01-06T00:00:00	2024-11-08T13:00:00	6	Velocidad del viento	9.7
127326	7	Sololá	713	San Lucas Tolimán	10	San Lucas Tolimán	6	Junio	2023-01-06T00:00:00	2024-11-08T13:00:00	7	Dirección del viento	9.66
127327	7	Sololá	713	San Lucas Tolimán	10	San Lucas Tolimán	6	Junio	2023-01-06T00:00:00	2024-11-08T13:00:00	1	Precipitación	0
127328	7	Sololá	713	San Lucas Tolimán	10	San Lucas Tolimán	6	Junio	2023-01-06T00:00:00	2024-11-08T13:00:00	8	Radiación solar	872
127329	7	Sololá	713	San Lucas Tolimán	10	San Lucas Tolimán	6	Junio	2023-01-06T00:00:00	2024-11-08T14:00:00	2	Temperatura media	21.7
127330	7	Sololá	713	San Lucas Tolimán	10	San Lucas Tolimán	6	Junio	2023-01-06T00:00:00	2024-11-08T14:00:00	4	Temperatura máxima	22.7
127331	7	Sololá	713	San Lucas Tolimán	10	San Lucas Tolimán	6	Junio	2023-01-06T00:00:00	2024-11-08T14:00:00	3	Temperatura mínima	21.4
127332	7	Sololá	713	San Lucas Tolimán	10	San Lucas Tolimán	6	Junio	2023-01-06T00:00:00	2024-11-08T14:00:00	5	Humedad	63
127333	7	Sololá	713	San Lucas Tolimán	10	San Lucas Tolimán	6	Junio	2023-01-06T00:00:00	2024-11-08T14:00:00	6	Velocidad del viento	9.7
127334	7	Sololá	713	San Lucas Tolimán	10	San Lucas Tolimán	6	Junio	2023-01-06T00:00:00	2024-11-08T14:00:00	7	Dirección del viento	9.66
127335	7	Sololá	713	San Lucas Tolimán	10	San Lucas Tolimán	6	Junio	2023-01-06T00:00:00	2024-11-08T14:00:00	1	Precipitación	0
127336	7	Sololá	713	San Lucas Tolimán	10	San Lucas Tolimán	6	Junio	2023-01-06T00:00:00	2024-11-08T14:00:00	8	Radiación solar	565
127337	7	Sololá	713	San Lucas Tolimán	10	San Lucas Tolimán	6	Junio	2023-01-06T00:00:00	2024-11-08T15:00:00	2	Temperatura media	22.8
127338	7	Sololá	713	San Lucas Tolimán	10	San Lucas Tolimán	6	Junio	2023-01-06T00:00:00	2024-11-08T15:00:00	4	Temperatura máxima	23.2
127339	7	Sololá	713	San Lucas Tolimán	10	San Lucas Tolimán	6	Junio	2023-01-06T00:00:00	2024-11-08T15:00:00	3	Temperatura mínima	21.7
127340	7	Sololá	713	San Lucas Tolimán	10	San Lucas Tolimán	6	Junio	2023-01-06T00:00:00	2024-11-08T15:00:00	5	Humedad	59
127341	7	Sololá	713	San Lucas Tolimán	10	San Lucas Tolimán	6	Junio	2023-01-06T00:00:00	2024-11-08T15:00:00	6	Velocidad del viento	9.7
127342	7	Sololá	713	San Lucas Tolimán	10	San Lucas Tolimán	6	Junio	2023-01-06T00:00:00	2024-11-08T15:00:00	7	Dirección del viento	9.66
127343	7	Sololá	713	San Lucas Tolimán	10	San Lucas Tolimán	6	Junio	2023-01-06T00:00:00	2024-11-08T15:00:00	1	Precipitación	0
127344	7	Sololá	713	San Lucas Tolimán	10	San Lucas Tolimán	6	Junio	2023-01-06T00:00:00	2024-11-08T15:00:00	8	Radiación solar	721
127345	7	Sololá	713	San Lucas Tolimán	10	San Lucas Tolimán	6	Junio	2023-01-06T00:00:00	2024-11-08T16:00:00	2	Temperatura media	22.2
127346	7	Sololá	713	San Lucas Tolimán	10	San Lucas Tolimán	6	Junio	2023-01-06T00:00:00	2024-11-08T16:00:00	4	Temperatura máxima	23.1
127347	7	Sololá	713	San Lucas Tolimán	10	San Lucas Tolimán	6	Junio	2023-01-06T00:00:00	2024-11-08T16:00:00	3	Temperatura mínima	22.1
127348	7	Sololá	713	San Lucas Tolimán	10	San Lucas Tolimán	6	Junio	2023-01-06T00:00:00	2024-11-08T16:00:00	5	Humedad	63
127349	7	Sololá	713	San Lucas Tolimán	10	San Lucas Tolimán	6	Junio	2023-01-06T00:00:00	2024-11-08T16:00:00	6	Velocidad del viento	8
127350	7	Sololá	713	San Lucas Tolimán	10	San Lucas Tolimán	6	Junio	2023-01-06T00:00:00	2024-11-08T16:00:00	7	Dirección del viento	8.05
127351	7	Sololá	713	San Lucas Tolimán	10	San Lucas Tolimán	6	Junio	2023-01-06T00:00:00	2024-11-08T16:00:00	1	Precipitación	0
127352	7	Sololá	713	San Lucas Tolimán	10	San Lucas Tolimán	6	Junio	2023-01-06T00:00:00	2024-11-08T16:00:00	8	Radiación solar	511
127353	7	Sololá	713	San Lucas Tolimán	10	San Lucas Tolimán	6	Junio	2023-01-06T00:00:00	2024-11-08T17:00:00	2	Temperatura media	21.9
127354	7	Sololá	713	San Lucas Tolimán	10	San Lucas Tolimán	6	Junio	2023-01-06T00:00:00	2024-11-08T17:00:00	4	Temperatura máxima	22.7
127355	7	Sololá	713	San Lucas Tolimán	10	San Lucas Tolimán	6	Junio	2023-01-06T00:00:00	2024-11-08T17:00:00	3	Temperatura mínima	21.8
127356	7	Sololá	713	San Lucas Tolimán	10	San Lucas Tolimán	6	Junio	2023-01-06T00:00:00	2024-11-08T17:00:00	5	Humedad	64
127357	7	Sololá	713	San Lucas Tolimán	10	San Lucas Tolimán	6	Junio	2023-01-06T00:00:00	2024-11-08T17:00:00	6	Velocidad del viento	6.4
127358	7	Sololá	713	San Lucas Tolimán	10	San Lucas Tolimán	6	Junio	2023-01-06T00:00:00	2024-11-08T17:00:00	7	Dirección del viento	6.44
127359	7	Sololá	713	San Lucas Tolimán	10	San Lucas Tolimán	6	Junio	2023-01-06T00:00:00	2024-11-08T17:00:00	1	Precipitación	0
127360	7	Sololá	713	San Lucas Tolimán	10	San Lucas Tolimán	6	Junio	2023-01-06T00:00:00	2024-11-08T17:00:00	8	Radiación solar	301
127361	7	Sololá	713	San Lucas Tolimán	10	San Lucas Tolimán	6	Junio	2023-01-06T00:00:00	2024-11-08T18:00:00	2	Temperatura media	20.8
127362	7	Sololá	713	San Lucas Tolimán	10	San Lucas Tolimán	6	Junio	2023-01-06T00:00:00	2024-11-08T18:00:00	4	Temperatura máxima	21.9
127363	7	Sololá	713	San Lucas Tolimán	10	San Lucas Tolimán	6	Junio	2023-01-06T00:00:00	2024-11-08T18:00:00	3	Temperatura mínima	20.8
127364	7	Sololá	713	San Lucas Tolimán	10	San Lucas Tolimán	6	Junio	2023-01-06T00:00:00	2024-11-08T18:00:00	5	Humedad	64
127365	7	Sololá	713	San Lucas Tolimán	10	San Lucas Tolimán	6	Junio	2023-01-06T00:00:00	2024-11-08T18:00:00	6	Velocidad del viento	6.4
127366	7	Sololá	713	San Lucas Tolimán	10	San Lucas Tolimán	6	Junio	2023-01-06T00:00:00	2024-11-08T18:00:00	7	Dirección del viento	6.44
127367	7	Sololá	713	San Lucas Tolimán	10	San Lucas Tolimán	6	Junio	2023-01-06T00:00:00	2024-11-08T18:00:00	1	Precipitación	0
127368	7	Sololá	713	San Lucas Tolimán	10	San Lucas Tolimán	6	Junio	2023-01-06T00:00:00	2024-11-08T18:00:00	8	Radiación solar	82
127369	7	Sololá	713	San Lucas Tolimán	10	San Lucas Tolimán	6	Junio	2023-01-06T00:00:00	2024-11-08T19:00:00	2	Temperatura media	20.4
127370	7	Sololá	713	San Lucas Tolimán	10	San Lucas Tolimán	6	Junio	2023-01-06T00:00:00	2024-11-08T19:00:00	4	Temperatura máxima	20.8
127371	7	Sololá	713	San Lucas Tolimán	10	San Lucas Tolimán	6	Junio	2023-01-06T00:00:00	2024-11-08T19:00:00	3	Temperatura mínima	20.3
127372	7	Sololá	713	San Lucas Tolimán	10	San Lucas Tolimán	6	Junio	2023-01-06T00:00:00	2024-11-08T19:00:00	5	Humedad	64
127373	7	Sololá	713	San Lucas Tolimán	10	San Lucas Tolimán	6	Junio	2023-01-06T00:00:00	2024-11-08T19:00:00	6	Velocidad del viento	4.8
127374	7	Sololá	713	San Lucas Tolimán	10	San Lucas Tolimán	6	Junio	2023-01-06T00:00:00	2024-11-08T19:00:00	7	Dirección del viento	4.83
127375	7	Sololá	713	San Lucas Tolimán	10	San Lucas Tolimán	6	Junio	2023-01-06T00:00:00	2024-11-08T19:00:00	1	Precipitación	0
127376	7	Sololá	713	San Lucas Tolimán	10	San Lucas Tolimán	6	Junio	2023-01-06T00:00:00	2024-11-08T19:00:00	8	Radiación solar	0
127377	7	Sololá	713	San Lucas Tolimán	10	San Lucas Tolimán	6	Junio	2023-01-06T00:00:00	2024-11-08T20:00:00	2	Temperatura media	20.1
127378	7	Sololá	713	San Lucas Tolimán	10	San Lucas Tolimán	6	Junio	2023-01-06T00:00:00	2024-11-08T20:00:00	4	Temperatura máxima	20.3
127379	7	Sololá	713	San Lucas Tolimán	10	San Lucas Tolimán	6	Junio	2023-01-06T00:00:00	2024-11-08T20:00:00	3	Temperatura mínima	20
127380	7	Sololá	713	San Lucas Tolimán	10	San Lucas Tolimán	6	Junio	2023-01-06T00:00:00	2024-11-08T20:00:00	5	Humedad	64
127381	7	Sololá	713	San Lucas Tolimán	10	San Lucas Tolimán	6	Junio	2023-01-06T00:00:00	2024-11-08T20:00:00	6	Velocidad del viento	4.8
127382	7	Sololá	713	San Lucas Tolimán	10	San Lucas Tolimán	6	Junio	2023-01-06T00:00:00	2024-11-08T20:00:00	7	Dirección del viento	4.83
127383	7	Sololá	713	San Lucas Tolimán	10	San Lucas Tolimán	6	Junio	2023-01-06T00:00:00	2024-11-08T20:00:00	1	Precipitación	0
127384	7	Sololá	713	San Lucas Tolimán	10	San Lucas Tolimán	6	Junio	2023-01-06T00:00:00	2024-11-08T20:00:00	8	Radiación solar	0
127385	7	Sololá	713	San Lucas Tolimán	10	San Lucas Tolimán	6	Junio	2023-01-06T00:00:00	2024-11-08T21:00:00	2	Temperatura media	19.1
127386	7	Sololá	713	San Lucas Tolimán	10	San Lucas Tolimán	6	Junio	2023-01-06T00:00:00	2024-11-08T21:00:00	4	Temperatura máxima	20.2
127387	7	Sololá	713	San Lucas Tolimán	10	San Lucas Tolimán	6	Junio	2023-01-06T00:00:00	2024-11-08T21:00:00	3	Temperatura mínima	19.1
127388	7	Sololá	713	San Lucas Tolimán	10	San Lucas Tolimán	6	Junio	2023-01-06T00:00:00	2024-11-08T21:00:00	5	Humedad	67
127389	7	Sololá	713	San Lucas Tolimán	10	San Lucas Tolimán	6	Junio	2023-01-06T00:00:00	2024-11-08T21:00:00	6	Velocidad del viento	6.4
127390	7	Sololá	713	San Lucas Tolimán	10	San Lucas Tolimán	6	Junio	2023-01-06T00:00:00	2024-11-08T21:00:00	7	Dirección del viento	6.44
127391	7	Sololá	713	San Lucas Tolimán	10	San Lucas Tolimán	6	Junio	2023-01-06T00:00:00	2024-11-08T21:00:00	1	Precipitación	0
127392	7	Sololá	713	San Lucas Tolimán	10	San Lucas Tolimán	6	Junio	2023-01-06T00:00:00	2024-11-08T21:00:00	8	Radiación solar	0
127393	7	Sololá	713	San Lucas Tolimán	10	San Lucas Tolimán	6	Junio	2023-01-06T00:00:00	2024-11-08T22:00:00	2	Temperatura media	19.3
127394	7	Sololá	713	San Lucas Tolimán	10	San Lucas Tolimán	6	Junio	2023-01-06T00:00:00	2024-11-08T22:00:00	4	Temperatura máxima	19.3
127395	7	Sololá	713	San Lucas Tolimán	10	San Lucas Tolimán	6	Junio	2023-01-06T00:00:00	2024-11-08T22:00:00	3	Temperatura mínima	18.8
127396	7	Sololá	713	San Lucas Tolimán	10	San Lucas Tolimán	6	Junio	2023-01-06T00:00:00	2024-11-08T22:00:00	5	Humedad	62
127397	7	Sololá	713	San Lucas Tolimán	10	San Lucas Tolimán	6	Junio	2023-01-06T00:00:00	2024-11-08T22:00:00	6	Velocidad del viento	8
127398	7	Sololá	713	San Lucas Tolimán	10	San Lucas Tolimán	6	Junio	2023-01-06T00:00:00	2024-11-08T22:00:00	7	Dirección del viento	8.05
127399	7	Sololá	713	San Lucas Tolimán	10	San Lucas Tolimán	6	Junio	2023-01-06T00:00:00	2024-11-08T22:00:00	1	Precipitación	0
127400	7	Sololá	713	San Lucas Tolimán	10	San Lucas Tolimán	6	Junio	2023-01-06T00:00:00	2024-11-08T22:00:00	8	Radiación solar	0
127401	7	Sololá	713	San Lucas Tolimán	10	San Lucas Tolimán	6	Junio	2023-01-06T00:00:00	2024-11-08T23:00:00	2	Temperatura media	19
127402	7	Sololá	713	San Lucas Tolimán	10	San Lucas Tolimán	6	Junio	2023-01-06T00:00:00	2024-11-08T23:00:00	4	Temperatura máxima	19.3
127403	7	Sololá	713	San Lucas Tolimán	10	San Lucas Tolimán	6	Junio	2023-01-06T00:00:00	2024-11-08T23:00:00	3	Temperatura mínima	18.9
127404	7	Sololá	713	San Lucas Tolimán	10	San Lucas Tolimán	6	Junio	2023-01-06T00:00:00	2024-11-08T23:00:00	5	Humedad	62
127405	7	Sololá	713	San Lucas Tolimán	10	San Lucas Tolimán	6	Junio	2023-01-06T00:00:00	2024-11-08T23:00:00	6	Velocidad del viento	4.8
127406	7	Sololá	713	San Lucas Tolimán	10	San Lucas Tolimán	6	Junio	2023-01-06T00:00:00	2024-11-08T23:00:00	7	Dirección del viento	4.83
127407	7	Sololá	713	San Lucas Tolimán	10	San Lucas Tolimán	6	Junio	2023-01-06T00:00:00	2024-11-08T23:00:00	1	Precipitación	0
127408	7	Sololá	713	San Lucas Tolimán	10	San Lucas Tolimán	6	Junio	2023-01-06T00:00:00	2024-11-08T23:00:00	8	Radiación solar	0
127409	7	Sololá	713	San Lucas Tolimán	10	San Lucas Tolimán	6	Junio	2023-02-06T00:00:00	2024-11-08T00:00:00	2	Temperatura media	18.7
127410	7	Sololá	713	San Lucas Tolimán	10	San Lucas Tolimán	6	Junio	2023-02-06T00:00:00	2024-11-08T00:00:00	4	Temperatura máxima	19
127411	7	Sololá	713	San Lucas Tolimán	10	San Lucas Tolimán	6	Junio	2023-02-06T00:00:00	2024-11-08T00:00:00	3	Temperatura mínima	18.7
127412	7	Sololá	713	San Lucas Tolimán	10	San Lucas Tolimán	6	Junio	2023-02-06T00:00:00	2024-11-08T00:00:00	5	Humedad	64
127413	7	Sololá	713	San Lucas Tolimán	10	San Lucas Tolimán	6	Junio	2023-02-06T00:00:00	2024-11-08T00:00:00	6	Velocidad del viento	1.6
127414	7	Sololá	713	San Lucas Tolimán	10	San Lucas Tolimán	6	Junio	2023-02-06T00:00:00	2024-11-08T00:00:00	7	Dirección del viento	1.61
127415	7	Sololá	713	San Lucas Tolimán	10	San Lucas Tolimán	6	Junio	2023-02-06T00:00:00	2024-11-08T00:00:00	1	Precipitación	0
127416	7	Sololá	713	San Lucas Tolimán	10	San Lucas Tolimán	6	Junio	2023-02-06T00:00:00	2024-11-08T00:00:00	8	Radiación solar	0
127417	7	Sololá	713	San Lucas Tolimán	10	San Lucas Tolimán	6	Junio	2023-02-06T00:00:00	2024-11-08T01:00:00	2	Temperatura media	18.4
127418	7	Sololá	713	San Lucas Tolimán	10	San Lucas Tolimán	6	Junio	2023-02-06T00:00:00	2024-11-08T01:00:00	4	Temperatura máxima	18.7
127419	7	Sololá	713	San Lucas Tolimán	10	San Lucas Tolimán	6	Junio	2023-02-06T00:00:00	2024-11-08T01:00:00	3	Temperatura mínima	18.4
127420	7	Sololá	713	San Lucas Tolimán	10	San Lucas Tolimán	6	Junio	2023-02-06T00:00:00	2024-11-08T01:00:00	5	Humedad	64
127421	7	Sololá	713	San Lucas Tolimán	10	San Lucas Tolimán	6	Junio	2023-02-06T00:00:00	2024-11-08T01:00:00	6	Velocidad del viento	1.6
127422	7	Sololá	713	San Lucas Tolimán	10	San Lucas Tolimán	6	Junio	2023-02-06T00:00:00	2024-11-08T01:00:00	7	Dirección del viento	1.61
127423	7	Sololá	713	San Lucas Tolimán	10	San Lucas Tolimán	6	Junio	2023-02-06T00:00:00	2024-11-08T01:00:00	1	Precipitación	0
127424	7	Sololá	713	San Lucas Tolimán	10	San Lucas Tolimán	6	Junio	2023-02-06T00:00:00	2024-11-08T01:00:00	8	Radiación solar	0
127425	7	Sololá	713	San Lucas Tolimán	10	San Lucas Tolimán	6	Junio	2023-02-06T00:00:00	2024-11-08T02:00:00	2	Temperatura media	18.6
127426	7	Sololá	713	San Lucas Tolimán	10	San Lucas Tolimán	6	Junio	2023-02-06T00:00:00	2024-11-08T02:00:00	4	Temperatura máxima	18.6
127427	7	Sololá	713	San Lucas Tolimán	10	San Lucas Tolimán	6	Junio	2023-02-06T00:00:00	2024-11-08T02:00:00	3	Temperatura mínima	18.4
127428	7	Sololá	713	San Lucas Tolimán	10	San Lucas Tolimán	6	Junio	2023-02-06T00:00:00	2024-11-08T02:00:00	5	Humedad	64
127429	7	Sololá	713	San Lucas Tolimán	10	San Lucas Tolimán	6	Junio	2023-02-06T00:00:00	2024-11-08T02:00:00	6	Velocidad del viento	0
127430	7	Sololá	713	San Lucas Tolimán	10	San Lucas Tolimán	6	Junio	2023-02-06T00:00:00	2024-11-08T02:00:00	7	Dirección del viento	0
127431	7	Sololá	713	San Lucas Tolimán	10	San Lucas Tolimán	6	Junio	2023-02-06T00:00:00	2024-11-08T02:00:00	1	Precipitación	0
127432	7	Sololá	713	San Lucas Tolimán	10	San Lucas Tolimán	6	Junio	2023-02-06T00:00:00	2024-11-08T02:00:00	8	Radiación solar	0
127433	7	Sololá	713	San Lucas Tolimán	10	San Lucas Tolimán	6	Junio	2023-02-06T00:00:00	2024-11-08T03:00:00	2	Temperatura media	17.9
127434	7	Sololá	713	San Lucas Tolimán	10	San Lucas Tolimán	6	Junio	2023-02-06T00:00:00	2024-11-08T03:00:00	4	Temperatura máxima	18.8
127435	7	Sololá	713	San Lucas Tolimán	10	San Lucas Tolimán	6	Junio	2023-02-06T00:00:00	2024-11-08T03:00:00	3	Temperatura mínima	17.9
127436	7	Sololá	713	San Lucas Tolimán	10	San Lucas Tolimán	6	Junio	2023-02-06T00:00:00	2024-11-08T03:00:00	5	Humedad	64
127437	7	Sololá	713	San Lucas Tolimán	10	San Lucas Tolimán	6	Junio	2023-02-06T00:00:00	2024-11-08T03:00:00	6	Velocidad del viento	3.2
127438	7	Sololá	713	San Lucas Tolimán	10	San Lucas Tolimán	6	Junio	2023-02-06T00:00:00	2024-11-08T03:00:00	7	Dirección del viento	3.22
127439	7	Sololá	713	San Lucas Tolimán	10	San Lucas Tolimán	6	Junio	2023-02-06T00:00:00	2024-11-08T03:00:00	1	Precipitación	0
127440	7	Sololá	713	San Lucas Tolimán	10	San Lucas Tolimán	6	Junio	2023-02-06T00:00:00	2024-11-08T03:00:00	8	Radiación solar	0
127441	7	Sololá	713	San Lucas Tolimán	10	San Lucas Tolimán	6	Junio	2023-02-06T00:00:00	2024-11-08T04:00:00	2	Temperatura media	16.9
127442	7	Sololá	713	San Lucas Tolimán	10	San Lucas Tolimán	6	Junio	2023-02-06T00:00:00	2024-11-08T04:00:00	4	Temperatura máxima	17.9
127443	7	Sololá	713	San Lucas Tolimán	10	San Lucas Tolimán	6	Junio	2023-02-06T00:00:00	2024-11-08T04:00:00	3	Temperatura mínima	16.9
127444	7	Sololá	713	San Lucas Tolimán	10	San Lucas Tolimán	6	Junio	2023-02-06T00:00:00	2024-11-08T04:00:00	5	Humedad	65
127445	7	Sololá	713	San Lucas Tolimán	10	San Lucas Tolimán	6	Junio	2023-02-06T00:00:00	2024-11-08T04:00:00	6	Velocidad del viento	3.2
127446	7	Sololá	713	San Lucas Tolimán	10	San Lucas Tolimán	6	Junio	2023-02-06T00:00:00	2024-11-08T04:00:00	7	Dirección del viento	3.22
127447	7	Sololá	713	San Lucas Tolimán	10	San Lucas Tolimán	6	Junio	2023-02-06T00:00:00	2024-11-08T04:00:00	1	Precipitación	0
127448	7	Sololá	713	San Lucas Tolimán	10	San Lucas Tolimán	6	Junio	2023-02-06T00:00:00	2024-11-08T04:00:00	8	Radiación solar	0
127449	7	Sololá	713	San Lucas Tolimán	10	San Lucas Tolimán	6	Junio	2023-02-06T00:00:00	2024-11-08T05:00:00	2	Temperatura media	16.4
127450	7	Sololá	713	San Lucas Tolimán	10	San Lucas Tolimán	6	Junio	2023-02-06T00:00:00	2024-11-08T05:00:00	4	Temperatura máxima	16.9
127451	7	Sololá	713	San Lucas Tolimán	10	San Lucas Tolimán	6	Junio	2023-02-06T00:00:00	2024-11-08T05:00:00	3	Temperatura mínima	16.3
127452	7	Sololá	713	San Lucas Tolimán	10	San Lucas Tolimán	6	Junio	2023-02-06T00:00:00	2024-11-08T05:00:00	5	Humedad	65
127453	7	Sololá	713	San Lucas Tolimán	10	San Lucas Tolimán	6	Junio	2023-02-06T00:00:00	2024-11-08T05:00:00	6	Velocidad del viento	1.6
127454	7	Sololá	713	San Lucas Tolimán	10	San Lucas Tolimán	6	Junio	2023-02-06T00:00:00	2024-11-08T05:00:00	7	Dirección del viento	1.61
127455	7	Sololá	713	San Lucas Tolimán	10	San Lucas Tolimán	6	Junio	2023-02-06T00:00:00	2024-11-08T05:00:00	1	Precipitación	0
127456	7	Sololá	713	San Lucas Tolimán	10	San Lucas Tolimán	6	Junio	2023-02-06T00:00:00	2024-11-08T05:00:00	8	Radiación solar	0
127457	7	Sololá	713	San Lucas Tolimán	10	San Lucas Tolimán	6	Junio	2023-02-06T00:00:00	2024-11-08T06:00:00	2	Temperatura media	16.4
127458	7	Sololá	713	San Lucas Tolimán	10	San Lucas Tolimán	6	Junio	2023-02-06T00:00:00	2024-11-08T06:00:00	4	Temperatura máxima	16.4
127459	7	Sololá	713	San Lucas Tolimán	10	San Lucas Tolimán	6	Junio	2023-02-06T00:00:00	2024-11-08T06:00:00	3	Temperatura mínima	16.1
127460	7	Sololá	713	San Lucas Tolimán	10	San Lucas Tolimán	6	Junio	2023-02-06T00:00:00	2024-11-08T06:00:00	5	Humedad	65
127461	7	Sololá	713	San Lucas Tolimán	10	San Lucas Tolimán	6	Junio	2023-02-06T00:00:00	2024-11-08T06:00:00	6	Velocidad del viento	1.6
127462	7	Sololá	713	San Lucas Tolimán	10	San Lucas Tolimán	6	Junio	2023-02-06T00:00:00	2024-11-08T06:00:00	7	Dirección del viento	1.61
127463	7	Sololá	713	San Lucas Tolimán	10	San Lucas Tolimán	6	Junio	2023-02-06T00:00:00	2024-11-08T06:00:00	1	Precipitación	0
127464	7	Sololá	713	San Lucas Tolimán	10	San Lucas Tolimán	6	Junio	2023-02-06T00:00:00	2024-11-08T06:00:00	8	Radiación solar	3
127465	7	Sololá	713	San Lucas Tolimán	10	San Lucas Tolimán	6	Junio	2023-02-06T00:00:00	2024-11-08T07:00:00	2	Temperatura media	18.3
127466	7	Sololá	713	San Lucas Tolimán	10	San Lucas Tolimán	6	Junio	2023-02-06T00:00:00	2024-11-08T07:00:00	4	Temperatura máxima	18.3
127467	7	Sololá	713	San Lucas Tolimán	10	San Lucas Tolimán	6	Junio	2023-02-06T00:00:00	2024-11-08T07:00:00	3	Temperatura mínima	16.4
127468	7	Sololá	713	San Lucas Tolimán	10	San Lucas Tolimán	6	Junio	2023-02-06T00:00:00	2024-11-08T07:00:00	5	Humedad	63
127469	7	Sololá	713	San Lucas Tolimán	10	San Lucas Tolimán	6	Junio	2023-02-06T00:00:00	2024-11-08T07:00:00	6	Velocidad del viento	0
127470	7	Sololá	713	San Lucas Tolimán	10	San Lucas Tolimán	6	Junio	2023-02-06T00:00:00	2024-11-08T07:00:00	7	Dirección del viento	0
127471	7	Sololá	713	San Lucas Tolimán	10	San Lucas Tolimán	6	Junio	2023-02-06T00:00:00	2024-11-08T07:00:00	1	Precipitación	0
127472	7	Sololá	713	San Lucas Tolimán	10	San Lucas Tolimán	6	Junio	2023-02-06T00:00:00	2024-11-08T07:00:00	8	Radiación solar	83
127473	7	Sololá	713	San Lucas Tolimán	10	San Lucas Tolimán	6	Junio	2023-02-06T00:00:00	2024-11-08T08:00:00	2	Temperatura media	21
127474	7	Sololá	713	San Lucas Tolimán	10	San Lucas Tolimán	6	Junio	2023-02-06T00:00:00	2024-11-08T08:00:00	4	Temperatura máxima	21
127475	7	Sololá	713	San Lucas Tolimán	10	San Lucas Tolimán	6	Junio	2023-02-06T00:00:00	2024-11-08T08:00:00	3	Temperatura mínima	18.3
127476	7	Sololá	713	San Lucas Tolimán	10	San Lucas Tolimán	6	Junio	2023-02-06T00:00:00	2024-11-08T08:00:00	5	Humedad	59
127477	7	Sololá	713	San Lucas Tolimán	10	San Lucas Tolimán	6	Junio	2023-02-06T00:00:00	2024-11-08T08:00:00	6	Velocidad del viento	3.2
127478	7	Sololá	713	San Lucas Tolimán	10	San Lucas Tolimán	6	Junio	2023-02-06T00:00:00	2024-11-08T08:00:00	7	Dirección del viento	3.22
127479	7	Sololá	713	San Lucas Tolimán	10	San Lucas Tolimán	6	Junio	2023-02-06T00:00:00	2024-11-08T08:00:00	1	Precipitación	0
127480	7	Sololá	713	San Lucas Tolimán	10	San Lucas Tolimán	6	Junio	2023-02-06T00:00:00	2024-11-08T08:00:00	8	Radiación solar	330
127481	7	Sololá	713	San Lucas Tolimán	10	San Lucas Tolimán	6	Junio	2023-02-06T00:00:00	2024-11-08T09:00:00	2	Temperatura media	22.2
127482	7	Sololá	713	San Lucas Tolimán	10	San Lucas Tolimán	6	Junio	2023-02-06T00:00:00	2024-11-08T09:00:00	4	Temperatura máxima	22.2
127483	7	Sololá	713	San Lucas Tolimán	10	San Lucas Tolimán	6	Junio	2023-02-06T00:00:00	2024-11-08T09:00:00	3	Temperatura mínima	21
127484	7	Sololá	713	San Lucas Tolimán	10	San Lucas Tolimán	6	Junio	2023-02-06T00:00:00	2024-11-08T09:00:00	5	Humedad	56
127485	7	Sololá	713	San Lucas Tolimán	10	San Lucas Tolimán	6	Junio	2023-02-06T00:00:00	2024-11-08T09:00:00	6	Velocidad del viento	4.8
127486	7	Sololá	713	San Lucas Tolimán	10	San Lucas Tolimán	6	Junio	2023-02-06T00:00:00	2024-11-08T09:00:00	7	Dirección del viento	4.83
127487	7	Sololá	713	San Lucas Tolimán	10	San Lucas Tolimán	6	Junio	2023-02-06T00:00:00	2024-11-08T09:00:00	1	Precipitación	0
127488	7	Sololá	713	San Lucas Tolimán	10	San Lucas Tolimán	6	Junio	2023-02-06T00:00:00	2024-11-08T09:00:00	8	Radiación solar	589
127489	7	Sololá	713	San Lucas Tolimán	10	San Lucas Tolimán	6	Junio	2023-02-06T00:00:00	2024-11-08T10:00:00	2	Temperatura media	23.4
127490	7	Sololá	713	San Lucas Tolimán	10	San Lucas Tolimán	6	Junio	2023-02-06T00:00:00	2024-11-08T10:00:00	4	Temperatura máxima	23.6
127491	7	Sololá	713	San Lucas Tolimán	10	San Lucas Tolimán	6	Junio	2023-02-06T00:00:00	2024-11-08T10:00:00	3	Temperatura mínima	22.2
127492	7	Sololá	713	San Lucas Tolimán	10	San Lucas Tolimán	6	Junio	2023-02-06T00:00:00	2024-11-08T10:00:00	5	Humedad	57
127493	7	Sololá	713	San Lucas Tolimán	10	San Lucas Tolimán	6	Junio	2023-02-06T00:00:00	2024-11-08T10:00:00	6	Velocidad del viento	6.4
127494	7	Sololá	713	San Lucas Tolimán	10	San Lucas Tolimán	6	Junio	2023-02-06T00:00:00	2024-11-08T10:00:00	7	Dirección del viento	6.44
127495	7	Sololá	713	San Lucas Tolimán	10	San Lucas Tolimán	6	Junio	2023-02-06T00:00:00	2024-11-08T10:00:00	1	Precipitación	0
127496	7	Sololá	713	San Lucas Tolimán	10	San Lucas Tolimán	6	Junio	2023-02-06T00:00:00	2024-11-08T10:00:00	8	Radiación solar	822
127497	7	Sololá	713	San Lucas Tolimán	10	San Lucas Tolimán	6	Junio	2023-02-06T00:00:00	2024-11-08T11:00:00	2	Temperatura media	23.6
127498	7	Sololá	713	San Lucas Tolimán	10	San Lucas Tolimán	6	Junio	2023-02-06T00:00:00	2024-11-08T11:00:00	4	Temperatura máxima	23.6
127499	7	Sololá	713	San Lucas Tolimán	10	San Lucas Tolimán	6	Junio	2023-02-06T00:00:00	2024-11-08T11:00:00	3	Temperatura mínima	23
127500	7	Sololá	713	San Lucas Tolimán	10	San Lucas Tolimán	6	Junio	2023-02-06T00:00:00	2024-11-08T11:00:00	5	Humedad	59
127501	7	Sololá	713	San Lucas Tolimán	10	San Lucas Tolimán	6	Junio	2023-02-06T00:00:00	2024-11-08T11:00:00	6	Velocidad del viento	8
127502	7	Sololá	713	San Lucas Tolimán	10	San Lucas Tolimán	6	Junio	2023-02-06T00:00:00	2024-11-08T11:00:00	7	Dirección del viento	8.05
127503	7	Sololá	713	San Lucas Tolimán	10	San Lucas Tolimán	6	Junio	2023-02-06T00:00:00	2024-11-08T11:00:00	1	Precipitación	0
127504	7	Sololá	713	San Lucas Tolimán	10	San Lucas Tolimán	6	Junio	2023-02-06T00:00:00	2024-11-08T11:00:00	8	Radiación solar	1040
127505	7	Sololá	713	San Lucas Tolimán	10	San Lucas Tolimán	6	Junio	2023-02-06T00:00:00	2024-11-08T12:00:00	2	Temperatura media	23.4
127506	7	Sololá	713	San Lucas Tolimán	10	San Lucas Tolimán	6	Junio	2023-02-06T00:00:00	2024-11-08T12:00:00	4	Temperatura máxima	23.7
127507	7	Sololá	713	San Lucas Tolimán	10	San Lucas Tolimán	6	Junio	2023-02-06T00:00:00	2024-11-08T12:00:00	3	Temperatura mínima	22.5
127508	7	Sololá	713	San Lucas Tolimán	10	San Lucas Tolimán	6	Junio	2023-02-06T00:00:00	2024-11-08T12:00:00	5	Humedad	57
127509	7	Sololá	713	San Lucas Tolimán	10	San Lucas Tolimán	6	Junio	2023-02-06T00:00:00	2024-11-08T12:00:00	6	Velocidad del viento	9.7
127510	7	Sololá	713	San Lucas Tolimán	10	San Lucas Tolimán	6	Junio	2023-02-06T00:00:00	2024-11-08T12:00:00	7	Dirección del viento	9.66
127511	7	Sololá	713	San Lucas Tolimán	10	San Lucas Tolimán	6	Junio	2023-02-06T00:00:00	2024-11-08T12:00:00	1	Precipitación	0
127512	7	Sololá	713	San Lucas Tolimán	10	San Lucas Tolimán	6	Junio	2023-02-06T00:00:00	2024-11-08T12:00:00	8	Radiación solar	970
127513	7	Sololá	713	San Lucas Tolimán	10	San Lucas Tolimán	6	Junio	2023-02-06T00:00:00	2024-11-08T13:00:00	2	Temperatura media	23.1
127514	7	Sololá	713	San Lucas Tolimán	10	San Lucas Tolimán	6	Junio	2023-02-06T00:00:00	2024-11-08T13:00:00	4	Temperatura máxima	24.1
127515	7	Sololá	713	San Lucas Tolimán	10	San Lucas Tolimán	6	Junio	2023-02-06T00:00:00	2024-11-08T13:00:00	3	Temperatura mínima	23.1
127516	7	Sololá	713	San Lucas Tolimán	10	San Lucas Tolimán	6	Junio	2023-02-06T00:00:00	2024-11-08T13:00:00	5	Humedad	60
127517	7	Sololá	713	San Lucas Tolimán	10	San Lucas Tolimán	6	Junio	2023-02-06T00:00:00	2024-11-08T13:00:00	6	Velocidad del viento	9.7
127518	7	Sololá	713	San Lucas Tolimán	10	San Lucas Tolimán	6	Junio	2023-02-06T00:00:00	2024-11-08T13:00:00	7	Dirección del viento	9.66
127519	7	Sololá	713	San Lucas Tolimán	10	San Lucas Tolimán	6	Junio	2023-02-06T00:00:00	2024-11-08T13:00:00	1	Precipitación	0
127520	7	Sololá	713	San Lucas Tolimán	10	San Lucas Tolimán	6	Junio	2023-02-06T00:00:00	2024-11-08T13:00:00	8	Radiación solar	738
127521	7	Sololá	713	San Lucas Tolimán	10	San Lucas Tolimán	6	Junio	2023-02-06T00:00:00	2024-11-08T14:00:00	2	Temperatura media	23.6
127522	7	Sololá	713	San Lucas Tolimán	10	San Lucas Tolimán	6	Junio	2023-02-06T00:00:00	2024-11-08T14:00:00	4	Temperatura máxima	23.9
127523	7	Sololá	713	San Lucas Tolimán	10	San Lucas Tolimán	6	Junio	2023-02-06T00:00:00	2024-11-08T14:00:00	3	Temperatura mínima	22.7
127524	7	Sololá	713	San Lucas Tolimán	10	San Lucas Tolimán	6	Junio	2023-02-06T00:00:00	2024-11-08T14:00:00	5	Humedad	60
127525	7	Sololá	713	San Lucas Tolimán	10	San Lucas Tolimán	6	Junio	2023-02-06T00:00:00	2024-11-08T14:00:00	6	Velocidad del viento	8
127526	7	Sololá	713	San Lucas Tolimán	10	San Lucas Tolimán	6	Junio	2023-02-06T00:00:00	2024-11-08T14:00:00	7	Dirección del viento	8.05
127527	7	Sololá	713	San Lucas Tolimán	10	San Lucas Tolimán	6	Junio	2023-02-06T00:00:00	2024-11-08T14:00:00	1	Precipitación	0
127528	7	Sololá	713	San Lucas Tolimán	10	San Lucas Tolimán	6	Junio	2023-02-06T00:00:00	2024-11-08T14:00:00	8	Radiación solar	809
127529	7	Sololá	713	San Lucas Tolimán	10	San Lucas Tolimán	6	Junio	2023-02-06T00:00:00	2024-11-08T15:00:00	2	Temperatura media	23
127530	7	Sololá	713	San Lucas Tolimán	10	San Lucas Tolimán	6	Junio	2023-02-06T00:00:00	2024-11-08T15:00:00	4	Temperatura máxima	23.9
127531	7	Sololá	713	San Lucas Tolimán	10	San Lucas Tolimán	6	Junio	2023-02-06T00:00:00	2024-11-08T15:00:00	3	Temperatura mínima	22.8
127532	7	Sololá	713	San Lucas Tolimán	10	San Lucas Tolimán	6	Junio	2023-02-06T00:00:00	2024-11-08T15:00:00	5	Humedad	60
127533	7	Sololá	713	San Lucas Tolimán	10	San Lucas Tolimán	6	Junio	2023-02-06T00:00:00	2024-11-08T15:00:00	6	Velocidad del viento	8
127534	7	Sololá	713	San Lucas Tolimán	10	San Lucas Tolimán	6	Junio	2023-02-06T00:00:00	2024-11-08T15:00:00	7	Dirección del viento	8.05
127535	7	Sololá	713	San Lucas Tolimán	10	San Lucas Tolimán	6	Junio	2023-02-06T00:00:00	2024-11-08T15:00:00	1	Precipitación	0
127536	7	Sololá	713	San Lucas Tolimán	10	San Lucas Tolimán	6	Junio	2023-02-06T00:00:00	2024-11-08T15:00:00	8	Radiación solar	699
127537	7	Sololá	713	San Lucas Tolimán	10	San Lucas Tolimán	6	Junio	2023-02-06T00:00:00	2024-11-08T16:00:00	2	Temperatura media	22.4
127538	7	Sololá	713	San Lucas Tolimán	10	San Lucas Tolimán	6	Junio	2023-02-06T00:00:00	2024-11-08T16:00:00	4	Temperatura máxima	23.1
127539	7	Sololá	713	San Lucas Tolimán	10	San Lucas Tolimán	6	Junio	2023-02-06T00:00:00	2024-11-08T16:00:00	3	Temperatura mínima	22.3
127540	7	Sololá	713	San Lucas Tolimán	10	San Lucas Tolimán	6	Junio	2023-02-06T00:00:00	2024-11-08T16:00:00	5	Humedad	62
127541	7	Sololá	713	San Lucas Tolimán	10	San Lucas Tolimán	6	Junio	2023-02-06T00:00:00	2024-11-08T16:00:00	6	Velocidad del viento	8
127542	7	Sololá	713	San Lucas Tolimán	10	San Lucas Tolimán	6	Junio	2023-02-06T00:00:00	2024-11-08T16:00:00	7	Dirección del viento	8.05
127543	7	Sololá	713	San Lucas Tolimán	10	San Lucas Tolimán	6	Junio	2023-02-06T00:00:00	2024-11-08T16:00:00	1	Precipitación	0
127544	7	Sololá	713	San Lucas Tolimán	10	San Lucas Tolimán	6	Junio	2023-02-06T00:00:00	2024-11-08T16:00:00	8	Radiación solar	407
127545	7	Sololá	713	San Lucas Tolimán	10	San Lucas Tolimán	6	Junio	2023-02-06T00:00:00	2024-11-08T17:00:00	2	Temperatura media	21.8
127546	7	Sololá	713	San Lucas Tolimán	10	San Lucas Tolimán	6	Junio	2023-02-06T00:00:00	2024-11-08T17:00:00	4	Temperatura máxima	23.1
127547	7	Sololá	713	San Lucas Tolimán	10	San Lucas Tolimán	6	Junio	2023-02-06T00:00:00	2024-11-08T17:00:00	3	Temperatura mínima	21.8
127548	7	Sololá	713	San Lucas Tolimán	10	San Lucas Tolimán	6	Junio	2023-02-06T00:00:00	2024-11-08T17:00:00	5	Humedad	64
127549	7	Sololá	713	San Lucas Tolimán	10	San Lucas Tolimán	6	Junio	2023-02-06T00:00:00	2024-11-08T17:00:00	6	Velocidad del viento	8
127550	7	Sololá	713	San Lucas Tolimán	10	San Lucas Tolimán	6	Junio	2023-02-06T00:00:00	2024-11-08T17:00:00	7	Dirección del viento	8.05
127551	7	Sololá	713	San Lucas Tolimán	10	San Lucas Tolimán	6	Junio	2023-02-06T00:00:00	2024-11-08T17:00:00	1	Precipitación	0
127552	7	Sololá	713	San Lucas Tolimán	10	San Lucas Tolimán	6	Junio	2023-02-06T00:00:00	2024-11-08T17:00:00	8	Radiación solar	255
127553	7	Sololá	713	San Lucas Tolimán	10	San Lucas Tolimán	6	Junio	2023-02-06T00:00:00	2024-11-08T18:00:00	2	Temperatura media	21.2
127554	7	Sololá	713	San Lucas Tolimán	10	San Lucas Tolimán	6	Junio	2023-02-06T00:00:00	2024-11-08T18:00:00	4	Temperatura máxima	22.1
127555	7	Sololá	713	San Lucas Tolimán	10	San Lucas Tolimán	6	Junio	2023-02-06T00:00:00	2024-11-08T18:00:00	3	Temperatura mínima	21.1
127556	7	Sololá	713	San Lucas Tolimán	10	San Lucas Tolimán	6	Junio	2023-02-06T00:00:00	2024-11-08T18:00:00	5	Humedad	64
127557	7	Sololá	713	San Lucas Tolimán	10	San Lucas Tolimán	6	Junio	2023-02-06T00:00:00	2024-11-08T18:00:00	6	Velocidad del viento	6.4
127558	7	Sololá	713	San Lucas Tolimán	10	San Lucas Tolimán	6	Junio	2023-02-06T00:00:00	2024-11-08T18:00:00	7	Dirección del viento	6.44
127559	7	Sololá	713	San Lucas Tolimán	10	San Lucas Tolimán	6	Junio	2023-02-06T00:00:00	2024-11-08T18:00:00	1	Precipitación	0
127560	7	Sololá	713	San Lucas Tolimán	10	San Lucas Tolimán	6	Junio	2023-02-06T00:00:00	2024-11-08T18:00:00	8	Radiación solar	62
127561	7	Sololá	713	San Lucas Tolimán	10	San Lucas Tolimán	6	Junio	2023-02-06T00:00:00	2024-11-08T19:00:00	2	Temperatura media	20.4
127562	7	Sololá	713	San Lucas Tolimán	10	San Lucas Tolimán	6	Junio	2023-02-06T00:00:00	2024-11-08T19:00:00	4	Temperatura máxima	21.3
127563	7	Sololá	713	San Lucas Tolimán	10	San Lucas Tolimán	6	Junio	2023-02-06T00:00:00	2024-11-08T19:00:00	3	Temperatura mínima	20.3
127564	7	Sololá	713	San Lucas Tolimán	10	San Lucas Tolimán	6	Junio	2023-02-06T00:00:00	2024-11-08T19:00:00	5	Humedad	64
127565	7	Sololá	713	San Lucas Tolimán	10	San Lucas Tolimán	6	Junio	2023-02-06T00:00:00	2024-11-08T19:00:00	6	Velocidad del viento	4.8
127566	7	Sololá	713	San Lucas Tolimán	10	San Lucas Tolimán	6	Junio	2023-02-06T00:00:00	2024-11-08T19:00:00	7	Dirección del viento	4.83
127567	7	Sololá	713	San Lucas Tolimán	10	San Lucas Tolimán	6	Junio	2023-02-06T00:00:00	2024-11-08T19:00:00	1	Precipitación	0
127568	7	Sololá	713	San Lucas Tolimán	10	San Lucas Tolimán	6	Junio	2023-02-06T00:00:00	2024-11-08T19:00:00	8	Radiación solar	0
127569	7	Sololá	713	San Lucas Tolimán	10	San Lucas Tolimán	6	Junio	2023-02-06T00:00:00	2024-11-08T20:00:00	2	Temperatura media	19.7
127570	7	Sololá	713	San Lucas Tolimán	10	San Lucas Tolimán	6	Junio	2023-02-06T00:00:00	2024-11-08T20:00:00	4	Temperatura máxima	20.4
127571	7	Sololá	713	San Lucas Tolimán	10	San Lucas Tolimán	6	Junio	2023-02-06T00:00:00	2024-11-08T20:00:00	3	Temperatura mínima	19.7
127572	7	Sololá	713	San Lucas Tolimán	10	San Lucas Tolimán	6	Junio	2023-02-06T00:00:00	2024-11-08T20:00:00	5	Humedad	63
127573	7	Sololá	713	San Lucas Tolimán	10	San Lucas Tolimán	6	Junio	2023-02-06T00:00:00	2024-11-08T20:00:00	6	Velocidad del viento	3.2
127574	7	Sololá	713	San Lucas Tolimán	10	San Lucas Tolimán	6	Junio	2023-02-06T00:00:00	2024-11-08T20:00:00	7	Dirección del viento	3.22
127575	7	Sololá	713	San Lucas Tolimán	10	San Lucas Tolimán	6	Junio	2023-02-06T00:00:00	2024-11-08T20:00:00	1	Precipitación	0
127576	7	Sololá	713	San Lucas Tolimán	10	San Lucas Tolimán	6	Junio	2023-02-06T00:00:00	2024-11-08T20:00:00	8	Radiación solar	0
127577	7	Sololá	713	San Lucas Tolimán	10	San Lucas Tolimán	6	Junio	2023-02-06T00:00:00	2024-11-08T21:00:00	2	Temperatura media	19.8
127578	7	Sololá	713	San Lucas Tolimán	10	San Lucas Tolimán	6	Junio	2023-02-06T00:00:00	2024-11-08T21:00:00	4	Temperatura máxima	19.9
127579	7	Sololá	713	San Lucas Tolimán	10	San Lucas Tolimán	6	Junio	2023-02-06T00:00:00	2024-11-08T21:00:00	3	Temperatura mínima	19.5
127580	7	Sololá	713	San Lucas Tolimán	10	San Lucas Tolimán	6	Junio	2023-02-06T00:00:00	2024-11-08T21:00:00	5	Humedad	64
127581	7	Sololá	713	San Lucas Tolimán	10	San Lucas Tolimán	6	Junio	2023-02-06T00:00:00	2024-11-08T21:00:00	6	Velocidad del viento	4.8
127582	7	Sololá	713	San Lucas Tolimán	10	San Lucas Tolimán	6	Junio	2023-02-06T00:00:00	2024-11-08T21:00:00	7	Dirección del viento	4.83
127583	7	Sololá	713	San Lucas Tolimán	10	San Lucas Tolimán	6	Junio	2023-02-06T00:00:00	2024-11-08T21:00:00	1	Precipitación	0
127584	7	Sololá	713	San Lucas Tolimán	10	San Lucas Tolimán	6	Junio	2023-02-06T00:00:00	2024-11-08T21:00:00	8	Radiación solar	0
127585	7	Sololá	713	San Lucas Tolimán	10	San Lucas Tolimán	6	Junio	2023-02-06T00:00:00	2024-11-08T22:00:00	2	Temperatura media	19.4
127586	7	Sololá	713	San Lucas Tolimán	10	San Lucas Tolimán	6	Junio	2023-02-06T00:00:00	2024-11-08T22:00:00	4	Temperatura máxima	19.9
127587	7	Sololá	713	San Lucas Tolimán	10	San Lucas Tolimán	6	Junio	2023-02-06T00:00:00	2024-11-08T22:00:00	3	Temperatura mínima	19.4
127588	7	Sololá	713	San Lucas Tolimán	10	San Lucas Tolimán	6	Junio	2023-02-06T00:00:00	2024-11-08T22:00:00	5	Humedad	63
127589	7	Sololá	713	San Lucas Tolimán	10	San Lucas Tolimán	6	Junio	2023-02-06T00:00:00	2024-11-08T22:00:00	6	Velocidad del viento	1.6
127590	7	Sololá	713	San Lucas Tolimán	10	San Lucas Tolimán	6	Junio	2023-02-06T00:00:00	2024-11-08T22:00:00	7	Dirección del viento	1.61
127591	7	Sololá	713	San Lucas Tolimán	10	San Lucas Tolimán	6	Junio	2023-02-06T00:00:00	2024-11-08T22:00:00	1	Precipitación	0
127592	7	Sololá	713	San Lucas Tolimán	10	San Lucas Tolimán	6	Junio	2023-02-06T00:00:00	2024-11-08T22:00:00	8	Radiación solar	0
127593	7	Sololá	713	San Lucas Tolimán	10	San Lucas Tolimán	6	Junio	2023-02-06T00:00:00	2024-11-08T23:00:00	2	Temperatura media	19.1
127594	7	Sololá	713	San Lucas Tolimán	10	San Lucas Tolimán	6	Junio	2023-02-06T00:00:00	2024-11-08T23:00:00	4	Temperatura máxima	19.4
127595	7	Sololá	713	San Lucas Tolimán	10	San Lucas Tolimán	6	Junio	2023-02-06T00:00:00	2024-11-08T23:00:00	3	Temperatura mínima	19.1
127596	7	Sololá	713	San Lucas Tolimán	10	San Lucas Tolimán	6	Junio	2023-02-06T00:00:00	2024-11-08T23:00:00	5	Humedad	64
127597	7	Sololá	713	San Lucas Tolimán	10	San Lucas Tolimán	6	Junio	2023-02-06T00:00:00	2024-11-08T23:00:00	6	Velocidad del viento	3.2
127598	7	Sololá	713	San Lucas Tolimán	10	San Lucas Tolimán	6	Junio	2023-02-06T00:00:00	2024-11-08T23:00:00	7	Dirección del viento	3.22
127599	7	Sololá	713	San Lucas Tolimán	10	San Lucas Tolimán	6	Junio	2023-02-06T00:00:00	2024-11-08T23:00:00	1	Precipitación	0
127600	7	Sololá	713	San Lucas Tolimán	10	San Lucas Tolimán	6	Junio	2023-02-06T00:00:00	2024-11-08T23:00:00	8	Radiación solar	0
127601	7	Sololá	713	San Lucas Tolimán	10	San Lucas Tolimán	6	Junio	2023-03-06T00:00:00	2024-11-08T00:00:00	2	Temperatura media	19.1
127602	7	Sololá	713	San Lucas Tolimán	10	San Lucas Tolimán	6	Junio	2023-03-06T00:00:00	2024-11-08T00:00:00	4	Temperatura máxima	19.4
127603	7	Sololá	713	San Lucas Tolimán	10	San Lucas Tolimán	6	Junio	2023-03-06T00:00:00	2024-11-08T00:00:00	3	Temperatura mínima	19.1
127604	7	Sololá	713	San Lucas Tolimán	10	San Lucas Tolimán	6	Junio	2023-03-06T00:00:00	2024-11-08T00:00:00	5	Humedad	64
127605	7	Sololá	713	San Lucas Tolimán	10	San Lucas Tolimán	6	Junio	2023-03-06T00:00:00	2024-11-08T00:00:00	6	Velocidad del viento	3.2
127606	7	Sololá	713	San Lucas Tolimán	10	San Lucas Tolimán	6	Junio	2023-03-06T00:00:00	2024-11-08T00:00:00	7	Dirección del viento	3.22
127607	7	Sololá	713	San Lucas Tolimán	10	San Lucas Tolimán	6	Junio	2023-03-06T00:00:00	2024-11-08T00:00:00	1	Precipitación	0
127608	7	Sololá	713	San Lucas Tolimán	10	San Lucas Tolimán	6	Junio	2023-03-06T00:00:00	2024-11-08T00:00:00	8	Radiación solar	0
127609	7	Sololá	713	San Lucas Tolimán	10	San Lucas Tolimán	6	Junio	2023-03-06T00:00:00	2024-11-08T01:00:00	2	Temperatura media	18.6
127610	7	Sololá	713	San Lucas Tolimán	10	San Lucas Tolimán	6	Junio	2023-03-06T00:00:00	2024-11-08T01:00:00	4	Temperatura máxima	19.1
127611	7	Sololá	713	San Lucas Tolimán	10	San Lucas Tolimán	6	Junio	2023-03-06T00:00:00	2024-11-08T01:00:00	3	Temperatura mínima	18.5
127612	7	Sololá	713	San Lucas Tolimán	10	San Lucas Tolimán	6	Junio	2023-03-06T00:00:00	2024-11-08T01:00:00	5	Humedad	65
127613	7	Sololá	713	San Lucas Tolimán	10	San Lucas Tolimán	6	Junio	2023-03-06T00:00:00	2024-11-08T01:00:00	6	Velocidad del viento	1.6
127614	7	Sololá	713	San Lucas Tolimán	10	San Lucas Tolimán	6	Junio	2023-03-06T00:00:00	2024-11-08T01:00:00	7	Dirección del viento	1.61
127615	7	Sololá	713	San Lucas Tolimán	10	San Lucas Tolimán	6	Junio	2023-03-06T00:00:00	2024-11-08T01:00:00	1	Precipitación	0
127616	7	Sololá	713	San Lucas Tolimán	10	San Lucas Tolimán	6	Junio	2023-03-06T00:00:00	2024-11-08T01:00:00	8	Radiación solar	0
127617	7	Sololá	713	San Lucas Tolimán	10	San Lucas Tolimán	6	Junio	2023-03-06T00:00:00	2024-11-08T02:00:00	2	Temperatura media	18.6
127618	7	Sololá	713	San Lucas Tolimán	10	San Lucas Tolimán	6	Junio	2023-03-06T00:00:00	2024-11-08T02:00:00	4	Temperatura máxima	18.6
127619	7	Sololá	713	San Lucas Tolimán	10	San Lucas Tolimán	6	Junio	2023-03-06T00:00:00	2024-11-08T02:00:00	3	Temperatura mínima	18.4
127620	7	Sololá	713	San Lucas Tolimán	10	San Lucas Tolimán	6	Junio	2023-03-06T00:00:00	2024-11-08T02:00:00	5	Humedad	65
127621	7	Sololá	713	San Lucas Tolimán	10	San Lucas Tolimán	6	Junio	2023-03-06T00:00:00	2024-11-08T02:00:00	6	Velocidad del viento	1.6
127622	7	Sololá	713	San Lucas Tolimán	10	San Lucas Tolimán	6	Junio	2023-03-06T00:00:00	2024-11-08T02:00:00	7	Dirección del viento	1.61
127623	7	Sololá	713	San Lucas Tolimán	10	San Lucas Tolimán	6	Junio	2023-03-06T00:00:00	2024-11-08T02:00:00	1	Precipitación	0
127624	7	Sololá	713	San Lucas Tolimán	10	San Lucas Tolimán	6	Junio	2023-03-06T00:00:00	2024-11-08T02:00:00	8	Radiación solar	0
127625	7	Sololá	713	San Lucas Tolimán	10	San Lucas Tolimán	6	Junio	2023-03-06T00:00:00	2024-11-08T03:00:00	2	Temperatura media	18.2
127626	7	Sololá	713	San Lucas Tolimán	10	San Lucas Tolimán	6	Junio	2023-03-06T00:00:00	2024-11-08T03:00:00	4	Temperatura máxima	18.6
127627	7	Sololá	713	San Lucas Tolimán	10	San Lucas Tolimán	6	Junio	2023-03-06T00:00:00	2024-11-08T03:00:00	3	Temperatura mínima	17.9
127628	7	Sololá	713	San Lucas Tolimán	10	San Lucas Tolimán	6	Junio	2023-03-06T00:00:00	2024-11-08T03:00:00	5	Humedad	66
127629	7	Sololá	713	San Lucas Tolimán	10	San Lucas Tolimán	6	Junio	2023-03-06T00:00:00	2024-11-08T03:00:00	6	Velocidad del viento	1.6
127630	7	Sololá	713	San Lucas Tolimán	10	San Lucas Tolimán	6	Junio	2023-03-06T00:00:00	2024-11-08T03:00:00	7	Dirección del viento	1.61
127631	7	Sololá	713	San Lucas Tolimán	10	San Lucas Tolimán	6	Junio	2023-03-06T00:00:00	2024-11-08T03:00:00	1	Precipitación	0
127632	7	Sololá	713	San Lucas Tolimán	10	San Lucas Tolimán	6	Junio	2023-03-06T00:00:00	2024-11-08T03:00:00	8	Radiación solar	0
127633	7	Sololá	713	San Lucas Tolimán	10	San Lucas Tolimán	6	Junio	2023-03-06T00:00:00	2024-11-08T04:00:00	2	Temperatura media	17.6
127634	7	Sololá	713	San Lucas Tolimán	10	San Lucas Tolimán	6	Junio	2023-03-06T00:00:00	2024-11-08T04:00:00	4	Temperatura máxima	18.3
127635	7	Sololá	713	San Lucas Tolimán	10	San Lucas Tolimán	6	Junio	2023-03-06T00:00:00	2024-11-08T04:00:00	3	Temperatura mínima	17.5
127636	7	Sololá	713	San Lucas Tolimán	10	San Lucas Tolimán	6	Junio	2023-03-06T00:00:00	2024-11-08T04:00:00	5	Humedad	65
127637	7	Sololá	713	San Lucas Tolimán	10	San Lucas Tolimán	6	Junio	2023-03-06T00:00:00	2024-11-08T04:00:00	6	Velocidad del viento	3.2
127638	7	Sololá	713	San Lucas Tolimán	10	San Lucas Tolimán	6	Junio	2023-03-06T00:00:00	2024-11-08T04:00:00	7	Dirección del viento	3.22
127639	7	Sololá	713	San Lucas Tolimán	10	San Lucas Tolimán	6	Junio	2023-03-06T00:00:00	2024-11-08T04:00:00	1	Precipitación	0
127640	7	Sololá	713	San Lucas Tolimán	10	San Lucas Tolimán	6	Junio	2023-03-06T00:00:00	2024-11-08T04:00:00	8	Radiación solar	0
127641	7	Sololá	713	San Lucas Tolimán	10	San Lucas Tolimán	6	Junio	2023-03-06T00:00:00	2024-11-08T05:00:00	2	Temperatura media	17.3
127642	7	Sololá	713	San Lucas Tolimán	10	San Lucas Tolimán	6	Junio	2023-03-06T00:00:00	2024-11-08T05:00:00	4	Temperatura máxima	17.7
127643	7	Sololá	713	San Lucas Tolimán	10	San Lucas Tolimán	6	Junio	2023-03-06T00:00:00	2024-11-08T05:00:00	3	Temperatura mínima	17.2
127644	7	Sololá	713	San Lucas Tolimán	10	San Lucas Tolimán	6	Junio	2023-03-06T00:00:00	2024-11-08T05:00:00	5	Humedad	64
127645	7	Sololá	713	San Lucas Tolimán	10	San Lucas Tolimán	6	Junio	2023-03-06T00:00:00	2024-11-08T05:00:00	6	Velocidad del viento	1.6
127646	7	Sololá	713	San Lucas Tolimán	10	San Lucas Tolimán	6	Junio	2023-03-06T00:00:00	2024-11-08T05:00:00	7	Dirección del viento	1.61
127647	7	Sololá	713	San Lucas Tolimán	10	San Lucas Tolimán	6	Junio	2023-03-06T00:00:00	2024-11-08T05:00:00	1	Precipitación	0
127648	7	Sololá	713	San Lucas Tolimán	10	San Lucas Tolimán	6	Junio	2023-03-06T00:00:00	2024-11-08T05:00:00	8	Radiación solar	0
127649	7	Sololá	713	San Lucas Tolimán	10	San Lucas Tolimán	6	Junio	2023-03-06T00:00:00	2024-11-08T06:00:00	2	Temperatura media	17.1
127650	7	Sololá	713	San Lucas Tolimán	10	San Lucas Tolimán	6	Junio	2023-03-06T00:00:00	2024-11-08T06:00:00	4	Temperatura máxima	17.2
127651	7	Sololá	713	San Lucas Tolimán	10	San Lucas Tolimán	6	Junio	2023-03-06T00:00:00	2024-11-08T06:00:00	3	Temperatura mínima	16.9
127652	7	Sololá	713	San Lucas Tolimán	10	San Lucas Tolimán	6	Junio	2023-03-06T00:00:00	2024-11-08T06:00:00	5	Humedad	66
127653	7	Sololá	713	San Lucas Tolimán	10	San Lucas Tolimán	6	Junio	2023-03-06T00:00:00	2024-11-08T06:00:00	6	Velocidad del viento	1.6
127654	7	Sololá	713	San Lucas Tolimán	10	San Lucas Tolimán	6	Junio	2023-03-06T00:00:00	2024-11-08T06:00:00	7	Dirección del viento	1.61
127655	7	Sololá	713	San Lucas Tolimán	10	San Lucas Tolimán	6	Junio	2023-03-06T00:00:00	2024-11-08T06:00:00	1	Precipitación	0
127656	7	Sololá	713	San Lucas Tolimán	10	San Lucas Tolimán	6	Junio	2023-03-06T00:00:00	2024-11-08T06:00:00	8	Radiación solar	7
127657	7	Sololá	713	San Lucas Tolimán	10	San Lucas Tolimán	6	Junio	2023-03-06T00:00:00	2024-11-08T07:00:00	2	Temperatura media	19.3
127658	7	Sololá	713	San Lucas Tolimán	10	San Lucas Tolimán	6	Junio	2023-03-06T00:00:00	2024-11-08T07:00:00	4	Temperatura máxima	19.3
127659	7	Sololá	713	San Lucas Tolimán	10	San Lucas Tolimán	6	Junio	2023-03-06T00:00:00	2024-11-08T07:00:00	3	Temperatura mínima	17.1
127660	7	Sololá	713	San Lucas Tolimán	10	San Lucas Tolimán	6	Junio	2023-03-06T00:00:00	2024-11-08T07:00:00	5	Humedad	62
127661	7	Sololá	713	San Lucas Tolimán	10	San Lucas Tolimán	6	Junio	2023-03-06T00:00:00	2024-11-08T07:00:00	6	Velocidad del viento	1.6
127662	7	Sololá	713	San Lucas Tolimán	10	San Lucas Tolimán	6	Junio	2023-03-06T00:00:00	2024-11-08T07:00:00	7	Dirección del viento	1.61
127663	7	Sololá	713	San Lucas Tolimán	10	San Lucas Tolimán	6	Junio	2023-03-06T00:00:00	2024-11-08T07:00:00	1	Precipitación	0
127664	7	Sololá	713	San Lucas Tolimán	10	San Lucas Tolimán	6	Junio	2023-03-06T00:00:00	2024-11-08T07:00:00	8	Radiación solar	109
127665	7	Sololá	713	San Lucas Tolimán	10	San Lucas Tolimán	6	Junio	2023-03-06T00:00:00	2024-11-08T08:00:00	2	Temperatura media	21.4
127666	7	Sololá	713	San Lucas Tolimán	10	San Lucas Tolimán	6	Junio	2023-03-06T00:00:00	2024-11-08T08:00:00	4	Temperatura máxima	21.4
127667	7	Sololá	713	San Lucas Tolimán	10	San Lucas Tolimán	6	Junio	2023-03-06T00:00:00	2024-11-08T08:00:00	3	Temperatura mínima	19.3
127668	7	Sololá	713	San Lucas Tolimán	10	San Lucas Tolimán	6	Junio	2023-03-06T00:00:00	2024-11-08T08:00:00	5	Humedad	59
127669	7	Sololá	713	San Lucas Tolimán	10	San Lucas Tolimán	6	Junio	2023-03-06T00:00:00	2024-11-08T08:00:00	6	Velocidad del viento	4.8
127670	7	Sololá	713	San Lucas Tolimán	10	San Lucas Tolimán	6	Junio	2023-03-06T00:00:00	2024-11-08T08:00:00	7	Dirección del viento	4.83
127671	7	Sololá	713	San Lucas Tolimán	10	San Lucas Tolimán	6	Junio	2023-03-06T00:00:00	2024-11-08T08:00:00	1	Precipitación	0
127672	7	Sololá	713	San Lucas Tolimán	10	San Lucas Tolimán	6	Junio	2023-03-06T00:00:00	2024-11-08T08:00:00	8	Radiación solar	324
127673	7	Sololá	713	San Lucas Tolimán	10	San Lucas Tolimán	6	Junio	2023-03-06T00:00:00	2024-11-08T09:00:00	2	Temperatura media	22.8
127674	7	Sololá	713	San Lucas Tolimán	10	San Lucas Tolimán	6	Junio	2023-03-06T00:00:00	2024-11-08T09:00:00	4	Temperatura máxima	22.8
127675	7	Sololá	713	San Lucas Tolimán	10	San Lucas Tolimán	6	Junio	2023-03-06T00:00:00	2024-11-08T09:00:00	3	Temperatura mínima	21.4
127676	7	Sololá	713	San Lucas Tolimán	10	San Lucas Tolimán	6	Junio	2023-03-06T00:00:00	2024-11-08T09:00:00	5	Humedad	59
127677	7	Sololá	713	San Lucas Tolimán	10	San Lucas Tolimán	6	Junio	2023-03-06T00:00:00	2024-11-08T09:00:00	6	Velocidad del viento	3.2
127678	7	Sololá	713	San Lucas Tolimán	10	San Lucas Tolimán	6	Junio	2023-03-06T00:00:00	2024-11-08T09:00:00	7	Dirección del viento	3.22
127679	7	Sololá	713	San Lucas Tolimán	10	San Lucas Tolimán	6	Junio	2023-03-06T00:00:00	2024-11-08T09:00:00	1	Precipitación	0
127680	7	Sololá	713	San Lucas Tolimán	10	San Lucas Tolimán	6	Junio	2023-03-06T00:00:00	2024-11-08T09:00:00	8	Radiación solar	457
127681	7	Sololá	713	San Lucas Tolimán	10	San Lucas Tolimán	6	Junio	2023-03-06T00:00:00	2024-11-08T10:00:00	2	Temperatura media	23.9
127682	7	Sololá	713	San Lucas Tolimán	10	San Lucas Tolimán	6	Junio	2023-03-06T00:00:00	2024-11-08T10:00:00	4	Temperatura máxima	24.1
127683	7	Sololá	713	San Lucas Tolimán	10	San Lucas Tolimán	6	Junio	2023-03-06T00:00:00	2024-11-08T10:00:00	3	Temperatura mínima	22.8
127684	7	Sololá	713	San Lucas Tolimán	10	San Lucas Tolimán	6	Junio	2023-03-06T00:00:00	2024-11-08T10:00:00	5	Humedad	58
127685	7	Sololá	713	San Lucas Tolimán	10	San Lucas Tolimán	6	Junio	2023-03-06T00:00:00	2024-11-08T10:00:00	6	Velocidad del viento	6.4
127686	7	Sololá	713	San Lucas Tolimán	10	San Lucas Tolimán	6	Junio	2023-03-06T00:00:00	2024-11-08T10:00:00	7	Dirección del viento	6.44
127687	7	Sololá	713	San Lucas Tolimán	10	San Lucas Tolimán	6	Junio	2023-03-06T00:00:00	2024-11-08T10:00:00	1	Precipitación	0
127688	7	Sololá	713	San Lucas Tolimán	10	San Lucas Tolimán	6	Junio	2023-03-06T00:00:00	2024-11-08T10:00:00	8	Radiación solar	795
127689	7	Sololá	713	San Lucas Tolimán	10	San Lucas Tolimán	6	Junio	2023-03-06T00:00:00	2024-11-08T11:00:00	2	Temperatura media	24.7
127690	7	Sololá	713	San Lucas Tolimán	10	San Lucas Tolimán	6	Junio	2023-03-06T00:00:00	2024-11-08T11:00:00	4	Temperatura máxima	24.8
127691	7	Sololá	713	San Lucas Tolimán	10	San Lucas Tolimán	6	Junio	2023-03-06T00:00:00	2024-11-08T11:00:00	3	Temperatura mínima	23.5
127692	7	Sololá	713	San Lucas Tolimán	10	San Lucas Tolimán	6	Junio	2023-03-06T00:00:00	2024-11-08T11:00:00	5	Humedad	55
127693	7	Sololá	713	San Lucas Tolimán	10	San Lucas Tolimán	6	Junio	2023-03-06T00:00:00	2024-11-08T11:00:00	6	Velocidad del viento	8
127694	7	Sololá	713	San Lucas Tolimán	10	San Lucas Tolimán	6	Junio	2023-03-06T00:00:00	2024-11-08T11:00:00	7	Dirección del viento	8.05
127695	7	Sololá	713	San Lucas Tolimán	10	San Lucas Tolimán	6	Junio	2023-03-06T00:00:00	2024-11-08T11:00:00	1	Precipitación	0
127696	7	Sololá	713	San Lucas Tolimán	10	San Lucas Tolimán	6	Junio	2023-03-06T00:00:00	2024-11-08T11:00:00	8	Radiación solar	947
127697	7	Sololá	713	San Lucas Tolimán	10	San Lucas Tolimán	6	Junio	2023-03-06T00:00:00	2024-11-08T12:00:00	2	Temperatura media	23.5
127698	7	Sololá	713	San Lucas Tolimán	10	San Lucas Tolimán	6	Junio	2023-03-06T00:00:00	2024-11-08T12:00:00	4	Temperatura máxima	24.9
127699	7	Sololá	713	San Lucas Tolimán	10	San Lucas Tolimán	6	Junio	2023-03-06T00:00:00	2024-11-08T12:00:00	3	Temperatura mínima	23.5
127700	7	Sololá	713	San Lucas Tolimán	10	San Lucas Tolimán	6	Junio	2023-03-06T00:00:00	2024-11-08T12:00:00	5	Humedad	60
127701	7	Sololá	713	San Lucas Tolimán	10	San Lucas Tolimán	6	Junio	2023-03-06T00:00:00	2024-11-08T12:00:00	6	Velocidad del viento	11.3
127702	7	Sololá	713	San Lucas Tolimán	10	San Lucas Tolimán	6	Junio	2023-03-06T00:00:00	2024-11-08T12:00:00	7	Dirección del viento	11.27
127703	7	Sololá	713	San Lucas Tolimán	10	San Lucas Tolimán	6	Junio	2023-03-06T00:00:00	2024-11-08T12:00:00	1	Precipitación	0
127704	7	Sololá	713	San Lucas Tolimán	10	San Lucas Tolimán	6	Junio	2023-03-06T00:00:00	2024-11-08T12:00:00	8	Radiación solar	1057
127705	7	Sololá	713	San Lucas Tolimán	10	San Lucas Tolimán	6	Junio	2023-03-06T00:00:00	2024-11-08T13:00:00	2	Temperatura media	23.6
127706	7	Sololá	713	San Lucas Tolimán	10	San Lucas Tolimán	6	Junio	2023-03-06T00:00:00	2024-11-08T13:00:00	4	Temperatura máxima	23.9
127707	7	Sololá	713	San Lucas Tolimán	10	San Lucas Tolimán	6	Junio	2023-03-06T00:00:00	2024-11-08T13:00:00	3	Temperatura mínima	22.9
127708	7	Sololá	713	San Lucas Tolimán	10	San Lucas Tolimán	6	Junio	2023-03-06T00:00:00	2024-11-08T13:00:00	5	Humedad	60
127709	7	Sololá	713	San Lucas Tolimán	10	San Lucas Tolimán	6	Junio	2023-03-06T00:00:00	2024-11-08T13:00:00	6	Velocidad del viento	9.7
127710	7	Sololá	713	San Lucas Tolimán	10	San Lucas Tolimán	6	Junio	2023-03-06T00:00:00	2024-11-08T13:00:00	7	Dirección del viento	9.66
127711	7	Sololá	713	San Lucas Tolimán	10	San Lucas Tolimán	6	Junio	2023-03-06T00:00:00	2024-11-08T13:00:00	1	Precipitación	0
127712	7	Sololá	713	San Lucas Tolimán	10	San Lucas Tolimán	6	Junio	2023-03-06T00:00:00	2024-11-08T13:00:00	8	Radiación solar	707
127713	7	Sololá	713	San Lucas Tolimán	10	San Lucas Tolimán	6	Junio	2023-03-06T00:00:00	2024-11-08T14:00:00	2	Temperatura media	23.3
127714	7	Sololá	713	San Lucas Tolimán	10	San Lucas Tolimán	6	Junio	2023-03-06T00:00:00	2024-11-08T14:00:00	4	Temperatura máxima	23.6
127715	7	Sololá	713	San Lucas Tolimán	10	San Lucas Tolimán	6	Junio	2023-03-06T00:00:00	2024-11-08T14:00:00	3	Temperatura mínima	22.4
127716	7	Sololá	713	San Lucas Tolimán	10	San Lucas Tolimán	6	Junio	2023-03-06T00:00:00	2024-11-08T14:00:00	5	Humedad	59
127717	7	Sololá	713	San Lucas Tolimán	10	San Lucas Tolimán	6	Junio	2023-03-06T00:00:00	2024-11-08T14:00:00	6	Velocidad del viento	9.7
127718	7	Sololá	713	San Lucas Tolimán	10	San Lucas Tolimán	6	Junio	2023-03-06T00:00:00	2024-11-08T14:00:00	7	Dirección del viento	9.66
127719	7	Sololá	713	San Lucas Tolimán	10	San Lucas Tolimán	6	Junio	2023-03-06T00:00:00	2024-11-08T14:00:00	1	Precipitación	0
127720	7	Sololá	713	San Lucas Tolimán	10	San Lucas Tolimán	6	Junio	2023-03-06T00:00:00	2024-11-08T14:00:00	8	Radiación solar	530
127721	7	Sololá	713	San Lucas Tolimán	10	San Lucas Tolimán	6	Junio	2023-03-06T00:00:00	2024-11-08T15:00:00	2	Temperatura media	22.4
127722	7	Sololá	713	San Lucas Tolimán	10	San Lucas Tolimán	6	Junio	2023-03-06T00:00:00	2024-11-08T15:00:00	4	Temperatura máxima	24.4
127723	7	Sololá	713	San Lucas Tolimán	10	San Lucas Tolimán	6	Junio	2023-03-06T00:00:00	2024-11-08T15:00:00	3	Temperatura mínima	22.4
127724	7	Sololá	713	San Lucas Tolimán	10	San Lucas Tolimán	6	Junio	2023-03-06T00:00:00	2024-11-08T15:00:00	5	Humedad	62
127725	7	Sololá	713	San Lucas Tolimán	10	San Lucas Tolimán	6	Junio	2023-03-06T00:00:00	2024-11-08T15:00:00	6	Velocidad del viento	9.7
127726	7	Sololá	713	San Lucas Tolimán	10	San Lucas Tolimán	6	Junio	2023-03-06T00:00:00	2024-11-08T15:00:00	7	Dirección del viento	9.66
127727	7	Sololá	713	San Lucas Tolimán	10	San Lucas Tolimán	6	Junio	2023-03-06T00:00:00	2024-11-08T15:00:00	1	Precipitación	0
127728	7	Sololá	713	San Lucas Tolimán	10	San Lucas Tolimán	6	Junio	2023-03-06T00:00:00	2024-11-08T15:00:00	8	Radiación solar	541
127729	7	Sololá	713	San Lucas Tolimán	10	San Lucas Tolimán	6	Junio	2023-03-06T00:00:00	2024-11-08T16:00:00	2	Temperatura media	21.9
127730	7	Sololá	713	San Lucas Tolimán	10	San Lucas Tolimán	6	Junio	2023-03-06T00:00:00	2024-11-08T16:00:00	4	Temperatura máxima	22.6
127731	7	Sololá	713	San Lucas Tolimán	10	San Lucas Tolimán	6	Junio	2023-03-06T00:00:00	2024-11-08T16:00:00	3	Temperatura mínima	21.8
127732	7	Sololá	713	San Lucas Tolimán	10	San Lucas Tolimán	6	Junio	2023-03-06T00:00:00	2024-11-08T16:00:00	5	Humedad	63
127733	7	Sololá	713	San Lucas Tolimán	10	San Lucas Tolimán	6	Junio	2023-03-06T00:00:00	2024-11-08T16:00:00	6	Velocidad del viento	9.7
127734	7	Sololá	713	San Lucas Tolimán	10	San Lucas Tolimán	6	Junio	2023-03-06T00:00:00	2024-11-08T16:00:00	7	Dirección del viento	9.66
127735	7	Sololá	713	San Lucas Tolimán	10	San Lucas Tolimán	6	Junio	2023-03-06T00:00:00	2024-11-08T16:00:00	1	Precipitación	0
127736	7	Sololá	713	San Lucas Tolimán	10	San Lucas Tolimán	6	Junio	2023-03-06T00:00:00	2024-11-08T16:00:00	8	Radiación solar	229
127737	7	Sololá	713	San Lucas Tolimán	10	San Lucas Tolimán	6	Junio	2023-03-06T00:00:00	2024-11-08T17:00:00	2	Temperatura media	21.5
127738	7	Sololá	713	San Lucas Tolimán	10	San Lucas Tolimán	6	Junio	2023-03-06T00:00:00	2024-11-08T17:00:00	4	Temperatura máxima	21.9
127739	7	Sololá	713	San Lucas Tolimán	10	San Lucas Tolimán	6	Junio	2023-03-06T00:00:00	2024-11-08T17:00:00	3	Temperatura mínima	21.5
127740	7	Sololá	713	San Lucas Tolimán	10	San Lucas Tolimán	6	Junio	2023-03-06T00:00:00	2024-11-08T17:00:00	5	Humedad	65
127741	7	Sololá	713	San Lucas Tolimán	10	San Lucas Tolimán	6	Junio	2023-03-06T00:00:00	2024-11-08T17:00:00	6	Velocidad del viento	8
127742	7	Sololá	713	San Lucas Tolimán	10	San Lucas Tolimán	6	Junio	2023-03-06T00:00:00	2024-11-08T17:00:00	7	Dirección del viento	8.05
127743	7	Sololá	713	San Lucas Tolimán	10	San Lucas Tolimán	6	Junio	2023-03-06T00:00:00	2024-11-08T17:00:00	1	Precipitación	0
127744	7	Sololá	713	San Lucas Tolimán	10	San Lucas Tolimán	6	Junio	2023-03-06T00:00:00	2024-11-08T17:00:00	8	Radiación solar	89
127745	7	Sololá	713	San Lucas Tolimán	10	San Lucas Tolimán	6	Junio	2023-03-06T00:00:00	2024-11-08T18:00:00	2	Temperatura media	21.2
127746	7	Sololá	713	San Lucas Tolimán	10	San Lucas Tolimán	6	Junio	2023-03-06T00:00:00	2024-11-08T18:00:00	4	Temperatura máxima	21.5
127747	7	Sololá	713	San Lucas Tolimán	10	San Lucas Tolimán	6	Junio	2023-03-06T00:00:00	2024-11-08T18:00:00	3	Temperatura mínima	21.2
127748	7	Sololá	713	San Lucas Tolimán	10	San Lucas Tolimán	6	Junio	2023-03-06T00:00:00	2024-11-08T18:00:00	5	Humedad	64
127749	7	Sololá	713	San Lucas Tolimán	10	San Lucas Tolimán	6	Junio	2023-03-06T00:00:00	2024-11-08T18:00:00	6	Velocidad del viento	6.4
127750	7	Sololá	713	San Lucas Tolimán	10	San Lucas Tolimán	6	Junio	2023-03-06T00:00:00	2024-11-08T18:00:00	7	Dirección del viento	6.44
127751	7	Sololá	713	San Lucas Tolimán	10	San Lucas Tolimán	6	Junio	2023-03-06T00:00:00	2024-11-08T18:00:00	1	Precipitación	0
127752	7	Sololá	713	San Lucas Tolimán	10	San Lucas Tolimán	6	Junio	2023-03-06T00:00:00	2024-11-08T18:00:00	8	Radiación solar	50
127753	7	Sololá	713	San Lucas Tolimán	10	San Lucas Tolimán	6	Junio	2023-03-06T00:00:00	2024-11-08T19:00:00	2	Temperatura media	19.7
127754	7	Sololá	713	San Lucas Tolimán	10	San Lucas Tolimán	6	Junio	2023-03-06T00:00:00	2024-11-08T19:00:00	4	Temperatura máxima	21.2
127755	7	Sololá	713	San Lucas Tolimán	10	San Lucas Tolimán	6	Junio	2023-03-06T00:00:00	2024-11-08T19:00:00	3	Temperatura mínima	19.7
127756	7	Sololá	713	San Lucas Tolimán	10	San Lucas Tolimán	6	Junio	2023-03-06T00:00:00	2024-11-08T19:00:00	5	Humedad	66
127757	7	Sololá	713	San Lucas Tolimán	10	San Lucas Tolimán	6	Junio	2023-03-06T00:00:00	2024-11-08T19:00:00	6	Velocidad del viento	6.4
127758	7	Sololá	713	San Lucas Tolimán	10	San Lucas Tolimán	6	Junio	2023-03-06T00:00:00	2024-11-08T19:00:00	7	Dirección del viento	6.44
127759	7	Sololá	713	San Lucas Tolimán	10	San Lucas Tolimán	6	Junio	2023-03-06T00:00:00	2024-11-08T19:00:00	1	Precipitación	0
127760	7	Sololá	713	San Lucas Tolimán	10	San Lucas Tolimán	6	Junio	2023-03-06T00:00:00	2024-11-08T19:00:00	8	Radiación solar	0
127761	7	Sololá	713	San Lucas Tolimán	10	San Lucas Tolimán	6	Junio	2023-03-06T00:00:00	2024-11-08T20:00:00	2	Temperatura media	19.9
127762	7	Sololá	713	San Lucas Tolimán	10	San Lucas Tolimán	6	Junio	2023-03-06T00:00:00	2024-11-08T20:00:00	4	Temperatura máxima	20.1
127763	7	Sololá	713	San Lucas Tolimán	10	San Lucas Tolimán	6	Junio	2023-03-06T00:00:00	2024-11-08T20:00:00	3	Temperatura mínima	19.7
127764	7	Sololá	713	San Lucas Tolimán	10	San Lucas Tolimán	6	Junio	2023-03-06T00:00:00	2024-11-08T20:00:00	5	Humedad	62
127765	7	Sololá	713	San Lucas Tolimán	10	San Lucas Tolimán	6	Junio	2023-03-06T00:00:00	2024-11-08T20:00:00	6	Velocidad del viento	6.4
127766	7	Sololá	713	San Lucas Tolimán	10	San Lucas Tolimán	6	Junio	2023-03-06T00:00:00	2024-11-08T20:00:00	7	Dirección del viento	6.44
127767	7	Sololá	713	San Lucas Tolimán	10	San Lucas Tolimán	6	Junio	2023-03-06T00:00:00	2024-11-08T20:00:00	1	Precipitación	0
127768	7	Sololá	713	San Lucas Tolimán	10	San Lucas Tolimán	6	Junio	2023-03-06T00:00:00	2024-11-08T20:00:00	8	Radiación solar	0
127769	7	Sololá	713	San Lucas Tolimán	10	San Lucas Tolimán	6	Junio	2023-03-06T00:00:00	2024-11-08T21:00:00	2	Temperatura media	19.8
127770	7	Sololá	713	San Lucas Tolimán	10	San Lucas Tolimán	6	Junio	2023-03-06T00:00:00	2024-11-08T21:00:00	4	Temperatura máxima	20
127771	7	Sololá	713	San Lucas Tolimán	10	San Lucas Tolimán	6	Junio	2023-03-06T00:00:00	2024-11-08T21:00:00	3	Temperatura mínima	19.5
127772	7	Sololá	713	San Lucas Tolimán	10	San Lucas Tolimán	6	Junio	2023-03-06T00:00:00	2024-11-08T21:00:00	5	Humedad	62
127773	7	Sololá	713	San Lucas Tolimán	10	San Lucas Tolimán	6	Junio	2023-03-06T00:00:00	2024-11-08T21:00:00	6	Velocidad del viento	8
127774	7	Sololá	713	San Lucas Tolimán	10	San Lucas Tolimán	6	Junio	2023-03-06T00:00:00	2024-11-08T21:00:00	7	Dirección del viento	8.05
127775	7	Sololá	713	San Lucas Tolimán	10	San Lucas Tolimán	6	Junio	2023-03-06T00:00:00	2024-11-08T21:00:00	1	Precipitación	0
127776	7	Sololá	713	San Lucas Tolimán	10	San Lucas Tolimán	6	Junio	2023-03-06T00:00:00	2024-11-08T21:00:00	8	Radiación solar	0
127777	7	Sololá	713	San Lucas Tolimán	10	San Lucas Tolimán	6	Junio	2023-03-06T00:00:00	2024-11-08T22:00:00	2	Temperatura media	19.8
127778	7	Sololá	713	San Lucas Tolimán	10	San Lucas Tolimán	6	Junio	2023-03-06T00:00:00	2024-11-08T22:00:00	4	Temperatura máxima	19.9
127779	7	Sololá	713	San Lucas Tolimán	10	San Lucas Tolimán	6	Junio	2023-03-06T00:00:00	2024-11-08T22:00:00	3	Temperatura mínima	19.6
127780	7	Sololá	713	San Lucas Tolimán	10	San Lucas Tolimán	6	Junio	2023-03-06T00:00:00	2024-11-08T22:00:00	5	Humedad	63
127781	7	Sololá	713	San Lucas Tolimán	10	San Lucas Tolimán	6	Junio	2023-03-06T00:00:00	2024-11-08T22:00:00	6	Velocidad del viento	4.8
127782	7	Sololá	713	San Lucas Tolimán	10	San Lucas Tolimán	6	Junio	2023-03-06T00:00:00	2024-11-08T22:00:00	7	Dirección del viento	4.83
127783	7	Sololá	713	San Lucas Tolimán	10	San Lucas Tolimán	6	Junio	2023-03-06T00:00:00	2024-11-08T22:00:00	1	Precipitación	0
127784	7	Sololá	713	San Lucas Tolimán	10	San Lucas Tolimán	6	Junio	2023-03-06T00:00:00	2024-11-08T22:00:00	8	Radiación solar	0
127785	7	Sololá	713	San Lucas Tolimán	10	San Lucas Tolimán	6	Junio	2023-03-06T00:00:00	2024-11-08T23:00:00	2	Temperatura media	19.6
127786	7	Sololá	713	San Lucas Tolimán	10	San Lucas Tolimán	6	Junio	2023-03-06T00:00:00	2024-11-08T23:00:00	4	Temperatura máxima	19.8
127787	7	Sololá	713	San Lucas Tolimán	10	San Lucas Tolimán	6	Junio	2023-03-06T00:00:00	2024-11-08T23:00:00	3	Temperatura mínima	19.6
127788	7	Sololá	713	San Lucas Tolimán	10	San Lucas Tolimán	6	Junio	2023-03-06T00:00:00	2024-11-08T23:00:00	5	Humedad	63
127789	7	Sololá	713	San Lucas Tolimán	10	San Lucas Tolimán	6	Junio	2023-03-06T00:00:00	2024-11-08T23:00:00	6	Velocidad del viento	3.2
127790	7	Sololá	713	San Lucas Tolimán	10	San Lucas Tolimán	6	Junio	2023-03-06T00:00:00	2024-11-08T23:00:00	7	Dirección del viento	3.22
127791	7	Sololá	713	San Lucas Tolimán	10	San Lucas Tolimán	6	Junio	2023-03-06T00:00:00	2024-11-08T23:00:00	1	Precipitación	0
127792	7	Sololá	713	San Lucas Tolimán	10	San Lucas Tolimán	6	Junio	2023-03-06T00:00:00	2024-11-08T23:00:00	8	Radiación solar	0
127793	7	Sololá	713	San Lucas Tolimán	10	San Lucas Tolimán	6	Junio	2023-04-06T00:00:00	2024-11-08T00:00:00	2	Temperatura media	19.8
127794	7	Sololá	713	San Lucas Tolimán	10	San Lucas Tolimán	6	Junio	2023-04-06T00:00:00	2024-11-08T00:00:00	4	Temperatura máxima	19.8
127795	7	Sololá	713	San Lucas Tolimán	10	San Lucas Tolimán	6	Junio	2023-04-06T00:00:00	2024-11-08T00:00:00	3	Temperatura mínima	19.6
127796	7	Sololá	713	San Lucas Tolimán	10	San Lucas Tolimán	6	Junio	2023-04-06T00:00:00	2024-11-08T00:00:00	5	Humedad	63
127797	7	Sololá	713	San Lucas Tolimán	10	San Lucas Tolimán	6	Junio	2023-04-06T00:00:00	2024-11-08T00:00:00	6	Velocidad del viento	1.6
127798	7	Sololá	713	San Lucas Tolimán	10	San Lucas Tolimán	6	Junio	2023-04-06T00:00:00	2024-11-08T00:00:00	7	Dirección del viento	1.61
127799	7	Sololá	713	San Lucas Tolimán	10	San Lucas Tolimán	6	Junio	2023-04-06T00:00:00	2024-11-08T00:00:00	1	Precipitación	0
127800	7	Sololá	713	San Lucas Tolimán	10	San Lucas Tolimán	6	Junio	2023-04-06T00:00:00	2024-11-08T00:00:00	8	Radiación solar	0
127801	7	Sololá	713	San Lucas Tolimán	10	San Lucas Tolimán	6	Junio	2023-04-06T00:00:00	2024-11-08T01:00:00	2	Temperatura media	19.6
127802	7	Sololá	713	San Lucas Tolimán	10	San Lucas Tolimán	6	Junio	2023-04-06T00:00:00	2024-11-08T01:00:00	4	Temperatura máxima	19.9
127803	7	Sololá	713	San Lucas Tolimán	10	San Lucas Tolimán	6	Junio	2023-04-06T00:00:00	2024-11-08T01:00:00	3	Temperatura mínima	19.6
127804	7	Sololá	713	San Lucas Tolimán	10	San Lucas Tolimán	6	Junio	2023-04-06T00:00:00	2024-11-08T01:00:00	5	Humedad	63
127805	7	Sololá	713	San Lucas Tolimán	10	San Lucas Tolimán	6	Junio	2023-04-06T00:00:00	2024-11-08T01:00:00	6	Velocidad del viento	1.6
127806	7	Sololá	713	San Lucas Tolimán	10	San Lucas Tolimán	6	Junio	2023-04-06T00:00:00	2024-11-08T01:00:00	7	Dirección del viento	1.61
127807	7	Sololá	713	San Lucas Tolimán	10	San Lucas Tolimán	6	Junio	2023-04-06T00:00:00	2024-11-08T01:00:00	1	Precipitación	0
127808	7	Sololá	713	San Lucas Tolimán	10	San Lucas Tolimán	6	Junio	2023-04-06T00:00:00	2024-11-08T01:00:00	8	Radiación solar	0
127809	7	Sololá	713	San Lucas Tolimán	10	San Lucas Tolimán	6	Junio	2023-04-06T00:00:00	2024-11-08T02:00:00	2	Temperatura media	19
127810	7	Sololá	713	San Lucas Tolimán	10	San Lucas Tolimán	6	Junio	2023-04-06T00:00:00	2024-11-08T02:00:00	4	Temperatura máxima	19.6
127811	7	Sololá	713	San Lucas Tolimán	10	San Lucas Tolimán	6	Junio	2023-04-06T00:00:00	2024-11-08T02:00:00	3	Temperatura mínima	18.9
127812	7	Sololá	713	San Lucas Tolimán	10	San Lucas Tolimán	6	Junio	2023-04-06T00:00:00	2024-11-08T02:00:00	5	Humedad	64
127813	7	Sololá	713	San Lucas Tolimán	10	San Lucas Tolimán	6	Junio	2023-04-06T00:00:00	2024-11-08T02:00:00	6	Velocidad del viento	1.6
127814	7	Sololá	713	San Lucas Tolimán	10	San Lucas Tolimán	6	Junio	2023-04-06T00:00:00	2024-11-08T02:00:00	7	Dirección del viento	1.61
127815	7	Sololá	713	San Lucas Tolimán	10	San Lucas Tolimán	6	Junio	2023-04-06T00:00:00	2024-11-08T02:00:00	1	Precipitación	0
127816	7	Sololá	713	San Lucas Tolimán	10	San Lucas Tolimán	6	Junio	2023-04-06T00:00:00	2024-11-08T02:00:00	8	Radiación solar	0
127817	7	Sololá	713	San Lucas Tolimán	10	San Lucas Tolimán	6	Junio	2023-04-06T00:00:00	2024-11-08T03:00:00	2	Temperatura media	18.9
127818	7	Sololá	713	San Lucas Tolimán	10	San Lucas Tolimán	6	Junio	2023-04-06T00:00:00	2024-11-08T03:00:00	4	Temperatura máxima	19.5
127819	7	Sololá	713	San Lucas Tolimán	10	San Lucas Tolimán	6	Junio	2023-04-06T00:00:00	2024-11-08T03:00:00	3	Temperatura mínima	18.9
127820	7	Sololá	713	San Lucas Tolimán	10	San Lucas Tolimán	6	Junio	2023-04-06T00:00:00	2024-11-08T03:00:00	5	Humedad	64
127821	7	Sololá	713	San Lucas Tolimán	10	San Lucas Tolimán	6	Junio	2023-04-06T00:00:00	2024-11-08T03:00:00	6	Velocidad del viento	3.2
127822	7	Sololá	713	San Lucas Tolimán	10	San Lucas Tolimán	6	Junio	2023-04-06T00:00:00	2024-11-08T03:00:00	7	Dirección del viento	3.22
127823	7	Sololá	713	San Lucas Tolimán	10	San Lucas Tolimán	6	Junio	2023-04-06T00:00:00	2024-11-08T03:00:00	1	Precipitación	0
127824	7	Sololá	713	San Lucas Tolimán	10	San Lucas Tolimán	6	Junio	2023-04-06T00:00:00	2024-11-08T03:00:00	8	Radiación solar	0
127825	7	Sololá	713	San Lucas Tolimán	10	San Lucas Tolimán	6	Junio	2023-04-06T00:00:00	2024-11-08T04:00:00	2	Temperatura media	18.9
127826	7	Sololá	713	San Lucas Tolimán	10	San Lucas Tolimán	6	Junio	2023-04-06T00:00:00	2024-11-08T04:00:00	4	Temperatura máxima	18.9
127827	7	Sololá	713	San Lucas Tolimán	10	San Lucas Tolimán	6	Junio	2023-04-06T00:00:00	2024-11-08T04:00:00	3	Temperatura mínima	18.7
127828	7	Sololá	713	San Lucas Tolimán	10	San Lucas Tolimán	6	Junio	2023-04-06T00:00:00	2024-11-08T04:00:00	5	Humedad	63
127829	7	Sololá	713	San Lucas Tolimán	10	San Lucas Tolimán	6	Junio	2023-04-06T00:00:00	2024-11-08T04:00:00	6	Velocidad del viento	0
127830	7	Sololá	713	San Lucas Tolimán	10	San Lucas Tolimán	6	Junio	2023-04-06T00:00:00	2024-11-08T04:00:00	7	Dirección del viento	0
127831	7	Sololá	713	San Lucas Tolimán	10	San Lucas Tolimán	6	Junio	2023-04-06T00:00:00	2024-11-08T04:00:00	1	Precipitación	0
127832	7	Sololá	713	San Lucas Tolimán	10	San Lucas Tolimán	6	Junio	2023-04-06T00:00:00	2024-11-08T04:00:00	8	Radiación solar	0
127833	7	Sololá	713	San Lucas Tolimán	10	San Lucas Tolimán	6	Junio	2023-04-06T00:00:00	2024-11-08T05:00:00	2	Temperatura media	18.7
127834	7	Sololá	713	San Lucas Tolimán	10	San Lucas Tolimán	6	Junio	2023-04-06T00:00:00	2024-11-08T05:00:00	4	Temperatura máxima	19.1
127835	7	Sololá	713	San Lucas Tolimán	10	San Lucas Tolimán	6	Junio	2023-04-06T00:00:00	2024-11-08T05:00:00	3	Temperatura mínima	18.7
127836	7	Sololá	713	San Lucas Tolimán	10	San Lucas Tolimán	6	Junio	2023-04-06T00:00:00	2024-11-08T05:00:00	5	Humedad	64
127837	7	Sololá	713	San Lucas Tolimán	10	San Lucas Tolimán	6	Junio	2023-04-06T00:00:00	2024-11-08T05:00:00	6	Velocidad del viento	0
127838	7	Sololá	713	San Lucas Tolimán	10	San Lucas Tolimán	6	Junio	2023-04-06T00:00:00	2024-11-08T05:00:00	7	Dirección del viento	0
127839	7	Sololá	713	San Lucas Tolimán	10	San Lucas Tolimán	6	Junio	2023-04-06T00:00:00	2024-11-08T05:00:00	1	Precipitación	0
127840	7	Sololá	713	San Lucas Tolimán	10	San Lucas Tolimán	6	Junio	2023-04-06T00:00:00	2024-11-08T05:00:00	8	Radiación solar	0
127841	7	Sololá	713	San Lucas Tolimán	10	San Lucas Tolimán	6	Junio	2023-04-06T00:00:00	2024-11-08T06:00:00	2	Temperatura media	17.7
127842	7	Sololá	713	San Lucas Tolimán	10	San Lucas Tolimán	6	Junio	2023-04-06T00:00:00	2024-11-08T06:00:00	4	Temperatura máxima	18.6
127843	7	Sololá	713	San Lucas Tolimán	10	San Lucas Tolimán	6	Junio	2023-04-06T00:00:00	2024-11-08T06:00:00	3	Temperatura mínima	17.6
127844	7	Sololá	713	San Lucas Tolimán	10	San Lucas Tolimán	6	Junio	2023-04-06T00:00:00	2024-11-08T06:00:00	5	Humedad	64
127845	7	Sololá	713	San Lucas Tolimán	10	San Lucas Tolimán	6	Junio	2023-04-06T00:00:00	2024-11-08T06:00:00	6	Velocidad del viento	1.6
127846	7	Sololá	713	San Lucas Tolimán	10	San Lucas Tolimán	6	Junio	2023-04-06T00:00:00	2024-11-08T06:00:00	7	Dirección del viento	1.61
127847	7	Sololá	713	San Lucas Tolimán	10	San Lucas Tolimán	6	Junio	2023-04-06T00:00:00	2024-11-08T06:00:00	1	Precipitación	0
127848	7	Sololá	713	San Lucas Tolimán	10	San Lucas Tolimán	6	Junio	2023-04-06T00:00:00	2024-11-08T06:00:00	8	Radiación solar	4
127849	7	Sololá	713	San Lucas Tolimán	10	San Lucas Tolimán	6	Junio	2023-04-06T00:00:00	2024-11-08T07:00:00	2	Temperatura media	19.1
127850	7	Sololá	713	San Lucas Tolimán	10	San Lucas Tolimán	6	Junio	2023-04-06T00:00:00	2024-11-08T07:00:00	4	Temperatura máxima	19.1
127851	7	Sololá	713	San Lucas Tolimán	10	San Lucas Tolimán	6	Junio	2023-04-06T00:00:00	2024-11-08T07:00:00	3	Temperatura mínima	17.7
127852	7	Sololá	713	San Lucas Tolimán	10	San Lucas Tolimán	6	Junio	2023-04-06T00:00:00	2024-11-08T07:00:00	5	Humedad	63
127853	7	Sololá	713	San Lucas Tolimán	10	San Lucas Tolimán	6	Junio	2023-04-06T00:00:00	2024-11-08T07:00:00	6	Velocidad del viento	3.2
127854	7	Sololá	713	San Lucas Tolimán	10	San Lucas Tolimán	6	Junio	2023-04-06T00:00:00	2024-11-08T07:00:00	7	Dirección del viento	3.22
127855	7	Sololá	713	San Lucas Tolimán	10	San Lucas Tolimán	6	Junio	2023-04-06T00:00:00	2024-11-08T07:00:00	1	Precipitación	0
127856	7	Sololá	713	San Lucas Tolimán	10	San Lucas Tolimán	6	Junio	2023-04-06T00:00:00	2024-11-08T07:00:00	8	Radiación solar	88
127857	7	Sololá	713	San Lucas Tolimán	10	San Lucas Tolimán	6	Junio	2023-04-06T00:00:00	2024-11-08T08:00:00	2	Temperatura media	21
127858	7	Sololá	713	San Lucas Tolimán	10	San Lucas Tolimán	6	Junio	2023-04-06T00:00:00	2024-11-08T08:00:00	4	Temperatura máxima	21
127859	7	Sololá	713	San Lucas Tolimán	10	San Lucas Tolimán	6	Junio	2023-04-06T00:00:00	2024-11-08T08:00:00	3	Temperatura mínima	19.1
127860	7	Sololá	713	San Lucas Tolimán	10	San Lucas Tolimán	6	Junio	2023-04-06T00:00:00	2024-11-08T08:00:00	5	Humedad	60
127861	7	Sololá	713	San Lucas Tolimán	10	San Lucas Tolimán	6	Junio	2023-04-06T00:00:00	2024-11-08T08:00:00	6	Velocidad del viento	3.2
127862	7	Sololá	713	San Lucas Tolimán	10	San Lucas Tolimán	6	Junio	2023-04-06T00:00:00	2024-11-08T08:00:00	7	Dirección del viento	3.22
127863	7	Sololá	713	San Lucas Tolimán	10	San Lucas Tolimán	6	Junio	2023-04-06T00:00:00	2024-11-08T08:00:00	1	Precipitación	0
127864	7	Sololá	713	San Lucas Tolimán	10	San Lucas Tolimán	6	Junio	2023-04-06T00:00:00	2024-11-08T08:00:00	8	Radiación solar	258
127865	7	Sololá	713	San Lucas Tolimán	10	San Lucas Tolimán	6	Junio	2023-04-06T00:00:00	2024-11-08T09:00:00	2	Temperatura media	22.6
127866	7	Sololá	713	San Lucas Tolimán	10	San Lucas Tolimán	6	Junio	2023-04-06T00:00:00	2024-11-08T09:00:00	4	Temperatura máxima	22.6
127867	7	Sololá	713	San Lucas Tolimán	10	San Lucas Tolimán	6	Junio	2023-04-06T00:00:00	2024-11-08T09:00:00	3	Temperatura mínima	21
127868	7	Sololá	713	San Lucas Tolimán	10	San Lucas Tolimán	6	Junio	2023-04-06T00:00:00	2024-11-08T09:00:00	5	Humedad	58
127869	7	Sololá	713	San Lucas Tolimán	10	San Lucas Tolimán	6	Junio	2023-04-06T00:00:00	2024-11-08T09:00:00	6	Velocidad del viento	4.8
127870	7	Sololá	713	San Lucas Tolimán	10	San Lucas Tolimán	6	Junio	2023-04-06T00:00:00	2024-11-08T09:00:00	7	Dirección del viento	4.83
127871	7	Sololá	713	San Lucas Tolimán	10	San Lucas Tolimán	6	Junio	2023-04-06T00:00:00	2024-11-08T09:00:00	1	Precipitación	0
127872	7	Sololá	713	San Lucas Tolimán	10	San Lucas Tolimán	6	Junio	2023-04-06T00:00:00	2024-11-08T09:00:00	8	Radiación solar	508
127873	7	Sololá	713	San Lucas Tolimán	10	San Lucas Tolimán	6	Junio	2023-04-06T00:00:00	2024-11-08T10:00:00	2	Temperatura media	25.5
127874	7	Sololá	713	San Lucas Tolimán	10	San Lucas Tolimán	6	Junio	2023-04-06T00:00:00	2024-11-08T10:00:00	4	Temperatura máxima	25.5
127875	7	Sololá	713	San Lucas Tolimán	10	San Lucas Tolimán	6	Junio	2023-04-06T00:00:00	2024-11-08T10:00:00	3	Temperatura mínima	22.6
127876	7	Sololá	713	San Lucas Tolimán	10	San Lucas Tolimán	6	Junio	2023-04-06T00:00:00	2024-11-08T10:00:00	5	Humedad	54
127877	7	Sololá	713	San Lucas Tolimán	10	San Lucas Tolimán	6	Junio	2023-04-06T00:00:00	2024-11-08T10:00:00	6	Velocidad del viento	4.8
127878	7	Sololá	713	San Lucas Tolimán	10	San Lucas Tolimán	6	Junio	2023-04-06T00:00:00	2024-11-08T10:00:00	7	Dirección del viento	4.83
127879	7	Sololá	713	San Lucas Tolimán	10	San Lucas Tolimán	6	Junio	2023-04-06T00:00:00	2024-11-08T10:00:00	1	Precipitación	0
127880	7	Sololá	713	San Lucas Tolimán	10	San Lucas Tolimán	6	Junio	2023-04-06T00:00:00	2024-11-08T10:00:00	8	Radiación solar	823
127881	7	Sololá	713	San Lucas Tolimán	10	San Lucas Tolimán	6	Junio	2023-04-06T00:00:00	2024-11-08T11:00:00	2	Temperatura media	25.1
127882	7	Sololá	713	San Lucas Tolimán	10	San Lucas Tolimán	6	Junio	2023-04-06T00:00:00	2024-11-08T11:00:00	4	Temperatura máxima	25.7
127883	7	Sololá	713	San Lucas Tolimán	10	San Lucas Tolimán	6	Junio	2023-04-06T00:00:00	2024-11-08T11:00:00	3	Temperatura mínima	24.3
127884	7	Sololá	713	San Lucas Tolimán	10	San Lucas Tolimán	6	Junio	2023-04-06T00:00:00	2024-11-08T11:00:00	5	Humedad	54
127885	7	Sololá	713	San Lucas Tolimán	10	San Lucas Tolimán	6	Junio	2023-04-06T00:00:00	2024-11-08T11:00:00	6	Velocidad del viento	9.7
127886	7	Sololá	713	San Lucas Tolimán	10	San Lucas Tolimán	6	Junio	2023-04-06T00:00:00	2024-11-08T11:00:00	7	Dirección del viento	9.66
127887	7	Sololá	713	San Lucas Tolimán	10	San Lucas Tolimán	6	Junio	2023-04-06T00:00:00	2024-11-08T11:00:00	1	Precipitación	0
127888	7	Sololá	713	San Lucas Tolimán	10	San Lucas Tolimán	6	Junio	2023-04-06T00:00:00	2024-11-08T11:00:00	8	Radiación solar	947
127889	7	Sololá	713	San Lucas Tolimán	10	San Lucas Tolimán	6	Junio	2023-04-06T00:00:00	2024-11-08T12:00:00	2	Temperatura media	24.2
127890	7	Sololá	713	San Lucas Tolimán	10	San Lucas Tolimán	6	Junio	2023-04-06T00:00:00	2024-11-08T12:00:00	4	Temperatura máxima	25.1
127891	7	Sololá	713	San Lucas Tolimán	10	San Lucas Tolimán	6	Junio	2023-04-06T00:00:00	2024-11-08T12:00:00	3	Temperatura mínima	23.9
127892	7	Sololá	713	San Lucas Tolimán	10	San Lucas Tolimán	6	Junio	2023-04-06T00:00:00	2024-11-08T12:00:00	5	Humedad	59
127893	7	Sololá	713	San Lucas Tolimán	10	San Lucas Tolimán	6	Junio	2023-04-06T00:00:00	2024-11-08T12:00:00	6	Velocidad del viento	11.3
127894	7	Sololá	713	San Lucas Tolimán	10	San Lucas Tolimán	6	Junio	2023-04-06T00:00:00	2024-11-08T12:00:00	7	Dirección del viento	11.27
127895	7	Sololá	713	San Lucas Tolimán	10	San Lucas Tolimán	6	Junio	2023-04-06T00:00:00	2024-11-08T12:00:00	1	Precipitación	0
127896	7	Sololá	713	San Lucas Tolimán	10	San Lucas Tolimán	6	Junio	2023-04-06T00:00:00	2024-11-08T12:00:00	8	Radiación solar	1060
127897	7	Sololá	713	San Lucas Tolimán	10	San Lucas Tolimán	6	Junio	2023-04-06T00:00:00	2024-11-08T13:00:00	2	Temperatura media	23.3
127898	7	Sololá	713	San Lucas Tolimán	10	San Lucas Tolimán	6	Junio	2023-04-06T00:00:00	2024-11-08T13:00:00	4	Temperatura máxima	24.2
127899	7	Sololá	713	San Lucas Tolimán	10	San Lucas Tolimán	6	Junio	2023-04-06T00:00:00	2024-11-08T13:00:00	3	Temperatura mínima	22.7
127900	7	Sololá	713	San Lucas Tolimán	10	San Lucas Tolimán	6	Junio	2023-04-06T00:00:00	2024-11-08T13:00:00	5	Humedad	61
127901	7	Sololá	713	San Lucas Tolimán	10	San Lucas Tolimán	6	Junio	2023-04-06T00:00:00	2024-11-08T13:00:00	6	Velocidad del viento	11.3
127902	7	Sololá	713	San Lucas Tolimán	10	San Lucas Tolimán	6	Junio	2023-04-06T00:00:00	2024-11-08T13:00:00	7	Dirección del viento	11.27
127903	7	Sololá	713	San Lucas Tolimán	10	San Lucas Tolimán	6	Junio	2023-04-06T00:00:00	2024-11-08T13:00:00	1	Precipitación	0
127904	7	Sololá	713	San Lucas Tolimán	10	San Lucas Tolimán	6	Junio	2023-04-06T00:00:00	2024-11-08T13:00:00	8	Radiación solar	733
127905	7	Sololá	713	San Lucas Tolimán	10	San Lucas Tolimán	6	Junio	2023-04-06T00:00:00	2024-11-08T14:00:00	2	Temperatura media	22.9
127906	7	Sololá	713	San Lucas Tolimán	10	San Lucas Tolimán	6	Junio	2023-04-06T00:00:00	2024-11-08T14:00:00	4	Temperatura máxima	23.4
127907	7	Sololá	713	San Lucas Tolimán	10	San Lucas Tolimán	6	Junio	2023-04-06T00:00:00	2024-11-08T14:00:00	3	Temperatura mínima	21.9
127908	7	Sololá	713	San Lucas Tolimán	10	San Lucas Tolimán	6	Junio	2023-04-06T00:00:00	2024-11-08T14:00:00	5	Humedad	61
127909	7	Sololá	713	San Lucas Tolimán	10	San Lucas Tolimán	6	Junio	2023-04-06T00:00:00	2024-11-08T14:00:00	6	Velocidad del viento	11.3
127910	7	Sololá	713	San Lucas Tolimán	10	San Lucas Tolimán	6	Junio	2023-04-06T00:00:00	2024-11-08T14:00:00	7	Dirección del viento	11.27
127911	7	Sololá	713	San Lucas Tolimán	10	San Lucas Tolimán	6	Junio	2023-04-06T00:00:00	2024-11-08T14:00:00	1	Precipitación	0
127912	7	Sololá	713	San Lucas Tolimán	10	San Lucas Tolimán	6	Junio	2023-04-06T00:00:00	2024-11-08T14:00:00	8	Radiación solar	386
127913	7	Sololá	713	San Lucas Tolimán	10	San Lucas Tolimán	6	Junio	2023-04-06T00:00:00	2024-11-08T15:00:00	2	Temperatura media	20.9
127914	7	Sololá	713	San Lucas Tolimán	10	San Lucas Tolimán	6	Junio	2023-04-06T00:00:00	2024-11-08T15:00:00	4	Temperatura máxima	23.4
127915	7	Sololá	713	San Lucas Tolimán	10	San Lucas Tolimán	6	Junio	2023-04-06T00:00:00	2024-11-08T15:00:00	3	Temperatura mínima	20.9
127916	7	Sololá	713	San Lucas Tolimán	10	San Lucas Tolimán	6	Junio	2023-04-06T00:00:00	2024-11-08T15:00:00	5	Humedad	64
127917	7	Sololá	713	San Lucas Tolimán	10	San Lucas Tolimán	6	Junio	2023-04-06T00:00:00	2024-11-08T15:00:00	6	Velocidad del viento	9.7
127918	7	Sololá	713	San Lucas Tolimán	10	San Lucas Tolimán	6	Junio	2023-04-06T00:00:00	2024-11-08T15:00:00	7	Dirección del viento	9.66
127919	7	Sololá	713	San Lucas Tolimán	10	San Lucas Tolimán	6	Junio	2023-04-06T00:00:00	2024-11-08T15:00:00	1	Precipitación	0
127920	7	Sololá	713	San Lucas Tolimán	10	San Lucas Tolimán	6	Junio	2023-04-06T00:00:00	2024-11-08T15:00:00	8	Radiación solar	150
127921	7	Sololá	713	San Lucas Tolimán	10	San Lucas Tolimán	6	Junio	2023-04-06T00:00:00	2024-11-08T16:00:00	2	Temperatura media	19.8
127922	7	Sololá	713	San Lucas Tolimán	10	San Lucas Tolimán	6	Junio	2023-04-06T00:00:00	2024-11-08T16:00:00	4	Temperatura máxima	20.9
127923	7	Sololá	713	San Lucas Tolimán	10	San Lucas Tolimán	6	Junio	2023-04-06T00:00:00	2024-11-08T16:00:00	3	Temperatura mínima	19.5
127924	7	Sololá	713	San Lucas Tolimán	10	San Lucas Tolimán	6	Junio	2023-04-06T00:00:00	2024-11-08T16:00:00	5	Humedad	63
127925	7	Sololá	713	San Lucas Tolimán	10	San Lucas Tolimán	6	Junio	2023-04-06T00:00:00	2024-11-08T16:00:00	6	Velocidad del viento	8
127926	7	Sololá	713	San Lucas Tolimán	10	San Lucas Tolimán	6	Junio	2023-04-06T00:00:00	2024-11-08T16:00:00	7	Dirección del viento	8.05
127927	7	Sololá	713	San Lucas Tolimán	10	San Lucas Tolimán	6	Junio	2023-04-06T00:00:00	2024-11-08T16:00:00	1	Precipitación	0.6
127928	7	Sololá	713	San Lucas Tolimán	10	San Lucas Tolimán	6	Junio	2023-04-06T00:00:00	2024-11-08T16:00:00	8	Radiación solar	9
127929	7	Sololá	713	San Lucas Tolimán	10	San Lucas Tolimán	6	Junio	2023-04-06T00:00:00	2024-11-08T17:00:00	2	Temperatura media	19.7
127930	7	Sololá	713	San Lucas Tolimán	10	San Lucas Tolimán	6	Junio	2023-04-06T00:00:00	2024-11-08T17:00:00	4	Temperatura máxima	19.8
127931	7	Sololá	713	San Lucas Tolimán	10	San Lucas Tolimán	6	Junio	2023-04-06T00:00:00	2024-11-08T17:00:00	3	Temperatura mínima	19.3
127932	7	Sololá	713	San Lucas Tolimán	10	San Lucas Tolimán	6	Junio	2023-04-06T00:00:00	2024-11-08T17:00:00	5	Humedad	62
127933	7	Sololá	713	San Lucas Tolimán	10	San Lucas Tolimán	6	Junio	2023-04-06T00:00:00	2024-11-08T17:00:00	6	Velocidad del viento	6.4
127934	7	Sololá	713	San Lucas Tolimán	10	San Lucas Tolimán	6	Junio	2023-04-06T00:00:00	2024-11-08T17:00:00	7	Dirección del viento	6.44
127935	7	Sololá	713	San Lucas Tolimán	10	San Lucas Tolimán	6	Junio	2023-04-06T00:00:00	2024-11-08T17:00:00	1	Precipitación	0
127936	7	Sololá	713	San Lucas Tolimán	10	San Lucas Tolimán	6	Junio	2023-04-06T00:00:00	2024-11-08T17:00:00	8	Radiación solar	4
127937	7	Sololá	713	San Lucas Tolimán	10	San Lucas Tolimán	6	Junio	2023-04-06T00:00:00	2024-11-08T18:00:00	2	Temperatura media	19.6
127938	7	Sololá	713	San Lucas Tolimán	10	San Lucas Tolimán	6	Junio	2023-04-06T00:00:00	2024-11-08T18:00:00	4	Temperatura máxima	19.7
127939	7	Sololá	713	San Lucas Tolimán	10	San Lucas Tolimán	6	Junio	2023-04-06T00:00:00	2024-11-08T18:00:00	3	Temperatura mínima	19.4
127940	7	Sololá	713	San Lucas Tolimán	10	San Lucas Tolimán	6	Junio	2023-04-06T00:00:00	2024-11-08T18:00:00	5	Humedad	64
127941	7	Sololá	713	San Lucas Tolimán	10	San Lucas Tolimán	6	Junio	2023-04-06T00:00:00	2024-11-08T18:00:00	6	Velocidad del viento	4.8
127942	7	Sololá	713	San Lucas Tolimán	10	San Lucas Tolimán	6	Junio	2023-04-06T00:00:00	2024-11-08T18:00:00	7	Dirección del viento	4.83
127943	7	Sololá	713	San Lucas Tolimán	10	San Lucas Tolimán	6	Junio	2023-04-06T00:00:00	2024-11-08T18:00:00	1	Precipitación	0.2
127944	7	Sololá	713	San Lucas Tolimán	10	San Lucas Tolimán	6	Junio	2023-04-06T00:00:00	2024-11-08T18:00:00	8	Radiación solar	14
127945	7	Sololá	713	San Lucas Tolimán	10	San Lucas Tolimán	6	Junio	2023-04-06T00:00:00	2024-11-08T19:00:00	2	Temperatura media	19.4
127946	7	Sololá	713	San Lucas Tolimán	10	San Lucas Tolimán	6	Junio	2023-04-06T00:00:00	2024-11-08T19:00:00	4	Temperatura máxima	19.8
127947	7	Sololá	713	San Lucas Tolimán	10	San Lucas Tolimán	6	Junio	2023-04-06T00:00:00	2024-11-08T19:00:00	3	Temperatura mínima	19.2
127948	7	Sololá	713	San Lucas Tolimán	10	San Lucas Tolimán	6	Junio	2023-04-06T00:00:00	2024-11-08T19:00:00	5	Humedad	62
127949	7	Sololá	713	San Lucas Tolimán	10	San Lucas Tolimán	6	Junio	2023-04-06T00:00:00	2024-11-08T19:00:00	6	Velocidad del viento	6.4
127950	7	Sololá	713	San Lucas Tolimán	10	San Lucas Tolimán	6	Junio	2023-04-06T00:00:00	2024-11-08T19:00:00	7	Dirección del viento	6.44
127951	7	Sololá	713	San Lucas Tolimán	10	San Lucas Tolimán	6	Junio	2023-04-06T00:00:00	2024-11-08T19:00:00	1	Precipitación	0
127952	7	Sololá	713	San Lucas Tolimán	10	San Lucas Tolimán	6	Junio	2023-04-06T00:00:00	2024-11-08T19:00:00	8	Radiación solar	0
127953	7	Sololá	713	San Lucas Tolimán	10	San Lucas Tolimán	6	Junio	2023-04-06T00:00:00	2024-11-08T20:00:00	2	Temperatura media	19.1
127954	7	Sololá	713	San Lucas Tolimán	10	San Lucas Tolimán	6	Junio	2023-04-06T00:00:00	2024-11-08T20:00:00	4	Temperatura máxima	19.7
127955	7	Sololá	713	San Lucas Tolimán	10	San Lucas Tolimán	6	Junio	2023-04-06T00:00:00	2024-11-08T20:00:00	3	Temperatura mínima	19.1
127956	7	Sololá	713	San Lucas Tolimán	10	San Lucas Tolimán	6	Junio	2023-04-06T00:00:00	2024-11-08T20:00:00	5	Humedad	62
127957	7	Sololá	713	San Lucas Tolimán	10	San Lucas Tolimán	6	Junio	2023-04-06T00:00:00	2024-11-08T20:00:00	6	Velocidad del viento	8
127958	7	Sololá	713	San Lucas Tolimán	10	San Lucas Tolimán	6	Junio	2023-04-06T00:00:00	2024-11-08T20:00:00	7	Dirección del viento	8.05
127959	7	Sololá	713	San Lucas Tolimán	10	San Lucas Tolimán	6	Junio	2023-04-06T00:00:00	2024-11-08T20:00:00	1	Precipitación	0
127960	7	Sololá	713	San Lucas Tolimán	10	San Lucas Tolimán	6	Junio	2023-04-06T00:00:00	2024-11-08T20:00:00	8	Radiación solar	0
127961	7	Sololá	713	San Lucas Tolimán	10	San Lucas Tolimán	6	Junio	2023-04-06T00:00:00	2024-11-08T21:00:00	2	Temperatura media	18.3
127962	7	Sololá	713	San Lucas Tolimán	10	San Lucas Tolimán	6	Junio	2023-04-06T00:00:00	2024-11-08T21:00:00	4	Temperatura máxima	19.1
127963	7	Sololá	713	San Lucas Tolimán	10	San Lucas Tolimán	6	Junio	2023-04-06T00:00:00	2024-11-08T21:00:00	3	Temperatura mínima	18.3
127964	7	Sololá	713	San Lucas Tolimán	10	San Lucas Tolimán	6	Junio	2023-04-06T00:00:00	2024-11-08T21:00:00	5	Humedad	64
127965	7	Sololá	713	San Lucas Tolimán	10	San Lucas Tolimán	6	Junio	2023-04-06T00:00:00	2024-11-08T21:00:00	6	Velocidad del viento	3.2
127966	7	Sololá	713	San Lucas Tolimán	10	San Lucas Tolimán	6	Junio	2023-04-06T00:00:00	2024-11-08T21:00:00	7	Dirección del viento	3.22
127967	7	Sololá	713	San Lucas Tolimán	10	San Lucas Tolimán	6	Junio	2023-04-06T00:00:00	2024-11-08T21:00:00	1	Precipitación	0
127968	7	Sololá	713	San Lucas Tolimán	10	San Lucas Tolimán	6	Junio	2023-04-06T00:00:00	2024-11-08T21:00:00	8	Radiación solar	0
127969	7	Sololá	713	San Lucas Tolimán	10	San Lucas Tolimán	6	Junio	2023-04-06T00:00:00	2024-11-08T22:00:00	2	Temperatura media	18.1
127970	7	Sololá	713	San Lucas Tolimán	10	San Lucas Tolimán	6	Junio	2023-04-06T00:00:00	2024-11-08T22:00:00	4	Temperatura máxima	18.3
127971	7	Sololá	713	San Lucas Tolimán	10	San Lucas Tolimán	6	Junio	2023-04-06T00:00:00	2024-11-08T22:00:00	3	Temperatura mínima	17.9
127972	7	Sololá	713	San Lucas Tolimán	10	San Lucas Tolimán	6	Junio	2023-04-06T00:00:00	2024-11-08T22:00:00	5	Humedad	64
127973	7	Sololá	713	San Lucas Tolimán	10	San Lucas Tolimán	6	Junio	2023-04-06T00:00:00	2024-11-08T22:00:00	6	Velocidad del viento	1.6
127974	7	Sololá	713	San Lucas Tolimán	10	San Lucas Tolimán	6	Junio	2023-04-06T00:00:00	2024-11-08T22:00:00	7	Dirección del viento	1.61
127975	7	Sololá	713	San Lucas Tolimán	10	San Lucas Tolimán	6	Junio	2023-04-06T00:00:00	2024-11-08T22:00:00	1	Precipitación	0
127976	7	Sololá	713	San Lucas Tolimán	10	San Lucas Tolimán	6	Junio	2023-04-06T00:00:00	2024-11-08T22:00:00	8	Radiación solar	0
127977	7	Sololá	713	San Lucas Tolimán	10	San Lucas Tolimán	6	Junio	2023-04-06T00:00:00	2024-11-08T23:00:00	2	Temperatura media	18.3
127978	7	Sololá	713	San Lucas Tolimán	10	San Lucas Tolimán	6	Junio	2023-04-06T00:00:00	2024-11-08T23:00:00	4	Temperatura máxima	18.4
127979	7	Sololá	713	San Lucas Tolimán	10	San Lucas Tolimán	6	Junio	2023-04-06T00:00:00	2024-11-08T23:00:00	3	Temperatura mínima	18.1
127980	7	Sololá	713	San Lucas Tolimán	10	San Lucas Tolimán	6	Junio	2023-04-06T00:00:00	2024-11-08T23:00:00	5	Humedad	64
127981	7	Sololá	713	San Lucas Tolimán	10	San Lucas Tolimán	6	Junio	2023-04-06T00:00:00	2024-11-08T23:00:00	6	Velocidad del viento	0
127982	7	Sololá	713	San Lucas Tolimán	10	San Lucas Tolimán	6	Junio	2023-04-06T00:00:00	2024-11-08T23:00:00	7	Dirección del viento	0
127983	7	Sololá	713	San Lucas Tolimán	10	San Lucas Tolimán	6	Junio	2023-04-06T00:00:00	2024-11-08T23:00:00	1	Precipitación	0
127984	7	Sololá	713	San Lucas Tolimán	10	San Lucas Tolimán	6	Junio	2023-04-06T00:00:00	2024-11-08T23:00:00	8	Radiación solar	0
127985	7	Sololá	713	San Lucas Tolimán	10	San Lucas Tolimán	6	Junio	2023-05-06T00:00:00	2024-11-08T00:00:00	2	Temperatura media	18.3
127986	7	Sololá	713	San Lucas Tolimán	10	San Lucas Tolimán	6	Junio	2023-05-06T00:00:00	2024-11-08T00:00:00	4	Temperatura máxima	18.4
127987	7	Sololá	713	San Lucas Tolimán	10	San Lucas Tolimán	6	Junio	2023-05-06T00:00:00	2024-11-08T00:00:00	3	Temperatura mínima	18.2
127988	7	Sololá	713	San Lucas Tolimán	10	San Lucas Tolimán	6	Junio	2023-05-06T00:00:00	2024-11-08T00:00:00	5	Humedad	63
127989	7	Sololá	713	San Lucas Tolimán	10	San Lucas Tolimán	6	Junio	2023-05-06T00:00:00	2024-11-08T00:00:00	6	Velocidad del viento	1.6
127990	7	Sololá	713	San Lucas Tolimán	10	San Lucas Tolimán	6	Junio	2023-05-06T00:00:00	2024-11-08T00:00:00	7	Dirección del viento	1.61
127991	7	Sololá	713	San Lucas Tolimán	10	San Lucas Tolimán	6	Junio	2023-05-06T00:00:00	2024-11-08T00:00:00	1	Precipitación	0
127992	7	Sololá	713	San Lucas Tolimán	10	San Lucas Tolimán	6	Junio	2023-05-06T00:00:00	2024-11-08T00:00:00	8	Radiación solar	0
127993	7	Sololá	713	San Lucas Tolimán	10	San Lucas Tolimán	6	Junio	2023-05-06T00:00:00	2024-11-08T01:00:00	2	Temperatura media	17
127994	7	Sololá	713	San Lucas Tolimán	10	San Lucas Tolimán	6	Junio	2023-05-06T00:00:00	2024-11-08T01:00:00	4	Temperatura máxima	18.3
127995	7	Sololá	713	San Lucas Tolimán	10	San Lucas Tolimán	6	Junio	2023-05-06T00:00:00	2024-11-08T01:00:00	3	Temperatura mínima	17
127996	7	Sololá	713	San Lucas Tolimán	10	San Lucas Tolimán	6	Junio	2023-05-06T00:00:00	2024-11-08T01:00:00	5	Humedad	65
127997	7	Sololá	713	San Lucas Tolimán	10	San Lucas Tolimán	6	Junio	2023-05-06T00:00:00	2024-11-08T01:00:00	6	Velocidad del viento	1.6
127998	7	Sololá	713	San Lucas Tolimán	10	San Lucas Tolimán	6	Junio	2023-05-06T00:00:00	2024-11-08T01:00:00	7	Dirección del viento	1.61
127999	7	Sololá	713	San Lucas Tolimán	10	San Lucas Tolimán	6	Junio	2023-05-06T00:00:00	2024-11-08T01:00:00	1	Precipitación	0
128000	7	Sololá	713	San Lucas Tolimán	10	San Lucas Tolimán	6	Junio	2023-05-06T00:00:00	2024-11-08T01:00:00	8	Radiación solar	0
128001	7	Sololá	713	San Lucas Tolimán	10	San Lucas Tolimán	6	Junio	2023-05-06T00:00:00	2024-11-08T02:00:00	2	Temperatura media	16.4
128002	7	Sololá	713	San Lucas Tolimán	10	San Lucas Tolimán	6	Junio	2023-05-06T00:00:00	2024-11-08T02:00:00	4	Temperatura máxima	17
128003	7	Sololá	713	San Lucas Tolimán	10	San Lucas Tolimán	6	Junio	2023-05-06T00:00:00	2024-11-08T02:00:00	3	Temperatura mínima	16.4
128004	7	Sololá	713	San Lucas Tolimán	10	San Lucas Tolimán	6	Junio	2023-05-06T00:00:00	2024-11-08T02:00:00	5	Humedad	64
128005	7	Sololá	713	San Lucas Tolimán	10	San Lucas Tolimán	6	Junio	2023-05-06T00:00:00	2024-11-08T02:00:00	6	Velocidad del viento	3.2
128006	7	Sololá	713	San Lucas Tolimán	10	San Lucas Tolimán	6	Junio	2023-05-06T00:00:00	2024-11-08T02:00:00	7	Dirección del viento	3.22
128007	7	Sololá	713	San Lucas Tolimán	10	San Lucas Tolimán	6	Junio	2023-05-06T00:00:00	2024-11-08T02:00:00	1	Precipitación	0
128008	7	Sololá	713	San Lucas Tolimán	10	San Lucas Tolimán	6	Junio	2023-05-06T00:00:00	2024-11-08T02:00:00	8	Radiación solar	0
128009	7	Sololá	713	San Lucas Tolimán	10	San Lucas Tolimán	6	Junio	2023-05-06T00:00:00	2024-11-08T03:00:00	2	Temperatura media	16.2
128010	7	Sololá	713	San Lucas Tolimán	10	San Lucas Tolimán	6	Junio	2023-05-06T00:00:00	2024-11-08T03:00:00	4	Temperatura máxima	16.4
128011	7	Sololá	713	San Lucas Tolimán	10	San Lucas Tolimán	6	Junio	2023-05-06T00:00:00	2024-11-08T03:00:00	3	Temperatura mínima	15.9
128012	7	Sololá	713	San Lucas Tolimán	10	San Lucas Tolimán	6	Junio	2023-05-06T00:00:00	2024-11-08T03:00:00	5	Humedad	64
128013	7	Sololá	713	San Lucas Tolimán	10	San Lucas Tolimán	6	Junio	2023-05-06T00:00:00	2024-11-08T03:00:00	6	Velocidad del viento	1.6
128014	7	Sololá	713	San Lucas Tolimán	10	San Lucas Tolimán	6	Junio	2023-05-06T00:00:00	2024-11-08T03:00:00	7	Dirección del viento	1.61
128015	7	Sololá	713	San Lucas Tolimán	10	San Lucas Tolimán	6	Junio	2023-05-06T00:00:00	2024-11-08T03:00:00	1	Precipitación	0
128016	7	Sololá	713	San Lucas Tolimán	10	San Lucas Tolimán	6	Junio	2023-05-06T00:00:00	2024-11-08T03:00:00	8	Radiación solar	0
128017	7	Sololá	713	San Lucas Tolimán	10	San Lucas Tolimán	6	Junio	2023-05-06T00:00:00	2024-11-08T04:00:00	2	Temperatura media	15.7
128018	7	Sololá	713	San Lucas Tolimán	10	San Lucas Tolimán	6	Junio	2023-05-06T00:00:00	2024-11-08T04:00:00	4	Temperatura máxima	16.2
128019	7	Sololá	713	San Lucas Tolimán	10	San Lucas Tolimán	6	Junio	2023-05-06T00:00:00	2024-11-08T04:00:00	3	Temperatura mínima	15.6
128020	7	Sololá	713	San Lucas Tolimán	10	San Lucas Tolimán	6	Junio	2023-05-06T00:00:00	2024-11-08T04:00:00	5	Humedad	65
128021	7	Sololá	713	San Lucas Tolimán	10	San Lucas Tolimán	6	Junio	2023-05-06T00:00:00	2024-11-08T04:00:00	6	Velocidad del viento	1.6
128022	7	Sololá	713	San Lucas Tolimán	10	San Lucas Tolimán	6	Junio	2023-05-06T00:00:00	2024-11-08T04:00:00	7	Dirección del viento	1.61
128023	7	Sololá	713	San Lucas Tolimán	10	San Lucas Tolimán	6	Junio	2023-05-06T00:00:00	2024-11-08T04:00:00	1	Precipitación	0
128024	7	Sololá	713	San Lucas Tolimán	10	San Lucas Tolimán	6	Junio	2023-05-06T00:00:00	2024-11-08T04:00:00	8	Radiación solar	0
128025	7	Sololá	713	San Lucas Tolimán	10	San Lucas Tolimán	6	Junio	2023-05-06T00:00:00	2024-11-08T05:00:00	2	Temperatura media	16
128026	7	Sololá	713	San Lucas Tolimán	10	San Lucas Tolimán	6	Junio	2023-05-06T00:00:00	2024-11-08T05:00:00	4	Temperatura máxima	16
128027	7	Sololá	713	San Lucas Tolimán	10	San Lucas Tolimán	6	Junio	2023-05-06T00:00:00	2024-11-08T05:00:00	3	Temperatura mínima	15.3
128028	7	Sololá	713	San Lucas Tolimán	10	San Lucas Tolimán	6	Junio	2023-05-06T00:00:00	2024-11-08T05:00:00	5	Humedad	64
128029	7	Sololá	713	San Lucas Tolimán	10	San Lucas Tolimán	6	Junio	2023-05-06T00:00:00	2024-11-08T05:00:00	6	Velocidad del viento	1.6
128030	7	Sololá	713	San Lucas Tolimán	10	San Lucas Tolimán	6	Junio	2023-05-06T00:00:00	2024-11-08T05:00:00	7	Dirección del viento	1.61
128031	7	Sololá	713	San Lucas Tolimán	10	San Lucas Tolimán	6	Junio	2023-05-06T00:00:00	2024-11-08T05:00:00	1	Precipitación	0
128032	7	Sololá	713	San Lucas Tolimán	10	San Lucas Tolimán	6	Junio	2023-05-06T00:00:00	2024-11-08T05:00:00	8	Radiación solar	0
128033	7	Sololá	713	San Lucas Tolimán	10	San Lucas Tolimán	6	Junio	2023-05-06T00:00:00	2024-11-08T06:00:00	2	Temperatura media	17.3
128034	7	Sololá	713	San Lucas Tolimán	10	San Lucas Tolimán	6	Junio	2023-05-06T00:00:00	2024-11-08T06:00:00	4	Temperatura máxima	17.3
128035	7	Sololá	713	San Lucas Tolimán	10	San Lucas Tolimán	6	Junio	2023-05-06T00:00:00	2024-11-08T06:00:00	3	Temperatura mínima	16
128036	7	Sololá	713	San Lucas Tolimán	10	San Lucas Tolimán	6	Junio	2023-05-06T00:00:00	2024-11-08T06:00:00	5	Humedad	62
128037	7	Sololá	713	San Lucas Tolimán	10	San Lucas Tolimán	6	Junio	2023-05-06T00:00:00	2024-11-08T06:00:00	6	Velocidad del viento	3.2
128038	7	Sololá	713	San Lucas Tolimán	10	San Lucas Tolimán	6	Junio	2023-05-06T00:00:00	2024-11-08T06:00:00	7	Dirección del viento	3.22
128039	7	Sololá	713	San Lucas Tolimán	10	San Lucas Tolimán	6	Junio	2023-05-06T00:00:00	2024-11-08T06:00:00	1	Precipitación	0
128040	7	Sololá	713	San Lucas Tolimán	10	San Lucas Tolimán	6	Junio	2023-05-06T00:00:00	2024-11-08T06:00:00	8	Radiación solar	4
128041	7	Sololá	713	San Lucas Tolimán	10	San Lucas Tolimán	6	Junio	2023-05-06T00:00:00	2024-11-08T07:00:00	2	Temperatura media	18.9
128042	7	Sololá	713	San Lucas Tolimán	10	San Lucas Tolimán	6	Junio	2023-05-06T00:00:00	2024-11-08T07:00:00	4	Temperatura máxima	19
128043	7	Sololá	713	San Lucas Tolimán	10	San Lucas Tolimán	6	Junio	2023-05-06T00:00:00	2024-11-08T07:00:00	3	Temperatura mínima	16.7
128044	7	Sololá	713	San Lucas Tolimán	10	San Lucas Tolimán	6	Junio	2023-05-06T00:00:00	2024-11-08T07:00:00	5	Humedad	60
128045	7	Sololá	713	San Lucas Tolimán	10	San Lucas Tolimán	6	Junio	2023-05-06T00:00:00	2024-11-08T07:00:00	6	Velocidad del viento	1.6
128046	7	Sololá	713	San Lucas Tolimán	10	San Lucas Tolimán	6	Junio	2023-05-06T00:00:00	2024-11-08T07:00:00	7	Dirección del viento	1.61
128047	7	Sololá	713	San Lucas Tolimán	10	San Lucas Tolimán	6	Junio	2023-05-06T00:00:00	2024-11-08T07:00:00	1	Precipitación	0
128048	7	Sololá	713	San Lucas Tolimán	10	San Lucas Tolimán	6	Junio	2023-05-06T00:00:00	2024-11-08T07:00:00	8	Radiación solar	93
128049	7	Sololá	713	San Lucas Tolimán	10	San Lucas Tolimán	6	Junio	2023-05-06T00:00:00	2024-11-08T08:00:00	2	Temperatura media	20.9
128050	7	Sololá	713	San Lucas Tolimán	10	San Lucas Tolimán	6	Junio	2023-05-06T00:00:00	2024-11-08T08:00:00	4	Temperatura máxima	20.9
128051	7	Sololá	713	San Lucas Tolimán	10	San Lucas Tolimán	6	Junio	2023-05-06T00:00:00	2024-11-08T08:00:00	3	Temperatura mínima	19
128052	7	Sololá	713	San Lucas Tolimán	10	San Lucas Tolimán	6	Junio	2023-05-06T00:00:00	2024-11-08T08:00:00	5	Humedad	55
128053	7	Sololá	713	San Lucas Tolimán	10	San Lucas Tolimán	6	Junio	2023-05-06T00:00:00	2024-11-08T08:00:00	6	Velocidad del viento	3.2
128054	7	Sololá	713	San Lucas Tolimán	10	San Lucas Tolimán	6	Junio	2023-05-06T00:00:00	2024-11-08T08:00:00	7	Dirección del viento	3.22
128055	7	Sololá	713	San Lucas Tolimán	10	San Lucas Tolimán	6	Junio	2023-05-06T00:00:00	2024-11-08T08:00:00	1	Precipitación	0
128056	7	Sololá	713	San Lucas Tolimán	10	San Lucas Tolimán	6	Junio	2023-05-06T00:00:00	2024-11-08T08:00:00	8	Radiación solar	367
128057	7	Sololá	713	San Lucas Tolimán	10	San Lucas Tolimán	6	Junio	2023-05-06T00:00:00	2024-11-08T09:00:00	2	Temperatura media	22.1
128058	7	Sololá	713	San Lucas Tolimán	10	San Lucas Tolimán	6	Junio	2023-05-06T00:00:00	2024-11-08T09:00:00	4	Temperatura máxima	22.3
128059	7	Sololá	713	San Lucas Tolimán	10	San Lucas Tolimán	6	Junio	2023-05-06T00:00:00	2024-11-08T09:00:00	3	Temperatura mínima	20.8
128060	7	Sololá	713	San Lucas Tolimán	10	San Lucas Tolimán	6	Junio	2023-05-06T00:00:00	2024-11-08T09:00:00	5	Humedad	52
128061	7	Sololá	713	San Lucas Tolimán	10	San Lucas Tolimán	6	Junio	2023-05-06T00:00:00	2024-11-08T09:00:00	6	Velocidad del viento	3.2
128062	7	Sololá	713	San Lucas Tolimán	10	San Lucas Tolimán	6	Junio	2023-05-06T00:00:00	2024-11-08T09:00:00	7	Dirección del viento	3.22
128063	7	Sololá	713	San Lucas Tolimán	10	San Lucas Tolimán	6	Junio	2023-05-06T00:00:00	2024-11-08T09:00:00	1	Precipitación	0
128064	7	Sololá	713	San Lucas Tolimán	10	San Lucas Tolimán	6	Junio	2023-05-06T00:00:00	2024-11-08T09:00:00	8	Radiación solar	510
128065	7	Sololá	713	San Lucas Tolimán	10	San Lucas Tolimán	6	Junio	2023-05-06T00:00:00	2024-11-08T10:00:00	2	Temperatura media	21.7
128066	7	Sololá	713	San Lucas Tolimán	10	San Lucas Tolimán	6	Junio	2023-05-06T00:00:00	2024-11-08T10:00:00	4	Temperatura máxima	22.4
128067	7	Sololá	713	San Lucas Tolimán	10	San Lucas Tolimán	6	Junio	2023-05-06T00:00:00	2024-11-08T10:00:00	3	Temperatura mínima	21.7
128068	7	Sololá	713	San Lucas Tolimán	10	San Lucas Tolimán	6	Junio	2023-05-06T00:00:00	2024-11-08T10:00:00	5	Humedad	54
128069	7	Sololá	713	San Lucas Tolimán	10	San Lucas Tolimán	6	Junio	2023-05-06T00:00:00	2024-11-08T10:00:00	6	Velocidad del viento	8
128070	7	Sololá	713	San Lucas Tolimán	10	San Lucas Tolimán	6	Junio	2023-05-06T00:00:00	2024-11-08T10:00:00	7	Dirección del viento	8.05
128071	7	Sololá	713	San Lucas Tolimán	10	San Lucas Tolimán	6	Junio	2023-05-06T00:00:00	2024-11-08T10:00:00	1	Precipitación	0
128072	7	Sololá	713	San Lucas Tolimán	10	San Lucas Tolimán	6	Junio	2023-05-06T00:00:00	2024-11-08T10:00:00	8	Radiación solar	565
128073	7	Sololá	713	San Lucas Tolimán	10	San Lucas Tolimán	6	Junio	2023-05-06T00:00:00	2024-11-08T11:00:00	2	Temperatura media	22
128074	7	Sololá	713	San Lucas Tolimán	10	San Lucas Tolimán	6	Junio	2023-05-06T00:00:00	2024-11-08T11:00:00	4	Temperatura máxima	22
128075	7	Sololá	713	San Lucas Tolimán	10	San Lucas Tolimán	6	Junio	2023-05-06T00:00:00	2024-11-08T11:00:00	3	Temperatura mínima	21.3
128076	7	Sololá	713	San Lucas Tolimán	10	San Lucas Tolimán	6	Junio	2023-05-06T00:00:00	2024-11-08T11:00:00	5	Humedad	54
128077	7	Sololá	713	San Lucas Tolimán	10	San Lucas Tolimán	6	Junio	2023-05-06T00:00:00	2024-11-08T11:00:00	6	Velocidad del viento	9.7
128078	7	Sololá	713	San Lucas Tolimán	10	San Lucas Tolimán	6	Junio	2023-05-06T00:00:00	2024-11-08T11:00:00	7	Dirección del viento	9.66
128079	7	Sololá	713	San Lucas Tolimán	10	San Lucas Tolimán	6	Junio	2023-05-06T00:00:00	2024-11-08T11:00:00	1	Precipitación	0
128080	7	Sololá	713	San Lucas Tolimán	10	San Lucas Tolimán	6	Junio	2023-05-06T00:00:00	2024-11-08T11:00:00	8	Radiación solar	648
128081	7	Sololá	713	San Lucas Tolimán	10	San Lucas Tolimán	6	Junio	2023-05-06T00:00:00	2024-11-08T12:00:00	2	Temperatura media	22.9
128082	7	Sololá	713	San Lucas Tolimán	10	San Lucas Tolimán	6	Junio	2023-05-06T00:00:00	2024-11-08T12:00:00	4	Temperatura máxima	22.9
128083	7	Sololá	713	San Lucas Tolimán	10	San Lucas Tolimán	6	Junio	2023-05-06T00:00:00	2024-11-08T12:00:00	3	Temperatura mínima	21.9
128084	7	Sololá	713	San Lucas Tolimán	10	San Lucas Tolimán	6	Junio	2023-05-06T00:00:00	2024-11-08T12:00:00	5	Humedad	55
128085	7	Sololá	713	San Lucas Tolimán	10	San Lucas Tolimán	6	Junio	2023-05-06T00:00:00	2024-11-08T12:00:00	6	Velocidad del viento	8
128086	7	Sololá	713	San Lucas Tolimán	10	San Lucas Tolimán	6	Junio	2023-05-06T00:00:00	2024-11-08T12:00:00	7	Dirección del viento	8.05
128087	7	Sololá	713	San Lucas Tolimán	10	San Lucas Tolimán	6	Junio	2023-05-06T00:00:00	2024-11-08T12:00:00	1	Precipitación	0
128088	7	Sololá	713	San Lucas Tolimán	10	San Lucas Tolimán	6	Junio	2023-05-06T00:00:00	2024-11-08T12:00:00	8	Radiación solar	861
128089	7	Sololá	713	San Lucas Tolimán	10	San Lucas Tolimán	6	Junio	2023-05-06T00:00:00	2024-11-08T13:00:00	2	Temperatura media	24.2
128090	7	Sololá	713	San Lucas Tolimán	10	San Lucas Tolimán	6	Junio	2023-05-06T00:00:00	2024-11-08T13:00:00	4	Temperatura máxima	24.3
128091	7	Sololá	713	San Lucas Tolimán	10	San Lucas Tolimán	6	Junio	2023-05-06T00:00:00	2024-11-08T13:00:00	3	Temperatura mínima	22.3
128092	7	Sololá	713	San Lucas Tolimán	10	San Lucas Tolimán	6	Junio	2023-05-06T00:00:00	2024-11-08T13:00:00	5	Humedad	44
128093	7	Sololá	713	San Lucas Tolimán	10	San Lucas Tolimán	6	Junio	2023-05-06T00:00:00	2024-11-08T13:00:00	6	Velocidad del viento	9.7
128094	7	Sololá	713	San Lucas Tolimán	10	San Lucas Tolimán	6	Junio	2023-05-06T00:00:00	2024-11-08T13:00:00	7	Dirección del viento	9.66
128095	7	Sololá	713	San Lucas Tolimán	10	San Lucas Tolimán	6	Junio	2023-05-06T00:00:00	2024-11-08T13:00:00	1	Precipitación	0
128096	7	Sololá	713	San Lucas Tolimán	10	San Lucas Tolimán	6	Junio	2023-05-06T00:00:00	2024-11-08T13:00:00	8	Radiación solar	954
128097	7	Sololá	713	San Lucas Tolimán	10	San Lucas Tolimán	6	Junio	2023-05-06T00:00:00	2024-11-08T14:00:00	2	Temperatura media	24
128098	7	Sololá	713	San Lucas Tolimán	10	San Lucas Tolimán	6	Junio	2023-05-06T00:00:00	2024-11-08T14:00:00	4	Temperatura máxima	24.8
128099	7	Sololá	713	San Lucas Tolimán	10	San Lucas Tolimán	6	Junio	2023-05-06T00:00:00	2024-11-08T14:00:00	3	Temperatura mínima	24
128100	7	Sololá	713	San Lucas Tolimán	10	San Lucas Tolimán	6	Junio	2023-05-06T00:00:00	2024-11-08T14:00:00	5	Humedad	50
128101	7	Sololá	713	San Lucas Tolimán	10	San Lucas Tolimán	6	Junio	2023-05-06T00:00:00	2024-11-08T14:00:00	6	Velocidad del viento	11.3
128102	7	Sololá	713	San Lucas Tolimán	10	San Lucas Tolimán	6	Junio	2023-05-06T00:00:00	2024-11-08T14:00:00	7	Dirección del viento	11.27
128103	7	Sololá	713	San Lucas Tolimán	10	San Lucas Tolimán	6	Junio	2023-05-06T00:00:00	2024-11-08T14:00:00	1	Precipitación	0
128104	7	Sololá	713	San Lucas Tolimán	10	San Lucas Tolimán	6	Junio	2023-05-06T00:00:00	2024-11-08T14:00:00	8	Radiación solar	944
128105	7	Sololá	713	San Lucas Tolimán	10	San Lucas Tolimán	6	Junio	2023-05-06T00:00:00	2024-11-08T15:00:00	2	Temperatura media	22
128106	7	Sololá	713	San Lucas Tolimán	10	San Lucas Tolimán	6	Junio	2023-05-06T00:00:00	2024-11-08T15:00:00	4	Temperatura máxima	24.2
128107	7	Sololá	713	San Lucas Tolimán	10	San Lucas Tolimán	6	Junio	2023-05-06T00:00:00	2024-11-08T15:00:00	3	Temperatura mínima	21.9
128108	7	Sololá	713	San Lucas Tolimán	10	San Lucas Tolimán	6	Junio	2023-05-06T00:00:00	2024-11-08T15:00:00	5	Humedad	60
128109	7	Sololá	713	San Lucas Tolimán	10	San Lucas Tolimán	6	Junio	2023-05-06T00:00:00	2024-11-08T15:00:00	6	Velocidad del viento	11.3
128110	7	Sololá	713	San Lucas Tolimán	10	San Lucas Tolimán	6	Junio	2023-05-06T00:00:00	2024-11-08T15:00:00	7	Dirección del viento	11.27
128111	7	Sololá	713	San Lucas Tolimán	10	San Lucas Tolimán	6	Junio	2023-05-06T00:00:00	2024-11-08T15:00:00	1	Precipitación	0
128112	7	Sololá	713	San Lucas Tolimán	10	San Lucas Tolimán	6	Junio	2023-05-06T00:00:00	2024-11-08T15:00:00	8	Radiación solar	748
128113	7	Sololá	713	San Lucas Tolimán	10	San Lucas Tolimán	6	Junio	2023-05-06T00:00:00	2024-11-08T16:00:00	2	Temperatura media	20.3
128114	7	Sololá	713	San Lucas Tolimán	10	San Lucas Tolimán	6	Junio	2023-05-06T00:00:00	2024-11-08T16:00:00	4	Temperatura máxima	21.9
128115	7	Sololá	713	San Lucas Tolimán	10	San Lucas Tolimán	6	Junio	2023-05-06T00:00:00	2024-11-08T16:00:00	3	Temperatura mínima	20.3
128116	7	Sololá	713	San Lucas Tolimán	10	San Lucas Tolimán	6	Junio	2023-05-06T00:00:00	2024-11-08T16:00:00	5	Humedad	59
128117	7	Sololá	713	San Lucas Tolimán	10	San Lucas Tolimán	6	Junio	2023-05-06T00:00:00	2024-11-08T16:00:00	6	Velocidad del viento	12.9
128118	7	Sololá	713	San Lucas Tolimán	10	San Lucas Tolimán	6	Junio	2023-05-06T00:00:00	2024-11-08T16:00:00	7	Dirección del viento	12.87
128119	7	Sololá	713	San Lucas Tolimán	10	San Lucas Tolimán	6	Junio	2023-05-06T00:00:00	2024-11-08T16:00:00	1	Precipitación	0
128120	7	Sololá	713	San Lucas Tolimán	10	San Lucas Tolimán	6	Junio	2023-05-06T00:00:00	2024-11-08T16:00:00	8	Radiación solar	365
128121	7	Sololá	713	San Lucas Tolimán	10	San Lucas Tolimán	6	Junio	2023-05-06T00:00:00	2024-11-08T17:00:00	2	Temperatura media	21.1
128122	7	Sololá	713	San Lucas Tolimán	10	San Lucas Tolimán	6	Junio	2023-05-06T00:00:00	2024-11-08T17:00:00	4	Temperatura máxima	21.3
128123	7	Sololá	713	San Lucas Tolimán	10	San Lucas Tolimán	6	Junio	2023-05-06T00:00:00	2024-11-08T17:00:00	3	Temperatura mínima	20.2
128124	7	Sololá	713	San Lucas Tolimán	10	San Lucas Tolimán	6	Junio	2023-05-06T00:00:00	2024-11-08T17:00:00	5	Humedad	56
128125	7	Sololá	713	San Lucas Tolimán	10	San Lucas Tolimán	6	Junio	2023-05-06T00:00:00	2024-11-08T17:00:00	6	Velocidad del viento	6.4
128126	7	Sololá	713	San Lucas Tolimán	10	San Lucas Tolimán	6	Junio	2023-05-06T00:00:00	2024-11-08T17:00:00	7	Dirección del viento	6.44
128127	7	Sololá	713	San Lucas Tolimán	10	San Lucas Tolimán	6	Junio	2023-05-06T00:00:00	2024-11-08T17:00:00	1	Precipitación	0
128128	7	Sololá	713	San Lucas Tolimán	10	San Lucas Tolimán	6	Junio	2023-05-06T00:00:00	2024-11-08T17:00:00	8	Radiación solar	239
128129	7	Sololá	713	San Lucas Tolimán	10	San Lucas Tolimán	6	Junio	2023-05-06T00:00:00	2024-11-08T18:00:00	2	Temperatura media	19.8
128130	7	Sololá	713	San Lucas Tolimán	10	San Lucas Tolimán	6	Junio	2023-05-06T00:00:00	2024-11-08T18:00:00	4	Temperatura máxima	21.2
128131	7	Sololá	713	San Lucas Tolimán	10	San Lucas Tolimán	6	Junio	2023-05-06T00:00:00	2024-11-08T18:00:00	3	Temperatura mínima	19.8
128132	7	Sololá	713	San Lucas Tolimán	10	San Lucas Tolimán	6	Junio	2023-05-06T00:00:00	2024-11-08T18:00:00	5	Humedad	60
128133	7	Sololá	713	San Lucas Tolimán	10	San Lucas Tolimán	6	Junio	2023-05-06T00:00:00	2024-11-08T18:00:00	6	Velocidad del viento	6.4
128134	7	Sololá	713	San Lucas Tolimán	10	San Lucas Tolimán	6	Junio	2023-05-06T00:00:00	2024-11-08T18:00:00	7	Dirección del viento	6.44
128135	7	Sololá	713	San Lucas Tolimán	10	San Lucas Tolimán	6	Junio	2023-05-06T00:00:00	2024-11-08T18:00:00	1	Precipitación	0
128136	7	Sololá	713	San Lucas Tolimán	10	San Lucas Tolimán	6	Junio	2023-05-06T00:00:00	2024-11-08T18:00:00	8	Radiación solar	84
128137	7	Sololá	713	San Lucas Tolimán	10	San Lucas Tolimán	6	Junio	2023-05-06T00:00:00	2024-11-08T19:00:00	2	Temperatura media	19.3
128138	7	Sololá	713	San Lucas Tolimán	10	San Lucas Tolimán	6	Junio	2023-05-06T00:00:00	2024-11-08T19:00:00	4	Temperatura máxima	19.8
128139	7	Sololá	713	San Lucas Tolimán	10	San Lucas Tolimán	6	Junio	2023-05-06T00:00:00	2024-11-08T19:00:00	3	Temperatura mínima	19.3
128140	7	Sololá	713	San Lucas Tolimán	10	San Lucas Tolimán	6	Junio	2023-05-06T00:00:00	2024-11-08T19:00:00	5	Humedad	61
128141	7	Sololá	713	San Lucas Tolimán	10	San Lucas Tolimán	6	Junio	2023-05-06T00:00:00	2024-11-08T19:00:00	6	Velocidad del viento	6.4
128142	7	Sololá	713	San Lucas Tolimán	10	San Lucas Tolimán	6	Junio	2023-05-06T00:00:00	2024-11-08T19:00:00	7	Dirección del viento	6.44
128143	7	Sololá	713	San Lucas Tolimán	10	San Lucas Tolimán	6	Junio	2023-05-06T00:00:00	2024-11-08T19:00:00	1	Precipitación	0
128144	7	Sololá	713	San Lucas Tolimán	10	San Lucas Tolimán	6	Junio	2023-05-06T00:00:00	2024-11-08T19:00:00	8	Radiación solar	0
128145	7	Sololá	713	San Lucas Tolimán	10	San Lucas Tolimán	6	Junio	2023-05-06T00:00:00	2024-11-08T20:00:00	2	Temperatura media	19.2
128146	7	Sololá	713	San Lucas Tolimán	10	San Lucas Tolimán	6	Junio	2023-05-06T00:00:00	2024-11-08T20:00:00	4	Temperatura máxima	19.4
128147	7	Sololá	713	San Lucas Tolimán	10	San Lucas Tolimán	6	Junio	2023-05-06T00:00:00	2024-11-08T20:00:00	3	Temperatura mínima	19.2
128148	7	Sololá	713	San Lucas Tolimán	10	San Lucas Tolimán	6	Junio	2023-05-06T00:00:00	2024-11-08T20:00:00	5	Humedad	61
128149	7	Sololá	713	San Lucas Tolimán	10	San Lucas Tolimán	6	Junio	2023-05-06T00:00:00	2024-11-08T20:00:00	6	Velocidad del viento	4.8
128150	7	Sololá	713	San Lucas Tolimán	10	San Lucas Tolimán	6	Junio	2023-05-06T00:00:00	2024-11-08T20:00:00	7	Dirección del viento	4.83
128151	7	Sololá	713	San Lucas Tolimán	10	San Lucas Tolimán	6	Junio	2023-05-06T00:00:00	2024-11-08T20:00:00	1	Precipitación	0
128152	7	Sololá	713	San Lucas Tolimán	10	San Lucas Tolimán	6	Junio	2023-05-06T00:00:00	2024-11-08T20:00:00	8	Radiación solar	0
128153	7	Sololá	713	San Lucas Tolimán	10	San Lucas Tolimán	6	Junio	2023-05-06T00:00:00	2024-11-08T21:00:00	2	Temperatura media	18.9
128154	7	Sololá	713	San Lucas Tolimán	10	San Lucas Tolimán	6	Junio	2023-05-06T00:00:00	2024-11-08T21:00:00	4	Temperatura máxima	19.4
128155	7	Sololá	713	San Lucas Tolimán	10	San Lucas Tolimán	6	Junio	2023-05-06T00:00:00	2024-11-08T21:00:00	3	Temperatura mínima	18.9
128156	7	Sololá	713	San Lucas Tolimán	10	San Lucas Tolimán	6	Junio	2023-05-06T00:00:00	2024-11-08T21:00:00	5	Humedad	60
128157	7	Sololá	713	San Lucas Tolimán	10	San Lucas Tolimán	6	Junio	2023-05-06T00:00:00	2024-11-08T21:00:00	6	Velocidad del viento	1.6
128158	7	Sololá	713	San Lucas Tolimán	10	San Lucas Tolimán	6	Junio	2023-05-06T00:00:00	2024-11-08T21:00:00	7	Dirección del viento	1.61
128159	7	Sololá	713	San Lucas Tolimán	10	San Lucas Tolimán	6	Junio	2023-05-06T00:00:00	2024-11-08T21:00:00	1	Precipitación	0
128160	7	Sololá	713	San Lucas Tolimán	10	San Lucas Tolimán	6	Junio	2023-05-06T00:00:00	2024-11-08T21:00:00	8	Radiación solar	0
128161	7	Sololá	713	San Lucas Tolimán	10	San Lucas Tolimán	6	Junio	2023-05-06T00:00:00	2024-11-08T22:00:00	2	Temperatura media	18.6
128162	7	Sololá	713	San Lucas Tolimán	10	San Lucas Tolimán	6	Junio	2023-05-06T00:00:00	2024-11-08T22:00:00	4	Temperatura máxima	19.2
128163	7	Sololá	713	San Lucas Tolimán	10	San Lucas Tolimán	6	Junio	2023-05-06T00:00:00	2024-11-08T22:00:00	3	Temperatura mínima	18.6
128164	7	Sololá	713	San Lucas Tolimán	10	San Lucas Tolimán	6	Junio	2023-05-06T00:00:00	2024-11-08T22:00:00	5	Humedad	59
128165	7	Sololá	713	San Lucas Tolimán	10	San Lucas Tolimán	6	Junio	2023-05-06T00:00:00	2024-11-08T22:00:00	6	Velocidad del viento	1.6
128166	7	Sololá	713	San Lucas Tolimán	10	San Lucas Tolimán	6	Junio	2023-05-06T00:00:00	2024-11-08T22:00:00	7	Dirección del viento	1.61
128167	7	Sololá	713	San Lucas Tolimán	10	San Lucas Tolimán	6	Junio	2023-05-06T00:00:00	2024-11-08T22:00:00	1	Precipitación	0
128168	7	Sololá	713	San Lucas Tolimán	10	San Lucas Tolimán	6	Junio	2023-05-06T00:00:00	2024-11-08T22:00:00	8	Radiación solar	0
128169	7	Sololá	713	San Lucas Tolimán	10	San Lucas Tolimán	6	Junio	2023-05-06T00:00:00	2024-11-08T23:00:00	2	Temperatura media	18.9
128170	7	Sololá	713	San Lucas Tolimán	10	San Lucas Tolimán	6	Junio	2023-05-06T00:00:00	2024-11-08T23:00:00	4	Temperatura máxima	18.9
128171	7	Sololá	713	San Lucas Tolimán	10	San Lucas Tolimán	6	Junio	2023-05-06T00:00:00	2024-11-08T23:00:00	3	Temperatura mínima	18.4
128172	7	Sololá	713	San Lucas Tolimán	10	San Lucas Tolimán	6	Junio	2023-05-06T00:00:00	2024-11-08T23:00:00	5	Humedad	58
128173	7	Sololá	713	San Lucas Tolimán	10	San Lucas Tolimán	6	Junio	2023-05-06T00:00:00	2024-11-08T23:00:00	6	Velocidad del viento	1.6
128174	7	Sololá	713	San Lucas Tolimán	10	San Lucas Tolimán	6	Junio	2023-05-06T00:00:00	2024-11-08T23:00:00	7	Dirección del viento	1.61
128175	7	Sololá	713	San Lucas Tolimán	10	San Lucas Tolimán	6	Junio	2023-05-06T00:00:00	2024-11-08T23:00:00	1	Precipitación	0
128176	7	Sololá	713	San Lucas Tolimán	10	San Lucas Tolimán	6	Junio	2023-05-06T00:00:00	2024-11-08T23:00:00	8	Radiación solar	0
128177	7	Sololá	713	San Lucas Tolimán	10	San Lucas Tolimán	6	Junio	2023-06-06T00:00:00	2024-11-08T00:00:00	2	Temperatura media	19.3
128178	7	Sololá	713	San Lucas Tolimán	10	San Lucas Tolimán	6	Junio	2023-06-06T00:00:00	2024-11-08T00:00:00	4	Temperatura máxima	19.3
128179	7	Sololá	713	San Lucas Tolimán	10	San Lucas Tolimán	6	Junio	2023-06-06T00:00:00	2024-11-08T00:00:00	3	Temperatura mínima	18.9
128180	7	Sololá	713	San Lucas Tolimán	10	San Lucas Tolimán	6	Junio	2023-06-06T00:00:00	2024-11-08T00:00:00	5	Humedad	58
128181	7	Sololá	713	San Lucas Tolimán	10	San Lucas Tolimán	6	Junio	2023-06-06T00:00:00	2024-11-08T00:00:00	6	Velocidad del viento	1.6
128182	7	Sololá	713	San Lucas Tolimán	10	San Lucas Tolimán	6	Junio	2023-06-06T00:00:00	2024-11-08T00:00:00	7	Dirección del viento	1.61
128183	7	Sololá	713	San Lucas Tolimán	10	San Lucas Tolimán	6	Junio	2023-06-06T00:00:00	2024-11-08T00:00:00	1	Precipitación	0
128184	7	Sololá	713	San Lucas Tolimán	10	San Lucas Tolimán	6	Junio	2023-06-06T00:00:00	2024-11-08T00:00:00	8	Radiación solar	0
128185	7	Sololá	713	San Lucas Tolimán	10	San Lucas Tolimán	6	Junio	2023-06-06T00:00:00	2024-11-08T01:00:00	2	Temperatura media	18.6
128186	7	Sololá	713	San Lucas Tolimán	10	San Lucas Tolimán	6	Junio	2023-06-06T00:00:00	2024-11-08T01:00:00	4	Temperatura máxima	19.3
128187	7	Sololá	713	San Lucas Tolimán	10	San Lucas Tolimán	6	Junio	2023-06-06T00:00:00	2024-11-08T01:00:00	3	Temperatura mínima	18.6
128188	7	Sololá	713	San Lucas Tolimán	10	San Lucas Tolimán	6	Junio	2023-06-06T00:00:00	2024-11-08T01:00:00	5	Humedad	60
128189	7	Sololá	713	San Lucas Tolimán	10	San Lucas Tolimán	6	Junio	2023-06-06T00:00:00	2024-11-08T01:00:00	6	Velocidad del viento	0
128190	7	Sololá	713	San Lucas Tolimán	10	San Lucas Tolimán	6	Junio	2023-06-06T00:00:00	2024-11-08T01:00:00	7	Dirección del viento	0
128191	7	Sololá	713	San Lucas Tolimán	10	San Lucas Tolimán	6	Junio	2023-06-06T00:00:00	2024-11-08T01:00:00	1	Precipitación	0
128192	7	Sololá	713	San Lucas Tolimán	10	San Lucas Tolimán	6	Junio	2023-06-06T00:00:00	2024-11-08T01:00:00	8	Radiación solar	0
128193	7	Sololá	713	San Lucas Tolimán	10	San Lucas Tolimán	6	Junio	2023-06-06T00:00:00	2024-11-08T02:00:00	2	Temperatura media	17.7
128194	7	Sololá	713	San Lucas Tolimán	10	San Lucas Tolimán	6	Junio	2023-06-06T00:00:00	2024-11-08T02:00:00	4	Temperatura máxima	18.7
128195	7	Sololá	713	San Lucas Tolimán	10	San Lucas Tolimán	6	Junio	2023-06-06T00:00:00	2024-11-08T02:00:00	3	Temperatura mínima	17.6
128196	7	Sololá	713	San Lucas Tolimán	10	San Lucas Tolimán	6	Junio	2023-06-06T00:00:00	2024-11-08T02:00:00	5	Humedad	59
128197	7	Sololá	713	San Lucas Tolimán	10	San Lucas Tolimán	6	Junio	2023-06-06T00:00:00	2024-11-08T02:00:00	6	Velocidad del viento	1.6
128198	7	Sololá	713	San Lucas Tolimán	10	San Lucas Tolimán	6	Junio	2023-06-06T00:00:00	2024-11-08T02:00:00	7	Dirección del viento	1.61
128199	7	Sololá	713	San Lucas Tolimán	10	San Lucas Tolimán	6	Junio	2023-06-06T00:00:00	2024-11-08T02:00:00	1	Precipitación	0
128200	7	Sololá	713	San Lucas Tolimán	10	San Lucas Tolimán	6	Junio	2023-06-06T00:00:00	2024-11-08T02:00:00	8	Radiación solar	0
128201	7	Sololá	713	San Lucas Tolimán	10	San Lucas Tolimán	6	Junio	2023-06-06T00:00:00	2024-11-08T03:00:00	2	Temperatura media	17.1
128202	7	Sololá	713	San Lucas Tolimán	10	San Lucas Tolimán	6	Junio	2023-06-06T00:00:00	2024-11-08T03:00:00	4	Temperatura máxima	17.6
128203	7	Sololá	713	San Lucas Tolimán	10	San Lucas Tolimán	6	Junio	2023-06-06T00:00:00	2024-11-08T03:00:00	3	Temperatura mínima	17.1
128204	7	Sololá	713	San Lucas Tolimán	10	San Lucas Tolimán	6	Junio	2023-06-06T00:00:00	2024-11-08T03:00:00	5	Humedad	60
128205	7	Sololá	713	San Lucas Tolimán	10	San Lucas Tolimán	6	Junio	2023-06-06T00:00:00	2024-11-08T03:00:00	6	Velocidad del viento	0
128206	7	Sololá	713	San Lucas Tolimán	10	San Lucas Tolimán	6	Junio	2023-06-06T00:00:00	2024-11-08T03:00:00	7	Dirección del viento	0
128207	7	Sololá	713	San Lucas Tolimán	10	San Lucas Tolimán	6	Junio	2023-06-06T00:00:00	2024-11-08T03:00:00	1	Precipitación	0
128208	7	Sololá	713	San Lucas Tolimán	10	San Lucas Tolimán	6	Junio	2023-06-06T00:00:00	2024-11-08T03:00:00	8	Radiación solar	0
128209	7	Sololá	713	San Lucas Tolimán	10	San Lucas Tolimán	6	Junio	2023-06-06T00:00:00	2024-11-08T04:00:00	2	Temperatura media	16.8
128210	7	Sololá	713	San Lucas Tolimán	10	San Lucas Tolimán	6	Junio	2023-06-06T00:00:00	2024-11-08T04:00:00	4	Temperatura máxima	17.2
128211	7	Sololá	713	San Lucas Tolimán	10	San Lucas Tolimán	6	Junio	2023-06-06T00:00:00	2024-11-08T04:00:00	3	Temperatura mínima	16.7
128212	7	Sololá	713	San Lucas Tolimán	10	San Lucas Tolimán	6	Junio	2023-06-06T00:00:00	2024-11-08T04:00:00	5	Humedad	58
128213	7	Sololá	713	San Lucas Tolimán	10	San Lucas Tolimán	6	Junio	2023-06-06T00:00:00	2024-11-08T04:00:00	6	Velocidad del viento	1.6
128214	7	Sololá	713	San Lucas Tolimán	10	San Lucas Tolimán	6	Junio	2023-06-06T00:00:00	2024-11-08T04:00:00	7	Dirección del viento	1.61
128215	7	Sololá	713	San Lucas Tolimán	10	San Lucas Tolimán	6	Junio	2023-06-06T00:00:00	2024-11-08T04:00:00	1	Precipitación	0
128216	7	Sololá	713	San Lucas Tolimán	10	San Lucas Tolimán	6	Junio	2023-06-06T00:00:00	2024-11-08T04:00:00	8	Radiación solar	0
128217	7	Sololá	713	San Lucas Tolimán	10	San Lucas Tolimán	6	Junio	2023-06-06T00:00:00	2024-11-08T05:00:00	2	Temperatura media	16.5
128218	7	Sololá	713	San Lucas Tolimán	10	San Lucas Tolimán	6	Junio	2023-06-06T00:00:00	2024-11-08T05:00:00	4	Temperatura máxima	16.8
128219	7	Sololá	713	San Lucas Tolimán	10	San Lucas Tolimán	6	Junio	2023-06-06T00:00:00	2024-11-08T05:00:00	3	Temperatura mínima	16.2
128220	7	Sololá	713	San Lucas Tolimán	10	San Lucas Tolimán	6	Junio	2023-06-06T00:00:00	2024-11-08T05:00:00	5	Humedad	60
128221	7	Sololá	713	San Lucas Tolimán	10	San Lucas Tolimán	6	Junio	2023-06-06T00:00:00	2024-11-08T05:00:00	6	Velocidad del viento	4.8
128222	7	Sololá	713	San Lucas Tolimán	10	San Lucas Tolimán	6	Junio	2023-06-06T00:00:00	2024-11-08T05:00:00	7	Dirección del viento	4.83
128223	7	Sololá	713	San Lucas Tolimán	10	San Lucas Tolimán	6	Junio	2023-06-06T00:00:00	2024-11-08T05:00:00	1	Precipitación	0
128224	7	Sololá	713	San Lucas Tolimán	10	San Lucas Tolimán	6	Junio	2023-06-06T00:00:00	2024-11-08T05:00:00	8	Radiación solar	0
128225	7	Sololá	713	San Lucas Tolimán	10	San Lucas Tolimán	6	Junio	2023-06-06T00:00:00	2024-11-08T06:00:00	2	Temperatura media	16.1
128226	7	Sololá	713	San Lucas Tolimán	10	San Lucas Tolimán	6	Junio	2023-06-06T00:00:00	2024-11-08T06:00:00	4	Temperatura máxima	16.6
128227	7	Sololá	713	San Lucas Tolimán	10	San Lucas Tolimán	6	Junio	2023-06-06T00:00:00	2024-11-08T06:00:00	3	Temperatura mínima	15.9
128228	7	Sololá	713	San Lucas Tolimán	10	San Lucas Tolimán	6	Junio	2023-06-06T00:00:00	2024-11-08T06:00:00	5	Humedad	59
128229	7	Sololá	713	San Lucas Tolimán	10	San Lucas Tolimán	6	Junio	2023-06-06T00:00:00	2024-11-08T06:00:00	6	Velocidad del viento	1.6
128230	7	Sololá	713	San Lucas Tolimán	10	San Lucas Tolimán	6	Junio	2023-06-06T00:00:00	2024-11-08T06:00:00	7	Dirección del viento	1.61
128231	7	Sololá	713	San Lucas Tolimán	10	San Lucas Tolimán	6	Junio	2023-06-06T00:00:00	2024-11-08T06:00:00	1	Precipitación	0
128232	7	Sololá	713	San Lucas Tolimán	10	San Lucas Tolimán	6	Junio	2023-06-06T00:00:00	2024-11-08T06:00:00	8	Radiación solar	4
128233	7	Sololá	713	San Lucas Tolimán	10	San Lucas Tolimán	6	Junio	2023-06-06T00:00:00	2024-11-08T07:00:00	2	Temperatura media	18.4
128234	7	Sololá	713	San Lucas Tolimán	10	San Lucas Tolimán	6	Junio	2023-06-06T00:00:00	2024-11-08T07:00:00	4	Temperatura máxima	18.4
128235	7	Sololá	713	San Lucas Tolimán	10	San Lucas Tolimán	6	Junio	2023-06-06T00:00:00	2024-11-08T07:00:00	3	Temperatura mínima	16.1
128236	7	Sololá	713	San Lucas Tolimán	10	San Lucas Tolimán	6	Junio	2023-06-06T00:00:00	2024-11-08T07:00:00	5	Humedad	56
128237	7	Sololá	713	San Lucas Tolimán	10	San Lucas Tolimán	6	Junio	2023-06-06T00:00:00	2024-11-08T07:00:00	6	Velocidad del viento	0
128238	7	Sololá	713	San Lucas Tolimán	10	San Lucas Tolimán	6	Junio	2023-06-06T00:00:00	2024-11-08T07:00:00	7	Dirección del viento	0
128239	7	Sololá	713	San Lucas Tolimán	10	San Lucas Tolimán	6	Junio	2023-06-06T00:00:00	2024-11-08T07:00:00	1	Precipitación	0
128240	7	Sololá	713	San Lucas Tolimán	10	San Lucas Tolimán	6	Junio	2023-06-06T00:00:00	2024-11-08T07:00:00	8	Radiación solar	108
128241	7	Sololá	713	San Lucas Tolimán	10	San Lucas Tolimán	6	Junio	2023-06-06T00:00:00	2024-11-08T08:00:00	2	Temperatura media	20.5
128242	7	Sololá	713	San Lucas Tolimán	10	San Lucas Tolimán	6	Junio	2023-06-06T00:00:00	2024-11-08T08:00:00	4	Temperatura máxima	20.6
128243	7	Sololá	713	San Lucas Tolimán	10	San Lucas Tolimán	6	Junio	2023-06-06T00:00:00	2024-11-08T08:00:00	3	Temperatura mínima	18.4
128244	7	Sololá	713	San Lucas Tolimán	10	San Lucas Tolimán	6	Junio	2023-06-06T00:00:00	2024-11-08T08:00:00	5	Humedad	55
128245	7	Sololá	713	San Lucas Tolimán	10	San Lucas Tolimán	6	Junio	2023-06-06T00:00:00	2024-11-08T08:00:00	6	Velocidad del viento	1.6
128246	7	Sololá	713	San Lucas Tolimán	10	San Lucas Tolimán	6	Junio	2023-06-06T00:00:00	2024-11-08T08:00:00	7	Dirección del viento	1.61
128247	7	Sololá	713	San Lucas Tolimán	10	San Lucas Tolimán	6	Junio	2023-06-06T00:00:00	2024-11-08T08:00:00	1	Precipitación	0
128248	7	Sololá	713	San Lucas Tolimán	10	San Lucas Tolimán	6	Junio	2023-06-06T00:00:00	2024-11-08T08:00:00	8	Radiación solar	244
128249	7	Sololá	713	San Lucas Tolimán	10	San Lucas Tolimán	6	Junio	2023-06-06T00:00:00	2024-11-08T09:00:00	2	Temperatura media	22
128250	7	Sololá	713	San Lucas Tolimán	10	San Lucas Tolimán	6	Junio	2023-06-06T00:00:00	2024-11-08T09:00:00	4	Temperatura máxima	22
128251	7	Sololá	713	San Lucas Tolimán	10	San Lucas Tolimán	6	Junio	2023-06-06T00:00:00	2024-11-08T09:00:00	3	Temperatura mínima	20.5
128252	7	Sololá	713	San Lucas Tolimán	10	San Lucas Tolimán	6	Junio	2023-06-06T00:00:00	2024-11-08T09:00:00	5	Humedad	48
128253	7	Sololá	713	San Lucas Tolimán	10	San Lucas Tolimán	6	Junio	2023-06-06T00:00:00	2024-11-08T09:00:00	6	Velocidad del viento	3.2
128254	7	Sololá	713	San Lucas Tolimán	10	San Lucas Tolimán	6	Junio	2023-06-06T00:00:00	2024-11-08T09:00:00	7	Dirección del viento	3.22
128255	7	Sololá	713	San Lucas Tolimán	10	San Lucas Tolimán	6	Junio	2023-06-06T00:00:00	2024-11-08T09:00:00	1	Precipitación	0
128256	7	Sololá	713	San Lucas Tolimán	10	San Lucas Tolimán	6	Junio	2023-06-06T00:00:00	2024-11-08T09:00:00	8	Radiación solar	477
128257	7	Sololá	713	San Lucas Tolimán	10	San Lucas Tolimán	6	Junio	2023-06-06T00:00:00	2024-11-08T10:00:00	2	Temperatura media	21.3
128258	7	Sololá	713	San Lucas Tolimán	10	San Lucas Tolimán	6	Junio	2023-06-06T00:00:00	2024-11-08T10:00:00	4	Temperatura máxima	22.2
128259	7	Sololá	713	San Lucas Tolimán	10	San Lucas Tolimán	6	Junio	2023-06-06T00:00:00	2024-11-08T10:00:00	3	Temperatura mínima	20.4
128260	7	Sololá	713	San Lucas Tolimán	10	San Lucas Tolimán	6	Junio	2023-06-06T00:00:00	2024-11-08T10:00:00	5	Humedad	57
128261	7	Sololá	713	San Lucas Tolimán	10	San Lucas Tolimán	6	Junio	2023-06-06T00:00:00	2024-11-08T10:00:00	6	Velocidad del viento	6.4
128262	7	Sololá	713	San Lucas Tolimán	10	San Lucas Tolimán	6	Junio	2023-06-06T00:00:00	2024-11-08T10:00:00	7	Dirección del viento	6.44
128263	7	Sololá	713	San Lucas Tolimán	10	San Lucas Tolimán	6	Junio	2023-06-06T00:00:00	2024-11-08T10:00:00	1	Precipitación	0
128264	7	Sololá	713	San Lucas Tolimán	10	San Lucas Tolimán	6	Junio	2023-06-06T00:00:00	2024-11-08T10:00:00	8	Radiación solar	435
128265	7	Sololá	713	San Lucas Tolimán	10	San Lucas Tolimán	6	Junio	2023-06-06T00:00:00	2024-11-08T11:00:00	2	Temperatura media	22.8
128266	7	Sololá	713	San Lucas Tolimán	10	San Lucas Tolimán	6	Junio	2023-06-06T00:00:00	2024-11-08T11:00:00	4	Temperatura máxima	25.4
128267	7	Sololá	713	San Lucas Tolimán	10	San Lucas Tolimán	6	Junio	2023-06-06T00:00:00	2024-11-08T11:00:00	3	Temperatura mínima	21.1
128268	7	Sololá	713	San Lucas Tolimán	10	San Lucas Tolimán	6	Junio	2023-06-06T00:00:00	2024-11-08T11:00:00	5	Humedad	55
128269	7	Sololá	713	San Lucas Tolimán	10	San Lucas Tolimán	6	Junio	2023-06-06T00:00:00	2024-11-08T11:00:00	6	Velocidad del viento	4.8
128270	7	Sololá	713	San Lucas Tolimán	10	San Lucas Tolimán	6	Junio	2023-06-06T00:00:00	2024-11-08T11:00:00	7	Dirección del viento	4.83
128271	7	Sololá	713	San Lucas Tolimán	10	San Lucas Tolimán	6	Junio	2023-06-06T00:00:00	2024-11-08T11:00:00	1	Precipitación	0
128272	7	Sololá	713	San Lucas Tolimán	10	San Lucas Tolimán	6	Junio	2023-06-06T00:00:00	2024-11-08T11:00:00	8	Radiación solar	850
128273	7	Sololá	713	San Lucas Tolimán	10	San Lucas Tolimán	6	Junio	2023-06-06T00:00:00	2024-11-08T12:00:00	2	Temperatura media	22.9
128274	7	Sololá	713	San Lucas Tolimán	10	San Lucas Tolimán	6	Junio	2023-06-06T00:00:00	2024-11-08T12:00:00	4	Temperatura máxima	23.2
128275	7	Sololá	713	San Lucas Tolimán	10	San Lucas Tolimán	6	Junio	2023-06-06T00:00:00	2024-11-08T12:00:00	3	Temperatura mínima	22.3
128276	7	Sololá	713	San Lucas Tolimán	10	San Lucas Tolimán	6	Junio	2023-06-06T00:00:00	2024-11-08T12:00:00	5	Humedad	56
128277	7	Sololá	713	San Lucas Tolimán	10	San Lucas Tolimán	6	Junio	2023-06-06T00:00:00	2024-11-08T12:00:00	6	Velocidad del viento	11.3
128278	7	Sololá	713	San Lucas Tolimán	10	San Lucas Tolimán	6	Junio	2023-06-06T00:00:00	2024-11-08T12:00:00	7	Dirección del viento	11.27
128279	7	Sololá	713	San Lucas Tolimán	10	San Lucas Tolimán	6	Junio	2023-06-06T00:00:00	2024-11-08T12:00:00	1	Precipitación	0
128280	7	Sololá	713	San Lucas Tolimán	10	San Lucas Tolimán	6	Junio	2023-06-06T00:00:00	2024-11-08T12:00:00	8	Radiación solar	1011
128281	7	Sololá	713	San Lucas Tolimán	10	San Lucas Tolimán	6	Junio	2023-06-06T00:00:00	2024-11-08T13:00:00	2	Temperatura media	23.7
128282	7	Sololá	713	San Lucas Tolimán	10	San Lucas Tolimán	6	Junio	2023-06-06T00:00:00	2024-11-08T13:00:00	4	Temperatura máxima	23.9
128283	7	Sololá	713	San Lucas Tolimán	10	San Lucas Tolimán	6	Junio	2023-06-06T00:00:00	2024-11-08T13:00:00	3	Temperatura mínima	22.8
128284	7	Sololá	713	San Lucas Tolimán	10	San Lucas Tolimán	6	Junio	2023-06-06T00:00:00	2024-11-08T13:00:00	5	Humedad	56
128285	7	Sololá	713	San Lucas Tolimán	10	San Lucas Tolimán	6	Junio	2023-06-06T00:00:00	2024-11-08T13:00:00	6	Velocidad del viento	11.3
128286	7	Sololá	713	San Lucas Tolimán	10	San Lucas Tolimán	6	Junio	2023-06-06T00:00:00	2024-11-08T13:00:00	7	Dirección del viento	11.27
128287	7	Sololá	713	San Lucas Tolimán	10	San Lucas Tolimán	6	Junio	2023-06-06T00:00:00	2024-11-08T13:00:00	1	Precipitación	0
128288	7	Sololá	713	San Lucas Tolimán	10	San Lucas Tolimán	6	Junio	2023-06-06T00:00:00	2024-11-08T13:00:00	8	Radiación solar	1115
128289	7	Sololá	713	San Lucas Tolimán	10	San Lucas Tolimán	6	Junio	2023-06-06T00:00:00	2024-11-08T14:00:00	2	Temperatura media	22.5
128290	7	Sololá	713	San Lucas Tolimán	10	San Lucas Tolimán	6	Junio	2023-06-06T00:00:00	2024-11-08T14:00:00	4	Temperatura máxima	24
128291	7	Sololá	713	San Lucas Tolimán	10	San Lucas Tolimán	6	Junio	2023-06-06T00:00:00	2024-11-08T14:00:00	3	Temperatura mínima	22.5
128292	7	Sololá	713	San Lucas Tolimán	10	San Lucas Tolimán	6	Junio	2023-06-06T00:00:00	2024-11-08T14:00:00	5	Humedad	60
128293	7	Sololá	713	San Lucas Tolimán	10	San Lucas Tolimán	6	Junio	2023-06-06T00:00:00	2024-11-08T14:00:00	6	Velocidad del viento	9.7
128294	7	Sololá	713	San Lucas Tolimán	10	San Lucas Tolimán	6	Junio	2023-06-06T00:00:00	2024-11-08T14:00:00	7	Dirección del viento	9.66
128295	7	Sololá	713	San Lucas Tolimán	10	San Lucas Tolimán	6	Junio	2023-06-06T00:00:00	2024-11-08T14:00:00	1	Precipitación	0
128296	7	Sololá	713	San Lucas Tolimán	10	San Lucas Tolimán	6	Junio	2023-06-06T00:00:00	2024-11-08T14:00:00	8	Radiación solar	858
128297	7	Sololá	713	San Lucas Tolimán	10	San Lucas Tolimán	6	Junio	2023-06-06T00:00:00	2024-11-08T15:00:00	2	Temperatura media	22.3
128298	7	Sololá	713	San Lucas Tolimán	10	San Lucas Tolimán	6	Junio	2023-06-06T00:00:00	2024-11-08T15:00:00	4	Temperatura máxima	22.7
128299	7	Sololá	713	San Lucas Tolimán	10	San Lucas Tolimán	6	Junio	2023-06-06T00:00:00	2024-11-08T15:00:00	3	Temperatura mínima	21.6
128300	7	Sololá	713	San Lucas Tolimán	10	San Lucas Tolimán	6	Junio	2023-06-06T00:00:00	2024-11-08T15:00:00	5	Humedad	61
128301	7	Sololá	713	San Lucas Tolimán	10	San Lucas Tolimán	6	Junio	2023-06-06T00:00:00	2024-11-08T15:00:00	6	Velocidad del viento	9.7
128302	7	Sololá	713	San Lucas Tolimán	10	San Lucas Tolimán	6	Junio	2023-06-06T00:00:00	2024-11-08T15:00:00	7	Dirección del viento	9.66
128303	7	Sololá	713	San Lucas Tolimán	10	San Lucas Tolimán	6	Junio	2023-06-06T00:00:00	2024-11-08T15:00:00	1	Precipitación	0
128304	7	Sololá	713	San Lucas Tolimán	10	San Lucas Tolimán	6	Junio	2023-06-06T00:00:00	2024-11-08T15:00:00	8	Radiación solar	504
128305	7	Sololá	713	San Lucas Tolimán	10	San Lucas Tolimán	6	Junio	2023-06-06T00:00:00	2024-11-08T16:00:00	2	Temperatura media	20.9
128306	7	Sololá	713	San Lucas Tolimán	10	San Lucas Tolimán	6	Junio	2023-06-06T00:00:00	2024-11-08T16:00:00	4	Temperatura máxima	22.4
128307	7	Sololá	713	San Lucas Tolimán	10	San Lucas Tolimán	6	Junio	2023-06-06T00:00:00	2024-11-08T16:00:00	3	Temperatura mínima	20.9
128308	7	Sololá	713	San Lucas Tolimán	10	San Lucas Tolimán	6	Junio	2023-06-06T00:00:00	2024-11-08T16:00:00	5	Humedad	63
128309	7	Sololá	713	San Lucas Tolimán	10	San Lucas Tolimán	6	Junio	2023-06-06T00:00:00	2024-11-08T16:00:00	6	Velocidad del viento	8
128310	7	Sololá	713	San Lucas Tolimán	10	San Lucas Tolimán	6	Junio	2023-06-06T00:00:00	2024-11-08T16:00:00	7	Dirección del viento	8.05
128311	7	Sololá	713	San Lucas Tolimán	10	San Lucas Tolimán	6	Junio	2023-06-06T00:00:00	2024-11-08T16:00:00	1	Precipitación	0
128312	7	Sololá	713	San Lucas Tolimán	10	San Lucas Tolimán	6	Junio	2023-06-06T00:00:00	2024-11-08T16:00:00	8	Radiación solar	263
128313	7	Sololá	713	San Lucas Tolimán	10	San Lucas Tolimán	6	Junio	2023-06-06T00:00:00	2024-11-08T17:00:00	2	Temperatura media	20.8
128314	7	Sololá	713	San Lucas Tolimán	10	San Lucas Tolimán	6	Junio	2023-06-06T00:00:00	2024-11-08T17:00:00	4	Temperatura máxima	20.9
128315	7	Sololá	713	San Lucas Tolimán	10	San Lucas Tolimán	6	Junio	2023-06-06T00:00:00	2024-11-08T17:00:00	3	Temperatura mínima	20.4
128316	7	Sololá	713	San Lucas Tolimán	10	San Lucas Tolimán	6	Junio	2023-06-06T00:00:00	2024-11-08T17:00:00	5	Humedad	62
128317	7	Sololá	713	San Lucas Tolimán	10	San Lucas Tolimán	6	Junio	2023-06-06T00:00:00	2024-11-08T17:00:00	6	Velocidad del viento	6.4
128318	7	Sololá	713	San Lucas Tolimán	10	San Lucas Tolimán	6	Junio	2023-06-06T00:00:00	2024-11-08T17:00:00	7	Dirección del viento	6.44
128319	7	Sololá	713	San Lucas Tolimán	10	San Lucas Tolimán	6	Junio	2023-06-06T00:00:00	2024-11-08T17:00:00	1	Precipitación	0
128320	7	Sololá	713	San Lucas Tolimán	10	San Lucas Tolimán	6	Junio	2023-06-06T00:00:00	2024-11-08T17:00:00	8	Radiación solar	141
128321	7	Sololá	713	San Lucas Tolimán	10	San Lucas Tolimán	6	Junio	2023-06-06T00:00:00	2024-11-08T18:00:00	2	Temperatura media	20.3
128322	7	Sololá	713	San Lucas Tolimán	10	San Lucas Tolimán	6	Junio	2023-06-06T00:00:00	2024-11-08T18:00:00	4	Temperatura máxima	21.3
128323	7	Sololá	713	San Lucas Tolimán	10	San Lucas Tolimán	6	Junio	2023-06-06T00:00:00	2024-11-08T18:00:00	3	Temperatura mínima	20.2
128324	7	Sololá	713	San Lucas Tolimán	10	San Lucas Tolimán	6	Junio	2023-06-06T00:00:00	2024-11-08T18:00:00	5	Humedad	63
128325	7	Sololá	713	San Lucas Tolimán	10	San Lucas Tolimán	6	Junio	2023-06-06T00:00:00	2024-11-08T18:00:00	6	Velocidad del viento	6.4
128326	7	Sololá	713	San Lucas Tolimán	10	San Lucas Tolimán	6	Junio	2023-06-06T00:00:00	2024-11-08T18:00:00	7	Dirección del viento	6.44
128327	7	Sololá	713	San Lucas Tolimán	10	San Lucas Tolimán	6	Junio	2023-06-06T00:00:00	2024-11-08T18:00:00	1	Precipitación	0
128328	7	Sololá	713	San Lucas Tolimán	10	San Lucas Tolimán	6	Junio	2023-06-06T00:00:00	2024-11-08T18:00:00	8	Radiación solar	115
128329	7	Sololá	713	San Lucas Tolimán	10	San Lucas Tolimán	6	Junio	2023-06-06T00:00:00	2024-11-08T19:00:00	2	Temperatura media	20.3
128330	7	Sololá	713	San Lucas Tolimán	10	San Lucas Tolimán	6	Junio	2023-06-06T00:00:00	2024-11-08T19:00:00	4	Temperatura máxima	20.4
128331	7	Sololá	713	San Lucas Tolimán	10	San Lucas Tolimán	6	Junio	2023-06-06T00:00:00	2024-11-08T19:00:00	3	Temperatura mínima	20
128332	7	Sololá	713	San Lucas Tolimán	10	San Lucas Tolimán	6	Junio	2023-06-06T00:00:00	2024-11-08T19:00:00	5	Humedad	62
128333	7	Sololá	713	San Lucas Tolimán	10	San Lucas Tolimán	6	Junio	2023-06-06T00:00:00	2024-11-08T19:00:00	6	Velocidad del viento	3.2
128334	7	Sololá	713	San Lucas Tolimán	10	San Lucas Tolimán	6	Junio	2023-06-06T00:00:00	2024-11-08T19:00:00	7	Dirección del viento	3.22
128335	7	Sololá	713	San Lucas Tolimán	10	San Lucas Tolimán	6	Junio	2023-06-06T00:00:00	2024-11-08T19:00:00	1	Precipitación	0
128336	7	Sololá	713	San Lucas Tolimán	10	San Lucas Tolimán	6	Junio	2023-06-06T00:00:00	2024-11-08T19:00:00	8	Radiación solar	0
128337	7	Sololá	713	San Lucas Tolimán	10	San Lucas Tolimán	6	Junio	2023-06-06T00:00:00	2024-11-08T20:00:00	2	Temperatura media	19.5
128338	7	Sololá	713	San Lucas Tolimán	10	San Lucas Tolimán	6	Junio	2023-06-06T00:00:00	2024-11-08T20:00:00	4	Temperatura máxima	20.3
128339	7	Sololá	713	San Lucas Tolimán	10	San Lucas Tolimán	6	Junio	2023-06-06T00:00:00	2024-11-08T20:00:00	3	Temperatura mínima	19.3
128340	7	Sololá	713	San Lucas Tolimán	10	San Lucas Tolimán	6	Junio	2023-06-06T00:00:00	2024-11-08T20:00:00	5	Humedad	62
128341	7	Sololá	713	San Lucas Tolimán	10	San Lucas Tolimán	6	Junio	2023-06-06T00:00:00	2024-11-08T20:00:00	6	Velocidad del viento	4.8
128342	7	Sololá	713	San Lucas Tolimán	10	San Lucas Tolimán	6	Junio	2023-06-06T00:00:00	2024-11-08T20:00:00	7	Dirección del viento	4.83
128343	7	Sololá	713	San Lucas Tolimán	10	San Lucas Tolimán	6	Junio	2023-06-06T00:00:00	2024-11-08T20:00:00	1	Precipitación	0
128344	7	Sololá	713	San Lucas Tolimán	10	San Lucas Tolimán	6	Junio	2023-06-06T00:00:00	2024-11-08T20:00:00	8	Radiación solar	0
128345	7	Sololá	713	San Lucas Tolimán	10	San Lucas Tolimán	6	Junio	2023-06-06T00:00:00	2024-11-08T21:00:00	2	Temperatura media	18.6
128346	7	Sololá	713	San Lucas Tolimán	10	San Lucas Tolimán	6	Junio	2023-06-06T00:00:00	2024-11-08T21:00:00	4	Temperatura máxima	19.6
128347	7	Sololá	713	San Lucas Tolimán	10	San Lucas Tolimán	6	Junio	2023-06-06T00:00:00	2024-11-08T21:00:00	3	Temperatura mínima	18.6
128348	7	Sololá	713	San Lucas Tolimán	10	San Lucas Tolimán	6	Junio	2023-06-06T00:00:00	2024-11-08T21:00:00	5	Humedad	64
128349	7	Sololá	713	San Lucas Tolimán	10	San Lucas Tolimán	6	Junio	2023-06-06T00:00:00	2024-11-08T21:00:00	6	Velocidad del viento	6.4
128350	7	Sololá	713	San Lucas Tolimán	10	San Lucas Tolimán	6	Junio	2023-06-06T00:00:00	2024-11-08T21:00:00	7	Dirección del viento	6.44
128351	7	Sololá	713	San Lucas Tolimán	10	San Lucas Tolimán	6	Junio	2023-06-06T00:00:00	2024-11-08T21:00:00	1	Precipitación	0
128352	7	Sololá	713	San Lucas Tolimán	10	San Lucas Tolimán	6	Junio	2023-06-06T00:00:00	2024-11-08T21:00:00	8	Radiación solar	0
128353	7	Sololá	713	San Lucas Tolimán	10	San Lucas Tolimán	6	Junio	2023-06-06T00:00:00	2024-11-08T22:00:00	2	Temperatura media	18.8
128354	7	Sololá	713	San Lucas Tolimán	10	San Lucas Tolimán	6	Junio	2023-06-06T00:00:00	2024-11-08T22:00:00	4	Temperatura máxima	18.9
128355	7	Sololá	713	San Lucas Tolimán	10	San Lucas Tolimán	6	Junio	2023-06-06T00:00:00	2024-11-08T22:00:00	3	Temperatura mínima	18.4
128356	7	Sololá	713	San Lucas Tolimán	10	San Lucas Tolimán	6	Junio	2023-06-06T00:00:00	2024-11-08T22:00:00	5	Humedad	61
128357	7	Sololá	713	San Lucas Tolimán	10	San Lucas Tolimán	6	Junio	2023-06-06T00:00:00	2024-11-08T22:00:00	6	Velocidad del viento	4.8
128358	7	Sololá	713	San Lucas Tolimán	10	San Lucas Tolimán	6	Junio	2023-06-06T00:00:00	2024-11-08T22:00:00	7	Dirección del viento	4.83
128359	7	Sololá	713	San Lucas Tolimán	10	San Lucas Tolimán	6	Junio	2023-06-06T00:00:00	2024-11-08T22:00:00	1	Precipitación	0
128360	7	Sololá	713	San Lucas Tolimán	10	San Lucas Tolimán	6	Junio	2023-06-06T00:00:00	2024-11-08T22:00:00	8	Radiación solar	0
128361	7	Sololá	713	San Lucas Tolimán	10	San Lucas Tolimán	6	Junio	2023-06-06T00:00:00	2024-11-08T23:00:00	2	Temperatura media	18.5
128362	7	Sololá	713	San Lucas Tolimán	10	San Lucas Tolimán	6	Junio	2023-06-06T00:00:00	2024-11-08T23:00:00	4	Temperatura máxima	18.9
128363	7	Sololá	713	San Lucas Tolimán	10	San Lucas Tolimán	6	Junio	2023-06-06T00:00:00	2024-11-08T23:00:00	3	Temperatura mínima	18.4
128364	7	Sololá	713	San Lucas Tolimán	10	San Lucas Tolimán	6	Junio	2023-06-06T00:00:00	2024-11-08T23:00:00	5	Humedad	64
128365	7	Sololá	713	San Lucas Tolimán	10	San Lucas Tolimán	6	Junio	2023-06-06T00:00:00	2024-11-08T23:00:00	6	Velocidad del viento	3.2
128366	7	Sololá	713	San Lucas Tolimán	10	San Lucas Tolimán	6	Junio	2023-06-06T00:00:00	2024-11-08T23:00:00	7	Dirección del viento	3.22
128367	7	Sololá	713	San Lucas Tolimán	10	San Lucas Tolimán	6	Junio	2023-06-06T00:00:00	2024-11-08T23:00:00	1	Precipitación	0
128368	7	Sololá	713	San Lucas Tolimán	10	San Lucas Tolimán	6	Junio	2023-06-06T00:00:00	2024-11-08T23:00:00	8	Radiación solar	0
128369	7	Sololá	713	San Lucas Tolimán	10	San Lucas Tolimán	6	Junio	2023-07-06T00:00:00	2024-11-08T00:00:00	2	Temperatura media	18
128370	7	Sololá	713	San Lucas Tolimán	10	San Lucas Tolimán	6	Junio	2023-07-06T00:00:00	2024-11-08T00:00:00	4	Temperatura máxima	18.6
128371	7	Sololá	713	San Lucas Tolimán	10	San Lucas Tolimán	6	Junio	2023-07-06T00:00:00	2024-11-08T00:00:00	3	Temperatura mínima	18
128372	7	Sololá	713	San Lucas Tolimán	10	San Lucas Tolimán	6	Junio	2023-07-06T00:00:00	2024-11-08T00:00:00	5	Humedad	63
128373	7	Sololá	713	San Lucas Tolimán	10	San Lucas Tolimán	6	Junio	2023-07-06T00:00:00	2024-11-08T00:00:00	6	Velocidad del viento	3.2
128374	7	Sololá	713	San Lucas Tolimán	10	San Lucas Tolimán	6	Junio	2023-07-06T00:00:00	2024-11-08T00:00:00	7	Dirección del viento	3.22
128375	7	Sololá	713	San Lucas Tolimán	10	San Lucas Tolimán	6	Junio	2023-07-06T00:00:00	2024-11-08T00:00:00	1	Precipitación	0
128376	7	Sololá	713	San Lucas Tolimán	10	San Lucas Tolimán	6	Junio	2023-07-06T00:00:00	2024-11-08T00:00:00	8	Radiación solar	0
128377	7	Sololá	713	San Lucas Tolimán	10	San Lucas Tolimán	6	Junio	2023-07-06T00:00:00	2024-11-08T01:00:00	2	Temperatura media	17.9
128378	7	Sololá	713	San Lucas Tolimán	10	San Lucas Tolimán	6	Junio	2023-07-06T00:00:00	2024-11-08T01:00:00	4	Temperatura máxima	18.2
128379	7	Sololá	713	San Lucas Tolimán	10	San Lucas Tolimán	6	Junio	2023-07-06T00:00:00	2024-11-08T01:00:00	3	Temperatura mínima	17.8
128380	7	Sololá	713	San Lucas Tolimán	10	San Lucas Tolimán	6	Junio	2023-07-06T00:00:00	2024-11-08T01:00:00	5	Humedad	65
128381	7	Sololá	713	San Lucas Tolimán	10	San Lucas Tolimán	6	Junio	2023-07-06T00:00:00	2024-11-08T01:00:00	6	Velocidad del viento	3.2
128382	7	Sololá	713	San Lucas Tolimán	10	San Lucas Tolimán	6	Junio	2023-07-06T00:00:00	2024-11-08T01:00:00	7	Dirección del viento	3.22
128383	7	Sololá	713	San Lucas Tolimán	10	San Lucas Tolimán	6	Junio	2023-07-06T00:00:00	2024-11-08T01:00:00	1	Precipitación	0
128384	7	Sololá	713	San Lucas Tolimán	10	San Lucas Tolimán	6	Junio	2023-07-06T00:00:00	2024-11-08T01:00:00	8	Radiación solar	0
128385	7	Sololá	713	San Lucas Tolimán	10	San Lucas Tolimán	6	Junio	2023-07-06T00:00:00	2024-11-08T02:00:00	2	Temperatura media	17.6
128386	7	Sololá	713	San Lucas Tolimán	10	San Lucas Tolimán	6	Junio	2023-07-06T00:00:00	2024-11-08T02:00:00	4	Temperatura máxima	17.9
128387	7	Sololá	713	San Lucas Tolimán	10	San Lucas Tolimán	6	Junio	2023-07-06T00:00:00	2024-11-08T02:00:00	3	Temperatura mínima	17.6
128388	7	Sololá	713	San Lucas Tolimán	10	San Lucas Tolimán	6	Junio	2023-07-06T00:00:00	2024-11-08T02:00:00	5	Humedad	68
128389	7	Sololá	713	San Lucas Tolimán	10	San Lucas Tolimán	6	Junio	2023-07-06T00:00:00	2024-11-08T02:00:00	6	Velocidad del viento	4.8
128390	7	Sololá	713	San Lucas Tolimán	10	San Lucas Tolimán	6	Junio	2023-07-06T00:00:00	2024-11-08T02:00:00	7	Dirección del viento	4.83
128391	7	Sololá	713	San Lucas Tolimán	10	San Lucas Tolimán	6	Junio	2023-07-06T00:00:00	2024-11-08T02:00:00	1	Precipitación	0
128392	7	Sololá	713	San Lucas Tolimán	10	San Lucas Tolimán	6	Junio	2023-07-06T00:00:00	2024-11-08T02:00:00	8	Radiación solar	0
128393	7	Sololá	713	San Lucas Tolimán	10	San Lucas Tolimán	6	Junio	2023-07-06T00:00:00	2024-11-08T03:00:00	2	Temperatura media	17.3
128394	7	Sololá	713	San Lucas Tolimán	10	San Lucas Tolimán	6	Junio	2023-07-06T00:00:00	2024-11-08T03:00:00	4	Temperatura máxima	17.6
128395	7	Sololá	713	San Lucas Tolimán	10	San Lucas Tolimán	6	Junio	2023-07-06T00:00:00	2024-11-08T03:00:00	3	Temperatura mínima	17.3
128396	7	Sololá	713	San Lucas Tolimán	10	San Lucas Tolimán	6	Junio	2023-07-06T00:00:00	2024-11-08T03:00:00	5	Humedad	68
128397	7	Sololá	713	San Lucas Tolimán	10	San Lucas Tolimán	6	Junio	2023-07-06T00:00:00	2024-11-08T03:00:00	6	Velocidad del viento	4.8
128398	7	Sololá	713	San Lucas Tolimán	10	San Lucas Tolimán	6	Junio	2023-07-06T00:00:00	2024-11-08T03:00:00	7	Dirección del viento	4.83
128399	7	Sololá	713	San Lucas Tolimán	10	San Lucas Tolimán	6	Junio	2023-07-06T00:00:00	2024-11-08T03:00:00	1	Precipitación	0
128400	7	Sololá	713	San Lucas Tolimán	10	San Lucas Tolimán	6	Junio	2023-07-06T00:00:00	2024-11-08T03:00:00	8	Radiación solar	0
128401	7	Sololá	713	San Lucas Tolimán	10	San Lucas Tolimán	6	Junio	2023-07-06T00:00:00	2024-11-08T04:00:00	2	Temperatura media	17.3
128402	7	Sololá	713	San Lucas Tolimán	10	San Lucas Tolimán	6	Junio	2023-07-06T00:00:00	2024-11-08T04:00:00	4	Temperatura máxima	17.6
128403	7	Sololá	713	San Lucas Tolimán	10	San Lucas Tolimán	6	Junio	2023-07-06T00:00:00	2024-11-08T04:00:00	3	Temperatura mínima	17.3
128404	7	Sololá	713	San Lucas Tolimán	10	San Lucas Tolimán	6	Junio	2023-07-06T00:00:00	2024-11-08T04:00:00	5	Humedad	67
128405	7	Sololá	713	San Lucas Tolimán	10	San Lucas Tolimán	6	Junio	2023-07-06T00:00:00	2024-11-08T04:00:00	6	Velocidad del viento	1.6
128406	7	Sololá	713	San Lucas Tolimán	10	San Lucas Tolimán	6	Junio	2023-07-06T00:00:00	2024-11-08T04:00:00	7	Dirección del viento	1.61
128407	7	Sololá	713	San Lucas Tolimán	10	San Lucas Tolimán	6	Junio	2023-07-06T00:00:00	2024-11-08T04:00:00	1	Precipitación	0
128408	7	Sololá	713	San Lucas Tolimán	10	San Lucas Tolimán	6	Junio	2023-07-06T00:00:00	2024-11-08T04:00:00	8	Radiación solar	0
128409	7	Sololá	713	San Lucas Tolimán	10	San Lucas Tolimán	6	Junio	2023-07-06T00:00:00	2024-11-08T05:00:00	2	Temperatura media	17.1
128410	7	Sololá	713	San Lucas Tolimán	10	San Lucas Tolimán	6	Junio	2023-07-06T00:00:00	2024-11-08T05:00:00	4	Temperatura máxima	17.3
128411	7	Sololá	713	San Lucas Tolimán	10	San Lucas Tolimán	6	Junio	2023-07-06T00:00:00	2024-11-08T05:00:00	3	Temperatura mínima	17
128412	7	Sololá	713	San Lucas Tolimán	10	San Lucas Tolimán	6	Junio	2023-07-06T00:00:00	2024-11-08T05:00:00	5	Humedad	64
128413	7	Sololá	713	San Lucas Tolimán	10	San Lucas Tolimán	6	Junio	2023-07-06T00:00:00	2024-11-08T05:00:00	6	Velocidad del viento	0
128414	7	Sololá	713	San Lucas Tolimán	10	San Lucas Tolimán	6	Junio	2023-07-06T00:00:00	2024-11-08T05:00:00	7	Dirección del viento	0
128415	7	Sololá	713	San Lucas Tolimán	10	San Lucas Tolimán	6	Junio	2023-07-06T00:00:00	2024-11-08T05:00:00	1	Precipitación	0
128416	7	Sololá	713	San Lucas Tolimán	10	San Lucas Tolimán	6	Junio	2023-07-06T00:00:00	2024-11-08T05:00:00	8	Radiación solar	0
128417	7	Sololá	713	San Lucas Tolimán	10	San Lucas Tolimán	6	Junio	2023-07-06T00:00:00	2024-11-08T06:00:00	2	Temperatura media	16.9
128418	7	Sololá	713	San Lucas Tolimán	10	San Lucas Tolimán	6	Junio	2023-07-06T00:00:00	2024-11-08T06:00:00	4	Temperatura máxima	17.2
128419	7	Sololá	713	San Lucas Tolimán	10	San Lucas Tolimán	6	Junio	2023-07-06T00:00:00	2024-11-08T06:00:00	3	Temperatura mínima	16.9
128420	7	Sololá	713	San Lucas Tolimán	10	San Lucas Tolimán	6	Junio	2023-07-06T00:00:00	2024-11-08T06:00:00	5	Humedad	63
128421	7	Sololá	713	San Lucas Tolimán	10	San Lucas Tolimán	6	Junio	2023-07-06T00:00:00	2024-11-08T06:00:00	6	Velocidad del viento	0
128422	7	Sololá	713	San Lucas Tolimán	10	San Lucas Tolimán	6	Junio	2023-07-06T00:00:00	2024-11-08T06:00:00	7	Dirección del viento	0
128423	7	Sololá	713	San Lucas Tolimán	10	San Lucas Tolimán	6	Junio	2023-07-06T00:00:00	2024-11-08T06:00:00	1	Precipitación	0
128424	7	Sololá	713	San Lucas Tolimán	10	San Lucas Tolimán	6	Junio	2023-07-06T00:00:00	2024-11-08T06:00:00	8	Radiación solar	4
128425	7	Sololá	713	San Lucas Tolimán	10	San Lucas Tolimán	6	Junio	2023-07-06T00:00:00	2024-11-08T07:00:00	2	Temperatura media	18.2
128426	7	Sololá	713	San Lucas Tolimán	10	San Lucas Tolimán	6	Junio	2023-07-06T00:00:00	2024-11-08T07:00:00	4	Temperatura máxima	18.2
128427	7	Sololá	713	San Lucas Tolimán	10	San Lucas Tolimán	6	Junio	2023-07-06T00:00:00	2024-11-08T07:00:00	3	Temperatura mínima	16.8
128428	7	Sololá	713	San Lucas Tolimán	10	San Lucas Tolimán	6	Junio	2023-07-06T00:00:00	2024-11-08T07:00:00	5	Humedad	61
128429	7	Sololá	713	San Lucas Tolimán	10	San Lucas Tolimán	6	Junio	2023-07-06T00:00:00	2024-11-08T07:00:00	6	Velocidad del viento	3.2
128430	7	Sololá	713	San Lucas Tolimán	10	San Lucas Tolimán	6	Junio	2023-07-06T00:00:00	2024-11-08T07:00:00	7	Dirección del viento	3.22
128431	7	Sololá	713	San Lucas Tolimán	10	San Lucas Tolimán	6	Junio	2023-07-06T00:00:00	2024-11-08T07:00:00	1	Precipitación	0
128432	7	Sololá	713	San Lucas Tolimán	10	San Lucas Tolimán	6	Junio	2023-07-06T00:00:00	2024-11-08T07:00:00	8	Radiación solar	84
128433	7	Sololá	713	San Lucas Tolimán	10	San Lucas Tolimán	6	Junio	2023-07-06T00:00:00	2024-11-08T08:00:00	2	Temperatura media	19.6
128434	7	Sololá	713	San Lucas Tolimán	10	San Lucas Tolimán	6	Junio	2023-07-06T00:00:00	2024-11-08T08:00:00	4	Temperatura máxima	19.6
128435	7	Sololá	713	San Lucas Tolimán	10	San Lucas Tolimán	6	Junio	2023-07-06T00:00:00	2024-11-08T08:00:00	3	Temperatura mínima	18.2
128436	7	Sololá	713	San Lucas Tolimán	10	San Lucas Tolimán	6	Junio	2023-07-06T00:00:00	2024-11-08T08:00:00	5	Humedad	59
128437	7	Sololá	713	San Lucas Tolimán	10	San Lucas Tolimán	6	Junio	2023-07-06T00:00:00	2024-11-08T08:00:00	6	Velocidad del viento	4.8
128438	7	Sololá	713	San Lucas Tolimán	10	San Lucas Tolimán	6	Junio	2023-07-06T00:00:00	2024-11-08T08:00:00	7	Dirección del viento	4.83
128439	7	Sololá	713	San Lucas Tolimán	10	San Lucas Tolimán	6	Junio	2023-07-06T00:00:00	2024-11-08T08:00:00	1	Precipitación	0
128440	7	Sololá	713	San Lucas Tolimán	10	San Lucas Tolimán	6	Junio	2023-07-06T00:00:00	2024-11-08T08:00:00	8	Radiación solar	228
128441	7	Sololá	713	San Lucas Tolimán	10	San Lucas Tolimán	6	Junio	2023-07-06T00:00:00	2024-11-08T09:00:00	2	Temperatura media	21.6
128442	7	Sololá	713	San Lucas Tolimán	10	San Lucas Tolimán	6	Junio	2023-07-06T00:00:00	2024-11-08T09:00:00	4	Temperatura máxima	21.9
128443	7	Sololá	713	San Lucas Tolimán	10	San Lucas Tolimán	6	Junio	2023-07-06T00:00:00	2024-11-08T09:00:00	3	Temperatura mínima	19.6
128444	7	Sololá	713	San Lucas Tolimán	10	San Lucas Tolimán	6	Junio	2023-07-06T00:00:00	2024-11-08T09:00:00	5	Humedad	59
128445	7	Sololá	713	San Lucas Tolimán	10	San Lucas Tolimán	6	Junio	2023-07-06T00:00:00	2024-11-08T09:00:00	6	Velocidad del viento	3.2
128446	7	Sololá	713	San Lucas Tolimán	10	San Lucas Tolimán	6	Junio	2023-07-06T00:00:00	2024-11-08T09:00:00	7	Dirección del viento	3.22
128447	7	Sololá	713	San Lucas Tolimán	10	San Lucas Tolimán	6	Junio	2023-07-06T00:00:00	2024-11-08T09:00:00	1	Precipitación	0
128448	7	Sololá	713	San Lucas Tolimán	10	San Lucas Tolimán	6	Junio	2023-07-06T00:00:00	2024-11-08T09:00:00	8	Radiación solar	531
128449	7	Sololá	713	San Lucas Tolimán	10	San Lucas Tolimán	6	Junio	2023-07-06T00:00:00	2024-11-08T10:00:00	2	Temperatura media	22.9
128450	7	Sololá	713	San Lucas Tolimán	10	San Lucas Tolimán	6	Junio	2023-07-06T00:00:00	2024-11-08T10:00:00	4	Temperatura máxima	22.9
128451	7	Sololá	713	San Lucas Tolimán	10	San Lucas Tolimán	6	Junio	2023-07-06T00:00:00	2024-11-08T10:00:00	3	Temperatura mínima	21.3
128452	7	Sololá	713	San Lucas Tolimán	10	San Lucas Tolimán	6	Junio	2023-07-06T00:00:00	2024-11-08T10:00:00	5	Humedad	57
128453	7	Sololá	713	San Lucas Tolimán	10	San Lucas Tolimán	6	Junio	2023-07-06T00:00:00	2024-11-08T10:00:00	6	Velocidad del viento	4.8
128454	7	Sololá	713	San Lucas Tolimán	10	San Lucas Tolimán	6	Junio	2023-07-06T00:00:00	2024-11-08T10:00:00	7	Dirección del viento	4.83
128455	7	Sololá	713	San Lucas Tolimán	10	San Lucas Tolimán	6	Junio	2023-07-06T00:00:00	2024-11-08T10:00:00	1	Precipitación	0
128456	7	Sololá	713	San Lucas Tolimán	10	San Lucas Tolimán	6	Junio	2023-07-06T00:00:00	2024-11-08T10:00:00	8	Radiación solar	672
128457	7	Sololá	713	San Lucas Tolimán	10	San Lucas Tolimán	6	Junio	2023-07-06T00:00:00	2024-11-08T11:00:00	2	Temperatura media	22.6
128458	7	Sololá	713	San Lucas Tolimán	10	San Lucas Tolimán	6	Junio	2023-07-06T00:00:00	2024-11-08T11:00:00	4	Temperatura máxima	23.3
128459	7	Sololá	713	San Lucas Tolimán	10	San Lucas Tolimán	6	Junio	2023-07-06T00:00:00	2024-11-08T11:00:00	3	Temperatura mínima	22.5
128460	7	Sololá	713	San Lucas Tolimán	10	San Lucas Tolimán	6	Junio	2023-07-06T00:00:00	2024-11-08T11:00:00	5	Humedad	58
128461	7	Sololá	713	San Lucas Tolimán	10	San Lucas Tolimán	6	Junio	2023-07-06T00:00:00	2024-11-08T11:00:00	6	Velocidad del viento	11.3
128462	7	Sololá	713	San Lucas Tolimán	10	San Lucas Tolimán	6	Junio	2023-07-06T00:00:00	2024-11-08T11:00:00	7	Dirección del viento	11.27
128463	7	Sololá	713	San Lucas Tolimán	10	San Lucas Tolimán	6	Junio	2023-07-06T00:00:00	2024-11-08T11:00:00	1	Precipitación	0
128464	7	Sololá	713	San Lucas Tolimán	10	San Lucas Tolimán	6	Junio	2023-07-06T00:00:00	2024-11-08T11:00:00	8	Radiación solar	976
128465	7	Sololá	713	San Lucas Tolimán	10	San Lucas Tolimán	6	Junio	2023-07-06T00:00:00	2024-11-08T12:00:00	2	Temperatura media	22.2
128466	7	Sololá	713	San Lucas Tolimán	10	San Lucas Tolimán	6	Junio	2023-07-06T00:00:00	2024-11-08T12:00:00	4	Temperatura máxima	23.1
128467	7	Sololá	713	San Lucas Tolimán	10	San Lucas Tolimán	6	Junio	2023-07-06T00:00:00	2024-11-08T12:00:00	3	Temperatura mínima	21.9
128468	7	Sololá	713	San Lucas Tolimán	10	San Lucas Tolimán	6	Junio	2023-07-06T00:00:00	2024-11-08T12:00:00	5	Humedad	62
128469	7	Sololá	713	San Lucas Tolimán	10	San Lucas Tolimán	6	Junio	2023-07-06T00:00:00	2024-11-08T12:00:00	6	Velocidad del viento	12.9
128470	7	Sololá	713	San Lucas Tolimán	10	San Lucas Tolimán	6	Junio	2023-07-06T00:00:00	2024-11-08T12:00:00	7	Dirección del viento	12.87
128471	7	Sololá	713	San Lucas Tolimán	10	San Lucas Tolimán	6	Junio	2023-07-06T00:00:00	2024-11-08T12:00:00	1	Precipitación	0
128472	7	Sololá	713	San Lucas Tolimán	10	San Lucas Tolimán	6	Junio	2023-07-06T00:00:00	2024-11-08T12:00:00	8	Radiación solar	1076
128473	7	Sololá	713	San Lucas Tolimán	10	San Lucas Tolimán	6	Junio	2023-07-06T00:00:00	2024-11-08T13:00:00	2	Temperatura media	22
128474	7	Sololá	713	San Lucas Tolimán	10	San Lucas Tolimán	6	Junio	2023-07-06T00:00:00	2024-11-08T13:00:00	4	Temperatura máxima	22.3
128475	7	Sololá	713	San Lucas Tolimán	10	San Lucas Tolimán	6	Junio	2023-07-06T00:00:00	2024-11-08T13:00:00	3	Temperatura mínima	21.2
128476	7	Sololá	713	San Lucas Tolimán	10	San Lucas Tolimán	6	Junio	2023-07-06T00:00:00	2024-11-08T13:00:00	5	Humedad	62
128477	7	Sololá	713	San Lucas Tolimán	10	San Lucas Tolimán	6	Junio	2023-07-06T00:00:00	2024-11-08T13:00:00	6	Velocidad del viento	11.3
128478	7	Sololá	713	San Lucas Tolimán	10	San Lucas Tolimán	6	Junio	2023-07-06T00:00:00	2024-11-08T13:00:00	7	Dirección del viento	11.27
128479	7	Sololá	713	San Lucas Tolimán	10	San Lucas Tolimán	6	Junio	2023-07-06T00:00:00	2024-11-08T13:00:00	1	Precipitación	0
128480	7	Sololá	713	San Lucas Tolimán	10	San Lucas Tolimán	6	Junio	2023-07-06T00:00:00	2024-11-08T13:00:00	8	Radiación solar	577
128481	7	Sololá	713	San Lucas Tolimán	10	San Lucas Tolimán	6	Junio	2023-07-06T00:00:00	2024-11-08T14:00:00	2	Temperatura media	21.4
128482	7	Sololá	713	San Lucas Tolimán	10	San Lucas Tolimán	6	Junio	2023-07-06T00:00:00	2024-11-08T14:00:00	4	Temperatura máxima	22.1
128483	7	Sololá	713	San Lucas Tolimán	10	San Lucas Tolimán	6	Junio	2023-07-06T00:00:00	2024-11-08T14:00:00	3	Temperatura mínima	21.2
128484	7	Sololá	713	San Lucas Tolimán	10	San Lucas Tolimán	6	Junio	2023-07-06T00:00:00	2024-11-08T14:00:00	5	Humedad	63
128485	7	Sololá	713	San Lucas Tolimán	10	San Lucas Tolimán	6	Junio	2023-07-06T00:00:00	2024-11-08T14:00:00	6	Velocidad del viento	8
128486	7	Sololá	713	San Lucas Tolimán	10	San Lucas Tolimán	6	Junio	2023-07-06T00:00:00	2024-11-08T14:00:00	7	Dirección del viento	8.05
128487	7	Sololá	713	San Lucas Tolimán	10	San Lucas Tolimán	6	Junio	2023-07-06T00:00:00	2024-11-08T14:00:00	1	Precipitación	0
128488	7	Sololá	713	San Lucas Tolimán	10	San Lucas Tolimán	6	Junio	2023-07-06T00:00:00	2024-11-08T14:00:00	8	Radiación solar	382
128489	7	Sololá	713	San Lucas Tolimán	10	San Lucas Tolimán	6	Junio	2023-07-06T00:00:00	2024-11-08T15:00:00	2	Temperatura media	20.7
128490	7	Sololá	713	San Lucas Tolimán	10	San Lucas Tolimán	6	Junio	2023-07-06T00:00:00	2024-11-08T15:00:00	4	Temperatura máxima	21.6
128491	7	Sololá	713	San Lucas Tolimán	10	San Lucas Tolimán	6	Junio	2023-07-06T00:00:00	2024-11-08T15:00:00	3	Temperatura mínima	20.2
128492	7	Sololá	713	San Lucas Tolimán	10	San Lucas Tolimán	6	Junio	2023-07-06T00:00:00	2024-11-08T15:00:00	5	Humedad	63
128493	7	Sololá	713	San Lucas Tolimán	10	San Lucas Tolimán	6	Junio	2023-07-06T00:00:00	2024-11-08T15:00:00	6	Velocidad del viento	8
128494	7	Sololá	713	San Lucas Tolimán	10	San Lucas Tolimán	6	Junio	2023-07-06T00:00:00	2024-11-08T15:00:00	7	Dirección del viento	8.05
128495	7	Sololá	713	San Lucas Tolimán	10	San Lucas Tolimán	6	Junio	2023-07-06T00:00:00	2024-11-08T15:00:00	1	Precipitación	0
128496	7	Sololá	713	San Lucas Tolimán	10	San Lucas Tolimán	6	Junio	2023-07-06T00:00:00	2024-11-08T15:00:00	8	Radiación solar	330
128497	7	Sololá	713	San Lucas Tolimán	10	San Lucas Tolimán	6	Junio	2023-07-06T00:00:00	2024-11-08T16:00:00	2	Temperatura media	19.8
128498	7	Sololá	713	San Lucas Tolimán	10	San Lucas Tolimán	6	Junio	2023-07-06T00:00:00	2024-11-08T16:00:00	4	Temperatura máxima	21
128499	7	Sololá	713	San Lucas Tolimán	10	San Lucas Tolimán	6	Junio	2023-07-06T00:00:00	2024-11-08T16:00:00	3	Temperatura mínima	19.7
128500	7	Sololá	713	San Lucas Tolimán	10	San Lucas Tolimán	6	Junio	2023-07-06T00:00:00	2024-11-08T16:00:00	5	Humedad	62
128501	7	Sololá	713	San Lucas Tolimán	10	San Lucas Tolimán	6	Junio	2023-07-06T00:00:00	2024-11-08T16:00:00	6	Velocidad del viento	8
128502	7	Sololá	713	San Lucas Tolimán	10	San Lucas Tolimán	6	Junio	2023-07-06T00:00:00	2024-11-08T16:00:00	7	Dirección del viento	8.05
128503	7	Sololá	713	San Lucas Tolimán	10	San Lucas Tolimán	6	Junio	2023-07-06T00:00:00	2024-11-08T16:00:00	1	Precipitación	0
128504	7	Sololá	713	San Lucas Tolimán	10	San Lucas Tolimán	6	Junio	2023-07-06T00:00:00	2024-11-08T16:00:00	8	Radiación solar	293
128505	7	Sololá	713	San Lucas Tolimán	10	San Lucas Tolimán	6	Junio	2023-07-06T00:00:00	2024-11-08T17:00:00	2	Temperatura media	20.1
128506	7	Sololá	713	San Lucas Tolimán	10	San Lucas Tolimán	6	Junio	2023-07-06T00:00:00	2024-11-08T17:00:00	4	Temperatura máxima	21.2
128507	7	Sololá	713	San Lucas Tolimán	10	San Lucas Tolimán	6	Junio	2023-07-06T00:00:00	2024-11-08T17:00:00	3	Temperatura mínima	19.7
128508	7	Sololá	713	San Lucas Tolimán	10	San Lucas Tolimán	6	Junio	2023-07-06T00:00:00	2024-11-08T17:00:00	5	Humedad	62
128509	7	Sololá	713	San Lucas Tolimán	10	San Lucas Tolimán	6	Junio	2023-07-06T00:00:00	2024-11-08T17:00:00	6	Velocidad del viento	8
128510	7	Sololá	713	San Lucas Tolimán	10	San Lucas Tolimán	6	Junio	2023-07-06T00:00:00	2024-11-08T17:00:00	7	Dirección del viento	8.05
128511	7	Sololá	713	San Lucas Tolimán	10	San Lucas Tolimán	6	Junio	2023-07-06T00:00:00	2024-11-08T17:00:00	1	Precipitación	0
128512	7	Sololá	713	San Lucas Tolimán	10	San Lucas Tolimán	6	Junio	2023-07-06T00:00:00	2024-11-08T17:00:00	8	Radiación solar	268
128513	7	Sololá	713	San Lucas Tolimán	10	San Lucas Tolimán	6	Junio	2023-07-06T00:00:00	2024-11-08T18:00:00	2	Temperatura media	19.3
128514	7	Sololá	713	San Lucas Tolimán	10	San Lucas Tolimán	6	Junio	2023-07-06T00:00:00	2024-11-08T18:00:00	4	Temperatura máxima	20.1
128515	7	Sololá	713	San Lucas Tolimán	10	San Lucas Tolimán	6	Junio	2023-07-06T00:00:00	2024-11-08T18:00:00	3	Temperatura mínima	19.3
128516	7	Sololá	713	San Lucas Tolimán	10	San Lucas Tolimán	6	Junio	2023-07-06T00:00:00	2024-11-08T18:00:00	5	Humedad	63
128517	7	Sololá	713	San Lucas Tolimán	10	San Lucas Tolimán	6	Junio	2023-07-06T00:00:00	2024-11-08T18:00:00	6	Velocidad del viento	8
128518	7	Sololá	713	San Lucas Tolimán	10	San Lucas Tolimán	6	Junio	2023-07-06T00:00:00	2024-11-08T18:00:00	7	Dirección del viento	8.05
128519	7	Sololá	713	San Lucas Tolimán	10	San Lucas Tolimán	6	Junio	2023-07-06T00:00:00	2024-11-08T18:00:00	1	Precipitación	0
128520	7	Sololá	713	San Lucas Tolimán	10	San Lucas Tolimán	6	Junio	2023-07-06T00:00:00	2024-11-08T18:00:00	8	Radiación solar	44
128521	7	Sololá	713	San Lucas Tolimán	10	San Lucas Tolimán	6	Junio	2023-07-06T00:00:00	2024-11-08T19:00:00	2	Temperatura media	19.3
128522	7	Sololá	713	San Lucas Tolimán	10	San Lucas Tolimán	6	Junio	2023-07-06T00:00:00	2024-11-08T19:00:00	4	Temperatura máxima	19.5
128523	7	Sololá	713	San Lucas Tolimán	10	San Lucas Tolimán	6	Junio	2023-07-06T00:00:00	2024-11-08T19:00:00	3	Temperatura mínima	19.2
128524	7	Sololá	713	San Lucas Tolimán	10	San Lucas Tolimán	6	Junio	2023-07-06T00:00:00	2024-11-08T19:00:00	5	Humedad	63
128525	7	Sololá	713	San Lucas Tolimán	10	San Lucas Tolimán	6	Junio	2023-07-06T00:00:00	2024-11-08T19:00:00	6	Velocidad del viento	4.8
128526	7	Sololá	713	San Lucas Tolimán	10	San Lucas Tolimán	6	Junio	2023-07-06T00:00:00	2024-11-08T19:00:00	7	Dirección del viento	4.83
128527	7	Sololá	713	San Lucas Tolimán	10	San Lucas Tolimán	6	Junio	2023-07-06T00:00:00	2024-11-08T19:00:00	1	Precipitación	0
128528	7	Sololá	713	San Lucas Tolimán	10	San Lucas Tolimán	6	Junio	2023-07-06T00:00:00	2024-11-08T19:00:00	8	Radiación solar	0
128529	7	Sololá	713	San Lucas Tolimán	10	San Lucas Tolimán	6	Junio	2023-07-06T00:00:00	2024-11-08T20:00:00	2	Temperatura media	18.8
128530	7	Sololá	713	San Lucas Tolimán	10	San Lucas Tolimán	6	Junio	2023-07-06T00:00:00	2024-11-08T20:00:00	4	Temperatura máxima	19.3
128531	7	Sololá	713	San Lucas Tolimán	10	San Lucas Tolimán	6	Junio	2023-07-06T00:00:00	2024-11-08T20:00:00	3	Temperatura mínima	18.8
128532	7	Sololá	713	San Lucas Tolimán	10	San Lucas Tolimán	6	Junio	2023-07-06T00:00:00	2024-11-08T20:00:00	5	Humedad	66
128533	7	Sololá	713	San Lucas Tolimán	10	San Lucas Tolimán	6	Junio	2023-07-06T00:00:00	2024-11-08T20:00:00	6	Velocidad del viento	4.8
128534	7	Sololá	713	San Lucas Tolimán	10	San Lucas Tolimán	6	Junio	2023-07-06T00:00:00	2024-11-08T20:00:00	7	Dirección del viento	4.83
128535	7	Sololá	713	San Lucas Tolimán	10	San Lucas Tolimán	6	Junio	2023-07-06T00:00:00	2024-11-08T20:00:00	1	Precipitación	0
128536	7	Sololá	713	San Lucas Tolimán	10	San Lucas Tolimán	6	Junio	2023-07-06T00:00:00	2024-11-08T20:00:00	8	Radiación solar	0
128537	7	Sololá	713	San Lucas Tolimán	10	San Lucas Tolimán	6	Junio	2023-07-06T00:00:00	2024-11-08T21:00:00	2	Temperatura media	18.4
128538	7	Sololá	713	San Lucas Tolimán	10	San Lucas Tolimán	6	Junio	2023-07-06T00:00:00	2024-11-08T21:00:00	4	Temperatura máxima	18.8
128539	7	Sololá	713	San Lucas Tolimán	10	San Lucas Tolimán	6	Junio	2023-07-06T00:00:00	2024-11-08T21:00:00	3	Temperatura mínima	18.4
128540	7	Sololá	713	San Lucas Tolimán	10	San Lucas Tolimán	6	Junio	2023-07-06T00:00:00	2024-11-08T21:00:00	5	Humedad	68
128541	7	Sololá	713	San Lucas Tolimán	10	San Lucas Tolimán	6	Junio	2023-07-06T00:00:00	2024-11-08T21:00:00	6	Velocidad del viento	4.8
128542	7	Sololá	713	San Lucas Tolimán	10	San Lucas Tolimán	6	Junio	2023-07-06T00:00:00	2024-11-08T21:00:00	7	Dirección del viento	4.83
128543	7	Sololá	713	San Lucas Tolimán	10	San Lucas Tolimán	6	Junio	2023-07-06T00:00:00	2024-11-08T21:00:00	1	Precipitación	0.4
128544	7	Sololá	713	San Lucas Tolimán	10	San Lucas Tolimán	6	Junio	2023-07-06T00:00:00	2024-11-08T21:00:00	8	Radiación solar	0
128545	7	Sololá	713	San Lucas Tolimán	10	San Lucas Tolimán	6	Junio	2023-07-06T00:00:00	2024-11-08T22:00:00	2	Temperatura media	18.3
128546	7	Sololá	713	San Lucas Tolimán	10	San Lucas Tolimán	6	Junio	2023-07-06T00:00:00	2024-11-08T22:00:00	4	Temperatura máxima	18.6
128547	7	Sololá	713	San Lucas Tolimán	10	San Lucas Tolimán	6	Junio	2023-07-06T00:00:00	2024-11-08T22:00:00	3	Temperatura mínima	18.2
128548	7	Sololá	713	San Lucas Tolimán	10	San Lucas Tolimán	6	Junio	2023-07-06T00:00:00	2024-11-08T22:00:00	5	Humedad	69
128549	7	Sololá	713	San Lucas Tolimán	10	San Lucas Tolimán	6	Junio	2023-07-06T00:00:00	2024-11-08T22:00:00	6	Velocidad del viento	6.4
128550	7	Sololá	713	San Lucas Tolimán	10	San Lucas Tolimán	6	Junio	2023-07-06T00:00:00	2024-11-08T22:00:00	7	Dirección del viento	6.44
128551	7	Sololá	713	San Lucas Tolimán	10	San Lucas Tolimán	6	Junio	2023-07-06T00:00:00	2024-11-08T22:00:00	1	Precipitación	17.8
128552	7	Sololá	713	San Lucas Tolimán	10	San Lucas Tolimán	6	Junio	2023-07-06T00:00:00	2024-11-08T22:00:00	8	Radiación solar	0
128553	7	Sololá	713	San Lucas Tolimán	10	San Lucas Tolimán	6	Junio	2023-07-06T00:00:00	2024-11-08T23:00:00	2	Temperatura media	16.9
128554	7	Sololá	713	San Lucas Tolimán	10	San Lucas Tolimán	6	Junio	2023-07-06T00:00:00	2024-11-08T23:00:00	4	Temperatura máxima	18.3
128555	7	Sololá	713	San Lucas Tolimán	10	San Lucas Tolimán	6	Junio	2023-07-06T00:00:00	2024-11-08T23:00:00	3	Temperatura mínima	16.8
128556	7	Sololá	713	San Lucas Tolimán	10	San Lucas Tolimán	6	Junio	2023-07-06T00:00:00	2024-11-08T23:00:00	5	Humedad	69
128557	7	Sololá	713	San Lucas Tolimán	10	San Lucas Tolimán	6	Junio	2023-07-06T00:00:00	2024-11-08T23:00:00	6	Velocidad del viento	9.7
128558	7	Sololá	713	San Lucas Tolimán	10	San Lucas Tolimán	6	Junio	2023-07-06T00:00:00	2024-11-08T23:00:00	7	Dirección del viento	9.66
128559	7	Sololá	713	San Lucas Tolimán	10	San Lucas Tolimán	6	Junio	2023-07-06T00:00:00	2024-11-08T23:00:00	1	Precipitación	0.8
128560	7	Sololá	713	San Lucas Tolimán	10	San Lucas Tolimán	6	Junio	2023-07-06T00:00:00	2024-11-08T23:00:00	8	Radiación solar	0
128561	7	Sololá	713	San Lucas Tolimán	10	San Lucas Tolimán	6	Junio	2023-08-06T00:00:00	2024-11-08T00:00:00	2	Temperatura media	17.4
128562	7	Sololá	713	San Lucas Tolimán	10	San Lucas Tolimán	6	Junio	2023-08-06T00:00:00	2024-11-08T00:00:00	4	Temperatura máxima	17.4
128563	7	Sololá	713	San Lucas Tolimán	10	San Lucas Tolimán	6	Junio	2023-08-06T00:00:00	2024-11-08T00:00:00	3	Temperatura mínima	16.9
128564	7	Sololá	713	San Lucas Tolimán	10	San Lucas Tolimán	6	Junio	2023-08-06T00:00:00	2024-11-08T00:00:00	5	Humedad	68
128565	7	Sololá	713	San Lucas Tolimán	10	San Lucas Tolimán	6	Junio	2023-08-06T00:00:00	2024-11-08T00:00:00	6	Velocidad del viento	3.2
128566	7	Sololá	713	San Lucas Tolimán	10	San Lucas Tolimán	6	Junio	2023-08-06T00:00:00	2024-11-08T00:00:00	7	Dirección del viento	3.22
128567	7	Sololá	713	San Lucas Tolimán	10	San Lucas Tolimán	6	Junio	2023-08-06T00:00:00	2024-11-08T00:00:00	1	Precipitación	0.2
128568	7	Sololá	713	San Lucas Tolimán	10	San Lucas Tolimán	6	Junio	2023-08-06T00:00:00	2024-11-08T00:00:00	8	Radiación solar	0
128569	7	Sololá	713	San Lucas Tolimán	10	San Lucas Tolimán	6	Junio	2023-08-06T00:00:00	2024-11-08T01:00:00	2	Temperatura media	17.6
128570	7	Sololá	713	San Lucas Tolimán	10	San Lucas Tolimán	6	Junio	2023-08-06T00:00:00	2024-11-08T01:00:00	4	Temperatura máxima	17.6
128571	7	Sololá	713	San Lucas Tolimán	10	San Lucas Tolimán	6	Junio	2023-08-06T00:00:00	2024-11-08T01:00:00	3	Temperatura mínima	17.3
128572	7	Sololá	713	San Lucas Tolimán	10	San Lucas Tolimán	6	Junio	2023-08-06T00:00:00	2024-11-08T01:00:00	5	Humedad	69
128573	7	Sololá	713	San Lucas Tolimán	10	San Lucas Tolimán	6	Junio	2023-08-06T00:00:00	2024-11-08T01:00:00	6	Velocidad del viento	1.6
128574	7	Sololá	713	San Lucas Tolimán	10	San Lucas Tolimán	6	Junio	2023-08-06T00:00:00	2024-11-08T01:00:00	7	Dirección del viento	1.61
128575	7	Sololá	713	San Lucas Tolimán	10	San Lucas Tolimán	6	Junio	2023-08-06T00:00:00	2024-11-08T01:00:00	1	Precipitación	0.2
128576	7	Sololá	713	San Lucas Tolimán	10	San Lucas Tolimán	6	Junio	2023-08-06T00:00:00	2024-11-08T01:00:00	8	Radiación solar	0
128577	7	Sololá	713	San Lucas Tolimán	10	San Lucas Tolimán	6	Junio	2023-08-06T00:00:00	2024-11-08T02:00:00	2	Temperatura media	17.4
128578	7	Sololá	713	San Lucas Tolimán	10	San Lucas Tolimán	6	Junio	2023-08-06T00:00:00	2024-11-08T02:00:00	4	Temperatura máxima	17.6
128579	7	Sololá	713	San Lucas Tolimán	10	San Lucas Tolimán	6	Junio	2023-08-06T00:00:00	2024-11-08T02:00:00	3	Temperatura mínima	17.3
128580	7	Sololá	713	San Lucas Tolimán	10	San Lucas Tolimán	6	Junio	2023-08-06T00:00:00	2024-11-08T02:00:00	5	Humedad	69
128581	7	Sololá	713	San Lucas Tolimán	10	San Lucas Tolimán	6	Junio	2023-08-06T00:00:00	2024-11-08T02:00:00	6	Velocidad del viento	4.8
128582	7	Sololá	713	San Lucas Tolimán	10	San Lucas Tolimán	6	Junio	2023-08-06T00:00:00	2024-11-08T02:00:00	7	Dirección del viento	4.83
128583	7	Sololá	713	San Lucas Tolimán	10	San Lucas Tolimán	6	Junio	2023-08-06T00:00:00	2024-11-08T02:00:00	1	Precipitación	0
128584	7	Sololá	713	San Lucas Tolimán	10	San Lucas Tolimán	6	Junio	2023-08-06T00:00:00	2024-11-08T02:00:00	8	Radiación solar	0
128585	7	Sololá	713	San Lucas Tolimán	10	San Lucas Tolimán	6	Junio	2023-08-06T00:00:00	2024-11-08T03:00:00	2	Temperatura media	17.4
128586	7	Sololá	713	San Lucas Tolimán	10	San Lucas Tolimán	6	Junio	2023-08-06T00:00:00	2024-11-08T03:00:00	4	Temperatura máxima	17.5
128587	7	Sololá	713	San Lucas Tolimán	10	San Lucas Tolimán	6	Junio	2023-08-06T00:00:00	2024-11-08T03:00:00	3	Temperatura mínima	17.3
128588	7	Sololá	713	San Lucas Tolimán	10	San Lucas Tolimán	6	Junio	2023-08-06T00:00:00	2024-11-08T03:00:00	5	Humedad	69
128589	7	Sololá	713	San Lucas Tolimán	10	San Lucas Tolimán	6	Junio	2023-08-06T00:00:00	2024-11-08T03:00:00	6	Velocidad del viento	1.6
128590	7	Sololá	713	San Lucas Tolimán	10	San Lucas Tolimán	6	Junio	2023-08-06T00:00:00	2024-11-08T03:00:00	7	Dirección del viento	1.61
128591	7	Sololá	713	San Lucas Tolimán	10	San Lucas Tolimán	6	Junio	2023-08-06T00:00:00	2024-11-08T03:00:00	1	Precipitación	0
128592	7	Sololá	713	San Lucas Tolimán	10	San Lucas Tolimán	6	Junio	2023-08-06T00:00:00	2024-11-08T03:00:00	8	Radiación solar	0
128593	7	Sololá	713	San Lucas Tolimán	10	San Lucas Tolimán	6	Junio	2023-08-06T00:00:00	2024-11-08T04:00:00	2	Temperatura media	17.3
128594	7	Sololá	713	San Lucas Tolimán	10	San Lucas Tolimán	6	Junio	2023-08-06T00:00:00	2024-11-08T04:00:00	4	Temperatura máxima	17.4
128595	7	Sololá	713	San Lucas Tolimán	10	San Lucas Tolimán	6	Junio	2023-08-06T00:00:00	2024-11-08T04:00:00	3	Temperatura mínima	17.2
128596	7	Sololá	713	San Lucas Tolimán	10	San Lucas Tolimán	6	Junio	2023-08-06T00:00:00	2024-11-08T04:00:00	5	Humedad	69
128597	7	Sololá	713	San Lucas Tolimán	10	San Lucas Tolimán	6	Junio	2023-08-06T00:00:00	2024-11-08T04:00:00	6	Velocidad del viento	1.6
128598	7	Sololá	713	San Lucas Tolimán	10	San Lucas Tolimán	6	Junio	2023-08-06T00:00:00	2024-11-08T04:00:00	7	Dirección del viento	1.61
128599	7	Sololá	713	San Lucas Tolimán	10	San Lucas Tolimán	6	Junio	2023-08-06T00:00:00	2024-11-08T04:00:00	1	Precipitación	0
128600	7	Sololá	713	San Lucas Tolimán	10	San Lucas Tolimán	6	Junio	2023-08-06T00:00:00	2024-11-08T04:00:00	8	Radiación solar	0
128601	7	Sololá	713	San Lucas Tolimán	10	San Lucas Tolimán	6	Junio	2023-08-06T00:00:00	2024-11-08T05:00:00	2	Temperatura media	16.8
128602	7	Sololá	713	San Lucas Tolimán	10	San Lucas Tolimán	6	Junio	2023-08-06T00:00:00	2024-11-08T05:00:00	4	Temperatura máxima	17.3
128603	7	Sololá	713	San Lucas Tolimán	10	San Lucas Tolimán	6	Junio	2023-08-06T00:00:00	2024-11-08T05:00:00	3	Temperatura mínima	16.8
128604	7	Sololá	713	San Lucas Tolimán	10	San Lucas Tolimán	6	Junio	2023-08-06T00:00:00	2024-11-08T05:00:00	5	Humedad	69
128605	7	Sololá	713	San Lucas Tolimán	10	San Lucas Tolimán	6	Junio	2023-08-06T00:00:00	2024-11-08T05:00:00	6	Velocidad del viento	0
128606	7	Sololá	713	San Lucas Tolimán	10	San Lucas Tolimán	6	Junio	2023-08-06T00:00:00	2024-11-08T05:00:00	7	Dirección del viento	0
128607	7	Sololá	713	San Lucas Tolimán	10	San Lucas Tolimán	6	Junio	2023-08-06T00:00:00	2024-11-08T05:00:00	1	Precipitación	0
128608	7	Sololá	713	San Lucas Tolimán	10	San Lucas Tolimán	6	Junio	2023-08-06T00:00:00	2024-11-08T05:00:00	8	Radiación solar	0
128609	7	Sololá	713	San Lucas Tolimán	10	San Lucas Tolimán	6	Junio	2023-08-06T00:00:00	2024-11-08T06:00:00	2	Temperatura media	16.9
128610	7	Sololá	713	San Lucas Tolimán	10	San Lucas Tolimán	6	Junio	2023-08-06T00:00:00	2024-11-08T06:00:00	4	Temperatura máxima	17.2
128611	7	Sololá	713	San Lucas Tolimán	10	San Lucas Tolimán	6	Junio	2023-08-06T00:00:00	2024-11-08T06:00:00	3	Temperatura mínima	16.8
128612	7	Sololá	713	San Lucas Tolimán	10	San Lucas Tolimán	6	Junio	2023-08-06T00:00:00	2024-11-08T06:00:00	5	Humedad	69
128613	7	Sololá	713	San Lucas Tolimán	10	San Lucas Tolimán	6	Junio	2023-08-06T00:00:00	2024-11-08T06:00:00	6	Velocidad del viento	0
128614	7	Sololá	713	San Lucas Tolimán	10	San Lucas Tolimán	6	Junio	2023-08-06T00:00:00	2024-11-08T06:00:00	7	Dirección del viento	0
128615	7	Sololá	713	San Lucas Tolimán	10	San Lucas Tolimán	6	Junio	2023-08-06T00:00:00	2024-11-08T06:00:00	1	Precipitación	0
128616	7	Sololá	713	San Lucas Tolimán	10	San Lucas Tolimán	6	Junio	2023-08-06T00:00:00	2024-11-08T06:00:00	8	Radiación solar	4
128617	7	Sololá	713	San Lucas Tolimán	10	San Lucas Tolimán	6	Junio	2023-08-06T00:00:00	2024-11-08T07:00:00	2	Temperatura media	17.3
128618	7	Sololá	713	San Lucas Tolimán	10	San Lucas Tolimán	6	Junio	2023-08-06T00:00:00	2024-11-08T07:00:00	4	Temperatura máxima	17.4
128619	7	Sololá	713	San Lucas Tolimán	10	San Lucas Tolimán	6	Junio	2023-08-06T00:00:00	2024-11-08T07:00:00	3	Temperatura mínima	16.4
128620	7	Sololá	713	San Lucas Tolimán	10	San Lucas Tolimán	6	Junio	2023-08-06T00:00:00	2024-11-08T07:00:00	5	Humedad	69
128621	7	Sololá	713	San Lucas Tolimán	10	San Lucas Tolimán	6	Junio	2023-08-06T00:00:00	2024-11-08T07:00:00	6	Velocidad del viento	1.6
128622	7	Sololá	713	San Lucas Tolimán	10	San Lucas Tolimán	6	Junio	2023-08-06T00:00:00	2024-11-08T07:00:00	7	Dirección del viento	1.61
128623	7	Sololá	713	San Lucas Tolimán	10	San Lucas Tolimán	6	Junio	2023-08-06T00:00:00	2024-11-08T07:00:00	1	Precipitación	0
128624	7	Sololá	713	San Lucas Tolimán	10	San Lucas Tolimán	6	Junio	2023-08-06T00:00:00	2024-11-08T07:00:00	8	Radiación solar	87
128625	7	Sololá	713	San Lucas Tolimán	10	San Lucas Tolimán	6	Junio	2023-08-06T00:00:00	2024-11-08T08:00:00	2	Temperatura media	19.8
128626	7	Sololá	713	San Lucas Tolimán	10	San Lucas Tolimán	6	Junio	2023-08-06T00:00:00	2024-11-08T08:00:00	4	Temperatura máxima	19.8
128627	7	Sololá	713	San Lucas Tolimán	10	San Lucas Tolimán	6	Junio	2023-08-06T00:00:00	2024-11-08T08:00:00	3	Temperatura mínima	17.3
128628	7	Sololá	713	San Lucas Tolimán	10	San Lucas Tolimán	6	Junio	2023-08-06T00:00:00	2024-11-08T08:00:00	5	Humedad	62
128629	7	Sololá	713	San Lucas Tolimán	10	San Lucas Tolimán	6	Junio	2023-08-06T00:00:00	2024-11-08T08:00:00	6	Velocidad del viento	1.6
128630	7	Sololá	713	San Lucas Tolimán	10	San Lucas Tolimán	6	Junio	2023-08-06T00:00:00	2024-11-08T08:00:00	7	Dirección del viento	1.61
128631	7	Sololá	713	San Lucas Tolimán	10	San Lucas Tolimán	6	Junio	2023-08-06T00:00:00	2024-11-08T08:00:00	1	Precipitación	0
128632	7	Sololá	713	San Lucas Tolimán	10	San Lucas Tolimán	6	Junio	2023-08-06T00:00:00	2024-11-08T08:00:00	8	Radiación solar	256
128633	7	Sololá	713	San Lucas Tolimán	10	San Lucas Tolimán	6	Junio	2023-08-06T00:00:00	2024-11-08T09:00:00	2	Temperatura media	21.6
128634	7	Sololá	713	San Lucas Tolimán	10	San Lucas Tolimán	6	Junio	2023-08-06T00:00:00	2024-11-08T09:00:00	4	Temperatura máxima	21.6
128635	7	Sololá	713	San Lucas Tolimán	10	San Lucas Tolimán	6	Junio	2023-08-06T00:00:00	2024-11-08T09:00:00	3	Temperatura mínima	19.8
128636	7	Sololá	713	San Lucas Tolimán	10	San Lucas Tolimán	6	Junio	2023-08-06T00:00:00	2024-11-08T09:00:00	5	Humedad	57
128637	7	Sololá	713	San Lucas Tolimán	10	San Lucas Tolimán	6	Junio	2023-08-06T00:00:00	2024-11-08T09:00:00	6	Velocidad del viento	4.8
128638	7	Sololá	713	San Lucas Tolimán	10	San Lucas Tolimán	6	Junio	2023-08-06T00:00:00	2024-11-08T09:00:00	7	Dirección del viento	4.83
128639	7	Sololá	713	San Lucas Tolimán	10	San Lucas Tolimán	6	Junio	2023-08-06T00:00:00	2024-11-08T09:00:00	1	Precipitación	0
128640	7	Sololá	713	San Lucas Tolimán	10	San Lucas Tolimán	6	Junio	2023-08-06T00:00:00	2024-11-08T09:00:00	8	Radiación solar	589
128641	7	Sololá	713	San Lucas Tolimán	10	San Lucas Tolimán	6	Junio	2023-08-06T00:00:00	2024-11-08T10:00:00	2	Temperatura media	22.4
128642	7	Sololá	713	San Lucas Tolimán	10	San Lucas Tolimán	6	Junio	2023-08-06T00:00:00	2024-11-08T10:00:00	4	Temperatura máxima	22.4
128643	7	Sololá	713	San Lucas Tolimán	10	San Lucas Tolimán	6	Junio	2023-08-06T00:00:00	2024-11-08T10:00:00	3	Temperatura mínima	21.6
128644	7	Sololá	713	San Lucas Tolimán	10	San Lucas Tolimán	6	Junio	2023-08-06T00:00:00	2024-11-08T10:00:00	5	Humedad	52
128645	7	Sololá	713	San Lucas Tolimán	10	San Lucas Tolimán	6	Junio	2023-08-06T00:00:00	2024-11-08T10:00:00	6	Velocidad del viento	6.4
128646	7	Sololá	713	San Lucas Tolimán	10	San Lucas Tolimán	6	Junio	2023-08-06T00:00:00	2024-11-08T10:00:00	7	Dirección del viento	6.44
128647	7	Sololá	713	San Lucas Tolimán	10	San Lucas Tolimán	6	Junio	2023-08-06T00:00:00	2024-11-08T10:00:00	1	Precipitación	0
128648	7	Sololá	713	San Lucas Tolimán	10	San Lucas Tolimán	6	Junio	2023-08-06T00:00:00	2024-11-08T10:00:00	8	Radiación solar	802
128649	7	Sololá	713	San Lucas Tolimán	10	San Lucas Tolimán	6	Junio	2023-08-06T00:00:00	2024-11-08T11:00:00	2	Temperatura media	22.7
128650	7	Sololá	713	San Lucas Tolimán	10	San Lucas Tolimán	6	Junio	2023-08-06T00:00:00	2024-11-08T11:00:00	4	Temperatura máxima	23.4
128651	7	Sololá	713	San Lucas Tolimán	10	San Lucas Tolimán	6	Junio	2023-08-06T00:00:00	2024-11-08T11:00:00	3	Temperatura mínima	22.1
128652	7	Sololá	713	San Lucas Tolimán	10	San Lucas Tolimán	6	Junio	2023-08-06T00:00:00	2024-11-08T11:00:00	5	Humedad	58
128653	7	Sololá	713	San Lucas Tolimán	10	San Lucas Tolimán	6	Junio	2023-08-06T00:00:00	2024-11-08T11:00:00	6	Velocidad del viento	8
128654	7	Sololá	713	San Lucas Tolimán	10	San Lucas Tolimán	6	Junio	2023-08-06T00:00:00	2024-11-08T11:00:00	7	Dirección del viento	8.05
128655	7	Sololá	713	San Lucas Tolimán	10	San Lucas Tolimán	6	Junio	2023-08-06T00:00:00	2024-11-08T11:00:00	1	Precipitación	0
128656	7	Sololá	713	San Lucas Tolimán	10	San Lucas Tolimán	6	Junio	2023-08-06T00:00:00	2024-11-08T11:00:00	8	Radiación solar	1028
128657	7	Sololá	713	San Lucas Tolimán	10	San Lucas Tolimán	6	Junio	2023-08-06T00:00:00	2024-11-08T12:00:00	2	Temperatura media	23.3
128658	7	Sololá	713	San Lucas Tolimán	10	San Lucas Tolimán	6	Junio	2023-08-06T00:00:00	2024-11-08T12:00:00	4	Temperatura máxima	23.3
128659	7	Sololá	713	San Lucas Tolimán	10	San Lucas Tolimán	6	Junio	2023-08-06T00:00:00	2024-11-08T12:00:00	3	Temperatura mínima	22.5
128660	7	Sololá	713	San Lucas Tolimán	10	San Lucas Tolimán	6	Junio	2023-08-06T00:00:00	2024-11-08T12:00:00	5	Humedad	56
128661	7	Sololá	713	San Lucas Tolimán	10	San Lucas Tolimán	6	Junio	2023-08-06T00:00:00	2024-11-08T12:00:00	6	Velocidad del viento	9.7
128662	7	Sololá	713	San Lucas Tolimán	10	San Lucas Tolimán	6	Junio	2023-08-06T00:00:00	2024-11-08T12:00:00	7	Dirección del viento	9.66
128663	7	Sololá	713	San Lucas Tolimán	10	San Lucas Tolimán	6	Junio	2023-08-06T00:00:00	2024-11-08T12:00:00	1	Precipitación	0
128664	7	Sololá	713	San Lucas Tolimán	10	San Lucas Tolimán	6	Junio	2023-08-06T00:00:00	2024-11-08T12:00:00	8	Radiación solar	1001
128665	7	Sololá	713	San Lucas Tolimán	10	San Lucas Tolimán	6	Junio	2023-08-06T00:00:00	2024-11-08T13:00:00	2	Temperatura media	22.6
128666	7	Sololá	713	San Lucas Tolimán	10	San Lucas Tolimán	6	Junio	2023-08-06T00:00:00	2024-11-08T13:00:00	4	Temperatura máxima	23.5
128667	7	Sololá	713	San Lucas Tolimán	10	San Lucas Tolimán	6	Junio	2023-08-06T00:00:00	2024-11-08T13:00:00	3	Temperatura mínima	22.3
128668	7	Sololá	713	San Lucas Tolimán	10	San Lucas Tolimán	6	Junio	2023-08-06T00:00:00	2024-11-08T13:00:00	5	Humedad	59
128669	7	Sololá	713	San Lucas Tolimán	10	San Lucas Tolimán	6	Junio	2023-08-06T00:00:00	2024-11-08T13:00:00	6	Velocidad del viento	11.3
128670	7	Sololá	713	San Lucas Tolimán	10	San Lucas Tolimán	6	Junio	2023-08-06T00:00:00	2024-11-08T13:00:00	7	Dirección del viento	11.27
128671	7	Sololá	713	San Lucas Tolimán	10	San Lucas Tolimán	6	Junio	2023-08-06T00:00:00	2024-11-08T13:00:00	1	Precipitación	0
128672	7	Sololá	713	San Lucas Tolimán	10	San Lucas Tolimán	6	Junio	2023-08-06T00:00:00	2024-11-08T13:00:00	8	Radiación solar	1010
128673	7	Sololá	713	San Lucas Tolimán	10	San Lucas Tolimán	6	Junio	2023-08-06T00:00:00	2024-11-08T14:00:00	2	Temperatura media	21.3
128674	7	Sololá	713	San Lucas Tolimán	10	San Lucas Tolimán	6	Junio	2023-08-06T00:00:00	2024-11-08T14:00:00	4	Temperatura máxima	22.9
128675	7	Sololá	713	San Lucas Tolimán	10	San Lucas Tolimán	6	Junio	2023-08-06T00:00:00	2024-11-08T14:00:00	3	Temperatura mínima	21.2
128676	7	Sololá	713	San Lucas Tolimán	10	San Lucas Tolimán	6	Junio	2023-08-06T00:00:00	2024-11-08T14:00:00	5	Humedad	63
128677	7	Sololá	713	San Lucas Tolimán	10	San Lucas Tolimán	6	Junio	2023-08-06T00:00:00	2024-11-08T14:00:00	6	Velocidad del viento	9.7
128678	7	Sololá	713	San Lucas Tolimán	10	San Lucas Tolimán	6	Junio	2023-08-06T00:00:00	2024-11-08T14:00:00	7	Dirección del viento	9.66
128679	7	Sololá	713	San Lucas Tolimán	10	San Lucas Tolimán	6	Junio	2023-08-06T00:00:00	2024-11-08T14:00:00	1	Precipitación	0
128680	7	Sololá	713	San Lucas Tolimán	10	San Lucas Tolimán	6	Junio	2023-08-06T00:00:00	2024-11-08T14:00:00	8	Radiación solar	534
128681	7	Sololá	713	San Lucas Tolimán	10	San Lucas Tolimán	6	Junio	2023-08-06T00:00:00	2024-11-08T15:00:00	2	Temperatura media	20.6
128682	7	Sololá	713	San Lucas Tolimán	10	San Lucas Tolimán	6	Junio	2023-08-06T00:00:00	2024-11-08T15:00:00	4	Temperatura máxima	22.6
128683	7	Sololá	713	San Lucas Tolimán	10	San Lucas Tolimán	6	Junio	2023-08-06T00:00:00	2024-11-08T15:00:00	3	Temperatura mínima	20.6
128684	7	Sololá	713	San Lucas Tolimán	10	San Lucas Tolimán	6	Junio	2023-08-06T00:00:00	2024-11-08T15:00:00	5	Humedad	64
128685	7	Sololá	713	San Lucas Tolimán	10	San Lucas Tolimán	6	Junio	2023-08-06T00:00:00	2024-11-08T15:00:00	6	Velocidad del viento	9.7
128686	7	Sololá	713	San Lucas Tolimán	10	San Lucas Tolimán	6	Junio	2023-08-06T00:00:00	2024-11-08T15:00:00	7	Dirección del viento	9.66
128687	7	Sololá	713	San Lucas Tolimán	10	San Lucas Tolimán	6	Junio	2023-08-06T00:00:00	2024-11-08T15:00:00	1	Precipitación	0
128688	7	Sololá	713	San Lucas Tolimán	10	San Lucas Tolimán	6	Junio	2023-08-06T00:00:00	2024-11-08T15:00:00	8	Radiación solar	405
128689	7	Sololá	713	San Lucas Tolimán	10	San Lucas Tolimán	6	Junio	2023-08-06T00:00:00	2024-11-08T16:00:00	2	Temperatura media	20.2
128690	7	Sololá	713	San Lucas Tolimán	10	San Lucas Tolimán	6	Junio	2023-08-06T00:00:00	2024-11-08T16:00:00	4	Temperatura máxima	20.8
128691	7	Sololá	713	San Lucas Tolimán	10	San Lucas Tolimán	6	Junio	2023-08-06T00:00:00	2024-11-08T16:00:00	3	Temperatura mínima	20
128692	7	Sololá	713	San Lucas Tolimán	10	San Lucas Tolimán	6	Junio	2023-08-06T00:00:00	2024-11-08T16:00:00	5	Humedad	64
128693	7	Sololá	713	San Lucas Tolimán	10	San Lucas Tolimán	6	Junio	2023-08-06T00:00:00	2024-11-08T16:00:00	6	Velocidad del viento	8
128694	7	Sololá	713	San Lucas Tolimán	10	San Lucas Tolimán	6	Junio	2023-08-06T00:00:00	2024-11-08T16:00:00	7	Dirección del viento	8.05
128695	7	Sololá	713	San Lucas Tolimán	10	San Lucas Tolimán	6	Junio	2023-08-06T00:00:00	2024-11-08T16:00:00	1	Precipitación	0
128696	7	Sololá	713	San Lucas Tolimán	10	San Lucas Tolimán	6	Junio	2023-08-06T00:00:00	2024-11-08T16:00:00	8	Radiación solar	174
128697	7	Sololá	713	San Lucas Tolimán	10	San Lucas Tolimán	6	Junio	2023-08-06T00:00:00	2024-11-08T17:00:00	2	Temperatura media	20.9
128698	7	Sololá	713	San Lucas Tolimán	10	San Lucas Tolimán	6	Junio	2023-08-06T00:00:00	2024-11-08T17:00:00	4	Temperatura máxima	21
128699	7	Sololá	713	San Lucas Tolimán	10	San Lucas Tolimán	6	Junio	2023-08-06T00:00:00	2024-11-08T17:00:00	3	Temperatura mínima	20.2
128700	7	Sololá	713	San Lucas Tolimán	10	San Lucas Tolimán	6	Junio	2023-08-06T00:00:00	2024-11-08T17:00:00	5	Humedad	63
128701	7	Sololá	713	San Lucas Tolimán	10	San Lucas Tolimán	6	Junio	2023-08-06T00:00:00	2024-11-08T17:00:00	6	Velocidad del viento	8
128702	7	Sololá	713	San Lucas Tolimán	10	San Lucas Tolimán	6	Junio	2023-08-06T00:00:00	2024-11-08T17:00:00	7	Dirección del viento	8.05
128703	7	Sololá	713	San Lucas Tolimán	10	San Lucas Tolimán	6	Junio	2023-08-06T00:00:00	2024-11-08T17:00:00	1	Precipitación	0
128704	7	Sololá	713	San Lucas Tolimán	10	San Lucas Tolimán	6	Junio	2023-08-06T00:00:00	2024-11-08T17:00:00	8	Radiación solar	232
128705	7	Sololá	713	San Lucas Tolimán	10	San Lucas Tolimán	6	Junio	2023-08-06T00:00:00	2024-11-08T18:00:00	2	Temperatura media	20.1
128706	7	Sololá	713	San Lucas Tolimán	10	San Lucas Tolimán	6	Junio	2023-08-06T00:00:00	2024-11-08T18:00:00	4	Temperatura máxima	21
128707	7	Sololá	713	San Lucas Tolimán	10	San Lucas Tolimán	6	Junio	2023-08-06T00:00:00	2024-11-08T18:00:00	3	Temperatura mínima	20.1
128708	7	Sololá	713	San Lucas Tolimán	10	San Lucas Tolimán	6	Junio	2023-08-06T00:00:00	2024-11-08T18:00:00	5	Humedad	65
128709	7	Sololá	713	San Lucas Tolimán	10	San Lucas Tolimán	6	Junio	2023-08-06T00:00:00	2024-11-08T18:00:00	6	Velocidad del viento	8
128710	7	Sololá	713	San Lucas Tolimán	10	San Lucas Tolimán	6	Junio	2023-08-06T00:00:00	2024-11-08T18:00:00	7	Dirección del viento	8.05
128711	7	Sololá	713	San Lucas Tolimán	10	San Lucas Tolimán	6	Junio	2023-08-06T00:00:00	2024-11-08T18:00:00	1	Precipitación	0
128712	7	Sololá	713	San Lucas Tolimán	10	San Lucas Tolimán	6	Junio	2023-08-06T00:00:00	2024-11-08T18:00:00	8	Radiación solar	80
128713	7	Sololá	713	San Lucas Tolimán	10	San Lucas Tolimán	6	Junio	2023-08-06T00:00:00	2024-11-08T19:00:00	2	Temperatura media	19.7
128714	7	Sololá	713	San Lucas Tolimán	10	San Lucas Tolimán	6	Junio	2023-08-06T00:00:00	2024-11-08T19:00:00	4	Temperatura máxima	20.1
128715	7	Sololá	713	San Lucas Tolimán	10	San Lucas Tolimán	6	Junio	2023-08-06T00:00:00	2024-11-08T19:00:00	3	Temperatura mínima	19.7
128716	7	Sololá	713	San Lucas Tolimán	10	San Lucas Tolimán	6	Junio	2023-08-06T00:00:00	2024-11-08T19:00:00	5	Humedad	66
128717	7	Sololá	713	San Lucas Tolimán	10	San Lucas Tolimán	6	Junio	2023-08-06T00:00:00	2024-11-08T19:00:00	6	Velocidad del viento	4.8
128718	7	Sololá	713	San Lucas Tolimán	10	San Lucas Tolimán	6	Junio	2023-08-06T00:00:00	2024-11-08T19:00:00	7	Dirección del viento	4.83
128719	7	Sololá	713	San Lucas Tolimán	10	San Lucas Tolimán	6	Junio	2023-08-06T00:00:00	2024-11-08T19:00:00	1	Precipitación	0
128720	7	Sololá	713	San Lucas Tolimán	10	San Lucas Tolimán	6	Junio	2023-08-06T00:00:00	2024-11-08T19:00:00	8	Radiación solar	0
128721	7	Sololá	713	San Lucas Tolimán	10	San Lucas Tolimán	6	Junio	2023-08-06T00:00:00	2024-11-08T20:00:00	2	Temperatura media	19.3
128722	7	Sololá	713	San Lucas Tolimán	10	San Lucas Tolimán	6	Junio	2023-08-06T00:00:00	2024-11-08T20:00:00	4	Temperatura máxima	19.7
128723	7	Sololá	713	San Lucas Tolimán	10	San Lucas Tolimán	6	Junio	2023-08-06T00:00:00	2024-11-08T20:00:00	3	Temperatura mínima	19.2
128724	7	Sololá	713	San Lucas Tolimán	10	San Lucas Tolimán	6	Junio	2023-08-06T00:00:00	2024-11-08T20:00:00	5	Humedad	68
128725	7	Sololá	713	San Lucas Tolimán	10	San Lucas Tolimán	6	Junio	2023-08-06T00:00:00	2024-11-08T20:00:00	6	Velocidad del viento	6.4
128726	7	Sololá	713	San Lucas Tolimán	10	San Lucas Tolimán	6	Junio	2023-08-06T00:00:00	2024-11-08T20:00:00	7	Dirección del viento	6.44
128727	7	Sololá	713	San Lucas Tolimán	10	San Lucas Tolimán	6	Junio	2023-08-06T00:00:00	2024-11-08T20:00:00	1	Precipitación	0.4
128728	7	Sololá	713	San Lucas Tolimán	10	San Lucas Tolimán	6	Junio	2023-08-06T00:00:00	2024-11-08T20:00:00	8	Radiación solar	0
128729	7	Sololá	713	San Lucas Tolimán	10	San Lucas Tolimán	6	Junio	2023-08-06T00:00:00	2024-11-08T21:00:00	2	Temperatura media	19.2
128730	7	Sololá	713	San Lucas Tolimán	10	San Lucas Tolimán	6	Junio	2023-08-06T00:00:00	2024-11-08T21:00:00	4	Temperatura máxima	19.3
128731	7	Sololá	713	San Lucas Tolimán	10	San Lucas Tolimán	6	Junio	2023-08-06T00:00:00	2024-11-08T21:00:00	3	Temperatura mínima	18.9
128732	7	Sololá	713	San Lucas Tolimán	10	San Lucas Tolimán	6	Junio	2023-08-06T00:00:00	2024-11-08T21:00:00	5	Humedad	68
128733	7	Sololá	713	San Lucas Tolimán	10	San Lucas Tolimán	6	Junio	2023-08-06T00:00:00	2024-11-08T21:00:00	6	Velocidad del viento	6.4
128734	7	Sololá	713	San Lucas Tolimán	10	San Lucas Tolimán	6	Junio	2023-08-06T00:00:00	2024-11-08T21:00:00	7	Dirección del viento	6.44
128735	7	Sololá	713	San Lucas Tolimán	10	San Lucas Tolimán	6	Junio	2023-08-06T00:00:00	2024-11-08T21:00:00	1	Precipitación	0
128736	7	Sololá	713	San Lucas Tolimán	10	San Lucas Tolimán	6	Junio	2023-08-06T00:00:00	2024-11-08T21:00:00	8	Radiación solar	0
128737	7	Sololá	713	San Lucas Tolimán	10	San Lucas Tolimán	6	Junio	2023-08-06T00:00:00	2024-11-08T22:00:00	2	Temperatura media	19
128738	7	Sololá	713	San Lucas Tolimán	10	San Lucas Tolimán	6	Junio	2023-08-06T00:00:00	2024-11-08T22:00:00	4	Temperatura máxima	19.3
128739	7	Sololá	713	San Lucas Tolimán	10	San Lucas Tolimán	6	Junio	2023-08-06T00:00:00	2024-11-08T22:00:00	3	Temperatura mínima	19
128740	7	Sololá	713	San Lucas Tolimán	10	San Lucas Tolimán	6	Junio	2023-08-06T00:00:00	2024-11-08T22:00:00	5	Humedad	68
128741	7	Sololá	713	San Lucas Tolimán	10	San Lucas Tolimán	6	Junio	2023-08-06T00:00:00	2024-11-08T22:00:00	6	Velocidad del viento	4.8
128742	7	Sololá	713	San Lucas Tolimán	10	San Lucas Tolimán	6	Junio	2023-08-06T00:00:00	2024-11-08T22:00:00	7	Dirección del viento	4.83
128743	7	Sololá	713	San Lucas Tolimán	10	San Lucas Tolimán	6	Junio	2023-08-06T00:00:00	2024-11-08T22:00:00	1	Precipitación	0
128744	7	Sololá	713	San Lucas Tolimán	10	San Lucas Tolimán	6	Junio	2023-08-06T00:00:00	2024-11-08T22:00:00	8	Radiación solar	0
128745	7	Sololá	713	San Lucas Tolimán	10	San Lucas Tolimán	6	Junio	2023-08-06T00:00:00	2024-11-08T23:00:00	2	Temperatura media	18.8
128746	7	Sololá	713	San Lucas Tolimán	10	San Lucas Tolimán	6	Junio	2023-08-06T00:00:00	2024-11-08T23:00:00	4	Temperatura máxima	19
128747	7	Sololá	713	San Lucas Tolimán	10	San Lucas Tolimán	6	Junio	2023-08-06T00:00:00	2024-11-08T23:00:00	3	Temperatura mínima	18.8
128748	7	Sololá	713	San Lucas Tolimán	10	San Lucas Tolimán	6	Junio	2023-08-06T00:00:00	2024-11-08T23:00:00	5	Humedad	68
128749	7	Sololá	713	San Lucas Tolimán	10	San Lucas Tolimán	6	Junio	2023-08-06T00:00:00	2024-11-08T23:00:00	6	Velocidad del viento	3.2
128750	7	Sololá	713	San Lucas Tolimán	10	San Lucas Tolimán	6	Junio	2023-08-06T00:00:00	2024-11-08T23:00:00	7	Dirección del viento	3.22
128751	7	Sololá	713	San Lucas Tolimán	10	San Lucas Tolimán	6	Junio	2023-08-06T00:00:00	2024-11-08T23:00:00	1	Precipitación	0
128752	7	Sololá	713	San Lucas Tolimán	10	San Lucas Tolimán	6	Junio	2023-08-06T00:00:00	2024-11-08T23:00:00	8	Radiación solar	0
128753	7	Sololá	713	San Lucas Tolimán	10	San Lucas Tolimán	6	Junio	2023-09-06T00:00:00	2024-11-08T00:00:00	2	Temperatura media	18.7
128754	7	Sololá	713	San Lucas Tolimán	10	San Lucas Tolimán	6	Junio	2023-09-06T00:00:00	2024-11-08T00:00:00	4	Temperatura máxima	18.8
128755	7	Sololá	713	San Lucas Tolimán	10	San Lucas Tolimán	6	Junio	2023-09-06T00:00:00	2024-11-08T00:00:00	3	Temperatura mínima	18.6
128756	7	Sololá	713	San Lucas Tolimán	10	San Lucas Tolimán	6	Junio	2023-09-06T00:00:00	2024-11-08T00:00:00	5	Humedad	68
128757	7	Sololá	713	San Lucas Tolimán	10	San Lucas Tolimán	6	Junio	2023-09-06T00:00:00	2024-11-08T00:00:00	6	Velocidad del viento	0
128758	7	Sololá	713	San Lucas Tolimán	10	San Lucas Tolimán	6	Junio	2023-09-06T00:00:00	2024-11-08T00:00:00	7	Dirección del viento	0
128759	7	Sololá	713	San Lucas Tolimán	10	San Lucas Tolimán	6	Junio	2023-09-06T00:00:00	2024-11-08T00:00:00	1	Precipitación	0
128760	7	Sololá	713	San Lucas Tolimán	10	San Lucas Tolimán	6	Junio	2023-09-06T00:00:00	2024-11-08T00:00:00	8	Radiación solar	0
128761	7	Sololá	713	San Lucas Tolimán	10	San Lucas Tolimán	6	Junio	2023-09-06T00:00:00	2024-11-08T01:00:00	2	Temperatura media	18.4
128762	7	Sololá	713	San Lucas Tolimán	10	San Lucas Tolimán	6	Junio	2023-09-06T00:00:00	2024-11-08T01:00:00	4	Temperatura máxima	18.7
128763	7	Sololá	713	San Lucas Tolimán	10	San Lucas Tolimán	6	Junio	2023-09-06T00:00:00	2024-11-08T01:00:00	3	Temperatura mínima	18.4
128764	7	Sololá	713	San Lucas Tolimán	10	San Lucas Tolimán	6	Junio	2023-09-06T00:00:00	2024-11-08T01:00:00	5	Humedad	68
128765	7	Sololá	713	San Lucas Tolimán	10	San Lucas Tolimán	6	Junio	2023-09-06T00:00:00	2024-11-08T01:00:00	6	Velocidad del viento	0
128766	7	Sololá	713	San Lucas Tolimán	10	San Lucas Tolimán	6	Junio	2023-09-06T00:00:00	2024-11-08T01:00:00	7	Dirección del viento	0
128767	7	Sololá	713	San Lucas Tolimán	10	San Lucas Tolimán	6	Junio	2023-09-06T00:00:00	2024-11-08T01:00:00	1	Precipitación	0
128768	7	Sololá	713	San Lucas Tolimán	10	San Lucas Tolimán	6	Junio	2023-09-06T00:00:00	2024-11-08T01:00:00	8	Radiación solar	0
128769	7	Sololá	713	San Lucas Tolimán	10	San Lucas Tolimán	6	Junio	2023-09-06T00:00:00	2024-11-08T02:00:00	2	Temperatura media	17.8
128770	7	Sololá	713	San Lucas Tolimán	10	San Lucas Tolimán	6	Junio	2023-09-06T00:00:00	2024-11-08T02:00:00	4	Temperatura máxima	18.4
128771	7	Sololá	713	San Lucas Tolimán	10	San Lucas Tolimán	6	Junio	2023-09-06T00:00:00	2024-11-08T02:00:00	3	Temperatura mínima	17.8
128772	7	Sololá	713	San Lucas Tolimán	10	San Lucas Tolimán	6	Junio	2023-09-06T00:00:00	2024-11-08T02:00:00	5	Humedad	68
128773	7	Sololá	713	San Lucas Tolimán	10	San Lucas Tolimán	6	Junio	2023-09-06T00:00:00	2024-11-08T02:00:00	6	Velocidad del viento	1.6
128774	7	Sololá	713	San Lucas Tolimán	10	San Lucas Tolimán	6	Junio	2023-09-06T00:00:00	2024-11-08T02:00:00	7	Dirección del viento	1.61
128775	7	Sololá	713	San Lucas Tolimán	10	San Lucas Tolimán	6	Junio	2023-09-06T00:00:00	2024-11-08T02:00:00	1	Precipitación	0
128776	7	Sololá	713	San Lucas Tolimán	10	San Lucas Tolimán	6	Junio	2023-09-06T00:00:00	2024-11-08T02:00:00	8	Radiación solar	0
128777	7	Sololá	713	San Lucas Tolimán	10	San Lucas Tolimán	6	Junio	2023-09-06T00:00:00	2024-11-08T03:00:00	2	Temperatura media	17.6
128778	7	Sololá	713	San Lucas Tolimán	10	San Lucas Tolimán	6	Junio	2023-09-06T00:00:00	2024-11-08T03:00:00	4	Temperatura máxima	17.9
128779	7	Sololá	713	San Lucas Tolimán	10	San Lucas Tolimán	6	Junio	2023-09-06T00:00:00	2024-11-08T03:00:00	3	Temperatura mínima	17.6
128780	7	Sololá	713	San Lucas Tolimán	10	San Lucas Tolimán	6	Junio	2023-09-06T00:00:00	2024-11-08T03:00:00	5	Humedad	68
128781	7	Sololá	713	San Lucas Tolimán	10	San Lucas Tolimán	6	Junio	2023-09-06T00:00:00	2024-11-08T03:00:00	6	Velocidad del viento	1.6
128782	7	Sololá	713	San Lucas Tolimán	10	San Lucas Tolimán	6	Junio	2023-09-06T00:00:00	2024-11-08T03:00:00	7	Dirección del viento	1.61
128783	7	Sololá	713	San Lucas Tolimán	10	San Lucas Tolimán	6	Junio	2023-09-06T00:00:00	2024-11-08T03:00:00	1	Precipitación	0
128784	7	Sololá	713	San Lucas Tolimán	10	San Lucas Tolimán	6	Junio	2023-09-06T00:00:00	2024-11-08T03:00:00	8	Radiación solar	0
128785	7	Sololá	713	San Lucas Tolimán	10	San Lucas Tolimán	6	Junio	2023-09-06T00:00:00	2024-11-08T04:00:00	2	Temperatura media	16.9
128786	7	Sololá	713	San Lucas Tolimán	10	San Lucas Tolimán	6	Junio	2023-09-06T00:00:00	2024-11-08T04:00:00	4	Temperatura máxima	17.7
128787	7	Sololá	713	San Lucas Tolimán	10	San Lucas Tolimán	6	Junio	2023-09-06T00:00:00	2024-11-08T04:00:00	3	Temperatura mínima	16.8
128788	7	Sololá	713	San Lucas Tolimán	10	San Lucas Tolimán	6	Junio	2023-09-06T00:00:00	2024-11-08T04:00:00	5	Humedad	67
128789	7	Sololá	713	San Lucas Tolimán	10	San Lucas Tolimán	6	Junio	2023-09-06T00:00:00	2024-11-08T04:00:00	6	Velocidad del viento	3.2
128790	7	Sololá	713	San Lucas Tolimán	10	San Lucas Tolimán	6	Junio	2023-09-06T00:00:00	2024-11-08T04:00:00	7	Dirección del viento	3.22
128791	7	Sololá	713	San Lucas Tolimán	10	San Lucas Tolimán	6	Junio	2023-09-06T00:00:00	2024-11-08T04:00:00	1	Precipitación	0
128792	7	Sololá	713	San Lucas Tolimán	10	San Lucas Tolimán	6	Junio	2023-09-06T00:00:00	2024-11-08T04:00:00	8	Radiación solar	0
128793	7	Sololá	713	San Lucas Tolimán	10	San Lucas Tolimán	6	Junio	2023-09-06T00:00:00	2024-11-08T05:00:00	2	Temperatura media	16.7
128794	7	Sololá	713	San Lucas Tolimán	10	San Lucas Tolimán	6	Junio	2023-09-06T00:00:00	2024-11-08T05:00:00	4	Temperatura máxima	17.1
128795	7	Sololá	713	San Lucas Tolimán	10	San Lucas Tolimán	6	Junio	2023-09-06T00:00:00	2024-11-08T05:00:00	3	Temperatura mínima	16.6
128796	7	Sololá	713	San Lucas Tolimán	10	San Lucas Tolimán	6	Junio	2023-09-06T00:00:00	2024-11-08T05:00:00	5	Humedad	68
128797	7	Sololá	713	San Lucas Tolimán	10	San Lucas Tolimán	6	Junio	2023-09-06T00:00:00	2024-11-08T05:00:00	6	Velocidad del viento	1.6
128798	7	Sololá	713	San Lucas Tolimán	10	San Lucas Tolimán	6	Junio	2023-09-06T00:00:00	2024-11-08T05:00:00	7	Dirección del viento	1.61
128799	7	Sololá	713	San Lucas Tolimán	10	San Lucas Tolimán	6	Junio	2023-09-06T00:00:00	2024-11-08T05:00:00	1	Precipitación	0
128800	7	Sololá	713	San Lucas Tolimán	10	San Lucas Tolimán	6	Junio	2023-09-06T00:00:00	2024-11-08T05:00:00	8	Radiación solar	0
128801	7	Sololá	713	San Lucas Tolimán	10	San Lucas Tolimán	6	Junio	2023-09-06T00:00:00	2024-11-08T06:00:00	2	Temperatura media	16.6
128802	7	Sololá	713	San Lucas Tolimán	10	San Lucas Tolimán	6	Junio	2023-09-06T00:00:00	2024-11-08T06:00:00	4	Temperatura máxima	16.8
128803	7	Sololá	713	San Lucas Tolimán	10	San Lucas Tolimán	6	Junio	2023-09-06T00:00:00	2024-11-08T06:00:00	3	Temperatura mínima	16.5
128804	7	Sololá	713	San Lucas Tolimán	10	San Lucas Tolimán	6	Junio	2023-09-06T00:00:00	2024-11-08T06:00:00	5	Humedad	68
128805	7	Sololá	713	San Lucas Tolimán	10	San Lucas Tolimán	6	Junio	2023-09-06T00:00:00	2024-11-08T06:00:00	6	Velocidad del viento	0
128806	7	Sololá	713	San Lucas Tolimán	10	San Lucas Tolimán	6	Junio	2023-09-06T00:00:00	2024-11-08T06:00:00	7	Dirección del viento	0
128807	7	Sololá	713	San Lucas Tolimán	10	San Lucas Tolimán	6	Junio	2023-09-06T00:00:00	2024-11-08T06:00:00	1	Precipitación	0
128808	7	Sololá	713	San Lucas Tolimán	10	San Lucas Tolimán	6	Junio	2023-09-06T00:00:00	2024-11-08T06:00:00	8	Radiación solar	5
128809	7	Sololá	713	San Lucas Tolimán	10	San Lucas Tolimán	6	Junio	2023-09-06T00:00:00	2024-11-08T07:00:00	2	Temperatura media	18.4
128810	7	Sololá	713	San Lucas Tolimán	10	San Lucas Tolimán	6	Junio	2023-09-06T00:00:00	2024-11-08T07:00:00	4	Temperatura máxima	18.4
128811	7	Sololá	713	San Lucas Tolimán	10	San Lucas Tolimán	6	Junio	2023-09-06T00:00:00	2024-11-08T07:00:00	3	Temperatura mínima	16.6
128812	7	Sololá	713	San Lucas Tolimán	10	San Lucas Tolimán	6	Junio	2023-09-06T00:00:00	2024-11-08T07:00:00	5	Humedad	65
128813	7	Sololá	713	San Lucas Tolimán	10	San Lucas Tolimán	6	Junio	2023-09-06T00:00:00	2024-11-08T07:00:00	6	Velocidad del viento	0
128814	7	Sololá	713	San Lucas Tolimán	10	San Lucas Tolimán	6	Junio	2023-09-06T00:00:00	2024-11-08T07:00:00	7	Dirección del viento	0
128815	7	Sololá	713	San Lucas Tolimán	10	San Lucas Tolimán	6	Junio	2023-09-06T00:00:00	2024-11-08T07:00:00	1	Precipitación	0
128816	7	Sololá	713	San Lucas Tolimán	10	San Lucas Tolimán	6	Junio	2023-09-06T00:00:00	2024-11-08T07:00:00	8	Radiación solar	79
128817	7	Sololá	713	San Lucas Tolimán	10	San Lucas Tolimán	6	Junio	2023-09-06T00:00:00	2024-11-08T08:00:00	2	Temperatura media	21.6
128818	7	Sololá	713	San Lucas Tolimán	10	San Lucas Tolimán	6	Junio	2023-09-06T00:00:00	2024-11-08T08:00:00	4	Temperatura máxima	21.6
128819	7	Sololá	713	San Lucas Tolimán	10	San Lucas Tolimán	6	Junio	2023-09-06T00:00:00	2024-11-08T08:00:00	3	Temperatura mínima	18.4
128820	7	Sololá	713	San Lucas Tolimán	10	San Lucas Tolimán	6	Junio	2023-09-06T00:00:00	2024-11-08T08:00:00	5	Humedad	57
128821	7	Sololá	713	San Lucas Tolimán	10	San Lucas Tolimán	6	Junio	2023-09-06T00:00:00	2024-11-08T08:00:00	6	Velocidad del viento	1.6
128822	7	Sololá	713	San Lucas Tolimán	10	San Lucas Tolimán	6	Junio	2023-09-06T00:00:00	2024-11-08T08:00:00	7	Dirección del viento	1.61
128823	7	Sololá	713	San Lucas Tolimán	10	San Lucas Tolimán	6	Junio	2023-09-06T00:00:00	2024-11-08T08:00:00	1	Precipitación	0
128824	7	Sololá	713	San Lucas Tolimán	10	San Lucas Tolimán	6	Junio	2023-09-06T00:00:00	2024-11-08T08:00:00	8	Radiación solar	317
128825	7	Sololá	713	San Lucas Tolimán	10	San Lucas Tolimán	6	Junio	2023-09-06T00:00:00	2024-11-08T09:00:00	2	Temperatura media	22.9
128826	7	Sololá	713	San Lucas Tolimán	10	San Lucas Tolimán	6	Junio	2023-09-06T00:00:00	2024-11-08T09:00:00	4	Temperatura máxima	23.2
128827	7	Sololá	713	San Lucas Tolimán	10	San Lucas Tolimán	6	Junio	2023-09-06T00:00:00	2024-11-08T09:00:00	3	Temperatura mínima	21.6
128828	7	Sololá	713	San Lucas Tolimán	10	San Lucas Tolimán	6	Junio	2023-09-06T00:00:00	2024-11-08T09:00:00	5	Humedad	55
128829	7	Sololá	713	San Lucas Tolimán	10	San Lucas Tolimán	6	Junio	2023-09-06T00:00:00	2024-11-08T09:00:00	6	Velocidad del viento	3.2
128830	7	Sololá	713	San Lucas Tolimán	10	San Lucas Tolimán	6	Junio	2023-09-06T00:00:00	2024-11-08T09:00:00	7	Dirección del viento	3.22
128831	7	Sololá	713	San Lucas Tolimán	10	San Lucas Tolimán	6	Junio	2023-09-06T00:00:00	2024-11-08T09:00:00	1	Precipitación	0
128832	7	Sololá	713	San Lucas Tolimán	10	San Lucas Tolimán	6	Junio	2023-09-06T00:00:00	2024-11-08T09:00:00	8	Radiación solar	557
128833	7	Sololá	713	San Lucas Tolimán	10	San Lucas Tolimán	6	Junio	2023-09-06T00:00:00	2024-11-08T10:00:00	2	Temperatura media	22.9
128834	7	Sololá	713	San Lucas Tolimán	10	San Lucas Tolimán	6	Junio	2023-09-06T00:00:00	2024-11-08T10:00:00	4	Temperatura máxima	22.9
128835	7	Sololá	713	San Lucas Tolimán	10	San Lucas Tolimán	6	Junio	2023-09-06T00:00:00	2024-11-08T10:00:00	3	Temperatura mínima	21.9
128836	7	Sololá	713	San Lucas Tolimán	10	San Lucas Tolimán	6	Junio	2023-09-06T00:00:00	2024-11-08T10:00:00	5	Humedad	56
128837	7	Sololá	713	San Lucas Tolimán	10	San Lucas Tolimán	6	Junio	2023-09-06T00:00:00	2024-11-08T10:00:00	6	Velocidad del viento	9.7
128838	7	Sololá	713	San Lucas Tolimán	10	San Lucas Tolimán	6	Junio	2023-09-06T00:00:00	2024-11-08T10:00:00	7	Dirección del viento	9.66
128839	7	Sololá	713	San Lucas Tolimán	10	San Lucas Tolimán	6	Junio	2023-09-06T00:00:00	2024-11-08T10:00:00	1	Precipitación	0
128840	7	Sololá	713	San Lucas Tolimán	10	San Lucas Tolimán	6	Junio	2023-09-06T00:00:00	2024-11-08T10:00:00	8	Radiación solar	793
128841	7	Sololá	713	San Lucas Tolimán	10	San Lucas Tolimán	6	Junio	2023-09-06T00:00:00	2024-11-08T11:00:00	2	Temperatura media	23.7
128842	7	Sololá	713	San Lucas Tolimán	10	San Lucas Tolimán	6	Junio	2023-09-06T00:00:00	2024-11-08T11:00:00	4	Temperatura máxima	23.7
128843	7	Sololá	713	San Lucas Tolimán	10	San Lucas Tolimán	6	Junio	2023-09-06T00:00:00	2024-11-08T11:00:00	3	Temperatura mínima	22.7
128844	7	Sololá	713	San Lucas Tolimán	10	San Lucas Tolimán	6	Junio	2023-09-06T00:00:00	2024-11-08T11:00:00	5	Humedad	55
128845	7	Sololá	713	San Lucas Tolimán	10	San Lucas Tolimán	6	Junio	2023-09-06T00:00:00	2024-11-08T11:00:00	6	Velocidad del viento	9.7
128846	7	Sololá	713	San Lucas Tolimán	10	San Lucas Tolimán	6	Junio	2023-09-06T00:00:00	2024-11-08T11:00:00	7	Dirección del viento	9.66
128847	7	Sololá	713	San Lucas Tolimán	10	San Lucas Tolimán	6	Junio	2023-09-06T00:00:00	2024-11-08T11:00:00	1	Precipitación	0
128848	7	Sololá	713	San Lucas Tolimán	10	San Lucas Tolimán	6	Junio	2023-09-06T00:00:00	2024-11-08T11:00:00	8	Radiación solar	1027
128849	7	Sololá	713	San Lucas Tolimán	10	San Lucas Tolimán	6	Junio	2023-09-06T00:00:00	2024-11-08T12:00:00	2	Temperatura media	22.1
128850	7	Sololá	713	San Lucas Tolimán	10	San Lucas Tolimán	6	Junio	2023-09-06T00:00:00	2024-11-08T12:00:00	4	Temperatura máxima	23.6
128851	7	Sololá	713	San Lucas Tolimán	10	San Lucas Tolimán	6	Junio	2023-09-06T00:00:00	2024-11-08T12:00:00	3	Temperatura mínima	22
128852	7	Sololá	713	San Lucas Tolimán	10	San Lucas Tolimán	6	Junio	2023-09-06T00:00:00	2024-11-08T12:00:00	5	Humedad	60
128853	7	Sololá	713	San Lucas Tolimán	10	San Lucas Tolimán	6	Junio	2023-09-06T00:00:00	2024-11-08T12:00:00	6	Velocidad del viento	9.7
128854	7	Sololá	713	San Lucas Tolimán	10	San Lucas Tolimán	6	Junio	2023-09-06T00:00:00	2024-11-08T12:00:00	7	Dirección del viento	9.66
128855	7	Sololá	713	San Lucas Tolimán	10	San Lucas Tolimán	6	Junio	2023-09-06T00:00:00	2024-11-08T12:00:00	1	Precipitación	0
128856	7	Sololá	713	San Lucas Tolimán	10	San Lucas Tolimán	6	Junio	2023-09-06T00:00:00	2024-11-08T12:00:00	8	Radiación solar	643
128857	7	Sololá	713	San Lucas Tolimán	10	San Lucas Tolimán	6	Junio	2023-09-06T00:00:00	2024-11-08T13:00:00	2	Temperatura media	22.8
128858	7	Sololá	713	San Lucas Tolimán	10	San Lucas Tolimán	6	Junio	2023-09-06T00:00:00	2024-11-08T13:00:00	4	Temperatura máxima	22.8
128859	7	Sololá	713	San Lucas Tolimán	10	San Lucas Tolimán	6	Junio	2023-09-06T00:00:00	2024-11-08T13:00:00	3	Temperatura mínima	21.7
128860	7	Sololá	713	San Lucas Tolimán	10	San Lucas Tolimán	6	Junio	2023-09-06T00:00:00	2024-11-08T13:00:00	5	Humedad	59
128861	7	Sololá	713	San Lucas Tolimán	10	San Lucas Tolimán	6	Junio	2023-09-06T00:00:00	2024-11-08T13:00:00	6	Velocidad del viento	9.7
128862	7	Sololá	713	San Lucas Tolimán	10	San Lucas Tolimán	6	Junio	2023-09-06T00:00:00	2024-11-08T13:00:00	7	Dirección del viento	9.66
128863	7	Sololá	713	San Lucas Tolimán	10	San Lucas Tolimán	6	Junio	2023-09-06T00:00:00	2024-11-08T13:00:00	1	Precipitación	0
128864	7	Sololá	713	San Lucas Tolimán	10	San Lucas Tolimán	6	Junio	2023-09-06T00:00:00	2024-11-08T13:00:00	8	Radiación solar	649
128865	7	Sololá	713	San Lucas Tolimán	10	San Lucas Tolimán	6	Junio	2023-09-06T00:00:00	2024-11-08T14:00:00	2	Temperatura media	23.4
128866	7	Sololá	713	San Lucas Tolimán	10	San Lucas Tolimán	6	Junio	2023-09-06T00:00:00	2024-11-08T14:00:00	4	Temperatura máxima	23.4
128867	7	Sololá	713	San Lucas Tolimán	10	San Lucas Tolimán	6	Junio	2023-09-06T00:00:00	2024-11-08T14:00:00	3	Temperatura mínima	22.8
128868	7	Sololá	713	San Lucas Tolimán	10	San Lucas Tolimán	6	Junio	2023-09-06T00:00:00	2024-11-08T14:00:00	5	Humedad	58
128869	7	Sololá	713	San Lucas Tolimán	10	San Lucas Tolimán	6	Junio	2023-09-06T00:00:00	2024-11-08T14:00:00	6	Velocidad del viento	11.3
128870	7	Sololá	713	San Lucas Tolimán	10	San Lucas Tolimán	6	Junio	2023-09-06T00:00:00	2024-11-08T14:00:00	7	Dirección del viento	11.27
128871	7	Sololá	713	San Lucas Tolimán	10	San Lucas Tolimán	6	Junio	2023-09-06T00:00:00	2024-11-08T14:00:00	1	Precipitación	0
128872	7	Sololá	713	San Lucas Tolimán	10	San Lucas Tolimán	6	Junio	2023-09-06T00:00:00	2024-11-08T14:00:00	8	Radiación solar	968
128873	7	Sololá	713	San Lucas Tolimán	10	San Lucas Tolimán	6	Junio	2023-09-06T00:00:00	2024-11-08T15:00:00	2	Temperatura media	23.6
128874	7	Sololá	713	San Lucas Tolimán	10	San Lucas Tolimán	6	Junio	2023-09-06T00:00:00	2024-11-08T15:00:00	4	Temperatura máxima	24.3
128875	7	Sololá	713	San Lucas Tolimán	10	San Lucas Tolimán	6	Junio	2023-09-06T00:00:00	2024-11-08T15:00:00	3	Temperatura mínima	23.4
128876	7	Sololá	713	San Lucas Tolimán	10	San Lucas Tolimán	6	Junio	2023-09-06T00:00:00	2024-11-08T15:00:00	5	Humedad	58
128877	7	Sololá	713	San Lucas Tolimán	10	San Lucas Tolimán	6	Junio	2023-09-06T00:00:00	2024-11-08T15:00:00	6	Velocidad del viento	9.7
128878	7	Sololá	713	San Lucas Tolimán	10	San Lucas Tolimán	6	Junio	2023-09-06T00:00:00	2024-11-08T15:00:00	7	Dirección del viento	9.66
128879	7	Sololá	713	San Lucas Tolimán	10	San Lucas Tolimán	6	Junio	2023-09-06T00:00:00	2024-11-08T15:00:00	1	Precipitación	0
128880	7	Sololá	713	San Lucas Tolimán	10	San Lucas Tolimán	6	Junio	2023-09-06T00:00:00	2024-11-08T15:00:00	8	Radiación solar	926
128881	7	Sololá	713	San Lucas Tolimán	10	San Lucas Tolimán	6	Junio	2023-09-06T00:00:00	2024-11-08T16:00:00	2	Temperatura media	22.4
128882	7	Sololá	713	San Lucas Tolimán	10	San Lucas Tolimán	6	Junio	2023-09-06T00:00:00	2024-11-08T16:00:00	4	Temperatura máxima	23.7
128883	7	Sololá	713	San Lucas Tolimán	10	San Lucas Tolimán	6	Junio	2023-09-06T00:00:00	2024-11-08T16:00:00	3	Temperatura mínima	22.4
128884	7	Sololá	713	San Lucas Tolimán	10	San Lucas Tolimán	6	Junio	2023-09-06T00:00:00	2024-11-08T16:00:00	5	Humedad	60
128885	7	Sololá	713	San Lucas Tolimán	10	San Lucas Tolimán	6	Junio	2023-09-06T00:00:00	2024-11-08T16:00:00	6	Velocidad del viento	11.3
128886	7	Sololá	713	San Lucas Tolimán	10	San Lucas Tolimán	6	Junio	2023-09-06T00:00:00	2024-11-08T16:00:00	7	Dirección del viento	11.27
128887	7	Sololá	713	San Lucas Tolimán	10	San Lucas Tolimán	6	Junio	2023-09-06T00:00:00	2024-11-08T16:00:00	1	Precipitación	0
128888	7	Sololá	713	San Lucas Tolimán	10	San Lucas Tolimán	6	Junio	2023-09-06T00:00:00	2024-11-08T16:00:00	8	Radiación solar	597
128889	7	Sololá	713	San Lucas Tolimán	10	San Lucas Tolimán	6	Junio	2023-09-06T00:00:00	2024-11-08T17:00:00	2	Temperatura media	22.2
128890	7	Sololá	713	San Lucas Tolimán	10	San Lucas Tolimán	6	Junio	2023-09-06T00:00:00	2024-11-08T17:00:00	4	Temperatura máxima	23.2
128891	7	Sololá	713	San Lucas Tolimán	10	San Lucas Tolimán	6	Junio	2023-09-06T00:00:00	2024-11-08T17:00:00	3	Temperatura mínima	22.2
128892	7	Sololá	713	San Lucas Tolimán	10	San Lucas Tolimán	6	Junio	2023-09-06T00:00:00	2024-11-08T17:00:00	5	Humedad	61
128893	7	Sololá	713	San Lucas Tolimán	10	San Lucas Tolimán	6	Junio	2023-09-06T00:00:00	2024-11-08T17:00:00	6	Velocidad del viento	9.7
128894	7	Sololá	713	San Lucas Tolimán	10	San Lucas Tolimán	6	Junio	2023-09-06T00:00:00	2024-11-08T17:00:00	7	Dirección del viento	9.66
128895	7	Sololá	713	San Lucas Tolimán	10	San Lucas Tolimán	6	Junio	2023-09-06T00:00:00	2024-11-08T17:00:00	1	Precipitación	0
128896	7	Sololá	713	San Lucas Tolimán	10	San Lucas Tolimán	6	Junio	2023-09-06T00:00:00	2024-11-08T17:00:00	8	Radiación solar	364
128897	7	Sololá	713	San Lucas Tolimán	10	San Lucas Tolimán	6	Junio	2023-09-06T00:00:00	2024-11-08T18:00:00	2	Temperatura media	21
128898	7	Sololá	713	San Lucas Tolimán	10	San Lucas Tolimán	6	Junio	2023-09-06T00:00:00	2024-11-08T18:00:00	4	Temperatura máxima	22.2
128899	7	Sololá	713	San Lucas Tolimán	10	San Lucas Tolimán	6	Junio	2023-09-06T00:00:00	2024-11-08T18:00:00	3	Temperatura mínima	20.9
128900	7	Sololá	713	San Lucas Tolimán	10	San Lucas Tolimán	6	Junio	2023-09-06T00:00:00	2024-11-08T18:00:00	5	Humedad	65
128901	7	Sololá	713	San Lucas Tolimán	10	San Lucas Tolimán	6	Junio	2023-09-06T00:00:00	2024-11-08T18:00:00	6	Velocidad del viento	8
128902	7	Sololá	713	San Lucas Tolimán	10	San Lucas Tolimán	6	Junio	2023-09-06T00:00:00	2024-11-08T18:00:00	7	Dirección del viento	8.05
128903	7	Sololá	713	San Lucas Tolimán	10	San Lucas Tolimán	6	Junio	2023-09-06T00:00:00	2024-11-08T18:00:00	1	Precipitación	0
128904	7	Sololá	713	San Lucas Tolimán	10	San Lucas Tolimán	6	Junio	2023-09-06T00:00:00	2024-11-08T18:00:00	8	Radiación solar	63
128905	7	Sololá	713	San Lucas Tolimán	10	San Lucas Tolimán	6	Junio	2023-09-06T00:00:00	2024-11-08T19:00:00	2	Temperatura media	20.3
128906	7	Sololá	713	San Lucas Tolimán	10	San Lucas Tolimán	6	Junio	2023-09-06T00:00:00	2024-11-08T19:00:00	4	Temperatura máxima	21
128907	7	Sololá	713	San Lucas Tolimán	10	San Lucas Tolimán	6	Junio	2023-09-06T00:00:00	2024-11-08T19:00:00	3	Temperatura mínima	20.2
128908	7	Sololá	713	San Lucas Tolimán	10	San Lucas Tolimán	6	Junio	2023-09-06T00:00:00	2024-11-08T19:00:00	5	Humedad	64
128909	7	Sololá	713	San Lucas Tolimán	10	San Lucas Tolimán	6	Junio	2023-09-06T00:00:00	2024-11-08T19:00:00	6	Velocidad del viento	6.4
128910	7	Sololá	713	San Lucas Tolimán	10	San Lucas Tolimán	6	Junio	2023-09-06T00:00:00	2024-11-08T19:00:00	7	Dirección del viento	6.44
128911	7	Sololá	713	San Lucas Tolimán	10	San Lucas Tolimán	6	Junio	2023-09-06T00:00:00	2024-11-08T19:00:00	1	Precipitación	0
128912	7	Sololá	713	San Lucas Tolimán	10	San Lucas Tolimán	6	Junio	2023-09-06T00:00:00	2024-11-08T19:00:00	8	Radiación solar	0
128913	7	Sololá	713	San Lucas Tolimán	10	San Lucas Tolimán	6	Junio	2023-09-06T00:00:00	2024-11-08T20:00:00	2	Temperatura media	18.5
128914	7	Sololá	713	San Lucas Tolimán	10	San Lucas Tolimán	6	Junio	2023-09-06T00:00:00	2024-11-08T20:00:00	4	Temperatura máxima	20.6
128915	7	Sololá	713	San Lucas Tolimán	10	San Lucas Tolimán	6	Junio	2023-09-06T00:00:00	2024-11-08T20:00:00	3	Temperatura mínima	18.5
128916	7	Sololá	713	San Lucas Tolimán	10	San Lucas Tolimán	6	Junio	2023-09-06T00:00:00	2024-11-08T20:00:00	5	Humedad	68
128917	7	Sololá	713	San Lucas Tolimán	10	San Lucas Tolimán	6	Junio	2023-09-06T00:00:00	2024-11-08T20:00:00	6	Velocidad del viento	9.7
128918	7	Sololá	713	San Lucas Tolimán	10	San Lucas Tolimán	6	Junio	2023-09-06T00:00:00	2024-11-08T20:00:00	7	Dirección del viento	9.66
128919	7	Sololá	713	San Lucas Tolimán	10	San Lucas Tolimán	6	Junio	2023-09-06T00:00:00	2024-11-08T20:00:00	1	Precipitación	0
128920	7	Sololá	713	San Lucas Tolimán	10	San Lucas Tolimán	6	Junio	2023-09-06T00:00:00	2024-11-08T20:00:00	8	Radiación solar	0
128921	7	Sololá	713	San Lucas Tolimán	10	San Lucas Tolimán	6	Junio	2023-09-06T00:00:00	2024-11-08T21:00:00	2	Temperatura media	18.8
128922	7	Sololá	713	San Lucas Tolimán	10	San Lucas Tolimán	6	Junio	2023-09-06T00:00:00	2024-11-08T21:00:00	4	Temperatura máxima	18.8
128923	7	Sololá	713	San Lucas Tolimán	10	San Lucas Tolimán	6	Junio	2023-09-06T00:00:00	2024-11-08T21:00:00	3	Temperatura mínima	18.4
128924	7	Sololá	713	San Lucas Tolimán	10	San Lucas Tolimán	6	Junio	2023-09-06T00:00:00	2024-11-08T21:00:00	5	Humedad	68
128925	7	Sololá	713	San Lucas Tolimán	10	San Lucas Tolimán	6	Junio	2023-09-06T00:00:00	2024-11-08T21:00:00	6	Velocidad del viento	8
128926	7	Sololá	713	San Lucas Tolimán	10	San Lucas Tolimán	6	Junio	2023-09-06T00:00:00	2024-11-08T21:00:00	7	Dirección del viento	8.05
128927	7	Sololá	713	San Lucas Tolimán	10	San Lucas Tolimán	6	Junio	2023-09-06T00:00:00	2024-11-08T21:00:00	1	Precipitación	0.2
128928	7	Sololá	713	San Lucas Tolimán	10	San Lucas Tolimán	6	Junio	2023-09-06T00:00:00	2024-11-08T21:00:00	8	Radiación solar	0
128929	7	Sololá	713	San Lucas Tolimán	10	San Lucas Tolimán	6	Junio	2023-09-06T00:00:00	2024-11-08T22:00:00	2	Temperatura media	18.9
128930	7	Sololá	713	San Lucas Tolimán	10	San Lucas Tolimán	6	Junio	2023-09-06T00:00:00	2024-11-08T22:00:00	4	Temperatura máxima	18.9
128931	7	Sololá	713	San Lucas Tolimán	10	San Lucas Tolimán	6	Junio	2023-09-06T00:00:00	2024-11-08T22:00:00	3	Temperatura mínima	18.7
128932	7	Sololá	713	San Lucas Tolimán	10	San Lucas Tolimán	6	Junio	2023-09-06T00:00:00	2024-11-08T22:00:00	5	Humedad	68
128933	7	Sololá	713	San Lucas Tolimán	10	San Lucas Tolimán	6	Junio	2023-09-06T00:00:00	2024-11-08T22:00:00	6	Velocidad del viento	6.4
128934	7	Sololá	713	San Lucas Tolimán	10	San Lucas Tolimán	6	Junio	2023-09-06T00:00:00	2024-11-08T22:00:00	7	Dirección del viento	6.44
128935	7	Sololá	713	San Lucas Tolimán	10	San Lucas Tolimán	6	Junio	2023-09-06T00:00:00	2024-11-08T22:00:00	1	Precipitación	0
128936	7	Sololá	713	San Lucas Tolimán	10	San Lucas Tolimán	6	Junio	2023-09-06T00:00:00	2024-11-08T22:00:00	8	Radiación solar	0
128937	7	Sololá	713	San Lucas Tolimán	10	San Lucas Tolimán	6	Junio	2023-09-06T00:00:00	2024-11-08T23:00:00	2	Temperatura media	18.6
128938	7	Sololá	713	San Lucas Tolimán	10	San Lucas Tolimán	6	Junio	2023-09-06T00:00:00	2024-11-08T23:00:00	4	Temperatura máxima	18.9
128939	7	Sololá	713	San Lucas Tolimán	10	San Lucas Tolimán	6	Junio	2023-09-06T00:00:00	2024-11-08T23:00:00	3	Temperatura mínima	18.6
128940	7	Sololá	713	San Lucas Tolimán	10	San Lucas Tolimán	6	Junio	2023-09-06T00:00:00	2024-11-08T23:00:00	5	Humedad	69
128941	7	Sololá	713	San Lucas Tolimán	10	San Lucas Tolimán	6	Junio	2023-09-06T00:00:00	2024-11-08T23:00:00	6	Velocidad del viento	8
128942	7	Sololá	713	San Lucas Tolimán	10	San Lucas Tolimán	6	Junio	2023-09-06T00:00:00	2024-11-08T23:00:00	7	Dirección del viento	8.05
128943	7	Sololá	713	San Lucas Tolimán	10	San Lucas Tolimán	6	Junio	2023-09-06T00:00:00	2024-11-08T23:00:00	1	Precipitación	0
128944	7	Sololá	713	San Lucas Tolimán	10	San Lucas Tolimán	6	Junio	2023-09-06T00:00:00	2024-11-08T23:00:00	8	Radiación solar	0
128945	7	Sololá	713	San Lucas Tolimán	10	San Lucas Tolimán	6	Junio	2023-10-06T00:00:00	2024-11-08T00:00:00	2	Temperatura media	18.7
128946	7	Sololá	713	San Lucas Tolimán	10	San Lucas Tolimán	6	Junio	2023-10-06T00:00:00	2024-11-08T00:00:00	4	Temperatura máxima	18.8
128947	7	Sololá	713	San Lucas Tolimán	10	San Lucas Tolimán	6	Junio	2023-10-06T00:00:00	2024-11-08T00:00:00	3	Temperatura mínima	18.6
128948	7	Sololá	713	San Lucas Tolimán	10	San Lucas Tolimán	6	Junio	2023-10-06T00:00:00	2024-11-08T00:00:00	5	Humedad	68
128949	7	Sololá	713	San Lucas Tolimán	10	San Lucas Tolimán	6	Junio	2023-10-06T00:00:00	2024-11-08T00:00:00	6	Velocidad del viento	4.8
128950	7	Sololá	713	San Lucas Tolimán	10	San Lucas Tolimán	6	Junio	2023-10-06T00:00:00	2024-11-08T00:00:00	7	Dirección del viento	4.83
128951	7	Sololá	713	San Lucas Tolimán	10	San Lucas Tolimán	6	Junio	2023-10-06T00:00:00	2024-11-08T00:00:00	1	Precipitación	0
128952	7	Sololá	713	San Lucas Tolimán	10	San Lucas Tolimán	6	Junio	2023-10-06T00:00:00	2024-11-08T00:00:00	8	Radiación solar	0
128953	7	Sololá	713	San Lucas Tolimán	10	San Lucas Tolimán	6	Junio	2023-10-06T00:00:00	2024-11-08T01:00:00	2	Temperatura media	18.7
128954	7	Sololá	713	San Lucas Tolimán	10	San Lucas Tolimán	6	Junio	2023-10-06T00:00:00	2024-11-08T01:00:00	4	Temperatura máxima	18.8
128955	7	Sololá	713	San Lucas Tolimán	10	San Lucas Tolimán	6	Junio	2023-10-06T00:00:00	2024-11-08T01:00:00	3	Temperatura mínima	18.6
128956	7	Sololá	713	San Lucas Tolimán	10	San Lucas Tolimán	6	Junio	2023-10-06T00:00:00	2024-11-08T01:00:00	5	Humedad	68
128957	7	Sololá	713	San Lucas Tolimán	10	San Lucas Tolimán	6	Junio	2023-10-06T00:00:00	2024-11-08T01:00:00	6	Velocidad del viento	3.2
128958	7	Sololá	713	San Lucas Tolimán	10	San Lucas Tolimán	6	Junio	2023-10-06T00:00:00	2024-11-08T01:00:00	7	Dirección del viento	3.22
128959	7	Sololá	713	San Lucas Tolimán	10	San Lucas Tolimán	6	Junio	2023-10-06T00:00:00	2024-11-08T01:00:00	1	Precipitación	0
128960	7	Sololá	713	San Lucas Tolimán	10	San Lucas Tolimán	6	Junio	2023-10-06T00:00:00	2024-11-08T01:00:00	8	Radiación solar	0
128961	7	Sololá	713	San Lucas Tolimán	10	San Lucas Tolimán	6	Junio	2023-10-06T00:00:00	2024-11-08T02:00:00	2	Temperatura media	18.4
128962	7	Sololá	713	San Lucas Tolimán	10	San Lucas Tolimán	6	Junio	2023-10-06T00:00:00	2024-11-08T02:00:00	4	Temperatura máxima	18.7
128963	7	Sololá	713	San Lucas Tolimán	10	San Lucas Tolimán	6	Junio	2023-10-06T00:00:00	2024-11-08T02:00:00	3	Temperatura mínima	18.4
128964	7	Sololá	713	San Lucas Tolimán	10	San Lucas Tolimán	6	Junio	2023-10-06T00:00:00	2024-11-08T02:00:00	5	Humedad	68
128965	7	Sololá	713	San Lucas Tolimán	10	San Lucas Tolimán	6	Junio	2023-10-06T00:00:00	2024-11-08T02:00:00	6	Velocidad del viento	3.2
128966	7	Sololá	713	San Lucas Tolimán	10	San Lucas Tolimán	6	Junio	2023-10-06T00:00:00	2024-11-08T02:00:00	7	Dirección del viento	3.22
128967	7	Sololá	713	San Lucas Tolimán	10	San Lucas Tolimán	6	Junio	2023-10-06T00:00:00	2024-11-08T02:00:00	1	Precipitación	0
128968	7	Sololá	713	San Lucas Tolimán	10	San Lucas Tolimán	6	Junio	2023-10-06T00:00:00	2024-11-08T02:00:00	8	Radiación solar	0
128969	7	Sololá	713	San Lucas Tolimán	10	San Lucas Tolimán	6	Junio	2023-10-06T00:00:00	2024-11-08T03:00:00	2	Temperatura media	18.4
128970	7	Sololá	713	San Lucas Tolimán	10	San Lucas Tolimán	6	Junio	2023-10-06T00:00:00	2024-11-08T03:00:00	4	Temperatura máxima	18.6
128971	7	Sololá	713	San Lucas Tolimán	10	San Lucas Tolimán	6	Junio	2023-10-06T00:00:00	2024-11-08T03:00:00	3	Temperatura mínima	18.3
128972	7	Sololá	713	San Lucas Tolimán	10	San Lucas Tolimán	6	Junio	2023-10-06T00:00:00	2024-11-08T03:00:00	5	Humedad	67
128973	7	Sololá	713	San Lucas Tolimán	10	San Lucas Tolimán	6	Junio	2023-10-06T00:00:00	2024-11-08T03:00:00	6	Velocidad del viento	3.2
128974	7	Sololá	713	San Lucas Tolimán	10	San Lucas Tolimán	6	Junio	2023-10-06T00:00:00	2024-11-08T03:00:00	7	Dirección del viento	3.22
128975	7	Sololá	713	San Lucas Tolimán	10	San Lucas Tolimán	6	Junio	2023-10-06T00:00:00	2024-11-08T03:00:00	1	Precipitación	0
128976	7	Sololá	713	San Lucas Tolimán	10	San Lucas Tolimán	6	Junio	2023-10-06T00:00:00	2024-11-08T03:00:00	8	Radiación solar	0
128977	7	Sololá	713	San Lucas Tolimán	10	San Lucas Tolimán	6	Junio	2023-10-06T00:00:00	2024-11-08T04:00:00	2	Temperatura media	17.9
128978	7	Sololá	713	San Lucas Tolimán	10	San Lucas Tolimán	6	Junio	2023-10-06T00:00:00	2024-11-08T04:00:00	4	Temperatura máxima	18.4
128979	7	Sololá	713	San Lucas Tolimán	10	San Lucas Tolimán	6	Junio	2023-10-06T00:00:00	2024-11-08T04:00:00	3	Temperatura mínima	17.9
128980	7	Sololá	713	San Lucas Tolimán	10	San Lucas Tolimán	6	Junio	2023-10-06T00:00:00	2024-11-08T04:00:00	5	Humedad	68
128981	7	Sololá	713	San Lucas Tolimán	10	San Lucas Tolimán	6	Junio	2023-10-06T00:00:00	2024-11-08T04:00:00	6	Velocidad del viento	1.6
128982	7	Sololá	713	San Lucas Tolimán	10	San Lucas Tolimán	6	Junio	2023-10-06T00:00:00	2024-11-08T04:00:00	7	Dirección del viento	1.61
128983	7	Sololá	713	San Lucas Tolimán	10	San Lucas Tolimán	6	Junio	2023-10-06T00:00:00	2024-11-08T04:00:00	1	Precipitación	0
128984	7	Sololá	713	San Lucas Tolimán	10	San Lucas Tolimán	6	Junio	2023-10-06T00:00:00	2024-11-08T04:00:00	8	Radiación solar	0
128985	7	Sololá	713	San Lucas Tolimán	10	San Lucas Tolimán	6	Junio	2023-10-06T00:00:00	2024-11-08T05:00:00	2	Temperatura media	17.1
128986	7	Sololá	713	San Lucas Tolimán	10	San Lucas Tolimán	6	Junio	2023-10-06T00:00:00	2024-11-08T05:00:00	4	Temperatura máxima	17.9
128987	7	Sololá	713	San Lucas Tolimán	10	San Lucas Tolimán	6	Junio	2023-10-06T00:00:00	2024-11-08T05:00:00	3	Temperatura mínima	17.1
128988	7	Sololá	713	San Lucas Tolimán	10	San Lucas Tolimán	6	Junio	2023-10-06T00:00:00	2024-11-08T05:00:00	5	Humedad	68
128989	7	Sololá	713	San Lucas Tolimán	10	San Lucas Tolimán	6	Junio	2023-10-06T00:00:00	2024-11-08T05:00:00	6	Velocidad del viento	1.6
128990	7	Sololá	713	San Lucas Tolimán	10	San Lucas Tolimán	6	Junio	2023-10-06T00:00:00	2024-11-08T05:00:00	7	Dirección del viento	1.61
128991	7	Sololá	713	San Lucas Tolimán	10	San Lucas Tolimán	6	Junio	2023-10-06T00:00:00	2024-11-08T05:00:00	1	Precipitación	0
128992	7	Sololá	713	San Lucas Tolimán	10	San Lucas Tolimán	6	Junio	2023-10-06T00:00:00	2024-11-08T05:00:00	8	Radiación solar	0
128993	7	Sololá	713	San Lucas Tolimán	10	San Lucas Tolimán	6	Junio	2023-10-06T00:00:00	2024-11-08T06:00:00	2	Temperatura media	17.3
128994	7	Sololá	713	San Lucas Tolimán	10	San Lucas Tolimán	6	Junio	2023-10-06T00:00:00	2024-11-08T06:00:00	4	Temperatura máxima	17.3
128995	7	Sololá	713	San Lucas Tolimán	10	San Lucas Tolimán	6	Junio	2023-10-06T00:00:00	2024-11-08T06:00:00	3	Temperatura mínima	16.8
128996	7	Sololá	713	San Lucas Tolimán	10	San Lucas Tolimán	6	Junio	2023-10-06T00:00:00	2024-11-08T06:00:00	5	Humedad	68
128997	7	Sololá	713	San Lucas Tolimán	10	San Lucas Tolimán	6	Junio	2023-10-06T00:00:00	2024-11-08T06:00:00	6	Velocidad del viento	1.6
128998	7	Sololá	713	San Lucas Tolimán	10	San Lucas Tolimán	6	Junio	2023-10-06T00:00:00	2024-11-08T06:00:00	7	Dirección del viento	1.61
128999	7	Sololá	713	San Lucas Tolimán	10	San Lucas Tolimán	6	Junio	2023-10-06T00:00:00	2024-11-08T06:00:00	1	Precipitación	0
129000	7	Sololá	713	San Lucas Tolimán	10	San Lucas Tolimán	6	Junio	2023-10-06T00:00:00	2024-11-08T06:00:00	8	Radiación solar	7
129001	7	Sololá	713	San Lucas Tolimán	10	San Lucas Tolimán	6	Junio	2023-10-06T00:00:00	2024-11-08T07:00:00	2	Temperatura media	19.7
129002	7	Sololá	713	San Lucas Tolimán	10	San Lucas Tolimán	6	Junio	2023-10-06T00:00:00	2024-11-08T07:00:00	4	Temperatura máxima	19.7
129003	7	Sololá	713	San Lucas Tolimán	10	San Lucas Tolimán	6	Junio	2023-10-06T00:00:00	2024-11-08T07:00:00	3	Temperatura mínima	17.3
129004	7	Sololá	713	San Lucas Tolimán	10	San Lucas Tolimán	6	Junio	2023-10-06T00:00:00	2024-11-08T07:00:00	5	Humedad	64
129005	7	Sololá	713	San Lucas Tolimán	10	San Lucas Tolimán	6	Junio	2023-10-06T00:00:00	2024-11-08T07:00:00	6	Velocidad del viento	3.2
129006	7	Sololá	713	San Lucas Tolimán	10	San Lucas Tolimán	6	Junio	2023-10-06T00:00:00	2024-11-08T07:00:00	7	Dirección del viento	3.22
129007	7	Sololá	713	San Lucas Tolimán	10	San Lucas Tolimán	6	Junio	2023-10-06T00:00:00	2024-11-08T07:00:00	1	Precipitación	0
129008	7	Sololá	713	San Lucas Tolimán	10	San Lucas Tolimán	6	Junio	2023-10-06T00:00:00	2024-11-08T07:00:00	8	Radiación solar	115
129009	7	Sololá	713	San Lucas Tolimán	10	San Lucas Tolimán	6	Junio	2023-10-06T00:00:00	2024-11-08T08:00:00	2	Temperatura media	21.4
129010	7	Sololá	713	San Lucas Tolimán	10	San Lucas Tolimán	6	Junio	2023-10-06T00:00:00	2024-11-08T08:00:00	4	Temperatura máxima	21.4
129011	7	Sololá	713	San Lucas Tolimán	10	San Lucas Tolimán	6	Junio	2023-10-06T00:00:00	2024-11-08T08:00:00	3	Temperatura mínima	19.7
129012	7	Sololá	713	San Lucas Tolimán	10	San Lucas Tolimán	6	Junio	2023-10-06T00:00:00	2024-11-08T08:00:00	5	Humedad	58
129013	7	Sololá	713	San Lucas Tolimán	10	San Lucas Tolimán	6	Junio	2023-10-06T00:00:00	2024-11-08T08:00:00	6	Velocidad del viento	4.8
129014	7	Sololá	713	San Lucas Tolimán	10	San Lucas Tolimán	6	Junio	2023-10-06T00:00:00	2024-11-08T08:00:00	7	Dirección del viento	4.83
129015	7	Sololá	713	San Lucas Tolimán	10	San Lucas Tolimán	6	Junio	2023-10-06T00:00:00	2024-11-08T08:00:00	1	Precipitación	0
129016	7	Sololá	713	San Lucas Tolimán	10	San Lucas Tolimán	6	Junio	2023-10-06T00:00:00	2024-11-08T08:00:00	8	Radiación solar	336
129017	7	Sololá	713	San Lucas Tolimán	10	San Lucas Tolimán	6	Junio	2023-10-06T00:00:00	2024-11-08T09:00:00	2	Temperatura media	22.3
129018	7	Sololá	713	San Lucas Tolimán	10	San Lucas Tolimán	6	Junio	2023-10-06T00:00:00	2024-11-08T09:00:00	4	Temperatura máxima	22.3
129019	7	Sololá	713	San Lucas Tolimán	10	San Lucas Tolimán	6	Junio	2023-10-06T00:00:00	2024-11-08T09:00:00	3	Temperatura mínima	21.2
129020	7	Sololá	713	San Lucas Tolimán	10	San Lucas Tolimán	6	Junio	2023-10-06T00:00:00	2024-11-08T09:00:00	5	Humedad	55
129021	7	Sololá	713	San Lucas Tolimán	10	San Lucas Tolimán	6	Junio	2023-10-06T00:00:00	2024-11-08T09:00:00	6	Velocidad del viento	4.8
129022	7	Sololá	713	San Lucas Tolimán	10	San Lucas Tolimán	6	Junio	2023-10-06T00:00:00	2024-11-08T09:00:00	7	Dirección del viento	4.83
129023	7	Sololá	713	San Lucas Tolimán	10	San Lucas Tolimán	6	Junio	2023-10-06T00:00:00	2024-11-08T09:00:00	1	Precipitación	0
129024	7	Sololá	713	San Lucas Tolimán	10	San Lucas Tolimán	6	Junio	2023-10-06T00:00:00	2024-11-08T09:00:00	8	Radiación solar	436
129025	7	Sololá	713	San Lucas Tolimán	10	San Lucas Tolimán	6	Junio	2023-10-06T00:00:00	2024-11-08T10:00:00	2	Temperatura media	22.1
129026	7	Sololá	713	San Lucas Tolimán	10	San Lucas Tolimán	6	Junio	2023-10-06T00:00:00	2024-11-08T10:00:00	4	Temperatura máxima	22.6
129027	7	Sololá	713	San Lucas Tolimán	10	San Lucas Tolimán	6	Junio	2023-10-06T00:00:00	2024-11-08T10:00:00	3	Temperatura mínima	21.9
129028	7	Sololá	713	San Lucas Tolimán	10	San Lucas Tolimán	6	Junio	2023-10-06T00:00:00	2024-11-08T10:00:00	5	Humedad	57
129029	7	Sololá	713	San Lucas Tolimán	10	San Lucas Tolimán	6	Junio	2023-10-06T00:00:00	2024-11-08T10:00:00	6	Velocidad del viento	8
129030	7	Sololá	713	San Lucas Tolimán	10	San Lucas Tolimán	6	Junio	2023-10-06T00:00:00	2024-11-08T10:00:00	7	Dirección del viento	8.05
129031	7	Sololá	713	San Lucas Tolimán	10	San Lucas Tolimán	6	Junio	2023-10-06T00:00:00	2024-11-08T10:00:00	1	Precipitación	0
129032	7	Sololá	713	San Lucas Tolimán	10	San Lucas Tolimán	6	Junio	2023-10-06T00:00:00	2024-11-08T10:00:00	8	Radiación solar	656
129033	7	Sololá	713	San Lucas Tolimán	10	San Lucas Tolimán	6	Junio	2023-10-06T00:00:00	2024-11-08T11:00:00	2	Temperatura media	22.8
129034	7	Sololá	713	San Lucas Tolimán	10	San Lucas Tolimán	6	Junio	2023-10-06T00:00:00	2024-11-08T11:00:00	4	Temperatura máxima	22.8
129035	7	Sololá	713	San Lucas Tolimán	10	San Lucas Tolimán	6	Junio	2023-10-06T00:00:00	2024-11-08T11:00:00	3	Temperatura mínima	22.1
129036	7	Sololá	713	San Lucas Tolimán	10	San Lucas Tolimán	6	Junio	2023-10-06T00:00:00	2024-11-08T11:00:00	5	Humedad	57
129037	7	Sololá	713	San Lucas Tolimán	10	San Lucas Tolimán	6	Junio	2023-10-06T00:00:00	2024-11-08T11:00:00	6	Velocidad del viento	12.9
129038	7	Sololá	713	San Lucas Tolimán	10	San Lucas Tolimán	6	Junio	2023-10-06T00:00:00	2024-11-08T11:00:00	7	Dirección del viento	12.87
129039	7	Sololá	713	San Lucas Tolimán	10	San Lucas Tolimán	6	Junio	2023-10-06T00:00:00	2024-11-08T11:00:00	1	Precipitación	0
129040	7	Sololá	713	San Lucas Tolimán	10	San Lucas Tolimán	6	Junio	2023-10-06T00:00:00	2024-11-08T11:00:00	8	Radiación solar	941
129041	7	Sololá	713	San Lucas Tolimán	10	San Lucas Tolimán	6	Junio	2023-10-06T00:00:00	2024-11-08T12:00:00	2	Temperatura media	21.4
129042	7	Sololá	713	San Lucas Tolimán	10	San Lucas Tolimán	6	Junio	2023-10-06T00:00:00	2024-11-08T12:00:00	4	Temperatura máxima	22.8
129043	7	Sololá	713	San Lucas Tolimán	10	San Lucas Tolimán	6	Junio	2023-10-06T00:00:00	2024-11-08T12:00:00	3	Temperatura mínima	21.3
129044	7	Sololá	713	San Lucas Tolimán	10	San Lucas Tolimán	6	Junio	2023-10-06T00:00:00	2024-11-08T12:00:00	5	Humedad	61
129045	7	Sololá	713	San Lucas Tolimán	10	San Lucas Tolimán	6	Junio	2023-10-06T00:00:00	2024-11-08T12:00:00	6	Velocidad del viento	9.7
129046	7	Sololá	713	San Lucas Tolimán	10	San Lucas Tolimán	6	Junio	2023-10-06T00:00:00	2024-11-08T12:00:00	7	Dirección del viento	9.66
129047	7	Sololá	713	San Lucas Tolimán	10	San Lucas Tolimán	6	Junio	2023-10-06T00:00:00	2024-11-08T12:00:00	1	Precipitación	0
129048	7	Sololá	713	San Lucas Tolimán	10	San Lucas Tolimán	6	Junio	2023-10-06T00:00:00	2024-11-08T12:00:00	8	Radiación solar	535
129049	7	Sololá	713	San Lucas Tolimán	10	San Lucas Tolimán	6	Junio	2023-10-06T00:00:00	2024-11-08T13:00:00	2	Temperatura media	21.6
129050	7	Sololá	713	San Lucas Tolimán	10	San Lucas Tolimán	6	Junio	2023-10-06T00:00:00	2024-11-08T13:00:00	4	Temperatura máxima	21.7
129051	7	Sololá	713	San Lucas Tolimán	10	San Lucas Tolimán	6	Junio	2023-10-06T00:00:00	2024-11-08T13:00:00	3	Temperatura mínima	21.1
129052	7	Sololá	713	San Lucas Tolimán	10	San Lucas Tolimán	6	Junio	2023-10-06T00:00:00	2024-11-08T13:00:00	5	Humedad	61
129053	7	Sololá	713	San Lucas Tolimán	10	San Lucas Tolimán	6	Junio	2023-10-06T00:00:00	2024-11-08T13:00:00	6	Velocidad del viento	8
129054	7	Sololá	713	San Lucas Tolimán	10	San Lucas Tolimán	6	Junio	2023-10-06T00:00:00	2024-11-08T13:00:00	7	Dirección del viento	8.05
129055	7	Sololá	713	San Lucas Tolimán	10	San Lucas Tolimán	6	Junio	2023-10-06T00:00:00	2024-11-08T13:00:00	1	Precipitación	0
129056	7	Sololá	713	San Lucas Tolimán	10	San Lucas Tolimán	6	Junio	2023-10-06T00:00:00	2024-11-08T13:00:00	8	Radiación solar	292
129057	7	Sololá	713	San Lucas Tolimán	10	San Lucas Tolimán	6	Junio	2023-10-06T00:00:00	2024-11-08T14:00:00	2	Temperatura media	19.6
129058	7	Sololá	713	San Lucas Tolimán	10	San Lucas Tolimán	6	Junio	2023-10-06T00:00:00	2024-11-08T14:00:00	4	Temperatura máxima	22.6
129059	7	Sololá	713	San Lucas Tolimán	10	San Lucas Tolimán	6	Junio	2023-10-06T00:00:00	2024-11-08T14:00:00	3	Temperatura mínima	19.6
129060	7	Sololá	713	San Lucas Tolimán	10	San Lucas Tolimán	6	Junio	2023-10-06T00:00:00	2024-11-08T14:00:00	5	Humedad	64
129061	7	Sololá	713	San Lucas Tolimán	10	San Lucas Tolimán	6	Junio	2023-10-06T00:00:00	2024-11-08T14:00:00	6	Velocidad del viento	8
129062	7	Sololá	713	San Lucas Tolimán	10	San Lucas Tolimán	6	Junio	2023-10-06T00:00:00	2024-11-08T14:00:00	7	Dirección del viento	8.05
129063	7	Sololá	713	San Lucas Tolimán	10	San Lucas Tolimán	6	Junio	2023-10-06T00:00:00	2024-11-08T14:00:00	1	Precipitación	0
129064	7	Sololá	713	San Lucas Tolimán	10	San Lucas Tolimán	6	Junio	2023-10-06T00:00:00	2024-11-08T14:00:00	8	Radiación solar	334
129065	7	Sololá	713	San Lucas Tolimán	10	San Lucas Tolimán	6	Junio	2023-10-06T00:00:00	2024-11-08T15:00:00	2	Temperatura media	20.1
129066	7	Sololá	713	San Lucas Tolimán	10	San Lucas Tolimán	6	Junio	2023-10-06T00:00:00	2024-11-08T15:00:00	4	Temperatura máxima	20.7
129067	7	Sololá	713	San Lucas Tolimán	10	San Lucas Tolimán	6	Junio	2023-10-06T00:00:00	2024-11-08T15:00:00	3	Temperatura mínima	19.4
129068	7	Sololá	713	San Lucas Tolimán	10	San Lucas Tolimán	6	Junio	2023-10-06T00:00:00	2024-11-08T15:00:00	5	Humedad	60
129069	7	Sololá	713	San Lucas Tolimán	10	San Lucas Tolimán	6	Junio	2023-10-06T00:00:00	2024-11-08T15:00:00	6	Velocidad del viento	9.7
129070	7	Sololá	713	San Lucas Tolimán	10	San Lucas Tolimán	6	Junio	2023-10-06T00:00:00	2024-11-08T15:00:00	7	Dirección del viento	9.66
129071	7	Sololá	713	San Lucas Tolimán	10	San Lucas Tolimán	6	Junio	2023-10-06T00:00:00	2024-11-08T15:00:00	1	Precipitación	0
129072	7	Sololá	713	San Lucas Tolimán	10	San Lucas Tolimán	6	Junio	2023-10-06T00:00:00	2024-11-08T15:00:00	8	Radiación solar	263
129073	7	Sololá	713	San Lucas Tolimán	10	San Lucas Tolimán	6	Junio	2023-10-06T00:00:00	2024-11-08T16:00:00	2	Temperatura media	19.4
129074	7	Sololá	713	San Lucas Tolimán	10	San Lucas Tolimán	6	Junio	2023-10-06T00:00:00	2024-11-08T16:00:00	4	Temperatura máxima	20.1
129075	7	Sololá	713	San Lucas Tolimán	10	San Lucas Tolimán	6	Junio	2023-10-06T00:00:00	2024-11-08T16:00:00	3	Temperatura mínima	19.4
129076	7	Sololá	713	San Lucas Tolimán	10	San Lucas Tolimán	6	Junio	2023-10-06T00:00:00	2024-11-08T16:00:00	5	Humedad	64
129077	7	Sololá	713	San Lucas Tolimán	10	San Lucas Tolimán	6	Junio	2023-10-06T00:00:00	2024-11-08T16:00:00	6	Velocidad del viento	9.7
129078	7	Sololá	713	San Lucas Tolimán	10	San Lucas Tolimán	6	Junio	2023-10-06T00:00:00	2024-11-08T16:00:00	7	Dirección del viento	9.66
129079	7	Sololá	713	San Lucas Tolimán	10	San Lucas Tolimán	6	Junio	2023-10-06T00:00:00	2024-11-08T16:00:00	1	Precipitación	0
129080	7	Sololá	713	San Lucas Tolimán	10	San Lucas Tolimán	6	Junio	2023-10-06T00:00:00	2024-11-08T16:00:00	8	Radiación solar	90
129081	7	Sololá	713	San Lucas Tolimán	10	San Lucas Tolimán	6	Junio	2023-10-06T00:00:00	2024-11-08T17:00:00	2	Temperatura media	19.4
129082	7	Sololá	713	San Lucas Tolimán	10	San Lucas Tolimán	6	Junio	2023-10-06T00:00:00	2024-11-08T17:00:00	4	Temperatura máxima	19.6
129083	7	Sololá	713	San Lucas Tolimán	10	San Lucas Tolimán	6	Junio	2023-10-06T00:00:00	2024-11-08T17:00:00	3	Temperatura mínima	19.3
129084	7	Sololá	713	San Lucas Tolimán	10	San Lucas Tolimán	6	Junio	2023-10-06T00:00:00	2024-11-08T17:00:00	5	Humedad	65
129085	7	Sololá	713	San Lucas Tolimán	10	San Lucas Tolimán	6	Junio	2023-10-06T00:00:00	2024-11-08T17:00:00	6	Velocidad del viento	4.8
129086	7	Sololá	713	San Lucas Tolimán	10	San Lucas Tolimán	6	Junio	2023-10-06T00:00:00	2024-11-08T17:00:00	7	Dirección del viento	4.83
129087	7	Sololá	713	San Lucas Tolimán	10	San Lucas Tolimán	6	Junio	2023-10-06T00:00:00	2024-11-08T17:00:00	1	Precipitación	0
129088	7	Sololá	713	San Lucas Tolimán	10	San Lucas Tolimán	6	Junio	2023-10-06T00:00:00	2024-11-08T17:00:00	8	Radiación solar	77
129089	7	Sololá	713	San Lucas Tolimán	10	San Lucas Tolimán	6	Junio	2023-10-06T00:00:00	2024-11-08T18:00:00	2	Temperatura media	19.4
129090	7	Sololá	713	San Lucas Tolimán	10	San Lucas Tolimán	6	Junio	2023-10-06T00:00:00	2024-11-08T18:00:00	4	Temperatura máxima	19.8
129091	7	Sololá	713	San Lucas Tolimán	10	San Lucas Tolimán	6	Junio	2023-10-06T00:00:00	2024-11-08T18:00:00	3	Temperatura mínima	19.4
129092	7	Sololá	713	San Lucas Tolimán	10	San Lucas Tolimán	6	Junio	2023-10-06T00:00:00	2024-11-08T18:00:00	5	Humedad	65
129093	7	Sololá	713	San Lucas Tolimán	10	San Lucas Tolimán	6	Junio	2023-10-06T00:00:00	2024-11-08T18:00:00	6	Velocidad del viento	3.2
129094	7	Sololá	713	San Lucas Tolimán	10	San Lucas Tolimán	6	Junio	2023-10-06T00:00:00	2024-11-08T18:00:00	7	Dirección del viento	3.22
129095	7	Sololá	713	San Lucas Tolimán	10	San Lucas Tolimán	6	Junio	2023-10-06T00:00:00	2024-11-08T18:00:00	1	Precipitación	0
129096	7	Sololá	713	San Lucas Tolimán	10	San Lucas Tolimán	6	Junio	2023-10-06T00:00:00	2024-11-08T18:00:00	8	Radiación solar	70
129097	7	Sololá	713	San Lucas Tolimán	10	San Lucas Tolimán	6	Junio	2023-10-06T00:00:00	2024-11-08T19:00:00	2	Temperatura media	20
129098	7	Sololá	713	San Lucas Tolimán	10	San Lucas Tolimán	6	Junio	2023-10-06T00:00:00	2024-11-08T19:00:00	4	Temperatura máxima	20
129099	7	Sololá	713	San Lucas Tolimán	10	San Lucas Tolimán	6	Junio	2023-10-06T00:00:00	2024-11-08T19:00:00	3	Temperatura mínima	19.4
129100	7	Sololá	713	San Lucas Tolimán	10	San Lucas Tolimán	6	Junio	2023-10-06T00:00:00	2024-11-08T19:00:00	5	Humedad	61
129101	7	Sololá	713	San Lucas Tolimán	10	San Lucas Tolimán	6	Junio	2023-10-06T00:00:00	2024-11-08T19:00:00	6	Velocidad del viento	4.8
129102	7	Sololá	713	San Lucas Tolimán	10	San Lucas Tolimán	6	Junio	2023-10-06T00:00:00	2024-11-08T19:00:00	7	Dirección del viento	4.83
129103	7	Sololá	713	San Lucas Tolimán	10	San Lucas Tolimán	6	Junio	2023-10-06T00:00:00	2024-11-08T19:00:00	1	Precipitación	0
129104	7	Sololá	713	San Lucas Tolimán	10	San Lucas Tolimán	6	Junio	2023-10-06T00:00:00	2024-11-08T19:00:00	8	Radiación solar	0
129105	7	Sololá	713	San Lucas Tolimán	10	San Lucas Tolimán	6	Junio	2023-10-06T00:00:00	2024-11-08T20:00:00	2	Temperatura media	19.4
129106	7	Sololá	713	San Lucas Tolimán	10	San Lucas Tolimán	6	Junio	2023-10-06T00:00:00	2024-11-08T20:00:00	4	Temperatura máxima	20
129107	7	Sololá	713	San Lucas Tolimán	10	San Lucas Tolimán	6	Junio	2023-10-06T00:00:00	2024-11-08T20:00:00	3	Temperatura mínima	19.4
129108	7	Sololá	713	San Lucas Tolimán	10	San Lucas Tolimán	6	Junio	2023-10-06T00:00:00	2024-11-08T20:00:00	5	Humedad	63
129109	7	Sololá	713	San Lucas Tolimán	10	San Lucas Tolimán	6	Junio	2023-10-06T00:00:00	2024-11-08T20:00:00	6	Velocidad del viento	1.6
129110	7	Sololá	713	San Lucas Tolimán	10	San Lucas Tolimán	6	Junio	2023-10-06T00:00:00	2024-11-08T20:00:00	7	Dirección del viento	1.61
129111	7	Sololá	713	San Lucas Tolimán	10	San Lucas Tolimán	6	Junio	2023-10-06T00:00:00	2024-11-08T20:00:00	1	Precipitación	0
129112	7	Sololá	713	San Lucas Tolimán	10	San Lucas Tolimán	6	Junio	2023-10-06T00:00:00	2024-11-08T20:00:00	8	Radiación solar	0
129113	7	Sololá	713	San Lucas Tolimán	10	San Lucas Tolimán	6	Junio	2023-10-06T00:00:00	2024-11-08T21:00:00	2	Temperatura media	18.9
129114	7	Sololá	713	San Lucas Tolimán	10	San Lucas Tolimán	6	Junio	2023-10-06T00:00:00	2024-11-08T21:00:00	4	Temperatura máxima	19.5
129115	7	Sololá	713	San Lucas Tolimán	10	San Lucas Tolimán	6	Junio	2023-10-06T00:00:00	2024-11-08T21:00:00	3	Temperatura mínima	18.9
129116	7	Sololá	713	San Lucas Tolimán	10	San Lucas Tolimán	6	Junio	2023-10-06T00:00:00	2024-11-08T21:00:00	5	Humedad	64
129117	7	Sololá	713	San Lucas Tolimán	10	San Lucas Tolimán	6	Junio	2023-10-06T00:00:00	2024-11-08T21:00:00	6	Velocidad del viento	0
129118	7	Sololá	713	San Lucas Tolimán	10	San Lucas Tolimán	6	Junio	2023-10-06T00:00:00	2024-11-08T21:00:00	7	Dirección del viento	0
129119	7	Sololá	713	San Lucas Tolimán	10	San Lucas Tolimán	6	Junio	2023-10-06T00:00:00	2024-11-08T21:00:00	1	Precipitación	0
129120	7	Sololá	713	San Lucas Tolimán	10	San Lucas Tolimán	6	Junio	2023-10-06T00:00:00	2024-11-08T21:00:00	8	Radiación solar	0
129121	7	Sololá	713	San Lucas Tolimán	10	San Lucas Tolimán	6	Junio	2023-10-06T00:00:00	2024-11-08T22:00:00	2	Temperatura media	18.7
129122	7	Sololá	713	San Lucas Tolimán	10	San Lucas Tolimán	6	Junio	2023-10-06T00:00:00	2024-11-08T22:00:00	4	Temperatura máxima	18.9
129123	7	Sololá	713	San Lucas Tolimán	10	San Lucas Tolimán	6	Junio	2023-10-06T00:00:00	2024-11-08T22:00:00	3	Temperatura mínima	18.7
129124	7	Sololá	713	San Lucas Tolimán	10	San Lucas Tolimán	6	Junio	2023-10-06T00:00:00	2024-11-08T22:00:00	5	Humedad	64
129125	7	Sololá	713	San Lucas Tolimán	10	San Lucas Tolimán	6	Junio	2023-10-06T00:00:00	2024-11-08T22:00:00	6	Velocidad del viento	0
129126	7	Sololá	713	San Lucas Tolimán	10	San Lucas Tolimán	6	Junio	2023-10-06T00:00:00	2024-11-08T22:00:00	7	Dirección del viento	0
129127	7	Sololá	713	San Lucas Tolimán	10	San Lucas Tolimán	6	Junio	2023-10-06T00:00:00	2024-11-08T22:00:00	1	Precipitación	0
129128	7	Sololá	713	San Lucas Tolimán	10	San Lucas Tolimán	6	Junio	2023-10-06T00:00:00	2024-11-08T22:00:00	8	Radiación solar	0
129129	7	Sololá	713	San Lucas Tolimán	10	San Lucas Tolimán	6	Junio	2023-10-06T00:00:00	2024-11-08T23:00:00	2	Temperatura media	18.8
129130	7	Sololá	713	San Lucas Tolimán	10	San Lucas Tolimán	6	Junio	2023-10-06T00:00:00	2024-11-08T23:00:00	4	Temperatura máxima	18.8
129131	7	Sololá	713	San Lucas Tolimán	10	San Lucas Tolimán	6	Junio	2023-10-06T00:00:00	2024-11-08T23:00:00	3	Temperatura mínima	18.6
129132	7	Sololá	713	San Lucas Tolimán	10	San Lucas Tolimán	6	Junio	2023-10-06T00:00:00	2024-11-08T23:00:00	5	Humedad	64
129133	7	Sololá	713	San Lucas Tolimán	10	San Lucas Tolimán	6	Junio	2023-10-06T00:00:00	2024-11-08T23:00:00	6	Velocidad del viento	1.6
129134	7	Sololá	713	San Lucas Tolimán	10	San Lucas Tolimán	6	Junio	2023-10-06T00:00:00	2024-11-08T23:00:00	7	Dirección del viento	1.61
129135	7	Sololá	713	San Lucas Tolimán	10	San Lucas Tolimán	6	Junio	2023-10-06T00:00:00	2024-11-08T23:00:00	1	Precipitación	0
129136	7	Sololá	713	San Lucas Tolimán	10	San Lucas Tolimán	6	Junio	2023-10-06T00:00:00	2024-11-08T23:00:00	8	Radiación solar	0
129137	7	Sololá	713	San Lucas Tolimán	10	San Lucas Tolimán	6	Junio	2023-11-06T00:00:00	2024-11-08T00:00:00	2	Temperatura media	18.7
129138	7	Sololá	713	San Lucas Tolimán	10	San Lucas Tolimán	6	Junio	2023-11-06T00:00:00	2024-11-08T00:00:00	4	Temperatura máxima	19.2
129139	7	Sololá	713	San Lucas Tolimán	10	San Lucas Tolimán	6	Junio	2023-11-06T00:00:00	2024-11-08T00:00:00	3	Temperatura mínima	18.7
129140	7	Sololá	713	San Lucas Tolimán	10	San Lucas Tolimán	6	Junio	2023-11-06T00:00:00	2024-11-08T00:00:00	5	Humedad	65
129141	7	Sololá	713	San Lucas Tolimán	10	San Lucas Tolimán	6	Junio	2023-11-06T00:00:00	2024-11-08T00:00:00	6	Velocidad del viento	0
129142	7	Sololá	713	San Lucas Tolimán	10	San Lucas Tolimán	6	Junio	2023-11-06T00:00:00	2024-11-08T00:00:00	7	Dirección del viento	0
129143	7	Sololá	713	San Lucas Tolimán	10	San Lucas Tolimán	6	Junio	2023-11-06T00:00:00	2024-11-08T00:00:00	1	Precipitación	0
129144	7	Sololá	713	San Lucas Tolimán	10	San Lucas Tolimán	6	Junio	2023-11-06T00:00:00	2024-11-08T00:00:00	8	Radiación solar	0
129145	7	Sololá	713	San Lucas Tolimán	10	San Lucas Tolimán	6	Junio	2023-11-06T00:00:00	2024-11-08T01:00:00	2	Temperatura media	17.8
129146	7	Sololá	713	San Lucas Tolimán	10	San Lucas Tolimán	6	Junio	2023-11-06T00:00:00	2024-11-08T01:00:00	4	Temperatura máxima	18.7
129147	7	Sololá	713	San Lucas Tolimán	10	San Lucas Tolimán	6	Junio	2023-11-06T00:00:00	2024-11-08T01:00:00	3	Temperatura mínima	17.8
129148	7	Sololá	713	San Lucas Tolimán	10	San Lucas Tolimán	6	Junio	2023-11-06T00:00:00	2024-11-08T01:00:00	5	Humedad	66
129149	7	Sololá	713	San Lucas Tolimán	10	San Lucas Tolimán	6	Junio	2023-11-06T00:00:00	2024-11-08T01:00:00	6	Velocidad del viento	3.2
129150	7	Sololá	713	San Lucas Tolimán	10	San Lucas Tolimán	6	Junio	2023-11-06T00:00:00	2024-11-08T01:00:00	7	Dirección del viento	3.22
129151	7	Sololá	713	San Lucas Tolimán	10	San Lucas Tolimán	6	Junio	2023-11-06T00:00:00	2024-11-08T01:00:00	1	Precipitación	0
129152	7	Sololá	713	San Lucas Tolimán	10	San Lucas Tolimán	6	Junio	2023-11-06T00:00:00	2024-11-08T01:00:00	8	Radiación solar	0
129153	7	Sololá	713	San Lucas Tolimán	10	San Lucas Tolimán	6	Junio	2023-11-06T00:00:00	2024-11-08T02:00:00	2	Temperatura media	17.3
129154	7	Sololá	713	San Lucas Tolimán	10	San Lucas Tolimán	6	Junio	2023-11-06T00:00:00	2024-11-08T02:00:00	4	Temperatura máxima	17.9
129155	7	Sololá	713	San Lucas Tolimán	10	San Lucas Tolimán	6	Junio	2023-11-06T00:00:00	2024-11-08T02:00:00	3	Temperatura mínima	16.9
129156	7	Sololá	713	San Lucas Tolimán	10	San Lucas Tolimán	6	Junio	2023-11-06T00:00:00	2024-11-08T02:00:00	5	Humedad	67
129157	7	Sololá	713	San Lucas Tolimán	10	San Lucas Tolimán	6	Junio	2023-11-06T00:00:00	2024-11-08T02:00:00	6	Velocidad del viento	6.4
129158	7	Sololá	713	San Lucas Tolimán	10	San Lucas Tolimán	6	Junio	2023-11-06T00:00:00	2024-11-08T02:00:00	7	Dirección del viento	6.44
129159	7	Sololá	713	San Lucas Tolimán	10	San Lucas Tolimán	6	Junio	2023-11-06T00:00:00	2024-11-08T02:00:00	1	Precipitación	0
129160	7	Sololá	713	San Lucas Tolimán	10	San Lucas Tolimán	6	Junio	2023-11-06T00:00:00	2024-11-08T02:00:00	8	Radiación solar	0
129161	7	Sololá	713	San Lucas Tolimán	10	San Lucas Tolimán	6	Junio	2023-11-06T00:00:00	2024-11-08T03:00:00	2	Temperatura media	17.3
129162	7	Sololá	713	San Lucas Tolimán	10	San Lucas Tolimán	6	Junio	2023-11-06T00:00:00	2024-11-08T03:00:00	4	Temperatura máxima	17.9
129163	7	Sololá	713	San Lucas Tolimán	10	San Lucas Tolimán	6	Junio	2023-11-06T00:00:00	2024-11-08T03:00:00	3	Temperatura mínima	17.3
129164	7	Sololá	713	San Lucas Tolimán	10	San Lucas Tolimán	6	Junio	2023-11-06T00:00:00	2024-11-08T03:00:00	5	Humedad	67
129165	7	Sololá	713	San Lucas Tolimán	10	San Lucas Tolimán	6	Junio	2023-11-06T00:00:00	2024-11-08T03:00:00	6	Velocidad del viento	8
129166	7	Sololá	713	San Lucas Tolimán	10	San Lucas Tolimán	6	Junio	2023-11-06T00:00:00	2024-11-08T03:00:00	7	Dirección del viento	8.05
129167	7	Sololá	713	San Lucas Tolimán	10	San Lucas Tolimán	6	Junio	2023-11-06T00:00:00	2024-11-08T03:00:00	1	Precipitación	0
129168	7	Sololá	713	San Lucas Tolimán	10	San Lucas Tolimán	6	Junio	2023-11-06T00:00:00	2024-11-08T03:00:00	8	Radiación solar	0
129169	7	Sololá	713	San Lucas Tolimán	10	San Lucas Tolimán	6	Junio	2023-11-06T00:00:00	2024-11-08T04:00:00	2	Temperatura media	16.6
129170	7	Sololá	713	San Lucas Tolimán	10	San Lucas Tolimán	6	Junio	2023-11-06T00:00:00	2024-11-08T04:00:00	4	Temperatura máxima	17.3
129171	7	Sololá	713	San Lucas Tolimán	10	San Lucas Tolimán	6	Junio	2023-11-06T00:00:00	2024-11-08T04:00:00	3	Temperatura mínima	16.5
129172	7	Sololá	713	San Lucas Tolimán	10	San Lucas Tolimán	6	Junio	2023-11-06T00:00:00	2024-11-08T04:00:00	5	Humedad	66
129173	7	Sololá	713	San Lucas Tolimán	10	San Lucas Tolimán	6	Junio	2023-11-06T00:00:00	2024-11-08T04:00:00	6	Velocidad del viento	1.6
129174	7	Sololá	713	San Lucas Tolimán	10	San Lucas Tolimán	6	Junio	2023-11-06T00:00:00	2024-11-08T04:00:00	7	Dirección del viento	1.61
129175	7	Sololá	713	San Lucas Tolimán	10	San Lucas Tolimán	6	Junio	2023-11-06T00:00:00	2024-11-08T04:00:00	1	Precipitación	0
129176	7	Sololá	713	San Lucas Tolimán	10	San Lucas Tolimán	6	Junio	2023-11-06T00:00:00	2024-11-08T04:00:00	8	Radiación solar	0
129177	7	Sololá	713	San Lucas Tolimán	10	San Lucas Tolimán	6	Junio	2023-11-06T00:00:00	2024-11-08T05:00:00	2	Temperatura media	15.9
129178	7	Sololá	713	San Lucas Tolimán	10	San Lucas Tolimán	6	Junio	2023-11-06T00:00:00	2024-11-08T05:00:00	4	Temperatura máxima	16.6
129179	7	Sololá	713	San Lucas Tolimán	10	San Lucas Tolimán	6	Junio	2023-11-06T00:00:00	2024-11-08T05:00:00	3	Temperatura mínima	15.9
129180	7	Sololá	713	San Lucas Tolimán	10	San Lucas Tolimán	6	Junio	2023-11-06T00:00:00	2024-11-08T05:00:00	5	Humedad	65
129181	7	Sololá	713	San Lucas Tolimán	10	San Lucas Tolimán	6	Junio	2023-11-06T00:00:00	2024-11-08T05:00:00	6	Velocidad del viento	3.2
129182	7	Sololá	713	San Lucas Tolimán	10	San Lucas Tolimán	6	Junio	2023-11-06T00:00:00	2024-11-08T05:00:00	7	Dirección del viento	3.22
129183	7	Sololá	713	San Lucas Tolimán	10	San Lucas Tolimán	6	Junio	2023-11-06T00:00:00	2024-11-08T05:00:00	1	Precipitación	0
129184	7	Sololá	713	San Lucas Tolimán	10	San Lucas Tolimán	6	Junio	2023-11-06T00:00:00	2024-11-08T05:00:00	8	Radiación solar	0
129185	7	Sololá	713	San Lucas Tolimán	10	San Lucas Tolimán	6	Junio	2023-11-06T00:00:00	2024-11-08T06:00:00	2	Temperatura media	16.4
129186	7	Sololá	713	San Lucas Tolimán	10	San Lucas Tolimán	6	Junio	2023-11-06T00:00:00	2024-11-08T06:00:00	4	Temperatura máxima	16.4
129187	7	Sololá	713	San Lucas Tolimán	10	San Lucas Tolimán	6	Junio	2023-11-06T00:00:00	2024-11-08T06:00:00	3	Temperatura mínima	15.8
129188	7	Sololá	713	San Lucas Tolimán	10	San Lucas Tolimán	6	Junio	2023-11-06T00:00:00	2024-11-08T06:00:00	5	Humedad	66
129189	7	Sololá	713	San Lucas Tolimán	10	San Lucas Tolimán	6	Junio	2023-11-06T00:00:00	2024-11-08T06:00:00	6	Velocidad del viento	0
129190	7	Sololá	713	San Lucas Tolimán	10	San Lucas Tolimán	6	Junio	2023-11-06T00:00:00	2024-11-08T06:00:00	7	Dirección del viento	0
129191	7	Sololá	713	San Lucas Tolimán	10	San Lucas Tolimán	6	Junio	2023-11-06T00:00:00	2024-11-08T06:00:00	1	Precipitación	0
129192	7	Sololá	713	San Lucas Tolimán	10	San Lucas Tolimán	6	Junio	2023-11-06T00:00:00	2024-11-08T06:00:00	8	Radiación solar	6
129193	7	Sololá	713	San Lucas Tolimán	10	San Lucas Tolimán	6	Junio	2023-11-06T00:00:00	2024-11-08T07:00:00	2	Temperatura media	18.2
129194	7	Sololá	713	San Lucas Tolimán	10	San Lucas Tolimán	6	Junio	2023-11-06T00:00:00	2024-11-08T07:00:00	4	Temperatura máxima	18.2
129195	7	Sololá	713	San Lucas Tolimán	10	San Lucas Tolimán	6	Junio	2023-11-06T00:00:00	2024-11-08T07:00:00	3	Temperatura mínima	16.4
129196	7	Sololá	713	San Lucas Tolimán	10	San Lucas Tolimán	6	Junio	2023-11-06T00:00:00	2024-11-08T07:00:00	5	Humedad	65
129197	7	Sololá	713	San Lucas Tolimán	10	San Lucas Tolimán	6	Junio	2023-11-06T00:00:00	2024-11-08T07:00:00	6	Velocidad del viento	0
129198	7	Sololá	713	San Lucas Tolimán	10	San Lucas Tolimán	6	Junio	2023-11-06T00:00:00	2024-11-08T07:00:00	7	Dirección del viento	0
129199	7	Sololá	713	San Lucas Tolimán	10	San Lucas Tolimán	6	Junio	2023-11-06T00:00:00	2024-11-08T07:00:00	1	Precipitación	0
129200	7	Sololá	713	San Lucas Tolimán	10	San Lucas Tolimán	6	Junio	2023-11-06T00:00:00	2024-11-08T07:00:00	8	Radiación solar	97
129201	7	Sololá	713	San Lucas Tolimán	10	San Lucas Tolimán	6	Junio	2023-11-06T00:00:00	2024-11-08T08:00:00	2	Temperatura media	20.6
129202	7	Sololá	713	San Lucas Tolimán	10	San Lucas Tolimán	6	Junio	2023-11-06T00:00:00	2024-11-08T08:00:00	4	Temperatura máxima	20.6
129203	7	Sololá	713	San Lucas Tolimán	10	San Lucas Tolimán	6	Junio	2023-11-06T00:00:00	2024-11-08T08:00:00	3	Temperatura mínima	18.2
129204	7	Sololá	713	San Lucas Tolimán	10	San Lucas Tolimán	6	Junio	2023-11-06T00:00:00	2024-11-08T08:00:00	5	Humedad	57
129205	7	Sololá	713	San Lucas Tolimán	10	San Lucas Tolimán	6	Junio	2023-11-06T00:00:00	2024-11-08T08:00:00	6	Velocidad del viento	3.2
129206	7	Sololá	713	San Lucas Tolimán	10	San Lucas Tolimán	6	Junio	2023-11-06T00:00:00	2024-11-08T08:00:00	7	Dirección del viento	3.22
129207	7	Sololá	713	San Lucas Tolimán	10	San Lucas Tolimán	6	Junio	2023-11-06T00:00:00	2024-11-08T08:00:00	1	Precipitación	0
129208	7	Sololá	713	San Lucas Tolimán	10	San Lucas Tolimán	6	Junio	2023-11-06T00:00:00	2024-11-08T08:00:00	8	Radiación solar	325
129209	7	Sololá	713	San Lucas Tolimán	10	San Lucas Tolimán	6	Junio	2023-11-06T00:00:00	2024-11-08T09:00:00	2	Temperatura media	22.1
129210	7	Sololá	713	San Lucas Tolimán	10	San Lucas Tolimán	6	Junio	2023-11-06T00:00:00	2024-11-08T09:00:00	4	Temperatura máxima	22.1
129211	7	Sololá	713	San Lucas Tolimán	10	San Lucas Tolimán	6	Junio	2023-11-06T00:00:00	2024-11-08T09:00:00	3	Temperatura mínima	20.6
129212	7	Sololá	713	San Lucas Tolimán	10	San Lucas Tolimán	6	Junio	2023-11-06T00:00:00	2024-11-08T09:00:00	5	Humedad	54
129213	7	Sololá	713	San Lucas Tolimán	10	San Lucas Tolimán	6	Junio	2023-11-06T00:00:00	2024-11-08T09:00:00	6	Velocidad del viento	3.2
129214	7	Sololá	713	San Lucas Tolimán	10	San Lucas Tolimán	6	Junio	2023-11-06T00:00:00	2024-11-08T09:00:00	7	Dirección del viento	3.22
129215	7	Sololá	713	San Lucas Tolimán	10	San Lucas Tolimán	6	Junio	2023-11-06T00:00:00	2024-11-08T09:00:00	1	Precipitación	0
129216	7	Sololá	713	San Lucas Tolimán	10	San Lucas Tolimán	6	Junio	2023-11-06T00:00:00	2024-11-08T09:00:00	8	Radiación solar	458
129217	7	Sololá	713	San Lucas Tolimán	10	San Lucas Tolimán	6	Junio	2023-11-06T00:00:00	2024-11-08T10:00:00	2	Temperatura media	23
129218	7	Sololá	713	San Lucas Tolimán	10	San Lucas Tolimán	6	Junio	2023-11-06T00:00:00	2024-11-08T10:00:00	4	Temperatura máxima	23
129219	7	Sololá	713	San Lucas Tolimán	10	San Lucas Tolimán	6	Junio	2023-11-06T00:00:00	2024-11-08T10:00:00	3	Temperatura mínima	21.8
129220	7	Sololá	713	San Lucas Tolimán	10	San Lucas Tolimán	6	Junio	2023-11-06T00:00:00	2024-11-08T10:00:00	5	Humedad	55
129221	7	Sololá	713	San Lucas Tolimán	10	San Lucas Tolimán	6	Junio	2023-11-06T00:00:00	2024-11-08T10:00:00	6	Velocidad del viento	6.4
129222	7	Sololá	713	San Lucas Tolimán	10	San Lucas Tolimán	6	Junio	2023-11-06T00:00:00	2024-11-08T10:00:00	7	Dirección del viento	6.44
129223	7	Sololá	713	San Lucas Tolimán	10	San Lucas Tolimán	6	Junio	2023-11-06T00:00:00	2024-11-08T10:00:00	1	Precipitación	0
129224	7	Sololá	713	San Lucas Tolimán	10	San Lucas Tolimán	6	Junio	2023-11-06T00:00:00	2024-11-08T10:00:00	8	Radiación solar	752
129225	7	Sololá	713	San Lucas Tolimán	10	San Lucas Tolimán	6	Junio	2023-11-06T00:00:00	2024-11-08T11:00:00	2	Temperatura media	23.2
129226	7	Sololá	713	San Lucas Tolimán	10	San Lucas Tolimán	6	Junio	2023-11-06T00:00:00	2024-11-08T11:00:00	4	Temperatura máxima	23.9
129227	7	Sololá	713	San Lucas Tolimán	10	San Lucas Tolimán	6	Junio	2023-11-06T00:00:00	2024-11-08T11:00:00	3	Temperatura mínima	22.6
129228	7	Sololá	713	San Lucas Tolimán	10	San Lucas Tolimán	6	Junio	2023-11-06T00:00:00	2024-11-08T11:00:00	5	Humedad	52
129229	7	Sololá	713	San Lucas Tolimán	10	San Lucas Tolimán	6	Junio	2023-11-06T00:00:00	2024-11-08T11:00:00	6	Velocidad del viento	11.3
129230	7	Sololá	713	San Lucas Tolimán	10	San Lucas Tolimán	6	Junio	2023-11-06T00:00:00	2024-11-08T11:00:00	7	Dirección del viento	11.27
129231	7	Sololá	713	San Lucas Tolimán	10	San Lucas Tolimán	6	Junio	2023-11-06T00:00:00	2024-11-08T11:00:00	1	Precipitación	0
129232	7	Sololá	713	San Lucas Tolimán	10	San Lucas Tolimán	6	Junio	2023-11-06T00:00:00	2024-11-08T11:00:00	8	Radiación solar	1031
129233	7	Sololá	713	San Lucas Tolimán	10	San Lucas Tolimán	6	Junio	2023-11-06T00:00:00	2024-11-08T12:00:00	2	Temperatura media	22.8
129234	7	Sololá	713	San Lucas Tolimán	10	San Lucas Tolimán	6	Junio	2023-11-06T00:00:00	2024-11-08T12:00:00	4	Temperatura máxima	23.3
129235	7	Sololá	713	San Lucas Tolimán	10	San Lucas Tolimán	6	Junio	2023-11-06T00:00:00	2024-11-08T12:00:00	3	Temperatura mínima	22.6
129236	7	Sololá	713	San Lucas Tolimán	10	San Lucas Tolimán	6	Junio	2023-11-06T00:00:00	2024-11-08T12:00:00	5	Humedad	57
129237	7	Sololá	713	San Lucas Tolimán	10	San Lucas Tolimán	6	Junio	2023-11-06T00:00:00	2024-11-08T12:00:00	6	Velocidad del viento	11.3
129238	7	Sololá	713	San Lucas Tolimán	10	San Lucas Tolimán	6	Junio	2023-11-06T00:00:00	2024-11-08T12:00:00	7	Dirección del viento	11.27
129239	7	Sololá	713	San Lucas Tolimán	10	San Lucas Tolimán	6	Junio	2023-11-06T00:00:00	2024-11-08T12:00:00	1	Precipitación	0
129240	7	Sololá	713	San Lucas Tolimán	10	San Lucas Tolimán	6	Junio	2023-11-06T00:00:00	2024-11-08T12:00:00	8	Radiación solar	1040
129241	7	Sololá	713	San Lucas Tolimán	10	San Lucas Tolimán	6	Junio	2023-11-06T00:00:00	2024-11-08T13:00:00	2	Temperatura media	22.9
129242	7	Sololá	713	San Lucas Tolimán	10	San Lucas Tolimán	6	Junio	2023-11-06T00:00:00	2024-11-08T13:00:00	4	Temperatura máxima	23.3
129243	7	Sololá	713	San Lucas Tolimán	10	San Lucas Tolimán	6	Junio	2023-11-06T00:00:00	2024-11-08T13:00:00	3	Temperatura mínima	22.3
129244	7	Sololá	713	San Lucas Tolimán	10	San Lucas Tolimán	6	Junio	2023-11-06T00:00:00	2024-11-08T13:00:00	5	Humedad	57
129245	7	Sololá	713	San Lucas Tolimán	10	San Lucas Tolimán	6	Junio	2023-11-06T00:00:00	2024-11-08T13:00:00	6	Velocidad del viento	11.3
129246	7	Sololá	713	San Lucas Tolimán	10	San Lucas Tolimán	6	Junio	2023-11-06T00:00:00	2024-11-08T13:00:00	7	Dirección del viento	11.27
129247	7	Sololá	713	San Lucas Tolimán	10	San Lucas Tolimán	6	Junio	2023-11-06T00:00:00	2024-11-08T13:00:00	1	Precipitación	0
129248	7	Sololá	713	San Lucas Tolimán	10	San Lucas Tolimán	6	Junio	2023-11-06T00:00:00	2024-11-08T13:00:00	8	Radiación solar	1066
129249	7	Sololá	713	San Lucas Tolimán	10	San Lucas Tolimán	6	Junio	2023-11-06T00:00:00	2024-11-08T14:00:00	2	Temperatura media	24.7
129250	7	Sololá	713	San Lucas Tolimán	10	San Lucas Tolimán	6	Junio	2023-11-06T00:00:00	2024-11-08T14:00:00	4	Temperatura máxima	24.7
129251	7	Sololá	713	San Lucas Tolimán	10	San Lucas Tolimán	6	Junio	2023-11-06T00:00:00	2024-11-08T14:00:00	3	Temperatura mínima	22.8
129252	7	Sololá	713	San Lucas Tolimán	10	San Lucas Tolimán	6	Junio	2023-11-06T00:00:00	2024-11-08T14:00:00	5	Humedad	53
129253	7	Sololá	713	San Lucas Tolimán	10	San Lucas Tolimán	6	Junio	2023-11-06T00:00:00	2024-11-08T14:00:00	6	Velocidad del viento	9.7
129254	7	Sololá	713	San Lucas Tolimán	10	San Lucas Tolimán	6	Junio	2023-11-06T00:00:00	2024-11-08T14:00:00	7	Dirección del viento	9.66
129255	7	Sololá	713	San Lucas Tolimán	10	San Lucas Tolimán	6	Junio	2023-11-06T00:00:00	2024-11-08T14:00:00	1	Precipitación	0
129256	7	Sololá	713	San Lucas Tolimán	10	San Lucas Tolimán	6	Junio	2023-11-06T00:00:00	2024-11-08T14:00:00	8	Radiación solar	987
129257	7	Sololá	713	San Lucas Tolimán	10	San Lucas Tolimán	6	Junio	2023-11-06T00:00:00	2024-11-08T15:00:00	2	Temperatura media	24.2
129258	7	Sololá	713	San Lucas Tolimán	10	San Lucas Tolimán	6	Junio	2023-11-06T00:00:00	2024-11-08T15:00:00	4	Temperatura máxima	24.8
129259	7	Sololá	713	San Lucas Tolimán	10	San Lucas Tolimán	6	Junio	2023-11-06T00:00:00	2024-11-08T15:00:00	3	Temperatura mínima	23.5
129260	7	Sololá	713	San Lucas Tolimán	10	San Lucas Tolimán	6	Junio	2023-11-06T00:00:00	2024-11-08T15:00:00	5	Humedad	55
129261	7	Sololá	713	San Lucas Tolimán	10	San Lucas Tolimán	6	Junio	2023-11-06T00:00:00	2024-11-08T15:00:00	6	Velocidad del viento	11.3
129262	7	Sololá	713	San Lucas Tolimán	10	San Lucas Tolimán	6	Junio	2023-11-06T00:00:00	2024-11-08T15:00:00	7	Dirección del viento	11.27
129263	7	Sololá	713	San Lucas Tolimán	10	San Lucas Tolimán	6	Junio	2023-11-06T00:00:00	2024-11-08T15:00:00	1	Precipitación	0
129264	7	Sololá	713	San Lucas Tolimán	10	San Lucas Tolimán	6	Junio	2023-11-06T00:00:00	2024-11-08T15:00:00	8	Radiación solar	960
129265	7	Sololá	713	San Lucas Tolimán	10	San Lucas Tolimán	6	Junio	2023-11-06T00:00:00	2024-11-08T16:00:00	2	Temperatura media	23.1
129266	7	Sololá	713	San Lucas Tolimán	10	San Lucas Tolimán	6	Junio	2023-11-06T00:00:00	2024-11-08T16:00:00	4	Temperatura máxima	24.2
129267	7	Sololá	713	San Lucas Tolimán	10	San Lucas Tolimán	6	Junio	2023-11-06T00:00:00	2024-11-08T16:00:00	3	Temperatura mínima	23.1
129268	7	Sololá	713	San Lucas Tolimán	10	San Lucas Tolimán	6	Junio	2023-11-06T00:00:00	2024-11-08T16:00:00	5	Humedad	58
129269	7	Sololá	713	San Lucas Tolimán	10	San Lucas Tolimán	6	Junio	2023-11-06T00:00:00	2024-11-08T16:00:00	6	Velocidad del viento	9.7
129270	7	Sololá	713	San Lucas Tolimán	10	San Lucas Tolimán	6	Junio	2023-11-06T00:00:00	2024-11-08T16:00:00	7	Dirección del viento	9.66
129271	7	Sololá	713	San Lucas Tolimán	10	San Lucas Tolimán	6	Junio	2023-11-06T00:00:00	2024-11-08T16:00:00	1	Precipitación	0
129272	7	Sololá	713	San Lucas Tolimán	10	San Lucas Tolimán	6	Junio	2023-11-06T00:00:00	2024-11-08T16:00:00	8	Radiación solar	680
129273	7	Sololá	713	San Lucas Tolimán	10	San Lucas Tolimán	6	Junio	2023-11-06T00:00:00	2024-11-08T17:00:00	2	Temperatura media	22.4
129274	7	Sololá	713	San Lucas Tolimán	10	San Lucas Tolimán	6	Junio	2023-11-06T00:00:00	2024-11-08T17:00:00	4	Temperatura máxima	23.2
129275	7	Sololá	713	San Lucas Tolimán	10	San Lucas Tolimán	6	Junio	2023-11-06T00:00:00	2024-11-08T17:00:00	3	Temperatura mínima	22.3
129276	7	Sololá	713	San Lucas Tolimán	10	San Lucas Tolimán	6	Junio	2023-11-06T00:00:00	2024-11-08T17:00:00	5	Humedad	60
129277	7	Sololá	713	San Lucas Tolimán	10	San Lucas Tolimán	6	Junio	2023-11-06T00:00:00	2024-11-08T17:00:00	6	Velocidad del viento	8
129278	7	Sololá	713	San Lucas Tolimán	10	San Lucas Tolimán	6	Junio	2023-11-06T00:00:00	2024-11-08T17:00:00	7	Dirección del viento	8.05
129279	7	Sololá	713	San Lucas Tolimán	10	San Lucas Tolimán	6	Junio	2023-11-06T00:00:00	2024-11-08T17:00:00	1	Precipitación	0
129280	7	Sololá	713	San Lucas Tolimán	10	San Lucas Tolimán	6	Junio	2023-11-06T00:00:00	2024-11-08T17:00:00	8	Radiación solar	283
129281	7	Sololá	713	San Lucas Tolimán	10	San Lucas Tolimán	6	Junio	2023-11-06T00:00:00	2024-11-08T18:00:00	2	Temperatura media	21.7
129282	7	Sololá	713	San Lucas Tolimán	10	San Lucas Tolimán	6	Junio	2023-11-06T00:00:00	2024-11-08T18:00:00	4	Temperatura máxima	22.4
129283	7	Sololá	713	San Lucas Tolimán	10	San Lucas Tolimán	6	Junio	2023-11-06T00:00:00	2024-11-08T18:00:00	3	Temperatura mínima	21.7
129284	7	Sololá	713	San Lucas Tolimán	10	San Lucas Tolimán	6	Junio	2023-11-06T00:00:00	2024-11-08T18:00:00	5	Humedad	63
129285	7	Sololá	713	San Lucas Tolimán	10	San Lucas Tolimán	6	Junio	2023-11-06T00:00:00	2024-11-08T18:00:00	6	Velocidad del viento	8
129286	7	Sololá	713	San Lucas Tolimán	10	San Lucas Tolimán	6	Junio	2023-11-06T00:00:00	2024-11-08T18:00:00	7	Dirección del viento	8.05
129287	7	Sololá	713	San Lucas Tolimán	10	San Lucas Tolimán	6	Junio	2023-11-06T00:00:00	2024-11-08T18:00:00	1	Precipitación	0
129288	7	Sololá	713	San Lucas Tolimán	10	San Lucas Tolimán	6	Junio	2023-11-06T00:00:00	2024-11-08T18:00:00	8	Radiación solar	110
129289	7	Sololá	713	San Lucas Tolimán	10	San Lucas Tolimán	6	Junio	2023-11-06T00:00:00	2024-11-08T19:00:00	2	Temperatura media	21.2
129290	7	Sololá	713	San Lucas Tolimán	10	San Lucas Tolimán	6	Junio	2023-11-06T00:00:00	2024-11-08T19:00:00	4	Temperatura máxima	21.7
129291	7	Sololá	713	San Lucas Tolimán	10	San Lucas Tolimán	6	Junio	2023-11-06T00:00:00	2024-11-08T19:00:00	3	Temperatura mínima	21.2
129292	7	Sololá	713	San Lucas Tolimán	10	San Lucas Tolimán	6	Junio	2023-11-06T00:00:00	2024-11-08T19:00:00	5	Humedad	64
129293	7	Sololá	713	San Lucas Tolimán	10	San Lucas Tolimán	6	Junio	2023-11-06T00:00:00	2024-11-08T19:00:00	6	Velocidad del viento	4.8
129294	7	Sololá	713	San Lucas Tolimán	10	San Lucas Tolimán	6	Junio	2023-11-06T00:00:00	2024-11-08T19:00:00	7	Dirección del viento	4.83
129295	7	Sololá	713	San Lucas Tolimán	10	San Lucas Tolimán	6	Junio	2023-11-06T00:00:00	2024-11-08T19:00:00	1	Precipitación	0
129296	7	Sololá	713	San Lucas Tolimán	10	San Lucas Tolimán	6	Junio	2023-11-06T00:00:00	2024-11-08T19:00:00	8	Radiación solar	0
129297	7	Sololá	713	San Lucas Tolimán	10	San Lucas Tolimán	6	Junio	2023-11-06T00:00:00	2024-11-08T20:00:00	2	Temperatura media	20.5
129298	7	Sololá	713	San Lucas Tolimán	10	San Lucas Tolimán	6	Junio	2023-11-06T00:00:00	2024-11-08T20:00:00	4	Temperatura máxima	21.2
129299	7	Sololá	713	San Lucas Tolimán	10	San Lucas Tolimán	6	Junio	2023-11-06T00:00:00	2024-11-08T20:00:00	3	Temperatura mínima	20.5
129300	7	Sololá	713	San Lucas Tolimán	10	San Lucas Tolimán	6	Junio	2023-11-06T00:00:00	2024-11-08T20:00:00	5	Humedad	65
129301	7	Sololá	713	San Lucas Tolimán	10	San Lucas Tolimán	6	Junio	2023-11-06T00:00:00	2024-11-08T20:00:00	6	Velocidad del viento	4.8
129302	7	Sololá	713	San Lucas Tolimán	10	San Lucas Tolimán	6	Junio	2023-11-06T00:00:00	2024-11-08T20:00:00	7	Dirección del viento	4.83
129303	7	Sololá	713	San Lucas Tolimán	10	San Lucas Tolimán	6	Junio	2023-11-06T00:00:00	2024-11-08T20:00:00	1	Precipitación	0
129304	7	Sololá	713	San Lucas Tolimán	10	San Lucas Tolimán	6	Junio	2023-11-06T00:00:00	2024-11-08T20:00:00	8	Radiación solar	0
129305	7	Sololá	713	San Lucas Tolimán	10	San Lucas Tolimán	6	Junio	2023-11-06T00:00:00	2024-11-08T21:00:00	2	Temperatura media	19.9
129306	7	Sololá	713	San Lucas Tolimán	10	San Lucas Tolimán	6	Junio	2023-11-06T00:00:00	2024-11-08T21:00:00	4	Temperatura máxima	20.6
129307	7	Sololá	713	San Lucas Tolimán	10	San Lucas Tolimán	6	Junio	2023-11-06T00:00:00	2024-11-08T21:00:00	3	Temperatura mínima	19.9
129308	7	Sololá	713	San Lucas Tolimán	10	San Lucas Tolimán	6	Junio	2023-11-06T00:00:00	2024-11-08T21:00:00	5	Humedad	65
129309	7	Sololá	713	San Lucas Tolimán	10	San Lucas Tolimán	6	Junio	2023-11-06T00:00:00	2024-11-08T21:00:00	6	Velocidad del viento	6.4
129310	7	Sololá	713	San Lucas Tolimán	10	San Lucas Tolimán	6	Junio	2023-11-06T00:00:00	2024-11-08T21:00:00	7	Dirección del viento	6.44
129311	7	Sololá	713	San Lucas Tolimán	10	San Lucas Tolimán	6	Junio	2023-11-06T00:00:00	2024-11-08T21:00:00	1	Precipitación	0
129312	7	Sololá	713	San Lucas Tolimán	10	San Lucas Tolimán	6	Junio	2023-11-06T00:00:00	2024-11-08T21:00:00	8	Radiación solar	0
129313	7	Sololá	713	San Lucas Tolimán	10	San Lucas Tolimán	6	Junio	2023-11-06T00:00:00	2024-11-08T22:00:00	2	Temperatura media	19.5
129314	7	Sololá	713	San Lucas Tolimán	10	San Lucas Tolimán	6	Junio	2023-11-06T00:00:00	2024-11-08T22:00:00	4	Temperatura máxima	20
129315	7	Sololá	713	San Lucas Tolimán	10	San Lucas Tolimán	6	Junio	2023-11-06T00:00:00	2024-11-08T22:00:00	3	Temperatura mínima	19.4
129316	7	Sololá	713	San Lucas Tolimán	10	San Lucas Tolimán	6	Junio	2023-11-06T00:00:00	2024-11-08T22:00:00	5	Humedad	64
129317	7	Sololá	713	San Lucas Tolimán	10	San Lucas Tolimán	6	Junio	2023-11-06T00:00:00	2024-11-08T22:00:00	6	Velocidad del viento	3.2
129318	7	Sololá	713	San Lucas Tolimán	10	San Lucas Tolimán	6	Junio	2023-11-06T00:00:00	2024-11-08T22:00:00	7	Dirección del viento	3.22
129319	7	Sololá	713	San Lucas Tolimán	10	San Lucas Tolimán	6	Junio	2023-11-06T00:00:00	2024-11-08T22:00:00	1	Precipitación	0
129320	7	Sololá	713	San Lucas Tolimán	10	San Lucas Tolimán	6	Junio	2023-11-06T00:00:00	2024-11-08T22:00:00	8	Radiación solar	0
129321	7	Sololá	713	San Lucas Tolimán	10	San Lucas Tolimán	6	Junio	2023-11-06T00:00:00	2024-11-08T23:00:00	2	Temperatura media	19.4
129322	7	Sololá	713	San Lucas Tolimán	10	San Lucas Tolimán	6	Junio	2023-11-06T00:00:00	2024-11-08T23:00:00	4	Temperatura máxima	19.5
129323	7	Sololá	713	San Lucas Tolimán	10	San Lucas Tolimán	6	Junio	2023-11-06T00:00:00	2024-11-08T23:00:00	3	Temperatura mínima	18.8
129324	7	Sololá	713	San Lucas Tolimán	10	San Lucas Tolimán	6	Junio	2023-11-06T00:00:00	2024-11-08T23:00:00	5	Humedad	66
129325	7	Sololá	713	San Lucas Tolimán	10	San Lucas Tolimán	6	Junio	2023-11-06T00:00:00	2024-11-08T23:00:00	6	Velocidad del viento	3.2
129326	7	Sololá	713	San Lucas Tolimán	10	San Lucas Tolimán	6	Junio	2023-11-06T00:00:00	2024-11-08T23:00:00	7	Dirección del viento	3.22
129327	7	Sololá	713	San Lucas Tolimán	10	San Lucas Tolimán	6	Junio	2023-11-06T00:00:00	2024-11-08T23:00:00	1	Precipitación	0
129328	7	Sololá	713	San Lucas Tolimán	10	San Lucas Tolimán	6	Junio	2023-11-06T00:00:00	2024-11-08T23:00:00	8	Radiación solar	0
129329	7	Sololá	713	San Lucas Tolimán	10	San Lucas Tolimán	6	Junio	2023-12-06T00:00:00	2024-11-08T00:00:00	2	Temperatura media	18.6
129330	7	Sololá	713	San Lucas Tolimán	10	San Lucas Tolimán	6	Junio	2023-12-06T00:00:00	2024-11-08T00:00:00	4	Temperatura máxima	19.5
129331	7	Sololá	713	San Lucas Tolimán	10	San Lucas Tolimán	6	Junio	2023-12-06T00:00:00	2024-11-08T00:00:00	3	Temperatura mínima	18.6
129332	7	Sololá	713	San Lucas Tolimán	10	San Lucas Tolimán	6	Junio	2023-12-06T00:00:00	2024-11-08T00:00:00	5	Humedad	66
129333	7	Sololá	713	San Lucas Tolimán	10	San Lucas Tolimán	6	Junio	2023-12-06T00:00:00	2024-11-08T00:00:00	6	Velocidad del viento	1.6
129334	7	Sololá	713	San Lucas Tolimán	10	San Lucas Tolimán	6	Junio	2023-12-06T00:00:00	2024-11-08T00:00:00	7	Dirección del viento	1.61
129335	7	Sololá	713	San Lucas Tolimán	10	San Lucas Tolimán	6	Junio	2023-12-06T00:00:00	2024-11-08T00:00:00	1	Precipitación	0
129336	7	Sololá	713	San Lucas Tolimán	10	San Lucas Tolimán	6	Junio	2023-12-06T00:00:00	2024-11-08T00:00:00	8	Radiación solar	0
129337	7	Sololá	713	San Lucas Tolimán	10	San Lucas Tolimán	6	Junio	2023-12-06T00:00:00	2024-11-08T01:00:00	2	Temperatura media	18.4
129338	7	Sololá	713	San Lucas Tolimán	10	San Lucas Tolimán	6	Junio	2023-12-06T00:00:00	2024-11-08T01:00:00	4	Temperatura máxima	19.1
129339	7	Sololá	713	San Lucas Tolimán	10	San Lucas Tolimán	6	Junio	2023-12-06T00:00:00	2024-11-08T01:00:00	3	Temperatura mínima	18.4
129340	7	Sololá	713	San Lucas Tolimán	10	San Lucas Tolimán	6	Junio	2023-12-06T00:00:00	2024-11-08T01:00:00	5	Humedad	65
129341	7	Sololá	713	San Lucas Tolimán	10	San Lucas Tolimán	6	Junio	2023-12-06T00:00:00	2024-11-08T01:00:00	6	Velocidad del viento	1.6
129342	7	Sololá	713	San Lucas Tolimán	10	San Lucas Tolimán	6	Junio	2023-12-06T00:00:00	2024-11-08T01:00:00	7	Dirección del viento	1.61
129343	7	Sololá	713	San Lucas Tolimán	10	San Lucas Tolimán	6	Junio	2023-12-06T00:00:00	2024-11-08T01:00:00	1	Precipitación	0
129344	7	Sololá	713	San Lucas Tolimán	10	San Lucas Tolimán	6	Junio	2023-12-06T00:00:00	2024-11-08T01:00:00	8	Radiación solar	0
129345	7	Sololá	713	San Lucas Tolimán	10	San Lucas Tolimán	6	Junio	2023-12-06T00:00:00	2024-11-08T02:00:00	2	Temperatura media	17.9
129346	7	Sololá	713	San Lucas Tolimán	10	San Lucas Tolimán	6	Junio	2023-12-06T00:00:00	2024-11-08T02:00:00	4	Temperatura máxima	18.4
129347	7	Sololá	713	San Lucas Tolimán	10	San Lucas Tolimán	6	Junio	2023-12-06T00:00:00	2024-11-08T02:00:00	3	Temperatura mínima	17.8
129348	7	Sololá	713	San Lucas Tolimán	10	San Lucas Tolimán	6	Junio	2023-12-06T00:00:00	2024-11-08T02:00:00	5	Humedad	66
129349	7	Sololá	713	San Lucas Tolimán	10	San Lucas Tolimán	6	Junio	2023-12-06T00:00:00	2024-11-08T02:00:00	6	Velocidad del viento	1.6
129350	7	Sololá	713	San Lucas Tolimán	10	San Lucas Tolimán	6	Junio	2023-12-06T00:00:00	2024-11-08T02:00:00	7	Dirección del viento	1.61
129351	7	Sololá	713	San Lucas Tolimán	10	San Lucas Tolimán	6	Junio	2023-12-06T00:00:00	2024-11-08T02:00:00	1	Precipitación	0
129352	7	Sololá	713	San Lucas Tolimán	10	San Lucas Tolimán	6	Junio	2023-12-06T00:00:00	2024-11-08T02:00:00	8	Radiación solar	0
129353	7	Sololá	713	San Lucas Tolimán	10	San Lucas Tolimán	6	Junio	2023-12-06T00:00:00	2024-11-08T03:00:00	2	Temperatura media	17.4
129354	7	Sololá	713	San Lucas Tolimán	10	San Lucas Tolimán	6	Junio	2023-12-06T00:00:00	2024-11-08T03:00:00	4	Temperatura máxima	18.1
129355	7	Sololá	713	San Lucas Tolimán	10	San Lucas Tolimán	6	Junio	2023-12-06T00:00:00	2024-11-08T03:00:00	3	Temperatura mínima	17.3
129356	7	Sololá	713	San Lucas Tolimán	10	San Lucas Tolimán	6	Junio	2023-12-06T00:00:00	2024-11-08T03:00:00	5	Humedad	66
129357	7	Sololá	713	San Lucas Tolimán	10	San Lucas Tolimán	6	Junio	2023-12-06T00:00:00	2024-11-08T03:00:00	6	Velocidad del viento	3.2
129358	7	Sololá	713	San Lucas Tolimán	10	San Lucas Tolimán	6	Junio	2023-12-06T00:00:00	2024-11-08T03:00:00	7	Dirección del viento	3.22
129359	7	Sololá	713	San Lucas Tolimán	10	San Lucas Tolimán	6	Junio	2023-12-06T00:00:00	2024-11-08T03:00:00	1	Precipitación	0
129360	7	Sololá	713	San Lucas Tolimán	10	San Lucas Tolimán	6	Junio	2023-12-06T00:00:00	2024-11-08T03:00:00	8	Radiación solar	0
129361	7	Sololá	713	San Lucas Tolimán	10	San Lucas Tolimán	6	Junio	2023-12-06T00:00:00	2024-11-08T04:00:00	2	Temperatura media	16.7
129362	7	Sololá	713	San Lucas Tolimán	10	San Lucas Tolimán	6	Junio	2023-12-06T00:00:00	2024-11-08T04:00:00	4	Temperatura máxima	17.4
129363	7	Sololá	713	San Lucas Tolimán	10	San Lucas Tolimán	6	Junio	2023-12-06T00:00:00	2024-11-08T04:00:00	3	Temperatura mínima	16.7
129364	7	Sololá	713	San Lucas Tolimán	10	San Lucas Tolimán	6	Junio	2023-12-06T00:00:00	2024-11-08T04:00:00	5	Humedad	66
129365	7	Sololá	713	San Lucas Tolimán	10	San Lucas Tolimán	6	Junio	2023-12-06T00:00:00	2024-11-08T04:00:00	6	Velocidad del viento	1.6
129366	7	Sololá	713	San Lucas Tolimán	10	San Lucas Tolimán	6	Junio	2023-12-06T00:00:00	2024-11-08T04:00:00	7	Dirección del viento	1.61
129367	7	Sololá	713	San Lucas Tolimán	10	San Lucas Tolimán	6	Junio	2023-12-06T00:00:00	2024-11-08T04:00:00	1	Precipitación	0
129368	7	Sololá	713	San Lucas Tolimán	10	San Lucas Tolimán	6	Junio	2023-12-06T00:00:00	2024-11-08T04:00:00	8	Radiación solar	0
129369	7	Sololá	713	San Lucas Tolimán	10	San Lucas Tolimán	6	Junio	2023-12-06T00:00:00	2024-11-08T05:00:00	2	Temperatura media	16.8
129370	7	Sololá	713	San Lucas Tolimán	10	San Lucas Tolimán	6	Junio	2023-12-06T00:00:00	2024-11-08T05:00:00	4	Temperatura máxima	17.3
129371	7	Sololá	713	San Lucas Tolimán	10	San Lucas Tolimán	6	Junio	2023-12-06T00:00:00	2024-11-08T05:00:00	3	Temperatura mínima	16.7
129372	7	Sololá	713	San Lucas Tolimán	10	San Lucas Tolimán	6	Junio	2023-12-06T00:00:00	2024-11-08T05:00:00	5	Humedad	66
129373	7	Sololá	713	San Lucas Tolimán	10	San Lucas Tolimán	6	Junio	2023-12-06T00:00:00	2024-11-08T05:00:00	6	Velocidad del viento	1.6
129374	7	Sololá	713	San Lucas Tolimán	10	San Lucas Tolimán	6	Junio	2023-12-06T00:00:00	2024-11-08T05:00:00	7	Dirección del viento	1.61
129375	7	Sololá	713	San Lucas Tolimán	10	San Lucas Tolimán	6	Junio	2023-12-06T00:00:00	2024-11-08T05:00:00	1	Precipitación	0
129376	7	Sololá	713	San Lucas Tolimán	10	San Lucas Tolimán	6	Junio	2023-12-06T00:00:00	2024-11-08T05:00:00	8	Radiación solar	0
129377	7	Sololá	713	San Lucas Tolimán	10	San Lucas Tolimán	6	Junio	2023-12-06T00:00:00	2024-11-08T06:00:00	2	Temperatura media	17.3
129378	7	Sololá	713	San Lucas Tolimán	10	San Lucas Tolimán	6	Junio	2023-12-06T00:00:00	2024-11-08T06:00:00	4	Temperatura máxima	17.3
129379	7	Sololá	713	San Lucas Tolimán	10	San Lucas Tolimán	6	Junio	2023-12-06T00:00:00	2024-11-08T06:00:00	3	Temperatura mínima	16.7
129380	7	Sololá	713	San Lucas Tolimán	10	San Lucas Tolimán	6	Junio	2023-12-06T00:00:00	2024-11-08T06:00:00	5	Humedad	66
129381	7	Sololá	713	San Lucas Tolimán	10	San Lucas Tolimán	6	Junio	2023-12-06T00:00:00	2024-11-08T06:00:00	6	Velocidad del viento	0
129382	7	Sololá	713	San Lucas Tolimán	10	San Lucas Tolimán	6	Junio	2023-12-06T00:00:00	2024-11-08T06:00:00	7	Dirección del viento	0
129383	7	Sololá	713	San Lucas Tolimán	10	San Lucas Tolimán	6	Junio	2023-12-06T00:00:00	2024-11-08T06:00:00	1	Precipitación	0
129384	7	Sololá	713	San Lucas Tolimán	10	San Lucas Tolimán	6	Junio	2023-12-06T00:00:00	2024-11-08T06:00:00	8	Radiación solar	7
129385	7	Sololá	713	San Lucas Tolimán	10	San Lucas Tolimán	6	Junio	2023-12-06T00:00:00	2024-11-08T07:00:00	2	Temperatura media	19.4
129386	7	Sololá	713	San Lucas Tolimán	10	San Lucas Tolimán	6	Junio	2023-12-06T00:00:00	2024-11-08T07:00:00	4	Temperatura máxima	19.4
129387	7	Sololá	713	San Lucas Tolimán	10	San Lucas Tolimán	6	Junio	2023-12-06T00:00:00	2024-11-08T07:00:00	3	Temperatura mínima	17.3
129388	7	Sololá	713	San Lucas Tolimán	10	San Lucas Tolimán	6	Junio	2023-12-06T00:00:00	2024-11-08T07:00:00	5	Humedad	64
129389	7	Sololá	713	San Lucas Tolimán	10	San Lucas Tolimán	6	Junio	2023-12-06T00:00:00	2024-11-08T07:00:00	6	Velocidad del viento	1.6
129390	7	Sololá	713	San Lucas Tolimán	10	San Lucas Tolimán	6	Junio	2023-12-06T00:00:00	2024-11-08T07:00:00	7	Dirección del viento	1.61
129391	7	Sololá	713	San Lucas Tolimán	10	San Lucas Tolimán	6	Junio	2023-12-06T00:00:00	2024-11-08T07:00:00	1	Precipitación	0
129392	7	Sololá	713	San Lucas Tolimán	10	San Lucas Tolimán	6	Junio	2023-12-06T00:00:00	2024-11-08T07:00:00	8	Radiación solar	101
129393	7	Sololá	713	San Lucas Tolimán	10	San Lucas Tolimán	6	Junio	2023-12-06T00:00:00	2024-11-08T08:00:00	2	Temperatura media	21.8
129394	7	Sololá	713	San Lucas Tolimán	10	San Lucas Tolimán	6	Junio	2023-12-06T00:00:00	2024-11-08T08:00:00	4	Temperatura máxima	21.8
129395	7	Sololá	713	San Lucas Tolimán	10	San Lucas Tolimán	6	Junio	2023-12-06T00:00:00	2024-11-08T08:00:00	3	Temperatura mínima	19.4
129396	7	Sololá	713	San Lucas Tolimán	10	San Lucas Tolimán	6	Junio	2023-12-06T00:00:00	2024-11-08T08:00:00	5	Humedad	56
129397	7	Sololá	713	San Lucas Tolimán	10	San Lucas Tolimán	6	Junio	2023-12-06T00:00:00	2024-11-08T08:00:00	6	Velocidad del viento	3.2
129398	7	Sololá	713	San Lucas Tolimán	10	San Lucas Tolimán	6	Junio	2023-12-06T00:00:00	2024-11-08T08:00:00	7	Dirección del viento	3.22
129399	7	Sololá	713	San Lucas Tolimán	10	San Lucas Tolimán	6	Junio	2023-12-06T00:00:00	2024-11-08T08:00:00	1	Precipitación	0
129400	7	Sololá	713	San Lucas Tolimán	10	San Lucas Tolimán	6	Junio	2023-12-06T00:00:00	2024-11-08T08:00:00	8	Radiación solar	366
129401	7	Sololá	713	San Lucas Tolimán	10	San Lucas Tolimán	6	Junio	2023-12-06T00:00:00	2024-11-08T09:00:00	2	Temperatura media	23.9
129402	7	Sololá	713	San Lucas Tolimán	10	San Lucas Tolimán	6	Junio	2023-12-06T00:00:00	2024-11-08T09:00:00	4	Temperatura máxima	24.4
129403	7	Sololá	713	San Lucas Tolimán	10	San Lucas Tolimán	6	Junio	2023-12-06T00:00:00	2024-11-08T09:00:00	3	Temperatura mínima	21.9
129404	7	Sololá	713	San Lucas Tolimán	10	San Lucas Tolimán	6	Junio	2023-12-06T00:00:00	2024-11-08T09:00:00	5	Humedad	50
129405	7	Sololá	713	San Lucas Tolimán	10	San Lucas Tolimán	6	Junio	2023-12-06T00:00:00	2024-11-08T09:00:00	6	Velocidad del viento	3.2
129406	7	Sololá	713	San Lucas Tolimán	10	San Lucas Tolimán	6	Junio	2023-12-06T00:00:00	2024-11-08T09:00:00	7	Dirección del viento	3.22
129407	7	Sololá	713	San Lucas Tolimán	10	San Lucas Tolimán	6	Junio	2023-12-06T00:00:00	2024-11-08T09:00:00	1	Precipitación	0
129408	7	Sololá	713	San Lucas Tolimán	10	San Lucas Tolimán	6	Junio	2023-12-06T00:00:00	2024-11-08T09:00:00	8	Radiación solar	604
129409	7	Sololá	713	San Lucas Tolimán	10	San Lucas Tolimán	6	Junio	2023-12-06T00:00:00	2024-11-08T10:00:00	2	Temperatura media	24.2
129410	7	Sololá	713	San Lucas Tolimán	10	San Lucas Tolimán	6	Junio	2023-12-06T00:00:00	2024-11-08T10:00:00	4	Temperatura máxima	24.2
129411	7	Sololá	713	San Lucas Tolimán	10	San Lucas Tolimán	6	Junio	2023-12-06T00:00:00	2024-11-08T10:00:00	3	Temperatura mínima	23.7
129412	7	Sololá	713	San Lucas Tolimán	10	San Lucas Tolimán	6	Junio	2023-12-06T00:00:00	2024-11-08T10:00:00	5	Humedad	51
129413	7	Sololá	713	San Lucas Tolimán	10	San Lucas Tolimán	6	Junio	2023-12-06T00:00:00	2024-11-08T10:00:00	6	Velocidad del viento	8
129414	7	Sololá	713	San Lucas Tolimán	10	San Lucas Tolimán	6	Junio	2023-12-06T00:00:00	2024-11-08T10:00:00	7	Dirección del viento	8.05
129415	7	Sololá	713	San Lucas Tolimán	10	San Lucas Tolimán	6	Junio	2023-12-06T00:00:00	2024-11-08T10:00:00	1	Precipitación	0
129416	7	Sololá	713	San Lucas Tolimán	10	San Lucas Tolimán	6	Junio	2023-12-06T00:00:00	2024-11-08T10:00:00	8	Radiación solar	778
129417	7	Sololá	713	San Lucas Tolimán	10	San Lucas Tolimán	6	Junio	2023-12-06T00:00:00	2024-11-08T11:00:00	2	Temperatura media	25.2
129418	7	Sololá	713	San Lucas Tolimán	10	San Lucas Tolimán	6	Junio	2023-12-06T00:00:00	2024-11-08T11:00:00	4	Temperatura máxima	25.3
129419	7	Sololá	713	San Lucas Tolimán	10	San Lucas Tolimán	6	Junio	2023-12-06T00:00:00	2024-11-08T11:00:00	3	Temperatura mínima	24.2
129420	7	Sololá	713	San Lucas Tolimán	10	San Lucas Tolimán	6	Junio	2023-12-06T00:00:00	2024-11-08T11:00:00	5	Humedad	50
129421	7	Sololá	713	San Lucas Tolimán	10	San Lucas Tolimán	6	Junio	2023-12-06T00:00:00	2024-11-08T11:00:00	6	Velocidad del viento	9.7
129422	7	Sololá	713	San Lucas Tolimán	10	San Lucas Tolimán	6	Junio	2023-12-06T00:00:00	2024-11-08T11:00:00	7	Dirección del viento	9.66
129423	7	Sololá	713	San Lucas Tolimán	10	San Lucas Tolimán	6	Junio	2023-12-06T00:00:00	2024-11-08T11:00:00	1	Precipitación	0
129424	7	Sololá	713	San Lucas Tolimán	10	San Lucas Tolimán	6	Junio	2023-12-06T00:00:00	2024-11-08T11:00:00	8	Radiación solar	953
129425	7	Sololá	713	San Lucas Tolimán	10	San Lucas Tolimán	6	Junio	2023-12-06T00:00:00	2024-11-08T12:00:00	2	Temperatura media	25
129426	7	Sololá	713	San Lucas Tolimán	10	San Lucas Tolimán	6	Junio	2023-12-06T00:00:00	2024-11-08T12:00:00	4	Temperatura máxima	25.2
129427	7	Sololá	713	San Lucas Tolimán	10	San Lucas Tolimán	6	Junio	2023-12-06T00:00:00	2024-11-08T12:00:00	3	Temperatura mínima	24.4
129428	7	Sololá	713	San Lucas Tolimán	10	San Lucas Tolimán	6	Junio	2023-12-06T00:00:00	2024-11-08T12:00:00	5	Humedad	51
129429	7	Sololá	713	San Lucas Tolimán	10	San Lucas Tolimán	6	Junio	2023-12-06T00:00:00	2024-11-08T12:00:00	6	Velocidad del viento	11.3
129430	7	Sololá	713	San Lucas Tolimán	10	San Lucas Tolimán	6	Junio	2023-12-06T00:00:00	2024-11-08T12:00:00	7	Dirección del viento	11.27
129431	7	Sololá	713	San Lucas Tolimán	10	San Lucas Tolimán	6	Junio	2023-12-06T00:00:00	2024-11-08T12:00:00	1	Precipitación	0
129432	7	Sololá	713	San Lucas Tolimán	10	San Lucas Tolimán	6	Junio	2023-12-06T00:00:00	2024-11-08T12:00:00	8	Radiación solar	1049
129433	7	Sololá	713	San Lucas Tolimán	10	San Lucas Tolimán	6	Junio	2023-12-06T00:00:00	2024-11-08T13:00:00	2	Temperatura media	24.8
129434	7	Sololá	713	San Lucas Tolimán	10	San Lucas Tolimán	6	Junio	2023-12-06T00:00:00	2024-11-08T13:00:00	4	Temperatura máxima	25.1
129435	7	Sololá	713	San Lucas Tolimán	10	San Lucas Tolimán	6	Junio	2023-12-06T00:00:00	2024-11-08T13:00:00	3	Temperatura mínima	24.3
129436	7	Sololá	713	San Lucas Tolimán	10	San Lucas Tolimán	6	Junio	2023-12-06T00:00:00	2024-11-08T13:00:00	5	Humedad	55
129437	7	Sololá	713	San Lucas Tolimán	10	San Lucas Tolimán	6	Junio	2023-12-06T00:00:00	2024-11-08T13:00:00	6	Velocidad del viento	12.9
129438	7	Sololá	713	San Lucas Tolimán	10	San Lucas Tolimán	6	Junio	2023-12-06T00:00:00	2024-11-08T13:00:00	7	Dirección del viento	12.87
129439	7	Sololá	713	San Lucas Tolimán	10	San Lucas Tolimán	6	Junio	2023-12-06T00:00:00	2024-11-08T13:00:00	1	Precipitación	0
129440	7	Sololá	713	San Lucas Tolimán	10	San Lucas Tolimán	6	Junio	2023-12-06T00:00:00	2024-11-08T13:00:00	8	Radiación solar	1078
129441	7	Sololá	713	San Lucas Tolimán	10	San Lucas Tolimán	6	Junio	2023-12-06T00:00:00	2024-11-08T14:00:00	2	Temperatura media	23.4
129442	7	Sololá	713	San Lucas Tolimán	10	San Lucas Tolimán	6	Junio	2023-12-06T00:00:00	2024-11-08T14:00:00	4	Temperatura máxima	24.8
129443	7	Sololá	713	San Lucas Tolimán	10	San Lucas Tolimán	6	Junio	2023-12-06T00:00:00	2024-11-08T14:00:00	3	Temperatura mínima	23.4
129444	7	Sololá	713	San Lucas Tolimán	10	San Lucas Tolimán	6	Junio	2023-12-06T00:00:00	2024-11-08T14:00:00	5	Humedad	60
129445	7	Sololá	713	San Lucas Tolimán	10	San Lucas Tolimán	6	Junio	2023-12-06T00:00:00	2024-11-08T14:00:00	6	Velocidad del viento	12.9
129446	7	Sololá	713	San Lucas Tolimán	10	San Lucas Tolimán	6	Junio	2023-12-06T00:00:00	2024-11-08T14:00:00	7	Dirección del viento	12.87
129447	7	Sololá	713	San Lucas Tolimán	10	San Lucas Tolimán	6	Junio	2023-12-06T00:00:00	2024-11-08T14:00:00	1	Precipitación	0
129448	7	Sololá	713	San Lucas Tolimán	10	San Lucas Tolimán	6	Junio	2023-12-06T00:00:00	2024-11-08T14:00:00	8	Radiación solar	859
129449	7	Sololá	713	San Lucas Tolimán	10	San Lucas Tolimán	6	Junio	2023-12-06T00:00:00	2024-11-08T15:00:00	2	Temperatura media	23.6
129450	7	Sololá	713	San Lucas Tolimán	10	San Lucas Tolimán	6	Junio	2023-12-06T00:00:00	2024-11-08T15:00:00	4	Temperatura máxima	24.6
129451	7	Sololá	713	San Lucas Tolimán	10	San Lucas Tolimán	6	Junio	2023-12-06T00:00:00	2024-11-08T15:00:00	3	Temperatura mínima	23.4
129452	7	Sololá	713	San Lucas Tolimán	10	San Lucas Tolimán	6	Junio	2023-12-06T00:00:00	2024-11-08T15:00:00	5	Humedad	58
129453	7	Sololá	713	San Lucas Tolimán	10	San Lucas Tolimán	6	Junio	2023-12-06T00:00:00	2024-11-08T15:00:00	6	Velocidad del viento	11.3
129454	7	Sololá	713	San Lucas Tolimán	10	San Lucas Tolimán	6	Junio	2023-12-06T00:00:00	2024-11-08T15:00:00	7	Dirección del viento	11.27
129455	7	Sololá	713	San Lucas Tolimán	10	San Lucas Tolimán	6	Junio	2023-12-06T00:00:00	2024-11-08T15:00:00	1	Precipitación	0
129456	7	Sololá	713	San Lucas Tolimán	10	San Lucas Tolimán	6	Junio	2023-12-06T00:00:00	2024-11-08T15:00:00	8	Radiación solar	733
129457	7	Sololá	713	San Lucas Tolimán	10	San Lucas Tolimán	6	Junio	2023-12-06T00:00:00	2024-11-08T16:00:00	2	Temperatura media	22.4
129458	7	Sololá	713	San Lucas Tolimán	10	San Lucas Tolimán	6	Junio	2023-12-06T00:00:00	2024-11-08T16:00:00	4	Temperatura máxima	23.7
129459	7	Sololá	713	San Lucas Tolimán	10	San Lucas Tolimán	6	Junio	2023-12-06T00:00:00	2024-11-08T16:00:00	3	Temperatura mínima	22.1
129460	7	Sololá	713	San Lucas Tolimán	10	San Lucas Tolimán	6	Junio	2023-12-06T00:00:00	2024-11-08T16:00:00	5	Humedad	61
129461	7	Sololá	713	San Lucas Tolimán	10	San Lucas Tolimán	6	Junio	2023-12-06T00:00:00	2024-11-08T16:00:00	6	Velocidad del viento	11.3
129462	7	Sololá	713	San Lucas Tolimán	10	San Lucas Tolimán	6	Junio	2023-12-06T00:00:00	2024-11-08T16:00:00	7	Dirección del viento	11.27
129463	7	Sololá	713	San Lucas Tolimán	10	San Lucas Tolimán	6	Junio	2023-12-06T00:00:00	2024-11-08T16:00:00	1	Precipitación	0
129464	7	Sololá	713	San Lucas Tolimán	10	San Lucas Tolimán	6	Junio	2023-12-06T00:00:00	2024-11-08T16:00:00	8	Radiación solar	324
129465	7	Sololá	713	San Lucas Tolimán	10	San Lucas Tolimán	6	Junio	2023-12-06T00:00:00	2024-11-08T17:00:00	2	Temperatura media	20.4
129466	7	Sololá	713	San Lucas Tolimán	10	San Lucas Tolimán	6	Junio	2023-12-06T00:00:00	2024-11-08T17:00:00	4	Temperatura máxima	22.4
129467	7	Sololá	713	San Lucas Tolimán	10	San Lucas Tolimán	6	Junio	2023-12-06T00:00:00	2024-11-08T17:00:00	3	Temperatura mínima	20.4
129468	7	Sololá	713	San Lucas Tolimán	10	San Lucas Tolimán	6	Junio	2023-12-06T00:00:00	2024-11-08T17:00:00	5	Humedad	67
129469	7	Sololá	713	San Lucas Tolimán	10	San Lucas Tolimán	6	Junio	2023-12-06T00:00:00	2024-11-08T17:00:00	6	Velocidad del viento	9.7
129470	7	Sololá	713	San Lucas Tolimán	10	San Lucas Tolimán	6	Junio	2023-12-06T00:00:00	2024-11-08T17:00:00	7	Dirección del viento	9.66
129471	7	Sololá	713	San Lucas Tolimán	10	San Lucas Tolimán	6	Junio	2023-12-06T00:00:00	2024-11-08T17:00:00	1	Precipitación	0
129472	7	Sololá	713	San Lucas Tolimán	10	San Lucas Tolimán	6	Junio	2023-12-06T00:00:00	2024-11-08T17:00:00	8	Radiación solar	78
129473	7	Sololá	713	San Lucas Tolimán	10	San Lucas Tolimán	6	Junio	2023-12-06T00:00:00	2024-11-08T18:00:00	2	Temperatura media	19.5
129474	7	Sololá	713	San Lucas Tolimán	10	San Lucas Tolimán	6	Junio	2023-12-06T00:00:00	2024-11-08T18:00:00	4	Temperatura máxima	20.4
129475	7	Sololá	713	San Lucas Tolimán	10	San Lucas Tolimán	6	Junio	2023-12-06T00:00:00	2024-11-08T18:00:00	3	Temperatura mínima	19.4
129476	7	Sololá	713	San Lucas Tolimán	10	San Lucas Tolimán	6	Junio	2023-12-06T00:00:00	2024-11-08T18:00:00	5	Humedad	68
129477	7	Sololá	713	San Lucas Tolimán	10	San Lucas Tolimán	6	Junio	2023-12-06T00:00:00	2024-11-08T18:00:00	6	Velocidad del viento	6.4
129478	7	Sololá	713	San Lucas Tolimán	10	San Lucas Tolimán	6	Junio	2023-12-06T00:00:00	2024-11-08T18:00:00	7	Dirección del viento	6.44
129479	7	Sololá	713	San Lucas Tolimán	10	San Lucas Tolimán	6	Junio	2023-12-06T00:00:00	2024-11-08T18:00:00	1	Precipitación	0
129480	7	Sololá	713	San Lucas Tolimán	10	San Lucas Tolimán	6	Junio	2023-12-06T00:00:00	2024-11-08T18:00:00	8	Radiación solar	18
129481	7	Sololá	713	San Lucas Tolimán	10	San Lucas Tolimán	6	Junio	2023-12-06T00:00:00	2024-11-08T19:00:00	2	Temperatura media	19.7
129482	7	Sololá	713	San Lucas Tolimán	10	San Lucas Tolimán	6	Junio	2023-12-06T00:00:00	2024-11-08T19:00:00	4	Temperatura máxima	19.7
129483	7	Sololá	713	San Lucas Tolimán	10	San Lucas Tolimán	6	Junio	2023-12-06T00:00:00	2024-11-08T19:00:00	3	Temperatura mínima	19.4
129484	7	Sololá	713	San Lucas Tolimán	10	San Lucas Tolimán	6	Junio	2023-12-06T00:00:00	2024-11-08T19:00:00	5	Humedad	68
129485	7	Sololá	713	San Lucas Tolimán	10	San Lucas Tolimán	6	Junio	2023-12-06T00:00:00	2024-11-08T19:00:00	6	Velocidad del viento	6.4
129486	7	Sololá	713	San Lucas Tolimán	10	San Lucas Tolimán	6	Junio	2023-12-06T00:00:00	2024-11-08T19:00:00	7	Dirección del viento	6.44
129487	7	Sololá	713	San Lucas Tolimán	10	San Lucas Tolimán	6	Junio	2023-12-06T00:00:00	2024-11-08T19:00:00	1	Precipitación	0
129488	7	Sololá	713	San Lucas Tolimán	10	San Lucas Tolimán	6	Junio	2023-12-06T00:00:00	2024-11-08T19:00:00	8	Radiación solar	0
129489	7	Sololá	713	San Lucas Tolimán	10	San Lucas Tolimán	6	Junio	2023-12-06T00:00:00	2024-11-08T20:00:00	2	Temperatura media	19.3
129490	7	Sololá	713	San Lucas Tolimán	10	San Lucas Tolimán	6	Junio	2023-12-06T00:00:00	2024-11-08T20:00:00	4	Temperatura máxima	19.7
129491	7	Sololá	713	San Lucas Tolimán	10	San Lucas Tolimán	6	Junio	2023-12-06T00:00:00	2024-11-08T20:00:00	3	Temperatura mínima	19.1
129492	7	Sololá	713	San Lucas Tolimán	10	San Lucas Tolimán	6	Junio	2023-12-06T00:00:00	2024-11-08T20:00:00	5	Humedad	66
129493	7	Sololá	713	San Lucas Tolimán	10	San Lucas Tolimán	6	Junio	2023-12-06T00:00:00	2024-11-08T20:00:00	6	Velocidad del viento	6.4
129494	7	Sololá	713	San Lucas Tolimán	10	San Lucas Tolimán	6	Junio	2023-12-06T00:00:00	2024-11-08T20:00:00	7	Dirección del viento	6.44
129495	7	Sololá	713	San Lucas Tolimán	10	San Lucas Tolimán	6	Junio	2023-12-06T00:00:00	2024-11-08T20:00:00	1	Precipitación	0
129496	7	Sololá	713	San Lucas Tolimán	10	San Lucas Tolimán	6	Junio	2023-12-06T00:00:00	2024-11-08T20:00:00	8	Radiación solar	0
129497	7	Sololá	713	San Lucas Tolimán	10	San Lucas Tolimán	6	Junio	2023-12-06T00:00:00	2024-11-08T21:00:00	2	Temperatura media	19.3
129498	7	Sololá	713	San Lucas Tolimán	10	San Lucas Tolimán	6	Junio	2023-12-06T00:00:00	2024-11-08T21:00:00	4	Temperatura máxima	19.4
129499	7	Sololá	713	San Lucas Tolimán	10	San Lucas Tolimán	6	Junio	2023-12-06T00:00:00	2024-11-08T21:00:00	3	Temperatura mínima	19.2
129500	7	Sololá	713	San Lucas Tolimán	10	San Lucas Tolimán	6	Junio	2023-12-06T00:00:00	2024-11-08T21:00:00	5	Humedad	65
129501	7	Sololá	713	San Lucas Tolimán	10	San Lucas Tolimán	6	Junio	2023-12-06T00:00:00	2024-11-08T21:00:00	6	Velocidad del viento	6.4
129502	7	Sololá	713	San Lucas Tolimán	10	San Lucas Tolimán	6	Junio	2023-12-06T00:00:00	2024-11-08T21:00:00	7	Dirección del viento	6.44
129503	7	Sololá	713	San Lucas Tolimán	10	San Lucas Tolimán	6	Junio	2023-12-06T00:00:00	2024-11-08T21:00:00	1	Precipitación	0
129504	7	Sololá	713	San Lucas Tolimán	10	San Lucas Tolimán	6	Junio	2023-12-06T00:00:00	2024-11-08T21:00:00	8	Radiación solar	0
129505	7	Sololá	713	San Lucas Tolimán	10	San Lucas Tolimán	6	Junio	2023-12-06T00:00:00	2024-11-08T22:00:00	2	Temperatura media	19.2
129506	7	Sololá	713	San Lucas Tolimán	10	San Lucas Tolimán	6	Junio	2023-12-06T00:00:00	2024-11-08T22:00:00	4	Temperatura máxima	19.5
129507	7	Sololá	713	San Lucas Tolimán	10	San Lucas Tolimán	6	Junio	2023-12-06T00:00:00	2024-11-08T22:00:00	3	Temperatura mínima	19.2
129508	7	Sololá	713	San Lucas Tolimán	10	San Lucas Tolimán	6	Junio	2023-12-06T00:00:00	2024-11-08T22:00:00	5	Humedad	66
129509	7	Sololá	713	San Lucas Tolimán	10	San Lucas Tolimán	6	Junio	2023-12-06T00:00:00	2024-11-08T22:00:00	6	Velocidad del viento	6.4
129510	7	Sololá	713	San Lucas Tolimán	10	San Lucas Tolimán	6	Junio	2023-12-06T00:00:00	2024-11-08T22:00:00	7	Dirección del viento	6.44
129511	7	Sololá	713	San Lucas Tolimán	10	San Lucas Tolimán	6	Junio	2023-12-06T00:00:00	2024-11-08T22:00:00	1	Precipitación	0
129512	7	Sololá	713	San Lucas Tolimán	10	San Lucas Tolimán	6	Junio	2023-12-06T00:00:00	2024-11-08T22:00:00	8	Radiación solar	0
129513	7	Sololá	713	San Lucas Tolimán	10	San Lucas Tolimán	6	Junio	2023-12-06T00:00:00	2024-11-08T23:00:00	2	Temperatura media	19.1
129514	7	Sololá	713	San Lucas Tolimán	10	San Lucas Tolimán	6	Junio	2023-12-06T00:00:00	2024-11-08T23:00:00	4	Temperatura máxima	19.3
129515	7	Sololá	713	San Lucas Tolimán	10	San Lucas Tolimán	6	Junio	2023-12-06T00:00:00	2024-11-08T23:00:00	3	Temperatura mínima	19.1
129516	7	Sololá	713	San Lucas Tolimán	10	San Lucas Tolimán	6	Junio	2023-12-06T00:00:00	2024-11-08T23:00:00	5	Humedad	66
129517	7	Sololá	713	San Lucas Tolimán	10	San Lucas Tolimán	6	Junio	2023-12-06T00:00:00	2024-11-08T23:00:00	6	Velocidad del viento	3.2
129518	7	Sololá	713	San Lucas Tolimán	10	San Lucas Tolimán	6	Junio	2023-12-06T00:00:00	2024-11-08T23:00:00	7	Dirección del viento	3.22
129519	7	Sololá	713	San Lucas Tolimán	10	San Lucas Tolimán	6	Junio	2023-12-06T00:00:00	2024-11-08T23:00:00	1	Precipitación	0
129520	7	Sololá	713	San Lucas Tolimán	10	San Lucas Tolimán	6	Junio	2023-12-06T00:00:00	2024-11-08T23:00:00	8	Radiación solar	0
129521	7	Sololá	713	San Lucas Tolimán	10	San Lucas Tolimán	6	Junio	2023-06-13T00:00:00	2024-11-08T00:00:00	2	Temperatura media	18.5
129522	7	Sololá	713	San Lucas Tolimán	10	San Lucas Tolimán	6	Junio	2023-06-13T00:00:00	2024-11-08T00:00:00	4	Temperatura máxima	19.1
129523	7	Sololá	713	San Lucas Tolimán	10	San Lucas Tolimán	6	Junio	2023-06-13T00:00:00	2024-11-08T00:00:00	3	Temperatura mínima	18.4
129524	7	Sololá	713	San Lucas Tolimán	10	San Lucas Tolimán	6	Junio	2023-06-13T00:00:00	2024-11-08T00:00:00	5	Humedad	66
129525	7	Sololá	713	San Lucas Tolimán	10	San Lucas Tolimán	6	Junio	2023-06-13T00:00:00	2024-11-08T00:00:00	6	Velocidad del viento	3.2
129526	7	Sololá	713	San Lucas Tolimán	10	San Lucas Tolimán	6	Junio	2023-06-13T00:00:00	2024-11-08T00:00:00	7	Dirección del viento	3.22
129527	7	Sololá	713	San Lucas Tolimán	10	San Lucas Tolimán	6	Junio	2023-06-13T00:00:00	2024-11-08T00:00:00	1	Precipitación	0
129528	7	Sololá	713	San Lucas Tolimán	10	San Lucas Tolimán	6	Junio	2023-06-13T00:00:00	2024-11-08T00:00:00	8	Radiación solar	0
129529	7	Sololá	713	San Lucas Tolimán	10	San Lucas Tolimán	6	Junio	2023-06-13T00:00:00	2024-11-08T01:00:00	2	Temperatura media	18.3
129530	7	Sololá	713	San Lucas Tolimán	10	San Lucas Tolimán	6	Junio	2023-06-13T00:00:00	2024-11-08T01:00:00	4	Temperatura máxima	18.6
129531	7	Sololá	713	San Lucas Tolimán	10	San Lucas Tolimán	6	Junio	2023-06-13T00:00:00	2024-11-08T01:00:00	3	Temperatura mínima	18.2
129532	7	Sololá	713	San Lucas Tolimán	10	San Lucas Tolimán	6	Junio	2023-06-13T00:00:00	2024-11-08T01:00:00	5	Humedad	67
129533	7	Sololá	713	San Lucas Tolimán	10	San Lucas Tolimán	6	Junio	2023-06-13T00:00:00	2024-11-08T01:00:00	6	Velocidad del viento	1.6
129534	7	Sololá	713	San Lucas Tolimán	10	San Lucas Tolimán	6	Junio	2023-06-13T00:00:00	2024-11-08T01:00:00	7	Dirección del viento	1.61
129535	7	Sololá	713	San Lucas Tolimán	10	San Lucas Tolimán	6	Junio	2023-06-13T00:00:00	2024-11-08T01:00:00	1	Precipitación	0
129536	7	Sololá	713	San Lucas Tolimán	10	San Lucas Tolimán	6	Junio	2023-06-13T00:00:00	2024-11-08T01:00:00	8	Radiación solar	0
129537	7	Sololá	713	San Lucas Tolimán	10	San Lucas Tolimán	6	Junio	2023-06-13T00:00:00	2024-11-08T02:00:00	2	Temperatura media	18.1
129538	7	Sololá	713	San Lucas Tolimán	10	San Lucas Tolimán	6	Junio	2023-06-13T00:00:00	2024-11-08T02:00:00	4	Temperatura máxima	18.3
129539	7	Sololá	713	San Lucas Tolimán	10	San Lucas Tolimán	6	Junio	2023-06-13T00:00:00	2024-11-08T02:00:00	3	Temperatura mínima	18.1
129540	7	Sololá	713	San Lucas Tolimán	10	San Lucas Tolimán	6	Junio	2023-06-13T00:00:00	2024-11-08T02:00:00	5	Humedad	66
129541	7	Sololá	713	San Lucas Tolimán	10	San Lucas Tolimán	6	Junio	2023-06-13T00:00:00	2024-11-08T02:00:00	6	Velocidad del viento	0
129542	7	Sololá	713	San Lucas Tolimán	10	San Lucas Tolimán	6	Junio	2023-06-13T00:00:00	2024-11-08T02:00:00	7	Dirección del viento	0
129543	7	Sololá	713	San Lucas Tolimán	10	San Lucas Tolimán	6	Junio	2023-06-13T00:00:00	2024-11-08T02:00:00	1	Precipitación	0
129544	7	Sololá	713	San Lucas Tolimán	10	San Lucas Tolimán	6	Junio	2023-06-13T00:00:00	2024-11-08T02:00:00	8	Radiación solar	0
129545	7	Sololá	713	San Lucas Tolimán	10	San Lucas Tolimán	6	Junio	2023-06-13T00:00:00	2024-11-08T03:00:00	2	Temperatura media	18.1
129546	7	Sololá	713	San Lucas Tolimán	10	San Lucas Tolimán	6	Junio	2023-06-13T00:00:00	2024-11-08T03:00:00	4	Temperatura máxima	18.4
129547	7	Sololá	713	San Lucas Tolimán	10	San Lucas Tolimán	6	Junio	2023-06-13T00:00:00	2024-11-08T03:00:00	3	Temperatura mínima	18
129548	7	Sololá	713	San Lucas Tolimán	10	San Lucas Tolimán	6	Junio	2023-06-13T00:00:00	2024-11-08T03:00:00	5	Humedad	67
129549	7	Sololá	713	San Lucas Tolimán	10	San Lucas Tolimán	6	Junio	2023-06-13T00:00:00	2024-11-08T03:00:00	6	Velocidad del viento	1.6
129550	7	Sololá	713	San Lucas Tolimán	10	San Lucas Tolimán	6	Junio	2023-06-13T00:00:00	2024-11-08T03:00:00	7	Dirección del viento	1.61
129551	7	Sololá	713	San Lucas Tolimán	10	San Lucas Tolimán	6	Junio	2023-06-13T00:00:00	2024-11-08T03:00:00	1	Precipitación	0
129552	7	Sololá	713	San Lucas Tolimán	10	San Lucas Tolimán	6	Junio	2023-06-13T00:00:00	2024-11-08T03:00:00	8	Radiación solar	0
129553	7	Sololá	713	San Lucas Tolimán	10	San Lucas Tolimán	6	Junio	2023-06-13T00:00:00	2024-11-08T04:00:00	2	Temperatura media	17.6
129554	7	Sololá	713	San Lucas Tolimán	10	San Lucas Tolimán	6	Junio	2023-06-13T00:00:00	2024-11-08T04:00:00	4	Temperatura máxima	18.1
129555	7	Sololá	713	San Lucas Tolimán	10	San Lucas Tolimán	6	Junio	2023-06-13T00:00:00	2024-11-08T04:00:00	3	Temperatura mínima	17.4
129556	7	Sololá	713	San Lucas Tolimán	10	San Lucas Tolimán	6	Junio	2023-06-13T00:00:00	2024-11-08T04:00:00	5	Humedad	65
129557	7	Sololá	713	San Lucas Tolimán	10	San Lucas Tolimán	6	Junio	2023-06-13T00:00:00	2024-11-08T04:00:00	6	Velocidad del viento	1.6
129558	7	Sololá	713	San Lucas Tolimán	10	San Lucas Tolimán	6	Junio	2023-06-13T00:00:00	2024-11-08T04:00:00	7	Dirección del viento	1.61
129559	7	Sololá	713	San Lucas Tolimán	10	San Lucas Tolimán	6	Junio	2023-06-13T00:00:00	2024-11-08T04:00:00	1	Precipitación	0
129560	7	Sololá	713	San Lucas Tolimán	10	San Lucas Tolimán	6	Junio	2023-06-13T00:00:00	2024-11-08T04:00:00	8	Radiación solar	0
129561	7	Sololá	713	San Lucas Tolimán	10	San Lucas Tolimán	6	Junio	2023-06-13T00:00:00	2024-11-08T05:00:00	2	Temperatura media	17.3
129562	7	Sololá	713	San Lucas Tolimán	10	San Lucas Tolimán	6	Junio	2023-06-13T00:00:00	2024-11-08T05:00:00	4	Temperatura máxima	18.2
129563	7	Sololá	713	San Lucas Tolimán	10	San Lucas Tolimán	6	Junio	2023-06-13T00:00:00	2024-11-08T05:00:00	3	Temperatura mínima	17.3
129564	7	Sololá	713	San Lucas Tolimán	10	San Lucas Tolimán	6	Junio	2023-06-13T00:00:00	2024-11-08T05:00:00	5	Humedad	65
129565	7	Sololá	713	San Lucas Tolimán	10	San Lucas Tolimán	6	Junio	2023-06-13T00:00:00	2024-11-08T05:00:00	6	Velocidad del viento	3.2
129566	7	Sololá	713	San Lucas Tolimán	10	San Lucas Tolimán	6	Junio	2023-06-13T00:00:00	2024-11-08T05:00:00	7	Dirección del viento	3.22
129567	7	Sololá	713	San Lucas Tolimán	10	San Lucas Tolimán	6	Junio	2023-06-13T00:00:00	2024-11-08T05:00:00	1	Precipitación	0
129568	7	Sololá	713	San Lucas Tolimán	10	San Lucas Tolimán	6	Junio	2023-06-13T00:00:00	2024-11-08T05:00:00	8	Radiación solar	0
129569	7	Sololá	713	San Lucas Tolimán	10	San Lucas Tolimán	6	Junio	2023-06-13T00:00:00	2024-11-08T06:00:00	2	Temperatura media	16.8
129570	7	Sololá	713	San Lucas Tolimán	10	San Lucas Tolimán	6	Junio	2023-06-13T00:00:00	2024-11-08T06:00:00	4	Temperatura máxima	17.3
129571	7	Sololá	713	San Lucas Tolimán	10	San Lucas Tolimán	6	Junio	2023-06-13T00:00:00	2024-11-08T06:00:00	3	Temperatura mínima	16.6
129572	7	Sololá	713	San Lucas Tolimán	10	San Lucas Tolimán	6	Junio	2023-06-13T00:00:00	2024-11-08T06:00:00	5	Humedad	63
129573	7	Sololá	713	San Lucas Tolimán	10	San Lucas Tolimán	6	Junio	2023-06-13T00:00:00	2024-11-08T06:00:00	6	Velocidad del viento	4.8
129574	7	Sololá	713	San Lucas Tolimán	10	San Lucas Tolimán	6	Junio	2023-06-13T00:00:00	2024-11-08T06:00:00	7	Dirección del viento	4.83
129575	7	Sololá	713	San Lucas Tolimán	10	San Lucas Tolimán	6	Junio	2023-06-13T00:00:00	2024-11-08T06:00:00	1	Precipitación	0
129576	7	Sololá	713	San Lucas Tolimán	10	San Lucas Tolimán	6	Junio	2023-06-13T00:00:00	2024-11-08T06:00:00	8	Radiación solar	6
129577	7	Sololá	713	San Lucas Tolimán	10	San Lucas Tolimán	6	Junio	2023-06-13T00:00:00	2024-11-08T07:00:00	2	Temperatura media	18.6
129578	7	Sololá	713	San Lucas Tolimán	10	San Lucas Tolimán	6	Junio	2023-06-13T00:00:00	2024-11-08T07:00:00	4	Temperatura máxima	18.6
129579	7	Sololá	713	San Lucas Tolimán	10	San Lucas Tolimán	6	Junio	2023-06-13T00:00:00	2024-11-08T07:00:00	3	Temperatura mínima	17.7
129580	7	Sololá	713	San Lucas Tolimán	10	San Lucas Tolimán	6	Junio	2023-06-13T00:00:00	2024-11-08T07:00:00	5	Humedad	77
129581	7	Sololá	713	San Lucas Tolimán	10	San Lucas Tolimán	6	Junio	2023-06-13T00:00:00	2024-11-08T07:00:00	6	Velocidad del viento	1.6
129582	7	Sololá	713	San Lucas Tolimán	10	San Lucas Tolimán	6	Junio	2023-06-13T00:00:00	2024-11-08T07:00:00	7	Dirección del viento	1.61
129583	7	Sololá	713	San Lucas Tolimán	10	San Lucas Tolimán	6	Junio	2023-06-13T00:00:00	2024-11-08T07:00:00	1	Precipitación	0
129584	7	Sololá	713	San Lucas Tolimán	10	San Lucas Tolimán	6	Junio	2023-06-13T00:00:00	2024-11-08T07:00:00	8	Radiación solar	69
129585	7	Sololá	713	San Lucas Tolimán	10	San Lucas Tolimán	6	Junio	2023-06-13T00:00:00	2024-11-08T08:00:00	2	Temperatura media	21.1
129586	7	Sololá	713	San Lucas Tolimán	10	San Lucas Tolimán	6	Junio	2023-06-13T00:00:00	2024-11-08T08:00:00	4	Temperatura máxima	21.1
129587	7	Sololá	713	San Lucas Tolimán	10	San Lucas Tolimán	6	Junio	2023-06-13T00:00:00	2024-11-08T08:00:00	3	Temperatura mínima	18.6
129588	7	Sololá	713	San Lucas Tolimán	10	San Lucas Tolimán	6	Junio	2023-06-13T00:00:00	2024-11-08T08:00:00	5	Humedad	70
129589	7	Sololá	713	San Lucas Tolimán	10	San Lucas Tolimán	6	Junio	2023-06-13T00:00:00	2024-11-08T08:00:00	6	Velocidad del viento	1.6
129590	7	Sololá	713	San Lucas Tolimán	10	San Lucas Tolimán	6	Junio	2023-06-13T00:00:00	2024-11-08T08:00:00	7	Dirección del viento	1.61
129591	7	Sololá	713	San Lucas Tolimán	10	San Lucas Tolimán	6	Junio	2023-06-13T00:00:00	2024-11-08T08:00:00	1	Precipitación	0
129592	7	Sololá	713	San Lucas Tolimán	10	San Lucas Tolimán	6	Junio	2023-06-13T00:00:00	2024-11-08T08:00:00	8	Radiación solar	205
129593	7	Sololá	713	San Lucas Tolimán	10	San Lucas Tolimán	6	Junio	2023-06-13T00:00:00	2024-11-08T09:00:00	2	Temperatura media	22.8
129594	7	Sololá	713	San Lucas Tolimán	10	San Lucas Tolimán	6	Junio	2023-06-13T00:00:00	2024-11-08T09:00:00	4	Temperatura máxima	22.8
129595	7	Sololá	713	San Lucas Tolimán	10	San Lucas Tolimán	6	Junio	2023-06-13T00:00:00	2024-11-08T09:00:00	3	Temperatura mínima	21
129596	7	Sololá	713	San Lucas Tolimán	10	San Lucas Tolimán	6	Junio	2023-06-13T00:00:00	2024-11-08T09:00:00	5	Humedad	67
129597	7	Sololá	713	San Lucas Tolimán	10	San Lucas Tolimán	6	Junio	2023-06-13T00:00:00	2024-11-08T09:00:00	6	Velocidad del viento	3.2
129598	7	Sololá	713	San Lucas Tolimán	10	San Lucas Tolimán	6	Junio	2023-06-13T00:00:00	2024-11-08T09:00:00	7	Dirección del viento	3.22
129599	7	Sololá	713	San Lucas Tolimán	10	San Lucas Tolimán	6	Junio	2023-06-13T00:00:00	2024-11-08T09:00:00	1	Precipitación	0
129600	7	Sololá	713	San Lucas Tolimán	10	San Lucas Tolimán	6	Junio	2023-06-13T00:00:00	2024-11-08T09:00:00	8	Radiación solar	483
129601	7	Sololá	713	San Lucas Tolimán	10	San Lucas Tolimán	6	Junio	2023-06-13T00:00:00	2024-11-08T10:00:00	2	Temperatura media	23.8
129602	7	Sololá	713	San Lucas Tolimán	10	San Lucas Tolimán	6	Junio	2023-06-13T00:00:00	2024-11-08T10:00:00	4	Temperatura máxima	23.9
129603	7	Sololá	713	San Lucas Tolimán	10	San Lucas Tolimán	6	Junio	2023-06-13T00:00:00	2024-11-08T10:00:00	3	Temperatura mínima	23.1
129604	7	Sololá	713	San Lucas Tolimán	10	San Lucas Tolimán	6	Junio	2023-06-13T00:00:00	2024-11-08T10:00:00	5	Humedad	51
129605	7	Sololá	713	San Lucas Tolimán	10	San Lucas Tolimán	6	Junio	2023-06-13T00:00:00	2024-11-08T10:00:00	6	Velocidad del viento	8
129606	7	Sololá	713	San Lucas Tolimán	10	San Lucas Tolimán	6	Junio	2023-06-13T00:00:00	2024-11-08T10:00:00	7	Dirección del viento	8.05
129607	7	Sololá	713	San Lucas Tolimán	10	San Lucas Tolimán	6	Junio	2023-06-13T00:00:00	2024-11-08T10:00:00	1	Precipitación	0
129608	7	Sololá	713	San Lucas Tolimán	10	San Lucas Tolimán	6	Junio	2023-06-13T00:00:00	2024-11-08T10:00:00	8	Radiación solar	733
129609	7	Sololá	713	San Lucas Tolimán	10	San Lucas Tolimán	6	Junio	2023-06-13T00:00:00	2024-11-08T11:00:00	2	Temperatura media	26.2
129610	7	Sololá	713	San Lucas Tolimán	10	San Lucas Tolimán	6	Junio	2023-06-13T00:00:00	2024-11-08T11:00:00	4	Temperatura máxima	26.2
129611	7	Sololá	713	San Lucas Tolimán	10	San Lucas Tolimán	6	Junio	2023-06-13T00:00:00	2024-11-08T11:00:00	3	Temperatura mínima	23.8
129612	7	Sololá	713	San Lucas Tolimán	10	San Lucas Tolimán	6	Junio	2023-06-13T00:00:00	2024-11-08T11:00:00	5	Humedad	43
129613	7	Sololá	713	San Lucas Tolimán	10	San Lucas Tolimán	6	Junio	2023-06-13T00:00:00	2024-11-08T11:00:00	6	Velocidad del viento	8
129614	7	Sololá	713	San Lucas Tolimán	10	San Lucas Tolimán	6	Junio	2023-06-13T00:00:00	2024-11-08T11:00:00	7	Dirección del viento	8.05
129615	7	Sololá	713	San Lucas Tolimán	10	San Lucas Tolimán	6	Junio	2023-06-13T00:00:00	2024-11-08T11:00:00	1	Precipitación	0
129616	7	Sololá	713	San Lucas Tolimán	10	San Lucas Tolimán	6	Junio	2023-06-13T00:00:00	2024-11-08T11:00:00	8	Radiación solar	928
129617	7	Sololá	713	San Lucas Tolimán	10	San Lucas Tolimán	6	Junio	2023-06-13T00:00:00	2024-11-08T12:00:00	2	Temperatura media	24.5
129618	7	Sololá	713	San Lucas Tolimán	10	San Lucas Tolimán	6	Junio	2023-06-13T00:00:00	2024-11-08T12:00:00	4	Temperatura máxima	26.5
129619	7	Sololá	713	San Lucas Tolimán	10	San Lucas Tolimán	6	Junio	2023-06-13T00:00:00	2024-11-08T12:00:00	3	Temperatura mínima	24.3
129620	7	Sololá	713	San Lucas Tolimán	10	San Lucas Tolimán	6	Junio	2023-06-13T00:00:00	2024-11-08T12:00:00	5	Humedad	57
129621	7	Sololá	713	San Lucas Tolimán	10	San Lucas Tolimán	6	Junio	2023-06-13T00:00:00	2024-11-08T12:00:00	6	Velocidad del viento	11.3
129622	7	Sololá	713	San Lucas Tolimán	10	San Lucas Tolimán	6	Junio	2023-06-13T00:00:00	2024-11-08T12:00:00	7	Dirección del viento	11.27
129623	7	Sololá	713	San Lucas Tolimán	10	San Lucas Tolimán	6	Junio	2023-06-13T00:00:00	2024-11-08T12:00:00	1	Precipitación	0
129624	7	Sololá	713	San Lucas Tolimán	10	San Lucas Tolimán	6	Junio	2023-06-13T00:00:00	2024-11-08T12:00:00	8	Radiación solar	1080
129625	7	Sololá	713	San Lucas Tolimán	10	San Lucas Tolimán	6	Junio	2023-06-13T00:00:00	2024-11-08T13:00:00	2	Temperatura media	23.8
129626	7	Sololá	713	San Lucas Tolimán	10	San Lucas Tolimán	6	Junio	2023-06-13T00:00:00	2024-11-08T13:00:00	4	Temperatura máxima	24.4
129627	7	Sololá	713	San Lucas Tolimán	10	San Lucas Tolimán	6	Junio	2023-06-13T00:00:00	2024-11-08T13:00:00	3	Temperatura mínima	23.6
129628	7	Sololá	713	San Lucas Tolimán	10	San Lucas Tolimán	6	Junio	2023-06-13T00:00:00	2024-11-08T13:00:00	5	Humedad	58
129629	7	Sololá	713	San Lucas Tolimán	10	San Lucas Tolimán	6	Junio	2023-06-13T00:00:00	2024-11-08T13:00:00	6	Velocidad del viento	14.5
129630	7	Sololá	713	San Lucas Tolimán	10	San Lucas Tolimán	6	Junio	2023-06-13T00:00:00	2024-11-08T13:00:00	7	Dirección del viento	14.48
129631	7	Sololá	713	San Lucas Tolimán	10	San Lucas Tolimán	6	Junio	2023-06-13T00:00:00	2024-11-08T13:00:00	1	Precipitación	0
129632	7	Sololá	713	San Lucas Tolimán	10	San Lucas Tolimán	6	Junio	2023-06-13T00:00:00	2024-11-08T13:00:00	8	Radiación solar	983
129633	7	Sololá	713	San Lucas Tolimán	10	San Lucas Tolimán	6	Junio	2023-06-13T00:00:00	2024-11-08T14:00:00	2	Temperatura media	23.1
129634	7	Sololá	713	San Lucas Tolimán	10	San Lucas Tolimán	6	Junio	2023-06-13T00:00:00	2024-11-08T14:00:00	4	Temperatura máxima	24.3
129635	7	Sololá	713	San Lucas Tolimán	10	San Lucas Tolimán	6	Junio	2023-06-13T00:00:00	2024-11-08T14:00:00	3	Temperatura mínima	23.1
129636	7	Sololá	713	San Lucas Tolimán	10	San Lucas Tolimán	6	Junio	2023-06-13T00:00:00	2024-11-08T14:00:00	5	Humedad	61
129637	7	Sololá	713	San Lucas Tolimán	10	San Lucas Tolimán	6	Junio	2023-06-13T00:00:00	2024-11-08T14:00:00	6	Velocidad del viento	12.9
129638	7	Sololá	713	San Lucas Tolimán	10	San Lucas Tolimán	6	Junio	2023-06-13T00:00:00	2024-11-08T14:00:00	7	Dirección del viento	12.87
129639	7	Sololá	713	San Lucas Tolimán	10	San Lucas Tolimán	6	Junio	2023-06-13T00:00:00	2024-11-08T14:00:00	1	Precipitación	0
129640	7	Sololá	713	San Lucas Tolimán	10	San Lucas Tolimán	6	Junio	2023-06-13T00:00:00	2024-11-08T14:00:00	8	Radiación solar	835
129641	7	Sololá	713	San Lucas Tolimán	10	San Lucas Tolimán	6	Junio	2023-06-13T00:00:00	2024-11-08T15:00:00	2	Temperatura media	23.9
129642	7	Sololá	713	San Lucas Tolimán	10	San Lucas Tolimán	6	Junio	2023-06-13T00:00:00	2024-11-08T15:00:00	4	Temperatura máxima	24.1
129643	7	Sololá	713	San Lucas Tolimán	10	San Lucas Tolimán	6	Junio	2023-06-13T00:00:00	2024-11-08T15:00:00	3	Temperatura mínima	22.9
129644	7	Sololá	713	San Lucas Tolimán	10	San Lucas Tolimán	6	Junio	2023-06-13T00:00:00	2024-11-08T15:00:00	5	Humedad	60
129645	7	Sololá	713	San Lucas Tolimán	10	San Lucas Tolimán	6	Junio	2023-06-13T00:00:00	2024-11-08T15:00:00	6	Velocidad del viento	11.3
129646	7	Sololá	713	San Lucas Tolimán	10	San Lucas Tolimán	6	Junio	2023-06-13T00:00:00	2024-11-08T15:00:00	7	Dirección del viento	11.27
129647	7	Sololá	713	San Lucas Tolimán	10	San Lucas Tolimán	6	Junio	2023-06-13T00:00:00	2024-11-08T15:00:00	1	Precipitación	0
129648	7	Sololá	713	San Lucas Tolimán	10	San Lucas Tolimán	6	Junio	2023-06-13T00:00:00	2024-11-08T15:00:00	8	Radiación solar	659
129649	7	Sololá	713	San Lucas Tolimán	10	San Lucas Tolimán	6	Junio	2023-06-13T00:00:00	2024-11-08T16:00:00	2	Temperatura media	22.4
129650	7	Sololá	713	San Lucas Tolimán	10	San Lucas Tolimán	6	Junio	2023-06-13T00:00:00	2024-11-08T16:00:00	4	Temperatura máxima	23.9
129651	7	Sololá	713	San Lucas Tolimán	10	San Lucas Tolimán	6	Junio	2023-06-13T00:00:00	2024-11-08T16:00:00	3	Temperatura mínima	22.4
129652	7	Sololá	713	San Lucas Tolimán	10	San Lucas Tolimán	6	Junio	2023-06-13T00:00:00	2024-11-08T16:00:00	5	Humedad	62
129653	7	Sololá	713	San Lucas Tolimán	10	San Lucas Tolimán	6	Junio	2023-06-13T00:00:00	2024-11-08T16:00:00	6	Velocidad del viento	9.7
129654	7	Sololá	713	San Lucas Tolimán	10	San Lucas Tolimán	6	Junio	2023-06-13T00:00:00	2024-11-08T16:00:00	7	Dirección del viento	9.66
129655	7	Sololá	713	San Lucas Tolimán	10	San Lucas Tolimán	6	Junio	2023-06-13T00:00:00	2024-11-08T16:00:00	1	Precipitación	0
129656	7	Sololá	713	San Lucas Tolimán	10	San Lucas Tolimán	6	Junio	2023-06-13T00:00:00	2024-11-08T16:00:00	8	Radiación solar	401
129657	7	Sololá	713	San Lucas Tolimán	10	San Lucas Tolimán	6	Junio	2023-06-13T00:00:00	2024-11-08T17:00:00	2	Temperatura media	22.3
129658	7	Sololá	713	San Lucas Tolimán	10	San Lucas Tolimán	6	Junio	2023-06-13T00:00:00	2024-11-08T17:00:00	4	Temperatura máxima	22.3
129659	7	Sololá	713	San Lucas Tolimán	10	San Lucas Tolimán	6	Junio	2023-06-13T00:00:00	2024-11-08T17:00:00	3	Temperatura mínima	21.7
129660	7	Sololá	713	San Lucas Tolimán	10	San Lucas Tolimán	6	Junio	2023-06-13T00:00:00	2024-11-08T17:00:00	5	Humedad	60
129661	7	Sololá	713	San Lucas Tolimán	10	San Lucas Tolimán	6	Junio	2023-06-13T00:00:00	2024-11-08T17:00:00	6	Velocidad del viento	9.7
129662	7	Sololá	713	San Lucas Tolimán	10	San Lucas Tolimán	6	Junio	2023-06-13T00:00:00	2024-11-08T17:00:00	7	Dirección del viento	9.66
129663	7	Sololá	713	San Lucas Tolimán	10	San Lucas Tolimán	6	Junio	2023-06-13T00:00:00	2024-11-08T17:00:00	1	Precipitación	0
129664	7	Sololá	713	San Lucas Tolimán	10	San Lucas Tolimán	6	Junio	2023-06-13T00:00:00	2024-11-08T17:00:00	8	Radiación solar	216
129665	7	Sololá	713	San Lucas Tolimán	10	San Lucas Tolimán	6	Junio	2023-06-13T00:00:00	2024-11-08T18:00:00	2	Temperatura media	21.3
129666	7	Sololá	713	San Lucas Tolimán	10	San Lucas Tolimán	6	Junio	2023-06-13T00:00:00	2024-11-08T18:00:00	4	Temperatura máxima	22.3
129667	7	Sololá	713	San Lucas Tolimán	10	San Lucas Tolimán	6	Junio	2023-06-13T00:00:00	2024-11-08T18:00:00	3	Temperatura mínima	21.2
129668	7	Sololá	713	San Lucas Tolimán	10	San Lucas Tolimán	6	Junio	2023-06-13T00:00:00	2024-11-08T18:00:00	5	Humedad	63
129669	7	Sololá	713	San Lucas Tolimán	10	San Lucas Tolimán	6	Junio	2023-06-13T00:00:00	2024-11-08T18:00:00	6	Velocidad del viento	8
129670	7	Sololá	713	San Lucas Tolimán	10	San Lucas Tolimán	6	Junio	2023-06-13T00:00:00	2024-11-08T18:00:00	7	Dirección del viento	8.05
129671	7	Sololá	713	San Lucas Tolimán	10	San Lucas Tolimán	6	Junio	2023-06-13T00:00:00	2024-11-08T18:00:00	1	Precipitación	0
129672	7	Sololá	713	San Lucas Tolimán	10	San Lucas Tolimán	6	Junio	2023-06-13T00:00:00	2024-11-08T18:00:00	8	Radiación solar	115
129673	7	Sololá	713	San Lucas Tolimán	10	San Lucas Tolimán	6	Junio	2023-06-13T00:00:00	2024-11-08T19:00:00	2	Temperatura media	20.7
129674	7	Sololá	713	San Lucas Tolimán	10	San Lucas Tolimán	6	Junio	2023-06-13T00:00:00	2024-11-08T19:00:00	4	Temperatura máxima	21.4
129675	7	Sololá	713	San Lucas Tolimán	10	San Lucas Tolimán	6	Junio	2023-06-13T00:00:00	2024-11-08T19:00:00	3	Temperatura mínima	20.7
129676	7	Sololá	713	San Lucas Tolimán	10	San Lucas Tolimán	6	Junio	2023-06-13T00:00:00	2024-11-08T19:00:00	5	Humedad	63
129677	7	Sololá	713	San Lucas Tolimán	10	San Lucas Tolimán	6	Junio	2023-06-13T00:00:00	2024-11-08T19:00:00	6	Velocidad del viento	4.8
129678	7	Sololá	713	San Lucas Tolimán	10	San Lucas Tolimán	6	Junio	2023-06-13T00:00:00	2024-11-08T19:00:00	7	Dirección del viento	4.83
129679	7	Sololá	713	San Lucas Tolimán	10	San Lucas Tolimán	6	Junio	2023-06-13T00:00:00	2024-11-08T19:00:00	1	Precipitación	0
129680	7	Sololá	713	San Lucas Tolimán	10	San Lucas Tolimán	6	Junio	2023-06-13T00:00:00	2024-11-08T19:00:00	8	Radiación solar	0
129681	7	Sololá	713	San Lucas Tolimán	10	San Lucas Tolimán	6	Junio	2023-06-13T00:00:00	2024-11-08T20:00:00	2	Temperatura media	20.6
129682	7	Sololá	713	San Lucas Tolimán	10	San Lucas Tolimán	6	Junio	2023-06-13T00:00:00	2024-11-08T20:00:00	4	Temperatura máxima	20.9
129683	7	Sololá	713	San Lucas Tolimán	10	San Lucas Tolimán	6	Junio	2023-06-13T00:00:00	2024-11-08T20:00:00	3	Temperatura mínima	20.6
129684	7	Sololá	713	San Lucas Tolimán	10	San Lucas Tolimán	6	Junio	2023-06-13T00:00:00	2024-11-08T20:00:00	5	Humedad	62
129685	7	Sololá	713	San Lucas Tolimán	10	San Lucas Tolimán	6	Junio	2023-06-13T00:00:00	2024-11-08T20:00:00	6	Velocidad del viento	6.4
129686	7	Sololá	713	San Lucas Tolimán	10	San Lucas Tolimán	6	Junio	2023-06-13T00:00:00	2024-11-08T20:00:00	7	Dirección del viento	6.44
129687	7	Sololá	713	San Lucas Tolimán	10	San Lucas Tolimán	6	Junio	2023-06-13T00:00:00	2024-11-08T20:00:00	1	Precipitación	0
129688	7	Sololá	713	San Lucas Tolimán	10	San Lucas Tolimán	6	Junio	2023-06-13T00:00:00	2024-11-08T20:00:00	8	Radiación solar	0
129689	7	Sololá	713	San Lucas Tolimán	10	San Lucas Tolimán	6	Junio	2023-06-13T00:00:00	2024-11-08T21:00:00	2	Temperatura media	20.3
129690	7	Sololá	713	San Lucas Tolimán	10	San Lucas Tolimán	6	Junio	2023-06-13T00:00:00	2024-11-08T21:00:00	4	Temperatura máxima	20.6
129691	7	Sololá	713	San Lucas Tolimán	10	San Lucas Tolimán	6	Junio	2023-06-13T00:00:00	2024-11-08T21:00:00	3	Temperatura mínima	20.2
129692	7	Sololá	713	San Lucas Tolimán	10	San Lucas Tolimán	6	Junio	2023-06-13T00:00:00	2024-11-08T21:00:00	5	Humedad	63
129693	7	Sololá	713	San Lucas Tolimán	10	San Lucas Tolimán	6	Junio	2023-06-13T00:00:00	2024-11-08T21:00:00	6	Velocidad del viento	6.4
129694	7	Sololá	713	San Lucas Tolimán	10	San Lucas Tolimán	6	Junio	2023-06-13T00:00:00	2024-11-08T21:00:00	7	Dirección del viento	6.44
129695	7	Sololá	713	San Lucas Tolimán	10	San Lucas Tolimán	6	Junio	2023-06-13T00:00:00	2024-11-08T21:00:00	1	Precipitación	0
129696	7	Sololá	713	San Lucas Tolimán	10	San Lucas Tolimán	6	Junio	2023-06-13T00:00:00	2024-11-08T21:00:00	8	Radiación solar	0
129697	7	Sololá	713	San Lucas Tolimán	10	San Lucas Tolimán	6	Junio	2023-06-13T00:00:00	2024-11-08T22:00:00	2	Temperatura media	20.3
129698	7	Sololá	713	San Lucas Tolimán	10	San Lucas Tolimán	6	Junio	2023-06-13T00:00:00	2024-11-08T22:00:00	4	Temperatura máxima	20.4
129699	7	Sololá	713	San Lucas Tolimán	10	San Lucas Tolimán	6	Junio	2023-06-13T00:00:00	2024-11-08T22:00:00	3	Temperatura mínima	20.1
129700	7	Sololá	713	San Lucas Tolimán	10	San Lucas Tolimán	6	Junio	2023-06-13T00:00:00	2024-11-08T22:00:00	5	Humedad	62
129701	7	Sololá	713	San Lucas Tolimán	10	San Lucas Tolimán	6	Junio	2023-06-13T00:00:00	2024-11-08T22:00:00	6	Velocidad del viento	3.2
129702	7	Sololá	713	San Lucas Tolimán	10	San Lucas Tolimán	6	Junio	2023-06-13T00:00:00	2024-11-08T22:00:00	7	Dirección del viento	3.22
129703	7	Sololá	713	San Lucas Tolimán	10	San Lucas Tolimán	6	Junio	2023-06-13T00:00:00	2024-11-08T22:00:00	1	Precipitación	0
129704	7	Sololá	713	San Lucas Tolimán	10	San Lucas Tolimán	6	Junio	2023-06-13T00:00:00	2024-11-08T22:00:00	8	Radiación solar	0
129705	7	Sololá	713	San Lucas Tolimán	10	San Lucas Tolimán	6	Junio	2023-06-13T00:00:00	2024-11-08T23:00:00	2	Temperatura media	19.3
129706	7	Sololá	713	San Lucas Tolimán	10	San Lucas Tolimán	6	Junio	2023-06-13T00:00:00	2024-11-08T23:00:00	4	Temperatura máxima	20.4
129707	7	Sololá	713	San Lucas Tolimán	10	San Lucas Tolimán	6	Junio	2023-06-13T00:00:00	2024-11-08T23:00:00	3	Temperatura mínima	19.3
129708	7	Sololá	713	San Lucas Tolimán	10	San Lucas Tolimán	6	Junio	2023-06-13T00:00:00	2024-11-08T23:00:00	5	Humedad	61
129709	7	Sololá	713	San Lucas Tolimán	10	San Lucas Tolimán	6	Junio	2023-06-13T00:00:00	2024-11-08T23:00:00	6	Velocidad del viento	3.2
129710	7	Sololá	713	San Lucas Tolimán	10	San Lucas Tolimán	6	Junio	2023-06-13T00:00:00	2024-11-08T23:00:00	7	Dirección del viento	3.22
129711	7	Sololá	713	San Lucas Tolimán	10	San Lucas Tolimán	6	Junio	2023-06-13T00:00:00	2024-11-08T23:00:00	1	Precipitación	0
129712	7	Sololá	713	San Lucas Tolimán	10	San Lucas Tolimán	6	Junio	2023-06-13T00:00:00	2024-11-08T23:00:00	8	Radiación solar	0
129713	7	Sololá	713	San Lucas Tolimán	10	San Lucas Tolimán	6	Junio	2023-06-14T00:00:00	2024-11-08T00:00:00	2	Temperatura media	22.1
129714	7	Sololá	713	San Lucas Tolimán	10	San Lucas Tolimán	6	Junio	2023-06-14T00:00:00	2024-11-08T00:00:00	4	Temperatura máxima	22.3
129715	7	Sololá	713	San Lucas Tolimán	10	San Lucas Tolimán	6	Junio	2023-06-14T00:00:00	2024-11-08T00:00:00	3	Temperatura mínima	19.4
129716	7	Sololá	713	San Lucas Tolimán	10	San Lucas Tolimán	6	Junio	2023-06-14T00:00:00	2024-11-08T00:00:00	5	Humedad	53
129717	7	Sololá	713	San Lucas Tolimán	10	San Lucas Tolimán	6	Junio	2023-06-14T00:00:00	2024-11-08T00:00:00	6	Velocidad del viento	14.5
129718	7	Sololá	713	San Lucas Tolimán	10	San Lucas Tolimán	6	Junio	2023-06-14T00:00:00	2024-11-08T00:00:00	7	Dirección del viento	14.48
129719	7	Sololá	713	San Lucas Tolimán	10	San Lucas Tolimán	6	Junio	2023-06-14T00:00:00	2024-11-08T00:00:00	1	Precipitación	0
129720	7	Sololá	713	San Lucas Tolimán	10	San Lucas Tolimán	6	Junio	2023-06-14T00:00:00	2024-11-08T00:00:00	8	Radiación solar	0
129721	7	Sololá	713	San Lucas Tolimán	10	San Lucas Tolimán	6	Junio	2023-06-14T00:00:00	2024-11-08T01:00:00	2	Temperatura media	20.8
129722	7	Sololá	713	San Lucas Tolimán	10	San Lucas Tolimán	6	Junio	2023-06-14T00:00:00	2024-11-08T01:00:00	4	Temperatura máxima	22.2
129723	7	Sololá	713	San Lucas Tolimán	10	San Lucas Tolimán	6	Junio	2023-06-14T00:00:00	2024-11-08T01:00:00	3	Temperatura mínima	20.6
129724	7	Sololá	713	San Lucas Tolimán	10	San Lucas Tolimán	6	Junio	2023-06-14T00:00:00	2024-11-08T01:00:00	5	Humedad	57
129725	7	Sololá	713	San Lucas Tolimán	10	San Lucas Tolimán	6	Junio	2023-06-14T00:00:00	2024-11-08T01:00:00	6	Velocidad del viento	4.8
129726	7	Sololá	713	San Lucas Tolimán	10	San Lucas Tolimán	6	Junio	2023-06-14T00:00:00	2024-11-08T01:00:00	7	Dirección del viento	4.83
129727	7	Sololá	713	San Lucas Tolimán	10	San Lucas Tolimán	6	Junio	2023-06-14T00:00:00	2024-11-08T01:00:00	1	Precipitación	0
129728	7	Sololá	713	San Lucas Tolimán	10	San Lucas Tolimán	6	Junio	2023-06-14T00:00:00	2024-11-08T01:00:00	8	Radiación solar	0
129729	7	Sololá	713	San Lucas Tolimán	10	San Lucas Tolimán	6	Junio	2023-06-14T00:00:00	2024-11-08T02:00:00	2	Temperatura media	19.6
129730	7	Sololá	713	San Lucas Tolimán	10	San Lucas Tolimán	6	Junio	2023-06-14T00:00:00	2024-11-08T02:00:00	4	Temperatura máxima	21.1
129731	7	Sololá	713	San Lucas Tolimán	10	San Lucas Tolimán	6	Junio	2023-06-14T00:00:00	2024-11-08T02:00:00	3	Temperatura mínima	19.6
129732	7	Sololá	713	San Lucas Tolimán	10	San Lucas Tolimán	6	Junio	2023-06-14T00:00:00	2024-11-08T02:00:00	5	Humedad	61
129733	7	Sololá	713	San Lucas Tolimán	10	San Lucas Tolimán	6	Junio	2023-06-14T00:00:00	2024-11-08T02:00:00	6	Velocidad del viento	1.6
129734	7	Sololá	713	San Lucas Tolimán	10	San Lucas Tolimán	6	Junio	2023-06-14T00:00:00	2024-11-08T02:00:00	7	Dirección del viento	1.61
129735	7	Sololá	713	San Lucas Tolimán	10	San Lucas Tolimán	6	Junio	2023-06-14T00:00:00	2024-11-08T02:00:00	1	Precipitación	0
129736	7	Sololá	713	San Lucas Tolimán	10	San Lucas Tolimán	6	Junio	2023-06-14T00:00:00	2024-11-08T02:00:00	8	Radiación solar	0
129737	7	Sololá	713	San Lucas Tolimán	10	San Lucas Tolimán	6	Junio	2023-06-14T00:00:00	2024-11-08T03:00:00	2	Temperatura media	17.8
129738	7	Sololá	713	San Lucas Tolimán	10	San Lucas Tolimán	6	Junio	2023-06-14T00:00:00	2024-11-08T03:00:00	4	Temperatura máxima	19.6
129739	7	Sololá	713	San Lucas Tolimán	10	San Lucas Tolimán	6	Junio	2023-06-14T00:00:00	2024-11-08T03:00:00	3	Temperatura mínima	17.8
129740	7	Sololá	713	San Lucas Tolimán	10	San Lucas Tolimán	6	Junio	2023-06-14T00:00:00	2024-11-08T03:00:00	5	Humedad	64
129741	7	Sololá	713	San Lucas Tolimán	10	San Lucas Tolimán	6	Junio	2023-06-14T00:00:00	2024-11-08T03:00:00	6	Velocidad del viento	1.6
129742	7	Sololá	713	San Lucas Tolimán	10	San Lucas Tolimán	6	Junio	2023-06-14T00:00:00	2024-11-08T03:00:00	7	Dirección del viento	1.61
129743	7	Sololá	713	San Lucas Tolimán	10	San Lucas Tolimán	6	Junio	2023-06-14T00:00:00	2024-11-08T03:00:00	1	Precipitación	0
129744	7	Sololá	713	San Lucas Tolimán	10	San Lucas Tolimán	6	Junio	2023-06-14T00:00:00	2024-11-08T03:00:00	8	Radiación solar	0
129745	7	Sololá	713	San Lucas Tolimán	10	San Lucas Tolimán	6	Junio	2023-06-14T00:00:00	2024-11-08T04:00:00	2	Temperatura media	17.9
129746	7	Sololá	713	San Lucas Tolimán	10	San Lucas Tolimán	6	Junio	2023-06-14T00:00:00	2024-11-08T04:00:00	4	Temperatura máxima	18.2
129747	7	Sololá	713	San Lucas Tolimán	10	San Lucas Tolimán	6	Junio	2023-06-14T00:00:00	2024-11-08T04:00:00	3	Temperatura mínima	17.2
129748	7	Sololá	713	San Lucas Tolimán	10	San Lucas Tolimán	6	Junio	2023-06-14T00:00:00	2024-11-08T04:00:00	5	Humedad	61
129749	7	Sololá	713	San Lucas Tolimán	10	San Lucas Tolimán	6	Junio	2023-06-14T00:00:00	2024-11-08T04:00:00	6	Velocidad del viento	3.2
129750	7	Sololá	713	San Lucas Tolimán	10	San Lucas Tolimán	6	Junio	2023-06-14T00:00:00	2024-11-08T04:00:00	7	Dirección del viento	3.22
129751	7	Sololá	713	San Lucas Tolimán	10	San Lucas Tolimán	6	Junio	2023-06-14T00:00:00	2024-11-08T04:00:00	1	Precipitación	0
129752	7	Sololá	713	San Lucas Tolimán	10	San Lucas Tolimán	6	Junio	2023-06-14T00:00:00	2024-11-08T04:00:00	8	Radiación solar	0
129753	7	Sololá	713	San Lucas Tolimán	10	San Lucas Tolimán	6	Junio	2023-06-14T00:00:00	2024-11-08T05:00:00	2	Temperatura media	17.3
129754	7	Sololá	713	San Lucas Tolimán	10	San Lucas Tolimán	6	Junio	2023-06-14T00:00:00	2024-11-08T05:00:00	4	Temperatura máxima	17.9
129755	7	Sololá	713	San Lucas Tolimán	10	San Lucas Tolimán	6	Junio	2023-06-14T00:00:00	2024-11-08T05:00:00	3	Temperatura mínima	17.3
129756	7	Sololá	713	San Lucas Tolimán	10	San Lucas Tolimán	6	Junio	2023-06-14T00:00:00	2024-11-08T05:00:00	5	Humedad	62
129757	7	Sololá	713	San Lucas Tolimán	10	San Lucas Tolimán	6	Junio	2023-06-14T00:00:00	2024-11-08T05:00:00	6	Velocidad del viento	1.6
129758	7	Sololá	713	San Lucas Tolimán	10	San Lucas Tolimán	6	Junio	2023-06-14T00:00:00	2024-11-08T05:00:00	7	Dirección del viento	1.61
129759	7	Sololá	713	San Lucas Tolimán	10	San Lucas Tolimán	6	Junio	2023-06-14T00:00:00	2024-11-08T05:00:00	1	Precipitación	0
129760	7	Sololá	713	San Lucas Tolimán	10	San Lucas Tolimán	6	Junio	2023-06-14T00:00:00	2024-11-08T05:00:00	8	Radiación solar	0
129761	7	Sololá	713	San Lucas Tolimán	10	San Lucas Tolimán	6	Junio	2023-06-14T00:00:00	2024-11-08T06:00:00	2	Temperatura media	16.7
129762	7	Sololá	713	San Lucas Tolimán	10	San Lucas Tolimán	6	Junio	2023-06-14T00:00:00	2024-11-08T06:00:00	4	Temperatura máxima	17.6
129763	7	Sololá	713	San Lucas Tolimán	10	San Lucas Tolimán	6	Junio	2023-06-14T00:00:00	2024-11-08T06:00:00	3	Temperatura mínima	16.7
129764	7	Sololá	713	San Lucas Tolimán	10	San Lucas Tolimán	6	Junio	2023-06-14T00:00:00	2024-11-08T06:00:00	5	Humedad	64
129765	7	Sololá	713	San Lucas Tolimán	10	San Lucas Tolimán	6	Junio	2023-06-14T00:00:00	2024-11-08T06:00:00	6	Velocidad del viento	1.6
129766	7	Sololá	713	San Lucas Tolimán	10	San Lucas Tolimán	6	Junio	2023-06-14T00:00:00	2024-11-08T06:00:00	7	Dirección del viento	1.61
129767	7	Sololá	713	San Lucas Tolimán	10	San Lucas Tolimán	6	Junio	2023-06-14T00:00:00	2024-11-08T06:00:00	1	Precipitación	0
129768	7	Sololá	713	San Lucas Tolimán	10	San Lucas Tolimán	6	Junio	2023-06-14T00:00:00	2024-11-08T06:00:00	8	Radiación solar	8
129769	7	Sololá	713	San Lucas Tolimán	10	San Lucas Tolimán	6	Junio	2023-06-14T00:00:00	2024-11-08T07:00:00	2	Temperatura media	19.8
129770	7	Sololá	713	San Lucas Tolimán	10	San Lucas Tolimán	6	Junio	2023-06-14T00:00:00	2024-11-08T07:00:00	4	Temperatura máxima	19.8
129771	7	Sololá	713	San Lucas Tolimán	10	San Lucas Tolimán	6	Junio	2023-06-14T00:00:00	2024-11-08T07:00:00	3	Temperatura mínima	16.7
129772	7	Sololá	713	San Lucas Tolimán	10	San Lucas Tolimán	6	Junio	2023-06-14T00:00:00	2024-11-08T07:00:00	5	Humedad	59
129773	7	Sololá	713	San Lucas Tolimán	10	San Lucas Tolimán	6	Junio	2023-06-14T00:00:00	2024-11-08T07:00:00	6	Velocidad del viento	0
129774	7	Sololá	713	San Lucas Tolimán	10	San Lucas Tolimán	6	Junio	2023-06-14T00:00:00	2024-11-08T07:00:00	7	Dirección del viento	0
129775	7	Sololá	713	San Lucas Tolimán	10	San Lucas Tolimán	6	Junio	2023-06-14T00:00:00	2024-11-08T07:00:00	1	Precipitación	0
129776	7	Sololá	713	San Lucas Tolimán	10	San Lucas Tolimán	6	Junio	2023-06-14T00:00:00	2024-11-08T07:00:00	8	Radiación solar	110
129777	7	Sololá	713	San Lucas Tolimán	10	San Lucas Tolimán	6	Junio	2023-06-14T00:00:00	2024-11-08T08:00:00	2	Temperatura media	23.1
129778	7	Sololá	713	San Lucas Tolimán	10	San Lucas Tolimán	6	Junio	2023-06-14T00:00:00	2024-11-08T08:00:00	4	Temperatura máxima	23.1
129779	7	Sololá	713	San Lucas Tolimán	10	San Lucas Tolimán	6	Junio	2023-06-14T00:00:00	2024-11-08T08:00:00	3	Temperatura mínima	19.8
129780	7	Sololá	713	San Lucas Tolimán	10	San Lucas Tolimán	6	Junio	2023-06-14T00:00:00	2024-11-08T08:00:00	5	Humedad	52
129781	7	Sololá	713	San Lucas Tolimán	10	San Lucas Tolimán	6	Junio	2023-06-14T00:00:00	2024-11-08T08:00:00	6	Velocidad del viento	1.6
129782	7	Sololá	713	San Lucas Tolimán	10	San Lucas Tolimán	6	Junio	2023-06-14T00:00:00	2024-11-08T08:00:00	7	Dirección del viento	1.61
129783	7	Sololá	713	San Lucas Tolimán	10	San Lucas Tolimán	6	Junio	2023-06-14T00:00:00	2024-11-08T08:00:00	1	Precipitación	0
129784	7	Sololá	713	San Lucas Tolimán	10	San Lucas Tolimán	6	Junio	2023-06-14T00:00:00	2024-11-08T08:00:00	8	Radiación solar	346
129785	7	Sololá	713	San Lucas Tolimán	10	San Lucas Tolimán	6	Junio	2023-06-14T00:00:00	2024-11-08T09:00:00	2	Temperatura media	24.3
129786	7	Sololá	713	San Lucas Tolimán	10	San Lucas Tolimán	6	Junio	2023-06-14T00:00:00	2024-11-08T09:00:00	4	Temperatura máxima	24.3
129787	7	Sololá	713	San Lucas Tolimán	10	San Lucas Tolimán	6	Junio	2023-06-14T00:00:00	2024-11-08T09:00:00	3	Temperatura mínima	23.1
129788	7	Sololá	713	San Lucas Tolimán	10	San Lucas Tolimán	6	Junio	2023-06-14T00:00:00	2024-11-08T09:00:00	5	Humedad	50
129789	7	Sololá	713	San Lucas Tolimán	10	San Lucas Tolimán	6	Junio	2023-06-14T00:00:00	2024-11-08T09:00:00	6	Velocidad del viento	3.2
129790	7	Sololá	713	San Lucas Tolimán	10	San Lucas Tolimán	6	Junio	2023-06-14T00:00:00	2024-11-08T09:00:00	7	Dirección del viento	3.22
129791	7	Sololá	713	San Lucas Tolimán	10	San Lucas Tolimán	6	Junio	2023-06-14T00:00:00	2024-11-08T09:00:00	1	Precipitación	0
129792	7	Sololá	713	San Lucas Tolimán	10	San Lucas Tolimán	6	Junio	2023-06-14T00:00:00	2024-11-08T09:00:00	8	Radiación solar	568
129793	7	Sololá	713	San Lucas Tolimán	10	San Lucas Tolimán	6	Junio	2023-06-14T00:00:00	2024-11-08T10:00:00	2	Temperatura media	23.3
129794	7	Sololá	713	San Lucas Tolimán	10	San Lucas Tolimán	6	Junio	2023-06-14T00:00:00	2024-11-08T10:00:00	4	Temperatura máxima	24.4
129795	7	Sololá	713	San Lucas Tolimán	10	San Lucas Tolimán	6	Junio	2023-06-14T00:00:00	2024-11-08T10:00:00	3	Temperatura mínima	23.1
129796	7	Sololá	713	San Lucas Tolimán	10	San Lucas Tolimán	6	Junio	2023-06-14T00:00:00	2024-11-08T10:00:00	5	Humedad	57
129797	7	Sololá	713	San Lucas Tolimán	10	San Lucas Tolimán	6	Junio	2023-06-14T00:00:00	2024-11-08T10:00:00	6	Velocidad del viento	9.7
129798	7	Sololá	713	San Lucas Tolimán	10	San Lucas Tolimán	6	Junio	2023-06-14T00:00:00	2024-11-08T10:00:00	7	Dirección del viento	9.66
129799	7	Sololá	713	San Lucas Tolimán	10	San Lucas Tolimán	6	Junio	2023-06-14T00:00:00	2024-11-08T10:00:00	1	Precipitación	0
129800	7	Sololá	713	San Lucas Tolimán	10	San Lucas Tolimán	6	Junio	2023-06-14T00:00:00	2024-11-08T10:00:00	8	Radiación solar	817
129801	7	Sololá	713	San Lucas Tolimán	10	San Lucas Tolimán	6	Junio	2023-06-14T00:00:00	2024-11-08T11:00:00	2	Temperatura media	23.6
129802	7	Sololá	713	San Lucas Tolimán	10	San Lucas Tolimán	6	Junio	2023-06-14T00:00:00	2024-11-08T11:00:00	4	Temperatura máxima	23.8
129803	7	Sololá	713	San Lucas Tolimán	10	San Lucas Tolimán	6	Junio	2023-06-14T00:00:00	2024-11-08T11:00:00	3	Temperatura mínima	23.1
129804	7	Sololá	713	San Lucas Tolimán	10	San Lucas Tolimán	6	Junio	2023-06-14T00:00:00	2024-11-08T11:00:00	5	Humedad	55
129805	7	Sololá	713	San Lucas Tolimán	10	San Lucas Tolimán	6	Junio	2023-06-14T00:00:00	2024-11-08T11:00:00	6	Velocidad del viento	12.9
129806	7	Sololá	713	San Lucas Tolimán	10	San Lucas Tolimán	6	Junio	2023-06-14T00:00:00	2024-11-08T11:00:00	7	Dirección del viento	12.87
129807	7	Sololá	713	San Lucas Tolimán	10	San Lucas Tolimán	6	Junio	2023-06-14T00:00:00	2024-11-08T11:00:00	1	Precipitación	0
129808	7	Sololá	713	San Lucas Tolimán	10	San Lucas Tolimán	6	Junio	2023-06-14T00:00:00	2024-11-08T11:00:00	8	Radiación solar	1004
129809	7	Sololá	713	San Lucas Tolimán	10	San Lucas Tolimán	6	Junio	2023-06-14T00:00:00	2024-11-08T12:00:00	2	Temperatura media	23.8
129810	7	Sololá	713	San Lucas Tolimán	10	San Lucas Tolimán	6	Junio	2023-06-14T00:00:00	2024-11-08T12:00:00	4	Temperatura máxima	24.1
129811	7	Sololá	713	San Lucas Tolimán	10	San Lucas Tolimán	6	Junio	2023-06-14T00:00:00	2024-11-08T12:00:00	3	Temperatura mínima	23.1
129812	7	Sololá	713	San Lucas Tolimán	10	San Lucas Tolimán	6	Junio	2023-06-14T00:00:00	2024-11-08T12:00:00	5	Humedad	57
129813	7	Sololá	713	San Lucas Tolimán	10	San Lucas Tolimán	6	Junio	2023-06-14T00:00:00	2024-11-08T12:00:00	6	Velocidad del viento	11.3
129814	7	Sololá	713	San Lucas Tolimán	10	San Lucas Tolimán	6	Junio	2023-06-14T00:00:00	2024-11-08T12:00:00	7	Dirección del viento	11.27
129815	7	Sololá	713	San Lucas Tolimán	10	San Lucas Tolimán	6	Junio	2023-06-14T00:00:00	2024-11-08T12:00:00	1	Precipitación	0
129816	7	Sololá	713	San Lucas Tolimán	10	San Lucas Tolimán	6	Junio	2023-06-14T00:00:00	2024-11-08T12:00:00	8	Radiación solar	1061
129817	7	Sololá	713	San Lucas Tolimán	10	San Lucas Tolimán	6	Junio	2023-06-14T00:00:00	2024-11-08T13:00:00	2	Temperatura media	24.2
129818	7	Sololá	713	San Lucas Tolimán	10	San Lucas Tolimán	6	Junio	2023-06-14T00:00:00	2024-11-08T13:00:00	4	Temperatura máxima	24.4
129819	7	Sololá	713	San Lucas Tolimán	10	San Lucas Tolimán	6	Junio	2023-06-14T00:00:00	2024-11-08T13:00:00	3	Temperatura mínima	23.3
129820	7	Sololá	713	San Lucas Tolimán	10	San Lucas Tolimán	6	Junio	2023-06-14T00:00:00	2024-11-08T13:00:00	5	Humedad	57
129821	7	Sololá	713	San Lucas Tolimán	10	San Lucas Tolimán	6	Junio	2023-06-14T00:00:00	2024-11-08T13:00:00	6	Velocidad del viento	11.3
129822	7	Sololá	713	San Lucas Tolimán	10	San Lucas Tolimán	6	Junio	2023-06-14T00:00:00	2024-11-08T13:00:00	7	Dirección del viento	11.27
129823	7	Sololá	713	San Lucas Tolimán	10	San Lucas Tolimán	6	Junio	2023-06-14T00:00:00	2024-11-08T13:00:00	1	Precipitación	0
129824	7	Sololá	713	San Lucas Tolimán	10	San Lucas Tolimán	6	Junio	2023-06-14T00:00:00	2024-11-08T13:00:00	8	Radiación solar	1062
129825	7	Sololá	713	San Lucas Tolimán	10	San Lucas Tolimán	6	Junio	2023-06-14T00:00:00	2024-11-08T14:00:00	2	Temperatura media	23.3
129826	7	Sololá	713	San Lucas Tolimán	10	San Lucas Tolimán	6	Junio	2023-06-14T00:00:00	2024-11-08T14:00:00	4	Temperatura máxima	24.4
129827	7	Sololá	713	San Lucas Tolimán	10	San Lucas Tolimán	6	Junio	2023-06-14T00:00:00	2024-11-08T14:00:00	3	Temperatura mínima	22.8
129828	7	Sololá	713	San Lucas Tolimán	10	San Lucas Tolimán	6	Junio	2023-06-14T00:00:00	2024-11-08T14:00:00	5	Humedad	61
129829	7	Sololá	713	San Lucas Tolimán	10	San Lucas Tolimán	6	Junio	2023-06-14T00:00:00	2024-11-08T14:00:00	6	Velocidad del viento	11.3
129830	7	Sololá	713	San Lucas Tolimán	10	San Lucas Tolimán	6	Junio	2023-06-14T00:00:00	2024-11-08T14:00:00	7	Dirección del viento	11.27
129831	7	Sololá	713	San Lucas Tolimán	10	San Lucas Tolimán	6	Junio	2023-06-14T00:00:00	2024-11-08T14:00:00	1	Precipitación	0
129832	7	Sololá	713	San Lucas Tolimán	10	San Lucas Tolimán	6	Junio	2023-06-14T00:00:00	2024-11-08T14:00:00	8	Radiación solar	977
129833	7	Sololá	713	San Lucas Tolimán	10	San Lucas Tolimán	6	Junio	2023-06-14T00:00:00	2024-11-08T15:00:00	2	Temperatura media	22.6
129834	7	Sololá	713	San Lucas Tolimán	10	San Lucas Tolimán	6	Junio	2023-06-14T00:00:00	2024-11-08T15:00:00	4	Temperatura máxima	23.5
129835	7	Sololá	713	San Lucas Tolimán	10	San Lucas Tolimán	6	Junio	2023-06-14T00:00:00	2024-11-08T15:00:00	3	Temperatura mínima	22.1
129836	7	Sololá	713	San Lucas Tolimán	10	San Lucas Tolimán	6	Junio	2023-06-14T00:00:00	2024-11-08T15:00:00	5	Humedad	61
129837	7	Sololá	713	San Lucas Tolimán	10	San Lucas Tolimán	6	Junio	2023-06-14T00:00:00	2024-11-08T15:00:00	6	Velocidad del viento	11.3
129838	7	Sololá	713	San Lucas Tolimán	10	San Lucas Tolimán	6	Junio	2023-06-14T00:00:00	2024-11-08T15:00:00	7	Dirección del viento	11.27
129839	7	Sololá	713	San Lucas Tolimán	10	San Lucas Tolimán	6	Junio	2023-06-14T00:00:00	2024-11-08T15:00:00	1	Precipitación	0
129840	7	Sololá	713	San Lucas Tolimán	10	San Lucas Tolimán	6	Junio	2023-06-14T00:00:00	2024-11-08T15:00:00	8	Radiación solar	468
129841	7	Sololá	713	San Lucas Tolimán	10	San Lucas Tolimán	6	Junio	2023-06-14T00:00:00	2024-11-08T16:00:00	2	Temperatura media	21.2
129842	7	Sololá	713	San Lucas Tolimán	10	San Lucas Tolimán	6	Junio	2023-06-14T00:00:00	2024-11-08T16:00:00	4	Temperatura máxima	22.6
129843	7	Sololá	713	San Lucas Tolimán	10	San Lucas Tolimán	6	Junio	2023-06-14T00:00:00	2024-11-08T16:00:00	3	Temperatura mínima	20.8
129844	7	Sololá	713	San Lucas Tolimán	10	San Lucas Tolimán	6	Junio	2023-06-14T00:00:00	2024-11-08T16:00:00	5	Humedad	62
129845	7	Sololá	713	San Lucas Tolimán	10	San Lucas Tolimán	6	Junio	2023-06-14T00:00:00	2024-11-08T16:00:00	6	Velocidad del viento	11.3
129846	7	Sololá	713	San Lucas Tolimán	10	San Lucas Tolimán	6	Junio	2023-06-14T00:00:00	2024-11-08T16:00:00	7	Dirección del viento	11.27
129847	7	Sololá	713	San Lucas Tolimán	10	San Lucas Tolimán	6	Junio	2023-06-14T00:00:00	2024-11-08T16:00:00	1	Precipitación	0
129848	7	Sololá	713	San Lucas Tolimán	10	San Lucas Tolimán	6	Junio	2023-06-14T00:00:00	2024-11-08T16:00:00	8	Radiación solar	191
129849	7	Sololá	713	San Lucas Tolimán	10	San Lucas Tolimán	6	Junio	2023-06-14T00:00:00	2024-11-08T17:00:00	2	Temperatura media	19.7
129850	7	Sololá	713	San Lucas Tolimán	10	San Lucas Tolimán	6	Junio	2023-06-14T00:00:00	2024-11-08T17:00:00	4	Temperatura máxima	21.2
129851	7	Sololá	713	San Lucas Tolimán	10	San Lucas Tolimán	6	Junio	2023-06-14T00:00:00	2024-11-08T17:00:00	3	Temperatura mínima	19.6
129852	7	Sololá	713	San Lucas Tolimán	10	San Lucas Tolimán	6	Junio	2023-06-14T00:00:00	2024-11-08T17:00:00	5	Humedad	64
129853	7	Sololá	713	San Lucas Tolimán	10	San Lucas Tolimán	6	Junio	2023-06-14T00:00:00	2024-11-08T17:00:00	6	Velocidad del viento	9.7
129854	7	Sololá	713	San Lucas Tolimán	10	San Lucas Tolimán	6	Junio	2023-06-14T00:00:00	2024-11-08T17:00:00	7	Dirección del viento	9.66
129855	7	Sololá	713	San Lucas Tolimán	10	San Lucas Tolimán	6	Junio	2023-06-14T00:00:00	2024-11-08T17:00:00	1	Precipitación	0
129856	7	Sololá	713	San Lucas Tolimán	10	San Lucas Tolimán	6	Junio	2023-06-14T00:00:00	2024-11-08T17:00:00	8	Radiación solar	119
129857	7	Sololá	713	San Lucas Tolimán	10	San Lucas Tolimán	6	Junio	2023-06-14T00:00:00	2024-11-08T18:00:00	2	Temperatura media	19.3
129858	7	Sololá	713	San Lucas Tolimán	10	San Lucas Tolimán	6	Junio	2023-06-14T00:00:00	2024-11-08T18:00:00	4	Temperatura máxima	19.7
129859	7	Sololá	713	San Lucas Tolimán	10	San Lucas Tolimán	6	Junio	2023-06-14T00:00:00	2024-11-08T18:00:00	3	Temperatura mínima	19.3
129860	7	Sololá	713	San Lucas Tolimán	10	San Lucas Tolimán	6	Junio	2023-06-14T00:00:00	2024-11-08T18:00:00	5	Humedad	65
129861	7	Sololá	713	San Lucas Tolimán	10	San Lucas Tolimán	6	Junio	2023-06-14T00:00:00	2024-11-08T18:00:00	6	Velocidad del viento	6.4
129862	7	Sololá	713	San Lucas Tolimán	10	San Lucas Tolimán	6	Junio	2023-06-14T00:00:00	2024-11-08T18:00:00	7	Dirección del viento	6.44
129863	7	Sololá	713	San Lucas Tolimán	10	San Lucas Tolimán	6	Junio	2023-06-14T00:00:00	2024-11-08T18:00:00	1	Precipitación	0
129864	7	Sololá	713	San Lucas Tolimán	10	San Lucas Tolimán	6	Junio	2023-06-14T00:00:00	2024-11-08T18:00:00	8	Radiación solar	43
129865	7	Sololá	713	San Lucas Tolimán	10	San Lucas Tolimán	6	Junio	2023-06-14T00:00:00	2024-11-08T19:00:00	2	Temperatura media	19.3
129866	7	Sololá	713	San Lucas Tolimán	10	San Lucas Tolimán	6	Junio	2023-06-14T00:00:00	2024-11-08T19:00:00	4	Temperatura máxima	19.5
129867	7	Sololá	713	San Lucas Tolimán	10	San Lucas Tolimán	6	Junio	2023-06-14T00:00:00	2024-11-08T19:00:00	3	Temperatura mínima	19.3
129868	7	Sololá	713	San Lucas Tolimán	10	San Lucas Tolimán	6	Junio	2023-06-14T00:00:00	2024-11-08T19:00:00	5	Humedad	63
129869	7	Sololá	713	San Lucas Tolimán	10	San Lucas Tolimán	6	Junio	2023-06-14T00:00:00	2024-11-08T19:00:00	6	Velocidad del viento	3.2
129870	7	Sololá	713	San Lucas Tolimán	10	San Lucas Tolimán	6	Junio	2023-06-14T00:00:00	2024-11-08T19:00:00	7	Dirección del viento	3.22
129871	7	Sololá	713	San Lucas Tolimán	10	San Lucas Tolimán	6	Junio	2023-06-14T00:00:00	2024-11-08T19:00:00	1	Precipitación	0
129872	7	Sololá	713	San Lucas Tolimán	10	San Lucas Tolimán	6	Junio	2023-06-14T00:00:00	2024-11-08T19:00:00	8	Radiación solar	0
129873	7	Sololá	713	San Lucas Tolimán	10	San Lucas Tolimán	6	Junio	2023-06-14T00:00:00	2024-11-08T20:00:00	2	Temperatura media	18.8
129874	7	Sololá	713	San Lucas Tolimán	10	San Lucas Tolimán	6	Junio	2023-06-14T00:00:00	2024-11-08T20:00:00	4	Temperatura máxima	19.4
129875	7	Sololá	713	San Lucas Tolimán	10	San Lucas Tolimán	6	Junio	2023-06-14T00:00:00	2024-11-08T20:00:00	3	Temperatura mínima	18.8
129876	7	Sololá	713	San Lucas Tolimán	10	San Lucas Tolimán	6	Junio	2023-06-14T00:00:00	2024-11-08T20:00:00	5	Humedad	63
129877	7	Sololá	713	San Lucas Tolimán	10	San Lucas Tolimán	6	Junio	2023-06-14T00:00:00	2024-11-08T20:00:00	6	Velocidad del viento	1.6
129878	7	Sololá	713	San Lucas Tolimán	10	San Lucas Tolimán	6	Junio	2023-06-14T00:00:00	2024-11-08T20:00:00	7	Dirección del viento	1.61
129879	7	Sololá	713	San Lucas Tolimán	10	San Lucas Tolimán	6	Junio	2023-06-14T00:00:00	2024-11-08T20:00:00	1	Precipitación	0
129880	7	Sololá	713	San Lucas Tolimán	10	San Lucas Tolimán	6	Junio	2023-06-14T00:00:00	2024-11-08T20:00:00	8	Radiación solar	0
129881	7	Sololá	713	San Lucas Tolimán	10	San Lucas Tolimán	6	Junio	2023-06-14T00:00:00	2024-11-08T21:00:00	2	Temperatura media	18.7
129882	7	Sololá	713	San Lucas Tolimán	10	San Lucas Tolimán	6	Junio	2023-06-14T00:00:00	2024-11-08T21:00:00	4	Temperatura máxima	18.9
129883	7	Sololá	713	San Lucas Tolimán	10	San Lucas Tolimán	6	Junio	2023-06-14T00:00:00	2024-11-08T21:00:00	3	Temperatura mínima	18.6
129884	7	Sololá	713	San Lucas Tolimán	10	San Lucas Tolimán	6	Junio	2023-06-14T00:00:00	2024-11-08T21:00:00	5	Humedad	63
129885	7	Sololá	713	San Lucas Tolimán	10	San Lucas Tolimán	6	Junio	2023-06-14T00:00:00	2024-11-08T21:00:00	6	Velocidad del viento	1.6
129886	7	Sololá	713	San Lucas Tolimán	10	San Lucas Tolimán	6	Junio	2023-06-14T00:00:00	2024-11-08T21:00:00	7	Dirección del viento	1.61
129887	7	Sololá	713	San Lucas Tolimán	10	San Lucas Tolimán	6	Junio	2023-06-14T00:00:00	2024-11-08T21:00:00	1	Precipitación	0
129888	7	Sololá	713	San Lucas Tolimán	10	San Lucas Tolimán	6	Junio	2023-06-14T00:00:00	2024-11-08T21:00:00	8	Radiación solar	0
129889	7	Sololá	713	San Lucas Tolimán	10	San Lucas Tolimán	6	Junio	2023-06-14T00:00:00	2024-11-08T22:00:00	2	Temperatura media	18.2
129890	7	Sololá	713	San Lucas Tolimán	10	San Lucas Tolimán	6	Junio	2023-06-14T00:00:00	2024-11-08T22:00:00	4	Temperatura máxima	18.8
129891	7	Sololá	713	San Lucas Tolimán	10	San Lucas Tolimán	6	Junio	2023-06-14T00:00:00	2024-11-08T22:00:00	3	Temperatura mínima	18.2
129892	7	Sololá	713	San Lucas Tolimán	10	San Lucas Tolimán	6	Junio	2023-06-14T00:00:00	2024-11-08T22:00:00	5	Humedad	65
129893	7	Sololá	713	San Lucas Tolimán	10	San Lucas Tolimán	6	Junio	2023-06-14T00:00:00	2024-11-08T22:00:00	6	Velocidad del viento	3.2
129894	7	Sololá	713	San Lucas Tolimán	10	San Lucas Tolimán	6	Junio	2023-06-14T00:00:00	2024-11-08T22:00:00	7	Dirección del viento	3.22
129895	7	Sololá	713	San Lucas Tolimán	10	San Lucas Tolimán	6	Junio	2023-06-14T00:00:00	2024-11-08T22:00:00	1	Precipitación	0
129896	7	Sololá	713	San Lucas Tolimán	10	San Lucas Tolimán	6	Junio	2023-06-14T00:00:00	2024-11-08T22:00:00	8	Radiación solar	0
129897	7	Sololá	713	San Lucas Tolimán	10	San Lucas Tolimán	6	Junio	2023-06-14T00:00:00	2024-11-08T23:00:00	2	Temperatura media	18.4
129898	7	Sololá	713	San Lucas Tolimán	10	San Lucas Tolimán	6	Junio	2023-06-14T00:00:00	2024-11-08T23:00:00	4	Temperatura máxima	18.5
129899	7	Sololá	713	San Lucas Tolimán	10	San Lucas Tolimán	6	Junio	2023-06-14T00:00:00	2024-11-08T23:00:00	3	Temperatura mínima	18.2
129900	7	Sololá	713	San Lucas Tolimán	10	San Lucas Tolimán	6	Junio	2023-06-14T00:00:00	2024-11-08T23:00:00	5	Humedad	64
129901	7	Sololá	713	San Lucas Tolimán	10	San Lucas Tolimán	6	Junio	2023-06-14T00:00:00	2024-11-08T23:00:00	6	Velocidad del viento	1.6
129902	7	Sololá	713	San Lucas Tolimán	10	San Lucas Tolimán	6	Junio	2023-06-14T00:00:00	2024-11-08T23:00:00	7	Dirección del viento	1.61
129903	7	Sololá	713	San Lucas Tolimán	10	San Lucas Tolimán	6	Junio	2023-06-14T00:00:00	2024-11-08T23:00:00	1	Precipitación	0
129904	7	Sololá	713	San Lucas Tolimán	10	San Lucas Tolimán	6	Junio	2023-06-14T00:00:00	2024-11-08T23:00:00	8	Radiación solar	0
129905	7	Sololá	713	San Lucas Tolimán	10	San Lucas Tolimán	6	Junio	2023-06-15T00:00:00	2024-11-08T00:00:00	2	Temperatura media	19.1
129906	7	Sololá	713	San Lucas Tolimán	10	San Lucas Tolimán	6	Junio	2023-06-15T00:00:00	2024-11-08T00:00:00	4	Temperatura máxima	19.4
129907	7	Sololá	713	San Lucas Tolimán	10	San Lucas Tolimán	6	Junio	2023-06-15T00:00:00	2024-11-08T00:00:00	3	Temperatura mínima	18.4
129908	7	Sololá	713	San Lucas Tolimán	10	San Lucas Tolimán	6	Junio	2023-06-15T00:00:00	2024-11-08T00:00:00	5	Humedad	62
129909	7	Sololá	713	San Lucas Tolimán	10	San Lucas Tolimán	6	Junio	2023-06-15T00:00:00	2024-11-08T00:00:00	6	Velocidad del viento	0
129910	7	Sololá	713	San Lucas Tolimán	10	San Lucas Tolimán	6	Junio	2023-06-15T00:00:00	2024-11-08T00:00:00	7	Dirección del viento	0
129911	7	Sololá	713	San Lucas Tolimán	10	San Lucas Tolimán	6	Junio	2023-06-15T00:00:00	2024-11-08T00:00:00	1	Precipitación	0
129912	7	Sololá	713	San Lucas Tolimán	10	San Lucas Tolimán	6	Junio	2023-06-15T00:00:00	2024-11-08T00:00:00	8	Radiación solar	0
129913	7	Sololá	713	San Lucas Tolimán	10	San Lucas Tolimán	6	Junio	2023-06-15T00:00:00	2024-11-08T01:00:00	2	Temperatura media	18.6
129914	7	Sololá	713	San Lucas Tolimán	10	San Lucas Tolimán	6	Junio	2023-06-15T00:00:00	2024-11-08T01:00:00	4	Temperatura máxima	19.1
129915	7	Sololá	713	San Lucas Tolimán	10	San Lucas Tolimán	6	Junio	2023-06-15T00:00:00	2024-11-08T01:00:00	3	Temperatura mínima	18.6
129916	7	Sololá	713	San Lucas Tolimán	10	San Lucas Tolimán	6	Junio	2023-06-15T00:00:00	2024-11-08T01:00:00	5	Humedad	62
129917	7	Sololá	713	San Lucas Tolimán	10	San Lucas Tolimán	6	Junio	2023-06-15T00:00:00	2024-11-08T01:00:00	6	Velocidad del viento	1.6
129918	7	Sololá	713	San Lucas Tolimán	10	San Lucas Tolimán	6	Junio	2023-06-15T00:00:00	2024-11-08T01:00:00	7	Dirección del viento	1.61
129919	7	Sololá	713	San Lucas Tolimán	10	San Lucas Tolimán	6	Junio	2023-06-15T00:00:00	2024-11-08T01:00:00	1	Precipitación	0
129920	7	Sololá	713	San Lucas Tolimán	10	San Lucas Tolimán	6	Junio	2023-06-15T00:00:00	2024-11-08T01:00:00	8	Radiación solar	0
129921	7	Sololá	713	San Lucas Tolimán	10	San Lucas Tolimán	6	Junio	2023-06-15T00:00:00	2024-11-08T02:00:00	2	Temperatura media	18.4
129922	7	Sololá	713	San Lucas Tolimán	10	San Lucas Tolimán	6	Junio	2023-06-15T00:00:00	2024-11-08T02:00:00	4	Temperatura máxima	18.6
129923	7	Sololá	713	San Lucas Tolimán	10	San Lucas Tolimán	6	Junio	2023-06-15T00:00:00	2024-11-08T02:00:00	3	Temperatura mínima	18.3
129924	7	Sololá	713	San Lucas Tolimán	10	San Lucas Tolimán	6	Junio	2023-06-15T00:00:00	2024-11-08T02:00:00	5	Humedad	63
129925	7	Sololá	713	San Lucas Tolimán	10	San Lucas Tolimán	6	Junio	2023-06-15T00:00:00	2024-11-08T02:00:00	6	Velocidad del viento	3.2
129926	7	Sololá	713	San Lucas Tolimán	10	San Lucas Tolimán	6	Junio	2023-06-15T00:00:00	2024-11-08T02:00:00	7	Dirección del viento	3.22
129927	7	Sololá	713	San Lucas Tolimán	10	San Lucas Tolimán	6	Junio	2023-06-15T00:00:00	2024-11-08T02:00:00	1	Precipitación	0
129928	7	Sololá	713	San Lucas Tolimán	10	San Lucas Tolimán	6	Junio	2023-06-15T00:00:00	2024-11-08T02:00:00	8	Radiación solar	0
129929	7	Sololá	713	San Lucas Tolimán	10	San Lucas Tolimán	6	Junio	2023-06-15T00:00:00	2024-11-08T03:00:00	2	Temperatura media	19.2
129930	7	Sololá	713	San Lucas Tolimán	10	San Lucas Tolimán	6	Junio	2023-06-15T00:00:00	2024-11-08T03:00:00	4	Temperatura máxima	19.2
129931	7	Sololá	713	San Lucas Tolimán	10	San Lucas Tolimán	6	Junio	2023-06-15T00:00:00	2024-11-08T03:00:00	3	Temperatura mínima	18.4
129932	7	Sololá	713	San Lucas Tolimán	10	San Lucas Tolimán	6	Junio	2023-06-15T00:00:00	2024-11-08T03:00:00	5	Humedad	61
129933	7	Sololá	713	San Lucas Tolimán	10	San Lucas Tolimán	6	Junio	2023-06-15T00:00:00	2024-11-08T03:00:00	6	Velocidad del viento	4.8
129934	7	Sololá	713	San Lucas Tolimán	10	San Lucas Tolimán	6	Junio	2023-06-15T00:00:00	2024-11-08T03:00:00	7	Dirección del viento	4.83
129935	7	Sololá	713	San Lucas Tolimán	10	San Lucas Tolimán	6	Junio	2023-06-15T00:00:00	2024-11-08T03:00:00	1	Precipitación	0
129936	7	Sololá	713	San Lucas Tolimán	10	San Lucas Tolimán	6	Junio	2023-06-15T00:00:00	2024-11-08T03:00:00	8	Radiación solar	0
129937	7	Sololá	713	San Lucas Tolimán	10	San Lucas Tolimán	6	Junio	2023-06-15T00:00:00	2024-11-08T04:00:00	2	Temperatura media	18.1
129938	7	Sololá	713	San Lucas Tolimán	10	San Lucas Tolimán	6	Junio	2023-06-15T00:00:00	2024-11-08T04:00:00	4	Temperatura máxima	19.3
129939	7	Sololá	713	San Lucas Tolimán	10	San Lucas Tolimán	6	Junio	2023-06-15T00:00:00	2024-11-08T04:00:00	3	Temperatura mínima	18.1
129940	7	Sololá	713	San Lucas Tolimán	10	San Lucas Tolimán	6	Junio	2023-06-15T00:00:00	2024-11-08T04:00:00	5	Humedad	62
129941	7	Sololá	713	San Lucas Tolimán	10	San Lucas Tolimán	6	Junio	2023-06-15T00:00:00	2024-11-08T04:00:00	6	Velocidad del viento	4.8
129942	7	Sololá	713	San Lucas Tolimán	10	San Lucas Tolimán	6	Junio	2023-06-15T00:00:00	2024-11-08T04:00:00	7	Dirección del viento	4.83
129943	7	Sololá	713	San Lucas Tolimán	10	San Lucas Tolimán	6	Junio	2023-06-15T00:00:00	2024-11-08T04:00:00	1	Precipitación	0
129944	7	Sololá	713	San Lucas Tolimán	10	San Lucas Tolimán	6	Junio	2023-06-15T00:00:00	2024-11-08T04:00:00	8	Radiación solar	0
129945	7	Sololá	713	San Lucas Tolimán	10	San Lucas Tolimán	6	Junio	2023-06-15T00:00:00	2024-11-08T05:00:00	2	Temperatura media	17.5
129946	7	Sololá	713	San Lucas Tolimán	10	San Lucas Tolimán	6	Junio	2023-06-15T00:00:00	2024-11-08T05:00:00	4	Temperatura máxima	18.1
129947	7	Sololá	713	San Lucas Tolimán	10	San Lucas Tolimán	6	Junio	2023-06-15T00:00:00	2024-11-08T05:00:00	3	Temperatura mínima	17.5
129948	7	Sololá	713	San Lucas Tolimán	10	San Lucas Tolimán	6	Junio	2023-06-15T00:00:00	2024-11-08T05:00:00	5	Humedad	62
129949	7	Sololá	713	San Lucas Tolimán	10	San Lucas Tolimán	6	Junio	2023-06-15T00:00:00	2024-11-08T05:00:00	6	Velocidad del viento	1.6
129950	7	Sololá	713	San Lucas Tolimán	10	San Lucas Tolimán	6	Junio	2023-06-15T00:00:00	2024-11-08T05:00:00	7	Dirección del viento	1.61
129951	7	Sololá	713	San Lucas Tolimán	10	San Lucas Tolimán	6	Junio	2023-06-15T00:00:00	2024-11-08T05:00:00	1	Precipitación	0
129952	7	Sololá	713	San Lucas Tolimán	10	San Lucas Tolimán	6	Junio	2023-06-15T00:00:00	2024-11-08T05:00:00	8	Radiación solar	0
129953	7	Sololá	713	San Lucas Tolimán	10	San Lucas Tolimán	6	Junio	2023-06-15T00:00:00	2024-11-08T06:00:00	2	Temperatura media	16.8
129954	7	Sololá	713	San Lucas Tolimán	10	San Lucas Tolimán	6	Junio	2023-06-15T00:00:00	2024-11-08T06:00:00	4	Temperatura máxima	17.6
129955	7	Sololá	713	San Lucas Tolimán	10	San Lucas Tolimán	6	Junio	2023-06-15T00:00:00	2024-11-08T06:00:00	3	Temperatura mínima	16.8
129956	7	Sololá	713	San Lucas Tolimán	10	San Lucas Tolimán	6	Junio	2023-06-15T00:00:00	2024-11-08T06:00:00	5	Humedad	64
129957	7	Sololá	713	San Lucas Tolimán	10	San Lucas Tolimán	6	Junio	2023-06-15T00:00:00	2024-11-08T06:00:00	6	Velocidad del viento	1.6
129958	7	Sololá	713	San Lucas Tolimán	10	San Lucas Tolimán	6	Junio	2023-06-15T00:00:00	2024-11-08T06:00:00	7	Dirección del viento	1.61
129959	7	Sololá	713	San Lucas Tolimán	10	San Lucas Tolimán	6	Junio	2023-06-15T00:00:00	2024-11-08T06:00:00	1	Precipitación	0
129960	7	Sololá	713	San Lucas Tolimán	10	San Lucas Tolimán	6	Junio	2023-06-15T00:00:00	2024-11-08T06:00:00	8	Radiación solar	7
129961	7	Sololá	713	San Lucas Tolimán	10	San Lucas Tolimán	6	Junio	2023-06-15T00:00:00	2024-11-08T07:00:00	2	Temperatura media	18.2
129962	7	Sololá	713	San Lucas Tolimán	10	San Lucas Tolimán	6	Junio	2023-06-15T00:00:00	2024-11-08T07:00:00	4	Temperatura máxima	18.2
129963	7	Sololá	713	San Lucas Tolimán	10	San Lucas Tolimán	6	Junio	2023-06-15T00:00:00	2024-11-08T07:00:00	3	Temperatura mínima	16.8
129964	7	Sololá	713	San Lucas Tolimán	10	San Lucas Tolimán	6	Junio	2023-06-15T00:00:00	2024-11-08T07:00:00	5	Humedad	62
129965	7	Sololá	713	San Lucas Tolimán	10	San Lucas Tolimán	6	Junio	2023-06-15T00:00:00	2024-11-08T07:00:00	6	Velocidad del viento	1.6
129966	7	Sololá	713	San Lucas Tolimán	10	San Lucas Tolimán	6	Junio	2023-06-15T00:00:00	2024-11-08T07:00:00	7	Dirección del viento	1.61
129967	7	Sololá	713	San Lucas Tolimán	10	San Lucas Tolimán	6	Junio	2023-06-15T00:00:00	2024-11-08T07:00:00	1	Precipitación	0
129968	7	Sololá	713	San Lucas Tolimán	10	San Lucas Tolimán	6	Junio	2023-06-15T00:00:00	2024-11-08T07:00:00	8	Radiación solar	78
129969	7	Sololá	713	San Lucas Tolimán	10	San Lucas Tolimán	6	Junio	2023-06-15T00:00:00	2024-11-08T08:00:00	2	Temperatura media	21.2
129970	7	Sololá	713	San Lucas Tolimán	10	San Lucas Tolimán	6	Junio	2023-06-15T00:00:00	2024-11-08T08:00:00	4	Temperatura máxima	21.2
129971	7	Sololá	713	San Lucas Tolimán	10	San Lucas Tolimán	6	Junio	2023-06-15T00:00:00	2024-11-08T08:00:00	3	Temperatura mínima	18.2
129972	7	Sololá	713	San Lucas Tolimán	10	San Lucas Tolimán	6	Junio	2023-06-15T00:00:00	2024-11-08T08:00:00	5	Humedad	58
129973	7	Sololá	713	San Lucas Tolimán	10	San Lucas Tolimán	6	Junio	2023-06-15T00:00:00	2024-11-08T08:00:00	6	Velocidad del viento	1.6
129974	7	Sololá	713	San Lucas Tolimán	10	San Lucas Tolimán	6	Junio	2023-06-15T00:00:00	2024-11-08T08:00:00	7	Dirección del viento	1.61
129975	7	Sololá	713	San Lucas Tolimán	10	San Lucas Tolimán	6	Junio	2023-06-15T00:00:00	2024-11-08T08:00:00	1	Precipitación	0
129976	7	Sololá	713	San Lucas Tolimán	10	San Lucas Tolimán	6	Junio	2023-06-15T00:00:00	2024-11-08T08:00:00	8	Radiación solar	280
129977	7	Sololá	713	San Lucas Tolimán	10	San Lucas Tolimán	6	Junio	2023-06-15T00:00:00	2024-11-08T09:00:00	2	Temperatura media	22.2
129978	7	Sololá	713	San Lucas Tolimán	10	San Lucas Tolimán	6	Junio	2023-06-15T00:00:00	2024-11-08T09:00:00	4	Temperatura máxima	22.4
129979	7	Sololá	713	San Lucas Tolimán	10	San Lucas Tolimán	6	Junio	2023-06-15T00:00:00	2024-11-08T09:00:00	3	Temperatura mínima	21.2
129980	7	Sololá	713	San Lucas Tolimán	10	San Lucas Tolimán	6	Junio	2023-06-15T00:00:00	2024-11-08T09:00:00	5	Humedad	58
129981	7	Sololá	713	San Lucas Tolimán	10	San Lucas Tolimán	6	Junio	2023-06-15T00:00:00	2024-11-08T09:00:00	6	Velocidad del viento	4.8
129982	7	Sololá	713	San Lucas Tolimán	10	San Lucas Tolimán	6	Junio	2023-06-15T00:00:00	2024-11-08T09:00:00	7	Dirección del viento	4.83
129983	7	Sololá	713	San Lucas Tolimán	10	San Lucas Tolimán	6	Junio	2023-06-15T00:00:00	2024-11-08T09:00:00	1	Precipitación	0
129984	7	Sololá	713	San Lucas Tolimán	10	San Lucas Tolimán	6	Junio	2023-06-15T00:00:00	2024-11-08T09:00:00	8	Radiación solar	610
129985	7	Sololá	713	San Lucas Tolimán	10	San Lucas Tolimán	6	Junio	2023-06-15T00:00:00	2024-11-08T10:00:00	2	Temperatura media	23.1
129986	7	Sololá	713	San Lucas Tolimán	10	San Lucas Tolimán	6	Junio	2023-06-15T00:00:00	2024-11-08T10:00:00	4	Temperatura máxima	23.6
129987	7	Sololá	713	San Lucas Tolimán	10	San Lucas Tolimán	6	Junio	2023-06-15T00:00:00	2024-11-08T10:00:00	3	Temperatura mínima	22.2
129988	7	Sololá	713	San Lucas Tolimán	10	San Lucas Tolimán	6	Junio	2023-06-15T00:00:00	2024-11-08T10:00:00	5	Humedad	57
129989	7	Sololá	713	San Lucas Tolimán	10	San Lucas Tolimán	6	Junio	2023-06-15T00:00:00	2024-11-08T10:00:00	6	Velocidad del viento	8
129990	7	Sololá	713	San Lucas Tolimán	10	San Lucas Tolimán	6	Junio	2023-06-15T00:00:00	2024-11-08T10:00:00	7	Dirección del viento	8.05
129991	7	Sololá	713	San Lucas Tolimán	10	San Lucas Tolimán	6	Junio	2023-06-15T00:00:00	2024-11-08T10:00:00	1	Precipitación	0
129992	7	Sololá	713	San Lucas Tolimán	10	San Lucas Tolimán	6	Junio	2023-06-15T00:00:00	2024-11-08T10:00:00	8	Radiación solar	823
129993	7	Sololá	713	San Lucas Tolimán	10	San Lucas Tolimán	6	Junio	2023-06-15T00:00:00	2024-11-08T11:00:00	2	Temperatura media	22.6
129994	7	Sololá	713	San Lucas Tolimán	10	San Lucas Tolimán	6	Junio	2023-06-15T00:00:00	2024-11-08T11:00:00	4	Temperatura máxima	23.4
129995	7	Sololá	713	San Lucas Tolimán	10	San Lucas Tolimán	6	Junio	2023-06-15T00:00:00	2024-11-08T11:00:00	3	Temperatura mínima	22
129996	7	Sololá	713	San Lucas Tolimán	10	San Lucas Tolimán	6	Junio	2023-06-15T00:00:00	2024-11-08T11:00:00	5	Humedad	61
129997	7	Sololá	713	San Lucas Tolimán	10	San Lucas Tolimán	6	Junio	2023-06-15T00:00:00	2024-11-08T11:00:00	6	Velocidad del viento	12.9
129998	7	Sololá	713	San Lucas Tolimán	10	San Lucas Tolimán	6	Junio	2023-06-15T00:00:00	2024-11-08T11:00:00	7	Dirección del viento	12.87
129999	7	Sololá	713	San Lucas Tolimán	10	San Lucas Tolimán	6	Junio	2023-06-15T00:00:00	2024-11-08T11:00:00	1	Precipitación	0
130000	7	Sololá	713	San Lucas Tolimán	10	San Lucas Tolimán	6	Junio	2023-06-15T00:00:00	2024-11-08T11:00:00	8	Radiación solar	1011
130001	7	Sololá	713	San Lucas Tolimán	10	San Lucas Tolimán	6	Junio	2023-06-15T00:00:00	2024-11-08T12:00:00	2	Temperatura media	22.8
130002	7	Sololá	713	San Lucas Tolimán	10	San Lucas Tolimán	6	Junio	2023-06-15T00:00:00	2024-11-08T12:00:00	4	Temperatura máxima	23.4
130003	7	Sololá	713	San Lucas Tolimán	10	San Lucas Tolimán	6	Junio	2023-06-15T00:00:00	2024-11-08T12:00:00	3	Temperatura mínima	22.3
130004	7	Sololá	713	San Lucas Tolimán	10	San Lucas Tolimán	6	Junio	2023-06-15T00:00:00	2024-11-08T12:00:00	5	Humedad	59
130005	7	Sololá	713	San Lucas Tolimán	10	San Lucas Tolimán	6	Junio	2023-06-15T00:00:00	2024-11-08T12:00:00	6	Velocidad del viento	9.7
130006	7	Sololá	713	San Lucas Tolimán	10	San Lucas Tolimán	6	Junio	2023-06-15T00:00:00	2024-11-08T12:00:00	7	Dirección del viento	9.66
130007	7	Sololá	713	San Lucas Tolimán	10	San Lucas Tolimán	6	Junio	2023-06-15T00:00:00	2024-11-08T12:00:00	1	Precipitación	0
130008	7	Sololá	713	San Lucas Tolimán	10	San Lucas Tolimán	6	Junio	2023-06-15T00:00:00	2024-11-08T12:00:00	8	Radiación solar	1017
130009	7	Sololá	713	San Lucas Tolimán	10	San Lucas Tolimán	6	Junio	2023-06-15T00:00:00	2024-11-08T13:00:00	2	Temperatura media	21.8
130010	7	Sololá	713	San Lucas Tolimán	10	San Lucas Tolimán	6	Junio	2023-06-15T00:00:00	2024-11-08T13:00:00	4	Temperatura máxima	23.1
130011	7	Sololá	713	San Lucas Tolimán	10	San Lucas Tolimán	6	Junio	2023-06-15T00:00:00	2024-11-08T13:00:00	3	Temperatura mínima	21.8
130012	7	Sololá	713	San Lucas Tolimán	10	San Lucas Tolimán	6	Junio	2023-06-15T00:00:00	2024-11-08T13:00:00	5	Humedad	63
130013	7	Sololá	713	San Lucas Tolimán	10	San Lucas Tolimán	6	Junio	2023-06-15T00:00:00	2024-11-08T13:00:00	6	Velocidad del viento	9.7
130014	7	Sololá	713	San Lucas Tolimán	10	San Lucas Tolimán	6	Junio	2023-06-15T00:00:00	2024-11-08T13:00:00	7	Dirección del viento	9.66
130015	7	Sololá	713	San Lucas Tolimán	10	San Lucas Tolimán	6	Junio	2023-06-15T00:00:00	2024-11-08T13:00:00	1	Precipitación	0
130016	7	Sololá	713	San Lucas Tolimán	10	San Lucas Tolimán	6	Junio	2023-06-15T00:00:00	2024-11-08T13:00:00	8	Radiación solar	473
130017	7	Sololá	713	San Lucas Tolimán	10	San Lucas Tolimán	6	Junio	2023-06-15T00:00:00	2024-11-08T14:00:00	2	Temperatura media	21.3
130018	7	Sololá	713	San Lucas Tolimán	10	San Lucas Tolimán	6	Junio	2023-06-15T00:00:00	2024-11-08T14:00:00	4	Temperatura máxima	22.9
130019	7	Sololá	713	San Lucas Tolimán	10	San Lucas Tolimán	6	Junio	2023-06-15T00:00:00	2024-11-08T14:00:00	3	Temperatura mínima	21.2
130020	7	Sololá	713	San Lucas Tolimán	10	San Lucas Tolimán	6	Junio	2023-06-15T00:00:00	2024-11-08T14:00:00	5	Humedad	63
130021	7	Sololá	713	San Lucas Tolimán	10	San Lucas Tolimán	6	Junio	2023-06-15T00:00:00	2024-11-08T14:00:00	6	Velocidad del viento	11.3
130022	7	Sololá	713	San Lucas Tolimán	10	San Lucas Tolimán	6	Junio	2023-06-15T00:00:00	2024-11-08T14:00:00	7	Dirección del viento	11.27
130023	7	Sololá	713	San Lucas Tolimán	10	San Lucas Tolimán	6	Junio	2023-06-15T00:00:00	2024-11-08T14:00:00	1	Precipitación	0
130024	7	Sololá	713	San Lucas Tolimán	10	San Lucas Tolimán	6	Junio	2023-06-15T00:00:00	2024-11-08T14:00:00	8	Radiación solar	574
130025	7	Sololá	713	San Lucas Tolimán	10	San Lucas Tolimán	6	Junio	2023-06-15T00:00:00	2024-11-08T15:00:00	2	Temperatura media	22.3
130026	7	Sololá	713	San Lucas Tolimán	10	San Lucas Tolimán	6	Junio	2023-06-15T00:00:00	2024-11-08T15:00:00	4	Temperatura máxima	22.8
130027	7	Sololá	713	San Lucas Tolimán	10	San Lucas Tolimán	6	Junio	2023-06-15T00:00:00	2024-11-08T15:00:00	3	Temperatura mínima	21.2
130028	7	Sololá	713	San Lucas Tolimán	10	San Lucas Tolimán	6	Junio	2023-06-15T00:00:00	2024-11-08T15:00:00	5	Humedad	61
130029	7	Sololá	713	San Lucas Tolimán	10	San Lucas Tolimán	6	Junio	2023-06-15T00:00:00	2024-11-08T15:00:00	6	Velocidad del viento	9.7
130030	7	Sololá	713	San Lucas Tolimán	10	San Lucas Tolimán	6	Junio	2023-06-15T00:00:00	2024-11-08T15:00:00	7	Dirección del viento	9.66
130031	7	Sololá	713	San Lucas Tolimán	10	San Lucas Tolimán	6	Junio	2023-06-15T00:00:00	2024-11-08T15:00:00	1	Precipitación	0
130032	7	Sololá	713	San Lucas Tolimán	10	San Lucas Tolimán	6	Junio	2023-06-15T00:00:00	2024-11-08T15:00:00	8	Radiación solar	434
130033	7	Sololá	713	San Lucas Tolimán	10	San Lucas Tolimán	6	Junio	2023-06-15T00:00:00	2024-11-08T16:00:00	2	Temperatura media	22.8
130034	7	Sololá	713	San Lucas Tolimán	10	San Lucas Tolimán	6	Junio	2023-06-15T00:00:00	2024-11-08T16:00:00	4	Temperatura máxima	22.9
130035	7	Sololá	713	San Lucas Tolimán	10	San Lucas Tolimán	6	Junio	2023-06-15T00:00:00	2024-11-08T16:00:00	3	Temperatura mínima	22.1
130036	7	Sololá	713	San Lucas Tolimán	10	San Lucas Tolimán	6	Junio	2023-06-15T00:00:00	2024-11-08T16:00:00	5	Humedad	59
130037	7	Sololá	713	San Lucas Tolimán	10	San Lucas Tolimán	6	Junio	2023-06-15T00:00:00	2024-11-08T16:00:00	6	Velocidad del viento	9.7
130038	7	Sololá	713	San Lucas Tolimán	10	San Lucas Tolimán	6	Junio	2023-06-15T00:00:00	2024-11-08T16:00:00	7	Dirección del viento	9.66
130039	7	Sololá	713	San Lucas Tolimán	10	San Lucas Tolimán	6	Junio	2023-06-15T00:00:00	2024-11-08T16:00:00	1	Precipitación	0
130040	7	Sololá	713	San Lucas Tolimán	10	San Lucas Tolimán	6	Junio	2023-06-15T00:00:00	2024-11-08T16:00:00	8	Radiación solar	591
130041	7	Sololá	713	San Lucas Tolimán	10	San Lucas Tolimán	6	Junio	2023-06-15T00:00:00	2024-11-08T17:00:00	2	Temperatura media	20.9
130042	7	Sololá	713	San Lucas Tolimán	10	San Lucas Tolimán	6	Junio	2023-06-15T00:00:00	2024-11-08T17:00:00	4	Temperatura máxima	22.8
130043	7	Sololá	713	San Lucas Tolimán	10	San Lucas Tolimán	6	Junio	2023-06-15T00:00:00	2024-11-08T17:00:00	3	Temperatura mínima	20.9
130044	7	Sololá	713	San Lucas Tolimán	10	San Lucas Tolimán	6	Junio	2023-06-15T00:00:00	2024-11-08T17:00:00	5	Humedad	63
130045	7	Sololá	713	San Lucas Tolimán	10	San Lucas Tolimán	6	Junio	2023-06-15T00:00:00	2024-11-08T17:00:00	6	Velocidad del viento	11.3
130046	7	Sololá	713	San Lucas Tolimán	10	San Lucas Tolimán	6	Junio	2023-06-15T00:00:00	2024-11-08T17:00:00	7	Dirección del viento	11.27
130047	7	Sololá	713	San Lucas Tolimán	10	San Lucas Tolimán	6	Junio	2023-06-15T00:00:00	2024-11-08T17:00:00	1	Precipitación	0
130048	7	Sololá	713	San Lucas Tolimán	10	San Lucas Tolimán	6	Junio	2023-06-15T00:00:00	2024-11-08T17:00:00	8	Radiación solar	235
130049	7	Sololá	713	San Lucas Tolimán	10	San Lucas Tolimán	6	Junio	2023-06-15T00:00:00	2024-11-08T18:00:00	2	Temperatura media	19.6
130050	7	Sololá	713	San Lucas Tolimán	10	San Lucas Tolimán	6	Junio	2023-06-15T00:00:00	2024-11-08T18:00:00	4	Temperatura máxima	20.9
130051	7	Sololá	713	San Lucas Tolimán	10	San Lucas Tolimán	6	Junio	2023-06-15T00:00:00	2024-11-08T18:00:00	3	Temperatura mínima	19.3
130052	7	Sololá	713	San Lucas Tolimán	10	San Lucas Tolimán	6	Junio	2023-06-15T00:00:00	2024-11-08T18:00:00	5	Humedad	68
130053	7	Sololá	713	San Lucas Tolimán	10	San Lucas Tolimán	6	Junio	2023-06-15T00:00:00	2024-11-08T18:00:00	6	Velocidad del viento	9.7
130054	7	Sololá	713	San Lucas Tolimán	10	San Lucas Tolimán	6	Junio	2023-06-15T00:00:00	2024-11-08T18:00:00	7	Dirección del viento	9.66
130055	7	Sololá	713	San Lucas Tolimán	10	San Lucas Tolimán	6	Junio	2023-06-15T00:00:00	2024-11-08T18:00:00	1	Precipitación	0
130056	7	Sololá	713	San Lucas Tolimán	10	San Lucas Tolimán	6	Junio	2023-06-15T00:00:00	2024-11-08T18:00:00	8	Radiación solar	33
130057	7	Sololá	713	San Lucas Tolimán	10	San Lucas Tolimán	6	Junio	2023-06-15T00:00:00	2024-11-08T19:00:00	2	Temperatura media	19.6
130058	7	Sololá	713	San Lucas Tolimán	10	San Lucas Tolimán	6	Junio	2023-06-15T00:00:00	2024-11-08T19:00:00	4	Temperatura máxima	19.7
130059	7	Sololá	713	San Lucas Tolimán	10	San Lucas Tolimán	6	Junio	2023-06-15T00:00:00	2024-11-08T19:00:00	3	Temperatura mínima	19.4
130060	7	Sololá	713	San Lucas Tolimán	10	San Lucas Tolimán	6	Junio	2023-06-15T00:00:00	2024-11-08T19:00:00	5	Humedad	68
130061	7	Sololá	713	San Lucas Tolimán	10	San Lucas Tolimán	6	Junio	2023-06-15T00:00:00	2024-11-08T19:00:00	6	Velocidad del viento	6.4
130062	7	Sololá	713	San Lucas Tolimán	10	San Lucas Tolimán	6	Junio	2023-06-15T00:00:00	2024-11-08T19:00:00	7	Dirección del viento	6.44
130063	7	Sololá	713	San Lucas Tolimán	10	San Lucas Tolimán	6	Junio	2023-06-15T00:00:00	2024-11-08T19:00:00	1	Precipitación	0.6
130064	7	Sololá	713	San Lucas Tolimán	10	San Lucas Tolimán	6	Junio	2023-06-15T00:00:00	2024-11-08T19:00:00	8	Radiación solar	0
130065	7	Sololá	713	San Lucas Tolimán	10	San Lucas Tolimán	6	Junio	2023-06-15T00:00:00	2024-11-08T20:00:00	2	Temperatura media	18.9
130066	7	Sololá	713	San Lucas Tolimán	10	San Lucas Tolimán	6	Junio	2023-06-15T00:00:00	2024-11-08T20:00:00	4	Temperatura máxima	19.6
130067	7	Sololá	713	San Lucas Tolimán	10	San Lucas Tolimán	6	Junio	2023-06-15T00:00:00	2024-11-08T20:00:00	3	Temperatura mínima	18.9
130068	7	Sololá	713	San Lucas Tolimán	10	San Lucas Tolimán	6	Junio	2023-06-15T00:00:00	2024-11-08T20:00:00	5	Humedad	69
130069	7	Sololá	713	San Lucas Tolimán	10	San Lucas Tolimán	6	Junio	2023-06-15T00:00:00	2024-11-08T20:00:00	6	Velocidad del viento	11.3
130070	7	Sololá	713	San Lucas Tolimán	10	San Lucas Tolimán	6	Junio	2023-06-15T00:00:00	2024-11-08T20:00:00	7	Dirección del viento	11.27
130071	7	Sololá	713	San Lucas Tolimán	10	San Lucas Tolimán	6	Junio	2023-06-15T00:00:00	2024-11-08T20:00:00	1	Precipitación	0.8
130072	7	Sololá	713	San Lucas Tolimán	10	San Lucas Tolimán	6	Junio	2023-06-15T00:00:00	2024-11-08T20:00:00	8	Radiación solar	0
130073	7	Sololá	713	San Lucas Tolimán	10	San Lucas Tolimán	6	Junio	2023-06-15T00:00:00	2024-11-08T21:00:00	2	Temperatura media	19
130074	7	Sololá	713	San Lucas Tolimán	10	San Lucas Tolimán	6	Junio	2023-06-15T00:00:00	2024-11-08T21:00:00	4	Temperatura máxima	19
130075	7	Sololá	713	San Lucas Tolimán	10	San Lucas Tolimán	6	Junio	2023-06-15T00:00:00	2024-11-08T21:00:00	3	Temperatura mínima	18.8
130076	7	Sololá	713	San Lucas Tolimán	10	San Lucas Tolimán	6	Junio	2023-06-15T00:00:00	2024-11-08T21:00:00	5	Humedad	69
130077	7	Sololá	713	San Lucas Tolimán	10	San Lucas Tolimán	6	Junio	2023-06-15T00:00:00	2024-11-08T21:00:00	6	Velocidad del viento	6.4
130078	7	Sololá	713	San Lucas Tolimán	10	San Lucas Tolimán	6	Junio	2023-06-15T00:00:00	2024-11-08T21:00:00	7	Dirección del viento	6.44
130079	7	Sololá	713	San Lucas Tolimán	10	San Lucas Tolimán	6	Junio	2023-06-15T00:00:00	2024-11-08T21:00:00	1	Precipitación	0.4
130080	7	Sololá	713	San Lucas Tolimán	10	San Lucas Tolimán	6	Junio	2023-06-15T00:00:00	2024-11-08T21:00:00	8	Radiación solar	0
130081	7	Sololá	713	San Lucas Tolimán	10	San Lucas Tolimán	6	Junio	2023-06-15T00:00:00	2024-11-08T22:00:00	2	Temperatura media	19.1
130082	7	Sololá	713	San Lucas Tolimán	10	San Lucas Tolimán	6	Junio	2023-06-15T00:00:00	2024-11-08T22:00:00	4	Temperatura máxima	19.3
130083	7	Sololá	713	San Lucas Tolimán	10	San Lucas Tolimán	6	Junio	2023-06-15T00:00:00	2024-11-08T22:00:00	3	Temperatura mínima	18.8
130084	7	Sololá	713	San Lucas Tolimán	10	San Lucas Tolimán	6	Junio	2023-06-15T00:00:00	2024-11-08T22:00:00	5	Humedad	68
130085	7	Sololá	713	San Lucas Tolimán	10	San Lucas Tolimán	6	Junio	2023-06-15T00:00:00	2024-11-08T22:00:00	6	Velocidad del viento	4.8
130086	7	Sololá	713	San Lucas Tolimán	10	San Lucas Tolimán	6	Junio	2023-06-15T00:00:00	2024-11-08T22:00:00	7	Dirección del viento	4.83
130087	7	Sololá	713	San Lucas Tolimán	10	San Lucas Tolimán	6	Junio	2023-06-15T00:00:00	2024-11-08T22:00:00	1	Precipitación	0
130088	7	Sololá	713	San Lucas Tolimán	10	San Lucas Tolimán	6	Junio	2023-06-15T00:00:00	2024-11-08T22:00:00	8	Radiación solar	0
130089	7	Sololá	713	San Lucas Tolimán	10	San Lucas Tolimán	6	Junio	2023-06-15T00:00:00	2024-11-08T23:00:00	2	Temperatura media	19.4
130090	7	Sololá	713	San Lucas Tolimán	10	San Lucas Tolimán	6	Junio	2023-06-15T00:00:00	2024-11-08T23:00:00	4	Temperatura máxima	19.4
130091	7	Sololá	713	San Lucas Tolimán	10	San Lucas Tolimán	6	Junio	2023-06-15T00:00:00	2024-11-08T23:00:00	3	Temperatura mínima	19.1
130092	7	Sololá	713	San Lucas Tolimán	10	San Lucas Tolimán	6	Junio	2023-06-15T00:00:00	2024-11-08T23:00:00	5	Humedad	67
130093	7	Sololá	713	San Lucas Tolimán	10	San Lucas Tolimán	6	Junio	2023-06-15T00:00:00	2024-11-08T23:00:00	6	Velocidad del viento	4.8
130094	7	Sololá	713	San Lucas Tolimán	10	San Lucas Tolimán	6	Junio	2023-06-15T00:00:00	2024-11-08T23:00:00	7	Dirección del viento	4.83
130095	7	Sololá	713	San Lucas Tolimán	10	San Lucas Tolimán	6	Junio	2023-06-15T00:00:00	2024-11-08T23:00:00	1	Precipitación	0
130096	7	Sololá	713	San Lucas Tolimán	10	San Lucas Tolimán	6	Junio	2023-06-15T00:00:00	2024-11-08T23:00:00	8	Radiación solar	0
130097	7	Sololá	713	San Lucas Tolimán	10	San Lucas Tolimán	6	Junio	2023-06-16T00:00:00	2024-11-08T00:00:00	2	Temperatura media	18.1
130098	7	Sololá	713	San Lucas Tolimán	10	San Lucas Tolimán	6	Junio	2023-06-16T00:00:00	2024-11-08T00:00:00	4	Temperatura máxima	19.3
130099	7	Sololá	713	San Lucas Tolimán	10	San Lucas Tolimán	6	Junio	2023-06-16T00:00:00	2024-11-08T00:00:00	3	Temperatura mínima	18.1
130100	7	Sololá	713	San Lucas Tolimán	10	San Lucas Tolimán	6	Junio	2023-06-16T00:00:00	2024-11-08T00:00:00	5	Humedad	69
130101	7	Sololá	713	San Lucas Tolimán	10	San Lucas Tolimán	6	Junio	2023-06-16T00:00:00	2024-11-08T00:00:00	6	Velocidad del viento	8
130102	7	Sololá	713	San Lucas Tolimán	10	San Lucas Tolimán	6	Junio	2023-06-16T00:00:00	2024-11-08T00:00:00	7	Dirección del viento	8.05
130103	7	Sololá	713	San Lucas Tolimán	10	San Lucas Tolimán	6	Junio	2023-06-16T00:00:00	2024-11-08T00:00:00	1	Precipitación	0.6
130104	7	Sololá	713	San Lucas Tolimán	10	San Lucas Tolimán	6	Junio	2023-06-16T00:00:00	2024-11-08T00:00:00	8	Radiación solar	0
130105	7	Sololá	713	San Lucas Tolimán	10	San Lucas Tolimán	6	Junio	2023-06-16T00:00:00	2024-11-08T01:00:00	2	Temperatura media	18
130106	7	Sololá	713	San Lucas Tolimán	10	San Lucas Tolimán	6	Junio	2023-06-16T00:00:00	2024-11-08T01:00:00	4	Temperatura máxima	18.1
130107	7	Sololá	713	San Lucas Tolimán	10	San Lucas Tolimán	6	Junio	2023-06-16T00:00:00	2024-11-08T01:00:00	3	Temperatura mínima	17.8
130108	7	Sololá	713	San Lucas Tolimán	10	San Lucas Tolimán	6	Junio	2023-06-16T00:00:00	2024-11-08T01:00:00	5	Humedad	69
130109	7	Sololá	713	San Lucas Tolimán	10	San Lucas Tolimán	6	Junio	2023-06-16T00:00:00	2024-11-08T01:00:00	6	Velocidad del viento	6.4
130110	7	Sololá	713	San Lucas Tolimán	10	San Lucas Tolimán	6	Junio	2023-06-16T00:00:00	2024-11-08T01:00:00	7	Dirección del viento	6.44
130111	7	Sololá	713	San Lucas Tolimán	10	San Lucas Tolimán	6	Junio	2023-06-16T00:00:00	2024-11-08T01:00:00	1	Precipitación	0
130112	7	Sololá	713	San Lucas Tolimán	10	San Lucas Tolimán	6	Junio	2023-06-16T00:00:00	2024-11-08T01:00:00	8	Radiación solar	0
130113	7	Sololá	713	San Lucas Tolimán	10	San Lucas Tolimán	6	Junio	2023-06-16T00:00:00	2024-11-08T02:00:00	2	Temperatura media	18.3
130114	7	Sololá	713	San Lucas Tolimán	10	San Lucas Tolimán	6	Junio	2023-06-16T00:00:00	2024-11-08T02:00:00	4	Temperatura máxima	18.3
130115	7	Sololá	713	San Lucas Tolimán	10	San Lucas Tolimán	6	Junio	2023-06-16T00:00:00	2024-11-08T02:00:00	3	Temperatura mínima	17.9
130116	7	Sololá	713	San Lucas Tolimán	10	San Lucas Tolimán	6	Junio	2023-06-16T00:00:00	2024-11-08T02:00:00	5	Humedad	67
130117	7	Sololá	713	San Lucas Tolimán	10	San Lucas Tolimán	6	Junio	2023-06-16T00:00:00	2024-11-08T02:00:00	6	Velocidad del viento	6.4
130118	7	Sololá	713	San Lucas Tolimán	10	San Lucas Tolimán	6	Junio	2023-06-16T00:00:00	2024-11-08T02:00:00	7	Dirección del viento	6.44
130119	7	Sololá	713	San Lucas Tolimán	10	San Lucas Tolimán	6	Junio	2023-06-16T00:00:00	2024-11-08T02:00:00	1	Precipitación	0
130120	7	Sololá	713	San Lucas Tolimán	10	San Lucas Tolimán	6	Junio	2023-06-16T00:00:00	2024-11-08T02:00:00	8	Radiación solar	0
130121	7	Sololá	713	San Lucas Tolimán	10	San Lucas Tolimán	6	Junio	2023-06-16T00:00:00	2024-11-08T03:00:00	2	Temperatura media	17.9
130122	7	Sololá	713	San Lucas Tolimán	10	San Lucas Tolimán	6	Junio	2023-06-16T00:00:00	2024-11-08T03:00:00	4	Temperatura máxima	18.3
130123	7	Sololá	713	San Lucas Tolimán	10	San Lucas Tolimán	6	Junio	2023-06-16T00:00:00	2024-11-08T03:00:00	3	Temperatura mínima	17.9
130124	7	Sololá	713	San Lucas Tolimán	10	San Lucas Tolimán	6	Junio	2023-06-16T00:00:00	2024-11-08T03:00:00	5	Humedad	67
130125	7	Sololá	713	San Lucas Tolimán	10	San Lucas Tolimán	6	Junio	2023-06-16T00:00:00	2024-11-08T03:00:00	6	Velocidad del viento	3.2
130126	7	Sololá	713	San Lucas Tolimán	10	San Lucas Tolimán	6	Junio	2023-06-16T00:00:00	2024-11-08T03:00:00	7	Dirección del viento	3.22
130127	7	Sololá	713	San Lucas Tolimán	10	San Lucas Tolimán	6	Junio	2023-06-16T00:00:00	2024-11-08T03:00:00	1	Precipitación	0
130128	7	Sololá	713	San Lucas Tolimán	10	San Lucas Tolimán	6	Junio	2023-06-16T00:00:00	2024-11-08T03:00:00	8	Radiación solar	0
130129	7	Sololá	713	San Lucas Tolimán	10	San Lucas Tolimán	6	Junio	2023-06-16T00:00:00	2024-11-08T04:00:00	2	Temperatura media	17.3
130130	7	Sololá	713	San Lucas Tolimán	10	San Lucas Tolimán	6	Junio	2023-06-16T00:00:00	2024-11-08T04:00:00	4	Temperatura máxima	17.9
130131	7	Sololá	713	San Lucas Tolimán	10	San Lucas Tolimán	6	Junio	2023-06-16T00:00:00	2024-11-08T04:00:00	3	Temperatura mínima	17.3
130132	7	Sololá	713	San Lucas Tolimán	10	San Lucas Tolimán	6	Junio	2023-06-16T00:00:00	2024-11-08T04:00:00	5	Humedad	68
130133	7	Sololá	713	San Lucas Tolimán	10	San Lucas Tolimán	6	Junio	2023-06-16T00:00:00	2024-11-08T04:00:00	6	Velocidad del viento	4.8
130134	7	Sololá	713	San Lucas Tolimán	10	San Lucas Tolimán	6	Junio	2023-06-16T00:00:00	2024-11-08T04:00:00	7	Dirección del viento	4.83
130135	7	Sololá	713	San Lucas Tolimán	10	San Lucas Tolimán	6	Junio	2023-06-16T00:00:00	2024-11-08T04:00:00	1	Precipitación	0
130136	7	Sololá	713	San Lucas Tolimán	10	San Lucas Tolimán	6	Junio	2023-06-16T00:00:00	2024-11-08T04:00:00	8	Radiación solar	0
130137	7	Sololá	713	San Lucas Tolimán	10	San Lucas Tolimán	6	Junio	2023-06-16T00:00:00	2024-11-08T05:00:00	2	Temperatura media	17.3
130138	7	Sololá	713	San Lucas Tolimán	10	San Lucas Tolimán	6	Junio	2023-06-16T00:00:00	2024-11-08T05:00:00	4	Temperatura máxima	17.4
130139	7	Sololá	713	San Lucas Tolimán	10	San Lucas Tolimán	6	Junio	2023-06-16T00:00:00	2024-11-08T05:00:00	3	Temperatura mínima	17.2
130140	7	Sololá	713	San Lucas Tolimán	10	San Lucas Tolimán	6	Junio	2023-06-16T00:00:00	2024-11-08T05:00:00	5	Humedad	68
130141	7	Sololá	713	San Lucas Tolimán	10	San Lucas Tolimán	6	Junio	2023-06-16T00:00:00	2024-11-08T05:00:00	6	Velocidad del viento	4.8
130142	7	Sololá	713	San Lucas Tolimán	10	San Lucas Tolimán	6	Junio	2023-06-16T00:00:00	2024-11-08T05:00:00	7	Dirección del viento	4.83
130143	7	Sololá	713	San Lucas Tolimán	10	San Lucas Tolimán	6	Junio	2023-06-16T00:00:00	2024-11-08T05:00:00	1	Precipitación	0
130144	7	Sololá	713	San Lucas Tolimán	10	San Lucas Tolimán	6	Junio	2023-06-16T00:00:00	2024-11-08T05:00:00	8	Radiación solar	0
130145	7	Sololá	713	San Lucas Tolimán	10	San Lucas Tolimán	6	Junio	2023-06-16T00:00:00	2024-11-08T06:00:00	2	Temperatura media	16.6
130146	7	Sololá	713	San Lucas Tolimán	10	San Lucas Tolimán	6	Junio	2023-06-16T00:00:00	2024-11-08T06:00:00	4	Temperatura máxima	17.3
130147	7	Sololá	713	San Lucas Tolimán	10	San Lucas Tolimán	6	Junio	2023-06-16T00:00:00	2024-11-08T06:00:00	3	Temperatura mínima	16.6
130148	7	Sololá	713	San Lucas Tolimán	10	San Lucas Tolimán	6	Junio	2023-06-16T00:00:00	2024-11-08T06:00:00	5	Humedad	68
130149	7	Sololá	713	San Lucas Tolimán	10	San Lucas Tolimán	6	Junio	2023-06-16T00:00:00	2024-11-08T06:00:00	6	Velocidad del viento	1.6
130150	7	Sololá	713	San Lucas Tolimán	10	San Lucas Tolimán	6	Junio	2023-06-16T00:00:00	2024-11-08T06:00:00	7	Dirección del viento	1.61
130151	7	Sololá	713	San Lucas Tolimán	10	San Lucas Tolimán	6	Junio	2023-06-16T00:00:00	2024-11-08T06:00:00	1	Precipitación	0
130152	7	Sololá	713	San Lucas Tolimán	10	San Lucas Tolimán	6	Junio	2023-06-16T00:00:00	2024-11-08T06:00:00	8	Radiación solar	5
130153	7	Sololá	713	San Lucas Tolimán	10	San Lucas Tolimán	6	Junio	2023-06-16T00:00:00	2024-11-08T07:00:00	2	Temperatura media	18.1
130154	7	Sololá	713	San Lucas Tolimán	10	San Lucas Tolimán	6	Junio	2023-06-16T00:00:00	2024-11-08T07:00:00	4	Temperatura máxima	18.1
130155	7	Sololá	713	San Lucas Tolimán	10	San Lucas Tolimán	6	Junio	2023-06-16T00:00:00	2024-11-08T07:00:00	3	Temperatura mínima	16.5
130156	7	Sololá	713	San Lucas Tolimán	10	San Lucas Tolimán	6	Junio	2023-06-16T00:00:00	2024-11-08T07:00:00	5	Humedad	67
130157	7	Sololá	713	San Lucas Tolimán	10	San Lucas Tolimán	6	Junio	2023-06-16T00:00:00	2024-11-08T07:00:00	6	Velocidad del viento	1.6
130158	7	Sololá	713	San Lucas Tolimán	10	San Lucas Tolimán	6	Junio	2023-06-16T00:00:00	2024-11-08T07:00:00	7	Dirección del viento	1.61
130159	7	Sololá	713	San Lucas Tolimán	10	San Lucas Tolimán	6	Junio	2023-06-16T00:00:00	2024-11-08T07:00:00	1	Precipitación	0
130160	7	Sololá	713	San Lucas Tolimán	10	San Lucas Tolimán	6	Junio	2023-06-16T00:00:00	2024-11-08T07:00:00	8	Radiación solar	97
130161	7	Sololá	713	San Lucas Tolimán	10	San Lucas Tolimán	6	Junio	2023-06-16T00:00:00	2024-11-08T08:00:00	2	Temperatura media	20.7
130162	7	Sololá	713	San Lucas Tolimán	10	San Lucas Tolimán	6	Junio	2023-06-16T00:00:00	2024-11-08T08:00:00	4	Temperatura máxima	20.7
130163	7	Sololá	713	San Lucas Tolimán	10	San Lucas Tolimán	6	Junio	2023-06-16T00:00:00	2024-11-08T08:00:00	3	Temperatura mínima	18.1
130164	7	Sololá	713	San Lucas Tolimán	10	San Lucas Tolimán	6	Junio	2023-06-16T00:00:00	2024-11-08T08:00:00	5	Humedad	57
130165	7	Sololá	713	San Lucas Tolimán	10	San Lucas Tolimán	6	Junio	2023-06-16T00:00:00	2024-11-08T08:00:00	6	Velocidad del viento	6.4
130166	7	Sololá	713	San Lucas Tolimán	10	San Lucas Tolimán	6	Junio	2023-06-16T00:00:00	2024-11-08T08:00:00	7	Dirección del viento	6.44
130167	7	Sololá	713	San Lucas Tolimán	10	San Lucas Tolimán	6	Junio	2023-06-16T00:00:00	2024-11-08T08:00:00	1	Precipitación	0
130168	7	Sololá	713	San Lucas Tolimán	10	San Lucas Tolimán	6	Junio	2023-06-16T00:00:00	2024-11-08T08:00:00	8	Radiación solar	368
130169	7	Sololá	713	San Lucas Tolimán	10	San Lucas Tolimán	6	Junio	2023-06-16T00:00:00	2024-11-08T09:00:00	2	Temperatura media	23.8
130170	7	Sololá	713	San Lucas Tolimán	10	San Lucas Tolimán	6	Junio	2023-06-16T00:00:00	2024-11-08T09:00:00	4	Temperatura máxima	23.8
130171	7	Sololá	713	San Lucas Tolimán	10	San Lucas Tolimán	6	Junio	2023-06-16T00:00:00	2024-11-08T09:00:00	3	Temperatura mínima	20.7
130172	7	Sololá	713	San Lucas Tolimán	10	San Lucas Tolimán	6	Junio	2023-06-16T00:00:00	2024-11-08T09:00:00	5	Humedad	46
130173	7	Sololá	713	San Lucas Tolimán	10	San Lucas Tolimán	6	Junio	2023-06-16T00:00:00	2024-11-08T09:00:00	6	Velocidad del viento	3.2
130174	7	Sololá	713	San Lucas Tolimán	10	San Lucas Tolimán	6	Junio	2023-06-16T00:00:00	2024-11-08T09:00:00	7	Dirección del viento	3.22
130175	7	Sololá	713	San Lucas Tolimán	10	San Lucas Tolimán	6	Junio	2023-06-16T00:00:00	2024-11-08T09:00:00	1	Precipitación	0
130176	7	Sololá	713	San Lucas Tolimán	10	San Lucas Tolimán	6	Junio	2023-06-16T00:00:00	2024-11-08T09:00:00	8	Radiación solar	623
130177	7	Sololá	713	San Lucas Tolimán	10	San Lucas Tolimán	6	Junio	2023-06-16T00:00:00	2024-11-08T10:00:00	2	Temperatura media	24.3
130178	7	Sololá	713	San Lucas Tolimán	10	San Lucas Tolimán	6	Junio	2023-06-16T00:00:00	2024-11-08T10:00:00	4	Temperatura máxima	24.7
130179	7	Sololá	713	San Lucas Tolimán	10	San Lucas Tolimán	6	Junio	2023-06-16T00:00:00	2024-11-08T10:00:00	3	Temperatura mínima	23.2
130180	7	Sololá	713	San Lucas Tolimán	10	San Lucas Tolimán	6	Junio	2023-06-16T00:00:00	2024-11-08T10:00:00	5	Humedad	46
130181	7	Sololá	713	San Lucas Tolimán	10	San Lucas Tolimán	6	Junio	2023-06-16T00:00:00	2024-11-08T10:00:00	6	Velocidad del viento	6.4
130182	7	Sololá	713	San Lucas Tolimán	10	San Lucas Tolimán	6	Junio	2023-06-16T00:00:00	2024-11-08T10:00:00	7	Dirección del viento	6.44
130183	7	Sololá	713	San Lucas Tolimán	10	San Lucas Tolimán	6	Junio	2023-06-16T00:00:00	2024-11-08T10:00:00	1	Precipitación	0
130184	7	Sololá	713	San Lucas Tolimán	10	San Lucas Tolimán	6	Junio	2023-06-16T00:00:00	2024-11-08T10:00:00	8	Radiación solar	826
130185	7	Sololá	713	San Lucas Tolimán	10	San Lucas Tolimán	6	Junio	2023-06-16T00:00:00	2024-11-08T11:00:00	2	Temperatura media	24.1
130186	7	Sololá	713	San Lucas Tolimán	10	San Lucas Tolimán	6	Junio	2023-06-16T00:00:00	2024-11-08T11:00:00	4	Temperatura máxima	24.5
130187	7	Sololá	713	San Lucas Tolimán	10	San Lucas Tolimán	6	Junio	2023-06-16T00:00:00	2024-11-08T11:00:00	3	Temperatura mínima	23.9
130188	7	Sololá	713	San Lucas Tolimán	10	San Lucas Tolimán	6	Junio	2023-06-16T00:00:00	2024-11-08T11:00:00	5	Humedad	47
130189	7	Sololá	713	San Lucas Tolimán	10	San Lucas Tolimán	6	Junio	2023-06-16T00:00:00	2024-11-08T11:00:00	6	Velocidad del viento	11.3
130190	7	Sololá	713	San Lucas Tolimán	10	San Lucas Tolimán	6	Junio	2023-06-16T00:00:00	2024-11-08T11:00:00	7	Dirección del viento	11.27
130191	7	Sololá	713	San Lucas Tolimán	10	San Lucas Tolimán	6	Junio	2023-06-16T00:00:00	2024-11-08T11:00:00	1	Precipitación	0
130192	7	Sololá	713	San Lucas Tolimán	10	San Lucas Tolimán	6	Junio	2023-06-16T00:00:00	2024-11-08T11:00:00	8	Radiación solar	987
130193	7	Sololá	713	San Lucas Tolimán	10	San Lucas Tolimán	6	Junio	2023-06-16T00:00:00	2024-11-08T12:00:00	2	Temperatura media	23.8
130194	7	Sololá	713	San Lucas Tolimán	10	San Lucas Tolimán	6	Junio	2023-06-16T00:00:00	2024-11-08T12:00:00	4	Temperatura máxima	24.8
130195	7	Sololá	713	San Lucas Tolimán	10	San Lucas Tolimán	6	Junio	2023-06-16T00:00:00	2024-11-08T12:00:00	3	Temperatura mínima	23.8
130196	7	Sololá	713	San Lucas Tolimán	10	San Lucas Tolimán	6	Junio	2023-06-16T00:00:00	2024-11-08T12:00:00	5	Humedad	50
130197	7	Sololá	713	San Lucas Tolimán	10	San Lucas Tolimán	6	Junio	2023-06-16T00:00:00	2024-11-08T12:00:00	6	Velocidad del viento	11.3
130198	7	Sololá	713	San Lucas Tolimán	10	San Lucas Tolimán	6	Junio	2023-06-16T00:00:00	2024-11-08T12:00:00	7	Dirección del viento	11.27
130199	7	Sololá	713	San Lucas Tolimán	10	San Lucas Tolimán	6	Junio	2023-06-16T00:00:00	2024-11-08T12:00:00	1	Precipitación	0
130200	7	Sololá	713	San Lucas Tolimán	10	San Lucas Tolimán	6	Junio	2023-06-16T00:00:00	2024-11-08T12:00:00	8	Radiación solar	1069
130201	7	Sololá	713	San Lucas Tolimán	10	San Lucas Tolimán	6	Junio	2023-06-16T00:00:00	2024-11-08T13:00:00	2	Temperatura media	24
130202	7	Sololá	713	San Lucas Tolimán	10	San Lucas Tolimán	6	Junio	2023-06-16T00:00:00	2024-11-08T13:00:00	4	Temperatura máxima	24.9
130203	7	Sololá	713	San Lucas Tolimán	10	San Lucas Tolimán	6	Junio	2023-06-16T00:00:00	2024-11-08T13:00:00	3	Temperatura mínima	23.8
130204	7	Sololá	713	San Lucas Tolimán	10	San Lucas Tolimán	6	Junio	2023-06-16T00:00:00	2024-11-08T13:00:00	5	Humedad	55
130205	7	Sololá	713	San Lucas Tolimán	10	San Lucas Tolimán	6	Junio	2023-06-16T00:00:00	2024-11-08T13:00:00	6	Velocidad del viento	11.3
130206	7	Sololá	713	San Lucas Tolimán	10	San Lucas Tolimán	6	Junio	2023-06-16T00:00:00	2024-11-08T13:00:00	7	Dirección del viento	11.27
130207	7	Sololá	713	San Lucas Tolimán	10	San Lucas Tolimán	6	Junio	2023-06-16T00:00:00	2024-11-08T13:00:00	1	Precipitación	0
130208	7	Sololá	713	San Lucas Tolimán	10	San Lucas Tolimán	6	Junio	2023-06-16T00:00:00	2024-11-08T13:00:00	8	Radiación solar	1096
130209	7	Sololá	713	San Lucas Tolimán	10	San Lucas Tolimán	6	Junio	2023-06-16T00:00:00	2024-11-08T14:00:00	2	Temperatura media	22.6
130210	7	Sololá	713	San Lucas Tolimán	10	San Lucas Tolimán	6	Junio	2023-06-16T00:00:00	2024-11-08T14:00:00	4	Temperatura máxima	24.4
130211	7	Sololá	713	San Lucas Tolimán	10	San Lucas Tolimán	6	Junio	2023-06-16T00:00:00	2024-11-08T14:00:00	3	Temperatura mínima	21.9
130212	7	Sololá	713	San Lucas Tolimán	10	San Lucas Tolimán	6	Junio	2023-06-16T00:00:00	2024-11-08T14:00:00	5	Humedad	59
130213	7	Sololá	713	San Lucas Tolimán	10	San Lucas Tolimán	6	Junio	2023-06-16T00:00:00	2024-11-08T14:00:00	6	Velocidad del viento	12.9
130214	7	Sololá	713	San Lucas Tolimán	10	San Lucas Tolimán	6	Junio	2023-06-16T00:00:00	2024-11-08T14:00:00	7	Dirección del viento	12.87
130215	7	Sololá	713	San Lucas Tolimán	10	San Lucas Tolimán	6	Junio	2023-06-16T00:00:00	2024-11-08T14:00:00	1	Precipitación	0
130216	7	Sololá	713	San Lucas Tolimán	10	San Lucas Tolimán	6	Junio	2023-06-16T00:00:00	2024-11-08T14:00:00	8	Radiación solar	665
130217	7	Sololá	713	San Lucas Tolimán	10	San Lucas Tolimán	6	Junio	2023-06-16T00:00:00	2024-11-08T15:00:00	2	Temperatura media	21.6
130218	7	Sololá	713	San Lucas Tolimán	10	San Lucas Tolimán	6	Junio	2023-06-16T00:00:00	2024-11-08T15:00:00	4	Temperatura máxima	22.6
130219	7	Sololá	713	San Lucas Tolimán	10	San Lucas Tolimán	6	Junio	2023-06-16T00:00:00	2024-11-08T15:00:00	3	Temperatura mínima	21.2
130220	7	Sololá	713	San Lucas Tolimán	10	San Lucas Tolimán	6	Junio	2023-06-16T00:00:00	2024-11-08T15:00:00	5	Humedad	60
130221	7	Sololá	713	San Lucas Tolimán	10	San Lucas Tolimán	6	Junio	2023-06-16T00:00:00	2024-11-08T15:00:00	6	Velocidad del viento	11.3
130222	7	Sololá	713	San Lucas Tolimán	10	San Lucas Tolimán	6	Junio	2023-06-16T00:00:00	2024-11-08T15:00:00	7	Dirección del viento	11.27
130223	7	Sololá	713	San Lucas Tolimán	10	San Lucas Tolimán	6	Junio	2023-06-16T00:00:00	2024-11-08T15:00:00	1	Precipitación	0
130224	7	Sololá	713	San Lucas Tolimán	10	San Lucas Tolimán	6	Junio	2023-06-16T00:00:00	2024-11-08T15:00:00	8	Radiación solar	288
130225	7	Sololá	713	San Lucas Tolimán	10	San Lucas Tolimán	6	Junio	2023-06-16T00:00:00	2024-11-08T16:00:00	2	Temperatura media	20.6
130226	7	Sololá	713	San Lucas Tolimán	10	San Lucas Tolimán	6	Junio	2023-06-16T00:00:00	2024-11-08T16:00:00	4	Temperatura máxima	22.3
130227	7	Sololá	713	San Lucas Tolimán	10	San Lucas Tolimán	6	Junio	2023-06-16T00:00:00	2024-11-08T16:00:00	3	Temperatura mínima	20.6
130228	7	Sololá	713	San Lucas Tolimán	10	San Lucas Tolimán	6	Junio	2023-06-16T00:00:00	2024-11-08T16:00:00	5	Humedad	65
130229	7	Sololá	713	San Lucas Tolimán	10	San Lucas Tolimán	6	Junio	2023-06-16T00:00:00	2024-11-08T16:00:00	6	Velocidad del viento	6.4
130230	7	Sololá	713	San Lucas Tolimán	10	San Lucas Tolimán	6	Junio	2023-06-16T00:00:00	2024-11-08T16:00:00	7	Dirección del viento	6.44
130231	7	Sololá	713	San Lucas Tolimán	10	San Lucas Tolimán	6	Junio	2023-06-16T00:00:00	2024-11-08T16:00:00	1	Precipitación	4.6
130232	7	Sololá	713	San Lucas Tolimán	10	San Lucas Tolimán	6	Junio	2023-06-16T00:00:00	2024-11-08T16:00:00	8	Radiación solar	165
130233	7	Sololá	713	San Lucas Tolimán	10	San Lucas Tolimán	6	Junio	2023-06-16T00:00:00	2024-11-08T17:00:00	2	Temperatura media	20.2
130234	7	Sololá	713	San Lucas Tolimán	10	San Lucas Tolimán	6	Junio	2023-06-16T00:00:00	2024-11-08T17:00:00	4	Temperatura máxima	20.6
130235	7	Sololá	713	San Lucas Tolimán	10	San Lucas Tolimán	6	Junio	2023-06-16T00:00:00	2024-11-08T17:00:00	3	Temperatura mínima	20
130236	7	Sololá	713	San Lucas Tolimán	10	San Lucas Tolimán	6	Junio	2023-06-16T00:00:00	2024-11-08T17:00:00	5	Humedad	64
130237	7	Sololá	713	San Lucas Tolimán	10	San Lucas Tolimán	6	Junio	2023-06-16T00:00:00	2024-11-08T17:00:00	6	Velocidad del viento	6.4
130238	7	Sololá	713	San Lucas Tolimán	10	San Lucas Tolimán	6	Junio	2023-06-16T00:00:00	2024-11-08T17:00:00	7	Dirección del viento	6.44
130239	7	Sololá	713	San Lucas Tolimán	10	San Lucas Tolimán	6	Junio	2023-06-16T00:00:00	2024-11-08T17:00:00	1	Precipitación	0.2
130240	7	Sololá	713	San Lucas Tolimán	10	San Lucas Tolimán	6	Junio	2023-06-16T00:00:00	2024-11-08T17:00:00	8	Radiación solar	146
130241	7	Sololá	713	San Lucas Tolimán	10	San Lucas Tolimán	6	Junio	2023-06-16T00:00:00	2024-11-08T18:00:00	2	Temperatura media	18.7
130242	7	Sololá	713	San Lucas Tolimán	10	San Lucas Tolimán	6	Junio	2023-06-16T00:00:00	2024-11-08T18:00:00	4	Temperatura máxima	20.2
130243	7	Sololá	713	San Lucas Tolimán	10	San Lucas Tolimán	6	Junio	2023-06-16T00:00:00	2024-11-08T18:00:00	3	Temperatura mínima	18.6
130244	7	Sololá	713	San Lucas Tolimán	10	San Lucas Tolimán	6	Junio	2023-06-16T00:00:00	2024-11-08T18:00:00	5	Humedad	67
130245	7	Sololá	713	San Lucas Tolimán	10	San Lucas Tolimán	6	Junio	2023-06-16T00:00:00	2024-11-08T18:00:00	6	Velocidad del viento	8
130246	7	Sololá	713	San Lucas Tolimán	10	San Lucas Tolimán	6	Junio	2023-06-16T00:00:00	2024-11-08T18:00:00	7	Dirección del viento	8.05
130247	7	Sololá	713	San Lucas Tolimán	10	San Lucas Tolimán	6	Junio	2023-06-16T00:00:00	2024-11-08T18:00:00	1	Precipitación	0
130248	7	Sololá	713	San Lucas Tolimán	10	San Lucas Tolimán	6	Junio	2023-06-16T00:00:00	2024-11-08T18:00:00	8	Radiación solar	51
130249	7	Sololá	713	San Lucas Tolimán	10	San Lucas Tolimán	6	Junio	2023-06-16T00:00:00	2024-11-08T19:00:00	2	Temperatura media	18.5
130250	7	Sololá	713	San Lucas Tolimán	10	San Lucas Tolimán	6	Junio	2023-06-16T00:00:00	2024-11-08T19:00:00	4	Temperatura máxima	19.1
130251	7	Sololá	713	San Lucas Tolimán	10	San Lucas Tolimán	6	Junio	2023-06-16T00:00:00	2024-11-08T19:00:00	3	Temperatura mínima	18.4
130252	7	Sololá	713	San Lucas Tolimán	10	San Lucas Tolimán	6	Junio	2023-06-16T00:00:00	2024-11-08T19:00:00	5	Humedad	66
130253	7	Sololá	713	San Lucas Tolimán	10	San Lucas Tolimán	6	Junio	2023-06-16T00:00:00	2024-11-08T19:00:00	6	Velocidad del viento	6.4
130254	7	Sololá	713	San Lucas Tolimán	10	San Lucas Tolimán	6	Junio	2023-06-16T00:00:00	2024-11-08T19:00:00	7	Dirección del viento	6.44
130255	7	Sololá	713	San Lucas Tolimán	10	San Lucas Tolimán	6	Junio	2023-06-16T00:00:00	2024-11-08T19:00:00	1	Precipitación	1.6
130256	7	Sololá	713	San Lucas Tolimán	10	San Lucas Tolimán	6	Junio	2023-06-16T00:00:00	2024-11-08T19:00:00	8	Radiación solar	0
130257	7	Sololá	713	San Lucas Tolimán	10	San Lucas Tolimán	6	Junio	2023-06-16T00:00:00	2024-11-08T20:00:00	2	Temperatura media	18.6
130258	7	Sololá	713	San Lucas Tolimán	10	San Lucas Tolimán	6	Junio	2023-06-16T00:00:00	2024-11-08T20:00:00	4	Temperatura máxima	18.8
130259	7	Sololá	713	San Lucas Tolimán	10	San Lucas Tolimán	6	Junio	2023-06-16T00:00:00	2024-11-08T20:00:00	3	Temperatura mínima	18.4
130260	7	Sololá	713	San Lucas Tolimán	10	San Lucas Tolimán	6	Junio	2023-06-16T00:00:00	2024-11-08T20:00:00	5	Humedad	67
130261	7	Sololá	713	San Lucas Tolimán	10	San Lucas Tolimán	6	Junio	2023-06-16T00:00:00	2024-11-08T20:00:00	6	Velocidad del viento	4.8
130262	7	Sololá	713	San Lucas Tolimán	10	San Lucas Tolimán	6	Junio	2023-06-16T00:00:00	2024-11-08T20:00:00	7	Dirección del viento	4.83
130263	7	Sololá	713	San Lucas Tolimán	10	San Lucas Tolimán	6	Junio	2023-06-16T00:00:00	2024-11-08T20:00:00	1	Precipitación	0
130264	7	Sololá	713	San Lucas Tolimán	10	San Lucas Tolimán	6	Junio	2023-06-16T00:00:00	2024-11-08T20:00:00	8	Radiación solar	0
130265	7	Sololá	713	San Lucas Tolimán	10	San Lucas Tolimán	6	Junio	2023-06-16T00:00:00	2024-11-08T21:00:00	2	Temperatura media	18.6
130266	7	Sololá	713	San Lucas Tolimán	10	San Lucas Tolimán	6	Junio	2023-06-16T00:00:00	2024-11-08T21:00:00	4	Temperatura máxima	18.6
130267	7	Sololá	713	San Lucas Tolimán	10	San Lucas Tolimán	6	Junio	2023-06-16T00:00:00	2024-11-08T21:00:00	3	Temperatura mínima	18.3
130268	7	Sololá	713	San Lucas Tolimán	10	San Lucas Tolimán	6	Junio	2023-06-16T00:00:00	2024-11-08T21:00:00	5	Humedad	68
130269	7	Sololá	713	San Lucas Tolimán	10	San Lucas Tolimán	6	Junio	2023-06-16T00:00:00	2024-11-08T21:00:00	6	Velocidad del viento	4.8
130270	7	Sololá	713	San Lucas Tolimán	10	San Lucas Tolimán	6	Junio	2023-06-16T00:00:00	2024-11-08T21:00:00	7	Dirección del viento	4.83
130271	7	Sololá	713	San Lucas Tolimán	10	San Lucas Tolimán	6	Junio	2023-06-16T00:00:00	2024-11-08T21:00:00	1	Precipitación	0
130272	7	Sololá	713	San Lucas Tolimán	10	San Lucas Tolimán	6	Junio	2023-06-16T00:00:00	2024-11-08T21:00:00	8	Radiación solar	0
130273	7	Sololá	713	San Lucas Tolimán	10	San Lucas Tolimán	6	Junio	2023-06-16T00:00:00	2024-11-08T22:00:00	2	Temperatura media	19
130274	7	Sololá	713	San Lucas Tolimán	10	San Lucas Tolimán	6	Junio	2023-06-16T00:00:00	2024-11-08T22:00:00	4	Temperatura máxima	19.1
130275	7	Sololá	713	San Lucas Tolimán	10	San Lucas Tolimán	6	Junio	2023-06-16T00:00:00	2024-11-08T22:00:00	3	Temperatura mínima	18.6
130276	7	Sololá	713	San Lucas Tolimán	10	San Lucas Tolimán	6	Junio	2023-06-16T00:00:00	2024-11-08T22:00:00	5	Humedad	68
130277	7	Sololá	713	San Lucas Tolimán	10	San Lucas Tolimán	6	Junio	2023-06-16T00:00:00	2024-11-08T22:00:00	6	Velocidad del viento	3.2
130278	7	Sololá	713	San Lucas Tolimán	10	San Lucas Tolimán	6	Junio	2023-06-16T00:00:00	2024-11-08T22:00:00	7	Dirección del viento	3.22
130279	7	Sololá	713	San Lucas Tolimán	10	San Lucas Tolimán	6	Junio	2023-06-16T00:00:00	2024-11-08T22:00:00	1	Precipitación	0
130280	7	Sololá	713	San Lucas Tolimán	10	San Lucas Tolimán	6	Junio	2023-06-16T00:00:00	2024-11-08T22:00:00	8	Radiación solar	0
130281	7	Sololá	713	San Lucas Tolimán	10	San Lucas Tolimán	6	Junio	2023-06-16T00:00:00	2024-11-08T23:00:00	2	Temperatura media	18.3
130282	7	Sololá	713	San Lucas Tolimán	10	San Lucas Tolimán	6	Junio	2023-06-16T00:00:00	2024-11-08T23:00:00	4	Temperatura máxima	19.1
130283	7	Sololá	713	San Lucas Tolimán	10	San Lucas Tolimán	6	Junio	2023-06-16T00:00:00	2024-11-08T23:00:00	3	Temperatura mínima	18.3
130284	7	Sololá	713	San Lucas Tolimán	10	San Lucas Tolimán	6	Junio	2023-06-16T00:00:00	2024-11-08T23:00:00	5	Humedad	66
130285	7	Sololá	713	San Lucas Tolimán	10	San Lucas Tolimán	6	Junio	2023-06-16T00:00:00	2024-11-08T23:00:00	6	Velocidad del viento	3.2
130286	7	Sololá	713	San Lucas Tolimán	10	San Lucas Tolimán	6	Junio	2023-06-16T00:00:00	2024-11-08T23:00:00	7	Dirección del viento	3.22
130287	7	Sololá	713	San Lucas Tolimán	10	San Lucas Tolimán	6	Junio	2023-06-16T00:00:00	2024-11-08T23:00:00	1	Precipitación	0
130288	7	Sololá	713	San Lucas Tolimán	10	San Lucas Tolimán	6	Junio	2023-06-16T00:00:00	2024-11-08T23:00:00	8	Radiación solar	0
130289	7	Sololá	713	San Lucas Tolimán	10	San Lucas Tolimán	6	Junio	2023-06-17T00:00:00	2024-11-08T00:00:00	2	Temperatura media	18.1
130290	7	Sololá	713	San Lucas Tolimán	10	San Lucas Tolimán	6	Junio	2023-06-17T00:00:00	2024-11-08T00:00:00	4	Temperatura máxima	18.8
130291	7	Sololá	713	San Lucas Tolimán	10	San Lucas Tolimán	6	Junio	2023-06-17T00:00:00	2024-11-08T00:00:00	3	Temperatura mínima	18.1
130292	7	Sololá	713	San Lucas Tolimán	10	San Lucas Tolimán	6	Junio	2023-06-17T00:00:00	2024-11-08T00:00:00	5	Humedad	65
130293	7	Sololá	713	San Lucas Tolimán	10	San Lucas Tolimán	6	Junio	2023-06-17T00:00:00	2024-11-08T00:00:00	6	Velocidad del viento	1.6
130294	7	Sololá	713	San Lucas Tolimán	10	San Lucas Tolimán	6	Junio	2023-06-17T00:00:00	2024-11-08T00:00:00	7	Dirección del viento	1.61
130295	7	Sololá	713	San Lucas Tolimán	10	San Lucas Tolimán	6	Junio	2023-06-17T00:00:00	2024-11-08T00:00:00	1	Precipitación	0
130296	7	Sololá	713	San Lucas Tolimán	10	San Lucas Tolimán	6	Junio	2023-06-17T00:00:00	2024-11-08T00:00:00	8	Radiación solar	0
130297	7	Sololá	713	San Lucas Tolimán	10	San Lucas Tolimán	6	Junio	2023-06-17T00:00:00	2024-11-08T01:00:00	2	Temperatura media	17.6
130298	7	Sololá	713	San Lucas Tolimán	10	San Lucas Tolimán	6	Junio	2023-06-17T00:00:00	2024-11-08T01:00:00	4	Temperatura máxima	18.1
130299	7	Sololá	713	San Lucas Tolimán	10	San Lucas Tolimán	6	Junio	2023-06-17T00:00:00	2024-11-08T01:00:00	3	Temperatura mínima	17.6
130300	7	Sololá	713	San Lucas Tolimán	10	San Lucas Tolimán	6	Junio	2023-06-17T00:00:00	2024-11-08T01:00:00	5	Humedad	66
130301	7	Sololá	713	San Lucas Tolimán	10	San Lucas Tolimán	6	Junio	2023-06-17T00:00:00	2024-11-08T01:00:00	6	Velocidad del viento	0
130302	7	Sololá	713	San Lucas Tolimán	10	San Lucas Tolimán	6	Junio	2023-06-17T00:00:00	2024-11-08T01:00:00	7	Dirección del viento	0
130303	7	Sololá	713	San Lucas Tolimán	10	San Lucas Tolimán	6	Junio	2023-06-17T00:00:00	2024-11-08T01:00:00	1	Precipitación	0
130304	7	Sololá	713	San Lucas Tolimán	10	San Lucas Tolimán	6	Junio	2023-06-17T00:00:00	2024-11-08T01:00:00	8	Radiación solar	0
130305	7	Sololá	713	San Lucas Tolimán	10	San Lucas Tolimán	6	Junio	2023-06-17T00:00:00	2024-11-08T02:00:00	2	Temperatura media	17.2
130306	7	Sololá	713	San Lucas Tolimán	10	San Lucas Tolimán	6	Junio	2023-06-17T00:00:00	2024-11-08T02:00:00	4	Temperatura máxima	17.6
130307	7	Sololá	713	San Lucas Tolimán	10	San Lucas Tolimán	6	Junio	2023-06-17T00:00:00	2024-11-08T02:00:00	3	Temperatura mínima	17.2
130308	7	Sololá	713	San Lucas Tolimán	10	San Lucas Tolimán	6	Junio	2023-06-17T00:00:00	2024-11-08T02:00:00	5	Humedad	66
130309	7	Sololá	713	San Lucas Tolimán	10	San Lucas Tolimán	6	Junio	2023-06-17T00:00:00	2024-11-08T02:00:00	6	Velocidad del viento	0
130310	7	Sololá	713	San Lucas Tolimán	10	San Lucas Tolimán	6	Junio	2023-06-17T00:00:00	2024-11-08T02:00:00	7	Dirección del viento	0
130311	7	Sololá	713	San Lucas Tolimán	10	San Lucas Tolimán	6	Junio	2023-06-17T00:00:00	2024-11-08T02:00:00	1	Precipitación	0
130312	7	Sololá	713	San Lucas Tolimán	10	San Lucas Tolimán	6	Junio	2023-06-17T00:00:00	2024-11-08T02:00:00	8	Radiación solar	0
130313	7	Sololá	713	San Lucas Tolimán	10	San Lucas Tolimán	6	Junio	2023-06-17T00:00:00	2024-11-08T03:00:00	2	Temperatura media	18.1
130314	7	Sololá	713	San Lucas Tolimán	10	San Lucas Tolimán	6	Junio	2023-06-17T00:00:00	2024-11-08T03:00:00	4	Temperatura máxima	18.2
130315	7	Sololá	713	San Lucas Tolimán	10	San Lucas Tolimán	6	Junio	2023-06-17T00:00:00	2024-11-08T03:00:00	3	Temperatura mínima	17.2
130316	7	Sololá	713	San Lucas Tolimán	10	San Lucas Tolimán	6	Junio	2023-06-17T00:00:00	2024-11-08T03:00:00	5	Humedad	62
130317	7	Sololá	713	San Lucas Tolimán	10	San Lucas Tolimán	6	Junio	2023-06-17T00:00:00	2024-11-08T03:00:00	6	Velocidad del viento	1.6
130318	7	Sololá	713	San Lucas Tolimán	10	San Lucas Tolimán	6	Junio	2023-06-17T00:00:00	2024-11-08T03:00:00	7	Dirección del viento	1.61
130319	7	Sololá	713	San Lucas Tolimán	10	San Lucas Tolimán	6	Junio	2023-06-17T00:00:00	2024-11-08T03:00:00	1	Precipitación	0
130320	7	Sololá	713	San Lucas Tolimán	10	San Lucas Tolimán	6	Junio	2023-06-17T00:00:00	2024-11-08T03:00:00	8	Radiación solar	0
130321	7	Sololá	713	San Lucas Tolimán	10	San Lucas Tolimán	6	Junio	2023-06-17T00:00:00	2024-11-08T04:00:00	2	Temperatura media	18.1
130322	7	Sololá	713	San Lucas Tolimán	10	San Lucas Tolimán	6	Junio	2023-06-17T00:00:00	2024-11-08T04:00:00	4	Temperatura máxima	18.7
130323	7	Sololá	713	San Lucas Tolimán	10	San Lucas Tolimán	6	Junio	2023-06-17T00:00:00	2024-11-08T04:00:00	3	Temperatura mínima	17.9
130324	7	Sololá	713	San Lucas Tolimán	10	San Lucas Tolimán	6	Junio	2023-06-17T00:00:00	2024-11-08T04:00:00	5	Humedad	61
130325	7	Sololá	713	San Lucas Tolimán	10	San Lucas Tolimán	6	Junio	2023-06-17T00:00:00	2024-11-08T04:00:00	6	Velocidad del viento	1.6
130326	7	Sololá	713	San Lucas Tolimán	10	San Lucas Tolimán	6	Junio	2023-06-17T00:00:00	2024-11-08T04:00:00	7	Dirección del viento	1.61
130327	7	Sololá	713	San Lucas Tolimán	10	San Lucas Tolimán	6	Junio	2023-06-17T00:00:00	2024-11-08T04:00:00	1	Precipitación	0
130328	7	Sololá	713	San Lucas Tolimán	10	San Lucas Tolimán	6	Junio	2023-06-17T00:00:00	2024-11-08T04:00:00	8	Radiación solar	0
130329	7	Sololá	713	San Lucas Tolimán	10	San Lucas Tolimán	6	Junio	2023-06-17T00:00:00	2024-11-08T05:00:00	2	Temperatura media	17.7
130330	7	Sololá	713	San Lucas Tolimán	10	San Lucas Tolimán	6	Junio	2023-06-17T00:00:00	2024-11-08T05:00:00	4	Temperatura máxima	18.1
130331	7	Sololá	713	San Lucas Tolimán	10	San Lucas Tolimán	6	Junio	2023-06-17T00:00:00	2024-11-08T05:00:00	3	Temperatura mínima	17.6
130332	7	Sololá	713	San Lucas Tolimán	10	San Lucas Tolimán	6	Junio	2023-06-17T00:00:00	2024-11-08T05:00:00	5	Humedad	62
130333	7	Sololá	713	San Lucas Tolimán	10	San Lucas Tolimán	6	Junio	2023-06-17T00:00:00	2024-11-08T05:00:00	6	Velocidad del viento	1.6
130334	7	Sololá	713	San Lucas Tolimán	10	San Lucas Tolimán	6	Junio	2023-06-17T00:00:00	2024-11-08T05:00:00	7	Dirección del viento	1.61
130335	7	Sololá	713	San Lucas Tolimán	10	San Lucas Tolimán	6	Junio	2023-06-17T00:00:00	2024-11-08T05:00:00	1	Precipitación	0
130336	7	Sololá	713	San Lucas Tolimán	10	San Lucas Tolimán	6	Junio	2023-06-17T00:00:00	2024-11-08T05:00:00	8	Radiación solar	0
130337	7	Sololá	713	San Lucas Tolimán	10	San Lucas Tolimán	6	Junio	2023-06-17T00:00:00	2024-11-08T06:00:00	2	Temperatura media	16.9
130338	7	Sololá	713	San Lucas Tolimán	10	San Lucas Tolimán	6	Junio	2023-06-17T00:00:00	2024-11-08T06:00:00	4	Temperatura máxima	17.7
130339	7	Sololá	713	San Lucas Tolimán	10	San Lucas Tolimán	6	Junio	2023-06-17T00:00:00	2024-11-08T06:00:00	3	Temperatura mínima	16.7
130340	7	Sololá	713	San Lucas Tolimán	10	San Lucas Tolimán	6	Junio	2023-06-17T00:00:00	2024-11-08T06:00:00	5	Humedad	64
130341	7	Sololá	713	San Lucas Tolimán	10	San Lucas Tolimán	6	Junio	2023-06-17T00:00:00	2024-11-08T06:00:00	6	Velocidad del viento	1.6
130342	7	Sololá	713	San Lucas Tolimán	10	San Lucas Tolimán	6	Junio	2023-06-17T00:00:00	2024-11-08T06:00:00	7	Dirección del viento	1.61
130343	7	Sololá	713	San Lucas Tolimán	10	San Lucas Tolimán	6	Junio	2023-06-17T00:00:00	2024-11-08T06:00:00	1	Precipitación	0
130344	7	Sololá	713	San Lucas Tolimán	10	San Lucas Tolimán	6	Junio	2023-06-17T00:00:00	2024-11-08T06:00:00	8	Radiación solar	3
130345	7	Sololá	713	San Lucas Tolimán	10	San Lucas Tolimán	6	Junio	2023-06-17T00:00:00	2024-11-08T07:00:00	2	Temperatura media	19.4
130346	7	Sololá	713	San Lucas Tolimán	10	San Lucas Tolimán	6	Junio	2023-06-17T00:00:00	2024-11-08T07:00:00	4	Temperatura máxima	19.4
130347	7	Sololá	713	San Lucas Tolimán	10	San Lucas Tolimán	6	Junio	2023-06-17T00:00:00	2024-11-08T07:00:00	3	Temperatura mínima	16.7
130348	7	Sololá	713	San Lucas Tolimán	10	San Lucas Tolimán	6	Junio	2023-06-17T00:00:00	2024-11-08T07:00:00	5	Humedad	59
130349	7	Sololá	713	San Lucas Tolimán	10	San Lucas Tolimán	6	Junio	2023-06-17T00:00:00	2024-11-08T07:00:00	6	Velocidad del viento	1.6
130350	7	Sololá	713	San Lucas Tolimán	10	San Lucas Tolimán	6	Junio	2023-06-17T00:00:00	2024-11-08T07:00:00	7	Dirección del viento	1.61
130351	7	Sololá	713	San Lucas Tolimán	10	San Lucas Tolimán	6	Junio	2023-06-17T00:00:00	2024-11-08T07:00:00	1	Precipitación	0.2
130352	7	Sololá	713	San Lucas Tolimán	10	San Lucas Tolimán	6	Junio	2023-06-17T00:00:00	2024-11-08T07:00:00	8	Radiación solar	84
130353	7	Sololá	713	San Lucas Tolimán	10	San Lucas Tolimán	6	Junio	2023-06-17T00:00:00	2024-11-08T08:00:00	2	Temperatura media	22.6
130354	7	Sololá	713	San Lucas Tolimán	10	San Lucas Tolimán	6	Junio	2023-06-17T00:00:00	2024-11-08T08:00:00	4	Temperatura máxima	22.7
130355	7	Sololá	713	San Lucas Tolimán	10	San Lucas Tolimán	6	Junio	2023-06-17T00:00:00	2024-11-08T08:00:00	3	Temperatura mínima	19.4
130356	7	Sololá	713	San Lucas Tolimán	10	San Lucas Tolimán	6	Junio	2023-06-17T00:00:00	2024-11-08T08:00:00	5	Humedad	47
130357	7	Sololá	713	San Lucas Tolimán	10	San Lucas Tolimán	6	Junio	2023-06-17T00:00:00	2024-11-08T08:00:00	6	Velocidad del viento	1.6
130358	7	Sololá	713	San Lucas Tolimán	10	San Lucas Tolimán	6	Junio	2023-06-17T00:00:00	2024-11-08T08:00:00	7	Dirección del viento	1.61
130359	7	Sololá	713	San Lucas Tolimán	10	San Lucas Tolimán	6	Junio	2023-06-17T00:00:00	2024-11-08T08:00:00	1	Precipitación	0
130360	7	Sololá	713	San Lucas Tolimán	10	San Lucas Tolimán	6	Junio	2023-06-17T00:00:00	2024-11-08T08:00:00	8	Radiación solar	367
130361	7	Sololá	713	San Lucas Tolimán	10	San Lucas Tolimán	6	Junio	2023-06-17T00:00:00	2024-11-08T09:00:00	2	Temperatura media	24.4
130362	7	Sololá	713	San Lucas Tolimán	10	San Lucas Tolimán	6	Junio	2023-06-17T00:00:00	2024-11-08T09:00:00	4	Temperatura máxima	24.7
130363	7	Sololá	713	San Lucas Tolimán	10	San Lucas Tolimán	6	Junio	2023-06-17T00:00:00	2024-11-08T09:00:00	3	Temperatura mínima	22.6
130364	7	Sololá	713	San Lucas Tolimán	10	San Lucas Tolimán	6	Junio	2023-06-17T00:00:00	2024-11-08T09:00:00	5	Humedad	46
130365	7	Sololá	713	San Lucas Tolimán	10	San Lucas Tolimán	6	Junio	2023-06-17T00:00:00	2024-11-08T09:00:00	6	Velocidad del viento	1.6
130366	7	Sololá	713	San Lucas Tolimán	10	San Lucas Tolimán	6	Junio	2023-06-17T00:00:00	2024-11-08T09:00:00	7	Dirección del viento	1.61
130367	7	Sololá	713	San Lucas Tolimán	10	San Lucas Tolimán	6	Junio	2023-06-17T00:00:00	2024-11-08T09:00:00	1	Precipitación	0
130368	7	Sololá	713	San Lucas Tolimán	10	San Lucas Tolimán	6	Junio	2023-06-17T00:00:00	2024-11-08T09:00:00	8	Radiación solar	621
130369	7	Sololá	713	San Lucas Tolimán	10	San Lucas Tolimán	6	Junio	2023-06-17T00:00:00	2024-11-08T10:00:00	2	Temperatura media	25.6
130370	7	Sololá	713	San Lucas Tolimán	10	San Lucas Tolimán	6	Junio	2023-06-17T00:00:00	2024-11-08T10:00:00	4	Temperatura máxima	25.9
130371	7	Sololá	713	San Lucas Tolimán	10	San Lucas Tolimán	6	Junio	2023-06-17T00:00:00	2024-11-08T10:00:00	3	Temperatura mínima	24.5
130372	7	Sololá	713	San Lucas Tolimán	10	San Lucas Tolimán	6	Junio	2023-06-17T00:00:00	2024-11-08T10:00:00	5	Humedad	47
130373	7	Sololá	713	San Lucas Tolimán	10	San Lucas Tolimán	6	Junio	2023-06-17T00:00:00	2024-11-08T10:00:00	6	Velocidad del viento	4.8
130374	7	Sololá	713	San Lucas Tolimán	10	San Lucas Tolimán	6	Junio	2023-06-17T00:00:00	2024-11-08T10:00:00	7	Dirección del viento	4.83
130375	7	Sololá	713	San Lucas Tolimán	10	San Lucas Tolimán	6	Junio	2023-06-17T00:00:00	2024-11-08T10:00:00	1	Precipitación	0
130376	7	Sololá	713	San Lucas Tolimán	10	San Lucas Tolimán	6	Junio	2023-06-17T00:00:00	2024-11-08T10:00:00	8	Radiación solar	825
130377	7	Sololá	713	San Lucas Tolimán	10	San Lucas Tolimán	6	Junio	2023-06-17T00:00:00	2024-11-08T11:00:00	2	Temperatura media	26.2
130378	7	Sololá	713	San Lucas Tolimán	10	San Lucas Tolimán	6	Junio	2023-06-17T00:00:00	2024-11-08T11:00:00	4	Temperatura máxima	26.7
130379	7	Sololá	713	San Lucas Tolimán	10	San Lucas Tolimán	6	Junio	2023-06-17T00:00:00	2024-11-08T11:00:00	3	Temperatura mínima	25.6
130380	7	Sololá	713	San Lucas Tolimán	10	San Lucas Tolimán	6	Junio	2023-06-17T00:00:00	2024-11-08T11:00:00	5	Humedad	53
130381	7	Sololá	713	San Lucas Tolimán	10	San Lucas Tolimán	6	Junio	2023-06-17T00:00:00	2024-11-08T11:00:00	6	Velocidad del viento	6.4
130382	7	Sololá	713	San Lucas Tolimán	10	San Lucas Tolimán	6	Junio	2023-06-17T00:00:00	2024-11-08T11:00:00	7	Dirección del viento	6.44
130383	7	Sololá	713	San Lucas Tolimán	10	San Lucas Tolimán	6	Junio	2023-06-17T00:00:00	2024-11-08T11:00:00	1	Precipitación	0
130384	7	Sololá	713	San Lucas Tolimán	10	San Lucas Tolimán	6	Junio	2023-06-17T00:00:00	2024-11-08T11:00:00	8	Radiación solar	963
130385	7	Sololá	713	San Lucas Tolimán	10	San Lucas Tolimán	6	Junio	2023-06-17T00:00:00	2024-11-08T12:00:00	2	Temperatura media	24.9
130386	7	Sololá	713	San Lucas Tolimán	10	San Lucas Tolimán	6	Junio	2023-06-17T00:00:00	2024-11-08T12:00:00	4	Temperatura máxima	26.8
130387	7	Sololá	713	San Lucas Tolimán	10	San Lucas Tolimán	6	Junio	2023-06-17T00:00:00	2024-11-08T12:00:00	3	Temperatura mínima	24.1
130388	7	Sololá	713	San Lucas Tolimán	10	San Lucas Tolimán	6	Junio	2023-06-17T00:00:00	2024-11-08T12:00:00	5	Humedad	56
130389	7	Sololá	713	San Lucas Tolimán	10	San Lucas Tolimán	6	Junio	2023-06-17T00:00:00	2024-11-08T12:00:00	6	Velocidad del viento	9.7
130390	7	Sololá	713	San Lucas Tolimán	10	San Lucas Tolimán	6	Junio	2023-06-17T00:00:00	2024-11-08T12:00:00	7	Dirección del viento	9.66
130391	7	Sololá	713	San Lucas Tolimán	10	San Lucas Tolimán	6	Junio	2023-06-17T00:00:00	2024-11-08T12:00:00	1	Precipitación	0
130392	7	Sololá	713	San Lucas Tolimán	10	San Lucas Tolimán	6	Junio	2023-06-17T00:00:00	2024-11-08T12:00:00	8	Radiación solar	1095
130393	7	Sololá	713	San Lucas Tolimán	10	San Lucas Tolimán	6	Junio	2023-06-17T00:00:00	2024-11-08T13:00:00	2	Temperatura media	24.4
130394	7	Sololá	713	San Lucas Tolimán	10	San Lucas Tolimán	6	Junio	2023-06-17T00:00:00	2024-11-08T13:00:00	4	Temperatura máxima	25
130395	7	Sololá	713	San Lucas Tolimán	10	San Lucas Tolimán	6	Junio	2023-06-17T00:00:00	2024-11-08T13:00:00	3	Temperatura mínima	23.8
130396	7	Sololá	713	San Lucas Tolimán	10	San Lucas Tolimán	6	Junio	2023-06-17T00:00:00	2024-11-08T13:00:00	5	Humedad	57
130397	7	Sololá	713	San Lucas Tolimán	10	San Lucas Tolimán	6	Junio	2023-06-17T00:00:00	2024-11-08T13:00:00	6	Velocidad del viento	11.3
130398	7	Sololá	713	San Lucas Tolimán	10	San Lucas Tolimán	6	Junio	2023-06-17T00:00:00	2024-11-08T13:00:00	7	Dirección del viento	11.27
130399	7	Sololá	713	San Lucas Tolimán	10	San Lucas Tolimán	6	Junio	2023-06-17T00:00:00	2024-11-08T13:00:00	1	Precipitación	0
130400	7	Sololá	713	San Lucas Tolimán	10	San Lucas Tolimán	6	Junio	2023-06-17T00:00:00	2024-11-08T13:00:00	8	Radiación solar	1100
130401	7	Sololá	713	San Lucas Tolimán	10	San Lucas Tolimán	6	Junio	2023-06-17T00:00:00	2024-11-08T14:00:00	2	Temperatura media	24.1
130402	7	Sololá	713	San Lucas Tolimán	10	San Lucas Tolimán	6	Junio	2023-06-17T00:00:00	2024-11-08T14:00:00	4	Temperatura máxima	24.6
130403	7	Sololá	713	San Lucas Tolimán	10	San Lucas Tolimán	6	Junio	2023-06-17T00:00:00	2024-11-08T14:00:00	3	Temperatura mínima	23.7
130404	7	Sololá	713	San Lucas Tolimán	10	San Lucas Tolimán	6	Junio	2023-06-17T00:00:00	2024-11-08T14:00:00	5	Humedad	57
130405	7	Sololá	713	San Lucas Tolimán	10	San Lucas Tolimán	6	Junio	2023-06-17T00:00:00	2024-11-08T14:00:00	6	Velocidad del viento	11.3
130406	7	Sololá	713	San Lucas Tolimán	10	San Lucas Tolimán	6	Junio	2023-06-17T00:00:00	2024-11-08T14:00:00	7	Dirección del viento	11.27
130407	7	Sololá	713	San Lucas Tolimán	10	San Lucas Tolimán	6	Junio	2023-06-17T00:00:00	2024-11-08T14:00:00	1	Precipitación	0
130408	7	Sololá	713	San Lucas Tolimán	10	San Lucas Tolimán	6	Junio	2023-06-17T00:00:00	2024-11-08T14:00:00	8	Radiación solar	1015
130409	7	Sololá	713	San Lucas Tolimán	10	San Lucas Tolimán	6	Junio	2023-06-17T00:00:00	2024-11-08T15:00:00	2	Temperatura media	23.1
130410	7	Sololá	713	San Lucas Tolimán	10	San Lucas Tolimán	6	Junio	2023-06-17T00:00:00	2024-11-08T15:00:00	4	Temperatura máxima	24.7
130411	7	Sololá	713	San Lucas Tolimán	10	San Lucas Tolimán	6	Junio	2023-06-17T00:00:00	2024-11-08T15:00:00	3	Temperatura mínima	23.1
130412	7	Sololá	713	San Lucas Tolimán	10	San Lucas Tolimán	6	Junio	2023-06-17T00:00:00	2024-11-08T15:00:00	5	Humedad	60
130413	7	Sololá	713	San Lucas Tolimán	10	San Lucas Tolimán	6	Junio	2023-06-17T00:00:00	2024-11-08T15:00:00	6	Velocidad del viento	12.9
130414	7	Sololá	713	San Lucas Tolimán	10	San Lucas Tolimán	6	Junio	2023-06-17T00:00:00	2024-11-08T15:00:00	7	Dirección del viento	12.87
130415	7	Sololá	713	San Lucas Tolimán	10	San Lucas Tolimán	6	Junio	2023-06-17T00:00:00	2024-11-08T15:00:00	1	Precipitación	0
130416	7	Sololá	713	San Lucas Tolimán	10	San Lucas Tolimán	6	Junio	2023-06-17T00:00:00	2024-11-08T15:00:00	8	Radiación solar	887
130417	7	Sololá	713	San Lucas Tolimán	10	San Lucas Tolimán	6	Junio	2023-06-17T00:00:00	2024-11-08T16:00:00	2	Temperatura media	22.1
130418	7	Sololá	713	San Lucas Tolimán	10	San Lucas Tolimán	6	Junio	2023-06-17T00:00:00	2024-11-08T16:00:00	4	Temperatura máxima	23.6
130419	7	Sololá	713	San Lucas Tolimán	10	San Lucas Tolimán	6	Junio	2023-06-17T00:00:00	2024-11-08T16:00:00	3	Temperatura mínima	21.9
130420	7	Sololá	713	San Lucas Tolimán	10	San Lucas Tolimán	6	Junio	2023-06-17T00:00:00	2024-11-08T16:00:00	5	Humedad	59
130421	7	Sololá	713	San Lucas Tolimán	10	San Lucas Tolimán	6	Junio	2023-06-17T00:00:00	2024-11-08T16:00:00	6	Velocidad del viento	14.5
130422	7	Sololá	713	San Lucas Tolimán	10	San Lucas Tolimán	6	Junio	2023-06-17T00:00:00	2024-11-08T16:00:00	7	Dirección del viento	14.48
130423	7	Sololá	713	San Lucas Tolimán	10	San Lucas Tolimán	6	Junio	2023-06-17T00:00:00	2024-11-08T16:00:00	1	Precipitación	0
130424	7	Sololá	713	San Lucas Tolimán	10	San Lucas Tolimán	6	Junio	2023-06-17T00:00:00	2024-11-08T16:00:00	8	Radiación solar	423
130425	7	Sololá	713	San Lucas Tolimán	10	San Lucas Tolimán	6	Junio	2023-06-17T00:00:00	2024-11-08T17:00:00	2	Temperatura media	22.9
130426	7	Sololá	713	San Lucas Tolimán	10	San Lucas Tolimán	6	Junio	2023-06-17T00:00:00	2024-11-08T17:00:00	4	Temperatura máxima	23.2
130427	7	Sololá	713	San Lucas Tolimán	10	San Lucas Tolimán	6	Junio	2023-06-17T00:00:00	2024-11-08T17:00:00	3	Temperatura mínima	22
130428	7	Sololá	713	San Lucas Tolimán	10	San Lucas Tolimán	6	Junio	2023-06-17T00:00:00	2024-11-08T17:00:00	5	Humedad	54
130429	7	Sololá	713	San Lucas Tolimán	10	San Lucas Tolimán	6	Junio	2023-06-17T00:00:00	2024-11-08T17:00:00	6	Velocidad del viento	9.7
130430	7	Sololá	713	San Lucas Tolimán	10	San Lucas Tolimán	6	Junio	2023-06-17T00:00:00	2024-11-08T17:00:00	7	Dirección del viento	9.66
130431	7	Sololá	713	San Lucas Tolimán	10	San Lucas Tolimán	6	Junio	2023-06-17T00:00:00	2024-11-08T17:00:00	1	Precipitación	0
130432	7	Sololá	713	San Lucas Tolimán	10	San Lucas Tolimán	6	Junio	2023-06-17T00:00:00	2024-11-08T17:00:00	8	Radiación solar	469
130433	7	Sololá	713	San Lucas Tolimán	10	San Lucas Tolimán	6	Junio	2023-06-17T00:00:00	2024-11-08T18:00:00	2	Temperatura media	21.4
130434	7	Sololá	713	San Lucas Tolimán	10	San Lucas Tolimán	6	Junio	2023-06-17T00:00:00	2024-11-08T18:00:00	4	Temperatura máxima	23.4
130435	7	Sololá	713	San Lucas Tolimán	10	San Lucas Tolimán	6	Junio	2023-06-17T00:00:00	2024-11-08T18:00:00	3	Temperatura mínima	21.3
130436	7	Sololá	713	San Lucas Tolimán	10	San Lucas Tolimán	6	Junio	2023-06-17T00:00:00	2024-11-08T18:00:00	5	Humedad	58
130437	7	Sololá	713	San Lucas Tolimán	10	San Lucas Tolimán	6	Junio	2023-06-17T00:00:00	2024-11-08T18:00:00	6	Velocidad del viento	4.8
130438	7	Sololá	713	San Lucas Tolimán	10	San Lucas Tolimán	6	Junio	2023-06-17T00:00:00	2024-11-08T18:00:00	7	Dirección del viento	4.83
130439	7	Sololá	713	San Lucas Tolimán	10	San Lucas Tolimán	6	Junio	2023-06-17T00:00:00	2024-11-08T18:00:00	1	Precipitación	0
130440	7	Sololá	713	San Lucas Tolimán	10	San Lucas Tolimán	6	Junio	2023-06-17T00:00:00	2024-11-08T18:00:00	8	Radiación solar	112
130441	7	Sololá	713	San Lucas Tolimán	10	San Lucas Tolimán	6	Junio	2023-06-17T00:00:00	2024-11-08T19:00:00	2	Temperatura media	17.8
130442	7	Sololá	713	San Lucas Tolimán	10	San Lucas Tolimán	6	Junio	2023-06-17T00:00:00	2024-11-08T19:00:00	4	Temperatura máxima	21.5
130443	7	Sololá	713	San Lucas Tolimán	10	San Lucas Tolimán	6	Junio	2023-06-17T00:00:00	2024-11-08T19:00:00	3	Temperatura mínima	17.8
130444	7	Sololá	713	San Lucas Tolimán	10	San Lucas Tolimán	6	Junio	2023-06-17T00:00:00	2024-11-08T19:00:00	5	Humedad	68
130445	7	Sololá	713	San Lucas Tolimán	10	San Lucas Tolimán	6	Junio	2023-06-17T00:00:00	2024-11-08T19:00:00	6	Velocidad del viento	9.7
130446	7	Sololá	713	San Lucas Tolimán	10	San Lucas Tolimán	6	Junio	2023-06-17T00:00:00	2024-11-08T19:00:00	7	Dirección del viento	9.66
130447	7	Sololá	713	San Lucas Tolimán	10	San Lucas Tolimán	6	Junio	2023-06-17T00:00:00	2024-11-08T19:00:00	1	Precipitación	0
130448	7	Sololá	713	San Lucas Tolimán	10	San Lucas Tolimán	6	Junio	2023-06-17T00:00:00	2024-11-08T19:00:00	8	Radiación solar	0
130449	7	Sololá	713	San Lucas Tolimán	10	San Lucas Tolimán	6	Junio	2023-06-17T00:00:00	2024-11-08T20:00:00	2	Temperatura media	18.6
130450	7	Sololá	713	San Lucas Tolimán	10	San Lucas Tolimán	6	Junio	2023-06-17T00:00:00	2024-11-08T20:00:00	4	Temperatura máxima	18.7
130451	7	Sololá	713	San Lucas Tolimán	10	San Lucas Tolimán	6	Junio	2023-06-17T00:00:00	2024-11-08T20:00:00	3	Temperatura mínima	17.8
130452	7	Sololá	713	San Lucas Tolimán	10	San Lucas Tolimán	6	Junio	2023-06-17T00:00:00	2024-11-08T20:00:00	5	Humedad	68
130453	7	Sololá	713	San Lucas Tolimán	10	San Lucas Tolimán	6	Junio	2023-06-17T00:00:00	2024-11-08T20:00:00	6	Velocidad del viento	3.2
130454	7	Sololá	713	San Lucas Tolimán	10	San Lucas Tolimán	6	Junio	2023-06-17T00:00:00	2024-11-08T20:00:00	7	Dirección del viento	3.22
130455	7	Sololá	713	San Lucas Tolimán	10	San Lucas Tolimán	6	Junio	2023-06-17T00:00:00	2024-11-08T20:00:00	1	Precipitación	0
130456	7	Sololá	713	San Lucas Tolimán	10	San Lucas Tolimán	6	Junio	2023-06-17T00:00:00	2024-11-08T20:00:00	8	Radiación solar	0
130457	7	Sololá	713	San Lucas Tolimán	10	San Lucas Tolimán	6	Junio	2023-06-17T00:00:00	2024-11-08T21:00:00	2	Temperatura media	18.7
130458	7	Sololá	713	San Lucas Tolimán	10	San Lucas Tolimán	6	Junio	2023-06-17T00:00:00	2024-11-08T21:00:00	4	Temperatura máxima	18.8
130459	7	Sololá	713	San Lucas Tolimán	10	San Lucas Tolimán	6	Junio	2023-06-17T00:00:00	2024-11-08T21:00:00	3	Temperatura mínima	18.3
130460	7	Sololá	713	San Lucas Tolimán	10	San Lucas Tolimán	6	Junio	2023-06-17T00:00:00	2024-11-08T21:00:00	5	Humedad	67
130461	7	Sololá	713	San Lucas Tolimán	10	San Lucas Tolimán	6	Junio	2023-06-17T00:00:00	2024-11-08T21:00:00	6	Velocidad del viento	6.4
130462	7	Sololá	713	San Lucas Tolimán	10	San Lucas Tolimán	6	Junio	2023-06-17T00:00:00	2024-11-08T21:00:00	7	Dirección del viento	6.44
130463	7	Sololá	713	San Lucas Tolimán	10	San Lucas Tolimán	6	Junio	2023-06-17T00:00:00	2024-11-08T21:00:00	1	Precipitación	0
130464	7	Sololá	713	San Lucas Tolimán	10	San Lucas Tolimán	6	Junio	2023-06-17T00:00:00	2024-11-08T21:00:00	8	Radiación solar	0
130465	7	Sololá	713	San Lucas Tolimán	10	San Lucas Tolimán	6	Junio	2023-06-17T00:00:00	2024-11-08T22:00:00	2	Temperatura media	18
130466	7	Sololá	713	San Lucas Tolimán	10	San Lucas Tolimán	6	Junio	2023-06-17T00:00:00	2024-11-08T22:00:00	4	Temperatura máxima	18.8
130467	7	Sololá	713	San Lucas Tolimán	10	San Lucas Tolimán	6	Junio	2023-06-17T00:00:00	2024-11-08T22:00:00	3	Temperatura mínima	18
130468	7	Sololá	713	San Lucas Tolimán	10	San Lucas Tolimán	6	Junio	2023-06-17T00:00:00	2024-11-08T22:00:00	5	Humedad	66
130469	7	Sololá	713	San Lucas Tolimán	10	San Lucas Tolimán	6	Junio	2023-06-17T00:00:00	2024-11-08T22:00:00	6	Velocidad del viento	3.2
130470	7	Sololá	713	San Lucas Tolimán	10	San Lucas Tolimán	6	Junio	2023-06-17T00:00:00	2024-11-08T22:00:00	7	Dirección del viento	3.22
130471	7	Sololá	713	San Lucas Tolimán	10	San Lucas Tolimán	6	Junio	2023-06-17T00:00:00	2024-11-08T22:00:00	1	Precipitación	0
130472	7	Sololá	713	San Lucas Tolimán	10	San Lucas Tolimán	6	Junio	2023-06-17T00:00:00	2024-11-08T22:00:00	8	Radiación solar	0
130473	7	Sololá	713	San Lucas Tolimán	10	San Lucas Tolimán	6	Junio	2023-06-17T00:00:00	2024-11-08T23:00:00	2	Temperatura media	18.3
130474	7	Sololá	713	San Lucas Tolimán	10	San Lucas Tolimán	6	Junio	2023-06-17T00:00:00	2024-11-08T23:00:00	4	Temperatura máxima	18.7
130475	7	Sololá	713	San Lucas Tolimán	10	San Lucas Tolimán	6	Junio	2023-06-17T00:00:00	2024-11-08T23:00:00	3	Temperatura mínima	17.9
130476	7	Sololá	713	San Lucas Tolimán	10	San Lucas Tolimán	6	Junio	2023-06-17T00:00:00	2024-11-08T23:00:00	5	Humedad	66
130477	7	Sololá	713	San Lucas Tolimán	10	San Lucas Tolimán	6	Junio	2023-06-17T00:00:00	2024-11-08T23:00:00	6	Velocidad del viento	4.8
130478	7	Sololá	713	San Lucas Tolimán	10	San Lucas Tolimán	6	Junio	2023-06-17T00:00:00	2024-11-08T23:00:00	7	Dirección del viento	4.83
130479	7	Sololá	713	San Lucas Tolimán	10	San Lucas Tolimán	6	Junio	2023-06-17T00:00:00	2024-11-08T23:00:00	1	Precipitación	0
130480	7	Sololá	713	San Lucas Tolimán	10	San Lucas Tolimán	6	Junio	2023-06-17T00:00:00	2024-11-08T23:00:00	8	Radiación solar	0
130481	7	Sololá	713	San Lucas Tolimán	10	San Lucas Tolimán	6	Junio	2023-06-18T00:00:00	2024-11-08T00:00:00	2	Temperatura media	19.7
130482	7	Sololá	713	San Lucas Tolimán	10	San Lucas Tolimán	6	Junio	2023-06-18T00:00:00	2024-11-08T00:00:00	4	Temperatura máxima	19.8
130483	7	Sololá	713	San Lucas Tolimán	10	San Lucas Tolimán	6	Junio	2023-06-18T00:00:00	2024-11-08T00:00:00	3	Temperatura mínima	17.6
130484	7	Sololá	713	San Lucas Tolimán	10	San Lucas Tolimán	6	Junio	2023-06-18T00:00:00	2024-11-08T00:00:00	5	Humedad	54
130485	7	Sololá	713	San Lucas Tolimán	10	San Lucas Tolimán	6	Junio	2023-06-18T00:00:00	2024-11-08T00:00:00	6	Velocidad del viento	3.2
130486	7	Sololá	713	San Lucas Tolimán	10	San Lucas Tolimán	6	Junio	2023-06-18T00:00:00	2024-11-08T00:00:00	7	Dirección del viento	3.22
130487	7	Sololá	713	San Lucas Tolimán	10	San Lucas Tolimán	6	Junio	2023-06-18T00:00:00	2024-11-08T00:00:00	1	Precipitación	0
130488	7	Sololá	713	San Lucas Tolimán	10	San Lucas Tolimán	6	Junio	2023-06-18T00:00:00	2024-11-08T00:00:00	8	Radiación solar	0
130489	7	Sololá	713	San Lucas Tolimán	10	San Lucas Tolimán	6	Junio	2023-06-18T00:00:00	2024-11-08T01:00:00	2	Temperatura media	18.4
130490	7	Sololá	713	San Lucas Tolimán	10	San Lucas Tolimán	6	Junio	2023-06-18T00:00:00	2024-11-08T01:00:00	4	Temperatura máxima	19.7
130491	7	Sololá	713	San Lucas Tolimán	10	San Lucas Tolimán	6	Junio	2023-06-18T00:00:00	2024-11-08T01:00:00	3	Temperatura mínima	18.4
130492	7	Sololá	713	San Lucas Tolimán	10	San Lucas Tolimán	6	Junio	2023-06-18T00:00:00	2024-11-08T01:00:00	5	Humedad	57
130493	7	Sololá	713	San Lucas Tolimán	10	San Lucas Tolimán	6	Junio	2023-06-18T00:00:00	2024-11-08T01:00:00	6	Velocidad del viento	1.6
130494	7	Sololá	713	San Lucas Tolimán	10	San Lucas Tolimán	6	Junio	2023-06-18T00:00:00	2024-11-08T01:00:00	7	Dirección del viento	1.61
130495	7	Sololá	713	San Lucas Tolimán	10	San Lucas Tolimán	6	Junio	2023-06-18T00:00:00	2024-11-08T01:00:00	1	Precipitación	0
130496	7	Sololá	713	San Lucas Tolimán	10	San Lucas Tolimán	6	Junio	2023-06-18T00:00:00	2024-11-08T01:00:00	8	Radiación solar	0
130497	7	Sololá	713	San Lucas Tolimán	10	San Lucas Tolimán	6	Junio	2023-06-18T00:00:00	2024-11-08T02:00:00	2	Temperatura media	18.8
130498	7	Sololá	713	San Lucas Tolimán	10	San Lucas Tolimán	6	Junio	2023-06-18T00:00:00	2024-11-08T02:00:00	4	Temperatura máxima	18.8
130499	7	Sololá	713	San Lucas Tolimán	10	San Lucas Tolimán	6	Junio	2023-06-18T00:00:00	2024-11-08T02:00:00	3	Temperatura mínima	17.1
130500	7	Sololá	713	San Lucas Tolimán	10	San Lucas Tolimán	6	Junio	2023-06-18T00:00:00	2024-11-08T02:00:00	5	Humedad	51
130501	7	Sololá	713	San Lucas Tolimán	10	San Lucas Tolimán	6	Junio	2023-06-18T00:00:00	2024-11-08T02:00:00	6	Velocidad del viento	3.2
130502	7	Sololá	713	San Lucas Tolimán	10	San Lucas Tolimán	6	Junio	2023-06-18T00:00:00	2024-11-08T02:00:00	7	Dirección del viento	3.22
130503	7	Sololá	713	San Lucas Tolimán	10	San Lucas Tolimán	6	Junio	2023-06-18T00:00:00	2024-11-08T02:00:00	1	Precipitación	0
130504	7	Sololá	713	San Lucas Tolimán	10	San Lucas Tolimán	6	Junio	2023-06-18T00:00:00	2024-11-08T02:00:00	8	Radiación solar	0
130505	7	Sololá	713	San Lucas Tolimán	10	San Lucas Tolimán	6	Junio	2023-06-18T00:00:00	2024-11-08T03:00:00	2	Temperatura media	17.1
130506	7	Sololá	713	San Lucas Tolimán	10	San Lucas Tolimán	6	Junio	2023-06-18T00:00:00	2024-11-08T03:00:00	4	Temperatura máxima	19.1
130507	7	Sololá	713	San Lucas Tolimán	10	San Lucas Tolimán	6	Junio	2023-06-18T00:00:00	2024-11-08T03:00:00	3	Temperatura mínima	17
130508	7	Sololá	713	San Lucas Tolimán	10	San Lucas Tolimán	6	Junio	2023-06-18T00:00:00	2024-11-08T03:00:00	5	Humedad	56
130509	7	Sololá	713	San Lucas Tolimán	10	San Lucas Tolimán	6	Junio	2023-06-18T00:00:00	2024-11-08T03:00:00	6	Velocidad del viento	1.6
130510	7	Sololá	713	San Lucas Tolimán	10	San Lucas Tolimán	6	Junio	2023-06-18T00:00:00	2024-11-08T03:00:00	7	Dirección del viento	1.61
130511	7	Sololá	713	San Lucas Tolimán	10	San Lucas Tolimán	6	Junio	2023-06-18T00:00:00	2024-11-08T03:00:00	1	Precipitación	0
130512	7	Sololá	713	San Lucas Tolimán	10	San Lucas Tolimán	6	Junio	2023-06-18T00:00:00	2024-11-08T03:00:00	8	Radiación solar	0
130513	7	Sololá	713	San Lucas Tolimán	10	San Lucas Tolimán	6	Junio	2023-06-18T00:00:00	2024-11-08T04:00:00	2	Temperatura media	18.7
130514	7	Sololá	713	San Lucas Tolimán	10	San Lucas Tolimán	6	Junio	2023-06-18T00:00:00	2024-11-08T04:00:00	4	Temperatura máxima	19.1
130515	7	Sololá	713	San Lucas Tolimán	10	San Lucas Tolimán	6	Junio	2023-06-18T00:00:00	2024-11-08T04:00:00	3	Temperatura mínima	17
130516	7	Sololá	713	San Lucas Tolimán	10	San Lucas Tolimán	6	Junio	2023-06-18T00:00:00	2024-11-08T04:00:00	5	Humedad	49
130517	7	Sololá	713	San Lucas Tolimán	10	San Lucas Tolimán	6	Junio	2023-06-18T00:00:00	2024-11-08T04:00:00	6	Velocidad del viento	3.2
130518	7	Sololá	713	San Lucas Tolimán	10	San Lucas Tolimán	6	Junio	2023-06-18T00:00:00	2024-11-08T04:00:00	7	Dirección del viento	3.22
130519	7	Sololá	713	San Lucas Tolimán	10	San Lucas Tolimán	6	Junio	2023-06-18T00:00:00	2024-11-08T04:00:00	1	Precipitación	0
130520	7	Sololá	713	San Lucas Tolimán	10	San Lucas Tolimán	6	Junio	2023-06-18T00:00:00	2024-11-08T04:00:00	8	Radiación solar	0
130521	7	Sololá	713	San Lucas Tolimán	10	San Lucas Tolimán	6	Junio	2023-06-18T00:00:00	2024-11-08T05:00:00	2	Temperatura media	17.7
130522	7	Sololá	713	San Lucas Tolimán	10	San Lucas Tolimán	6	Junio	2023-06-18T00:00:00	2024-11-08T05:00:00	4	Temperatura máxima	18.8
130523	7	Sololá	713	San Lucas Tolimán	10	San Lucas Tolimán	6	Junio	2023-06-18T00:00:00	2024-11-08T05:00:00	3	Temperatura mínima	17.7
130524	7	Sololá	713	San Lucas Tolimán	10	San Lucas Tolimán	6	Junio	2023-06-18T00:00:00	2024-11-08T05:00:00	5	Humedad	52
130525	7	Sololá	713	San Lucas Tolimán	10	San Lucas Tolimán	6	Junio	2023-06-18T00:00:00	2024-11-08T05:00:00	6	Velocidad del viento	3.2
130526	7	Sololá	713	San Lucas Tolimán	10	San Lucas Tolimán	6	Junio	2023-06-18T00:00:00	2024-11-08T05:00:00	7	Dirección del viento	3.22
130527	7	Sololá	713	San Lucas Tolimán	10	San Lucas Tolimán	6	Junio	2023-06-18T00:00:00	2024-11-08T05:00:00	1	Precipitación	0
130528	7	Sololá	713	San Lucas Tolimán	10	San Lucas Tolimán	6	Junio	2023-06-18T00:00:00	2024-11-08T05:00:00	8	Radiación solar	0
130529	7	Sololá	713	San Lucas Tolimán	10	San Lucas Tolimán	6	Junio	2023-06-18T00:00:00	2024-11-08T06:00:00	2	Temperatura media	17
130530	7	Sololá	713	San Lucas Tolimán	10	San Lucas Tolimán	6	Junio	2023-06-18T00:00:00	2024-11-08T06:00:00	4	Temperatura máxima	17.7
130531	7	Sololá	713	San Lucas Tolimán	10	San Lucas Tolimán	6	Junio	2023-06-18T00:00:00	2024-11-08T06:00:00	3	Temperatura mínima	15.9
130532	7	Sololá	713	San Lucas Tolimán	10	San Lucas Tolimán	6	Junio	2023-06-18T00:00:00	2024-11-08T06:00:00	5	Humedad	55
130533	7	Sololá	713	San Lucas Tolimán	10	San Lucas Tolimán	6	Junio	2023-06-18T00:00:00	2024-11-08T06:00:00	6	Velocidad del viento	1.6
130534	7	Sololá	713	San Lucas Tolimán	10	San Lucas Tolimán	6	Junio	2023-06-18T00:00:00	2024-11-08T06:00:00	7	Dirección del viento	1.61
130535	7	Sololá	713	San Lucas Tolimán	10	San Lucas Tolimán	6	Junio	2023-06-18T00:00:00	2024-11-08T06:00:00	1	Precipitación	0
130536	7	Sololá	713	San Lucas Tolimán	10	San Lucas Tolimán	6	Junio	2023-06-18T00:00:00	2024-11-08T06:00:00	8	Radiación solar	5
130537	7	Sololá	713	San Lucas Tolimán	10	San Lucas Tolimán	6	Junio	2023-06-18T00:00:00	2024-11-08T07:00:00	2	Temperatura media	19.4
130538	7	Sololá	713	San Lucas Tolimán	10	San Lucas Tolimán	6	Junio	2023-06-18T00:00:00	2024-11-08T07:00:00	4	Temperatura máxima	19.4
130539	7	Sololá	713	San Lucas Tolimán	10	San Lucas Tolimán	6	Junio	2023-06-18T00:00:00	2024-11-08T07:00:00	3	Temperatura mínima	16.5
130540	7	Sololá	713	San Lucas Tolimán	10	San Lucas Tolimán	6	Junio	2023-06-18T00:00:00	2024-11-08T07:00:00	5	Humedad	47
130541	7	Sololá	713	San Lucas Tolimán	10	San Lucas Tolimán	6	Junio	2023-06-18T00:00:00	2024-11-08T07:00:00	6	Velocidad del viento	1.6
130542	7	Sololá	713	San Lucas Tolimán	10	San Lucas Tolimán	6	Junio	2023-06-18T00:00:00	2024-11-08T07:00:00	7	Dirección del viento	1.61
130543	7	Sololá	713	San Lucas Tolimán	10	San Lucas Tolimán	6	Junio	2023-06-18T00:00:00	2024-11-08T07:00:00	1	Precipitación	0
130544	7	Sololá	713	San Lucas Tolimán	10	San Lucas Tolimán	6	Junio	2023-06-18T00:00:00	2024-11-08T07:00:00	8	Radiación solar	85
130545	7	Sololá	713	San Lucas Tolimán	10	San Lucas Tolimán	6	Junio	2023-06-18T00:00:00	2024-11-08T08:00:00	2	Temperatura media	23.5
130546	7	Sololá	713	San Lucas Tolimán	10	San Lucas Tolimán	6	Junio	2023-06-18T00:00:00	2024-11-08T08:00:00	4	Temperatura máxima	23.6
130547	7	Sololá	713	San Lucas Tolimán	10	San Lucas Tolimán	6	Junio	2023-06-18T00:00:00	2024-11-08T08:00:00	3	Temperatura mínima	19.4
130548	7	Sololá	713	San Lucas Tolimán	10	San Lucas Tolimán	6	Junio	2023-06-18T00:00:00	2024-11-08T08:00:00	5	Humedad	43
130549	7	Sololá	713	San Lucas Tolimán	10	San Lucas Tolimán	6	Junio	2023-06-18T00:00:00	2024-11-08T08:00:00	6	Velocidad del viento	1.6
130550	7	Sololá	713	San Lucas Tolimán	10	San Lucas Tolimán	6	Junio	2023-06-18T00:00:00	2024-11-08T08:00:00	7	Dirección del viento	1.61
130551	7	Sololá	713	San Lucas Tolimán	10	San Lucas Tolimán	6	Junio	2023-06-18T00:00:00	2024-11-08T08:00:00	1	Precipitación	0
130552	7	Sololá	713	San Lucas Tolimán	10	San Lucas Tolimán	6	Junio	2023-06-18T00:00:00	2024-11-08T08:00:00	8	Radiación solar	370
130553	7	Sololá	713	San Lucas Tolimán	10	San Lucas Tolimán	6	Junio	2023-06-18T00:00:00	2024-11-08T09:00:00	2	Temperatura media	24.8
130554	7	Sololá	713	San Lucas Tolimán	10	San Lucas Tolimán	6	Junio	2023-06-18T00:00:00	2024-11-08T09:00:00	4	Temperatura máxima	24.9
130555	7	Sololá	713	San Lucas Tolimán	10	San Lucas Tolimán	6	Junio	2023-06-18T00:00:00	2024-11-08T09:00:00	3	Temperatura mínima	23.5
130556	7	Sololá	713	San Lucas Tolimán	10	San Lucas Tolimán	6	Junio	2023-06-18T00:00:00	2024-11-08T09:00:00	5	Humedad	41
130557	7	Sololá	713	San Lucas Tolimán	10	San Lucas Tolimán	6	Junio	2023-06-18T00:00:00	2024-11-08T09:00:00	6	Velocidad del viento	3.2
130558	7	Sololá	713	San Lucas Tolimán	10	San Lucas Tolimán	6	Junio	2023-06-18T00:00:00	2024-11-08T09:00:00	7	Dirección del viento	3.22
130559	7	Sololá	713	San Lucas Tolimán	10	San Lucas Tolimán	6	Junio	2023-06-18T00:00:00	2024-11-08T09:00:00	1	Precipitación	0
130560	7	Sololá	713	San Lucas Tolimán	10	San Lucas Tolimán	6	Junio	2023-06-18T00:00:00	2024-11-08T09:00:00	8	Radiación solar	631
130561	7	Sololá	713	San Lucas Tolimán	10	San Lucas Tolimán	6	Junio	2023-06-18T00:00:00	2024-11-08T10:00:00	2	Temperatura media	25.9
130562	7	Sololá	713	San Lucas Tolimán	10	San Lucas Tolimán	6	Junio	2023-06-18T00:00:00	2024-11-08T10:00:00	4	Temperatura máxima	26.6
130563	7	Sololá	713	San Lucas Tolimán	10	San Lucas Tolimán	6	Junio	2023-06-18T00:00:00	2024-11-08T10:00:00	3	Temperatura mínima	24.8
130564	7	Sololá	713	San Lucas Tolimán	10	San Lucas Tolimán	6	Junio	2023-06-18T00:00:00	2024-11-08T10:00:00	5	Humedad	37
130565	7	Sololá	713	San Lucas Tolimán	10	San Lucas Tolimán	6	Junio	2023-06-18T00:00:00	2024-11-08T10:00:00	6	Velocidad del viento	4.8
130566	7	Sololá	713	San Lucas Tolimán	10	San Lucas Tolimán	6	Junio	2023-06-18T00:00:00	2024-11-08T10:00:00	7	Dirección del viento	4.83
130567	7	Sololá	713	San Lucas Tolimán	10	San Lucas Tolimán	6	Junio	2023-06-18T00:00:00	2024-11-08T10:00:00	1	Precipitación	0
130568	7	Sololá	713	San Lucas Tolimán	10	San Lucas Tolimán	6	Junio	2023-06-18T00:00:00	2024-11-08T10:00:00	8	Radiación solar	837
130569	7	Sololá	713	San Lucas Tolimán	10	San Lucas Tolimán	6	Junio	2023-06-18T00:00:00	2024-11-08T11:00:00	2	Temperatura media	25.7
130570	7	Sololá	713	San Lucas Tolimán	10	San Lucas Tolimán	6	Junio	2023-06-18T00:00:00	2024-11-08T11:00:00	4	Temperatura máxima	26.6
130571	7	Sololá	713	San Lucas Tolimán	10	San Lucas Tolimán	6	Junio	2023-06-18T00:00:00	2024-11-08T11:00:00	3	Temperatura mínima	25.5
130572	7	Sololá	713	San Lucas Tolimán	10	San Lucas Tolimán	6	Junio	2023-06-18T00:00:00	2024-11-08T11:00:00	5	Humedad	54
130573	7	Sololá	713	San Lucas Tolimán	10	San Lucas Tolimán	6	Junio	2023-06-18T00:00:00	2024-11-08T11:00:00	6	Velocidad del viento	8
130574	7	Sololá	713	San Lucas Tolimán	10	San Lucas Tolimán	6	Junio	2023-06-18T00:00:00	2024-11-08T11:00:00	7	Dirección del viento	8.05
130575	7	Sololá	713	San Lucas Tolimán	10	San Lucas Tolimán	6	Junio	2023-06-18T00:00:00	2024-11-08T11:00:00	1	Precipitación	0
130576	7	Sololá	713	San Lucas Tolimán	10	San Lucas Tolimán	6	Junio	2023-06-18T00:00:00	2024-11-08T11:00:00	8	Radiación solar	987
130577	7	Sololá	713	San Lucas Tolimán	10	San Lucas Tolimán	6	Junio	2023-06-18T00:00:00	2024-11-08T12:00:00	2	Temperatura media	24.8
130578	7	Sololá	713	San Lucas Tolimán	10	San Lucas Tolimán	6	Junio	2023-06-18T00:00:00	2024-11-08T12:00:00	4	Temperatura máxima	25.7
130579	7	Sololá	713	San Lucas Tolimán	10	San Lucas Tolimán	6	Junio	2023-06-18T00:00:00	2024-11-08T12:00:00	3	Temperatura mínima	24.8
130580	7	Sololá	713	San Lucas Tolimán	10	San Lucas Tolimán	6	Junio	2023-06-18T00:00:00	2024-11-08T12:00:00	5	Humedad	55
130581	7	Sololá	713	San Lucas Tolimán	10	San Lucas Tolimán	6	Junio	2023-06-18T00:00:00	2024-11-08T12:00:00	6	Velocidad del viento	11.3
130582	7	Sololá	713	San Lucas Tolimán	10	San Lucas Tolimán	6	Junio	2023-06-18T00:00:00	2024-11-08T12:00:00	7	Dirección del viento	11.27
130583	7	Sololá	713	San Lucas Tolimán	10	San Lucas Tolimán	6	Junio	2023-06-18T00:00:00	2024-11-08T12:00:00	1	Precipitación	0
130584	7	Sololá	713	San Lucas Tolimán	10	San Lucas Tolimán	6	Junio	2023-06-18T00:00:00	2024-11-08T12:00:00	8	Radiación solar	1072
130585	7	Sololá	713	San Lucas Tolimán	10	San Lucas Tolimán	6	Junio	2023-06-18T00:00:00	2024-11-08T13:00:00	2	Temperatura media	24.7
130586	7	Sololá	713	San Lucas Tolimán	10	San Lucas Tolimán	6	Junio	2023-06-18T00:00:00	2024-11-08T13:00:00	4	Temperatura máxima	25.1
130587	7	Sololá	713	San Lucas Tolimán	10	San Lucas Tolimán	6	Junio	2023-06-18T00:00:00	2024-11-08T13:00:00	3	Temperatura mínima	24.2
130588	7	Sololá	713	San Lucas Tolimán	10	San Lucas Tolimán	6	Junio	2023-06-18T00:00:00	2024-11-08T13:00:00	5	Humedad	57
130589	7	Sololá	713	San Lucas Tolimán	10	San Lucas Tolimán	6	Junio	2023-06-18T00:00:00	2024-11-08T13:00:00	6	Velocidad del viento	11.3
130590	7	Sololá	713	San Lucas Tolimán	10	San Lucas Tolimán	6	Junio	2023-06-18T00:00:00	2024-11-08T13:00:00	7	Dirección del viento	11.27
130591	7	Sololá	713	San Lucas Tolimán	10	San Lucas Tolimán	6	Junio	2023-06-18T00:00:00	2024-11-08T13:00:00	1	Precipitación	0
130592	7	Sololá	713	San Lucas Tolimán	10	San Lucas Tolimán	6	Junio	2023-06-18T00:00:00	2024-11-08T13:00:00	8	Radiación solar	1093
130593	7	Sololá	713	San Lucas Tolimán	10	San Lucas Tolimán	6	Junio	2023-06-18T00:00:00	2024-11-08T14:00:00	2	Temperatura media	24.9
130594	7	Sololá	713	San Lucas Tolimán	10	San Lucas Tolimán	6	Junio	2023-06-18T00:00:00	2024-11-08T14:00:00	4	Temperatura máxima	24.9
130595	7	Sololá	713	San Lucas Tolimán	10	San Lucas Tolimán	6	Junio	2023-06-18T00:00:00	2024-11-08T14:00:00	3	Temperatura mínima	24.4
130596	7	Sololá	713	San Lucas Tolimán	10	San Lucas Tolimán	6	Junio	2023-06-18T00:00:00	2024-11-08T14:00:00	5	Humedad	59
130597	7	Sololá	713	San Lucas Tolimán	10	San Lucas Tolimán	6	Junio	2023-06-18T00:00:00	2024-11-08T14:00:00	6	Velocidad del viento	12.9
130598	7	Sololá	713	San Lucas Tolimán	10	San Lucas Tolimán	6	Junio	2023-06-18T00:00:00	2024-11-08T14:00:00	7	Dirección del viento	12.87
130599	7	Sololá	713	San Lucas Tolimán	10	San Lucas Tolimán	6	Junio	2023-06-18T00:00:00	2024-11-08T14:00:00	1	Precipitación	0
130600	7	Sololá	713	San Lucas Tolimán	10	San Lucas Tolimán	6	Junio	2023-06-18T00:00:00	2024-11-08T14:00:00	8	Radiación solar	1049
130601	7	Sololá	713	San Lucas Tolimán	10	San Lucas Tolimán	6	Junio	2023-06-18T00:00:00	2024-11-08T15:00:00	2	Temperatura media	23.8
130602	7	Sololá	713	San Lucas Tolimán	10	San Lucas Tolimán	6	Junio	2023-06-18T00:00:00	2024-11-08T15:00:00	4	Temperatura máxima	24.9
130603	7	Sololá	713	San Lucas Tolimán	10	San Lucas Tolimán	6	Junio	2023-06-18T00:00:00	2024-11-08T15:00:00	3	Temperatura mínima	23.7
130604	7	Sololá	713	San Lucas Tolimán	10	San Lucas Tolimán	6	Junio	2023-06-18T00:00:00	2024-11-08T15:00:00	5	Humedad	60
130605	7	Sololá	713	San Lucas Tolimán	10	San Lucas Tolimán	6	Junio	2023-06-18T00:00:00	2024-11-08T15:00:00	6	Velocidad del viento	12.9
130606	7	Sololá	713	San Lucas Tolimán	10	San Lucas Tolimán	6	Junio	2023-06-18T00:00:00	2024-11-08T15:00:00	7	Dirección del viento	12.87
130607	7	Sololá	713	San Lucas Tolimán	10	San Lucas Tolimán	6	Junio	2023-06-18T00:00:00	2024-11-08T15:00:00	1	Precipitación	0
130608	7	Sololá	713	San Lucas Tolimán	10	San Lucas Tolimán	6	Junio	2023-06-18T00:00:00	2024-11-08T15:00:00	8	Radiación solar	934
130609	7	Sololá	713	San Lucas Tolimán	10	San Lucas Tolimán	6	Junio	2023-06-18T00:00:00	2024-11-08T16:00:00	2	Temperatura media	22.7
130610	7	Sololá	713	San Lucas Tolimán	10	San Lucas Tolimán	6	Junio	2023-06-18T00:00:00	2024-11-08T16:00:00	4	Temperatura máxima	24.1
130611	7	Sololá	713	San Lucas Tolimán	10	San Lucas Tolimán	6	Junio	2023-06-18T00:00:00	2024-11-08T16:00:00	3	Temperatura mínima	22.7
130612	7	Sololá	713	San Lucas Tolimán	10	San Lucas Tolimán	6	Junio	2023-06-18T00:00:00	2024-11-08T16:00:00	5	Humedad	61
130613	7	Sololá	713	San Lucas Tolimán	10	San Lucas Tolimán	6	Junio	2023-06-18T00:00:00	2024-11-08T16:00:00	6	Velocidad del viento	12.9
130614	7	Sololá	713	San Lucas Tolimán	10	San Lucas Tolimán	6	Junio	2023-06-18T00:00:00	2024-11-08T16:00:00	7	Dirección del viento	12.87
130615	7	Sololá	713	San Lucas Tolimán	10	San Lucas Tolimán	6	Junio	2023-06-18T00:00:00	2024-11-08T16:00:00	1	Precipitación	0
130616	7	Sololá	713	San Lucas Tolimán	10	San Lucas Tolimán	6	Junio	2023-06-18T00:00:00	2024-11-08T16:00:00	8	Radiación solar	665
130617	7	Sololá	713	San Lucas Tolimán	10	San Lucas Tolimán	6	Junio	2023-06-18T00:00:00	2024-11-08T17:00:00	2	Temperatura media	21.8
130618	7	Sololá	713	San Lucas Tolimán	10	San Lucas Tolimán	6	Junio	2023-06-18T00:00:00	2024-11-08T17:00:00	4	Temperatura máxima	23.1
130619	7	Sololá	713	San Lucas Tolimán	10	San Lucas Tolimán	6	Junio	2023-06-18T00:00:00	2024-11-08T17:00:00	3	Temperatura mínima	21.7
130620	7	Sololá	713	San Lucas Tolimán	10	San Lucas Tolimán	6	Junio	2023-06-18T00:00:00	2024-11-08T17:00:00	5	Humedad	59
130621	7	Sololá	713	San Lucas Tolimán	10	San Lucas Tolimán	6	Junio	2023-06-18T00:00:00	2024-11-08T17:00:00	6	Velocidad del viento	11.3
130622	7	Sololá	713	San Lucas Tolimán	10	San Lucas Tolimán	6	Junio	2023-06-18T00:00:00	2024-11-08T17:00:00	7	Dirección del viento	11.27
130623	7	Sololá	713	San Lucas Tolimán	10	San Lucas Tolimán	6	Junio	2023-06-18T00:00:00	2024-11-08T17:00:00	1	Precipitación	0
130624	7	Sololá	713	San Lucas Tolimán	10	San Lucas Tolimán	6	Junio	2023-06-18T00:00:00	2024-11-08T17:00:00	8	Radiación solar	278
130625	7	Sololá	713	San Lucas Tolimán	10	San Lucas Tolimán	6	Junio	2023-06-18T00:00:00	2024-11-08T18:00:00	2	Temperatura media	21.4
130626	7	Sololá	713	San Lucas Tolimán	10	San Lucas Tolimán	6	Junio	2023-06-18T00:00:00	2024-11-08T18:00:00	4	Temperatura máxima	22.2
130627	7	Sololá	713	San Lucas Tolimán	10	San Lucas Tolimán	6	Junio	2023-06-18T00:00:00	2024-11-08T18:00:00	3	Temperatura mínima	21.3
130628	7	Sololá	713	San Lucas Tolimán	10	San Lucas Tolimán	6	Junio	2023-06-18T00:00:00	2024-11-08T18:00:00	5	Humedad	58
130629	7	Sololá	713	San Lucas Tolimán	10	San Lucas Tolimán	6	Junio	2023-06-18T00:00:00	2024-11-08T18:00:00	6	Velocidad del viento	9.7
130630	7	Sololá	713	San Lucas Tolimán	10	San Lucas Tolimán	6	Junio	2023-06-18T00:00:00	2024-11-08T18:00:00	7	Dirección del viento	9.66
130631	7	Sololá	713	San Lucas Tolimán	10	San Lucas Tolimán	6	Junio	2023-06-18T00:00:00	2024-11-08T18:00:00	1	Precipitación	0
130632	7	Sololá	713	San Lucas Tolimán	10	San Lucas Tolimán	6	Junio	2023-06-18T00:00:00	2024-11-08T18:00:00	8	Radiación solar	127
130633	7	Sololá	713	San Lucas Tolimán	10	San Lucas Tolimán	6	Junio	2023-06-18T00:00:00	2024-11-08T19:00:00	2	Temperatura media	20.2
130634	7	Sololá	713	San Lucas Tolimán	10	San Lucas Tolimán	6	Junio	2023-06-18T00:00:00	2024-11-08T19:00:00	4	Temperatura máxima	21.5
130635	7	Sololá	713	San Lucas Tolimán	10	San Lucas Tolimán	6	Junio	2023-06-18T00:00:00	2024-11-08T19:00:00	3	Temperatura mínima	20.2
130636	7	Sololá	713	San Lucas Tolimán	10	San Lucas Tolimán	6	Junio	2023-06-18T00:00:00	2024-11-08T19:00:00	5	Humedad	61
130637	7	Sololá	713	San Lucas Tolimán	10	San Lucas Tolimán	6	Junio	2023-06-18T00:00:00	2024-11-08T19:00:00	6	Velocidad del viento	8
130638	7	Sololá	713	San Lucas Tolimán	10	San Lucas Tolimán	6	Junio	2023-06-18T00:00:00	2024-11-08T19:00:00	7	Dirección del viento	8.05
130639	7	Sololá	713	San Lucas Tolimán	10	San Lucas Tolimán	6	Junio	2023-06-18T00:00:00	2024-11-08T19:00:00	1	Precipitación	0
130640	7	Sololá	713	San Lucas Tolimán	10	San Lucas Tolimán	6	Junio	2023-06-18T00:00:00	2024-11-08T19:00:00	8	Radiación solar	0
130641	7	Sololá	713	San Lucas Tolimán	10	San Lucas Tolimán	6	Junio	2023-06-18T00:00:00	2024-11-08T20:00:00	2	Temperatura media	19.4
130642	7	Sololá	713	San Lucas Tolimán	10	San Lucas Tolimán	6	Junio	2023-06-18T00:00:00	2024-11-08T20:00:00	4	Temperatura máxima	20.2
130643	7	Sololá	713	San Lucas Tolimán	10	San Lucas Tolimán	6	Junio	2023-06-18T00:00:00	2024-11-08T20:00:00	3	Temperatura mínima	19.3
130644	7	Sololá	713	San Lucas Tolimán	10	San Lucas Tolimán	6	Junio	2023-06-18T00:00:00	2024-11-08T20:00:00	5	Humedad	66
130645	7	Sololá	713	San Lucas Tolimán	10	San Lucas Tolimán	6	Junio	2023-06-18T00:00:00	2024-11-08T20:00:00	6	Velocidad del viento	6.4
130646	7	Sololá	713	San Lucas Tolimán	10	San Lucas Tolimán	6	Junio	2023-06-18T00:00:00	2024-11-08T20:00:00	7	Dirección del viento	6.44
130647	7	Sololá	713	San Lucas Tolimán	10	San Lucas Tolimán	6	Junio	2023-06-18T00:00:00	2024-11-08T20:00:00	1	Precipitación	0
130648	7	Sololá	713	San Lucas Tolimán	10	San Lucas Tolimán	6	Junio	2023-06-18T00:00:00	2024-11-08T20:00:00	8	Radiación solar	0
130649	7	Sololá	713	San Lucas Tolimán	10	San Lucas Tolimán	6	Junio	2023-06-18T00:00:00	2024-11-08T21:00:00	2	Temperatura media	19.6
130650	7	Sololá	713	San Lucas Tolimán	10	San Lucas Tolimán	6	Junio	2023-06-18T00:00:00	2024-11-08T21:00:00	4	Temperatura máxima	19.8
130651	7	Sololá	713	San Lucas Tolimán	10	San Lucas Tolimán	6	Junio	2023-06-18T00:00:00	2024-11-08T21:00:00	3	Temperatura mínima	19.2
130652	7	Sololá	713	San Lucas Tolimán	10	San Lucas Tolimán	6	Junio	2023-06-18T00:00:00	2024-11-08T21:00:00	5	Humedad	57
130653	7	Sololá	713	San Lucas Tolimán	10	San Lucas Tolimán	6	Junio	2023-06-18T00:00:00	2024-11-08T21:00:00	6	Velocidad del viento	1.6
130654	7	Sololá	713	San Lucas Tolimán	10	San Lucas Tolimán	6	Junio	2023-06-18T00:00:00	2024-11-08T21:00:00	7	Dirección del viento	1.61
130655	7	Sololá	713	San Lucas Tolimán	10	San Lucas Tolimán	6	Junio	2023-06-18T00:00:00	2024-11-08T21:00:00	1	Precipitación	0
130656	7	Sololá	713	San Lucas Tolimán	10	San Lucas Tolimán	6	Junio	2023-06-18T00:00:00	2024-11-08T21:00:00	8	Radiación solar	0
130657	7	Sololá	713	San Lucas Tolimán	10	San Lucas Tolimán	6	Junio	2023-06-18T00:00:00	2024-11-08T22:00:00	2	Temperatura media	18.6
130658	7	Sololá	713	San Lucas Tolimán	10	San Lucas Tolimán	6	Junio	2023-06-18T00:00:00	2024-11-08T22:00:00	4	Temperatura máxima	19.6
130659	7	Sololá	713	San Lucas Tolimán	10	San Lucas Tolimán	6	Junio	2023-06-18T00:00:00	2024-11-08T22:00:00	3	Temperatura mínima	18.6
130660	7	Sololá	713	San Lucas Tolimán	10	San Lucas Tolimán	6	Junio	2023-06-18T00:00:00	2024-11-08T22:00:00	5	Humedad	61
130661	7	Sololá	713	San Lucas Tolimán	10	San Lucas Tolimán	6	Junio	2023-06-18T00:00:00	2024-11-08T22:00:00	6	Velocidad del viento	3.2
130662	7	Sololá	713	San Lucas Tolimán	10	San Lucas Tolimán	6	Junio	2023-06-18T00:00:00	2024-11-08T22:00:00	7	Dirección del viento	3.22
130663	7	Sololá	713	San Lucas Tolimán	10	San Lucas Tolimán	6	Junio	2023-06-18T00:00:00	2024-11-08T22:00:00	1	Precipitación	0
130664	7	Sololá	713	San Lucas Tolimán	10	San Lucas Tolimán	6	Junio	2023-06-18T00:00:00	2024-11-08T22:00:00	8	Radiación solar	0
130665	7	Sololá	713	San Lucas Tolimán	10	San Lucas Tolimán	6	Junio	2023-06-18T00:00:00	2024-11-08T23:00:00	2	Temperatura media	18.4
130666	7	Sololá	713	San Lucas Tolimán	10	San Lucas Tolimán	6	Junio	2023-06-18T00:00:00	2024-11-08T23:00:00	4	Temperatura máxima	18.6
130667	7	Sololá	713	San Lucas Tolimán	10	San Lucas Tolimán	6	Junio	2023-06-18T00:00:00	2024-11-08T23:00:00	3	Temperatura mínima	18.3
130668	7	Sololá	713	San Lucas Tolimán	10	San Lucas Tolimán	6	Junio	2023-06-18T00:00:00	2024-11-08T23:00:00	5	Humedad	62
130669	7	Sololá	713	San Lucas Tolimán	10	San Lucas Tolimán	6	Junio	2023-06-18T00:00:00	2024-11-08T23:00:00	6	Velocidad del viento	3.2
130670	7	Sololá	713	San Lucas Tolimán	10	San Lucas Tolimán	6	Junio	2023-06-18T00:00:00	2024-11-08T23:00:00	7	Dirección del viento	3.22
130671	7	Sololá	713	San Lucas Tolimán	10	San Lucas Tolimán	6	Junio	2023-06-18T00:00:00	2024-11-08T23:00:00	1	Precipitación	0
130672	7	Sololá	713	San Lucas Tolimán	10	San Lucas Tolimán	6	Junio	2023-06-18T00:00:00	2024-11-08T23:00:00	8	Radiación solar	0
130673	7	Sololá	713	San Lucas Tolimán	10	San Lucas Tolimán	6	Junio	2023-06-19T00:00:00	2024-11-08T00:00:00	2	Temperatura media	19
130674	7	Sololá	713	San Lucas Tolimán	10	San Lucas Tolimán	6	Junio	2023-06-19T00:00:00	2024-11-08T00:00:00	4	Temperatura máxima	19.1
130675	7	Sololá	713	San Lucas Tolimán	10	San Lucas Tolimán	6	Junio	2023-06-19T00:00:00	2024-11-08T00:00:00	3	Temperatura mínima	18.3
130676	7	Sololá	713	San Lucas Tolimán	10	San Lucas Tolimán	6	Junio	2023-06-19T00:00:00	2024-11-08T00:00:00	5	Humedad	59
130677	7	Sololá	713	San Lucas Tolimán	10	San Lucas Tolimán	6	Junio	2023-06-19T00:00:00	2024-11-08T00:00:00	6	Velocidad del viento	1.6
130678	7	Sololá	713	San Lucas Tolimán	10	San Lucas Tolimán	6	Junio	2023-06-19T00:00:00	2024-11-08T00:00:00	7	Dirección del viento	1.61
130679	7	Sololá	713	San Lucas Tolimán	10	San Lucas Tolimán	6	Junio	2023-06-19T00:00:00	2024-11-08T00:00:00	1	Precipitación	0
130680	7	Sololá	713	San Lucas Tolimán	10	San Lucas Tolimán	6	Junio	2023-06-19T00:00:00	2024-11-08T00:00:00	8	Radiación solar	0
130681	7	Sololá	713	San Lucas Tolimán	10	San Lucas Tolimán	6	Junio	2023-06-19T00:00:00	2024-11-08T01:00:00	2	Temperatura media	18.2
130682	7	Sololá	713	San Lucas Tolimán	10	San Lucas Tolimán	6	Junio	2023-06-19T00:00:00	2024-11-08T01:00:00	4	Temperatura máxima	19
130683	7	Sololá	713	San Lucas Tolimán	10	San Lucas Tolimán	6	Junio	2023-06-19T00:00:00	2024-11-08T01:00:00	3	Temperatura mínima	18.2
130684	7	Sololá	713	San Lucas Tolimán	10	San Lucas Tolimán	6	Junio	2023-06-19T00:00:00	2024-11-08T01:00:00	5	Humedad	61
130685	7	Sololá	713	San Lucas Tolimán	10	San Lucas Tolimán	6	Junio	2023-06-19T00:00:00	2024-11-08T01:00:00	6	Velocidad del viento	4.8
130686	7	Sololá	713	San Lucas Tolimán	10	San Lucas Tolimán	6	Junio	2023-06-19T00:00:00	2024-11-08T01:00:00	7	Dirección del viento	4.83
130687	7	Sololá	713	San Lucas Tolimán	10	San Lucas Tolimán	6	Junio	2023-06-19T00:00:00	2024-11-08T01:00:00	1	Precipitación	0
130688	7	Sololá	713	San Lucas Tolimán	10	San Lucas Tolimán	6	Junio	2023-06-19T00:00:00	2024-11-08T01:00:00	8	Radiación solar	0
130689	7	Sololá	713	San Lucas Tolimán	10	San Lucas Tolimán	6	Junio	2023-06-19T00:00:00	2024-11-08T02:00:00	2	Temperatura media	19.1
130690	7	Sololá	713	San Lucas Tolimán	10	San Lucas Tolimán	6	Junio	2023-06-19T00:00:00	2024-11-08T02:00:00	4	Temperatura máxima	19.1
130691	7	Sololá	713	San Lucas Tolimán	10	San Lucas Tolimán	6	Junio	2023-06-19T00:00:00	2024-11-08T02:00:00	3	Temperatura mínima	18.2
130692	7	Sololá	713	San Lucas Tolimán	10	San Lucas Tolimán	6	Junio	2023-06-19T00:00:00	2024-11-08T02:00:00	5	Humedad	58
130693	7	Sololá	713	San Lucas Tolimán	10	San Lucas Tolimán	6	Junio	2023-06-19T00:00:00	2024-11-08T02:00:00	6	Velocidad del viento	1.6
130694	7	Sololá	713	San Lucas Tolimán	10	San Lucas Tolimán	6	Junio	2023-06-19T00:00:00	2024-11-08T02:00:00	7	Dirección del viento	1.61
130695	7	Sololá	713	San Lucas Tolimán	10	San Lucas Tolimán	6	Junio	2023-06-19T00:00:00	2024-11-08T02:00:00	1	Precipitación	0
130696	7	Sololá	713	San Lucas Tolimán	10	San Lucas Tolimán	6	Junio	2023-06-19T00:00:00	2024-11-08T02:00:00	8	Radiación solar	0
130697	7	Sololá	713	San Lucas Tolimán	10	San Lucas Tolimán	6	Junio	2023-06-19T00:00:00	2024-11-08T03:00:00	2	Temperatura media	20.2
130698	7	Sololá	713	San Lucas Tolimán	10	San Lucas Tolimán	6	Junio	2023-06-19T00:00:00	2024-11-08T03:00:00	4	Temperatura máxima	20.3
130699	7	Sololá	713	San Lucas Tolimán	10	San Lucas Tolimán	6	Junio	2023-06-19T00:00:00	2024-11-08T03:00:00	3	Temperatura mínima	18.8
130700	7	Sololá	713	San Lucas Tolimán	10	San Lucas Tolimán	6	Junio	2023-06-19T00:00:00	2024-11-08T03:00:00	5	Humedad	56
130701	7	Sololá	713	San Lucas Tolimán	10	San Lucas Tolimán	6	Junio	2023-06-19T00:00:00	2024-11-08T03:00:00	6	Velocidad del viento	1.6
130702	7	Sololá	713	San Lucas Tolimán	10	San Lucas Tolimán	6	Junio	2023-06-19T00:00:00	2024-11-08T03:00:00	7	Dirección del viento	1.61
130703	7	Sololá	713	San Lucas Tolimán	10	San Lucas Tolimán	6	Junio	2023-06-19T00:00:00	2024-11-08T03:00:00	1	Precipitación	0
130704	7	Sololá	713	San Lucas Tolimán	10	San Lucas Tolimán	6	Junio	2023-06-19T00:00:00	2024-11-08T03:00:00	8	Radiación solar	0
130705	7	Sololá	713	San Lucas Tolimán	10	San Lucas Tolimán	6	Junio	2023-06-19T00:00:00	2024-11-08T04:00:00	2	Temperatura media	18.4
130706	7	Sololá	713	San Lucas Tolimán	10	San Lucas Tolimán	6	Junio	2023-06-19T00:00:00	2024-11-08T04:00:00	4	Temperatura máxima	20.3
130707	7	Sololá	713	San Lucas Tolimán	10	San Lucas Tolimán	6	Junio	2023-06-19T00:00:00	2024-11-08T04:00:00	3	Temperatura mínima	18.3
130708	7	Sololá	713	San Lucas Tolimán	10	San Lucas Tolimán	6	Junio	2023-06-19T00:00:00	2024-11-08T04:00:00	5	Humedad	62
130709	7	Sololá	713	San Lucas Tolimán	10	San Lucas Tolimán	6	Junio	2023-06-19T00:00:00	2024-11-08T04:00:00	6	Velocidad del viento	3.2
130710	7	Sololá	713	San Lucas Tolimán	10	San Lucas Tolimán	6	Junio	2023-06-19T00:00:00	2024-11-08T04:00:00	7	Dirección del viento	3.22
130711	7	Sololá	713	San Lucas Tolimán	10	San Lucas Tolimán	6	Junio	2023-06-19T00:00:00	2024-11-08T04:00:00	1	Precipitación	0
130712	7	Sololá	713	San Lucas Tolimán	10	San Lucas Tolimán	6	Junio	2023-06-19T00:00:00	2024-11-08T04:00:00	8	Radiación solar	0
130713	7	Sololá	713	San Lucas Tolimán	10	San Lucas Tolimán	6	Junio	2023-06-19T00:00:00	2024-11-08T05:00:00	2	Temperatura media	18.9
130714	7	Sololá	713	San Lucas Tolimán	10	San Lucas Tolimán	6	Junio	2023-06-19T00:00:00	2024-11-08T05:00:00	4	Temperatura máxima	19.8
130715	7	Sololá	713	San Lucas Tolimán	10	San Lucas Tolimán	6	Junio	2023-06-19T00:00:00	2024-11-08T05:00:00	3	Temperatura mínima	18.3
130716	7	Sololá	713	San Lucas Tolimán	10	San Lucas Tolimán	6	Junio	2023-06-19T00:00:00	2024-11-08T05:00:00	5	Humedad	60
130717	7	Sololá	713	San Lucas Tolimán	10	San Lucas Tolimán	6	Junio	2023-06-19T00:00:00	2024-11-08T05:00:00	6	Velocidad del viento	3.2
130718	7	Sololá	713	San Lucas Tolimán	10	San Lucas Tolimán	6	Junio	2023-06-19T00:00:00	2024-11-08T05:00:00	7	Dirección del viento	3.22
130719	7	Sololá	713	San Lucas Tolimán	10	San Lucas Tolimán	6	Junio	2023-06-19T00:00:00	2024-11-08T05:00:00	1	Precipitación	0
130720	7	Sololá	713	San Lucas Tolimán	10	San Lucas Tolimán	6	Junio	2023-06-19T00:00:00	2024-11-08T05:00:00	8	Radiación solar	0
130721	7	Sololá	713	San Lucas Tolimán	10	San Lucas Tolimán	6	Junio	2023-06-19T00:00:00	2024-11-08T06:00:00	2	Temperatura media	20.4
130722	7	Sololá	713	San Lucas Tolimán	10	San Lucas Tolimán	6	Junio	2023-06-19T00:00:00	2024-11-08T06:00:00	4	Temperatura máxima	20.9
130723	7	Sololá	713	San Lucas Tolimán	10	San Lucas Tolimán	6	Junio	2023-06-19T00:00:00	2024-11-08T06:00:00	3	Temperatura mínima	18.8
130724	7	Sololá	713	San Lucas Tolimán	10	San Lucas Tolimán	6	Junio	2023-06-19T00:00:00	2024-11-08T06:00:00	5	Humedad	56
130725	7	Sololá	713	San Lucas Tolimán	10	San Lucas Tolimán	6	Junio	2023-06-19T00:00:00	2024-11-08T06:00:00	6	Velocidad del viento	4.8
130726	7	Sololá	713	San Lucas Tolimán	10	San Lucas Tolimán	6	Junio	2023-06-19T00:00:00	2024-11-08T06:00:00	7	Dirección del viento	4.83
130727	7	Sololá	713	San Lucas Tolimán	10	San Lucas Tolimán	6	Junio	2023-06-19T00:00:00	2024-11-08T06:00:00	1	Precipitación	0
130728	7	Sololá	713	San Lucas Tolimán	10	San Lucas Tolimán	6	Junio	2023-06-19T00:00:00	2024-11-08T06:00:00	8	Radiación solar	7
130729	7	Sololá	713	San Lucas Tolimán	10	San Lucas Tolimán	6	Junio	2023-06-19T00:00:00	2024-11-08T07:00:00	2	Temperatura media	20.2
130730	7	Sololá	713	San Lucas Tolimán	10	San Lucas Tolimán	6	Junio	2023-06-19T00:00:00	2024-11-08T07:00:00	4	Temperatura máxima	20.6
130731	7	Sololá	713	San Lucas Tolimán	10	San Lucas Tolimán	6	Junio	2023-06-19T00:00:00	2024-11-08T07:00:00	3	Temperatura mínima	19.9
130732	7	Sololá	713	San Lucas Tolimán	10	San Lucas Tolimán	6	Junio	2023-06-19T00:00:00	2024-11-08T07:00:00	5	Humedad	62
130733	7	Sololá	713	San Lucas Tolimán	10	San Lucas Tolimán	6	Junio	2023-06-19T00:00:00	2024-11-08T07:00:00	6	Velocidad del viento	4.8
130734	7	Sololá	713	San Lucas Tolimán	10	San Lucas Tolimán	6	Junio	2023-06-19T00:00:00	2024-11-08T07:00:00	7	Dirección del viento	4.83
130735	7	Sololá	713	San Lucas Tolimán	10	San Lucas Tolimán	6	Junio	2023-06-19T00:00:00	2024-11-08T07:00:00	1	Precipitación	0
130736	7	Sololá	713	San Lucas Tolimán	10	San Lucas Tolimán	6	Junio	2023-06-19T00:00:00	2024-11-08T07:00:00	8	Radiación solar	112
130737	7	Sololá	713	San Lucas Tolimán	10	San Lucas Tolimán	6	Junio	2023-06-19T00:00:00	2024-11-08T08:00:00	2	Temperatura media	22
130738	7	Sololá	713	San Lucas Tolimán	10	San Lucas Tolimán	6	Junio	2023-06-19T00:00:00	2024-11-08T08:00:00	4	Temperatura máxima	22
130739	7	Sololá	713	San Lucas Tolimán	10	San Lucas Tolimán	6	Junio	2023-06-19T00:00:00	2024-11-08T08:00:00	3	Temperatura mínima	20.2
130740	7	Sololá	713	San Lucas Tolimán	10	San Lucas Tolimán	6	Junio	2023-06-19T00:00:00	2024-11-08T08:00:00	5	Humedad	57
130741	7	Sololá	713	San Lucas Tolimán	10	San Lucas Tolimán	6	Junio	2023-06-19T00:00:00	2024-11-08T08:00:00	6	Velocidad del viento	4.8
130742	7	Sololá	713	San Lucas Tolimán	10	San Lucas Tolimán	6	Junio	2023-06-19T00:00:00	2024-11-08T08:00:00	7	Dirección del viento	4.83
130743	7	Sololá	713	San Lucas Tolimán	10	San Lucas Tolimán	6	Junio	2023-06-19T00:00:00	2024-11-08T08:00:00	1	Precipitación	0
130744	7	Sololá	713	San Lucas Tolimán	10	San Lucas Tolimán	6	Junio	2023-06-19T00:00:00	2024-11-08T08:00:00	8	Radiación solar	321
130745	7	Sololá	713	San Lucas Tolimán	10	San Lucas Tolimán	6	Junio	2023-06-19T00:00:00	2024-11-08T09:00:00	2	Temperatura media	22.4
130746	7	Sololá	713	San Lucas Tolimán	10	San Lucas Tolimán	6	Junio	2023-06-19T00:00:00	2024-11-08T09:00:00	4	Temperatura máxima	22.5
130747	7	Sololá	713	San Lucas Tolimán	10	San Lucas Tolimán	6	Junio	2023-06-19T00:00:00	2024-11-08T09:00:00	3	Temperatura mínima	21.7
130748	7	Sololá	713	San Lucas Tolimán	10	San Lucas Tolimán	6	Junio	2023-06-19T00:00:00	2024-11-08T09:00:00	5	Humedad	60
130749	7	Sololá	713	San Lucas Tolimán	10	San Lucas Tolimán	6	Junio	2023-06-19T00:00:00	2024-11-08T09:00:00	6	Velocidad del viento	6.4
130750	7	Sololá	713	San Lucas Tolimán	10	San Lucas Tolimán	6	Junio	2023-06-19T00:00:00	2024-11-08T09:00:00	7	Dirección del viento	6.44
130751	7	Sololá	713	San Lucas Tolimán	10	San Lucas Tolimán	6	Junio	2023-06-19T00:00:00	2024-11-08T09:00:00	1	Precipitación	0
130752	7	Sololá	713	San Lucas Tolimán	10	San Lucas Tolimán	6	Junio	2023-06-19T00:00:00	2024-11-08T09:00:00	8	Radiación solar	633
130753	7	Sololá	713	San Lucas Tolimán	10	San Lucas Tolimán	6	Junio	2023-06-19T00:00:00	2024-11-08T10:00:00	2	Temperatura media	23.4
130754	7	Sololá	713	San Lucas Tolimán	10	San Lucas Tolimán	6	Junio	2023-06-19T00:00:00	2024-11-08T10:00:00	4	Temperatura máxima	24.4
130755	7	Sololá	713	San Lucas Tolimán	10	San Lucas Tolimán	6	Junio	2023-06-19T00:00:00	2024-11-08T10:00:00	3	Temperatura mínima	22.4
130756	7	Sololá	713	San Lucas Tolimán	10	San Lucas Tolimán	6	Junio	2023-06-19T00:00:00	2024-11-08T10:00:00	5	Humedad	60
130757	7	Sololá	713	San Lucas Tolimán	10	San Lucas Tolimán	6	Junio	2023-06-19T00:00:00	2024-11-08T10:00:00	6	Velocidad del viento	8
130758	7	Sololá	713	San Lucas Tolimán	10	San Lucas Tolimán	6	Junio	2023-06-19T00:00:00	2024-11-08T10:00:00	7	Dirección del viento	8.05
130759	7	Sololá	713	San Lucas Tolimán	10	San Lucas Tolimán	6	Junio	2023-06-19T00:00:00	2024-11-08T10:00:00	1	Precipitación	0
130760	7	Sololá	713	San Lucas Tolimán	10	San Lucas Tolimán	6	Junio	2023-06-19T00:00:00	2024-11-08T10:00:00	8	Radiación solar	914
130761	7	Sololá	713	San Lucas Tolimán	10	San Lucas Tolimán	6	Junio	2023-06-19T00:00:00	2024-11-08T11:00:00	2	Temperatura media	22.9
130762	7	Sololá	713	San Lucas Tolimán	10	San Lucas Tolimán	6	Junio	2023-06-19T00:00:00	2024-11-08T11:00:00	4	Temperatura máxima	23.5
130763	7	Sololá	713	San Lucas Tolimán	10	San Lucas Tolimán	6	Junio	2023-06-19T00:00:00	2024-11-08T11:00:00	3	Temperatura mínima	22.4
130764	7	Sololá	713	San Lucas Tolimán	10	San Lucas Tolimán	6	Junio	2023-06-19T00:00:00	2024-11-08T11:00:00	5	Humedad	60
130765	7	Sololá	713	San Lucas Tolimán	10	San Lucas Tolimán	6	Junio	2023-06-19T00:00:00	2024-11-08T11:00:00	6	Velocidad del viento	11.3
130766	7	Sololá	713	San Lucas Tolimán	10	San Lucas Tolimán	6	Junio	2023-06-19T00:00:00	2024-11-08T11:00:00	7	Dirección del viento	11.27
130767	7	Sololá	713	San Lucas Tolimán	10	San Lucas Tolimán	6	Junio	2023-06-19T00:00:00	2024-11-08T11:00:00	1	Precipitación	0
130768	7	Sololá	713	San Lucas Tolimán	10	San Lucas Tolimán	6	Junio	2023-06-19T00:00:00	2024-11-08T11:00:00	8	Radiación solar	1000
130769	7	Sololá	713	San Lucas Tolimán	10	San Lucas Tolimán	6	Junio	2023-06-19T00:00:00	2024-11-08T12:00:00	2	Temperatura media	22.9
130770	7	Sololá	713	San Lucas Tolimán	10	San Lucas Tolimán	6	Junio	2023-06-19T00:00:00	2024-11-08T12:00:00	4	Temperatura máxima	22.9
130771	7	Sololá	713	San Lucas Tolimán	10	San Lucas Tolimán	6	Junio	2023-06-19T00:00:00	2024-11-08T12:00:00	3	Temperatura mínima	21.5
130772	7	Sololá	713	San Lucas Tolimán	10	San Lucas Tolimán	6	Junio	2023-06-19T00:00:00	2024-11-08T12:00:00	5	Humedad	59
130773	7	Sololá	713	San Lucas Tolimán	10	San Lucas Tolimán	6	Junio	2023-06-19T00:00:00	2024-11-08T12:00:00	6	Velocidad del viento	12.9
130774	7	Sololá	713	San Lucas Tolimán	10	San Lucas Tolimán	6	Junio	2023-06-19T00:00:00	2024-11-08T12:00:00	7	Dirección del viento	12.87
130775	7	Sololá	713	San Lucas Tolimán	10	San Lucas Tolimán	6	Junio	2023-06-19T00:00:00	2024-11-08T12:00:00	1	Precipitación	0
130776	7	Sololá	713	San Lucas Tolimán	10	San Lucas Tolimán	6	Junio	2023-06-19T00:00:00	2024-11-08T12:00:00	8	Radiación solar	635
130777	7	Sololá	713	San Lucas Tolimán	10	San Lucas Tolimán	6	Junio	2023-06-19T00:00:00	2024-11-08T13:00:00	2	Temperatura media	21.6
130778	7	Sololá	713	San Lucas Tolimán	10	San Lucas Tolimán	6	Junio	2023-06-19T00:00:00	2024-11-08T13:00:00	4	Temperatura máxima	23.8
130779	7	Sololá	713	San Lucas Tolimán	10	San Lucas Tolimán	6	Junio	2023-06-19T00:00:00	2024-11-08T13:00:00	3	Temperatura mínima	21.6
130780	7	Sololá	713	San Lucas Tolimán	10	San Lucas Tolimán	6	Junio	2023-06-19T00:00:00	2024-11-08T13:00:00	5	Humedad	63
130781	7	Sololá	713	San Lucas Tolimán	10	San Lucas Tolimán	6	Junio	2023-06-19T00:00:00	2024-11-08T13:00:00	6	Velocidad del viento	9.7
130782	7	Sololá	713	San Lucas Tolimán	10	San Lucas Tolimán	6	Junio	2023-06-19T00:00:00	2024-11-08T13:00:00	7	Dirección del viento	9.66
130783	7	Sololá	713	San Lucas Tolimán	10	San Lucas Tolimán	6	Junio	2023-06-19T00:00:00	2024-11-08T13:00:00	1	Precipitación	0
130784	7	Sololá	713	San Lucas Tolimán	10	San Lucas Tolimán	6	Junio	2023-06-19T00:00:00	2024-11-08T13:00:00	8	Radiación solar	509
130785	7	Sololá	713	San Lucas Tolimán	10	San Lucas Tolimán	6	Junio	2023-06-19T00:00:00	2024-11-08T14:00:00	2	Temperatura media	22.4
130786	7	Sololá	713	San Lucas Tolimán	10	San Lucas Tolimán	6	Junio	2023-06-19T00:00:00	2024-11-08T14:00:00	4	Temperatura máxima	23.7
130787	7	Sololá	713	San Lucas Tolimán	10	San Lucas Tolimán	6	Junio	2023-06-19T00:00:00	2024-11-08T14:00:00	3	Temperatura mínima	22.4
130788	7	Sololá	713	San Lucas Tolimán	10	San Lucas Tolimán	6	Junio	2023-06-19T00:00:00	2024-11-08T14:00:00	5	Humedad	64
130789	7	Sololá	713	San Lucas Tolimán	10	San Lucas Tolimán	6	Junio	2023-06-19T00:00:00	2024-11-08T14:00:00	6	Velocidad del viento	9.7
130790	7	Sololá	713	San Lucas Tolimán	10	San Lucas Tolimán	6	Junio	2023-06-19T00:00:00	2024-11-08T14:00:00	7	Dirección del viento	9.66
130791	7	Sololá	713	San Lucas Tolimán	10	San Lucas Tolimán	6	Junio	2023-06-19T00:00:00	2024-11-08T14:00:00	1	Precipitación	0
130792	7	Sololá	713	San Lucas Tolimán	10	San Lucas Tolimán	6	Junio	2023-06-19T00:00:00	2024-11-08T14:00:00	8	Radiación solar	714
130793	7	Sololá	713	San Lucas Tolimán	10	San Lucas Tolimán	6	Junio	2023-06-19T00:00:00	2024-11-08T15:00:00	2	Temperatura media	23.6
130794	7	Sololá	713	San Lucas Tolimán	10	San Lucas Tolimán	6	Junio	2023-06-19T00:00:00	2024-11-08T15:00:00	4	Temperatura máxima	23.6
130795	7	Sololá	713	San Lucas Tolimán	10	San Lucas Tolimán	6	Junio	2023-06-19T00:00:00	2024-11-08T15:00:00	3	Temperatura mínima	22.1
130796	7	Sololá	713	San Lucas Tolimán	10	San Lucas Tolimán	6	Junio	2023-06-19T00:00:00	2024-11-08T15:00:00	5	Humedad	60
130797	7	Sololá	713	San Lucas Tolimán	10	San Lucas Tolimán	6	Junio	2023-06-19T00:00:00	2024-11-08T15:00:00	6	Velocidad del viento	6.4
130798	7	Sololá	713	San Lucas Tolimán	10	San Lucas Tolimán	6	Junio	2023-06-19T00:00:00	2024-11-08T15:00:00	7	Dirección del viento	6.44
130799	7	Sololá	713	San Lucas Tolimán	10	San Lucas Tolimán	6	Junio	2023-06-19T00:00:00	2024-11-08T15:00:00	1	Precipitación	0
130800	7	Sololá	713	San Lucas Tolimán	10	San Lucas Tolimán	6	Junio	2023-06-19T00:00:00	2024-11-08T15:00:00	8	Radiación solar	566
130801	7	Sololá	713	San Lucas Tolimán	10	San Lucas Tolimán	6	Junio	2023-06-19T00:00:00	2024-11-08T16:00:00	2	Temperatura media	21.9
130802	7	Sololá	713	San Lucas Tolimán	10	San Lucas Tolimán	6	Junio	2023-06-19T00:00:00	2024-11-08T16:00:00	4	Temperatura máxima	23.7
130803	7	Sololá	713	San Lucas Tolimán	10	San Lucas Tolimán	6	Junio	2023-06-19T00:00:00	2024-11-08T16:00:00	3	Temperatura mínima	21.9
130804	7	Sololá	713	San Lucas Tolimán	10	San Lucas Tolimán	6	Junio	2023-06-19T00:00:00	2024-11-08T16:00:00	5	Humedad	65
130805	7	Sololá	713	San Lucas Tolimán	10	San Lucas Tolimán	6	Junio	2023-06-19T00:00:00	2024-11-08T16:00:00	6	Velocidad del viento	6.4
130806	7	Sololá	713	San Lucas Tolimán	10	San Lucas Tolimán	6	Junio	2023-06-19T00:00:00	2024-11-08T16:00:00	7	Dirección del viento	6.44
130807	7	Sololá	713	San Lucas Tolimán	10	San Lucas Tolimán	6	Junio	2023-06-19T00:00:00	2024-11-08T16:00:00	1	Precipitación	0
130808	7	Sololá	713	San Lucas Tolimán	10	San Lucas Tolimán	6	Junio	2023-06-19T00:00:00	2024-11-08T16:00:00	8	Radiación solar	307
130809	7	Sololá	713	San Lucas Tolimán	10	San Lucas Tolimán	6	Junio	2023-06-19T00:00:00	2024-11-08T17:00:00	2	Temperatura media	21.4
130810	7	Sololá	713	San Lucas Tolimán	10	San Lucas Tolimán	6	Junio	2023-06-19T00:00:00	2024-11-08T17:00:00	4	Temperatura máxima	22.4
130811	7	Sololá	713	San Lucas Tolimán	10	San Lucas Tolimán	6	Junio	2023-06-19T00:00:00	2024-11-08T17:00:00	3	Temperatura mínima	21.3
130812	7	Sololá	713	San Lucas Tolimán	10	San Lucas Tolimán	6	Junio	2023-06-19T00:00:00	2024-11-08T17:00:00	5	Humedad	66
130813	7	Sololá	713	San Lucas Tolimán	10	San Lucas Tolimán	6	Junio	2023-06-19T00:00:00	2024-11-08T17:00:00	6	Velocidad del viento	6.4
130814	7	Sololá	713	San Lucas Tolimán	10	San Lucas Tolimán	6	Junio	2023-06-19T00:00:00	2024-11-08T17:00:00	7	Dirección del viento	6.44
130815	7	Sololá	713	San Lucas Tolimán	10	San Lucas Tolimán	6	Junio	2023-06-19T00:00:00	2024-11-08T17:00:00	1	Precipitación	0
130816	7	Sololá	713	San Lucas Tolimán	10	San Lucas Tolimán	6	Junio	2023-06-19T00:00:00	2024-11-08T17:00:00	8	Radiación solar	206
130817	7	Sololá	713	San Lucas Tolimán	10	San Lucas Tolimán	6	Junio	2023-06-19T00:00:00	2024-11-08T18:00:00	2	Temperatura media	20.5
130818	7	Sololá	713	San Lucas Tolimán	10	San Lucas Tolimán	6	Junio	2023-06-19T00:00:00	2024-11-08T18:00:00	4	Temperatura máxima	21.4
130819	7	Sololá	713	San Lucas Tolimán	10	San Lucas Tolimán	6	Junio	2023-06-19T00:00:00	2024-11-08T18:00:00	3	Temperatura mínima	20.3
130820	7	Sololá	713	San Lucas Tolimán	10	San Lucas Tolimán	6	Junio	2023-06-19T00:00:00	2024-11-08T18:00:00	5	Humedad	68
130821	7	Sololá	713	San Lucas Tolimán	10	San Lucas Tolimán	6	Junio	2023-06-19T00:00:00	2024-11-08T18:00:00	6	Velocidad del viento	8
130822	7	Sololá	713	San Lucas Tolimán	10	San Lucas Tolimán	6	Junio	2023-06-19T00:00:00	2024-11-08T18:00:00	7	Dirección del viento	8.05
130823	7	Sololá	713	San Lucas Tolimán	10	San Lucas Tolimán	6	Junio	2023-06-19T00:00:00	2024-11-08T18:00:00	1	Precipitación	0
130824	7	Sololá	713	San Lucas Tolimán	10	San Lucas Tolimán	6	Junio	2023-06-19T00:00:00	2024-11-08T18:00:00	8	Radiación solar	142
130825	7	Sololá	713	San Lucas Tolimán	10	San Lucas Tolimán	6	Junio	2023-06-19T00:00:00	2024-11-08T19:00:00	2	Temperatura media	18.9
130826	7	Sololá	713	San Lucas Tolimán	10	San Lucas Tolimán	6	Junio	2023-06-19T00:00:00	2024-11-08T19:00:00	4	Temperatura máxima	20.5
130827	7	Sololá	713	San Lucas Tolimán	10	San Lucas Tolimán	6	Junio	2023-06-19T00:00:00	2024-11-08T19:00:00	3	Temperatura mínima	18.9
130828	7	Sololá	713	San Lucas Tolimán	10	San Lucas Tolimán	6	Junio	2023-06-19T00:00:00	2024-11-08T19:00:00	5	Humedad	72
130829	7	Sololá	713	San Lucas Tolimán	10	San Lucas Tolimán	6	Junio	2023-06-19T00:00:00	2024-11-08T19:00:00	6	Velocidad del viento	6.4
130830	7	Sololá	713	San Lucas Tolimán	10	San Lucas Tolimán	6	Junio	2023-06-19T00:00:00	2024-11-08T19:00:00	7	Dirección del viento	6.44
130831	7	Sololá	713	San Lucas Tolimán	10	San Lucas Tolimán	6	Junio	2023-06-19T00:00:00	2024-11-08T19:00:00	1	Precipitación	4.8
130832	7	Sololá	713	San Lucas Tolimán	10	San Lucas Tolimán	6	Junio	2023-06-19T00:00:00	2024-11-08T19:00:00	8	Radiación solar	0
130833	7	Sololá	713	San Lucas Tolimán	10	San Lucas Tolimán	6	Junio	2023-06-19T00:00:00	2024-11-08T20:00:00	2	Temperatura media	18.1
130834	7	Sololá	713	San Lucas Tolimán	10	San Lucas Tolimán	6	Junio	2023-06-19T00:00:00	2024-11-08T20:00:00	4	Temperatura máxima	19.1
130835	7	Sololá	713	San Lucas Tolimán	10	San Lucas Tolimán	6	Junio	2023-06-19T00:00:00	2024-11-08T20:00:00	3	Temperatura mínima	17.9
130836	7	Sololá	713	San Lucas Tolimán	10	San Lucas Tolimán	6	Junio	2023-06-19T00:00:00	2024-11-08T20:00:00	5	Humedad	72
130837	7	Sololá	713	San Lucas Tolimán	10	San Lucas Tolimán	6	Junio	2023-06-19T00:00:00	2024-11-08T20:00:00	6	Velocidad del viento	6.4
130838	7	Sololá	713	San Lucas Tolimán	10	San Lucas Tolimán	6	Junio	2023-06-19T00:00:00	2024-11-08T20:00:00	7	Dirección del viento	6.44
130839	7	Sololá	713	San Lucas Tolimán	10	San Lucas Tolimán	6	Junio	2023-06-19T00:00:00	2024-11-08T20:00:00	1	Precipitación	0.4
130840	7	Sololá	713	San Lucas Tolimán	10	San Lucas Tolimán	6	Junio	2023-06-19T00:00:00	2024-11-08T20:00:00	8	Radiación solar	0
130841	7	Sololá	713	San Lucas Tolimán	10	San Lucas Tolimán	6	Junio	2023-06-19T00:00:00	2024-11-08T21:00:00	2	Temperatura media	17.9
130842	7	Sololá	713	San Lucas Tolimán	10	San Lucas Tolimán	6	Junio	2023-06-19T00:00:00	2024-11-08T21:00:00	4	Temperatura máxima	18.5
130843	7	Sololá	713	San Lucas Tolimán	10	San Lucas Tolimán	6	Junio	2023-06-19T00:00:00	2024-11-08T21:00:00	3	Temperatura mínima	17.9
130844	7	Sololá	713	San Lucas Tolimán	10	San Lucas Tolimán	6	Junio	2023-06-19T00:00:00	2024-11-08T21:00:00	5	Humedad	72
130845	7	Sololá	713	San Lucas Tolimán	10	San Lucas Tolimán	6	Junio	2023-06-19T00:00:00	2024-11-08T21:00:00	6	Velocidad del viento	3.2
130846	7	Sololá	713	San Lucas Tolimán	10	San Lucas Tolimán	6	Junio	2023-06-19T00:00:00	2024-11-08T21:00:00	7	Dirección del viento	3.22
130847	7	Sololá	713	San Lucas Tolimán	10	San Lucas Tolimán	6	Junio	2023-06-19T00:00:00	2024-11-08T21:00:00	1	Precipitación	0.6
130848	7	Sololá	713	San Lucas Tolimán	10	San Lucas Tolimán	6	Junio	2023-06-19T00:00:00	2024-11-08T21:00:00	8	Radiación solar	0
130849	7	Sololá	713	San Lucas Tolimán	10	San Lucas Tolimán	6	Junio	2023-06-19T00:00:00	2024-11-08T22:00:00	2	Temperatura media	18.2
130850	7	Sololá	713	San Lucas Tolimán	10	San Lucas Tolimán	6	Junio	2023-06-19T00:00:00	2024-11-08T22:00:00	4	Temperatura máxima	18.2
130851	7	Sololá	713	San Lucas Tolimán	10	San Lucas Tolimán	6	Junio	2023-06-19T00:00:00	2024-11-08T22:00:00	3	Temperatura mínima	17.8
130852	7	Sololá	713	San Lucas Tolimán	10	San Lucas Tolimán	6	Junio	2023-06-19T00:00:00	2024-11-08T22:00:00	5	Humedad	72
130853	7	Sololá	713	San Lucas Tolimán	10	San Lucas Tolimán	6	Junio	2023-06-19T00:00:00	2024-11-08T22:00:00	6	Velocidad del viento	1.6
130854	7	Sololá	713	San Lucas Tolimán	10	San Lucas Tolimán	6	Junio	2023-06-19T00:00:00	2024-11-08T22:00:00	7	Dirección del viento	1.61
130855	7	Sololá	713	San Lucas Tolimán	10	San Lucas Tolimán	6	Junio	2023-06-19T00:00:00	2024-11-08T22:00:00	1	Precipitación	0.6
130856	7	Sololá	713	San Lucas Tolimán	10	San Lucas Tolimán	6	Junio	2023-06-19T00:00:00	2024-11-08T22:00:00	8	Radiación solar	0
130857	7	Sololá	713	San Lucas Tolimán	10	San Lucas Tolimán	6	Junio	2023-06-19T00:00:00	2024-11-08T23:00:00	2	Temperatura media	17.8
130858	7	Sololá	713	San Lucas Tolimán	10	San Lucas Tolimán	6	Junio	2023-06-19T00:00:00	2024-11-08T23:00:00	4	Temperatura máxima	18.4
130859	7	Sololá	713	San Lucas Tolimán	10	San Lucas Tolimán	6	Junio	2023-06-19T00:00:00	2024-11-08T23:00:00	3	Temperatura mínima	17.8
130860	7	Sololá	713	San Lucas Tolimán	10	San Lucas Tolimán	6	Junio	2023-06-19T00:00:00	2024-11-08T23:00:00	5	Humedad	72
130861	7	Sololá	713	San Lucas Tolimán	10	San Lucas Tolimán	6	Junio	2023-06-19T00:00:00	2024-11-08T23:00:00	6	Velocidad del viento	3.2
130862	7	Sololá	713	San Lucas Tolimán	10	San Lucas Tolimán	6	Junio	2023-06-19T00:00:00	2024-11-08T23:00:00	7	Dirección del viento	3.22
130863	7	Sololá	713	San Lucas Tolimán	10	San Lucas Tolimán	6	Junio	2023-06-19T00:00:00	2024-11-08T23:00:00	1	Precipitación	0
130864	7	Sololá	713	San Lucas Tolimán	10	San Lucas Tolimán	6	Junio	2023-06-19T00:00:00	2024-11-08T23:00:00	8	Radiación solar	0
130865	7	Sololá	713	San Lucas Tolimán	10	San Lucas Tolimán	6	Junio	2023-06-20T00:00:00	2024-11-08T00:00:00	2	Temperatura media	17.7
130866	7	Sololá	713	San Lucas Tolimán	10	San Lucas Tolimán	6	Junio	2023-06-20T00:00:00	2024-11-08T00:00:00	4	Temperatura máxima	17.8
130867	7	Sololá	713	San Lucas Tolimán	10	San Lucas Tolimán	6	Junio	2023-06-20T00:00:00	2024-11-08T00:00:00	3	Temperatura mínima	17.6
130868	7	Sololá	713	San Lucas Tolimán	10	San Lucas Tolimán	6	Junio	2023-06-20T00:00:00	2024-11-08T00:00:00	5	Humedad	72
130869	7	Sololá	713	San Lucas Tolimán	10	San Lucas Tolimán	6	Junio	2023-06-20T00:00:00	2024-11-08T00:00:00	6	Velocidad del viento	4.8
130870	7	Sololá	713	San Lucas Tolimán	10	San Lucas Tolimán	6	Junio	2023-06-20T00:00:00	2024-11-08T00:00:00	7	Dirección del viento	4.83
130871	7	Sololá	713	San Lucas Tolimán	10	San Lucas Tolimán	6	Junio	2023-06-20T00:00:00	2024-11-08T00:00:00	1	Precipitación	0
130872	7	Sololá	713	San Lucas Tolimán	10	San Lucas Tolimán	6	Junio	2023-06-20T00:00:00	2024-11-08T00:00:00	8	Radiación solar	0
130873	7	Sololá	713	San Lucas Tolimán	10	San Lucas Tolimán	6	Junio	2023-06-20T00:00:00	2024-11-08T01:00:00	2	Temperatura media	17.6
130874	7	Sololá	713	San Lucas Tolimán	10	San Lucas Tolimán	6	Junio	2023-06-20T00:00:00	2024-11-08T01:00:00	4	Temperatura máxima	17.9
130875	7	Sololá	713	San Lucas Tolimán	10	San Lucas Tolimán	6	Junio	2023-06-20T00:00:00	2024-11-08T01:00:00	3	Temperatura mínima	17.6
130876	7	Sololá	713	San Lucas Tolimán	10	San Lucas Tolimán	6	Junio	2023-06-20T00:00:00	2024-11-08T01:00:00	5	Humedad	72
130877	7	Sololá	713	San Lucas Tolimán	10	San Lucas Tolimán	6	Junio	2023-06-20T00:00:00	2024-11-08T01:00:00	6	Velocidad del viento	3.2
130878	7	Sololá	713	San Lucas Tolimán	10	San Lucas Tolimán	6	Junio	2023-06-20T00:00:00	2024-11-08T01:00:00	7	Dirección del viento	3.22
130879	7	Sololá	713	San Lucas Tolimán	10	San Lucas Tolimán	6	Junio	2023-06-20T00:00:00	2024-11-08T01:00:00	1	Precipitación	0
130880	7	Sololá	713	San Lucas Tolimán	10	San Lucas Tolimán	6	Junio	2023-06-20T00:00:00	2024-11-08T01:00:00	8	Radiación solar	0
130881	7	Sololá	713	San Lucas Tolimán	10	San Lucas Tolimán	6	Junio	2023-06-20T00:00:00	2024-11-08T02:00:00	2	Temperatura media	17.4
130882	7	Sololá	713	San Lucas Tolimán	10	San Lucas Tolimán	6	Junio	2023-06-20T00:00:00	2024-11-08T02:00:00	4	Temperatura máxima	17.6
130883	7	Sololá	713	San Lucas Tolimán	10	San Lucas Tolimán	6	Junio	2023-06-20T00:00:00	2024-11-08T02:00:00	3	Temperatura mínima	17.3
130884	7	Sololá	713	San Lucas Tolimán	10	San Lucas Tolimán	6	Junio	2023-06-20T00:00:00	2024-11-08T02:00:00	5	Humedad	72
130885	7	Sololá	713	San Lucas Tolimán	10	San Lucas Tolimán	6	Junio	2023-06-20T00:00:00	2024-11-08T02:00:00	6	Velocidad del viento	1.6
130886	7	Sololá	713	San Lucas Tolimán	10	San Lucas Tolimán	6	Junio	2023-06-20T00:00:00	2024-11-08T02:00:00	7	Dirección del viento	1.61
130887	7	Sololá	713	San Lucas Tolimán	10	San Lucas Tolimán	6	Junio	2023-06-20T00:00:00	2024-11-08T02:00:00	1	Precipitación	0
130888	7	Sololá	713	San Lucas Tolimán	10	San Lucas Tolimán	6	Junio	2023-06-20T00:00:00	2024-11-08T02:00:00	8	Radiación solar	0
130889	7	Sololá	713	San Lucas Tolimán	10	San Lucas Tolimán	6	Junio	2023-06-20T00:00:00	2024-11-08T03:00:00	2	Temperatura media	17.9
130890	7	Sololá	713	San Lucas Tolimán	10	San Lucas Tolimán	6	Junio	2023-06-20T00:00:00	2024-11-08T03:00:00	4	Temperatura máxima	17.9
130891	7	Sololá	713	San Lucas Tolimán	10	San Lucas Tolimán	6	Junio	2023-06-20T00:00:00	2024-11-08T03:00:00	3	Temperatura mínima	17.3
130892	7	Sololá	713	San Lucas Tolimán	10	San Lucas Tolimán	6	Junio	2023-06-20T00:00:00	2024-11-08T03:00:00	5	Humedad	70
130893	7	Sololá	713	San Lucas Tolimán	10	San Lucas Tolimán	6	Junio	2023-06-20T00:00:00	2024-11-08T03:00:00	6	Velocidad del viento	6.4
130894	7	Sololá	713	San Lucas Tolimán	10	San Lucas Tolimán	6	Junio	2023-06-20T00:00:00	2024-11-08T03:00:00	7	Dirección del viento	6.44
130895	7	Sololá	713	San Lucas Tolimán	10	San Lucas Tolimán	6	Junio	2023-06-20T00:00:00	2024-11-08T03:00:00	1	Precipitación	0
130896	7	Sololá	713	San Lucas Tolimán	10	San Lucas Tolimán	6	Junio	2023-06-20T00:00:00	2024-11-08T03:00:00	8	Radiación solar	0
130897	7	Sololá	713	San Lucas Tolimán	10	San Lucas Tolimán	6	Junio	2023-06-20T00:00:00	2024-11-08T04:00:00	2	Temperatura media	17.5
130898	7	Sololá	713	San Lucas Tolimán	10	San Lucas Tolimán	6	Junio	2023-06-20T00:00:00	2024-11-08T04:00:00	4	Temperatura máxima	17.9
130899	7	Sololá	713	San Lucas Tolimán	10	San Lucas Tolimán	6	Junio	2023-06-20T00:00:00	2024-11-08T04:00:00	3	Temperatura mínima	17.5
130900	7	Sololá	713	San Lucas Tolimán	10	San Lucas Tolimán	6	Junio	2023-06-20T00:00:00	2024-11-08T04:00:00	5	Humedad	72
130901	7	Sololá	713	San Lucas Tolimán	10	San Lucas Tolimán	6	Junio	2023-06-20T00:00:00	2024-11-08T04:00:00	6	Velocidad del viento	3.2
130902	7	Sololá	713	San Lucas Tolimán	10	San Lucas Tolimán	6	Junio	2023-06-20T00:00:00	2024-11-08T04:00:00	7	Dirección del viento	3.22
130903	7	Sololá	713	San Lucas Tolimán	10	San Lucas Tolimán	6	Junio	2023-06-20T00:00:00	2024-11-08T04:00:00	1	Precipitación	0.6
130904	7	Sololá	713	San Lucas Tolimán	10	San Lucas Tolimán	6	Junio	2023-06-20T00:00:00	2024-11-08T04:00:00	8	Radiación solar	0
130905	7	Sololá	713	San Lucas Tolimán	10	San Lucas Tolimán	6	Junio	2023-06-20T00:00:00	2024-11-08T05:00:00	2	Temperatura media	17.4
130906	7	Sololá	713	San Lucas Tolimán	10	San Lucas Tolimán	6	Junio	2023-06-20T00:00:00	2024-11-08T05:00:00	4	Temperatura máxima	17.6
130907	7	Sololá	713	San Lucas Tolimán	10	San Lucas Tolimán	6	Junio	2023-06-20T00:00:00	2024-11-08T05:00:00	3	Temperatura mínima	17.4
130908	7	Sololá	713	San Lucas Tolimán	10	San Lucas Tolimán	6	Junio	2023-06-20T00:00:00	2024-11-08T05:00:00	5	Humedad	72
130909	7	Sololá	713	San Lucas Tolimán	10	San Lucas Tolimán	6	Junio	2023-06-20T00:00:00	2024-11-08T05:00:00	6	Velocidad del viento	1.6
130910	7	Sololá	713	San Lucas Tolimán	10	San Lucas Tolimán	6	Junio	2023-06-20T00:00:00	2024-11-08T05:00:00	7	Dirección del viento	1.61
130911	7	Sololá	713	San Lucas Tolimán	10	San Lucas Tolimán	6	Junio	2023-06-20T00:00:00	2024-11-08T05:00:00	1	Precipitación	0
130912	7	Sololá	713	San Lucas Tolimán	10	San Lucas Tolimán	6	Junio	2023-06-20T00:00:00	2024-11-08T05:00:00	8	Radiación solar	0
130913	7	Sololá	713	San Lucas Tolimán	10	San Lucas Tolimán	6	Junio	2023-06-20T00:00:00	2024-11-08T06:00:00	2	Temperatura media	17.2
130914	7	Sololá	713	San Lucas Tolimán	10	San Lucas Tolimán	6	Junio	2023-06-20T00:00:00	2024-11-08T06:00:00	4	Temperatura máxima	17.4
130915	7	Sololá	713	San Lucas Tolimán	10	San Lucas Tolimán	6	Junio	2023-06-20T00:00:00	2024-11-08T06:00:00	3	Temperatura mínima	17.2
130916	7	Sololá	713	San Lucas Tolimán	10	San Lucas Tolimán	6	Junio	2023-06-20T00:00:00	2024-11-08T06:00:00	5	Humedad	73
130917	7	Sololá	713	San Lucas Tolimán	10	San Lucas Tolimán	6	Junio	2023-06-20T00:00:00	2024-11-08T06:00:00	6	Velocidad del viento	0
130918	7	Sololá	713	San Lucas Tolimán	10	San Lucas Tolimán	6	Junio	2023-06-20T00:00:00	2024-11-08T06:00:00	7	Dirección del viento	0
130919	7	Sololá	713	San Lucas Tolimán	10	San Lucas Tolimán	6	Junio	2023-06-20T00:00:00	2024-11-08T06:00:00	1	Precipitación	0
130920	7	Sololá	713	San Lucas Tolimán	10	San Lucas Tolimán	6	Junio	2023-06-20T00:00:00	2024-11-08T06:00:00	8	Radiación solar	7
130921	7	Sololá	713	San Lucas Tolimán	10	San Lucas Tolimán	6	Junio	2023-06-20T00:00:00	2024-11-08T07:00:00	2	Temperatura media	18
130922	7	Sololá	713	San Lucas Tolimán	10	San Lucas Tolimán	6	Junio	2023-06-20T00:00:00	2024-11-08T07:00:00	4	Temperatura máxima	18
130923	7	Sololá	713	San Lucas Tolimán	10	San Lucas Tolimán	6	Junio	2023-06-20T00:00:00	2024-11-08T07:00:00	3	Temperatura mínima	17.2
130924	7	Sololá	713	San Lucas Tolimán	10	San Lucas Tolimán	6	Junio	2023-06-20T00:00:00	2024-11-08T07:00:00	5	Humedad	72
130925	7	Sololá	713	San Lucas Tolimán	10	San Lucas Tolimán	6	Junio	2023-06-20T00:00:00	2024-11-08T07:00:00	6	Velocidad del viento	0
130926	7	Sololá	713	San Lucas Tolimán	10	San Lucas Tolimán	6	Junio	2023-06-20T00:00:00	2024-11-08T07:00:00	7	Dirección del viento	0
130927	7	Sololá	713	San Lucas Tolimán	10	San Lucas Tolimán	6	Junio	2023-06-20T00:00:00	2024-11-08T07:00:00	1	Precipitación	0
130928	7	Sololá	713	San Lucas Tolimán	10	San Lucas Tolimán	6	Junio	2023-06-20T00:00:00	2024-11-08T07:00:00	8	Radiación solar	66
130929	7	Sololá	713	San Lucas Tolimán	10	San Lucas Tolimán	6	Junio	2023-06-20T00:00:00	2024-11-08T08:00:00	2	Temperatura media	19.4
130930	7	Sololá	713	San Lucas Tolimán	10	San Lucas Tolimán	6	Junio	2023-06-20T00:00:00	2024-11-08T08:00:00	4	Temperatura máxima	19.4
130931	7	Sololá	713	San Lucas Tolimán	10	San Lucas Tolimán	6	Junio	2023-06-20T00:00:00	2024-11-08T08:00:00	3	Temperatura mínima	18
130932	7	Sololá	713	San Lucas Tolimán	10	San Lucas Tolimán	6	Junio	2023-06-20T00:00:00	2024-11-08T08:00:00	5	Humedad	68
130933	7	Sololá	713	San Lucas Tolimán	10	San Lucas Tolimán	6	Junio	2023-06-20T00:00:00	2024-11-08T08:00:00	6	Velocidad del viento	1.6
130934	7	Sololá	713	San Lucas Tolimán	10	San Lucas Tolimán	6	Junio	2023-06-20T00:00:00	2024-11-08T08:00:00	7	Dirección del viento	1.61
130935	7	Sololá	713	San Lucas Tolimán	10	San Lucas Tolimán	6	Junio	2023-06-20T00:00:00	2024-11-08T08:00:00	1	Precipitación	0
130936	7	Sololá	713	San Lucas Tolimán	10	San Lucas Tolimán	6	Junio	2023-06-20T00:00:00	2024-11-08T08:00:00	8	Radiación solar	144
130937	7	Sololá	713	San Lucas Tolimán	10	San Lucas Tolimán	6	Junio	2023-06-20T00:00:00	2024-11-08T09:00:00	2	Temperatura media	20.7
130938	7	Sololá	713	San Lucas Tolimán	10	San Lucas Tolimán	6	Junio	2023-06-20T00:00:00	2024-11-08T09:00:00	4	Temperatura máxima	20.7
130939	7	Sololá	713	San Lucas Tolimán	10	San Lucas Tolimán	6	Junio	2023-06-20T00:00:00	2024-11-08T09:00:00	3	Temperatura mínima	19.4
130940	7	Sololá	713	San Lucas Tolimán	10	San Lucas Tolimán	6	Junio	2023-06-20T00:00:00	2024-11-08T09:00:00	5	Humedad	62
130941	7	Sololá	713	San Lucas Tolimán	10	San Lucas Tolimán	6	Junio	2023-06-20T00:00:00	2024-11-08T09:00:00	6	Velocidad del viento	3.2
130942	7	Sololá	713	San Lucas Tolimán	10	San Lucas Tolimán	6	Junio	2023-06-20T00:00:00	2024-11-08T09:00:00	7	Dirección del viento	3.22
130943	7	Sololá	713	San Lucas Tolimán	10	San Lucas Tolimán	6	Junio	2023-06-20T00:00:00	2024-11-08T09:00:00	1	Precipitación	0
130944	7	Sololá	713	San Lucas Tolimán	10	San Lucas Tolimán	6	Junio	2023-06-20T00:00:00	2024-11-08T09:00:00	8	Radiación solar	268
130945	7	Sololá	713	San Lucas Tolimán	10	San Lucas Tolimán	6	Junio	2023-06-20T00:00:00	2024-11-08T10:00:00	2	Temperatura media	23.3
130946	7	Sololá	713	San Lucas Tolimán	10	San Lucas Tolimán	6	Junio	2023-06-20T00:00:00	2024-11-08T10:00:00	4	Temperatura máxima	23.3
130947	7	Sololá	713	San Lucas Tolimán	10	San Lucas Tolimán	6	Junio	2023-06-20T00:00:00	2024-11-08T10:00:00	3	Temperatura mínima	20.7
130948	7	Sololá	713	San Lucas Tolimán	10	San Lucas Tolimán	6	Junio	2023-06-20T00:00:00	2024-11-08T10:00:00	5	Humedad	58
130949	7	Sololá	713	San Lucas Tolimán	10	San Lucas Tolimán	6	Junio	2023-06-20T00:00:00	2024-11-08T10:00:00	6	Velocidad del viento	4.8
130950	7	Sololá	713	San Lucas Tolimán	10	San Lucas Tolimán	6	Junio	2023-06-20T00:00:00	2024-11-08T10:00:00	7	Dirección del viento	4.83
130951	7	Sololá	713	San Lucas Tolimán	10	San Lucas Tolimán	6	Junio	2023-06-20T00:00:00	2024-11-08T10:00:00	1	Precipitación	0
130952	7	Sololá	713	San Lucas Tolimán	10	San Lucas Tolimán	6	Junio	2023-06-20T00:00:00	2024-11-08T10:00:00	8	Radiación solar	621
130953	7	Sololá	713	San Lucas Tolimán	10	San Lucas Tolimán	6	Junio	2023-06-20T00:00:00	2024-11-08T11:00:00	2	Temperatura media	24.4
130954	7	Sololá	713	San Lucas Tolimán	10	San Lucas Tolimán	6	Junio	2023-06-20T00:00:00	2024-11-08T11:00:00	4	Temperatura máxima	24.7
130955	7	Sololá	713	San Lucas Tolimán	10	San Lucas Tolimán	6	Junio	2023-06-20T00:00:00	2024-11-08T11:00:00	3	Temperatura mínima	23.3
130956	7	Sololá	713	San Lucas Tolimán	10	San Lucas Tolimán	6	Junio	2023-06-20T00:00:00	2024-11-08T11:00:00	5	Humedad	55
130957	7	Sololá	713	San Lucas Tolimán	10	San Lucas Tolimán	6	Junio	2023-06-20T00:00:00	2024-11-08T11:00:00	6	Velocidad del viento	4.8
130958	7	Sololá	713	San Lucas Tolimán	10	San Lucas Tolimán	6	Junio	2023-06-20T00:00:00	2024-11-08T11:00:00	7	Dirección del viento	4.83
130959	7	Sololá	713	San Lucas Tolimán	10	San Lucas Tolimán	6	Junio	2023-06-20T00:00:00	2024-11-08T11:00:00	1	Precipitación	0
130960	7	Sololá	713	San Lucas Tolimán	10	San Lucas Tolimán	6	Junio	2023-06-20T00:00:00	2024-11-08T11:00:00	8	Radiación solar	836
130961	7	Sololá	713	San Lucas Tolimán	10	San Lucas Tolimán	6	Junio	2023-06-20T00:00:00	2024-11-08T12:00:00	2	Temperatura media	24.3
130962	7	Sololá	713	San Lucas Tolimán	10	San Lucas Tolimán	6	Junio	2023-06-20T00:00:00	2024-11-08T12:00:00	4	Temperatura máxima	24.8
130963	7	Sololá	713	San Lucas Tolimán	10	San Lucas Tolimán	6	Junio	2023-06-20T00:00:00	2024-11-08T12:00:00	3	Temperatura mínima	23.2
130964	7	Sololá	713	San Lucas Tolimán	10	San Lucas Tolimán	6	Junio	2023-06-20T00:00:00	2024-11-08T12:00:00	5	Humedad	59
130965	7	Sololá	713	San Lucas Tolimán	10	San Lucas Tolimán	6	Junio	2023-06-20T00:00:00	2024-11-08T12:00:00	6	Velocidad del viento	8
130966	7	Sololá	713	San Lucas Tolimán	10	San Lucas Tolimán	6	Junio	2023-06-20T00:00:00	2024-11-08T12:00:00	7	Dirección del viento	8.05
130967	7	Sololá	713	San Lucas Tolimán	10	San Lucas Tolimán	6	Junio	2023-06-20T00:00:00	2024-11-08T12:00:00	1	Precipitación	0
130968	7	Sololá	713	San Lucas Tolimán	10	San Lucas Tolimán	6	Junio	2023-06-20T00:00:00	2024-11-08T12:00:00	8	Radiación solar	894
130969	7	Sololá	713	San Lucas Tolimán	10	San Lucas Tolimán	6	Junio	2023-06-20T00:00:00	2024-11-08T13:00:00	2	Temperatura media	24.1
130970	7	Sololá	713	San Lucas Tolimán	10	San Lucas Tolimán	6	Junio	2023-06-20T00:00:00	2024-11-08T13:00:00	4	Temperatura máxima	24.4
130971	7	Sololá	713	San Lucas Tolimán	10	San Lucas Tolimán	6	Junio	2023-06-20T00:00:00	2024-11-08T13:00:00	3	Temperatura mínima	24.1
130972	7	Sololá	713	San Lucas Tolimán	10	San Lucas Tolimán	6	Junio	2023-06-20T00:00:00	2024-11-08T13:00:00	5	Humedad	60
130973	7	Sololá	713	San Lucas Tolimán	10	San Lucas Tolimán	6	Junio	2023-06-20T00:00:00	2024-11-08T13:00:00	6	Velocidad del viento	8
130974	7	Sololá	713	San Lucas Tolimán	10	San Lucas Tolimán	6	Junio	2023-06-20T00:00:00	2024-11-08T13:00:00	7	Dirección del viento	8.05
130975	7	Sololá	713	San Lucas Tolimán	10	San Lucas Tolimán	6	Junio	2023-06-20T00:00:00	2024-11-08T13:00:00	1	Precipitación	0
130976	7	Sololá	713	San Lucas Tolimán	10	San Lucas Tolimán	6	Junio	2023-06-20T00:00:00	2024-11-08T13:00:00	8	Radiación solar	995
130977	7	Sololá	713	San Lucas Tolimán	10	San Lucas Tolimán	6	Junio	2023-06-20T00:00:00	2024-11-08T14:00:00	2	Temperatura media	23.8
130978	7	Sololá	713	San Lucas Tolimán	10	San Lucas Tolimán	6	Junio	2023-06-20T00:00:00	2024-11-08T14:00:00	4	Temperatura máxima	24.6
130979	7	Sololá	713	San Lucas Tolimán	10	San Lucas Tolimán	6	Junio	2023-06-20T00:00:00	2024-11-08T14:00:00	3	Temperatura mínima	23.6
130980	7	Sololá	713	San Lucas Tolimán	10	San Lucas Tolimán	6	Junio	2023-06-20T00:00:00	2024-11-08T14:00:00	5	Humedad	61
130981	7	Sololá	713	San Lucas Tolimán	10	San Lucas Tolimán	6	Junio	2023-06-20T00:00:00	2024-11-08T14:00:00	6	Velocidad del viento	8
130982	7	Sololá	713	San Lucas Tolimán	10	San Lucas Tolimán	6	Junio	2023-06-20T00:00:00	2024-11-08T14:00:00	7	Dirección del viento	8.05
130983	7	Sololá	713	San Lucas Tolimán	10	San Lucas Tolimán	6	Junio	2023-06-20T00:00:00	2024-11-08T14:00:00	1	Precipitación	0
130984	7	Sololá	713	San Lucas Tolimán	10	San Lucas Tolimán	6	Junio	2023-06-20T00:00:00	2024-11-08T14:00:00	8	Radiación solar	788
130985	7	Sololá	713	San Lucas Tolimán	10	San Lucas Tolimán	6	Junio	2023-06-20T00:00:00	2024-11-08T15:00:00	2	Temperatura media	21.1
130986	7	Sololá	713	San Lucas Tolimán	10	San Lucas Tolimán	6	Junio	2023-06-20T00:00:00	2024-11-08T15:00:00	4	Temperatura máxima	23.8
130987	7	Sololá	713	San Lucas Tolimán	10	San Lucas Tolimán	6	Junio	2023-06-20T00:00:00	2024-11-08T15:00:00	3	Temperatura mínima	21.1
130988	7	Sololá	713	San Lucas Tolimán	10	San Lucas Tolimán	6	Junio	2023-06-20T00:00:00	2024-11-08T15:00:00	5	Humedad	69
130989	7	Sololá	713	San Lucas Tolimán	10	San Lucas Tolimán	6	Junio	2023-06-20T00:00:00	2024-11-08T15:00:00	6	Velocidad del viento	8
130990	7	Sololá	713	San Lucas Tolimán	10	San Lucas Tolimán	6	Junio	2023-06-20T00:00:00	2024-11-08T15:00:00	7	Dirección del viento	8.05
130991	7	Sololá	713	San Lucas Tolimán	10	San Lucas Tolimán	6	Junio	2023-06-20T00:00:00	2024-11-08T15:00:00	1	Precipitación	0
130992	7	Sololá	713	San Lucas Tolimán	10	San Lucas Tolimán	6	Junio	2023-06-20T00:00:00	2024-11-08T15:00:00	8	Radiación solar	191
130993	7	Sololá	713	San Lucas Tolimán	10	San Lucas Tolimán	6	Junio	2023-06-20T00:00:00	2024-11-08T16:00:00	2	Temperatura media	20.7
130994	7	Sololá	713	San Lucas Tolimán	10	San Lucas Tolimán	6	Junio	2023-06-20T00:00:00	2024-11-08T16:00:00	4	Temperatura máxima	21.2
130995	7	Sololá	713	San Lucas Tolimán	10	San Lucas Tolimán	6	Junio	2023-06-20T00:00:00	2024-11-08T16:00:00	3	Temperatura mínima	20.7
130996	7	Sololá	713	San Lucas Tolimán	10	San Lucas Tolimán	6	Junio	2023-06-20T00:00:00	2024-11-08T16:00:00	5	Humedad	69
130997	7	Sololá	713	San Lucas Tolimán	10	San Lucas Tolimán	6	Junio	2023-06-20T00:00:00	2024-11-08T16:00:00	6	Velocidad del viento	4.8
130998	7	Sololá	713	San Lucas Tolimán	10	San Lucas Tolimán	6	Junio	2023-06-20T00:00:00	2024-11-08T16:00:00	7	Dirección del viento	4.83
130999	7	Sololá	713	San Lucas Tolimán	10	San Lucas Tolimán	6	Junio	2023-06-20T00:00:00	2024-11-08T16:00:00	1	Precipitación	0
131000	7	Sololá	713	San Lucas Tolimán	10	San Lucas Tolimán	6	Junio	2023-06-20T00:00:00	2024-11-08T16:00:00	8	Radiación solar	101
131001	7	Sololá	713	San Lucas Tolimán	10	San Lucas Tolimán	6	Junio	2023-06-20T00:00:00	2024-11-08T17:00:00	2	Temperatura media	18.1
131002	7	Sololá	713	San Lucas Tolimán	10	San Lucas Tolimán	6	Junio	2023-06-20T00:00:00	2024-11-08T17:00:00	4	Temperatura máxima	20.8
131003	7	Sololá	713	San Lucas Tolimán	10	San Lucas Tolimán	6	Junio	2023-06-20T00:00:00	2024-11-08T17:00:00	3	Temperatura mínima	18
131004	7	Sololá	713	San Lucas Tolimán	10	San Lucas Tolimán	6	Junio	2023-06-20T00:00:00	2024-11-08T17:00:00	5	Humedad	71
131005	7	Sololá	713	San Lucas Tolimán	10	San Lucas Tolimán	6	Junio	2023-06-20T00:00:00	2024-11-08T17:00:00	6	Velocidad del viento	8
131006	7	Sololá	713	San Lucas Tolimán	10	San Lucas Tolimán	6	Junio	2023-06-20T00:00:00	2024-11-08T17:00:00	7	Dirección del viento	8.05
131007	7	Sololá	713	San Lucas Tolimán	10	San Lucas Tolimán	6	Junio	2023-06-20T00:00:00	2024-11-08T17:00:00	1	Precipitación	6.8
131008	7	Sololá	713	San Lucas Tolimán	10	San Lucas Tolimán	6	Junio	2023-06-20T00:00:00	2024-11-08T17:00:00	8	Radiación solar	62
131009	7	Sololá	713	San Lucas Tolimán	10	San Lucas Tolimán	6	Junio	2023-06-20T00:00:00	2024-11-08T18:00:00	2	Temperatura media	18.9
131010	7	Sololá	713	San Lucas Tolimán	10	San Lucas Tolimán	6	Junio	2023-06-20T00:00:00	2024-11-08T18:00:00	4	Temperatura máxima	18.9
131011	7	Sololá	713	San Lucas Tolimán	10	San Lucas Tolimán	6	Junio	2023-06-20T00:00:00	2024-11-08T18:00:00	3	Temperatura mínima	18.1
131012	7	Sololá	713	San Lucas Tolimán	10	San Lucas Tolimán	6	Junio	2023-06-20T00:00:00	2024-11-08T18:00:00	5	Humedad	70
131013	7	Sololá	713	San Lucas Tolimán	10	San Lucas Tolimán	6	Junio	2023-06-20T00:00:00	2024-11-08T18:00:00	6	Velocidad del viento	1.6
131014	7	Sololá	713	San Lucas Tolimán	10	San Lucas Tolimán	6	Junio	2023-06-20T00:00:00	2024-11-08T18:00:00	7	Dirección del viento	1.61
131015	7	Sololá	713	San Lucas Tolimán	10	San Lucas Tolimán	6	Junio	2023-06-20T00:00:00	2024-11-08T18:00:00	1	Precipitación	0
131016	7	Sololá	713	San Lucas Tolimán	10	San Lucas Tolimán	6	Junio	2023-06-20T00:00:00	2024-11-08T18:00:00	8	Radiación solar	43
131017	7	Sololá	713	San Lucas Tolimán	10	San Lucas Tolimán	6	Junio	2023-06-20T00:00:00	2024-11-08T19:00:00	2	Temperatura media	18.2
131018	7	Sololá	713	San Lucas Tolimán	10	San Lucas Tolimán	6	Junio	2023-06-20T00:00:00	2024-11-08T19:00:00	4	Temperatura máxima	18.9
131019	7	Sololá	713	San Lucas Tolimán	10	San Lucas Tolimán	6	Junio	2023-06-20T00:00:00	2024-11-08T19:00:00	3	Temperatura mínima	18.2
131020	7	Sololá	713	San Lucas Tolimán	10	San Lucas Tolimán	6	Junio	2023-06-20T00:00:00	2024-11-08T19:00:00	5	Humedad	71
131021	7	Sololá	713	San Lucas Tolimán	10	San Lucas Tolimán	6	Junio	2023-06-20T00:00:00	2024-11-08T19:00:00	6	Velocidad del viento	1.6
131022	7	Sololá	713	San Lucas Tolimán	10	San Lucas Tolimán	6	Junio	2023-06-20T00:00:00	2024-11-08T19:00:00	7	Dirección del viento	1.61
131023	7	Sololá	713	San Lucas Tolimán	10	San Lucas Tolimán	6	Junio	2023-06-20T00:00:00	2024-11-08T19:00:00	1	Precipitación	4.8
131024	7	Sololá	713	San Lucas Tolimán	10	San Lucas Tolimán	6	Junio	2023-06-20T00:00:00	2024-11-08T19:00:00	8	Radiación solar	0
131025	7	Sololá	713	San Lucas Tolimán	10	San Lucas Tolimán	6	Junio	2023-06-20T00:00:00	2024-11-08T20:00:00	2	Temperatura media	18.1
131026	7	Sololá	713	San Lucas Tolimán	10	San Lucas Tolimán	6	Junio	2023-06-20T00:00:00	2024-11-08T20:00:00	4	Temperatura máxima	18.2
131027	7	Sololá	713	San Lucas Tolimán	10	San Lucas Tolimán	6	Junio	2023-06-20T00:00:00	2024-11-08T20:00:00	3	Temperatura mínima	18
131028	7	Sololá	713	San Lucas Tolimán	10	San Lucas Tolimán	6	Junio	2023-06-20T00:00:00	2024-11-08T20:00:00	5	Humedad	72
131029	7	Sololá	713	San Lucas Tolimán	10	San Lucas Tolimán	6	Junio	2023-06-20T00:00:00	2024-11-08T20:00:00	6	Velocidad del viento	1.6
131030	7	Sololá	713	San Lucas Tolimán	10	San Lucas Tolimán	6	Junio	2023-06-20T00:00:00	2024-11-08T20:00:00	7	Dirección del viento	1.61
131031	7	Sololá	713	San Lucas Tolimán	10	San Lucas Tolimán	6	Junio	2023-06-20T00:00:00	2024-11-08T20:00:00	1	Precipitación	0.2
131032	7	Sololá	713	San Lucas Tolimán	10	San Lucas Tolimán	6	Junio	2023-06-20T00:00:00	2024-11-08T20:00:00	8	Radiación solar	0
131033	7	Sololá	713	San Lucas Tolimán	10	San Lucas Tolimán	6	Junio	2023-06-20T00:00:00	2024-11-08T21:00:00	2	Temperatura media	18.2
131034	7	Sololá	713	San Lucas Tolimán	10	San Lucas Tolimán	6	Junio	2023-06-20T00:00:00	2024-11-08T21:00:00	4	Temperatura máxima	18.2
131035	7	Sololá	713	San Lucas Tolimán	10	San Lucas Tolimán	6	Junio	2023-06-20T00:00:00	2024-11-08T21:00:00	3	Temperatura mínima	17.8
131036	7	Sololá	713	San Lucas Tolimán	10	San Lucas Tolimán	6	Junio	2023-06-20T00:00:00	2024-11-08T21:00:00	5	Humedad	72
131037	7	Sololá	713	San Lucas Tolimán	10	San Lucas Tolimán	6	Junio	2023-06-20T00:00:00	2024-11-08T21:00:00	6	Velocidad del viento	1.6
131038	7	Sololá	713	San Lucas Tolimán	10	San Lucas Tolimán	6	Junio	2023-06-20T00:00:00	2024-11-08T21:00:00	7	Dirección del viento	1.61
131039	7	Sololá	713	San Lucas Tolimán	10	San Lucas Tolimán	6	Junio	2023-06-20T00:00:00	2024-11-08T21:00:00	1	Precipitación	0
131040	7	Sololá	713	San Lucas Tolimán	10	San Lucas Tolimán	6	Junio	2023-06-20T00:00:00	2024-11-08T21:00:00	8	Radiación solar	0
131041	7	Sololá	713	San Lucas Tolimán	10	San Lucas Tolimán	6	Junio	2023-06-20T00:00:00	2024-11-08T22:00:00	2	Temperatura media	17.8
131042	7	Sololá	713	San Lucas Tolimán	10	San Lucas Tolimán	6	Junio	2023-06-20T00:00:00	2024-11-08T22:00:00	4	Temperatura máxima	18.2
131043	7	Sololá	713	San Lucas Tolimán	10	San Lucas Tolimán	6	Junio	2023-06-20T00:00:00	2024-11-08T22:00:00	3	Temperatura mínima	17.8
131044	7	Sololá	713	San Lucas Tolimán	10	San Lucas Tolimán	6	Junio	2023-06-20T00:00:00	2024-11-08T22:00:00	5	Humedad	72
131045	7	Sololá	713	San Lucas Tolimán	10	San Lucas Tolimán	6	Junio	2023-06-20T00:00:00	2024-11-08T22:00:00	6	Velocidad del viento	4.8
131046	7	Sololá	713	San Lucas Tolimán	10	San Lucas Tolimán	6	Junio	2023-06-20T00:00:00	2024-11-08T22:00:00	7	Dirección del viento	4.83
131047	7	Sololá	713	San Lucas Tolimán	10	San Lucas Tolimán	6	Junio	2023-06-20T00:00:00	2024-11-08T22:00:00	1	Precipitación	0
131048	7	Sololá	713	San Lucas Tolimán	10	San Lucas Tolimán	6	Junio	2023-06-20T00:00:00	2024-11-08T22:00:00	8	Radiación solar	0
131049	7	Sololá	713	San Lucas Tolimán	10	San Lucas Tolimán	6	Junio	2023-06-20T00:00:00	2024-11-08T23:00:00	2	Temperatura media	17.8
131050	7	Sololá	713	San Lucas Tolimán	10	San Lucas Tolimán	6	Junio	2023-06-20T00:00:00	2024-11-08T23:00:00	4	Temperatura máxima	17.9
131051	7	Sololá	713	San Lucas Tolimán	10	San Lucas Tolimán	6	Junio	2023-06-20T00:00:00	2024-11-08T23:00:00	3	Temperatura mínima	17.7
131052	7	Sololá	713	San Lucas Tolimán	10	San Lucas Tolimán	6	Junio	2023-06-20T00:00:00	2024-11-08T23:00:00	5	Humedad	73
131053	7	Sololá	713	San Lucas Tolimán	10	San Lucas Tolimán	6	Junio	2023-06-20T00:00:00	2024-11-08T23:00:00	6	Velocidad del viento	3.2
131054	7	Sololá	713	San Lucas Tolimán	10	San Lucas Tolimán	6	Junio	2023-06-20T00:00:00	2024-11-08T23:00:00	7	Dirección del viento	3.22
131055	7	Sololá	713	San Lucas Tolimán	10	San Lucas Tolimán	6	Junio	2023-06-20T00:00:00	2024-11-08T23:00:00	1	Precipitación	0
131056	7	Sololá	713	San Lucas Tolimán	10	San Lucas Tolimán	6	Junio	2023-06-20T00:00:00	2024-11-08T23:00:00	8	Radiación solar	0
131057	7	Sololá	713	San Lucas Tolimán	10	San Lucas Tolimán	6	Junio	2023-06-21T00:00:00	2024-11-08T00:00:00	2	Temperatura media	17.7
131058	7	Sololá	713	San Lucas Tolimán	10	San Lucas Tolimán	6	Junio	2023-06-21T00:00:00	2024-11-08T00:00:00	4	Temperatura máxima	17.8
131059	7	Sololá	713	San Lucas Tolimán	10	San Lucas Tolimán	6	Junio	2023-06-21T00:00:00	2024-11-08T00:00:00	3	Temperatura mínima	17.5
131060	7	Sololá	713	San Lucas Tolimán	10	San Lucas Tolimán	6	Junio	2023-06-21T00:00:00	2024-11-08T00:00:00	5	Humedad	73
131061	7	Sololá	713	San Lucas Tolimán	10	San Lucas Tolimán	6	Junio	2023-06-21T00:00:00	2024-11-08T00:00:00	6	Velocidad del viento	1.6
131062	7	Sololá	713	San Lucas Tolimán	10	San Lucas Tolimán	6	Junio	2023-06-21T00:00:00	2024-11-08T00:00:00	7	Dirección del viento	1.61
131063	7	Sololá	713	San Lucas Tolimán	10	San Lucas Tolimán	6	Junio	2023-06-21T00:00:00	2024-11-08T00:00:00	1	Precipitación	0
131064	7	Sololá	713	San Lucas Tolimán	10	San Lucas Tolimán	6	Junio	2023-06-21T00:00:00	2024-11-08T00:00:00	8	Radiación solar	0
131065	7	Sololá	713	San Lucas Tolimán	10	San Lucas Tolimán	6	Junio	2023-06-21T00:00:00	2024-11-08T01:00:00	2	Temperatura media	17.7
131066	7	Sololá	713	San Lucas Tolimán	10	San Lucas Tolimán	6	Junio	2023-06-21T00:00:00	2024-11-08T01:00:00	4	Temperatura máxima	17.9
131067	7	Sololá	713	San Lucas Tolimán	10	San Lucas Tolimán	6	Junio	2023-06-21T00:00:00	2024-11-08T01:00:00	3	Temperatura mínima	17.6
131068	7	Sololá	713	San Lucas Tolimán	10	San Lucas Tolimán	6	Junio	2023-06-21T00:00:00	2024-11-08T01:00:00	5	Humedad	73
131069	7	Sololá	713	San Lucas Tolimán	10	San Lucas Tolimán	6	Junio	2023-06-21T00:00:00	2024-11-08T01:00:00	6	Velocidad del viento	3.2
131070	7	Sololá	713	San Lucas Tolimán	10	San Lucas Tolimán	6	Junio	2023-06-21T00:00:00	2024-11-08T01:00:00	7	Dirección del viento	3.22
131071	7	Sololá	713	San Lucas Tolimán	10	San Lucas Tolimán	6	Junio	2023-06-21T00:00:00	2024-11-08T01:00:00	1	Precipitación	0
131072	7	Sololá	713	San Lucas Tolimán	10	San Lucas Tolimán	6	Junio	2023-06-21T00:00:00	2024-11-08T01:00:00	8	Radiación solar	0
131073	7	Sololá	713	San Lucas Tolimán	10	San Lucas Tolimán	6	Junio	2023-06-21T00:00:00	2024-11-08T02:00:00	2	Temperatura media	17.7
131074	7	Sololá	713	San Lucas Tolimán	10	San Lucas Tolimán	6	Junio	2023-06-21T00:00:00	2024-11-08T02:00:00	4	Temperatura máxima	17.8
131075	7	Sololá	713	San Lucas Tolimán	10	San Lucas Tolimán	6	Junio	2023-06-21T00:00:00	2024-11-08T02:00:00	3	Temperatura mínima	17.6
131076	7	Sololá	713	San Lucas Tolimán	10	San Lucas Tolimán	6	Junio	2023-06-21T00:00:00	2024-11-08T02:00:00	5	Humedad	73
131077	7	Sololá	713	San Lucas Tolimán	10	San Lucas Tolimán	6	Junio	2023-06-21T00:00:00	2024-11-08T02:00:00	6	Velocidad del viento	1.6
131078	7	Sololá	713	San Lucas Tolimán	10	San Lucas Tolimán	6	Junio	2023-06-21T00:00:00	2024-11-08T02:00:00	7	Dirección del viento	1.61
131079	7	Sololá	713	San Lucas Tolimán	10	San Lucas Tolimán	6	Junio	2023-06-21T00:00:00	2024-11-08T02:00:00	1	Precipitación	0
131080	7	Sololá	713	San Lucas Tolimán	10	San Lucas Tolimán	6	Junio	2023-06-21T00:00:00	2024-11-08T02:00:00	8	Radiación solar	0
131081	7	Sololá	713	San Lucas Tolimán	10	San Lucas Tolimán	6	Junio	2023-06-21T00:00:00	2024-11-08T03:00:00	2	Temperatura media	17.6
131082	7	Sololá	713	San Lucas Tolimán	10	San Lucas Tolimán	6	Junio	2023-06-21T00:00:00	2024-11-08T03:00:00	4	Temperatura máxima	17.7
131083	7	Sololá	713	San Lucas Tolimán	10	San Lucas Tolimán	6	Junio	2023-06-21T00:00:00	2024-11-08T03:00:00	3	Temperatura mínima	17.6
131084	7	Sololá	713	San Lucas Tolimán	10	San Lucas Tolimán	6	Junio	2023-06-21T00:00:00	2024-11-08T03:00:00	5	Humedad	73
131085	7	Sololá	713	San Lucas Tolimán	10	San Lucas Tolimán	6	Junio	2023-06-21T00:00:00	2024-11-08T03:00:00	6	Velocidad del viento	0
131086	7	Sololá	713	San Lucas Tolimán	10	San Lucas Tolimán	6	Junio	2023-06-21T00:00:00	2024-11-08T03:00:00	7	Dirección del viento	0
131087	7	Sololá	713	San Lucas Tolimán	10	San Lucas Tolimán	6	Junio	2023-06-21T00:00:00	2024-11-08T03:00:00	1	Precipitación	0
131088	7	Sololá	713	San Lucas Tolimán	10	San Lucas Tolimán	6	Junio	2023-06-21T00:00:00	2024-11-08T03:00:00	8	Radiación solar	0
131089	7	Sololá	713	San Lucas Tolimán	10	San Lucas Tolimán	6	Junio	2023-06-21T00:00:00	2024-11-08T04:00:00	2	Temperatura media	17.9
131090	7	Sololá	713	San Lucas Tolimán	10	San Lucas Tolimán	6	Junio	2023-06-21T00:00:00	2024-11-08T04:00:00	4	Temperatura máxima	18
131091	7	Sololá	713	San Lucas Tolimán	10	San Lucas Tolimán	6	Junio	2023-06-21T00:00:00	2024-11-08T04:00:00	3	Temperatura mínima	17.6
131092	7	Sololá	713	San Lucas Tolimán	10	San Lucas Tolimán	6	Junio	2023-06-21T00:00:00	2024-11-08T04:00:00	5	Humedad	72
131093	7	Sololá	713	San Lucas Tolimán	10	San Lucas Tolimán	6	Junio	2023-06-21T00:00:00	2024-11-08T04:00:00	6	Velocidad del viento	0
131094	7	Sololá	713	San Lucas Tolimán	10	San Lucas Tolimán	6	Junio	2023-06-21T00:00:00	2024-11-08T04:00:00	7	Dirección del viento	0
131095	7	Sololá	713	San Lucas Tolimán	10	San Lucas Tolimán	6	Junio	2023-06-21T00:00:00	2024-11-08T04:00:00	1	Precipitación	0
131096	7	Sololá	713	San Lucas Tolimán	10	San Lucas Tolimán	6	Junio	2023-06-21T00:00:00	2024-11-08T04:00:00	8	Radiación solar	0
131097	7	Sololá	713	San Lucas Tolimán	10	San Lucas Tolimán	6	Junio	2023-06-21T00:00:00	2024-11-08T05:00:00	2	Temperatura media	17.7
131098	7	Sololá	713	San Lucas Tolimán	10	San Lucas Tolimán	6	Junio	2023-06-21T00:00:00	2024-11-08T05:00:00	4	Temperatura máxima	17.9
131099	7	Sololá	713	San Lucas Tolimán	10	San Lucas Tolimán	6	Junio	2023-06-21T00:00:00	2024-11-08T05:00:00	3	Temperatura mínima	17.6
131100	7	Sololá	713	San Lucas Tolimán	10	San Lucas Tolimán	6	Junio	2023-06-21T00:00:00	2024-11-08T05:00:00	5	Humedad	72
131101	7	Sololá	713	San Lucas Tolimán	10	San Lucas Tolimán	6	Junio	2023-06-21T00:00:00	2024-11-08T05:00:00	6	Velocidad del viento	3.2
131102	7	Sololá	713	San Lucas Tolimán	10	San Lucas Tolimán	6	Junio	2023-06-21T00:00:00	2024-11-08T05:00:00	7	Dirección del viento	3.22
131103	7	Sololá	713	San Lucas Tolimán	10	San Lucas Tolimán	6	Junio	2023-06-21T00:00:00	2024-11-08T05:00:00	1	Precipitación	0
131104	7	Sololá	713	San Lucas Tolimán	10	San Lucas Tolimán	6	Junio	2023-06-21T00:00:00	2024-11-08T05:00:00	8	Radiación solar	0
131105	7	Sololá	713	San Lucas Tolimán	10	San Lucas Tolimán	6	Junio	2023-06-21T00:00:00	2024-11-08T06:00:00	2	Temperatura media	17.5
131106	7	Sololá	713	San Lucas Tolimán	10	San Lucas Tolimán	6	Junio	2023-06-21T00:00:00	2024-11-08T06:00:00	4	Temperatura máxima	17.7
131107	7	Sololá	713	San Lucas Tolimán	10	San Lucas Tolimán	6	Junio	2023-06-21T00:00:00	2024-11-08T06:00:00	3	Temperatura mínima	17.4
131108	7	Sololá	713	San Lucas Tolimán	10	San Lucas Tolimán	6	Junio	2023-06-21T00:00:00	2024-11-08T06:00:00	5	Humedad	73
131109	7	Sololá	713	San Lucas Tolimán	10	San Lucas Tolimán	6	Junio	2023-06-21T00:00:00	2024-11-08T06:00:00	6	Velocidad del viento	3.2
131110	7	Sololá	713	San Lucas Tolimán	10	San Lucas Tolimán	6	Junio	2023-06-21T00:00:00	2024-11-08T06:00:00	7	Dirección del viento	3.22
131111	7	Sololá	713	San Lucas Tolimán	10	San Lucas Tolimán	6	Junio	2023-06-21T00:00:00	2024-11-08T06:00:00	1	Precipitación	0.4
131112	7	Sololá	713	San Lucas Tolimán	10	San Lucas Tolimán	6	Junio	2023-06-21T00:00:00	2024-11-08T06:00:00	8	Radiación solar	6
131113	7	Sololá	713	San Lucas Tolimán	10	San Lucas Tolimán	6	Junio	2023-06-21T00:00:00	2024-11-08T07:00:00	2	Temperatura media	17.8
131114	7	Sololá	713	San Lucas Tolimán	10	San Lucas Tolimán	6	Junio	2023-06-21T00:00:00	2024-11-08T07:00:00	4	Temperatura máxima	17.8
131115	7	Sololá	713	San Lucas Tolimán	10	San Lucas Tolimán	6	Junio	2023-06-21T00:00:00	2024-11-08T07:00:00	3	Temperatura mínima	17.4
131116	7	Sololá	713	San Lucas Tolimán	10	San Lucas Tolimán	6	Junio	2023-06-21T00:00:00	2024-11-08T07:00:00	5	Humedad	73
131117	7	Sololá	713	San Lucas Tolimán	10	San Lucas Tolimán	6	Junio	2023-06-21T00:00:00	2024-11-08T07:00:00	6	Velocidad del viento	1.6
131118	7	Sololá	713	San Lucas Tolimán	10	San Lucas Tolimán	6	Junio	2023-06-21T00:00:00	2024-11-08T07:00:00	7	Dirección del viento	1.61
131119	7	Sololá	713	San Lucas Tolimán	10	San Lucas Tolimán	6	Junio	2023-06-21T00:00:00	2024-11-08T07:00:00	1	Precipitación	0
131120	7	Sololá	713	San Lucas Tolimán	10	San Lucas Tolimán	6	Junio	2023-06-21T00:00:00	2024-11-08T07:00:00	8	Radiación solar	31
131121	7	Sololá	713	San Lucas Tolimán	10	San Lucas Tolimán	6	Junio	2023-06-21T00:00:00	2024-11-08T08:00:00	2	Temperatura media	19.4
131122	7	Sololá	713	San Lucas Tolimán	10	San Lucas Tolimán	6	Junio	2023-06-21T00:00:00	2024-11-08T08:00:00	4	Temperatura máxima	19.4
131123	7	Sololá	713	San Lucas Tolimán	10	San Lucas Tolimán	6	Junio	2023-06-21T00:00:00	2024-11-08T08:00:00	3	Temperatura mínima	17.7
131124	7	Sololá	713	San Lucas Tolimán	10	San Lucas Tolimán	6	Junio	2023-06-21T00:00:00	2024-11-08T08:00:00	5	Humedad	70
131125	7	Sololá	713	San Lucas Tolimán	10	San Lucas Tolimán	6	Junio	2023-06-21T00:00:00	2024-11-08T08:00:00	6	Velocidad del viento	1.6
131126	7	Sololá	713	San Lucas Tolimán	10	San Lucas Tolimán	6	Junio	2023-06-21T00:00:00	2024-11-08T08:00:00	7	Dirección del viento	1.61
131127	7	Sololá	713	San Lucas Tolimán	10	San Lucas Tolimán	6	Junio	2023-06-21T00:00:00	2024-11-08T08:00:00	1	Precipitación	0
131128	7	Sololá	713	San Lucas Tolimán	10	San Lucas Tolimán	6	Junio	2023-06-21T00:00:00	2024-11-08T08:00:00	8	Radiación solar	179
131129	7	Sololá	713	San Lucas Tolimán	10	San Lucas Tolimán	6	Junio	2023-06-21T00:00:00	2024-11-08T09:00:00	2	Temperatura media	21
131130	7	Sololá	713	San Lucas Tolimán	10	San Lucas Tolimán	6	Junio	2023-06-21T00:00:00	2024-11-08T09:00:00	4	Temperatura máxima	21
131131	7	Sololá	713	San Lucas Tolimán	10	San Lucas Tolimán	6	Junio	2023-06-21T00:00:00	2024-11-08T09:00:00	3	Temperatura mínima	19.4
131132	7	Sololá	713	San Lucas Tolimán	10	San Lucas Tolimán	6	Junio	2023-06-21T00:00:00	2024-11-08T09:00:00	5	Humedad	63
131133	7	Sololá	713	San Lucas Tolimán	10	San Lucas Tolimán	6	Junio	2023-06-21T00:00:00	2024-11-08T09:00:00	6	Velocidad del viento	4.8
131134	7	Sololá	713	San Lucas Tolimán	10	San Lucas Tolimán	6	Junio	2023-06-21T00:00:00	2024-11-08T09:00:00	7	Dirección del viento	4.83
131135	7	Sololá	713	San Lucas Tolimán	10	San Lucas Tolimán	6	Junio	2023-06-21T00:00:00	2024-11-08T09:00:00	1	Precipitación	0
131136	7	Sololá	713	San Lucas Tolimán	10	San Lucas Tolimán	6	Junio	2023-06-21T00:00:00	2024-11-08T09:00:00	8	Radiación solar	418
131137	7	Sololá	713	San Lucas Tolimán	10	San Lucas Tolimán	6	Junio	2023-06-21T00:00:00	2024-11-08T10:00:00	2	Temperatura media	23.7
131138	7	Sololá	713	San Lucas Tolimán	10	San Lucas Tolimán	6	Junio	2023-06-21T00:00:00	2024-11-08T10:00:00	4	Temperatura máxima	23.7
131139	7	Sololá	713	San Lucas Tolimán	10	San Lucas Tolimán	6	Junio	2023-06-21T00:00:00	2024-11-08T10:00:00	3	Temperatura mínima	21
131140	7	Sololá	713	San Lucas Tolimán	10	San Lucas Tolimán	6	Junio	2023-06-21T00:00:00	2024-11-08T10:00:00	5	Humedad	61
131141	7	Sololá	713	San Lucas Tolimán	10	San Lucas Tolimán	6	Junio	2023-06-21T00:00:00	2024-11-08T10:00:00	6	Velocidad del viento	4.8
131142	7	Sololá	713	San Lucas Tolimán	10	San Lucas Tolimán	6	Junio	2023-06-21T00:00:00	2024-11-08T10:00:00	7	Dirección del viento	4.83
131143	7	Sololá	713	San Lucas Tolimán	10	San Lucas Tolimán	6	Junio	2023-06-21T00:00:00	2024-11-08T10:00:00	1	Precipitación	0
131144	7	Sololá	713	San Lucas Tolimán	10	San Lucas Tolimán	6	Junio	2023-06-21T00:00:00	2024-11-08T10:00:00	8	Radiación solar	603
131145	7	Sololá	713	San Lucas Tolimán	10	San Lucas Tolimán	6	Junio	2023-06-21T00:00:00	2024-11-08T11:00:00	2	Temperatura media	23.8
131146	7	Sololá	713	San Lucas Tolimán	10	San Lucas Tolimán	6	Junio	2023-06-21T00:00:00	2024-11-08T11:00:00	4	Temperatura máxima	24.1
131147	7	Sololá	713	San Lucas Tolimán	10	San Lucas Tolimán	6	Junio	2023-06-21T00:00:00	2024-11-08T11:00:00	3	Temperatura mínima	23.7
131148	7	Sololá	713	San Lucas Tolimán	10	San Lucas Tolimán	6	Junio	2023-06-21T00:00:00	2024-11-08T11:00:00	5	Humedad	60
131149	7	Sololá	713	San Lucas Tolimán	10	San Lucas Tolimán	6	Junio	2023-06-21T00:00:00	2024-11-08T11:00:00	6	Velocidad del viento	6.4
131150	7	Sololá	713	San Lucas Tolimán	10	San Lucas Tolimán	6	Junio	2023-06-21T00:00:00	2024-11-08T11:00:00	7	Dirección del viento	6.44
131151	7	Sololá	713	San Lucas Tolimán	10	San Lucas Tolimán	6	Junio	2023-06-21T00:00:00	2024-11-08T11:00:00	1	Precipitación	0
131152	7	Sololá	713	San Lucas Tolimán	10	San Lucas Tolimán	6	Junio	2023-06-21T00:00:00	2024-11-08T11:00:00	8	Radiación solar	911
131153	7	Sololá	713	San Lucas Tolimán	10	San Lucas Tolimán	6	Junio	2023-06-21T00:00:00	2024-11-08T12:00:00	2	Temperatura media	24.2
131154	7	Sololá	713	San Lucas Tolimán	10	San Lucas Tolimán	6	Junio	2023-06-21T00:00:00	2024-11-08T12:00:00	4	Temperatura máxima	24.6
131155	7	Sololá	713	San Lucas Tolimán	10	San Lucas Tolimán	6	Junio	2023-06-21T00:00:00	2024-11-08T12:00:00	3	Temperatura mínima	23.8
131156	7	Sololá	713	San Lucas Tolimán	10	San Lucas Tolimán	6	Junio	2023-06-21T00:00:00	2024-11-08T12:00:00	5	Humedad	58
131157	7	Sololá	713	San Lucas Tolimán	10	San Lucas Tolimán	6	Junio	2023-06-21T00:00:00	2024-11-08T12:00:00	6	Velocidad del viento	8
131158	7	Sololá	713	San Lucas Tolimán	10	San Lucas Tolimán	6	Junio	2023-06-21T00:00:00	2024-11-08T12:00:00	7	Dirección del viento	8.05
131159	7	Sololá	713	San Lucas Tolimán	10	San Lucas Tolimán	6	Junio	2023-06-21T00:00:00	2024-11-08T12:00:00	1	Precipitación	0
131160	7	Sololá	713	San Lucas Tolimán	10	San Lucas Tolimán	6	Junio	2023-06-21T00:00:00	2024-11-08T12:00:00	8	Radiación solar	983
131161	7	Sololá	713	San Lucas Tolimán	10	San Lucas Tolimán	6	Junio	2023-06-21T00:00:00	2024-11-08T13:00:00	2	Temperatura media	23.1
131162	7	Sololá	713	San Lucas Tolimán	10	San Lucas Tolimán	6	Junio	2023-06-21T00:00:00	2024-11-08T13:00:00	4	Temperatura máxima	23.5
131163	7	Sololá	713	San Lucas Tolimán	10	San Lucas Tolimán	6	Junio	2023-06-21T00:00:00	2024-11-08T13:00:00	3	Temperatura mínima	22.6
131164	7	Sololá	713	San Lucas Tolimán	10	San Lucas Tolimán	6	Junio	2023-06-21T00:00:00	2024-11-08T13:00:00	5	Humedad	61
131165	7	Sololá	713	San Lucas Tolimán	10	San Lucas Tolimán	6	Junio	2023-06-21T00:00:00	2024-11-08T13:00:00	6	Velocidad del viento	9.7
131166	7	Sololá	713	San Lucas Tolimán	10	San Lucas Tolimán	6	Junio	2023-06-21T00:00:00	2024-11-08T13:00:00	7	Dirección del viento	9.66
131167	7	Sololá	713	San Lucas Tolimán	10	San Lucas Tolimán	6	Junio	2023-06-21T00:00:00	2024-11-08T13:00:00	1	Precipitación	0
131168	7	Sololá	713	San Lucas Tolimán	10	San Lucas Tolimán	6	Junio	2023-06-21T00:00:00	2024-11-08T13:00:00	8	Radiación solar	980
131169	7	Sololá	713	San Lucas Tolimán	10	San Lucas Tolimán	6	Junio	2023-06-21T00:00:00	2024-11-08T14:00:00	2	Temperatura media	21.7
131170	7	Sololá	713	San Lucas Tolimán	10	San Lucas Tolimán	6	Junio	2023-06-21T00:00:00	2024-11-08T14:00:00	4	Temperatura máxima	22.5
131171	7	Sololá	713	San Lucas Tolimán	10	San Lucas Tolimán	6	Junio	2023-06-21T00:00:00	2024-11-08T14:00:00	3	Temperatura mínima	21.2
131172	7	Sololá	713	San Lucas Tolimán	10	San Lucas Tolimán	6	Junio	2023-06-21T00:00:00	2024-11-08T14:00:00	5	Humedad	58
131173	7	Sololá	713	San Lucas Tolimán	10	San Lucas Tolimán	6	Junio	2023-06-21T00:00:00	2024-11-08T14:00:00	6	Velocidad del viento	9.7
131174	7	Sololá	713	San Lucas Tolimán	10	San Lucas Tolimán	6	Junio	2023-06-21T00:00:00	2024-11-08T14:00:00	7	Dirección del viento	9.66
131175	7	Sololá	713	San Lucas Tolimán	10	San Lucas Tolimán	6	Junio	2023-06-21T00:00:00	2024-11-08T14:00:00	1	Precipitación	0
131176	7	Sololá	713	San Lucas Tolimán	10	San Lucas Tolimán	6	Junio	2023-06-21T00:00:00	2024-11-08T14:00:00	8	Radiación solar	523
131177	7	Sololá	713	San Lucas Tolimán	10	San Lucas Tolimán	6	Junio	2023-06-21T00:00:00	2024-11-08T15:00:00	2	Temperatura media	20.9
131178	7	Sololá	713	San Lucas Tolimán	10	San Lucas Tolimán	6	Junio	2023-06-21T00:00:00	2024-11-08T15:00:00	4	Temperatura máxima	22.2
131179	7	Sololá	713	San Lucas Tolimán	10	San Lucas Tolimán	6	Junio	2023-06-21T00:00:00	2024-11-08T15:00:00	3	Temperatura mínima	20.8
131180	7	Sololá	713	San Lucas Tolimán	10	San Lucas Tolimán	6	Junio	2023-06-21T00:00:00	2024-11-08T15:00:00	5	Humedad	59
131181	7	Sololá	713	San Lucas Tolimán	10	San Lucas Tolimán	6	Junio	2023-06-21T00:00:00	2024-11-08T15:00:00	6	Velocidad del viento	8
131182	7	Sololá	713	San Lucas Tolimán	10	San Lucas Tolimán	6	Junio	2023-06-21T00:00:00	2024-11-08T15:00:00	7	Dirección del viento	8.05
131183	7	Sololá	713	San Lucas Tolimán	10	San Lucas Tolimán	6	Junio	2023-06-21T00:00:00	2024-11-08T15:00:00	1	Precipitación	0
131184	7	Sololá	713	San Lucas Tolimán	10	San Lucas Tolimán	6	Junio	2023-06-21T00:00:00	2024-11-08T15:00:00	8	Radiación solar	348
131185	7	Sololá	713	San Lucas Tolimán	10	San Lucas Tolimán	6	Junio	2023-06-21T00:00:00	2024-11-08T16:00:00	2	Temperatura media	19.8
131186	7	Sololá	713	San Lucas Tolimán	10	San Lucas Tolimán	6	Junio	2023-06-21T00:00:00	2024-11-08T16:00:00	4	Temperatura máxima	21.1
131187	7	Sololá	713	San Lucas Tolimán	10	San Lucas Tolimán	6	Junio	2023-06-21T00:00:00	2024-11-08T16:00:00	3	Temperatura mínima	19.8
131188	7	Sololá	713	San Lucas Tolimán	10	San Lucas Tolimán	6	Junio	2023-06-21T00:00:00	2024-11-08T16:00:00	5	Humedad	59
131189	7	Sololá	713	San Lucas Tolimán	10	San Lucas Tolimán	6	Junio	2023-06-21T00:00:00	2024-11-08T16:00:00	6	Velocidad del viento	8
131190	7	Sololá	713	San Lucas Tolimán	10	San Lucas Tolimán	6	Junio	2023-06-21T00:00:00	2024-11-08T16:00:00	7	Dirección del viento	8.05
131191	7	Sololá	713	San Lucas Tolimán	10	San Lucas Tolimán	6	Junio	2023-06-21T00:00:00	2024-11-08T16:00:00	1	Precipitación	0
131192	7	Sololá	713	San Lucas Tolimán	10	San Lucas Tolimán	6	Junio	2023-06-21T00:00:00	2024-11-08T16:00:00	8	Radiación solar	119
131193	7	Sololá	713	San Lucas Tolimán	10	San Lucas Tolimán	6	Junio	2023-06-21T00:00:00	2024-11-08T17:00:00	2	Temperatura media	19
131194	7	Sololá	713	San Lucas Tolimán	10	San Lucas Tolimán	6	Junio	2023-06-21T00:00:00	2024-11-08T17:00:00	4	Temperatura máxima	19.9
131195	7	Sololá	713	San Lucas Tolimán	10	San Lucas Tolimán	6	Junio	2023-06-21T00:00:00	2024-11-08T17:00:00	3	Temperatura mínima	19
131196	7	Sololá	713	San Lucas Tolimán	10	San Lucas Tolimán	6	Junio	2023-06-21T00:00:00	2024-11-08T17:00:00	5	Humedad	62
131197	7	Sololá	713	San Lucas Tolimán	10	San Lucas Tolimán	6	Junio	2023-06-21T00:00:00	2024-11-08T17:00:00	6	Velocidad del viento	4.8
131198	7	Sololá	713	San Lucas Tolimán	10	San Lucas Tolimán	6	Junio	2023-06-21T00:00:00	2024-11-08T17:00:00	7	Dirección del viento	4.83
131199	7	Sololá	713	San Lucas Tolimán	10	San Lucas Tolimán	6	Junio	2023-06-21T00:00:00	2024-11-08T17:00:00	1	Precipitación	4.8
131200	7	Sololá	713	San Lucas Tolimán	10	San Lucas Tolimán	6	Junio	2023-06-21T00:00:00	2024-11-08T17:00:00	8	Radiación solar	53
131201	7	Sololá	713	San Lucas Tolimán	10	San Lucas Tolimán	6	Junio	2023-06-21T00:00:00	2024-11-08T18:00:00	2	Temperatura media	18.9
131202	7	Sololá	713	San Lucas Tolimán	10	San Lucas Tolimán	6	Junio	2023-06-21T00:00:00	2024-11-08T18:00:00	4	Temperatura máxima	19
131203	7	Sololá	713	San Lucas Tolimán	10	San Lucas Tolimán	6	Junio	2023-06-21T00:00:00	2024-11-08T18:00:00	3	Temperatura mínima	18.7
131204	7	Sololá	713	San Lucas Tolimán	10	San Lucas Tolimán	6	Junio	2023-06-21T00:00:00	2024-11-08T18:00:00	5	Humedad	63
131205	7	Sololá	713	San Lucas Tolimán	10	San Lucas Tolimán	6	Junio	2023-06-21T00:00:00	2024-11-08T18:00:00	6	Velocidad del viento	3.2
131206	7	Sololá	713	San Lucas Tolimán	10	San Lucas Tolimán	6	Junio	2023-06-21T00:00:00	2024-11-08T18:00:00	7	Dirección del viento	3.22
131207	7	Sololá	713	San Lucas Tolimán	10	San Lucas Tolimán	6	Junio	2023-06-21T00:00:00	2024-11-08T18:00:00	1	Precipitación	0.2
131208	7	Sololá	713	San Lucas Tolimán	10	San Lucas Tolimán	6	Junio	2023-06-21T00:00:00	2024-11-08T18:00:00	8	Radiación solar	35
131209	7	Sololá	713	San Lucas Tolimán	10	San Lucas Tolimán	6	Junio	2023-06-21T00:00:00	2024-11-08T19:00:00	2	Temperatura media	18.2
131210	7	Sololá	713	San Lucas Tolimán	10	San Lucas Tolimán	6	Junio	2023-06-21T00:00:00	2024-11-08T19:00:00	4	Temperatura máxima	18.9
131211	7	Sololá	713	San Lucas Tolimán	10	San Lucas Tolimán	6	Junio	2023-06-21T00:00:00	2024-11-08T19:00:00	3	Temperatura mínima	18.2
131212	7	Sololá	713	San Lucas Tolimán	10	San Lucas Tolimán	6	Junio	2023-06-21T00:00:00	2024-11-08T19:00:00	5	Humedad	62
131213	7	Sololá	713	San Lucas Tolimán	10	San Lucas Tolimán	6	Junio	2023-06-21T00:00:00	2024-11-08T19:00:00	6	Velocidad del viento	1.6
131214	7	Sololá	713	San Lucas Tolimán	10	San Lucas Tolimán	6	Junio	2023-06-21T00:00:00	2024-11-08T19:00:00	7	Dirección del viento	1.61
131215	7	Sololá	713	San Lucas Tolimán	10	San Lucas Tolimán	6	Junio	2023-06-21T00:00:00	2024-11-08T19:00:00	1	Precipitación	0
131216	7	Sololá	713	San Lucas Tolimán	10	San Lucas Tolimán	6	Junio	2023-06-21T00:00:00	2024-11-08T19:00:00	8	Radiación solar	0
131217	7	Sololá	713	San Lucas Tolimán	10	San Lucas Tolimán	6	Junio	2023-06-21T00:00:00	2024-11-08T20:00:00	2	Temperatura media	18
131218	7	Sololá	713	San Lucas Tolimán	10	San Lucas Tolimán	6	Junio	2023-06-21T00:00:00	2024-11-08T20:00:00	4	Temperatura máxima	18.3
131219	7	Sololá	713	San Lucas Tolimán	10	San Lucas Tolimán	6	Junio	2023-06-21T00:00:00	2024-11-08T20:00:00	3	Temperatura mínima	17.7
131220	7	Sololá	713	San Lucas Tolimán	10	San Lucas Tolimán	6	Junio	2023-06-21T00:00:00	2024-11-08T20:00:00	5	Humedad	63
131221	7	Sololá	713	San Lucas Tolimán	10	San Lucas Tolimán	6	Junio	2023-06-21T00:00:00	2024-11-08T20:00:00	6	Velocidad del viento	3.2
131222	7	Sololá	713	San Lucas Tolimán	10	San Lucas Tolimán	6	Junio	2023-06-21T00:00:00	2024-11-08T20:00:00	7	Dirección del viento	3.22
131223	7	Sololá	713	San Lucas Tolimán	10	San Lucas Tolimán	6	Junio	2023-06-21T00:00:00	2024-11-08T20:00:00	1	Precipitación	0
131224	7	Sololá	713	San Lucas Tolimán	10	San Lucas Tolimán	6	Junio	2023-06-21T00:00:00	2024-11-08T20:00:00	8	Radiación solar	0
131225	7	Sololá	713	San Lucas Tolimán	10	San Lucas Tolimán	6	Junio	2023-06-21T00:00:00	2024-11-08T21:00:00	2	Temperatura media	17.9
131226	7	Sololá	713	San Lucas Tolimán	10	San Lucas Tolimán	6	Junio	2023-06-21T00:00:00	2024-11-08T21:00:00	4	Temperatura máxima	18.1
131227	7	Sololá	713	San Lucas Tolimán	10	San Lucas Tolimán	6	Junio	2023-06-21T00:00:00	2024-11-08T21:00:00	3	Temperatura mínima	17.8
131228	7	Sololá	713	San Lucas Tolimán	10	San Lucas Tolimán	6	Junio	2023-06-21T00:00:00	2024-11-08T21:00:00	5	Humedad	63
131229	7	Sololá	713	San Lucas Tolimán	10	San Lucas Tolimán	6	Junio	2023-06-21T00:00:00	2024-11-08T21:00:00	6	Velocidad del viento	0
131230	7	Sololá	713	San Lucas Tolimán	10	San Lucas Tolimán	6	Junio	2023-06-21T00:00:00	2024-11-08T21:00:00	7	Dirección del viento	0
131231	7	Sololá	713	San Lucas Tolimán	10	San Lucas Tolimán	6	Junio	2023-06-21T00:00:00	2024-11-08T21:00:00	1	Precipitación	0
131232	7	Sololá	713	San Lucas Tolimán	10	San Lucas Tolimán	6	Junio	2023-06-21T00:00:00	2024-11-08T21:00:00	8	Radiación solar	0
131233	7	Sololá	713	San Lucas Tolimán	10	San Lucas Tolimán	6	Junio	2023-06-21T00:00:00	2024-11-08T22:00:00	2	Temperatura media	18.2
131234	7	Sololá	713	San Lucas Tolimán	10	San Lucas Tolimán	6	Junio	2023-06-21T00:00:00	2024-11-08T22:00:00	4	Temperatura máxima	18.2
131235	7	Sololá	713	San Lucas Tolimán	10	San Lucas Tolimán	6	Junio	2023-06-21T00:00:00	2024-11-08T22:00:00	3	Temperatura mínima	17.9
131236	7	Sololá	713	San Lucas Tolimán	10	San Lucas Tolimán	6	Junio	2023-06-21T00:00:00	2024-11-08T22:00:00	5	Humedad	62
131237	7	Sololá	713	San Lucas Tolimán	10	San Lucas Tolimán	6	Junio	2023-06-21T00:00:00	2024-11-08T22:00:00	6	Velocidad del viento	1.6
131238	7	Sololá	713	San Lucas Tolimán	10	San Lucas Tolimán	6	Junio	2023-06-21T00:00:00	2024-11-08T22:00:00	7	Dirección del viento	1.61
131239	7	Sololá	713	San Lucas Tolimán	10	San Lucas Tolimán	6	Junio	2023-06-21T00:00:00	2024-11-08T22:00:00	1	Precipitación	0
131240	7	Sololá	713	San Lucas Tolimán	10	San Lucas Tolimán	6	Junio	2023-06-21T00:00:00	2024-11-08T22:00:00	8	Radiación solar	0
131241	7	Sololá	713	San Lucas Tolimán	10	San Lucas Tolimán	6	Junio	2023-06-21T00:00:00	2024-11-08T23:00:00	2	Temperatura media	18.4
131242	7	Sololá	713	San Lucas Tolimán	10	San Lucas Tolimán	6	Junio	2023-06-21T00:00:00	2024-11-08T23:00:00	4	Temperatura máxima	18.6
131243	7	Sololá	713	San Lucas Tolimán	10	San Lucas Tolimán	6	Junio	2023-06-21T00:00:00	2024-11-08T23:00:00	3	Temperatura mínima	18.2
131244	7	Sololá	713	San Lucas Tolimán	10	San Lucas Tolimán	6	Junio	2023-06-21T00:00:00	2024-11-08T23:00:00	5	Humedad	61
131245	7	Sololá	713	San Lucas Tolimán	10	San Lucas Tolimán	6	Junio	2023-06-21T00:00:00	2024-11-08T23:00:00	6	Velocidad del viento	0
131246	7	Sololá	713	San Lucas Tolimán	10	San Lucas Tolimán	6	Junio	2023-06-21T00:00:00	2024-11-08T23:00:00	7	Dirección del viento	0
131247	7	Sololá	713	San Lucas Tolimán	10	San Lucas Tolimán	6	Junio	2023-06-21T00:00:00	2024-11-08T23:00:00	1	Precipitación	0
131248	7	Sololá	713	San Lucas Tolimán	10	San Lucas Tolimán	6	Junio	2023-06-21T00:00:00	2024-11-08T23:00:00	8	Radiación solar	0
131249	7	Sololá	713	San Lucas Tolimán	10	San Lucas Tolimán	6	Junio	2023-06-22T00:00:00	2024-11-08T00:00:00	2	Temperatura media	17.9
131250	7	Sololá	713	San Lucas Tolimán	10	San Lucas Tolimán	6	Junio	2023-06-22T00:00:00	2024-11-08T00:00:00	4	Temperatura máxima	18.4
131251	7	Sololá	713	San Lucas Tolimán	10	San Lucas Tolimán	6	Junio	2023-06-22T00:00:00	2024-11-08T00:00:00	3	Temperatura mínima	17.8
131252	7	Sololá	713	San Lucas Tolimán	10	San Lucas Tolimán	6	Junio	2023-06-22T00:00:00	2024-11-08T00:00:00	5	Humedad	61
131253	7	Sololá	713	San Lucas Tolimán	10	San Lucas Tolimán	6	Junio	2023-06-22T00:00:00	2024-11-08T00:00:00	6	Velocidad del viento	1.6
131254	7	Sololá	713	San Lucas Tolimán	10	San Lucas Tolimán	6	Junio	2023-06-22T00:00:00	2024-11-08T00:00:00	7	Dirección del viento	1.61
131255	7	Sololá	713	San Lucas Tolimán	10	San Lucas Tolimán	6	Junio	2023-06-22T00:00:00	2024-11-08T00:00:00	1	Precipitación	0
131256	7	Sololá	713	San Lucas Tolimán	10	San Lucas Tolimán	6	Junio	2023-06-22T00:00:00	2024-11-08T00:00:00	8	Radiación solar	0
131257	7	Sololá	713	San Lucas Tolimán	10	San Lucas Tolimán	6	Junio	2023-06-22T00:00:00	2024-11-08T01:00:00	2	Temperatura media	17.7
131258	7	Sololá	713	San Lucas Tolimán	10	San Lucas Tolimán	6	Junio	2023-06-22T00:00:00	2024-11-08T01:00:00	4	Temperatura máxima	18
131259	7	Sololá	713	San Lucas Tolimán	10	San Lucas Tolimán	6	Junio	2023-06-22T00:00:00	2024-11-08T01:00:00	3	Temperatura mínima	17.7
131260	7	Sololá	713	San Lucas Tolimán	10	San Lucas Tolimán	6	Junio	2023-06-22T00:00:00	2024-11-08T01:00:00	5	Humedad	61
131261	7	Sololá	713	San Lucas Tolimán	10	San Lucas Tolimán	6	Junio	2023-06-22T00:00:00	2024-11-08T01:00:00	6	Velocidad del viento	1.6
131262	7	Sololá	713	San Lucas Tolimán	10	San Lucas Tolimán	6	Junio	2023-06-22T00:00:00	2024-11-08T01:00:00	7	Dirección del viento	1.61
131263	7	Sololá	713	San Lucas Tolimán	10	San Lucas Tolimán	6	Junio	2023-06-22T00:00:00	2024-11-08T01:00:00	1	Precipitación	0.2
131264	7	Sololá	713	San Lucas Tolimán	10	San Lucas Tolimán	6	Junio	2023-06-22T00:00:00	2024-11-08T01:00:00	8	Radiación solar	0
131265	7	Sololá	713	San Lucas Tolimán	10	San Lucas Tolimán	6	Junio	2023-06-22T00:00:00	2024-11-08T02:00:00	2	Temperatura media	17.6
131266	7	Sololá	713	San Lucas Tolimán	10	San Lucas Tolimán	6	Junio	2023-06-22T00:00:00	2024-11-08T02:00:00	4	Temperatura máxima	17.9
131267	7	Sololá	713	San Lucas Tolimán	10	San Lucas Tolimán	6	Junio	2023-06-22T00:00:00	2024-11-08T02:00:00	3	Temperatura mínima	17.6
131268	7	Sololá	713	San Lucas Tolimán	10	San Lucas Tolimán	6	Junio	2023-06-22T00:00:00	2024-11-08T02:00:00	5	Humedad	63
131269	7	Sololá	713	San Lucas Tolimán	10	San Lucas Tolimán	6	Junio	2023-06-22T00:00:00	2024-11-08T02:00:00	6	Velocidad del viento	1.6
131270	7	Sololá	713	San Lucas Tolimán	10	San Lucas Tolimán	6	Junio	2023-06-22T00:00:00	2024-11-08T02:00:00	7	Dirección del viento	1.61
131271	7	Sololá	713	San Lucas Tolimán	10	San Lucas Tolimán	6	Junio	2023-06-22T00:00:00	2024-11-08T02:00:00	1	Precipitación	0.6
131272	7	Sololá	713	San Lucas Tolimán	10	San Lucas Tolimán	6	Junio	2023-06-22T00:00:00	2024-11-08T02:00:00	8	Radiación solar	0
131273	7	Sololá	713	San Lucas Tolimán	10	San Lucas Tolimán	6	Junio	2023-06-22T00:00:00	2024-11-08T03:00:00	2	Temperatura media	17.1
131274	7	Sololá	713	San Lucas Tolimán	10	San Lucas Tolimán	6	Junio	2023-06-22T00:00:00	2024-11-08T03:00:00	4	Temperatura máxima	17.7
131275	7	Sololá	713	San Lucas Tolimán	10	San Lucas Tolimán	6	Junio	2023-06-22T00:00:00	2024-11-08T03:00:00	3	Temperatura mínima	17.1
131276	7	Sololá	713	San Lucas Tolimán	10	San Lucas Tolimán	6	Junio	2023-06-22T00:00:00	2024-11-08T03:00:00	5	Humedad	64
131277	7	Sololá	713	San Lucas Tolimán	10	San Lucas Tolimán	6	Junio	2023-06-22T00:00:00	2024-11-08T03:00:00	6	Velocidad del viento	0
131278	7	Sololá	713	San Lucas Tolimán	10	San Lucas Tolimán	6	Junio	2023-06-22T00:00:00	2024-11-08T03:00:00	7	Dirección del viento	0
131279	7	Sololá	713	San Lucas Tolimán	10	San Lucas Tolimán	6	Junio	2023-06-22T00:00:00	2024-11-08T03:00:00	1	Precipitación	0.2
131280	7	Sololá	713	San Lucas Tolimán	10	San Lucas Tolimán	6	Junio	2023-06-22T00:00:00	2024-11-08T03:00:00	8	Radiación solar	0
131281	7	Sololá	713	San Lucas Tolimán	10	San Lucas Tolimán	6	Junio	2023-06-22T00:00:00	2024-11-08T04:00:00	2	Temperatura media	17.1
131282	7	Sololá	713	San Lucas Tolimán	10	San Lucas Tolimán	6	Junio	2023-06-22T00:00:00	2024-11-08T04:00:00	4	Temperatura máxima	17.1
131283	7	Sololá	713	San Lucas Tolimán	10	San Lucas Tolimán	6	Junio	2023-06-22T00:00:00	2024-11-08T04:00:00	3	Temperatura mínima	16.8
131284	7	Sololá	713	San Lucas Tolimán	10	San Lucas Tolimán	6	Junio	2023-06-22T00:00:00	2024-11-08T04:00:00	5	Humedad	63
131285	7	Sololá	713	San Lucas Tolimán	10	San Lucas Tolimán	6	Junio	2023-06-22T00:00:00	2024-11-08T04:00:00	6	Velocidad del viento	1.6
131286	7	Sololá	713	San Lucas Tolimán	10	San Lucas Tolimán	6	Junio	2023-06-22T00:00:00	2024-11-08T04:00:00	7	Dirección del viento	1.61
131287	7	Sololá	713	San Lucas Tolimán	10	San Lucas Tolimán	6	Junio	2023-06-22T00:00:00	2024-11-08T04:00:00	1	Precipitación	0
131288	7	Sololá	713	San Lucas Tolimán	10	San Lucas Tolimán	6	Junio	2023-06-22T00:00:00	2024-11-08T04:00:00	8	Radiación solar	0
131289	7	Sololá	713	San Lucas Tolimán	10	San Lucas Tolimán	6	Junio	2023-06-22T00:00:00	2024-11-08T05:00:00	2	Temperatura media	16.7
131290	7	Sololá	713	San Lucas Tolimán	10	San Lucas Tolimán	6	Junio	2023-06-22T00:00:00	2024-11-08T05:00:00	4	Temperatura máxima	17.2
131291	7	Sololá	713	San Lucas Tolimán	10	San Lucas Tolimán	6	Junio	2023-06-22T00:00:00	2024-11-08T05:00:00	3	Temperatura mínima	16.6
131292	7	Sololá	713	San Lucas Tolimán	10	San Lucas Tolimán	6	Junio	2023-06-22T00:00:00	2024-11-08T05:00:00	5	Humedad	63
131293	7	Sololá	713	San Lucas Tolimán	10	San Lucas Tolimán	6	Junio	2023-06-22T00:00:00	2024-11-08T05:00:00	6	Velocidad del viento	0
131294	7	Sololá	713	San Lucas Tolimán	10	San Lucas Tolimán	6	Junio	2023-06-22T00:00:00	2024-11-08T05:00:00	7	Dirección del viento	0
131295	7	Sololá	713	San Lucas Tolimán	10	San Lucas Tolimán	6	Junio	2023-06-22T00:00:00	2024-11-08T05:00:00	1	Precipitación	0
131296	7	Sololá	713	San Lucas Tolimán	10	San Lucas Tolimán	6	Junio	2023-06-22T00:00:00	2024-11-08T05:00:00	8	Radiación solar	0
131297	7	Sololá	713	San Lucas Tolimán	10	San Lucas Tolimán	6	Junio	2023-06-22T00:00:00	2024-11-08T06:00:00	2	Temperatura media	16.5
131298	7	Sololá	713	San Lucas Tolimán	10	San Lucas Tolimán	6	Junio	2023-06-22T00:00:00	2024-11-08T06:00:00	4	Temperatura máxima	16.8
131299	7	Sololá	713	San Lucas Tolimán	10	San Lucas Tolimán	6	Junio	2023-06-22T00:00:00	2024-11-08T06:00:00	3	Temperatura mínima	16.4
131300	7	Sololá	713	San Lucas Tolimán	10	San Lucas Tolimán	6	Junio	2023-06-22T00:00:00	2024-11-08T06:00:00	5	Humedad	64
131301	7	Sololá	713	San Lucas Tolimán	10	San Lucas Tolimán	6	Junio	2023-06-22T00:00:00	2024-11-08T06:00:00	6	Velocidad del viento	1.6
131302	7	Sololá	713	San Lucas Tolimán	10	San Lucas Tolimán	6	Junio	2023-06-22T00:00:00	2024-11-08T06:00:00	7	Dirección del viento	1.61
131303	7	Sololá	713	San Lucas Tolimán	10	San Lucas Tolimán	6	Junio	2023-06-22T00:00:00	2024-11-08T06:00:00	1	Precipitación	0
131304	7	Sololá	713	San Lucas Tolimán	10	San Lucas Tolimán	6	Junio	2023-06-22T00:00:00	2024-11-08T06:00:00	8	Radiación solar	2
131305	7	Sololá	713	San Lucas Tolimán	10	San Lucas Tolimán	6	Junio	2023-06-22T00:00:00	2024-11-08T07:00:00	2	Temperatura media	17.2
131306	7	Sololá	713	San Lucas Tolimán	10	San Lucas Tolimán	6	Junio	2023-06-22T00:00:00	2024-11-08T07:00:00	4	Temperatura máxima	17.2
131307	7	Sololá	713	San Lucas Tolimán	10	San Lucas Tolimán	6	Junio	2023-06-22T00:00:00	2024-11-08T07:00:00	3	Temperatura mínima	16.5
131308	7	Sololá	713	San Lucas Tolimán	10	San Lucas Tolimán	6	Junio	2023-06-22T00:00:00	2024-11-08T07:00:00	5	Humedad	62
131309	7	Sololá	713	San Lucas Tolimán	10	San Lucas Tolimán	6	Junio	2023-06-22T00:00:00	2024-11-08T07:00:00	6	Velocidad del viento	3.2
131310	7	Sololá	713	San Lucas Tolimán	10	San Lucas Tolimán	6	Junio	2023-06-22T00:00:00	2024-11-08T07:00:00	7	Dirección del viento	3.22
131311	7	Sololá	713	San Lucas Tolimán	10	San Lucas Tolimán	6	Junio	2023-06-22T00:00:00	2024-11-08T07:00:00	1	Precipitación	0
131312	7	Sololá	713	San Lucas Tolimán	10	San Lucas Tolimán	6	Junio	2023-06-22T00:00:00	2024-11-08T07:00:00	8	Radiación solar	53
131313	7	Sololá	713	San Lucas Tolimán	10	San Lucas Tolimán	6	Junio	2023-06-22T00:00:00	2024-11-08T08:00:00	2	Temperatura media	20.1
131314	7	Sololá	713	San Lucas Tolimán	10	San Lucas Tolimán	6	Junio	2023-06-22T00:00:00	2024-11-08T08:00:00	4	Temperatura máxima	20.1
131315	7	Sololá	713	San Lucas Tolimán	10	San Lucas Tolimán	6	Junio	2023-06-22T00:00:00	2024-11-08T08:00:00	3	Temperatura mínima	17.2
131316	7	Sololá	713	San Lucas Tolimán	10	San Lucas Tolimán	6	Junio	2023-06-22T00:00:00	2024-11-08T08:00:00	5	Humedad	55
131317	7	Sololá	713	San Lucas Tolimán	10	San Lucas Tolimán	6	Junio	2023-06-22T00:00:00	2024-11-08T08:00:00	6	Velocidad del viento	3.2
131318	7	Sololá	713	San Lucas Tolimán	10	San Lucas Tolimán	6	Junio	2023-06-22T00:00:00	2024-11-08T08:00:00	7	Dirección del viento	3.22
131319	7	Sololá	713	San Lucas Tolimán	10	San Lucas Tolimán	6	Junio	2023-06-22T00:00:00	2024-11-08T08:00:00	1	Precipitación	0
131320	7	Sololá	713	San Lucas Tolimán	10	San Lucas Tolimán	6	Junio	2023-06-22T00:00:00	2024-11-08T08:00:00	8	Radiación solar	340
131321	7	Sololá	713	San Lucas Tolimán	10	San Lucas Tolimán	6	Junio	2023-06-22T00:00:00	2024-11-08T09:00:00	2	Temperatura media	22.1
131322	7	Sololá	713	San Lucas Tolimán	10	San Lucas Tolimán	6	Junio	2023-06-22T00:00:00	2024-11-08T09:00:00	4	Temperatura máxima	22.1
131323	7	Sololá	713	San Lucas Tolimán	10	San Lucas Tolimán	6	Junio	2023-06-22T00:00:00	2024-11-08T09:00:00	3	Temperatura mínima	20
131324	7	Sololá	713	San Lucas Tolimán	10	San Lucas Tolimán	6	Junio	2023-06-22T00:00:00	2024-11-08T09:00:00	5	Humedad	55
131325	7	Sololá	713	San Lucas Tolimán	10	San Lucas Tolimán	6	Junio	2023-06-22T00:00:00	2024-11-08T09:00:00	6	Velocidad del viento	3.2
131326	7	Sololá	713	San Lucas Tolimán	10	San Lucas Tolimán	6	Junio	2023-06-22T00:00:00	2024-11-08T09:00:00	7	Dirección del viento	3.22
131327	7	Sololá	713	San Lucas Tolimán	10	San Lucas Tolimán	6	Junio	2023-06-22T00:00:00	2024-11-08T09:00:00	1	Precipitación	0
131328	7	Sololá	713	San Lucas Tolimán	10	San Lucas Tolimán	6	Junio	2023-06-22T00:00:00	2024-11-08T09:00:00	8	Radiación solar	659
131329	7	Sololá	713	San Lucas Tolimán	10	San Lucas Tolimán	6	Junio	2023-06-22T00:00:00	2024-11-08T10:00:00	2	Temperatura media	20.9
131330	7	Sololá	713	San Lucas Tolimán	10	San Lucas Tolimán	6	Junio	2023-06-22T00:00:00	2024-11-08T10:00:00	4	Temperatura máxima	22.6
131331	7	Sololá	713	San Lucas Tolimán	10	San Lucas Tolimán	6	Junio	2023-06-22T00:00:00	2024-11-08T10:00:00	3	Temperatura mínima	20.9
131332	7	Sololá	713	San Lucas Tolimán	10	San Lucas Tolimán	6	Junio	2023-06-22T00:00:00	2024-11-08T10:00:00	5	Humedad	60
131333	7	Sololá	713	San Lucas Tolimán	10	San Lucas Tolimán	6	Junio	2023-06-22T00:00:00	2024-11-08T10:00:00	6	Velocidad del viento	6.4
131334	7	Sololá	713	San Lucas Tolimán	10	San Lucas Tolimán	6	Junio	2023-06-22T00:00:00	2024-11-08T10:00:00	7	Dirección del viento	6.44
131335	7	Sololá	713	San Lucas Tolimán	10	San Lucas Tolimán	6	Junio	2023-06-22T00:00:00	2024-11-08T10:00:00	1	Precipitación	0
131336	7	Sololá	713	San Lucas Tolimán	10	San Lucas Tolimán	6	Junio	2023-06-22T00:00:00	2024-11-08T10:00:00	8	Radiación solar	656
131337	7	Sololá	713	San Lucas Tolimán	10	San Lucas Tolimán	6	Junio	2023-06-22T00:00:00	2024-11-08T11:00:00	2	Temperatura media	21.1
131338	7	Sololá	713	San Lucas Tolimán	10	San Lucas Tolimán	6	Junio	2023-06-22T00:00:00	2024-11-08T11:00:00	4	Temperatura máxima	22.3
131339	7	Sololá	713	San Lucas Tolimán	10	San Lucas Tolimán	6	Junio	2023-06-22T00:00:00	2024-11-08T11:00:00	3	Temperatura mínima	20.9
131340	7	Sololá	713	San Lucas Tolimán	10	San Lucas Tolimán	6	Junio	2023-06-22T00:00:00	2024-11-08T11:00:00	5	Humedad	60
131341	7	Sololá	713	San Lucas Tolimán	10	San Lucas Tolimán	6	Junio	2023-06-22T00:00:00	2024-11-08T11:00:00	6	Velocidad del viento	9.7
131342	7	Sololá	713	San Lucas Tolimán	10	San Lucas Tolimán	6	Junio	2023-06-22T00:00:00	2024-11-08T11:00:00	7	Dirección del viento	9.66
131343	7	Sololá	713	San Lucas Tolimán	10	San Lucas Tolimán	6	Junio	2023-06-22T00:00:00	2024-11-08T11:00:00	1	Precipitación	0
131344	7	Sololá	713	San Lucas Tolimán	10	San Lucas Tolimán	6	Junio	2023-06-22T00:00:00	2024-11-08T11:00:00	8	Radiación solar	800
131345	7	Sololá	713	San Lucas Tolimán	10	San Lucas Tolimán	6	Junio	2023-06-22T00:00:00	2024-11-08T12:00:00	2	Temperatura media	20.2
131346	7	Sololá	713	San Lucas Tolimán	10	San Lucas Tolimán	6	Junio	2023-06-22T00:00:00	2024-11-08T12:00:00	4	Temperatura máxima	21.5
131347	7	Sololá	713	San Lucas Tolimán	10	San Lucas Tolimán	6	Junio	2023-06-22T00:00:00	2024-11-08T12:00:00	3	Temperatura mínima	20.2
131348	7	Sololá	713	San Lucas Tolimán	10	San Lucas Tolimán	6	Junio	2023-06-22T00:00:00	2024-11-08T12:00:00	5	Humedad	60
131349	7	Sololá	713	San Lucas Tolimán	10	San Lucas Tolimán	6	Junio	2023-06-22T00:00:00	2024-11-08T12:00:00	6	Velocidad del viento	9.7
131350	7	Sololá	713	San Lucas Tolimán	10	San Lucas Tolimán	6	Junio	2023-06-22T00:00:00	2024-11-08T12:00:00	7	Dirección del viento	9.66
131351	7	Sololá	713	San Lucas Tolimán	10	San Lucas Tolimán	6	Junio	2023-06-22T00:00:00	2024-11-08T12:00:00	1	Precipitación	0
131352	7	Sololá	713	San Lucas Tolimán	10	San Lucas Tolimán	6	Junio	2023-06-22T00:00:00	2024-11-08T12:00:00	8	Radiación solar	561
131353	7	Sololá	713	San Lucas Tolimán	10	San Lucas Tolimán	6	Junio	2023-06-22T00:00:00	2024-11-08T13:00:00	2	Temperatura media	20.6
131354	7	Sololá	713	San Lucas Tolimán	10	San Lucas Tolimán	6	Junio	2023-06-22T00:00:00	2024-11-08T13:00:00	4	Temperatura máxima	21.6
131355	7	Sololá	713	San Lucas Tolimán	10	San Lucas Tolimán	6	Junio	2023-06-22T00:00:00	2024-11-08T13:00:00	3	Temperatura mínima	19.9
131356	7	Sololá	713	San Lucas Tolimán	10	San Lucas Tolimán	6	Junio	2023-06-22T00:00:00	2024-11-08T13:00:00	5	Humedad	58
131357	7	Sololá	713	San Lucas Tolimán	10	San Lucas Tolimán	6	Junio	2023-06-22T00:00:00	2024-11-08T13:00:00	6	Velocidad del viento	9.7
131358	7	Sololá	713	San Lucas Tolimán	10	San Lucas Tolimán	6	Junio	2023-06-22T00:00:00	2024-11-08T13:00:00	7	Dirección del viento	9.66
131359	7	Sololá	713	San Lucas Tolimán	10	San Lucas Tolimán	6	Junio	2023-06-22T00:00:00	2024-11-08T13:00:00	1	Precipitación	0
131360	7	Sololá	713	San Lucas Tolimán	10	San Lucas Tolimán	6	Junio	2023-06-22T00:00:00	2024-11-08T13:00:00	8	Radiación solar	531
131361	7	Sololá	713	San Lucas Tolimán	10	San Lucas Tolimán	6	Junio	2023-06-22T00:00:00	2024-11-08T14:00:00	2	Temperatura media	19.8
131362	7	Sololá	713	San Lucas Tolimán	10	San Lucas Tolimán	6	Junio	2023-06-22T00:00:00	2024-11-08T14:00:00	4	Temperatura máxima	20.6
131363	7	Sololá	713	San Lucas Tolimán	10	San Lucas Tolimán	6	Junio	2023-06-22T00:00:00	2024-11-08T14:00:00	3	Temperatura mínima	19.3
131364	7	Sololá	713	San Lucas Tolimán	10	San Lucas Tolimán	6	Junio	2023-06-22T00:00:00	2024-11-08T14:00:00	5	Humedad	59
131365	7	Sololá	713	San Lucas Tolimán	10	San Lucas Tolimán	6	Junio	2023-06-22T00:00:00	2024-11-08T14:00:00	6	Velocidad del viento	8
131366	7	Sololá	713	San Lucas Tolimán	10	San Lucas Tolimán	6	Junio	2023-06-22T00:00:00	2024-11-08T14:00:00	7	Dirección del viento	8.05
131367	7	Sololá	713	San Lucas Tolimán	10	San Lucas Tolimán	6	Junio	2023-06-22T00:00:00	2024-11-08T14:00:00	1	Precipitación	0
131368	7	Sololá	713	San Lucas Tolimán	10	San Lucas Tolimán	6	Junio	2023-06-22T00:00:00	2024-11-08T14:00:00	8	Radiación solar	210
131369	7	Sololá	713	San Lucas Tolimán	10	San Lucas Tolimán	6	Junio	2023-06-22T00:00:00	2024-11-08T15:00:00	2	Temperatura media	20.7
131370	7	Sololá	713	San Lucas Tolimán	10	San Lucas Tolimán	6	Junio	2023-06-22T00:00:00	2024-11-08T15:00:00	4	Temperatura máxima	20.7
131371	7	Sololá	713	San Lucas Tolimán	10	San Lucas Tolimán	6	Junio	2023-06-22T00:00:00	2024-11-08T15:00:00	3	Temperatura mínima	19.6
131372	7	Sololá	713	San Lucas Tolimán	10	San Lucas Tolimán	6	Junio	2023-06-22T00:00:00	2024-11-08T15:00:00	5	Humedad	56
131373	7	Sololá	713	San Lucas Tolimán	10	San Lucas Tolimán	6	Junio	2023-06-22T00:00:00	2024-11-08T15:00:00	6	Velocidad del viento	6.4
131374	7	Sololá	713	San Lucas Tolimán	10	San Lucas Tolimán	6	Junio	2023-06-22T00:00:00	2024-11-08T15:00:00	7	Dirección del viento	6.44
131375	7	Sololá	713	San Lucas Tolimán	10	San Lucas Tolimán	6	Junio	2023-06-22T00:00:00	2024-11-08T15:00:00	1	Precipitación	0
131376	7	Sololá	713	San Lucas Tolimán	10	San Lucas Tolimán	6	Junio	2023-06-22T00:00:00	2024-11-08T15:00:00	8	Radiación solar	343
131377	7	Sololá	713	San Lucas Tolimán	10	San Lucas Tolimán	6	Junio	2023-06-22T00:00:00	2024-11-08T16:00:00	2	Temperatura media	20.4
131378	7	Sololá	713	San Lucas Tolimán	10	San Lucas Tolimán	6	Junio	2023-06-22T00:00:00	2024-11-08T16:00:00	4	Temperatura máxima	21.4
131379	7	Sololá	713	San Lucas Tolimán	10	San Lucas Tolimán	6	Junio	2023-06-22T00:00:00	2024-11-08T16:00:00	3	Temperatura mínima	20.4
131380	7	Sololá	713	San Lucas Tolimán	10	San Lucas Tolimán	6	Junio	2023-06-22T00:00:00	2024-11-08T16:00:00	5	Humedad	59
131381	7	Sololá	713	San Lucas Tolimán	10	San Lucas Tolimán	6	Junio	2023-06-22T00:00:00	2024-11-08T16:00:00	6	Velocidad del viento	6.4
131382	7	Sololá	713	San Lucas Tolimán	10	San Lucas Tolimán	6	Junio	2023-06-22T00:00:00	2024-11-08T16:00:00	7	Dirección del viento	6.44
131383	7	Sololá	713	San Lucas Tolimán	10	San Lucas Tolimán	6	Junio	2023-06-22T00:00:00	2024-11-08T16:00:00	1	Precipitación	0
131384	7	Sololá	713	San Lucas Tolimán	10	San Lucas Tolimán	6	Junio	2023-06-22T00:00:00	2024-11-08T16:00:00	8	Radiación solar	375
131385	7	Sololá	713	San Lucas Tolimán	10	San Lucas Tolimán	6	Junio	2023-06-22T00:00:00	2024-11-08T17:00:00	2	Temperatura media	18.7
131386	7	Sololá	713	San Lucas Tolimán	10	San Lucas Tolimán	6	Junio	2023-06-22T00:00:00	2024-11-08T17:00:00	4	Temperatura máxima	20.4
131387	7	Sololá	713	San Lucas Tolimán	10	San Lucas Tolimán	6	Junio	2023-06-22T00:00:00	2024-11-08T17:00:00	3	Temperatura mínima	18.6
131388	7	Sololá	713	San Lucas Tolimán	10	San Lucas Tolimán	6	Junio	2023-06-22T00:00:00	2024-11-08T17:00:00	5	Humedad	61
131389	7	Sololá	713	San Lucas Tolimán	10	San Lucas Tolimán	6	Junio	2023-06-22T00:00:00	2024-11-08T17:00:00	6	Velocidad del viento	9.7
131390	7	Sololá	713	San Lucas Tolimán	10	San Lucas Tolimán	6	Junio	2023-06-22T00:00:00	2024-11-08T17:00:00	7	Dirección del viento	9.66
131391	7	Sololá	713	San Lucas Tolimán	10	San Lucas Tolimán	6	Junio	2023-06-22T00:00:00	2024-11-08T17:00:00	1	Precipitación	0
131392	7	Sololá	713	San Lucas Tolimán	10	San Lucas Tolimán	6	Junio	2023-06-22T00:00:00	2024-11-08T17:00:00	8	Radiación solar	124
131393	7	Sololá	713	San Lucas Tolimán	10	San Lucas Tolimán	6	Junio	2023-06-22T00:00:00	2024-11-08T18:00:00	2	Temperatura media	18.2
131394	7	Sololá	713	San Lucas Tolimán	10	San Lucas Tolimán	6	Junio	2023-06-22T00:00:00	2024-11-08T18:00:00	4	Temperatura máxima	18.7
131395	7	Sololá	713	San Lucas Tolimán	10	San Lucas Tolimán	6	Junio	2023-06-22T00:00:00	2024-11-08T18:00:00	3	Temperatura mínima	18.2
131396	7	Sololá	713	San Lucas Tolimán	10	San Lucas Tolimán	6	Junio	2023-06-22T00:00:00	2024-11-08T18:00:00	5	Humedad	62
131397	7	Sololá	713	San Lucas Tolimán	10	San Lucas Tolimán	6	Junio	2023-06-22T00:00:00	2024-11-08T18:00:00	6	Velocidad del viento	8
131398	7	Sololá	713	San Lucas Tolimán	10	San Lucas Tolimán	6	Junio	2023-06-22T00:00:00	2024-11-08T18:00:00	7	Dirección del viento	8.05
131399	7	Sololá	713	San Lucas Tolimán	10	San Lucas Tolimán	6	Junio	2023-06-22T00:00:00	2024-11-08T18:00:00	1	Precipitación	0
131400	7	Sololá	713	San Lucas Tolimán	10	San Lucas Tolimán	6	Junio	2023-06-22T00:00:00	2024-11-08T18:00:00	8	Radiación solar	20
131401	7	Sololá	713	San Lucas Tolimán	10	San Lucas Tolimán	6	Junio	2023-06-22T00:00:00	2024-11-08T19:00:00	2	Temperatura media	17.7
131402	7	Sololá	713	San Lucas Tolimán	10	San Lucas Tolimán	6	Junio	2023-06-22T00:00:00	2024-11-08T19:00:00	4	Temperatura máxima	18.2
131403	7	Sololá	713	San Lucas Tolimán	10	San Lucas Tolimán	6	Junio	2023-06-22T00:00:00	2024-11-08T19:00:00	3	Temperatura mínima	17.7
131404	7	Sololá	713	San Lucas Tolimán	10	San Lucas Tolimán	6	Junio	2023-06-22T00:00:00	2024-11-08T19:00:00	5	Humedad	66
131405	7	Sololá	713	San Lucas Tolimán	10	San Lucas Tolimán	6	Junio	2023-06-22T00:00:00	2024-11-08T19:00:00	6	Velocidad del viento	6.4
131406	7	Sololá	713	San Lucas Tolimán	10	San Lucas Tolimán	6	Junio	2023-06-22T00:00:00	2024-11-08T19:00:00	7	Dirección del viento	6.44
131407	7	Sololá	713	San Lucas Tolimán	10	San Lucas Tolimán	6	Junio	2023-06-22T00:00:00	2024-11-08T19:00:00	1	Precipitación	1.8
131408	7	Sololá	713	San Lucas Tolimán	10	San Lucas Tolimán	6	Junio	2023-06-22T00:00:00	2024-11-08T19:00:00	8	Radiación solar	0
131409	7	Sololá	713	San Lucas Tolimán	10	San Lucas Tolimán	6	Junio	2023-06-22T00:00:00	2024-11-08T20:00:00	2	Temperatura media	17.4
131410	7	Sololá	713	San Lucas Tolimán	10	San Lucas Tolimán	6	Junio	2023-06-22T00:00:00	2024-11-08T20:00:00	4	Temperatura máxima	17.7
131411	7	Sololá	713	San Lucas Tolimán	10	San Lucas Tolimán	6	Junio	2023-06-22T00:00:00	2024-11-08T20:00:00	3	Temperatura mínima	17.4
131412	7	Sololá	713	San Lucas Tolimán	10	San Lucas Tolimán	6	Junio	2023-06-22T00:00:00	2024-11-08T20:00:00	5	Humedad	68
131413	7	Sololá	713	San Lucas Tolimán	10	San Lucas Tolimán	6	Junio	2023-06-22T00:00:00	2024-11-08T20:00:00	6	Velocidad del viento	3.2
131414	7	Sololá	713	San Lucas Tolimán	10	San Lucas Tolimán	6	Junio	2023-06-22T00:00:00	2024-11-08T20:00:00	7	Dirección del viento	3.22
131415	7	Sololá	713	San Lucas Tolimán	10	San Lucas Tolimán	6	Junio	2023-06-22T00:00:00	2024-11-08T20:00:00	1	Precipitación	9
131416	7	Sololá	713	San Lucas Tolimán	10	San Lucas Tolimán	6	Junio	2023-06-22T00:00:00	2024-11-08T20:00:00	8	Radiación solar	0
131417	7	Sololá	713	San Lucas Tolimán	10	San Lucas Tolimán	6	Junio	2023-06-22T00:00:00	2024-11-08T21:00:00	2	Temperatura media	17.4
131418	7	Sololá	713	San Lucas Tolimán	10	San Lucas Tolimán	6	Junio	2023-06-22T00:00:00	2024-11-08T21:00:00	4	Temperatura máxima	17.6
131419	7	Sololá	713	San Lucas Tolimán	10	San Lucas Tolimán	6	Junio	2023-06-22T00:00:00	2024-11-08T21:00:00	3	Temperatura mínima	17.3
131420	7	Sololá	713	San Lucas Tolimán	10	San Lucas Tolimán	6	Junio	2023-06-22T00:00:00	2024-11-08T21:00:00	5	Humedad	68
131421	7	Sololá	713	San Lucas Tolimán	10	San Lucas Tolimán	6	Junio	2023-06-22T00:00:00	2024-11-08T21:00:00	6	Velocidad del viento	4.8
131422	7	Sololá	713	San Lucas Tolimán	10	San Lucas Tolimán	6	Junio	2023-06-22T00:00:00	2024-11-08T21:00:00	7	Dirección del viento	4.83
131423	7	Sololá	713	San Lucas Tolimán	10	San Lucas Tolimán	6	Junio	2023-06-22T00:00:00	2024-11-08T21:00:00	1	Precipitación	0
131424	7	Sololá	713	San Lucas Tolimán	10	San Lucas Tolimán	6	Junio	2023-06-22T00:00:00	2024-11-08T21:00:00	8	Radiación solar	0
131425	7	Sololá	713	San Lucas Tolimán	10	San Lucas Tolimán	6	Junio	2023-06-22T00:00:00	2024-11-08T22:00:00	2	Temperatura media	17.2
131426	7	Sololá	713	San Lucas Tolimán	10	San Lucas Tolimán	6	Junio	2023-06-22T00:00:00	2024-11-08T22:00:00	4	Temperatura máxima	17.4
131427	7	Sololá	713	San Lucas Tolimán	10	San Lucas Tolimán	6	Junio	2023-06-22T00:00:00	2024-11-08T22:00:00	3	Temperatura mínima	17.2
131428	7	Sololá	713	San Lucas Tolimán	10	San Lucas Tolimán	6	Junio	2023-06-22T00:00:00	2024-11-08T22:00:00	5	Humedad	68
131429	7	Sololá	713	San Lucas Tolimán	10	San Lucas Tolimán	6	Junio	2023-06-22T00:00:00	2024-11-08T22:00:00	6	Velocidad del viento	8
131430	7	Sololá	713	San Lucas Tolimán	10	San Lucas Tolimán	6	Junio	2023-06-22T00:00:00	2024-11-08T22:00:00	7	Dirección del viento	8.05
131431	7	Sololá	713	San Lucas Tolimán	10	San Lucas Tolimán	6	Junio	2023-06-22T00:00:00	2024-11-08T22:00:00	1	Precipitación	0
131432	7	Sololá	713	San Lucas Tolimán	10	San Lucas Tolimán	6	Junio	2023-06-22T00:00:00	2024-11-08T22:00:00	8	Radiación solar	0
131433	7	Sololá	713	San Lucas Tolimán	10	San Lucas Tolimán	6	Junio	2023-06-22T00:00:00	2024-11-08T23:00:00	2	Temperatura media	17.2
131434	7	Sololá	713	San Lucas Tolimán	10	San Lucas Tolimán	6	Junio	2023-06-22T00:00:00	2024-11-08T23:00:00	4	Temperatura máxima	17.2
131435	7	Sololá	713	San Lucas Tolimán	10	San Lucas Tolimán	6	Junio	2023-06-22T00:00:00	2024-11-08T23:00:00	3	Temperatura mínima	17.1
131436	7	Sololá	713	San Lucas Tolimán	10	San Lucas Tolimán	6	Junio	2023-06-22T00:00:00	2024-11-08T23:00:00	5	Humedad	68
131437	7	Sololá	713	San Lucas Tolimán	10	San Lucas Tolimán	6	Junio	2023-06-22T00:00:00	2024-11-08T23:00:00	6	Velocidad del viento	6.4
131438	7	Sololá	713	San Lucas Tolimán	10	San Lucas Tolimán	6	Junio	2023-06-22T00:00:00	2024-11-08T23:00:00	7	Dirección del viento	6.44
131439	7	Sololá	713	San Lucas Tolimán	10	San Lucas Tolimán	6	Junio	2023-06-22T00:00:00	2024-11-08T23:00:00	1	Precipitación	0
131440	7	Sololá	713	San Lucas Tolimán	10	San Lucas Tolimán	6	Junio	2023-06-22T00:00:00	2024-11-08T23:00:00	8	Radiación solar	0
131441	7	Sololá	713	San Lucas Tolimán	10	San Lucas Tolimán	6	Junio	2023-06-23T00:00:00	2024-11-08T00:00:00	2	Temperatura media	17.1
131442	7	Sololá	713	San Lucas Tolimán	10	San Lucas Tolimán	6	Junio	2023-06-23T00:00:00	2024-11-08T00:00:00	4	Temperatura máxima	17.2
131443	7	Sololá	713	San Lucas Tolimán	10	San Lucas Tolimán	6	Junio	2023-06-23T00:00:00	2024-11-08T00:00:00	3	Temperatura mínima	17.1
131444	7	Sololá	713	San Lucas Tolimán	10	San Lucas Tolimán	6	Junio	2023-06-23T00:00:00	2024-11-08T00:00:00	5	Humedad	68
131445	7	Sololá	713	San Lucas Tolimán	10	San Lucas Tolimán	6	Junio	2023-06-23T00:00:00	2024-11-08T00:00:00	6	Velocidad del viento	0
131446	7	Sololá	713	San Lucas Tolimán	10	San Lucas Tolimán	6	Junio	2023-06-23T00:00:00	2024-11-08T00:00:00	7	Dirección del viento	0
131447	7	Sololá	713	San Lucas Tolimán	10	San Lucas Tolimán	6	Junio	2023-06-23T00:00:00	2024-11-08T00:00:00	1	Precipitación	0
131448	7	Sololá	713	San Lucas Tolimán	10	San Lucas Tolimán	6	Junio	2023-06-23T00:00:00	2024-11-08T00:00:00	8	Radiación solar	0
131449	7	Sololá	713	San Lucas Tolimán	10	San Lucas Tolimán	6	Junio	2023-06-23T00:00:00	2024-11-08T01:00:00	2	Temperatura media	17.2
131450	7	Sololá	713	San Lucas Tolimán	10	San Lucas Tolimán	6	Junio	2023-06-23T00:00:00	2024-11-08T01:00:00	4	Temperatura máxima	17.2
131451	7	Sololá	713	San Lucas Tolimán	10	San Lucas Tolimán	6	Junio	2023-06-23T00:00:00	2024-11-08T01:00:00	3	Temperatura mínima	16.9
131452	7	Sololá	713	San Lucas Tolimán	10	San Lucas Tolimán	6	Junio	2023-06-23T00:00:00	2024-11-08T01:00:00	5	Humedad	68
131453	7	Sololá	713	San Lucas Tolimán	10	San Lucas Tolimán	6	Junio	2023-06-23T00:00:00	2024-11-08T01:00:00	6	Velocidad del viento	3.2
131454	7	Sololá	713	San Lucas Tolimán	10	San Lucas Tolimán	6	Junio	2023-06-23T00:00:00	2024-11-08T01:00:00	7	Dirección del viento	3.22
131455	7	Sololá	713	San Lucas Tolimán	10	San Lucas Tolimán	6	Junio	2023-06-23T00:00:00	2024-11-08T01:00:00	1	Precipitación	0
131456	7	Sololá	713	San Lucas Tolimán	10	San Lucas Tolimán	6	Junio	2023-06-23T00:00:00	2024-11-08T01:00:00	8	Radiación solar	0
131457	7	Sololá	713	San Lucas Tolimán	10	San Lucas Tolimán	6	Junio	2023-06-23T00:00:00	2024-11-08T02:00:00	2	Temperatura media	16.6
131458	7	Sololá	713	San Lucas Tolimán	10	San Lucas Tolimán	6	Junio	2023-06-23T00:00:00	2024-11-08T02:00:00	4	Temperatura máxima	17.2
131459	7	Sololá	713	San Lucas Tolimán	10	San Lucas Tolimán	6	Junio	2023-06-23T00:00:00	2024-11-08T02:00:00	3	Temperatura mínima	16.6
131460	7	Sololá	713	San Lucas Tolimán	10	San Lucas Tolimán	6	Junio	2023-06-23T00:00:00	2024-11-08T02:00:00	5	Humedad	68
131461	7	Sololá	713	San Lucas Tolimán	10	San Lucas Tolimán	6	Junio	2023-06-23T00:00:00	2024-11-08T02:00:00	6	Velocidad del viento	1.6
131462	7	Sololá	713	San Lucas Tolimán	10	San Lucas Tolimán	6	Junio	2023-06-23T00:00:00	2024-11-08T02:00:00	7	Dirección del viento	1.61
131463	7	Sololá	713	San Lucas Tolimán	10	San Lucas Tolimán	6	Junio	2023-06-23T00:00:00	2024-11-08T02:00:00	1	Precipitación	0
131464	7	Sololá	713	San Lucas Tolimán	10	San Lucas Tolimán	6	Junio	2023-06-23T00:00:00	2024-11-08T02:00:00	8	Radiación solar	0
131465	7	Sololá	713	San Lucas Tolimán	10	San Lucas Tolimán	6	Junio	2023-06-23T00:00:00	2024-11-08T03:00:00	2	Temperatura media	16.8
131466	7	Sololá	713	San Lucas Tolimán	10	San Lucas Tolimán	6	Junio	2023-06-23T00:00:00	2024-11-08T03:00:00	4	Temperatura máxima	16.9
131467	7	Sololá	713	San Lucas Tolimán	10	San Lucas Tolimán	6	Junio	2023-06-23T00:00:00	2024-11-08T03:00:00	3	Temperatura mínima	16.6
131468	7	Sololá	713	San Lucas Tolimán	10	San Lucas Tolimán	6	Junio	2023-06-23T00:00:00	2024-11-08T03:00:00	5	Humedad	68
131469	7	Sololá	713	San Lucas Tolimán	10	San Lucas Tolimán	6	Junio	2023-06-23T00:00:00	2024-11-08T03:00:00	6	Velocidad del viento	1.6
131470	7	Sololá	713	San Lucas Tolimán	10	San Lucas Tolimán	6	Junio	2023-06-23T00:00:00	2024-11-08T03:00:00	7	Dirección del viento	1.61
131471	7	Sololá	713	San Lucas Tolimán	10	San Lucas Tolimán	6	Junio	2023-06-23T00:00:00	2024-11-08T03:00:00	1	Precipitación	0
131472	7	Sololá	713	San Lucas Tolimán	10	San Lucas Tolimán	6	Junio	2023-06-23T00:00:00	2024-11-08T03:00:00	8	Radiación solar	0
131473	7	Sololá	713	San Lucas Tolimán	10	San Lucas Tolimán	6	Junio	2023-06-23T00:00:00	2024-11-08T04:00:00	2	Temperatura media	16.5
131474	7	Sololá	713	San Lucas Tolimán	10	San Lucas Tolimán	6	Junio	2023-06-23T00:00:00	2024-11-08T04:00:00	4	Temperatura máxima	16.9
131475	7	Sololá	713	San Lucas Tolimán	10	San Lucas Tolimán	6	Junio	2023-06-23T00:00:00	2024-11-08T04:00:00	3	Temperatura mínima	16.5
131476	7	Sololá	713	San Lucas Tolimán	10	San Lucas Tolimán	6	Junio	2023-06-23T00:00:00	2024-11-08T04:00:00	5	Humedad	68
131477	7	Sololá	713	San Lucas Tolimán	10	San Lucas Tolimán	6	Junio	2023-06-23T00:00:00	2024-11-08T04:00:00	6	Velocidad del viento	0
131478	7	Sololá	713	San Lucas Tolimán	10	San Lucas Tolimán	6	Junio	2023-06-23T00:00:00	2024-11-08T04:00:00	7	Dirección del viento	0
131479	7	Sololá	713	San Lucas Tolimán	10	San Lucas Tolimán	6	Junio	2023-06-23T00:00:00	2024-11-08T04:00:00	1	Precipitación	0
131480	7	Sololá	713	San Lucas Tolimán	10	San Lucas Tolimán	6	Junio	2023-06-23T00:00:00	2024-11-08T04:00:00	8	Radiación solar	0
131481	7	Sololá	713	San Lucas Tolimán	10	San Lucas Tolimán	6	Junio	2023-06-23T00:00:00	2024-11-08T05:00:00	2	Temperatura media	16.4
131482	7	Sololá	713	San Lucas Tolimán	10	San Lucas Tolimán	6	Junio	2023-06-23T00:00:00	2024-11-08T05:00:00	4	Temperatura máxima	16.5
131483	7	Sololá	713	San Lucas Tolimán	10	San Lucas Tolimán	6	Junio	2023-06-23T00:00:00	2024-11-08T05:00:00	3	Temperatura mínima	16.3
131484	7	Sololá	713	San Lucas Tolimán	10	San Lucas Tolimán	6	Junio	2023-06-23T00:00:00	2024-11-08T05:00:00	5	Humedad	68
131485	7	Sololá	713	San Lucas Tolimán	10	San Lucas Tolimán	6	Junio	2023-06-23T00:00:00	2024-11-08T05:00:00	6	Velocidad del viento	0
131486	7	Sololá	713	San Lucas Tolimán	10	San Lucas Tolimán	6	Junio	2023-06-23T00:00:00	2024-11-08T05:00:00	7	Dirección del viento	0
131487	7	Sololá	713	San Lucas Tolimán	10	San Lucas Tolimán	6	Junio	2023-06-23T00:00:00	2024-11-08T05:00:00	1	Precipitación	0
131488	7	Sololá	713	San Lucas Tolimán	10	San Lucas Tolimán	6	Junio	2023-06-23T00:00:00	2024-11-08T05:00:00	8	Radiación solar	0
131489	7	Sololá	713	San Lucas Tolimán	10	San Lucas Tolimán	6	Junio	2023-06-23T00:00:00	2024-11-08T06:00:00	2	Temperatura media	15.8
131490	7	Sololá	713	San Lucas Tolimán	10	San Lucas Tolimán	6	Junio	2023-06-23T00:00:00	2024-11-08T06:00:00	4	Temperatura máxima	16.4
131491	7	Sololá	713	San Lucas Tolimán	10	San Lucas Tolimán	6	Junio	2023-06-23T00:00:00	2024-11-08T06:00:00	3	Temperatura mínima	15.8
131492	7	Sololá	713	San Lucas Tolimán	10	San Lucas Tolimán	6	Junio	2023-06-23T00:00:00	2024-11-08T06:00:00	5	Humedad	68
131493	7	Sololá	713	San Lucas Tolimán	10	San Lucas Tolimán	6	Junio	2023-06-23T00:00:00	2024-11-08T06:00:00	6	Velocidad del viento	0
131494	7	Sololá	713	San Lucas Tolimán	10	San Lucas Tolimán	6	Junio	2023-06-23T00:00:00	2024-11-08T06:00:00	7	Dirección del viento	0
131495	7	Sololá	713	San Lucas Tolimán	10	San Lucas Tolimán	6	Junio	2023-06-23T00:00:00	2024-11-08T06:00:00	1	Precipitación	0
131496	7	Sololá	713	San Lucas Tolimán	10	San Lucas Tolimán	6	Junio	2023-06-23T00:00:00	2024-11-08T06:00:00	8	Radiación solar	3
131497	7	Sololá	713	San Lucas Tolimán	10	San Lucas Tolimán	6	Junio	2023-06-23T00:00:00	2024-11-08T07:00:00	2	Temperatura media	17.1
131498	7	Sololá	713	San Lucas Tolimán	10	San Lucas Tolimán	6	Junio	2023-06-23T00:00:00	2024-11-08T07:00:00	4	Temperatura máxima	17.1
131499	7	Sololá	713	San Lucas Tolimán	10	San Lucas Tolimán	6	Junio	2023-06-23T00:00:00	2024-11-08T07:00:00	3	Temperatura mínima	15.7
131500	7	Sololá	713	San Lucas Tolimán	10	San Lucas Tolimán	6	Junio	2023-06-23T00:00:00	2024-11-08T07:00:00	5	Humedad	68
131501	7	Sololá	713	San Lucas Tolimán	10	San Lucas Tolimán	6	Junio	2023-06-23T00:00:00	2024-11-08T07:00:00	6	Velocidad del viento	0
131502	7	Sololá	713	San Lucas Tolimán	10	San Lucas Tolimán	6	Junio	2023-06-23T00:00:00	2024-11-08T07:00:00	7	Dirección del viento	0
131503	7	Sololá	713	San Lucas Tolimán	10	San Lucas Tolimán	6	Junio	2023-06-23T00:00:00	2024-11-08T07:00:00	1	Precipitación	0
131504	7	Sololá	713	San Lucas Tolimán	10	San Lucas Tolimán	6	Junio	2023-06-23T00:00:00	2024-11-08T07:00:00	8	Radiación solar	84
131505	7	Sololá	713	San Lucas Tolimán	10	San Lucas Tolimán	6	Junio	2023-06-23T00:00:00	2024-11-08T08:00:00	2	Temperatura media	20
131506	7	Sololá	713	San Lucas Tolimán	10	San Lucas Tolimán	6	Junio	2023-06-23T00:00:00	2024-11-08T08:00:00	4	Temperatura máxima	20
131507	7	Sololá	713	San Lucas Tolimán	10	San Lucas Tolimán	6	Junio	2023-06-23T00:00:00	2024-11-08T08:00:00	3	Temperatura mínima	17.2
131508	7	Sololá	713	San Lucas Tolimán	10	San Lucas Tolimán	6	Junio	2023-06-23T00:00:00	2024-11-08T08:00:00	5	Humedad	61
131509	7	Sololá	713	San Lucas Tolimán	10	San Lucas Tolimán	6	Junio	2023-06-23T00:00:00	2024-11-08T08:00:00	6	Velocidad del viento	0
131510	7	Sololá	713	San Lucas Tolimán	10	San Lucas Tolimán	6	Junio	2023-06-23T00:00:00	2024-11-08T08:00:00	7	Dirección del viento	0
131511	7	Sololá	713	San Lucas Tolimán	10	San Lucas Tolimán	6	Junio	2023-06-23T00:00:00	2024-11-08T08:00:00	1	Precipitación	0
131512	7	Sololá	713	San Lucas Tolimán	10	San Lucas Tolimán	6	Junio	2023-06-23T00:00:00	2024-11-08T08:00:00	8	Radiación solar	238
131513	7	Sololá	713	San Lucas Tolimán	10	San Lucas Tolimán	6	Junio	2023-06-23T00:00:00	2024-11-08T09:00:00	2	Temperatura media	21.8
131514	7	Sololá	713	San Lucas Tolimán	10	San Lucas Tolimán	6	Junio	2023-06-23T00:00:00	2024-11-08T09:00:00	4	Temperatura máxima	21.9
131515	7	Sololá	713	San Lucas Tolimán	10	San Lucas Tolimán	6	Junio	2023-06-23T00:00:00	2024-11-08T09:00:00	3	Temperatura mínima	19.9
131516	7	Sololá	713	San Lucas Tolimán	10	San Lucas Tolimán	6	Junio	2023-06-23T00:00:00	2024-11-08T09:00:00	5	Humedad	53
131517	7	Sololá	713	San Lucas Tolimán	10	San Lucas Tolimán	6	Junio	2023-06-23T00:00:00	2024-11-08T09:00:00	6	Velocidad del viento	1.6
131518	7	Sololá	713	San Lucas Tolimán	10	San Lucas Tolimán	6	Junio	2023-06-23T00:00:00	2024-11-08T09:00:00	7	Dirección del viento	1.61
131519	7	Sololá	713	San Lucas Tolimán	10	San Lucas Tolimán	6	Junio	2023-06-23T00:00:00	2024-11-08T09:00:00	1	Precipitación	0
131520	7	Sololá	713	San Lucas Tolimán	10	San Lucas Tolimán	6	Junio	2023-06-23T00:00:00	2024-11-08T09:00:00	8	Radiación solar	408
131521	7	Sololá	713	San Lucas Tolimán	10	San Lucas Tolimán	6	Junio	2023-06-23T00:00:00	2024-11-08T10:00:00	2	Temperatura media	23.1
131522	7	Sololá	713	San Lucas Tolimán	10	San Lucas Tolimán	6	Junio	2023-06-23T00:00:00	2024-11-08T10:00:00	4	Temperatura máxima	23.2
131523	7	Sololá	713	San Lucas Tolimán	10	San Lucas Tolimán	6	Junio	2023-06-23T00:00:00	2024-11-08T10:00:00	3	Temperatura mínima	21.8
131524	7	Sololá	713	San Lucas Tolimán	10	San Lucas Tolimán	6	Junio	2023-06-23T00:00:00	2024-11-08T10:00:00	5	Humedad	53
131525	7	Sololá	713	San Lucas Tolimán	10	San Lucas Tolimán	6	Junio	2023-06-23T00:00:00	2024-11-08T10:00:00	6	Velocidad del viento	6.4
131526	7	Sololá	713	San Lucas Tolimán	10	San Lucas Tolimán	6	Junio	2023-06-23T00:00:00	2024-11-08T10:00:00	7	Dirección del viento	6.44
131527	7	Sololá	713	San Lucas Tolimán	10	San Lucas Tolimán	6	Junio	2023-06-23T00:00:00	2024-11-08T10:00:00	1	Precipitación	0
131528	7	Sololá	713	San Lucas Tolimán	10	San Lucas Tolimán	6	Junio	2023-06-23T00:00:00	2024-11-08T10:00:00	8	Radiación solar	825
131529	7	Sololá	713	San Lucas Tolimán	10	San Lucas Tolimán	6	Junio	2023-06-23T00:00:00	2024-11-08T11:00:00	2	Temperatura media	22.3
131530	7	Sololá	713	San Lucas Tolimán	10	San Lucas Tolimán	6	Junio	2023-06-23T00:00:00	2024-11-08T11:00:00	4	Temperatura máxima	23.6
131531	7	Sololá	713	San Lucas Tolimán	10	San Lucas Tolimán	6	Junio	2023-06-23T00:00:00	2024-11-08T11:00:00	3	Temperatura mínima	22.3
131532	7	Sololá	713	San Lucas Tolimán	10	San Lucas Tolimán	6	Junio	2023-06-23T00:00:00	2024-11-08T11:00:00	5	Humedad	54
131533	7	Sololá	713	San Lucas Tolimán	10	San Lucas Tolimán	6	Junio	2023-06-23T00:00:00	2024-11-08T11:00:00	6	Velocidad del viento	9.7
131534	7	Sololá	713	San Lucas Tolimán	10	San Lucas Tolimán	6	Junio	2023-06-23T00:00:00	2024-11-08T11:00:00	7	Dirección del viento	9.66
131535	7	Sololá	713	San Lucas Tolimán	10	San Lucas Tolimán	6	Junio	2023-06-23T00:00:00	2024-11-08T11:00:00	1	Precipitación	0
131536	7	Sololá	713	San Lucas Tolimán	10	San Lucas Tolimán	6	Junio	2023-06-23T00:00:00	2024-11-08T11:00:00	8	Radiación solar	886
131537	7	Sololá	713	San Lucas Tolimán	10	San Lucas Tolimán	6	Junio	2023-06-23T00:00:00	2024-11-08T12:00:00	2	Temperatura media	23.3
131538	7	Sololá	713	San Lucas Tolimán	10	San Lucas Tolimán	6	Junio	2023-06-23T00:00:00	2024-11-08T12:00:00	4	Temperatura máxima	23.4
131539	7	Sololá	713	San Lucas Tolimán	10	San Lucas Tolimán	6	Junio	2023-06-23T00:00:00	2024-11-08T12:00:00	3	Temperatura mínima	22.1
131540	7	Sololá	713	San Lucas Tolimán	10	San Lucas Tolimán	6	Junio	2023-06-23T00:00:00	2024-11-08T12:00:00	5	Humedad	48
131541	7	Sololá	713	San Lucas Tolimán	10	San Lucas Tolimán	6	Junio	2023-06-23T00:00:00	2024-11-08T12:00:00	6	Velocidad del viento	12.9
131542	7	Sololá	713	San Lucas Tolimán	10	San Lucas Tolimán	6	Junio	2023-06-23T00:00:00	2024-11-08T12:00:00	7	Dirección del viento	12.87
131543	7	Sololá	713	San Lucas Tolimán	10	San Lucas Tolimán	6	Junio	2023-06-23T00:00:00	2024-11-08T12:00:00	1	Precipitación	0
131544	7	Sololá	713	San Lucas Tolimán	10	San Lucas Tolimán	6	Junio	2023-06-23T00:00:00	2024-11-08T12:00:00	8	Radiación solar	921
131545	7	Sololá	713	San Lucas Tolimán	10	San Lucas Tolimán	6	Junio	2023-06-23T00:00:00	2024-11-08T13:00:00	2	Temperatura media	22.9
131546	7	Sololá	713	San Lucas Tolimán	10	San Lucas Tolimán	6	Junio	2023-06-23T00:00:00	2024-11-08T13:00:00	4	Temperatura máxima	23.8
131547	7	Sololá	713	San Lucas Tolimán	10	San Lucas Tolimán	6	Junio	2023-06-23T00:00:00	2024-11-08T13:00:00	3	Temperatura mínima	22.9
131548	7	Sololá	713	San Lucas Tolimán	10	San Lucas Tolimán	6	Junio	2023-06-23T00:00:00	2024-11-08T13:00:00	5	Humedad	54
131549	7	Sololá	713	San Lucas Tolimán	10	San Lucas Tolimán	6	Junio	2023-06-23T00:00:00	2024-11-08T13:00:00	6	Velocidad del viento	11.3
131550	7	Sololá	713	San Lucas Tolimán	10	San Lucas Tolimán	6	Junio	2023-06-23T00:00:00	2024-11-08T13:00:00	7	Dirección del viento	11.27
131551	7	Sololá	713	San Lucas Tolimán	10	San Lucas Tolimán	6	Junio	2023-06-23T00:00:00	2024-11-08T13:00:00	1	Precipitación	0
131552	7	Sololá	713	San Lucas Tolimán	10	San Lucas Tolimán	6	Junio	2023-06-23T00:00:00	2024-11-08T13:00:00	8	Radiación solar	943
131553	7	Sololá	713	San Lucas Tolimán	10	San Lucas Tolimán	6	Junio	2023-06-23T00:00:00	2024-11-08T14:00:00	2	Temperatura media	20.1
131554	7	Sololá	713	San Lucas Tolimán	10	San Lucas Tolimán	6	Junio	2023-06-23T00:00:00	2024-11-08T14:00:00	4	Temperatura máxima	22.9
131555	7	Sololá	713	San Lucas Tolimán	10	San Lucas Tolimán	6	Junio	2023-06-23T00:00:00	2024-11-08T14:00:00	3	Temperatura mínima	20.1
131556	7	Sololá	713	San Lucas Tolimán	10	San Lucas Tolimán	6	Junio	2023-06-23T00:00:00	2024-11-08T14:00:00	5	Humedad	63
131557	7	Sololá	713	San Lucas Tolimán	10	San Lucas Tolimán	6	Junio	2023-06-23T00:00:00	2024-11-08T14:00:00	6	Velocidad del viento	9.7
131558	7	Sololá	713	San Lucas Tolimán	10	San Lucas Tolimán	6	Junio	2023-06-23T00:00:00	2024-11-08T14:00:00	7	Dirección del viento	9.66
131559	7	Sololá	713	San Lucas Tolimán	10	San Lucas Tolimán	6	Junio	2023-06-23T00:00:00	2024-11-08T14:00:00	1	Precipitación	0
131560	7	Sololá	713	San Lucas Tolimán	10	San Lucas Tolimán	6	Junio	2023-06-23T00:00:00	2024-11-08T14:00:00	8	Radiación solar	235
131561	7	Sololá	713	San Lucas Tolimán	10	San Lucas Tolimán	6	Junio	2023-06-23T00:00:00	2024-11-08T15:00:00	2	Temperatura media	20
131562	7	Sololá	713	San Lucas Tolimán	10	San Lucas Tolimán	6	Junio	2023-06-23T00:00:00	2024-11-08T15:00:00	4	Temperatura máxima	20.2
131563	7	Sololá	713	San Lucas Tolimán	10	San Lucas Tolimán	6	Junio	2023-06-23T00:00:00	2024-11-08T15:00:00	3	Temperatura mínima	19.4
131564	7	Sololá	713	San Lucas Tolimán	10	San Lucas Tolimán	6	Junio	2023-06-23T00:00:00	2024-11-08T15:00:00	5	Humedad	63
131565	7	Sololá	713	San Lucas Tolimán	10	San Lucas Tolimán	6	Junio	2023-06-23T00:00:00	2024-11-08T15:00:00	6	Velocidad del viento	4.8
131566	7	Sololá	713	San Lucas Tolimán	10	San Lucas Tolimán	6	Junio	2023-06-23T00:00:00	2024-11-08T15:00:00	7	Dirección del viento	4.83
131567	7	Sololá	713	San Lucas Tolimán	10	San Lucas Tolimán	6	Junio	2023-06-23T00:00:00	2024-11-08T15:00:00	1	Precipitación	1.4
131568	7	Sololá	713	San Lucas Tolimán	10	San Lucas Tolimán	6	Junio	2023-06-23T00:00:00	2024-11-08T15:00:00	8	Radiación solar	148
131569	7	Sololá	713	San Lucas Tolimán	10	San Lucas Tolimán	6	Junio	2023-06-23T00:00:00	2024-11-08T16:00:00	2	Temperatura media	16.8
131570	7	Sololá	713	San Lucas Tolimán	10	San Lucas Tolimán	6	Junio	2023-06-23T00:00:00	2024-11-08T16:00:00	4	Temperatura máxima	20
131571	7	Sololá	713	San Lucas Tolimán	10	San Lucas Tolimán	6	Junio	2023-06-23T00:00:00	2024-11-08T16:00:00	3	Temperatura mínima	16.8
131572	7	Sololá	713	San Lucas Tolimán	10	San Lucas Tolimán	6	Junio	2023-06-23T00:00:00	2024-11-08T16:00:00	5	Humedad	64
131573	7	Sololá	713	San Lucas Tolimán	10	San Lucas Tolimán	6	Junio	2023-06-23T00:00:00	2024-11-08T16:00:00	6	Velocidad del viento	6.4
131574	7	Sololá	713	San Lucas Tolimán	10	San Lucas Tolimán	6	Junio	2023-06-23T00:00:00	2024-11-08T16:00:00	7	Dirección del viento	6.44
131575	7	Sololá	713	San Lucas Tolimán	10	San Lucas Tolimán	6	Junio	2023-06-23T00:00:00	2024-11-08T16:00:00	1	Precipitación	30.8
131576	7	Sololá	713	San Lucas Tolimán	10	San Lucas Tolimán	6	Junio	2023-06-23T00:00:00	2024-11-08T16:00:00	8	Radiación solar	11
131577	7	Sololá	713	San Lucas Tolimán	10	San Lucas Tolimán	6	Junio	2023-06-23T00:00:00	2024-11-08T17:00:00	2	Temperatura media	16.6
131578	7	Sololá	713	San Lucas Tolimán	10	San Lucas Tolimán	6	Junio	2023-06-23T00:00:00	2024-11-08T17:00:00	4	Temperatura máxima	16.8
131579	7	Sololá	713	San Lucas Tolimán	10	San Lucas Tolimán	6	Junio	2023-06-23T00:00:00	2024-11-08T17:00:00	3	Temperatura mínima	16.2
131580	7	Sololá	713	San Lucas Tolimán	10	San Lucas Tolimán	6	Junio	2023-06-23T00:00:00	2024-11-08T17:00:00	5	Humedad	68
131581	7	Sololá	713	San Lucas Tolimán	10	San Lucas Tolimán	6	Junio	2023-06-23T00:00:00	2024-11-08T17:00:00	6	Velocidad del viento	6.4
131582	7	Sololá	713	San Lucas Tolimán	10	San Lucas Tolimán	6	Junio	2023-06-23T00:00:00	2024-11-08T17:00:00	7	Dirección del viento	6.44
131583	7	Sololá	713	San Lucas Tolimán	10	San Lucas Tolimán	6	Junio	2023-06-23T00:00:00	2024-11-08T17:00:00	1	Precipitación	12.2
131584	7	Sololá	713	San Lucas Tolimán	10	San Lucas Tolimán	6	Junio	2023-06-23T00:00:00	2024-11-08T17:00:00	8	Radiación solar	0
131585	7	Sololá	713	San Lucas Tolimán	10	San Lucas Tolimán	6	Junio	2023-06-23T00:00:00	2024-11-08T18:00:00	2	Temperatura media	16.8
131586	7	Sololá	713	San Lucas Tolimán	10	San Lucas Tolimán	6	Junio	2023-06-23T00:00:00	2024-11-08T18:00:00	4	Temperatura máxima	16.8
131587	7	Sololá	713	San Lucas Tolimán	10	San Lucas Tolimán	6	Junio	2023-06-23T00:00:00	2024-11-08T18:00:00	3	Temperatura mínima	16.5
131588	7	Sololá	713	San Lucas Tolimán	10	San Lucas Tolimán	6	Junio	2023-06-23T00:00:00	2024-11-08T18:00:00	5	Humedad	69
131589	7	Sololá	713	San Lucas Tolimán	10	San Lucas Tolimán	6	Junio	2023-06-23T00:00:00	2024-11-08T18:00:00	6	Velocidad del viento	1.6
131590	7	Sololá	713	San Lucas Tolimán	10	San Lucas Tolimán	6	Junio	2023-06-23T00:00:00	2024-11-08T18:00:00	7	Dirección del viento	1.61
131591	7	Sololá	713	San Lucas Tolimán	10	San Lucas Tolimán	6	Junio	2023-06-23T00:00:00	2024-11-08T18:00:00	1	Precipitación	1.4
131592	7	Sololá	713	San Lucas Tolimán	10	San Lucas Tolimán	6	Junio	2023-06-23T00:00:00	2024-11-08T18:00:00	8	Radiación solar	2
131593	7	Sololá	713	San Lucas Tolimán	10	San Lucas Tolimán	6	Junio	2023-06-23T00:00:00	2024-11-08T19:00:00	2	Temperatura media	17.1
131594	7	Sololá	713	San Lucas Tolimán	10	San Lucas Tolimán	6	Junio	2023-06-23T00:00:00	2024-11-08T19:00:00	4	Temperatura máxima	17.1
131595	7	Sololá	713	San Lucas Tolimán	10	San Lucas Tolimán	6	Junio	2023-06-23T00:00:00	2024-11-08T19:00:00	3	Temperatura mínima	16.8
131596	7	Sololá	713	San Lucas Tolimán	10	San Lucas Tolimán	6	Junio	2023-06-23T00:00:00	2024-11-08T19:00:00	5	Humedad	68
131597	7	Sololá	713	San Lucas Tolimán	10	San Lucas Tolimán	6	Junio	2023-06-23T00:00:00	2024-11-08T19:00:00	6	Velocidad del viento	4.8
131598	7	Sololá	713	San Lucas Tolimán	10	San Lucas Tolimán	6	Junio	2023-06-23T00:00:00	2024-11-08T19:00:00	7	Dirección del viento	4.83
131599	7	Sololá	713	San Lucas Tolimán	10	San Lucas Tolimán	6	Junio	2023-06-23T00:00:00	2024-11-08T19:00:00	1	Precipitación	0
131600	7	Sololá	713	San Lucas Tolimán	10	San Lucas Tolimán	6	Junio	2023-06-23T00:00:00	2024-11-08T19:00:00	8	Radiación solar	0
131601	7	Sololá	713	San Lucas Tolimán	10	San Lucas Tolimán	6	Junio	2023-06-23T00:00:00	2024-11-08T20:00:00	2	Temperatura media	16.6
131602	7	Sololá	713	San Lucas Tolimán	10	San Lucas Tolimán	6	Junio	2023-06-23T00:00:00	2024-11-08T20:00:00	4	Temperatura máxima	17.2
131603	7	Sololá	713	San Lucas Tolimán	10	San Lucas Tolimán	6	Junio	2023-06-23T00:00:00	2024-11-08T20:00:00	3	Temperatura mínima	16.6
131604	7	Sololá	713	San Lucas Tolimán	10	San Lucas Tolimán	6	Junio	2023-06-23T00:00:00	2024-11-08T20:00:00	5	Humedad	68
131605	7	Sololá	713	San Lucas Tolimán	10	San Lucas Tolimán	6	Junio	2023-06-23T00:00:00	2024-11-08T20:00:00	6	Velocidad del viento	0
131606	7	Sololá	713	San Lucas Tolimán	10	San Lucas Tolimán	6	Junio	2023-06-23T00:00:00	2024-11-08T20:00:00	7	Dirección del viento	0
131607	7	Sololá	713	San Lucas Tolimán	10	San Lucas Tolimán	6	Junio	2023-06-23T00:00:00	2024-11-08T20:00:00	1	Precipitación	0
131608	7	Sololá	713	San Lucas Tolimán	10	San Lucas Tolimán	6	Junio	2023-06-23T00:00:00	2024-11-08T20:00:00	8	Radiación solar	0
131609	7	Sololá	713	San Lucas Tolimán	10	San Lucas Tolimán	6	Junio	2023-06-23T00:00:00	2024-11-08T21:00:00	2	Temperatura media	16.5
131610	7	Sololá	713	San Lucas Tolimán	10	San Lucas Tolimán	6	Junio	2023-06-23T00:00:00	2024-11-08T21:00:00	4	Temperatura máxima	16.7
131611	7	Sololá	713	San Lucas Tolimán	10	San Lucas Tolimán	6	Junio	2023-06-23T00:00:00	2024-11-08T21:00:00	3	Temperatura mínima	16.4
131612	7	Sololá	713	San Lucas Tolimán	10	San Lucas Tolimán	6	Junio	2023-06-23T00:00:00	2024-11-08T21:00:00	5	Humedad	69
131613	7	Sololá	713	San Lucas Tolimán	10	San Lucas Tolimán	6	Junio	2023-06-23T00:00:00	2024-11-08T21:00:00	6	Velocidad del viento	0
131614	7	Sololá	713	San Lucas Tolimán	10	San Lucas Tolimán	6	Junio	2023-06-23T00:00:00	2024-11-08T21:00:00	7	Dirección del viento	0
131615	7	Sololá	713	San Lucas Tolimán	10	San Lucas Tolimán	6	Junio	2023-06-23T00:00:00	2024-11-08T21:00:00	1	Precipitación	0
131616	7	Sololá	713	San Lucas Tolimán	10	San Lucas Tolimán	6	Junio	2023-06-23T00:00:00	2024-11-08T21:00:00	8	Radiación solar	0
131617	7	Sololá	713	San Lucas Tolimán	10	San Lucas Tolimán	6	Junio	2023-06-23T00:00:00	2024-11-08T22:00:00	2	Temperatura media	16.7
131618	7	Sololá	713	San Lucas Tolimán	10	San Lucas Tolimán	6	Junio	2023-06-23T00:00:00	2024-11-08T22:00:00	4	Temperatura máxima	16.7
131619	7	Sololá	713	San Lucas Tolimán	10	San Lucas Tolimán	6	Junio	2023-06-23T00:00:00	2024-11-08T22:00:00	3	Temperatura mínima	16.4
131620	7	Sololá	713	San Lucas Tolimán	10	San Lucas Tolimán	6	Junio	2023-06-23T00:00:00	2024-11-08T22:00:00	5	Humedad	69
131621	7	Sololá	713	San Lucas Tolimán	10	San Lucas Tolimán	6	Junio	2023-06-23T00:00:00	2024-11-08T22:00:00	6	Velocidad del viento	0
131622	7	Sololá	713	San Lucas Tolimán	10	San Lucas Tolimán	6	Junio	2023-06-23T00:00:00	2024-11-08T22:00:00	7	Dirección del viento	0
131623	7	Sololá	713	San Lucas Tolimán	10	San Lucas Tolimán	6	Junio	2023-06-23T00:00:00	2024-11-08T22:00:00	1	Precipitación	0
131624	7	Sololá	713	San Lucas Tolimán	10	San Lucas Tolimán	6	Junio	2023-06-23T00:00:00	2024-11-08T22:00:00	8	Radiación solar	0
131625	7	Sololá	713	San Lucas Tolimán	10	San Lucas Tolimán	6	Junio	2023-06-23T00:00:00	2024-11-08T23:00:00	2	Temperatura media	16.7
131626	7	Sololá	713	San Lucas Tolimán	10	San Lucas Tolimán	6	Junio	2023-06-23T00:00:00	2024-11-08T23:00:00	4	Temperatura máxima	16.8
131627	7	Sololá	713	San Lucas Tolimán	10	San Lucas Tolimán	6	Junio	2023-06-23T00:00:00	2024-11-08T23:00:00	3	Temperatura mínima	16.6
131628	7	Sololá	713	San Lucas Tolimán	10	San Lucas Tolimán	6	Junio	2023-06-23T00:00:00	2024-11-08T23:00:00	5	Humedad	69
131629	7	Sololá	713	San Lucas Tolimán	10	San Lucas Tolimán	6	Junio	2023-06-23T00:00:00	2024-11-08T23:00:00	6	Velocidad del viento	0
131630	7	Sololá	713	San Lucas Tolimán	10	San Lucas Tolimán	6	Junio	2023-06-23T00:00:00	2024-11-08T23:00:00	7	Dirección del viento	0
131631	7	Sololá	713	San Lucas Tolimán	10	San Lucas Tolimán	6	Junio	2023-06-23T00:00:00	2024-11-08T23:00:00	1	Precipitación	0
131632	7	Sololá	713	San Lucas Tolimán	10	San Lucas Tolimán	6	Junio	2023-06-23T00:00:00	2024-11-08T23:00:00	8	Radiación solar	0
131633	7	Sololá	713	San Lucas Tolimán	10	San Lucas Tolimán	6	Junio	2023-06-24T00:00:00	2024-11-08T00:00:00	2	Temperatura media	16.9
131634	7	Sololá	713	San Lucas Tolimán	10	San Lucas Tolimán	6	Junio	2023-06-24T00:00:00	2024-11-08T00:00:00	4	Temperatura máxima	17.1
131635	7	Sololá	713	San Lucas Tolimán	10	San Lucas Tolimán	6	Junio	2023-06-24T00:00:00	2024-11-08T00:00:00	3	Temperatura mínima	16.7
131636	7	Sololá	713	San Lucas Tolimán	10	San Lucas Tolimán	6	Junio	2023-06-24T00:00:00	2024-11-08T00:00:00	5	Humedad	69
131637	7	Sololá	713	San Lucas Tolimán	10	San Lucas Tolimán	6	Junio	2023-06-24T00:00:00	2024-11-08T00:00:00	6	Velocidad del viento	0
131638	7	Sololá	713	San Lucas Tolimán	10	San Lucas Tolimán	6	Junio	2023-06-24T00:00:00	2024-11-08T00:00:00	7	Dirección del viento	0
131639	7	Sololá	713	San Lucas Tolimán	10	San Lucas Tolimán	6	Junio	2023-06-24T00:00:00	2024-11-08T00:00:00	1	Precipitación	0
131640	7	Sololá	713	San Lucas Tolimán	10	San Lucas Tolimán	6	Junio	2023-06-24T00:00:00	2024-11-08T00:00:00	8	Radiación solar	0
131641	7	Sololá	713	San Lucas Tolimán	10	San Lucas Tolimán	6	Junio	2023-06-24T00:00:00	2024-11-08T01:00:00	2	Temperatura media	16.2
131642	7	Sololá	713	San Lucas Tolimán	10	San Lucas Tolimán	6	Junio	2023-06-24T00:00:00	2024-11-08T01:00:00	4	Temperatura máxima	16.9
131643	7	Sololá	713	San Lucas Tolimán	10	San Lucas Tolimán	6	Junio	2023-06-24T00:00:00	2024-11-08T01:00:00	3	Temperatura mínima	16.2
131644	7	Sololá	713	San Lucas Tolimán	10	San Lucas Tolimán	6	Junio	2023-06-24T00:00:00	2024-11-08T01:00:00	5	Humedad	69
131645	7	Sololá	713	San Lucas Tolimán	10	San Lucas Tolimán	6	Junio	2023-06-24T00:00:00	2024-11-08T01:00:00	6	Velocidad del viento	0
131646	7	Sololá	713	San Lucas Tolimán	10	San Lucas Tolimán	6	Junio	2023-06-24T00:00:00	2024-11-08T01:00:00	7	Dirección del viento	0
131647	7	Sololá	713	San Lucas Tolimán	10	San Lucas Tolimán	6	Junio	2023-06-24T00:00:00	2024-11-08T01:00:00	1	Precipitación	0
131648	7	Sololá	713	San Lucas Tolimán	10	San Lucas Tolimán	6	Junio	2023-06-24T00:00:00	2024-11-08T01:00:00	8	Radiación solar	0
131649	7	Sololá	713	San Lucas Tolimán	10	San Lucas Tolimán	6	Junio	2023-06-24T00:00:00	2024-11-08T02:00:00	2	Temperatura media	15.7
131650	7	Sololá	713	San Lucas Tolimán	10	San Lucas Tolimán	6	Junio	2023-06-24T00:00:00	2024-11-08T02:00:00	4	Temperatura máxima	16.3
131651	7	Sololá	713	San Lucas Tolimán	10	San Lucas Tolimán	6	Junio	2023-06-24T00:00:00	2024-11-08T02:00:00	3	Temperatura mínima	15.7
131652	7	Sololá	713	San Lucas Tolimán	10	San Lucas Tolimán	6	Junio	2023-06-24T00:00:00	2024-11-08T02:00:00	5	Humedad	69
131653	7	Sololá	713	San Lucas Tolimán	10	San Lucas Tolimán	6	Junio	2023-06-24T00:00:00	2024-11-08T02:00:00	6	Velocidad del viento	1.6
131654	7	Sololá	713	San Lucas Tolimán	10	San Lucas Tolimán	6	Junio	2023-06-24T00:00:00	2024-11-08T02:00:00	7	Dirección del viento	1.61
131655	7	Sololá	713	San Lucas Tolimán	10	San Lucas Tolimán	6	Junio	2023-06-24T00:00:00	2024-11-08T02:00:00	1	Precipitación	0
131656	7	Sololá	713	San Lucas Tolimán	10	San Lucas Tolimán	6	Junio	2023-06-24T00:00:00	2024-11-08T02:00:00	8	Radiación solar	0
131657	7	Sololá	713	San Lucas Tolimán	10	San Lucas Tolimán	6	Junio	2023-06-24T00:00:00	2024-11-08T03:00:00	2	Temperatura media	15.1
131658	7	Sololá	713	San Lucas Tolimán	10	San Lucas Tolimán	6	Junio	2023-06-24T00:00:00	2024-11-08T03:00:00	4	Temperatura máxima	15.7
131659	7	Sololá	713	San Lucas Tolimán	10	San Lucas Tolimán	6	Junio	2023-06-24T00:00:00	2024-11-08T03:00:00	3	Temperatura mínima	15.1
131660	7	Sololá	713	San Lucas Tolimán	10	San Lucas Tolimán	6	Junio	2023-06-24T00:00:00	2024-11-08T03:00:00	5	Humedad	69
131661	7	Sololá	713	San Lucas Tolimán	10	San Lucas Tolimán	6	Junio	2023-06-24T00:00:00	2024-11-08T03:00:00	6	Velocidad del viento	0
131662	7	Sololá	713	San Lucas Tolimán	10	San Lucas Tolimán	6	Junio	2023-06-24T00:00:00	2024-11-08T03:00:00	7	Dirección del viento	0
131663	7	Sololá	713	San Lucas Tolimán	10	San Lucas Tolimán	6	Junio	2023-06-24T00:00:00	2024-11-08T03:00:00	1	Precipitación	0
131664	7	Sololá	713	San Lucas Tolimán	10	San Lucas Tolimán	6	Junio	2023-06-24T00:00:00	2024-11-08T03:00:00	8	Radiación solar	0
131665	7	Sololá	713	San Lucas Tolimán	10	San Lucas Tolimán	6	Junio	2023-06-24T00:00:00	2024-11-08T04:00:00	2	Temperatura media	15.4
131666	7	Sololá	713	San Lucas Tolimán	10	San Lucas Tolimán	6	Junio	2023-06-24T00:00:00	2024-11-08T04:00:00	4	Temperatura máxima	15.4
131667	7	Sololá	713	San Lucas Tolimán	10	San Lucas Tolimán	6	Junio	2023-06-24T00:00:00	2024-11-08T04:00:00	3	Temperatura mínima	15
131668	7	Sololá	713	San Lucas Tolimán	10	San Lucas Tolimán	6	Junio	2023-06-24T00:00:00	2024-11-08T04:00:00	5	Humedad	69
131669	7	Sololá	713	San Lucas Tolimán	10	San Lucas Tolimán	6	Junio	2023-06-24T00:00:00	2024-11-08T04:00:00	6	Velocidad del viento	0
131670	7	Sololá	713	San Lucas Tolimán	10	San Lucas Tolimán	6	Junio	2023-06-24T00:00:00	2024-11-08T04:00:00	7	Dirección del viento	0
131671	7	Sololá	713	San Lucas Tolimán	10	San Lucas Tolimán	6	Junio	2023-06-24T00:00:00	2024-11-08T04:00:00	1	Precipitación	0
131672	7	Sololá	713	San Lucas Tolimán	10	San Lucas Tolimán	6	Junio	2023-06-24T00:00:00	2024-11-08T04:00:00	8	Radiación solar	0
131673	7	Sololá	713	San Lucas Tolimán	10	San Lucas Tolimán	6	Junio	2023-06-24T00:00:00	2024-11-08T05:00:00	2	Temperatura media	16.1
131674	7	Sololá	713	San Lucas Tolimán	10	San Lucas Tolimán	6	Junio	2023-06-24T00:00:00	2024-11-08T05:00:00	4	Temperatura máxima	16.1
131675	7	Sololá	713	San Lucas Tolimán	10	San Lucas Tolimán	6	Junio	2023-06-24T00:00:00	2024-11-08T05:00:00	3	Temperatura mínima	15.4
131676	7	Sololá	713	San Lucas Tolimán	10	San Lucas Tolimán	6	Junio	2023-06-24T00:00:00	2024-11-08T05:00:00	5	Humedad	69
131677	7	Sololá	713	San Lucas Tolimán	10	San Lucas Tolimán	6	Junio	2023-06-24T00:00:00	2024-11-08T05:00:00	6	Velocidad del viento	0
131678	7	Sololá	713	San Lucas Tolimán	10	San Lucas Tolimán	6	Junio	2023-06-24T00:00:00	2024-11-08T05:00:00	7	Dirección del viento	0
131679	7	Sololá	713	San Lucas Tolimán	10	San Lucas Tolimán	6	Junio	2023-06-24T00:00:00	2024-11-08T05:00:00	1	Precipitación	0
131680	7	Sololá	713	San Lucas Tolimán	10	San Lucas Tolimán	6	Junio	2023-06-24T00:00:00	2024-11-08T05:00:00	8	Radiación solar	0
131681	7	Sololá	713	San Lucas Tolimán	10	San Lucas Tolimán	6	Junio	2023-06-24T00:00:00	2024-11-08T06:00:00	2	Temperatura media	16.3
131682	7	Sololá	713	San Lucas Tolimán	10	San Lucas Tolimán	6	Junio	2023-06-24T00:00:00	2024-11-08T06:00:00	4	Temperatura máxima	16.4
131683	7	Sololá	713	San Lucas Tolimán	10	San Lucas Tolimán	6	Junio	2023-06-24T00:00:00	2024-11-08T06:00:00	3	Temperatura mínima	16.1
131684	7	Sololá	713	San Lucas Tolimán	10	San Lucas Tolimán	6	Junio	2023-06-24T00:00:00	2024-11-08T06:00:00	5	Humedad	68
131685	7	Sololá	713	San Lucas Tolimán	10	San Lucas Tolimán	6	Junio	2023-06-24T00:00:00	2024-11-08T06:00:00	6	Velocidad del viento	1.6
131686	7	Sololá	713	San Lucas Tolimán	10	San Lucas Tolimán	6	Junio	2023-06-24T00:00:00	2024-11-08T06:00:00	7	Dirección del viento	1.61
131687	7	Sololá	713	San Lucas Tolimán	10	San Lucas Tolimán	6	Junio	2023-06-24T00:00:00	2024-11-08T06:00:00	1	Precipitación	0
131688	7	Sololá	713	San Lucas Tolimán	10	San Lucas Tolimán	6	Junio	2023-06-24T00:00:00	2024-11-08T06:00:00	8	Radiación solar	4
131689	7	Sololá	713	San Lucas Tolimán	10	San Lucas Tolimán	6	Junio	2023-06-24T00:00:00	2024-11-08T07:00:00	2	Temperatura media	17
131690	7	Sololá	713	San Lucas Tolimán	10	San Lucas Tolimán	6	Junio	2023-06-24T00:00:00	2024-11-08T07:00:00	4	Temperatura máxima	17
131691	7	Sololá	713	San Lucas Tolimán	10	San Lucas Tolimán	6	Junio	2023-06-24T00:00:00	2024-11-08T07:00:00	3	Temperatura mínima	16.3
131692	7	Sololá	713	San Lucas Tolimán	10	San Lucas Tolimán	6	Junio	2023-06-24T00:00:00	2024-11-08T07:00:00	5	Humedad	68
131693	7	Sololá	713	San Lucas Tolimán	10	San Lucas Tolimán	6	Junio	2023-06-24T00:00:00	2024-11-08T07:00:00	6	Velocidad del viento	0
131694	7	Sololá	713	San Lucas Tolimán	10	San Lucas Tolimán	6	Junio	2023-06-24T00:00:00	2024-11-08T07:00:00	7	Dirección del viento	0
131695	7	Sololá	713	San Lucas Tolimán	10	San Lucas Tolimán	6	Junio	2023-06-24T00:00:00	2024-11-08T07:00:00	1	Precipitación	0
131696	7	Sololá	713	San Lucas Tolimán	10	San Lucas Tolimán	6	Junio	2023-06-24T00:00:00	2024-11-08T07:00:00	8	Radiación solar	63
131697	7	Sololá	713	San Lucas Tolimán	10	San Lucas Tolimán	6	Junio	2023-06-24T00:00:00	2024-11-08T08:00:00	2	Temperatura media	18.7
131698	7	Sololá	713	San Lucas Tolimán	10	San Lucas Tolimán	6	Junio	2023-06-24T00:00:00	2024-11-08T08:00:00	4	Temperatura máxima	18.7
131699	7	Sololá	713	San Lucas Tolimán	10	San Lucas Tolimán	6	Junio	2023-06-24T00:00:00	2024-11-08T08:00:00	3	Temperatura mínima	17
131700	7	Sololá	713	San Lucas Tolimán	10	San Lucas Tolimán	6	Junio	2023-06-24T00:00:00	2024-11-08T08:00:00	5	Humedad	65
131701	7	Sololá	713	San Lucas Tolimán	10	San Lucas Tolimán	6	Junio	2023-06-24T00:00:00	2024-11-08T08:00:00	6	Velocidad del viento	0
131702	7	Sololá	713	San Lucas Tolimán	10	San Lucas Tolimán	6	Junio	2023-06-24T00:00:00	2024-11-08T08:00:00	7	Dirección del viento	0
131703	7	Sololá	713	San Lucas Tolimán	10	San Lucas Tolimán	6	Junio	2023-06-24T00:00:00	2024-11-08T08:00:00	1	Precipitación	0
131704	7	Sololá	713	San Lucas Tolimán	10	San Lucas Tolimán	6	Junio	2023-06-24T00:00:00	2024-11-08T08:00:00	8	Radiación solar	190
131705	7	Sololá	713	San Lucas Tolimán	10	San Lucas Tolimán	6	Junio	2023-06-24T00:00:00	2024-11-08T09:00:00	2	Temperatura media	20.7
131706	7	Sololá	713	San Lucas Tolimán	10	San Lucas Tolimán	6	Junio	2023-06-24T00:00:00	2024-11-08T09:00:00	4	Temperatura máxima	20.7
131707	7	Sololá	713	San Lucas Tolimán	10	San Lucas Tolimán	6	Junio	2023-06-24T00:00:00	2024-11-08T09:00:00	3	Temperatura mínima	18.7
131708	7	Sololá	713	San Lucas Tolimán	10	San Lucas Tolimán	6	Junio	2023-06-24T00:00:00	2024-11-08T09:00:00	5	Humedad	59
131709	7	Sololá	713	San Lucas Tolimán	10	San Lucas Tolimán	6	Junio	2023-06-24T00:00:00	2024-11-08T09:00:00	6	Velocidad del viento	4.8
131710	7	Sololá	713	San Lucas Tolimán	10	San Lucas Tolimán	6	Junio	2023-06-24T00:00:00	2024-11-08T09:00:00	7	Dirección del viento	4.83
131711	7	Sololá	713	San Lucas Tolimán	10	San Lucas Tolimán	6	Junio	2023-06-24T00:00:00	2024-11-08T09:00:00	1	Precipitación	0.2
131712	7	Sololá	713	San Lucas Tolimán	10	San Lucas Tolimán	6	Junio	2023-06-24T00:00:00	2024-11-08T09:00:00	8	Radiación solar	546
131713	7	Sololá	713	San Lucas Tolimán	10	San Lucas Tolimán	6	Junio	2023-06-24T00:00:00	2024-11-08T10:00:00	2	Temperatura media	21.7
131714	7	Sololá	713	San Lucas Tolimán	10	San Lucas Tolimán	6	Junio	2023-06-24T00:00:00	2024-11-08T10:00:00	4	Temperatura máxima	21.7
131715	7	Sololá	713	San Lucas Tolimán	10	San Lucas Tolimán	6	Junio	2023-06-24T00:00:00	2024-11-08T10:00:00	3	Temperatura mínima	20.3
131716	7	Sololá	713	San Lucas Tolimán	10	San Lucas Tolimán	6	Junio	2023-06-24T00:00:00	2024-11-08T10:00:00	5	Humedad	57
131717	7	Sololá	713	San Lucas Tolimán	10	San Lucas Tolimán	6	Junio	2023-06-24T00:00:00	2024-11-08T10:00:00	6	Velocidad del viento	8
131718	7	Sololá	713	San Lucas Tolimán	10	San Lucas Tolimán	6	Junio	2023-06-24T00:00:00	2024-11-08T10:00:00	7	Dirección del viento	8.05
131719	7	Sololá	713	San Lucas Tolimán	10	San Lucas Tolimán	6	Junio	2023-06-24T00:00:00	2024-11-08T10:00:00	1	Precipitación	0
131720	7	Sololá	713	San Lucas Tolimán	10	San Lucas Tolimán	6	Junio	2023-06-24T00:00:00	2024-11-08T10:00:00	8	Radiación solar	791
131721	7	Sololá	713	San Lucas Tolimán	10	San Lucas Tolimán	6	Junio	2023-06-24T00:00:00	2024-11-08T11:00:00	2	Temperatura media	21.7
131722	7	Sololá	713	San Lucas Tolimán	10	San Lucas Tolimán	6	Junio	2023-06-24T00:00:00	2024-11-08T11:00:00	4	Temperatura máxima	21.8
131723	7	Sololá	713	San Lucas Tolimán	10	San Lucas Tolimán	6	Junio	2023-06-24T00:00:00	2024-11-08T11:00:00	3	Temperatura mínima	20.5
131724	7	Sololá	713	San Lucas Tolimán	10	San Lucas Tolimán	6	Junio	2023-06-24T00:00:00	2024-11-08T11:00:00	5	Humedad	59
131725	7	Sololá	713	San Lucas Tolimán	10	San Lucas Tolimán	6	Junio	2023-06-24T00:00:00	2024-11-08T11:00:00	6	Velocidad del viento	8
131726	7	Sololá	713	San Lucas Tolimán	10	San Lucas Tolimán	6	Junio	2023-06-24T00:00:00	2024-11-08T11:00:00	7	Dirección del viento	8.05
131727	7	Sololá	713	San Lucas Tolimán	10	San Lucas Tolimán	6	Junio	2023-06-24T00:00:00	2024-11-08T11:00:00	1	Precipitación	0
131728	7	Sololá	713	San Lucas Tolimán	10	San Lucas Tolimán	6	Junio	2023-06-24T00:00:00	2024-11-08T11:00:00	8	Radiación solar	552
131729	7	Sololá	713	San Lucas Tolimán	10	San Lucas Tolimán	6	Junio	2023-06-24T00:00:00	2024-11-08T12:00:00	2	Temperatura media	23.2
131730	7	Sololá	713	San Lucas Tolimán	10	San Lucas Tolimán	6	Junio	2023-06-24T00:00:00	2024-11-08T12:00:00	4	Temperatura máxima	23.4
131731	7	Sololá	713	San Lucas Tolimán	10	San Lucas Tolimán	6	Junio	2023-06-24T00:00:00	2024-11-08T12:00:00	3	Temperatura mínima	21.8
131732	7	Sololá	713	San Lucas Tolimán	10	San Lucas Tolimán	6	Junio	2023-06-24T00:00:00	2024-11-08T12:00:00	5	Humedad	53
131733	7	Sololá	713	San Lucas Tolimán	10	San Lucas Tolimán	6	Junio	2023-06-24T00:00:00	2024-11-08T12:00:00	6	Velocidad del viento	9.7
131734	7	Sololá	713	San Lucas Tolimán	10	San Lucas Tolimán	6	Junio	2023-06-24T00:00:00	2024-11-08T12:00:00	7	Dirección del viento	9.66
131735	7	Sololá	713	San Lucas Tolimán	10	San Lucas Tolimán	6	Junio	2023-06-24T00:00:00	2024-11-08T12:00:00	1	Precipitación	0
131736	7	Sololá	713	San Lucas Tolimán	10	San Lucas Tolimán	6	Junio	2023-06-24T00:00:00	2024-11-08T12:00:00	8	Radiación solar	1102
131737	7	Sololá	713	San Lucas Tolimán	10	San Lucas Tolimán	6	Junio	2023-06-24T00:00:00	2024-11-08T13:00:00	2	Temperatura media	23.6
131738	7	Sololá	713	San Lucas Tolimán	10	San Lucas Tolimán	6	Junio	2023-06-24T00:00:00	2024-11-08T13:00:00	4	Temperatura máxima	23.8
131739	7	Sololá	713	San Lucas Tolimán	10	San Lucas Tolimán	6	Junio	2023-06-24T00:00:00	2024-11-08T13:00:00	3	Temperatura mínima	23.2
131740	7	Sololá	713	San Lucas Tolimán	10	San Lucas Tolimán	6	Junio	2023-06-24T00:00:00	2024-11-08T13:00:00	5	Humedad	53
131741	7	Sololá	713	San Lucas Tolimán	10	San Lucas Tolimán	6	Junio	2023-06-24T00:00:00	2024-11-08T13:00:00	6	Velocidad del viento	11.3
131742	7	Sololá	713	San Lucas Tolimán	10	San Lucas Tolimán	6	Junio	2023-06-24T00:00:00	2024-11-08T13:00:00	7	Dirección del viento	11.27
131743	7	Sololá	713	San Lucas Tolimán	10	San Lucas Tolimán	6	Junio	2023-06-24T00:00:00	2024-11-08T13:00:00	1	Precipitación	0
131744	7	Sololá	713	San Lucas Tolimán	10	San Lucas Tolimán	6	Junio	2023-06-24T00:00:00	2024-11-08T13:00:00	8	Radiación solar	1141
131745	7	Sololá	713	San Lucas Tolimán	10	San Lucas Tolimán	6	Junio	2023-06-24T00:00:00	2024-11-08T14:00:00	2	Temperatura media	23.2
131746	7	Sololá	713	San Lucas Tolimán	10	San Lucas Tolimán	6	Junio	2023-06-24T00:00:00	2024-11-08T14:00:00	4	Temperatura máxima	23.9
131747	7	Sololá	713	San Lucas Tolimán	10	San Lucas Tolimán	6	Junio	2023-06-24T00:00:00	2024-11-08T14:00:00	3	Temperatura mínima	23.1
131748	7	Sololá	713	San Lucas Tolimán	10	San Lucas Tolimán	6	Junio	2023-06-24T00:00:00	2024-11-08T14:00:00	5	Humedad	57
131749	7	Sololá	713	San Lucas Tolimán	10	San Lucas Tolimán	6	Junio	2023-06-24T00:00:00	2024-11-08T14:00:00	6	Velocidad del viento	11.3
131750	7	Sololá	713	San Lucas Tolimán	10	San Lucas Tolimán	6	Junio	2023-06-24T00:00:00	2024-11-08T14:00:00	7	Dirección del viento	11.27
131751	7	Sololá	713	San Lucas Tolimán	10	San Lucas Tolimán	6	Junio	2023-06-24T00:00:00	2024-11-08T14:00:00	1	Precipitación	0
131752	7	Sololá	713	San Lucas Tolimán	10	San Lucas Tolimán	6	Junio	2023-06-24T00:00:00	2024-11-08T14:00:00	8	Radiación solar	1125
131753	7	Sololá	713	San Lucas Tolimán	10	San Lucas Tolimán	6	Junio	2023-06-24T00:00:00	2024-11-08T15:00:00	2	Temperatura media	21.8
131754	7	Sololá	713	San Lucas Tolimán	10	San Lucas Tolimán	6	Junio	2023-06-24T00:00:00	2024-11-08T15:00:00	4	Temperatura máxima	23.2
131755	7	Sololá	713	San Lucas Tolimán	10	San Lucas Tolimán	6	Junio	2023-06-24T00:00:00	2024-11-08T15:00:00	3	Temperatura mínima	21.7
131756	7	Sololá	713	San Lucas Tolimán	10	San Lucas Tolimán	6	Junio	2023-06-24T00:00:00	2024-11-08T15:00:00	5	Humedad	62
131757	7	Sololá	713	San Lucas Tolimán	10	San Lucas Tolimán	6	Junio	2023-06-24T00:00:00	2024-11-08T15:00:00	6	Velocidad del viento	9.7
131758	7	Sololá	713	San Lucas Tolimán	10	San Lucas Tolimán	6	Junio	2023-06-24T00:00:00	2024-11-08T15:00:00	7	Dirección del viento	9.66
131759	7	Sololá	713	San Lucas Tolimán	10	San Lucas Tolimán	6	Junio	2023-06-24T00:00:00	2024-11-08T15:00:00	1	Precipitación	0
131760	7	Sololá	713	San Lucas Tolimán	10	San Lucas Tolimán	6	Junio	2023-06-24T00:00:00	2024-11-08T15:00:00	8	Radiación solar	587
131761	7	Sololá	713	San Lucas Tolimán	10	San Lucas Tolimán	6	Junio	2023-06-24T00:00:00	2024-11-08T16:00:00	2	Temperatura media	20.9
131762	7	Sololá	713	San Lucas Tolimán	10	San Lucas Tolimán	6	Junio	2023-06-24T00:00:00	2024-11-08T16:00:00	4	Temperatura máxima	22.1
131763	7	Sololá	713	San Lucas Tolimán	10	San Lucas Tolimán	6	Junio	2023-06-24T00:00:00	2024-11-08T16:00:00	3	Temperatura mínima	20.9
131764	7	Sololá	713	San Lucas Tolimán	10	San Lucas Tolimán	6	Junio	2023-06-24T00:00:00	2024-11-08T16:00:00	5	Humedad	63
131765	7	Sololá	713	San Lucas Tolimán	10	San Lucas Tolimán	6	Junio	2023-06-24T00:00:00	2024-11-08T16:00:00	6	Velocidad del viento	9.7
131766	7	Sololá	713	San Lucas Tolimán	10	San Lucas Tolimán	6	Junio	2023-06-24T00:00:00	2024-11-08T16:00:00	7	Dirección del viento	9.66
131767	7	Sololá	713	San Lucas Tolimán	10	San Lucas Tolimán	6	Junio	2023-06-24T00:00:00	2024-11-08T16:00:00	1	Precipitación	0
131768	7	Sololá	713	San Lucas Tolimán	10	San Lucas Tolimán	6	Junio	2023-06-24T00:00:00	2024-11-08T16:00:00	8	Radiación solar	369
131769	7	Sololá	713	San Lucas Tolimán	10	San Lucas Tolimán	6	Junio	2023-06-24T00:00:00	2024-11-08T17:00:00	2	Temperatura media	19
131770	7	Sololá	713	San Lucas Tolimán	10	San Lucas Tolimán	6	Junio	2023-06-24T00:00:00	2024-11-08T17:00:00	4	Temperatura máxima	21.3
131771	7	Sololá	713	San Lucas Tolimán	10	San Lucas Tolimán	6	Junio	2023-06-24T00:00:00	2024-11-08T17:00:00	3	Temperatura mínima	18.9
131772	7	Sololá	713	San Lucas Tolimán	10	San Lucas Tolimán	6	Junio	2023-06-24T00:00:00	2024-11-08T17:00:00	5	Humedad	65
131773	7	Sololá	713	San Lucas Tolimán	10	San Lucas Tolimán	6	Junio	2023-06-24T00:00:00	2024-11-08T17:00:00	6	Velocidad del viento	11.3
131774	7	Sololá	713	San Lucas Tolimán	10	San Lucas Tolimán	6	Junio	2023-06-24T00:00:00	2024-11-08T17:00:00	7	Dirección del viento	11.27
131775	7	Sololá	713	San Lucas Tolimán	10	San Lucas Tolimán	6	Junio	2023-06-24T00:00:00	2024-11-08T17:00:00	1	Precipitación	0
131776	7	Sololá	713	San Lucas Tolimán	10	San Lucas Tolimán	6	Junio	2023-06-24T00:00:00	2024-11-08T17:00:00	8	Radiación solar	153
131777	7	Sololá	713	San Lucas Tolimán	10	San Lucas Tolimán	6	Junio	2023-06-24T00:00:00	2024-11-08T18:00:00	2	Temperatura media	17.7
131778	7	Sololá	713	San Lucas Tolimán	10	San Lucas Tolimán	6	Junio	2023-06-24T00:00:00	2024-11-08T18:00:00	4	Temperatura máxima	19.3
131779	7	Sololá	713	San Lucas Tolimán	10	San Lucas Tolimán	6	Junio	2023-06-24T00:00:00	2024-11-08T18:00:00	3	Temperatura mínima	17.6
131780	7	Sololá	713	San Lucas Tolimán	10	San Lucas Tolimán	6	Junio	2023-06-24T00:00:00	2024-11-08T18:00:00	5	Humedad	67
131781	7	Sololá	713	San Lucas Tolimán	10	San Lucas Tolimán	6	Junio	2023-06-24T00:00:00	2024-11-08T18:00:00	6	Velocidad del viento	14.5
131782	7	Sololá	713	San Lucas Tolimán	10	San Lucas Tolimán	6	Junio	2023-06-24T00:00:00	2024-11-08T18:00:00	7	Dirección del viento	14.48
131783	7	Sololá	713	San Lucas Tolimán	10	San Lucas Tolimán	6	Junio	2023-06-24T00:00:00	2024-11-08T18:00:00	1	Precipitación	18.4
131784	7	Sololá	713	San Lucas Tolimán	10	San Lucas Tolimán	6	Junio	2023-06-24T00:00:00	2024-11-08T18:00:00	8	Radiación solar	6
131785	7	Sololá	713	San Lucas Tolimán	10	San Lucas Tolimán	6	Junio	2023-06-24T00:00:00	2024-11-08T19:00:00	2	Temperatura media	17.8
131786	7	Sololá	713	San Lucas Tolimán	10	San Lucas Tolimán	6	Junio	2023-06-24T00:00:00	2024-11-08T19:00:00	4	Temperatura máxima	17.9
131787	7	Sololá	713	San Lucas Tolimán	10	San Lucas Tolimán	6	Junio	2023-06-24T00:00:00	2024-11-08T19:00:00	3	Temperatura mínima	17.6
131788	7	Sololá	713	San Lucas Tolimán	10	San Lucas Tolimán	6	Junio	2023-06-24T00:00:00	2024-11-08T19:00:00	5	Humedad	67
131789	7	Sololá	713	San Lucas Tolimán	10	San Lucas Tolimán	6	Junio	2023-06-24T00:00:00	2024-11-08T19:00:00	6	Velocidad del viento	1.6
131790	7	Sololá	713	San Lucas Tolimán	10	San Lucas Tolimán	6	Junio	2023-06-24T00:00:00	2024-11-08T19:00:00	7	Dirección del viento	1.61
131791	7	Sololá	713	San Lucas Tolimán	10	San Lucas Tolimán	6	Junio	2023-06-24T00:00:00	2024-11-08T19:00:00	1	Precipitación	0
131792	7	Sololá	713	San Lucas Tolimán	10	San Lucas Tolimán	6	Junio	2023-06-24T00:00:00	2024-11-08T19:00:00	8	Radiación solar	0
131793	7	Sololá	713	San Lucas Tolimán	10	San Lucas Tolimán	6	Junio	2023-06-24T00:00:00	2024-11-08T20:00:00	2	Temperatura media	17.9
131794	7	Sololá	713	San Lucas Tolimán	10	San Lucas Tolimán	6	Junio	2023-06-24T00:00:00	2024-11-08T20:00:00	4	Temperatura máxima	17.9
131795	7	Sololá	713	San Lucas Tolimán	10	San Lucas Tolimán	6	Junio	2023-06-24T00:00:00	2024-11-08T20:00:00	3	Temperatura mínima	17.7
131796	7	Sololá	713	San Lucas Tolimán	10	San Lucas Tolimán	6	Junio	2023-06-24T00:00:00	2024-11-08T20:00:00	5	Humedad	67
131797	7	Sololá	713	San Lucas Tolimán	10	San Lucas Tolimán	6	Junio	2023-06-24T00:00:00	2024-11-08T20:00:00	6	Velocidad del viento	3.2
131798	7	Sololá	713	San Lucas Tolimán	10	San Lucas Tolimán	6	Junio	2023-06-24T00:00:00	2024-11-08T20:00:00	7	Dirección del viento	3.22
131799	7	Sololá	713	San Lucas Tolimán	10	San Lucas Tolimán	6	Junio	2023-06-24T00:00:00	2024-11-08T20:00:00	1	Precipitación	0
131800	7	Sololá	713	San Lucas Tolimán	10	San Lucas Tolimán	6	Junio	2023-06-24T00:00:00	2024-11-08T20:00:00	8	Radiación solar	0
131801	7	Sololá	713	San Lucas Tolimán	10	San Lucas Tolimán	6	Junio	2023-06-24T00:00:00	2024-11-08T21:00:00	2	Temperatura media	17.9
131802	7	Sololá	713	San Lucas Tolimán	10	San Lucas Tolimán	6	Junio	2023-06-24T00:00:00	2024-11-08T21:00:00	4	Temperatura máxima	18
131803	7	Sololá	713	San Lucas Tolimán	10	San Lucas Tolimán	6	Junio	2023-06-24T00:00:00	2024-11-08T21:00:00	3	Temperatura mínima	17.7
131804	7	Sololá	713	San Lucas Tolimán	10	San Lucas Tolimán	6	Junio	2023-06-24T00:00:00	2024-11-08T21:00:00	5	Humedad	68
131805	7	Sololá	713	San Lucas Tolimán	10	San Lucas Tolimán	6	Junio	2023-06-24T00:00:00	2024-11-08T21:00:00	6	Velocidad del viento	0
131806	7	Sololá	713	San Lucas Tolimán	10	San Lucas Tolimán	6	Junio	2023-06-24T00:00:00	2024-11-08T21:00:00	7	Dirección del viento	0
131807	7	Sololá	713	San Lucas Tolimán	10	San Lucas Tolimán	6	Junio	2023-06-24T00:00:00	2024-11-08T21:00:00	1	Precipitación	0
131808	7	Sololá	713	San Lucas Tolimán	10	San Lucas Tolimán	6	Junio	2023-06-24T00:00:00	2024-11-08T21:00:00	8	Radiación solar	0
131809	7	Sololá	713	San Lucas Tolimán	10	San Lucas Tolimán	6	Junio	2023-06-24T00:00:00	2024-11-08T22:00:00	2	Temperatura media	17.8
131810	7	Sololá	713	San Lucas Tolimán	10	San Lucas Tolimán	6	Junio	2023-06-24T00:00:00	2024-11-08T22:00:00	4	Temperatura máxima	17.9
131811	7	Sololá	713	San Lucas Tolimán	10	San Lucas Tolimán	6	Junio	2023-06-24T00:00:00	2024-11-08T22:00:00	3	Temperatura mínima	17.7
131812	7	Sololá	713	San Lucas Tolimán	10	San Lucas Tolimán	6	Junio	2023-06-24T00:00:00	2024-11-08T22:00:00	5	Humedad	68
131813	7	Sololá	713	San Lucas Tolimán	10	San Lucas Tolimán	6	Junio	2023-06-24T00:00:00	2024-11-08T22:00:00	6	Velocidad del viento	3.2
131814	7	Sololá	713	San Lucas Tolimán	10	San Lucas Tolimán	6	Junio	2023-06-24T00:00:00	2024-11-08T22:00:00	7	Dirección del viento	3.22
131815	7	Sololá	713	San Lucas Tolimán	10	San Lucas Tolimán	6	Junio	2023-06-24T00:00:00	2024-11-08T22:00:00	1	Precipitación	0
131816	7	Sololá	713	San Lucas Tolimán	10	San Lucas Tolimán	6	Junio	2023-06-24T00:00:00	2024-11-08T22:00:00	8	Radiación solar	0
131817	7	Sololá	713	San Lucas Tolimán	10	San Lucas Tolimán	6	Junio	2023-06-24T00:00:00	2024-11-08T23:00:00	2	Temperatura media	17.8
131818	7	Sololá	713	San Lucas Tolimán	10	San Lucas Tolimán	6	Junio	2023-06-24T00:00:00	2024-11-08T23:00:00	4	Temperatura máxima	18
131819	7	Sololá	713	San Lucas Tolimán	10	San Lucas Tolimán	6	Junio	2023-06-24T00:00:00	2024-11-08T23:00:00	3	Temperatura mínima	17.7
131820	7	Sololá	713	San Lucas Tolimán	10	San Lucas Tolimán	6	Junio	2023-06-24T00:00:00	2024-11-08T23:00:00	5	Humedad	68
131821	7	Sololá	713	San Lucas Tolimán	10	San Lucas Tolimán	6	Junio	2023-06-24T00:00:00	2024-11-08T23:00:00	6	Velocidad del viento	3.2
131822	7	Sololá	713	San Lucas Tolimán	10	San Lucas Tolimán	6	Junio	2023-06-24T00:00:00	2024-11-08T23:00:00	7	Dirección del viento	3.22
131823	7	Sololá	713	San Lucas Tolimán	10	San Lucas Tolimán	6	Junio	2023-06-24T00:00:00	2024-11-08T23:00:00	1	Precipitación	0
131824	7	Sololá	713	San Lucas Tolimán	10	San Lucas Tolimán	6	Junio	2023-06-24T00:00:00	2024-11-08T23:00:00	8	Radiación solar	0
131825	7	Sololá	713	San Lucas Tolimán	10	San Lucas Tolimán	6	Junio	2023-06-25T00:00:00	2024-11-08T00:00:00	2	Temperatura media	16.7
131826	7	Sololá	713	San Lucas Tolimán	10	San Lucas Tolimán	6	Junio	2023-06-25T00:00:00	2024-11-08T00:00:00	4	Temperatura máxima	17.9
131827	7	Sololá	713	San Lucas Tolimán	10	San Lucas Tolimán	6	Junio	2023-06-25T00:00:00	2024-11-08T00:00:00	3	Temperatura mínima	16.7
131828	7	Sololá	713	San Lucas Tolimán	10	San Lucas Tolimán	6	Junio	2023-06-25T00:00:00	2024-11-08T00:00:00	5	Humedad	68
131829	7	Sololá	713	San Lucas Tolimán	10	San Lucas Tolimán	6	Junio	2023-06-25T00:00:00	2024-11-08T00:00:00	6	Velocidad del viento	8
131830	7	Sololá	713	San Lucas Tolimán	10	San Lucas Tolimán	6	Junio	2023-06-25T00:00:00	2024-11-08T00:00:00	7	Dirección del viento	8.05
131831	7	Sololá	713	San Lucas Tolimán	10	San Lucas Tolimán	6	Junio	2023-06-25T00:00:00	2024-11-08T00:00:00	1	Precipitación	0.2
131832	7	Sololá	713	San Lucas Tolimán	10	San Lucas Tolimán	6	Junio	2023-06-25T00:00:00	2024-11-08T00:00:00	8	Radiación solar	0
131833	7	Sololá	713	San Lucas Tolimán	10	San Lucas Tolimán	6	Junio	2023-06-25T00:00:00	2024-11-08T01:00:00	2	Temperatura media	17
131834	7	Sololá	713	San Lucas Tolimán	10	San Lucas Tolimán	6	Junio	2023-06-25T00:00:00	2024-11-08T01:00:00	4	Temperatura máxima	17
131835	7	Sololá	713	San Lucas Tolimán	10	San Lucas Tolimán	6	Junio	2023-06-25T00:00:00	2024-11-08T01:00:00	3	Temperatura mínima	16.5
131836	7	Sololá	713	San Lucas Tolimán	10	San Lucas Tolimán	6	Junio	2023-06-25T00:00:00	2024-11-08T01:00:00	5	Humedad	65
131837	7	Sololá	713	San Lucas Tolimán	10	San Lucas Tolimán	6	Junio	2023-06-25T00:00:00	2024-11-08T01:00:00	6	Velocidad del viento	8
131838	7	Sololá	713	San Lucas Tolimán	10	San Lucas Tolimán	6	Junio	2023-06-25T00:00:00	2024-11-08T01:00:00	7	Dirección del viento	8.05
131839	7	Sololá	713	San Lucas Tolimán	10	San Lucas Tolimán	6	Junio	2023-06-25T00:00:00	2024-11-08T01:00:00	1	Precipitación	0
131840	7	Sololá	713	San Lucas Tolimán	10	San Lucas Tolimán	6	Junio	2023-06-25T00:00:00	2024-11-08T01:00:00	8	Radiación solar	0
131841	7	Sololá	713	San Lucas Tolimán	10	San Lucas Tolimán	6	Junio	2023-06-25T00:00:00	2024-11-08T02:00:00	2	Temperatura media	17.1
131842	7	Sololá	713	San Lucas Tolimán	10	San Lucas Tolimán	6	Junio	2023-06-25T00:00:00	2024-11-08T02:00:00	4	Temperatura máxima	17.3
131843	7	Sololá	713	San Lucas Tolimán	10	San Lucas Tolimán	6	Junio	2023-06-25T00:00:00	2024-11-08T02:00:00	3	Temperatura mínima	16.9
131844	7	Sololá	713	San Lucas Tolimán	10	San Lucas Tolimán	6	Junio	2023-06-25T00:00:00	2024-11-08T02:00:00	5	Humedad	66
131845	7	Sololá	713	San Lucas Tolimán	10	San Lucas Tolimán	6	Junio	2023-06-25T00:00:00	2024-11-08T02:00:00	6	Velocidad del viento	3.2
131846	7	Sololá	713	San Lucas Tolimán	10	San Lucas Tolimán	6	Junio	2023-06-25T00:00:00	2024-11-08T02:00:00	7	Dirección del viento	3.22
131847	7	Sololá	713	San Lucas Tolimán	10	San Lucas Tolimán	6	Junio	2023-06-25T00:00:00	2024-11-08T02:00:00	1	Precipitación	0
131848	7	Sololá	713	San Lucas Tolimán	10	San Lucas Tolimán	6	Junio	2023-06-25T00:00:00	2024-11-08T02:00:00	8	Radiación solar	0
131849	7	Sololá	713	San Lucas Tolimán	10	San Lucas Tolimán	6	Junio	2023-06-25T00:00:00	2024-11-08T03:00:00	2	Temperatura media	16.8
131850	7	Sololá	713	San Lucas Tolimán	10	San Lucas Tolimán	6	Junio	2023-06-25T00:00:00	2024-11-08T03:00:00	4	Temperatura máxima	17.2
131851	7	Sololá	713	San Lucas Tolimán	10	San Lucas Tolimán	6	Junio	2023-06-25T00:00:00	2024-11-08T03:00:00	3	Temperatura mínima	16.8
131852	7	Sololá	713	San Lucas Tolimán	10	San Lucas Tolimán	6	Junio	2023-06-25T00:00:00	2024-11-08T03:00:00	5	Humedad	65
131853	7	Sololá	713	San Lucas Tolimán	10	San Lucas Tolimán	6	Junio	2023-06-25T00:00:00	2024-11-08T03:00:00	6	Velocidad del viento	1.6
131854	7	Sololá	713	San Lucas Tolimán	10	San Lucas Tolimán	6	Junio	2023-06-25T00:00:00	2024-11-08T03:00:00	7	Dirección del viento	1.61
131855	7	Sololá	713	San Lucas Tolimán	10	San Lucas Tolimán	6	Junio	2023-06-25T00:00:00	2024-11-08T03:00:00	1	Precipitación	0
131856	7	Sololá	713	San Lucas Tolimán	10	San Lucas Tolimán	6	Junio	2023-06-25T00:00:00	2024-11-08T03:00:00	8	Radiación solar	0
131857	7	Sololá	713	San Lucas Tolimán	10	San Lucas Tolimán	6	Junio	2023-06-25T00:00:00	2024-11-08T04:00:00	2	Temperatura media	16.9
131858	7	Sololá	713	San Lucas Tolimán	10	San Lucas Tolimán	6	Junio	2023-06-25T00:00:00	2024-11-08T04:00:00	4	Temperatura máxima	17.1
131859	7	Sololá	713	San Lucas Tolimán	10	San Lucas Tolimán	6	Junio	2023-06-25T00:00:00	2024-11-08T04:00:00	3	Temperatura mínima	16.7
131860	7	Sololá	713	San Lucas Tolimán	10	San Lucas Tolimán	6	Junio	2023-06-25T00:00:00	2024-11-08T04:00:00	5	Humedad	64
131861	7	Sololá	713	San Lucas Tolimán	10	San Lucas Tolimán	6	Junio	2023-06-25T00:00:00	2024-11-08T04:00:00	6	Velocidad del viento	1.6
131862	7	Sololá	713	San Lucas Tolimán	10	San Lucas Tolimán	6	Junio	2023-06-25T00:00:00	2024-11-08T04:00:00	7	Dirección del viento	1.61
131863	7	Sololá	713	San Lucas Tolimán	10	San Lucas Tolimán	6	Junio	2023-06-25T00:00:00	2024-11-08T04:00:00	1	Precipitación	0
131864	7	Sololá	713	San Lucas Tolimán	10	San Lucas Tolimán	6	Junio	2023-06-25T00:00:00	2024-11-08T04:00:00	8	Radiación solar	0
131865	7	Sololá	713	San Lucas Tolimán	10	San Lucas Tolimán	6	Junio	2023-06-25T00:00:00	2024-11-08T05:00:00	2	Temperatura media	16.6
131866	7	Sololá	713	San Lucas Tolimán	10	San Lucas Tolimán	6	Junio	2023-06-25T00:00:00	2024-11-08T05:00:00	4	Temperatura máxima	16.9
131867	7	Sololá	713	San Lucas Tolimán	10	San Lucas Tolimán	6	Junio	2023-06-25T00:00:00	2024-11-08T05:00:00	3	Temperatura mínima	16.6
131868	7	Sololá	713	San Lucas Tolimán	10	San Lucas Tolimán	6	Junio	2023-06-25T00:00:00	2024-11-08T05:00:00	5	Humedad	64
131869	7	Sololá	713	San Lucas Tolimán	10	San Lucas Tolimán	6	Junio	2023-06-25T00:00:00	2024-11-08T05:00:00	6	Velocidad del viento	0
131870	7	Sololá	713	San Lucas Tolimán	10	San Lucas Tolimán	6	Junio	2023-06-25T00:00:00	2024-11-08T05:00:00	7	Dirección del viento	0
131871	7	Sololá	713	San Lucas Tolimán	10	San Lucas Tolimán	6	Junio	2023-06-25T00:00:00	2024-11-08T05:00:00	1	Precipitación	0
131872	7	Sololá	713	San Lucas Tolimán	10	San Lucas Tolimán	6	Junio	2023-06-25T00:00:00	2024-11-08T05:00:00	8	Radiación solar	0
131873	7	Sololá	713	San Lucas Tolimán	10	San Lucas Tolimán	6	Junio	2023-06-25T00:00:00	2024-11-08T06:00:00	2	Temperatura media	17.1
131874	7	Sololá	713	San Lucas Tolimán	10	San Lucas Tolimán	6	Junio	2023-06-25T00:00:00	2024-11-08T06:00:00	4	Temperatura máxima	17.2
131875	7	Sololá	713	San Lucas Tolimán	10	San Lucas Tolimán	6	Junio	2023-06-25T00:00:00	2024-11-08T06:00:00	3	Temperatura mínima	16.5
131876	7	Sololá	713	San Lucas Tolimán	10	San Lucas Tolimán	6	Junio	2023-06-25T00:00:00	2024-11-08T06:00:00	5	Humedad	63
131877	7	Sololá	713	San Lucas Tolimán	10	San Lucas Tolimán	6	Junio	2023-06-25T00:00:00	2024-11-08T06:00:00	6	Velocidad del viento	1.6
131878	7	Sololá	713	San Lucas Tolimán	10	San Lucas Tolimán	6	Junio	2023-06-25T00:00:00	2024-11-08T06:00:00	7	Dirección del viento	1.61
131879	7	Sololá	713	San Lucas Tolimán	10	San Lucas Tolimán	6	Junio	2023-06-25T00:00:00	2024-11-08T06:00:00	1	Precipitación	0
131880	7	Sololá	713	San Lucas Tolimán	10	San Lucas Tolimán	6	Junio	2023-06-25T00:00:00	2024-11-08T06:00:00	8	Radiación solar	2
131881	7	Sololá	713	San Lucas Tolimán	10	San Lucas Tolimán	6	Junio	2023-06-25T00:00:00	2024-11-08T07:00:00	2	Temperatura media	17.8
131882	7	Sololá	713	San Lucas Tolimán	10	San Lucas Tolimán	6	Junio	2023-06-25T00:00:00	2024-11-08T07:00:00	4	Temperatura máxima	17.8
131883	7	Sololá	713	San Lucas Tolimán	10	San Lucas Tolimán	6	Junio	2023-06-25T00:00:00	2024-11-08T07:00:00	3	Temperatura mínima	16.6
131884	7	Sololá	713	San Lucas Tolimán	10	San Lucas Tolimán	6	Junio	2023-06-25T00:00:00	2024-11-08T07:00:00	5	Humedad	61
131885	7	Sololá	713	San Lucas Tolimán	10	San Lucas Tolimán	6	Junio	2023-06-25T00:00:00	2024-11-08T07:00:00	6	Velocidad del viento	1.6
131886	7	Sololá	713	San Lucas Tolimán	10	San Lucas Tolimán	6	Junio	2023-06-25T00:00:00	2024-11-08T07:00:00	7	Dirección del viento	1.61
131887	7	Sololá	713	San Lucas Tolimán	10	San Lucas Tolimán	6	Junio	2023-06-25T00:00:00	2024-11-08T07:00:00	1	Precipitación	0
131888	7	Sololá	713	San Lucas Tolimán	10	San Lucas Tolimán	6	Junio	2023-06-25T00:00:00	2024-11-08T07:00:00	8	Radiación solar	71
131889	7	Sololá	713	San Lucas Tolimán	10	San Lucas Tolimán	6	Junio	2023-06-25T00:00:00	2024-11-08T08:00:00	2	Temperatura media	21.5
131890	7	Sololá	713	San Lucas Tolimán	10	San Lucas Tolimán	6	Junio	2023-06-25T00:00:00	2024-11-08T08:00:00	4	Temperatura máxima	21.5
131891	7	Sololá	713	San Lucas Tolimán	10	San Lucas Tolimán	6	Junio	2023-06-25T00:00:00	2024-11-08T08:00:00	3	Temperatura mínima	17.8
131892	7	Sololá	713	San Lucas Tolimán	10	San Lucas Tolimán	6	Junio	2023-06-25T00:00:00	2024-11-08T08:00:00	5	Humedad	48
131893	7	Sololá	713	San Lucas Tolimán	10	San Lucas Tolimán	6	Junio	2023-06-25T00:00:00	2024-11-08T08:00:00	6	Velocidad del viento	8
131894	7	Sololá	713	San Lucas Tolimán	10	San Lucas Tolimán	6	Junio	2023-06-25T00:00:00	2024-11-08T08:00:00	7	Dirección del viento	8.05
131895	7	Sololá	713	San Lucas Tolimán	10	San Lucas Tolimán	6	Junio	2023-06-25T00:00:00	2024-11-08T08:00:00	1	Precipitación	0.2
131896	7	Sololá	713	San Lucas Tolimán	10	San Lucas Tolimán	6	Junio	2023-06-25T00:00:00	2024-11-08T08:00:00	8	Radiación solar	356
131897	7	Sololá	713	San Lucas Tolimán	10	San Lucas Tolimán	6	Junio	2023-06-25T00:00:00	2024-11-08T09:00:00	2	Temperatura media	22.3
131898	7	Sololá	713	San Lucas Tolimán	10	San Lucas Tolimán	6	Junio	2023-06-25T00:00:00	2024-11-08T09:00:00	4	Temperatura máxima	22.3
131899	7	Sololá	713	San Lucas Tolimán	10	San Lucas Tolimán	6	Junio	2023-06-25T00:00:00	2024-11-08T09:00:00	3	Temperatura mínima	21.3
131900	7	Sololá	713	San Lucas Tolimán	10	San Lucas Tolimán	6	Junio	2023-06-25T00:00:00	2024-11-08T09:00:00	5	Humedad	45
131901	7	Sololá	713	San Lucas Tolimán	10	San Lucas Tolimán	6	Junio	2023-06-25T00:00:00	2024-11-08T09:00:00	6	Velocidad del viento	3.2
131902	7	Sololá	713	San Lucas Tolimán	10	San Lucas Tolimán	6	Junio	2023-06-25T00:00:00	2024-11-08T09:00:00	7	Dirección del viento	3.22
131903	7	Sololá	713	San Lucas Tolimán	10	San Lucas Tolimán	6	Junio	2023-06-25T00:00:00	2024-11-08T09:00:00	1	Precipitación	0
131904	7	Sololá	713	San Lucas Tolimán	10	San Lucas Tolimán	6	Junio	2023-06-25T00:00:00	2024-11-08T09:00:00	8	Radiación solar	413
131905	7	Sololá	713	San Lucas Tolimán	10	San Lucas Tolimán	6	Junio	2023-06-25T00:00:00	2024-11-08T10:00:00	2	Temperatura media	24.6
131906	7	Sololá	713	San Lucas Tolimán	10	San Lucas Tolimán	6	Junio	2023-06-25T00:00:00	2024-11-08T10:00:00	4	Temperatura máxima	24.6
131907	7	Sololá	713	San Lucas Tolimán	10	San Lucas Tolimán	6	Junio	2023-06-25T00:00:00	2024-11-08T10:00:00	3	Temperatura mínima	22.3
131908	7	Sololá	713	San Lucas Tolimán	10	San Lucas Tolimán	6	Junio	2023-06-25T00:00:00	2024-11-08T10:00:00	5	Humedad	40
131909	7	Sololá	713	San Lucas Tolimán	10	San Lucas Tolimán	6	Junio	2023-06-25T00:00:00	2024-11-08T10:00:00	6	Velocidad del viento	3.2
131910	7	Sololá	713	San Lucas Tolimán	10	San Lucas Tolimán	6	Junio	2023-06-25T00:00:00	2024-11-08T10:00:00	7	Dirección del viento	3.22
131911	7	Sololá	713	San Lucas Tolimán	10	San Lucas Tolimán	6	Junio	2023-06-25T00:00:00	2024-11-08T10:00:00	1	Precipitación	0
131912	7	Sololá	713	San Lucas Tolimán	10	San Lucas Tolimán	6	Junio	2023-06-25T00:00:00	2024-11-08T10:00:00	8	Radiación solar	756
131913	7	Sololá	713	San Lucas Tolimán	10	San Lucas Tolimán	6	Junio	2023-06-25T00:00:00	2024-11-08T11:00:00	2	Temperatura media	24.1
131914	7	Sololá	713	San Lucas Tolimán	10	San Lucas Tolimán	6	Junio	2023-06-25T00:00:00	2024-11-08T11:00:00	4	Temperatura máxima	25.1
131915	7	Sololá	713	San Lucas Tolimán	10	San Lucas Tolimán	6	Junio	2023-06-25T00:00:00	2024-11-08T11:00:00	3	Temperatura mínima	24.1
131916	7	Sololá	713	San Lucas Tolimán	10	San Lucas Tolimán	6	Junio	2023-06-25T00:00:00	2024-11-08T11:00:00	5	Humedad	45
131917	7	Sololá	713	San Lucas Tolimán	10	San Lucas Tolimán	6	Junio	2023-06-25T00:00:00	2024-11-08T11:00:00	6	Velocidad del viento	4.8
131918	7	Sololá	713	San Lucas Tolimán	10	San Lucas Tolimán	6	Junio	2023-06-25T00:00:00	2024-11-08T11:00:00	7	Dirección del viento	4.83
131919	7	Sololá	713	San Lucas Tolimán	10	San Lucas Tolimán	6	Junio	2023-06-25T00:00:00	2024-11-08T11:00:00	1	Precipitación	0
131920	7	Sololá	713	San Lucas Tolimán	10	San Lucas Tolimán	6	Junio	2023-06-25T00:00:00	2024-11-08T11:00:00	8	Radiación solar	740
131921	7	Sololá	713	San Lucas Tolimán	10	San Lucas Tolimán	6	Junio	2023-06-25T00:00:00	2024-11-08T12:00:00	2	Temperatura media	25.7
131922	7	Sololá	713	San Lucas Tolimán	10	San Lucas Tolimán	6	Junio	2023-06-25T00:00:00	2024-11-08T12:00:00	4	Temperatura máxima	25.7
131923	7	Sololá	713	San Lucas Tolimán	10	San Lucas Tolimán	6	Junio	2023-06-25T00:00:00	2024-11-08T12:00:00	3	Temperatura mínima	24.1
131924	7	Sololá	713	San Lucas Tolimán	10	San Lucas Tolimán	6	Junio	2023-06-25T00:00:00	2024-11-08T12:00:00	5	Humedad	51
131925	7	Sololá	713	San Lucas Tolimán	10	San Lucas Tolimán	6	Junio	2023-06-25T00:00:00	2024-11-08T12:00:00	6	Velocidad del viento	8
131926	7	Sololá	713	San Lucas Tolimán	10	San Lucas Tolimán	6	Junio	2023-06-25T00:00:00	2024-11-08T12:00:00	7	Dirección del viento	8.05
131927	7	Sololá	713	San Lucas Tolimán	10	San Lucas Tolimán	6	Junio	2023-06-25T00:00:00	2024-11-08T12:00:00	1	Precipitación	0
131928	7	Sololá	713	San Lucas Tolimán	10	San Lucas Tolimán	6	Junio	2023-06-25T00:00:00	2024-11-08T12:00:00	8	Radiación solar	799
131929	7	Sololá	713	San Lucas Tolimán	10	San Lucas Tolimán	6	Junio	2023-06-25T00:00:00	2024-11-08T13:00:00	2	Temperatura media	25.4
131930	7	Sololá	713	San Lucas Tolimán	10	San Lucas Tolimán	6	Junio	2023-06-25T00:00:00	2024-11-08T13:00:00	4	Temperatura máxima	25.7
131931	7	Sololá	713	San Lucas Tolimán	10	San Lucas Tolimán	6	Junio	2023-06-25T00:00:00	2024-11-08T13:00:00	3	Temperatura mínima	24.2
131932	7	Sololá	713	San Lucas Tolimán	10	San Lucas Tolimán	6	Junio	2023-06-25T00:00:00	2024-11-08T13:00:00	5	Humedad	53
131933	7	Sololá	713	San Lucas Tolimán	10	San Lucas Tolimán	6	Junio	2023-06-25T00:00:00	2024-11-08T13:00:00	6	Velocidad del viento	6.4
131934	7	Sololá	713	San Lucas Tolimán	10	San Lucas Tolimán	6	Junio	2023-06-25T00:00:00	2024-11-08T13:00:00	7	Dirección del viento	6.44
131935	7	Sololá	713	San Lucas Tolimán	10	San Lucas Tolimán	6	Junio	2023-06-25T00:00:00	2024-11-08T13:00:00	1	Precipitación	0
131936	7	Sololá	713	San Lucas Tolimán	10	San Lucas Tolimán	6	Junio	2023-06-25T00:00:00	2024-11-08T13:00:00	8	Radiación solar	955
131937	7	Sololá	713	San Lucas Tolimán	10	San Lucas Tolimán	6	Junio	2023-06-25T00:00:00	2024-11-08T14:00:00	2	Temperatura media	24.1
131938	7	Sololá	713	San Lucas Tolimán	10	San Lucas Tolimán	6	Junio	2023-06-25T00:00:00	2024-11-08T14:00:00	4	Temperatura máxima	25.4
131939	7	Sololá	713	San Lucas Tolimán	10	San Lucas Tolimán	6	Junio	2023-06-25T00:00:00	2024-11-08T14:00:00	3	Temperatura mínima	23.3
131940	7	Sololá	713	San Lucas Tolimán	10	San Lucas Tolimán	6	Junio	2023-06-25T00:00:00	2024-11-08T14:00:00	5	Humedad	55
131941	7	Sololá	713	San Lucas Tolimán	10	San Lucas Tolimán	6	Junio	2023-06-25T00:00:00	2024-11-08T14:00:00	6	Velocidad del viento	9.7
131942	7	Sololá	713	San Lucas Tolimán	10	San Lucas Tolimán	6	Junio	2023-06-25T00:00:00	2024-11-08T14:00:00	7	Dirección del viento	9.66
131943	7	Sololá	713	San Lucas Tolimán	10	San Lucas Tolimán	6	Junio	2023-06-25T00:00:00	2024-11-08T14:00:00	1	Precipitación	0
131944	7	Sololá	713	San Lucas Tolimán	10	San Lucas Tolimán	6	Junio	2023-06-25T00:00:00	2024-11-08T14:00:00	8	Radiación solar	1056
131945	7	Sololá	713	San Lucas Tolimán	10	San Lucas Tolimán	6	Junio	2023-06-25T00:00:00	2024-11-08T15:00:00	2	Temperatura media	23.6
131946	7	Sololá	713	San Lucas Tolimán	10	San Lucas Tolimán	6	Junio	2023-06-25T00:00:00	2024-11-08T15:00:00	4	Temperatura máxima	24.6
131947	7	Sololá	713	San Lucas Tolimán	10	San Lucas Tolimán	6	Junio	2023-06-25T00:00:00	2024-11-08T15:00:00	3	Temperatura mínima	23.6
131948	7	Sololá	713	San Lucas Tolimán	10	San Lucas Tolimán	6	Junio	2023-06-25T00:00:00	2024-11-08T15:00:00	5	Humedad	57
131949	7	Sololá	713	San Lucas Tolimán	10	San Lucas Tolimán	6	Junio	2023-06-25T00:00:00	2024-11-08T15:00:00	6	Velocidad del viento	11.3
131950	7	Sololá	713	San Lucas Tolimán	10	San Lucas Tolimán	6	Junio	2023-06-25T00:00:00	2024-11-08T15:00:00	7	Dirección del viento	11.27
131951	7	Sololá	713	San Lucas Tolimán	10	San Lucas Tolimán	6	Junio	2023-06-25T00:00:00	2024-11-08T15:00:00	1	Precipitación	0
131952	7	Sololá	713	San Lucas Tolimán	10	San Lucas Tolimán	6	Junio	2023-06-25T00:00:00	2024-11-08T15:00:00	8	Radiación solar	949
131953	7	Sololá	713	San Lucas Tolimán	10	San Lucas Tolimán	6	Junio	2023-06-25T00:00:00	2024-11-08T16:00:00	2	Temperatura media	22.8
131954	7	Sololá	713	San Lucas Tolimán	10	San Lucas Tolimán	6	Junio	2023-06-25T00:00:00	2024-11-08T16:00:00	4	Temperatura máxima	23.8
131955	7	Sololá	713	San Lucas Tolimán	10	San Lucas Tolimán	6	Junio	2023-06-25T00:00:00	2024-11-08T16:00:00	3	Temperatura mínima	22.7
131956	7	Sololá	713	San Lucas Tolimán	10	San Lucas Tolimán	6	Junio	2023-06-25T00:00:00	2024-11-08T16:00:00	5	Humedad	59
131957	7	Sololá	713	San Lucas Tolimán	10	San Lucas Tolimán	6	Junio	2023-06-25T00:00:00	2024-11-08T16:00:00	6	Velocidad del viento	11.3
131958	7	Sololá	713	San Lucas Tolimán	10	San Lucas Tolimán	6	Junio	2023-06-25T00:00:00	2024-11-08T16:00:00	7	Dirección del viento	11.27
131959	7	Sololá	713	San Lucas Tolimán	10	San Lucas Tolimán	6	Junio	2023-06-25T00:00:00	2024-11-08T16:00:00	1	Precipitación	0
131960	7	Sololá	713	San Lucas Tolimán	10	San Lucas Tolimán	6	Junio	2023-06-25T00:00:00	2024-11-08T16:00:00	8	Radiación solar	742
131961	7	Sololá	713	San Lucas Tolimán	10	San Lucas Tolimán	6	Junio	2023-06-25T00:00:00	2024-11-08T17:00:00	2	Temperatura media	21.8
131962	7	Sololá	713	San Lucas Tolimán	10	San Lucas Tolimán	6	Junio	2023-06-25T00:00:00	2024-11-08T17:00:00	4	Temperatura máxima	23.5
131963	7	Sololá	713	San Lucas Tolimán	10	San Lucas Tolimán	6	Junio	2023-06-25T00:00:00	2024-11-08T17:00:00	3	Temperatura mínima	21.6
131964	7	Sololá	713	San Lucas Tolimán	10	San Lucas Tolimán	6	Junio	2023-06-25T00:00:00	2024-11-08T17:00:00	5	Humedad	60
131965	7	Sololá	713	San Lucas Tolimán	10	San Lucas Tolimán	6	Junio	2023-06-25T00:00:00	2024-11-08T17:00:00	6	Velocidad del viento	9.7
131966	7	Sololá	713	San Lucas Tolimán	10	San Lucas Tolimán	6	Junio	2023-06-25T00:00:00	2024-11-08T17:00:00	7	Dirección del viento	9.66
131967	7	Sololá	713	San Lucas Tolimán	10	San Lucas Tolimán	6	Junio	2023-06-25T00:00:00	2024-11-08T17:00:00	1	Precipitación	0
131968	7	Sololá	713	San Lucas Tolimán	10	San Lucas Tolimán	6	Junio	2023-06-25T00:00:00	2024-11-08T17:00:00	8	Radiación solar	367
131969	7	Sololá	713	San Lucas Tolimán	10	San Lucas Tolimán	6	Junio	2023-06-25T00:00:00	2024-11-08T18:00:00	2	Temperatura media	20.9
131970	7	Sololá	713	San Lucas Tolimán	10	San Lucas Tolimán	6	Junio	2023-06-25T00:00:00	2024-11-08T18:00:00	4	Temperatura máxima	21.9
131971	7	Sololá	713	San Lucas Tolimán	10	San Lucas Tolimán	6	Junio	2023-06-25T00:00:00	2024-11-08T18:00:00	3	Temperatura mínima	20.9
131972	7	Sololá	713	San Lucas Tolimán	10	San Lucas Tolimán	6	Junio	2023-06-25T00:00:00	2024-11-08T18:00:00	5	Humedad	60
131973	7	Sololá	713	San Lucas Tolimán	10	San Lucas Tolimán	6	Junio	2023-06-25T00:00:00	2024-11-08T18:00:00	6	Velocidad del viento	8
131974	7	Sololá	713	San Lucas Tolimán	10	San Lucas Tolimán	6	Junio	2023-06-25T00:00:00	2024-11-08T18:00:00	7	Dirección del viento	8.05
131975	7	Sololá	713	San Lucas Tolimán	10	San Lucas Tolimán	6	Junio	2023-06-25T00:00:00	2024-11-08T18:00:00	1	Precipitación	0
131976	7	Sololá	713	San Lucas Tolimán	10	San Lucas Tolimán	6	Junio	2023-06-25T00:00:00	2024-11-08T18:00:00	8	Radiación solar	207
131977	7	Sololá	713	San Lucas Tolimán	10	San Lucas Tolimán	6	Junio	2023-06-25T00:00:00	2024-11-08T19:00:00	2	Temperatura media	20.4
131978	7	Sololá	713	San Lucas Tolimán	10	San Lucas Tolimán	6	Junio	2023-06-25T00:00:00	2024-11-08T19:00:00	4	Temperatura máxima	20.9
131979	7	Sololá	713	San Lucas Tolimán	10	San Lucas Tolimán	6	Junio	2023-06-25T00:00:00	2024-11-08T19:00:00	3	Temperatura mínima	20.2
131980	7	Sololá	713	San Lucas Tolimán	10	San Lucas Tolimán	6	Junio	2023-06-25T00:00:00	2024-11-08T19:00:00	5	Humedad	56
131981	7	Sololá	713	San Lucas Tolimán	10	San Lucas Tolimán	6	Junio	2023-06-25T00:00:00	2024-11-08T19:00:00	6	Velocidad del viento	4.8
131982	7	Sololá	713	San Lucas Tolimán	10	San Lucas Tolimán	6	Junio	2023-06-25T00:00:00	2024-11-08T19:00:00	7	Dirección del viento	4.83
131983	7	Sololá	713	San Lucas Tolimán	10	San Lucas Tolimán	6	Junio	2023-06-25T00:00:00	2024-11-08T19:00:00	1	Precipitación	0
131984	7	Sololá	713	San Lucas Tolimán	10	San Lucas Tolimán	6	Junio	2023-06-25T00:00:00	2024-11-08T19:00:00	8	Radiación solar	0
131985	7	Sololá	713	San Lucas Tolimán	10	San Lucas Tolimán	6	Junio	2023-06-25T00:00:00	2024-11-08T20:00:00	2	Temperatura media	19.6
131986	7	Sololá	713	San Lucas Tolimán	10	San Lucas Tolimán	6	Junio	2023-06-25T00:00:00	2024-11-08T20:00:00	4	Temperatura máxima	20.8
131987	7	Sololá	713	San Lucas Tolimán	10	San Lucas Tolimán	6	Junio	2023-06-25T00:00:00	2024-11-08T20:00:00	3	Temperatura mínima	19.6
131988	7	Sololá	713	San Lucas Tolimán	10	San Lucas Tolimán	6	Junio	2023-06-25T00:00:00	2024-11-08T20:00:00	5	Humedad	60
131989	7	Sololá	713	San Lucas Tolimán	10	San Lucas Tolimán	6	Junio	2023-06-25T00:00:00	2024-11-08T20:00:00	6	Velocidad del viento	4.8
131990	7	Sololá	713	San Lucas Tolimán	10	San Lucas Tolimán	6	Junio	2023-06-25T00:00:00	2024-11-08T20:00:00	7	Dirección del viento	4.83
131991	7	Sololá	713	San Lucas Tolimán	10	San Lucas Tolimán	6	Junio	2023-06-25T00:00:00	2024-11-08T20:00:00	1	Precipitación	0
131992	7	Sololá	713	San Lucas Tolimán	10	San Lucas Tolimán	6	Junio	2023-06-25T00:00:00	2024-11-08T20:00:00	8	Radiación solar	0
131993	7	Sololá	713	San Lucas Tolimán	10	San Lucas Tolimán	6	Junio	2023-06-25T00:00:00	2024-11-08T21:00:00	2	Temperatura media	18.6
131994	7	Sololá	713	San Lucas Tolimán	10	San Lucas Tolimán	6	Junio	2023-06-25T00:00:00	2024-11-08T21:00:00	4	Temperatura máxima	19.6
131995	7	Sololá	713	San Lucas Tolimán	10	San Lucas Tolimán	6	Junio	2023-06-25T00:00:00	2024-11-08T21:00:00	3	Temperatura mínima	18.6
131996	7	Sololá	713	San Lucas Tolimán	10	San Lucas Tolimán	6	Junio	2023-06-25T00:00:00	2024-11-08T21:00:00	5	Humedad	60
131997	7	Sololá	713	San Lucas Tolimán	10	San Lucas Tolimán	6	Junio	2023-06-25T00:00:00	2024-11-08T21:00:00	6	Velocidad del viento	3.2
131998	7	Sololá	713	San Lucas Tolimán	10	San Lucas Tolimán	6	Junio	2023-06-25T00:00:00	2024-11-08T21:00:00	7	Dirección del viento	3.22
131999	7	Sololá	713	San Lucas Tolimán	10	San Lucas Tolimán	6	Junio	2023-06-25T00:00:00	2024-11-08T21:00:00	1	Precipitación	0
132000	7	Sololá	713	San Lucas Tolimán	10	San Lucas Tolimán	6	Junio	2023-06-25T00:00:00	2024-11-08T21:00:00	8	Radiación solar	0
132001	7	Sololá	713	San Lucas Tolimán	10	San Lucas Tolimán	6	Junio	2023-06-25T00:00:00	2024-11-08T22:00:00	2	Temperatura media	18.8
132002	7	Sololá	713	San Lucas Tolimán	10	San Lucas Tolimán	6	Junio	2023-06-25T00:00:00	2024-11-08T22:00:00	4	Temperatura máxima	18.8
132003	7	Sololá	713	San Lucas Tolimán	10	San Lucas Tolimán	6	Junio	2023-06-25T00:00:00	2024-11-08T22:00:00	3	Temperatura mínima	17.9
132004	7	Sololá	713	San Lucas Tolimán	10	San Lucas Tolimán	6	Junio	2023-06-25T00:00:00	2024-11-08T22:00:00	5	Humedad	54
132005	7	Sololá	713	San Lucas Tolimán	10	San Lucas Tolimán	6	Junio	2023-06-25T00:00:00	2024-11-08T22:00:00	6	Velocidad del viento	3.2
132006	7	Sololá	713	San Lucas Tolimán	10	San Lucas Tolimán	6	Junio	2023-06-25T00:00:00	2024-11-08T22:00:00	7	Dirección del viento	3.22
132007	7	Sololá	713	San Lucas Tolimán	10	San Lucas Tolimán	6	Junio	2023-06-25T00:00:00	2024-11-08T22:00:00	1	Precipitación	0
132008	7	Sololá	713	San Lucas Tolimán	10	San Lucas Tolimán	6	Junio	2023-06-25T00:00:00	2024-11-08T22:00:00	8	Radiación solar	0
132009	7	Sololá	713	San Lucas Tolimán	10	San Lucas Tolimán	6	Junio	2023-06-25T00:00:00	2024-11-08T23:00:00	2	Temperatura media	19.4
132010	7	Sololá	713	San Lucas Tolimán	10	San Lucas Tolimán	6	Junio	2023-06-25T00:00:00	2024-11-08T23:00:00	4	Temperatura máxima	19.4
132011	7	Sololá	713	San Lucas Tolimán	10	San Lucas Tolimán	6	Junio	2023-06-25T00:00:00	2024-11-08T23:00:00	3	Temperatura mínima	18.7
132012	7	Sololá	713	San Lucas Tolimán	10	San Lucas Tolimán	6	Junio	2023-06-25T00:00:00	2024-11-08T23:00:00	5	Humedad	51
132013	7	Sololá	713	San Lucas Tolimán	10	San Lucas Tolimán	6	Junio	2023-06-25T00:00:00	2024-11-08T23:00:00	6	Velocidad del viento	3.2
132014	7	Sololá	713	San Lucas Tolimán	10	San Lucas Tolimán	6	Junio	2023-06-25T00:00:00	2024-11-08T23:00:00	7	Dirección del viento	3.22
132015	7	Sololá	713	San Lucas Tolimán	10	San Lucas Tolimán	6	Junio	2023-06-25T00:00:00	2024-11-08T23:00:00	1	Precipitación	0
132016	7	Sololá	713	San Lucas Tolimán	10	San Lucas Tolimán	6	Junio	2023-06-25T00:00:00	2024-11-08T23:00:00	8	Radiación solar	0
132017	7	Sololá	713	San Lucas Tolimán	10	San Lucas Tolimán	6	Junio	2023-06-26T00:00:00	2024-11-08T00:00:00	2	Temperatura media	18.4
132018	7	Sololá	713	San Lucas Tolimán	10	San Lucas Tolimán	6	Junio	2023-06-26T00:00:00	2024-11-08T00:00:00	4	Temperatura máxima	20.1
132019	7	Sololá	713	San Lucas Tolimán	10	San Lucas Tolimán	6	Junio	2023-06-26T00:00:00	2024-11-08T00:00:00	3	Temperatura mínima	18.4
132020	7	Sololá	713	San Lucas Tolimán	10	San Lucas Tolimán	6	Junio	2023-06-26T00:00:00	2024-11-08T00:00:00	5	Humedad	56
132021	7	Sololá	713	San Lucas Tolimán	10	San Lucas Tolimán	6	Junio	2023-06-26T00:00:00	2024-11-08T00:00:00	6	Velocidad del viento	3.2
132022	7	Sololá	713	San Lucas Tolimán	10	San Lucas Tolimán	6	Junio	2023-06-26T00:00:00	2024-11-08T00:00:00	7	Dirección del viento	3.22
132023	7	Sololá	713	San Lucas Tolimán	10	San Lucas Tolimán	6	Junio	2023-06-26T00:00:00	2024-11-08T00:00:00	1	Precipitación	0
132024	7	Sololá	713	San Lucas Tolimán	10	San Lucas Tolimán	6	Junio	2023-06-26T00:00:00	2024-11-08T00:00:00	8	Radiación solar	0
132025	7	Sololá	713	San Lucas Tolimán	10	San Lucas Tolimán	6	Junio	2023-06-26T00:00:00	2024-11-08T01:00:00	2	Temperatura media	18.6
132026	7	Sololá	713	San Lucas Tolimán	10	San Lucas Tolimán	6	Junio	2023-06-26T00:00:00	2024-11-08T01:00:00	4	Temperatura máxima	18.6
132027	7	Sololá	713	San Lucas Tolimán	10	San Lucas Tolimán	6	Junio	2023-06-26T00:00:00	2024-11-08T01:00:00	3	Temperatura mínima	18
132028	7	Sololá	713	San Lucas Tolimán	10	San Lucas Tolimán	6	Junio	2023-06-26T00:00:00	2024-11-08T01:00:00	5	Humedad	53
132029	7	Sololá	713	San Lucas Tolimán	10	San Lucas Tolimán	6	Junio	2023-06-26T00:00:00	2024-11-08T01:00:00	6	Velocidad del viento	1.6
132030	7	Sololá	713	San Lucas Tolimán	10	San Lucas Tolimán	6	Junio	2023-06-26T00:00:00	2024-11-08T01:00:00	7	Dirección del viento	1.61
132031	7	Sololá	713	San Lucas Tolimán	10	San Lucas Tolimán	6	Junio	2023-06-26T00:00:00	2024-11-08T01:00:00	1	Precipitación	0
132032	7	Sololá	713	San Lucas Tolimán	10	San Lucas Tolimán	6	Junio	2023-06-26T00:00:00	2024-11-08T01:00:00	8	Radiación solar	0
132033	7	Sololá	713	San Lucas Tolimán	10	San Lucas Tolimán	6	Junio	2023-06-26T00:00:00	2024-11-08T02:00:00	2	Temperatura media	17.6
132034	7	Sololá	713	San Lucas Tolimán	10	San Lucas Tolimán	6	Junio	2023-06-26T00:00:00	2024-11-08T02:00:00	4	Temperatura máxima	18.7
132035	7	Sololá	713	San Lucas Tolimán	10	San Lucas Tolimán	6	Junio	2023-06-26T00:00:00	2024-11-08T02:00:00	3	Temperatura mínima	17.6
132036	7	Sololá	713	San Lucas Tolimán	10	San Lucas Tolimán	6	Junio	2023-06-26T00:00:00	2024-11-08T02:00:00	5	Humedad	57
132037	7	Sololá	713	San Lucas Tolimán	10	San Lucas Tolimán	6	Junio	2023-06-26T00:00:00	2024-11-08T02:00:00	6	Velocidad del viento	1.6
132038	7	Sololá	713	San Lucas Tolimán	10	San Lucas Tolimán	6	Junio	2023-06-26T00:00:00	2024-11-08T02:00:00	7	Dirección del viento	1.61
132039	7	Sololá	713	San Lucas Tolimán	10	San Lucas Tolimán	6	Junio	2023-06-26T00:00:00	2024-11-08T02:00:00	1	Precipitación	0
132040	7	Sololá	713	San Lucas Tolimán	10	San Lucas Tolimán	6	Junio	2023-06-26T00:00:00	2024-11-08T02:00:00	8	Radiación solar	0
132041	7	Sololá	713	San Lucas Tolimán	10	San Lucas Tolimán	6	Junio	2023-06-26T00:00:00	2024-11-08T03:00:00	2	Temperatura media	17.6
132042	7	Sololá	713	San Lucas Tolimán	10	San Lucas Tolimán	6	Junio	2023-06-26T00:00:00	2024-11-08T03:00:00	4	Temperatura máxima	17.8
132043	7	Sololá	713	San Lucas Tolimán	10	San Lucas Tolimán	6	Junio	2023-06-26T00:00:00	2024-11-08T03:00:00	3	Temperatura mínima	17.4
132044	7	Sololá	713	San Lucas Tolimán	10	San Lucas Tolimán	6	Junio	2023-06-26T00:00:00	2024-11-08T03:00:00	5	Humedad	57
132045	7	Sololá	713	San Lucas Tolimán	10	San Lucas Tolimán	6	Junio	2023-06-26T00:00:00	2024-11-08T03:00:00	6	Velocidad del viento	0
132046	7	Sololá	713	San Lucas Tolimán	10	San Lucas Tolimán	6	Junio	2023-06-26T00:00:00	2024-11-08T03:00:00	7	Dirección del viento	0
132047	7	Sololá	713	San Lucas Tolimán	10	San Lucas Tolimán	6	Junio	2023-06-26T00:00:00	2024-11-08T03:00:00	1	Precipitación	0
132048	7	Sololá	713	San Lucas Tolimán	10	San Lucas Tolimán	6	Junio	2023-06-26T00:00:00	2024-11-08T03:00:00	8	Radiación solar	0
132049	7	Sololá	713	San Lucas Tolimán	10	San Lucas Tolimán	6	Junio	2023-06-26T00:00:00	2024-11-08T04:00:00	2	Temperatura media	16.4
132050	7	Sololá	713	San Lucas Tolimán	10	San Lucas Tolimán	6	Junio	2023-06-26T00:00:00	2024-11-08T04:00:00	4	Temperatura máxima	17.5
132051	7	Sololá	713	San Lucas Tolimán	10	San Lucas Tolimán	6	Junio	2023-06-26T00:00:00	2024-11-08T04:00:00	3	Temperatura mínima	16.3
132052	7	Sololá	713	San Lucas Tolimán	10	San Lucas Tolimán	6	Junio	2023-06-26T00:00:00	2024-11-08T04:00:00	5	Humedad	62
132053	7	Sololá	713	San Lucas Tolimán	10	San Lucas Tolimán	6	Junio	2023-06-26T00:00:00	2024-11-08T04:00:00	6	Velocidad del viento	0
132054	7	Sololá	713	San Lucas Tolimán	10	San Lucas Tolimán	6	Junio	2023-06-26T00:00:00	2024-11-08T04:00:00	7	Dirección del viento	0
132055	7	Sololá	713	San Lucas Tolimán	10	San Lucas Tolimán	6	Junio	2023-06-26T00:00:00	2024-11-08T04:00:00	1	Precipitación	0
132056	7	Sololá	713	San Lucas Tolimán	10	San Lucas Tolimán	6	Junio	2023-06-26T00:00:00	2024-11-08T04:00:00	8	Radiación solar	0
132057	7	Sololá	713	San Lucas Tolimán	10	San Lucas Tolimán	6	Junio	2023-06-26T00:00:00	2024-11-08T05:00:00	2	Temperatura media	16.1
132058	7	Sololá	713	San Lucas Tolimán	10	San Lucas Tolimán	6	Junio	2023-06-26T00:00:00	2024-11-08T05:00:00	4	Temperatura máxima	16.3
132059	7	Sololá	713	San Lucas Tolimán	10	San Lucas Tolimán	6	Junio	2023-06-26T00:00:00	2024-11-08T05:00:00	3	Temperatura mínima	15.5
132060	7	Sololá	713	San Lucas Tolimán	10	San Lucas Tolimán	6	Junio	2023-06-26T00:00:00	2024-11-08T05:00:00	5	Humedad	58
132061	7	Sololá	713	San Lucas Tolimán	10	San Lucas Tolimán	6	Junio	2023-06-26T00:00:00	2024-11-08T05:00:00	6	Velocidad del viento	0
132062	7	Sololá	713	San Lucas Tolimán	10	San Lucas Tolimán	6	Junio	2023-06-26T00:00:00	2024-11-08T05:00:00	7	Dirección del viento	0
132063	7	Sololá	713	San Lucas Tolimán	10	San Lucas Tolimán	6	Junio	2023-06-26T00:00:00	2024-11-08T05:00:00	1	Precipitación	0
132064	7	Sololá	713	San Lucas Tolimán	10	San Lucas Tolimán	6	Junio	2023-06-26T00:00:00	2024-11-08T05:00:00	8	Radiación solar	0
132065	7	Sololá	713	San Lucas Tolimán	10	San Lucas Tolimán	6	Junio	2023-06-26T00:00:00	2024-11-08T06:00:00	2	Temperatura media	16.9
132066	7	Sololá	713	San Lucas Tolimán	10	San Lucas Tolimán	6	Junio	2023-06-26T00:00:00	2024-11-08T06:00:00	4	Temperatura máxima	17.1
132067	7	Sololá	713	San Lucas Tolimán	10	San Lucas Tolimán	6	Junio	2023-06-26T00:00:00	2024-11-08T06:00:00	3	Temperatura mínima	16.1
132068	7	Sololá	713	San Lucas Tolimán	10	San Lucas Tolimán	6	Junio	2023-06-26T00:00:00	2024-11-08T06:00:00	5	Humedad	55
132069	7	Sololá	713	San Lucas Tolimán	10	San Lucas Tolimán	6	Junio	2023-06-26T00:00:00	2024-11-08T06:00:00	6	Velocidad del viento	0
132070	7	Sololá	713	San Lucas Tolimán	10	San Lucas Tolimán	6	Junio	2023-06-26T00:00:00	2024-11-08T06:00:00	7	Dirección del viento	0
132071	7	Sololá	713	San Lucas Tolimán	10	San Lucas Tolimán	6	Junio	2023-06-26T00:00:00	2024-11-08T06:00:00	1	Precipitación	0
132072	7	Sololá	713	San Lucas Tolimán	10	San Lucas Tolimán	6	Junio	2023-06-26T00:00:00	2024-11-08T06:00:00	8	Radiación solar	5
132073	7	Sololá	713	San Lucas Tolimán	10	San Lucas Tolimán	6	Junio	2023-06-26T00:00:00	2024-11-08T07:00:00	2	Temperatura media	17.1
132074	7	Sololá	713	San Lucas Tolimán	10	San Lucas Tolimán	6	Junio	2023-06-26T00:00:00	2024-11-08T07:00:00	4	Temperatura máxima	17.2
132075	7	Sololá	713	San Lucas Tolimán	10	San Lucas Tolimán	6	Junio	2023-06-26T00:00:00	2024-11-08T07:00:00	3	Temperatura mínima	16.4
132076	7	Sololá	713	San Lucas Tolimán	10	San Lucas Tolimán	6	Junio	2023-06-26T00:00:00	2024-11-08T07:00:00	5	Humedad	58
132077	7	Sololá	713	San Lucas Tolimán	10	San Lucas Tolimán	6	Junio	2023-06-26T00:00:00	2024-11-08T07:00:00	6	Velocidad del viento	0
132078	7	Sololá	713	San Lucas Tolimán	10	San Lucas Tolimán	6	Junio	2023-06-26T00:00:00	2024-11-08T07:00:00	7	Dirección del viento	0
132079	7	Sololá	713	San Lucas Tolimán	10	San Lucas Tolimán	6	Junio	2023-06-26T00:00:00	2024-11-08T07:00:00	1	Precipitación	0
132080	7	Sololá	713	San Lucas Tolimán	10	San Lucas Tolimán	6	Junio	2023-06-26T00:00:00	2024-11-08T07:00:00	8	Radiación solar	46
132081	7	Sololá	713	San Lucas Tolimán	10	San Lucas Tolimán	6	Junio	2023-06-26T00:00:00	2024-11-08T08:00:00	2	Temperatura media	19.4
132082	7	Sololá	713	San Lucas Tolimán	10	San Lucas Tolimán	6	Junio	2023-06-26T00:00:00	2024-11-08T08:00:00	4	Temperatura máxima	19.4
132083	7	Sololá	713	San Lucas Tolimán	10	San Lucas Tolimán	6	Junio	2023-06-26T00:00:00	2024-11-08T08:00:00	3	Temperatura mínima	16.6
132084	7	Sololá	713	San Lucas Tolimán	10	San Lucas Tolimán	6	Junio	2023-06-26T00:00:00	2024-11-08T08:00:00	5	Humedad	52
132085	7	Sololá	713	San Lucas Tolimán	10	San Lucas Tolimán	6	Junio	2023-06-26T00:00:00	2024-11-08T08:00:00	6	Velocidad del viento	1.6
132086	7	Sololá	713	San Lucas Tolimán	10	San Lucas Tolimán	6	Junio	2023-06-26T00:00:00	2024-11-08T08:00:00	7	Dirección del viento	1.61
132087	7	Sololá	713	San Lucas Tolimán	10	San Lucas Tolimán	6	Junio	2023-06-26T00:00:00	2024-11-08T08:00:00	1	Precipitación	0
132088	7	Sololá	713	San Lucas Tolimán	10	San Lucas Tolimán	6	Junio	2023-06-26T00:00:00	2024-11-08T08:00:00	8	Radiación solar	175
132089	7	Sololá	713	San Lucas Tolimán	10	San Lucas Tolimán	6	Junio	2023-06-26T00:00:00	2024-11-08T09:00:00	2	Temperatura media	21.6
132090	7	Sololá	713	San Lucas Tolimán	10	San Lucas Tolimán	6	Junio	2023-06-26T00:00:00	2024-11-08T09:00:00	4	Temperatura máxima	21.6
132091	7	Sololá	713	San Lucas Tolimán	10	San Lucas Tolimán	6	Junio	2023-06-26T00:00:00	2024-11-08T09:00:00	3	Temperatura mínima	19.4
132092	7	Sololá	713	San Lucas Tolimán	10	San Lucas Tolimán	6	Junio	2023-06-26T00:00:00	2024-11-08T09:00:00	5	Humedad	49
132093	7	Sololá	713	San Lucas Tolimán	10	San Lucas Tolimán	6	Junio	2023-06-26T00:00:00	2024-11-08T09:00:00	6	Velocidad del viento	1.6
132094	7	Sololá	713	San Lucas Tolimán	10	San Lucas Tolimán	6	Junio	2023-06-26T00:00:00	2024-11-08T09:00:00	7	Dirección del viento	1.61
132095	7	Sololá	713	San Lucas Tolimán	10	San Lucas Tolimán	6	Junio	2023-06-26T00:00:00	2024-11-08T09:00:00	1	Precipitación	0
132096	7	Sololá	713	San Lucas Tolimán	10	San Lucas Tolimán	6	Junio	2023-06-26T00:00:00	2024-11-08T09:00:00	8	Radiación solar	276
132097	7	Sololá	713	San Lucas Tolimán	10	San Lucas Tolimán	6	Junio	2023-06-26T00:00:00	2024-11-08T10:00:00	2	Temperatura media	23.9
132098	7	Sololá	713	San Lucas Tolimán	10	San Lucas Tolimán	6	Junio	2023-06-26T00:00:00	2024-11-08T10:00:00	4	Temperatura máxima	24.3
132099	7	Sololá	713	San Lucas Tolimán	10	San Lucas Tolimán	6	Junio	2023-06-26T00:00:00	2024-11-08T10:00:00	3	Temperatura mínima	21.6
132100	7	Sololá	713	San Lucas Tolimán	10	San Lucas Tolimán	6	Junio	2023-06-26T00:00:00	2024-11-08T10:00:00	5	Humedad	43
132101	7	Sololá	713	San Lucas Tolimán	10	San Lucas Tolimán	6	Junio	2023-06-26T00:00:00	2024-11-08T10:00:00	6	Velocidad del viento	3.2
132102	7	Sololá	713	San Lucas Tolimán	10	San Lucas Tolimán	6	Junio	2023-06-26T00:00:00	2024-11-08T10:00:00	7	Dirección del viento	3.22
132103	7	Sololá	713	San Lucas Tolimán	10	San Lucas Tolimán	6	Junio	2023-06-26T00:00:00	2024-11-08T10:00:00	1	Precipitación	0
132104	7	Sololá	713	San Lucas Tolimán	10	San Lucas Tolimán	6	Junio	2023-06-26T00:00:00	2024-11-08T10:00:00	8	Radiación solar	534
132105	7	Sololá	713	San Lucas Tolimán	10	San Lucas Tolimán	6	Junio	2023-06-26T00:00:00	2024-11-08T11:00:00	2	Temperatura media	24.4
132106	7	Sololá	713	San Lucas Tolimán	10	San Lucas Tolimán	6	Junio	2023-06-26T00:00:00	2024-11-08T11:00:00	4	Temperatura máxima	25.1
132107	7	Sololá	713	San Lucas Tolimán	10	San Lucas Tolimán	6	Junio	2023-06-26T00:00:00	2024-11-08T11:00:00	3	Temperatura mínima	23.8
132108	7	Sololá	713	San Lucas Tolimán	10	San Lucas Tolimán	6	Junio	2023-06-26T00:00:00	2024-11-08T11:00:00	5	Humedad	55
132109	7	Sololá	713	San Lucas Tolimán	10	San Lucas Tolimán	6	Junio	2023-06-26T00:00:00	2024-11-08T11:00:00	6	Velocidad del viento	6.4
132110	7	Sololá	713	San Lucas Tolimán	10	San Lucas Tolimán	6	Junio	2023-06-26T00:00:00	2024-11-08T11:00:00	7	Dirección del viento	6.44
132111	7	Sololá	713	San Lucas Tolimán	10	San Lucas Tolimán	6	Junio	2023-06-26T00:00:00	2024-11-08T11:00:00	1	Precipitación	0
132112	7	Sololá	713	San Lucas Tolimán	10	San Lucas Tolimán	6	Junio	2023-06-26T00:00:00	2024-11-08T11:00:00	8	Radiación solar	961
132113	7	Sololá	713	San Lucas Tolimán	10	San Lucas Tolimán	6	Junio	2023-06-26T00:00:00	2024-11-08T12:00:00	2	Temperatura media	23.9
132114	7	Sololá	713	San Lucas Tolimán	10	San Lucas Tolimán	6	Junio	2023-06-26T00:00:00	2024-11-08T12:00:00	4	Temperatura máxima	24.7
132115	7	Sololá	713	San Lucas Tolimán	10	San Lucas Tolimán	6	Junio	2023-06-26T00:00:00	2024-11-08T12:00:00	3	Temperatura mínima	23.4
132116	7	Sololá	713	San Lucas Tolimán	10	San Lucas Tolimán	6	Junio	2023-06-26T00:00:00	2024-11-08T12:00:00	5	Humedad	58
132117	7	Sololá	713	San Lucas Tolimán	10	San Lucas Tolimán	6	Junio	2023-06-26T00:00:00	2024-11-08T12:00:00	6	Velocidad del viento	8
132118	7	Sololá	713	San Lucas Tolimán	10	San Lucas Tolimán	6	Junio	2023-06-26T00:00:00	2024-11-08T12:00:00	7	Dirección del viento	8.05
132119	7	Sololá	713	San Lucas Tolimán	10	San Lucas Tolimán	6	Junio	2023-06-26T00:00:00	2024-11-08T12:00:00	1	Precipitación	0
132120	7	Sololá	713	San Lucas Tolimán	10	San Lucas Tolimán	6	Junio	2023-06-26T00:00:00	2024-11-08T12:00:00	8	Radiación solar	912
132121	7	Sololá	713	San Lucas Tolimán	10	San Lucas Tolimán	6	Junio	2023-06-26T00:00:00	2024-11-08T13:00:00	2	Temperatura media	24.1
132122	7	Sololá	713	San Lucas Tolimán	10	San Lucas Tolimán	6	Junio	2023-06-26T00:00:00	2024-11-08T13:00:00	4	Temperatura máxima	24.4
132123	7	Sololá	713	San Lucas Tolimán	10	San Lucas Tolimán	6	Junio	2023-06-26T00:00:00	2024-11-08T13:00:00	3	Temperatura mínima	22.8
132124	7	Sololá	713	San Lucas Tolimán	10	San Lucas Tolimán	6	Junio	2023-06-26T00:00:00	2024-11-08T13:00:00	5	Humedad	58
132125	7	Sololá	713	San Lucas Tolimán	10	San Lucas Tolimán	6	Junio	2023-06-26T00:00:00	2024-11-08T13:00:00	6	Velocidad del viento	11.3
132126	7	Sololá	713	San Lucas Tolimán	10	San Lucas Tolimán	6	Junio	2023-06-26T00:00:00	2024-11-08T13:00:00	7	Dirección del viento	11.27
132127	7	Sololá	713	San Lucas Tolimán	10	San Lucas Tolimán	6	Junio	2023-06-26T00:00:00	2024-11-08T13:00:00	1	Precipitación	0
132128	7	Sololá	713	San Lucas Tolimán	10	San Lucas Tolimán	6	Junio	2023-06-26T00:00:00	2024-11-08T13:00:00	8	Radiación solar	1125
132129	7	Sololá	713	San Lucas Tolimán	10	San Lucas Tolimán	6	Junio	2023-06-26T00:00:00	2024-11-08T14:00:00	2	Temperatura media	25.1
132130	7	Sololá	713	San Lucas Tolimán	10	San Lucas Tolimán	6	Junio	2023-06-26T00:00:00	2024-11-08T14:00:00	4	Temperatura máxima	25.1
132131	7	Sololá	713	San Lucas Tolimán	10	San Lucas Tolimán	6	Junio	2023-06-26T00:00:00	2024-11-08T14:00:00	3	Temperatura mínima	23.7
132132	7	Sololá	713	San Lucas Tolimán	10	San Lucas Tolimán	6	Junio	2023-06-26T00:00:00	2024-11-08T14:00:00	5	Humedad	53
132133	7	Sololá	713	San Lucas Tolimán	10	San Lucas Tolimán	6	Junio	2023-06-26T00:00:00	2024-11-08T14:00:00	6	Velocidad del viento	9.7
132134	7	Sololá	713	San Lucas Tolimán	10	San Lucas Tolimán	6	Junio	2023-06-26T00:00:00	2024-11-08T14:00:00	7	Dirección del viento	9.66
132135	7	Sololá	713	San Lucas Tolimán	10	San Lucas Tolimán	6	Junio	2023-06-26T00:00:00	2024-11-08T14:00:00	1	Precipitación	0
132136	7	Sololá	713	San Lucas Tolimán	10	San Lucas Tolimán	6	Junio	2023-06-26T00:00:00	2024-11-08T14:00:00	8	Radiación solar	1072
132137	7	Sololá	713	San Lucas Tolimán	10	San Lucas Tolimán	6	Junio	2023-06-26T00:00:00	2024-11-08T15:00:00	2	Temperatura media	22.8
132138	7	Sololá	713	San Lucas Tolimán	10	San Lucas Tolimán	6	Junio	2023-06-26T00:00:00	2024-11-08T15:00:00	4	Temperatura máxima	25.1
132139	7	Sololá	713	San Lucas Tolimán	10	San Lucas Tolimán	6	Junio	2023-06-26T00:00:00	2024-11-08T15:00:00	3	Temperatura mínima	22.6
132140	7	Sololá	713	San Lucas Tolimán	10	San Lucas Tolimán	6	Junio	2023-06-26T00:00:00	2024-11-08T15:00:00	5	Humedad	61
132141	7	Sololá	713	San Lucas Tolimán	10	San Lucas Tolimán	6	Junio	2023-06-26T00:00:00	2024-11-08T15:00:00	6	Velocidad del viento	9.7
132142	7	Sololá	713	San Lucas Tolimán	10	San Lucas Tolimán	6	Junio	2023-06-26T00:00:00	2024-11-08T15:00:00	7	Dirección del viento	9.66
132143	7	Sololá	713	San Lucas Tolimán	10	San Lucas Tolimán	6	Junio	2023-06-26T00:00:00	2024-11-08T15:00:00	1	Precipitación	0
132144	7	Sololá	713	San Lucas Tolimán	10	San Lucas Tolimán	6	Junio	2023-06-26T00:00:00	2024-11-08T15:00:00	8	Radiación solar	546
132145	7	Sololá	713	San Lucas Tolimán	10	San Lucas Tolimán	6	Junio	2023-06-26T00:00:00	2024-11-08T16:00:00	2	Temperatura media	23
132146	7	Sololá	713	San Lucas Tolimán	10	San Lucas Tolimán	6	Junio	2023-06-26T00:00:00	2024-11-08T16:00:00	4	Temperatura máxima	23.2
132147	7	Sololá	713	San Lucas Tolimán	10	San Lucas Tolimán	6	Junio	2023-06-26T00:00:00	2024-11-08T16:00:00	3	Temperatura mínima	22.2
132148	7	Sololá	713	San Lucas Tolimán	10	San Lucas Tolimán	6	Junio	2023-06-26T00:00:00	2024-11-08T16:00:00	5	Humedad	58
132149	7	Sololá	713	San Lucas Tolimán	10	San Lucas Tolimán	6	Junio	2023-06-26T00:00:00	2024-11-08T16:00:00	6	Velocidad del viento	11.3
132150	7	Sololá	713	San Lucas Tolimán	10	San Lucas Tolimán	6	Junio	2023-06-26T00:00:00	2024-11-08T16:00:00	7	Dirección del viento	11.27
132151	7	Sololá	713	San Lucas Tolimán	10	San Lucas Tolimán	6	Junio	2023-06-26T00:00:00	2024-11-08T16:00:00	1	Precipitación	0
132152	7	Sololá	713	San Lucas Tolimán	10	San Lucas Tolimán	6	Junio	2023-06-26T00:00:00	2024-11-08T16:00:00	8	Radiación solar	584
132153	7	Sololá	713	San Lucas Tolimán	10	San Lucas Tolimán	6	Junio	2023-06-26T00:00:00	2024-11-08T17:00:00	2	Temperatura media	21.9
132154	7	Sololá	713	San Lucas Tolimán	10	San Lucas Tolimán	6	Junio	2023-06-26T00:00:00	2024-11-08T17:00:00	4	Temperatura máxima	23.7
132155	7	Sololá	713	San Lucas Tolimán	10	San Lucas Tolimán	6	Junio	2023-06-26T00:00:00	2024-11-08T17:00:00	3	Temperatura mínima	21.9
132156	7	Sololá	713	San Lucas Tolimán	10	San Lucas Tolimán	6	Junio	2023-06-26T00:00:00	2024-11-08T17:00:00	5	Humedad	85
132157	7	Sololá	713	San Lucas Tolimán	10	San Lucas Tolimán	6	Junio	2023-06-26T00:00:00	2024-11-08T17:00:00	6	Velocidad del viento	11.3
132158	7	Sololá	713	San Lucas Tolimán	10	San Lucas Tolimán	6	Junio	2023-06-26T00:00:00	2024-11-08T17:00:00	7	Dirección del viento	11.27
132159	7	Sololá	713	San Lucas Tolimán	10	San Lucas Tolimán	6	Junio	2023-06-26T00:00:00	2024-11-08T17:00:00	1	Precipitación	0
132160	7	Sololá	713	San Lucas Tolimán	10	San Lucas Tolimán	6	Junio	2023-06-26T00:00:00	2024-11-08T17:00:00	8	Radiación solar	619
132161	7	Sololá	713	San Lucas Tolimán	10	San Lucas Tolimán	6	Junio	2023-06-26T00:00:00	2024-11-08T18:00:00	2	Temperatura media	20.8
132162	7	Sololá	713	San Lucas Tolimán	10	San Lucas Tolimán	6	Junio	2023-06-26T00:00:00	2024-11-08T18:00:00	4	Temperatura máxima	22.6
132163	7	Sololá	713	San Lucas Tolimán	10	San Lucas Tolimán	6	Junio	2023-06-26T00:00:00	2024-11-08T18:00:00	3	Temperatura mínima	20.8
132164	7	Sololá	713	San Lucas Tolimán	10	San Lucas Tolimán	6	Junio	2023-06-26T00:00:00	2024-11-08T18:00:00	5	Humedad	87
132165	7	Sololá	713	San Lucas Tolimán	10	San Lucas Tolimán	6	Junio	2023-06-26T00:00:00	2024-11-08T18:00:00	6	Velocidad del viento	11.3
132166	7	Sololá	713	San Lucas Tolimán	10	San Lucas Tolimán	6	Junio	2023-06-26T00:00:00	2024-11-08T18:00:00	7	Dirección del viento	11.27
132167	7	Sololá	713	San Lucas Tolimán	10	San Lucas Tolimán	6	Junio	2023-06-26T00:00:00	2024-11-08T18:00:00	1	Precipitación	0
132168	7	Sololá	713	San Lucas Tolimán	10	San Lucas Tolimán	6	Junio	2023-06-26T00:00:00	2024-11-08T18:00:00	8	Radiación solar	0
132169	7	Sololá	713	San Lucas Tolimán	10	San Lucas Tolimán	6	Junio	2023-06-26T00:00:00	2024-11-08T19:00:00	2	Temperatura media	20.1
132170	7	Sololá	713	San Lucas Tolimán	10	San Lucas Tolimán	6	Junio	2023-06-26T00:00:00	2024-11-08T19:00:00	4	Temperatura máxima	20.9
132171	7	Sololá	713	San Lucas Tolimán	10	San Lucas Tolimán	6	Junio	2023-06-26T00:00:00	2024-11-08T19:00:00	3	Temperatura mínima	20.1
132172	7	Sololá	713	San Lucas Tolimán	10	San Lucas Tolimán	6	Junio	2023-06-26T00:00:00	2024-11-08T19:00:00	5	Humedad	89
132173	7	Sololá	713	San Lucas Tolimán	10	San Lucas Tolimán	6	Junio	2023-06-26T00:00:00	2024-11-08T19:00:00	6	Velocidad del viento	8
132174	7	Sololá	713	San Lucas Tolimán	10	San Lucas Tolimán	6	Junio	2023-06-26T00:00:00	2024-11-08T19:00:00	7	Dirección del viento	8.05
132175	7	Sololá	713	San Lucas Tolimán	10	San Lucas Tolimán	6	Junio	2023-06-26T00:00:00	2024-11-08T19:00:00	1	Precipitación	0
132176	7	Sololá	713	San Lucas Tolimán	10	San Lucas Tolimán	6	Junio	2023-06-26T00:00:00	2024-11-08T19:00:00	8	Radiación solar	0
132177	7	Sololá	713	San Lucas Tolimán	10	San Lucas Tolimán	6	Junio	2023-06-26T00:00:00	2024-11-08T20:00:00	2	Temperatura media	19.4
132178	7	Sololá	713	San Lucas Tolimán	10	San Lucas Tolimán	6	Junio	2023-06-26T00:00:00	2024-11-08T20:00:00	4	Temperatura máxima	20.1
132179	7	Sololá	713	San Lucas Tolimán	10	San Lucas Tolimán	6	Junio	2023-06-26T00:00:00	2024-11-08T20:00:00	3	Temperatura mínima	19.4
132180	7	Sololá	713	San Lucas Tolimán	10	San Lucas Tolimán	6	Junio	2023-06-26T00:00:00	2024-11-08T20:00:00	5	Humedad	59
132181	7	Sololá	713	San Lucas Tolimán	10	San Lucas Tolimán	6	Junio	2023-06-26T00:00:00	2024-11-08T20:00:00	6	Velocidad del viento	4.8
132182	7	Sololá	713	San Lucas Tolimán	10	San Lucas Tolimán	6	Junio	2023-06-26T00:00:00	2024-11-08T20:00:00	7	Dirección del viento	4.83
132183	7	Sololá	713	San Lucas Tolimán	10	San Lucas Tolimán	6	Junio	2023-06-26T00:00:00	2024-11-08T20:00:00	1	Precipitación	0
132184	7	Sololá	713	San Lucas Tolimán	10	San Lucas Tolimán	6	Junio	2023-06-26T00:00:00	2024-11-08T20:00:00	8	Radiación solar	0
132185	7	Sololá	713	San Lucas Tolimán	10	San Lucas Tolimán	6	Junio	2023-06-26T00:00:00	2024-11-08T21:00:00	2	Temperatura media	18.8
132186	7	Sololá	713	San Lucas Tolimán	10	San Lucas Tolimán	6	Junio	2023-06-26T00:00:00	2024-11-08T21:00:00	4	Temperatura máxima	19.4
132187	7	Sololá	713	San Lucas Tolimán	10	San Lucas Tolimán	6	Junio	2023-06-26T00:00:00	2024-11-08T21:00:00	3	Temperatura mínima	18.8
132188	7	Sololá	713	San Lucas Tolimán	10	San Lucas Tolimán	6	Junio	2023-06-26T00:00:00	2024-11-08T21:00:00	5	Humedad	56
132189	7	Sololá	713	San Lucas Tolimán	10	San Lucas Tolimán	6	Junio	2023-06-26T00:00:00	2024-11-08T21:00:00	6	Velocidad del viento	4.8
132190	7	Sololá	713	San Lucas Tolimán	10	San Lucas Tolimán	6	Junio	2023-06-26T00:00:00	2024-11-08T21:00:00	7	Dirección del viento	4.83
132191	7	Sololá	713	San Lucas Tolimán	10	San Lucas Tolimán	6	Junio	2023-06-26T00:00:00	2024-11-08T21:00:00	1	Precipitación	0
132192	7	Sololá	713	San Lucas Tolimán	10	San Lucas Tolimán	6	Junio	2023-06-26T00:00:00	2024-11-08T21:00:00	8	Radiación solar	0
132193	7	Sololá	713	San Lucas Tolimán	10	San Lucas Tolimán	6	Junio	2023-06-26T00:00:00	2024-11-08T22:00:00	2	Temperatura media	19.3
132194	7	Sololá	713	San Lucas Tolimán	10	San Lucas Tolimán	6	Junio	2023-06-26T00:00:00	2024-11-08T22:00:00	4	Temperatura máxima	19.9
132195	7	Sololá	713	San Lucas Tolimán	10	San Lucas Tolimán	6	Junio	2023-06-26T00:00:00	2024-11-08T22:00:00	3	Temperatura mínima	18.8
132196	7	Sololá	713	San Lucas Tolimán	10	San Lucas Tolimán	6	Junio	2023-06-26T00:00:00	2024-11-08T22:00:00	5	Humedad	56
132197	7	Sololá	713	San Lucas Tolimán	10	San Lucas Tolimán	6	Junio	2023-06-26T00:00:00	2024-11-08T22:00:00	6	Velocidad del viento	3.2
132198	7	Sololá	713	San Lucas Tolimán	10	San Lucas Tolimán	6	Junio	2023-06-26T00:00:00	2024-11-08T22:00:00	7	Dirección del viento	3.22
132199	7	Sololá	713	San Lucas Tolimán	10	San Lucas Tolimán	6	Junio	2023-06-26T00:00:00	2024-11-08T22:00:00	1	Precipitación	0
132200	7	Sololá	713	San Lucas Tolimán	10	San Lucas Tolimán	6	Junio	2023-06-26T00:00:00	2024-11-08T22:00:00	8	Radiación solar	0
132201	7	Sololá	713	San Lucas Tolimán	10	San Lucas Tolimán	6	Junio	2023-06-26T00:00:00	2024-11-08T23:00:00	2	Temperatura media	19.7
132202	7	Sololá	713	San Lucas Tolimán	10	San Lucas Tolimán	6	Junio	2023-06-26T00:00:00	2024-11-08T23:00:00	4	Temperatura máxima	19.8
132203	7	Sololá	713	San Lucas Tolimán	10	San Lucas Tolimán	6	Junio	2023-06-26T00:00:00	2024-11-08T23:00:00	3	Temperatura mínima	18.7
132204	7	Sololá	713	San Lucas Tolimán	10	San Lucas Tolimán	6	Junio	2023-06-26T00:00:00	2024-11-08T23:00:00	5	Humedad	54
132205	7	Sololá	713	San Lucas Tolimán	10	San Lucas Tolimán	6	Junio	2023-06-26T00:00:00	2024-11-08T23:00:00	6	Velocidad del viento	3.2
132206	7	Sololá	713	San Lucas Tolimán	10	San Lucas Tolimán	6	Junio	2023-06-26T00:00:00	2024-11-08T23:00:00	7	Dirección del viento	3.22
132207	7	Sololá	713	San Lucas Tolimán	10	San Lucas Tolimán	6	Junio	2023-06-26T00:00:00	2024-11-08T23:00:00	1	Precipitación	0
132208	7	Sololá	713	San Lucas Tolimán	10	San Lucas Tolimán	6	Junio	2023-06-26T00:00:00	2024-11-08T23:00:00	8	Radiación solar	0
132209	7	Sololá	713	San Lucas Tolimán	10	San Lucas Tolimán	6	Junio	2023-06-27T00:00:00	2024-11-08T00:00:00	2	Temperatura media	20.5
132210	7	Sololá	713	San Lucas Tolimán	10	San Lucas Tolimán	6	Junio	2023-06-27T00:00:00	2024-11-08T00:00:00	4	Temperatura máxima	20.7
132211	7	Sololá	713	San Lucas Tolimán	10	San Lucas Tolimán	6	Junio	2023-06-27T00:00:00	2024-11-08T00:00:00	3	Temperatura mínima	19.8
132212	7	Sololá	713	San Lucas Tolimán	10	San Lucas Tolimán	6	Junio	2023-06-27T00:00:00	2024-11-08T00:00:00	5	Humedad	74
132213	7	Sololá	713	San Lucas Tolimán	10	San Lucas Tolimán	6	Junio	2023-06-27T00:00:00	2024-11-08T00:00:00	6	Velocidad del viento	4.8
132214	7	Sololá	713	San Lucas Tolimán	10	San Lucas Tolimán	6	Junio	2023-06-27T00:00:00	2024-11-08T00:00:00	7	Dirección del viento	4.83
132215	7	Sololá	713	San Lucas Tolimán	10	San Lucas Tolimán	6	Junio	2023-06-27T00:00:00	2024-11-08T00:00:00	1	Precipitación	0
132216	7	Sololá	713	San Lucas Tolimán	10	San Lucas Tolimán	6	Junio	2023-06-27T00:00:00	2024-11-08T00:00:00	8	Radiación solar	0
132217	7	Sololá	713	San Lucas Tolimán	10	San Lucas Tolimán	6	Junio	2023-06-27T00:00:00	2024-11-08T01:00:00	2	Temperatura media	17.9
132218	7	Sololá	713	San Lucas Tolimán	10	San Lucas Tolimán	6	Junio	2023-06-27T00:00:00	2024-11-08T01:00:00	4	Temperatura máxima	20.5
132219	7	Sololá	713	San Lucas Tolimán	10	San Lucas Tolimán	6	Junio	2023-06-27T00:00:00	2024-11-08T01:00:00	3	Temperatura mínima	17.9
132220	7	Sololá	713	San Lucas Tolimán	10	San Lucas Tolimán	6	Junio	2023-06-27T00:00:00	2024-11-08T01:00:00	5	Humedad	85
132221	7	Sololá	713	San Lucas Tolimán	10	San Lucas Tolimán	6	Junio	2023-06-27T00:00:00	2024-11-08T01:00:00	6	Velocidad del viento	1.6
132222	7	Sololá	713	San Lucas Tolimán	10	San Lucas Tolimán	6	Junio	2023-06-27T00:00:00	2024-11-08T01:00:00	7	Dirección del viento	1.61
132223	7	Sololá	713	San Lucas Tolimán	10	San Lucas Tolimán	6	Junio	2023-06-27T00:00:00	2024-11-08T01:00:00	1	Precipitación	0
132224	7	Sololá	713	San Lucas Tolimán	10	San Lucas Tolimán	6	Junio	2023-06-27T00:00:00	2024-11-08T01:00:00	8	Radiación solar	0
132225	7	Sololá	713	San Lucas Tolimán	10	San Lucas Tolimán	6	Junio	2023-06-27T00:00:00	2024-11-08T02:00:00	2	Temperatura media	18.2
132226	7	Sololá	713	San Lucas Tolimán	10	San Lucas Tolimán	6	Junio	2023-06-27T00:00:00	2024-11-08T02:00:00	4	Temperatura máxima	18.2
132227	7	Sololá	713	San Lucas Tolimán	10	San Lucas Tolimán	6	Junio	2023-06-27T00:00:00	2024-11-08T02:00:00	3	Temperatura mínima	17.8
132228	7	Sololá	713	San Lucas Tolimán	10	San Lucas Tolimán	6	Junio	2023-06-27T00:00:00	2024-11-08T02:00:00	5	Humedad	84
132229	7	Sololá	713	San Lucas Tolimán	10	San Lucas Tolimán	6	Junio	2023-06-27T00:00:00	2024-11-08T02:00:00	6	Velocidad del viento	1.6
132230	7	Sololá	713	San Lucas Tolimán	10	San Lucas Tolimán	6	Junio	2023-06-27T00:00:00	2024-11-08T02:00:00	7	Dirección del viento	1.61
132231	7	Sololá	713	San Lucas Tolimán	10	San Lucas Tolimán	6	Junio	2023-06-27T00:00:00	2024-11-08T02:00:00	1	Precipitación	0
132232	7	Sololá	713	San Lucas Tolimán	10	San Lucas Tolimán	6	Junio	2023-06-27T00:00:00	2024-11-08T02:00:00	8	Radiación solar	0
132233	7	Sololá	713	San Lucas Tolimán	10	San Lucas Tolimán	6	Junio	2023-06-27T00:00:00	2024-11-08T03:00:00	2	Temperatura media	17.3
132234	7	Sololá	713	San Lucas Tolimán	10	San Lucas Tolimán	6	Junio	2023-06-27T00:00:00	2024-11-08T03:00:00	4	Temperatura máxima	18.2
132235	7	Sololá	713	San Lucas Tolimán	10	San Lucas Tolimán	6	Junio	2023-06-27T00:00:00	2024-11-08T03:00:00	3	Temperatura mínima	17.2
132236	7	Sololá	713	San Lucas Tolimán	10	San Lucas Tolimán	6	Junio	2023-06-27T00:00:00	2024-11-08T03:00:00	5	Humedad	86
132237	7	Sololá	713	San Lucas Tolimán	10	San Lucas Tolimán	6	Junio	2023-06-27T00:00:00	2024-11-08T03:00:00	6	Velocidad del viento	1.6
132238	7	Sololá	713	San Lucas Tolimán	10	San Lucas Tolimán	6	Junio	2023-06-27T00:00:00	2024-11-08T03:00:00	7	Dirección del viento	1.61
132239	7	Sololá	713	San Lucas Tolimán	10	San Lucas Tolimán	6	Junio	2023-06-27T00:00:00	2024-11-08T03:00:00	1	Precipitación	0
132240	7	Sololá	713	San Lucas Tolimán	10	San Lucas Tolimán	6	Junio	2023-06-27T00:00:00	2024-11-08T03:00:00	8	Radiación solar	0
132241	7	Sololá	713	San Lucas Tolimán	10	San Lucas Tolimán	6	Junio	2023-06-27T00:00:00	2024-11-08T04:00:00	2	Temperatura media	17.1
132242	7	Sololá	713	San Lucas Tolimán	10	San Lucas Tolimán	6	Junio	2023-06-27T00:00:00	2024-11-08T04:00:00	4	Temperatura máxima	17.4
132243	7	Sololá	713	San Lucas Tolimán	10	San Lucas Tolimán	6	Junio	2023-06-27T00:00:00	2024-11-08T04:00:00	3	Temperatura mínima	17.1
132244	7	Sololá	713	San Lucas Tolimán	10	San Lucas Tolimán	6	Junio	2023-06-27T00:00:00	2024-11-08T04:00:00	5	Humedad	87
132245	7	Sololá	713	San Lucas Tolimán	10	San Lucas Tolimán	6	Junio	2023-06-27T00:00:00	2024-11-08T04:00:00	6	Velocidad del viento	0
132246	7	Sololá	713	San Lucas Tolimán	10	San Lucas Tolimán	6	Junio	2023-06-27T00:00:00	2024-11-08T04:00:00	7	Dirección del viento	0
132247	7	Sololá	713	San Lucas Tolimán	10	San Lucas Tolimán	6	Junio	2023-06-27T00:00:00	2024-11-08T04:00:00	1	Precipitación	0
132248	7	Sololá	713	San Lucas Tolimán	10	San Lucas Tolimán	6	Junio	2023-06-27T00:00:00	2024-11-08T04:00:00	8	Radiación solar	0
132249	7	Sololá	713	San Lucas Tolimán	10	San Lucas Tolimán	6	Junio	2023-06-27T00:00:00	2024-11-08T05:00:00	2	Temperatura media	17.9
132250	7	Sololá	713	San Lucas Tolimán	10	San Lucas Tolimán	6	Junio	2023-06-27T00:00:00	2024-11-08T05:00:00	4	Temperatura máxima	17.9
132251	7	Sololá	713	San Lucas Tolimán	10	San Lucas Tolimán	6	Junio	2023-06-27T00:00:00	2024-11-08T05:00:00	3	Temperatura mínima	16.9
132252	7	Sololá	713	San Lucas Tolimán	10	San Lucas Tolimán	6	Junio	2023-06-27T00:00:00	2024-11-08T05:00:00	5	Humedad	84
132253	7	Sololá	713	San Lucas Tolimán	10	San Lucas Tolimán	6	Junio	2023-06-27T00:00:00	2024-11-08T05:00:00	6	Velocidad del viento	1.6
132254	7	Sololá	713	San Lucas Tolimán	10	San Lucas Tolimán	6	Junio	2023-06-27T00:00:00	2024-11-08T05:00:00	7	Dirección del viento	1.61
132255	7	Sololá	713	San Lucas Tolimán	10	San Lucas Tolimán	6	Junio	2023-06-27T00:00:00	2024-11-08T05:00:00	1	Precipitación	0
132256	7	Sololá	713	San Lucas Tolimán	10	San Lucas Tolimán	6	Junio	2023-06-27T00:00:00	2024-11-08T05:00:00	8	Radiación solar	0
132257	7	Sololá	713	San Lucas Tolimán	10	San Lucas Tolimán	6	Junio	2023-06-27T00:00:00	2024-11-08T06:00:00	2	Temperatura media	17.7
132258	7	Sololá	713	San Lucas Tolimán	10	San Lucas Tolimán	6	Junio	2023-06-27T00:00:00	2024-11-08T06:00:00	4	Temperatura máxima	18
132259	7	Sololá	713	San Lucas Tolimán	10	San Lucas Tolimán	6	Junio	2023-06-27T00:00:00	2024-11-08T06:00:00	3	Temperatura mínima	17.5
132260	7	Sololá	713	San Lucas Tolimán	10	San Lucas Tolimán	6	Junio	2023-06-27T00:00:00	2024-11-08T06:00:00	5	Humedad	83
132261	7	Sololá	713	San Lucas Tolimán	10	San Lucas Tolimán	6	Junio	2023-06-27T00:00:00	2024-11-08T06:00:00	6	Velocidad del viento	1.6
132262	7	Sololá	713	San Lucas Tolimán	10	San Lucas Tolimán	6	Junio	2023-06-27T00:00:00	2024-11-08T06:00:00	7	Dirección del viento	1.61
132263	7	Sololá	713	San Lucas Tolimán	10	San Lucas Tolimán	6	Junio	2023-06-27T00:00:00	2024-11-08T06:00:00	1	Precipitación	0
132264	7	Sololá	713	San Lucas Tolimán	10	San Lucas Tolimán	6	Junio	2023-06-27T00:00:00	2024-11-08T06:00:00	8	Radiación solar	1
132265	7	Sololá	713	San Lucas Tolimán	10	San Lucas Tolimán	6	Junio	2023-06-27T00:00:00	2024-11-08T07:00:00	2	Temperatura media	20.9
132266	7	Sololá	713	San Lucas Tolimán	10	San Lucas Tolimán	6	Junio	2023-06-27T00:00:00	2024-11-08T07:00:00	4	Temperatura máxima	20.9
132267	7	Sololá	713	San Lucas Tolimán	10	San Lucas Tolimán	6	Junio	2023-06-27T00:00:00	2024-11-08T07:00:00	3	Temperatura mínima	17.7
132268	7	Sololá	713	San Lucas Tolimán	10	San Lucas Tolimán	6	Junio	2023-06-27T00:00:00	2024-11-08T07:00:00	5	Humedad	68
132269	7	Sololá	713	San Lucas Tolimán	10	San Lucas Tolimán	6	Junio	2023-06-27T00:00:00	2024-11-08T07:00:00	6	Velocidad del viento	4.8
132270	7	Sololá	713	San Lucas Tolimán	10	San Lucas Tolimán	6	Junio	2023-06-27T00:00:00	2024-11-08T07:00:00	7	Dirección del viento	4.83
132271	7	Sololá	713	San Lucas Tolimán	10	San Lucas Tolimán	6	Junio	2023-06-27T00:00:00	2024-11-08T07:00:00	1	Precipitación	0
132272	7	Sololá	713	San Lucas Tolimán	10	San Lucas Tolimán	6	Junio	2023-06-27T00:00:00	2024-11-08T07:00:00	8	Radiación solar	21
132273	7	Sololá	713	San Lucas Tolimán	10	San Lucas Tolimán	6	Junio	2023-06-27T00:00:00	2024-11-08T08:00:00	2	Temperatura media	23.2
132274	7	Sololá	713	San Lucas Tolimán	10	San Lucas Tolimán	6	Junio	2023-06-27T00:00:00	2024-11-08T08:00:00	4	Temperatura máxima	23.2
132275	7	Sololá	713	San Lucas Tolimán	10	San Lucas Tolimán	6	Junio	2023-06-27T00:00:00	2024-11-08T08:00:00	3	Temperatura mínima	20.9
132276	7	Sololá	713	San Lucas Tolimán	10	San Lucas Tolimán	6	Junio	2023-06-27T00:00:00	2024-11-08T08:00:00	5	Humedad	61
132277	7	Sololá	713	San Lucas Tolimán	10	San Lucas Tolimán	6	Junio	2023-06-27T00:00:00	2024-11-08T08:00:00	6	Velocidad del viento	1.6
132278	7	Sololá	713	San Lucas Tolimán	10	San Lucas Tolimán	6	Junio	2023-06-27T00:00:00	2024-11-08T08:00:00	7	Dirección del viento	1.61
132279	7	Sololá	713	San Lucas Tolimán	10	San Lucas Tolimán	6	Junio	2023-06-27T00:00:00	2024-11-08T08:00:00	1	Precipitación	0
132280	7	Sololá	713	San Lucas Tolimán	10	San Lucas Tolimán	6	Junio	2023-06-27T00:00:00	2024-11-08T08:00:00	8	Radiación solar	148
132281	7	Sololá	713	San Lucas Tolimán	10	San Lucas Tolimán	6	Junio	2023-06-27T00:00:00	2024-11-08T09:00:00	2	Temperatura media	22.8
132282	7	Sololá	713	San Lucas Tolimán	10	San Lucas Tolimán	6	Junio	2023-06-27T00:00:00	2024-11-08T09:00:00	4	Temperatura máxima	23.8
132283	7	Sololá	713	San Lucas Tolimán	10	San Lucas Tolimán	6	Junio	2023-06-27T00:00:00	2024-11-08T09:00:00	3	Temperatura mínima	22.8
132284	7	Sololá	713	San Lucas Tolimán	10	San Lucas Tolimán	6	Junio	2023-06-27T00:00:00	2024-11-08T09:00:00	5	Humedad	75
132285	7	Sololá	713	San Lucas Tolimán	10	San Lucas Tolimán	6	Junio	2023-06-27T00:00:00	2024-11-08T09:00:00	6	Velocidad del viento	6.4
132286	7	Sololá	713	San Lucas Tolimán	10	San Lucas Tolimán	6	Junio	2023-06-27T00:00:00	2024-11-08T09:00:00	7	Dirección del viento	6.44
132287	7	Sololá	713	San Lucas Tolimán	10	San Lucas Tolimán	6	Junio	2023-06-27T00:00:00	2024-11-08T09:00:00	1	Precipitación	0
132288	7	Sololá	713	San Lucas Tolimán	10	San Lucas Tolimán	6	Junio	2023-06-27T00:00:00	2024-11-08T09:00:00	8	Radiación solar	332
132289	7	Sololá	713	San Lucas Tolimán	10	San Lucas Tolimán	6	Junio	2023-06-27T00:00:00	2024-11-08T10:00:00	2	Temperatura media	22.9
132290	7	Sololá	713	San Lucas Tolimán	10	San Lucas Tolimán	6	Junio	2023-06-27T00:00:00	2024-11-08T10:00:00	4	Temperatura máxima	23.1
132291	7	Sololá	713	San Lucas Tolimán	10	San Lucas Tolimán	6	Junio	2023-06-27T00:00:00	2024-11-08T10:00:00	3	Temperatura mínima	21.6
132292	7	Sololá	713	San Lucas Tolimán	10	San Lucas Tolimán	6	Junio	2023-06-27T00:00:00	2024-11-08T10:00:00	5	Humedad	75
132293	7	Sololá	713	San Lucas Tolimán	10	San Lucas Tolimán	6	Junio	2023-06-27T00:00:00	2024-11-08T10:00:00	6	Velocidad del viento	11.3
132294	7	Sololá	713	San Lucas Tolimán	10	San Lucas Tolimán	6	Junio	2023-06-27T00:00:00	2024-11-08T10:00:00	7	Dirección del viento	11.27
132295	7	Sololá	713	San Lucas Tolimán	10	San Lucas Tolimán	6	Junio	2023-06-27T00:00:00	2024-11-08T10:00:00	1	Precipitación	0
132296	7	Sololá	713	San Lucas Tolimán	10	San Lucas Tolimán	6	Junio	2023-06-27T00:00:00	2024-11-08T10:00:00	8	Radiación solar	532
132297	7	Sololá	713	San Lucas Tolimán	10	San Lucas Tolimán	6	Junio	2023-06-27T00:00:00	2024-11-08T11:00:00	2	Temperatura media	20.4
132298	7	Sololá	713	San Lucas Tolimán	10	San Lucas Tolimán	6	Junio	2023-06-27T00:00:00	2024-11-08T11:00:00	4	Temperatura máxima	23.5
132299	7	Sololá	713	San Lucas Tolimán	10	San Lucas Tolimán	6	Junio	2023-06-27T00:00:00	2024-11-08T11:00:00	3	Temperatura mínima	20.4
132300	7	Sololá	713	San Lucas Tolimán	10	San Lucas Tolimán	6	Junio	2023-06-27T00:00:00	2024-11-08T11:00:00	5	Humedad	86
132301	7	Sololá	713	San Lucas Tolimán	10	San Lucas Tolimán	6	Junio	2023-06-27T00:00:00	2024-11-08T11:00:00	6	Velocidad del viento	9.7
132302	7	Sololá	713	San Lucas Tolimán	10	San Lucas Tolimán	6	Junio	2023-06-27T00:00:00	2024-11-08T11:00:00	7	Dirección del viento	9.66
132303	7	Sololá	713	San Lucas Tolimán	10	San Lucas Tolimán	6	Junio	2023-06-27T00:00:00	2024-11-08T11:00:00	1	Precipitación	0
132304	7	Sololá	713	San Lucas Tolimán	10	San Lucas Tolimán	6	Junio	2023-06-27T00:00:00	2024-11-08T11:00:00	8	Radiación solar	708
132305	7	Sololá	713	San Lucas Tolimán	10	San Lucas Tolimán	6	Junio	2023-06-27T00:00:00	2024-11-08T12:00:00	2	Temperatura media	21.7
132306	7	Sololá	713	San Lucas Tolimán	10	San Lucas Tolimán	6	Junio	2023-06-27T00:00:00	2024-11-08T12:00:00	4	Temperatura máxima	21.9
132307	7	Sololá	713	San Lucas Tolimán	10	San Lucas Tolimán	6	Junio	2023-06-27T00:00:00	2024-11-08T12:00:00	3	Temperatura mínima	20.2
132308	7	Sololá	713	San Lucas Tolimán	10	San Lucas Tolimán	6	Junio	2023-06-27T00:00:00	2024-11-08T12:00:00	5	Humedad	81
132309	7	Sololá	713	San Lucas Tolimán	10	San Lucas Tolimán	6	Junio	2023-06-27T00:00:00	2024-11-08T12:00:00	6	Velocidad del viento	8
132310	7	Sololá	713	San Lucas Tolimán	10	San Lucas Tolimán	6	Junio	2023-06-27T00:00:00	2024-11-08T12:00:00	7	Dirección del viento	8.05
132311	7	Sololá	713	San Lucas Tolimán	10	San Lucas Tolimán	6	Junio	2023-06-27T00:00:00	2024-11-08T12:00:00	1	Precipitación	0
132312	7	Sololá	713	San Lucas Tolimán	10	San Lucas Tolimán	6	Junio	2023-06-27T00:00:00	2024-11-08T12:00:00	8	Radiación solar	806
132313	7	Sololá	713	San Lucas Tolimán	10	San Lucas Tolimán	6	Junio	2023-06-27T00:00:00	2024-11-08T13:00:00	2	Temperatura media	21
132314	7	Sololá	713	San Lucas Tolimán	10	San Lucas Tolimán	6	Junio	2023-06-27T00:00:00	2024-11-08T13:00:00	4	Temperatura máxima	22.3
132315	7	Sololá	713	San Lucas Tolimán	10	San Lucas Tolimán	6	Junio	2023-06-27T00:00:00	2024-11-08T13:00:00	3	Temperatura mínima	21
132316	7	Sololá	713	San Lucas Tolimán	10	San Lucas Tolimán	6	Junio	2023-06-27T00:00:00	2024-11-08T13:00:00	5	Humedad	85
132317	7	Sololá	713	San Lucas Tolimán	10	San Lucas Tolimán	6	Junio	2023-06-27T00:00:00	2024-11-08T13:00:00	6	Velocidad del viento	8
132318	7	Sololá	713	San Lucas Tolimán	10	San Lucas Tolimán	6	Junio	2023-06-27T00:00:00	2024-11-08T13:00:00	7	Dirección del viento	8.05
132319	7	Sololá	713	San Lucas Tolimán	10	San Lucas Tolimán	6	Junio	2023-06-27T00:00:00	2024-11-08T13:00:00	1	Precipitación	0
132320	7	Sololá	713	San Lucas Tolimán	10	San Lucas Tolimán	6	Junio	2023-06-27T00:00:00	2024-11-08T13:00:00	8	Radiación solar	728
132321	7	Sololá	713	San Lucas Tolimán	10	San Lucas Tolimán	6	Junio	2023-06-27T00:00:00	2024-11-08T14:00:00	2	Temperatura media	19.9
132322	7	Sololá	713	San Lucas Tolimán	10	San Lucas Tolimán	6	Junio	2023-06-27T00:00:00	2024-11-08T14:00:00	4	Temperatura máxima	21.2
132323	7	Sololá	713	San Lucas Tolimán	10	San Lucas Tolimán	6	Junio	2023-06-27T00:00:00	2024-11-08T14:00:00	3	Temperatura mínima	19.9
132324	7	Sololá	713	San Lucas Tolimán	10	San Lucas Tolimán	6	Junio	2023-06-27T00:00:00	2024-11-08T14:00:00	5	Humedad	88
132325	7	Sololá	713	San Lucas Tolimán	10	San Lucas Tolimán	6	Junio	2023-06-27T00:00:00	2024-11-08T14:00:00	6	Velocidad del viento	9.7
132326	7	Sololá	713	San Lucas Tolimán	10	San Lucas Tolimán	6	Junio	2023-06-27T00:00:00	2024-11-08T14:00:00	7	Dirección del viento	9.66
132327	7	Sololá	713	San Lucas Tolimán	10	San Lucas Tolimán	6	Junio	2023-06-27T00:00:00	2024-11-08T14:00:00	1	Precipitación	0
132328	7	Sololá	713	San Lucas Tolimán	10	San Lucas Tolimán	6	Junio	2023-06-27T00:00:00	2024-11-08T14:00:00	8	Radiación solar	247
132329	7	Sololá	713	San Lucas Tolimán	10	San Lucas Tolimán	6	Junio	2023-06-27T00:00:00	2024-11-08T15:00:00	2	Temperatura media	18
132330	7	Sololá	713	San Lucas Tolimán	10	San Lucas Tolimán	6	Junio	2023-06-27T00:00:00	2024-11-08T15:00:00	4	Temperatura máxima	20.4
132331	7	Sololá	713	San Lucas Tolimán	10	San Lucas Tolimán	6	Junio	2023-06-27T00:00:00	2024-11-08T15:00:00	3	Temperatura mínima	17.9
132332	7	Sololá	713	San Lucas Tolimán	10	San Lucas Tolimán	6	Junio	2023-06-27T00:00:00	2024-11-08T15:00:00	5	Humedad	68
132333	7	Sololá	713	San Lucas Tolimán	10	San Lucas Tolimán	6	Junio	2023-06-27T00:00:00	2024-11-08T15:00:00	6	Velocidad del viento	12.9
132334	7	Sololá	713	San Lucas Tolimán	10	San Lucas Tolimán	6	Junio	2023-06-27T00:00:00	2024-11-08T15:00:00	7	Dirección del viento	12.87
132335	7	Sololá	713	San Lucas Tolimán	10	San Lucas Tolimán	6	Junio	2023-06-27T00:00:00	2024-11-08T15:00:00	1	Precipitación	0
132336	7	Sololá	713	San Lucas Tolimán	10	San Lucas Tolimán	6	Junio	2023-06-27T00:00:00	2024-11-08T15:00:00	8	Radiación solar	84
132337	7	Sololá	713	San Lucas Tolimán	10	San Lucas Tolimán	6	Junio	2023-06-27T00:00:00	2024-11-08T16:00:00	2	Temperatura media	17.9
132338	7	Sololá	713	San Lucas Tolimán	10	San Lucas Tolimán	6	Junio	2023-06-27T00:00:00	2024-11-08T16:00:00	4	Temperatura máxima	18.1
132339	7	Sololá	713	San Lucas Tolimán	10	San Lucas Tolimán	6	Junio	2023-06-27T00:00:00	2024-11-08T16:00:00	3	Temperatura mínima	17.7
132340	7	Sololá	713	San Lucas Tolimán	10	San Lucas Tolimán	6	Junio	2023-06-27T00:00:00	2024-11-08T16:00:00	5	Humedad	69
132341	7	Sololá	713	San Lucas Tolimán	10	San Lucas Tolimán	6	Junio	2023-06-27T00:00:00	2024-11-08T16:00:00	6	Velocidad del viento	11.3
132342	7	Sololá	713	San Lucas Tolimán	10	San Lucas Tolimán	6	Junio	2023-06-27T00:00:00	2024-11-08T16:00:00	7	Dirección del viento	11.27
132343	7	Sololá	713	San Lucas Tolimán	10	San Lucas Tolimán	6	Junio	2023-06-27T00:00:00	2024-11-08T16:00:00	1	Precipitación	0
132344	7	Sololá	713	San Lucas Tolimán	10	San Lucas Tolimán	6	Junio	2023-06-27T00:00:00	2024-11-08T16:00:00	8	Radiación solar	53
132345	7	Sololá	713	San Lucas Tolimán	10	San Lucas Tolimán	6	Junio	2023-06-27T00:00:00	2024-11-08T17:00:00	2	Temperatura media	17.7
132346	7	Sololá	713	San Lucas Tolimán	10	San Lucas Tolimán	6	Junio	2023-06-27T00:00:00	2024-11-08T17:00:00	4	Temperatura máxima	17.9
132347	7	Sololá	713	San Lucas Tolimán	10	San Lucas Tolimán	6	Junio	2023-06-27T00:00:00	2024-11-08T17:00:00	3	Temperatura mínima	17.7
132348	7	Sololá	713	San Lucas Tolimán	10	San Lucas Tolimán	6	Junio	2023-06-27T00:00:00	2024-11-08T17:00:00	5	Humedad	69
132349	7	Sololá	713	San Lucas Tolimán	10	San Lucas Tolimán	6	Junio	2023-06-27T00:00:00	2024-11-08T17:00:00	6	Velocidad del viento	9.7
132350	7	Sololá	713	San Lucas Tolimán	10	San Lucas Tolimán	6	Junio	2023-06-27T00:00:00	2024-11-08T17:00:00	7	Dirección del viento	9.66
132351	7	Sololá	713	San Lucas Tolimán	10	San Lucas Tolimán	6	Junio	2023-06-27T00:00:00	2024-11-08T17:00:00	1	Precipitación	0.2
132352	7	Sololá	713	San Lucas Tolimán	10	San Lucas Tolimán	6	Junio	2023-06-27T00:00:00	2024-11-08T17:00:00	8	Radiación solar	21
132353	7	Sololá	713	San Lucas Tolimán	10	San Lucas Tolimán	6	Junio	2023-06-27T00:00:00	2024-11-08T18:00:00	2	Temperatura media	17.8
132354	7	Sololá	713	San Lucas Tolimán	10	San Lucas Tolimán	6	Junio	2023-06-27T00:00:00	2024-11-08T18:00:00	4	Temperatura máxima	17.8
132355	7	Sololá	713	San Lucas Tolimán	10	San Lucas Tolimán	6	Junio	2023-06-27T00:00:00	2024-11-08T18:00:00	3	Temperatura mínima	17.6
132356	7	Sololá	713	San Lucas Tolimán	10	San Lucas Tolimán	6	Junio	2023-06-27T00:00:00	2024-11-08T18:00:00	5	Humedad	69
132357	7	Sololá	713	San Lucas Tolimán	10	San Lucas Tolimán	6	Junio	2023-06-27T00:00:00	2024-11-08T18:00:00	6	Velocidad del viento	6.4
132358	7	Sololá	713	San Lucas Tolimán	10	San Lucas Tolimán	6	Junio	2023-06-27T00:00:00	2024-11-08T18:00:00	7	Dirección del viento	6.44
132359	7	Sololá	713	San Lucas Tolimán	10	San Lucas Tolimán	6	Junio	2023-06-27T00:00:00	2024-11-08T18:00:00	1	Precipitación	0.2
132360	7	Sololá	713	San Lucas Tolimán	10	San Lucas Tolimán	6	Junio	2023-06-27T00:00:00	2024-11-08T18:00:00	8	Radiación solar	10
132361	7	Sololá	713	San Lucas Tolimán	10	San Lucas Tolimán	6	Junio	2023-06-27T00:00:00	2024-11-08T19:00:00	2	Temperatura media	17.8
132362	7	Sololá	713	San Lucas Tolimán	10	San Lucas Tolimán	6	Junio	2023-06-27T00:00:00	2024-11-08T19:00:00	4	Temperatura máxima	17.8
132363	7	Sololá	713	San Lucas Tolimán	10	San Lucas Tolimán	6	Junio	2023-06-27T00:00:00	2024-11-08T19:00:00	3	Temperatura mínima	17.6
132364	7	Sololá	713	San Lucas Tolimán	10	San Lucas Tolimán	6	Junio	2023-06-27T00:00:00	2024-11-08T19:00:00	5	Humedad	66
132365	7	Sololá	713	San Lucas Tolimán	10	San Lucas Tolimán	6	Junio	2023-06-27T00:00:00	2024-11-08T19:00:00	6	Velocidad del viento	8
132366	7	Sololá	713	San Lucas Tolimán	10	San Lucas Tolimán	6	Junio	2023-06-27T00:00:00	2024-11-08T19:00:00	7	Dirección del viento	8.05
132367	7	Sololá	713	San Lucas Tolimán	10	San Lucas Tolimán	6	Junio	2023-06-27T00:00:00	2024-11-08T19:00:00	1	Precipitación	1.4
132368	7	Sololá	713	San Lucas Tolimán	10	San Lucas Tolimán	6	Junio	2023-06-27T00:00:00	2024-11-08T19:00:00	8	Radiación solar	0
132369	7	Sololá	713	San Lucas Tolimán	10	San Lucas Tolimán	6	Junio	2023-06-27T00:00:00	2024-11-08T20:00:00	2	Temperatura media	17.8
132370	7	Sololá	713	San Lucas Tolimán	10	San Lucas Tolimán	6	Junio	2023-06-27T00:00:00	2024-11-08T20:00:00	4	Temperatura máxima	18.1
132371	7	Sololá	713	San Lucas Tolimán	10	San Lucas Tolimán	6	Junio	2023-06-27T00:00:00	2024-11-08T20:00:00	3	Temperatura mínima	17.8
132372	7	Sololá	713	San Lucas Tolimán	10	San Lucas Tolimán	6	Junio	2023-06-27T00:00:00	2024-11-08T20:00:00	5	Humedad	68
132373	7	Sololá	713	San Lucas Tolimán	10	San Lucas Tolimán	6	Junio	2023-06-27T00:00:00	2024-11-08T20:00:00	6	Velocidad del viento	6.4
132374	7	Sololá	713	San Lucas Tolimán	10	San Lucas Tolimán	6	Junio	2023-06-27T00:00:00	2024-11-08T20:00:00	7	Dirección del viento	6.44
132375	7	Sololá	713	San Lucas Tolimán	10	San Lucas Tolimán	6	Junio	2023-06-27T00:00:00	2024-11-08T20:00:00	1	Precipitación	0.6
132376	7	Sololá	713	San Lucas Tolimán	10	San Lucas Tolimán	6	Junio	2023-06-27T00:00:00	2024-11-08T20:00:00	8	Radiación solar	0
132377	7	Sololá	713	San Lucas Tolimán	10	San Lucas Tolimán	6	Junio	2023-06-27T00:00:00	2024-11-08T21:00:00	2	Temperatura media	17.8
132378	7	Sololá	713	San Lucas Tolimán	10	San Lucas Tolimán	6	Junio	2023-06-27T00:00:00	2024-11-08T21:00:00	4	Temperatura máxima	17.9
132379	7	Sololá	713	San Lucas Tolimán	10	San Lucas Tolimán	6	Junio	2023-06-27T00:00:00	2024-11-08T21:00:00	3	Temperatura mínima	17.8
132380	7	Sololá	713	San Lucas Tolimán	10	San Lucas Tolimán	6	Junio	2023-06-27T00:00:00	2024-11-08T21:00:00	5	Humedad	68
132381	7	Sololá	713	San Lucas Tolimán	10	San Lucas Tolimán	6	Junio	2023-06-27T00:00:00	2024-11-08T21:00:00	6	Velocidad del viento	1.6
132382	7	Sololá	713	San Lucas Tolimán	10	San Lucas Tolimán	6	Junio	2023-06-27T00:00:00	2024-11-08T21:00:00	7	Dirección del viento	1.61
132383	7	Sololá	713	San Lucas Tolimán	10	San Lucas Tolimán	6	Junio	2023-06-27T00:00:00	2024-11-08T21:00:00	1	Precipitación	0
132384	7	Sololá	713	San Lucas Tolimán	10	San Lucas Tolimán	6	Junio	2023-06-27T00:00:00	2024-11-08T21:00:00	8	Radiación solar	0
132385	7	Sololá	713	San Lucas Tolimán	10	San Lucas Tolimán	6	Junio	2023-06-27T00:00:00	2024-11-08T22:00:00	2	Temperatura media	17.7
132386	7	Sololá	713	San Lucas Tolimán	10	San Lucas Tolimán	6	Junio	2023-06-27T00:00:00	2024-11-08T22:00:00	4	Temperatura máxima	17.8
132387	7	Sololá	713	San Lucas Tolimán	10	San Lucas Tolimán	6	Junio	2023-06-27T00:00:00	2024-11-08T22:00:00	3	Temperatura mínima	17.6
132388	7	Sololá	713	San Lucas Tolimán	10	San Lucas Tolimán	6	Junio	2023-06-27T00:00:00	2024-11-08T22:00:00	5	Humedad	68
132389	7	Sololá	713	San Lucas Tolimán	10	San Lucas Tolimán	6	Junio	2023-06-27T00:00:00	2024-11-08T22:00:00	6	Velocidad del viento	0
132390	7	Sololá	713	San Lucas Tolimán	10	San Lucas Tolimán	6	Junio	2023-06-27T00:00:00	2024-11-08T22:00:00	7	Dirección del viento	0
132391	7	Sololá	713	San Lucas Tolimán	10	San Lucas Tolimán	6	Junio	2023-06-27T00:00:00	2024-11-08T22:00:00	1	Precipitación	0
132392	7	Sololá	713	San Lucas Tolimán	10	San Lucas Tolimán	6	Junio	2023-06-27T00:00:00	2024-11-08T22:00:00	8	Radiación solar	0
132393	7	Sololá	713	San Lucas Tolimán	10	San Lucas Tolimán	6	Junio	2023-06-27T00:00:00	2024-11-08T23:00:00	2	Temperatura media	17.6
132394	7	Sololá	713	San Lucas Tolimán	10	San Lucas Tolimán	6	Junio	2023-06-27T00:00:00	2024-11-08T23:00:00	4	Temperatura máxima	17.7
132395	7	Sololá	713	San Lucas Tolimán	10	San Lucas Tolimán	6	Junio	2023-06-27T00:00:00	2024-11-08T23:00:00	3	Temperatura mínima	17.4
132396	7	Sololá	713	San Lucas Tolimán	10	San Lucas Tolimán	6	Junio	2023-06-27T00:00:00	2024-11-08T23:00:00	5	Humedad	68
132397	7	Sololá	713	San Lucas Tolimán	10	San Lucas Tolimán	6	Junio	2023-06-27T00:00:00	2024-11-08T23:00:00	6	Velocidad del viento	0
132398	7	Sololá	713	San Lucas Tolimán	10	San Lucas Tolimán	6	Junio	2023-06-27T00:00:00	2024-11-08T23:00:00	7	Dirección del viento	0
132399	7	Sololá	713	San Lucas Tolimán	10	San Lucas Tolimán	6	Junio	2023-06-27T00:00:00	2024-11-08T23:00:00	1	Precipitación	0
132400	7	Sololá	713	San Lucas Tolimán	10	San Lucas Tolimán	6	Junio	2023-06-27T00:00:00	2024-11-08T23:00:00	8	Radiación solar	0
132401	7	Sololá	713	San Lucas Tolimán	10	San Lucas Tolimán	6	Junio	2023-06-28T00:00:00	2024-11-08T00:00:00	2	Temperatura media	17.2
132402	7	Sololá	713	San Lucas Tolimán	10	San Lucas Tolimán	6	Junio	2023-06-28T00:00:00	2024-11-08T00:00:00	4	Temperatura máxima	17.7
132403	7	Sololá	713	San Lucas Tolimán	10	San Lucas Tolimán	6	Junio	2023-06-28T00:00:00	2024-11-08T00:00:00	3	Temperatura mínima	17.2
132404	7	Sololá	713	San Lucas Tolimán	10	San Lucas Tolimán	6	Junio	2023-06-28T00:00:00	2024-11-08T00:00:00	5	Humedad	68
132405	7	Sololá	713	San Lucas Tolimán	10	San Lucas Tolimán	6	Junio	2023-06-28T00:00:00	2024-11-08T00:00:00	6	Velocidad del viento	1.6
132406	7	Sololá	713	San Lucas Tolimán	10	San Lucas Tolimán	6	Junio	2023-06-28T00:00:00	2024-11-08T00:00:00	7	Dirección del viento	1.61
132407	7	Sololá	713	San Lucas Tolimán	10	San Lucas Tolimán	6	Junio	2023-06-28T00:00:00	2024-11-08T00:00:00	1	Precipitación	0
132408	7	Sololá	713	San Lucas Tolimán	10	San Lucas Tolimán	6	Junio	2023-06-28T00:00:00	2024-11-08T00:00:00	8	Radiación solar	0
132409	7	Sololá	713	San Lucas Tolimán	10	San Lucas Tolimán	6	Junio	2023-06-28T00:00:00	2024-11-08T01:00:00	2	Temperatura media	17.6
132410	7	Sololá	713	San Lucas Tolimán	10	San Lucas Tolimán	6	Junio	2023-06-28T00:00:00	2024-11-08T01:00:00	4	Temperatura máxima	17.6
132411	7	Sololá	713	San Lucas Tolimán	10	San Lucas Tolimán	6	Junio	2023-06-28T00:00:00	2024-11-08T01:00:00	3	Temperatura mínima	17.1
132412	7	Sololá	713	San Lucas Tolimán	10	San Lucas Tolimán	6	Junio	2023-06-28T00:00:00	2024-11-08T01:00:00	5	Humedad	68
132413	7	Sololá	713	San Lucas Tolimán	10	San Lucas Tolimán	6	Junio	2023-06-28T00:00:00	2024-11-08T01:00:00	6	Velocidad del viento	3.2
132414	7	Sololá	713	San Lucas Tolimán	10	San Lucas Tolimán	6	Junio	2023-06-28T00:00:00	2024-11-08T01:00:00	7	Dirección del viento	3.22
132415	7	Sololá	713	San Lucas Tolimán	10	San Lucas Tolimán	6	Junio	2023-06-28T00:00:00	2024-11-08T01:00:00	1	Precipitación	0.2
132416	7	Sololá	713	San Lucas Tolimán	10	San Lucas Tolimán	6	Junio	2023-06-28T00:00:00	2024-11-08T01:00:00	8	Radiación solar	0
132417	7	Sololá	713	San Lucas Tolimán	10	San Lucas Tolimán	6	Junio	2023-06-28T00:00:00	2024-11-08T02:00:00	2	Temperatura media	17.3
132418	7	Sololá	713	San Lucas Tolimán	10	San Lucas Tolimán	6	Junio	2023-06-28T00:00:00	2024-11-08T02:00:00	4	Temperatura máxima	17.6
132419	7	Sololá	713	San Lucas Tolimán	10	San Lucas Tolimán	6	Junio	2023-06-28T00:00:00	2024-11-08T02:00:00	3	Temperatura mínima	17.3
132420	7	Sololá	713	San Lucas Tolimán	10	San Lucas Tolimán	6	Junio	2023-06-28T00:00:00	2024-11-08T02:00:00	5	Humedad	68
132421	7	Sololá	713	San Lucas Tolimán	10	San Lucas Tolimán	6	Junio	2023-06-28T00:00:00	2024-11-08T02:00:00	6	Velocidad del viento	3.2
132422	7	Sololá	713	San Lucas Tolimán	10	San Lucas Tolimán	6	Junio	2023-06-28T00:00:00	2024-11-08T02:00:00	7	Dirección del viento	3.22
132423	7	Sololá	713	San Lucas Tolimán	10	San Lucas Tolimán	6	Junio	2023-06-28T00:00:00	2024-11-08T02:00:00	1	Precipitación	0.2
132424	7	Sololá	713	San Lucas Tolimán	10	San Lucas Tolimán	6	Junio	2023-06-28T00:00:00	2024-11-08T02:00:00	8	Radiación solar	0
132425	7	Sololá	713	San Lucas Tolimán	10	San Lucas Tolimán	6	Junio	2023-06-28T00:00:00	2024-11-08T03:00:00	2	Temperatura media	16.9
132426	7	Sololá	713	San Lucas Tolimán	10	San Lucas Tolimán	6	Junio	2023-06-28T00:00:00	2024-11-08T03:00:00	4	Temperatura máxima	17.4
132427	7	Sololá	713	San Lucas Tolimán	10	San Lucas Tolimán	6	Junio	2023-06-28T00:00:00	2024-11-08T03:00:00	3	Temperatura mínima	16.9
132428	7	Sololá	713	San Lucas Tolimán	10	San Lucas Tolimán	6	Junio	2023-06-28T00:00:00	2024-11-08T03:00:00	5	Humedad	68
132429	7	Sololá	713	San Lucas Tolimán	10	San Lucas Tolimán	6	Junio	2023-06-28T00:00:00	2024-11-08T03:00:00	6	Velocidad del viento	1.6
132430	7	Sololá	713	San Lucas Tolimán	10	San Lucas Tolimán	6	Junio	2023-06-28T00:00:00	2024-11-08T03:00:00	7	Dirección del viento	1.61
132431	7	Sololá	713	San Lucas Tolimán	10	San Lucas Tolimán	6	Junio	2023-06-28T00:00:00	2024-11-08T03:00:00	1	Precipitación	0.4
132432	7	Sololá	713	San Lucas Tolimán	10	San Lucas Tolimán	6	Junio	2023-06-28T00:00:00	2024-11-08T03:00:00	8	Radiación solar	0
132433	7	Sololá	713	San Lucas Tolimán	10	San Lucas Tolimán	6	Junio	2023-06-28T00:00:00	2024-11-08T04:00:00	2	Temperatura media	17.1
132434	7	Sololá	713	San Lucas Tolimán	10	San Lucas Tolimán	6	Junio	2023-06-28T00:00:00	2024-11-08T04:00:00	4	Temperatura máxima	17.1
132435	7	Sololá	713	San Lucas Tolimán	10	San Lucas Tolimán	6	Junio	2023-06-28T00:00:00	2024-11-08T04:00:00	3	Temperatura mínima	16.8
132436	7	Sololá	713	San Lucas Tolimán	10	San Lucas Tolimán	6	Junio	2023-06-28T00:00:00	2024-11-08T04:00:00	5	Humedad	68
132437	7	Sololá	713	San Lucas Tolimán	10	San Lucas Tolimán	6	Junio	2023-06-28T00:00:00	2024-11-08T04:00:00	6	Velocidad del viento	0
132438	7	Sololá	713	San Lucas Tolimán	10	San Lucas Tolimán	6	Junio	2023-06-28T00:00:00	2024-11-08T04:00:00	7	Dirección del viento	0
132439	7	Sololá	713	San Lucas Tolimán	10	San Lucas Tolimán	6	Junio	2023-06-28T00:00:00	2024-11-08T04:00:00	1	Precipitación	0.4
132440	7	Sololá	713	San Lucas Tolimán	10	San Lucas Tolimán	6	Junio	2023-06-28T00:00:00	2024-11-08T04:00:00	8	Radiación solar	0
132441	7	Sololá	713	San Lucas Tolimán	10	San Lucas Tolimán	6	Junio	2023-06-28T00:00:00	2024-11-08T05:00:00	2	Temperatura media	16.9
132442	7	Sololá	713	San Lucas Tolimán	10	San Lucas Tolimán	6	Junio	2023-06-28T00:00:00	2024-11-08T05:00:00	4	Temperatura máxima	17.1
132443	7	Sololá	713	San Lucas Tolimán	10	San Lucas Tolimán	6	Junio	2023-06-28T00:00:00	2024-11-08T05:00:00	3	Temperatura mínima	16.9
132444	7	Sololá	713	San Lucas Tolimán	10	San Lucas Tolimán	6	Junio	2023-06-28T00:00:00	2024-11-08T05:00:00	5	Humedad	69
132445	7	Sololá	713	San Lucas Tolimán	10	San Lucas Tolimán	6	Junio	2023-06-28T00:00:00	2024-11-08T05:00:00	6	Velocidad del viento	0
132446	7	Sololá	713	San Lucas Tolimán	10	San Lucas Tolimán	6	Junio	2023-06-28T00:00:00	2024-11-08T05:00:00	7	Dirección del viento	0
132447	7	Sololá	713	San Lucas Tolimán	10	San Lucas Tolimán	6	Junio	2023-06-28T00:00:00	2024-11-08T05:00:00	1	Precipitación	0
132448	7	Sololá	713	San Lucas Tolimán	10	San Lucas Tolimán	6	Junio	2023-06-28T00:00:00	2024-11-08T05:00:00	8	Radiación solar	0
132449	7	Sololá	713	San Lucas Tolimán	10	San Lucas Tolimán	6	Junio	2023-06-28T00:00:00	2024-11-08T06:00:00	2	Temperatura media	16.9
132450	7	Sololá	713	San Lucas Tolimán	10	San Lucas Tolimán	6	Junio	2023-06-28T00:00:00	2024-11-08T06:00:00	4	Temperatura máxima	16.9
132451	7	Sololá	713	San Lucas Tolimán	10	San Lucas Tolimán	6	Junio	2023-06-28T00:00:00	2024-11-08T06:00:00	3	Temperatura mínima	16.7
132452	7	Sololá	713	San Lucas Tolimán	10	San Lucas Tolimán	6	Junio	2023-06-28T00:00:00	2024-11-08T06:00:00	5	Humedad	68
132453	7	Sololá	713	San Lucas Tolimán	10	San Lucas Tolimán	6	Junio	2023-06-28T00:00:00	2024-11-08T06:00:00	6	Velocidad del viento	1.6
132454	7	Sololá	713	San Lucas Tolimán	10	San Lucas Tolimán	6	Junio	2023-06-28T00:00:00	2024-11-08T06:00:00	7	Dirección del viento	1.61
132455	7	Sololá	713	San Lucas Tolimán	10	San Lucas Tolimán	6	Junio	2023-06-28T00:00:00	2024-11-08T06:00:00	1	Precipitación	0
132456	7	Sololá	713	San Lucas Tolimán	10	San Lucas Tolimán	6	Junio	2023-06-28T00:00:00	2024-11-08T06:00:00	8	Radiación solar	3
132457	7	Sololá	713	San Lucas Tolimán	10	San Lucas Tolimán	6	Junio	2023-06-28T00:00:00	2024-11-08T07:00:00	2	Temperatura media	17.8
132458	7	Sololá	713	San Lucas Tolimán	10	San Lucas Tolimán	6	Junio	2023-06-28T00:00:00	2024-11-08T07:00:00	4	Temperatura máxima	17.8
132459	7	Sololá	713	San Lucas Tolimán	10	San Lucas Tolimán	6	Junio	2023-06-28T00:00:00	2024-11-08T07:00:00	3	Temperatura mínima	16.9
132460	7	Sololá	713	San Lucas Tolimán	10	San Lucas Tolimán	6	Junio	2023-06-28T00:00:00	2024-11-08T07:00:00	5	Humedad	68
132461	7	Sololá	713	San Lucas Tolimán	10	San Lucas Tolimán	6	Junio	2023-06-28T00:00:00	2024-11-08T07:00:00	6	Velocidad del viento	1.6
132462	7	Sololá	713	San Lucas Tolimán	10	San Lucas Tolimán	6	Junio	2023-06-28T00:00:00	2024-11-08T07:00:00	7	Dirección del viento	1.61
132463	7	Sololá	713	San Lucas Tolimán	10	San Lucas Tolimán	6	Junio	2023-06-28T00:00:00	2024-11-08T07:00:00	1	Precipitación	0.2
132464	7	Sololá	713	San Lucas Tolimán	10	San Lucas Tolimán	6	Junio	2023-06-28T00:00:00	2024-11-08T07:00:00	8	Radiación solar	58
132465	7	Sololá	713	San Lucas Tolimán	10	San Lucas Tolimán	6	Junio	2023-06-28T00:00:00	2024-11-08T08:00:00	2	Temperatura media	19.2
132466	7	Sololá	713	San Lucas Tolimán	10	San Lucas Tolimán	6	Junio	2023-06-28T00:00:00	2024-11-08T08:00:00	4	Temperatura máxima	19.2
132467	7	Sololá	713	San Lucas Tolimán	10	San Lucas Tolimán	6	Junio	2023-06-28T00:00:00	2024-11-08T08:00:00	3	Temperatura mínima	17.8
132468	7	Sololá	713	San Lucas Tolimán	10	San Lucas Tolimán	6	Junio	2023-06-28T00:00:00	2024-11-08T08:00:00	5	Humedad	61
132469	7	Sololá	713	San Lucas Tolimán	10	San Lucas Tolimán	6	Junio	2023-06-28T00:00:00	2024-11-08T08:00:00	6	Velocidad del viento	3.2
132470	7	Sololá	713	San Lucas Tolimán	10	San Lucas Tolimán	6	Junio	2023-06-28T00:00:00	2024-11-08T08:00:00	7	Dirección del viento	3.22
132471	7	Sololá	713	San Lucas Tolimán	10	San Lucas Tolimán	6	Junio	2023-06-28T00:00:00	2024-11-08T08:00:00	1	Precipitación	0
132472	7	Sololá	713	San Lucas Tolimán	10	San Lucas Tolimán	6	Junio	2023-06-28T00:00:00	2024-11-08T08:00:00	8	Radiación solar	176
132473	7	Sololá	713	San Lucas Tolimán	10	San Lucas Tolimán	6	Junio	2023-06-28T00:00:00	2024-11-08T09:00:00	2	Temperatura media	20.1
132474	7	Sololá	713	San Lucas Tolimán	10	San Lucas Tolimán	6	Junio	2023-06-28T00:00:00	2024-11-08T09:00:00	4	Temperatura máxima	20.1
132475	7	Sololá	713	San Lucas Tolimán	10	San Lucas Tolimán	6	Junio	2023-06-28T00:00:00	2024-11-08T09:00:00	3	Temperatura mínima	19.2
132476	7	Sololá	713	San Lucas Tolimán	10	San Lucas Tolimán	6	Junio	2023-06-28T00:00:00	2024-11-08T09:00:00	5	Humedad	60
132477	7	Sololá	713	San Lucas Tolimán	10	San Lucas Tolimán	6	Junio	2023-06-28T00:00:00	2024-11-08T09:00:00	6	Velocidad del viento	3.2
132478	7	Sololá	713	San Lucas Tolimán	10	San Lucas Tolimán	6	Junio	2023-06-28T00:00:00	2024-11-08T09:00:00	7	Dirección del viento	3.22
132479	7	Sololá	713	San Lucas Tolimán	10	San Lucas Tolimán	6	Junio	2023-06-28T00:00:00	2024-11-08T09:00:00	1	Precipitación	0
132480	7	Sololá	713	San Lucas Tolimán	10	San Lucas Tolimán	6	Junio	2023-06-28T00:00:00	2024-11-08T09:00:00	8	Radiación solar	296
132481	7	Sololá	713	San Lucas Tolimán	10	San Lucas Tolimán	6	Junio	2023-06-28T00:00:00	2024-11-08T10:00:00	2	Temperatura media	21.4
132482	7	Sololá	713	San Lucas Tolimán	10	San Lucas Tolimán	6	Junio	2023-06-28T00:00:00	2024-11-08T10:00:00	4	Temperatura máxima	22.4
132483	7	Sololá	713	San Lucas Tolimán	10	San Lucas Tolimán	6	Junio	2023-06-28T00:00:00	2024-11-08T10:00:00	3	Temperatura mínima	20.1
132484	7	Sololá	713	San Lucas Tolimán	10	San Lucas Tolimán	6	Junio	2023-06-28T00:00:00	2024-11-08T10:00:00	5	Humedad	59
132485	7	Sololá	713	San Lucas Tolimán	10	San Lucas Tolimán	6	Junio	2023-06-28T00:00:00	2024-11-08T10:00:00	6	Velocidad del viento	4.8
132486	7	Sololá	713	San Lucas Tolimán	10	San Lucas Tolimán	6	Junio	2023-06-28T00:00:00	2024-11-08T10:00:00	7	Dirección del viento	4.83
132487	7	Sololá	713	San Lucas Tolimán	10	San Lucas Tolimán	6	Junio	2023-06-28T00:00:00	2024-11-08T10:00:00	1	Precipitación	0
132488	7	Sololá	713	San Lucas Tolimán	10	San Lucas Tolimán	6	Junio	2023-06-28T00:00:00	2024-11-08T10:00:00	8	Radiación solar	558
132489	7	Sololá	713	San Lucas Tolimán	10	San Lucas Tolimán	6	Junio	2023-06-28T00:00:00	2024-11-08T11:00:00	2	Temperatura media	21.9
132490	7	Sololá	713	San Lucas Tolimán	10	San Lucas Tolimán	6	Junio	2023-06-28T00:00:00	2024-11-08T11:00:00	4	Temperatura máxima	21.9
132491	7	Sololá	713	San Lucas Tolimán	10	San Lucas Tolimán	6	Junio	2023-06-28T00:00:00	2024-11-08T11:00:00	3	Temperatura mínima	20.8
132492	7	Sololá	713	San Lucas Tolimán	10	San Lucas Tolimán	6	Junio	2023-06-28T00:00:00	2024-11-08T11:00:00	5	Humedad	59
132493	7	Sololá	713	San Lucas Tolimán	10	San Lucas Tolimán	6	Junio	2023-06-28T00:00:00	2024-11-08T11:00:00	6	Velocidad del viento	8
132494	7	Sololá	713	San Lucas Tolimán	10	San Lucas Tolimán	6	Junio	2023-06-28T00:00:00	2024-11-08T11:00:00	7	Dirección del viento	8.05
132495	7	Sololá	713	San Lucas Tolimán	10	San Lucas Tolimán	6	Junio	2023-06-28T00:00:00	2024-11-08T11:00:00	1	Precipitación	0
132496	7	Sololá	713	San Lucas Tolimán	10	San Lucas Tolimán	6	Junio	2023-06-28T00:00:00	2024-11-08T11:00:00	8	Radiación solar	792
132497	7	Sololá	713	San Lucas Tolimán	10	San Lucas Tolimán	6	Junio	2023-06-28T00:00:00	2024-11-08T12:00:00	2	Temperatura media	23.6
132498	7	Sololá	713	San Lucas Tolimán	10	San Lucas Tolimán	6	Junio	2023-06-28T00:00:00	2024-11-08T12:00:00	4	Temperatura máxima	23.9
132499	7	Sololá	713	San Lucas Tolimán	10	San Lucas Tolimán	6	Junio	2023-06-28T00:00:00	2024-11-08T12:00:00	3	Temperatura mínima	21.9
132500	7	Sololá	713	San Lucas Tolimán	10	San Lucas Tolimán	6	Junio	2023-06-28T00:00:00	2024-11-08T12:00:00	5	Humedad	51
132501	7	Sololá	713	San Lucas Tolimán	10	San Lucas Tolimán	6	Junio	2023-06-28T00:00:00	2024-11-08T12:00:00	6	Velocidad del viento	9.7
132502	7	Sololá	713	San Lucas Tolimán	10	San Lucas Tolimán	6	Junio	2023-06-28T00:00:00	2024-11-08T12:00:00	7	Dirección del viento	9.66
132503	7	Sololá	713	San Lucas Tolimán	10	San Lucas Tolimán	6	Junio	2023-06-28T00:00:00	2024-11-08T12:00:00	1	Precipitación	0
132504	7	Sololá	713	San Lucas Tolimán	10	San Lucas Tolimán	6	Junio	2023-06-28T00:00:00	2024-11-08T12:00:00	8	Radiación solar	1119
132505	7	Sololá	713	San Lucas Tolimán	10	San Lucas Tolimán	6	Junio	2023-06-28T00:00:00	2024-11-08T13:00:00	2	Temperatura media	23.6
132506	7	Sololá	713	San Lucas Tolimán	10	San Lucas Tolimán	6	Junio	2023-06-28T00:00:00	2024-11-08T13:00:00	4	Temperatura máxima	24.2
132507	7	Sololá	713	San Lucas Tolimán	10	San Lucas Tolimán	6	Junio	2023-06-28T00:00:00	2024-11-08T13:00:00	3	Temperatura mínima	23.6
132508	7	Sololá	713	San Lucas Tolimán	10	San Lucas Tolimán	6	Junio	2023-06-28T00:00:00	2024-11-08T13:00:00	5	Humedad	53
132509	7	Sololá	713	San Lucas Tolimán	10	San Lucas Tolimán	6	Junio	2023-06-28T00:00:00	2024-11-08T13:00:00	6	Velocidad del viento	9.7
132510	7	Sololá	713	San Lucas Tolimán	10	San Lucas Tolimán	6	Junio	2023-06-28T00:00:00	2024-11-08T13:00:00	7	Dirección del viento	9.66
132511	7	Sololá	713	San Lucas Tolimán	10	San Lucas Tolimán	6	Junio	2023-06-28T00:00:00	2024-11-08T13:00:00	1	Precipitación	0
132512	7	Sololá	713	San Lucas Tolimán	10	San Lucas Tolimán	6	Junio	2023-06-28T00:00:00	2024-11-08T13:00:00	8	Radiación solar	968
132513	7	Sololá	713	San Lucas Tolimán	10	San Lucas Tolimán	6	Junio	2023-06-28T00:00:00	2024-11-08T14:00:00	2	Temperatura media	23.7
132514	7	Sololá	713	San Lucas Tolimán	10	San Lucas Tolimán	6	Junio	2023-06-28T00:00:00	2024-11-08T14:00:00	4	Temperatura máxima	24.3
132515	7	Sololá	713	San Lucas Tolimán	10	San Lucas Tolimán	6	Junio	2023-06-28T00:00:00	2024-11-08T14:00:00	3	Temperatura mínima	23.6
132516	7	Sololá	713	San Lucas Tolimán	10	San Lucas Tolimán	6	Junio	2023-06-28T00:00:00	2024-11-08T14:00:00	5	Humedad	57
132517	7	Sololá	713	San Lucas Tolimán	10	San Lucas Tolimán	6	Junio	2023-06-28T00:00:00	2024-11-08T14:00:00	6	Velocidad del viento	11.3
132518	7	Sololá	713	San Lucas Tolimán	10	San Lucas Tolimán	6	Junio	2023-06-28T00:00:00	2024-11-08T14:00:00	7	Dirección del viento	11.27
132519	7	Sololá	713	San Lucas Tolimán	10	San Lucas Tolimán	6	Junio	2023-06-28T00:00:00	2024-11-08T14:00:00	1	Precipitación	0
132520	7	Sololá	713	San Lucas Tolimán	10	San Lucas Tolimán	6	Junio	2023-06-28T00:00:00	2024-11-08T14:00:00	8	Radiación solar	1119
132521	7	Sololá	713	San Lucas Tolimán	10	San Lucas Tolimán	6	Junio	2023-06-28T00:00:00	2024-11-08T15:00:00	2	Temperatura media	20.2
132522	7	Sololá	713	San Lucas Tolimán	10	San Lucas Tolimán	6	Junio	2023-06-28T00:00:00	2024-11-08T15:00:00	4	Temperatura máxima	23.7
132523	7	Sololá	713	San Lucas Tolimán	10	San Lucas Tolimán	6	Junio	2023-06-28T00:00:00	2024-11-08T15:00:00	3	Temperatura mínima	20.2
132524	7	Sololá	713	San Lucas Tolimán	10	San Lucas Tolimán	6	Junio	2023-06-28T00:00:00	2024-11-08T15:00:00	5	Humedad	65
132525	7	Sololá	713	San Lucas Tolimán	10	San Lucas Tolimán	6	Junio	2023-06-28T00:00:00	2024-11-08T15:00:00	6	Velocidad del viento	11.3
132526	7	Sololá	713	San Lucas Tolimán	10	San Lucas Tolimán	6	Junio	2023-06-28T00:00:00	2024-11-08T15:00:00	7	Dirección del viento	11.27
132527	7	Sololá	713	San Lucas Tolimán	10	San Lucas Tolimán	6	Junio	2023-06-28T00:00:00	2024-11-08T15:00:00	1	Precipitación	1.4
132528	7	Sololá	713	San Lucas Tolimán	10	San Lucas Tolimán	6	Junio	2023-06-28T00:00:00	2024-11-08T15:00:00	8	Radiación solar	396
132529	7	Sololá	713	San Lucas Tolimán	10	San Lucas Tolimán	6	Junio	2023-06-28T00:00:00	2024-11-08T16:00:00	2	Temperatura media	18.3
132530	7	Sololá	713	San Lucas Tolimán	10	San Lucas Tolimán	6	Junio	2023-06-28T00:00:00	2024-11-08T16:00:00	4	Temperatura máxima	20.4
132531	7	Sololá	713	San Lucas Tolimán	10	San Lucas Tolimán	6	Junio	2023-06-28T00:00:00	2024-11-08T16:00:00	3	Temperatura mínima	18.3
132532	7	Sololá	713	San Lucas Tolimán	10	San Lucas Tolimán	6	Junio	2023-06-28T00:00:00	2024-11-08T16:00:00	5	Humedad	66
132533	7	Sololá	713	San Lucas Tolimán	10	San Lucas Tolimán	6	Junio	2023-06-28T00:00:00	2024-11-08T16:00:00	6	Velocidad del viento	8
132534	7	Sololá	713	San Lucas Tolimán	10	San Lucas Tolimán	6	Junio	2023-06-28T00:00:00	2024-11-08T16:00:00	7	Dirección del viento	8.05
132535	7	Sololá	713	San Lucas Tolimán	10	San Lucas Tolimán	6	Junio	2023-06-28T00:00:00	2024-11-08T16:00:00	1	Precipitación	18
132536	7	Sololá	713	San Lucas Tolimán	10	San Lucas Tolimán	6	Junio	2023-06-28T00:00:00	2024-11-08T16:00:00	8	Radiación solar	72
132537	7	Sololá	713	San Lucas Tolimán	10	San Lucas Tolimán	6	Junio	2023-06-28T00:00:00	2024-11-08T17:00:00	2	Temperatura media	18.2
132538	7	Sololá	713	San Lucas Tolimán	10	San Lucas Tolimán	6	Junio	2023-06-28T00:00:00	2024-11-08T17:00:00	4	Temperatura máxima	18.3
132539	7	Sololá	713	San Lucas Tolimán	10	San Lucas Tolimán	6	Junio	2023-06-28T00:00:00	2024-11-08T17:00:00	3	Temperatura mínima	17.9
132540	7	Sololá	713	San Lucas Tolimán	10	San Lucas Tolimán	6	Junio	2023-06-28T00:00:00	2024-11-08T17:00:00	5	Humedad	67
132541	7	Sololá	713	San Lucas Tolimán	10	San Lucas Tolimán	6	Junio	2023-06-28T00:00:00	2024-11-08T17:00:00	6	Velocidad del viento	1.6
132542	7	Sololá	713	San Lucas Tolimán	10	San Lucas Tolimán	6	Junio	2023-06-28T00:00:00	2024-11-08T17:00:00	7	Dirección del viento	1.61
132543	7	Sololá	713	San Lucas Tolimán	10	San Lucas Tolimán	6	Junio	2023-06-28T00:00:00	2024-11-08T17:00:00	1	Precipitación	5.2
132544	7	Sololá	713	San Lucas Tolimán	10	San Lucas Tolimán	6	Junio	2023-06-28T00:00:00	2024-11-08T17:00:00	8	Radiación solar	12
132545	7	Sololá	713	San Lucas Tolimán	10	San Lucas Tolimán	6	Junio	2023-06-28T00:00:00	2024-11-08T18:00:00	2	Temperatura media	18.3
132546	7	Sololá	713	San Lucas Tolimán	10	San Lucas Tolimán	6	Junio	2023-06-28T00:00:00	2024-11-08T18:00:00	4	Temperatura máxima	18.4
132547	7	Sololá	713	San Lucas Tolimán	10	San Lucas Tolimán	6	Junio	2023-06-28T00:00:00	2024-11-08T18:00:00	3	Temperatura mínima	18.1
132548	7	Sololá	713	San Lucas Tolimán	10	San Lucas Tolimán	6	Junio	2023-06-28T00:00:00	2024-11-08T18:00:00	5	Humedad	68
132549	7	Sololá	713	San Lucas Tolimán	10	San Lucas Tolimán	6	Junio	2023-06-28T00:00:00	2024-11-08T18:00:00	6	Velocidad del viento	0
132550	7	Sololá	713	San Lucas Tolimán	10	San Lucas Tolimán	6	Junio	2023-06-28T00:00:00	2024-11-08T18:00:00	7	Dirección del viento	0
132551	7	Sololá	713	San Lucas Tolimán	10	San Lucas Tolimán	6	Junio	2023-06-28T00:00:00	2024-11-08T18:00:00	1	Precipitación	0.4
132552	7	Sololá	713	San Lucas Tolimán	10	San Lucas Tolimán	6	Junio	2023-06-28T00:00:00	2024-11-08T18:00:00	8	Radiación solar	18
132553	7	Sololá	713	San Lucas Tolimán	10	San Lucas Tolimán	6	Junio	2023-06-28T00:00:00	2024-11-08T19:00:00	2	Temperatura media	18.3
132554	7	Sololá	713	San Lucas Tolimán	10	San Lucas Tolimán	6	Junio	2023-06-28T00:00:00	2024-11-08T19:00:00	4	Temperatura máxima	18.6
132555	7	Sololá	713	San Lucas Tolimán	10	San Lucas Tolimán	6	Junio	2023-06-28T00:00:00	2024-11-08T19:00:00	3	Temperatura mínima	18.1
132556	7	Sololá	713	San Lucas Tolimán	10	San Lucas Tolimán	6	Junio	2023-06-28T00:00:00	2024-11-08T19:00:00	5	Humedad	66
132557	7	Sololá	713	San Lucas Tolimán	10	San Lucas Tolimán	6	Junio	2023-06-28T00:00:00	2024-11-08T19:00:00	6	Velocidad del viento	0
132558	7	Sololá	713	San Lucas Tolimán	10	San Lucas Tolimán	6	Junio	2023-06-28T00:00:00	2024-11-08T19:00:00	7	Dirección del viento	0
132559	7	Sololá	713	San Lucas Tolimán	10	San Lucas Tolimán	6	Junio	2023-06-28T00:00:00	2024-11-08T19:00:00	1	Precipitación	0
132560	7	Sololá	713	San Lucas Tolimán	10	San Lucas Tolimán	6	Junio	2023-06-28T00:00:00	2024-11-08T19:00:00	8	Radiación solar	0
132561	7	Sololá	713	San Lucas Tolimán	10	San Lucas Tolimán	6	Junio	2023-06-28T00:00:00	2024-11-08T20:00:00	2	Temperatura media	18.1
132562	7	Sololá	713	San Lucas Tolimán	10	San Lucas Tolimán	6	Junio	2023-06-28T00:00:00	2024-11-08T20:00:00	4	Temperatura máxima	18.3
132563	7	Sololá	713	San Lucas Tolimán	10	San Lucas Tolimán	6	Junio	2023-06-28T00:00:00	2024-11-08T20:00:00	3	Temperatura mínima	18
132564	7	Sololá	713	San Lucas Tolimán	10	San Lucas Tolimán	6	Junio	2023-06-28T00:00:00	2024-11-08T20:00:00	5	Humedad	67
132565	7	Sololá	713	San Lucas Tolimán	10	San Lucas Tolimán	6	Junio	2023-06-28T00:00:00	2024-11-08T20:00:00	6	Velocidad del viento	0
132566	7	Sololá	713	San Lucas Tolimán	10	San Lucas Tolimán	6	Junio	2023-06-28T00:00:00	2024-11-08T20:00:00	7	Dirección del viento	0
132567	7	Sololá	713	San Lucas Tolimán	10	San Lucas Tolimán	6	Junio	2023-06-28T00:00:00	2024-11-08T20:00:00	1	Precipitación	0
132568	7	Sololá	713	San Lucas Tolimán	10	San Lucas Tolimán	6	Junio	2023-06-28T00:00:00	2024-11-08T20:00:00	8	Radiación solar	0
132569	7	Sololá	713	San Lucas Tolimán	10	San Lucas Tolimán	6	Junio	2023-06-28T00:00:00	2024-11-08T21:00:00	2	Temperatura media	18.2
132570	7	Sololá	713	San Lucas Tolimán	10	San Lucas Tolimán	6	Junio	2023-06-28T00:00:00	2024-11-08T21:00:00	4	Temperatura máxima	18.3
132571	7	Sololá	713	San Lucas Tolimán	10	San Lucas Tolimán	6	Junio	2023-06-28T00:00:00	2024-11-08T21:00:00	3	Temperatura mínima	18.1
132572	7	Sololá	713	San Lucas Tolimán	10	San Lucas Tolimán	6	Junio	2023-06-28T00:00:00	2024-11-08T21:00:00	5	Humedad	67
132573	7	Sololá	713	San Lucas Tolimán	10	San Lucas Tolimán	6	Junio	2023-06-28T00:00:00	2024-11-08T21:00:00	6	Velocidad del viento	0
132574	7	Sololá	713	San Lucas Tolimán	10	San Lucas Tolimán	6	Junio	2023-06-28T00:00:00	2024-11-08T21:00:00	7	Dirección del viento	0
132575	7	Sololá	713	San Lucas Tolimán	10	San Lucas Tolimán	6	Junio	2023-06-28T00:00:00	2024-11-08T21:00:00	1	Precipitación	0
132576	7	Sololá	713	San Lucas Tolimán	10	San Lucas Tolimán	6	Junio	2023-06-28T00:00:00	2024-11-08T21:00:00	8	Radiación solar	0
132577	7	Sololá	713	San Lucas Tolimán	10	San Lucas Tolimán	6	Junio	2023-06-28T00:00:00	2024-11-08T22:00:00	2	Temperatura media	17.7
132578	7	Sololá	713	San Lucas Tolimán	10	San Lucas Tolimán	6	Junio	2023-06-28T00:00:00	2024-11-08T22:00:00	4	Temperatura máxima	18.2
132579	7	Sololá	713	San Lucas Tolimán	10	San Lucas Tolimán	6	Junio	2023-06-28T00:00:00	2024-11-08T22:00:00	3	Temperatura mínima	17.7
132580	7	Sololá	713	San Lucas Tolimán	10	San Lucas Tolimán	6	Junio	2023-06-28T00:00:00	2024-11-08T22:00:00	5	Humedad	68
132581	7	Sololá	713	San Lucas Tolimán	10	San Lucas Tolimán	6	Junio	2023-06-28T00:00:00	2024-11-08T22:00:00	6	Velocidad del viento	3.2
132582	7	Sololá	713	San Lucas Tolimán	10	San Lucas Tolimán	6	Junio	2023-06-28T00:00:00	2024-11-08T22:00:00	7	Dirección del viento	3.22
132583	7	Sololá	713	San Lucas Tolimán	10	San Lucas Tolimán	6	Junio	2023-06-28T00:00:00	2024-11-08T22:00:00	1	Precipitación	0
132584	7	Sololá	713	San Lucas Tolimán	10	San Lucas Tolimán	6	Junio	2023-06-28T00:00:00	2024-11-08T22:00:00	8	Radiación solar	0
132585	7	Sololá	713	San Lucas Tolimán	10	San Lucas Tolimán	6	Junio	2023-06-28T00:00:00	2024-11-08T23:00:00	2	Temperatura media	17.7
132586	7	Sololá	713	San Lucas Tolimán	10	San Lucas Tolimán	6	Junio	2023-06-28T00:00:00	2024-11-08T23:00:00	4	Temperatura máxima	17.7
132587	7	Sololá	713	San Lucas Tolimán	10	San Lucas Tolimán	6	Junio	2023-06-28T00:00:00	2024-11-08T23:00:00	3	Temperatura mínima	17.6
132588	7	Sololá	713	San Lucas Tolimán	10	San Lucas Tolimán	6	Junio	2023-06-28T00:00:00	2024-11-08T23:00:00	5	Humedad	68
132589	7	Sololá	713	San Lucas Tolimán	10	San Lucas Tolimán	6	Junio	2023-06-28T00:00:00	2024-11-08T23:00:00	6	Velocidad del viento	1.6
132590	7	Sololá	713	San Lucas Tolimán	10	San Lucas Tolimán	6	Junio	2023-06-28T00:00:00	2024-11-08T23:00:00	7	Dirección del viento	1.61
132591	7	Sololá	713	San Lucas Tolimán	10	San Lucas Tolimán	6	Junio	2023-06-28T00:00:00	2024-11-08T23:00:00	1	Precipitación	0
132592	7	Sololá	713	San Lucas Tolimán	10	San Lucas Tolimán	6	Junio	2023-06-28T00:00:00	2024-11-08T23:00:00	8	Radiación solar	0
132593	7	Sololá	713	San Lucas Tolimán	10	San Lucas Tolimán	6	Junio	2023-06-29T00:00:00	2024-11-08T00:00:00	2	Temperatura media	18.1
132594	7	Sololá	713	San Lucas Tolimán	10	San Lucas Tolimán	6	Junio	2023-06-29T00:00:00	2024-11-08T00:00:00	4	Temperatura máxima	18.1
132595	7	Sololá	713	San Lucas Tolimán	10	San Lucas Tolimán	6	Junio	2023-06-29T00:00:00	2024-11-08T00:00:00	3	Temperatura mínima	17.7
132596	7	Sololá	713	San Lucas Tolimán	10	San Lucas Tolimán	6	Junio	2023-06-29T00:00:00	2024-11-08T00:00:00	5	Humedad	65
132597	7	Sololá	713	San Lucas Tolimán	10	San Lucas Tolimán	6	Junio	2023-06-29T00:00:00	2024-11-08T00:00:00	6	Velocidad del viento	1.6
132598	7	Sololá	713	San Lucas Tolimán	10	San Lucas Tolimán	6	Junio	2023-06-29T00:00:00	2024-11-08T00:00:00	7	Dirección del viento	1.61
132599	7	Sololá	713	San Lucas Tolimán	10	San Lucas Tolimán	6	Junio	2023-06-29T00:00:00	2024-11-08T00:00:00	1	Precipitación	0
132600	7	Sololá	713	San Lucas Tolimán	10	San Lucas Tolimán	6	Junio	2023-06-29T00:00:00	2024-11-08T00:00:00	8	Radiación solar	0
132601	7	Sololá	713	San Lucas Tolimán	10	San Lucas Tolimán	6	Junio	2023-06-29T00:00:00	2024-11-08T01:00:00	2	Temperatura media	17.9
132602	7	Sololá	713	San Lucas Tolimán	10	San Lucas Tolimán	6	Junio	2023-06-29T00:00:00	2024-11-08T01:00:00	4	Temperatura máxima	18.1
132603	7	Sololá	713	San Lucas Tolimán	10	San Lucas Tolimán	6	Junio	2023-06-29T00:00:00	2024-11-08T01:00:00	3	Temperatura mínima	17.8
132604	7	Sololá	713	San Lucas Tolimán	10	San Lucas Tolimán	6	Junio	2023-06-29T00:00:00	2024-11-08T01:00:00	5	Humedad	66
132605	7	Sololá	713	San Lucas Tolimán	10	San Lucas Tolimán	6	Junio	2023-06-29T00:00:00	2024-11-08T01:00:00	6	Velocidad del viento	0
132606	7	Sololá	713	San Lucas Tolimán	10	San Lucas Tolimán	6	Junio	2023-06-29T00:00:00	2024-11-08T01:00:00	7	Dirección del viento	0
132607	7	Sololá	713	San Lucas Tolimán	10	San Lucas Tolimán	6	Junio	2023-06-29T00:00:00	2024-11-08T01:00:00	1	Precipitación	0
132608	7	Sololá	713	San Lucas Tolimán	10	San Lucas Tolimán	6	Junio	2023-06-29T00:00:00	2024-11-08T01:00:00	8	Radiación solar	0
132609	7	Sololá	713	San Lucas Tolimán	10	San Lucas Tolimán	6	Junio	2023-06-29T00:00:00	2024-11-08T02:00:00	2	Temperatura media	18.2
132610	7	Sololá	713	San Lucas Tolimán	10	San Lucas Tolimán	6	Junio	2023-06-29T00:00:00	2024-11-08T02:00:00	4	Temperatura máxima	18.3
132611	7	Sololá	713	San Lucas Tolimán	10	San Lucas Tolimán	6	Junio	2023-06-29T00:00:00	2024-11-08T02:00:00	3	Temperatura mínima	17.9
132612	7	Sololá	713	San Lucas Tolimán	10	San Lucas Tolimán	6	Junio	2023-06-29T00:00:00	2024-11-08T02:00:00	5	Humedad	65
132613	7	Sololá	713	San Lucas Tolimán	10	San Lucas Tolimán	6	Junio	2023-06-29T00:00:00	2024-11-08T02:00:00	6	Velocidad del viento	0
132614	7	Sololá	713	San Lucas Tolimán	10	San Lucas Tolimán	6	Junio	2023-06-29T00:00:00	2024-11-08T02:00:00	7	Dirección del viento	0
132615	7	Sololá	713	San Lucas Tolimán	10	San Lucas Tolimán	6	Junio	2023-06-29T00:00:00	2024-11-08T02:00:00	1	Precipitación	0
132616	7	Sololá	713	San Lucas Tolimán	10	San Lucas Tolimán	6	Junio	2023-06-29T00:00:00	2024-11-08T02:00:00	8	Radiación solar	0
132617	7	Sololá	713	San Lucas Tolimán	10	San Lucas Tolimán	6	Junio	2023-06-29T00:00:00	2024-11-08T03:00:00	2	Temperatura media	18.1
132618	7	Sololá	713	San Lucas Tolimán	10	San Lucas Tolimán	6	Junio	2023-06-29T00:00:00	2024-11-08T03:00:00	4	Temperatura máxima	18.2
132619	7	Sololá	713	San Lucas Tolimán	10	San Lucas Tolimán	6	Junio	2023-06-29T00:00:00	2024-11-08T03:00:00	3	Temperatura mínima	18.1
132620	7	Sololá	713	San Lucas Tolimán	10	San Lucas Tolimán	6	Junio	2023-06-29T00:00:00	2024-11-08T03:00:00	5	Humedad	65
132621	7	Sololá	713	San Lucas Tolimán	10	San Lucas Tolimán	6	Junio	2023-06-29T00:00:00	2024-11-08T03:00:00	6	Velocidad del viento	1.6
132622	7	Sololá	713	San Lucas Tolimán	10	San Lucas Tolimán	6	Junio	2023-06-29T00:00:00	2024-11-08T03:00:00	7	Dirección del viento	1.61
132623	7	Sololá	713	San Lucas Tolimán	10	San Lucas Tolimán	6	Junio	2023-06-29T00:00:00	2024-11-08T03:00:00	1	Precipitación	0
132624	7	Sololá	713	San Lucas Tolimán	10	San Lucas Tolimán	6	Junio	2023-06-29T00:00:00	2024-11-08T03:00:00	8	Radiación solar	0
132625	7	Sololá	713	San Lucas Tolimán	10	San Lucas Tolimán	6	Junio	2023-06-29T00:00:00	2024-11-08T04:00:00	2	Temperatura media	18.3
132626	7	Sololá	713	San Lucas Tolimán	10	San Lucas Tolimán	6	Junio	2023-06-29T00:00:00	2024-11-08T04:00:00	4	Temperatura máxima	18.3
132627	7	Sololá	713	San Lucas Tolimán	10	San Lucas Tolimán	6	Junio	2023-06-29T00:00:00	2024-11-08T04:00:00	3	Temperatura mínima	17.8
132628	7	Sololá	713	San Lucas Tolimán	10	San Lucas Tolimán	6	Junio	2023-06-29T00:00:00	2024-11-08T04:00:00	5	Humedad	63
132629	7	Sololá	713	San Lucas Tolimán	10	San Lucas Tolimán	6	Junio	2023-06-29T00:00:00	2024-11-08T04:00:00	6	Velocidad del viento	0
132630	7	Sololá	713	San Lucas Tolimán	10	San Lucas Tolimán	6	Junio	2023-06-29T00:00:00	2024-11-08T04:00:00	7	Dirección del viento	0
132631	7	Sololá	713	San Lucas Tolimán	10	San Lucas Tolimán	6	Junio	2023-06-29T00:00:00	2024-11-08T04:00:00	1	Precipitación	0
132632	7	Sololá	713	San Lucas Tolimán	10	San Lucas Tolimán	6	Junio	2023-06-29T00:00:00	2024-11-08T04:00:00	8	Radiación solar	0
132633	7	Sololá	713	San Lucas Tolimán	10	San Lucas Tolimán	6	Junio	2023-06-29T00:00:00	2024-11-08T05:00:00	2	Temperatura media	19
132634	7	Sololá	713	San Lucas Tolimán	10	San Lucas Tolimán	6	Junio	2023-06-29T00:00:00	2024-11-08T05:00:00	4	Temperatura máxima	19.3
132635	7	Sololá	713	San Lucas Tolimán	10	San Lucas Tolimán	6	Junio	2023-06-29T00:00:00	2024-11-08T05:00:00	3	Temperatura mínima	18.3
132636	7	Sololá	713	San Lucas Tolimán	10	San Lucas Tolimán	6	Junio	2023-06-29T00:00:00	2024-11-08T05:00:00	5	Humedad	60
132637	7	Sololá	713	San Lucas Tolimán	10	San Lucas Tolimán	6	Junio	2023-06-29T00:00:00	2024-11-08T05:00:00	6	Velocidad del viento	3.2
132638	7	Sololá	713	San Lucas Tolimán	10	San Lucas Tolimán	6	Junio	2023-06-29T00:00:00	2024-11-08T05:00:00	7	Dirección del viento	3.22
132639	7	Sololá	713	San Lucas Tolimán	10	San Lucas Tolimán	6	Junio	2023-06-29T00:00:00	2024-11-08T05:00:00	1	Precipitación	0
132640	7	Sololá	713	San Lucas Tolimán	10	San Lucas Tolimán	6	Junio	2023-06-29T00:00:00	2024-11-08T05:00:00	8	Radiación solar	0
132641	7	Sololá	713	San Lucas Tolimán	10	San Lucas Tolimán	6	Junio	2023-06-29T00:00:00	2024-11-08T06:00:00	2	Temperatura media	20.2
132642	7	Sololá	713	San Lucas Tolimán	10	San Lucas Tolimán	6	Junio	2023-06-29T00:00:00	2024-11-08T06:00:00	4	Temperatura máxima	20.2
132643	7	Sololá	713	San Lucas Tolimán	10	San Lucas Tolimán	6	Junio	2023-06-29T00:00:00	2024-11-08T06:00:00	3	Temperatura mínima	18.7
132644	7	Sololá	713	San Lucas Tolimán	10	San Lucas Tolimán	6	Junio	2023-06-29T00:00:00	2024-11-08T06:00:00	5	Humedad	55
132645	7	Sololá	713	San Lucas Tolimán	10	San Lucas Tolimán	6	Junio	2023-06-29T00:00:00	2024-11-08T06:00:00	6	Velocidad del viento	4.8
132646	7	Sololá	713	San Lucas Tolimán	10	San Lucas Tolimán	6	Junio	2023-06-29T00:00:00	2024-11-08T06:00:00	7	Dirección del viento	4.83
132647	7	Sololá	713	San Lucas Tolimán	10	San Lucas Tolimán	6	Junio	2023-06-29T00:00:00	2024-11-08T06:00:00	1	Precipitación	0
132648	7	Sololá	713	San Lucas Tolimán	10	San Lucas Tolimán	6	Junio	2023-06-29T00:00:00	2024-11-08T06:00:00	8	Radiación solar	3
132649	7	Sololá	713	San Lucas Tolimán	10	San Lucas Tolimán	6	Junio	2023-06-29T00:00:00	2024-11-08T07:00:00	2	Temperatura media	21
132650	7	Sololá	713	San Lucas Tolimán	10	San Lucas Tolimán	6	Junio	2023-06-29T00:00:00	2024-11-08T07:00:00	4	Temperatura máxima	21
132651	7	Sololá	713	San Lucas Tolimán	10	San Lucas Tolimán	6	Junio	2023-06-29T00:00:00	2024-11-08T07:00:00	3	Temperatura mínima	20
132652	7	Sololá	713	San Lucas Tolimán	10	San Lucas Tolimán	6	Junio	2023-06-29T00:00:00	2024-11-08T07:00:00	5	Humedad	77
132653	7	Sololá	713	San Lucas Tolimán	10	San Lucas Tolimán	6	Junio	2023-06-29T00:00:00	2024-11-08T07:00:00	6	Velocidad del viento	4.8
132654	7	Sololá	713	San Lucas Tolimán	10	San Lucas Tolimán	6	Junio	2023-06-29T00:00:00	2024-11-08T07:00:00	7	Dirección del viento	4.83
132655	7	Sololá	713	San Lucas Tolimán	10	San Lucas Tolimán	6	Junio	2023-06-29T00:00:00	2024-11-08T07:00:00	1	Precipitación	0
132656	7	Sololá	713	San Lucas Tolimán	10	San Lucas Tolimán	6	Junio	2023-06-29T00:00:00	2024-11-08T07:00:00	8	Radiación solar	90
132657	7	Sololá	713	San Lucas Tolimán	10	San Lucas Tolimán	6	Junio	2023-06-29T00:00:00	2024-11-08T08:00:00	2	Temperatura media	23.3
132658	7	Sololá	713	San Lucas Tolimán	10	San Lucas Tolimán	6	Junio	2023-06-29T00:00:00	2024-11-08T08:00:00	4	Temperatura máxima	23.6
132659	7	Sololá	713	San Lucas Tolimán	10	San Lucas Tolimán	6	Junio	2023-06-29T00:00:00	2024-11-08T08:00:00	3	Temperatura mínima	21.1
132660	7	Sololá	713	San Lucas Tolimán	10	San Lucas Tolimán	6	Junio	2023-06-29T00:00:00	2024-11-08T08:00:00	5	Humedad	71
132661	7	Sololá	713	San Lucas Tolimán	10	San Lucas Tolimán	6	Junio	2023-06-29T00:00:00	2024-11-08T08:00:00	6	Velocidad del viento	3.2
132662	7	Sololá	713	San Lucas Tolimán	10	San Lucas Tolimán	6	Junio	2023-06-29T00:00:00	2024-11-08T08:00:00	7	Dirección del viento	3.22
132663	7	Sololá	713	San Lucas Tolimán	10	San Lucas Tolimán	6	Junio	2023-06-29T00:00:00	2024-11-08T08:00:00	1	Precipitación	0
132664	7	Sololá	713	San Lucas Tolimán	10	San Lucas Tolimán	6	Junio	2023-06-29T00:00:00	2024-11-08T08:00:00	8	Radiación solar	231
132665	7	Sololá	713	San Lucas Tolimán	10	San Lucas Tolimán	6	Junio	2023-06-29T00:00:00	2024-11-08T09:00:00	2	Temperatura media	22.4
132666	7	Sololá	713	San Lucas Tolimán	10	San Lucas Tolimán	6	Junio	2023-06-29T00:00:00	2024-11-08T09:00:00	4	Temperatura máxima	24.3
132667	7	Sololá	713	San Lucas Tolimán	10	San Lucas Tolimán	6	Junio	2023-06-29T00:00:00	2024-11-08T09:00:00	3	Temperatura mínima	22.4
132668	7	Sololá	713	San Lucas Tolimán	10	San Lucas Tolimán	6	Junio	2023-06-29T00:00:00	2024-11-08T09:00:00	5	Humedad	81
132669	7	Sololá	713	San Lucas Tolimán	10	San Lucas Tolimán	6	Junio	2023-06-29T00:00:00	2024-11-08T09:00:00	6	Velocidad del viento	6.4
132670	7	Sololá	713	San Lucas Tolimán	10	San Lucas Tolimán	6	Junio	2023-06-29T00:00:00	2024-11-08T09:00:00	7	Dirección del viento	6.44
132671	7	Sololá	713	San Lucas Tolimán	10	San Lucas Tolimán	6	Junio	2023-06-29T00:00:00	2024-11-08T09:00:00	1	Precipitación	0
132672	7	Sololá	713	San Lucas Tolimán	10	San Lucas Tolimán	6	Junio	2023-06-29T00:00:00	2024-11-08T09:00:00	8	Radiación solar	425
132673	7	Sololá	713	San Lucas Tolimán	10	San Lucas Tolimán	6	Junio	2023-06-29T00:00:00	2024-11-08T10:00:00	2	Temperatura media	22.6
132674	7	Sololá	713	San Lucas Tolimán	10	San Lucas Tolimán	6	Junio	2023-06-29T00:00:00	2024-11-08T10:00:00	4	Temperatura máxima	22.8
132675	7	Sololá	713	San Lucas Tolimán	10	San Lucas Tolimán	6	Junio	2023-06-29T00:00:00	2024-11-08T10:00:00	3	Temperatura mínima	21.9
132676	7	Sololá	713	San Lucas Tolimán	10	San Lucas Tolimán	6	Junio	2023-06-29T00:00:00	2024-11-08T10:00:00	5	Humedad	79
132677	7	Sololá	713	San Lucas Tolimán	10	San Lucas Tolimán	6	Junio	2023-06-29T00:00:00	2024-11-08T10:00:00	6	Velocidad del viento	11.3
132678	7	Sololá	713	San Lucas Tolimán	10	San Lucas Tolimán	6	Junio	2023-06-29T00:00:00	2024-11-08T10:00:00	7	Dirección del viento	11.27
132679	7	Sololá	713	San Lucas Tolimán	10	San Lucas Tolimán	6	Junio	2023-06-29T00:00:00	2024-11-08T10:00:00	1	Precipitación	0
132680	7	Sololá	713	San Lucas Tolimán	10	San Lucas Tolimán	6	Junio	2023-06-29T00:00:00	2024-11-08T10:00:00	8	Radiación solar	647
132681	7	Sololá	713	San Lucas Tolimán	10	San Lucas Tolimán	6	Junio	2023-06-29T00:00:00	2024-11-08T11:00:00	2	Temperatura media	22.6
132682	7	Sololá	713	San Lucas Tolimán	10	San Lucas Tolimán	6	Junio	2023-06-29T00:00:00	2024-11-08T11:00:00	4	Temperatura máxima	23.4
132683	7	Sololá	713	San Lucas Tolimán	10	San Lucas Tolimán	6	Junio	2023-06-29T00:00:00	2024-11-08T11:00:00	3	Temperatura mínima	22.3
132684	7	Sololá	713	San Lucas Tolimán	10	San Lucas Tolimán	6	Junio	2023-06-29T00:00:00	2024-11-08T11:00:00	5	Humedad	81
132685	7	Sololá	713	San Lucas Tolimán	10	San Lucas Tolimán	6	Junio	2023-06-29T00:00:00	2024-11-08T11:00:00	6	Velocidad del viento	11.3
132686	7	Sololá	713	San Lucas Tolimán	10	San Lucas Tolimán	6	Junio	2023-06-29T00:00:00	2024-11-08T11:00:00	7	Dirección del viento	11.27
132687	7	Sololá	713	San Lucas Tolimán	10	San Lucas Tolimán	6	Junio	2023-06-29T00:00:00	2024-11-08T11:00:00	1	Precipitación	0
132688	7	Sololá	713	San Lucas Tolimán	10	San Lucas Tolimán	6	Junio	2023-06-29T00:00:00	2024-11-08T11:00:00	8	Radiación solar	777
132689	7	Sololá	713	San Lucas Tolimán	10	San Lucas Tolimán	6	Junio	2023-06-29T00:00:00	2024-11-08T12:00:00	2	Temperatura media	22.6
132690	7	Sololá	713	San Lucas Tolimán	10	San Lucas Tolimán	6	Junio	2023-06-29T00:00:00	2024-11-08T12:00:00	4	Temperatura máxima	22.9
132691	7	Sololá	713	San Lucas Tolimán	10	San Lucas Tolimán	6	Junio	2023-06-29T00:00:00	2024-11-08T12:00:00	3	Temperatura mínima	21.9
132692	7	Sololá	713	San Lucas Tolimán	10	San Lucas Tolimán	6	Junio	2023-06-29T00:00:00	2024-11-08T12:00:00	5	Humedad	81
132693	7	Sololá	713	San Lucas Tolimán	10	San Lucas Tolimán	6	Junio	2023-06-29T00:00:00	2024-11-08T12:00:00	6	Velocidad del viento	11.3
132694	7	Sololá	713	San Lucas Tolimán	10	San Lucas Tolimán	6	Junio	2023-06-29T00:00:00	2024-11-08T12:00:00	7	Dirección del viento	11.27
132695	7	Sololá	713	San Lucas Tolimán	10	San Lucas Tolimán	6	Junio	2023-06-29T00:00:00	2024-11-08T12:00:00	1	Precipitación	0
132696	7	Sololá	713	San Lucas Tolimán	10	San Lucas Tolimán	6	Junio	2023-06-29T00:00:00	2024-11-08T12:00:00	8	Radiación solar	502
132697	7	Sololá	713	San Lucas Tolimán	10	San Lucas Tolimán	6	Junio	2023-06-29T00:00:00	2024-11-08T13:00:00	2	Temperatura media	23.2
132698	7	Sololá	713	San Lucas Tolimán	10	San Lucas Tolimán	6	Junio	2023-06-29T00:00:00	2024-11-08T13:00:00	4	Temperatura máxima	23.6
132699	7	Sololá	713	San Lucas Tolimán	10	San Lucas Tolimán	6	Junio	2023-06-29T00:00:00	2024-11-08T13:00:00	3	Temperatura mínima	22.6
132700	7	Sololá	713	San Lucas Tolimán	10	San Lucas Tolimán	6	Junio	2023-06-29T00:00:00	2024-11-08T13:00:00	5	Humedad	81
132701	7	Sololá	713	San Lucas Tolimán	10	San Lucas Tolimán	6	Junio	2023-06-29T00:00:00	2024-11-08T13:00:00	6	Velocidad del viento	9.7
132702	7	Sololá	713	San Lucas Tolimán	10	San Lucas Tolimán	6	Junio	2023-06-29T00:00:00	2024-11-08T13:00:00	7	Dirección del viento	9.66
132703	7	Sololá	713	San Lucas Tolimán	10	San Lucas Tolimán	6	Junio	2023-06-29T00:00:00	2024-11-08T13:00:00	1	Precipitación	0
132704	7	Sololá	713	San Lucas Tolimán	10	San Lucas Tolimán	6	Junio	2023-06-29T00:00:00	2024-11-08T13:00:00	8	Radiación solar	330
132705	7	Sololá	713	San Lucas Tolimán	10	San Lucas Tolimán	6	Junio	2023-06-29T00:00:00	2024-11-08T14:00:00	2	Temperatura media	23.1
132706	7	Sololá	713	San Lucas Tolimán	10	San Lucas Tolimán	6	Junio	2023-06-29T00:00:00	2024-11-08T14:00:00	4	Temperatura máxima	25.2
132707	7	Sololá	713	San Lucas Tolimán	10	San Lucas Tolimán	6	Junio	2023-06-29T00:00:00	2024-11-08T14:00:00	3	Temperatura mínima	23
132708	7	Sololá	713	San Lucas Tolimán	10	San Lucas Tolimán	6	Junio	2023-06-29T00:00:00	2024-11-08T14:00:00	5	Humedad	81
132709	7	Sololá	713	San Lucas Tolimán	10	San Lucas Tolimán	6	Junio	2023-06-29T00:00:00	2024-11-08T14:00:00	6	Velocidad del viento	9.7
132710	7	Sololá	713	San Lucas Tolimán	10	San Lucas Tolimán	6	Junio	2023-06-29T00:00:00	2024-11-08T14:00:00	7	Dirección del viento	9.66
132711	7	Sololá	713	San Lucas Tolimán	10	San Lucas Tolimán	6	Junio	2023-06-29T00:00:00	2024-11-08T14:00:00	1	Precipitación	0
132712	7	Sololá	713	San Lucas Tolimán	10	San Lucas Tolimán	6	Junio	2023-06-29T00:00:00	2024-11-08T14:00:00	8	Radiación solar	384
132713	7	Sololá	713	San Lucas Tolimán	10	San Lucas Tolimán	6	Junio	2023-06-29T00:00:00	2024-11-08T15:00:00	2	Temperatura media	23.8
132714	7	Sololá	713	San Lucas Tolimán	10	San Lucas Tolimán	6	Junio	2023-06-29T00:00:00	2024-11-08T15:00:00	4	Temperatura máxima	24.2
132715	7	Sololá	713	San Lucas Tolimán	10	San Lucas Tolimán	6	Junio	2023-06-29T00:00:00	2024-11-08T15:00:00	3	Temperatura mínima	22.4
132716	7	Sololá	713	San Lucas Tolimán	10	San Lucas Tolimán	6	Junio	2023-06-29T00:00:00	2024-11-08T15:00:00	5	Humedad	80
132717	7	Sololá	713	San Lucas Tolimán	10	San Lucas Tolimán	6	Junio	2023-06-29T00:00:00	2024-11-08T15:00:00	6	Velocidad del viento	9.7
132718	7	Sololá	713	San Lucas Tolimán	10	San Lucas Tolimán	6	Junio	2023-06-29T00:00:00	2024-11-08T15:00:00	7	Dirección del viento	9.66
132719	7	Sololá	713	San Lucas Tolimán	10	San Lucas Tolimán	6	Junio	2023-06-29T00:00:00	2024-11-08T15:00:00	1	Precipitación	0
132720	7	Sololá	713	San Lucas Tolimán	10	San Lucas Tolimán	6	Junio	2023-06-29T00:00:00	2024-11-08T15:00:00	8	Radiación solar	122
132721	7	Sololá	713	San Lucas Tolimán	10	San Lucas Tolimán	6	Junio	2023-06-29T00:00:00	2024-11-08T16:00:00	2	Temperatura media	22
132722	7	Sololá	713	San Lucas Tolimán	10	San Lucas Tolimán	6	Junio	2023-06-29T00:00:00	2024-11-08T16:00:00	4	Temperatura máxima	23.8
132723	7	Sololá	713	San Lucas Tolimán	10	San Lucas Tolimán	6	Junio	2023-06-29T00:00:00	2024-11-08T16:00:00	3	Temperatura mínima	21.9
132724	7	Sololá	713	San Lucas Tolimán	10	San Lucas Tolimán	6	Junio	2023-06-29T00:00:00	2024-11-08T16:00:00	5	Humedad	86
132725	7	Sololá	713	San Lucas Tolimán	10	San Lucas Tolimán	6	Junio	2023-06-29T00:00:00	2024-11-08T16:00:00	6	Velocidad del viento	11.3
132726	7	Sololá	713	San Lucas Tolimán	10	San Lucas Tolimán	6	Junio	2023-06-29T00:00:00	2024-11-08T16:00:00	7	Dirección del viento	11.27
132727	7	Sololá	713	San Lucas Tolimán	10	San Lucas Tolimán	6	Junio	2023-06-29T00:00:00	2024-11-08T16:00:00	1	Precipitación	0
132728	7	Sololá	713	San Lucas Tolimán	10	San Lucas Tolimán	6	Junio	2023-06-29T00:00:00	2024-11-08T16:00:00	8	Radiación solar	138
132729	7	Sololá	713	San Lucas Tolimán	10	San Lucas Tolimán	6	Junio	2023-06-29T00:00:00	2024-11-08T17:00:00	2	Temperatura media	21.3
132730	7	Sololá	713	San Lucas Tolimán	10	San Lucas Tolimán	6	Junio	2023-06-29T00:00:00	2024-11-08T17:00:00	4	Temperatura máxima	21.9
132731	7	Sololá	713	San Lucas Tolimán	10	San Lucas Tolimán	6	Junio	2023-06-29T00:00:00	2024-11-08T17:00:00	3	Temperatura mínima	21.3
132732	7	Sololá	713	San Lucas Tolimán	10	San Lucas Tolimán	6	Junio	2023-06-29T00:00:00	2024-11-08T17:00:00	5	Humedad	87
132733	7	Sololá	713	San Lucas Tolimán	10	San Lucas Tolimán	6	Junio	2023-06-29T00:00:00	2024-11-08T17:00:00	6	Velocidad del viento	9.7
132734	7	Sololá	713	San Lucas Tolimán	10	San Lucas Tolimán	6	Junio	2023-06-29T00:00:00	2024-11-08T17:00:00	7	Dirección del viento	9.66
132735	7	Sololá	713	San Lucas Tolimán	10	San Lucas Tolimán	6	Junio	2023-06-29T00:00:00	2024-11-08T17:00:00	1	Precipitación	0
132736	7	Sololá	713	San Lucas Tolimán	10	San Lucas Tolimán	6	Junio	2023-06-29T00:00:00	2024-11-08T17:00:00	8	Radiación solar	130
132737	7	Sololá	713	San Lucas Tolimán	10	San Lucas Tolimán	6	Junio	2023-06-29T00:00:00	2024-11-08T18:00:00	2	Temperatura media	20.2
132738	7	Sololá	713	San Lucas Tolimán	10	San Lucas Tolimán	6	Junio	2023-06-29T00:00:00	2024-11-08T18:00:00	4	Temperatura máxima	21.3
132739	7	Sololá	713	San Lucas Tolimán	10	San Lucas Tolimán	6	Junio	2023-06-29T00:00:00	2024-11-08T18:00:00	3	Temperatura mínima	20.2
132740	7	Sololá	713	San Lucas Tolimán	10	San Lucas Tolimán	6	Junio	2023-06-29T00:00:00	2024-11-08T18:00:00	5	Humedad	92
132741	7	Sololá	713	San Lucas Tolimán	10	San Lucas Tolimán	6	Junio	2023-06-29T00:00:00	2024-11-08T18:00:00	6	Velocidad del viento	8
132742	7	Sololá	713	San Lucas Tolimán	10	San Lucas Tolimán	6	Junio	2023-06-29T00:00:00	2024-11-08T18:00:00	7	Dirección del viento	8.05
132743	7	Sololá	713	San Lucas Tolimán	10	San Lucas Tolimán	6	Junio	2023-06-29T00:00:00	2024-11-08T18:00:00	1	Precipitación	0
132744	7	Sololá	713	San Lucas Tolimán	10	San Lucas Tolimán	6	Junio	2023-06-29T00:00:00	2024-11-08T18:00:00	8	Radiación solar	49
132745	7	Sololá	713	San Lucas Tolimán	10	San Lucas Tolimán	6	Junio	2023-06-29T00:00:00	2024-11-08T19:00:00	2	Temperatura media	19.3
132746	7	Sololá	713	San Lucas Tolimán	10	San Lucas Tolimán	6	Junio	2023-06-29T00:00:00	2024-11-08T19:00:00	4	Temperatura máxima	20.2
132747	7	Sololá	713	San Lucas Tolimán	10	San Lucas Tolimán	6	Junio	2023-06-29T00:00:00	2024-11-08T19:00:00	3	Temperatura mínima	19.2
132748	7	Sololá	713	San Lucas Tolimán	10	San Lucas Tolimán	6	Junio	2023-06-29T00:00:00	2024-11-08T19:00:00	5	Humedad	94
132749	7	Sololá	713	San Lucas Tolimán	10	San Lucas Tolimán	6	Junio	2023-06-29T00:00:00	2024-11-08T19:00:00	6	Velocidad del viento	9.7
132750	7	Sololá	713	San Lucas Tolimán	10	San Lucas Tolimán	6	Junio	2023-06-29T00:00:00	2024-11-08T19:00:00	7	Dirección del viento	9.66
132751	7	Sololá	713	San Lucas Tolimán	10	San Lucas Tolimán	6	Junio	2023-06-29T00:00:00	2024-11-08T19:00:00	1	Precipitación	0
132752	7	Sololá	713	San Lucas Tolimán	10	San Lucas Tolimán	6	Junio	2023-06-29T00:00:00	2024-11-08T19:00:00	8	Radiación solar	0
132753	7	Sololá	713	San Lucas Tolimán	10	San Lucas Tolimán	6	Junio	2023-06-29T00:00:00	2024-11-08T20:00:00	2	Temperatura media	19.3
132754	7	Sololá	713	San Lucas Tolimán	10	San Lucas Tolimán	6	Junio	2023-06-29T00:00:00	2024-11-08T20:00:00	4	Temperatura máxima	19.4
132755	7	Sololá	713	San Lucas Tolimán	10	San Lucas Tolimán	6	Junio	2023-06-29T00:00:00	2024-11-08T20:00:00	3	Temperatura mínima	19.1
132756	7	Sololá	713	San Lucas Tolimán	10	San Lucas Tolimán	6	Junio	2023-06-29T00:00:00	2024-11-08T20:00:00	5	Humedad	91
132757	7	Sololá	713	San Lucas Tolimán	10	San Lucas Tolimán	6	Junio	2023-06-29T00:00:00	2024-11-08T20:00:00	6	Velocidad del viento	1.6
132758	7	Sololá	713	San Lucas Tolimán	10	San Lucas Tolimán	6	Junio	2023-06-29T00:00:00	2024-11-08T20:00:00	7	Dirección del viento	1.61
132759	7	Sololá	713	San Lucas Tolimán	10	San Lucas Tolimán	6	Junio	2023-06-29T00:00:00	2024-11-08T20:00:00	1	Precipitación	0
132760	7	Sololá	713	San Lucas Tolimán	10	San Lucas Tolimán	6	Junio	2023-06-29T00:00:00	2024-11-08T20:00:00	8	Radiación solar	0
132761	7	Sololá	713	San Lucas Tolimán	10	San Lucas Tolimán	6	Junio	2023-06-29T00:00:00	2024-11-08T21:00:00	2	Temperatura media	19.7
132762	7	Sololá	713	San Lucas Tolimán	10	San Lucas Tolimán	6	Junio	2023-06-29T00:00:00	2024-11-08T21:00:00	4	Temperatura máxima	19.8
132763	7	Sololá	713	San Lucas Tolimán	10	San Lucas Tolimán	6	Junio	2023-06-29T00:00:00	2024-11-08T21:00:00	3	Temperatura mínima	19.1
132764	7	Sololá	713	San Lucas Tolimán	10	San Lucas Tolimán	6	Junio	2023-06-29T00:00:00	2024-11-08T21:00:00	5	Humedad	84
132765	7	Sololá	713	San Lucas Tolimán	10	San Lucas Tolimán	6	Junio	2023-06-29T00:00:00	2024-11-08T21:00:00	6	Velocidad del viento	1.6
132766	7	Sololá	713	San Lucas Tolimán	10	San Lucas Tolimán	6	Junio	2023-06-29T00:00:00	2024-11-08T21:00:00	7	Dirección del viento	1.61
132767	7	Sololá	713	San Lucas Tolimán	10	San Lucas Tolimán	6	Junio	2023-06-29T00:00:00	2024-11-08T21:00:00	1	Precipitación	0
132768	7	Sololá	713	San Lucas Tolimán	10	San Lucas Tolimán	6	Junio	2023-06-29T00:00:00	2024-11-08T21:00:00	8	Radiación solar	0
132769	7	Sololá	713	San Lucas Tolimán	10	San Lucas Tolimán	6	Junio	2023-06-29T00:00:00	2024-11-08T22:00:00	2	Temperatura media	19.2
132770	7	Sololá	713	San Lucas Tolimán	10	San Lucas Tolimán	6	Junio	2023-06-29T00:00:00	2024-11-08T22:00:00	4	Temperatura máxima	19.7
132771	7	Sololá	713	San Lucas Tolimán	10	San Lucas Tolimán	6	Junio	2023-06-29T00:00:00	2024-11-08T22:00:00	3	Temperatura mínima	19.1
132772	7	Sololá	713	San Lucas Tolimán	10	San Lucas Tolimán	6	Junio	2023-06-29T00:00:00	2024-11-08T22:00:00	5	Humedad	83
132773	7	Sololá	713	San Lucas Tolimán	10	San Lucas Tolimán	6	Junio	2023-06-29T00:00:00	2024-11-08T22:00:00	6	Velocidad del viento	1.6
132774	7	Sololá	713	San Lucas Tolimán	10	San Lucas Tolimán	6	Junio	2023-06-29T00:00:00	2024-11-08T22:00:00	7	Dirección del viento	1.61
132775	7	Sololá	713	San Lucas Tolimán	10	San Lucas Tolimán	6	Junio	2023-06-29T00:00:00	2024-11-08T22:00:00	1	Precipitación	0
132776	7	Sololá	713	San Lucas Tolimán	10	San Lucas Tolimán	6	Junio	2023-06-29T00:00:00	2024-11-08T22:00:00	8	Radiación solar	0
132777	7	Sololá	713	San Lucas Tolimán	10	San Lucas Tolimán	6	Junio	2023-06-29T00:00:00	2024-11-08T23:00:00	2	Temperatura media	19.5
132778	7	Sololá	713	San Lucas Tolimán	10	San Lucas Tolimán	6	Junio	2023-06-29T00:00:00	2024-11-08T23:00:00	4	Temperatura máxima	19.5
132779	7	Sololá	713	San Lucas Tolimán	10	San Lucas Tolimán	6	Junio	2023-06-29T00:00:00	2024-11-08T23:00:00	3	Temperatura mínima	19
132780	7	Sololá	713	San Lucas Tolimán	10	San Lucas Tolimán	6	Junio	2023-06-29T00:00:00	2024-11-08T23:00:00	5	Humedad	81
132781	7	Sololá	713	San Lucas Tolimán	10	San Lucas Tolimán	6	Junio	2023-06-29T00:00:00	2024-11-08T23:00:00	6	Velocidad del viento	1.6
132782	7	Sololá	713	San Lucas Tolimán	10	San Lucas Tolimán	6	Junio	2023-06-29T00:00:00	2024-11-08T23:00:00	7	Dirección del viento	1.61
132783	7	Sololá	713	San Lucas Tolimán	10	San Lucas Tolimán	6	Junio	2023-06-29T00:00:00	2024-11-08T23:00:00	1	Precipitación	0
132784	7	Sololá	713	San Lucas Tolimán	10	San Lucas Tolimán	6	Junio	2023-06-29T00:00:00	2024-11-08T23:00:00	8	Radiación solar	0
132785	7	Sololá	713	San Lucas Tolimán	10	San Lucas Tolimán	6	Junio	2023-06-30T00:00:00	2024-11-08T00:00:00	2	Temperatura media	19.3
132786	7	Sololá	713	San Lucas Tolimán	10	San Lucas Tolimán	6	Junio	2023-06-30T00:00:00	2024-11-08T00:00:00	4	Temperatura máxima	19.5
132787	7	Sololá	713	San Lucas Tolimán	10	San Lucas Tolimán	6	Junio	2023-06-30T00:00:00	2024-11-08T00:00:00	3	Temperatura mínima	19.2
132788	7	Sololá	713	San Lucas Tolimán	10	San Lucas Tolimán	6	Junio	2023-06-30T00:00:00	2024-11-08T00:00:00	5	Humedad	84
132789	7	Sololá	713	San Lucas Tolimán	10	San Lucas Tolimán	6	Junio	2023-06-30T00:00:00	2024-11-08T00:00:00	6	Velocidad del viento	0
132790	7	Sololá	713	San Lucas Tolimán	10	San Lucas Tolimán	6	Junio	2023-06-30T00:00:00	2024-11-08T00:00:00	7	Dirección del viento	0
132791	7	Sololá	713	San Lucas Tolimán	10	San Lucas Tolimán	6	Junio	2023-06-30T00:00:00	2024-11-08T00:00:00	1	Precipitación	0
132792	7	Sololá	713	San Lucas Tolimán	10	San Lucas Tolimán	6	Junio	2023-06-30T00:00:00	2024-11-08T00:00:00	8	Radiación solar	0
132793	7	Sololá	713	San Lucas Tolimán	10	San Lucas Tolimán	6	Junio	2023-06-30T00:00:00	2024-11-08T01:00:00	2	Temperatura media	18.8
132794	7	Sololá	713	San Lucas Tolimán	10	San Lucas Tolimán	6	Junio	2023-06-30T00:00:00	2024-11-08T01:00:00	4	Temperatura máxima	19.3
132795	7	Sololá	713	San Lucas Tolimán	10	San Lucas Tolimán	6	Junio	2023-06-30T00:00:00	2024-11-08T01:00:00	3	Temperatura mínima	18.7
132796	7	Sololá	713	San Lucas Tolimán	10	San Lucas Tolimán	6	Junio	2023-06-30T00:00:00	2024-11-08T01:00:00	5	Humedad	61
132797	7	Sololá	713	San Lucas Tolimán	10	San Lucas Tolimán	6	Junio	2023-06-30T00:00:00	2024-11-08T01:00:00	6	Velocidad del viento	1.6
132798	7	Sololá	713	San Lucas Tolimán	10	San Lucas Tolimán	6	Junio	2023-06-30T00:00:00	2024-11-08T01:00:00	7	Dirección del viento	1.61
132799	7	Sololá	713	San Lucas Tolimán	10	San Lucas Tolimán	6	Junio	2023-06-30T00:00:00	2024-11-08T01:00:00	1	Precipitación	0
132800	7	Sololá	713	San Lucas Tolimán	10	San Lucas Tolimán	6	Junio	2023-06-30T00:00:00	2024-11-08T01:00:00	8	Radiación solar	0
132801	7	Sololá	713	San Lucas Tolimán	10	San Lucas Tolimán	6	Junio	2023-06-30T00:00:00	2024-11-08T02:00:00	2	Temperatura media	18.8
132802	7	Sololá	713	San Lucas Tolimán	10	San Lucas Tolimán	6	Junio	2023-06-30T00:00:00	2024-11-08T02:00:00	4	Temperatura máxima	19
132803	7	Sololá	713	San Lucas Tolimán	10	San Lucas Tolimán	6	Junio	2023-06-30T00:00:00	2024-11-08T02:00:00	3	Temperatura mínima	18.7
132804	7	Sololá	713	San Lucas Tolimán	10	San Lucas Tolimán	6	Junio	2023-06-30T00:00:00	2024-11-08T02:00:00	5	Humedad	61
132805	7	Sololá	713	San Lucas Tolimán	10	San Lucas Tolimán	6	Junio	2023-06-30T00:00:00	2024-11-08T02:00:00	6	Velocidad del viento	1.6
132806	7	Sololá	713	San Lucas Tolimán	10	San Lucas Tolimán	6	Junio	2023-06-30T00:00:00	2024-11-08T02:00:00	7	Dirección del viento	1.61
132807	7	Sololá	713	San Lucas Tolimán	10	San Lucas Tolimán	6	Junio	2023-06-30T00:00:00	2024-11-08T02:00:00	1	Precipitación	0
132808	7	Sololá	713	San Lucas Tolimán	10	San Lucas Tolimán	6	Junio	2023-06-30T00:00:00	2024-11-08T02:00:00	8	Radiación solar	0
132809	7	Sololá	713	San Lucas Tolimán	10	San Lucas Tolimán	6	Junio	2023-06-30T00:00:00	2024-11-08T03:00:00	2	Temperatura media	17.8
132810	7	Sololá	713	San Lucas Tolimán	10	San Lucas Tolimán	6	Junio	2023-06-30T00:00:00	2024-11-08T03:00:00	4	Temperatura máxima	19
132811	7	Sololá	713	San Lucas Tolimán	10	San Lucas Tolimán	6	Junio	2023-06-30T00:00:00	2024-11-08T03:00:00	3	Temperatura mínima	17.8
132812	7	Sololá	713	San Lucas Tolimán	10	San Lucas Tolimán	6	Junio	2023-06-30T00:00:00	2024-11-08T03:00:00	5	Humedad	62
132813	7	Sololá	713	San Lucas Tolimán	10	San Lucas Tolimán	6	Junio	2023-06-30T00:00:00	2024-11-08T03:00:00	6	Velocidad del viento	0
132814	7	Sololá	713	San Lucas Tolimán	10	San Lucas Tolimán	6	Junio	2023-06-30T00:00:00	2024-11-08T03:00:00	7	Dirección del viento	0
132815	7	Sololá	713	San Lucas Tolimán	10	San Lucas Tolimán	6	Junio	2023-06-30T00:00:00	2024-11-08T03:00:00	1	Precipitación	0
132816	7	Sololá	713	San Lucas Tolimán	10	San Lucas Tolimán	6	Junio	2023-06-30T00:00:00	2024-11-08T03:00:00	8	Radiación solar	0
132817	7	Sololá	713	San Lucas Tolimán	10	San Lucas Tolimán	6	Junio	2023-06-30T00:00:00	2024-11-08T04:00:00	2	Temperatura media	17.9
132818	7	Sololá	713	San Lucas Tolimán	10	San Lucas Tolimán	6	Junio	2023-06-30T00:00:00	2024-11-08T04:00:00	4	Temperatura máxima	18.1
132819	7	Sololá	713	San Lucas Tolimán	10	San Lucas Tolimán	6	Junio	2023-06-30T00:00:00	2024-11-08T04:00:00	3	Temperatura mínima	17.7
132820	7	Sololá	713	San Lucas Tolimán	10	San Lucas Tolimán	6	Junio	2023-06-30T00:00:00	2024-11-08T04:00:00	5	Humedad	63
132821	7	Sololá	713	San Lucas Tolimán	10	San Lucas Tolimán	6	Junio	2023-06-30T00:00:00	2024-11-08T04:00:00	6	Velocidad del viento	0
132822	7	Sololá	713	San Lucas Tolimán	10	San Lucas Tolimán	6	Junio	2023-06-30T00:00:00	2024-11-08T04:00:00	7	Dirección del viento	0
132823	7	Sololá	713	San Lucas Tolimán	10	San Lucas Tolimán	6	Junio	2023-06-30T00:00:00	2024-11-08T04:00:00	1	Precipitación	0
132824	7	Sololá	713	San Lucas Tolimán	10	San Lucas Tolimán	6	Junio	2023-06-30T00:00:00	2024-11-08T04:00:00	8	Radiación solar	0
132825	7	Sololá	713	San Lucas Tolimán	10	San Lucas Tolimán	6	Junio	2023-06-30T00:00:00	2024-11-08T05:00:00	2	Temperatura media	17.1
132826	7	Sololá	713	San Lucas Tolimán	10	San Lucas Tolimán	6	Junio	2023-06-30T00:00:00	2024-11-08T05:00:00	4	Temperatura máxima	17.9
132827	7	Sololá	713	San Lucas Tolimán	10	San Lucas Tolimán	6	Junio	2023-06-30T00:00:00	2024-11-08T05:00:00	3	Temperatura mínima	17.1
132828	7	Sololá	713	San Lucas Tolimán	10	San Lucas Tolimán	6	Junio	2023-06-30T00:00:00	2024-11-08T05:00:00	5	Humedad	64
132829	7	Sololá	713	San Lucas Tolimán	10	San Lucas Tolimán	6	Junio	2023-06-30T00:00:00	2024-11-08T05:00:00	6	Velocidad del viento	0
132830	7	Sololá	713	San Lucas Tolimán	10	San Lucas Tolimán	6	Junio	2023-06-30T00:00:00	2024-11-08T05:00:00	7	Dirección del viento	0
132831	7	Sololá	713	San Lucas Tolimán	10	San Lucas Tolimán	6	Junio	2023-06-30T00:00:00	2024-11-08T05:00:00	1	Precipitación	0
132832	7	Sololá	713	San Lucas Tolimán	10	San Lucas Tolimán	6	Junio	2023-06-30T00:00:00	2024-11-08T05:00:00	8	Radiación solar	0
132833	7	Sololá	713	San Lucas Tolimán	10	San Lucas Tolimán	6	Junio	2023-06-30T00:00:00	2024-11-08T06:00:00	2	Temperatura media	17.2
132834	7	Sololá	713	San Lucas Tolimán	10	San Lucas Tolimán	6	Junio	2023-06-30T00:00:00	2024-11-08T06:00:00	4	Temperatura máxima	17.4
132835	7	Sololá	713	San Lucas Tolimán	10	San Lucas Tolimán	6	Junio	2023-06-30T00:00:00	2024-11-08T06:00:00	3	Temperatura mínima	17
132836	7	Sololá	713	San Lucas Tolimán	10	San Lucas Tolimán	6	Junio	2023-06-30T00:00:00	2024-11-08T06:00:00	5	Humedad	63
132837	7	Sololá	713	San Lucas Tolimán	10	San Lucas Tolimán	6	Junio	2023-06-30T00:00:00	2024-11-08T06:00:00	6	Velocidad del viento	1.6
132838	7	Sololá	713	San Lucas Tolimán	10	San Lucas Tolimán	6	Junio	2023-06-30T00:00:00	2024-11-08T06:00:00	7	Dirección del viento	1.61
132839	7	Sololá	713	San Lucas Tolimán	10	San Lucas Tolimán	6	Junio	2023-06-30T00:00:00	2024-11-08T06:00:00	1	Precipitación	0
132840	7	Sololá	713	San Lucas Tolimán	10	San Lucas Tolimán	6	Junio	2023-06-30T00:00:00	2024-11-08T06:00:00	8	Radiación solar	2
132841	7	Sololá	713	San Lucas Tolimán	10	San Lucas Tolimán	6	Junio	2023-06-30T00:00:00	2024-11-08T07:00:00	2	Temperatura media	21.1
132842	7	Sololá	713	San Lucas Tolimán	10	San Lucas Tolimán	6	Junio	2023-06-30T00:00:00	2024-11-08T07:00:00	4	Temperatura máxima	21.1
132843	7	Sololá	713	San Lucas Tolimán	10	San Lucas Tolimán	6	Junio	2023-06-30T00:00:00	2024-11-08T07:00:00	3	Temperatura mínima	17.2
132844	7	Sololá	713	San Lucas Tolimán	10	San Lucas Tolimán	6	Junio	2023-06-30T00:00:00	2024-11-08T07:00:00	5	Humedad	51
132845	7	Sololá	713	San Lucas Tolimán	10	San Lucas Tolimán	6	Junio	2023-06-30T00:00:00	2024-11-08T07:00:00	6	Velocidad del viento	3.2
132846	7	Sololá	713	San Lucas Tolimán	10	San Lucas Tolimán	6	Junio	2023-06-30T00:00:00	2024-11-08T07:00:00	7	Dirección del viento	3.22
132847	7	Sololá	713	San Lucas Tolimán	10	San Lucas Tolimán	6	Junio	2023-06-30T00:00:00	2024-11-08T07:00:00	1	Precipitación	0
132848	7	Sololá	713	San Lucas Tolimán	10	San Lucas Tolimán	6	Junio	2023-06-30T00:00:00	2024-11-08T07:00:00	8	Radiación solar	126
132849	7	Sololá	713	San Lucas Tolimán	10	San Lucas Tolimán	6	Junio	2023-06-30T00:00:00	2024-11-08T08:00:00	2	Temperatura media	22.4
132850	7	Sololá	713	San Lucas Tolimán	10	San Lucas Tolimán	6	Junio	2023-06-30T00:00:00	2024-11-08T08:00:00	4	Temperatura máxima	22.5
132851	7	Sololá	713	San Lucas Tolimán	10	San Lucas Tolimán	6	Junio	2023-06-30T00:00:00	2024-11-08T08:00:00	3	Temperatura mínima	21.1
132852	7	Sololá	713	San Lucas Tolimán	10	San Lucas Tolimán	6	Junio	2023-06-30T00:00:00	2024-11-08T08:00:00	5	Humedad	46
132853	7	Sololá	713	San Lucas Tolimán	10	San Lucas Tolimán	6	Junio	2023-06-30T00:00:00	2024-11-08T08:00:00	6	Velocidad del viento	6.4
132854	7	Sololá	713	San Lucas Tolimán	10	San Lucas Tolimán	6	Junio	2023-06-30T00:00:00	2024-11-08T08:00:00	7	Dirección del viento	6.44
132855	7	Sololá	713	San Lucas Tolimán	10	San Lucas Tolimán	6	Junio	2023-06-30T00:00:00	2024-11-08T08:00:00	1	Precipitación	0
132856	7	Sololá	713	San Lucas Tolimán	10	San Lucas Tolimán	6	Junio	2023-06-30T00:00:00	2024-11-08T08:00:00	8	Radiación solar	397
132857	7	Sololá	713	San Lucas Tolimán	10	San Lucas Tolimán	6	Junio	2023-06-30T00:00:00	2024-11-08T09:00:00	2	Temperatura media	22.9
132858	7	Sololá	713	San Lucas Tolimán	10	San Lucas Tolimán	6	Junio	2023-06-30T00:00:00	2024-11-08T09:00:00	4	Temperatura máxima	23.4
132859	7	Sololá	713	San Lucas Tolimán	10	San Lucas Tolimán	6	Junio	2023-06-30T00:00:00	2024-11-08T09:00:00	3	Temperatura mínima	21.8
132860	7	Sololá	713	San Lucas Tolimán	10	San Lucas Tolimán	6	Junio	2023-06-30T00:00:00	2024-11-08T09:00:00	5	Humedad	46
132861	7	Sololá	713	San Lucas Tolimán	10	San Lucas Tolimán	6	Junio	2023-06-30T00:00:00	2024-11-08T09:00:00	6	Velocidad del viento	4.8
132862	7	Sololá	713	San Lucas Tolimán	10	San Lucas Tolimán	6	Junio	2023-06-30T00:00:00	2024-11-08T09:00:00	7	Dirección del viento	4.83
132863	7	Sololá	713	San Lucas Tolimán	10	San Lucas Tolimán	6	Junio	2023-06-30T00:00:00	2024-11-08T09:00:00	1	Precipitación	0
132864	7	Sololá	713	San Lucas Tolimán	10	San Lucas Tolimán	6	Junio	2023-06-30T00:00:00	2024-11-08T09:00:00	8	Radiación solar	554
132865	7	Sololá	713	San Lucas Tolimán	10	San Lucas Tolimán	6	Junio	2023-06-30T00:00:00	2024-11-08T10:00:00	2	Temperatura media	24.4
132866	7	Sololá	713	San Lucas Tolimán	10	San Lucas Tolimán	6	Junio	2023-06-30T00:00:00	2024-11-08T10:00:00	4	Temperatura máxima	24.4
132867	7	Sololá	713	San Lucas Tolimán	10	San Lucas Tolimán	6	Junio	2023-06-30T00:00:00	2024-11-08T10:00:00	3	Temperatura mínima	22.9
132868	7	Sololá	713	San Lucas Tolimán	10	San Lucas Tolimán	6	Junio	2023-06-30T00:00:00	2024-11-08T10:00:00	5	Humedad	47
132869	7	Sololá	713	San Lucas Tolimán	10	San Lucas Tolimán	6	Junio	2023-06-30T00:00:00	2024-11-08T10:00:00	6	Velocidad del viento	4.8
132870	7	Sololá	713	San Lucas Tolimán	10	San Lucas Tolimán	6	Junio	2023-06-30T00:00:00	2024-11-08T10:00:00	7	Dirección del viento	4.83
132871	7	Sololá	713	San Lucas Tolimán	10	San Lucas Tolimán	6	Junio	2023-06-30T00:00:00	2024-11-08T10:00:00	1	Precipitación	0
132872	7	Sololá	713	San Lucas Tolimán	10	San Lucas Tolimán	6	Junio	2023-06-30T00:00:00	2024-11-08T10:00:00	8	Radiación solar	790
132873	7	Sololá	713	San Lucas Tolimán	10	San Lucas Tolimán	6	Junio	2023-06-30T00:00:00	2024-11-08T11:00:00	2	Temperatura media	24.7
132874	7	Sololá	713	San Lucas Tolimán	10	San Lucas Tolimán	6	Junio	2023-06-30T00:00:00	2024-11-08T11:00:00	4	Temperatura máxima	25.5
132875	7	Sololá	713	San Lucas Tolimán	10	San Lucas Tolimán	6	Junio	2023-06-30T00:00:00	2024-11-08T11:00:00	3	Temperatura mínima	24.4
132876	7	Sololá	713	San Lucas Tolimán	10	San Lucas Tolimán	6	Junio	2023-06-30T00:00:00	2024-11-08T11:00:00	5	Humedad	51
132877	7	Sololá	713	San Lucas Tolimán	10	San Lucas Tolimán	6	Junio	2023-06-30T00:00:00	2024-11-08T11:00:00	6	Velocidad del viento	8
132878	7	Sololá	713	San Lucas Tolimán	10	San Lucas Tolimán	6	Junio	2023-06-30T00:00:00	2024-11-08T11:00:00	7	Dirección del viento	8.05
132879	7	Sololá	713	San Lucas Tolimán	10	San Lucas Tolimán	6	Junio	2023-06-30T00:00:00	2024-11-08T11:00:00	1	Precipitación	0
132880	7	Sololá	713	San Lucas Tolimán	10	San Lucas Tolimán	6	Junio	2023-06-30T00:00:00	2024-11-08T11:00:00	8	Radiación solar	987
132881	7	Sololá	713	San Lucas Tolimán	10	San Lucas Tolimán	6	Junio	2023-06-30T00:00:00	2024-11-08T12:00:00	2	Temperatura media	24.9
132882	7	Sololá	713	San Lucas Tolimán	10	San Lucas Tolimán	6	Junio	2023-06-30T00:00:00	2024-11-08T12:00:00	4	Temperatura máxima	25.8
132883	7	Sololá	713	San Lucas Tolimán	10	San Lucas Tolimán	6	Junio	2023-06-30T00:00:00	2024-11-08T12:00:00	3	Temperatura mínima	24.6
132884	7	Sololá	713	San Lucas Tolimán	10	San Lucas Tolimán	6	Junio	2023-06-30T00:00:00	2024-11-08T12:00:00	5	Humedad	54
132885	7	Sololá	713	San Lucas Tolimán	10	San Lucas Tolimán	6	Junio	2023-06-30T00:00:00	2024-11-08T12:00:00	6	Velocidad del viento	8
132886	7	Sololá	713	San Lucas Tolimán	10	San Lucas Tolimán	6	Junio	2023-06-30T00:00:00	2024-11-08T12:00:00	7	Dirección del viento	8.05
132887	7	Sololá	713	San Lucas Tolimán	10	San Lucas Tolimán	6	Junio	2023-06-30T00:00:00	2024-11-08T12:00:00	1	Precipitación	0
132888	7	Sololá	713	San Lucas Tolimán	10	San Lucas Tolimán	6	Junio	2023-06-30T00:00:00	2024-11-08T12:00:00	8	Radiación solar	1033
132889	7	Sololá	713	San Lucas Tolimán	10	San Lucas Tolimán	6	Junio	2023-06-30T00:00:00	2024-11-08T13:00:00	2	Temperatura media	25.3
132890	7	Sololá	713	San Lucas Tolimán	10	San Lucas Tolimán	6	Junio	2023-06-30T00:00:00	2024-11-08T13:00:00	4	Temperatura máxima	25.9
132891	7	Sololá	713	San Lucas Tolimán	10	San Lucas Tolimán	6	Junio	2023-06-30T00:00:00	2024-11-08T13:00:00	3	Temperatura mínima	24.8
132892	7	Sololá	713	San Lucas Tolimán	10	San Lucas Tolimán	6	Junio	2023-06-30T00:00:00	2024-11-08T13:00:00	5	Humedad	53
132893	7	Sololá	713	San Lucas Tolimán	10	San Lucas Tolimán	6	Junio	2023-06-30T00:00:00	2024-11-08T13:00:00	6	Velocidad del viento	9.7
132894	7	Sololá	713	San Lucas Tolimán	10	San Lucas Tolimán	6	Junio	2023-06-30T00:00:00	2024-11-08T13:00:00	7	Dirección del viento	9.66
132895	7	Sololá	713	San Lucas Tolimán	10	San Lucas Tolimán	6	Junio	2023-06-30T00:00:00	2024-11-08T13:00:00	1	Precipitación	0
132896	7	Sololá	713	San Lucas Tolimán	10	San Lucas Tolimán	6	Junio	2023-06-30T00:00:00	2024-11-08T13:00:00	8	Radiación solar	1106
132897	7	Sololá	713	San Lucas Tolimán	10	San Lucas Tolimán	6	Junio	2023-06-30T00:00:00	2024-11-08T14:00:00	2	Temperatura media	24.9
132898	7	Sololá	713	San Lucas Tolimán	10	San Lucas Tolimán	6	Junio	2023-06-30T00:00:00	2024-11-08T14:00:00	4	Temperatura máxima	25.4
132899	7	Sololá	713	San Lucas Tolimán	10	San Lucas Tolimán	6	Junio	2023-06-30T00:00:00	2024-11-08T14:00:00	3	Temperatura mínima	24.8
132900	7	Sololá	713	San Lucas Tolimán	10	San Lucas Tolimán	6	Junio	2023-06-30T00:00:00	2024-11-08T14:00:00	5	Humedad	54
132901	7	Sololá	713	San Lucas Tolimán	10	San Lucas Tolimán	6	Junio	2023-06-30T00:00:00	2024-11-08T14:00:00	6	Velocidad del viento	11.3
132902	7	Sololá	713	San Lucas Tolimán	10	San Lucas Tolimán	6	Junio	2023-06-30T00:00:00	2024-11-08T14:00:00	7	Dirección del viento	11.27
132903	7	Sololá	713	San Lucas Tolimán	10	San Lucas Tolimán	6	Junio	2023-06-30T00:00:00	2024-11-08T14:00:00	1	Precipitación	0
132904	7	Sololá	713	San Lucas Tolimán	10	San Lucas Tolimán	6	Junio	2023-06-30T00:00:00	2024-11-08T14:00:00	8	Radiación solar	1062
132905	7	Sololá	713	San Lucas Tolimán	10	San Lucas Tolimán	6	Junio	2023-06-30T00:00:00	2024-11-08T15:00:00	2	Temperatura media	23.4
132906	7	Sololá	713	San Lucas Tolimán	10	San Lucas Tolimán	6	Junio	2023-06-30T00:00:00	2024-11-08T15:00:00	4	Temperatura máxima	25
132907	7	Sololá	713	San Lucas Tolimán	10	San Lucas Tolimán	6	Junio	2023-06-30T00:00:00	2024-11-08T15:00:00	3	Temperatura mínima	23.4
132908	7	Sololá	713	San Lucas Tolimán	10	San Lucas Tolimán	6	Junio	2023-06-30T00:00:00	2024-11-08T15:00:00	5	Humedad	59
132909	7	Sololá	713	San Lucas Tolimán	10	San Lucas Tolimán	6	Junio	2023-06-30T00:00:00	2024-11-08T15:00:00	6	Velocidad del viento	11.3
132910	7	Sololá	713	San Lucas Tolimán	10	San Lucas Tolimán	6	Junio	2023-06-30T00:00:00	2024-11-08T15:00:00	7	Dirección del viento	11.27
132911	7	Sololá	713	San Lucas Tolimán	10	San Lucas Tolimán	6	Junio	2023-06-30T00:00:00	2024-11-08T15:00:00	1	Precipitación	0
132912	7	Sololá	713	San Lucas Tolimán	10	San Lucas Tolimán	6	Junio	2023-06-30T00:00:00	2024-11-08T15:00:00	8	Radiación solar	803
132913	7	Sololá	713	San Lucas Tolimán	10	San Lucas Tolimán	6	Junio	2023-06-30T00:00:00	2024-11-08T16:00:00	2	Temperatura media	21.6
132914	7	Sololá	713	San Lucas Tolimán	10	San Lucas Tolimán	6	Junio	2023-06-30T00:00:00	2024-11-08T16:00:00	4	Temperatura máxima	24.5
132915	7	Sololá	713	San Lucas Tolimán	10	San Lucas Tolimán	6	Junio	2023-06-30T00:00:00	2024-11-08T16:00:00	3	Temperatura mínima	21.6
132916	7	Sololá	713	San Lucas Tolimán	10	San Lucas Tolimán	6	Junio	2023-06-30T00:00:00	2024-11-08T16:00:00	5	Humedad	50
132917	7	Sololá	713	San Lucas Tolimán	10	San Lucas Tolimán	6	Junio	2023-06-30T00:00:00	2024-11-08T16:00:00	6	Velocidad del viento	14.5
132918	7	Sololá	713	San Lucas Tolimán	10	San Lucas Tolimán	6	Junio	2023-06-30T00:00:00	2024-11-08T16:00:00	7	Dirección del viento	14.48
132919	7	Sololá	713	San Lucas Tolimán	10	San Lucas Tolimán	6	Junio	2023-06-30T00:00:00	2024-11-08T16:00:00	1	Precipitación	0
132920	7	Sololá	713	San Lucas Tolimán	10	San Lucas Tolimán	6	Junio	2023-06-30T00:00:00	2024-11-08T16:00:00	8	Radiación solar	818
132921	7	Sololá	713	San Lucas Tolimán	10	San Lucas Tolimán	6	Junio	2023-06-30T00:00:00	2024-11-08T17:00:00	2	Temperatura media	21.8
132922	7	Sololá	713	San Lucas Tolimán	10	San Lucas Tolimán	6	Junio	2023-06-30T00:00:00	2024-11-08T17:00:00	4	Temperatura máxima	23.6
132923	7	Sololá	713	San Lucas Tolimán	10	San Lucas Tolimán	6	Junio	2023-06-30T00:00:00	2024-11-08T17:00:00	3	Temperatura mínima	21.6
132924	7	Sololá	713	San Lucas Tolimán	10	San Lucas Tolimán	6	Junio	2023-06-30T00:00:00	2024-11-08T17:00:00	5	Humedad	56
132925	7	Sololá	713	San Lucas Tolimán	10	San Lucas Tolimán	6	Junio	2023-06-30T00:00:00	2024-11-08T17:00:00	6	Velocidad del viento	11.3
132926	7	Sololá	713	San Lucas Tolimán	10	San Lucas Tolimán	6	Junio	2023-06-30T00:00:00	2024-11-08T17:00:00	7	Dirección del viento	11.27
132927	7	Sololá	713	San Lucas Tolimán	10	San Lucas Tolimán	6	Junio	2023-06-30T00:00:00	2024-11-08T17:00:00	1	Precipitación	0
132928	7	Sololá	713	San Lucas Tolimán	10	San Lucas Tolimán	6	Junio	2023-06-30T00:00:00	2024-11-08T17:00:00	8	Radiación solar	538
132929	7	Sololá	713	San Lucas Tolimán	10	San Lucas Tolimán	6	Junio	2023-06-30T00:00:00	2024-11-08T18:00:00	2	Temperatura media	21.6
132930	7	Sololá	713	San Lucas Tolimán	10	San Lucas Tolimán	6	Junio	2023-06-30T00:00:00	2024-11-08T18:00:00	4	Temperatura máxima	21.9
132931	7	Sololá	713	San Lucas Tolimán	10	San Lucas Tolimán	6	Junio	2023-06-30T00:00:00	2024-11-08T18:00:00	3	Temperatura mínima	21.3
132932	7	Sololá	713	San Lucas Tolimán	10	San Lucas Tolimán	6	Junio	2023-06-30T00:00:00	2024-11-08T18:00:00	5	Humedad	54
132933	7	Sololá	713	San Lucas Tolimán	10	San Lucas Tolimán	6	Junio	2023-06-30T00:00:00	2024-11-08T18:00:00	6	Velocidad del viento	9.7
132934	7	Sololá	713	San Lucas Tolimán	10	San Lucas Tolimán	6	Junio	2023-06-30T00:00:00	2024-11-08T18:00:00	7	Dirección del viento	9.66
132935	7	Sololá	713	San Lucas Tolimán	10	San Lucas Tolimán	6	Junio	2023-06-30T00:00:00	2024-11-08T18:00:00	1	Precipitación	0
132936	7	Sololá	713	San Lucas Tolimán	10	San Lucas Tolimán	6	Junio	2023-06-30T00:00:00	2024-11-08T18:00:00	8	Radiación solar	129
132937	7	Sololá	713	San Lucas Tolimán	10	San Lucas Tolimán	6	Junio	2023-06-30T00:00:00	2024-11-08T19:00:00	2	Temperatura media	20.9
132938	7	Sololá	713	San Lucas Tolimán	10	San Lucas Tolimán	6	Junio	2023-06-30T00:00:00	2024-11-08T19:00:00	4	Temperatura máxima	21.6
132939	7	Sololá	713	San Lucas Tolimán	10	San Lucas Tolimán	6	Junio	2023-06-30T00:00:00	2024-11-08T19:00:00	3	Temperatura mínima	20.8
132940	7	Sololá	713	San Lucas Tolimán	10	San Lucas Tolimán	6	Junio	2023-06-30T00:00:00	2024-11-08T19:00:00	5	Humedad	58
132941	7	Sololá	713	San Lucas Tolimán	10	San Lucas Tolimán	6	Junio	2023-06-30T00:00:00	2024-11-08T19:00:00	6	Velocidad del viento	1.6
132942	7	Sololá	713	San Lucas Tolimán	10	San Lucas Tolimán	6	Junio	2023-06-30T00:00:00	2024-11-08T19:00:00	7	Dirección del viento	1.61
132943	7	Sololá	713	San Lucas Tolimán	10	San Lucas Tolimán	6	Junio	2023-06-30T00:00:00	2024-11-08T19:00:00	1	Precipitación	0
132944	7	Sololá	713	San Lucas Tolimán	10	San Lucas Tolimán	6	Junio	2023-06-30T00:00:00	2024-11-08T19:00:00	8	Radiación solar	0
132945	7	Sololá	713	San Lucas Tolimán	10	San Lucas Tolimán	6	Junio	2023-06-30T00:00:00	2024-11-08T20:00:00	2	Temperatura media	20.8
132946	7	Sololá	713	San Lucas Tolimán	10	San Lucas Tolimán	6	Junio	2023-06-30T00:00:00	2024-11-08T20:00:00	4	Temperatura máxima	20.9
132947	7	Sololá	713	San Lucas Tolimán	10	San Lucas Tolimán	6	Junio	2023-06-30T00:00:00	2024-11-08T20:00:00	3	Temperatura mínima	20.6
132948	7	Sololá	713	San Lucas Tolimán	10	San Lucas Tolimán	6	Junio	2023-06-30T00:00:00	2024-11-08T20:00:00	5	Humedad	61
132949	7	Sololá	713	San Lucas Tolimán	10	San Lucas Tolimán	6	Junio	2023-06-30T00:00:00	2024-11-08T20:00:00	6	Velocidad del viento	3.2
132950	7	Sololá	713	San Lucas Tolimán	10	San Lucas Tolimán	6	Junio	2023-06-30T00:00:00	2024-11-08T20:00:00	7	Dirección del viento	3.22
132951	7	Sololá	713	San Lucas Tolimán	10	San Lucas Tolimán	6	Junio	2023-06-30T00:00:00	2024-11-08T20:00:00	1	Precipitación	0
132952	7	Sololá	713	San Lucas Tolimán	10	San Lucas Tolimán	6	Junio	2023-06-30T00:00:00	2024-11-08T20:00:00	8	Radiación solar	0
132953	7	Sololá	713	San Lucas Tolimán	10	San Lucas Tolimán	6	Junio	2023-06-30T00:00:00	2024-11-08T21:00:00	2	Temperatura media	21.3
132954	7	Sololá	713	San Lucas Tolimán	10	San Lucas Tolimán	6	Junio	2023-06-30T00:00:00	2024-11-08T21:00:00	4	Temperatura máxima	21.4
132955	7	Sololá	713	San Lucas Tolimán	10	San Lucas Tolimán	6	Junio	2023-06-30T00:00:00	2024-11-08T21:00:00	3	Temperatura mínima	20.8
132956	7	Sololá	713	San Lucas Tolimán	10	San Lucas Tolimán	6	Junio	2023-06-30T00:00:00	2024-11-08T21:00:00	5	Humedad	54
132957	7	Sololá	713	San Lucas Tolimán	10	San Lucas Tolimán	6	Junio	2023-06-30T00:00:00	2024-11-08T21:00:00	6	Velocidad del viento	3.2
132958	7	Sololá	713	San Lucas Tolimán	10	San Lucas Tolimán	6	Junio	2023-06-30T00:00:00	2024-11-08T21:00:00	7	Dirección del viento	3.22
132959	7	Sololá	713	San Lucas Tolimán	10	San Lucas Tolimán	6	Junio	2023-06-30T00:00:00	2024-11-08T21:00:00	1	Precipitación	0
132960	7	Sololá	713	San Lucas Tolimán	10	San Lucas Tolimán	6	Junio	2023-06-30T00:00:00	2024-11-08T21:00:00	8	Radiación solar	0
132961	7	Sololá	713	San Lucas Tolimán	10	San Lucas Tolimán	6	Junio	2023-06-30T00:00:00	2024-11-08T22:00:00	2	Temperatura media	19.8
132962	7	Sololá	713	San Lucas Tolimán	10	San Lucas Tolimán	6	Junio	2023-06-30T00:00:00	2024-11-08T22:00:00	4	Temperatura máxima	21.4
132963	7	Sololá	713	San Lucas Tolimán	10	San Lucas Tolimán	6	Junio	2023-06-30T00:00:00	2024-11-08T22:00:00	3	Temperatura mínima	19.8
132964	7	Sololá	713	San Lucas Tolimán	10	San Lucas Tolimán	6	Junio	2023-06-30T00:00:00	2024-11-08T22:00:00	5	Humedad	60
132965	7	Sololá	713	San Lucas Tolimán	10	San Lucas Tolimán	6	Junio	2023-06-30T00:00:00	2024-11-08T22:00:00	6	Velocidad del viento	3.2
132966	7	Sololá	713	San Lucas Tolimán	10	San Lucas Tolimán	6	Junio	2023-06-30T00:00:00	2024-11-08T22:00:00	7	Dirección del viento	3.22
132967	7	Sololá	713	San Lucas Tolimán	10	San Lucas Tolimán	6	Junio	2023-06-30T00:00:00	2024-11-08T22:00:00	1	Precipitación	0
132968	7	Sololá	713	San Lucas Tolimán	10	San Lucas Tolimán	6	Junio	2023-06-30T00:00:00	2024-11-08T22:00:00	8	Radiación solar	0
132969	7	Sololá	713	San Lucas Tolimán	10	San Lucas Tolimán	6	Junio	2023-06-30T00:00:00	2024-11-08T23:00:00	2	Temperatura media	19.8
132970	7	Sololá	713	San Lucas Tolimán	10	San Lucas Tolimán	6	Junio	2023-06-30T00:00:00	2024-11-08T23:00:00	4	Temperatura máxima	19.8
132971	7	Sololá	713	San Lucas Tolimán	10	San Lucas Tolimán	6	Junio	2023-06-30T00:00:00	2024-11-08T23:00:00	3	Temperatura mínima	19.1
132972	7	Sololá	713	San Lucas Tolimán	10	San Lucas Tolimán	6	Junio	2023-06-30T00:00:00	2024-11-08T23:00:00	5	Humedad	59
132973	7	Sololá	713	San Lucas Tolimán	10	San Lucas Tolimán	6	Junio	2023-06-30T00:00:00	2024-11-08T23:00:00	6	Velocidad del viento	3.2
132974	7	Sololá	713	San Lucas Tolimán	10	San Lucas Tolimán	6	Junio	2023-06-30T00:00:00	2024-11-08T23:00:00	7	Dirección del viento	3.22
132975	7	Sololá	713	San Lucas Tolimán	10	San Lucas Tolimán	6	Junio	2023-06-30T00:00:00	2024-11-08T23:00:00	1	Precipitación	0
132976	7	Sololá	713	San Lucas Tolimán	10	San Lucas Tolimán	6	Junio	2023-06-30T00:00:00	2024-11-08T23:00:00	8	Radiación solar	0
132977	7	Sololá	713	San Lucas Tolimán	10	San Lucas Tolimán	7	Julio	2023-01-07T00:00:00	2024-11-08T00:00:00	2	Temperatura media	20.4
132978	7	Sololá	713	San Lucas Tolimán	10	San Lucas Tolimán	7	Julio	2023-01-07T00:00:00	2024-11-08T00:00:00	4	Temperatura máxima	21.5
132979	7	Sololá	713	San Lucas Tolimán	10	San Lucas Tolimán	7	Julio	2023-01-07T00:00:00	2024-11-08T00:00:00	3	Temperatura mínima	19.8
132980	7	Sololá	713	San Lucas Tolimán	10	San Lucas Tolimán	7	Julio	2023-01-07T00:00:00	2024-11-08T00:00:00	5	Humedad	58
132981	7	Sololá	713	San Lucas Tolimán	10	San Lucas Tolimán	7	Julio	2023-01-07T00:00:00	2024-11-08T00:00:00	6	Velocidad del viento	6.4
132982	7	Sololá	713	San Lucas Tolimán	10	San Lucas Tolimán	7	Julio	2023-01-07T00:00:00	2024-11-08T00:00:00	7	Dirección del viento	6.44
132983	7	Sololá	713	San Lucas Tolimán	10	San Lucas Tolimán	7	Julio	2023-01-07T00:00:00	2024-11-08T00:00:00	1	Precipitación	0
132984	7	Sololá	713	San Lucas Tolimán	10	San Lucas Tolimán	7	Julio	2023-01-07T00:00:00	2024-11-08T00:00:00	8	Radiación solar	0
132985	7	Sololá	713	San Lucas Tolimán	10	San Lucas Tolimán	7	Julio	2023-01-07T00:00:00	2024-11-08T01:00:00	2	Temperatura media	20.6
132986	7	Sololá	713	San Lucas Tolimán	10	San Lucas Tolimán	7	Julio	2023-01-07T00:00:00	2024-11-08T01:00:00	4	Temperatura máxima	20.7
132987	7	Sololá	713	San Lucas Tolimán	10	San Lucas Tolimán	7	Julio	2023-01-07T00:00:00	2024-11-08T01:00:00	3	Temperatura mínima	20.1
132988	7	Sololá	713	San Lucas Tolimán	10	San Lucas Tolimán	7	Julio	2023-01-07T00:00:00	2024-11-08T01:00:00	5	Humedad	57
132989	7	Sololá	713	San Lucas Tolimán	10	San Lucas Tolimán	7	Julio	2023-01-07T00:00:00	2024-11-08T01:00:00	6	Velocidad del viento	4.8
132990	7	Sololá	713	San Lucas Tolimán	10	San Lucas Tolimán	7	Julio	2023-01-07T00:00:00	2024-11-08T01:00:00	7	Dirección del viento	4.83
132991	7	Sololá	713	San Lucas Tolimán	10	San Lucas Tolimán	7	Julio	2023-01-07T00:00:00	2024-11-08T01:00:00	1	Precipitación	0
132992	7	Sololá	713	San Lucas Tolimán	10	San Lucas Tolimán	7	Julio	2023-01-07T00:00:00	2024-11-08T01:00:00	8	Radiación solar	0
132993	7	Sololá	713	San Lucas Tolimán	10	San Lucas Tolimán	7	Julio	2023-01-07T00:00:00	2024-11-08T02:00:00	2	Temperatura media	20.1
132994	7	Sololá	713	San Lucas Tolimán	10	San Lucas Tolimán	7	Julio	2023-01-07T00:00:00	2024-11-08T02:00:00	4	Temperatura máxima	20.7
132995	7	Sololá	713	San Lucas Tolimán	10	San Lucas Tolimán	7	Julio	2023-01-07T00:00:00	2024-11-08T02:00:00	3	Temperatura mínima	20
132996	7	Sololá	713	San Lucas Tolimán	10	San Lucas Tolimán	7	Julio	2023-01-07T00:00:00	2024-11-08T02:00:00	5	Humedad	57
132997	7	Sololá	713	San Lucas Tolimán	10	San Lucas Tolimán	7	Julio	2023-01-07T00:00:00	2024-11-08T02:00:00	6	Velocidad del viento	3.2
132998	7	Sololá	713	San Lucas Tolimán	10	San Lucas Tolimán	7	Julio	2023-01-07T00:00:00	2024-11-08T02:00:00	7	Dirección del viento	3.22
132999	7	Sololá	713	San Lucas Tolimán	10	San Lucas Tolimán	7	Julio	2023-01-07T00:00:00	2024-11-08T02:00:00	1	Precipitación	0
133000	7	Sololá	713	San Lucas Tolimán	10	San Lucas Tolimán	7	Julio	2023-01-07T00:00:00	2024-11-08T02:00:00	8	Radiación solar	0
133001	7	Sololá	713	San Lucas Tolimán	10	San Lucas Tolimán	7	Julio	2023-01-07T00:00:00	2024-11-08T03:00:00	2	Temperatura media	18.8
133002	7	Sololá	713	San Lucas Tolimán	10	San Lucas Tolimán	7	Julio	2023-01-07T00:00:00	2024-11-08T03:00:00	4	Temperatura máxima	20.1
133003	7	Sololá	713	San Lucas Tolimán	10	San Lucas Tolimán	7	Julio	2023-01-07T00:00:00	2024-11-08T03:00:00	3	Temperatura mínima	18.7
133004	7	Sololá	713	San Lucas Tolimán	10	San Lucas Tolimán	7	Julio	2023-01-07T00:00:00	2024-11-08T03:00:00	5	Humedad	60
133005	7	Sololá	713	San Lucas Tolimán	10	San Lucas Tolimán	7	Julio	2023-01-07T00:00:00	2024-11-08T03:00:00	6	Velocidad del viento	0
133006	7	Sololá	713	San Lucas Tolimán	10	San Lucas Tolimán	7	Julio	2023-01-07T00:00:00	2024-11-08T03:00:00	7	Dirección del viento	0
133007	7	Sololá	713	San Lucas Tolimán	10	San Lucas Tolimán	7	Julio	2023-01-07T00:00:00	2024-11-08T03:00:00	1	Precipitación	0
133008	7	Sololá	713	San Lucas Tolimán	10	San Lucas Tolimán	7	Julio	2023-01-07T00:00:00	2024-11-08T03:00:00	8	Radiación solar	0
133009	7	Sololá	713	San Lucas Tolimán	10	San Lucas Tolimán	7	Julio	2023-01-07T00:00:00	2024-11-08T04:00:00	2	Temperatura media	17.2
133010	7	Sololá	713	San Lucas Tolimán	10	San Lucas Tolimán	7	Julio	2023-01-07T00:00:00	2024-11-08T04:00:00	4	Temperatura máxima	18.8
133011	7	Sololá	713	San Lucas Tolimán	10	San Lucas Tolimán	7	Julio	2023-01-07T00:00:00	2024-11-08T04:00:00	3	Temperatura mínima	17
133012	7	Sololá	713	San Lucas Tolimán	10	San Lucas Tolimán	7	Julio	2023-01-07T00:00:00	2024-11-08T04:00:00	5	Humedad	61
133013	7	Sololá	713	San Lucas Tolimán	10	San Lucas Tolimán	7	Julio	2023-01-07T00:00:00	2024-11-08T04:00:00	6	Velocidad del viento	1.6
133014	7	Sololá	713	San Lucas Tolimán	10	San Lucas Tolimán	7	Julio	2023-01-07T00:00:00	2024-11-08T04:00:00	7	Dirección del viento	1.61
133015	7	Sololá	713	San Lucas Tolimán	10	San Lucas Tolimán	7	Julio	2023-01-07T00:00:00	2024-11-08T04:00:00	1	Precipitación	0
133016	7	Sololá	713	San Lucas Tolimán	10	San Lucas Tolimán	7	Julio	2023-01-07T00:00:00	2024-11-08T04:00:00	8	Radiación solar	0
133017	7	Sololá	713	San Lucas Tolimán	10	San Lucas Tolimán	7	Julio	2023-01-07T00:00:00	2024-11-08T05:00:00	2	Temperatura media	16.2
133018	7	Sololá	713	San Lucas Tolimán	10	San Lucas Tolimán	7	Julio	2023-01-07T00:00:00	2024-11-08T05:00:00	4	Temperatura máxima	17.2
133019	7	Sololá	713	San Lucas Tolimán	10	San Lucas Tolimán	7	Julio	2023-01-07T00:00:00	2024-11-08T05:00:00	3	Temperatura mínima	16.2
133020	7	Sololá	713	San Lucas Tolimán	10	San Lucas Tolimán	7	Julio	2023-01-07T00:00:00	2024-11-08T05:00:00	5	Humedad	62
133021	7	Sololá	713	San Lucas Tolimán	10	San Lucas Tolimán	7	Julio	2023-01-07T00:00:00	2024-11-08T05:00:00	6	Velocidad del viento	3.2
133022	7	Sololá	713	San Lucas Tolimán	10	San Lucas Tolimán	7	Julio	2023-01-07T00:00:00	2024-11-08T05:00:00	7	Dirección del viento	3.22
133023	7	Sololá	713	San Lucas Tolimán	10	San Lucas Tolimán	7	Julio	2023-01-07T00:00:00	2024-11-08T05:00:00	1	Precipitación	0
133024	7	Sololá	713	San Lucas Tolimán	10	San Lucas Tolimán	7	Julio	2023-01-07T00:00:00	2024-11-08T05:00:00	8	Radiación solar	0
133025	7	Sololá	713	San Lucas Tolimán	10	San Lucas Tolimán	7	Julio	2023-01-07T00:00:00	2024-11-08T06:00:00	2	Temperatura media	16.6
133026	7	Sololá	713	San Lucas Tolimán	10	San Lucas Tolimán	7	Julio	2023-01-07T00:00:00	2024-11-08T06:00:00	4	Temperatura máxima	16.6
133027	7	Sololá	713	San Lucas Tolimán	10	San Lucas Tolimán	7	Julio	2023-01-07T00:00:00	2024-11-08T06:00:00	3	Temperatura mínima	16.2
133028	7	Sololá	713	San Lucas Tolimán	10	San Lucas Tolimán	7	Julio	2023-01-07T00:00:00	2024-11-08T06:00:00	5	Humedad	62
133029	7	Sololá	713	San Lucas Tolimán	10	San Lucas Tolimán	7	Julio	2023-01-07T00:00:00	2024-11-08T06:00:00	6	Velocidad del viento	3.2
133030	7	Sololá	713	San Lucas Tolimán	10	San Lucas Tolimán	7	Julio	2023-01-07T00:00:00	2024-11-08T06:00:00	7	Dirección del viento	3.22
133031	7	Sololá	713	San Lucas Tolimán	10	San Lucas Tolimán	7	Julio	2023-01-07T00:00:00	2024-11-08T06:00:00	1	Precipitación	0
133032	7	Sololá	713	San Lucas Tolimán	10	San Lucas Tolimán	7	Julio	2023-01-07T00:00:00	2024-11-08T06:00:00	8	Radiación solar	7
133033	7	Sololá	713	San Lucas Tolimán	10	San Lucas Tolimán	7	Julio	2023-01-07T00:00:00	2024-11-08T07:00:00	2	Temperatura media	18.4
133034	7	Sololá	713	San Lucas Tolimán	10	San Lucas Tolimán	7	Julio	2023-01-07T00:00:00	2024-11-08T07:00:00	4	Temperatura máxima	18.4
133035	7	Sololá	713	San Lucas Tolimán	10	San Lucas Tolimán	7	Julio	2023-01-07T00:00:00	2024-11-08T07:00:00	3	Temperatura mínima	16.6
133036	7	Sololá	713	San Lucas Tolimán	10	San Lucas Tolimán	7	Julio	2023-01-07T00:00:00	2024-11-08T07:00:00	5	Humedad	59
133037	7	Sololá	713	San Lucas Tolimán	10	San Lucas Tolimán	7	Julio	2023-01-07T00:00:00	2024-11-08T07:00:00	6	Velocidad del viento	1.6
133038	7	Sololá	713	San Lucas Tolimán	10	San Lucas Tolimán	7	Julio	2023-01-07T00:00:00	2024-11-08T07:00:00	7	Dirección del viento	1.61
133039	7	Sololá	713	San Lucas Tolimán	10	San Lucas Tolimán	7	Julio	2023-01-07T00:00:00	2024-11-08T07:00:00	1	Precipitación	0
133040	7	Sololá	713	San Lucas Tolimán	10	San Lucas Tolimán	7	Julio	2023-01-07T00:00:00	2024-11-08T07:00:00	8	Radiación solar	86
133041	7	Sololá	713	San Lucas Tolimán	10	San Lucas Tolimán	7	Julio	2023-01-07T00:00:00	2024-11-08T08:00:00	2	Temperatura media	21.2
133042	7	Sololá	713	San Lucas Tolimán	10	San Lucas Tolimán	7	Julio	2023-01-07T00:00:00	2024-11-08T08:00:00	4	Temperatura máxima	21.2
133043	7	Sololá	713	San Lucas Tolimán	10	San Lucas Tolimán	7	Julio	2023-01-07T00:00:00	2024-11-08T08:00:00	3	Temperatura mínima	18.4
133044	7	Sololá	713	San Lucas Tolimán	10	San Lucas Tolimán	7	Julio	2023-01-07T00:00:00	2024-11-08T08:00:00	5	Humedad	56
133045	7	Sololá	713	San Lucas Tolimán	10	San Lucas Tolimán	7	Julio	2023-01-07T00:00:00	2024-11-08T08:00:00	6	Velocidad del viento	4.8
133046	7	Sololá	713	San Lucas Tolimán	10	San Lucas Tolimán	7	Julio	2023-01-07T00:00:00	2024-11-08T08:00:00	7	Dirección del viento	4.83
133047	7	Sololá	713	San Lucas Tolimán	10	San Lucas Tolimán	7	Julio	2023-01-07T00:00:00	2024-11-08T08:00:00	1	Precipitación	0
133048	7	Sololá	713	San Lucas Tolimán	10	San Lucas Tolimán	7	Julio	2023-01-07T00:00:00	2024-11-08T08:00:00	8	Radiación solar	268
133049	7	Sololá	713	San Lucas Tolimán	10	San Lucas Tolimán	7	Julio	2023-01-07T00:00:00	2024-11-08T09:00:00	2	Temperatura media	22.3
133050	7	Sololá	713	San Lucas Tolimán	10	San Lucas Tolimán	7	Julio	2023-01-07T00:00:00	2024-11-08T09:00:00	4	Temperatura máxima	22.3
133051	7	Sololá	713	San Lucas Tolimán	10	San Lucas Tolimán	7	Julio	2023-01-07T00:00:00	2024-11-08T09:00:00	3	Temperatura mínima	21.2
133052	7	Sololá	713	San Lucas Tolimán	10	San Lucas Tolimán	7	Julio	2023-01-07T00:00:00	2024-11-08T09:00:00	5	Humedad	54
133053	7	Sololá	713	San Lucas Tolimán	10	San Lucas Tolimán	7	Julio	2023-01-07T00:00:00	2024-11-08T09:00:00	6	Velocidad del viento	6.4
133054	7	Sololá	713	San Lucas Tolimán	10	San Lucas Tolimán	7	Julio	2023-01-07T00:00:00	2024-11-08T09:00:00	7	Dirección del viento	6.44
133055	7	Sololá	713	San Lucas Tolimán	10	San Lucas Tolimán	7	Julio	2023-01-07T00:00:00	2024-11-08T09:00:00	1	Precipitación	0
133056	7	Sololá	713	San Lucas Tolimán	10	San Lucas Tolimán	7	Julio	2023-01-07T00:00:00	2024-11-08T09:00:00	8	Radiación solar	599
133057	7	Sololá	713	San Lucas Tolimán	10	San Lucas Tolimán	7	Julio	2023-01-07T00:00:00	2024-11-08T10:00:00	2	Temperatura media	22.8
133058	7	Sololá	713	San Lucas Tolimán	10	San Lucas Tolimán	7	Julio	2023-01-07T00:00:00	2024-11-08T10:00:00	4	Temperatura máxima	23.3
133059	7	Sololá	713	San Lucas Tolimán	10	San Lucas Tolimán	7	Julio	2023-01-07T00:00:00	2024-11-08T10:00:00	3	Temperatura mínima	22.3
133060	7	Sololá	713	San Lucas Tolimán	10	San Lucas Tolimán	7	Julio	2023-01-07T00:00:00	2024-11-08T10:00:00	5	Humedad	53
133061	7	Sololá	713	San Lucas Tolimán	10	San Lucas Tolimán	7	Julio	2023-01-07T00:00:00	2024-11-08T10:00:00	6	Velocidad del viento	6.4
133062	7	Sololá	713	San Lucas Tolimán	10	San Lucas Tolimán	7	Julio	2023-01-07T00:00:00	2024-11-08T10:00:00	7	Dirección del viento	6.44
133063	7	Sololá	713	San Lucas Tolimán	10	San Lucas Tolimán	7	Julio	2023-01-07T00:00:00	2024-11-08T10:00:00	1	Precipitación	0
133064	7	Sololá	713	San Lucas Tolimán	10	San Lucas Tolimán	7	Julio	2023-01-07T00:00:00	2024-11-08T10:00:00	8	Radiación solar	778
133065	7	Sololá	713	San Lucas Tolimán	10	San Lucas Tolimán	7	Julio	2023-01-07T00:00:00	2024-11-08T11:00:00	2	Temperatura media	24.5
133066	7	Sololá	713	San Lucas Tolimán	10	San Lucas Tolimán	7	Julio	2023-01-07T00:00:00	2024-11-08T11:00:00	4	Temperatura máxima	24.6
133067	7	Sololá	713	San Lucas Tolimán	10	San Lucas Tolimán	7	Julio	2023-01-07T00:00:00	2024-11-08T11:00:00	3	Temperatura mínima	22.6
133068	7	Sololá	713	San Lucas Tolimán	10	San Lucas Tolimán	7	Julio	2023-01-07T00:00:00	2024-11-08T11:00:00	5	Humedad	54
133069	7	Sololá	713	San Lucas Tolimán	10	San Lucas Tolimán	7	Julio	2023-01-07T00:00:00	2024-11-08T11:00:00	6	Velocidad del viento	9.7
133070	7	Sololá	713	San Lucas Tolimán	10	San Lucas Tolimán	7	Julio	2023-01-07T00:00:00	2024-11-08T11:00:00	7	Dirección del viento	9.66
133071	7	Sololá	713	San Lucas Tolimán	10	San Lucas Tolimán	7	Julio	2023-01-07T00:00:00	2024-11-08T11:00:00	1	Precipitación	0
133072	7	Sololá	713	San Lucas Tolimán	10	San Lucas Tolimán	7	Julio	2023-01-07T00:00:00	2024-11-08T11:00:00	8	Radiación solar	958
133073	7	Sololá	713	San Lucas Tolimán	10	San Lucas Tolimán	7	Julio	2023-01-07T00:00:00	2024-11-08T12:00:00	2	Temperatura media	24.8
133074	7	Sololá	713	San Lucas Tolimán	10	San Lucas Tolimán	7	Julio	2023-01-07T00:00:00	2024-11-08T12:00:00	4	Temperatura máxima	25.2
133075	7	Sololá	713	San Lucas Tolimán	10	San Lucas Tolimán	7	Julio	2023-01-07T00:00:00	2024-11-08T12:00:00	3	Temperatura mínima	24.5
133076	7	Sololá	713	San Lucas Tolimán	10	San Lucas Tolimán	7	Julio	2023-01-07T00:00:00	2024-11-08T12:00:00	5	Humedad	54
133077	7	Sololá	713	San Lucas Tolimán	10	San Lucas Tolimán	7	Julio	2023-01-07T00:00:00	2024-11-08T12:00:00	6	Velocidad del viento	11.3
133078	7	Sololá	713	San Lucas Tolimán	10	San Lucas Tolimán	7	Julio	2023-01-07T00:00:00	2024-11-08T12:00:00	7	Dirección del viento	11.27
133079	7	Sololá	713	San Lucas Tolimán	10	San Lucas Tolimán	7	Julio	2023-01-07T00:00:00	2024-11-08T12:00:00	1	Precipitación	0
133080	7	Sololá	713	San Lucas Tolimán	10	San Lucas Tolimán	7	Julio	2023-01-07T00:00:00	2024-11-08T12:00:00	8	Radiación solar	1097
133081	7	Sololá	713	San Lucas Tolimán	10	San Lucas Tolimán	7	Julio	2023-01-07T00:00:00	2024-11-08T13:00:00	2	Temperatura media	25.9
133082	7	Sololá	713	San Lucas Tolimán	10	San Lucas Tolimán	7	Julio	2023-01-07T00:00:00	2024-11-08T13:00:00	4	Temperatura máxima	26.6
133083	7	Sololá	713	San Lucas Tolimán	10	San Lucas Tolimán	7	Julio	2023-01-07T00:00:00	2024-11-08T13:00:00	3	Temperatura mínima	24.8
133084	7	Sololá	713	San Lucas Tolimán	10	San Lucas Tolimán	7	Julio	2023-01-07T00:00:00	2024-11-08T13:00:00	5	Humedad	70
133085	7	Sololá	713	San Lucas Tolimán	10	San Lucas Tolimán	7	Julio	2023-01-07T00:00:00	2024-11-08T13:00:00	6	Velocidad del viento	11.3
133086	7	Sololá	713	San Lucas Tolimán	10	San Lucas Tolimán	7	Julio	2023-01-07T00:00:00	2024-11-08T13:00:00	7	Dirección del viento	11.27
133087	7	Sololá	713	San Lucas Tolimán	10	San Lucas Tolimán	7	Julio	2023-01-07T00:00:00	2024-11-08T13:00:00	1	Precipitación	0
133088	7	Sololá	713	San Lucas Tolimán	10	San Lucas Tolimán	7	Julio	2023-01-07T00:00:00	2024-11-08T13:00:00	8	Radiación solar	959
133089	7	Sololá	713	San Lucas Tolimán	10	San Lucas Tolimán	7	Julio	2023-01-07T00:00:00	2024-11-08T14:00:00	2	Temperatura media	22.6
133090	7	Sololá	713	San Lucas Tolimán	10	San Lucas Tolimán	7	Julio	2023-01-07T00:00:00	2024-11-08T14:00:00	4	Temperatura máxima	26.1
133091	7	Sololá	713	San Lucas Tolimán	10	San Lucas Tolimán	7	Julio	2023-01-07T00:00:00	2024-11-08T14:00:00	3	Temperatura mínima	22.6
133092	7	Sololá	713	San Lucas Tolimán	10	San Lucas Tolimán	7	Julio	2023-01-07T00:00:00	2024-11-08T14:00:00	5	Humedad	81
133093	7	Sololá	713	San Lucas Tolimán	10	San Lucas Tolimán	7	Julio	2023-01-07T00:00:00	2024-11-08T14:00:00	6	Velocidad del viento	11.3
133094	7	Sololá	713	San Lucas Tolimán	10	San Lucas Tolimán	7	Julio	2023-01-07T00:00:00	2024-11-08T14:00:00	7	Dirección del viento	11.27
133095	7	Sololá	713	San Lucas Tolimán	10	San Lucas Tolimán	7	Julio	2023-01-07T00:00:00	2024-11-08T14:00:00	1	Precipitación	0
133096	7	Sololá	713	San Lucas Tolimán	10	San Lucas Tolimán	7	Julio	2023-01-07T00:00:00	2024-11-08T14:00:00	8	Radiación solar	916
133097	7	Sololá	713	San Lucas Tolimán	10	San Lucas Tolimán	7	Julio	2023-01-07T00:00:00	2024-11-08T15:00:00	2	Temperatura media	19.3
133098	7	Sololá	713	San Lucas Tolimán	10	San Lucas Tolimán	7	Julio	2023-01-07T00:00:00	2024-11-08T15:00:00	4	Temperatura máxima	22.6
133099	7	Sololá	713	San Lucas Tolimán	10	San Lucas Tolimán	7	Julio	2023-01-07T00:00:00	2024-11-08T15:00:00	3	Temperatura mínima	19.2
133100	7	Sololá	713	San Lucas Tolimán	10	San Lucas Tolimán	7	Julio	2023-01-07T00:00:00	2024-11-08T15:00:00	5	Humedad	88
133101	7	Sololá	713	San Lucas Tolimán	10	San Lucas Tolimán	7	Julio	2023-01-07T00:00:00	2024-11-08T15:00:00	6	Velocidad del viento	12.9
133102	7	Sololá	713	San Lucas Tolimán	10	San Lucas Tolimán	7	Julio	2023-01-07T00:00:00	2024-11-08T15:00:00	7	Dirección del viento	12.87
133103	7	Sololá	713	San Lucas Tolimán	10	San Lucas Tolimán	7	Julio	2023-01-07T00:00:00	2024-11-08T15:00:00	1	Precipitación	0.8
133104	7	Sololá	713	San Lucas Tolimán	10	San Lucas Tolimán	7	Julio	2023-01-07T00:00:00	2024-11-08T15:00:00	8	Radiación solar	729
133105	7	Sololá	713	San Lucas Tolimán	10	San Lucas Tolimán	7	Julio	2023-01-07T00:00:00	2024-11-08T16:00:00	2	Temperatura media	18.9
133106	7	Sololá	713	San Lucas Tolimán	10	San Lucas Tolimán	7	Julio	2023-01-07T00:00:00	2024-11-08T16:00:00	4	Temperatura máxima	19.3
133107	7	Sololá	713	San Lucas Tolimán	10	San Lucas Tolimán	7	Julio	2023-01-07T00:00:00	2024-11-08T16:00:00	3	Temperatura mínima	18.9
133108	7	Sololá	713	San Lucas Tolimán	10	San Lucas Tolimán	7	Julio	2023-01-07T00:00:00	2024-11-08T16:00:00	5	Humedad	89
133109	7	Sololá	713	San Lucas Tolimán	10	San Lucas Tolimán	7	Julio	2023-01-07T00:00:00	2024-11-08T16:00:00	6	Velocidad del viento	4.8
133110	7	Sololá	713	San Lucas Tolimán	10	San Lucas Tolimán	7	Julio	2023-01-07T00:00:00	2024-11-08T16:00:00	7	Dirección del viento	4.83
133111	7	Sololá	713	San Lucas Tolimán	10	San Lucas Tolimán	7	Julio	2023-01-07T00:00:00	2024-11-08T16:00:00	1	Precipitación	1
133112	7	Sololá	713	San Lucas Tolimán	10	San Lucas Tolimán	7	Julio	2023-01-07T00:00:00	2024-11-08T16:00:00	8	Radiación solar	560
133113	7	Sololá	713	San Lucas Tolimán	10	San Lucas Tolimán	7	Julio	2023-01-07T00:00:00	2024-11-08T17:00:00	2	Temperatura media	17.3
133114	7	Sololá	713	San Lucas Tolimán	10	San Lucas Tolimán	7	Julio	2023-01-07T00:00:00	2024-11-08T17:00:00	4	Temperatura máxima	18.8
133115	7	Sololá	713	San Lucas Tolimán	10	San Lucas Tolimán	7	Julio	2023-01-07T00:00:00	2024-11-08T17:00:00	3	Temperatura mínima	17.2
133116	7	Sololá	713	San Lucas Tolimán	10	San Lucas Tolimán	7	Julio	2023-01-07T00:00:00	2024-11-08T17:00:00	5	Humedad	93
133117	7	Sololá	713	San Lucas Tolimán	10	San Lucas Tolimán	7	Julio	2023-01-07T00:00:00	2024-11-08T17:00:00	6	Velocidad del viento	4.8
133118	7	Sololá	713	San Lucas Tolimán	10	San Lucas Tolimán	7	Julio	2023-01-07T00:00:00	2024-11-08T17:00:00	7	Dirección del viento	4.83
133119	7	Sololá	713	San Lucas Tolimán	10	San Lucas Tolimán	7	Julio	2023-01-07T00:00:00	2024-11-08T17:00:00	1	Precipitación	9.8
133120	7	Sololá	713	San Lucas Tolimán	10	San Lucas Tolimán	7	Julio	2023-01-07T00:00:00	2024-11-08T17:00:00	8	Radiación solar	342
133121	7	Sololá	713	San Lucas Tolimán	10	San Lucas Tolimán	7	Julio	2023-01-07T00:00:00	2024-11-08T18:00:00	2	Temperatura media	16.2
133122	7	Sololá	713	San Lucas Tolimán	10	San Lucas Tolimán	7	Julio	2023-01-07T00:00:00	2024-11-08T18:00:00	4	Temperatura máxima	17.3
133123	7	Sololá	713	San Lucas Tolimán	10	San Lucas Tolimán	7	Julio	2023-01-07T00:00:00	2024-11-08T18:00:00	3	Temperatura mínima	16.2
133124	7	Sololá	713	San Lucas Tolimán	10	San Lucas Tolimán	7	Julio	2023-01-07T00:00:00	2024-11-08T18:00:00	5	Humedad	92
133125	7	Sololá	713	San Lucas Tolimán	10	San Lucas Tolimán	7	Julio	2023-01-07T00:00:00	2024-11-08T18:00:00	6	Velocidad del viento	4.8
133126	7	Sololá	713	San Lucas Tolimán	10	San Lucas Tolimán	7	Julio	2023-01-07T00:00:00	2024-11-08T18:00:00	7	Dirección del viento	4.83
133127	7	Sololá	713	San Lucas Tolimán	10	San Lucas Tolimán	7	Julio	2023-01-07T00:00:00	2024-11-08T18:00:00	1	Precipitación	7.8
133128	7	Sololá	713	San Lucas Tolimán	10	San Lucas Tolimán	7	Julio	2023-01-07T00:00:00	2024-11-08T18:00:00	8	Radiación solar	144
133129	7	Sololá	713	San Lucas Tolimán	10	San Lucas Tolimán	7	Julio	2023-01-07T00:00:00	2024-11-08T19:00:00	2	Temperatura media	16.1
133130	7	Sololá	713	San Lucas Tolimán	10	San Lucas Tolimán	7	Julio	2023-01-07T00:00:00	2024-11-08T19:00:00	4	Temperatura máxima	16.2
133131	7	Sololá	713	San Lucas Tolimán	10	San Lucas Tolimán	7	Julio	2023-01-07T00:00:00	2024-11-08T19:00:00	3	Temperatura mínima	16
133132	7	Sololá	713	San Lucas Tolimán	10	San Lucas Tolimán	7	Julio	2023-01-07T00:00:00	2024-11-08T19:00:00	5	Humedad	91
133133	7	Sololá	713	San Lucas Tolimán	10	San Lucas Tolimán	7	Julio	2023-01-07T00:00:00	2024-11-08T19:00:00	6	Velocidad del viento	4.8
133134	7	Sololá	713	San Lucas Tolimán	10	San Lucas Tolimán	7	Julio	2023-01-07T00:00:00	2024-11-08T19:00:00	7	Dirección del viento	4.83
133135	7	Sololá	713	San Lucas Tolimán	10	San Lucas Tolimán	7	Julio	2023-01-07T00:00:00	2024-11-08T19:00:00	1	Precipitación	1.4
133136	7	Sololá	713	San Lucas Tolimán	10	San Lucas Tolimán	7	Julio	2023-01-07T00:00:00	2024-11-08T19:00:00	8	Radiación solar	0
133137	7	Sololá	713	San Lucas Tolimán	10	San Lucas Tolimán	7	Julio	2023-01-07T00:00:00	2024-11-08T20:00:00	2	Temperatura media	16.6
133138	7	Sololá	713	San Lucas Tolimán	10	San Lucas Tolimán	7	Julio	2023-01-07T00:00:00	2024-11-08T20:00:00	4	Temperatura máxima	16.6
133139	7	Sololá	713	San Lucas Tolimán	10	San Lucas Tolimán	7	Julio	2023-01-07T00:00:00	2024-11-08T20:00:00	3	Temperatura mínima	16.1
133140	7	Sololá	713	San Lucas Tolimán	10	San Lucas Tolimán	7	Julio	2023-01-07T00:00:00	2024-11-08T20:00:00	5	Humedad	92
133141	7	Sololá	713	San Lucas Tolimán	10	San Lucas Tolimán	7	Julio	2023-01-07T00:00:00	2024-11-08T20:00:00	6	Velocidad del viento	1.6
133142	7	Sololá	713	San Lucas Tolimán	10	San Lucas Tolimán	7	Julio	2023-01-07T00:00:00	2024-11-08T20:00:00	7	Dirección del viento	1.61
133143	7	Sololá	713	San Lucas Tolimán	10	San Lucas Tolimán	7	Julio	2023-01-07T00:00:00	2024-11-08T20:00:00	1	Precipitación	0
133144	7	Sololá	713	San Lucas Tolimán	10	San Lucas Tolimán	7	Julio	2023-01-07T00:00:00	2024-11-08T20:00:00	8	Radiación solar	0
133145	7	Sololá	713	San Lucas Tolimán	10	San Lucas Tolimán	7	Julio	2023-01-07T00:00:00	2024-11-08T21:00:00	2	Temperatura media	16.8
133146	7	Sololá	713	San Lucas Tolimán	10	San Lucas Tolimán	7	Julio	2023-01-07T00:00:00	2024-11-08T21:00:00	4	Temperatura máxima	17
133147	7	Sololá	713	San Lucas Tolimán	10	San Lucas Tolimán	7	Julio	2023-01-07T00:00:00	2024-11-08T21:00:00	3	Temperatura mínima	16.6
133148	7	Sololá	713	San Lucas Tolimán	10	San Lucas Tolimán	7	Julio	2023-01-07T00:00:00	2024-11-08T21:00:00	5	Humedad	92
133149	7	Sololá	713	San Lucas Tolimán	10	San Lucas Tolimán	7	Julio	2023-01-07T00:00:00	2024-11-08T21:00:00	6	Velocidad del viento	1.6
133150	7	Sololá	713	San Lucas Tolimán	10	San Lucas Tolimán	7	Julio	2023-01-07T00:00:00	2024-11-08T21:00:00	7	Dirección del viento	1.61
133151	7	Sololá	713	San Lucas Tolimán	10	San Lucas Tolimán	7	Julio	2023-01-07T00:00:00	2024-11-08T21:00:00	1	Precipitación	0.2
133152	7	Sololá	713	San Lucas Tolimán	10	San Lucas Tolimán	7	Julio	2023-01-07T00:00:00	2024-11-08T21:00:00	8	Radiación solar	0
133153	7	Sololá	713	San Lucas Tolimán	10	San Lucas Tolimán	7	Julio	2023-01-07T00:00:00	2024-11-08T22:00:00	2	Temperatura media	17
133154	7	Sololá	713	San Lucas Tolimán	10	San Lucas Tolimán	7	Julio	2023-01-07T00:00:00	2024-11-08T22:00:00	4	Temperatura máxima	17
133155	7	Sololá	713	San Lucas Tolimán	10	San Lucas Tolimán	7	Julio	2023-01-07T00:00:00	2024-11-08T22:00:00	3	Temperatura mínima	16.8
133156	7	Sololá	713	San Lucas Tolimán	10	San Lucas Tolimán	7	Julio	2023-01-07T00:00:00	2024-11-08T22:00:00	5	Humedad	93
133157	7	Sololá	713	San Lucas Tolimán	10	San Lucas Tolimán	7	Julio	2023-01-07T00:00:00	2024-11-08T22:00:00	6	Velocidad del viento	0
133158	7	Sololá	713	San Lucas Tolimán	10	San Lucas Tolimán	7	Julio	2023-01-07T00:00:00	2024-11-08T22:00:00	7	Dirección del viento	0
133159	7	Sololá	713	San Lucas Tolimán	10	San Lucas Tolimán	7	Julio	2023-01-07T00:00:00	2024-11-08T22:00:00	1	Precipitación	0
133160	7	Sololá	713	San Lucas Tolimán	10	San Lucas Tolimán	7	Julio	2023-01-07T00:00:00	2024-11-08T22:00:00	8	Radiación solar	0
133161	7	Sololá	713	San Lucas Tolimán	10	San Lucas Tolimán	7	Julio	2023-01-07T00:00:00	2024-11-08T23:00:00	2	Temperatura media	16.8
133162	7	Sololá	713	San Lucas Tolimán	10	San Lucas Tolimán	7	Julio	2023-01-07T00:00:00	2024-11-08T23:00:00	4	Temperatura máxima	17
133163	7	Sololá	713	San Lucas Tolimán	10	San Lucas Tolimán	7	Julio	2023-01-07T00:00:00	2024-11-08T23:00:00	3	Temperatura mínima	16.8
133164	7	Sololá	713	San Lucas Tolimán	10	San Lucas Tolimán	7	Julio	2023-01-07T00:00:00	2024-11-08T23:00:00	5	Humedad	93
133165	7	Sololá	713	San Lucas Tolimán	10	San Lucas Tolimán	7	Julio	2023-01-07T00:00:00	2024-11-08T23:00:00	6	Velocidad del viento	0
133166	7	Sololá	713	San Lucas Tolimán	10	San Lucas Tolimán	7	Julio	2023-01-07T00:00:00	2024-11-08T23:00:00	7	Dirección del viento	0
133167	7	Sololá	713	San Lucas Tolimán	10	San Lucas Tolimán	7	Julio	2023-01-07T00:00:00	2024-11-08T23:00:00	1	Precipitación	0
133168	7	Sololá	713	San Lucas Tolimán	10	San Lucas Tolimán	7	Julio	2023-01-07T00:00:00	2024-11-08T23:00:00	8	Radiación solar	0
133169	7	Sololá	713	San Lucas Tolimán	10	San Lucas Tolimán	7	Julio	2023-02-07T00:00:00	2024-11-08T00:00:00	2	Temperatura media	16.4
133170	7	Sololá	713	San Lucas Tolimán	10	San Lucas Tolimán	7	Julio	2023-02-07T00:00:00	2024-11-08T00:00:00	4	Temperatura máxima	16.8
133171	7	Sololá	713	San Lucas Tolimán	10	San Lucas Tolimán	7	Julio	2023-02-07T00:00:00	2024-11-08T00:00:00	3	Temperatura mínima	16.4
133172	7	Sololá	713	San Lucas Tolimán	10	San Lucas Tolimán	7	Julio	2023-02-07T00:00:00	2024-11-08T00:00:00	5	Humedad	90
133173	7	Sololá	713	San Lucas Tolimán	10	San Lucas Tolimán	7	Julio	2023-02-07T00:00:00	2024-11-08T00:00:00	6	Velocidad del viento	3.2
133174	7	Sololá	713	San Lucas Tolimán	10	San Lucas Tolimán	7	Julio	2023-02-07T00:00:00	2024-11-08T00:00:00	7	Dirección del viento	3.22
133175	7	Sololá	713	San Lucas Tolimán	10	San Lucas Tolimán	7	Julio	2023-02-07T00:00:00	2024-11-08T00:00:00	1	Precipitación	0
133176	7	Sololá	713	San Lucas Tolimán	10	San Lucas Tolimán	7	Julio	2023-02-07T00:00:00	2024-11-08T00:00:00	8	Radiación solar	0
133177	7	Sololá	713	San Lucas Tolimán	10	San Lucas Tolimán	7	Julio	2023-02-07T00:00:00	2024-11-08T01:00:00	2	Temperatura media	16.5
133178	7	Sololá	713	San Lucas Tolimán	10	San Lucas Tolimán	7	Julio	2023-02-07T00:00:00	2024-11-08T01:00:00	4	Temperatura máxima	16.7
133179	7	Sololá	713	San Lucas Tolimán	10	San Lucas Tolimán	7	Julio	2023-02-07T00:00:00	2024-11-08T01:00:00	3	Temperatura mínima	16.4
133180	7	Sololá	713	San Lucas Tolimán	10	San Lucas Tolimán	7	Julio	2023-02-07T00:00:00	2024-11-08T01:00:00	5	Humedad	91
133181	7	Sololá	713	San Lucas Tolimán	10	San Lucas Tolimán	7	Julio	2023-02-07T00:00:00	2024-11-08T01:00:00	6	Velocidad del viento	1.6
133182	7	Sololá	713	San Lucas Tolimán	10	San Lucas Tolimán	7	Julio	2023-02-07T00:00:00	2024-11-08T01:00:00	7	Dirección del viento	1.61
133183	7	Sololá	713	San Lucas Tolimán	10	San Lucas Tolimán	7	Julio	2023-02-07T00:00:00	2024-11-08T01:00:00	1	Precipitación	0
133184	7	Sololá	713	San Lucas Tolimán	10	San Lucas Tolimán	7	Julio	2023-02-07T00:00:00	2024-11-08T01:00:00	8	Radiación solar	0
133185	7	Sololá	713	San Lucas Tolimán	10	San Lucas Tolimán	7	Julio	2023-02-07T00:00:00	2024-11-08T02:00:00	2	Temperatura media	16.4
133186	7	Sololá	713	San Lucas Tolimán	10	San Lucas Tolimán	7	Julio	2023-02-07T00:00:00	2024-11-08T02:00:00	4	Temperatura máxima	16.6
133187	7	Sololá	713	San Lucas Tolimán	10	San Lucas Tolimán	7	Julio	2023-02-07T00:00:00	2024-11-08T02:00:00	3	Temperatura mínima	16.4
133188	7	Sololá	713	San Lucas Tolimán	10	San Lucas Tolimán	7	Julio	2023-02-07T00:00:00	2024-11-08T02:00:00	5	Humedad	92
133189	7	Sololá	713	San Lucas Tolimán	10	San Lucas Tolimán	7	Julio	2023-02-07T00:00:00	2024-11-08T02:00:00	6	Velocidad del viento	1.6
133190	7	Sololá	713	San Lucas Tolimán	10	San Lucas Tolimán	7	Julio	2023-02-07T00:00:00	2024-11-08T02:00:00	7	Dirección del viento	1.61
133191	7	Sololá	713	San Lucas Tolimán	10	San Lucas Tolimán	7	Julio	2023-02-07T00:00:00	2024-11-08T02:00:00	1	Precipitación	0
133192	7	Sololá	713	San Lucas Tolimán	10	San Lucas Tolimán	7	Julio	2023-02-07T00:00:00	2024-11-08T02:00:00	8	Radiación solar	0
133193	7	Sololá	713	San Lucas Tolimán	10	San Lucas Tolimán	7	Julio	2023-02-07T00:00:00	2024-11-08T03:00:00	2	Temperatura media	15.8
133194	7	Sololá	713	San Lucas Tolimán	10	San Lucas Tolimán	7	Julio	2023-02-07T00:00:00	2024-11-08T03:00:00	4	Temperatura máxima	16.4
133195	7	Sololá	713	San Lucas Tolimán	10	San Lucas Tolimán	7	Julio	2023-02-07T00:00:00	2024-11-08T03:00:00	3	Temperatura mínima	15.8
133196	7	Sololá	713	San Lucas Tolimán	10	San Lucas Tolimán	7	Julio	2023-02-07T00:00:00	2024-11-08T03:00:00	5	Humedad	61
133197	7	Sololá	713	San Lucas Tolimán	10	San Lucas Tolimán	7	Julio	2023-02-07T00:00:00	2024-11-08T03:00:00	6	Velocidad del viento	4.8
133198	7	Sololá	713	San Lucas Tolimán	10	San Lucas Tolimán	7	Julio	2023-02-07T00:00:00	2024-11-08T03:00:00	7	Dirección del viento	4.83
133199	7	Sololá	713	San Lucas Tolimán	10	San Lucas Tolimán	7	Julio	2023-02-07T00:00:00	2024-11-08T03:00:00	1	Precipitación	0
133200	7	Sololá	713	San Lucas Tolimán	10	San Lucas Tolimán	7	Julio	2023-02-07T00:00:00	2024-11-08T03:00:00	8	Radiación solar	0
133201	7	Sololá	713	San Lucas Tolimán	10	San Lucas Tolimán	7	Julio	2023-02-07T00:00:00	2024-11-08T04:00:00	2	Temperatura media	15.3
133202	7	Sololá	713	San Lucas Tolimán	10	San Lucas Tolimán	7	Julio	2023-02-07T00:00:00	2024-11-08T04:00:00	4	Temperatura máxima	15.8
133203	7	Sololá	713	San Lucas Tolimán	10	San Lucas Tolimán	7	Julio	2023-02-07T00:00:00	2024-11-08T04:00:00	3	Temperatura mínima	15.3
133204	7	Sololá	713	San Lucas Tolimán	10	San Lucas Tolimán	7	Julio	2023-02-07T00:00:00	2024-11-08T04:00:00	5	Humedad	63
133205	7	Sololá	713	San Lucas Tolimán	10	San Lucas Tolimán	7	Julio	2023-02-07T00:00:00	2024-11-08T04:00:00	6	Velocidad del viento	1.6
133206	7	Sololá	713	San Lucas Tolimán	10	San Lucas Tolimán	7	Julio	2023-02-07T00:00:00	2024-11-08T04:00:00	7	Dirección del viento	1.61
133207	7	Sololá	713	San Lucas Tolimán	10	San Lucas Tolimán	7	Julio	2023-02-07T00:00:00	2024-11-08T04:00:00	1	Precipitación	0
133208	7	Sololá	713	San Lucas Tolimán	10	San Lucas Tolimán	7	Julio	2023-02-07T00:00:00	2024-11-08T04:00:00	8	Radiación solar	0
133209	7	Sololá	713	San Lucas Tolimán	10	San Lucas Tolimán	7	Julio	2023-02-07T00:00:00	2024-11-08T05:00:00	2	Temperatura media	15.7
133210	7	Sololá	713	San Lucas Tolimán	10	San Lucas Tolimán	7	Julio	2023-02-07T00:00:00	2024-11-08T05:00:00	4	Temperatura máxima	15.7
133211	7	Sololá	713	San Lucas Tolimán	10	San Lucas Tolimán	7	Julio	2023-02-07T00:00:00	2024-11-08T05:00:00	3	Temperatura mínima	15.1
133212	7	Sololá	713	San Lucas Tolimán	10	San Lucas Tolimán	7	Julio	2023-02-07T00:00:00	2024-11-08T05:00:00	5	Humedad	61
133213	7	Sololá	713	San Lucas Tolimán	10	San Lucas Tolimán	7	Julio	2023-02-07T00:00:00	2024-11-08T05:00:00	6	Velocidad del viento	3.2
133214	7	Sololá	713	San Lucas Tolimán	10	San Lucas Tolimán	7	Julio	2023-02-07T00:00:00	2024-11-08T05:00:00	7	Dirección del viento	3.22
133215	7	Sololá	713	San Lucas Tolimán	10	San Lucas Tolimán	7	Julio	2023-02-07T00:00:00	2024-11-08T05:00:00	1	Precipitación	0
133216	7	Sololá	713	San Lucas Tolimán	10	San Lucas Tolimán	7	Julio	2023-02-07T00:00:00	2024-11-08T05:00:00	8	Radiación solar	0
133217	7	Sololá	713	San Lucas Tolimán	10	San Lucas Tolimán	7	Julio	2023-02-07T00:00:00	2024-11-08T06:00:00	2	Temperatura media	16.2
133218	7	Sololá	713	San Lucas Tolimán	10	San Lucas Tolimán	7	Julio	2023-02-07T00:00:00	2024-11-08T06:00:00	4	Temperatura máxima	16.2
133219	7	Sololá	713	San Lucas Tolimán	10	San Lucas Tolimán	7	Julio	2023-02-07T00:00:00	2024-11-08T06:00:00	3	Temperatura mínima	15.6
133220	7	Sololá	713	San Lucas Tolimán	10	San Lucas Tolimán	7	Julio	2023-02-07T00:00:00	2024-11-08T06:00:00	5	Humedad	58
133221	7	Sololá	713	San Lucas Tolimán	10	San Lucas Tolimán	7	Julio	2023-02-07T00:00:00	2024-11-08T06:00:00	6	Velocidad del viento	1.6
133222	7	Sololá	713	San Lucas Tolimán	10	San Lucas Tolimán	7	Julio	2023-02-07T00:00:00	2024-11-08T06:00:00	7	Dirección del viento	1.61
133223	7	Sololá	713	San Lucas Tolimán	10	San Lucas Tolimán	7	Julio	2023-02-07T00:00:00	2024-11-08T06:00:00	1	Precipitación	0
133224	7	Sololá	713	San Lucas Tolimán	10	San Lucas Tolimán	7	Julio	2023-02-07T00:00:00	2024-11-08T06:00:00	8	Radiación solar	5
133225	7	Sololá	713	San Lucas Tolimán	10	San Lucas Tolimán	7	Julio	2023-02-07T00:00:00	2024-11-08T07:00:00	2	Temperatura media	17.2
133226	7	Sololá	713	San Lucas Tolimán	10	San Lucas Tolimán	7	Julio	2023-02-07T00:00:00	2024-11-08T07:00:00	4	Temperatura máxima	17.2
133227	7	Sololá	713	San Lucas Tolimán	10	San Lucas Tolimán	7	Julio	2023-02-07T00:00:00	2024-11-08T07:00:00	3	Temperatura mínima	16.2
133228	7	Sololá	713	San Lucas Tolimán	10	San Lucas Tolimán	7	Julio	2023-02-07T00:00:00	2024-11-08T07:00:00	5	Humedad	60
133229	7	Sololá	713	San Lucas Tolimán	10	San Lucas Tolimán	7	Julio	2023-02-07T00:00:00	2024-11-08T07:00:00	6	Velocidad del viento	1.6
133230	7	Sololá	713	San Lucas Tolimán	10	San Lucas Tolimán	7	Julio	2023-02-07T00:00:00	2024-11-08T07:00:00	7	Dirección del viento	1.61
133231	7	Sololá	713	San Lucas Tolimán	10	San Lucas Tolimán	7	Julio	2023-02-07T00:00:00	2024-11-08T07:00:00	1	Precipitación	0
133232	7	Sololá	713	San Lucas Tolimán	10	San Lucas Tolimán	7	Julio	2023-02-07T00:00:00	2024-11-08T07:00:00	8	Radiación solar	71
133233	7	Sololá	713	San Lucas Tolimán	10	San Lucas Tolimán	7	Julio	2023-02-07T00:00:00	2024-11-08T08:00:00	2	Temperatura media	19
133234	7	Sololá	713	San Lucas Tolimán	10	San Lucas Tolimán	7	Julio	2023-02-07T00:00:00	2024-11-08T08:00:00	4	Temperatura máxima	19
133235	7	Sololá	713	San Lucas Tolimán	10	San Lucas Tolimán	7	Julio	2023-02-07T00:00:00	2024-11-08T08:00:00	3	Temperatura mínima	17.2
133236	7	Sololá	713	San Lucas Tolimán	10	San Lucas Tolimán	7	Julio	2023-02-07T00:00:00	2024-11-08T08:00:00	5	Humedad	57
133237	7	Sololá	713	San Lucas Tolimán	10	San Lucas Tolimán	7	Julio	2023-02-07T00:00:00	2024-11-08T08:00:00	6	Velocidad del viento	3.2
133238	7	Sololá	713	San Lucas Tolimán	10	San Lucas Tolimán	7	Julio	2023-02-07T00:00:00	2024-11-08T08:00:00	7	Dirección del viento	3.22
133239	7	Sololá	713	San Lucas Tolimán	10	San Lucas Tolimán	7	Julio	2023-02-07T00:00:00	2024-11-08T08:00:00	1	Precipitación	0
133240	7	Sololá	713	San Lucas Tolimán	10	San Lucas Tolimán	7	Julio	2023-02-07T00:00:00	2024-11-08T08:00:00	8	Radiación solar	201
133241	7	Sololá	713	San Lucas Tolimán	10	San Lucas Tolimán	7	Julio	2023-02-07T00:00:00	2024-11-08T09:00:00	2	Temperatura media	20.3
133242	7	Sololá	713	San Lucas Tolimán	10	San Lucas Tolimán	7	Julio	2023-02-07T00:00:00	2024-11-08T09:00:00	4	Temperatura máxima	20.7
133243	7	Sololá	713	San Lucas Tolimán	10	San Lucas Tolimán	7	Julio	2023-02-07T00:00:00	2024-11-08T09:00:00	3	Temperatura mínima	19
133244	7	Sololá	713	San Lucas Tolimán	10	San Lucas Tolimán	7	Julio	2023-02-07T00:00:00	2024-11-08T09:00:00	5	Humedad	56
133245	7	Sololá	713	San Lucas Tolimán	10	San Lucas Tolimán	7	Julio	2023-02-07T00:00:00	2024-11-08T09:00:00	6	Velocidad del viento	3.2
133246	7	Sololá	713	San Lucas Tolimán	10	San Lucas Tolimán	7	Julio	2023-02-07T00:00:00	2024-11-08T09:00:00	7	Dirección del viento	3.22
133247	7	Sololá	713	San Lucas Tolimán	10	San Lucas Tolimán	7	Julio	2023-02-07T00:00:00	2024-11-08T09:00:00	1	Precipitación	0
133248	7	Sololá	713	San Lucas Tolimán	10	San Lucas Tolimán	7	Julio	2023-02-07T00:00:00	2024-11-08T09:00:00	8	Radiación solar	366
133249	7	Sololá	713	San Lucas Tolimán	10	San Lucas Tolimán	7	Julio	2023-02-07T00:00:00	2024-11-08T10:00:00	2	Temperatura media	21.6
133250	7	Sololá	713	San Lucas Tolimán	10	San Lucas Tolimán	7	Julio	2023-02-07T00:00:00	2024-11-08T10:00:00	4	Temperatura máxima	21.7
133251	7	Sololá	713	San Lucas Tolimán	10	San Lucas Tolimán	7	Julio	2023-02-07T00:00:00	2024-11-08T10:00:00	3	Temperatura mínima	20.3
133252	7	Sololá	713	San Lucas Tolimán	10	San Lucas Tolimán	7	Julio	2023-02-07T00:00:00	2024-11-08T10:00:00	5	Humedad	58
133253	7	Sololá	713	San Lucas Tolimán	10	San Lucas Tolimán	7	Julio	2023-02-07T00:00:00	2024-11-08T10:00:00	6	Velocidad del viento	9.7
133254	7	Sololá	713	San Lucas Tolimán	10	San Lucas Tolimán	7	Julio	2023-02-07T00:00:00	2024-11-08T10:00:00	7	Dirección del viento	9.66
133255	7	Sololá	713	San Lucas Tolimán	10	San Lucas Tolimán	7	Julio	2023-02-07T00:00:00	2024-11-08T10:00:00	1	Precipitación	0
133256	7	Sololá	713	San Lucas Tolimán	10	San Lucas Tolimán	7	Julio	2023-02-07T00:00:00	2024-11-08T10:00:00	8	Radiación solar	737
133257	7	Sololá	713	San Lucas Tolimán	10	San Lucas Tolimán	7	Julio	2023-02-07T00:00:00	2024-11-08T11:00:00	2	Temperatura media	20.3
133258	7	Sololá	713	San Lucas Tolimán	10	San Lucas Tolimán	7	Julio	2023-02-07T00:00:00	2024-11-08T11:00:00	4	Temperatura máxima	22.2
133259	7	Sololá	713	San Lucas Tolimán	10	San Lucas Tolimán	7	Julio	2023-02-07T00:00:00	2024-11-08T11:00:00	3	Temperatura mínima	20.3
133260	7	Sololá	713	San Lucas Tolimán	10	San Lucas Tolimán	7	Julio	2023-02-07T00:00:00	2024-11-08T11:00:00	5	Humedad	63
133261	7	Sololá	713	San Lucas Tolimán	10	San Lucas Tolimán	7	Julio	2023-02-07T00:00:00	2024-11-08T11:00:00	6	Velocidad del viento	11.3
133262	7	Sololá	713	San Lucas Tolimán	10	San Lucas Tolimán	7	Julio	2023-02-07T00:00:00	2024-11-08T11:00:00	7	Dirección del viento	11.27
133263	7	Sololá	713	San Lucas Tolimán	10	San Lucas Tolimán	7	Julio	2023-02-07T00:00:00	2024-11-08T11:00:00	1	Precipitación	0
133264	7	Sololá	713	San Lucas Tolimán	10	San Lucas Tolimán	7	Julio	2023-02-07T00:00:00	2024-11-08T11:00:00	8	Radiación solar	824
133265	7	Sololá	713	San Lucas Tolimán	10	San Lucas Tolimán	7	Julio	2023-02-07T00:00:00	2024-11-08T12:00:00	2	Temperatura media	20.1
133266	7	Sololá	713	San Lucas Tolimán	10	San Lucas Tolimán	7	Julio	2023-02-07T00:00:00	2024-11-08T12:00:00	4	Temperatura máxima	20.6
133267	7	Sololá	713	San Lucas Tolimán	10	San Lucas Tolimán	7	Julio	2023-02-07T00:00:00	2024-11-08T12:00:00	3	Temperatura mínima	20
133268	7	Sololá	713	San Lucas Tolimán	10	San Lucas Tolimán	7	Julio	2023-02-07T00:00:00	2024-11-08T12:00:00	5	Humedad	61
133269	7	Sololá	713	San Lucas Tolimán	10	San Lucas Tolimán	7	Julio	2023-02-07T00:00:00	2024-11-08T12:00:00	6	Velocidad del viento	11.3
133270	7	Sololá	713	San Lucas Tolimán	10	San Lucas Tolimán	7	Julio	2023-02-07T00:00:00	2024-11-08T12:00:00	7	Dirección del viento	11.27
133271	7	Sololá	713	San Lucas Tolimán	10	San Lucas Tolimán	7	Julio	2023-02-07T00:00:00	2024-11-08T12:00:00	1	Precipitación	0
133272	7	Sololá	713	San Lucas Tolimán	10	San Lucas Tolimán	7	Julio	2023-02-07T00:00:00	2024-11-08T12:00:00	8	Radiación solar	479
133273	7	Sololá	713	San Lucas Tolimán	10	San Lucas Tolimán	7	Julio	2023-02-07T00:00:00	2024-11-08T13:00:00	2	Temperatura media	20.4
133274	7	Sololá	713	San Lucas Tolimán	10	San Lucas Tolimán	7	Julio	2023-02-07T00:00:00	2024-11-08T13:00:00	4	Temperatura máxima	20.6
133275	7	Sololá	713	San Lucas Tolimán	10	San Lucas Tolimán	7	Julio	2023-02-07T00:00:00	2024-11-08T13:00:00	3	Temperatura mínima	19.7
133276	7	Sololá	713	San Lucas Tolimán	10	San Lucas Tolimán	7	Julio	2023-02-07T00:00:00	2024-11-08T13:00:00	5	Humedad	61
133277	7	Sololá	713	San Lucas Tolimán	10	San Lucas Tolimán	7	Julio	2023-02-07T00:00:00	2024-11-08T13:00:00	6	Velocidad del viento	8
133278	7	Sololá	713	San Lucas Tolimán	10	San Lucas Tolimán	7	Julio	2023-02-07T00:00:00	2024-11-08T13:00:00	7	Dirección del viento	8.05
133279	7	Sololá	713	San Lucas Tolimán	10	San Lucas Tolimán	7	Julio	2023-02-07T00:00:00	2024-11-08T13:00:00	1	Precipitación	0
133280	7	Sololá	713	San Lucas Tolimán	10	San Lucas Tolimán	7	Julio	2023-02-07T00:00:00	2024-11-08T13:00:00	8	Radiación solar	446
133281	7	Sololá	713	San Lucas Tolimán	10	San Lucas Tolimán	7	Julio	2023-02-07T00:00:00	2024-11-08T14:00:00	2	Temperatura media	18.6
133282	7	Sololá	713	San Lucas Tolimán	10	San Lucas Tolimán	7	Julio	2023-02-07T00:00:00	2024-11-08T14:00:00	4	Temperatura máxima	20.4
133283	7	Sololá	713	San Lucas Tolimán	10	San Lucas Tolimán	7	Julio	2023-02-07T00:00:00	2024-11-08T14:00:00	3	Temperatura mínima	18.6
133284	7	Sololá	713	San Lucas Tolimán	10	San Lucas Tolimán	7	Julio	2023-02-07T00:00:00	2024-11-08T14:00:00	5	Humedad	61
133285	7	Sololá	713	San Lucas Tolimán	10	San Lucas Tolimán	7	Julio	2023-02-07T00:00:00	2024-11-08T14:00:00	6	Velocidad del viento	9.7
133286	7	Sololá	713	San Lucas Tolimán	10	San Lucas Tolimán	7	Julio	2023-02-07T00:00:00	2024-11-08T14:00:00	7	Dirección del viento	9.66
133287	7	Sololá	713	San Lucas Tolimán	10	San Lucas Tolimán	7	Julio	2023-02-07T00:00:00	2024-11-08T14:00:00	1	Precipitación	0
133288	7	Sololá	713	San Lucas Tolimán	10	San Lucas Tolimán	7	Julio	2023-02-07T00:00:00	2024-11-08T14:00:00	8	Radiación solar	337
133289	7	Sololá	713	San Lucas Tolimán	10	San Lucas Tolimán	7	Julio	2023-02-07T00:00:00	2024-11-08T15:00:00	2	Temperatura media	20.1
133290	7	Sololá	713	San Lucas Tolimán	10	San Lucas Tolimán	7	Julio	2023-02-07T00:00:00	2024-11-08T15:00:00	4	Temperatura máxima	20.1
133291	7	Sololá	713	San Lucas Tolimán	10	San Lucas Tolimán	7	Julio	2023-02-07T00:00:00	2024-11-08T15:00:00	3	Temperatura mínima	17.9
133292	7	Sololá	713	San Lucas Tolimán	10	San Lucas Tolimán	7	Julio	2023-02-07T00:00:00	2024-11-08T15:00:00	5	Humedad	57
133293	7	Sololá	713	San Lucas Tolimán	10	San Lucas Tolimán	7	Julio	2023-02-07T00:00:00	2024-11-08T15:00:00	6	Velocidad del viento	9.7
133294	7	Sololá	713	San Lucas Tolimán	10	San Lucas Tolimán	7	Julio	2023-02-07T00:00:00	2024-11-08T15:00:00	7	Dirección del viento	9.66
133295	7	Sololá	713	San Lucas Tolimán	10	San Lucas Tolimán	7	Julio	2023-02-07T00:00:00	2024-11-08T15:00:00	1	Precipitación	0
133296	7	Sololá	713	San Lucas Tolimán	10	San Lucas Tolimán	7	Julio	2023-02-07T00:00:00	2024-11-08T15:00:00	8	Radiación solar	368
133297	7	Sololá	713	San Lucas Tolimán	10	San Lucas Tolimán	7	Julio	2023-02-07T00:00:00	2024-11-08T16:00:00	2	Temperatura media	20.5
133298	7	Sololá	713	San Lucas Tolimán	10	San Lucas Tolimán	7	Julio	2023-02-07T00:00:00	2024-11-08T16:00:00	4	Temperatura máxima	20.6
133299	7	Sololá	713	San Lucas Tolimán	10	San Lucas Tolimán	7	Julio	2023-02-07T00:00:00	2024-11-08T16:00:00	3	Temperatura mínima	20
133300	7	Sololá	713	San Lucas Tolimán	10	San Lucas Tolimán	7	Julio	2023-02-07T00:00:00	2024-11-08T16:00:00	5	Humedad	57
133301	7	Sololá	713	San Lucas Tolimán	10	San Lucas Tolimán	7	Julio	2023-02-07T00:00:00	2024-11-08T16:00:00	6	Velocidad del viento	6.4
133302	7	Sololá	713	San Lucas Tolimán	10	San Lucas Tolimán	7	Julio	2023-02-07T00:00:00	2024-11-08T16:00:00	7	Dirección del viento	6.44
133303	7	Sololá	713	San Lucas Tolimán	10	San Lucas Tolimán	7	Julio	2023-02-07T00:00:00	2024-11-08T16:00:00	1	Precipitación	0
133304	7	Sololá	713	San Lucas Tolimán	10	San Lucas Tolimán	7	Julio	2023-02-07T00:00:00	2024-11-08T16:00:00	8	Radiación solar	345
133305	7	Sololá	713	San Lucas Tolimán	10	San Lucas Tolimán	7	Julio	2023-02-07T00:00:00	2024-11-08T17:00:00	2	Temperatura media	19.1
133306	7	Sololá	713	San Lucas Tolimán	10	San Lucas Tolimán	7	Julio	2023-02-07T00:00:00	2024-11-08T17:00:00	4	Temperatura máxima	20.5
133307	7	Sololá	713	San Lucas Tolimán	10	San Lucas Tolimán	7	Julio	2023-02-07T00:00:00	2024-11-08T17:00:00	3	Temperatura mínima	19.1
133308	7	Sololá	713	San Lucas Tolimán	10	San Lucas Tolimán	7	Julio	2023-02-07T00:00:00	2024-11-08T17:00:00	5	Humedad	61
133309	7	Sololá	713	San Lucas Tolimán	10	San Lucas Tolimán	7	Julio	2023-02-07T00:00:00	2024-11-08T17:00:00	6	Velocidad del viento	8
133310	7	Sololá	713	San Lucas Tolimán	10	San Lucas Tolimán	7	Julio	2023-02-07T00:00:00	2024-11-08T17:00:00	7	Dirección del viento	8.05
133311	7	Sololá	713	San Lucas Tolimán	10	San Lucas Tolimán	7	Julio	2023-02-07T00:00:00	2024-11-08T17:00:00	1	Precipitación	0
133312	7	Sololá	713	San Lucas Tolimán	10	San Lucas Tolimán	7	Julio	2023-02-07T00:00:00	2024-11-08T17:00:00	8	Radiación solar	207
133313	7	Sololá	713	San Lucas Tolimán	10	San Lucas Tolimán	7	Julio	2023-02-07T00:00:00	2024-11-08T18:00:00	2	Temperatura media	18.2
133314	7	Sololá	713	San Lucas Tolimán	10	San Lucas Tolimán	7	Julio	2023-02-07T00:00:00	2024-11-08T18:00:00	4	Temperatura máxima	19.1
133315	7	Sololá	713	San Lucas Tolimán	10	San Lucas Tolimán	7	Julio	2023-02-07T00:00:00	2024-11-08T18:00:00	3	Temperatura mínima	18.2
133316	7	Sololá	713	San Lucas Tolimán	10	San Lucas Tolimán	7	Julio	2023-02-07T00:00:00	2024-11-08T18:00:00	5	Humedad	61
133317	7	Sololá	713	San Lucas Tolimán	10	San Lucas Tolimán	7	Julio	2023-02-07T00:00:00	2024-11-08T18:00:00	6	Velocidad del viento	6.4
133318	7	Sololá	713	San Lucas Tolimán	10	San Lucas Tolimán	7	Julio	2023-02-07T00:00:00	2024-11-08T18:00:00	7	Dirección del viento	6.44
133319	7	Sololá	713	San Lucas Tolimán	10	San Lucas Tolimán	7	Julio	2023-02-07T00:00:00	2024-11-08T18:00:00	1	Precipitación	0
133320	7	Sololá	713	San Lucas Tolimán	10	San Lucas Tolimán	7	Julio	2023-02-07T00:00:00	2024-11-08T18:00:00	8	Radiación solar	30
133321	7	Sololá	713	San Lucas Tolimán	10	San Lucas Tolimán	7	Julio	2023-02-07T00:00:00	2024-11-08T19:00:00	2	Temperatura media	17.7
133322	7	Sololá	713	San Lucas Tolimán	10	San Lucas Tolimán	7	Julio	2023-02-07T00:00:00	2024-11-08T19:00:00	4	Temperatura máxima	18.2
133323	7	Sololá	713	San Lucas Tolimán	10	San Lucas Tolimán	7	Julio	2023-02-07T00:00:00	2024-11-08T19:00:00	3	Temperatura mínima	17.7
133324	7	Sololá	713	San Lucas Tolimán	10	San Lucas Tolimán	7	Julio	2023-02-07T00:00:00	2024-11-08T19:00:00	5	Humedad	63
133325	7	Sololá	713	San Lucas Tolimán	10	San Lucas Tolimán	7	Julio	2023-02-07T00:00:00	2024-11-08T19:00:00	6	Velocidad del viento	6.4
133326	7	Sololá	713	San Lucas Tolimán	10	San Lucas Tolimán	7	Julio	2023-02-07T00:00:00	2024-11-08T19:00:00	7	Dirección del viento	6.44
133327	7	Sololá	713	San Lucas Tolimán	10	San Lucas Tolimán	7	Julio	2023-02-07T00:00:00	2024-11-08T19:00:00	1	Precipitación	0
133328	7	Sololá	713	San Lucas Tolimán	10	San Lucas Tolimán	7	Julio	2023-02-07T00:00:00	2024-11-08T19:00:00	8	Radiación solar	0
133329	7	Sololá	713	San Lucas Tolimán	10	San Lucas Tolimán	7	Julio	2023-02-07T00:00:00	2024-11-08T20:00:00	2	Temperatura media	17.4
133330	7	Sololá	713	San Lucas Tolimán	10	San Lucas Tolimán	7	Julio	2023-02-07T00:00:00	2024-11-08T20:00:00	4	Temperatura máxima	17.8
133331	7	Sololá	713	San Lucas Tolimán	10	San Lucas Tolimán	7	Julio	2023-02-07T00:00:00	2024-11-08T20:00:00	3	Temperatura mínima	17.4
133332	7	Sololá	713	San Lucas Tolimán	10	San Lucas Tolimán	7	Julio	2023-02-07T00:00:00	2024-11-08T20:00:00	5	Humedad	67
133333	7	Sololá	713	San Lucas Tolimán	10	San Lucas Tolimán	7	Julio	2023-02-07T00:00:00	2024-11-08T20:00:00	6	Velocidad del viento	4.8
133334	7	Sololá	713	San Lucas Tolimán	10	San Lucas Tolimán	7	Julio	2023-02-07T00:00:00	2024-11-08T20:00:00	7	Dirección del viento	4.83
133335	7	Sololá	713	San Lucas Tolimán	10	San Lucas Tolimán	7	Julio	2023-02-07T00:00:00	2024-11-08T20:00:00	1	Precipitación	0.4
133336	7	Sololá	713	San Lucas Tolimán	10	San Lucas Tolimán	7	Julio	2023-02-07T00:00:00	2024-11-08T20:00:00	8	Radiación solar	0
133337	7	Sololá	713	San Lucas Tolimán	10	San Lucas Tolimán	7	Julio	2023-02-07T00:00:00	2024-11-08T21:00:00	2	Temperatura media	17.5
133338	7	Sololá	713	San Lucas Tolimán	10	San Lucas Tolimán	7	Julio	2023-02-07T00:00:00	2024-11-08T21:00:00	4	Temperatura máxima	17.6
133339	7	Sololá	713	San Lucas Tolimán	10	San Lucas Tolimán	7	Julio	2023-02-07T00:00:00	2024-11-08T21:00:00	3	Temperatura mínima	17.4
133340	7	Sololá	713	San Lucas Tolimán	10	San Lucas Tolimán	7	Julio	2023-02-07T00:00:00	2024-11-08T21:00:00	5	Humedad	67
133341	7	Sololá	713	San Lucas Tolimán	10	San Lucas Tolimán	7	Julio	2023-02-07T00:00:00	2024-11-08T21:00:00	6	Velocidad del viento	1.6
133342	7	Sololá	713	San Lucas Tolimán	10	San Lucas Tolimán	7	Julio	2023-02-07T00:00:00	2024-11-08T21:00:00	7	Dirección del viento	1.61
133343	7	Sololá	713	San Lucas Tolimán	10	San Lucas Tolimán	7	Julio	2023-02-07T00:00:00	2024-11-08T21:00:00	1	Precipitación	0
133344	7	Sololá	713	San Lucas Tolimán	10	San Lucas Tolimán	7	Julio	2023-02-07T00:00:00	2024-11-08T21:00:00	8	Radiación solar	0
133345	7	Sololá	713	San Lucas Tolimán	10	San Lucas Tolimán	7	Julio	2023-02-07T00:00:00	2024-11-08T22:00:00	2	Temperatura media	17.7
133346	7	Sololá	713	San Lucas Tolimán	10	San Lucas Tolimán	7	Julio	2023-02-07T00:00:00	2024-11-08T22:00:00	4	Temperatura máxima	17.8
133347	7	Sololá	713	San Lucas Tolimán	10	San Lucas Tolimán	7	Julio	2023-02-07T00:00:00	2024-11-08T22:00:00	3	Temperatura mínima	17.5
133348	7	Sololá	713	San Lucas Tolimán	10	San Lucas Tolimán	7	Julio	2023-02-07T00:00:00	2024-11-08T22:00:00	5	Humedad	67
133349	7	Sololá	713	San Lucas Tolimán	10	San Lucas Tolimán	7	Julio	2023-02-07T00:00:00	2024-11-08T22:00:00	6	Velocidad del viento	1.6
133350	7	Sololá	713	San Lucas Tolimán	10	San Lucas Tolimán	7	Julio	2023-02-07T00:00:00	2024-11-08T22:00:00	7	Dirección del viento	1.61
133351	7	Sololá	713	San Lucas Tolimán	10	San Lucas Tolimán	7	Julio	2023-02-07T00:00:00	2024-11-08T22:00:00	1	Precipitación	0
133352	7	Sololá	713	San Lucas Tolimán	10	San Lucas Tolimán	7	Julio	2023-02-07T00:00:00	2024-11-08T22:00:00	8	Radiación solar	0
133353	7	Sololá	713	San Lucas Tolimán	10	San Lucas Tolimán	7	Julio	2023-02-07T00:00:00	2024-11-08T23:00:00	2	Temperatura media	17.8
133354	7	Sololá	713	San Lucas Tolimán	10	San Lucas Tolimán	7	Julio	2023-02-07T00:00:00	2024-11-08T23:00:00	4	Temperatura máxima	17.8
133355	7	Sololá	713	San Lucas Tolimán	10	San Lucas Tolimán	7	Julio	2023-02-07T00:00:00	2024-11-08T23:00:00	3	Temperatura mínima	17.7
133356	7	Sololá	713	San Lucas Tolimán	10	San Lucas Tolimán	7	Julio	2023-02-07T00:00:00	2024-11-08T23:00:00	5	Humedad	65
133357	7	Sololá	713	San Lucas Tolimán	10	San Lucas Tolimán	7	Julio	2023-02-07T00:00:00	2024-11-08T23:00:00	6	Velocidad del viento	1.6
133358	7	Sololá	713	San Lucas Tolimán	10	San Lucas Tolimán	7	Julio	2023-02-07T00:00:00	2024-11-08T23:00:00	7	Dirección del viento	1.61
133359	7	Sololá	713	San Lucas Tolimán	10	San Lucas Tolimán	7	Julio	2023-02-07T00:00:00	2024-11-08T23:00:00	1	Precipitación	0
133360	7	Sololá	713	San Lucas Tolimán	10	San Lucas Tolimán	7	Julio	2023-02-07T00:00:00	2024-11-08T23:00:00	8	Radiación solar	0
133361	7	Sololá	713	San Lucas Tolimán	10	San Lucas Tolimán	7	Julio	2023-03-07T00:00:00	2024-11-08T00:00:00	2	Temperatura media	17.4
133362	7	Sololá	713	San Lucas Tolimán	10	San Lucas Tolimán	7	Julio	2023-03-07T00:00:00	2024-11-08T00:00:00	4	Temperatura máxima	17.8
133363	7	Sololá	713	San Lucas Tolimán	10	San Lucas Tolimán	7	Julio	2023-03-07T00:00:00	2024-11-08T00:00:00	3	Temperatura mínima	17.3
133364	7	Sololá	713	San Lucas Tolimán	10	San Lucas Tolimán	7	Julio	2023-03-07T00:00:00	2024-11-08T00:00:00	5	Humedad	64
133365	7	Sololá	713	San Lucas Tolimán	10	San Lucas Tolimán	7	Julio	2023-03-07T00:00:00	2024-11-08T00:00:00	6	Velocidad del viento	1.6
133366	7	Sololá	713	San Lucas Tolimán	10	San Lucas Tolimán	7	Julio	2023-03-07T00:00:00	2024-11-08T00:00:00	7	Dirección del viento	1.61
133367	7	Sololá	713	San Lucas Tolimán	10	San Lucas Tolimán	7	Julio	2023-03-07T00:00:00	2024-11-08T00:00:00	1	Precipitación	0
133368	7	Sololá	713	San Lucas Tolimán	10	San Lucas Tolimán	7	Julio	2023-03-07T00:00:00	2024-11-08T00:00:00	8	Radiación solar	0
133369	7	Sololá	713	San Lucas Tolimán	10	San Lucas Tolimán	7	Julio	2023-03-07T00:00:00	2024-11-08T01:00:00	2	Temperatura media	17.3
133370	7	Sololá	713	San Lucas Tolimán	10	San Lucas Tolimán	7	Julio	2023-03-07T00:00:00	2024-11-08T01:00:00	4	Temperatura máxima	17.5
133371	7	Sololá	713	San Lucas Tolimán	10	San Lucas Tolimán	7	Julio	2023-03-07T00:00:00	2024-11-08T01:00:00	3	Temperatura mínima	17.3
133372	7	Sololá	713	San Lucas Tolimán	10	San Lucas Tolimán	7	Julio	2023-03-07T00:00:00	2024-11-08T01:00:00	5	Humedad	65
133373	7	Sololá	713	San Lucas Tolimán	10	San Lucas Tolimán	7	Julio	2023-03-07T00:00:00	2024-11-08T01:00:00	6	Velocidad del viento	1.6
133374	7	Sololá	713	San Lucas Tolimán	10	San Lucas Tolimán	7	Julio	2023-03-07T00:00:00	2024-11-08T01:00:00	7	Dirección del viento	1.61
133375	7	Sololá	713	San Lucas Tolimán	10	San Lucas Tolimán	7	Julio	2023-03-07T00:00:00	2024-11-08T01:00:00	1	Precipitación	0
133376	7	Sololá	713	San Lucas Tolimán	10	San Lucas Tolimán	7	Julio	2023-03-07T00:00:00	2024-11-08T01:00:00	8	Radiación solar	0
133377	7	Sololá	713	San Lucas Tolimán	10	San Lucas Tolimán	7	Julio	2023-03-07T00:00:00	2024-11-08T02:00:00	2	Temperatura media	17.1
133378	7	Sololá	713	San Lucas Tolimán	10	San Lucas Tolimán	7	Julio	2023-03-07T00:00:00	2024-11-08T02:00:00	4	Temperatura máxima	17.3
133379	7	Sololá	713	San Lucas Tolimán	10	San Lucas Tolimán	7	Julio	2023-03-07T00:00:00	2024-11-08T02:00:00	3	Temperatura mínima	17.1
133380	7	Sololá	713	San Lucas Tolimán	10	San Lucas Tolimán	7	Julio	2023-03-07T00:00:00	2024-11-08T02:00:00	5	Humedad	64
133381	7	Sololá	713	San Lucas Tolimán	10	San Lucas Tolimán	7	Julio	2023-03-07T00:00:00	2024-11-08T02:00:00	6	Velocidad del viento	4.8
133382	7	Sololá	713	San Lucas Tolimán	10	San Lucas Tolimán	7	Julio	2023-03-07T00:00:00	2024-11-08T02:00:00	7	Dirección del viento	4.83
133383	7	Sololá	713	San Lucas Tolimán	10	San Lucas Tolimán	7	Julio	2023-03-07T00:00:00	2024-11-08T02:00:00	1	Precipitación	0
133384	7	Sololá	713	San Lucas Tolimán	10	San Lucas Tolimán	7	Julio	2023-03-07T00:00:00	2024-11-08T02:00:00	8	Radiación solar	0
133385	7	Sololá	713	San Lucas Tolimán	10	San Lucas Tolimán	7	Julio	2023-03-07T00:00:00	2024-11-08T03:00:00	2	Temperatura media	16.9
133386	7	Sololá	713	San Lucas Tolimán	10	San Lucas Tolimán	7	Julio	2023-03-07T00:00:00	2024-11-08T03:00:00	4	Temperatura máxima	17.1
133387	7	Sololá	713	San Lucas Tolimán	10	San Lucas Tolimán	7	Julio	2023-03-07T00:00:00	2024-11-08T03:00:00	3	Temperatura mínima	16.9
133388	7	Sololá	713	San Lucas Tolimán	10	San Lucas Tolimán	7	Julio	2023-03-07T00:00:00	2024-11-08T03:00:00	5	Humedad	64
133389	7	Sololá	713	San Lucas Tolimán	10	San Lucas Tolimán	7	Julio	2023-03-07T00:00:00	2024-11-08T03:00:00	6	Velocidad del viento	4.8
133390	7	Sololá	713	San Lucas Tolimán	10	San Lucas Tolimán	7	Julio	2023-03-07T00:00:00	2024-11-08T03:00:00	7	Dirección del viento	4.83
133391	7	Sololá	713	San Lucas Tolimán	10	San Lucas Tolimán	7	Julio	2023-03-07T00:00:00	2024-11-08T03:00:00	1	Precipitación	0
133392	7	Sololá	713	San Lucas Tolimán	10	San Lucas Tolimán	7	Julio	2023-03-07T00:00:00	2024-11-08T03:00:00	8	Radiación solar	0
133393	7	Sololá	713	San Lucas Tolimán	10	San Lucas Tolimán	7	Julio	2023-03-07T00:00:00	2024-11-08T04:00:00	2	Temperatura media	17
133394	7	Sololá	713	San Lucas Tolimán	10	San Lucas Tolimán	7	Julio	2023-03-07T00:00:00	2024-11-08T04:00:00	4	Temperatura máxima	17.1
133395	7	Sololá	713	San Lucas Tolimán	10	San Lucas Tolimán	7	Julio	2023-03-07T00:00:00	2024-11-08T04:00:00	3	Temperatura mínima	16.9
133396	7	Sololá	713	San Lucas Tolimán	10	San Lucas Tolimán	7	Julio	2023-03-07T00:00:00	2024-11-08T04:00:00	5	Humedad	63
133397	7	Sololá	713	San Lucas Tolimán	10	San Lucas Tolimán	7	Julio	2023-03-07T00:00:00	2024-11-08T04:00:00	6	Velocidad del viento	4.8
133398	7	Sololá	713	San Lucas Tolimán	10	San Lucas Tolimán	7	Julio	2023-03-07T00:00:00	2024-11-08T04:00:00	7	Dirección del viento	4.83
133399	7	Sololá	713	San Lucas Tolimán	10	San Lucas Tolimán	7	Julio	2023-03-07T00:00:00	2024-11-08T04:00:00	1	Precipitación	0
133400	7	Sololá	713	San Lucas Tolimán	10	San Lucas Tolimán	7	Julio	2023-03-07T00:00:00	2024-11-08T04:00:00	8	Radiación solar	0
133401	7	Sololá	713	San Lucas Tolimán	10	San Lucas Tolimán	7	Julio	2023-03-07T00:00:00	2024-11-08T05:00:00	2	Temperatura media	17.1
133402	7	Sololá	713	San Lucas Tolimán	10	San Lucas Tolimán	7	Julio	2023-03-07T00:00:00	2024-11-08T05:00:00	4	Temperatura máxima	17.2
133403	7	Sololá	713	San Lucas Tolimán	10	San Lucas Tolimán	7	Julio	2023-03-07T00:00:00	2024-11-08T05:00:00	3	Temperatura mínima	17
133404	7	Sololá	713	San Lucas Tolimán	10	San Lucas Tolimán	7	Julio	2023-03-07T00:00:00	2024-11-08T05:00:00	5	Humedad	63
133405	7	Sololá	713	San Lucas Tolimán	10	San Lucas Tolimán	7	Julio	2023-03-07T00:00:00	2024-11-08T05:00:00	6	Velocidad del viento	4.8
133406	7	Sololá	713	San Lucas Tolimán	10	San Lucas Tolimán	7	Julio	2023-03-07T00:00:00	2024-11-08T05:00:00	7	Dirección del viento	4.83
133407	7	Sololá	713	San Lucas Tolimán	10	San Lucas Tolimán	7	Julio	2023-03-07T00:00:00	2024-11-08T05:00:00	1	Precipitación	0
133408	7	Sololá	713	San Lucas Tolimán	10	San Lucas Tolimán	7	Julio	2023-03-07T00:00:00	2024-11-08T05:00:00	8	Radiación solar	0
133409	7	Sololá	713	San Lucas Tolimán	10	San Lucas Tolimán	7	Julio	2023-03-07T00:00:00	2024-11-08T06:00:00	2	Temperatura media	17.3
133410	7	Sololá	713	San Lucas Tolimán	10	San Lucas Tolimán	7	Julio	2023-03-07T00:00:00	2024-11-08T06:00:00	4	Temperatura máxima	17.3
133411	7	Sololá	713	San Lucas Tolimán	10	San Lucas Tolimán	7	Julio	2023-03-07T00:00:00	2024-11-08T06:00:00	3	Temperatura mínima	17
133412	7	Sololá	713	San Lucas Tolimán	10	San Lucas Tolimán	7	Julio	2023-03-07T00:00:00	2024-11-08T06:00:00	5	Humedad	63
133413	7	Sololá	713	San Lucas Tolimán	10	San Lucas Tolimán	7	Julio	2023-03-07T00:00:00	2024-11-08T06:00:00	6	Velocidad del viento	1.6
133414	7	Sololá	713	San Lucas Tolimán	10	San Lucas Tolimán	7	Julio	2023-03-07T00:00:00	2024-11-08T06:00:00	7	Dirección del viento	1.61
133415	7	Sololá	713	San Lucas Tolimán	10	San Lucas Tolimán	7	Julio	2023-03-07T00:00:00	2024-11-08T06:00:00	1	Precipitación	0
133416	7	Sololá	713	San Lucas Tolimán	10	San Lucas Tolimán	7	Julio	2023-03-07T00:00:00	2024-11-08T06:00:00	8	Radiación solar	1
133417	7	Sololá	713	San Lucas Tolimán	10	San Lucas Tolimán	7	Julio	2023-03-07T00:00:00	2024-11-08T07:00:00	2	Temperatura media	17.8
133418	7	Sololá	713	San Lucas Tolimán	10	San Lucas Tolimán	7	Julio	2023-03-07T00:00:00	2024-11-08T07:00:00	4	Temperatura máxima	17.8
133419	7	Sololá	713	San Lucas Tolimán	10	San Lucas Tolimán	7	Julio	2023-03-07T00:00:00	2024-11-08T07:00:00	3	Temperatura mínima	17.3
133420	7	Sololá	713	San Lucas Tolimán	10	San Lucas Tolimán	7	Julio	2023-03-07T00:00:00	2024-11-08T07:00:00	5	Humedad	62
133421	7	Sololá	713	San Lucas Tolimán	10	San Lucas Tolimán	7	Julio	2023-03-07T00:00:00	2024-11-08T07:00:00	6	Velocidad del viento	1.6
133422	7	Sololá	713	San Lucas Tolimán	10	San Lucas Tolimán	7	Julio	2023-03-07T00:00:00	2024-11-08T07:00:00	7	Dirección del viento	1.61
133423	7	Sololá	713	San Lucas Tolimán	10	San Lucas Tolimán	7	Julio	2023-03-07T00:00:00	2024-11-08T07:00:00	1	Precipitación	0
133424	7	Sololá	713	San Lucas Tolimán	10	San Lucas Tolimán	7	Julio	2023-03-07T00:00:00	2024-11-08T07:00:00	8	Radiación solar	38
133425	7	Sololá	713	San Lucas Tolimán	10	San Lucas Tolimán	7	Julio	2023-03-07T00:00:00	2024-11-08T08:00:00	2	Temperatura media	20.5
133426	7	Sololá	713	San Lucas Tolimán	10	San Lucas Tolimán	7	Julio	2023-03-07T00:00:00	2024-11-08T08:00:00	4	Temperatura máxima	20.5
133427	7	Sololá	713	San Lucas Tolimán	10	San Lucas Tolimán	7	Julio	2023-03-07T00:00:00	2024-11-08T08:00:00	3	Temperatura mínima	17.8
133428	7	Sololá	713	San Lucas Tolimán	10	San Lucas Tolimán	7	Julio	2023-03-07T00:00:00	2024-11-08T08:00:00	5	Humedad	57
133429	7	Sololá	713	San Lucas Tolimán	10	San Lucas Tolimán	7	Julio	2023-03-07T00:00:00	2024-11-08T08:00:00	6	Velocidad del viento	3.2
133430	7	Sololá	713	San Lucas Tolimán	10	San Lucas Tolimán	7	Julio	2023-03-07T00:00:00	2024-11-08T08:00:00	7	Dirección del viento	3.22
133431	7	Sololá	713	San Lucas Tolimán	10	San Lucas Tolimán	7	Julio	2023-03-07T00:00:00	2024-11-08T08:00:00	1	Precipitación	0
133432	7	Sololá	713	San Lucas Tolimán	10	San Lucas Tolimán	7	Julio	2023-03-07T00:00:00	2024-11-08T08:00:00	8	Radiación solar	333
133433	7	Sololá	713	San Lucas Tolimán	10	San Lucas Tolimán	7	Julio	2023-03-07T00:00:00	2024-11-08T09:00:00	2	Temperatura media	20.6
133434	7	Sololá	713	San Lucas Tolimán	10	San Lucas Tolimán	7	Julio	2023-03-07T00:00:00	2024-11-08T09:00:00	4	Temperatura máxima	21.1
133435	7	Sololá	713	San Lucas Tolimán	10	San Lucas Tolimán	7	Julio	2023-03-07T00:00:00	2024-11-08T09:00:00	3	Temperatura mínima	19.6
133436	7	Sololá	713	San Lucas Tolimán	10	San Lucas Tolimán	7	Julio	2023-03-07T00:00:00	2024-11-08T09:00:00	5	Humedad	59
133437	7	Sololá	713	San Lucas Tolimán	10	San Lucas Tolimán	7	Julio	2023-03-07T00:00:00	2024-11-08T09:00:00	6	Velocidad del viento	4.8
133438	7	Sololá	713	San Lucas Tolimán	10	San Lucas Tolimán	7	Julio	2023-03-07T00:00:00	2024-11-08T09:00:00	7	Dirección del viento	4.83
133439	7	Sololá	713	San Lucas Tolimán	10	San Lucas Tolimán	7	Julio	2023-03-07T00:00:00	2024-11-08T09:00:00	1	Precipitación	0
133440	7	Sololá	713	San Lucas Tolimán	10	San Lucas Tolimán	7	Julio	2023-03-07T00:00:00	2024-11-08T09:00:00	8	Radiación solar	364
133441	7	Sololá	713	San Lucas Tolimán	10	San Lucas Tolimán	7	Julio	2023-03-07T00:00:00	2024-11-08T10:00:00	2	Temperatura media	20.9
133442	7	Sololá	713	San Lucas Tolimán	10	San Lucas Tolimán	7	Julio	2023-03-07T00:00:00	2024-11-08T10:00:00	4	Temperatura máxima	20.9
133443	7	Sololá	713	San Lucas Tolimán	10	San Lucas Tolimán	7	Julio	2023-03-07T00:00:00	2024-11-08T10:00:00	3	Temperatura mínima	20.1
133444	7	Sololá	713	San Lucas Tolimán	10	San Lucas Tolimán	7	Julio	2023-03-07T00:00:00	2024-11-08T10:00:00	5	Humedad	59
133445	7	Sololá	713	San Lucas Tolimán	10	San Lucas Tolimán	7	Julio	2023-03-07T00:00:00	2024-11-08T10:00:00	6	Velocidad del viento	8
133446	7	Sololá	713	San Lucas Tolimán	10	San Lucas Tolimán	7	Julio	2023-03-07T00:00:00	2024-11-08T10:00:00	7	Dirección del viento	8.05
133447	7	Sololá	713	San Lucas Tolimán	10	San Lucas Tolimán	7	Julio	2023-03-07T00:00:00	2024-11-08T10:00:00	1	Precipitación	0
133448	7	Sololá	713	San Lucas Tolimán	10	San Lucas Tolimán	7	Julio	2023-03-07T00:00:00	2024-11-08T10:00:00	8	Radiación solar	439
133449	7	Sololá	713	San Lucas Tolimán	10	San Lucas Tolimán	7	Julio	2023-03-07T00:00:00	2024-11-08T11:00:00	2	Temperatura media	20.9
133450	7	Sololá	713	San Lucas Tolimán	10	San Lucas Tolimán	7	Julio	2023-03-07T00:00:00	2024-11-08T11:00:00	4	Temperatura máxima	21.6
133451	7	Sololá	713	San Lucas Tolimán	10	San Lucas Tolimán	7	Julio	2023-03-07T00:00:00	2024-11-08T11:00:00	3	Temperatura mínima	20.9
133452	7	Sololá	713	San Lucas Tolimán	10	San Lucas Tolimán	7	Julio	2023-03-07T00:00:00	2024-11-08T11:00:00	5	Humedad	60
133453	7	Sololá	713	San Lucas Tolimán	10	San Lucas Tolimán	7	Julio	2023-03-07T00:00:00	2024-11-08T11:00:00	6	Velocidad del viento	9.7
133454	7	Sololá	713	San Lucas Tolimán	10	San Lucas Tolimán	7	Julio	2023-03-07T00:00:00	2024-11-08T11:00:00	7	Dirección del viento	9.66
133455	7	Sololá	713	San Lucas Tolimán	10	San Lucas Tolimán	7	Julio	2023-03-07T00:00:00	2024-11-08T11:00:00	1	Precipitación	0
133456	7	Sololá	713	San Lucas Tolimán	10	San Lucas Tolimán	7	Julio	2023-03-07T00:00:00	2024-11-08T11:00:00	8	Radiación solar	656
133457	7	Sololá	713	San Lucas Tolimán	10	San Lucas Tolimán	7	Julio	2023-03-07T00:00:00	2024-11-08T12:00:00	2	Temperatura media	21.7
133458	7	Sololá	713	San Lucas Tolimán	10	San Lucas Tolimán	7	Julio	2023-03-07T00:00:00	2024-11-08T12:00:00	4	Temperatura máxima	21.7
133459	7	Sololá	713	San Lucas Tolimán	10	San Lucas Tolimán	7	Julio	2023-03-07T00:00:00	2024-11-08T12:00:00	3	Temperatura mínima	20.3
133460	7	Sololá	713	San Lucas Tolimán	10	San Lucas Tolimán	7	Julio	2023-03-07T00:00:00	2024-11-08T12:00:00	5	Humedad	59
133461	7	Sololá	713	San Lucas Tolimán	10	San Lucas Tolimán	7	Julio	2023-03-07T00:00:00	2024-11-08T12:00:00	6	Velocidad del viento	9.7
133462	7	Sololá	713	San Lucas Tolimán	10	San Lucas Tolimán	7	Julio	2023-03-07T00:00:00	2024-11-08T12:00:00	7	Dirección del viento	9.66
133463	7	Sololá	713	San Lucas Tolimán	10	San Lucas Tolimán	7	Julio	2023-03-07T00:00:00	2024-11-08T12:00:00	1	Precipitación	0
133464	7	Sololá	713	San Lucas Tolimán	10	San Lucas Tolimán	7	Julio	2023-03-07T00:00:00	2024-11-08T12:00:00	8	Radiación solar	687
133465	7	Sololá	713	San Lucas Tolimán	10	San Lucas Tolimán	7	Julio	2023-03-07T00:00:00	2024-11-08T13:00:00	2	Temperatura media	22.9
133466	7	Sololá	713	San Lucas Tolimán	10	San Lucas Tolimán	7	Julio	2023-03-07T00:00:00	2024-11-08T13:00:00	4	Temperatura máxima	23.3
133467	7	Sololá	713	San Lucas Tolimán	10	San Lucas Tolimán	7	Julio	2023-03-07T00:00:00	2024-11-08T13:00:00	3	Temperatura mínima	21.7
133468	7	Sololá	713	San Lucas Tolimán	10	San Lucas Tolimán	7	Julio	2023-03-07T00:00:00	2024-11-08T13:00:00	5	Humedad	58
133469	7	Sololá	713	San Lucas Tolimán	10	San Lucas Tolimán	7	Julio	2023-03-07T00:00:00	2024-11-08T13:00:00	6	Velocidad del viento	9.7
133470	7	Sololá	713	San Lucas Tolimán	10	San Lucas Tolimán	7	Julio	2023-03-07T00:00:00	2024-11-08T13:00:00	7	Dirección del viento	9.66
133471	7	Sololá	713	San Lucas Tolimán	10	San Lucas Tolimán	7	Julio	2023-03-07T00:00:00	2024-11-08T13:00:00	1	Precipitación	0
133472	7	Sololá	713	San Lucas Tolimán	10	San Lucas Tolimán	7	Julio	2023-03-07T00:00:00	2024-11-08T13:00:00	8	Radiación solar	1100
133473	7	Sololá	713	San Lucas Tolimán	10	San Lucas Tolimán	7	Julio	2023-03-07T00:00:00	2024-11-08T14:00:00	2	Temperatura media	20.7
133474	7	Sololá	713	San Lucas Tolimán	10	San Lucas Tolimán	7	Julio	2023-03-07T00:00:00	2024-11-08T14:00:00	4	Temperatura máxima	23.2
133475	7	Sololá	713	San Lucas Tolimán	10	San Lucas Tolimán	7	Julio	2023-03-07T00:00:00	2024-11-08T14:00:00	3	Temperatura mínima	20.7
133476	7	Sololá	713	San Lucas Tolimán	10	San Lucas Tolimán	7	Julio	2023-03-07T00:00:00	2024-11-08T14:00:00	5	Humedad	62
133477	7	Sololá	713	San Lucas Tolimán	10	San Lucas Tolimán	7	Julio	2023-03-07T00:00:00	2024-11-08T14:00:00	6	Velocidad del viento	9.7
133478	7	Sololá	713	San Lucas Tolimán	10	San Lucas Tolimán	7	Julio	2023-03-07T00:00:00	2024-11-08T14:00:00	7	Dirección del viento	9.66
133479	7	Sololá	713	San Lucas Tolimán	10	San Lucas Tolimán	7	Julio	2023-03-07T00:00:00	2024-11-08T14:00:00	1	Precipitación	0
133480	7	Sololá	713	San Lucas Tolimán	10	San Lucas Tolimán	7	Julio	2023-03-07T00:00:00	2024-11-08T14:00:00	8	Radiación solar	568
133481	7	Sololá	713	San Lucas Tolimán	10	San Lucas Tolimán	7	Julio	2023-03-07T00:00:00	2024-11-08T15:00:00	2	Temperatura media	21.2
133482	7	Sololá	713	San Lucas Tolimán	10	San Lucas Tolimán	7	Julio	2023-03-07T00:00:00	2024-11-08T15:00:00	4	Temperatura máxima	21.2
133483	7	Sololá	713	San Lucas Tolimán	10	San Lucas Tolimán	7	Julio	2023-03-07T00:00:00	2024-11-08T15:00:00	3	Temperatura mínima	20.3
133484	7	Sololá	713	San Lucas Tolimán	10	San Lucas Tolimán	7	Julio	2023-03-07T00:00:00	2024-11-08T15:00:00	5	Humedad	59
133485	7	Sololá	713	San Lucas Tolimán	10	San Lucas Tolimán	7	Julio	2023-03-07T00:00:00	2024-11-08T15:00:00	6	Velocidad del viento	8
133486	7	Sololá	713	San Lucas Tolimán	10	San Lucas Tolimán	7	Julio	2023-03-07T00:00:00	2024-11-08T15:00:00	7	Dirección del viento	8.05
133487	7	Sololá	713	San Lucas Tolimán	10	San Lucas Tolimán	7	Julio	2023-03-07T00:00:00	2024-11-08T15:00:00	1	Precipitación	0
133488	7	Sololá	713	San Lucas Tolimán	10	San Lucas Tolimán	7	Julio	2023-03-07T00:00:00	2024-11-08T15:00:00	8	Radiación solar	246
133489	7	Sololá	713	San Lucas Tolimán	10	San Lucas Tolimán	7	Julio	2023-03-07T00:00:00	2024-11-08T16:00:00	2	Temperatura media	20.9
133490	7	Sololá	713	San Lucas Tolimán	10	San Lucas Tolimán	7	Julio	2023-03-07T00:00:00	2024-11-08T16:00:00	4	Temperatura máxima	21.3
133491	7	Sololá	713	San Lucas Tolimán	10	San Lucas Tolimán	7	Julio	2023-03-07T00:00:00	2024-11-08T16:00:00	3	Temperatura mínima	20.3
133492	7	Sololá	713	San Lucas Tolimán	10	San Lucas Tolimán	7	Julio	2023-03-07T00:00:00	2024-11-08T16:00:00	5	Humedad	60
133493	7	Sololá	713	San Lucas Tolimán	10	San Lucas Tolimán	7	Julio	2023-03-07T00:00:00	2024-11-08T16:00:00	6	Velocidad del viento	6.4
133494	7	Sololá	713	San Lucas Tolimán	10	San Lucas Tolimán	7	Julio	2023-03-07T00:00:00	2024-11-08T16:00:00	7	Dirección del viento	6.44
133495	7	Sololá	713	San Lucas Tolimán	10	San Lucas Tolimán	7	Julio	2023-03-07T00:00:00	2024-11-08T16:00:00	1	Precipitación	0
133496	7	Sololá	713	San Lucas Tolimán	10	San Lucas Tolimán	7	Julio	2023-03-07T00:00:00	2024-11-08T16:00:00	8	Radiación solar	339
133497	7	Sololá	713	San Lucas Tolimán	10	San Lucas Tolimán	7	Julio	2023-03-07T00:00:00	2024-11-08T17:00:00	2	Temperatura media	19.7
133498	7	Sololá	713	San Lucas Tolimán	10	San Lucas Tolimán	7	Julio	2023-03-07T00:00:00	2024-11-08T17:00:00	4	Temperatura máxima	20.9
133499	7	Sololá	713	San Lucas Tolimán	10	San Lucas Tolimán	7	Julio	2023-03-07T00:00:00	2024-11-08T17:00:00	3	Temperatura mínima	19.6
133500	7	Sololá	713	San Lucas Tolimán	10	San Lucas Tolimán	7	Julio	2023-03-07T00:00:00	2024-11-08T17:00:00	5	Humedad	61
133501	7	Sololá	713	San Lucas Tolimán	10	San Lucas Tolimán	7	Julio	2023-03-07T00:00:00	2024-11-08T17:00:00	6	Velocidad del viento	6.4
133502	7	Sololá	713	San Lucas Tolimán	10	San Lucas Tolimán	7	Julio	2023-03-07T00:00:00	2024-11-08T17:00:00	7	Dirección del viento	6.44
133503	7	Sololá	713	San Lucas Tolimán	10	San Lucas Tolimán	7	Julio	2023-03-07T00:00:00	2024-11-08T17:00:00	1	Precipitación	0
133504	7	Sololá	713	San Lucas Tolimán	10	San Lucas Tolimán	7	Julio	2023-03-07T00:00:00	2024-11-08T17:00:00	8	Radiación solar	96
133505	7	Sololá	713	San Lucas Tolimán	10	San Lucas Tolimán	7	Julio	2023-03-07T00:00:00	2024-11-08T18:00:00	2	Temperatura media	19.4
133506	7	Sololá	713	San Lucas Tolimán	10	San Lucas Tolimán	7	Julio	2023-03-07T00:00:00	2024-11-08T18:00:00	4	Temperatura máxima	19.7
133507	7	Sololá	713	San Lucas Tolimán	10	San Lucas Tolimán	7	Julio	2023-03-07T00:00:00	2024-11-08T18:00:00	3	Temperatura mínima	19.4
133508	7	Sololá	713	San Lucas Tolimán	10	San Lucas Tolimán	7	Julio	2023-03-07T00:00:00	2024-11-08T18:00:00	5	Humedad	61
133509	7	Sololá	713	San Lucas Tolimán	10	San Lucas Tolimán	7	Julio	2023-03-07T00:00:00	2024-11-08T18:00:00	6	Velocidad del viento	6.4
133510	7	Sololá	713	San Lucas Tolimán	10	San Lucas Tolimán	7	Julio	2023-03-07T00:00:00	2024-11-08T18:00:00	7	Dirección del viento	6.44
133511	7	Sololá	713	San Lucas Tolimán	10	San Lucas Tolimán	7	Julio	2023-03-07T00:00:00	2024-11-08T18:00:00	1	Precipitación	0
133512	7	Sololá	713	San Lucas Tolimán	10	San Lucas Tolimán	7	Julio	2023-03-07T00:00:00	2024-11-08T18:00:00	8	Radiación solar	34
133513	7	Sololá	713	San Lucas Tolimán	10	San Lucas Tolimán	7	Julio	2023-03-07T00:00:00	2024-11-08T19:00:00	2	Temperatura media	18.4
133514	7	Sololá	713	San Lucas Tolimán	10	San Lucas Tolimán	7	Julio	2023-03-07T00:00:00	2024-11-08T19:00:00	4	Temperatura máxima	19.4
133515	7	Sololá	713	San Lucas Tolimán	10	San Lucas Tolimán	7	Julio	2023-03-07T00:00:00	2024-11-08T19:00:00	3	Temperatura mínima	18.4
133516	7	Sololá	713	San Lucas Tolimán	10	San Lucas Tolimán	7	Julio	2023-03-07T00:00:00	2024-11-08T19:00:00	5	Humedad	67
133517	7	Sololá	713	San Lucas Tolimán	10	San Lucas Tolimán	7	Julio	2023-03-07T00:00:00	2024-11-08T19:00:00	6	Velocidad del viento	4.8
133518	7	Sololá	713	San Lucas Tolimán	10	San Lucas Tolimán	7	Julio	2023-03-07T00:00:00	2024-11-08T19:00:00	7	Dirección del viento	4.83
133519	7	Sololá	713	San Lucas Tolimán	10	San Lucas Tolimán	7	Julio	2023-03-07T00:00:00	2024-11-08T19:00:00	1	Precipitación	1
133520	7	Sololá	713	San Lucas Tolimán	10	San Lucas Tolimán	7	Julio	2023-03-07T00:00:00	2024-11-08T19:00:00	8	Radiación solar	0
133521	7	Sololá	713	San Lucas Tolimán	10	San Lucas Tolimán	7	Julio	2023-03-07T00:00:00	2024-11-08T20:00:00	2	Temperatura media	17.9
133522	7	Sololá	713	San Lucas Tolimán	10	San Lucas Tolimán	7	Julio	2023-03-07T00:00:00	2024-11-08T20:00:00	4	Temperatura máxima	18.4
133523	7	Sololá	713	San Lucas Tolimán	10	San Lucas Tolimán	7	Julio	2023-03-07T00:00:00	2024-11-08T20:00:00	3	Temperatura mínima	17.8
133524	7	Sololá	713	San Lucas Tolimán	10	San Lucas Tolimán	7	Julio	2023-03-07T00:00:00	2024-11-08T20:00:00	5	Humedad	67
133525	7	Sololá	713	San Lucas Tolimán	10	San Lucas Tolimán	7	Julio	2023-03-07T00:00:00	2024-11-08T20:00:00	6	Velocidad del viento	8
133526	7	Sololá	713	San Lucas Tolimán	10	San Lucas Tolimán	7	Julio	2023-03-07T00:00:00	2024-11-08T20:00:00	7	Dirección del viento	8.05
133527	7	Sololá	713	San Lucas Tolimán	10	San Lucas Tolimán	7	Julio	2023-03-07T00:00:00	2024-11-08T20:00:00	1	Precipitación	3.2
133528	7	Sololá	713	San Lucas Tolimán	10	San Lucas Tolimán	7	Julio	2023-03-07T00:00:00	2024-11-08T20:00:00	8	Radiación solar	0
133529	7	Sololá	713	San Lucas Tolimán	10	San Lucas Tolimán	7	Julio	2023-03-07T00:00:00	2024-11-08T21:00:00	2	Temperatura media	17.5
133530	7	Sololá	713	San Lucas Tolimán	10	San Lucas Tolimán	7	Julio	2023-03-07T00:00:00	2024-11-08T21:00:00	4	Temperatura máxima	17.9
133531	7	Sololá	713	San Lucas Tolimán	10	San Lucas Tolimán	7	Julio	2023-03-07T00:00:00	2024-11-08T21:00:00	3	Temperatura mínima	17.4
133532	7	Sololá	713	San Lucas Tolimán	10	San Lucas Tolimán	7	Julio	2023-03-07T00:00:00	2024-11-08T21:00:00	5	Humedad	65
133533	7	Sololá	713	San Lucas Tolimán	10	San Lucas Tolimán	7	Julio	2023-03-07T00:00:00	2024-11-08T21:00:00	6	Velocidad del viento	8
133534	7	Sololá	713	San Lucas Tolimán	10	San Lucas Tolimán	7	Julio	2023-03-07T00:00:00	2024-11-08T21:00:00	7	Dirección del viento	8.05
133535	7	Sololá	713	San Lucas Tolimán	10	San Lucas Tolimán	7	Julio	2023-03-07T00:00:00	2024-11-08T21:00:00	1	Precipitación	4.6
133536	7	Sololá	713	San Lucas Tolimán	10	San Lucas Tolimán	7	Julio	2023-03-07T00:00:00	2024-11-08T21:00:00	8	Radiación solar	0
133537	7	Sololá	713	San Lucas Tolimán	10	San Lucas Tolimán	7	Julio	2023-03-07T00:00:00	2024-11-08T22:00:00	2	Temperatura media	17.4
133538	7	Sololá	713	San Lucas Tolimán	10	San Lucas Tolimán	7	Julio	2023-03-07T00:00:00	2024-11-08T22:00:00	4	Temperatura máxima	17.6
133539	7	Sololá	713	San Lucas Tolimán	10	San Lucas Tolimán	7	Julio	2023-03-07T00:00:00	2024-11-08T22:00:00	3	Temperatura mínima	17.3
133540	7	Sololá	713	San Lucas Tolimán	10	San Lucas Tolimán	7	Julio	2023-03-07T00:00:00	2024-11-08T22:00:00	5	Humedad	67
133541	7	Sololá	713	San Lucas Tolimán	10	San Lucas Tolimán	7	Julio	2023-03-07T00:00:00	2024-11-08T22:00:00	6	Velocidad del viento	4.8
133542	7	Sololá	713	San Lucas Tolimán	10	San Lucas Tolimán	7	Julio	2023-03-07T00:00:00	2024-11-08T22:00:00	7	Dirección del viento	4.83
133543	7	Sololá	713	San Lucas Tolimán	10	San Lucas Tolimán	7	Julio	2023-03-07T00:00:00	2024-11-08T22:00:00	1	Precipitación	5
133544	7	Sololá	713	San Lucas Tolimán	10	San Lucas Tolimán	7	Julio	2023-03-07T00:00:00	2024-11-08T22:00:00	8	Radiación solar	0
133545	7	Sololá	713	San Lucas Tolimán	10	San Lucas Tolimán	7	Julio	2023-03-07T00:00:00	2024-11-08T23:00:00	2	Temperatura media	17.7
133546	7	Sololá	713	San Lucas Tolimán	10	San Lucas Tolimán	7	Julio	2023-03-07T00:00:00	2024-11-08T23:00:00	4	Temperatura máxima	17.8
133547	7	Sololá	713	San Lucas Tolimán	10	San Lucas Tolimán	7	Julio	2023-03-07T00:00:00	2024-11-08T23:00:00	3	Temperatura mínima	17.3
133548	7	Sololá	713	San Lucas Tolimán	10	San Lucas Tolimán	7	Julio	2023-03-07T00:00:00	2024-11-08T23:00:00	5	Humedad	66
133549	7	Sololá	713	San Lucas Tolimán	10	San Lucas Tolimán	7	Julio	2023-03-07T00:00:00	2024-11-08T23:00:00	6	Velocidad del viento	4.8
133550	7	Sololá	713	San Lucas Tolimán	10	San Lucas Tolimán	7	Julio	2023-03-07T00:00:00	2024-11-08T23:00:00	7	Dirección del viento	4.83
133551	7	Sololá	713	San Lucas Tolimán	10	San Lucas Tolimán	7	Julio	2023-03-07T00:00:00	2024-11-08T23:00:00	1	Precipitación	0
133552	7	Sololá	713	San Lucas Tolimán	10	San Lucas Tolimán	7	Julio	2023-03-07T00:00:00	2024-11-08T23:00:00	8	Radiación solar	0
133553	7	Sololá	713	San Lucas Tolimán	10	San Lucas Tolimán	7	Julio	2023-04-07T00:00:00	2024-11-08T00:00:00	2	Temperatura media	17.8
133554	7	Sololá	713	San Lucas Tolimán	10	San Lucas Tolimán	7	Julio	2023-04-07T00:00:00	2024-11-08T00:00:00	4	Temperatura máxima	17.8
133555	7	Sololá	713	San Lucas Tolimán	10	San Lucas Tolimán	7	Julio	2023-04-07T00:00:00	2024-11-08T00:00:00	3	Temperatura mínima	17.6
133556	7	Sololá	713	San Lucas Tolimán	10	San Lucas Tolimán	7	Julio	2023-04-07T00:00:00	2024-11-08T00:00:00	5	Humedad	63
133557	7	Sololá	713	San Lucas Tolimán	10	San Lucas Tolimán	7	Julio	2023-04-07T00:00:00	2024-11-08T00:00:00	6	Velocidad del viento	4.8
133558	7	Sololá	713	San Lucas Tolimán	10	San Lucas Tolimán	7	Julio	2023-04-07T00:00:00	2024-11-08T00:00:00	7	Dirección del viento	4.83
133559	7	Sololá	713	San Lucas Tolimán	10	San Lucas Tolimán	7	Julio	2023-04-07T00:00:00	2024-11-08T00:00:00	1	Precipitación	0
133560	7	Sololá	713	San Lucas Tolimán	10	San Lucas Tolimán	7	Julio	2023-04-07T00:00:00	2024-11-08T00:00:00	8	Radiación solar	0
133561	7	Sololá	713	San Lucas Tolimán	10	San Lucas Tolimán	7	Julio	2023-04-07T00:00:00	2024-11-08T01:00:00	2	Temperatura media	17.8
133562	7	Sololá	713	San Lucas Tolimán	10	San Lucas Tolimán	7	Julio	2023-04-07T00:00:00	2024-11-08T01:00:00	4	Temperatura máxima	17.9
133563	7	Sololá	713	San Lucas Tolimán	10	San Lucas Tolimán	7	Julio	2023-04-07T00:00:00	2024-11-08T01:00:00	3	Temperatura mínima	17.7
133564	7	Sololá	713	San Lucas Tolimán	10	San Lucas Tolimán	7	Julio	2023-04-07T00:00:00	2024-11-08T01:00:00	5	Humedad	64
133565	7	Sololá	713	San Lucas Tolimán	10	San Lucas Tolimán	7	Julio	2023-04-07T00:00:00	2024-11-08T01:00:00	6	Velocidad del viento	3.2
133566	7	Sololá	713	San Lucas Tolimán	10	San Lucas Tolimán	7	Julio	2023-04-07T00:00:00	2024-11-08T01:00:00	7	Dirección del viento	3.22
133567	7	Sololá	713	San Lucas Tolimán	10	San Lucas Tolimán	7	Julio	2023-04-07T00:00:00	2024-11-08T01:00:00	1	Precipitación	0
133568	7	Sololá	713	San Lucas Tolimán	10	San Lucas Tolimán	7	Julio	2023-04-07T00:00:00	2024-11-08T01:00:00	8	Radiación solar	0
133569	7	Sololá	713	San Lucas Tolimán	10	San Lucas Tolimán	7	Julio	2023-04-07T00:00:00	2024-11-08T02:00:00	2	Temperatura media	17.4
133570	7	Sololá	713	San Lucas Tolimán	10	San Lucas Tolimán	7	Julio	2023-04-07T00:00:00	2024-11-08T02:00:00	4	Temperatura máxima	17.8
133571	7	Sololá	713	San Lucas Tolimán	10	San Lucas Tolimán	7	Julio	2023-04-07T00:00:00	2024-11-08T02:00:00	3	Temperatura mínima	17.4
133572	7	Sololá	713	San Lucas Tolimán	10	San Lucas Tolimán	7	Julio	2023-04-07T00:00:00	2024-11-08T02:00:00	5	Humedad	67
133573	7	Sololá	713	San Lucas Tolimán	10	San Lucas Tolimán	7	Julio	2023-04-07T00:00:00	2024-11-08T02:00:00	6	Velocidad del viento	0
133574	7	Sololá	713	San Lucas Tolimán	10	San Lucas Tolimán	7	Julio	2023-04-07T00:00:00	2024-11-08T02:00:00	7	Dirección del viento	0
133575	7	Sololá	713	San Lucas Tolimán	10	San Lucas Tolimán	7	Julio	2023-04-07T00:00:00	2024-11-08T02:00:00	1	Precipitación	0
133576	7	Sololá	713	San Lucas Tolimán	10	San Lucas Tolimán	7	Julio	2023-04-07T00:00:00	2024-11-08T02:00:00	8	Radiación solar	0
133577	7	Sololá	713	San Lucas Tolimán	10	San Lucas Tolimán	7	Julio	2023-04-07T00:00:00	2024-11-08T03:00:00	2	Temperatura media	17.1
133578	7	Sololá	713	San Lucas Tolimán	10	San Lucas Tolimán	7	Julio	2023-04-07T00:00:00	2024-11-08T03:00:00	4	Temperatura máxima	17.4
133579	7	Sololá	713	San Lucas Tolimán	10	San Lucas Tolimán	7	Julio	2023-04-07T00:00:00	2024-11-08T03:00:00	3	Temperatura mínima	17.1
133580	7	Sololá	713	San Lucas Tolimán	10	San Lucas Tolimán	7	Julio	2023-04-07T00:00:00	2024-11-08T03:00:00	5	Humedad	67
133581	7	Sololá	713	San Lucas Tolimán	10	San Lucas Tolimán	7	Julio	2023-04-07T00:00:00	2024-11-08T03:00:00	6	Velocidad del viento	1.6
133582	7	Sololá	713	San Lucas Tolimán	10	San Lucas Tolimán	7	Julio	2023-04-07T00:00:00	2024-11-08T03:00:00	7	Dirección del viento	1.61
133583	7	Sololá	713	San Lucas Tolimán	10	San Lucas Tolimán	7	Julio	2023-04-07T00:00:00	2024-11-08T03:00:00	1	Precipitación	0
133584	7	Sololá	713	San Lucas Tolimán	10	San Lucas Tolimán	7	Julio	2023-04-07T00:00:00	2024-11-08T03:00:00	8	Radiación solar	0
133585	7	Sololá	713	San Lucas Tolimán	10	San Lucas Tolimán	7	Julio	2023-04-07T00:00:00	2024-11-08T04:00:00	2	Temperatura media	17.1
133586	7	Sololá	713	San Lucas Tolimán	10	San Lucas Tolimán	7	Julio	2023-04-07T00:00:00	2024-11-08T04:00:00	4	Temperatura máxima	17.3
133587	7	Sololá	713	San Lucas Tolimán	10	San Lucas Tolimán	7	Julio	2023-04-07T00:00:00	2024-11-08T04:00:00	3	Temperatura mínima	17.1
133588	7	Sololá	713	San Lucas Tolimán	10	San Lucas Tolimán	7	Julio	2023-04-07T00:00:00	2024-11-08T04:00:00	5	Humedad	68
133589	7	Sololá	713	San Lucas Tolimán	10	San Lucas Tolimán	7	Julio	2023-04-07T00:00:00	2024-11-08T04:00:00	6	Velocidad del viento	4.8
133590	7	Sololá	713	San Lucas Tolimán	10	San Lucas Tolimán	7	Julio	2023-04-07T00:00:00	2024-11-08T04:00:00	7	Dirección del viento	4.83
133591	7	Sololá	713	San Lucas Tolimán	10	San Lucas Tolimán	7	Julio	2023-04-07T00:00:00	2024-11-08T04:00:00	1	Precipitación	0.2
133592	7	Sololá	713	San Lucas Tolimán	10	San Lucas Tolimán	7	Julio	2023-04-07T00:00:00	2024-11-08T04:00:00	8	Radiación solar	0
133593	7	Sololá	713	San Lucas Tolimán	10	San Lucas Tolimán	7	Julio	2023-04-07T00:00:00	2024-11-08T05:00:00	2	Temperatura media	16.9
133594	7	Sololá	713	San Lucas Tolimán	10	San Lucas Tolimán	7	Julio	2023-04-07T00:00:00	2024-11-08T05:00:00	4	Temperatura máxima	17.1
133595	7	Sololá	713	San Lucas Tolimán	10	San Lucas Tolimán	7	Julio	2023-04-07T00:00:00	2024-11-08T05:00:00	3	Temperatura mínima	16.9
133596	7	Sololá	713	San Lucas Tolimán	10	San Lucas Tolimán	7	Julio	2023-04-07T00:00:00	2024-11-08T05:00:00	5	Humedad	68
133597	7	Sololá	713	San Lucas Tolimán	10	San Lucas Tolimán	7	Julio	2023-04-07T00:00:00	2024-11-08T05:00:00	6	Velocidad del viento	4.8
133598	7	Sololá	713	San Lucas Tolimán	10	San Lucas Tolimán	7	Julio	2023-04-07T00:00:00	2024-11-08T05:00:00	7	Dirección del viento	4.83
133599	7	Sololá	713	San Lucas Tolimán	10	San Lucas Tolimán	7	Julio	2023-04-07T00:00:00	2024-11-08T05:00:00	1	Precipitación	0
133600	7	Sololá	713	San Lucas Tolimán	10	San Lucas Tolimán	7	Julio	2023-04-07T00:00:00	2024-11-08T05:00:00	8	Radiación solar	0
133601	7	Sololá	713	San Lucas Tolimán	10	San Lucas Tolimán	7	Julio	2023-04-07T00:00:00	2024-11-08T06:00:00	2	Temperatura media	16.7
133602	7	Sololá	713	San Lucas Tolimán	10	San Lucas Tolimán	7	Julio	2023-04-07T00:00:00	2024-11-08T06:00:00	4	Temperatura máxima	17
133603	7	Sololá	713	San Lucas Tolimán	10	San Lucas Tolimán	7	Julio	2023-04-07T00:00:00	2024-11-08T06:00:00	3	Temperatura mínima	16.6
133604	7	Sololá	713	San Lucas Tolimán	10	San Lucas Tolimán	7	Julio	2023-04-07T00:00:00	2024-11-08T06:00:00	5	Humedad	68
133605	7	Sololá	713	San Lucas Tolimán	10	San Lucas Tolimán	7	Julio	2023-04-07T00:00:00	2024-11-08T06:00:00	6	Velocidad del viento	3.2
133606	7	Sololá	713	San Lucas Tolimán	10	San Lucas Tolimán	7	Julio	2023-04-07T00:00:00	2024-11-08T06:00:00	7	Dirección del viento	3.22
133607	7	Sololá	713	San Lucas Tolimán	10	San Lucas Tolimán	7	Julio	2023-04-07T00:00:00	2024-11-08T06:00:00	1	Precipitación	0
133608	7	Sololá	713	San Lucas Tolimán	10	San Lucas Tolimán	7	Julio	2023-04-07T00:00:00	2024-11-08T06:00:00	8	Radiación solar	2
133609	7	Sololá	713	San Lucas Tolimán	10	San Lucas Tolimán	7	Julio	2023-04-07T00:00:00	2024-11-08T07:00:00	2	Temperatura media	17.9
133610	7	Sololá	713	San Lucas Tolimán	10	San Lucas Tolimán	7	Julio	2023-04-07T00:00:00	2024-11-08T07:00:00	4	Temperatura máxima	17.9
133611	7	Sololá	713	San Lucas Tolimán	10	San Lucas Tolimán	7	Julio	2023-04-07T00:00:00	2024-11-08T07:00:00	3	Temperatura mínima	16.7
133612	7	Sololá	713	San Lucas Tolimán	10	San Lucas Tolimán	7	Julio	2023-04-07T00:00:00	2024-11-08T07:00:00	5	Humedad	63
133613	7	Sololá	713	San Lucas Tolimán	10	San Lucas Tolimán	7	Julio	2023-04-07T00:00:00	2024-11-08T07:00:00	6	Velocidad del viento	3.2
133614	7	Sololá	713	San Lucas Tolimán	10	San Lucas Tolimán	7	Julio	2023-04-07T00:00:00	2024-11-08T07:00:00	7	Dirección del viento	3.22
133615	7	Sololá	713	San Lucas Tolimán	10	San Lucas Tolimán	7	Julio	2023-04-07T00:00:00	2024-11-08T07:00:00	1	Precipitación	0
133616	7	Sololá	713	San Lucas Tolimán	10	San Lucas Tolimán	7	Julio	2023-04-07T00:00:00	2024-11-08T07:00:00	8	Radiación solar	47
133617	7	Sololá	713	San Lucas Tolimán	10	San Lucas Tolimán	7	Julio	2023-04-07T00:00:00	2024-11-08T08:00:00	2	Temperatura media	18.4
133618	7	Sololá	713	San Lucas Tolimán	10	San Lucas Tolimán	7	Julio	2023-04-07T00:00:00	2024-11-08T08:00:00	4	Temperatura máxima	18.4
133619	7	Sololá	713	San Lucas Tolimán	10	San Lucas Tolimán	7	Julio	2023-04-07T00:00:00	2024-11-08T08:00:00	3	Temperatura mínima	17.8
133620	7	Sololá	713	San Lucas Tolimán	10	San Lucas Tolimán	7	Julio	2023-04-07T00:00:00	2024-11-08T08:00:00	5	Humedad	60
133621	7	Sololá	713	San Lucas Tolimán	10	San Lucas Tolimán	7	Julio	2023-04-07T00:00:00	2024-11-08T08:00:00	6	Velocidad del viento	6.4
133622	7	Sololá	713	San Lucas Tolimán	10	San Lucas Tolimán	7	Julio	2023-04-07T00:00:00	2024-11-08T08:00:00	7	Dirección del viento	6.44
133623	7	Sololá	713	San Lucas Tolimán	10	San Lucas Tolimán	7	Julio	2023-04-07T00:00:00	2024-11-08T08:00:00	1	Precipitación	0
133624	7	Sololá	713	San Lucas Tolimán	10	San Lucas Tolimán	7	Julio	2023-04-07T00:00:00	2024-11-08T08:00:00	8	Radiación solar	109
133625	7	Sololá	713	San Lucas Tolimán	10	San Lucas Tolimán	7	Julio	2023-04-07T00:00:00	2024-11-08T09:00:00	2	Temperatura media	20.6
133626	7	Sololá	713	San Lucas Tolimán	10	San Lucas Tolimán	7	Julio	2023-04-07T00:00:00	2024-11-08T09:00:00	4	Temperatura máxima	20.6
133627	7	Sololá	713	San Lucas Tolimán	10	San Lucas Tolimán	7	Julio	2023-04-07T00:00:00	2024-11-08T09:00:00	3	Temperatura mínima	18.4
133628	7	Sololá	713	San Lucas Tolimán	10	San Lucas Tolimán	7	Julio	2023-04-07T00:00:00	2024-11-08T09:00:00	5	Humedad	57
133629	7	Sololá	713	San Lucas Tolimán	10	San Lucas Tolimán	7	Julio	2023-04-07T00:00:00	2024-11-08T09:00:00	6	Velocidad del viento	6.4
133630	7	Sololá	713	San Lucas Tolimán	10	San Lucas Tolimán	7	Julio	2023-04-07T00:00:00	2024-11-08T09:00:00	7	Dirección del viento	6.44
133631	7	Sololá	713	San Lucas Tolimán	10	San Lucas Tolimán	7	Julio	2023-04-07T00:00:00	2024-11-08T09:00:00	1	Precipitación	0
133632	7	Sololá	713	San Lucas Tolimán	10	San Lucas Tolimán	7	Julio	2023-04-07T00:00:00	2024-11-08T09:00:00	8	Radiación solar	353
133633	7	Sololá	713	San Lucas Tolimán	10	San Lucas Tolimán	7	Julio	2023-04-07T00:00:00	2024-11-08T10:00:00	2	Temperatura media	21.8
133634	7	Sololá	713	San Lucas Tolimán	10	San Lucas Tolimán	7	Julio	2023-04-07T00:00:00	2024-11-08T10:00:00	4	Temperatura máxima	21.9
133635	7	Sololá	713	San Lucas Tolimán	10	San Lucas Tolimán	7	Julio	2023-04-07T00:00:00	2024-11-08T10:00:00	3	Temperatura mínima	20.6
133636	7	Sololá	713	San Lucas Tolimán	10	San Lucas Tolimán	7	Julio	2023-04-07T00:00:00	2024-11-08T10:00:00	5	Humedad	57
133637	7	Sololá	713	San Lucas Tolimán	10	San Lucas Tolimán	7	Julio	2023-04-07T00:00:00	2024-11-08T10:00:00	6	Velocidad del viento	3.2
133638	7	Sololá	713	San Lucas Tolimán	10	San Lucas Tolimán	7	Julio	2023-04-07T00:00:00	2024-11-08T10:00:00	7	Dirección del viento	3.22
133639	7	Sololá	713	San Lucas Tolimán	10	San Lucas Tolimán	7	Julio	2023-04-07T00:00:00	2024-11-08T10:00:00	1	Precipitación	0
133640	7	Sololá	713	San Lucas Tolimán	10	San Lucas Tolimán	7	Julio	2023-04-07T00:00:00	2024-11-08T10:00:00	8	Radiación solar	567
133641	7	Sololá	713	San Lucas Tolimán	10	San Lucas Tolimán	7	Julio	2023-04-07T00:00:00	2024-11-08T11:00:00	2	Temperatura media	21.7
133642	7	Sololá	713	San Lucas Tolimán	10	San Lucas Tolimán	7	Julio	2023-04-07T00:00:00	2024-11-08T11:00:00	4	Temperatura máxima	22.3
133643	7	Sololá	713	San Lucas Tolimán	10	San Lucas Tolimán	7	Julio	2023-04-07T00:00:00	2024-11-08T11:00:00	3	Temperatura mínima	21.1
133644	7	Sololá	713	San Lucas Tolimán	10	San Lucas Tolimán	7	Julio	2023-04-07T00:00:00	2024-11-08T11:00:00	5	Humedad	61
133645	7	Sololá	713	San Lucas Tolimán	10	San Lucas Tolimán	7	Julio	2023-04-07T00:00:00	2024-11-08T11:00:00	6	Velocidad del viento	6.4
133646	7	Sololá	713	San Lucas Tolimán	10	San Lucas Tolimán	7	Julio	2023-04-07T00:00:00	2024-11-08T11:00:00	7	Dirección del viento	6.44
133647	7	Sololá	713	San Lucas Tolimán	10	San Lucas Tolimán	7	Julio	2023-04-07T00:00:00	2024-11-08T11:00:00	1	Precipitación	0
133648	7	Sololá	713	San Lucas Tolimán	10	San Lucas Tolimán	7	Julio	2023-04-07T00:00:00	2024-11-08T11:00:00	8	Radiación solar	431
133649	7	Sololá	713	San Lucas Tolimán	10	San Lucas Tolimán	7	Julio	2023-04-07T00:00:00	2024-11-08T12:00:00	2	Temperatura media	22.9
133650	7	Sololá	713	San Lucas Tolimán	10	San Lucas Tolimán	7	Julio	2023-04-07T00:00:00	2024-11-08T12:00:00	4	Temperatura máxima	23.2
133651	7	Sololá	713	San Lucas Tolimán	10	San Lucas Tolimán	7	Julio	2023-04-07T00:00:00	2024-11-08T12:00:00	3	Temperatura mínima	21.1
133652	7	Sololá	713	San Lucas Tolimán	10	San Lucas Tolimán	7	Julio	2023-04-07T00:00:00	2024-11-08T12:00:00	5	Humedad	58
133653	7	Sololá	713	San Lucas Tolimán	10	San Lucas Tolimán	7	Julio	2023-04-07T00:00:00	2024-11-08T12:00:00	6	Velocidad del viento	8
133654	7	Sololá	713	San Lucas Tolimán	10	San Lucas Tolimán	7	Julio	2023-04-07T00:00:00	2024-11-08T12:00:00	7	Dirección del viento	8.05
133655	7	Sololá	713	San Lucas Tolimán	10	San Lucas Tolimán	7	Julio	2023-04-07T00:00:00	2024-11-08T12:00:00	1	Precipitación	0
133656	7	Sololá	713	San Lucas Tolimán	10	San Lucas Tolimán	7	Julio	2023-04-07T00:00:00	2024-11-08T12:00:00	8	Radiación solar	673
133657	7	Sololá	713	San Lucas Tolimán	10	San Lucas Tolimán	7	Julio	2023-04-07T00:00:00	2024-11-08T13:00:00	2	Temperatura media	22.5
133658	7	Sololá	713	San Lucas Tolimán	10	San Lucas Tolimán	7	Julio	2023-04-07T00:00:00	2024-11-08T13:00:00	4	Temperatura máxima	23.6
133659	7	Sololá	713	San Lucas Tolimán	10	San Lucas Tolimán	7	Julio	2023-04-07T00:00:00	2024-11-08T13:00:00	3	Temperatura mínima	22.2
133660	7	Sololá	713	San Lucas Tolimán	10	San Lucas Tolimán	7	Julio	2023-04-07T00:00:00	2024-11-08T13:00:00	5	Humedad	61
133661	7	Sololá	713	San Lucas Tolimán	10	San Lucas Tolimán	7	Julio	2023-04-07T00:00:00	2024-11-08T13:00:00	6	Velocidad del viento	8
133662	7	Sololá	713	San Lucas Tolimán	10	San Lucas Tolimán	7	Julio	2023-04-07T00:00:00	2024-11-08T13:00:00	7	Dirección del viento	8.05
133663	7	Sololá	713	San Lucas Tolimán	10	San Lucas Tolimán	7	Julio	2023-04-07T00:00:00	2024-11-08T13:00:00	1	Precipitación	0
133664	7	Sololá	713	San Lucas Tolimán	10	San Lucas Tolimán	7	Julio	2023-04-07T00:00:00	2024-11-08T13:00:00	8	Radiación solar	641
133665	7	Sololá	713	San Lucas Tolimán	10	San Lucas Tolimán	7	Julio	2023-04-07T00:00:00	2024-11-08T14:00:00	2	Temperatura media	20.4
133666	7	Sololá	713	San Lucas Tolimán	10	San Lucas Tolimán	7	Julio	2023-04-07T00:00:00	2024-11-08T14:00:00	4	Temperatura máxima	22.5
133667	7	Sololá	713	San Lucas Tolimán	10	San Lucas Tolimán	7	Julio	2023-04-07T00:00:00	2024-11-08T14:00:00	3	Temperatura mínima	20.3
133668	7	Sololá	713	San Lucas Tolimán	10	San Lucas Tolimán	7	Julio	2023-04-07T00:00:00	2024-11-08T14:00:00	5	Humedad	62
133669	7	Sololá	713	San Lucas Tolimán	10	San Lucas Tolimán	7	Julio	2023-04-07T00:00:00	2024-11-08T14:00:00	6	Velocidad del viento	8
133670	7	Sololá	713	San Lucas Tolimán	10	San Lucas Tolimán	7	Julio	2023-04-07T00:00:00	2024-11-08T14:00:00	7	Dirección del viento	8.05
133671	7	Sololá	713	San Lucas Tolimán	10	San Lucas Tolimán	7	Julio	2023-04-07T00:00:00	2024-11-08T14:00:00	1	Precipitación	0.2
133672	7	Sololá	713	San Lucas Tolimán	10	San Lucas Tolimán	7	Julio	2023-04-07T00:00:00	2024-11-08T14:00:00	8	Radiación solar	365
133673	7	Sololá	713	San Lucas Tolimán	10	San Lucas Tolimán	7	Julio	2023-04-07T00:00:00	2024-11-08T15:00:00	2	Temperatura media	19.2
133674	7	Sololá	713	San Lucas Tolimán	10	San Lucas Tolimán	7	Julio	2023-04-07T00:00:00	2024-11-08T15:00:00	4	Temperatura máxima	20.4
133675	7	Sololá	713	San Lucas Tolimán	10	San Lucas Tolimán	7	Julio	2023-04-07T00:00:00	2024-11-08T15:00:00	3	Temperatura mínima	19.1
133676	7	Sololá	713	San Lucas Tolimán	10	San Lucas Tolimán	7	Julio	2023-04-07T00:00:00	2024-11-08T15:00:00	5	Humedad	65
133677	7	Sololá	713	San Lucas Tolimán	10	San Lucas Tolimán	7	Julio	2023-04-07T00:00:00	2024-11-08T15:00:00	6	Velocidad del viento	6.4
133678	7	Sololá	713	San Lucas Tolimán	10	San Lucas Tolimán	7	Julio	2023-04-07T00:00:00	2024-11-08T15:00:00	7	Dirección del viento	6.44
133679	7	Sololá	713	San Lucas Tolimán	10	San Lucas Tolimán	7	Julio	2023-04-07T00:00:00	2024-11-08T15:00:00	1	Precipitación	12.2
133680	7	Sololá	713	San Lucas Tolimán	10	San Lucas Tolimán	7	Julio	2023-04-07T00:00:00	2024-11-08T15:00:00	8	Radiación solar	157
133681	7	Sololá	713	San Lucas Tolimán	10	San Lucas Tolimán	7	Julio	2023-04-07T00:00:00	2024-11-08T16:00:00	2	Temperatura media	19.3
133682	7	Sololá	713	San Lucas Tolimán	10	San Lucas Tolimán	7	Julio	2023-04-07T00:00:00	2024-11-08T16:00:00	4	Temperatura máxima	19.3
133683	7	Sololá	713	San Lucas Tolimán	10	San Lucas Tolimán	7	Julio	2023-04-07T00:00:00	2024-11-08T16:00:00	3	Temperatura mínima	18.7
133684	7	Sololá	713	San Lucas Tolimán	10	San Lucas Tolimán	7	Julio	2023-04-07T00:00:00	2024-11-08T16:00:00	5	Humedad	67
133685	7	Sololá	713	San Lucas Tolimán	10	San Lucas Tolimán	7	Julio	2023-04-07T00:00:00	2024-11-08T16:00:00	6	Velocidad del viento	4.8
133686	7	Sololá	713	San Lucas Tolimán	10	San Lucas Tolimán	7	Julio	2023-04-07T00:00:00	2024-11-08T16:00:00	7	Dirección del viento	4.83
133687	7	Sololá	713	San Lucas Tolimán	10	San Lucas Tolimán	7	Julio	2023-04-07T00:00:00	2024-11-08T16:00:00	1	Precipitación	0.4
133688	7	Sololá	713	San Lucas Tolimán	10	San Lucas Tolimán	7	Julio	2023-04-07T00:00:00	2024-11-08T16:00:00	8	Radiación solar	116
133689	7	Sololá	713	San Lucas Tolimán	10	San Lucas Tolimán	7	Julio	2023-04-07T00:00:00	2024-11-08T17:00:00	2	Temperatura media	19.6
133690	7	Sololá	713	San Lucas Tolimán	10	San Lucas Tolimán	7	Julio	2023-04-07T00:00:00	2024-11-08T17:00:00	4	Temperatura máxima	19.8
133691	7	Sololá	713	San Lucas Tolimán	10	San Lucas Tolimán	7	Julio	2023-04-07T00:00:00	2024-11-08T17:00:00	3	Temperatura mínima	19.2
133692	7	Sololá	713	San Lucas Tolimán	10	San Lucas Tolimán	7	Julio	2023-04-07T00:00:00	2024-11-08T17:00:00	5	Humedad	60
133693	7	Sololá	713	San Lucas Tolimán	10	San Lucas Tolimán	7	Julio	2023-04-07T00:00:00	2024-11-08T17:00:00	6	Velocidad del viento	4.8
133694	7	Sololá	713	San Lucas Tolimán	10	San Lucas Tolimán	7	Julio	2023-04-07T00:00:00	2024-11-08T17:00:00	7	Dirección del viento	4.83
133695	7	Sololá	713	San Lucas Tolimán	10	San Lucas Tolimán	7	Julio	2023-04-07T00:00:00	2024-11-08T17:00:00	1	Precipitación	0.4
133696	7	Sololá	713	San Lucas Tolimán	10	San Lucas Tolimán	7	Julio	2023-04-07T00:00:00	2024-11-08T17:00:00	8	Radiación solar	187
133697	7	Sololá	713	San Lucas Tolimán	10	San Lucas Tolimán	7	Julio	2023-04-07T00:00:00	2024-11-08T18:00:00	2	Temperatura media	18.9
133698	7	Sololá	713	San Lucas Tolimán	10	San Lucas Tolimán	7	Julio	2023-04-07T00:00:00	2024-11-08T18:00:00	4	Temperatura máxima	19.7
133699	7	Sololá	713	San Lucas Tolimán	10	San Lucas Tolimán	7	Julio	2023-04-07T00:00:00	2024-11-08T18:00:00	3	Temperatura mínima	18.9
133700	7	Sololá	713	San Lucas Tolimán	10	San Lucas Tolimán	7	Julio	2023-04-07T00:00:00	2024-11-08T18:00:00	5	Humedad	65
133701	7	Sololá	713	San Lucas Tolimán	10	San Lucas Tolimán	7	Julio	2023-04-07T00:00:00	2024-11-08T18:00:00	6	Velocidad del viento	6.4
133702	7	Sololá	713	San Lucas Tolimán	10	San Lucas Tolimán	7	Julio	2023-04-07T00:00:00	2024-11-08T18:00:00	7	Dirección del viento	6.44
133703	7	Sololá	713	San Lucas Tolimán	10	San Lucas Tolimán	7	Julio	2023-04-07T00:00:00	2024-11-08T18:00:00	1	Precipitación	0
133704	7	Sololá	713	San Lucas Tolimán	10	San Lucas Tolimán	7	Julio	2023-04-07T00:00:00	2024-11-08T18:00:00	8	Radiación solar	38
133705	7	Sololá	713	San Lucas Tolimán	10	San Lucas Tolimán	7	Julio	2023-04-07T00:00:00	2024-11-08T19:00:00	2	Temperatura media	18.6
133706	7	Sololá	713	San Lucas Tolimán	10	San Lucas Tolimán	7	Julio	2023-04-07T00:00:00	2024-11-08T19:00:00	4	Temperatura máxima	19
133707	7	Sololá	713	San Lucas Tolimán	10	San Lucas Tolimán	7	Julio	2023-04-07T00:00:00	2024-11-08T19:00:00	3	Temperatura mínima	18.4
133708	7	Sololá	713	San Lucas Tolimán	10	San Lucas Tolimán	7	Julio	2023-04-07T00:00:00	2024-11-08T19:00:00	5	Humedad	66
133709	7	Sololá	713	San Lucas Tolimán	10	San Lucas Tolimán	7	Julio	2023-04-07T00:00:00	2024-11-08T19:00:00	6	Velocidad del viento	4.8
133710	7	Sololá	713	San Lucas Tolimán	10	San Lucas Tolimán	7	Julio	2023-04-07T00:00:00	2024-11-08T19:00:00	7	Dirección del viento	4.83
133711	7	Sololá	713	San Lucas Tolimán	10	San Lucas Tolimán	7	Julio	2023-04-07T00:00:00	2024-11-08T19:00:00	1	Precipitación	4.2
133712	7	Sololá	713	San Lucas Tolimán	10	San Lucas Tolimán	7	Julio	2023-04-07T00:00:00	2024-11-08T19:00:00	8	Radiación solar	0
133713	7	Sololá	713	San Lucas Tolimán	10	San Lucas Tolimán	7	Julio	2023-04-07T00:00:00	2024-11-08T20:00:00	2	Temperatura media	18.3
133714	7	Sololá	713	San Lucas Tolimán	10	San Lucas Tolimán	7	Julio	2023-04-07T00:00:00	2024-11-08T20:00:00	4	Temperatura máxima	18.6
133715	7	Sololá	713	San Lucas Tolimán	10	San Lucas Tolimán	7	Julio	2023-04-07T00:00:00	2024-11-08T20:00:00	3	Temperatura mínima	18.2
133716	7	Sololá	713	San Lucas Tolimán	10	San Lucas Tolimán	7	Julio	2023-04-07T00:00:00	2024-11-08T20:00:00	5	Humedad	66
133717	7	Sololá	713	San Lucas Tolimán	10	San Lucas Tolimán	7	Julio	2023-04-07T00:00:00	2024-11-08T20:00:00	6	Velocidad del viento	1.6
133718	7	Sololá	713	San Lucas Tolimán	10	San Lucas Tolimán	7	Julio	2023-04-07T00:00:00	2024-11-08T20:00:00	7	Dirección del viento	1.61
133719	7	Sololá	713	San Lucas Tolimán	10	San Lucas Tolimán	7	Julio	2023-04-07T00:00:00	2024-11-08T20:00:00	1	Precipitación	0.2
133720	7	Sololá	713	San Lucas Tolimán	10	San Lucas Tolimán	7	Julio	2023-04-07T00:00:00	2024-11-08T20:00:00	8	Radiación solar	0
133721	7	Sololá	713	San Lucas Tolimán	10	San Lucas Tolimán	7	Julio	2023-04-07T00:00:00	2024-11-08T21:00:00	2	Temperatura media	18.2
133722	7	Sololá	713	San Lucas Tolimán	10	San Lucas Tolimán	7	Julio	2023-04-07T00:00:00	2024-11-08T21:00:00	4	Temperatura máxima	18.3
133723	7	Sololá	713	San Lucas Tolimán	10	San Lucas Tolimán	7	Julio	2023-04-07T00:00:00	2024-11-08T21:00:00	3	Temperatura mínima	18.1
133724	7	Sololá	713	San Lucas Tolimán	10	San Lucas Tolimán	7	Julio	2023-04-07T00:00:00	2024-11-08T21:00:00	5	Humedad	67
133725	7	Sololá	713	San Lucas Tolimán	10	San Lucas Tolimán	7	Julio	2023-04-07T00:00:00	2024-11-08T21:00:00	6	Velocidad del viento	1.6
133726	7	Sololá	713	San Lucas Tolimán	10	San Lucas Tolimán	7	Julio	2023-04-07T00:00:00	2024-11-08T21:00:00	7	Dirección del viento	1.61
133727	7	Sololá	713	San Lucas Tolimán	10	San Lucas Tolimán	7	Julio	2023-04-07T00:00:00	2024-11-08T21:00:00	1	Precipitación	0.2
133728	7	Sololá	713	San Lucas Tolimán	10	San Lucas Tolimán	7	Julio	2023-04-07T00:00:00	2024-11-08T21:00:00	8	Radiación solar	0
133729	7	Sololá	713	San Lucas Tolimán	10	San Lucas Tolimán	7	Julio	2023-04-07T00:00:00	2024-11-08T22:00:00	2	Temperatura media	18.4
133730	7	Sololá	713	San Lucas Tolimán	10	San Lucas Tolimán	7	Julio	2023-04-07T00:00:00	2024-11-08T22:00:00	4	Temperatura máxima	18.4
133731	7	Sololá	713	San Lucas Tolimán	10	San Lucas Tolimán	7	Julio	2023-04-07T00:00:00	2024-11-08T22:00:00	3	Temperatura mínima	18.1
133732	7	Sololá	713	San Lucas Tolimán	10	San Lucas Tolimán	7	Julio	2023-04-07T00:00:00	2024-11-08T22:00:00	5	Humedad	67
133733	7	Sololá	713	San Lucas Tolimán	10	San Lucas Tolimán	7	Julio	2023-04-07T00:00:00	2024-11-08T22:00:00	6	Velocidad del viento	1.6
133734	7	Sololá	713	San Lucas Tolimán	10	San Lucas Tolimán	7	Julio	2023-04-07T00:00:00	2024-11-08T22:00:00	7	Dirección del viento	1.61
133735	7	Sololá	713	San Lucas Tolimán	10	San Lucas Tolimán	7	Julio	2023-04-07T00:00:00	2024-11-08T22:00:00	1	Precipitación	0
133736	7	Sololá	713	San Lucas Tolimán	10	San Lucas Tolimán	7	Julio	2023-04-07T00:00:00	2024-11-08T22:00:00	8	Radiación solar	0
133737	7	Sololá	713	San Lucas Tolimán	10	San Lucas Tolimán	7	Julio	2023-04-07T00:00:00	2024-11-08T23:00:00	2	Temperatura media	18.4
133738	7	Sololá	713	San Lucas Tolimán	10	San Lucas Tolimán	7	Julio	2023-04-07T00:00:00	2024-11-08T23:00:00	4	Temperatura máxima	18.6
133739	7	Sololá	713	San Lucas Tolimán	10	San Lucas Tolimán	7	Julio	2023-04-07T00:00:00	2024-11-08T23:00:00	3	Temperatura mínima	18.4
133740	7	Sololá	713	San Lucas Tolimán	10	San Lucas Tolimán	7	Julio	2023-04-07T00:00:00	2024-11-08T23:00:00	5	Humedad	68
133741	7	Sololá	713	San Lucas Tolimán	10	San Lucas Tolimán	7	Julio	2023-04-07T00:00:00	2024-11-08T23:00:00	6	Velocidad del viento	0
133742	7	Sololá	713	San Lucas Tolimán	10	San Lucas Tolimán	7	Julio	2023-04-07T00:00:00	2024-11-08T23:00:00	7	Dirección del viento	0
133743	7	Sololá	713	San Lucas Tolimán	10	San Lucas Tolimán	7	Julio	2023-04-07T00:00:00	2024-11-08T23:00:00	1	Precipitación	0.4
133744	7	Sololá	713	San Lucas Tolimán	10	San Lucas Tolimán	7	Julio	2023-04-07T00:00:00	2024-11-08T23:00:00	8	Radiación solar	0
133745	7	Sololá	713	San Lucas Tolimán	10	San Lucas Tolimán	7	Julio	2023-05-07T00:00:00	2024-11-08T00:00:00	2	Temperatura media	18.2
133746	7	Sololá	713	San Lucas Tolimán	10	San Lucas Tolimán	7	Julio	2023-05-07T00:00:00	2024-11-08T00:00:00	4	Temperatura máxima	18.5
133747	7	Sololá	713	San Lucas Tolimán	10	San Lucas Tolimán	7	Julio	2023-05-07T00:00:00	2024-11-08T00:00:00	3	Temperatura mínima	18.2
133748	7	Sololá	713	San Lucas Tolimán	10	San Lucas Tolimán	7	Julio	2023-05-07T00:00:00	2024-11-08T00:00:00	5	Humedad	68
133749	7	Sololá	713	San Lucas Tolimán	10	San Lucas Tolimán	7	Julio	2023-05-07T00:00:00	2024-11-08T00:00:00	6	Velocidad del viento	1.6
133750	7	Sololá	713	San Lucas Tolimán	10	San Lucas Tolimán	7	Julio	2023-05-07T00:00:00	2024-11-08T00:00:00	7	Dirección del viento	1.61
133751	7	Sololá	713	San Lucas Tolimán	10	San Lucas Tolimán	7	Julio	2023-05-07T00:00:00	2024-11-08T00:00:00	1	Precipitación	1
133752	7	Sololá	713	San Lucas Tolimán	10	San Lucas Tolimán	7	Julio	2023-05-07T00:00:00	2024-11-08T00:00:00	8	Radiación solar	0
133753	7	Sololá	713	San Lucas Tolimán	10	San Lucas Tolimán	7	Julio	2023-05-07T00:00:00	2024-11-08T01:00:00	2	Temperatura media	17.8
133754	7	Sololá	713	San Lucas Tolimán	10	San Lucas Tolimán	7	Julio	2023-05-07T00:00:00	2024-11-08T01:00:00	4	Temperatura máxima	18.2
133755	7	Sololá	713	San Lucas Tolimán	10	San Lucas Tolimán	7	Julio	2023-05-07T00:00:00	2024-11-08T01:00:00	3	Temperatura mínima	17.8
133756	7	Sololá	713	San Lucas Tolimán	10	San Lucas Tolimán	7	Julio	2023-05-07T00:00:00	2024-11-08T01:00:00	5	Humedad	68
133757	7	Sololá	713	San Lucas Tolimán	10	San Lucas Tolimán	7	Julio	2023-05-07T00:00:00	2024-11-08T01:00:00	6	Velocidad del viento	1.6
133758	7	Sololá	713	San Lucas Tolimán	10	San Lucas Tolimán	7	Julio	2023-05-07T00:00:00	2024-11-08T01:00:00	7	Dirección del viento	1.61
133759	7	Sololá	713	San Lucas Tolimán	10	San Lucas Tolimán	7	Julio	2023-05-07T00:00:00	2024-11-08T01:00:00	1	Precipitación	0.2
133760	7	Sololá	713	San Lucas Tolimán	10	San Lucas Tolimán	7	Julio	2023-05-07T00:00:00	2024-11-08T01:00:00	8	Radiación solar	0
133761	7	Sololá	713	San Lucas Tolimán	10	San Lucas Tolimán	7	Julio	2023-05-07T00:00:00	2024-11-08T02:00:00	2	Temperatura media	17.6
133762	7	Sololá	713	San Lucas Tolimán	10	San Lucas Tolimán	7	Julio	2023-05-07T00:00:00	2024-11-08T02:00:00	4	Temperatura máxima	17.9
133763	7	Sololá	713	San Lucas Tolimán	10	San Lucas Tolimán	7	Julio	2023-05-07T00:00:00	2024-11-08T02:00:00	3	Temperatura mínima	17.6
133764	7	Sololá	713	San Lucas Tolimán	10	San Lucas Tolimán	7	Julio	2023-05-07T00:00:00	2024-11-08T02:00:00	5	Humedad	68
133765	7	Sololá	713	San Lucas Tolimán	10	San Lucas Tolimán	7	Julio	2023-05-07T00:00:00	2024-11-08T02:00:00	6	Velocidad del viento	0
133766	7	Sololá	713	San Lucas Tolimán	10	San Lucas Tolimán	7	Julio	2023-05-07T00:00:00	2024-11-08T02:00:00	7	Dirección del viento	0
133767	7	Sololá	713	San Lucas Tolimán	10	San Lucas Tolimán	7	Julio	2023-05-07T00:00:00	2024-11-08T02:00:00	1	Precipitación	0
133768	7	Sololá	713	San Lucas Tolimán	10	San Lucas Tolimán	7	Julio	2023-05-07T00:00:00	2024-11-08T02:00:00	8	Radiación solar	0
133769	7	Sololá	713	San Lucas Tolimán	10	San Lucas Tolimán	7	Julio	2023-05-07T00:00:00	2024-11-08T03:00:00	2	Temperatura media	17.4
133770	7	Sololá	713	San Lucas Tolimán	10	San Lucas Tolimán	7	Julio	2023-05-07T00:00:00	2024-11-08T03:00:00	4	Temperatura máxima	17.7
133771	7	Sololá	713	San Lucas Tolimán	10	San Lucas Tolimán	7	Julio	2023-05-07T00:00:00	2024-11-08T03:00:00	3	Temperatura mínima	17.4
133772	7	Sololá	713	San Lucas Tolimán	10	San Lucas Tolimán	7	Julio	2023-05-07T00:00:00	2024-11-08T03:00:00	5	Humedad	68
133773	7	Sololá	713	San Lucas Tolimán	10	San Lucas Tolimán	7	Julio	2023-05-07T00:00:00	2024-11-08T03:00:00	6	Velocidad del viento	1.6
133774	7	Sololá	713	San Lucas Tolimán	10	San Lucas Tolimán	7	Julio	2023-05-07T00:00:00	2024-11-08T03:00:00	7	Dirección del viento	1.61
133775	7	Sololá	713	San Lucas Tolimán	10	San Lucas Tolimán	7	Julio	2023-05-07T00:00:00	2024-11-08T03:00:00	1	Precipitación	0
133776	7	Sololá	713	San Lucas Tolimán	10	San Lucas Tolimán	7	Julio	2023-05-07T00:00:00	2024-11-08T03:00:00	8	Radiación solar	0
133777	7	Sololá	713	San Lucas Tolimán	10	San Lucas Tolimán	7	Julio	2023-05-07T00:00:00	2024-11-08T04:00:00	2	Temperatura media	16.5
133778	7	Sololá	713	San Lucas Tolimán	10	San Lucas Tolimán	7	Julio	2023-05-07T00:00:00	2024-11-08T04:00:00	4	Temperatura máxima	17.4
133779	7	Sololá	713	San Lucas Tolimán	10	San Lucas Tolimán	7	Julio	2023-05-07T00:00:00	2024-11-08T04:00:00	3	Temperatura mínima	16.5
133780	7	Sololá	713	San Lucas Tolimán	10	San Lucas Tolimán	7	Julio	2023-05-07T00:00:00	2024-11-08T04:00:00	5	Humedad	68
133781	7	Sololá	713	San Lucas Tolimán	10	San Lucas Tolimán	7	Julio	2023-05-07T00:00:00	2024-11-08T04:00:00	6	Velocidad del viento	1.6
133782	7	Sololá	713	San Lucas Tolimán	10	San Lucas Tolimán	7	Julio	2023-05-07T00:00:00	2024-11-08T04:00:00	7	Dirección del viento	1.61
133783	7	Sololá	713	San Lucas Tolimán	10	San Lucas Tolimán	7	Julio	2023-05-07T00:00:00	2024-11-08T04:00:00	1	Precipitación	0
133784	7	Sololá	713	San Lucas Tolimán	10	San Lucas Tolimán	7	Julio	2023-05-07T00:00:00	2024-11-08T04:00:00	8	Radiación solar	0
133785	7	Sololá	713	San Lucas Tolimán	10	San Lucas Tolimán	7	Julio	2023-05-07T00:00:00	2024-11-08T05:00:00	2	Temperatura media	16.1
133786	7	Sololá	713	San Lucas Tolimán	10	San Lucas Tolimán	7	Julio	2023-05-07T00:00:00	2024-11-08T05:00:00	4	Temperatura máxima	16.5
133787	7	Sololá	713	San Lucas Tolimán	10	San Lucas Tolimán	7	Julio	2023-05-07T00:00:00	2024-11-08T05:00:00	3	Temperatura mínima	16.1
133788	7	Sololá	713	San Lucas Tolimán	10	San Lucas Tolimán	7	Julio	2023-05-07T00:00:00	2024-11-08T05:00:00	5	Humedad	68
133789	7	Sololá	713	San Lucas Tolimán	10	San Lucas Tolimán	7	Julio	2023-05-07T00:00:00	2024-11-08T05:00:00	6	Velocidad del viento	1.6
133790	7	Sololá	713	San Lucas Tolimán	10	San Lucas Tolimán	7	Julio	2023-05-07T00:00:00	2024-11-08T05:00:00	7	Dirección del viento	1.61
133791	7	Sololá	713	San Lucas Tolimán	10	San Lucas Tolimán	7	Julio	2023-05-07T00:00:00	2024-11-08T05:00:00	1	Precipitación	0
133792	7	Sololá	713	San Lucas Tolimán	10	San Lucas Tolimán	7	Julio	2023-05-07T00:00:00	2024-11-08T05:00:00	8	Radiación solar	0
133793	7	Sololá	713	San Lucas Tolimán	10	San Lucas Tolimán	7	Julio	2023-05-07T00:00:00	2024-11-08T06:00:00	2	Temperatura media	16.3
133794	7	Sololá	713	San Lucas Tolimán	10	San Lucas Tolimán	7	Julio	2023-05-07T00:00:00	2024-11-08T06:00:00	4	Temperatura máxima	16.3
133795	7	Sololá	713	San Lucas Tolimán	10	San Lucas Tolimán	7	Julio	2023-05-07T00:00:00	2024-11-08T06:00:00	3	Temperatura mínima	15.9
133796	7	Sololá	713	San Lucas Tolimán	10	San Lucas Tolimán	7	Julio	2023-05-07T00:00:00	2024-11-08T06:00:00	5	Humedad	69
133797	7	Sololá	713	San Lucas Tolimán	10	San Lucas Tolimán	7	Julio	2023-05-07T00:00:00	2024-11-08T06:00:00	6	Velocidad del viento	1.6
133798	7	Sololá	713	San Lucas Tolimán	10	San Lucas Tolimán	7	Julio	2023-05-07T00:00:00	2024-11-08T06:00:00	7	Dirección del viento	1.61
133799	7	Sololá	713	San Lucas Tolimán	10	San Lucas Tolimán	7	Julio	2023-05-07T00:00:00	2024-11-08T06:00:00	1	Precipitación	0
133800	7	Sololá	713	San Lucas Tolimán	10	San Lucas Tolimán	7	Julio	2023-05-07T00:00:00	2024-11-08T06:00:00	8	Radiación solar	1
133801	7	Sololá	713	San Lucas Tolimán	10	San Lucas Tolimán	7	Julio	2023-05-07T00:00:00	2024-11-08T07:00:00	2	Temperatura media	17.9
133802	7	Sololá	713	San Lucas Tolimán	10	San Lucas Tolimán	7	Julio	2023-05-07T00:00:00	2024-11-08T07:00:00	4	Temperatura máxima	17.9
133803	7	Sololá	713	San Lucas Tolimán	10	San Lucas Tolimán	7	Julio	2023-05-07T00:00:00	2024-11-08T07:00:00	3	Temperatura mínima	16.2
133804	7	Sololá	713	San Lucas Tolimán	10	San Lucas Tolimán	7	Julio	2023-05-07T00:00:00	2024-11-08T07:00:00	5	Humedad	64
133805	7	Sololá	713	San Lucas Tolimán	10	San Lucas Tolimán	7	Julio	2023-05-07T00:00:00	2024-11-08T07:00:00	6	Velocidad del viento	1.6
133806	7	Sololá	713	San Lucas Tolimán	10	San Lucas Tolimán	7	Julio	2023-05-07T00:00:00	2024-11-08T07:00:00	7	Dirección del viento	1.61
133807	7	Sololá	713	San Lucas Tolimán	10	San Lucas Tolimán	7	Julio	2023-05-07T00:00:00	2024-11-08T07:00:00	1	Precipitación	0
133808	7	Sololá	713	San Lucas Tolimán	10	San Lucas Tolimán	7	Julio	2023-05-07T00:00:00	2024-11-08T07:00:00	8	Radiación solar	73
133809	7	Sololá	713	San Lucas Tolimán	10	San Lucas Tolimán	7	Julio	2023-05-07T00:00:00	2024-11-08T08:00:00	2	Temperatura media	21.4
133810	7	Sololá	713	San Lucas Tolimán	10	San Lucas Tolimán	7	Julio	2023-05-07T00:00:00	2024-11-08T08:00:00	4	Temperatura máxima	21.4
133811	7	Sololá	713	San Lucas Tolimán	10	San Lucas Tolimán	7	Julio	2023-05-07T00:00:00	2024-11-08T08:00:00	3	Temperatura mínima	17.8
133812	7	Sololá	713	San Lucas Tolimán	10	San Lucas Tolimán	7	Julio	2023-05-07T00:00:00	2024-11-08T08:00:00	5	Humedad	57
133813	7	Sololá	713	San Lucas Tolimán	10	San Lucas Tolimán	7	Julio	2023-05-07T00:00:00	2024-11-08T08:00:00	6	Velocidad del viento	3.2
133814	7	Sololá	713	San Lucas Tolimán	10	San Lucas Tolimán	7	Julio	2023-05-07T00:00:00	2024-11-08T08:00:00	7	Dirección del viento	3.22
133815	7	Sololá	713	San Lucas Tolimán	10	San Lucas Tolimán	7	Julio	2023-05-07T00:00:00	2024-11-08T08:00:00	1	Precipitación	0
133816	7	Sololá	713	San Lucas Tolimán	10	San Lucas Tolimán	7	Julio	2023-05-07T00:00:00	2024-11-08T08:00:00	8	Radiación solar	361
133817	7	Sololá	713	San Lucas Tolimán	10	San Lucas Tolimán	7	Julio	2023-05-07T00:00:00	2024-11-08T09:00:00	2	Temperatura media	22.7
133818	7	Sololá	713	San Lucas Tolimán	10	San Lucas Tolimán	7	Julio	2023-05-07T00:00:00	2024-11-08T09:00:00	4	Temperatura máxima	22.7
133819	7	Sololá	713	San Lucas Tolimán	10	San Lucas Tolimán	7	Julio	2023-05-07T00:00:00	2024-11-08T09:00:00	3	Temperatura mínima	21.4
133820	7	Sololá	713	San Lucas Tolimán	10	San Lucas Tolimán	7	Julio	2023-05-07T00:00:00	2024-11-08T09:00:00	5	Humedad	54
133821	7	Sololá	713	San Lucas Tolimán	10	San Lucas Tolimán	7	Julio	2023-05-07T00:00:00	2024-11-08T09:00:00	6	Velocidad del viento	3.2
133822	7	Sololá	713	San Lucas Tolimán	10	San Lucas Tolimán	7	Julio	2023-05-07T00:00:00	2024-11-08T09:00:00	7	Dirección del viento	3.22
133823	7	Sololá	713	San Lucas Tolimán	10	San Lucas Tolimán	7	Julio	2023-05-07T00:00:00	2024-11-08T09:00:00	1	Precipitación	0
133824	7	Sololá	713	San Lucas Tolimán	10	San Lucas Tolimán	7	Julio	2023-05-07T00:00:00	2024-11-08T09:00:00	8	Radiación solar	550
133825	7	Sololá	713	San Lucas Tolimán	10	San Lucas Tolimán	7	Julio	2023-05-07T00:00:00	2024-11-08T10:00:00	2	Temperatura media	23.8
133826	7	Sololá	713	San Lucas Tolimán	10	San Lucas Tolimán	7	Julio	2023-05-07T00:00:00	2024-11-08T10:00:00	4	Temperatura máxima	23.9
133827	7	Sololá	713	San Lucas Tolimán	10	San Lucas Tolimán	7	Julio	2023-05-07T00:00:00	2024-11-08T10:00:00	3	Temperatura mínima	22.3
133828	7	Sololá	713	San Lucas Tolimán	10	San Lucas Tolimán	7	Julio	2023-05-07T00:00:00	2024-11-08T10:00:00	5	Humedad	55
133829	7	Sololá	713	San Lucas Tolimán	10	San Lucas Tolimán	7	Julio	2023-05-07T00:00:00	2024-11-08T10:00:00	6	Velocidad del viento	3.2
133830	7	Sololá	713	San Lucas Tolimán	10	San Lucas Tolimán	7	Julio	2023-05-07T00:00:00	2024-11-08T10:00:00	7	Dirección del viento	3.22
133831	7	Sololá	713	San Lucas Tolimán	10	San Lucas Tolimán	7	Julio	2023-05-07T00:00:00	2024-11-08T10:00:00	1	Precipitación	0
133832	7	Sololá	713	San Lucas Tolimán	10	San Lucas Tolimán	7	Julio	2023-05-07T00:00:00	2024-11-08T10:00:00	8	Radiación solar	698
133833	7	Sololá	713	San Lucas Tolimán	10	San Lucas Tolimán	7	Julio	2023-05-07T00:00:00	2024-11-08T11:00:00	2	Temperatura media	22.3
133834	7	Sololá	713	San Lucas Tolimán	10	San Lucas Tolimán	7	Julio	2023-05-07T00:00:00	2024-11-08T11:00:00	4	Temperatura máxima	24
133835	7	Sololá	713	San Lucas Tolimán	10	San Lucas Tolimán	7	Julio	2023-05-07T00:00:00	2024-11-08T11:00:00	3	Temperatura mínima	22.3
133836	7	Sololá	713	San Lucas Tolimán	10	San Lucas Tolimán	7	Julio	2023-05-07T00:00:00	2024-11-08T11:00:00	5	Humedad	60
133837	7	Sololá	713	San Lucas Tolimán	10	San Lucas Tolimán	7	Julio	2023-05-07T00:00:00	2024-11-08T11:00:00	6	Velocidad del viento	9.7
133838	7	Sololá	713	San Lucas Tolimán	10	San Lucas Tolimán	7	Julio	2023-05-07T00:00:00	2024-11-08T11:00:00	7	Dirección del viento	9.66
133839	7	Sololá	713	San Lucas Tolimán	10	San Lucas Tolimán	7	Julio	2023-05-07T00:00:00	2024-11-08T11:00:00	1	Precipitación	0
133840	7	Sololá	713	San Lucas Tolimán	10	San Lucas Tolimán	7	Julio	2023-05-07T00:00:00	2024-11-08T11:00:00	8	Radiación solar	884
133841	7	Sololá	713	San Lucas Tolimán	10	San Lucas Tolimán	7	Julio	2023-05-07T00:00:00	2024-11-08T12:00:00	2	Temperatura media	23.8
133842	7	Sololá	713	San Lucas Tolimán	10	San Lucas Tolimán	7	Julio	2023-05-07T00:00:00	2024-11-08T12:00:00	4	Temperatura máxima	24.1
133843	7	Sololá	713	San Lucas Tolimán	10	San Lucas Tolimán	7	Julio	2023-05-07T00:00:00	2024-11-08T12:00:00	3	Temperatura mínima	22.2
133844	7	Sololá	713	San Lucas Tolimán	10	San Lucas Tolimán	7	Julio	2023-05-07T00:00:00	2024-11-08T12:00:00	5	Humedad	58
133845	7	Sololá	713	San Lucas Tolimán	10	San Lucas Tolimán	7	Julio	2023-05-07T00:00:00	2024-11-08T12:00:00	6	Velocidad del viento	9.7
133846	7	Sololá	713	San Lucas Tolimán	10	San Lucas Tolimán	7	Julio	2023-05-07T00:00:00	2024-11-08T12:00:00	7	Dirección del viento	9.66
133847	7	Sololá	713	San Lucas Tolimán	10	San Lucas Tolimán	7	Julio	2023-05-07T00:00:00	2024-11-08T12:00:00	1	Precipitación	0
133848	7	Sololá	713	San Lucas Tolimán	10	San Lucas Tolimán	7	Julio	2023-05-07T00:00:00	2024-11-08T12:00:00	8	Radiación solar	1153
133849	7	Sololá	713	San Lucas Tolimán	10	San Lucas Tolimán	7	Julio	2023-05-07T00:00:00	2024-11-08T13:00:00	2	Temperatura media	21.6
133850	7	Sololá	713	San Lucas Tolimán	10	San Lucas Tolimán	7	Julio	2023-05-07T00:00:00	2024-11-08T13:00:00	4	Temperatura máxima	23.8
133851	7	Sololá	713	San Lucas Tolimán	10	San Lucas Tolimán	7	Julio	2023-05-07T00:00:00	2024-11-08T13:00:00	3	Temperatura mínima	21.6
133852	7	Sololá	713	San Lucas Tolimán	10	San Lucas Tolimán	7	Julio	2023-05-07T00:00:00	2024-11-08T13:00:00	5	Humedad	63
133853	7	Sololá	713	San Lucas Tolimán	10	San Lucas Tolimán	7	Julio	2023-05-07T00:00:00	2024-11-08T13:00:00	6	Velocidad del viento	9.7
133854	7	Sololá	713	San Lucas Tolimán	10	San Lucas Tolimán	7	Julio	2023-05-07T00:00:00	2024-11-08T13:00:00	7	Dirección del viento	9.66
133855	7	Sololá	713	San Lucas Tolimán	10	San Lucas Tolimán	7	Julio	2023-05-07T00:00:00	2024-11-08T13:00:00	1	Precipitación	0
133856	7	Sololá	713	San Lucas Tolimán	10	San Lucas Tolimán	7	Julio	2023-05-07T00:00:00	2024-11-08T13:00:00	8	Radiación solar	746
133857	7	Sololá	713	San Lucas Tolimán	10	San Lucas Tolimán	7	Julio	2023-05-07T00:00:00	2024-11-08T14:00:00	2	Temperatura media	20.3
133858	7	Sololá	713	San Lucas Tolimán	10	San Lucas Tolimán	7	Julio	2023-05-07T00:00:00	2024-11-08T14:00:00	4	Temperatura máxima	21.9
133859	7	Sololá	713	San Lucas Tolimán	10	San Lucas Tolimán	7	Julio	2023-05-07T00:00:00	2024-11-08T14:00:00	3	Temperatura mínima	20.3
133860	7	Sololá	713	San Lucas Tolimán	10	San Lucas Tolimán	7	Julio	2023-05-07T00:00:00	2024-11-08T14:00:00	5	Humedad	62
133861	7	Sololá	713	San Lucas Tolimán	10	San Lucas Tolimán	7	Julio	2023-05-07T00:00:00	2024-11-08T14:00:00	6	Velocidad del viento	11.3
133862	7	Sololá	713	San Lucas Tolimán	10	San Lucas Tolimán	7	Julio	2023-05-07T00:00:00	2024-11-08T14:00:00	7	Dirección del viento	11.27
133863	7	Sololá	713	San Lucas Tolimán	10	San Lucas Tolimán	7	Julio	2023-05-07T00:00:00	2024-11-08T14:00:00	1	Precipitación	0.2
133864	7	Sololá	713	San Lucas Tolimán	10	San Lucas Tolimán	7	Julio	2023-05-07T00:00:00	2024-11-08T14:00:00	8	Radiación solar	300
133865	7	Sololá	713	San Lucas Tolimán	10	San Lucas Tolimán	7	Julio	2023-05-07T00:00:00	2024-11-08T15:00:00	2	Temperatura media	20.4
133866	7	Sololá	713	San Lucas Tolimán	10	San Lucas Tolimán	7	Julio	2023-05-07T00:00:00	2024-11-08T15:00:00	4	Temperatura máxima	20.4
133867	7	Sololá	713	San Lucas Tolimán	10	San Lucas Tolimán	7	Julio	2023-05-07T00:00:00	2024-11-08T15:00:00	3	Temperatura mínima	19.8
133868	7	Sololá	713	San Lucas Tolimán	10	San Lucas Tolimán	7	Julio	2023-05-07T00:00:00	2024-11-08T15:00:00	5	Humedad	59
133869	7	Sololá	713	San Lucas Tolimán	10	San Lucas Tolimán	7	Julio	2023-05-07T00:00:00	2024-11-08T15:00:00	6	Velocidad del viento	6.4
133870	7	Sololá	713	San Lucas Tolimán	10	San Lucas Tolimán	7	Julio	2023-05-07T00:00:00	2024-11-08T15:00:00	7	Dirección del viento	6.44
133871	7	Sololá	713	San Lucas Tolimán	10	San Lucas Tolimán	7	Julio	2023-05-07T00:00:00	2024-11-08T15:00:00	1	Precipitación	0.8
133872	7	Sololá	713	San Lucas Tolimán	10	San Lucas Tolimán	7	Julio	2023-05-07T00:00:00	2024-11-08T15:00:00	8	Radiación solar	165
133873	7	Sololá	713	San Lucas Tolimán	10	San Lucas Tolimán	7	Julio	2023-05-07T00:00:00	2024-11-08T16:00:00	2	Temperatura media	19.9
133874	7	Sololá	713	San Lucas Tolimán	10	San Lucas Tolimán	7	Julio	2023-05-07T00:00:00	2024-11-08T16:00:00	4	Temperatura máxima	20.7
133875	7	Sololá	713	San Lucas Tolimán	10	San Lucas Tolimán	7	Julio	2023-05-07T00:00:00	2024-11-08T16:00:00	3	Temperatura mínima	19.8
133876	7	Sololá	713	San Lucas Tolimán	10	San Lucas Tolimán	7	Julio	2023-05-07T00:00:00	2024-11-08T16:00:00	5	Humedad	63
133877	7	Sololá	713	San Lucas Tolimán	10	San Lucas Tolimán	7	Julio	2023-05-07T00:00:00	2024-11-08T16:00:00	6	Velocidad del viento	9.7
133878	7	Sololá	713	San Lucas Tolimán	10	San Lucas Tolimán	7	Julio	2023-05-07T00:00:00	2024-11-08T16:00:00	7	Dirección del viento	9.66
133879	7	Sololá	713	San Lucas Tolimán	10	San Lucas Tolimán	7	Julio	2023-05-07T00:00:00	2024-11-08T16:00:00	1	Precipitación	0.2
133880	7	Sololá	713	San Lucas Tolimán	10	San Lucas Tolimán	7	Julio	2023-05-07T00:00:00	2024-11-08T16:00:00	8	Radiación solar	257
133881	7	Sololá	713	San Lucas Tolimán	10	San Lucas Tolimán	7	Julio	2023-05-07T00:00:00	2024-11-08T17:00:00	2	Temperatura media	18.8
133882	7	Sololá	713	San Lucas Tolimán	10	San Lucas Tolimán	7	Julio	2023-05-07T00:00:00	2024-11-08T17:00:00	4	Temperatura máxima	20.1
133883	7	Sololá	713	San Lucas Tolimán	10	San Lucas Tolimán	7	Julio	2023-05-07T00:00:00	2024-11-08T17:00:00	3	Temperatura mínima	18.8
133884	7	Sololá	713	San Lucas Tolimán	10	San Lucas Tolimán	7	Julio	2023-05-07T00:00:00	2024-11-08T17:00:00	5	Humedad	67
133885	7	Sololá	713	San Lucas Tolimán	10	San Lucas Tolimán	7	Julio	2023-05-07T00:00:00	2024-11-08T17:00:00	6	Velocidad del viento	11.3
133886	7	Sololá	713	San Lucas Tolimán	10	San Lucas Tolimán	7	Julio	2023-05-07T00:00:00	2024-11-08T17:00:00	7	Dirección del viento	11.27
133887	7	Sololá	713	San Lucas Tolimán	10	San Lucas Tolimán	7	Julio	2023-05-07T00:00:00	2024-11-08T17:00:00	1	Precipitación	0
133888	7	Sololá	713	San Lucas Tolimán	10	San Lucas Tolimán	7	Julio	2023-05-07T00:00:00	2024-11-08T17:00:00	8	Radiación solar	158
133889	7	Sololá	713	San Lucas Tolimán	10	San Lucas Tolimán	7	Julio	2023-05-07T00:00:00	2024-11-08T18:00:00	2	Temperatura media	19.2
133890	7	Sololá	713	San Lucas Tolimán	10	San Lucas Tolimán	7	Julio	2023-05-07T00:00:00	2024-11-08T18:00:00	4	Temperatura máxima	19.2
133891	7	Sololá	713	San Lucas Tolimán	10	San Lucas Tolimán	7	Julio	2023-05-07T00:00:00	2024-11-08T18:00:00	3	Temperatura mínima	18.8
133892	7	Sololá	713	San Lucas Tolimán	10	San Lucas Tolimán	7	Julio	2023-05-07T00:00:00	2024-11-08T18:00:00	5	Humedad	67
133893	7	Sololá	713	San Lucas Tolimán	10	San Lucas Tolimán	7	Julio	2023-05-07T00:00:00	2024-11-08T18:00:00	6	Velocidad del viento	9.7
133894	7	Sololá	713	San Lucas Tolimán	10	San Lucas Tolimán	7	Julio	2023-05-07T00:00:00	2024-11-08T18:00:00	7	Dirección del viento	9.66
133895	7	Sololá	713	San Lucas Tolimán	10	San Lucas Tolimán	7	Julio	2023-05-07T00:00:00	2024-11-08T18:00:00	1	Precipitación	0
133896	7	Sololá	713	San Lucas Tolimán	10	San Lucas Tolimán	7	Julio	2023-05-07T00:00:00	2024-11-08T18:00:00	8	Radiación solar	83
133897	7	Sololá	713	San Lucas Tolimán	10	San Lucas Tolimán	7	Julio	2023-05-07T00:00:00	2024-11-08T19:00:00	2	Temperatura media	18.9
133898	7	Sololá	713	San Lucas Tolimán	10	San Lucas Tolimán	7	Julio	2023-05-07T00:00:00	2024-11-08T19:00:00	4	Temperatura máxima	19.2
133899	7	Sololá	713	San Lucas Tolimán	10	San Lucas Tolimán	7	Julio	2023-05-07T00:00:00	2024-11-08T19:00:00	3	Temperatura mínima	18.9
133900	7	Sololá	713	San Lucas Tolimán	10	San Lucas Tolimán	7	Julio	2023-05-07T00:00:00	2024-11-08T19:00:00	5	Humedad	67
133901	7	Sololá	713	San Lucas Tolimán	10	San Lucas Tolimán	7	Julio	2023-05-07T00:00:00	2024-11-08T19:00:00	6	Velocidad del viento	4.8
133902	7	Sololá	713	San Lucas Tolimán	10	San Lucas Tolimán	7	Julio	2023-05-07T00:00:00	2024-11-08T19:00:00	7	Dirección del viento	4.83
133903	7	Sololá	713	San Lucas Tolimán	10	San Lucas Tolimán	7	Julio	2023-05-07T00:00:00	2024-11-08T19:00:00	1	Precipitación	0
133904	7	Sololá	713	San Lucas Tolimán	10	San Lucas Tolimán	7	Julio	2023-05-07T00:00:00	2024-11-08T19:00:00	8	Radiación solar	0
133905	7	Sololá	713	San Lucas Tolimán	10	San Lucas Tolimán	7	Julio	2023-05-07T00:00:00	2024-11-08T20:00:00	2	Temperatura media	18
133906	7	Sololá	713	San Lucas Tolimán	10	San Lucas Tolimán	7	Julio	2023-05-07T00:00:00	2024-11-08T20:00:00	4	Temperatura máxima	18.9
133907	7	Sololá	713	San Lucas Tolimán	10	San Lucas Tolimán	7	Julio	2023-05-07T00:00:00	2024-11-08T20:00:00	3	Temperatura mínima	17.9
133908	7	Sololá	713	San Lucas Tolimán	10	San Lucas Tolimán	7	Julio	2023-05-07T00:00:00	2024-11-08T20:00:00	5	Humedad	67
133909	7	Sololá	713	San Lucas Tolimán	10	San Lucas Tolimán	7	Julio	2023-05-07T00:00:00	2024-11-08T20:00:00	6	Velocidad del viento	1.6
133910	7	Sololá	713	San Lucas Tolimán	10	San Lucas Tolimán	7	Julio	2023-05-07T00:00:00	2024-11-08T20:00:00	7	Dirección del viento	1.61
133911	7	Sololá	713	San Lucas Tolimán	10	San Lucas Tolimán	7	Julio	2023-05-07T00:00:00	2024-11-08T20:00:00	1	Precipitación	0
133912	7	Sololá	713	San Lucas Tolimán	10	San Lucas Tolimán	7	Julio	2023-05-07T00:00:00	2024-11-08T20:00:00	8	Radiación solar	0
133913	7	Sololá	713	San Lucas Tolimán	10	San Lucas Tolimán	7	Julio	2023-05-07T00:00:00	2024-11-08T21:00:00	2	Temperatura media	17.4
133914	7	Sololá	713	San Lucas Tolimán	10	San Lucas Tolimán	7	Julio	2023-05-07T00:00:00	2024-11-08T21:00:00	4	Temperatura máxima	18.1
133915	7	Sololá	713	San Lucas Tolimán	10	San Lucas Tolimán	7	Julio	2023-05-07T00:00:00	2024-11-08T21:00:00	3	Temperatura mínima	17.3
133916	7	Sololá	713	San Lucas Tolimán	10	San Lucas Tolimán	7	Julio	2023-05-07T00:00:00	2024-11-08T21:00:00	5	Humedad	65
133917	7	Sololá	713	San Lucas Tolimán	10	San Lucas Tolimán	7	Julio	2023-05-07T00:00:00	2024-11-08T21:00:00	6	Velocidad del viento	3.2
133918	7	Sololá	713	San Lucas Tolimán	10	San Lucas Tolimán	7	Julio	2023-05-07T00:00:00	2024-11-08T21:00:00	7	Dirección del viento	3.22
133919	7	Sololá	713	San Lucas Tolimán	10	San Lucas Tolimán	7	Julio	2023-05-07T00:00:00	2024-11-08T21:00:00	1	Precipitación	0
133920	7	Sololá	713	San Lucas Tolimán	10	San Lucas Tolimán	7	Julio	2023-05-07T00:00:00	2024-11-08T21:00:00	8	Radiación solar	0
133921	7	Sololá	713	San Lucas Tolimán	10	San Lucas Tolimán	7	Julio	2023-05-07T00:00:00	2024-11-08T22:00:00	2	Temperatura media	20.3
133922	7	Sololá	713	San Lucas Tolimán	10	San Lucas Tolimán	7	Julio	2023-05-07T00:00:00	2024-11-08T22:00:00	4	Temperatura máxima	20.3
133923	7	Sololá	713	San Lucas Tolimán	10	San Lucas Tolimán	7	Julio	2023-05-07T00:00:00	2024-11-08T22:00:00	3	Temperatura mínima	17.3
133924	7	Sololá	713	San Lucas Tolimán	10	San Lucas Tolimán	7	Julio	2023-05-07T00:00:00	2024-11-08T22:00:00	5	Humedad	57
133925	7	Sololá	713	San Lucas Tolimán	10	San Lucas Tolimán	7	Julio	2023-05-07T00:00:00	2024-11-08T22:00:00	6	Velocidad del viento	6.4
133926	7	Sololá	713	San Lucas Tolimán	10	San Lucas Tolimán	7	Julio	2023-05-07T00:00:00	2024-11-08T22:00:00	7	Dirección del viento	6.44
133927	7	Sololá	713	San Lucas Tolimán	10	San Lucas Tolimán	7	Julio	2023-05-07T00:00:00	2024-11-08T22:00:00	1	Precipitación	0
133928	7	Sololá	713	San Lucas Tolimán	10	San Lucas Tolimán	7	Julio	2023-05-07T00:00:00	2024-11-08T22:00:00	8	Radiación solar	0
133929	7	Sololá	713	San Lucas Tolimán	10	San Lucas Tolimán	7	Julio	2023-05-07T00:00:00	2024-11-08T23:00:00	2	Temperatura media	19.6
133930	7	Sololá	713	San Lucas Tolimán	10	San Lucas Tolimán	7	Julio	2023-05-07T00:00:00	2024-11-08T23:00:00	4	Temperatura máxima	20.8
133931	7	Sololá	713	San Lucas Tolimán	10	San Lucas Tolimán	7	Julio	2023-05-07T00:00:00	2024-11-08T23:00:00	3	Temperatura mínima	19.6
133932	7	Sololá	713	San Lucas Tolimán	10	San Lucas Tolimán	7	Julio	2023-05-07T00:00:00	2024-11-08T23:00:00	5	Humedad	61
133933	7	Sololá	713	San Lucas Tolimán	10	San Lucas Tolimán	7	Julio	2023-05-07T00:00:00	2024-11-08T23:00:00	6	Velocidad del viento	6.4
133934	7	Sololá	713	San Lucas Tolimán	10	San Lucas Tolimán	7	Julio	2023-05-07T00:00:00	2024-11-08T23:00:00	7	Dirección del viento	6.44
133935	7	Sololá	713	San Lucas Tolimán	10	San Lucas Tolimán	7	Julio	2023-05-07T00:00:00	2024-11-08T23:00:00	1	Precipitación	0
133936	7	Sololá	713	San Lucas Tolimán	10	San Lucas Tolimán	7	Julio	2023-05-07T00:00:00	2024-11-08T23:00:00	8	Radiación solar	0
133937	7	Sololá	713	San Lucas Tolimán	10	San Lucas Tolimán	7	Julio	2023-06-07T00:00:00	2024-11-08T00:00:00	2	Temperatura media	17.6
133938	7	Sololá	713	San Lucas Tolimán	10	San Lucas Tolimán	7	Julio	2023-06-07T00:00:00	2024-11-08T00:00:00	4	Temperatura máxima	19.6
133939	7	Sololá	713	San Lucas Tolimán	10	San Lucas Tolimán	7	Julio	2023-06-07T00:00:00	2024-11-08T00:00:00	3	Temperatura mínima	17.4
133940	7	Sololá	713	San Lucas Tolimán	10	San Lucas Tolimán	7	Julio	2023-06-07T00:00:00	2024-11-08T00:00:00	5	Humedad	62
133941	7	Sololá	713	San Lucas Tolimán	10	San Lucas Tolimán	7	Julio	2023-06-07T00:00:00	2024-11-08T00:00:00	6	Velocidad del viento	3.2
133942	7	Sololá	713	San Lucas Tolimán	10	San Lucas Tolimán	7	Julio	2023-06-07T00:00:00	2024-11-08T00:00:00	7	Dirección del viento	3.22
133943	7	Sololá	713	San Lucas Tolimán	10	San Lucas Tolimán	7	Julio	2023-06-07T00:00:00	2024-11-08T00:00:00	1	Precipitación	0
133944	7	Sololá	713	San Lucas Tolimán	10	San Lucas Tolimán	7	Julio	2023-06-07T00:00:00	2024-11-08T00:00:00	8	Radiación solar	0
133945	7	Sololá	713	San Lucas Tolimán	10	San Lucas Tolimán	7	Julio	2023-06-07T00:00:00	2024-11-08T01:00:00	2	Temperatura media	17.6
133946	7	Sololá	713	San Lucas Tolimán	10	San Lucas Tolimán	7	Julio	2023-06-07T00:00:00	2024-11-08T01:00:00	4	Temperatura máxima	18.2
133947	7	Sololá	713	San Lucas Tolimán	10	San Lucas Tolimán	7	Julio	2023-06-07T00:00:00	2024-11-08T01:00:00	3	Temperatura mínima	17.4
133948	7	Sololá	713	San Lucas Tolimán	10	San Lucas Tolimán	7	Julio	2023-06-07T00:00:00	2024-11-08T01:00:00	5	Humedad	62
133949	7	Sololá	713	San Lucas Tolimán	10	San Lucas Tolimán	7	Julio	2023-06-07T00:00:00	2024-11-08T01:00:00	6	Velocidad del viento	1.6
133950	7	Sololá	713	San Lucas Tolimán	10	San Lucas Tolimán	7	Julio	2023-06-07T00:00:00	2024-11-08T01:00:00	7	Dirección del viento	1.61
133951	7	Sololá	713	San Lucas Tolimán	10	San Lucas Tolimán	7	Julio	2023-06-07T00:00:00	2024-11-08T01:00:00	1	Precipitación	0
133952	7	Sololá	713	San Lucas Tolimán	10	San Lucas Tolimán	7	Julio	2023-06-07T00:00:00	2024-11-08T01:00:00	8	Radiación solar	0
133953	7	Sololá	713	San Lucas Tolimán	10	San Lucas Tolimán	7	Julio	2023-06-07T00:00:00	2024-11-08T02:00:00	2	Temperatura media	17.1
133954	7	Sololá	713	San Lucas Tolimán	10	San Lucas Tolimán	7	Julio	2023-06-07T00:00:00	2024-11-08T02:00:00	4	Temperatura máxima	17.7
133955	7	Sololá	713	San Lucas Tolimán	10	San Lucas Tolimán	7	Julio	2023-06-07T00:00:00	2024-11-08T02:00:00	3	Temperatura mínima	16.7
133956	7	Sololá	713	San Lucas Tolimán	10	San Lucas Tolimán	7	Julio	2023-06-07T00:00:00	2024-11-08T02:00:00	5	Humedad	61
133957	7	Sololá	713	San Lucas Tolimán	10	San Lucas Tolimán	7	Julio	2023-06-07T00:00:00	2024-11-08T02:00:00	6	Velocidad del viento	1.6
133958	7	Sololá	713	San Lucas Tolimán	10	San Lucas Tolimán	7	Julio	2023-06-07T00:00:00	2024-11-08T02:00:00	7	Dirección del viento	1.61
133959	7	Sololá	713	San Lucas Tolimán	10	San Lucas Tolimán	7	Julio	2023-06-07T00:00:00	2024-11-08T02:00:00	1	Precipitación	0
133960	7	Sololá	713	San Lucas Tolimán	10	San Lucas Tolimán	7	Julio	2023-06-07T00:00:00	2024-11-08T02:00:00	8	Radiación solar	0
133961	7	Sololá	713	San Lucas Tolimán	10	San Lucas Tolimán	7	Julio	2023-06-07T00:00:00	2024-11-08T03:00:00	2	Temperatura media	17.4
133962	7	Sololá	713	San Lucas Tolimán	10	San Lucas Tolimán	7	Julio	2023-06-07T00:00:00	2024-11-08T03:00:00	4	Temperatura máxima	17.7
133963	7	Sololá	713	San Lucas Tolimán	10	San Lucas Tolimán	7	Julio	2023-06-07T00:00:00	2024-11-08T03:00:00	3	Temperatura mínima	17.1
133964	7	Sololá	713	San Lucas Tolimán	10	San Lucas Tolimán	7	Julio	2023-06-07T00:00:00	2024-11-08T03:00:00	5	Humedad	60
133965	7	Sololá	713	San Lucas Tolimán	10	San Lucas Tolimán	7	Julio	2023-06-07T00:00:00	2024-11-08T03:00:00	6	Velocidad del viento	1.6
133966	7	Sololá	713	San Lucas Tolimán	10	San Lucas Tolimán	7	Julio	2023-06-07T00:00:00	2024-11-08T03:00:00	7	Dirección del viento	1.61
133967	7	Sololá	713	San Lucas Tolimán	10	San Lucas Tolimán	7	Julio	2023-06-07T00:00:00	2024-11-08T03:00:00	1	Precipitación	0
133968	7	Sololá	713	San Lucas Tolimán	10	San Lucas Tolimán	7	Julio	2023-06-07T00:00:00	2024-11-08T03:00:00	8	Radiación solar	0
133969	7	Sololá	713	San Lucas Tolimán	10	San Lucas Tolimán	7	Julio	2023-06-07T00:00:00	2024-11-08T04:00:00	2	Temperatura media	16.9
133970	7	Sololá	713	San Lucas Tolimán	10	San Lucas Tolimán	7	Julio	2023-06-07T00:00:00	2024-11-08T04:00:00	4	Temperatura máxima	17.4
133971	7	Sololá	713	San Lucas Tolimán	10	San Lucas Tolimán	7	Julio	2023-06-07T00:00:00	2024-11-08T04:00:00	3	Temperatura mínima	16.8
133972	7	Sololá	713	San Lucas Tolimán	10	San Lucas Tolimán	7	Julio	2023-06-07T00:00:00	2024-11-08T04:00:00	5	Humedad	62
133973	7	Sololá	713	San Lucas Tolimán	10	San Lucas Tolimán	7	Julio	2023-06-07T00:00:00	2024-11-08T04:00:00	6	Velocidad del viento	1.6
133974	7	Sololá	713	San Lucas Tolimán	10	San Lucas Tolimán	7	Julio	2023-06-07T00:00:00	2024-11-08T04:00:00	7	Dirección del viento	1.61
133975	7	Sololá	713	San Lucas Tolimán	10	San Lucas Tolimán	7	Julio	2023-06-07T00:00:00	2024-11-08T04:00:00	1	Precipitación	0
133976	7	Sololá	713	San Lucas Tolimán	10	San Lucas Tolimán	7	Julio	2023-06-07T00:00:00	2024-11-08T04:00:00	8	Radiación solar	0
133977	7	Sololá	713	San Lucas Tolimán	10	San Lucas Tolimán	7	Julio	2023-06-07T00:00:00	2024-11-08T05:00:00	2	Temperatura media	17.5
133978	7	Sololá	713	San Lucas Tolimán	10	San Lucas Tolimán	7	Julio	2023-06-07T00:00:00	2024-11-08T05:00:00	4	Temperatura máxima	17.5
133979	7	Sololá	713	San Lucas Tolimán	10	San Lucas Tolimán	7	Julio	2023-06-07T00:00:00	2024-11-08T05:00:00	3	Temperatura mínima	16.8
133980	7	Sololá	713	San Lucas Tolimán	10	San Lucas Tolimán	7	Julio	2023-06-07T00:00:00	2024-11-08T05:00:00	5	Humedad	59
133981	7	Sololá	713	San Lucas Tolimán	10	San Lucas Tolimán	7	Julio	2023-06-07T00:00:00	2024-11-08T05:00:00	6	Velocidad del viento	1.6
133982	7	Sololá	713	San Lucas Tolimán	10	San Lucas Tolimán	7	Julio	2023-06-07T00:00:00	2024-11-08T05:00:00	7	Dirección del viento	1.61
133983	7	Sololá	713	San Lucas Tolimán	10	San Lucas Tolimán	7	Julio	2023-06-07T00:00:00	2024-11-08T05:00:00	1	Precipitación	0
133984	7	Sololá	713	San Lucas Tolimán	10	San Lucas Tolimán	7	Julio	2023-06-07T00:00:00	2024-11-08T05:00:00	8	Radiación solar	0
133985	7	Sololá	713	San Lucas Tolimán	10	San Lucas Tolimán	7	Julio	2023-06-07T00:00:00	2024-11-08T06:00:00	2	Temperatura media	17.3
133986	7	Sololá	713	San Lucas Tolimán	10	San Lucas Tolimán	7	Julio	2023-06-07T00:00:00	2024-11-08T06:00:00	4	Temperatura máxima	18
133987	7	Sololá	713	San Lucas Tolimán	10	San Lucas Tolimán	7	Julio	2023-06-07T00:00:00	2024-11-08T06:00:00	3	Temperatura mínima	17.3
133988	7	Sololá	713	San Lucas Tolimán	10	San Lucas Tolimán	7	Julio	2023-06-07T00:00:00	2024-11-08T06:00:00	5	Humedad	61
133989	7	Sololá	713	San Lucas Tolimán	10	San Lucas Tolimán	7	Julio	2023-06-07T00:00:00	2024-11-08T06:00:00	6	Velocidad del viento	0
133990	7	Sololá	713	San Lucas Tolimán	10	San Lucas Tolimán	7	Julio	2023-06-07T00:00:00	2024-11-08T06:00:00	7	Dirección del viento	0
133991	7	Sololá	713	San Lucas Tolimán	10	San Lucas Tolimán	7	Julio	2023-06-07T00:00:00	2024-11-08T06:00:00	1	Precipitación	0
133992	7	Sololá	713	San Lucas Tolimán	10	San Lucas Tolimán	7	Julio	2023-06-07T00:00:00	2024-11-08T06:00:00	8	Radiación solar	3
133993	7	Sololá	713	San Lucas Tolimán	10	San Lucas Tolimán	7	Julio	2023-06-07T00:00:00	2024-11-08T07:00:00	2	Temperatura media	19.3
133994	7	Sololá	713	San Lucas Tolimán	10	San Lucas Tolimán	7	Julio	2023-06-07T00:00:00	2024-11-08T07:00:00	4	Temperatura máxima	19.4
133995	7	Sololá	713	San Lucas Tolimán	10	San Lucas Tolimán	7	Julio	2023-06-07T00:00:00	2024-11-08T07:00:00	3	Temperatura mínima	17.3
133996	7	Sololá	713	San Lucas Tolimán	10	San Lucas Tolimán	7	Julio	2023-06-07T00:00:00	2024-11-08T07:00:00	5	Humedad	59
133997	7	Sololá	713	San Lucas Tolimán	10	San Lucas Tolimán	7	Julio	2023-06-07T00:00:00	2024-11-08T07:00:00	6	Velocidad del viento	3.2
133998	7	Sololá	713	San Lucas Tolimán	10	San Lucas Tolimán	7	Julio	2023-06-07T00:00:00	2024-11-08T07:00:00	7	Dirección del viento	3.22
133999	7	Sololá	713	San Lucas Tolimán	10	San Lucas Tolimán	7	Julio	2023-06-07T00:00:00	2024-11-08T07:00:00	1	Precipitación	0
134000	7	Sololá	713	San Lucas Tolimán	10	San Lucas Tolimán	7	Julio	2023-06-07T00:00:00	2024-11-08T07:00:00	8	Radiación solar	73
134001	7	Sololá	713	San Lucas Tolimán	10	San Lucas Tolimán	7	Julio	2023-06-07T00:00:00	2024-11-08T08:00:00	2	Temperatura media	21.8
134002	7	Sololá	713	San Lucas Tolimán	10	San Lucas Tolimán	7	Julio	2023-06-07T00:00:00	2024-11-08T08:00:00	4	Temperatura máxima	21.8
134003	7	Sololá	713	San Lucas Tolimán	10	San Lucas Tolimán	7	Julio	2023-06-07T00:00:00	2024-11-08T08:00:00	3	Temperatura mínima	19.4
134004	7	Sololá	713	San Lucas Tolimán	10	San Lucas Tolimán	7	Julio	2023-06-07T00:00:00	2024-11-08T08:00:00	5	Humedad	52
134005	7	Sololá	713	San Lucas Tolimán	10	San Lucas Tolimán	7	Julio	2023-06-07T00:00:00	2024-11-08T08:00:00	6	Velocidad del viento	4.8
134006	7	Sololá	713	San Lucas Tolimán	10	San Lucas Tolimán	7	Julio	2023-06-07T00:00:00	2024-11-08T08:00:00	7	Dirección del viento	4.83
134007	7	Sololá	713	San Lucas Tolimán	10	San Lucas Tolimán	7	Julio	2023-06-07T00:00:00	2024-11-08T08:00:00	1	Precipitación	0
134008	7	Sololá	713	San Lucas Tolimán	10	San Lucas Tolimán	7	Julio	2023-06-07T00:00:00	2024-11-08T08:00:00	8	Radiación solar	358
134009	7	Sololá	713	San Lucas Tolimán	10	San Lucas Tolimán	7	Julio	2023-06-07T00:00:00	2024-11-08T09:00:00	2	Temperatura media	20.9
134010	7	Sololá	713	San Lucas Tolimán	10	San Lucas Tolimán	7	Julio	2023-06-07T00:00:00	2024-11-08T09:00:00	4	Temperatura máxima	21.9
134011	7	Sololá	713	San Lucas Tolimán	10	San Lucas Tolimán	7	Julio	2023-06-07T00:00:00	2024-11-08T09:00:00	3	Temperatura mínima	20.9
134012	7	Sololá	713	San Lucas Tolimán	10	San Lucas Tolimán	7	Julio	2023-06-07T00:00:00	2024-11-08T09:00:00	5	Humedad	62
134013	7	Sololá	713	San Lucas Tolimán	10	San Lucas Tolimán	7	Julio	2023-06-07T00:00:00	2024-11-08T09:00:00	6	Velocidad del viento	3.2
134014	7	Sololá	713	San Lucas Tolimán	10	San Lucas Tolimán	7	Julio	2023-06-07T00:00:00	2024-11-08T09:00:00	7	Dirección del viento	3.22
134015	7	Sololá	713	San Lucas Tolimán	10	San Lucas Tolimán	7	Julio	2023-06-07T00:00:00	2024-11-08T09:00:00	1	Precipitación	0
134016	7	Sololá	713	San Lucas Tolimán	10	San Lucas Tolimán	7	Julio	2023-06-07T00:00:00	2024-11-08T09:00:00	8	Radiación solar	391
134017	7	Sololá	713	San Lucas Tolimán	10	San Lucas Tolimán	7	Julio	2023-06-07T00:00:00	2024-11-08T10:00:00	2	Temperatura media	21.7
134018	7	Sololá	713	San Lucas Tolimán	10	San Lucas Tolimán	7	Julio	2023-06-07T00:00:00	2024-11-08T10:00:00	4	Temperatura máxima	22.3
134019	7	Sololá	713	San Lucas Tolimán	10	San Lucas Tolimán	7	Julio	2023-06-07T00:00:00	2024-11-08T10:00:00	3	Temperatura mínima	20.4
134020	7	Sololá	713	San Lucas Tolimán	10	San Lucas Tolimán	7	Julio	2023-06-07T00:00:00	2024-11-08T10:00:00	5	Humedad	61
134021	7	Sololá	713	San Lucas Tolimán	10	San Lucas Tolimán	7	Julio	2023-06-07T00:00:00	2024-11-08T10:00:00	6	Velocidad del viento	4.8
134022	7	Sololá	713	San Lucas Tolimán	10	San Lucas Tolimán	7	Julio	2023-06-07T00:00:00	2024-11-08T10:00:00	7	Dirección del viento	4.83
134023	7	Sololá	713	San Lucas Tolimán	10	San Lucas Tolimán	7	Julio	2023-06-07T00:00:00	2024-11-08T10:00:00	1	Precipitación	0
134024	7	Sololá	713	San Lucas Tolimán	10	San Lucas Tolimán	7	Julio	2023-06-07T00:00:00	2024-11-08T10:00:00	8	Radiación solar	315
134025	7	Sololá	713	San Lucas Tolimán	10	San Lucas Tolimán	7	Julio	2023-06-07T00:00:00	2024-11-08T11:00:00	2	Temperatura media	22.3
134026	7	Sololá	713	San Lucas Tolimán	10	San Lucas Tolimán	7	Julio	2023-06-07T00:00:00	2024-11-08T11:00:00	4	Temperatura máxima	22.3
134027	7	Sololá	713	San Lucas Tolimán	10	San Lucas Tolimán	7	Julio	2023-06-07T00:00:00	2024-11-08T11:00:00	3	Temperatura mínima	21.5
134028	7	Sololá	713	San Lucas Tolimán	10	San Lucas Tolimán	7	Julio	2023-06-07T00:00:00	2024-11-08T11:00:00	5	Humedad	63
134029	7	Sololá	713	San Lucas Tolimán	10	San Lucas Tolimán	7	Julio	2023-06-07T00:00:00	2024-11-08T11:00:00	6	Velocidad del viento	8
134030	7	Sololá	713	San Lucas Tolimán	10	San Lucas Tolimán	7	Julio	2023-06-07T00:00:00	2024-11-08T11:00:00	7	Dirección del viento	8.05
134031	7	Sololá	713	San Lucas Tolimán	10	San Lucas Tolimán	7	Julio	2023-06-07T00:00:00	2024-11-08T11:00:00	1	Precipitación	0
134032	7	Sololá	713	San Lucas Tolimán	10	San Lucas Tolimán	7	Julio	2023-06-07T00:00:00	2024-11-08T11:00:00	8	Radiación solar	391
134033	7	Sololá	713	San Lucas Tolimán	10	San Lucas Tolimán	7	Julio	2023-06-07T00:00:00	2024-11-08T12:00:00	2	Temperatura media	22.4
134034	7	Sololá	713	San Lucas Tolimán	10	San Lucas Tolimán	7	Julio	2023-06-07T00:00:00	2024-11-08T12:00:00	4	Temperatura máxima	23.2
134035	7	Sololá	713	San Lucas Tolimán	10	San Lucas Tolimán	7	Julio	2023-06-07T00:00:00	2024-11-08T12:00:00	3	Temperatura mínima	21.8
134036	7	Sololá	713	San Lucas Tolimán	10	San Lucas Tolimán	7	Julio	2023-06-07T00:00:00	2024-11-08T12:00:00	5	Humedad	61
134037	7	Sololá	713	San Lucas Tolimán	10	San Lucas Tolimán	7	Julio	2023-06-07T00:00:00	2024-11-08T12:00:00	6	Velocidad del viento	11.3
134038	7	Sololá	713	San Lucas Tolimán	10	San Lucas Tolimán	7	Julio	2023-06-07T00:00:00	2024-11-08T12:00:00	7	Dirección del viento	11.27
134039	7	Sololá	713	San Lucas Tolimán	10	San Lucas Tolimán	7	Julio	2023-06-07T00:00:00	2024-11-08T12:00:00	1	Precipitación	0
134040	7	Sololá	713	San Lucas Tolimán	10	San Lucas Tolimán	7	Julio	2023-06-07T00:00:00	2024-11-08T12:00:00	8	Radiación solar	1048
134041	7	Sololá	713	San Lucas Tolimán	10	San Lucas Tolimán	7	Julio	2023-06-07T00:00:00	2024-11-08T13:00:00	2	Temperatura media	23
134042	7	Sololá	713	San Lucas Tolimán	10	San Lucas Tolimán	7	Julio	2023-06-07T00:00:00	2024-11-08T13:00:00	4	Temperatura máxima	23.3
134043	7	Sololá	713	San Lucas Tolimán	10	San Lucas Tolimán	7	Julio	2023-06-07T00:00:00	2024-11-08T13:00:00	3	Temperatura mínima	22.3
134044	7	Sololá	713	San Lucas Tolimán	10	San Lucas Tolimán	7	Julio	2023-06-07T00:00:00	2024-11-08T13:00:00	5	Humedad	60
134045	7	Sololá	713	San Lucas Tolimán	10	San Lucas Tolimán	7	Julio	2023-06-07T00:00:00	2024-11-08T13:00:00	6	Velocidad del viento	11.3
134046	7	Sololá	713	San Lucas Tolimán	10	San Lucas Tolimán	7	Julio	2023-06-07T00:00:00	2024-11-08T13:00:00	7	Dirección del viento	11.27
134047	7	Sololá	713	San Lucas Tolimán	10	San Lucas Tolimán	7	Julio	2023-06-07T00:00:00	2024-11-08T13:00:00	1	Precipitación	0
134048	7	Sololá	713	San Lucas Tolimán	10	San Lucas Tolimán	7	Julio	2023-06-07T00:00:00	2024-11-08T13:00:00	8	Radiación solar	1183
134049	7	Sololá	713	San Lucas Tolimán	10	San Lucas Tolimán	7	Julio	2023-06-07T00:00:00	2024-11-08T14:00:00	2	Temperatura media	22.4
134050	7	Sololá	713	San Lucas Tolimán	10	San Lucas Tolimán	7	Julio	2023-06-07T00:00:00	2024-11-08T14:00:00	4	Temperatura máxima	23.5
134051	7	Sololá	713	San Lucas Tolimán	10	San Lucas Tolimán	7	Julio	2023-06-07T00:00:00	2024-11-08T14:00:00	3	Temperatura mínima	22.4
134052	7	Sololá	713	San Lucas Tolimán	10	San Lucas Tolimán	7	Julio	2023-06-07T00:00:00	2024-11-08T14:00:00	5	Humedad	62
134053	7	Sololá	713	San Lucas Tolimán	10	San Lucas Tolimán	7	Julio	2023-06-07T00:00:00	2024-11-08T14:00:00	6	Velocidad del viento	12.9
134054	7	Sololá	713	San Lucas Tolimán	10	San Lucas Tolimán	7	Julio	2023-06-07T00:00:00	2024-11-08T14:00:00	7	Dirección del viento	12.87
134055	7	Sololá	713	San Lucas Tolimán	10	San Lucas Tolimán	7	Julio	2023-06-07T00:00:00	2024-11-08T14:00:00	1	Precipitación	0
134056	7	Sololá	713	San Lucas Tolimán	10	San Lucas Tolimán	7	Julio	2023-06-07T00:00:00	2024-11-08T14:00:00	8	Radiación solar	1022
134057	7	Sololá	713	San Lucas Tolimán	10	San Lucas Tolimán	7	Julio	2023-06-07T00:00:00	2024-11-08T15:00:00	2	Temperatura media	21.3
134058	7	Sololá	713	San Lucas Tolimán	10	San Lucas Tolimán	7	Julio	2023-06-07T00:00:00	2024-11-08T15:00:00	4	Temperatura máxima	22.7
134059	7	Sololá	713	San Lucas Tolimán	10	San Lucas Tolimán	7	Julio	2023-06-07T00:00:00	2024-11-08T15:00:00	3	Temperatura mínima	21.3
134060	7	Sololá	713	San Lucas Tolimán	10	San Lucas Tolimán	7	Julio	2023-06-07T00:00:00	2024-11-08T15:00:00	5	Humedad	63
134061	7	Sololá	713	San Lucas Tolimán	10	San Lucas Tolimán	7	Julio	2023-06-07T00:00:00	2024-11-08T15:00:00	6	Velocidad del viento	11.3
134062	7	Sololá	713	San Lucas Tolimán	10	San Lucas Tolimán	7	Julio	2023-06-07T00:00:00	2024-11-08T15:00:00	7	Dirección del viento	11.27
134063	7	Sololá	713	San Lucas Tolimán	10	San Lucas Tolimán	7	Julio	2023-06-07T00:00:00	2024-11-08T15:00:00	1	Precipitación	0
134064	7	Sololá	713	San Lucas Tolimán	10	San Lucas Tolimán	7	Julio	2023-06-07T00:00:00	2024-11-08T15:00:00	8	Radiación solar	690
134065	7	Sololá	713	San Lucas Tolimán	10	San Lucas Tolimán	7	Julio	2023-06-07T00:00:00	2024-11-08T16:00:00	2	Temperatura media	21.2
134066	7	Sololá	713	San Lucas Tolimán	10	San Lucas Tolimán	7	Julio	2023-06-07T00:00:00	2024-11-08T16:00:00	4	Temperatura máxima	22.3
134067	7	Sololá	713	San Lucas Tolimán	10	San Lucas Tolimán	7	Julio	2023-06-07T00:00:00	2024-11-08T16:00:00	3	Temperatura mínima	20.8
134068	7	Sololá	713	San Lucas Tolimán	10	San Lucas Tolimán	7	Julio	2023-06-07T00:00:00	2024-11-08T16:00:00	5	Humedad	61
134069	7	Sololá	713	San Lucas Tolimán	10	San Lucas Tolimán	7	Julio	2023-06-07T00:00:00	2024-11-08T16:00:00	6	Velocidad del viento	11.3
134070	7	Sololá	713	San Lucas Tolimán	10	San Lucas Tolimán	7	Julio	2023-06-07T00:00:00	2024-11-08T16:00:00	7	Dirección del viento	11.27
134071	7	Sololá	713	San Lucas Tolimán	10	San Lucas Tolimán	7	Julio	2023-06-07T00:00:00	2024-11-08T16:00:00	1	Precipitación	0
134072	7	Sololá	713	San Lucas Tolimán	10	San Lucas Tolimán	7	Julio	2023-06-07T00:00:00	2024-11-08T16:00:00	8	Radiación solar	585
134073	7	Sololá	713	San Lucas Tolimán	10	San Lucas Tolimán	7	Julio	2023-06-07T00:00:00	2024-11-08T17:00:00	2	Temperatura media	20.8
134074	7	Sololá	713	San Lucas Tolimán	10	San Lucas Tolimán	7	Julio	2023-06-07T00:00:00	2024-11-08T17:00:00	4	Temperatura máxima	21.3
134075	7	Sololá	713	San Lucas Tolimán	10	San Lucas Tolimán	7	Julio	2023-06-07T00:00:00	2024-11-08T17:00:00	3	Temperatura mínima	20.7
134076	7	Sololá	713	San Lucas Tolimán	10	San Lucas Tolimán	7	Julio	2023-06-07T00:00:00	2024-11-08T17:00:00	5	Humedad	62
134077	7	Sololá	713	San Lucas Tolimán	10	San Lucas Tolimán	7	Julio	2023-06-07T00:00:00	2024-11-08T17:00:00	6	Velocidad del viento	9.7
134078	7	Sololá	713	San Lucas Tolimán	10	San Lucas Tolimán	7	Julio	2023-06-07T00:00:00	2024-11-08T17:00:00	7	Dirección del viento	9.66
134079	7	Sololá	713	San Lucas Tolimán	10	San Lucas Tolimán	7	Julio	2023-06-07T00:00:00	2024-11-08T17:00:00	1	Precipitación	0
134080	7	Sololá	713	San Lucas Tolimán	10	San Lucas Tolimán	7	Julio	2023-06-07T00:00:00	2024-11-08T17:00:00	8	Radiación solar	260
134081	7	Sololá	713	San Lucas Tolimán	10	San Lucas Tolimán	7	Julio	2023-06-07T00:00:00	2024-11-08T18:00:00	2	Temperatura media	20
134082	7	Sololá	713	San Lucas Tolimán	10	San Lucas Tolimán	7	Julio	2023-06-07T00:00:00	2024-11-08T18:00:00	4	Temperatura máxima	21.1
134083	7	Sololá	713	San Lucas Tolimán	10	San Lucas Tolimán	7	Julio	2023-06-07T00:00:00	2024-11-08T18:00:00	3	Temperatura mínima	19.9
134084	7	Sololá	713	San Lucas Tolimán	10	San Lucas Tolimán	7	Julio	2023-06-07T00:00:00	2024-11-08T18:00:00	5	Humedad	63
134085	7	Sololá	713	San Lucas Tolimán	10	San Lucas Tolimán	7	Julio	2023-06-07T00:00:00	2024-11-08T18:00:00	6	Velocidad del viento	8
134086	7	Sololá	713	San Lucas Tolimán	10	San Lucas Tolimán	7	Julio	2023-06-07T00:00:00	2024-11-08T18:00:00	7	Dirección del viento	8.05
134087	7	Sololá	713	San Lucas Tolimán	10	San Lucas Tolimán	7	Julio	2023-06-07T00:00:00	2024-11-08T18:00:00	1	Precipitación	0
134088	7	Sololá	713	San Lucas Tolimán	10	San Lucas Tolimán	7	Julio	2023-06-07T00:00:00	2024-11-08T18:00:00	8	Radiación solar	186
134089	7	Sololá	713	San Lucas Tolimán	10	San Lucas Tolimán	7	Julio	2023-06-07T00:00:00	2024-11-08T19:00:00	2	Temperatura media	19.4
134090	7	Sololá	713	San Lucas Tolimán	10	San Lucas Tolimán	7	Julio	2023-06-07T00:00:00	2024-11-08T19:00:00	4	Temperatura máxima	20
134091	7	Sololá	713	San Lucas Tolimán	10	San Lucas Tolimán	7	Julio	2023-06-07T00:00:00	2024-11-08T19:00:00	3	Temperatura mínima	19.4
134092	7	Sololá	713	San Lucas Tolimán	10	San Lucas Tolimán	7	Julio	2023-06-07T00:00:00	2024-11-08T19:00:00	5	Humedad	62
134093	7	Sololá	713	San Lucas Tolimán	10	San Lucas Tolimán	7	Julio	2023-06-07T00:00:00	2024-11-08T19:00:00	6	Velocidad del viento	6.4
134094	7	Sololá	713	San Lucas Tolimán	10	San Lucas Tolimán	7	Julio	2023-06-07T00:00:00	2024-11-08T19:00:00	7	Dirección del viento	6.44
134095	7	Sololá	713	San Lucas Tolimán	10	San Lucas Tolimán	7	Julio	2023-06-07T00:00:00	2024-11-08T19:00:00	1	Precipitación	0
134096	7	Sololá	713	San Lucas Tolimán	10	San Lucas Tolimán	7	Julio	2023-06-07T00:00:00	2024-11-08T19:00:00	8	Radiación solar	0
134097	7	Sololá	713	San Lucas Tolimán	10	San Lucas Tolimán	7	Julio	2023-06-07T00:00:00	2024-11-08T20:00:00	2	Temperatura media	18.4
134098	7	Sololá	713	San Lucas Tolimán	10	San Lucas Tolimán	7	Julio	2023-06-07T00:00:00	2024-11-08T20:00:00	4	Temperatura máxima	19.4
134099	7	Sololá	713	San Lucas Tolimán	10	San Lucas Tolimán	7	Julio	2023-06-07T00:00:00	2024-11-08T20:00:00	3	Temperatura mínima	18.4
134100	7	Sololá	713	San Lucas Tolimán	10	San Lucas Tolimán	7	Julio	2023-06-07T00:00:00	2024-11-08T20:00:00	5	Humedad	63
134101	7	Sololá	713	San Lucas Tolimán	10	San Lucas Tolimán	7	Julio	2023-06-07T00:00:00	2024-11-08T20:00:00	6	Velocidad del viento	4.8
134102	7	Sololá	713	San Lucas Tolimán	10	San Lucas Tolimán	7	Julio	2023-06-07T00:00:00	2024-11-08T20:00:00	7	Dirección del viento	4.83
134103	7	Sololá	713	San Lucas Tolimán	10	San Lucas Tolimán	7	Julio	2023-06-07T00:00:00	2024-11-08T20:00:00	1	Precipitación	0
134104	7	Sololá	713	San Lucas Tolimán	10	San Lucas Tolimán	7	Julio	2023-06-07T00:00:00	2024-11-08T20:00:00	8	Radiación solar	0
134105	7	Sololá	713	San Lucas Tolimán	10	San Lucas Tolimán	7	Julio	2023-06-07T00:00:00	2024-11-08T21:00:00	2	Temperatura media	18.7
134106	7	Sololá	713	San Lucas Tolimán	10	San Lucas Tolimán	7	Julio	2023-06-07T00:00:00	2024-11-08T21:00:00	4	Temperatura máxima	18.7
134107	7	Sololá	713	San Lucas Tolimán	10	San Lucas Tolimán	7	Julio	2023-06-07T00:00:00	2024-11-08T21:00:00	3	Temperatura mínima	18.1
134108	7	Sololá	713	San Lucas Tolimán	10	San Lucas Tolimán	7	Julio	2023-06-07T00:00:00	2024-11-08T21:00:00	5	Humedad	59
134109	7	Sololá	713	San Lucas Tolimán	10	San Lucas Tolimán	7	Julio	2023-06-07T00:00:00	2024-11-08T21:00:00	6	Velocidad del viento	3.2
134110	7	Sololá	713	San Lucas Tolimán	10	San Lucas Tolimán	7	Julio	2023-06-07T00:00:00	2024-11-08T21:00:00	7	Dirección del viento	3.22
134111	7	Sololá	713	San Lucas Tolimán	10	San Lucas Tolimán	7	Julio	2023-06-07T00:00:00	2024-11-08T21:00:00	1	Precipitación	0
134112	7	Sololá	713	San Lucas Tolimán	10	San Lucas Tolimán	7	Julio	2023-06-07T00:00:00	2024-11-08T21:00:00	8	Radiación solar	0
134113	7	Sololá	713	San Lucas Tolimán	10	San Lucas Tolimán	7	Julio	2023-06-07T00:00:00	2024-11-08T22:00:00	2	Temperatura media	18.7
134114	7	Sololá	713	San Lucas Tolimán	10	San Lucas Tolimán	7	Julio	2023-06-07T00:00:00	2024-11-08T22:00:00	4	Temperatura máxima	18.7
134115	7	Sololá	713	San Lucas Tolimán	10	San Lucas Tolimán	7	Julio	2023-06-07T00:00:00	2024-11-08T22:00:00	3	Temperatura mínima	18.2
134116	7	Sololá	713	San Lucas Tolimán	10	San Lucas Tolimán	7	Julio	2023-06-07T00:00:00	2024-11-08T22:00:00	5	Humedad	60
134117	7	Sololá	713	San Lucas Tolimán	10	San Lucas Tolimán	7	Julio	2023-06-07T00:00:00	2024-11-08T22:00:00	6	Velocidad del viento	3.2
134118	7	Sololá	713	San Lucas Tolimán	10	San Lucas Tolimán	7	Julio	2023-06-07T00:00:00	2024-11-08T22:00:00	7	Dirección del viento	3.22
134119	7	Sololá	713	San Lucas Tolimán	10	San Lucas Tolimán	7	Julio	2023-06-07T00:00:00	2024-11-08T22:00:00	1	Precipitación	0
134120	7	Sololá	713	San Lucas Tolimán	10	San Lucas Tolimán	7	Julio	2023-06-07T00:00:00	2024-11-08T22:00:00	8	Radiación solar	0
134121	7	Sololá	713	San Lucas Tolimán	10	San Lucas Tolimán	7	Julio	2023-06-07T00:00:00	2024-11-08T23:00:00	2	Temperatura media	17.3
134122	7	Sololá	713	San Lucas Tolimán	10	San Lucas Tolimán	7	Julio	2023-06-07T00:00:00	2024-11-08T23:00:00	4	Temperatura máxima	18.6
134123	7	Sololá	713	San Lucas Tolimán	10	San Lucas Tolimán	7	Julio	2023-06-07T00:00:00	2024-11-08T23:00:00	3	Temperatura mínima	17.2
134124	7	Sololá	713	San Lucas Tolimán	10	San Lucas Tolimán	7	Julio	2023-06-07T00:00:00	2024-11-08T23:00:00	5	Humedad	64
134125	7	Sololá	713	San Lucas Tolimán	10	San Lucas Tolimán	7	Julio	2023-06-07T00:00:00	2024-11-08T23:00:00	6	Velocidad del viento	1.6
134126	7	Sololá	713	San Lucas Tolimán	10	San Lucas Tolimán	7	Julio	2023-06-07T00:00:00	2024-11-08T23:00:00	7	Dirección del viento	1.61
134127	7	Sololá	713	San Lucas Tolimán	10	San Lucas Tolimán	7	Julio	2023-06-07T00:00:00	2024-11-08T23:00:00	1	Precipitación	0
134128	7	Sololá	713	San Lucas Tolimán	10	San Lucas Tolimán	7	Julio	2023-06-07T00:00:00	2024-11-08T23:00:00	8	Radiación solar	0
134129	7	Sololá	713	San Lucas Tolimán	10	San Lucas Tolimán	7	Julio	2023-07-07T00:00:00	2024-11-08T00:00:00	2	Temperatura media	18.1
134130	7	Sololá	713	San Lucas Tolimán	10	San Lucas Tolimán	7	Julio	2023-07-07T00:00:00	2024-11-08T00:00:00	4	Temperatura máxima	18.2
134131	7	Sololá	713	San Lucas Tolimán	10	San Lucas Tolimán	7	Julio	2023-07-07T00:00:00	2024-11-08T00:00:00	3	Temperatura mínima	17.1
134132	7	Sololá	713	San Lucas Tolimán	10	San Lucas Tolimán	7	Julio	2023-07-07T00:00:00	2024-11-08T00:00:00	5	Humedad	60
134133	7	Sololá	713	San Lucas Tolimán	10	San Lucas Tolimán	7	Julio	2023-07-07T00:00:00	2024-11-08T00:00:00	6	Velocidad del viento	3.2
134134	7	Sololá	713	San Lucas Tolimán	10	San Lucas Tolimán	7	Julio	2023-07-07T00:00:00	2024-11-08T00:00:00	7	Dirección del viento	3.22
134135	7	Sololá	713	San Lucas Tolimán	10	San Lucas Tolimán	7	Julio	2023-07-07T00:00:00	2024-11-08T00:00:00	1	Precipitación	0
134136	7	Sololá	713	San Lucas Tolimán	10	San Lucas Tolimán	7	Julio	2023-07-07T00:00:00	2024-11-08T00:00:00	8	Radiación solar	0
134137	7	Sololá	713	San Lucas Tolimán	10	San Lucas Tolimán	7	Julio	2023-07-07T00:00:00	2024-11-08T01:00:00	2	Temperatura media	17.7
134138	7	Sololá	713	San Lucas Tolimán	10	San Lucas Tolimán	7	Julio	2023-07-07T00:00:00	2024-11-08T01:00:00	4	Temperatura máxima	18.4
134139	7	Sololá	713	San Lucas Tolimán	10	San Lucas Tolimán	7	Julio	2023-07-07T00:00:00	2024-11-08T01:00:00	3	Temperatura mínima	17.6
134140	7	Sololá	713	San Lucas Tolimán	10	San Lucas Tolimán	7	Julio	2023-07-07T00:00:00	2024-11-08T01:00:00	5	Humedad	61
134141	7	Sololá	713	San Lucas Tolimán	10	San Lucas Tolimán	7	Julio	2023-07-07T00:00:00	2024-11-08T01:00:00	6	Velocidad del viento	1.6
134142	7	Sololá	713	San Lucas Tolimán	10	San Lucas Tolimán	7	Julio	2023-07-07T00:00:00	2024-11-08T01:00:00	7	Dirección del viento	1.61
134143	7	Sololá	713	San Lucas Tolimán	10	San Lucas Tolimán	7	Julio	2023-07-07T00:00:00	2024-11-08T01:00:00	1	Precipitación	0
134144	7	Sololá	713	San Lucas Tolimán	10	San Lucas Tolimán	7	Julio	2023-07-07T00:00:00	2024-11-08T01:00:00	8	Radiación solar	0
134145	7	Sololá	713	San Lucas Tolimán	10	San Lucas Tolimán	7	Julio	2023-07-07T00:00:00	2024-11-08T02:00:00	2	Temperatura media	16.7
134146	7	Sololá	713	San Lucas Tolimán	10	San Lucas Tolimán	7	Julio	2023-07-07T00:00:00	2024-11-08T02:00:00	4	Temperatura máxima	17.8
134147	7	Sololá	713	San Lucas Tolimán	10	San Lucas Tolimán	7	Julio	2023-07-07T00:00:00	2024-11-08T02:00:00	3	Temperatura mínima	16.7
134148	7	Sololá	713	San Lucas Tolimán	10	San Lucas Tolimán	7	Julio	2023-07-07T00:00:00	2024-11-08T02:00:00	5	Humedad	63
134149	7	Sololá	713	San Lucas Tolimán	10	San Lucas Tolimán	7	Julio	2023-07-07T00:00:00	2024-11-08T02:00:00	6	Velocidad del viento	3.2
134150	7	Sololá	713	San Lucas Tolimán	10	San Lucas Tolimán	7	Julio	2023-07-07T00:00:00	2024-11-08T02:00:00	7	Dirección del viento	3.22
134151	7	Sololá	713	San Lucas Tolimán	10	San Lucas Tolimán	7	Julio	2023-07-07T00:00:00	2024-11-08T02:00:00	1	Precipitación	0
134152	7	Sololá	713	San Lucas Tolimán	10	San Lucas Tolimán	7	Julio	2023-07-07T00:00:00	2024-11-08T02:00:00	8	Radiación solar	0
134153	7	Sololá	713	San Lucas Tolimán	10	San Lucas Tolimán	7	Julio	2023-07-07T00:00:00	2024-11-08T03:00:00	2	Temperatura media	16.3
134154	7	Sololá	713	San Lucas Tolimán	10	San Lucas Tolimán	7	Julio	2023-07-07T00:00:00	2024-11-08T03:00:00	4	Temperatura máxima	16.7
134155	7	Sololá	713	San Lucas Tolimán	10	San Lucas Tolimán	7	Julio	2023-07-07T00:00:00	2024-11-08T03:00:00	3	Temperatura mínima	16
134156	7	Sololá	713	San Lucas Tolimán	10	San Lucas Tolimán	7	Julio	2023-07-07T00:00:00	2024-11-08T03:00:00	5	Humedad	61
134157	7	Sololá	713	San Lucas Tolimán	10	San Lucas Tolimán	7	Julio	2023-07-07T00:00:00	2024-11-08T03:00:00	6	Velocidad del viento	1.6
134158	7	Sololá	713	San Lucas Tolimán	10	San Lucas Tolimán	7	Julio	2023-07-07T00:00:00	2024-11-08T03:00:00	7	Dirección del viento	1.61
134159	7	Sololá	713	San Lucas Tolimán	10	San Lucas Tolimán	7	Julio	2023-07-07T00:00:00	2024-11-08T03:00:00	1	Precipitación	0
134160	7	Sololá	713	San Lucas Tolimán	10	San Lucas Tolimán	7	Julio	2023-07-07T00:00:00	2024-11-08T03:00:00	8	Radiación solar	0
134161	7	Sololá	713	San Lucas Tolimán	10	San Lucas Tolimán	7	Julio	2023-07-07T00:00:00	2024-11-08T04:00:00	2	Temperatura media	17.1
134162	7	Sololá	713	San Lucas Tolimán	10	San Lucas Tolimán	7	Julio	2023-07-07T00:00:00	2024-11-08T04:00:00	4	Temperatura máxima	17.1
134163	7	Sololá	713	San Lucas Tolimán	10	San Lucas Tolimán	7	Julio	2023-07-07T00:00:00	2024-11-08T04:00:00	3	Temperatura mínima	16.3
134164	7	Sololá	713	San Lucas Tolimán	10	San Lucas Tolimán	7	Julio	2023-07-07T00:00:00	2024-11-08T04:00:00	5	Humedad	60
134165	7	Sololá	713	San Lucas Tolimán	10	San Lucas Tolimán	7	Julio	2023-07-07T00:00:00	2024-11-08T04:00:00	6	Velocidad del viento	0
134166	7	Sololá	713	San Lucas Tolimán	10	San Lucas Tolimán	7	Julio	2023-07-07T00:00:00	2024-11-08T04:00:00	7	Dirección del viento	0
134167	7	Sololá	713	San Lucas Tolimán	10	San Lucas Tolimán	7	Julio	2023-07-07T00:00:00	2024-11-08T04:00:00	1	Precipitación	0
134168	7	Sololá	713	San Lucas Tolimán	10	San Lucas Tolimán	7	Julio	2023-07-07T00:00:00	2024-11-08T04:00:00	8	Radiación solar	0
134169	7	Sololá	713	San Lucas Tolimán	10	San Lucas Tolimán	7	Julio	2023-07-07T00:00:00	2024-11-08T05:00:00	2	Temperatura media	17.2
134170	7	Sololá	713	San Lucas Tolimán	10	San Lucas Tolimán	7	Julio	2023-07-07T00:00:00	2024-11-08T05:00:00	4	Temperatura máxima	17.6
134171	7	Sololá	713	San Lucas Tolimán	10	San Lucas Tolimán	7	Julio	2023-07-07T00:00:00	2024-11-08T05:00:00	3	Temperatura mínima	17.1
134172	7	Sololá	713	San Lucas Tolimán	10	San Lucas Tolimán	7	Julio	2023-07-07T00:00:00	2024-11-08T05:00:00	5	Humedad	61
134173	7	Sololá	713	San Lucas Tolimán	10	San Lucas Tolimán	7	Julio	2023-07-07T00:00:00	2024-11-08T05:00:00	6	Velocidad del viento	1.6
134174	7	Sololá	713	San Lucas Tolimán	10	San Lucas Tolimán	7	Julio	2023-07-07T00:00:00	2024-11-08T05:00:00	7	Dirección del viento	1.61
134175	7	Sololá	713	San Lucas Tolimán	10	San Lucas Tolimán	7	Julio	2023-07-07T00:00:00	2024-11-08T05:00:00	1	Precipitación	0
134176	7	Sololá	713	San Lucas Tolimán	10	San Lucas Tolimán	7	Julio	2023-07-07T00:00:00	2024-11-08T05:00:00	8	Radiación solar	0
134177	7	Sololá	713	San Lucas Tolimán	10	San Lucas Tolimán	7	Julio	2023-07-07T00:00:00	2024-11-08T06:00:00	2	Temperatura media	16.8
134178	7	Sololá	713	San Lucas Tolimán	10	San Lucas Tolimán	7	Julio	2023-07-07T00:00:00	2024-11-08T06:00:00	4	Temperatura máxima	17.3
134179	7	Sololá	713	San Lucas Tolimán	10	San Lucas Tolimán	7	Julio	2023-07-07T00:00:00	2024-11-08T06:00:00	3	Temperatura mínima	16.4
134180	7	Sololá	713	San Lucas Tolimán	10	San Lucas Tolimán	7	Julio	2023-07-07T00:00:00	2024-11-08T06:00:00	5	Humedad	62
134181	7	Sololá	713	San Lucas Tolimán	10	San Lucas Tolimán	7	Julio	2023-07-07T00:00:00	2024-11-08T06:00:00	6	Velocidad del viento	1.6
134182	7	Sololá	713	San Lucas Tolimán	10	San Lucas Tolimán	7	Julio	2023-07-07T00:00:00	2024-11-08T06:00:00	7	Dirección del viento	1.61
134183	7	Sololá	713	San Lucas Tolimán	10	San Lucas Tolimán	7	Julio	2023-07-07T00:00:00	2024-11-08T06:00:00	1	Precipitación	0
134184	7	Sololá	713	San Lucas Tolimán	10	San Lucas Tolimán	7	Julio	2023-07-07T00:00:00	2024-11-08T06:00:00	8	Radiación solar	3
134185	7	Sololá	713	San Lucas Tolimán	10	San Lucas Tolimán	7	Julio	2023-07-07T00:00:00	2024-11-08T07:00:00	2	Temperatura media	18.7
134186	7	Sololá	713	San Lucas Tolimán	10	San Lucas Tolimán	7	Julio	2023-07-07T00:00:00	2024-11-08T07:00:00	4	Temperatura máxima	18.7
134187	7	Sololá	713	San Lucas Tolimán	10	San Lucas Tolimán	7	Julio	2023-07-07T00:00:00	2024-11-08T07:00:00	3	Temperatura mínima	16.8
134188	7	Sololá	713	San Lucas Tolimán	10	San Lucas Tolimán	7	Julio	2023-07-07T00:00:00	2024-11-08T07:00:00	5	Humedad	60
134189	7	Sololá	713	San Lucas Tolimán	10	San Lucas Tolimán	7	Julio	2023-07-07T00:00:00	2024-11-08T07:00:00	6	Velocidad del viento	4.8
134190	7	Sololá	713	San Lucas Tolimán	10	San Lucas Tolimán	7	Julio	2023-07-07T00:00:00	2024-11-08T07:00:00	7	Dirección del viento	4.83
134191	7	Sololá	713	San Lucas Tolimán	10	San Lucas Tolimán	7	Julio	2023-07-07T00:00:00	2024-11-08T07:00:00	1	Precipitación	0
134192	7	Sololá	713	San Lucas Tolimán	10	San Lucas Tolimán	7	Julio	2023-07-07T00:00:00	2024-11-08T07:00:00	8	Radiación solar	83
134193	7	Sololá	713	San Lucas Tolimán	10	San Lucas Tolimán	7	Julio	2023-07-07T00:00:00	2024-11-08T08:00:00	2	Temperatura media	21.9
134194	7	Sololá	713	San Lucas Tolimán	10	San Lucas Tolimán	7	Julio	2023-07-07T00:00:00	2024-11-08T08:00:00	4	Temperatura máxima	21.9
134195	7	Sololá	713	San Lucas Tolimán	10	San Lucas Tolimán	7	Julio	2023-07-07T00:00:00	2024-11-08T08:00:00	3	Temperatura mínima	18.7
134196	7	Sololá	713	San Lucas Tolimán	10	San Lucas Tolimán	7	Julio	2023-07-07T00:00:00	2024-11-08T08:00:00	5	Humedad	54
134197	7	Sololá	713	San Lucas Tolimán	10	San Lucas Tolimán	7	Julio	2023-07-07T00:00:00	2024-11-08T08:00:00	6	Velocidad del viento	6.4
134198	7	Sololá	713	San Lucas Tolimán	10	San Lucas Tolimán	7	Julio	2023-07-07T00:00:00	2024-11-08T08:00:00	7	Dirección del viento	6.44
134199	7	Sololá	713	San Lucas Tolimán	10	San Lucas Tolimán	7	Julio	2023-07-07T00:00:00	2024-11-08T08:00:00	1	Precipitación	0
134200	7	Sololá	713	San Lucas Tolimán	10	San Lucas Tolimán	7	Julio	2023-07-07T00:00:00	2024-11-08T08:00:00	8	Radiación solar	408
134201	7	Sololá	713	San Lucas Tolimán	10	San Lucas Tolimán	7	Julio	2023-07-07T00:00:00	2024-11-08T09:00:00	2	Temperatura media	23.7
134202	7	Sololá	713	San Lucas Tolimán	10	San Lucas Tolimán	7	Julio	2023-07-07T00:00:00	2024-11-08T09:00:00	4	Temperatura máxima	23.7
134203	7	Sololá	713	San Lucas Tolimán	10	San Lucas Tolimán	7	Julio	2023-07-07T00:00:00	2024-11-08T09:00:00	3	Temperatura mínima	21.9
134204	7	Sololá	713	San Lucas Tolimán	10	San Lucas Tolimán	7	Julio	2023-07-07T00:00:00	2024-11-08T09:00:00	5	Humedad	47
134205	7	Sololá	713	San Lucas Tolimán	10	San Lucas Tolimán	7	Julio	2023-07-07T00:00:00	2024-11-08T09:00:00	6	Velocidad del viento	4.8
134206	7	Sololá	713	San Lucas Tolimán	10	San Lucas Tolimán	7	Julio	2023-07-07T00:00:00	2024-11-08T09:00:00	7	Dirección del viento	4.83
134207	7	Sololá	713	San Lucas Tolimán	10	San Lucas Tolimán	7	Julio	2023-07-07T00:00:00	2024-11-08T09:00:00	1	Precipitación	0
134208	7	Sololá	713	San Lucas Tolimán	10	San Lucas Tolimán	7	Julio	2023-07-07T00:00:00	2024-11-08T09:00:00	8	Radiación solar	634
134209	7	Sololá	713	San Lucas Tolimán	10	San Lucas Tolimán	7	Julio	2023-07-07T00:00:00	2024-11-08T10:00:00	2	Temperatura media	22.8
134210	7	Sololá	713	San Lucas Tolimán	10	San Lucas Tolimán	7	Julio	2023-07-07T00:00:00	2024-11-08T10:00:00	4	Temperatura máxima	24.6
134211	7	Sololá	713	San Lucas Tolimán	10	San Lucas Tolimán	7	Julio	2023-07-07T00:00:00	2024-11-08T10:00:00	3	Temperatura mínima	22.8
134212	7	Sololá	713	San Lucas Tolimán	10	San Lucas Tolimán	7	Julio	2023-07-07T00:00:00	2024-11-08T10:00:00	5	Humedad	60
134213	7	Sololá	713	San Lucas Tolimán	10	San Lucas Tolimán	7	Julio	2023-07-07T00:00:00	2024-11-08T10:00:00	6	Velocidad del viento	9.7
134214	7	Sololá	713	San Lucas Tolimán	10	San Lucas Tolimán	7	Julio	2023-07-07T00:00:00	2024-11-08T10:00:00	7	Dirección del viento	9.66
134215	7	Sololá	713	San Lucas Tolimán	10	San Lucas Tolimán	7	Julio	2023-07-07T00:00:00	2024-11-08T10:00:00	1	Precipitación	0
134216	7	Sololá	713	San Lucas Tolimán	10	San Lucas Tolimán	7	Julio	2023-07-07T00:00:00	2024-11-08T10:00:00	8	Radiación solar	879
134217	7	Sololá	713	San Lucas Tolimán	10	San Lucas Tolimán	7	Julio	2023-07-07T00:00:00	2024-11-08T11:00:00	2	Temperatura media	21.2
134218	7	Sololá	713	San Lucas Tolimán	10	San Lucas Tolimán	7	Julio	2023-07-07T00:00:00	2024-11-08T11:00:00	4	Temperatura máxima	22.8
134219	7	Sololá	713	San Lucas Tolimán	10	San Lucas Tolimán	7	Julio	2023-07-07T00:00:00	2024-11-08T11:00:00	3	Temperatura mínima	21.2
134220	7	Sololá	713	San Lucas Tolimán	10	San Lucas Tolimán	7	Julio	2023-07-07T00:00:00	2024-11-08T11:00:00	5	Humedad	60
134221	7	Sololá	713	San Lucas Tolimán	10	San Lucas Tolimán	7	Julio	2023-07-07T00:00:00	2024-11-08T11:00:00	6	Velocidad del viento	14.5
134222	7	Sololá	713	San Lucas Tolimán	10	San Lucas Tolimán	7	Julio	2023-07-07T00:00:00	2024-11-08T11:00:00	7	Dirección del viento	14.48
134223	7	Sololá	713	San Lucas Tolimán	10	San Lucas Tolimán	7	Julio	2023-07-07T00:00:00	2024-11-08T11:00:00	1	Precipitación	0
134224	7	Sololá	713	San Lucas Tolimán	10	San Lucas Tolimán	7	Julio	2023-07-07T00:00:00	2024-11-08T11:00:00	8	Radiación solar	1000
134225	7	Sololá	713	San Lucas Tolimán	10	San Lucas Tolimán	7	Julio	2023-07-07T00:00:00	2024-11-08T12:00:00	2	Temperatura media	21.8
134226	7	Sololá	713	San Lucas Tolimán	10	San Lucas Tolimán	7	Julio	2023-07-07T00:00:00	2024-11-08T12:00:00	4	Temperatura máxima	21.8
134227	7	Sololá	713	San Lucas Tolimán	10	San Lucas Tolimán	7	Julio	2023-07-07T00:00:00	2024-11-08T12:00:00	3	Temperatura mínima	20.6
134228	7	Sololá	713	San Lucas Tolimán	10	San Lucas Tolimán	7	Julio	2023-07-07T00:00:00	2024-11-08T12:00:00	5	Humedad	57
134229	7	Sololá	713	San Lucas Tolimán	10	San Lucas Tolimán	7	Julio	2023-07-07T00:00:00	2024-11-08T12:00:00	6	Velocidad del viento	12.9
134230	7	Sololá	713	San Lucas Tolimán	10	San Lucas Tolimán	7	Julio	2023-07-07T00:00:00	2024-11-08T12:00:00	7	Dirección del viento	12.87
134231	7	Sololá	713	San Lucas Tolimán	10	San Lucas Tolimán	7	Julio	2023-07-07T00:00:00	2024-11-08T12:00:00	1	Precipitación	0
134232	7	Sololá	713	San Lucas Tolimán	10	San Lucas Tolimán	7	Julio	2023-07-07T00:00:00	2024-11-08T12:00:00	8	Radiación solar	403
134233	7	Sololá	713	San Lucas Tolimán	10	San Lucas Tolimán	7	Julio	2023-07-07T00:00:00	2024-11-08T13:00:00	2	Temperatura media	20
134234	7	Sololá	713	San Lucas Tolimán	10	San Lucas Tolimán	7	Julio	2023-07-07T00:00:00	2024-11-08T13:00:00	4	Temperatura máxima	21.8
134235	7	Sololá	713	San Lucas Tolimán	10	San Lucas Tolimán	7	Julio	2023-07-07T00:00:00	2024-11-08T13:00:00	3	Temperatura mínima	19.9
134236	7	Sololá	713	San Lucas Tolimán	10	San Lucas Tolimán	7	Julio	2023-07-07T00:00:00	2024-11-08T13:00:00	5	Humedad	61
134237	7	Sololá	713	San Lucas Tolimán	10	San Lucas Tolimán	7	Julio	2023-07-07T00:00:00	2024-11-08T13:00:00	6	Velocidad del viento	9.7
134238	7	Sololá	713	San Lucas Tolimán	10	San Lucas Tolimán	7	Julio	2023-07-07T00:00:00	2024-11-08T13:00:00	7	Dirección del viento	9.66
134239	7	Sololá	713	San Lucas Tolimán	10	San Lucas Tolimán	7	Julio	2023-07-07T00:00:00	2024-11-08T13:00:00	1	Precipitación	2.6
134240	7	Sololá	713	San Lucas Tolimán	10	San Lucas Tolimán	7	Julio	2023-07-07T00:00:00	2024-11-08T13:00:00	8	Radiación solar	235
134241	7	Sololá	713	San Lucas Tolimán	10	San Lucas Tolimán	7	Julio	2023-07-07T00:00:00	2024-11-08T14:00:00	2	Temperatura media	19.7
134242	7	Sololá	713	San Lucas Tolimán	10	San Lucas Tolimán	7	Julio	2023-07-07T00:00:00	2024-11-08T14:00:00	4	Temperatura máxima	20
134243	7	Sololá	713	San Lucas Tolimán	10	San Lucas Tolimán	7	Julio	2023-07-07T00:00:00	2024-11-08T14:00:00	3	Temperatura mínima	19.3
134244	7	Sololá	713	San Lucas Tolimán	10	San Lucas Tolimán	7	Julio	2023-07-07T00:00:00	2024-11-08T14:00:00	5	Humedad	66
134245	7	Sololá	713	San Lucas Tolimán	10	San Lucas Tolimán	7	Julio	2023-07-07T00:00:00	2024-11-08T14:00:00	6	Velocidad del viento	8
134246	7	Sololá	713	San Lucas Tolimán	10	San Lucas Tolimán	7	Julio	2023-07-07T00:00:00	2024-11-08T14:00:00	7	Dirección del viento	8.05
134247	7	Sololá	713	San Lucas Tolimán	10	San Lucas Tolimán	7	Julio	2023-07-07T00:00:00	2024-11-08T14:00:00	1	Precipitación	3.6
134248	7	Sololá	713	San Lucas Tolimán	10	San Lucas Tolimán	7	Julio	2023-07-07T00:00:00	2024-11-08T14:00:00	8	Radiación solar	222
134249	7	Sololá	713	San Lucas Tolimán	10	San Lucas Tolimán	7	Julio	2023-07-07T00:00:00	2024-11-08T15:00:00	2	Temperatura media	18.2
134250	7	Sololá	713	San Lucas Tolimán	10	San Lucas Tolimán	7	Julio	2023-07-07T00:00:00	2024-11-08T15:00:00	4	Temperatura máxima	19.7
134251	7	Sololá	713	San Lucas Tolimán	10	San Lucas Tolimán	7	Julio	2023-07-07T00:00:00	2024-11-08T15:00:00	3	Temperatura mínima	18.2
134252	7	Sololá	713	San Lucas Tolimán	10	San Lucas Tolimán	7	Julio	2023-07-07T00:00:00	2024-11-08T15:00:00	5	Humedad	68
134253	7	Sololá	713	San Lucas Tolimán	10	San Lucas Tolimán	7	Julio	2023-07-07T00:00:00	2024-11-08T15:00:00	6	Velocidad del viento	11.3
134254	7	Sololá	713	San Lucas Tolimán	10	San Lucas Tolimán	7	Julio	2023-07-07T00:00:00	2024-11-08T15:00:00	7	Dirección del viento	11.27
134255	7	Sololá	713	San Lucas Tolimán	10	San Lucas Tolimán	7	Julio	2023-07-07T00:00:00	2024-11-08T15:00:00	1	Precipitación	1.8
134256	7	Sololá	713	San Lucas Tolimán	10	San Lucas Tolimán	7	Julio	2023-07-07T00:00:00	2024-11-08T15:00:00	8	Radiación solar	69
134257	7	Sololá	713	San Lucas Tolimán	10	San Lucas Tolimán	7	Julio	2023-07-07T00:00:00	2024-11-08T16:00:00	2	Temperatura media	17.1
134258	7	Sololá	713	San Lucas Tolimán	10	San Lucas Tolimán	7	Julio	2023-07-07T00:00:00	2024-11-08T16:00:00	4	Temperatura máxima	18.3
134259	7	Sololá	713	San Lucas Tolimán	10	San Lucas Tolimán	7	Julio	2023-07-07T00:00:00	2024-11-08T16:00:00	3	Temperatura mínima	17
134260	7	Sololá	713	San Lucas Tolimán	10	San Lucas Tolimán	7	Julio	2023-07-07T00:00:00	2024-11-08T16:00:00	5	Humedad	68
134261	7	Sololá	713	San Lucas Tolimán	10	San Lucas Tolimán	7	Julio	2023-07-07T00:00:00	2024-11-08T16:00:00	6	Velocidad del viento	11.3
134262	7	Sololá	713	San Lucas Tolimán	10	San Lucas Tolimán	7	Julio	2023-07-07T00:00:00	2024-11-08T16:00:00	7	Dirección del viento	11.27
134263	7	Sololá	713	San Lucas Tolimán	10	San Lucas Tolimán	7	Julio	2023-07-07T00:00:00	2024-11-08T16:00:00	1	Precipitación	3
134264	7	Sololá	713	San Lucas Tolimán	10	San Lucas Tolimán	7	Julio	2023-07-07T00:00:00	2024-11-08T16:00:00	8	Radiación solar	14
134265	7	Sololá	713	San Lucas Tolimán	10	San Lucas Tolimán	7	Julio	2023-07-07T00:00:00	2024-11-08T17:00:00	2	Temperatura media	16.8
134266	7	Sololá	713	San Lucas Tolimán	10	San Lucas Tolimán	7	Julio	2023-07-07T00:00:00	2024-11-08T17:00:00	4	Temperatura máxima	17.1
134267	7	Sololá	713	San Lucas Tolimán	10	San Lucas Tolimán	7	Julio	2023-07-07T00:00:00	2024-11-08T17:00:00	3	Temperatura mínima	16.6
134268	7	Sololá	713	San Lucas Tolimán	10	San Lucas Tolimán	7	Julio	2023-07-07T00:00:00	2024-11-08T17:00:00	5	Humedad	69
134269	7	Sololá	713	San Lucas Tolimán	10	San Lucas Tolimán	7	Julio	2023-07-07T00:00:00	2024-11-08T17:00:00	6	Velocidad del viento	9.7
134270	7	Sololá	713	San Lucas Tolimán	10	San Lucas Tolimán	7	Julio	2023-07-07T00:00:00	2024-11-08T17:00:00	7	Dirección del viento	9.66
134271	7	Sololá	713	San Lucas Tolimán	10	San Lucas Tolimán	7	Julio	2023-07-07T00:00:00	2024-11-08T17:00:00	1	Precipitación	6.2
134272	7	Sololá	713	San Lucas Tolimán	10	San Lucas Tolimán	7	Julio	2023-07-07T00:00:00	2024-11-08T17:00:00	8	Radiación solar	16
134273	7	Sololá	713	San Lucas Tolimán	10	San Lucas Tolimán	7	Julio	2023-07-07T00:00:00	2024-11-08T18:00:00	2	Temperatura media	17.1
134274	7	Sololá	713	San Lucas Tolimán	10	San Lucas Tolimán	7	Julio	2023-07-07T00:00:00	2024-11-08T18:00:00	4	Temperatura máxima	17.1
134275	7	Sololá	713	San Lucas Tolimán	10	San Lucas Tolimán	7	Julio	2023-07-07T00:00:00	2024-11-08T18:00:00	3	Temperatura mínima	16.8
134276	7	Sololá	713	San Lucas Tolimán	10	San Lucas Tolimán	7	Julio	2023-07-07T00:00:00	2024-11-08T18:00:00	5	Humedad	69
134277	7	Sololá	713	San Lucas Tolimán	10	San Lucas Tolimán	7	Julio	2023-07-07T00:00:00	2024-11-08T18:00:00	6	Velocidad del viento	1.6
134278	7	Sololá	713	San Lucas Tolimán	10	San Lucas Tolimán	7	Julio	2023-07-07T00:00:00	2024-11-08T18:00:00	7	Dirección del viento	1.61
134279	7	Sololá	713	San Lucas Tolimán	10	San Lucas Tolimán	7	Julio	2023-07-07T00:00:00	2024-11-08T18:00:00	1	Precipitación	0
134280	7	Sololá	713	San Lucas Tolimán	10	San Lucas Tolimán	7	Julio	2023-07-07T00:00:00	2024-11-08T18:00:00	8	Radiación solar	12
134281	7	Sololá	713	San Lucas Tolimán	10	San Lucas Tolimán	7	Julio	2023-07-07T00:00:00	2024-11-08T19:00:00	2	Temperatura media	17.1
134282	7	Sololá	713	San Lucas Tolimán	10	San Lucas Tolimán	7	Julio	2023-07-07T00:00:00	2024-11-08T19:00:00	4	Temperatura máxima	17.2
134283	7	Sololá	713	San Lucas Tolimán	10	San Lucas Tolimán	7	Julio	2023-07-07T00:00:00	2024-11-08T19:00:00	3	Temperatura mínima	17
134284	7	Sololá	713	San Lucas Tolimán	10	San Lucas Tolimán	7	Julio	2023-07-07T00:00:00	2024-11-08T19:00:00	5	Humedad	69
134285	7	Sololá	713	San Lucas Tolimán	10	San Lucas Tolimán	7	Julio	2023-07-07T00:00:00	2024-11-08T19:00:00	6	Velocidad del viento	1.6
134286	7	Sololá	713	San Lucas Tolimán	10	San Lucas Tolimán	7	Julio	2023-07-07T00:00:00	2024-11-08T19:00:00	7	Dirección del viento	1.61
134287	7	Sololá	713	San Lucas Tolimán	10	San Lucas Tolimán	7	Julio	2023-07-07T00:00:00	2024-11-08T19:00:00	1	Precipitación	0.2
134288	7	Sololá	713	San Lucas Tolimán	10	San Lucas Tolimán	7	Julio	2023-07-07T00:00:00	2024-11-08T19:00:00	8	Radiación solar	0
134289	7	Sololá	713	San Lucas Tolimán	10	San Lucas Tolimán	7	Julio	2023-07-07T00:00:00	2024-11-08T20:00:00	2	Temperatura media	16.6
134290	7	Sololá	713	San Lucas Tolimán	10	San Lucas Tolimán	7	Julio	2023-07-07T00:00:00	2024-11-08T20:00:00	4	Temperatura máxima	17.2
134291	7	Sololá	713	San Lucas Tolimán	10	San Lucas Tolimán	7	Julio	2023-07-07T00:00:00	2024-11-08T20:00:00	3	Temperatura mínima	16.6
134292	7	Sololá	713	San Lucas Tolimán	10	San Lucas Tolimán	7	Julio	2023-07-07T00:00:00	2024-11-08T20:00:00	5	Humedad	69
134293	7	Sololá	713	San Lucas Tolimán	10	San Lucas Tolimán	7	Julio	2023-07-07T00:00:00	2024-11-08T20:00:00	6	Velocidad del viento	1.6
134294	7	Sololá	713	San Lucas Tolimán	10	San Lucas Tolimán	7	Julio	2023-07-07T00:00:00	2024-11-08T20:00:00	7	Dirección del viento	1.61
134295	7	Sololá	713	San Lucas Tolimán	10	San Lucas Tolimán	7	Julio	2023-07-07T00:00:00	2024-11-08T20:00:00	1	Precipitación	0
134296	7	Sololá	713	San Lucas Tolimán	10	San Lucas Tolimán	7	Julio	2023-07-07T00:00:00	2024-11-08T20:00:00	8	Radiación solar	0
134297	7	Sololá	713	San Lucas Tolimán	10	San Lucas Tolimán	7	Julio	2023-07-07T00:00:00	2024-11-08T21:00:00	2	Temperatura media	16.4
134298	7	Sololá	713	San Lucas Tolimán	10	San Lucas Tolimán	7	Julio	2023-07-07T00:00:00	2024-11-08T21:00:00	4	Temperatura máxima	16.6
134299	7	Sololá	713	San Lucas Tolimán	10	San Lucas Tolimán	7	Julio	2023-07-07T00:00:00	2024-11-08T21:00:00	3	Temperatura mínima	16.4
134300	7	Sololá	713	San Lucas Tolimán	10	San Lucas Tolimán	7	Julio	2023-07-07T00:00:00	2024-11-08T21:00:00	5	Humedad	69
134301	7	Sololá	713	San Lucas Tolimán	10	San Lucas Tolimán	7	Julio	2023-07-07T00:00:00	2024-11-08T21:00:00	6	Velocidad del viento	1.6
134302	7	Sololá	713	San Lucas Tolimán	10	San Lucas Tolimán	7	Julio	2023-07-07T00:00:00	2024-11-08T21:00:00	7	Dirección del viento	1.61
134303	7	Sololá	713	San Lucas Tolimán	10	San Lucas Tolimán	7	Julio	2023-07-07T00:00:00	2024-11-08T21:00:00	1	Precipitación	0
134304	7	Sololá	713	San Lucas Tolimán	10	San Lucas Tolimán	7	Julio	2023-07-07T00:00:00	2024-11-08T21:00:00	8	Radiación solar	0
134305	7	Sololá	713	San Lucas Tolimán	10	San Lucas Tolimán	7	Julio	2023-07-07T00:00:00	2024-11-08T22:00:00	2	Temperatura media	16.8
134306	7	Sololá	713	San Lucas Tolimán	10	San Lucas Tolimán	7	Julio	2023-07-07T00:00:00	2024-11-08T22:00:00	4	Temperatura máxima	16.8
134307	7	Sololá	713	San Lucas Tolimán	10	San Lucas Tolimán	7	Julio	2023-07-07T00:00:00	2024-11-08T22:00:00	3	Temperatura mínima	16.4
134308	7	Sololá	713	San Lucas Tolimán	10	San Lucas Tolimán	7	Julio	2023-07-07T00:00:00	2024-11-08T22:00:00	5	Humedad	69
134309	7	Sololá	713	San Lucas Tolimán	10	San Lucas Tolimán	7	Julio	2023-07-07T00:00:00	2024-11-08T22:00:00	6	Velocidad del viento	1.6
134310	7	Sololá	713	San Lucas Tolimán	10	San Lucas Tolimán	7	Julio	2023-07-07T00:00:00	2024-11-08T22:00:00	7	Dirección del viento	1.61
134311	7	Sololá	713	San Lucas Tolimán	10	San Lucas Tolimán	7	Julio	2023-07-07T00:00:00	2024-11-08T22:00:00	1	Precipitación	0
134312	7	Sololá	713	San Lucas Tolimán	10	San Lucas Tolimán	7	Julio	2023-07-07T00:00:00	2024-11-08T22:00:00	8	Radiación solar	0
134313	7	Sololá	713	San Lucas Tolimán	10	San Lucas Tolimán	7	Julio	2023-07-07T00:00:00	2024-11-08T23:00:00	2	Temperatura media	16.3
134314	7	Sololá	713	San Lucas Tolimán	10	San Lucas Tolimán	7	Julio	2023-07-07T00:00:00	2024-11-08T23:00:00	4	Temperatura máxima	16.8
134315	7	Sololá	713	San Lucas Tolimán	10	San Lucas Tolimán	7	Julio	2023-07-07T00:00:00	2024-11-08T23:00:00	3	Temperatura mínima	16.3
134316	7	Sololá	713	San Lucas Tolimán	10	San Lucas Tolimán	7	Julio	2023-07-07T00:00:00	2024-11-08T23:00:00	5	Humedad	69
134317	7	Sololá	713	San Lucas Tolimán	10	San Lucas Tolimán	7	Julio	2023-07-07T00:00:00	2024-11-08T23:00:00	6	Velocidad del viento	1.6
134318	7	Sololá	713	San Lucas Tolimán	10	San Lucas Tolimán	7	Julio	2023-07-07T00:00:00	2024-11-08T23:00:00	7	Dirección del viento	1.61
134319	7	Sololá	713	San Lucas Tolimán	10	San Lucas Tolimán	7	Julio	2023-07-07T00:00:00	2024-11-08T23:00:00	1	Precipitación	0
134320	7	Sololá	713	San Lucas Tolimán	10	San Lucas Tolimán	7	Julio	2023-07-07T00:00:00	2024-11-08T23:00:00	8	Radiación solar	0
134321	7	Sololá	713	San Lucas Tolimán	10	San Lucas Tolimán	7	Julio	2023-08-07T00:00:00	2024-11-08T00:00:00	2	Temperatura media	16.5
134322	7	Sololá	713	San Lucas Tolimán	10	San Lucas Tolimán	7	Julio	2023-08-07T00:00:00	2024-11-08T00:00:00	4	Temperatura máxima	16.5
134323	7	Sololá	713	San Lucas Tolimán	10	San Lucas Tolimán	7	Julio	2023-08-07T00:00:00	2024-11-08T00:00:00	3	Temperatura mínima	16.3
134324	7	Sololá	713	San Lucas Tolimán	10	San Lucas Tolimán	7	Julio	2023-08-07T00:00:00	2024-11-08T00:00:00	5	Humedad	69
134325	7	Sololá	713	San Lucas Tolimán	10	San Lucas Tolimán	7	Julio	2023-08-07T00:00:00	2024-11-08T00:00:00	6	Velocidad del viento	1.6
134326	7	Sololá	713	San Lucas Tolimán	10	San Lucas Tolimán	7	Julio	2023-08-07T00:00:00	2024-11-08T00:00:00	7	Dirección del viento	1.61
134327	7	Sololá	713	San Lucas Tolimán	10	San Lucas Tolimán	7	Julio	2023-08-07T00:00:00	2024-11-08T00:00:00	1	Precipitación	0
134328	7	Sololá	713	San Lucas Tolimán	10	San Lucas Tolimán	7	Julio	2023-08-07T00:00:00	2024-11-08T00:00:00	8	Radiación solar	0
134329	7	Sololá	713	San Lucas Tolimán	10	San Lucas Tolimán	7	Julio	2023-08-07T00:00:00	2024-11-08T01:00:00	2	Temperatura media	16.4
134330	7	Sololá	713	San Lucas Tolimán	10	San Lucas Tolimán	7	Julio	2023-08-07T00:00:00	2024-11-08T01:00:00	4	Temperatura máxima	16.7
134331	7	Sololá	713	San Lucas Tolimán	10	San Lucas Tolimán	7	Julio	2023-08-07T00:00:00	2024-11-08T01:00:00	3	Temperatura mínima	16.3
134332	7	Sololá	713	San Lucas Tolimán	10	San Lucas Tolimán	7	Julio	2023-08-07T00:00:00	2024-11-08T01:00:00	5	Humedad	68
134333	7	Sololá	713	San Lucas Tolimán	10	San Lucas Tolimán	7	Julio	2023-08-07T00:00:00	2024-11-08T01:00:00	6	Velocidad del viento	4.8
134334	7	Sololá	713	San Lucas Tolimán	10	San Lucas Tolimán	7	Julio	2023-08-07T00:00:00	2024-11-08T01:00:00	7	Dirección del viento	4.83
134335	7	Sololá	713	San Lucas Tolimán	10	San Lucas Tolimán	7	Julio	2023-08-07T00:00:00	2024-11-08T01:00:00	1	Precipitación	0.2
134336	7	Sololá	713	San Lucas Tolimán	10	San Lucas Tolimán	7	Julio	2023-08-07T00:00:00	2024-11-08T01:00:00	8	Radiación solar	0
134337	7	Sololá	713	San Lucas Tolimán	10	San Lucas Tolimán	7	Julio	2023-08-07T00:00:00	2024-11-08T02:00:00	2	Temperatura media	16.4
134338	7	Sololá	713	San Lucas Tolimán	10	San Lucas Tolimán	7	Julio	2023-08-07T00:00:00	2024-11-08T02:00:00	4	Temperatura máxima	16.4
134339	7	Sololá	713	San Lucas Tolimán	10	San Lucas Tolimán	7	Julio	2023-08-07T00:00:00	2024-11-08T02:00:00	3	Temperatura mínima	16.3
134340	7	Sololá	713	San Lucas Tolimán	10	San Lucas Tolimán	7	Julio	2023-08-07T00:00:00	2024-11-08T02:00:00	5	Humedad	68
134341	7	Sololá	713	San Lucas Tolimán	10	San Lucas Tolimán	7	Julio	2023-08-07T00:00:00	2024-11-08T02:00:00	6	Velocidad del viento	3.2
134342	7	Sololá	713	San Lucas Tolimán	10	San Lucas Tolimán	7	Julio	2023-08-07T00:00:00	2024-11-08T02:00:00	7	Dirección del viento	3.22
134343	7	Sololá	713	San Lucas Tolimán	10	San Lucas Tolimán	7	Julio	2023-08-07T00:00:00	2024-11-08T02:00:00	1	Precipitación	0
134344	7	Sololá	713	San Lucas Tolimán	10	San Lucas Tolimán	7	Julio	2023-08-07T00:00:00	2024-11-08T02:00:00	8	Radiación solar	0
134345	7	Sololá	713	San Lucas Tolimán	10	San Lucas Tolimán	7	Julio	2023-08-07T00:00:00	2024-11-08T03:00:00	2	Temperatura media	16.7
134346	7	Sololá	713	San Lucas Tolimán	10	San Lucas Tolimán	7	Julio	2023-08-07T00:00:00	2024-11-08T03:00:00	4	Temperatura máxima	16.8
134347	7	Sololá	713	San Lucas Tolimán	10	San Lucas Tolimán	7	Julio	2023-08-07T00:00:00	2024-11-08T03:00:00	3	Temperatura mínima	16.4
134348	7	Sololá	713	San Lucas Tolimán	10	San Lucas Tolimán	7	Julio	2023-08-07T00:00:00	2024-11-08T03:00:00	5	Humedad	67
134349	7	Sololá	713	San Lucas Tolimán	10	San Lucas Tolimán	7	Julio	2023-08-07T00:00:00	2024-11-08T03:00:00	6	Velocidad del viento	3.2
134350	7	Sololá	713	San Lucas Tolimán	10	San Lucas Tolimán	7	Julio	2023-08-07T00:00:00	2024-11-08T03:00:00	7	Dirección del viento	3.22
134351	7	Sololá	713	San Lucas Tolimán	10	San Lucas Tolimán	7	Julio	2023-08-07T00:00:00	2024-11-08T03:00:00	1	Precipitación	0
134352	7	Sololá	713	San Lucas Tolimán	10	San Lucas Tolimán	7	Julio	2023-08-07T00:00:00	2024-11-08T03:00:00	8	Radiación solar	0
134353	7	Sololá	713	San Lucas Tolimán	10	San Lucas Tolimán	7	Julio	2023-08-07T00:00:00	2024-11-08T04:00:00	2	Temperatura media	16.8
134354	7	Sololá	713	San Lucas Tolimán	10	San Lucas Tolimán	7	Julio	2023-08-07T00:00:00	2024-11-08T04:00:00	4	Temperatura máxima	16.9
134355	7	Sololá	713	San Lucas Tolimán	10	San Lucas Tolimán	7	Julio	2023-08-07T00:00:00	2024-11-08T04:00:00	3	Temperatura mínima	16.7
134356	7	Sololá	713	San Lucas Tolimán	10	San Lucas Tolimán	7	Julio	2023-08-07T00:00:00	2024-11-08T04:00:00	5	Humedad	68
134357	7	Sololá	713	San Lucas Tolimán	10	San Lucas Tolimán	7	Julio	2023-08-07T00:00:00	2024-11-08T04:00:00	6	Velocidad del viento	3.2
134358	7	Sololá	713	San Lucas Tolimán	10	San Lucas Tolimán	7	Julio	2023-08-07T00:00:00	2024-11-08T04:00:00	7	Dirección del viento	3.22
134359	7	Sololá	713	San Lucas Tolimán	10	San Lucas Tolimán	7	Julio	2023-08-07T00:00:00	2024-11-08T04:00:00	1	Precipitación	0
134360	7	Sololá	713	San Lucas Tolimán	10	San Lucas Tolimán	7	Julio	2023-08-07T00:00:00	2024-11-08T04:00:00	8	Radiación solar	0
134361	7	Sololá	713	San Lucas Tolimán	10	San Lucas Tolimán	7	Julio	2023-08-07T00:00:00	2024-11-08T05:00:00	2	Temperatura media	16.8
134362	7	Sololá	713	San Lucas Tolimán	10	San Lucas Tolimán	7	Julio	2023-08-07T00:00:00	2024-11-08T05:00:00	4	Temperatura máxima	16.9
134363	7	Sololá	713	San Lucas Tolimán	10	San Lucas Tolimán	7	Julio	2023-08-07T00:00:00	2024-11-08T05:00:00	3	Temperatura mínima	16.7
134364	7	Sololá	713	San Lucas Tolimán	10	San Lucas Tolimán	7	Julio	2023-08-07T00:00:00	2024-11-08T05:00:00	5	Humedad	68
134365	7	Sololá	713	San Lucas Tolimán	10	San Lucas Tolimán	7	Julio	2023-08-07T00:00:00	2024-11-08T05:00:00	6	Velocidad del viento	1.6
134366	7	Sololá	713	San Lucas Tolimán	10	San Lucas Tolimán	7	Julio	2023-08-07T00:00:00	2024-11-08T05:00:00	7	Dirección del viento	1.61
134367	7	Sololá	713	San Lucas Tolimán	10	San Lucas Tolimán	7	Julio	2023-08-07T00:00:00	2024-11-08T05:00:00	1	Precipitación	0
134368	7	Sololá	713	San Lucas Tolimán	10	San Lucas Tolimán	7	Julio	2023-08-07T00:00:00	2024-11-08T05:00:00	8	Radiación solar	0
134369	7	Sololá	713	San Lucas Tolimán	10	San Lucas Tolimán	7	Julio	2023-08-07T00:00:00	2024-11-08T06:00:00	2	Temperatura media	16.6
134370	7	Sololá	713	San Lucas Tolimán	10	San Lucas Tolimán	7	Julio	2023-08-07T00:00:00	2024-11-08T06:00:00	4	Temperatura máxima	16.8
134371	7	Sololá	713	San Lucas Tolimán	10	San Lucas Tolimán	7	Julio	2023-08-07T00:00:00	2024-11-08T06:00:00	3	Temperatura mínima	16.4
134372	7	Sololá	713	San Lucas Tolimán	10	San Lucas Tolimán	7	Julio	2023-08-07T00:00:00	2024-11-08T06:00:00	5	Humedad	68
134373	7	Sololá	713	San Lucas Tolimán	10	San Lucas Tolimán	7	Julio	2023-08-07T00:00:00	2024-11-08T06:00:00	6	Velocidad del viento	1.6
134374	7	Sololá	713	San Lucas Tolimán	10	San Lucas Tolimán	7	Julio	2023-08-07T00:00:00	2024-11-08T06:00:00	7	Dirección del viento	1.61
134375	7	Sololá	713	San Lucas Tolimán	10	San Lucas Tolimán	7	Julio	2023-08-07T00:00:00	2024-11-08T06:00:00	1	Precipitación	0
134376	7	Sololá	713	San Lucas Tolimán	10	San Lucas Tolimán	7	Julio	2023-08-07T00:00:00	2024-11-08T06:00:00	8	Radiación solar	2
134377	7	Sololá	713	San Lucas Tolimán	10	San Lucas Tolimán	7	Julio	2023-08-07T00:00:00	2024-11-08T07:00:00	2	Temperatura media	17.3
134378	7	Sololá	713	San Lucas Tolimán	10	San Lucas Tolimán	7	Julio	2023-08-07T00:00:00	2024-11-08T07:00:00	4	Temperatura máxima	17.3
134379	7	Sololá	713	San Lucas Tolimán	10	San Lucas Tolimán	7	Julio	2023-08-07T00:00:00	2024-11-08T07:00:00	3	Temperatura mínima	16.6
134380	7	Sololá	713	San Lucas Tolimán	10	San Lucas Tolimán	7	Julio	2023-08-07T00:00:00	2024-11-08T07:00:00	5	Humedad	68
134381	7	Sololá	713	San Lucas Tolimán	10	San Lucas Tolimán	7	Julio	2023-08-07T00:00:00	2024-11-08T07:00:00	6	Velocidad del viento	1.6
134382	7	Sololá	713	San Lucas Tolimán	10	San Lucas Tolimán	7	Julio	2023-08-07T00:00:00	2024-11-08T07:00:00	7	Dirección del viento	1.61
134383	7	Sololá	713	San Lucas Tolimán	10	San Lucas Tolimán	7	Julio	2023-08-07T00:00:00	2024-11-08T07:00:00	1	Precipitación	0
134384	7	Sololá	713	San Lucas Tolimán	10	San Lucas Tolimán	7	Julio	2023-08-07T00:00:00	2024-11-08T07:00:00	8	Radiación solar	62
134385	7	Sololá	713	San Lucas Tolimán	10	San Lucas Tolimán	7	Julio	2023-08-07T00:00:00	2024-11-08T08:00:00	2	Temperatura media	18
134386	7	Sololá	713	San Lucas Tolimán	10	San Lucas Tolimán	7	Julio	2023-08-07T00:00:00	2024-11-08T08:00:00	4	Temperatura máxima	18
134387	7	Sololá	713	San Lucas Tolimán	10	San Lucas Tolimán	7	Julio	2023-08-07T00:00:00	2024-11-08T08:00:00	3	Temperatura mínima	17.2
134388	7	Sololá	713	San Lucas Tolimán	10	San Lucas Tolimán	7	Julio	2023-08-07T00:00:00	2024-11-08T08:00:00	5	Humedad	65
134389	7	Sololá	713	San Lucas Tolimán	10	San Lucas Tolimán	7	Julio	2023-08-07T00:00:00	2024-11-08T08:00:00	6	Velocidad del viento	4.8
134390	7	Sololá	713	San Lucas Tolimán	10	San Lucas Tolimán	7	Julio	2023-08-07T00:00:00	2024-11-08T08:00:00	7	Dirección del viento	4.83
134391	7	Sololá	713	San Lucas Tolimán	10	San Lucas Tolimán	7	Julio	2023-08-07T00:00:00	2024-11-08T08:00:00	1	Precipitación	0
134392	7	Sololá	713	San Lucas Tolimán	10	San Lucas Tolimán	7	Julio	2023-08-07T00:00:00	2024-11-08T08:00:00	8	Radiación solar	139
134393	7	Sololá	713	San Lucas Tolimán	10	San Lucas Tolimán	7	Julio	2023-08-07T00:00:00	2024-11-08T09:00:00	2	Temperatura media	19.3
134394	7	Sololá	713	San Lucas Tolimán	10	San Lucas Tolimán	7	Julio	2023-08-07T00:00:00	2024-11-08T09:00:00	4	Temperatura máxima	19.3
134395	7	Sololá	713	San Lucas Tolimán	10	San Lucas Tolimán	7	Julio	2023-08-07T00:00:00	2024-11-08T09:00:00	3	Temperatura mínima	18
134396	7	Sololá	713	San Lucas Tolimán	10	San Lucas Tolimán	7	Julio	2023-08-07T00:00:00	2024-11-08T09:00:00	5	Humedad	62
134397	7	Sololá	713	San Lucas Tolimán	10	San Lucas Tolimán	7	Julio	2023-08-07T00:00:00	2024-11-08T09:00:00	6	Velocidad del viento	3.2
134398	7	Sololá	713	San Lucas Tolimán	10	San Lucas Tolimán	7	Julio	2023-08-07T00:00:00	2024-11-08T09:00:00	7	Dirección del viento	3.22
134399	7	Sololá	713	San Lucas Tolimán	10	San Lucas Tolimán	7	Julio	2023-08-07T00:00:00	2024-11-08T09:00:00	1	Precipitación	0
134400	7	Sololá	713	San Lucas Tolimán	10	San Lucas Tolimán	7	Julio	2023-08-07T00:00:00	2024-11-08T09:00:00	8	Radiación solar	260
134401	7	Sololá	713	San Lucas Tolimán	10	San Lucas Tolimán	7	Julio	2023-08-07T00:00:00	2024-11-08T10:00:00	2	Temperatura media	20.8
134402	7	Sololá	713	San Lucas Tolimán	10	San Lucas Tolimán	7	Julio	2023-08-07T00:00:00	2024-11-08T10:00:00	4	Temperatura máxima	20.8
134403	7	Sololá	713	San Lucas Tolimán	10	San Lucas Tolimán	7	Julio	2023-08-07T00:00:00	2024-11-08T10:00:00	3	Temperatura mínima	19.3
134404	7	Sololá	713	San Lucas Tolimán	10	San Lucas Tolimán	7	Julio	2023-08-07T00:00:00	2024-11-08T10:00:00	5	Humedad	58
134405	7	Sololá	713	San Lucas Tolimán	10	San Lucas Tolimán	7	Julio	2023-08-07T00:00:00	2024-11-08T10:00:00	6	Velocidad del viento	3.2
134406	7	Sololá	713	San Lucas Tolimán	10	San Lucas Tolimán	7	Julio	2023-08-07T00:00:00	2024-11-08T10:00:00	7	Dirección del viento	3.22
134407	7	Sololá	713	San Lucas Tolimán	10	San Lucas Tolimán	7	Julio	2023-08-07T00:00:00	2024-11-08T10:00:00	1	Precipitación	0
134408	7	Sololá	713	San Lucas Tolimán	10	San Lucas Tolimán	7	Julio	2023-08-07T00:00:00	2024-11-08T10:00:00	8	Radiación solar	389
134409	7	Sololá	713	San Lucas Tolimán	10	San Lucas Tolimán	7	Julio	2023-08-07T00:00:00	2024-11-08T11:00:00	2	Temperatura media	20.7
134410	7	Sololá	713	San Lucas Tolimán	10	San Lucas Tolimán	7	Julio	2023-08-07T00:00:00	2024-11-08T11:00:00	4	Temperatura máxima	20.9
134411	7	Sololá	713	San Lucas Tolimán	10	San Lucas Tolimán	7	Julio	2023-08-07T00:00:00	2024-11-08T11:00:00	3	Temperatura mínima	20
134412	7	Sololá	713	San Lucas Tolimán	10	San Lucas Tolimán	7	Julio	2023-08-07T00:00:00	2024-11-08T11:00:00	5	Humedad	81
134413	7	Sololá	713	San Lucas Tolimán	10	San Lucas Tolimán	7	Julio	2023-08-07T00:00:00	2024-11-08T11:00:00	6	Velocidad del viento	8
134414	7	Sololá	713	San Lucas Tolimán	10	San Lucas Tolimán	7	Julio	2023-08-07T00:00:00	2024-11-08T11:00:00	7	Dirección del viento	8.05
134415	7	Sololá	713	San Lucas Tolimán	10	San Lucas Tolimán	7	Julio	2023-08-07T00:00:00	2024-11-08T11:00:00	1	Precipitación	0
134416	7	Sololá	713	San Lucas Tolimán	10	San Lucas Tolimán	7	Julio	2023-08-07T00:00:00	2024-11-08T11:00:00	8	Radiación solar	336
134417	7	Sololá	713	San Lucas Tolimán	10	San Lucas Tolimán	7	Julio	2023-08-07T00:00:00	2024-11-08T12:00:00	2	Temperatura media	22.1
134418	7	Sololá	713	San Lucas Tolimán	10	San Lucas Tolimán	7	Julio	2023-08-07T00:00:00	2024-11-08T12:00:00	4	Temperatura máxima	22.2
134419	7	Sololá	713	San Lucas Tolimán	10	San Lucas Tolimán	7	Julio	2023-08-07T00:00:00	2024-11-08T12:00:00	3	Temperatura mínima	20.7
134420	7	Sololá	713	San Lucas Tolimán	10	San Lucas Tolimán	7	Julio	2023-08-07T00:00:00	2024-11-08T12:00:00	5	Humedad	80
134421	7	Sololá	713	San Lucas Tolimán	10	San Lucas Tolimán	7	Julio	2023-08-07T00:00:00	2024-11-08T12:00:00	6	Velocidad del viento	6.4
134422	7	Sololá	713	San Lucas Tolimán	10	San Lucas Tolimán	7	Julio	2023-08-07T00:00:00	2024-11-08T12:00:00	7	Dirección del viento	6.44
134423	7	Sololá	713	San Lucas Tolimán	10	San Lucas Tolimán	7	Julio	2023-08-07T00:00:00	2024-11-08T12:00:00	1	Precipitación	0
134424	7	Sololá	713	San Lucas Tolimán	10	San Lucas Tolimán	7	Julio	2023-08-07T00:00:00	2024-11-08T12:00:00	8	Radiación solar	974
134425	7	Sololá	713	San Lucas Tolimán	10	San Lucas Tolimán	7	Julio	2023-08-07T00:00:00	2024-11-08T13:00:00	2	Temperatura media	21.8
134426	7	Sololá	713	San Lucas Tolimán	10	San Lucas Tolimán	7	Julio	2023-08-07T00:00:00	2024-11-08T13:00:00	4	Temperatura máxima	22.3
134427	7	Sololá	713	San Lucas Tolimán	10	San Lucas Tolimán	7	Julio	2023-08-07T00:00:00	2024-11-08T13:00:00	3	Temperatura mínima	21.5
134428	7	Sololá	713	San Lucas Tolimán	10	San Lucas Tolimán	7	Julio	2023-08-07T00:00:00	2024-11-08T13:00:00	5	Humedad	82
134429	7	Sololá	713	San Lucas Tolimán	10	San Lucas Tolimán	7	Julio	2023-08-07T00:00:00	2024-11-08T13:00:00	6	Velocidad del viento	8
134430	7	Sololá	713	San Lucas Tolimán	10	San Lucas Tolimán	7	Julio	2023-08-07T00:00:00	2024-11-08T13:00:00	7	Dirección del viento	8.05
134431	7	Sololá	713	San Lucas Tolimán	10	San Lucas Tolimán	7	Julio	2023-08-07T00:00:00	2024-11-08T13:00:00	1	Precipitación	0
134432	7	Sololá	713	San Lucas Tolimán	10	San Lucas Tolimán	7	Julio	2023-08-07T00:00:00	2024-11-08T13:00:00	8	Radiación solar	888
134433	7	Sololá	713	San Lucas Tolimán	10	San Lucas Tolimán	7	Julio	2023-08-07T00:00:00	2024-11-08T14:00:00	2	Temperatura media	18.9
134434	7	Sololá	713	San Lucas Tolimán	10	San Lucas Tolimán	7	Julio	2023-08-07T00:00:00	2024-11-08T14:00:00	4	Temperatura máxima	21.9
134435	7	Sololá	713	San Lucas Tolimán	10	San Lucas Tolimán	7	Julio	2023-08-07T00:00:00	2024-11-08T14:00:00	3	Temperatura mínima	18.9
134436	7	Sololá	713	San Lucas Tolimán	10	San Lucas Tolimán	7	Julio	2023-08-07T00:00:00	2024-11-08T14:00:00	5	Humedad	92
134437	7	Sololá	713	San Lucas Tolimán	10	San Lucas Tolimán	7	Julio	2023-08-07T00:00:00	2024-11-08T14:00:00	6	Velocidad del viento	8
134438	7	Sololá	713	San Lucas Tolimán	10	San Lucas Tolimán	7	Julio	2023-08-07T00:00:00	2024-11-08T14:00:00	7	Dirección del viento	8.05
134439	7	Sololá	713	San Lucas Tolimán	10	San Lucas Tolimán	7	Julio	2023-08-07T00:00:00	2024-11-08T14:00:00	1	Precipitación	5.2
134440	7	Sololá	713	San Lucas Tolimán	10	San Lucas Tolimán	7	Julio	2023-08-07T00:00:00	2024-11-08T14:00:00	8	Radiación solar	783
134441	7	Sololá	713	San Lucas Tolimán	10	San Lucas Tolimán	7	Julio	2023-08-07T00:00:00	2024-11-08T15:00:00	2	Temperatura media	18.6
134442	7	Sololá	713	San Lucas Tolimán	10	San Lucas Tolimán	7	Julio	2023-08-07T00:00:00	2024-11-08T15:00:00	4	Temperatura máxima	19.1
134443	7	Sololá	713	San Lucas Tolimán	10	San Lucas Tolimán	7	Julio	2023-08-07T00:00:00	2024-11-08T15:00:00	3	Temperatura mínima	18.6
134444	7	Sololá	713	San Lucas Tolimán	10	San Lucas Tolimán	7	Julio	2023-08-07T00:00:00	2024-11-08T15:00:00	5	Humedad	93
134445	7	Sololá	713	San Lucas Tolimán	10	San Lucas Tolimán	7	Julio	2023-08-07T00:00:00	2024-11-08T15:00:00	6	Velocidad del viento	8
134446	7	Sololá	713	San Lucas Tolimán	10	San Lucas Tolimán	7	Julio	2023-08-07T00:00:00	2024-11-08T15:00:00	7	Dirección del viento	8.05
134447	7	Sololá	713	San Lucas Tolimán	10	San Lucas Tolimán	7	Julio	2023-08-07T00:00:00	2024-11-08T15:00:00	1	Precipitación	3.4
134448	7	Sololá	713	San Lucas Tolimán	10	San Lucas Tolimán	7	Julio	2023-08-07T00:00:00	2024-11-08T15:00:00	8	Radiación solar	661
134449	7	Sololá	713	San Lucas Tolimán	10	San Lucas Tolimán	7	Julio	2023-08-07T00:00:00	2024-11-08T16:00:00	2	Temperatura media	17.8
134450	7	Sololá	713	San Lucas Tolimán	10	San Lucas Tolimán	7	Julio	2023-08-07T00:00:00	2024-11-08T16:00:00	4	Temperatura máxima	18.7
134451	7	Sololá	713	San Lucas Tolimán	10	San Lucas Tolimán	7	Julio	2023-08-07T00:00:00	2024-11-08T16:00:00	3	Temperatura mínima	17.8
134452	7	Sololá	713	San Lucas Tolimán	10	San Lucas Tolimán	7	Julio	2023-08-07T00:00:00	2024-11-08T16:00:00	5	Humedad	94
134453	7	Sololá	713	San Lucas Tolimán	10	San Lucas Tolimán	7	Julio	2023-08-07T00:00:00	2024-11-08T16:00:00	6	Velocidad del viento	3.2
134454	7	Sololá	713	San Lucas Tolimán	10	San Lucas Tolimán	7	Julio	2023-08-07T00:00:00	2024-11-08T16:00:00	7	Dirección del viento	3.22
134455	7	Sololá	713	San Lucas Tolimán	10	San Lucas Tolimán	7	Julio	2023-08-07T00:00:00	2024-11-08T16:00:00	1	Precipitación	5.4
134456	7	Sololá	713	San Lucas Tolimán	10	San Lucas Tolimán	7	Julio	2023-08-07T00:00:00	2024-11-08T16:00:00	8	Radiación solar	627
134457	7	Sololá	713	San Lucas Tolimán	10	San Lucas Tolimán	7	Julio	2023-08-07T00:00:00	2024-11-08T17:00:00	2	Temperatura media	17.4
134458	7	Sololá	713	San Lucas Tolimán	10	San Lucas Tolimán	7	Julio	2023-08-07T00:00:00	2024-11-08T17:00:00	4	Temperatura máxima	17.8
134459	7	Sololá	713	San Lucas Tolimán	10	San Lucas Tolimán	7	Julio	2023-08-07T00:00:00	2024-11-08T17:00:00	3	Temperatura mínima	17.4
134460	7	Sololá	713	San Lucas Tolimán	10	San Lucas Tolimán	7	Julio	2023-08-07T00:00:00	2024-11-08T17:00:00	5	Humedad	95
134461	7	Sololá	713	San Lucas Tolimán	10	San Lucas Tolimán	7	Julio	2023-08-07T00:00:00	2024-11-08T17:00:00	6	Velocidad del viento	6.4
134462	7	Sololá	713	San Lucas Tolimán	10	San Lucas Tolimán	7	Julio	2023-08-07T00:00:00	2024-11-08T17:00:00	7	Dirección del viento	6.44
134463	7	Sololá	713	San Lucas Tolimán	10	San Lucas Tolimán	7	Julio	2023-08-07T00:00:00	2024-11-08T17:00:00	1	Precipitación	9.8
134464	7	Sololá	713	San Lucas Tolimán	10	San Lucas Tolimán	7	Julio	2023-08-07T00:00:00	2024-11-08T17:00:00	8	Radiación solar	62
134465	7	Sololá	713	San Lucas Tolimán	10	San Lucas Tolimán	7	Julio	2023-08-07T00:00:00	2024-11-08T18:00:00	2	Temperatura media	17.6
134466	7	Sololá	713	San Lucas Tolimán	10	San Lucas Tolimán	7	Julio	2023-08-07T00:00:00	2024-11-08T18:00:00	4	Temperatura máxima	17.6
134467	7	Sololá	713	San Lucas Tolimán	10	San Lucas Tolimán	7	Julio	2023-08-07T00:00:00	2024-11-08T18:00:00	3	Temperatura mínima	17.3
134468	7	Sololá	713	San Lucas Tolimán	10	San Lucas Tolimán	7	Julio	2023-08-07T00:00:00	2024-11-08T18:00:00	5	Humedad	95
134469	7	Sololá	713	San Lucas Tolimán	10	San Lucas Tolimán	7	Julio	2023-08-07T00:00:00	2024-11-08T18:00:00	6	Velocidad del viento	3.2
134470	7	Sololá	713	San Lucas Tolimán	10	San Lucas Tolimán	7	Julio	2023-08-07T00:00:00	2024-11-08T18:00:00	7	Dirección del viento	3.22
134471	7	Sololá	713	San Lucas Tolimán	10	San Lucas Tolimán	7	Julio	2023-08-07T00:00:00	2024-11-08T18:00:00	1	Precipitación	0.2
134472	7	Sololá	713	San Lucas Tolimán	10	San Lucas Tolimán	7	Julio	2023-08-07T00:00:00	2024-11-08T18:00:00	8	Radiación solar	16
134473	7	Sololá	713	San Lucas Tolimán	10	San Lucas Tolimán	7	Julio	2023-08-07T00:00:00	2024-11-08T19:00:00	2	Temperatura media	17.7
134474	7	Sololá	713	San Lucas Tolimán	10	San Lucas Tolimán	7	Julio	2023-08-07T00:00:00	2024-11-08T19:00:00	4	Temperatura máxima	17.8
134475	7	Sololá	713	San Lucas Tolimán	10	San Lucas Tolimán	7	Julio	2023-08-07T00:00:00	2024-11-08T19:00:00	3	Temperatura mínima	17.6
134476	7	Sololá	713	San Lucas Tolimán	10	San Lucas Tolimán	7	Julio	2023-08-07T00:00:00	2024-11-08T19:00:00	5	Humedad	94
134477	7	Sololá	713	San Lucas Tolimán	10	San Lucas Tolimán	7	Julio	2023-08-07T00:00:00	2024-11-08T19:00:00	6	Velocidad del viento	1.6
134478	7	Sololá	713	San Lucas Tolimán	10	San Lucas Tolimán	7	Julio	2023-08-07T00:00:00	2024-11-08T19:00:00	7	Dirección del viento	1.61
134479	7	Sololá	713	San Lucas Tolimán	10	San Lucas Tolimán	7	Julio	2023-08-07T00:00:00	2024-11-08T19:00:00	1	Precipitación	0
134480	7	Sololá	713	San Lucas Tolimán	10	San Lucas Tolimán	7	Julio	2023-08-07T00:00:00	2024-11-08T19:00:00	8	Radiación solar	0
134481	7	Sololá	713	San Lucas Tolimán	10	San Lucas Tolimán	7	Julio	2023-08-07T00:00:00	2024-11-08T20:00:00	2	Temperatura media	18.1
134482	7	Sololá	713	San Lucas Tolimán	10	San Lucas Tolimán	7	Julio	2023-08-07T00:00:00	2024-11-08T20:00:00	4	Temperatura máxima	18.1
134483	7	Sololá	713	San Lucas Tolimán	10	San Lucas Tolimán	7	Julio	2023-08-07T00:00:00	2024-11-08T20:00:00	3	Temperatura mínima	17.7
134484	7	Sololá	713	San Lucas Tolimán	10	San Lucas Tolimán	7	Julio	2023-08-07T00:00:00	2024-11-08T20:00:00	5	Humedad	93
134485	7	Sololá	713	San Lucas Tolimán	10	San Lucas Tolimán	7	Julio	2023-08-07T00:00:00	2024-11-08T20:00:00	6	Velocidad del viento	3.2
134486	7	Sololá	713	San Lucas Tolimán	10	San Lucas Tolimán	7	Julio	2023-08-07T00:00:00	2024-11-08T20:00:00	7	Dirección del viento	3.22
134487	7	Sololá	713	San Lucas Tolimán	10	San Lucas Tolimán	7	Julio	2023-08-07T00:00:00	2024-11-08T20:00:00	1	Precipitación	0
134488	7	Sololá	713	San Lucas Tolimán	10	San Lucas Tolimán	7	Julio	2023-08-07T00:00:00	2024-11-08T20:00:00	8	Radiación solar	0
134489	7	Sololá	713	San Lucas Tolimán	10	San Lucas Tolimán	7	Julio	2023-08-07T00:00:00	2024-11-08T21:00:00	2	Temperatura media	18.1
134490	7	Sololá	713	San Lucas Tolimán	10	San Lucas Tolimán	7	Julio	2023-08-07T00:00:00	2024-11-08T21:00:00	4	Temperatura máxima	18.2
134491	7	Sololá	713	San Lucas Tolimán	10	San Lucas Tolimán	7	Julio	2023-08-07T00:00:00	2024-11-08T21:00:00	3	Temperatura mínima	18.1
134492	7	Sololá	713	San Lucas Tolimán	10	San Lucas Tolimán	7	Julio	2023-08-07T00:00:00	2024-11-08T21:00:00	5	Humedad	93
134493	7	Sololá	713	San Lucas Tolimán	10	San Lucas Tolimán	7	Julio	2023-08-07T00:00:00	2024-11-08T21:00:00	6	Velocidad del viento	1.6
134494	7	Sololá	713	San Lucas Tolimán	10	San Lucas Tolimán	7	Julio	2023-08-07T00:00:00	2024-11-08T21:00:00	7	Dirección del viento	1.61
134495	7	Sololá	713	San Lucas Tolimán	10	San Lucas Tolimán	7	Julio	2023-08-07T00:00:00	2024-11-08T21:00:00	1	Precipitación	0
134496	7	Sololá	713	San Lucas Tolimán	10	San Lucas Tolimán	7	Julio	2023-08-07T00:00:00	2024-11-08T21:00:00	8	Radiación solar	0
134497	7	Sololá	713	San Lucas Tolimán	10	San Lucas Tolimán	7	Julio	2023-08-07T00:00:00	2024-11-08T22:00:00	2	Temperatura media	16.6
134498	7	Sololá	713	San Lucas Tolimán	10	San Lucas Tolimán	7	Julio	2023-08-07T00:00:00	2024-11-08T22:00:00	4	Temperatura máxima	18.1
134499	7	Sololá	713	San Lucas Tolimán	10	San Lucas Tolimán	7	Julio	2023-08-07T00:00:00	2024-11-08T22:00:00	3	Temperatura mínima	16.6
134500	7	Sololá	713	San Lucas Tolimán	10	San Lucas Tolimán	7	Julio	2023-08-07T00:00:00	2024-11-08T22:00:00	5	Humedad	94
134501	7	Sololá	713	San Lucas Tolimán	10	San Lucas Tolimán	7	Julio	2023-08-07T00:00:00	2024-11-08T22:00:00	6	Velocidad del viento	1.6
134502	7	Sololá	713	San Lucas Tolimán	10	San Lucas Tolimán	7	Julio	2023-08-07T00:00:00	2024-11-08T22:00:00	7	Dirección del viento	1.61
134503	7	Sololá	713	San Lucas Tolimán	10	San Lucas Tolimán	7	Julio	2023-08-07T00:00:00	2024-11-08T22:00:00	1	Precipitación	0
134504	7	Sololá	713	San Lucas Tolimán	10	San Lucas Tolimán	7	Julio	2023-08-07T00:00:00	2024-11-08T22:00:00	8	Radiación solar	0
134505	7	Sololá	713	San Lucas Tolimán	10	San Lucas Tolimán	7	Julio	2023-08-07T00:00:00	2024-11-08T23:00:00	2	Temperatura media	16.2
134506	7	Sololá	713	San Lucas Tolimán	10	San Lucas Tolimán	7	Julio	2023-08-07T00:00:00	2024-11-08T23:00:00	4	Temperatura máxima	16.7
134507	7	Sololá	713	San Lucas Tolimán	10	San Lucas Tolimán	7	Julio	2023-08-07T00:00:00	2024-11-08T23:00:00	3	Temperatura mínima	16.2
134508	7	Sololá	713	San Lucas Tolimán	10	San Lucas Tolimán	7	Julio	2023-08-07T00:00:00	2024-11-08T23:00:00	5	Humedad	95
134509	7	Sololá	713	San Lucas Tolimán	10	San Lucas Tolimán	7	Julio	2023-08-07T00:00:00	2024-11-08T23:00:00	6	Velocidad del viento	3.2
134510	7	Sololá	713	San Lucas Tolimán	10	San Lucas Tolimán	7	Julio	2023-08-07T00:00:00	2024-11-08T23:00:00	7	Dirección del viento	3.22
134511	7	Sololá	713	San Lucas Tolimán	10	San Lucas Tolimán	7	Julio	2023-08-07T00:00:00	2024-11-08T23:00:00	1	Precipitación	0
134512	7	Sololá	713	San Lucas Tolimán	10	San Lucas Tolimán	7	Julio	2023-08-07T00:00:00	2024-11-08T23:00:00	8	Radiación solar	0
134513	7	Sololá	713	San Lucas Tolimán	10	San Lucas Tolimán	7	Julio	2023-09-07T00:00:00	2024-11-08T00:00:00	2	Temperatura media	16.6
134514	7	Sololá	713	San Lucas Tolimán	10	San Lucas Tolimán	7	Julio	2023-09-07T00:00:00	2024-11-08T00:00:00	4	Temperatura máxima	16.6
134515	7	Sololá	713	San Lucas Tolimán	10	San Lucas Tolimán	7	Julio	2023-09-07T00:00:00	2024-11-08T00:00:00	3	Temperatura mínima	16.2
134516	7	Sololá	713	San Lucas Tolimán	10	San Lucas Tolimán	7	Julio	2023-09-07T00:00:00	2024-11-08T00:00:00	5	Humedad	95
134517	7	Sololá	713	San Lucas Tolimán	10	San Lucas Tolimán	7	Julio	2023-09-07T00:00:00	2024-11-08T00:00:00	6	Velocidad del viento	0
134518	7	Sololá	713	San Lucas Tolimán	10	San Lucas Tolimán	7	Julio	2023-09-07T00:00:00	2024-11-08T00:00:00	7	Dirección del viento	0
134519	7	Sololá	713	San Lucas Tolimán	10	San Lucas Tolimán	7	Julio	2023-09-07T00:00:00	2024-11-08T00:00:00	1	Precipitación	0
134520	7	Sololá	713	San Lucas Tolimán	10	San Lucas Tolimán	7	Julio	2023-09-07T00:00:00	2024-11-08T00:00:00	8	Radiación solar	0
134521	7	Sololá	713	San Lucas Tolimán	10	San Lucas Tolimán	7	Julio	2023-09-07T00:00:00	2024-11-08T01:00:00	2	Temperatura media	16.7
134522	7	Sololá	713	San Lucas Tolimán	10	San Lucas Tolimán	7	Julio	2023-09-07T00:00:00	2024-11-08T01:00:00	4	Temperatura máxima	16.7
134523	7	Sololá	713	San Lucas Tolimán	10	San Lucas Tolimán	7	Julio	2023-09-07T00:00:00	2024-11-08T01:00:00	3	Temperatura mínima	16.6
134524	7	Sololá	713	San Lucas Tolimán	10	San Lucas Tolimán	7	Julio	2023-09-07T00:00:00	2024-11-08T01:00:00	5	Humedad	96
134525	7	Sololá	713	San Lucas Tolimán	10	San Lucas Tolimán	7	Julio	2023-09-07T00:00:00	2024-11-08T01:00:00	6	Velocidad del viento	1.6
134526	7	Sololá	713	San Lucas Tolimán	10	San Lucas Tolimán	7	Julio	2023-09-07T00:00:00	2024-11-08T01:00:00	7	Dirección del viento	1.61
134527	7	Sololá	713	San Lucas Tolimán	10	San Lucas Tolimán	7	Julio	2023-09-07T00:00:00	2024-11-08T01:00:00	1	Precipitación	0
134528	7	Sololá	713	San Lucas Tolimán	10	San Lucas Tolimán	7	Julio	2023-09-07T00:00:00	2024-11-08T01:00:00	8	Radiación solar	0
134529	7	Sololá	713	San Lucas Tolimán	10	San Lucas Tolimán	7	Julio	2023-09-07T00:00:00	2024-11-08T02:00:00	2	Temperatura media	16.6
134530	7	Sololá	713	San Lucas Tolimán	10	San Lucas Tolimán	7	Julio	2023-09-07T00:00:00	2024-11-08T02:00:00	4	Temperatura máxima	16.7
134531	7	Sololá	713	San Lucas Tolimán	10	San Lucas Tolimán	7	Julio	2023-09-07T00:00:00	2024-11-08T02:00:00	3	Temperatura mínima	16.6
134532	7	Sololá	713	San Lucas Tolimán	10	San Lucas Tolimán	7	Julio	2023-09-07T00:00:00	2024-11-08T02:00:00	5	Humedad	95
134533	7	Sololá	713	San Lucas Tolimán	10	San Lucas Tolimán	7	Julio	2023-09-07T00:00:00	2024-11-08T02:00:00	6	Velocidad del viento	1.6
134534	7	Sololá	713	San Lucas Tolimán	10	San Lucas Tolimán	7	Julio	2023-09-07T00:00:00	2024-11-08T02:00:00	7	Dirección del viento	1.61
134535	7	Sololá	713	San Lucas Tolimán	10	San Lucas Tolimán	7	Julio	2023-09-07T00:00:00	2024-11-08T02:00:00	1	Precipitación	0
134536	7	Sololá	713	San Lucas Tolimán	10	San Lucas Tolimán	7	Julio	2023-09-07T00:00:00	2024-11-08T02:00:00	8	Radiación solar	0
134537	7	Sololá	713	San Lucas Tolimán	10	San Lucas Tolimán	7	Julio	2023-09-07T00:00:00	2024-11-08T03:00:00	2	Temperatura media	16.3
134538	7	Sololá	713	San Lucas Tolimán	10	San Lucas Tolimán	7	Julio	2023-09-07T00:00:00	2024-11-08T03:00:00	4	Temperatura máxima	16.6
134539	7	Sololá	713	San Lucas Tolimán	10	San Lucas Tolimán	7	Julio	2023-09-07T00:00:00	2024-11-08T03:00:00	3	Temperatura mínima	16.3
134540	7	Sololá	713	San Lucas Tolimán	10	San Lucas Tolimán	7	Julio	2023-09-07T00:00:00	2024-11-08T03:00:00	5	Humedad	95
134541	7	Sololá	713	San Lucas Tolimán	10	San Lucas Tolimán	7	Julio	2023-09-07T00:00:00	2024-11-08T03:00:00	6	Velocidad del viento	1.6
134542	7	Sololá	713	San Lucas Tolimán	10	San Lucas Tolimán	7	Julio	2023-09-07T00:00:00	2024-11-08T03:00:00	7	Dirección del viento	1.61
134543	7	Sololá	713	San Lucas Tolimán	10	San Lucas Tolimán	7	Julio	2023-09-07T00:00:00	2024-11-08T03:00:00	1	Precipitación	0
134544	7	Sololá	713	San Lucas Tolimán	10	San Lucas Tolimán	7	Julio	2023-09-07T00:00:00	2024-11-08T03:00:00	8	Radiación solar	0
134545	7	Sololá	713	San Lucas Tolimán	10	San Lucas Tolimán	7	Julio	2023-09-07T00:00:00	2024-11-08T04:00:00	2	Temperatura media	16.8
134546	7	Sololá	713	San Lucas Tolimán	10	San Lucas Tolimán	7	Julio	2023-09-07T00:00:00	2024-11-08T04:00:00	4	Temperatura máxima	16.8
134547	7	Sololá	713	San Lucas Tolimán	10	San Lucas Tolimán	7	Julio	2023-09-07T00:00:00	2024-11-08T04:00:00	3	Temperatura mínima	16.3
134548	7	Sololá	713	San Lucas Tolimán	10	San Lucas Tolimán	7	Julio	2023-09-07T00:00:00	2024-11-08T04:00:00	5	Humedad	96
134549	7	Sololá	713	San Lucas Tolimán	10	San Lucas Tolimán	7	Julio	2023-09-07T00:00:00	2024-11-08T04:00:00	6	Velocidad del viento	1.6
134550	7	Sololá	713	San Lucas Tolimán	10	San Lucas Tolimán	7	Julio	2023-09-07T00:00:00	2024-11-08T04:00:00	7	Dirección del viento	1.61
134551	7	Sololá	713	San Lucas Tolimán	10	San Lucas Tolimán	7	Julio	2023-09-07T00:00:00	2024-11-08T04:00:00	1	Precipitación	0
134552	7	Sololá	713	San Lucas Tolimán	10	San Lucas Tolimán	7	Julio	2023-09-07T00:00:00	2024-11-08T04:00:00	8	Radiación solar	0
134553	7	Sololá	713	San Lucas Tolimán	10	San Lucas Tolimán	7	Julio	2023-09-07T00:00:00	2024-11-08T05:00:00	2	Temperatura media	17.3
134554	7	Sololá	713	San Lucas Tolimán	10	San Lucas Tolimán	7	Julio	2023-09-07T00:00:00	2024-11-08T05:00:00	4	Temperatura máxima	17.3
134555	7	Sololá	713	San Lucas Tolimán	10	San Lucas Tolimán	7	Julio	2023-09-07T00:00:00	2024-11-08T05:00:00	3	Temperatura mínima	16.8
134556	7	Sololá	713	San Lucas Tolimán	10	San Lucas Tolimán	7	Julio	2023-09-07T00:00:00	2024-11-08T05:00:00	5	Humedad	67
134557	7	Sololá	713	San Lucas Tolimán	10	San Lucas Tolimán	7	Julio	2023-09-07T00:00:00	2024-11-08T05:00:00	6	Velocidad del viento	1.6
134558	7	Sololá	713	San Lucas Tolimán	10	San Lucas Tolimán	7	Julio	2023-09-07T00:00:00	2024-11-08T05:00:00	7	Dirección del viento	1.61
134559	7	Sololá	713	San Lucas Tolimán	10	San Lucas Tolimán	7	Julio	2023-09-07T00:00:00	2024-11-08T05:00:00	1	Precipitación	0
134560	7	Sololá	713	San Lucas Tolimán	10	San Lucas Tolimán	7	Julio	2023-09-07T00:00:00	2024-11-08T05:00:00	8	Radiación solar	0
134561	7	Sololá	713	San Lucas Tolimán	10	San Lucas Tolimán	7	Julio	2023-09-07T00:00:00	2024-11-08T06:00:00	2	Temperatura media	16.5
134562	7	Sololá	713	San Lucas Tolimán	10	San Lucas Tolimán	7	Julio	2023-09-07T00:00:00	2024-11-08T06:00:00	4	Temperatura máxima	17.3
134563	7	Sololá	713	San Lucas Tolimán	10	San Lucas Tolimán	7	Julio	2023-09-07T00:00:00	2024-11-08T06:00:00	3	Temperatura mínima	16.5
134564	7	Sololá	713	San Lucas Tolimán	10	San Lucas Tolimán	7	Julio	2023-09-07T00:00:00	2024-11-08T06:00:00	5	Humedad	67
134565	7	Sololá	713	San Lucas Tolimán	10	San Lucas Tolimán	7	Julio	2023-09-07T00:00:00	2024-11-08T06:00:00	6	Velocidad del viento	1.6
134566	7	Sololá	713	San Lucas Tolimán	10	San Lucas Tolimán	7	Julio	2023-09-07T00:00:00	2024-11-08T06:00:00	7	Dirección del viento	1.61
134567	7	Sololá	713	San Lucas Tolimán	10	San Lucas Tolimán	7	Julio	2023-09-07T00:00:00	2024-11-08T06:00:00	1	Precipitación	0
134568	7	Sololá	713	San Lucas Tolimán	10	San Lucas Tolimán	7	Julio	2023-09-07T00:00:00	2024-11-08T06:00:00	8	Radiación solar	3
134569	7	Sololá	713	San Lucas Tolimán	10	San Lucas Tolimán	7	Julio	2023-09-07T00:00:00	2024-11-08T07:00:00	2	Temperatura media	17.7
134570	7	Sololá	713	San Lucas Tolimán	10	San Lucas Tolimán	7	Julio	2023-09-07T00:00:00	2024-11-08T07:00:00	4	Temperatura máxima	17.7
134571	7	Sololá	713	San Lucas Tolimán	10	San Lucas Tolimán	7	Julio	2023-09-07T00:00:00	2024-11-08T07:00:00	3	Temperatura mínima	16.3
134572	7	Sololá	713	San Lucas Tolimán	10	San Lucas Tolimán	7	Julio	2023-09-07T00:00:00	2024-11-08T07:00:00	5	Humedad	68
134573	7	Sololá	713	San Lucas Tolimán	10	San Lucas Tolimán	7	Julio	2023-09-07T00:00:00	2024-11-08T07:00:00	6	Velocidad del viento	0
134574	7	Sololá	713	San Lucas Tolimán	10	San Lucas Tolimán	7	Julio	2023-09-07T00:00:00	2024-11-08T07:00:00	7	Dirección del viento	0
134575	7	Sololá	713	San Lucas Tolimán	10	San Lucas Tolimán	7	Julio	2023-09-07T00:00:00	2024-11-08T07:00:00	1	Precipitación	0
134576	7	Sololá	713	San Lucas Tolimán	10	San Lucas Tolimán	7	Julio	2023-09-07T00:00:00	2024-11-08T07:00:00	8	Radiación solar	96
134577	7	Sololá	713	San Lucas Tolimán	10	San Lucas Tolimán	7	Julio	2023-09-07T00:00:00	2024-11-08T08:00:00	2	Temperatura media	20.1
134578	7	Sololá	713	San Lucas Tolimán	10	San Lucas Tolimán	7	Julio	2023-09-07T00:00:00	2024-11-08T08:00:00	4	Temperatura máxima	20.1
134579	7	Sololá	713	San Lucas Tolimán	10	San Lucas Tolimán	7	Julio	2023-09-07T00:00:00	2024-11-08T08:00:00	3	Temperatura mínima	17.7
134580	7	Sololá	713	San Lucas Tolimán	10	San Lucas Tolimán	7	Julio	2023-09-07T00:00:00	2024-11-08T08:00:00	5	Humedad	62
134581	7	Sololá	713	San Lucas Tolimán	10	San Lucas Tolimán	7	Julio	2023-09-07T00:00:00	2024-11-08T08:00:00	6	Velocidad del viento	1.6
134582	7	Sololá	713	San Lucas Tolimán	10	San Lucas Tolimán	7	Julio	2023-09-07T00:00:00	2024-11-08T08:00:00	7	Dirección del viento	1.61
134583	7	Sololá	713	San Lucas Tolimán	10	San Lucas Tolimán	7	Julio	2023-09-07T00:00:00	2024-11-08T08:00:00	1	Precipitación	0
134584	7	Sololá	713	San Lucas Tolimán	10	San Lucas Tolimán	7	Julio	2023-09-07T00:00:00	2024-11-08T08:00:00	8	Radiación solar	272
134585	7	Sololá	713	San Lucas Tolimán	10	San Lucas Tolimán	7	Julio	2023-09-07T00:00:00	2024-11-08T09:00:00	2	Temperatura media	21.4
134586	7	Sololá	713	San Lucas Tolimán	10	San Lucas Tolimán	7	Julio	2023-09-07T00:00:00	2024-11-08T09:00:00	4	Temperatura máxima	21.4
134587	7	Sololá	713	San Lucas Tolimán	10	San Lucas Tolimán	7	Julio	2023-09-07T00:00:00	2024-11-08T09:00:00	3	Temperatura mínima	20.1
134588	7	Sololá	713	San Lucas Tolimán	10	San Lucas Tolimán	7	Julio	2023-09-07T00:00:00	2024-11-08T09:00:00	5	Humedad	56
134589	7	Sololá	713	San Lucas Tolimán	10	San Lucas Tolimán	7	Julio	2023-09-07T00:00:00	2024-11-08T09:00:00	6	Velocidad del viento	8
134590	7	Sololá	713	San Lucas Tolimán	10	San Lucas Tolimán	7	Julio	2023-09-07T00:00:00	2024-11-08T09:00:00	7	Dirección del viento	8.05
134591	7	Sololá	713	San Lucas Tolimán	10	San Lucas Tolimán	7	Julio	2023-09-07T00:00:00	2024-11-08T09:00:00	1	Precipitación	0
134592	7	Sololá	713	San Lucas Tolimán	10	San Lucas Tolimán	7	Julio	2023-09-07T00:00:00	2024-11-08T09:00:00	8	Radiación solar	563
134593	7	Sololá	713	San Lucas Tolimán	10	San Lucas Tolimán	7	Julio	2023-09-07T00:00:00	2024-11-08T10:00:00	2	Temperatura media	22
134594	7	Sololá	713	San Lucas Tolimán	10	San Lucas Tolimán	7	Julio	2023-09-07T00:00:00	2024-11-08T10:00:00	4	Temperatura máxima	23.1
134595	7	Sololá	713	San Lucas Tolimán	10	San Lucas Tolimán	7	Julio	2023-09-07T00:00:00	2024-11-08T10:00:00	3	Temperatura mínima	21.4
134596	7	Sololá	713	San Lucas Tolimán	10	San Lucas Tolimán	7	Julio	2023-09-07T00:00:00	2024-11-08T10:00:00	5	Humedad	79
134597	7	Sololá	713	San Lucas Tolimán	10	San Lucas Tolimán	7	Julio	2023-09-07T00:00:00	2024-11-08T10:00:00	6	Velocidad del viento	8
134598	7	Sololá	713	San Lucas Tolimán	10	San Lucas Tolimán	7	Julio	2023-09-07T00:00:00	2024-11-08T10:00:00	7	Dirección del viento	8.05
134599	7	Sololá	713	San Lucas Tolimán	10	San Lucas Tolimán	7	Julio	2023-09-07T00:00:00	2024-11-08T10:00:00	1	Precipitación	0
134600	7	Sololá	713	San Lucas Tolimán	10	San Lucas Tolimán	7	Julio	2023-09-07T00:00:00	2024-11-08T10:00:00	8	Radiación solar	712
134601	7	Sololá	713	San Lucas Tolimán	10	San Lucas Tolimán	7	Julio	2023-09-07T00:00:00	2024-11-08T11:00:00	2	Temperatura media	22.7
134602	7	Sololá	713	San Lucas Tolimán	10	San Lucas Tolimán	7	Julio	2023-09-07T00:00:00	2024-11-08T11:00:00	4	Temperatura máxima	22.7
134603	7	Sololá	713	San Lucas Tolimán	10	San Lucas Tolimán	7	Julio	2023-09-07T00:00:00	2024-11-08T11:00:00	3	Temperatura mínima	21.4
134604	7	Sololá	713	San Lucas Tolimán	10	San Lucas Tolimán	7	Julio	2023-09-07T00:00:00	2024-11-08T11:00:00	5	Humedad	79
134605	7	Sololá	713	San Lucas Tolimán	10	San Lucas Tolimán	7	Julio	2023-09-07T00:00:00	2024-11-08T11:00:00	6	Velocidad del viento	8
134606	7	Sololá	713	San Lucas Tolimán	10	San Lucas Tolimán	7	Julio	2023-09-07T00:00:00	2024-11-08T11:00:00	7	Dirección del viento	8.05
134607	7	Sololá	713	San Lucas Tolimán	10	San Lucas Tolimán	7	Julio	2023-09-07T00:00:00	2024-11-08T11:00:00	1	Precipitación	0
134608	7	Sololá	713	San Lucas Tolimán	10	San Lucas Tolimán	7	Julio	2023-09-07T00:00:00	2024-11-08T11:00:00	8	Radiación solar	854
134609	7	Sololá	713	San Lucas Tolimán	10	San Lucas Tolimán	7	Julio	2023-09-07T00:00:00	2024-11-08T12:00:00	2	Temperatura media	24.4
134610	7	Sololá	713	San Lucas Tolimán	10	San Lucas Tolimán	7	Julio	2023-09-07T00:00:00	2024-11-08T12:00:00	4	Temperatura máxima	24.4
134611	7	Sololá	713	San Lucas Tolimán	10	San Lucas Tolimán	7	Julio	2023-09-07T00:00:00	2024-11-08T12:00:00	3	Temperatura mínima	22.6
134612	7	Sololá	713	San Lucas Tolimán	10	San Lucas Tolimán	7	Julio	2023-09-07T00:00:00	2024-11-08T12:00:00	5	Humedad	67
134613	7	Sololá	713	San Lucas Tolimán	10	San Lucas Tolimán	7	Julio	2023-09-07T00:00:00	2024-11-08T12:00:00	6	Velocidad del viento	3.2
134614	7	Sololá	713	San Lucas Tolimán	10	San Lucas Tolimán	7	Julio	2023-09-07T00:00:00	2024-11-08T12:00:00	7	Dirección del viento	3.22
134615	7	Sololá	713	San Lucas Tolimán	10	San Lucas Tolimán	7	Julio	2023-09-07T00:00:00	2024-11-08T12:00:00	1	Precipitación	0
134616	7	Sololá	713	San Lucas Tolimán	10	San Lucas Tolimán	7	Julio	2023-09-07T00:00:00	2024-11-08T12:00:00	8	Radiación solar	973
134617	7	Sololá	713	San Lucas Tolimán	10	San Lucas Tolimán	7	Julio	2023-09-07T00:00:00	2024-11-08T13:00:00	2	Temperatura media	23.8
134618	7	Sololá	713	San Lucas Tolimán	10	San Lucas Tolimán	7	Julio	2023-09-07T00:00:00	2024-11-08T13:00:00	4	Temperatura máxima	26.5
134619	7	Sololá	713	San Lucas Tolimán	10	San Lucas Tolimán	7	Julio	2023-09-07T00:00:00	2024-11-08T13:00:00	3	Temperatura mínima	23.8
134620	7	Sololá	713	San Lucas Tolimán	10	San Lucas Tolimán	7	Julio	2023-09-07T00:00:00	2024-11-08T13:00:00	5	Humedad	80
134621	7	Sololá	713	San Lucas Tolimán	10	San Lucas Tolimán	7	Julio	2023-09-07T00:00:00	2024-11-08T13:00:00	6	Velocidad del viento	8
134622	7	Sololá	713	San Lucas Tolimán	10	San Lucas Tolimán	7	Julio	2023-09-07T00:00:00	2024-11-08T13:00:00	7	Dirección del viento	8.05
134623	7	Sololá	713	San Lucas Tolimán	10	San Lucas Tolimán	7	Julio	2023-09-07T00:00:00	2024-11-08T13:00:00	1	Precipitación	0
134624	7	Sololá	713	San Lucas Tolimán	10	San Lucas Tolimán	7	Julio	2023-09-07T00:00:00	2024-11-08T13:00:00	8	Radiación solar	1005
134625	7	Sololá	713	San Lucas Tolimán	10	San Lucas Tolimán	7	Julio	2023-09-07T00:00:00	2024-11-08T14:00:00	2	Temperatura media	22.4
134626	7	Sololá	713	San Lucas Tolimán	10	San Lucas Tolimán	7	Julio	2023-09-07T00:00:00	2024-11-08T14:00:00	4	Temperatura máxima	23.7
134627	7	Sololá	713	San Lucas Tolimán	10	San Lucas Tolimán	7	Julio	2023-09-07T00:00:00	2024-11-08T14:00:00	3	Temperatura mínima	20.8
134628	7	Sololá	713	San Lucas Tolimán	10	San Lucas Tolimán	7	Julio	2023-09-07T00:00:00	2024-11-08T14:00:00	5	Humedad	84
134629	7	Sololá	713	San Lucas Tolimán	10	San Lucas Tolimán	7	Julio	2023-09-07T00:00:00	2024-11-08T14:00:00	6	Velocidad del viento	9.7
134630	7	Sololá	713	San Lucas Tolimán	10	San Lucas Tolimán	7	Julio	2023-09-07T00:00:00	2024-11-08T14:00:00	7	Dirección del viento	9.66
134631	7	Sololá	713	San Lucas Tolimán	10	San Lucas Tolimán	7	Julio	2023-09-07T00:00:00	2024-11-08T14:00:00	1	Precipitación	0
134632	7	Sololá	713	San Lucas Tolimán	10	San Lucas Tolimán	7	Julio	2023-09-07T00:00:00	2024-11-08T14:00:00	8	Radiación solar	997
134633	7	Sololá	713	San Lucas Tolimán	10	San Lucas Tolimán	7	Julio	2023-09-07T00:00:00	2024-11-08T15:00:00	2	Temperatura media	19.8
134634	7	Sololá	713	San Lucas Tolimán	10	San Lucas Tolimán	7	Julio	2023-09-07T00:00:00	2024-11-08T15:00:00	4	Temperatura máxima	22.6
134635	7	Sololá	713	San Lucas Tolimán	10	San Lucas Tolimán	7	Julio	2023-09-07T00:00:00	2024-11-08T15:00:00	3	Temperatura mínima	19.8
134636	7	Sololá	713	San Lucas Tolimán	10	San Lucas Tolimán	7	Julio	2023-09-07T00:00:00	2024-11-08T15:00:00	5	Humedad	92
134637	7	Sololá	713	San Lucas Tolimán	10	San Lucas Tolimán	7	Julio	2023-09-07T00:00:00	2024-11-08T15:00:00	6	Velocidad del viento	9.7
134638	7	Sololá	713	San Lucas Tolimán	10	San Lucas Tolimán	7	Julio	2023-09-07T00:00:00	2024-11-08T15:00:00	7	Dirección del viento	9.66
134639	7	Sololá	713	San Lucas Tolimán	10	San Lucas Tolimán	7	Julio	2023-09-07T00:00:00	2024-11-08T15:00:00	1	Precipitación	4.8
134640	7	Sololá	713	San Lucas Tolimán	10	San Lucas Tolimán	7	Julio	2023-09-07T00:00:00	2024-11-08T15:00:00	8	Radiación solar	872
134641	7	Sololá	713	San Lucas Tolimán	10	San Lucas Tolimán	7	Julio	2023-09-07T00:00:00	2024-11-08T16:00:00	2	Temperatura media	19.6
134642	7	Sololá	713	San Lucas Tolimán	10	San Lucas Tolimán	7	Julio	2023-09-07T00:00:00	2024-11-08T16:00:00	4	Temperatura máxima	19.7
134643	7	Sololá	713	San Lucas Tolimán	10	San Lucas Tolimán	7	Julio	2023-09-07T00:00:00	2024-11-08T16:00:00	3	Temperatura mínima	19.3
134644	7	Sololá	713	San Lucas Tolimán	10	San Lucas Tolimán	7	Julio	2023-09-07T00:00:00	2024-11-08T16:00:00	5	Humedad	92
134645	7	Sololá	713	San Lucas Tolimán	10	San Lucas Tolimán	7	Julio	2023-09-07T00:00:00	2024-11-08T16:00:00	6	Velocidad del viento	4.8
134646	7	Sololá	713	San Lucas Tolimán	10	San Lucas Tolimán	7	Julio	2023-09-07T00:00:00	2024-11-08T16:00:00	7	Dirección del viento	4.83
134647	7	Sololá	713	San Lucas Tolimán	10	San Lucas Tolimán	7	Julio	2023-09-07T00:00:00	2024-11-08T16:00:00	1	Precipitación	0.4
134648	7	Sololá	713	San Lucas Tolimán	10	San Lucas Tolimán	7	Julio	2023-09-07T00:00:00	2024-11-08T16:00:00	8	Radiación solar	492
134649	7	Sololá	713	San Lucas Tolimán	10	San Lucas Tolimán	7	Julio	2023-09-07T00:00:00	2024-11-08T17:00:00	2	Temperatura media	19.4
134650	7	Sololá	713	San Lucas Tolimán	10	San Lucas Tolimán	7	Julio	2023-09-07T00:00:00	2024-11-08T17:00:00	4	Temperatura máxima	19.7
134651	7	Sololá	713	San Lucas Tolimán	10	San Lucas Tolimán	7	Julio	2023-09-07T00:00:00	2024-11-08T17:00:00	3	Temperatura mínima	19.3
134652	7	Sololá	713	San Lucas Tolimán	10	San Lucas Tolimán	7	Julio	2023-09-07T00:00:00	2024-11-08T17:00:00	5	Humedad	91
134653	7	Sololá	713	San Lucas Tolimán	10	San Lucas Tolimán	7	Julio	2023-09-07T00:00:00	2024-11-08T17:00:00	6	Velocidad del viento	0
134654	7	Sololá	713	San Lucas Tolimán	10	San Lucas Tolimán	7	Julio	2023-09-07T00:00:00	2024-11-08T17:00:00	7	Dirección del viento	0
134655	7	Sololá	713	San Lucas Tolimán	10	San Lucas Tolimán	7	Julio	2023-09-07T00:00:00	2024-11-08T17:00:00	1	Precipitación	0.4
134656	7	Sololá	713	San Lucas Tolimán	10	San Lucas Tolimán	7	Julio	2023-09-07T00:00:00	2024-11-08T17:00:00	8	Radiación solar	102
134657	7	Sololá	713	San Lucas Tolimán	10	San Lucas Tolimán	7	Julio	2023-09-07T00:00:00	2024-11-08T18:00:00	2	Temperatura media	19.6
134658	7	Sololá	713	San Lucas Tolimán	10	San Lucas Tolimán	7	Julio	2023-09-07T00:00:00	2024-11-08T18:00:00	4	Temperatura máxima	19.9
134659	7	Sololá	713	San Lucas Tolimán	10	San Lucas Tolimán	7	Julio	2023-09-07T00:00:00	2024-11-08T18:00:00	3	Temperatura mínima	19.4
134660	7	Sololá	713	San Lucas Tolimán	10	San Lucas Tolimán	7	Julio	2023-09-07T00:00:00	2024-11-08T18:00:00	5	Humedad	90
134661	7	Sololá	713	San Lucas Tolimán	10	San Lucas Tolimán	7	Julio	2023-09-07T00:00:00	2024-11-08T18:00:00	6	Velocidad del viento	1.6
134662	7	Sololá	713	San Lucas Tolimán	10	San Lucas Tolimán	7	Julio	2023-09-07T00:00:00	2024-11-08T18:00:00	7	Dirección del viento	1.61
134663	7	Sololá	713	San Lucas Tolimán	10	San Lucas Tolimán	7	Julio	2023-09-07T00:00:00	2024-11-08T18:00:00	1	Precipitación	0
134664	7	Sololá	713	San Lucas Tolimán	10	San Lucas Tolimán	7	Julio	2023-09-07T00:00:00	2024-11-08T18:00:00	8	Radiación solar	43
134665	7	Sololá	713	San Lucas Tolimán	10	San Lucas Tolimán	7	Julio	2023-09-07T00:00:00	2024-11-08T19:00:00	2	Temperatura media	18.3
134666	7	Sololá	713	San Lucas Tolimán	10	San Lucas Tolimán	7	Julio	2023-09-07T00:00:00	2024-11-08T19:00:00	4	Temperatura máxima	19.6
134667	7	Sololá	713	San Lucas Tolimán	10	San Lucas Tolimán	7	Julio	2023-09-07T00:00:00	2024-11-08T19:00:00	3	Temperatura mínima	18.3
134668	7	Sololá	713	San Lucas Tolimán	10	San Lucas Tolimán	7	Julio	2023-09-07T00:00:00	2024-11-08T19:00:00	5	Humedad	93
134669	7	Sololá	713	San Lucas Tolimán	10	San Lucas Tolimán	7	Julio	2023-09-07T00:00:00	2024-11-08T19:00:00	6	Velocidad del viento	3.2
134670	7	Sololá	713	San Lucas Tolimán	10	San Lucas Tolimán	7	Julio	2023-09-07T00:00:00	2024-11-08T19:00:00	7	Dirección del viento	3.22
134671	7	Sololá	713	San Lucas Tolimán	10	San Lucas Tolimán	7	Julio	2023-09-07T00:00:00	2024-11-08T19:00:00	1	Precipitación	0
134672	7	Sololá	713	San Lucas Tolimán	10	San Lucas Tolimán	7	Julio	2023-09-07T00:00:00	2024-11-08T19:00:00	8	Radiación solar	0
134673	7	Sololá	713	San Lucas Tolimán	10	San Lucas Tolimán	7	Julio	2023-09-07T00:00:00	2024-11-08T20:00:00	2	Temperatura media	18.1
134674	7	Sololá	713	San Lucas Tolimán	10	San Lucas Tolimán	7	Julio	2023-09-07T00:00:00	2024-11-08T20:00:00	4	Temperatura máxima	18.4
134675	7	Sololá	713	San Lucas Tolimán	10	San Lucas Tolimán	7	Julio	2023-09-07T00:00:00	2024-11-08T20:00:00	3	Temperatura mínima	18.1
134676	7	Sololá	713	San Lucas Tolimán	10	San Lucas Tolimán	7	Julio	2023-09-07T00:00:00	2024-11-08T20:00:00	5	Humedad	93
134677	7	Sololá	713	San Lucas Tolimán	10	San Lucas Tolimán	7	Julio	2023-09-07T00:00:00	2024-11-08T20:00:00	6	Velocidad del viento	6.4
134678	7	Sololá	713	San Lucas Tolimán	10	San Lucas Tolimán	7	Julio	2023-09-07T00:00:00	2024-11-08T20:00:00	7	Dirección del viento	6.44
134679	7	Sololá	713	San Lucas Tolimán	10	San Lucas Tolimán	7	Julio	2023-09-07T00:00:00	2024-11-08T20:00:00	1	Precipitación	0
134680	7	Sololá	713	San Lucas Tolimán	10	San Lucas Tolimán	7	Julio	2023-09-07T00:00:00	2024-11-08T20:00:00	8	Radiación solar	0
134681	7	Sololá	713	San Lucas Tolimán	10	San Lucas Tolimán	7	Julio	2023-09-07T00:00:00	2024-11-08T21:00:00	2	Temperatura media	17.7
134682	7	Sololá	713	San Lucas Tolimán	10	San Lucas Tolimán	7	Julio	2023-09-07T00:00:00	2024-11-08T21:00:00	4	Temperatura máxima	18.1
134683	7	Sololá	713	San Lucas Tolimán	10	San Lucas Tolimán	7	Julio	2023-09-07T00:00:00	2024-11-08T21:00:00	3	Temperatura mínima	17.6
134684	7	Sololá	713	San Lucas Tolimán	10	San Lucas Tolimán	7	Julio	2023-09-07T00:00:00	2024-11-08T21:00:00	5	Humedad	94
134685	7	Sololá	713	San Lucas Tolimán	10	San Lucas Tolimán	7	Julio	2023-09-07T00:00:00	2024-11-08T21:00:00	6	Velocidad del viento	3.2
134686	7	Sololá	713	San Lucas Tolimán	10	San Lucas Tolimán	7	Julio	2023-09-07T00:00:00	2024-11-08T21:00:00	7	Dirección del viento	3.22
134687	7	Sololá	713	San Lucas Tolimán	10	San Lucas Tolimán	7	Julio	2023-09-07T00:00:00	2024-11-08T21:00:00	1	Precipitación	0
134688	7	Sololá	713	San Lucas Tolimán	10	San Lucas Tolimán	7	Julio	2023-09-07T00:00:00	2024-11-08T21:00:00	8	Radiación solar	0
134689	7	Sololá	713	San Lucas Tolimán	10	San Lucas Tolimán	7	Julio	2023-09-07T00:00:00	2024-11-08T22:00:00	2	Temperatura media	17.9
134690	7	Sololá	713	San Lucas Tolimán	10	San Lucas Tolimán	7	Julio	2023-09-07T00:00:00	2024-11-08T22:00:00	4	Temperatura máxima	18.1
134691	7	Sololá	713	San Lucas Tolimán	10	San Lucas Tolimán	7	Julio	2023-09-07T00:00:00	2024-11-08T22:00:00	3	Temperatura mínima	17.7
134692	7	Sololá	713	San Lucas Tolimán	10	San Lucas Tolimán	7	Julio	2023-09-07T00:00:00	2024-11-08T22:00:00	5	Humedad	93
134693	7	Sololá	713	San Lucas Tolimán	10	San Lucas Tolimán	7	Julio	2023-09-07T00:00:00	2024-11-08T22:00:00	6	Velocidad del viento	4.8
134694	7	Sololá	713	San Lucas Tolimán	10	San Lucas Tolimán	7	Julio	2023-09-07T00:00:00	2024-11-08T22:00:00	7	Dirección del viento	4.83
134695	7	Sololá	713	San Lucas Tolimán	10	San Lucas Tolimán	7	Julio	2023-09-07T00:00:00	2024-11-08T22:00:00	1	Precipitación	0
134696	7	Sololá	713	San Lucas Tolimán	10	San Lucas Tolimán	7	Julio	2023-09-07T00:00:00	2024-11-08T22:00:00	8	Radiación solar	0
134697	7	Sololá	713	San Lucas Tolimán	10	San Lucas Tolimán	7	Julio	2023-09-07T00:00:00	2024-11-08T23:00:00	2	Temperatura media	17.4
134698	7	Sololá	713	San Lucas Tolimán	10	San Lucas Tolimán	7	Julio	2023-09-07T00:00:00	2024-11-08T23:00:00	4	Temperatura máxima	17.9
134699	7	Sololá	713	San Lucas Tolimán	10	San Lucas Tolimán	7	Julio	2023-09-07T00:00:00	2024-11-08T23:00:00	3	Temperatura mínima	17.4
134700	7	Sololá	713	San Lucas Tolimán	10	San Lucas Tolimán	7	Julio	2023-09-07T00:00:00	2024-11-08T23:00:00	5	Humedad	93
134701	7	Sololá	713	San Lucas Tolimán	10	San Lucas Tolimán	7	Julio	2023-09-07T00:00:00	2024-11-08T23:00:00	6	Velocidad del viento	1.6
134702	7	Sololá	713	San Lucas Tolimán	10	San Lucas Tolimán	7	Julio	2023-09-07T00:00:00	2024-11-08T23:00:00	7	Dirección del viento	1.61
134703	7	Sololá	713	San Lucas Tolimán	10	San Lucas Tolimán	7	Julio	2023-09-07T00:00:00	2024-11-08T23:00:00	1	Precipitación	0
134704	7	Sololá	713	San Lucas Tolimán	10	San Lucas Tolimán	7	Julio	2023-09-07T00:00:00	2024-11-08T23:00:00	8	Radiación solar	0
134705	7	Sololá	713	San Lucas Tolimán	10	San Lucas Tolimán	7	Julio	2023-10-07T00:00:00	2024-11-08T00:00:00	2	Temperatura media	17.1
134706	7	Sololá	713	San Lucas Tolimán	10	San Lucas Tolimán	7	Julio	2023-10-07T00:00:00	2024-11-08T00:00:00	4	Temperatura máxima	17.5
134707	7	Sololá	713	San Lucas Tolimán	10	San Lucas Tolimán	7	Julio	2023-10-07T00:00:00	2024-11-08T00:00:00	3	Temperatura mínima	17.1
134708	7	Sololá	713	San Lucas Tolimán	10	San Lucas Tolimán	7	Julio	2023-10-07T00:00:00	2024-11-08T00:00:00	5	Humedad	94
134709	7	Sololá	713	San Lucas Tolimán	10	San Lucas Tolimán	7	Julio	2023-10-07T00:00:00	2024-11-08T00:00:00	6	Velocidad del viento	1.6
134710	7	Sololá	713	San Lucas Tolimán	10	San Lucas Tolimán	7	Julio	2023-10-07T00:00:00	2024-11-08T00:00:00	7	Dirección del viento	1.61
134711	7	Sololá	713	San Lucas Tolimán	10	San Lucas Tolimán	7	Julio	2023-10-07T00:00:00	2024-11-08T00:00:00	1	Precipitación	0
134712	7	Sololá	713	San Lucas Tolimán	10	San Lucas Tolimán	7	Julio	2023-10-07T00:00:00	2024-11-08T00:00:00	8	Radiación solar	0
134713	7	Sololá	713	San Lucas Tolimán	10	San Lucas Tolimán	7	Julio	2023-10-07T00:00:00	2024-11-08T01:00:00	2	Temperatura media	17.3
134714	7	Sololá	713	San Lucas Tolimán	10	San Lucas Tolimán	7	Julio	2023-10-07T00:00:00	2024-11-08T01:00:00	4	Temperatura máxima	17.6
134715	7	Sololá	713	San Lucas Tolimán	10	San Lucas Tolimán	7	Julio	2023-10-07T00:00:00	2024-11-08T01:00:00	3	Temperatura mínima	17.1
134716	7	Sololá	713	San Lucas Tolimán	10	San Lucas Tolimán	7	Julio	2023-10-07T00:00:00	2024-11-08T01:00:00	5	Humedad	93
134717	7	Sololá	713	San Lucas Tolimán	10	San Lucas Tolimán	7	Julio	2023-10-07T00:00:00	2024-11-08T01:00:00	6	Velocidad del viento	1.6
134718	7	Sololá	713	San Lucas Tolimán	10	San Lucas Tolimán	7	Julio	2023-10-07T00:00:00	2024-11-08T01:00:00	7	Dirección del viento	1.61
134719	7	Sololá	713	San Lucas Tolimán	10	San Lucas Tolimán	7	Julio	2023-10-07T00:00:00	2024-11-08T01:00:00	1	Precipitación	0
134720	7	Sololá	713	San Lucas Tolimán	10	San Lucas Tolimán	7	Julio	2023-10-07T00:00:00	2024-11-08T01:00:00	8	Radiación solar	0
134721	7	Sololá	713	San Lucas Tolimán	10	San Lucas Tolimán	7	Julio	2023-10-07T00:00:00	2024-11-08T02:00:00	2	Temperatura media	17.1
134722	7	Sololá	713	San Lucas Tolimán	10	San Lucas Tolimán	7	Julio	2023-10-07T00:00:00	2024-11-08T02:00:00	4	Temperatura máxima	17.6
134723	7	Sololá	713	San Lucas Tolimán	10	San Lucas Tolimán	7	Julio	2023-10-07T00:00:00	2024-11-08T02:00:00	3	Temperatura mínima	17.1
134724	7	Sololá	713	San Lucas Tolimán	10	San Lucas Tolimán	7	Julio	2023-10-07T00:00:00	2024-11-08T02:00:00	5	Humedad	95
134725	7	Sololá	713	San Lucas Tolimán	10	San Lucas Tolimán	7	Julio	2023-10-07T00:00:00	2024-11-08T02:00:00	6	Velocidad del viento	4.8
134726	7	Sololá	713	San Lucas Tolimán	10	San Lucas Tolimán	7	Julio	2023-10-07T00:00:00	2024-11-08T02:00:00	7	Dirección del viento	4.83
134727	7	Sololá	713	San Lucas Tolimán	10	San Lucas Tolimán	7	Julio	2023-10-07T00:00:00	2024-11-08T02:00:00	1	Precipitación	0
134728	7	Sololá	713	San Lucas Tolimán	10	San Lucas Tolimán	7	Julio	2023-10-07T00:00:00	2024-11-08T02:00:00	8	Radiación solar	0
134729	7	Sololá	713	San Lucas Tolimán	10	San Lucas Tolimán	7	Julio	2023-10-07T00:00:00	2024-11-08T03:00:00	2	Temperatura media	16.1
134730	7	Sololá	713	San Lucas Tolimán	10	San Lucas Tolimán	7	Julio	2023-10-07T00:00:00	2024-11-08T03:00:00	4	Temperatura máxima	17.2
134731	7	Sololá	713	San Lucas Tolimán	10	San Lucas Tolimán	7	Julio	2023-10-07T00:00:00	2024-11-08T03:00:00	3	Temperatura mínima	16.1
134732	7	Sololá	713	San Lucas Tolimán	10	San Lucas Tolimán	7	Julio	2023-10-07T00:00:00	2024-11-08T03:00:00	5	Humedad	94
134733	7	Sololá	713	San Lucas Tolimán	10	San Lucas Tolimán	7	Julio	2023-10-07T00:00:00	2024-11-08T03:00:00	6	Velocidad del viento	3.2
134734	7	Sololá	713	San Lucas Tolimán	10	San Lucas Tolimán	7	Julio	2023-10-07T00:00:00	2024-11-08T03:00:00	7	Dirección del viento	3.22
134735	7	Sololá	713	San Lucas Tolimán	10	San Lucas Tolimán	7	Julio	2023-10-07T00:00:00	2024-11-08T03:00:00	1	Precipitación	0
134736	7	Sololá	713	San Lucas Tolimán	10	San Lucas Tolimán	7	Julio	2023-10-07T00:00:00	2024-11-08T03:00:00	8	Radiación solar	0
134737	7	Sololá	713	San Lucas Tolimán	10	San Lucas Tolimán	7	Julio	2023-10-07T00:00:00	2024-11-08T04:00:00	2	Temperatura media	15.8
134738	7	Sololá	713	San Lucas Tolimán	10	San Lucas Tolimán	7	Julio	2023-10-07T00:00:00	2024-11-08T04:00:00	4	Temperatura máxima	16.2
134739	7	Sololá	713	San Lucas Tolimán	10	San Lucas Tolimán	7	Julio	2023-10-07T00:00:00	2024-11-08T04:00:00	3	Temperatura mínima	15.8
134740	7	Sololá	713	San Lucas Tolimán	10	San Lucas Tolimán	7	Julio	2023-10-07T00:00:00	2024-11-08T04:00:00	5	Humedad	94
134741	7	Sololá	713	San Lucas Tolimán	10	San Lucas Tolimán	7	Julio	2023-10-07T00:00:00	2024-11-08T04:00:00	6	Velocidad del viento	1.6
134742	7	Sololá	713	San Lucas Tolimán	10	San Lucas Tolimán	7	Julio	2023-10-07T00:00:00	2024-11-08T04:00:00	7	Dirección del viento	1.61
134743	7	Sololá	713	San Lucas Tolimán	10	San Lucas Tolimán	7	Julio	2023-10-07T00:00:00	2024-11-08T04:00:00	1	Precipitación	0
134744	7	Sololá	713	San Lucas Tolimán	10	San Lucas Tolimán	7	Julio	2023-10-07T00:00:00	2024-11-08T04:00:00	8	Radiación solar	0
134745	7	Sololá	713	San Lucas Tolimán	10	San Lucas Tolimán	7	Julio	2023-10-07T00:00:00	2024-11-08T05:00:00	2	Temperatura media	16.8
134746	7	Sololá	713	San Lucas Tolimán	10	San Lucas Tolimán	7	Julio	2023-10-07T00:00:00	2024-11-08T05:00:00	4	Temperatura máxima	16.9
134747	7	Sololá	713	San Lucas Tolimán	10	San Lucas Tolimán	7	Julio	2023-10-07T00:00:00	2024-11-08T05:00:00	3	Temperatura mínima	15.8
134748	7	Sololá	713	San Lucas Tolimán	10	San Lucas Tolimán	7	Julio	2023-10-07T00:00:00	2024-11-08T05:00:00	5	Humedad	91
134749	7	Sololá	713	San Lucas Tolimán	10	San Lucas Tolimán	7	Julio	2023-10-07T00:00:00	2024-11-08T05:00:00	6	Velocidad del viento	1.6
134750	7	Sololá	713	San Lucas Tolimán	10	San Lucas Tolimán	7	Julio	2023-10-07T00:00:00	2024-11-08T05:00:00	7	Dirección del viento	1.61
134751	7	Sololá	713	San Lucas Tolimán	10	San Lucas Tolimán	7	Julio	2023-10-07T00:00:00	2024-11-08T05:00:00	1	Precipitación	0
134752	7	Sololá	713	San Lucas Tolimán	10	San Lucas Tolimán	7	Julio	2023-10-07T00:00:00	2024-11-08T05:00:00	8	Radiación solar	0
134753	7	Sololá	713	San Lucas Tolimán	10	San Lucas Tolimán	7	Julio	2023-10-07T00:00:00	2024-11-08T06:00:00	2	Temperatura media	18.7
134754	7	Sololá	713	San Lucas Tolimán	10	San Lucas Tolimán	7	Julio	2023-10-07T00:00:00	2024-11-08T06:00:00	4	Temperatura máxima	18.7
134755	7	Sololá	713	San Lucas Tolimán	10	San Lucas Tolimán	7	Julio	2023-10-07T00:00:00	2024-11-08T06:00:00	3	Temperatura mínima	17.3
134756	7	Sololá	713	San Lucas Tolimán	10	San Lucas Tolimán	7	Julio	2023-10-07T00:00:00	2024-11-08T06:00:00	5	Humedad	58
134757	7	Sololá	713	San Lucas Tolimán	10	San Lucas Tolimán	7	Julio	2023-10-07T00:00:00	2024-11-08T06:00:00	6	Velocidad del viento	4.8
134758	7	Sololá	713	San Lucas Tolimán	10	San Lucas Tolimán	7	Julio	2023-10-07T00:00:00	2024-11-08T06:00:00	7	Dirección del viento	4.83
134759	7	Sololá	713	San Lucas Tolimán	10	San Lucas Tolimán	7	Julio	2023-10-07T00:00:00	2024-11-08T06:00:00	1	Precipitación	0
134760	7	Sololá	713	San Lucas Tolimán	10	San Lucas Tolimán	7	Julio	2023-10-07T00:00:00	2024-11-08T06:00:00	8	Radiación solar	1
134761	7	Sololá	713	San Lucas Tolimán	10	San Lucas Tolimán	7	Julio	2023-10-07T00:00:00	2024-11-08T07:00:00	2	Temperatura media	17.6
134762	7	Sololá	713	San Lucas Tolimán	10	San Lucas Tolimán	7	Julio	2023-10-07T00:00:00	2024-11-08T07:00:00	4	Temperatura máxima	18.7
134763	7	Sololá	713	San Lucas Tolimán	10	San Lucas Tolimán	7	Julio	2023-10-07T00:00:00	2024-11-08T07:00:00	3	Temperatura mínima	17.2
134764	7	Sololá	713	San Lucas Tolimán	10	San Lucas Tolimán	7	Julio	2023-10-07T00:00:00	2024-11-08T07:00:00	5	Humedad	61
134765	7	Sololá	713	San Lucas Tolimán	10	San Lucas Tolimán	7	Julio	2023-10-07T00:00:00	2024-11-08T07:00:00	6	Velocidad del viento	1.6
134766	7	Sololá	713	San Lucas Tolimán	10	San Lucas Tolimán	7	Julio	2023-10-07T00:00:00	2024-11-08T07:00:00	7	Dirección del viento	1.61
134767	7	Sololá	713	San Lucas Tolimán	10	San Lucas Tolimán	7	Julio	2023-10-07T00:00:00	2024-11-08T07:00:00	1	Precipitación	0
134768	7	Sololá	713	San Lucas Tolimán	10	San Lucas Tolimán	7	Julio	2023-10-07T00:00:00	2024-11-08T07:00:00	8	Radiación solar	50
134769	7	Sololá	713	San Lucas Tolimán	10	San Lucas Tolimán	7	Julio	2023-10-07T00:00:00	2024-11-08T08:00:00	2	Temperatura media	19.7
134770	7	Sololá	713	San Lucas Tolimán	10	San Lucas Tolimán	7	Julio	2023-10-07T00:00:00	2024-11-08T08:00:00	4	Temperatura máxima	19.7
134771	7	Sololá	713	San Lucas Tolimán	10	San Lucas Tolimán	7	Julio	2023-10-07T00:00:00	2024-11-08T08:00:00	3	Temperatura mínima	17.6
134772	7	Sololá	713	San Lucas Tolimán	10	San Lucas Tolimán	7	Julio	2023-10-07T00:00:00	2024-11-08T08:00:00	5	Humedad	59
134773	7	Sololá	713	San Lucas Tolimán	10	San Lucas Tolimán	7	Julio	2023-10-07T00:00:00	2024-11-08T08:00:00	6	Velocidad del viento	6.4
134774	7	Sololá	713	San Lucas Tolimán	10	San Lucas Tolimán	7	Julio	2023-10-07T00:00:00	2024-11-08T08:00:00	7	Dirección del viento	6.44
134775	7	Sololá	713	San Lucas Tolimán	10	San Lucas Tolimán	7	Julio	2023-10-07T00:00:00	2024-11-08T08:00:00	1	Precipitación	0
134776	7	Sololá	713	San Lucas Tolimán	10	San Lucas Tolimán	7	Julio	2023-10-07T00:00:00	2024-11-08T08:00:00	8	Radiación solar	321
134777	7	Sololá	713	San Lucas Tolimán	10	San Lucas Tolimán	7	Julio	2023-10-07T00:00:00	2024-11-08T09:00:00	2	Temperatura media	22.4
134778	7	Sololá	713	San Lucas Tolimán	10	San Lucas Tolimán	7	Julio	2023-10-07T00:00:00	2024-11-08T09:00:00	4	Temperatura máxima	22.4
134779	7	Sololá	713	San Lucas Tolimán	10	San Lucas Tolimán	7	Julio	2023-10-07T00:00:00	2024-11-08T09:00:00	3	Temperatura mínima	19.7
134780	7	Sololá	713	San Lucas Tolimán	10	San Lucas Tolimán	7	Julio	2023-10-07T00:00:00	2024-11-08T09:00:00	5	Humedad	51
134781	7	Sololá	713	San Lucas Tolimán	10	San Lucas Tolimán	7	Julio	2023-10-07T00:00:00	2024-11-08T09:00:00	6	Velocidad del viento	4.8
134782	7	Sololá	713	San Lucas Tolimán	10	San Lucas Tolimán	7	Julio	2023-10-07T00:00:00	2024-11-08T09:00:00	7	Dirección del viento	4.83
134783	7	Sololá	713	San Lucas Tolimán	10	San Lucas Tolimán	7	Julio	2023-10-07T00:00:00	2024-11-08T09:00:00	1	Precipitación	0
134784	7	Sololá	713	San Lucas Tolimán	10	San Lucas Tolimán	7	Julio	2023-10-07T00:00:00	2024-11-08T09:00:00	8	Radiación solar	595
134785	7	Sololá	713	San Lucas Tolimán	10	San Lucas Tolimán	7	Julio	2023-10-07T00:00:00	2024-11-08T10:00:00	2	Temperatura media	23.8
134786	7	Sololá	713	San Lucas Tolimán	10	San Lucas Tolimán	7	Julio	2023-10-07T00:00:00	2024-11-08T10:00:00	4	Temperatura máxima	24.1
134787	7	Sololá	713	San Lucas Tolimán	10	San Lucas Tolimán	7	Julio	2023-10-07T00:00:00	2024-11-08T10:00:00	3	Temperatura mínima	22.4
134788	7	Sololá	713	San Lucas Tolimán	10	San Lucas Tolimán	7	Julio	2023-10-07T00:00:00	2024-11-08T10:00:00	5	Humedad	47
134789	7	Sololá	713	San Lucas Tolimán	10	San Lucas Tolimán	7	Julio	2023-10-07T00:00:00	2024-11-08T10:00:00	6	Velocidad del viento	14.5
134790	7	Sololá	713	San Lucas Tolimán	10	San Lucas Tolimán	7	Julio	2023-10-07T00:00:00	2024-11-08T10:00:00	7	Dirección del viento	14.48
134791	7	Sololá	713	San Lucas Tolimán	10	San Lucas Tolimán	7	Julio	2023-10-07T00:00:00	2024-11-08T10:00:00	1	Precipitación	0
134792	7	Sololá	713	San Lucas Tolimán	10	San Lucas Tolimán	7	Julio	2023-10-07T00:00:00	2024-11-08T10:00:00	8	Radiación solar	823
134793	7	Sololá	713	San Lucas Tolimán	10	San Lucas Tolimán	7	Julio	2023-10-07T00:00:00	2024-11-08T11:00:00	2	Temperatura media	24.9
134794	7	Sololá	713	San Lucas Tolimán	10	San Lucas Tolimán	7	Julio	2023-10-07T00:00:00	2024-11-08T11:00:00	4	Temperatura máxima	24.9
134795	7	Sololá	713	San Lucas Tolimán	10	San Lucas Tolimán	7	Julio	2023-10-07T00:00:00	2024-11-08T11:00:00	3	Temperatura mínima	23.8
134796	7	Sololá	713	San Lucas Tolimán	10	San Lucas Tolimán	7	Julio	2023-10-07T00:00:00	2024-11-08T11:00:00	5	Humedad	46
134797	7	Sololá	713	San Lucas Tolimán	10	San Lucas Tolimán	7	Julio	2023-10-07T00:00:00	2024-11-08T11:00:00	6	Velocidad del viento	12.9
134798	7	Sololá	713	San Lucas Tolimán	10	San Lucas Tolimán	7	Julio	2023-10-07T00:00:00	2024-11-08T11:00:00	7	Dirección del viento	12.87
134799	7	Sololá	713	San Lucas Tolimán	10	San Lucas Tolimán	7	Julio	2023-10-07T00:00:00	2024-11-08T11:00:00	1	Precipitación	0
134800	7	Sololá	713	San Lucas Tolimán	10	San Lucas Tolimán	7	Julio	2023-10-07T00:00:00	2024-11-08T11:00:00	8	Radiación solar	1041
134801	7	Sololá	713	San Lucas Tolimán	10	San Lucas Tolimán	7	Julio	2023-10-07T00:00:00	2024-11-08T12:00:00	2	Temperatura media	25.4
134802	7	Sololá	713	San Lucas Tolimán	10	San Lucas Tolimán	7	Julio	2023-10-07T00:00:00	2024-11-08T12:00:00	4	Temperatura máxima	25.8
134803	7	Sololá	713	San Lucas Tolimán	10	San Lucas Tolimán	7	Julio	2023-10-07T00:00:00	2024-11-08T12:00:00	3	Temperatura mínima	24.9
134804	7	Sololá	713	San Lucas Tolimán	10	San Lucas Tolimán	7	Julio	2023-10-07T00:00:00	2024-11-08T12:00:00	5	Humedad	45
134805	7	Sololá	713	San Lucas Tolimán	10	San Lucas Tolimán	7	Julio	2023-10-07T00:00:00	2024-11-08T12:00:00	6	Velocidad del viento	11.3
134806	7	Sololá	713	San Lucas Tolimán	10	San Lucas Tolimán	7	Julio	2023-10-07T00:00:00	2024-11-08T12:00:00	7	Dirección del viento	11.27
134807	7	Sololá	713	San Lucas Tolimán	10	San Lucas Tolimán	7	Julio	2023-10-07T00:00:00	2024-11-08T12:00:00	1	Precipitación	0
134808	7	Sololá	713	San Lucas Tolimán	10	San Lucas Tolimán	7	Julio	2023-10-07T00:00:00	2024-11-08T12:00:00	8	Radiación solar	1174
134809	7	Sololá	713	San Lucas Tolimán	10	San Lucas Tolimán	7	Julio	2023-10-07T00:00:00	2024-11-08T13:00:00	2	Temperatura media	24.5
134810	7	Sololá	713	San Lucas Tolimán	10	San Lucas Tolimán	7	Julio	2023-10-07T00:00:00	2024-11-08T13:00:00	4	Temperatura máxima	26.1
134811	7	Sololá	713	San Lucas Tolimán	10	San Lucas Tolimán	7	Julio	2023-10-07T00:00:00	2024-11-08T13:00:00	3	Temperatura mínima	24
134812	7	Sololá	713	San Lucas Tolimán	10	San Lucas Tolimán	7	Julio	2023-10-07T00:00:00	2024-11-08T13:00:00	5	Humedad	58
134813	7	Sololá	713	San Lucas Tolimán	10	San Lucas Tolimán	7	Julio	2023-10-07T00:00:00	2024-11-08T13:00:00	6	Velocidad del viento	9.7
134814	7	Sololá	713	San Lucas Tolimán	10	San Lucas Tolimán	7	Julio	2023-10-07T00:00:00	2024-11-08T13:00:00	7	Dirección del viento	9.66
134815	7	Sololá	713	San Lucas Tolimán	10	San Lucas Tolimán	7	Julio	2023-10-07T00:00:00	2024-11-08T13:00:00	1	Precipitación	0
134816	7	Sololá	713	San Lucas Tolimán	10	San Lucas Tolimán	7	Julio	2023-10-07T00:00:00	2024-11-08T13:00:00	8	Radiación solar	1174
134817	7	Sololá	713	San Lucas Tolimán	10	San Lucas Tolimán	7	Julio	2023-10-07T00:00:00	2024-11-08T14:00:00	2	Temperatura media	23.2
134818	7	Sololá	713	San Lucas Tolimán	10	San Lucas Tolimán	7	Julio	2023-10-07T00:00:00	2024-11-08T14:00:00	4	Temperatura máxima	24.8
134819	7	Sololá	713	San Lucas Tolimán	10	San Lucas Tolimán	7	Julio	2023-10-07T00:00:00	2024-11-08T14:00:00	3	Temperatura mínima	23
134820	7	Sololá	713	San Lucas Tolimán	10	San Lucas Tolimán	7	Julio	2023-10-07T00:00:00	2024-11-08T14:00:00	5	Humedad	59
134821	7	Sololá	713	San Lucas Tolimán	10	San Lucas Tolimán	7	Julio	2023-10-07T00:00:00	2024-11-08T14:00:00	6	Velocidad del viento	11.3
134822	7	Sololá	713	San Lucas Tolimán	10	San Lucas Tolimán	7	Julio	2023-10-07T00:00:00	2024-11-08T14:00:00	7	Dirección del viento	11.27
134823	7	Sololá	713	San Lucas Tolimán	10	San Lucas Tolimán	7	Julio	2023-10-07T00:00:00	2024-11-08T14:00:00	1	Precipitación	0
134824	7	Sololá	713	San Lucas Tolimán	10	San Lucas Tolimán	7	Julio	2023-10-07T00:00:00	2024-11-08T14:00:00	8	Radiación solar	953
134825	7	Sololá	713	San Lucas Tolimán	10	San Lucas Tolimán	7	Julio	2023-10-07T00:00:00	2024-11-08T15:00:00	2	Temperatura media	23.9
134826	7	Sololá	713	San Lucas Tolimán	10	San Lucas Tolimán	7	Julio	2023-10-07T00:00:00	2024-11-08T15:00:00	4	Temperatura máxima	24.2
134827	7	Sololá	713	San Lucas Tolimán	10	San Lucas Tolimán	7	Julio	2023-10-07T00:00:00	2024-11-08T15:00:00	3	Temperatura mínima	23.2
134828	7	Sololá	713	San Lucas Tolimán	10	San Lucas Tolimán	7	Julio	2023-10-07T00:00:00	2024-11-08T15:00:00	5	Humedad	58
134829	7	Sololá	713	San Lucas Tolimán	10	San Lucas Tolimán	7	Julio	2023-10-07T00:00:00	2024-11-08T15:00:00	6	Velocidad del viento	9.7
134830	7	Sololá	713	San Lucas Tolimán	10	San Lucas Tolimán	7	Julio	2023-10-07T00:00:00	2024-11-08T15:00:00	7	Dirección del viento	9.66
134831	7	Sololá	713	San Lucas Tolimán	10	San Lucas Tolimán	7	Julio	2023-10-07T00:00:00	2024-11-08T15:00:00	1	Precipitación	0
134832	7	Sololá	713	San Lucas Tolimán	10	San Lucas Tolimán	7	Julio	2023-10-07T00:00:00	2024-11-08T15:00:00	8	Radiación solar	832
134833	7	Sololá	713	San Lucas Tolimán	10	San Lucas Tolimán	7	Julio	2023-10-07T00:00:00	2024-11-08T16:00:00	2	Temperatura media	19.9
134834	7	Sololá	713	San Lucas Tolimán	10	San Lucas Tolimán	7	Julio	2023-10-07T00:00:00	2024-11-08T16:00:00	4	Temperatura máxima	24.5
134835	7	Sololá	713	San Lucas Tolimán	10	San Lucas Tolimán	7	Julio	2023-10-07T00:00:00	2024-11-08T16:00:00	3	Temperatura mínima	19.9
134836	7	Sololá	713	San Lucas Tolimán	10	San Lucas Tolimán	7	Julio	2023-10-07T00:00:00	2024-11-08T16:00:00	5	Humedad	57
134837	7	Sololá	713	San Lucas Tolimán	10	San Lucas Tolimán	7	Julio	2023-10-07T00:00:00	2024-11-08T16:00:00	6	Velocidad del viento	11.3
134838	7	Sololá	713	San Lucas Tolimán	10	San Lucas Tolimán	7	Julio	2023-10-07T00:00:00	2024-11-08T16:00:00	7	Dirección del viento	11.27
134839	7	Sololá	713	San Lucas Tolimán	10	San Lucas Tolimán	7	Julio	2023-10-07T00:00:00	2024-11-08T16:00:00	1	Precipitación	2.6
134840	7	Sololá	713	San Lucas Tolimán	10	San Lucas Tolimán	7	Julio	2023-10-07T00:00:00	2024-11-08T16:00:00	8	Radiación solar	252
134841	7	Sololá	713	San Lucas Tolimán	10	San Lucas Tolimán	7	Julio	2023-10-07T00:00:00	2024-11-08T17:00:00	2	Temperatura media	19.8
134842	7	Sololá	713	San Lucas Tolimán	10	San Lucas Tolimán	7	Julio	2023-10-07T00:00:00	2024-11-08T17:00:00	4	Temperatura máxima	19.9
134843	7	Sololá	713	San Lucas Tolimán	10	San Lucas Tolimán	7	Julio	2023-10-07T00:00:00	2024-11-08T17:00:00	3	Temperatura mínima	19.3
134844	7	Sololá	713	San Lucas Tolimán	10	San Lucas Tolimán	7	Julio	2023-10-07T00:00:00	2024-11-08T17:00:00	5	Humedad	58
134845	7	Sololá	713	San Lucas Tolimán	10	San Lucas Tolimán	7	Julio	2023-10-07T00:00:00	2024-11-08T17:00:00	6	Velocidad del viento	9.7
134846	7	Sololá	713	San Lucas Tolimán	10	San Lucas Tolimán	7	Julio	2023-10-07T00:00:00	2024-11-08T17:00:00	7	Dirección del viento	9.66
134847	7	Sololá	713	San Lucas Tolimán	10	San Lucas Tolimán	7	Julio	2023-10-07T00:00:00	2024-11-08T17:00:00	1	Precipitación	0
134848	7	Sololá	713	San Lucas Tolimán	10	San Lucas Tolimán	7	Julio	2023-10-07T00:00:00	2024-11-08T17:00:00	8	Radiación solar	25
134849	7	Sololá	713	San Lucas Tolimán	10	San Lucas Tolimán	7	Julio	2023-10-07T00:00:00	2024-11-08T18:00:00	2	Temperatura media	19.3
134850	7	Sololá	713	San Lucas Tolimán	10	San Lucas Tolimán	7	Julio	2023-10-07T00:00:00	2024-11-08T18:00:00	4	Temperatura máxima	20.3
134851	7	Sololá	713	San Lucas Tolimán	10	San Lucas Tolimán	7	Julio	2023-10-07T00:00:00	2024-11-08T18:00:00	3	Temperatura mínima	19.2
134852	7	Sololá	713	San Lucas Tolimán	10	San Lucas Tolimán	7	Julio	2023-10-07T00:00:00	2024-11-08T18:00:00	5	Humedad	60
134853	7	Sololá	713	San Lucas Tolimán	10	San Lucas Tolimán	7	Julio	2023-10-07T00:00:00	2024-11-08T18:00:00	6	Velocidad del viento	3.2
134854	7	Sololá	713	San Lucas Tolimán	10	San Lucas Tolimán	7	Julio	2023-10-07T00:00:00	2024-11-08T18:00:00	7	Dirección del viento	3.22
134855	7	Sololá	713	San Lucas Tolimán	10	San Lucas Tolimán	7	Julio	2023-10-07T00:00:00	2024-11-08T18:00:00	1	Precipitación	0
134856	7	Sololá	713	San Lucas Tolimán	10	San Lucas Tolimán	7	Julio	2023-10-07T00:00:00	2024-11-08T18:00:00	8	Radiación solar	17
134857	7	Sololá	713	San Lucas Tolimán	10	San Lucas Tolimán	7	Julio	2023-10-07T00:00:00	2024-11-08T19:00:00	2	Temperatura media	18.9
134858	7	Sololá	713	San Lucas Tolimán	10	San Lucas Tolimán	7	Julio	2023-10-07T00:00:00	2024-11-08T19:00:00	4	Temperatura máxima	19.3
134859	7	Sololá	713	San Lucas Tolimán	10	San Lucas Tolimán	7	Julio	2023-10-07T00:00:00	2024-11-08T19:00:00	3	Temperatura mínima	18.8
134860	7	Sololá	713	San Lucas Tolimán	10	San Lucas Tolimán	7	Julio	2023-10-07T00:00:00	2024-11-08T19:00:00	5	Humedad	60
134861	7	Sololá	713	San Lucas Tolimán	10	San Lucas Tolimán	7	Julio	2023-10-07T00:00:00	2024-11-08T19:00:00	6	Velocidad del viento	4.8
134862	7	Sololá	713	San Lucas Tolimán	10	San Lucas Tolimán	7	Julio	2023-10-07T00:00:00	2024-11-08T19:00:00	7	Dirección del viento	4.83
134863	7	Sololá	713	San Lucas Tolimán	10	San Lucas Tolimán	7	Julio	2023-10-07T00:00:00	2024-11-08T19:00:00	1	Precipitación	0.6
134864	7	Sololá	713	San Lucas Tolimán	10	San Lucas Tolimán	7	Julio	2023-10-07T00:00:00	2024-11-08T19:00:00	8	Radiación solar	0
134865	7	Sololá	713	San Lucas Tolimán	10	San Lucas Tolimán	7	Julio	2023-10-07T00:00:00	2024-11-08T20:00:00	2	Temperatura media	18.1
134866	7	Sololá	713	San Lucas Tolimán	10	San Lucas Tolimán	7	Julio	2023-10-07T00:00:00	2024-11-08T20:00:00	4	Temperatura máxima	18.9
134867	7	Sololá	713	San Lucas Tolimán	10	San Lucas Tolimán	7	Julio	2023-10-07T00:00:00	2024-11-08T20:00:00	3	Temperatura mínima	18
134868	7	Sololá	713	San Lucas Tolimán	10	San Lucas Tolimán	7	Julio	2023-10-07T00:00:00	2024-11-08T20:00:00	5	Humedad	59
134869	7	Sololá	713	San Lucas Tolimán	10	San Lucas Tolimán	7	Julio	2023-10-07T00:00:00	2024-11-08T20:00:00	6	Velocidad del viento	1.6
134870	7	Sololá	713	San Lucas Tolimán	10	San Lucas Tolimán	7	Julio	2023-10-07T00:00:00	2024-11-08T20:00:00	7	Dirección del viento	1.61
134871	7	Sololá	713	San Lucas Tolimán	10	San Lucas Tolimán	7	Julio	2023-10-07T00:00:00	2024-11-08T20:00:00	1	Precipitación	1.2
134872	7	Sololá	713	San Lucas Tolimán	10	San Lucas Tolimán	7	Julio	2023-10-07T00:00:00	2024-11-08T20:00:00	8	Radiación solar	0
134873	7	Sololá	713	San Lucas Tolimán	10	San Lucas Tolimán	7	Julio	2023-10-07T00:00:00	2024-11-08T21:00:00	2	Temperatura media	18.8
134874	7	Sololá	713	San Lucas Tolimán	10	San Lucas Tolimán	7	Julio	2023-10-07T00:00:00	2024-11-08T21:00:00	4	Temperatura máxima	18.8
134875	7	Sololá	713	San Lucas Tolimán	10	San Lucas Tolimán	7	Julio	2023-10-07T00:00:00	2024-11-08T21:00:00	3	Temperatura mínima	17.3
134876	7	Sololá	713	San Lucas Tolimán	10	San Lucas Tolimán	7	Julio	2023-10-07T00:00:00	2024-11-08T21:00:00	5	Humedad	55
134877	7	Sololá	713	San Lucas Tolimán	10	San Lucas Tolimán	7	Julio	2023-10-07T00:00:00	2024-11-08T21:00:00	6	Velocidad del viento	4.8
134878	7	Sololá	713	San Lucas Tolimán	10	San Lucas Tolimán	7	Julio	2023-10-07T00:00:00	2024-11-08T21:00:00	7	Dirección del viento	4.83
134879	7	Sololá	713	San Lucas Tolimán	10	San Lucas Tolimán	7	Julio	2023-10-07T00:00:00	2024-11-08T21:00:00	1	Precipitación	1
134880	7	Sololá	713	San Lucas Tolimán	10	San Lucas Tolimán	7	Julio	2023-10-07T00:00:00	2024-11-08T21:00:00	8	Radiación solar	0
134881	7	Sololá	713	San Lucas Tolimán	10	San Lucas Tolimán	7	Julio	2023-10-07T00:00:00	2024-11-08T22:00:00	2	Temperatura media	19.3
134882	7	Sololá	713	San Lucas Tolimán	10	San Lucas Tolimán	7	Julio	2023-10-07T00:00:00	2024-11-08T22:00:00	4	Temperatura máxima	19.7
134883	7	Sololá	713	San Lucas Tolimán	10	San Lucas Tolimán	7	Julio	2023-10-07T00:00:00	2024-11-08T22:00:00	3	Temperatura mínima	18.8
134884	7	Sololá	713	San Lucas Tolimán	10	San Lucas Tolimán	7	Julio	2023-10-07T00:00:00	2024-11-08T22:00:00	5	Humedad	58
134885	7	Sololá	713	San Lucas Tolimán	10	San Lucas Tolimán	7	Julio	2023-10-07T00:00:00	2024-11-08T22:00:00	6	Velocidad del viento	8
134886	7	Sololá	713	San Lucas Tolimán	10	San Lucas Tolimán	7	Julio	2023-10-07T00:00:00	2024-11-08T22:00:00	7	Dirección del viento	8.05
134887	7	Sololá	713	San Lucas Tolimán	10	San Lucas Tolimán	7	Julio	2023-10-07T00:00:00	2024-11-08T22:00:00	1	Precipitación	0.2
134888	7	Sololá	713	San Lucas Tolimán	10	San Lucas Tolimán	7	Julio	2023-10-07T00:00:00	2024-11-08T22:00:00	8	Radiación solar	0
134889	7	Sololá	713	San Lucas Tolimán	10	San Lucas Tolimán	7	Julio	2023-10-07T00:00:00	2024-11-08T23:00:00	2	Temperatura media	18.7
134890	7	Sololá	713	San Lucas Tolimán	10	San Lucas Tolimán	7	Julio	2023-10-07T00:00:00	2024-11-08T23:00:00	4	Temperatura máxima	19.3
134891	7	Sololá	713	San Lucas Tolimán	10	San Lucas Tolimán	7	Julio	2023-10-07T00:00:00	2024-11-08T23:00:00	3	Temperatura mínima	18.5
134892	7	Sololá	713	San Lucas Tolimán	10	San Lucas Tolimán	7	Julio	2023-10-07T00:00:00	2024-11-08T23:00:00	5	Humedad	58
134893	7	Sololá	713	San Lucas Tolimán	10	San Lucas Tolimán	7	Julio	2023-10-07T00:00:00	2024-11-08T23:00:00	6	Velocidad del viento	0
134894	7	Sololá	713	San Lucas Tolimán	10	San Lucas Tolimán	7	Julio	2023-10-07T00:00:00	2024-11-08T23:00:00	7	Dirección del viento	0
134895	7	Sololá	713	San Lucas Tolimán	10	San Lucas Tolimán	7	Julio	2023-10-07T00:00:00	2024-11-08T23:00:00	1	Precipitación	0
134896	7	Sololá	713	San Lucas Tolimán	10	San Lucas Tolimán	7	Julio	2023-10-07T00:00:00	2024-11-08T23:00:00	8	Radiación solar	0
134897	7	Sololá	713	San Lucas Tolimán	10	San Lucas Tolimán	7	Julio	2023-11-07T00:00:00	2024-11-08T00:00:00	2	Temperatura media	18.7
134898	7	Sololá	713	San Lucas Tolimán	10	San Lucas Tolimán	7	Julio	2023-11-07T00:00:00	2024-11-08T00:00:00	4	Temperatura máxima	18.9
134899	7	Sololá	713	San Lucas Tolimán	10	San Lucas Tolimán	7	Julio	2023-11-07T00:00:00	2024-11-08T00:00:00	3	Temperatura mínima	18.3
134900	7	Sololá	713	San Lucas Tolimán	10	San Lucas Tolimán	7	Julio	2023-11-07T00:00:00	2024-11-08T00:00:00	5	Humedad	59
134901	7	Sololá	713	San Lucas Tolimán	10	San Lucas Tolimán	7	Julio	2023-11-07T00:00:00	2024-11-08T00:00:00	6	Velocidad del viento	1.6
134902	7	Sololá	713	San Lucas Tolimán	10	San Lucas Tolimán	7	Julio	2023-11-07T00:00:00	2024-11-08T00:00:00	7	Dirección del viento	1.61
134903	7	Sololá	713	San Lucas Tolimán	10	San Lucas Tolimán	7	Julio	2023-11-07T00:00:00	2024-11-08T00:00:00	1	Precipitación	0
134904	7	Sololá	713	San Lucas Tolimán	10	San Lucas Tolimán	7	Julio	2023-11-07T00:00:00	2024-11-08T00:00:00	8	Radiación solar	0
134905	7	Sololá	713	San Lucas Tolimán	10	San Lucas Tolimán	7	Julio	2023-11-07T00:00:00	2024-11-08T01:00:00	2	Temperatura media	18.7
134906	7	Sololá	713	San Lucas Tolimán	10	San Lucas Tolimán	7	Julio	2023-11-07T00:00:00	2024-11-08T01:00:00	4	Temperatura máxima	18.7
134907	7	Sololá	713	San Lucas Tolimán	10	San Lucas Tolimán	7	Julio	2023-11-07T00:00:00	2024-11-08T01:00:00	3	Temperatura mínima	18.2
134908	7	Sololá	713	San Lucas Tolimán	10	San Lucas Tolimán	7	Julio	2023-11-07T00:00:00	2024-11-08T01:00:00	5	Humedad	56
134909	7	Sololá	713	San Lucas Tolimán	10	San Lucas Tolimán	7	Julio	2023-11-07T00:00:00	2024-11-08T01:00:00	6	Velocidad del viento	1.6
134910	7	Sololá	713	San Lucas Tolimán	10	San Lucas Tolimán	7	Julio	2023-11-07T00:00:00	2024-11-08T01:00:00	7	Dirección del viento	1.61
134911	7	Sololá	713	San Lucas Tolimán	10	San Lucas Tolimán	7	Julio	2023-11-07T00:00:00	2024-11-08T01:00:00	1	Precipitación	0
134912	7	Sololá	713	San Lucas Tolimán	10	San Lucas Tolimán	7	Julio	2023-11-07T00:00:00	2024-11-08T01:00:00	8	Radiación solar	0
134913	7	Sololá	713	San Lucas Tolimán	10	San Lucas Tolimán	7	Julio	2023-11-07T00:00:00	2024-11-08T02:00:00	2	Temperatura media	20.9
134914	7	Sololá	713	San Lucas Tolimán	10	San Lucas Tolimán	7	Julio	2023-11-07T00:00:00	2024-11-08T02:00:00	4	Temperatura máxima	20.9
134915	7	Sololá	713	San Lucas Tolimán	10	San Lucas Tolimán	7	Julio	2023-11-07T00:00:00	2024-11-08T02:00:00	3	Temperatura mínima	18.7
134916	7	Sololá	713	San Lucas Tolimán	10	San Lucas Tolimán	7	Julio	2023-11-07T00:00:00	2024-11-08T02:00:00	5	Humedad	54
134917	7	Sololá	713	San Lucas Tolimán	10	San Lucas Tolimán	7	Julio	2023-11-07T00:00:00	2024-11-08T02:00:00	6	Velocidad del viento	8
134918	7	Sololá	713	San Lucas Tolimán	10	San Lucas Tolimán	7	Julio	2023-11-07T00:00:00	2024-11-08T02:00:00	7	Dirección del viento	8.05
134919	7	Sololá	713	San Lucas Tolimán	10	San Lucas Tolimán	7	Julio	2023-11-07T00:00:00	2024-11-08T02:00:00	1	Precipitación	0.2
134920	7	Sololá	713	San Lucas Tolimán	10	San Lucas Tolimán	7	Julio	2023-11-07T00:00:00	2024-11-08T02:00:00	8	Radiación solar	0
134921	7	Sololá	713	San Lucas Tolimán	10	San Lucas Tolimán	7	Julio	2023-11-07T00:00:00	2024-11-08T03:00:00	2	Temperatura media	19.1
134922	7	Sololá	713	San Lucas Tolimán	10	San Lucas Tolimán	7	Julio	2023-11-07T00:00:00	2024-11-08T03:00:00	4	Temperatura máxima	20.9
134923	7	Sololá	713	San Lucas Tolimán	10	San Lucas Tolimán	7	Julio	2023-11-07T00:00:00	2024-11-08T03:00:00	3	Temperatura mínima	19.1
134924	7	Sololá	713	San Lucas Tolimán	10	San Lucas Tolimán	7	Julio	2023-11-07T00:00:00	2024-11-08T03:00:00	5	Humedad	59
134925	7	Sololá	713	San Lucas Tolimán	10	San Lucas Tolimán	7	Julio	2023-11-07T00:00:00	2024-11-08T03:00:00	6	Velocidad del viento	3.2
134926	7	Sololá	713	San Lucas Tolimán	10	San Lucas Tolimán	7	Julio	2023-11-07T00:00:00	2024-11-08T03:00:00	7	Dirección del viento	3.22
134927	7	Sololá	713	San Lucas Tolimán	10	San Lucas Tolimán	7	Julio	2023-11-07T00:00:00	2024-11-08T03:00:00	1	Precipitación	0
134928	7	Sololá	713	San Lucas Tolimán	10	San Lucas Tolimán	7	Julio	2023-11-07T00:00:00	2024-11-08T03:00:00	8	Radiación solar	0
134929	7	Sololá	713	San Lucas Tolimán	10	San Lucas Tolimán	7	Julio	2023-11-07T00:00:00	2024-11-08T04:00:00	2	Temperatura media	18.8
134930	7	Sololá	713	San Lucas Tolimán	10	San Lucas Tolimán	7	Julio	2023-11-07T00:00:00	2024-11-08T04:00:00	4	Temperatura máxima	19.1
134931	7	Sololá	713	San Lucas Tolimán	10	San Lucas Tolimán	7	Julio	2023-11-07T00:00:00	2024-11-08T04:00:00	3	Temperatura mínima	17.9
134932	7	Sololá	713	San Lucas Tolimán	10	San Lucas Tolimán	7	Julio	2023-11-07T00:00:00	2024-11-08T04:00:00	5	Humedad	58
134933	7	Sololá	713	San Lucas Tolimán	10	San Lucas Tolimán	7	Julio	2023-11-07T00:00:00	2024-11-08T04:00:00	6	Velocidad del viento	1.6
134934	7	Sololá	713	San Lucas Tolimán	10	San Lucas Tolimán	7	Julio	2023-11-07T00:00:00	2024-11-08T04:00:00	7	Dirección del viento	1.61
134935	7	Sololá	713	San Lucas Tolimán	10	San Lucas Tolimán	7	Julio	2023-11-07T00:00:00	2024-11-08T04:00:00	1	Precipitación	0
134936	7	Sololá	713	San Lucas Tolimán	10	San Lucas Tolimán	7	Julio	2023-11-07T00:00:00	2024-11-08T04:00:00	8	Radiación solar	0
134937	7	Sololá	713	San Lucas Tolimán	10	San Lucas Tolimán	7	Julio	2023-11-07T00:00:00	2024-11-08T05:00:00	2	Temperatura media	19.7
134938	7	Sololá	713	San Lucas Tolimán	10	San Lucas Tolimán	7	Julio	2023-11-07T00:00:00	2024-11-08T05:00:00	4	Temperatura máxima	19.8
134939	7	Sololá	713	San Lucas Tolimán	10	San Lucas Tolimán	7	Julio	2023-11-07T00:00:00	2024-11-08T05:00:00	3	Temperatura mínima	18.8
134940	7	Sololá	713	San Lucas Tolimán	10	San Lucas Tolimán	7	Julio	2023-11-07T00:00:00	2024-11-08T05:00:00	5	Humedad	55
134941	7	Sololá	713	San Lucas Tolimán	10	San Lucas Tolimán	7	Julio	2023-11-07T00:00:00	2024-11-08T05:00:00	6	Velocidad del viento	3.2
134942	7	Sololá	713	San Lucas Tolimán	10	San Lucas Tolimán	7	Julio	2023-11-07T00:00:00	2024-11-08T05:00:00	7	Dirección del viento	3.22
134943	7	Sololá	713	San Lucas Tolimán	10	San Lucas Tolimán	7	Julio	2023-11-07T00:00:00	2024-11-08T05:00:00	1	Precipitación	0
134944	7	Sololá	713	San Lucas Tolimán	10	San Lucas Tolimán	7	Julio	2023-11-07T00:00:00	2024-11-08T05:00:00	8	Radiación solar	0
134945	7	Sololá	713	San Lucas Tolimán	10	San Lucas Tolimán	7	Julio	2023-11-07T00:00:00	2024-11-08T06:00:00	2	Temperatura media	20.1
134946	7	Sololá	713	San Lucas Tolimán	10	San Lucas Tolimán	7	Julio	2023-11-07T00:00:00	2024-11-08T06:00:00	4	Temperatura máxima	20.1
134947	7	Sololá	713	San Lucas Tolimán	10	San Lucas Tolimán	7	Julio	2023-11-07T00:00:00	2024-11-08T06:00:00	3	Temperatura mínima	17.7
134948	7	Sololá	713	San Lucas Tolimán	10	San Lucas Tolimán	7	Julio	2023-11-07T00:00:00	2024-11-08T06:00:00	5	Humedad	53
134949	7	Sololá	713	San Lucas Tolimán	10	San Lucas Tolimán	7	Julio	2023-11-07T00:00:00	2024-11-08T06:00:00	6	Velocidad del viento	4.8
134950	7	Sololá	713	San Lucas Tolimán	10	San Lucas Tolimán	7	Julio	2023-11-07T00:00:00	2024-11-08T06:00:00	7	Dirección del viento	4.83
134951	7	Sololá	713	San Lucas Tolimán	10	San Lucas Tolimán	7	Julio	2023-11-07T00:00:00	2024-11-08T06:00:00	1	Precipitación	0
134952	7	Sololá	713	San Lucas Tolimán	10	San Lucas Tolimán	7	Julio	2023-11-07T00:00:00	2024-11-08T06:00:00	8	Radiación solar	2
134953	7	Sololá	713	San Lucas Tolimán	10	San Lucas Tolimán	7	Julio	2023-11-07T00:00:00	2024-11-08T07:00:00	2	Temperatura media	20.9
134954	7	Sololá	713	San Lucas Tolimán	10	San Lucas Tolimán	7	Julio	2023-11-07T00:00:00	2024-11-08T07:00:00	4	Temperatura máxima	20.9
134955	7	Sololá	713	San Lucas Tolimán	10	San Lucas Tolimán	7	Julio	2023-11-07T00:00:00	2024-11-08T07:00:00	3	Temperatura mínima	20.1
134956	7	Sololá	713	San Lucas Tolimán	10	San Lucas Tolimán	7	Julio	2023-11-07T00:00:00	2024-11-08T07:00:00	5	Humedad	53
134957	7	Sololá	713	San Lucas Tolimán	10	San Lucas Tolimán	7	Julio	2023-11-07T00:00:00	2024-11-08T07:00:00	6	Velocidad del viento	12.9
134958	7	Sololá	713	San Lucas Tolimán	10	San Lucas Tolimán	7	Julio	2023-11-07T00:00:00	2024-11-08T07:00:00	7	Dirección del viento	12.87
134959	7	Sololá	713	San Lucas Tolimán	10	San Lucas Tolimán	7	Julio	2023-11-07T00:00:00	2024-11-08T07:00:00	1	Precipitación	0
134960	7	Sololá	713	San Lucas Tolimán	10	San Lucas Tolimán	7	Julio	2023-11-07T00:00:00	2024-11-08T07:00:00	8	Radiación solar	74
134961	7	Sololá	713	San Lucas Tolimán	10	San Lucas Tolimán	7	Julio	2023-11-07T00:00:00	2024-11-08T08:00:00	2	Temperatura media	21.6
134962	7	Sololá	713	San Lucas Tolimán	10	San Lucas Tolimán	7	Julio	2023-11-07T00:00:00	2024-11-08T08:00:00	4	Temperatura máxima	21.8
134963	7	Sololá	713	San Lucas Tolimán	10	San Lucas Tolimán	7	Julio	2023-11-07T00:00:00	2024-11-08T08:00:00	3	Temperatura mínima	20.9
134964	7	Sololá	713	San Lucas Tolimán	10	San Lucas Tolimán	7	Julio	2023-11-07T00:00:00	2024-11-08T08:00:00	5	Humedad	53
134965	7	Sololá	713	San Lucas Tolimán	10	San Lucas Tolimán	7	Julio	2023-11-07T00:00:00	2024-11-08T08:00:00	6	Velocidad del viento	11.3
134966	7	Sololá	713	San Lucas Tolimán	10	San Lucas Tolimán	7	Julio	2023-11-07T00:00:00	2024-11-08T08:00:00	7	Dirección del viento	11.27
134967	7	Sololá	713	San Lucas Tolimán	10	San Lucas Tolimán	7	Julio	2023-11-07T00:00:00	2024-11-08T08:00:00	1	Precipitación	0
134968	7	Sololá	713	San Lucas Tolimán	10	San Lucas Tolimán	7	Julio	2023-11-07T00:00:00	2024-11-08T08:00:00	8	Radiación solar	232
134969	7	Sololá	713	San Lucas Tolimán	10	San Lucas Tolimán	7	Julio	2023-11-07T00:00:00	2024-11-08T09:00:00	2	Temperatura media	23.4
134970	7	Sololá	713	San Lucas Tolimán	10	San Lucas Tolimán	7	Julio	2023-11-07T00:00:00	2024-11-08T09:00:00	4	Temperatura máxima	23.4
134971	7	Sololá	713	San Lucas Tolimán	10	San Lucas Tolimán	7	Julio	2023-11-07T00:00:00	2024-11-08T09:00:00	3	Temperatura mínima	21.4
134972	7	Sololá	713	San Lucas Tolimán	10	San Lucas Tolimán	7	Julio	2023-11-07T00:00:00	2024-11-08T09:00:00	5	Humedad	49
134973	7	Sololá	713	San Lucas Tolimán	10	San Lucas Tolimán	7	Julio	2023-11-07T00:00:00	2024-11-08T09:00:00	6	Velocidad del viento	3.2
134974	7	Sololá	713	San Lucas Tolimán	10	San Lucas Tolimán	7	Julio	2023-11-07T00:00:00	2024-11-08T09:00:00	7	Dirección del viento	3.22
134975	7	Sololá	713	San Lucas Tolimán	10	San Lucas Tolimán	7	Julio	2023-11-07T00:00:00	2024-11-08T09:00:00	1	Precipitación	0
134976	7	Sololá	713	San Lucas Tolimán	10	San Lucas Tolimán	7	Julio	2023-11-07T00:00:00	2024-11-08T09:00:00	8	Radiación solar	331
134977	7	Sololá	713	San Lucas Tolimán	10	San Lucas Tolimán	7	Julio	2023-11-07T00:00:00	2024-11-08T10:00:00	2	Temperatura media	25.2
134978	7	Sololá	713	San Lucas Tolimán	10	San Lucas Tolimán	7	Julio	2023-11-07T00:00:00	2024-11-08T10:00:00	4	Temperatura máxima	25.3
134979	7	Sololá	713	San Lucas Tolimán	10	San Lucas Tolimán	7	Julio	2023-11-07T00:00:00	2024-11-08T10:00:00	3	Temperatura mínima	23.4
134980	7	Sololá	713	San Lucas Tolimán	10	San Lucas Tolimán	7	Julio	2023-11-07T00:00:00	2024-11-08T10:00:00	5	Humedad	43
134981	7	Sololá	713	San Lucas Tolimán	10	San Lucas Tolimán	7	Julio	2023-11-07T00:00:00	2024-11-08T10:00:00	6	Velocidad del viento	3.2
134982	7	Sololá	713	San Lucas Tolimán	10	San Lucas Tolimán	7	Julio	2023-11-07T00:00:00	2024-11-08T10:00:00	7	Dirección del viento	3.22
134983	7	Sololá	713	San Lucas Tolimán	10	San Lucas Tolimán	7	Julio	2023-11-07T00:00:00	2024-11-08T10:00:00	1	Precipitación	0
134984	7	Sololá	713	San Lucas Tolimán	10	San Lucas Tolimán	7	Julio	2023-11-07T00:00:00	2024-11-08T10:00:00	8	Radiación solar	550
134985	7	Sololá	713	San Lucas Tolimán	10	San Lucas Tolimán	7	Julio	2023-11-07T00:00:00	2024-11-08T11:00:00	2	Temperatura media	25.3
134986	7	Sololá	713	San Lucas Tolimán	10	San Lucas Tolimán	7	Julio	2023-11-07T00:00:00	2024-11-08T11:00:00	4	Temperatura máxima	25.3
134987	7	Sololá	713	San Lucas Tolimán	10	San Lucas Tolimán	7	Julio	2023-11-07T00:00:00	2024-11-08T11:00:00	3	Temperatura mínima	24.8
134988	7	Sololá	713	San Lucas Tolimán	10	San Lucas Tolimán	7	Julio	2023-11-07T00:00:00	2024-11-08T11:00:00	5	Humedad	42
134989	7	Sololá	713	San Lucas Tolimán	10	San Lucas Tolimán	7	Julio	2023-11-07T00:00:00	2024-11-08T11:00:00	6	Velocidad del viento	8
134990	7	Sololá	713	San Lucas Tolimán	10	San Lucas Tolimán	7	Julio	2023-11-07T00:00:00	2024-11-08T11:00:00	7	Dirección del viento	8.05
134991	7	Sololá	713	San Lucas Tolimán	10	San Lucas Tolimán	7	Julio	2023-11-07T00:00:00	2024-11-08T11:00:00	1	Precipitación	0
134992	7	Sololá	713	San Lucas Tolimán	10	San Lucas Tolimán	7	Julio	2023-11-07T00:00:00	2024-11-08T11:00:00	8	Radiación solar	627
134993	7	Sololá	713	San Lucas Tolimán	10	San Lucas Tolimán	7	Julio	2023-11-07T00:00:00	2024-11-08T12:00:00	2	Temperatura media	26.3
134994	7	Sololá	713	San Lucas Tolimán	10	San Lucas Tolimán	7	Julio	2023-11-07T00:00:00	2024-11-08T12:00:00	4	Temperatura máxima	26.4
134995	7	Sololá	713	San Lucas Tolimán	10	San Lucas Tolimán	7	Julio	2023-11-07T00:00:00	2024-11-08T12:00:00	3	Temperatura mínima	25.3
134996	7	Sololá	713	San Lucas Tolimán	10	San Lucas Tolimán	7	Julio	2023-11-07T00:00:00	2024-11-08T12:00:00	5	Humedad	39
134997	7	Sololá	713	San Lucas Tolimán	10	San Lucas Tolimán	7	Julio	2023-11-07T00:00:00	2024-11-08T12:00:00	6	Velocidad del viento	8
134998	7	Sololá	713	San Lucas Tolimán	10	San Lucas Tolimán	7	Julio	2023-11-07T00:00:00	2024-11-08T12:00:00	7	Dirección del viento	8.05
134999	7	Sololá	713	San Lucas Tolimán	10	San Lucas Tolimán	7	Julio	2023-11-07T00:00:00	2024-11-08T12:00:00	1	Precipitación	0
135000	7	Sololá	713	San Lucas Tolimán	10	San Lucas Tolimán	7	Julio	2023-11-07T00:00:00	2024-11-08T12:00:00	8	Radiación solar	1004
135001	7	Sololá	713	San Lucas Tolimán	10	San Lucas Tolimán	7	Julio	2023-11-07T00:00:00	2024-11-08T13:00:00	2	Temperatura media	25.7
135002	7	Sololá	713	San Lucas Tolimán	10	San Lucas Tolimán	7	Julio	2023-11-07T00:00:00	2024-11-08T13:00:00	4	Temperatura máxima	26.7
135003	7	Sololá	713	San Lucas Tolimán	10	San Lucas Tolimán	7	Julio	2023-11-07T00:00:00	2024-11-08T13:00:00	3	Temperatura mínima	25.6
135004	7	Sololá	713	San Lucas Tolimán	10	San Lucas Tolimán	7	Julio	2023-11-07T00:00:00	2024-11-08T13:00:00	5	Humedad	57
135005	7	Sololá	713	San Lucas Tolimán	10	San Lucas Tolimán	7	Julio	2023-11-07T00:00:00	2024-11-08T13:00:00	6	Velocidad del viento	6.4
135006	7	Sololá	713	San Lucas Tolimán	10	San Lucas Tolimán	7	Julio	2023-11-07T00:00:00	2024-11-08T13:00:00	7	Dirección del viento	6.44
135007	7	Sololá	713	San Lucas Tolimán	10	San Lucas Tolimán	7	Julio	2023-11-07T00:00:00	2024-11-08T13:00:00	1	Precipitación	0
135008	7	Sololá	713	San Lucas Tolimán	10	San Lucas Tolimán	7	Julio	2023-11-07T00:00:00	2024-11-08T13:00:00	8	Radiación solar	723
135009	7	Sololá	713	San Lucas Tolimán	10	San Lucas Tolimán	7	Julio	2023-11-07T00:00:00	2024-11-08T14:00:00	2	Temperatura media	26.2
135010	7	Sololá	713	San Lucas Tolimán	10	San Lucas Tolimán	7	Julio	2023-11-07T00:00:00	2024-11-08T14:00:00	4	Temperatura máxima	27
135011	7	Sololá	713	San Lucas Tolimán	10	San Lucas Tolimán	7	Julio	2023-11-07T00:00:00	2024-11-08T14:00:00	3	Temperatura mínima	25.7
135012	7	Sololá	713	San Lucas Tolimán	10	San Lucas Tolimán	7	Julio	2023-11-07T00:00:00	2024-11-08T14:00:00	5	Humedad	37
135013	7	Sololá	713	San Lucas Tolimán	10	San Lucas Tolimán	7	Julio	2023-11-07T00:00:00	2024-11-08T14:00:00	6	Velocidad del viento	8
135014	7	Sololá	713	San Lucas Tolimán	10	San Lucas Tolimán	7	Julio	2023-11-07T00:00:00	2024-11-08T14:00:00	7	Dirección del viento	8.05
135015	7	Sololá	713	San Lucas Tolimán	10	San Lucas Tolimán	7	Julio	2023-11-07T00:00:00	2024-11-08T14:00:00	1	Precipitación	0
135016	7	Sololá	713	San Lucas Tolimán	10	San Lucas Tolimán	7	Julio	2023-11-07T00:00:00	2024-11-08T14:00:00	8	Radiación solar	806
135017	7	Sololá	713	San Lucas Tolimán	10	San Lucas Tolimán	7	Julio	2023-11-07T00:00:00	2024-11-08T15:00:00	2	Temperatura media	26.2
135018	7	Sololá	713	San Lucas Tolimán	10	San Lucas Tolimán	7	Julio	2023-11-07T00:00:00	2024-11-08T15:00:00	4	Temperatura máxima	26.5
135019	7	Sololá	713	San Lucas Tolimán	10	San Lucas Tolimán	7	Julio	2023-11-07T00:00:00	2024-11-08T15:00:00	3	Temperatura mínima	25.9
135020	7	Sololá	713	San Lucas Tolimán	10	San Lucas Tolimán	7	Julio	2023-11-07T00:00:00	2024-11-08T15:00:00	5	Humedad	48
135021	7	Sololá	713	San Lucas Tolimán	10	San Lucas Tolimán	7	Julio	2023-11-07T00:00:00	2024-11-08T15:00:00	6	Velocidad del viento	11.3
135022	7	Sololá	713	San Lucas Tolimán	10	San Lucas Tolimán	7	Julio	2023-11-07T00:00:00	2024-11-08T15:00:00	7	Dirección del viento	11.27
135023	7	Sololá	713	San Lucas Tolimán	10	San Lucas Tolimán	7	Julio	2023-11-07T00:00:00	2024-11-08T15:00:00	1	Precipitación	0
135024	7	Sololá	713	San Lucas Tolimán	10	San Lucas Tolimán	7	Julio	2023-11-07T00:00:00	2024-11-08T15:00:00	8	Radiación solar	601
135025	7	Sololá	713	San Lucas Tolimán	10	San Lucas Tolimán	7	Julio	2023-11-07T00:00:00	2024-11-08T16:00:00	2	Temperatura media	25.9
135026	7	Sololá	713	San Lucas Tolimán	10	San Lucas Tolimán	7	Julio	2023-11-07T00:00:00	2024-11-08T16:00:00	4	Temperatura máxima	27.2
135027	7	Sololá	713	San Lucas Tolimán	10	San Lucas Tolimán	7	Julio	2023-11-07T00:00:00	2024-11-08T16:00:00	3	Temperatura mínima	25.9
135028	7	Sololá	713	San Lucas Tolimán	10	San Lucas Tolimán	7	Julio	2023-11-07T00:00:00	2024-11-08T16:00:00	5	Humedad	41
135029	7	Sololá	713	San Lucas Tolimán	10	San Lucas Tolimán	7	Julio	2023-11-07T00:00:00	2024-11-08T16:00:00	6	Velocidad del viento	9.7
135030	7	Sololá	713	San Lucas Tolimán	10	San Lucas Tolimán	7	Julio	2023-11-07T00:00:00	2024-11-08T16:00:00	7	Dirección del viento	9.66
135031	7	Sololá	713	San Lucas Tolimán	10	San Lucas Tolimán	7	Julio	2023-11-07T00:00:00	2024-11-08T16:00:00	1	Precipitación	0
135032	7	Sololá	713	San Lucas Tolimán	10	San Lucas Tolimán	7	Julio	2023-11-07T00:00:00	2024-11-08T16:00:00	8	Radiación solar	667
135033	7	Sololá	713	San Lucas Tolimán	10	San Lucas Tolimán	7	Julio	2023-11-07T00:00:00	2024-11-08T17:00:00	2	Temperatura media	24.4
135034	7	Sololá	713	San Lucas Tolimán	10	San Lucas Tolimán	7	Julio	2023-11-07T00:00:00	2024-11-08T17:00:00	4	Temperatura máxima	26.4
135035	7	Sololá	713	San Lucas Tolimán	10	San Lucas Tolimán	7	Julio	2023-11-07T00:00:00	2024-11-08T17:00:00	3	Temperatura mínima	24.4
135036	7	Sololá	713	San Lucas Tolimán	10	San Lucas Tolimán	7	Julio	2023-11-07T00:00:00	2024-11-08T17:00:00	5	Humedad	57
135037	7	Sololá	713	San Lucas Tolimán	10	San Lucas Tolimán	7	Julio	2023-11-07T00:00:00	2024-11-08T17:00:00	6	Velocidad del viento	4.8
135038	7	Sololá	713	San Lucas Tolimán	10	San Lucas Tolimán	7	Julio	2023-11-07T00:00:00	2024-11-08T17:00:00	7	Dirección del viento	4.83
135039	7	Sololá	713	San Lucas Tolimán	10	San Lucas Tolimán	7	Julio	2023-11-07T00:00:00	2024-11-08T17:00:00	1	Precipitación	0
135040	7	Sololá	713	San Lucas Tolimán	10	San Lucas Tolimán	7	Julio	2023-11-07T00:00:00	2024-11-08T17:00:00	8	Radiación solar	233
135041	7	Sololá	713	San Lucas Tolimán	10	San Lucas Tolimán	7	Julio	2023-11-07T00:00:00	2024-11-08T18:00:00	2	Temperatura media	22.4
135042	7	Sololá	713	San Lucas Tolimán	10	San Lucas Tolimán	7	Julio	2023-11-07T00:00:00	2024-11-08T18:00:00	4	Temperatura máxima	24.7
135043	7	Sololá	713	San Lucas Tolimán	10	San Lucas Tolimán	7	Julio	2023-11-07T00:00:00	2024-11-08T18:00:00	3	Temperatura mínima	22.4
135044	7	Sololá	713	San Lucas Tolimán	10	San Lucas Tolimán	7	Julio	2023-11-07T00:00:00	2024-11-08T18:00:00	5	Humedad	59
135045	7	Sololá	713	San Lucas Tolimán	10	San Lucas Tolimán	7	Julio	2023-11-07T00:00:00	2024-11-08T18:00:00	6	Velocidad del viento	4.8
135046	7	Sololá	713	San Lucas Tolimán	10	San Lucas Tolimán	7	Julio	2023-11-07T00:00:00	2024-11-08T18:00:00	7	Dirección del viento	4.83
135047	7	Sololá	713	San Lucas Tolimán	10	San Lucas Tolimán	7	Julio	2023-11-07T00:00:00	2024-11-08T18:00:00	1	Precipitación	0
135048	7	Sololá	713	San Lucas Tolimán	10	San Lucas Tolimán	7	Julio	2023-11-07T00:00:00	2024-11-08T18:00:00	8	Radiación solar	81
135049	7	Sololá	713	San Lucas Tolimán	10	San Lucas Tolimán	7	Julio	2023-11-07T00:00:00	2024-11-08T19:00:00	2	Temperatura media	21.6
135050	7	Sololá	713	San Lucas Tolimán	10	San Lucas Tolimán	7	Julio	2023-11-07T00:00:00	2024-11-08T19:00:00	4	Temperatura máxima	22.4
135051	7	Sololá	713	San Lucas Tolimán	10	San Lucas Tolimán	7	Julio	2023-11-07T00:00:00	2024-11-08T19:00:00	3	Temperatura mínima	21.4
135052	7	Sololá	713	San Lucas Tolimán	10	San Lucas Tolimán	7	Julio	2023-11-07T00:00:00	2024-11-08T19:00:00	5	Humedad	55
135053	7	Sololá	713	San Lucas Tolimán	10	San Lucas Tolimán	7	Julio	2023-11-07T00:00:00	2024-11-08T19:00:00	6	Velocidad del viento	3.2
135054	7	Sololá	713	San Lucas Tolimán	10	San Lucas Tolimán	7	Julio	2023-11-07T00:00:00	2024-11-08T19:00:00	7	Dirección del viento	3.22
135055	7	Sololá	713	San Lucas Tolimán	10	San Lucas Tolimán	7	Julio	2023-11-07T00:00:00	2024-11-08T19:00:00	1	Precipitación	0
135056	7	Sololá	713	San Lucas Tolimán	10	San Lucas Tolimán	7	Julio	2023-11-07T00:00:00	2024-11-08T19:00:00	8	Radiación solar	0
135057	7	Sololá	713	San Lucas Tolimán	10	San Lucas Tolimán	7	Julio	2023-11-07T00:00:00	2024-11-08T20:00:00	2	Temperatura media	22.1
135058	7	Sololá	713	San Lucas Tolimán	10	San Lucas Tolimán	7	Julio	2023-11-07T00:00:00	2024-11-08T20:00:00	4	Temperatura máxima	22.3
135059	7	Sololá	713	San Lucas Tolimán	10	San Lucas Tolimán	7	Julio	2023-11-07T00:00:00	2024-11-08T20:00:00	3	Temperatura mínima	21.2
135060	7	Sololá	713	San Lucas Tolimán	10	San Lucas Tolimán	7	Julio	2023-11-07T00:00:00	2024-11-08T20:00:00	5	Humedad	54
135061	7	Sololá	713	San Lucas Tolimán	10	San Lucas Tolimán	7	Julio	2023-11-07T00:00:00	2024-11-08T20:00:00	6	Velocidad del viento	4.8
135062	7	Sololá	713	San Lucas Tolimán	10	San Lucas Tolimán	7	Julio	2023-11-07T00:00:00	2024-11-08T20:00:00	7	Dirección del viento	4.83
135063	7	Sololá	713	San Lucas Tolimán	10	San Lucas Tolimán	7	Julio	2023-11-07T00:00:00	2024-11-08T20:00:00	1	Precipitación	0
135064	7	Sololá	713	San Lucas Tolimán	10	San Lucas Tolimán	7	Julio	2023-11-07T00:00:00	2024-11-08T20:00:00	8	Radiación solar	0
135065	7	Sololá	713	San Lucas Tolimán	10	San Lucas Tolimán	7	Julio	2023-11-07T00:00:00	2024-11-08T21:00:00	2	Temperatura media	22.2
135066	7	Sololá	713	San Lucas Tolimán	10	San Lucas Tolimán	7	Julio	2023-11-07T00:00:00	2024-11-08T21:00:00	4	Temperatura máxima	22.3
135067	7	Sololá	713	San Lucas Tolimán	10	San Lucas Tolimán	7	Julio	2023-11-07T00:00:00	2024-11-08T21:00:00	3	Temperatura mínima	22.1
135068	7	Sololá	713	San Lucas Tolimán	10	San Lucas Tolimán	7	Julio	2023-11-07T00:00:00	2024-11-08T21:00:00	5	Humedad	52
135069	7	Sololá	713	San Lucas Tolimán	10	San Lucas Tolimán	7	Julio	2023-11-07T00:00:00	2024-11-08T21:00:00	6	Velocidad del viento	19.3
135070	7	Sololá	713	San Lucas Tolimán	10	San Lucas Tolimán	7	Julio	2023-11-07T00:00:00	2024-11-08T21:00:00	7	Dirección del viento	19.31
135071	7	Sololá	713	San Lucas Tolimán	10	San Lucas Tolimán	7	Julio	2023-11-07T00:00:00	2024-11-08T21:00:00	1	Precipitación	0
135072	7	Sololá	713	San Lucas Tolimán	10	San Lucas Tolimán	7	Julio	2023-11-07T00:00:00	2024-11-08T21:00:00	8	Radiación solar	0
135073	7	Sololá	713	San Lucas Tolimán	10	San Lucas Tolimán	7	Julio	2023-11-07T00:00:00	2024-11-08T22:00:00	2	Temperatura media	22
135074	7	Sololá	713	San Lucas Tolimán	10	San Lucas Tolimán	7	Julio	2023-11-07T00:00:00	2024-11-08T22:00:00	4	Temperatura máxima	22.3
135075	7	Sololá	713	San Lucas Tolimán	10	San Lucas Tolimán	7	Julio	2023-11-07T00:00:00	2024-11-08T22:00:00	3	Temperatura mínima	22
135076	7	Sololá	713	San Lucas Tolimán	10	San Lucas Tolimán	7	Julio	2023-11-07T00:00:00	2024-11-08T22:00:00	5	Humedad	52
135077	7	Sololá	713	San Lucas Tolimán	10	San Lucas Tolimán	7	Julio	2023-11-07T00:00:00	2024-11-08T22:00:00	6	Velocidad del viento	16.1
135078	7	Sololá	713	San Lucas Tolimán	10	San Lucas Tolimán	7	Julio	2023-11-07T00:00:00	2024-11-08T22:00:00	7	Dirección del viento	16.09
135079	7	Sololá	713	San Lucas Tolimán	10	San Lucas Tolimán	7	Julio	2023-11-07T00:00:00	2024-11-08T22:00:00	1	Precipitación	0
135080	7	Sololá	713	San Lucas Tolimán	10	San Lucas Tolimán	7	Julio	2023-11-07T00:00:00	2024-11-08T22:00:00	8	Radiación solar	0
135081	7	Sololá	713	San Lucas Tolimán	10	San Lucas Tolimán	7	Julio	2023-11-07T00:00:00	2024-11-08T23:00:00	2	Temperatura media	21.9
135082	7	Sololá	713	San Lucas Tolimán	10	San Lucas Tolimán	7	Julio	2023-11-07T00:00:00	2024-11-08T23:00:00	4	Temperatura máxima	22.1
135083	7	Sololá	713	San Lucas Tolimán	10	San Lucas Tolimán	7	Julio	2023-11-07T00:00:00	2024-11-08T23:00:00	3	Temperatura mínima	21.2
135084	7	Sololá	713	San Lucas Tolimán	10	San Lucas Tolimán	7	Julio	2023-11-07T00:00:00	2024-11-08T23:00:00	5	Humedad	52
135085	7	Sololá	713	San Lucas Tolimán	10	San Lucas Tolimán	7	Julio	2023-11-07T00:00:00	2024-11-08T23:00:00	6	Velocidad del viento	9.7
135086	7	Sololá	713	San Lucas Tolimán	10	San Lucas Tolimán	7	Julio	2023-11-07T00:00:00	2024-11-08T23:00:00	7	Dirección del viento	9.66
135087	7	Sololá	713	San Lucas Tolimán	10	San Lucas Tolimán	7	Julio	2023-11-07T00:00:00	2024-11-08T23:00:00	1	Precipitación	0
135088	7	Sololá	713	San Lucas Tolimán	10	San Lucas Tolimán	7	Julio	2023-11-07T00:00:00	2024-11-08T23:00:00	8	Radiación solar	0
135089	7	Sololá	713	San Lucas Tolimán	10	San Lucas Tolimán	7	Julio	2023-12-07T00:00:00	2024-11-08T00:00:00	2	Temperatura media	20.5
135090	7	Sololá	713	San Lucas Tolimán	10	San Lucas Tolimán	7	Julio	2023-12-07T00:00:00	2024-11-08T00:00:00	4	Temperatura máxima	22
135091	7	Sololá	713	San Lucas Tolimán	10	San Lucas Tolimán	7	Julio	2023-12-07T00:00:00	2024-11-08T00:00:00	3	Temperatura mínima	20.4
135092	7	Sololá	713	San Lucas Tolimán	10	San Lucas Tolimán	7	Julio	2023-12-07T00:00:00	2024-11-08T00:00:00	5	Humedad	57
135093	7	Sololá	713	San Lucas Tolimán	10	San Lucas Tolimán	7	Julio	2023-12-07T00:00:00	2024-11-08T00:00:00	6	Velocidad del viento	4.8
135094	7	Sololá	713	San Lucas Tolimán	10	San Lucas Tolimán	7	Julio	2023-12-07T00:00:00	2024-11-08T00:00:00	7	Dirección del viento	4.83
135095	7	Sololá	713	San Lucas Tolimán	10	San Lucas Tolimán	7	Julio	2023-12-07T00:00:00	2024-11-08T00:00:00	1	Precipitación	0
135096	7	Sololá	713	San Lucas Tolimán	10	San Lucas Tolimán	7	Julio	2023-12-07T00:00:00	2024-11-08T00:00:00	8	Radiación solar	0
135097	7	Sololá	713	San Lucas Tolimán	10	San Lucas Tolimán	7	Julio	2023-12-07T00:00:00	2024-11-08T01:00:00	2	Temperatura media	19.3
135098	7	Sololá	713	San Lucas Tolimán	10	San Lucas Tolimán	7	Julio	2023-12-07T00:00:00	2024-11-08T01:00:00	4	Temperatura máxima	20.4
135099	7	Sololá	713	San Lucas Tolimán	10	San Lucas Tolimán	7	Julio	2023-12-07T00:00:00	2024-11-08T01:00:00	3	Temperatura mínima	19.3
135100	7	Sololá	713	San Lucas Tolimán	10	San Lucas Tolimán	7	Julio	2023-12-07T00:00:00	2024-11-08T01:00:00	5	Humedad	78
135101	7	Sololá	713	San Lucas Tolimán	10	San Lucas Tolimán	7	Julio	2023-12-07T00:00:00	2024-11-08T01:00:00	6	Velocidad del viento	1.6
135102	7	Sololá	713	San Lucas Tolimán	10	San Lucas Tolimán	7	Julio	2023-12-07T00:00:00	2024-11-08T01:00:00	7	Dirección del viento	1.61
135103	7	Sololá	713	San Lucas Tolimán	10	San Lucas Tolimán	7	Julio	2023-12-07T00:00:00	2024-11-08T01:00:00	1	Precipitación	0
135104	7	Sololá	713	San Lucas Tolimán	10	San Lucas Tolimán	7	Julio	2023-12-07T00:00:00	2024-11-08T01:00:00	8	Radiación solar	0
135105	7	Sololá	713	San Lucas Tolimán	10	San Lucas Tolimán	7	Julio	2023-12-07T00:00:00	2024-11-08T02:00:00	2	Temperatura media	18.2
135106	7	Sololá	713	San Lucas Tolimán	10	San Lucas Tolimán	7	Julio	2023-12-07T00:00:00	2024-11-08T02:00:00	4	Temperatura máxima	19.3
135107	7	Sololá	713	San Lucas Tolimán	10	San Lucas Tolimán	7	Julio	2023-12-07T00:00:00	2024-11-08T02:00:00	3	Temperatura mínima	18.1
135108	7	Sololá	713	San Lucas Tolimán	10	San Lucas Tolimán	7	Julio	2023-12-07T00:00:00	2024-11-08T02:00:00	5	Humedad	80
135109	7	Sololá	713	San Lucas Tolimán	10	San Lucas Tolimán	7	Julio	2023-12-07T00:00:00	2024-11-08T02:00:00	6	Velocidad del viento	1.6
135110	7	Sololá	713	San Lucas Tolimán	10	San Lucas Tolimán	7	Julio	2023-12-07T00:00:00	2024-11-08T02:00:00	7	Dirección del viento	1.61
135111	7	Sololá	713	San Lucas Tolimán	10	San Lucas Tolimán	7	Julio	2023-12-07T00:00:00	2024-11-08T02:00:00	1	Precipitación	0
135112	7	Sololá	713	San Lucas Tolimán	10	San Lucas Tolimán	7	Julio	2023-12-07T00:00:00	2024-11-08T02:00:00	8	Radiación solar	0
135113	7	Sololá	713	San Lucas Tolimán	10	San Lucas Tolimán	7	Julio	2023-12-07T00:00:00	2024-11-08T03:00:00	2	Temperatura media	19.2
135114	7	Sololá	713	San Lucas Tolimán	10	San Lucas Tolimán	7	Julio	2023-12-07T00:00:00	2024-11-08T03:00:00	4	Temperatura máxima	19.2
135115	7	Sololá	713	San Lucas Tolimán	10	San Lucas Tolimán	7	Julio	2023-12-07T00:00:00	2024-11-08T03:00:00	3	Temperatura mínima	18.1
135116	7	Sololá	713	San Lucas Tolimán	10	San Lucas Tolimán	7	Julio	2023-12-07T00:00:00	2024-11-08T03:00:00	5	Humedad	74
135117	7	Sololá	713	San Lucas Tolimán	10	San Lucas Tolimán	7	Julio	2023-12-07T00:00:00	2024-11-08T03:00:00	6	Velocidad del viento	1.6
135118	7	Sololá	713	San Lucas Tolimán	10	San Lucas Tolimán	7	Julio	2023-12-07T00:00:00	2024-11-08T03:00:00	7	Dirección del viento	1.61
135119	7	Sololá	713	San Lucas Tolimán	10	San Lucas Tolimán	7	Julio	2023-12-07T00:00:00	2024-11-08T03:00:00	1	Precipitación	0
135120	7	Sololá	713	San Lucas Tolimán	10	San Lucas Tolimán	7	Julio	2023-12-07T00:00:00	2024-11-08T03:00:00	8	Radiación solar	0
135121	7	Sololá	713	San Lucas Tolimán	10	San Lucas Tolimán	7	Julio	2023-12-07T00:00:00	2024-11-08T04:00:00	2	Temperatura media	21
135122	7	Sololá	713	San Lucas Tolimán	10	San Lucas Tolimán	7	Julio	2023-12-07T00:00:00	2024-11-08T04:00:00	4	Temperatura máxima	21.1
135123	7	Sololá	713	San Lucas Tolimán	10	San Lucas Tolimán	7	Julio	2023-12-07T00:00:00	2024-11-08T04:00:00	3	Temperatura mínima	19.2
135124	7	Sololá	713	San Lucas Tolimán	10	San Lucas Tolimán	7	Julio	2023-12-07T00:00:00	2024-11-08T04:00:00	5	Humedad	68
135125	7	Sololá	713	San Lucas Tolimán	10	San Lucas Tolimán	7	Julio	2023-12-07T00:00:00	2024-11-08T04:00:00	6	Velocidad del viento	4.8
135126	7	Sololá	713	San Lucas Tolimán	10	San Lucas Tolimán	7	Julio	2023-12-07T00:00:00	2024-11-08T04:00:00	7	Dirección del viento	4.83
135127	7	Sololá	713	San Lucas Tolimán	10	San Lucas Tolimán	7	Julio	2023-12-07T00:00:00	2024-11-08T04:00:00	1	Precipitación	0
135128	7	Sololá	713	San Lucas Tolimán	10	San Lucas Tolimán	7	Julio	2023-12-07T00:00:00	2024-11-08T04:00:00	8	Radiación solar	0
135129	7	Sololá	713	San Lucas Tolimán	10	San Lucas Tolimán	7	Julio	2023-12-07T00:00:00	2024-11-08T05:00:00	2	Temperatura media	19.8
135130	7	Sololá	713	San Lucas Tolimán	10	San Lucas Tolimán	7	Julio	2023-12-07T00:00:00	2024-11-08T05:00:00	4	Temperatura máxima	21.1
135131	7	Sololá	713	San Lucas Tolimán	10	San Lucas Tolimán	7	Julio	2023-12-07T00:00:00	2024-11-08T05:00:00	3	Temperatura mínima	19.8
135132	7	Sololá	713	San Lucas Tolimán	10	San Lucas Tolimán	7	Julio	2023-12-07T00:00:00	2024-11-08T05:00:00	5	Humedad	73
135133	7	Sololá	713	San Lucas Tolimán	10	San Lucas Tolimán	7	Julio	2023-12-07T00:00:00	2024-11-08T05:00:00	6	Velocidad del viento	3.2
135134	7	Sololá	713	San Lucas Tolimán	10	San Lucas Tolimán	7	Julio	2023-12-07T00:00:00	2024-11-08T05:00:00	7	Dirección del viento	3.22
135135	7	Sololá	713	San Lucas Tolimán	10	San Lucas Tolimán	7	Julio	2023-12-07T00:00:00	2024-11-08T05:00:00	1	Precipitación	0
135136	7	Sololá	713	San Lucas Tolimán	10	San Lucas Tolimán	7	Julio	2023-12-07T00:00:00	2024-11-08T05:00:00	8	Radiación solar	0
135137	7	Sololá	713	San Lucas Tolimán	10	San Lucas Tolimán	7	Julio	2023-12-07T00:00:00	2024-11-08T06:00:00	2	Temperatura media	19.3
135138	7	Sololá	713	San Lucas Tolimán	10	San Lucas Tolimán	7	Julio	2023-12-07T00:00:00	2024-11-08T06:00:00	4	Temperatura máxima	19.8
135139	7	Sololá	713	San Lucas Tolimán	10	San Lucas Tolimán	7	Julio	2023-12-07T00:00:00	2024-11-08T06:00:00	3	Temperatura mínima	19.2
135140	7	Sololá	713	San Lucas Tolimán	10	San Lucas Tolimán	7	Julio	2023-12-07T00:00:00	2024-11-08T06:00:00	5	Humedad	77
135141	7	Sololá	713	San Lucas Tolimán	10	San Lucas Tolimán	7	Julio	2023-12-07T00:00:00	2024-11-08T06:00:00	6	Velocidad del viento	3.2
135142	7	Sololá	713	San Lucas Tolimán	10	San Lucas Tolimán	7	Julio	2023-12-07T00:00:00	2024-11-08T06:00:00	7	Dirección del viento	3.22
135143	7	Sololá	713	San Lucas Tolimán	10	San Lucas Tolimán	7	Julio	2023-12-07T00:00:00	2024-11-08T06:00:00	1	Precipitación	0
135144	7	Sololá	713	San Lucas Tolimán	10	San Lucas Tolimán	7	Julio	2023-12-07T00:00:00	2024-11-08T06:00:00	8	Radiación solar	3
135145	7	Sololá	713	San Lucas Tolimán	10	San Lucas Tolimán	7	Julio	2023-12-07T00:00:00	2024-11-08T07:00:00	2	Temperatura media	21.4
135146	7	Sololá	713	San Lucas Tolimán	10	San Lucas Tolimán	7	Julio	2023-12-07T00:00:00	2024-11-08T07:00:00	4	Temperatura máxima	21.4
135147	7	Sololá	713	San Lucas Tolimán	10	San Lucas Tolimán	7	Julio	2023-12-07T00:00:00	2024-11-08T07:00:00	3	Temperatura mínima	19.4
135148	7	Sololá	713	San Lucas Tolimán	10	San Lucas Tolimán	7	Julio	2023-12-07T00:00:00	2024-11-08T07:00:00	5	Humedad	67
135149	7	Sololá	713	San Lucas Tolimán	10	San Lucas Tolimán	7	Julio	2023-12-07T00:00:00	2024-11-08T07:00:00	6	Velocidad del viento	4.8
135150	7	Sololá	713	San Lucas Tolimán	10	San Lucas Tolimán	7	Julio	2023-12-07T00:00:00	2024-11-08T07:00:00	7	Dirección del viento	4.83
135151	7	Sololá	713	San Lucas Tolimán	10	San Lucas Tolimán	7	Julio	2023-12-07T00:00:00	2024-11-08T07:00:00	1	Precipitación	0
135152	7	Sololá	713	San Lucas Tolimán	10	San Lucas Tolimán	7	Julio	2023-12-07T00:00:00	2024-11-08T07:00:00	8	Radiación solar	101
135153	7	Sololá	713	San Lucas Tolimán	10	San Lucas Tolimán	7	Julio	2023-12-07T00:00:00	2024-11-08T08:00:00	2	Temperatura media	23.6
135154	7	Sololá	713	San Lucas Tolimán	10	San Lucas Tolimán	7	Julio	2023-12-07T00:00:00	2024-11-08T08:00:00	4	Temperatura máxima	23.6
135155	7	Sololá	713	San Lucas Tolimán	10	San Lucas Tolimán	7	Julio	2023-12-07T00:00:00	2024-11-08T08:00:00	3	Temperatura mínima	21.4
135156	7	Sololá	713	San Lucas Tolimán	10	San Lucas Tolimán	7	Julio	2023-12-07T00:00:00	2024-11-08T08:00:00	5	Humedad	61
135157	7	Sololá	713	San Lucas Tolimán	10	San Lucas Tolimán	7	Julio	2023-12-07T00:00:00	2024-11-08T08:00:00	6	Velocidad del viento	3.2
135158	7	Sololá	713	San Lucas Tolimán	10	San Lucas Tolimán	7	Julio	2023-12-07T00:00:00	2024-11-08T08:00:00	7	Dirección del viento	3.22
135159	7	Sololá	713	San Lucas Tolimán	10	San Lucas Tolimán	7	Julio	2023-12-07T00:00:00	2024-11-08T08:00:00	1	Precipitación	0
135160	7	Sololá	713	San Lucas Tolimán	10	San Lucas Tolimán	7	Julio	2023-12-07T00:00:00	2024-11-08T08:00:00	8	Radiación solar	246
135161	7	Sololá	713	San Lucas Tolimán	10	San Lucas Tolimán	7	Julio	2023-12-07T00:00:00	2024-11-08T09:00:00	2	Temperatura media	23.7
135162	7	Sololá	713	San Lucas Tolimán	10	San Lucas Tolimán	7	Julio	2023-12-07T00:00:00	2024-11-08T09:00:00	4	Temperatura máxima	23.7
135163	7	Sololá	713	San Lucas Tolimán	10	San Lucas Tolimán	7	Julio	2023-12-07T00:00:00	2024-11-08T09:00:00	3	Temperatura mínima	22.8
135164	7	Sololá	713	San Lucas Tolimán	10	San Lucas Tolimán	7	Julio	2023-12-07T00:00:00	2024-11-08T09:00:00	5	Humedad	60
135165	7	Sololá	713	San Lucas Tolimán	10	San Lucas Tolimán	7	Julio	2023-12-07T00:00:00	2024-11-08T09:00:00	6	Velocidad del viento	6.4
135166	7	Sololá	713	San Lucas Tolimán	10	San Lucas Tolimán	7	Julio	2023-12-07T00:00:00	2024-11-08T09:00:00	7	Dirección del viento	6.44
135167	7	Sololá	713	San Lucas Tolimán	10	San Lucas Tolimán	7	Julio	2023-12-07T00:00:00	2024-11-08T09:00:00	1	Precipitación	0
135168	7	Sololá	713	San Lucas Tolimán	10	San Lucas Tolimán	7	Julio	2023-12-07T00:00:00	2024-11-08T09:00:00	8	Radiación solar	452
135169	7	Sololá	713	San Lucas Tolimán	10	San Lucas Tolimán	7	Julio	2023-12-07T00:00:00	2024-11-08T10:00:00	2	Temperatura media	25.2
135170	7	Sololá	713	San Lucas Tolimán	10	San Lucas Tolimán	7	Julio	2023-12-07T00:00:00	2024-11-08T10:00:00	4	Temperatura máxima	25.2
135171	7	Sololá	713	San Lucas Tolimán	10	San Lucas Tolimán	7	Julio	2023-12-07T00:00:00	2024-11-08T10:00:00	3	Temperatura mínima	23.7
135172	7	Sololá	713	San Lucas Tolimán	10	San Lucas Tolimán	7	Julio	2023-12-07T00:00:00	2024-11-08T10:00:00	5	Humedad	56
135173	7	Sololá	713	San Lucas Tolimán	10	San Lucas Tolimán	7	Julio	2023-12-07T00:00:00	2024-11-08T10:00:00	6	Velocidad del viento	6.4
135174	7	Sololá	713	San Lucas Tolimán	10	San Lucas Tolimán	7	Julio	2023-12-07T00:00:00	2024-11-08T10:00:00	7	Dirección del viento	6.44
135175	7	Sololá	713	San Lucas Tolimán	10	San Lucas Tolimán	7	Julio	2023-12-07T00:00:00	2024-11-08T10:00:00	1	Precipitación	0
135176	7	Sololá	713	San Lucas Tolimán	10	San Lucas Tolimán	7	Julio	2023-12-07T00:00:00	2024-11-08T10:00:00	8	Radiación solar	597
135177	7	Sololá	713	San Lucas Tolimán	10	San Lucas Tolimán	7	Julio	2023-12-07T00:00:00	2024-11-08T11:00:00	2	Temperatura media	26.2
135178	7	Sololá	713	San Lucas Tolimán	10	San Lucas Tolimán	7	Julio	2023-12-07T00:00:00	2024-11-08T11:00:00	4	Temperatura máxima	26.2
135179	7	Sololá	713	San Lucas Tolimán	10	San Lucas Tolimán	7	Julio	2023-12-07T00:00:00	2024-11-08T11:00:00	3	Temperatura mínima	25.1
135180	7	Sololá	713	San Lucas Tolimán	10	San Lucas Tolimán	7	Julio	2023-12-07T00:00:00	2024-11-08T11:00:00	5	Humedad	53
135181	7	Sololá	713	San Lucas Tolimán	10	San Lucas Tolimán	7	Julio	2023-12-07T00:00:00	2024-11-08T11:00:00	6	Velocidad del viento	6.4
135182	7	Sololá	713	San Lucas Tolimán	10	San Lucas Tolimán	7	Julio	2023-12-07T00:00:00	2024-11-08T11:00:00	7	Dirección del viento	6.44
135183	7	Sololá	713	San Lucas Tolimán	10	San Lucas Tolimán	7	Julio	2023-12-07T00:00:00	2024-11-08T11:00:00	1	Precipitación	0
135184	7	Sololá	713	San Lucas Tolimán	10	San Lucas Tolimán	7	Julio	2023-12-07T00:00:00	2024-11-08T11:00:00	8	Radiación solar	848
135185	7	Sololá	713	San Lucas Tolimán	10	San Lucas Tolimán	7	Julio	2023-12-07T00:00:00	2024-11-08T12:00:00	2	Temperatura media	26.2
135186	7	Sololá	713	San Lucas Tolimán	10	San Lucas Tolimán	7	Julio	2023-12-07T00:00:00	2024-11-08T12:00:00	4	Temperatura máxima	26.9
135187	7	Sololá	713	San Lucas Tolimán	10	San Lucas Tolimán	7	Julio	2023-12-07T00:00:00	2024-11-08T12:00:00	3	Temperatura mínima	25.6
135188	7	Sololá	713	San Lucas Tolimán	10	San Lucas Tolimán	7	Julio	2023-12-07T00:00:00	2024-11-08T12:00:00	5	Humedad	70
135189	7	Sololá	713	San Lucas Tolimán	10	San Lucas Tolimán	7	Julio	2023-12-07T00:00:00	2024-11-08T12:00:00	6	Velocidad del viento	6.4
135190	7	Sololá	713	San Lucas Tolimán	10	San Lucas Tolimán	7	Julio	2023-12-07T00:00:00	2024-11-08T12:00:00	7	Dirección del viento	6.44
135191	7	Sololá	713	San Lucas Tolimán	10	San Lucas Tolimán	7	Julio	2023-12-07T00:00:00	2024-11-08T12:00:00	1	Precipitación	0
135192	7	Sololá	713	San Lucas Tolimán	10	San Lucas Tolimán	7	Julio	2023-12-07T00:00:00	2024-11-08T12:00:00	8	Radiación solar	965
135193	7	Sololá	713	San Lucas Tolimán	10	San Lucas Tolimán	7	Julio	2023-12-07T00:00:00	2024-11-08T13:00:00	2	Temperatura media	25.9
135194	7	Sololá	713	San Lucas Tolimán	10	San Lucas Tolimán	7	Julio	2023-12-07T00:00:00	2024-11-08T13:00:00	4	Temperatura máxima	27.1
135195	7	Sololá	713	San Lucas Tolimán	10	San Lucas Tolimán	7	Julio	2023-12-07T00:00:00	2024-11-08T13:00:00	3	Temperatura mínima	25.9
135196	7	Sololá	713	San Lucas Tolimán	10	San Lucas Tolimán	7	Julio	2023-12-07T00:00:00	2024-11-08T13:00:00	5	Humedad	74
135197	7	Sololá	713	San Lucas Tolimán	10	San Lucas Tolimán	7	Julio	2023-12-07T00:00:00	2024-11-08T13:00:00	6	Velocidad del viento	6.4
135198	7	Sololá	713	San Lucas Tolimán	10	San Lucas Tolimán	7	Julio	2023-12-07T00:00:00	2024-11-08T13:00:00	7	Dirección del viento	6.44
135199	7	Sololá	713	San Lucas Tolimán	10	San Lucas Tolimán	7	Julio	2023-12-07T00:00:00	2024-11-08T13:00:00	1	Precipitación	0
135200	7	Sololá	713	San Lucas Tolimán	10	San Lucas Tolimán	7	Julio	2023-12-07T00:00:00	2024-11-08T13:00:00	8	Radiación solar	1015
135201	7	Sololá	713	San Lucas Tolimán	10	San Lucas Tolimán	7	Julio	2023-12-07T00:00:00	2024-11-08T14:00:00	2	Temperatura media	26.3
135202	7	Sololá	713	San Lucas Tolimán	10	San Lucas Tolimán	7	Julio	2023-12-07T00:00:00	2024-11-08T14:00:00	4	Temperatura máxima	26.9
135203	7	Sololá	713	San Lucas Tolimán	10	San Lucas Tolimán	7	Julio	2023-12-07T00:00:00	2024-11-08T14:00:00	3	Temperatura mínima	25.7
135204	7	Sololá	713	San Lucas Tolimán	10	San Lucas Tolimán	7	Julio	2023-12-07T00:00:00	2024-11-08T14:00:00	5	Humedad	74
135205	7	Sololá	713	San Lucas Tolimán	10	San Lucas Tolimán	7	Julio	2023-12-07T00:00:00	2024-11-08T14:00:00	6	Velocidad del viento	8
135206	7	Sololá	713	San Lucas Tolimán	10	San Lucas Tolimán	7	Julio	2023-12-07T00:00:00	2024-11-08T14:00:00	7	Dirección del viento	8.05
135207	7	Sololá	713	San Lucas Tolimán	10	San Lucas Tolimán	7	Julio	2023-12-07T00:00:00	2024-11-08T14:00:00	1	Precipitación	0
135208	7	Sololá	713	San Lucas Tolimán	10	San Lucas Tolimán	7	Julio	2023-12-07T00:00:00	2024-11-08T14:00:00	8	Radiación solar	949
135209	7	Sololá	713	San Lucas Tolimán	10	San Lucas Tolimán	7	Julio	2023-12-07T00:00:00	2024-11-08T15:00:00	2	Temperatura media	25.8
135210	7	Sololá	713	San Lucas Tolimán	10	San Lucas Tolimán	7	Julio	2023-12-07T00:00:00	2024-11-08T15:00:00	4	Temperatura máxima	26.9
135211	7	Sololá	713	San Lucas Tolimán	10	San Lucas Tolimán	7	Julio	2023-12-07T00:00:00	2024-11-08T15:00:00	3	Temperatura mínima	25.5
135212	7	Sololá	713	San Lucas Tolimán	10	San Lucas Tolimán	7	Julio	2023-12-07T00:00:00	2024-11-08T15:00:00	5	Humedad	76
135213	7	Sololá	713	San Lucas Tolimán	10	San Lucas Tolimán	7	Julio	2023-12-07T00:00:00	2024-11-08T15:00:00	6	Velocidad del viento	9.7
135214	7	Sololá	713	San Lucas Tolimán	10	San Lucas Tolimán	7	Julio	2023-12-07T00:00:00	2024-11-08T15:00:00	7	Dirección del viento	9.66
135215	7	Sololá	713	San Lucas Tolimán	10	San Lucas Tolimán	7	Julio	2023-12-07T00:00:00	2024-11-08T15:00:00	1	Precipitación	0
135216	7	Sololá	713	San Lucas Tolimán	10	San Lucas Tolimán	7	Julio	2023-12-07T00:00:00	2024-11-08T15:00:00	8	Radiación solar	787
135217	7	Sololá	713	San Lucas Tolimán	10	San Lucas Tolimán	7	Julio	2023-12-07T00:00:00	2024-11-08T16:00:00	2	Temperatura media	24.8
135218	7	Sololá	713	San Lucas Tolimán	10	San Lucas Tolimán	7	Julio	2023-12-07T00:00:00	2024-11-08T16:00:00	4	Temperatura máxima	25.8
135219	7	Sololá	713	San Lucas Tolimán	10	San Lucas Tolimán	7	Julio	2023-12-07T00:00:00	2024-11-08T16:00:00	3	Temperatura mínima	24.8
135220	7	Sololá	713	San Lucas Tolimán	10	San Lucas Tolimán	7	Julio	2023-12-07T00:00:00	2024-11-08T16:00:00	5	Humedad	79
135221	7	Sololá	713	San Lucas Tolimán	10	San Lucas Tolimán	7	Julio	2023-12-07T00:00:00	2024-11-08T16:00:00	6	Velocidad del viento	11.3
135222	7	Sololá	713	San Lucas Tolimán	10	San Lucas Tolimán	7	Julio	2023-12-07T00:00:00	2024-11-08T16:00:00	7	Dirección del viento	11.27
135223	7	Sololá	713	San Lucas Tolimán	10	San Lucas Tolimán	7	Julio	2023-12-07T00:00:00	2024-11-08T16:00:00	1	Precipitación	0
135224	7	Sololá	713	San Lucas Tolimán	10	San Lucas Tolimán	7	Julio	2023-12-07T00:00:00	2024-11-08T16:00:00	8	Radiación solar	626
135225	7	Sololá	713	San Lucas Tolimán	10	San Lucas Tolimán	7	Julio	2023-12-07T00:00:00	2024-11-08T17:00:00	2	Temperatura media	22.4
135226	7	Sololá	713	San Lucas Tolimán	10	San Lucas Tolimán	7	Julio	2023-12-07T00:00:00	2024-11-08T17:00:00	4	Temperatura máxima	25.1
135227	7	Sololá	713	San Lucas Tolimán	10	San Lucas Tolimán	7	Julio	2023-12-07T00:00:00	2024-11-08T17:00:00	3	Temperatura mínima	21.9
135228	7	Sololá	713	San Lucas Tolimán	10	San Lucas Tolimán	7	Julio	2023-12-07T00:00:00	2024-11-08T17:00:00	5	Humedad	75
135229	7	Sololá	713	San Lucas Tolimán	10	San Lucas Tolimán	7	Julio	2023-12-07T00:00:00	2024-11-08T17:00:00	6	Velocidad del viento	11.3
135230	7	Sololá	713	San Lucas Tolimán	10	San Lucas Tolimán	7	Julio	2023-12-07T00:00:00	2024-11-08T17:00:00	7	Dirección del viento	11.27
135231	7	Sololá	713	San Lucas Tolimán	10	San Lucas Tolimán	7	Julio	2023-12-07T00:00:00	2024-11-08T17:00:00	1	Precipitación	0
135232	7	Sololá	713	San Lucas Tolimán	10	San Lucas Tolimán	7	Julio	2023-12-07T00:00:00	2024-11-08T17:00:00	8	Radiación solar	401
135233	7	Sololá	713	San Lucas Tolimán	10	San Lucas Tolimán	7	Julio	2023-12-07T00:00:00	2024-11-08T18:00:00	2	Temperatura media	21.4
135234	7	Sololá	713	San Lucas Tolimán	10	San Lucas Tolimán	7	Julio	2023-12-07T00:00:00	2024-11-08T18:00:00	4	Temperatura máxima	22.7
135235	7	Sololá	713	San Lucas Tolimán	10	San Lucas Tolimán	7	Julio	2023-12-07T00:00:00	2024-11-08T18:00:00	3	Temperatura mínima	21.4
135236	7	Sololá	713	San Lucas Tolimán	10	San Lucas Tolimán	7	Julio	2023-12-07T00:00:00	2024-11-08T18:00:00	5	Humedad	79
135237	7	Sololá	713	San Lucas Tolimán	10	San Lucas Tolimán	7	Julio	2023-12-07T00:00:00	2024-11-08T18:00:00	6	Velocidad del viento	9.7
135238	7	Sololá	713	San Lucas Tolimán	10	San Lucas Tolimán	7	Julio	2023-12-07T00:00:00	2024-11-08T18:00:00	7	Dirección del viento	9.66
135239	7	Sololá	713	San Lucas Tolimán	10	San Lucas Tolimán	7	Julio	2023-12-07T00:00:00	2024-11-08T18:00:00	1	Precipitación	0
135240	7	Sololá	713	San Lucas Tolimán	10	San Lucas Tolimán	7	Julio	2023-12-07T00:00:00	2024-11-08T18:00:00	8	Radiación solar	174
135241	7	Sololá	713	San Lucas Tolimán	10	San Lucas Tolimán	7	Julio	2023-12-07T00:00:00	2024-11-08T19:00:00	2	Temperatura media	20.7
135242	7	Sololá	713	San Lucas Tolimán	10	San Lucas Tolimán	7	Julio	2023-12-07T00:00:00	2024-11-08T19:00:00	4	Temperatura máxima	21.4
135243	7	Sololá	713	San Lucas Tolimán	10	San Lucas Tolimán	7	Julio	2023-12-07T00:00:00	2024-11-08T19:00:00	3	Temperatura mínima	20.7
135244	7	Sololá	713	San Lucas Tolimán	10	San Lucas Tolimán	7	Julio	2023-12-07T00:00:00	2024-11-08T19:00:00	5	Humedad	83
135245	7	Sololá	713	San Lucas Tolimán	10	San Lucas Tolimán	7	Julio	2023-12-07T00:00:00	2024-11-08T19:00:00	6	Velocidad del viento	6.4
135246	7	Sololá	713	San Lucas Tolimán	10	San Lucas Tolimán	7	Julio	2023-12-07T00:00:00	2024-11-08T19:00:00	7	Dirección del viento	6.44
135247	7	Sololá	713	San Lucas Tolimán	10	San Lucas Tolimán	7	Julio	2023-12-07T00:00:00	2024-11-08T19:00:00	1	Precipitación	0
135248	7	Sololá	713	San Lucas Tolimán	10	San Lucas Tolimán	7	Julio	2023-12-07T00:00:00	2024-11-08T19:00:00	8	Radiación solar	0
135249	7	Sololá	713	San Lucas Tolimán	10	San Lucas Tolimán	7	Julio	2023-12-07T00:00:00	2024-11-08T20:00:00	2	Temperatura media	19.7
135250	7	Sololá	713	San Lucas Tolimán	10	San Lucas Tolimán	7	Julio	2023-12-07T00:00:00	2024-11-08T20:00:00	4	Temperatura máxima	20.7
135251	7	Sololá	713	San Lucas Tolimán	10	San Lucas Tolimán	7	Julio	2023-12-07T00:00:00	2024-11-08T20:00:00	3	Temperatura mínima	19.5
135252	7	Sololá	713	San Lucas Tolimán	10	San Lucas Tolimán	7	Julio	2023-12-07T00:00:00	2024-11-08T20:00:00	5	Humedad	87
135253	7	Sololá	713	San Lucas Tolimán	10	San Lucas Tolimán	7	Julio	2023-12-07T00:00:00	2024-11-08T20:00:00	6	Velocidad del viento	9.7
135254	7	Sololá	713	San Lucas Tolimán	10	San Lucas Tolimán	7	Julio	2023-12-07T00:00:00	2024-11-08T20:00:00	7	Dirección del viento	9.66
135255	7	Sololá	713	San Lucas Tolimán	10	San Lucas Tolimán	7	Julio	2023-12-07T00:00:00	2024-11-08T20:00:00	1	Precipitación	0.2
135256	7	Sololá	713	San Lucas Tolimán	10	San Lucas Tolimán	7	Julio	2023-12-07T00:00:00	2024-11-08T20:00:00	8	Radiación solar	0
135257	7	Sololá	713	San Lucas Tolimán	10	San Lucas Tolimán	7	Julio	2023-12-07T00:00:00	2024-11-08T21:00:00	2	Temperatura media	18.8
135258	7	Sololá	713	San Lucas Tolimán	10	San Lucas Tolimán	7	Julio	2023-12-07T00:00:00	2024-11-08T21:00:00	4	Temperatura máxima	19.7
135259	7	Sololá	713	San Lucas Tolimán	10	San Lucas Tolimán	7	Julio	2023-12-07T00:00:00	2024-11-08T21:00:00	3	Temperatura mínima	18.8
135260	7	Sololá	713	San Lucas Tolimán	10	San Lucas Tolimán	7	Julio	2023-12-07T00:00:00	2024-11-08T21:00:00	5	Humedad	82
135261	7	Sololá	713	San Lucas Tolimán	10	San Lucas Tolimán	7	Julio	2023-12-07T00:00:00	2024-11-08T21:00:00	6	Velocidad del viento	3.2
135262	7	Sololá	713	San Lucas Tolimán	10	San Lucas Tolimán	7	Julio	2023-12-07T00:00:00	2024-11-08T21:00:00	7	Dirección del viento	3.22
135263	7	Sololá	713	San Lucas Tolimán	10	San Lucas Tolimán	7	Julio	2023-12-07T00:00:00	2024-11-08T21:00:00	1	Precipitación	0.4
135264	7	Sololá	713	San Lucas Tolimán	10	San Lucas Tolimán	7	Julio	2023-12-07T00:00:00	2024-11-08T21:00:00	8	Radiación solar	0
135265	7	Sololá	713	San Lucas Tolimán	10	San Lucas Tolimán	7	Julio	2023-12-07T00:00:00	2024-11-08T22:00:00	2	Temperatura media	18.6
135266	7	Sololá	713	San Lucas Tolimán	10	San Lucas Tolimán	7	Julio	2023-12-07T00:00:00	2024-11-08T22:00:00	4	Temperatura máxima	18.8
135267	7	Sololá	713	San Lucas Tolimán	10	San Lucas Tolimán	7	Julio	2023-12-07T00:00:00	2024-11-08T22:00:00	3	Temperatura mínima	18.3
135268	7	Sololá	713	San Lucas Tolimán	10	San Lucas Tolimán	7	Julio	2023-12-07T00:00:00	2024-11-08T22:00:00	5	Humedad	85
135269	7	Sololá	713	San Lucas Tolimán	10	San Lucas Tolimán	7	Julio	2023-12-07T00:00:00	2024-11-08T22:00:00	6	Velocidad del viento	3.2
135270	7	Sololá	713	San Lucas Tolimán	10	San Lucas Tolimán	7	Julio	2023-12-07T00:00:00	2024-11-08T22:00:00	7	Dirección del viento	3.22
135271	7	Sololá	713	San Lucas Tolimán	10	San Lucas Tolimán	7	Julio	2023-12-07T00:00:00	2024-11-08T22:00:00	1	Precipitación	0
135272	7	Sololá	713	San Lucas Tolimán	10	San Lucas Tolimán	7	Julio	2023-12-07T00:00:00	2024-11-08T22:00:00	8	Radiación solar	0
135273	7	Sololá	713	San Lucas Tolimán	10	San Lucas Tolimán	7	Julio	2023-12-07T00:00:00	2024-11-08T23:00:00	2	Temperatura media	18.9
135274	7	Sololá	713	San Lucas Tolimán	10	San Lucas Tolimán	7	Julio	2023-12-07T00:00:00	2024-11-08T23:00:00	4	Temperatura máxima	18.9
135275	7	Sololá	713	San Lucas Tolimán	10	San Lucas Tolimán	7	Julio	2023-12-07T00:00:00	2024-11-08T23:00:00	3	Temperatura mínima	18.5
135276	7	Sololá	713	San Lucas Tolimán	10	San Lucas Tolimán	7	Julio	2023-12-07T00:00:00	2024-11-08T23:00:00	5	Humedad	86
135277	7	Sololá	713	San Lucas Tolimán	10	San Lucas Tolimán	7	Julio	2023-12-07T00:00:00	2024-11-08T23:00:00	6	Velocidad del viento	3.2
135278	7	Sololá	713	San Lucas Tolimán	10	San Lucas Tolimán	7	Julio	2023-12-07T00:00:00	2024-11-08T23:00:00	7	Dirección del viento	3.22
135279	7	Sololá	713	San Lucas Tolimán	10	San Lucas Tolimán	7	Julio	2023-12-07T00:00:00	2024-11-08T23:00:00	1	Precipitación	0
135280	7	Sololá	713	San Lucas Tolimán	10	San Lucas Tolimán	7	Julio	2023-12-07T00:00:00	2024-11-08T23:00:00	8	Radiación solar	0
135281	7	Sololá	713	San Lucas Tolimán	10	San Lucas Tolimán	7	Julio	2023-07-13T00:00:00	2024-11-08T00:00:00	2	Temperatura media	18.7
135282	7	Sololá	713	San Lucas Tolimán	10	San Lucas Tolimán	7	Julio	2023-07-13T00:00:00	2024-11-08T00:00:00	4	Temperatura máxima	18.9
135283	7	Sololá	713	San Lucas Tolimán	10	San Lucas Tolimán	7	Julio	2023-07-13T00:00:00	2024-11-08T00:00:00	3	Temperatura mínima	18.6
135284	7	Sololá	713	San Lucas Tolimán	10	San Lucas Tolimán	7	Julio	2023-07-13T00:00:00	2024-11-08T00:00:00	5	Humedad	86
135285	7	Sololá	713	San Lucas Tolimán	10	San Lucas Tolimán	7	Julio	2023-07-13T00:00:00	2024-11-08T00:00:00	6	Velocidad del viento	1.6
135286	7	Sololá	713	San Lucas Tolimán	10	San Lucas Tolimán	7	Julio	2023-07-13T00:00:00	2024-11-08T00:00:00	7	Dirección del viento	1.61
135287	7	Sololá	713	San Lucas Tolimán	10	San Lucas Tolimán	7	Julio	2023-07-13T00:00:00	2024-11-08T00:00:00	1	Precipitación	0
135288	7	Sololá	713	San Lucas Tolimán	10	San Lucas Tolimán	7	Julio	2023-07-13T00:00:00	2024-11-08T00:00:00	8	Radiación solar	0
135289	7	Sololá	713	San Lucas Tolimán	10	San Lucas Tolimán	7	Julio	2023-07-13T00:00:00	2024-11-08T01:00:00	2	Temperatura media	19.3
135290	7	Sololá	713	San Lucas Tolimán	10	San Lucas Tolimán	7	Julio	2023-07-13T00:00:00	2024-11-08T01:00:00	4	Temperatura máxima	19.4
135291	7	Sololá	713	San Lucas Tolimán	10	San Lucas Tolimán	7	Julio	2023-07-13T00:00:00	2024-11-08T01:00:00	3	Temperatura mínima	18.7
135292	7	Sololá	713	San Lucas Tolimán	10	San Lucas Tolimán	7	Julio	2023-07-13T00:00:00	2024-11-08T01:00:00	5	Humedad	81
135293	7	Sololá	713	San Lucas Tolimán	10	San Lucas Tolimán	7	Julio	2023-07-13T00:00:00	2024-11-08T01:00:00	6	Velocidad del viento	1.6
135294	7	Sololá	713	San Lucas Tolimán	10	San Lucas Tolimán	7	Julio	2023-07-13T00:00:00	2024-11-08T01:00:00	7	Dirección del viento	1.61
135295	7	Sololá	713	San Lucas Tolimán	10	San Lucas Tolimán	7	Julio	2023-07-13T00:00:00	2024-11-08T01:00:00	1	Precipitación	0
135296	7	Sololá	713	San Lucas Tolimán	10	San Lucas Tolimán	7	Julio	2023-07-13T00:00:00	2024-11-08T01:00:00	8	Radiación solar	0
135297	7	Sololá	713	San Lucas Tolimán	10	San Lucas Tolimán	7	Julio	2023-07-13T00:00:00	2024-11-08T02:00:00	2	Temperatura media	19.9
135298	7	Sololá	713	San Lucas Tolimán	10	San Lucas Tolimán	7	Julio	2023-07-13T00:00:00	2024-11-08T02:00:00	4	Temperatura máxima	19.9
135299	7	Sololá	713	San Lucas Tolimán	10	San Lucas Tolimán	7	Julio	2023-07-13T00:00:00	2024-11-08T02:00:00	3	Temperatura mínima	19.3
135300	7	Sololá	713	San Lucas Tolimán	10	San Lucas Tolimán	7	Julio	2023-07-13T00:00:00	2024-11-08T02:00:00	5	Humedad	73
135301	7	Sololá	713	San Lucas Tolimán	10	San Lucas Tolimán	7	Julio	2023-07-13T00:00:00	2024-11-08T02:00:00	6	Velocidad del viento	3.2
135302	7	Sololá	713	San Lucas Tolimán	10	San Lucas Tolimán	7	Julio	2023-07-13T00:00:00	2024-11-08T02:00:00	7	Dirección del viento	3.22
135303	7	Sololá	713	San Lucas Tolimán	10	San Lucas Tolimán	7	Julio	2023-07-13T00:00:00	2024-11-08T02:00:00	1	Precipitación	0
135304	7	Sololá	713	San Lucas Tolimán	10	San Lucas Tolimán	7	Julio	2023-07-13T00:00:00	2024-11-08T02:00:00	8	Radiación solar	0
135305	7	Sololá	713	San Lucas Tolimán	10	San Lucas Tolimán	7	Julio	2023-07-13T00:00:00	2024-11-08T03:00:00	2	Temperatura media	20.9
135306	7	Sololá	713	San Lucas Tolimán	10	San Lucas Tolimán	7	Julio	2023-07-13T00:00:00	2024-11-08T03:00:00	4	Temperatura máxima	20.9
135307	7	Sololá	713	San Lucas Tolimán	10	San Lucas Tolimán	7	Julio	2023-07-13T00:00:00	2024-11-08T03:00:00	3	Temperatura mínima	19.7
135308	7	Sololá	713	San Lucas Tolimán	10	San Lucas Tolimán	7	Julio	2023-07-13T00:00:00	2024-11-08T03:00:00	5	Humedad	62
135309	7	Sololá	713	San Lucas Tolimán	10	San Lucas Tolimán	7	Julio	2023-07-13T00:00:00	2024-11-08T03:00:00	6	Velocidad del viento	6.4
135310	7	Sololá	713	San Lucas Tolimán	10	San Lucas Tolimán	7	Julio	2023-07-13T00:00:00	2024-11-08T03:00:00	7	Dirección del viento	6.44
135311	7	Sololá	713	San Lucas Tolimán	10	San Lucas Tolimán	7	Julio	2023-07-13T00:00:00	2024-11-08T03:00:00	1	Precipitación	0
135312	7	Sololá	713	San Lucas Tolimán	10	San Lucas Tolimán	7	Julio	2023-07-13T00:00:00	2024-11-08T03:00:00	8	Radiación solar	0
135313	7	Sololá	713	San Lucas Tolimán	10	San Lucas Tolimán	7	Julio	2023-07-13T00:00:00	2024-11-08T04:00:00	2	Temperatura media	19.4
135314	7	Sololá	713	San Lucas Tolimán	10	San Lucas Tolimán	7	Julio	2023-07-13T00:00:00	2024-11-08T04:00:00	4	Temperatura máxima	21.1
135315	7	Sololá	713	San Lucas Tolimán	10	San Lucas Tolimán	7	Julio	2023-07-13T00:00:00	2024-11-08T04:00:00	3	Temperatura mínima	19.4
135316	7	Sololá	713	San Lucas Tolimán	10	San Lucas Tolimán	7	Julio	2023-07-13T00:00:00	2024-11-08T04:00:00	5	Humedad	72
135317	7	Sololá	713	San Lucas Tolimán	10	San Lucas Tolimán	7	Julio	2023-07-13T00:00:00	2024-11-08T04:00:00	6	Velocidad del viento	3.2
135318	7	Sololá	713	San Lucas Tolimán	10	San Lucas Tolimán	7	Julio	2023-07-13T00:00:00	2024-11-08T04:00:00	7	Dirección del viento	3.22
135319	7	Sololá	713	San Lucas Tolimán	10	San Lucas Tolimán	7	Julio	2023-07-13T00:00:00	2024-11-08T04:00:00	1	Precipitación	0
135320	7	Sololá	713	San Lucas Tolimán	10	San Lucas Tolimán	7	Julio	2023-07-13T00:00:00	2024-11-08T04:00:00	8	Radiación solar	0
135321	7	Sololá	713	San Lucas Tolimán	10	San Lucas Tolimán	7	Julio	2023-07-13T00:00:00	2024-11-08T05:00:00	2	Temperatura media	18.5
135322	7	Sololá	713	San Lucas Tolimán	10	San Lucas Tolimán	7	Julio	2023-07-13T00:00:00	2024-11-08T05:00:00	4	Temperatura máxima	19.4
135323	7	Sololá	713	San Lucas Tolimán	10	San Lucas Tolimán	7	Julio	2023-07-13T00:00:00	2024-11-08T05:00:00	3	Temperatura mínima	18.5
135324	7	Sololá	713	San Lucas Tolimán	10	San Lucas Tolimán	7	Julio	2023-07-13T00:00:00	2024-11-08T05:00:00	5	Humedad	74
135325	7	Sololá	713	San Lucas Tolimán	10	San Lucas Tolimán	7	Julio	2023-07-13T00:00:00	2024-11-08T05:00:00	6	Velocidad del viento	1.6
135326	7	Sololá	713	San Lucas Tolimán	10	San Lucas Tolimán	7	Julio	2023-07-13T00:00:00	2024-11-08T05:00:00	7	Dirección del viento	1.61
135327	7	Sololá	713	San Lucas Tolimán	10	San Lucas Tolimán	7	Julio	2023-07-13T00:00:00	2024-11-08T05:00:00	1	Precipitación	0
135328	7	Sololá	713	San Lucas Tolimán	10	San Lucas Tolimán	7	Julio	2023-07-13T00:00:00	2024-11-08T05:00:00	8	Radiación solar	0
135329	7	Sololá	713	San Lucas Tolimán	10	San Lucas Tolimán	7	Julio	2023-07-13T00:00:00	2024-11-08T06:00:00	2	Temperatura media	19.6
135330	7	Sololá	713	San Lucas Tolimán	10	San Lucas Tolimán	7	Julio	2023-07-13T00:00:00	2024-11-08T06:00:00	4	Temperatura máxima	19.6
135331	7	Sololá	713	San Lucas Tolimán	10	San Lucas Tolimán	7	Julio	2023-07-13T00:00:00	2024-11-08T06:00:00	3	Temperatura mínima	18.3
135332	7	Sololá	713	San Lucas Tolimán	10	San Lucas Tolimán	7	Julio	2023-07-13T00:00:00	2024-11-08T06:00:00	5	Humedad	72
135333	7	Sololá	713	San Lucas Tolimán	10	San Lucas Tolimán	7	Julio	2023-07-13T00:00:00	2024-11-08T06:00:00	6	Velocidad del viento	3.2
135334	7	Sololá	713	San Lucas Tolimán	10	San Lucas Tolimán	7	Julio	2023-07-13T00:00:00	2024-11-08T06:00:00	7	Dirección del viento	3.22
135335	7	Sololá	713	San Lucas Tolimán	10	San Lucas Tolimán	7	Julio	2023-07-13T00:00:00	2024-11-08T06:00:00	1	Precipitación	0
135336	7	Sololá	713	San Lucas Tolimán	10	San Lucas Tolimán	7	Julio	2023-07-13T00:00:00	2024-11-08T06:00:00	8	Radiación solar	3
135337	7	Sololá	713	San Lucas Tolimán	10	San Lucas Tolimán	7	Julio	2023-07-13T00:00:00	2024-11-08T07:00:00	2	Temperatura media	20.8
135338	7	Sololá	713	San Lucas Tolimán	10	San Lucas Tolimán	7	Julio	2023-07-13T00:00:00	2024-11-08T07:00:00	4	Temperatura máxima	20.8
135339	7	Sololá	713	San Lucas Tolimán	10	San Lucas Tolimán	7	Julio	2023-07-13T00:00:00	2024-11-08T07:00:00	3	Temperatura mínima	19.3
135340	7	Sololá	713	San Lucas Tolimán	10	San Lucas Tolimán	7	Julio	2023-07-13T00:00:00	2024-11-08T07:00:00	5	Humedad	70
135341	7	Sololá	713	San Lucas Tolimán	10	San Lucas Tolimán	7	Julio	2023-07-13T00:00:00	2024-11-08T07:00:00	6	Velocidad del viento	3.2
135342	7	Sololá	713	San Lucas Tolimán	10	San Lucas Tolimán	7	Julio	2023-07-13T00:00:00	2024-11-08T07:00:00	7	Dirección del viento	3.22
135343	7	Sololá	713	San Lucas Tolimán	10	San Lucas Tolimán	7	Julio	2023-07-13T00:00:00	2024-11-08T07:00:00	1	Precipitación	0
135344	7	Sololá	713	San Lucas Tolimán	10	San Lucas Tolimán	7	Julio	2023-07-13T00:00:00	2024-11-08T07:00:00	8	Radiación solar	64
135345	7	Sololá	713	San Lucas Tolimán	10	San Lucas Tolimán	7	Julio	2023-07-13T00:00:00	2024-11-08T08:00:00	2	Temperatura media	22.4
135346	7	Sololá	713	San Lucas Tolimán	10	San Lucas Tolimán	7	Julio	2023-07-13T00:00:00	2024-11-08T08:00:00	4	Temperatura máxima	22.5
135347	7	Sololá	713	San Lucas Tolimán	10	San Lucas Tolimán	7	Julio	2023-07-13T00:00:00	2024-11-08T08:00:00	3	Temperatura mínima	20.8
135348	7	Sololá	713	San Lucas Tolimán	10	San Lucas Tolimán	7	Julio	2023-07-13T00:00:00	2024-11-08T08:00:00	5	Humedad	65
135349	7	Sololá	713	San Lucas Tolimán	10	San Lucas Tolimán	7	Julio	2023-07-13T00:00:00	2024-11-08T08:00:00	6	Velocidad del viento	4.8
135350	7	Sololá	713	San Lucas Tolimán	10	San Lucas Tolimán	7	Julio	2023-07-13T00:00:00	2024-11-08T08:00:00	7	Dirección del viento	4.83
135351	7	Sololá	713	San Lucas Tolimán	10	San Lucas Tolimán	7	Julio	2023-07-13T00:00:00	2024-11-08T08:00:00	1	Precipitación	0
135352	7	Sololá	713	San Lucas Tolimán	10	San Lucas Tolimán	7	Julio	2023-07-13T00:00:00	2024-11-08T08:00:00	8	Radiación solar	230
135353	7	Sololá	713	San Lucas Tolimán	10	San Lucas Tolimán	7	Julio	2023-07-13T00:00:00	2024-11-08T09:00:00	2	Temperatura media	24.3
135354	7	Sololá	713	San Lucas Tolimán	10	San Lucas Tolimán	7	Julio	2023-07-13T00:00:00	2024-11-08T09:00:00	4	Temperatura máxima	24.3
135355	7	Sololá	713	San Lucas Tolimán	10	San Lucas Tolimán	7	Julio	2023-07-13T00:00:00	2024-11-08T09:00:00	3	Temperatura mínima	22.5
135356	7	Sololá	713	San Lucas Tolimán	10	San Lucas Tolimán	7	Julio	2023-07-13T00:00:00	2024-11-08T09:00:00	5	Humedad	57
135357	7	Sololá	713	San Lucas Tolimán	10	San Lucas Tolimán	7	Julio	2023-07-13T00:00:00	2024-11-08T09:00:00	6	Velocidad del viento	4.8
135358	7	Sololá	713	San Lucas Tolimán	10	San Lucas Tolimán	7	Julio	2023-07-13T00:00:00	2024-11-08T09:00:00	7	Dirección del viento	4.83
135359	7	Sololá	713	San Lucas Tolimán	10	San Lucas Tolimán	7	Julio	2023-07-13T00:00:00	2024-11-08T09:00:00	1	Precipitación	0
135360	7	Sololá	713	San Lucas Tolimán	10	San Lucas Tolimán	7	Julio	2023-07-13T00:00:00	2024-11-08T09:00:00	8	Radiación solar	428
135361	7	Sololá	713	San Lucas Tolimán	10	San Lucas Tolimán	7	Julio	2023-07-13T00:00:00	2024-11-08T10:00:00	2	Temperatura media	24.7
135362	7	Sololá	713	San Lucas Tolimán	10	San Lucas Tolimán	7	Julio	2023-07-13T00:00:00	2024-11-08T10:00:00	4	Temperatura máxima	24.9
135363	7	Sololá	713	San Lucas Tolimán	10	San Lucas Tolimán	7	Julio	2023-07-13T00:00:00	2024-11-08T10:00:00	3	Temperatura mínima	24.2
135364	7	Sololá	713	San Lucas Tolimán	10	San Lucas Tolimán	7	Julio	2023-07-13T00:00:00	2024-11-08T10:00:00	5	Humedad	57
135365	7	Sololá	713	San Lucas Tolimán	10	San Lucas Tolimán	7	Julio	2023-07-13T00:00:00	2024-11-08T10:00:00	6	Velocidad del viento	6.4
135366	7	Sololá	713	San Lucas Tolimán	10	San Lucas Tolimán	7	Julio	2023-07-13T00:00:00	2024-11-08T10:00:00	7	Dirección del viento	6.44
135367	7	Sololá	713	San Lucas Tolimán	10	San Lucas Tolimán	7	Julio	2023-07-13T00:00:00	2024-11-08T10:00:00	1	Precipitación	0
135368	7	Sololá	713	San Lucas Tolimán	10	San Lucas Tolimán	7	Julio	2023-07-13T00:00:00	2024-11-08T10:00:00	8	Radiación solar	586
135369	7	Sololá	713	San Lucas Tolimán	10	San Lucas Tolimán	7	Julio	2023-07-13T00:00:00	2024-11-08T11:00:00	2	Temperatura media	25.4
135370	7	Sololá	713	San Lucas Tolimán	10	San Lucas Tolimán	7	Julio	2023-07-13T00:00:00	2024-11-08T11:00:00	4	Temperatura máxima	25.6
135371	7	Sololá	713	San Lucas Tolimán	10	San Lucas Tolimán	7	Julio	2023-07-13T00:00:00	2024-11-08T11:00:00	3	Temperatura mínima	24.6
135372	7	Sololá	713	San Lucas Tolimán	10	San Lucas Tolimán	7	Julio	2023-07-13T00:00:00	2024-11-08T11:00:00	5	Humedad	53
135373	7	Sololá	713	San Lucas Tolimán	10	San Lucas Tolimán	7	Julio	2023-07-13T00:00:00	2024-11-08T11:00:00	6	Velocidad del viento	9.7
135374	7	Sololá	713	San Lucas Tolimán	10	San Lucas Tolimán	7	Julio	2023-07-13T00:00:00	2024-11-08T11:00:00	7	Dirección del viento	9.66
135375	7	Sololá	713	San Lucas Tolimán	10	San Lucas Tolimán	7	Julio	2023-07-13T00:00:00	2024-11-08T11:00:00	1	Precipitación	0
135376	7	Sololá	713	San Lucas Tolimán	10	San Lucas Tolimán	7	Julio	2023-07-13T00:00:00	2024-11-08T11:00:00	8	Radiación solar	829
135377	7	Sololá	713	San Lucas Tolimán	10	San Lucas Tolimán	7	Julio	2023-07-13T00:00:00	2024-11-08T12:00:00	2	Temperatura media	26.6
135378	7	Sololá	713	San Lucas Tolimán	10	San Lucas Tolimán	7	Julio	2023-07-13T00:00:00	2024-11-08T12:00:00	4	Temperatura máxima	26.7
135379	7	Sololá	713	San Lucas Tolimán	10	San Lucas Tolimán	7	Julio	2023-07-13T00:00:00	2024-11-08T12:00:00	3	Temperatura mínima	25.4
135380	7	Sololá	713	San Lucas Tolimán	10	San Lucas Tolimán	7	Julio	2023-07-13T00:00:00	2024-11-08T12:00:00	5	Humedad	49
135381	7	Sololá	713	San Lucas Tolimán	10	San Lucas Tolimán	7	Julio	2023-07-13T00:00:00	2024-11-08T12:00:00	6	Velocidad del viento	8
135382	7	Sololá	713	San Lucas Tolimán	10	San Lucas Tolimán	7	Julio	2023-07-13T00:00:00	2024-11-08T12:00:00	7	Dirección del viento	8.05
135383	7	Sololá	713	San Lucas Tolimán	10	San Lucas Tolimán	7	Julio	2023-07-13T00:00:00	2024-11-08T12:00:00	1	Precipitación	0
135384	7	Sololá	713	San Lucas Tolimán	10	San Lucas Tolimán	7	Julio	2023-07-13T00:00:00	2024-11-08T12:00:00	8	Radiación solar	946
135385	7	Sololá	713	San Lucas Tolimán	10	San Lucas Tolimán	7	Julio	2023-07-13T00:00:00	2024-11-08T13:00:00	2	Temperatura media	25.7
135386	7	Sololá	713	San Lucas Tolimán	10	San Lucas Tolimán	7	Julio	2023-07-13T00:00:00	2024-11-08T13:00:00	4	Temperatura máxima	27
135387	7	Sololá	713	San Lucas Tolimán	10	San Lucas Tolimán	7	Julio	2023-07-13T00:00:00	2024-11-08T13:00:00	3	Temperatura mínima	25.2
135388	7	Sololá	713	San Lucas Tolimán	10	San Lucas Tolimán	7	Julio	2023-07-13T00:00:00	2024-11-08T13:00:00	5	Humedad	72
135389	7	Sololá	713	San Lucas Tolimán	10	San Lucas Tolimán	7	Julio	2023-07-13T00:00:00	2024-11-08T13:00:00	6	Velocidad del viento	9.7
135390	7	Sololá	713	San Lucas Tolimán	10	San Lucas Tolimán	7	Julio	2023-07-13T00:00:00	2024-11-08T13:00:00	7	Dirección del viento	9.66
135391	7	Sololá	713	San Lucas Tolimán	10	San Lucas Tolimán	7	Julio	2023-07-13T00:00:00	2024-11-08T13:00:00	1	Precipitación	0
135392	7	Sololá	713	San Lucas Tolimán	10	San Lucas Tolimán	7	Julio	2023-07-13T00:00:00	2024-11-08T13:00:00	8	Radiación solar	1032
135393	7	Sololá	713	San Lucas Tolimán	10	San Lucas Tolimán	7	Julio	2023-07-13T00:00:00	2024-11-08T14:00:00	2	Temperatura media	26.2
135394	7	Sololá	713	San Lucas Tolimán	10	San Lucas Tolimán	7	Julio	2023-07-13T00:00:00	2024-11-08T14:00:00	4	Temperatura máxima	26.3
135395	7	Sololá	713	San Lucas Tolimán	10	San Lucas Tolimán	7	Julio	2023-07-13T00:00:00	2024-11-08T14:00:00	3	Temperatura mínima	25.1
135396	7	Sololá	713	San Lucas Tolimán	10	San Lucas Tolimán	7	Julio	2023-07-13T00:00:00	2024-11-08T14:00:00	5	Humedad	71
135397	7	Sololá	713	San Lucas Tolimán	10	San Lucas Tolimán	7	Julio	2023-07-13T00:00:00	2024-11-08T14:00:00	6	Velocidad del viento	9.7
135398	7	Sololá	713	San Lucas Tolimán	10	San Lucas Tolimán	7	Julio	2023-07-13T00:00:00	2024-11-08T14:00:00	7	Dirección del viento	9.66
135399	7	Sololá	713	San Lucas Tolimán	10	San Lucas Tolimán	7	Julio	2023-07-13T00:00:00	2024-11-08T14:00:00	1	Precipitación	0
135400	7	Sololá	713	San Lucas Tolimán	10	San Lucas Tolimán	7	Julio	2023-07-13T00:00:00	2024-11-08T14:00:00	8	Radiación solar	788
135401	7	Sololá	713	San Lucas Tolimán	10	San Lucas Tolimán	7	Julio	2023-07-13T00:00:00	2024-11-08T15:00:00	2	Temperatura media	25.5
135402	7	Sololá	713	San Lucas Tolimán	10	San Lucas Tolimán	7	Julio	2023-07-13T00:00:00	2024-11-08T15:00:00	4	Temperatura máxima	26.3
135403	7	Sololá	713	San Lucas Tolimán	10	San Lucas Tolimán	7	Julio	2023-07-13T00:00:00	2024-11-08T15:00:00	3	Temperatura mínima	25.4
135404	7	Sololá	713	San Lucas Tolimán	10	San Lucas Tolimán	7	Julio	2023-07-13T00:00:00	2024-11-08T15:00:00	5	Humedad	74
135405	7	Sololá	713	San Lucas Tolimán	10	San Lucas Tolimán	7	Julio	2023-07-13T00:00:00	2024-11-08T15:00:00	6	Velocidad del viento	9.7
135406	7	Sololá	713	San Lucas Tolimán	10	San Lucas Tolimán	7	Julio	2023-07-13T00:00:00	2024-11-08T15:00:00	7	Dirección del viento	9.66
135407	7	Sololá	713	San Lucas Tolimán	10	San Lucas Tolimán	7	Julio	2023-07-13T00:00:00	2024-11-08T15:00:00	1	Precipitación	0
135408	7	Sololá	713	San Lucas Tolimán	10	San Lucas Tolimán	7	Julio	2023-07-13T00:00:00	2024-11-08T15:00:00	8	Radiación solar	163
135409	7	Sololá	713	San Lucas Tolimán	10	San Lucas Tolimán	7	Julio	2023-07-13T00:00:00	2024-11-08T16:00:00	2	Temperatura media	25.9
135410	7	Sololá	713	San Lucas Tolimán	10	San Lucas Tolimán	7	Julio	2023-07-13T00:00:00	2024-11-08T16:00:00	4	Temperatura máxima	25.9
135411	7	Sololá	713	San Lucas Tolimán	10	San Lucas Tolimán	7	Julio	2023-07-13T00:00:00	2024-11-08T16:00:00	3	Temperatura mínima	24.7
135412	7	Sololá	713	San Lucas Tolimán	10	San Lucas Tolimán	7	Julio	2023-07-13T00:00:00	2024-11-08T16:00:00	5	Humedad	71
135413	7	Sololá	713	San Lucas Tolimán	10	San Lucas Tolimán	7	Julio	2023-07-13T00:00:00	2024-11-08T16:00:00	6	Velocidad del viento	9.7
135414	7	Sololá	713	San Lucas Tolimán	10	San Lucas Tolimán	7	Julio	2023-07-13T00:00:00	2024-11-08T16:00:00	7	Dirección del viento	9.66
135415	7	Sololá	713	San Lucas Tolimán	10	San Lucas Tolimán	7	Julio	2023-07-13T00:00:00	2024-11-08T16:00:00	1	Precipitación	0
135416	7	Sololá	713	San Lucas Tolimán	10	San Lucas Tolimán	7	Julio	2023-07-13T00:00:00	2024-11-08T16:00:00	8	Radiación solar	150
135417	7	Sololá	713	San Lucas Tolimán	10	San Lucas Tolimán	7	Julio	2023-07-13T00:00:00	2024-11-08T17:00:00	2	Temperatura media	21.2
135418	7	Sololá	713	San Lucas Tolimán	10	San Lucas Tolimán	7	Julio	2023-07-13T00:00:00	2024-11-08T17:00:00	4	Temperatura máxima	26.2
135419	7	Sololá	713	San Lucas Tolimán	10	San Lucas Tolimán	7	Julio	2023-07-13T00:00:00	2024-11-08T17:00:00	3	Temperatura mínima	20.9
135420	7	Sololá	713	San Lucas Tolimán	10	San Lucas Tolimán	7	Julio	2023-07-13T00:00:00	2024-11-08T17:00:00	5	Humedad	83
135421	7	Sololá	713	San Lucas Tolimán	10	San Lucas Tolimán	7	Julio	2023-07-13T00:00:00	2024-11-08T17:00:00	6	Velocidad del viento	11.3
135422	7	Sololá	713	San Lucas Tolimán	10	San Lucas Tolimán	7	Julio	2023-07-13T00:00:00	2024-11-08T17:00:00	7	Dirección del viento	11.27
135423	7	Sololá	713	San Lucas Tolimán	10	San Lucas Tolimán	7	Julio	2023-07-13T00:00:00	2024-11-08T17:00:00	1	Precipitación	0
135424	7	Sololá	713	San Lucas Tolimán	10	San Lucas Tolimán	7	Julio	2023-07-13T00:00:00	2024-11-08T17:00:00	8	Radiación solar	27
135425	7	Sololá	713	San Lucas Tolimán	10	San Lucas Tolimán	7	Julio	2023-07-13T00:00:00	2024-11-08T18:00:00	2	Temperatura media	21.3
135426	7	Sololá	713	San Lucas Tolimán	10	San Lucas Tolimán	7	Julio	2023-07-13T00:00:00	2024-11-08T18:00:00	4	Temperatura máxima	21.8
135427	7	Sololá	713	San Lucas Tolimán	10	San Lucas Tolimán	7	Julio	2023-07-13T00:00:00	2024-11-08T18:00:00	3	Temperatura mínima	21
135428	7	Sololá	713	San Lucas Tolimán	10	San Lucas Tolimán	7	Julio	2023-07-13T00:00:00	2024-11-08T18:00:00	5	Humedad	81
135429	7	Sololá	713	San Lucas Tolimán	10	San Lucas Tolimán	7	Julio	2023-07-13T00:00:00	2024-11-08T18:00:00	6	Velocidad del viento	6.4
135430	7	Sololá	713	San Lucas Tolimán	10	San Lucas Tolimán	7	Julio	2023-07-13T00:00:00	2024-11-08T18:00:00	7	Dirección del viento	6.44
135431	7	Sololá	713	San Lucas Tolimán	10	San Lucas Tolimán	7	Julio	2023-07-13T00:00:00	2024-11-08T18:00:00	1	Precipitación	0
135432	7	Sololá	713	San Lucas Tolimán	10	San Lucas Tolimán	7	Julio	2023-07-13T00:00:00	2024-11-08T18:00:00	8	Radiación solar	22
135433	7	Sololá	713	San Lucas Tolimán	10	San Lucas Tolimán	7	Julio	2023-07-13T00:00:00	2024-11-08T19:00:00	2	Temperatura media	20.9
135434	7	Sololá	713	San Lucas Tolimán	10	San Lucas Tolimán	7	Julio	2023-07-13T00:00:00	2024-11-08T19:00:00	4	Temperatura máxima	21.3
135435	7	Sololá	713	San Lucas Tolimán	10	San Lucas Tolimán	7	Julio	2023-07-13T00:00:00	2024-11-08T19:00:00	3	Temperatura mínima	20.8
135436	7	Sololá	713	San Lucas Tolimán	10	San Lucas Tolimán	7	Julio	2023-07-13T00:00:00	2024-11-08T19:00:00	5	Humedad	81
135437	7	Sololá	713	San Lucas Tolimán	10	San Lucas Tolimán	7	Julio	2023-07-13T00:00:00	2024-11-08T19:00:00	6	Velocidad del viento	4.8
135438	7	Sololá	713	San Lucas Tolimán	10	San Lucas Tolimán	7	Julio	2023-07-13T00:00:00	2024-11-08T19:00:00	7	Dirección del viento	4.83
135439	7	Sololá	713	San Lucas Tolimán	10	San Lucas Tolimán	7	Julio	2023-07-13T00:00:00	2024-11-08T19:00:00	1	Precipitación	0
135440	7	Sololá	713	San Lucas Tolimán	10	San Lucas Tolimán	7	Julio	2023-07-13T00:00:00	2024-11-08T19:00:00	8	Radiación solar	0
135441	7	Sololá	713	San Lucas Tolimán	10	San Lucas Tolimán	7	Julio	2023-07-13T00:00:00	2024-11-08T20:00:00	2	Temperatura media	21.9
135442	7	Sololá	713	San Lucas Tolimán	10	San Lucas Tolimán	7	Julio	2023-07-13T00:00:00	2024-11-08T20:00:00	4	Temperatura máxima	21.9
135443	7	Sololá	713	San Lucas Tolimán	10	San Lucas Tolimán	7	Julio	2023-07-13T00:00:00	2024-11-08T20:00:00	3	Temperatura mínima	20.8
135444	7	Sololá	713	San Lucas Tolimán	10	San Lucas Tolimán	7	Julio	2023-07-13T00:00:00	2024-11-08T20:00:00	5	Humedad	70
135445	7	Sololá	713	San Lucas Tolimán	10	San Lucas Tolimán	7	Julio	2023-07-13T00:00:00	2024-11-08T20:00:00	6	Velocidad del viento	1.6
135446	7	Sololá	713	San Lucas Tolimán	10	San Lucas Tolimán	7	Julio	2023-07-13T00:00:00	2024-11-08T20:00:00	7	Dirección del viento	1.61
135447	7	Sololá	713	San Lucas Tolimán	10	San Lucas Tolimán	7	Julio	2023-07-13T00:00:00	2024-11-08T20:00:00	1	Precipitación	0
135448	7	Sololá	713	San Lucas Tolimán	10	San Lucas Tolimán	7	Julio	2023-07-13T00:00:00	2024-11-08T20:00:00	8	Radiación solar	0
135449	7	Sololá	713	San Lucas Tolimán	10	San Lucas Tolimán	7	Julio	2023-07-13T00:00:00	2024-11-08T21:00:00	2	Temperatura media	22.2
135450	7	Sololá	713	San Lucas Tolimán	10	San Lucas Tolimán	7	Julio	2023-07-13T00:00:00	2024-11-08T21:00:00	4	Temperatura máxima	22.7
135451	7	Sololá	713	San Lucas Tolimán	10	San Lucas Tolimán	7	Julio	2023-07-13T00:00:00	2024-11-08T21:00:00	3	Temperatura mínima	21.9
135452	7	Sololá	713	San Lucas Tolimán	10	San Lucas Tolimán	7	Julio	2023-07-13T00:00:00	2024-11-08T21:00:00	5	Humedad	69
135453	7	Sololá	713	San Lucas Tolimán	10	San Lucas Tolimán	7	Julio	2023-07-13T00:00:00	2024-11-08T21:00:00	6	Velocidad del viento	4.8
135454	7	Sololá	713	San Lucas Tolimán	10	San Lucas Tolimán	7	Julio	2023-07-13T00:00:00	2024-11-08T21:00:00	7	Dirección del viento	4.83
135455	7	Sololá	713	San Lucas Tolimán	10	San Lucas Tolimán	7	Julio	2023-07-13T00:00:00	2024-11-08T21:00:00	1	Precipitación	0
135456	7	Sololá	713	San Lucas Tolimán	10	San Lucas Tolimán	7	Julio	2023-07-13T00:00:00	2024-11-08T21:00:00	8	Radiación solar	0
135457	7	Sololá	713	San Lucas Tolimán	10	San Lucas Tolimán	7	Julio	2023-07-13T00:00:00	2024-11-08T22:00:00	2	Temperatura media	20.2
135458	7	Sololá	713	San Lucas Tolimán	10	San Lucas Tolimán	7	Julio	2023-07-13T00:00:00	2024-11-08T22:00:00	4	Temperatura máxima	22.2
135459	7	Sololá	713	San Lucas Tolimán	10	San Lucas Tolimán	7	Julio	2023-07-13T00:00:00	2024-11-08T22:00:00	3	Temperatura mínima	20.1
135460	7	Sololá	713	San Lucas Tolimán	10	San Lucas Tolimán	7	Julio	2023-07-13T00:00:00	2024-11-08T22:00:00	5	Humedad	81
135461	7	Sololá	713	San Lucas Tolimán	10	San Lucas Tolimán	7	Julio	2023-07-13T00:00:00	2024-11-08T22:00:00	6	Velocidad del viento	4.8
135462	7	Sololá	713	San Lucas Tolimán	10	San Lucas Tolimán	7	Julio	2023-07-13T00:00:00	2024-11-08T22:00:00	7	Dirección del viento	4.83
135463	7	Sololá	713	San Lucas Tolimán	10	San Lucas Tolimán	7	Julio	2023-07-13T00:00:00	2024-11-08T22:00:00	1	Precipitación	0
135464	7	Sololá	713	San Lucas Tolimán	10	San Lucas Tolimán	7	Julio	2023-07-13T00:00:00	2024-11-08T22:00:00	8	Radiación solar	0
135465	7	Sololá	713	San Lucas Tolimán	10	San Lucas Tolimán	7	Julio	2023-07-13T00:00:00	2024-11-08T23:00:00	2	Temperatura media	19.3
135466	7	Sololá	713	San Lucas Tolimán	10	San Lucas Tolimán	7	Julio	2023-07-13T00:00:00	2024-11-08T23:00:00	4	Temperatura máxima	20.2
135467	7	Sololá	713	San Lucas Tolimán	10	San Lucas Tolimán	7	Julio	2023-07-13T00:00:00	2024-11-08T23:00:00	3	Temperatura mínima	19.3
135468	7	Sololá	713	San Lucas Tolimán	10	San Lucas Tolimán	7	Julio	2023-07-13T00:00:00	2024-11-08T23:00:00	5	Humedad	85
135469	7	Sololá	713	San Lucas Tolimán	10	San Lucas Tolimán	7	Julio	2023-07-13T00:00:00	2024-11-08T23:00:00	6	Velocidad del viento	3.2
135470	7	Sololá	713	San Lucas Tolimán	10	San Lucas Tolimán	7	Julio	2023-07-13T00:00:00	2024-11-08T23:00:00	7	Dirección del viento	3.22
135471	7	Sololá	713	San Lucas Tolimán	10	San Lucas Tolimán	7	Julio	2023-07-13T00:00:00	2024-11-08T23:00:00	1	Precipitación	0.6
135472	7	Sololá	713	San Lucas Tolimán	10	San Lucas Tolimán	7	Julio	2023-07-13T00:00:00	2024-11-08T23:00:00	8	Radiación solar	0
135473	7	Sololá	713	San Lucas Tolimán	10	San Lucas Tolimán	7	Julio	2023-07-14T00:00:00	2024-11-08T00:00:00	2	Temperatura media	18.3
135474	7	Sololá	713	San Lucas Tolimán	10	San Lucas Tolimán	7	Julio	2023-07-14T00:00:00	2024-11-08T00:00:00	4	Temperatura máxima	19.3
135475	7	Sololá	713	San Lucas Tolimán	10	San Lucas Tolimán	7	Julio	2023-07-14T00:00:00	2024-11-08T00:00:00	3	Temperatura mínima	18.3
135476	7	Sololá	713	San Lucas Tolimán	10	San Lucas Tolimán	7	Julio	2023-07-14T00:00:00	2024-11-08T00:00:00	5	Humedad	87
135477	7	Sololá	713	San Lucas Tolimán	10	San Lucas Tolimán	7	Julio	2023-07-14T00:00:00	2024-11-08T00:00:00	6	Velocidad del viento	3.2
135478	7	Sololá	713	San Lucas Tolimán	10	San Lucas Tolimán	7	Julio	2023-07-14T00:00:00	2024-11-08T00:00:00	7	Dirección del viento	3.22
135479	7	Sololá	713	San Lucas Tolimán	10	San Lucas Tolimán	7	Julio	2023-07-14T00:00:00	2024-11-08T00:00:00	1	Precipitación	0.4
135480	7	Sololá	713	San Lucas Tolimán	10	San Lucas Tolimán	7	Julio	2023-07-14T00:00:00	2024-11-08T00:00:00	8	Radiación solar	0
135481	7	Sololá	713	San Lucas Tolimán	10	San Lucas Tolimán	7	Julio	2023-07-14T00:00:00	2024-11-08T01:00:00	2	Temperatura media	17.9
135482	7	Sololá	713	San Lucas Tolimán	10	San Lucas Tolimán	7	Julio	2023-07-14T00:00:00	2024-11-08T01:00:00	4	Temperatura máxima	18.3
135483	7	Sololá	713	San Lucas Tolimán	10	San Lucas Tolimán	7	Julio	2023-07-14T00:00:00	2024-11-08T01:00:00	3	Temperatura mínima	17.9
135484	7	Sololá	713	San Lucas Tolimán	10	San Lucas Tolimán	7	Julio	2023-07-14T00:00:00	2024-11-08T01:00:00	5	Humedad	89
135485	7	Sololá	713	San Lucas Tolimán	10	San Lucas Tolimán	7	Julio	2023-07-14T00:00:00	2024-11-08T01:00:00	6	Velocidad del viento	1.6
135486	7	Sololá	713	San Lucas Tolimán	10	San Lucas Tolimán	7	Julio	2023-07-14T00:00:00	2024-11-08T01:00:00	7	Dirección del viento	1.61
135487	7	Sololá	713	San Lucas Tolimán	10	San Lucas Tolimán	7	Julio	2023-07-14T00:00:00	2024-11-08T01:00:00	1	Precipitación	0
135488	7	Sololá	713	San Lucas Tolimán	10	San Lucas Tolimán	7	Julio	2023-07-14T00:00:00	2024-11-08T01:00:00	8	Radiación solar	0
135489	7	Sololá	713	San Lucas Tolimán	10	San Lucas Tolimán	7	Julio	2023-07-14T00:00:00	2024-11-08T02:00:00	2	Temperatura media	19
135490	7	Sololá	713	San Lucas Tolimán	10	San Lucas Tolimán	7	Julio	2023-07-14T00:00:00	2024-11-08T02:00:00	4	Temperatura máxima	19
135491	7	Sololá	713	San Lucas Tolimán	10	San Lucas Tolimán	7	Julio	2023-07-14T00:00:00	2024-11-08T02:00:00	3	Temperatura mínima	17.9
135492	7	Sololá	713	San Lucas Tolimán	10	San Lucas Tolimán	7	Julio	2023-07-14T00:00:00	2024-11-08T02:00:00	5	Humedad	76
135493	7	Sololá	713	San Lucas Tolimán	10	San Lucas Tolimán	7	Julio	2023-07-14T00:00:00	2024-11-08T02:00:00	6	Velocidad del viento	3.2
135494	7	Sololá	713	San Lucas Tolimán	10	San Lucas Tolimán	7	Julio	2023-07-14T00:00:00	2024-11-08T02:00:00	7	Dirección del viento	3.22
135495	7	Sololá	713	San Lucas Tolimán	10	San Lucas Tolimán	7	Julio	2023-07-14T00:00:00	2024-11-08T02:00:00	1	Precipitación	0
135496	7	Sololá	713	San Lucas Tolimán	10	San Lucas Tolimán	7	Julio	2023-07-14T00:00:00	2024-11-08T02:00:00	8	Radiación solar	0
135497	7	Sololá	713	San Lucas Tolimán	10	San Lucas Tolimán	7	Julio	2023-07-14T00:00:00	2024-11-08T03:00:00	2	Temperatura media	18.5
135498	7	Sololá	713	San Lucas Tolimán	10	San Lucas Tolimán	7	Julio	2023-07-14T00:00:00	2024-11-08T03:00:00	4	Temperatura máxima	19.4
135499	7	Sololá	713	San Lucas Tolimán	10	San Lucas Tolimán	7	Julio	2023-07-14T00:00:00	2024-11-08T03:00:00	3	Temperatura mínima	18.4
135500	7	Sololá	713	San Lucas Tolimán	10	San Lucas Tolimán	7	Julio	2023-07-14T00:00:00	2024-11-08T03:00:00	5	Humedad	79
135501	7	Sololá	713	San Lucas Tolimán	10	San Lucas Tolimán	7	Julio	2023-07-14T00:00:00	2024-11-08T03:00:00	6	Velocidad del viento	1.6
135502	7	Sololá	713	San Lucas Tolimán	10	San Lucas Tolimán	7	Julio	2023-07-14T00:00:00	2024-11-08T03:00:00	7	Dirección del viento	1.61
135503	7	Sololá	713	San Lucas Tolimán	10	San Lucas Tolimán	7	Julio	2023-07-14T00:00:00	2024-11-08T03:00:00	1	Precipitación	0
135504	7	Sololá	713	San Lucas Tolimán	10	San Lucas Tolimán	7	Julio	2023-07-14T00:00:00	2024-11-08T03:00:00	8	Radiación solar	0
135505	7	Sololá	713	San Lucas Tolimán	10	San Lucas Tolimán	7	Julio	2023-07-14T00:00:00	2024-11-08T04:00:00	2	Temperatura media	19.7
135506	7	Sololá	713	San Lucas Tolimán	10	San Lucas Tolimán	7	Julio	2023-07-14T00:00:00	2024-11-08T04:00:00	4	Temperatura máxima	19.7
135507	7	Sololá	713	San Lucas Tolimán	10	San Lucas Tolimán	7	Julio	2023-07-14T00:00:00	2024-11-08T04:00:00	3	Temperatura mínima	18.5
135508	7	Sololá	713	San Lucas Tolimán	10	San Lucas Tolimán	7	Julio	2023-07-14T00:00:00	2024-11-08T04:00:00	5	Humedad	71
135509	7	Sololá	713	San Lucas Tolimán	10	San Lucas Tolimán	7	Julio	2023-07-14T00:00:00	2024-11-08T04:00:00	6	Velocidad del viento	3.2
135510	7	Sololá	713	San Lucas Tolimán	10	San Lucas Tolimán	7	Julio	2023-07-14T00:00:00	2024-11-08T04:00:00	7	Dirección del viento	3.22
135511	7	Sololá	713	San Lucas Tolimán	10	San Lucas Tolimán	7	Julio	2023-07-14T00:00:00	2024-11-08T04:00:00	1	Precipitación	0
135512	7	Sololá	713	San Lucas Tolimán	10	San Lucas Tolimán	7	Julio	2023-07-14T00:00:00	2024-11-08T04:00:00	8	Radiación solar	0
135513	7	Sololá	713	San Lucas Tolimán	10	San Lucas Tolimán	7	Julio	2023-07-14T00:00:00	2024-11-08T05:00:00	2	Temperatura media	19.2
135514	7	Sololá	713	San Lucas Tolimán	10	San Lucas Tolimán	7	Julio	2023-07-14T00:00:00	2024-11-08T05:00:00	4	Temperatura máxima	19.7
135515	7	Sololá	713	San Lucas Tolimán	10	San Lucas Tolimán	7	Julio	2023-07-14T00:00:00	2024-11-08T05:00:00	3	Temperatura mínima	19
135516	7	Sololá	713	San Lucas Tolimán	10	San Lucas Tolimán	7	Julio	2023-07-14T00:00:00	2024-11-08T05:00:00	5	Humedad	70
135517	7	Sololá	713	San Lucas Tolimán	10	San Lucas Tolimán	7	Julio	2023-07-14T00:00:00	2024-11-08T05:00:00	6	Velocidad del viento	1.6
135518	7	Sololá	713	San Lucas Tolimán	10	San Lucas Tolimán	7	Julio	2023-07-14T00:00:00	2024-11-08T05:00:00	7	Dirección del viento	1.61
135519	7	Sololá	713	San Lucas Tolimán	10	San Lucas Tolimán	7	Julio	2023-07-14T00:00:00	2024-11-08T05:00:00	1	Precipitación	0
135520	7	Sololá	713	San Lucas Tolimán	10	San Lucas Tolimán	7	Julio	2023-07-14T00:00:00	2024-11-08T05:00:00	8	Radiación solar	0
135521	7	Sololá	713	San Lucas Tolimán	10	San Lucas Tolimán	7	Julio	2023-07-14T00:00:00	2024-11-08T06:00:00	2	Temperatura media	19.2
135522	7	Sololá	713	San Lucas Tolimán	10	San Lucas Tolimán	7	Julio	2023-07-14T00:00:00	2024-11-08T06:00:00	4	Temperatura máxima	20
135523	7	Sololá	713	San Lucas Tolimán	10	San Lucas Tolimán	7	Julio	2023-07-14T00:00:00	2024-11-08T06:00:00	3	Temperatura mínima	19.2
135524	7	Sololá	713	San Lucas Tolimán	10	San Lucas Tolimán	7	Julio	2023-07-14T00:00:00	2024-11-08T06:00:00	5	Humedad	73
135525	7	Sololá	713	San Lucas Tolimán	10	San Lucas Tolimán	7	Julio	2023-07-14T00:00:00	2024-11-08T06:00:00	6	Velocidad del viento	4.8
135526	7	Sololá	713	San Lucas Tolimán	10	San Lucas Tolimán	7	Julio	2023-07-14T00:00:00	2024-11-08T06:00:00	7	Dirección del viento	4.83
135527	7	Sololá	713	San Lucas Tolimán	10	San Lucas Tolimán	7	Julio	2023-07-14T00:00:00	2024-11-08T06:00:00	1	Precipitación	0
135528	7	Sololá	713	San Lucas Tolimán	10	San Lucas Tolimán	7	Julio	2023-07-14T00:00:00	2024-11-08T06:00:00	8	Radiación solar	1
135529	7	Sololá	713	San Lucas Tolimán	10	San Lucas Tolimán	7	Julio	2023-07-14T00:00:00	2024-11-08T07:00:00	2	Temperatura media	20.6
135530	7	Sololá	713	San Lucas Tolimán	10	San Lucas Tolimán	7	Julio	2023-07-14T00:00:00	2024-11-08T07:00:00	4	Temperatura máxima	20.6
135531	7	Sololá	713	San Lucas Tolimán	10	San Lucas Tolimán	7	Julio	2023-07-14T00:00:00	2024-11-08T07:00:00	3	Temperatura mínima	18.6
135532	7	Sololá	713	San Lucas Tolimán	10	San Lucas Tolimán	7	Julio	2023-07-14T00:00:00	2024-11-08T07:00:00	5	Humedad	66
135533	7	Sololá	713	San Lucas Tolimán	10	San Lucas Tolimán	7	Julio	2023-07-14T00:00:00	2024-11-08T07:00:00	6	Velocidad del viento	4.8
135534	7	Sololá	713	San Lucas Tolimán	10	San Lucas Tolimán	7	Julio	2023-07-14T00:00:00	2024-11-08T07:00:00	7	Dirección del viento	4.83
135535	7	Sololá	713	San Lucas Tolimán	10	San Lucas Tolimán	7	Julio	2023-07-14T00:00:00	2024-11-08T07:00:00	1	Precipitación	0
135536	7	Sololá	713	San Lucas Tolimán	10	San Lucas Tolimán	7	Julio	2023-07-14T00:00:00	2024-11-08T07:00:00	8	Radiación solar	63
135537	7	Sololá	713	San Lucas Tolimán	10	San Lucas Tolimán	7	Julio	2023-07-14T00:00:00	2024-11-08T08:00:00	2	Temperatura media	21.8
135538	7	Sololá	713	San Lucas Tolimán	10	San Lucas Tolimán	7	Julio	2023-07-14T00:00:00	2024-11-08T08:00:00	4	Temperatura máxima	21.8
135539	7	Sololá	713	San Lucas Tolimán	10	San Lucas Tolimán	7	Julio	2023-07-14T00:00:00	2024-11-08T08:00:00	3	Temperatura mínima	20.6
135540	7	Sololá	713	San Lucas Tolimán	10	San Lucas Tolimán	7	Julio	2023-07-14T00:00:00	2024-11-08T08:00:00	5	Humedad	64
135541	7	Sololá	713	San Lucas Tolimán	10	San Lucas Tolimán	7	Julio	2023-07-14T00:00:00	2024-11-08T08:00:00	6	Velocidad del viento	4.8
135542	7	Sololá	713	San Lucas Tolimán	10	San Lucas Tolimán	7	Julio	2023-07-14T00:00:00	2024-11-08T08:00:00	7	Dirección del viento	4.83
135543	7	Sololá	713	San Lucas Tolimán	10	San Lucas Tolimán	7	Julio	2023-07-14T00:00:00	2024-11-08T08:00:00	1	Precipitación	0
135544	7	Sololá	713	San Lucas Tolimán	10	San Lucas Tolimán	7	Julio	2023-07-14T00:00:00	2024-11-08T08:00:00	8	Radiación solar	226
135545	7	Sololá	713	San Lucas Tolimán	10	San Lucas Tolimán	7	Julio	2023-07-14T00:00:00	2024-11-08T09:00:00	2	Temperatura media	23.1
135546	7	Sololá	713	San Lucas Tolimán	10	San Lucas Tolimán	7	Julio	2023-07-14T00:00:00	2024-11-08T09:00:00	4	Temperatura máxima	23.1
135547	7	Sololá	713	San Lucas Tolimán	10	San Lucas Tolimán	7	Julio	2023-07-14T00:00:00	2024-11-08T09:00:00	3	Temperatura mínima	21.8
135548	7	Sololá	713	San Lucas Tolimán	10	San Lucas Tolimán	7	Julio	2023-07-14T00:00:00	2024-11-08T09:00:00	5	Humedad	58
135549	7	Sololá	713	San Lucas Tolimán	10	San Lucas Tolimán	7	Julio	2023-07-14T00:00:00	2024-11-08T09:00:00	6	Velocidad del viento	4.8
135550	7	Sololá	713	San Lucas Tolimán	10	San Lucas Tolimán	7	Julio	2023-07-14T00:00:00	2024-11-08T09:00:00	7	Dirección del viento	4.83
135551	7	Sololá	713	San Lucas Tolimán	10	San Lucas Tolimán	7	Julio	2023-07-14T00:00:00	2024-11-08T09:00:00	1	Precipitación	0
135552	7	Sololá	713	San Lucas Tolimán	10	San Lucas Tolimán	7	Julio	2023-07-14T00:00:00	2024-11-08T09:00:00	8	Radiación solar	433
135553	7	Sololá	713	San Lucas Tolimán	10	San Lucas Tolimán	7	Julio	2023-07-14T00:00:00	2024-11-08T10:00:00	2	Temperatura media	23.8
135554	7	Sololá	713	San Lucas Tolimán	10	San Lucas Tolimán	7	Julio	2023-07-14T00:00:00	2024-11-08T10:00:00	4	Temperatura máxima	24
135555	7	Sololá	713	San Lucas Tolimán	10	San Lucas Tolimán	7	Julio	2023-07-14T00:00:00	2024-11-08T10:00:00	3	Temperatura mínima	23.1
135556	7	Sololá	713	San Lucas Tolimán	10	San Lucas Tolimán	7	Julio	2023-07-14T00:00:00	2024-11-08T10:00:00	5	Humedad	55
135557	7	Sololá	713	San Lucas Tolimán	10	San Lucas Tolimán	7	Julio	2023-07-14T00:00:00	2024-11-08T10:00:00	6	Velocidad del viento	6.4
135558	7	Sololá	713	San Lucas Tolimán	10	San Lucas Tolimán	7	Julio	2023-07-14T00:00:00	2024-11-08T10:00:00	7	Dirección del viento	6.44
135559	7	Sololá	713	San Lucas Tolimán	10	San Lucas Tolimán	7	Julio	2023-07-14T00:00:00	2024-11-08T10:00:00	1	Precipitación	0
135560	7	Sololá	713	San Lucas Tolimán	10	San Lucas Tolimán	7	Julio	2023-07-14T00:00:00	2024-11-08T10:00:00	8	Radiación solar	552
135561	7	Sololá	713	San Lucas Tolimán	10	San Lucas Tolimán	7	Julio	2023-07-14T00:00:00	2024-11-08T11:00:00	2	Temperatura media	26.2
135562	7	Sololá	713	San Lucas Tolimán	10	San Lucas Tolimán	7	Julio	2023-07-14T00:00:00	2024-11-08T11:00:00	4	Temperatura máxima	26.2
135563	7	Sololá	713	San Lucas Tolimán	10	San Lucas Tolimán	7	Julio	2023-07-14T00:00:00	2024-11-08T11:00:00	3	Temperatura mínima	23.7
135564	7	Sololá	713	San Lucas Tolimán	10	San Lucas Tolimán	7	Julio	2023-07-14T00:00:00	2024-11-08T11:00:00	5	Humedad	50
135565	7	Sololá	713	San Lucas Tolimán	10	San Lucas Tolimán	7	Julio	2023-07-14T00:00:00	2024-11-08T11:00:00	6	Velocidad del viento	6.4
135566	7	Sololá	713	San Lucas Tolimán	10	San Lucas Tolimán	7	Julio	2023-07-14T00:00:00	2024-11-08T11:00:00	7	Dirección del viento	6.44
135567	7	Sololá	713	San Lucas Tolimán	10	San Lucas Tolimán	7	Julio	2023-07-14T00:00:00	2024-11-08T11:00:00	1	Precipitación	0
135568	7	Sololá	713	San Lucas Tolimán	10	San Lucas Tolimán	7	Julio	2023-07-14T00:00:00	2024-11-08T11:00:00	8	Radiación solar	729
135569	7	Sololá	713	San Lucas Tolimán	10	San Lucas Tolimán	7	Julio	2023-07-14T00:00:00	2024-11-08T12:00:00	2	Temperatura media	26.6
135570	7	Sololá	713	San Lucas Tolimán	10	San Lucas Tolimán	7	Julio	2023-07-14T00:00:00	2024-11-08T12:00:00	4	Temperatura máxima	26.6
135571	7	Sololá	713	San Lucas Tolimán	10	San Lucas Tolimán	7	Julio	2023-07-14T00:00:00	2024-11-08T12:00:00	3	Temperatura mínima	25.6
135572	7	Sololá	713	San Lucas Tolimán	10	San Lucas Tolimán	7	Julio	2023-07-14T00:00:00	2024-11-08T12:00:00	5	Humedad	48
135573	7	Sololá	713	San Lucas Tolimán	10	San Lucas Tolimán	7	Julio	2023-07-14T00:00:00	2024-11-08T12:00:00	6	Velocidad del viento	6.4
135574	7	Sololá	713	San Lucas Tolimán	10	San Lucas Tolimán	7	Julio	2023-07-14T00:00:00	2024-11-08T12:00:00	7	Dirección del viento	6.44
135575	7	Sololá	713	San Lucas Tolimán	10	San Lucas Tolimán	7	Julio	2023-07-14T00:00:00	2024-11-08T12:00:00	1	Precipitación	0
135576	7	Sololá	713	San Lucas Tolimán	10	San Lucas Tolimán	7	Julio	2023-07-14T00:00:00	2024-11-08T12:00:00	8	Radiación solar	924
135577	7	Sololá	713	San Lucas Tolimán	10	San Lucas Tolimán	7	Julio	2023-07-14T00:00:00	2024-11-08T13:00:00	2	Temperatura media	26.8
135578	7	Sololá	713	San Lucas Tolimán	10	San Lucas Tolimán	7	Julio	2023-07-14T00:00:00	2024-11-08T13:00:00	4	Temperatura máxima	27
135579	7	Sololá	713	San Lucas Tolimán	10	San Lucas Tolimán	7	Julio	2023-07-14T00:00:00	2024-11-08T13:00:00	3	Temperatura mínima	26.6
135580	7	Sololá	713	San Lucas Tolimán	10	San Lucas Tolimán	7	Julio	2023-07-14T00:00:00	2024-11-08T13:00:00	5	Humedad	48
135581	7	Sololá	713	San Lucas Tolimán	10	San Lucas Tolimán	7	Julio	2023-07-14T00:00:00	2024-11-08T13:00:00	6	Velocidad del viento	6.4
135582	7	Sololá	713	San Lucas Tolimán	10	San Lucas Tolimán	7	Julio	2023-07-14T00:00:00	2024-11-08T13:00:00	7	Dirección del viento	6.44
135583	7	Sololá	713	San Lucas Tolimán	10	San Lucas Tolimán	7	Julio	2023-07-14T00:00:00	2024-11-08T13:00:00	1	Precipitación	0
135584	7	Sololá	713	San Lucas Tolimán	10	San Lucas Tolimán	7	Julio	2023-07-14T00:00:00	2024-11-08T13:00:00	8	Radiación solar	898
135585	7	Sololá	713	San Lucas Tolimán	10	San Lucas Tolimán	7	Julio	2023-07-14T00:00:00	2024-11-08T14:00:00	2	Temperatura media	28.3
135586	7	Sololá	713	San Lucas Tolimán	10	San Lucas Tolimán	7	Julio	2023-07-14T00:00:00	2024-11-08T14:00:00	4	Temperatura máxima	28.3
135587	7	Sololá	713	San Lucas Tolimán	10	San Lucas Tolimán	7	Julio	2023-07-14T00:00:00	2024-11-08T14:00:00	3	Temperatura mínima	26.7
135588	7	Sololá	713	San Lucas Tolimán	10	San Lucas Tolimán	7	Julio	2023-07-14T00:00:00	2024-11-08T14:00:00	5	Humedad	45
135589	7	Sololá	713	San Lucas Tolimán	10	San Lucas Tolimán	7	Julio	2023-07-14T00:00:00	2024-11-08T14:00:00	6	Velocidad del viento	6.4
135590	7	Sololá	713	San Lucas Tolimán	10	San Lucas Tolimán	7	Julio	2023-07-14T00:00:00	2024-11-08T14:00:00	7	Dirección del viento	6.44
135591	7	Sololá	713	San Lucas Tolimán	10	San Lucas Tolimán	7	Julio	2023-07-14T00:00:00	2024-11-08T14:00:00	1	Precipitación	0
135592	7	Sololá	713	San Lucas Tolimán	10	San Lucas Tolimán	7	Julio	2023-07-14T00:00:00	2024-11-08T14:00:00	8	Radiación solar	848
135593	7	Sololá	713	San Lucas Tolimán	10	San Lucas Tolimán	7	Julio	2023-07-14T00:00:00	2024-11-08T15:00:00	2	Temperatura media	28.7
135594	7	Sololá	713	San Lucas Tolimán	10	San Lucas Tolimán	7	Julio	2023-07-14T00:00:00	2024-11-08T15:00:00	4	Temperatura máxima	28.8
135595	7	Sololá	713	San Lucas Tolimán	10	San Lucas Tolimán	7	Julio	2023-07-14T00:00:00	2024-11-08T15:00:00	3	Temperatura mínima	28.1
135596	7	Sololá	713	San Lucas Tolimán	10	San Lucas Tolimán	7	Julio	2023-07-14T00:00:00	2024-11-08T15:00:00	5	Humedad	44
135597	7	Sololá	713	San Lucas Tolimán	10	San Lucas Tolimán	7	Julio	2023-07-14T00:00:00	2024-11-08T15:00:00	6	Velocidad del viento	6.4
135598	7	Sololá	713	San Lucas Tolimán	10	San Lucas Tolimán	7	Julio	2023-07-14T00:00:00	2024-11-08T15:00:00	7	Dirección del viento	6.44
135599	7	Sololá	713	San Lucas Tolimán	10	San Lucas Tolimán	7	Julio	2023-07-14T00:00:00	2024-11-08T15:00:00	1	Precipitación	0
135600	7	Sololá	713	San Lucas Tolimán	10	San Lucas Tolimán	7	Julio	2023-07-14T00:00:00	2024-11-08T15:00:00	8	Radiación solar	704
135601	7	Sololá	713	San Lucas Tolimán	10	San Lucas Tolimán	7	Julio	2023-07-14T00:00:00	2024-11-08T16:00:00	2	Temperatura media	27.2
135602	7	Sololá	713	San Lucas Tolimán	10	San Lucas Tolimán	7	Julio	2023-07-14T00:00:00	2024-11-08T16:00:00	4	Temperatura máxima	28.8
135603	7	Sololá	713	San Lucas Tolimán	10	San Lucas Tolimán	7	Julio	2023-07-14T00:00:00	2024-11-08T16:00:00	3	Temperatura mínima	26.7
135604	7	Sololá	713	San Lucas Tolimán	10	San Lucas Tolimán	7	Julio	2023-07-14T00:00:00	2024-11-08T16:00:00	5	Humedad	50
135605	7	Sololá	713	San Lucas Tolimán	10	San Lucas Tolimán	7	Julio	2023-07-14T00:00:00	2024-11-08T16:00:00	6	Velocidad del viento	8
135606	7	Sololá	713	San Lucas Tolimán	10	San Lucas Tolimán	7	Julio	2023-07-14T00:00:00	2024-11-08T16:00:00	7	Dirección del viento	8.05
135607	7	Sololá	713	San Lucas Tolimán	10	San Lucas Tolimán	7	Julio	2023-07-14T00:00:00	2024-11-08T16:00:00	1	Precipitación	0
135608	7	Sololá	713	San Lucas Tolimán	10	San Lucas Tolimán	7	Julio	2023-07-14T00:00:00	2024-11-08T16:00:00	8	Radiación solar	666
135609	7	Sololá	713	San Lucas Tolimán	10	San Lucas Tolimán	7	Julio	2023-07-14T00:00:00	2024-11-08T17:00:00	2	Temperatura media	25.6
135610	7	Sololá	713	San Lucas Tolimán	10	San Lucas Tolimán	7	Julio	2023-07-14T00:00:00	2024-11-08T17:00:00	4	Temperatura máxima	27.3
135611	7	Sololá	713	San Lucas Tolimán	10	San Lucas Tolimán	7	Julio	2023-07-14T00:00:00	2024-11-08T17:00:00	3	Temperatura mínima	25.6
135612	7	Sololá	713	San Lucas Tolimán	10	San Lucas Tolimán	7	Julio	2023-07-14T00:00:00	2024-11-08T17:00:00	5	Humedad	53
135613	7	Sololá	713	San Lucas Tolimán	10	San Lucas Tolimán	7	Julio	2023-07-14T00:00:00	2024-11-08T17:00:00	6	Velocidad del viento	8
135614	7	Sololá	713	San Lucas Tolimán	10	San Lucas Tolimán	7	Julio	2023-07-14T00:00:00	2024-11-08T17:00:00	7	Dirección del viento	8.05
135615	7	Sololá	713	San Lucas Tolimán	10	San Lucas Tolimán	7	Julio	2023-07-14T00:00:00	2024-11-08T17:00:00	1	Precipitación	0
135616	7	Sololá	713	San Lucas Tolimán	10	San Lucas Tolimán	7	Julio	2023-07-14T00:00:00	2024-11-08T17:00:00	8	Radiación solar	121
135617	7	Sololá	713	San Lucas Tolimán	10	San Lucas Tolimán	7	Julio	2023-07-14T00:00:00	2024-11-08T18:00:00	2	Temperatura media	23.9
135618	7	Sololá	713	San Lucas Tolimán	10	San Lucas Tolimán	7	Julio	2023-07-14T00:00:00	2024-11-08T18:00:00	4	Temperatura máxima	25.6
135619	7	Sololá	713	San Lucas Tolimán	10	San Lucas Tolimán	7	Julio	2023-07-14T00:00:00	2024-11-08T18:00:00	3	Temperatura mínima	23.8
135620	7	Sololá	713	San Lucas Tolimán	10	San Lucas Tolimán	7	Julio	2023-07-14T00:00:00	2024-11-08T18:00:00	5	Humedad	55
135621	7	Sololá	713	San Lucas Tolimán	10	San Lucas Tolimán	7	Julio	2023-07-14T00:00:00	2024-11-08T18:00:00	6	Velocidad del viento	8
135622	7	Sololá	713	San Lucas Tolimán	10	San Lucas Tolimán	7	Julio	2023-07-14T00:00:00	2024-11-08T18:00:00	7	Dirección del viento	8.05
135623	7	Sololá	713	San Lucas Tolimán	10	San Lucas Tolimán	7	Julio	2023-07-14T00:00:00	2024-11-08T18:00:00	1	Precipitación	0
135624	7	Sololá	713	San Lucas Tolimán	10	San Lucas Tolimán	7	Julio	2023-07-14T00:00:00	2024-11-08T18:00:00	8	Radiación solar	0
135625	7	Sololá	713	San Lucas Tolimán	10	San Lucas Tolimán	7	Julio	2023-07-14T00:00:00	2024-11-08T19:00:00	2	Temperatura media	22.9
135626	7	Sololá	713	San Lucas Tolimán	10	San Lucas Tolimán	7	Julio	2023-07-14T00:00:00	2024-11-08T19:00:00	4	Temperatura máxima	23.9
135627	7	Sololá	713	San Lucas Tolimán	10	San Lucas Tolimán	7	Julio	2023-07-14T00:00:00	2024-11-08T19:00:00	3	Temperatura mínima	22.9
135628	7	Sololá	713	San Lucas Tolimán	10	San Lucas Tolimán	7	Julio	2023-07-14T00:00:00	2024-11-08T19:00:00	5	Humedad	61
135629	7	Sololá	713	San Lucas Tolimán	10	San Lucas Tolimán	7	Julio	2023-07-14T00:00:00	2024-11-08T19:00:00	6	Velocidad del viento	6.4
135630	7	Sololá	713	San Lucas Tolimán	10	San Lucas Tolimán	7	Julio	2023-07-14T00:00:00	2024-11-08T19:00:00	7	Dirección del viento	6.44
135631	7	Sololá	713	San Lucas Tolimán	10	San Lucas Tolimán	7	Julio	2023-07-14T00:00:00	2024-11-08T19:00:00	1	Precipitación	0
135632	7	Sololá	713	San Lucas Tolimán	10	San Lucas Tolimán	7	Julio	2023-07-14T00:00:00	2024-11-08T19:00:00	8	Radiación solar	0
135633	7	Sololá	713	San Lucas Tolimán	10	San Lucas Tolimán	7	Julio	2023-07-14T00:00:00	2024-11-08T20:00:00	2	Temperatura media	22.4
135634	7	Sololá	713	San Lucas Tolimán	10	San Lucas Tolimán	7	Julio	2023-07-14T00:00:00	2024-11-08T20:00:00	4	Temperatura máxima	22.9
135635	7	Sololá	713	San Lucas Tolimán	10	San Lucas Tolimán	7	Julio	2023-07-14T00:00:00	2024-11-08T20:00:00	3	Temperatura mínima	22.4
135636	7	Sololá	713	San Lucas Tolimán	10	San Lucas Tolimán	7	Julio	2023-07-14T00:00:00	2024-11-08T20:00:00	5	Humedad	67
135637	7	Sololá	713	San Lucas Tolimán	10	San Lucas Tolimán	7	Julio	2023-07-14T00:00:00	2024-11-08T20:00:00	6	Velocidad del viento	6.4
135638	7	Sololá	713	San Lucas Tolimán	10	San Lucas Tolimán	7	Julio	2023-07-14T00:00:00	2024-11-08T20:00:00	7	Dirección del viento	6.44
135639	7	Sololá	713	San Lucas Tolimán	10	San Lucas Tolimán	7	Julio	2023-07-14T00:00:00	2024-11-08T20:00:00	1	Precipitación	0
135640	7	Sololá	713	San Lucas Tolimán	10	San Lucas Tolimán	7	Julio	2023-07-14T00:00:00	2024-11-08T20:00:00	8	Radiación solar	0
135641	7	Sololá	713	San Lucas Tolimán	10	San Lucas Tolimán	7	Julio	2023-07-14T00:00:00	2024-11-08T21:00:00	2	Temperatura media	22
135642	7	Sololá	713	San Lucas Tolimán	10	San Lucas Tolimán	7	Julio	2023-07-14T00:00:00	2024-11-08T21:00:00	4	Temperatura máxima	22.4
135643	7	Sololá	713	San Lucas Tolimán	10	San Lucas Tolimán	7	Julio	2023-07-14T00:00:00	2024-11-08T21:00:00	3	Temperatura mínima	22
135644	7	Sololá	713	San Lucas Tolimán	10	San Lucas Tolimán	7	Julio	2023-07-14T00:00:00	2024-11-08T21:00:00	5	Humedad	69
135645	7	Sololá	713	San Lucas Tolimán	10	San Lucas Tolimán	7	Julio	2023-07-14T00:00:00	2024-11-08T21:00:00	6	Velocidad del viento	4.8
135646	7	Sololá	713	San Lucas Tolimán	10	San Lucas Tolimán	7	Julio	2023-07-14T00:00:00	2024-11-08T21:00:00	7	Dirección del viento	4.83
135647	7	Sololá	713	San Lucas Tolimán	10	San Lucas Tolimán	7	Julio	2023-07-14T00:00:00	2024-11-08T21:00:00	1	Precipitación	0
135648	7	Sololá	713	San Lucas Tolimán	10	San Lucas Tolimán	7	Julio	2023-07-14T00:00:00	2024-11-08T21:00:00	8	Radiación solar	0
135649	7	Sololá	713	San Lucas Tolimán	10	San Lucas Tolimán	7	Julio	2023-07-14T00:00:00	2024-11-08T22:00:00	2	Temperatura media	21.8
135650	7	Sololá	713	San Lucas Tolimán	10	San Lucas Tolimán	7	Julio	2023-07-14T00:00:00	2024-11-08T22:00:00	4	Temperatura máxima	22.1
135651	7	Sololá	713	San Lucas Tolimán	10	San Lucas Tolimán	7	Julio	2023-07-14T00:00:00	2024-11-08T22:00:00	3	Temperatura mínima	21.8
135652	7	Sololá	713	San Lucas Tolimán	10	San Lucas Tolimán	7	Julio	2023-07-14T00:00:00	2024-11-08T22:00:00	5	Humedad	65
135653	7	Sololá	713	San Lucas Tolimán	10	San Lucas Tolimán	7	Julio	2023-07-14T00:00:00	2024-11-08T22:00:00	6	Velocidad del viento	8
135654	7	Sololá	713	San Lucas Tolimán	10	San Lucas Tolimán	7	Julio	2023-07-14T00:00:00	2024-11-08T22:00:00	7	Dirección del viento	8.05
135655	7	Sololá	713	San Lucas Tolimán	10	San Lucas Tolimán	7	Julio	2023-07-14T00:00:00	2024-11-08T22:00:00	1	Precipitación	0
135656	7	Sololá	713	San Lucas Tolimán	10	San Lucas Tolimán	7	Julio	2023-07-14T00:00:00	2024-11-08T22:00:00	8	Radiación solar	0
135657	7	Sololá	713	San Lucas Tolimán	10	San Lucas Tolimán	7	Julio	2023-07-14T00:00:00	2024-11-08T23:00:00	2	Temperatura media	20.7
135658	7	Sololá	713	San Lucas Tolimán	10	San Lucas Tolimán	7	Julio	2023-07-14T00:00:00	2024-11-08T23:00:00	4	Temperatura máxima	21.9
135659	7	Sololá	713	San Lucas Tolimán	10	San Lucas Tolimán	7	Julio	2023-07-14T00:00:00	2024-11-08T23:00:00	3	Temperatura mínima	20.7
135660	7	Sololá	713	San Lucas Tolimán	10	San Lucas Tolimán	7	Julio	2023-07-14T00:00:00	2024-11-08T23:00:00	5	Humedad	71
135661	7	Sololá	713	San Lucas Tolimán	10	San Lucas Tolimán	7	Julio	2023-07-14T00:00:00	2024-11-08T23:00:00	6	Velocidad del viento	3.2
135662	7	Sololá	713	San Lucas Tolimán	10	San Lucas Tolimán	7	Julio	2023-07-14T00:00:00	2024-11-08T23:00:00	7	Dirección del viento	3.22
135663	7	Sololá	713	San Lucas Tolimán	10	San Lucas Tolimán	7	Julio	2023-07-14T00:00:00	2024-11-08T23:00:00	1	Precipitación	0
135664	7	Sololá	713	San Lucas Tolimán	10	San Lucas Tolimán	7	Julio	2023-07-14T00:00:00	2024-11-08T23:00:00	8	Radiación solar	0
135665	7	Sololá	713	San Lucas Tolimán	10	San Lucas Tolimán	7	Julio	2023-07-15T00:00:00	2024-11-08T00:00:00	2	Temperatura media	20.2
135666	7	Sololá	713	San Lucas Tolimán	10	San Lucas Tolimán	7	Julio	2023-07-15T00:00:00	2024-11-08T00:00:00	4	Temperatura máxima	20.7
135667	7	Sololá	713	San Lucas Tolimán	10	San Lucas Tolimán	7	Julio	2023-07-15T00:00:00	2024-11-08T00:00:00	3	Temperatura mínima	20.2
135668	7	Sololá	713	San Lucas Tolimán	10	San Lucas Tolimán	7	Julio	2023-07-15T00:00:00	2024-11-08T00:00:00	5	Humedad	71
135669	7	Sololá	713	San Lucas Tolimán	10	San Lucas Tolimán	7	Julio	2023-07-15T00:00:00	2024-11-08T00:00:00	6	Velocidad del viento	3.2
135670	7	Sololá	713	San Lucas Tolimán	10	San Lucas Tolimán	7	Julio	2023-07-15T00:00:00	2024-11-08T00:00:00	7	Dirección del viento	3.22
135671	7	Sololá	713	San Lucas Tolimán	10	San Lucas Tolimán	7	Julio	2023-07-15T00:00:00	2024-11-08T00:00:00	1	Precipitación	0
135672	7	Sololá	713	San Lucas Tolimán	10	San Lucas Tolimán	7	Julio	2023-07-15T00:00:00	2024-11-08T00:00:00	8	Radiación solar	0
135673	7	Sololá	713	San Lucas Tolimán	10	San Lucas Tolimán	7	Julio	2023-07-15T00:00:00	2024-11-08T01:00:00	2	Temperatura media	20
135674	7	Sololá	713	San Lucas Tolimán	10	San Lucas Tolimán	7	Julio	2023-07-15T00:00:00	2024-11-08T01:00:00	4	Temperatura máxima	20.2
135675	7	Sololá	713	San Lucas Tolimán	10	San Lucas Tolimán	7	Julio	2023-07-15T00:00:00	2024-11-08T01:00:00	3	Temperatura mínima	19.9
135676	7	Sololá	713	San Lucas Tolimán	10	San Lucas Tolimán	7	Julio	2023-07-15T00:00:00	2024-11-08T01:00:00	5	Humedad	71
135677	7	Sololá	713	San Lucas Tolimán	10	San Lucas Tolimán	7	Julio	2023-07-15T00:00:00	2024-11-08T01:00:00	6	Velocidad del viento	3.2
135678	7	Sololá	713	San Lucas Tolimán	10	San Lucas Tolimán	7	Julio	2023-07-15T00:00:00	2024-11-08T01:00:00	7	Dirección del viento	3.22
135679	7	Sololá	713	San Lucas Tolimán	10	San Lucas Tolimán	7	Julio	2023-07-15T00:00:00	2024-11-08T01:00:00	1	Precipitación	0
135680	7	Sololá	713	San Lucas Tolimán	10	San Lucas Tolimán	7	Julio	2023-07-15T00:00:00	2024-11-08T01:00:00	8	Radiación solar	0
135681	7	Sololá	713	San Lucas Tolimán	10	San Lucas Tolimán	7	Julio	2023-07-15T00:00:00	2024-11-08T02:00:00	2	Temperatura media	19.7
135682	7	Sololá	713	San Lucas Tolimán	10	San Lucas Tolimán	7	Julio	2023-07-15T00:00:00	2024-11-08T02:00:00	4	Temperatura máxima	20.1
135683	7	Sololá	713	San Lucas Tolimán	10	San Lucas Tolimán	7	Julio	2023-07-15T00:00:00	2024-11-08T02:00:00	3	Temperatura mínima	19.7
135684	7	Sololá	713	San Lucas Tolimán	10	San Lucas Tolimán	7	Julio	2023-07-15T00:00:00	2024-11-08T02:00:00	5	Humedad	72
135685	7	Sololá	713	San Lucas Tolimán	10	San Lucas Tolimán	7	Julio	2023-07-15T00:00:00	2024-11-08T02:00:00	6	Velocidad del viento	1.6
135686	7	Sololá	713	San Lucas Tolimán	10	San Lucas Tolimán	7	Julio	2023-07-15T00:00:00	2024-11-08T02:00:00	7	Dirección del viento	1.61
135687	7	Sololá	713	San Lucas Tolimán	10	San Lucas Tolimán	7	Julio	2023-07-15T00:00:00	2024-11-08T02:00:00	1	Precipitación	0
135688	7	Sololá	713	San Lucas Tolimán	10	San Lucas Tolimán	7	Julio	2023-07-15T00:00:00	2024-11-08T02:00:00	8	Radiación solar	0
135689	7	Sololá	713	San Lucas Tolimán	10	San Lucas Tolimán	7	Julio	2023-07-15T00:00:00	2024-11-08T03:00:00	2	Temperatura media	19.1
135690	7	Sololá	713	San Lucas Tolimán	10	San Lucas Tolimán	7	Julio	2023-07-15T00:00:00	2024-11-08T03:00:00	4	Temperatura máxima	19.7
135691	7	Sololá	713	San Lucas Tolimán	10	San Lucas Tolimán	7	Julio	2023-07-15T00:00:00	2024-11-08T03:00:00	3	Temperatura mínima	18.9
135692	7	Sololá	713	San Lucas Tolimán	10	San Lucas Tolimán	7	Julio	2023-07-15T00:00:00	2024-11-08T03:00:00	5	Humedad	74
135693	7	Sololá	713	San Lucas Tolimán	10	San Lucas Tolimán	7	Julio	2023-07-15T00:00:00	2024-11-08T03:00:00	6	Velocidad del viento	1.6
135694	7	Sololá	713	San Lucas Tolimán	10	San Lucas Tolimán	7	Julio	2023-07-15T00:00:00	2024-11-08T03:00:00	7	Dirección del viento	1.61
135695	7	Sololá	713	San Lucas Tolimán	10	San Lucas Tolimán	7	Julio	2023-07-15T00:00:00	2024-11-08T03:00:00	1	Precipitación	0
135696	7	Sololá	713	San Lucas Tolimán	10	San Lucas Tolimán	7	Julio	2023-07-15T00:00:00	2024-11-08T03:00:00	8	Radiación solar	0
135697	7	Sololá	713	San Lucas Tolimán	10	San Lucas Tolimán	7	Julio	2023-07-15T00:00:00	2024-11-08T04:00:00	2	Temperatura media	18.2
135698	7	Sololá	713	San Lucas Tolimán	10	San Lucas Tolimán	7	Julio	2023-07-15T00:00:00	2024-11-08T04:00:00	4	Temperatura máxima	19.1
135699	7	Sololá	713	San Lucas Tolimán	10	San Lucas Tolimán	7	Julio	2023-07-15T00:00:00	2024-11-08T04:00:00	3	Temperatura mínima	18.1
135700	7	Sololá	713	San Lucas Tolimán	10	San Lucas Tolimán	7	Julio	2023-07-15T00:00:00	2024-11-08T04:00:00	5	Humedad	77
135701	7	Sololá	713	San Lucas Tolimán	10	San Lucas Tolimán	7	Julio	2023-07-15T00:00:00	2024-11-08T04:00:00	6	Velocidad del viento	1.6
135702	7	Sololá	713	San Lucas Tolimán	10	San Lucas Tolimán	7	Julio	2023-07-15T00:00:00	2024-11-08T04:00:00	7	Dirección del viento	1.61
135703	7	Sololá	713	San Lucas Tolimán	10	San Lucas Tolimán	7	Julio	2023-07-15T00:00:00	2024-11-08T04:00:00	1	Precipitación	0
135704	7	Sololá	713	San Lucas Tolimán	10	San Lucas Tolimán	7	Julio	2023-07-15T00:00:00	2024-11-08T04:00:00	8	Radiación solar	0
135705	7	Sololá	713	San Lucas Tolimán	10	San Lucas Tolimán	7	Julio	2023-07-15T00:00:00	2024-11-08T05:00:00	2	Temperatura media	18.1
135706	7	Sololá	713	San Lucas Tolimán	10	San Lucas Tolimán	7	Julio	2023-07-15T00:00:00	2024-11-08T05:00:00	4	Temperatura máxima	18.3
135707	7	Sololá	713	San Lucas Tolimán	10	San Lucas Tolimán	7	Julio	2023-07-15T00:00:00	2024-11-08T05:00:00	3	Temperatura mínima	18.1
135708	7	Sololá	713	San Lucas Tolimán	10	San Lucas Tolimán	7	Julio	2023-07-15T00:00:00	2024-11-08T05:00:00	5	Humedad	79
135709	7	Sololá	713	San Lucas Tolimán	10	San Lucas Tolimán	7	Julio	2023-07-15T00:00:00	2024-11-08T05:00:00	6	Velocidad del viento	1.6
135710	7	Sololá	713	San Lucas Tolimán	10	San Lucas Tolimán	7	Julio	2023-07-15T00:00:00	2024-11-08T05:00:00	7	Dirección del viento	1.61
135711	7	Sololá	713	San Lucas Tolimán	10	San Lucas Tolimán	7	Julio	2023-07-15T00:00:00	2024-11-08T05:00:00	1	Precipitación	0
135712	7	Sololá	713	San Lucas Tolimán	10	San Lucas Tolimán	7	Julio	2023-07-15T00:00:00	2024-11-08T05:00:00	8	Radiación solar	0
135713	7	Sololá	713	San Lucas Tolimán	10	San Lucas Tolimán	7	Julio	2023-07-15T00:00:00	2024-11-08T06:00:00	2	Temperatura media	18.3
135714	7	Sololá	713	San Lucas Tolimán	10	San Lucas Tolimán	7	Julio	2023-07-15T00:00:00	2024-11-08T06:00:00	4	Temperatura máxima	18.3
135715	7	Sololá	713	San Lucas Tolimán	10	San Lucas Tolimán	7	Julio	2023-07-15T00:00:00	2024-11-08T06:00:00	3	Temperatura mínima	18.1
135716	7	Sololá	713	San Lucas Tolimán	10	San Lucas Tolimán	7	Julio	2023-07-15T00:00:00	2024-11-08T06:00:00	5	Humedad	79
135717	7	Sololá	713	San Lucas Tolimán	10	San Lucas Tolimán	7	Julio	2023-07-15T00:00:00	2024-11-08T06:00:00	6	Velocidad del viento	1.6
135718	7	Sololá	713	San Lucas Tolimán	10	San Lucas Tolimán	7	Julio	2023-07-15T00:00:00	2024-11-08T06:00:00	7	Dirección del viento	1.61
135719	7	Sololá	713	San Lucas Tolimán	10	San Lucas Tolimán	7	Julio	2023-07-15T00:00:00	2024-11-08T06:00:00	1	Precipitación	0
135720	7	Sololá	713	San Lucas Tolimán	10	San Lucas Tolimán	7	Julio	2023-07-15T00:00:00	2024-11-08T06:00:00	8	Radiación solar	2
135721	7	Sololá	713	San Lucas Tolimán	10	San Lucas Tolimán	7	Julio	2023-07-15T00:00:00	2024-11-08T07:00:00	2	Temperatura media	19.1
135722	7	Sololá	713	San Lucas Tolimán	10	San Lucas Tolimán	7	Julio	2023-07-15T00:00:00	2024-11-08T07:00:00	4	Temperatura máxima	19.1
135723	7	Sololá	713	San Lucas Tolimán	10	San Lucas Tolimán	7	Julio	2023-07-15T00:00:00	2024-11-08T07:00:00	3	Temperatura mínima	18.3
135724	7	Sololá	713	San Lucas Tolimán	10	San Lucas Tolimán	7	Julio	2023-07-15T00:00:00	2024-11-08T07:00:00	5	Humedad	80
135725	7	Sololá	713	San Lucas Tolimán	10	San Lucas Tolimán	7	Julio	2023-07-15T00:00:00	2024-11-08T07:00:00	6	Velocidad del viento	1.6
135726	7	Sololá	713	San Lucas Tolimán	10	San Lucas Tolimán	7	Julio	2023-07-15T00:00:00	2024-11-08T07:00:00	7	Dirección del viento	1.61
135727	7	Sololá	713	San Lucas Tolimán	10	San Lucas Tolimán	7	Julio	2023-07-15T00:00:00	2024-11-08T07:00:00	1	Precipitación	0
135728	7	Sololá	713	San Lucas Tolimán	10	San Lucas Tolimán	7	Julio	2023-07-15T00:00:00	2024-11-08T07:00:00	8	Radiación solar	67
135729	7	Sololá	713	San Lucas Tolimán	10	San Lucas Tolimán	7	Julio	2023-07-15T00:00:00	2024-11-08T08:00:00	2	Temperatura media	21.2
135730	7	Sololá	713	San Lucas Tolimán	10	San Lucas Tolimán	7	Julio	2023-07-15T00:00:00	2024-11-08T08:00:00	4	Temperatura máxima	21.2
135731	7	Sololá	713	San Lucas Tolimán	10	San Lucas Tolimán	7	Julio	2023-07-15T00:00:00	2024-11-08T08:00:00	3	Temperatura mínima	19
135732	7	Sololá	713	San Lucas Tolimán	10	San Lucas Tolimán	7	Julio	2023-07-15T00:00:00	2024-11-08T08:00:00	5	Humedad	69
135733	7	Sololá	713	San Lucas Tolimán	10	San Lucas Tolimán	7	Julio	2023-07-15T00:00:00	2024-11-08T08:00:00	6	Velocidad del viento	4.8
135734	7	Sololá	713	San Lucas Tolimán	10	San Lucas Tolimán	7	Julio	2023-07-15T00:00:00	2024-11-08T08:00:00	7	Dirección del viento	4.83
135735	7	Sololá	713	San Lucas Tolimán	10	San Lucas Tolimán	7	Julio	2023-07-15T00:00:00	2024-11-08T08:00:00	1	Precipitación	0
135736	7	Sololá	713	San Lucas Tolimán	10	San Lucas Tolimán	7	Julio	2023-07-15T00:00:00	2024-11-08T08:00:00	8	Radiación solar	230
135737	7	Sololá	713	San Lucas Tolimán	10	San Lucas Tolimán	7	Julio	2023-07-15T00:00:00	2024-11-08T09:00:00	2	Temperatura media	22.7
135738	7	Sololá	713	San Lucas Tolimán	10	San Lucas Tolimán	7	Julio	2023-07-15T00:00:00	2024-11-08T09:00:00	4	Temperatura máxima	22.7
135739	7	Sololá	713	San Lucas Tolimán	10	San Lucas Tolimán	7	Julio	2023-07-15T00:00:00	2024-11-08T09:00:00	3	Temperatura mínima	21.2
135740	7	Sololá	713	San Lucas Tolimán	10	San Lucas Tolimán	7	Julio	2023-07-15T00:00:00	2024-11-08T09:00:00	5	Humedad	65
135741	7	Sololá	713	San Lucas Tolimán	10	San Lucas Tolimán	7	Julio	2023-07-15T00:00:00	2024-11-08T09:00:00	6	Velocidad del viento	6.4
135742	7	Sololá	713	San Lucas Tolimán	10	San Lucas Tolimán	7	Julio	2023-07-15T00:00:00	2024-11-08T09:00:00	7	Dirección del viento	6.44
135743	7	Sololá	713	San Lucas Tolimán	10	San Lucas Tolimán	7	Julio	2023-07-15T00:00:00	2024-11-08T09:00:00	1	Precipitación	0
135744	7	Sololá	713	San Lucas Tolimán	10	San Lucas Tolimán	7	Julio	2023-07-15T00:00:00	2024-11-08T09:00:00	8	Radiación solar	436
135745	7	Sololá	713	San Lucas Tolimán	10	San Lucas Tolimán	7	Julio	2023-07-15T00:00:00	2024-11-08T10:00:00	2	Temperatura media	25.1
135746	7	Sololá	713	San Lucas Tolimán	10	San Lucas Tolimán	7	Julio	2023-07-15T00:00:00	2024-11-08T10:00:00	4	Temperatura máxima	25.1
135747	7	Sololá	713	San Lucas Tolimán	10	San Lucas Tolimán	7	Julio	2023-07-15T00:00:00	2024-11-08T10:00:00	3	Temperatura mínima	22.7
135748	7	Sololá	713	San Lucas Tolimán	10	San Lucas Tolimán	7	Julio	2023-07-15T00:00:00	2024-11-08T10:00:00	5	Humedad	57
135749	7	Sololá	713	San Lucas Tolimán	10	San Lucas Tolimán	7	Julio	2023-07-15T00:00:00	2024-11-08T10:00:00	6	Velocidad del viento	3.2
135750	7	Sololá	713	San Lucas Tolimán	10	San Lucas Tolimán	7	Julio	2023-07-15T00:00:00	2024-11-08T10:00:00	7	Dirección del viento	3.22
135751	7	Sololá	713	San Lucas Tolimán	10	San Lucas Tolimán	7	Julio	2023-07-15T00:00:00	2024-11-08T10:00:00	1	Precipitación	0
135752	7	Sololá	713	San Lucas Tolimán	10	San Lucas Tolimán	7	Julio	2023-07-15T00:00:00	2024-11-08T10:00:00	8	Radiación solar	595
135753	7	Sololá	713	San Lucas Tolimán	10	San Lucas Tolimán	7	Julio	2023-07-15T00:00:00	2024-11-08T11:00:00	2	Temperatura media	25.9
135754	7	Sololá	713	San Lucas Tolimán	10	San Lucas Tolimán	7	Julio	2023-07-15T00:00:00	2024-11-08T11:00:00	4	Temperatura máxima	26.2
135755	7	Sololá	713	San Lucas Tolimán	10	San Lucas Tolimán	7	Julio	2023-07-15T00:00:00	2024-11-08T11:00:00	3	Temperatura mínima	25.1
135756	7	Sololá	713	San Lucas Tolimán	10	San Lucas Tolimán	7	Julio	2023-07-15T00:00:00	2024-11-08T11:00:00	5	Humedad	68
135757	7	Sololá	713	San Lucas Tolimán	10	San Lucas Tolimán	7	Julio	2023-07-15T00:00:00	2024-11-08T11:00:00	6	Velocidad del viento	4.8
135758	7	Sololá	713	San Lucas Tolimán	10	San Lucas Tolimán	7	Julio	2023-07-15T00:00:00	2024-11-08T11:00:00	7	Dirección del viento	4.83
135759	7	Sololá	713	San Lucas Tolimán	10	San Lucas Tolimán	7	Julio	2023-07-15T00:00:00	2024-11-08T11:00:00	1	Precipitación	0
135760	7	Sololá	713	San Lucas Tolimán	10	San Lucas Tolimán	7	Julio	2023-07-15T00:00:00	2024-11-08T11:00:00	8	Radiación solar	863
135761	7	Sololá	713	San Lucas Tolimán	10	San Lucas Tolimán	7	Julio	2023-07-15T00:00:00	2024-11-08T12:00:00	2	Temperatura media	23.2
135762	7	Sololá	713	San Lucas Tolimán	10	San Lucas Tolimán	7	Julio	2023-07-15T00:00:00	2024-11-08T12:00:00	4	Temperatura máxima	25.8
135763	7	Sololá	713	San Lucas Tolimán	10	San Lucas Tolimán	7	Julio	2023-07-15T00:00:00	2024-11-08T12:00:00	3	Temperatura mínima	23.2
135764	7	Sololá	713	San Lucas Tolimán	10	San Lucas Tolimán	7	Julio	2023-07-15T00:00:00	2024-11-08T12:00:00	5	Humedad	77
135765	7	Sololá	713	San Lucas Tolimán	10	San Lucas Tolimán	7	Julio	2023-07-15T00:00:00	2024-11-08T12:00:00	6	Velocidad del viento	9.7
135766	7	Sololá	713	San Lucas Tolimán	10	San Lucas Tolimán	7	Julio	2023-07-15T00:00:00	2024-11-08T12:00:00	7	Dirección del viento	9.66
135767	7	Sololá	713	San Lucas Tolimán	10	San Lucas Tolimán	7	Julio	2023-07-15T00:00:00	2024-11-08T12:00:00	1	Precipitación	0
135768	7	Sololá	713	San Lucas Tolimán	10	San Lucas Tolimán	7	Julio	2023-07-15T00:00:00	2024-11-08T12:00:00	8	Radiación solar	555
135769	7	Sololá	713	San Lucas Tolimán	10	San Lucas Tolimán	7	Julio	2023-07-15T00:00:00	2024-11-08T13:00:00	2	Temperatura media	23.5
135770	7	Sololá	713	San Lucas Tolimán	10	San Lucas Tolimán	7	Julio	2023-07-15T00:00:00	2024-11-08T13:00:00	4	Temperatura máxima	23.5
135771	7	Sololá	713	San Lucas Tolimán	10	San Lucas Tolimán	7	Julio	2023-07-15T00:00:00	2024-11-08T13:00:00	3	Temperatura mínima	22.2
135772	7	Sololá	713	San Lucas Tolimán	10	San Lucas Tolimán	7	Julio	2023-07-15T00:00:00	2024-11-08T13:00:00	5	Humedad	74
135773	7	Sololá	713	San Lucas Tolimán	10	San Lucas Tolimán	7	Julio	2023-07-15T00:00:00	2024-11-08T13:00:00	6	Velocidad del viento	11.3
135774	7	Sololá	713	San Lucas Tolimán	10	San Lucas Tolimán	7	Julio	2023-07-15T00:00:00	2024-11-08T13:00:00	7	Dirección del viento	11.27
135775	7	Sololá	713	San Lucas Tolimán	10	San Lucas Tolimán	7	Julio	2023-07-15T00:00:00	2024-11-08T13:00:00	1	Precipitación	0
135776	7	Sololá	713	San Lucas Tolimán	10	San Lucas Tolimán	7	Julio	2023-07-15T00:00:00	2024-11-08T13:00:00	8	Radiación solar	653
135777	7	Sololá	713	San Lucas Tolimán	10	San Lucas Tolimán	7	Julio	2023-07-15T00:00:00	2024-11-08T14:00:00	2	Temperatura media	23.7
135778	7	Sololá	713	San Lucas Tolimán	10	San Lucas Tolimán	7	Julio	2023-07-15T00:00:00	2024-11-08T14:00:00	4	Temperatura máxima	26
135779	7	Sololá	713	San Lucas Tolimán	10	San Lucas Tolimán	7	Julio	2023-07-15T00:00:00	2024-11-08T14:00:00	3	Temperatura mínima	23.6
135780	7	Sololá	713	San Lucas Tolimán	10	San Lucas Tolimán	7	Julio	2023-07-15T00:00:00	2024-11-08T14:00:00	5	Humedad	75
135781	7	Sololá	713	San Lucas Tolimán	10	San Lucas Tolimán	7	Julio	2023-07-15T00:00:00	2024-11-08T14:00:00	6	Velocidad del viento	11.3
135782	7	Sololá	713	San Lucas Tolimán	10	San Lucas Tolimán	7	Julio	2023-07-15T00:00:00	2024-11-08T14:00:00	7	Dirección del viento	11.27
135783	7	Sololá	713	San Lucas Tolimán	10	San Lucas Tolimán	7	Julio	2023-07-15T00:00:00	2024-11-08T14:00:00	1	Precipitación	0
135784	7	Sololá	713	San Lucas Tolimán	10	San Lucas Tolimán	7	Julio	2023-07-15T00:00:00	2024-11-08T14:00:00	8	Radiación solar	904
135785	7	Sololá	713	San Lucas Tolimán	10	San Lucas Tolimán	7	Julio	2023-07-15T00:00:00	2024-11-08T15:00:00	2	Temperatura media	22.4
135786	7	Sololá	713	San Lucas Tolimán	10	San Lucas Tolimán	7	Julio	2023-07-15T00:00:00	2024-11-08T15:00:00	4	Temperatura máxima	23.7
135787	7	Sololá	713	San Lucas Tolimán	10	San Lucas Tolimán	7	Julio	2023-07-15T00:00:00	2024-11-08T15:00:00	3	Temperatura mínima	20.4
135788	7	Sololá	713	San Lucas Tolimán	10	San Lucas Tolimán	7	Julio	2023-07-15T00:00:00	2024-11-08T15:00:00	5	Humedad	80
135789	7	Sololá	713	San Lucas Tolimán	10	San Lucas Tolimán	7	Julio	2023-07-15T00:00:00	2024-11-08T15:00:00	6	Velocidad del viento	11.3
135790	7	Sololá	713	San Lucas Tolimán	10	San Lucas Tolimán	7	Julio	2023-07-15T00:00:00	2024-11-08T15:00:00	7	Dirección del viento	11.27
135791	7	Sololá	713	San Lucas Tolimán	10	San Lucas Tolimán	7	Julio	2023-07-15T00:00:00	2024-11-08T15:00:00	1	Precipitación	0
135792	7	Sololá	713	San Lucas Tolimán	10	San Lucas Tolimán	7	Julio	2023-07-15T00:00:00	2024-11-08T15:00:00	8	Radiación solar	666
135793	7	Sololá	713	San Lucas Tolimán	10	San Lucas Tolimán	7	Julio	2023-07-15T00:00:00	2024-11-08T16:00:00	2	Temperatura media	22.3
135794	7	Sololá	713	San Lucas Tolimán	10	San Lucas Tolimán	7	Julio	2023-07-15T00:00:00	2024-11-08T16:00:00	4	Temperatura máxima	23.3
135795	7	Sololá	713	San Lucas Tolimán	10	San Lucas Tolimán	7	Julio	2023-07-15T00:00:00	2024-11-08T16:00:00	3	Temperatura mínima	22.3
135796	7	Sololá	713	San Lucas Tolimán	10	San Lucas Tolimán	7	Julio	2023-07-15T00:00:00	2024-11-08T16:00:00	5	Humedad	73
135797	7	Sololá	713	San Lucas Tolimán	10	San Lucas Tolimán	7	Julio	2023-07-15T00:00:00	2024-11-08T16:00:00	6	Velocidad del viento	11.3
135798	7	Sololá	713	San Lucas Tolimán	10	San Lucas Tolimán	7	Julio	2023-07-15T00:00:00	2024-11-08T16:00:00	7	Dirección del viento	11.27
135799	7	Sololá	713	San Lucas Tolimán	10	San Lucas Tolimán	7	Julio	2023-07-15T00:00:00	2024-11-08T16:00:00	1	Precipitación	0
135800	7	Sololá	713	San Lucas Tolimán	10	San Lucas Tolimán	7	Julio	2023-07-15T00:00:00	2024-11-08T16:00:00	8	Radiación solar	434
135801	7	Sololá	713	San Lucas Tolimán	10	San Lucas Tolimán	7	Julio	2023-07-15T00:00:00	2024-11-08T17:00:00	2	Temperatura media	21.4
135802	7	Sololá	713	San Lucas Tolimán	10	San Lucas Tolimán	7	Julio	2023-07-15T00:00:00	2024-11-08T17:00:00	4	Temperatura máxima	22.3
135803	7	Sololá	713	San Lucas Tolimán	10	San Lucas Tolimán	7	Julio	2023-07-15T00:00:00	2024-11-08T17:00:00	3	Temperatura mínima	21.1
135804	7	Sololá	713	San Lucas Tolimán	10	San Lucas Tolimán	7	Julio	2023-07-15T00:00:00	2024-11-08T17:00:00	5	Humedad	80
135805	7	Sololá	713	San Lucas Tolimán	10	San Lucas Tolimán	7	Julio	2023-07-15T00:00:00	2024-11-08T17:00:00	6	Velocidad del viento	11.3
135806	7	Sololá	713	San Lucas Tolimán	10	San Lucas Tolimán	7	Julio	2023-07-15T00:00:00	2024-11-08T17:00:00	7	Dirección del viento	11.27
135807	7	Sololá	713	San Lucas Tolimán	10	San Lucas Tolimán	7	Julio	2023-07-15T00:00:00	2024-11-08T17:00:00	1	Precipitación	0
135808	7	Sololá	713	San Lucas Tolimán	10	San Lucas Tolimán	7	Julio	2023-07-15T00:00:00	2024-11-08T17:00:00	8	Radiación solar	349
135809	7	Sololá	713	San Lucas Tolimán	10	San Lucas Tolimán	7	Julio	2023-07-15T00:00:00	2024-11-08T18:00:00	2	Temperatura media	21.7
135810	7	Sololá	713	San Lucas Tolimán	10	San Lucas Tolimán	7	Julio	2023-07-15T00:00:00	2024-11-08T18:00:00	4	Temperatura máxima	21.7
135811	7	Sololá	713	San Lucas Tolimán	10	San Lucas Tolimán	7	Julio	2023-07-15T00:00:00	2024-11-08T18:00:00	3	Temperatura mínima	21.1
135812	7	Sololá	713	San Lucas Tolimán	10	San Lucas Tolimán	7	Julio	2023-07-15T00:00:00	2024-11-08T18:00:00	5	Humedad	78
135813	7	Sololá	713	San Lucas Tolimán	10	San Lucas Tolimán	7	Julio	2023-07-15T00:00:00	2024-11-08T18:00:00	6	Velocidad del viento	3.2
135814	7	Sololá	713	San Lucas Tolimán	10	San Lucas Tolimán	7	Julio	2023-07-15T00:00:00	2024-11-08T18:00:00	7	Dirección del viento	3.22
135815	7	Sololá	713	San Lucas Tolimán	10	San Lucas Tolimán	7	Julio	2023-07-15T00:00:00	2024-11-08T18:00:00	1	Precipitación	0
135816	7	Sololá	713	San Lucas Tolimán	10	San Lucas Tolimán	7	Julio	2023-07-15T00:00:00	2024-11-08T18:00:00	8	Radiación solar	153
135817	7	Sololá	713	San Lucas Tolimán	10	San Lucas Tolimán	7	Julio	2023-07-15T00:00:00	2024-11-08T19:00:00	2	Temperatura media	20.6
135818	7	Sololá	713	San Lucas Tolimán	10	San Lucas Tolimán	7	Julio	2023-07-15T00:00:00	2024-11-08T19:00:00	4	Temperatura máxima	21.8
135819	7	Sololá	713	San Lucas Tolimán	10	San Lucas Tolimán	7	Julio	2023-07-15T00:00:00	2024-11-08T19:00:00	3	Temperatura mínima	20.5
135820	7	Sololá	713	San Lucas Tolimán	10	San Lucas Tolimán	7	Julio	2023-07-15T00:00:00	2024-11-08T19:00:00	5	Humedad	83
135821	7	Sololá	713	San Lucas Tolimán	10	San Lucas Tolimán	7	Julio	2023-07-15T00:00:00	2024-11-08T19:00:00	6	Velocidad del viento	3.2
135822	7	Sololá	713	San Lucas Tolimán	10	San Lucas Tolimán	7	Julio	2023-07-15T00:00:00	2024-11-08T19:00:00	7	Dirección del viento	3.22
135823	7	Sololá	713	San Lucas Tolimán	10	San Lucas Tolimán	7	Julio	2023-07-15T00:00:00	2024-11-08T19:00:00	1	Precipitación	0
135824	7	Sololá	713	San Lucas Tolimán	10	San Lucas Tolimán	7	Julio	2023-07-15T00:00:00	2024-11-08T19:00:00	8	Radiación solar	0
135825	7	Sololá	713	San Lucas Tolimán	10	San Lucas Tolimán	7	Julio	2023-07-15T00:00:00	2024-11-08T20:00:00	2	Temperatura media	20.4
135826	7	Sololá	713	San Lucas Tolimán	10	San Lucas Tolimán	7	Julio	2023-07-15T00:00:00	2024-11-08T20:00:00	4	Temperatura máxima	20.7
135827	7	Sololá	713	San Lucas Tolimán	10	San Lucas Tolimán	7	Julio	2023-07-15T00:00:00	2024-11-08T20:00:00	3	Temperatura mínima	20.4
135828	7	Sololá	713	San Lucas Tolimán	10	San Lucas Tolimán	7	Julio	2023-07-15T00:00:00	2024-11-08T20:00:00	5	Humedad	81
135829	7	Sololá	713	San Lucas Tolimán	10	San Lucas Tolimán	7	Julio	2023-07-15T00:00:00	2024-11-08T20:00:00	6	Velocidad del viento	1.6
135830	7	Sololá	713	San Lucas Tolimán	10	San Lucas Tolimán	7	Julio	2023-07-15T00:00:00	2024-11-08T20:00:00	7	Dirección del viento	1.61
135831	7	Sololá	713	San Lucas Tolimán	10	San Lucas Tolimán	7	Julio	2023-07-15T00:00:00	2024-11-08T20:00:00	1	Precipitación	0
135832	7	Sololá	713	San Lucas Tolimán	10	San Lucas Tolimán	7	Julio	2023-07-15T00:00:00	2024-11-08T20:00:00	8	Radiación solar	0
135833	7	Sololá	713	San Lucas Tolimán	10	San Lucas Tolimán	7	Julio	2023-07-15T00:00:00	2024-11-08T21:00:00	2	Temperatura media	21.4
135834	7	Sololá	713	San Lucas Tolimán	10	San Lucas Tolimán	7	Julio	2023-07-15T00:00:00	2024-11-08T21:00:00	4	Temperatura máxima	21.4
135835	7	Sololá	713	San Lucas Tolimán	10	San Lucas Tolimán	7	Julio	2023-07-15T00:00:00	2024-11-08T21:00:00	3	Temperatura mínima	20.4
135836	7	Sololá	713	San Lucas Tolimán	10	San Lucas Tolimán	7	Julio	2023-07-15T00:00:00	2024-11-08T21:00:00	5	Humedad	75
135837	7	Sololá	713	San Lucas Tolimán	10	San Lucas Tolimán	7	Julio	2023-07-15T00:00:00	2024-11-08T21:00:00	6	Velocidad del viento	1.6
135838	7	Sololá	713	San Lucas Tolimán	10	San Lucas Tolimán	7	Julio	2023-07-15T00:00:00	2024-11-08T21:00:00	7	Dirección del viento	1.61
135839	7	Sololá	713	San Lucas Tolimán	10	San Lucas Tolimán	7	Julio	2023-07-15T00:00:00	2024-11-08T21:00:00	1	Precipitación	0
135840	7	Sololá	713	San Lucas Tolimán	10	San Lucas Tolimán	7	Julio	2023-07-15T00:00:00	2024-11-08T21:00:00	8	Radiación solar	0
135841	7	Sololá	713	San Lucas Tolimán	10	San Lucas Tolimán	7	Julio	2023-07-15T00:00:00	2024-11-08T22:00:00	2	Temperatura media	21.1
135842	7	Sololá	713	San Lucas Tolimán	10	San Lucas Tolimán	7	Julio	2023-07-15T00:00:00	2024-11-08T22:00:00	4	Temperatura máxima	21.4
135843	7	Sololá	713	San Lucas Tolimán	10	San Lucas Tolimán	7	Julio	2023-07-15T00:00:00	2024-11-08T22:00:00	3	Temperatura mínima	21.1
135844	7	Sololá	713	San Lucas Tolimán	10	San Lucas Tolimán	7	Julio	2023-07-15T00:00:00	2024-11-08T22:00:00	5	Humedad	72
135845	7	Sololá	713	San Lucas Tolimán	10	San Lucas Tolimán	7	Julio	2023-07-15T00:00:00	2024-11-08T22:00:00	6	Velocidad del viento	3.2
135846	7	Sololá	713	San Lucas Tolimán	10	San Lucas Tolimán	7	Julio	2023-07-15T00:00:00	2024-11-08T22:00:00	7	Dirección del viento	3.22
135847	7	Sololá	713	San Lucas Tolimán	10	San Lucas Tolimán	7	Julio	2023-07-15T00:00:00	2024-11-08T22:00:00	1	Precipitación	0
135848	7	Sololá	713	San Lucas Tolimán	10	San Lucas Tolimán	7	Julio	2023-07-15T00:00:00	2024-11-08T22:00:00	8	Radiación solar	0
135849	7	Sololá	713	San Lucas Tolimán	10	San Lucas Tolimán	7	Julio	2023-07-15T00:00:00	2024-11-08T23:00:00	2	Temperatura media	19.1
135850	7	Sololá	713	San Lucas Tolimán	10	San Lucas Tolimán	7	Julio	2023-07-15T00:00:00	2024-11-08T23:00:00	4	Temperatura máxima	21.3
135851	7	Sololá	713	San Lucas Tolimán	10	San Lucas Tolimán	7	Julio	2023-07-15T00:00:00	2024-11-08T23:00:00	3	Temperatura mínima	19.1
135852	7	Sololá	713	San Lucas Tolimán	10	San Lucas Tolimán	7	Julio	2023-07-15T00:00:00	2024-11-08T23:00:00	5	Humedad	86
135853	7	Sololá	713	San Lucas Tolimán	10	San Lucas Tolimán	7	Julio	2023-07-15T00:00:00	2024-11-08T23:00:00	6	Velocidad del viento	3.2
135854	7	Sololá	713	San Lucas Tolimán	10	San Lucas Tolimán	7	Julio	2023-07-15T00:00:00	2024-11-08T23:00:00	7	Dirección del viento	3.22
135855	7	Sololá	713	San Lucas Tolimán	10	San Lucas Tolimán	7	Julio	2023-07-15T00:00:00	2024-11-08T23:00:00	1	Precipitación	0
135856	7	Sololá	713	San Lucas Tolimán	10	San Lucas Tolimán	7	Julio	2023-07-15T00:00:00	2024-11-08T23:00:00	8	Radiación solar	0
135857	7	Sololá	713	San Lucas Tolimán	10	San Lucas Tolimán	7	Julio	2023-07-16T00:00:00	2024-11-08T00:00:00	2	Temperatura media	18.4
135858	7	Sololá	713	San Lucas Tolimán	10	San Lucas Tolimán	7	Julio	2023-07-16T00:00:00	2024-11-08T00:00:00	4	Temperatura máxima	20.1
135859	7	Sololá	713	San Lucas Tolimán	10	San Lucas Tolimán	7	Julio	2023-07-16T00:00:00	2024-11-08T00:00:00	3	Temperatura mínima	18.4
135860	7	Sololá	713	San Lucas Tolimán	10	San Lucas Tolimán	7	Julio	2023-07-16T00:00:00	2024-11-08T00:00:00	5	Humedad	89
135861	7	Sololá	713	San Lucas Tolimán	10	San Lucas Tolimán	7	Julio	2023-07-16T00:00:00	2024-11-08T00:00:00	6	Velocidad del viento	4.8
135862	7	Sololá	713	San Lucas Tolimán	10	San Lucas Tolimán	7	Julio	2023-07-16T00:00:00	2024-11-08T00:00:00	7	Dirección del viento	4.83
135863	7	Sololá	713	San Lucas Tolimán	10	San Lucas Tolimán	7	Julio	2023-07-16T00:00:00	2024-11-08T00:00:00	1	Precipitación	0
135864	7	Sololá	713	San Lucas Tolimán	10	San Lucas Tolimán	7	Julio	2023-07-16T00:00:00	2024-11-08T00:00:00	8	Radiación solar	0
135865	7	Sololá	713	San Lucas Tolimán	10	San Lucas Tolimán	7	Julio	2023-07-16T00:00:00	2024-11-08T01:00:00	2	Temperatura media	19.2
135866	7	Sololá	713	San Lucas Tolimán	10	San Lucas Tolimán	7	Julio	2023-07-16T00:00:00	2024-11-08T01:00:00	4	Temperatura máxima	19.2
135867	7	Sololá	713	San Lucas Tolimán	10	San Lucas Tolimán	7	Julio	2023-07-16T00:00:00	2024-11-08T01:00:00	3	Temperatura mínima	18.4
135868	7	Sololá	713	San Lucas Tolimán	10	San Lucas Tolimán	7	Julio	2023-07-16T00:00:00	2024-11-08T01:00:00	5	Humedad	83
135869	7	Sololá	713	San Lucas Tolimán	10	San Lucas Tolimán	7	Julio	2023-07-16T00:00:00	2024-11-08T01:00:00	6	Velocidad del viento	1.6
135870	7	Sololá	713	San Lucas Tolimán	10	San Lucas Tolimán	7	Julio	2023-07-16T00:00:00	2024-11-08T01:00:00	7	Dirección del viento	1.61
135871	7	Sololá	713	San Lucas Tolimán	10	San Lucas Tolimán	7	Julio	2023-07-16T00:00:00	2024-11-08T01:00:00	1	Precipitación	0
135872	7	Sololá	713	San Lucas Tolimán	10	San Lucas Tolimán	7	Julio	2023-07-16T00:00:00	2024-11-08T01:00:00	8	Radiación solar	0
135873	7	Sololá	713	San Lucas Tolimán	10	San Lucas Tolimán	7	Julio	2023-07-16T00:00:00	2024-11-08T02:00:00	2	Temperatura media	19.7
135874	7	Sololá	713	San Lucas Tolimán	10	San Lucas Tolimán	7	Julio	2023-07-16T00:00:00	2024-11-08T02:00:00	4	Temperatura máxima	19.9
135875	7	Sololá	713	San Lucas Tolimán	10	San Lucas Tolimán	7	Julio	2023-07-16T00:00:00	2024-11-08T02:00:00	3	Temperatura mínima	19.2
135876	7	Sololá	713	San Lucas Tolimán	10	San Lucas Tolimán	7	Julio	2023-07-16T00:00:00	2024-11-08T02:00:00	5	Humedad	79
135877	7	Sololá	713	San Lucas Tolimán	10	San Lucas Tolimán	7	Julio	2023-07-16T00:00:00	2024-11-08T02:00:00	6	Velocidad del viento	1.6
135878	7	Sololá	713	San Lucas Tolimán	10	San Lucas Tolimán	7	Julio	2023-07-16T00:00:00	2024-11-08T02:00:00	7	Dirección del viento	1.61
135879	7	Sololá	713	San Lucas Tolimán	10	San Lucas Tolimán	7	Julio	2023-07-16T00:00:00	2024-11-08T02:00:00	1	Precipitación	0
135880	7	Sololá	713	San Lucas Tolimán	10	San Lucas Tolimán	7	Julio	2023-07-16T00:00:00	2024-11-08T02:00:00	8	Radiación solar	0
135881	7	Sololá	713	San Lucas Tolimán	10	San Lucas Tolimán	7	Julio	2023-07-16T00:00:00	2024-11-08T03:00:00	2	Temperatura media	18.4
135882	7	Sololá	713	San Lucas Tolimán	10	San Lucas Tolimán	7	Julio	2023-07-16T00:00:00	2024-11-08T03:00:00	4	Temperatura máxima	19.8
135883	7	Sololá	713	San Lucas Tolimán	10	San Lucas Tolimán	7	Julio	2023-07-16T00:00:00	2024-11-08T03:00:00	3	Temperatura mínima	18.3
135884	7	Sololá	713	San Lucas Tolimán	10	San Lucas Tolimán	7	Julio	2023-07-16T00:00:00	2024-11-08T03:00:00	5	Humedad	86
135885	7	Sololá	713	San Lucas Tolimán	10	San Lucas Tolimán	7	Julio	2023-07-16T00:00:00	2024-11-08T03:00:00	6	Velocidad del viento	1.6
135886	7	Sololá	713	San Lucas Tolimán	10	San Lucas Tolimán	7	Julio	2023-07-16T00:00:00	2024-11-08T03:00:00	7	Dirección del viento	1.61
135887	7	Sololá	713	San Lucas Tolimán	10	San Lucas Tolimán	7	Julio	2023-07-16T00:00:00	2024-11-08T03:00:00	1	Precipitación	0.2
135888	7	Sololá	713	San Lucas Tolimán	10	San Lucas Tolimán	7	Julio	2023-07-16T00:00:00	2024-11-08T03:00:00	8	Radiación solar	0
135889	7	Sololá	713	San Lucas Tolimán	10	San Lucas Tolimán	7	Julio	2023-07-16T00:00:00	2024-11-08T04:00:00	2	Temperatura media	18.5
135890	7	Sololá	713	San Lucas Tolimán	10	San Lucas Tolimán	7	Julio	2023-07-16T00:00:00	2024-11-08T04:00:00	4	Temperatura máxima	18.6
135891	7	Sololá	713	San Lucas Tolimán	10	San Lucas Tolimán	7	Julio	2023-07-16T00:00:00	2024-11-08T04:00:00	3	Temperatura mínima	17.9
135892	7	Sololá	713	San Lucas Tolimán	10	San Lucas Tolimán	7	Julio	2023-07-16T00:00:00	2024-11-08T04:00:00	5	Humedad	84
135893	7	Sololá	713	San Lucas Tolimán	10	San Lucas Tolimán	7	Julio	2023-07-16T00:00:00	2024-11-08T04:00:00	6	Velocidad del viento	1.6
135894	7	Sololá	713	San Lucas Tolimán	10	San Lucas Tolimán	7	Julio	2023-07-16T00:00:00	2024-11-08T04:00:00	7	Dirección del viento	1.61
135895	7	Sololá	713	San Lucas Tolimán	10	San Lucas Tolimán	7	Julio	2023-07-16T00:00:00	2024-11-08T04:00:00	1	Precipitación	0
135896	7	Sololá	713	San Lucas Tolimán	10	San Lucas Tolimán	7	Julio	2023-07-16T00:00:00	2024-11-08T04:00:00	8	Radiación solar	0
135897	7	Sololá	713	San Lucas Tolimán	10	San Lucas Tolimán	7	Julio	2023-07-16T00:00:00	2024-11-08T05:00:00	2	Temperatura media	19.9
135898	7	Sololá	713	San Lucas Tolimán	10	San Lucas Tolimán	7	Julio	2023-07-16T00:00:00	2024-11-08T05:00:00	4	Temperatura máxima	19.9
135899	7	Sololá	713	San Lucas Tolimán	10	San Lucas Tolimán	7	Julio	2023-07-16T00:00:00	2024-11-08T05:00:00	3	Temperatura mínima	18.4
135900	7	Sololá	713	San Lucas Tolimán	10	San Lucas Tolimán	7	Julio	2023-07-16T00:00:00	2024-11-08T05:00:00	5	Humedad	75
135901	7	Sololá	713	San Lucas Tolimán	10	San Lucas Tolimán	7	Julio	2023-07-16T00:00:00	2024-11-08T05:00:00	6	Velocidad del viento	4.8
135902	7	Sololá	713	San Lucas Tolimán	10	San Lucas Tolimán	7	Julio	2023-07-16T00:00:00	2024-11-08T05:00:00	7	Dirección del viento	4.83
135903	7	Sololá	713	San Lucas Tolimán	10	San Lucas Tolimán	7	Julio	2023-07-16T00:00:00	2024-11-08T05:00:00	1	Precipitación	0
135904	7	Sololá	713	San Lucas Tolimán	10	San Lucas Tolimán	7	Julio	2023-07-16T00:00:00	2024-11-08T05:00:00	8	Radiación solar	0
135905	7	Sololá	713	San Lucas Tolimán	10	San Lucas Tolimán	7	Julio	2023-07-16T00:00:00	2024-11-08T06:00:00	2	Temperatura media	19.9
135906	7	Sololá	713	San Lucas Tolimán	10	San Lucas Tolimán	7	Julio	2023-07-16T00:00:00	2024-11-08T06:00:00	4	Temperatura máxima	20.1
135907	7	Sololá	713	San Lucas Tolimán	10	San Lucas Tolimán	7	Julio	2023-07-16T00:00:00	2024-11-08T06:00:00	3	Temperatura mínima	19.5
135908	7	Sololá	713	San Lucas Tolimán	10	San Lucas Tolimán	7	Julio	2023-07-16T00:00:00	2024-11-08T06:00:00	5	Humedad	76
135909	7	Sololá	713	San Lucas Tolimán	10	San Lucas Tolimán	7	Julio	2023-07-16T00:00:00	2024-11-08T06:00:00	6	Velocidad del viento	3.2
135910	7	Sololá	713	San Lucas Tolimán	10	San Lucas Tolimán	7	Julio	2023-07-16T00:00:00	2024-11-08T06:00:00	7	Dirección del viento	3.22
135911	7	Sololá	713	San Lucas Tolimán	10	San Lucas Tolimán	7	Julio	2023-07-16T00:00:00	2024-11-08T06:00:00	1	Precipitación	0
135912	7	Sololá	713	San Lucas Tolimán	10	San Lucas Tolimán	7	Julio	2023-07-16T00:00:00	2024-11-08T06:00:00	8	Radiación solar	4
135913	7	Sololá	713	San Lucas Tolimán	10	San Lucas Tolimán	7	Julio	2023-07-16T00:00:00	2024-11-08T07:00:00	2	Temperatura media	21
135914	7	Sololá	713	San Lucas Tolimán	10	San Lucas Tolimán	7	Julio	2023-07-16T00:00:00	2024-11-08T07:00:00	4	Temperatura máxima	21
135915	7	Sololá	713	San Lucas Tolimán	10	San Lucas Tolimán	7	Julio	2023-07-16T00:00:00	2024-11-08T07:00:00	3	Temperatura mínima	19.7
135916	7	Sololá	713	San Lucas Tolimán	10	San Lucas Tolimán	7	Julio	2023-07-16T00:00:00	2024-11-08T07:00:00	5	Humedad	71
135917	7	Sololá	713	San Lucas Tolimán	10	San Lucas Tolimán	7	Julio	2023-07-16T00:00:00	2024-11-08T07:00:00	6	Velocidad del viento	3.2
135918	7	Sololá	713	San Lucas Tolimán	10	San Lucas Tolimán	7	Julio	2023-07-16T00:00:00	2024-11-08T07:00:00	7	Dirección del viento	3.22
135919	7	Sololá	713	San Lucas Tolimán	10	San Lucas Tolimán	7	Julio	2023-07-16T00:00:00	2024-11-08T07:00:00	1	Precipitación	0
135920	7	Sololá	713	San Lucas Tolimán	10	San Lucas Tolimán	7	Julio	2023-07-16T00:00:00	2024-11-08T07:00:00	8	Radiación solar	119
135921	7	Sololá	713	San Lucas Tolimán	10	San Lucas Tolimán	7	Julio	2023-07-16T00:00:00	2024-11-08T08:00:00	2	Temperatura media	21.8
135922	7	Sololá	713	San Lucas Tolimán	10	San Lucas Tolimán	7	Julio	2023-07-16T00:00:00	2024-11-08T08:00:00	4	Temperatura máxima	21.9
135923	7	Sololá	713	San Lucas Tolimán	10	San Lucas Tolimán	7	Julio	2023-07-16T00:00:00	2024-11-08T08:00:00	3	Temperatura mínima	21
135924	7	Sololá	713	San Lucas Tolimán	10	San Lucas Tolimán	7	Julio	2023-07-16T00:00:00	2024-11-08T08:00:00	5	Humedad	69
135925	7	Sololá	713	San Lucas Tolimán	10	San Lucas Tolimán	7	Julio	2023-07-16T00:00:00	2024-11-08T08:00:00	6	Velocidad del viento	4.8
135926	7	Sololá	713	San Lucas Tolimán	10	San Lucas Tolimán	7	Julio	2023-07-16T00:00:00	2024-11-08T08:00:00	7	Dirección del viento	4.83
135927	7	Sololá	713	San Lucas Tolimán	10	San Lucas Tolimán	7	Julio	2023-07-16T00:00:00	2024-11-08T08:00:00	1	Precipitación	0
135928	7	Sololá	713	San Lucas Tolimán	10	San Lucas Tolimán	7	Julio	2023-07-16T00:00:00	2024-11-08T08:00:00	8	Radiación solar	277
135929	7	Sololá	713	San Lucas Tolimán	10	San Lucas Tolimán	7	Julio	2023-07-16T00:00:00	2024-11-08T09:00:00	2	Temperatura media	22.5
135930	7	Sololá	713	San Lucas Tolimán	10	San Lucas Tolimán	7	Julio	2023-07-16T00:00:00	2024-11-08T09:00:00	4	Temperatura máxima	22.5
135931	7	Sololá	713	San Lucas Tolimán	10	San Lucas Tolimán	7	Julio	2023-07-16T00:00:00	2024-11-08T09:00:00	3	Temperatura mínima	21.8
135932	7	Sololá	713	San Lucas Tolimán	10	San Lucas Tolimán	7	Julio	2023-07-16T00:00:00	2024-11-08T09:00:00	5	Humedad	67
135933	7	Sololá	713	San Lucas Tolimán	10	San Lucas Tolimán	7	Julio	2023-07-16T00:00:00	2024-11-08T09:00:00	6	Velocidad del viento	6.4
135934	7	Sololá	713	San Lucas Tolimán	10	San Lucas Tolimán	7	Julio	2023-07-16T00:00:00	2024-11-08T09:00:00	7	Dirección del viento	6.44
135935	7	Sololá	713	San Lucas Tolimán	10	San Lucas Tolimán	7	Julio	2023-07-16T00:00:00	2024-11-08T09:00:00	1	Precipitación	0
135936	7	Sololá	713	San Lucas Tolimán	10	San Lucas Tolimán	7	Julio	2023-07-16T00:00:00	2024-11-08T09:00:00	8	Radiación solar	422
135937	7	Sololá	713	San Lucas Tolimán	10	San Lucas Tolimán	7	Julio	2023-07-16T00:00:00	2024-11-08T10:00:00	2	Temperatura media	23.1
135938	7	Sololá	713	San Lucas Tolimán	10	San Lucas Tolimán	7	Julio	2023-07-16T00:00:00	2024-11-08T10:00:00	4	Temperatura máxima	23.1
135939	7	Sololá	713	San Lucas Tolimán	10	San Lucas Tolimán	7	Julio	2023-07-16T00:00:00	2024-11-08T10:00:00	3	Temperatura mínima	22.4
135940	7	Sololá	713	San Lucas Tolimán	10	San Lucas Tolimán	7	Julio	2023-07-16T00:00:00	2024-11-08T10:00:00	5	Humedad	64
135941	7	Sololá	713	San Lucas Tolimán	10	San Lucas Tolimán	7	Julio	2023-07-16T00:00:00	2024-11-08T10:00:00	6	Velocidad del viento	4.8
135942	7	Sololá	713	San Lucas Tolimán	10	San Lucas Tolimán	7	Julio	2023-07-16T00:00:00	2024-11-08T10:00:00	7	Dirección del viento	4.83
135943	7	Sololá	713	San Lucas Tolimán	10	San Lucas Tolimán	7	Julio	2023-07-16T00:00:00	2024-11-08T10:00:00	1	Precipitación	0
135944	7	Sololá	713	San Lucas Tolimán	10	San Lucas Tolimán	7	Julio	2023-07-16T00:00:00	2024-11-08T10:00:00	8	Radiación solar	589
135945	7	Sololá	713	San Lucas Tolimán	10	San Lucas Tolimán	7	Julio	2023-07-16T00:00:00	2024-11-08T11:00:00	2	Temperatura media	24.9
135946	7	Sololá	713	San Lucas Tolimán	10	San Lucas Tolimán	7	Julio	2023-07-16T00:00:00	2024-11-08T11:00:00	4	Temperatura máxima	24.9
135947	7	Sololá	713	San Lucas Tolimán	10	San Lucas Tolimán	7	Julio	2023-07-16T00:00:00	2024-11-08T11:00:00	3	Temperatura mínima	23
135948	7	Sololá	713	San Lucas Tolimán	10	San Lucas Tolimán	7	Julio	2023-07-16T00:00:00	2024-11-08T11:00:00	5	Humedad	61
135949	7	Sololá	713	San Lucas Tolimán	10	San Lucas Tolimán	7	Julio	2023-07-16T00:00:00	2024-11-08T11:00:00	6	Velocidad del viento	6.4
135950	7	Sololá	713	San Lucas Tolimán	10	San Lucas Tolimán	7	Julio	2023-07-16T00:00:00	2024-11-08T11:00:00	7	Dirección del viento	6.44
135951	7	Sololá	713	San Lucas Tolimán	10	San Lucas Tolimán	7	Julio	2023-07-16T00:00:00	2024-11-08T11:00:00	1	Precipitación	0
135952	7	Sololá	713	San Lucas Tolimán	10	San Lucas Tolimán	7	Julio	2023-07-16T00:00:00	2024-11-08T11:00:00	8	Radiación solar	822
135953	7	Sololá	713	San Lucas Tolimán	10	San Lucas Tolimán	7	Julio	2023-07-16T00:00:00	2024-11-08T12:00:00	2	Temperatura media	26.3
135954	7	Sololá	713	San Lucas Tolimán	10	San Lucas Tolimán	7	Julio	2023-07-16T00:00:00	2024-11-08T12:00:00	4	Temperatura máxima	26.3
135955	7	Sololá	713	San Lucas Tolimán	10	San Lucas Tolimán	7	Julio	2023-07-16T00:00:00	2024-11-08T12:00:00	3	Temperatura mínima	24.9
135956	7	Sololá	713	San Lucas Tolimán	10	San Lucas Tolimán	7	Julio	2023-07-16T00:00:00	2024-11-08T12:00:00	5	Humedad	58
135957	7	Sololá	713	San Lucas Tolimán	10	San Lucas Tolimán	7	Julio	2023-07-16T00:00:00	2024-11-08T12:00:00	6	Velocidad del viento	6.4
135958	7	Sololá	713	San Lucas Tolimán	10	San Lucas Tolimán	7	Julio	2023-07-16T00:00:00	2024-11-08T12:00:00	7	Dirección del viento	6.44
135959	7	Sololá	713	San Lucas Tolimán	10	San Lucas Tolimán	7	Julio	2023-07-16T00:00:00	2024-11-08T12:00:00	1	Precipitación	0
135960	7	Sololá	713	San Lucas Tolimán	10	San Lucas Tolimán	7	Julio	2023-07-16T00:00:00	2024-11-08T12:00:00	8	Radiación solar	947
135961	7	Sololá	713	San Lucas Tolimán	10	San Lucas Tolimán	7	Julio	2023-07-16T00:00:00	2024-11-08T13:00:00	2	Temperatura media	26.2
135962	7	Sololá	713	San Lucas Tolimán	10	San Lucas Tolimán	7	Julio	2023-07-16T00:00:00	2024-11-08T13:00:00	4	Temperatura máxima	26.9
135963	7	Sololá	713	San Lucas Tolimán	10	San Lucas Tolimán	7	Julio	2023-07-16T00:00:00	2024-11-08T13:00:00	3	Temperatura mínima	25.9
135964	7	Sololá	713	San Lucas Tolimán	10	San Lucas Tolimán	7	Julio	2023-07-16T00:00:00	2024-11-08T13:00:00	5	Humedad	66
135965	7	Sololá	713	San Lucas Tolimán	10	San Lucas Tolimán	7	Julio	2023-07-16T00:00:00	2024-11-08T13:00:00	6	Velocidad del viento	6.4
135966	7	Sololá	713	San Lucas Tolimán	10	San Lucas Tolimán	7	Julio	2023-07-16T00:00:00	2024-11-08T13:00:00	7	Dirección del viento	6.44
135967	7	Sololá	713	San Lucas Tolimán	10	San Lucas Tolimán	7	Julio	2023-07-16T00:00:00	2024-11-08T13:00:00	1	Precipitación	0
135968	7	Sololá	713	San Lucas Tolimán	10	San Lucas Tolimán	7	Julio	2023-07-16T00:00:00	2024-11-08T13:00:00	8	Radiación solar	954
135969	7	Sololá	713	San Lucas Tolimán	10	San Lucas Tolimán	7	Julio	2023-07-16T00:00:00	2024-11-08T14:00:00	2	Temperatura media	26.8
135970	7	Sololá	713	San Lucas Tolimán	10	San Lucas Tolimán	7	Julio	2023-07-16T00:00:00	2024-11-08T14:00:00	4	Temperatura máxima	26.9
135971	7	Sololá	713	San Lucas Tolimán	10	San Lucas Tolimán	7	Julio	2023-07-16T00:00:00	2024-11-08T14:00:00	3	Temperatura mínima	25.8
135972	7	Sololá	713	San Lucas Tolimán	10	San Lucas Tolimán	7	Julio	2023-07-16T00:00:00	2024-11-08T14:00:00	5	Humedad	71
135973	7	Sololá	713	San Lucas Tolimán	10	San Lucas Tolimán	7	Julio	2023-07-16T00:00:00	2024-11-08T14:00:00	6	Velocidad del viento	6.4
135974	7	Sololá	713	San Lucas Tolimán	10	San Lucas Tolimán	7	Julio	2023-07-16T00:00:00	2024-11-08T14:00:00	7	Dirección del viento	6.44
135975	7	Sololá	713	San Lucas Tolimán	10	San Lucas Tolimán	7	Julio	2023-07-16T00:00:00	2024-11-08T14:00:00	1	Precipitación	0
135976	7	Sololá	713	San Lucas Tolimán	10	San Lucas Tolimán	7	Julio	2023-07-16T00:00:00	2024-11-08T14:00:00	8	Radiación solar	894
135977	7	Sololá	713	San Lucas Tolimán	10	San Lucas Tolimán	7	Julio	2023-07-16T00:00:00	2024-11-08T15:00:00	2	Temperatura media	22.6
135978	7	Sololá	713	San Lucas Tolimán	10	San Lucas Tolimán	7	Julio	2023-07-16T00:00:00	2024-11-08T15:00:00	4	Temperatura máxima	26.9
135979	7	Sololá	713	San Lucas Tolimán	10	San Lucas Tolimán	7	Julio	2023-07-16T00:00:00	2024-11-08T15:00:00	3	Temperatura mínima	22.6
135980	7	Sololá	713	San Lucas Tolimán	10	San Lucas Tolimán	7	Julio	2023-07-16T00:00:00	2024-11-08T15:00:00	5	Humedad	74
135981	7	Sololá	713	San Lucas Tolimán	10	San Lucas Tolimán	7	Julio	2023-07-16T00:00:00	2024-11-08T15:00:00	6	Velocidad del viento	9.7
135982	7	Sololá	713	San Lucas Tolimán	10	San Lucas Tolimán	7	Julio	2023-07-16T00:00:00	2024-11-08T15:00:00	7	Dirección del viento	9.66
135983	7	Sololá	713	San Lucas Tolimán	10	San Lucas Tolimán	7	Julio	2023-07-16T00:00:00	2024-11-08T15:00:00	1	Precipitación	0
135984	7	Sololá	713	San Lucas Tolimán	10	San Lucas Tolimán	7	Julio	2023-07-16T00:00:00	2024-11-08T15:00:00	8	Radiación solar	768
135985	7	Sololá	713	San Lucas Tolimán	10	San Lucas Tolimán	7	Julio	2023-07-16T00:00:00	2024-11-08T16:00:00	2	Temperatura media	20.1
135986	7	Sololá	713	San Lucas Tolimán	10	San Lucas Tolimán	7	Julio	2023-07-16T00:00:00	2024-11-08T16:00:00	4	Temperatura máxima	22.6
135987	7	Sololá	713	San Lucas Tolimán	10	San Lucas Tolimán	7	Julio	2023-07-16T00:00:00	2024-11-08T16:00:00	3	Temperatura mínima	20.1
135988	7	Sololá	713	San Lucas Tolimán	10	San Lucas Tolimán	7	Julio	2023-07-16T00:00:00	2024-11-08T16:00:00	5	Humedad	84
135989	7	Sololá	713	San Lucas Tolimán	10	San Lucas Tolimán	7	Julio	2023-07-16T00:00:00	2024-11-08T16:00:00	6	Velocidad del viento	9.7
135990	7	Sololá	713	San Lucas Tolimán	10	San Lucas Tolimán	7	Julio	2023-07-16T00:00:00	2024-11-08T16:00:00	7	Dirección del viento	9.66
135991	7	Sololá	713	San Lucas Tolimán	10	San Lucas Tolimán	7	Julio	2023-07-16T00:00:00	2024-11-08T16:00:00	1	Precipitación	0
135992	7	Sololá	713	San Lucas Tolimán	10	San Lucas Tolimán	7	Julio	2023-07-16T00:00:00	2024-11-08T16:00:00	8	Radiación solar	568
135993	7	Sololá	713	San Lucas Tolimán	10	San Lucas Tolimán	7	Julio	2023-07-16T00:00:00	2024-11-08T17:00:00	2	Temperatura media	20.4
135994	7	Sololá	713	San Lucas Tolimán	10	San Lucas Tolimán	7	Julio	2023-07-16T00:00:00	2024-11-08T17:00:00	4	Temperatura máxima	20.4
135995	7	Sololá	713	San Lucas Tolimán	10	San Lucas Tolimán	7	Julio	2023-07-16T00:00:00	2024-11-08T17:00:00	3	Temperatura mínima	19.8
135996	7	Sololá	713	San Lucas Tolimán	10	San Lucas Tolimán	7	Julio	2023-07-16T00:00:00	2024-11-08T17:00:00	5	Humedad	84
135997	7	Sololá	713	San Lucas Tolimán	10	San Lucas Tolimán	7	Julio	2023-07-16T00:00:00	2024-11-08T17:00:00	6	Velocidad del viento	3.2
135998	7	Sololá	713	San Lucas Tolimán	10	San Lucas Tolimán	7	Julio	2023-07-16T00:00:00	2024-11-08T17:00:00	7	Dirección del viento	3.22
135999	7	Sololá	713	San Lucas Tolimán	10	San Lucas Tolimán	7	Julio	2023-07-16T00:00:00	2024-11-08T17:00:00	1	Precipitación	0
136000	7	Sololá	713	San Lucas Tolimán	10	San Lucas Tolimán	7	Julio	2023-07-16T00:00:00	2024-11-08T17:00:00	8	Radiación solar	362
136001	7	Sololá	713	San Lucas Tolimán	10	San Lucas Tolimán	7	Julio	2023-07-16T00:00:00	2024-11-08T18:00:00	2	Temperatura media	19.3
136002	7	Sololá	713	San Lucas Tolimán	10	San Lucas Tolimán	7	Julio	2023-07-16T00:00:00	2024-11-08T18:00:00	4	Temperatura máxima	20.4
136003	7	Sololá	713	San Lucas Tolimán	10	San Lucas Tolimán	7	Julio	2023-07-16T00:00:00	2024-11-08T18:00:00	3	Temperatura mínima	19.3
136004	7	Sololá	713	San Lucas Tolimán	10	San Lucas Tolimán	7	Julio	2023-07-16T00:00:00	2024-11-08T18:00:00	5	Humedad	89
136005	7	Sololá	713	San Lucas Tolimán	10	San Lucas Tolimán	7	Julio	2023-07-16T00:00:00	2024-11-08T18:00:00	6	Velocidad del viento	1.6
136006	7	Sololá	713	San Lucas Tolimán	10	San Lucas Tolimán	7	Julio	2023-07-16T00:00:00	2024-11-08T18:00:00	7	Dirección del viento	1.61
136007	7	Sololá	713	San Lucas Tolimán	10	San Lucas Tolimán	7	Julio	2023-07-16T00:00:00	2024-11-08T18:00:00	1	Precipitación	0.8
136008	7	Sololá	713	San Lucas Tolimán	10	San Lucas Tolimán	7	Julio	2023-07-16T00:00:00	2024-11-08T18:00:00	8	Radiación solar	154
136009	7	Sololá	713	San Lucas Tolimán	10	San Lucas Tolimán	7	Julio	2023-07-16T00:00:00	2024-11-08T19:00:00	2	Temperatura media	19.2
136010	7	Sololá	713	San Lucas Tolimán	10	San Lucas Tolimán	7	Julio	2023-07-16T00:00:00	2024-11-08T19:00:00	4	Temperatura máxima	19.3
136011	7	Sololá	713	San Lucas Tolimán	10	San Lucas Tolimán	7	Julio	2023-07-16T00:00:00	2024-11-08T19:00:00	3	Temperatura mínima	18.8
136012	7	Sololá	713	San Lucas Tolimán	10	San Lucas Tolimán	7	Julio	2023-07-16T00:00:00	2024-11-08T19:00:00	5	Humedad	89
136013	7	Sololá	713	San Lucas Tolimán	10	San Lucas Tolimán	7	Julio	2023-07-16T00:00:00	2024-11-08T19:00:00	6	Velocidad del viento	1.6
136014	7	Sololá	713	San Lucas Tolimán	10	San Lucas Tolimán	7	Julio	2023-07-16T00:00:00	2024-11-08T19:00:00	7	Dirección del viento	1.61
136015	7	Sololá	713	San Lucas Tolimán	10	San Lucas Tolimán	7	Julio	2023-07-16T00:00:00	2024-11-08T19:00:00	1	Precipitación	0
136016	7	Sololá	713	San Lucas Tolimán	10	San Lucas Tolimán	7	Julio	2023-07-16T00:00:00	2024-11-08T19:00:00	8	Radiación solar	0
136017	7	Sololá	713	San Lucas Tolimán	10	San Lucas Tolimán	7	Julio	2023-07-16T00:00:00	2024-11-08T20:00:00	2	Temperatura media	19.8
136018	7	Sololá	713	San Lucas Tolimán	10	San Lucas Tolimán	7	Julio	2023-07-16T00:00:00	2024-11-08T20:00:00	4	Temperatura máxima	19.8
136019	7	Sololá	713	San Lucas Tolimán	10	San Lucas Tolimán	7	Julio	2023-07-16T00:00:00	2024-11-08T20:00:00	3	Temperatura mínima	18.8
136020	7	Sololá	713	San Lucas Tolimán	10	San Lucas Tolimán	7	Julio	2023-07-16T00:00:00	2024-11-08T20:00:00	5	Humedad	74
136021	7	Sololá	713	San Lucas Tolimán	10	San Lucas Tolimán	7	Julio	2023-07-16T00:00:00	2024-11-08T20:00:00	6	Velocidad del viento	3.2
136022	7	Sololá	713	San Lucas Tolimán	10	San Lucas Tolimán	7	Julio	2023-07-16T00:00:00	2024-11-08T20:00:00	7	Dirección del viento	3.22
136023	7	Sololá	713	San Lucas Tolimán	10	San Lucas Tolimán	7	Julio	2023-07-16T00:00:00	2024-11-08T20:00:00	1	Precipitación	0
136024	7	Sololá	713	San Lucas Tolimán	10	San Lucas Tolimán	7	Julio	2023-07-16T00:00:00	2024-11-08T20:00:00	8	Radiación solar	0
136025	7	Sololá	713	San Lucas Tolimán	10	San Lucas Tolimán	7	Julio	2023-07-16T00:00:00	2024-11-08T21:00:00	2	Temperatura media	20.3
136026	7	Sololá	713	San Lucas Tolimán	10	San Lucas Tolimán	7	Julio	2023-07-16T00:00:00	2024-11-08T21:00:00	4	Temperatura máxima	20.7
136027	7	Sololá	713	San Lucas Tolimán	10	San Lucas Tolimán	7	Julio	2023-07-16T00:00:00	2024-11-08T21:00:00	3	Temperatura mínima	19.8
136028	7	Sololá	713	San Lucas Tolimán	10	San Lucas Tolimán	7	Julio	2023-07-16T00:00:00	2024-11-08T21:00:00	5	Humedad	70
136029	7	Sololá	713	San Lucas Tolimán	10	San Lucas Tolimán	7	Julio	2023-07-16T00:00:00	2024-11-08T21:00:00	6	Velocidad del viento	9.7
136030	7	Sololá	713	San Lucas Tolimán	10	San Lucas Tolimán	7	Julio	2023-07-16T00:00:00	2024-11-08T21:00:00	7	Dirección del viento	9.66
136031	7	Sololá	713	San Lucas Tolimán	10	San Lucas Tolimán	7	Julio	2023-07-16T00:00:00	2024-11-08T21:00:00	1	Precipitación	0.2
136032	7	Sololá	713	San Lucas Tolimán	10	San Lucas Tolimán	7	Julio	2023-07-16T00:00:00	2024-11-08T21:00:00	8	Radiación solar	0
136033	7	Sololá	713	San Lucas Tolimán	10	San Lucas Tolimán	7	Julio	2023-07-16T00:00:00	2024-11-08T22:00:00	2	Temperatura media	20.6
136034	7	Sololá	713	San Lucas Tolimán	10	San Lucas Tolimán	7	Julio	2023-07-16T00:00:00	2024-11-08T22:00:00	4	Temperatura máxima	20.7
136035	7	Sololá	713	San Lucas Tolimán	10	San Lucas Tolimán	7	Julio	2023-07-16T00:00:00	2024-11-08T22:00:00	3	Temperatura mínima	20.3
136036	7	Sololá	713	San Lucas Tolimán	10	San Lucas Tolimán	7	Julio	2023-07-16T00:00:00	2024-11-08T22:00:00	5	Humedad	71
136037	7	Sololá	713	San Lucas Tolimán	10	San Lucas Tolimán	7	Julio	2023-07-16T00:00:00	2024-11-08T22:00:00	6	Velocidad del viento	8
136038	7	Sololá	713	San Lucas Tolimán	10	San Lucas Tolimán	7	Julio	2023-07-16T00:00:00	2024-11-08T22:00:00	7	Dirección del viento	8.05
136039	7	Sololá	713	San Lucas Tolimán	10	San Lucas Tolimán	7	Julio	2023-07-16T00:00:00	2024-11-08T22:00:00	1	Precipitación	0
136040	7	Sololá	713	San Lucas Tolimán	10	San Lucas Tolimán	7	Julio	2023-07-16T00:00:00	2024-11-08T22:00:00	8	Radiación solar	0
136041	7	Sololá	713	San Lucas Tolimán	10	San Lucas Tolimán	7	Julio	2023-07-16T00:00:00	2024-11-08T23:00:00	2	Temperatura media	20.3
136042	7	Sololá	713	San Lucas Tolimán	10	San Lucas Tolimán	7	Julio	2023-07-16T00:00:00	2024-11-08T23:00:00	4	Temperatura máxima	20.6
136043	7	Sololá	713	San Lucas Tolimán	10	San Lucas Tolimán	7	Julio	2023-07-16T00:00:00	2024-11-08T23:00:00	3	Temperatura mínima	20.3
136044	7	Sololá	713	San Lucas Tolimán	10	San Lucas Tolimán	7	Julio	2023-07-16T00:00:00	2024-11-08T23:00:00	5	Humedad	72
136045	7	Sololá	713	San Lucas Tolimán	10	San Lucas Tolimán	7	Julio	2023-07-16T00:00:00	2024-11-08T23:00:00	6	Velocidad del viento	6.4
136046	7	Sololá	713	San Lucas Tolimán	10	San Lucas Tolimán	7	Julio	2023-07-16T00:00:00	2024-11-08T23:00:00	7	Dirección del viento	6.44
136047	7	Sololá	713	San Lucas Tolimán	10	San Lucas Tolimán	7	Julio	2023-07-16T00:00:00	2024-11-08T23:00:00	1	Precipitación	0
136048	7	Sololá	713	San Lucas Tolimán	10	San Lucas Tolimán	7	Julio	2023-07-16T00:00:00	2024-11-08T23:00:00	8	Radiación solar	0
136049	7	Sololá	713	San Lucas Tolimán	10	San Lucas Tolimán	7	Julio	2023-07-17T00:00:00	2024-11-08T00:00:00	2	Temperatura media	20.1
136050	7	Sololá	713	San Lucas Tolimán	10	San Lucas Tolimán	7	Julio	2023-07-17T00:00:00	2024-11-08T00:00:00	4	Temperatura máxima	20.3
136051	7	Sololá	713	San Lucas Tolimán	10	San Lucas Tolimán	7	Julio	2023-07-17T00:00:00	2024-11-08T00:00:00	3	Temperatura mínima	20.1
136052	7	Sololá	713	San Lucas Tolimán	10	San Lucas Tolimán	7	Julio	2023-07-17T00:00:00	2024-11-08T00:00:00	5	Humedad	72
136053	7	Sololá	713	San Lucas Tolimán	10	San Lucas Tolimán	7	Julio	2023-07-17T00:00:00	2024-11-08T00:00:00	6	Velocidad del viento	4.8
136054	7	Sololá	713	San Lucas Tolimán	10	San Lucas Tolimán	7	Julio	2023-07-17T00:00:00	2024-11-08T00:00:00	7	Dirección del viento	4.83
136055	7	Sololá	713	San Lucas Tolimán	10	San Lucas Tolimán	7	Julio	2023-07-17T00:00:00	2024-11-08T00:00:00	1	Precipitación	0
136056	7	Sololá	713	San Lucas Tolimán	10	San Lucas Tolimán	7	Julio	2023-07-17T00:00:00	2024-11-08T00:00:00	8	Radiación solar	0
136057	7	Sololá	713	San Lucas Tolimán	10	San Lucas Tolimán	7	Julio	2023-07-17T00:00:00	2024-11-08T01:00:00	2	Temperatura media	20.2
136058	7	Sololá	713	San Lucas Tolimán	10	San Lucas Tolimán	7	Julio	2023-07-17T00:00:00	2024-11-08T01:00:00	4	Temperatura máxima	20.3
136059	7	Sololá	713	San Lucas Tolimán	10	San Lucas Tolimán	7	Julio	2023-07-17T00:00:00	2024-11-08T01:00:00	3	Temperatura mínima	20.1
136060	7	Sololá	713	San Lucas Tolimán	10	San Lucas Tolimán	7	Julio	2023-07-17T00:00:00	2024-11-08T01:00:00	5	Humedad	70
136061	7	Sololá	713	San Lucas Tolimán	10	San Lucas Tolimán	7	Julio	2023-07-17T00:00:00	2024-11-08T01:00:00	6	Velocidad del viento	4.8
136062	7	Sololá	713	San Lucas Tolimán	10	San Lucas Tolimán	7	Julio	2023-07-17T00:00:00	2024-11-08T01:00:00	7	Dirección del viento	4.83
136063	7	Sololá	713	San Lucas Tolimán	10	San Lucas Tolimán	7	Julio	2023-07-17T00:00:00	2024-11-08T01:00:00	1	Precipitación	0
136064	7	Sololá	713	San Lucas Tolimán	10	San Lucas Tolimán	7	Julio	2023-07-17T00:00:00	2024-11-08T01:00:00	8	Radiación solar	0
136065	7	Sololá	713	San Lucas Tolimán	10	San Lucas Tolimán	7	Julio	2023-07-17T00:00:00	2024-11-08T02:00:00	2	Temperatura media	20.3
136066	7	Sololá	713	San Lucas Tolimán	10	San Lucas Tolimán	7	Julio	2023-07-17T00:00:00	2024-11-08T02:00:00	4	Temperatura máxima	20.4
136067	7	Sololá	713	San Lucas Tolimán	10	San Lucas Tolimán	7	Julio	2023-07-17T00:00:00	2024-11-08T02:00:00	3	Temperatura mínima	20.2
136068	7	Sololá	713	San Lucas Tolimán	10	San Lucas Tolimán	7	Julio	2023-07-17T00:00:00	2024-11-08T02:00:00	5	Humedad	70
136069	7	Sololá	713	San Lucas Tolimán	10	San Lucas Tolimán	7	Julio	2023-07-17T00:00:00	2024-11-08T02:00:00	6	Velocidad del viento	4.8
136070	7	Sololá	713	San Lucas Tolimán	10	San Lucas Tolimán	7	Julio	2023-07-17T00:00:00	2024-11-08T02:00:00	7	Dirección del viento	4.83
136071	7	Sololá	713	San Lucas Tolimán	10	San Lucas Tolimán	7	Julio	2023-07-17T00:00:00	2024-11-08T02:00:00	1	Precipitación	0
136072	7	Sololá	713	San Lucas Tolimán	10	San Lucas Tolimán	7	Julio	2023-07-17T00:00:00	2024-11-08T02:00:00	8	Radiación solar	0
136073	7	Sololá	713	San Lucas Tolimán	10	San Lucas Tolimán	7	Julio	2023-07-17T00:00:00	2024-11-08T03:00:00	2	Temperatura media	20.3
136074	7	Sololá	713	San Lucas Tolimán	10	San Lucas Tolimán	7	Julio	2023-07-17T00:00:00	2024-11-08T03:00:00	4	Temperatura máxima	20.6
136075	7	Sololá	713	San Lucas Tolimán	10	San Lucas Tolimán	7	Julio	2023-07-17T00:00:00	2024-11-08T03:00:00	3	Temperatura mínima	20.3
136076	7	Sololá	713	San Lucas Tolimán	10	San Lucas Tolimán	7	Julio	2023-07-17T00:00:00	2024-11-08T03:00:00	5	Humedad	70
136077	7	Sololá	713	San Lucas Tolimán	10	San Lucas Tolimán	7	Julio	2023-07-17T00:00:00	2024-11-08T03:00:00	6	Velocidad del viento	4.8
136078	7	Sololá	713	San Lucas Tolimán	10	San Lucas Tolimán	7	Julio	2023-07-17T00:00:00	2024-11-08T03:00:00	7	Dirección del viento	4.83
136079	7	Sololá	713	San Lucas Tolimán	10	San Lucas Tolimán	7	Julio	2023-07-17T00:00:00	2024-11-08T03:00:00	1	Precipitación	0
136080	7	Sololá	713	San Lucas Tolimán	10	San Lucas Tolimán	7	Julio	2023-07-17T00:00:00	2024-11-08T03:00:00	8	Radiación solar	0
136081	7	Sololá	713	San Lucas Tolimán	10	San Lucas Tolimán	7	Julio	2023-07-17T00:00:00	2024-11-08T04:00:00	2	Temperatura media	20.2
136082	7	Sololá	713	San Lucas Tolimán	10	San Lucas Tolimán	7	Julio	2023-07-17T00:00:00	2024-11-08T04:00:00	4	Temperatura máxima	20.4
136083	7	Sololá	713	San Lucas Tolimán	10	San Lucas Tolimán	7	Julio	2023-07-17T00:00:00	2024-11-08T04:00:00	3	Temperatura mínima	20.1
136084	7	Sololá	713	San Lucas Tolimán	10	San Lucas Tolimán	7	Julio	2023-07-17T00:00:00	2024-11-08T04:00:00	5	Humedad	70
136085	7	Sololá	713	San Lucas Tolimán	10	San Lucas Tolimán	7	Julio	2023-07-17T00:00:00	2024-11-08T04:00:00	6	Velocidad del viento	6.4
136086	7	Sololá	713	San Lucas Tolimán	10	San Lucas Tolimán	7	Julio	2023-07-17T00:00:00	2024-11-08T04:00:00	7	Dirección del viento	6.44
136087	7	Sololá	713	San Lucas Tolimán	10	San Lucas Tolimán	7	Julio	2023-07-17T00:00:00	2024-11-08T04:00:00	1	Precipitación	0
136088	7	Sololá	713	San Lucas Tolimán	10	San Lucas Tolimán	7	Julio	2023-07-17T00:00:00	2024-11-08T04:00:00	8	Radiación solar	0
136089	7	Sololá	713	San Lucas Tolimán	10	San Lucas Tolimán	7	Julio	2023-07-17T00:00:00	2024-11-08T05:00:00	2	Temperatura media	19.2
136090	7	Sololá	713	San Lucas Tolimán	10	San Lucas Tolimán	7	Julio	2023-07-17T00:00:00	2024-11-08T05:00:00	4	Temperatura máxima	20.3
136091	7	Sololá	713	San Lucas Tolimán	10	San Lucas Tolimán	7	Julio	2023-07-17T00:00:00	2024-11-08T05:00:00	3	Temperatura mínima	19.2
136092	7	Sololá	713	San Lucas Tolimán	10	San Lucas Tolimán	7	Julio	2023-07-17T00:00:00	2024-11-08T05:00:00	5	Humedad	74
136093	7	Sololá	713	San Lucas Tolimán	10	San Lucas Tolimán	7	Julio	2023-07-17T00:00:00	2024-11-08T05:00:00	6	Velocidad del viento	1.6
136094	7	Sololá	713	San Lucas Tolimán	10	San Lucas Tolimán	7	Julio	2023-07-17T00:00:00	2024-11-08T05:00:00	7	Dirección del viento	1.61
136095	7	Sololá	713	San Lucas Tolimán	10	San Lucas Tolimán	7	Julio	2023-07-17T00:00:00	2024-11-08T05:00:00	1	Precipitación	0
136096	7	Sololá	713	San Lucas Tolimán	10	San Lucas Tolimán	7	Julio	2023-07-17T00:00:00	2024-11-08T05:00:00	8	Radiación solar	0
136097	7	Sololá	713	San Lucas Tolimán	10	San Lucas Tolimán	7	Julio	2023-07-17T00:00:00	2024-11-08T06:00:00	2	Temperatura media	19.2
136098	7	Sololá	713	San Lucas Tolimán	10	San Lucas Tolimán	7	Julio	2023-07-17T00:00:00	2024-11-08T06:00:00	4	Temperatura máxima	19.3
136099	7	Sololá	713	San Lucas Tolimán	10	San Lucas Tolimán	7	Julio	2023-07-17T00:00:00	2024-11-08T06:00:00	3	Temperatura mínima	18.2
136100	7	Sololá	713	San Lucas Tolimán	10	San Lucas Tolimán	7	Julio	2023-07-17T00:00:00	2024-11-08T06:00:00	5	Humedad	69
136101	7	Sololá	713	San Lucas Tolimán	10	San Lucas Tolimán	7	Julio	2023-07-17T00:00:00	2024-11-08T06:00:00	6	Velocidad del viento	3.2
136102	7	Sololá	713	San Lucas Tolimán	10	San Lucas Tolimán	7	Julio	2023-07-17T00:00:00	2024-11-08T06:00:00	7	Dirección del viento	3.22
136103	7	Sololá	713	San Lucas Tolimán	10	San Lucas Tolimán	7	Julio	2023-07-17T00:00:00	2024-11-08T06:00:00	1	Precipitación	0
136104	7	Sololá	713	San Lucas Tolimán	10	San Lucas Tolimán	7	Julio	2023-07-17T00:00:00	2024-11-08T06:00:00	8	Radiación solar	8
136105	7	Sololá	713	San Lucas Tolimán	10	San Lucas Tolimán	7	Julio	2023-07-17T00:00:00	2024-11-08T07:00:00	2	Temperatura media	20.5
136106	7	Sololá	713	San Lucas Tolimán	10	San Lucas Tolimán	7	Julio	2023-07-17T00:00:00	2024-11-08T07:00:00	4	Temperatura máxima	20.5
136107	7	Sololá	713	San Lucas Tolimán	10	San Lucas Tolimán	7	Julio	2023-07-17T00:00:00	2024-11-08T07:00:00	3	Temperatura mínima	19.2
136108	7	Sololá	713	San Lucas Tolimán	10	San Lucas Tolimán	7	Julio	2023-07-17T00:00:00	2024-11-08T07:00:00	5	Humedad	64
136109	7	Sololá	713	San Lucas Tolimán	10	San Lucas Tolimán	7	Julio	2023-07-17T00:00:00	2024-11-08T07:00:00	6	Velocidad del viento	3.2
136110	7	Sololá	713	San Lucas Tolimán	10	San Lucas Tolimán	7	Julio	2023-07-17T00:00:00	2024-11-08T07:00:00	7	Dirección del viento	3.22
136111	7	Sololá	713	San Lucas Tolimán	10	San Lucas Tolimán	7	Julio	2023-07-17T00:00:00	2024-11-08T07:00:00	1	Precipitación	0
136112	7	Sololá	713	San Lucas Tolimán	10	San Lucas Tolimán	7	Julio	2023-07-17T00:00:00	2024-11-08T07:00:00	8	Radiación solar	104
136113	7	Sololá	713	San Lucas Tolimán	10	San Lucas Tolimán	7	Julio	2023-07-17T00:00:00	2024-11-08T08:00:00	2	Temperatura media	21.7
136114	7	Sololá	713	San Lucas Tolimán	10	San Lucas Tolimán	7	Julio	2023-07-17T00:00:00	2024-11-08T08:00:00	4	Temperatura máxima	22.2
136115	7	Sololá	713	San Lucas Tolimán	10	San Lucas Tolimán	7	Julio	2023-07-17T00:00:00	2024-11-08T08:00:00	3	Temperatura mínima	20.5
136116	7	Sololá	713	San Lucas Tolimán	10	San Lucas Tolimán	7	Julio	2023-07-17T00:00:00	2024-11-08T08:00:00	5	Humedad	48
136117	7	Sololá	713	San Lucas Tolimán	10	San Lucas Tolimán	7	Julio	2023-07-17T00:00:00	2024-11-08T08:00:00	6	Velocidad del viento	4.8
136118	7	Sololá	713	San Lucas Tolimán	10	San Lucas Tolimán	7	Julio	2023-07-17T00:00:00	2024-11-08T08:00:00	7	Dirección del viento	4.83
136119	7	Sololá	713	San Lucas Tolimán	10	San Lucas Tolimán	7	Julio	2023-07-17T00:00:00	2024-11-08T08:00:00	1	Precipitación	0
136120	7	Sololá	713	San Lucas Tolimán	10	San Lucas Tolimán	7	Julio	2023-07-17T00:00:00	2024-11-08T08:00:00	8	Radiación solar	459
136121	7	Sololá	713	San Lucas Tolimán	10	San Lucas Tolimán	7	Julio	2023-07-17T00:00:00	2024-11-08T09:00:00	2	Temperatura media	23.1
136122	7	Sololá	713	San Lucas Tolimán	10	San Lucas Tolimán	7	Julio	2023-07-17T00:00:00	2024-11-08T09:00:00	4	Temperatura máxima	23.1
136123	7	Sololá	713	San Lucas Tolimán	10	San Lucas Tolimán	7	Julio	2023-07-17T00:00:00	2024-11-08T09:00:00	3	Temperatura mínima	21.5
136124	7	Sololá	713	San Lucas Tolimán	10	San Lucas Tolimán	7	Julio	2023-07-17T00:00:00	2024-11-08T09:00:00	5	Humedad	40
136125	7	Sololá	713	San Lucas Tolimán	10	San Lucas Tolimán	7	Julio	2023-07-17T00:00:00	2024-11-08T09:00:00	6	Velocidad del viento	9.7
136126	7	Sololá	713	San Lucas Tolimán	10	San Lucas Tolimán	7	Julio	2023-07-17T00:00:00	2024-11-08T09:00:00	7	Dirección del viento	9.66
136127	7	Sololá	713	San Lucas Tolimán	10	San Lucas Tolimán	7	Julio	2023-07-17T00:00:00	2024-11-08T09:00:00	1	Precipitación	0
136128	7	Sololá	713	San Lucas Tolimán	10	San Lucas Tolimán	7	Julio	2023-07-17T00:00:00	2024-11-08T09:00:00	8	Radiación solar	641
136129	7	Sololá	713	San Lucas Tolimán	10	San Lucas Tolimán	7	Julio	2023-07-17T00:00:00	2024-11-08T10:00:00	2	Temperatura media	23.7
136130	7	Sololá	713	San Lucas Tolimán	10	San Lucas Tolimán	7	Julio	2023-07-17T00:00:00	2024-11-08T10:00:00	4	Temperatura máxima	23.7
136131	7	Sololá	713	San Lucas Tolimán	10	San Lucas Tolimán	7	Julio	2023-07-17T00:00:00	2024-11-08T10:00:00	3	Temperatura mínima	22.9
136132	7	Sololá	713	San Lucas Tolimán	10	San Lucas Tolimán	7	Julio	2023-07-17T00:00:00	2024-11-08T10:00:00	5	Humedad	38
136133	7	Sololá	713	San Lucas Tolimán	10	San Lucas Tolimán	7	Julio	2023-07-17T00:00:00	2024-11-08T10:00:00	6	Velocidad del viento	17.7
136134	7	Sololá	713	San Lucas Tolimán	10	San Lucas Tolimán	7	Julio	2023-07-17T00:00:00	2024-11-08T10:00:00	7	Dirección del viento	17.7
136135	7	Sololá	713	San Lucas Tolimán	10	San Lucas Tolimán	7	Julio	2023-07-17T00:00:00	2024-11-08T10:00:00	1	Precipitación	0
136136	7	Sololá	713	San Lucas Tolimán	10	San Lucas Tolimán	7	Julio	2023-07-17T00:00:00	2024-11-08T10:00:00	8	Radiación solar	821
136137	7	Sololá	713	San Lucas Tolimán	10	San Lucas Tolimán	7	Julio	2023-07-17T00:00:00	2024-11-08T11:00:00	2	Temperatura media	25.1
136138	7	Sololá	713	San Lucas Tolimán	10	San Lucas Tolimán	7	Julio	2023-07-17T00:00:00	2024-11-08T11:00:00	4	Temperatura máxima	25.2
136139	7	Sololá	713	San Lucas Tolimán	10	San Lucas Tolimán	7	Julio	2023-07-17T00:00:00	2024-11-08T11:00:00	3	Temperatura mínima	23.8
136140	7	Sololá	713	San Lucas Tolimán	10	San Lucas Tolimán	7	Julio	2023-07-17T00:00:00	2024-11-08T11:00:00	5	Humedad	36
136141	7	Sololá	713	San Lucas Tolimán	10	San Lucas Tolimán	7	Julio	2023-07-17T00:00:00	2024-11-08T11:00:00	6	Velocidad del viento	14.5
136142	7	Sololá	713	San Lucas Tolimán	10	San Lucas Tolimán	7	Julio	2023-07-17T00:00:00	2024-11-08T11:00:00	7	Dirección del viento	14.48
136143	7	Sololá	713	San Lucas Tolimán	10	San Lucas Tolimán	7	Julio	2023-07-17T00:00:00	2024-11-08T11:00:00	1	Precipitación	0
136144	7	Sololá	713	San Lucas Tolimán	10	San Lucas Tolimán	7	Julio	2023-07-17T00:00:00	2024-11-08T11:00:00	8	Radiación solar	980
136145	7	Sololá	713	San Lucas Tolimán	10	San Lucas Tolimán	7	Julio	2023-07-17T00:00:00	2024-11-08T12:00:00	2	Temperatura media	26.7
136146	7	Sololá	713	San Lucas Tolimán	10	San Lucas Tolimán	7	Julio	2023-07-17T00:00:00	2024-11-08T12:00:00	4	Temperatura máxima	26.9
136147	7	Sololá	713	San Lucas Tolimán	10	San Lucas Tolimán	7	Julio	2023-07-17T00:00:00	2024-11-08T12:00:00	3	Temperatura mínima	25.1
136148	7	Sololá	713	San Lucas Tolimán	10	San Lucas Tolimán	7	Julio	2023-07-17T00:00:00	2024-11-08T12:00:00	5	Humedad	46
136149	7	Sololá	713	San Lucas Tolimán	10	San Lucas Tolimán	7	Julio	2023-07-17T00:00:00	2024-11-08T12:00:00	6	Velocidad del viento	6.4
136150	7	Sololá	713	San Lucas Tolimán	10	San Lucas Tolimán	7	Julio	2023-07-17T00:00:00	2024-11-08T12:00:00	7	Dirección del viento	6.44
136151	7	Sololá	713	San Lucas Tolimán	10	San Lucas Tolimán	7	Julio	2023-07-17T00:00:00	2024-11-08T12:00:00	1	Precipitación	0
136152	7	Sololá	713	San Lucas Tolimán	10	San Lucas Tolimán	7	Julio	2023-07-17T00:00:00	2024-11-08T12:00:00	8	Radiación solar	1062
136153	7	Sololá	713	San Lucas Tolimán	10	San Lucas Tolimán	7	Julio	2023-07-17T00:00:00	2024-11-08T13:00:00	2	Temperatura media	27.4
136154	7	Sololá	713	San Lucas Tolimán	10	San Lucas Tolimán	7	Julio	2023-07-17T00:00:00	2024-11-08T13:00:00	4	Temperatura máxima	28.1
136155	7	Sololá	713	San Lucas Tolimán	10	San Lucas Tolimán	7	Julio	2023-07-17T00:00:00	2024-11-08T13:00:00	3	Temperatura mínima	26.6
136156	7	Sololá	713	San Lucas Tolimán	10	San Lucas Tolimán	7	Julio	2023-07-17T00:00:00	2024-11-08T13:00:00	5	Humedad	42
136157	7	Sololá	713	San Lucas Tolimán	10	San Lucas Tolimán	7	Julio	2023-07-17T00:00:00	2024-11-08T13:00:00	6	Velocidad del viento	6.4
136158	7	Sololá	713	San Lucas Tolimán	10	San Lucas Tolimán	7	Julio	2023-07-17T00:00:00	2024-11-08T13:00:00	7	Dirección del viento	6.44
136159	7	Sololá	713	San Lucas Tolimán	10	San Lucas Tolimán	7	Julio	2023-07-17T00:00:00	2024-11-08T13:00:00	1	Precipitación	0
136160	7	Sololá	713	San Lucas Tolimán	10	San Lucas Tolimán	7	Julio	2023-07-17T00:00:00	2024-11-08T13:00:00	8	Radiación solar	964
136161	7	Sololá	713	San Lucas Tolimán	10	San Lucas Tolimán	7	Julio	2023-07-17T00:00:00	2024-11-08T14:00:00	2	Temperatura media	27.8
136162	7	Sololá	713	San Lucas Tolimán	10	San Lucas Tolimán	7	Julio	2023-07-17T00:00:00	2024-11-08T14:00:00	4	Temperatura máxima	28.3
136163	7	Sololá	713	San Lucas Tolimán	10	San Lucas Tolimán	7	Julio	2023-07-17T00:00:00	2024-11-08T14:00:00	3	Temperatura mínima	27.4
136164	7	Sololá	713	San Lucas Tolimán	10	San Lucas Tolimán	7	Julio	2023-07-17T00:00:00	2024-11-08T14:00:00	5	Humedad	38
136165	7	Sololá	713	San Lucas Tolimán	10	San Lucas Tolimán	7	Julio	2023-07-17T00:00:00	2024-11-08T14:00:00	6	Velocidad del viento	8
136166	7	Sololá	713	San Lucas Tolimán	10	San Lucas Tolimán	7	Julio	2023-07-17T00:00:00	2024-11-08T14:00:00	7	Dirección del viento	8.05
136167	7	Sololá	713	San Lucas Tolimán	10	San Lucas Tolimán	7	Julio	2023-07-17T00:00:00	2024-11-08T14:00:00	1	Precipitación	0
136168	7	Sololá	713	San Lucas Tolimán	10	San Lucas Tolimán	7	Julio	2023-07-17T00:00:00	2024-11-08T14:00:00	8	Radiación solar	591
136169	7	Sololá	713	San Lucas Tolimán	10	San Lucas Tolimán	7	Julio	2023-07-17T00:00:00	2024-11-08T15:00:00	2	Temperatura media	27.8
136170	7	Sololá	713	San Lucas Tolimán	10	San Lucas Tolimán	7	Julio	2023-07-17T00:00:00	2024-11-08T15:00:00	4	Temperatura máxima	27.9
136171	7	Sololá	713	San Lucas Tolimán	10	San Lucas Tolimán	7	Julio	2023-07-17T00:00:00	2024-11-08T15:00:00	3	Temperatura mínima	27.5
136172	7	Sololá	713	San Lucas Tolimán	10	San Lucas Tolimán	7	Julio	2023-07-17T00:00:00	2024-11-08T15:00:00	5	Humedad	40
136173	7	Sololá	713	San Lucas Tolimán	10	San Lucas Tolimán	7	Julio	2023-07-17T00:00:00	2024-11-08T15:00:00	6	Velocidad del viento	9.7
136174	7	Sololá	713	San Lucas Tolimán	10	San Lucas Tolimán	7	Julio	2023-07-17T00:00:00	2024-11-08T15:00:00	7	Dirección del viento	9.66
136175	7	Sololá	713	San Lucas Tolimán	10	San Lucas Tolimán	7	Julio	2023-07-17T00:00:00	2024-11-08T15:00:00	1	Precipitación	0
136176	7	Sololá	713	San Lucas Tolimán	10	San Lucas Tolimán	7	Julio	2023-07-17T00:00:00	2024-11-08T15:00:00	8	Radiación solar	485
136177	7	Sololá	713	San Lucas Tolimán	10	San Lucas Tolimán	7	Julio	2023-07-17T00:00:00	2024-11-08T16:00:00	2	Temperatura media	27.1
136178	7	Sololá	713	San Lucas Tolimán	10	San Lucas Tolimán	7	Julio	2023-07-17T00:00:00	2024-11-08T16:00:00	4	Temperatura máxima	27.9
136179	7	Sololá	713	San Lucas Tolimán	10	San Lucas Tolimán	7	Julio	2023-07-17T00:00:00	2024-11-08T16:00:00	3	Temperatura mínima	26.8
136180	7	Sololá	713	San Lucas Tolimán	10	San Lucas Tolimán	7	Julio	2023-07-17T00:00:00	2024-11-08T16:00:00	5	Humedad	46
136181	7	Sololá	713	San Lucas Tolimán	10	San Lucas Tolimán	7	Julio	2023-07-17T00:00:00	2024-11-08T16:00:00	6	Velocidad del viento	8
136182	7	Sololá	713	San Lucas Tolimán	10	San Lucas Tolimán	7	Julio	2023-07-17T00:00:00	2024-11-08T16:00:00	7	Dirección del viento	8.05
136183	7	Sololá	713	San Lucas Tolimán	10	San Lucas Tolimán	7	Julio	2023-07-17T00:00:00	2024-11-08T16:00:00	1	Precipitación	0
136184	7	Sololá	713	San Lucas Tolimán	10	San Lucas Tolimán	7	Julio	2023-07-17T00:00:00	2024-11-08T16:00:00	8	Radiación solar	226
136185	7	Sololá	713	San Lucas Tolimán	10	San Lucas Tolimán	7	Julio	2023-07-17T00:00:00	2024-11-08T17:00:00	2	Temperatura media	25.8
136186	7	Sololá	713	San Lucas Tolimán	10	San Lucas Tolimán	7	Julio	2023-07-17T00:00:00	2024-11-08T17:00:00	4	Temperatura máxima	27.2
136187	7	Sololá	713	San Lucas Tolimán	10	San Lucas Tolimán	7	Julio	2023-07-17T00:00:00	2024-11-08T17:00:00	3	Temperatura mínima	25.6
136188	7	Sololá	713	San Lucas Tolimán	10	San Lucas Tolimán	7	Julio	2023-07-17T00:00:00	2024-11-08T17:00:00	5	Humedad	52
136189	7	Sololá	713	San Lucas Tolimán	10	San Lucas Tolimán	7	Julio	2023-07-17T00:00:00	2024-11-08T17:00:00	6	Velocidad del viento	6.4
136190	7	Sololá	713	San Lucas Tolimán	10	San Lucas Tolimán	7	Julio	2023-07-17T00:00:00	2024-11-08T17:00:00	7	Dirección del viento	6.44
136191	7	Sololá	713	San Lucas Tolimán	10	San Lucas Tolimán	7	Julio	2023-07-17T00:00:00	2024-11-08T17:00:00	1	Precipitación	0
136192	7	Sololá	713	San Lucas Tolimán	10	San Lucas Tolimán	7	Julio	2023-07-17T00:00:00	2024-11-08T17:00:00	8	Radiación solar	238
136193	7	Sololá	713	San Lucas Tolimán	10	San Lucas Tolimán	7	Julio	2023-07-17T00:00:00	2024-11-08T18:00:00	2	Temperatura media	25.1
136194	7	Sololá	713	San Lucas Tolimán	10	San Lucas Tolimán	7	Julio	2023-07-17T00:00:00	2024-11-08T18:00:00	4	Temperatura máxima	26.5
136195	7	Sololá	713	San Lucas Tolimán	10	San Lucas Tolimán	7	Julio	2023-07-17T00:00:00	2024-11-08T18:00:00	3	Temperatura mínima	25.1
136196	7	Sololá	713	San Lucas Tolimán	10	San Lucas Tolimán	7	Julio	2023-07-17T00:00:00	2024-11-08T18:00:00	5	Humedad	51
136197	7	Sololá	713	San Lucas Tolimán	10	San Lucas Tolimán	7	Julio	2023-07-17T00:00:00	2024-11-08T18:00:00	6	Velocidad del viento	8
136198	7	Sololá	713	San Lucas Tolimán	10	San Lucas Tolimán	7	Julio	2023-07-17T00:00:00	2024-11-08T18:00:00	7	Dirección del viento	8.05
136199	7	Sololá	713	San Lucas Tolimán	10	San Lucas Tolimán	7	Julio	2023-07-17T00:00:00	2024-11-08T18:00:00	1	Precipitación	0
136200	7	Sololá	713	San Lucas Tolimán	10	San Lucas Tolimán	7	Julio	2023-07-17T00:00:00	2024-11-08T18:00:00	8	Radiación solar	130
136201	7	Sololá	713	San Lucas Tolimán	10	San Lucas Tolimán	7	Julio	2023-07-17T00:00:00	2024-11-08T19:00:00	2	Temperatura media	23.1
136202	7	Sololá	713	San Lucas Tolimán	10	San Lucas Tolimán	7	Julio	2023-07-17T00:00:00	2024-11-08T19:00:00	4	Temperatura máxima	25.1
136203	7	Sololá	713	San Lucas Tolimán	10	San Lucas Tolimán	7	Julio	2023-07-17T00:00:00	2024-11-08T19:00:00	3	Temperatura mínima	23.1
136204	7	Sololá	713	San Lucas Tolimán	10	San Lucas Tolimán	7	Julio	2023-07-17T00:00:00	2024-11-08T19:00:00	5	Humedad	62
136205	7	Sololá	713	San Lucas Tolimán	10	San Lucas Tolimán	7	Julio	2023-07-17T00:00:00	2024-11-08T19:00:00	6	Velocidad del viento	8
136206	7	Sololá	713	San Lucas Tolimán	10	San Lucas Tolimán	7	Julio	2023-07-17T00:00:00	2024-11-08T19:00:00	7	Dirección del viento	8.05
136207	7	Sololá	713	San Lucas Tolimán	10	San Lucas Tolimán	7	Julio	2023-07-17T00:00:00	2024-11-08T19:00:00	1	Precipitación	0
136208	7	Sololá	713	San Lucas Tolimán	10	San Lucas Tolimán	7	Julio	2023-07-17T00:00:00	2024-11-08T19:00:00	8	Radiación solar	0
136209	7	Sololá	713	San Lucas Tolimán	10	San Lucas Tolimán	7	Julio	2023-07-17T00:00:00	2024-11-08T20:00:00	2	Temperatura media	21.8
136210	7	Sololá	713	San Lucas Tolimán	10	San Lucas Tolimán	7	Julio	2023-07-17T00:00:00	2024-11-08T20:00:00	4	Temperatura máxima	23.1
136211	7	Sololá	713	San Lucas Tolimán	10	San Lucas Tolimán	7	Julio	2023-07-17T00:00:00	2024-11-08T20:00:00	3	Temperatura mínima	21.8
136212	7	Sololá	713	San Lucas Tolimán	10	San Lucas Tolimán	7	Julio	2023-07-17T00:00:00	2024-11-08T20:00:00	5	Humedad	65
136213	7	Sololá	713	San Lucas Tolimán	10	San Lucas Tolimán	7	Julio	2023-07-17T00:00:00	2024-11-08T20:00:00	6	Velocidad del viento	6.4
136214	7	Sololá	713	San Lucas Tolimán	10	San Lucas Tolimán	7	Julio	2023-07-17T00:00:00	2024-11-08T20:00:00	7	Dirección del viento	6.44
136215	7	Sololá	713	San Lucas Tolimán	10	San Lucas Tolimán	7	Julio	2023-07-17T00:00:00	2024-11-08T20:00:00	1	Precipitación	0
136216	7	Sololá	713	San Lucas Tolimán	10	San Lucas Tolimán	7	Julio	2023-07-17T00:00:00	2024-11-08T20:00:00	8	Radiación solar	0
136217	7	Sololá	713	San Lucas Tolimán	10	San Lucas Tolimán	7	Julio	2023-07-17T00:00:00	2024-11-08T21:00:00	2	Temperatura media	21.4
136218	7	Sololá	713	San Lucas Tolimán	10	San Lucas Tolimán	7	Julio	2023-07-17T00:00:00	2024-11-08T21:00:00	4	Temperatura máxima	21.8
136219	7	Sololá	713	San Lucas Tolimán	10	San Lucas Tolimán	7	Julio	2023-07-17T00:00:00	2024-11-08T21:00:00	3	Temperatura mínima	21.3
136220	7	Sololá	713	San Lucas Tolimán	10	San Lucas Tolimán	7	Julio	2023-07-17T00:00:00	2024-11-08T21:00:00	5	Humedad	63
136221	7	Sololá	713	San Lucas Tolimán	10	San Lucas Tolimán	7	Julio	2023-07-17T00:00:00	2024-11-08T21:00:00	6	Velocidad del viento	9.7
136222	7	Sololá	713	San Lucas Tolimán	10	San Lucas Tolimán	7	Julio	2023-07-17T00:00:00	2024-11-08T21:00:00	7	Dirección del viento	9.66
136223	7	Sololá	713	San Lucas Tolimán	10	San Lucas Tolimán	7	Julio	2023-07-17T00:00:00	2024-11-08T21:00:00	1	Precipitación	0
136224	7	Sololá	713	San Lucas Tolimán	10	San Lucas Tolimán	7	Julio	2023-07-17T00:00:00	2024-11-08T21:00:00	8	Radiación solar	0
136225	7	Sololá	713	San Lucas Tolimán	10	San Lucas Tolimán	7	Julio	2023-07-17T00:00:00	2024-11-08T22:00:00	2	Temperatura media	20.9
136226	7	Sololá	713	San Lucas Tolimán	10	San Lucas Tolimán	7	Julio	2023-07-17T00:00:00	2024-11-08T22:00:00	4	Temperatura máxima	21.6
136227	7	Sololá	713	San Lucas Tolimán	10	San Lucas Tolimán	7	Julio	2023-07-17T00:00:00	2024-11-08T22:00:00	3	Temperatura mínima	20.9
136228	7	Sololá	713	San Lucas Tolimán	10	San Lucas Tolimán	7	Julio	2023-07-17T00:00:00	2024-11-08T22:00:00	5	Humedad	65
136229	7	Sololá	713	San Lucas Tolimán	10	San Lucas Tolimán	7	Julio	2023-07-17T00:00:00	2024-11-08T22:00:00	6	Velocidad del viento	4.8
136230	7	Sololá	713	San Lucas Tolimán	10	San Lucas Tolimán	7	Julio	2023-07-17T00:00:00	2024-11-08T22:00:00	7	Dirección del viento	4.83
136231	7	Sololá	713	San Lucas Tolimán	10	San Lucas Tolimán	7	Julio	2023-07-17T00:00:00	2024-11-08T22:00:00	1	Precipitación	0
136232	7	Sololá	713	San Lucas Tolimán	10	San Lucas Tolimán	7	Julio	2023-07-17T00:00:00	2024-11-08T22:00:00	8	Radiación solar	0
136233	7	Sololá	713	San Lucas Tolimán	10	San Lucas Tolimán	7	Julio	2023-07-17T00:00:00	2024-11-08T23:00:00	2	Temperatura media	20.4
136234	7	Sololá	713	San Lucas Tolimán	10	San Lucas Tolimán	7	Julio	2023-07-17T00:00:00	2024-11-08T23:00:00	4	Temperatura máxima	21.3
136235	7	Sololá	713	San Lucas Tolimán	10	San Lucas Tolimán	7	Julio	2023-07-17T00:00:00	2024-11-08T23:00:00	3	Temperatura mínima	20.4
136236	7	Sololá	713	San Lucas Tolimán	10	San Lucas Tolimán	7	Julio	2023-07-17T00:00:00	2024-11-08T23:00:00	5	Humedad	67
136237	7	Sololá	713	San Lucas Tolimán	10	San Lucas Tolimán	7	Julio	2023-07-17T00:00:00	2024-11-08T23:00:00	6	Velocidad del viento	4.8
136238	7	Sololá	713	San Lucas Tolimán	10	San Lucas Tolimán	7	Julio	2023-07-17T00:00:00	2024-11-08T23:00:00	7	Dirección del viento	4.83
136239	7	Sololá	713	San Lucas Tolimán	10	San Lucas Tolimán	7	Julio	2023-07-17T00:00:00	2024-11-08T23:00:00	1	Precipitación	0
136240	7	Sololá	713	San Lucas Tolimán	10	San Lucas Tolimán	7	Julio	2023-07-17T00:00:00	2024-11-08T23:00:00	8	Radiación solar	0
136241	7	Sololá	713	San Lucas Tolimán	10	San Lucas Tolimán	7	Julio	2023-07-18T00:00:00	2024-11-08T00:00:00	2	Temperatura media	19.4
136242	7	Sololá	713	San Lucas Tolimán	10	San Lucas Tolimán	7	Julio	2023-07-18T00:00:00	2024-11-08T00:00:00	4	Temperatura máxima	20.4
136243	7	Sololá	713	San Lucas Tolimán	10	San Lucas Tolimán	7	Julio	2023-07-18T00:00:00	2024-11-08T00:00:00	3	Temperatura mínima	19.3
136244	7	Sololá	713	San Lucas Tolimán	10	San Lucas Tolimán	7	Julio	2023-07-18T00:00:00	2024-11-08T00:00:00	5	Humedad	71
136245	7	Sololá	713	San Lucas Tolimán	10	San Lucas Tolimán	7	Julio	2023-07-18T00:00:00	2024-11-08T00:00:00	6	Velocidad del viento	3.2
136246	7	Sololá	713	San Lucas Tolimán	10	San Lucas Tolimán	7	Julio	2023-07-18T00:00:00	2024-11-08T00:00:00	7	Dirección del viento	3.22
136247	7	Sololá	713	San Lucas Tolimán	10	San Lucas Tolimán	7	Julio	2023-07-18T00:00:00	2024-11-08T00:00:00	1	Precipitación	0
136248	7	Sololá	713	San Lucas Tolimán	10	San Lucas Tolimán	7	Julio	2023-07-18T00:00:00	2024-11-08T00:00:00	8	Radiación solar	0
136249	7	Sololá	713	San Lucas Tolimán	10	San Lucas Tolimán	7	Julio	2023-07-18T00:00:00	2024-11-08T01:00:00	2	Temperatura media	19.6
136250	7	Sololá	713	San Lucas Tolimán	10	San Lucas Tolimán	7	Julio	2023-07-18T00:00:00	2024-11-08T01:00:00	4	Temperatura máxima	19.8
136251	7	Sololá	713	San Lucas Tolimán	10	San Lucas Tolimán	7	Julio	2023-07-18T00:00:00	2024-11-08T01:00:00	3	Temperatura mínima	19.3
136252	7	Sololá	713	San Lucas Tolimán	10	San Lucas Tolimán	7	Julio	2023-07-18T00:00:00	2024-11-08T01:00:00	5	Humedad	71
136253	7	Sololá	713	San Lucas Tolimán	10	San Lucas Tolimán	7	Julio	2023-07-18T00:00:00	2024-11-08T01:00:00	6	Velocidad del viento	3.2
136254	7	Sololá	713	San Lucas Tolimán	10	San Lucas Tolimán	7	Julio	2023-07-18T00:00:00	2024-11-08T01:00:00	7	Dirección del viento	3.22
136255	7	Sololá	713	San Lucas Tolimán	10	San Lucas Tolimán	7	Julio	2023-07-18T00:00:00	2024-11-08T01:00:00	1	Precipitación	0
136256	7	Sololá	713	San Lucas Tolimán	10	San Lucas Tolimán	7	Julio	2023-07-18T00:00:00	2024-11-08T01:00:00	8	Radiación solar	0
136257	7	Sololá	713	San Lucas Tolimán	10	San Lucas Tolimán	7	Julio	2023-07-18T00:00:00	2024-11-08T02:00:00	2	Temperatura media	19.1
136258	7	Sololá	713	San Lucas Tolimán	10	San Lucas Tolimán	7	Julio	2023-07-18T00:00:00	2024-11-08T02:00:00	4	Temperatura máxima	19.6
136259	7	Sololá	713	San Lucas Tolimán	10	San Lucas Tolimán	7	Julio	2023-07-18T00:00:00	2024-11-08T02:00:00	3	Temperatura mínima	19.1
136260	7	Sololá	713	San Lucas Tolimán	10	San Lucas Tolimán	7	Julio	2023-07-18T00:00:00	2024-11-08T02:00:00	5	Humedad	72
136261	7	Sololá	713	San Lucas Tolimán	10	San Lucas Tolimán	7	Julio	2023-07-18T00:00:00	2024-11-08T02:00:00	6	Velocidad del viento	3.2
136262	7	Sololá	713	San Lucas Tolimán	10	San Lucas Tolimán	7	Julio	2023-07-18T00:00:00	2024-11-08T02:00:00	7	Dirección del viento	3.22
136263	7	Sololá	713	San Lucas Tolimán	10	San Lucas Tolimán	7	Julio	2023-07-18T00:00:00	2024-11-08T02:00:00	1	Precipitación	0
136264	7	Sololá	713	San Lucas Tolimán	10	San Lucas Tolimán	7	Julio	2023-07-18T00:00:00	2024-11-08T02:00:00	8	Radiación solar	0
136265	7	Sololá	713	San Lucas Tolimán	10	San Lucas Tolimán	7	Julio	2023-07-18T00:00:00	2024-11-08T03:00:00	2	Temperatura media	18.5
136266	7	Sololá	713	San Lucas Tolimán	10	San Lucas Tolimán	7	Julio	2023-07-18T00:00:00	2024-11-08T03:00:00	4	Temperatura máxima	19.2
136267	7	Sololá	713	San Lucas Tolimán	10	San Lucas Tolimán	7	Julio	2023-07-18T00:00:00	2024-11-08T03:00:00	3	Temperatura mínima	18.4
136268	7	Sololá	713	San Lucas Tolimán	10	San Lucas Tolimán	7	Julio	2023-07-18T00:00:00	2024-11-08T03:00:00	5	Humedad	75
136269	7	Sololá	713	San Lucas Tolimán	10	San Lucas Tolimán	7	Julio	2023-07-18T00:00:00	2024-11-08T03:00:00	6	Velocidad del viento	1.6
136270	7	Sololá	713	San Lucas Tolimán	10	San Lucas Tolimán	7	Julio	2023-07-18T00:00:00	2024-11-08T03:00:00	7	Dirección del viento	1.61
136271	7	Sololá	713	San Lucas Tolimán	10	San Lucas Tolimán	7	Julio	2023-07-18T00:00:00	2024-11-08T03:00:00	1	Precipitación	0
136272	7	Sololá	713	San Lucas Tolimán	10	San Lucas Tolimán	7	Julio	2023-07-18T00:00:00	2024-11-08T03:00:00	8	Radiación solar	0
136273	7	Sololá	713	San Lucas Tolimán	10	San Lucas Tolimán	7	Julio	2023-07-18T00:00:00	2024-11-08T04:00:00	2	Temperatura media	19.9
136274	7	Sololá	713	San Lucas Tolimán	10	San Lucas Tolimán	7	Julio	2023-07-18T00:00:00	2024-11-08T04:00:00	4	Temperatura máxima	19.9
136275	7	Sololá	713	San Lucas Tolimán	10	San Lucas Tolimán	7	Julio	2023-07-18T00:00:00	2024-11-08T04:00:00	3	Temperatura mínima	18.3
136276	7	Sololá	713	San Lucas Tolimán	10	San Lucas Tolimán	7	Julio	2023-07-18T00:00:00	2024-11-08T04:00:00	5	Humedad	70
136277	7	Sololá	713	San Lucas Tolimán	10	San Lucas Tolimán	7	Julio	2023-07-18T00:00:00	2024-11-08T04:00:00	6	Velocidad del viento	4.8
136278	7	Sololá	713	San Lucas Tolimán	10	San Lucas Tolimán	7	Julio	2023-07-18T00:00:00	2024-11-08T04:00:00	7	Dirección del viento	4.83
136279	7	Sololá	713	San Lucas Tolimán	10	San Lucas Tolimán	7	Julio	2023-07-18T00:00:00	2024-11-08T04:00:00	1	Precipitación	0
136280	7	Sololá	713	San Lucas Tolimán	10	San Lucas Tolimán	7	Julio	2023-07-18T00:00:00	2024-11-08T04:00:00	8	Radiación solar	0
136281	7	Sololá	713	San Lucas Tolimán	10	San Lucas Tolimán	7	Julio	2023-07-18T00:00:00	2024-11-08T05:00:00	2	Temperatura media	20.1
136282	7	Sololá	713	San Lucas Tolimán	10	San Lucas Tolimán	7	Julio	2023-07-18T00:00:00	2024-11-08T05:00:00	4	Temperatura máxima	20.5
136283	7	Sololá	713	San Lucas Tolimán	10	San Lucas Tolimán	7	Julio	2023-07-18T00:00:00	2024-11-08T05:00:00	3	Temperatura mínima	19.8
136284	7	Sololá	713	San Lucas Tolimán	10	San Lucas Tolimán	7	Julio	2023-07-18T00:00:00	2024-11-08T05:00:00	5	Humedad	69
136285	7	Sololá	713	San Lucas Tolimán	10	San Lucas Tolimán	7	Julio	2023-07-18T00:00:00	2024-11-08T05:00:00	6	Velocidad del viento	3.2
136286	7	Sololá	713	San Lucas Tolimán	10	San Lucas Tolimán	7	Julio	2023-07-18T00:00:00	2024-11-08T05:00:00	7	Dirección del viento	3.22
136287	7	Sololá	713	San Lucas Tolimán	10	San Lucas Tolimán	7	Julio	2023-07-18T00:00:00	2024-11-08T05:00:00	1	Precipitación	0
136288	7	Sololá	713	San Lucas Tolimán	10	San Lucas Tolimán	7	Julio	2023-07-18T00:00:00	2024-11-08T05:00:00	8	Radiación solar	0
136289	7	Sololá	713	San Lucas Tolimán	10	San Lucas Tolimán	7	Julio	2023-07-18T00:00:00	2024-11-08T06:00:00	2	Temperatura media	20.3
136290	7	Sololá	713	San Lucas Tolimán	10	San Lucas Tolimán	7	Julio	2023-07-18T00:00:00	2024-11-08T06:00:00	4	Temperatura máxima	20.4
136291	7	Sololá	713	San Lucas Tolimán	10	San Lucas Tolimán	7	Julio	2023-07-18T00:00:00	2024-11-08T06:00:00	3	Temperatura mínima	20.1
136292	7	Sololá	713	San Lucas Tolimán	10	San Lucas Tolimán	7	Julio	2023-07-18T00:00:00	2024-11-08T06:00:00	5	Humedad	68
136293	7	Sololá	713	San Lucas Tolimán	10	San Lucas Tolimán	7	Julio	2023-07-18T00:00:00	2024-11-08T06:00:00	6	Velocidad del viento	6.4
136294	7	Sololá	713	San Lucas Tolimán	10	San Lucas Tolimán	7	Julio	2023-07-18T00:00:00	2024-11-08T06:00:00	7	Dirección del viento	6.44
136295	7	Sololá	713	San Lucas Tolimán	10	San Lucas Tolimán	7	Julio	2023-07-18T00:00:00	2024-11-08T06:00:00	1	Precipitación	0
136296	7	Sololá	713	San Lucas Tolimán	10	San Lucas Tolimán	7	Julio	2023-07-18T00:00:00	2024-11-08T06:00:00	8	Radiación solar	1
136297	7	Sololá	713	San Lucas Tolimán	10	San Lucas Tolimán	7	Julio	2023-07-18T00:00:00	2024-11-08T07:00:00	2	Temperatura media	20.8
136298	7	Sololá	713	San Lucas Tolimán	10	San Lucas Tolimán	7	Julio	2023-07-18T00:00:00	2024-11-08T07:00:00	4	Temperatura máxima	20.8
136299	7	Sololá	713	San Lucas Tolimán	10	San Lucas Tolimán	7	Julio	2023-07-18T00:00:00	2024-11-08T07:00:00	3	Temperatura mínima	19.9
136300	7	Sololá	713	San Lucas Tolimán	10	San Lucas Tolimán	7	Julio	2023-07-18T00:00:00	2024-11-08T07:00:00	5	Humedad	66
136301	7	Sololá	713	San Lucas Tolimán	10	San Lucas Tolimán	7	Julio	2023-07-18T00:00:00	2024-11-08T07:00:00	6	Velocidad del viento	6.4
136302	7	Sololá	713	San Lucas Tolimán	10	San Lucas Tolimán	7	Julio	2023-07-18T00:00:00	2024-11-08T07:00:00	7	Dirección del viento	6.44
136303	7	Sololá	713	San Lucas Tolimán	10	San Lucas Tolimán	7	Julio	2023-07-18T00:00:00	2024-11-08T07:00:00	1	Precipitación	0
136304	7	Sololá	713	San Lucas Tolimán	10	San Lucas Tolimán	7	Julio	2023-07-18T00:00:00	2024-11-08T07:00:00	8	Radiación solar	60
136305	7	Sololá	713	San Lucas Tolimán	10	San Lucas Tolimán	7	Julio	2023-07-18T00:00:00	2024-11-08T08:00:00	2	Temperatura media	22.6
136306	7	Sololá	713	San Lucas Tolimán	10	San Lucas Tolimán	7	Julio	2023-07-18T00:00:00	2024-11-08T08:00:00	4	Temperatura máxima	22.6
136307	7	Sololá	713	San Lucas Tolimán	10	San Lucas Tolimán	7	Julio	2023-07-18T00:00:00	2024-11-08T08:00:00	3	Temperatura mínima	20.8
136308	7	Sololá	713	San Lucas Tolimán	10	San Lucas Tolimán	7	Julio	2023-07-18T00:00:00	2024-11-08T08:00:00	5	Humedad	61
136309	7	Sololá	713	San Lucas Tolimán	10	San Lucas Tolimán	7	Julio	2023-07-18T00:00:00	2024-11-08T08:00:00	6	Velocidad del viento	4.8
136310	7	Sololá	713	San Lucas Tolimán	10	San Lucas Tolimán	7	Julio	2023-07-18T00:00:00	2024-11-08T08:00:00	7	Dirección del viento	4.83
136311	7	Sololá	713	San Lucas Tolimán	10	San Lucas Tolimán	7	Julio	2023-07-18T00:00:00	2024-11-08T08:00:00	1	Precipitación	0
136312	7	Sololá	713	San Lucas Tolimán	10	San Lucas Tolimán	7	Julio	2023-07-18T00:00:00	2024-11-08T08:00:00	8	Radiación solar	189
136313	7	Sololá	713	San Lucas Tolimán	10	San Lucas Tolimán	7	Julio	2023-07-18T00:00:00	2024-11-08T09:00:00	2	Temperatura media	23.5
136314	7	Sololá	713	San Lucas Tolimán	10	San Lucas Tolimán	7	Julio	2023-07-18T00:00:00	2024-11-08T09:00:00	4	Temperatura máxima	23.5
136315	7	Sololá	713	San Lucas Tolimán	10	San Lucas Tolimán	7	Julio	2023-07-18T00:00:00	2024-11-08T09:00:00	3	Temperatura mínima	22.6
136316	7	Sololá	713	San Lucas Tolimán	10	San Lucas Tolimán	7	Julio	2023-07-18T00:00:00	2024-11-08T09:00:00	5	Humedad	57
136317	7	Sololá	713	San Lucas Tolimán	10	San Lucas Tolimán	7	Julio	2023-07-18T00:00:00	2024-11-08T09:00:00	6	Velocidad del viento	6.4
136318	7	Sololá	713	San Lucas Tolimán	10	San Lucas Tolimán	7	Julio	2023-07-18T00:00:00	2024-11-08T09:00:00	7	Dirección del viento	6.44
136319	7	Sololá	713	San Lucas Tolimán	10	San Lucas Tolimán	7	Julio	2023-07-18T00:00:00	2024-11-08T09:00:00	1	Precipitación	0
136320	7	Sololá	713	San Lucas Tolimán	10	San Lucas Tolimán	7	Julio	2023-07-18T00:00:00	2024-11-08T09:00:00	8	Radiación solar	516
136321	7	Sololá	713	San Lucas Tolimán	10	San Lucas Tolimán	7	Julio	2023-07-18T00:00:00	2024-11-08T10:00:00	2	Temperatura media	25
136322	7	Sololá	713	San Lucas Tolimán	10	San Lucas Tolimán	7	Julio	2023-07-18T00:00:00	2024-11-08T10:00:00	4	Temperatura máxima	25.2
136323	7	Sololá	713	San Lucas Tolimán	10	San Lucas Tolimán	7	Julio	2023-07-18T00:00:00	2024-11-08T10:00:00	3	Temperatura mínima	23.5
136324	7	Sololá	713	San Lucas Tolimán	10	San Lucas Tolimán	7	Julio	2023-07-18T00:00:00	2024-11-08T10:00:00	5	Humedad	51
136325	7	Sololá	713	San Lucas Tolimán	10	San Lucas Tolimán	7	Julio	2023-07-18T00:00:00	2024-11-08T10:00:00	6	Velocidad del viento	6.4
136326	7	Sololá	713	San Lucas Tolimán	10	San Lucas Tolimán	7	Julio	2023-07-18T00:00:00	2024-11-08T10:00:00	7	Dirección del viento	6.44
136327	7	Sololá	713	San Lucas Tolimán	10	San Lucas Tolimán	7	Julio	2023-07-18T00:00:00	2024-11-08T10:00:00	1	Precipitación	0
136328	7	Sololá	713	San Lucas Tolimán	10	San Lucas Tolimán	7	Julio	2023-07-18T00:00:00	2024-11-08T10:00:00	8	Radiación solar	670
136329	7	Sololá	713	San Lucas Tolimán	10	San Lucas Tolimán	7	Julio	2023-07-18T00:00:00	2024-11-08T11:00:00	2	Temperatura media	26.1
136330	7	Sololá	713	San Lucas Tolimán	10	San Lucas Tolimán	7	Julio	2023-07-18T00:00:00	2024-11-08T11:00:00	4	Temperatura máxima	26.1
136331	7	Sololá	713	San Lucas Tolimán	10	San Lucas Tolimán	7	Julio	2023-07-18T00:00:00	2024-11-08T11:00:00	3	Temperatura mínima	25
136332	7	Sololá	713	San Lucas Tolimán	10	San Lucas Tolimán	7	Julio	2023-07-18T00:00:00	2024-11-08T11:00:00	5	Humedad	45
136333	7	Sololá	713	San Lucas Tolimán	10	San Lucas Tolimán	7	Julio	2023-07-18T00:00:00	2024-11-08T11:00:00	6	Velocidad del viento	6.4
136334	7	Sololá	713	San Lucas Tolimán	10	San Lucas Tolimán	7	Julio	2023-07-18T00:00:00	2024-11-08T11:00:00	7	Dirección del viento	6.44
136335	7	Sololá	713	San Lucas Tolimán	10	San Lucas Tolimán	7	Julio	2023-07-18T00:00:00	2024-11-08T11:00:00	1	Precipitación	0
136336	7	Sololá	713	San Lucas Tolimán	10	San Lucas Tolimán	7	Julio	2023-07-18T00:00:00	2024-11-08T11:00:00	8	Radiación solar	869
136337	7	Sololá	713	San Lucas Tolimán	10	San Lucas Tolimán	7	Julio	2023-07-18T00:00:00	2024-11-08T12:00:00	2	Temperatura media	26.7
136338	7	Sololá	713	San Lucas Tolimán	10	San Lucas Tolimán	7	Julio	2023-07-18T00:00:00	2024-11-08T12:00:00	4	Temperatura máxima	26.8
136339	7	Sololá	713	San Lucas Tolimán	10	San Lucas Tolimán	7	Julio	2023-07-18T00:00:00	2024-11-08T12:00:00	3	Temperatura mínima	25.9
136340	7	Sololá	713	San Lucas Tolimán	10	San Lucas Tolimán	7	Julio	2023-07-18T00:00:00	2024-11-08T12:00:00	5	Humedad	42
136341	7	Sololá	713	San Lucas Tolimán	10	San Lucas Tolimán	7	Julio	2023-07-18T00:00:00	2024-11-08T12:00:00	6	Velocidad del viento	8
136342	7	Sololá	713	San Lucas Tolimán	10	San Lucas Tolimán	7	Julio	2023-07-18T00:00:00	2024-11-08T12:00:00	7	Dirección del viento	8.05
136343	7	Sololá	713	San Lucas Tolimán	10	San Lucas Tolimán	7	Julio	2023-07-18T00:00:00	2024-11-08T12:00:00	1	Precipitación	0
136344	7	Sololá	713	San Lucas Tolimán	10	San Lucas Tolimán	7	Julio	2023-07-18T00:00:00	2024-11-08T12:00:00	8	Radiación solar	608
136345	7	Sololá	713	San Lucas Tolimán	10	San Lucas Tolimán	7	Julio	2023-07-18T00:00:00	2024-11-08T13:00:00	2	Temperatura media	26.8
136346	7	Sololá	713	San Lucas Tolimán	10	San Lucas Tolimán	7	Julio	2023-07-18T00:00:00	2024-11-08T13:00:00	4	Temperatura máxima	27.2
136347	7	Sololá	713	San Lucas Tolimán	10	San Lucas Tolimán	7	Julio	2023-07-18T00:00:00	2024-11-08T13:00:00	3	Temperatura mínima	26.6
136348	7	Sololá	713	San Lucas Tolimán	10	San Lucas Tolimán	7	Julio	2023-07-18T00:00:00	2024-11-08T13:00:00	5	Humedad	39
136349	7	Sololá	713	San Lucas Tolimán	10	San Lucas Tolimán	7	Julio	2023-07-18T00:00:00	2024-11-08T13:00:00	6	Velocidad del viento	8
136350	7	Sololá	713	San Lucas Tolimán	10	San Lucas Tolimán	7	Julio	2023-07-18T00:00:00	2024-11-08T13:00:00	7	Dirección del viento	8.05
136351	7	Sololá	713	San Lucas Tolimán	10	San Lucas Tolimán	7	Julio	2023-07-18T00:00:00	2024-11-08T13:00:00	1	Precipitación	0
136352	7	Sololá	713	San Lucas Tolimán	10	San Lucas Tolimán	7	Julio	2023-07-18T00:00:00	2024-11-08T13:00:00	8	Radiación solar	425
136353	7	Sololá	713	San Lucas Tolimán	10	San Lucas Tolimán	7	Julio	2023-07-18T00:00:00	2024-11-08T14:00:00	2	Temperatura media	27
136354	7	Sololá	713	San Lucas Tolimán	10	San Lucas Tolimán	7	Julio	2023-07-18T00:00:00	2024-11-08T14:00:00	4	Temperatura máxima	27.3
136355	7	Sololá	713	San Lucas Tolimán	10	San Lucas Tolimán	7	Julio	2023-07-18T00:00:00	2024-11-08T14:00:00	3	Temperatura mínima	26.6
136356	7	Sololá	713	San Lucas Tolimán	10	San Lucas Tolimán	7	Julio	2023-07-18T00:00:00	2024-11-08T14:00:00	5	Humedad	37
136357	7	Sololá	713	San Lucas Tolimán	10	San Lucas Tolimán	7	Julio	2023-07-18T00:00:00	2024-11-08T14:00:00	6	Velocidad del viento	9.7
136358	7	Sololá	713	San Lucas Tolimán	10	San Lucas Tolimán	7	Julio	2023-07-18T00:00:00	2024-11-08T14:00:00	7	Dirección del viento	9.66
136359	7	Sololá	713	San Lucas Tolimán	10	San Lucas Tolimán	7	Julio	2023-07-18T00:00:00	2024-11-08T14:00:00	1	Precipitación	0
136360	7	Sololá	713	San Lucas Tolimán	10	San Lucas Tolimán	7	Julio	2023-07-18T00:00:00	2024-11-08T14:00:00	8	Radiación solar	820
136361	7	Sololá	713	San Lucas Tolimán	10	San Lucas Tolimán	7	Julio	2023-07-18T00:00:00	2024-11-08T15:00:00	2	Temperatura media	25.8
136362	7	Sololá	713	San Lucas Tolimán	10	San Lucas Tolimán	7	Julio	2023-07-18T00:00:00	2024-11-08T15:00:00	4	Temperatura máxima	27.1
136363	7	Sololá	713	San Lucas Tolimán	10	San Lucas Tolimán	7	Julio	2023-07-18T00:00:00	2024-11-08T15:00:00	3	Temperatura mínima	25.6
136364	7	Sololá	713	San Lucas Tolimán	10	San Lucas Tolimán	7	Julio	2023-07-18T00:00:00	2024-11-08T15:00:00	5	Humedad	33
136365	7	Sololá	713	San Lucas Tolimán	10	San Lucas Tolimán	7	Julio	2023-07-18T00:00:00	2024-11-08T15:00:00	6	Velocidad del viento	6.4
136366	7	Sololá	713	San Lucas Tolimán	10	San Lucas Tolimán	7	Julio	2023-07-18T00:00:00	2024-11-08T15:00:00	7	Dirección del viento	6.44
136367	7	Sololá	713	San Lucas Tolimán	10	San Lucas Tolimán	7	Julio	2023-07-18T00:00:00	2024-11-08T15:00:00	1	Precipitación	0
136368	7	Sololá	713	San Lucas Tolimán	10	San Lucas Tolimán	7	Julio	2023-07-18T00:00:00	2024-11-08T15:00:00	8	Radiación solar	786
136369	7	Sololá	713	San Lucas Tolimán	10	San Lucas Tolimán	7	Julio	2023-07-18T00:00:00	2024-11-08T16:00:00	2	Temperatura media	25.4
136370	7	Sololá	713	San Lucas Tolimán	10	San Lucas Tolimán	7	Julio	2023-07-18T00:00:00	2024-11-08T16:00:00	4	Temperatura máxima	25.8
136371	7	Sololá	713	San Lucas Tolimán	10	San Lucas Tolimán	7	Julio	2023-07-18T00:00:00	2024-11-08T16:00:00	3	Temperatura mínima	25.3
136372	7	Sololá	713	San Lucas Tolimán	10	San Lucas Tolimán	7	Julio	2023-07-18T00:00:00	2024-11-08T16:00:00	5	Humedad	37
136373	7	Sololá	713	San Lucas Tolimán	10	San Lucas Tolimán	7	Julio	2023-07-18T00:00:00	2024-11-08T16:00:00	6	Velocidad del viento	6.4
136374	7	Sololá	713	San Lucas Tolimán	10	San Lucas Tolimán	7	Julio	2023-07-18T00:00:00	2024-11-08T16:00:00	7	Dirección del viento	6.44
136375	7	Sololá	713	San Lucas Tolimán	10	San Lucas Tolimán	7	Julio	2023-07-18T00:00:00	2024-11-08T16:00:00	1	Precipitación	0
136376	7	Sololá	713	San Lucas Tolimán	10	San Lucas Tolimán	7	Julio	2023-07-18T00:00:00	2024-11-08T16:00:00	8	Radiación solar	523
136377	7	Sololá	713	San Lucas Tolimán	10	San Lucas Tolimán	7	Julio	2023-07-18T00:00:00	2024-11-08T17:00:00	2	Temperatura media	25.2
136378	7	Sololá	713	San Lucas Tolimán	10	San Lucas Tolimán	7	Julio	2023-07-18T00:00:00	2024-11-08T17:00:00	4	Temperatura máxima	25.7
136379	7	Sololá	713	San Lucas Tolimán	10	San Lucas Tolimán	7	Julio	2023-07-18T00:00:00	2024-11-08T17:00:00	3	Temperatura mínima	24.9
136380	7	Sololá	713	San Lucas Tolimán	10	San Lucas Tolimán	7	Julio	2023-07-18T00:00:00	2024-11-08T17:00:00	5	Humedad	47
136381	7	Sololá	713	San Lucas Tolimán	10	San Lucas Tolimán	7	Julio	2023-07-18T00:00:00	2024-11-08T17:00:00	6	Velocidad del viento	6.4
136382	7	Sololá	713	San Lucas Tolimán	10	San Lucas Tolimán	7	Julio	2023-07-18T00:00:00	2024-11-08T17:00:00	7	Dirección del viento	6.44
136383	7	Sololá	713	San Lucas Tolimán	10	San Lucas Tolimán	7	Julio	2023-07-18T00:00:00	2024-11-08T17:00:00	1	Precipitación	0
136384	7	Sololá	713	San Lucas Tolimán	10	San Lucas Tolimán	7	Julio	2023-07-18T00:00:00	2024-11-08T17:00:00	8	Radiación solar	241
136385	7	Sololá	713	San Lucas Tolimán	10	San Lucas Tolimán	7	Julio	2023-07-18T00:00:00	2024-11-08T18:00:00	2	Temperatura media	24.2
136386	7	Sololá	713	San Lucas Tolimán	10	San Lucas Tolimán	7	Julio	2023-07-18T00:00:00	2024-11-08T18:00:00	4	Temperatura máxima	25.4
136387	7	Sololá	713	San Lucas Tolimán	10	San Lucas Tolimán	7	Julio	2023-07-18T00:00:00	2024-11-08T18:00:00	3	Temperatura mínima	24.2
136388	7	Sololá	713	San Lucas Tolimán	10	San Lucas Tolimán	7	Julio	2023-07-18T00:00:00	2024-11-08T18:00:00	5	Humedad	47
136389	7	Sololá	713	San Lucas Tolimán	10	San Lucas Tolimán	7	Julio	2023-07-18T00:00:00	2024-11-08T18:00:00	6	Velocidad del viento	8
136390	7	Sololá	713	San Lucas Tolimán	10	San Lucas Tolimán	7	Julio	2023-07-18T00:00:00	2024-11-08T18:00:00	7	Dirección del viento	8.05
136391	7	Sololá	713	San Lucas Tolimán	10	San Lucas Tolimán	7	Julio	2023-07-18T00:00:00	2024-11-08T18:00:00	1	Precipitación	0
136392	7	Sololá	713	San Lucas Tolimán	10	San Lucas Tolimán	7	Julio	2023-07-18T00:00:00	2024-11-08T18:00:00	8	Radiación solar	68
136393	7	Sololá	713	San Lucas Tolimán	10	San Lucas Tolimán	7	Julio	2023-07-18T00:00:00	2024-11-08T19:00:00	2	Temperatura media	22.1
136394	7	Sololá	713	San Lucas Tolimán	10	San Lucas Tolimán	7	Julio	2023-07-18T00:00:00	2024-11-08T19:00:00	4	Temperatura máxima	24.2
136395	7	Sololá	713	San Lucas Tolimán	10	San Lucas Tolimán	7	Julio	2023-07-18T00:00:00	2024-11-08T19:00:00	3	Temperatura mínima	22
136396	7	Sololá	713	San Lucas Tolimán	10	San Lucas Tolimán	7	Julio	2023-07-18T00:00:00	2024-11-08T19:00:00	5	Humedad	63
136397	7	Sololá	713	San Lucas Tolimán	10	San Lucas Tolimán	7	Julio	2023-07-18T00:00:00	2024-11-08T19:00:00	6	Velocidad del viento	3.2
136398	7	Sololá	713	San Lucas Tolimán	10	San Lucas Tolimán	7	Julio	2023-07-18T00:00:00	2024-11-08T19:00:00	7	Dirección del viento	3.22
136399	7	Sololá	713	San Lucas Tolimán	10	San Lucas Tolimán	7	Julio	2023-07-18T00:00:00	2024-11-08T19:00:00	1	Precipitación	0
136400	7	Sololá	713	San Lucas Tolimán	10	San Lucas Tolimán	7	Julio	2023-07-18T00:00:00	2024-11-08T19:00:00	8	Radiación solar	0
136401	7	Sololá	713	San Lucas Tolimán	10	San Lucas Tolimán	7	Julio	2023-07-18T00:00:00	2024-11-08T20:00:00	2	Temperatura media	21.7
136402	7	Sololá	713	San Lucas Tolimán	10	San Lucas Tolimán	7	Julio	2023-07-18T00:00:00	2024-11-08T20:00:00	4	Temperatura máxima	22.1
136403	7	Sololá	713	San Lucas Tolimán	10	San Lucas Tolimán	7	Julio	2023-07-18T00:00:00	2024-11-08T20:00:00	3	Temperatura mínima	21.7
136404	7	Sololá	713	San Lucas Tolimán	10	San Lucas Tolimán	7	Julio	2023-07-18T00:00:00	2024-11-08T20:00:00	5	Humedad	66
136405	7	Sololá	713	San Lucas Tolimán	10	San Lucas Tolimán	7	Julio	2023-07-18T00:00:00	2024-11-08T20:00:00	6	Velocidad del viento	6.4
136406	7	Sololá	713	San Lucas Tolimán	10	San Lucas Tolimán	7	Julio	2023-07-18T00:00:00	2024-11-08T20:00:00	7	Dirección del viento	6.44
136407	7	Sololá	713	San Lucas Tolimán	10	San Lucas Tolimán	7	Julio	2023-07-18T00:00:00	2024-11-08T20:00:00	1	Precipitación	0
136408	7	Sololá	713	San Lucas Tolimán	10	San Lucas Tolimán	7	Julio	2023-07-18T00:00:00	2024-11-08T20:00:00	8	Radiación solar	0
136409	7	Sololá	713	San Lucas Tolimán	10	San Lucas Tolimán	7	Julio	2023-07-18T00:00:00	2024-11-08T21:00:00	2	Temperatura media	20.9
136410	7	Sololá	713	San Lucas Tolimán	10	San Lucas Tolimán	7	Julio	2023-07-18T00:00:00	2024-11-08T21:00:00	4	Temperatura máxima	21.7
136411	7	Sololá	713	San Lucas Tolimán	10	San Lucas Tolimán	7	Julio	2023-07-18T00:00:00	2024-11-08T21:00:00	3	Temperatura mínima	20.9
136412	7	Sololá	713	San Lucas Tolimán	10	San Lucas Tolimán	7	Julio	2023-07-18T00:00:00	2024-11-08T21:00:00	5	Humedad	65
136413	7	Sololá	713	San Lucas Tolimán	10	San Lucas Tolimán	7	Julio	2023-07-18T00:00:00	2024-11-08T21:00:00	6	Velocidad del viento	4.8
136414	7	Sololá	713	San Lucas Tolimán	10	San Lucas Tolimán	7	Julio	2023-07-18T00:00:00	2024-11-08T21:00:00	7	Dirección del viento	4.83
136415	7	Sololá	713	San Lucas Tolimán	10	San Lucas Tolimán	7	Julio	2023-07-18T00:00:00	2024-11-08T21:00:00	1	Precipitación	0
136416	7	Sololá	713	San Lucas Tolimán	10	San Lucas Tolimán	7	Julio	2023-07-18T00:00:00	2024-11-08T21:00:00	8	Radiación solar	0
136417	7	Sololá	713	San Lucas Tolimán	10	San Lucas Tolimán	7	Julio	2023-07-18T00:00:00	2024-11-08T22:00:00	2	Temperatura media	20.6
136418	7	Sololá	713	San Lucas Tolimán	10	San Lucas Tolimán	7	Julio	2023-07-18T00:00:00	2024-11-08T22:00:00	4	Temperatura máxima	20.9
136419	7	Sololá	713	San Lucas Tolimán	10	San Lucas Tolimán	7	Julio	2023-07-18T00:00:00	2024-11-08T22:00:00	3	Temperatura mínima	20.6
136420	7	Sololá	713	San Lucas Tolimán	10	San Lucas Tolimán	7	Julio	2023-07-18T00:00:00	2024-11-08T22:00:00	5	Humedad	61
136421	7	Sololá	713	San Lucas Tolimán	10	San Lucas Tolimán	7	Julio	2023-07-18T00:00:00	2024-11-08T22:00:00	6	Velocidad del viento	6.4
136422	7	Sololá	713	San Lucas Tolimán	10	San Lucas Tolimán	7	Julio	2023-07-18T00:00:00	2024-11-08T22:00:00	7	Dirección del viento	6.44
136423	7	Sololá	713	San Lucas Tolimán	10	San Lucas Tolimán	7	Julio	2023-07-18T00:00:00	2024-11-08T22:00:00	1	Precipitación	0
136424	7	Sololá	713	San Lucas Tolimán	10	San Lucas Tolimán	7	Julio	2023-07-18T00:00:00	2024-11-08T22:00:00	8	Radiación solar	0
136425	7	Sololá	713	San Lucas Tolimán	10	San Lucas Tolimán	7	Julio	2023-07-18T00:00:00	2024-11-08T23:00:00	2	Temperatura media	18.9
136426	7	Sololá	713	San Lucas Tolimán	10	San Lucas Tolimán	7	Julio	2023-07-18T00:00:00	2024-11-08T23:00:00	4	Temperatura máxima	20.6
136427	7	Sololá	713	San Lucas Tolimán	10	San Lucas Tolimán	7	Julio	2023-07-18T00:00:00	2024-11-08T23:00:00	3	Temperatura mínima	18.9
136428	7	Sololá	713	San Lucas Tolimán	10	San Lucas Tolimán	7	Julio	2023-07-18T00:00:00	2024-11-08T23:00:00	5	Humedad	67
136429	7	Sololá	713	San Lucas Tolimán	10	San Lucas Tolimán	7	Julio	2023-07-18T00:00:00	2024-11-08T23:00:00	6	Velocidad del viento	1.6
136430	7	Sololá	713	San Lucas Tolimán	10	San Lucas Tolimán	7	Julio	2023-07-18T00:00:00	2024-11-08T23:00:00	7	Dirección del viento	1.61
136431	7	Sololá	713	San Lucas Tolimán	10	San Lucas Tolimán	7	Julio	2023-07-18T00:00:00	2024-11-08T23:00:00	1	Precipitación	0
136432	7	Sololá	713	San Lucas Tolimán	10	San Lucas Tolimán	7	Julio	2023-07-18T00:00:00	2024-11-08T23:00:00	8	Radiación solar	0
136433	7	Sololá	713	San Lucas Tolimán	10	San Lucas Tolimán	7	Julio	2023-07-19T00:00:00	2024-11-08T00:00:00	2	Temperatura media	18.8
136434	7	Sololá	713	San Lucas Tolimán	10	San Lucas Tolimán	7	Julio	2023-07-19T00:00:00	2024-11-08T00:00:00	4	Temperatura máxima	19
136435	7	Sololá	713	San Lucas Tolimán	10	San Lucas Tolimán	7	Julio	2023-07-19T00:00:00	2024-11-08T00:00:00	3	Temperatura mínima	18.8
136436	7	Sololá	713	San Lucas Tolimán	10	San Lucas Tolimán	7	Julio	2023-07-19T00:00:00	2024-11-08T00:00:00	5	Humedad	68
136437	7	Sololá	713	San Lucas Tolimán	10	San Lucas Tolimán	7	Julio	2023-07-19T00:00:00	2024-11-08T00:00:00	6	Velocidad del viento	3.2
136438	7	Sololá	713	San Lucas Tolimán	10	San Lucas Tolimán	7	Julio	2023-07-19T00:00:00	2024-11-08T00:00:00	7	Dirección del viento	3.22
136439	7	Sololá	713	San Lucas Tolimán	10	San Lucas Tolimán	7	Julio	2023-07-19T00:00:00	2024-11-08T00:00:00	1	Precipitación	0
136440	7	Sololá	713	San Lucas Tolimán	10	San Lucas Tolimán	7	Julio	2023-07-19T00:00:00	2024-11-08T00:00:00	8	Radiación solar	0
136441	7	Sololá	713	San Lucas Tolimán	10	San Lucas Tolimán	7	Julio	2023-07-19T00:00:00	2024-11-08T01:00:00	2	Temperatura media	19.8
136442	7	Sololá	713	San Lucas Tolimán	10	San Lucas Tolimán	7	Julio	2023-07-19T00:00:00	2024-11-08T01:00:00	4	Temperatura máxima	19.9
136443	7	Sololá	713	San Lucas Tolimán	10	San Lucas Tolimán	7	Julio	2023-07-19T00:00:00	2024-11-08T01:00:00	3	Temperatura mínima	18.8
136444	7	Sololá	713	San Lucas Tolimán	10	San Lucas Tolimán	7	Julio	2023-07-19T00:00:00	2024-11-08T01:00:00	5	Humedad	67
136445	7	Sololá	713	San Lucas Tolimán	10	San Lucas Tolimán	7	Julio	2023-07-19T00:00:00	2024-11-08T01:00:00	6	Velocidad del viento	4.8
136446	7	Sololá	713	San Lucas Tolimán	10	San Lucas Tolimán	7	Julio	2023-07-19T00:00:00	2024-11-08T01:00:00	7	Dirección del viento	4.83
136447	7	Sololá	713	San Lucas Tolimán	10	San Lucas Tolimán	7	Julio	2023-07-19T00:00:00	2024-11-08T01:00:00	1	Precipitación	0
136448	7	Sololá	713	San Lucas Tolimán	10	San Lucas Tolimán	7	Julio	2023-07-19T00:00:00	2024-11-08T01:00:00	8	Radiación solar	0
136449	7	Sololá	713	San Lucas Tolimán	10	San Lucas Tolimán	7	Julio	2023-07-19T00:00:00	2024-11-08T02:00:00	2	Temperatura media	19.5
136450	7	Sololá	713	San Lucas Tolimán	10	San Lucas Tolimán	7	Julio	2023-07-19T00:00:00	2024-11-08T02:00:00	4	Temperatura máxima	19.9
136451	7	Sololá	713	San Lucas Tolimán	10	San Lucas Tolimán	7	Julio	2023-07-19T00:00:00	2024-11-08T02:00:00	3	Temperatura mínima	18.8
136452	7	Sololá	713	San Lucas Tolimán	10	San Lucas Tolimán	7	Julio	2023-07-19T00:00:00	2024-11-08T02:00:00	5	Humedad	67
136453	7	Sololá	713	San Lucas Tolimán	10	San Lucas Tolimán	7	Julio	2023-07-19T00:00:00	2024-11-08T02:00:00	6	Velocidad del viento	3.2
136454	7	Sololá	713	San Lucas Tolimán	10	San Lucas Tolimán	7	Julio	2023-07-19T00:00:00	2024-11-08T02:00:00	7	Dirección del viento	3.22
136455	7	Sololá	713	San Lucas Tolimán	10	San Lucas Tolimán	7	Julio	2023-07-19T00:00:00	2024-11-08T02:00:00	1	Precipitación	0
136456	7	Sololá	713	San Lucas Tolimán	10	San Lucas Tolimán	7	Julio	2023-07-19T00:00:00	2024-11-08T02:00:00	8	Radiación solar	0
136457	7	Sololá	713	San Lucas Tolimán	10	San Lucas Tolimán	7	Julio	2023-07-19T00:00:00	2024-11-08T03:00:00	2	Temperatura media	19.3
136458	7	Sololá	713	San Lucas Tolimán	10	San Lucas Tolimán	7	Julio	2023-07-19T00:00:00	2024-11-08T03:00:00	4	Temperatura máxima	19.9
136459	7	Sololá	713	San Lucas Tolimán	10	San Lucas Tolimán	7	Julio	2023-07-19T00:00:00	2024-11-08T03:00:00	3	Temperatura mínima	19.2
136460	7	Sololá	713	San Lucas Tolimán	10	San Lucas Tolimán	7	Julio	2023-07-19T00:00:00	2024-11-08T03:00:00	5	Humedad	58
136461	7	Sololá	713	San Lucas Tolimán	10	San Lucas Tolimán	7	Julio	2023-07-19T00:00:00	2024-11-08T03:00:00	6	Velocidad del viento	6.4
136462	7	Sololá	713	San Lucas Tolimán	10	San Lucas Tolimán	7	Julio	2023-07-19T00:00:00	2024-11-08T03:00:00	7	Dirección del viento	6.44
136463	7	Sololá	713	San Lucas Tolimán	10	San Lucas Tolimán	7	Julio	2023-07-19T00:00:00	2024-11-08T03:00:00	1	Precipitación	0
136464	7	Sololá	713	San Lucas Tolimán	10	San Lucas Tolimán	7	Julio	2023-07-19T00:00:00	2024-11-08T03:00:00	8	Radiación solar	0
136465	7	Sololá	713	San Lucas Tolimán	10	San Lucas Tolimán	7	Julio	2023-07-19T00:00:00	2024-11-08T04:00:00	2	Temperatura media	20.1
136466	7	Sololá	713	San Lucas Tolimán	10	San Lucas Tolimán	7	Julio	2023-07-19T00:00:00	2024-11-08T04:00:00	4	Temperatura máxima	20.1
136467	7	Sololá	713	San Lucas Tolimán	10	San Lucas Tolimán	7	Julio	2023-07-19T00:00:00	2024-11-08T04:00:00	3	Temperatura mínima	19.3
136468	7	Sololá	713	San Lucas Tolimán	10	San Lucas Tolimán	7	Julio	2023-07-19T00:00:00	2024-11-08T04:00:00	5	Humedad	47
136469	7	Sololá	713	San Lucas Tolimán	10	San Lucas Tolimán	7	Julio	2023-07-19T00:00:00	2024-11-08T04:00:00	6	Velocidad del viento	6.4
136470	7	Sololá	713	San Lucas Tolimán	10	San Lucas Tolimán	7	Julio	2023-07-19T00:00:00	2024-11-08T04:00:00	7	Dirección del viento	6.44
136471	7	Sololá	713	San Lucas Tolimán	10	San Lucas Tolimán	7	Julio	2023-07-19T00:00:00	2024-11-08T04:00:00	1	Precipitación	0
136472	7	Sololá	713	San Lucas Tolimán	10	San Lucas Tolimán	7	Julio	2023-07-19T00:00:00	2024-11-08T04:00:00	8	Radiación solar	0
136473	7	Sololá	713	San Lucas Tolimán	10	San Lucas Tolimán	7	Julio	2023-07-19T00:00:00	2024-11-08T05:00:00	2	Temperatura media	20
136474	7	Sololá	713	San Lucas Tolimán	10	San Lucas Tolimán	7	Julio	2023-07-19T00:00:00	2024-11-08T05:00:00	4	Temperatura máxima	20.5
136475	7	Sololá	713	San Lucas Tolimán	10	San Lucas Tolimán	7	Julio	2023-07-19T00:00:00	2024-11-08T05:00:00	3	Temperatura mínima	19.9
136476	7	Sololá	713	San Lucas Tolimán	10	San Lucas Tolimán	7	Julio	2023-07-19T00:00:00	2024-11-08T05:00:00	5	Humedad	52
136477	7	Sololá	713	San Lucas Tolimán	10	San Lucas Tolimán	7	Julio	2023-07-19T00:00:00	2024-11-08T05:00:00	6	Velocidad del viento	6.4
136478	7	Sololá	713	San Lucas Tolimán	10	San Lucas Tolimán	7	Julio	2023-07-19T00:00:00	2024-11-08T05:00:00	7	Dirección del viento	6.44
136479	7	Sololá	713	San Lucas Tolimán	10	San Lucas Tolimán	7	Julio	2023-07-19T00:00:00	2024-11-08T05:00:00	1	Precipitación	0
136480	7	Sololá	713	San Lucas Tolimán	10	San Lucas Tolimán	7	Julio	2023-07-19T00:00:00	2024-11-08T05:00:00	8	Radiación solar	0
136481	7	Sololá	713	San Lucas Tolimán	10	San Lucas Tolimán	7	Julio	2023-07-19T00:00:00	2024-11-08T06:00:00	2	Temperatura media	20.1
136482	7	Sololá	713	San Lucas Tolimán	10	San Lucas Tolimán	7	Julio	2023-07-19T00:00:00	2024-11-08T06:00:00	4	Temperatura máxima	20.4
136483	7	Sololá	713	San Lucas Tolimán	10	San Lucas Tolimán	7	Julio	2023-07-19T00:00:00	2024-11-08T06:00:00	3	Temperatura mínima	19.5
136484	7	Sololá	713	San Lucas Tolimán	10	San Lucas Tolimán	7	Julio	2023-07-19T00:00:00	2024-11-08T06:00:00	5	Humedad	56
136485	7	Sololá	713	San Lucas Tolimán	10	San Lucas Tolimán	7	Julio	2023-07-19T00:00:00	2024-11-08T06:00:00	6	Velocidad del viento	8
136486	7	Sololá	713	San Lucas Tolimán	10	San Lucas Tolimán	7	Julio	2023-07-19T00:00:00	2024-11-08T06:00:00	7	Dirección del viento	8.05
136487	7	Sololá	713	San Lucas Tolimán	10	San Lucas Tolimán	7	Julio	2023-07-19T00:00:00	2024-11-08T06:00:00	1	Precipitación	0
136488	7	Sololá	713	San Lucas Tolimán	10	San Lucas Tolimán	7	Julio	2023-07-19T00:00:00	2024-11-08T06:00:00	8	Radiación solar	1
136489	7	Sololá	713	San Lucas Tolimán	10	San Lucas Tolimán	7	Julio	2023-07-19T00:00:00	2024-11-08T07:00:00	2	Temperatura media	20.4
136490	7	Sololá	713	San Lucas Tolimán	10	San Lucas Tolimán	7	Julio	2023-07-19T00:00:00	2024-11-08T07:00:00	4	Temperatura máxima	20.4
136491	7	Sololá	713	San Lucas Tolimán	10	San Lucas Tolimán	7	Julio	2023-07-19T00:00:00	2024-11-08T07:00:00	3	Temperatura mínima	19.6
136492	7	Sololá	713	San Lucas Tolimán	10	San Lucas Tolimán	7	Julio	2023-07-19T00:00:00	2024-11-08T07:00:00	5	Humedad	63
136493	7	Sololá	713	San Lucas Tolimán	10	San Lucas Tolimán	7	Julio	2023-07-19T00:00:00	2024-11-08T07:00:00	6	Velocidad del viento	6.4
136494	7	Sololá	713	San Lucas Tolimán	10	San Lucas Tolimán	7	Julio	2023-07-19T00:00:00	2024-11-08T07:00:00	7	Dirección del viento	6.44
136495	7	Sololá	713	San Lucas Tolimán	10	San Lucas Tolimán	7	Julio	2023-07-19T00:00:00	2024-11-08T07:00:00	1	Precipitación	0
136496	7	Sololá	713	San Lucas Tolimán	10	San Lucas Tolimán	7	Julio	2023-07-19T00:00:00	2024-11-08T07:00:00	8	Radiación solar	44
136497	7	Sololá	713	San Lucas Tolimán	10	San Lucas Tolimán	7	Julio	2023-07-19T00:00:00	2024-11-08T08:00:00	2	Temperatura media	21.3
136498	7	Sololá	713	San Lucas Tolimán	10	San Lucas Tolimán	7	Julio	2023-07-19T00:00:00	2024-11-08T08:00:00	4	Temperatura máxima	21.3
136499	7	Sololá	713	San Lucas Tolimán	10	San Lucas Tolimán	7	Julio	2023-07-19T00:00:00	2024-11-08T08:00:00	3	Temperatura mínima	20.4
136500	7	Sololá	713	San Lucas Tolimán	10	San Lucas Tolimán	7	Julio	2023-07-19T00:00:00	2024-11-08T08:00:00	5	Humedad	62
136501	7	Sololá	713	San Lucas Tolimán	10	San Lucas Tolimán	7	Julio	2023-07-19T00:00:00	2024-11-08T08:00:00	6	Velocidad del viento	6.4
136502	7	Sololá	713	San Lucas Tolimán	10	San Lucas Tolimán	7	Julio	2023-07-19T00:00:00	2024-11-08T08:00:00	7	Dirección del viento	6.44
136503	7	Sololá	713	San Lucas Tolimán	10	San Lucas Tolimán	7	Julio	2023-07-19T00:00:00	2024-11-08T08:00:00	1	Precipitación	0
136504	7	Sololá	713	San Lucas Tolimán	10	San Lucas Tolimán	7	Julio	2023-07-19T00:00:00	2024-11-08T08:00:00	8	Radiación solar	236
136505	7	Sololá	713	San Lucas Tolimán	10	San Lucas Tolimán	7	Julio	2023-07-19T00:00:00	2024-11-08T09:00:00	2	Temperatura media	22.9
136506	7	Sololá	713	San Lucas Tolimán	10	San Lucas Tolimán	7	Julio	2023-07-19T00:00:00	2024-11-08T09:00:00	4	Temperatura máxima	23
136507	7	Sololá	713	San Lucas Tolimán	10	San Lucas Tolimán	7	Julio	2023-07-19T00:00:00	2024-11-08T09:00:00	3	Temperatura mínima	21.3
136508	7	Sololá	713	San Lucas Tolimán	10	San Lucas Tolimán	7	Julio	2023-07-19T00:00:00	2024-11-08T09:00:00	5	Humedad	56
136509	7	Sololá	713	San Lucas Tolimán	10	San Lucas Tolimán	7	Julio	2023-07-19T00:00:00	2024-11-08T09:00:00	6	Velocidad del viento	8
136510	7	Sololá	713	San Lucas Tolimán	10	San Lucas Tolimán	7	Julio	2023-07-19T00:00:00	2024-11-08T09:00:00	7	Dirección del viento	8.05
136511	7	Sololá	713	San Lucas Tolimán	10	San Lucas Tolimán	7	Julio	2023-07-19T00:00:00	2024-11-08T09:00:00	1	Precipitación	0
136512	7	Sololá	713	San Lucas Tolimán	10	San Lucas Tolimán	7	Julio	2023-07-19T00:00:00	2024-11-08T09:00:00	8	Radiación solar	427
136513	7	Sololá	713	San Lucas Tolimán	10	San Lucas Tolimán	7	Julio	2023-07-19T00:00:00	2024-11-08T10:00:00	2	Temperatura media	24.2
136514	7	Sololá	713	San Lucas Tolimán	10	San Lucas Tolimán	7	Julio	2023-07-19T00:00:00	2024-11-08T10:00:00	4	Temperatura máxima	24.2
136515	7	Sololá	713	San Lucas Tolimán	10	San Lucas Tolimán	7	Julio	2023-07-19T00:00:00	2024-11-08T10:00:00	3	Temperatura mínima	22.9
136516	7	Sololá	713	San Lucas Tolimán	10	San Lucas Tolimán	7	Julio	2023-07-19T00:00:00	2024-11-08T10:00:00	5	Humedad	52
136517	7	Sololá	713	San Lucas Tolimán	10	San Lucas Tolimán	7	Julio	2023-07-19T00:00:00	2024-11-08T10:00:00	6	Velocidad del viento	11.3
136518	7	Sololá	713	San Lucas Tolimán	10	San Lucas Tolimán	7	Julio	2023-07-19T00:00:00	2024-11-08T10:00:00	7	Dirección del viento	11.27
136519	7	Sololá	713	San Lucas Tolimán	10	San Lucas Tolimán	7	Julio	2023-07-19T00:00:00	2024-11-08T10:00:00	1	Precipitación	0
136520	7	Sololá	713	San Lucas Tolimán	10	San Lucas Tolimán	7	Julio	2023-07-19T00:00:00	2024-11-08T10:00:00	8	Radiación solar	581
136521	7	Sololá	713	San Lucas Tolimán	10	San Lucas Tolimán	7	Julio	2023-07-19T00:00:00	2024-11-08T11:00:00	2	Temperatura media	24.8
136522	7	Sololá	713	San Lucas Tolimán	10	San Lucas Tolimán	7	Julio	2023-07-19T00:00:00	2024-11-08T11:00:00	4	Temperatura máxima	24.9
136523	7	Sololá	713	San Lucas Tolimán	10	San Lucas Tolimán	7	Julio	2023-07-19T00:00:00	2024-11-08T11:00:00	3	Temperatura mínima	23.8
136524	7	Sololá	713	San Lucas Tolimán	10	San Lucas Tolimán	7	Julio	2023-07-19T00:00:00	2024-11-08T11:00:00	5	Humedad	52
136525	7	Sololá	713	San Lucas Tolimán	10	San Lucas Tolimán	7	Julio	2023-07-19T00:00:00	2024-11-08T11:00:00	6	Velocidad del viento	12.9
136526	7	Sololá	713	San Lucas Tolimán	10	San Lucas Tolimán	7	Julio	2023-07-19T00:00:00	2024-11-08T11:00:00	7	Dirección del viento	12.87
136527	7	Sololá	713	San Lucas Tolimán	10	San Lucas Tolimán	7	Julio	2023-07-19T00:00:00	2024-11-08T11:00:00	1	Precipitación	0
136528	7	Sololá	713	San Lucas Tolimán	10	San Lucas Tolimán	7	Julio	2023-07-19T00:00:00	2024-11-08T11:00:00	8	Radiación solar	848
136529	7	Sololá	713	San Lucas Tolimán	10	San Lucas Tolimán	7	Julio	2023-07-19T00:00:00	2024-11-08T12:00:00	2	Temperatura media	26.3
136530	7	Sololá	713	San Lucas Tolimán	10	San Lucas Tolimán	7	Julio	2023-07-19T00:00:00	2024-11-08T12:00:00	4	Temperatura máxima	26.3
136531	7	Sololá	713	San Lucas Tolimán	10	San Lucas Tolimán	7	Julio	2023-07-19T00:00:00	2024-11-08T12:00:00	3	Temperatura mínima	24.7
136532	7	Sololá	713	San Lucas Tolimán	10	San Lucas Tolimán	7	Julio	2023-07-19T00:00:00	2024-11-08T12:00:00	5	Humedad	49
136533	7	Sololá	713	San Lucas Tolimán	10	San Lucas Tolimán	7	Julio	2023-07-19T00:00:00	2024-11-08T12:00:00	6	Velocidad del viento	11.3
136534	7	Sololá	713	San Lucas Tolimán	10	San Lucas Tolimán	7	Julio	2023-07-19T00:00:00	2024-11-08T12:00:00	7	Dirección del viento	11.27
136535	7	Sololá	713	San Lucas Tolimán	10	San Lucas Tolimán	7	Julio	2023-07-19T00:00:00	2024-11-08T12:00:00	1	Precipitación	0
136536	7	Sololá	713	San Lucas Tolimán	10	San Lucas Tolimán	7	Julio	2023-07-19T00:00:00	2024-11-08T12:00:00	8	Radiación solar	1001
136537	7	Sololá	713	San Lucas Tolimán	10	San Lucas Tolimán	7	Julio	2023-07-19T00:00:00	2024-11-08T13:00:00	2	Temperatura media	27.3
136538	7	Sololá	713	San Lucas Tolimán	10	San Lucas Tolimán	7	Julio	2023-07-19T00:00:00	2024-11-08T13:00:00	4	Temperatura máxima	27.3
136539	7	Sololá	713	San Lucas Tolimán	10	San Lucas Tolimán	7	Julio	2023-07-19T00:00:00	2024-11-08T13:00:00	3	Temperatura mínima	26.3
136540	7	Sololá	713	San Lucas Tolimán	10	San Lucas Tolimán	7	Julio	2023-07-19T00:00:00	2024-11-08T13:00:00	5	Humedad	48
136541	7	Sololá	713	San Lucas Tolimán	10	San Lucas Tolimán	7	Julio	2023-07-19T00:00:00	2024-11-08T13:00:00	6	Velocidad del viento	9.7
136542	7	Sololá	713	San Lucas Tolimán	10	San Lucas Tolimán	7	Julio	2023-07-19T00:00:00	2024-11-08T13:00:00	7	Dirección del viento	9.66
136543	7	Sololá	713	San Lucas Tolimán	10	San Lucas Tolimán	7	Julio	2023-07-19T00:00:00	2024-11-08T13:00:00	1	Precipitación	0
136544	7	Sololá	713	San Lucas Tolimán	10	San Lucas Tolimán	7	Julio	2023-07-19T00:00:00	2024-11-08T13:00:00	8	Radiación solar	1020
136545	7	Sololá	713	San Lucas Tolimán	10	San Lucas Tolimán	7	Julio	2023-07-19T00:00:00	2024-11-08T14:00:00	2	Temperatura media	26.9
136546	7	Sololá	713	San Lucas Tolimán	10	San Lucas Tolimán	7	Julio	2023-07-19T00:00:00	2024-11-08T14:00:00	4	Temperatura máxima	28.2
136547	7	Sololá	713	San Lucas Tolimán	10	San Lucas Tolimán	7	Julio	2023-07-19T00:00:00	2024-11-08T14:00:00	3	Temperatura mínima	26.9
136548	7	Sololá	713	San Lucas Tolimán	10	San Lucas Tolimán	7	Julio	2023-07-19T00:00:00	2024-11-08T14:00:00	5	Humedad	70
136549	7	Sololá	713	San Lucas Tolimán	10	San Lucas Tolimán	7	Julio	2023-07-19T00:00:00	2024-11-08T14:00:00	6	Velocidad del viento	8
136550	7	Sololá	713	San Lucas Tolimán	10	San Lucas Tolimán	7	Julio	2023-07-19T00:00:00	2024-11-08T14:00:00	7	Dirección del viento	8.05
136551	7	Sololá	713	San Lucas Tolimán	10	San Lucas Tolimán	7	Julio	2023-07-19T00:00:00	2024-11-08T14:00:00	1	Precipitación	0
136552	7	Sololá	713	San Lucas Tolimán	10	San Lucas Tolimán	7	Julio	2023-07-19T00:00:00	2024-11-08T14:00:00	8	Radiación solar	1020
136553	7	Sololá	713	San Lucas Tolimán	10	San Lucas Tolimán	7	Julio	2023-07-19T00:00:00	2024-11-08T15:00:00	2	Temperatura media	24.4
136554	7	Sololá	713	San Lucas Tolimán	10	San Lucas Tolimán	7	Julio	2023-07-19T00:00:00	2024-11-08T15:00:00	4	Temperatura máxima	26.8
136555	7	Sololá	713	San Lucas Tolimán	10	San Lucas Tolimán	7	Julio	2023-07-19T00:00:00	2024-11-08T15:00:00	3	Temperatura mínima	24.1
136556	7	Sololá	713	San Lucas Tolimán	10	San Lucas Tolimán	7	Julio	2023-07-19T00:00:00	2024-11-08T15:00:00	5	Humedad	77
136557	7	Sololá	713	San Lucas Tolimán	10	San Lucas Tolimán	7	Julio	2023-07-19T00:00:00	2024-11-08T15:00:00	6	Velocidad del viento	8
136558	7	Sololá	713	San Lucas Tolimán	10	San Lucas Tolimán	7	Julio	2023-07-19T00:00:00	2024-11-08T15:00:00	7	Dirección del viento	8.05
136559	7	Sololá	713	San Lucas Tolimán	10	San Lucas Tolimán	7	Julio	2023-07-19T00:00:00	2024-11-08T15:00:00	1	Precipitación	0
136560	7	Sololá	713	San Lucas Tolimán	10	San Lucas Tolimán	7	Julio	2023-07-19T00:00:00	2024-11-08T15:00:00	8	Radiación solar	675
136561	7	Sololá	713	San Lucas Tolimán	10	San Lucas Tolimán	7	Julio	2023-07-19T00:00:00	2024-11-08T16:00:00	2	Temperatura media	25.8
136562	7	Sololá	713	San Lucas Tolimán	10	San Lucas Tolimán	7	Julio	2023-07-19T00:00:00	2024-11-08T16:00:00	4	Temperatura máxima	25.8
136563	7	Sololá	713	San Lucas Tolimán	10	San Lucas Tolimán	7	Julio	2023-07-19T00:00:00	2024-11-08T16:00:00	3	Temperatura mínima	24.1
136564	7	Sololá	713	San Lucas Tolimán	10	San Lucas Tolimán	7	Julio	2023-07-19T00:00:00	2024-11-08T16:00:00	5	Humedad	71
136565	7	Sololá	713	San Lucas Tolimán	10	San Lucas Tolimán	7	Julio	2023-07-19T00:00:00	2024-11-08T16:00:00	6	Velocidad del viento	8
136566	7	Sololá	713	San Lucas Tolimán	10	San Lucas Tolimán	7	Julio	2023-07-19T00:00:00	2024-11-08T16:00:00	7	Dirección del viento	8.05
136567	7	Sololá	713	San Lucas Tolimán	10	San Lucas Tolimán	7	Julio	2023-07-19T00:00:00	2024-11-08T16:00:00	1	Precipitación	0
136568	7	Sololá	713	San Lucas Tolimán	10	San Lucas Tolimán	7	Julio	2023-07-19T00:00:00	2024-11-08T16:00:00	8	Radiación solar	192
136569	7	Sololá	713	San Lucas Tolimán	10	San Lucas Tolimán	7	Julio	2023-07-19T00:00:00	2024-11-08T17:00:00	2	Temperatura media	26.2
136570	7	Sololá	713	San Lucas Tolimán	10	San Lucas Tolimán	7	Julio	2023-07-19T00:00:00	2024-11-08T17:00:00	4	Temperatura máxima	26.7
136571	7	Sololá	713	San Lucas Tolimán	10	San Lucas Tolimán	7	Julio	2023-07-19T00:00:00	2024-11-08T17:00:00	3	Temperatura mínima	25.8
136572	7	Sololá	713	San Lucas Tolimán	10	San Lucas Tolimán	7	Julio	2023-07-19T00:00:00	2024-11-08T17:00:00	5	Humedad	53
136573	7	Sololá	713	San Lucas Tolimán	10	San Lucas Tolimán	7	Julio	2023-07-19T00:00:00	2024-11-08T17:00:00	6	Velocidad del viento	4.8
136574	7	Sololá	713	San Lucas Tolimán	10	San Lucas Tolimán	7	Julio	2023-07-19T00:00:00	2024-11-08T17:00:00	7	Dirección del viento	4.83
136575	7	Sololá	713	San Lucas Tolimán	10	San Lucas Tolimán	7	Julio	2023-07-19T00:00:00	2024-11-08T17:00:00	1	Precipitación	0
136576	7	Sololá	713	San Lucas Tolimán	10	San Lucas Tolimán	7	Julio	2023-07-19T00:00:00	2024-11-08T17:00:00	8	Radiación solar	29
136577	7	Sololá	713	San Lucas Tolimán	10	San Lucas Tolimán	7	Julio	2023-07-19T00:00:00	2024-11-08T18:00:00	2	Temperatura media	24.3
136578	7	Sololá	713	San Lucas Tolimán	10	San Lucas Tolimán	7	Julio	2023-07-19T00:00:00	2024-11-08T18:00:00	4	Temperatura máxima	26.2
136579	7	Sololá	713	San Lucas Tolimán	10	San Lucas Tolimán	7	Julio	2023-07-19T00:00:00	2024-11-08T18:00:00	3	Temperatura mínima	24.2
136580	7	Sololá	713	San Lucas Tolimán	10	San Lucas Tolimán	7	Julio	2023-07-19T00:00:00	2024-11-08T18:00:00	5	Humedad	59
136581	7	Sololá	713	San Lucas Tolimán	10	San Lucas Tolimán	7	Julio	2023-07-19T00:00:00	2024-11-08T18:00:00	6	Velocidad del viento	8
136582	7	Sololá	713	San Lucas Tolimán	10	San Lucas Tolimán	7	Julio	2023-07-19T00:00:00	2024-11-08T18:00:00	7	Dirección del viento	8.05
136583	7	Sololá	713	San Lucas Tolimán	10	San Lucas Tolimán	7	Julio	2023-07-19T00:00:00	2024-11-08T18:00:00	1	Precipitación	0
136584	7	Sololá	713	San Lucas Tolimán	10	San Lucas Tolimán	7	Julio	2023-07-19T00:00:00	2024-11-08T18:00:00	8	Radiación solar	8
136585	7	Sololá	713	San Lucas Tolimán	10	San Lucas Tolimán	7	Julio	2023-07-19T00:00:00	2024-11-08T19:00:00	2	Temperatura media	23.3
136586	7	Sololá	713	San Lucas Tolimán	10	San Lucas Tolimán	7	Julio	2023-07-19T00:00:00	2024-11-08T19:00:00	4	Temperatura máxima	24.3
136587	7	Sololá	713	San Lucas Tolimán	10	San Lucas Tolimán	7	Julio	2023-07-19T00:00:00	2024-11-08T19:00:00	3	Temperatura mínima	23.3
136588	7	Sololá	713	San Lucas Tolimán	10	San Lucas Tolimán	7	Julio	2023-07-19T00:00:00	2024-11-08T19:00:00	5	Humedad	63
136589	7	Sololá	713	San Lucas Tolimán	10	San Lucas Tolimán	7	Julio	2023-07-19T00:00:00	2024-11-08T19:00:00	6	Velocidad del viento	6.4
136590	7	Sololá	713	San Lucas Tolimán	10	San Lucas Tolimán	7	Julio	2023-07-19T00:00:00	2024-11-08T19:00:00	7	Dirección del viento	6.44
136591	7	Sololá	713	San Lucas Tolimán	10	San Lucas Tolimán	7	Julio	2023-07-19T00:00:00	2024-11-08T19:00:00	1	Precipitación	0
136592	7	Sololá	713	San Lucas Tolimán	10	San Lucas Tolimán	7	Julio	2023-07-19T00:00:00	2024-11-08T19:00:00	8	Radiación solar	0
136593	7	Sololá	713	San Lucas Tolimán	10	San Lucas Tolimán	7	Julio	2023-07-19T00:00:00	2024-11-08T20:00:00	2	Temperatura media	22.6
136594	7	Sololá	713	San Lucas Tolimán	10	San Lucas Tolimán	7	Julio	2023-07-19T00:00:00	2024-11-08T20:00:00	4	Temperatura máxima	23.3
136595	7	Sololá	713	San Lucas Tolimán	10	San Lucas Tolimán	7	Julio	2023-07-19T00:00:00	2024-11-08T20:00:00	3	Temperatura mínima	22.6
136596	7	Sololá	713	San Lucas Tolimán	10	San Lucas Tolimán	7	Julio	2023-07-19T00:00:00	2024-11-08T20:00:00	5	Humedad	67
136597	7	Sololá	713	San Lucas Tolimán	10	San Lucas Tolimán	7	Julio	2023-07-19T00:00:00	2024-11-08T20:00:00	6	Velocidad del viento	3.2
136598	7	Sololá	713	San Lucas Tolimán	10	San Lucas Tolimán	7	Julio	2023-07-19T00:00:00	2024-11-08T20:00:00	7	Dirección del viento	3.22
136599	7	Sololá	713	San Lucas Tolimán	10	San Lucas Tolimán	7	Julio	2023-07-19T00:00:00	2024-11-08T20:00:00	1	Precipitación	0
136600	7	Sololá	713	San Lucas Tolimán	10	San Lucas Tolimán	7	Julio	2023-07-19T00:00:00	2024-11-08T20:00:00	8	Radiación solar	0
136601	7	Sololá	713	San Lucas Tolimán	10	San Lucas Tolimán	7	Julio	2023-07-19T00:00:00	2024-11-08T21:00:00	2	Temperatura media	22.3
136602	7	Sololá	713	San Lucas Tolimán	10	San Lucas Tolimán	7	Julio	2023-07-19T00:00:00	2024-11-08T21:00:00	4	Temperatura máxima	22.6
136603	7	Sololá	713	San Lucas Tolimán	10	San Lucas Tolimán	7	Julio	2023-07-19T00:00:00	2024-11-08T21:00:00	3	Temperatura mínima	22.3
136604	7	Sololá	713	San Lucas Tolimán	10	San Lucas Tolimán	7	Julio	2023-07-19T00:00:00	2024-11-08T21:00:00	5	Humedad	68
136605	7	Sololá	713	San Lucas Tolimán	10	San Lucas Tolimán	7	Julio	2023-07-19T00:00:00	2024-11-08T21:00:00	6	Velocidad del viento	6.4
136606	7	Sololá	713	San Lucas Tolimán	10	San Lucas Tolimán	7	Julio	2023-07-19T00:00:00	2024-11-08T21:00:00	7	Dirección del viento	6.44
136607	7	Sololá	713	San Lucas Tolimán	10	San Lucas Tolimán	7	Julio	2023-07-19T00:00:00	2024-11-08T21:00:00	1	Precipitación	0
136608	7	Sololá	713	San Lucas Tolimán	10	San Lucas Tolimán	7	Julio	2023-07-19T00:00:00	2024-11-08T21:00:00	8	Radiación solar	0
136609	7	Sololá	713	San Lucas Tolimán	10	San Lucas Tolimán	7	Julio	2023-07-19T00:00:00	2024-11-08T22:00:00	2	Temperatura media	21.7
136610	7	Sololá	713	San Lucas Tolimán	10	San Lucas Tolimán	7	Julio	2023-07-19T00:00:00	2024-11-08T22:00:00	4	Temperatura máxima	22.3
136611	7	Sololá	713	San Lucas Tolimán	10	San Lucas Tolimán	7	Julio	2023-07-19T00:00:00	2024-11-08T22:00:00	3	Temperatura mínima	21.7
136612	7	Sololá	713	San Lucas Tolimán	10	San Lucas Tolimán	7	Julio	2023-07-19T00:00:00	2024-11-08T22:00:00	5	Humedad	70
136613	7	Sololá	713	San Lucas Tolimán	10	San Lucas Tolimán	7	Julio	2023-07-19T00:00:00	2024-11-08T22:00:00	6	Velocidad del viento	4.8
136614	7	Sololá	713	San Lucas Tolimán	10	San Lucas Tolimán	7	Julio	2023-07-19T00:00:00	2024-11-08T22:00:00	7	Dirección del viento	4.83
136615	7	Sololá	713	San Lucas Tolimán	10	San Lucas Tolimán	7	Julio	2023-07-19T00:00:00	2024-11-08T22:00:00	1	Precipitación	0
136616	7	Sololá	713	San Lucas Tolimán	10	San Lucas Tolimán	7	Julio	2023-07-19T00:00:00	2024-11-08T22:00:00	8	Radiación solar	0
136617	7	Sololá	713	San Lucas Tolimán	10	San Lucas Tolimán	7	Julio	2023-07-19T00:00:00	2024-11-08T23:00:00	2	Temperatura media	21.7
136618	7	Sololá	713	San Lucas Tolimán	10	San Lucas Tolimán	7	Julio	2023-07-19T00:00:00	2024-11-08T23:00:00	4	Temperatura máxima	21.8
136619	7	Sololá	713	San Lucas Tolimán	10	San Lucas Tolimán	7	Julio	2023-07-19T00:00:00	2024-11-08T23:00:00	3	Temperatura mínima	21.6
136620	7	Sololá	713	San Lucas Tolimán	10	San Lucas Tolimán	7	Julio	2023-07-19T00:00:00	2024-11-08T23:00:00	5	Humedad	69
136621	7	Sololá	713	San Lucas Tolimán	10	San Lucas Tolimán	7	Julio	2023-07-19T00:00:00	2024-11-08T23:00:00	6	Velocidad del viento	4.8
136622	7	Sololá	713	San Lucas Tolimán	10	San Lucas Tolimán	7	Julio	2023-07-19T00:00:00	2024-11-08T23:00:00	7	Dirección del viento	4.83
136623	7	Sololá	713	San Lucas Tolimán	10	San Lucas Tolimán	7	Julio	2023-07-19T00:00:00	2024-11-08T23:00:00	1	Precipitación	0
136624	7	Sololá	713	San Lucas Tolimán	10	San Lucas Tolimán	7	Julio	2023-07-19T00:00:00	2024-11-08T23:00:00	8	Radiación solar	0
136625	7	Sololá	713	San Lucas Tolimán	10	San Lucas Tolimán	7	Julio	2023-07-20T00:00:00	2024-11-08T00:00:00	2	Temperatura media	21.6
136626	7	Sololá	713	San Lucas Tolimán	10	San Lucas Tolimán	7	Julio	2023-07-20T00:00:00	2024-11-08T00:00:00	4	Temperatura máxima	21.8
136627	7	Sololá	713	San Lucas Tolimán	10	San Lucas Tolimán	7	Julio	2023-07-20T00:00:00	2024-11-08T00:00:00	3	Temperatura mínima	21.2
136628	7	Sololá	713	San Lucas Tolimán	10	San Lucas Tolimán	7	Julio	2023-07-20T00:00:00	2024-11-08T00:00:00	5	Humedad	70
136629	7	Sololá	713	San Lucas Tolimán	10	San Lucas Tolimán	7	Julio	2023-07-20T00:00:00	2024-11-08T00:00:00	6	Velocidad del viento	6.4
136630	7	Sololá	713	San Lucas Tolimán	10	San Lucas Tolimán	7	Julio	2023-07-20T00:00:00	2024-11-08T00:00:00	7	Dirección del viento	6.44
136631	7	Sololá	713	San Lucas Tolimán	10	San Lucas Tolimán	7	Julio	2023-07-20T00:00:00	2024-11-08T00:00:00	1	Precipitación	0
136632	7	Sololá	713	San Lucas Tolimán	10	San Lucas Tolimán	7	Julio	2023-07-20T00:00:00	2024-11-08T00:00:00	8	Radiación solar	0
136633	7	Sololá	713	San Lucas Tolimán	10	San Lucas Tolimán	7	Julio	2023-07-20T00:00:00	2024-11-08T01:00:00	2	Temperatura media	20.2
136634	7	Sololá	713	San Lucas Tolimán	10	San Lucas Tolimán	7	Julio	2023-07-20T00:00:00	2024-11-08T01:00:00	4	Temperatura máxima	21.6
136635	7	Sololá	713	San Lucas Tolimán	10	San Lucas Tolimán	7	Julio	2023-07-20T00:00:00	2024-11-08T01:00:00	3	Temperatura mínima	20.2
136636	7	Sololá	713	San Lucas Tolimán	10	San Lucas Tolimán	7	Julio	2023-07-20T00:00:00	2024-11-08T01:00:00	5	Humedad	75
136637	7	Sololá	713	San Lucas Tolimán	10	San Lucas Tolimán	7	Julio	2023-07-20T00:00:00	2024-11-08T01:00:00	6	Velocidad del viento	4.8
136638	7	Sololá	713	San Lucas Tolimán	10	San Lucas Tolimán	7	Julio	2023-07-20T00:00:00	2024-11-08T01:00:00	7	Dirección del viento	4.83
136639	7	Sololá	713	San Lucas Tolimán	10	San Lucas Tolimán	7	Julio	2023-07-20T00:00:00	2024-11-08T01:00:00	1	Precipitación	0
136640	7	Sololá	713	San Lucas Tolimán	10	San Lucas Tolimán	7	Julio	2023-07-20T00:00:00	2024-11-08T01:00:00	8	Radiación solar	0
136641	7	Sololá	713	San Lucas Tolimán	10	San Lucas Tolimán	7	Julio	2023-07-20T00:00:00	2024-11-08T02:00:00	2	Temperatura media	19.7
136642	7	Sololá	713	San Lucas Tolimán	10	San Lucas Tolimán	7	Julio	2023-07-20T00:00:00	2024-11-08T02:00:00	4	Temperatura máxima	20.2
136643	7	Sololá	713	San Lucas Tolimán	10	San Lucas Tolimán	7	Julio	2023-07-20T00:00:00	2024-11-08T02:00:00	3	Temperatura mínima	19.7
136644	7	Sololá	713	San Lucas Tolimán	10	San Lucas Tolimán	7	Julio	2023-07-20T00:00:00	2024-11-08T02:00:00	5	Humedad	76
136645	7	Sololá	713	San Lucas Tolimán	10	San Lucas Tolimán	7	Julio	2023-07-20T00:00:00	2024-11-08T02:00:00	6	Velocidad del viento	1.6
136646	7	Sololá	713	San Lucas Tolimán	10	San Lucas Tolimán	7	Julio	2023-07-20T00:00:00	2024-11-08T02:00:00	7	Dirección del viento	1.61
136647	7	Sololá	713	San Lucas Tolimán	10	San Lucas Tolimán	7	Julio	2023-07-20T00:00:00	2024-11-08T02:00:00	1	Precipitación	0
136648	7	Sololá	713	San Lucas Tolimán	10	San Lucas Tolimán	7	Julio	2023-07-20T00:00:00	2024-11-08T02:00:00	8	Radiación solar	0
136649	7	Sololá	713	San Lucas Tolimán	10	San Lucas Tolimán	7	Julio	2023-07-20T00:00:00	2024-11-08T03:00:00	2	Temperatura media	20.9
136650	7	Sololá	713	San Lucas Tolimán	10	San Lucas Tolimán	7	Julio	2023-07-20T00:00:00	2024-11-08T03:00:00	4	Temperatura máxima	20.9
136651	7	Sololá	713	San Lucas Tolimán	10	San Lucas Tolimán	7	Julio	2023-07-20T00:00:00	2024-11-08T03:00:00	3	Temperatura mínima	19.7
136652	7	Sololá	713	San Lucas Tolimán	10	San Lucas Tolimán	7	Julio	2023-07-20T00:00:00	2024-11-08T03:00:00	5	Humedad	70
136653	7	Sololá	713	San Lucas Tolimán	10	San Lucas Tolimán	7	Julio	2023-07-20T00:00:00	2024-11-08T03:00:00	6	Velocidad del viento	3.2
136654	7	Sololá	713	San Lucas Tolimán	10	San Lucas Tolimán	7	Julio	2023-07-20T00:00:00	2024-11-08T03:00:00	7	Dirección del viento	3.22
136655	7	Sololá	713	San Lucas Tolimán	10	San Lucas Tolimán	7	Julio	2023-07-20T00:00:00	2024-11-08T03:00:00	1	Precipitación	0
136656	7	Sololá	713	San Lucas Tolimán	10	San Lucas Tolimán	7	Julio	2023-07-20T00:00:00	2024-11-08T03:00:00	8	Radiación solar	0
136657	7	Sololá	713	San Lucas Tolimán	10	San Lucas Tolimán	7	Julio	2023-07-20T00:00:00	2024-11-08T04:00:00	2	Temperatura media	20.2
136658	7	Sololá	713	San Lucas Tolimán	10	San Lucas Tolimán	7	Julio	2023-07-20T00:00:00	2024-11-08T04:00:00	4	Temperatura máxima	20.9
136659	7	Sololá	713	San Lucas Tolimán	10	San Lucas Tolimán	7	Julio	2023-07-20T00:00:00	2024-11-08T04:00:00	3	Temperatura mínima	20.1
136660	7	Sololá	713	San Lucas Tolimán	10	San Lucas Tolimán	7	Julio	2023-07-20T00:00:00	2024-11-08T04:00:00	5	Humedad	72
136661	7	Sololá	713	San Lucas Tolimán	10	San Lucas Tolimán	7	Julio	2023-07-20T00:00:00	2024-11-08T04:00:00	6	Velocidad del viento	1.6
136662	7	Sololá	713	San Lucas Tolimán	10	San Lucas Tolimán	7	Julio	2023-07-20T00:00:00	2024-11-08T04:00:00	7	Dirección del viento	1.61
136663	7	Sololá	713	San Lucas Tolimán	10	San Lucas Tolimán	7	Julio	2023-07-20T00:00:00	2024-11-08T04:00:00	1	Precipitación	0
136664	7	Sololá	713	San Lucas Tolimán	10	San Lucas Tolimán	7	Julio	2023-07-20T00:00:00	2024-11-08T04:00:00	8	Radiación solar	0
136665	7	Sololá	713	San Lucas Tolimán	10	San Lucas Tolimán	7	Julio	2023-07-20T00:00:00	2024-11-08T05:00:00	2	Temperatura media	19.9
136666	7	Sololá	713	San Lucas Tolimán	10	San Lucas Tolimán	7	Julio	2023-07-20T00:00:00	2024-11-08T05:00:00	4	Temperatura máxima	20.8
136667	7	Sololá	713	San Lucas Tolimán	10	San Lucas Tolimán	7	Julio	2023-07-20T00:00:00	2024-11-08T05:00:00	3	Temperatura mínima	19.9
136668	7	Sololá	713	San Lucas Tolimán	10	San Lucas Tolimán	7	Julio	2023-07-20T00:00:00	2024-11-08T05:00:00	5	Humedad	73
136669	7	Sololá	713	San Lucas Tolimán	10	San Lucas Tolimán	7	Julio	2023-07-20T00:00:00	2024-11-08T05:00:00	6	Velocidad del viento	3.2
136670	7	Sololá	713	San Lucas Tolimán	10	San Lucas Tolimán	7	Julio	2023-07-20T00:00:00	2024-11-08T05:00:00	7	Dirección del viento	3.22
136671	7	Sololá	713	San Lucas Tolimán	10	San Lucas Tolimán	7	Julio	2023-07-20T00:00:00	2024-11-08T05:00:00	1	Precipitación	0
136672	7	Sololá	713	San Lucas Tolimán	10	San Lucas Tolimán	7	Julio	2023-07-20T00:00:00	2024-11-08T05:00:00	8	Radiación solar	0
136673	7	Sololá	713	San Lucas Tolimán	10	San Lucas Tolimán	7	Julio	2023-07-20T00:00:00	2024-11-08T06:00:00	2	Temperatura media	18.7
136674	7	Sololá	713	San Lucas Tolimán	10	San Lucas Tolimán	7	Julio	2023-07-20T00:00:00	2024-11-08T06:00:00	4	Temperatura máxima	19.9
136675	7	Sololá	713	San Lucas Tolimán	10	San Lucas Tolimán	7	Julio	2023-07-20T00:00:00	2024-11-08T06:00:00	3	Temperatura mínima	18.7
136676	7	Sololá	713	San Lucas Tolimán	10	San Lucas Tolimán	7	Julio	2023-07-20T00:00:00	2024-11-08T06:00:00	5	Humedad	77
136677	7	Sololá	713	San Lucas Tolimán	10	San Lucas Tolimán	7	Julio	2023-07-20T00:00:00	2024-11-08T06:00:00	6	Velocidad del viento	1.6
136678	7	Sololá	713	San Lucas Tolimán	10	San Lucas Tolimán	7	Julio	2023-07-20T00:00:00	2024-11-08T06:00:00	7	Dirección del viento	1.61
136679	7	Sololá	713	San Lucas Tolimán	10	San Lucas Tolimán	7	Julio	2023-07-20T00:00:00	2024-11-08T06:00:00	1	Precipitación	0
136680	7	Sololá	713	San Lucas Tolimán	10	San Lucas Tolimán	7	Julio	2023-07-20T00:00:00	2024-11-08T06:00:00	8	Radiación solar	2
136681	7	Sololá	713	San Lucas Tolimán	10	San Lucas Tolimán	7	Julio	2023-07-20T00:00:00	2024-11-08T07:00:00	2	Temperatura media	20.3
136682	7	Sololá	713	San Lucas Tolimán	10	San Lucas Tolimán	7	Julio	2023-07-20T00:00:00	2024-11-08T07:00:00	4	Temperatura máxima	20.3
136683	7	Sololá	713	San Lucas Tolimán	10	San Lucas Tolimán	7	Julio	2023-07-20T00:00:00	2024-11-08T07:00:00	3	Temperatura mínima	18.7
136684	7	Sololá	713	San Lucas Tolimán	10	San Lucas Tolimán	7	Julio	2023-07-20T00:00:00	2024-11-08T07:00:00	5	Humedad	72
136685	7	Sololá	713	San Lucas Tolimán	10	San Lucas Tolimán	7	Julio	2023-07-20T00:00:00	2024-11-08T07:00:00	6	Velocidad del viento	1.6
136686	7	Sololá	713	San Lucas Tolimán	10	San Lucas Tolimán	7	Julio	2023-07-20T00:00:00	2024-11-08T07:00:00	7	Dirección del viento	1.61
136687	7	Sololá	713	San Lucas Tolimán	10	San Lucas Tolimán	7	Julio	2023-07-20T00:00:00	2024-11-08T07:00:00	1	Precipitación	0
136688	7	Sololá	713	San Lucas Tolimán	10	San Lucas Tolimán	7	Julio	2023-07-20T00:00:00	2024-11-08T07:00:00	8	Radiación solar	49
136689	7	Sololá	713	San Lucas Tolimán	10	San Lucas Tolimán	7	Julio	2023-07-20T00:00:00	2024-11-08T08:00:00	2	Temperatura media	22.9
136690	7	Sololá	713	San Lucas Tolimán	10	San Lucas Tolimán	7	Julio	2023-07-20T00:00:00	2024-11-08T08:00:00	4	Temperatura máxima	22.9
136691	7	Sololá	713	San Lucas Tolimán	10	San Lucas Tolimán	7	Julio	2023-07-20T00:00:00	2024-11-08T08:00:00	3	Temperatura mínima	20.3
136692	7	Sololá	713	San Lucas Tolimán	10	San Lucas Tolimán	7	Julio	2023-07-20T00:00:00	2024-11-08T08:00:00	5	Humedad	66
136693	7	Sololá	713	San Lucas Tolimán	10	San Lucas Tolimán	7	Julio	2023-07-20T00:00:00	2024-11-08T08:00:00	6	Velocidad del viento	4.8
136694	7	Sololá	713	San Lucas Tolimán	10	San Lucas Tolimán	7	Julio	2023-07-20T00:00:00	2024-11-08T08:00:00	7	Dirección del viento	4.83
136695	7	Sololá	713	San Lucas Tolimán	10	San Lucas Tolimán	7	Julio	2023-07-20T00:00:00	2024-11-08T08:00:00	1	Precipitación	0
136696	7	Sololá	713	San Lucas Tolimán	10	San Lucas Tolimán	7	Julio	2023-07-20T00:00:00	2024-11-08T08:00:00	8	Radiación solar	225
136697	7	Sololá	713	San Lucas Tolimán	10	San Lucas Tolimán	7	Julio	2023-07-20T00:00:00	2024-11-08T09:00:00	2	Temperatura media	24.3
136698	7	Sololá	713	San Lucas Tolimán	10	San Lucas Tolimán	7	Julio	2023-07-20T00:00:00	2024-11-08T09:00:00	4	Temperatura máxima	24.3
136699	7	Sololá	713	San Lucas Tolimán	10	San Lucas Tolimán	7	Julio	2023-07-20T00:00:00	2024-11-08T09:00:00	3	Temperatura mínima	22.9
136700	7	Sololá	713	San Lucas Tolimán	10	San Lucas Tolimán	7	Julio	2023-07-20T00:00:00	2024-11-08T09:00:00	5	Humedad	61
136701	7	Sololá	713	San Lucas Tolimán	10	San Lucas Tolimán	7	Julio	2023-07-20T00:00:00	2024-11-08T09:00:00	6	Velocidad del viento	4.8
136702	7	Sololá	713	San Lucas Tolimán	10	San Lucas Tolimán	7	Julio	2023-07-20T00:00:00	2024-11-08T09:00:00	7	Dirección del viento	4.83
136703	7	Sololá	713	San Lucas Tolimán	10	San Lucas Tolimán	7	Julio	2023-07-20T00:00:00	2024-11-08T09:00:00	1	Precipitación	0
136704	7	Sololá	713	San Lucas Tolimán	10	San Lucas Tolimán	7	Julio	2023-07-20T00:00:00	2024-11-08T09:00:00	8	Radiación solar	424
136705	7	Sololá	713	San Lucas Tolimán	10	San Lucas Tolimán	7	Julio	2023-07-20T00:00:00	2024-11-08T10:00:00	2	Temperatura media	25.8
136706	7	Sololá	713	San Lucas Tolimán	10	San Lucas Tolimán	7	Julio	2023-07-20T00:00:00	2024-11-08T10:00:00	4	Temperatura máxima	25.9
136707	7	Sololá	713	San Lucas Tolimán	10	San Lucas Tolimán	7	Julio	2023-07-20T00:00:00	2024-11-08T10:00:00	3	Temperatura mínima	24.3
136708	7	Sololá	713	San Lucas Tolimán	10	San Lucas Tolimán	7	Julio	2023-07-20T00:00:00	2024-11-08T10:00:00	5	Humedad	57
136709	7	Sololá	713	San Lucas Tolimán	10	San Lucas Tolimán	7	Julio	2023-07-20T00:00:00	2024-11-08T10:00:00	6	Velocidad del viento	4.8
136710	7	Sololá	713	San Lucas Tolimán	10	San Lucas Tolimán	7	Julio	2023-07-20T00:00:00	2024-11-08T10:00:00	7	Dirección del viento	4.83
136711	7	Sololá	713	San Lucas Tolimán	10	San Lucas Tolimán	7	Julio	2023-07-20T00:00:00	2024-11-08T10:00:00	1	Precipitación	0
136712	7	Sololá	713	San Lucas Tolimán	10	San Lucas Tolimán	7	Julio	2023-07-20T00:00:00	2024-11-08T10:00:00	8	Radiación solar	572
136713	7	Sololá	713	San Lucas Tolimán	10	San Lucas Tolimán	7	Julio	2023-07-20T00:00:00	2024-11-08T11:00:00	2	Temperatura media	26.8
136714	7	Sololá	713	San Lucas Tolimán	10	San Lucas Tolimán	7	Julio	2023-07-20T00:00:00	2024-11-08T11:00:00	4	Temperatura máxima	26.9
136715	7	Sololá	713	San Lucas Tolimán	10	San Lucas Tolimán	7	Julio	2023-07-20T00:00:00	2024-11-08T11:00:00	3	Temperatura mínima	25.8
136716	7	Sololá	713	San Lucas Tolimán	10	San Lucas Tolimán	7	Julio	2023-07-20T00:00:00	2024-11-08T11:00:00	5	Humedad	54
136717	7	Sololá	713	San Lucas Tolimán	10	San Lucas Tolimán	7	Julio	2023-07-20T00:00:00	2024-11-08T11:00:00	6	Velocidad del viento	8
136718	7	Sololá	713	San Lucas Tolimán	10	San Lucas Tolimán	7	Julio	2023-07-20T00:00:00	2024-11-08T11:00:00	7	Dirección del viento	8.05
136719	7	Sololá	713	San Lucas Tolimán	10	San Lucas Tolimán	7	Julio	2023-07-20T00:00:00	2024-11-08T11:00:00	1	Precipitación	0
136720	7	Sololá	713	San Lucas Tolimán	10	San Lucas Tolimán	7	Julio	2023-07-20T00:00:00	2024-11-08T11:00:00	8	Radiación solar	811
136721	7	Sololá	713	San Lucas Tolimán	10	San Lucas Tolimán	7	Julio	2023-07-20T00:00:00	2024-11-08T12:00:00	2	Temperatura media	27.1
136722	7	Sololá	713	San Lucas Tolimán	10	San Lucas Tolimán	7	Julio	2023-07-20T00:00:00	2024-11-08T12:00:00	4	Temperatura máxima	27.3
136723	7	Sololá	713	San Lucas Tolimán	10	San Lucas Tolimán	7	Julio	2023-07-20T00:00:00	2024-11-08T12:00:00	3	Temperatura mínima	26.7
136724	7	Sololá	713	San Lucas Tolimán	10	San Lucas Tolimán	7	Julio	2023-07-20T00:00:00	2024-11-08T12:00:00	5	Humedad	53
136725	7	Sololá	713	San Lucas Tolimán	10	San Lucas Tolimán	7	Julio	2023-07-20T00:00:00	2024-11-08T12:00:00	6	Velocidad del viento	9.7
136726	7	Sololá	713	San Lucas Tolimán	10	San Lucas Tolimán	7	Julio	2023-07-20T00:00:00	2024-11-08T12:00:00	7	Dirección del viento	9.66
136727	7	Sololá	713	San Lucas Tolimán	10	San Lucas Tolimán	7	Julio	2023-07-20T00:00:00	2024-11-08T12:00:00	1	Precipitación	0
136728	7	Sololá	713	San Lucas Tolimán	10	San Lucas Tolimán	7	Julio	2023-07-20T00:00:00	2024-11-08T12:00:00	8	Radiación solar	855
136729	7	Sololá	713	San Lucas Tolimán	10	San Lucas Tolimán	7	Julio	2023-07-20T00:00:00	2024-11-08T13:00:00	2	Temperatura media	27.7
136730	7	Sololá	713	San Lucas Tolimán	10	San Lucas Tolimán	7	Julio	2023-07-20T00:00:00	2024-11-08T13:00:00	4	Temperatura máxima	27.8
136731	7	Sololá	713	San Lucas Tolimán	10	San Lucas Tolimán	7	Julio	2023-07-20T00:00:00	2024-11-08T13:00:00	3	Temperatura mínima	26.8
136732	7	Sololá	713	San Lucas Tolimán	10	San Lucas Tolimán	7	Julio	2023-07-20T00:00:00	2024-11-08T13:00:00	5	Humedad	51
136733	7	Sololá	713	San Lucas Tolimán	10	San Lucas Tolimán	7	Julio	2023-07-20T00:00:00	2024-11-08T13:00:00	6	Velocidad del viento	9.7
136734	7	Sololá	713	San Lucas Tolimán	10	San Lucas Tolimán	7	Julio	2023-07-20T00:00:00	2024-11-08T13:00:00	7	Dirección del viento	9.66
136735	7	Sololá	713	San Lucas Tolimán	10	San Lucas Tolimán	7	Julio	2023-07-20T00:00:00	2024-11-08T13:00:00	1	Precipitación	0
136736	7	Sololá	713	San Lucas Tolimán	10	San Lucas Tolimán	7	Julio	2023-07-20T00:00:00	2024-11-08T13:00:00	8	Radiación solar	780
136737	7	Sololá	713	San Lucas Tolimán	10	San Lucas Tolimán	7	Julio	2023-07-20T00:00:00	2024-11-08T14:00:00	2	Temperatura media	27.8
136738	7	Sololá	713	San Lucas Tolimán	10	San Lucas Tolimán	7	Julio	2023-07-20T00:00:00	2024-11-08T14:00:00	4	Temperatura máxima	28.3
136739	7	Sololá	713	San Lucas Tolimán	10	San Lucas Tolimán	7	Julio	2023-07-20T00:00:00	2024-11-08T14:00:00	3	Temperatura mínima	27.2
136740	7	Sololá	713	San Lucas Tolimán	10	San Lucas Tolimán	7	Julio	2023-07-20T00:00:00	2024-11-08T14:00:00	5	Humedad	68
136741	7	Sololá	713	San Lucas Tolimán	10	San Lucas Tolimán	7	Julio	2023-07-20T00:00:00	2024-11-08T14:00:00	6	Velocidad del viento	8
136742	7	Sololá	713	San Lucas Tolimán	10	San Lucas Tolimán	7	Julio	2023-07-20T00:00:00	2024-11-08T14:00:00	7	Dirección del viento	8.05
136743	7	Sololá	713	San Lucas Tolimán	10	San Lucas Tolimán	7	Julio	2023-07-20T00:00:00	2024-11-08T14:00:00	1	Precipitación	0
136744	7	Sololá	713	San Lucas Tolimán	10	San Lucas Tolimán	7	Julio	2023-07-20T00:00:00	2024-11-08T14:00:00	8	Radiación solar	733
136745	7	Sololá	713	San Lucas Tolimán	10	San Lucas Tolimán	7	Julio	2023-07-20T00:00:00	2024-11-08T15:00:00	2	Temperatura media	26.3
136746	7	Sololá	713	San Lucas Tolimán	10	San Lucas Tolimán	7	Julio	2023-07-20T00:00:00	2024-11-08T15:00:00	4	Temperatura máxima	27.8
136747	7	Sololá	713	San Lucas Tolimán	10	San Lucas Tolimán	7	Julio	2023-07-20T00:00:00	2024-11-08T15:00:00	3	Temperatura mínima	26.2
136748	7	Sololá	713	San Lucas Tolimán	10	San Lucas Tolimán	7	Julio	2023-07-20T00:00:00	2024-11-08T15:00:00	5	Humedad	73
136749	7	Sololá	713	San Lucas Tolimán	10	San Lucas Tolimán	7	Julio	2023-07-20T00:00:00	2024-11-08T15:00:00	6	Velocidad del viento	8
136750	7	Sololá	713	San Lucas Tolimán	10	San Lucas Tolimán	7	Julio	2023-07-20T00:00:00	2024-11-08T15:00:00	7	Dirección del viento	8.05
136751	7	Sololá	713	San Lucas Tolimán	10	San Lucas Tolimán	7	Julio	2023-07-20T00:00:00	2024-11-08T15:00:00	1	Precipitación	0
136752	7	Sololá	713	San Lucas Tolimán	10	San Lucas Tolimán	7	Julio	2023-07-20T00:00:00	2024-11-08T15:00:00	8	Radiación solar	376
136753	7	Sololá	713	San Lucas Tolimán	10	San Lucas Tolimán	7	Julio	2023-07-20T00:00:00	2024-11-08T16:00:00	2	Temperatura media	26.2
136754	7	Sololá	713	San Lucas Tolimán	10	San Lucas Tolimán	7	Julio	2023-07-20T00:00:00	2024-11-08T16:00:00	4	Temperatura máxima	26.3
136755	7	Sololá	713	San Lucas Tolimán	10	San Lucas Tolimán	7	Julio	2023-07-20T00:00:00	2024-11-08T16:00:00	3	Temperatura mínima	25
136756	7	Sololá	713	San Lucas Tolimán	10	San Lucas Tolimán	7	Julio	2023-07-20T00:00:00	2024-11-08T16:00:00	5	Humedad	54
136757	7	Sololá	713	San Lucas Tolimán	10	San Lucas Tolimán	7	Julio	2023-07-20T00:00:00	2024-11-08T16:00:00	6	Velocidad del viento	6.4
136758	7	Sololá	713	San Lucas Tolimán	10	San Lucas Tolimán	7	Julio	2023-07-20T00:00:00	2024-11-08T16:00:00	7	Dirección del viento	6.44
136759	7	Sololá	713	San Lucas Tolimán	10	San Lucas Tolimán	7	Julio	2023-07-20T00:00:00	2024-11-08T16:00:00	1	Precipitación	0
136760	7	Sololá	713	San Lucas Tolimán	10	San Lucas Tolimán	7	Julio	2023-07-20T00:00:00	2024-11-08T16:00:00	8	Radiación solar	215
136761	7	Sololá	713	San Lucas Tolimán	10	San Lucas Tolimán	7	Julio	2023-07-20T00:00:00	2024-11-08T17:00:00	2	Temperatura media	25.7
136762	7	Sololá	713	San Lucas Tolimán	10	San Lucas Tolimán	7	Julio	2023-07-20T00:00:00	2024-11-08T17:00:00	4	Temperatura máxima	26.7
136763	7	Sololá	713	San Lucas Tolimán	10	San Lucas Tolimán	7	Julio	2023-07-20T00:00:00	2024-11-08T17:00:00	3	Temperatura mínima	24.5
136764	7	Sololá	713	San Lucas Tolimán	10	San Lucas Tolimán	7	Julio	2023-07-20T00:00:00	2024-11-08T17:00:00	5	Humedad	74
136765	7	Sololá	713	San Lucas Tolimán	10	San Lucas Tolimán	7	Julio	2023-07-20T00:00:00	2024-11-08T17:00:00	6	Velocidad del viento	8
136766	7	Sololá	713	San Lucas Tolimán	10	San Lucas Tolimán	7	Julio	2023-07-20T00:00:00	2024-11-08T17:00:00	7	Dirección del viento	8.05
136767	7	Sololá	713	San Lucas Tolimán	10	San Lucas Tolimán	7	Julio	2023-07-20T00:00:00	2024-11-08T17:00:00	1	Precipitación	0
136768	7	Sololá	713	San Lucas Tolimán	10	San Lucas Tolimán	7	Julio	2023-07-20T00:00:00	2024-11-08T17:00:00	8	Radiación solar	116
136769	7	Sololá	713	San Lucas Tolimán	10	San Lucas Tolimán	7	Julio	2023-07-20T00:00:00	2024-11-08T18:00:00	2	Temperatura media	24.4
136770	7	Sololá	713	San Lucas Tolimán	10	San Lucas Tolimán	7	Julio	2023-07-20T00:00:00	2024-11-08T18:00:00	4	Temperatura máxima	26.2
136771	7	Sololá	713	San Lucas Tolimán	10	San Lucas Tolimán	7	Julio	2023-07-20T00:00:00	2024-11-08T18:00:00	3	Temperatura mínima	24.4
136772	7	Sololá	713	San Lucas Tolimán	10	San Lucas Tolimán	7	Julio	2023-07-20T00:00:00	2024-11-08T18:00:00	5	Humedad	78
136773	7	Sololá	713	San Lucas Tolimán	10	San Lucas Tolimán	7	Julio	2023-07-20T00:00:00	2024-11-08T18:00:00	6	Velocidad del viento	3.2
136774	7	Sololá	713	San Lucas Tolimán	10	San Lucas Tolimán	7	Julio	2023-07-20T00:00:00	2024-11-08T18:00:00	7	Dirección del viento	3.22
136775	7	Sololá	713	San Lucas Tolimán	10	San Lucas Tolimán	7	Julio	2023-07-20T00:00:00	2024-11-08T18:00:00	1	Precipitación	0
136776	7	Sololá	713	San Lucas Tolimán	10	San Lucas Tolimán	7	Julio	2023-07-20T00:00:00	2024-11-08T18:00:00	8	Radiación solar	69
136777	7	Sololá	713	San Lucas Tolimán	10	San Lucas Tolimán	7	Julio	2023-07-20T00:00:00	2024-11-08T19:00:00	2	Temperatura media	23.6
136778	7	Sololá	713	San Lucas Tolimán	10	San Lucas Tolimán	7	Julio	2023-07-20T00:00:00	2024-11-08T19:00:00	4	Temperatura máxima	24.4
136779	7	Sololá	713	San Lucas Tolimán	10	San Lucas Tolimán	7	Julio	2023-07-20T00:00:00	2024-11-08T19:00:00	3	Temperatura mínima	23.4
136780	7	Sololá	713	San Lucas Tolimán	10	San Lucas Tolimán	7	Julio	2023-07-20T00:00:00	2024-11-08T19:00:00	5	Humedad	63
136781	7	Sololá	713	San Lucas Tolimán	10	San Lucas Tolimán	7	Julio	2023-07-20T00:00:00	2024-11-08T19:00:00	6	Velocidad del viento	4.8
136782	7	Sololá	713	San Lucas Tolimán	10	San Lucas Tolimán	7	Julio	2023-07-20T00:00:00	2024-11-08T19:00:00	7	Dirección del viento	4.83
136783	7	Sololá	713	San Lucas Tolimán	10	San Lucas Tolimán	7	Julio	2023-07-20T00:00:00	2024-11-08T19:00:00	1	Precipitación	0
136784	7	Sololá	713	San Lucas Tolimán	10	San Lucas Tolimán	7	Julio	2023-07-20T00:00:00	2024-11-08T19:00:00	8	Radiación solar	0
136785	7	Sololá	713	San Lucas Tolimán	10	San Lucas Tolimán	7	Julio	2023-07-20T00:00:00	2024-11-08T20:00:00	2	Temperatura media	22.8
136786	7	Sololá	713	San Lucas Tolimán	10	San Lucas Tolimán	7	Julio	2023-07-20T00:00:00	2024-11-08T20:00:00	4	Temperatura máxima	23.6
136787	7	Sololá	713	San Lucas Tolimán	10	San Lucas Tolimán	7	Julio	2023-07-20T00:00:00	2024-11-08T20:00:00	3	Temperatura mínima	22.8
136788	7	Sololá	713	San Lucas Tolimán	10	San Lucas Tolimán	7	Julio	2023-07-20T00:00:00	2024-11-08T20:00:00	5	Humedad	67
136789	7	Sololá	713	San Lucas Tolimán	10	San Lucas Tolimán	7	Julio	2023-07-20T00:00:00	2024-11-08T20:00:00	6	Velocidad del viento	4.8
136790	7	Sololá	713	San Lucas Tolimán	10	San Lucas Tolimán	7	Julio	2023-07-20T00:00:00	2024-11-08T20:00:00	7	Dirección del viento	4.83
136791	7	Sololá	713	San Lucas Tolimán	10	San Lucas Tolimán	7	Julio	2023-07-20T00:00:00	2024-11-08T20:00:00	1	Precipitación	0
136792	7	Sololá	713	San Lucas Tolimán	10	San Lucas Tolimán	7	Julio	2023-07-20T00:00:00	2024-11-08T20:00:00	8	Radiación solar	0
136793	7	Sololá	713	San Lucas Tolimán	10	San Lucas Tolimán	7	Julio	2023-07-20T00:00:00	2024-11-08T21:00:00	2	Temperatura media	22.2
136794	7	Sololá	713	San Lucas Tolimán	10	San Lucas Tolimán	7	Julio	2023-07-20T00:00:00	2024-11-08T21:00:00	4	Temperatura máxima	22.8
136795	7	Sololá	713	San Lucas Tolimán	10	San Lucas Tolimán	7	Julio	2023-07-20T00:00:00	2024-11-08T21:00:00	3	Temperatura mínima	22.2
136796	7	Sololá	713	San Lucas Tolimán	10	San Lucas Tolimán	7	Julio	2023-07-20T00:00:00	2024-11-08T21:00:00	5	Humedad	67
136797	7	Sololá	713	San Lucas Tolimán	10	San Lucas Tolimán	7	Julio	2023-07-20T00:00:00	2024-11-08T21:00:00	6	Velocidad del viento	4.8
136798	7	Sololá	713	San Lucas Tolimán	10	San Lucas Tolimán	7	Julio	2023-07-20T00:00:00	2024-11-08T21:00:00	7	Dirección del viento	4.83
136799	7	Sololá	713	San Lucas Tolimán	10	San Lucas Tolimán	7	Julio	2023-07-20T00:00:00	2024-11-08T21:00:00	1	Precipitación	0
136800	7	Sololá	713	San Lucas Tolimán	10	San Lucas Tolimán	7	Julio	2023-07-20T00:00:00	2024-11-08T21:00:00	8	Radiación solar	0
136801	7	Sololá	713	San Lucas Tolimán	10	San Lucas Tolimán	7	Julio	2023-07-20T00:00:00	2024-11-08T22:00:00	2	Temperatura media	21.9
136802	7	Sololá	713	San Lucas Tolimán	10	San Lucas Tolimán	7	Julio	2023-07-20T00:00:00	2024-11-08T22:00:00	4	Temperatura máxima	22.2
136803	7	Sololá	713	San Lucas Tolimán	10	San Lucas Tolimán	7	Julio	2023-07-20T00:00:00	2024-11-08T22:00:00	3	Temperatura mínima	21.9
136804	7	Sololá	713	San Lucas Tolimán	10	San Lucas Tolimán	7	Julio	2023-07-20T00:00:00	2024-11-08T22:00:00	5	Humedad	69
136805	7	Sololá	713	San Lucas Tolimán	10	San Lucas Tolimán	7	Julio	2023-07-20T00:00:00	2024-11-08T22:00:00	6	Velocidad del viento	4.8
136806	7	Sololá	713	San Lucas Tolimán	10	San Lucas Tolimán	7	Julio	2023-07-20T00:00:00	2024-11-08T22:00:00	7	Dirección del viento	4.83
136807	7	Sololá	713	San Lucas Tolimán	10	San Lucas Tolimán	7	Julio	2023-07-20T00:00:00	2024-11-08T22:00:00	1	Precipitación	0
136808	7	Sololá	713	San Lucas Tolimán	10	San Lucas Tolimán	7	Julio	2023-07-20T00:00:00	2024-11-08T22:00:00	8	Radiación solar	0
136809	7	Sololá	713	San Lucas Tolimán	10	San Lucas Tolimán	7	Julio	2023-07-20T00:00:00	2024-11-08T23:00:00	2	Temperatura media	21.7
136810	7	Sololá	713	San Lucas Tolimán	10	San Lucas Tolimán	7	Julio	2023-07-20T00:00:00	2024-11-08T23:00:00	4	Temperatura máxima	21.9
136811	7	Sololá	713	San Lucas Tolimán	10	San Lucas Tolimán	7	Julio	2023-07-20T00:00:00	2024-11-08T23:00:00	3	Temperatura mínima	21.6
136812	7	Sololá	713	San Lucas Tolimán	10	San Lucas Tolimán	7	Julio	2023-07-20T00:00:00	2024-11-08T23:00:00	5	Humedad	68
136813	7	Sololá	713	San Lucas Tolimán	10	San Lucas Tolimán	7	Julio	2023-07-20T00:00:00	2024-11-08T23:00:00	6	Velocidad del viento	3.2
136814	7	Sololá	713	San Lucas Tolimán	10	San Lucas Tolimán	7	Julio	2023-07-20T00:00:00	2024-11-08T23:00:00	7	Dirección del viento	3.22
136815	7	Sololá	713	San Lucas Tolimán	10	San Lucas Tolimán	7	Julio	2023-07-20T00:00:00	2024-11-08T23:00:00	1	Precipitación	0
136816	7	Sololá	713	San Lucas Tolimán	10	San Lucas Tolimán	7	Julio	2023-07-20T00:00:00	2024-11-08T23:00:00	8	Radiación solar	0
136817	7	Sololá	713	San Lucas Tolimán	10	San Lucas Tolimán	7	Julio	2023-07-21T00:00:00	2024-11-08T00:00:00	2	Temperatura media	20.9
136818	7	Sololá	713	San Lucas Tolimán	10	San Lucas Tolimán	7	Julio	2023-07-21T00:00:00	2024-11-08T00:00:00	4	Temperatura máxima	21.7
136819	7	Sololá	713	San Lucas Tolimán	10	San Lucas Tolimán	7	Julio	2023-07-21T00:00:00	2024-11-08T00:00:00	3	Temperatura mínima	20.9
136820	7	Sololá	713	San Lucas Tolimán	10	San Lucas Tolimán	7	Julio	2023-07-21T00:00:00	2024-11-08T00:00:00	5	Humedad	69
136821	7	Sololá	713	San Lucas Tolimán	10	San Lucas Tolimán	7	Julio	2023-07-21T00:00:00	2024-11-08T00:00:00	6	Velocidad del viento	3.2
136822	7	Sololá	713	San Lucas Tolimán	10	San Lucas Tolimán	7	Julio	2023-07-21T00:00:00	2024-11-08T00:00:00	7	Dirección del viento	3.22
136823	7	Sololá	713	San Lucas Tolimán	10	San Lucas Tolimán	7	Julio	2023-07-21T00:00:00	2024-11-08T00:00:00	1	Precipitación	0
136824	7	Sololá	713	San Lucas Tolimán	10	San Lucas Tolimán	7	Julio	2023-07-21T00:00:00	2024-11-08T00:00:00	8	Radiación solar	0
136825	7	Sololá	713	San Lucas Tolimán	10	San Lucas Tolimán	7	Julio	2023-07-21T00:00:00	2024-11-08T01:00:00	2	Temperatura media	20.4
136826	7	Sololá	713	San Lucas Tolimán	10	San Lucas Tolimán	7	Julio	2023-07-21T00:00:00	2024-11-08T01:00:00	4	Temperatura máxima	21
136827	7	Sololá	713	San Lucas Tolimán	10	San Lucas Tolimán	7	Julio	2023-07-21T00:00:00	2024-11-08T01:00:00	3	Temperatura mínima	20.3
136828	7	Sololá	713	San Lucas Tolimán	10	San Lucas Tolimán	7	Julio	2023-07-21T00:00:00	2024-11-08T01:00:00	5	Humedad	71
136829	7	Sololá	713	San Lucas Tolimán	10	San Lucas Tolimán	7	Julio	2023-07-21T00:00:00	2024-11-08T01:00:00	6	Velocidad del viento	4.8
136830	7	Sololá	713	San Lucas Tolimán	10	San Lucas Tolimán	7	Julio	2023-07-21T00:00:00	2024-11-08T01:00:00	7	Dirección del viento	4.83
136831	7	Sololá	713	San Lucas Tolimán	10	San Lucas Tolimán	7	Julio	2023-07-21T00:00:00	2024-11-08T01:00:00	1	Precipitación	0
136832	7	Sololá	713	San Lucas Tolimán	10	San Lucas Tolimán	7	Julio	2023-07-21T00:00:00	2024-11-08T01:00:00	8	Radiación solar	0
136833	7	Sololá	713	San Lucas Tolimán	10	San Lucas Tolimán	7	Julio	2023-07-21T00:00:00	2024-11-08T02:00:00	2	Temperatura media	19.7
136834	7	Sololá	713	San Lucas Tolimán	10	San Lucas Tolimán	7	Julio	2023-07-21T00:00:00	2024-11-08T02:00:00	4	Temperatura máxima	20.6
136835	7	Sololá	713	San Lucas Tolimán	10	San Lucas Tolimán	7	Julio	2023-07-21T00:00:00	2024-11-08T02:00:00	3	Temperatura mínima	19.7
136836	7	Sololá	713	San Lucas Tolimán	10	San Lucas Tolimán	7	Julio	2023-07-21T00:00:00	2024-11-08T02:00:00	5	Humedad	74
136837	7	Sololá	713	San Lucas Tolimán	10	San Lucas Tolimán	7	Julio	2023-07-21T00:00:00	2024-11-08T02:00:00	6	Velocidad del viento	1.6
136838	7	Sololá	713	San Lucas Tolimán	10	San Lucas Tolimán	7	Julio	2023-07-21T00:00:00	2024-11-08T02:00:00	7	Dirección del viento	1.61
136839	7	Sololá	713	San Lucas Tolimán	10	San Lucas Tolimán	7	Julio	2023-07-21T00:00:00	2024-11-08T02:00:00	1	Precipitación	0
136840	7	Sololá	713	San Lucas Tolimán	10	San Lucas Tolimán	7	Julio	2023-07-21T00:00:00	2024-11-08T02:00:00	8	Radiación solar	0
136841	7	Sololá	713	San Lucas Tolimán	10	San Lucas Tolimán	7	Julio	2023-07-21T00:00:00	2024-11-08T03:00:00	2	Temperatura media	18.8
136842	7	Sololá	713	San Lucas Tolimán	10	San Lucas Tolimán	7	Julio	2023-07-21T00:00:00	2024-11-08T03:00:00	4	Temperatura máxima	19.7
136843	7	Sololá	713	San Lucas Tolimán	10	San Lucas Tolimán	7	Julio	2023-07-21T00:00:00	2024-11-08T03:00:00	3	Temperatura mínima	18.8
136844	7	Sololá	713	San Lucas Tolimán	10	San Lucas Tolimán	7	Julio	2023-07-21T00:00:00	2024-11-08T03:00:00	5	Humedad	77
136845	7	Sololá	713	San Lucas Tolimán	10	San Lucas Tolimán	7	Julio	2023-07-21T00:00:00	2024-11-08T03:00:00	6	Velocidad del viento	0
136846	7	Sololá	713	San Lucas Tolimán	10	San Lucas Tolimán	7	Julio	2023-07-21T00:00:00	2024-11-08T03:00:00	7	Dirección del viento	0
136847	7	Sololá	713	San Lucas Tolimán	10	San Lucas Tolimán	7	Julio	2023-07-21T00:00:00	2024-11-08T03:00:00	1	Precipitación	0
136848	7	Sololá	713	San Lucas Tolimán	10	San Lucas Tolimán	7	Julio	2023-07-21T00:00:00	2024-11-08T03:00:00	8	Radiación solar	0
136849	7	Sololá	713	San Lucas Tolimán	10	San Lucas Tolimán	7	Julio	2023-07-21T00:00:00	2024-11-08T04:00:00	2	Temperatura media	18.4
136850	7	Sololá	713	San Lucas Tolimán	10	San Lucas Tolimán	7	Julio	2023-07-21T00:00:00	2024-11-08T04:00:00	4	Temperatura máxima	18.8
136851	7	Sololá	713	San Lucas Tolimán	10	San Lucas Tolimán	7	Julio	2023-07-21T00:00:00	2024-11-08T04:00:00	3	Temperatura mínima	18.3
136852	7	Sololá	713	San Lucas Tolimán	10	San Lucas Tolimán	7	Julio	2023-07-21T00:00:00	2024-11-08T04:00:00	5	Humedad	78
136853	7	Sololá	713	San Lucas Tolimán	10	San Lucas Tolimán	7	Julio	2023-07-21T00:00:00	2024-11-08T04:00:00	6	Velocidad del viento	1.6
136854	7	Sololá	713	San Lucas Tolimán	10	San Lucas Tolimán	7	Julio	2023-07-21T00:00:00	2024-11-08T04:00:00	7	Dirección del viento	1.61
136855	7	Sololá	713	San Lucas Tolimán	10	San Lucas Tolimán	7	Julio	2023-07-21T00:00:00	2024-11-08T04:00:00	1	Precipitación	0
136856	7	Sololá	713	San Lucas Tolimán	10	San Lucas Tolimán	7	Julio	2023-07-21T00:00:00	2024-11-08T04:00:00	8	Radiación solar	0
136857	7	Sololá	713	San Lucas Tolimán	10	San Lucas Tolimán	7	Julio	2023-07-21T00:00:00	2024-11-08T05:00:00	2	Temperatura media	20.1
136858	7	Sololá	713	San Lucas Tolimán	10	San Lucas Tolimán	7	Julio	2023-07-21T00:00:00	2024-11-08T05:00:00	4	Temperatura máxima	20.7
136859	7	Sololá	713	San Lucas Tolimán	10	San Lucas Tolimán	7	Julio	2023-07-21T00:00:00	2024-11-08T05:00:00	3	Temperatura mínima	18.4
136860	7	Sololá	713	San Lucas Tolimán	10	San Lucas Tolimán	7	Julio	2023-07-21T00:00:00	2024-11-08T05:00:00	5	Humedad	72
136861	7	Sololá	713	San Lucas Tolimán	10	San Lucas Tolimán	7	Julio	2023-07-21T00:00:00	2024-11-08T05:00:00	6	Velocidad del viento	8
136862	7	Sololá	713	San Lucas Tolimán	10	San Lucas Tolimán	7	Julio	2023-07-21T00:00:00	2024-11-08T05:00:00	7	Dirección del viento	8.05
136863	7	Sololá	713	San Lucas Tolimán	10	San Lucas Tolimán	7	Julio	2023-07-21T00:00:00	2024-11-08T05:00:00	1	Precipitación	0
136864	7	Sololá	713	San Lucas Tolimán	10	San Lucas Tolimán	7	Julio	2023-07-21T00:00:00	2024-11-08T05:00:00	8	Radiación solar	0
136865	7	Sololá	713	San Lucas Tolimán	10	San Lucas Tolimán	7	Julio	2023-07-21T00:00:00	2024-11-08T06:00:00	2	Temperatura media	19.9
136866	7	Sololá	713	San Lucas Tolimán	10	San Lucas Tolimán	7	Julio	2023-07-21T00:00:00	2024-11-08T06:00:00	4	Temperatura máxima	20.4
136867	7	Sololá	713	San Lucas Tolimán	10	San Lucas Tolimán	7	Julio	2023-07-21T00:00:00	2024-11-08T06:00:00	3	Temperatura mínima	19.9
136868	7	Sololá	713	San Lucas Tolimán	10	San Lucas Tolimán	7	Julio	2023-07-21T00:00:00	2024-11-08T06:00:00	5	Humedad	72
136869	7	Sololá	713	San Lucas Tolimán	10	San Lucas Tolimán	7	Julio	2023-07-21T00:00:00	2024-11-08T06:00:00	6	Velocidad del viento	3.2
136870	7	Sololá	713	San Lucas Tolimán	10	San Lucas Tolimán	7	Julio	2023-07-21T00:00:00	2024-11-08T06:00:00	7	Dirección del viento	3.22
136871	7	Sololá	713	San Lucas Tolimán	10	San Lucas Tolimán	7	Julio	2023-07-21T00:00:00	2024-11-08T06:00:00	1	Precipitación	0
136872	7	Sololá	713	San Lucas Tolimán	10	San Lucas Tolimán	7	Julio	2023-07-21T00:00:00	2024-11-08T06:00:00	8	Radiación solar	1
136873	7	Sololá	713	San Lucas Tolimán	10	San Lucas Tolimán	7	Julio	2023-07-21T00:00:00	2024-11-08T07:00:00	2	Temperatura media	20.1
136874	7	Sololá	713	San Lucas Tolimán	10	San Lucas Tolimán	7	Julio	2023-07-21T00:00:00	2024-11-08T07:00:00	4	Temperatura máxima	20.1
136875	7	Sololá	713	San Lucas Tolimán	10	San Lucas Tolimán	7	Julio	2023-07-21T00:00:00	2024-11-08T07:00:00	3	Temperatura mínima	19.4
136876	7	Sololá	713	San Lucas Tolimán	10	San Lucas Tolimán	7	Julio	2023-07-21T00:00:00	2024-11-08T07:00:00	5	Humedad	75
136877	7	Sololá	713	San Lucas Tolimán	10	San Lucas Tolimán	7	Julio	2023-07-21T00:00:00	2024-11-08T07:00:00	6	Velocidad del viento	1.6
136878	7	Sololá	713	San Lucas Tolimán	10	San Lucas Tolimán	7	Julio	2023-07-21T00:00:00	2024-11-08T07:00:00	7	Dirección del viento	1.61
136879	7	Sololá	713	San Lucas Tolimán	10	San Lucas Tolimán	7	Julio	2023-07-21T00:00:00	2024-11-08T07:00:00	1	Precipitación	0
136880	7	Sololá	713	San Lucas Tolimán	10	San Lucas Tolimán	7	Julio	2023-07-21T00:00:00	2024-11-08T07:00:00	8	Radiación solar	55
136881	7	Sololá	713	San Lucas Tolimán	10	San Lucas Tolimán	7	Julio	2023-07-21T00:00:00	2024-11-08T08:00:00	2	Temperatura media	23.8
136882	7	Sololá	713	San Lucas Tolimán	10	San Lucas Tolimán	7	Julio	2023-07-21T00:00:00	2024-11-08T08:00:00	4	Temperatura máxima	23.8
136883	7	Sololá	713	San Lucas Tolimán	10	San Lucas Tolimán	7	Julio	2023-07-21T00:00:00	2024-11-08T08:00:00	3	Temperatura mínima	20.1
136884	7	Sololá	713	San Lucas Tolimán	10	San Lucas Tolimán	7	Julio	2023-07-21T00:00:00	2024-11-08T08:00:00	5	Humedad	65
136885	7	Sololá	713	San Lucas Tolimán	10	San Lucas Tolimán	7	Julio	2023-07-21T00:00:00	2024-11-08T08:00:00	6	Velocidad del viento	3.2
136886	7	Sololá	713	San Lucas Tolimán	10	San Lucas Tolimán	7	Julio	2023-07-21T00:00:00	2024-11-08T08:00:00	7	Dirección del viento	3.22
136887	7	Sololá	713	San Lucas Tolimán	10	San Lucas Tolimán	7	Julio	2023-07-21T00:00:00	2024-11-08T08:00:00	1	Precipitación	0
136888	7	Sololá	713	San Lucas Tolimán	10	San Lucas Tolimán	7	Julio	2023-07-21T00:00:00	2024-11-08T08:00:00	8	Radiación solar	192
136889	7	Sololá	713	San Lucas Tolimán	10	San Lucas Tolimán	7	Julio	2023-07-21T00:00:00	2024-11-08T09:00:00	2	Temperatura media	25.3
136890	7	Sololá	713	San Lucas Tolimán	10	San Lucas Tolimán	7	Julio	2023-07-21T00:00:00	2024-11-08T09:00:00	4	Temperatura máxima	25.3
136891	7	Sololá	713	San Lucas Tolimán	10	San Lucas Tolimán	7	Julio	2023-07-21T00:00:00	2024-11-08T09:00:00	3	Temperatura mínima	23.8
136892	7	Sololá	713	San Lucas Tolimán	10	San Lucas Tolimán	7	Julio	2023-07-21T00:00:00	2024-11-08T09:00:00	5	Humedad	59
136893	7	Sololá	713	San Lucas Tolimán	10	San Lucas Tolimán	7	Julio	2023-07-21T00:00:00	2024-11-08T09:00:00	6	Velocidad del viento	3.2
136894	7	Sololá	713	San Lucas Tolimán	10	San Lucas Tolimán	7	Julio	2023-07-21T00:00:00	2024-11-08T09:00:00	7	Dirección del viento	3.22
136895	7	Sololá	713	San Lucas Tolimán	10	San Lucas Tolimán	7	Julio	2023-07-21T00:00:00	2024-11-08T09:00:00	1	Precipitación	0
136896	7	Sololá	713	San Lucas Tolimán	10	San Lucas Tolimán	7	Julio	2023-07-21T00:00:00	2024-11-08T09:00:00	8	Radiación solar	420
136897	7	Sololá	713	San Lucas Tolimán	10	San Lucas Tolimán	7	Julio	2023-07-21T00:00:00	2024-11-08T10:00:00	2	Temperatura media	25.9
136898	7	Sololá	713	San Lucas Tolimán	10	San Lucas Tolimán	7	Julio	2023-07-21T00:00:00	2024-11-08T10:00:00	4	Temperatura máxima	26.2
136899	7	Sololá	713	San Lucas Tolimán	10	San Lucas Tolimán	7	Julio	2023-07-21T00:00:00	2024-11-08T10:00:00	3	Temperatura mínima	24.9
136900	7	Sololá	713	San Lucas Tolimán	10	San Lucas Tolimán	7	Julio	2023-07-21T00:00:00	2024-11-08T10:00:00	5	Humedad	55
136901	7	Sololá	713	San Lucas Tolimán	10	San Lucas Tolimán	7	Julio	2023-07-21T00:00:00	2024-11-08T10:00:00	6	Velocidad del viento	4.8
136902	7	Sololá	713	San Lucas Tolimán	10	San Lucas Tolimán	7	Julio	2023-07-21T00:00:00	2024-11-08T10:00:00	7	Dirección del viento	4.83
136903	7	Sololá	713	San Lucas Tolimán	10	San Lucas Tolimán	7	Julio	2023-07-21T00:00:00	2024-11-08T10:00:00	1	Precipitación	0
136904	7	Sololá	713	San Lucas Tolimán	10	San Lucas Tolimán	7	Julio	2023-07-21T00:00:00	2024-11-08T10:00:00	8	Radiación solar	270
136905	7	Sololá	713	San Lucas Tolimán	10	San Lucas Tolimán	7	Julio	2023-07-21T00:00:00	2024-11-08T11:00:00	2	Temperatura media	27.6
136906	7	Sololá	713	San Lucas Tolimán	10	San Lucas Tolimán	7	Julio	2023-07-21T00:00:00	2024-11-08T11:00:00	4	Temperatura máxima	27.6
136907	7	Sololá	713	San Lucas Tolimán	10	San Lucas Tolimán	7	Julio	2023-07-21T00:00:00	2024-11-08T11:00:00	3	Temperatura mínima	26
136908	7	Sololá	713	San Lucas Tolimán	10	San Lucas Tolimán	7	Julio	2023-07-21T00:00:00	2024-11-08T11:00:00	5	Humedad	48
136909	7	Sololá	713	San Lucas Tolimán	10	San Lucas Tolimán	7	Julio	2023-07-21T00:00:00	2024-11-08T11:00:00	6	Velocidad del viento	4.8
136910	7	Sololá	713	San Lucas Tolimán	10	San Lucas Tolimán	7	Julio	2023-07-21T00:00:00	2024-11-08T11:00:00	7	Dirección del viento	4.83
136911	7	Sololá	713	San Lucas Tolimán	10	San Lucas Tolimán	7	Julio	2023-07-21T00:00:00	2024-11-08T11:00:00	1	Precipitación	0
136912	7	Sololá	713	San Lucas Tolimán	10	San Lucas Tolimán	7	Julio	2023-07-21T00:00:00	2024-11-08T11:00:00	8	Radiación solar	371
136913	7	Sololá	713	San Lucas Tolimán	10	San Lucas Tolimán	7	Julio	2023-07-21T00:00:00	2024-11-08T12:00:00	2	Temperatura media	27.2
136914	7	Sololá	713	San Lucas Tolimán	10	San Lucas Tolimán	7	Julio	2023-07-21T00:00:00	2024-11-08T12:00:00	4	Temperatura máxima	28.4
136915	7	Sololá	713	San Lucas Tolimán	10	San Lucas Tolimán	7	Julio	2023-07-21T00:00:00	2024-11-08T12:00:00	3	Temperatura mínima	27.2
136916	7	Sololá	713	San Lucas Tolimán	10	San Lucas Tolimán	7	Julio	2023-07-21T00:00:00	2024-11-08T12:00:00	5	Humedad	70
136917	7	Sololá	713	San Lucas Tolimán	10	San Lucas Tolimán	7	Julio	2023-07-21T00:00:00	2024-11-08T12:00:00	6	Velocidad del viento	8
136918	7	Sololá	713	San Lucas Tolimán	10	San Lucas Tolimán	7	Julio	2023-07-21T00:00:00	2024-11-08T12:00:00	7	Dirección del viento	8.05
136919	7	Sololá	713	San Lucas Tolimán	10	San Lucas Tolimán	7	Julio	2023-07-21T00:00:00	2024-11-08T12:00:00	1	Precipitación	0
136920	7	Sololá	713	San Lucas Tolimán	10	San Lucas Tolimán	7	Julio	2023-07-21T00:00:00	2024-11-08T12:00:00	8	Radiación solar	992
136921	7	Sololá	713	San Lucas Tolimán	10	San Lucas Tolimán	7	Julio	2023-07-21T00:00:00	2024-11-08T13:00:00	2	Temperatura media	27.1
136922	7	Sololá	713	San Lucas Tolimán	10	San Lucas Tolimán	7	Julio	2023-07-21T00:00:00	2024-11-08T13:00:00	4	Temperatura máxima	27.2
136923	7	Sololá	713	San Lucas Tolimán	10	San Lucas Tolimán	7	Julio	2023-07-21T00:00:00	2024-11-08T13:00:00	3	Temperatura mínima	26.7
136924	7	Sololá	713	San Lucas Tolimán	10	San Lucas Tolimán	7	Julio	2023-07-21T00:00:00	2024-11-08T13:00:00	5	Humedad	71
136925	7	Sololá	713	San Lucas Tolimán	10	San Lucas Tolimán	7	Julio	2023-07-21T00:00:00	2024-11-08T13:00:00	6	Velocidad del viento	11.3
136926	7	Sololá	713	San Lucas Tolimán	10	San Lucas Tolimán	7	Julio	2023-07-21T00:00:00	2024-11-08T13:00:00	7	Dirección del viento	11.27
136927	7	Sololá	713	San Lucas Tolimán	10	San Lucas Tolimán	7	Julio	2023-07-21T00:00:00	2024-11-08T13:00:00	1	Precipitación	0
136928	7	Sololá	713	San Lucas Tolimán	10	San Lucas Tolimán	7	Julio	2023-07-21T00:00:00	2024-11-08T13:00:00	8	Radiación solar	937
136929	7	Sololá	713	San Lucas Tolimán	10	San Lucas Tolimán	7	Julio	2023-07-21T00:00:00	2024-11-08T14:00:00	2	Temperatura media	26.8
136930	7	Sololá	713	San Lucas Tolimán	10	San Lucas Tolimán	7	Julio	2023-07-21T00:00:00	2024-11-08T14:00:00	4	Temperatura máxima	27.3
136931	7	Sololá	713	San Lucas Tolimán	10	San Lucas Tolimán	7	Julio	2023-07-21T00:00:00	2024-11-08T14:00:00	3	Temperatura mínima	26.6
136932	7	Sololá	713	San Lucas Tolimán	10	San Lucas Tolimán	7	Julio	2023-07-21T00:00:00	2024-11-08T14:00:00	5	Humedad	73
136933	7	Sololá	713	San Lucas Tolimán	10	San Lucas Tolimán	7	Julio	2023-07-21T00:00:00	2024-11-08T14:00:00	6	Velocidad del viento	11.3
136934	7	Sololá	713	San Lucas Tolimán	10	San Lucas Tolimán	7	Julio	2023-07-21T00:00:00	2024-11-08T14:00:00	7	Dirección del viento	11.27
136935	7	Sololá	713	San Lucas Tolimán	10	San Lucas Tolimán	7	Julio	2023-07-21T00:00:00	2024-11-08T14:00:00	1	Precipitación	0
136936	7	Sololá	713	San Lucas Tolimán	10	San Lucas Tolimán	7	Julio	2023-07-21T00:00:00	2024-11-08T14:00:00	8	Radiación solar	784
136937	7	Sololá	713	San Lucas Tolimán	10	San Lucas Tolimán	7	Julio	2023-07-21T00:00:00	2024-11-08T15:00:00	2	Temperatura media	25.6
136938	7	Sololá	713	San Lucas Tolimán	10	San Lucas Tolimán	7	Julio	2023-07-21T00:00:00	2024-11-08T15:00:00	4	Temperatura máxima	27
136939	7	Sololá	713	San Lucas Tolimán	10	San Lucas Tolimán	7	Julio	2023-07-21T00:00:00	2024-11-08T15:00:00	3	Temperatura mínima	25.6
136940	7	Sololá	713	San Lucas Tolimán	10	San Lucas Tolimán	7	Julio	2023-07-21T00:00:00	2024-11-08T15:00:00	5	Humedad	75
136941	7	Sololá	713	San Lucas Tolimán	10	San Lucas Tolimán	7	Julio	2023-07-21T00:00:00	2024-11-08T15:00:00	6	Velocidad del viento	12.9
136942	7	Sololá	713	San Lucas Tolimán	10	San Lucas Tolimán	7	Julio	2023-07-21T00:00:00	2024-11-08T15:00:00	7	Dirección del viento	12.87
136943	7	Sololá	713	San Lucas Tolimán	10	San Lucas Tolimán	7	Julio	2023-07-21T00:00:00	2024-11-08T15:00:00	1	Precipitación	0
136944	7	Sololá	713	San Lucas Tolimán	10	San Lucas Tolimán	7	Julio	2023-07-21T00:00:00	2024-11-08T15:00:00	8	Radiación solar	306
136945	7	Sololá	713	San Lucas Tolimán	10	San Lucas Tolimán	7	Julio	2023-07-21T00:00:00	2024-11-08T16:00:00	2	Temperatura media	24.5
136946	7	Sololá	713	San Lucas Tolimán	10	San Lucas Tolimán	7	Julio	2023-07-21T00:00:00	2024-11-08T16:00:00	4	Temperatura máxima	26.1
136947	7	Sololá	713	San Lucas Tolimán	10	San Lucas Tolimán	7	Julio	2023-07-21T00:00:00	2024-11-08T16:00:00	3	Temperatura mínima	24.5
136948	7	Sololá	713	San Lucas Tolimán	10	San Lucas Tolimán	7	Julio	2023-07-21T00:00:00	2024-11-08T16:00:00	5	Humedad	80
136949	7	Sololá	713	San Lucas Tolimán	10	San Lucas Tolimán	7	Julio	2023-07-21T00:00:00	2024-11-08T16:00:00	6	Velocidad del viento	11.3
136950	7	Sololá	713	San Lucas Tolimán	10	San Lucas Tolimán	7	Julio	2023-07-21T00:00:00	2024-11-08T16:00:00	7	Dirección del viento	11.27
136951	7	Sololá	713	San Lucas Tolimán	10	San Lucas Tolimán	7	Julio	2023-07-21T00:00:00	2024-11-08T16:00:00	1	Precipitación	0
136952	7	Sololá	713	San Lucas Tolimán	10	San Lucas Tolimán	7	Julio	2023-07-21T00:00:00	2024-11-08T16:00:00	8	Radiación solar	68
136953	7	Sololá	713	San Lucas Tolimán	10	San Lucas Tolimán	7	Julio	2023-07-21T00:00:00	2024-11-08T17:00:00	2	Temperatura media	23.8
136954	7	Sololá	713	San Lucas Tolimán	10	San Lucas Tolimán	7	Julio	2023-07-21T00:00:00	2024-11-08T17:00:00	4	Temperatura máxima	24.5
136955	7	Sololá	713	San Lucas Tolimán	10	San Lucas Tolimán	7	Julio	2023-07-21T00:00:00	2024-11-08T17:00:00	3	Temperatura mínima	23.8
136956	7	Sololá	713	San Lucas Tolimán	10	San Lucas Tolimán	7	Julio	2023-07-21T00:00:00	2024-11-08T17:00:00	5	Humedad	81
136957	7	Sololá	713	San Lucas Tolimán	10	San Lucas Tolimán	7	Julio	2023-07-21T00:00:00	2024-11-08T17:00:00	6	Velocidad del viento	11.3
136958	7	Sololá	713	San Lucas Tolimán	10	San Lucas Tolimán	7	Julio	2023-07-21T00:00:00	2024-11-08T17:00:00	7	Dirección del viento	11.27
136959	7	Sololá	713	San Lucas Tolimán	10	San Lucas Tolimán	7	Julio	2023-07-21T00:00:00	2024-11-08T17:00:00	1	Precipitación	0
136960	7	Sololá	713	San Lucas Tolimán	10	San Lucas Tolimán	7	Julio	2023-07-21T00:00:00	2024-11-08T17:00:00	8	Radiación solar	52
136961	7	Sololá	713	San Lucas Tolimán	10	San Lucas Tolimán	7	Julio	2023-07-21T00:00:00	2024-11-08T18:00:00	2	Temperatura media	22.4
136962	7	Sololá	713	San Lucas Tolimán	10	San Lucas Tolimán	7	Julio	2023-07-21T00:00:00	2024-11-08T18:00:00	4	Temperatura máxima	23.7
136963	7	Sololá	713	San Lucas Tolimán	10	San Lucas Tolimán	7	Julio	2023-07-21T00:00:00	2024-11-08T18:00:00	3	Temperatura mínima	22.4
136964	7	Sololá	713	San Lucas Tolimán	10	San Lucas Tolimán	7	Julio	2023-07-21T00:00:00	2024-11-08T18:00:00	5	Humedad	85
136965	7	Sololá	713	San Lucas Tolimán	10	San Lucas Tolimán	7	Julio	2023-07-21T00:00:00	2024-11-08T18:00:00	6	Velocidad del viento	9.7
136966	7	Sololá	713	San Lucas Tolimán	10	San Lucas Tolimán	7	Julio	2023-07-21T00:00:00	2024-11-08T18:00:00	7	Dirección del viento	9.66
136967	7	Sololá	713	San Lucas Tolimán	10	San Lucas Tolimán	7	Julio	2023-07-21T00:00:00	2024-11-08T18:00:00	1	Precipitación	0
136968	7	Sololá	713	San Lucas Tolimán	10	San Lucas Tolimán	7	Julio	2023-07-21T00:00:00	2024-11-08T18:00:00	8	Radiación solar	6
136969	7	Sololá	713	San Lucas Tolimán	10	San Lucas Tolimán	7	Julio	2023-07-21T00:00:00	2024-11-08T19:00:00	2	Temperatura media	21.3
136970	7	Sololá	713	San Lucas Tolimán	10	San Lucas Tolimán	7	Julio	2023-07-21T00:00:00	2024-11-08T19:00:00	4	Temperatura máxima	22.4
136971	7	Sololá	713	San Lucas Tolimán	10	San Lucas Tolimán	7	Julio	2023-07-21T00:00:00	2024-11-08T19:00:00	3	Temperatura mínima	21.2
136972	7	Sololá	713	San Lucas Tolimán	10	San Lucas Tolimán	7	Julio	2023-07-21T00:00:00	2024-11-08T19:00:00	5	Humedad	89
136973	7	Sololá	713	San Lucas Tolimán	10	San Lucas Tolimán	7	Julio	2023-07-21T00:00:00	2024-11-08T19:00:00	6	Velocidad del viento	8
136974	7	Sololá	713	San Lucas Tolimán	10	San Lucas Tolimán	7	Julio	2023-07-21T00:00:00	2024-11-08T19:00:00	7	Dirección del viento	8.05
136975	7	Sololá	713	San Lucas Tolimán	10	San Lucas Tolimán	7	Julio	2023-07-21T00:00:00	2024-11-08T19:00:00	1	Precipitación	0
136976	7	Sololá	713	San Lucas Tolimán	10	San Lucas Tolimán	7	Julio	2023-07-21T00:00:00	2024-11-08T19:00:00	8	Radiación solar	0
136977	7	Sololá	713	San Lucas Tolimán	10	San Lucas Tolimán	7	Julio	2023-07-21T00:00:00	2024-11-08T20:00:00	2	Temperatura media	20.6
136978	7	Sololá	713	San Lucas Tolimán	10	San Lucas Tolimán	7	Julio	2023-07-21T00:00:00	2024-11-08T20:00:00	4	Temperatura máxima	21.3
136979	7	Sololá	713	San Lucas Tolimán	10	San Lucas Tolimán	7	Julio	2023-07-21T00:00:00	2024-11-08T20:00:00	3	Temperatura mínima	20.6
136980	7	Sololá	713	San Lucas Tolimán	10	San Lucas Tolimán	7	Julio	2023-07-21T00:00:00	2024-11-08T20:00:00	5	Humedad	90
136981	7	Sololá	713	San Lucas Tolimán	10	San Lucas Tolimán	7	Julio	2023-07-21T00:00:00	2024-11-08T20:00:00	6	Velocidad del viento	6.4
136982	7	Sololá	713	San Lucas Tolimán	10	San Lucas Tolimán	7	Julio	2023-07-21T00:00:00	2024-11-08T20:00:00	7	Dirección del viento	6.44
136983	7	Sololá	713	San Lucas Tolimán	10	San Lucas Tolimán	7	Julio	2023-07-21T00:00:00	2024-11-08T20:00:00	1	Precipitación	0
136984	7	Sololá	713	San Lucas Tolimán	10	San Lucas Tolimán	7	Julio	2023-07-21T00:00:00	2024-11-08T20:00:00	8	Radiación solar	0
136985	7	Sololá	713	San Lucas Tolimán	10	San Lucas Tolimán	7	Julio	2023-07-21T00:00:00	2024-11-08T21:00:00	2	Temperatura media	20.3
136986	7	Sololá	713	San Lucas Tolimán	10	San Lucas Tolimán	7	Julio	2023-07-21T00:00:00	2024-11-08T21:00:00	4	Temperatura máxima	20.7
136987	7	Sololá	713	San Lucas Tolimán	10	San Lucas Tolimán	7	Julio	2023-07-21T00:00:00	2024-11-08T21:00:00	3	Temperatura mínima	20.2
136988	7	Sololá	713	San Lucas Tolimán	10	San Lucas Tolimán	7	Julio	2023-07-21T00:00:00	2024-11-08T21:00:00	5	Humedad	90
136989	7	Sololá	713	San Lucas Tolimán	10	San Lucas Tolimán	7	Julio	2023-07-21T00:00:00	2024-11-08T21:00:00	6	Velocidad del viento	3.2
136990	7	Sololá	713	San Lucas Tolimán	10	San Lucas Tolimán	7	Julio	2023-07-21T00:00:00	2024-11-08T21:00:00	7	Dirección del viento	3.22
136991	7	Sololá	713	San Lucas Tolimán	10	San Lucas Tolimán	7	Julio	2023-07-21T00:00:00	2024-11-08T21:00:00	1	Precipitación	0
136992	7	Sololá	713	San Lucas Tolimán	10	San Lucas Tolimán	7	Julio	2023-07-21T00:00:00	2024-11-08T21:00:00	8	Radiación solar	0
136993	7	Sololá	713	San Lucas Tolimán	10	San Lucas Tolimán	7	Julio	2023-07-21T00:00:00	2024-11-08T22:00:00	2	Temperatura media	19.8
136994	7	Sololá	713	San Lucas Tolimán	10	San Lucas Tolimán	7	Julio	2023-07-21T00:00:00	2024-11-08T22:00:00	4	Temperatura máxima	20.3
136995	7	Sololá	713	San Lucas Tolimán	10	San Lucas Tolimán	7	Julio	2023-07-21T00:00:00	2024-11-08T22:00:00	3	Temperatura mínima	19.8
136996	7	Sololá	713	San Lucas Tolimán	10	San Lucas Tolimán	7	Julio	2023-07-21T00:00:00	2024-11-08T22:00:00	5	Humedad	85
136997	7	Sololá	713	San Lucas Tolimán	10	San Lucas Tolimán	7	Julio	2023-07-21T00:00:00	2024-11-08T22:00:00	6	Velocidad del viento	1.6
136998	7	Sololá	713	San Lucas Tolimán	10	San Lucas Tolimán	7	Julio	2023-07-21T00:00:00	2024-11-08T22:00:00	7	Dirección del viento	1.61
136999	7	Sololá	713	San Lucas Tolimán	10	San Lucas Tolimán	7	Julio	2023-07-21T00:00:00	2024-11-08T22:00:00	1	Precipitación	0
137000	7	Sololá	713	San Lucas Tolimán	10	San Lucas Tolimán	7	Julio	2023-07-21T00:00:00	2024-11-08T22:00:00	8	Radiación solar	0
137001	7	Sololá	713	San Lucas Tolimán	10	San Lucas Tolimán	7	Julio	2023-07-21T00:00:00	2024-11-08T23:00:00	2	Temperatura media	21.9
137002	7	Sololá	713	San Lucas Tolimán	10	San Lucas Tolimán	7	Julio	2023-07-21T00:00:00	2024-11-08T23:00:00	4	Temperatura máxima	21.9
137003	7	Sololá	713	San Lucas Tolimán	10	San Lucas Tolimán	7	Julio	2023-07-21T00:00:00	2024-11-08T23:00:00	3	Temperatura mínima	19.8
137004	7	Sololá	713	San Lucas Tolimán	10	San Lucas Tolimán	7	Julio	2023-07-21T00:00:00	2024-11-08T23:00:00	5	Humedad	72
137005	7	Sololá	713	San Lucas Tolimán	10	San Lucas Tolimán	7	Julio	2023-07-21T00:00:00	2024-11-08T23:00:00	6	Velocidad del viento	4.8
137006	7	Sololá	713	San Lucas Tolimán	10	San Lucas Tolimán	7	Julio	2023-07-21T00:00:00	2024-11-08T23:00:00	7	Dirección del viento	4.83
137007	7	Sololá	713	San Lucas Tolimán	10	San Lucas Tolimán	7	Julio	2023-07-21T00:00:00	2024-11-08T23:00:00	1	Precipitación	0
137008	7	Sololá	713	San Lucas Tolimán	10	San Lucas Tolimán	7	Julio	2023-07-21T00:00:00	2024-11-08T23:00:00	8	Radiación solar	0
137009	7	Sololá	713	San Lucas Tolimán	10	San Lucas Tolimán	7	Julio	2023-07-22T00:00:00	2024-11-08T00:00:00	2	Temperatura media	20.8
137010	7	Sololá	713	San Lucas Tolimán	10	San Lucas Tolimán	7	Julio	2023-07-22T00:00:00	2024-11-08T00:00:00	4	Temperatura máxima	21.9
137011	7	Sololá	713	San Lucas Tolimán	10	San Lucas Tolimán	7	Julio	2023-07-22T00:00:00	2024-11-08T00:00:00	3	Temperatura mínima	20.8
137012	7	Sololá	713	San Lucas Tolimán	10	San Lucas Tolimán	7	Julio	2023-07-22T00:00:00	2024-11-08T00:00:00	5	Humedad	75
137013	7	Sololá	713	San Lucas Tolimán	10	San Lucas Tolimán	7	Julio	2023-07-22T00:00:00	2024-11-08T00:00:00	6	Velocidad del viento	1.6
137014	7	Sololá	713	San Lucas Tolimán	10	San Lucas Tolimán	7	Julio	2023-07-22T00:00:00	2024-11-08T00:00:00	7	Dirección del viento	1.61
137015	7	Sololá	713	San Lucas Tolimán	10	San Lucas Tolimán	7	Julio	2023-07-22T00:00:00	2024-11-08T00:00:00	1	Precipitación	0
137016	7	Sololá	713	San Lucas Tolimán	10	San Lucas Tolimán	7	Julio	2023-07-22T00:00:00	2024-11-08T00:00:00	8	Radiación solar	0
137017	7	Sololá	713	San Lucas Tolimán	10	San Lucas Tolimán	7	Julio	2023-07-22T00:00:00	2024-11-08T01:00:00	2	Temperatura media	20
137018	7	Sololá	713	San Lucas Tolimán	10	San Lucas Tolimán	7	Julio	2023-07-22T00:00:00	2024-11-08T01:00:00	4	Temperatura máxima	20.8
137019	7	Sololá	713	San Lucas Tolimán	10	San Lucas Tolimán	7	Julio	2023-07-22T00:00:00	2024-11-08T01:00:00	3	Temperatura mínima	20
137020	7	Sololá	713	San Lucas Tolimán	10	San Lucas Tolimán	7	Julio	2023-07-22T00:00:00	2024-11-08T01:00:00	5	Humedad	78
137021	7	Sololá	713	San Lucas Tolimán	10	San Lucas Tolimán	7	Julio	2023-07-22T00:00:00	2024-11-08T01:00:00	6	Velocidad del viento	1.6
137022	7	Sololá	713	San Lucas Tolimán	10	San Lucas Tolimán	7	Julio	2023-07-22T00:00:00	2024-11-08T01:00:00	7	Dirección del viento	1.61
137023	7	Sololá	713	San Lucas Tolimán	10	San Lucas Tolimán	7	Julio	2023-07-22T00:00:00	2024-11-08T01:00:00	1	Precipitación	0
137024	7	Sololá	713	San Lucas Tolimán	10	San Lucas Tolimán	7	Julio	2023-07-22T00:00:00	2024-11-08T01:00:00	8	Radiación solar	0
137025	7	Sololá	713	San Lucas Tolimán	10	San Lucas Tolimán	7	Julio	2023-07-22T00:00:00	2024-11-08T02:00:00	2	Temperatura media	18.8
137026	7	Sololá	713	San Lucas Tolimán	10	San Lucas Tolimán	7	Julio	2023-07-22T00:00:00	2024-11-08T02:00:00	4	Temperatura máxima	20.1
137027	7	Sololá	713	San Lucas Tolimán	10	San Lucas Tolimán	7	Julio	2023-07-22T00:00:00	2024-11-08T02:00:00	3	Temperatura mínima	18.8
137028	7	Sololá	713	San Lucas Tolimán	10	San Lucas Tolimán	7	Julio	2023-07-22T00:00:00	2024-11-08T02:00:00	5	Humedad	83
137029	7	Sololá	713	San Lucas Tolimán	10	San Lucas Tolimán	7	Julio	2023-07-22T00:00:00	2024-11-08T02:00:00	6	Velocidad del viento	1.6
137030	7	Sololá	713	San Lucas Tolimán	10	San Lucas Tolimán	7	Julio	2023-07-22T00:00:00	2024-11-08T02:00:00	7	Dirección del viento	1.61
137031	7	Sololá	713	San Lucas Tolimán	10	San Lucas Tolimán	7	Julio	2023-07-22T00:00:00	2024-11-08T02:00:00	1	Precipitación	0
137032	7	Sololá	713	San Lucas Tolimán	10	San Lucas Tolimán	7	Julio	2023-07-22T00:00:00	2024-11-08T02:00:00	8	Radiación solar	0
137033	7	Sololá	713	San Lucas Tolimán	10	San Lucas Tolimán	7	Julio	2023-07-22T00:00:00	2024-11-08T03:00:00	2	Temperatura media	18.1
137034	7	Sololá	713	San Lucas Tolimán	10	San Lucas Tolimán	7	Julio	2023-07-22T00:00:00	2024-11-08T03:00:00	4	Temperatura máxima	18.8
137035	7	Sololá	713	San Lucas Tolimán	10	San Lucas Tolimán	7	Julio	2023-07-22T00:00:00	2024-11-08T03:00:00	3	Temperatura mínima	18.1
137036	7	Sololá	713	San Lucas Tolimán	10	San Lucas Tolimán	7	Julio	2023-07-22T00:00:00	2024-11-08T03:00:00	5	Humedad	85
137037	7	Sololá	713	San Lucas Tolimán	10	San Lucas Tolimán	7	Julio	2023-07-22T00:00:00	2024-11-08T03:00:00	6	Velocidad del viento	1.6
137038	7	Sololá	713	San Lucas Tolimán	10	San Lucas Tolimán	7	Julio	2023-07-22T00:00:00	2024-11-08T03:00:00	7	Dirección del viento	1.61
137039	7	Sololá	713	San Lucas Tolimán	10	San Lucas Tolimán	7	Julio	2023-07-22T00:00:00	2024-11-08T03:00:00	1	Precipitación	0
137040	7	Sololá	713	San Lucas Tolimán	10	San Lucas Tolimán	7	Julio	2023-07-22T00:00:00	2024-11-08T03:00:00	8	Radiación solar	0
137041	7	Sololá	713	San Lucas Tolimán	10	San Lucas Tolimán	7	Julio	2023-07-22T00:00:00	2024-11-08T04:00:00	2	Temperatura media	18.7
137042	7	Sololá	713	San Lucas Tolimán	10	San Lucas Tolimán	7	Julio	2023-07-22T00:00:00	2024-11-08T04:00:00	4	Temperatura máxima	18.8
137043	7	Sololá	713	San Lucas Tolimán	10	San Lucas Tolimán	7	Julio	2023-07-22T00:00:00	2024-11-08T04:00:00	3	Temperatura mínima	18
137044	7	Sololá	713	San Lucas Tolimán	10	San Lucas Tolimán	7	Julio	2023-07-22T00:00:00	2024-11-08T04:00:00	5	Humedad	83
137045	7	Sololá	713	San Lucas Tolimán	10	San Lucas Tolimán	7	Julio	2023-07-22T00:00:00	2024-11-08T04:00:00	6	Velocidad del viento	1.6
137046	7	Sololá	713	San Lucas Tolimán	10	San Lucas Tolimán	7	Julio	2023-07-22T00:00:00	2024-11-08T04:00:00	7	Dirección del viento	1.61
137047	7	Sololá	713	San Lucas Tolimán	10	San Lucas Tolimán	7	Julio	2023-07-22T00:00:00	2024-11-08T04:00:00	1	Precipitación	0
137048	7	Sololá	713	San Lucas Tolimán	10	San Lucas Tolimán	7	Julio	2023-07-22T00:00:00	2024-11-08T04:00:00	8	Radiación solar	0
137049	7	Sololá	713	San Lucas Tolimán	10	San Lucas Tolimán	7	Julio	2023-07-22T00:00:00	2024-11-08T05:00:00	2	Temperatura media	18.7
137050	7	Sololá	713	San Lucas Tolimán	10	San Lucas Tolimán	7	Julio	2023-07-22T00:00:00	2024-11-08T05:00:00	4	Temperatura máxima	18.9
137051	7	Sololá	713	San Lucas Tolimán	10	San Lucas Tolimán	7	Julio	2023-07-22T00:00:00	2024-11-08T05:00:00	3	Temperatura mínima	18.7
137052	7	Sololá	713	San Lucas Tolimán	10	San Lucas Tolimán	7	Julio	2023-07-22T00:00:00	2024-11-08T05:00:00	5	Humedad	82
137053	7	Sololá	713	San Lucas Tolimán	10	San Lucas Tolimán	7	Julio	2023-07-22T00:00:00	2024-11-08T05:00:00	6	Velocidad del viento	0
137054	7	Sololá	713	San Lucas Tolimán	10	San Lucas Tolimán	7	Julio	2023-07-22T00:00:00	2024-11-08T05:00:00	7	Dirección del viento	0
137055	7	Sololá	713	San Lucas Tolimán	10	San Lucas Tolimán	7	Julio	2023-07-22T00:00:00	2024-11-08T05:00:00	1	Precipitación	0
137056	7	Sololá	713	San Lucas Tolimán	10	San Lucas Tolimán	7	Julio	2023-07-22T00:00:00	2024-11-08T05:00:00	8	Radiación solar	0
137057	7	Sololá	713	San Lucas Tolimán	10	San Lucas Tolimán	7	Julio	2023-07-22T00:00:00	2024-11-08T06:00:00	2	Temperatura media	18
137058	7	Sololá	713	San Lucas Tolimán	10	San Lucas Tolimán	7	Julio	2023-07-22T00:00:00	2024-11-08T06:00:00	4	Temperatura máxima	18.7
137059	7	Sololá	713	San Lucas Tolimán	10	San Lucas Tolimán	7	Julio	2023-07-22T00:00:00	2024-11-08T06:00:00	3	Temperatura mínima	17.9
137060	7	Sololá	713	San Lucas Tolimán	10	San Lucas Tolimán	7	Julio	2023-07-22T00:00:00	2024-11-08T06:00:00	5	Humedad	85
137061	7	Sololá	713	San Lucas Tolimán	10	San Lucas Tolimán	7	Julio	2023-07-22T00:00:00	2024-11-08T06:00:00	6	Velocidad del viento	0
137062	7	Sololá	713	San Lucas Tolimán	10	San Lucas Tolimán	7	Julio	2023-07-22T00:00:00	2024-11-08T06:00:00	7	Dirección del viento	0
137063	7	Sololá	713	San Lucas Tolimán	10	San Lucas Tolimán	7	Julio	2023-07-22T00:00:00	2024-11-08T06:00:00	1	Precipitación	0
137064	7	Sololá	713	San Lucas Tolimán	10	San Lucas Tolimán	7	Julio	2023-07-22T00:00:00	2024-11-08T06:00:00	8	Radiación solar	1
137065	7	Sololá	713	San Lucas Tolimán	10	San Lucas Tolimán	7	Julio	2023-07-22T00:00:00	2024-11-08T07:00:00	2	Temperatura media	19.4
137066	7	Sololá	713	San Lucas Tolimán	10	San Lucas Tolimán	7	Julio	2023-07-22T00:00:00	2024-11-08T07:00:00	4	Temperatura máxima	19.4
137067	7	Sololá	713	San Lucas Tolimán	10	San Lucas Tolimán	7	Julio	2023-07-22T00:00:00	2024-11-08T07:00:00	3	Temperatura mínima	18
137068	7	Sololá	713	San Lucas Tolimán	10	San Lucas Tolimán	7	Julio	2023-07-22T00:00:00	2024-11-08T07:00:00	5	Humedad	82
137069	7	Sololá	713	San Lucas Tolimán	10	San Lucas Tolimán	7	Julio	2023-07-22T00:00:00	2024-11-08T07:00:00	6	Velocidad del viento	0
137070	7	Sololá	713	San Lucas Tolimán	10	San Lucas Tolimán	7	Julio	2023-07-22T00:00:00	2024-11-08T07:00:00	7	Dirección del viento	0
137071	7	Sololá	713	San Lucas Tolimán	10	San Lucas Tolimán	7	Julio	2023-07-22T00:00:00	2024-11-08T07:00:00	1	Precipitación	0
137072	7	Sololá	713	San Lucas Tolimán	10	San Lucas Tolimán	7	Julio	2023-07-22T00:00:00	2024-11-08T07:00:00	8	Radiación solar	52
137073	7	Sololá	713	San Lucas Tolimán	10	San Lucas Tolimán	7	Julio	2023-07-22T00:00:00	2024-11-08T08:00:00	2	Temperatura media	22.3
137074	7	Sololá	713	San Lucas Tolimán	10	San Lucas Tolimán	7	Julio	2023-07-22T00:00:00	2024-11-08T08:00:00	4	Temperatura máxima	22.3
137075	7	Sololá	713	San Lucas Tolimán	10	San Lucas Tolimán	7	Julio	2023-07-22T00:00:00	2024-11-08T08:00:00	3	Temperatura mínima	19.4
137076	7	Sololá	713	San Lucas Tolimán	10	San Lucas Tolimán	7	Julio	2023-07-22T00:00:00	2024-11-08T08:00:00	5	Humedad	54
137077	7	Sololá	713	San Lucas Tolimán	10	San Lucas Tolimán	7	Julio	2023-07-22T00:00:00	2024-11-08T08:00:00	6	Velocidad del viento	1.6
137078	7	Sololá	713	San Lucas Tolimán	10	San Lucas Tolimán	7	Julio	2023-07-22T00:00:00	2024-11-08T08:00:00	7	Dirección del viento	1.61
137079	7	Sololá	713	San Lucas Tolimán	10	San Lucas Tolimán	7	Julio	2023-07-22T00:00:00	2024-11-08T08:00:00	1	Precipitación	0
137080	7	Sololá	713	San Lucas Tolimán	10	San Lucas Tolimán	7	Julio	2023-07-22T00:00:00	2024-11-08T08:00:00	8	Radiación solar	341
137081	7	Sololá	713	San Lucas Tolimán	10	San Lucas Tolimán	7	Julio	2023-07-22T00:00:00	2024-11-08T09:00:00	2	Temperatura media	22.6
137082	7	Sololá	713	San Lucas Tolimán	10	San Lucas Tolimán	7	Julio	2023-07-22T00:00:00	2024-11-08T09:00:00	4	Temperatura máxima	23.4
137083	7	Sololá	713	San Lucas Tolimán	10	San Lucas Tolimán	7	Julio	2023-07-22T00:00:00	2024-11-08T09:00:00	3	Temperatura mínima	22.3
137084	7	Sololá	713	San Lucas Tolimán	10	San Lucas Tolimán	7	Julio	2023-07-22T00:00:00	2024-11-08T09:00:00	5	Humedad	59
137085	7	Sololá	713	San Lucas Tolimán	10	San Lucas Tolimán	7	Julio	2023-07-22T00:00:00	2024-11-08T09:00:00	6	Velocidad del viento	3.2
137086	7	Sololá	713	San Lucas Tolimán	10	San Lucas Tolimán	7	Julio	2023-07-22T00:00:00	2024-11-08T09:00:00	7	Dirección del viento	3.22
137087	7	Sololá	713	San Lucas Tolimán	10	San Lucas Tolimán	7	Julio	2023-07-22T00:00:00	2024-11-08T09:00:00	1	Precipitación	0
137088	7	Sololá	713	San Lucas Tolimán	10	San Lucas Tolimán	7	Julio	2023-07-22T00:00:00	2024-11-08T09:00:00	8	Radiación solar	476
137089	7	Sololá	713	San Lucas Tolimán	10	San Lucas Tolimán	7	Julio	2023-07-22T00:00:00	2024-11-08T10:00:00	2	Temperatura media	23.3
137090	7	Sololá	713	San Lucas Tolimán	10	San Lucas Tolimán	7	Julio	2023-07-22T00:00:00	2024-11-08T10:00:00	4	Temperatura máxima	23.3
137091	7	Sololá	713	San Lucas Tolimán	10	San Lucas Tolimán	7	Julio	2023-07-22T00:00:00	2024-11-08T10:00:00	3	Temperatura mínima	21.9
137092	7	Sololá	713	San Lucas Tolimán	10	San Lucas Tolimán	7	Julio	2023-07-22T00:00:00	2024-11-08T10:00:00	5	Humedad	59
137093	7	Sololá	713	San Lucas Tolimán	10	San Lucas Tolimán	7	Julio	2023-07-22T00:00:00	2024-11-08T10:00:00	6	Velocidad del viento	8
137094	7	Sololá	713	San Lucas Tolimán	10	San Lucas Tolimán	7	Julio	2023-07-22T00:00:00	2024-11-08T10:00:00	7	Dirección del viento	8.05
137095	7	Sololá	713	San Lucas Tolimán	10	San Lucas Tolimán	7	Julio	2023-07-22T00:00:00	2024-11-08T10:00:00	1	Precipitación	0
137096	7	Sololá	713	San Lucas Tolimán	10	San Lucas Tolimán	7	Julio	2023-07-22T00:00:00	2024-11-08T10:00:00	8	Radiación solar	620
137097	7	Sololá	713	San Lucas Tolimán	10	San Lucas Tolimán	7	Julio	2023-07-22T00:00:00	2024-11-08T11:00:00	2	Temperatura media	23.6
137098	7	Sololá	713	San Lucas Tolimán	10	San Lucas Tolimán	7	Julio	2023-07-22T00:00:00	2024-11-08T11:00:00	4	Temperatura máxima	23.9
137099	7	Sololá	713	San Lucas Tolimán	10	San Lucas Tolimán	7	Julio	2023-07-22T00:00:00	2024-11-08T11:00:00	3	Temperatura mínima	22.5
137100	7	Sololá	713	San Lucas Tolimán	10	San Lucas Tolimán	7	Julio	2023-07-22T00:00:00	2024-11-08T11:00:00	5	Humedad	59
137101	7	Sololá	713	San Lucas Tolimán	10	San Lucas Tolimán	7	Julio	2023-07-22T00:00:00	2024-11-08T11:00:00	6	Velocidad del viento	9.7
137102	7	Sololá	713	San Lucas Tolimán	10	San Lucas Tolimán	7	Julio	2023-07-22T00:00:00	2024-11-08T11:00:00	7	Dirección del viento	9.66
137103	7	Sololá	713	San Lucas Tolimán	10	San Lucas Tolimán	7	Julio	2023-07-22T00:00:00	2024-11-08T11:00:00	1	Precipitación	0
137104	7	Sololá	713	San Lucas Tolimán	10	San Lucas Tolimán	7	Julio	2023-07-22T00:00:00	2024-11-08T11:00:00	8	Radiación solar	974
137105	7	Sololá	713	San Lucas Tolimán	10	San Lucas Tolimán	7	Julio	2023-07-22T00:00:00	2024-11-08T12:00:00	2	Temperatura media	23.1
137106	7	Sololá	713	San Lucas Tolimán	10	San Lucas Tolimán	7	Julio	2023-07-22T00:00:00	2024-11-08T12:00:00	4	Temperatura máxima	24.4
137107	7	Sololá	713	San Lucas Tolimán	10	San Lucas Tolimán	7	Julio	2023-07-22T00:00:00	2024-11-08T12:00:00	3	Temperatura mínima	23.1
137108	7	Sololá	713	San Lucas Tolimán	10	San Lucas Tolimán	7	Julio	2023-07-22T00:00:00	2024-11-08T12:00:00	5	Humedad	61
137109	7	Sololá	713	San Lucas Tolimán	10	San Lucas Tolimán	7	Julio	2023-07-22T00:00:00	2024-11-08T12:00:00	6	Velocidad del viento	11.3
137110	7	Sololá	713	San Lucas Tolimán	10	San Lucas Tolimán	7	Julio	2023-07-22T00:00:00	2024-11-08T12:00:00	7	Dirección del viento	11.27
137111	7	Sololá	713	San Lucas Tolimán	10	San Lucas Tolimán	7	Julio	2023-07-22T00:00:00	2024-11-08T12:00:00	1	Precipitación	0
137112	7	Sololá	713	San Lucas Tolimán	10	San Lucas Tolimán	7	Julio	2023-07-22T00:00:00	2024-11-08T12:00:00	8	Radiación solar	1075
137113	7	Sololá	713	San Lucas Tolimán	10	San Lucas Tolimán	7	Julio	2023-07-22T00:00:00	2024-11-08T13:00:00	2	Temperatura media	21.9
137114	7	Sololá	713	San Lucas Tolimán	10	San Lucas Tolimán	7	Julio	2023-07-22T00:00:00	2024-11-08T13:00:00	4	Temperatura máxima	23.5
137115	7	Sololá	713	San Lucas Tolimán	10	San Lucas Tolimán	7	Julio	2023-07-22T00:00:00	2024-11-08T13:00:00	3	Temperatura mínima	21.8
137116	7	Sololá	713	San Lucas Tolimán	10	San Lucas Tolimán	7	Julio	2023-07-22T00:00:00	2024-11-08T13:00:00	5	Humedad	63
137117	7	Sololá	713	San Lucas Tolimán	10	San Lucas Tolimán	7	Julio	2023-07-22T00:00:00	2024-11-08T13:00:00	6	Velocidad del viento	9.7
137118	7	Sololá	713	San Lucas Tolimán	10	San Lucas Tolimán	7	Julio	2023-07-22T00:00:00	2024-11-08T13:00:00	7	Dirección del viento	9.66
137119	7	Sololá	713	San Lucas Tolimán	10	San Lucas Tolimán	7	Julio	2023-07-22T00:00:00	2024-11-08T13:00:00	1	Precipitación	0
137120	7	Sololá	713	San Lucas Tolimán	10	San Lucas Tolimán	7	Julio	2023-07-22T00:00:00	2024-11-08T13:00:00	8	Radiación solar	515
137121	7	Sololá	713	San Lucas Tolimán	10	San Lucas Tolimán	7	Julio	2023-07-22T00:00:00	2024-11-08T14:00:00	2	Temperatura media	21.1
137122	7	Sololá	713	San Lucas Tolimán	10	San Lucas Tolimán	7	Julio	2023-07-22T00:00:00	2024-11-08T14:00:00	4	Temperatura máxima	22
137123	7	Sololá	713	San Lucas Tolimán	10	San Lucas Tolimán	7	Julio	2023-07-22T00:00:00	2024-11-08T14:00:00	3	Temperatura mínima	21.1
137124	7	Sololá	713	San Lucas Tolimán	10	San Lucas Tolimán	7	Julio	2023-07-22T00:00:00	2024-11-08T14:00:00	5	Humedad	60
137125	7	Sololá	713	San Lucas Tolimán	10	San Lucas Tolimán	7	Julio	2023-07-22T00:00:00	2024-11-08T14:00:00	6	Velocidad del viento	6.4
137126	7	Sololá	713	San Lucas Tolimán	10	San Lucas Tolimán	7	Julio	2023-07-22T00:00:00	2024-11-08T14:00:00	7	Dirección del viento	6.44
137127	7	Sololá	713	San Lucas Tolimán	10	San Lucas Tolimán	7	Julio	2023-07-22T00:00:00	2024-11-08T14:00:00	1	Precipitación	0.2
137128	7	Sololá	713	San Lucas Tolimán	10	San Lucas Tolimán	7	Julio	2023-07-22T00:00:00	2024-11-08T14:00:00	8	Radiación solar	188
137129	7	Sololá	713	San Lucas Tolimán	10	San Lucas Tolimán	7	Julio	2023-07-22T00:00:00	2024-11-08T15:00:00	2	Temperatura media	17.8
137130	7	Sololá	713	San Lucas Tolimán	10	San Lucas Tolimán	7	Julio	2023-07-22T00:00:00	2024-11-08T15:00:00	4	Temperatura máxima	21.1
137131	7	Sololá	713	San Lucas Tolimán	10	San Lucas Tolimán	7	Julio	2023-07-22T00:00:00	2024-11-08T15:00:00	3	Temperatura mínima	17.8
137132	7	Sololá	713	San Lucas Tolimán	10	San Lucas Tolimán	7	Julio	2023-07-22T00:00:00	2024-11-08T15:00:00	5	Humedad	60
137133	7	Sololá	713	San Lucas Tolimán	10	San Lucas Tolimán	7	Julio	2023-07-22T00:00:00	2024-11-08T15:00:00	6	Velocidad del viento	6.4
137134	7	Sololá	713	San Lucas Tolimán	10	San Lucas Tolimán	7	Julio	2023-07-22T00:00:00	2024-11-08T15:00:00	7	Dirección del viento	6.44
137135	7	Sololá	713	San Lucas Tolimán	10	San Lucas Tolimán	7	Julio	2023-07-22T00:00:00	2024-11-08T15:00:00	1	Precipitación	1.4
137136	7	Sololá	713	San Lucas Tolimán	10	San Lucas Tolimán	7	Julio	2023-07-22T00:00:00	2024-11-08T15:00:00	8	Radiación solar	31
137137	7	Sololá	713	San Lucas Tolimán	10	San Lucas Tolimán	7	Julio	2023-07-22T00:00:00	2024-11-08T16:00:00	2	Temperatura media	18.3
137138	7	Sololá	713	San Lucas Tolimán	10	San Lucas Tolimán	7	Julio	2023-07-22T00:00:00	2024-11-08T16:00:00	4	Temperatura máxima	18.5
137139	7	Sololá	713	San Lucas Tolimán	10	San Lucas Tolimán	7	Julio	2023-07-22T00:00:00	2024-11-08T16:00:00	3	Temperatura mínima	17.9
137140	7	Sololá	713	San Lucas Tolimán	10	San Lucas Tolimán	7	Julio	2023-07-22T00:00:00	2024-11-08T16:00:00	5	Humedad	62
137141	7	Sololá	713	San Lucas Tolimán	10	San Lucas Tolimán	7	Julio	2023-07-22T00:00:00	2024-11-08T16:00:00	6	Velocidad del viento	1.6
137142	7	Sololá	713	San Lucas Tolimán	10	San Lucas Tolimán	7	Julio	2023-07-22T00:00:00	2024-11-08T16:00:00	7	Dirección del viento	1.61
137143	7	Sololá	713	San Lucas Tolimán	10	San Lucas Tolimán	7	Julio	2023-07-22T00:00:00	2024-11-08T16:00:00	1	Precipitación	0.6
137144	7	Sololá	713	San Lucas Tolimán	10	San Lucas Tolimán	7	Julio	2023-07-22T00:00:00	2024-11-08T16:00:00	8	Radiación solar	38
137145	7	Sololá	713	San Lucas Tolimán	10	San Lucas Tolimán	7	Julio	2023-07-22T00:00:00	2024-11-08T17:00:00	2	Temperatura media	18.9
137146	7	Sololá	713	San Lucas Tolimán	10	San Lucas Tolimán	7	Julio	2023-07-22T00:00:00	2024-11-08T17:00:00	4	Temperatura máxima	18.9
137147	7	Sololá	713	San Lucas Tolimán	10	San Lucas Tolimán	7	Julio	2023-07-22T00:00:00	2024-11-08T17:00:00	3	Temperatura mínima	18.1
137148	7	Sololá	713	San Lucas Tolimán	10	San Lucas Tolimán	7	Julio	2023-07-22T00:00:00	2024-11-08T17:00:00	5	Humedad	62
137149	7	Sololá	713	San Lucas Tolimán	10	San Lucas Tolimán	7	Julio	2023-07-22T00:00:00	2024-11-08T17:00:00	6	Velocidad del viento	3.2
137150	7	Sololá	713	San Lucas Tolimán	10	San Lucas Tolimán	7	Julio	2023-07-22T00:00:00	2024-11-08T17:00:00	7	Dirección del viento	3.22
137151	7	Sololá	713	San Lucas Tolimán	10	San Lucas Tolimán	7	Julio	2023-07-22T00:00:00	2024-11-08T17:00:00	1	Precipitación	0
137152	7	Sololá	713	San Lucas Tolimán	10	San Lucas Tolimán	7	Julio	2023-07-22T00:00:00	2024-11-08T17:00:00	8	Radiación solar	48
137153	7	Sololá	713	San Lucas Tolimán	10	San Lucas Tolimán	7	Julio	2023-07-22T00:00:00	2024-11-08T18:00:00	2	Temperatura media	18.6
137154	7	Sololá	713	San Lucas Tolimán	10	San Lucas Tolimán	7	Julio	2023-07-22T00:00:00	2024-11-08T18:00:00	4	Temperatura máxima	19.3
137155	7	Sololá	713	San Lucas Tolimán	10	San Lucas Tolimán	7	Julio	2023-07-22T00:00:00	2024-11-08T18:00:00	3	Temperatura mínima	18.5
137156	7	Sololá	713	San Lucas Tolimán	10	San Lucas Tolimán	7	Julio	2023-07-22T00:00:00	2024-11-08T18:00:00	5	Humedad	62
137157	7	Sololá	713	San Lucas Tolimán	10	San Lucas Tolimán	7	Julio	2023-07-22T00:00:00	2024-11-08T18:00:00	6	Velocidad del viento	1.6
137158	7	Sololá	713	San Lucas Tolimán	10	San Lucas Tolimán	7	Julio	2023-07-22T00:00:00	2024-11-08T18:00:00	7	Dirección del viento	1.61
137159	7	Sololá	713	San Lucas Tolimán	10	San Lucas Tolimán	7	Julio	2023-07-22T00:00:00	2024-11-08T18:00:00	1	Precipitación	0
137160	7	Sololá	713	San Lucas Tolimán	10	San Lucas Tolimán	7	Julio	2023-07-22T00:00:00	2024-11-08T18:00:00	8	Radiación solar	35
137161	7	Sololá	713	San Lucas Tolimán	10	San Lucas Tolimán	7	Julio	2023-07-22T00:00:00	2024-11-08T19:00:00	2	Temperatura media	18.7
137162	7	Sololá	713	San Lucas Tolimán	10	San Lucas Tolimán	7	Julio	2023-07-22T00:00:00	2024-11-08T19:00:00	4	Temperatura máxima	18.9
137163	7	Sololá	713	San Lucas Tolimán	10	San Lucas Tolimán	7	Julio	2023-07-22T00:00:00	2024-11-08T19:00:00	3	Temperatura mínima	18.6
137164	7	Sololá	713	San Lucas Tolimán	10	San Lucas Tolimán	7	Julio	2023-07-22T00:00:00	2024-11-08T19:00:00	5	Humedad	61
137165	7	Sololá	713	San Lucas Tolimán	10	San Lucas Tolimán	7	Julio	2023-07-22T00:00:00	2024-11-08T19:00:00	6	Velocidad del viento	1.6
137166	7	Sololá	713	San Lucas Tolimán	10	San Lucas Tolimán	7	Julio	2023-07-22T00:00:00	2024-11-08T19:00:00	7	Dirección del viento	1.61
137167	7	Sololá	713	San Lucas Tolimán	10	San Lucas Tolimán	7	Julio	2023-07-22T00:00:00	2024-11-08T19:00:00	1	Precipitación	0
137168	7	Sololá	713	San Lucas Tolimán	10	San Lucas Tolimán	7	Julio	2023-07-22T00:00:00	2024-11-08T19:00:00	8	Radiación solar	0
137169	7	Sololá	713	San Lucas Tolimán	10	San Lucas Tolimán	7	Julio	2023-07-22T00:00:00	2024-11-08T20:00:00	2	Temperatura media	18.7
137170	7	Sololá	713	San Lucas Tolimán	10	San Lucas Tolimán	7	Julio	2023-07-22T00:00:00	2024-11-08T20:00:00	4	Temperatura máxima	18.9
137171	7	Sololá	713	San Lucas Tolimán	10	San Lucas Tolimán	7	Julio	2023-07-22T00:00:00	2024-11-08T20:00:00	3	Temperatura mínima	18.7
137172	7	Sololá	713	San Lucas Tolimán	10	San Lucas Tolimán	7	Julio	2023-07-22T00:00:00	2024-11-08T20:00:00	5	Humedad	62
137173	7	Sololá	713	San Lucas Tolimán	10	San Lucas Tolimán	7	Julio	2023-07-22T00:00:00	2024-11-08T20:00:00	6	Velocidad del viento	0
137174	7	Sololá	713	San Lucas Tolimán	10	San Lucas Tolimán	7	Julio	2023-07-22T00:00:00	2024-11-08T20:00:00	7	Dirección del viento	0
137175	7	Sololá	713	San Lucas Tolimán	10	San Lucas Tolimán	7	Julio	2023-07-22T00:00:00	2024-11-08T20:00:00	1	Precipitación	0
137176	7	Sololá	713	San Lucas Tolimán	10	San Lucas Tolimán	7	Julio	2023-07-22T00:00:00	2024-11-08T20:00:00	8	Radiación solar	0
137177	7	Sololá	713	San Lucas Tolimán	10	San Lucas Tolimán	7	Julio	2023-07-22T00:00:00	2024-11-08T21:00:00	2	Temperatura media	18.2
137178	7	Sololá	713	San Lucas Tolimán	10	San Lucas Tolimán	7	Julio	2023-07-22T00:00:00	2024-11-08T21:00:00	4	Temperatura máxima	18.7
137179	7	Sololá	713	San Lucas Tolimán	10	San Lucas Tolimán	7	Julio	2023-07-22T00:00:00	2024-11-08T21:00:00	3	Temperatura mínima	18.1
137180	7	Sololá	713	San Lucas Tolimán	10	San Lucas Tolimán	7	Julio	2023-07-22T00:00:00	2024-11-08T21:00:00	5	Humedad	62
137181	7	Sololá	713	San Lucas Tolimán	10	San Lucas Tolimán	7	Julio	2023-07-22T00:00:00	2024-11-08T21:00:00	6	Velocidad del viento	0
137182	7	Sololá	713	San Lucas Tolimán	10	San Lucas Tolimán	7	Julio	2023-07-22T00:00:00	2024-11-08T21:00:00	7	Dirección del viento	0
137183	7	Sololá	713	San Lucas Tolimán	10	San Lucas Tolimán	7	Julio	2023-07-22T00:00:00	2024-11-08T21:00:00	1	Precipitación	0
137184	7	Sololá	713	San Lucas Tolimán	10	San Lucas Tolimán	7	Julio	2023-07-22T00:00:00	2024-11-08T21:00:00	8	Radiación solar	0
137185	7	Sololá	713	San Lucas Tolimán	10	San Lucas Tolimán	7	Julio	2023-07-22T00:00:00	2024-11-08T22:00:00	2	Temperatura media	18.3
137186	7	Sololá	713	San Lucas Tolimán	10	San Lucas Tolimán	7	Julio	2023-07-22T00:00:00	2024-11-08T22:00:00	4	Temperatura máxima	18.4
137187	7	Sololá	713	San Lucas Tolimán	10	San Lucas Tolimán	7	Julio	2023-07-22T00:00:00	2024-11-08T22:00:00	3	Temperatura mínima	18.1
137188	7	Sololá	713	San Lucas Tolimán	10	San Lucas Tolimán	7	Julio	2023-07-22T00:00:00	2024-11-08T22:00:00	5	Humedad	62
137189	7	Sololá	713	San Lucas Tolimán	10	San Lucas Tolimán	7	Julio	2023-07-22T00:00:00	2024-11-08T22:00:00	6	Velocidad del viento	1.6
137190	7	Sololá	713	San Lucas Tolimán	10	San Lucas Tolimán	7	Julio	2023-07-22T00:00:00	2024-11-08T22:00:00	7	Dirección del viento	1.61
137191	7	Sololá	713	San Lucas Tolimán	10	San Lucas Tolimán	7	Julio	2023-07-22T00:00:00	2024-11-08T22:00:00	1	Precipitación	0
137192	7	Sololá	713	San Lucas Tolimán	10	San Lucas Tolimán	7	Julio	2023-07-22T00:00:00	2024-11-08T22:00:00	8	Radiación solar	0
137193	7	Sololá	713	San Lucas Tolimán	10	San Lucas Tolimán	7	Julio	2023-07-22T00:00:00	2024-11-08T23:00:00	2	Temperatura media	17.8
137194	7	Sololá	713	San Lucas Tolimán	10	San Lucas Tolimán	7	Julio	2023-07-22T00:00:00	2024-11-08T23:00:00	4	Temperatura máxima	18.3
137195	7	Sololá	713	San Lucas Tolimán	10	San Lucas Tolimán	7	Julio	2023-07-22T00:00:00	2024-11-08T23:00:00	3	Temperatura mínima	17.8
137196	7	Sololá	713	San Lucas Tolimán	10	San Lucas Tolimán	7	Julio	2023-07-22T00:00:00	2024-11-08T23:00:00	5	Humedad	63
137197	7	Sololá	713	San Lucas Tolimán	10	San Lucas Tolimán	7	Julio	2023-07-22T00:00:00	2024-11-08T23:00:00	6	Velocidad del viento	0
137198	7	Sololá	713	San Lucas Tolimán	10	San Lucas Tolimán	7	Julio	2023-07-22T00:00:00	2024-11-08T23:00:00	7	Dirección del viento	0
137199	7	Sololá	713	San Lucas Tolimán	10	San Lucas Tolimán	7	Julio	2023-07-22T00:00:00	2024-11-08T23:00:00	1	Precipitación	0
137200	7	Sololá	713	San Lucas Tolimán	10	San Lucas Tolimán	7	Julio	2023-07-22T00:00:00	2024-11-08T23:00:00	8	Radiación solar	0
137201	7	Sololá	713	San Lucas Tolimán	10	San Lucas Tolimán	7	Julio	2023-07-23T00:00:00	2024-11-08T00:00:00	2	Temperatura media	18
137202	7	Sololá	713	San Lucas Tolimán	10	San Lucas Tolimán	7	Julio	2023-07-23T00:00:00	2024-11-08T00:00:00	4	Temperatura máxima	18.1
137203	7	Sololá	713	San Lucas Tolimán	10	San Lucas Tolimán	7	Julio	2023-07-23T00:00:00	2024-11-08T00:00:00	3	Temperatura mínima	17.5
137204	7	Sololá	713	San Lucas Tolimán	10	San Lucas Tolimán	7	Julio	2023-07-23T00:00:00	2024-11-08T00:00:00	5	Humedad	62
137205	7	Sololá	713	San Lucas Tolimán	10	San Lucas Tolimán	7	Julio	2023-07-23T00:00:00	2024-11-08T00:00:00	6	Velocidad del viento	0
137206	7	Sololá	713	San Lucas Tolimán	10	San Lucas Tolimán	7	Julio	2023-07-23T00:00:00	2024-11-08T00:00:00	7	Dirección del viento	0
137207	7	Sololá	713	San Lucas Tolimán	10	San Lucas Tolimán	7	Julio	2023-07-23T00:00:00	2024-11-08T00:00:00	1	Precipitación	0
137208	7	Sololá	713	San Lucas Tolimán	10	San Lucas Tolimán	7	Julio	2023-07-23T00:00:00	2024-11-08T00:00:00	8	Radiación solar	0
137209	7	Sololá	713	San Lucas Tolimán	10	San Lucas Tolimán	7	Julio	2023-07-23T00:00:00	2024-11-08T01:00:00	2	Temperatura media	17.9
137210	7	Sololá	713	San Lucas Tolimán	10	San Lucas Tolimán	7	Julio	2023-07-23T00:00:00	2024-11-08T01:00:00	4	Temperatura máxima	18.3
137211	7	Sololá	713	San Lucas Tolimán	10	San Lucas Tolimán	7	Julio	2023-07-23T00:00:00	2024-11-08T01:00:00	3	Temperatura mínima	17.9
137212	7	Sololá	713	San Lucas Tolimán	10	San Lucas Tolimán	7	Julio	2023-07-23T00:00:00	2024-11-08T01:00:00	5	Humedad	61
137213	7	Sololá	713	San Lucas Tolimán	10	San Lucas Tolimán	7	Julio	2023-07-23T00:00:00	2024-11-08T01:00:00	6	Velocidad del viento	1.6
137214	7	Sololá	713	San Lucas Tolimán	10	San Lucas Tolimán	7	Julio	2023-07-23T00:00:00	2024-11-08T01:00:00	7	Dirección del viento	1.61
137215	7	Sololá	713	San Lucas Tolimán	10	San Lucas Tolimán	7	Julio	2023-07-23T00:00:00	2024-11-08T01:00:00	1	Precipitación	0
137216	7	Sololá	713	San Lucas Tolimán	10	San Lucas Tolimán	7	Julio	2023-07-23T00:00:00	2024-11-08T01:00:00	8	Radiación solar	0
137217	7	Sololá	713	San Lucas Tolimán	10	San Lucas Tolimán	7	Julio	2023-07-23T00:00:00	2024-11-08T02:00:00	2	Temperatura media	17.6
137218	7	Sololá	713	San Lucas Tolimán	10	San Lucas Tolimán	7	Julio	2023-07-23T00:00:00	2024-11-08T02:00:00	4	Temperatura máxima	17.9
137219	7	Sololá	713	San Lucas Tolimán	10	San Lucas Tolimán	7	Julio	2023-07-23T00:00:00	2024-11-08T02:00:00	3	Temperatura mínima	17.6
137220	7	Sololá	713	San Lucas Tolimán	10	San Lucas Tolimán	7	Julio	2023-07-23T00:00:00	2024-11-08T02:00:00	5	Humedad	62
137221	7	Sololá	713	San Lucas Tolimán	10	San Lucas Tolimán	7	Julio	2023-07-23T00:00:00	2024-11-08T02:00:00	6	Velocidad del viento	1.6
137222	7	Sololá	713	San Lucas Tolimán	10	San Lucas Tolimán	7	Julio	2023-07-23T00:00:00	2024-11-08T02:00:00	7	Dirección del viento	1.61
137223	7	Sololá	713	San Lucas Tolimán	10	San Lucas Tolimán	7	Julio	2023-07-23T00:00:00	2024-11-08T02:00:00	1	Precipitación	0
137224	7	Sololá	713	San Lucas Tolimán	10	San Lucas Tolimán	7	Julio	2023-07-23T00:00:00	2024-11-08T02:00:00	8	Radiación solar	0
137225	7	Sololá	713	San Lucas Tolimán	10	San Lucas Tolimán	7	Julio	2023-07-23T00:00:00	2024-11-08T03:00:00	2	Temperatura media	17.7
137226	7	Sololá	713	San Lucas Tolimán	10	San Lucas Tolimán	7	Julio	2023-07-23T00:00:00	2024-11-08T03:00:00	4	Temperatura máxima	18.1
137227	7	Sololá	713	San Lucas Tolimán	10	San Lucas Tolimán	7	Julio	2023-07-23T00:00:00	2024-11-08T03:00:00	3	Temperatura mínima	17.6
137228	7	Sololá	713	San Lucas Tolimán	10	San Lucas Tolimán	7	Julio	2023-07-23T00:00:00	2024-11-08T03:00:00	5	Humedad	60
137229	7	Sololá	713	San Lucas Tolimán	10	San Lucas Tolimán	7	Julio	2023-07-23T00:00:00	2024-11-08T03:00:00	6	Velocidad del viento	0
137230	7	Sololá	713	San Lucas Tolimán	10	San Lucas Tolimán	7	Julio	2023-07-23T00:00:00	2024-11-08T03:00:00	7	Dirección del viento	0
137231	7	Sololá	713	San Lucas Tolimán	10	San Lucas Tolimán	7	Julio	2023-07-23T00:00:00	2024-11-08T03:00:00	1	Precipitación	0
137232	7	Sololá	713	San Lucas Tolimán	10	San Lucas Tolimán	7	Julio	2023-07-23T00:00:00	2024-11-08T03:00:00	8	Radiación solar	0
137233	7	Sololá	713	San Lucas Tolimán	10	San Lucas Tolimán	7	Julio	2023-07-23T00:00:00	2024-11-08T04:00:00	2	Temperatura media	16.8
137234	7	Sololá	713	San Lucas Tolimán	10	San Lucas Tolimán	7	Julio	2023-07-23T00:00:00	2024-11-08T04:00:00	4	Temperatura máxima	17.7
137235	7	Sololá	713	San Lucas Tolimán	10	San Lucas Tolimán	7	Julio	2023-07-23T00:00:00	2024-11-08T04:00:00	3	Temperatura mínima	16.8
137236	7	Sololá	713	San Lucas Tolimán	10	San Lucas Tolimán	7	Julio	2023-07-23T00:00:00	2024-11-08T04:00:00	5	Humedad	63
137237	7	Sololá	713	San Lucas Tolimán	10	San Lucas Tolimán	7	Julio	2023-07-23T00:00:00	2024-11-08T04:00:00	6	Velocidad del viento	1.6
137238	7	Sololá	713	San Lucas Tolimán	10	San Lucas Tolimán	7	Julio	2023-07-23T00:00:00	2024-11-08T04:00:00	7	Dirección del viento	1.61
137239	7	Sololá	713	San Lucas Tolimán	10	San Lucas Tolimán	7	Julio	2023-07-23T00:00:00	2024-11-08T04:00:00	1	Precipitación	0
137240	7	Sololá	713	San Lucas Tolimán	10	San Lucas Tolimán	7	Julio	2023-07-23T00:00:00	2024-11-08T04:00:00	8	Radiación solar	0
137241	7	Sololá	713	San Lucas Tolimán	10	San Lucas Tolimán	7	Julio	2023-07-23T00:00:00	2024-11-08T05:00:00	2	Temperatura media	16.4
137242	7	Sololá	713	San Lucas Tolimán	10	San Lucas Tolimán	7	Julio	2023-07-23T00:00:00	2024-11-08T05:00:00	4	Temperatura máxima	16.8
137243	7	Sololá	713	San Lucas Tolimán	10	San Lucas Tolimán	7	Julio	2023-07-23T00:00:00	2024-11-08T05:00:00	3	Temperatura mínima	16.4
137244	7	Sololá	713	San Lucas Tolimán	10	San Lucas Tolimán	7	Julio	2023-07-23T00:00:00	2024-11-08T05:00:00	5	Humedad	63
137245	7	Sololá	713	San Lucas Tolimán	10	San Lucas Tolimán	7	Julio	2023-07-23T00:00:00	2024-11-08T05:00:00	6	Velocidad del viento	1.6
137246	7	Sololá	713	San Lucas Tolimán	10	San Lucas Tolimán	7	Julio	2023-07-23T00:00:00	2024-11-08T05:00:00	7	Dirección del viento	1.61
137247	7	Sololá	713	San Lucas Tolimán	10	San Lucas Tolimán	7	Julio	2023-07-23T00:00:00	2024-11-08T05:00:00	1	Precipitación	0
137248	7	Sololá	713	San Lucas Tolimán	10	San Lucas Tolimán	7	Julio	2023-07-23T00:00:00	2024-11-08T05:00:00	8	Radiación solar	0
137249	7	Sololá	713	San Lucas Tolimán	10	San Lucas Tolimán	7	Julio	2023-07-23T00:00:00	2024-11-08T06:00:00	2	Temperatura media	16.6
137250	7	Sololá	713	San Lucas Tolimán	10	San Lucas Tolimán	7	Julio	2023-07-23T00:00:00	2024-11-08T06:00:00	4	Temperatura máxima	16.6
137251	7	Sololá	713	San Lucas Tolimán	10	San Lucas Tolimán	7	Julio	2023-07-23T00:00:00	2024-11-08T06:00:00	3	Temperatura mínima	16.4
137252	7	Sololá	713	San Lucas Tolimán	10	San Lucas Tolimán	7	Julio	2023-07-23T00:00:00	2024-11-08T06:00:00	5	Humedad	63
137253	7	Sololá	713	San Lucas Tolimán	10	San Lucas Tolimán	7	Julio	2023-07-23T00:00:00	2024-11-08T06:00:00	6	Velocidad del viento	0
137254	7	Sololá	713	San Lucas Tolimán	10	San Lucas Tolimán	7	Julio	2023-07-23T00:00:00	2024-11-08T06:00:00	7	Dirección del viento	0
137255	7	Sololá	713	San Lucas Tolimán	10	San Lucas Tolimán	7	Julio	2023-07-23T00:00:00	2024-11-08T06:00:00	1	Precipitación	0
137256	7	Sololá	713	San Lucas Tolimán	10	San Lucas Tolimán	7	Julio	2023-07-23T00:00:00	2024-11-08T06:00:00	8	Radiación solar	1
137257	7	Sololá	713	San Lucas Tolimán	10	San Lucas Tolimán	7	Julio	2023-07-23T00:00:00	2024-11-08T07:00:00	2	Temperatura media	17.7
137258	7	Sololá	713	San Lucas Tolimán	10	San Lucas Tolimán	7	Julio	2023-07-23T00:00:00	2024-11-08T07:00:00	4	Temperatura máxima	17.8
137259	7	Sololá	713	San Lucas Tolimán	10	San Lucas Tolimán	7	Julio	2023-07-23T00:00:00	2024-11-08T07:00:00	3	Temperatura mínima	16.6
137260	7	Sololá	713	San Lucas Tolimán	10	San Lucas Tolimán	7	Julio	2023-07-23T00:00:00	2024-11-08T07:00:00	5	Humedad	61
137261	7	Sololá	713	San Lucas Tolimán	10	San Lucas Tolimán	7	Julio	2023-07-23T00:00:00	2024-11-08T07:00:00	6	Velocidad del viento	1.6
137262	7	Sololá	713	San Lucas Tolimán	10	San Lucas Tolimán	7	Julio	2023-07-23T00:00:00	2024-11-08T07:00:00	7	Dirección del viento	1.61
137263	7	Sololá	713	San Lucas Tolimán	10	San Lucas Tolimán	7	Julio	2023-07-23T00:00:00	2024-11-08T07:00:00	1	Precipitación	0
137264	7	Sololá	713	San Lucas Tolimán	10	San Lucas Tolimán	7	Julio	2023-07-23T00:00:00	2024-11-08T07:00:00	8	Radiación solar	41
137265	7	Sololá	713	San Lucas Tolimán	10	San Lucas Tolimán	7	Julio	2023-07-23T00:00:00	2024-11-08T08:00:00	2	Temperatura media	20.3
137266	7	Sololá	713	San Lucas Tolimán	10	San Lucas Tolimán	7	Julio	2023-07-23T00:00:00	2024-11-08T08:00:00	4	Temperatura máxima	20.4
137267	7	Sololá	713	San Lucas Tolimán	10	San Lucas Tolimán	7	Julio	2023-07-23T00:00:00	2024-11-08T08:00:00	3	Temperatura mínima	17.8
137268	7	Sololá	713	San Lucas Tolimán	10	San Lucas Tolimán	7	Julio	2023-07-23T00:00:00	2024-11-08T08:00:00	5	Humedad	57
137269	7	Sololá	713	San Lucas Tolimán	10	San Lucas Tolimán	7	Julio	2023-07-23T00:00:00	2024-11-08T08:00:00	6	Velocidad del viento	1.6
137270	7	Sololá	713	San Lucas Tolimán	10	San Lucas Tolimán	7	Julio	2023-07-23T00:00:00	2024-11-08T08:00:00	7	Dirección del viento	1.61
137271	7	Sololá	713	San Lucas Tolimán	10	San Lucas Tolimán	7	Julio	2023-07-23T00:00:00	2024-11-08T08:00:00	1	Precipitación	0
137272	7	Sololá	713	San Lucas Tolimán	10	San Lucas Tolimán	7	Julio	2023-07-23T00:00:00	2024-11-08T08:00:00	8	Radiación solar	227
137273	7	Sololá	713	San Lucas Tolimán	10	San Lucas Tolimán	7	Julio	2023-07-23T00:00:00	2024-11-08T09:00:00	2	Temperatura media	22.4
137274	7	Sololá	713	San Lucas Tolimán	10	San Lucas Tolimán	7	Julio	2023-07-23T00:00:00	2024-11-08T09:00:00	4	Temperatura máxima	22.8
137275	7	Sololá	713	San Lucas Tolimán	10	San Lucas Tolimán	7	Julio	2023-07-23T00:00:00	2024-11-08T09:00:00	3	Temperatura mínima	20.2
137276	7	Sololá	713	San Lucas Tolimán	10	San Lucas Tolimán	7	Julio	2023-07-23T00:00:00	2024-11-08T09:00:00	5	Humedad	56
137277	7	Sololá	713	San Lucas Tolimán	10	San Lucas Tolimán	7	Julio	2023-07-23T00:00:00	2024-11-08T09:00:00	6	Velocidad del viento	4.8
137278	7	Sololá	713	San Lucas Tolimán	10	San Lucas Tolimán	7	Julio	2023-07-23T00:00:00	2024-11-08T09:00:00	7	Dirección del viento	4.83
137279	7	Sololá	713	San Lucas Tolimán	10	San Lucas Tolimán	7	Julio	2023-07-23T00:00:00	2024-11-08T09:00:00	1	Precipitación	0
137280	7	Sololá	713	San Lucas Tolimán	10	San Lucas Tolimán	7	Julio	2023-07-23T00:00:00	2024-11-08T09:00:00	8	Radiación solar	570
137281	7	Sololá	713	San Lucas Tolimán	10	San Lucas Tolimán	7	Julio	2023-07-23T00:00:00	2024-11-08T10:00:00	2	Temperatura media	22.4
137282	7	Sololá	713	San Lucas Tolimán	10	San Lucas Tolimán	7	Julio	2023-07-23T00:00:00	2024-11-08T10:00:00	4	Temperatura máxima	23.3
137283	7	Sololá	713	San Lucas Tolimán	10	San Lucas Tolimán	7	Julio	2023-07-23T00:00:00	2024-11-08T10:00:00	3	Temperatura mínima	21.9
137284	7	Sololá	713	San Lucas Tolimán	10	San Lucas Tolimán	7	Julio	2023-07-23T00:00:00	2024-11-08T10:00:00	5	Humedad	61
137285	7	Sololá	713	San Lucas Tolimán	10	San Lucas Tolimán	7	Julio	2023-07-23T00:00:00	2024-11-08T10:00:00	6	Velocidad del viento	4.8
137286	7	Sololá	713	San Lucas Tolimán	10	San Lucas Tolimán	7	Julio	2023-07-23T00:00:00	2024-11-08T10:00:00	7	Dirección del viento	4.83
137287	7	Sololá	713	San Lucas Tolimán	10	San Lucas Tolimán	7	Julio	2023-07-23T00:00:00	2024-11-08T10:00:00	1	Precipitación	0
137288	7	Sololá	713	San Lucas Tolimán	10	San Lucas Tolimán	7	Julio	2023-07-23T00:00:00	2024-11-08T10:00:00	8	Radiación solar	420
137289	7	Sololá	713	San Lucas Tolimán	10	San Lucas Tolimán	7	Julio	2023-07-23T00:00:00	2024-11-08T11:00:00	2	Temperatura media	21.8
137290	7	Sololá	713	San Lucas Tolimán	10	San Lucas Tolimán	7	Julio	2023-07-23T00:00:00	2024-11-08T11:00:00	4	Temperatura máxima	24.2
137291	7	Sololá	713	San Lucas Tolimán	10	San Lucas Tolimán	7	Julio	2023-07-23T00:00:00	2024-11-08T11:00:00	3	Temperatura mínima	21.8
137292	7	Sololá	713	San Lucas Tolimán	10	San Lucas Tolimán	7	Julio	2023-07-23T00:00:00	2024-11-08T11:00:00	5	Humedad	62
137293	7	Sololá	713	San Lucas Tolimán	10	San Lucas Tolimán	7	Julio	2023-07-23T00:00:00	2024-11-08T11:00:00	6	Velocidad del viento	8
137294	7	Sololá	713	San Lucas Tolimán	10	San Lucas Tolimán	7	Julio	2023-07-23T00:00:00	2024-11-08T11:00:00	7	Dirección del viento	8.05
137295	7	Sololá	713	San Lucas Tolimán	10	San Lucas Tolimán	7	Julio	2023-07-23T00:00:00	2024-11-08T11:00:00	1	Precipitación	0
137296	7	Sololá	713	San Lucas Tolimán	10	San Lucas Tolimán	7	Julio	2023-07-23T00:00:00	2024-11-08T11:00:00	8	Radiación solar	624
137297	7	Sololá	713	San Lucas Tolimán	10	San Lucas Tolimán	7	Julio	2023-07-23T00:00:00	2024-11-08T12:00:00	2	Temperatura media	22.6
137298	7	Sololá	713	San Lucas Tolimán	10	San Lucas Tolimán	7	Julio	2023-07-23T00:00:00	2024-11-08T12:00:00	4	Temperatura máxima	22.9
137299	7	Sololá	713	San Lucas Tolimán	10	San Lucas Tolimán	7	Julio	2023-07-23T00:00:00	2024-11-08T12:00:00	3	Temperatura mínima	21.8
137300	7	Sololá	713	San Lucas Tolimán	10	San Lucas Tolimán	7	Julio	2023-07-23T00:00:00	2024-11-08T12:00:00	5	Humedad	62
137301	7	Sololá	713	San Lucas Tolimán	10	San Lucas Tolimán	7	Julio	2023-07-23T00:00:00	2024-11-08T12:00:00	6	Velocidad del viento	9.7
137302	7	Sololá	713	San Lucas Tolimán	10	San Lucas Tolimán	7	Julio	2023-07-23T00:00:00	2024-11-08T12:00:00	7	Dirección del viento	9.66
137303	7	Sololá	713	San Lucas Tolimán	10	San Lucas Tolimán	7	Julio	2023-07-23T00:00:00	2024-11-08T12:00:00	1	Precipitación	0
137304	7	Sololá	713	San Lucas Tolimán	10	San Lucas Tolimán	7	Julio	2023-07-23T00:00:00	2024-11-08T12:00:00	8	Radiación solar	501
137305	7	Sololá	713	San Lucas Tolimán	10	San Lucas Tolimán	7	Julio	2023-07-23T00:00:00	2024-11-08T13:00:00	2	Temperatura media	20.7
137306	7	Sololá	713	San Lucas Tolimán	10	San Lucas Tolimán	7	Julio	2023-07-23T00:00:00	2024-11-08T13:00:00	4	Temperatura máxima	22.6
137307	7	Sololá	713	San Lucas Tolimán	10	San Lucas Tolimán	7	Julio	2023-07-23T00:00:00	2024-11-08T13:00:00	3	Temperatura mínima	20.6
137308	7	Sololá	713	San Lucas Tolimán	10	San Lucas Tolimán	7	Julio	2023-07-23T00:00:00	2024-11-08T13:00:00	5	Humedad	61
137309	7	Sololá	713	San Lucas Tolimán	10	San Lucas Tolimán	7	Julio	2023-07-23T00:00:00	2024-11-08T13:00:00	6	Velocidad del viento	11.3
137310	7	Sololá	713	San Lucas Tolimán	10	San Lucas Tolimán	7	Julio	2023-07-23T00:00:00	2024-11-08T13:00:00	7	Dirección del viento	11.27
137311	7	Sololá	713	San Lucas Tolimán	10	San Lucas Tolimán	7	Julio	2023-07-23T00:00:00	2024-11-08T13:00:00	1	Precipitación	0
137312	7	Sololá	713	San Lucas Tolimán	10	San Lucas Tolimán	7	Julio	2023-07-23T00:00:00	2024-11-08T13:00:00	8	Radiación solar	385
137313	7	Sololá	713	San Lucas Tolimán	10	San Lucas Tolimán	7	Julio	2023-07-23T00:00:00	2024-11-08T14:00:00	2	Temperatura media	21.1
137314	7	Sololá	713	San Lucas Tolimán	10	San Lucas Tolimán	7	Julio	2023-07-23T00:00:00	2024-11-08T14:00:00	4	Temperatura máxima	21.1
137315	7	Sololá	713	San Lucas Tolimán	10	San Lucas Tolimán	7	Julio	2023-07-23T00:00:00	2024-11-08T14:00:00	3	Temperatura mínima	20.4
137316	7	Sololá	713	San Lucas Tolimán	10	San Lucas Tolimán	7	Julio	2023-07-23T00:00:00	2024-11-08T14:00:00	5	Humedad	60
137317	7	Sololá	713	San Lucas Tolimán	10	San Lucas Tolimán	7	Julio	2023-07-23T00:00:00	2024-11-08T14:00:00	6	Velocidad del viento	9.7
137318	7	Sololá	713	San Lucas Tolimán	10	San Lucas Tolimán	7	Julio	2023-07-23T00:00:00	2024-11-08T14:00:00	7	Dirección del viento	9.66
137319	7	Sololá	713	San Lucas Tolimán	10	San Lucas Tolimán	7	Julio	2023-07-23T00:00:00	2024-11-08T14:00:00	1	Precipitación	0
137320	7	Sololá	713	San Lucas Tolimán	10	San Lucas Tolimán	7	Julio	2023-07-23T00:00:00	2024-11-08T14:00:00	8	Radiación solar	322
137321	7	Sololá	713	San Lucas Tolimán	10	San Lucas Tolimán	7	Julio	2023-07-23T00:00:00	2024-11-08T15:00:00	2	Temperatura media	20.1
137322	7	Sololá	713	San Lucas Tolimán	10	San Lucas Tolimán	7	Julio	2023-07-23T00:00:00	2024-11-08T15:00:00	4	Temperatura máxima	21.1
137323	7	Sololá	713	San Lucas Tolimán	10	San Lucas Tolimán	7	Julio	2023-07-23T00:00:00	2024-11-08T15:00:00	3	Temperatura mínima	20
137324	7	Sololá	713	San Lucas Tolimán	10	San Lucas Tolimán	7	Julio	2023-07-23T00:00:00	2024-11-08T15:00:00	5	Humedad	59
137325	7	Sololá	713	San Lucas Tolimán	10	San Lucas Tolimán	7	Julio	2023-07-23T00:00:00	2024-11-08T15:00:00	6	Velocidad del viento	12.9
137326	7	Sololá	713	San Lucas Tolimán	10	San Lucas Tolimán	7	Julio	2023-07-23T00:00:00	2024-11-08T15:00:00	7	Dirección del viento	12.87
137327	7	Sololá	713	San Lucas Tolimán	10	San Lucas Tolimán	7	Julio	2023-07-23T00:00:00	2024-11-08T15:00:00	1	Precipitación	0
137328	7	Sololá	713	San Lucas Tolimán	10	San Lucas Tolimán	7	Julio	2023-07-23T00:00:00	2024-11-08T15:00:00	8	Radiación solar	258
137329	7	Sololá	713	San Lucas Tolimán	10	San Lucas Tolimán	7	Julio	2023-07-23T00:00:00	2024-11-08T16:00:00	2	Temperatura media	20.4
137330	7	Sololá	713	San Lucas Tolimán	10	San Lucas Tolimán	7	Julio	2023-07-23T00:00:00	2024-11-08T16:00:00	4	Temperatura máxima	20.6
137331	7	Sololá	713	San Lucas Tolimán	10	San Lucas Tolimán	7	Julio	2023-07-23T00:00:00	2024-11-08T16:00:00	3	Temperatura mínima	19.9
137332	7	Sololá	713	San Lucas Tolimán	10	San Lucas Tolimán	7	Julio	2023-07-23T00:00:00	2024-11-08T16:00:00	5	Humedad	58
137333	7	Sololá	713	San Lucas Tolimán	10	San Lucas Tolimán	7	Julio	2023-07-23T00:00:00	2024-11-08T16:00:00	6	Velocidad del viento	8
137334	7	Sololá	713	San Lucas Tolimán	10	San Lucas Tolimán	7	Julio	2023-07-23T00:00:00	2024-11-08T16:00:00	7	Dirección del viento	8.05
137335	7	Sololá	713	San Lucas Tolimán	10	San Lucas Tolimán	7	Julio	2023-07-23T00:00:00	2024-11-08T16:00:00	1	Precipitación	0
137336	7	Sololá	713	San Lucas Tolimán	10	San Lucas Tolimán	7	Julio	2023-07-23T00:00:00	2024-11-08T16:00:00	8	Radiación solar	136
137337	7	Sololá	713	San Lucas Tolimán	10	San Lucas Tolimán	7	Julio	2023-07-23T00:00:00	2024-11-08T17:00:00	2	Temperatura media	20
137338	7	Sololá	713	San Lucas Tolimán	10	San Lucas Tolimán	7	Julio	2023-07-23T00:00:00	2024-11-08T17:00:00	4	Temperatura máxima	20.8
137339	7	Sololá	713	San Lucas Tolimán	10	San Lucas Tolimán	7	Julio	2023-07-23T00:00:00	2024-11-08T17:00:00	3	Temperatura mínima	20
137340	7	Sololá	713	San Lucas Tolimán	10	San Lucas Tolimán	7	Julio	2023-07-23T00:00:00	2024-11-08T17:00:00	5	Humedad	60
137341	7	Sololá	713	San Lucas Tolimán	10	San Lucas Tolimán	7	Julio	2023-07-23T00:00:00	2024-11-08T17:00:00	6	Velocidad del viento	1.6
137342	7	Sololá	713	San Lucas Tolimán	10	San Lucas Tolimán	7	Julio	2023-07-23T00:00:00	2024-11-08T17:00:00	7	Dirección del viento	1.61
137343	7	Sololá	713	San Lucas Tolimán	10	San Lucas Tolimán	7	Julio	2023-07-23T00:00:00	2024-11-08T17:00:00	1	Precipitación	0.2
137344	7	Sololá	713	San Lucas Tolimán	10	San Lucas Tolimán	7	Julio	2023-07-23T00:00:00	2024-11-08T17:00:00	8	Radiación solar	74
137345	7	Sololá	713	San Lucas Tolimán	10	San Lucas Tolimán	7	Julio	2023-07-23T00:00:00	2024-11-08T18:00:00	2	Temperatura media	20.5
137346	7	Sololá	713	San Lucas Tolimán	10	San Lucas Tolimán	7	Julio	2023-07-23T00:00:00	2024-11-08T18:00:00	4	Temperatura máxima	20.6
137347	7	Sololá	713	San Lucas Tolimán	10	San Lucas Tolimán	7	Julio	2023-07-23T00:00:00	2024-11-08T18:00:00	3	Temperatura mínima	20
137348	7	Sololá	713	San Lucas Tolimán	10	San Lucas Tolimán	7	Julio	2023-07-23T00:00:00	2024-11-08T18:00:00	5	Humedad	60
137349	7	Sololá	713	San Lucas Tolimán	10	San Lucas Tolimán	7	Julio	2023-07-23T00:00:00	2024-11-08T18:00:00	6	Velocidad del viento	1.6
137350	7	Sololá	713	San Lucas Tolimán	10	San Lucas Tolimán	7	Julio	2023-07-23T00:00:00	2024-11-08T18:00:00	7	Dirección del viento	1.61
137351	7	Sololá	713	San Lucas Tolimán	10	San Lucas Tolimán	7	Julio	2023-07-23T00:00:00	2024-11-08T18:00:00	1	Precipitación	0
137352	7	Sololá	713	San Lucas Tolimán	10	San Lucas Tolimán	7	Julio	2023-07-23T00:00:00	2024-11-08T18:00:00	8	Radiación solar	120
137353	7	Sololá	713	San Lucas Tolimán	10	San Lucas Tolimán	7	Julio	2023-07-23T00:00:00	2024-11-08T19:00:00	2	Temperatura media	19.1
137354	7	Sololá	713	San Lucas Tolimán	10	San Lucas Tolimán	7	Julio	2023-07-23T00:00:00	2024-11-08T19:00:00	4	Temperatura máxima	20.5
137355	7	Sololá	713	San Lucas Tolimán	10	San Lucas Tolimán	7	Julio	2023-07-23T00:00:00	2024-11-08T19:00:00	3	Temperatura mínima	18.9
137356	7	Sololá	713	San Lucas Tolimán	10	San Lucas Tolimán	7	Julio	2023-07-23T00:00:00	2024-11-08T19:00:00	5	Humedad	61
137357	7	Sololá	713	San Lucas Tolimán	10	San Lucas Tolimán	7	Julio	2023-07-23T00:00:00	2024-11-08T19:00:00	6	Velocidad del viento	0
137358	7	Sololá	713	San Lucas Tolimán	10	San Lucas Tolimán	7	Julio	2023-07-23T00:00:00	2024-11-08T19:00:00	7	Dirección del viento	0
137359	7	Sololá	713	San Lucas Tolimán	10	San Lucas Tolimán	7	Julio	2023-07-23T00:00:00	2024-11-08T19:00:00	1	Precipitación	0
137360	7	Sololá	713	San Lucas Tolimán	10	San Lucas Tolimán	7	Julio	2023-07-23T00:00:00	2024-11-08T19:00:00	8	Radiación solar	0
137361	7	Sololá	713	San Lucas Tolimán	10	San Lucas Tolimán	7	Julio	2023-07-23T00:00:00	2024-11-08T20:00:00	2	Temperatura media	18
137362	7	Sololá	713	San Lucas Tolimán	10	San Lucas Tolimán	7	Julio	2023-07-23T00:00:00	2024-11-08T20:00:00	4	Temperatura máxima	19
137363	7	Sololá	713	San Lucas Tolimán	10	San Lucas Tolimán	7	Julio	2023-07-23T00:00:00	2024-11-08T20:00:00	3	Temperatura mínima	18
137364	7	Sololá	713	San Lucas Tolimán	10	San Lucas Tolimán	7	Julio	2023-07-23T00:00:00	2024-11-08T20:00:00	5	Humedad	61
137365	7	Sololá	713	San Lucas Tolimán	10	San Lucas Tolimán	7	Julio	2023-07-23T00:00:00	2024-11-08T20:00:00	6	Velocidad del viento	4.8
137366	7	Sololá	713	San Lucas Tolimán	10	San Lucas Tolimán	7	Julio	2023-07-23T00:00:00	2024-11-08T20:00:00	7	Dirección del viento	4.83
137367	7	Sololá	713	San Lucas Tolimán	10	San Lucas Tolimán	7	Julio	2023-07-23T00:00:00	2024-11-08T20:00:00	1	Precipitación	0
137368	7	Sololá	713	San Lucas Tolimán	10	San Lucas Tolimán	7	Julio	2023-07-23T00:00:00	2024-11-08T20:00:00	8	Radiación solar	0
137369	7	Sololá	713	San Lucas Tolimán	10	San Lucas Tolimán	7	Julio	2023-07-23T00:00:00	2024-11-08T21:00:00	2	Temperatura media	17.8
137370	7	Sololá	713	San Lucas Tolimán	10	San Lucas Tolimán	7	Julio	2023-07-23T00:00:00	2024-11-08T21:00:00	4	Temperatura máxima	18
137371	7	Sololá	713	San Lucas Tolimán	10	San Lucas Tolimán	7	Julio	2023-07-23T00:00:00	2024-11-08T21:00:00	3	Temperatura mínima	17.6
137372	7	Sololá	713	San Lucas Tolimán	10	San Lucas Tolimán	7	Julio	2023-07-23T00:00:00	2024-11-08T21:00:00	5	Humedad	62
137373	7	Sololá	713	San Lucas Tolimán	10	San Lucas Tolimán	7	Julio	2023-07-23T00:00:00	2024-11-08T21:00:00	6	Velocidad del viento	4.8
137374	7	Sololá	713	San Lucas Tolimán	10	San Lucas Tolimán	7	Julio	2023-07-23T00:00:00	2024-11-08T21:00:00	7	Dirección del viento	4.83
137375	7	Sololá	713	San Lucas Tolimán	10	San Lucas Tolimán	7	Julio	2023-07-23T00:00:00	2024-11-08T21:00:00	1	Precipitación	0
137376	7	Sololá	713	San Lucas Tolimán	10	San Lucas Tolimán	7	Julio	2023-07-23T00:00:00	2024-11-08T21:00:00	8	Radiación solar	0
137377	7	Sololá	713	San Lucas Tolimán	10	San Lucas Tolimán	7	Julio	2023-07-23T00:00:00	2024-11-08T22:00:00	2	Temperatura media	17.8
137378	7	Sololá	713	San Lucas Tolimán	10	San Lucas Tolimán	7	Julio	2023-07-23T00:00:00	2024-11-08T22:00:00	4	Temperatura máxima	18
137379	7	Sololá	713	San Lucas Tolimán	10	San Lucas Tolimán	7	Julio	2023-07-23T00:00:00	2024-11-08T22:00:00	3	Temperatura mínima	17.7
137380	7	Sololá	713	San Lucas Tolimán	10	San Lucas Tolimán	7	Julio	2023-07-23T00:00:00	2024-11-08T22:00:00	5	Humedad	62
137381	7	Sololá	713	San Lucas Tolimán	10	San Lucas Tolimán	7	Julio	2023-07-23T00:00:00	2024-11-08T22:00:00	6	Velocidad del viento	3.2
137382	7	Sololá	713	San Lucas Tolimán	10	San Lucas Tolimán	7	Julio	2023-07-23T00:00:00	2024-11-08T22:00:00	7	Dirección del viento	3.22
137383	7	Sololá	713	San Lucas Tolimán	10	San Lucas Tolimán	7	Julio	2023-07-23T00:00:00	2024-11-08T22:00:00	1	Precipitación	0
137384	7	Sololá	713	San Lucas Tolimán	10	San Lucas Tolimán	7	Julio	2023-07-23T00:00:00	2024-11-08T22:00:00	8	Radiación solar	0
137385	7	Sololá	713	San Lucas Tolimán	10	San Lucas Tolimán	7	Julio	2023-07-23T00:00:00	2024-11-08T23:00:00	2	Temperatura media	17.6
137386	7	Sololá	713	San Lucas Tolimán	10	San Lucas Tolimán	7	Julio	2023-07-23T00:00:00	2024-11-08T23:00:00	4	Temperatura máxima	17.8
137387	7	Sololá	713	San Lucas Tolimán	10	San Lucas Tolimán	7	Julio	2023-07-23T00:00:00	2024-11-08T23:00:00	3	Temperatura mínima	17.3
137388	7	Sololá	713	San Lucas Tolimán	10	San Lucas Tolimán	7	Julio	2023-07-23T00:00:00	2024-11-08T23:00:00	5	Humedad	61
137389	7	Sololá	713	San Lucas Tolimán	10	San Lucas Tolimán	7	Julio	2023-07-23T00:00:00	2024-11-08T23:00:00	6	Velocidad del viento	3.2
137390	7	Sololá	713	San Lucas Tolimán	10	San Lucas Tolimán	7	Julio	2023-07-23T00:00:00	2024-11-08T23:00:00	7	Dirección del viento	3.22
137391	7	Sololá	713	San Lucas Tolimán	10	San Lucas Tolimán	7	Julio	2023-07-23T00:00:00	2024-11-08T23:00:00	1	Precipitación	0
137392	7	Sololá	713	San Lucas Tolimán	10	San Lucas Tolimán	7	Julio	2023-07-23T00:00:00	2024-11-08T23:00:00	8	Radiación solar	0
137393	7	Sololá	713	San Lucas Tolimán	10	San Lucas Tolimán	7	Julio	2023-07-24T00:00:00	2024-11-08T00:00:00	2	Temperatura media	17.7
137394	7	Sololá	713	San Lucas Tolimán	10	San Lucas Tolimán	7	Julio	2023-07-24T00:00:00	2024-11-08T00:00:00	4	Temperatura máxima	17.7
137395	7	Sololá	713	San Lucas Tolimán	10	San Lucas Tolimán	7	Julio	2023-07-24T00:00:00	2024-11-08T00:00:00	3	Temperatura mínima	17.4
137396	7	Sololá	713	San Lucas Tolimán	10	San Lucas Tolimán	7	Julio	2023-07-24T00:00:00	2024-11-08T00:00:00	5	Humedad	62
137397	7	Sololá	713	San Lucas Tolimán	10	San Lucas Tolimán	7	Julio	2023-07-24T00:00:00	2024-11-08T00:00:00	6	Velocidad del viento	3.2
137398	7	Sololá	713	San Lucas Tolimán	10	San Lucas Tolimán	7	Julio	2023-07-24T00:00:00	2024-11-08T00:00:00	7	Dirección del viento	3.22
137399	7	Sololá	713	San Lucas Tolimán	10	San Lucas Tolimán	7	Julio	2023-07-24T00:00:00	2024-11-08T00:00:00	1	Precipitación	0
137400	7	Sololá	713	San Lucas Tolimán	10	San Lucas Tolimán	7	Julio	2023-07-24T00:00:00	2024-11-08T00:00:00	8	Radiación solar	0
137401	7	Sololá	713	San Lucas Tolimán	10	San Lucas Tolimán	7	Julio	2023-07-24T00:00:00	2024-11-08T01:00:00	2	Temperatura media	18
137402	7	Sololá	713	San Lucas Tolimán	10	San Lucas Tolimán	7	Julio	2023-07-24T00:00:00	2024-11-08T01:00:00	4	Temperatura máxima	18.1
137403	7	Sololá	713	San Lucas Tolimán	10	San Lucas Tolimán	7	Julio	2023-07-24T00:00:00	2024-11-08T01:00:00	3	Temperatura mínima	17.6
137404	7	Sololá	713	San Lucas Tolimán	10	San Lucas Tolimán	7	Julio	2023-07-24T00:00:00	2024-11-08T01:00:00	5	Humedad	63
137405	7	Sololá	713	San Lucas Tolimán	10	San Lucas Tolimán	7	Julio	2023-07-24T00:00:00	2024-11-08T01:00:00	6	Velocidad del viento	0
137406	7	Sololá	713	San Lucas Tolimán	10	San Lucas Tolimán	7	Julio	2023-07-24T00:00:00	2024-11-08T01:00:00	7	Dirección del viento	0
137407	7	Sololá	713	San Lucas Tolimán	10	San Lucas Tolimán	7	Julio	2023-07-24T00:00:00	2024-11-08T01:00:00	1	Precipitación	0
137408	7	Sololá	713	San Lucas Tolimán	10	San Lucas Tolimán	7	Julio	2023-07-24T00:00:00	2024-11-08T01:00:00	8	Radiación solar	0
137409	7	Sololá	713	San Lucas Tolimán	10	San Lucas Tolimán	7	Julio	2023-07-24T00:00:00	2024-11-08T02:00:00	2	Temperatura media	17.8
137410	7	Sololá	713	San Lucas Tolimán	10	San Lucas Tolimán	7	Julio	2023-07-24T00:00:00	2024-11-08T02:00:00	4	Temperatura máxima	18.1
137411	7	Sololá	713	San Lucas Tolimán	10	San Lucas Tolimán	7	Julio	2023-07-24T00:00:00	2024-11-08T02:00:00	3	Temperatura mínima	17.7
137412	7	Sololá	713	San Lucas Tolimán	10	San Lucas Tolimán	7	Julio	2023-07-24T00:00:00	2024-11-08T02:00:00	5	Humedad	65
137413	7	Sololá	713	San Lucas Tolimán	10	San Lucas Tolimán	7	Julio	2023-07-24T00:00:00	2024-11-08T02:00:00	6	Velocidad del viento	1.6
137414	7	Sololá	713	San Lucas Tolimán	10	San Lucas Tolimán	7	Julio	2023-07-24T00:00:00	2024-11-08T02:00:00	7	Dirección del viento	1.61
137415	7	Sololá	713	San Lucas Tolimán	10	San Lucas Tolimán	7	Julio	2023-07-24T00:00:00	2024-11-08T02:00:00	1	Precipitación	1.2
137416	7	Sololá	713	San Lucas Tolimán	10	San Lucas Tolimán	7	Julio	2023-07-24T00:00:00	2024-11-08T02:00:00	8	Radiación solar	0
137417	7	Sololá	713	San Lucas Tolimán	10	San Lucas Tolimán	7	Julio	2023-07-24T00:00:00	2024-11-08T03:00:00	2	Temperatura media	17.6
137418	7	Sololá	713	San Lucas Tolimán	10	San Lucas Tolimán	7	Julio	2023-07-24T00:00:00	2024-11-08T03:00:00	4	Temperatura máxima	17.9
137419	7	Sololá	713	San Lucas Tolimán	10	San Lucas Tolimán	7	Julio	2023-07-24T00:00:00	2024-11-08T03:00:00	3	Temperatura mínima	17.6
137420	7	Sololá	713	San Lucas Tolimán	10	San Lucas Tolimán	7	Julio	2023-07-24T00:00:00	2024-11-08T03:00:00	5	Humedad	67
137421	7	Sololá	713	San Lucas Tolimán	10	San Lucas Tolimán	7	Julio	2023-07-24T00:00:00	2024-11-08T03:00:00	6	Velocidad del viento	1.6
137422	7	Sololá	713	San Lucas Tolimán	10	San Lucas Tolimán	7	Julio	2023-07-24T00:00:00	2024-11-08T03:00:00	7	Dirección del viento	1.61
137423	7	Sololá	713	San Lucas Tolimán	10	San Lucas Tolimán	7	Julio	2023-07-24T00:00:00	2024-11-08T03:00:00	1	Precipitación	0
137424	7	Sololá	713	San Lucas Tolimán	10	San Lucas Tolimán	7	Julio	2023-07-24T00:00:00	2024-11-08T03:00:00	8	Radiación solar	0
137425	7	Sololá	713	San Lucas Tolimán	10	San Lucas Tolimán	7	Julio	2023-07-24T00:00:00	2024-11-08T04:00:00	2	Temperatura media	17.4
137426	7	Sololá	713	San Lucas Tolimán	10	San Lucas Tolimán	7	Julio	2023-07-24T00:00:00	2024-11-08T04:00:00	4	Temperatura máxima	17.7
137427	7	Sololá	713	San Lucas Tolimán	10	San Lucas Tolimán	7	Julio	2023-07-24T00:00:00	2024-11-08T04:00:00	3	Temperatura mínima	17.3
137428	7	Sololá	713	San Lucas Tolimán	10	San Lucas Tolimán	7	Julio	2023-07-24T00:00:00	2024-11-08T04:00:00	5	Humedad	68
137429	7	Sololá	713	San Lucas Tolimán	10	San Lucas Tolimán	7	Julio	2023-07-24T00:00:00	2024-11-08T04:00:00	6	Velocidad del viento	1.6
137430	7	Sololá	713	San Lucas Tolimán	10	San Lucas Tolimán	7	Julio	2023-07-24T00:00:00	2024-11-08T04:00:00	7	Dirección del viento	1.61
137431	7	Sololá	713	San Lucas Tolimán	10	San Lucas Tolimán	7	Julio	2023-07-24T00:00:00	2024-11-08T04:00:00	1	Precipitación	0
137432	7	Sololá	713	San Lucas Tolimán	10	San Lucas Tolimán	7	Julio	2023-07-24T00:00:00	2024-11-08T04:00:00	8	Radiación solar	0
137433	7	Sololá	713	San Lucas Tolimán	10	San Lucas Tolimán	7	Julio	2023-07-24T00:00:00	2024-11-08T05:00:00	2	Temperatura media	17.2
137434	7	Sololá	713	San Lucas Tolimán	10	San Lucas Tolimán	7	Julio	2023-07-24T00:00:00	2024-11-08T05:00:00	4	Temperatura máxima	17.4
137435	7	Sololá	713	San Lucas Tolimán	10	San Lucas Tolimán	7	Julio	2023-07-24T00:00:00	2024-11-08T05:00:00	3	Temperatura mínima	17.2
137436	7	Sololá	713	San Lucas Tolimán	10	San Lucas Tolimán	7	Julio	2023-07-24T00:00:00	2024-11-08T05:00:00	5	Humedad	68
137437	7	Sololá	713	San Lucas Tolimán	10	San Lucas Tolimán	7	Julio	2023-07-24T00:00:00	2024-11-08T05:00:00	6	Velocidad del viento	1.6
137438	7	Sololá	713	San Lucas Tolimán	10	San Lucas Tolimán	7	Julio	2023-07-24T00:00:00	2024-11-08T05:00:00	7	Dirección del viento	1.61
137439	7	Sololá	713	San Lucas Tolimán	10	San Lucas Tolimán	7	Julio	2023-07-24T00:00:00	2024-11-08T05:00:00	1	Precipitación	0
137440	7	Sololá	713	San Lucas Tolimán	10	San Lucas Tolimán	7	Julio	2023-07-24T00:00:00	2024-11-08T05:00:00	8	Radiación solar	0
137441	7	Sololá	713	San Lucas Tolimán	10	San Lucas Tolimán	7	Julio	2023-07-24T00:00:00	2024-11-08T06:00:00	2	Temperatura media	17.3
137442	7	Sololá	713	San Lucas Tolimán	10	San Lucas Tolimán	7	Julio	2023-07-24T00:00:00	2024-11-08T06:00:00	4	Temperatura máxima	17.3
137443	7	Sololá	713	San Lucas Tolimán	10	San Lucas Tolimán	7	Julio	2023-07-24T00:00:00	2024-11-08T06:00:00	3	Temperatura mínima	16.9
137444	7	Sololá	713	San Lucas Tolimán	10	San Lucas Tolimán	7	Julio	2023-07-24T00:00:00	2024-11-08T06:00:00	5	Humedad	67
137445	7	Sololá	713	San Lucas Tolimán	10	San Lucas Tolimán	7	Julio	2023-07-24T00:00:00	2024-11-08T06:00:00	6	Velocidad del viento	1.6
137446	7	Sololá	713	San Lucas Tolimán	10	San Lucas Tolimán	7	Julio	2023-07-24T00:00:00	2024-11-08T06:00:00	7	Dirección del viento	1.61
137447	7	Sololá	713	San Lucas Tolimán	10	San Lucas Tolimán	7	Julio	2023-07-24T00:00:00	2024-11-08T06:00:00	1	Precipitación	0.2
137448	7	Sololá	713	San Lucas Tolimán	10	San Lucas Tolimán	7	Julio	2023-07-24T00:00:00	2024-11-08T06:00:00	8	Radiación solar	2
137449	7	Sololá	713	San Lucas Tolimán	10	San Lucas Tolimán	7	Julio	2023-07-24T00:00:00	2024-11-08T07:00:00	2	Temperatura media	20.1
137450	7	Sololá	713	San Lucas Tolimán	10	San Lucas Tolimán	7	Julio	2023-07-24T00:00:00	2024-11-08T07:00:00	4	Temperatura máxima	20.1
137451	7	Sololá	713	San Lucas Tolimán	10	San Lucas Tolimán	7	Julio	2023-07-24T00:00:00	2024-11-08T07:00:00	3	Temperatura mínima	17.3
137452	7	Sololá	713	San Lucas Tolimán	10	San Lucas Tolimán	7	Julio	2023-07-24T00:00:00	2024-11-08T07:00:00	5	Humedad	57
137453	7	Sololá	713	San Lucas Tolimán	10	San Lucas Tolimán	7	Julio	2023-07-24T00:00:00	2024-11-08T07:00:00	6	Velocidad del viento	4.8
137454	7	Sololá	713	San Lucas Tolimán	10	San Lucas Tolimán	7	Julio	2023-07-24T00:00:00	2024-11-08T07:00:00	7	Dirección del viento	4.83
137455	7	Sololá	713	San Lucas Tolimán	10	San Lucas Tolimán	7	Julio	2023-07-24T00:00:00	2024-11-08T07:00:00	1	Precipitación	0
137456	7	Sololá	713	San Lucas Tolimán	10	San Lucas Tolimán	7	Julio	2023-07-24T00:00:00	2024-11-08T07:00:00	8	Radiación solar	99
137457	7	Sololá	713	San Lucas Tolimán	10	San Lucas Tolimán	7	Julio	2023-07-24T00:00:00	2024-11-08T08:00:00	2	Temperatura media	21.1
137458	7	Sololá	713	San Lucas Tolimán	10	San Lucas Tolimán	7	Julio	2023-07-24T00:00:00	2024-11-08T08:00:00	4	Temperatura máxima	21.2
137459	7	Sololá	713	San Lucas Tolimán	10	San Lucas Tolimán	7	Julio	2023-07-24T00:00:00	2024-11-08T08:00:00	3	Temperatura mínima	20.2
137460	7	Sololá	713	San Lucas Tolimán	10	San Lucas Tolimán	7	Julio	2023-07-24T00:00:00	2024-11-08T08:00:00	5	Humedad	57
137461	7	Sololá	713	San Lucas Tolimán	10	San Lucas Tolimán	7	Julio	2023-07-24T00:00:00	2024-11-08T08:00:00	6	Velocidad del viento	4.8
137462	7	Sololá	713	San Lucas Tolimán	10	San Lucas Tolimán	7	Julio	2023-07-24T00:00:00	2024-11-08T08:00:00	7	Dirección del viento	4.83
137463	7	Sololá	713	San Lucas Tolimán	10	San Lucas Tolimán	7	Julio	2023-07-24T00:00:00	2024-11-08T08:00:00	1	Precipitación	0
137464	7	Sololá	713	San Lucas Tolimán	10	San Lucas Tolimán	7	Julio	2023-07-24T00:00:00	2024-11-08T08:00:00	8	Radiación solar	235
137465	7	Sololá	713	San Lucas Tolimán	10	San Lucas Tolimán	7	Julio	2023-07-24T00:00:00	2024-11-08T09:00:00	2	Temperatura media	23.1
137466	7	Sololá	713	San Lucas Tolimán	10	San Lucas Tolimán	7	Julio	2023-07-24T00:00:00	2024-11-08T09:00:00	4	Temperatura máxima	23.2
137467	7	Sololá	713	San Lucas Tolimán	10	San Lucas Tolimán	7	Julio	2023-07-24T00:00:00	2024-11-08T09:00:00	3	Temperatura mínima	20.8
137468	7	Sololá	713	San Lucas Tolimán	10	San Lucas Tolimán	7	Julio	2023-07-24T00:00:00	2024-11-08T09:00:00	5	Humedad	53
137469	7	Sololá	713	San Lucas Tolimán	10	San Lucas Tolimán	7	Julio	2023-07-24T00:00:00	2024-11-08T09:00:00	6	Velocidad del viento	6.4
137470	7	Sololá	713	San Lucas Tolimán	10	San Lucas Tolimán	7	Julio	2023-07-24T00:00:00	2024-11-08T09:00:00	7	Dirección del viento	6.44
137471	7	Sololá	713	San Lucas Tolimán	10	San Lucas Tolimán	7	Julio	2023-07-24T00:00:00	2024-11-08T09:00:00	1	Precipitación	0
137472	7	Sololá	713	San Lucas Tolimán	10	San Lucas Tolimán	7	Julio	2023-07-24T00:00:00	2024-11-08T09:00:00	8	Radiación solar	562
137473	7	Sololá	713	San Lucas Tolimán	10	San Lucas Tolimán	7	Julio	2023-07-24T00:00:00	2024-11-08T10:00:00	2	Temperatura media	24.4
137474	7	Sololá	713	San Lucas Tolimán	10	San Lucas Tolimán	7	Julio	2023-07-24T00:00:00	2024-11-08T10:00:00	4	Temperatura máxima	24.7
137475	7	Sololá	713	San Lucas Tolimán	10	San Lucas Tolimán	7	Julio	2023-07-24T00:00:00	2024-11-08T10:00:00	3	Temperatura mínima	23.1
137476	7	Sololá	713	San Lucas Tolimán	10	San Lucas Tolimán	7	Julio	2023-07-24T00:00:00	2024-11-08T10:00:00	5	Humedad	48
137477	7	Sololá	713	San Lucas Tolimán	10	San Lucas Tolimán	7	Julio	2023-07-24T00:00:00	2024-11-08T10:00:00	6	Velocidad del viento	6.4
137478	7	Sololá	713	San Lucas Tolimán	10	San Lucas Tolimán	7	Julio	2023-07-24T00:00:00	2024-11-08T10:00:00	7	Dirección del viento	6.44
137479	7	Sololá	713	San Lucas Tolimán	10	San Lucas Tolimán	7	Julio	2023-07-24T00:00:00	2024-11-08T10:00:00	1	Precipitación	0
137480	7	Sololá	713	San Lucas Tolimán	10	San Lucas Tolimán	7	Julio	2023-07-24T00:00:00	2024-11-08T10:00:00	8	Radiación solar	911
137481	7	Sololá	713	San Lucas Tolimán	10	San Lucas Tolimán	7	Julio	2023-07-24T00:00:00	2024-11-08T11:00:00	2	Temperatura media	24.1
137482	7	Sololá	713	San Lucas Tolimán	10	San Lucas Tolimán	7	Julio	2023-07-24T00:00:00	2024-11-08T11:00:00	4	Temperatura máxima	25.9
137483	7	Sololá	713	San Lucas Tolimán	10	San Lucas Tolimán	7	Julio	2023-07-24T00:00:00	2024-11-08T11:00:00	3	Temperatura mínima	24.1
137484	7	Sololá	713	San Lucas Tolimán	10	San Lucas Tolimán	7	Julio	2023-07-24T00:00:00	2024-11-08T11:00:00	5	Humedad	60
137485	7	Sololá	713	San Lucas Tolimán	10	San Lucas Tolimán	7	Julio	2023-07-24T00:00:00	2024-11-08T11:00:00	6	Velocidad del viento	6.4
137486	7	Sololá	713	San Lucas Tolimán	10	San Lucas Tolimán	7	Julio	2023-07-24T00:00:00	2024-11-08T11:00:00	7	Dirección del viento	6.44
137487	7	Sololá	713	San Lucas Tolimán	10	San Lucas Tolimán	7	Julio	2023-07-24T00:00:00	2024-11-08T11:00:00	1	Precipitación	0
137488	7	Sololá	713	San Lucas Tolimán	10	San Lucas Tolimán	7	Julio	2023-07-24T00:00:00	2024-11-08T11:00:00	8	Radiación solar	1049
137489	7	Sololá	713	San Lucas Tolimán	10	San Lucas Tolimán	7	Julio	2023-07-24T00:00:00	2024-11-08T12:00:00	2	Temperatura media	24.5
137490	7	Sololá	713	San Lucas Tolimán	10	San Lucas Tolimán	7	Julio	2023-07-24T00:00:00	2024-11-08T12:00:00	4	Temperatura máxima	24.7
137491	7	Sololá	713	San Lucas Tolimán	10	San Lucas Tolimán	7	Julio	2023-07-24T00:00:00	2024-11-08T12:00:00	3	Temperatura mínima	23.1
137492	7	Sololá	713	San Lucas Tolimán	10	San Lucas Tolimán	7	Julio	2023-07-24T00:00:00	2024-11-08T12:00:00	5	Humedad	58
137493	7	Sololá	713	San Lucas Tolimán	10	San Lucas Tolimán	7	Julio	2023-07-24T00:00:00	2024-11-08T12:00:00	6	Velocidad del viento	11.3
137494	7	Sololá	713	San Lucas Tolimán	10	San Lucas Tolimán	7	Julio	2023-07-24T00:00:00	2024-11-08T12:00:00	7	Dirección del viento	11.27
137495	7	Sololá	713	San Lucas Tolimán	10	San Lucas Tolimán	7	Julio	2023-07-24T00:00:00	2024-11-08T12:00:00	1	Precipitación	0
137496	7	Sololá	713	San Lucas Tolimán	10	San Lucas Tolimán	7	Julio	2023-07-24T00:00:00	2024-11-08T12:00:00	8	Radiación solar	1118
137497	7	Sololá	713	San Lucas Tolimán	10	San Lucas Tolimán	7	Julio	2023-07-24T00:00:00	2024-11-08T13:00:00	2	Temperatura media	23.8
137498	7	Sololá	713	San Lucas Tolimán	10	San Lucas Tolimán	7	Julio	2023-07-24T00:00:00	2024-11-08T13:00:00	4	Temperatura máxima	24.4
137499	7	Sololá	713	San Lucas Tolimán	10	San Lucas Tolimán	7	Julio	2023-07-24T00:00:00	2024-11-08T13:00:00	3	Temperatura mínima	23.3
137500	7	Sololá	713	San Lucas Tolimán	10	San Lucas Tolimán	7	Julio	2023-07-24T00:00:00	2024-11-08T13:00:00	5	Humedad	59
137501	7	Sololá	713	San Lucas Tolimán	10	San Lucas Tolimán	7	Julio	2023-07-24T00:00:00	2024-11-08T13:00:00	6	Velocidad del viento	12.9
137502	7	Sololá	713	San Lucas Tolimán	10	San Lucas Tolimán	7	Julio	2023-07-24T00:00:00	2024-11-08T13:00:00	7	Dirección del viento	12.87
137503	7	Sololá	713	San Lucas Tolimán	10	San Lucas Tolimán	7	Julio	2023-07-24T00:00:00	2024-11-08T13:00:00	1	Precipitación	0
137504	7	Sololá	713	San Lucas Tolimán	10	San Lucas Tolimán	7	Julio	2023-07-24T00:00:00	2024-11-08T13:00:00	8	Radiación solar	1002
137505	7	Sololá	713	San Lucas Tolimán	10	San Lucas Tolimán	7	Julio	2023-07-24T00:00:00	2024-11-08T14:00:00	2	Temperatura media	21.6
137506	7	Sololá	713	San Lucas Tolimán	10	San Lucas Tolimán	7	Julio	2023-07-24T00:00:00	2024-11-08T14:00:00	4	Temperatura máxima	24.6
137507	7	Sololá	713	San Lucas Tolimán	10	San Lucas Tolimán	7	Julio	2023-07-24T00:00:00	2024-11-08T14:00:00	3	Temperatura mínima	21.6
137508	7	Sololá	713	San Lucas Tolimán	10	San Lucas Tolimán	7	Julio	2023-07-24T00:00:00	2024-11-08T14:00:00	5	Humedad	62
137509	7	Sololá	713	San Lucas Tolimán	10	San Lucas Tolimán	7	Julio	2023-07-24T00:00:00	2024-11-08T14:00:00	6	Velocidad del viento	12.9
137510	7	Sololá	713	San Lucas Tolimán	10	San Lucas Tolimán	7	Julio	2023-07-24T00:00:00	2024-11-08T14:00:00	7	Dirección del viento	12.87
137511	7	Sololá	713	San Lucas Tolimán	10	San Lucas Tolimán	7	Julio	2023-07-24T00:00:00	2024-11-08T14:00:00	1	Precipitación	1.6
137512	7	Sololá	713	San Lucas Tolimán	10	San Lucas Tolimán	7	Julio	2023-07-24T00:00:00	2024-11-08T14:00:00	8	Radiación solar	839
137513	7	Sololá	713	San Lucas Tolimán	10	San Lucas Tolimán	7	Julio	2023-07-24T00:00:00	2024-11-08T15:00:00	2	Temperatura media	19.3
137514	7	Sololá	713	San Lucas Tolimán	10	San Lucas Tolimán	7	Julio	2023-07-24T00:00:00	2024-11-08T15:00:00	4	Temperatura máxima	21.5
137515	7	Sololá	713	San Lucas Tolimán	10	San Lucas Tolimán	7	Julio	2023-07-24T00:00:00	2024-11-08T15:00:00	3	Temperatura mínima	19.3
137516	7	Sololá	713	San Lucas Tolimán	10	San Lucas Tolimán	7	Julio	2023-07-24T00:00:00	2024-11-08T15:00:00	5	Humedad	61
137517	7	Sololá	713	San Lucas Tolimán	10	San Lucas Tolimán	7	Julio	2023-07-24T00:00:00	2024-11-08T15:00:00	6	Velocidad del viento	14.5
137518	7	Sololá	713	San Lucas Tolimán	10	San Lucas Tolimán	7	Julio	2023-07-24T00:00:00	2024-11-08T15:00:00	7	Dirección del viento	14.48
137519	7	Sololá	713	San Lucas Tolimán	10	San Lucas Tolimán	7	Julio	2023-07-24T00:00:00	2024-11-08T15:00:00	1	Precipitación	2.6
137520	7	Sololá	713	San Lucas Tolimán	10	San Lucas Tolimán	7	Julio	2023-07-24T00:00:00	2024-11-08T15:00:00	8	Radiación solar	400
137521	7	Sololá	713	San Lucas Tolimán	10	San Lucas Tolimán	7	Julio	2023-07-24T00:00:00	2024-11-08T16:00:00	2	Temperatura media	18.8
137522	7	Sololá	713	San Lucas Tolimán	10	San Lucas Tolimán	7	Julio	2023-07-24T00:00:00	2024-11-08T16:00:00	4	Temperatura máxima	19.2
137523	7	Sololá	713	San Lucas Tolimán	10	San Lucas Tolimán	7	Julio	2023-07-24T00:00:00	2024-11-08T16:00:00	3	Temperatura mínima	18.3
137524	7	Sololá	713	San Lucas Tolimán	10	San Lucas Tolimán	7	Julio	2023-07-24T00:00:00	2024-11-08T16:00:00	5	Humedad	65
137525	7	Sololá	713	San Lucas Tolimán	10	San Lucas Tolimán	7	Julio	2023-07-24T00:00:00	2024-11-08T16:00:00	6	Velocidad del viento	14.5
137526	7	Sololá	713	San Lucas Tolimán	10	San Lucas Tolimán	7	Julio	2023-07-24T00:00:00	2024-11-08T16:00:00	7	Dirección del viento	14.48
137527	7	Sololá	713	San Lucas Tolimán	10	San Lucas Tolimán	7	Julio	2023-07-24T00:00:00	2024-11-08T16:00:00	1	Precipitación	3.8
137528	7	Sololá	713	San Lucas Tolimán	10	San Lucas Tolimán	7	Julio	2023-07-24T00:00:00	2024-11-08T16:00:00	8	Radiación solar	160
137529	7	Sololá	713	San Lucas Tolimán	10	San Lucas Tolimán	7	Julio	2023-07-24T00:00:00	2024-11-08T17:00:00	2	Temperatura media	20.5
137530	7	Sololá	713	San Lucas Tolimán	10	San Lucas Tolimán	7	Julio	2023-07-24T00:00:00	2024-11-08T17:00:00	4	Temperatura máxima	20.5
137531	7	Sololá	713	San Lucas Tolimán	10	San Lucas Tolimán	7	Julio	2023-07-24T00:00:00	2024-11-08T17:00:00	3	Temperatura mínima	18.8
137532	7	Sololá	713	San Lucas Tolimán	10	San Lucas Tolimán	7	Julio	2023-07-24T00:00:00	2024-11-08T17:00:00	5	Humedad	59
137533	7	Sololá	713	San Lucas Tolimán	10	San Lucas Tolimán	7	Julio	2023-07-24T00:00:00	2024-11-08T17:00:00	6	Velocidad del viento	3.2
137534	7	Sololá	713	San Lucas Tolimán	10	San Lucas Tolimán	7	Julio	2023-07-24T00:00:00	2024-11-08T17:00:00	7	Dirección del viento	3.22
137535	7	Sololá	713	San Lucas Tolimán	10	San Lucas Tolimán	7	Julio	2023-07-24T00:00:00	2024-11-08T17:00:00	1	Precipitación	0
137536	7	Sololá	713	San Lucas Tolimán	10	San Lucas Tolimán	7	Julio	2023-07-24T00:00:00	2024-11-08T17:00:00	8	Radiación solar	328
137537	7	Sololá	713	San Lucas Tolimán	10	San Lucas Tolimán	7	Julio	2023-07-24T00:00:00	2024-11-08T18:00:00	2	Temperatura media	18.9
137538	7	Sololá	713	San Lucas Tolimán	10	San Lucas Tolimán	7	Julio	2023-07-24T00:00:00	2024-11-08T18:00:00	4	Temperatura máxima	20.6
137539	7	Sololá	713	San Lucas Tolimán	10	San Lucas Tolimán	7	Julio	2023-07-24T00:00:00	2024-11-08T18:00:00	3	Temperatura mínima	18.7
137540	7	Sololá	713	San Lucas Tolimán	10	San Lucas Tolimán	7	Julio	2023-07-24T00:00:00	2024-11-08T18:00:00	5	Humedad	58
137541	7	Sololá	713	San Lucas Tolimán	10	San Lucas Tolimán	7	Julio	2023-07-24T00:00:00	2024-11-08T18:00:00	6	Velocidad del viento	8
137542	7	Sololá	713	San Lucas Tolimán	10	San Lucas Tolimán	7	Julio	2023-07-24T00:00:00	2024-11-08T18:00:00	7	Dirección del viento	8.05
137543	7	Sololá	713	San Lucas Tolimán	10	San Lucas Tolimán	7	Julio	2023-07-24T00:00:00	2024-11-08T18:00:00	1	Precipitación	0.2
137544	7	Sololá	713	San Lucas Tolimán	10	San Lucas Tolimán	7	Julio	2023-07-24T00:00:00	2024-11-08T18:00:00	8	Radiación solar	74
137545	7	Sololá	713	San Lucas Tolimán	10	San Lucas Tolimán	7	Julio	2023-07-24T00:00:00	2024-11-08T19:00:00	2	Temperatura media	18.4
137546	7	Sololá	713	San Lucas Tolimán	10	San Lucas Tolimán	7	Julio	2023-07-24T00:00:00	2024-11-08T19:00:00	4	Temperatura máxima	19.3
137547	7	Sololá	713	San Lucas Tolimán	10	San Lucas Tolimán	7	Julio	2023-07-24T00:00:00	2024-11-08T19:00:00	3	Temperatura mínima	18.4
137548	7	Sololá	713	San Lucas Tolimán	10	San Lucas Tolimán	7	Julio	2023-07-24T00:00:00	2024-11-08T19:00:00	5	Humedad	61
137549	7	Sololá	713	San Lucas Tolimán	10	San Lucas Tolimán	7	Julio	2023-07-24T00:00:00	2024-11-08T19:00:00	6	Velocidad del viento	1.6
137550	7	Sololá	713	San Lucas Tolimán	10	San Lucas Tolimán	7	Julio	2023-07-24T00:00:00	2024-11-08T19:00:00	7	Dirección del viento	1.61
137551	7	Sololá	713	San Lucas Tolimán	10	San Lucas Tolimán	7	Julio	2023-07-24T00:00:00	2024-11-08T19:00:00	1	Precipitación	0
137552	7	Sololá	713	San Lucas Tolimán	10	San Lucas Tolimán	7	Julio	2023-07-24T00:00:00	2024-11-08T19:00:00	8	Radiación solar	0
137553	7	Sololá	713	San Lucas Tolimán	10	San Lucas Tolimán	7	Julio	2023-07-24T00:00:00	2024-11-08T20:00:00	2	Temperatura media	18.6
137554	7	Sololá	713	San Lucas Tolimán	10	San Lucas Tolimán	7	Julio	2023-07-24T00:00:00	2024-11-08T20:00:00	4	Temperatura máxima	18.6
137555	7	Sololá	713	San Lucas Tolimán	10	San Lucas Tolimán	7	Julio	2023-07-24T00:00:00	2024-11-08T20:00:00	3	Temperatura mínima	18.3
137556	7	Sololá	713	San Lucas Tolimán	10	San Lucas Tolimán	7	Julio	2023-07-24T00:00:00	2024-11-08T20:00:00	5	Humedad	62
137557	7	Sololá	713	San Lucas Tolimán	10	San Lucas Tolimán	7	Julio	2023-07-24T00:00:00	2024-11-08T20:00:00	6	Velocidad del viento	1.6
137558	7	Sololá	713	San Lucas Tolimán	10	San Lucas Tolimán	7	Julio	2023-07-24T00:00:00	2024-11-08T20:00:00	7	Dirección del viento	1.61
137559	7	Sololá	713	San Lucas Tolimán	10	San Lucas Tolimán	7	Julio	2023-07-24T00:00:00	2024-11-08T20:00:00	1	Precipitación	0
137560	7	Sololá	713	San Lucas Tolimán	10	San Lucas Tolimán	7	Julio	2023-07-24T00:00:00	2024-11-08T20:00:00	8	Radiación solar	0
137561	7	Sololá	713	San Lucas Tolimán	10	San Lucas Tolimán	7	Julio	2023-07-24T00:00:00	2024-11-08T21:00:00	2	Temperatura media	18.6
137562	7	Sololá	713	San Lucas Tolimán	10	San Lucas Tolimán	7	Julio	2023-07-24T00:00:00	2024-11-08T21:00:00	4	Temperatura máxima	18.9
137563	7	Sololá	713	San Lucas Tolimán	10	San Lucas Tolimán	7	Julio	2023-07-24T00:00:00	2024-11-08T21:00:00	3	Temperatura mínima	18.3
137564	7	Sololá	713	San Lucas Tolimán	10	San Lucas Tolimán	7	Julio	2023-07-24T00:00:00	2024-11-08T21:00:00	5	Humedad	60
137565	7	Sololá	713	San Lucas Tolimán	10	San Lucas Tolimán	7	Julio	2023-07-24T00:00:00	2024-11-08T21:00:00	6	Velocidad del viento	1.6
137566	7	Sololá	713	San Lucas Tolimán	10	San Lucas Tolimán	7	Julio	2023-07-24T00:00:00	2024-11-08T21:00:00	7	Dirección del viento	1.61
137567	7	Sololá	713	San Lucas Tolimán	10	San Lucas Tolimán	7	Julio	2023-07-24T00:00:00	2024-11-08T21:00:00	1	Precipitación	0
137568	7	Sololá	713	San Lucas Tolimán	10	San Lucas Tolimán	7	Julio	2023-07-24T00:00:00	2024-11-08T21:00:00	8	Radiación solar	0
137569	7	Sololá	713	San Lucas Tolimán	10	San Lucas Tolimán	7	Julio	2023-07-24T00:00:00	2024-11-08T22:00:00	2	Temperatura media	19.7
137570	7	Sololá	713	San Lucas Tolimán	10	San Lucas Tolimán	7	Julio	2023-07-24T00:00:00	2024-11-08T22:00:00	4	Temperatura máxima	19.8
137571	7	Sololá	713	San Lucas Tolimán	10	San Lucas Tolimán	7	Julio	2023-07-24T00:00:00	2024-11-08T22:00:00	3	Temperatura mínima	18.4
137572	7	Sololá	713	San Lucas Tolimán	10	San Lucas Tolimán	7	Julio	2023-07-24T00:00:00	2024-11-08T22:00:00	5	Humedad	58
137573	7	Sololá	713	San Lucas Tolimán	10	San Lucas Tolimán	7	Julio	2023-07-24T00:00:00	2024-11-08T22:00:00	6	Velocidad del viento	6.4
137574	7	Sololá	713	San Lucas Tolimán	10	San Lucas Tolimán	7	Julio	2023-07-24T00:00:00	2024-11-08T22:00:00	7	Dirección del viento	6.44
137575	7	Sololá	713	San Lucas Tolimán	10	San Lucas Tolimán	7	Julio	2023-07-24T00:00:00	2024-11-08T22:00:00	1	Precipitación	0.2
137576	7	Sololá	713	San Lucas Tolimán	10	San Lucas Tolimán	7	Julio	2023-07-24T00:00:00	2024-11-08T22:00:00	8	Radiación solar	0
137577	7	Sololá	713	San Lucas Tolimán	10	San Lucas Tolimán	7	Julio	2023-07-24T00:00:00	2024-11-08T23:00:00	2	Temperatura media	20.3
137578	7	Sololá	713	San Lucas Tolimán	10	San Lucas Tolimán	7	Julio	2023-07-24T00:00:00	2024-11-08T23:00:00	4	Temperatura máxima	20.3
137579	7	Sololá	713	San Lucas Tolimán	10	San Lucas Tolimán	7	Julio	2023-07-24T00:00:00	2024-11-08T23:00:00	3	Temperatura mínima	19.3
137580	7	Sololá	713	San Lucas Tolimán	10	San Lucas Tolimán	7	Julio	2023-07-24T00:00:00	2024-11-08T23:00:00	5	Humedad	56
137581	7	Sololá	713	San Lucas Tolimán	10	San Lucas Tolimán	7	Julio	2023-07-24T00:00:00	2024-11-08T23:00:00	6	Velocidad del viento	8
137582	7	Sololá	713	San Lucas Tolimán	10	San Lucas Tolimán	7	Julio	2023-07-24T00:00:00	2024-11-08T23:00:00	7	Dirección del viento	8.05
137583	7	Sololá	713	San Lucas Tolimán	10	San Lucas Tolimán	7	Julio	2023-07-24T00:00:00	2024-11-08T23:00:00	1	Precipitación	0
137584	7	Sololá	713	San Lucas Tolimán	10	San Lucas Tolimán	7	Julio	2023-07-24T00:00:00	2024-11-08T23:00:00	8	Radiación solar	0
137585	7	Sololá	713	San Lucas Tolimán	10	San Lucas Tolimán	7	Julio	2023-07-25T00:00:00	2024-11-08T00:00:00	2	Temperatura media	20.2
137586	7	Sololá	713	San Lucas Tolimán	10	San Lucas Tolimán	7	Julio	2023-07-25T00:00:00	2024-11-08T00:00:00	4	Temperatura máxima	20.4
137587	7	Sololá	713	San Lucas Tolimán	10	San Lucas Tolimán	7	Julio	2023-07-25T00:00:00	2024-11-08T00:00:00	3	Temperatura mínima	19.7
137588	7	Sololá	713	San Lucas Tolimán	10	San Lucas Tolimán	7	Julio	2023-07-25T00:00:00	2024-11-08T00:00:00	5	Humedad	56
137589	7	Sololá	713	San Lucas Tolimán	10	San Lucas Tolimán	7	Julio	2023-07-25T00:00:00	2024-11-08T00:00:00	6	Velocidad del viento	11.3
137590	7	Sololá	713	San Lucas Tolimán	10	San Lucas Tolimán	7	Julio	2023-07-25T00:00:00	2024-11-08T00:00:00	7	Dirección del viento	11.27
137591	7	Sololá	713	San Lucas Tolimán	10	San Lucas Tolimán	7	Julio	2023-07-25T00:00:00	2024-11-08T00:00:00	1	Precipitación	0
137592	7	Sololá	713	San Lucas Tolimán	10	San Lucas Tolimán	7	Julio	2023-07-25T00:00:00	2024-11-08T00:00:00	8	Radiación solar	0
137593	7	Sololá	713	San Lucas Tolimán	10	San Lucas Tolimán	7	Julio	2023-07-25T00:00:00	2024-11-08T01:00:00	2	Temperatura media	20
137594	7	Sololá	713	San Lucas Tolimán	10	San Lucas Tolimán	7	Julio	2023-07-25T00:00:00	2024-11-08T01:00:00	4	Temperatura máxima	20.4
137595	7	Sololá	713	San Lucas Tolimán	10	San Lucas Tolimán	7	Julio	2023-07-25T00:00:00	2024-11-08T01:00:00	3	Temperatura mínima	20
137596	7	Sololá	713	San Lucas Tolimán	10	San Lucas Tolimán	7	Julio	2023-07-25T00:00:00	2024-11-08T01:00:00	5	Humedad	56
137597	7	Sololá	713	San Lucas Tolimán	10	San Lucas Tolimán	7	Julio	2023-07-25T00:00:00	2024-11-08T01:00:00	6	Velocidad del viento	9.7
137598	7	Sololá	713	San Lucas Tolimán	10	San Lucas Tolimán	7	Julio	2023-07-25T00:00:00	2024-11-08T01:00:00	7	Dirección del viento	9.66
137599	7	Sololá	713	San Lucas Tolimán	10	San Lucas Tolimán	7	Julio	2023-07-25T00:00:00	2024-11-08T01:00:00	1	Precipitación	0
137600	7	Sololá	713	San Lucas Tolimán	10	San Lucas Tolimán	7	Julio	2023-07-25T00:00:00	2024-11-08T01:00:00	8	Radiación solar	0
137601	7	Sololá	713	San Lucas Tolimán	10	San Lucas Tolimán	7	Julio	2023-07-25T00:00:00	2024-11-08T02:00:00	2	Temperatura media	19.9
137602	7	Sololá	713	San Lucas Tolimán	10	San Lucas Tolimán	7	Julio	2023-07-25T00:00:00	2024-11-08T02:00:00	4	Temperatura máxima	20.2
137603	7	Sololá	713	San Lucas Tolimán	10	San Lucas Tolimán	7	Julio	2023-07-25T00:00:00	2024-11-08T02:00:00	3	Temperatura mínima	19.8
137604	7	Sololá	713	San Lucas Tolimán	10	San Lucas Tolimán	7	Julio	2023-07-25T00:00:00	2024-11-08T02:00:00	5	Humedad	56
137605	7	Sololá	713	San Lucas Tolimán	10	San Lucas Tolimán	7	Julio	2023-07-25T00:00:00	2024-11-08T02:00:00	6	Velocidad del viento	8
137606	7	Sololá	713	San Lucas Tolimán	10	San Lucas Tolimán	7	Julio	2023-07-25T00:00:00	2024-11-08T02:00:00	7	Dirección del viento	8.05
137607	7	Sololá	713	San Lucas Tolimán	10	San Lucas Tolimán	7	Julio	2023-07-25T00:00:00	2024-11-08T02:00:00	1	Precipitación	0
137608	7	Sololá	713	San Lucas Tolimán	10	San Lucas Tolimán	7	Julio	2023-07-25T00:00:00	2024-11-08T02:00:00	8	Radiación solar	0
137609	7	Sololá	713	San Lucas Tolimán	10	San Lucas Tolimán	7	Julio	2023-07-25T00:00:00	2024-11-08T03:00:00	2	Temperatura media	19.7
137610	7	Sololá	713	San Lucas Tolimán	10	San Lucas Tolimán	7	Julio	2023-07-25T00:00:00	2024-11-08T03:00:00	4	Temperatura máxima	19.9
137611	7	Sololá	713	San Lucas Tolimán	10	San Lucas Tolimán	7	Julio	2023-07-25T00:00:00	2024-11-08T03:00:00	3	Temperatura mínima	19.2
137612	7	Sololá	713	San Lucas Tolimán	10	San Lucas Tolimán	7	Julio	2023-07-25T00:00:00	2024-11-08T03:00:00	5	Humedad	56
137613	7	Sololá	713	San Lucas Tolimán	10	San Lucas Tolimán	7	Julio	2023-07-25T00:00:00	2024-11-08T03:00:00	6	Velocidad del viento	6.4
137614	7	Sololá	713	San Lucas Tolimán	10	San Lucas Tolimán	7	Julio	2023-07-25T00:00:00	2024-11-08T03:00:00	7	Dirección del viento	6.44
137615	7	Sololá	713	San Lucas Tolimán	10	San Lucas Tolimán	7	Julio	2023-07-25T00:00:00	2024-11-08T03:00:00	1	Precipitación	0
137616	7	Sololá	713	San Lucas Tolimán	10	San Lucas Tolimán	7	Julio	2023-07-25T00:00:00	2024-11-08T03:00:00	8	Radiación solar	0
137617	7	Sololá	713	San Lucas Tolimán	10	San Lucas Tolimán	7	Julio	2023-07-25T00:00:00	2024-11-08T04:00:00	2	Temperatura media	18.7
137618	7	Sololá	713	San Lucas Tolimán	10	San Lucas Tolimán	7	Julio	2023-07-25T00:00:00	2024-11-08T04:00:00	4	Temperatura máxima	19.9
137619	7	Sololá	713	San Lucas Tolimán	10	San Lucas Tolimán	7	Julio	2023-07-25T00:00:00	2024-11-08T04:00:00	3	Temperatura mínima	18.7
137620	7	Sololá	713	San Lucas Tolimán	10	San Lucas Tolimán	7	Julio	2023-07-25T00:00:00	2024-11-08T04:00:00	5	Humedad	59
137621	7	Sololá	713	San Lucas Tolimán	10	San Lucas Tolimán	7	Julio	2023-07-25T00:00:00	2024-11-08T04:00:00	6	Velocidad del viento	6.4
137622	7	Sololá	713	San Lucas Tolimán	10	San Lucas Tolimán	7	Julio	2023-07-25T00:00:00	2024-11-08T04:00:00	7	Dirección del viento	6.44
137623	7	Sololá	713	San Lucas Tolimán	10	San Lucas Tolimán	7	Julio	2023-07-25T00:00:00	2024-11-08T04:00:00	1	Precipitación	0
137624	7	Sololá	713	San Lucas Tolimán	10	San Lucas Tolimán	7	Julio	2023-07-25T00:00:00	2024-11-08T04:00:00	8	Radiación solar	0
137625	7	Sololá	713	San Lucas Tolimán	10	San Lucas Tolimán	7	Julio	2023-07-25T00:00:00	2024-11-08T05:00:00	2	Temperatura media	19.3
137626	7	Sololá	713	San Lucas Tolimán	10	San Lucas Tolimán	7	Julio	2023-07-25T00:00:00	2024-11-08T05:00:00	4	Temperatura máxima	19.3
137627	7	Sololá	713	San Lucas Tolimán	10	San Lucas Tolimán	7	Julio	2023-07-25T00:00:00	2024-11-08T05:00:00	3	Temperatura mínima	17.6
137628	7	Sololá	713	San Lucas Tolimán	10	San Lucas Tolimán	7	Julio	2023-07-25T00:00:00	2024-11-08T05:00:00	5	Humedad	56
137629	7	Sololá	713	San Lucas Tolimán	10	San Lucas Tolimán	7	Julio	2023-07-25T00:00:00	2024-11-08T05:00:00	6	Velocidad del viento	3.2
137630	7	Sololá	713	San Lucas Tolimán	10	San Lucas Tolimán	7	Julio	2023-07-25T00:00:00	2024-11-08T05:00:00	7	Dirección del viento	3.22
137631	7	Sololá	713	San Lucas Tolimán	10	San Lucas Tolimán	7	Julio	2023-07-25T00:00:00	2024-11-08T05:00:00	1	Precipitación	0
137632	7	Sololá	713	San Lucas Tolimán	10	San Lucas Tolimán	7	Julio	2023-07-25T00:00:00	2024-11-08T05:00:00	8	Radiación solar	0
137633	7	Sololá	713	San Lucas Tolimán	10	San Lucas Tolimán	7	Julio	2023-07-25T00:00:00	2024-11-08T06:00:00	2	Temperatura media	18.4
137634	7	Sololá	713	San Lucas Tolimán	10	San Lucas Tolimán	7	Julio	2023-07-25T00:00:00	2024-11-08T06:00:00	4	Temperatura máxima	19.3
137635	7	Sololá	713	San Lucas Tolimán	10	San Lucas Tolimán	7	Julio	2023-07-25T00:00:00	2024-11-08T06:00:00	3	Temperatura mínima	18.4
137636	7	Sololá	713	San Lucas Tolimán	10	San Lucas Tolimán	7	Julio	2023-07-25T00:00:00	2024-11-08T06:00:00	5	Humedad	61
137637	7	Sololá	713	San Lucas Tolimán	10	San Lucas Tolimán	7	Julio	2023-07-25T00:00:00	2024-11-08T06:00:00	6	Velocidad del viento	3.2
137638	7	Sololá	713	San Lucas Tolimán	10	San Lucas Tolimán	7	Julio	2023-07-25T00:00:00	2024-11-08T06:00:00	7	Dirección del viento	3.22
137639	7	Sololá	713	San Lucas Tolimán	10	San Lucas Tolimán	7	Julio	2023-07-25T00:00:00	2024-11-08T06:00:00	1	Precipitación	0
137640	7	Sololá	713	San Lucas Tolimán	10	San Lucas Tolimán	7	Julio	2023-07-25T00:00:00	2024-11-08T06:00:00	8	Radiación solar	1
137641	7	Sololá	713	San Lucas Tolimán	10	San Lucas Tolimán	7	Julio	2023-07-25T00:00:00	2024-11-08T07:00:00	2	Temperatura media	20
137642	7	Sololá	713	San Lucas Tolimán	10	San Lucas Tolimán	7	Julio	2023-07-25T00:00:00	2024-11-08T07:00:00	4	Temperatura máxima	20.1
137643	7	Sololá	713	San Lucas Tolimán	10	San Lucas Tolimán	7	Julio	2023-07-25T00:00:00	2024-11-08T07:00:00	3	Temperatura mínima	18.3
137644	7	Sololá	713	San Lucas Tolimán	10	San Lucas Tolimán	7	Julio	2023-07-25T00:00:00	2024-11-08T07:00:00	5	Humedad	58
137645	7	Sololá	713	San Lucas Tolimán	10	San Lucas Tolimán	7	Julio	2023-07-25T00:00:00	2024-11-08T07:00:00	6	Velocidad del viento	4.8
137646	7	Sololá	713	San Lucas Tolimán	10	San Lucas Tolimán	7	Julio	2023-07-25T00:00:00	2024-11-08T07:00:00	7	Dirección del viento	4.83
137647	7	Sololá	713	San Lucas Tolimán	10	San Lucas Tolimán	7	Julio	2023-07-25T00:00:00	2024-11-08T07:00:00	1	Precipitación	0
137648	7	Sololá	713	San Lucas Tolimán	10	San Lucas Tolimán	7	Julio	2023-07-25T00:00:00	2024-11-08T07:00:00	8	Radiación solar	75
137649	7	Sololá	713	San Lucas Tolimán	10	San Lucas Tolimán	7	Julio	2023-07-25T00:00:00	2024-11-08T08:00:00	2	Temperatura media	21.9
137650	7	Sololá	713	San Lucas Tolimán	10	San Lucas Tolimán	7	Julio	2023-07-25T00:00:00	2024-11-08T08:00:00	4	Temperatura máxima	21.9
137651	7	Sololá	713	San Lucas Tolimán	10	San Lucas Tolimán	7	Julio	2023-07-25T00:00:00	2024-11-08T08:00:00	3	Temperatura mínima	20
137652	7	Sololá	713	San Lucas Tolimán	10	San Lucas Tolimán	7	Julio	2023-07-25T00:00:00	2024-11-08T08:00:00	5	Humedad	53
137653	7	Sololá	713	San Lucas Tolimán	10	San Lucas Tolimán	7	Julio	2023-07-25T00:00:00	2024-11-08T08:00:00	6	Velocidad del viento	4.8
137654	7	Sololá	713	San Lucas Tolimán	10	San Lucas Tolimán	7	Julio	2023-07-25T00:00:00	2024-11-08T08:00:00	7	Dirección del viento	4.83
137655	7	Sololá	713	San Lucas Tolimán	10	San Lucas Tolimán	7	Julio	2023-07-25T00:00:00	2024-11-08T08:00:00	1	Precipitación	0
137656	7	Sololá	713	San Lucas Tolimán	10	San Lucas Tolimán	7	Julio	2023-07-25T00:00:00	2024-11-08T08:00:00	8	Radiación solar	322
137657	7	Sololá	713	San Lucas Tolimán	10	San Lucas Tolimán	7	Julio	2023-07-25T00:00:00	2024-11-08T09:00:00	2	Temperatura media	23.1
137658	7	Sololá	713	San Lucas Tolimán	10	San Lucas Tolimán	7	Julio	2023-07-25T00:00:00	2024-11-08T09:00:00	4	Temperatura máxima	23.3
137659	7	Sololá	713	San Lucas Tolimán	10	San Lucas Tolimán	7	Julio	2023-07-25T00:00:00	2024-11-08T09:00:00	3	Temperatura mínima	21.9
137660	7	Sololá	713	San Lucas Tolimán	10	San Lucas Tolimán	7	Julio	2023-07-25T00:00:00	2024-11-08T09:00:00	5	Humedad	53
137661	7	Sololá	713	San Lucas Tolimán	10	San Lucas Tolimán	7	Julio	2023-07-25T00:00:00	2024-11-08T09:00:00	6	Velocidad del viento	4.8
137662	7	Sololá	713	San Lucas Tolimán	10	San Lucas Tolimán	7	Julio	2023-07-25T00:00:00	2024-11-08T09:00:00	7	Dirección del viento	4.83
137663	7	Sololá	713	San Lucas Tolimán	10	San Lucas Tolimán	7	Julio	2023-07-25T00:00:00	2024-11-08T09:00:00	1	Precipitación	0
137664	7	Sololá	713	San Lucas Tolimán	10	San Lucas Tolimán	7	Julio	2023-07-25T00:00:00	2024-11-08T09:00:00	8	Radiación solar	498
137665	7	Sololá	713	San Lucas Tolimán	10	San Lucas Tolimán	7	Julio	2023-07-25T00:00:00	2024-11-08T10:00:00	2	Temperatura media	24.8
137666	7	Sololá	713	San Lucas Tolimán	10	San Lucas Tolimán	7	Julio	2023-07-25T00:00:00	2024-11-08T10:00:00	4	Temperatura máxima	24.9
137667	7	Sololá	713	San Lucas Tolimán	10	San Lucas Tolimán	7	Julio	2023-07-25T00:00:00	2024-11-08T10:00:00	3	Temperatura mínima	23.1
137668	7	Sololá	713	San Lucas Tolimán	10	San Lucas Tolimán	7	Julio	2023-07-25T00:00:00	2024-11-08T10:00:00	5	Humedad	42
137669	7	Sololá	713	San Lucas Tolimán	10	San Lucas Tolimán	7	Julio	2023-07-25T00:00:00	2024-11-08T10:00:00	6	Velocidad del viento	4.8
137670	7	Sololá	713	San Lucas Tolimán	10	San Lucas Tolimán	7	Julio	2023-07-25T00:00:00	2024-11-08T10:00:00	7	Dirección del viento	4.83
137671	7	Sololá	713	San Lucas Tolimán	10	San Lucas Tolimán	7	Julio	2023-07-25T00:00:00	2024-11-08T10:00:00	1	Precipitación	0
137672	7	Sololá	713	San Lucas Tolimán	10	San Lucas Tolimán	7	Julio	2023-07-25T00:00:00	2024-11-08T10:00:00	8	Radiación solar	757
137673	7	Sololá	713	San Lucas Tolimán	10	San Lucas Tolimán	7	Julio	2023-07-25T00:00:00	2024-11-08T11:00:00	2	Temperatura media	26.2
137674	7	Sololá	713	San Lucas Tolimán	10	San Lucas Tolimán	7	Julio	2023-07-25T00:00:00	2024-11-08T11:00:00	4	Temperatura máxima	26.3
137675	7	Sololá	713	San Lucas Tolimán	10	San Lucas Tolimán	7	Julio	2023-07-25T00:00:00	2024-11-08T11:00:00	3	Temperatura mínima	24.8
137676	7	Sololá	713	San Lucas Tolimán	10	San Lucas Tolimán	7	Julio	2023-07-25T00:00:00	2024-11-08T11:00:00	5	Humedad	33
137677	7	Sololá	713	San Lucas Tolimán	10	San Lucas Tolimán	7	Julio	2023-07-25T00:00:00	2024-11-08T11:00:00	6	Velocidad del viento	9.7
137678	7	Sololá	713	San Lucas Tolimán	10	San Lucas Tolimán	7	Julio	2023-07-25T00:00:00	2024-11-08T11:00:00	7	Dirección del viento	9.66
137679	7	Sololá	713	San Lucas Tolimán	10	San Lucas Tolimán	7	Julio	2023-07-25T00:00:00	2024-11-08T11:00:00	1	Precipitación	0
137680	7	Sololá	713	San Lucas Tolimán	10	San Lucas Tolimán	7	Julio	2023-07-25T00:00:00	2024-11-08T11:00:00	8	Radiación solar	951
137681	7	Sololá	713	San Lucas Tolimán	10	San Lucas Tolimán	7	Julio	2023-07-25T00:00:00	2024-11-08T12:00:00	2	Temperatura media	25.8
137682	7	Sololá	713	San Lucas Tolimán	10	San Lucas Tolimán	7	Julio	2023-07-25T00:00:00	2024-11-08T12:00:00	4	Temperatura máxima	26.4
137683	7	Sololá	713	San Lucas Tolimán	10	San Lucas Tolimán	7	Julio	2023-07-25T00:00:00	2024-11-08T12:00:00	3	Temperatura mínima	25.4
137684	7	Sololá	713	San Lucas Tolimán	10	San Lucas Tolimán	7	Julio	2023-07-25T00:00:00	2024-11-08T12:00:00	5	Humedad	54
137685	7	Sololá	713	San Lucas Tolimán	10	San Lucas Tolimán	7	Julio	2023-07-25T00:00:00	2024-11-08T12:00:00	6	Velocidad del viento	6.4
137686	7	Sololá	713	San Lucas Tolimán	10	San Lucas Tolimán	7	Julio	2023-07-25T00:00:00	2024-11-08T12:00:00	7	Dirección del viento	6.44
137687	7	Sololá	713	San Lucas Tolimán	10	San Lucas Tolimán	7	Julio	2023-07-25T00:00:00	2024-11-08T12:00:00	1	Precipitación	0
137688	7	Sololá	713	San Lucas Tolimán	10	San Lucas Tolimán	7	Julio	2023-07-25T00:00:00	2024-11-08T12:00:00	8	Radiación solar	996
137689	7	Sololá	713	San Lucas Tolimán	10	San Lucas Tolimán	7	Julio	2023-07-25T00:00:00	2024-11-08T13:00:00	2	Temperatura media	24.1
137690	7	Sololá	713	San Lucas Tolimán	10	San Lucas Tolimán	7	Julio	2023-07-25T00:00:00	2024-11-08T13:00:00	4	Temperatura máxima	25.8
137691	7	Sololá	713	San Lucas Tolimán	10	San Lucas Tolimán	7	Julio	2023-07-25T00:00:00	2024-11-08T13:00:00	3	Temperatura mínima	24
137692	7	Sololá	713	San Lucas Tolimán	10	San Lucas Tolimán	7	Julio	2023-07-25T00:00:00	2024-11-08T13:00:00	5	Humedad	60
137693	7	Sololá	713	San Lucas Tolimán	10	San Lucas Tolimán	7	Julio	2023-07-25T00:00:00	2024-11-08T13:00:00	6	Velocidad del viento	11.3
137694	7	Sololá	713	San Lucas Tolimán	10	San Lucas Tolimán	7	Julio	2023-07-25T00:00:00	2024-11-08T13:00:00	7	Dirección del viento	11.27
137695	7	Sololá	713	San Lucas Tolimán	10	San Lucas Tolimán	7	Julio	2023-07-25T00:00:00	2024-11-08T13:00:00	1	Precipitación	0
137696	7	Sololá	713	San Lucas Tolimán	10	San Lucas Tolimán	7	Julio	2023-07-25T00:00:00	2024-11-08T13:00:00	8	Radiación solar	1073
137697	7	Sololá	713	San Lucas Tolimán	10	San Lucas Tolimán	7	Julio	2023-07-25T00:00:00	2024-11-08T14:00:00	2	Temperatura media	23.8
137698	7	Sololá	713	San Lucas Tolimán	10	San Lucas Tolimán	7	Julio	2023-07-25T00:00:00	2024-11-08T14:00:00	4	Temperatura máxima	24.7
137699	7	Sololá	713	San Lucas Tolimán	10	San Lucas Tolimán	7	Julio	2023-07-25T00:00:00	2024-11-08T14:00:00	3	Temperatura mínima	23.8
137700	7	Sololá	713	San Lucas Tolimán	10	San Lucas Tolimán	7	Julio	2023-07-25T00:00:00	2024-11-08T14:00:00	5	Humedad	59
137701	7	Sololá	713	San Lucas Tolimán	10	San Lucas Tolimán	7	Julio	2023-07-25T00:00:00	2024-11-08T14:00:00	6	Velocidad del viento	11.3
137702	7	Sololá	713	San Lucas Tolimán	10	San Lucas Tolimán	7	Julio	2023-07-25T00:00:00	2024-11-08T14:00:00	7	Dirección del viento	11.27
137703	7	Sololá	713	San Lucas Tolimán	10	San Lucas Tolimán	7	Julio	2023-07-25T00:00:00	2024-11-08T14:00:00	1	Precipitación	0
137704	7	Sololá	713	San Lucas Tolimán	10	San Lucas Tolimán	7	Julio	2023-07-25T00:00:00	2024-11-08T14:00:00	8	Radiación solar	1038
137705	7	Sololá	713	San Lucas Tolimán	10	San Lucas Tolimán	7	Julio	2023-07-25T00:00:00	2024-11-08T15:00:00	2	Temperatura media	25.7
137706	7	Sololá	713	San Lucas Tolimán	10	San Lucas Tolimán	7	Julio	2023-07-25T00:00:00	2024-11-08T15:00:00	4	Temperatura máxima	25.9
137707	7	Sololá	713	San Lucas Tolimán	10	San Lucas Tolimán	7	Julio	2023-07-25T00:00:00	2024-11-08T15:00:00	3	Temperatura mínima	23.8
137708	7	Sololá	713	San Lucas Tolimán	10	San Lucas Tolimán	7	Julio	2023-07-25T00:00:00	2024-11-08T15:00:00	5	Humedad	73
137709	7	Sololá	713	San Lucas Tolimán	10	San Lucas Tolimán	7	Julio	2023-07-25T00:00:00	2024-11-08T15:00:00	6	Velocidad del viento	9.7
137710	7	Sololá	713	San Lucas Tolimán	10	San Lucas Tolimán	7	Julio	2023-07-25T00:00:00	2024-11-08T15:00:00	7	Dirección del viento	9.66
137711	7	Sololá	713	San Lucas Tolimán	10	San Lucas Tolimán	7	Julio	2023-07-25T00:00:00	2024-11-08T15:00:00	1	Precipitación	0
137712	7	Sololá	713	San Lucas Tolimán	10	San Lucas Tolimán	7	Julio	2023-07-25T00:00:00	2024-11-08T15:00:00	8	Radiación solar	988
137713	7	Sololá	713	San Lucas Tolimán	10	San Lucas Tolimán	7	Julio	2023-07-25T00:00:00	2024-11-08T16:00:00	2	Temperatura media	23.8
137714	7	Sololá	713	San Lucas Tolimán	10	San Lucas Tolimán	7	Julio	2023-07-25T00:00:00	2024-11-08T16:00:00	4	Temperatura máxima	25.8
137715	7	Sololá	713	San Lucas Tolimán	10	San Lucas Tolimán	7	Julio	2023-07-25T00:00:00	2024-11-08T16:00:00	3	Temperatura mínima	23.8
137716	7	Sololá	713	San Lucas Tolimán	10	San Lucas Tolimán	7	Julio	2023-07-25T00:00:00	2024-11-08T16:00:00	5	Humedad	80
137717	7	Sololá	713	San Lucas Tolimán	10	San Lucas Tolimán	7	Julio	2023-07-25T00:00:00	2024-11-08T16:00:00	6	Velocidad del viento	11.3
137718	7	Sololá	713	San Lucas Tolimán	10	San Lucas Tolimán	7	Julio	2023-07-25T00:00:00	2024-11-08T16:00:00	7	Dirección del viento	11.27
137719	7	Sololá	713	San Lucas Tolimán	10	San Lucas Tolimán	7	Julio	2023-07-25T00:00:00	2024-11-08T16:00:00	1	Precipitación	0
137720	7	Sololá	713	San Lucas Tolimán	10	San Lucas Tolimán	7	Julio	2023-07-25T00:00:00	2024-11-08T16:00:00	8	Radiación solar	64
137721	7	Sololá	713	San Lucas Tolimán	10	San Lucas Tolimán	7	Julio	2023-07-25T00:00:00	2024-11-08T17:00:00	2	Temperatura media	23.8
137722	7	Sololá	713	San Lucas Tolimán	10	San Lucas Tolimán	7	Julio	2023-07-25T00:00:00	2024-11-08T17:00:00	4	Temperatura máxima	24.1
137723	7	Sololá	713	San Lucas Tolimán	10	San Lucas Tolimán	7	Julio	2023-07-25T00:00:00	2024-11-08T17:00:00	3	Temperatura mínima	23.6
137724	7	Sololá	713	San Lucas Tolimán	10	San Lucas Tolimán	7	Julio	2023-07-25T00:00:00	2024-11-08T17:00:00	5	Humedad	77
137725	7	Sololá	713	San Lucas Tolimán	10	San Lucas Tolimán	7	Julio	2023-07-25T00:00:00	2024-11-08T17:00:00	6	Velocidad del viento	6.4
137726	7	Sololá	713	San Lucas Tolimán	10	San Lucas Tolimán	7	Julio	2023-07-25T00:00:00	2024-11-08T17:00:00	7	Dirección del viento	6.44
137727	7	Sololá	713	San Lucas Tolimán	10	San Lucas Tolimán	7	Julio	2023-07-25T00:00:00	2024-11-08T17:00:00	1	Precipitación	0
137728	7	Sololá	713	San Lucas Tolimán	10	San Lucas Tolimán	7	Julio	2023-07-25T00:00:00	2024-11-08T17:00:00	8	Radiación solar	298
137729	7	Sololá	713	San Lucas Tolimán	10	San Lucas Tolimán	7	Julio	2023-07-25T00:00:00	2024-11-08T18:00:00	2	Temperatura media	24.6
137730	7	Sololá	713	San Lucas Tolimán	10	San Lucas Tolimán	7	Julio	2023-07-25T00:00:00	2024-11-08T18:00:00	4	Temperatura máxima	25.1
137731	7	Sololá	713	San Lucas Tolimán	10	San Lucas Tolimán	7	Julio	2023-07-25T00:00:00	2024-11-08T18:00:00	3	Temperatura mínima	23.8
137732	7	Sololá	713	San Lucas Tolimán	10	San Lucas Tolimán	7	Julio	2023-07-25T00:00:00	2024-11-08T18:00:00	5	Humedad	57
137733	7	Sololá	713	San Lucas Tolimán	10	San Lucas Tolimán	7	Julio	2023-07-25T00:00:00	2024-11-08T18:00:00	6	Velocidad del viento	6.4
137734	7	Sololá	713	San Lucas Tolimán	10	San Lucas Tolimán	7	Julio	2023-07-25T00:00:00	2024-11-08T18:00:00	7	Dirección del viento	6.44
137735	7	Sololá	713	San Lucas Tolimán	10	San Lucas Tolimán	7	Julio	2023-07-25T00:00:00	2024-11-08T18:00:00	1	Precipitación	0
137736	7	Sololá	713	San Lucas Tolimán	10	San Lucas Tolimán	7	Julio	2023-07-25T00:00:00	2024-11-08T18:00:00	8	Radiación solar	148
137737	7	Sololá	713	San Lucas Tolimán	10	San Lucas Tolimán	7	Julio	2023-07-25T00:00:00	2024-11-08T19:00:00	2	Temperatura media	21.7
137738	7	Sololá	713	San Lucas Tolimán	10	San Lucas Tolimán	7	Julio	2023-07-25T00:00:00	2024-11-08T19:00:00	4	Temperatura máxima	24.6
137739	7	Sololá	713	San Lucas Tolimán	10	San Lucas Tolimán	7	Julio	2023-07-25T00:00:00	2024-11-08T19:00:00	3	Temperatura mínima	21.7
137740	7	Sololá	713	San Lucas Tolimán	10	San Lucas Tolimán	7	Julio	2023-07-25T00:00:00	2024-11-08T19:00:00	5	Humedad	79
137741	7	Sololá	713	San Lucas Tolimán	10	San Lucas Tolimán	7	Julio	2023-07-25T00:00:00	2024-11-08T19:00:00	6	Velocidad del viento	6.4
137742	7	Sololá	713	San Lucas Tolimán	10	San Lucas Tolimán	7	Julio	2023-07-25T00:00:00	2024-11-08T19:00:00	7	Dirección del viento	6.44
137743	7	Sololá	713	San Lucas Tolimán	10	San Lucas Tolimán	7	Julio	2023-07-25T00:00:00	2024-11-08T19:00:00	1	Precipitación	0
137744	7	Sololá	713	San Lucas Tolimán	10	San Lucas Tolimán	7	Julio	2023-07-25T00:00:00	2024-11-08T19:00:00	8	Radiación solar	0
137745	7	Sololá	713	San Lucas Tolimán	10	San Lucas Tolimán	7	Julio	2023-07-25T00:00:00	2024-11-08T20:00:00	2	Temperatura media	21.6
137746	7	Sololá	713	San Lucas Tolimán	10	San Lucas Tolimán	7	Julio	2023-07-25T00:00:00	2024-11-08T20:00:00	4	Temperatura máxima	21.7
137747	7	Sololá	713	San Lucas Tolimán	10	San Lucas Tolimán	7	Julio	2023-07-25T00:00:00	2024-11-08T20:00:00	3	Temperatura mínima	20.7
137748	7	Sololá	713	San Lucas Tolimán	10	San Lucas Tolimán	7	Julio	2023-07-25T00:00:00	2024-11-08T20:00:00	5	Humedad	64
137749	7	Sololá	713	San Lucas Tolimán	10	San Lucas Tolimán	7	Julio	2023-07-25T00:00:00	2024-11-08T20:00:00	6	Velocidad del viento	6.4
137750	7	Sololá	713	San Lucas Tolimán	10	San Lucas Tolimán	7	Julio	2023-07-25T00:00:00	2024-11-08T20:00:00	7	Dirección del viento	6.44
137751	7	Sololá	713	San Lucas Tolimán	10	San Lucas Tolimán	7	Julio	2023-07-25T00:00:00	2024-11-08T20:00:00	1	Precipitación	0
137752	7	Sololá	713	San Lucas Tolimán	10	San Lucas Tolimán	7	Julio	2023-07-25T00:00:00	2024-11-08T20:00:00	8	Radiación solar	0
137753	7	Sololá	713	San Lucas Tolimán	10	San Lucas Tolimán	7	Julio	2023-07-25T00:00:00	2024-11-08T21:00:00	2	Temperatura media	21.2
137754	7	Sololá	713	San Lucas Tolimán	10	San Lucas Tolimán	7	Julio	2023-07-25T00:00:00	2024-11-08T21:00:00	4	Temperatura máxima	21.6
137755	7	Sololá	713	San Lucas Tolimán	10	San Lucas Tolimán	7	Julio	2023-07-25T00:00:00	2024-11-08T21:00:00	3	Temperatura mínima	21.2
137756	7	Sololá	713	San Lucas Tolimán	10	San Lucas Tolimán	7	Julio	2023-07-25T00:00:00	2024-11-08T21:00:00	5	Humedad	67
137757	7	Sololá	713	San Lucas Tolimán	10	San Lucas Tolimán	7	Julio	2023-07-25T00:00:00	2024-11-08T21:00:00	6	Velocidad del viento	9.7
137758	7	Sololá	713	San Lucas Tolimán	10	San Lucas Tolimán	7	Julio	2023-07-25T00:00:00	2024-11-08T21:00:00	7	Dirección del viento	9.66
137759	7	Sololá	713	San Lucas Tolimán	10	San Lucas Tolimán	7	Julio	2023-07-25T00:00:00	2024-11-08T21:00:00	1	Precipitación	0
137760	7	Sololá	713	San Lucas Tolimán	10	San Lucas Tolimán	7	Julio	2023-07-25T00:00:00	2024-11-08T21:00:00	8	Radiación solar	0
137761	7	Sololá	713	San Lucas Tolimán	10	San Lucas Tolimán	7	Julio	2023-07-25T00:00:00	2024-11-08T22:00:00	2	Temperatura media	20.1
137762	7	Sololá	713	San Lucas Tolimán	10	San Lucas Tolimán	7	Julio	2023-07-25T00:00:00	2024-11-08T22:00:00	4	Temperatura máxima	21.2
137763	7	Sololá	713	San Lucas Tolimán	10	San Lucas Tolimán	7	Julio	2023-07-25T00:00:00	2024-11-08T22:00:00	3	Temperatura mínima	20.1
137764	7	Sololá	713	San Lucas Tolimán	10	San Lucas Tolimán	7	Julio	2023-07-25T00:00:00	2024-11-08T22:00:00	5	Humedad	71
137765	7	Sololá	713	San Lucas Tolimán	10	San Lucas Tolimán	7	Julio	2023-07-25T00:00:00	2024-11-08T22:00:00	6	Velocidad del viento	4.8
137766	7	Sololá	713	San Lucas Tolimán	10	San Lucas Tolimán	7	Julio	2023-07-25T00:00:00	2024-11-08T22:00:00	7	Dirección del viento	4.83
137767	7	Sololá	713	San Lucas Tolimán	10	San Lucas Tolimán	7	Julio	2023-07-25T00:00:00	2024-11-08T22:00:00	1	Precipitación	0
137768	7	Sololá	713	San Lucas Tolimán	10	San Lucas Tolimán	7	Julio	2023-07-25T00:00:00	2024-11-08T22:00:00	8	Radiación solar	0
137769	7	Sololá	713	San Lucas Tolimán	10	San Lucas Tolimán	7	Julio	2023-07-25T00:00:00	2024-11-08T23:00:00	2	Temperatura media	19.1
137770	7	Sololá	713	San Lucas Tolimán	10	San Lucas Tolimán	7	Julio	2023-07-25T00:00:00	2024-11-08T23:00:00	4	Temperatura máxima	20.1
137771	7	Sololá	713	San Lucas Tolimán	10	San Lucas Tolimán	7	Julio	2023-07-25T00:00:00	2024-11-08T23:00:00	3	Temperatura mínima	19.1
137772	7	Sololá	713	San Lucas Tolimán	10	San Lucas Tolimán	7	Julio	2023-07-25T00:00:00	2024-11-08T23:00:00	5	Humedad	74
137773	7	Sololá	713	San Lucas Tolimán	10	San Lucas Tolimán	7	Julio	2023-07-25T00:00:00	2024-11-08T23:00:00	6	Velocidad del viento	1.6
137774	7	Sololá	713	San Lucas Tolimán	10	San Lucas Tolimán	7	Julio	2023-07-25T00:00:00	2024-11-08T23:00:00	7	Dirección del viento	1.61
137775	7	Sololá	713	San Lucas Tolimán	10	San Lucas Tolimán	7	Julio	2023-07-25T00:00:00	2024-11-08T23:00:00	1	Precipitación	0
137776	7	Sololá	713	San Lucas Tolimán	10	San Lucas Tolimán	7	Julio	2023-07-25T00:00:00	2024-11-08T23:00:00	8	Radiación solar	0
137777	7	Sololá	713	San Lucas Tolimán	10	San Lucas Tolimán	7	Julio	2023-07-26T00:00:00	2024-11-08T00:00:00	2	Temperatura media	19.4
137778	7	Sololá	713	San Lucas Tolimán	10	San Lucas Tolimán	7	Julio	2023-07-26T00:00:00	2024-11-08T00:00:00	4	Temperatura máxima	19.5
137779	7	Sololá	713	San Lucas Tolimán	10	San Lucas Tolimán	7	Julio	2023-07-26T00:00:00	2024-11-08T00:00:00	3	Temperatura mínima	18.8
137780	7	Sololá	713	San Lucas Tolimán	10	San Lucas Tolimán	7	Julio	2023-07-26T00:00:00	2024-11-08T00:00:00	5	Humedad	63
137781	7	Sololá	713	San Lucas Tolimán	10	San Lucas Tolimán	7	Julio	2023-07-26T00:00:00	2024-11-08T00:00:00	6	Velocidad del viento	1.6
137782	7	Sololá	713	San Lucas Tolimán	10	San Lucas Tolimán	7	Julio	2023-07-26T00:00:00	2024-11-08T00:00:00	7	Dirección del viento	1.61
137783	7	Sololá	713	San Lucas Tolimán	10	San Lucas Tolimán	7	Julio	2023-07-26T00:00:00	2024-11-08T00:00:00	1	Precipitación	0
137784	7	Sololá	713	San Lucas Tolimán	10	San Lucas Tolimán	7	Julio	2023-07-26T00:00:00	2024-11-08T00:00:00	8	Radiación solar	0
137785	7	Sololá	713	San Lucas Tolimán	10	San Lucas Tolimán	7	Julio	2023-07-26T00:00:00	2024-11-08T01:00:00	2	Temperatura media	18.5
137786	7	Sololá	713	San Lucas Tolimán	10	San Lucas Tolimán	7	Julio	2023-07-26T00:00:00	2024-11-08T01:00:00	4	Temperatura máxima	19.4
137787	7	Sololá	713	San Lucas Tolimán	10	San Lucas Tolimán	7	Julio	2023-07-26T00:00:00	2024-11-08T01:00:00	3	Temperatura mínima	18.4
137788	7	Sololá	713	San Lucas Tolimán	10	San Lucas Tolimán	7	Julio	2023-07-26T00:00:00	2024-11-08T01:00:00	5	Humedad	68
137789	7	Sololá	713	San Lucas Tolimán	10	San Lucas Tolimán	7	Julio	2023-07-26T00:00:00	2024-11-08T01:00:00	6	Velocidad del viento	1.6
137790	7	Sololá	713	San Lucas Tolimán	10	San Lucas Tolimán	7	Julio	2023-07-26T00:00:00	2024-11-08T01:00:00	7	Dirección del viento	1.61
137791	7	Sololá	713	San Lucas Tolimán	10	San Lucas Tolimán	7	Julio	2023-07-26T00:00:00	2024-11-08T01:00:00	1	Precipitación	0
137792	7	Sololá	713	San Lucas Tolimán	10	San Lucas Tolimán	7	Julio	2023-07-26T00:00:00	2024-11-08T01:00:00	8	Radiación solar	0
137793	7	Sololá	713	San Lucas Tolimán	10	San Lucas Tolimán	7	Julio	2023-07-26T00:00:00	2024-11-08T02:00:00	2	Temperatura media	17.6
137794	7	Sololá	713	San Lucas Tolimán	10	San Lucas Tolimán	7	Julio	2023-07-26T00:00:00	2024-11-08T02:00:00	4	Temperatura máxima	18.5
137795	7	Sololá	713	San Lucas Tolimán	10	San Lucas Tolimán	7	Julio	2023-07-26T00:00:00	2024-11-08T02:00:00	3	Temperatura mínima	17.6
137796	7	Sololá	713	San Lucas Tolimán	10	San Lucas Tolimán	7	Julio	2023-07-26T00:00:00	2024-11-08T02:00:00	5	Humedad	70
137797	7	Sololá	713	San Lucas Tolimán	10	San Lucas Tolimán	7	Julio	2023-07-26T00:00:00	2024-11-08T02:00:00	6	Velocidad del viento	1.6
137798	7	Sololá	713	San Lucas Tolimán	10	San Lucas Tolimán	7	Julio	2023-07-26T00:00:00	2024-11-08T02:00:00	7	Dirección del viento	1.61
137799	7	Sololá	713	San Lucas Tolimán	10	San Lucas Tolimán	7	Julio	2023-07-26T00:00:00	2024-11-08T02:00:00	1	Precipitación	0
137800	7	Sololá	713	San Lucas Tolimán	10	San Lucas Tolimán	7	Julio	2023-07-26T00:00:00	2024-11-08T02:00:00	8	Radiación solar	0
137801	7	Sololá	713	San Lucas Tolimán	10	San Lucas Tolimán	7	Julio	2023-07-26T00:00:00	2024-11-08T03:00:00	2	Temperatura media	17.6
137802	7	Sololá	713	San Lucas Tolimán	10	San Lucas Tolimán	7	Julio	2023-07-26T00:00:00	2024-11-08T03:00:00	4	Temperatura máxima	17.6
137803	7	Sololá	713	San Lucas Tolimán	10	San Lucas Tolimán	7	Julio	2023-07-26T00:00:00	2024-11-08T03:00:00	3	Temperatura mínima	17.4
137804	7	Sololá	713	San Lucas Tolimán	10	San Lucas Tolimán	7	Julio	2023-07-26T00:00:00	2024-11-08T03:00:00	5	Humedad	67
137805	7	Sololá	713	San Lucas Tolimán	10	San Lucas Tolimán	7	Julio	2023-07-26T00:00:00	2024-11-08T03:00:00	6	Velocidad del viento	1.6
137806	7	Sololá	713	San Lucas Tolimán	10	San Lucas Tolimán	7	Julio	2023-07-26T00:00:00	2024-11-08T03:00:00	7	Dirección del viento	1.61
137807	7	Sololá	713	San Lucas Tolimán	10	San Lucas Tolimán	7	Julio	2023-07-26T00:00:00	2024-11-08T03:00:00	1	Precipitación	0
137808	7	Sololá	713	San Lucas Tolimán	10	San Lucas Tolimán	7	Julio	2023-07-26T00:00:00	2024-11-08T03:00:00	8	Radiación solar	0
137809	7	Sololá	713	San Lucas Tolimán	10	San Lucas Tolimán	7	Julio	2023-07-26T00:00:00	2024-11-08T04:00:00	2	Temperatura media	17.4
137810	7	Sololá	713	San Lucas Tolimán	10	San Lucas Tolimán	7	Julio	2023-07-26T00:00:00	2024-11-08T04:00:00	4	Temperatura máxima	17.7
137811	7	Sololá	713	San Lucas Tolimán	10	San Lucas Tolimán	7	Julio	2023-07-26T00:00:00	2024-11-08T04:00:00	3	Temperatura mínima	17.3
137812	7	Sololá	713	San Lucas Tolimán	10	San Lucas Tolimán	7	Julio	2023-07-26T00:00:00	2024-11-08T04:00:00	5	Humedad	67
137813	7	Sololá	713	San Lucas Tolimán	10	San Lucas Tolimán	7	Julio	2023-07-26T00:00:00	2024-11-08T04:00:00	6	Velocidad del viento	1.6
137814	7	Sololá	713	San Lucas Tolimán	10	San Lucas Tolimán	7	Julio	2023-07-26T00:00:00	2024-11-08T04:00:00	7	Dirección del viento	1.61
137815	7	Sololá	713	San Lucas Tolimán	10	San Lucas Tolimán	7	Julio	2023-07-26T00:00:00	2024-11-08T04:00:00	1	Precipitación	0
137816	7	Sololá	713	San Lucas Tolimán	10	San Lucas Tolimán	7	Julio	2023-07-26T00:00:00	2024-11-08T04:00:00	8	Radiación solar	0
137817	7	Sololá	713	San Lucas Tolimán	10	San Lucas Tolimán	7	Julio	2023-07-26T00:00:00	2024-11-08T05:00:00	2	Temperatura media	16.3
137818	7	Sololá	713	San Lucas Tolimán	10	San Lucas Tolimán	7	Julio	2023-07-26T00:00:00	2024-11-08T05:00:00	4	Temperatura máxima	17.4
137819	7	Sololá	713	San Lucas Tolimán	10	San Lucas Tolimán	7	Julio	2023-07-26T00:00:00	2024-11-08T05:00:00	3	Temperatura mínima	16.3
137820	7	Sololá	713	San Lucas Tolimán	10	San Lucas Tolimán	7	Julio	2023-07-26T00:00:00	2024-11-08T05:00:00	5	Humedad	72
137821	7	Sololá	713	San Lucas Tolimán	10	San Lucas Tolimán	7	Julio	2023-07-26T00:00:00	2024-11-08T05:00:00	6	Velocidad del viento	1.6
137822	7	Sololá	713	San Lucas Tolimán	10	San Lucas Tolimán	7	Julio	2023-07-26T00:00:00	2024-11-08T05:00:00	7	Dirección del viento	1.61
137823	7	Sololá	713	San Lucas Tolimán	10	San Lucas Tolimán	7	Julio	2023-07-26T00:00:00	2024-11-08T05:00:00	1	Precipitación	0
137824	7	Sololá	713	San Lucas Tolimán	10	San Lucas Tolimán	7	Julio	2023-07-26T00:00:00	2024-11-08T05:00:00	8	Radiación solar	0
137825	7	Sololá	713	San Lucas Tolimán	10	San Lucas Tolimán	7	Julio	2023-07-26T00:00:00	2024-11-08T06:00:00	2	Temperatura media	15.7
137826	7	Sololá	713	San Lucas Tolimán	10	San Lucas Tolimán	7	Julio	2023-07-26T00:00:00	2024-11-08T06:00:00	4	Temperatura máxima	16.4
137827	7	Sololá	713	San Lucas Tolimán	10	San Lucas Tolimán	7	Julio	2023-07-26T00:00:00	2024-11-08T06:00:00	3	Temperatura mínima	15.6
137828	7	Sololá	713	San Lucas Tolimán	10	San Lucas Tolimán	7	Julio	2023-07-26T00:00:00	2024-11-08T06:00:00	5	Humedad	78
137829	7	Sololá	713	San Lucas Tolimán	10	San Lucas Tolimán	7	Julio	2023-07-26T00:00:00	2024-11-08T06:00:00	6	Velocidad del viento	0
137830	7	Sololá	713	San Lucas Tolimán	10	San Lucas Tolimán	7	Julio	2023-07-26T00:00:00	2024-11-08T06:00:00	7	Dirección del viento	0
137831	7	Sololá	713	San Lucas Tolimán	10	San Lucas Tolimán	7	Julio	2023-07-26T00:00:00	2024-11-08T06:00:00	1	Precipitación	0
137832	7	Sololá	713	San Lucas Tolimán	10	San Lucas Tolimán	7	Julio	2023-07-26T00:00:00	2024-11-08T06:00:00	8	Radiación solar	1
137833	7	Sololá	713	San Lucas Tolimán	10	San Lucas Tolimán	7	Julio	2023-07-26T00:00:00	2024-11-08T07:00:00	2	Temperatura media	17.9
137834	7	Sololá	713	San Lucas Tolimán	10	San Lucas Tolimán	7	Julio	2023-07-26T00:00:00	2024-11-08T07:00:00	4	Temperatura máxima	17.9
137835	7	Sololá	713	San Lucas Tolimán	10	San Lucas Tolimán	7	Julio	2023-07-26T00:00:00	2024-11-08T07:00:00	3	Temperatura mínima	15.6
137836	7	Sololá	713	San Lucas Tolimán	10	San Lucas Tolimán	7	Julio	2023-07-26T00:00:00	2024-11-08T07:00:00	5	Humedad	72
137837	7	Sololá	713	San Lucas Tolimán	10	San Lucas Tolimán	7	Julio	2023-07-26T00:00:00	2024-11-08T07:00:00	6	Velocidad del viento	0
137838	7	Sololá	713	San Lucas Tolimán	10	San Lucas Tolimán	7	Julio	2023-07-26T00:00:00	2024-11-08T07:00:00	7	Dirección del viento	0
137839	7	Sololá	713	San Lucas Tolimán	10	San Lucas Tolimán	7	Julio	2023-07-26T00:00:00	2024-11-08T07:00:00	1	Precipitación	0
137840	7	Sololá	713	San Lucas Tolimán	10	San Lucas Tolimán	7	Julio	2023-07-26T00:00:00	2024-11-08T07:00:00	8	Radiación solar	47
137841	7	Sololá	713	San Lucas Tolimán	10	San Lucas Tolimán	7	Julio	2023-07-26T00:00:00	2024-11-08T08:00:00	2	Temperatura media	21.9
137842	7	Sololá	713	San Lucas Tolimán	10	San Lucas Tolimán	7	Julio	2023-07-26T00:00:00	2024-11-08T08:00:00	4	Temperatura máxima	22
137843	7	Sololá	713	San Lucas Tolimán	10	San Lucas Tolimán	7	Julio	2023-07-26T00:00:00	2024-11-08T08:00:00	3	Temperatura mínima	18
137844	7	Sololá	713	San Lucas Tolimán	10	San Lucas Tolimán	7	Julio	2023-07-26T00:00:00	2024-11-08T08:00:00	5	Humedad	54
137845	7	Sololá	713	San Lucas Tolimán	10	San Lucas Tolimán	7	Julio	2023-07-26T00:00:00	2024-11-08T08:00:00	6	Velocidad del viento	3.2
137846	7	Sololá	713	San Lucas Tolimán	10	San Lucas Tolimán	7	Julio	2023-07-26T00:00:00	2024-11-08T08:00:00	7	Dirección del viento	3.22
137847	7	Sololá	713	San Lucas Tolimán	10	San Lucas Tolimán	7	Julio	2023-07-26T00:00:00	2024-11-08T08:00:00	1	Precipitación	0
137848	7	Sololá	713	San Lucas Tolimán	10	San Lucas Tolimán	7	Julio	2023-07-26T00:00:00	2024-11-08T08:00:00	8	Radiación solar	167
137849	7	Sololá	713	San Lucas Tolimán	10	San Lucas Tolimán	7	Julio	2023-07-26T00:00:00	2024-11-08T09:00:00	2	Temperatura media	24
137850	7	Sololá	713	San Lucas Tolimán	10	San Lucas Tolimán	7	Julio	2023-07-26T00:00:00	2024-11-08T09:00:00	4	Temperatura máxima	24
137851	7	Sololá	713	San Lucas Tolimán	10	San Lucas Tolimán	7	Julio	2023-07-26T00:00:00	2024-11-08T09:00:00	3	Temperatura mínima	22
137852	7	Sololá	713	San Lucas Tolimán	10	San Lucas Tolimán	7	Julio	2023-07-26T00:00:00	2024-11-08T09:00:00	5	Humedad	52
137853	7	Sololá	713	San Lucas Tolimán	10	San Lucas Tolimán	7	Julio	2023-07-26T00:00:00	2024-11-08T09:00:00	6	Velocidad del viento	3.2
137854	7	Sololá	713	San Lucas Tolimán	10	San Lucas Tolimán	7	Julio	2023-07-26T00:00:00	2024-11-08T09:00:00	7	Dirección del viento	3.22
137855	7	Sololá	713	San Lucas Tolimán	10	San Lucas Tolimán	7	Julio	2023-07-26T00:00:00	2024-11-08T09:00:00	1	Precipitación	0
137856	7	Sololá	713	San Lucas Tolimán	10	San Lucas Tolimán	7	Julio	2023-07-26T00:00:00	2024-11-08T09:00:00	8	Radiación solar	265
137857	7	Sololá	713	San Lucas Tolimán	10	San Lucas Tolimán	7	Julio	2023-07-26T00:00:00	2024-11-08T10:00:00	2	Temperatura media	25.2
137858	7	Sololá	713	San Lucas Tolimán	10	San Lucas Tolimán	7	Julio	2023-07-26T00:00:00	2024-11-08T10:00:00	4	Temperatura máxima	25.2
137859	7	Sololá	713	San Lucas Tolimán	10	San Lucas Tolimán	7	Julio	2023-07-26T00:00:00	2024-11-08T10:00:00	3	Temperatura mínima	24
137860	7	Sololá	713	San Lucas Tolimán	10	San Lucas Tolimán	7	Julio	2023-07-26T00:00:00	2024-11-08T10:00:00	5	Humedad	49
137861	7	Sololá	713	San Lucas Tolimán	10	San Lucas Tolimán	7	Julio	2023-07-26T00:00:00	2024-11-08T10:00:00	6	Velocidad del viento	4.8
137862	7	Sololá	713	San Lucas Tolimán	10	San Lucas Tolimán	7	Julio	2023-07-26T00:00:00	2024-11-08T10:00:00	7	Dirección del viento	4.83
137863	7	Sololá	713	San Lucas Tolimán	10	San Lucas Tolimán	7	Julio	2023-07-26T00:00:00	2024-11-08T10:00:00	1	Precipitación	0
137864	7	Sololá	713	San Lucas Tolimán	10	San Lucas Tolimán	7	Julio	2023-07-26T00:00:00	2024-11-08T10:00:00	8	Radiación solar	486
137865	7	Sololá	713	San Lucas Tolimán	10	San Lucas Tolimán	7	Julio	2023-07-26T00:00:00	2024-11-08T11:00:00	2	Temperatura media	26.8
137866	7	Sololá	713	San Lucas Tolimán	10	San Lucas Tolimán	7	Julio	2023-07-26T00:00:00	2024-11-08T11:00:00	4	Temperatura máxima	27.1
137867	7	Sololá	713	San Lucas Tolimán	10	San Lucas Tolimán	7	Julio	2023-07-26T00:00:00	2024-11-08T11:00:00	3	Temperatura mínima	25.2
137868	7	Sololá	713	San Lucas Tolimán	10	San Lucas Tolimán	7	Julio	2023-07-26T00:00:00	2024-11-08T11:00:00	5	Humedad	45
137869	7	Sololá	713	San Lucas Tolimán	10	San Lucas Tolimán	7	Julio	2023-07-26T00:00:00	2024-11-08T11:00:00	6	Velocidad del viento	4.8
137870	7	Sololá	713	San Lucas Tolimán	10	San Lucas Tolimán	7	Julio	2023-07-26T00:00:00	2024-11-08T11:00:00	7	Dirección del viento	4.83
137871	7	Sololá	713	San Lucas Tolimán	10	San Lucas Tolimán	7	Julio	2023-07-26T00:00:00	2024-11-08T11:00:00	1	Precipitación	0
137872	7	Sololá	713	San Lucas Tolimán	10	San Lucas Tolimán	7	Julio	2023-07-26T00:00:00	2024-11-08T11:00:00	8	Radiación solar	766
137873	7	Sololá	713	San Lucas Tolimán	10	San Lucas Tolimán	7	Julio	2023-07-26T00:00:00	2024-11-08T12:00:00	2	Temperatura media	27.8
137874	7	Sololá	713	San Lucas Tolimán	10	San Lucas Tolimán	7	Julio	2023-07-26T00:00:00	2024-11-08T12:00:00	4	Temperatura máxima	27.9
137875	7	Sololá	713	San Lucas Tolimán	10	San Lucas Tolimán	7	Julio	2023-07-26T00:00:00	2024-11-08T12:00:00	3	Temperatura mínima	26.6
137876	7	Sololá	713	San Lucas Tolimán	10	San Lucas Tolimán	7	Julio	2023-07-26T00:00:00	2024-11-08T12:00:00	5	Humedad	44
137877	7	Sololá	713	San Lucas Tolimán	10	San Lucas Tolimán	7	Julio	2023-07-26T00:00:00	2024-11-08T12:00:00	6	Velocidad del viento	4.8
137878	7	Sololá	713	San Lucas Tolimán	10	San Lucas Tolimán	7	Julio	2023-07-26T00:00:00	2024-11-08T12:00:00	7	Dirección del viento	4.83
137879	7	Sololá	713	San Lucas Tolimán	10	San Lucas Tolimán	7	Julio	2023-07-26T00:00:00	2024-11-08T12:00:00	1	Precipitación	0
137880	7	Sololá	713	San Lucas Tolimán	10	San Lucas Tolimán	7	Julio	2023-07-26T00:00:00	2024-11-08T12:00:00	8	Radiación solar	943
137881	7	Sololá	713	San Lucas Tolimán	10	San Lucas Tolimán	7	Julio	2023-07-26T00:00:00	2024-11-08T13:00:00	2	Temperatura media	26.3
137882	7	Sololá	713	San Lucas Tolimán	10	San Lucas Tolimán	7	Julio	2023-07-26T00:00:00	2024-11-08T13:00:00	4	Temperatura máxima	27.9
137883	7	Sololá	713	San Lucas Tolimán	10	San Lucas Tolimán	7	Julio	2023-07-26T00:00:00	2024-11-08T13:00:00	3	Temperatura mínima	26.3
137884	7	Sololá	713	San Lucas Tolimán	10	San Lucas Tolimán	7	Julio	2023-07-26T00:00:00	2024-11-08T13:00:00	5	Humedad	71
137885	7	Sololá	713	San Lucas Tolimán	10	San Lucas Tolimán	7	Julio	2023-07-26T00:00:00	2024-11-08T13:00:00	6	Velocidad del viento	8
137886	7	Sololá	713	San Lucas Tolimán	10	San Lucas Tolimán	7	Julio	2023-07-26T00:00:00	2024-11-08T13:00:00	7	Dirección del viento	8.05
137887	7	Sololá	713	San Lucas Tolimán	10	San Lucas Tolimán	7	Julio	2023-07-26T00:00:00	2024-11-08T13:00:00	1	Precipitación	0
137888	7	Sololá	713	San Lucas Tolimán	10	San Lucas Tolimán	7	Julio	2023-07-26T00:00:00	2024-11-08T13:00:00	8	Radiación solar	670
137889	7	Sololá	713	San Lucas Tolimán	10	San Lucas Tolimán	7	Julio	2023-07-26T00:00:00	2024-11-08T14:00:00	2	Temperatura media	25.3
137890	7	Sololá	713	San Lucas Tolimán	10	San Lucas Tolimán	7	Julio	2023-07-26T00:00:00	2024-11-08T14:00:00	4	Temperatura máxima	26.6
137891	7	Sololá	713	San Lucas Tolimán	10	San Lucas Tolimán	7	Julio	2023-07-26T00:00:00	2024-11-08T14:00:00	3	Temperatura mínima	25.3
137892	7	Sololá	713	San Lucas Tolimán	10	San Lucas Tolimán	7	Julio	2023-07-26T00:00:00	2024-11-08T14:00:00	5	Humedad	75
137893	7	Sololá	713	San Lucas Tolimán	10	San Lucas Tolimán	7	Julio	2023-07-26T00:00:00	2024-11-08T14:00:00	6	Velocidad del viento	11.3
137894	7	Sololá	713	San Lucas Tolimán	10	San Lucas Tolimán	7	Julio	2023-07-26T00:00:00	2024-11-08T14:00:00	7	Dirección del viento	11.27
137895	7	Sololá	713	San Lucas Tolimán	10	San Lucas Tolimán	7	Julio	2023-07-26T00:00:00	2024-11-08T14:00:00	1	Precipitación	0
137896	7	Sololá	713	San Lucas Tolimán	10	San Lucas Tolimán	7	Julio	2023-07-26T00:00:00	2024-11-08T14:00:00	8	Radiación solar	141
137897	7	Sololá	713	San Lucas Tolimán	10	San Lucas Tolimán	7	Julio	2023-07-26T00:00:00	2024-11-08T15:00:00	2	Temperatura media	25.6
137898	7	Sololá	713	San Lucas Tolimán	10	San Lucas Tolimán	7	Julio	2023-07-26T00:00:00	2024-11-08T15:00:00	4	Temperatura máxima	26.2
137899	7	Sololá	713	San Lucas Tolimán	10	San Lucas Tolimán	7	Julio	2023-07-26T00:00:00	2024-11-08T15:00:00	3	Temperatura mínima	25.3
137900	7	Sololá	713	San Lucas Tolimán	10	San Lucas Tolimán	7	Julio	2023-07-26T00:00:00	2024-11-08T15:00:00	5	Humedad	75
137901	7	Sololá	713	San Lucas Tolimán	10	San Lucas Tolimán	7	Julio	2023-07-26T00:00:00	2024-11-08T15:00:00	6	Velocidad del viento	9.7
137902	7	Sololá	713	San Lucas Tolimán	10	San Lucas Tolimán	7	Julio	2023-07-26T00:00:00	2024-11-08T15:00:00	7	Dirección del viento	9.66
137903	7	Sololá	713	San Lucas Tolimán	10	San Lucas Tolimán	7	Julio	2023-07-26T00:00:00	2024-11-08T15:00:00	1	Precipitación	0
137904	7	Sololá	713	San Lucas Tolimán	10	San Lucas Tolimán	7	Julio	2023-07-26T00:00:00	2024-11-08T15:00:00	8	Radiación solar	187
137905	7	Sololá	713	San Lucas Tolimán	10	San Lucas Tolimán	7	Julio	2023-07-26T00:00:00	2024-11-08T16:00:00	2	Temperatura media	25.6
137906	7	Sololá	713	San Lucas Tolimán	10	San Lucas Tolimán	7	Julio	2023-07-26T00:00:00	2024-11-08T16:00:00	4	Temperatura máxima	26.9
137907	7	Sololá	713	San Lucas Tolimán	10	San Lucas Tolimán	7	Julio	2023-07-26T00:00:00	2024-11-08T16:00:00	3	Temperatura mínima	25.6
137908	7	Sololá	713	San Lucas Tolimán	10	San Lucas Tolimán	7	Julio	2023-07-26T00:00:00	2024-11-08T16:00:00	5	Humedad	51
137909	7	Sololá	713	San Lucas Tolimán	10	San Lucas Tolimán	7	Julio	2023-07-26T00:00:00	2024-11-08T16:00:00	6	Velocidad del viento	8
137910	7	Sololá	713	San Lucas Tolimán	10	San Lucas Tolimán	7	Julio	2023-07-26T00:00:00	2024-11-08T16:00:00	7	Dirección del viento	8.05
137911	7	Sololá	713	San Lucas Tolimán	10	San Lucas Tolimán	7	Julio	2023-07-26T00:00:00	2024-11-08T16:00:00	1	Precipitación	0
137912	7	Sololá	713	San Lucas Tolimán	10	San Lucas Tolimán	7	Julio	2023-07-26T00:00:00	2024-11-08T16:00:00	8	Radiación solar	42
137913	7	Sololá	713	San Lucas Tolimán	10	San Lucas Tolimán	7	Julio	2023-07-26T00:00:00	2024-11-08T17:00:00	2	Temperatura media	25.7
137914	7	Sololá	713	San Lucas Tolimán	10	San Lucas Tolimán	7	Julio	2023-07-26T00:00:00	2024-11-08T17:00:00	4	Temperatura máxima	26.2
137915	7	Sololá	713	San Lucas Tolimán	10	San Lucas Tolimán	7	Julio	2023-07-26T00:00:00	2024-11-08T17:00:00	3	Temperatura mínima	25.2
137916	7	Sololá	713	San Lucas Tolimán	10	San Lucas Tolimán	7	Julio	2023-07-26T00:00:00	2024-11-08T17:00:00	5	Humedad	50
137917	7	Sololá	713	San Lucas Tolimán	10	San Lucas Tolimán	7	Julio	2023-07-26T00:00:00	2024-11-08T17:00:00	6	Velocidad del viento	11.3
137918	7	Sololá	713	San Lucas Tolimán	10	San Lucas Tolimán	7	Julio	2023-07-26T00:00:00	2024-11-08T17:00:00	7	Dirección del viento	11.27
137919	7	Sololá	713	San Lucas Tolimán	10	San Lucas Tolimán	7	Julio	2023-07-26T00:00:00	2024-11-08T17:00:00	1	Precipitación	0
137920	7	Sololá	713	San Lucas Tolimán	10	San Lucas Tolimán	7	Julio	2023-07-26T00:00:00	2024-11-08T17:00:00	8	Radiación solar	136
137921	7	Sololá	713	San Lucas Tolimán	10	San Lucas Tolimán	7	Julio	2023-07-26T00:00:00	2024-11-08T18:00:00	2	Temperatura media	24.5
137922	7	Sololá	713	San Lucas Tolimán	10	San Lucas Tolimán	7	Julio	2023-07-26T00:00:00	2024-11-08T18:00:00	4	Temperatura máxima	25.8
137923	7	Sololá	713	San Lucas Tolimán	10	San Lucas Tolimán	7	Julio	2023-07-26T00:00:00	2024-11-08T18:00:00	3	Temperatura mínima	24.5
137924	7	Sololá	713	San Lucas Tolimán	10	San Lucas Tolimán	7	Julio	2023-07-26T00:00:00	2024-11-08T18:00:00	5	Humedad	54
137925	7	Sololá	713	San Lucas Tolimán	10	San Lucas Tolimán	7	Julio	2023-07-26T00:00:00	2024-11-08T18:00:00	6	Velocidad del viento	9.7
137926	7	Sololá	713	San Lucas Tolimán	10	San Lucas Tolimán	7	Julio	2023-07-26T00:00:00	2024-11-08T18:00:00	7	Dirección del viento	9.66
137927	7	Sololá	713	San Lucas Tolimán	10	San Lucas Tolimán	7	Julio	2023-07-26T00:00:00	2024-11-08T18:00:00	1	Precipitación	0
137928	7	Sololá	713	San Lucas Tolimán	10	San Lucas Tolimán	7	Julio	2023-07-26T00:00:00	2024-11-08T18:00:00	8	Radiación solar	127
137929	7	Sololá	713	San Lucas Tolimán	10	San Lucas Tolimán	7	Julio	2023-07-26T00:00:00	2024-11-08T19:00:00	2	Temperatura media	22.7
137930	7	Sololá	713	San Lucas Tolimán	10	San Lucas Tolimán	7	Julio	2023-07-26T00:00:00	2024-11-08T19:00:00	4	Temperatura máxima	24.5
137931	7	Sololá	713	San Lucas Tolimán	10	San Lucas Tolimán	7	Julio	2023-07-26T00:00:00	2024-11-08T19:00:00	3	Temperatura mínima	22.7
137932	7	Sololá	713	San Lucas Tolimán	10	San Lucas Tolimán	7	Julio	2023-07-26T00:00:00	2024-11-08T19:00:00	5	Humedad	61
137933	7	Sololá	713	San Lucas Tolimán	10	San Lucas Tolimán	7	Julio	2023-07-26T00:00:00	2024-11-08T19:00:00	6	Velocidad del viento	6.4
137934	7	Sololá	713	San Lucas Tolimán	10	San Lucas Tolimán	7	Julio	2023-07-26T00:00:00	2024-11-08T19:00:00	7	Dirección del viento	6.44
137935	7	Sololá	713	San Lucas Tolimán	10	San Lucas Tolimán	7	Julio	2023-07-26T00:00:00	2024-11-08T19:00:00	1	Precipitación	0
137936	7	Sololá	713	San Lucas Tolimán	10	San Lucas Tolimán	7	Julio	2023-07-26T00:00:00	2024-11-08T19:00:00	8	Radiación solar	0
137937	7	Sololá	713	San Lucas Tolimán	10	San Lucas Tolimán	7	Julio	2023-07-26T00:00:00	2024-11-08T20:00:00	2	Temperatura media	21.6
137938	7	Sololá	713	San Lucas Tolimán	10	San Lucas Tolimán	7	Julio	2023-07-26T00:00:00	2024-11-08T20:00:00	4	Temperatura máxima	22.7
137939	7	Sololá	713	San Lucas Tolimán	10	San Lucas Tolimán	7	Julio	2023-07-26T00:00:00	2024-11-08T20:00:00	3	Temperatura mínima	21.5
137940	7	Sololá	713	San Lucas Tolimán	10	San Lucas Tolimán	7	Julio	2023-07-26T00:00:00	2024-11-08T20:00:00	5	Humedad	64
137941	7	Sololá	713	San Lucas Tolimán	10	San Lucas Tolimán	7	Julio	2023-07-26T00:00:00	2024-11-08T20:00:00	6	Velocidad del viento	1.6
137942	7	Sololá	713	San Lucas Tolimán	10	San Lucas Tolimán	7	Julio	2023-07-26T00:00:00	2024-11-08T20:00:00	7	Dirección del viento	1.61
137943	7	Sololá	713	San Lucas Tolimán	10	San Lucas Tolimán	7	Julio	2023-07-26T00:00:00	2024-11-08T20:00:00	1	Precipitación	0
137944	7	Sololá	713	San Lucas Tolimán	10	San Lucas Tolimán	7	Julio	2023-07-26T00:00:00	2024-11-08T20:00:00	8	Radiación solar	0
137945	7	Sololá	713	San Lucas Tolimán	10	San Lucas Tolimán	7	Julio	2023-07-26T00:00:00	2024-11-08T21:00:00	2	Temperatura media	21.3
137946	7	Sololá	713	San Lucas Tolimán	10	San Lucas Tolimán	7	Julio	2023-07-26T00:00:00	2024-11-08T21:00:00	4	Temperatura máxima	21.7
137947	7	Sololá	713	San Lucas Tolimán	10	San Lucas Tolimán	7	Julio	2023-07-26T00:00:00	2024-11-08T21:00:00	3	Temperatura mínima	21.3
137948	7	Sololá	713	San Lucas Tolimán	10	San Lucas Tolimán	7	Julio	2023-07-26T00:00:00	2024-11-08T21:00:00	5	Humedad	64
137949	7	Sololá	713	San Lucas Tolimán	10	San Lucas Tolimán	7	Julio	2023-07-26T00:00:00	2024-11-08T21:00:00	6	Velocidad del viento	3.2
137950	7	Sololá	713	San Lucas Tolimán	10	San Lucas Tolimán	7	Julio	2023-07-26T00:00:00	2024-11-08T21:00:00	7	Dirección del viento	3.22
137951	7	Sololá	713	San Lucas Tolimán	10	San Lucas Tolimán	7	Julio	2023-07-26T00:00:00	2024-11-08T21:00:00	1	Precipitación	0
137952	7	Sololá	713	San Lucas Tolimán	10	San Lucas Tolimán	7	Julio	2023-07-26T00:00:00	2024-11-08T21:00:00	8	Radiación solar	0
137953	7	Sololá	713	San Lucas Tolimán	10	San Lucas Tolimán	7	Julio	2023-07-26T00:00:00	2024-11-08T22:00:00	2	Temperatura media	21
137954	7	Sololá	713	San Lucas Tolimán	10	San Lucas Tolimán	7	Julio	2023-07-26T00:00:00	2024-11-08T22:00:00	4	Temperatura máxima	21.4
137955	7	Sololá	713	San Lucas Tolimán	10	San Lucas Tolimán	7	Julio	2023-07-26T00:00:00	2024-11-08T22:00:00	3	Temperatura mínima	20.8
137956	7	Sololá	713	San Lucas Tolimán	10	San Lucas Tolimán	7	Julio	2023-07-26T00:00:00	2024-11-08T22:00:00	5	Humedad	67
137957	7	Sololá	713	San Lucas Tolimán	10	San Lucas Tolimán	7	Julio	2023-07-26T00:00:00	2024-11-08T22:00:00	6	Velocidad del viento	3.2
137958	7	Sololá	713	San Lucas Tolimán	10	San Lucas Tolimán	7	Julio	2023-07-26T00:00:00	2024-11-08T22:00:00	7	Dirección del viento	3.22
137959	7	Sololá	713	San Lucas Tolimán	10	San Lucas Tolimán	7	Julio	2023-07-26T00:00:00	2024-11-08T22:00:00	1	Precipitación	0
137960	7	Sololá	713	San Lucas Tolimán	10	San Lucas Tolimán	7	Julio	2023-07-26T00:00:00	2024-11-08T22:00:00	8	Radiación solar	0
137961	7	Sololá	713	San Lucas Tolimán	10	San Lucas Tolimán	7	Julio	2023-07-26T00:00:00	2024-11-08T23:00:00	2	Temperatura media	20.9
137962	7	Sololá	713	San Lucas Tolimán	10	San Lucas Tolimán	7	Julio	2023-07-26T00:00:00	2024-11-08T23:00:00	4	Temperatura máxima	21.1
137963	7	Sololá	713	San Lucas Tolimán	10	San Lucas Tolimán	7	Julio	2023-07-26T00:00:00	2024-11-08T23:00:00	3	Temperatura mínima	20.8
137964	7	Sololá	713	San Lucas Tolimán	10	San Lucas Tolimán	7	Julio	2023-07-26T00:00:00	2024-11-08T23:00:00	5	Humedad	50
137965	7	Sololá	713	San Lucas Tolimán	10	San Lucas Tolimán	7	Julio	2023-07-26T00:00:00	2024-11-08T23:00:00	6	Velocidad del viento	8
137966	7	Sololá	713	San Lucas Tolimán	10	San Lucas Tolimán	7	Julio	2023-07-26T00:00:00	2024-11-08T23:00:00	7	Dirección del viento	8.05
137967	7	Sololá	713	San Lucas Tolimán	10	San Lucas Tolimán	7	Julio	2023-07-26T00:00:00	2024-11-08T23:00:00	1	Precipitación	0
137968	7	Sololá	713	San Lucas Tolimán	10	San Lucas Tolimán	7	Julio	2023-07-26T00:00:00	2024-11-08T23:00:00	8	Radiación solar	0
137969	7	Sololá	713	San Lucas Tolimán	10	San Lucas Tolimán	7	Julio	2023-07-27T00:00:00	2024-11-08T00:00:00	2	Temperatura media	19.2
137970	7	Sololá	713	San Lucas Tolimán	10	San Lucas Tolimán	7	Julio	2023-07-27T00:00:00	2024-11-08T00:00:00	4	Temperatura máxima	20.9
137971	7	Sololá	713	San Lucas Tolimán	10	San Lucas Tolimán	7	Julio	2023-07-27T00:00:00	2024-11-08T00:00:00	3	Temperatura mínima	19.2
137972	7	Sololá	713	San Lucas Tolimán	10	San Lucas Tolimán	7	Julio	2023-07-27T00:00:00	2024-11-08T00:00:00	5	Humedad	56
137973	7	Sololá	713	San Lucas Tolimán	10	San Lucas Tolimán	7	Julio	2023-07-27T00:00:00	2024-11-08T00:00:00	6	Velocidad del viento	3.2
137974	7	Sololá	713	San Lucas Tolimán	10	San Lucas Tolimán	7	Julio	2023-07-27T00:00:00	2024-11-08T00:00:00	7	Dirección del viento	3.22
137975	7	Sololá	713	San Lucas Tolimán	10	San Lucas Tolimán	7	Julio	2023-07-27T00:00:00	2024-11-08T00:00:00	1	Precipitación	0
137976	7	Sololá	713	San Lucas Tolimán	10	San Lucas Tolimán	7	Julio	2023-07-27T00:00:00	2024-11-08T00:00:00	8	Radiación solar	0
137977	7	Sololá	713	San Lucas Tolimán	10	San Lucas Tolimán	7	Julio	2023-07-27T00:00:00	2024-11-08T01:00:00	2	Temperatura media	18.8
137978	7	Sololá	713	San Lucas Tolimán	10	San Lucas Tolimán	7	Julio	2023-07-27T00:00:00	2024-11-08T01:00:00	4	Temperatura máxima	19.2
137979	7	Sololá	713	San Lucas Tolimán	10	San Lucas Tolimán	7	Julio	2023-07-27T00:00:00	2024-11-08T01:00:00	3	Temperatura mínima	18.6
137980	7	Sololá	713	San Lucas Tolimán	10	San Lucas Tolimán	7	Julio	2023-07-27T00:00:00	2024-11-08T01:00:00	5	Humedad	57
137981	7	Sololá	713	San Lucas Tolimán	10	San Lucas Tolimán	7	Julio	2023-07-27T00:00:00	2024-11-08T01:00:00	6	Velocidad del viento	1.6
137982	7	Sololá	713	San Lucas Tolimán	10	San Lucas Tolimán	7	Julio	2023-07-27T00:00:00	2024-11-08T01:00:00	7	Dirección del viento	1.61
137983	7	Sololá	713	San Lucas Tolimán	10	San Lucas Tolimán	7	Julio	2023-07-27T00:00:00	2024-11-08T01:00:00	1	Precipitación	0
137984	7	Sololá	713	San Lucas Tolimán	10	San Lucas Tolimán	7	Julio	2023-07-27T00:00:00	2024-11-08T01:00:00	8	Radiación solar	0
137985	7	Sololá	713	San Lucas Tolimán	10	San Lucas Tolimán	7	Julio	2023-07-27T00:00:00	2024-11-08T02:00:00	2	Temperatura media	18.7
137986	7	Sololá	713	San Lucas Tolimán	10	San Lucas Tolimán	7	Julio	2023-07-27T00:00:00	2024-11-08T02:00:00	4	Temperatura máxima	19.1
137987	7	Sololá	713	San Lucas Tolimán	10	San Lucas Tolimán	7	Julio	2023-07-27T00:00:00	2024-11-08T02:00:00	3	Temperatura mínima	18.7
137988	7	Sololá	713	San Lucas Tolimán	10	San Lucas Tolimán	7	Julio	2023-07-27T00:00:00	2024-11-08T02:00:00	5	Humedad	58
137989	7	Sololá	713	San Lucas Tolimán	10	San Lucas Tolimán	7	Julio	2023-07-27T00:00:00	2024-11-08T02:00:00	6	Velocidad del viento	1.6
137990	7	Sololá	713	San Lucas Tolimán	10	San Lucas Tolimán	7	Julio	2023-07-27T00:00:00	2024-11-08T02:00:00	7	Dirección del viento	1.61
137991	7	Sololá	713	San Lucas Tolimán	10	San Lucas Tolimán	7	Julio	2023-07-27T00:00:00	2024-11-08T02:00:00	1	Precipitación	0
137992	7	Sololá	713	San Lucas Tolimán	10	San Lucas Tolimán	7	Julio	2023-07-27T00:00:00	2024-11-08T02:00:00	8	Radiación solar	0
137993	7	Sololá	713	San Lucas Tolimán	10	San Lucas Tolimán	7	Julio	2023-07-27T00:00:00	2024-11-08T03:00:00	2	Temperatura media	18.8
137994	7	Sololá	713	San Lucas Tolimán	10	San Lucas Tolimán	7	Julio	2023-07-27T00:00:00	2024-11-08T03:00:00	4	Temperatura máxima	18.8
137995	7	Sololá	713	San Lucas Tolimán	10	San Lucas Tolimán	7	Julio	2023-07-27T00:00:00	2024-11-08T03:00:00	3	Temperatura mínima	17.8
137996	7	Sololá	713	San Lucas Tolimán	10	San Lucas Tolimán	7	Julio	2023-07-27T00:00:00	2024-11-08T03:00:00	5	Humedad	56
137997	7	Sololá	713	San Lucas Tolimán	10	San Lucas Tolimán	7	Julio	2023-07-27T00:00:00	2024-11-08T03:00:00	6	Velocidad del viento	1.6
137998	7	Sololá	713	San Lucas Tolimán	10	San Lucas Tolimán	7	Julio	2023-07-27T00:00:00	2024-11-08T03:00:00	7	Dirección del viento	1.61
137999	7	Sololá	713	San Lucas Tolimán	10	San Lucas Tolimán	7	Julio	2023-07-27T00:00:00	2024-11-08T03:00:00	1	Precipitación	0
138000	7	Sololá	713	San Lucas Tolimán	10	San Lucas Tolimán	7	Julio	2023-07-27T00:00:00	2024-11-08T03:00:00	8	Radiación solar	0
138001	7	Sololá	713	San Lucas Tolimán	10	San Lucas Tolimán	7	Julio	2023-07-27T00:00:00	2024-11-08T04:00:00	2	Temperatura media	18.1
138002	7	Sololá	713	San Lucas Tolimán	10	San Lucas Tolimán	7	Julio	2023-07-27T00:00:00	2024-11-08T04:00:00	4	Temperatura máxima	18.8
138003	7	Sololá	713	San Lucas Tolimán	10	San Lucas Tolimán	7	Julio	2023-07-27T00:00:00	2024-11-08T04:00:00	3	Temperatura mínima	18.1
138004	7	Sololá	713	San Lucas Tolimán	10	San Lucas Tolimán	7	Julio	2023-07-27T00:00:00	2024-11-08T04:00:00	5	Humedad	57
138005	7	Sololá	713	San Lucas Tolimán	10	San Lucas Tolimán	7	Julio	2023-07-27T00:00:00	2024-11-08T04:00:00	6	Velocidad del viento	3.2
138006	7	Sololá	713	San Lucas Tolimán	10	San Lucas Tolimán	7	Julio	2023-07-27T00:00:00	2024-11-08T04:00:00	7	Dirección del viento	3.22
138007	7	Sololá	713	San Lucas Tolimán	10	San Lucas Tolimán	7	Julio	2023-07-27T00:00:00	2024-11-08T04:00:00	1	Precipitación	0
138008	7	Sololá	713	San Lucas Tolimán	10	San Lucas Tolimán	7	Julio	2023-07-27T00:00:00	2024-11-08T04:00:00	8	Radiación solar	0
138009	7	Sololá	713	San Lucas Tolimán	10	San Lucas Tolimán	7	Julio	2023-07-27T00:00:00	2024-11-08T05:00:00	2	Temperatura media	18.1
138010	7	Sololá	713	San Lucas Tolimán	10	San Lucas Tolimán	7	Julio	2023-07-27T00:00:00	2024-11-08T05:00:00	4	Temperatura máxima	18.1
138011	7	Sololá	713	San Lucas Tolimán	10	San Lucas Tolimán	7	Julio	2023-07-27T00:00:00	2024-11-08T05:00:00	3	Temperatura mínima	17.7
138012	7	Sololá	713	San Lucas Tolimán	10	San Lucas Tolimán	7	Julio	2023-07-27T00:00:00	2024-11-08T05:00:00	5	Humedad	56
138013	7	Sololá	713	San Lucas Tolimán	10	San Lucas Tolimán	7	Julio	2023-07-27T00:00:00	2024-11-08T05:00:00	6	Velocidad del viento	1.6
138014	7	Sololá	713	San Lucas Tolimán	10	San Lucas Tolimán	7	Julio	2023-07-27T00:00:00	2024-11-08T05:00:00	7	Dirección del viento	1.61
138015	7	Sololá	713	San Lucas Tolimán	10	San Lucas Tolimán	7	Julio	2023-07-27T00:00:00	2024-11-08T05:00:00	1	Precipitación	0
138016	7	Sololá	713	San Lucas Tolimán	10	San Lucas Tolimán	7	Julio	2023-07-27T00:00:00	2024-11-08T05:00:00	8	Radiación solar	0
138017	7	Sololá	713	San Lucas Tolimán	10	San Lucas Tolimán	7	Julio	2023-07-27T00:00:00	2024-11-08T06:00:00	2	Temperatura media	17.3
138018	7	Sololá	713	San Lucas Tolimán	10	San Lucas Tolimán	7	Julio	2023-07-27T00:00:00	2024-11-08T06:00:00	4	Temperatura máxima	18.5
138019	7	Sololá	713	San Lucas Tolimán	10	San Lucas Tolimán	7	Julio	2023-07-27T00:00:00	2024-11-08T06:00:00	3	Temperatura mínima	17.1
138020	7	Sololá	713	San Lucas Tolimán	10	San Lucas Tolimán	7	Julio	2023-07-27T00:00:00	2024-11-08T06:00:00	5	Humedad	58
138021	7	Sololá	713	San Lucas Tolimán	10	San Lucas Tolimán	7	Julio	2023-07-27T00:00:00	2024-11-08T06:00:00	6	Velocidad del viento	1.6
138022	7	Sololá	713	San Lucas Tolimán	10	San Lucas Tolimán	7	Julio	2023-07-27T00:00:00	2024-11-08T06:00:00	7	Dirección del viento	1.61
138023	7	Sololá	713	San Lucas Tolimán	10	San Lucas Tolimán	7	Julio	2023-07-27T00:00:00	2024-11-08T06:00:00	1	Precipitación	0
138024	7	Sololá	713	San Lucas Tolimán	10	San Lucas Tolimán	7	Julio	2023-07-27T00:00:00	2024-11-08T06:00:00	8	Radiación solar	1
138025	7	Sololá	713	San Lucas Tolimán	10	San Lucas Tolimán	7	Julio	2023-07-27T00:00:00	2024-11-08T07:00:00	2	Temperatura media	18.7
138026	7	Sololá	713	San Lucas Tolimán	10	San Lucas Tolimán	7	Julio	2023-07-27T00:00:00	2024-11-08T07:00:00	4	Temperatura máxima	18.7
138027	7	Sololá	713	San Lucas Tolimán	10	San Lucas Tolimán	7	Julio	2023-07-27T00:00:00	2024-11-08T07:00:00	3	Temperatura mínima	16.9
138028	7	Sololá	713	San Lucas Tolimán	10	San Lucas Tolimán	7	Julio	2023-07-27T00:00:00	2024-11-08T07:00:00	5	Humedad	56
138029	7	Sololá	713	San Lucas Tolimán	10	San Lucas Tolimán	7	Julio	2023-07-27T00:00:00	2024-11-08T07:00:00	6	Velocidad del viento	3.2
138030	7	Sololá	713	San Lucas Tolimán	10	San Lucas Tolimán	7	Julio	2023-07-27T00:00:00	2024-11-08T07:00:00	7	Dirección del viento	3.22
138031	7	Sololá	713	San Lucas Tolimán	10	San Lucas Tolimán	7	Julio	2023-07-27T00:00:00	2024-11-08T07:00:00	1	Precipitación	0
138032	7	Sololá	713	San Lucas Tolimán	10	San Lucas Tolimán	7	Julio	2023-07-27T00:00:00	2024-11-08T07:00:00	8	Radiación solar	68
138033	7	Sololá	713	San Lucas Tolimán	10	San Lucas Tolimán	7	Julio	2023-07-27T00:00:00	2024-11-08T08:00:00	2	Temperatura media	21.6
138034	7	Sololá	713	San Lucas Tolimán	10	San Lucas Tolimán	7	Julio	2023-07-27T00:00:00	2024-11-08T08:00:00	4	Temperatura máxima	21.6
138035	7	Sololá	713	San Lucas Tolimán	10	San Lucas Tolimán	7	Julio	2023-07-27T00:00:00	2024-11-08T08:00:00	3	Temperatura mínima	18.7
138036	7	Sololá	713	San Lucas Tolimán	10	San Lucas Tolimán	7	Julio	2023-07-27T00:00:00	2024-11-08T08:00:00	5	Humedad	50
138037	7	Sololá	713	San Lucas Tolimán	10	San Lucas Tolimán	7	Julio	2023-07-27T00:00:00	2024-11-08T08:00:00	6	Velocidad del viento	3.2
138038	7	Sololá	713	San Lucas Tolimán	10	San Lucas Tolimán	7	Julio	2023-07-27T00:00:00	2024-11-08T08:00:00	7	Dirección del viento	3.22
138039	7	Sololá	713	San Lucas Tolimán	10	San Lucas Tolimán	7	Julio	2023-07-27T00:00:00	2024-11-08T08:00:00	1	Precipitación	0
138040	7	Sololá	713	San Lucas Tolimán	10	San Lucas Tolimán	7	Julio	2023-07-27T00:00:00	2024-11-08T08:00:00	8	Radiación solar	338
138041	7	Sololá	713	San Lucas Tolimán	10	San Lucas Tolimán	7	Julio	2023-07-27T00:00:00	2024-11-08T09:00:00	2	Temperatura media	22.6
138042	7	Sololá	713	San Lucas Tolimán	10	San Lucas Tolimán	7	Julio	2023-07-27T00:00:00	2024-11-08T09:00:00	4	Temperatura máxima	22.6
138043	7	Sololá	713	San Lucas Tolimán	10	San Lucas Tolimán	7	Julio	2023-07-27T00:00:00	2024-11-08T09:00:00	3	Temperatura mínima	21.7
138044	7	Sololá	713	San Lucas Tolimán	10	San Lucas Tolimán	7	Julio	2023-07-27T00:00:00	2024-11-08T09:00:00	5	Humedad	46
138045	7	Sololá	713	San Lucas Tolimán	10	San Lucas Tolimán	7	Julio	2023-07-27T00:00:00	2024-11-08T09:00:00	6	Velocidad del viento	4.8
138046	7	Sololá	713	San Lucas Tolimán	10	San Lucas Tolimán	7	Julio	2023-07-27T00:00:00	2024-11-08T09:00:00	7	Dirección del viento	4.83
138047	7	Sololá	713	San Lucas Tolimán	10	San Lucas Tolimán	7	Julio	2023-07-27T00:00:00	2024-11-08T09:00:00	1	Precipitación	0
138048	7	Sololá	713	San Lucas Tolimán	10	San Lucas Tolimán	7	Julio	2023-07-27T00:00:00	2024-11-08T09:00:00	8	Radiación solar	575
138049	7	Sololá	713	San Lucas Tolimán	10	San Lucas Tolimán	7	Julio	2023-07-27T00:00:00	2024-11-08T10:00:00	2	Temperatura media	24.4
138050	7	Sololá	713	San Lucas Tolimán	10	San Lucas Tolimán	7	Julio	2023-07-27T00:00:00	2024-11-08T10:00:00	4	Temperatura máxima	24.5
138051	7	Sololá	713	San Lucas Tolimán	10	San Lucas Tolimán	7	Julio	2023-07-27T00:00:00	2024-11-08T10:00:00	3	Temperatura mínima	22.6
138052	7	Sololá	713	San Lucas Tolimán	10	San Lucas Tolimán	7	Julio	2023-07-27T00:00:00	2024-11-08T10:00:00	5	Humedad	46
138053	7	Sololá	713	San Lucas Tolimán	10	San Lucas Tolimán	7	Julio	2023-07-27T00:00:00	2024-11-08T10:00:00	6	Velocidad del viento	6.4
138054	7	Sololá	713	San Lucas Tolimán	10	San Lucas Tolimán	7	Julio	2023-07-27T00:00:00	2024-11-08T10:00:00	7	Dirección del viento	6.44
138055	7	Sololá	713	San Lucas Tolimán	10	San Lucas Tolimán	7	Julio	2023-07-27T00:00:00	2024-11-08T10:00:00	1	Precipitación	0
138056	7	Sololá	713	San Lucas Tolimán	10	San Lucas Tolimán	7	Julio	2023-07-27T00:00:00	2024-11-08T10:00:00	8	Radiación solar	664
138057	7	Sololá	713	San Lucas Tolimán	10	San Lucas Tolimán	7	Julio	2023-07-27T00:00:00	2024-11-08T11:00:00	2	Temperatura media	25.1
138058	7	Sololá	713	San Lucas Tolimán	10	San Lucas Tolimán	7	Julio	2023-07-27T00:00:00	2024-11-08T11:00:00	4	Temperatura máxima	25.3
138059	7	Sololá	713	San Lucas Tolimán	10	San Lucas Tolimán	7	Julio	2023-07-27T00:00:00	2024-11-08T11:00:00	3	Temperatura mínima	24.4
138060	7	Sololá	713	San Lucas Tolimán	10	San Lucas Tolimán	7	Julio	2023-07-27T00:00:00	2024-11-08T11:00:00	5	Humedad	41
138061	7	Sololá	713	San Lucas Tolimán	10	San Lucas Tolimán	7	Julio	2023-07-27T00:00:00	2024-11-08T11:00:00	6	Velocidad del viento	11.3
138062	7	Sololá	713	San Lucas Tolimán	10	San Lucas Tolimán	7	Julio	2023-07-27T00:00:00	2024-11-08T11:00:00	7	Dirección del viento	11.27
138063	7	Sololá	713	San Lucas Tolimán	10	San Lucas Tolimán	7	Julio	2023-07-27T00:00:00	2024-11-08T11:00:00	1	Precipitación	0
138064	7	Sololá	713	San Lucas Tolimán	10	San Lucas Tolimán	7	Julio	2023-07-27T00:00:00	2024-11-08T11:00:00	8	Radiación solar	966
138065	7	Sololá	713	San Lucas Tolimán	10	San Lucas Tolimán	7	Julio	2023-07-27T00:00:00	2024-11-08T12:00:00	2	Temperatura media	25
138066	7	Sololá	713	San Lucas Tolimán	10	San Lucas Tolimán	7	Julio	2023-07-27T00:00:00	2024-11-08T12:00:00	4	Temperatura máxima	25.9
138067	7	Sololá	713	San Lucas Tolimán	10	San Lucas Tolimán	7	Julio	2023-07-27T00:00:00	2024-11-08T12:00:00	3	Temperatura mínima	24.8
138068	7	Sololá	713	San Lucas Tolimán	10	San Lucas Tolimán	7	Julio	2023-07-27T00:00:00	2024-11-08T12:00:00	5	Humedad	41
138069	7	Sololá	713	San Lucas Tolimán	10	San Lucas Tolimán	7	Julio	2023-07-27T00:00:00	2024-11-08T12:00:00	6	Velocidad del viento	8
138070	7	Sololá	713	San Lucas Tolimán	10	San Lucas Tolimán	7	Julio	2023-07-27T00:00:00	2024-11-08T12:00:00	7	Dirección del viento	8.05
138071	7	Sololá	713	San Lucas Tolimán	10	San Lucas Tolimán	7	Julio	2023-07-27T00:00:00	2024-11-08T12:00:00	1	Precipitación	0
138072	7	Sololá	713	San Lucas Tolimán	10	San Lucas Tolimán	7	Julio	2023-07-27T00:00:00	2024-11-08T12:00:00	8	Radiación solar	534
138073	7	Sololá	713	San Lucas Tolimán	10	San Lucas Tolimán	7	Julio	2023-07-27T00:00:00	2024-11-08T13:00:00	2	Temperatura media	25.3
138074	7	Sololá	713	San Lucas Tolimán	10	San Lucas Tolimán	7	Julio	2023-07-27T00:00:00	2024-11-08T13:00:00	4	Temperatura máxima	25.9
138075	7	Sololá	713	San Lucas Tolimán	10	San Lucas Tolimán	7	Julio	2023-07-27T00:00:00	2024-11-08T13:00:00	3	Temperatura mínima	23.4
138076	7	Sololá	713	San Lucas Tolimán	10	San Lucas Tolimán	7	Julio	2023-07-27T00:00:00	2024-11-08T13:00:00	5	Humedad	55
138077	7	Sololá	713	San Lucas Tolimán	10	San Lucas Tolimán	7	Julio	2023-07-27T00:00:00	2024-11-08T13:00:00	6	Velocidad del viento	6.4
138078	7	Sololá	713	San Lucas Tolimán	10	San Lucas Tolimán	7	Julio	2023-07-27T00:00:00	2024-11-08T13:00:00	7	Dirección del viento	6.44
138079	7	Sololá	713	San Lucas Tolimán	10	San Lucas Tolimán	7	Julio	2023-07-27T00:00:00	2024-11-08T13:00:00	1	Precipitación	0
138080	7	Sololá	713	San Lucas Tolimán	10	San Lucas Tolimán	7	Julio	2023-07-27T00:00:00	2024-11-08T13:00:00	8	Radiación solar	553
138081	7	Sololá	713	San Lucas Tolimán	10	San Lucas Tolimán	7	Julio	2023-07-27T00:00:00	2024-11-08T14:00:00	2	Temperatura media	25.1
138082	7	Sololá	713	San Lucas Tolimán	10	San Lucas Tolimán	7	Julio	2023-07-27T00:00:00	2024-11-08T14:00:00	4	Temperatura máxima	25.3
138083	7	Sololá	713	San Lucas Tolimán	10	San Lucas Tolimán	7	Julio	2023-07-27T00:00:00	2024-11-08T14:00:00	3	Temperatura mínima	24.1
138084	7	Sololá	713	San Lucas Tolimán	10	San Lucas Tolimán	7	Julio	2023-07-27T00:00:00	2024-11-08T14:00:00	5	Humedad	55
138085	7	Sololá	713	San Lucas Tolimán	10	San Lucas Tolimán	7	Julio	2023-07-27T00:00:00	2024-11-08T14:00:00	6	Velocidad del viento	9.7
138086	7	Sololá	713	San Lucas Tolimán	10	San Lucas Tolimán	7	Julio	2023-07-27T00:00:00	2024-11-08T14:00:00	7	Dirección del viento	9.66
138087	7	Sololá	713	San Lucas Tolimán	10	San Lucas Tolimán	7	Julio	2023-07-27T00:00:00	2024-11-08T14:00:00	1	Precipitación	0
138088	7	Sololá	713	San Lucas Tolimán	10	San Lucas Tolimán	7	Julio	2023-07-27T00:00:00	2024-11-08T14:00:00	8	Radiación solar	859
138089	7	Sololá	713	San Lucas Tolimán	10	San Lucas Tolimán	7	Julio	2023-07-27T00:00:00	2024-11-08T15:00:00	2	Temperatura media	24.8
138090	7	Sololá	713	San Lucas Tolimán	10	San Lucas Tolimán	7	Julio	2023-07-27T00:00:00	2024-11-08T15:00:00	4	Temperatura máxima	26.4
138091	7	Sololá	713	San Lucas Tolimán	10	San Lucas Tolimán	7	Julio	2023-07-27T00:00:00	2024-11-08T15:00:00	3	Temperatura mínima	24.3
138092	7	Sololá	713	San Lucas Tolimán	10	San Lucas Tolimán	7	Julio	2023-07-27T00:00:00	2024-11-08T15:00:00	5	Humedad	58
138093	7	Sololá	713	San Lucas Tolimán	10	San Lucas Tolimán	7	Julio	2023-07-27T00:00:00	2024-11-08T15:00:00	6	Velocidad del viento	9.7
138094	7	Sololá	713	San Lucas Tolimán	10	San Lucas Tolimán	7	Julio	2023-07-27T00:00:00	2024-11-08T15:00:00	7	Dirección del viento	9.66
138095	7	Sololá	713	San Lucas Tolimán	10	San Lucas Tolimán	7	Julio	2023-07-27T00:00:00	2024-11-08T15:00:00	1	Precipitación	0
138096	7	Sololá	713	San Lucas Tolimán	10	San Lucas Tolimán	7	Julio	2023-07-27T00:00:00	2024-11-08T15:00:00	8	Radiación solar	824
138097	7	Sololá	713	San Lucas Tolimán	10	San Lucas Tolimán	7	Julio	2023-07-27T00:00:00	2024-11-08T16:00:00	2	Temperatura media	24.3
138098	7	Sololá	713	San Lucas Tolimán	10	San Lucas Tolimán	7	Julio	2023-07-27T00:00:00	2024-11-08T16:00:00	4	Temperatura máxima	25.1
138099	7	Sololá	713	San Lucas Tolimán	10	San Lucas Tolimán	7	Julio	2023-07-27T00:00:00	2024-11-08T16:00:00	3	Temperatura mínima	23.6
138100	7	Sololá	713	San Lucas Tolimán	10	San Lucas Tolimán	7	Julio	2023-07-27T00:00:00	2024-11-08T16:00:00	5	Humedad	60
138101	7	Sololá	713	San Lucas Tolimán	10	San Lucas Tolimán	7	Julio	2023-07-27T00:00:00	2024-11-08T16:00:00	6	Velocidad del viento	11.3
138102	7	Sololá	713	San Lucas Tolimán	10	San Lucas Tolimán	7	Julio	2023-07-27T00:00:00	2024-11-08T16:00:00	7	Dirección del viento	11.27
138103	7	Sololá	713	San Lucas Tolimán	10	San Lucas Tolimán	7	Julio	2023-07-27T00:00:00	2024-11-08T16:00:00	1	Precipitación	0
138104	7	Sololá	713	San Lucas Tolimán	10	San Lucas Tolimán	7	Julio	2023-07-27T00:00:00	2024-11-08T16:00:00	8	Radiación solar	618
138105	7	Sololá	713	San Lucas Tolimán	10	San Lucas Tolimán	7	Julio	2023-07-27T00:00:00	2024-11-08T17:00:00	2	Temperatura media	22.7
138106	7	Sololá	713	San Lucas Tolimán	10	San Lucas Tolimán	7	Julio	2023-07-27T00:00:00	2024-11-08T17:00:00	4	Temperatura máxima	24.3
138107	7	Sololá	713	San Lucas Tolimán	10	San Lucas Tolimán	7	Julio	2023-07-27T00:00:00	2024-11-08T17:00:00	3	Temperatura mínima	22.7
138108	7	Sololá	713	San Lucas Tolimán	10	San Lucas Tolimán	7	Julio	2023-07-27T00:00:00	2024-11-08T17:00:00	5	Humedad	63
138109	7	Sololá	713	San Lucas Tolimán	10	San Lucas Tolimán	7	Julio	2023-07-27T00:00:00	2024-11-08T17:00:00	6	Velocidad del viento	9.7
138110	7	Sololá	713	San Lucas Tolimán	10	San Lucas Tolimán	7	Julio	2023-07-27T00:00:00	2024-11-08T17:00:00	7	Dirección del viento	9.66
138111	7	Sololá	713	San Lucas Tolimán	10	San Lucas Tolimán	7	Julio	2023-07-27T00:00:00	2024-11-08T17:00:00	1	Precipitación	0
138112	7	Sololá	713	San Lucas Tolimán	10	San Lucas Tolimán	7	Julio	2023-07-27T00:00:00	2024-11-08T17:00:00	8	Radiación solar	319
138113	7	Sololá	713	San Lucas Tolimán	10	San Lucas Tolimán	7	Julio	2023-07-27T00:00:00	2024-11-08T18:00:00	2	Temperatura media	20.9
138114	7	Sololá	713	San Lucas Tolimán	10	San Lucas Tolimán	7	Julio	2023-07-27T00:00:00	2024-11-08T18:00:00	4	Temperatura máxima	22.7
138115	7	Sololá	713	San Lucas Tolimán	10	San Lucas Tolimán	7	Julio	2023-07-27T00:00:00	2024-11-08T18:00:00	3	Temperatura mínima	20.8
138116	7	Sololá	713	San Lucas Tolimán	10	San Lucas Tolimán	7	Julio	2023-07-27T00:00:00	2024-11-08T18:00:00	5	Humedad	61
138117	7	Sololá	713	San Lucas Tolimán	10	San Lucas Tolimán	7	Julio	2023-07-27T00:00:00	2024-11-08T18:00:00	6	Velocidad del viento	9.7
138118	7	Sololá	713	San Lucas Tolimán	10	San Lucas Tolimán	7	Julio	2023-07-27T00:00:00	2024-11-08T18:00:00	7	Dirección del viento	9.66
138119	7	Sololá	713	San Lucas Tolimán	10	San Lucas Tolimán	7	Julio	2023-07-27T00:00:00	2024-11-08T18:00:00	1	Precipitación	0
138120	7	Sololá	713	San Lucas Tolimán	10	San Lucas Tolimán	7	Julio	2023-07-27T00:00:00	2024-11-08T18:00:00	8	Radiación solar	66
138121	7	Sololá	713	San Lucas Tolimán	10	San Lucas Tolimán	7	Julio	2023-07-27T00:00:00	2024-11-08T19:00:00	2	Temperatura media	20.4
138122	7	Sololá	713	San Lucas Tolimán	10	San Lucas Tolimán	7	Julio	2023-07-27T00:00:00	2024-11-08T19:00:00	4	Temperatura máxima	21
138123	7	Sololá	713	San Lucas Tolimán	10	San Lucas Tolimán	7	Julio	2023-07-27T00:00:00	2024-11-08T19:00:00	3	Temperatura mínima	20.4
138124	7	Sololá	713	San Lucas Tolimán	10	San Lucas Tolimán	7	Julio	2023-07-27T00:00:00	2024-11-08T19:00:00	5	Humedad	61
138125	7	Sololá	713	San Lucas Tolimán	10	San Lucas Tolimán	7	Julio	2023-07-27T00:00:00	2024-11-08T19:00:00	6	Velocidad del viento	8
138126	7	Sololá	713	San Lucas Tolimán	10	San Lucas Tolimán	7	Julio	2023-07-27T00:00:00	2024-11-08T19:00:00	7	Dirección del viento	8.05
138127	7	Sololá	713	San Lucas Tolimán	10	San Lucas Tolimán	7	Julio	2023-07-27T00:00:00	2024-11-08T19:00:00	1	Precipitación	0
138128	7	Sololá	713	San Lucas Tolimán	10	San Lucas Tolimán	7	Julio	2023-07-27T00:00:00	2024-11-08T19:00:00	8	Radiación solar	0
138129	7	Sololá	713	San Lucas Tolimán	10	San Lucas Tolimán	7	Julio	2023-07-27T00:00:00	2024-11-08T20:00:00	2	Temperatura media	21.2
138130	7	Sololá	713	San Lucas Tolimán	10	San Lucas Tolimán	7	Julio	2023-07-27T00:00:00	2024-11-08T20:00:00	4	Temperatura máxima	21.2
138131	7	Sololá	713	San Lucas Tolimán	10	San Lucas Tolimán	7	Julio	2023-07-27T00:00:00	2024-11-08T20:00:00	3	Temperatura mínima	20.1
138132	7	Sololá	713	San Lucas Tolimán	10	San Lucas Tolimán	7	Julio	2023-07-27T00:00:00	2024-11-08T20:00:00	5	Humedad	55
138133	7	Sololá	713	San Lucas Tolimán	10	San Lucas Tolimán	7	Julio	2023-07-27T00:00:00	2024-11-08T20:00:00	6	Velocidad del viento	3.2
138134	7	Sololá	713	San Lucas Tolimán	10	San Lucas Tolimán	7	Julio	2023-07-27T00:00:00	2024-11-08T20:00:00	7	Dirección del viento	3.22
138135	7	Sololá	713	San Lucas Tolimán	10	San Lucas Tolimán	7	Julio	2023-07-27T00:00:00	2024-11-08T20:00:00	1	Precipitación	0
138136	7	Sololá	713	San Lucas Tolimán	10	San Lucas Tolimán	7	Julio	2023-07-27T00:00:00	2024-11-08T20:00:00	8	Radiación solar	0
138137	7	Sololá	713	San Lucas Tolimán	10	San Lucas Tolimán	7	Julio	2023-07-27T00:00:00	2024-11-08T21:00:00	2	Temperatura media	21.7
138138	7	Sololá	713	San Lucas Tolimán	10	San Lucas Tolimán	7	Julio	2023-07-27T00:00:00	2024-11-08T21:00:00	4	Temperatura máxima	22.2
138139	7	Sololá	713	San Lucas Tolimán	10	San Lucas Tolimán	7	Julio	2023-07-27T00:00:00	2024-11-08T21:00:00	3	Temperatura mínima	21.2
138140	7	Sololá	713	San Lucas Tolimán	10	San Lucas Tolimán	7	Julio	2023-07-27T00:00:00	2024-11-08T21:00:00	5	Humedad	51
138141	7	Sololá	713	San Lucas Tolimán	10	San Lucas Tolimán	7	Julio	2023-07-27T00:00:00	2024-11-08T21:00:00	6	Velocidad del viento	14.5
138142	7	Sololá	713	San Lucas Tolimán	10	San Lucas Tolimán	7	Julio	2023-07-27T00:00:00	2024-11-08T21:00:00	7	Dirección del viento	14.48
138143	7	Sololá	713	San Lucas Tolimán	10	San Lucas Tolimán	7	Julio	2023-07-27T00:00:00	2024-11-08T21:00:00	1	Precipitación	0
138144	7	Sololá	713	San Lucas Tolimán	10	San Lucas Tolimán	7	Julio	2023-07-27T00:00:00	2024-11-08T21:00:00	8	Radiación solar	0
138145	7	Sololá	713	San Lucas Tolimán	10	San Lucas Tolimán	7	Julio	2023-07-27T00:00:00	2024-11-08T22:00:00	2	Temperatura media	21
138146	7	Sololá	713	San Lucas Tolimán	10	San Lucas Tolimán	7	Julio	2023-07-27T00:00:00	2024-11-08T22:00:00	4	Temperatura máxima	21.8
138147	7	Sololá	713	San Lucas Tolimán	10	San Lucas Tolimán	7	Julio	2023-07-27T00:00:00	2024-11-08T22:00:00	3	Temperatura mínima	21
138148	7	Sololá	713	San Lucas Tolimán	10	San Lucas Tolimán	7	Julio	2023-07-27T00:00:00	2024-11-08T22:00:00	5	Humedad	54
138149	7	Sololá	713	San Lucas Tolimán	10	San Lucas Tolimán	7	Julio	2023-07-27T00:00:00	2024-11-08T22:00:00	6	Velocidad del viento	12.9
138150	7	Sololá	713	San Lucas Tolimán	10	San Lucas Tolimán	7	Julio	2023-07-27T00:00:00	2024-11-08T22:00:00	7	Dirección del viento	12.87
138151	7	Sololá	713	San Lucas Tolimán	10	San Lucas Tolimán	7	Julio	2023-07-27T00:00:00	2024-11-08T22:00:00	1	Precipitación	0
138152	7	Sololá	713	San Lucas Tolimán	10	San Lucas Tolimán	7	Julio	2023-07-27T00:00:00	2024-11-08T22:00:00	8	Radiación solar	0
138153	7	Sololá	713	San Lucas Tolimán	10	San Lucas Tolimán	7	Julio	2023-07-27T00:00:00	2024-11-08T23:00:00	2	Temperatura media	20.2
138154	7	Sololá	713	San Lucas Tolimán	10	San Lucas Tolimán	7	Julio	2023-07-27T00:00:00	2024-11-08T23:00:00	4	Temperatura máxima	21.4
138155	7	Sololá	713	San Lucas Tolimán	10	San Lucas Tolimán	7	Julio	2023-07-27T00:00:00	2024-11-08T23:00:00	3	Temperatura mínima	20.2
138156	7	Sololá	713	San Lucas Tolimán	10	San Lucas Tolimán	7	Julio	2023-07-27T00:00:00	2024-11-08T23:00:00	5	Humedad	55
138157	7	Sololá	713	San Lucas Tolimán	10	San Lucas Tolimán	7	Julio	2023-07-27T00:00:00	2024-11-08T23:00:00	6	Velocidad del viento	6.4
138158	7	Sololá	713	San Lucas Tolimán	10	San Lucas Tolimán	7	Julio	2023-07-27T00:00:00	2024-11-08T23:00:00	7	Dirección del viento	6.44
138159	7	Sololá	713	San Lucas Tolimán	10	San Lucas Tolimán	7	Julio	2023-07-27T00:00:00	2024-11-08T23:00:00	1	Precipitación	0
138160	7	Sololá	713	San Lucas Tolimán	10	San Lucas Tolimán	7	Julio	2023-07-27T00:00:00	2024-11-08T23:00:00	8	Radiación solar	0
138161	7	Sololá	713	San Lucas Tolimán	10	San Lucas Tolimán	7	Julio	2023-07-28T00:00:00	2024-11-08T00:00:00	2	Temperatura media	19.8
138162	7	Sololá	713	San Lucas Tolimán	10	San Lucas Tolimán	7	Julio	2023-07-28T00:00:00	2024-11-08T00:00:00	4	Temperatura máxima	20.6
138163	7	Sololá	713	San Lucas Tolimán	10	San Lucas Tolimán	7	Julio	2023-07-28T00:00:00	2024-11-08T00:00:00	3	Temperatura mínima	19.8
138164	7	Sololá	713	San Lucas Tolimán	10	San Lucas Tolimán	7	Julio	2023-07-28T00:00:00	2024-11-08T00:00:00	5	Humedad	54
138165	7	Sololá	713	San Lucas Tolimán	10	San Lucas Tolimán	7	Julio	2023-07-28T00:00:00	2024-11-08T00:00:00	6	Velocidad del viento	3.2
138166	7	Sololá	713	San Lucas Tolimán	10	San Lucas Tolimán	7	Julio	2023-07-28T00:00:00	2024-11-08T00:00:00	7	Dirección del viento	3.22
138167	7	Sololá	713	San Lucas Tolimán	10	San Lucas Tolimán	7	Julio	2023-07-28T00:00:00	2024-11-08T00:00:00	1	Precipitación	0
138168	7	Sololá	713	San Lucas Tolimán	10	San Lucas Tolimán	7	Julio	2023-07-28T00:00:00	2024-11-08T00:00:00	8	Radiación solar	0
138169	7	Sololá	713	San Lucas Tolimán	10	San Lucas Tolimán	7	Julio	2023-07-28T00:00:00	2024-11-08T01:00:00	2	Temperatura media	19.3
138170	7	Sololá	713	San Lucas Tolimán	10	San Lucas Tolimán	7	Julio	2023-07-28T00:00:00	2024-11-08T01:00:00	4	Temperatura máxima	19.9
138171	7	Sololá	713	San Lucas Tolimán	10	San Lucas Tolimán	7	Julio	2023-07-28T00:00:00	2024-11-08T01:00:00	3	Temperatura mínima	19.3
138172	7	Sololá	713	San Lucas Tolimán	10	San Lucas Tolimán	7	Julio	2023-07-28T00:00:00	2024-11-08T01:00:00	5	Humedad	55
138173	7	Sololá	713	San Lucas Tolimán	10	San Lucas Tolimán	7	Julio	2023-07-28T00:00:00	2024-11-08T01:00:00	6	Velocidad del viento	1.6
138174	7	Sololá	713	San Lucas Tolimán	10	San Lucas Tolimán	7	Julio	2023-07-28T00:00:00	2024-11-08T01:00:00	7	Dirección del viento	1.61
138175	7	Sololá	713	San Lucas Tolimán	10	San Lucas Tolimán	7	Julio	2023-07-28T00:00:00	2024-11-08T01:00:00	1	Precipitación	0
138176	7	Sololá	713	San Lucas Tolimán	10	San Lucas Tolimán	7	Julio	2023-07-28T00:00:00	2024-11-08T01:00:00	8	Radiación solar	0
138177	7	Sololá	713	San Lucas Tolimán	10	San Lucas Tolimán	7	Julio	2023-07-28T00:00:00	2024-11-08T02:00:00	2	Temperatura media	18.7
138178	7	Sololá	713	San Lucas Tolimán	10	San Lucas Tolimán	7	Julio	2023-07-28T00:00:00	2024-11-08T02:00:00	4	Temperatura máxima	19.4
138179	7	Sololá	713	San Lucas Tolimán	10	San Lucas Tolimán	7	Julio	2023-07-28T00:00:00	2024-11-08T02:00:00	3	Temperatura mínima	18.6
138180	7	Sololá	713	San Lucas Tolimán	10	San Lucas Tolimán	7	Julio	2023-07-28T00:00:00	2024-11-08T02:00:00	5	Humedad	57
138181	7	Sololá	713	San Lucas Tolimán	10	San Lucas Tolimán	7	Julio	2023-07-28T00:00:00	2024-11-08T02:00:00	6	Velocidad del viento	0
138182	7	Sololá	713	San Lucas Tolimán	10	San Lucas Tolimán	7	Julio	2023-07-28T00:00:00	2024-11-08T02:00:00	7	Dirección del viento	0
138183	7	Sololá	713	San Lucas Tolimán	10	San Lucas Tolimán	7	Julio	2023-07-28T00:00:00	2024-11-08T02:00:00	1	Precipitación	0
138184	7	Sololá	713	San Lucas Tolimán	10	San Lucas Tolimán	7	Julio	2023-07-28T00:00:00	2024-11-08T02:00:00	8	Radiación solar	0
138185	7	Sololá	713	San Lucas Tolimán	10	San Lucas Tolimán	7	Julio	2023-07-28T00:00:00	2024-11-08T03:00:00	2	Temperatura media	18.7
138186	7	Sololá	713	San Lucas Tolimán	10	San Lucas Tolimán	7	Julio	2023-07-28T00:00:00	2024-11-08T03:00:00	4	Temperatura máxima	18.8
138187	7	Sololá	713	San Lucas Tolimán	10	San Lucas Tolimán	7	Julio	2023-07-28T00:00:00	2024-11-08T03:00:00	3	Temperatura mínima	18.4
138188	7	Sololá	713	San Lucas Tolimán	10	San Lucas Tolimán	7	Julio	2023-07-28T00:00:00	2024-11-08T03:00:00	5	Humedad	56
138189	7	Sololá	713	San Lucas Tolimán	10	San Lucas Tolimán	7	Julio	2023-07-28T00:00:00	2024-11-08T03:00:00	6	Velocidad del viento	1.6
138190	7	Sololá	713	San Lucas Tolimán	10	San Lucas Tolimán	7	Julio	2023-07-28T00:00:00	2024-11-08T03:00:00	7	Dirección del viento	1.61
138191	7	Sololá	713	San Lucas Tolimán	10	San Lucas Tolimán	7	Julio	2023-07-28T00:00:00	2024-11-08T03:00:00	1	Precipitación	0
138192	7	Sololá	713	San Lucas Tolimán	10	San Lucas Tolimán	7	Julio	2023-07-28T00:00:00	2024-11-08T03:00:00	8	Radiación solar	0
138193	7	Sololá	713	San Lucas Tolimán	10	San Lucas Tolimán	7	Julio	2023-07-28T00:00:00	2024-11-08T04:00:00	2	Temperatura media	16.9
138194	7	Sololá	713	San Lucas Tolimán	10	San Lucas Tolimán	7	Julio	2023-07-28T00:00:00	2024-11-08T04:00:00	4	Temperatura máxima	18.8
138195	7	Sololá	713	San Lucas Tolimán	10	San Lucas Tolimán	7	Julio	2023-07-28T00:00:00	2024-11-08T04:00:00	3	Temperatura mínima	16.9
138196	7	Sololá	713	San Lucas Tolimán	10	San Lucas Tolimán	7	Julio	2023-07-28T00:00:00	2024-11-08T04:00:00	5	Humedad	62
138197	7	Sololá	713	San Lucas Tolimán	10	San Lucas Tolimán	7	Julio	2023-07-28T00:00:00	2024-11-08T04:00:00	6	Velocidad del viento	1.6
138198	7	Sololá	713	San Lucas Tolimán	10	San Lucas Tolimán	7	Julio	2023-07-28T00:00:00	2024-11-08T04:00:00	7	Dirección del viento	1.61
138199	7	Sololá	713	San Lucas Tolimán	10	San Lucas Tolimán	7	Julio	2023-07-28T00:00:00	2024-11-08T04:00:00	1	Precipitación	0
138200	7	Sololá	713	San Lucas Tolimán	10	San Lucas Tolimán	7	Julio	2023-07-28T00:00:00	2024-11-08T04:00:00	8	Radiación solar	0
138201	7	Sololá	713	San Lucas Tolimán	10	San Lucas Tolimán	7	Julio	2023-07-28T00:00:00	2024-11-08T05:00:00	2	Temperatura media	17.6
138202	7	Sololá	713	San Lucas Tolimán	10	San Lucas Tolimán	7	Julio	2023-07-28T00:00:00	2024-11-08T05:00:00	4	Temperatura máxima	17.7
138203	7	Sololá	713	San Lucas Tolimán	10	San Lucas Tolimán	7	Julio	2023-07-28T00:00:00	2024-11-08T05:00:00	3	Temperatura mínima	16.7
138204	7	Sololá	713	San Lucas Tolimán	10	San Lucas Tolimán	7	Julio	2023-07-28T00:00:00	2024-11-08T05:00:00	5	Humedad	60
138205	7	Sololá	713	San Lucas Tolimán	10	San Lucas Tolimán	7	Julio	2023-07-28T00:00:00	2024-11-08T05:00:00	6	Velocidad del viento	3.2
138206	7	Sololá	713	San Lucas Tolimán	10	San Lucas Tolimán	7	Julio	2023-07-28T00:00:00	2024-11-08T05:00:00	7	Dirección del viento	3.22
138207	7	Sololá	713	San Lucas Tolimán	10	San Lucas Tolimán	7	Julio	2023-07-28T00:00:00	2024-11-08T05:00:00	1	Precipitación	0
138208	7	Sololá	713	San Lucas Tolimán	10	San Lucas Tolimán	7	Julio	2023-07-28T00:00:00	2024-11-08T05:00:00	8	Radiación solar	0
138209	7	Sololá	713	San Lucas Tolimán	10	San Lucas Tolimán	7	Julio	2023-07-28T00:00:00	2024-11-08T06:00:00	2	Temperatura media	16.6
138210	7	Sololá	713	San Lucas Tolimán	10	San Lucas Tolimán	7	Julio	2023-07-28T00:00:00	2024-11-08T06:00:00	4	Temperatura máxima	17.6
138211	7	Sololá	713	San Lucas Tolimán	10	San Lucas Tolimán	7	Julio	2023-07-28T00:00:00	2024-11-08T06:00:00	3	Temperatura mínima	16.5
138212	7	Sololá	713	San Lucas Tolimán	10	San Lucas Tolimán	7	Julio	2023-07-28T00:00:00	2024-11-08T06:00:00	5	Humedad	63
138213	7	Sololá	713	San Lucas Tolimán	10	San Lucas Tolimán	7	Julio	2023-07-28T00:00:00	2024-11-08T06:00:00	6	Velocidad del viento	1.6
138214	7	Sololá	713	San Lucas Tolimán	10	San Lucas Tolimán	7	Julio	2023-07-28T00:00:00	2024-11-08T06:00:00	7	Dirección del viento	1.61
138215	7	Sololá	713	San Lucas Tolimán	10	San Lucas Tolimán	7	Julio	2023-07-28T00:00:00	2024-11-08T06:00:00	1	Precipitación	0
138216	7	Sololá	713	San Lucas Tolimán	10	San Lucas Tolimán	7	Julio	2023-07-28T00:00:00	2024-11-08T06:00:00	8	Radiación solar	0
138217	7	Sololá	713	San Lucas Tolimán	10	San Lucas Tolimán	7	Julio	2023-07-28T00:00:00	2024-11-08T07:00:00	2	Temperatura media	17.7
138218	7	Sololá	713	San Lucas Tolimán	10	San Lucas Tolimán	7	Julio	2023-07-28T00:00:00	2024-11-08T07:00:00	4	Temperatura máxima	17.7
138219	7	Sololá	713	San Lucas Tolimán	10	San Lucas Tolimán	7	Julio	2023-07-28T00:00:00	2024-11-08T07:00:00	3	Temperatura mínima	16
138220	7	Sololá	713	San Lucas Tolimán	10	San Lucas Tolimán	7	Julio	2023-07-28T00:00:00	2024-11-08T07:00:00	5	Humedad	60
138221	7	Sololá	713	San Lucas Tolimán	10	San Lucas Tolimán	7	Julio	2023-07-28T00:00:00	2024-11-08T07:00:00	6	Velocidad del viento	1.6
138222	7	Sololá	713	San Lucas Tolimán	10	San Lucas Tolimán	7	Julio	2023-07-28T00:00:00	2024-11-08T07:00:00	7	Dirección del viento	1.61
138223	7	Sololá	713	San Lucas Tolimán	10	San Lucas Tolimán	7	Julio	2023-07-28T00:00:00	2024-11-08T07:00:00	1	Precipitación	0
138224	7	Sololá	713	San Lucas Tolimán	10	San Lucas Tolimán	7	Julio	2023-07-28T00:00:00	2024-11-08T07:00:00	8	Radiación solar	56
138225	7	Sololá	713	San Lucas Tolimán	10	San Lucas Tolimán	7	Julio	2023-07-28T00:00:00	2024-11-08T08:00:00	2	Temperatura media	22.2
138226	7	Sololá	713	San Lucas Tolimán	10	San Lucas Tolimán	7	Julio	2023-07-28T00:00:00	2024-11-08T08:00:00	4	Temperatura máxima	22.3
138227	7	Sololá	713	San Lucas Tolimán	10	San Lucas Tolimán	7	Julio	2023-07-28T00:00:00	2024-11-08T08:00:00	3	Temperatura mínima	17.7
138228	7	Sololá	713	San Lucas Tolimán	10	San Lucas Tolimán	7	Julio	2023-07-28T00:00:00	2024-11-08T08:00:00	5	Humedad	52
138229	7	Sololá	713	San Lucas Tolimán	10	San Lucas Tolimán	7	Julio	2023-07-28T00:00:00	2024-11-08T08:00:00	6	Velocidad del viento	4.8
138230	7	Sololá	713	San Lucas Tolimán	10	San Lucas Tolimán	7	Julio	2023-07-28T00:00:00	2024-11-08T08:00:00	7	Dirección del viento	4.83
138231	7	Sololá	713	San Lucas Tolimán	10	San Lucas Tolimán	7	Julio	2023-07-28T00:00:00	2024-11-08T08:00:00	1	Precipitación	0
138232	7	Sololá	713	San Lucas Tolimán	10	San Lucas Tolimán	7	Julio	2023-07-28T00:00:00	2024-11-08T08:00:00	8	Radiación solar	352
138233	7	Sololá	713	San Lucas Tolimán	10	San Lucas Tolimán	7	Julio	2023-07-28T00:00:00	2024-11-08T09:00:00	2	Temperatura media	23.2
138234	7	Sololá	713	San Lucas Tolimán	10	San Lucas Tolimán	7	Julio	2023-07-28T00:00:00	2024-11-08T09:00:00	4	Temperatura máxima	23.4
138235	7	Sololá	713	San Lucas Tolimán	10	San Lucas Tolimán	7	Julio	2023-07-28T00:00:00	2024-11-08T09:00:00	3	Temperatura mínima	22.2
138236	7	Sololá	713	San Lucas Tolimán	10	San Lucas Tolimán	7	Julio	2023-07-28T00:00:00	2024-11-08T09:00:00	5	Humedad	48
138237	7	Sololá	713	San Lucas Tolimán	10	San Lucas Tolimán	7	Julio	2023-07-28T00:00:00	2024-11-08T09:00:00	6	Velocidad del viento	8
138238	7	Sololá	713	San Lucas Tolimán	10	San Lucas Tolimán	7	Julio	2023-07-28T00:00:00	2024-11-08T09:00:00	7	Dirección del viento	8.05
138239	7	Sololá	713	San Lucas Tolimán	10	San Lucas Tolimán	7	Julio	2023-07-28T00:00:00	2024-11-08T09:00:00	1	Precipitación	0
138240	7	Sololá	713	San Lucas Tolimán	10	San Lucas Tolimán	7	Julio	2023-07-28T00:00:00	2024-11-08T09:00:00	8	Radiación solar	598
138241	7	Sololá	713	San Lucas Tolimán	10	San Lucas Tolimán	7	Julio	2023-07-28T00:00:00	2024-11-08T10:00:00	2	Temperatura media	25
138242	7	Sololá	713	San Lucas Tolimán	10	San Lucas Tolimán	7	Julio	2023-07-28T00:00:00	2024-11-08T10:00:00	4	Temperatura máxima	25.1
138243	7	Sololá	713	San Lucas Tolimán	10	San Lucas Tolimán	7	Julio	2023-07-28T00:00:00	2024-11-08T10:00:00	3	Temperatura mínima	23.1
138244	7	Sololá	713	San Lucas Tolimán	10	San Lucas Tolimán	7	Julio	2023-07-28T00:00:00	2024-11-08T10:00:00	5	Humedad	42
138245	7	Sololá	713	San Lucas Tolimán	10	San Lucas Tolimán	7	Julio	2023-07-28T00:00:00	2024-11-08T10:00:00	6	Velocidad del viento	8
138246	7	Sololá	713	San Lucas Tolimán	10	San Lucas Tolimán	7	Julio	2023-07-28T00:00:00	2024-11-08T10:00:00	7	Dirección del viento	8.05
138247	7	Sololá	713	San Lucas Tolimán	10	San Lucas Tolimán	7	Julio	2023-07-28T00:00:00	2024-11-08T10:00:00	1	Precipitación	0
138248	7	Sololá	713	San Lucas Tolimán	10	San Lucas Tolimán	7	Julio	2023-07-28T00:00:00	2024-11-08T10:00:00	8	Radiación solar	796
138249	7	Sololá	713	San Lucas Tolimán	10	San Lucas Tolimán	7	Julio	2023-07-28T00:00:00	2024-11-08T11:00:00	2	Temperatura media	25.7
138250	7	Sololá	713	San Lucas Tolimán	10	San Lucas Tolimán	7	Julio	2023-07-28T00:00:00	2024-11-08T11:00:00	4	Temperatura máxima	25.7
138251	7	Sololá	713	San Lucas Tolimán	10	San Lucas Tolimán	7	Julio	2023-07-28T00:00:00	2024-11-08T11:00:00	3	Temperatura mínima	25.1
138252	7	Sololá	713	San Lucas Tolimán	10	San Lucas Tolimán	7	Julio	2023-07-28T00:00:00	2024-11-08T11:00:00	5	Humedad	42
138253	7	Sololá	713	San Lucas Tolimán	10	San Lucas Tolimán	7	Julio	2023-07-28T00:00:00	2024-11-08T11:00:00	6	Velocidad del viento	9.7
138254	7	Sololá	713	San Lucas Tolimán	10	San Lucas Tolimán	7	Julio	2023-07-28T00:00:00	2024-11-08T11:00:00	7	Dirección del viento	9.66
138255	7	Sololá	713	San Lucas Tolimán	10	San Lucas Tolimán	7	Julio	2023-07-28T00:00:00	2024-11-08T11:00:00	1	Precipitación	0
138256	7	Sololá	713	San Lucas Tolimán	10	San Lucas Tolimán	7	Julio	2023-07-28T00:00:00	2024-11-08T11:00:00	8	Radiación solar	987
138257	7	Sololá	713	San Lucas Tolimán	10	San Lucas Tolimán	7	Julio	2023-07-28T00:00:00	2024-11-08T12:00:00	2	Temperatura media	25.2
138258	7	Sololá	713	San Lucas Tolimán	10	San Lucas Tolimán	7	Julio	2023-07-28T00:00:00	2024-11-08T12:00:00	4	Temperatura máxima	25.9
138259	7	Sololá	713	San Lucas Tolimán	10	San Lucas Tolimán	7	Julio	2023-07-28T00:00:00	2024-11-08T12:00:00	3	Temperatura mínima	25.2
138260	7	Sololá	713	San Lucas Tolimán	10	San Lucas Tolimán	7	Julio	2023-07-28T00:00:00	2024-11-08T12:00:00	5	Humedad	50
138261	7	Sololá	713	San Lucas Tolimán	10	San Lucas Tolimán	7	Julio	2023-07-28T00:00:00	2024-11-08T12:00:00	6	Velocidad del viento	9.7
138262	7	Sololá	713	San Lucas Tolimán	10	San Lucas Tolimán	7	Julio	2023-07-28T00:00:00	2024-11-08T12:00:00	7	Dirección del viento	9.66
138263	7	Sololá	713	San Lucas Tolimán	10	San Lucas Tolimán	7	Julio	2023-07-28T00:00:00	2024-11-08T12:00:00	1	Precipitación	0
138264	7	Sololá	713	San Lucas Tolimán	10	San Lucas Tolimán	7	Julio	2023-07-28T00:00:00	2024-11-08T12:00:00	8	Radiación solar	863
138265	7	Sololá	713	San Lucas Tolimán	10	San Lucas Tolimán	7	Julio	2023-07-28T00:00:00	2024-11-08T13:00:00	2	Temperatura media	27.7
138266	7	Sololá	713	San Lucas Tolimán	10	San Lucas Tolimán	7	Julio	2023-07-28T00:00:00	2024-11-08T13:00:00	4	Temperatura máxima	27.7
138267	7	Sololá	713	San Lucas Tolimán	10	San Lucas Tolimán	7	Julio	2023-07-28T00:00:00	2024-11-08T13:00:00	3	Temperatura mínima	25.1
138268	7	Sololá	713	San Lucas Tolimán	10	San Lucas Tolimán	7	Julio	2023-07-28T00:00:00	2024-11-08T13:00:00	5	Humedad	51
138269	7	Sololá	713	San Lucas Tolimán	10	San Lucas Tolimán	7	Julio	2023-07-28T00:00:00	2024-11-08T13:00:00	6	Velocidad del viento	11.3
138270	7	Sololá	713	San Lucas Tolimán	10	San Lucas Tolimán	7	Julio	2023-07-28T00:00:00	2024-11-08T13:00:00	7	Dirección del viento	11.27
138271	7	Sololá	713	San Lucas Tolimán	10	San Lucas Tolimán	7	Julio	2023-07-28T00:00:00	2024-11-08T13:00:00	1	Precipitación	0
138272	7	Sololá	713	San Lucas Tolimán	10	San Lucas Tolimán	7	Julio	2023-07-28T00:00:00	2024-11-08T13:00:00	8	Radiación solar	1118
138273	7	Sololá	713	San Lucas Tolimán	10	San Lucas Tolimán	7	Julio	2023-07-28T00:00:00	2024-11-08T14:00:00	2	Temperatura media	25.7
138274	7	Sololá	713	San Lucas Tolimán	10	San Lucas Tolimán	7	Julio	2023-07-28T00:00:00	2024-11-08T14:00:00	4	Temperatura máxima	27.8
138275	7	Sololá	713	San Lucas Tolimán	10	San Lucas Tolimán	7	Julio	2023-07-28T00:00:00	2024-11-08T14:00:00	3	Temperatura mínima	24.6
138276	7	Sololá	713	San Lucas Tolimán	10	San Lucas Tolimán	7	Julio	2023-07-28T00:00:00	2024-11-08T14:00:00	5	Humedad	54
138277	7	Sololá	713	San Lucas Tolimán	10	San Lucas Tolimán	7	Julio	2023-07-28T00:00:00	2024-11-08T14:00:00	6	Velocidad del viento	8
138278	7	Sololá	713	San Lucas Tolimán	10	San Lucas Tolimán	7	Julio	2023-07-28T00:00:00	2024-11-08T14:00:00	7	Dirección del viento	8.05
138279	7	Sololá	713	San Lucas Tolimán	10	San Lucas Tolimán	7	Julio	2023-07-28T00:00:00	2024-11-08T14:00:00	1	Precipitación	0
138280	7	Sololá	713	San Lucas Tolimán	10	San Lucas Tolimán	7	Julio	2023-07-28T00:00:00	2024-11-08T14:00:00	8	Radiación solar	739
138281	7	Sololá	713	San Lucas Tolimán	10	San Lucas Tolimán	7	Julio	2023-07-28T00:00:00	2024-11-08T15:00:00	2	Temperatura media	25.1
138282	7	Sololá	713	San Lucas Tolimán	10	San Lucas Tolimán	7	Julio	2023-07-28T00:00:00	2024-11-08T15:00:00	4	Temperatura máxima	25.7
138283	7	Sololá	713	San Lucas Tolimán	10	San Lucas Tolimán	7	Julio	2023-07-28T00:00:00	2024-11-08T15:00:00	3	Temperatura mínima	24.1
138284	7	Sololá	713	San Lucas Tolimán	10	San Lucas Tolimán	7	Julio	2023-07-28T00:00:00	2024-11-08T15:00:00	5	Humedad	58
138285	7	Sololá	713	San Lucas Tolimán	10	San Lucas Tolimán	7	Julio	2023-07-28T00:00:00	2024-11-08T15:00:00	6	Velocidad del viento	9.7
138286	7	Sololá	713	San Lucas Tolimán	10	San Lucas Tolimán	7	Julio	2023-07-28T00:00:00	2024-11-08T15:00:00	7	Dirección del viento	9.66
138287	7	Sololá	713	San Lucas Tolimán	10	San Lucas Tolimán	7	Julio	2023-07-28T00:00:00	2024-11-08T15:00:00	1	Precipitación	0
138288	7	Sololá	713	San Lucas Tolimán	10	San Lucas Tolimán	7	Julio	2023-07-28T00:00:00	2024-11-08T15:00:00	8	Radiación solar	690
138289	7	Sololá	713	San Lucas Tolimán	10	San Lucas Tolimán	7	Julio	2023-07-28T00:00:00	2024-11-08T16:00:00	2	Temperatura media	24.4
138290	7	Sololá	713	San Lucas Tolimán	10	San Lucas Tolimán	7	Julio	2023-07-28T00:00:00	2024-11-08T16:00:00	4	Temperatura máxima	25.1
138291	7	Sololá	713	San Lucas Tolimán	10	San Lucas Tolimán	7	Julio	2023-07-28T00:00:00	2024-11-08T16:00:00	3	Temperatura mínima	23.7
138292	7	Sololá	713	San Lucas Tolimán	10	San Lucas Tolimán	7	Julio	2023-07-28T00:00:00	2024-11-08T16:00:00	5	Humedad	60
138293	7	Sololá	713	San Lucas Tolimán	10	San Lucas Tolimán	7	Julio	2023-07-28T00:00:00	2024-11-08T16:00:00	6	Velocidad del viento	9.7
138294	7	Sololá	713	San Lucas Tolimán	10	San Lucas Tolimán	7	Julio	2023-07-28T00:00:00	2024-11-08T16:00:00	7	Dirección del viento	9.66
138295	7	Sololá	713	San Lucas Tolimán	10	San Lucas Tolimán	7	Julio	2023-07-28T00:00:00	2024-11-08T16:00:00	1	Precipitación	0
138296	7	Sololá	713	San Lucas Tolimán	10	San Lucas Tolimán	7	Julio	2023-07-28T00:00:00	2024-11-08T16:00:00	8	Radiación solar	474
138297	7	Sololá	713	San Lucas Tolimán	10	San Lucas Tolimán	7	Julio	2023-07-28T00:00:00	2024-11-08T17:00:00	2	Temperatura media	22.4
138298	7	Sololá	713	San Lucas Tolimán	10	San Lucas Tolimán	7	Julio	2023-07-28T00:00:00	2024-11-08T17:00:00	4	Temperatura máxima	24.4
138299	7	Sololá	713	San Lucas Tolimán	10	San Lucas Tolimán	7	Julio	2023-07-28T00:00:00	2024-11-08T17:00:00	3	Temperatura mínima	22.3
138300	7	Sololá	713	San Lucas Tolimán	10	San Lucas Tolimán	7	Julio	2023-07-28T00:00:00	2024-11-08T17:00:00	5	Humedad	62
138301	7	Sololá	713	San Lucas Tolimán	10	San Lucas Tolimán	7	Julio	2023-07-28T00:00:00	2024-11-08T17:00:00	6	Velocidad del viento	8
138302	7	Sololá	713	San Lucas Tolimán	10	San Lucas Tolimán	7	Julio	2023-07-28T00:00:00	2024-11-08T17:00:00	7	Dirección del viento	8.05
138303	7	Sololá	713	San Lucas Tolimán	10	San Lucas Tolimán	7	Julio	2023-07-28T00:00:00	2024-11-08T17:00:00	1	Precipitación	0
138304	7	Sololá	713	San Lucas Tolimán	10	San Lucas Tolimán	7	Julio	2023-07-28T00:00:00	2024-11-08T17:00:00	8	Radiación solar	232
138305	7	Sololá	713	San Lucas Tolimán	10	San Lucas Tolimán	7	Julio	2023-07-28T00:00:00	2024-11-08T18:00:00	2	Temperatura media	21.7
138306	7	Sololá	713	San Lucas Tolimán	10	San Lucas Tolimán	7	Julio	2023-07-28T00:00:00	2024-11-08T18:00:00	4	Temperatura máxima	22.8
138307	7	Sololá	713	San Lucas Tolimán	10	San Lucas Tolimán	7	Julio	2023-07-28T00:00:00	2024-11-08T18:00:00	3	Temperatura mínima	21.7
138308	7	Sololá	713	San Lucas Tolimán	10	San Lucas Tolimán	7	Julio	2023-07-28T00:00:00	2024-11-08T18:00:00	5	Humedad	61
138309	7	Sololá	713	San Lucas Tolimán	10	San Lucas Tolimán	7	Julio	2023-07-28T00:00:00	2024-11-08T18:00:00	6	Velocidad del viento	8
138310	7	Sololá	713	San Lucas Tolimán	10	San Lucas Tolimán	7	Julio	2023-07-28T00:00:00	2024-11-08T18:00:00	7	Dirección del viento	8.05
138311	7	Sololá	713	San Lucas Tolimán	10	San Lucas Tolimán	7	Julio	2023-07-28T00:00:00	2024-11-08T18:00:00	1	Precipitación	0
138312	7	Sololá	713	San Lucas Tolimán	10	San Lucas Tolimán	7	Julio	2023-07-28T00:00:00	2024-11-08T18:00:00	8	Radiación solar	153
138313	7	Sololá	713	San Lucas Tolimán	10	San Lucas Tolimán	7	Julio	2023-07-28T00:00:00	2024-11-08T19:00:00	2	Temperatura media	21.2
138314	7	Sololá	713	San Lucas Tolimán	10	San Lucas Tolimán	7	Julio	2023-07-28T00:00:00	2024-11-08T19:00:00	4	Temperatura máxima	21.7
138315	7	Sololá	713	San Lucas Tolimán	10	San Lucas Tolimán	7	Julio	2023-07-28T00:00:00	2024-11-08T19:00:00	3	Temperatura mínima	21.2
138316	7	Sololá	713	San Lucas Tolimán	10	San Lucas Tolimán	7	Julio	2023-07-28T00:00:00	2024-11-08T19:00:00	5	Humedad	61
138317	7	Sololá	713	San Lucas Tolimán	10	San Lucas Tolimán	7	Julio	2023-07-28T00:00:00	2024-11-08T19:00:00	6	Velocidad del viento	6.4
138318	7	Sololá	713	San Lucas Tolimán	10	San Lucas Tolimán	7	Julio	2023-07-28T00:00:00	2024-11-08T19:00:00	7	Dirección del viento	6.44
138319	7	Sololá	713	San Lucas Tolimán	10	San Lucas Tolimán	7	Julio	2023-07-28T00:00:00	2024-11-08T19:00:00	1	Precipitación	0
138320	7	Sololá	713	San Lucas Tolimán	10	San Lucas Tolimán	7	Julio	2023-07-28T00:00:00	2024-11-08T19:00:00	8	Radiación solar	0
138321	7	Sololá	713	San Lucas Tolimán	10	San Lucas Tolimán	7	Julio	2023-07-28T00:00:00	2024-11-08T20:00:00	2	Temperatura media	21.2
138322	7	Sololá	713	San Lucas Tolimán	10	San Lucas Tolimán	7	Julio	2023-07-28T00:00:00	2024-11-08T20:00:00	4	Temperatura máxima	21.2
138323	7	Sololá	713	San Lucas Tolimán	10	San Lucas Tolimán	7	Julio	2023-07-28T00:00:00	2024-11-08T20:00:00	3	Temperatura mínima	20.6
138324	7	Sololá	713	San Lucas Tolimán	10	San Lucas Tolimán	7	Julio	2023-07-28T00:00:00	2024-11-08T20:00:00	5	Humedad	55
138325	7	Sololá	713	San Lucas Tolimán	10	San Lucas Tolimán	7	Julio	2023-07-28T00:00:00	2024-11-08T20:00:00	6	Velocidad del viento	4.8
138326	7	Sololá	713	San Lucas Tolimán	10	San Lucas Tolimán	7	Julio	2023-07-28T00:00:00	2024-11-08T20:00:00	7	Dirección del viento	4.83
138327	7	Sololá	713	San Lucas Tolimán	10	San Lucas Tolimán	7	Julio	2023-07-28T00:00:00	2024-11-08T20:00:00	1	Precipitación	0
138328	7	Sololá	713	San Lucas Tolimán	10	San Lucas Tolimán	7	Julio	2023-07-28T00:00:00	2024-11-08T20:00:00	8	Radiación solar	0
138329	7	Sololá	713	San Lucas Tolimán	10	San Lucas Tolimán	7	Julio	2023-07-28T00:00:00	2024-11-08T21:00:00	2	Temperatura media	21.3
138330	7	Sololá	713	San Lucas Tolimán	10	San Lucas Tolimán	7	Julio	2023-07-28T00:00:00	2024-11-08T21:00:00	4	Temperatura máxima	22.3
138331	7	Sololá	713	San Lucas Tolimán	10	San Lucas Tolimán	7	Julio	2023-07-28T00:00:00	2024-11-08T21:00:00	3	Temperatura mínima	21.2
138332	7	Sololá	713	San Lucas Tolimán	10	San Lucas Tolimán	7	Julio	2023-07-28T00:00:00	2024-11-08T21:00:00	5	Humedad	58
138333	7	Sololá	713	San Lucas Tolimán	10	San Lucas Tolimán	7	Julio	2023-07-28T00:00:00	2024-11-08T21:00:00	6	Velocidad del viento	4.8
138334	7	Sololá	713	San Lucas Tolimán	10	San Lucas Tolimán	7	Julio	2023-07-28T00:00:00	2024-11-08T21:00:00	7	Dirección del viento	4.83
138335	7	Sololá	713	San Lucas Tolimán	10	San Lucas Tolimán	7	Julio	2023-07-28T00:00:00	2024-11-08T21:00:00	1	Precipitación	0
138336	7	Sololá	713	San Lucas Tolimán	10	San Lucas Tolimán	7	Julio	2023-07-28T00:00:00	2024-11-08T21:00:00	8	Radiación solar	0
138337	7	Sololá	713	San Lucas Tolimán	10	San Lucas Tolimán	7	Julio	2023-07-28T00:00:00	2024-11-08T22:00:00	2	Temperatura media	21.1
138338	7	Sololá	713	San Lucas Tolimán	10	San Lucas Tolimán	7	Julio	2023-07-28T00:00:00	2024-11-08T22:00:00	4	Temperatura máxima	22
138339	7	Sololá	713	San Lucas Tolimán	10	San Lucas Tolimán	7	Julio	2023-07-28T00:00:00	2024-11-08T22:00:00	3	Temperatura mínima	20.8
138340	7	Sololá	713	San Lucas Tolimán	10	San Lucas Tolimán	7	Julio	2023-07-28T00:00:00	2024-11-08T22:00:00	5	Humedad	58
138341	7	Sololá	713	San Lucas Tolimán	10	San Lucas Tolimán	7	Julio	2023-07-28T00:00:00	2024-11-08T22:00:00	6	Velocidad del viento	4.8
138342	7	Sololá	713	San Lucas Tolimán	10	San Lucas Tolimán	7	Julio	2023-07-28T00:00:00	2024-11-08T22:00:00	7	Dirección del viento	4.83
138343	7	Sololá	713	San Lucas Tolimán	10	San Lucas Tolimán	7	Julio	2023-07-28T00:00:00	2024-11-08T22:00:00	1	Precipitación	0
138344	7	Sololá	713	San Lucas Tolimán	10	San Lucas Tolimán	7	Julio	2023-07-28T00:00:00	2024-11-08T22:00:00	8	Radiación solar	0
138345	7	Sololá	713	San Lucas Tolimán	10	San Lucas Tolimán	7	Julio	2023-07-28T00:00:00	2024-11-08T23:00:00	2	Temperatura media	20.9
138346	7	Sololá	713	San Lucas Tolimán	10	San Lucas Tolimán	7	Julio	2023-07-28T00:00:00	2024-11-08T23:00:00	4	Temperatura máxima	22
138347	7	Sololá	713	San Lucas Tolimán	10	San Lucas Tolimán	7	Julio	2023-07-28T00:00:00	2024-11-08T23:00:00	3	Temperatura mínima	20.9
138348	7	Sololá	713	San Lucas Tolimán	10	San Lucas Tolimán	7	Julio	2023-07-28T00:00:00	2024-11-08T23:00:00	5	Humedad	60
138349	7	Sololá	713	San Lucas Tolimán	10	San Lucas Tolimán	7	Julio	2023-07-28T00:00:00	2024-11-08T23:00:00	6	Velocidad del viento	6.4
138350	7	Sololá	713	San Lucas Tolimán	10	San Lucas Tolimán	7	Julio	2023-07-28T00:00:00	2024-11-08T23:00:00	7	Dirección del viento	6.44
138351	7	Sololá	713	San Lucas Tolimán	10	San Lucas Tolimán	7	Julio	2023-07-28T00:00:00	2024-11-08T23:00:00	1	Precipitación	0
138352	7	Sololá	713	San Lucas Tolimán	10	San Lucas Tolimán	7	Julio	2023-07-28T00:00:00	2024-11-08T23:00:00	8	Radiación solar	0
138353	7	Sololá	713	San Lucas Tolimán	10	San Lucas Tolimán	7	Julio	2023-07-29T00:00:00	2024-11-08T00:00:00	2	Temperatura media	21.1
138354	7	Sololá	713	San Lucas Tolimán	10	San Lucas Tolimán	7	Julio	2023-07-29T00:00:00	2024-11-08T00:00:00	4	Temperatura máxima	21.2
138355	7	Sololá	713	San Lucas Tolimán	10	San Lucas Tolimán	7	Julio	2023-07-29T00:00:00	2024-11-08T00:00:00	3	Temperatura mínima	20.6
138356	7	Sololá	713	San Lucas Tolimán	10	San Lucas Tolimán	7	Julio	2023-07-29T00:00:00	2024-11-08T00:00:00	5	Humedad	56
138357	7	Sololá	713	San Lucas Tolimán	10	San Lucas Tolimán	7	Julio	2023-07-29T00:00:00	2024-11-08T00:00:00	6	Velocidad del viento	4.8
138358	7	Sololá	713	San Lucas Tolimán	10	San Lucas Tolimán	7	Julio	2023-07-29T00:00:00	2024-11-08T00:00:00	7	Dirección del viento	4.83
138359	7	Sololá	713	San Lucas Tolimán	10	San Lucas Tolimán	7	Julio	2023-07-29T00:00:00	2024-11-08T00:00:00	1	Precipitación	0
138360	7	Sololá	713	San Lucas Tolimán	10	San Lucas Tolimán	7	Julio	2023-07-29T00:00:00	2024-11-08T00:00:00	8	Radiación solar	0
138361	7	Sololá	713	San Lucas Tolimán	10	San Lucas Tolimán	7	Julio	2023-07-29T00:00:00	2024-11-08T01:00:00	2	Temperatura media	20.9
138362	7	Sololá	713	San Lucas Tolimán	10	San Lucas Tolimán	7	Julio	2023-07-29T00:00:00	2024-11-08T01:00:00	4	Temperatura máxima	21.1
138363	7	Sololá	713	San Lucas Tolimán	10	San Lucas Tolimán	7	Julio	2023-07-29T00:00:00	2024-11-08T01:00:00	3	Temperatura mínima	20.8
138364	7	Sololá	713	San Lucas Tolimán	10	San Lucas Tolimán	7	Julio	2023-07-29T00:00:00	2024-11-08T01:00:00	5	Humedad	56
138365	7	Sololá	713	San Lucas Tolimán	10	San Lucas Tolimán	7	Julio	2023-07-29T00:00:00	2024-11-08T01:00:00	6	Velocidad del viento	1.6
138366	7	Sololá	713	San Lucas Tolimán	10	San Lucas Tolimán	7	Julio	2023-07-29T00:00:00	2024-11-08T01:00:00	7	Dirección del viento	1.61
138367	7	Sololá	713	San Lucas Tolimán	10	San Lucas Tolimán	7	Julio	2023-07-29T00:00:00	2024-11-08T01:00:00	1	Precipitación	0
138368	7	Sololá	713	San Lucas Tolimán	10	San Lucas Tolimán	7	Julio	2023-07-29T00:00:00	2024-11-08T01:00:00	8	Radiación solar	0
138369	7	Sololá	713	San Lucas Tolimán	10	San Lucas Tolimán	7	Julio	2023-07-29T00:00:00	2024-11-08T02:00:00	2	Temperatura media	20.8
138370	7	Sololá	713	San Lucas Tolimán	10	San Lucas Tolimán	7	Julio	2023-07-29T00:00:00	2024-11-08T02:00:00	4	Temperatura máxima	21
138371	7	Sololá	713	San Lucas Tolimán	10	San Lucas Tolimán	7	Julio	2023-07-29T00:00:00	2024-11-08T02:00:00	3	Temperatura mínima	20.4
138372	7	Sololá	713	San Lucas Tolimán	10	San Lucas Tolimán	7	Julio	2023-07-29T00:00:00	2024-11-08T02:00:00	5	Humedad	56
138373	7	Sololá	713	San Lucas Tolimán	10	San Lucas Tolimán	7	Julio	2023-07-29T00:00:00	2024-11-08T02:00:00	6	Velocidad del viento	3.2
138374	7	Sololá	713	San Lucas Tolimán	10	San Lucas Tolimán	7	Julio	2023-07-29T00:00:00	2024-11-08T02:00:00	7	Dirección del viento	3.22
138375	7	Sololá	713	San Lucas Tolimán	10	San Lucas Tolimán	7	Julio	2023-07-29T00:00:00	2024-11-08T02:00:00	1	Precipitación	0
138376	7	Sololá	713	San Lucas Tolimán	10	San Lucas Tolimán	7	Julio	2023-07-29T00:00:00	2024-11-08T02:00:00	8	Radiación solar	0
138377	7	Sololá	713	San Lucas Tolimán	10	San Lucas Tolimán	7	Julio	2023-07-29T00:00:00	2024-11-08T03:00:00	2	Temperatura media	19.4
138378	7	Sololá	713	San Lucas Tolimán	10	San Lucas Tolimán	7	Julio	2023-07-29T00:00:00	2024-11-08T03:00:00	4	Temperatura máxima	20.8
138379	7	Sololá	713	San Lucas Tolimán	10	San Lucas Tolimán	7	Julio	2023-07-29T00:00:00	2024-11-08T03:00:00	3	Temperatura mínima	19.4
138380	7	Sololá	713	San Lucas Tolimán	10	San Lucas Tolimán	7	Julio	2023-07-29T00:00:00	2024-11-08T03:00:00	5	Humedad	63
138381	7	Sololá	713	San Lucas Tolimán	10	San Lucas Tolimán	7	Julio	2023-07-29T00:00:00	2024-11-08T03:00:00	6	Velocidad del viento	3.2
138382	7	Sololá	713	San Lucas Tolimán	10	San Lucas Tolimán	7	Julio	2023-07-29T00:00:00	2024-11-08T03:00:00	7	Dirección del viento	3.22
138383	7	Sololá	713	San Lucas Tolimán	10	San Lucas Tolimán	7	Julio	2023-07-29T00:00:00	2024-11-08T03:00:00	1	Precipitación	0.2
138384	7	Sololá	713	San Lucas Tolimán	10	San Lucas Tolimán	7	Julio	2023-07-29T00:00:00	2024-11-08T03:00:00	8	Radiación solar	0
138385	7	Sololá	713	San Lucas Tolimán	10	San Lucas Tolimán	7	Julio	2023-07-29T00:00:00	2024-11-08T04:00:00	2	Temperatura media	18.8
138386	7	Sololá	713	San Lucas Tolimán	10	San Lucas Tolimán	7	Julio	2023-07-29T00:00:00	2024-11-08T04:00:00	4	Temperatura máxima	19.4
138387	7	Sololá	713	San Lucas Tolimán	10	San Lucas Tolimán	7	Julio	2023-07-29T00:00:00	2024-11-08T04:00:00	3	Temperatura mínima	18.8
138388	7	Sololá	713	San Lucas Tolimán	10	San Lucas Tolimán	7	Julio	2023-07-29T00:00:00	2024-11-08T04:00:00	5	Humedad	63
138389	7	Sololá	713	San Lucas Tolimán	10	San Lucas Tolimán	7	Julio	2023-07-29T00:00:00	2024-11-08T04:00:00	6	Velocidad del viento	4.8
138390	7	Sololá	713	San Lucas Tolimán	10	San Lucas Tolimán	7	Julio	2023-07-29T00:00:00	2024-11-08T04:00:00	7	Dirección del viento	4.83
138391	7	Sololá	713	San Lucas Tolimán	10	San Lucas Tolimán	7	Julio	2023-07-29T00:00:00	2024-11-08T04:00:00	1	Precipitación	0.4
138392	7	Sololá	713	San Lucas Tolimán	10	San Lucas Tolimán	7	Julio	2023-07-29T00:00:00	2024-11-08T04:00:00	8	Radiación solar	0
138393	7	Sololá	713	San Lucas Tolimán	10	San Lucas Tolimán	7	Julio	2023-07-29T00:00:00	2024-11-08T05:00:00	2	Temperatura media	18.1
138394	7	Sololá	713	San Lucas Tolimán	10	San Lucas Tolimán	7	Julio	2023-07-29T00:00:00	2024-11-08T05:00:00	4	Temperatura máxima	18.9
138395	7	Sololá	713	San Lucas Tolimán	10	San Lucas Tolimán	7	Julio	2023-07-29T00:00:00	2024-11-08T05:00:00	3	Temperatura mínima	18.1
138396	7	Sololá	713	San Lucas Tolimán	10	San Lucas Tolimán	7	Julio	2023-07-29T00:00:00	2024-11-08T05:00:00	5	Humedad	62
138397	7	Sololá	713	San Lucas Tolimán	10	San Lucas Tolimán	7	Julio	2023-07-29T00:00:00	2024-11-08T05:00:00	6	Velocidad del viento	1.6
138398	7	Sololá	713	San Lucas Tolimán	10	San Lucas Tolimán	7	Julio	2023-07-29T00:00:00	2024-11-08T05:00:00	7	Dirección del viento	1.61
138399	7	Sololá	713	San Lucas Tolimán	10	San Lucas Tolimán	7	Julio	2023-07-29T00:00:00	2024-11-08T05:00:00	1	Precipitación	1.8
138400	7	Sololá	713	San Lucas Tolimán	10	San Lucas Tolimán	7	Julio	2023-07-29T00:00:00	2024-11-08T05:00:00	8	Radiación solar	0
138401	7	Sololá	713	San Lucas Tolimán	10	San Lucas Tolimán	7	Julio	2023-07-29T00:00:00	2024-11-08T06:00:00	2	Temperatura media	17.6
138402	7	Sololá	713	San Lucas Tolimán	10	San Lucas Tolimán	7	Julio	2023-07-29T00:00:00	2024-11-08T06:00:00	4	Temperatura máxima	18.1
138403	7	Sololá	713	San Lucas Tolimán	10	San Lucas Tolimán	7	Julio	2023-07-29T00:00:00	2024-11-08T06:00:00	3	Temperatura mínima	17.5
138404	7	Sololá	713	San Lucas Tolimán	10	San Lucas Tolimán	7	Julio	2023-07-29T00:00:00	2024-11-08T06:00:00	5	Humedad	64
138405	7	Sololá	713	San Lucas Tolimán	10	San Lucas Tolimán	7	Julio	2023-07-29T00:00:00	2024-11-08T06:00:00	6	Velocidad del viento	1.6
138406	7	Sololá	713	San Lucas Tolimán	10	San Lucas Tolimán	7	Julio	2023-07-29T00:00:00	2024-11-08T06:00:00	7	Dirección del viento	1.61
138407	7	Sololá	713	San Lucas Tolimán	10	San Lucas Tolimán	7	Julio	2023-07-29T00:00:00	2024-11-08T06:00:00	1	Precipitación	0.8
138408	7	Sololá	713	San Lucas Tolimán	10	San Lucas Tolimán	7	Julio	2023-07-29T00:00:00	2024-11-08T06:00:00	8	Radiación solar	0
138409	7	Sololá	713	San Lucas Tolimán	10	San Lucas Tolimán	7	Julio	2023-07-29T00:00:00	2024-11-08T07:00:00	2	Temperatura media	18.1
138410	7	Sololá	713	San Lucas Tolimán	10	San Lucas Tolimán	7	Julio	2023-07-29T00:00:00	2024-11-08T07:00:00	4	Temperatura máxima	18.1
138411	7	Sololá	713	San Lucas Tolimán	10	San Lucas Tolimán	7	Julio	2023-07-29T00:00:00	2024-11-08T07:00:00	3	Temperatura mínima	17.5
138412	7	Sololá	713	San Lucas Tolimán	10	San Lucas Tolimán	7	Julio	2023-07-29T00:00:00	2024-11-08T07:00:00	5	Humedad	63
138413	7	Sololá	713	San Lucas Tolimán	10	San Lucas Tolimán	7	Julio	2023-07-29T00:00:00	2024-11-08T07:00:00	6	Velocidad del viento	1.6
138414	7	Sololá	713	San Lucas Tolimán	10	San Lucas Tolimán	7	Julio	2023-07-29T00:00:00	2024-11-08T07:00:00	7	Dirección del viento	1.61
138415	7	Sololá	713	San Lucas Tolimán	10	San Lucas Tolimán	7	Julio	2023-07-29T00:00:00	2024-11-08T07:00:00	1	Precipitación	0
138416	7	Sololá	713	San Lucas Tolimán	10	San Lucas Tolimán	7	Julio	2023-07-29T00:00:00	2024-11-08T07:00:00	8	Radiación solar	20
138417	7	Sololá	713	San Lucas Tolimán	10	San Lucas Tolimán	7	Julio	2023-07-29T00:00:00	2024-11-08T08:00:00	2	Temperatura media	18.7
138418	7	Sololá	713	San Lucas Tolimán	10	San Lucas Tolimán	7	Julio	2023-07-29T00:00:00	2024-11-08T08:00:00	4	Temperatura máxima	18.7
138419	7	Sololá	713	San Lucas Tolimán	10	San Lucas Tolimán	7	Julio	2023-07-29T00:00:00	2024-11-08T08:00:00	3	Temperatura mínima	18
138420	7	Sololá	713	San Lucas Tolimán	10	San Lucas Tolimán	7	Julio	2023-07-29T00:00:00	2024-11-08T08:00:00	5	Humedad	62
138421	7	Sololá	713	San Lucas Tolimán	10	San Lucas Tolimán	7	Julio	2023-07-29T00:00:00	2024-11-08T08:00:00	6	Velocidad del viento	1.6
138422	7	Sololá	713	San Lucas Tolimán	10	San Lucas Tolimán	7	Julio	2023-07-29T00:00:00	2024-11-08T08:00:00	7	Dirección del viento	1.61
138423	7	Sololá	713	San Lucas Tolimán	10	San Lucas Tolimán	7	Julio	2023-07-29T00:00:00	2024-11-08T08:00:00	1	Precipitación	0
138424	7	Sololá	713	San Lucas Tolimán	10	San Lucas Tolimán	7	Julio	2023-07-29T00:00:00	2024-11-08T08:00:00	8	Radiación solar	99
138425	7	Sololá	713	San Lucas Tolimán	10	San Lucas Tolimán	7	Julio	2023-07-29T00:00:00	2024-11-08T09:00:00	2	Temperatura media	20.8
138426	7	Sololá	713	San Lucas Tolimán	10	San Lucas Tolimán	7	Julio	2023-07-29T00:00:00	2024-11-08T09:00:00	4	Temperatura máxima	21.2
138427	7	Sololá	713	San Lucas Tolimán	10	San Lucas Tolimán	7	Julio	2023-07-29T00:00:00	2024-11-08T09:00:00	3	Temperatura mínima	18.7
138428	7	Sololá	713	San Lucas Tolimán	10	San Lucas Tolimán	7	Julio	2023-07-29T00:00:00	2024-11-08T09:00:00	5	Humedad	60
138429	7	Sololá	713	San Lucas Tolimán	10	San Lucas Tolimán	7	Julio	2023-07-29T00:00:00	2024-11-08T09:00:00	6	Velocidad del viento	3.2
138430	7	Sololá	713	San Lucas Tolimán	10	San Lucas Tolimán	7	Julio	2023-07-29T00:00:00	2024-11-08T09:00:00	7	Dirección del viento	3.22
138431	7	Sololá	713	San Lucas Tolimán	10	San Lucas Tolimán	7	Julio	2023-07-29T00:00:00	2024-11-08T09:00:00	1	Precipitación	0
138432	7	Sololá	713	San Lucas Tolimán	10	San Lucas Tolimán	7	Julio	2023-07-29T00:00:00	2024-11-08T09:00:00	8	Radiación solar	176
138433	7	Sololá	713	San Lucas Tolimán	10	San Lucas Tolimán	7	Julio	2023-07-29T00:00:00	2024-11-08T10:00:00	2	Temperatura media	20.6
138434	7	Sololá	713	San Lucas Tolimán	10	San Lucas Tolimán	7	Julio	2023-07-29T00:00:00	2024-11-08T10:00:00	4	Temperatura máxima	20.8
138435	7	Sololá	713	San Lucas Tolimán	10	San Lucas Tolimán	7	Julio	2023-07-29T00:00:00	2024-11-08T10:00:00	3	Temperatura mínima	20.2
138436	7	Sololá	713	San Lucas Tolimán	10	San Lucas Tolimán	7	Julio	2023-07-29T00:00:00	2024-11-08T10:00:00	5	Humedad	60
138437	7	Sololá	713	San Lucas Tolimán	10	San Lucas Tolimán	7	Julio	2023-07-29T00:00:00	2024-11-08T10:00:00	6	Velocidad del viento	6.4
138438	7	Sololá	713	San Lucas Tolimán	10	San Lucas Tolimán	7	Julio	2023-07-29T00:00:00	2024-11-08T10:00:00	7	Dirección del viento	6.44
138439	7	Sololá	713	San Lucas Tolimán	10	San Lucas Tolimán	7	Julio	2023-07-29T00:00:00	2024-11-08T10:00:00	1	Precipitación	0
138440	7	Sololá	713	San Lucas Tolimán	10	San Lucas Tolimán	7	Julio	2023-07-29T00:00:00	2024-11-08T10:00:00	8	Radiación solar	181
138441	7	Sololá	713	San Lucas Tolimán	10	San Lucas Tolimán	7	Julio	2023-07-29T00:00:00	2024-11-08T11:00:00	2	Temperatura media	21.2
138442	7	Sololá	713	San Lucas Tolimán	10	San Lucas Tolimán	7	Julio	2023-07-29T00:00:00	2024-11-08T11:00:00	4	Temperatura máxima	21.2
138443	7	Sololá	713	San Lucas Tolimán	10	San Lucas Tolimán	7	Julio	2023-07-29T00:00:00	2024-11-08T11:00:00	3	Temperatura mínima	20.6
138444	7	Sololá	713	San Lucas Tolimán	10	San Lucas Tolimán	7	Julio	2023-07-29T00:00:00	2024-11-08T11:00:00	5	Humedad	60
138445	7	Sololá	713	San Lucas Tolimán	10	San Lucas Tolimán	7	Julio	2023-07-29T00:00:00	2024-11-08T11:00:00	6	Velocidad del viento	1.6
138446	7	Sololá	713	San Lucas Tolimán	10	San Lucas Tolimán	7	Julio	2023-07-29T00:00:00	2024-11-08T11:00:00	7	Dirección del viento	1.61
138447	7	Sololá	713	San Lucas Tolimán	10	San Lucas Tolimán	7	Julio	2023-07-29T00:00:00	2024-11-08T11:00:00	1	Precipitación	0.2
138448	7	Sololá	713	San Lucas Tolimán	10	San Lucas Tolimán	7	Julio	2023-07-29T00:00:00	2024-11-08T11:00:00	8	Radiación solar	239
138449	7	Sololá	713	San Lucas Tolimán	10	San Lucas Tolimán	7	Julio	2023-07-29T00:00:00	2024-11-08T12:00:00	2	Temperatura media	21.6
138450	7	Sololá	713	San Lucas Tolimán	10	San Lucas Tolimán	7	Julio	2023-07-29T00:00:00	2024-11-08T12:00:00	4	Temperatura máxima	22
138451	7	Sololá	713	San Lucas Tolimán	10	San Lucas Tolimán	7	Julio	2023-07-29T00:00:00	2024-11-08T12:00:00	3	Temperatura mínima	21.1
138452	7	Sololá	713	San Lucas Tolimán	10	San Lucas Tolimán	7	Julio	2023-07-29T00:00:00	2024-11-08T12:00:00	5	Humedad	57
138453	7	Sololá	713	San Lucas Tolimán	10	San Lucas Tolimán	7	Julio	2023-07-29T00:00:00	2024-11-08T12:00:00	6	Velocidad del viento	4.8
138454	7	Sololá	713	San Lucas Tolimán	10	San Lucas Tolimán	7	Julio	2023-07-29T00:00:00	2024-11-08T12:00:00	7	Dirección del viento	4.83
138455	7	Sololá	713	San Lucas Tolimán	10	San Lucas Tolimán	7	Julio	2023-07-29T00:00:00	2024-11-08T12:00:00	1	Precipitación	0
138456	7	Sololá	713	San Lucas Tolimán	10	San Lucas Tolimán	7	Julio	2023-07-29T00:00:00	2024-11-08T12:00:00	8	Radiación solar	270
138457	7	Sololá	713	San Lucas Tolimán	10	San Lucas Tolimán	7	Julio	2023-07-29T00:00:00	2024-11-08T13:00:00	2	Temperatura media	20.7
138458	7	Sololá	713	San Lucas Tolimán	10	San Lucas Tolimán	7	Julio	2023-07-29T00:00:00	2024-11-08T13:00:00	4	Temperatura máxima	21.7
138459	7	Sololá	713	San Lucas Tolimán	10	San Lucas Tolimán	7	Julio	2023-07-29T00:00:00	2024-11-08T13:00:00	3	Temperatura mínima	20.7
138460	7	Sololá	713	San Lucas Tolimán	10	San Lucas Tolimán	7	Julio	2023-07-29T00:00:00	2024-11-08T13:00:00	5	Humedad	59
138461	7	Sololá	713	San Lucas Tolimán	10	San Lucas Tolimán	7	Julio	2023-07-29T00:00:00	2024-11-08T13:00:00	6	Velocidad del viento	1.6
138462	7	Sololá	713	San Lucas Tolimán	10	San Lucas Tolimán	7	Julio	2023-07-29T00:00:00	2024-11-08T13:00:00	7	Dirección del viento	1.61
138463	7	Sololá	713	San Lucas Tolimán	10	San Lucas Tolimán	7	Julio	2023-07-29T00:00:00	2024-11-08T13:00:00	1	Precipitación	0.2
138464	7	Sololá	713	San Lucas Tolimán	10	San Lucas Tolimán	7	Julio	2023-07-29T00:00:00	2024-11-08T13:00:00	8	Radiación solar	203
138465	7	Sololá	713	San Lucas Tolimán	10	San Lucas Tolimán	7	Julio	2023-07-29T00:00:00	2024-11-08T14:00:00	2	Temperatura media	19.8
138466	7	Sololá	713	San Lucas Tolimán	10	San Lucas Tolimán	7	Julio	2023-07-29T00:00:00	2024-11-08T14:00:00	4	Temperatura máxima	20.7
138467	7	Sololá	713	San Lucas Tolimán	10	San Lucas Tolimán	7	Julio	2023-07-29T00:00:00	2024-11-08T14:00:00	3	Temperatura mínima	19
138468	7	Sololá	713	San Lucas Tolimán	10	San Lucas Tolimán	7	Julio	2023-07-29T00:00:00	2024-11-08T14:00:00	5	Humedad	61
138469	7	Sololá	713	San Lucas Tolimán	10	San Lucas Tolimán	7	Julio	2023-07-29T00:00:00	2024-11-08T14:00:00	6	Velocidad del viento	4.8
138470	7	Sololá	713	San Lucas Tolimán	10	San Lucas Tolimán	7	Julio	2023-07-29T00:00:00	2024-11-08T14:00:00	7	Dirección del viento	4.83
138471	7	Sololá	713	San Lucas Tolimán	10	San Lucas Tolimán	7	Julio	2023-07-29T00:00:00	2024-11-08T14:00:00	1	Precipitación	1.2
138472	7	Sololá	713	San Lucas Tolimán	10	San Lucas Tolimán	7	Julio	2023-07-29T00:00:00	2024-11-08T14:00:00	8	Radiación solar	189
138473	7	Sololá	713	San Lucas Tolimán	10	San Lucas Tolimán	7	Julio	2023-07-29T00:00:00	2024-11-08T15:00:00	2	Temperatura media	21.4
138474	7	Sololá	713	San Lucas Tolimán	10	San Lucas Tolimán	7	Julio	2023-07-29T00:00:00	2024-11-08T15:00:00	4	Temperatura máxima	21.6
138475	7	Sololá	713	San Lucas Tolimán	10	San Lucas Tolimán	7	Julio	2023-07-29T00:00:00	2024-11-08T15:00:00	3	Temperatura mínima	19.8
138476	7	Sololá	713	San Lucas Tolimán	10	San Lucas Tolimán	7	Julio	2023-07-29T00:00:00	2024-11-08T15:00:00	5	Humedad	58
138477	7	Sololá	713	San Lucas Tolimán	10	San Lucas Tolimán	7	Julio	2023-07-29T00:00:00	2024-11-08T15:00:00	6	Velocidad del viento	3.2
138478	7	Sololá	713	San Lucas Tolimán	10	San Lucas Tolimán	7	Julio	2023-07-29T00:00:00	2024-11-08T15:00:00	7	Dirección del viento	3.22
138479	7	Sololá	713	San Lucas Tolimán	10	San Lucas Tolimán	7	Julio	2023-07-29T00:00:00	2024-11-08T15:00:00	1	Precipitación	0
138480	7	Sololá	713	San Lucas Tolimán	10	San Lucas Tolimán	7	Julio	2023-07-29T00:00:00	2024-11-08T15:00:00	8	Radiación solar	345
138481	7	Sololá	713	San Lucas Tolimán	10	San Lucas Tolimán	7	Julio	2023-07-29T00:00:00	2024-11-08T16:00:00	2	Temperatura media	23.4
138482	7	Sololá	713	San Lucas Tolimán	10	San Lucas Tolimán	7	Julio	2023-07-29T00:00:00	2024-11-08T16:00:00	4	Temperatura máxima	23.4
138483	7	Sololá	713	San Lucas Tolimán	10	San Lucas Tolimán	7	Julio	2023-07-29T00:00:00	2024-11-08T16:00:00	3	Temperatura mínima	21.4
138484	7	Sololá	713	San Lucas Tolimán	10	San Lucas Tolimán	7	Julio	2023-07-29T00:00:00	2024-11-08T16:00:00	5	Humedad	56
138485	7	Sololá	713	San Lucas Tolimán	10	San Lucas Tolimán	7	Julio	2023-07-29T00:00:00	2024-11-08T16:00:00	6	Velocidad del viento	3.2
138486	7	Sololá	713	San Lucas Tolimán	10	San Lucas Tolimán	7	Julio	2023-07-29T00:00:00	2024-11-08T16:00:00	7	Dirección del viento	3.22
138487	7	Sololá	713	San Lucas Tolimán	10	San Lucas Tolimán	7	Julio	2023-07-29T00:00:00	2024-11-08T16:00:00	1	Precipitación	0
138488	7	Sololá	713	San Lucas Tolimán	10	San Lucas Tolimán	7	Julio	2023-07-29T00:00:00	2024-11-08T16:00:00	8	Radiación solar	413
138489	7	Sololá	713	San Lucas Tolimán	10	San Lucas Tolimán	7	Julio	2023-07-29T00:00:00	2024-11-08T17:00:00	2	Temperatura media	21
138490	7	Sololá	713	San Lucas Tolimán	10	San Lucas Tolimán	7	Julio	2023-07-29T00:00:00	2024-11-08T17:00:00	4	Temperatura máxima	24.3
138491	7	Sololá	713	San Lucas Tolimán	10	San Lucas Tolimán	7	Julio	2023-07-29T00:00:00	2024-11-08T17:00:00	3	Temperatura mínima	21
138492	7	Sololá	713	San Lucas Tolimán	10	San Lucas Tolimán	7	Julio	2023-07-29T00:00:00	2024-11-08T17:00:00	5	Humedad	62
138493	7	Sololá	713	San Lucas Tolimán	10	San Lucas Tolimán	7	Julio	2023-07-29T00:00:00	2024-11-08T17:00:00	6	Velocidad del viento	4.8
138494	7	Sololá	713	San Lucas Tolimán	10	San Lucas Tolimán	7	Julio	2023-07-29T00:00:00	2024-11-08T17:00:00	7	Dirección del viento	4.83
138495	7	Sololá	713	San Lucas Tolimán	10	San Lucas Tolimán	7	Julio	2023-07-29T00:00:00	2024-11-08T17:00:00	1	Precipitación	0.8
138496	7	Sololá	713	San Lucas Tolimán	10	San Lucas Tolimán	7	Julio	2023-07-29T00:00:00	2024-11-08T17:00:00	8	Radiación solar	305
138497	7	Sololá	713	San Lucas Tolimán	10	San Lucas Tolimán	7	Julio	2023-07-29T00:00:00	2024-11-08T18:00:00	2	Temperatura media	18.6
138498	7	Sololá	713	San Lucas Tolimán	10	San Lucas Tolimán	7	Julio	2023-07-29T00:00:00	2024-11-08T18:00:00	4	Temperatura máxima	20.9
138499	7	Sololá	713	San Lucas Tolimán	10	San Lucas Tolimán	7	Julio	2023-07-29T00:00:00	2024-11-08T18:00:00	3	Temperatura mínima	18.6
138500	7	Sololá	713	San Lucas Tolimán	10	San Lucas Tolimán	7	Julio	2023-07-29T00:00:00	2024-11-08T18:00:00	5	Humedad	63
138501	7	Sololá	713	San Lucas Tolimán	10	San Lucas Tolimán	7	Julio	2023-07-29T00:00:00	2024-11-08T18:00:00	6	Velocidad del viento	4.8
138502	7	Sololá	713	San Lucas Tolimán	10	San Lucas Tolimán	7	Julio	2023-07-29T00:00:00	2024-11-08T18:00:00	7	Dirección del viento	4.83
138503	7	Sololá	713	San Lucas Tolimán	10	San Lucas Tolimán	7	Julio	2023-07-29T00:00:00	2024-11-08T18:00:00	1	Precipitación	12.6
138504	7	Sololá	713	San Lucas Tolimán	10	San Lucas Tolimán	7	Julio	2023-07-29T00:00:00	2024-11-08T18:00:00	8	Radiación solar	18
138505	7	Sololá	713	San Lucas Tolimán	10	San Lucas Tolimán	7	Julio	2023-07-29T00:00:00	2024-11-08T19:00:00	2	Temperatura media	18.3
138506	7	Sololá	713	San Lucas Tolimán	10	San Lucas Tolimán	7	Julio	2023-07-29T00:00:00	2024-11-08T19:00:00	4	Temperatura máxima	18.6
138507	7	Sololá	713	San Lucas Tolimán	10	San Lucas Tolimán	7	Julio	2023-07-29T00:00:00	2024-11-08T19:00:00	3	Temperatura mínima	18
138508	7	Sololá	713	San Lucas Tolimán	10	San Lucas Tolimán	7	Julio	2023-07-29T00:00:00	2024-11-08T19:00:00	5	Humedad	68
138509	7	Sololá	713	San Lucas Tolimán	10	San Lucas Tolimán	7	Julio	2023-07-29T00:00:00	2024-11-08T19:00:00	6	Velocidad del viento	3.2
138510	7	Sololá	713	San Lucas Tolimán	10	San Lucas Tolimán	7	Julio	2023-07-29T00:00:00	2024-11-08T19:00:00	7	Dirección del viento	3.22
138511	7	Sololá	713	San Lucas Tolimán	10	San Lucas Tolimán	7	Julio	2023-07-29T00:00:00	2024-11-08T19:00:00	1	Precipitación	9.2
138512	7	Sololá	713	San Lucas Tolimán	10	San Lucas Tolimán	7	Julio	2023-07-29T00:00:00	2024-11-08T19:00:00	8	Radiación solar	0
138513	7	Sololá	713	San Lucas Tolimán	10	San Lucas Tolimán	7	Julio	2023-07-29T00:00:00	2024-11-08T20:00:00	2	Temperatura media	18.1
138514	7	Sololá	713	San Lucas Tolimán	10	San Lucas Tolimán	7	Julio	2023-07-29T00:00:00	2024-11-08T20:00:00	4	Temperatura máxima	18.4
138515	7	Sololá	713	San Lucas Tolimán	10	San Lucas Tolimán	7	Julio	2023-07-29T00:00:00	2024-11-08T20:00:00	3	Temperatura mínima	18.1
138516	7	Sololá	713	San Lucas Tolimán	10	San Lucas Tolimán	7	Julio	2023-07-29T00:00:00	2024-11-08T20:00:00	5	Humedad	68
138517	7	Sololá	713	San Lucas Tolimán	10	San Lucas Tolimán	7	Julio	2023-07-29T00:00:00	2024-11-08T20:00:00	6	Velocidad del viento	3.2
138518	7	Sololá	713	San Lucas Tolimán	10	San Lucas Tolimán	7	Julio	2023-07-29T00:00:00	2024-11-08T20:00:00	7	Dirección del viento	3.22
138519	7	Sololá	713	San Lucas Tolimán	10	San Lucas Tolimán	7	Julio	2023-07-29T00:00:00	2024-11-08T20:00:00	1	Precipitación	0.2
138520	7	Sololá	713	San Lucas Tolimán	10	San Lucas Tolimán	7	Julio	2023-07-29T00:00:00	2024-11-08T20:00:00	8	Radiación solar	0
138521	7	Sololá	713	San Lucas Tolimán	10	San Lucas Tolimán	7	Julio	2023-07-29T00:00:00	2024-11-08T21:00:00	2	Temperatura media	17.9
138522	7	Sololá	713	San Lucas Tolimán	10	San Lucas Tolimán	7	Julio	2023-07-29T00:00:00	2024-11-08T21:00:00	4	Temperatura máxima	18.2
138523	7	Sololá	713	San Lucas Tolimán	10	San Lucas Tolimán	7	Julio	2023-07-29T00:00:00	2024-11-08T21:00:00	3	Temperatura mínima	17.8
138524	7	Sololá	713	San Lucas Tolimán	10	San Lucas Tolimán	7	Julio	2023-07-29T00:00:00	2024-11-08T21:00:00	5	Humedad	68
138525	7	Sololá	713	San Lucas Tolimán	10	San Lucas Tolimán	7	Julio	2023-07-29T00:00:00	2024-11-08T21:00:00	6	Velocidad del viento	1.6
138526	7	Sololá	713	San Lucas Tolimán	10	San Lucas Tolimán	7	Julio	2023-07-29T00:00:00	2024-11-08T21:00:00	7	Dirección del viento	1.61
138527	7	Sololá	713	San Lucas Tolimán	10	San Lucas Tolimán	7	Julio	2023-07-29T00:00:00	2024-11-08T21:00:00	1	Precipitación	3
138528	7	Sololá	713	San Lucas Tolimán	10	San Lucas Tolimán	7	Julio	2023-07-29T00:00:00	2024-11-08T21:00:00	8	Radiación solar	0
138529	7	Sololá	713	San Lucas Tolimán	10	San Lucas Tolimán	7	Julio	2023-07-29T00:00:00	2024-11-08T22:00:00	2	Temperatura media	17.4
138530	7	Sololá	713	San Lucas Tolimán	10	San Lucas Tolimán	7	Julio	2023-07-29T00:00:00	2024-11-08T22:00:00	4	Temperatura máxima	17.9
138531	7	Sololá	713	San Lucas Tolimán	10	San Lucas Tolimán	7	Julio	2023-07-29T00:00:00	2024-11-08T22:00:00	3	Temperatura mínima	17.3
138532	7	Sololá	713	San Lucas Tolimán	10	San Lucas Tolimán	7	Julio	2023-07-29T00:00:00	2024-11-08T22:00:00	5	Humedad	67
138533	7	Sololá	713	San Lucas Tolimán	10	San Lucas Tolimán	7	Julio	2023-07-29T00:00:00	2024-11-08T22:00:00	6	Velocidad del viento	3.2
138534	7	Sololá	713	San Lucas Tolimán	10	San Lucas Tolimán	7	Julio	2023-07-29T00:00:00	2024-11-08T22:00:00	7	Dirección del viento	3.22
138535	7	Sololá	713	San Lucas Tolimán	10	San Lucas Tolimán	7	Julio	2023-07-29T00:00:00	2024-11-08T22:00:00	1	Precipitación	1.4
138536	7	Sololá	713	San Lucas Tolimán	10	San Lucas Tolimán	7	Julio	2023-07-29T00:00:00	2024-11-08T22:00:00	8	Radiación solar	0
138537	7	Sololá	713	San Lucas Tolimán	10	San Lucas Tolimán	7	Julio	2023-07-29T00:00:00	2024-11-08T23:00:00	2	Temperatura media	17.6
138538	7	Sololá	713	San Lucas Tolimán	10	San Lucas Tolimán	7	Julio	2023-07-29T00:00:00	2024-11-08T23:00:00	4	Temperatura máxima	17.7
138539	7	Sololá	713	San Lucas Tolimán	10	San Lucas Tolimán	7	Julio	2023-07-29T00:00:00	2024-11-08T23:00:00	3	Temperatura mínima	17.4
138540	7	Sololá	713	San Lucas Tolimán	10	San Lucas Tolimán	7	Julio	2023-07-29T00:00:00	2024-11-08T23:00:00	5	Humedad	68
138541	7	Sololá	713	San Lucas Tolimán	10	San Lucas Tolimán	7	Julio	2023-07-29T00:00:00	2024-11-08T23:00:00	6	Velocidad del viento	1.6
138542	7	Sololá	713	San Lucas Tolimán	10	San Lucas Tolimán	7	Julio	2023-07-29T00:00:00	2024-11-08T23:00:00	7	Dirección del viento	1.61
138543	7	Sololá	713	San Lucas Tolimán	10	San Lucas Tolimán	7	Julio	2023-07-29T00:00:00	2024-11-08T23:00:00	1	Precipitación	0
138544	7	Sololá	713	San Lucas Tolimán	10	San Lucas Tolimán	7	Julio	2023-07-29T00:00:00	2024-11-08T23:00:00	8	Radiación solar	0
138545	7	Sololá	713	San Lucas Tolimán	10	San Lucas Tolimán	7	Julio	2023-07-30T00:00:00	2024-11-08T00:00:00	2	Temperatura media	17.6
138546	7	Sololá	713	San Lucas Tolimán	10	San Lucas Tolimán	7	Julio	2023-07-30T00:00:00	2024-11-08T00:00:00	4	Temperatura máxima	17.6
138547	7	Sololá	713	San Lucas Tolimán	10	San Lucas Tolimán	7	Julio	2023-07-30T00:00:00	2024-11-08T00:00:00	3	Temperatura mínima	17.2
138548	7	Sololá	713	San Lucas Tolimán	10	San Lucas Tolimán	7	Julio	2023-07-30T00:00:00	2024-11-08T00:00:00	5	Humedad	68
138549	7	Sololá	713	San Lucas Tolimán	10	San Lucas Tolimán	7	Julio	2023-07-30T00:00:00	2024-11-08T00:00:00	6	Velocidad del viento	1.6
138550	7	Sololá	713	San Lucas Tolimán	10	San Lucas Tolimán	7	Julio	2023-07-30T00:00:00	2024-11-08T00:00:00	7	Dirección del viento	1.61
138551	7	Sololá	713	San Lucas Tolimán	10	San Lucas Tolimán	7	Julio	2023-07-30T00:00:00	2024-11-08T00:00:00	1	Precipitación	0
138552	7	Sololá	713	San Lucas Tolimán	10	San Lucas Tolimán	7	Julio	2023-07-30T00:00:00	2024-11-08T00:00:00	8	Radiación solar	0
138553	7	Sololá	713	San Lucas Tolimán	10	San Lucas Tolimán	7	Julio	2023-07-30T00:00:00	2024-11-08T01:00:00	2	Temperatura media	17.8
138554	7	Sololá	713	San Lucas Tolimán	10	San Lucas Tolimán	7	Julio	2023-07-30T00:00:00	2024-11-08T01:00:00	4	Temperatura máxima	17.9
138555	7	Sololá	713	San Lucas Tolimán	10	San Lucas Tolimán	7	Julio	2023-07-30T00:00:00	2024-11-08T01:00:00	3	Temperatura mínima	17.5
138556	7	Sololá	713	San Lucas Tolimán	10	San Lucas Tolimán	7	Julio	2023-07-30T00:00:00	2024-11-08T01:00:00	5	Humedad	64
138557	7	Sololá	713	San Lucas Tolimán	10	San Lucas Tolimán	7	Julio	2023-07-30T00:00:00	2024-11-08T01:00:00	6	Velocidad del viento	3.2
138558	7	Sololá	713	San Lucas Tolimán	10	San Lucas Tolimán	7	Julio	2023-07-30T00:00:00	2024-11-08T01:00:00	7	Dirección del viento	3.22
138559	7	Sololá	713	San Lucas Tolimán	10	San Lucas Tolimán	7	Julio	2023-07-30T00:00:00	2024-11-08T01:00:00	1	Precipitación	0.2
138560	7	Sololá	713	San Lucas Tolimán	10	San Lucas Tolimán	7	Julio	2023-07-30T00:00:00	2024-11-08T01:00:00	8	Radiación solar	0
138561	7	Sololá	713	San Lucas Tolimán	10	San Lucas Tolimán	7	Julio	2023-07-30T00:00:00	2024-11-08T02:00:00	2	Temperatura media	18.9
138562	7	Sololá	713	San Lucas Tolimán	10	San Lucas Tolimán	7	Julio	2023-07-30T00:00:00	2024-11-08T02:00:00	4	Temperatura máxima	18.9
138563	7	Sololá	713	San Lucas Tolimán	10	San Lucas Tolimán	7	Julio	2023-07-30T00:00:00	2024-11-08T02:00:00	3	Temperatura mínima	17.6
138564	7	Sololá	713	San Lucas Tolimán	10	San Lucas Tolimán	7	Julio	2023-07-30T00:00:00	2024-11-08T02:00:00	5	Humedad	58
138565	7	Sololá	713	San Lucas Tolimán	10	San Lucas Tolimán	7	Julio	2023-07-30T00:00:00	2024-11-08T02:00:00	6	Velocidad del viento	4.8
138566	7	Sololá	713	San Lucas Tolimán	10	San Lucas Tolimán	7	Julio	2023-07-30T00:00:00	2024-11-08T02:00:00	7	Dirección del viento	4.83
138567	7	Sololá	713	San Lucas Tolimán	10	San Lucas Tolimán	7	Julio	2023-07-30T00:00:00	2024-11-08T02:00:00	1	Precipitación	0
138568	7	Sololá	713	San Lucas Tolimán	10	San Lucas Tolimán	7	Julio	2023-07-30T00:00:00	2024-11-08T02:00:00	8	Radiación solar	0
138569	7	Sololá	713	San Lucas Tolimán	10	San Lucas Tolimán	7	Julio	2023-07-30T00:00:00	2024-11-08T03:00:00	2	Temperatura media	17.3
138570	7	Sololá	713	San Lucas Tolimán	10	San Lucas Tolimán	7	Julio	2023-07-30T00:00:00	2024-11-08T03:00:00	4	Temperatura máxima	19.1
138571	7	Sololá	713	San Lucas Tolimán	10	San Lucas Tolimán	7	Julio	2023-07-30T00:00:00	2024-11-08T03:00:00	3	Temperatura mínima	17.3
138572	7	Sololá	713	San Lucas Tolimán	10	San Lucas Tolimán	7	Julio	2023-07-30T00:00:00	2024-11-08T03:00:00	5	Humedad	63
138573	7	Sololá	713	San Lucas Tolimán	10	San Lucas Tolimán	7	Julio	2023-07-30T00:00:00	2024-11-08T03:00:00	6	Velocidad del viento	3.2
138574	7	Sololá	713	San Lucas Tolimán	10	San Lucas Tolimán	7	Julio	2023-07-30T00:00:00	2024-11-08T03:00:00	7	Dirección del viento	3.22
138575	7	Sololá	713	San Lucas Tolimán	10	San Lucas Tolimán	7	Julio	2023-07-30T00:00:00	2024-11-08T03:00:00	1	Precipitación	0
138576	7	Sololá	713	San Lucas Tolimán	10	San Lucas Tolimán	7	Julio	2023-07-30T00:00:00	2024-11-08T03:00:00	8	Radiación solar	0
138577	7	Sololá	713	San Lucas Tolimán	10	San Lucas Tolimán	7	Julio	2023-07-30T00:00:00	2024-11-08T04:00:00	2	Temperatura media	17.4
138578	7	Sololá	713	San Lucas Tolimán	10	San Lucas Tolimán	7	Julio	2023-07-30T00:00:00	2024-11-08T04:00:00	4	Temperatura máxima	17.5
138579	7	Sololá	713	San Lucas Tolimán	10	San Lucas Tolimán	7	Julio	2023-07-30T00:00:00	2024-11-08T04:00:00	3	Temperatura mínima	17
138580	7	Sololá	713	San Lucas Tolimán	10	San Lucas Tolimán	7	Julio	2023-07-30T00:00:00	2024-11-08T04:00:00	5	Humedad	61
138581	7	Sololá	713	San Lucas Tolimán	10	San Lucas Tolimán	7	Julio	2023-07-30T00:00:00	2024-11-08T04:00:00	6	Velocidad del viento	1.6
138582	7	Sololá	713	San Lucas Tolimán	10	San Lucas Tolimán	7	Julio	2023-07-30T00:00:00	2024-11-08T04:00:00	7	Dirección del viento	1.61
138583	7	Sololá	713	San Lucas Tolimán	10	San Lucas Tolimán	7	Julio	2023-07-30T00:00:00	2024-11-08T04:00:00	1	Precipitación	0
138584	7	Sololá	713	San Lucas Tolimán	10	San Lucas Tolimán	7	Julio	2023-07-30T00:00:00	2024-11-08T04:00:00	8	Radiación solar	0
138585	7	Sololá	713	San Lucas Tolimán	10	San Lucas Tolimán	7	Julio	2023-07-30T00:00:00	2024-11-08T05:00:00	2	Temperatura media	17.7
138586	7	Sololá	713	San Lucas Tolimán	10	San Lucas Tolimán	7	Julio	2023-07-30T00:00:00	2024-11-08T05:00:00	4	Temperatura máxima	17.8
138587	7	Sololá	713	San Lucas Tolimán	10	San Lucas Tolimán	7	Julio	2023-07-30T00:00:00	2024-11-08T05:00:00	3	Temperatura mínima	17.4
138588	7	Sololá	713	San Lucas Tolimán	10	San Lucas Tolimán	7	Julio	2023-07-30T00:00:00	2024-11-08T05:00:00	5	Humedad	61
138589	7	Sololá	713	San Lucas Tolimán	10	San Lucas Tolimán	7	Julio	2023-07-30T00:00:00	2024-11-08T05:00:00	6	Velocidad del viento	0
138590	7	Sololá	713	San Lucas Tolimán	10	San Lucas Tolimán	7	Julio	2023-07-30T00:00:00	2024-11-08T05:00:00	7	Dirección del viento	0
138591	7	Sololá	713	San Lucas Tolimán	10	San Lucas Tolimán	7	Julio	2023-07-30T00:00:00	2024-11-08T05:00:00	1	Precipitación	0
138592	7	Sololá	713	San Lucas Tolimán	10	San Lucas Tolimán	7	Julio	2023-07-30T00:00:00	2024-11-08T05:00:00	8	Radiación solar	0
138593	7	Sololá	713	San Lucas Tolimán	10	San Lucas Tolimán	7	Julio	2023-07-30T00:00:00	2024-11-08T06:00:00	2	Temperatura media	19
138594	7	Sololá	713	San Lucas Tolimán	10	San Lucas Tolimán	7	Julio	2023-07-30T00:00:00	2024-11-08T06:00:00	4	Temperatura máxima	19.2
138595	7	Sololá	713	San Lucas Tolimán	10	San Lucas Tolimán	7	Julio	2023-07-30T00:00:00	2024-11-08T06:00:00	3	Temperatura mínima	17.6
138596	7	Sololá	713	San Lucas Tolimán	10	San Lucas Tolimán	7	Julio	2023-07-30T00:00:00	2024-11-08T06:00:00	5	Humedad	59
138597	7	Sololá	713	San Lucas Tolimán	10	San Lucas Tolimán	7	Julio	2023-07-30T00:00:00	2024-11-08T06:00:00	6	Velocidad del viento	6.4
138598	7	Sololá	713	San Lucas Tolimán	10	San Lucas Tolimán	7	Julio	2023-07-30T00:00:00	2024-11-08T06:00:00	7	Dirección del viento	6.44
138599	7	Sololá	713	San Lucas Tolimán	10	San Lucas Tolimán	7	Julio	2023-07-30T00:00:00	2024-11-08T06:00:00	1	Precipitación	0
138600	7	Sololá	713	San Lucas Tolimán	10	San Lucas Tolimán	7	Julio	2023-07-30T00:00:00	2024-11-08T06:00:00	8	Radiación solar	1
138601	7	Sololá	713	San Lucas Tolimán	10	San Lucas Tolimán	7	Julio	2023-07-30T00:00:00	2024-11-08T07:00:00	2	Temperatura media	20.7
138602	7	Sololá	713	San Lucas Tolimán	10	San Lucas Tolimán	7	Julio	2023-07-30T00:00:00	2024-11-08T07:00:00	4	Temperatura máxima	20.7
138603	7	Sololá	713	San Lucas Tolimán	10	San Lucas Tolimán	7	Julio	2023-07-30T00:00:00	2024-11-08T07:00:00	3	Temperatura mínima	18.8
138604	7	Sololá	713	San Lucas Tolimán	10	San Lucas Tolimán	7	Julio	2023-07-30T00:00:00	2024-11-08T07:00:00	5	Humedad	57
138605	7	Sololá	713	San Lucas Tolimán	10	San Lucas Tolimán	7	Julio	2023-07-30T00:00:00	2024-11-08T07:00:00	6	Velocidad del viento	12.9
138606	7	Sololá	713	San Lucas Tolimán	10	San Lucas Tolimán	7	Julio	2023-07-30T00:00:00	2024-11-08T07:00:00	7	Dirección del viento	12.87
138607	7	Sololá	713	San Lucas Tolimán	10	San Lucas Tolimán	7	Julio	2023-07-30T00:00:00	2024-11-08T07:00:00	1	Precipitación	0
138608	7	Sololá	713	San Lucas Tolimán	10	San Lucas Tolimán	7	Julio	2023-07-30T00:00:00	2024-11-08T07:00:00	8	Radiación solar	50
138609	7	Sololá	713	San Lucas Tolimán	10	San Lucas Tolimán	7	Julio	2023-07-30T00:00:00	2024-11-08T08:00:00	2	Temperatura media	22.8
138610	7	Sololá	713	San Lucas Tolimán	10	San Lucas Tolimán	7	Julio	2023-07-30T00:00:00	2024-11-08T08:00:00	4	Temperatura máxima	22.8
138611	7	Sololá	713	San Lucas Tolimán	10	San Lucas Tolimán	7	Julio	2023-07-30T00:00:00	2024-11-08T08:00:00	3	Temperatura mínima	20.7
138612	7	Sololá	713	San Lucas Tolimán	10	San Lucas Tolimán	7	Julio	2023-07-30T00:00:00	2024-11-08T08:00:00	5	Humedad	71
138613	7	Sololá	713	San Lucas Tolimán	10	San Lucas Tolimán	7	Julio	2023-07-30T00:00:00	2024-11-08T08:00:00	6	Velocidad del viento	4.8
138614	7	Sololá	713	San Lucas Tolimán	10	San Lucas Tolimán	7	Julio	2023-07-30T00:00:00	2024-11-08T08:00:00	7	Dirección del viento	4.83
138615	7	Sololá	713	San Lucas Tolimán	10	San Lucas Tolimán	7	Julio	2023-07-30T00:00:00	2024-11-08T08:00:00	1	Precipitación	0
138616	7	Sololá	713	San Lucas Tolimán	10	San Lucas Tolimán	7	Julio	2023-07-30T00:00:00	2024-11-08T08:00:00	8	Radiación solar	300
138617	7	Sololá	713	San Lucas Tolimán	10	San Lucas Tolimán	7	Julio	2023-07-30T00:00:00	2024-11-08T09:00:00	2	Temperatura media	24.9
138618	7	Sololá	713	San Lucas Tolimán	10	San Lucas Tolimán	7	Julio	2023-07-30T00:00:00	2024-11-08T09:00:00	4	Temperatura máxima	24.9
138619	7	Sololá	713	San Lucas Tolimán	10	San Lucas Tolimán	7	Julio	2023-07-30T00:00:00	2024-11-08T09:00:00	3	Temperatura mínima	22.8
138620	7	Sololá	713	San Lucas Tolimán	10	San Lucas Tolimán	7	Julio	2023-07-30T00:00:00	2024-11-08T09:00:00	5	Humedad	65
138621	7	Sololá	713	San Lucas Tolimán	10	San Lucas Tolimán	7	Julio	2023-07-30T00:00:00	2024-11-08T09:00:00	6	Velocidad del viento	1.6
138622	7	Sololá	713	San Lucas Tolimán	10	San Lucas Tolimán	7	Julio	2023-07-30T00:00:00	2024-11-08T09:00:00	7	Dirección del viento	1.61
138623	7	Sololá	713	San Lucas Tolimán	10	San Lucas Tolimán	7	Julio	2023-07-30T00:00:00	2024-11-08T09:00:00	1	Precipitación	0
138624	7	Sololá	713	San Lucas Tolimán	10	San Lucas Tolimán	7	Julio	2023-07-30T00:00:00	2024-11-08T09:00:00	8	Radiación solar	410
138625	7	Sololá	713	San Lucas Tolimán	10	San Lucas Tolimán	7	Julio	2023-07-30T00:00:00	2024-11-08T10:00:00	2	Temperatura media	25.4
138626	7	Sololá	713	San Lucas Tolimán	10	San Lucas Tolimán	7	Julio	2023-07-30T00:00:00	2024-11-08T10:00:00	4	Temperatura máxima	26.2
138627	7	Sololá	713	San Lucas Tolimán	10	San Lucas Tolimán	7	Julio	2023-07-30T00:00:00	2024-11-08T10:00:00	3	Temperatura mínima	24.9
138628	7	Sololá	713	San Lucas Tolimán	10	San Lucas Tolimán	7	Julio	2023-07-30T00:00:00	2024-11-08T10:00:00	5	Humedad	71
138629	7	Sololá	713	San Lucas Tolimán	10	San Lucas Tolimán	7	Julio	2023-07-30T00:00:00	2024-11-08T10:00:00	6	Velocidad del viento	4.8
138630	7	Sololá	713	San Lucas Tolimán	10	San Lucas Tolimán	7	Julio	2023-07-30T00:00:00	2024-11-08T10:00:00	7	Dirección del viento	4.83
138631	7	Sololá	713	San Lucas Tolimán	10	San Lucas Tolimán	7	Julio	2023-07-30T00:00:00	2024-11-08T10:00:00	1	Precipitación	0
138632	7	Sololá	713	San Lucas Tolimán	10	San Lucas Tolimán	7	Julio	2023-07-30T00:00:00	2024-11-08T10:00:00	8	Radiación solar	720
138633	7	Sololá	713	San Lucas Tolimán	10	San Lucas Tolimán	7	Julio	2023-07-30T00:00:00	2024-11-08T11:00:00	2	Temperatura media	24.9
138634	7	Sololá	713	San Lucas Tolimán	10	San Lucas Tolimán	7	Julio	2023-07-30T00:00:00	2024-11-08T11:00:00	4	Temperatura máxima	25.4
138635	7	Sololá	713	San Lucas Tolimán	10	San Lucas Tolimán	7	Julio	2023-07-30T00:00:00	2024-11-08T11:00:00	3	Temperatura mínima	24.6
138636	7	Sololá	713	San Lucas Tolimán	10	San Lucas Tolimán	7	Julio	2023-07-30T00:00:00	2024-11-08T11:00:00	5	Humedad	75
138637	7	Sololá	713	San Lucas Tolimán	10	San Lucas Tolimán	7	Julio	2023-07-30T00:00:00	2024-11-08T11:00:00	6	Velocidad del viento	8
138638	7	Sololá	713	San Lucas Tolimán	10	San Lucas Tolimán	7	Julio	2023-07-30T00:00:00	2024-11-08T11:00:00	7	Dirección del viento	8.05
138639	7	Sololá	713	San Lucas Tolimán	10	San Lucas Tolimán	7	Julio	2023-07-30T00:00:00	2024-11-08T11:00:00	1	Precipitación	0
138640	7	Sololá	713	San Lucas Tolimán	10	San Lucas Tolimán	7	Julio	2023-07-30T00:00:00	2024-11-08T11:00:00	8	Radiación solar	638
138641	7	Sololá	713	San Lucas Tolimán	10	San Lucas Tolimán	7	Julio	2023-07-30T00:00:00	2024-11-08T12:00:00	2	Temperatura media	25.1
138642	7	Sololá	713	San Lucas Tolimán	10	San Lucas Tolimán	7	Julio	2023-07-30T00:00:00	2024-11-08T12:00:00	4	Temperatura máxima	25.3
138643	7	Sololá	713	San Lucas Tolimán	10	San Lucas Tolimán	7	Julio	2023-07-30T00:00:00	2024-11-08T12:00:00	3	Temperatura mínima	24.8
138644	7	Sololá	713	San Lucas Tolimán	10	San Lucas Tolimán	7	Julio	2023-07-30T00:00:00	2024-11-08T12:00:00	5	Humedad	73
138645	7	Sololá	713	San Lucas Tolimán	10	San Lucas Tolimán	7	Julio	2023-07-30T00:00:00	2024-11-08T12:00:00	6	Velocidad del viento	9.7
138646	7	Sololá	713	San Lucas Tolimán	10	San Lucas Tolimán	7	Julio	2023-07-30T00:00:00	2024-11-08T12:00:00	7	Dirección del viento	9.66
138647	7	Sololá	713	San Lucas Tolimán	10	San Lucas Tolimán	7	Julio	2023-07-30T00:00:00	2024-11-08T12:00:00	1	Precipitación	0
138648	7	Sololá	713	San Lucas Tolimán	10	San Lucas Tolimán	7	Julio	2023-07-30T00:00:00	2024-11-08T12:00:00	8	Radiación solar	471
138649	7	Sololá	713	San Lucas Tolimán	10	San Lucas Tolimán	7	Julio	2023-07-30T00:00:00	2024-11-08T13:00:00	2	Temperatura media	24.5
138650	7	Sololá	713	San Lucas Tolimán	10	San Lucas Tolimán	7	Julio	2023-07-30T00:00:00	2024-11-08T13:00:00	4	Temperatura máxima	25.2
138651	7	Sololá	713	San Lucas Tolimán	10	San Lucas Tolimán	7	Julio	2023-07-30T00:00:00	2024-11-08T13:00:00	3	Temperatura mínima	24.4
138652	7	Sololá	713	San Lucas Tolimán	10	San Lucas Tolimán	7	Julio	2023-07-30T00:00:00	2024-11-08T13:00:00	5	Humedad	77
138653	7	Sololá	713	San Lucas Tolimán	10	San Lucas Tolimán	7	Julio	2023-07-30T00:00:00	2024-11-08T13:00:00	6	Velocidad del viento	11.3
138654	7	Sololá	713	San Lucas Tolimán	10	San Lucas Tolimán	7	Julio	2023-07-30T00:00:00	2024-11-08T13:00:00	7	Dirección del viento	11.27
138655	7	Sololá	713	San Lucas Tolimán	10	San Lucas Tolimán	7	Julio	2023-07-30T00:00:00	2024-11-08T13:00:00	1	Precipitación	0
138656	7	Sololá	713	San Lucas Tolimán	10	San Lucas Tolimán	7	Julio	2023-07-30T00:00:00	2024-11-08T13:00:00	8	Radiación solar	780
138657	7	Sololá	713	San Lucas Tolimán	10	San Lucas Tolimán	7	Julio	2023-07-30T00:00:00	2024-11-08T14:00:00	2	Temperatura media	24.9
138658	7	Sololá	713	San Lucas Tolimán	10	San Lucas Tolimán	7	Julio	2023-07-30T00:00:00	2024-11-08T14:00:00	4	Temperatura máxima	25.2
138659	7	Sololá	713	San Lucas Tolimán	10	San Lucas Tolimán	7	Julio	2023-07-30T00:00:00	2024-11-08T14:00:00	3	Temperatura mínima	24.5
138660	7	Sololá	713	San Lucas Tolimán	10	San Lucas Tolimán	7	Julio	2023-07-30T00:00:00	2024-11-08T14:00:00	5	Humedad	75
138661	7	Sololá	713	San Lucas Tolimán	10	San Lucas Tolimán	7	Julio	2023-07-30T00:00:00	2024-11-08T14:00:00	6	Velocidad del viento	11.3
138662	7	Sololá	713	San Lucas Tolimán	10	San Lucas Tolimán	7	Julio	2023-07-30T00:00:00	2024-11-08T14:00:00	7	Dirección del viento	11.27
138663	7	Sololá	713	San Lucas Tolimán	10	San Lucas Tolimán	7	Julio	2023-07-30T00:00:00	2024-11-08T14:00:00	1	Precipitación	0
138664	7	Sololá	713	San Lucas Tolimán	10	San Lucas Tolimán	7	Julio	2023-07-30T00:00:00	2024-11-08T14:00:00	8	Radiación solar	642
138665	7	Sololá	713	San Lucas Tolimán	10	San Lucas Tolimán	7	Julio	2023-07-30T00:00:00	2024-11-08T15:00:00	2	Temperatura media	23.5
138666	7	Sololá	713	San Lucas Tolimán	10	San Lucas Tolimán	7	Julio	2023-07-30T00:00:00	2024-11-08T15:00:00	4	Temperatura máxima	24.9
138667	7	Sololá	713	San Lucas Tolimán	10	San Lucas Tolimán	7	Julio	2023-07-30T00:00:00	2024-11-08T15:00:00	3	Temperatura mínima	23.2
138668	7	Sololá	713	San Lucas Tolimán	10	San Lucas Tolimán	7	Julio	2023-07-30T00:00:00	2024-11-08T15:00:00	5	Humedad	64
138669	7	Sololá	713	San Lucas Tolimán	10	San Lucas Tolimán	7	Julio	2023-07-30T00:00:00	2024-11-08T15:00:00	6	Velocidad del viento	12.9
138670	7	Sololá	713	San Lucas Tolimán	10	San Lucas Tolimán	7	Julio	2023-07-30T00:00:00	2024-11-08T15:00:00	7	Dirección del viento	12.87
138671	7	Sololá	713	San Lucas Tolimán	10	San Lucas Tolimán	7	Julio	2023-07-30T00:00:00	2024-11-08T15:00:00	1	Precipitación	0
138672	7	Sololá	713	San Lucas Tolimán	10	San Lucas Tolimán	7	Julio	2023-07-30T00:00:00	2024-11-08T15:00:00	8	Radiación solar	909
138673	7	Sololá	713	San Lucas Tolimán	10	San Lucas Tolimán	7	Julio	2023-07-30T00:00:00	2024-11-08T16:00:00	2	Temperatura media	22.1
138674	7	Sololá	713	San Lucas Tolimán	10	San Lucas Tolimán	7	Julio	2023-07-30T00:00:00	2024-11-08T16:00:00	4	Temperatura máxima	23.6
138675	7	Sololá	713	San Lucas Tolimán	10	San Lucas Tolimán	7	Julio	2023-07-30T00:00:00	2024-11-08T16:00:00	3	Temperatura mínima	22.1
138676	7	Sololá	713	San Lucas Tolimán	10	San Lucas Tolimán	7	Julio	2023-07-30T00:00:00	2024-11-08T16:00:00	5	Humedad	64
138677	7	Sololá	713	San Lucas Tolimán	10	San Lucas Tolimán	7	Julio	2023-07-30T00:00:00	2024-11-08T16:00:00	6	Velocidad del viento	12.9
138678	7	Sololá	713	San Lucas Tolimán	10	San Lucas Tolimán	7	Julio	2023-07-30T00:00:00	2024-11-08T16:00:00	7	Dirección del viento	12.87
138679	7	Sololá	713	San Lucas Tolimán	10	San Lucas Tolimán	7	Julio	2023-07-30T00:00:00	2024-11-08T16:00:00	1	Precipitación	0
138680	7	Sololá	713	San Lucas Tolimán	10	San Lucas Tolimán	7	Julio	2023-07-30T00:00:00	2024-11-08T16:00:00	8	Radiación solar	455
138681	7	Sololá	713	San Lucas Tolimán	10	San Lucas Tolimán	7	Julio	2023-07-30T00:00:00	2024-11-08T17:00:00	2	Temperatura media	22.3
138682	7	Sololá	713	San Lucas Tolimán	10	San Lucas Tolimán	7	Julio	2023-07-30T00:00:00	2024-11-08T17:00:00	4	Temperatura máxima	22.6
138683	7	Sololá	713	San Lucas Tolimán	10	San Lucas Tolimán	7	Julio	2023-07-30T00:00:00	2024-11-08T17:00:00	3	Temperatura mínima	21.9
138684	7	Sololá	713	San Lucas Tolimán	10	San Lucas Tolimán	7	Julio	2023-07-30T00:00:00	2024-11-08T17:00:00	5	Humedad	63
138685	7	Sololá	713	San Lucas Tolimán	10	San Lucas Tolimán	7	Julio	2023-07-30T00:00:00	2024-11-08T17:00:00	6	Velocidad del viento	9.7
138686	7	Sololá	713	San Lucas Tolimán	10	San Lucas Tolimán	7	Julio	2023-07-30T00:00:00	2024-11-08T17:00:00	7	Dirección del viento	9.66
138687	7	Sololá	713	San Lucas Tolimán	10	San Lucas Tolimán	7	Julio	2023-07-30T00:00:00	2024-11-08T17:00:00	1	Precipitación	0
138688	7	Sololá	713	San Lucas Tolimán	10	San Lucas Tolimán	7	Julio	2023-07-30T00:00:00	2024-11-08T17:00:00	8	Radiación solar	290
138689	7	Sololá	713	San Lucas Tolimán	10	San Lucas Tolimán	7	Julio	2023-07-30T00:00:00	2024-11-08T18:00:00	2	Temperatura media	21.6
138690	7	Sololá	713	San Lucas Tolimán	10	San Lucas Tolimán	7	Julio	2023-07-30T00:00:00	2024-11-08T18:00:00	4	Temperatura máxima	22.7
138691	7	Sololá	713	San Lucas Tolimán	10	San Lucas Tolimán	7	Julio	2023-07-30T00:00:00	2024-11-08T18:00:00	3	Temperatura mínima	21.6
138692	7	Sololá	713	San Lucas Tolimán	10	San Lucas Tolimán	7	Julio	2023-07-30T00:00:00	2024-11-08T18:00:00	5	Humedad	64
138693	7	Sololá	713	San Lucas Tolimán	10	San Lucas Tolimán	7	Julio	2023-07-30T00:00:00	2024-11-08T18:00:00	6	Velocidad del viento	8
138694	7	Sololá	713	San Lucas Tolimán	10	San Lucas Tolimán	7	Julio	2023-07-30T00:00:00	2024-11-08T18:00:00	7	Dirección del viento	8.05
138695	7	Sololá	713	San Lucas Tolimán	10	San Lucas Tolimán	7	Julio	2023-07-30T00:00:00	2024-11-08T18:00:00	1	Precipitación	0
138696	7	Sololá	713	San Lucas Tolimán	10	San Lucas Tolimán	7	Julio	2023-07-30T00:00:00	2024-11-08T18:00:00	8	Radiación solar	213
138697	7	Sololá	713	San Lucas Tolimán	10	San Lucas Tolimán	7	Julio	2023-07-30T00:00:00	2024-11-08T19:00:00	2	Temperatura media	19.9
138698	7	Sololá	713	San Lucas Tolimán	10	San Lucas Tolimán	7	Julio	2023-07-30T00:00:00	2024-11-08T19:00:00	4	Temperatura máxima	21.6
138699	7	Sololá	713	San Lucas Tolimán	10	San Lucas Tolimán	7	Julio	2023-07-30T00:00:00	2024-11-08T19:00:00	3	Temperatura mínima	19.9
138700	7	Sololá	713	San Lucas Tolimán	10	San Lucas Tolimán	7	Julio	2023-07-30T00:00:00	2024-11-08T19:00:00	5	Humedad	66
138701	7	Sololá	713	San Lucas Tolimán	10	San Lucas Tolimán	7	Julio	2023-07-30T00:00:00	2024-11-08T19:00:00	6	Velocidad del viento	8
138702	7	Sololá	713	San Lucas Tolimán	10	San Lucas Tolimán	7	Julio	2023-07-30T00:00:00	2024-11-08T19:00:00	7	Dirección del viento	8.05
138703	7	Sololá	713	San Lucas Tolimán	10	San Lucas Tolimán	7	Julio	2023-07-30T00:00:00	2024-11-08T19:00:00	1	Precipitación	0
138704	7	Sololá	713	San Lucas Tolimán	10	San Lucas Tolimán	7	Julio	2023-07-30T00:00:00	2024-11-08T19:00:00	8	Radiación solar	0
138705	7	Sololá	713	San Lucas Tolimán	10	San Lucas Tolimán	7	Julio	2023-07-30T00:00:00	2024-11-08T20:00:00	2	Temperatura media	20.3
138706	7	Sololá	713	San Lucas Tolimán	10	San Lucas Tolimán	7	Julio	2023-07-30T00:00:00	2024-11-08T20:00:00	4	Temperatura máxima	20.3
138707	7	Sololá	713	San Lucas Tolimán	10	San Lucas Tolimán	7	Julio	2023-07-30T00:00:00	2024-11-08T20:00:00	3	Temperatura mínima	19.9
138708	7	Sololá	713	San Lucas Tolimán	10	San Lucas Tolimán	7	Julio	2023-07-30T00:00:00	2024-11-08T20:00:00	5	Humedad	65
138709	7	Sololá	713	San Lucas Tolimán	10	San Lucas Tolimán	7	Julio	2023-07-30T00:00:00	2024-11-08T20:00:00	6	Velocidad del viento	4.8
138710	7	Sololá	713	San Lucas Tolimán	10	San Lucas Tolimán	7	Julio	2023-07-30T00:00:00	2024-11-08T20:00:00	7	Dirección del viento	4.83
138711	7	Sololá	713	San Lucas Tolimán	10	San Lucas Tolimán	7	Julio	2023-07-30T00:00:00	2024-11-08T20:00:00	1	Precipitación	0
138712	7	Sololá	713	San Lucas Tolimán	10	San Lucas Tolimán	7	Julio	2023-07-30T00:00:00	2024-11-08T20:00:00	8	Radiación solar	0
138713	7	Sololá	713	San Lucas Tolimán	10	San Lucas Tolimán	7	Julio	2023-07-30T00:00:00	2024-11-08T21:00:00	2	Temperatura media	20.3
138714	7	Sololá	713	San Lucas Tolimán	10	San Lucas Tolimán	7	Julio	2023-07-30T00:00:00	2024-11-08T21:00:00	4	Temperatura máxima	20.4
138715	7	Sololá	713	San Lucas Tolimán	10	San Lucas Tolimán	7	Julio	2023-07-30T00:00:00	2024-11-08T21:00:00	3	Temperatura mínima	20.1
138716	7	Sololá	713	San Lucas Tolimán	10	San Lucas Tolimán	7	Julio	2023-07-30T00:00:00	2024-11-08T21:00:00	5	Humedad	60
138717	7	Sololá	713	San Lucas Tolimán	10	San Lucas Tolimán	7	Julio	2023-07-30T00:00:00	2024-11-08T21:00:00	6	Velocidad del viento	0
138718	7	Sololá	713	San Lucas Tolimán	10	San Lucas Tolimán	7	Julio	2023-07-30T00:00:00	2024-11-08T21:00:00	7	Dirección del viento	0
138719	7	Sololá	713	San Lucas Tolimán	10	San Lucas Tolimán	7	Julio	2023-07-30T00:00:00	2024-11-08T21:00:00	1	Precipitación	0
138720	7	Sololá	713	San Lucas Tolimán	10	San Lucas Tolimán	7	Julio	2023-07-30T00:00:00	2024-11-08T21:00:00	8	Radiación solar	0
138721	7	Sololá	713	San Lucas Tolimán	10	San Lucas Tolimán	7	Julio	2023-07-30T00:00:00	2024-11-08T22:00:00	2	Temperatura media	21.7
138722	7	Sololá	713	San Lucas Tolimán	10	San Lucas Tolimán	7	Julio	2023-07-30T00:00:00	2024-11-08T22:00:00	4	Temperatura máxima	21.7
138723	7	Sololá	713	San Lucas Tolimán	10	San Lucas Tolimán	7	Julio	2023-07-30T00:00:00	2024-11-08T22:00:00	3	Temperatura mínima	20.3
138724	7	Sololá	713	San Lucas Tolimán	10	San Lucas Tolimán	7	Julio	2023-07-30T00:00:00	2024-11-08T22:00:00	5	Humedad	58
138725	7	Sololá	713	San Lucas Tolimán	10	San Lucas Tolimán	7	Julio	2023-07-30T00:00:00	2024-11-08T22:00:00	6	Velocidad del viento	4.8
138726	7	Sololá	713	San Lucas Tolimán	10	San Lucas Tolimán	7	Julio	2023-07-30T00:00:00	2024-11-08T22:00:00	7	Dirección del viento	4.83
138727	7	Sololá	713	San Lucas Tolimán	10	San Lucas Tolimán	7	Julio	2023-07-30T00:00:00	2024-11-08T22:00:00	1	Precipitación	0
138728	7	Sololá	713	San Lucas Tolimán	10	San Lucas Tolimán	7	Julio	2023-07-30T00:00:00	2024-11-08T22:00:00	8	Radiación solar	0
138729	7	Sololá	713	San Lucas Tolimán	10	San Lucas Tolimán	7	Julio	2023-07-30T00:00:00	2024-11-08T23:00:00	2	Temperatura media	19.6
138730	7	Sololá	713	San Lucas Tolimán	10	San Lucas Tolimán	7	Julio	2023-07-30T00:00:00	2024-11-08T23:00:00	4	Temperatura máxima	21.7
138731	7	Sololá	713	San Lucas Tolimán	10	San Lucas Tolimán	7	Julio	2023-07-30T00:00:00	2024-11-08T23:00:00	3	Temperatura mínima	19.6
138732	7	Sololá	713	San Lucas Tolimán	10	San Lucas Tolimán	7	Julio	2023-07-30T00:00:00	2024-11-08T23:00:00	5	Humedad	63
138733	7	Sololá	713	San Lucas Tolimán	10	San Lucas Tolimán	7	Julio	2023-07-30T00:00:00	2024-11-08T23:00:00	6	Velocidad del viento	3.2
138734	7	Sololá	713	San Lucas Tolimán	10	San Lucas Tolimán	7	Julio	2023-07-30T00:00:00	2024-11-08T23:00:00	7	Dirección del viento	3.22
138735	7	Sololá	713	San Lucas Tolimán	10	San Lucas Tolimán	7	Julio	2023-07-30T00:00:00	2024-11-08T23:00:00	1	Precipitación	0.2
138736	7	Sololá	713	San Lucas Tolimán	10	San Lucas Tolimán	7	Julio	2023-07-30T00:00:00	2024-11-08T23:00:00	8	Radiación solar	0
138737	7	Sololá	713	San Lucas Tolimán	10	San Lucas Tolimán	7	Julio	2023-07-31T00:00:00	2024-11-08T00:00:00	2	Temperatura media	18.4
138738	7	Sololá	713	San Lucas Tolimán	10	San Lucas Tolimán	7	Julio	2023-07-31T00:00:00	2024-11-08T00:00:00	4	Temperatura máxima	19.6
138739	7	Sololá	713	San Lucas Tolimán	10	San Lucas Tolimán	7	Julio	2023-07-31T00:00:00	2024-11-08T00:00:00	3	Temperatura mínima	18.3
138740	7	Sololá	713	San Lucas Tolimán	10	San Lucas Tolimán	7	Julio	2023-07-31T00:00:00	2024-11-08T00:00:00	5	Humedad	63
138741	7	Sololá	713	San Lucas Tolimán	10	San Lucas Tolimán	7	Julio	2023-07-31T00:00:00	2024-11-08T00:00:00	6	Velocidad del viento	1.6
138742	7	Sololá	713	San Lucas Tolimán	10	San Lucas Tolimán	7	Julio	2023-07-31T00:00:00	2024-11-08T00:00:00	7	Dirección del viento	1.61
138743	7	Sololá	713	San Lucas Tolimán	10	San Lucas Tolimán	7	Julio	2023-07-31T00:00:00	2024-11-08T00:00:00	1	Precipitación	0.8
138744	7	Sololá	713	San Lucas Tolimán	10	San Lucas Tolimán	7	Julio	2023-07-31T00:00:00	2024-11-08T00:00:00	8	Radiación solar	0
138745	7	Sololá	713	San Lucas Tolimán	10	San Lucas Tolimán	7	Julio	2023-07-31T00:00:00	2024-11-08T01:00:00	2	Temperatura media	17.7
138746	7	Sololá	713	San Lucas Tolimán	10	San Lucas Tolimán	7	Julio	2023-07-31T00:00:00	2024-11-08T01:00:00	4	Temperatura máxima	18.3
138747	7	Sololá	713	San Lucas Tolimán	10	San Lucas Tolimán	7	Julio	2023-07-31T00:00:00	2024-11-08T01:00:00	3	Temperatura mínima	17.7
138748	7	Sololá	713	San Lucas Tolimán	10	San Lucas Tolimán	7	Julio	2023-07-31T00:00:00	2024-11-08T01:00:00	5	Humedad	66
138749	7	Sololá	713	San Lucas Tolimán	10	San Lucas Tolimán	7	Julio	2023-07-31T00:00:00	2024-11-08T01:00:00	6	Velocidad del viento	1.6
138750	7	Sololá	713	San Lucas Tolimán	10	San Lucas Tolimán	7	Julio	2023-07-31T00:00:00	2024-11-08T01:00:00	7	Dirección del viento	1.61
138751	7	Sololá	713	San Lucas Tolimán	10	San Lucas Tolimán	7	Julio	2023-07-31T00:00:00	2024-11-08T01:00:00	1	Precipitación	0.6
138752	7	Sololá	713	San Lucas Tolimán	10	San Lucas Tolimán	7	Julio	2023-07-31T00:00:00	2024-11-08T01:00:00	8	Radiación solar	0
138753	7	Sololá	713	San Lucas Tolimán	10	San Lucas Tolimán	7	Julio	2023-07-31T00:00:00	2024-11-08T02:00:00	2	Temperatura media	17.2
138754	7	Sololá	713	San Lucas Tolimán	10	San Lucas Tolimán	7	Julio	2023-07-31T00:00:00	2024-11-08T02:00:00	4	Temperatura máxima	17.7
138755	7	Sololá	713	San Lucas Tolimán	10	San Lucas Tolimán	7	Julio	2023-07-31T00:00:00	2024-11-08T02:00:00	3	Temperatura mínima	17.2
138756	7	Sololá	713	San Lucas Tolimán	10	San Lucas Tolimán	7	Julio	2023-07-31T00:00:00	2024-11-08T02:00:00	5	Humedad	66
138757	7	Sololá	713	San Lucas Tolimán	10	San Lucas Tolimán	7	Julio	2023-07-31T00:00:00	2024-11-08T02:00:00	6	Velocidad del viento	1.6
138758	7	Sololá	713	San Lucas Tolimán	10	San Lucas Tolimán	7	Julio	2023-07-31T00:00:00	2024-11-08T02:00:00	7	Dirección del viento	1.61
138759	7	Sololá	713	San Lucas Tolimán	10	San Lucas Tolimán	7	Julio	2023-07-31T00:00:00	2024-11-08T02:00:00	1	Precipitación	1.8
138760	7	Sololá	713	San Lucas Tolimán	10	San Lucas Tolimán	7	Julio	2023-07-31T00:00:00	2024-11-08T02:00:00	8	Radiación solar	0
138761	7	Sololá	713	San Lucas Tolimán	10	San Lucas Tolimán	7	Julio	2023-07-31T00:00:00	2024-11-08T03:00:00	2	Temperatura media	16.9
138762	7	Sololá	713	San Lucas Tolimán	10	San Lucas Tolimán	7	Julio	2023-07-31T00:00:00	2024-11-08T03:00:00	4	Temperatura máxima	17.4
138763	7	Sololá	713	San Lucas Tolimán	10	San Lucas Tolimán	7	Julio	2023-07-31T00:00:00	2024-11-08T03:00:00	3	Temperatura mínima	16.8
138764	7	Sololá	713	San Lucas Tolimán	10	San Lucas Tolimán	7	Julio	2023-07-31T00:00:00	2024-11-08T03:00:00	5	Humedad	63
138765	7	Sololá	713	San Lucas Tolimán	10	San Lucas Tolimán	7	Julio	2023-07-31T00:00:00	2024-11-08T03:00:00	6	Velocidad del viento	1.6
138766	7	Sololá	713	San Lucas Tolimán	10	San Lucas Tolimán	7	Julio	2023-07-31T00:00:00	2024-11-08T03:00:00	7	Dirección del viento	1.61
138767	7	Sololá	713	San Lucas Tolimán	10	San Lucas Tolimán	7	Julio	2023-07-31T00:00:00	2024-11-08T03:00:00	1	Precipitación	2.8
138768	7	Sololá	713	San Lucas Tolimán	10	San Lucas Tolimán	7	Julio	2023-07-31T00:00:00	2024-11-08T03:00:00	8	Radiación solar	0
138769	7	Sololá	713	San Lucas Tolimán	10	San Lucas Tolimán	7	Julio	2023-07-31T00:00:00	2024-11-08T04:00:00	2	Temperatura media	16.7
138770	7	Sololá	713	San Lucas Tolimán	10	San Lucas Tolimán	7	Julio	2023-07-31T00:00:00	2024-11-08T04:00:00	4	Temperatura máxima	17.1
138771	7	Sololá	713	San Lucas Tolimán	10	San Lucas Tolimán	7	Julio	2023-07-31T00:00:00	2024-11-08T04:00:00	3	Temperatura mínima	16.7
138772	7	Sololá	713	San Lucas Tolimán	10	San Lucas Tolimán	7	Julio	2023-07-31T00:00:00	2024-11-08T04:00:00	5	Humedad	62
138773	7	Sololá	713	San Lucas Tolimán	10	San Lucas Tolimán	7	Julio	2023-07-31T00:00:00	2024-11-08T04:00:00	6	Velocidad del viento	6.4
138774	7	Sololá	713	San Lucas Tolimán	10	San Lucas Tolimán	7	Julio	2023-07-31T00:00:00	2024-11-08T04:00:00	7	Dirección del viento	6.44
138775	7	Sololá	713	San Lucas Tolimán	10	San Lucas Tolimán	7	Julio	2023-07-31T00:00:00	2024-11-08T04:00:00	1	Precipitación	0
138776	7	Sololá	713	San Lucas Tolimán	10	San Lucas Tolimán	7	Julio	2023-07-31T00:00:00	2024-11-08T04:00:00	8	Radiación solar	0
138777	7	Sololá	713	San Lucas Tolimán	10	San Lucas Tolimán	7	Julio	2023-07-31T00:00:00	2024-11-08T05:00:00	2	Temperatura media	17.4
138778	7	Sololá	713	San Lucas Tolimán	10	San Lucas Tolimán	7	Julio	2023-07-31T00:00:00	2024-11-08T05:00:00	4	Temperatura máxima	17.4
138779	7	Sololá	713	San Lucas Tolimán	10	San Lucas Tolimán	7	Julio	2023-07-31T00:00:00	2024-11-08T05:00:00	3	Temperatura mínima	16.7
138780	7	Sololá	713	San Lucas Tolimán	10	San Lucas Tolimán	7	Julio	2023-07-31T00:00:00	2024-11-08T05:00:00	5	Humedad	60
138781	7	Sololá	713	San Lucas Tolimán	10	San Lucas Tolimán	7	Julio	2023-07-31T00:00:00	2024-11-08T05:00:00	6	Velocidad del viento	6.4
138782	7	Sololá	713	San Lucas Tolimán	10	San Lucas Tolimán	7	Julio	2023-07-31T00:00:00	2024-11-08T05:00:00	7	Dirección del viento	6.44
138783	7	Sololá	713	San Lucas Tolimán	10	San Lucas Tolimán	7	Julio	2023-07-31T00:00:00	2024-11-08T05:00:00	1	Precipitación	0.2
138784	7	Sololá	713	San Lucas Tolimán	10	San Lucas Tolimán	7	Julio	2023-07-31T00:00:00	2024-11-08T05:00:00	8	Radiación solar	0
138785	7	Sololá	713	San Lucas Tolimán	10	San Lucas Tolimán	7	Julio	2023-07-31T00:00:00	2024-11-08T06:00:00	2	Temperatura media	16.7
138786	7	Sololá	713	San Lucas Tolimán	10	San Lucas Tolimán	7	Julio	2023-07-31T00:00:00	2024-11-08T06:00:00	4	Temperatura máxima	17.6
138787	7	Sololá	713	San Lucas Tolimán	10	San Lucas Tolimán	7	Julio	2023-07-31T00:00:00	2024-11-08T06:00:00	3	Temperatura mínima	16.7
138788	7	Sololá	713	San Lucas Tolimán	10	San Lucas Tolimán	7	Julio	2023-07-31T00:00:00	2024-11-08T06:00:00	5	Humedad	63
138789	7	Sololá	713	San Lucas Tolimán	10	San Lucas Tolimán	7	Julio	2023-07-31T00:00:00	2024-11-08T06:00:00	6	Velocidad del viento	1.6
138790	7	Sololá	713	San Lucas Tolimán	10	San Lucas Tolimán	7	Julio	2023-07-31T00:00:00	2024-11-08T06:00:00	7	Dirección del viento	1.61
138791	7	Sololá	713	San Lucas Tolimán	10	San Lucas Tolimán	7	Julio	2023-07-31T00:00:00	2024-11-08T06:00:00	1	Precipitación	0
138792	7	Sololá	713	San Lucas Tolimán	10	San Lucas Tolimán	7	Julio	2023-07-31T00:00:00	2024-11-08T06:00:00	8	Radiación solar	1
138793	7	Sololá	713	San Lucas Tolimán	10	San Lucas Tolimán	7	Julio	2023-07-31T00:00:00	2024-11-08T07:00:00	2	Temperatura media	17.6
138794	7	Sololá	713	San Lucas Tolimán	10	San Lucas Tolimán	7	Julio	2023-07-31T00:00:00	2024-11-08T07:00:00	4	Temperatura máxima	17.6
138795	7	Sololá	713	San Lucas Tolimán	10	San Lucas Tolimán	7	Julio	2023-07-31T00:00:00	2024-11-08T07:00:00	3	Temperatura mínima	16.3
138796	7	Sololá	713	San Lucas Tolimán	10	San Lucas Tolimán	7	Julio	2023-07-31T00:00:00	2024-11-08T07:00:00	5	Humedad	61
138797	7	Sololá	713	San Lucas Tolimán	10	San Lucas Tolimán	7	Julio	2023-07-31T00:00:00	2024-11-08T07:00:00	6	Velocidad del viento	1.6
138798	7	Sololá	713	San Lucas Tolimán	10	San Lucas Tolimán	7	Julio	2023-07-31T00:00:00	2024-11-08T07:00:00	7	Dirección del viento	1.61
138799	7	Sololá	713	San Lucas Tolimán	10	San Lucas Tolimán	7	Julio	2023-07-31T00:00:00	2024-11-08T07:00:00	1	Precipitación	0
138800	7	Sololá	713	San Lucas Tolimán	10	San Lucas Tolimán	7	Julio	2023-07-31T00:00:00	2024-11-08T07:00:00	8	Radiación solar	59
138801	7	Sololá	713	San Lucas Tolimán	10	San Lucas Tolimán	7	Julio	2023-07-31T00:00:00	2024-11-08T08:00:00	2	Temperatura media	19.6
138802	7	Sololá	713	San Lucas Tolimán	10	San Lucas Tolimán	7	Julio	2023-07-31T00:00:00	2024-11-08T08:00:00	4	Temperatura máxima	19.9
138803	7	Sololá	713	San Lucas Tolimán	10	San Lucas Tolimán	7	Julio	2023-07-31T00:00:00	2024-11-08T08:00:00	3	Temperatura mínima	17.6
138804	7	Sololá	713	San Lucas Tolimán	10	San Lucas Tolimán	7	Julio	2023-07-31T00:00:00	2024-11-08T08:00:00	5	Humedad	60
138805	7	Sololá	713	San Lucas Tolimán	10	San Lucas Tolimán	7	Julio	2023-07-31T00:00:00	2024-11-08T08:00:00	6	Velocidad del viento	4.8
138806	7	Sololá	713	San Lucas Tolimán	10	San Lucas Tolimán	7	Julio	2023-07-31T00:00:00	2024-11-08T08:00:00	7	Dirección del viento	4.83
138807	7	Sololá	713	San Lucas Tolimán	10	San Lucas Tolimán	7	Julio	2023-07-31T00:00:00	2024-11-08T08:00:00	1	Precipitación	0
138808	7	Sololá	713	San Lucas Tolimán	10	San Lucas Tolimán	7	Julio	2023-07-31T00:00:00	2024-11-08T08:00:00	8	Radiación solar	240
138809	7	Sololá	713	San Lucas Tolimán	10	San Lucas Tolimán	7	Julio	2023-07-31T00:00:00	2024-11-08T09:00:00	2	Temperatura media	21.7
138810	7	Sololá	713	San Lucas Tolimán	10	San Lucas Tolimán	7	Julio	2023-07-31T00:00:00	2024-11-08T09:00:00	4	Temperatura máxima	21.8
138811	7	Sololá	713	San Lucas Tolimán	10	San Lucas Tolimán	7	Julio	2023-07-31T00:00:00	2024-11-08T09:00:00	3	Temperatura mínima	19.6
138812	7	Sololá	713	San Lucas Tolimán	10	San Lucas Tolimán	7	Julio	2023-07-31T00:00:00	2024-11-08T09:00:00	5	Humedad	55
138813	7	Sololá	713	San Lucas Tolimán	10	San Lucas Tolimán	7	Julio	2023-07-31T00:00:00	2024-11-08T09:00:00	6	Velocidad del viento	4.8
138814	7	Sololá	713	San Lucas Tolimán	10	San Lucas Tolimán	7	Julio	2023-07-31T00:00:00	2024-11-08T09:00:00	7	Dirección del viento	4.83
138815	7	Sololá	713	San Lucas Tolimán	10	San Lucas Tolimán	7	Julio	2023-07-31T00:00:00	2024-11-08T09:00:00	1	Precipitación	0
138816	7	Sololá	713	San Lucas Tolimán	10	San Lucas Tolimán	7	Julio	2023-07-31T00:00:00	2024-11-08T09:00:00	8	Radiación solar	459
138817	7	Sololá	713	San Lucas Tolimán	10	San Lucas Tolimán	7	Julio	2023-07-31T00:00:00	2024-11-08T10:00:00	2	Temperatura media	23.7
138818	7	Sololá	713	San Lucas Tolimán	10	San Lucas Tolimán	7	Julio	2023-07-31T00:00:00	2024-11-08T10:00:00	4	Temperatura máxima	24.5
138819	7	Sololá	713	San Lucas Tolimán	10	San Lucas Tolimán	7	Julio	2023-07-31T00:00:00	2024-11-08T10:00:00	3	Temperatura mínima	21.8
138820	7	Sololá	713	San Lucas Tolimán	10	San Lucas Tolimán	7	Julio	2023-07-31T00:00:00	2024-11-08T10:00:00	5	Humedad	53
138821	7	Sololá	713	San Lucas Tolimán	10	San Lucas Tolimán	7	Julio	2023-07-31T00:00:00	2024-11-08T10:00:00	6	Velocidad del viento	4.8
138822	7	Sololá	713	San Lucas Tolimán	10	San Lucas Tolimán	7	Julio	2023-07-31T00:00:00	2024-11-08T10:00:00	7	Dirección del viento	4.83
138823	7	Sololá	713	San Lucas Tolimán	10	San Lucas Tolimán	7	Julio	2023-07-31T00:00:00	2024-11-08T10:00:00	1	Precipitación	0
138824	7	Sololá	713	San Lucas Tolimán	10	San Lucas Tolimán	7	Julio	2023-07-31T00:00:00	2024-11-08T10:00:00	8	Radiación solar	741
138825	7	Sololá	713	San Lucas Tolimán	10	San Lucas Tolimán	7	Julio	2023-07-31T00:00:00	2024-11-08T11:00:00	2	Temperatura media	24.9
138826	7	Sololá	713	San Lucas Tolimán	10	San Lucas Tolimán	7	Julio	2023-07-31T00:00:00	2024-11-08T11:00:00	4	Temperatura máxima	25.7
138827	7	Sololá	713	San Lucas Tolimán	10	San Lucas Tolimán	7	Julio	2023-07-31T00:00:00	2024-11-08T11:00:00	3	Temperatura mínima	23.7
138828	7	Sololá	713	San Lucas Tolimán	10	San Lucas Tolimán	7	Julio	2023-07-31T00:00:00	2024-11-08T11:00:00	5	Humedad	43
138829	7	Sololá	713	San Lucas Tolimán	10	San Lucas Tolimán	7	Julio	2023-07-31T00:00:00	2024-11-08T11:00:00	6	Velocidad del viento	6.4
138830	7	Sololá	713	San Lucas Tolimán	10	San Lucas Tolimán	7	Julio	2023-07-31T00:00:00	2024-11-08T11:00:00	7	Dirección del viento	6.44
138831	7	Sololá	713	San Lucas Tolimán	10	San Lucas Tolimán	7	Julio	2023-07-31T00:00:00	2024-11-08T11:00:00	1	Precipitación	0
138832	7	Sololá	713	San Lucas Tolimán	10	San Lucas Tolimán	7	Julio	2023-07-31T00:00:00	2024-11-08T11:00:00	8	Radiación solar	565
138833	7	Sololá	713	San Lucas Tolimán	10	San Lucas Tolimán	7	Julio	2023-07-31T00:00:00	2024-11-08T12:00:00	2	Temperatura media	24.9
138834	7	Sololá	713	San Lucas Tolimán	10	San Lucas Tolimán	7	Julio	2023-07-31T00:00:00	2024-11-08T12:00:00	4	Temperatura máxima	25.2
138835	7	Sololá	713	San Lucas Tolimán	10	San Lucas Tolimán	7	Julio	2023-07-31T00:00:00	2024-11-08T12:00:00	3	Temperatura mínima	24.2
138836	7	Sololá	713	San Lucas Tolimán	10	San Lucas Tolimán	7	Julio	2023-07-31T00:00:00	2024-11-08T12:00:00	5	Humedad	55
138837	7	Sololá	713	San Lucas Tolimán	10	San Lucas Tolimán	7	Julio	2023-07-31T00:00:00	2024-11-08T12:00:00	6	Velocidad del viento	6.4
138838	7	Sololá	713	San Lucas Tolimán	10	San Lucas Tolimán	7	Julio	2023-07-31T00:00:00	2024-11-08T12:00:00	7	Dirección del viento	6.44
138839	7	Sololá	713	San Lucas Tolimán	10	San Lucas Tolimán	7	Julio	2023-07-31T00:00:00	2024-11-08T12:00:00	1	Precipitación	0
138840	7	Sololá	713	San Lucas Tolimán	10	San Lucas Tolimán	7	Julio	2023-07-31T00:00:00	2024-11-08T12:00:00	8	Radiación solar	683
138841	7	Sololá	713	San Lucas Tolimán	10	San Lucas Tolimán	7	Julio	2023-07-31T00:00:00	2024-11-08T13:00:00	2	Temperatura media	24.4
138842	7	Sololá	713	San Lucas Tolimán	10	San Lucas Tolimán	7	Julio	2023-07-31T00:00:00	2024-11-08T13:00:00	4	Temperatura máxima	25.3
138843	7	Sololá	713	San Lucas Tolimán	10	San Lucas Tolimán	7	Julio	2023-07-31T00:00:00	2024-11-08T13:00:00	3	Temperatura mínima	24.1
138844	7	Sololá	713	San Lucas Tolimán	10	San Lucas Tolimán	7	Julio	2023-07-31T00:00:00	2024-11-08T13:00:00	5	Humedad	59
138845	7	Sololá	713	San Lucas Tolimán	10	San Lucas Tolimán	7	Julio	2023-07-31T00:00:00	2024-11-08T13:00:00	6	Velocidad del viento	9.7
138846	7	Sololá	713	San Lucas Tolimán	10	San Lucas Tolimán	7	Julio	2023-07-31T00:00:00	2024-11-08T13:00:00	7	Dirección del viento	9.66
138847	7	Sololá	713	San Lucas Tolimán	10	San Lucas Tolimán	7	Julio	2023-07-31T00:00:00	2024-11-08T13:00:00	1	Precipitación	0
138848	7	Sololá	713	San Lucas Tolimán	10	San Lucas Tolimán	7	Julio	2023-07-31T00:00:00	2024-11-08T13:00:00	8	Radiación solar	942
138849	7	Sololá	713	San Lucas Tolimán	10	San Lucas Tolimán	7	Julio	2023-07-31T00:00:00	2024-11-08T14:00:00	2	Temperatura media	23.8
138850	7	Sololá	713	San Lucas Tolimán	10	San Lucas Tolimán	7	Julio	2023-07-31T00:00:00	2024-11-08T14:00:00	4	Temperatura máxima	24.6
138851	7	Sololá	713	San Lucas Tolimán	10	San Lucas Tolimán	7	Julio	2023-07-31T00:00:00	2024-11-08T14:00:00	3	Temperatura mínima	23.7
138852	7	Sololá	713	San Lucas Tolimán	10	San Lucas Tolimán	7	Julio	2023-07-31T00:00:00	2024-11-08T14:00:00	5	Humedad	61
138853	7	Sololá	713	San Lucas Tolimán	10	San Lucas Tolimán	7	Julio	2023-07-31T00:00:00	2024-11-08T14:00:00	6	Velocidad del viento	12.9
138854	7	Sololá	713	San Lucas Tolimán	10	San Lucas Tolimán	7	Julio	2023-07-31T00:00:00	2024-11-08T14:00:00	7	Dirección del viento	12.87
138855	7	Sololá	713	San Lucas Tolimán	10	San Lucas Tolimán	7	Julio	2023-07-31T00:00:00	2024-11-08T14:00:00	1	Precipitación	0
138856	7	Sololá	713	San Lucas Tolimán	10	San Lucas Tolimán	7	Julio	2023-07-31T00:00:00	2024-11-08T14:00:00	8	Radiación solar	1087
138857	7	Sololá	713	San Lucas Tolimán	10	San Lucas Tolimán	7	Julio	2023-07-31T00:00:00	2024-11-08T15:00:00	2	Temperatura media	23.3
138858	7	Sololá	713	San Lucas Tolimán	10	San Lucas Tolimán	7	Julio	2023-07-31T00:00:00	2024-11-08T15:00:00	4	Temperatura máxima	23.9
138859	7	Sololá	713	San Lucas Tolimán	10	San Lucas Tolimán	7	Julio	2023-07-31T00:00:00	2024-11-08T15:00:00	3	Temperatura mínima	22.7
138860	7	Sololá	713	San Lucas Tolimán	10	San Lucas Tolimán	7	Julio	2023-07-31T00:00:00	2024-11-08T15:00:00	5	Humedad	62
138861	7	Sololá	713	San Lucas Tolimán	10	San Lucas Tolimán	7	Julio	2023-07-31T00:00:00	2024-11-08T15:00:00	6	Velocidad del viento	12.9
138862	7	Sololá	713	San Lucas Tolimán	10	San Lucas Tolimán	7	Julio	2023-07-31T00:00:00	2024-11-08T15:00:00	7	Dirección del viento	12.87
138863	7	Sololá	713	San Lucas Tolimán	10	San Lucas Tolimán	7	Julio	2023-07-31T00:00:00	2024-11-08T15:00:00	1	Precipitación	0
138864	7	Sololá	713	San Lucas Tolimán	10	San Lucas Tolimán	7	Julio	2023-07-31T00:00:00	2024-11-08T15:00:00	8	Radiación solar	980
138865	7	Sololá	713	San Lucas Tolimán	10	San Lucas Tolimán	7	Julio	2023-07-31T00:00:00	2024-11-08T16:00:00	2	Temperatura media	22.6
138866	7	Sololá	713	San Lucas Tolimán	10	San Lucas Tolimán	7	Julio	2023-07-31T00:00:00	2024-11-08T16:00:00	4	Temperatura máxima	23.5
138867	7	Sololá	713	San Lucas Tolimán	10	San Lucas Tolimán	7	Julio	2023-07-31T00:00:00	2024-11-08T16:00:00	3	Temperatura mínima	22.2
138868	7	Sololá	713	San Lucas Tolimán	10	San Lucas Tolimán	7	Julio	2023-07-31T00:00:00	2024-11-08T16:00:00	5	Humedad	60
138869	7	Sololá	713	San Lucas Tolimán	10	San Lucas Tolimán	7	Julio	2023-07-31T00:00:00	2024-11-08T16:00:00	6	Velocidad del viento	12.9
138870	7	Sololá	713	San Lucas Tolimán	10	San Lucas Tolimán	7	Julio	2023-07-31T00:00:00	2024-11-08T16:00:00	7	Dirección del viento	12.87
138871	7	Sololá	713	San Lucas Tolimán	10	San Lucas Tolimán	7	Julio	2023-07-31T00:00:00	2024-11-08T16:00:00	1	Precipitación	0
138872	7	Sololá	713	San Lucas Tolimán	10	San Lucas Tolimán	7	Julio	2023-07-31T00:00:00	2024-11-08T16:00:00	8	Radiación solar	750
138873	7	Sololá	713	San Lucas Tolimán	10	San Lucas Tolimán	7	Julio	2023-07-31T00:00:00	2024-11-08T17:00:00	2	Temperatura media	21.2
138874	7	Sololá	713	San Lucas Tolimán	10	San Lucas Tolimán	7	Julio	2023-07-31T00:00:00	2024-11-08T17:00:00	4	Temperatura máxima	22.6
138875	7	Sololá	713	San Lucas Tolimán	10	San Lucas Tolimán	7	Julio	2023-07-31T00:00:00	2024-11-08T17:00:00	3	Temperatura mínima	21.2
138876	7	Sololá	713	San Lucas Tolimán	10	San Lucas Tolimán	7	Julio	2023-07-31T00:00:00	2024-11-08T17:00:00	5	Humedad	61
138877	7	Sololá	713	San Lucas Tolimán	10	San Lucas Tolimán	7	Julio	2023-07-31T00:00:00	2024-11-08T17:00:00	6	Velocidad del viento	12.9
138878	7	Sololá	713	San Lucas Tolimán	10	San Lucas Tolimán	7	Julio	2023-07-31T00:00:00	2024-11-08T17:00:00	7	Dirección del viento	12.87
138879	7	Sololá	713	San Lucas Tolimán	10	San Lucas Tolimán	7	Julio	2023-07-31T00:00:00	2024-11-08T17:00:00	1	Precipitación	0
138880	7	Sololá	713	San Lucas Tolimán	10	San Lucas Tolimán	7	Julio	2023-07-31T00:00:00	2024-11-08T17:00:00	8	Radiación solar	426
138881	7	Sololá	713	San Lucas Tolimán	10	San Lucas Tolimán	7	Julio	2023-07-31T00:00:00	2024-11-08T18:00:00	2	Temperatura media	21
138882	7	Sololá	713	San Lucas Tolimán	10	San Lucas Tolimán	7	Julio	2023-07-31T00:00:00	2024-11-08T18:00:00	4	Temperatura máxima	21.3
138883	7	Sololá	713	San Lucas Tolimán	10	San Lucas Tolimán	7	Julio	2023-07-31T00:00:00	2024-11-08T18:00:00	3	Temperatura mínima	20.8
138884	7	Sololá	713	San Lucas Tolimán	10	San Lucas Tolimán	7	Julio	2023-07-31T00:00:00	2024-11-08T18:00:00	5	Humedad	60
138885	7	Sololá	713	San Lucas Tolimán	10	San Lucas Tolimán	7	Julio	2023-07-31T00:00:00	2024-11-08T18:00:00	6	Velocidad del viento	8
138886	7	Sololá	713	San Lucas Tolimán	10	San Lucas Tolimán	7	Julio	2023-07-31T00:00:00	2024-11-08T18:00:00	7	Dirección del viento	8.05
138887	7	Sololá	713	San Lucas Tolimán	10	San Lucas Tolimán	7	Julio	2023-07-31T00:00:00	2024-11-08T18:00:00	1	Precipitación	0
138888	7	Sololá	713	San Lucas Tolimán	10	San Lucas Tolimán	7	Julio	2023-07-31T00:00:00	2024-11-08T18:00:00	8	Radiación solar	144
138889	7	Sololá	713	San Lucas Tolimán	10	San Lucas Tolimán	7	Julio	2023-07-31T00:00:00	2024-11-08T19:00:00	2	Temperatura media	20.6
138890	7	Sololá	713	San Lucas Tolimán	10	San Lucas Tolimán	7	Julio	2023-07-31T00:00:00	2024-11-08T19:00:00	4	Temperatura máxima	21.2
138891	7	Sololá	713	San Lucas Tolimán	10	San Lucas Tolimán	7	Julio	2023-07-31T00:00:00	2024-11-08T19:00:00	3	Temperatura mínima	20.4
138892	7	Sololá	713	San Lucas Tolimán	10	San Lucas Tolimán	7	Julio	2023-07-31T00:00:00	2024-11-08T19:00:00	5	Humedad	61
138893	7	Sololá	713	San Lucas Tolimán	10	San Lucas Tolimán	7	Julio	2023-07-31T00:00:00	2024-11-08T19:00:00	6	Velocidad del viento	4.8
138894	7	Sololá	713	San Lucas Tolimán	10	San Lucas Tolimán	7	Julio	2023-07-31T00:00:00	2024-11-08T19:00:00	7	Dirección del viento	4.83
138895	7	Sololá	713	San Lucas Tolimán	10	San Lucas Tolimán	7	Julio	2023-07-31T00:00:00	2024-11-08T19:00:00	1	Precipitación	0
138896	7	Sololá	713	San Lucas Tolimán	10	San Lucas Tolimán	7	Julio	2023-07-31T00:00:00	2024-11-08T19:00:00	8	Radiación solar	0
138897	7	Sololá	713	San Lucas Tolimán	10	San Lucas Tolimán	7	Julio	2023-07-31T00:00:00	2024-11-08T20:00:00	2	Temperatura media	20.4
138898	7	Sololá	713	San Lucas Tolimán	10	San Lucas Tolimán	7	Julio	2023-07-31T00:00:00	2024-11-08T20:00:00	4	Temperatura máxima	20.6
138899	7	Sololá	713	San Lucas Tolimán	10	San Lucas Tolimán	7	Julio	2023-07-31T00:00:00	2024-11-08T20:00:00	3	Temperatura mínima	20.2
138900	7	Sololá	713	San Lucas Tolimán	10	San Lucas Tolimán	7	Julio	2023-07-31T00:00:00	2024-11-08T20:00:00	5	Humedad	58
138901	7	Sololá	713	San Lucas Tolimán	10	San Lucas Tolimán	7	Julio	2023-07-31T00:00:00	2024-11-08T20:00:00	6	Velocidad del viento	1.6
138902	7	Sololá	713	San Lucas Tolimán	10	San Lucas Tolimán	7	Julio	2023-07-31T00:00:00	2024-11-08T20:00:00	7	Dirección del viento	1.61
138903	7	Sololá	713	San Lucas Tolimán	10	San Lucas Tolimán	7	Julio	2023-07-31T00:00:00	2024-11-08T20:00:00	1	Precipitación	0
138904	7	Sololá	713	San Lucas Tolimán	10	San Lucas Tolimán	7	Julio	2023-07-31T00:00:00	2024-11-08T20:00:00	8	Radiación solar	0
138905	7	Sololá	713	San Lucas Tolimán	10	San Lucas Tolimán	7	Julio	2023-07-31T00:00:00	2024-11-08T21:00:00	2	Temperatura media	20.4
138906	7	Sololá	713	San Lucas Tolimán	10	San Lucas Tolimán	7	Julio	2023-07-31T00:00:00	2024-11-08T21:00:00	4	Temperatura máxima	20.7
138907	7	Sololá	713	San Lucas Tolimán	10	San Lucas Tolimán	7	Julio	2023-07-31T00:00:00	2024-11-08T21:00:00	3	Temperatura mínima	20.3
138908	7	Sololá	713	San Lucas Tolimán	10	San Lucas Tolimán	7	Julio	2023-07-31T00:00:00	2024-11-08T21:00:00	5	Humedad	56
138909	7	Sololá	713	San Lucas Tolimán	10	San Lucas Tolimán	7	Julio	2023-07-31T00:00:00	2024-11-08T21:00:00	6	Velocidad del viento	1.6
138910	7	Sololá	713	San Lucas Tolimán	10	San Lucas Tolimán	7	Julio	2023-07-31T00:00:00	2024-11-08T21:00:00	7	Dirección del viento	1.61
138911	7	Sololá	713	San Lucas Tolimán	10	San Lucas Tolimán	7	Julio	2023-07-31T00:00:00	2024-11-08T21:00:00	1	Precipitación	0
138912	7	Sololá	713	San Lucas Tolimán	10	San Lucas Tolimán	7	Julio	2023-07-31T00:00:00	2024-11-08T21:00:00	8	Radiación solar	0
138913	7	Sololá	713	San Lucas Tolimán	10	San Lucas Tolimán	7	Julio	2023-07-31T00:00:00	2024-11-08T22:00:00	2	Temperatura media	20.7
138914	7	Sololá	713	San Lucas Tolimán	10	San Lucas Tolimán	7	Julio	2023-07-31T00:00:00	2024-11-08T22:00:00	4	Temperatura máxima	21.4
138915	7	Sololá	713	San Lucas Tolimán	10	San Lucas Tolimán	7	Julio	2023-07-31T00:00:00	2024-11-08T22:00:00	3	Temperatura mínima	20.3
138916	7	Sololá	713	San Lucas Tolimán	10	San Lucas Tolimán	7	Julio	2023-07-31T00:00:00	2024-11-08T22:00:00	5	Humedad	58
138917	7	Sololá	713	San Lucas Tolimán	10	San Lucas Tolimán	7	Julio	2023-07-31T00:00:00	2024-11-08T22:00:00	6	Velocidad del viento	4.8
138918	7	Sololá	713	San Lucas Tolimán	10	San Lucas Tolimán	7	Julio	2023-07-31T00:00:00	2024-11-08T22:00:00	7	Dirección del viento	4.83
138919	7	Sololá	713	San Lucas Tolimán	10	San Lucas Tolimán	7	Julio	2023-07-31T00:00:00	2024-11-08T22:00:00	1	Precipitación	0
138920	7	Sololá	713	San Lucas Tolimán	10	San Lucas Tolimán	7	Julio	2023-07-31T00:00:00	2024-11-08T22:00:00	8	Radiación solar	0
138921	7	Sololá	713	San Lucas Tolimán	10	San Lucas Tolimán	7	Julio	2023-07-31T00:00:00	2024-11-08T23:00:00	2	Temperatura media	20.8
138922	7	Sololá	713	San Lucas Tolimán	10	San Lucas Tolimán	7	Julio	2023-07-31T00:00:00	2024-11-08T23:00:00	4	Temperatura máxima	20.9
138923	7	Sololá	713	San Lucas Tolimán	10	San Lucas Tolimán	7	Julio	2023-07-31T00:00:00	2024-11-08T23:00:00	3	Temperatura mínima	19.7
138924	7	Sololá	713	San Lucas Tolimán	10	San Lucas Tolimán	7	Julio	2023-07-31T00:00:00	2024-11-08T23:00:00	5	Humedad	58
138925	7	Sololá	713	San Lucas Tolimán	10	San Lucas Tolimán	7	Julio	2023-07-31T00:00:00	2024-11-08T23:00:00	6	Velocidad del viento	3.2
138926	7	Sololá	713	San Lucas Tolimán	10	San Lucas Tolimán	7	Julio	2023-07-31T00:00:00	2024-11-08T23:00:00	7	Dirección del viento	3.22
138927	7	Sololá	713	San Lucas Tolimán	10	San Lucas Tolimán	7	Julio	2023-07-31T00:00:00	2024-11-08T23:00:00	1	Precipitación	0
138928	7	Sololá	713	San Lucas Tolimán	10	San Lucas Tolimán	7	Julio	2023-07-31T00:00:00	2024-11-08T23:00:00	8	Radiación solar	0
138929	7	Sololá	713	San Lucas Tolimán	10	San Lucas Tolimán	8	Agosto	2023-01-08T00:00:00	2024-11-08T00:00:00	2	Temperatura media	21.6
138930	7	Sololá	713	San Lucas Tolimán	10	San Lucas Tolimán	8	Agosto	2023-01-08T00:00:00	2024-11-08T00:00:00	4	Temperatura máxima	21.6
138931	7	Sololá	713	San Lucas Tolimán	10	San Lucas Tolimán	8	Agosto	2023-01-08T00:00:00	2024-11-08T00:00:00	3	Temperatura mínima	20.3
138932	7	Sololá	713	San Lucas Tolimán	10	San Lucas Tolimán	8	Agosto	2023-01-08T00:00:00	2024-11-08T00:00:00	5	Humedad	55
138933	7	Sololá	713	San Lucas Tolimán	10	San Lucas Tolimán	8	Agosto	2023-01-08T00:00:00	2024-11-08T00:00:00	6	Velocidad del viento	14.5
138934	7	Sololá	713	San Lucas Tolimán	10	San Lucas Tolimán	8	Agosto	2023-01-08T00:00:00	2024-11-08T00:00:00	7	Dirección del viento	14.48
138935	7	Sololá	713	San Lucas Tolimán	10	San Lucas Tolimán	8	Agosto	2023-01-08T00:00:00	2024-11-08T00:00:00	1	Precipitación	0
138936	7	Sololá	713	San Lucas Tolimán	10	San Lucas Tolimán	8	Agosto	2023-01-08T00:00:00	2024-11-08T00:00:00	8	Radiación solar	0
138937	7	Sololá	713	San Lucas Tolimán	10	San Lucas Tolimán	8	Agosto	2023-01-08T00:00:00	2024-11-08T01:00:00	2	Temperatura media	20.3
138938	7	Sololá	713	San Lucas Tolimán	10	San Lucas Tolimán	8	Agosto	2023-01-08T00:00:00	2024-11-08T01:00:00	4	Temperatura máxima	21.6
138939	7	Sololá	713	San Lucas Tolimán	10	San Lucas Tolimán	8	Agosto	2023-01-08T00:00:00	2024-11-08T01:00:00	3	Temperatura mínima	20.2
138940	7	Sololá	713	San Lucas Tolimán	10	San Lucas Tolimán	8	Agosto	2023-01-08T00:00:00	2024-11-08T01:00:00	5	Humedad	62
138941	7	Sololá	713	San Lucas Tolimán	10	San Lucas Tolimán	8	Agosto	2023-01-08T00:00:00	2024-11-08T01:00:00	6	Velocidad del viento	1.6
138942	7	Sololá	713	San Lucas Tolimán	10	San Lucas Tolimán	8	Agosto	2023-01-08T00:00:00	2024-11-08T01:00:00	7	Dirección del viento	1.61
138943	7	Sololá	713	San Lucas Tolimán	10	San Lucas Tolimán	8	Agosto	2023-01-08T00:00:00	2024-11-08T01:00:00	1	Precipitación	0
138944	7	Sololá	713	San Lucas Tolimán	10	San Lucas Tolimán	8	Agosto	2023-01-08T00:00:00	2024-11-08T01:00:00	8	Radiación solar	0
138945	7	Sololá	713	San Lucas Tolimán	10	San Lucas Tolimán	8	Agosto	2023-01-08T00:00:00	2024-11-08T02:00:00	2	Temperatura media	18.8
138946	7	Sololá	713	San Lucas Tolimán	10	San Lucas Tolimán	8	Agosto	2023-01-08T00:00:00	2024-11-08T02:00:00	4	Temperatura máxima	20.3
138947	7	Sololá	713	San Lucas Tolimán	10	San Lucas Tolimán	8	Agosto	2023-01-08T00:00:00	2024-11-08T02:00:00	3	Temperatura mínima	18.8
138948	7	Sololá	713	San Lucas Tolimán	10	San Lucas Tolimán	8	Agosto	2023-01-08T00:00:00	2024-11-08T02:00:00	5	Humedad	61
138949	7	Sololá	713	San Lucas Tolimán	10	San Lucas Tolimán	8	Agosto	2023-01-08T00:00:00	2024-11-08T02:00:00	6	Velocidad del viento	1.6
138950	7	Sololá	713	San Lucas Tolimán	10	San Lucas Tolimán	8	Agosto	2023-01-08T00:00:00	2024-11-08T02:00:00	7	Dirección del viento	1.61
138951	7	Sololá	713	San Lucas Tolimán	10	San Lucas Tolimán	8	Agosto	2023-01-08T00:00:00	2024-11-08T02:00:00	1	Precipitación	0.2
138952	7	Sololá	713	San Lucas Tolimán	10	San Lucas Tolimán	8	Agosto	2023-01-08T00:00:00	2024-11-08T02:00:00	8	Radiación solar	0
138953	7	Sololá	713	San Lucas Tolimán	10	San Lucas Tolimán	8	Agosto	2023-01-08T00:00:00	2024-11-08T03:00:00	2	Temperatura media	17.9
138954	7	Sololá	713	San Lucas Tolimán	10	San Lucas Tolimán	8	Agosto	2023-01-08T00:00:00	2024-11-08T03:00:00	4	Temperatura máxima	19
138955	7	Sololá	713	San Lucas Tolimán	10	San Lucas Tolimán	8	Agosto	2023-01-08T00:00:00	2024-11-08T03:00:00	3	Temperatura mínima	17.7
138956	7	Sololá	713	San Lucas Tolimán	10	San Lucas Tolimán	8	Agosto	2023-01-08T00:00:00	2024-11-08T03:00:00	5	Humedad	62
138957	7	Sololá	713	San Lucas Tolimán	10	San Lucas Tolimán	8	Agosto	2023-01-08T00:00:00	2024-11-08T03:00:00	6	Velocidad del viento	3.2
138958	7	Sololá	713	San Lucas Tolimán	10	San Lucas Tolimán	8	Agosto	2023-01-08T00:00:00	2024-11-08T03:00:00	7	Dirección del viento	3.22
138959	7	Sololá	713	San Lucas Tolimán	10	San Lucas Tolimán	8	Agosto	2023-01-08T00:00:00	2024-11-08T03:00:00	1	Precipitación	0.8
138960	7	Sololá	713	San Lucas Tolimán	10	San Lucas Tolimán	8	Agosto	2023-01-08T00:00:00	2024-11-08T03:00:00	8	Radiación solar	0
138961	7	Sololá	713	San Lucas Tolimán	10	San Lucas Tolimán	8	Agosto	2023-01-08T00:00:00	2024-11-08T04:00:00	2	Temperatura media	18.3
138962	7	Sololá	713	San Lucas Tolimán	10	San Lucas Tolimán	8	Agosto	2023-01-08T00:00:00	2024-11-08T04:00:00	4	Temperatura máxima	18.4
138963	7	Sololá	713	San Lucas Tolimán	10	San Lucas Tolimán	8	Agosto	2023-01-08T00:00:00	2024-11-08T04:00:00	3	Temperatura mínima	17.9
138964	7	Sololá	713	San Lucas Tolimán	10	San Lucas Tolimán	8	Agosto	2023-01-08T00:00:00	2024-11-08T04:00:00	5	Humedad	61
138965	7	Sololá	713	San Lucas Tolimán	10	San Lucas Tolimán	8	Agosto	2023-01-08T00:00:00	2024-11-08T04:00:00	6	Velocidad del viento	4.8
138966	7	Sololá	713	San Lucas Tolimán	10	San Lucas Tolimán	8	Agosto	2023-01-08T00:00:00	2024-11-08T04:00:00	7	Dirección del viento	4.83
138967	7	Sololá	713	San Lucas Tolimán	10	San Lucas Tolimán	8	Agosto	2023-01-08T00:00:00	2024-11-08T04:00:00	1	Precipitación	0
138968	7	Sololá	713	San Lucas Tolimán	10	San Lucas Tolimán	8	Agosto	2023-01-08T00:00:00	2024-11-08T04:00:00	8	Radiación solar	0
138969	7	Sololá	713	San Lucas Tolimán	10	San Lucas Tolimán	8	Agosto	2023-01-08T00:00:00	2024-11-08T05:00:00	2	Temperatura media	17.6
138970	7	Sololá	713	San Lucas Tolimán	10	San Lucas Tolimán	8	Agosto	2023-01-08T00:00:00	2024-11-08T05:00:00	4	Temperatura máxima	18.5
138971	7	Sololá	713	San Lucas Tolimán	10	San Lucas Tolimán	8	Agosto	2023-01-08T00:00:00	2024-11-08T05:00:00	3	Temperatura mínima	17.6
138972	7	Sololá	713	San Lucas Tolimán	10	San Lucas Tolimán	8	Agosto	2023-01-08T00:00:00	2024-11-08T05:00:00	5	Humedad	63
138973	7	Sololá	713	San Lucas Tolimán	10	San Lucas Tolimán	8	Agosto	2023-01-08T00:00:00	2024-11-08T05:00:00	6	Velocidad del viento	1.6
138974	7	Sololá	713	San Lucas Tolimán	10	San Lucas Tolimán	8	Agosto	2023-01-08T00:00:00	2024-11-08T05:00:00	7	Dirección del viento	1.61
138975	7	Sololá	713	San Lucas Tolimán	10	San Lucas Tolimán	8	Agosto	2023-01-08T00:00:00	2024-11-08T05:00:00	1	Precipitación	0
138976	7	Sololá	713	San Lucas Tolimán	10	San Lucas Tolimán	8	Agosto	2023-01-08T00:00:00	2024-11-08T05:00:00	8	Radiación solar	0
138977	7	Sololá	713	San Lucas Tolimán	10	San Lucas Tolimán	8	Agosto	2023-01-08T00:00:00	2024-11-08T06:00:00	2	Temperatura media	17.3
138978	7	Sololá	713	San Lucas Tolimán	10	San Lucas Tolimán	8	Agosto	2023-01-08T00:00:00	2024-11-08T06:00:00	4	Temperatura máxima	17.6
138979	7	Sololá	713	San Lucas Tolimán	10	San Lucas Tolimán	8	Agosto	2023-01-08T00:00:00	2024-11-08T06:00:00	3	Temperatura mínima	17
138980	7	Sololá	713	San Lucas Tolimán	10	San Lucas Tolimán	8	Agosto	2023-01-08T00:00:00	2024-11-08T06:00:00	5	Humedad	63
138981	7	Sololá	713	San Lucas Tolimán	10	San Lucas Tolimán	8	Agosto	2023-01-08T00:00:00	2024-11-08T06:00:00	6	Velocidad del viento	1.6
138982	7	Sololá	713	San Lucas Tolimán	10	San Lucas Tolimán	8	Agosto	2023-01-08T00:00:00	2024-11-08T06:00:00	7	Dirección del viento	1.61
138983	7	Sololá	713	San Lucas Tolimán	10	San Lucas Tolimán	8	Agosto	2023-01-08T00:00:00	2024-11-08T06:00:00	1	Precipitación	0
138984	7	Sololá	713	San Lucas Tolimán	10	San Lucas Tolimán	8	Agosto	2023-01-08T00:00:00	2024-11-08T06:00:00	8	Radiación solar	1
138985	7	Sololá	713	San Lucas Tolimán	10	San Lucas Tolimán	8	Agosto	2023-01-08T00:00:00	2024-11-08T07:00:00	2	Temperatura media	18.3
138986	7	Sololá	713	San Lucas Tolimán	10	San Lucas Tolimán	8	Agosto	2023-01-08T00:00:00	2024-11-08T07:00:00	4	Temperatura máxima	18.4
138987	7	Sololá	713	San Lucas Tolimán	10	San Lucas Tolimán	8	Agosto	2023-01-08T00:00:00	2024-11-08T07:00:00	3	Temperatura mínima	17.2
138988	7	Sololá	713	San Lucas Tolimán	10	San Lucas Tolimán	8	Agosto	2023-01-08T00:00:00	2024-11-08T07:00:00	5	Humedad	61
138989	7	Sololá	713	San Lucas Tolimán	10	San Lucas Tolimán	8	Agosto	2023-01-08T00:00:00	2024-11-08T07:00:00	6	Velocidad del viento	1.6
138990	7	Sololá	713	San Lucas Tolimán	10	San Lucas Tolimán	8	Agosto	2023-01-08T00:00:00	2024-11-08T07:00:00	7	Dirección del viento	1.61
138991	7	Sololá	713	San Lucas Tolimán	10	San Lucas Tolimán	8	Agosto	2023-01-08T00:00:00	2024-11-08T07:00:00	1	Precipitación	0
138992	7	Sololá	713	San Lucas Tolimán	10	San Lucas Tolimán	8	Agosto	2023-01-08T00:00:00	2024-11-08T07:00:00	8	Radiación solar	60
138993	7	Sololá	713	San Lucas Tolimán	10	San Lucas Tolimán	8	Agosto	2023-01-08T00:00:00	2024-11-08T08:00:00	2	Temperatura media	21.8
138994	7	Sololá	713	San Lucas Tolimán	10	San Lucas Tolimán	8	Agosto	2023-01-08T00:00:00	2024-11-08T08:00:00	4	Temperatura máxima	21.8
138995	7	Sololá	713	San Lucas Tolimán	10	San Lucas Tolimán	8	Agosto	2023-01-08T00:00:00	2024-11-08T08:00:00	3	Temperatura mínima	18.3
138996	7	Sololá	713	San Lucas Tolimán	10	San Lucas Tolimán	8	Agosto	2023-01-08T00:00:00	2024-11-08T08:00:00	5	Humedad	55
138997	7	Sololá	713	San Lucas Tolimán	10	San Lucas Tolimán	8	Agosto	2023-01-08T00:00:00	2024-11-08T08:00:00	6	Velocidad del viento	3.2
138998	7	Sololá	713	San Lucas Tolimán	10	San Lucas Tolimán	8	Agosto	2023-01-08T00:00:00	2024-11-08T08:00:00	7	Dirección del viento	3.22
138999	7	Sololá	713	San Lucas Tolimán	10	San Lucas Tolimán	8	Agosto	2023-01-08T00:00:00	2024-11-08T08:00:00	1	Precipitación	0
139000	7	Sololá	713	San Lucas Tolimán	10	San Lucas Tolimán	8	Agosto	2023-01-08T00:00:00	2024-11-08T08:00:00	8	Radiación solar	391
139001	7	Sololá	713	San Lucas Tolimán	10	San Lucas Tolimán	8	Agosto	2023-01-08T00:00:00	2024-11-08T09:00:00	2	Temperatura media	23.2
139002	7	Sololá	713	San Lucas Tolimán	10	San Lucas Tolimán	8	Agosto	2023-01-08T00:00:00	2024-11-08T09:00:00	4	Temperatura máxima	23.2
139003	7	Sololá	713	San Lucas Tolimán	10	San Lucas Tolimán	8	Agosto	2023-01-08T00:00:00	2024-11-08T09:00:00	3	Temperatura mínima	21.8
139004	7	Sololá	713	San Lucas Tolimán	10	San Lucas Tolimán	8	Agosto	2023-01-08T00:00:00	2024-11-08T09:00:00	5	Humedad	52
139005	7	Sololá	713	San Lucas Tolimán	10	San Lucas Tolimán	8	Agosto	2023-01-08T00:00:00	2024-11-08T09:00:00	6	Velocidad del viento	4.8
139006	7	Sololá	713	San Lucas Tolimán	10	San Lucas Tolimán	8	Agosto	2023-01-08T00:00:00	2024-11-08T09:00:00	7	Dirección del viento	4.83
139007	7	Sololá	713	San Lucas Tolimán	10	San Lucas Tolimán	8	Agosto	2023-01-08T00:00:00	2024-11-08T09:00:00	1	Precipitación	0
139008	7	Sololá	713	San Lucas Tolimán	10	San Lucas Tolimán	8	Agosto	2023-01-08T00:00:00	2024-11-08T09:00:00	8	Radiación solar	609
139009	7	Sololá	713	San Lucas Tolimán	10	San Lucas Tolimán	8	Agosto	2023-01-08T00:00:00	2024-11-08T10:00:00	2	Temperatura media	24.9
139010	7	Sololá	713	San Lucas Tolimán	10	San Lucas Tolimán	8	Agosto	2023-01-08T00:00:00	2024-11-08T10:00:00	4	Temperatura máxima	24.9
139011	7	Sololá	713	San Lucas Tolimán	10	San Lucas Tolimán	8	Agosto	2023-01-08T00:00:00	2024-11-08T10:00:00	3	Temperatura mínima	23.2
139012	7	Sololá	713	San Lucas Tolimán	10	San Lucas Tolimán	8	Agosto	2023-01-08T00:00:00	2024-11-08T10:00:00	5	Humedad	50
139013	7	Sololá	713	San Lucas Tolimán	10	San Lucas Tolimán	8	Agosto	2023-01-08T00:00:00	2024-11-08T10:00:00	6	Velocidad del viento	6.4
139014	7	Sololá	713	San Lucas Tolimán	10	San Lucas Tolimán	8	Agosto	2023-01-08T00:00:00	2024-11-08T10:00:00	7	Dirección del viento	6.44
139015	7	Sololá	713	San Lucas Tolimán	10	San Lucas Tolimán	8	Agosto	2023-01-08T00:00:00	2024-11-08T10:00:00	1	Precipitación	0
139016	7	Sololá	713	San Lucas Tolimán	10	San Lucas Tolimán	8	Agosto	2023-01-08T00:00:00	2024-11-08T10:00:00	8	Radiación solar	787
139017	7	Sololá	713	San Lucas Tolimán	10	San Lucas Tolimán	8	Agosto	2023-01-08T00:00:00	2024-11-08T11:00:00	2	Temperatura media	23
139018	7	Sololá	713	San Lucas Tolimán	10	San Lucas Tolimán	8	Agosto	2023-01-08T00:00:00	2024-11-08T11:00:00	4	Temperatura máxima	25.5
139019	7	Sololá	713	San Lucas Tolimán	10	San Lucas Tolimán	8	Agosto	2023-01-08T00:00:00	2024-11-08T11:00:00	3	Temperatura mínima	22.6
139020	7	Sololá	713	San Lucas Tolimán	10	San Lucas Tolimán	8	Agosto	2023-01-08T00:00:00	2024-11-08T11:00:00	5	Humedad	61
139021	7	Sololá	713	San Lucas Tolimán	10	San Lucas Tolimán	8	Agosto	2023-01-08T00:00:00	2024-11-08T11:00:00	6	Velocidad del viento	4.8
139022	7	Sololá	713	San Lucas Tolimán	10	San Lucas Tolimán	8	Agosto	2023-01-08T00:00:00	2024-11-08T11:00:00	7	Dirección del viento	4.83
139023	7	Sololá	713	San Lucas Tolimán	10	San Lucas Tolimán	8	Agosto	2023-01-08T00:00:00	2024-11-08T11:00:00	1	Precipitación	0.2
139024	7	Sololá	713	San Lucas Tolimán	10	San Lucas Tolimán	8	Agosto	2023-01-08T00:00:00	2024-11-08T11:00:00	8	Radiación solar	776
139025	7	Sololá	713	San Lucas Tolimán	10	San Lucas Tolimán	8	Agosto	2023-01-08T00:00:00	2024-11-08T12:00:00	2	Temperatura media	24.1
139026	7	Sololá	713	San Lucas Tolimán	10	San Lucas Tolimán	8	Agosto	2023-01-08T00:00:00	2024-11-08T12:00:00	4	Temperatura máxima	25.1
139027	7	Sololá	713	San Lucas Tolimán	10	San Lucas Tolimán	8	Agosto	2023-01-08T00:00:00	2024-11-08T12:00:00	3	Temperatura mínima	23.1
139028	7	Sololá	713	San Lucas Tolimán	10	San Lucas Tolimán	8	Agosto	2023-01-08T00:00:00	2024-11-08T12:00:00	5	Humedad	58
139029	7	Sololá	713	San Lucas Tolimán	10	San Lucas Tolimán	8	Agosto	2023-01-08T00:00:00	2024-11-08T12:00:00	6	Velocidad del viento	9.7
139030	7	Sololá	713	San Lucas Tolimán	10	San Lucas Tolimán	8	Agosto	2023-01-08T00:00:00	2024-11-08T12:00:00	7	Dirección del viento	9.66
139031	7	Sololá	713	San Lucas Tolimán	10	San Lucas Tolimán	8	Agosto	2023-01-08T00:00:00	2024-11-08T12:00:00	1	Precipitación	0
139032	7	Sololá	713	San Lucas Tolimán	10	San Lucas Tolimán	8	Agosto	2023-01-08T00:00:00	2024-11-08T12:00:00	8	Radiación solar	976
139033	7	Sololá	713	San Lucas Tolimán	10	San Lucas Tolimán	8	Agosto	2023-01-08T00:00:00	2024-11-08T13:00:00	2	Temperatura media	24.2
139034	7	Sololá	713	San Lucas Tolimán	10	San Lucas Tolimán	8	Agosto	2023-01-08T00:00:00	2024-11-08T13:00:00	4	Temperatura máxima	24.6
139035	7	Sololá	713	San Lucas Tolimán	10	San Lucas Tolimán	8	Agosto	2023-01-08T00:00:00	2024-11-08T13:00:00	3	Temperatura mínima	23.7
139036	7	Sololá	713	San Lucas Tolimán	10	San Lucas Tolimán	8	Agosto	2023-01-08T00:00:00	2024-11-08T13:00:00	5	Humedad	57
139037	7	Sololá	713	San Lucas Tolimán	10	San Lucas Tolimán	8	Agosto	2023-01-08T00:00:00	2024-11-08T13:00:00	6	Velocidad del viento	11.3
139038	7	Sololá	713	San Lucas Tolimán	10	San Lucas Tolimán	8	Agosto	2023-01-08T00:00:00	2024-11-08T13:00:00	7	Dirección del viento	11.27
139039	7	Sololá	713	San Lucas Tolimán	10	San Lucas Tolimán	8	Agosto	2023-01-08T00:00:00	2024-11-08T13:00:00	1	Precipitación	0
139040	7	Sololá	713	San Lucas Tolimán	10	San Lucas Tolimán	8	Agosto	2023-01-08T00:00:00	2024-11-08T13:00:00	8	Radiación solar	1163
139041	7	Sololá	713	San Lucas Tolimán	10	San Lucas Tolimán	8	Agosto	2023-01-08T00:00:00	2024-11-08T14:00:00	2	Temperatura media	23.8
139042	7	Sololá	713	San Lucas Tolimán	10	San Lucas Tolimán	8	Agosto	2023-01-08T00:00:00	2024-11-08T14:00:00	4	Temperatura máxima	24.3
139043	7	Sololá	713	San Lucas Tolimán	10	San Lucas Tolimán	8	Agosto	2023-01-08T00:00:00	2024-11-08T14:00:00	3	Temperatura mínima	23.3
139044	7	Sololá	713	San Lucas Tolimán	10	San Lucas Tolimán	8	Agosto	2023-01-08T00:00:00	2024-11-08T14:00:00	5	Humedad	59
139045	7	Sololá	713	San Lucas Tolimán	10	San Lucas Tolimán	8	Agosto	2023-01-08T00:00:00	2024-11-08T14:00:00	6	Velocidad del viento	11.3
139046	7	Sololá	713	San Lucas Tolimán	10	San Lucas Tolimán	8	Agosto	2023-01-08T00:00:00	2024-11-08T14:00:00	7	Dirección del viento	11.27
139047	7	Sololá	713	San Lucas Tolimán	10	San Lucas Tolimán	8	Agosto	2023-01-08T00:00:00	2024-11-08T14:00:00	1	Precipitación	0
139048	7	Sololá	713	San Lucas Tolimán	10	San Lucas Tolimán	8	Agosto	2023-01-08T00:00:00	2024-11-08T14:00:00	8	Radiación solar	1038
139049	7	Sololá	713	San Lucas Tolimán	10	San Lucas Tolimán	8	Agosto	2023-01-08T00:00:00	2024-11-08T15:00:00	2	Temperatura media	23.6
139050	7	Sololá	713	San Lucas Tolimán	10	San Lucas Tolimán	8	Agosto	2023-01-08T00:00:00	2024-11-08T15:00:00	4	Temperatura máxima	24.3
139051	7	Sololá	713	San Lucas Tolimán	10	San Lucas Tolimán	8	Agosto	2023-01-08T00:00:00	2024-11-08T15:00:00	3	Temperatura mínima	23.6
139052	7	Sololá	713	San Lucas Tolimán	10	San Lucas Tolimán	8	Agosto	2023-01-08T00:00:00	2024-11-08T15:00:00	5	Humedad	60
139053	7	Sololá	713	San Lucas Tolimán	10	San Lucas Tolimán	8	Agosto	2023-01-08T00:00:00	2024-11-08T15:00:00	6	Velocidad del viento	11.3
139054	7	Sololá	713	San Lucas Tolimán	10	San Lucas Tolimán	8	Agosto	2023-01-08T00:00:00	2024-11-08T15:00:00	7	Dirección del viento	11.27
139055	7	Sololá	713	San Lucas Tolimán	10	San Lucas Tolimán	8	Agosto	2023-01-08T00:00:00	2024-11-08T15:00:00	1	Precipitación	0
139056	7	Sololá	713	San Lucas Tolimán	10	San Lucas Tolimán	8	Agosto	2023-01-08T00:00:00	2024-11-08T15:00:00	8	Radiación solar	985
139057	7	Sololá	713	San Lucas Tolimán	10	San Lucas Tolimán	8	Agosto	2023-01-08T00:00:00	2024-11-08T16:00:00	2	Temperatura media	20.2
139058	7	Sololá	713	San Lucas Tolimán	10	San Lucas Tolimán	8	Agosto	2023-01-08T00:00:00	2024-11-08T16:00:00	4	Temperatura máxima	23.6
139059	7	Sololá	713	San Lucas Tolimán	10	San Lucas Tolimán	8	Agosto	2023-01-08T00:00:00	2024-11-08T16:00:00	3	Temperatura mínima	20.2
139060	7	Sololá	713	San Lucas Tolimán	10	San Lucas Tolimán	8	Agosto	2023-01-08T00:00:00	2024-11-08T16:00:00	5	Humedad	60
139061	7	Sololá	713	San Lucas Tolimán	10	San Lucas Tolimán	8	Agosto	2023-01-08T00:00:00	2024-11-08T16:00:00	6	Velocidad del viento	12.9
139062	7	Sololá	713	San Lucas Tolimán	10	San Lucas Tolimán	8	Agosto	2023-01-08T00:00:00	2024-11-08T16:00:00	7	Dirección del viento	12.87
139063	7	Sololá	713	San Lucas Tolimán	10	San Lucas Tolimán	8	Agosto	2023-01-08T00:00:00	2024-11-08T16:00:00	1	Precipitación	0
139064	7	Sololá	713	San Lucas Tolimán	10	San Lucas Tolimán	8	Agosto	2023-01-08T00:00:00	2024-11-08T16:00:00	8	Radiación solar	269
139065	7	Sololá	713	San Lucas Tolimán	10	San Lucas Tolimán	8	Agosto	2023-01-08T00:00:00	2024-11-08T17:00:00	2	Temperatura media	18.6
139066	7	Sololá	713	San Lucas Tolimán	10	San Lucas Tolimán	8	Agosto	2023-01-08T00:00:00	2024-11-08T17:00:00	4	Temperatura máxima	20.1
139067	7	Sololá	713	San Lucas Tolimán	10	San Lucas Tolimán	8	Agosto	2023-01-08T00:00:00	2024-11-08T17:00:00	3	Temperatura mínima	17.8
139068	7	Sololá	713	San Lucas Tolimán	10	San Lucas Tolimán	8	Agosto	2023-01-08T00:00:00	2024-11-08T17:00:00	5	Humedad	62
139069	7	Sololá	713	San Lucas Tolimán	10	San Lucas Tolimán	8	Agosto	2023-01-08T00:00:00	2024-11-08T17:00:00	6	Velocidad del viento	12.9
139070	7	Sololá	713	San Lucas Tolimán	10	San Lucas Tolimán	8	Agosto	2023-01-08T00:00:00	2024-11-08T17:00:00	7	Dirección del viento	12.87
139071	7	Sololá	713	San Lucas Tolimán	10	San Lucas Tolimán	8	Agosto	2023-01-08T00:00:00	2024-11-08T17:00:00	1	Precipitación	0
139072	7	Sololá	713	San Lucas Tolimán	10	San Lucas Tolimán	8	Agosto	2023-01-08T00:00:00	2024-11-08T17:00:00	8	Radiación solar	44
139073	7	Sololá	713	San Lucas Tolimán	10	San Lucas Tolimán	8	Agosto	2023-01-08T00:00:00	2024-11-08T18:00:00	2	Temperatura media	19.3
139074	7	Sololá	713	San Lucas Tolimán	10	San Lucas Tolimán	8	Agosto	2023-01-08T00:00:00	2024-11-08T18:00:00	4	Temperatura máxima	19.3
139075	7	Sololá	713	San Lucas Tolimán	10	San Lucas Tolimán	8	Agosto	2023-01-08T00:00:00	2024-11-08T18:00:00	3	Temperatura mínima	18.5
139076	7	Sololá	713	San Lucas Tolimán	10	San Lucas Tolimán	8	Agosto	2023-01-08T00:00:00	2024-11-08T18:00:00	5	Humedad	59
139077	7	Sololá	713	San Lucas Tolimán	10	San Lucas Tolimán	8	Agosto	2023-01-08T00:00:00	2024-11-08T18:00:00	6	Velocidad del viento	8
139078	7	Sololá	713	San Lucas Tolimán	10	San Lucas Tolimán	8	Agosto	2023-01-08T00:00:00	2024-11-08T18:00:00	7	Dirección del viento	8.05
139079	7	Sololá	713	San Lucas Tolimán	10	San Lucas Tolimán	8	Agosto	2023-01-08T00:00:00	2024-11-08T18:00:00	1	Precipitación	0
139080	7	Sololá	713	San Lucas Tolimán	10	San Lucas Tolimán	8	Agosto	2023-01-08T00:00:00	2024-11-08T18:00:00	8	Radiación solar	33
139081	7	Sololá	713	San Lucas Tolimán	10	San Lucas Tolimán	8	Agosto	2023-01-08T00:00:00	2024-11-08T19:00:00	2	Temperatura media	19.5
139082	7	Sololá	713	San Lucas Tolimán	10	San Lucas Tolimán	8	Agosto	2023-01-08T00:00:00	2024-11-08T19:00:00	4	Temperatura máxima	19.6
139083	7	Sololá	713	San Lucas Tolimán	10	San Lucas Tolimán	8	Agosto	2023-01-08T00:00:00	2024-11-08T19:00:00	3	Temperatura mínima	19.1
139084	7	Sololá	713	San Lucas Tolimán	10	San Lucas Tolimán	8	Agosto	2023-01-08T00:00:00	2024-11-08T19:00:00	5	Humedad	59
139085	7	Sololá	713	San Lucas Tolimán	10	San Lucas Tolimán	8	Agosto	2023-01-08T00:00:00	2024-11-08T19:00:00	6	Velocidad del viento	3.2
139086	7	Sololá	713	San Lucas Tolimán	10	San Lucas Tolimán	8	Agosto	2023-01-08T00:00:00	2024-11-08T19:00:00	7	Dirección del viento	3.22
139087	7	Sololá	713	San Lucas Tolimán	10	San Lucas Tolimán	8	Agosto	2023-01-08T00:00:00	2024-11-08T19:00:00	1	Precipitación	0
139088	7	Sololá	713	San Lucas Tolimán	10	San Lucas Tolimán	8	Agosto	2023-01-08T00:00:00	2024-11-08T19:00:00	8	Radiación solar	0
139089	7	Sololá	713	San Lucas Tolimán	10	San Lucas Tolimán	8	Agosto	2023-01-08T00:00:00	2024-11-08T20:00:00	2	Temperatura media	19.2
139090	7	Sololá	713	San Lucas Tolimán	10	San Lucas Tolimán	8	Agosto	2023-01-08T00:00:00	2024-11-08T20:00:00	4	Temperatura máxima	19.9
139091	7	Sololá	713	San Lucas Tolimán	10	San Lucas Tolimán	8	Agosto	2023-01-08T00:00:00	2024-11-08T20:00:00	3	Temperatura mínima	19.2
139092	7	Sololá	713	San Lucas Tolimán	10	San Lucas Tolimán	8	Agosto	2023-01-08T00:00:00	2024-11-08T20:00:00	5	Humedad	60
139093	7	Sololá	713	San Lucas Tolimán	10	San Lucas Tolimán	8	Agosto	2023-01-08T00:00:00	2024-11-08T20:00:00	6	Velocidad del viento	4.8
139094	7	Sololá	713	San Lucas Tolimán	10	San Lucas Tolimán	8	Agosto	2023-01-08T00:00:00	2024-11-08T20:00:00	7	Dirección del viento	4.83
139095	7	Sololá	713	San Lucas Tolimán	10	San Lucas Tolimán	8	Agosto	2023-01-08T00:00:00	2024-11-08T20:00:00	1	Precipitación	0
139096	7	Sololá	713	San Lucas Tolimán	10	San Lucas Tolimán	8	Agosto	2023-01-08T00:00:00	2024-11-08T20:00:00	8	Radiación solar	0
139097	7	Sololá	713	San Lucas Tolimán	10	San Lucas Tolimán	8	Agosto	2023-01-08T00:00:00	2024-11-08T21:00:00	2	Temperatura media	18.2
139098	7	Sololá	713	San Lucas Tolimán	10	San Lucas Tolimán	8	Agosto	2023-01-08T00:00:00	2024-11-08T21:00:00	4	Temperatura máxima	19.2
139099	7	Sololá	713	San Lucas Tolimán	10	San Lucas Tolimán	8	Agosto	2023-01-08T00:00:00	2024-11-08T21:00:00	3	Temperatura mínima	18.1
139100	7	Sololá	713	San Lucas Tolimán	10	San Lucas Tolimán	8	Agosto	2023-01-08T00:00:00	2024-11-08T21:00:00	5	Humedad	68
139101	7	Sololá	713	San Lucas Tolimán	10	San Lucas Tolimán	8	Agosto	2023-01-08T00:00:00	2024-11-08T21:00:00	6	Velocidad del viento	8
139102	7	Sololá	713	San Lucas Tolimán	10	San Lucas Tolimán	8	Agosto	2023-01-08T00:00:00	2024-11-08T21:00:00	7	Dirección del viento	8.05
139103	7	Sololá	713	San Lucas Tolimán	10	San Lucas Tolimán	8	Agosto	2023-01-08T00:00:00	2024-11-08T21:00:00	1	Precipitación	1.8
139104	7	Sololá	713	San Lucas Tolimán	10	San Lucas Tolimán	8	Agosto	2023-01-08T00:00:00	2024-11-08T21:00:00	8	Radiación solar	0
139105	7	Sololá	713	San Lucas Tolimán	10	San Lucas Tolimán	8	Agosto	2023-01-08T00:00:00	2024-11-08T22:00:00	2	Temperatura media	17.6
139106	7	Sololá	713	San Lucas Tolimán	10	San Lucas Tolimán	8	Agosto	2023-01-08T00:00:00	2024-11-08T22:00:00	4	Temperatura máxima	18.2
139107	7	Sololá	713	San Lucas Tolimán	10	San Lucas Tolimán	8	Agosto	2023-01-08T00:00:00	2024-11-08T22:00:00	3	Temperatura mínima	17.5
139108	7	Sololá	713	San Lucas Tolimán	10	San Lucas Tolimán	8	Agosto	2023-01-08T00:00:00	2024-11-08T22:00:00	5	Humedad	61
139109	7	Sololá	713	San Lucas Tolimán	10	San Lucas Tolimán	8	Agosto	2023-01-08T00:00:00	2024-11-08T22:00:00	6	Velocidad del viento	4.8
139110	7	Sololá	713	San Lucas Tolimán	10	San Lucas Tolimán	8	Agosto	2023-01-08T00:00:00	2024-11-08T22:00:00	7	Dirección del viento	4.83
139111	7	Sololá	713	San Lucas Tolimán	10	San Lucas Tolimán	8	Agosto	2023-01-08T00:00:00	2024-11-08T22:00:00	1	Precipitación	1.4
139112	7	Sololá	713	San Lucas Tolimán	10	San Lucas Tolimán	8	Agosto	2023-01-08T00:00:00	2024-11-08T22:00:00	8	Radiación solar	0
139113	7	Sololá	713	San Lucas Tolimán	10	San Lucas Tolimán	8	Agosto	2023-01-08T00:00:00	2024-11-08T23:00:00	2	Temperatura media	17
139114	7	Sololá	713	San Lucas Tolimán	10	San Lucas Tolimán	8	Agosto	2023-01-08T00:00:00	2024-11-08T23:00:00	4	Temperatura máxima	17.6
139115	7	Sololá	713	San Lucas Tolimán	10	San Lucas Tolimán	8	Agosto	2023-01-08T00:00:00	2024-11-08T23:00:00	3	Temperatura mínima	16.9
139116	7	Sololá	713	San Lucas Tolimán	10	San Lucas Tolimán	8	Agosto	2023-01-08T00:00:00	2024-11-08T23:00:00	5	Humedad	63
139117	7	Sololá	713	San Lucas Tolimán	10	San Lucas Tolimán	8	Agosto	2023-01-08T00:00:00	2024-11-08T23:00:00	6	Velocidad del viento	1.6
139118	7	Sololá	713	San Lucas Tolimán	10	San Lucas Tolimán	8	Agosto	2023-01-08T00:00:00	2024-11-08T23:00:00	7	Dirección del viento	1.61
139119	7	Sololá	713	San Lucas Tolimán	10	San Lucas Tolimán	8	Agosto	2023-01-08T00:00:00	2024-11-08T23:00:00	1	Precipitación	1.2
139120	7	Sololá	713	San Lucas Tolimán	10	San Lucas Tolimán	8	Agosto	2023-01-08T00:00:00	2024-11-08T23:00:00	8	Radiación solar	0
139121	7	Sololá	713	San Lucas Tolimán	10	San Lucas Tolimán	8	Agosto	2023-02-08T00:00:00	2024-11-08T00:00:00	2	Temperatura media	16.7
139122	7	Sololá	713	San Lucas Tolimán	10	San Lucas Tolimán	8	Agosto	2023-02-08T00:00:00	2024-11-08T00:00:00	4	Temperatura máxima	17
139123	7	Sololá	713	San Lucas Tolimán	10	San Lucas Tolimán	8	Agosto	2023-02-08T00:00:00	2024-11-08T00:00:00	3	Temperatura mínima	16.4
139124	7	Sololá	713	San Lucas Tolimán	10	San Lucas Tolimán	8	Agosto	2023-02-08T00:00:00	2024-11-08T00:00:00	5	Humedad	63
139125	7	Sololá	713	San Lucas Tolimán	10	San Lucas Tolimán	8	Agosto	2023-02-08T00:00:00	2024-11-08T00:00:00	6	Velocidad del viento	1.6
139126	7	Sololá	713	San Lucas Tolimán	10	San Lucas Tolimán	8	Agosto	2023-02-08T00:00:00	2024-11-08T00:00:00	7	Dirección del viento	1.61
139127	7	Sololá	713	San Lucas Tolimán	10	San Lucas Tolimán	8	Agosto	2023-02-08T00:00:00	2024-11-08T00:00:00	1	Precipitación	1.8
139128	7	Sololá	713	San Lucas Tolimán	10	San Lucas Tolimán	8	Agosto	2023-02-08T00:00:00	2024-11-08T00:00:00	8	Radiación solar	0
139129	7	Sololá	713	San Lucas Tolimán	10	San Lucas Tolimán	8	Agosto	2023-02-08T00:00:00	2024-11-08T01:00:00	2	Temperatura media	16.4
139130	7	Sololá	713	San Lucas Tolimán	10	San Lucas Tolimán	8	Agosto	2023-02-08T00:00:00	2024-11-08T01:00:00	4	Temperatura máxima	16.7
139131	7	Sololá	713	San Lucas Tolimán	10	San Lucas Tolimán	8	Agosto	2023-02-08T00:00:00	2024-11-08T01:00:00	3	Temperatura mínima	16.3
139132	7	Sololá	713	San Lucas Tolimán	10	San Lucas Tolimán	8	Agosto	2023-02-08T00:00:00	2024-11-08T01:00:00	5	Humedad	65
139133	7	Sololá	713	San Lucas Tolimán	10	San Lucas Tolimán	8	Agosto	2023-02-08T00:00:00	2024-11-08T01:00:00	6	Velocidad del viento	0
139134	7	Sololá	713	San Lucas Tolimán	10	San Lucas Tolimán	8	Agosto	2023-02-08T00:00:00	2024-11-08T01:00:00	7	Dirección del viento	0
139135	7	Sololá	713	San Lucas Tolimán	10	San Lucas Tolimán	8	Agosto	2023-02-08T00:00:00	2024-11-08T01:00:00	1	Precipitación	0.6
139136	7	Sololá	713	San Lucas Tolimán	10	San Lucas Tolimán	8	Agosto	2023-02-08T00:00:00	2024-11-08T01:00:00	8	Radiación solar	0
139137	7	Sololá	713	San Lucas Tolimán	10	San Lucas Tolimán	8	Agosto	2023-02-08T00:00:00	2024-11-08T02:00:00	2	Temperatura media	16.9
139138	7	Sololá	713	San Lucas Tolimán	10	San Lucas Tolimán	8	Agosto	2023-02-08T00:00:00	2024-11-08T02:00:00	4	Temperatura máxima	16.9
139139	7	Sololá	713	San Lucas Tolimán	10	San Lucas Tolimán	8	Agosto	2023-02-08T00:00:00	2024-11-08T02:00:00	3	Temperatura mínima	16.1
139140	7	Sololá	713	San Lucas Tolimán	10	San Lucas Tolimán	8	Agosto	2023-02-08T00:00:00	2024-11-08T02:00:00	5	Humedad	60
139141	7	Sololá	713	San Lucas Tolimán	10	San Lucas Tolimán	8	Agosto	2023-02-08T00:00:00	2024-11-08T02:00:00	6	Velocidad del viento	3.2
139142	7	Sololá	713	San Lucas Tolimán	10	San Lucas Tolimán	8	Agosto	2023-02-08T00:00:00	2024-11-08T02:00:00	7	Dirección del viento	3.22
139143	7	Sololá	713	San Lucas Tolimán	10	San Lucas Tolimán	8	Agosto	2023-02-08T00:00:00	2024-11-08T02:00:00	1	Precipitación	0
139144	7	Sololá	713	San Lucas Tolimán	10	San Lucas Tolimán	8	Agosto	2023-02-08T00:00:00	2024-11-08T02:00:00	8	Radiación solar	0
139145	7	Sololá	713	San Lucas Tolimán	10	San Lucas Tolimán	8	Agosto	2023-02-08T00:00:00	2024-11-08T03:00:00	2	Temperatura media	16.8
139146	7	Sololá	713	San Lucas Tolimán	10	San Lucas Tolimán	8	Agosto	2023-02-08T00:00:00	2024-11-08T03:00:00	4	Temperatura máxima	17.1
139147	7	Sololá	713	San Lucas Tolimán	10	San Lucas Tolimán	8	Agosto	2023-02-08T00:00:00	2024-11-08T03:00:00	3	Temperatura mínima	16.8
139148	7	Sololá	713	San Lucas Tolimán	10	San Lucas Tolimán	8	Agosto	2023-02-08T00:00:00	2024-11-08T03:00:00	5	Humedad	61
139149	7	Sololá	713	San Lucas Tolimán	10	San Lucas Tolimán	8	Agosto	2023-02-08T00:00:00	2024-11-08T03:00:00	6	Velocidad del viento	0
139150	7	Sololá	713	San Lucas Tolimán	10	San Lucas Tolimán	8	Agosto	2023-02-08T00:00:00	2024-11-08T03:00:00	7	Dirección del viento	0
139151	7	Sololá	713	San Lucas Tolimán	10	San Lucas Tolimán	8	Agosto	2023-02-08T00:00:00	2024-11-08T03:00:00	1	Precipitación	0
139152	7	Sololá	713	San Lucas Tolimán	10	San Lucas Tolimán	8	Agosto	2023-02-08T00:00:00	2024-11-08T03:00:00	8	Radiación solar	0
139153	7	Sololá	713	San Lucas Tolimán	10	San Lucas Tolimán	8	Agosto	2023-02-08T00:00:00	2024-11-08T04:00:00	2	Temperatura media	18.6
139154	7	Sololá	713	San Lucas Tolimán	10	San Lucas Tolimán	8	Agosto	2023-02-08T00:00:00	2024-11-08T04:00:00	4	Temperatura máxima	18.8
139155	7	Sololá	713	San Lucas Tolimán	10	San Lucas Tolimán	8	Agosto	2023-02-08T00:00:00	2024-11-08T04:00:00	3	Temperatura mínima	16.7
139156	7	Sololá	713	San Lucas Tolimán	10	San Lucas Tolimán	8	Agosto	2023-02-08T00:00:00	2024-11-08T04:00:00	5	Humedad	57
139157	7	Sololá	713	San Lucas Tolimán	10	San Lucas Tolimán	8	Agosto	2023-02-08T00:00:00	2024-11-08T04:00:00	6	Velocidad del viento	4.8
139158	7	Sololá	713	San Lucas Tolimán	10	San Lucas Tolimán	8	Agosto	2023-02-08T00:00:00	2024-11-08T04:00:00	7	Dirección del viento	4.83
139159	7	Sololá	713	San Lucas Tolimán	10	San Lucas Tolimán	8	Agosto	2023-02-08T00:00:00	2024-11-08T04:00:00	1	Precipitación	0
139160	7	Sololá	713	San Lucas Tolimán	10	San Lucas Tolimán	8	Agosto	2023-02-08T00:00:00	2024-11-08T04:00:00	8	Radiación solar	0
139161	7	Sololá	713	San Lucas Tolimán	10	San Lucas Tolimán	8	Agosto	2023-02-08T00:00:00	2024-11-08T05:00:00	2	Temperatura media	18.2
139162	7	Sololá	713	San Lucas Tolimán	10	San Lucas Tolimán	8	Agosto	2023-02-08T00:00:00	2024-11-08T05:00:00	4	Temperatura máxima	18.6
139163	7	Sololá	713	San Lucas Tolimán	10	San Lucas Tolimán	8	Agosto	2023-02-08T00:00:00	2024-11-08T05:00:00	3	Temperatura mínima	17.5
139164	7	Sololá	713	San Lucas Tolimán	10	San Lucas Tolimán	8	Agosto	2023-02-08T00:00:00	2024-11-08T05:00:00	5	Humedad	60
139165	7	Sololá	713	San Lucas Tolimán	10	San Lucas Tolimán	8	Agosto	2023-02-08T00:00:00	2024-11-08T05:00:00	6	Velocidad del viento	3.2
139166	7	Sololá	713	San Lucas Tolimán	10	San Lucas Tolimán	8	Agosto	2023-02-08T00:00:00	2024-11-08T05:00:00	7	Dirección del viento	3.22
139167	7	Sololá	713	San Lucas Tolimán	10	San Lucas Tolimán	8	Agosto	2023-02-08T00:00:00	2024-11-08T05:00:00	1	Precipitación	0
139168	7	Sololá	713	San Lucas Tolimán	10	San Lucas Tolimán	8	Agosto	2023-02-08T00:00:00	2024-11-08T05:00:00	8	Radiación solar	0
139169	7	Sololá	713	San Lucas Tolimán	10	San Lucas Tolimán	8	Agosto	2023-02-08T00:00:00	2024-11-08T06:00:00	2	Temperatura media	17.2
139170	7	Sololá	713	San Lucas Tolimán	10	San Lucas Tolimán	8	Agosto	2023-02-08T00:00:00	2024-11-08T06:00:00	4	Temperatura máxima	18.3
139171	7	Sololá	713	San Lucas Tolimán	10	San Lucas Tolimán	8	Agosto	2023-02-08T00:00:00	2024-11-08T06:00:00	3	Temperatura mínima	17.2
139172	7	Sololá	713	San Lucas Tolimán	10	San Lucas Tolimán	8	Agosto	2023-02-08T00:00:00	2024-11-08T06:00:00	5	Humedad	64
139173	7	Sololá	713	San Lucas Tolimán	10	San Lucas Tolimán	8	Agosto	2023-02-08T00:00:00	2024-11-08T06:00:00	6	Velocidad del viento	1.6
139174	7	Sololá	713	San Lucas Tolimán	10	San Lucas Tolimán	8	Agosto	2023-02-08T00:00:00	2024-11-08T06:00:00	7	Dirección del viento	1.61
139175	7	Sololá	713	San Lucas Tolimán	10	San Lucas Tolimán	8	Agosto	2023-02-08T00:00:00	2024-11-08T06:00:00	1	Precipitación	0
139176	7	Sololá	713	San Lucas Tolimán	10	San Lucas Tolimán	8	Agosto	2023-02-08T00:00:00	2024-11-08T06:00:00	8	Radiación solar	0
139177	7	Sololá	713	San Lucas Tolimán	10	San Lucas Tolimán	8	Agosto	2023-02-08T00:00:00	2024-11-08T07:00:00	2	Temperatura media	17.3
139178	7	Sololá	713	San Lucas Tolimán	10	San Lucas Tolimán	8	Agosto	2023-02-08T00:00:00	2024-11-08T07:00:00	4	Temperatura máxima	17.3
139179	7	Sololá	713	San Lucas Tolimán	10	San Lucas Tolimán	8	Agosto	2023-02-08T00:00:00	2024-11-08T07:00:00	3	Temperatura mínima	16.9
139180	7	Sololá	713	San Lucas Tolimán	10	San Lucas Tolimán	8	Agosto	2023-02-08T00:00:00	2024-11-08T07:00:00	5	Humedad	63
139181	7	Sololá	713	San Lucas Tolimán	10	San Lucas Tolimán	8	Agosto	2023-02-08T00:00:00	2024-11-08T07:00:00	6	Velocidad del viento	1.6
139182	7	Sololá	713	San Lucas Tolimán	10	San Lucas Tolimán	8	Agosto	2023-02-08T00:00:00	2024-11-08T07:00:00	7	Dirección del viento	1.61
139183	7	Sololá	713	San Lucas Tolimán	10	San Lucas Tolimán	8	Agosto	2023-02-08T00:00:00	2024-11-08T07:00:00	1	Precipitación	0
139184	7	Sololá	713	San Lucas Tolimán	10	San Lucas Tolimán	8	Agosto	2023-02-08T00:00:00	2024-11-08T07:00:00	8	Radiación solar	37
139185	7	Sololá	713	San Lucas Tolimán	10	San Lucas Tolimán	8	Agosto	2023-02-08T00:00:00	2024-11-08T08:00:00	2	Temperatura media	18.2
139186	7	Sololá	713	San Lucas Tolimán	10	San Lucas Tolimán	8	Agosto	2023-02-08T00:00:00	2024-11-08T08:00:00	4	Temperatura máxima	18.2
139187	7	Sololá	713	San Lucas Tolimán	10	San Lucas Tolimán	8	Agosto	2023-02-08T00:00:00	2024-11-08T08:00:00	3	Temperatura mínima	17.3
139188	7	Sololá	713	San Lucas Tolimán	10	San Lucas Tolimán	8	Agosto	2023-02-08T00:00:00	2024-11-08T08:00:00	5	Humedad	62
139189	7	Sololá	713	San Lucas Tolimán	10	San Lucas Tolimán	8	Agosto	2023-02-08T00:00:00	2024-11-08T08:00:00	6	Velocidad del viento	0
139190	7	Sololá	713	San Lucas Tolimán	10	San Lucas Tolimán	8	Agosto	2023-02-08T00:00:00	2024-11-08T08:00:00	7	Dirección del viento	0
139191	7	Sololá	713	San Lucas Tolimán	10	San Lucas Tolimán	8	Agosto	2023-02-08T00:00:00	2024-11-08T08:00:00	1	Precipitación	0
139192	7	Sololá	713	San Lucas Tolimán	10	San Lucas Tolimán	8	Agosto	2023-02-08T00:00:00	2024-11-08T08:00:00	8	Radiación solar	111
139193	7	Sololá	713	San Lucas Tolimán	10	San Lucas Tolimán	8	Agosto	2023-02-08T00:00:00	2024-11-08T09:00:00	2	Temperatura media	20.2
139194	7	Sololá	713	San Lucas Tolimán	10	San Lucas Tolimán	8	Agosto	2023-02-08T00:00:00	2024-11-08T09:00:00	4	Temperatura máxima	20.3
139195	7	Sololá	713	San Lucas Tolimán	10	San Lucas Tolimán	8	Agosto	2023-02-08T00:00:00	2024-11-08T09:00:00	3	Temperatura mínima	18.2
139196	7	Sololá	713	San Lucas Tolimán	10	San Lucas Tolimán	8	Agosto	2023-02-08T00:00:00	2024-11-08T09:00:00	5	Humedad	59
139197	7	Sololá	713	San Lucas Tolimán	10	San Lucas Tolimán	8	Agosto	2023-02-08T00:00:00	2024-11-08T09:00:00	6	Velocidad del viento	0
139198	7	Sololá	713	San Lucas Tolimán	10	San Lucas Tolimán	8	Agosto	2023-02-08T00:00:00	2024-11-08T09:00:00	7	Dirección del viento	0
139199	7	Sololá	713	San Lucas Tolimán	10	San Lucas Tolimán	8	Agosto	2023-02-08T00:00:00	2024-11-08T09:00:00	1	Precipitación	0
139200	7	Sololá	713	San Lucas Tolimán	10	San Lucas Tolimán	8	Agosto	2023-02-08T00:00:00	2024-11-08T09:00:00	8	Radiación solar	245
139201	7	Sololá	713	San Lucas Tolimán	10	San Lucas Tolimán	8	Agosto	2023-02-08T00:00:00	2024-11-08T10:00:00	2	Temperatura media	21.8
139202	7	Sololá	713	San Lucas Tolimán	10	San Lucas Tolimán	8	Agosto	2023-02-08T00:00:00	2024-11-08T10:00:00	4	Temperatura máxima	21.8
139203	7	Sololá	713	San Lucas Tolimán	10	San Lucas Tolimán	8	Agosto	2023-02-08T00:00:00	2024-11-08T10:00:00	3	Temperatura mínima	20.2
139204	7	Sololá	713	San Lucas Tolimán	10	San Lucas Tolimán	8	Agosto	2023-02-08T00:00:00	2024-11-08T10:00:00	5	Humedad	54
139205	7	Sololá	713	San Lucas Tolimán	10	San Lucas Tolimán	8	Agosto	2023-02-08T00:00:00	2024-11-08T10:00:00	6	Velocidad del viento	1.6
139206	7	Sololá	713	San Lucas Tolimán	10	San Lucas Tolimán	8	Agosto	2023-02-08T00:00:00	2024-11-08T10:00:00	7	Dirección del viento	1.61
139207	7	Sololá	713	San Lucas Tolimán	10	San Lucas Tolimán	8	Agosto	2023-02-08T00:00:00	2024-11-08T10:00:00	1	Precipitación	0
139208	7	Sololá	713	San Lucas Tolimán	10	San Lucas Tolimán	8	Agosto	2023-02-08T00:00:00	2024-11-08T10:00:00	8	Radiación solar	387
139209	7	Sololá	713	San Lucas Tolimán	10	San Lucas Tolimán	8	Agosto	2023-02-08T00:00:00	2024-11-08T11:00:00	2	Temperatura media	21.9
139210	7	Sololá	713	San Lucas Tolimán	10	San Lucas Tolimán	8	Agosto	2023-02-08T00:00:00	2024-11-08T11:00:00	4	Temperatura máxima	21.9
139211	7	Sololá	713	San Lucas Tolimán	10	San Lucas Tolimán	8	Agosto	2023-02-08T00:00:00	2024-11-08T11:00:00	3	Temperatura mínima	21.5
139212	7	Sololá	713	San Lucas Tolimán	10	San Lucas Tolimán	8	Agosto	2023-02-08T00:00:00	2024-11-08T11:00:00	5	Humedad	54
139213	7	Sololá	713	San Lucas Tolimán	10	San Lucas Tolimán	8	Agosto	2023-02-08T00:00:00	2024-11-08T11:00:00	6	Velocidad del viento	1.6
139214	7	Sololá	713	San Lucas Tolimán	10	San Lucas Tolimán	8	Agosto	2023-02-08T00:00:00	2024-11-08T11:00:00	7	Dirección del viento	1.61
139215	7	Sololá	713	San Lucas Tolimán	10	San Lucas Tolimán	8	Agosto	2023-02-08T00:00:00	2024-11-08T11:00:00	1	Precipitación	0
139216	7	Sololá	713	San Lucas Tolimán	10	San Lucas Tolimán	8	Agosto	2023-02-08T00:00:00	2024-11-08T11:00:00	8	Radiación solar	356
139217	7	Sololá	713	San Lucas Tolimán	10	San Lucas Tolimán	8	Agosto	2023-02-08T00:00:00	2024-11-08T12:00:00	2	Temperatura media	22.4
139218	7	Sololá	713	San Lucas Tolimán	10	San Lucas Tolimán	8	Agosto	2023-02-08T00:00:00	2024-11-08T12:00:00	4	Temperatura máxima	22.6
139219	7	Sololá	713	San Lucas Tolimán	10	San Lucas Tolimán	8	Agosto	2023-02-08T00:00:00	2024-11-08T12:00:00	3	Temperatura mínima	21.8
139220	7	Sololá	713	San Lucas Tolimán	10	San Lucas Tolimán	8	Agosto	2023-02-08T00:00:00	2024-11-08T12:00:00	5	Humedad	57
139221	7	Sololá	713	San Lucas Tolimán	10	San Lucas Tolimán	8	Agosto	2023-02-08T00:00:00	2024-11-08T12:00:00	6	Velocidad del viento	3.2
139222	7	Sololá	713	San Lucas Tolimán	10	San Lucas Tolimán	8	Agosto	2023-02-08T00:00:00	2024-11-08T12:00:00	7	Dirección del viento	3.22
139223	7	Sololá	713	San Lucas Tolimán	10	San Lucas Tolimán	8	Agosto	2023-02-08T00:00:00	2024-11-08T12:00:00	1	Precipitación	0
139224	7	Sololá	713	San Lucas Tolimán	10	San Lucas Tolimán	8	Agosto	2023-02-08T00:00:00	2024-11-08T12:00:00	8	Radiación solar	489
139225	7	Sololá	713	San Lucas Tolimán	10	San Lucas Tolimán	8	Agosto	2023-02-08T00:00:00	2024-11-08T13:00:00	2	Temperatura media	22.3
139226	7	Sololá	713	San Lucas Tolimán	10	San Lucas Tolimán	8	Agosto	2023-02-08T00:00:00	2024-11-08T13:00:00	4	Temperatura máxima	22.7
139227	7	Sololá	713	San Lucas Tolimán	10	San Lucas Tolimán	8	Agosto	2023-02-08T00:00:00	2024-11-08T13:00:00	3	Temperatura mínima	21.6
139228	7	Sololá	713	San Lucas Tolimán	10	San Lucas Tolimán	8	Agosto	2023-02-08T00:00:00	2024-11-08T13:00:00	5	Humedad	61
139229	7	Sololá	713	San Lucas Tolimán	10	San Lucas Tolimán	8	Agosto	2023-02-08T00:00:00	2024-11-08T13:00:00	6	Velocidad del viento	4.8
139230	7	Sololá	713	San Lucas Tolimán	10	San Lucas Tolimán	8	Agosto	2023-02-08T00:00:00	2024-11-08T13:00:00	7	Dirección del viento	4.83
139231	7	Sololá	713	San Lucas Tolimán	10	San Lucas Tolimán	8	Agosto	2023-02-08T00:00:00	2024-11-08T13:00:00	1	Precipitación	0
139232	7	Sololá	713	San Lucas Tolimán	10	San Lucas Tolimán	8	Agosto	2023-02-08T00:00:00	2024-11-08T13:00:00	8	Radiación solar	330
139233	7	Sololá	713	San Lucas Tolimán	10	San Lucas Tolimán	8	Agosto	2023-02-08T00:00:00	2024-11-08T14:00:00	2	Temperatura media	21.3
139234	7	Sololá	713	San Lucas Tolimán	10	San Lucas Tolimán	8	Agosto	2023-02-08T00:00:00	2024-11-08T14:00:00	4	Temperatura máxima	22.3
139235	7	Sololá	713	San Lucas Tolimán	10	San Lucas Tolimán	8	Agosto	2023-02-08T00:00:00	2024-11-08T14:00:00	3	Temperatura mínima	20.8
139236	7	Sololá	713	San Lucas Tolimán	10	San Lucas Tolimán	8	Agosto	2023-02-08T00:00:00	2024-11-08T14:00:00	5	Humedad	64
139237	7	Sololá	713	San Lucas Tolimán	10	San Lucas Tolimán	8	Agosto	2023-02-08T00:00:00	2024-11-08T14:00:00	6	Velocidad del viento	4.8
139238	7	Sololá	713	San Lucas Tolimán	10	San Lucas Tolimán	8	Agosto	2023-02-08T00:00:00	2024-11-08T14:00:00	7	Dirección del viento	4.83
139239	7	Sololá	713	San Lucas Tolimán	10	San Lucas Tolimán	8	Agosto	2023-02-08T00:00:00	2024-11-08T14:00:00	1	Precipitación	0
139240	7	Sololá	713	San Lucas Tolimán	10	San Lucas Tolimán	8	Agosto	2023-02-08T00:00:00	2024-11-08T14:00:00	8	Radiación solar	301
139241	7	Sololá	713	San Lucas Tolimán	10	San Lucas Tolimán	8	Agosto	2023-02-08T00:00:00	2024-11-08T15:00:00	2	Temperatura media	20.6
139242	7	Sololá	713	San Lucas Tolimán	10	San Lucas Tolimán	8	Agosto	2023-02-08T00:00:00	2024-11-08T15:00:00	4	Temperatura máxima	21.6
139243	7	Sololá	713	San Lucas Tolimán	10	San Lucas Tolimán	8	Agosto	2023-02-08T00:00:00	2024-11-08T15:00:00	3	Temperatura mínima	20.6
139244	7	Sololá	713	San Lucas Tolimán	10	San Lucas Tolimán	8	Agosto	2023-02-08T00:00:00	2024-11-08T15:00:00	5	Humedad	65
139245	7	Sololá	713	San Lucas Tolimán	10	San Lucas Tolimán	8	Agosto	2023-02-08T00:00:00	2024-11-08T15:00:00	6	Velocidad del viento	4.8
139246	7	Sololá	713	San Lucas Tolimán	10	San Lucas Tolimán	8	Agosto	2023-02-08T00:00:00	2024-11-08T15:00:00	7	Dirección del viento	4.83
139247	7	Sololá	713	San Lucas Tolimán	10	San Lucas Tolimán	8	Agosto	2023-02-08T00:00:00	2024-11-08T15:00:00	1	Precipitación	0
139248	7	Sololá	713	San Lucas Tolimán	10	San Lucas Tolimán	8	Agosto	2023-02-08T00:00:00	2024-11-08T15:00:00	8	Radiación solar	265
139249	7	Sololá	713	San Lucas Tolimán	10	San Lucas Tolimán	8	Agosto	2023-02-08T00:00:00	2024-11-08T16:00:00	2	Temperatura media	19.1
139250	7	Sololá	713	San Lucas Tolimán	10	San Lucas Tolimán	8	Agosto	2023-02-08T00:00:00	2024-11-08T16:00:00	4	Temperatura máxima	20.6
139251	7	Sololá	713	San Lucas Tolimán	10	San Lucas Tolimán	8	Agosto	2023-02-08T00:00:00	2024-11-08T16:00:00	3	Temperatura mínima	19.1
139252	7	Sololá	713	San Lucas Tolimán	10	San Lucas Tolimán	8	Agosto	2023-02-08T00:00:00	2024-11-08T16:00:00	5	Humedad	63
139253	7	Sololá	713	San Lucas Tolimán	10	San Lucas Tolimán	8	Agosto	2023-02-08T00:00:00	2024-11-08T16:00:00	6	Velocidad del viento	8
139254	7	Sololá	713	San Lucas Tolimán	10	San Lucas Tolimán	8	Agosto	2023-02-08T00:00:00	2024-11-08T16:00:00	7	Dirección del viento	8.05
139255	7	Sololá	713	San Lucas Tolimán	10	San Lucas Tolimán	8	Agosto	2023-02-08T00:00:00	2024-11-08T16:00:00	1	Precipitación	0
139256	7	Sololá	713	San Lucas Tolimán	10	San Lucas Tolimán	8	Agosto	2023-02-08T00:00:00	2024-11-08T16:00:00	8	Radiación solar	78
139257	7	Sololá	713	San Lucas Tolimán	10	San Lucas Tolimán	8	Agosto	2023-02-08T00:00:00	2024-11-08T17:00:00	2	Temperatura media	19.7
139258	7	Sololá	713	San Lucas Tolimán	10	San Lucas Tolimán	8	Agosto	2023-02-08T00:00:00	2024-11-08T17:00:00	4	Temperatura máxima	19.8
139259	7	Sololá	713	San Lucas Tolimán	10	San Lucas Tolimán	8	Agosto	2023-02-08T00:00:00	2024-11-08T17:00:00	3	Temperatura mínima	19.1
139260	7	Sololá	713	San Lucas Tolimán	10	San Lucas Tolimán	8	Agosto	2023-02-08T00:00:00	2024-11-08T17:00:00	5	Humedad	62
139261	7	Sololá	713	San Lucas Tolimán	10	San Lucas Tolimán	8	Agosto	2023-02-08T00:00:00	2024-11-08T17:00:00	6	Velocidad del viento	6.4
139262	7	Sololá	713	San Lucas Tolimán	10	San Lucas Tolimán	8	Agosto	2023-02-08T00:00:00	2024-11-08T17:00:00	7	Dirección del viento	6.44
139263	7	Sololá	713	San Lucas Tolimán	10	San Lucas Tolimán	8	Agosto	2023-02-08T00:00:00	2024-11-08T17:00:00	1	Precipitación	0
139264	7	Sololá	713	San Lucas Tolimán	10	San Lucas Tolimán	8	Agosto	2023-02-08T00:00:00	2024-11-08T17:00:00	8	Radiación solar	152
139265	7	Sololá	713	San Lucas Tolimán	10	San Lucas Tolimán	8	Agosto	2023-02-08T00:00:00	2024-11-08T18:00:00	2	Temperatura media	19.2
139266	7	Sololá	713	San Lucas Tolimán	10	San Lucas Tolimán	8	Agosto	2023-02-08T00:00:00	2024-11-08T18:00:00	4	Temperatura máxima	19.7
139267	7	Sololá	713	San Lucas Tolimán	10	San Lucas Tolimán	8	Agosto	2023-02-08T00:00:00	2024-11-08T18:00:00	3	Temperatura mínima	19.1
139268	7	Sololá	713	San Lucas Tolimán	10	San Lucas Tolimán	8	Agosto	2023-02-08T00:00:00	2024-11-08T18:00:00	5	Humedad	62
139269	7	Sololá	713	San Lucas Tolimán	10	San Lucas Tolimán	8	Agosto	2023-02-08T00:00:00	2024-11-08T18:00:00	6	Velocidad del viento	4.8
139270	7	Sololá	713	San Lucas Tolimán	10	San Lucas Tolimán	8	Agosto	2023-02-08T00:00:00	2024-11-08T18:00:00	7	Dirección del viento	4.83
139271	7	Sololá	713	San Lucas Tolimán	10	San Lucas Tolimán	8	Agosto	2023-02-08T00:00:00	2024-11-08T18:00:00	1	Precipitación	0
139272	7	Sololá	713	San Lucas Tolimán	10	San Lucas Tolimán	8	Agosto	2023-02-08T00:00:00	2024-11-08T18:00:00	8	Radiación solar	22
139273	7	Sololá	713	San Lucas Tolimán	10	San Lucas Tolimán	8	Agosto	2023-02-08T00:00:00	2024-11-08T19:00:00	2	Temperatura media	18.8
139274	7	Sololá	713	San Lucas Tolimán	10	San Lucas Tolimán	8	Agosto	2023-02-08T00:00:00	2024-11-08T19:00:00	4	Temperatura máxima	19.3
139275	7	Sololá	713	San Lucas Tolimán	10	San Lucas Tolimán	8	Agosto	2023-02-08T00:00:00	2024-11-08T19:00:00	3	Temperatura mínima	18.8
139276	7	Sololá	713	San Lucas Tolimán	10	San Lucas Tolimán	8	Agosto	2023-02-08T00:00:00	2024-11-08T19:00:00	5	Humedad	61
139277	7	Sololá	713	San Lucas Tolimán	10	San Lucas Tolimán	8	Agosto	2023-02-08T00:00:00	2024-11-08T19:00:00	6	Velocidad del viento	1.6
139278	7	Sololá	713	San Lucas Tolimán	10	San Lucas Tolimán	8	Agosto	2023-02-08T00:00:00	2024-11-08T19:00:00	7	Dirección del viento	1.61
139279	7	Sololá	713	San Lucas Tolimán	10	San Lucas Tolimán	8	Agosto	2023-02-08T00:00:00	2024-11-08T19:00:00	1	Precipitación	0
139280	7	Sololá	713	San Lucas Tolimán	10	San Lucas Tolimán	8	Agosto	2023-02-08T00:00:00	2024-11-08T19:00:00	8	Radiación solar	0
139281	7	Sololá	713	San Lucas Tolimán	10	San Lucas Tolimán	8	Agosto	2023-02-08T00:00:00	2024-11-08T20:00:00	2	Temperatura media	18.1
139282	7	Sololá	713	San Lucas Tolimán	10	San Lucas Tolimán	8	Agosto	2023-02-08T00:00:00	2024-11-08T20:00:00	4	Temperatura máxima	18.9
139283	7	Sololá	713	San Lucas Tolimán	10	San Lucas Tolimán	8	Agosto	2023-02-08T00:00:00	2024-11-08T20:00:00	3	Temperatura mínima	18.1
139284	7	Sololá	713	San Lucas Tolimán	10	San Lucas Tolimán	8	Agosto	2023-02-08T00:00:00	2024-11-08T20:00:00	5	Humedad	63
139285	7	Sololá	713	San Lucas Tolimán	10	San Lucas Tolimán	8	Agosto	2023-02-08T00:00:00	2024-11-08T20:00:00	6	Velocidad del viento	1.6
139286	7	Sololá	713	San Lucas Tolimán	10	San Lucas Tolimán	8	Agosto	2023-02-08T00:00:00	2024-11-08T20:00:00	7	Dirección del viento	1.61
139287	7	Sololá	713	San Lucas Tolimán	10	San Lucas Tolimán	8	Agosto	2023-02-08T00:00:00	2024-11-08T20:00:00	1	Precipitación	0
139288	7	Sololá	713	San Lucas Tolimán	10	San Lucas Tolimán	8	Agosto	2023-02-08T00:00:00	2024-11-08T20:00:00	8	Radiación solar	0
139289	7	Sololá	713	San Lucas Tolimán	10	San Lucas Tolimán	8	Agosto	2023-02-08T00:00:00	2024-11-08T21:00:00	2	Temperatura media	18.2
139290	7	Sololá	713	San Lucas Tolimán	10	San Lucas Tolimán	8	Agosto	2023-02-08T00:00:00	2024-11-08T21:00:00	4	Temperatura máxima	18.2
139291	7	Sololá	713	San Lucas Tolimán	10	San Lucas Tolimán	8	Agosto	2023-02-08T00:00:00	2024-11-08T21:00:00	3	Temperatura mínima	17.8
139292	7	Sololá	713	San Lucas Tolimán	10	San Lucas Tolimán	8	Agosto	2023-02-08T00:00:00	2024-11-08T21:00:00	5	Humedad	60
139293	7	Sololá	713	San Lucas Tolimán	10	San Lucas Tolimán	8	Agosto	2023-02-08T00:00:00	2024-11-08T21:00:00	6	Velocidad del viento	0
139294	7	Sololá	713	San Lucas Tolimán	10	San Lucas Tolimán	8	Agosto	2023-02-08T00:00:00	2024-11-08T21:00:00	7	Dirección del viento	0
139295	7	Sololá	713	San Lucas Tolimán	10	San Lucas Tolimán	8	Agosto	2023-02-08T00:00:00	2024-11-08T21:00:00	1	Precipitación	0
139296	7	Sololá	713	San Lucas Tolimán	10	San Lucas Tolimán	8	Agosto	2023-02-08T00:00:00	2024-11-08T21:00:00	8	Radiación solar	0
139297	7	Sololá	713	San Lucas Tolimán	10	San Lucas Tolimán	8	Agosto	2023-02-08T00:00:00	2024-11-08T22:00:00	2	Temperatura media	18.3
139298	7	Sololá	713	San Lucas Tolimán	10	San Lucas Tolimán	8	Agosto	2023-02-08T00:00:00	2024-11-08T22:00:00	4	Temperatura máxima	18.4
139299	7	Sololá	713	San Lucas Tolimán	10	San Lucas Tolimán	8	Agosto	2023-02-08T00:00:00	2024-11-08T22:00:00	3	Temperatura mínima	18.1
139300	7	Sololá	713	San Lucas Tolimán	10	San Lucas Tolimán	8	Agosto	2023-02-08T00:00:00	2024-11-08T22:00:00	5	Humedad	61
139301	7	Sololá	713	San Lucas Tolimán	10	San Lucas Tolimán	8	Agosto	2023-02-08T00:00:00	2024-11-08T22:00:00	6	Velocidad del viento	0
139302	7	Sololá	713	San Lucas Tolimán	10	San Lucas Tolimán	8	Agosto	2023-02-08T00:00:00	2024-11-08T22:00:00	7	Dirección del viento	0
139303	7	Sololá	713	San Lucas Tolimán	10	San Lucas Tolimán	8	Agosto	2023-02-08T00:00:00	2024-11-08T22:00:00	1	Precipitación	0
139304	7	Sololá	713	San Lucas Tolimán	10	San Lucas Tolimán	8	Agosto	2023-02-08T00:00:00	2024-11-08T22:00:00	8	Radiación solar	0
139305	7	Sololá	713	San Lucas Tolimán	10	San Lucas Tolimán	8	Agosto	2023-02-08T00:00:00	2024-11-08T23:00:00	2	Temperatura media	17.7
139306	7	Sololá	713	San Lucas Tolimán	10	San Lucas Tolimán	8	Agosto	2023-02-08T00:00:00	2024-11-08T23:00:00	4	Temperatura máxima	18.3
139307	7	Sololá	713	San Lucas Tolimán	10	San Lucas Tolimán	8	Agosto	2023-02-08T00:00:00	2024-11-08T23:00:00	3	Temperatura mínima	17.7
139308	7	Sololá	713	San Lucas Tolimán	10	San Lucas Tolimán	8	Agosto	2023-02-08T00:00:00	2024-11-08T23:00:00	5	Humedad	62
139309	7	Sololá	713	San Lucas Tolimán	10	San Lucas Tolimán	8	Agosto	2023-02-08T00:00:00	2024-11-08T23:00:00	6	Velocidad del viento	1.6
139310	7	Sololá	713	San Lucas Tolimán	10	San Lucas Tolimán	8	Agosto	2023-02-08T00:00:00	2024-11-08T23:00:00	7	Dirección del viento	1.61
139311	7	Sololá	713	San Lucas Tolimán	10	San Lucas Tolimán	8	Agosto	2023-02-08T00:00:00	2024-11-08T23:00:00	1	Precipitación	0
139312	7	Sololá	713	San Lucas Tolimán	10	San Lucas Tolimán	8	Agosto	2023-02-08T00:00:00	2024-11-08T23:00:00	8	Radiación solar	0
139313	7	Sololá	713	San Lucas Tolimán	10	San Lucas Tolimán	8	Agosto	2023-03-08T00:00:00	2024-11-08T00:00:00	2	Temperatura media	17.5
139314	7	Sololá	713	San Lucas Tolimán	10	San Lucas Tolimán	8	Agosto	2023-03-08T00:00:00	2024-11-08T00:00:00	4	Temperatura máxima	17.7
139315	7	Sololá	713	San Lucas Tolimán	10	San Lucas Tolimán	8	Agosto	2023-03-08T00:00:00	2024-11-08T00:00:00	3	Temperatura mínima	17.4
139316	7	Sololá	713	San Lucas Tolimán	10	San Lucas Tolimán	8	Agosto	2023-03-08T00:00:00	2024-11-08T00:00:00	5	Humedad	61
139317	7	Sololá	713	San Lucas Tolimán	10	San Lucas Tolimán	8	Agosto	2023-03-08T00:00:00	2024-11-08T00:00:00	6	Velocidad del viento	0
139318	7	Sololá	713	San Lucas Tolimán	10	San Lucas Tolimán	8	Agosto	2023-03-08T00:00:00	2024-11-08T00:00:00	7	Dirección del viento	0
139319	7	Sololá	713	San Lucas Tolimán	10	San Lucas Tolimán	8	Agosto	2023-03-08T00:00:00	2024-11-08T00:00:00	1	Precipitación	0
139320	7	Sololá	713	San Lucas Tolimán	10	San Lucas Tolimán	8	Agosto	2023-03-08T00:00:00	2024-11-08T00:00:00	8	Radiación solar	0
139321	7	Sololá	713	San Lucas Tolimán	10	San Lucas Tolimán	8	Agosto	2023-03-08T00:00:00	2024-11-08T01:00:00	2	Temperatura media	17.3
139322	7	Sololá	713	San Lucas Tolimán	10	San Lucas Tolimán	8	Agosto	2023-03-08T00:00:00	2024-11-08T01:00:00	4	Temperatura máxima	17.7
139323	7	Sololá	713	San Lucas Tolimán	10	San Lucas Tolimán	8	Agosto	2023-03-08T00:00:00	2024-11-08T01:00:00	3	Temperatura mínima	17.3
139324	7	Sololá	713	San Lucas Tolimán	10	San Lucas Tolimán	8	Agosto	2023-03-08T00:00:00	2024-11-08T01:00:00	5	Humedad	62
139325	7	Sololá	713	San Lucas Tolimán	10	San Lucas Tolimán	8	Agosto	2023-03-08T00:00:00	2024-11-08T01:00:00	6	Velocidad del viento	0
139326	7	Sololá	713	San Lucas Tolimán	10	San Lucas Tolimán	8	Agosto	2023-03-08T00:00:00	2024-11-08T01:00:00	7	Dirección del viento	0
139327	7	Sololá	713	San Lucas Tolimán	10	San Lucas Tolimán	8	Agosto	2023-03-08T00:00:00	2024-11-08T01:00:00	1	Precipitación	0
139328	7	Sololá	713	San Lucas Tolimán	10	San Lucas Tolimán	8	Agosto	2023-03-08T00:00:00	2024-11-08T01:00:00	8	Radiación solar	0
139329	7	Sololá	713	San Lucas Tolimán	10	San Lucas Tolimán	8	Agosto	2023-03-08T00:00:00	2024-11-08T02:00:00	2	Temperatura media	17.3
139330	7	Sololá	713	San Lucas Tolimán	10	San Lucas Tolimán	8	Agosto	2023-03-08T00:00:00	2024-11-08T02:00:00	4	Temperatura máxima	17.5
139331	7	Sololá	713	San Lucas Tolimán	10	San Lucas Tolimán	8	Agosto	2023-03-08T00:00:00	2024-11-08T02:00:00	3	Temperatura mínima	17.1
139332	7	Sololá	713	San Lucas Tolimán	10	San Lucas Tolimán	8	Agosto	2023-03-08T00:00:00	2024-11-08T02:00:00	5	Humedad	61
139333	7	Sololá	713	San Lucas Tolimán	10	San Lucas Tolimán	8	Agosto	2023-03-08T00:00:00	2024-11-08T02:00:00	6	Velocidad del viento	0
139334	7	Sololá	713	San Lucas Tolimán	10	San Lucas Tolimán	8	Agosto	2023-03-08T00:00:00	2024-11-08T02:00:00	7	Dirección del viento	0
139335	7	Sololá	713	San Lucas Tolimán	10	San Lucas Tolimán	8	Agosto	2023-03-08T00:00:00	2024-11-08T02:00:00	1	Precipitación	0
139336	7	Sololá	713	San Lucas Tolimán	10	San Lucas Tolimán	8	Agosto	2023-03-08T00:00:00	2024-11-08T02:00:00	8	Radiación solar	0
139337	7	Sololá	713	San Lucas Tolimán	10	San Lucas Tolimán	8	Agosto	2023-03-08T00:00:00	2024-11-08T03:00:00	2	Temperatura media	18
139338	7	Sololá	713	San Lucas Tolimán	10	San Lucas Tolimán	8	Agosto	2023-03-08T00:00:00	2024-11-08T03:00:00	4	Temperatura máxima	18
139339	7	Sololá	713	San Lucas Tolimán	10	San Lucas Tolimán	8	Agosto	2023-03-08T00:00:00	2024-11-08T03:00:00	3	Temperatura mínima	17.1
139340	7	Sololá	713	San Lucas Tolimán	10	San Lucas Tolimán	8	Agosto	2023-03-08T00:00:00	2024-11-08T03:00:00	5	Humedad	60
139341	7	Sololá	713	San Lucas Tolimán	10	San Lucas Tolimán	8	Agosto	2023-03-08T00:00:00	2024-11-08T03:00:00	6	Velocidad del viento	0
139342	7	Sololá	713	San Lucas Tolimán	10	San Lucas Tolimán	8	Agosto	2023-03-08T00:00:00	2024-11-08T03:00:00	7	Dirección del viento	0
139343	7	Sololá	713	San Lucas Tolimán	10	San Lucas Tolimán	8	Agosto	2023-03-08T00:00:00	2024-11-08T03:00:00	1	Precipitación	0
139344	7	Sololá	713	San Lucas Tolimán	10	San Lucas Tolimán	8	Agosto	2023-03-08T00:00:00	2024-11-08T03:00:00	8	Radiación solar	0
139345	7	Sololá	713	San Lucas Tolimán	10	San Lucas Tolimán	8	Agosto	2023-03-08T00:00:00	2024-11-08T04:00:00	2	Temperatura media	17.4
139346	7	Sololá	713	San Lucas Tolimán	10	San Lucas Tolimán	8	Agosto	2023-03-08T00:00:00	2024-11-08T04:00:00	4	Temperatura máxima	18.2
139347	7	Sololá	713	San Lucas Tolimán	10	San Lucas Tolimán	8	Agosto	2023-03-08T00:00:00	2024-11-08T04:00:00	3	Temperatura mínima	17.4
139348	7	Sololá	713	San Lucas Tolimán	10	San Lucas Tolimán	8	Agosto	2023-03-08T00:00:00	2024-11-08T04:00:00	5	Humedad	62
139349	7	Sololá	713	San Lucas Tolimán	10	San Lucas Tolimán	8	Agosto	2023-03-08T00:00:00	2024-11-08T04:00:00	6	Velocidad del viento	0
139350	7	Sololá	713	San Lucas Tolimán	10	San Lucas Tolimán	8	Agosto	2023-03-08T00:00:00	2024-11-08T04:00:00	7	Dirección del viento	0
139351	7	Sololá	713	San Lucas Tolimán	10	San Lucas Tolimán	8	Agosto	2023-03-08T00:00:00	2024-11-08T04:00:00	1	Precipitación	0
139352	7	Sololá	713	San Lucas Tolimán	10	San Lucas Tolimán	8	Agosto	2023-03-08T00:00:00	2024-11-08T04:00:00	8	Radiación solar	0
139353	7	Sololá	713	San Lucas Tolimán	10	San Lucas Tolimán	8	Agosto	2023-03-08T00:00:00	2024-11-08T05:00:00	2	Temperatura media	17.1
139354	7	Sololá	713	San Lucas Tolimán	10	San Lucas Tolimán	8	Agosto	2023-03-08T00:00:00	2024-11-08T05:00:00	4	Temperatura máxima	17.4
139355	7	Sololá	713	San Lucas Tolimán	10	San Lucas Tolimán	8	Agosto	2023-03-08T00:00:00	2024-11-08T05:00:00	3	Temperatura mínima	16.9
139356	7	Sololá	713	San Lucas Tolimán	10	San Lucas Tolimán	8	Agosto	2023-03-08T00:00:00	2024-11-08T05:00:00	5	Humedad	62
139357	7	Sololá	713	San Lucas Tolimán	10	San Lucas Tolimán	8	Agosto	2023-03-08T00:00:00	2024-11-08T05:00:00	6	Velocidad del viento	0
139358	7	Sololá	713	San Lucas Tolimán	10	San Lucas Tolimán	8	Agosto	2023-03-08T00:00:00	2024-11-08T05:00:00	7	Dirección del viento	0
139359	7	Sololá	713	San Lucas Tolimán	10	San Lucas Tolimán	8	Agosto	2023-03-08T00:00:00	2024-11-08T05:00:00	1	Precipitación	0
139360	7	Sololá	713	San Lucas Tolimán	10	San Lucas Tolimán	8	Agosto	2023-03-08T00:00:00	2024-11-08T05:00:00	8	Radiación solar	0
139361	7	Sololá	713	San Lucas Tolimán	10	San Lucas Tolimán	8	Agosto	2023-03-08T00:00:00	2024-11-08T06:00:00	2	Temperatura media	17.1
139362	7	Sololá	713	San Lucas Tolimán	10	San Lucas Tolimán	8	Agosto	2023-03-08T00:00:00	2024-11-08T06:00:00	4	Temperatura máxima	17.3
139363	7	Sololá	713	San Lucas Tolimán	10	San Lucas Tolimán	8	Agosto	2023-03-08T00:00:00	2024-11-08T06:00:00	3	Temperatura mínima	16.9
139364	7	Sololá	713	San Lucas Tolimán	10	San Lucas Tolimán	8	Agosto	2023-03-08T00:00:00	2024-11-08T06:00:00	5	Humedad	62
139365	7	Sololá	713	San Lucas Tolimán	10	San Lucas Tolimán	8	Agosto	2023-03-08T00:00:00	2024-11-08T06:00:00	6	Velocidad del viento	0
139366	7	Sololá	713	San Lucas Tolimán	10	San Lucas Tolimán	8	Agosto	2023-03-08T00:00:00	2024-11-08T06:00:00	7	Dirección del viento	0
139367	7	Sololá	713	San Lucas Tolimán	10	San Lucas Tolimán	8	Agosto	2023-03-08T00:00:00	2024-11-08T06:00:00	1	Precipitación	0
139368	7	Sololá	713	San Lucas Tolimán	10	San Lucas Tolimán	8	Agosto	2023-03-08T00:00:00	2024-11-08T06:00:00	8	Radiación solar	1
139369	7	Sololá	713	San Lucas Tolimán	10	San Lucas Tolimán	8	Agosto	2023-03-08T00:00:00	2024-11-08T07:00:00	2	Temperatura media	16.9
139370	7	Sololá	713	San Lucas Tolimán	10	San Lucas Tolimán	8	Agosto	2023-03-08T00:00:00	2024-11-08T07:00:00	4	Temperatura máxima	17.1
139371	7	Sololá	713	San Lucas Tolimán	10	San Lucas Tolimán	8	Agosto	2023-03-08T00:00:00	2024-11-08T07:00:00	3	Temperatura mínima	16
139372	7	Sololá	713	San Lucas Tolimán	10	San Lucas Tolimán	8	Agosto	2023-03-08T00:00:00	2024-11-08T07:00:00	5	Humedad	63
139373	7	Sololá	713	San Lucas Tolimán	10	San Lucas Tolimán	8	Agosto	2023-03-08T00:00:00	2024-11-08T07:00:00	6	Velocidad del viento	3.2
139374	7	Sololá	713	San Lucas Tolimán	10	San Lucas Tolimán	8	Agosto	2023-03-08T00:00:00	2024-11-08T07:00:00	7	Dirección del viento	3.22
139375	7	Sololá	713	San Lucas Tolimán	10	San Lucas Tolimán	8	Agosto	2023-03-08T00:00:00	2024-11-08T07:00:00	1	Precipitación	0
139376	7	Sololá	713	San Lucas Tolimán	10	San Lucas Tolimán	8	Agosto	2023-03-08T00:00:00	2024-11-08T07:00:00	8	Radiación solar	62
139377	7	Sololá	713	San Lucas Tolimán	10	San Lucas Tolimán	8	Agosto	2023-03-08T00:00:00	2024-11-08T08:00:00	2	Temperatura media	20.3
139378	7	Sololá	713	San Lucas Tolimán	10	San Lucas Tolimán	8	Agosto	2023-03-08T00:00:00	2024-11-08T08:00:00	4	Temperatura máxima	20.3
139379	7	Sololá	713	San Lucas Tolimán	10	San Lucas Tolimán	8	Agosto	2023-03-08T00:00:00	2024-11-08T08:00:00	3	Temperatura mínima	16.9
139380	7	Sololá	713	San Lucas Tolimán	10	San Lucas Tolimán	8	Agosto	2023-03-08T00:00:00	2024-11-08T08:00:00	5	Humedad	59
139381	7	Sololá	713	San Lucas Tolimán	10	San Lucas Tolimán	8	Agosto	2023-03-08T00:00:00	2024-11-08T08:00:00	6	Velocidad del viento	3.2
139382	7	Sololá	713	San Lucas Tolimán	10	San Lucas Tolimán	8	Agosto	2023-03-08T00:00:00	2024-11-08T08:00:00	7	Dirección del viento	3.22
139383	7	Sololá	713	San Lucas Tolimán	10	San Lucas Tolimán	8	Agosto	2023-03-08T00:00:00	2024-11-08T08:00:00	1	Precipitación	0
139384	7	Sololá	713	San Lucas Tolimán	10	San Lucas Tolimán	8	Agosto	2023-03-08T00:00:00	2024-11-08T08:00:00	8	Radiación solar	303
139385	7	Sololá	713	San Lucas Tolimán	10	San Lucas Tolimán	8	Agosto	2023-03-08T00:00:00	2024-11-08T09:00:00	2	Temperatura media	22.1
139386	7	Sololá	713	San Lucas Tolimán	10	San Lucas Tolimán	8	Agosto	2023-03-08T00:00:00	2024-11-08T09:00:00	4	Temperatura máxima	22.1
139387	7	Sololá	713	San Lucas Tolimán	10	San Lucas Tolimán	8	Agosto	2023-03-08T00:00:00	2024-11-08T09:00:00	3	Temperatura mínima	20.3
139388	7	Sololá	713	San Lucas Tolimán	10	San Lucas Tolimán	8	Agosto	2023-03-08T00:00:00	2024-11-08T09:00:00	5	Humedad	59
139389	7	Sololá	713	San Lucas Tolimán	10	San Lucas Tolimán	8	Agosto	2023-03-08T00:00:00	2024-11-08T09:00:00	6	Velocidad del viento	6.4
139390	7	Sololá	713	San Lucas Tolimán	10	San Lucas Tolimán	8	Agosto	2023-03-08T00:00:00	2024-11-08T09:00:00	7	Dirección del viento	6.44
139391	7	Sololá	713	San Lucas Tolimán	10	San Lucas Tolimán	8	Agosto	2023-03-08T00:00:00	2024-11-08T09:00:00	1	Precipitación	0
139392	7	Sololá	713	San Lucas Tolimán	10	San Lucas Tolimán	8	Agosto	2023-03-08T00:00:00	2024-11-08T09:00:00	8	Radiación solar	566
139393	7	Sololá	713	San Lucas Tolimán	10	San Lucas Tolimán	8	Agosto	2023-03-08T00:00:00	2024-11-08T10:00:00	2	Temperatura media	23.4
139394	7	Sololá	713	San Lucas Tolimán	10	San Lucas Tolimán	8	Agosto	2023-03-08T00:00:00	2024-11-08T10:00:00	4	Temperatura máxima	23.4
139395	7	Sololá	713	San Lucas Tolimán	10	San Lucas Tolimán	8	Agosto	2023-03-08T00:00:00	2024-11-08T10:00:00	3	Temperatura mínima	22.2
139396	7	Sololá	713	San Lucas Tolimán	10	San Lucas Tolimán	8	Agosto	2023-03-08T00:00:00	2024-11-08T10:00:00	5	Humedad	56
139397	7	Sololá	713	San Lucas Tolimán	10	San Lucas Tolimán	8	Agosto	2023-03-08T00:00:00	2024-11-08T10:00:00	6	Velocidad del viento	6.4
139398	7	Sololá	713	San Lucas Tolimán	10	San Lucas Tolimán	8	Agosto	2023-03-08T00:00:00	2024-11-08T10:00:00	7	Dirección del viento	6.44
139399	7	Sololá	713	San Lucas Tolimán	10	San Lucas Tolimán	8	Agosto	2023-03-08T00:00:00	2024-11-08T10:00:00	1	Precipitación	0
139400	7	Sololá	713	San Lucas Tolimán	10	San Lucas Tolimán	8	Agosto	2023-03-08T00:00:00	2024-11-08T10:00:00	8	Radiación solar	788
139401	7	Sololá	713	San Lucas Tolimán	10	San Lucas Tolimán	8	Agosto	2023-03-08T00:00:00	2024-11-08T11:00:00	2	Temperatura media	22.9
139402	7	Sololá	713	San Lucas Tolimán	10	San Lucas Tolimán	8	Agosto	2023-03-08T00:00:00	2024-11-08T11:00:00	4	Temperatura máxima	23.7
139403	7	Sololá	713	San Lucas Tolimán	10	San Lucas Tolimán	8	Agosto	2023-03-08T00:00:00	2024-11-08T11:00:00	3	Temperatura mínima	22.8
139404	7	Sololá	713	San Lucas Tolimán	10	San Lucas Tolimán	8	Agosto	2023-03-08T00:00:00	2024-11-08T11:00:00	5	Humedad	61
139405	7	Sololá	713	San Lucas Tolimán	10	San Lucas Tolimán	8	Agosto	2023-03-08T00:00:00	2024-11-08T11:00:00	6	Velocidad del viento	11.3
139406	7	Sololá	713	San Lucas Tolimán	10	San Lucas Tolimán	8	Agosto	2023-03-08T00:00:00	2024-11-08T11:00:00	7	Dirección del viento	11.27
139407	7	Sololá	713	San Lucas Tolimán	10	San Lucas Tolimán	8	Agosto	2023-03-08T00:00:00	2024-11-08T11:00:00	1	Precipitación	0
139408	7	Sololá	713	San Lucas Tolimán	10	San Lucas Tolimán	8	Agosto	2023-03-08T00:00:00	2024-11-08T11:00:00	8	Radiación solar	934
139409	7	Sololá	713	San Lucas Tolimán	10	San Lucas Tolimán	8	Agosto	2023-03-08T00:00:00	2024-11-08T12:00:00	2	Temperatura media	23.1
139410	7	Sololá	713	San Lucas Tolimán	10	San Lucas Tolimán	8	Agosto	2023-03-08T00:00:00	2024-11-08T12:00:00	4	Temperatura máxima	23.2
139411	7	Sololá	713	San Lucas Tolimán	10	San Lucas Tolimán	8	Agosto	2023-03-08T00:00:00	2024-11-08T12:00:00	3	Temperatura mínima	22.4
139412	7	Sololá	713	San Lucas Tolimán	10	San Lucas Tolimán	8	Agosto	2023-03-08T00:00:00	2024-11-08T12:00:00	5	Humedad	62
139413	7	Sololá	713	San Lucas Tolimán	10	San Lucas Tolimán	8	Agosto	2023-03-08T00:00:00	2024-11-08T12:00:00	6	Velocidad del viento	12.9
139414	7	Sololá	713	San Lucas Tolimán	10	San Lucas Tolimán	8	Agosto	2023-03-08T00:00:00	2024-11-08T12:00:00	7	Dirección del viento	12.87
139415	7	Sololá	713	San Lucas Tolimán	10	San Lucas Tolimán	8	Agosto	2023-03-08T00:00:00	2024-11-08T12:00:00	1	Precipitación	0
139416	7	Sololá	713	San Lucas Tolimán	10	San Lucas Tolimán	8	Agosto	2023-03-08T00:00:00	2024-11-08T12:00:00	8	Radiación solar	1149
139417	7	Sololá	713	San Lucas Tolimán	10	San Lucas Tolimán	8	Agosto	2023-03-08T00:00:00	2024-11-08T13:00:00	2	Temperatura media	22.9
139418	7	Sololá	713	San Lucas Tolimán	10	San Lucas Tolimán	8	Agosto	2023-03-08T00:00:00	2024-11-08T13:00:00	4	Temperatura máxima	23.4
139419	7	Sololá	713	San Lucas Tolimán	10	San Lucas Tolimán	8	Agosto	2023-03-08T00:00:00	2024-11-08T13:00:00	3	Temperatura mínima	22.6
139420	7	Sololá	713	San Lucas Tolimán	10	San Lucas Tolimán	8	Agosto	2023-03-08T00:00:00	2024-11-08T13:00:00	5	Humedad	63
139421	7	Sololá	713	San Lucas Tolimán	10	San Lucas Tolimán	8	Agosto	2023-03-08T00:00:00	2024-11-08T13:00:00	6	Velocidad del viento	11.3
139422	7	Sololá	713	San Lucas Tolimán	10	San Lucas Tolimán	8	Agosto	2023-03-08T00:00:00	2024-11-08T13:00:00	7	Dirección del viento	11.27
139423	7	Sololá	713	San Lucas Tolimán	10	San Lucas Tolimán	8	Agosto	2023-03-08T00:00:00	2024-11-08T13:00:00	1	Precipitación	0
139424	7	Sololá	713	San Lucas Tolimán	10	San Lucas Tolimán	8	Agosto	2023-03-08T00:00:00	2024-11-08T13:00:00	8	Radiación solar	1059
139425	7	Sololá	713	San Lucas Tolimán	10	San Lucas Tolimán	8	Agosto	2023-03-08T00:00:00	2024-11-08T14:00:00	2	Temperatura media	22.7
139426	7	Sololá	713	San Lucas Tolimán	10	San Lucas Tolimán	8	Agosto	2023-03-08T00:00:00	2024-11-08T14:00:00	4	Temperatura máxima	24.7
139427	7	Sololá	713	San Lucas Tolimán	10	San Lucas Tolimán	8	Agosto	2023-03-08T00:00:00	2024-11-08T14:00:00	3	Temperatura mínima	22.7
139428	7	Sololá	713	San Lucas Tolimán	10	San Lucas Tolimán	8	Agosto	2023-03-08T00:00:00	2024-11-08T14:00:00	5	Humedad	64
139429	7	Sololá	713	San Lucas Tolimán	10	San Lucas Tolimán	8	Agosto	2023-03-08T00:00:00	2024-11-08T14:00:00	6	Velocidad del viento	8
139430	7	Sololá	713	San Lucas Tolimán	10	San Lucas Tolimán	8	Agosto	2023-03-08T00:00:00	2024-11-08T14:00:00	7	Dirección del viento	8.05
139431	7	Sololá	713	San Lucas Tolimán	10	San Lucas Tolimán	8	Agosto	2023-03-08T00:00:00	2024-11-08T14:00:00	1	Precipitación	0
139432	7	Sololá	713	San Lucas Tolimán	10	San Lucas Tolimán	8	Agosto	2023-03-08T00:00:00	2024-11-08T14:00:00	8	Radiación solar	679
139433	7	Sololá	713	San Lucas Tolimán	10	San Lucas Tolimán	8	Agosto	2023-03-08T00:00:00	2024-11-08T15:00:00	2	Temperatura media	19.1
139434	7	Sololá	713	San Lucas Tolimán	10	San Lucas Tolimán	8	Agosto	2023-03-08T00:00:00	2024-11-08T15:00:00	4	Temperatura máxima	22.7
139435	7	Sololá	713	San Lucas Tolimán	10	San Lucas Tolimán	8	Agosto	2023-03-08T00:00:00	2024-11-08T15:00:00	3	Temperatura mínima	19.1
139436	7	Sololá	713	San Lucas Tolimán	10	San Lucas Tolimán	8	Agosto	2023-03-08T00:00:00	2024-11-08T15:00:00	5	Humedad	91
139437	7	Sololá	713	San Lucas Tolimán	10	San Lucas Tolimán	8	Agosto	2023-03-08T00:00:00	2024-11-08T15:00:00	6	Velocidad del viento	3.2
139438	7	Sololá	713	San Lucas Tolimán	10	San Lucas Tolimán	8	Agosto	2023-03-08T00:00:00	2024-11-08T15:00:00	7	Dirección del viento	3.22
139439	7	Sololá	713	San Lucas Tolimán	10	San Lucas Tolimán	8	Agosto	2023-03-08T00:00:00	2024-11-08T15:00:00	1	Precipitación	15
139440	7	Sololá	713	San Lucas Tolimán	10	San Lucas Tolimán	8	Agosto	2023-03-08T00:00:00	2024-11-08T15:00:00	8	Radiación solar	27
139441	7	Sololá	713	San Lucas Tolimán	10	San Lucas Tolimán	8	Agosto	2023-03-08T00:00:00	2024-11-08T16:00:00	2	Temperatura media	18.8
139442	7	Sololá	713	San Lucas Tolimán	10	San Lucas Tolimán	8	Agosto	2023-03-08T00:00:00	2024-11-08T16:00:00	4	Temperatura máxima	19
139443	7	Sololá	713	San Lucas Tolimán	10	San Lucas Tolimán	8	Agosto	2023-03-08T00:00:00	2024-11-08T16:00:00	3	Temperatura mínima	18.2
139444	7	Sololá	713	San Lucas Tolimán	10	San Lucas Tolimán	8	Agosto	2023-03-08T00:00:00	2024-11-08T16:00:00	5	Humedad	93
139445	7	Sololá	713	San Lucas Tolimán	10	San Lucas Tolimán	8	Agosto	2023-03-08T00:00:00	2024-11-08T16:00:00	6	Velocidad del viento	1.6
139446	7	Sololá	713	San Lucas Tolimán	10	San Lucas Tolimán	8	Agosto	2023-03-08T00:00:00	2024-11-08T16:00:00	7	Dirección del viento	1.61
139447	7	Sololá	713	San Lucas Tolimán	10	San Lucas Tolimán	8	Agosto	2023-03-08T00:00:00	2024-11-08T16:00:00	1	Precipitación	3.8
139448	7	Sololá	713	San Lucas Tolimán	10	San Lucas Tolimán	8	Agosto	2023-03-08T00:00:00	2024-11-08T16:00:00	8	Radiación solar	448
139449	7	Sololá	713	San Lucas Tolimán	10	San Lucas Tolimán	8	Agosto	2023-03-08T00:00:00	2024-11-08T17:00:00	2	Temperatura media	18.7
139450	7	Sololá	713	San Lucas Tolimán	10	San Lucas Tolimán	8	Agosto	2023-03-08T00:00:00	2024-11-08T17:00:00	4	Temperatura máxima	19.3
139451	7	Sololá	713	San Lucas Tolimán	10	San Lucas Tolimán	8	Agosto	2023-03-08T00:00:00	2024-11-08T17:00:00	3	Temperatura mínima	18.7
139452	7	Sololá	713	San Lucas Tolimán	10	San Lucas Tolimán	8	Agosto	2023-03-08T00:00:00	2024-11-08T17:00:00	5	Humedad	92
139453	7	Sololá	713	San Lucas Tolimán	10	San Lucas Tolimán	8	Agosto	2023-03-08T00:00:00	2024-11-08T17:00:00	6	Velocidad del viento	4.8
139454	7	Sololá	713	San Lucas Tolimán	10	San Lucas Tolimán	8	Agosto	2023-03-08T00:00:00	2024-11-08T17:00:00	7	Dirección del viento	4.83
139455	7	Sololá	713	San Lucas Tolimán	10	San Lucas Tolimán	8	Agosto	2023-03-08T00:00:00	2024-11-08T17:00:00	1	Precipitación	1.2
139456	7	Sololá	713	San Lucas Tolimán	10	San Lucas Tolimán	8	Agosto	2023-03-08T00:00:00	2024-11-08T17:00:00	8	Radiación solar	231
139457	7	Sololá	713	San Lucas Tolimán	10	San Lucas Tolimán	8	Agosto	2023-03-08T00:00:00	2024-11-08T18:00:00	2	Temperatura media	18.3
139458	7	Sololá	713	San Lucas Tolimán	10	San Lucas Tolimán	8	Agosto	2023-03-08T00:00:00	2024-11-08T18:00:00	4	Temperatura máxima	18.8
139459	7	Sololá	713	San Lucas Tolimán	10	San Lucas Tolimán	8	Agosto	2023-03-08T00:00:00	2024-11-08T18:00:00	3	Temperatura mínima	18.2
139460	7	Sololá	713	San Lucas Tolimán	10	San Lucas Tolimán	8	Agosto	2023-03-08T00:00:00	2024-11-08T18:00:00	5	Humedad	93
139461	7	Sololá	713	San Lucas Tolimán	10	San Lucas Tolimán	8	Agosto	2023-03-08T00:00:00	2024-11-08T18:00:00	6	Velocidad del viento	1.6
139462	7	Sololá	713	San Lucas Tolimán	10	San Lucas Tolimán	8	Agosto	2023-03-08T00:00:00	2024-11-08T18:00:00	7	Dirección del viento	1.61
139463	7	Sololá	713	San Lucas Tolimán	10	San Lucas Tolimán	8	Agosto	2023-03-08T00:00:00	2024-11-08T18:00:00	1	Precipitación	4
139464	7	Sololá	713	San Lucas Tolimán	10	San Lucas Tolimán	8	Agosto	2023-03-08T00:00:00	2024-11-08T18:00:00	8	Radiación solar	47
139465	7	Sololá	713	San Lucas Tolimán	10	San Lucas Tolimán	8	Agosto	2023-03-08T00:00:00	2024-11-08T19:00:00	2	Temperatura media	18.2
139466	7	Sololá	713	San Lucas Tolimán	10	San Lucas Tolimán	8	Agosto	2023-03-08T00:00:00	2024-11-08T19:00:00	4	Temperatura máxima	18.3
139467	7	Sololá	713	San Lucas Tolimán	10	San Lucas Tolimán	8	Agosto	2023-03-08T00:00:00	2024-11-08T19:00:00	3	Temperatura mínima	18.1
139468	7	Sololá	713	San Lucas Tolimán	10	San Lucas Tolimán	8	Agosto	2023-03-08T00:00:00	2024-11-08T19:00:00	5	Humedad	94
139469	7	Sololá	713	San Lucas Tolimán	10	San Lucas Tolimán	8	Agosto	2023-03-08T00:00:00	2024-11-08T19:00:00	6	Velocidad del viento	1.6
139470	7	Sololá	713	San Lucas Tolimán	10	San Lucas Tolimán	8	Agosto	2023-03-08T00:00:00	2024-11-08T19:00:00	7	Dirección del viento	1.61
139471	7	Sololá	713	San Lucas Tolimán	10	San Lucas Tolimán	8	Agosto	2023-03-08T00:00:00	2024-11-08T19:00:00	1	Precipitación	0.8
139472	7	Sololá	713	San Lucas Tolimán	10	San Lucas Tolimán	8	Agosto	2023-03-08T00:00:00	2024-11-08T19:00:00	8	Radiación solar	0
139473	7	Sololá	713	San Lucas Tolimán	10	San Lucas Tolimán	8	Agosto	2023-03-08T00:00:00	2024-11-08T20:00:00	2	Temperatura media	18.1
139474	7	Sololá	713	San Lucas Tolimán	10	San Lucas Tolimán	8	Agosto	2023-03-08T00:00:00	2024-11-08T20:00:00	4	Temperatura máxima	18.2
139475	7	Sololá	713	San Lucas Tolimán	10	San Lucas Tolimán	8	Agosto	2023-03-08T00:00:00	2024-11-08T20:00:00	3	Temperatura mínima	18.1
139476	7	Sololá	713	San Lucas Tolimán	10	San Lucas Tolimán	8	Agosto	2023-03-08T00:00:00	2024-11-08T20:00:00	5	Humedad	94
139477	7	Sololá	713	San Lucas Tolimán	10	San Lucas Tolimán	8	Agosto	2023-03-08T00:00:00	2024-11-08T20:00:00	6	Velocidad del viento	3.2
139478	7	Sololá	713	San Lucas Tolimán	10	San Lucas Tolimán	8	Agosto	2023-03-08T00:00:00	2024-11-08T20:00:00	7	Dirección del viento	3.22
139479	7	Sololá	713	San Lucas Tolimán	10	San Lucas Tolimán	8	Agosto	2023-03-08T00:00:00	2024-11-08T20:00:00	1	Precipitación	1.8
139480	7	Sololá	713	San Lucas Tolimán	10	San Lucas Tolimán	8	Agosto	2023-03-08T00:00:00	2024-11-08T20:00:00	8	Radiación solar	0
139481	7	Sololá	713	San Lucas Tolimán	10	San Lucas Tolimán	8	Agosto	2023-03-08T00:00:00	2024-11-08T21:00:00	2	Temperatura media	17.8
139482	7	Sololá	713	San Lucas Tolimán	10	San Lucas Tolimán	8	Agosto	2023-03-08T00:00:00	2024-11-08T21:00:00	4	Temperatura máxima	18.1
139483	7	Sololá	713	San Lucas Tolimán	10	San Lucas Tolimán	8	Agosto	2023-03-08T00:00:00	2024-11-08T21:00:00	3	Temperatura mínima	17.8
139484	7	Sololá	713	San Lucas Tolimán	10	San Lucas Tolimán	8	Agosto	2023-03-08T00:00:00	2024-11-08T21:00:00	5	Humedad	91
139485	7	Sololá	713	San Lucas Tolimán	10	San Lucas Tolimán	8	Agosto	2023-03-08T00:00:00	2024-11-08T21:00:00	6	Velocidad del viento	3.2
139486	7	Sololá	713	San Lucas Tolimán	10	San Lucas Tolimán	8	Agosto	2023-03-08T00:00:00	2024-11-08T21:00:00	7	Dirección del viento	3.22
139487	7	Sololá	713	San Lucas Tolimán	10	San Lucas Tolimán	8	Agosto	2023-03-08T00:00:00	2024-11-08T21:00:00	1	Precipitación	1.6
139488	7	Sololá	713	San Lucas Tolimán	10	San Lucas Tolimán	8	Agosto	2023-03-08T00:00:00	2024-11-08T21:00:00	8	Radiación solar	0
139489	7	Sololá	713	San Lucas Tolimán	10	San Lucas Tolimán	8	Agosto	2023-03-08T00:00:00	2024-11-08T22:00:00	2	Temperatura media	17.9
139490	7	Sololá	713	San Lucas Tolimán	10	San Lucas Tolimán	8	Agosto	2023-03-08T00:00:00	2024-11-08T22:00:00	4	Temperatura máxima	18
139491	7	Sololá	713	San Lucas Tolimán	10	San Lucas Tolimán	8	Agosto	2023-03-08T00:00:00	2024-11-08T22:00:00	3	Temperatura mínima	17.8
139492	7	Sololá	713	San Lucas Tolimán	10	San Lucas Tolimán	8	Agosto	2023-03-08T00:00:00	2024-11-08T22:00:00	5	Humedad	91
139493	7	Sololá	713	San Lucas Tolimán	10	San Lucas Tolimán	8	Agosto	2023-03-08T00:00:00	2024-11-08T22:00:00	6	Velocidad del viento	1.6
139494	7	Sololá	713	San Lucas Tolimán	10	San Lucas Tolimán	8	Agosto	2023-03-08T00:00:00	2024-11-08T22:00:00	7	Dirección del viento	1.61
139495	7	Sololá	713	San Lucas Tolimán	10	San Lucas Tolimán	8	Agosto	2023-03-08T00:00:00	2024-11-08T22:00:00	1	Precipitación	0
139496	7	Sololá	713	San Lucas Tolimán	10	San Lucas Tolimán	8	Agosto	2023-03-08T00:00:00	2024-11-08T22:00:00	8	Radiación solar	0
139497	7	Sololá	713	San Lucas Tolimán	10	San Lucas Tolimán	8	Agosto	2023-03-08T00:00:00	2024-11-08T23:00:00	2	Temperatura media	17.7
139498	7	Sololá	713	San Lucas Tolimán	10	San Lucas Tolimán	8	Agosto	2023-03-08T00:00:00	2024-11-08T23:00:00	4	Temperatura máxima	17.9
139499	7	Sololá	713	San Lucas Tolimán	10	San Lucas Tolimán	8	Agosto	2023-03-08T00:00:00	2024-11-08T23:00:00	3	Temperatura mínima	17.7
139500	7	Sololá	713	San Lucas Tolimán	10	San Lucas Tolimán	8	Agosto	2023-03-08T00:00:00	2024-11-08T23:00:00	5	Humedad	93
139501	7	Sololá	713	San Lucas Tolimán	10	San Lucas Tolimán	8	Agosto	2023-03-08T00:00:00	2024-11-08T23:00:00	6	Velocidad del viento	1.6
139502	7	Sololá	713	San Lucas Tolimán	10	San Lucas Tolimán	8	Agosto	2023-03-08T00:00:00	2024-11-08T23:00:00	7	Dirección del viento	1.61
139503	7	Sololá	713	San Lucas Tolimán	10	San Lucas Tolimán	8	Agosto	2023-03-08T00:00:00	2024-11-08T23:00:00	1	Precipitación	0
139504	7	Sololá	713	San Lucas Tolimán	10	San Lucas Tolimán	8	Agosto	2023-03-08T00:00:00	2024-11-08T23:00:00	8	Radiación solar	0
139505	7	Sololá	713	San Lucas Tolimán	10	San Lucas Tolimán	8	Agosto	2023-04-08T00:00:00	2024-11-08T00:00:00	2	Temperatura media	17.9
139506	7	Sololá	713	San Lucas Tolimán	10	San Lucas Tolimán	8	Agosto	2023-04-08T00:00:00	2024-11-08T00:00:00	4	Temperatura máxima	17.9
139507	7	Sololá	713	San Lucas Tolimán	10	San Lucas Tolimán	8	Agosto	2023-04-08T00:00:00	2024-11-08T00:00:00	3	Temperatura mínima	17.6
139508	7	Sololá	713	San Lucas Tolimán	10	San Lucas Tolimán	8	Agosto	2023-04-08T00:00:00	2024-11-08T00:00:00	5	Humedad	86
139509	7	Sololá	713	San Lucas Tolimán	10	San Lucas Tolimán	8	Agosto	2023-04-08T00:00:00	2024-11-08T00:00:00	6	Velocidad del viento	3.2
139510	7	Sololá	713	San Lucas Tolimán	10	San Lucas Tolimán	8	Agosto	2023-04-08T00:00:00	2024-11-08T00:00:00	7	Dirección del viento	3.22
139511	7	Sololá	713	San Lucas Tolimán	10	San Lucas Tolimán	8	Agosto	2023-04-08T00:00:00	2024-11-08T00:00:00	1	Precipitación	0
139512	7	Sololá	713	San Lucas Tolimán	10	San Lucas Tolimán	8	Agosto	2023-04-08T00:00:00	2024-11-08T00:00:00	8	Radiación solar	0
139513	7	Sololá	713	San Lucas Tolimán	10	San Lucas Tolimán	8	Agosto	2023-04-08T00:00:00	2024-11-08T01:00:00	2	Temperatura media	17.2
139514	7	Sololá	713	San Lucas Tolimán	10	San Lucas Tolimán	8	Agosto	2023-04-08T00:00:00	2024-11-08T01:00:00	4	Temperatura máxima	18.1
139515	7	Sololá	713	San Lucas Tolimán	10	San Lucas Tolimán	8	Agosto	2023-04-08T00:00:00	2024-11-08T01:00:00	3	Temperatura mínima	17.2
139516	7	Sololá	713	San Lucas Tolimán	10	San Lucas Tolimán	8	Agosto	2023-04-08T00:00:00	2024-11-08T01:00:00	5	Humedad	91
139517	7	Sololá	713	San Lucas Tolimán	10	San Lucas Tolimán	8	Agosto	2023-04-08T00:00:00	2024-11-08T01:00:00	6	Velocidad del viento	1.6
139518	7	Sololá	713	San Lucas Tolimán	10	San Lucas Tolimán	8	Agosto	2023-04-08T00:00:00	2024-11-08T01:00:00	7	Dirección del viento	1.61
139519	7	Sololá	713	San Lucas Tolimán	10	San Lucas Tolimán	8	Agosto	2023-04-08T00:00:00	2024-11-08T01:00:00	1	Precipitación	0
139520	7	Sololá	713	San Lucas Tolimán	10	San Lucas Tolimán	8	Agosto	2023-04-08T00:00:00	2024-11-08T01:00:00	8	Radiación solar	0
139521	7	Sololá	713	San Lucas Tolimán	10	San Lucas Tolimán	8	Agosto	2023-04-08T00:00:00	2024-11-08T02:00:00	2	Temperatura media	17.6
139522	7	Sololá	713	San Lucas Tolimán	10	San Lucas Tolimán	8	Agosto	2023-04-08T00:00:00	2024-11-08T02:00:00	4	Temperatura máxima	17.6
139523	7	Sololá	713	San Lucas Tolimán	10	San Lucas Tolimán	8	Agosto	2023-04-08T00:00:00	2024-11-08T02:00:00	3	Temperatura mínima	17.1
139524	7	Sololá	713	San Lucas Tolimán	10	San Lucas Tolimán	8	Agosto	2023-04-08T00:00:00	2024-11-08T02:00:00	5	Humedad	91
139525	7	Sololá	713	San Lucas Tolimán	10	San Lucas Tolimán	8	Agosto	2023-04-08T00:00:00	2024-11-08T02:00:00	6	Velocidad del viento	1.6
139526	7	Sololá	713	San Lucas Tolimán	10	San Lucas Tolimán	8	Agosto	2023-04-08T00:00:00	2024-11-08T02:00:00	7	Dirección del viento	1.61
139527	7	Sololá	713	San Lucas Tolimán	10	San Lucas Tolimán	8	Agosto	2023-04-08T00:00:00	2024-11-08T02:00:00	1	Precipitación	0
139528	7	Sololá	713	San Lucas Tolimán	10	San Lucas Tolimán	8	Agosto	2023-04-08T00:00:00	2024-11-08T02:00:00	8	Radiación solar	0
139529	7	Sololá	713	San Lucas Tolimán	10	San Lucas Tolimán	8	Agosto	2023-04-08T00:00:00	2024-11-08T03:00:00	2	Temperatura media	17.9
139530	7	Sololá	713	San Lucas Tolimán	10	San Lucas Tolimán	8	Agosto	2023-04-08T00:00:00	2024-11-08T03:00:00	4	Temperatura máxima	18.1
139531	7	Sololá	713	San Lucas Tolimán	10	San Lucas Tolimán	8	Agosto	2023-04-08T00:00:00	2024-11-08T03:00:00	3	Temperatura mínima	17.6
139532	7	Sololá	713	San Lucas Tolimán	10	San Lucas Tolimán	8	Agosto	2023-04-08T00:00:00	2024-11-08T03:00:00	5	Humedad	86
139533	7	Sololá	713	San Lucas Tolimán	10	San Lucas Tolimán	8	Agosto	2023-04-08T00:00:00	2024-11-08T03:00:00	6	Velocidad del viento	3.2
139534	7	Sololá	713	San Lucas Tolimán	10	San Lucas Tolimán	8	Agosto	2023-04-08T00:00:00	2024-11-08T03:00:00	7	Dirección del viento	3.22
139535	7	Sololá	713	San Lucas Tolimán	10	San Lucas Tolimán	8	Agosto	2023-04-08T00:00:00	2024-11-08T03:00:00	1	Precipitación	0
139536	7	Sololá	713	San Lucas Tolimán	10	San Lucas Tolimán	8	Agosto	2023-04-08T00:00:00	2024-11-08T03:00:00	8	Radiación solar	0
139537	7	Sololá	713	San Lucas Tolimán	10	San Lucas Tolimán	8	Agosto	2023-04-08T00:00:00	2024-11-08T04:00:00	2	Temperatura media	17.9
139538	7	Sololá	713	San Lucas Tolimán	10	San Lucas Tolimán	8	Agosto	2023-04-08T00:00:00	2024-11-08T04:00:00	4	Temperatura máxima	18.2
139539	7	Sololá	713	San Lucas Tolimán	10	San Lucas Tolimán	8	Agosto	2023-04-08T00:00:00	2024-11-08T04:00:00	3	Temperatura mínima	17.8
139540	7	Sololá	713	San Lucas Tolimán	10	San Lucas Tolimán	8	Agosto	2023-04-08T00:00:00	2024-11-08T04:00:00	5	Humedad	85
139541	7	Sololá	713	San Lucas Tolimán	10	San Lucas Tolimán	8	Agosto	2023-04-08T00:00:00	2024-11-08T04:00:00	6	Velocidad del viento	1.6
139542	7	Sololá	713	San Lucas Tolimán	10	San Lucas Tolimán	8	Agosto	2023-04-08T00:00:00	2024-11-08T04:00:00	7	Dirección del viento	1.61
139543	7	Sololá	713	San Lucas Tolimán	10	San Lucas Tolimán	8	Agosto	2023-04-08T00:00:00	2024-11-08T04:00:00	1	Precipitación	0
139544	7	Sololá	713	San Lucas Tolimán	10	San Lucas Tolimán	8	Agosto	2023-04-08T00:00:00	2024-11-08T04:00:00	8	Radiación solar	0
139545	7	Sololá	713	San Lucas Tolimán	10	San Lucas Tolimán	8	Agosto	2023-04-08T00:00:00	2024-11-08T05:00:00	2	Temperatura media	17.7
139546	7	Sololá	713	San Lucas Tolimán	10	San Lucas Tolimán	8	Agosto	2023-04-08T00:00:00	2024-11-08T05:00:00	4	Temperatura máxima	18.1
139547	7	Sololá	713	San Lucas Tolimán	10	San Lucas Tolimán	8	Agosto	2023-04-08T00:00:00	2024-11-08T05:00:00	3	Temperatura mínima	17.6
139548	7	Sololá	713	San Lucas Tolimán	10	San Lucas Tolimán	8	Agosto	2023-04-08T00:00:00	2024-11-08T05:00:00	5	Humedad	87
139549	7	Sololá	713	San Lucas Tolimán	10	San Lucas Tolimán	8	Agosto	2023-04-08T00:00:00	2024-11-08T05:00:00	6	Velocidad del viento	1.6
139550	7	Sololá	713	San Lucas Tolimán	10	San Lucas Tolimán	8	Agosto	2023-04-08T00:00:00	2024-11-08T05:00:00	7	Dirección del viento	1.61
139551	7	Sololá	713	San Lucas Tolimán	10	San Lucas Tolimán	8	Agosto	2023-04-08T00:00:00	2024-11-08T05:00:00	1	Precipitación	0
139552	7	Sololá	713	San Lucas Tolimán	10	San Lucas Tolimán	8	Agosto	2023-04-08T00:00:00	2024-11-08T05:00:00	8	Radiación solar	0
139553	7	Sololá	713	San Lucas Tolimán	10	San Lucas Tolimán	8	Agosto	2023-04-08T00:00:00	2024-11-08T06:00:00	2	Temperatura media	17.3
139554	7	Sololá	713	San Lucas Tolimán	10	San Lucas Tolimán	8	Agosto	2023-04-08T00:00:00	2024-11-08T06:00:00	4	Temperatura máxima	17.7
139555	7	Sololá	713	San Lucas Tolimán	10	San Lucas Tolimán	8	Agosto	2023-04-08T00:00:00	2024-11-08T06:00:00	3	Temperatura mínima	17.3
139556	7	Sololá	713	San Lucas Tolimán	10	San Lucas Tolimán	8	Agosto	2023-04-08T00:00:00	2024-11-08T06:00:00	5	Humedad	89
139557	7	Sololá	713	San Lucas Tolimán	10	San Lucas Tolimán	8	Agosto	2023-04-08T00:00:00	2024-11-08T06:00:00	6	Velocidad del viento	0
139558	7	Sololá	713	San Lucas Tolimán	10	San Lucas Tolimán	8	Agosto	2023-04-08T00:00:00	2024-11-08T06:00:00	7	Dirección del viento	0
139559	7	Sololá	713	San Lucas Tolimán	10	San Lucas Tolimán	8	Agosto	2023-04-08T00:00:00	2024-11-08T06:00:00	1	Precipitación	0
139560	7	Sololá	713	San Lucas Tolimán	10	San Lucas Tolimán	8	Agosto	2023-04-08T00:00:00	2024-11-08T06:00:00	8	Radiación solar	1
139561	7	Sololá	713	San Lucas Tolimán	10	San Lucas Tolimán	8	Agosto	2023-04-08T00:00:00	2024-11-08T07:00:00	2	Temperatura media	18.5
139562	7	Sololá	713	San Lucas Tolimán	10	San Lucas Tolimán	8	Agosto	2023-04-08T00:00:00	2024-11-08T07:00:00	4	Temperatura máxima	18.5
139563	7	Sololá	713	San Lucas Tolimán	10	San Lucas Tolimán	8	Agosto	2023-04-08T00:00:00	2024-11-08T07:00:00	3	Temperatura mínima	17.2
139564	7	Sololá	713	San Lucas Tolimán	10	San Lucas Tolimán	8	Agosto	2023-04-08T00:00:00	2024-11-08T07:00:00	5	Humedad	87
139565	7	Sololá	713	San Lucas Tolimán	10	San Lucas Tolimán	8	Agosto	2023-04-08T00:00:00	2024-11-08T07:00:00	6	Velocidad del viento	0
139566	7	Sololá	713	San Lucas Tolimán	10	San Lucas Tolimán	8	Agosto	2023-04-08T00:00:00	2024-11-08T07:00:00	7	Dirección del viento	0
139567	7	Sololá	713	San Lucas Tolimán	10	San Lucas Tolimán	8	Agosto	2023-04-08T00:00:00	2024-11-08T07:00:00	1	Precipitación	0
139568	7	Sololá	713	San Lucas Tolimán	10	San Lucas Tolimán	8	Agosto	2023-04-08T00:00:00	2024-11-08T07:00:00	8	Radiación solar	53
139569	7	Sololá	713	San Lucas Tolimán	10	San Lucas Tolimán	8	Agosto	2023-04-08T00:00:00	2024-11-08T08:00:00	2	Temperatura media	20.9
139570	7	Sololá	713	San Lucas Tolimán	10	San Lucas Tolimán	8	Agosto	2023-04-08T00:00:00	2024-11-08T08:00:00	4	Temperatura máxima	20.9
139571	7	Sololá	713	San Lucas Tolimán	10	San Lucas Tolimán	8	Agosto	2023-04-08T00:00:00	2024-11-08T08:00:00	3	Temperatura mínima	18.5
139572	7	Sololá	713	San Lucas Tolimán	10	San Lucas Tolimán	8	Agosto	2023-04-08T00:00:00	2024-11-08T08:00:00	5	Humedad	79
139573	7	Sololá	713	San Lucas Tolimán	10	San Lucas Tolimán	8	Agosto	2023-04-08T00:00:00	2024-11-08T08:00:00	6	Velocidad del viento	1.6
139574	7	Sololá	713	San Lucas Tolimán	10	San Lucas Tolimán	8	Agosto	2023-04-08T00:00:00	2024-11-08T08:00:00	7	Dirección del viento	1.61
139575	7	Sololá	713	San Lucas Tolimán	10	San Lucas Tolimán	8	Agosto	2023-04-08T00:00:00	2024-11-08T08:00:00	1	Precipitación	0
139576	7	Sololá	713	San Lucas Tolimán	10	San Lucas Tolimán	8	Agosto	2023-04-08T00:00:00	2024-11-08T08:00:00	8	Radiación solar	200
139577	7	Sololá	713	San Lucas Tolimán	10	San Lucas Tolimán	8	Agosto	2023-04-08T00:00:00	2024-11-08T09:00:00	2	Temperatura media	21.9
139578	7	Sololá	713	San Lucas Tolimán	10	San Lucas Tolimán	8	Agosto	2023-04-08T00:00:00	2024-11-08T09:00:00	4	Temperatura máxima	21.9
139579	7	Sololá	713	San Lucas Tolimán	10	San Lucas Tolimán	8	Agosto	2023-04-08T00:00:00	2024-11-08T09:00:00	3	Temperatura mínima	20.9
139580	7	Sololá	713	San Lucas Tolimán	10	San Lucas Tolimán	8	Agosto	2023-04-08T00:00:00	2024-11-08T09:00:00	5	Humedad	74
139581	7	Sololá	713	San Lucas Tolimán	10	San Lucas Tolimán	8	Agosto	2023-04-08T00:00:00	2024-11-08T09:00:00	6	Velocidad del viento	3.2
139582	7	Sololá	713	San Lucas Tolimán	10	San Lucas Tolimán	8	Agosto	2023-04-08T00:00:00	2024-11-08T09:00:00	7	Dirección del viento	3.22
139583	7	Sololá	713	San Lucas Tolimán	10	San Lucas Tolimán	8	Agosto	2023-04-08T00:00:00	2024-11-08T09:00:00	1	Precipitación	0
139584	7	Sololá	713	San Lucas Tolimán	10	San Lucas Tolimán	8	Agosto	2023-04-08T00:00:00	2024-11-08T09:00:00	8	Radiación solar	436
139585	7	Sololá	713	San Lucas Tolimán	10	San Lucas Tolimán	8	Agosto	2023-04-08T00:00:00	2024-11-08T10:00:00	2	Temperatura media	24.7
139586	7	Sololá	713	San Lucas Tolimán	10	San Lucas Tolimán	8	Agosto	2023-04-08T00:00:00	2024-11-08T10:00:00	4	Temperatura máxima	24.7
139587	7	Sololá	713	San Lucas Tolimán	10	San Lucas Tolimán	8	Agosto	2023-04-08T00:00:00	2024-11-08T10:00:00	3	Temperatura mínima	21.9
139588	7	Sololá	713	San Lucas Tolimán	10	San Lucas Tolimán	8	Agosto	2023-04-08T00:00:00	2024-11-08T10:00:00	5	Humedad	69
139589	7	Sololá	713	San Lucas Tolimán	10	San Lucas Tolimán	8	Agosto	2023-04-08T00:00:00	2024-11-08T10:00:00	6	Velocidad del viento	4.8
139590	7	Sololá	713	San Lucas Tolimán	10	San Lucas Tolimán	8	Agosto	2023-04-08T00:00:00	2024-11-08T10:00:00	7	Dirección del viento	4.83
139591	7	Sololá	713	San Lucas Tolimán	10	San Lucas Tolimán	8	Agosto	2023-04-08T00:00:00	2024-11-08T10:00:00	1	Precipitación	0
139592	7	Sololá	713	San Lucas Tolimán	10	San Lucas Tolimán	8	Agosto	2023-04-08T00:00:00	2024-11-08T10:00:00	8	Radiación solar	528
139593	7	Sololá	713	San Lucas Tolimán	10	San Lucas Tolimán	8	Agosto	2023-04-08T00:00:00	2024-11-08T11:00:00	2	Temperatura media	24.8
139594	7	Sololá	713	San Lucas Tolimán	10	San Lucas Tolimán	8	Agosto	2023-04-08T00:00:00	2024-11-08T11:00:00	4	Temperatura máxima	25.3
139595	7	Sololá	713	San Lucas Tolimán	10	San Lucas Tolimán	8	Agosto	2023-04-08T00:00:00	2024-11-08T11:00:00	3	Temperatura mínima	24.7
139596	7	Sololá	713	San Lucas Tolimán	10	San Lucas Tolimán	8	Agosto	2023-04-08T00:00:00	2024-11-08T11:00:00	5	Humedad	70
139597	7	Sololá	713	San Lucas Tolimán	10	San Lucas Tolimán	8	Agosto	2023-04-08T00:00:00	2024-11-08T11:00:00	6	Velocidad del viento	6.4
139598	7	Sololá	713	San Lucas Tolimán	10	San Lucas Tolimán	8	Agosto	2023-04-08T00:00:00	2024-11-08T11:00:00	7	Dirección del viento	6.44
139599	7	Sololá	713	San Lucas Tolimán	10	San Lucas Tolimán	8	Agosto	2023-04-08T00:00:00	2024-11-08T11:00:00	1	Precipitación	0
139600	7	Sololá	713	San Lucas Tolimán	10	San Lucas Tolimán	8	Agosto	2023-04-08T00:00:00	2024-11-08T11:00:00	8	Radiación solar	552
139601	7	Sololá	713	San Lucas Tolimán	10	San Lucas Tolimán	8	Agosto	2023-04-08T00:00:00	2024-11-08T12:00:00	2	Temperatura media	25.9
139602	7	Sololá	713	San Lucas Tolimán	10	San Lucas Tolimán	8	Agosto	2023-04-08T00:00:00	2024-11-08T12:00:00	4	Temperatura máxima	26.8
139603	7	Sololá	713	San Lucas Tolimán	10	San Lucas Tolimán	8	Agosto	2023-04-08T00:00:00	2024-11-08T12:00:00	3	Temperatura mínima	24.8
139604	7	Sololá	713	San Lucas Tolimán	10	San Lucas Tolimán	8	Agosto	2023-04-08T00:00:00	2024-11-08T12:00:00	5	Humedad	69
139605	7	Sololá	713	San Lucas Tolimán	10	San Lucas Tolimán	8	Agosto	2023-04-08T00:00:00	2024-11-08T12:00:00	6	Velocidad del viento	6.4
139606	7	Sololá	713	San Lucas Tolimán	10	San Lucas Tolimán	8	Agosto	2023-04-08T00:00:00	2024-11-08T12:00:00	7	Dirección del viento	6.44
139607	7	Sololá	713	San Lucas Tolimán	10	San Lucas Tolimán	8	Agosto	2023-04-08T00:00:00	2024-11-08T12:00:00	1	Precipitación	0
139608	7	Sololá	713	San Lucas Tolimán	10	San Lucas Tolimán	8	Agosto	2023-04-08T00:00:00	2024-11-08T12:00:00	8	Radiación solar	768
139609	7	Sololá	713	San Lucas Tolimán	10	San Lucas Tolimán	8	Agosto	2023-04-08T00:00:00	2024-11-08T13:00:00	2	Temperatura media	26.2
139610	7	Sololá	713	San Lucas Tolimán	10	San Lucas Tolimán	8	Agosto	2023-04-08T00:00:00	2024-11-08T13:00:00	4	Temperatura máxima	26.2
139611	7	Sololá	713	San Lucas Tolimán	10	San Lucas Tolimán	8	Agosto	2023-04-08T00:00:00	2024-11-08T13:00:00	3	Temperatura mínima	23.8
139612	7	Sololá	713	San Lucas Tolimán	10	San Lucas Tolimán	8	Agosto	2023-04-08T00:00:00	2024-11-08T13:00:00	5	Humedad	70
139613	7	Sololá	713	San Lucas Tolimán	10	San Lucas Tolimán	8	Agosto	2023-04-08T00:00:00	2024-11-08T13:00:00	6	Velocidad del viento	9.7
139614	7	Sololá	713	San Lucas Tolimán	10	San Lucas Tolimán	8	Agosto	2023-04-08T00:00:00	2024-11-08T13:00:00	7	Dirección del viento	9.66
139615	7	Sololá	713	San Lucas Tolimán	10	San Lucas Tolimán	8	Agosto	2023-04-08T00:00:00	2024-11-08T13:00:00	1	Precipitación	0
139616	7	Sololá	713	San Lucas Tolimán	10	San Lucas Tolimán	8	Agosto	2023-04-08T00:00:00	2024-11-08T13:00:00	8	Radiación solar	872
139617	7	Sololá	713	San Lucas Tolimán	10	San Lucas Tolimán	8	Agosto	2023-04-08T00:00:00	2024-11-08T14:00:00	2	Temperatura media	26.2
139618	7	Sololá	713	San Lucas Tolimán	10	San Lucas Tolimán	8	Agosto	2023-04-08T00:00:00	2024-11-08T14:00:00	4	Temperatura máxima	26.3
139619	7	Sololá	713	San Lucas Tolimán	10	San Lucas Tolimán	8	Agosto	2023-04-08T00:00:00	2024-11-08T14:00:00	3	Temperatura mínima	25.9
139620	7	Sololá	713	San Lucas Tolimán	10	San Lucas Tolimán	8	Agosto	2023-04-08T00:00:00	2024-11-08T14:00:00	5	Humedad	73
139621	7	Sololá	713	San Lucas Tolimán	10	San Lucas Tolimán	8	Agosto	2023-04-08T00:00:00	2024-11-08T14:00:00	6	Velocidad del viento	11.3
139622	7	Sololá	713	San Lucas Tolimán	10	San Lucas Tolimán	8	Agosto	2023-04-08T00:00:00	2024-11-08T14:00:00	7	Dirección del viento	11.27
139623	7	Sololá	713	San Lucas Tolimán	10	San Lucas Tolimán	8	Agosto	2023-04-08T00:00:00	2024-11-08T14:00:00	1	Precipitación	0
139624	7	Sololá	713	San Lucas Tolimán	10	San Lucas Tolimán	8	Agosto	2023-04-08T00:00:00	2024-11-08T14:00:00	8	Radiación solar	707
139625	7	Sololá	713	San Lucas Tolimán	10	San Lucas Tolimán	8	Agosto	2023-04-08T00:00:00	2024-11-08T15:00:00	2	Temperatura media	25.9
139626	7	Sololá	713	San Lucas Tolimán	10	San Lucas Tolimán	8	Agosto	2023-04-08T00:00:00	2024-11-08T15:00:00	4	Temperatura máxima	26.4
139627	7	Sololá	713	San Lucas Tolimán	10	San Lucas Tolimán	8	Agosto	2023-04-08T00:00:00	2024-11-08T15:00:00	3	Temperatura mínima	25.6
139628	7	Sololá	713	San Lucas Tolimán	10	San Lucas Tolimán	8	Agosto	2023-04-08T00:00:00	2024-11-08T15:00:00	5	Humedad	76
139629	7	Sololá	713	San Lucas Tolimán	10	San Lucas Tolimán	8	Agosto	2023-04-08T00:00:00	2024-11-08T15:00:00	6	Velocidad del viento	9.7
139630	7	Sololá	713	San Lucas Tolimán	10	San Lucas Tolimán	8	Agosto	2023-04-08T00:00:00	2024-11-08T15:00:00	7	Dirección del viento	9.66
139631	7	Sololá	713	San Lucas Tolimán	10	San Lucas Tolimán	8	Agosto	2023-04-08T00:00:00	2024-11-08T15:00:00	1	Precipitación	0
139632	7	Sololá	713	San Lucas Tolimán	10	San Lucas Tolimán	8	Agosto	2023-04-08T00:00:00	2024-11-08T15:00:00	8	Radiación solar	341
139633	7	Sololá	713	San Lucas Tolimán	10	San Lucas Tolimán	8	Agosto	2023-04-08T00:00:00	2024-11-08T16:00:00	2	Temperatura media	24.1
139634	7	Sololá	713	San Lucas Tolimán	10	San Lucas Tolimán	8	Agosto	2023-04-08T00:00:00	2024-11-08T16:00:00	4	Temperatura máxima	26
139635	7	Sololá	713	San Lucas Tolimán	10	San Lucas Tolimán	8	Agosto	2023-04-08T00:00:00	2024-11-08T16:00:00	3	Temperatura mínima	24
139636	7	Sololá	713	San Lucas Tolimán	10	San Lucas Tolimán	8	Agosto	2023-04-08T00:00:00	2024-11-08T16:00:00	5	Humedad	82
139637	7	Sololá	713	San Lucas Tolimán	10	San Lucas Tolimán	8	Agosto	2023-04-08T00:00:00	2024-11-08T16:00:00	6	Velocidad del viento	11.3
139638	7	Sololá	713	San Lucas Tolimán	10	San Lucas Tolimán	8	Agosto	2023-04-08T00:00:00	2024-11-08T16:00:00	7	Dirección del viento	11.27
139639	7	Sololá	713	San Lucas Tolimán	10	San Lucas Tolimán	8	Agosto	2023-04-08T00:00:00	2024-11-08T16:00:00	1	Precipitación	0
139640	7	Sololá	713	San Lucas Tolimán	10	San Lucas Tolimán	8	Agosto	2023-04-08T00:00:00	2024-11-08T16:00:00	8	Radiación solar	177
139641	7	Sololá	713	San Lucas Tolimán	10	San Lucas Tolimán	8	Agosto	2023-04-08T00:00:00	2024-11-08T17:00:00	2	Temperatura media	19.1
139642	7	Sololá	713	San Lucas Tolimán	10	San Lucas Tolimán	8	Agosto	2023-04-08T00:00:00	2024-11-08T17:00:00	4	Temperatura máxima	24.9
139643	7	Sololá	713	San Lucas Tolimán	10	San Lucas Tolimán	8	Agosto	2023-04-08T00:00:00	2024-11-08T17:00:00	3	Temperatura mínima	19.1
139644	7	Sololá	713	San Lucas Tolimán	10	San Lucas Tolimán	8	Agosto	2023-04-08T00:00:00	2024-11-08T17:00:00	5	Humedad	85
139645	7	Sololá	713	San Lucas Tolimán	10	San Lucas Tolimán	8	Agosto	2023-04-08T00:00:00	2024-11-08T17:00:00	6	Velocidad del viento	12.9
139646	7	Sololá	713	San Lucas Tolimán	10	San Lucas Tolimán	8	Agosto	2023-04-08T00:00:00	2024-11-08T17:00:00	7	Dirección del viento	12.87
139647	7	Sololá	713	San Lucas Tolimán	10	San Lucas Tolimán	8	Agosto	2023-04-08T00:00:00	2024-11-08T17:00:00	1	Precipitación	3
139648	7	Sololá	713	San Lucas Tolimán	10	San Lucas Tolimán	8	Agosto	2023-04-08T00:00:00	2024-11-08T17:00:00	8	Radiación solar	92
139649	7	Sololá	713	San Lucas Tolimán	10	San Lucas Tolimán	8	Agosto	2023-04-08T00:00:00	2024-11-08T18:00:00	2	Temperatura media	17.9
139650	7	Sololá	713	San Lucas Tolimán	10	San Lucas Tolimán	8	Agosto	2023-04-08T00:00:00	2024-11-08T18:00:00	4	Temperatura máxima	19.1
139651	7	Sololá	713	San Lucas Tolimán	10	San Lucas Tolimán	8	Agosto	2023-04-08T00:00:00	2024-11-08T18:00:00	3	Temperatura mínima	17.7
139652	7	Sololá	713	San Lucas Tolimán	10	San Lucas Tolimán	8	Agosto	2023-04-08T00:00:00	2024-11-08T18:00:00	5	Humedad	87
139653	7	Sololá	713	San Lucas Tolimán	10	San Lucas Tolimán	8	Agosto	2023-04-08T00:00:00	2024-11-08T18:00:00	6	Velocidad del viento	11.3
139654	7	Sololá	713	San Lucas Tolimán	10	San Lucas Tolimán	8	Agosto	2023-04-08T00:00:00	2024-11-08T18:00:00	7	Dirección del viento	11.27
139655	7	Sololá	713	San Lucas Tolimán	10	San Lucas Tolimán	8	Agosto	2023-04-08T00:00:00	2024-11-08T18:00:00	1	Precipitación	0.2
139656	7	Sololá	713	San Lucas Tolimán	10	San Lucas Tolimán	8	Agosto	2023-04-08T00:00:00	2024-11-08T18:00:00	8	Radiación solar	105
139657	7	Sololá	713	San Lucas Tolimán	10	San Lucas Tolimán	8	Agosto	2023-04-08T00:00:00	2024-11-08T19:00:00	2	Temperatura media	18.5
139658	7	Sololá	713	San Lucas Tolimán	10	San Lucas Tolimán	8	Agosto	2023-04-08T00:00:00	2024-11-08T19:00:00	4	Temperatura máxima	18.6
139659	7	Sololá	713	San Lucas Tolimán	10	San Lucas Tolimán	8	Agosto	2023-04-08T00:00:00	2024-11-08T19:00:00	3	Temperatura mínima	17.8
139660	7	Sololá	713	San Lucas Tolimán	10	San Lucas Tolimán	8	Agosto	2023-04-08T00:00:00	2024-11-08T19:00:00	5	Humedad	88
139661	7	Sololá	713	San Lucas Tolimán	10	San Lucas Tolimán	8	Agosto	2023-04-08T00:00:00	2024-11-08T19:00:00	6	Velocidad del viento	4.8
139662	7	Sololá	713	San Lucas Tolimán	10	San Lucas Tolimán	8	Agosto	2023-04-08T00:00:00	2024-11-08T19:00:00	7	Dirección del viento	4.83
139663	7	Sololá	713	San Lucas Tolimán	10	San Lucas Tolimán	8	Agosto	2023-04-08T00:00:00	2024-11-08T19:00:00	1	Precipitación	0
139664	7	Sololá	713	San Lucas Tolimán	10	San Lucas Tolimán	8	Agosto	2023-04-08T00:00:00	2024-11-08T19:00:00	8	Radiación solar	0
139665	7	Sololá	713	San Lucas Tolimán	10	San Lucas Tolimán	8	Agosto	2023-04-08T00:00:00	2024-11-08T20:00:00	2	Temperatura media	18.6
139666	7	Sololá	713	San Lucas Tolimán	10	San Lucas Tolimán	8	Agosto	2023-04-08T00:00:00	2024-11-08T20:00:00	4	Temperatura máxima	19.1
139667	7	Sololá	713	San Lucas Tolimán	10	San Lucas Tolimán	8	Agosto	2023-04-08T00:00:00	2024-11-08T20:00:00	3	Temperatura mínima	18.4
139668	7	Sololá	713	San Lucas Tolimán	10	San Lucas Tolimán	8	Agosto	2023-04-08T00:00:00	2024-11-08T20:00:00	5	Humedad	88
139669	7	Sololá	713	San Lucas Tolimán	10	San Lucas Tolimán	8	Agosto	2023-04-08T00:00:00	2024-11-08T20:00:00	6	Velocidad del viento	4.8
139670	7	Sololá	713	San Lucas Tolimán	10	San Lucas Tolimán	8	Agosto	2023-04-08T00:00:00	2024-11-08T20:00:00	7	Dirección del viento	4.83
139671	7	Sololá	713	San Lucas Tolimán	10	San Lucas Tolimán	8	Agosto	2023-04-08T00:00:00	2024-11-08T20:00:00	1	Precipitación	0
139672	7	Sololá	713	San Lucas Tolimán	10	San Lucas Tolimán	8	Agosto	2023-04-08T00:00:00	2024-11-08T20:00:00	8	Radiación solar	0
139673	7	Sololá	713	San Lucas Tolimán	10	San Lucas Tolimán	8	Agosto	2023-04-08T00:00:00	2024-11-08T21:00:00	2	Temperatura media	18
139674	7	Sololá	713	San Lucas Tolimán	10	San Lucas Tolimán	8	Agosto	2023-04-08T00:00:00	2024-11-08T21:00:00	4	Temperatura máxima	18.6
139675	7	Sololá	713	San Lucas Tolimán	10	San Lucas Tolimán	8	Agosto	2023-04-08T00:00:00	2024-11-08T21:00:00	3	Temperatura mínima	18
139676	7	Sololá	713	San Lucas Tolimán	10	San Lucas Tolimán	8	Agosto	2023-04-08T00:00:00	2024-11-08T21:00:00	5	Humedad	91
139677	7	Sololá	713	San Lucas Tolimán	10	San Lucas Tolimán	8	Agosto	2023-04-08T00:00:00	2024-11-08T21:00:00	6	Velocidad del viento	1.6
139678	7	Sololá	713	San Lucas Tolimán	10	San Lucas Tolimán	8	Agosto	2023-04-08T00:00:00	2024-11-08T21:00:00	7	Dirección del viento	1.61
139679	7	Sololá	713	San Lucas Tolimán	10	San Lucas Tolimán	8	Agosto	2023-04-08T00:00:00	2024-11-08T21:00:00	1	Precipitación	0
139680	7	Sololá	713	San Lucas Tolimán	10	San Lucas Tolimán	8	Agosto	2023-04-08T00:00:00	2024-11-08T21:00:00	8	Radiación solar	0
139681	7	Sololá	713	San Lucas Tolimán	10	San Lucas Tolimán	8	Agosto	2023-04-08T00:00:00	2024-11-08T22:00:00	2	Temperatura media	17.8
139682	7	Sololá	713	San Lucas Tolimán	10	San Lucas Tolimán	8	Agosto	2023-04-08T00:00:00	2024-11-08T22:00:00	4	Temperatura máxima	18
139683	7	Sololá	713	San Lucas Tolimán	10	San Lucas Tolimán	8	Agosto	2023-04-08T00:00:00	2024-11-08T22:00:00	3	Temperatura mínima	17.7
139684	7	Sololá	713	San Lucas Tolimán	10	San Lucas Tolimán	8	Agosto	2023-04-08T00:00:00	2024-11-08T22:00:00	5	Humedad	92
139685	7	Sololá	713	San Lucas Tolimán	10	San Lucas Tolimán	8	Agosto	2023-04-08T00:00:00	2024-11-08T22:00:00	6	Velocidad del viento	0
139686	7	Sololá	713	San Lucas Tolimán	10	San Lucas Tolimán	8	Agosto	2023-04-08T00:00:00	2024-11-08T22:00:00	7	Dirección del viento	0
139687	7	Sololá	713	San Lucas Tolimán	10	San Lucas Tolimán	8	Agosto	2023-04-08T00:00:00	2024-11-08T22:00:00	1	Precipitación	0
139688	7	Sololá	713	San Lucas Tolimán	10	San Lucas Tolimán	8	Agosto	2023-04-08T00:00:00	2024-11-08T22:00:00	8	Radiación solar	0
139689	7	Sololá	713	San Lucas Tolimán	10	San Lucas Tolimán	8	Agosto	2023-04-08T00:00:00	2024-11-08T23:00:00	2	Temperatura media	17.5
139690	7	Sololá	713	San Lucas Tolimán	10	San Lucas Tolimán	8	Agosto	2023-04-08T00:00:00	2024-11-08T23:00:00	4	Temperatura máxima	17.8
139691	7	Sololá	713	San Lucas Tolimán	10	San Lucas Tolimán	8	Agosto	2023-04-08T00:00:00	2024-11-08T23:00:00	3	Temperatura mínima	17.4
139692	7	Sololá	713	San Lucas Tolimán	10	San Lucas Tolimán	8	Agosto	2023-04-08T00:00:00	2024-11-08T23:00:00	5	Humedad	92
139693	7	Sololá	713	San Lucas Tolimán	10	San Lucas Tolimán	8	Agosto	2023-04-08T00:00:00	2024-11-08T23:00:00	6	Velocidad del viento	1.6
139694	7	Sololá	713	San Lucas Tolimán	10	San Lucas Tolimán	8	Agosto	2023-04-08T00:00:00	2024-11-08T23:00:00	7	Dirección del viento	1.61
139695	7	Sololá	713	San Lucas Tolimán	10	San Lucas Tolimán	8	Agosto	2023-04-08T00:00:00	2024-11-08T23:00:00	1	Precipitación	0
139696	7	Sololá	713	San Lucas Tolimán	10	San Lucas Tolimán	8	Agosto	2023-04-08T00:00:00	2024-11-08T23:00:00	8	Radiación solar	0
139697	7	Sololá	713	San Lucas Tolimán	10	San Lucas Tolimán	8	Agosto	2023-05-08T00:00:00	2024-11-08T00:00:00	2	Temperatura media	17.7
139698	7	Sololá	713	San Lucas Tolimán	10	San Lucas Tolimán	8	Agosto	2023-05-08T00:00:00	2024-11-08T00:00:00	4	Temperatura máxima	17.7
139699	7	Sololá	713	San Lucas Tolimán	10	San Lucas Tolimán	8	Agosto	2023-05-08T00:00:00	2024-11-08T00:00:00	3	Temperatura mínima	17.5
139700	7	Sololá	713	San Lucas Tolimán	10	San Lucas Tolimán	8	Agosto	2023-05-08T00:00:00	2024-11-08T00:00:00	5	Humedad	92
139701	7	Sololá	713	San Lucas Tolimán	10	San Lucas Tolimán	8	Agosto	2023-05-08T00:00:00	2024-11-08T00:00:00	6	Velocidad del viento	0
139702	7	Sololá	713	San Lucas Tolimán	10	San Lucas Tolimán	8	Agosto	2023-05-08T00:00:00	2024-11-08T00:00:00	7	Dirección del viento	0
139703	7	Sololá	713	San Lucas Tolimán	10	San Lucas Tolimán	8	Agosto	2023-05-08T00:00:00	2024-11-08T00:00:00	1	Precipitación	0
139704	7	Sololá	713	San Lucas Tolimán	10	San Lucas Tolimán	8	Agosto	2023-05-08T00:00:00	2024-11-08T00:00:00	8	Radiación solar	0
139705	7	Sololá	713	San Lucas Tolimán	10	San Lucas Tolimán	8	Agosto	2023-05-08T00:00:00	2024-11-08T01:00:00	2	Temperatura media	16.9
139706	7	Sololá	713	San Lucas Tolimán	10	San Lucas Tolimán	8	Agosto	2023-05-08T00:00:00	2024-11-08T01:00:00	4	Temperatura máxima	17.6
139707	7	Sololá	713	San Lucas Tolimán	10	San Lucas Tolimán	8	Agosto	2023-05-08T00:00:00	2024-11-08T01:00:00	3	Temperatura mínima	16.9
139708	7	Sololá	713	San Lucas Tolimán	10	San Lucas Tolimán	8	Agosto	2023-05-08T00:00:00	2024-11-08T01:00:00	5	Humedad	93
139709	7	Sololá	713	San Lucas Tolimán	10	San Lucas Tolimán	8	Agosto	2023-05-08T00:00:00	2024-11-08T01:00:00	6	Velocidad del viento	1.6
139710	7	Sololá	713	San Lucas Tolimán	10	San Lucas Tolimán	8	Agosto	2023-05-08T00:00:00	2024-11-08T01:00:00	7	Dirección del viento	1.61
139711	7	Sololá	713	San Lucas Tolimán	10	San Lucas Tolimán	8	Agosto	2023-05-08T00:00:00	2024-11-08T01:00:00	1	Precipitación	0
139712	7	Sololá	713	San Lucas Tolimán	10	San Lucas Tolimán	8	Agosto	2023-05-08T00:00:00	2024-11-08T01:00:00	8	Radiación solar	0
139713	7	Sololá	713	San Lucas Tolimán	10	San Lucas Tolimán	8	Agosto	2023-05-08T00:00:00	2024-11-08T02:00:00	2	Temperatura media	17
139714	7	Sololá	713	San Lucas Tolimán	10	San Lucas Tolimán	8	Agosto	2023-05-08T00:00:00	2024-11-08T02:00:00	4	Temperatura máxima	17.1
139715	7	Sololá	713	San Lucas Tolimán	10	San Lucas Tolimán	8	Agosto	2023-05-08T00:00:00	2024-11-08T02:00:00	3	Temperatura mínima	16.9
139716	7	Sololá	713	San Lucas Tolimán	10	San Lucas Tolimán	8	Agosto	2023-05-08T00:00:00	2024-11-08T02:00:00	5	Humedad	91
139717	7	Sololá	713	San Lucas Tolimán	10	San Lucas Tolimán	8	Agosto	2023-05-08T00:00:00	2024-11-08T02:00:00	6	Velocidad del viento	1.6
139718	7	Sololá	713	San Lucas Tolimán	10	San Lucas Tolimán	8	Agosto	2023-05-08T00:00:00	2024-11-08T02:00:00	7	Dirección del viento	1.61
139719	7	Sololá	713	San Lucas Tolimán	10	San Lucas Tolimán	8	Agosto	2023-05-08T00:00:00	2024-11-08T02:00:00	1	Precipitación	0
139720	7	Sololá	713	San Lucas Tolimán	10	San Lucas Tolimán	8	Agosto	2023-05-08T00:00:00	2024-11-08T02:00:00	8	Radiación solar	0
139721	7	Sololá	713	San Lucas Tolimán	10	San Lucas Tolimán	8	Agosto	2023-05-08T00:00:00	2024-11-08T03:00:00	2	Temperatura media	17.3
139722	7	Sololá	713	San Lucas Tolimán	10	San Lucas Tolimán	8	Agosto	2023-05-08T00:00:00	2024-11-08T03:00:00	4	Temperatura máxima	17.4
139723	7	Sololá	713	San Lucas Tolimán	10	San Lucas Tolimán	8	Agosto	2023-05-08T00:00:00	2024-11-08T03:00:00	3	Temperatura mínima	16.9
139724	7	Sololá	713	San Lucas Tolimán	10	San Lucas Tolimán	8	Agosto	2023-05-08T00:00:00	2024-11-08T03:00:00	5	Humedad	90
139725	7	Sololá	713	San Lucas Tolimán	10	San Lucas Tolimán	8	Agosto	2023-05-08T00:00:00	2024-11-08T03:00:00	6	Velocidad del viento	1.6
139726	7	Sololá	713	San Lucas Tolimán	10	San Lucas Tolimán	8	Agosto	2023-05-08T00:00:00	2024-11-08T03:00:00	7	Dirección del viento	1.61
139727	7	Sololá	713	San Lucas Tolimán	10	San Lucas Tolimán	8	Agosto	2023-05-08T00:00:00	2024-11-08T03:00:00	1	Precipitación	0
139728	7	Sololá	713	San Lucas Tolimán	10	San Lucas Tolimán	8	Agosto	2023-05-08T00:00:00	2024-11-08T03:00:00	8	Radiación solar	0
139729	7	Sololá	713	San Lucas Tolimán	10	San Lucas Tolimán	8	Agosto	2023-05-08T00:00:00	2024-11-08T04:00:00	2	Temperatura media	16.8
139730	7	Sololá	713	San Lucas Tolimán	10	San Lucas Tolimán	8	Agosto	2023-05-08T00:00:00	2024-11-08T04:00:00	4	Temperatura máxima	17.3
139731	7	Sololá	713	San Lucas Tolimán	10	San Lucas Tolimán	8	Agosto	2023-05-08T00:00:00	2024-11-08T04:00:00	3	Temperatura mínima	16.7
139732	7	Sololá	713	San Lucas Tolimán	10	San Lucas Tolimán	8	Agosto	2023-05-08T00:00:00	2024-11-08T04:00:00	5	Humedad	91
139733	7	Sololá	713	San Lucas Tolimán	10	San Lucas Tolimán	8	Agosto	2023-05-08T00:00:00	2024-11-08T04:00:00	6	Velocidad del viento	0
139734	7	Sololá	713	San Lucas Tolimán	10	San Lucas Tolimán	8	Agosto	2023-05-08T00:00:00	2024-11-08T04:00:00	7	Dirección del viento	0
139735	7	Sololá	713	San Lucas Tolimán	10	San Lucas Tolimán	8	Agosto	2023-05-08T00:00:00	2024-11-08T04:00:00	1	Precipitación	0
139736	7	Sololá	713	San Lucas Tolimán	10	San Lucas Tolimán	8	Agosto	2023-05-08T00:00:00	2024-11-08T04:00:00	8	Radiación solar	0
139737	7	Sololá	713	San Lucas Tolimán	10	San Lucas Tolimán	8	Agosto	2023-05-08T00:00:00	2024-11-08T05:00:00	2	Temperatura media	16
139738	7	Sololá	713	San Lucas Tolimán	10	San Lucas Tolimán	8	Agosto	2023-05-08T00:00:00	2024-11-08T05:00:00	4	Temperatura máxima	16.8
139739	7	Sololá	713	San Lucas Tolimán	10	San Lucas Tolimán	8	Agosto	2023-05-08T00:00:00	2024-11-08T05:00:00	3	Temperatura mínima	16
139740	7	Sololá	713	San Lucas Tolimán	10	San Lucas Tolimán	8	Agosto	2023-05-08T00:00:00	2024-11-08T05:00:00	5	Humedad	92
139741	7	Sololá	713	San Lucas Tolimán	10	San Lucas Tolimán	8	Agosto	2023-05-08T00:00:00	2024-11-08T05:00:00	6	Velocidad del viento	1.6
139742	7	Sololá	713	San Lucas Tolimán	10	San Lucas Tolimán	8	Agosto	2023-05-08T00:00:00	2024-11-08T05:00:00	7	Dirección del viento	1.61
139743	7	Sololá	713	San Lucas Tolimán	10	San Lucas Tolimán	8	Agosto	2023-05-08T00:00:00	2024-11-08T05:00:00	1	Precipitación	0
139744	7	Sololá	713	San Lucas Tolimán	10	San Lucas Tolimán	8	Agosto	2023-05-08T00:00:00	2024-11-08T05:00:00	8	Radiación solar	0
139745	7	Sololá	713	San Lucas Tolimán	10	San Lucas Tolimán	8	Agosto	2023-05-08T00:00:00	2024-11-08T06:00:00	2	Temperatura media	16.1
139746	7	Sololá	713	San Lucas Tolimán	10	San Lucas Tolimán	8	Agosto	2023-05-08T00:00:00	2024-11-08T06:00:00	4	Temperatura máxima	16.2
139747	7	Sololá	713	San Lucas Tolimán	10	San Lucas Tolimán	8	Agosto	2023-05-08T00:00:00	2024-11-08T06:00:00	3	Temperatura mínima	15.8
139748	7	Sololá	713	San Lucas Tolimán	10	San Lucas Tolimán	8	Agosto	2023-05-08T00:00:00	2024-11-08T06:00:00	5	Humedad	92
139749	7	Sololá	713	San Lucas Tolimán	10	San Lucas Tolimán	8	Agosto	2023-05-08T00:00:00	2024-11-08T06:00:00	6	Velocidad del viento	1.6
139750	7	Sololá	713	San Lucas Tolimán	10	San Lucas Tolimán	8	Agosto	2023-05-08T00:00:00	2024-11-08T06:00:00	7	Dirección del viento	1.61
139751	7	Sololá	713	San Lucas Tolimán	10	San Lucas Tolimán	8	Agosto	2023-05-08T00:00:00	2024-11-08T06:00:00	1	Precipitación	0
139752	7	Sololá	713	San Lucas Tolimán	10	San Lucas Tolimán	8	Agosto	2023-05-08T00:00:00	2024-11-08T06:00:00	8	Radiación solar	50
139753	7	Sololá	713	San Lucas Tolimán	10	San Lucas Tolimán	8	Agosto	2023-05-08T00:00:00	2024-11-08T07:00:00	2	Temperatura media	19.2
139754	7	Sololá	713	San Lucas Tolimán	10	San Lucas Tolimán	8	Agosto	2023-05-08T00:00:00	2024-11-08T07:00:00	4	Temperatura máxima	19.3
139755	7	Sololá	713	San Lucas Tolimán	10	San Lucas Tolimán	8	Agosto	2023-05-08T00:00:00	2024-11-08T07:00:00	3	Temperatura mínima	16.1
139756	7	Sololá	713	San Lucas Tolimán	10	San Lucas Tolimán	8	Agosto	2023-05-08T00:00:00	2024-11-08T07:00:00	5	Humedad	59
139757	7	Sololá	713	San Lucas Tolimán	10	San Lucas Tolimán	8	Agosto	2023-05-08T00:00:00	2024-11-08T07:00:00	6	Velocidad del viento	1.6
139758	7	Sololá	713	San Lucas Tolimán	10	San Lucas Tolimán	8	Agosto	2023-05-08T00:00:00	2024-11-08T07:00:00	7	Dirección del viento	1.61
139759	7	Sololá	713	San Lucas Tolimán	10	San Lucas Tolimán	8	Agosto	2023-05-08T00:00:00	2024-11-08T07:00:00	1	Precipitación	0
139760	7	Sololá	713	San Lucas Tolimán	10	San Lucas Tolimán	8	Agosto	2023-05-08T00:00:00	2024-11-08T07:00:00	8	Radiación solar	76
139761	7	Sololá	713	San Lucas Tolimán	10	San Lucas Tolimán	8	Agosto	2023-05-08T00:00:00	2024-11-08T08:00:00	2	Temperatura media	22.2
139762	7	Sololá	713	San Lucas Tolimán	10	San Lucas Tolimán	8	Agosto	2023-05-08T00:00:00	2024-11-08T08:00:00	4	Temperatura máxima	22.2
139763	7	Sololá	713	San Lucas Tolimán	10	San Lucas Tolimán	8	Agosto	2023-05-08T00:00:00	2024-11-08T08:00:00	3	Temperatura mínima	19.3
139764	7	Sololá	713	San Lucas Tolimán	10	San Lucas Tolimán	8	Agosto	2023-05-08T00:00:00	2024-11-08T08:00:00	5	Humedad	56
139765	7	Sololá	713	San Lucas Tolimán	10	San Lucas Tolimán	8	Agosto	2023-05-08T00:00:00	2024-11-08T08:00:00	6	Velocidad del viento	4.8
139766	7	Sololá	713	San Lucas Tolimán	10	San Lucas Tolimán	8	Agosto	2023-05-08T00:00:00	2024-11-08T08:00:00	7	Dirección del viento	4.83
139767	7	Sololá	713	San Lucas Tolimán	10	San Lucas Tolimán	8	Agosto	2023-05-08T00:00:00	2024-11-08T08:00:00	1	Precipitación	0
139768	7	Sololá	713	San Lucas Tolimán	10	San Lucas Tolimán	8	Agosto	2023-05-08T00:00:00	2024-11-08T08:00:00	8	Radiación solar	329
139769	7	Sololá	713	San Lucas Tolimán	10	San Lucas Tolimán	8	Agosto	2023-05-08T00:00:00	2024-11-08T09:00:00	2	Temperatura media	23.7
139770	7	Sololá	713	San Lucas Tolimán	10	San Lucas Tolimán	8	Agosto	2023-05-08T00:00:00	2024-11-08T09:00:00	4	Temperatura máxima	23.7
139771	7	Sololá	713	San Lucas Tolimán	10	San Lucas Tolimán	8	Agosto	2023-05-08T00:00:00	2024-11-08T09:00:00	3	Temperatura mínima	22.1
139772	7	Sololá	713	San Lucas Tolimán	10	San Lucas Tolimán	8	Agosto	2023-05-08T00:00:00	2024-11-08T09:00:00	5	Humedad	50
139773	7	Sololá	713	San Lucas Tolimán	10	San Lucas Tolimán	8	Agosto	2023-05-08T00:00:00	2024-11-08T09:00:00	6	Velocidad del viento	4.8
139774	7	Sololá	713	San Lucas Tolimán	10	San Lucas Tolimán	8	Agosto	2023-05-08T00:00:00	2024-11-08T09:00:00	7	Dirección del viento	4.83
139775	7	Sololá	713	San Lucas Tolimán	10	San Lucas Tolimán	8	Agosto	2023-05-08T00:00:00	2024-11-08T09:00:00	1	Precipitación	0
139776	7	Sololá	713	San Lucas Tolimán	10	San Lucas Tolimán	8	Agosto	2023-05-08T00:00:00	2024-11-08T09:00:00	8	Radiación solar	557
139777	7	Sololá	713	San Lucas Tolimán	10	San Lucas Tolimán	8	Agosto	2023-05-08T00:00:00	2024-11-08T10:00:00	2	Temperatura media	25.8
139778	7	Sololá	713	San Lucas Tolimán	10	San Lucas Tolimán	8	Agosto	2023-05-08T00:00:00	2024-11-08T10:00:00	4	Temperatura máxima	25.8
139779	7	Sololá	713	San Lucas Tolimán	10	San Lucas Tolimán	8	Agosto	2023-05-08T00:00:00	2024-11-08T10:00:00	3	Temperatura mínima	23.7
139780	7	Sololá	713	San Lucas Tolimán	10	San Lucas Tolimán	8	Agosto	2023-05-08T00:00:00	2024-11-08T10:00:00	5	Humedad	43
139781	7	Sololá	713	San Lucas Tolimán	10	San Lucas Tolimán	8	Agosto	2023-05-08T00:00:00	2024-11-08T10:00:00	6	Velocidad del viento	3.2
139782	7	Sololá	713	San Lucas Tolimán	10	San Lucas Tolimán	8	Agosto	2023-05-08T00:00:00	2024-11-08T10:00:00	7	Dirección del viento	3.22
139783	7	Sololá	713	San Lucas Tolimán	10	San Lucas Tolimán	8	Agosto	2023-05-08T00:00:00	2024-11-08T10:00:00	1	Precipitación	0
139784	7	Sololá	713	San Lucas Tolimán	10	San Lucas Tolimán	8	Agosto	2023-05-08T00:00:00	2024-11-08T10:00:00	8	Radiación solar	729
139785	7	Sololá	713	San Lucas Tolimán	10	San Lucas Tolimán	8	Agosto	2023-05-08T00:00:00	2024-11-08T11:00:00	2	Temperatura media	25
139786	7	Sololá	713	San Lucas Tolimán	10	San Lucas Tolimán	8	Agosto	2023-05-08T00:00:00	2024-11-08T11:00:00	4	Temperatura máxima	26.6
139787	7	Sololá	713	San Lucas Tolimán	10	San Lucas Tolimán	8	Agosto	2023-05-08T00:00:00	2024-11-08T11:00:00	3	Temperatura mínima	25
139788	7	Sololá	713	San Lucas Tolimán	10	San Lucas Tolimán	8	Agosto	2023-05-08T00:00:00	2024-11-08T11:00:00	5	Humedad	57
139789	7	Sololá	713	San Lucas Tolimán	10	San Lucas Tolimán	8	Agosto	2023-05-08T00:00:00	2024-11-08T11:00:00	6	Velocidad del viento	6.4
139790	7	Sololá	713	San Lucas Tolimán	10	San Lucas Tolimán	8	Agosto	2023-05-08T00:00:00	2024-11-08T11:00:00	7	Dirección del viento	6.44
139791	7	Sololá	713	San Lucas Tolimán	10	San Lucas Tolimán	8	Agosto	2023-05-08T00:00:00	2024-11-08T11:00:00	1	Precipitación	0
139792	7	Sololá	713	San Lucas Tolimán	10	San Lucas Tolimán	8	Agosto	2023-05-08T00:00:00	2024-11-08T11:00:00	8	Radiación solar	1010
139793	7	Sololá	713	San Lucas Tolimán	10	San Lucas Tolimán	8	Agosto	2023-05-08T00:00:00	2024-11-08T12:00:00	2	Temperatura media	24.8
139794	7	Sololá	713	San Lucas Tolimán	10	San Lucas Tolimán	8	Agosto	2023-05-08T00:00:00	2024-11-08T12:00:00	4	Temperatura máxima	25.1
139795	7	Sololá	713	San Lucas Tolimán	10	San Lucas Tolimán	8	Agosto	2023-05-08T00:00:00	2024-11-08T12:00:00	3	Temperatura mínima	24.3
139796	7	Sololá	713	San Lucas Tolimán	10	San Lucas Tolimán	8	Agosto	2023-05-08T00:00:00	2024-11-08T12:00:00	5	Humedad	59
139797	7	Sololá	713	San Lucas Tolimán	10	San Lucas Tolimán	8	Agosto	2023-05-08T00:00:00	2024-11-08T12:00:00	6	Velocidad del viento	11.3
139798	7	Sololá	713	San Lucas Tolimán	10	San Lucas Tolimán	8	Agosto	2023-05-08T00:00:00	2024-11-08T12:00:00	7	Dirección del viento	11.27
139799	7	Sololá	713	San Lucas Tolimán	10	San Lucas Tolimán	8	Agosto	2023-05-08T00:00:00	2024-11-08T12:00:00	1	Precipitación	0
139800	7	Sololá	713	San Lucas Tolimán	10	San Lucas Tolimán	8	Agosto	2023-05-08T00:00:00	2024-11-08T12:00:00	8	Radiación solar	1085
139801	7	Sololá	713	San Lucas Tolimán	10	San Lucas Tolimán	8	Agosto	2023-05-08T00:00:00	2024-11-08T13:00:00	2	Temperatura media	24.9
139802	7	Sololá	713	San Lucas Tolimán	10	San Lucas Tolimán	8	Agosto	2023-05-08T00:00:00	2024-11-08T13:00:00	4	Temperatura máxima	25.8
139803	7	Sololá	713	San Lucas Tolimán	10	San Lucas Tolimán	8	Agosto	2023-05-08T00:00:00	2024-11-08T13:00:00	3	Temperatura mínima	24.4
139804	7	Sololá	713	San Lucas Tolimán	10	San Lucas Tolimán	8	Agosto	2023-05-08T00:00:00	2024-11-08T13:00:00	5	Humedad	58
139805	7	Sololá	713	San Lucas Tolimán	10	San Lucas Tolimán	8	Agosto	2023-05-08T00:00:00	2024-11-08T13:00:00	6	Velocidad del viento	9.7
139806	7	Sololá	713	San Lucas Tolimán	10	San Lucas Tolimán	8	Agosto	2023-05-08T00:00:00	2024-11-08T13:00:00	7	Dirección del viento	9.66
139807	7	Sololá	713	San Lucas Tolimán	10	San Lucas Tolimán	8	Agosto	2023-05-08T00:00:00	2024-11-08T13:00:00	1	Precipitación	0
139808	7	Sololá	713	San Lucas Tolimán	10	San Lucas Tolimán	8	Agosto	2023-05-08T00:00:00	2024-11-08T13:00:00	8	Radiación solar	1114
139809	7	Sololá	713	San Lucas Tolimán	10	San Lucas Tolimán	8	Agosto	2023-05-08T00:00:00	2024-11-08T14:00:00	2	Temperatura media	25.2
139810	7	Sololá	713	San Lucas Tolimán	10	San Lucas Tolimán	8	Agosto	2023-05-08T00:00:00	2024-11-08T14:00:00	4	Temperatura máxima	25.3
139811	7	Sololá	713	San Lucas Tolimán	10	San Lucas Tolimán	8	Agosto	2023-05-08T00:00:00	2024-11-08T14:00:00	3	Temperatura mínima	24.1
139812	7	Sololá	713	San Lucas Tolimán	10	San Lucas Tolimán	8	Agosto	2023-05-08T00:00:00	2024-11-08T14:00:00	5	Humedad	57
139813	7	Sololá	713	San Lucas Tolimán	10	San Lucas Tolimán	8	Agosto	2023-05-08T00:00:00	2024-11-08T14:00:00	6	Velocidad del viento	11.3
139814	7	Sololá	713	San Lucas Tolimán	10	San Lucas Tolimán	8	Agosto	2023-05-08T00:00:00	2024-11-08T14:00:00	7	Dirección del viento	11.27
139815	7	Sololá	713	San Lucas Tolimán	10	San Lucas Tolimán	8	Agosto	2023-05-08T00:00:00	2024-11-08T14:00:00	1	Precipitación	0
139816	7	Sololá	713	San Lucas Tolimán	10	San Lucas Tolimán	8	Agosto	2023-05-08T00:00:00	2024-11-08T14:00:00	8	Radiación solar	1034
139817	7	Sololá	713	San Lucas Tolimán	10	San Lucas Tolimán	8	Agosto	2023-05-08T00:00:00	2024-11-08T15:00:00	2	Temperatura media	25.7
139818	7	Sololá	713	San Lucas Tolimán	10	San Lucas Tolimán	8	Agosto	2023-05-08T00:00:00	2024-11-08T15:00:00	4	Temperatura máxima	26.1
139819	7	Sololá	713	San Lucas Tolimán	10	San Lucas Tolimán	8	Agosto	2023-05-08T00:00:00	2024-11-08T15:00:00	3	Temperatura mínima	25.1
139820	7	Sololá	713	San Lucas Tolimán	10	San Lucas Tolimán	8	Agosto	2023-05-08T00:00:00	2024-11-08T15:00:00	5	Humedad	56
139821	7	Sololá	713	San Lucas Tolimán	10	San Lucas Tolimán	8	Agosto	2023-05-08T00:00:00	2024-11-08T15:00:00	6	Velocidad del viento	9.7
139822	7	Sololá	713	San Lucas Tolimán	10	San Lucas Tolimán	8	Agosto	2023-05-08T00:00:00	2024-11-08T15:00:00	7	Dirección del viento	9.66
139823	7	Sololá	713	San Lucas Tolimán	10	San Lucas Tolimán	8	Agosto	2023-05-08T00:00:00	2024-11-08T15:00:00	1	Precipitación	0
139824	7	Sololá	713	San Lucas Tolimán	10	San Lucas Tolimán	8	Agosto	2023-05-08T00:00:00	2024-11-08T15:00:00	8	Radiación solar	906
139825	7	Sololá	713	San Lucas Tolimán	10	San Lucas Tolimán	8	Agosto	2023-05-08T00:00:00	2024-11-08T16:00:00	2	Temperatura media	24.5
139826	7	Sololá	713	San Lucas Tolimán	10	San Lucas Tolimán	8	Agosto	2023-05-08T00:00:00	2024-11-08T16:00:00	4	Temperatura máxima	27
139827	7	Sololá	713	San Lucas Tolimán	10	San Lucas Tolimán	8	Agosto	2023-05-08T00:00:00	2024-11-08T16:00:00	3	Temperatura mínima	24.5
139828	7	Sololá	713	San Lucas Tolimán	10	San Lucas Tolimán	8	Agosto	2023-05-08T00:00:00	2024-11-08T16:00:00	5	Humedad	56
139829	7	Sololá	713	San Lucas Tolimán	10	San Lucas Tolimán	8	Agosto	2023-05-08T00:00:00	2024-11-08T16:00:00	6	Velocidad del viento	8
139830	7	Sololá	713	San Lucas Tolimán	10	San Lucas Tolimán	8	Agosto	2023-05-08T00:00:00	2024-11-08T16:00:00	7	Dirección del viento	8.05
139831	7	Sololá	713	San Lucas Tolimán	10	San Lucas Tolimán	8	Agosto	2023-05-08T00:00:00	2024-11-08T16:00:00	1	Precipitación	0
139832	7	Sololá	713	San Lucas Tolimán	10	San Lucas Tolimán	8	Agosto	2023-05-08T00:00:00	2024-11-08T16:00:00	8	Radiación solar	690
139833	7	Sololá	713	San Lucas Tolimán	10	San Lucas Tolimán	8	Agosto	2023-05-08T00:00:00	2024-11-08T17:00:00	2	Temperatura media	24.9
139834	7	Sololá	713	San Lucas Tolimán	10	San Lucas Tolimán	8	Agosto	2023-05-08T00:00:00	2024-11-08T17:00:00	4	Temperatura máxima	25.3
139835	7	Sololá	713	San Lucas Tolimán	10	San Lucas Tolimán	8	Agosto	2023-05-08T00:00:00	2024-11-08T17:00:00	3	Temperatura mínima	23.8
139836	7	Sololá	713	San Lucas Tolimán	10	San Lucas Tolimán	8	Agosto	2023-05-08T00:00:00	2024-11-08T17:00:00	5	Humedad	58
139837	7	Sololá	713	San Lucas Tolimán	10	San Lucas Tolimán	8	Agosto	2023-05-08T00:00:00	2024-11-08T17:00:00	6	Velocidad del viento	8
139838	7	Sololá	713	San Lucas Tolimán	10	San Lucas Tolimán	8	Agosto	2023-05-08T00:00:00	2024-11-08T17:00:00	7	Dirección del viento	8.05
139839	7	Sololá	713	San Lucas Tolimán	10	San Lucas Tolimán	8	Agosto	2023-05-08T00:00:00	2024-11-08T17:00:00	1	Precipitación	0
139840	7	Sololá	713	San Lucas Tolimán	10	San Lucas Tolimán	8	Agosto	2023-05-08T00:00:00	2024-11-08T17:00:00	8	Radiación solar	470
139841	7	Sololá	713	San Lucas Tolimán	10	San Lucas Tolimán	8	Agosto	2023-05-08T00:00:00	2024-11-08T18:00:00	2	Temperatura media	22
139842	7	Sololá	713	San Lucas Tolimán	10	San Lucas Tolimán	8	Agosto	2023-05-08T00:00:00	2024-11-08T18:00:00	4	Temperatura máxima	24.9
139843	7	Sololá	713	San Lucas Tolimán	10	San Lucas Tolimán	8	Agosto	2023-05-08T00:00:00	2024-11-08T18:00:00	3	Temperatura mínima	22
139844	7	Sololá	713	San Lucas Tolimán	10	San Lucas Tolimán	8	Agosto	2023-05-08T00:00:00	2024-11-08T18:00:00	5	Humedad	60
139845	7	Sololá	713	San Lucas Tolimán	10	San Lucas Tolimán	8	Agosto	2023-05-08T00:00:00	2024-11-08T18:00:00	6	Velocidad del viento	8
139846	7	Sololá	713	San Lucas Tolimán	10	San Lucas Tolimán	8	Agosto	2023-05-08T00:00:00	2024-11-08T18:00:00	7	Dirección del viento	8.05
139847	7	Sololá	713	San Lucas Tolimán	10	San Lucas Tolimán	8	Agosto	2023-05-08T00:00:00	2024-11-08T18:00:00	1	Precipitación	0
139848	7	Sololá	713	San Lucas Tolimán	10	San Lucas Tolimán	8	Agosto	2023-05-08T00:00:00	2024-11-08T18:00:00	8	Radiación solar	154
139849	7	Sololá	713	San Lucas Tolimán	10	San Lucas Tolimán	8	Agosto	2023-05-08T00:00:00	2024-11-08T19:00:00	2	Temperatura media	20.9
139850	7	Sololá	713	San Lucas Tolimán	10	San Lucas Tolimán	8	Agosto	2023-05-08T00:00:00	2024-11-08T19:00:00	4	Temperatura máxima	22.1
139851	7	Sololá	713	San Lucas Tolimán	10	San Lucas Tolimán	8	Agosto	2023-05-08T00:00:00	2024-11-08T19:00:00	3	Temperatura mínima	20.9
139852	7	Sololá	713	San Lucas Tolimán	10	San Lucas Tolimán	8	Agosto	2023-05-08T00:00:00	2024-11-08T19:00:00	5	Humedad	61
139853	7	Sololá	713	San Lucas Tolimán	10	San Lucas Tolimán	8	Agosto	2023-05-08T00:00:00	2024-11-08T19:00:00	6	Velocidad del viento	9.7
139854	7	Sololá	713	San Lucas Tolimán	10	San Lucas Tolimán	8	Agosto	2023-05-08T00:00:00	2024-11-08T19:00:00	7	Dirección del viento	9.66
139855	7	Sololá	713	San Lucas Tolimán	10	San Lucas Tolimán	8	Agosto	2023-05-08T00:00:00	2024-11-08T19:00:00	1	Precipitación	0
139856	7	Sololá	713	San Lucas Tolimán	10	San Lucas Tolimán	8	Agosto	2023-05-08T00:00:00	2024-11-08T19:00:00	8	Radiación solar	0
139857	7	Sololá	713	San Lucas Tolimán	10	San Lucas Tolimán	8	Agosto	2023-05-08T00:00:00	2024-11-08T20:00:00	2	Temperatura media	20.1
139858	7	Sololá	713	San Lucas Tolimán	10	San Lucas Tolimán	8	Agosto	2023-05-08T00:00:00	2024-11-08T20:00:00	4	Temperatura máxima	20.9
139859	7	Sololá	713	San Lucas Tolimán	10	San Lucas Tolimán	8	Agosto	2023-05-08T00:00:00	2024-11-08T20:00:00	3	Temperatura mínima	20.1
139860	7	Sololá	713	San Lucas Tolimán	10	San Lucas Tolimán	8	Agosto	2023-05-08T00:00:00	2024-11-08T20:00:00	5	Humedad	58
139861	7	Sololá	713	San Lucas Tolimán	10	San Lucas Tolimán	8	Agosto	2023-05-08T00:00:00	2024-11-08T20:00:00	6	Velocidad del viento	4.8
139862	7	Sololá	713	San Lucas Tolimán	10	San Lucas Tolimán	8	Agosto	2023-05-08T00:00:00	2024-11-08T20:00:00	7	Dirección del viento	4.83
139863	7	Sololá	713	San Lucas Tolimán	10	San Lucas Tolimán	8	Agosto	2023-05-08T00:00:00	2024-11-08T20:00:00	1	Precipitación	0
139864	7	Sololá	713	San Lucas Tolimán	10	San Lucas Tolimán	8	Agosto	2023-05-08T00:00:00	2024-11-08T20:00:00	8	Radiación solar	0
139865	7	Sololá	713	San Lucas Tolimán	10	San Lucas Tolimán	8	Agosto	2023-05-08T00:00:00	2024-11-08T21:00:00	2	Temperatura media	20.7
139866	7	Sololá	713	San Lucas Tolimán	10	San Lucas Tolimán	8	Agosto	2023-05-08T00:00:00	2024-11-08T21:00:00	4	Temperatura máxima	20.7
139867	7	Sololá	713	San Lucas Tolimán	10	San Lucas Tolimán	8	Agosto	2023-05-08T00:00:00	2024-11-08T21:00:00	3	Temperatura mínima	19.9
139868	7	Sololá	713	San Lucas Tolimán	10	San Lucas Tolimán	8	Agosto	2023-05-08T00:00:00	2024-11-08T21:00:00	5	Humedad	57
139869	7	Sololá	713	San Lucas Tolimán	10	San Lucas Tolimán	8	Agosto	2023-05-08T00:00:00	2024-11-08T21:00:00	6	Velocidad del viento	3.2
139870	7	Sololá	713	San Lucas Tolimán	10	San Lucas Tolimán	8	Agosto	2023-05-08T00:00:00	2024-11-08T21:00:00	7	Dirección del viento	3.22
139871	7	Sololá	713	San Lucas Tolimán	10	San Lucas Tolimán	8	Agosto	2023-05-08T00:00:00	2024-11-08T21:00:00	1	Precipitación	0
139872	7	Sololá	713	San Lucas Tolimán	10	San Lucas Tolimán	8	Agosto	2023-05-08T00:00:00	2024-11-08T21:00:00	8	Radiación solar	0
139873	7	Sololá	713	San Lucas Tolimán	10	San Lucas Tolimán	8	Agosto	2023-05-08T00:00:00	2024-11-08T22:00:00	2	Temperatura media	20.5
139874	7	Sololá	713	San Lucas Tolimán	10	San Lucas Tolimán	8	Agosto	2023-05-08T00:00:00	2024-11-08T22:00:00	4	Temperatura máxima	21.4
139875	7	Sololá	713	San Lucas Tolimán	10	San Lucas Tolimán	8	Agosto	2023-05-08T00:00:00	2024-11-08T22:00:00	3	Temperatura mínima	20.5
139876	7	Sololá	713	San Lucas Tolimán	10	San Lucas Tolimán	8	Agosto	2023-05-08T00:00:00	2024-11-08T22:00:00	5	Humedad	56
139877	7	Sololá	713	San Lucas Tolimán	10	San Lucas Tolimán	8	Agosto	2023-05-08T00:00:00	2024-11-08T22:00:00	6	Velocidad del viento	1.6
139878	7	Sololá	713	San Lucas Tolimán	10	San Lucas Tolimán	8	Agosto	2023-05-08T00:00:00	2024-11-08T22:00:00	7	Dirección del viento	1.61
139879	7	Sololá	713	San Lucas Tolimán	10	San Lucas Tolimán	8	Agosto	2023-05-08T00:00:00	2024-11-08T22:00:00	1	Precipitación	0
139880	7	Sololá	713	San Lucas Tolimán	10	San Lucas Tolimán	8	Agosto	2023-05-08T00:00:00	2024-11-08T22:00:00	8	Radiación solar	0
139881	7	Sololá	713	San Lucas Tolimán	10	San Lucas Tolimán	8	Agosto	2023-05-08T00:00:00	2024-11-08T23:00:00	2	Temperatura media	20.9
139882	7	Sololá	713	San Lucas Tolimán	10	San Lucas Tolimán	8	Agosto	2023-05-08T00:00:00	2024-11-08T23:00:00	4	Temperatura máxima	21.6
139883	7	Sololá	713	San Lucas Tolimán	10	San Lucas Tolimán	8	Agosto	2023-05-08T00:00:00	2024-11-08T23:00:00	3	Temperatura mínima	20.6
139884	7	Sololá	713	San Lucas Tolimán	10	San Lucas Tolimán	8	Agosto	2023-05-08T00:00:00	2024-11-08T23:00:00	5	Humedad	55
139885	7	Sololá	713	San Lucas Tolimán	10	San Lucas Tolimán	8	Agosto	2023-05-08T00:00:00	2024-11-08T23:00:00	6	Velocidad del viento	6.4
139886	7	Sololá	713	San Lucas Tolimán	10	San Lucas Tolimán	8	Agosto	2023-05-08T00:00:00	2024-11-08T23:00:00	7	Dirección del viento	6.44
139887	7	Sololá	713	San Lucas Tolimán	10	San Lucas Tolimán	8	Agosto	2023-05-08T00:00:00	2024-11-08T23:00:00	1	Precipitación	0
139888	7	Sololá	713	San Lucas Tolimán	10	San Lucas Tolimán	8	Agosto	2023-05-08T00:00:00	2024-11-08T23:00:00	8	Radiación solar	0
139889	7	Sololá	713	San Lucas Tolimán	10	San Lucas Tolimán	8	Agosto	2023-06-08T00:00:00	2024-11-08T00:00:00	2	Temperatura media	20.2
139890	7	Sololá	713	San Lucas Tolimán	10	San Lucas Tolimán	8	Agosto	2023-06-08T00:00:00	2024-11-08T00:00:00	4	Temperatura máxima	20.9
139891	7	Sololá	713	San Lucas Tolimán	10	San Lucas Tolimán	8	Agosto	2023-06-08T00:00:00	2024-11-08T00:00:00	3	Temperatura mínima	19.9
139892	7	Sololá	713	San Lucas Tolimán	10	San Lucas Tolimán	8	Agosto	2023-06-08T00:00:00	2024-11-08T00:00:00	5	Humedad	56
139893	7	Sololá	713	San Lucas Tolimán	10	San Lucas Tolimán	8	Agosto	2023-06-08T00:00:00	2024-11-08T00:00:00	6	Velocidad del viento	4.8
139894	7	Sololá	713	San Lucas Tolimán	10	San Lucas Tolimán	8	Agosto	2023-06-08T00:00:00	2024-11-08T00:00:00	7	Dirección del viento	4.83
139895	7	Sololá	713	San Lucas Tolimán	10	San Lucas Tolimán	8	Agosto	2023-06-08T00:00:00	2024-11-08T00:00:00	1	Precipitación	0
139896	7	Sololá	713	San Lucas Tolimán	10	San Lucas Tolimán	8	Agosto	2023-06-08T00:00:00	2024-11-08T00:00:00	8	Radiación solar	0
139897	7	Sololá	713	San Lucas Tolimán	10	San Lucas Tolimán	8	Agosto	2023-06-08T00:00:00	2024-11-08T01:00:00	2	Temperatura media	20.1
139898	7	Sololá	713	San Lucas Tolimán	10	San Lucas Tolimán	8	Agosto	2023-06-08T00:00:00	2024-11-08T01:00:00	4	Temperatura máxima	20.9
139899	7	Sololá	713	San Lucas Tolimán	10	San Lucas Tolimán	8	Agosto	2023-06-08T00:00:00	2024-11-08T01:00:00	3	Temperatura mínima	20.1
139900	7	Sololá	713	San Lucas Tolimán	10	San Lucas Tolimán	8	Agosto	2023-06-08T00:00:00	2024-11-08T01:00:00	5	Humedad	54
139901	7	Sololá	713	San Lucas Tolimán	10	San Lucas Tolimán	8	Agosto	2023-06-08T00:00:00	2024-11-08T01:00:00	6	Velocidad del viento	9.7
139902	7	Sololá	713	San Lucas Tolimán	10	San Lucas Tolimán	8	Agosto	2023-06-08T00:00:00	2024-11-08T01:00:00	7	Dirección del viento	9.66
139903	7	Sololá	713	San Lucas Tolimán	10	San Lucas Tolimán	8	Agosto	2023-06-08T00:00:00	2024-11-08T01:00:00	1	Precipitación	0
139904	7	Sololá	713	San Lucas Tolimán	10	San Lucas Tolimán	8	Agosto	2023-06-08T00:00:00	2024-11-08T01:00:00	8	Radiación solar	0
139905	7	Sololá	713	San Lucas Tolimán	10	San Lucas Tolimán	8	Agosto	2023-06-08T00:00:00	2024-11-08T02:00:00	2	Temperatura media	18.1
139906	7	Sololá	713	San Lucas Tolimán	10	San Lucas Tolimán	8	Agosto	2023-06-08T00:00:00	2024-11-08T02:00:00	4	Temperatura máxima	20.1
139907	7	Sololá	713	San Lucas Tolimán	10	San Lucas Tolimán	8	Agosto	2023-06-08T00:00:00	2024-11-08T02:00:00	3	Temperatura mínima	18.1
139908	7	Sololá	713	San Lucas Tolimán	10	San Lucas Tolimán	8	Agosto	2023-06-08T00:00:00	2024-11-08T02:00:00	5	Humedad	61
139909	7	Sololá	713	San Lucas Tolimán	10	San Lucas Tolimán	8	Agosto	2023-06-08T00:00:00	2024-11-08T02:00:00	6	Velocidad del viento	1.6
139910	7	Sololá	713	San Lucas Tolimán	10	San Lucas Tolimán	8	Agosto	2023-06-08T00:00:00	2024-11-08T02:00:00	7	Dirección del viento	1.61
139911	7	Sololá	713	San Lucas Tolimán	10	San Lucas Tolimán	8	Agosto	2023-06-08T00:00:00	2024-11-08T02:00:00	1	Precipitación	0
139912	7	Sololá	713	San Lucas Tolimán	10	San Lucas Tolimán	8	Agosto	2023-06-08T00:00:00	2024-11-08T02:00:00	8	Radiación solar	0
139913	7	Sololá	713	San Lucas Tolimán	10	San Lucas Tolimán	8	Agosto	2023-06-08T00:00:00	2024-11-08T03:00:00	2	Temperatura media	19.3
139914	7	Sololá	713	San Lucas Tolimán	10	San Lucas Tolimán	8	Agosto	2023-06-08T00:00:00	2024-11-08T03:00:00	4	Temperatura máxima	20.1
139915	7	Sololá	713	San Lucas Tolimán	10	San Lucas Tolimán	8	Agosto	2023-06-08T00:00:00	2024-11-08T03:00:00	3	Temperatura mínima	18
139916	7	Sololá	713	San Lucas Tolimán	10	San Lucas Tolimán	8	Agosto	2023-06-08T00:00:00	2024-11-08T03:00:00	5	Humedad	57
139917	7	Sololá	713	San Lucas Tolimán	10	San Lucas Tolimán	8	Agosto	2023-06-08T00:00:00	2024-11-08T03:00:00	6	Velocidad del viento	6.4
139918	7	Sololá	713	San Lucas Tolimán	10	San Lucas Tolimán	8	Agosto	2023-06-08T00:00:00	2024-11-08T03:00:00	7	Dirección del viento	6.44
139919	7	Sololá	713	San Lucas Tolimán	10	San Lucas Tolimán	8	Agosto	2023-06-08T00:00:00	2024-11-08T03:00:00	1	Precipitación	0
139920	7	Sololá	713	San Lucas Tolimán	10	San Lucas Tolimán	8	Agosto	2023-06-08T00:00:00	2024-11-08T03:00:00	8	Radiación solar	0
139921	7	Sololá	713	San Lucas Tolimán	10	San Lucas Tolimán	8	Agosto	2023-06-08T00:00:00	2024-11-08T04:00:00	2	Temperatura media	18.8
139922	7	Sololá	713	San Lucas Tolimán	10	San Lucas Tolimán	8	Agosto	2023-06-08T00:00:00	2024-11-08T04:00:00	4	Temperatura máxima	19.3
139923	7	Sololá	713	San Lucas Tolimán	10	San Lucas Tolimán	8	Agosto	2023-06-08T00:00:00	2024-11-08T04:00:00	3	Temperatura mínima	18.5
139924	7	Sololá	713	San Lucas Tolimán	10	San Lucas Tolimán	8	Agosto	2023-06-08T00:00:00	2024-11-08T04:00:00	5	Humedad	57
139925	7	Sololá	713	San Lucas Tolimán	10	San Lucas Tolimán	8	Agosto	2023-06-08T00:00:00	2024-11-08T04:00:00	6	Velocidad del viento	4.8
139926	7	Sololá	713	San Lucas Tolimán	10	San Lucas Tolimán	8	Agosto	2023-06-08T00:00:00	2024-11-08T04:00:00	7	Dirección del viento	4.83
139927	7	Sololá	713	San Lucas Tolimán	10	San Lucas Tolimán	8	Agosto	2023-06-08T00:00:00	2024-11-08T04:00:00	1	Precipitación	0
139928	7	Sololá	713	San Lucas Tolimán	10	San Lucas Tolimán	8	Agosto	2023-06-08T00:00:00	2024-11-08T04:00:00	8	Radiación solar	0
139929	7	Sololá	713	San Lucas Tolimán	10	San Lucas Tolimán	8	Agosto	2023-06-08T00:00:00	2024-11-08T05:00:00	2	Temperatura media	17.6
139930	7	Sololá	713	San Lucas Tolimán	10	San Lucas Tolimán	8	Agosto	2023-06-08T00:00:00	2024-11-08T05:00:00	4	Temperatura máxima	18.9
139931	7	Sololá	713	San Lucas Tolimán	10	San Lucas Tolimán	8	Agosto	2023-06-08T00:00:00	2024-11-08T05:00:00	3	Temperatura mínima	17.6
139932	7	Sololá	713	San Lucas Tolimán	10	San Lucas Tolimán	8	Agosto	2023-06-08T00:00:00	2024-11-08T05:00:00	5	Humedad	61
139933	7	Sololá	713	San Lucas Tolimán	10	San Lucas Tolimán	8	Agosto	2023-06-08T00:00:00	2024-11-08T05:00:00	6	Velocidad del viento	1.6
139934	7	Sololá	713	San Lucas Tolimán	10	San Lucas Tolimán	8	Agosto	2023-06-08T00:00:00	2024-11-08T05:00:00	7	Dirección del viento	1.61
139935	7	Sololá	713	San Lucas Tolimán	10	San Lucas Tolimán	8	Agosto	2023-06-08T00:00:00	2024-11-08T05:00:00	1	Precipitación	0
139936	7	Sololá	713	San Lucas Tolimán	10	San Lucas Tolimán	8	Agosto	2023-06-08T00:00:00	2024-11-08T05:00:00	8	Radiación solar	0
139937	7	Sololá	713	San Lucas Tolimán	10	San Lucas Tolimán	8	Agosto	2023-06-08T00:00:00	2024-11-08T06:00:00	2	Temperatura media	16.9
139938	7	Sololá	713	San Lucas Tolimán	10	San Lucas Tolimán	8	Agosto	2023-06-08T00:00:00	2024-11-08T06:00:00	4	Temperatura máxima	17.7
139939	7	Sololá	713	San Lucas Tolimán	10	San Lucas Tolimán	8	Agosto	2023-06-08T00:00:00	2024-11-08T06:00:00	3	Temperatura mínima	16.9
139940	7	Sololá	713	San Lucas Tolimán	10	San Lucas Tolimán	8	Agosto	2023-06-08T00:00:00	2024-11-08T06:00:00	5	Humedad	63
139941	7	Sololá	713	San Lucas Tolimán	10	San Lucas Tolimán	8	Agosto	2023-06-08T00:00:00	2024-11-08T06:00:00	6	Velocidad del viento	0
139942	7	Sololá	713	San Lucas Tolimán	10	San Lucas Tolimán	8	Agosto	2023-06-08T00:00:00	2024-11-08T06:00:00	7	Dirección del viento	0
139943	7	Sololá	713	San Lucas Tolimán	10	San Lucas Tolimán	8	Agosto	2023-06-08T00:00:00	2024-11-08T06:00:00	1	Precipitación	0
139944	7	Sololá	713	San Lucas Tolimán	10	San Lucas Tolimán	8	Agosto	2023-06-08T00:00:00	2024-11-08T06:00:00	8	Radiación solar	1
139945	7	Sololá	713	San Lucas Tolimán	10	San Lucas Tolimán	8	Agosto	2023-06-08T00:00:00	2024-11-08T07:00:00	2	Temperatura media	17.9
139946	7	Sololá	713	San Lucas Tolimán	10	San Lucas Tolimán	8	Agosto	2023-06-08T00:00:00	2024-11-08T07:00:00	4	Temperatura máxima	17.9
139947	7	Sololá	713	San Lucas Tolimán	10	San Lucas Tolimán	8	Agosto	2023-06-08T00:00:00	2024-11-08T07:00:00	3	Temperatura mínima	16.8
139948	7	Sololá	713	San Lucas Tolimán	10	San Lucas Tolimán	8	Agosto	2023-06-08T00:00:00	2024-11-08T07:00:00	5	Humedad	61
139949	7	Sololá	713	San Lucas Tolimán	10	San Lucas Tolimán	8	Agosto	2023-06-08T00:00:00	2024-11-08T07:00:00	6	Velocidad del viento	1.6
139950	7	Sololá	713	San Lucas Tolimán	10	San Lucas Tolimán	8	Agosto	2023-06-08T00:00:00	2024-11-08T07:00:00	7	Dirección del viento	1.61
139951	7	Sololá	713	San Lucas Tolimán	10	San Lucas Tolimán	8	Agosto	2023-06-08T00:00:00	2024-11-08T07:00:00	1	Precipitación	0
139952	7	Sololá	713	San Lucas Tolimán	10	San Lucas Tolimán	8	Agosto	2023-06-08T00:00:00	2024-11-08T07:00:00	8	Radiación solar	56
139953	7	Sololá	713	San Lucas Tolimán	10	San Lucas Tolimán	8	Agosto	2023-06-08T00:00:00	2024-11-08T08:00:00	2	Temperatura media	22
139954	7	Sololá	713	San Lucas Tolimán	10	San Lucas Tolimán	8	Agosto	2023-06-08T00:00:00	2024-11-08T08:00:00	4	Temperatura máxima	22
139955	7	Sololá	713	San Lucas Tolimán	10	San Lucas Tolimán	8	Agosto	2023-06-08T00:00:00	2024-11-08T08:00:00	3	Temperatura mínima	17.9
139956	7	Sololá	713	San Lucas Tolimán	10	San Lucas Tolimán	8	Agosto	2023-06-08T00:00:00	2024-11-08T08:00:00	5	Humedad	51
139957	7	Sololá	713	San Lucas Tolimán	10	San Lucas Tolimán	8	Agosto	2023-06-08T00:00:00	2024-11-08T08:00:00	6	Velocidad del viento	1.6
139958	7	Sololá	713	San Lucas Tolimán	10	San Lucas Tolimán	8	Agosto	2023-06-08T00:00:00	2024-11-08T08:00:00	7	Dirección del viento	1.61
139959	7	Sololá	713	San Lucas Tolimán	10	San Lucas Tolimán	8	Agosto	2023-06-08T00:00:00	2024-11-08T08:00:00	1	Precipitación	0
139960	7	Sololá	713	San Lucas Tolimán	10	San Lucas Tolimán	8	Agosto	2023-06-08T00:00:00	2024-11-08T08:00:00	8	Radiación solar	333
139961	7	Sololá	713	San Lucas Tolimán	10	San Lucas Tolimán	8	Agosto	2023-06-08T00:00:00	2024-11-08T09:00:00	2	Temperatura media	23.6
139962	7	Sololá	713	San Lucas Tolimán	10	San Lucas Tolimán	8	Agosto	2023-06-08T00:00:00	2024-11-08T09:00:00	4	Temperatura máxima	23.6
139963	7	Sololá	713	San Lucas Tolimán	10	San Lucas Tolimán	8	Agosto	2023-06-08T00:00:00	2024-11-08T09:00:00	3	Temperatura mínima	21.9
139964	7	Sololá	713	San Lucas Tolimán	10	San Lucas Tolimán	8	Agosto	2023-06-08T00:00:00	2024-11-08T09:00:00	5	Humedad	46
139965	7	Sololá	713	San Lucas Tolimán	10	San Lucas Tolimán	8	Agosto	2023-06-08T00:00:00	2024-11-08T09:00:00	6	Velocidad del viento	4.8
139966	7	Sololá	713	San Lucas Tolimán	10	San Lucas Tolimán	8	Agosto	2023-06-08T00:00:00	2024-11-08T09:00:00	7	Dirección del viento	4.83
139967	7	Sololá	713	San Lucas Tolimán	10	San Lucas Tolimán	8	Agosto	2023-06-08T00:00:00	2024-11-08T09:00:00	1	Precipitación	0
139968	7	Sololá	713	San Lucas Tolimán	10	San Lucas Tolimán	8	Agosto	2023-06-08T00:00:00	2024-11-08T09:00:00	8	Radiación solar	582
139969	7	Sololá	713	San Lucas Tolimán	10	San Lucas Tolimán	8	Agosto	2023-06-08T00:00:00	2024-11-08T10:00:00	2	Temperatura media	25.2
139970	7	Sololá	713	San Lucas Tolimán	10	San Lucas Tolimán	8	Agosto	2023-06-08T00:00:00	2024-11-08T10:00:00	4	Temperatura máxima	25.4
139971	7	Sololá	713	San Lucas Tolimán	10	San Lucas Tolimán	8	Agosto	2023-06-08T00:00:00	2024-11-08T10:00:00	3	Temperatura mínima	23.6
139972	7	Sololá	713	San Lucas Tolimán	10	San Lucas Tolimán	8	Agosto	2023-06-08T00:00:00	2024-11-08T10:00:00	5	Humedad	51
139973	7	Sololá	713	San Lucas Tolimán	10	San Lucas Tolimán	8	Agosto	2023-06-08T00:00:00	2024-11-08T10:00:00	6	Velocidad del viento	4.8
139974	7	Sololá	713	San Lucas Tolimán	10	San Lucas Tolimán	8	Agosto	2023-06-08T00:00:00	2024-11-08T10:00:00	7	Dirección del viento	4.83
139975	7	Sololá	713	San Lucas Tolimán	10	San Lucas Tolimán	8	Agosto	2023-06-08T00:00:00	2024-11-08T10:00:00	1	Precipitación	0
139976	7	Sololá	713	San Lucas Tolimán	10	San Lucas Tolimán	8	Agosto	2023-06-08T00:00:00	2024-11-08T10:00:00	8	Radiación solar	799
139977	7	Sololá	713	San Lucas Tolimán	10	San Lucas Tolimán	8	Agosto	2023-06-08T00:00:00	2024-11-08T11:00:00	2	Temperatura media	25.8
139978	7	Sololá	713	San Lucas Tolimán	10	San Lucas Tolimán	8	Agosto	2023-06-08T00:00:00	2024-11-08T11:00:00	4	Temperatura máxima	26.2
139979	7	Sololá	713	San Lucas Tolimán	10	San Lucas Tolimán	8	Agosto	2023-06-08T00:00:00	2024-11-08T11:00:00	3	Temperatura mínima	25.3
139980	7	Sololá	713	San Lucas Tolimán	10	San Lucas Tolimán	8	Agosto	2023-06-08T00:00:00	2024-11-08T11:00:00	5	Humedad	52
139981	7	Sololá	713	San Lucas Tolimán	10	San Lucas Tolimán	8	Agosto	2023-06-08T00:00:00	2024-11-08T11:00:00	6	Velocidad del viento	6.4
139982	7	Sololá	713	San Lucas Tolimán	10	San Lucas Tolimán	8	Agosto	2023-06-08T00:00:00	2024-11-08T11:00:00	7	Dirección del viento	6.44
139983	7	Sololá	713	San Lucas Tolimán	10	San Lucas Tolimán	8	Agosto	2023-06-08T00:00:00	2024-11-08T11:00:00	1	Precipitación	0
139984	7	Sololá	713	San Lucas Tolimán	10	San Lucas Tolimán	8	Agosto	2023-06-08T00:00:00	2024-11-08T11:00:00	8	Radiación solar	951
139985	7	Sololá	713	San Lucas Tolimán	10	San Lucas Tolimán	8	Agosto	2023-06-08T00:00:00	2024-11-08T12:00:00	2	Temperatura media	24.8
139986	7	Sololá	713	San Lucas Tolimán	10	San Lucas Tolimán	8	Agosto	2023-06-08T00:00:00	2024-11-08T12:00:00	4	Temperatura máxima	25.8
139987	7	Sololá	713	San Lucas Tolimán	10	San Lucas Tolimán	8	Agosto	2023-06-08T00:00:00	2024-11-08T12:00:00	3	Temperatura mínima	24.5
139988	7	Sololá	713	San Lucas Tolimán	10	San Lucas Tolimán	8	Agosto	2023-06-08T00:00:00	2024-11-08T12:00:00	5	Humedad	60
139989	7	Sololá	713	San Lucas Tolimán	10	San Lucas Tolimán	8	Agosto	2023-06-08T00:00:00	2024-11-08T12:00:00	6	Velocidad del viento	11.3
139990	7	Sololá	713	San Lucas Tolimán	10	San Lucas Tolimán	8	Agosto	2023-06-08T00:00:00	2024-11-08T12:00:00	7	Dirección del viento	11.27
139991	7	Sololá	713	San Lucas Tolimán	10	San Lucas Tolimán	8	Agosto	2023-06-08T00:00:00	2024-11-08T12:00:00	1	Precipitación	0
139992	7	Sololá	713	San Lucas Tolimán	10	San Lucas Tolimán	8	Agosto	2023-06-08T00:00:00	2024-11-08T12:00:00	8	Radiación solar	1060
139993	7	Sololá	713	San Lucas Tolimán	10	San Lucas Tolimán	8	Agosto	2023-06-08T00:00:00	2024-11-08T13:00:00	2	Temperatura media	24.7
139994	7	Sololá	713	San Lucas Tolimán	10	San Lucas Tolimán	8	Agosto	2023-06-08T00:00:00	2024-11-08T13:00:00	4	Temperatura máxima	24.8
139995	7	Sololá	713	San Lucas Tolimán	10	San Lucas Tolimán	8	Agosto	2023-06-08T00:00:00	2024-11-08T13:00:00	3	Temperatura mínima	23.7
139996	7	Sololá	713	San Lucas Tolimán	10	San Lucas Tolimán	8	Agosto	2023-06-08T00:00:00	2024-11-08T13:00:00	5	Humedad	60
139997	7	Sololá	713	San Lucas Tolimán	10	San Lucas Tolimán	8	Agosto	2023-06-08T00:00:00	2024-11-08T13:00:00	6	Velocidad del viento	12.9
139998	7	Sololá	713	San Lucas Tolimán	10	San Lucas Tolimán	8	Agosto	2023-06-08T00:00:00	2024-11-08T13:00:00	7	Dirección del viento	12.87
139999	7	Sololá	713	San Lucas Tolimán	10	San Lucas Tolimán	8	Agosto	2023-06-08T00:00:00	2024-11-08T13:00:00	1	Precipitación	0
140000	7	Sololá	713	San Lucas Tolimán	10	San Lucas Tolimán	8	Agosto	2023-06-08T00:00:00	2024-11-08T13:00:00	8	Radiación solar	1111
140001	7	Sololá	713	San Lucas Tolimán	10	San Lucas Tolimán	8	Agosto	2023-06-08T00:00:00	2024-11-08T14:00:00	2	Temperatura media	24
140002	7	Sololá	713	San Lucas Tolimán	10	San Lucas Tolimán	8	Agosto	2023-06-08T00:00:00	2024-11-08T14:00:00	4	Temperatura máxima	24.7
140003	7	Sololá	713	San Lucas Tolimán	10	San Lucas Tolimán	8	Agosto	2023-06-08T00:00:00	2024-11-08T14:00:00	3	Temperatura mínima	23.7
140004	7	Sololá	713	San Lucas Tolimán	10	San Lucas Tolimán	8	Agosto	2023-06-08T00:00:00	2024-11-08T14:00:00	5	Humedad	58
140005	7	Sololá	713	San Lucas Tolimán	10	San Lucas Tolimán	8	Agosto	2023-06-08T00:00:00	2024-11-08T14:00:00	6	Velocidad del viento	14.5
140006	7	Sololá	713	San Lucas Tolimán	10	San Lucas Tolimán	8	Agosto	2023-06-08T00:00:00	2024-11-08T14:00:00	7	Dirección del viento	14.48
140007	7	Sololá	713	San Lucas Tolimán	10	San Lucas Tolimán	8	Agosto	2023-06-08T00:00:00	2024-11-08T14:00:00	1	Precipitación	0
140008	7	Sololá	713	San Lucas Tolimán	10	San Lucas Tolimán	8	Agosto	2023-06-08T00:00:00	2024-11-08T14:00:00	8	Radiación solar	1069
140009	7	Sololá	713	San Lucas Tolimán	10	San Lucas Tolimán	8	Agosto	2023-06-08T00:00:00	2024-11-08T15:00:00	2	Temperatura media	23.9
140010	7	Sololá	713	San Lucas Tolimán	10	San Lucas Tolimán	8	Agosto	2023-06-08T00:00:00	2024-11-08T15:00:00	4	Temperatura máxima	25.1
140011	7	Sololá	713	San Lucas Tolimán	10	San Lucas Tolimán	8	Agosto	2023-06-08T00:00:00	2024-11-08T15:00:00	3	Temperatura mínima	23.8
140012	7	Sololá	713	San Lucas Tolimán	10	San Lucas Tolimán	8	Agosto	2023-06-08T00:00:00	2024-11-08T15:00:00	5	Humedad	60
140013	7	Sololá	713	San Lucas Tolimán	10	San Lucas Tolimán	8	Agosto	2023-06-08T00:00:00	2024-11-08T15:00:00	6	Velocidad del viento	12.9
140014	7	Sololá	713	San Lucas Tolimán	10	San Lucas Tolimán	8	Agosto	2023-06-08T00:00:00	2024-11-08T15:00:00	7	Dirección del viento	12.87
140015	7	Sololá	713	San Lucas Tolimán	10	San Lucas Tolimán	8	Agosto	2023-06-08T00:00:00	2024-11-08T15:00:00	1	Precipitación	0
140016	7	Sololá	713	San Lucas Tolimán	10	San Lucas Tolimán	8	Agosto	2023-06-08T00:00:00	2024-11-08T15:00:00	8	Radiación solar	958
140017	7	Sololá	713	San Lucas Tolimán	10	San Lucas Tolimán	8	Agosto	2023-06-08T00:00:00	2024-11-08T16:00:00	2	Temperatura media	24.3
140018	7	Sololá	713	San Lucas Tolimán	10	San Lucas Tolimán	8	Agosto	2023-06-08T00:00:00	2024-11-08T16:00:00	4	Temperatura máxima	24.8
140019	7	Sololá	713	San Lucas Tolimán	10	San Lucas Tolimán	8	Agosto	2023-06-08T00:00:00	2024-11-08T16:00:00	3	Temperatura mínima	23.9
140020	7	Sololá	713	San Lucas Tolimán	10	San Lucas Tolimán	8	Agosto	2023-06-08T00:00:00	2024-11-08T16:00:00	5	Humedad	60
140021	7	Sololá	713	San Lucas Tolimán	10	San Lucas Tolimán	8	Agosto	2023-06-08T00:00:00	2024-11-08T16:00:00	6	Velocidad del viento	11.3
140022	7	Sololá	713	San Lucas Tolimán	10	San Lucas Tolimán	8	Agosto	2023-06-08T00:00:00	2024-11-08T16:00:00	7	Dirección del viento	11.27
140023	7	Sololá	713	San Lucas Tolimán	10	San Lucas Tolimán	8	Agosto	2023-06-08T00:00:00	2024-11-08T16:00:00	1	Precipitación	0
140024	7	Sololá	713	San Lucas Tolimán	10	San Lucas Tolimán	8	Agosto	2023-06-08T00:00:00	2024-11-08T16:00:00	8	Radiación solar	728
140025	7	Sololá	713	San Lucas Tolimán	10	San Lucas Tolimán	8	Agosto	2023-06-08T00:00:00	2024-11-08T17:00:00	2	Temperatura media	21.9
140026	7	Sololá	713	San Lucas Tolimán	10	San Lucas Tolimán	8	Agosto	2023-06-08T00:00:00	2024-11-08T17:00:00	4	Temperatura máxima	24.3
140027	7	Sololá	713	San Lucas Tolimán	10	San Lucas Tolimán	8	Agosto	2023-06-08T00:00:00	2024-11-08T17:00:00	3	Temperatura mínima	21.8
140028	7	Sololá	713	San Lucas Tolimán	10	San Lucas Tolimán	8	Agosto	2023-06-08T00:00:00	2024-11-08T17:00:00	5	Humedad	60
140029	7	Sololá	713	San Lucas Tolimán	10	San Lucas Tolimán	8	Agosto	2023-06-08T00:00:00	2024-11-08T17:00:00	6	Velocidad del viento	11.3
140030	7	Sololá	713	San Lucas Tolimán	10	San Lucas Tolimán	8	Agosto	2023-06-08T00:00:00	2024-11-08T17:00:00	7	Dirección del viento	11.27
140031	7	Sololá	713	San Lucas Tolimán	10	San Lucas Tolimán	8	Agosto	2023-06-08T00:00:00	2024-11-08T17:00:00	1	Precipitación	0
140032	7	Sololá	713	San Lucas Tolimán	10	San Lucas Tolimán	8	Agosto	2023-06-08T00:00:00	2024-11-08T17:00:00	8	Radiación solar	183
140033	7	Sololá	713	San Lucas Tolimán	10	San Lucas Tolimán	8	Agosto	2023-06-08T00:00:00	2024-11-08T18:00:00	2	Temperatura media	21.5
140034	7	Sololá	713	San Lucas Tolimán	10	San Lucas Tolimán	8	Agosto	2023-06-08T00:00:00	2024-11-08T18:00:00	4	Temperatura máxima	22.1
140035	7	Sololá	713	San Lucas Tolimán	10	San Lucas Tolimán	8	Agosto	2023-06-08T00:00:00	2024-11-08T18:00:00	3	Temperatura mínima	21.5
140036	7	Sololá	713	San Lucas Tolimán	10	San Lucas Tolimán	8	Agosto	2023-06-08T00:00:00	2024-11-08T18:00:00	5	Humedad	60
140037	7	Sololá	713	San Lucas Tolimán	10	San Lucas Tolimán	8	Agosto	2023-06-08T00:00:00	2024-11-08T18:00:00	6	Velocidad del viento	8
140038	7	Sololá	713	San Lucas Tolimán	10	San Lucas Tolimán	8	Agosto	2023-06-08T00:00:00	2024-11-08T18:00:00	7	Dirección del viento	8.05
140039	7	Sololá	713	San Lucas Tolimán	10	San Lucas Tolimán	8	Agosto	2023-06-08T00:00:00	2024-11-08T18:00:00	1	Precipitación	0
140040	7	Sololá	713	San Lucas Tolimán	10	San Lucas Tolimán	8	Agosto	2023-06-08T00:00:00	2024-11-08T18:00:00	8	Radiación solar	43
140041	7	Sololá	713	San Lucas Tolimán	10	San Lucas Tolimán	8	Agosto	2023-06-08T00:00:00	2024-11-08T19:00:00	2	Temperatura media	21.2
140042	7	Sololá	713	San Lucas Tolimán	10	San Lucas Tolimán	8	Agosto	2023-06-08T00:00:00	2024-11-08T19:00:00	4	Temperatura máxima	21.6
140043	7	Sololá	713	San Lucas Tolimán	10	San Lucas Tolimán	8	Agosto	2023-06-08T00:00:00	2024-11-08T19:00:00	3	Temperatura mínima	21.1
140044	7	Sololá	713	San Lucas Tolimán	10	San Lucas Tolimán	8	Agosto	2023-06-08T00:00:00	2024-11-08T19:00:00	5	Humedad	56
140045	7	Sololá	713	San Lucas Tolimán	10	San Lucas Tolimán	8	Agosto	2023-06-08T00:00:00	2024-11-08T19:00:00	6	Velocidad del viento	4.8
140046	7	Sololá	713	San Lucas Tolimán	10	San Lucas Tolimán	8	Agosto	2023-06-08T00:00:00	2024-11-08T19:00:00	7	Dirección del viento	4.83
140047	7	Sololá	713	San Lucas Tolimán	10	San Lucas Tolimán	8	Agosto	2023-06-08T00:00:00	2024-11-08T19:00:00	1	Precipitación	0
140048	7	Sololá	713	San Lucas Tolimán	10	San Lucas Tolimán	8	Agosto	2023-06-08T00:00:00	2024-11-08T19:00:00	8	Radiación solar	0
140049	7	Sololá	713	San Lucas Tolimán	10	San Lucas Tolimán	8	Agosto	2023-06-08T00:00:00	2024-11-08T20:00:00	2	Temperatura media	21.9
140050	7	Sololá	713	San Lucas Tolimán	10	San Lucas Tolimán	8	Agosto	2023-06-08T00:00:00	2024-11-08T20:00:00	4	Temperatura máxima	22.3
140051	7	Sololá	713	San Lucas Tolimán	10	San Lucas Tolimán	8	Agosto	2023-06-08T00:00:00	2024-11-08T20:00:00	3	Temperatura mínima	21.2
140052	7	Sololá	713	San Lucas Tolimán	10	San Lucas Tolimán	8	Agosto	2023-06-08T00:00:00	2024-11-08T20:00:00	5	Humedad	55
140053	7	Sololá	713	San Lucas Tolimán	10	San Lucas Tolimán	8	Agosto	2023-06-08T00:00:00	2024-11-08T20:00:00	6	Velocidad del viento	3.2
140054	7	Sololá	713	San Lucas Tolimán	10	San Lucas Tolimán	8	Agosto	2023-06-08T00:00:00	2024-11-08T20:00:00	7	Dirección del viento	3.22
140055	7	Sololá	713	San Lucas Tolimán	10	San Lucas Tolimán	8	Agosto	2023-06-08T00:00:00	2024-11-08T20:00:00	1	Precipitación	0
140056	7	Sololá	713	San Lucas Tolimán	10	San Lucas Tolimán	8	Agosto	2023-06-08T00:00:00	2024-11-08T20:00:00	8	Radiación solar	0
140057	7	Sololá	713	San Lucas Tolimán	10	San Lucas Tolimán	8	Agosto	2023-06-08T00:00:00	2024-11-08T21:00:00	2	Temperatura media	21.3
140058	7	Sololá	713	San Lucas Tolimán	10	San Lucas Tolimán	8	Agosto	2023-06-08T00:00:00	2024-11-08T21:00:00	4	Temperatura máxima	22.1
140059	7	Sololá	713	San Lucas Tolimán	10	San Lucas Tolimán	8	Agosto	2023-06-08T00:00:00	2024-11-08T21:00:00	3	Temperatura mínima	20.7
140060	7	Sololá	713	San Lucas Tolimán	10	San Lucas Tolimán	8	Agosto	2023-06-08T00:00:00	2024-11-08T21:00:00	5	Humedad	57
140061	7	Sololá	713	San Lucas Tolimán	10	San Lucas Tolimán	8	Agosto	2023-06-08T00:00:00	2024-11-08T21:00:00	6	Velocidad del viento	4.8
140062	7	Sololá	713	San Lucas Tolimán	10	San Lucas Tolimán	8	Agosto	2023-06-08T00:00:00	2024-11-08T21:00:00	7	Dirección del viento	4.83
140063	7	Sololá	713	San Lucas Tolimán	10	San Lucas Tolimán	8	Agosto	2023-06-08T00:00:00	2024-11-08T21:00:00	1	Precipitación	0
140064	7	Sololá	713	San Lucas Tolimán	10	San Lucas Tolimán	8	Agosto	2023-06-08T00:00:00	2024-11-08T21:00:00	8	Radiación solar	0
140065	7	Sololá	713	San Lucas Tolimán	10	San Lucas Tolimán	8	Agosto	2023-06-08T00:00:00	2024-11-08T22:00:00	2	Temperatura media	22.1
140066	7	Sololá	713	San Lucas Tolimán	10	San Lucas Tolimán	8	Agosto	2023-06-08T00:00:00	2024-11-08T22:00:00	4	Temperatura máxima	22.2
140067	7	Sololá	713	San Lucas Tolimán	10	San Lucas Tolimán	8	Agosto	2023-06-08T00:00:00	2024-11-08T22:00:00	3	Temperatura mínima	21.1
140068	7	Sololá	713	San Lucas Tolimán	10	San Lucas Tolimán	8	Agosto	2023-06-08T00:00:00	2024-11-08T22:00:00	5	Humedad	53
140069	7	Sololá	713	San Lucas Tolimán	10	San Lucas Tolimán	8	Agosto	2023-06-08T00:00:00	2024-11-08T22:00:00	6	Velocidad del viento	11.3
140070	7	Sololá	713	San Lucas Tolimán	10	San Lucas Tolimán	8	Agosto	2023-06-08T00:00:00	2024-11-08T22:00:00	7	Dirección del viento	11.27
140071	7	Sololá	713	San Lucas Tolimán	10	San Lucas Tolimán	8	Agosto	2023-06-08T00:00:00	2024-11-08T22:00:00	1	Precipitación	0
140072	7	Sololá	713	San Lucas Tolimán	10	San Lucas Tolimán	8	Agosto	2023-06-08T00:00:00	2024-11-08T22:00:00	8	Radiación solar	0
140073	7	Sololá	713	San Lucas Tolimán	10	San Lucas Tolimán	8	Agosto	2023-06-08T00:00:00	2024-11-08T23:00:00	2	Temperatura media	21.7
140074	7	Sololá	713	San Lucas Tolimán	10	San Lucas Tolimán	8	Agosto	2023-06-08T00:00:00	2024-11-08T23:00:00	4	Temperatura máxima	22.1
140075	7	Sololá	713	San Lucas Tolimán	10	San Lucas Tolimán	8	Agosto	2023-06-08T00:00:00	2024-11-08T23:00:00	3	Temperatura mínima	21.1
140076	7	Sololá	713	San Lucas Tolimán	10	San Lucas Tolimán	8	Agosto	2023-06-08T00:00:00	2024-11-08T23:00:00	5	Humedad	52
140077	7	Sololá	713	San Lucas Tolimán	10	San Lucas Tolimán	8	Agosto	2023-06-08T00:00:00	2024-11-08T23:00:00	6	Velocidad del viento	12.9
140078	7	Sololá	713	San Lucas Tolimán	10	San Lucas Tolimán	8	Agosto	2023-06-08T00:00:00	2024-11-08T23:00:00	7	Dirección del viento	12.87
140079	7	Sololá	713	San Lucas Tolimán	10	San Lucas Tolimán	8	Agosto	2023-06-08T00:00:00	2024-11-08T23:00:00	1	Precipitación	0
140080	7	Sololá	713	San Lucas Tolimán	10	San Lucas Tolimán	8	Agosto	2023-06-08T00:00:00	2024-11-08T23:00:00	8	Radiación solar	0
140081	7	Sololá	713	San Lucas Tolimán	10	San Lucas Tolimán	8	Agosto	2023-07-08T00:00:00	2024-11-08T00:00:00	2	Temperatura media	20.9
140082	7	Sololá	713	San Lucas Tolimán	10	San Lucas Tolimán	8	Agosto	2023-07-08T00:00:00	2024-11-08T00:00:00	4	Temperatura máxima	21.7
140083	7	Sololá	713	San Lucas Tolimán	10	San Lucas Tolimán	8	Agosto	2023-07-08T00:00:00	2024-11-08T00:00:00	3	Temperatura mínima	20.9
140084	7	Sololá	713	San Lucas Tolimán	10	San Lucas Tolimán	8	Agosto	2023-07-08T00:00:00	2024-11-08T00:00:00	5	Humedad	54
140085	7	Sololá	713	San Lucas Tolimán	10	San Lucas Tolimán	8	Agosto	2023-07-08T00:00:00	2024-11-08T00:00:00	6	Velocidad del viento	4.8
140086	7	Sololá	713	San Lucas Tolimán	10	San Lucas Tolimán	8	Agosto	2023-07-08T00:00:00	2024-11-08T00:00:00	7	Dirección del viento	4.83
140087	7	Sololá	713	San Lucas Tolimán	10	San Lucas Tolimán	8	Agosto	2023-07-08T00:00:00	2024-11-08T00:00:00	1	Precipitación	0
140088	7	Sololá	713	San Lucas Tolimán	10	San Lucas Tolimán	8	Agosto	2023-07-08T00:00:00	2024-11-08T00:00:00	8	Radiación solar	0
140089	7	Sololá	713	San Lucas Tolimán	10	San Lucas Tolimán	8	Agosto	2023-07-08T00:00:00	2024-11-08T01:00:00	2	Temperatura media	19.6
140090	7	Sololá	713	San Lucas Tolimán	10	San Lucas Tolimán	8	Agosto	2023-07-08T00:00:00	2024-11-08T01:00:00	4	Temperatura máxima	20.9
140091	7	Sololá	713	San Lucas Tolimán	10	San Lucas Tolimán	8	Agosto	2023-07-08T00:00:00	2024-11-08T01:00:00	3	Temperatura mínima	19.6
140092	7	Sololá	713	San Lucas Tolimán	10	San Lucas Tolimán	8	Agosto	2023-07-08T00:00:00	2024-11-08T01:00:00	5	Humedad	59
140093	7	Sololá	713	San Lucas Tolimán	10	San Lucas Tolimán	8	Agosto	2023-07-08T00:00:00	2024-11-08T01:00:00	6	Velocidad del viento	0
140094	7	Sololá	713	San Lucas Tolimán	10	San Lucas Tolimán	8	Agosto	2023-07-08T00:00:00	2024-11-08T01:00:00	7	Dirección del viento	0
140095	7	Sololá	713	San Lucas Tolimán	10	San Lucas Tolimán	8	Agosto	2023-07-08T00:00:00	2024-11-08T01:00:00	1	Precipitación	0
140096	7	Sololá	713	San Lucas Tolimán	10	San Lucas Tolimán	8	Agosto	2023-07-08T00:00:00	2024-11-08T01:00:00	8	Radiación solar	0
140097	7	Sololá	713	San Lucas Tolimán	10	San Lucas Tolimán	8	Agosto	2023-07-08T00:00:00	2024-11-08T02:00:00	2	Temperatura media	19.6
140098	7	Sololá	713	San Lucas Tolimán	10	San Lucas Tolimán	8	Agosto	2023-07-08T00:00:00	2024-11-08T02:00:00	4	Temperatura máxima	19.7
140099	7	Sololá	713	San Lucas Tolimán	10	San Lucas Tolimán	8	Agosto	2023-07-08T00:00:00	2024-11-08T02:00:00	3	Temperatura mínima	19.3
140100	7	Sololá	713	San Lucas Tolimán	10	San Lucas Tolimán	8	Agosto	2023-07-08T00:00:00	2024-11-08T02:00:00	5	Humedad	58
140101	7	Sololá	713	San Lucas Tolimán	10	San Lucas Tolimán	8	Agosto	2023-07-08T00:00:00	2024-11-08T02:00:00	6	Velocidad del viento	1.6
140102	7	Sololá	713	San Lucas Tolimán	10	San Lucas Tolimán	8	Agosto	2023-07-08T00:00:00	2024-11-08T02:00:00	7	Dirección del viento	1.61
140103	7	Sololá	713	San Lucas Tolimán	10	San Lucas Tolimán	8	Agosto	2023-07-08T00:00:00	2024-11-08T02:00:00	1	Precipitación	0
140104	7	Sololá	713	San Lucas Tolimán	10	San Lucas Tolimán	8	Agosto	2023-07-08T00:00:00	2024-11-08T02:00:00	8	Radiación solar	0
140105	7	Sololá	713	San Lucas Tolimán	10	San Lucas Tolimán	8	Agosto	2023-07-08T00:00:00	2024-11-08T03:00:00	2	Temperatura media	19.3
140106	7	Sololá	713	San Lucas Tolimán	10	San Lucas Tolimán	8	Agosto	2023-07-08T00:00:00	2024-11-08T03:00:00	4	Temperatura máxima	19.6
140107	7	Sololá	713	San Lucas Tolimán	10	San Lucas Tolimán	8	Agosto	2023-07-08T00:00:00	2024-11-08T03:00:00	3	Temperatura mínima	18.9
140108	7	Sololá	713	San Lucas Tolimán	10	San Lucas Tolimán	8	Agosto	2023-07-08T00:00:00	2024-11-08T03:00:00	5	Humedad	59
140109	7	Sololá	713	San Lucas Tolimán	10	San Lucas Tolimán	8	Agosto	2023-07-08T00:00:00	2024-11-08T03:00:00	6	Velocidad del viento	3.2
140110	7	Sololá	713	San Lucas Tolimán	10	San Lucas Tolimán	8	Agosto	2023-07-08T00:00:00	2024-11-08T03:00:00	7	Dirección del viento	3.22
140111	7	Sololá	713	San Lucas Tolimán	10	San Lucas Tolimán	8	Agosto	2023-07-08T00:00:00	2024-11-08T03:00:00	1	Precipitación	0
140112	7	Sololá	713	San Lucas Tolimán	10	San Lucas Tolimán	8	Agosto	2023-07-08T00:00:00	2024-11-08T03:00:00	8	Radiación solar	0
140113	7	Sololá	713	San Lucas Tolimán	10	San Lucas Tolimán	8	Agosto	2023-07-08T00:00:00	2024-11-08T04:00:00	2	Temperatura media	17.4
140114	7	Sololá	713	San Lucas Tolimán	10	San Lucas Tolimán	8	Agosto	2023-07-08T00:00:00	2024-11-08T04:00:00	4	Temperatura máxima	19.3
140115	7	Sololá	713	San Lucas Tolimán	10	San Lucas Tolimán	8	Agosto	2023-07-08T00:00:00	2024-11-08T04:00:00	3	Temperatura mínima	17.4
140116	7	Sololá	713	San Lucas Tolimán	10	San Lucas Tolimán	8	Agosto	2023-07-08T00:00:00	2024-11-08T04:00:00	5	Humedad	62
140117	7	Sololá	713	San Lucas Tolimán	10	San Lucas Tolimán	8	Agosto	2023-07-08T00:00:00	2024-11-08T04:00:00	6	Velocidad del viento	1.6
140118	7	Sololá	713	San Lucas Tolimán	10	San Lucas Tolimán	8	Agosto	2023-07-08T00:00:00	2024-11-08T04:00:00	7	Dirección del viento	1.61
140119	7	Sololá	713	San Lucas Tolimán	10	San Lucas Tolimán	8	Agosto	2023-07-08T00:00:00	2024-11-08T04:00:00	1	Precipitación	0
140120	7	Sololá	713	San Lucas Tolimán	10	San Lucas Tolimán	8	Agosto	2023-07-08T00:00:00	2024-11-08T04:00:00	8	Radiación solar	0
140121	7	Sololá	713	San Lucas Tolimán	10	San Lucas Tolimán	8	Agosto	2023-07-08T00:00:00	2024-11-08T05:00:00	2	Temperatura media	17.5
140122	7	Sololá	713	San Lucas Tolimán	10	San Lucas Tolimán	8	Agosto	2023-07-08T00:00:00	2024-11-08T05:00:00	4	Temperatura máxima	17.9
140123	7	Sololá	713	San Lucas Tolimán	10	San Lucas Tolimán	8	Agosto	2023-07-08T00:00:00	2024-11-08T05:00:00	3	Temperatura mínima	17.1
140124	7	Sololá	713	San Lucas Tolimán	10	San Lucas Tolimán	8	Agosto	2023-07-08T00:00:00	2024-11-08T05:00:00	5	Humedad	61
140125	7	Sololá	713	San Lucas Tolimán	10	San Lucas Tolimán	8	Agosto	2023-07-08T00:00:00	2024-11-08T05:00:00	6	Velocidad del viento	1.6
140126	7	Sololá	713	San Lucas Tolimán	10	San Lucas Tolimán	8	Agosto	2023-07-08T00:00:00	2024-11-08T05:00:00	7	Dirección del viento	1.61
140127	7	Sololá	713	San Lucas Tolimán	10	San Lucas Tolimán	8	Agosto	2023-07-08T00:00:00	2024-11-08T05:00:00	1	Precipitación	0
140128	7	Sololá	713	San Lucas Tolimán	10	San Lucas Tolimán	8	Agosto	2023-07-08T00:00:00	2024-11-08T05:00:00	8	Radiación solar	0
140129	7	Sololá	713	San Lucas Tolimán	10	San Lucas Tolimán	8	Agosto	2023-07-08T00:00:00	2024-11-08T06:00:00	2	Temperatura media	17.8
140130	7	Sololá	713	San Lucas Tolimán	10	San Lucas Tolimán	8	Agosto	2023-07-08T00:00:00	2024-11-08T06:00:00	4	Temperatura máxima	18.3
140131	7	Sololá	713	San Lucas Tolimán	10	San Lucas Tolimán	8	Agosto	2023-07-08T00:00:00	2024-11-08T06:00:00	3	Temperatura mínima	17.5
140132	7	Sololá	713	San Lucas Tolimán	10	San Lucas Tolimán	8	Agosto	2023-07-08T00:00:00	2024-11-08T06:00:00	5	Humedad	61
140133	7	Sololá	713	San Lucas Tolimán	10	San Lucas Tolimán	8	Agosto	2023-07-08T00:00:00	2024-11-08T06:00:00	6	Velocidad del viento	1.6
140134	7	Sololá	713	San Lucas Tolimán	10	San Lucas Tolimán	8	Agosto	2023-07-08T00:00:00	2024-11-08T06:00:00	7	Dirección del viento	1.61
140135	7	Sololá	713	San Lucas Tolimán	10	San Lucas Tolimán	8	Agosto	2023-07-08T00:00:00	2024-11-08T06:00:00	1	Precipitación	0
140136	7	Sololá	713	San Lucas Tolimán	10	San Lucas Tolimán	8	Agosto	2023-07-08T00:00:00	2024-11-08T06:00:00	8	Radiación solar	1
140137	7	Sololá	713	San Lucas Tolimán	10	San Lucas Tolimán	8	Agosto	2023-07-08T00:00:00	2024-11-08T07:00:00	2	Temperatura media	19.3
140138	7	Sololá	713	San Lucas Tolimán	10	San Lucas Tolimán	8	Agosto	2023-07-08T00:00:00	2024-11-08T07:00:00	4	Temperatura máxima	19.3
140139	7	Sololá	713	San Lucas Tolimán	10	San Lucas Tolimán	8	Agosto	2023-07-08T00:00:00	2024-11-08T07:00:00	3	Temperatura mínima	17.8
140140	7	Sololá	713	San Lucas Tolimán	10	San Lucas Tolimán	8	Agosto	2023-07-08T00:00:00	2024-11-08T07:00:00	5	Humedad	59
140141	7	Sololá	713	San Lucas Tolimán	10	San Lucas Tolimán	8	Agosto	2023-07-08T00:00:00	2024-11-08T07:00:00	6	Velocidad del viento	3.2
140142	7	Sololá	713	San Lucas Tolimán	10	San Lucas Tolimán	8	Agosto	2023-07-08T00:00:00	2024-11-08T07:00:00	7	Dirección del viento	3.22
140143	7	Sololá	713	San Lucas Tolimán	10	San Lucas Tolimán	8	Agosto	2023-07-08T00:00:00	2024-11-08T07:00:00	1	Precipitación	0
140144	7	Sololá	713	San Lucas Tolimán	10	San Lucas Tolimán	8	Agosto	2023-07-08T00:00:00	2024-11-08T07:00:00	8	Radiación solar	55
140145	7	Sololá	713	San Lucas Tolimán	10	San Lucas Tolimán	8	Agosto	2023-07-08T00:00:00	2024-11-08T08:00:00	2	Temperatura media	22.2
140146	7	Sololá	713	San Lucas Tolimán	10	San Lucas Tolimán	8	Agosto	2023-07-08T00:00:00	2024-11-08T08:00:00	4	Temperatura máxima	22.3
140147	7	Sololá	713	San Lucas Tolimán	10	San Lucas Tolimán	8	Agosto	2023-07-08T00:00:00	2024-11-08T08:00:00	3	Temperatura mínima	19.3
140148	7	Sololá	713	San Lucas Tolimán	10	San Lucas Tolimán	8	Agosto	2023-07-08T00:00:00	2024-11-08T08:00:00	5	Humedad	50
140149	7	Sololá	713	San Lucas Tolimán	10	San Lucas Tolimán	8	Agosto	2023-07-08T00:00:00	2024-11-08T08:00:00	6	Velocidad del viento	6.4
140150	7	Sololá	713	San Lucas Tolimán	10	San Lucas Tolimán	8	Agosto	2023-07-08T00:00:00	2024-11-08T08:00:00	7	Dirección del viento	6.44
140151	7	Sololá	713	San Lucas Tolimán	10	San Lucas Tolimán	8	Agosto	2023-07-08T00:00:00	2024-11-08T08:00:00	1	Precipitación	0
140152	7	Sololá	713	San Lucas Tolimán	10	San Lucas Tolimán	8	Agosto	2023-07-08T00:00:00	2024-11-08T08:00:00	8	Radiación solar	308
140153	7	Sololá	713	San Lucas Tolimán	10	San Lucas Tolimán	8	Agosto	2023-07-08T00:00:00	2024-11-08T09:00:00	2	Temperatura media	24.1
140154	7	Sololá	713	San Lucas Tolimán	10	San Lucas Tolimán	8	Agosto	2023-07-08T00:00:00	2024-11-08T09:00:00	4	Temperatura máxima	24.1
140155	7	Sololá	713	San Lucas Tolimán	10	San Lucas Tolimán	8	Agosto	2023-07-08T00:00:00	2024-11-08T09:00:00	3	Temperatura mínima	22.2
140156	7	Sololá	713	San Lucas Tolimán	10	San Lucas Tolimán	8	Agosto	2023-07-08T00:00:00	2024-11-08T09:00:00	5	Humedad	43
140157	7	Sololá	713	San Lucas Tolimán	10	San Lucas Tolimán	8	Agosto	2023-07-08T00:00:00	2024-11-08T09:00:00	6	Velocidad del viento	4.8
140158	7	Sololá	713	San Lucas Tolimán	10	San Lucas Tolimán	8	Agosto	2023-07-08T00:00:00	2024-11-08T09:00:00	7	Dirección del viento	4.83
140159	7	Sololá	713	San Lucas Tolimán	10	San Lucas Tolimán	8	Agosto	2023-07-08T00:00:00	2024-11-08T09:00:00	1	Precipitación	0
140160	7	Sololá	713	San Lucas Tolimán	10	San Lucas Tolimán	8	Agosto	2023-07-08T00:00:00	2024-11-08T09:00:00	8	Radiación solar	569
140161	7	Sololá	713	San Lucas Tolimán	10	San Lucas Tolimán	8	Agosto	2023-07-08T00:00:00	2024-11-08T10:00:00	2	Temperatura media	24.5
140162	7	Sololá	713	San Lucas Tolimán	10	San Lucas Tolimán	8	Agosto	2023-07-08T00:00:00	2024-11-08T10:00:00	4	Temperatura máxima	24.5
140163	7	Sololá	713	San Lucas Tolimán	10	San Lucas Tolimán	8	Agosto	2023-07-08T00:00:00	2024-11-08T10:00:00	3	Temperatura mínima	23.9
140164	7	Sololá	713	San Lucas Tolimán	10	San Lucas Tolimán	8	Agosto	2023-07-08T00:00:00	2024-11-08T10:00:00	5	Humedad	43
140165	7	Sololá	713	San Lucas Tolimán	10	San Lucas Tolimán	8	Agosto	2023-07-08T00:00:00	2024-11-08T10:00:00	6	Velocidad del viento	12.9
140166	7	Sololá	713	San Lucas Tolimán	10	San Lucas Tolimán	8	Agosto	2023-07-08T00:00:00	2024-11-08T10:00:00	7	Dirección del viento	12.87
140167	7	Sololá	713	San Lucas Tolimán	10	San Lucas Tolimán	8	Agosto	2023-07-08T00:00:00	2024-11-08T10:00:00	1	Precipitación	0
140168	7	Sololá	713	San Lucas Tolimán	10	San Lucas Tolimán	8	Agosto	2023-07-08T00:00:00	2024-11-08T10:00:00	8	Radiación solar	775
140169	7	Sololá	713	San Lucas Tolimán	10	San Lucas Tolimán	8	Agosto	2023-07-08T00:00:00	2024-11-08T11:00:00	2	Temperatura media	25.9
140170	7	Sololá	713	San Lucas Tolimán	10	San Lucas Tolimán	8	Agosto	2023-07-08T00:00:00	2024-11-08T11:00:00	4	Temperatura máxima	25.9
140171	7	Sololá	713	San Lucas Tolimán	10	San Lucas Tolimán	8	Agosto	2023-07-08T00:00:00	2024-11-08T11:00:00	3	Temperatura mínima	24.5
140172	7	Sololá	713	San Lucas Tolimán	10	San Lucas Tolimán	8	Agosto	2023-07-08T00:00:00	2024-11-08T11:00:00	5	Humedad	41
140173	7	Sololá	713	San Lucas Tolimán	10	San Lucas Tolimán	8	Agosto	2023-07-08T00:00:00	2024-11-08T11:00:00	6	Velocidad del viento	14.5
140174	7	Sololá	713	San Lucas Tolimán	10	San Lucas Tolimán	8	Agosto	2023-07-08T00:00:00	2024-11-08T11:00:00	7	Dirección del viento	14.48
140175	7	Sololá	713	San Lucas Tolimán	10	San Lucas Tolimán	8	Agosto	2023-07-08T00:00:00	2024-11-08T11:00:00	1	Precipitación	0
140176	7	Sololá	713	San Lucas Tolimán	10	San Lucas Tolimán	8	Agosto	2023-07-08T00:00:00	2024-11-08T11:00:00	8	Radiación solar	973
140177	7	Sololá	713	San Lucas Tolimán	10	San Lucas Tolimán	8	Agosto	2023-07-08T00:00:00	2024-11-08T12:00:00	2	Temperatura media	26
140178	7	Sololá	713	San Lucas Tolimán	10	San Lucas Tolimán	8	Agosto	2023-07-08T00:00:00	2024-11-08T12:00:00	4	Temperatura máxima	26
140179	7	Sololá	713	San Lucas Tolimán	10	San Lucas Tolimán	8	Agosto	2023-07-08T00:00:00	2024-11-08T12:00:00	3	Temperatura mínima	25.2
140180	7	Sololá	713	San Lucas Tolimán	10	San Lucas Tolimán	8	Agosto	2023-07-08T00:00:00	2024-11-08T12:00:00	5	Humedad	39
140181	7	Sololá	713	San Lucas Tolimán	10	San Lucas Tolimán	8	Agosto	2023-07-08T00:00:00	2024-11-08T12:00:00	6	Velocidad del viento	14.5
140182	7	Sololá	713	San Lucas Tolimán	10	San Lucas Tolimán	8	Agosto	2023-07-08T00:00:00	2024-11-08T12:00:00	7	Dirección del viento	14.48
140183	7	Sololá	713	San Lucas Tolimán	10	San Lucas Tolimán	8	Agosto	2023-07-08T00:00:00	2024-11-08T12:00:00	1	Precipitación	0
140184	7	Sololá	713	San Lucas Tolimán	10	San Lucas Tolimán	8	Agosto	2023-07-08T00:00:00	2024-11-08T12:00:00	8	Radiación solar	1066
140185	7	Sololá	713	San Lucas Tolimán	10	San Lucas Tolimán	8	Agosto	2023-07-08T00:00:00	2024-11-08T13:00:00	2	Temperatura media	25.9
140186	7	Sololá	713	San Lucas Tolimán	10	San Lucas Tolimán	8	Agosto	2023-07-08T00:00:00	2024-11-08T13:00:00	4	Temperatura máxima	27.1
140187	7	Sololá	713	San Lucas Tolimán	10	San Lucas Tolimán	8	Agosto	2023-07-08T00:00:00	2024-11-08T13:00:00	3	Temperatura mínima	25.9
140188	7	Sololá	713	San Lucas Tolimán	10	San Lucas Tolimán	8	Agosto	2023-07-08T00:00:00	2024-11-08T13:00:00	5	Humedad	56
140189	7	Sololá	713	San Lucas Tolimán	10	San Lucas Tolimán	8	Agosto	2023-07-08T00:00:00	2024-11-08T13:00:00	6	Velocidad del viento	11.3
140190	7	Sololá	713	San Lucas Tolimán	10	San Lucas Tolimán	8	Agosto	2023-07-08T00:00:00	2024-11-08T13:00:00	7	Dirección del viento	11.27
140191	7	Sololá	713	San Lucas Tolimán	10	San Lucas Tolimán	8	Agosto	2023-07-08T00:00:00	2024-11-08T13:00:00	1	Precipitación	0
140192	7	Sololá	713	San Lucas Tolimán	10	San Lucas Tolimán	8	Agosto	2023-07-08T00:00:00	2024-11-08T13:00:00	8	Radiación solar	1067
140193	7	Sololá	713	San Lucas Tolimán	10	San Lucas Tolimán	8	Agosto	2023-07-08T00:00:00	2024-11-08T14:00:00	2	Temperatura media	24.2
140194	7	Sololá	713	San Lucas Tolimán	10	San Lucas Tolimán	8	Agosto	2023-07-08T00:00:00	2024-11-08T14:00:00	4	Temperatura máxima	25.9
140195	7	Sololá	713	San Lucas Tolimán	10	San Lucas Tolimán	8	Agosto	2023-07-08T00:00:00	2024-11-08T14:00:00	3	Temperatura mínima	23.6
140196	7	Sololá	713	San Lucas Tolimán	10	San Lucas Tolimán	8	Agosto	2023-07-08T00:00:00	2024-11-08T14:00:00	5	Humedad	59
140197	7	Sololá	713	San Lucas Tolimán	10	San Lucas Tolimán	8	Agosto	2023-07-08T00:00:00	2024-11-08T14:00:00	6	Velocidad del viento	9.7
140198	7	Sololá	713	San Lucas Tolimán	10	San Lucas Tolimán	8	Agosto	2023-07-08T00:00:00	2024-11-08T14:00:00	7	Dirección del viento	9.66
140199	7	Sololá	713	San Lucas Tolimán	10	San Lucas Tolimán	8	Agosto	2023-07-08T00:00:00	2024-11-08T14:00:00	1	Precipitación	0
140200	7	Sololá	713	San Lucas Tolimán	10	San Lucas Tolimán	8	Agosto	2023-07-08T00:00:00	2024-11-08T14:00:00	8	Radiación solar	785
140201	7	Sololá	713	San Lucas Tolimán	10	San Lucas Tolimán	8	Agosto	2023-07-08T00:00:00	2024-11-08T15:00:00	2	Temperatura media	25.3
140202	7	Sololá	713	San Lucas Tolimán	10	San Lucas Tolimán	8	Agosto	2023-07-08T00:00:00	2024-11-08T15:00:00	4	Temperatura máxima	26.6
140203	7	Sololá	713	San Lucas Tolimán	10	San Lucas Tolimán	8	Agosto	2023-07-08T00:00:00	2024-11-08T15:00:00	3	Temperatura mínima	24.1
140204	7	Sololá	713	San Lucas Tolimán	10	San Lucas Tolimán	8	Agosto	2023-07-08T00:00:00	2024-11-08T15:00:00	5	Humedad	58
140205	7	Sololá	713	San Lucas Tolimán	10	San Lucas Tolimán	8	Agosto	2023-07-08T00:00:00	2024-11-08T15:00:00	6	Velocidad del viento	8
140206	7	Sololá	713	San Lucas Tolimán	10	San Lucas Tolimán	8	Agosto	2023-07-08T00:00:00	2024-11-08T15:00:00	7	Dirección del viento	8.05
140207	7	Sololá	713	San Lucas Tolimán	10	San Lucas Tolimán	8	Agosto	2023-07-08T00:00:00	2024-11-08T15:00:00	1	Precipitación	0
140208	7	Sololá	713	San Lucas Tolimán	10	San Lucas Tolimán	8	Agosto	2023-07-08T00:00:00	2024-11-08T15:00:00	8	Radiación solar	940
140209	7	Sololá	713	San Lucas Tolimán	10	San Lucas Tolimán	8	Agosto	2023-07-08T00:00:00	2024-11-08T16:00:00	2	Temperatura media	23.2
140210	7	Sololá	713	San Lucas Tolimán	10	San Lucas Tolimán	8	Agosto	2023-07-08T00:00:00	2024-11-08T16:00:00	4	Temperatura máxima	25.6
140211	7	Sololá	713	San Lucas Tolimán	10	San Lucas Tolimán	8	Agosto	2023-07-08T00:00:00	2024-11-08T16:00:00	3	Temperatura mínima	23.2
140212	7	Sololá	713	San Lucas Tolimán	10	San Lucas Tolimán	8	Agosto	2023-07-08T00:00:00	2024-11-08T16:00:00	5	Humedad	62
140213	7	Sololá	713	San Lucas Tolimán	10	San Lucas Tolimán	8	Agosto	2023-07-08T00:00:00	2024-11-08T16:00:00	6	Velocidad del viento	11.3
140214	7	Sololá	713	San Lucas Tolimán	10	San Lucas Tolimán	8	Agosto	2023-07-08T00:00:00	2024-11-08T16:00:00	7	Dirección del viento	11.27
140215	7	Sololá	713	San Lucas Tolimán	10	San Lucas Tolimán	8	Agosto	2023-07-08T00:00:00	2024-11-08T16:00:00	1	Precipitación	0
140216	7	Sololá	713	San Lucas Tolimán	10	San Lucas Tolimán	8	Agosto	2023-07-08T00:00:00	2024-11-08T16:00:00	8	Radiación solar	691
140217	7	Sololá	713	San Lucas Tolimán	10	San Lucas Tolimán	8	Agosto	2023-07-08T00:00:00	2024-11-08T17:00:00	2	Temperatura media	23.4
140218	7	Sololá	713	San Lucas Tolimán	10	San Lucas Tolimán	8	Agosto	2023-07-08T00:00:00	2024-11-08T17:00:00	4	Temperatura máxima	23.7
140219	7	Sololá	713	San Lucas Tolimán	10	San Lucas Tolimán	8	Agosto	2023-07-08T00:00:00	2024-11-08T17:00:00	3	Temperatura mínima	23.1
140220	7	Sololá	713	San Lucas Tolimán	10	San Lucas Tolimán	8	Agosto	2023-07-08T00:00:00	2024-11-08T17:00:00	5	Humedad	61
140221	7	Sololá	713	San Lucas Tolimán	10	San Lucas Tolimán	8	Agosto	2023-07-08T00:00:00	2024-11-08T17:00:00	6	Velocidad del viento	9.7
140222	7	Sololá	713	San Lucas Tolimán	10	San Lucas Tolimán	8	Agosto	2023-07-08T00:00:00	2024-11-08T17:00:00	7	Dirección del viento	9.66
140223	7	Sololá	713	San Lucas Tolimán	10	San Lucas Tolimán	8	Agosto	2023-07-08T00:00:00	2024-11-08T17:00:00	1	Precipitación	0
140224	7	Sololá	713	San Lucas Tolimán	10	San Lucas Tolimán	8	Agosto	2023-07-08T00:00:00	2024-11-08T17:00:00	8	Radiación solar	429
140225	7	Sololá	713	San Lucas Tolimán	10	San Lucas Tolimán	8	Agosto	2023-07-08T00:00:00	2024-11-08T18:00:00	2	Temperatura media	22.2
140226	7	Sololá	713	San Lucas Tolimán	10	San Lucas Tolimán	8	Agosto	2023-07-08T00:00:00	2024-11-08T18:00:00	4	Temperatura máxima	23.9
140227	7	Sololá	713	San Lucas Tolimán	10	San Lucas Tolimán	8	Agosto	2023-07-08T00:00:00	2024-11-08T18:00:00	3	Temperatura mínima	21.9
140228	7	Sololá	713	San Lucas Tolimán	10	San Lucas Tolimán	8	Agosto	2023-07-08T00:00:00	2024-11-08T18:00:00	5	Humedad	58
140229	7	Sololá	713	San Lucas Tolimán	10	San Lucas Tolimán	8	Agosto	2023-07-08T00:00:00	2024-11-08T18:00:00	6	Velocidad del viento	8
140230	7	Sololá	713	San Lucas Tolimán	10	San Lucas Tolimán	8	Agosto	2023-07-08T00:00:00	2024-11-08T18:00:00	7	Dirección del viento	8.05
140231	7	Sololá	713	San Lucas Tolimán	10	San Lucas Tolimán	8	Agosto	2023-07-08T00:00:00	2024-11-08T18:00:00	1	Precipitación	0
140232	7	Sololá	713	San Lucas Tolimán	10	San Lucas Tolimán	8	Agosto	2023-07-08T00:00:00	2024-11-08T18:00:00	8	Radiación solar	219
140233	7	Sololá	713	San Lucas Tolimán	10	San Lucas Tolimán	8	Agosto	2023-07-08T00:00:00	2024-11-08T19:00:00	2	Temperatura media	20.8
140234	7	Sololá	713	San Lucas Tolimán	10	San Lucas Tolimán	8	Agosto	2023-07-08T00:00:00	2024-11-08T19:00:00	4	Temperatura máxima	22.3
140235	7	Sololá	713	San Lucas Tolimán	10	San Lucas Tolimán	8	Agosto	2023-07-08T00:00:00	2024-11-08T19:00:00	3	Temperatura mínima	20.8
140236	7	Sololá	713	San Lucas Tolimán	10	San Lucas Tolimán	8	Agosto	2023-07-08T00:00:00	2024-11-08T19:00:00	5	Humedad	61
140237	7	Sololá	713	San Lucas Tolimán	10	San Lucas Tolimán	8	Agosto	2023-07-08T00:00:00	2024-11-08T19:00:00	6	Velocidad del viento	6.4
140238	7	Sololá	713	San Lucas Tolimán	10	San Lucas Tolimán	8	Agosto	2023-07-08T00:00:00	2024-11-08T19:00:00	7	Dirección del viento	6.44
140239	7	Sololá	713	San Lucas Tolimán	10	San Lucas Tolimán	8	Agosto	2023-07-08T00:00:00	2024-11-08T19:00:00	1	Precipitación	0
140240	7	Sololá	713	San Lucas Tolimán	10	San Lucas Tolimán	8	Agosto	2023-07-08T00:00:00	2024-11-08T19:00:00	8	Radiación solar	0
140241	7	Sololá	713	San Lucas Tolimán	10	San Lucas Tolimán	8	Agosto	2023-07-08T00:00:00	2024-11-08T20:00:00	2	Temperatura media	20.1
140242	7	Sololá	713	San Lucas Tolimán	10	San Lucas Tolimán	8	Agosto	2023-07-08T00:00:00	2024-11-08T20:00:00	4	Temperatura máxima	20.8
140243	7	Sololá	713	San Lucas Tolimán	10	San Lucas Tolimán	8	Agosto	2023-07-08T00:00:00	2024-11-08T20:00:00	3	Temperatura mínima	20
140244	7	Sololá	713	San Lucas Tolimán	10	San Lucas Tolimán	8	Agosto	2023-07-08T00:00:00	2024-11-08T20:00:00	5	Humedad	60
140245	7	Sololá	713	San Lucas Tolimán	10	San Lucas Tolimán	8	Agosto	2023-07-08T00:00:00	2024-11-08T20:00:00	6	Velocidad del viento	4.8
140246	7	Sololá	713	San Lucas Tolimán	10	San Lucas Tolimán	8	Agosto	2023-07-08T00:00:00	2024-11-08T20:00:00	7	Dirección del viento	4.83
140247	7	Sololá	713	San Lucas Tolimán	10	San Lucas Tolimán	8	Agosto	2023-07-08T00:00:00	2024-11-08T20:00:00	1	Precipitación	0
140248	7	Sololá	713	San Lucas Tolimán	10	San Lucas Tolimán	8	Agosto	2023-07-08T00:00:00	2024-11-08T20:00:00	8	Radiación solar	0
140249	7	Sololá	713	San Lucas Tolimán	10	San Lucas Tolimán	8	Agosto	2023-07-08T00:00:00	2024-11-08T21:00:00	2	Temperatura media	21.6
140250	7	Sololá	713	San Lucas Tolimán	10	San Lucas Tolimán	8	Agosto	2023-07-08T00:00:00	2024-11-08T21:00:00	4	Temperatura máxima	21.6
140251	7	Sololá	713	San Lucas Tolimán	10	San Lucas Tolimán	8	Agosto	2023-07-08T00:00:00	2024-11-08T21:00:00	3	Temperatura mínima	20
140252	7	Sololá	713	San Lucas Tolimán	10	San Lucas Tolimán	8	Agosto	2023-07-08T00:00:00	2024-11-08T21:00:00	5	Humedad	56
140253	7	Sololá	713	San Lucas Tolimán	10	San Lucas Tolimán	8	Agosto	2023-07-08T00:00:00	2024-11-08T21:00:00	6	Velocidad del viento	1.6
140254	7	Sololá	713	San Lucas Tolimán	10	San Lucas Tolimán	8	Agosto	2023-07-08T00:00:00	2024-11-08T21:00:00	7	Dirección del viento	1.61
140255	7	Sololá	713	San Lucas Tolimán	10	San Lucas Tolimán	8	Agosto	2023-07-08T00:00:00	2024-11-08T21:00:00	1	Precipitación	0
140256	7	Sololá	713	San Lucas Tolimán	10	San Lucas Tolimán	8	Agosto	2023-07-08T00:00:00	2024-11-08T21:00:00	8	Radiación solar	0
140257	7	Sololá	713	San Lucas Tolimán	10	San Lucas Tolimán	8	Agosto	2023-07-08T00:00:00	2024-11-08T22:00:00	2	Temperatura media	20.4
140258	7	Sololá	713	San Lucas Tolimán	10	San Lucas Tolimán	8	Agosto	2023-07-08T00:00:00	2024-11-08T22:00:00	4	Temperatura máxima	22.1
140259	7	Sololá	713	San Lucas Tolimán	10	San Lucas Tolimán	8	Agosto	2023-07-08T00:00:00	2024-11-08T22:00:00	3	Temperatura mínima	20.4
140260	7	Sololá	713	San Lucas Tolimán	10	San Lucas Tolimán	8	Agosto	2023-07-08T00:00:00	2024-11-08T22:00:00	5	Humedad	60
140261	7	Sololá	713	San Lucas Tolimán	10	San Lucas Tolimán	8	Agosto	2023-07-08T00:00:00	2024-11-08T22:00:00	6	Velocidad del viento	3.2
140262	7	Sololá	713	San Lucas Tolimán	10	San Lucas Tolimán	8	Agosto	2023-07-08T00:00:00	2024-11-08T22:00:00	7	Dirección del viento	3.22
140263	7	Sololá	713	San Lucas Tolimán	10	San Lucas Tolimán	8	Agosto	2023-07-08T00:00:00	2024-11-08T22:00:00	1	Precipitación	0
140264	7	Sololá	713	San Lucas Tolimán	10	San Lucas Tolimán	8	Agosto	2023-07-08T00:00:00	2024-11-08T22:00:00	8	Radiación solar	0
140265	7	Sololá	713	San Lucas Tolimán	10	San Lucas Tolimán	8	Agosto	2023-07-08T00:00:00	2024-11-08T23:00:00	2	Temperatura media	21.8
140266	7	Sololá	713	San Lucas Tolimán	10	San Lucas Tolimán	8	Agosto	2023-07-08T00:00:00	2024-11-08T23:00:00	4	Temperatura máxima	21.9
140267	7	Sololá	713	San Lucas Tolimán	10	San Lucas Tolimán	8	Agosto	2023-07-08T00:00:00	2024-11-08T23:00:00	3	Temperatura mínima	19.9
140268	7	Sololá	713	San Lucas Tolimán	10	San Lucas Tolimán	8	Agosto	2023-07-08T00:00:00	2024-11-08T23:00:00	5	Humedad	54
140269	7	Sololá	713	San Lucas Tolimán	10	San Lucas Tolimán	8	Agosto	2023-07-08T00:00:00	2024-11-08T23:00:00	6	Velocidad del viento	6.4
140270	7	Sololá	713	San Lucas Tolimán	10	San Lucas Tolimán	8	Agosto	2023-07-08T00:00:00	2024-11-08T23:00:00	7	Dirección del viento	6.44
140271	7	Sololá	713	San Lucas Tolimán	10	San Lucas Tolimán	8	Agosto	2023-07-08T00:00:00	2024-11-08T23:00:00	1	Precipitación	0
140272	7	Sololá	713	San Lucas Tolimán	10	San Lucas Tolimán	8	Agosto	2023-07-08T00:00:00	2024-11-08T23:00:00	8	Radiación solar	0
140273	7	Sololá	713	San Lucas Tolimán	10	San Lucas Tolimán	8	Agosto	2023-08-08T00:00:00	2024-11-08T00:00:00	2	Temperatura media	21.6
140274	7	Sololá	713	San Lucas Tolimán	10	San Lucas Tolimán	8	Agosto	2023-08-08T00:00:00	2024-11-08T00:00:00	4	Temperatura máxima	21.9
140275	7	Sololá	713	San Lucas Tolimán	10	San Lucas Tolimán	8	Agosto	2023-08-08T00:00:00	2024-11-08T00:00:00	3	Temperatura mínima	21.1
140276	7	Sololá	713	San Lucas Tolimán	10	San Lucas Tolimán	8	Agosto	2023-08-08T00:00:00	2024-11-08T00:00:00	5	Humedad	72
140277	7	Sololá	713	San Lucas Tolimán	10	San Lucas Tolimán	8	Agosto	2023-08-08T00:00:00	2024-11-08T00:00:00	6	Velocidad del viento	3.2
140278	7	Sololá	713	San Lucas Tolimán	10	San Lucas Tolimán	8	Agosto	2023-08-08T00:00:00	2024-11-08T00:00:00	7	Dirección del viento	3.22
140279	7	Sololá	713	San Lucas Tolimán	10	San Lucas Tolimán	8	Agosto	2023-08-08T00:00:00	2024-11-08T00:00:00	1	Precipitación	0
140280	7	Sololá	713	San Lucas Tolimán	10	San Lucas Tolimán	8	Agosto	2023-08-08T00:00:00	2024-11-08T00:00:00	8	Radiación solar	0
140281	7	Sololá	713	San Lucas Tolimán	10	San Lucas Tolimán	8	Agosto	2023-08-08T00:00:00	2024-11-08T01:00:00	2	Temperatura media	20.4
140282	7	Sololá	713	San Lucas Tolimán	10	San Lucas Tolimán	8	Agosto	2023-08-08T00:00:00	2024-11-08T01:00:00	4	Temperatura máxima	21.6
140283	7	Sololá	713	San Lucas Tolimán	10	San Lucas Tolimán	8	Agosto	2023-08-08T00:00:00	2024-11-08T01:00:00	3	Temperatura mínima	20.4
140284	7	Sololá	713	San Lucas Tolimán	10	San Lucas Tolimán	8	Agosto	2023-08-08T00:00:00	2024-11-08T01:00:00	5	Humedad	75
140285	7	Sololá	713	San Lucas Tolimán	10	San Lucas Tolimán	8	Agosto	2023-08-08T00:00:00	2024-11-08T01:00:00	6	Velocidad del viento	3.2
140286	7	Sololá	713	San Lucas Tolimán	10	San Lucas Tolimán	8	Agosto	2023-08-08T00:00:00	2024-11-08T01:00:00	7	Dirección del viento	3.22
140287	7	Sololá	713	San Lucas Tolimán	10	San Lucas Tolimán	8	Agosto	2023-08-08T00:00:00	2024-11-08T01:00:00	1	Precipitación	0
140288	7	Sololá	713	San Lucas Tolimán	10	San Lucas Tolimán	8	Agosto	2023-08-08T00:00:00	2024-11-08T01:00:00	8	Radiación solar	0
140289	7	Sololá	713	San Lucas Tolimán	10	San Lucas Tolimán	8	Agosto	2023-08-08T00:00:00	2024-11-08T02:00:00	2	Temperatura media	20.9
140290	7	Sololá	713	San Lucas Tolimán	10	San Lucas Tolimán	8	Agosto	2023-08-08T00:00:00	2024-11-08T02:00:00	4	Temperatura máxima	20.9
140291	7	Sololá	713	San Lucas Tolimán	10	San Lucas Tolimán	8	Agosto	2023-08-08T00:00:00	2024-11-08T02:00:00	3	Temperatura mínima	20.3
140292	7	Sololá	713	San Lucas Tolimán	10	San Lucas Tolimán	8	Agosto	2023-08-08T00:00:00	2024-11-08T02:00:00	5	Humedad	73
140293	7	Sololá	713	San Lucas Tolimán	10	San Lucas Tolimán	8	Agosto	2023-08-08T00:00:00	2024-11-08T02:00:00	6	Velocidad del viento	3.2
140294	7	Sololá	713	San Lucas Tolimán	10	San Lucas Tolimán	8	Agosto	2023-08-08T00:00:00	2024-11-08T02:00:00	7	Dirección del viento	3.22
140295	7	Sololá	713	San Lucas Tolimán	10	San Lucas Tolimán	8	Agosto	2023-08-08T00:00:00	2024-11-08T02:00:00	1	Precipitación	0
140296	7	Sololá	713	San Lucas Tolimán	10	San Lucas Tolimán	8	Agosto	2023-08-08T00:00:00	2024-11-08T02:00:00	8	Radiación solar	0
140297	7	Sololá	713	San Lucas Tolimán	10	San Lucas Tolimán	8	Agosto	2023-08-08T00:00:00	2024-11-08T03:00:00	2	Temperatura media	19.6
140298	7	Sololá	713	San Lucas Tolimán	10	San Lucas Tolimán	8	Agosto	2023-08-08T00:00:00	2024-11-08T03:00:00	4	Temperatura máxima	21.3
140299	7	Sololá	713	San Lucas Tolimán	10	San Lucas Tolimán	8	Agosto	2023-08-08T00:00:00	2024-11-08T03:00:00	3	Temperatura mínima	19.5
140300	7	Sololá	713	San Lucas Tolimán	10	San Lucas Tolimán	8	Agosto	2023-08-08T00:00:00	2024-11-08T03:00:00	5	Humedad	79
140301	7	Sololá	713	San Lucas Tolimán	10	San Lucas Tolimán	8	Agosto	2023-08-08T00:00:00	2024-11-08T03:00:00	6	Velocidad del viento	1.6
140302	7	Sololá	713	San Lucas Tolimán	10	San Lucas Tolimán	8	Agosto	2023-08-08T00:00:00	2024-11-08T03:00:00	7	Dirección del viento	1.61
140303	7	Sololá	713	San Lucas Tolimán	10	San Lucas Tolimán	8	Agosto	2023-08-08T00:00:00	2024-11-08T03:00:00	1	Precipitación	0
140304	7	Sololá	713	San Lucas Tolimán	10	San Lucas Tolimán	8	Agosto	2023-08-08T00:00:00	2024-11-08T03:00:00	8	Radiación solar	0
140305	7	Sololá	713	San Lucas Tolimán	10	San Lucas Tolimán	8	Agosto	2023-08-08T00:00:00	2024-11-08T04:00:00	2	Temperatura media	19.3
140306	7	Sololá	713	San Lucas Tolimán	10	San Lucas Tolimán	8	Agosto	2023-08-08T00:00:00	2024-11-08T04:00:00	4	Temperatura máxima	19.6
140307	7	Sololá	713	San Lucas Tolimán	10	San Lucas Tolimán	8	Agosto	2023-08-08T00:00:00	2024-11-08T04:00:00	3	Temperatura mínima	19.3
140308	7	Sololá	713	San Lucas Tolimán	10	San Lucas Tolimán	8	Agosto	2023-08-08T00:00:00	2024-11-08T04:00:00	5	Humedad	81
140309	7	Sololá	713	San Lucas Tolimán	10	San Lucas Tolimán	8	Agosto	2023-08-08T00:00:00	2024-11-08T04:00:00	6	Velocidad del viento	1.6
140310	7	Sololá	713	San Lucas Tolimán	10	San Lucas Tolimán	8	Agosto	2023-08-08T00:00:00	2024-11-08T04:00:00	7	Dirección del viento	1.61
140311	7	Sololá	713	San Lucas Tolimán	10	San Lucas Tolimán	8	Agosto	2023-08-08T00:00:00	2024-11-08T04:00:00	1	Precipitación	0
140312	7	Sololá	713	San Lucas Tolimán	10	San Lucas Tolimán	8	Agosto	2023-08-08T00:00:00	2024-11-08T04:00:00	8	Radiación solar	0
140313	7	Sololá	713	San Lucas Tolimán	10	San Lucas Tolimán	8	Agosto	2023-08-08T00:00:00	2024-11-08T05:00:00	2	Temperatura media	18.7
140314	7	Sololá	713	San Lucas Tolimán	10	San Lucas Tolimán	8	Agosto	2023-08-08T00:00:00	2024-11-08T05:00:00	4	Temperatura máxima	19.3
140315	7	Sololá	713	San Lucas Tolimán	10	San Lucas Tolimán	8	Agosto	2023-08-08T00:00:00	2024-11-08T05:00:00	3	Temperatura mínima	18.7
140316	7	Sololá	713	San Lucas Tolimán	10	San Lucas Tolimán	8	Agosto	2023-08-08T00:00:00	2024-11-08T05:00:00	5	Humedad	82
140317	7	Sololá	713	San Lucas Tolimán	10	San Lucas Tolimán	8	Agosto	2023-08-08T00:00:00	2024-11-08T05:00:00	6	Velocidad del viento	1.6
140318	7	Sololá	713	San Lucas Tolimán	10	San Lucas Tolimán	8	Agosto	2023-08-08T00:00:00	2024-11-08T05:00:00	7	Dirección del viento	1.61
140319	7	Sololá	713	San Lucas Tolimán	10	San Lucas Tolimán	8	Agosto	2023-08-08T00:00:00	2024-11-08T05:00:00	1	Precipitación	0
140320	7	Sololá	713	San Lucas Tolimán	10	San Lucas Tolimán	8	Agosto	2023-08-08T00:00:00	2024-11-08T05:00:00	8	Radiación solar	0
140321	7	Sololá	713	San Lucas Tolimán	10	San Lucas Tolimán	8	Agosto	2023-08-08T00:00:00	2024-11-08T06:00:00	2	Temperatura media	20.2
140322	7	Sololá	713	San Lucas Tolimán	10	San Lucas Tolimán	8	Agosto	2023-08-08T00:00:00	2024-11-08T06:00:00	4	Temperatura máxima	20.2
140323	7	Sololá	713	San Lucas Tolimán	10	San Lucas Tolimán	8	Agosto	2023-08-08T00:00:00	2024-11-08T06:00:00	3	Temperatura mínima	18.3
140324	7	Sololá	713	San Lucas Tolimán	10	San Lucas Tolimán	8	Agosto	2023-08-08T00:00:00	2024-11-08T06:00:00	5	Humedad	74
140325	7	Sololá	713	San Lucas Tolimán	10	San Lucas Tolimán	8	Agosto	2023-08-08T00:00:00	2024-11-08T06:00:00	6	Velocidad del viento	1.6
140326	7	Sololá	713	San Lucas Tolimán	10	San Lucas Tolimán	8	Agosto	2023-08-08T00:00:00	2024-11-08T06:00:00	7	Dirección del viento	1.61
140327	7	Sololá	713	San Lucas Tolimán	10	San Lucas Tolimán	8	Agosto	2023-08-08T00:00:00	2024-11-08T06:00:00	1	Precipitación	0
140328	7	Sololá	713	San Lucas Tolimán	10	San Lucas Tolimán	8	Agosto	2023-08-08T00:00:00	2024-11-08T06:00:00	8	Radiación solar	1
140329	7	Sololá	713	San Lucas Tolimán	10	San Lucas Tolimán	8	Agosto	2023-08-08T00:00:00	2024-11-08T07:00:00	2	Temperatura media	21.8
140330	7	Sololá	713	San Lucas Tolimán	10	San Lucas Tolimán	8	Agosto	2023-08-08T00:00:00	2024-11-08T07:00:00	4	Temperatura máxima	21.8
140331	7	Sololá	713	San Lucas Tolimán	10	San Lucas Tolimán	8	Agosto	2023-08-08T00:00:00	2024-11-08T07:00:00	3	Temperatura mínima	20.2
140332	7	Sololá	713	San Lucas Tolimán	10	San Lucas Tolimán	8	Agosto	2023-08-08T00:00:00	2024-11-08T07:00:00	5	Humedad	69
140333	7	Sololá	713	San Lucas Tolimán	10	San Lucas Tolimán	8	Agosto	2023-08-08T00:00:00	2024-11-08T07:00:00	6	Velocidad del viento	4.8
140334	7	Sololá	713	San Lucas Tolimán	10	San Lucas Tolimán	8	Agosto	2023-08-08T00:00:00	2024-11-08T07:00:00	7	Dirección del viento	4.83
140335	7	Sololá	713	San Lucas Tolimán	10	San Lucas Tolimán	8	Agosto	2023-08-08T00:00:00	2024-11-08T07:00:00	1	Precipitación	0
140336	7	Sololá	713	San Lucas Tolimán	10	San Lucas Tolimán	8	Agosto	2023-08-08T00:00:00	2024-11-08T07:00:00	8	Radiación solar	46
140337	7	Sololá	713	San Lucas Tolimán	10	San Lucas Tolimán	8	Agosto	2023-08-08T00:00:00	2024-11-08T08:00:00	2	Temperatura media	23.2
140338	7	Sololá	713	San Lucas Tolimán	10	San Lucas Tolimán	8	Agosto	2023-08-08T00:00:00	2024-11-08T08:00:00	4	Temperatura máxima	23.2
140339	7	Sololá	713	San Lucas Tolimán	10	San Lucas Tolimán	8	Agosto	2023-08-08T00:00:00	2024-11-08T08:00:00	3	Temperatura mínima	21.8
140340	7	Sololá	713	San Lucas Tolimán	10	San Lucas Tolimán	8	Agosto	2023-08-08T00:00:00	2024-11-08T08:00:00	5	Humedad	64
140341	7	Sololá	713	San Lucas Tolimán	10	San Lucas Tolimán	8	Agosto	2023-08-08T00:00:00	2024-11-08T08:00:00	6	Velocidad del viento	3.2
140342	7	Sololá	713	San Lucas Tolimán	10	San Lucas Tolimán	8	Agosto	2023-08-08T00:00:00	2024-11-08T08:00:00	7	Dirección del viento	3.22
140343	7	Sololá	713	San Lucas Tolimán	10	San Lucas Tolimán	8	Agosto	2023-08-08T00:00:00	2024-11-08T08:00:00	1	Precipitación	0
140344	7	Sololá	713	San Lucas Tolimán	10	San Lucas Tolimán	8	Agosto	2023-08-08T00:00:00	2024-11-08T08:00:00	8	Radiación solar	253
140345	7	Sololá	713	San Lucas Tolimán	10	San Lucas Tolimán	8	Agosto	2023-08-08T00:00:00	2024-11-08T09:00:00	2	Temperatura media	24.2
140346	7	Sololá	713	San Lucas Tolimán	10	San Lucas Tolimán	8	Agosto	2023-08-08T00:00:00	2024-11-08T09:00:00	4	Temperatura máxima	24.3
140347	7	Sololá	713	San Lucas Tolimán	10	San Lucas Tolimán	8	Agosto	2023-08-08T00:00:00	2024-11-08T09:00:00	3	Temperatura mínima	23.2
140348	7	Sololá	713	San Lucas Tolimán	10	San Lucas Tolimán	8	Agosto	2023-08-08T00:00:00	2024-11-08T09:00:00	5	Humedad	61
140349	7	Sololá	713	San Lucas Tolimán	10	San Lucas Tolimán	8	Agosto	2023-08-08T00:00:00	2024-11-08T09:00:00	6	Velocidad del viento	6.4
140350	7	Sololá	713	San Lucas Tolimán	10	San Lucas Tolimán	8	Agosto	2023-08-08T00:00:00	2024-11-08T09:00:00	7	Dirección del viento	6.44
140351	7	Sololá	713	San Lucas Tolimán	10	San Lucas Tolimán	8	Agosto	2023-08-08T00:00:00	2024-11-08T09:00:00	1	Precipitación	0
140352	7	Sololá	713	San Lucas Tolimán	10	San Lucas Tolimán	8	Agosto	2023-08-08T00:00:00	2024-11-08T09:00:00	8	Radiación solar	469
140353	7	Sololá	713	San Lucas Tolimán	10	San Lucas Tolimán	8	Agosto	2023-08-08T00:00:00	2024-11-08T10:00:00	2	Temperatura media	26.3
140354	7	Sololá	713	San Lucas Tolimán	10	San Lucas Tolimán	8	Agosto	2023-08-08T00:00:00	2024-11-08T10:00:00	4	Temperatura máxima	26.4
140355	7	Sololá	713	San Lucas Tolimán	10	San Lucas Tolimán	8	Agosto	2023-08-08T00:00:00	2024-11-08T10:00:00	3	Temperatura mínima	24.2
140356	7	Sololá	713	San Lucas Tolimán	10	San Lucas Tolimán	8	Agosto	2023-08-08T00:00:00	2024-11-08T10:00:00	5	Humedad	56
140357	7	Sololá	713	San Lucas Tolimán	10	San Lucas Tolimán	8	Agosto	2023-08-08T00:00:00	2024-11-08T10:00:00	6	Velocidad del viento	6.4
140358	7	Sololá	713	San Lucas Tolimán	10	San Lucas Tolimán	8	Agosto	2023-08-08T00:00:00	2024-11-08T10:00:00	7	Dirección del viento	6.44
140359	7	Sololá	713	San Lucas Tolimán	10	San Lucas Tolimán	8	Agosto	2023-08-08T00:00:00	2024-11-08T10:00:00	1	Precipitación	0
140360	7	Sololá	713	San Lucas Tolimán	10	San Lucas Tolimán	8	Agosto	2023-08-08T00:00:00	2024-11-08T10:00:00	8	Radiación solar	728
140361	7	Sololá	713	San Lucas Tolimán	10	San Lucas Tolimán	8	Agosto	2023-08-08T00:00:00	2024-11-08T11:00:00	2	Temperatura media	25.8
140362	7	Sololá	713	San Lucas Tolimán	10	San Lucas Tolimán	8	Agosto	2023-08-08T00:00:00	2024-11-08T11:00:00	4	Temperatura máxima	27.2
140363	7	Sololá	713	San Lucas Tolimán	10	San Lucas Tolimán	8	Agosto	2023-08-08T00:00:00	2024-11-08T11:00:00	3	Temperatura mínima	25.8
140364	7	Sololá	713	San Lucas Tolimán	10	San Lucas Tolimán	8	Agosto	2023-08-08T00:00:00	2024-11-08T11:00:00	5	Humedad	71
140365	7	Sololá	713	San Lucas Tolimán	10	San Lucas Tolimán	8	Agosto	2023-08-08T00:00:00	2024-11-08T11:00:00	6	Velocidad del viento	6.4
140366	7	Sololá	713	San Lucas Tolimán	10	San Lucas Tolimán	8	Agosto	2023-08-08T00:00:00	2024-11-08T11:00:00	7	Dirección del viento	6.44
140367	7	Sololá	713	San Lucas Tolimán	10	San Lucas Tolimán	8	Agosto	2023-08-08T00:00:00	2024-11-08T11:00:00	1	Precipitación	0
140368	7	Sololá	713	San Lucas Tolimán	10	San Lucas Tolimán	8	Agosto	2023-08-08T00:00:00	2024-11-08T11:00:00	8	Radiación solar	774
140369	7	Sololá	713	San Lucas Tolimán	10	San Lucas Tolimán	8	Agosto	2023-08-08T00:00:00	2024-11-08T12:00:00	2	Temperatura media	25.2
140370	7	Sololá	713	San Lucas Tolimán	10	San Lucas Tolimán	8	Agosto	2023-08-08T00:00:00	2024-11-08T12:00:00	4	Temperatura máxima	26.7
140371	7	Sololá	713	San Lucas Tolimán	10	San Lucas Tolimán	8	Agosto	2023-08-08T00:00:00	2024-11-08T12:00:00	3	Temperatura mínima	25.2
140372	7	Sololá	713	San Lucas Tolimán	10	San Lucas Tolimán	8	Agosto	2023-08-08T00:00:00	2024-11-08T12:00:00	5	Humedad	75
140373	7	Sololá	713	San Lucas Tolimán	10	San Lucas Tolimán	8	Agosto	2023-08-08T00:00:00	2024-11-08T12:00:00	6	Velocidad del viento	8
140374	7	Sololá	713	San Lucas Tolimán	10	San Lucas Tolimán	8	Agosto	2023-08-08T00:00:00	2024-11-08T12:00:00	7	Dirección del viento	8.05
140375	7	Sololá	713	San Lucas Tolimán	10	San Lucas Tolimán	8	Agosto	2023-08-08T00:00:00	2024-11-08T12:00:00	1	Precipitación	0
140376	7	Sololá	713	San Lucas Tolimán	10	San Lucas Tolimán	8	Agosto	2023-08-08T00:00:00	2024-11-08T12:00:00	8	Radiación solar	916
140377	7	Sololá	713	San Lucas Tolimán	10	San Lucas Tolimán	8	Agosto	2023-08-08T00:00:00	2024-11-08T13:00:00	2	Temperatura media	24.7
140378	7	Sololá	713	San Lucas Tolimán	10	San Lucas Tolimán	8	Agosto	2023-08-08T00:00:00	2024-11-08T13:00:00	4	Temperatura máxima	26.2
140379	7	Sololá	713	San Lucas Tolimán	10	San Lucas Tolimán	8	Agosto	2023-08-08T00:00:00	2024-11-08T13:00:00	3	Temperatura mínima	24.4
140380	7	Sololá	713	San Lucas Tolimán	10	San Lucas Tolimán	8	Agosto	2023-08-08T00:00:00	2024-11-08T13:00:00	5	Humedad	78
140381	7	Sololá	713	San Lucas Tolimán	10	San Lucas Tolimán	8	Agosto	2023-08-08T00:00:00	2024-11-08T13:00:00	6	Velocidad del viento	11.3
140382	7	Sololá	713	San Lucas Tolimán	10	San Lucas Tolimán	8	Agosto	2023-08-08T00:00:00	2024-11-08T13:00:00	7	Dirección del viento	11.27
140383	7	Sololá	713	San Lucas Tolimán	10	San Lucas Tolimán	8	Agosto	2023-08-08T00:00:00	2024-11-08T13:00:00	1	Precipitación	0
140384	7	Sololá	713	San Lucas Tolimán	10	San Lucas Tolimán	8	Agosto	2023-08-08T00:00:00	2024-11-08T13:00:00	8	Radiación solar	829
140385	7	Sololá	713	San Lucas Tolimán	10	San Lucas Tolimán	8	Agosto	2023-08-08T00:00:00	2024-11-08T14:00:00	2	Temperatura media	26
140386	7	Sololá	713	San Lucas Tolimán	10	San Lucas Tolimán	8	Agosto	2023-08-08T00:00:00	2024-11-08T14:00:00	4	Temperatura máxima	26.1
140387	7	Sololá	713	San Lucas Tolimán	10	San Lucas Tolimán	8	Agosto	2023-08-08T00:00:00	2024-11-08T14:00:00	3	Temperatura mínima	24.7
140388	7	Sololá	713	San Lucas Tolimán	10	San Lucas Tolimán	8	Agosto	2023-08-08T00:00:00	2024-11-08T14:00:00	5	Humedad	73
140389	7	Sololá	713	San Lucas Tolimán	10	San Lucas Tolimán	8	Agosto	2023-08-08T00:00:00	2024-11-08T14:00:00	6	Velocidad del viento	12.9
140390	7	Sololá	713	San Lucas Tolimán	10	San Lucas Tolimán	8	Agosto	2023-08-08T00:00:00	2024-11-08T14:00:00	7	Dirección del viento	12.87
140391	7	Sololá	713	San Lucas Tolimán	10	San Lucas Tolimán	8	Agosto	2023-08-08T00:00:00	2024-11-08T14:00:00	1	Precipitación	0
140392	7	Sololá	713	San Lucas Tolimán	10	San Lucas Tolimán	8	Agosto	2023-08-08T00:00:00	2024-11-08T14:00:00	8	Radiación solar	126
140393	7	Sololá	713	San Lucas Tolimán	10	San Lucas Tolimán	8	Agosto	2023-08-08T00:00:00	2024-11-08T15:00:00	2	Temperatura media	25.2
140394	7	Sololá	713	San Lucas Tolimán	10	San Lucas Tolimán	8	Agosto	2023-08-08T00:00:00	2024-11-08T15:00:00	4	Temperatura máxima	26
140395	7	Sololá	713	San Lucas Tolimán	10	San Lucas Tolimán	8	Agosto	2023-08-08T00:00:00	2024-11-08T15:00:00	3	Temperatura mínima	25.2
140396	7	Sololá	713	San Lucas Tolimán	10	San Lucas Tolimán	8	Agosto	2023-08-08T00:00:00	2024-11-08T15:00:00	5	Humedad	76
140397	7	Sololá	713	San Lucas Tolimán	10	San Lucas Tolimán	8	Agosto	2023-08-08T00:00:00	2024-11-08T15:00:00	6	Velocidad del viento	12.9
140398	7	Sololá	713	San Lucas Tolimán	10	San Lucas Tolimán	8	Agosto	2023-08-08T00:00:00	2024-11-08T15:00:00	7	Dirección del viento	12.87
140399	7	Sololá	713	San Lucas Tolimán	10	San Lucas Tolimán	8	Agosto	2023-08-08T00:00:00	2024-11-08T15:00:00	1	Precipitación	0
140400	7	Sololá	713	San Lucas Tolimán	10	San Lucas Tolimán	8	Agosto	2023-08-08T00:00:00	2024-11-08T15:00:00	8	Radiación solar	160
140401	7	Sololá	713	San Lucas Tolimán	10	San Lucas Tolimán	8	Agosto	2023-08-08T00:00:00	2024-11-08T16:00:00	2	Temperatura media	24.7
140402	7	Sololá	713	San Lucas Tolimán	10	San Lucas Tolimán	8	Agosto	2023-08-08T00:00:00	2024-11-08T16:00:00	4	Temperatura máxima	25.2
140403	7	Sololá	713	San Lucas Tolimán	10	San Lucas Tolimán	8	Agosto	2023-08-08T00:00:00	2024-11-08T16:00:00	3	Temperatura mínima	24
140404	7	Sololá	713	San Lucas Tolimán	10	San Lucas Tolimán	8	Agosto	2023-08-08T00:00:00	2024-11-08T16:00:00	5	Humedad	78
140405	7	Sololá	713	San Lucas Tolimán	10	San Lucas Tolimán	8	Agosto	2023-08-08T00:00:00	2024-11-08T16:00:00	6	Velocidad del viento	11.3
140406	7	Sololá	713	San Lucas Tolimán	10	San Lucas Tolimán	8	Agosto	2023-08-08T00:00:00	2024-11-08T16:00:00	7	Dirección del viento	11.27
140407	7	Sololá	713	San Lucas Tolimán	10	San Lucas Tolimán	8	Agosto	2023-08-08T00:00:00	2024-11-08T16:00:00	1	Precipitación	0
140408	7	Sololá	713	San Lucas Tolimán	10	San Lucas Tolimán	8	Agosto	2023-08-08T00:00:00	2024-11-08T16:00:00	8	Radiación solar	61
140409	7	Sololá	713	San Lucas Tolimán	10	San Lucas Tolimán	8	Agosto	2023-08-08T00:00:00	2024-11-08T17:00:00	2	Temperatura media	20.4
140410	7	Sololá	713	San Lucas Tolimán	10	San Lucas Tolimán	8	Agosto	2023-08-08T00:00:00	2024-11-08T17:00:00	4	Temperatura máxima	24.7
140411	7	Sololá	713	San Lucas Tolimán	10	San Lucas Tolimán	8	Agosto	2023-08-08T00:00:00	2024-11-08T17:00:00	3	Temperatura mínima	20.3
140412	7	Sololá	713	San Lucas Tolimán	10	San Lucas Tolimán	8	Agosto	2023-08-08T00:00:00	2024-11-08T17:00:00	5	Humedad	93
140413	7	Sololá	713	San Lucas Tolimán	10	San Lucas Tolimán	8	Agosto	2023-08-08T00:00:00	2024-11-08T17:00:00	6	Velocidad del viento	11.3
140414	7	Sololá	713	San Lucas Tolimán	10	San Lucas Tolimán	8	Agosto	2023-08-08T00:00:00	2024-11-08T17:00:00	7	Dirección del viento	11.27
140415	7	Sololá	713	San Lucas Tolimán	10	San Lucas Tolimán	8	Agosto	2023-08-08T00:00:00	2024-11-08T17:00:00	1	Precipitación	0
140416	7	Sololá	713	San Lucas Tolimán	10	San Lucas Tolimán	8	Agosto	2023-08-08T00:00:00	2024-11-08T17:00:00	8	Radiación solar	7
140417	7	Sololá	713	San Lucas Tolimán	10	San Lucas Tolimán	8	Agosto	2023-08-08T00:00:00	2024-11-08T18:00:00	2	Temperatura media	20.9
140418	7	Sololá	713	San Lucas Tolimán	10	San Lucas Tolimán	8	Agosto	2023-08-08T00:00:00	2024-11-08T18:00:00	4	Temperatura máxima	21.2
140419	7	Sololá	713	San Lucas Tolimán	10	San Lucas Tolimán	8	Agosto	2023-08-08T00:00:00	2024-11-08T18:00:00	3	Temperatura mínima	20.4
140420	7	Sololá	713	San Lucas Tolimán	10	San Lucas Tolimán	8	Agosto	2023-08-08T00:00:00	2024-11-08T18:00:00	5	Humedad	87
140421	7	Sololá	713	San Lucas Tolimán	10	San Lucas Tolimán	8	Agosto	2023-08-08T00:00:00	2024-11-08T18:00:00	6	Velocidad del viento	9.7
140422	7	Sololá	713	San Lucas Tolimán	10	San Lucas Tolimán	8	Agosto	2023-08-08T00:00:00	2024-11-08T18:00:00	7	Dirección del viento	9.66
140423	7	Sololá	713	San Lucas Tolimán	10	San Lucas Tolimán	8	Agosto	2023-08-08T00:00:00	2024-11-08T18:00:00	1	Precipitación	0
140424	7	Sololá	713	San Lucas Tolimán	10	San Lucas Tolimán	8	Agosto	2023-08-08T00:00:00	2024-11-08T18:00:00	8	Radiación solar	2
140425	7	Sololá	713	San Lucas Tolimán	10	San Lucas Tolimán	8	Agosto	2023-08-08T00:00:00	2024-11-08T19:00:00	2	Temperatura media	20.2
140426	7	Sololá	713	San Lucas Tolimán	10	San Lucas Tolimán	8	Agosto	2023-08-08T00:00:00	2024-11-08T19:00:00	4	Temperatura máxima	20.9
140427	7	Sololá	713	San Lucas Tolimán	10	San Lucas Tolimán	8	Agosto	2023-08-08T00:00:00	2024-11-08T19:00:00	3	Temperatura mínima	20.2
140428	7	Sololá	713	San Lucas Tolimán	10	San Lucas Tolimán	8	Agosto	2023-08-08T00:00:00	2024-11-08T19:00:00	5	Humedad	89
140429	7	Sololá	713	San Lucas Tolimán	10	San Lucas Tolimán	8	Agosto	2023-08-08T00:00:00	2024-11-08T19:00:00	6	Velocidad del viento	4.8
140430	7	Sololá	713	San Lucas Tolimán	10	San Lucas Tolimán	8	Agosto	2023-08-08T00:00:00	2024-11-08T19:00:00	7	Dirección del viento	4.83
140431	7	Sololá	713	San Lucas Tolimán	10	San Lucas Tolimán	8	Agosto	2023-08-08T00:00:00	2024-11-08T19:00:00	1	Precipitación	0
140432	7	Sololá	713	San Lucas Tolimán	10	San Lucas Tolimán	8	Agosto	2023-08-08T00:00:00	2024-11-08T19:00:00	8	Radiación solar	0
140433	7	Sololá	713	San Lucas Tolimán	10	San Lucas Tolimán	8	Agosto	2023-08-08T00:00:00	2024-11-08T20:00:00	2	Temperatura media	19.5
140434	7	Sololá	713	San Lucas Tolimán	10	San Lucas Tolimán	8	Agosto	2023-08-08T00:00:00	2024-11-08T20:00:00	4	Temperatura máxima	20.2
140435	7	Sololá	713	San Lucas Tolimán	10	San Lucas Tolimán	8	Agosto	2023-08-08T00:00:00	2024-11-08T20:00:00	3	Temperatura mínima	19.3
140436	7	Sololá	713	San Lucas Tolimán	10	San Lucas Tolimán	8	Agosto	2023-08-08T00:00:00	2024-11-08T20:00:00	5	Humedad	62
140437	7	Sololá	713	San Lucas Tolimán	10	San Lucas Tolimán	8	Agosto	2023-08-08T00:00:00	2024-11-08T20:00:00	6	Velocidad del viento	6.4
140438	7	Sololá	713	San Lucas Tolimán	10	San Lucas Tolimán	8	Agosto	2023-08-08T00:00:00	2024-11-08T20:00:00	7	Dirección del viento	6.44
140439	7	Sololá	713	San Lucas Tolimán	10	San Lucas Tolimán	8	Agosto	2023-08-08T00:00:00	2024-11-08T20:00:00	1	Precipitación	0
140440	7	Sololá	713	San Lucas Tolimán	10	San Lucas Tolimán	8	Agosto	2023-08-08T00:00:00	2024-11-08T20:00:00	8	Radiación solar	0
140441	7	Sololá	713	San Lucas Tolimán	10	San Lucas Tolimán	8	Agosto	2023-08-08T00:00:00	2024-11-08T21:00:00	2	Temperatura media	19.3
140442	7	Sololá	713	San Lucas Tolimán	10	San Lucas Tolimán	8	Agosto	2023-08-08T00:00:00	2024-11-08T21:00:00	4	Temperatura máxima	19.7
140443	7	Sololá	713	San Lucas Tolimán	10	San Lucas Tolimán	8	Agosto	2023-08-08T00:00:00	2024-11-08T21:00:00	3	Temperatura mínima	19.1
140444	7	Sololá	713	San Lucas Tolimán	10	San Lucas Tolimán	8	Agosto	2023-08-08T00:00:00	2024-11-08T21:00:00	5	Humedad	59
140445	7	Sololá	713	San Lucas Tolimán	10	San Lucas Tolimán	8	Agosto	2023-08-08T00:00:00	2024-11-08T21:00:00	6	Velocidad del viento	3.2
140446	7	Sololá	713	San Lucas Tolimán	10	San Lucas Tolimán	8	Agosto	2023-08-08T00:00:00	2024-11-08T21:00:00	7	Dirección del viento	3.22
140447	7	Sololá	713	San Lucas Tolimán	10	San Lucas Tolimán	8	Agosto	2023-08-08T00:00:00	2024-11-08T21:00:00	1	Precipitación	0
140448	7	Sololá	713	San Lucas Tolimán	10	San Lucas Tolimán	8	Agosto	2023-08-08T00:00:00	2024-11-08T21:00:00	8	Radiación solar	0
140449	7	Sololá	713	San Lucas Tolimán	10	San Lucas Tolimán	8	Agosto	2023-08-08T00:00:00	2024-11-08T22:00:00	2	Temperatura media	18.5
140450	7	Sololá	713	San Lucas Tolimán	10	San Lucas Tolimán	8	Agosto	2023-08-08T00:00:00	2024-11-08T22:00:00	4	Temperatura máxima	19.4
140451	7	Sololá	713	San Lucas Tolimán	10	San Lucas Tolimán	8	Agosto	2023-08-08T00:00:00	2024-11-08T22:00:00	3	Temperatura mínima	18.5
140452	7	Sololá	713	San Lucas Tolimán	10	San Lucas Tolimán	8	Agosto	2023-08-08T00:00:00	2024-11-08T22:00:00	5	Humedad	62
140453	7	Sololá	713	San Lucas Tolimán	10	San Lucas Tolimán	8	Agosto	2023-08-08T00:00:00	2024-11-08T22:00:00	6	Velocidad del viento	1.6
140454	7	Sololá	713	San Lucas Tolimán	10	San Lucas Tolimán	8	Agosto	2023-08-08T00:00:00	2024-11-08T22:00:00	7	Dirección del viento	1.61
140455	7	Sololá	713	San Lucas Tolimán	10	San Lucas Tolimán	8	Agosto	2023-08-08T00:00:00	2024-11-08T22:00:00	1	Precipitación	0
140456	7	Sololá	713	San Lucas Tolimán	10	San Lucas Tolimán	8	Agosto	2023-08-08T00:00:00	2024-11-08T22:00:00	8	Radiación solar	0
140457	7	Sololá	713	San Lucas Tolimán	10	San Lucas Tolimán	8	Agosto	2023-08-08T00:00:00	2024-11-08T23:00:00	2	Temperatura media	18.7
140458	7	Sololá	713	San Lucas Tolimán	10	San Lucas Tolimán	8	Agosto	2023-08-08T00:00:00	2024-11-08T23:00:00	4	Temperatura máxima	18.9
140459	7	Sololá	713	San Lucas Tolimán	10	San Lucas Tolimán	8	Agosto	2023-08-08T00:00:00	2024-11-08T23:00:00	3	Temperatura mínima	18.5
140460	7	Sololá	713	San Lucas Tolimán	10	San Lucas Tolimán	8	Agosto	2023-08-08T00:00:00	2024-11-08T23:00:00	5	Humedad	62
140461	7	Sololá	713	San Lucas Tolimán	10	San Lucas Tolimán	8	Agosto	2023-08-08T00:00:00	2024-11-08T23:00:00	6	Velocidad del viento	3.2
140462	7	Sololá	713	San Lucas Tolimán	10	San Lucas Tolimán	8	Agosto	2023-08-08T00:00:00	2024-11-08T23:00:00	7	Dirección del viento	3.22
140463	7	Sololá	713	San Lucas Tolimán	10	San Lucas Tolimán	8	Agosto	2023-08-08T00:00:00	2024-11-08T23:00:00	1	Precipitación	0
140464	7	Sololá	713	San Lucas Tolimán	10	San Lucas Tolimán	8	Agosto	2023-08-08T00:00:00	2024-11-08T23:00:00	8	Radiación solar	0
140465	7	Sololá	713	San Lucas Tolimán	10	San Lucas Tolimán	8	Agosto	2023-09-08T00:00:00	2024-11-08T00:00:00	2	Temperatura media	17.9
140466	7	Sololá	713	San Lucas Tolimán	10	San Lucas Tolimán	8	Agosto	2023-09-08T00:00:00	2024-11-08T00:00:00	4	Temperatura máxima	18.7
140467	7	Sololá	713	San Lucas Tolimán	10	San Lucas Tolimán	8	Agosto	2023-09-08T00:00:00	2024-11-08T00:00:00	3	Temperatura mínima	17.9
140468	7	Sololá	713	San Lucas Tolimán	10	San Lucas Tolimán	8	Agosto	2023-09-08T00:00:00	2024-11-08T00:00:00	5	Humedad	65
140469	7	Sololá	713	San Lucas Tolimán	10	San Lucas Tolimán	8	Agosto	2023-09-08T00:00:00	2024-11-08T00:00:00	6	Velocidad del viento	4.8
140470	7	Sololá	713	San Lucas Tolimán	10	San Lucas Tolimán	8	Agosto	2023-09-08T00:00:00	2024-11-08T00:00:00	7	Dirección del viento	4.83
140471	7	Sololá	713	San Lucas Tolimán	10	San Lucas Tolimán	8	Agosto	2023-09-08T00:00:00	2024-11-08T00:00:00	1	Precipitación	0
140472	7	Sololá	713	San Lucas Tolimán	10	San Lucas Tolimán	8	Agosto	2023-09-08T00:00:00	2024-11-08T00:00:00	8	Radiación solar	0
140473	7	Sololá	713	San Lucas Tolimán	10	San Lucas Tolimán	8	Agosto	2023-09-08T00:00:00	2024-11-08T01:00:00	2	Temperatura media	17.7
140474	7	Sololá	713	San Lucas Tolimán	10	San Lucas Tolimán	8	Agosto	2023-09-08T00:00:00	2024-11-08T01:00:00	4	Temperatura máxima	17.9
140475	7	Sololá	713	San Lucas Tolimán	10	San Lucas Tolimán	8	Agosto	2023-09-08T00:00:00	2024-11-08T01:00:00	3	Temperatura mínima	17.4
140476	7	Sololá	713	San Lucas Tolimán	10	San Lucas Tolimán	8	Agosto	2023-09-08T00:00:00	2024-11-08T01:00:00	5	Humedad	62
140477	7	Sololá	713	San Lucas Tolimán	10	San Lucas Tolimán	8	Agosto	2023-09-08T00:00:00	2024-11-08T01:00:00	6	Velocidad del viento	3.2
140478	7	Sololá	713	San Lucas Tolimán	10	San Lucas Tolimán	8	Agosto	2023-09-08T00:00:00	2024-11-08T01:00:00	7	Dirección del viento	3.22
140479	7	Sololá	713	San Lucas Tolimán	10	San Lucas Tolimán	8	Agosto	2023-09-08T00:00:00	2024-11-08T01:00:00	1	Precipitación	0
140480	7	Sololá	713	San Lucas Tolimán	10	San Lucas Tolimán	8	Agosto	2023-09-08T00:00:00	2024-11-08T01:00:00	8	Radiación solar	0
140481	7	Sololá	713	San Lucas Tolimán	10	San Lucas Tolimán	8	Agosto	2023-09-08T00:00:00	2024-11-08T02:00:00	2	Temperatura media	17.4
140482	7	Sololá	713	San Lucas Tolimán	10	San Lucas Tolimán	8	Agosto	2023-09-08T00:00:00	2024-11-08T02:00:00	4	Temperatura máxima	17.9
140483	7	Sololá	713	San Lucas Tolimán	10	San Lucas Tolimán	8	Agosto	2023-09-08T00:00:00	2024-11-08T02:00:00	3	Temperatura mínima	17.3
140484	7	Sololá	713	San Lucas Tolimán	10	San Lucas Tolimán	8	Agosto	2023-09-08T00:00:00	2024-11-08T02:00:00	5	Humedad	61
140485	7	Sololá	713	San Lucas Tolimán	10	San Lucas Tolimán	8	Agosto	2023-09-08T00:00:00	2024-11-08T02:00:00	6	Velocidad del viento	1.6
140486	7	Sololá	713	San Lucas Tolimán	10	San Lucas Tolimán	8	Agosto	2023-09-08T00:00:00	2024-11-08T02:00:00	7	Dirección del viento	1.61
140487	7	Sololá	713	San Lucas Tolimán	10	San Lucas Tolimán	8	Agosto	2023-09-08T00:00:00	2024-11-08T02:00:00	1	Precipitación	0
140488	7	Sololá	713	San Lucas Tolimán	10	San Lucas Tolimán	8	Agosto	2023-09-08T00:00:00	2024-11-08T02:00:00	8	Radiación solar	0
140489	7	Sololá	713	San Lucas Tolimán	10	San Lucas Tolimán	8	Agosto	2023-09-08T00:00:00	2024-11-08T03:00:00	2	Temperatura media	17.8
140490	7	Sololá	713	San Lucas Tolimán	10	San Lucas Tolimán	8	Agosto	2023-09-08T00:00:00	2024-11-08T03:00:00	4	Temperatura máxima	17.9
140491	7	Sololá	713	San Lucas Tolimán	10	San Lucas Tolimán	8	Agosto	2023-09-08T00:00:00	2024-11-08T03:00:00	3	Temperatura mínima	17.2
140492	7	Sololá	713	San Lucas Tolimán	10	San Lucas Tolimán	8	Agosto	2023-09-08T00:00:00	2024-11-08T03:00:00	5	Humedad	60
140493	7	Sololá	713	San Lucas Tolimán	10	San Lucas Tolimán	8	Agosto	2023-09-08T00:00:00	2024-11-08T03:00:00	6	Velocidad del viento	3.2
140494	7	Sololá	713	San Lucas Tolimán	10	San Lucas Tolimán	8	Agosto	2023-09-08T00:00:00	2024-11-08T03:00:00	7	Dirección del viento	3.22
140495	7	Sololá	713	San Lucas Tolimán	10	San Lucas Tolimán	8	Agosto	2023-09-08T00:00:00	2024-11-08T03:00:00	1	Precipitación	0
140496	7	Sololá	713	San Lucas Tolimán	10	San Lucas Tolimán	8	Agosto	2023-09-08T00:00:00	2024-11-08T03:00:00	8	Radiación solar	0
140497	7	Sololá	713	San Lucas Tolimán	10	San Lucas Tolimán	8	Agosto	2023-09-08T00:00:00	2024-11-08T04:00:00	2	Temperatura media	17.6
140498	7	Sololá	713	San Lucas Tolimán	10	San Lucas Tolimán	8	Agosto	2023-09-08T00:00:00	2024-11-08T04:00:00	4	Temperatura máxima	17.8
140499	7	Sololá	713	San Lucas Tolimán	10	San Lucas Tolimán	8	Agosto	2023-09-08T00:00:00	2024-11-08T04:00:00	3	Temperatura mínima	17.4
140500	7	Sololá	713	San Lucas Tolimán	10	San Lucas Tolimán	8	Agosto	2023-09-08T00:00:00	2024-11-08T04:00:00	5	Humedad	60
140501	7	Sololá	713	San Lucas Tolimán	10	San Lucas Tolimán	8	Agosto	2023-09-08T00:00:00	2024-11-08T04:00:00	6	Velocidad del viento	1.6
140502	7	Sololá	713	San Lucas Tolimán	10	San Lucas Tolimán	8	Agosto	2023-09-08T00:00:00	2024-11-08T04:00:00	7	Dirección del viento	1.61
140503	7	Sololá	713	San Lucas Tolimán	10	San Lucas Tolimán	8	Agosto	2023-09-08T00:00:00	2024-11-08T04:00:00	1	Precipitación	0
140504	7	Sololá	713	San Lucas Tolimán	10	San Lucas Tolimán	8	Agosto	2023-09-08T00:00:00	2024-11-08T04:00:00	8	Radiación solar	0
140505	7	Sololá	713	San Lucas Tolimán	10	San Lucas Tolimán	8	Agosto	2023-09-08T00:00:00	2024-11-08T05:00:00	2	Temperatura media	16.6
140506	7	Sololá	713	San Lucas Tolimán	10	San Lucas Tolimán	8	Agosto	2023-09-08T00:00:00	2024-11-08T05:00:00	4	Temperatura máxima	17.6
140507	7	Sololá	713	San Lucas Tolimán	10	San Lucas Tolimán	8	Agosto	2023-09-08T00:00:00	2024-11-08T05:00:00	3	Temperatura mínima	16.6
140508	7	Sololá	713	San Lucas Tolimán	10	San Lucas Tolimán	8	Agosto	2023-09-08T00:00:00	2024-11-08T05:00:00	5	Humedad	62
140509	7	Sololá	713	San Lucas Tolimán	10	San Lucas Tolimán	8	Agosto	2023-09-08T00:00:00	2024-11-08T05:00:00	6	Velocidad del viento	1.6
140510	7	Sololá	713	San Lucas Tolimán	10	San Lucas Tolimán	8	Agosto	2023-09-08T00:00:00	2024-11-08T05:00:00	7	Dirección del viento	1.61
140511	7	Sololá	713	San Lucas Tolimán	10	San Lucas Tolimán	8	Agosto	2023-09-08T00:00:00	2024-11-08T05:00:00	1	Precipitación	0
140512	7	Sololá	713	San Lucas Tolimán	10	San Lucas Tolimán	8	Agosto	2023-09-08T00:00:00	2024-11-08T05:00:00	8	Radiación solar	0
140513	7	Sololá	713	San Lucas Tolimán	10	San Lucas Tolimán	8	Agosto	2023-09-08T00:00:00	2024-11-08T06:00:00	2	Temperatura media	16.5
140514	7	Sololá	713	San Lucas Tolimán	10	San Lucas Tolimán	8	Agosto	2023-09-08T00:00:00	2024-11-08T06:00:00	4	Temperatura máxima	16.6
140515	7	Sololá	713	San Lucas Tolimán	10	San Lucas Tolimán	8	Agosto	2023-09-08T00:00:00	2024-11-08T06:00:00	3	Temperatura mínima	16.2
140516	7	Sololá	713	San Lucas Tolimán	10	San Lucas Tolimán	8	Agosto	2023-09-08T00:00:00	2024-11-08T06:00:00	5	Humedad	62
140517	7	Sololá	713	San Lucas Tolimán	10	San Lucas Tolimán	8	Agosto	2023-09-08T00:00:00	2024-11-08T06:00:00	6	Velocidad del viento	3.2
140518	7	Sololá	713	San Lucas Tolimán	10	San Lucas Tolimán	8	Agosto	2023-09-08T00:00:00	2024-11-08T06:00:00	7	Dirección del viento	3.22
140519	7	Sololá	713	San Lucas Tolimán	10	San Lucas Tolimán	8	Agosto	2023-09-08T00:00:00	2024-11-08T06:00:00	1	Precipitación	0
140520	7	Sololá	713	San Lucas Tolimán	10	San Lucas Tolimán	8	Agosto	2023-09-08T00:00:00	2024-11-08T06:00:00	8	Radiación solar	0
140521	7	Sololá	713	San Lucas Tolimán	10	San Lucas Tolimán	8	Agosto	2023-09-08T00:00:00	2024-11-08T07:00:00	2	Temperatura media	18.1
140522	7	Sololá	713	San Lucas Tolimán	10	San Lucas Tolimán	8	Agosto	2023-09-08T00:00:00	2024-11-08T07:00:00	4	Temperatura máxima	18.1
140523	7	Sololá	713	San Lucas Tolimán	10	San Lucas Tolimán	8	Agosto	2023-09-08T00:00:00	2024-11-08T07:00:00	3	Temperatura mínima	16.3
140524	7	Sololá	713	San Lucas Tolimán	10	San Lucas Tolimán	8	Agosto	2023-09-08T00:00:00	2024-11-08T07:00:00	5	Humedad	60
140525	7	Sololá	713	San Lucas Tolimán	10	San Lucas Tolimán	8	Agosto	2023-09-08T00:00:00	2024-11-08T07:00:00	6	Velocidad del viento	0
140526	7	Sololá	713	San Lucas Tolimán	10	San Lucas Tolimán	8	Agosto	2023-09-08T00:00:00	2024-11-08T07:00:00	7	Dirección del viento	0
140527	7	Sololá	713	San Lucas Tolimán	10	San Lucas Tolimán	8	Agosto	2023-09-08T00:00:00	2024-11-08T07:00:00	1	Precipitación	0
140528	7	Sololá	713	San Lucas Tolimán	10	San Lucas Tolimán	8	Agosto	2023-09-08T00:00:00	2024-11-08T07:00:00	8	Radiación solar	63
140529	7	Sololá	713	San Lucas Tolimán	10	San Lucas Tolimán	8	Agosto	2023-09-08T00:00:00	2024-11-08T08:00:00	2	Temperatura media	22.1
140530	7	Sololá	713	San Lucas Tolimán	10	San Lucas Tolimán	8	Agosto	2023-09-08T00:00:00	2024-11-08T08:00:00	4	Temperatura máxima	22.1
140531	7	Sololá	713	San Lucas Tolimán	10	San Lucas Tolimán	8	Agosto	2023-09-08T00:00:00	2024-11-08T08:00:00	3	Temperatura mínima	18.1
140532	7	Sololá	713	San Lucas Tolimán	10	San Lucas Tolimán	8	Agosto	2023-09-08T00:00:00	2024-11-08T08:00:00	5	Humedad	56
140533	7	Sololá	713	San Lucas Tolimán	10	San Lucas Tolimán	8	Agosto	2023-09-08T00:00:00	2024-11-08T08:00:00	6	Velocidad del viento	4.8
140534	7	Sololá	713	San Lucas Tolimán	10	San Lucas Tolimán	8	Agosto	2023-09-08T00:00:00	2024-11-08T08:00:00	7	Dirección del viento	4.83
140535	7	Sololá	713	San Lucas Tolimán	10	San Lucas Tolimán	8	Agosto	2023-09-08T00:00:00	2024-11-08T08:00:00	1	Precipitación	0
140536	7	Sololá	713	San Lucas Tolimán	10	San Lucas Tolimán	8	Agosto	2023-09-08T00:00:00	2024-11-08T08:00:00	8	Radiación solar	361
140537	7	Sololá	713	San Lucas Tolimán	10	San Lucas Tolimán	8	Agosto	2023-09-08T00:00:00	2024-11-08T09:00:00	2	Temperatura media	23.7
140538	7	Sololá	713	San Lucas Tolimán	10	San Lucas Tolimán	8	Agosto	2023-09-08T00:00:00	2024-11-08T09:00:00	4	Temperatura máxima	23.8
140539	7	Sololá	713	San Lucas Tolimán	10	San Lucas Tolimán	8	Agosto	2023-09-08T00:00:00	2024-11-08T09:00:00	3	Temperatura mínima	22.1
140540	7	Sololá	713	San Lucas Tolimán	10	San Lucas Tolimán	8	Agosto	2023-09-08T00:00:00	2024-11-08T09:00:00	5	Humedad	55
140541	7	Sololá	713	San Lucas Tolimán	10	San Lucas Tolimán	8	Agosto	2023-09-08T00:00:00	2024-11-08T09:00:00	6	Velocidad del viento	4.8
140542	7	Sololá	713	San Lucas Tolimán	10	San Lucas Tolimán	8	Agosto	2023-09-08T00:00:00	2024-11-08T09:00:00	7	Dirección del viento	4.83
140543	7	Sololá	713	San Lucas Tolimán	10	San Lucas Tolimán	8	Agosto	2023-09-08T00:00:00	2024-11-08T09:00:00	1	Precipitación	0
140544	7	Sololá	713	San Lucas Tolimán	10	San Lucas Tolimán	8	Agosto	2023-09-08T00:00:00	2024-11-08T09:00:00	8	Radiación solar	631
140545	7	Sololá	713	San Lucas Tolimán	10	San Lucas Tolimán	8	Agosto	2023-09-08T00:00:00	2024-11-08T10:00:00	2	Temperatura media	23.8
140546	7	Sololá	713	San Lucas Tolimán	10	San Lucas Tolimán	8	Agosto	2023-09-08T00:00:00	2024-11-08T10:00:00	4	Temperatura máxima	24.7
140547	7	Sololá	713	San Lucas Tolimán	10	San Lucas Tolimán	8	Agosto	2023-09-08T00:00:00	2024-11-08T10:00:00	3	Temperatura mínima	23.4
140548	7	Sololá	713	San Lucas Tolimán	10	San Lucas Tolimán	8	Agosto	2023-09-08T00:00:00	2024-11-08T10:00:00	5	Humedad	59
140549	7	Sololá	713	San Lucas Tolimán	10	San Lucas Tolimán	8	Agosto	2023-09-08T00:00:00	2024-11-08T10:00:00	6	Velocidad del viento	6.4
140550	7	Sololá	713	San Lucas Tolimán	10	San Lucas Tolimán	8	Agosto	2023-09-08T00:00:00	2024-11-08T10:00:00	7	Dirección del viento	6.44
140551	7	Sololá	713	San Lucas Tolimán	10	San Lucas Tolimán	8	Agosto	2023-09-08T00:00:00	2024-11-08T10:00:00	1	Precipitación	0
140552	7	Sololá	713	San Lucas Tolimán	10	San Lucas Tolimán	8	Agosto	2023-09-08T00:00:00	2024-11-08T10:00:00	8	Radiación solar	832
140553	7	Sololá	713	San Lucas Tolimán	10	San Lucas Tolimán	8	Agosto	2023-09-08T00:00:00	2024-11-08T11:00:00	2	Temperatura media	24.4
140554	7	Sololá	713	San Lucas Tolimán	10	San Lucas Tolimán	8	Agosto	2023-09-08T00:00:00	2024-11-08T11:00:00	4	Temperatura máxima	24.4
140555	7	Sololá	713	San Lucas Tolimán	10	San Lucas Tolimán	8	Agosto	2023-09-08T00:00:00	2024-11-08T11:00:00	3	Temperatura mínima	23.6
140556	7	Sololá	713	San Lucas Tolimán	10	San Lucas Tolimán	8	Agosto	2023-09-08T00:00:00	2024-11-08T11:00:00	5	Humedad	59
140557	7	Sololá	713	San Lucas Tolimán	10	San Lucas Tolimán	8	Agosto	2023-09-08T00:00:00	2024-11-08T11:00:00	6	Velocidad del viento	9.7
140558	7	Sololá	713	San Lucas Tolimán	10	San Lucas Tolimán	8	Agosto	2023-09-08T00:00:00	2024-11-08T11:00:00	7	Dirección del viento	9.66
140559	7	Sololá	713	San Lucas Tolimán	10	San Lucas Tolimán	8	Agosto	2023-09-08T00:00:00	2024-11-08T11:00:00	1	Precipitación	0
140560	7	Sololá	713	San Lucas Tolimán	10	San Lucas Tolimán	8	Agosto	2023-09-08T00:00:00	2024-11-08T11:00:00	8	Radiación solar	985
140561	7	Sololá	713	San Lucas Tolimán	10	San Lucas Tolimán	8	Agosto	2023-09-08T00:00:00	2024-11-08T12:00:00	2	Temperatura media	24.9
140562	7	Sololá	713	San Lucas Tolimán	10	San Lucas Tolimán	8	Agosto	2023-09-08T00:00:00	2024-11-08T12:00:00	4	Temperatura máxima	25
140563	7	Sololá	713	San Lucas Tolimán	10	San Lucas Tolimán	8	Agosto	2023-09-08T00:00:00	2024-11-08T12:00:00	3	Temperatura mínima	23.9
140564	7	Sololá	713	San Lucas Tolimán	10	San Lucas Tolimán	8	Agosto	2023-09-08T00:00:00	2024-11-08T12:00:00	5	Humedad	56
140565	7	Sololá	713	San Lucas Tolimán	10	San Lucas Tolimán	8	Agosto	2023-09-08T00:00:00	2024-11-08T12:00:00	6	Velocidad del viento	11.3
140566	7	Sololá	713	San Lucas Tolimán	10	San Lucas Tolimán	8	Agosto	2023-09-08T00:00:00	2024-11-08T12:00:00	7	Dirección del viento	11.27
140567	7	Sololá	713	San Lucas Tolimán	10	San Lucas Tolimán	8	Agosto	2023-09-08T00:00:00	2024-11-08T12:00:00	1	Precipitación	0
140568	7	Sololá	713	San Lucas Tolimán	10	San Lucas Tolimán	8	Agosto	2023-09-08T00:00:00	2024-11-08T12:00:00	8	Radiación solar	1069
140569	7	Sololá	713	San Lucas Tolimán	10	San Lucas Tolimán	8	Agosto	2023-09-08T00:00:00	2024-11-08T13:00:00	2	Temperatura media	24.2
140570	7	Sololá	713	San Lucas Tolimán	10	San Lucas Tolimán	8	Agosto	2023-09-08T00:00:00	2024-11-08T13:00:00	4	Temperatura máxima	24.8
140571	7	Sololá	713	San Lucas Tolimán	10	San Lucas Tolimán	8	Agosto	2023-09-08T00:00:00	2024-11-08T13:00:00	3	Temperatura mínima	23.6
140572	7	Sololá	713	San Lucas Tolimán	10	San Lucas Tolimán	8	Agosto	2023-09-08T00:00:00	2024-11-08T13:00:00	5	Humedad	62
140573	7	Sololá	713	San Lucas Tolimán	10	San Lucas Tolimán	8	Agosto	2023-09-08T00:00:00	2024-11-08T13:00:00	6	Velocidad del viento	12.9
140574	7	Sololá	713	San Lucas Tolimán	10	San Lucas Tolimán	8	Agosto	2023-09-08T00:00:00	2024-11-08T13:00:00	7	Dirección del viento	12.87
140575	7	Sololá	713	San Lucas Tolimán	10	San Lucas Tolimán	8	Agosto	2023-09-08T00:00:00	2024-11-08T13:00:00	1	Precipitación	0
140576	7	Sololá	713	San Lucas Tolimán	10	San Lucas Tolimán	8	Agosto	2023-09-08T00:00:00	2024-11-08T13:00:00	8	Radiación solar	1085
140577	7	Sololá	713	San Lucas Tolimán	10	San Lucas Tolimán	8	Agosto	2023-09-08T00:00:00	2024-11-08T14:00:00	2	Temperatura media	23.2
140578	7	Sololá	713	San Lucas Tolimán	10	San Lucas Tolimán	8	Agosto	2023-09-08T00:00:00	2024-11-08T14:00:00	4	Temperatura máxima	24.3
140579	7	Sololá	713	San Lucas Tolimán	10	San Lucas Tolimán	8	Agosto	2023-09-08T00:00:00	2024-11-08T14:00:00	3	Temperatura mínima	22.6
140580	7	Sololá	713	San Lucas Tolimán	10	San Lucas Tolimán	8	Agosto	2023-09-08T00:00:00	2024-11-08T14:00:00	5	Humedad	64
140581	7	Sololá	713	San Lucas Tolimán	10	San Lucas Tolimán	8	Agosto	2023-09-08T00:00:00	2024-11-08T14:00:00	6	Velocidad del viento	12.9
140582	7	Sololá	713	San Lucas Tolimán	10	San Lucas Tolimán	8	Agosto	2023-09-08T00:00:00	2024-11-08T14:00:00	7	Dirección del viento	12.87
140583	7	Sololá	713	San Lucas Tolimán	10	San Lucas Tolimán	8	Agosto	2023-09-08T00:00:00	2024-11-08T14:00:00	1	Precipitación	0
140584	7	Sololá	713	San Lucas Tolimán	10	San Lucas Tolimán	8	Agosto	2023-09-08T00:00:00	2024-11-08T14:00:00	8	Radiación solar	621
140585	7	Sololá	713	San Lucas Tolimán	10	San Lucas Tolimán	8	Agosto	2023-09-08T00:00:00	2024-11-08T15:00:00	2	Temperatura media	20.5
140586	7	Sololá	713	San Lucas Tolimán	10	San Lucas Tolimán	8	Agosto	2023-09-08T00:00:00	2024-11-08T15:00:00	4	Temperatura máxima	23.6
140587	7	Sololá	713	San Lucas Tolimán	10	San Lucas Tolimán	8	Agosto	2023-09-08T00:00:00	2024-11-08T15:00:00	3	Temperatura mínima	20.5
140588	7	Sololá	713	San Lucas Tolimán	10	San Lucas Tolimán	8	Agosto	2023-09-08T00:00:00	2024-11-08T15:00:00	5	Humedad	62
140589	7	Sololá	713	San Lucas Tolimán	10	San Lucas Tolimán	8	Agosto	2023-09-08T00:00:00	2024-11-08T15:00:00	6	Velocidad del viento	11.3
140590	7	Sololá	713	San Lucas Tolimán	10	San Lucas Tolimán	8	Agosto	2023-09-08T00:00:00	2024-11-08T15:00:00	7	Dirección del viento	11.27
140591	7	Sololá	713	San Lucas Tolimán	10	San Lucas Tolimán	8	Agosto	2023-09-08T00:00:00	2024-11-08T15:00:00	1	Precipitación	1.2
140592	7	Sololá	713	San Lucas Tolimán	10	San Lucas Tolimán	8	Agosto	2023-09-08T00:00:00	2024-11-08T15:00:00	8	Radiación solar	241
140593	7	Sololá	713	San Lucas Tolimán	10	San Lucas Tolimán	8	Agosto	2023-09-08T00:00:00	2024-11-08T16:00:00	2	Temperatura media	19.9
140594	7	Sololá	713	San Lucas Tolimán	10	San Lucas Tolimán	8	Agosto	2023-09-08T00:00:00	2024-11-08T16:00:00	4	Temperatura máxima	20.6
140595	7	Sololá	713	San Lucas Tolimán	10	San Lucas Tolimán	8	Agosto	2023-09-08T00:00:00	2024-11-08T16:00:00	3	Temperatura mínima	19.8
140596	7	Sololá	713	San Lucas Tolimán	10	San Lucas Tolimán	8	Agosto	2023-09-08T00:00:00	2024-11-08T16:00:00	5	Humedad	63
140597	7	Sololá	713	San Lucas Tolimán	10	San Lucas Tolimán	8	Agosto	2023-09-08T00:00:00	2024-11-08T16:00:00	6	Velocidad del viento	9.7
140598	7	Sololá	713	San Lucas Tolimán	10	San Lucas Tolimán	8	Agosto	2023-09-08T00:00:00	2024-11-08T16:00:00	7	Dirección del viento	9.66
140599	7	Sololá	713	San Lucas Tolimán	10	San Lucas Tolimán	8	Agosto	2023-09-08T00:00:00	2024-11-08T16:00:00	1	Precipitación	0.6
140600	7	Sololá	713	San Lucas Tolimán	10	San Lucas Tolimán	8	Agosto	2023-09-08T00:00:00	2024-11-08T16:00:00	8	Radiación solar	112
140601	7	Sololá	713	San Lucas Tolimán	10	San Lucas Tolimán	8	Agosto	2023-09-08T00:00:00	2024-11-08T17:00:00	2	Temperatura media	19.9
140602	7	Sololá	713	San Lucas Tolimán	10	San Lucas Tolimán	8	Agosto	2023-09-08T00:00:00	2024-11-08T17:00:00	4	Temperatura máxima	20.3
140603	7	Sololá	713	San Lucas Tolimán	10	San Lucas Tolimán	8	Agosto	2023-09-08T00:00:00	2024-11-08T17:00:00	3	Temperatura mínima	19.4
140604	7	Sololá	713	San Lucas Tolimán	10	San Lucas Tolimán	8	Agosto	2023-09-08T00:00:00	2024-11-08T17:00:00	5	Humedad	61
140605	7	Sololá	713	San Lucas Tolimán	10	San Lucas Tolimán	8	Agosto	2023-09-08T00:00:00	2024-11-08T17:00:00	6	Velocidad del viento	6.4
140606	7	Sololá	713	San Lucas Tolimán	10	San Lucas Tolimán	8	Agosto	2023-09-08T00:00:00	2024-11-08T17:00:00	7	Dirección del viento	6.44
140607	7	Sololá	713	San Lucas Tolimán	10	San Lucas Tolimán	8	Agosto	2023-09-08T00:00:00	2024-11-08T17:00:00	1	Precipitación	0
140608	7	Sololá	713	San Lucas Tolimán	10	San Lucas Tolimán	8	Agosto	2023-09-08T00:00:00	2024-11-08T17:00:00	8	Radiación solar	98
140609	7	Sololá	713	San Lucas Tolimán	10	San Lucas Tolimán	8	Agosto	2023-09-08T00:00:00	2024-11-08T18:00:00	2	Temperatura media	19.8
140610	7	Sololá	713	San Lucas Tolimán	10	San Lucas Tolimán	8	Agosto	2023-09-08T00:00:00	2024-11-08T18:00:00	4	Temperatura máxima	19.9
140611	7	Sololá	713	San Lucas Tolimán	10	San Lucas Tolimán	8	Agosto	2023-09-08T00:00:00	2024-11-08T18:00:00	3	Temperatura mínima	19.7
140612	7	Sololá	713	San Lucas Tolimán	10	San Lucas Tolimán	8	Agosto	2023-09-08T00:00:00	2024-11-08T18:00:00	5	Humedad	61
140613	7	Sololá	713	San Lucas Tolimán	10	San Lucas Tolimán	8	Agosto	2023-09-08T00:00:00	2024-11-08T18:00:00	6	Velocidad del viento	1.6
140614	7	Sololá	713	San Lucas Tolimán	10	San Lucas Tolimán	8	Agosto	2023-09-08T00:00:00	2024-11-08T18:00:00	7	Dirección del viento	1.61
140615	7	Sololá	713	San Lucas Tolimán	10	San Lucas Tolimán	8	Agosto	2023-09-08T00:00:00	2024-11-08T18:00:00	1	Precipitación	0
140616	7	Sololá	713	San Lucas Tolimán	10	San Lucas Tolimán	8	Agosto	2023-09-08T00:00:00	2024-11-08T18:00:00	8	Radiación solar	70
140617	7	Sololá	713	San Lucas Tolimán	10	San Lucas Tolimán	8	Agosto	2023-09-08T00:00:00	2024-11-08T19:00:00	2	Temperatura media	18.7
140618	7	Sololá	713	San Lucas Tolimán	10	San Lucas Tolimán	8	Agosto	2023-09-08T00:00:00	2024-11-08T19:00:00	4	Temperatura máxima	19.9
140619	7	Sololá	713	San Lucas Tolimán	10	San Lucas Tolimán	8	Agosto	2023-09-08T00:00:00	2024-11-08T19:00:00	3	Temperatura mínima	18.6
140620	7	Sololá	713	San Lucas Tolimán	10	San Lucas Tolimán	8	Agosto	2023-09-08T00:00:00	2024-11-08T19:00:00	5	Humedad	62
140621	7	Sololá	713	San Lucas Tolimán	10	San Lucas Tolimán	8	Agosto	2023-09-08T00:00:00	2024-11-08T19:00:00	6	Velocidad del viento	4.8
140622	7	Sololá	713	San Lucas Tolimán	10	San Lucas Tolimán	8	Agosto	2023-09-08T00:00:00	2024-11-08T19:00:00	7	Dirección del viento	4.83
140623	7	Sololá	713	San Lucas Tolimán	10	San Lucas Tolimán	8	Agosto	2023-09-08T00:00:00	2024-11-08T19:00:00	1	Precipitación	0
140624	7	Sololá	713	San Lucas Tolimán	10	San Lucas Tolimán	8	Agosto	2023-09-08T00:00:00	2024-11-08T19:00:00	8	Radiación solar	0
140625	7	Sololá	713	San Lucas Tolimán	10	San Lucas Tolimán	8	Agosto	2023-09-08T00:00:00	2024-11-08T20:00:00	2	Temperatura media	18.2
140626	7	Sololá	713	San Lucas Tolimán	10	San Lucas Tolimán	8	Agosto	2023-09-08T00:00:00	2024-11-08T20:00:00	4	Temperatura máxima	19.1
140627	7	Sololá	713	San Lucas Tolimán	10	San Lucas Tolimán	8	Agosto	2023-09-08T00:00:00	2024-11-08T20:00:00	3	Temperatura mínima	18.2
140628	7	Sololá	713	San Lucas Tolimán	10	San Lucas Tolimán	8	Agosto	2023-09-08T00:00:00	2024-11-08T20:00:00	5	Humedad	62
140629	7	Sololá	713	San Lucas Tolimán	10	San Lucas Tolimán	8	Agosto	2023-09-08T00:00:00	2024-11-08T20:00:00	6	Velocidad del viento	1.6
140630	7	Sololá	713	San Lucas Tolimán	10	San Lucas Tolimán	8	Agosto	2023-09-08T00:00:00	2024-11-08T20:00:00	7	Dirección del viento	1.61
140631	7	Sololá	713	San Lucas Tolimán	10	San Lucas Tolimán	8	Agosto	2023-09-08T00:00:00	2024-11-08T20:00:00	1	Precipitación	0
140632	7	Sololá	713	San Lucas Tolimán	10	San Lucas Tolimán	8	Agosto	2023-09-08T00:00:00	2024-11-08T20:00:00	8	Radiación solar	0
140633	7	Sololá	713	San Lucas Tolimán	10	San Lucas Tolimán	8	Agosto	2023-09-08T00:00:00	2024-11-08T21:00:00	2	Temperatura media	18.1
140634	7	Sololá	713	San Lucas Tolimán	10	San Lucas Tolimán	8	Agosto	2023-09-08T00:00:00	2024-11-08T21:00:00	4	Temperatura máxima	18.3
140635	7	Sololá	713	San Lucas Tolimán	10	San Lucas Tolimán	8	Agosto	2023-09-08T00:00:00	2024-11-08T21:00:00	3	Temperatura mínima	18.1
140636	7	Sololá	713	San Lucas Tolimán	10	San Lucas Tolimán	8	Agosto	2023-09-08T00:00:00	2024-11-08T21:00:00	5	Humedad	62
140637	7	Sololá	713	San Lucas Tolimán	10	San Lucas Tolimán	8	Agosto	2023-09-08T00:00:00	2024-11-08T21:00:00	6	Velocidad del viento	1.6
140638	7	Sololá	713	San Lucas Tolimán	10	San Lucas Tolimán	8	Agosto	2023-09-08T00:00:00	2024-11-08T21:00:00	7	Dirección del viento	1.61
140639	7	Sololá	713	San Lucas Tolimán	10	San Lucas Tolimán	8	Agosto	2023-09-08T00:00:00	2024-11-08T21:00:00	1	Precipitación	0
140640	7	Sololá	713	San Lucas Tolimán	10	San Lucas Tolimán	8	Agosto	2023-09-08T00:00:00	2024-11-08T21:00:00	8	Radiación solar	0
140641	7	Sololá	713	San Lucas Tolimán	10	San Lucas Tolimán	8	Agosto	2023-09-08T00:00:00	2024-11-08T22:00:00	2	Temperatura media	18.4
140642	7	Sololá	713	San Lucas Tolimán	10	San Lucas Tolimán	8	Agosto	2023-09-08T00:00:00	2024-11-08T22:00:00	4	Temperatura máxima	18.4
140643	7	Sololá	713	San Lucas Tolimán	10	San Lucas Tolimán	8	Agosto	2023-09-08T00:00:00	2024-11-08T22:00:00	3	Temperatura mínima	18.2
140644	7	Sololá	713	San Lucas Tolimán	10	San Lucas Tolimán	8	Agosto	2023-09-08T00:00:00	2024-11-08T22:00:00	5	Humedad	62
140645	7	Sololá	713	San Lucas Tolimán	10	San Lucas Tolimán	8	Agosto	2023-09-08T00:00:00	2024-11-08T22:00:00	6	Velocidad del viento	1.6
140646	7	Sololá	713	San Lucas Tolimán	10	San Lucas Tolimán	8	Agosto	2023-09-08T00:00:00	2024-11-08T22:00:00	7	Dirección del viento	1.61
140647	7	Sololá	713	San Lucas Tolimán	10	San Lucas Tolimán	8	Agosto	2023-09-08T00:00:00	2024-11-08T22:00:00	1	Precipitación	0
140648	7	Sololá	713	San Lucas Tolimán	10	San Lucas Tolimán	8	Agosto	2023-09-08T00:00:00	2024-11-08T22:00:00	8	Radiación solar	0
140649	7	Sololá	713	San Lucas Tolimán	10	San Lucas Tolimán	8	Agosto	2023-09-08T00:00:00	2024-11-08T23:00:00	2	Temperatura media	18.6
140650	7	Sololá	713	San Lucas Tolimán	10	San Lucas Tolimán	8	Agosto	2023-09-08T00:00:00	2024-11-08T23:00:00	4	Temperatura máxima	18.6
140651	7	Sololá	713	San Lucas Tolimán	10	San Lucas Tolimán	8	Agosto	2023-09-08T00:00:00	2024-11-08T23:00:00	3	Temperatura mínima	18.3
140652	7	Sololá	713	San Lucas Tolimán	10	San Lucas Tolimán	8	Agosto	2023-09-08T00:00:00	2024-11-08T23:00:00	5	Humedad	62
140653	7	Sololá	713	San Lucas Tolimán	10	San Lucas Tolimán	8	Agosto	2023-09-08T00:00:00	2024-11-08T23:00:00	6	Velocidad del viento	1.6
140654	7	Sololá	713	San Lucas Tolimán	10	San Lucas Tolimán	8	Agosto	2023-09-08T00:00:00	2024-11-08T23:00:00	7	Dirección del viento	1.61
140655	7	Sololá	713	San Lucas Tolimán	10	San Lucas Tolimán	8	Agosto	2023-09-08T00:00:00	2024-11-08T23:00:00	1	Precipitación	0
140656	7	Sololá	713	San Lucas Tolimán	10	San Lucas Tolimán	8	Agosto	2023-09-08T00:00:00	2024-11-08T23:00:00	8	Radiación solar	0
140657	7	Sololá	713	San Lucas Tolimán	10	San Lucas Tolimán	8	Agosto	2023-10-08T00:00:00	2024-11-08T00:00:00	2	Temperatura media	18.5
140658	7	Sololá	713	San Lucas Tolimán	10	San Lucas Tolimán	8	Agosto	2023-10-08T00:00:00	2024-11-08T00:00:00	4	Temperatura máxima	18.6
140659	7	Sololá	713	San Lucas Tolimán	10	San Lucas Tolimán	8	Agosto	2023-10-08T00:00:00	2024-11-08T00:00:00	3	Temperatura mínima	18.3
140660	7	Sololá	713	San Lucas Tolimán	10	San Lucas Tolimán	8	Agosto	2023-10-08T00:00:00	2024-11-08T00:00:00	5	Humedad	62
140661	7	Sololá	713	San Lucas Tolimán	10	San Lucas Tolimán	8	Agosto	2023-10-08T00:00:00	2024-11-08T00:00:00	6	Velocidad del viento	0
140662	7	Sololá	713	San Lucas Tolimán	10	San Lucas Tolimán	8	Agosto	2023-10-08T00:00:00	2024-11-08T00:00:00	7	Dirección del viento	0
140663	7	Sololá	713	San Lucas Tolimán	10	San Lucas Tolimán	8	Agosto	2023-10-08T00:00:00	2024-11-08T00:00:00	1	Precipitación	0
140664	7	Sololá	713	San Lucas Tolimán	10	San Lucas Tolimán	8	Agosto	2023-10-08T00:00:00	2024-11-08T00:00:00	8	Radiación solar	0
140665	7	Sololá	713	San Lucas Tolimán	10	San Lucas Tolimán	8	Agosto	2023-10-08T00:00:00	2024-11-08T01:00:00	2	Temperatura media	18.3
140666	7	Sololá	713	San Lucas Tolimán	10	San Lucas Tolimán	8	Agosto	2023-10-08T00:00:00	2024-11-08T01:00:00	4	Temperatura máxima	18.5
140667	7	Sololá	713	San Lucas Tolimán	10	San Lucas Tolimán	8	Agosto	2023-10-08T00:00:00	2024-11-08T01:00:00	3	Temperatura mínima	18.3
140668	7	Sololá	713	San Lucas Tolimán	10	San Lucas Tolimán	8	Agosto	2023-10-08T00:00:00	2024-11-08T01:00:00	5	Humedad	62
140669	7	Sololá	713	San Lucas Tolimán	10	San Lucas Tolimán	8	Agosto	2023-10-08T00:00:00	2024-11-08T01:00:00	6	Velocidad del viento	1.6
140670	7	Sololá	713	San Lucas Tolimán	10	San Lucas Tolimán	8	Agosto	2023-10-08T00:00:00	2024-11-08T01:00:00	7	Dirección del viento	1.61
140671	7	Sololá	713	San Lucas Tolimán	10	San Lucas Tolimán	8	Agosto	2023-10-08T00:00:00	2024-11-08T01:00:00	1	Precipitación	0
140672	7	Sololá	713	San Lucas Tolimán	10	San Lucas Tolimán	8	Agosto	2023-10-08T00:00:00	2024-11-08T01:00:00	8	Radiación solar	0
140673	7	Sololá	713	San Lucas Tolimán	10	San Lucas Tolimán	8	Agosto	2023-10-08T00:00:00	2024-11-08T02:00:00	2	Temperatura media	17.2
140674	7	Sololá	713	San Lucas Tolimán	10	San Lucas Tolimán	8	Agosto	2023-10-08T00:00:00	2024-11-08T02:00:00	4	Temperatura máxima	18.6
140675	7	Sololá	713	San Lucas Tolimán	10	San Lucas Tolimán	8	Agosto	2023-10-08T00:00:00	2024-11-08T02:00:00	3	Temperatura mínima	17.2
140676	7	Sololá	713	San Lucas Tolimán	10	San Lucas Tolimán	8	Agosto	2023-10-08T00:00:00	2024-11-08T02:00:00	5	Humedad	63
140677	7	Sololá	713	San Lucas Tolimán	10	San Lucas Tolimán	8	Agosto	2023-10-08T00:00:00	2024-11-08T02:00:00	6	Velocidad del viento	1.6
140678	7	Sololá	713	San Lucas Tolimán	10	San Lucas Tolimán	8	Agosto	2023-10-08T00:00:00	2024-11-08T02:00:00	7	Dirección del viento	1.61
140679	7	Sololá	713	San Lucas Tolimán	10	San Lucas Tolimán	8	Agosto	2023-10-08T00:00:00	2024-11-08T02:00:00	1	Precipitación	0
140680	7	Sololá	713	San Lucas Tolimán	10	San Lucas Tolimán	8	Agosto	2023-10-08T00:00:00	2024-11-08T02:00:00	8	Radiación solar	0
140681	7	Sololá	713	San Lucas Tolimán	10	San Lucas Tolimán	8	Agosto	2023-10-08T00:00:00	2024-11-08T03:00:00	2	Temperatura media	16.7
140682	7	Sololá	713	San Lucas Tolimán	10	San Lucas Tolimán	8	Agosto	2023-10-08T00:00:00	2024-11-08T03:00:00	4	Temperatura máxima	17.3
140683	7	Sololá	713	San Lucas Tolimán	10	San Lucas Tolimán	8	Agosto	2023-10-08T00:00:00	2024-11-08T03:00:00	3	Temperatura mínima	16.7
140684	7	Sololá	713	San Lucas Tolimán	10	San Lucas Tolimán	8	Agosto	2023-10-08T00:00:00	2024-11-08T03:00:00	5	Humedad	64
140685	7	Sololá	713	San Lucas Tolimán	10	San Lucas Tolimán	8	Agosto	2023-10-08T00:00:00	2024-11-08T03:00:00	6	Velocidad del viento	1.6
140686	7	Sololá	713	San Lucas Tolimán	10	San Lucas Tolimán	8	Agosto	2023-10-08T00:00:00	2024-11-08T03:00:00	7	Dirección del viento	1.61
140687	7	Sololá	713	San Lucas Tolimán	10	San Lucas Tolimán	8	Agosto	2023-10-08T00:00:00	2024-11-08T03:00:00	1	Precipitación	0
140688	7	Sololá	713	San Lucas Tolimán	10	San Lucas Tolimán	8	Agosto	2023-10-08T00:00:00	2024-11-08T03:00:00	8	Radiación solar	0
140689	7	Sololá	713	San Lucas Tolimán	10	San Lucas Tolimán	8	Agosto	2023-10-08T00:00:00	2024-11-08T04:00:00	2	Temperatura media	17.1
140690	7	Sololá	713	San Lucas Tolimán	10	San Lucas Tolimán	8	Agosto	2023-10-08T00:00:00	2024-11-08T04:00:00	4	Temperatura máxima	17.1
140691	7	Sololá	713	San Lucas Tolimán	10	San Lucas Tolimán	8	Agosto	2023-10-08T00:00:00	2024-11-08T04:00:00	3	Temperatura mínima	16.7
140692	7	Sololá	713	San Lucas Tolimán	10	San Lucas Tolimán	8	Agosto	2023-10-08T00:00:00	2024-11-08T04:00:00	5	Humedad	65
140693	7	Sololá	713	San Lucas Tolimán	10	San Lucas Tolimán	8	Agosto	2023-10-08T00:00:00	2024-11-08T04:00:00	6	Velocidad del viento	1.6
140694	7	Sololá	713	San Lucas Tolimán	10	San Lucas Tolimán	8	Agosto	2023-10-08T00:00:00	2024-11-08T04:00:00	7	Dirección del viento	1.61
140695	7	Sololá	713	San Lucas Tolimán	10	San Lucas Tolimán	8	Agosto	2023-10-08T00:00:00	2024-11-08T04:00:00	1	Precipitación	0
140696	7	Sololá	713	San Lucas Tolimán	10	San Lucas Tolimán	8	Agosto	2023-10-08T00:00:00	2024-11-08T04:00:00	8	Radiación solar	0
140697	7	Sololá	713	San Lucas Tolimán	10	San Lucas Tolimán	8	Agosto	2023-10-08T00:00:00	2024-11-08T05:00:00	2	Temperatura media	17.6
140698	7	Sololá	713	San Lucas Tolimán	10	San Lucas Tolimán	8	Agosto	2023-10-08T00:00:00	2024-11-08T05:00:00	4	Temperatura máxima	17.6
140699	7	Sololá	713	San Lucas Tolimán	10	San Lucas Tolimán	8	Agosto	2023-10-08T00:00:00	2024-11-08T05:00:00	3	Temperatura mínima	17.1
140700	7	Sololá	713	San Lucas Tolimán	10	San Lucas Tolimán	8	Agosto	2023-10-08T00:00:00	2024-11-08T05:00:00	5	Humedad	64
140701	7	Sololá	713	San Lucas Tolimán	10	San Lucas Tolimán	8	Agosto	2023-10-08T00:00:00	2024-11-08T05:00:00	6	Velocidad del viento	0
140702	7	Sololá	713	San Lucas Tolimán	10	San Lucas Tolimán	8	Agosto	2023-10-08T00:00:00	2024-11-08T05:00:00	7	Dirección del viento	0
140703	7	Sololá	713	San Lucas Tolimán	10	San Lucas Tolimán	8	Agosto	2023-10-08T00:00:00	2024-11-08T05:00:00	1	Precipitación	0
140704	7	Sololá	713	San Lucas Tolimán	10	San Lucas Tolimán	8	Agosto	2023-10-08T00:00:00	2024-11-08T05:00:00	8	Radiación solar	0
140705	7	Sololá	713	San Lucas Tolimán	10	San Lucas Tolimán	8	Agosto	2023-10-08T00:00:00	2024-11-08T06:00:00	2	Temperatura media	17.8
140706	7	Sololá	713	San Lucas Tolimán	10	San Lucas Tolimán	8	Agosto	2023-10-08T00:00:00	2024-11-08T06:00:00	4	Temperatura máxima	17.8
140707	7	Sololá	713	San Lucas Tolimán	10	San Lucas Tolimán	8	Agosto	2023-10-08T00:00:00	2024-11-08T06:00:00	3	Temperatura mínima	17.6
140708	7	Sololá	713	San Lucas Tolimán	10	San Lucas Tolimán	8	Agosto	2023-10-08T00:00:00	2024-11-08T06:00:00	5	Humedad	62
140709	7	Sololá	713	San Lucas Tolimán	10	San Lucas Tolimán	8	Agosto	2023-10-08T00:00:00	2024-11-08T06:00:00	6	Velocidad del viento	0
140710	7	Sololá	713	San Lucas Tolimán	10	San Lucas Tolimán	8	Agosto	2023-10-08T00:00:00	2024-11-08T06:00:00	7	Dirección del viento	0
140711	7	Sololá	713	San Lucas Tolimán	10	San Lucas Tolimán	8	Agosto	2023-10-08T00:00:00	2024-11-08T06:00:00	1	Precipitación	0
140712	7	Sololá	713	San Lucas Tolimán	10	San Lucas Tolimán	8	Agosto	2023-10-08T00:00:00	2024-11-08T06:00:00	8	Radiación solar	0
140713	7	Sololá	713	San Lucas Tolimán	10	San Lucas Tolimán	8	Agosto	2023-10-08T00:00:00	2024-11-08T07:00:00	2	Temperatura media	19.3
140714	7	Sololá	713	San Lucas Tolimán	10	San Lucas Tolimán	8	Agosto	2023-10-08T00:00:00	2024-11-08T07:00:00	4	Temperatura máxima	19.3
140715	7	Sololá	713	San Lucas Tolimán	10	San Lucas Tolimán	8	Agosto	2023-10-08T00:00:00	2024-11-08T07:00:00	3	Temperatura mínima	17.7
140716	7	Sololá	713	San Lucas Tolimán	10	San Lucas Tolimán	8	Agosto	2023-10-08T00:00:00	2024-11-08T07:00:00	5	Humedad	59
140717	7	Sololá	713	San Lucas Tolimán	10	San Lucas Tolimán	8	Agosto	2023-10-08T00:00:00	2024-11-08T07:00:00	6	Velocidad del viento	3.2
140718	7	Sololá	713	San Lucas Tolimán	10	San Lucas Tolimán	8	Agosto	2023-10-08T00:00:00	2024-11-08T07:00:00	7	Dirección del viento	3.22
140719	7	Sololá	713	San Lucas Tolimán	10	San Lucas Tolimán	8	Agosto	2023-10-08T00:00:00	2024-11-08T07:00:00	1	Precipitación	0
140720	7	Sololá	713	San Lucas Tolimán	10	San Lucas Tolimán	8	Agosto	2023-10-08T00:00:00	2024-11-08T07:00:00	8	Radiación solar	73
140721	7	Sololá	713	San Lucas Tolimán	10	San Lucas Tolimán	8	Agosto	2023-10-08T00:00:00	2024-11-08T08:00:00	2	Temperatura media	21.9
140722	7	Sololá	713	San Lucas Tolimán	10	San Lucas Tolimán	8	Agosto	2023-10-08T00:00:00	2024-11-08T08:00:00	4	Temperatura máxima	21.9
140723	7	Sololá	713	San Lucas Tolimán	10	San Lucas Tolimán	8	Agosto	2023-10-08T00:00:00	2024-11-08T08:00:00	3	Temperatura mínima	19.3
140724	7	Sololá	713	San Lucas Tolimán	10	San Lucas Tolimán	8	Agosto	2023-10-08T00:00:00	2024-11-08T08:00:00	5	Humedad	58
140725	7	Sololá	713	San Lucas Tolimán	10	San Lucas Tolimán	8	Agosto	2023-10-08T00:00:00	2024-11-08T08:00:00	6	Velocidad del viento	1.6
140726	7	Sololá	713	San Lucas Tolimán	10	San Lucas Tolimán	8	Agosto	2023-10-08T00:00:00	2024-11-08T08:00:00	7	Dirección del viento	1.61
140727	7	Sololá	713	San Lucas Tolimán	10	San Lucas Tolimán	8	Agosto	2023-10-08T00:00:00	2024-11-08T08:00:00	1	Precipitación	0
140728	7	Sololá	713	San Lucas Tolimán	10	San Lucas Tolimán	8	Agosto	2023-10-08T00:00:00	2024-11-08T08:00:00	8	Radiación solar	294
140729	7	Sololá	713	San Lucas Tolimán	10	San Lucas Tolimán	8	Agosto	2023-10-08T00:00:00	2024-11-08T09:00:00	2	Temperatura media	22.7
140730	7	Sololá	713	San Lucas Tolimán	10	San Lucas Tolimán	8	Agosto	2023-10-08T00:00:00	2024-11-08T09:00:00	4	Temperatura máxima	22.7
140731	7	Sololá	713	San Lucas Tolimán	10	San Lucas Tolimán	8	Agosto	2023-10-08T00:00:00	2024-11-08T09:00:00	3	Temperatura mínima	21.9
140732	7	Sololá	713	San Lucas Tolimán	10	San Lucas Tolimán	8	Agosto	2023-10-08T00:00:00	2024-11-08T09:00:00	5	Humedad	57
140733	7	Sololá	713	San Lucas Tolimán	10	San Lucas Tolimán	8	Agosto	2023-10-08T00:00:00	2024-11-08T09:00:00	6	Velocidad del viento	3.2
140734	7	Sololá	713	San Lucas Tolimán	10	San Lucas Tolimán	8	Agosto	2023-10-08T00:00:00	2024-11-08T09:00:00	7	Dirección del viento	3.22
140735	7	Sololá	713	San Lucas Tolimán	10	San Lucas Tolimán	8	Agosto	2023-10-08T00:00:00	2024-11-08T09:00:00	1	Precipitación	0
140736	7	Sololá	713	San Lucas Tolimán	10	San Lucas Tolimán	8	Agosto	2023-10-08T00:00:00	2024-11-08T09:00:00	8	Radiación solar	564
140737	7	Sololá	713	San Lucas Tolimán	10	San Lucas Tolimán	8	Agosto	2023-10-08T00:00:00	2024-11-08T10:00:00	2	Temperatura media	23.2
140738	7	Sololá	713	San Lucas Tolimán	10	San Lucas Tolimán	8	Agosto	2023-10-08T00:00:00	2024-11-08T10:00:00	4	Temperatura máxima	23.2
140739	7	Sololá	713	San Lucas Tolimán	10	San Lucas Tolimán	8	Agosto	2023-10-08T00:00:00	2024-11-08T10:00:00	3	Temperatura mínima	22.4
140740	7	Sololá	713	San Lucas Tolimán	10	San Lucas Tolimán	8	Agosto	2023-10-08T00:00:00	2024-11-08T10:00:00	5	Humedad	57
140741	7	Sololá	713	San Lucas Tolimán	10	San Lucas Tolimán	8	Agosto	2023-10-08T00:00:00	2024-11-08T10:00:00	6	Velocidad del viento	6.4
140742	7	Sololá	713	San Lucas Tolimán	10	San Lucas Tolimán	8	Agosto	2023-10-08T00:00:00	2024-11-08T10:00:00	7	Dirección del viento	6.44
140743	7	Sololá	713	San Lucas Tolimán	10	San Lucas Tolimán	8	Agosto	2023-10-08T00:00:00	2024-11-08T10:00:00	1	Precipitación	0
140744	7	Sololá	713	San Lucas Tolimán	10	San Lucas Tolimán	8	Agosto	2023-10-08T00:00:00	2024-11-08T10:00:00	8	Radiación solar	751
140745	7	Sololá	713	San Lucas Tolimán	10	San Lucas Tolimán	8	Agosto	2023-10-08T00:00:00	2024-11-08T11:00:00	2	Temperatura media	24.2
140746	7	Sololá	713	San Lucas Tolimán	10	San Lucas Tolimán	8	Agosto	2023-10-08T00:00:00	2024-11-08T11:00:00	4	Temperatura máxima	24.3
140747	7	Sololá	713	San Lucas Tolimán	10	San Lucas Tolimán	8	Agosto	2023-10-08T00:00:00	2024-11-08T11:00:00	3	Temperatura mínima	23.2
140748	7	Sololá	713	San Lucas Tolimán	10	San Lucas Tolimán	8	Agosto	2023-10-08T00:00:00	2024-11-08T11:00:00	5	Humedad	59
140749	7	Sololá	713	San Lucas Tolimán	10	San Lucas Tolimán	8	Agosto	2023-10-08T00:00:00	2024-11-08T11:00:00	6	Velocidad del viento	8
140750	7	Sololá	713	San Lucas Tolimán	10	San Lucas Tolimán	8	Agosto	2023-10-08T00:00:00	2024-11-08T11:00:00	7	Dirección del viento	8.05
140751	7	Sololá	713	San Lucas Tolimán	10	San Lucas Tolimán	8	Agosto	2023-10-08T00:00:00	2024-11-08T11:00:00	1	Precipitación	0
140752	7	Sololá	713	San Lucas Tolimán	10	San Lucas Tolimán	8	Agosto	2023-10-08T00:00:00	2024-11-08T11:00:00	8	Radiación solar	977
140753	7	Sololá	713	San Lucas Tolimán	10	San Lucas Tolimán	8	Agosto	2023-10-08T00:00:00	2024-11-08T12:00:00	2	Temperatura media	24.6
140754	7	Sololá	713	San Lucas Tolimán	10	San Lucas Tolimán	8	Agosto	2023-10-08T00:00:00	2024-11-08T12:00:00	4	Temperatura máxima	24.6
140755	7	Sololá	713	San Lucas Tolimán	10	San Lucas Tolimán	8	Agosto	2023-10-08T00:00:00	2024-11-08T12:00:00	3	Temperatura mínima	23.8
140756	7	Sololá	713	San Lucas Tolimán	10	San Lucas Tolimán	8	Agosto	2023-10-08T00:00:00	2024-11-08T12:00:00	5	Humedad	59
140757	7	Sololá	713	San Lucas Tolimán	10	San Lucas Tolimán	8	Agosto	2023-10-08T00:00:00	2024-11-08T12:00:00	6	Velocidad del viento	11.3
140758	7	Sololá	713	San Lucas Tolimán	10	San Lucas Tolimán	8	Agosto	2023-10-08T00:00:00	2024-11-08T12:00:00	7	Dirección del viento	11.27
140759	7	Sololá	713	San Lucas Tolimán	10	San Lucas Tolimán	8	Agosto	2023-10-08T00:00:00	2024-11-08T12:00:00	1	Precipitación	0
140760	7	Sololá	713	San Lucas Tolimán	10	San Lucas Tolimán	8	Agosto	2023-10-08T00:00:00	2024-11-08T12:00:00	8	Radiación solar	1083
140761	7	Sololá	713	San Lucas Tolimán	10	San Lucas Tolimán	8	Agosto	2023-10-08T00:00:00	2024-11-08T13:00:00	2	Temperatura media	23.8
140762	7	Sololá	713	San Lucas Tolimán	10	San Lucas Tolimán	8	Agosto	2023-10-08T00:00:00	2024-11-08T13:00:00	4	Temperatura máxima	24.7
140763	7	Sololá	713	San Lucas Tolimán	10	San Lucas Tolimán	8	Agosto	2023-10-08T00:00:00	2024-11-08T13:00:00	3	Temperatura mínima	23.6
140764	7	Sololá	713	San Lucas Tolimán	10	San Lucas Tolimán	8	Agosto	2023-10-08T00:00:00	2024-11-08T13:00:00	5	Humedad	62
140765	7	Sololá	713	San Lucas Tolimán	10	San Lucas Tolimán	8	Agosto	2023-10-08T00:00:00	2024-11-08T13:00:00	6	Velocidad del viento	11.3
140766	7	Sololá	713	San Lucas Tolimán	10	San Lucas Tolimán	8	Agosto	2023-10-08T00:00:00	2024-11-08T13:00:00	7	Dirección del viento	11.27
140767	7	Sololá	713	San Lucas Tolimán	10	San Lucas Tolimán	8	Agosto	2023-10-08T00:00:00	2024-11-08T13:00:00	1	Precipitación	0
140768	7	Sololá	713	San Lucas Tolimán	10	San Lucas Tolimán	8	Agosto	2023-10-08T00:00:00	2024-11-08T13:00:00	8	Radiación solar	1020
140769	7	Sololá	713	San Lucas Tolimán	10	San Lucas Tolimán	8	Agosto	2023-10-08T00:00:00	2024-11-08T14:00:00	2	Temperatura media	22.1
140770	7	Sololá	713	San Lucas Tolimán	10	San Lucas Tolimán	8	Agosto	2023-10-08T00:00:00	2024-11-08T14:00:00	4	Temperatura máxima	23.8
140771	7	Sololá	713	San Lucas Tolimán	10	San Lucas Tolimán	8	Agosto	2023-10-08T00:00:00	2024-11-08T14:00:00	3	Temperatura mínima	22.1
140772	7	Sololá	713	San Lucas Tolimán	10	San Lucas Tolimán	8	Agosto	2023-10-08T00:00:00	2024-11-08T14:00:00	5	Humedad	64
140773	7	Sololá	713	San Lucas Tolimán	10	San Lucas Tolimán	8	Agosto	2023-10-08T00:00:00	2024-11-08T14:00:00	6	Velocidad del viento	9.7
140774	7	Sololá	713	San Lucas Tolimán	10	San Lucas Tolimán	8	Agosto	2023-10-08T00:00:00	2024-11-08T14:00:00	7	Dirección del viento	9.66
140775	7	Sololá	713	San Lucas Tolimán	10	San Lucas Tolimán	8	Agosto	2023-10-08T00:00:00	2024-11-08T14:00:00	1	Precipitación	0
140776	7	Sololá	713	San Lucas Tolimán	10	San Lucas Tolimán	8	Agosto	2023-10-08T00:00:00	2024-11-08T14:00:00	8	Radiación solar	379
140777	7	Sololá	713	San Lucas Tolimán	10	San Lucas Tolimán	8	Agosto	2023-10-08T00:00:00	2024-11-08T15:00:00	2	Temperatura media	22.3
140778	7	Sololá	713	San Lucas Tolimán	10	San Lucas Tolimán	8	Agosto	2023-10-08T00:00:00	2024-11-08T15:00:00	4	Temperatura máxima	22.7
140779	7	Sololá	713	San Lucas Tolimán	10	San Lucas Tolimán	8	Agosto	2023-10-08T00:00:00	2024-11-08T15:00:00	3	Temperatura mínima	21.9
140780	7	Sololá	713	San Lucas Tolimán	10	San Lucas Tolimán	8	Agosto	2023-10-08T00:00:00	2024-11-08T15:00:00	5	Humedad	62
140781	7	Sololá	713	San Lucas Tolimán	10	San Lucas Tolimán	8	Agosto	2023-10-08T00:00:00	2024-11-08T15:00:00	6	Velocidad del viento	6.4
140782	7	Sololá	713	San Lucas Tolimán	10	San Lucas Tolimán	8	Agosto	2023-10-08T00:00:00	2024-11-08T15:00:00	7	Dirección del viento	6.44
140783	7	Sololá	713	San Lucas Tolimán	10	San Lucas Tolimán	8	Agosto	2023-10-08T00:00:00	2024-11-08T15:00:00	1	Precipitación	0
140784	7	Sololá	713	San Lucas Tolimán	10	San Lucas Tolimán	8	Agosto	2023-10-08T00:00:00	2024-11-08T15:00:00	8	Radiación solar	213
140785	7	Sololá	713	San Lucas Tolimán	10	San Lucas Tolimán	8	Agosto	2023-10-08T00:00:00	2024-11-08T16:00:00	2	Temperatura media	22
140786	7	Sololá	713	San Lucas Tolimán	10	San Lucas Tolimán	8	Agosto	2023-10-08T00:00:00	2024-11-08T16:00:00	4	Temperatura máxima	22.4
140787	7	Sololá	713	San Lucas Tolimán	10	San Lucas Tolimán	8	Agosto	2023-10-08T00:00:00	2024-11-08T16:00:00	3	Temperatura mínima	21.5
140788	7	Sololá	713	San Lucas Tolimán	10	San Lucas Tolimán	8	Agosto	2023-10-08T00:00:00	2024-11-08T16:00:00	5	Humedad	59
140789	7	Sololá	713	San Lucas Tolimán	10	San Lucas Tolimán	8	Agosto	2023-10-08T00:00:00	2024-11-08T16:00:00	6	Velocidad del viento	4.8
140790	7	Sololá	713	San Lucas Tolimán	10	San Lucas Tolimán	8	Agosto	2023-10-08T00:00:00	2024-11-08T16:00:00	7	Dirección del viento	4.83
140791	7	Sololá	713	San Lucas Tolimán	10	San Lucas Tolimán	8	Agosto	2023-10-08T00:00:00	2024-11-08T16:00:00	1	Precipitación	0
140792	7	Sololá	713	San Lucas Tolimán	10	San Lucas Tolimán	8	Agosto	2023-10-08T00:00:00	2024-11-08T16:00:00	8	Radiación solar	135
140793	7	Sololá	713	San Lucas Tolimán	10	San Lucas Tolimán	8	Agosto	2023-10-08T00:00:00	2024-11-08T17:00:00	2	Temperatura media	22.6
140794	7	Sololá	713	San Lucas Tolimán	10	San Lucas Tolimán	8	Agosto	2023-10-08T00:00:00	2024-11-08T17:00:00	4	Temperatura máxima	22.7
140795	7	Sololá	713	San Lucas Tolimán	10	San Lucas Tolimán	8	Agosto	2023-10-08T00:00:00	2024-11-08T17:00:00	3	Temperatura mínima	21.8
140796	7	Sololá	713	San Lucas Tolimán	10	San Lucas Tolimán	8	Agosto	2023-10-08T00:00:00	2024-11-08T17:00:00	5	Humedad	59
140797	7	Sololá	713	San Lucas Tolimán	10	San Lucas Tolimán	8	Agosto	2023-10-08T00:00:00	2024-11-08T17:00:00	6	Velocidad del viento	3.2
140798	7	Sololá	713	San Lucas Tolimán	10	San Lucas Tolimán	8	Agosto	2023-10-08T00:00:00	2024-11-08T17:00:00	7	Dirección del viento	3.22
140799	7	Sololá	713	San Lucas Tolimán	10	San Lucas Tolimán	8	Agosto	2023-10-08T00:00:00	2024-11-08T17:00:00	1	Precipitación	0
140800	7	Sololá	713	San Lucas Tolimán	10	San Lucas Tolimán	8	Agosto	2023-10-08T00:00:00	2024-11-08T17:00:00	8	Radiación solar	118
140801	7	Sololá	713	San Lucas Tolimán	10	San Lucas Tolimán	8	Agosto	2023-10-08T00:00:00	2024-11-08T18:00:00	2	Temperatura media	22.9
140802	7	Sololá	713	San Lucas Tolimán	10	San Lucas Tolimán	8	Agosto	2023-10-08T00:00:00	2024-11-08T18:00:00	4	Temperatura máxima	22.9
140803	7	Sololá	713	San Lucas Tolimán	10	San Lucas Tolimán	8	Agosto	2023-10-08T00:00:00	2024-11-08T18:00:00	3	Temperatura mínima	21.8
140804	7	Sololá	713	San Lucas Tolimán	10	San Lucas Tolimán	8	Agosto	2023-10-08T00:00:00	2024-11-08T18:00:00	5	Humedad	57
140805	7	Sololá	713	San Lucas Tolimán	10	San Lucas Tolimán	8	Agosto	2023-10-08T00:00:00	2024-11-08T18:00:00	6	Velocidad del viento	3.2
140806	7	Sololá	713	San Lucas Tolimán	10	San Lucas Tolimán	8	Agosto	2023-10-08T00:00:00	2024-11-08T18:00:00	7	Dirección del viento	3.22
140807	7	Sololá	713	San Lucas Tolimán	10	San Lucas Tolimán	8	Agosto	2023-10-08T00:00:00	2024-11-08T18:00:00	1	Precipitación	0
140808	7	Sololá	713	San Lucas Tolimán	10	San Lucas Tolimán	8	Agosto	2023-10-08T00:00:00	2024-11-08T18:00:00	8	Radiación solar	101
140809	7	Sololá	713	San Lucas Tolimán	10	San Lucas Tolimán	8	Agosto	2023-10-08T00:00:00	2024-11-08T19:00:00	2	Temperatura media	22.7
140810	7	Sololá	713	San Lucas Tolimán	10	San Lucas Tolimán	8	Agosto	2023-10-08T00:00:00	2024-11-08T19:00:00	4	Temperatura máxima	23.7
140811	7	Sololá	713	San Lucas Tolimán	10	San Lucas Tolimán	8	Agosto	2023-10-08T00:00:00	2024-11-08T19:00:00	3	Temperatura mínima	22.7
140812	7	Sololá	713	San Lucas Tolimán	10	San Lucas Tolimán	8	Agosto	2023-10-08T00:00:00	2024-11-08T19:00:00	5	Humedad	75
140813	7	Sololá	713	San Lucas Tolimán	10	San Lucas Tolimán	8	Agosto	2023-10-08T00:00:00	2024-11-08T19:00:00	6	Velocidad del viento	1.6
140814	7	Sololá	713	San Lucas Tolimán	10	San Lucas Tolimán	8	Agosto	2023-10-08T00:00:00	2024-11-08T19:00:00	7	Dirección del viento	1.61
140815	7	Sololá	713	San Lucas Tolimán	10	San Lucas Tolimán	8	Agosto	2023-10-08T00:00:00	2024-11-08T19:00:00	1	Precipitación	0
140816	7	Sololá	713	San Lucas Tolimán	10	San Lucas Tolimán	8	Agosto	2023-10-08T00:00:00	2024-11-08T19:00:00	8	Radiación solar	0
140817	7	Sololá	713	San Lucas Tolimán	10	San Lucas Tolimán	8	Agosto	2023-10-08T00:00:00	2024-11-08T20:00:00	2	Temperatura media	21.1
140818	7	Sololá	713	San Lucas Tolimán	10	San Lucas Tolimán	8	Agosto	2023-10-08T00:00:00	2024-11-08T20:00:00	4	Temperatura máxima	22.7
140819	7	Sololá	713	San Lucas Tolimán	10	San Lucas Tolimán	8	Agosto	2023-10-08T00:00:00	2024-11-08T20:00:00	3	Temperatura mínima	21.1
140820	7	Sololá	713	San Lucas Tolimán	10	San Lucas Tolimán	8	Agosto	2023-10-08T00:00:00	2024-11-08T20:00:00	5	Humedad	77
140821	7	Sololá	713	San Lucas Tolimán	10	San Lucas Tolimán	8	Agosto	2023-10-08T00:00:00	2024-11-08T20:00:00	6	Velocidad del viento	1.6
140822	7	Sololá	713	San Lucas Tolimán	10	San Lucas Tolimán	8	Agosto	2023-10-08T00:00:00	2024-11-08T20:00:00	7	Dirección del viento	1.61
140823	7	Sololá	713	San Lucas Tolimán	10	San Lucas Tolimán	8	Agosto	2023-10-08T00:00:00	2024-11-08T20:00:00	1	Precipitación	0
140824	7	Sololá	713	San Lucas Tolimán	10	San Lucas Tolimán	8	Agosto	2023-10-08T00:00:00	2024-11-08T20:00:00	8	Radiación solar	0
140825	7	Sololá	713	San Lucas Tolimán	10	San Lucas Tolimán	8	Agosto	2023-10-08T00:00:00	2024-11-08T21:00:00	2	Temperatura media	19.6
140826	7	Sololá	713	San Lucas Tolimán	10	San Lucas Tolimán	8	Agosto	2023-10-08T00:00:00	2024-11-08T21:00:00	4	Temperatura máxima	21.1
140827	7	Sololá	713	San Lucas Tolimán	10	San Lucas Tolimán	8	Agosto	2023-10-08T00:00:00	2024-11-08T21:00:00	3	Temperatura mínima	19.5
140828	7	Sololá	713	San Lucas Tolimán	10	San Lucas Tolimán	8	Agosto	2023-10-08T00:00:00	2024-11-08T21:00:00	5	Humedad	91
140829	7	Sololá	713	San Lucas Tolimán	10	San Lucas Tolimán	8	Agosto	2023-10-08T00:00:00	2024-11-08T21:00:00	6	Velocidad del viento	6.4
140830	7	Sololá	713	San Lucas Tolimán	10	San Lucas Tolimán	8	Agosto	2023-10-08T00:00:00	2024-11-08T21:00:00	7	Dirección del viento	6.44
140831	7	Sololá	713	San Lucas Tolimán	10	San Lucas Tolimán	8	Agosto	2023-10-08T00:00:00	2024-11-08T21:00:00	1	Precipitación	0
140832	7	Sololá	713	San Lucas Tolimán	10	San Lucas Tolimán	8	Agosto	2023-10-08T00:00:00	2024-11-08T21:00:00	8	Radiación solar	0
140833	7	Sololá	713	San Lucas Tolimán	10	San Lucas Tolimán	8	Agosto	2023-10-08T00:00:00	2024-11-08T22:00:00	2	Temperatura media	19.3
140834	7	Sololá	713	San Lucas Tolimán	10	San Lucas Tolimán	8	Agosto	2023-10-08T00:00:00	2024-11-08T22:00:00	4	Temperatura máxima	19.6
140835	7	Sololá	713	San Lucas Tolimán	10	San Lucas Tolimán	8	Agosto	2023-10-08T00:00:00	2024-11-08T22:00:00	3	Temperatura mínima	19.1
140836	7	Sololá	713	San Lucas Tolimán	10	San Lucas Tolimán	8	Agosto	2023-10-08T00:00:00	2024-11-08T22:00:00	5	Humedad	89
140837	7	Sololá	713	San Lucas Tolimán	10	San Lucas Tolimán	8	Agosto	2023-10-08T00:00:00	2024-11-08T22:00:00	6	Velocidad del viento	4.8
140838	7	Sololá	713	San Lucas Tolimán	10	San Lucas Tolimán	8	Agosto	2023-10-08T00:00:00	2024-11-08T22:00:00	7	Dirección del viento	4.83
140839	7	Sololá	713	San Lucas Tolimán	10	San Lucas Tolimán	8	Agosto	2023-10-08T00:00:00	2024-11-08T22:00:00	1	Precipitación	0
140840	7	Sololá	713	San Lucas Tolimán	10	San Lucas Tolimán	8	Agosto	2023-10-08T00:00:00	2024-11-08T22:00:00	8	Radiación solar	0
140841	7	Sololá	713	San Lucas Tolimán	10	San Lucas Tolimán	8	Agosto	2023-10-08T00:00:00	2024-11-08T23:00:00	2	Temperatura media	18.3
140842	7	Sololá	713	San Lucas Tolimán	10	San Lucas Tolimán	8	Agosto	2023-10-08T00:00:00	2024-11-08T23:00:00	4	Temperatura máxima	19.3
140843	7	Sololá	713	San Lucas Tolimán	10	San Lucas Tolimán	8	Agosto	2023-10-08T00:00:00	2024-11-08T23:00:00	3	Temperatura mínima	18.3
140844	7	Sololá	713	San Lucas Tolimán	10	San Lucas Tolimán	8	Agosto	2023-10-08T00:00:00	2024-11-08T23:00:00	5	Humedad	89
140845	7	Sololá	713	San Lucas Tolimán	10	San Lucas Tolimán	8	Agosto	2023-10-08T00:00:00	2024-11-08T23:00:00	6	Velocidad del viento	1.6
140846	7	Sololá	713	San Lucas Tolimán	10	San Lucas Tolimán	8	Agosto	2023-10-08T00:00:00	2024-11-08T23:00:00	7	Dirección del viento	1.61
140847	7	Sololá	713	San Lucas Tolimán	10	San Lucas Tolimán	8	Agosto	2023-10-08T00:00:00	2024-11-08T23:00:00	1	Precipitación	0
140848	7	Sololá	713	San Lucas Tolimán	10	San Lucas Tolimán	8	Agosto	2023-10-08T00:00:00	2024-11-08T23:00:00	8	Radiación solar	0
140849	7	Sololá	713	San Lucas Tolimán	10	San Lucas Tolimán	8	Agosto	2023-11-08T00:00:00	2024-11-08T00:00:00	2	Temperatura media	17.9
140850	7	Sololá	713	San Lucas Tolimán	10	San Lucas Tolimán	8	Agosto	2023-11-08T00:00:00	2024-11-08T00:00:00	4	Temperatura máxima	18.3
140851	7	Sololá	713	San Lucas Tolimán	10	San Lucas Tolimán	8	Agosto	2023-11-08T00:00:00	2024-11-08T00:00:00	3	Temperatura mínima	17.8
140852	7	Sololá	713	San Lucas Tolimán	10	San Lucas Tolimán	8	Agosto	2023-11-08T00:00:00	2024-11-08T00:00:00	5	Humedad	88
140853	7	Sololá	713	San Lucas Tolimán	10	San Lucas Tolimán	8	Agosto	2023-11-08T00:00:00	2024-11-08T00:00:00	6	Velocidad del viento	3.2
140854	7	Sololá	713	San Lucas Tolimán	10	San Lucas Tolimán	8	Agosto	2023-11-08T00:00:00	2024-11-08T00:00:00	7	Dirección del viento	3.22
140855	7	Sololá	713	San Lucas Tolimán	10	San Lucas Tolimán	8	Agosto	2023-11-08T00:00:00	2024-11-08T00:00:00	1	Precipitación	0
140856	7	Sololá	713	San Lucas Tolimán	10	San Lucas Tolimán	8	Agosto	2023-11-08T00:00:00	2024-11-08T00:00:00	8	Radiación solar	0
140857	7	Sololá	713	San Lucas Tolimán	10	San Lucas Tolimán	8	Agosto	2023-11-08T00:00:00	2024-11-08T01:00:00	2	Temperatura media	17.7
140858	7	Sololá	713	San Lucas Tolimán	10	San Lucas Tolimán	8	Agosto	2023-11-08T00:00:00	2024-11-08T01:00:00	4	Temperatura máxima	17.9
140859	7	Sololá	713	San Lucas Tolimán	10	San Lucas Tolimán	8	Agosto	2023-11-08T00:00:00	2024-11-08T01:00:00	3	Temperatura mínima	17.6
140860	7	Sololá	713	San Lucas Tolimán	10	San Lucas Tolimán	8	Agosto	2023-11-08T00:00:00	2024-11-08T01:00:00	5	Humedad	89
140861	7	Sololá	713	San Lucas Tolimán	10	San Lucas Tolimán	8	Agosto	2023-11-08T00:00:00	2024-11-08T01:00:00	6	Velocidad del viento	1.6
140862	7	Sololá	713	San Lucas Tolimán	10	San Lucas Tolimán	8	Agosto	2023-11-08T00:00:00	2024-11-08T01:00:00	7	Dirección del viento	1.61
140863	7	Sololá	713	San Lucas Tolimán	10	San Lucas Tolimán	8	Agosto	2023-11-08T00:00:00	2024-11-08T01:00:00	1	Precipitación	0
140864	7	Sololá	713	San Lucas Tolimán	10	San Lucas Tolimán	8	Agosto	2023-11-08T00:00:00	2024-11-08T01:00:00	8	Radiación solar	0
140865	7	Sololá	713	San Lucas Tolimán	10	San Lucas Tolimán	8	Agosto	2023-11-08T00:00:00	2024-11-08T02:00:00	2	Temperatura media	17.7
140866	7	Sololá	713	San Lucas Tolimán	10	San Lucas Tolimán	8	Agosto	2023-11-08T00:00:00	2024-11-08T02:00:00	4	Temperatura máxima	17.7
140867	7	Sololá	713	San Lucas Tolimán	10	San Lucas Tolimán	8	Agosto	2023-11-08T00:00:00	2024-11-08T02:00:00	3	Temperatura mínima	17.1
140868	7	Sololá	713	San Lucas Tolimán	10	San Lucas Tolimán	8	Agosto	2023-11-08T00:00:00	2024-11-08T02:00:00	5	Humedad	94
140869	7	Sololá	713	San Lucas Tolimán	10	San Lucas Tolimán	8	Agosto	2023-11-08T00:00:00	2024-11-08T02:00:00	6	Velocidad del viento	3.2
140870	7	Sololá	713	San Lucas Tolimán	10	San Lucas Tolimán	8	Agosto	2023-11-08T00:00:00	2024-11-08T02:00:00	7	Dirección del viento	3.22
140871	7	Sololá	713	San Lucas Tolimán	10	San Lucas Tolimán	8	Agosto	2023-11-08T00:00:00	2024-11-08T02:00:00	1	Precipitación	0
140872	7	Sololá	713	San Lucas Tolimán	10	San Lucas Tolimán	8	Agosto	2023-11-08T00:00:00	2024-11-08T02:00:00	8	Radiación solar	0
140873	7	Sololá	713	San Lucas Tolimán	10	San Lucas Tolimán	8	Agosto	2023-11-08T00:00:00	2024-11-08T03:00:00	2	Temperatura media	17.2
140874	7	Sololá	713	San Lucas Tolimán	10	San Lucas Tolimán	8	Agosto	2023-11-08T00:00:00	2024-11-08T03:00:00	4	Temperatura máxima	18.1
140875	7	Sololá	713	San Lucas Tolimán	10	San Lucas Tolimán	8	Agosto	2023-11-08T00:00:00	2024-11-08T03:00:00	3	Temperatura mínima	17.2
140876	7	Sololá	713	San Lucas Tolimán	10	San Lucas Tolimán	8	Agosto	2023-11-08T00:00:00	2024-11-08T03:00:00	5	Humedad	92
140877	7	Sololá	713	San Lucas Tolimán	10	San Lucas Tolimán	8	Agosto	2023-11-08T00:00:00	2024-11-08T03:00:00	6	Velocidad del viento	3.2
140878	7	Sololá	713	San Lucas Tolimán	10	San Lucas Tolimán	8	Agosto	2023-11-08T00:00:00	2024-11-08T03:00:00	7	Dirección del viento	3.22
140879	7	Sololá	713	San Lucas Tolimán	10	San Lucas Tolimán	8	Agosto	2023-11-08T00:00:00	2024-11-08T03:00:00	1	Precipitación	0
140880	7	Sololá	713	San Lucas Tolimán	10	San Lucas Tolimán	8	Agosto	2023-11-08T00:00:00	2024-11-08T03:00:00	8	Radiación solar	0
140881	7	Sololá	713	San Lucas Tolimán	10	San Lucas Tolimán	8	Agosto	2023-11-08T00:00:00	2024-11-08T04:00:00	2	Temperatura media	16.7
140882	7	Sololá	713	San Lucas Tolimán	10	San Lucas Tolimán	8	Agosto	2023-11-08T00:00:00	2024-11-08T04:00:00	4	Temperatura máxima	17.2
140883	7	Sololá	713	San Lucas Tolimán	10	San Lucas Tolimán	8	Agosto	2023-11-08T00:00:00	2024-11-08T04:00:00	3	Temperatura mínima	16.6
140884	7	Sololá	713	San Lucas Tolimán	10	San Lucas Tolimán	8	Agosto	2023-11-08T00:00:00	2024-11-08T04:00:00	5	Humedad	90
140885	7	Sololá	713	San Lucas Tolimán	10	San Lucas Tolimán	8	Agosto	2023-11-08T00:00:00	2024-11-08T04:00:00	6	Velocidad del viento	3.2
140886	7	Sololá	713	San Lucas Tolimán	10	San Lucas Tolimán	8	Agosto	2023-11-08T00:00:00	2024-11-08T04:00:00	7	Dirección del viento	3.22
140887	7	Sololá	713	San Lucas Tolimán	10	San Lucas Tolimán	8	Agosto	2023-11-08T00:00:00	2024-11-08T04:00:00	1	Precipitación	0
140888	7	Sololá	713	San Lucas Tolimán	10	San Lucas Tolimán	8	Agosto	2023-11-08T00:00:00	2024-11-08T04:00:00	8	Radiación solar	0
140889	7	Sololá	713	San Lucas Tolimán	10	San Lucas Tolimán	8	Agosto	2023-11-08T00:00:00	2024-11-08T05:00:00	2	Temperatura media	16.1
140890	7	Sololá	713	San Lucas Tolimán	10	San Lucas Tolimán	8	Agosto	2023-11-08T00:00:00	2024-11-08T05:00:00	4	Temperatura máxima	16.7
140891	7	Sololá	713	San Lucas Tolimán	10	San Lucas Tolimán	8	Agosto	2023-11-08T00:00:00	2024-11-08T05:00:00	3	Temperatura mínima	16.1
140892	7	Sololá	713	San Lucas Tolimán	10	San Lucas Tolimán	8	Agosto	2023-11-08T00:00:00	2024-11-08T05:00:00	5	Humedad	93
140893	7	Sololá	713	San Lucas Tolimán	10	San Lucas Tolimán	8	Agosto	2023-11-08T00:00:00	2024-11-08T05:00:00	6	Velocidad del viento	1.6
140894	7	Sololá	713	San Lucas Tolimán	10	San Lucas Tolimán	8	Agosto	2023-11-08T00:00:00	2024-11-08T05:00:00	7	Dirección del viento	1.61
140895	7	Sololá	713	San Lucas Tolimán	10	San Lucas Tolimán	8	Agosto	2023-11-08T00:00:00	2024-11-08T05:00:00	1	Precipitación	0
140896	7	Sololá	713	San Lucas Tolimán	10	San Lucas Tolimán	8	Agosto	2023-11-08T00:00:00	2024-11-08T05:00:00	8	Radiación solar	0
140897	7	Sololá	713	San Lucas Tolimán	10	San Lucas Tolimán	8	Agosto	2023-11-08T00:00:00	2024-11-08T06:00:00	2	Temperatura media	16.1
140898	7	Sololá	713	San Lucas Tolimán	10	San Lucas Tolimán	8	Agosto	2023-11-08T00:00:00	2024-11-08T06:00:00	4	Temperatura máxima	16.2
140899	7	Sololá	713	San Lucas Tolimán	10	San Lucas Tolimán	8	Agosto	2023-11-08T00:00:00	2024-11-08T06:00:00	3	Temperatura mínima	15.9
140900	7	Sololá	713	San Lucas Tolimán	10	San Lucas Tolimán	8	Agosto	2023-11-08T00:00:00	2024-11-08T06:00:00	5	Humedad	93
140901	7	Sololá	713	San Lucas Tolimán	10	San Lucas Tolimán	8	Agosto	2023-11-08T00:00:00	2024-11-08T06:00:00	6	Velocidad del viento	0
140902	7	Sololá	713	San Lucas Tolimán	10	San Lucas Tolimán	8	Agosto	2023-11-08T00:00:00	2024-11-08T06:00:00	7	Dirección del viento	0
140903	7	Sololá	713	San Lucas Tolimán	10	San Lucas Tolimán	8	Agosto	2023-11-08T00:00:00	2024-11-08T06:00:00	1	Precipitación	0
140904	7	Sololá	713	San Lucas Tolimán	10	San Lucas Tolimán	8	Agosto	2023-11-08T00:00:00	2024-11-08T06:00:00	8	Radiación solar	0
140905	7	Sololá	713	San Lucas Tolimán	10	San Lucas Tolimán	8	Agosto	2023-11-08T00:00:00	2024-11-08T07:00:00	2	Temperatura media	17.9
140906	7	Sololá	713	San Lucas Tolimán	10	San Lucas Tolimán	8	Agosto	2023-11-08T00:00:00	2024-11-08T07:00:00	4	Temperatura máxima	17.9
140907	7	Sololá	713	San Lucas Tolimán	10	San Lucas Tolimán	8	Agosto	2023-11-08T00:00:00	2024-11-08T07:00:00	3	Temperatura mínima	15.9
140908	7	Sololá	713	San Lucas Tolimán	10	San Lucas Tolimán	8	Agosto	2023-11-08T00:00:00	2024-11-08T07:00:00	5	Humedad	88
140909	7	Sololá	713	San Lucas Tolimán	10	San Lucas Tolimán	8	Agosto	2023-11-08T00:00:00	2024-11-08T07:00:00	6	Velocidad del viento	0
140910	7	Sololá	713	San Lucas Tolimán	10	San Lucas Tolimán	8	Agosto	2023-11-08T00:00:00	2024-11-08T07:00:00	7	Dirección del viento	0
140911	7	Sololá	713	San Lucas Tolimán	10	San Lucas Tolimán	8	Agosto	2023-11-08T00:00:00	2024-11-08T07:00:00	1	Precipitación	0
140912	7	Sololá	713	San Lucas Tolimán	10	San Lucas Tolimán	8	Agosto	2023-11-08T00:00:00	2024-11-08T07:00:00	8	Radiación solar	46
140913	7	Sololá	713	San Lucas Tolimán	10	San Lucas Tolimán	8	Agosto	2023-11-08T00:00:00	2024-11-08T08:00:00	2	Temperatura media	22
140914	7	Sololá	713	San Lucas Tolimán	10	San Lucas Tolimán	8	Agosto	2023-11-08T00:00:00	2024-11-08T08:00:00	4	Temperatura máxima	22
140915	7	Sololá	713	San Lucas Tolimán	10	San Lucas Tolimán	8	Agosto	2023-11-08T00:00:00	2024-11-08T08:00:00	3	Temperatura mínima	17.9
140916	7	Sololá	713	San Lucas Tolimán	10	San Lucas Tolimán	8	Agosto	2023-11-08T00:00:00	2024-11-08T08:00:00	5	Humedad	77
140917	7	Sololá	713	San Lucas Tolimán	10	San Lucas Tolimán	8	Agosto	2023-11-08T00:00:00	2024-11-08T08:00:00	6	Velocidad del viento	1.6
140918	7	Sololá	713	San Lucas Tolimán	10	San Lucas Tolimán	8	Agosto	2023-11-08T00:00:00	2024-11-08T08:00:00	7	Dirección del viento	1.61
140919	7	Sololá	713	San Lucas Tolimán	10	San Lucas Tolimán	8	Agosto	2023-11-08T00:00:00	2024-11-08T08:00:00	1	Precipitación	0
140920	7	Sololá	713	San Lucas Tolimán	10	San Lucas Tolimán	8	Agosto	2023-11-08T00:00:00	2024-11-08T08:00:00	8	Radiación solar	310
140921	7	Sololá	713	San Lucas Tolimán	10	San Lucas Tolimán	8	Agosto	2023-11-08T00:00:00	2024-11-08T09:00:00	2	Temperatura media	22.8
140922	7	Sololá	713	San Lucas Tolimán	10	San Lucas Tolimán	8	Agosto	2023-11-08T00:00:00	2024-11-08T09:00:00	4	Temperatura máxima	22.8
140923	7	Sololá	713	San Lucas Tolimán	10	San Lucas Tolimán	8	Agosto	2023-11-08T00:00:00	2024-11-08T09:00:00	3	Temperatura mínima	22
140924	7	Sololá	713	San Lucas Tolimán	10	San Lucas Tolimán	8	Agosto	2023-11-08T00:00:00	2024-11-08T09:00:00	5	Humedad	74
140925	7	Sololá	713	San Lucas Tolimán	10	San Lucas Tolimán	8	Agosto	2023-11-08T00:00:00	2024-11-08T09:00:00	6	Velocidad del viento	3.2
140926	7	Sololá	713	San Lucas Tolimán	10	San Lucas Tolimán	8	Agosto	2023-11-08T00:00:00	2024-11-08T09:00:00	7	Dirección del viento	3.22
140927	7	Sololá	713	San Lucas Tolimán	10	San Lucas Tolimán	8	Agosto	2023-11-08T00:00:00	2024-11-08T09:00:00	1	Precipitación	0
140928	7	Sololá	713	San Lucas Tolimán	10	San Lucas Tolimán	8	Agosto	2023-11-08T00:00:00	2024-11-08T09:00:00	8	Radiación solar	480
140929	7	Sololá	713	San Lucas Tolimán	10	San Lucas Tolimán	8	Agosto	2023-11-08T00:00:00	2024-11-08T10:00:00	2	Temperatura media	22.9
140930	7	Sololá	713	San Lucas Tolimán	10	San Lucas Tolimán	8	Agosto	2023-11-08T00:00:00	2024-11-08T10:00:00	4	Temperatura máxima	23.7
140931	7	Sololá	713	San Lucas Tolimán	10	San Lucas Tolimán	8	Agosto	2023-11-08T00:00:00	2024-11-08T10:00:00	3	Temperatura mínima	22.7
140932	7	Sololá	713	San Lucas Tolimán	10	San Lucas Tolimán	8	Agosto	2023-11-08T00:00:00	2024-11-08T10:00:00	5	Humedad	73
140933	7	Sololá	713	San Lucas Tolimán	10	San Lucas Tolimán	8	Agosto	2023-11-08T00:00:00	2024-11-08T10:00:00	6	Velocidad del viento	6.4
140934	7	Sololá	713	San Lucas Tolimán	10	San Lucas Tolimán	8	Agosto	2023-11-08T00:00:00	2024-11-08T10:00:00	7	Dirección del viento	6.44
140935	7	Sololá	713	San Lucas Tolimán	10	San Lucas Tolimán	8	Agosto	2023-11-08T00:00:00	2024-11-08T10:00:00	1	Precipitación	0
140936	7	Sololá	713	San Lucas Tolimán	10	San Lucas Tolimán	8	Agosto	2023-11-08T00:00:00	2024-11-08T10:00:00	8	Radiación solar	673
140937	7	Sololá	713	San Lucas Tolimán	10	San Lucas Tolimán	8	Agosto	2023-11-08T00:00:00	2024-11-08T11:00:00	2	Temperatura media	25.2
140938	7	Sololá	713	San Lucas Tolimán	10	San Lucas Tolimán	8	Agosto	2023-11-08T00:00:00	2024-11-08T11:00:00	4	Temperatura máxima	25.2
140939	7	Sololá	713	San Lucas Tolimán	10	San Lucas Tolimán	8	Agosto	2023-11-08T00:00:00	2024-11-08T11:00:00	3	Temperatura mínima	22.9
140940	7	Sololá	713	San Lucas Tolimán	10	San Lucas Tolimán	8	Agosto	2023-11-08T00:00:00	2024-11-08T11:00:00	5	Humedad	66
140941	7	Sololá	713	San Lucas Tolimán	10	San Lucas Tolimán	8	Agosto	2023-11-08T00:00:00	2024-11-08T11:00:00	6	Velocidad del viento	4.8
140942	7	Sololá	713	San Lucas Tolimán	10	San Lucas Tolimán	8	Agosto	2023-11-08T00:00:00	2024-11-08T11:00:00	7	Dirección del viento	4.83
140943	7	Sololá	713	San Lucas Tolimán	10	San Lucas Tolimán	8	Agosto	2023-11-08T00:00:00	2024-11-08T11:00:00	1	Precipitación	0
140944	7	Sololá	713	San Lucas Tolimán	10	San Lucas Tolimán	8	Agosto	2023-11-08T00:00:00	2024-11-08T11:00:00	8	Radiación solar	896
140945	7	Sololá	713	San Lucas Tolimán	10	San Lucas Tolimán	8	Agosto	2023-11-08T00:00:00	2024-11-08T12:00:00	2	Temperatura media	24.4
140946	7	Sololá	713	San Lucas Tolimán	10	San Lucas Tolimán	8	Agosto	2023-11-08T00:00:00	2024-11-08T12:00:00	4	Temperatura máxima	25.4
140947	7	Sololá	713	San Lucas Tolimán	10	San Lucas Tolimán	8	Agosto	2023-11-08T00:00:00	2024-11-08T12:00:00	3	Temperatura mínima	24.4
140948	7	Sololá	713	San Lucas Tolimán	10	San Lucas Tolimán	8	Agosto	2023-11-08T00:00:00	2024-11-08T12:00:00	5	Humedad	71
140949	7	Sololá	713	San Lucas Tolimán	10	San Lucas Tolimán	8	Agosto	2023-11-08T00:00:00	2024-11-08T12:00:00	6	Velocidad del viento	9.7
140950	7	Sololá	713	San Lucas Tolimán	10	San Lucas Tolimán	8	Agosto	2023-11-08T00:00:00	2024-11-08T12:00:00	7	Dirección del viento	9.66
140951	7	Sololá	713	San Lucas Tolimán	10	San Lucas Tolimán	8	Agosto	2023-11-08T00:00:00	2024-11-08T12:00:00	1	Precipitación	0
140952	7	Sololá	713	San Lucas Tolimán	10	San Lucas Tolimán	8	Agosto	2023-11-08T00:00:00	2024-11-08T12:00:00	8	Radiación solar	842
140953	7	Sololá	713	San Lucas Tolimán	10	San Lucas Tolimán	8	Agosto	2023-11-08T00:00:00	2024-11-08T13:00:00	2	Temperatura media	24.7
140954	7	Sololá	713	San Lucas Tolimán	10	San Lucas Tolimán	8	Agosto	2023-11-08T00:00:00	2024-11-08T13:00:00	4	Temperatura máxima	24.7
140955	7	Sololá	713	San Lucas Tolimán	10	San Lucas Tolimán	8	Agosto	2023-11-08T00:00:00	2024-11-08T13:00:00	3	Temperatura mínima	24.4
140956	7	Sololá	713	San Lucas Tolimán	10	San Lucas Tolimán	8	Agosto	2023-11-08T00:00:00	2024-11-08T13:00:00	5	Humedad	71
140957	7	Sololá	713	San Lucas Tolimán	10	San Lucas Tolimán	8	Agosto	2023-11-08T00:00:00	2024-11-08T13:00:00	6	Velocidad del viento	9.7
140958	7	Sololá	713	San Lucas Tolimán	10	San Lucas Tolimán	8	Agosto	2023-11-08T00:00:00	2024-11-08T13:00:00	7	Dirección del viento	9.66
140959	7	Sololá	713	San Lucas Tolimán	10	San Lucas Tolimán	8	Agosto	2023-11-08T00:00:00	2024-11-08T13:00:00	1	Precipitación	0
140960	7	Sololá	713	San Lucas Tolimán	10	San Lucas Tolimán	8	Agosto	2023-11-08T00:00:00	2024-11-08T13:00:00	8	Radiación solar	877
140961	7	Sololá	713	San Lucas Tolimán	10	San Lucas Tolimán	8	Agosto	2023-11-08T00:00:00	2024-11-08T14:00:00	2	Temperatura media	25.9
140962	7	Sololá	713	San Lucas Tolimán	10	San Lucas Tolimán	8	Agosto	2023-11-08T00:00:00	2024-11-08T14:00:00	4	Temperatura máxima	26.3
140963	7	Sololá	713	San Lucas Tolimán	10	San Lucas Tolimán	8	Agosto	2023-11-08T00:00:00	2024-11-08T14:00:00	3	Temperatura mínima	24.7
140964	7	Sololá	713	San Lucas Tolimán	10	San Lucas Tolimán	8	Agosto	2023-11-08T00:00:00	2024-11-08T14:00:00	5	Humedad	69
140965	7	Sololá	713	San Lucas Tolimán	10	San Lucas Tolimán	8	Agosto	2023-11-08T00:00:00	2024-11-08T14:00:00	6	Velocidad del viento	9.7
140966	7	Sololá	713	San Lucas Tolimán	10	San Lucas Tolimán	8	Agosto	2023-11-08T00:00:00	2024-11-08T14:00:00	7	Dirección del viento	9.66
140967	7	Sololá	713	San Lucas Tolimán	10	San Lucas Tolimán	8	Agosto	2023-11-08T00:00:00	2024-11-08T14:00:00	1	Precipitación	0
140968	7	Sololá	713	San Lucas Tolimán	10	San Lucas Tolimán	8	Agosto	2023-11-08T00:00:00	2024-11-08T14:00:00	8	Radiación solar	1001
140969	7	Sololá	713	San Lucas Tolimán	10	San Lucas Tolimán	8	Agosto	2023-11-08T00:00:00	2024-11-08T15:00:00	2	Temperatura media	23.8
140970	7	Sololá	713	San Lucas Tolimán	10	San Lucas Tolimán	8	Agosto	2023-11-08T00:00:00	2024-11-08T15:00:00	4	Temperatura máxima	25.9
140971	7	Sololá	713	San Lucas Tolimán	10	San Lucas Tolimán	8	Agosto	2023-11-08T00:00:00	2024-11-08T15:00:00	3	Temperatura mínima	23.7
140972	7	Sololá	713	San Lucas Tolimán	10	San Lucas Tolimán	8	Agosto	2023-11-08T00:00:00	2024-11-08T15:00:00	5	Humedad	81
140973	7	Sololá	713	San Lucas Tolimán	10	San Lucas Tolimán	8	Agosto	2023-11-08T00:00:00	2024-11-08T15:00:00	6	Velocidad del viento	9.7
140974	7	Sololá	713	San Lucas Tolimán	10	San Lucas Tolimán	8	Agosto	2023-11-08T00:00:00	2024-11-08T15:00:00	7	Dirección del viento	9.66
140975	7	Sololá	713	San Lucas Tolimán	10	San Lucas Tolimán	8	Agosto	2023-11-08T00:00:00	2024-11-08T15:00:00	1	Precipitación	0
140976	7	Sololá	713	San Lucas Tolimán	10	San Lucas Tolimán	8	Agosto	2023-11-08T00:00:00	2024-11-08T15:00:00	8	Radiación solar	533
140977	7	Sololá	713	San Lucas Tolimán	10	San Lucas Tolimán	8	Agosto	2023-11-08T00:00:00	2024-11-08T16:00:00	2	Temperatura media	23.5
140978	7	Sololá	713	San Lucas Tolimán	10	San Lucas Tolimán	8	Agosto	2023-11-08T00:00:00	2024-11-08T16:00:00	4	Temperatura máxima	24.1
140979	7	Sololá	713	San Lucas Tolimán	10	San Lucas Tolimán	8	Agosto	2023-11-08T00:00:00	2024-11-08T16:00:00	3	Temperatura mínima	23.4
140980	7	Sololá	713	San Lucas Tolimán	10	San Lucas Tolimán	8	Agosto	2023-11-08T00:00:00	2024-11-08T16:00:00	5	Humedad	81
140981	7	Sololá	713	San Lucas Tolimán	10	San Lucas Tolimán	8	Agosto	2023-11-08T00:00:00	2024-11-08T16:00:00	6	Velocidad del viento	8
140982	7	Sololá	713	San Lucas Tolimán	10	San Lucas Tolimán	8	Agosto	2023-11-08T00:00:00	2024-11-08T16:00:00	7	Dirección del viento	8.05
140983	7	Sololá	713	San Lucas Tolimán	10	San Lucas Tolimán	8	Agosto	2023-11-08T00:00:00	2024-11-08T16:00:00	1	Precipitación	0
140984	7	Sololá	713	San Lucas Tolimán	10	San Lucas Tolimán	8	Agosto	2023-11-08T00:00:00	2024-11-08T16:00:00	8	Radiación solar	511
140985	7	Sololá	713	San Lucas Tolimán	10	San Lucas Tolimán	8	Agosto	2023-11-08T00:00:00	2024-11-08T17:00:00	2	Temperatura media	22.8
140986	7	Sololá	713	San Lucas Tolimán	10	San Lucas Tolimán	8	Agosto	2023-11-08T00:00:00	2024-11-08T17:00:00	4	Temperatura máxima	23.5
140987	7	Sololá	713	San Lucas Tolimán	10	San Lucas Tolimán	8	Agosto	2023-11-08T00:00:00	2024-11-08T17:00:00	3	Temperatura mínima	22.7
140988	7	Sololá	713	San Lucas Tolimán	10	San Lucas Tolimán	8	Agosto	2023-11-08T00:00:00	2024-11-08T17:00:00	5	Humedad	84
140989	7	Sololá	713	San Lucas Tolimán	10	San Lucas Tolimán	8	Agosto	2023-11-08T00:00:00	2024-11-08T17:00:00	6	Velocidad del viento	6.4
140990	7	Sololá	713	San Lucas Tolimán	10	San Lucas Tolimán	8	Agosto	2023-11-08T00:00:00	2024-11-08T17:00:00	7	Dirección del viento	6.44
140991	7	Sololá	713	San Lucas Tolimán	10	San Lucas Tolimán	8	Agosto	2023-11-08T00:00:00	2024-11-08T17:00:00	1	Precipitación	0
140992	7	Sololá	713	San Lucas Tolimán	10	San Lucas Tolimán	8	Agosto	2023-11-08T00:00:00	2024-11-08T17:00:00	8	Radiación solar	318
140993	7	Sololá	713	San Lucas Tolimán	10	San Lucas Tolimán	8	Agosto	2023-11-08T00:00:00	2024-11-08T18:00:00	2	Temperatura media	21.7
140994	7	Sololá	713	San Lucas Tolimán	10	San Lucas Tolimán	8	Agosto	2023-11-08T00:00:00	2024-11-08T18:00:00	4	Temperatura máxima	22.8
140995	7	Sololá	713	San Lucas Tolimán	10	San Lucas Tolimán	8	Agosto	2023-11-08T00:00:00	2024-11-08T18:00:00	3	Temperatura mínima	21.7
140996	7	Sololá	713	San Lucas Tolimán	10	San Lucas Tolimán	8	Agosto	2023-11-08T00:00:00	2024-11-08T18:00:00	5	Humedad	89
140997	7	Sololá	713	San Lucas Tolimán	10	San Lucas Tolimán	8	Agosto	2023-11-08T00:00:00	2024-11-08T18:00:00	6	Velocidad del viento	6.4
140998	7	Sololá	713	San Lucas Tolimán	10	San Lucas Tolimán	8	Agosto	2023-11-08T00:00:00	2024-11-08T18:00:00	7	Dirección del viento	6.44
140999	7	Sololá	713	San Lucas Tolimán	10	San Lucas Tolimán	8	Agosto	2023-11-08T00:00:00	2024-11-08T18:00:00	1	Precipitación	0
141000	7	Sololá	713	San Lucas Tolimán	10	San Lucas Tolimán	8	Agosto	2023-11-08T00:00:00	2024-11-08T18:00:00	8	Radiación solar	18
141001	7	Sololá	713	San Lucas Tolimán	10	San Lucas Tolimán	8	Agosto	2023-11-08T00:00:00	2024-11-08T19:00:00	2	Temperatura media	20.9
141002	7	Sololá	713	San Lucas Tolimán	10	San Lucas Tolimán	8	Agosto	2023-11-08T00:00:00	2024-11-08T19:00:00	4	Temperatura máxima	21.7
141003	7	Sololá	713	San Lucas Tolimán	10	San Lucas Tolimán	8	Agosto	2023-11-08T00:00:00	2024-11-08T19:00:00	3	Temperatura mínima	20.9
141004	7	Sololá	713	San Lucas Tolimán	10	San Lucas Tolimán	8	Agosto	2023-11-08T00:00:00	2024-11-08T19:00:00	5	Humedad	91
141005	7	Sololá	713	San Lucas Tolimán	10	San Lucas Tolimán	8	Agosto	2023-11-08T00:00:00	2024-11-08T19:00:00	6	Velocidad del viento	4.8
141006	7	Sololá	713	San Lucas Tolimán	10	San Lucas Tolimán	8	Agosto	2023-11-08T00:00:00	2024-11-08T19:00:00	7	Dirección del viento	4.83
141007	7	Sololá	713	San Lucas Tolimán	10	San Lucas Tolimán	8	Agosto	2023-11-08T00:00:00	2024-11-08T19:00:00	1	Precipitación	0
141008	7	Sololá	713	San Lucas Tolimán	10	San Lucas Tolimán	8	Agosto	2023-11-08T00:00:00	2024-11-08T19:00:00	8	Radiación solar	0
141009	7	Sololá	713	San Lucas Tolimán	10	San Lucas Tolimán	8	Agosto	2023-11-08T00:00:00	2024-11-08T20:00:00	2	Temperatura media	20.2
141010	7	Sololá	713	San Lucas Tolimán	10	San Lucas Tolimán	8	Agosto	2023-11-08T00:00:00	2024-11-08T20:00:00	4	Temperatura máxima	21
141011	7	Sololá	713	San Lucas Tolimán	10	San Lucas Tolimán	8	Agosto	2023-11-08T00:00:00	2024-11-08T20:00:00	3	Temperatura mínima	20.2
141012	7	Sololá	713	San Lucas Tolimán	10	San Lucas Tolimán	8	Agosto	2023-11-08T00:00:00	2024-11-08T20:00:00	5	Humedad	90
141013	7	Sololá	713	San Lucas Tolimán	10	San Lucas Tolimán	8	Agosto	2023-11-08T00:00:00	2024-11-08T20:00:00	6	Velocidad del viento	3.2
141014	7	Sololá	713	San Lucas Tolimán	10	San Lucas Tolimán	8	Agosto	2023-11-08T00:00:00	2024-11-08T20:00:00	7	Dirección del viento	3.22
141015	7	Sololá	713	San Lucas Tolimán	10	San Lucas Tolimán	8	Agosto	2023-11-08T00:00:00	2024-11-08T20:00:00	1	Precipitación	0
141016	7	Sololá	713	San Lucas Tolimán	10	San Lucas Tolimán	8	Agosto	2023-11-08T00:00:00	2024-11-08T20:00:00	8	Radiación solar	0
141017	7	Sololá	713	San Lucas Tolimán	10	San Lucas Tolimán	8	Agosto	2023-11-08T00:00:00	2024-11-08T21:00:00	2	Temperatura media	20.1
141018	7	Sololá	713	San Lucas Tolimán	10	San Lucas Tolimán	8	Agosto	2023-11-08T00:00:00	2024-11-08T21:00:00	4	Temperatura máxima	20.2
141019	7	Sololá	713	San Lucas Tolimán	10	San Lucas Tolimán	8	Agosto	2023-11-08T00:00:00	2024-11-08T21:00:00	3	Temperatura mínima	19.9
141020	7	Sololá	713	San Lucas Tolimán	10	San Lucas Tolimán	8	Agosto	2023-11-08T00:00:00	2024-11-08T21:00:00	5	Humedad	92
141021	7	Sololá	713	San Lucas Tolimán	10	San Lucas Tolimán	8	Agosto	2023-11-08T00:00:00	2024-11-08T21:00:00	6	Velocidad del viento	4.8
141022	7	Sololá	713	San Lucas Tolimán	10	San Lucas Tolimán	8	Agosto	2023-11-08T00:00:00	2024-11-08T21:00:00	7	Dirección del viento	4.83
141023	7	Sololá	713	San Lucas Tolimán	10	San Lucas Tolimán	8	Agosto	2023-11-08T00:00:00	2024-11-08T21:00:00	1	Precipitación	0
141024	7	Sololá	713	San Lucas Tolimán	10	San Lucas Tolimán	8	Agosto	2023-11-08T00:00:00	2024-11-08T21:00:00	8	Radiación solar	0
141025	7	Sololá	713	San Lucas Tolimán	10	San Lucas Tolimán	8	Agosto	2023-11-08T00:00:00	2024-11-08T22:00:00	2	Temperatura media	20
141026	7	Sololá	713	San Lucas Tolimán	10	San Lucas Tolimán	8	Agosto	2023-11-08T00:00:00	2024-11-08T22:00:00	4	Temperatura máxima	20.2
141027	7	Sololá	713	San Lucas Tolimán	10	San Lucas Tolimán	8	Agosto	2023-11-08T00:00:00	2024-11-08T22:00:00	3	Temperatura mínima	20
141028	7	Sololá	713	San Lucas Tolimán	10	San Lucas Tolimán	8	Agosto	2023-11-08T00:00:00	2024-11-08T22:00:00	5	Humedad	93
141029	7	Sololá	713	San Lucas Tolimán	10	San Lucas Tolimán	8	Agosto	2023-11-08T00:00:00	2024-11-08T22:00:00	6	Velocidad del viento	6.4
141030	7	Sololá	713	San Lucas Tolimán	10	San Lucas Tolimán	8	Agosto	2023-11-08T00:00:00	2024-11-08T22:00:00	7	Dirección del viento	6.44
141031	7	Sololá	713	San Lucas Tolimán	10	San Lucas Tolimán	8	Agosto	2023-11-08T00:00:00	2024-11-08T22:00:00	1	Precipitación	0
141032	7	Sololá	713	San Lucas Tolimán	10	San Lucas Tolimán	8	Agosto	2023-11-08T00:00:00	2024-11-08T22:00:00	8	Radiación solar	0
141033	7	Sololá	713	San Lucas Tolimán	10	San Lucas Tolimán	8	Agosto	2023-11-08T00:00:00	2024-11-08T23:00:00	2	Temperatura media	19.3
141034	7	Sololá	713	San Lucas Tolimán	10	San Lucas Tolimán	8	Agosto	2023-11-08T00:00:00	2024-11-08T23:00:00	4	Temperatura máxima	20
141035	7	Sololá	713	San Lucas Tolimán	10	San Lucas Tolimán	8	Agosto	2023-11-08T00:00:00	2024-11-08T23:00:00	3	Temperatura mínima	19.3
141036	7	Sololá	713	San Lucas Tolimán	10	San Lucas Tolimán	8	Agosto	2023-11-08T00:00:00	2024-11-08T23:00:00	5	Humedad	92
141037	7	Sololá	713	San Lucas Tolimán	10	San Lucas Tolimán	8	Agosto	2023-11-08T00:00:00	2024-11-08T23:00:00	6	Velocidad del viento	1.6
141038	7	Sololá	713	San Lucas Tolimán	10	San Lucas Tolimán	8	Agosto	2023-11-08T00:00:00	2024-11-08T23:00:00	7	Dirección del viento	1.61
141039	7	Sololá	713	San Lucas Tolimán	10	San Lucas Tolimán	8	Agosto	2023-11-08T00:00:00	2024-11-08T23:00:00	1	Precipitación	0
141040	7	Sololá	713	San Lucas Tolimán	10	San Lucas Tolimán	8	Agosto	2023-11-08T00:00:00	2024-11-08T23:00:00	8	Radiación solar	0
141041	7	Sololá	713	San Lucas Tolimán	10	San Lucas Tolimán	8	Agosto	2023-12-08T00:00:00	2024-11-08T00:00:00	2	Temperatura media	18.4
141042	7	Sololá	713	San Lucas Tolimán	10	San Lucas Tolimán	8	Agosto	2023-12-08T00:00:00	2024-11-08T00:00:00	4	Temperatura máxima	19.3
141043	7	Sololá	713	San Lucas Tolimán	10	San Lucas Tolimán	8	Agosto	2023-12-08T00:00:00	2024-11-08T00:00:00	3	Temperatura mínima	18.4
141044	7	Sololá	713	San Lucas Tolimán	10	San Lucas Tolimán	8	Agosto	2023-12-08T00:00:00	2024-11-08T00:00:00	5	Humedad	88
141045	7	Sololá	713	San Lucas Tolimán	10	San Lucas Tolimán	8	Agosto	2023-12-08T00:00:00	2024-11-08T00:00:00	6	Velocidad del viento	1.6
141046	7	Sololá	713	San Lucas Tolimán	10	San Lucas Tolimán	8	Agosto	2023-12-08T00:00:00	2024-11-08T00:00:00	7	Dirección del viento	1.61
141047	7	Sololá	713	San Lucas Tolimán	10	San Lucas Tolimán	8	Agosto	2023-12-08T00:00:00	2024-11-08T00:00:00	1	Precipitación	0
141048	7	Sololá	713	San Lucas Tolimán	10	San Lucas Tolimán	8	Agosto	2023-12-08T00:00:00	2024-11-08T00:00:00	8	Radiación solar	0
141049	7	Sololá	713	San Lucas Tolimán	10	San Lucas Tolimán	8	Agosto	2023-12-08T00:00:00	2024-11-08T01:00:00	2	Temperatura media	17.7
141050	7	Sololá	713	San Lucas Tolimán	10	San Lucas Tolimán	8	Agosto	2023-12-08T00:00:00	2024-11-08T01:00:00	4	Temperatura máxima	18.7
141051	7	Sololá	713	San Lucas Tolimán	10	San Lucas Tolimán	8	Agosto	2023-12-08T00:00:00	2024-11-08T01:00:00	3	Temperatura mínima	17.7
141052	7	Sololá	713	San Lucas Tolimán	10	San Lucas Tolimán	8	Agosto	2023-12-08T00:00:00	2024-11-08T01:00:00	5	Humedad	89
141053	7	Sololá	713	San Lucas Tolimán	10	San Lucas Tolimán	8	Agosto	2023-12-08T00:00:00	2024-11-08T01:00:00	6	Velocidad del viento	1.6
141054	7	Sololá	713	San Lucas Tolimán	10	San Lucas Tolimán	8	Agosto	2023-12-08T00:00:00	2024-11-08T01:00:00	7	Dirección del viento	1.61
141055	7	Sololá	713	San Lucas Tolimán	10	San Lucas Tolimán	8	Agosto	2023-12-08T00:00:00	2024-11-08T01:00:00	1	Precipitación	0
141056	7	Sololá	713	San Lucas Tolimán	10	San Lucas Tolimán	8	Agosto	2023-12-08T00:00:00	2024-11-08T01:00:00	8	Radiación solar	0
141057	7	Sololá	713	San Lucas Tolimán	10	San Lucas Tolimán	8	Agosto	2023-12-08T00:00:00	2024-11-08T02:00:00	2	Temperatura media	17.2
141058	7	Sololá	713	San Lucas Tolimán	10	San Lucas Tolimán	8	Agosto	2023-12-08T00:00:00	2024-11-08T02:00:00	4	Temperatura máxima	17.7
141059	7	Sololá	713	San Lucas Tolimán	10	San Lucas Tolimán	8	Agosto	2023-12-08T00:00:00	2024-11-08T02:00:00	3	Temperatura mínima	17.1
141060	7	Sololá	713	San Lucas Tolimán	10	San Lucas Tolimán	8	Agosto	2023-12-08T00:00:00	2024-11-08T02:00:00	5	Humedad	89
141061	7	Sololá	713	San Lucas Tolimán	10	San Lucas Tolimán	8	Agosto	2023-12-08T00:00:00	2024-11-08T02:00:00	6	Velocidad del viento	1.6
141062	7	Sololá	713	San Lucas Tolimán	10	San Lucas Tolimán	8	Agosto	2023-12-08T00:00:00	2024-11-08T02:00:00	7	Dirección del viento	1.61
141063	7	Sololá	713	San Lucas Tolimán	10	San Lucas Tolimán	8	Agosto	2023-12-08T00:00:00	2024-11-08T02:00:00	1	Precipitación	0
141064	7	Sololá	713	San Lucas Tolimán	10	San Lucas Tolimán	8	Agosto	2023-12-08T00:00:00	2024-11-08T02:00:00	8	Radiación solar	0
141065	7	Sololá	713	San Lucas Tolimán	10	San Lucas Tolimán	8	Agosto	2023-12-08T00:00:00	2024-11-08T03:00:00	2	Temperatura media	16.6
141066	7	Sololá	713	San Lucas Tolimán	10	San Lucas Tolimán	8	Agosto	2023-12-08T00:00:00	2024-11-08T03:00:00	4	Temperatura máxima	17.2
141067	7	Sololá	713	San Lucas Tolimán	10	San Lucas Tolimán	8	Agosto	2023-12-08T00:00:00	2024-11-08T03:00:00	3	Temperatura mínima	16.6
141068	7	Sololá	713	San Lucas Tolimán	10	San Lucas Tolimán	8	Agosto	2023-12-08T00:00:00	2024-11-08T03:00:00	5	Humedad	88
141069	7	Sololá	713	San Lucas Tolimán	10	San Lucas Tolimán	8	Agosto	2023-12-08T00:00:00	2024-11-08T03:00:00	6	Velocidad del viento	1.6
141070	7	Sololá	713	San Lucas Tolimán	10	San Lucas Tolimán	8	Agosto	2023-12-08T00:00:00	2024-11-08T03:00:00	7	Dirección del viento	1.61
141071	7	Sololá	713	San Lucas Tolimán	10	San Lucas Tolimán	8	Agosto	2023-12-08T00:00:00	2024-11-08T03:00:00	1	Precipitación	0
141072	7	Sololá	713	San Lucas Tolimán	10	San Lucas Tolimán	8	Agosto	2023-12-08T00:00:00	2024-11-08T03:00:00	8	Radiación solar	0
141073	7	Sololá	713	San Lucas Tolimán	10	San Lucas Tolimán	8	Agosto	2023-12-08T00:00:00	2024-11-08T04:00:00	2	Temperatura media	17.2
141074	7	Sololá	713	San Lucas Tolimán	10	San Lucas Tolimán	8	Agosto	2023-12-08T00:00:00	2024-11-08T04:00:00	4	Temperatura máxima	18.1
141075	7	Sololá	713	San Lucas Tolimán	10	San Lucas Tolimán	8	Agosto	2023-12-08T00:00:00	2024-11-08T04:00:00	3	Temperatura mínima	16.6
141076	7	Sololá	713	San Lucas Tolimán	10	San Lucas Tolimán	8	Agosto	2023-12-08T00:00:00	2024-11-08T04:00:00	5	Humedad	87
141077	7	Sololá	713	San Lucas Tolimán	10	San Lucas Tolimán	8	Agosto	2023-12-08T00:00:00	2024-11-08T04:00:00	6	Velocidad del viento	1.6
141078	7	Sololá	713	San Lucas Tolimán	10	San Lucas Tolimán	8	Agosto	2023-12-08T00:00:00	2024-11-08T04:00:00	7	Dirección del viento	1.61
141079	7	Sololá	713	San Lucas Tolimán	10	San Lucas Tolimán	8	Agosto	2023-12-08T00:00:00	2024-11-08T04:00:00	1	Precipitación	0
141080	7	Sololá	713	San Lucas Tolimán	10	San Lucas Tolimán	8	Agosto	2023-12-08T00:00:00	2024-11-08T04:00:00	8	Radiación solar	0
141081	7	Sololá	713	San Lucas Tolimán	10	San Lucas Tolimán	8	Agosto	2023-12-08T00:00:00	2024-11-08T05:00:00	2	Temperatura media	17.3
141082	7	Sololá	713	San Lucas Tolimán	10	San Lucas Tolimán	8	Agosto	2023-12-08T00:00:00	2024-11-08T05:00:00	4	Temperatura máxima	17.3
141083	7	Sololá	713	San Lucas Tolimán	10	San Lucas Tolimán	8	Agosto	2023-12-08T00:00:00	2024-11-08T05:00:00	3	Temperatura mínima	16.9
141084	7	Sololá	713	San Lucas Tolimán	10	San Lucas Tolimán	8	Agosto	2023-12-08T00:00:00	2024-11-08T05:00:00	5	Humedad	88
141085	7	Sololá	713	San Lucas Tolimán	10	San Lucas Tolimán	8	Agosto	2023-12-08T00:00:00	2024-11-08T05:00:00	6	Velocidad del viento	1.6
141086	7	Sololá	713	San Lucas Tolimán	10	San Lucas Tolimán	8	Agosto	2023-12-08T00:00:00	2024-11-08T05:00:00	7	Dirección del viento	1.61
141087	7	Sololá	713	San Lucas Tolimán	10	San Lucas Tolimán	8	Agosto	2023-12-08T00:00:00	2024-11-08T05:00:00	1	Precipitación	0
141088	7	Sololá	713	San Lucas Tolimán	10	San Lucas Tolimán	8	Agosto	2023-12-08T00:00:00	2024-11-08T05:00:00	8	Radiación solar	0
141089	7	Sololá	713	San Lucas Tolimán	10	San Lucas Tolimán	8	Agosto	2023-12-08T00:00:00	2024-11-08T06:00:00	2	Temperatura media	17.1
141090	7	Sololá	713	San Lucas Tolimán	10	San Lucas Tolimán	8	Agosto	2023-12-08T00:00:00	2024-11-08T06:00:00	4	Temperatura máxima	17.3
141091	7	Sololá	713	San Lucas Tolimán	10	San Lucas Tolimán	8	Agosto	2023-12-08T00:00:00	2024-11-08T06:00:00	3	Temperatura mínima	17
141092	7	Sololá	713	San Lucas Tolimán	10	San Lucas Tolimán	8	Agosto	2023-12-08T00:00:00	2024-11-08T06:00:00	5	Humedad	88
141093	7	Sololá	713	San Lucas Tolimán	10	San Lucas Tolimán	8	Agosto	2023-12-08T00:00:00	2024-11-08T06:00:00	6	Velocidad del viento	0
141094	7	Sololá	713	San Lucas Tolimán	10	San Lucas Tolimán	8	Agosto	2023-12-08T00:00:00	2024-11-08T06:00:00	7	Dirección del viento	0
141095	7	Sololá	713	San Lucas Tolimán	10	San Lucas Tolimán	8	Agosto	2023-12-08T00:00:00	2024-11-08T06:00:00	1	Precipitación	0
141096	7	Sololá	713	San Lucas Tolimán	10	San Lucas Tolimán	8	Agosto	2023-12-08T00:00:00	2024-11-08T06:00:00	8	Radiación solar	0
141097	7	Sololá	713	San Lucas Tolimán	10	San Lucas Tolimán	8	Agosto	2023-12-08T00:00:00	2024-11-08T07:00:00	2	Temperatura media	18.7
141098	7	Sololá	713	San Lucas Tolimán	10	San Lucas Tolimán	8	Agosto	2023-12-08T00:00:00	2024-11-08T07:00:00	4	Temperatura máxima	18.7
141099	7	Sololá	713	San Lucas Tolimán	10	San Lucas Tolimán	8	Agosto	2023-12-08T00:00:00	2024-11-08T07:00:00	3	Temperatura mínima	17.1
141100	7	Sololá	713	San Lucas Tolimán	10	San Lucas Tolimán	8	Agosto	2023-12-08T00:00:00	2024-11-08T07:00:00	5	Humedad	83
141101	7	Sololá	713	San Lucas Tolimán	10	San Lucas Tolimán	8	Agosto	2023-12-08T00:00:00	2024-11-08T07:00:00	6	Velocidad del viento	0
141102	7	Sololá	713	San Lucas Tolimán	10	San Lucas Tolimán	8	Agosto	2023-12-08T00:00:00	2024-11-08T07:00:00	7	Dirección del viento	0
141103	7	Sololá	713	San Lucas Tolimán	10	San Lucas Tolimán	8	Agosto	2023-12-08T00:00:00	2024-11-08T07:00:00	1	Precipitación	0
141104	7	Sololá	713	San Lucas Tolimán	10	San Lucas Tolimán	8	Agosto	2023-12-08T00:00:00	2024-11-08T07:00:00	8	Radiación solar	46
141105	7	Sololá	713	San Lucas Tolimán	10	San Lucas Tolimán	8	Agosto	2023-12-08T00:00:00	2024-11-08T08:00:00	2	Temperatura media	20.8
141106	7	Sololá	713	San Lucas Tolimán	10	San Lucas Tolimán	8	Agosto	2023-12-08T00:00:00	2024-11-08T08:00:00	4	Temperatura máxima	20.8
141107	7	Sololá	713	San Lucas Tolimán	10	San Lucas Tolimán	8	Agosto	2023-12-08T00:00:00	2024-11-08T08:00:00	3	Temperatura mínima	18.7
141108	7	Sololá	713	San Lucas Tolimán	10	San Lucas Tolimán	8	Agosto	2023-12-08T00:00:00	2024-11-08T08:00:00	5	Humedad	78
141109	7	Sololá	713	San Lucas Tolimán	10	San Lucas Tolimán	8	Agosto	2023-12-08T00:00:00	2024-11-08T08:00:00	6	Velocidad del viento	1.6
141110	7	Sololá	713	San Lucas Tolimán	10	San Lucas Tolimán	8	Agosto	2023-12-08T00:00:00	2024-11-08T08:00:00	7	Dirección del viento	1.61
141111	7	Sololá	713	San Lucas Tolimán	10	San Lucas Tolimán	8	Agosto	2023-12-08T00:00:00	2024-11-08T08:00:00	1	Precipitación	0
141112	7	Sololá	713	San Lucas Tolimán	10	San Lucas Tolimán	8	Agosto	2023-12-08T00:00:00	2024-11-08T08:00:00	8	Radiación solar	205
141113	7	Sololá	713	San Lucas Tolimán	10	San Lucas Tolimán	8	Agosto	2023-12-08T00:00:00	2024-11-08T09:00:00	2	Temperatura media	21.8
141114	7	Sololá	713	San Lucas Tolimán	10	San Lucas Tolimán	8	Agosto	2023-12-08T00:00:00	2024-11-08T09:00:00	4	Temperatura máxima	22.8
141115	7	Sololá	713	San Lucas Tolimán	10	San Lucas Tolimán	8	Agosto	2023-12-08T00:00:00	2024-11-08T09:00:00	3	Temperatura mínima	20.8
141116	7	Sololá	713	San Lucas Tolimán	10	San Lucas Tolimán	8	Agosto	2023-12-08T00:00:00	2024-11-08T09:00:00	5	Humedad	79
141117	7	Sololá	713	San Lucas Tolimán	10	San Lucas Tolimán	8	Agosto	2023-12-08T00:00:00	2024-11-08T09:00:00	6	Velocidad del viento	4.8
141118	7	Sololá	713	San Lucas Tolimán	10	San Lucas Tolimán	8	Agosto	2023-12-08T00:00:00	2024-11-08T09:00:00	7	Dirección del viento	4.83
141119	7	Sololá	713	San Lucas Tolimán	10	San Lucas Tolimán	8	Agosto	2023-12-08T00:00:00	2024-11-08T09:00:00	1	Precipitación	0
141120	7	Sololá	713	San Lucas Tolimán	10	San Lucas Tolimán	8	Agosto	2023-12-08T00:00:00	2024-11-08T09:00:00	8	Radiación solar	258
141121	7	Sololá	713	San Lucas Tolimán	10	San Lucas Tolimán	8	Agosto	2023-12-08T00:00:00	2024-11-08T10:00:00	2	Temperatura media	24.7
141122	7	Sololá	713	San Lucas Tolimán	10	San Lucas Tolimán	8	Agosto	2023-12-08T00:00:00	2024-11-08T10:00:00	4	Temperatura máxima	24.7
141123	7	Sololá	713	San Lucas Tolimán	10	San Lucas Tolimán	8	Agosto	2023-12-08T00:00:00	2024-11-08T10:00:00	3	Temperatura mínima	21.7
141124	7	Sololá	713	San Lucas Tolimán	10	San Lucas Tolimán	8	Agosto	2023-12-08T00:00:00	2024-11-08T10:00:00	5	Humedad	74
141125	7	Sololá	713	San Lucas Tolimán	10	San Lucas Tolimán	8	Agosto	2023-12-08T00:00:00	2024-11-08T10:00:00	6	Velocidad del viento	8
141126	7	Sololá	713	San Lucas Tolimán	10	San Lucas Tolimán	8	Agosto	2023-12-08T00:00:00	2024-11-08T10:00:00	7	Dirección del viento	8.05
141127	7	Sololá	713	San Lucas Tolimán	10	San Lucas Tolimán	8	Agosto	2023-12-08T00:00:00	2024-11-08T10:00:00	1	Precipitación	0
141128	7	Sololá	713	San Lucas Tolimán	10	San Lucas Tolimán	8	Agosto	2023-12-08T00:00:00	2024-11-08T10:00:00	8	Radiación solar	512
141129	7	Sololá	713	San Lucas Tolimán	10	San Lucas Tolimán	8	Agosto	2023-12-08T00:00:00	2024-11-08T11:00:00	2	Temperatura media	25.4
141130	7	Sololá	713	San Lucas Tolimán	10	San Lucas Tolimán	8	Agosto	2023-12-08T00:00:00	2024-11-08T11:00:00	4	Temperatura máxima	25.8
141131	7	Sololá	713	San Lucas Tolimán	10	San Lucas Tolimán	8	Agosto	2023-12-08T00:00:00	2024-11-08T11:00:00	3	Temperatura mínima	24.7
141132	7	Sololá	713	San Lucas Tolimán	10	San Lucas Tolimán	8	Agosto	2023-12-08T00:00:00	2024-11-08T11:00:00	5	Humedad	74
141133	7	Sololá	713	San Lucas Tolimán	10	San Lucas Tolimán	8	Agosto	2023-12-08T00:00:00	2024-11-08T11:00:00	6	Velocidad del viento	9.7
141134	7	Sololá	713	San Lucas Tolimán	10	San Lucas Tolimán	8	Agosto	2023-12-08T00:00:00	2024-11-08T11:00:00	7	Dirección del viento	9.66
141135	7	Sololá	713	San Lucas Tolimán	10	San Lucas Tolimán	8	Agosto	2023-12-08T00:00:00	2024-11-08T11:00:00	1	Precipitación	0
141136	7	Sololá	713	San Lucas Tolimán	10	San Lucas Tolimán	8	Agosto	2023-12-08T00:00:00	2024-11-08T11:00:00	8	Radiación solar	697
141137	7	Sololá	713	San Lucas Tolimán	10	San Lucas Tolimán	8	Agosto	2023-12-08T00:00:00	2024-11-08T12:00:00	2	Temperatura media	24.2
141138	7	Sololá	713	San Lucas Tolimán	10	San Lucas Tolimán	8	Agosto	2023-12-08T00:00:00	2024-11-08T12:00:00	4	Temperatura máxima	25.5
141139	7	Sololá	713	San Lucas Tolimán	10	San Lucas Tolimán	8	Agosto	2023-12-08T00:00:00	2024-11-08T12:00:00	3	Temperatura mínima	23.2
141140	7	Sololá	713	San Lucas Tolimán	10	San Lucas Tolimán	8	Agosto	2023-12-08T00:00:00	2024-11-08T12:00:00	5	Humedad	79
141141	7	Sololá	713	San Lucas Tolimán	10	San Lucas Tolimán	8	Agosto	2023-12-08T00:00:00	2024-11-08T12:00:00	6	Velocidad del viento	12.9
141142	7	Sololá	713	San Lucas Tolimán	10	San Lucas Tolimán	8	Agosto	2023-12-08T00:00:00	2024-11-08T12:00:00	7	Dirección del viento	12.87
141143	7	Sololá	713	San Lucas Tolimán	10	San Lucas Tolimán	8	Agosto	2023-12-08T00:00:00	2024-11-08T12:00:00	1	Precipitación	0
141144	7	Sololá	713	San Lucas Tolimán	10	San Lucas Tolimán	8	Agosto	2023-12-08T00:00:00	2024-11-08T12:00:00	8	Radiación solar	960
141145	7	Sololá	713	San Lucas Tolimán	10	San Lucas Tolimán	8	Agosto	2023-12-08T00:00:00	2024-11-08T13:00:00	2	Temperatura media	24.8
141146	7	Sololá	713	San Lucas Tolimán	10	San Lucas Tolimán	8	Agosto	2023-12-08T00:00:00	2024-11-08T13:00:00	4	Temperatura máxima	25.4
141147	7	Sololá	713	San Lucas Tolimán	10	San Lucas Tolimán	8	Agosto	2023-12-08T00:00:00	2024-11-08T13:00:00	3	Temperatura mínima	23.8
141148	7	Sololá	713	San Lucas Tolimán	10	San Lucas Tolimán	8	Agosto	2023-12-08T00:00:00	2024-11-08T13:00:00	5	Humedad	77
141149	7	Sololá	713	San Lucas Tolimán	10	San Lucas Tolimán	8	Agosto	2023-12-08T00:00:00	2024-11-08T13:00:00	6	Velocidad del viento	11.3
141150	7	Sololá	713	San Lucas Tolimán	10	San Lucas Tolimán	8	Agosto	2023-12-08T00:00:00	2024-11-08T13:00:00	7	Dirección del viento	11.27
141151	7	Sololá	713	San Lucas Tolimán	10	San Lucas Tolimán	8	Agosto	2023-12-08T00:00:00	2024-11-08T13:00:00	1	Precipitación	0
141152	7	Sololá	713	San Lucas Tolimán	10	San Lucas Tolimán	8	Agosto	2023-12-08T00:00:00	2024-11-08T13:00:00	8	Radiación solar	995
141153	7	Sololá	713	San Lucas Tolimán	10	San Lucas Tolimán	8	Agosto	2023-12-08T00:00:00	2024-11-08T14:00:00	2	Temperatura media	24.2
141154	7	Sololá	713	San Lucas Tolimán	10	San Lucas Tolimán	8	Agosto	2023-12-08T00:00:00	2024-11-08T14:00:00	4	Temperatura máxima	26.1
141155	7	Sololá	713	San Lucas Tolimán	10	San Lucas Tolimán	8	Agosto	2023-12-08T00:00:00	2024-11-08T14:00:00	3	Temperatura mínima	24.2
141156	7	Sololá	713	San Lucas Tolimán	10	San Lucas Tolimán	8	Agosto	2023-12-08T00:00:00	2024-11-08T14:00:00	5	Humedad	81
141157	7	Sololá	713	San Lucas Tolimán	10	San Lucas Tolimán	8	Agosto	2023-12-08T00:00:00	2024-11-08T14:00:00	6	Velocidad del viento	9.7
141158	7	Sololá	713	San Lucas Tolimán	10	San Lucas Tolimán	8	Agosto	2023-12-08T00:00:00	2024-11-08T14:00:00	7	Dirección del viento	9.66
141159	7	Sololá	713	San Lucas Tolimán	10	San Lucas Tolimán	8	Agosto	2023-12-08T00:00:00	2024-11-08T14:00:00	1	Precipitación	0
141160	7	Sololá	713	San Lucas Tolimán	10	San Lucas Tolimán	8	Agosto	2023-12-08T00:00:00	2024-11-08T14:00:00	8	Radiación solar	607
141161	7	Sololá	713	San Lucas Tolimán	10	San Lucas Tolimán	8	Agosto	2023-12-08T00:00:00	2024-11-08T15:00:00	2	Temperatura media	25.5
141162	7	Sololá	713	San Lucas Tolimán	10	San Lucas Tolimán	8	Agosto	2023-12-08T00:00:00	2024-11-08T15:00:00	4	Temperatura máxima	25.6
141163	7	Sololá	713	San Lucas Tolimán	10	San Lucas Tolimán	8	Agosto	2023-12-08T00:00:00	2024-11-08T15:00:00	3	Temperatura mínima	24.1
141164	7	Sololá	713	San Lucas Tolimán	10	San Lucas Tolimán	8	Agosto	2023-12-08T00:00:00	2024-11-08T15:00:00	5	Humedad	76
141165	7	Sololá	713	San Lucas Tolimán	10	San Lucas Tolimán	8	Agosto	2023-12-08T00:00:00	2024-11-08T15:00:00	6	Velocidad del viento	9.7
141166	7	Sololá	713	San Lucas Tolimán	10	San Lucas Tolimán	8	Agosto	2023-12-08T00:00:00	2024-11-08T15:00:00	7	Dirección del viento	9.66
141167	7	Sololá	713	San Lucas Tolimán	10	San Lucas Tolimán	8	Agosto	2023-12-08T00:00:00	2024-11-08T15:00:00	1	Precipitación	0
141168	7	Sololá	713	San Lucas Tolimán	10	San Lucas Tolimán	8	Agosto	2023-12-08T00:00:00	2024-11-08T15:00:00	8	Radiación solar	587
141169	7	Sololá	713	San Lucas Tolimán	10	San Lucas Tolimán	8	Agosto	2023-12-08T00:00:00	2024-11-08T16:00:00	2	Temperatura media	24.1
141170	7	Sololá	713	San Lucas Tolimán	10	San Lucas Tolimán	8	Agosto	2023-12-08T00:00:00	2024-11-08T16:00:00	4	Temperatura máxima	25.5
141171	7	Sololá	713	San Lucas Tolimán	10	San Lucas Tolimán	8	Agosto	2023-12-08T00:00:00	2024-11-08T16:00:00	3	Temperatura mínima	24.1
141172	7	Sololá	713	San Lucas Tolimán	10	San Lucas Tolimán	8	Agosto	2023-12-08T00:00:00	2024-11-08T16:00:00	5	Humedad	80
141173	7	Sololá	713	San Lucas Tolimán	10	San Lucas Tolimán	8	Agosto	2023-12-08T00:00:00	2024-11-08T16:00:00	6	Velocidad del viento	9.7
141174	7	Sololá	713	San Lucas Tolimán	10	San Lucas Tolimán	8	Agosto	2023-12-08T00:00:00	2024-11-08T16:00:00	7	Dirección del viento	9.66
141175	7	Sololá	713	San Lucas Tolimán	10	San Lucas Tolimán	8	Agosto	2023-12-08T00:00:00	2024-11-08T16:00:00	1	Precipitación	0
141176	7	Sololá	713	San Lucas Tolimán	10	San Lucas Tolimán	8	Agosto	2023-12-08T00:00:00	2024-11-08T16:00:00	8	Radiación solar	322
141177	7	Sololá	713	San Lucas Tolimán	10	San Lucas Tolimán	8	Agosto	2023-12-08T00:00:00	2024-11-08T17:00:00	2	Temperatura media	23.2
141178	7	Sololá	713	San Lucas Tolimán	10	San Lucas Tolimán	8	Agosto	2023-12-08T00:00:00	2024-11-08T17:00:00	4	Temperatura máxima	24.2
141179	7	Sololá	713	San Lucas Tolimán	10	San Lucas Tolimán	8	Agosto	2023-12-08T00:00:00	2024-11-08T17:00:00	3	Temperatura mínima	22.9
141180	7	Sololá	713	San Lucas Tolimán	10	San Lucas Tolimán	8	Agosto	2023-12-08T00:00:00	2024-11-08T17:00:00	5	Humedad	82
141181	7	Sololá	713	San Lucas Tolimán	10	San Lucas Tolimán	8	Agosto	2023-12-08T00:00:00	2024-11-08T17:00:00	6	Velocidad del viento	11.3
141182	7	Sololá	713	San Lucas Tolimán	10	San Lucas Tolimán	8	Agosto	2023-12-08T00:00:00	2024-11-08T17:00:00	7	Dirección del viento	11.27
141183	7	Sololá	713	San Lucas Tolimán	10	San Lucas Tolimán	8	Agosto	2023-12-08T00:00:00	2024-11-08T17:00:00	1	Precipitación	0
141184	7	Sololá	713	San Lucas Tolimán	10	San Lucas Tolimán	8	Agosto	2023-12-08T00:00:00	2024-11-08T17:00:00	8	Radiación solar	29
141185	7	Sololá	713	San Lucas Tolimán	10	San Lucas Tolimán	8	Agosto	2023-12-08T00:00:00	2024-11-08T18:00:00	2	Temperatura media	21.7
141186	7	Sololá	713	San Lucas Tolimán	10	San Lucas Tolimán	8	Agosto	2023-12-08T00:00:00	2024-11-08T18:00:00	4	Temperatura máxima	23.4
141187	7	Sololá	713	San Lucas Tolimán	10	San Lucas Tolimán	8	Agosto	2023-12-08T00:00:00	2024-11-08T18:00:00	3	Temperatura mínima	21.7
141188	7	Sololá	713	San Lucas Tolimán	10	San Lucas Tolimán	8	Agosto	2023-12-08T00:00:00	2024-11-08T18:00:00	5	Humedad	87
141189	7	Sololá	713	San Lucas Tolimán	10	San Lucas Tolimán	8	Agosto	2023-12-08T00:00:00	2024-11-08T18:00:00	6	Velocidad del viento	6.4
141190	7	Sololá	713	San Lucas Tolimán	10	San Lucas Tolimán	8	Agosto	2023-12-08T00:00:00	2024-11-08T18:00:00	7	Dirección del viento	6.44
141191	7	Sololá	713	San Lucas Tolimán	10	San Lucas Tolimán	8	Agosto	2023-12-08T00:00:00	2024-11-08T18:00:00	1	Precipitación	0
141192	7	Sololá	713	San Lucas Tolimán	10	San Lucas Tolimán	8	Agosto	2023-12-08T00:00:00	2024-11-08T18:00:00	8	Radiación solar	0
141193	7	Sololá	713	San Lucas Tolimán	10	San Lucas Tolimán	8	Agosto	2023-12-08T00:00:00	2024-11-08T19:00:00	2	Temperatura media	21.3
141194	7	Sololá	713	San Lucas Tolimán	10	San Lucas Tolimán	8	Agosto	2023-12-08T00:00:00	2024-11-08T19:00:00	4	Temperatura máxima	21.7
141195	7	Sololá	713	San Lucas Tolimán	10	San Lucas Tolimán	8	Agosto	2023-12-08T00:00:00	2024-11-08T19:00:00	3	Temperatura mínima	21.3
141196	7	Sololá	713	San Lucas Tolimán	10	San Lucas Tolimán	8	Agosto	2023-12-08T00:00:00	2024-11-08T19:00:00	5	Humedad	88
141197	7	Sololá	713	San Lucas Tolimán	10	San Lucas Tolimán	8	Agosto	2023-12-08T00:00:00	2024-11-08T19:00:00	6	Velocidad del viento	3.2
141198	7	Sololá	713	San Lucas Tolimán	10	San Lucas Tolimán	8	Agosto	2023-12-08T00:00:00	2024-11-08T19:00:00	7	Dirección del viento	3.22
141199	7	Sololá	713	San Lucas Tolimán	10	San Lucas Tolimán	8	Agosto	2023-12-08T00:00:00	2024-11-08T19:00:00	1	Precipitación	0
141200	7	Sololá	713	San Lucas Tolimán	10	San Lucas Tolimán	8	Agosto	2023-12-08T00:00:00	2024-11-08T19:00:00	8	Radiación solar	0
141201	7	Sololá	713	San Lucas Tolimán	10	San Lucas Tolimán	8	Agosto	2023-12-08T00:00:00	2024-11-08T20:00:00	2	Temperatura media	22.3
141202	7	Sololá	713	San Lucas Tolimán	10	San Lucas Tolimán	8	Agosto	2023-12-08T00:00:00	2024-11-08T20:00:00	4	Temperatura máxima	22.3
141203	7	Sololá	713	San Lucas Tolimán	10	San Lucas Tolimán	8	Agosto	2023-12-08T00:00:00	2024-11-08T20:00:00	3	Temperatura mínima	21.2
141204	7	Sololá	713	San Lucas Tolimán	10	San Lucas Tolimán	8	Agosto	2023-12-08T00:00:00	2024-11-08T20:00:00	5	Humedad	75
141205	7	Sololá	713	San Lucas Tolimán	10	San Lucas Tolimán	8	Agosto	2023-12-08T00:00:00	2024-11-08T20:00:00	6	Velocidad del viento	1.6
141206	7	Sololá	713	San Lucas Tolimán	10	San Lucas Tolimán	8	Agosto	2023-12-08T00:00:00	2024-11-08T20:00:00	7	Dirección del viento	1.61
141207	7	Sololá	713	San Lucas Tolimán	10	San Lucas Tolimán	8	Agosto	2023-12-08T00:00:00	2024-11-08T20:00:00	1	Precipitación	0
141208	7	Sololá	713	San Lucas Tolimán	10	San Lucas Tolimán	8	Agosto	2023-12-08T00:00:00	2024-11-08T20:00:00	8	Radiación solar	0
141209	7	Sololá	713	San Lucas Tolimán	10	San Lucas Tolimán	8	Agosto	2023-12-08T00:00:00	2024-11-08T21:00:00	2	Temperatura media	21.9
141210	7	Sololá	713	San Lucas Tolimán	10	San Lucas Tolimán	8	Agosto	2023-12-08T00:00:00	2024-11-08T21:00:00	4	Temperatura máxima	22.5
141211	7	Sololá	713	San Lucas Tolimán	10	San Lucas Tolimán	8	Agosto	2023-12-08T00:00:00	2024-11-08T21:00:00	3	Temperatura mínima	21.9
141212	7	Sololá	713	San Lucas Tolimán	10	San Lucas Tolimán	8	Agosto	2023-12-08T00:00:00	2024-11-08T21:00:00	5	Humedad	71
141213	7	Sololá	713	San Lucas Tolimán	10	San Lucas Tolimán	8	Agosto	2023-12-08T00:00:00	2024-11-08T21:00:00	6	Velocidad del viento	3.2
141214	7	Sololá	713	San Lucas Tolimán	10	San Lucas Tolimán	8	Agosto	2023-12-08T00:00:00	2024-11-08T21:00:00	7	Dirección del viento	3.22
141215	7	Sololá	713	San Lucas Tolimán	10	San Lucas Tolimán	8	Agosto	2023-12-08T00:00:00	2024-11-08T21:00:00	1	Precipitación	0
141216	7	Sololá	713	San Lucas Tolimán	10	San Lucas Tolimán	8	Agosto	2023-12-08T00:00:00	2024-11-08T21:00:00	8	Radiación solar	0
141217	7	Sololá	713	San Lucas Tolimán	10	San Lucas Tolimán	8	Agosto	2023-12-08T00:00:00	2024-11-08T22:00:00	2	Temperatura media	21.3
141218	7	Sololá	713	San Lucas Tolimán	10	San Lucas Tolimán	8	Agosto	2023-12-08T00:00:00	2024-11-08T22:00:00	4	Temperatura máxima	21.9
141219	7	Sololá	713	San Lucas Tolimán	10	San Lucas Tolimán	8	Agosto	2023-12-08T00:00:00	2024-11-08T22:00:00	3	Temperatura mínima	21.3
141220	7	Sololá	713	San Lucas Tolimán	10	San Lucas Tolimán	8	Agosto	2023-12-08T00:00:00	2024-11-08T22:00:00	5	Humedad	75
141221	7	Sololá	713	San Lucas Tolimán	10	San Lucas Tolimán	8	Agosto	2023-12-08T00:00:00	2024-11-08T22:00:00	6	Velocidad del viento	1.6
141222	7	Sololá	713	San Lucas Tolimán	10	San Lucas Tolimán	8	Agosto	2023-12-08T00:00:00	2024-11-08T22:00:00	7	Dirección del viento	1.61
141223	7	Sololá	713	San Lucas Tolimán	10	San Lucas Tolimán	8	Agosto	2023-12-08T00:00:00	2024-11-08T22:00:00	1	Precipitación	0
141224	7	Sololá	713	San Lucas Tolimán	10	San Lucas Tolimán	8	Agosto	2023-12-08T00:00:00	2024-11-08T22:00:00	8	Radiación solar	0
141225	7	Sololá	713	San Lucas Tolimán	10	San Lucas Tolimán	8	Agosto	2023-12-08T00:00:00	2024-11-08T23:00:00	2	Temperatura media	19.8
141226	7	Sololá	713	San Lucas Tolimán	10	San Lucas Tolimán	8	Agosto	2023-12-08T00:00:00	2024-11-08T23:00:00	4	Temperatura máxima	21.3
141227	7	Sololá	713	San Lucas Tolimán	10	San Lucas Tolimán	8	Agosto	2023-12-08T00:00:00	2024-11-08T23:00:00	3	Temperatura mínima	19.7
141228	7	Sololá	713	San Lucas Tolimán	10	San Lucas Tolimán	8	Agosto	2023-12-08T00:00:00	2024-11-08T23:00:00	5	Humedad	79
141229	7	Sololá	713	San Lucas Tolimán	10	San Lucas Tolimán	8	Agosto	2023-12-08T00:00:00	2024-11-08T23:00:00	6	Velocidad del viento	0
141230	7	Sololá	713	San Lucas Tolimán	10	San Lucas Tolimán	8	Agosto	2023-12-08T00:00:00	2024-11-08T23:00:00	7	Dirección del viento	0
141231	7	Sololá	713	San Lucas Tolimán	10	San Lucas Tolimán	8	Agosto	2023-12-08T00:00:00	2024-11-08T23:00:00	1	Precipitación	0
141232	7	Sololá	713	San Lucas Tolimán	10	San Lucas Tolimán	8	Agosto	2023-12-08T00:00:00	2024-11-08T23:00:00	8	Radiación solar	0
141233	7	Sololá	713	San Lucas Tolimán	10	San Lucas Tolimán	8	Agosto	2023-08-13T00:00:00	2024-11-08T00:00:00	2	Temperatura media	20.6
141234	7	Sololá	713	San Lucas Tolimán	10	San Lucas Tolimán	8	Agosto	2023-08-13T00:00:00	2024-11-08T00:00:00	4	Temperatura máxima	20.9
141235	7	Sololá	713	San Lucas Tolimán	10	San Lucas Tolimán	8	Agosto	2023-08-13T00:00:00	2024-11-08T00:00:00	3	Temperatura mínima	19.7
141236	7	Sololá	713	San Lucas Tolimán	10	San Lucas Tolimán	8	Agosto	2023-08-13T00:00:00	2024-11-08T00:00:00	5	Humedad	72
141237	7	Sololá	713	San Lucas Tolimán	10	San Lucas Tolimán	8	Agosto	2023-08-13T00:00:00	2024-11-08T00:00:00	6	Velocidad del viento	3.2
141238	7	Sololá	713	San Lucas Tolimán	10	San Lucas Tolimán	8	Agosto	2023-08-13T00:00:00	2024-11-08T00:00:00	7	Dirección del viento	3.22
141239	7	Sololá	713	San Lucas Tolimán	10	San Lucas Tolimán	8	Agosto	2023-08-13T00:00:00	2024-11-08T00:00:00	1	Precipitación	0
141240	7	Sololá	713	San Lucas Tolimán	10	San Lucas Tolimán	8	Agosto	2023-08-13T00:00:00	2024-11-08T00:00:00	8	Radiación solar	0
141241	7	Sololá	713	San Lucas Tolimán	10	San Lucas Tolimán	8	Agosto	2023-08-13T00:00:00	2024-11-08T01:00:00	2	Temperatura media	20.2
141242	7	Sololá	713	San Lucas Tolimán	10	San Lucas Tolimán	8	Agosto	2023-08-13T00:00:00	2024-11-08T01:00:00	4	Temperatura máxima	20.6
141243	7	Sololá	713	San Lucas Tolimán	10	San Lucas Tolimán	8	Agosto	2023-08-13T00:00:00	2024-11-08T01:00:00	3	Temperatura mínima	20.2
141244	7	Sololá	713	San Lucas Tolimán	10	San Lucas Tolimán	8	Agosto	2023-08-13T00:00:00	2024-11-08T01:00:00	5	Humedad	69
141245	7	Sololá	713	San Lucas Tolimán	10	San Lucas Tolimán	8	Agosto	2023-08-13T00:00:00	2024-11-08T01:00:00	6	Velocidad del viento	3.2
141246	7	Sololá	713	San Lucas Tolimán	10	San Lucas Tolimán	8	Agosto	2023-08-13T00:00:00	2024-11-08T01:00:00	7	Dirección del viento	3.22
141247	7	Sololá	713	San Lucas Tolimán	10	San Lucas Tolimán	8	Agosto	2023-08-13T00:00:00	2024-11-08T01:00:00	1	Precipitación	0
141248	7	Sololá	713	San Lucas Tolimán	10	San Lucas Tolimán	8	Agosto	2023-08-13T00:00:00	2024-11-08T01:00:00	8	Radiación solar	0
141249	7	Sololá	713	San Lucas Tolimán	10	San Lucas Tolimán	8	Agosto	2023-08-13T00:00:00	2024-11-08T02:00:00	2	Temperatura media	20.8
141250	7	Sololá	713	San Lucas Tolimán	10	San Lucas Tolimán	8	Agosto	2023-08-13T00:00:00	2024-11-08T02:00:00	4	Temperatura máxima	20.9
141251	7	Sololá	713	San Lucas Tolimán	10	San Lucas Tolimán	8	Agosto	2023-08-13T00:00:00	2024-11-08T02:00:00	3	Temperatura mínima	20.1
141252	7	Sololá	713	San Lucas Tolimán	10	San Lucas Tolimán	8	Agosto	2023-08-13T00:00:00	2024-11-08T02:00:00	5	Humedad	62
141253	7	Sololá	713	San Lucas Tolimán	10	San Lucas Tolimán	8	Agosto	2023-08-13T00:00:00	2024-11-08T02:00:00	6	Velocidad del viento	8
141254	7	Sololá	713	San Lucas Tolimán	10	San Lucas Tolimán	8	Agosto	2023-08-13T00:00:00	2024-11-08T02:00:00	7	Dirección del viento	8.05
141255	7	Sololá	713	San Lucas Tolimán	10	San Lucas Tolimán	8	Agosto	2023-08-13T00:00:00	2024-11-08T02:00:00	1	Precipitación	0
141256	7	Sololá	713	San Lucas Tolimán	10	San Lucas Tolimán	8	Agosto	2023-08-13T00:00:00	2024-11-08T02:00:00	8	Radiación solar	0
141257	7	Sololá	713	San Lucas Tolimán	10	San Lucas Tolimán	8	Agosto	2023-08-13T00:00:00	2024-11-08T03:00:00	2	Temperatura media	19.5
141258	7	Sololá	713	San Lucas Tolimán	10	San Lucas Tolimán	8	Agosto	2023-08-13T00:00:00	2024-11-08T03:00:00	4	Temperatura máxima	20.9
141259	7	Sololá	713	San Lucas Tolimán	10	San Lucas Tolimán	8	Agosto	2023-08-13T00:00:00	2024-11-08T03:00:00	3	Temperatura mínima	19.4
141260	7	Sololá	713	San Lucas Tolimán	10	San Lucas Tolimán	8	Agosto	2023-08-13T00:00:00	2024-11-08T03:00:00	5	Humedad	68
141261	7	Sololá	713	San Lucas Tolimán	10	San Lucas Tolimán	8	Agosto	2023-08-13T00:00:00	2024-11-08T03:00:00	6	Velocidad del viento	1.6
141262	7	Sololá	713	San Lucas Tolimán	10	San Lucas Tolimán	8	Agosto	2023-08-13T00:00:00	2024-11-08T03:00:00	7	Dirección del viento	1.61
141263	7	Sololá	713	San Lucas Tolimán	10	San Lucas Tolimán	8	Agosto	2023-08-13T00:00:00	2024-11-08T03:00:00	1	Precipitación	0
141264	7	Sololá	713	San Lucas Tolimán	10	San Lucas Tolimán	8	Agosto	2023-08-13T00:00:00	2024-11-08T03:00:00	8	Radiación solar	0
141265	7	Sololá	713	San Lucas Tolimán	10	San Lucas Tolimán	8	Agosto	2023-08-13T00:00:00	2024-11-08T04:00:00	2	Temperatura media	19.9
141266	7	Sololá	713	San Lucas Tolimán	10	San Lucas Tolimán	8	Agosto	2023-08-13T00:00:00	2024-11-08T04:00:00	4	Temperatura máxima	19.9
141267	7	Sololá	713	San Lucas Tolimán	10	San Lucas Tolimán	8	Agosto	2023-08-13T00:00:00	2024-11-08T04:00:00	3	Temperatura mínima	19.5
141268	7	Sololá	713	San Lucas Tolimán	10	San Lucas Tolimán	8	Agosto	2023-08-13T00:00:00	2024-11-08T04:00:00	5	Humedad	67
141269	7	Sololá	713	San Lucas Tolimán	10	San Lucas Tolimán	8	Agosto	2023-08-13T00:00:00	2024-11-08T04:00:00	6	Velocidad del viento	3.2
141270	7	Sololá	713	San Lucas Tolimán	10	San Lucas Tolimán	8	Agosto	2023-08-13T00:00:00	2024-11-08T04:00:00	7	Dirección del viento	3.22
141271	7	Sololá	713	San Lucas Tolimán	10	San Lucas Tolimán	8	Agosto	2023-08-13T00:00:00	2024-11-08T04:00:00	1	Precipitación	0
141272	7	Sololá	713	San Lucas Tolimán	10	San Lucas Tolimán	8	Agosto	2023-08-13T00:00:00	2024-11-08T04:00:00	8	Radiación solar	0
141273	7	Sololá	713	San Lucas Tolimán	10	San Lucas Tolimán	8	Agosto	2023-08-13T00:00:00	2024-11-08T05:00:00	2	Temperatura media	18.5
141274	7	Sololá	713	San Lucas Tolimán	10	San Lucas Tolimán	8	Agosto	2023-08-13T00:00:00	2024-11-08T05:00:00	4	Temperatura máxima	20.1
141275	7	Sololá	713	San Lucas Tolimán	10	San Lucas Tolimán	8	Agosto	2023-08-13T00:00:00	2024-11-08T05:00:00	3	Temperatura mínima	18.5
141276	7	Sololá	713	San Lucas Tolimán	10	San Lucas Tolimán	8	Agosto	2023-08-13T00:00:00	2024-11-08T05:00:00	5	Humedad	75
141277	7	Sololá	713	San Lucas Tolimán	10	San Lucas Tolimán	8	Agosto	2023-08-13T00:00:00	2024-11-08T05:00:00	6	Velocidad del viento	1.6
141278	7	Sololá	713	San Lucas Tolimán	10	San Lucas Tolimán	8	Agosto	2023-08-13T00:00:00	2024-11-08T05:00:00	7	Dirección del viento	1.61
141279	7	Sololá	713	San Lucas Tolimán	10	San Lucas Tolimán	8	Agosto	2023-08-13T00:00:00	2024-11-08T05:00:00	1	Precipitación	0
141280	7	Sololá	713	San Lucas Tolimán	10	San Lucas Tolimán	8	Agosto	2023-08-13T00:00:00	2024-11-08T05:00:00	8	Radiación solar	0
141281	7	Sololá	713	San Lucas Tolimán	10	San Lucas Tolimán	8	Agosto	2023-08-13T00:00:00	2024-11-08T06:00:00	2	Temperatura media	18.9
141282	7	Sololá	713	San Lucas Tolimán	10	San Lucas Tolimán	8	Agosto	2023-08-13T00:00:00	2024-11-08T06:00:00	4	Temperatura máxima	18.9
141283	7	Sololá	713	San Lucas Tolimán	10	San Lucas Tolimán	8	Agosto	2023-08-13T00:00:00	2024-11-08T06:00:00	3	Temperatura mínima	18.2
141284	7	Sololá	713	San Lucas Tolimán	10	San Lucas Tolimán	8	Agosto	2023-08-13T00:00:00	2024-11-08T06:00:00	5	Humedad	74
141285	7	Sololá	713	San Lucas Tolimán	10	San Lucas Tolimán	8	Agosto	2023-08-13T00:00:00	2024-11-08T06:00:00	6	Velocidad del viento	1.6
141286	7	Sololá	713	San Lucas Tolimán	10	San Lucas Tolimán	8	Agosto	2023-08-13T00:00:00	2024-11-08T06:00:00	7	Dirección del viento	1.61
141287	7	Sololá	713	San Lucas Tolimán	10	San Lucas Tolimán	8	Agosto	2023-08-13T00:00:00	2024-11-08T06:00:00	1	Precipitación	0
141288	7	Sololá	713	San Lucas Tolimán	10	San Lucas Tolimán	8	Agosto	2023-08-13T00:00:00	2024-11-08T06:00:00	8	Radiación solar	1
141289	7	Sololá	713	San Lucas Tolimán	10	San Lucas Tolimán	8	Agosto	2023-08-13T00:00:00	2024-11-08T07:00:00	2	Temperatura media	19.2
141290	7	Sololá	713	San Lucas Tolimán	10	San Lucas Tolimán	8	Agosto	2023-08-13T00:00:00	2024-11-08T07:00:00	4	Temperatura máxima	19.2
141291	7	Sololá	713	San Lucas Tolimán	10	San Lucas Tolimán	8	Agosto	2023-08-13T00:00:00	2024-11-08T07:00:00	3	Temperatura mínima	18.8
141292	7	Sololá	713	San Lucas Tolimán	10	San Lucas Tolimán	8	Agosto	2023-08-13T00:00:00	2024-11-08T07:00:00	5	Humedad	78
141293	7	Sololá	713	San Lucas Tolimán	10	San Lucas Tolimán	8	Agosto	2023-08-13T00:00:00	2024-11-08T07:00:00	6	Velocidad del viento	1.6
141294	7	Sololá	713	San Lucas Tolimán	10	San Lucas Tolimán	8	Agosto	2023-08-13T00:00:00	2024-11-08T07:00:00	7	Dirección del viento	1.61
141295	7	Sololá	713	San Lucas Tolimán	10	San Lucas Tolimán	8	Agosto	2023-08-13T00:00:00	2024-11-08T07:00:00	1	Precipitación	0
141296	7	Sololá	713	San Lucas Tolimán	10	San Lucas Tolimán	8	Agosto	2023-08-13T00:00:00	2024-11-08T07:00:00	8	Radiación solar	66
141297	7	Sololá	713	San Lucas Tolimán	10	San Lucas Tolimán	8	Agosto	2023-08-13T00:00:00	2024-11-08T08:00:00	2	Temperatura media	22.5
141298	7	Sololá	713	San Lucas Tolimán	10	San Lucas Tolimán	8	Agosto	2023-08-13T00:00:00	2024-11-08T08:00:00	4	Temperatura máxima	22.5
141299	7	Sololá	713	San Lucas Tolimán	10	San Lucas Tolimán	8	Agosto	2023-08-13T00:00:00	2024-11-08T08:00:00	3	Temperatura mínima	19.2
141300	7	Sololá	713	San Lucas Tolimán	10	San Lucas Tolimán	8	Agosto	2023-08-13T00:00:00	2024-11-08T08:00:00	5	Humedad	67
141301	7	Sololá	713	San Lucas Tolimán	10	San Lucas Tolimán	8	Agosto	2023-08-13T00:00:00	2024-11-08T08:00:00	6	Velocidad del viento	1.6
141302	7	Sololá	713	San Lucas Tolimán	10	San Lucas Tolimán	8	Agosto	2023-08-13T00:00:00	2024-11-08T08:00:00	7	Dirección del viento	1.61
141303	7	Sololá	713	San Lucas Tolimán	10	San Lucas Tolimán	8	Agosto	2023-08-13T00:00:00	2024-11-08T08:00:00	1	Precipitación	0
141304	7	Sololá	713	San Lucas Tolimán	10	San Lucas Tolimán	8	Agosto	2023-08-13T00:00:00	2024-11-08T08:00:00	8	Radiación solar	275
141305	7	Sololá	713	San Lucas Tolimán	10	San Lucas Tolimán	8	Agosto	2023-08-13T00:00:00	2024-11-08T09:00:00	2	Temperatura media	24.3
141306	7	Sololá	713	San Lucas Tolimán	10	San Lucas Tolimán	8	Agosto	2023-08-13T00:00:00	2024-11-08T09:00:00	4	Temperatura máxima	24.4
141307	7	Sololá	713	San Lucas Tolimán	10	San Lucas Tolimán	8	Agosto	2023-08-13T00:00:00	2024-11-08T09:00:00	3	Temperatura mínima	22.5
141308	7	Sololá	713	San Lucas Tolimán	10	San Lucas Tolimán	8	Agosto	2023-08-13T00:00:00	2024-11-08T09:00:00	5	Humedad	60
141309	7	Sololá	713	San Lucas Tolimán	10	San Lucas Tolimán	8	Agosto	2023-08-13T00:00:00	2024-11-08T09:00:00	6	Velocidad del viento	3.2
141310	7	Sololá	713	San Lucas Tolimán	10	San Lucas Tolimán	8	Agosto	2023-08-13T00:00:00	2024-11-08T09:00:00	7	Dirección del viento	3.22
141311	7	Sololá	713	San Lucas Tolimán	10	San Lucas Tolimán	8	Agosto	2023-08-13T00:00:00	2024-11-08T09:00:00	1	Precipitación	0
141312	7	Sololá	713	San Lucas Tolimán	10	San Lucas Tolimán	8	Agosto	2023-08-13T00:00:00	2024-11-08T09:00:00	8	Radiación solar	484
141313	7	Sololá	713	San Lucas Tolimán	10	San Lucas Tolimán	8	Agosto	2023-08-13T00:00:00	2024-11-08T10:00:00	2	Temperatura media	25.2
141314	7	Sololá	713	San Lucas Tolimán	10	San Lucas Tolimán	8	Agosto	2023-08-13T00:00:00	2024-11-08T10:00:00	4	Temperatura máxima	25.6
141315	7	Sololá	713	San Lucas Tolimán	10	San Lucas Tolimán	8	Agosto	2023-08-13T00:00:00	2024-11-08T10:00:00	3	Temperatura mínima	24.2
141316	7	Sololá	713	San Lucas Tolimán	10	San Lucas Tolimán	8	Agosto	2023-08-13T00:00:00	2024-11-08T10:00:00	5	Humedad	57
141317	7	Sololá	713	San Lucas Tolimán	10	San Lucas Tolimán	8	Agosto	2023-08-13T00:00:00	2024-11-08T10:00:00	6	Velocidad del viento	8
141318	7	Sololá	713	San Lucas Tolimán	10	San Lucas Tolimán	8	Agosto	2023-08-13T00:00:00	2024-11-08T10:00:00	7	Dirección del viento	8.05
141319	7	Sololá	713	San Lucas Tolimán	10	San Lucas Tolimán	8	Agosto	2023-08-13T00:00:00	2024-11-08T10:00:00	1	Precipitación	0
141320	7	Sololá	713	San Lucas Tolimán	10	San Lucas Tolimán	8	Agosto	2023-08-13T00:00:00	2024-11-08T10:00:00	8	Radiación solar	641
141321	7	Sololá	713	San Lucas Tolimán	10	San Lucas Tolimán	8	Agosto	2023-08-13T00:00:00	2024-11-08T11:00:00	2	Temperatura media	25.9
141322	7	Sololá	713	San Lucas Tolimán	10	San Lucas Tolimán	8	Agosto	2023-08-13T00:00:00	2024-11-08T11:00:00	4	Temperatura máxima	26
141323	7	Sololá	713	San Lucas Tolimán	10	San Lucas Tolimán	8	Agosto	2023-08-13T00:00:00	2024-11-08T11:00:00	3	Temperatura mínima	24.7
141324	7	Sololá	713	San Lucas Tolimán	10	San Lucas Tolimán	8	Agosto	2023-08-13T00:00:00	2024-11-08T11:00:00	5	Humedad	57
141325	7	Sololá	713	San Lucas Tolimán	10	San Lucas Tolimán	8	Agosto	2023-08-13T00:00:00	2024-11-08T11:00:00	6	Velocidad del viento	9.7
141326	7	Sololá	713	San Lucas Tolimán	10	San Lucas Tolimán	8	Agosto	2023-08-13T00:00:00	2024-11-08T11:00:00	7	Dirección del viento	9.66
141327	7	Sololá	713	San Lucas Tolimán	10	San Lucas Tolimán	8	Agosto	2023-08-13T00:00:00	2024-11-08T11:00:00	1	Precipitación	0
141328	7	Sololá	713	San Lucas Tolimán	10	San Lucas Tolimán	8	Agosto	2023-08-13T00:00:00	2024-11-08T11:00:00	8	Radiación solar	730
141329	7	Sololá	713	San Lucas Tolimán	10	San Lucas Tolimán	8	Agosto	2023-08-13T00:00:00	2024-11-08T12:00:00	2	Temperatura media	24.8
141330	7	Sololá	713	San Lucas Tolimán	10	San Lucas Tolimán	8	Agosto	2023-08-13T00:00:00	2024-11-08T12:00:00	4	Temperatura máxima	26.2
141331	7	Sololá	713	San Lucas Tolimán	10	San Lucas Tolimán	8	Agosto	2023-08-13T00:00:00	2024-11-08T12:00:00	3	Temperatura mínima	24.8
141332	7	Sololá	713	San Lucas Tolimán	10	San Lucas Tolimán	8	Agosto	2023-08-13T00:00:00	2024-11-08T12:00:00	5	Humedad	75
141333	7	Sololá	713	San Lucas Tolimán	10	San Lucas Tolimán	8	Agosto	2023-08-13T00:00:00	2024-11-08T12:00:00	6	Velocidad del viento	6.4
141334	7	Sololá	713	San Lucas Tolimán	10	San Lucas Tolimán	8	Agosto	2023-08-13T00:00:00	2024-11-08T12:00:00	7	Dirección del viento	6.44
141335	7	Sololá	713	San Lucas Tolimán	10	San Lucas Tolimán	8	Agosto	2023-08-13T00:00:00	2024-11-08T12:00:00	1	Precipitación	0
141336	7	Sololá	713	San Lucas Tolimán	10	San Lucas Tolimán	8	Agosto	2023-08-13T00:00:00	2024-11-08T12:00:00	8	Radiación solar	936
141337	7	Sololá	713	San Lucas Tolimán	10	San Lucas Tolimán	8	Agosto	2023-08-13T00:00:00	2024-11-08T13:00:00	2	Temperatura media	21.7
141338	7	Sololá	713	San Lucas Tolimán	10	San Lucas Tolimán	8	Agosto	2023-08-13T00:00:00	2024-11-08T13:00:00	4	Temperatura máxima	25.1
141339	7	Sololá	713	San Lucas Tolimán	10	San Lucas Tolimán	8	Agosto	2023-08-13T00:00:00	2024-11-08T13:00:00	3	Temperatura mínima	21.3
141340	7	Sololá	713	San Lucas Tolimán	10	San Lucas Tolimán	8	Agosto	2023-08-13T00:00:00	2024-11-08T13:00:00	5	Humedad	80
141341	7	Sololá	713	San Lucas Tolimán	10	San Lucas Tolimán	8	Agosto	2023-08-13T00:00:00	2024-11-08T13:00:00	6	Velocidad del viento	9.7
141342	7	Sololá	713	San Lucas Tolimán	10	San Lucas Tolimán	8	Agosto	2023-08-13T00:00:00	2024-11-08T13:00:00	7	Dirección del viento	9.66
141343	7	Sololá	713	San Lucas Tolimán	10	San Lucas Tolimán	8	Agosto	2023-08-13T00:00:00	2024-11-08T13:00:00	1	Precipitación	0
141344	7	Sololá	713	San Lucas Tolimán	10	San Lucas Tolimán	8	Agosto	2023-08-13T00:00:00	2024-11-08T13:00:00	8	Radiación solar	966
141345	7	Sololá	713	San Lucas Tolimán	10	San Lucas Tolimán	8	Agosto	2023-08-13T00:00:00	2024-11-08T14:00:00	2	Temperatura media	21.9
141346	7	Sololá	713	San Lucas Tolimán	10	San Lucas Tolimán	8	Agosto	2023-08-13T00:00:00	2024-11-08T14:00:00	4	Temperatura máxima	23.7
141347	7	Sololá	713	San Lucas Tolimán	10	San Lucas Tolimán	8	Agosto	2023-08-13T00:00:00	2024-11-08T14:00:00	3	Temperatura mínima	21.7
141348	7	Sololá	713	San Lucas Tolimán	10	San Lucas Tolimán	8	Agosto	2023-08-13T00:00:00	2024-11-08T14:00:00	5	Humedad	78
141349	7	Sololá	713	San Lucas Tolimán	10	San Lucas Tolimán	8	Agosto	2023-08-13T00:00:00	2024-11-08T14:00:00	6	Velocidad del viento	9.7
141350	7	Sololá	713	San Lucas Tolimán	10	San Lucas Tolimán	8	Agosto	2023-08-13T00:00:00	2024-11-08T14:00:00	7	Dirección del viento	9.66
141351	7	Sololá	713	San Lucas Tolimán	10	San Lucas Tolimán	8	Agosto	2023-08-13T00:00:00	2024-11-08T14:00:00	1	Precipitación	0
141352	7	Sololá	713	San Lucas Tolimán	10	San Lucas Tolimán	8	Agosto	2023-08-13T00:00:00	2024-11-08T14:00:00	8	Radiación solar	574
141353	7	Sololá	713	San Lucas Tolimán	10	San Lucas Tolimán	8	Agosto	2023-08-13T00:00:00	2024-11-08T15:00:00	2	Temperatura media	20.1
141354	7	Sololá	713	San Lucas Tolimán	10	San Lucas Tolimán	8	Agosto	2023-08-13T00:00:00	2024-11-08T15:00:00	4	Temperatura máxima	22
141355	7	Sololá	713	San Lucas Tolimán	10	San Lucas Tolimán	8	Agosto	2023-08-13T00:00:00	2024-11-08T15:00:00	3	Temperatura mínima	20.1
141356	7	Sololá	713	San Lucas Tolimán	10	San Lucas Tolimán	8	Agosto	2023-08-13T00:00:00	2024-11-08T15:00:00	5	Humedad	86
141357	7	Sololá	713	San Lucas Tolimán	10	San Lucas Tolimán	8	Agosto	2023-08-13T00:00:00	2024-11-08T15:00:00	6	Velocidad del viento	12.9
141358	7	Sololá	713	San Lucas Tolimán	10	San Lucas Tolimán	8	Agosto	2023-08-13T00:00:00	2024-11-08T15:00:00	7	Dirección del viento	12.87
141359	7	Sololá	713	San Lucas Tolimán	10	San Lucas Tolimán	8	Agosto	2023-08-13T00:00:00	2024-11-08T15:00:00	1	Precipitación	0
141360	7	Sololá	713	San Lucas Tolimán	10	San Lucas Tolimán	8	Agosto	2023-08-13T00:00:00	2024-11-08T15:00:00	8	Radiación solar	656
141361	7	Sololá	713	San Lucas Tolimán	10	San Lucas Tolimán	8	Agosto	2023-08-13T00:00:00	2024-11-08T16:00:00	2	Temperatura media	19.7
141362	7	Sololá	713	San Lucas Tolimán	10	San Lucas Tolimán	8	Agosto	2023-08-13T00:00:00	2024-11-08T16:00:00	4	Temperatura máxima	20.1
141363	7	Sololá	713	San Lucas Tolimán	10	San Lucas Tolimán	8	Agosto	2023-08-13T00:00:00	2024-11-08T16:00:00	3	Temperatura mínima	19.5
141364	7	Sololá	713	San Lucas Tolimán	10	San Lucas Tolimán	8	Agosto	2023-08-13T00:00:00	2024-11-08T16:00:00	5	Humedad	86
141365	7	Sololá	713	San Lucas Tolimán	10	San Lucas Tolimán	8	Agosto	2023-08-13T00:00:00	2024-11-08T16:00:00	6	Velocidad del viento	11.3
141366	7	Sololá	713	San Lucas Tolimán	10	San Lucas Tolimán	8	Agosto	2023-08-13T00:00:00	2024-11-08T16:00:00	7	Dirección del viento	11.27
141367	7	Sololá	713	San Lucas Tolimán	10	San Lucas Tolimán	8	Agosto	2023-08-13T00:00:00	2024-11-08T16:00:00	1	Precipitación	0
141368	7	Sololá	713	San Lucas Tolimán	10	San Lucas Tolimán	8	Agosto	2023-08-13T00:00:00	2024-11-08T16:00:00	8	Radiación solar	466
141369	7	Sololá	713	San Lucas Tolimán	10	San Lucas Tolimán	8	Agosto	2023-08-13T00:00:00	2024-11-08T17:00:00	2	Temperatura media	20.1
141370	7	Sololá	713	San Lucas Tolimán	10	San Lucas Tolimán	8	Agosto	2023-08-13T00:00:00	2024-11-08T17:00:00	4	Temperatura máxima	20.4
141371	7	Sololá	713	San Lucas Tolimán	10	San Lucas Tolimán	8	Agosto	2023-08-13T00:00:00	2024-11-08T17:00:00	3	Temperatura mínima	19.7
141372	7	Sololá	713	San Lucas Tolimán	10	San Lucas Tolimán	8	Agosto	2023-08-13T00:00:00	2024-11-08T17:00:00	5	Humedad	86
141373	7	Sololá	713	San Lucas Tolimán	10	San Lucas Tolimán	8	Agosto	2023-08-13T00:00:00	2024-11-08T17:00:00	6	Velocidad del viento	9.7
141374	7	Sololá	713	San Lucas Tolimán	10	San Lucas Tolimán	8	Agosto	2023-08-13T00:00:00	2024-11-08T17:00:00	7	Dirección del viento	9.66
141375	7	Sololá	713	San Lucas Tolimán	10	San Lucas Tolimán	8	Agosto	2023-08-13T00:00:00	2024-11-08T17:00:00	1	Precipitación	0
141376	7	Sololá	713	San Lucas Tolimán	10	San Lucas Tolimán	8	Agosto	2023-08-13T00:00:00	2024-11-08T17:00:00	8	Radiación solar	258
141377	7	Sololá	713	San Lucas Tolimán	10	San Lucas Tolimán	8	Agosto	2023-08-13T00:00:00	2024-11-08T18:00:00	2	Temperatura media	19.7
141378	7	Sololá	713	San Lucas Tolimán	10	San Lucas Tolimán	8	Agosto	2023-08-13T00:00:00	2024-11-08T18:00:00	4	Temperatura máxima	20.2
141379	7	Sololá	713	San Lucas Tolimán	10	San Lucas Tolimán	8	Agosto	2023-08-13T00:00:00	2024-11-08T18:00:00	3	Temperatura mínima	19.7
141380	7	Sololá	713	San Lucas Tolimán	10	San Lucas Tolimán	8	Agosto	2023-08-13T00:00:00	2024-11-08T18:00:00	5	Humedad	87
141381	7	Sololá	713	San Lucas Tolimán	10	San Lucas Tolimán	8	Agosto	2023-08-13T00:00:00	2024-11-08T18:00:00	6	Velocidad del viento	9.7
141382	7	Sololá	713	San Lucas Tolimán	10	San Lucas Tolimán	8	Agosto	2023-08-13T00:00:00	2024-11-08T18:00:00	7	Dirección del viento	9.66
141383	7	Sololá	713	San Lucas Tolimán	10	San Lucas Tolimán	8	Agosto	2023-08-13T00:00:00	2024-11-08T18:00:00	1	Precipitación	0
141384	7	Sololá	713	San Lucas Tolimán	10	San Lucas Tolimán	8	Agosto	2023-08-13T00:00:00	2024-11-08T18:00:00	8	Radiación solar	119
141385	7	Sololá	713	San Lucas Tolimán	10	San Lucas Tolimán	8	Agosto	2023-08-13T00:00:00	2024-11-08T19:00:00	2	Temperatura media	18.9
141386	7	Sololá	713	San Lucas Tolimán	10	San Lucas Tolimán	8	Agosto	2023-08-13T00:00:00	2024-11-08T19:00:00	4	Temperatura máxima	19.7
141387	7	Sololá	713	San Lucas Tolimán	10	San Lucas Tolimán	8	Agosto	2023-08-13T00:00:00	2024-11-08T19:00:00	3	Temperatura mínima	18.9
141388	7	Sololá	713	San Lucas Tolimán	10	San Lucas Tolimán	8	Agosto	2023-08-13T00:00:00	2024-11-08T19:00:00	5	Humedad	92
141389	7	Sololá	713	San Lucas Tolimán	10	San Lucas Tolimán	8	Agosto	2023-08-13T00:00:00	2024-11-08T19:00:00	6	Velocidad del viento	3.2
141390	7	Sololá	713	San Lucas Tolimán	10	San Lucas Tolimán	8	Agosto	2023-08-13T00:00:00	2024-11-08T19:00:00	7	Dirección del viento	3.22
141391	7	Sololá	713	San Lucas Tolimán	10	San Lucas Tolimán	8	Agosto	2023-08-13T00:00:00	2024-11-08T19:00:00	1	Precipitación	8.6
141392	7	Sololá	713	San Lucas Tolimán	10	San Lucas Tolimán	8	Agosto	2023-08-13T00:00:00	2024-11-08T19:00:00	8	Radiación solar	0
141393	7	Sololá	713	San Lucas Tolimán	10	San Lucas Tolimán	8	Agosto	2023-08-13T00:00:00	2024-11-08T20:00:00	2	Temperatura media	18.4
141394	7	Sololá	713	San Lucas Tolimán	10	San Lucas Tolimán	8	Agosto	2023-08-13T00:00:00	2024-11-08T20:00:00	4	Temperatura máxima	18.9
141395	7	Sololá	713	San Lucas Tolimán	10	San Lucas Tolimán	8	Agosto	2023-08-13T00:00:00	2024-11-08T20:00:00	3	Temperatura mínima	18.4
141396	7	Sololá	713	San Lucas Tolimán	10	San Lucas Tolimán	8	Agosto	2023-08-13T00:00:00	2024-11-08T20:00:00	5	Humedad	92
141397	7	Sololá	713	San Lucas Tolimán	10	San Lucas Tolimán	8	Agosto	2023-08-13T00:00:00	2024-11-08T20:00:00	6	Velocidad del viento	1.6
141398	7	Sololá	713	San Lucas Tolimán	10	San Lucas Tolimán	8	Agosto	2023-08-13T00:00:00	2024-11-08T20:00:00	7	Dirección del viento	1.61
141399	7	Sololá	713	San Lucas Tolimán	10	San Lucas Tolimán	8	Agosto	2023-08-13T00:00:00	2024-11-08T20:00:00	1	Precipitación	0
141400	7	Sololá	713	San Lucas Tolimán	10	San Lucas Tolimán	8	Agosto	2023-08-13T00:00:00	2024-11-08T20:00:00	8	Radiación solar	0
141401	7	Sololá	713	San Lucas Tolimán	10	San Lucas Tolimán	8	Agosto	2023-08-13T00:00:00	2024-11-08T21:00:00	2	Temperatura media	18.4
141402	7	Sololá	713	San Lucas Tolimán	10	San Lucas Tolimán	8	Agosto	2023-08-13T00:00:00	2024-11-08T21:00:00	4	Temperatura máxima	18.7
141403	7	Sololá	713	San Lucas Tolimán	10	San Lucas Tolimán	8	Agosto	2023-08-13T00:00:00	2024-11-08T21:00:00	3	Temperatura mínima	18.1
141404	7	Sololá	713	San Lucas Tolimán	10	San Lucas Tolimán	8	Agosto	2023-08-13T00:00:00	2024-11-08T21:00:00	5	Humedad	89
141405	7	Sololá	713	San Lucas Tolimán	10	San Lucas Tolimán	8	Agosto	2023-08-13T00:00:00	2024-11-08T21:00:00	6	Velocidad del viento	1.6
141406	7	Sololá	713	San Lucas Tolimán	10	San Lucas Tolimán	8	Agosto	2023-08-13T00:00:00	2024-11-08T21:00:00	7	Dirección del viento	1.61
141407	7	Sololá	713	San Lucas Tolimán	10	San Lucas Tolimán	8	Agosto	2023-08-13T00:00:00	2024-11-08T21:00:00	1	Precipitación	0
141408	7	Sololá	713	San Lucas Tolimán	10	San Lucas Tolimán	8	Agosto	2023-08-13T00:00:00	2024-11-08T21:00:00	8	Radiación solar	0
141409	7	Sololá	713	San Lucas Tolimán	10	San Lucas Tolimán	8	Agosto	2023-08-13T00:00:00	2024-11-08T22:00:00	2	Temperatura media	17.8
141410	7	Sololá	713	San Lucas Tolimán	10	San Lucas Tolimán	8	Agosto	2023-08-13T00:00:00	2024-11-08T22:00:00	4	Temperatura máxima	18.4
141411	7	Sololá	713	San Lucas Tolimán	10	San Lucas Tolimán	8	Agosto	2023-08-13T00:00:00	2024-11-08T22:00:00	3	Temperatura mínima	17.8
141412	7	Sololá	713	San Lucas Tolimán	10	San Lucas Tolimán	8	Agosto	2023-08-13T00:00:00	2024-11-08T22:00:00	5	Humedad	92
141413	7	Sololá	713	San Lucas Tolimán	10	San Lucas Tolimán	8	Agosto	2023-08-13T00:00:00	2024-11-08T22:00:00	6	Velocidad del viento	3.2
141414	7	Sololá	713	San Lucas Tolimán	10	San Lucas Tolimán	8	Agosto	2023-08-13T00:00:00	2024-11-08T22:00:00	7	Dirección del viento	3.22
141415	7	Sololá	713	San Lucas Tolimán	10	San Lucas Tolimán	8	Agosto	2023-08-13T00:00:00	2024-11-08T22:00:00	1	Precipitación	0
141416	7	Sololá	713	San Lucas Tolimán	10	San Lucas Tolimán	8	Agosto	2023-08-13T00:00:00	2024-11-08T22:00:00	8	Radiación solar	0
141417	7	Sololá	713	San Lucas Tolimán	10	San Lucas Tolimán	8	Agosto	2023-08-13T00:00:00	2024-11-08T23:00:00	2	Temperatura media	18.2
141418	7	Sololá	713	San Lucas Tolimán	10	San Lucas Tolimán	8	Agosto	2023-08-13T00:00:00	2024-11-08T23:00:00	4	Temperatura máxima	18.3
141419	7	Sololá	713	San Lucas Tolimán	10	San Lucas Tolimán	8	Agosto	2023-08-13T00:00:00	2024-11-08T23:00:00	3	Temperatura mínima	17.7
141420	7	Sololá	713	San Lucas Tolimán	10	San Lucas Tolimán	8	Agosto	2023-08-13T00:00:00	2024-11-08T23:00:00	5	Humedad	90
141421	7	Sololá	713	San Lucas Tolimán	10	San Lucas Tolimán	8	Agosto	2023-08-13T00:00:00	2024-11-08T23:00:00	6	Velocidad del viento	1.6
141422	7	Sololá	713	San Lucas Tolimán	10	San Lucas Tolimán	8	Agosto	2023-08-13T00:00:00	2024-11-08T23:00:00	7	Dirección del viento	1.61
141423	7	Sololá	713	San Lucas Tolimán	10	San Lucas Tolimán	8	Agosto	2023-08-13T00:00:00	2024-11-08T23:00:00	1	Precipitación	0
141424	7	Sololá	713	San Lucas Tolimán	10	San Lucas Tolimán	8	Agosto	2023-08-13T00:00:00	2024-11-08T23:00:00	8	Radiación solar	0
141425	7	Sololá	713	San Lucas Tolimán	10	San Lucas Tolimán	8	Agosto	2023-08-14T00:00:00	2024-11-08T00:00:00	2	Temperatura media	18.4
141426	7	Sololá	713	San Lucas Tolimán	10	San Lucas Tolimán	8	Agosto	2023-08-14T00:00:00	2024-11-08T00:00:00	4	Temperatura máxima	18.4
141427	7	Sololá	713	San Lucas Tolimán	10	San Lucas Tolimán	8	Agosto	2023-08-14T00:00:00	2024-11-08T00:00:00	3	Temperatura mínima	18.2
141428	7	Sololá	713	San Lucas Tolimán	10	San Lucas Tolimán	8	Agosto	2023-08-14T00:00:00	2024-11-08T00:00:00	5	Humedad	89
141429	7	Sololá	713	San Lucas Tolimán	10	San Lucas Tolimán	8	Agosto	2023-08-14T00:00:00	2024-11-08T00:00:00	6	Velocidad del viento	1.6
141430	7	Sololá	713	San Lucas Tolimán	10	San Lucas Tolimán	8	Agosto	2023-08-14T00:00:00	2024-11-08T00:00:00	7	Dirección del viento	1.61
141431	7	Sololá	713	San Lucas Tolimán	10	San Lucas Tolimán	8	Agosto	2023-08-14T00:00:00	2024-11-08T00:00:00	1	Precipitación	0
141432	7	Sololá	713	San Lucas Tolimán	10	San Lucas Tolimán	8	Agosto	2023-08-14T00:00:00	2024-11-08T00:00:00	8	Radiación solar	0
141433	7	Sololá	713	San Lucas Tolimán	10	San Lucas Tolimán	8	Agosto	2023-08-14T00:00:00	2024-11-08T01:00:00	2	Temperatura media	19.1
141434	7	Sololá	713	San Lucas Tolimán	10	San Lucas Tolimán	8	Agosto	2023-08-14T00:00:00	2024-11-08T01:00:00	4	Temperatura máxima	19.6
141435	7	Sololá	713	San Lucas Tolimán	10	San Lucas Tolimán	8	Agosto	2023-08-14T00:00:00	2024-11-08T01:00:00	3	Temperatura mínima	18.4
141436	7	Sololá	713	San Lucas Tolimán	10	San Lucas Tolimán	8	Agosto	2023-08-14T00:00:00	2024-11-08T01:00:00	5	Humedad	59
141437	7	Sololá	713	San Lucas Tolimán	10	San Lucas Tolimán	8	Agosto	2023-08-14T00:00:00	2024-11-08T01:00:00	6	Velocidad del viento	1.6
141438	7	Sololá	713	San Lucas Tolimán	10	San Lucas Tolimán	8	Agosto	2023-08-14T00:00:00	2024-11-08T01:00:00	7	Dirección del viento	1.61
141439	7	Sololá	713	San Lucas Tolimán	10	San Lucas Tolimán	8	Agosto	2023-08-14T00:00:00	2024-11-08T01:00:00	1	Precipitación	0
141440	7	Sololá	713	San Lucas Tolimán	10	San Lucas Tolimán	8	Agosto	2023-08-14T00:00:00	2024-11-08T01:00:00	8	Radiación solar	0
141441	7	Sololá	713	San Lucas Tolimán	10	San Lucas Tolimán	8	Agosto	2023-08-14T00:00:00	2024-11-08T02:00:00	2	Temperatura media	20.2
141442	7	Sololá	713	San Lucas Tolimán	10	San Lucas Tolimán	8	Agosto	2023-08-14T00:00:00	2024-11-08T02:00:00	4	Temperatura máxima	20.2
141443	7	Sololá	713	San Lucas Tolimán	10	San Lucas Tolimán	8	Agosto	2023-08-14T00:00:00	2024-11-08T02:00:00	3	Temperatura mínima	19.1
141444	7	Sololá	713	San Lucas Tolimán	10	San Lucas Tolimán	8	Agosto	2023-08-14T00:00:00	2024-11-08T02:00:00	5	Humedad	71
141445	7	Sololá	713	San Lucas Tolimán	10	San Lucas Tolimán	8	Agosto	2023-08-14T00:00:00	2024-11-08T02:00:00	6	Velocidad del viento	4.8
141446	7	Sololá	713	San Lucas Tolimán	10	San Lucas Tolimán	8	Agosto	2023-08-14T00:00:00	2024-11-08T02:00:00	7	Dirección del viento	4.83
141447	7	Sololá	713	San Lucas Tolimán	10	San Lucas Tolimán	8	Agosto	2023-08-14T00:00:00	2024-11-08T02:00:00	1	Precipitación	0
141448	7	Sololá	713	San Lucas Tolimán	10	San Lucas Tolimán	8	Agosto	2023-08-14T00:00:00	2024-11-08T02:00:00	8	Radiación solar	0
141449	7	Sololá	713	San Lucas Tolimán	10	San Lucas Tolimán	8	Agosto	2023-08-14T00:00:00	2024-11-08T03:00:00	2	Temperatura media	19.4
141450	7	Sololá	713	San Lucas Tolimán	10	San Lucas Tolimán	8	Agosto	2023-08-14T00:00:00	2024-11-08T03:00:00	4	Temperatura máxima	20.3
141451	7	Sololá	713	San Lucas Tolimán	10	San Lucas Tolimán	8	Agosto	2023-08-14T00:00:00	2024-11-08T03:00:00	3	Temperatura mínima	19.2
141452	7	Sololá	713	San Lucas Tolimán	10	San Lucas Tolimán	8	Agosto	2023-08-14T00:00:00	2024-11-08T03:00:00	5	Humedad	77
141453	7	Sololá	713	San Lucas Tolimán	10	San Lucas Tolimán	8	Agosto	2023-08-14T00:00:00	2024-11-08T03:00:00	6	Velocidad del viento	3.2
141454	7	Sololá	713	San Lucas Tolimán	10	San Lucas Tolimán	8	Agosto	2023-08-14T00:00:00	2024-11-08T03:00:00	7	Dirección del viento	3.22
141455	7	Sololá	713	San Lucas Tolimán	10	San Lucas Tolimán	8	Agosto	2023-08-14T00:00:00	2024-11-08T03:00:00	1	Precipitación	0
141456	7	Sololá	713	San Lucas Tolimán	10	San Lucas Tolimán	8	Agosto	2023-08-14T00:00:00	2024-11-08T03:00:00	8	Radiación solar	0
141457	7	Sololá	713	San Lucas Tolimán	10	San Lucas Tolimán	8	Agosto	2023-08-14T00:00:00	2024-11-08T04:00:00	2	Temperatura media	18.6
141458	7	Sololá	713	San Lucas Tolimán	10	San Lucas Tolimán	8	Agosto	2023-08-14T00:00:00	2024-11-08T04:00:00	4	Temperatura máxima	19.8
141459	7	Sololá	713	San Lucas Tolimán	10	San Lucas Tolimán	8	Agosto	2023-08-14T00:00:00	2024-11-08T04:00:00	3	Temperatura mínima	18.6
141460	7	Sololá	713	San Lucas Tolimán	10	San Lucas Tolimán	8	Agosto	2023-08-14T00:00:00	2024-11-08T04:00:00	5	Humedad	61
141461	7	Sololá	713	San Lucas Tolimán	10	San Lucas Tolimán	8	Agosto	2023-08-14T00:00:00	2024-11-08T04:00:00	6	Velocidad del viento	6.4
141462	7	Sololá	713	San Lucas Tolimán	10	San Lucas Tolimán	8	Agosto	2023-08-14T00:00:00	2024-11-08T04:00:00	7	Dirección del viento	6.44
141463	7	Sololá	713	San Lucas Tolimán	10	San Lucas Tolimán	8	Agosto	2023-08-14T00:00:00	2024-11-08T04:00:00	1	Precipitación	0
141464	7	Sololá	713	San Lucas Tolimán	10	San Lucas Tolimán	8	Agosto	2023-08-14T00:00:00	2024-11-08T04:00:00	8	Radiación solar	0
141465	7	Sololá	713	San Lucas Tolimán	10	San Lucas Tolimán	8	Agosto	2023-08-14T00:00:00	2024-11-08T05:00:00	2	Temperatura media	19.5
141466	7	Sololá	713	San Lucas Tolimán	10	San Lucas Tolimán	8	Agosto	2023-08-14T00:00:00	2024-11-08T05:00:00	4	Temperatura máxima	19.5
141467	7	Sololá	713	San Lucas Tolimán	10	San Lucas Tolimán	8	Agosto	2023-08-14T00:00:00	2024-11-08T05:00:00	3	Temperatura mínima	18.4
141468	7	Sololá	713	San Lucas Tolimán	10	San Lucas Tolimán	8	Agosto	2023-08-14T00:00:00	2024-11-08T05:00:00	5	Humedad	57
141469	7	Sololá	713	San Lucas Tolimán	10	San Lucas Tolimán	8	Agosto	2023-08-14T00:00:00	2024-11-08T05:00:00	6	Velocidad del viento	6.4
141470	7	Sololá	713	San Lucas Tolimán	10	San Lucas Tolimán	8	Agosto	2023-08-14T00:00:00	2024-11-08T05:00:00	7	Dirección del viento	6.44
141471	7	Sololá	713	San Lucas Tolimán	10	San Lucas Tolimán	8	Agosto	2023-08-14T00:00:00	2024-11-08T05:00:00	1	Precipitación	0
141472	7	Sololá	713	San Lucas Tolimán	10	San Lucas Tolimán	8	Agosto	2023-08-14T00:00:00	2024-11-08T05:00:00	8	Radiación solar	0
141473	7	Sololá	713	San Lucas Tolimán	10	San Lucas Tolimán	8	Agosto	2023-08-14T00:00:00	2024-11-08T06:00:00	2	Temperatura media	19.4
141474	7	Sololá	713	San Lucas Tolimán	10	San Lucas Tolimán	8	Agosto	2023-08-14T00:00:00	2024-11-08T06:00:00	4	Temperatura máxima	19.8
141475	7	Sololá	713	San Lucas Tolimán	10	San Lucas Tolimán	8	Agosto	2023-08-14T00:00:00	2024-11-08T06:00:00	3	Temperatura mínima	18.4
141476	7	Sololá	713	San Lucas Tolimán	10	San Lucas Tolimán	8	Agosto	2023-08-14T00:00:00	2024-11-08T06:00:00	5	Humedad	57
141477	7	Sololá	713	San Lucas Tolimán	10	San Lucas Tolimán	8	Agosto	2023-08-14T00:00:00	2024-11-08T06:00:00	6	Velocidad del viento	8
141478	7	Sololá	713	San Lucas Tolimán	10	San Lucas Tolimán	8	Agosto	2023-08-14T00:00:00	2024-11-08T06:00:00	7	Dirección del viento	8.05
141479	7	Sololá	713	San Lucas Tolimán	10	San Lucas Tolimán	8	Agosto	2023-08-14T00:00:00	2024-11-08T06:00:00	1	Precipitación	0
141480	7	Sololá	713	San Lucas Tolimán	10	San Lucas Tolimán	8	Agosto	2023-08-14T00:00:00	2024-11-08T06:00:00	8	Radiación solar	0
141481	7	Sololá	713	San Lucas Tolimán	10	San Lucas Tolimán	8	Agosto	2023-08-14T00:00:00	2024-11-08T07:00:00	2	Temperatura media	20.4
141482	7	Sololá	713	San Lucas Tolimán	10	San Lucas Tolimán	8	Agosto	2023-08-14T00:00:00	2024-11-08T07:00:00	4	Temperatura máxima	20.4
141483	7	Sololá	713	San Lucas Tolimán	10	San Lucas Tolimán	8	Agosto	2023-08-14T00:00:00	2024-11-08T07:00:00	3	Temperatura mínima	19.4
141484	7	Sololá	713	San Lucas Tolimán	10	San Lucas Tolimán	8	Agosto	2023-08-14T00:00:00	2024-11-08T07:00:00	5	Humedad	55
141485	7	Sololá	713	San Lucas Tolimán	10	San Lucas Tolimán	8	Agosto	2023-08-14T00:00:00	2024-11-08T07:00:00	6	Velocidad del viento	11.3
141486	7	Sololá	713	San Lucas Tolimán	10	San Lucas Tolimán	8	Agosto	2023-08-14T00:00:00	2024-11-08T07:00:00	7	Dirección del viento	11.27
141487	7	Sololá	713	San Lucas Tolimán	10	San Lucas Tolimán	8	Agosto	2023-08-14T00:00:00	2024-11-08T07:00:00	1	Precipitación	0
141488	7	Sololá	713	San Lucas Tolimán	10	San Lucas Tolimán	8	Agosto	2023-08-14T00:00:00	2024-11-08T07:00:00	8	Radiación solar	54
141489	7	Sololá	713	San Lucas Tolimán	10	San Lucas Tolimán	8	Agosto	2023-08-14T00:00:00	2024-11-08T08:00:00	2	Temperatura media	22.3
141490	7	Sololá	713	San Lucas Tolimán	10	San Lucas Tolimán	8	Agosto	2023-08-14T00:00:00	2024-11-08T08:00:00	4	Temperatura máxima	22.3
141491	7	Sololá	713	San Lucas Tolimán	10	San Lucas Tolimán	8	Agosto	2023-08-14T00:00:00	2024-11-08T08:00:00	3	Temperatura mínima	20.4
141492	7	Sololá	713	San Lucas Tolimán	10	San Lucas Tolimán	8	Agosto	2023-08-14T00:00:00	2024-11-08T08:00:00	5	Humedad	49
141493	7	Sololá	713	San Lucas Tolimán	10	San Lucas Tolimán	8	Agosto	2023-08-14T00:00:00	2024-11-08T08:00:00	6	Velocidad del viento	6.4
141494	7	Sololá	713	San Lucas Tolimán	10	San Lucas Tolimán	8	Agosto	2023-08-14T00:00:00	2024-11-08T08:00:00	7	Dirección del viento	6.44
141495	7	Sololá	713	San Lucas Tolimán	10	San Lucas Tolimán	8	Agosto	2023-08-14T00:00:00	2024-11-08T08:00:00	1	Precipitación	0
141496	7	Sololá	713	San Lucas Tolimán	10	San Lucas Tolimán	8	Agosto	2023-08-14T00:00:00	2024-11-08T08:00:00	8	Radiación solar	289
141497	7	Sololá	713	San Lucas Tolimán	10	San Lucas Tolimán	8	Agosto	2023-08-14T00:00:00	2024-11-08T09:00:00	2	Temperatura media	23.1
141498	7	Sololá	713	San Lucas Tolimán	10	San Lucas Tolimán	8	Agosto	2023-08-14T00:00:00	2024-11-08T09:00:00	4	Temperatura máxima	23.1
141499	7	Sololá	713	San Lucas Tolimán	10	San Lucas Tolimán	8	Agosto	2023-08-14T00:00:00	2024-11-08T09:00:00	3	Temperatura mínima	22.1
141500	7	Sololá	713	San Lucas Tolimán	10	San Lucas Tolimán	8	Agosto	2023-08-14T00:00:00	2024-11-08T09:00:00	5	Humedad	46
141501	7	Sololá	713	San Lucas Tolimán	10	San Lucas Tolimán	8	Agosto	2023-08-14T00:00:00	2024-11-08T09:00:00	6	Velocidad del viento	12.9
141502	7	Sololá	713	San Lucas Tolimán	10	San Lucas Tolimán	8	Agosto	2023-08-14T00:00:00	2024-11-08T09:00:00	7	Dirección del viento	12.87
141503	7	Sololá	713	San Lucas Tolimán	10	San Lucas Tolimán	8	Agosto	2023-08-14T00:00:00	2024-11-08T09:00:00	1	Precipitación	0
141504	7	Sololá	713	San Lucas Tolimán	10	San Lucas Tolimán	8	Agosto	2023-08-14T00:00:00	2024-11-08T09:00:00	8	Radiación solar	599
141505	7	Sololá	713	San Lucas Tolimán	10	San Lucas Tolimán	8	Agosto	2023-08-14T00:00:00	2024-11-08T10:00:00	2	Temperatura media	23.9
141506	7	Sololá	713	San Lucas Tolimán	10	San Lucas Tolimán	8	Agosto	2023-08-14T00:00:00	2024-11-08T10:00:00	4	Temperatura máxima	24
141507	7	Sololá	713	San Lucas Tolimán	10	San Lucas Tolimán	8	Agosto	2023-08-14T00:00:00	2024-11-08T10:00:00	3	Temperatura mínima	23.1
141508	7	Sololá	713	San Lucas Tolimán	10	San Lucas Tolimán	8	Agosto	2023-08-14T00:00:00	2024-11-08T10:00:00	5	Humedad	44
141509	7	Sololá	713	San Lucas Tolimán	10	San Lucas Tolimán	8	Agosto	2023-08-14T00:00:00	2024-11-08T10:00:00	6	Velocidad del viento	8
141510	7	Sololá	713	San Lucas Tolimán	10	San Lucas Tolimán	8	Agosto	2023-08-14T00:00:00	2024-11-08T10:00:00	7	Dirección del viento	8.05
141511	7	Sololá	713	San Lucas Tolimán	10	San Lucas Tolimán	8	Agosto	2023-08-14T00:00:00	2024-11-08T10:00:00	1	Precipitación	0
141512	7	Sololá	713	San Lucas Tolimán	10	San Lucas Tolimán	8	Agosto	2023-08-14T00:00:00	2024-11-08T10:00:00	8	Radiación solar	833
141513	7	Sololá	713	San Lucas Tolimán	10	San Lucas Tolimán	8	Agosto	2023-08-14T00:00:00	2024-11-08T11:00:00	2	Temperatura media	24.6
141514	7	Sololá	713	San Lucas Tolimán	10	San Lucas Tolimán	8	Agosto	2023-08-14T00:00:00	2024-11-08T11:00:00	4	Temperatura máxima	24.6
141515	7	Sololá	713	San Lucas Tolimán	10	San Lucas Tolimán	8	Agosto	2023-08-14T00:00:00	2024-11-08T11:00:00	3	Temperatura mínima	23.9
141516	7	Sololá	713	San Lucas Tolimán	10	San Lucas Tolimán	8	Agosto	2023-08-14T00:00:00	2024-11-08T11:00:00	5	Humedad	41
141517	7	Sololá	713	San Lucas Tolimán	10	San Lucas Tolimán	8	Agosto	2023-08-14T00:00:00	2024-11-08T11:00:00	6	Velocidad del viento	9.7
141518	7	Sololá	713	San Lucas Tolimán	10	San Lucas Tolimán	8	Agosto	2023-08-14T00:00:00	2024-11-08T11:00:00	7	Dirección del viento	9.66
141519	7	Sololá	713	San Lucas Tolimán	10	San Lucas Tolimán	8	Agosto	2023-08-14T00:00:00	2024-11-08T11:00:00	1	Precipitación	0
141520	7	Sololá	713	San Lucas Tolimán	10	San Lucas Tolimán	8	Agosto	2023-08-14T00:00:00	2024-11-08T11:00:00	8	Radiación solar	1022
141521	7	Sololá	713	San Lucas Tolimán	10	San Lucas Tolimán	8	Agosto	2023-08-14T00:00:00	2024-11-08T12:00:00	2	Temperatura media	24.9
141522	7	Sololá	713	San Lucas Tolimán	10	San Lucas Tolimán	8	Agosto	2023-08-14T00:00:00	2024-11-08T12:00:00	4	Temperatura máxima	25.4
141523	7	Sololá	713	San Lucas Tolimán	10	San Lucas Tolimán	8	Agosto	2023-08-14T00:00:00	2024-11-08T12:00:00	3	Temperatura mínima	24.6
141524	7	Sololá	713	San Lucas Tolimán	10	San Lucas Tolimán	8	Agosto	2023-08-14T00:00:00	2024-11-08T12:00:00	5	Humedad	38
141525	7	Sololá	713	San Lucas Tolimán	10	San Lucas Tolimán	8	Agosto	2023-08-14T00:00:00	2024-11-08T12:00:00	6	Velocidad del viento	11.3
141526	7	Sololá	713	San Lucas Tolimán	10	San Lucas Tolimán	8	Agosto	2023-08-14T00:00:00	2024-11-08T12:00:00	7	Dirección del viento	11.27
141527	7	Sololá	713	San Lucas Tolimán	10	San Lucas Tolimán	8	Agosto	2023-08-14T00:00:00	2024-11-08T12:00:00	1	Precipitación	0
141528	7	Sololá	713	San Lucas Tolimán	10	San Lucas Tolimán	8	Agosto	2023-08-14T00:00:00	2024-11-08T12:00:00	8	Radiación solar	1063
141529	7	Sololá	713	San Lucas Tolimán	10	San Lucas Tolimán	8	Agosto	2023-08-14T00:00:00	2024-11-08T13:00:00	2	Temperatura media	25.2
141530	7	Sololá	713	San Lucas Tolimán	10	San Lucas Tolimán	8	Agosto	2023-08-14T00:00:00	2024-11-08T13:00:00	4	Temperatura máxima	25.4
141531	7	Sololá	713	San Lucas Tolimán	10	San Lucas Tolimán	8	Agosto	2023-08-14T00:00:00	2024-11-08T13:00:00	3	Temperatura mínima	23.5
141532	7	Sololá	713	San Lucas Tolimán	10	San Lucas Tolimán	8	Agosto	2023-08-14T00:00:00	2024-11-08T13:00:00	5	Humedad	43
141533	7	Sololá	713	San Lucas Tolimán	10	San Lucas Tolimán	8	Agosto	2023-08-14T00:00:00	2024-11-08T13:00:00	6	Velocidad del viento	6.4
141534	7	Sololá	713	San Lucas Tolimán	10	San Lucas Tolimán	8	Agosto	2023-08-14T00:00:00	2024-11-08T13:00:00	7	Dirección del viento	6.44
141535	7	Sololá	713	San Lucas Tolimán	10	San Lucas Tolimán	8	Agosto	2023-08-14T00:00:00	2024-11-08T13:00:00	1	Precipitación	0
141536	7	Sololá	713	San Lucas Tolimán	10	San Lucas Tolimán	8	Agosto	2023-08-14T00:00:00	2024-11-08T13:00:00	8	Radiación solar	863
141537	7	Sololá	713	San Lucas Tolimán	10	San Lucas Tolimán	8	Agosto	2023-08-14T00:00:00	2024-11-08T14:00:00	2	Temperatura media	23.7
141538	7	Sololá	713	San Lucas Tolimán	10	San Lucas Tolimán	8	Agosto	2023-08-14T00:00:00	2024-11-08T14:00:00	4	Temperatura máxima	25.6
141539	7	Sololá	713	San Lucas Tolimán	10	San Lucas Tolimán	8	Agosto	2023-08-14T00:00:00	2024-11-08T14:00:00	3	Temperatura mínima	23.7
141540	7	Sololá	713	San Lucas Tolimán	10	San Lucas Tolimán	8	Agosto	2023-08-14T00:00:00	2024-11-08T14:00:00	5	Humedad	58
141541	7	Sololá	713	San Lucas Tolimán	10	San Lucas Tolimán	8	Agosto	2023-08-14T00:00:00	2024-11-08T14:00:00	6	Velocidad del viento	8
141542	7	Sololá	713	San Lucas Tolimán	10	San Lucas Tolimán	8	Agosto	2023-08-14T00:00:00	2024-11-08T14:00:00	7	Dirección del viento	8.05
141543	7	Sololá	713	San Lucas Tolimán	10	San Lucas Tolimán	8	Agosto	2023-08-14T00:00:00	2024-11-08T14:00:00	1	Precipitación	0
141544	7	Sololá	713	San Lucas Tolimán	10	San Lucas Tolimán	8	Agosto	2023-08-14T00:00:00	2024-11-08T14:00:00	8	Radiación solar	946
141545	7	Sololá	713	San Lucas Tolimán	10	San Lucas Tolimán	8	Agosto	2023-08-14T00:00:00	2024-11-08T15:00:00	2	Temperatura media	23.6
141546	7	Sololá	713	San Lucas Tolimán	10	San Lucas Tolimán	8	Agosto	2023-08-14T00:00:00	2024-11-08T15:00:00	4	Temperatura máxima	24.5
141547	7	Sololá	713	San Lucas Tolimán	10	San Lucas Tolimán	8	Agosto	2023-08-14T00:00:00	2024-11-08T15:00:00	3	Temperatura mínima	23.1
141548	7	Sololá	713	San Lucas Tolimán	10	San Lucas Tolimán	8	Agosto	2023-08-14T00:00:00	2024-11-08T15:00:00	5	Humedad	60
141549	7	Sololá	713	San Lucas Tolimán	10	San Lucas Tolimán	8	Agosto	2023-08-14T00:00:00	2024-11-08T15:00:00	6	Velocidad del viento	11.3
141550	7	Sololá	713	San Lucas Tolimán	10	San Lucas Tolimán	8	Agosto	2023-08-14T00:00:00	2024-11-08T15:00:00	7	Dirección del viento	11.27
141551	7	Sololá	713	San Lucas Tolimán	10	San Lucas Tolimán	8	Agosto	2023-08-14T00:00:00	2024-11-08T15:00:00	1	Precipitación	0
141552	7	Sololá	713	San Lucas Tolimán	10	San Lucas Tolimán	8	Agosto	2023-08-14T00:00:00	2024-11-08T15:00:00	8	Radiación solar	806
141553	7	Sololá	713	San Lucas Tolimán	10	San Lucas Tolimán	8	Agosto	2023-08-14T00:00:00	2024-11-08T16:00:00	2	Temperatura media	22.8
141554	7	Sololá	713	San Lucas Tolimán	10	San Lucas Tolimán	8	Agosto	2023-08-14T00:00:00	2024-11-08T16:00:00	4	Temperatura máxima	23.6
141555	7	Sololá	713	San Lucas Tolimán	10	San Lucas Tolimán	8	Agosto	2023-08-14T00:00:00	2024-11-08T16:00:00	3	Temperatura mínima	21.6
141556	7	Sololá	713	San Lucas Tolimán	10	San Lucas Tolimán	8	Agosto	2023-08-14T00:00:00	2024-11-08T16:00:00	5	Humedad	57
141557	7	Sololá	713	San Lucas Tolimán	10	San Lucas Tolimán	8	Agosto	2023-08-14T00:00:00	2024-11-08T16:00:00	6	Velocidad del viento	11.3
141558	7	Sololá	713	San Lucas Tolimán	10	San Lucas Tolimán	8	Agosto	2023-08-14T00:00:00	2024-11-08T16:00:00	7	Dirección del viento	11.27
141559	7	Sololá	713	San Lucas Tolimán	10	San Lucas Tolimán	8	Agosto	2023-08-14T00:00:00	2024-11-08T16:00:00	1	Precipitación	0
141560	7	Sololá	713	San Lucas Tolimán	10	San Lucas Tolimán	8	Agosto	2023-08-14T00:00:00	2024-11-08T16:00:00	8	Radiación solar	597
141561	7	Sololá	713	San Lucas Tolimán	10	San Lucas Tolimán	8	Agosto	2023-08-14T00:00:00	2024-11-08T17:00:00	2	Temperatura media	21.4
141562	7	Sololá	713	San Lucas Tolimán	10	San Lucas Tolimán	8	Agosto	2023-08-14T00:00:00	2024-11-08T17:00:00	4	Temperatura máxima	22.8
141563	7	Sololá	713	San Lucas Tolimán	10	San Lucas Tolimán	8	Agosto	2023-08-14T00:00:00	2024-11-08T17:00:00	3	Temperatura mínima	20.2
141564	7	Sololá	713	San Lucas Tolimán	10	San Lucas Tolimán	8	Agosto	2023-08-14T00:00:00	2024-11-08T17:00:00	5	Humedad	57
141565	7	Sololá	713	San Lucas Tolimán	10	San Lucas Tolimán	8	Agosto	2023-08-14T00:00:00	2024-11-08T17:00:00	6	Velocidad del viento	8
141566	7	Sololá	713	San Lucas Tolimán	10	San Lucas Tolimán	8	Agosto	2023-08-14T00:00:00	2024-11-08T17:00:00	7	Dirección del viento	8.05
141567	7	Sololá	713	San Lucas Tolimán	10	San Lucas Tolimán	8	Agosto	2023-08-14T00:00:00	2024-11-08T17:00:00	1	Precipitación	0
141568	7	Sololá	713	San Lucas Tolimán	10	San Lucas Tolimán	8	Agosto	2023-08-14T00:00:00	2024-11-08T17:00:00	8	Radiación solar	256
141569	7	Sololá	713	San Lucas Tolimán	10	San Lucas Tolimán	8	Agosto	2023-08-14T00:00:00	2024-11-08T18:00:00	2	Temperatura media	20.2
141570	7	Sololá	713	San Lucas Tolimán	10	San Lucas Tolimán	8	Agosto	2023-08-14T00:00:00	2024-11-08T18:00:00	4	Temperatura máxima	21.3
141571	7	Sololá	713	San Lucas Tolimán	10	San Lucas Tolimán	8	Agosto	2023-08-14T00:00:00	2024-11-08T18:00:00	3	Temperatura mínima	19.9
141572	7	Sololá	713	San Lucas Tolimán	10	San Lucas Tolimán	8	Agosto	2023-08-14T00:00:00	2024-11-08T18:00:00	5	Humedad	58
141573	7	Sololá	713	San Lucas Tolimán	10	San Lucas Tolimán	8	Agosto	2023-08-14T00:00:00	2024-11-08T18:00:00	6	Velocidad del viento	9.7
141574	7	Sololá	713	San Lucas Tolimán	10	San Lucas Tolimán	8	Agosto	2023-08-14T00:00:00	2024-11-08T18:00:00	7	Dirección del viento	9.66
141575	7	Sololá	713	San Lucas Tolimán	10	San Lucas Tolimán	8	Agosto	2023-08-14T00:00:00	2024-11-08T18:00:00	1	Precipitación	0
141576	7	Sololá	713	San Lucas Tolimán	10	San Lucas Tolimán	8	Agosto	2023-08-14T00:00:00	2024-11-08T18:00:00	8	Radiación solar	115
141577	7	Sololá	713	San Lucas Tolimán	10	San Lucas Tolimán	8	Agosto	2023-08-14T00:00:00	2024-11-08T19:00:00	2	Temperatura media	19.8
141578	7	Sololá	713	San Lucas Tolimán	10	San Lucas Tolimán	8	Agosto	2023-08-14T00:00:00	2024-11-08T19:00:00	4	Temperatura máxima	20.2
141579	7	Sololá	713	San Lucas Tolimán	10	San Lucas Tolimán	8	Agosto	2023-08-14T00:00:00	2024-11-08T19:00:00	3	Temperatura mínima	19.6
141580	7	Sololá	713	San Lucas Tolimán	10	San Lucas Tolimán	8	Agosto	2023-08-14T00:00:00	2024-11-08T19:00:00	5	Humedad	60
141581	7	Sololá	713	San Lucas Tolimán	10	San Lucas Tolimán	8	Agosto	2023-08-14T00:00:00	2024-11-08T19:00:00	6	Velocidad del viento	9.7
141582	7	Sololá	713	San Lucas Tolimán	10	San Lucas Tolimán	8	Agosto	2023-08-14T00:00:00	2024-11-08T19:00:00	7	Dirección del viento	9.66
141583	7	Sololá	713	San Lucas Tolimán	10	San Lucas Tolimán	8	Agosto	2023-08-14T00:00:00	2024-11-08T19:00:00	1	Precipitación	0
141584	7	Sololá	713	San Lucas Tolimán	10	San Lucas Tolimán	8	Agosto	2023-08-14T00:00:00	2024-11-08T19:00:00	8	Radiación solar	0
141585	7	Sololá	713	San Lucas Tolimán	10	San Lucas Tolimán	8	Agosto	2023-08-14T00:00:00	2024-11-08T20:00:00	2	Temperatura media	19.1
141586	7	Sololá	713	San Lucas Tolimán	10	San Lucas Tolimán	8	Agosto	2023-08-14T00:00:00	2024-11-08T20:00:00	4	Temperatura máxima	19.8
141587	7	Sololá	713	San Lucas Tolimán	10	San Lucas Tolimán	8	Agosto	2023-08-14T00:00:00	2024-11-08T20:00:00	3	Temperatura mínima	19.1
141588	7	Sololá	713	San Lucas Tolimán	10	San Lucas Tolimán	8	Agosto	2023-08-14T00:00:00	2024-11-08T20:00:00	5	Humedad	62
141589	7	Sololá	713	San Lucas Tolimán	10	San Lucas Tolimán	8	Agosto	2023-08-14T00:00:00	2024-11-08T20:00:00	6	Velocidad del viento	4.8
141590	7	Sololá	713	San Lucas Tolimán	10	San Lucas Tolimán	8	Agosto	2023-08-14T00:00:00	2024-11-08T20:00:00	7	Dirección del viento	4.83
141591	7	Sololá	713	San Lucas Tolimán	10	San Lucas Tolimán	8	Agosto	2023-08-14T00:00:00	2024-11-08T20:00:00	1	Precipitación	0
141592	7	Sololá	713	San Lucas Tolimán	10	San Lucas Tolimán	8	Agosto	2023-08-14T00:00:00	2024-11-08T20:00:00	8	Radiación solar	0
141593	7	Sololá	713	San Lucas Tolimán	10	San Lucas Tolimán	8	Agosto	2023-08-14T00:00:00	2024-11-08T21:00:00	2	Temperatura media	17.9
141594	7	Sololá	713	San Lucas Tolimán	10	San Lucas Tolimán	8	Agosto	2023-08-14T00:00:00	2024-11-08T21:00:00	4	Temperatura máxima	19.1
141595	7	Sololá	713	San Lucas Tolimán	10	San Lucas Tolimán	8	Agosto	2023-08-14T00:00:00	2024-11-08T21:00:00	3	Temperatura mínima	17.9
141596	7	Sololá	713	San Lucas Tolimán	10	San Lucas Tolimán	8	Agosto	2023-08-14T00:00:00	2024-11-08T21:00:00	5	Humedad	67
141597	7	Sololá	713	San Lucas Tolimán	10	San Lucas Tolimán	8	Agosto	2023-08-14T00:00:00	2024-11-08T21:00:00	6	Velocidad del viento	8
141598	7	Sololá	713	San Lucas Tolimán	10	San Lucas Tolimán	8	Agosto	2023-08-14T00:00:00	2024-11-08T21:00:00	7	Dirección del viento	8.05
141599	7	Sololá	713	San Lucas Tolimán	10	San Lucas Tolimán	8	Agosto	2023-08-14T00:00:00	2024-11-08T21:00:00	1	Precipitación	0
141600	7	Sololá	713	San Lucas Tolimán	10	San Lucas Tolimán	8	Agosto	2023-08-14T00:00:00	2024-11-08T21:00:00	8	Radiación solar	0
141601	7	Sololá	713	San Lucas Tolimán	10	San Lucas Tolimán	8	Agosto	2023-08-14T00:00:00	2024-11-08T22:00:00	2	Temperatura media	17.7
141602	7	Sololá	713	San Lucas Tolimán	10	San Lucas Tolimán	8	Agosto	2023-08-14T00:00:00	2024-11-08T22:00:00	4	Temperatura máxima	18.1
141603	7	Sololá	713	San Lucas Tolimán	10	San Lucas Tolimán	8	Agosto	2023-08-14T00:00:00	2024-11-08T22:00:00	3	Temperatura mínima	17.6
141604	7	Sololá	713	San Lucas Tolimán	10	San Lucas Tolimán	8	Agosto	2023-08-14T00:00:00	2024-11-08T22:00:00	5	Humedad	62
141605	7	Sololá	713	San Lucas Tolimán	10	San Lucas Tolimán	8	Agosto	2023-08-14T00:00:00	2024-11-08T22:00:00	6	Velocidad del viento	4.8
141606	7	Sololá	713	San Lucas Tolimán	10	San Lucas Tolimán	8	Agosto	2023-08-14T00:00:00	2024-11-08T22:00:00	7	Dirección del viento	4.83
141607	7	Sololá	713	San Lucas Tolimán	10	San Lucas Tolimán	8	Agosto	2023-08-14T00:00:00	2024-11-08T22:00:00	1	Precipitación	0
141608	7	Sololá	713	San Lucas Tolimán	10	San Lucas Tolimán	8	Agosto	2023-08-14T00:00:00	2024-11-08T22:00:00	8	Radiación solar	0
141609	7	Sololá	713	San Lucas Tolimán	10	San Lucas Tolimán	8	Agosto	2023-08-14T00:00:00	2024-11-08T23:00:00	2	Temperatura media	17.7
141610	7	Sololá	713	San Lucas Tolimán	10	San Lucas Tolimán	8	Agosto	2023-08-14T00:00:00	2024-11-08T23:00:00	4	Temperatura máxima	18.2
141611	7	Sololá	713	San Lucas Tolimán	10	San Lucas Tolimán	8	Agosto	2023-08-14T00:00:00	2024-11-08T23:00:00	3	Temperatura mínima	17.6
141612	7	Sololá	713	San Lucas Tolimán	10	San Lucas Tolimán	8	Agosto	2023-08-14T00:00:00	2024-11-08T23:00:00	5	Humedad	62
141613	7	Sololá	713	San Lucas Tolimán	10	San Lucas Tolimán	8	Agosto	2023-08-14T00:00:00	2024-11-08T23:00:00	6	Velocidad del viento	11.3
141614	7	Sololá	713	San Lucas Tolimán	10	San Lucas Tolimán	8	Agosto	2023-08-14T00:00:00	2024-11-08T23:00:00	7	Dirección del viento	11.27
141615	7	Sololá	713	San Lucas Tolimán	10	San Lucas Tolimán	8	Agosto	2023-08-14T00:00:00	2024-11-08T23:00:00	1	Precipitación	0
141616	7	Sololá	713	San Lucas Tolimán	10	San Lucas Tolimán	8	Agosto	2023-08-14T00:00:00	2024-11-08T23:00:00	8	Radiación solar	0
141617	7	Sololá	713	San Lucas Tolimán	10	San Lucas Tolimán	8	Agosto	2023-08-15T00:00:00	2024-11-08T00:00:00	2	Temperatura media	17.2
141618	7	Sololá	713	San Lucas Tolimán	10	San Lucas Tolimán	8	Agosto	2023-08-15T00:00:00	2024-11-08T00:00:00	4	Temperatura máxima	17.7
141619	7	Sololá	713	San Lucas Tolimán	10	San Lucas Tolimán	8	Agosto	2023-08-15T00:00:00	2024-11-08T00:00:00	3	Temperatura mínima	17.1
141620	7	Sololá	713	San Lucas Tolimán	10	San Lucas Tolimán	8	Agosto	2023-08-15T00:00:00	2024-11-08T00:00:00	5	Humedad	67
141621	7	Sololá	713	San Lucas Tolimán	10	San Lucas Tolimán	8	Agosto	2023-08-15T00:00:00	2024-11-08T00:00:00	6	Velocidad del viento	4.8
141622	7	Sololá	713	San Lucas Tolimán	10	San Lucas Tolimán	8	Agosto	2023-08-15T00:00:00	2024-11-08T00:00:00	7	Dirección del viento	4.83
141623	7	Sololá	713	San Lucas Tolimán	10	San Lucas Tolimán	8	Agosto	2023-08-15T00:00:00	2024-11-08T00:00:00	1	Precipitación	1.2
141624	7	Sololá	713	San Lucas Tolimán	10	San Lucas Tolimán	8	Agosto	2023-08-15T00:00:00	2024-11-08T00:00:00	8	Radiación solar	0
141625	7	Sololá	713	San Lucas Tolimán	10	San Lucas Tolimán	8	Agosto	2023-08-15T00:00:00	2024-11-08T01:00:00	2	Temperatura media	17.1
141626	7	Sololá	713	San Lucas Tolimán	10	San Lucas Tolimán	8	Agosto	2023-08-15T00:00:00	2024-11-08T01:00:00	4	Temperatura máxima	17.2
141627	7	Sololá	713	San Lucas Tolimán	10	San Lucas Tolimán	8	Agosto	2023-08-15T00:00:00	2024-11-08T01:00:00	3	Temperatura mínima	17.1
141628	7	Sololá	713	San Lucas Tolimán	10	San Lucas Tolimán	8	Agosto	2023-08-15T00:00:00	2024-11-08T01:00:00	5	Humedad	69
141629	7	Sololá	713	San Lucas Tolimán	10	San Lucas Tolimán	8	Agosto	2023-08-15T00:00:00	2024-11-08T01:00:00	6	Velocidad del viento	8
141630	7	Sololá	713	San Lucas Tolimán	10	San Lucas Tolimán	8	Agosto	2023-08-15T00:00:00	2024-11-08T01:00:00	7	Dirección del viento	8.05
141631	7	Sololá	713	San Lucas Tolimán	10	San Lucas Tolimán	8	Agosto	2023-08-15T00:00:00	2024-11-08T01:00:00	1	Precipitación	0.2
141632	7	Sololá	713	San Lucas Tolimán	10	San Lucas Tolimán	8	Agosto	2023-08-15T00:00:00	2024-11-08T01:00:00	8	Radiación solar	0
141633	7	Sololá	713	San Lucas Tolimán	10	San Lucas Tolimán	8	Agosto	2023-08-15T00:00:00	2024-11-08T02:00:00	2	Temperatura media	16.1
141634	7	Sololá	713	San Lucas Tolimán	10	San Lucas Tolimán	8	Agosto	2023-08-15T00:00:00	2024-11-08T02:00:00	4	Temperatura máxima	17.2
141635	7	Sololá	713	San Lucas Tolimán	10	San Lucas Tolimán	8	Agosto	2023-08-15T00:00:00	2024-11-08T02:00:00	3	Temperatura mínima	16.1
141636	7	Sololá	713	San Lucas Tolimán	10	San Lucas Tolimán	8	Agosto	2023-08-15T00:00:00	2024-11-08T02:00:00	5	Humedad	70
141637	7	Sololá	713	San Lucas Tolimán	10	San Lucas Tolimán	8	Agosto	2023-08-15T00:00:00	2024-11-08T02:00:00	6	Velocidad del viento	8
141638	7	Sololá	713	San Lucas Tolimán	10	San Lucas Tolimán	8	Agosto	2023-08-15T00:00:00	2024-11-08T02:00:00	7	Dirección del viento	8.05
141639	7	Sololá	713	San Lucas Tolimán	10	San Lucas Tolimán	8	Agosto	2023-08-15T00:00:00	2024-11-08T02:00:00	1	Precipitación	0
141640	7	Sololá	713	San Lucas Tolimán	10	San Lucas Tolimán	8	Agosto	2023-08-15T00:00:00	2024-11-08T02:00:00	8	Radiación solar	0
141641	7	Sololá	713	San Lucas Tolimán	10	San Lucas Tolimán	8	Agosto	2023-08-15T00:00:00	2024-11-08T03:00:00	2	Temperatura media	16.4
141642	7	Sololá	713	San Lucas Tolimán	10	San Lucas Tolimán	8	Agosto	2023-08-15T00:00:00	2024-11-08T03:00:00	4	Temperatura máxima	16.4
141643	7	Sololá	713	San Lucas Tolimán	10	San Lucas Tolimán	8	Agosto	2023-08-15T00:00:00	2024-11-08T03:00:00	3	Temperatura mínima	16.1
141644	7	Sololá	713	San Lucas Tolimán	10	San Lucas Tolimán	8	Agosto	2023-08-15T00:00:00	2024-11-08T03:00:00	5	Humedad	69
141645	7	Sololá	713	San Lucas Tolimán	10	San Lucas Tolimán	8	Agosto	2023-08-15T00:00:00	2024-11-08T03:00:00	6	Velocidad del viento	6.4
141646	7	Sololá	713	San Lucas Tolimán	10	San Lucas Tolimán	8	Agosto	2023-08-15T00:00:00	2024-11-08T03:00:00	7	Dirección del viento	6.44
141647	7	Sololá	713	San Lucas Tolimán	10	San Lucas Tolimán	8	Agosto	2023-08-15T00:00:00	2024-11-08T03:00:00	1	Precipitación	0
141648	7	Sololá	713	San Lucas Tolimán	10	San Lucas Tolimán	8	Agosto	2023-08-15T00:00:00	2024-11-08T03:00:00	8	Radiación solar	0
141649	7	Sololá	713	San Lucas Tolimán	10	San Lucas Tolimán	8	Agosto	2023-08-15T00:00:00	2024-11-08T04:00:00	2	Temperatura media	16.1
141650	7	Sololá	713	San Lucas Tolimán	10	San Lucas Tolimán	8	Agosto	2023-08-15T00:00:00	2024-11-08T04:00:00	4	Temperatura máxima	16.4
141651	7	Sololá	713	San Lucas Tolimán	10	San Lucas Tolimán	8	Agosto	2023-08-15T00:00:00	2024-11-08T04:00:00	3	Temperatura mínima	16.1
141652	7	Sololá	713	San Lucas Tolimán	10	San Lucas Tolimán	8	Agosto	2023-08-15T00:00:00	2024-11-08T04:00:00	5	Humedad	69
141653	7	Sololá	713	San Lucas Tolimán	10	San Lucas Tolimán	8	Agosto	2023-08-15T00:00:00	2024-11-08T04:00:00	6	Velocidad del viento	4.8
141654	7	Sololá	713	San Lucas Tolimán	10	San Lucas Tolimán	8	Agosto	2023-08-15T00:00:00	2024-11-08T04:00:00	7	Dirección del viento	4.83
141655	7	Sololá	713	San Lucas Tolimán	10	San Lucas Tolimán	8	Agosto	2023-08-15T00:00:00	2024-11-08T04:00:00	1	Precipitación	0
141656	7	Sololá	713	San Lucas Tolimán	10	San Lucas Tolimán	8	Agosto	2023-08-15T00:00:00	2024-11-08T04:00:00	8	Radiación solar	0
141657	7	Sololá	713	San Lucas Tolimán	10	San Lucas Tolimán	8	Agosto	2023-08-15T00:00:00	2024-11-08T05:00:00	2	Temperatura media	17.2
141658	7	Sololá	713	San Lucas Tolimán	10	San Lucas Tolimán	8	Agosto	2023-08-15T00:00:00	2024-11-08T05:00:00	4	Temperatura máxima	17.6
141659	7	Sololá	713	San Lucas Tolimán	10	San Lucas Tolimán	8	Agosto	2023-08-15T00:00:00	2024-11-08T05:00:00	3	Temperatura mínima	16.1
141660	7	Sololá	713	San Lucas Tolimán	10	San Lucas Tolimán	8	Agosto	2023-08-15T00:00:00	2024-11-08T05:00:00	5	Humedad	62
141661	7	Sololá	713	San Lucas Tolimán	10	San Lucas Tolimán	8	Agosto	2023-08-15T00:00:00	2024-11-08T05:00:00	6	Velocidad del viento	3.2
141662	7	Sololá	713	San Lucas Tolimán	10	San Lucas Tolimán	8	Agosto	2023-08-15T00:00:00	2024-11-08T05:00:00	7	Dirección del viento	3.22
141663	7	Sololá	713	San Lucas Tolimán	10	San Lucas Tolimán	8	Agosto	2023-08-15T00:00:00	2024-11-08T05:00:00	1	Precipitación	0
141664	7	Sololá	713	San Lucas Tolimán	10	San Lucas Tolimán	8	Agosto	2023-08-15T00:00:00	2024-11-08T05:00:00	8	Radiación solar	0
141665	7	Sololá	713	San Lucas Tolimán	10	San Lucas Tolimán	8	Agosto	2023-08-15T00:00:00	2024-11-08T06:00:00	2	Temperatura media	18.3
141666	7	Sololá	713	San Lucas Tolimán	10	San Lucas Tolimán	8	Agosto	2023-08-15T00:00:00	2024-11-08T06:00:00	4	Temperatura máxima	18.3
141667	7	Sololá	713	San Lucas Tolimán	10	San Lucas Tolimán	8	Agosto	2023-08-15T00:00:00	2024-11-08T06:00:00	3	Temperatura mínima	17.2
141668	7	Sololá	713	San Lucas Tolimán	10	San Lucas Tolimán	8	Agosto	2023-08-15T00:00:00	2024-11-08T06:00:00	5	Humedad	60
141669	7	Sololá	713	San Lucas Tolimán	10	San Lucas Tolimán	8	Agosto	2023-08-15T00:00:00	2024-11-08T06:00:00	6	Velocidad del viento	6.4
141670	7	Sololá	713	San Lucas Tolimán	10	San Lucas Tolimán	8	Agosto	2023-08-15T00:00:00	2024-11-08T06:00:00	7	Dirección del viento	6.44
141671	7	Sololá	713	San Lucas Tolimán	10	San Lucas Tolimán	8	Agosto	2023-08-15T00:00:00	2024-11-08T06:00:00	1	Precipitación	0
141672	7	Sololá	713	San Lucas Tolimán	10	San Lucas Tolimán	8	Agosto	2023-08-15T00:00:00	2024-11-08T06:00:00	8	Radiación solar	1
141673	7	Sololá	713	San Lucas Tolimán	10	San Lucas Tolimán	8	Agosto	2023-08-15T00:00:00	2024-11-08T07:00:00	2	Temperatura media	18.9
141674	7	Sololá	713	San Lucas Tolimán	10	San Lucas Tolimán	8	Agosto	2023-08-15T00:00:00	2024-11-08T07:00:00	4	Temperatura máxima	18.9
141675	7	Sololá	713	San Lucas Tolimán	10	San Lucas Tolimán	8	Agosto	2023-08-15T00:00:00	2024-11-08T07:00:00	3	Temperatura mínima	18.3
141676	7	Sololá	713	San Lucas Tolimán	10	San Lucas Tolimán	8	Agosto	2023-08-15T00:00:00	2024-11-08T07:00:00	5	Humedad	58
141677	7	Sololá	713	San Lucas Tolimán	10	San Lucas Tolimán	8	Agosto	2023-08-15T00:00:00	2024-11-08T07:00:00	6	Velocidad del viento	4.8
141678	7	Sololá	713	San Lucas Tolimán	10	San Lucas Tolimán	8	Agosto	2023-08-15T00:00:00	2024-11-08T07:00:00	7	Dirección del viento	4.83
141679	7	Sololá	713	San Lucas Tolimán	10	San Lucas Tolimán	8	Agosto	2023-08-15T00:00:00	2024-11-08T07:00:00	1	Precipitación	0
141680	7	Sololá	713	San Lucas Tolimán	10	San Lucas Tolimán	8	Agosto	2023-08-15T00:00:00	2024-11-08T07:00:00	8	Radiación solar	100
141681	7	Sololá	713	San Lucas Tolimán	10	San Lucas Tolimán	8	Agosto	2023-08-15T00:00:00	2024-11-08T08:00:00	2	Temperatura media	21.8
141682	7	Sololá	713	San Lucas Tolimán	10	San Lucas Tolimán	8	Agosto	2023-08-15T00:00:00	2024-11-08T08:00:00	4	Temperatura máxima	21.8
141683	7	Sololá	713	San Lucas Tolimán	10	San Lucas Tolimán	8	Agosto	2023-08-15T00:00:00	2024-11-08T08:00:00	3	Temperatura mínima	18.9
141684	7	Sololá	713	San Lucas Tolimán	10	San Lucas Tolimán	8	Agosto	2023-08-15T00:00:00	2024-11-08T08:00:00	5	Humedad	48
141685	7	Sololá	713	San Lucas Tolimán	10	San Lucas Tolimán	8	Agosto	2023-08-15T00:00:00	2024-11-08T08:00:00	6	Velocidad del viento	3.2
141686	7	Sololá	713	San Lucas Tolimán	10	San Lucas Tolimán	8	Agosto	2023-08-15T00:00:00	2024-11-08T08:00:00	7	Dirección del viento	3.22
141687	7	Sololá	713	San Lucas Tolimán	10	San Lucas Tolimán	8	Agosto	2023-08-15T00:00:00	2024-11-08T08:00:00	1	Precipitación	0
141688	7	Sololá	713	San Lucas Tolimán	10	San Lucas Tolimán	8	Agosto	2023-08-15T00:00:00	2024-11-08T08:00:00	8	Radiación solar	390
141689	7	Sololá	713	San Lucas Tolimán	10	San Lucas Tolimán	8	Agosto	2023-08-15T00:00:00	2024-11-08T09:00:00	2	Temperatura media	20.6
141690	7	Sololá	713	San Lucas Tolimán	10	San Lucas Tolimán	8	Agosto	2023-08-15T00:00:00	2024-11-08T09:00:00	4	Temperatura máxima	22.8
141691	7	Sololá	713	San Lucas Tolimán	10	San Lucas Tolimán	8	Agosto	2023-08-15T00:00:00	2024-11-08T09:00:00	3	Temperatura mínima	20.6
141692	7	Sololá	713	San Lucas Tolimán	10	San Lucas Tolimán	8	Agosto	2023-08-15T00:00:00	2024-11-08T09:00:00	5	Humedad	58
141693	7	Sololá	713	San Lucas Tolimán	10	San Lucas Tolimán	8	Agosto	2023-08-15T00:00:00	2024-11-08T09:00:00	6	Velocidad del viento	4.8
141694	7	Sololá	713	San Lucas Tolimán	10	San Lucas Tolimán	8	Agosto	2023-08-15T00:00:00	2024-11-08T09:00:00	7	Dirección del viento	4.83
141695	7	Sololá	713	San Lucas Tolimán	10	San Lucas Tolimán	8	Agosto	2023-08-15T00:00:00	2024-11-08T09:00:00	1	Precipitación	0
141696	7	Sololá	713	San Lucas Tolimán	10	San Lucas Tolimán	8	Agosto	2023-08-15T00:00:00	2024-11-08T09:00:00	8	Radiación solar	486
141697	7	Sololá	713	San Lucas Tolimán	10	San Lucas Tolimán	8	Agosto	2023-08-15T00:00:00	2024-11-08T10:00:00	2	Temperatura media	21.8
141698	7	Sololá	713	San Lucas Tolimán	10	San Lucas Tolimán	8	Agosto	2023-08-15T00:00:00	2024-11-08T10:00:00	4	Temperatura máxima	22.5
141699	7	Sololá	713	San Lucas Tolimán	10	San Lucas Tolimán	8	Agosto	2023-08-15T00:00:00	2024-11-08T10:00:00	3	Temperatura mínima	20.4
141700	7	Sololá	713	San Lucas Tolimán	10	San Lucas Tolimán	8	Agosto	2023-08-15T00:00:00	2024-11-08T10:00:00	5	Humedad	56
141701	7	Sololá	713	San Lucas Tolimán	10	San Lucas Tolimán	8	Agosto	2023-08-15T00:00:00	2024-11-08T10:00:00	6	Velocidad del viento	6.4
141702	7	Sololá	713	San Lucas Tolimán	10	San Lucas Tolimán	8	Agosto	2023-08-15T00:00:00	2024-11-08T10:00:00	7	Dirección del viento	6.44
141703	7	Sololá	713	San Lucas Tolimán	10	San Lucas Tolimán	8	Agosto	2023-08-15T00:00:00	2024-11-08T10:00:00	1	Precipitación	0
141704	7	Sololá	713	San Lucas Tolimán	10	San Lucas Tolimán	8	Agosto	2023-08-15T00:00:00	2024-11-08T10:00:00	8	Radiación solar	729
141705	7	Sololá	713	San Lucas Tolimán	10	San Lucas Tolimán	8	Agosto	2023-08-15T00:00:00	2024-11-08T11:00:00	2	Temperatura media	23.3
141706	7	Sololá	713	San Lucas Tolimán	10	San Lucas Tolimán	8	Agosto	2023-08-15T00:00:00	2024-11-08T11:00:00	4	Temperatura máxima	23.5
141707	7	Sololá	713	San Lucas Tolimán	10	San Lucas Tolimán	8	Agosto	2023-08-15T00:00:00	2024-11-08T11:00:00	3	Temperatura mínima	21.8
141708	7	Sololá	713	San Lucas Tolimán	10	San Lucas Tolimán	8	Agosto	2023-08-15T00:00:00	2024-11-08T11:00:00	5	Humedad	54
141709	7	Sololá	713	San Lucas Tolimán	10	San Lucas Tolimán	8	Agosto	2023-08-15T00:00:00	2024-11-08T11:00:00	6	Velocidad del viento	6.4
141710	7	Sololá	713	San Lucas Tolimán	10	San Lucas Tolimán	8	Agosto	2023-08-15T00:00:00	2024-11-08T11:00:00	7	Dirección del viento	6.44
141711	7	Sololá	713	San Lucas Tolimán	10	San Lucas Tolimán	8	Agosto	2023-08-15T00:00:00	2024-11-08T11:00:00	1	Precipitación	0
141712	7	Sololá	713	San Lucas Tolimán	10	San Lucas Tolimán	8	Agosto	2023-08-15T00:00:00	2024-11-08T11:00:00	8	Radiación solar	980
141713	7	Sololá	713	San Lucas Tolimán	10	San Lucas Tolimán	8	Agosto	2023-08-15T00:00:00	2024-11-08T12:00:00	2	Temperatura media	22.6
141714	7	Sololá	713	San Lucas Tolimán	10	San Lucas Tolimán	8	Agosto	2023-08-15T00:00:00	2024-11-08T12:00:00	4	Temperatura máxima	23.5
141715	7	Sololá	713	San Lucas Tolimán	10	San Lucas Tolimán	8	Agosto	2023-08-15T00:00:00	2024-11-08T12:00:00	3	Temperatura mínima	22.3
141716	7	Sololá	713	San Lucas Tolimán	10	San Lucas Tolimán	8	Agosto	2023-08-15T00:00:00	2024-11-08T12:00:00	5	Humedad	58
141717	7	Sololá	713	San Lucas Tolimán	10	San Lucas Tolimán	8	Agosto	2023-08-15T00:00:00	2024-11-08T12:00:00	6	Velocidad del viento	9.7
141718	7	Sololá	713	San Lucas Tolimán	10	San Lucas Tolimán	8	Agosto	2023-08-15T00:00:00	2024-11-08T12:00:00	7	Dirección del viento	9.66
141719	7	Sololá	713	San Lucas Tolimán	10	San Lucas Tolimán	8	Agosto	2023-08-15T00:00:00	2024-11-08T12:00:00	1	Precipitación	0
141720	7	Sololá	713	San Lucas Tolimán	10	San Lucas Tolimán	8	Agosto	2023-08-15T00:00:00	2024-11-08T12:00:00	8	Radiación solar	1016
141721	7	Sololá	713	San Lucas Tolimán	10	San Lucas Tolimán	8	Agosto	2023-08-15T00:00:00	2024-11-08T13:00:00	2	Temperatura media	21.2
141722	7	Sololá	713	San Lucas Tolimán	10	San Lucas Tolimán	8	Agosto	2023-08-15T00:00:00	2024-11-08T13:00:00	4	Temperatura máxima	22.7
141723	7	Sololá	713	San Lucas Tolimán	10	San Lucas Tolimán	8	Agosto	2023-08-15T00:00:00	2024-11-08T13:00:00	3	Temperatura mínima	20.8
141724	7	Sololá	713	San Lucas Tolimán	10	San Lucas Tolimán	8	Agosto	2023-08-15T00:00:00	2024-11-08T13:00:00	5	Humedad	61
141725	7	Sololá	713	San Lucas Tolimán	10	San Lucas Tolimán	8	Agosto	2023-08-15T00:00:00	2024-11-08T13:00:00	6	Velocidad del viento	9.7
141726	7	Sololá	713	San Lucas Tolimán	10	San Lucas Tolimán	8	Agosto	2023-08-15T00:00:00	2024-11-08T13:00:00	7	Dirección del viento	9.66
141727	7	Sololá	713	San Lucas Tolimán	10	San Lucas Tolimán	8	Agosto	2023-08-15T00:00:00	2024-11-08T13:00:00	1	Precipitación	0
141728	7	Sololá	713	San Lucas Tolimán	10	San Lucas Tolimán	8	Agosto	2023-08-15T00:00:00	2024-11-08T13:00:00	8	Radiación solar	542
141729	7	Sololá	713	San Lucas Tolimán	10	San Lucas Tolimán	8	Agosto	2023-08-15T00:00:00	2024-11-08T14:00:00	2	Temperatura media	22.8
141730	7	Sololá	713	San Lucas Tolimán	10	San Lucas Tolimán	8	Agosto	2023-08-15T00:00:00	2024-11-08T14:00:00	4	Temperatura máxima	22.8
141731	7	Sololá	713	San Lucas Tolimán	10	San Lucas Tolimán	8	Agosto	2023-08-15T00:00:00	2024-11-08T14:00:00	3	Temperatura mínima	21.2
141732	7	Sololá	713	San Lucas Tolimán	10	San Lucas Tolimán	8	Agosto	2023-08-15T00:00:00	2024-11-08T14:00:00	5	Humedad	56
141733	7	Sololá	713	San Lucas Tolimán	10	San Lucas Tolimán	8	Agosto	2023-08-15T00:00:00	2024-11-08T14:00:00	6	Velocidad del viento	4.8
141734	7	Sololá	713	San Lucas Tolimán	10	San Lucas Tolimán	8	Agosto	2023-08-15T00:00:00	2024-11-08T14:00:00	7	Dirección del viento	4.83
141735	7	Sololá	713	San Lucas Tolimán	10	San Lucas Tolimán	8	Agosto	2023-08-15T00:00:00	2024-11-08T14:00:00	1	Precipitación	0
141736	7	Sololá	713	San Lucas Tolimán	10	San Lucas Tolimán	8	Agosto	2023-08-15T00:00:00	2024-11-08T14:00:00	8	Radiación solar	411
141737	7	Sololá	713	San Lucas Tolimán	10	San Lucas Tolimán	8	Agosto	2023-08-15T00:00:00	2024-11-08T15:00:00	2	Temperatura media	20.9
141738	7	Sololá	713	San Lucas Tolimán	10	San Lucas Tolimán	8	Agosto	2023-08-15T00:00:00	2024-11-08T15:00:00	4	Temperatura máxima	24.8
141739	7	Sololá	713	San Lucas Tolimán	10	San Lucas Tolimán	8	Agosto	2023-08-15T00:00:00	2024-11-08T15:00:00	3	Temperatura mínima	20.9
141740	7	Sololá	713	San Lucas Tolimán	10	San Lucas Tolimán	8	Agosto	2023-08-15T00:00:00	2024-11-08T15:00:00	5	Humedad	63
141741	7	Sololá	713	San Lucas Tolimán	10	San Lucas Tolimán	8	Agosto	2023-08-15T00:00:00	2024-11-08T15:00:00	6	Velocidad del viento	8
141742	7	Sololá	713	San Lucas Tolimán	10	San Lucas Tolimán	8	Agosto	2023-08-15T00:00:00	2024-11-08T15:00:00	7	Dirección del viento	8.05
141743	7	Sololá	713	San Lucas Tolimán	10	San Lucas Tolimán	8	Agosto	2023-08-15T00:00:00	2024-11-08T15:00:00	1	Precipitación	0
141744	7	Sololá	713	San Lucas Tolimán	10	San Lucas Tolimán	8	Agosto	2023-08-15T00:00:00	2024-11-08T15:00:00	8	Radiación solar	625
141745	7	Sololá	713	San Lucas Tolimán	10	San Lucas Tolimán	8	Agosto	2023-08-15T00:00:00	2024-11-08T16:00:00	2	Temperatura media	18.7
141746	7	Sololá	713	San Lucas Tolimán	10	San Lucas Tolimán	8	Agosto	2023-08-15T00:00:00	2024-11-08T16:00:00	4	Temperatura máxima	20.9
141747	7	Sololá	713	San Lucas Tolimán	10	San Lucas Tolimán	8	Agosto	2023-08-15T00:00:00	2024-11-08T16:00:00	3	Temperatura mínima	18.6
141748	7	Sololá	713	San Lucas Tolimán	10	San Lucas Tolimán	8	Agosto	2023-08-15T00:00:00	2024-11-08T16:00:00	5	Humedad	65
141749	7	Sololá	713	San Lucas Tolimán	10	San Lucas Tolimán	8	Agosto	2023-08-15T00:00:00	2024-11-08T16:00:00	6	Velocidad del viento	8
141750	7	Sololá	713	San Lucas Tolimán	10	San Lucas Tolimán	8	Agosto	2023-08-15T00:00:00	2024-11-08T16:00:00	7	Dirección del viento	8.05
141751	7	Sololá	713	San Lucas Tolimán	10	San Lucas Tolimán	8	Agosto	2023-08-15T00:00:00	2024-11-08T16:00:00	1	Precipitación	2.2
141752	7	Sololá	713	San Lucas Tolimán	10	San Lucas Tolimán	8	Agosto	2023-08-15T00:00:00	2024-11-08T16:00:00	8	Radiación solar	86
141753	7	Sololá	713	San Lucas Tolimán	10	San Lucas Tolimán	8	Agosto	2023-08-15T00:00:00	2024-11-08T17:00:00	2	Temperatura media	19.9
141754	7	Sololá	713	San Lucas Tolimán	10	San Lucas Tolimán	8	Agosto	2023-08-15T00:00:00	2024-11-08T17:00:00	4	Temperatura máxima	19.9
141755	7	Sololá	713	San Lucas Tolimán	10	San Lucas Tolimán	8	Agosto	2023-08-15T00:00:00	2024-11-08T17:00:00	3	Temperatura mínima	18.7
141756	7	Sololá	713	San Lucas Tolimán	10	San Lucas Tolimán	8	Agosto	2023-08-15T00:00:00	2024-11-08T17:00:00	5	Humedad	59
141757	7	Sololá	713	San Lucas Tolimán	10	San Lucas Tolimán	8	Agosto	2023-08-15T00:00:00	2024-11-08T17:00:00	6	Velocidad del viento	3.2
141758	7	Sololá	713	San Lucas Tolimán	10	San Lucas Tolimán	8	Agosto	2023-08-15T00:00:00	2024-11-08T17:00:00	7	Dirección del viento	3.22
141759	7	Sololá	713	San Lucas Tolimán	10	San Lucas Tolimán	8	Agosto	2023-08-15T00:00:00	2024-11-08T17:00:00	1	Precipitación	0
141760	7	Sololá	713	San Lucas Tolimán	10	San Lucas Tolimán	8	Agosto	2023-08-15T00:00:00	2024-11-08T17:00:00	8	Radiación solar	166
141761	7	Sololá	713	San Lucas Tolimán	10	San Lucas Tolimán	8	Agosto	2023-08-15T00:00:00	2024-11-08T18:00:00	2	Temperatura media	19.4
141762	7	Sololá	713	San Lucas Tolimán	10	San Lucas Tolimán	8	Agosto	2023-08-15T00:00:00	2024-11-08T18:00:00	4	Temperatura máxima	20.3
141763	7	Sololá	713	San Lucas Tolimán	10	San Lucas Tolimán	8	Agosto	2023-08-15T00:00:00	2024-11-08T18:00:00	3	Temperatura mínima	19.4
141764	7	Sololá	713	San Lucas Tolimán	10	San Lucas Tolimán	8	Agosto	2023-08-15T00:00:00	2024-11-08T18:00:00	5	Humedad	62
141765	7	Sololá	713	San Lucas Tolimán	10	San Lucas Tolimán	8	Agosto	2023-08-15T00:00:00	2024-11-08T18:00:00	6	Velocidad del viento	4.8
141766	7	Sololá	713	San Lucas Tolimán	10	San Lucas Tolimán	8	Agosto	2023-08-15T00:00:00	2024-11-08T18:00:00	7	Dirección del viento	4.83
141767	7	Sololá	713	San Lucas Tolimán	10	San Lucas Tolimán	8	Agosto	2023-08-15T00:00:00	2024-11-08T18:00:00	1	Precipitación	0
141768	7	Sololá	713	San Lucas Tolimán	10	San Lucas Tolimán	8	Agosto	2023-08-15T00:00:00	2024-11-08T18:00:00	8	Radiación solar	115
141769	7	Sololá	713	San Lucas Tolimán	10	San Lucas Tolimán	8	Agosto	2023-08-15T00:00:00	2024-11-08T19:00:00	2	Temperatura media	18.7
141770	7	Sololá	713	San Lucas Tolimán	10	San Lucas Tolimán	8	Agosto	2023-08-15T00:00:00	2024-11-08T19:00:00	4	Temperatura máxima	19.4
141771	7	Sololá	713	San Lucas Tolimán	10	San Lucas Tolimán	8	Agosto	2023-08-15T00:00:00	2024-11-08T19:00:00	3	Temperatura mínima	18.5
141772	7	Sololá	713	San Lucas Tolimán	10	San Lucas Tolimán	8	Agosto	2023-08-15T00:00:00	2024-11-08T19:00:00	5	Humedad	60
141773	7	Sololá	713	San Lucas Tolimán	10	San Lucas Tolimán	8	Agosto	2023-08-15T00:00:00	2024-11-08T19:00:00	6	Velocidad del viento	1.6
141774	7	Sololá	713	San Lucas Tolimán	10	San Lucas Tolimán	8	Agosto	2023-08-15T00:00:00	2024-11-08T19:00:00	7	Dirección del viento	1.61
141775	7	Sololá	713	San Lucas Tolimán	10	San Lucas Tolimán	8	Agosto	2023-08-15T00:00:00	2024-11-08T19:00:00	1	Precipitación	0
141776	7	Sololá	713	San Lucas Tolimán	10	San Lucas Tolimán	8	Agosto	2023-08-15T00:00:00	2024-11-08T19:00:00	8	Radiación solar	0
141777	7	Sololá	713	San Lucas Tolimán	10	San Lucas Tolimán	8	Agosto	2023-08-15T00:00:00	2024-11-08T20:00:00	2	Temperatura media	18.7
141778	7	Sololá	713	San Lucas Tolimán	10	San Lucas Tolimán	8	Agosto	2023-08-15T00:00:00	2024-11-08T20:00:00	4	Temperatura máxima	18.8
141779	7	Sololá	713	San Lucas Tolimán	10	San Lucas Tolimán	8	Agosto	2023-08-15T00:00:00	2024-11-08T20:00:00	3	Temperatura mínima	18.4
141780	7	Sololá	713	San Lucas Tolimán	10	San Lucas Tolimán	8	Agosto	2023-08-15T00:00:00	2024-11-08T20:00:00	5	Humedad	60
141781	7	Sololá	713	San Lucas Tolimán	10	San Lucas Tolimán	8	Agosto	2023-08-15T00:00:00	2024-11-08T20:00:00	6	Velocidad del viento	1.6
141782	7	Sololá	713	San Lucas Tolimán	10	San Lucas Tolimán	8	Agosto	2023-08-15T00:00:00	2024-11-08T20:00:00	7	Dirección del viento	1.61
141783	7	Sololá	713	San Lucas Tolimán	10	San Lucas Tolimán	8	Agosto	2023-08-15T00:00:00	2024-11-08T20:00:00	1	Precipitación	0
141784	7	Sololá	713	San Lucas Tolimán	10	San Lucas Tolimán	8	Agosto	2023-08-15T00:00:00	2024-11-08T20:00:00	8	Radiación solar	0
141785	7	Sololá	713	San Lucas Tolimán	10	San Lucas Tolimán	8	Agosto	2023-08-15T00:00:00	2024-11-08T21:00:00	2	Temperatura media	18.7
141786	7	Sololá	713	San Lucas Tolimán	10	San Lucas Tolimán	8	Agosto	2023-08-15T00:00:00	2024-11-08T21:00:00	4	Temperatura máxima	18.7
141787	7	Sololá	713	San Lucas Tolimán	10	San Lucas Tolimán	8	Agosto	2023-08-15T00:00:00	2024-11-08T21:00:00	3	Temperatura mínima	18.4
141788	7	Sololá	713	San Lucas Tolimán	10	San Lucas Tolimán	8	Agosto	2023-08-15T00:00:00	2024-11-08T21:00:00	5	Humedad	58
141789	7	Sololá	713	San Lucas Tolimán	10	San Lucas Tolimán	8	Agosto	2023-08-15T00:00:00	2024-11-08T21:00:00	6	Velocidad del viento	1.6
141790	7	Sololá	713	San Lucas Tolimán	10	San Lucas Tolimán	8	Agosto	2023-08-15T00:00:00	2024-11-08T21:00:00	7	Dirección del viento	1.61
141791	7	Sololá	713	San Lucas Tolimán	10	San Lucas Tolimán	8	Agosto	2023-08-15T00:00:00	2024-11-08T21:00:00	1	Precipitación	0
141792	7	Sololá	713	San Lucas Tolimán	10	San Lucas Tolimán	8	Agosto	2023-08-15T00:00:00	2024-11-08T21:00:00	8	Radiación solar	0
141793	7	Sololá	713	San Lucas Tolimán	10	San Lucas Tolimán	8	Agosto	2023-08-15T00:00:00	2024-11-08T22:00:00	2	Temperatura media	18.6
141794	7	Sololá	713	San Lucas Tolimán	10	San Lucas Tolimán	8	Agosto	2023-08-15T00:00:00	2024-11-08T22:00:00	4	Temperatura máxima	18.8
141795	7	Sololá	713	San Lucas Tolimán	10	San Lucas Tolimán	8	Agosto	2023-08-15T00:00:00	2024-11-08T22:00:00	3	Temperatura mínima	18.3
141796	7	Sololá	713	San Lucas Tolimán	10	San Lucas Tolimán	8	Agosto	2023-08-15T00:00:00	2024-11-08T22:00:00	5	Humedad	60
141797	7	Sololá	713	San Lucas Tolimán	10	San Lucas Tolimán	8	Agosto	2023-08-15T00:00:00	2024-11-08T22:00:00	6	Velocidad del viento	0
141798	7	Sololá	713	San Lucas Tolimán	10	San Lucas Tolimán	8	Agosto	2023-08-15T00:00:00	2024-11-08T22:00:00	7	Dirección del viento	0
141799	7	Sololá	713	San Lucas Tolimán	10	San Lucas Tolimán	8	Agosto	2023-08-15T00:00:00	2024-11-08T22:00:00	1	Precipitación	0
141800	7	Sololá	713	San Lucas Tolimán	10	San Lucas Tolimán	8	Agosto	2023-08-15T00:00:00	2024-11-08T22:00:00	8	Radiación solar	0
141801	7	Sololá	713	San Lucas Tolimán	10	San Lucas Tolimán	8	Agosto	2023-08-15T00:00:00	2024-11-08T23:00:00	2	Temperatura media	18.5
141802	7	Sololá	713	San Lucas Tolimán	10	San Lucas Tolimán	8	Agosto	2023-08-15T00:00:00	2024-11-08T23:00:00	4	Temperatura máxima	18.6
141803	7	Sololá	713	San Lucas Tolimán	10	San Lucas Tolimán	8	Agosto	2023-08-15T00:00:00	2024-11-08T23:00:00	3	Temperatura mínima	17.9
141804	7	Sololá	713	San Lucas Tolimán	10	San Lucas Tolimán	8	Agosto	2023-08-15T00:00:00	2024-11-08T23:00:00	5	Humedad	59
141805	7	Sololá	713	San Lucas Tolimán	10	San Lucas Tolimán	8	Agosto	2023-08-15T00:00:00	2024-11-08T23:00:00	6	Velocidad del viento	1.6
141806	7	Sololá	713	San Lucas Tolimán	10	San Lucas Tolimán	8	Agosto	2023-08-15T00:00:00	2024-11-08T23:00:00	7	Dirección del viento	1.61
141807	7	Sololá	713	San Lucas Tolimán	10	San Lucas Tolimán	8	Agosto	2023-08-15T00:00:00	2024-11-08T23:00:00	1	Precipitación	0
141808	7	Sololá	713	San Lucas Tolimán	10	San Lucas Tolimán	8	Agosto	2023-08-15T00:00:00	2024-11-08T23:00:00	8	Radiación solar	0
141809	7	Sololá	713	San Lucas Tolimán	10	San Lucas Tolimán	8	Agosto	2023-08-16T00:00:00	2024-11-08T00:00:00	2	Temperatura media	18.6
141810	7	Sololá	713	San Lucas Tolimán	10	San Lucas Tolimán	8	Agosto	2023-08-16T00:00:00	2024-11-08T00:00:00	4	Temperatura máxima	18.9
141811	7	Sololá	713	San Lucas Tolimán	10	San Lucas Tolimán	8	Agosto	2023-08-16T00:00:00	2024-11-08T00:00:00	3	Temperatura mínima	18.5
141812	7	Sololá	713	San Lucas Tolimán	10	San Lucas Tolimán	8	Agosto	2023-08-16T00:00:00	2024-11-08T00:00:00	5	Humedad	59
141813	7	Sololá	713	San Lucas Tolimán	10	San Lucas Tolimán	8	Agosto	2023-08-16T00:00:00	2024-11-08T00:00:00	6	Velocidad del viento	1.6
141814	7	Sololá	713	San Lucas Tolimán	10	San Lucas Tolimán	8	Agosto	2023-08-16T00:00:00	2024-11-08T00:00:00	7	Dirección del viento	1.61
141815	7	Sololá	713	San Lucas Tolimán	10	San Lucas Tolimán	8	Agosto	2023-08-16T00:00:00	2024-11-08T00:00:00	1	Precipitación	0
141816	7	Sololá	713	San Lucas Tolimán	10	San Lucas Tolimán	8	Agosto	2023-08-16T00:00:00	2024-11-08T00:00:00	8	Radiación solar	0
141817	7	Sololá	713	San Lucas Tolimán	10	San Lucas Tolimán	8	Agosto	2023-08-16T00:00:00	2024-11-08T01:00:00	2	Temperatura media	18.1
141818	7	Sololá	713	San Lucas Tolimán	10	San Lucas Tolimán	8	Agosto	2023-08-16T00:00:00	2024-11-08T01:00:00	4	Temperatura máxima	18.6
141819	7	Sololá	713	San Lucas Tolimán	10	San Lucas Tolimán	8	Agosto	2023-08-16T00:00:00	2024-11-08T01:00:00	3	Temperatura mínima	18.1
141820	7	Sololá	713	San Lucas Tolimán	10	San Lucas Tolimán	8	Agosto	2023-08-16T00:00:00	2024-11-08T01:00:00	5	Humedad	61
141821	7	Sololá	713	San Lucas Tolimán	10	San Lucas Tolimán	8	Agosto	2023-08-16T00:00:00	2024-11-08T01:00:00	6	Velocidad del viento	1.6
141822	7	Sololá	713	San Lucas Tolimán	10	San Lucas Tolimán	8	Agosto	2023-08-16T00:00:00	2024-11-08T01:00:00	7	Dirección del viento	1.61
141823	7	Sololá	713	San Lucas Tolimán	10	San Lucas Tolimán	8	Agosto	2023-08-16T00:00:00	2024-11-08T01:00:00	1	Precipitación	0
141824	7	Sololá	713	San Lucas Tolimán	10	San Lucas Tolimán	8	Agosto	2023-08-16T00:00:00	2024-11-08T01:00:00	8	Radiación solar	0
141825	7	Sololá	713	San Lucas Tolimán	10	San Lucas Tolimán	8	Agosto	2023-08-16T00:00:00	2024-11-08T02:00:00	2	Temperatura media	17.2
141826	7	Sololá	713	San Lucas Tolimán	10	San Lucas Tolimán	8	Agosto	2023-08-16T00:00:00	2024-11-08T02:00:00	4	Temperatura máxima	18.1
141827	7	Sololá	713	San Lucas Tolimán	10	San Lucas Tolimán	8	Agosto	2023-08-16T00:00:00	2024-11-08T02:00:00	3	Temperatura mínima	17.2
141828	7	Sololá	713	San Lucas Tolimán	10	San Lucas Tolimán	8	Agosto	2023-08-16T00:00:00	2024-11-08T02:00:00	5	Humedad	62
141829	7	Sololá	713	San Lucas Tolimán	10	San Lucas Tolimán	8	Agosto	2023-08-16T00:00:00	2024-11-08T02:00:00	6	Velocidad del viento	1.6
141830	7	Sololá	713	San Lucas Tolimán	10	San Lucas Tolimán	8	Agosto	2023-08-16T00:00:00	2024-11-08T02:00:00	7	Dirección del viento	1.61
141831	7	Sololá	713	San Lucas Tolimán	10	San Lucas Tolimán	8	Agosto	2023-08-16T00:00:00	2024-11-08T02:00:00	1	Precipitación	0
141832	7	Sololá	713	San Lucas Tolimán	10	San Lucas Tolimán	8	Agosto	2023-08-16T00:00:00	2024-11-08T02:00:00	8	Radiación solar	0
141833	7	Sololá	713	San Lucas Tolimán	10	San Lucas Tolimán	8	Agosto	2023-08-16T00:00:00	2024-11-08T03:00:00	2	Temperatura media	17.6
141834	7	Sololá	713	San Lucas Tolimán	10	San Lucas Tolimán	8	Agosto	2023-08-16T00:00:00	2024-11-08T03:00:00	4	Temperatura máxima	17.6
141835	7	Sololá	713	San Lucas Tolimán	10	San Lucas Tolimán	8	Agosto	2023-08-16T00:00:00	2024-11-08T03:00:00	3	Temperatura mínima	17
141836	7	Sololá	713	San Lucas Tolimán	10	San Lucas Tolimán	8	Agosto	2023-08-16T00:00:00	2024-11-08T03:00:00	5	Humedad	61
141837	7	Sololá	713	San Lucas Tolimán	10	San Lucas Tolimán	8	Agosto	2023-08-16T00:00:00	2024-11-08T03:00:00	6	Velocidad del viento	1.6
141838	7	Sololá	713	San Lucas Tolimán	10	San Lucas Tolimán	8	Agosto	2023-08-16T00:00:00	2024-11-08T03:00:00	7	Dirección del viento	1.61
141839	7	Sololá	713	San Lucas Tolimán	10	San Lucas Tolimán	8	Agosto	2023-08-16T00:00:00	2024-11-08T03:00:00	1	Precipitación	0
141840	7	Sololá	713	San Lucas Tolimán	10	San Lucas Tolimán	8	Agosto	2023-08-16T00:00:00	2024-11-08T03:00:00	8	Radiación solar	0
141841	7	Sololá	713	San Lucas Tolimán	10	San Lucas Tolimán	8	Agosto	2023-08-16T00:00:00	2024-11-08T04:00:00	2	Temperatura media	18.7
141842	7	Sololá	713	San Lucas Tolimán	10	San Lucas Tolimán	8	Agosto	2023-08-16T00:00:00	2024-11-08T04:00:00	4	Temperatura máxima	19.7
141843	7	Sololá	713	San Lucas Tolimán	10	San Lucas Tolimán	8	Agosto	2023-08-16T00:00:00	2024-11-08T04:00:00	3	Temperatura mínima	17.6
141844	7	Sololá	713	San Lucas Tolimán	10	San Lucas Tolimán	8	Agosto	2023-08-16T00:00:00	2024-11-08T04:00:00	5	Humedad	60
141845	7	Sololá	713	San Lucas Tolimán	10	San Lucas Tolimán	8	Agosto	2023-08-16T00:00:00	2024-11-08T04:00:00	6	Velocidad del viento	6.4
141846	7	Sololá	713	San Lucas Tolimán	10	San Lucas Tolimán	8	Agosto	2023-08-16T00:00:00	2024-11-08T04:00:00	7	Dirección del viento	6.44
141847	7	Sololá	713	San Lucas Tolimán	10	San Lucas Tolimán	8	Agosto	2023-08-16T00:00:00	2024-11-08T04:00:00	1	Precipitación	0.2
141848	7	Sololá	713	San Lucas Tolimán	10	San Lucas Tolimán	8	Agosto	2023-08-16T00:00:00	2024-11-08T04:00:00	8	Radiación solar	0
141849	7	Sololá	713	San Lucas Tolimán	10	San Lucas Tolimán	8	Agosto	2023-08-16T00:00:00	2024-11-08T05:00:00	2	Temperatura media	18.1
141850	7	Sololá	713	San Lucas Tolimán	10	San Lucas Tolimán	8	Agosto	2023-08-16T00:00:00	2024-11-08T05:00:00	4	Temperatura máxima	18.7
141851	7	Sololá	713	San Lucas Tolimán	10	San Lucas Tolimán	8	Agosto	2023-08-16T00:00:00	2024-11-08T05:00:00	3	Temperatura mínima	18.1
141852	7	Sololá	713	San Lucas Tolimán	10	San Lucas Tolimán	8	Agosto	2023-08-16T00:00:00	2024-11-08T05:00:00	5	Humedad	62
141853	7	Sololá	713	San Lucas Tolimán	10	San Lucas Tolimán	8	Agosto	2023-08-16T00:00:00	2024-11-08T05:00:00	6	Velocidad del viento	1.6
141854	7	Sololá	713	San Lucas Tolimán	10	San Lucas Tolimán	8	Agosto	2023-08-16T00:00:00	2024-11-08T05:00:00	7	Dirección del viento	1.61
141855	7	Sololá	713	San Lucas Tolimán	10	San Lucas Tolimán	8	Agosto	2023-08-16T00:00:00	2024-11-08T05:00:00	1	Precipitación	0
141856	7	Sololá	713	San Lucas Tolimán	10	San Lucas Tolimán	8	Agosto	2023-08-16T00:00:00	2024-11-08T05:00:00	8	Radiación solar	0
141857	7	Sololá	713	San Lucas Tolimán	10	San Lucas Tolimán	8	Agosto	2023-08-16T00:00:00	2024-11-08T06:00:00	2	Temperatura media	17.3
141858	7	Sololá	713	San Lucas Tolimán	10	San Lucas Tolimán	8	Agosto	2023-08-16T00:00:00	2024-11-08T06:00:00	4	Temperatura máxima	18.1
141859	7	Sololá	713	San Lucas Tolimán	10	San Lucas Tolimán	8	Agosto	2023-08-16T00:00:00	2024-11-08T06:00:00	3	Temperatura mínima	17.1
141860	7	Sololá	713	San Lucas Tolimán	10	San Lucas Tolimán	8	Agosto	2023-08-16T00:00:00	2024-11-08T06:00:00	5	Humedad	63
141861	7	Sololá	713	San Lucas Tolimán	10	San Lucas Tolimán	8	Agosto	2023-08-16T00:00:00	2024-11-08T06:00:00	6	Velocidad del viento	1.6
141862	7	Sololá	713	San Lucas Tolimán	10	San Lucas Tolimán	8	Agosto	2023-08-16T00:00:00	2024-11-08T06:00:00	7	Dirección del viento	1.61
141863	7	Sololá	713	San Lucas Tolimán	10	San Lucas Tolimán	8	Agosto	2023-08-16T00:00:00	2024-11-08T06:00:00	1	Precipitación	0
141864	7	Sololá	713	San Lucas Tolimán	10	San Lucas Tolimán	8	Agosto	2023-08-16T00:00:00	2024-11-08T06:00:00	8	Radiación solar	1
141865	7	Sololá	713	San Lucas Tolimán	10	San Lucas Tolimán	8	Agosto	2023-08-16T00:00:00	2024-11-08T07:00:00	2	Temperatura media	17.8
141866	7	Sololá	713	San Lucas Tolimán	10	San Lucas Tolimán	8	Agosto	2023-08-16T00:00:00	2024-11-08T07:00:00	4	Temperatura máxima	18.3
141867	7	Sololá	713	San Lucas Tolimán	10	San Lucas Tolimán	8	Agosto	2023-08-16T00:00:00	2024-11-08T07:00:00	3	Temperatura mínima	17.3
141868	7	Sololá	713	San Lucas Tolimán	10	San Lucas Tolimán	8	Agosto	2023-08-16T00:00:00	2024-11-08T07:00:00	5	Humedad	62
141869	7	Sololá	713	San Lucas Tolimán	10	San Lucas Tolimán	8	Agosto	2023-08-16T00:00:00	2024-11-08T07:00:00	6	Velocidad del viento	3.2
141870	7	Sololá	713	San Lucas Tolimán	10	San Lucas Tolimán	8	Agosto	2023-08-16T00:00:00	2024-11-08T07:00:00	7	Dirección del viento	3.22
141871	7	Sololá	713	San Lucas Tolimán	10	San Lucas Tolimán	8	Agosto	2023-08-16T00:00:00	2024-11-08T07:00:00	1	Precipitación	0
141872	7	Sololá	713	San Lucas Tolimán	10	San Lucas Tolimán	8	Agosto	2023-08-16T00:00:00	2024-11-08T07:00:00	8	Radiación solar	55
141873	7	Sololá	713	San Lucas Tolimán	10	San Lucas Tolimán	8	Agosto	2023-08-16T00:00:00	2024-11-08T08:00:00	2	Temperatura media	21
141874	7	Sololá	713	San Lucas Tolimán	10	San Lucas Tolimán	8	Agosto	2023-08-16T00:00:00	2024-11-08T08:00:00	4	Temperatura máxima	21
141875	7	Sololá	713	San Lucas Tolimán	10	San Lucas Tolimán	8	Agosto	2023-08-16T00:00:00	2024-11-08T08:00:00	3	Temperatura mínima	17.8
141876	7	Sololá	713	San Lucas Tolimán	10	San Lucas Tolimán	8	Agosto	2023-08-16T00:00:00	2024-11-08T08:00:00	5	Humedad	54
141877	7	Sololá	713	San Lucas Tolimán	10	San Lucas Tolimán	8	Agosto	2023-08-16T00:00:00	2024-11-08T08:00:00	6	Velocidad del viento	3.2
141878	7	Sololá	713	San Lucas Tolimán	10	San Lucas Tolimán	8	Agosto	2023-08-16T00:00:00	2024-11-08T08:00:00	7	Dirección del viento	3.22
141879	7	Sololá	713	San Lucas Tolimán	10	San Lucas Tolimán	8	Agosto	2023-08-16T00:00:00	2024-11-08T08:00:00	1	Precipitación	0
141880	7	Sololá	713	San Lucas Tolimán	10	San Lucas Tolimán	8	Agosto	2023-08-16T00:00:00	2024-11-08T08:00:00	8	Radiación solar	301
141881	7	Sololá	713	San Lucas Tolimán	10	San Lucas Tolimán	8	Agosto	2023-08-16T00:00:00	2024-11-08T09:00:00	2	Temperatura media	23.4
141882	7	Sololá	713	San Lucas Tolimán	10	San Lucas Tolimán	8	Agosto	2023-08-16T00:00:00	2024-11-08T09:00:00	4	Temperatura máxima	23.5
141883	7	Sololá	713	San Lucas Tolimán	10	San Lucas Tolimán	8	Agosto	2023-08-16T00:00:00	2024-11-08T09:00:00	3	Temperatura mínima	21
141884	7	Sololá	713	San Lucas Tolimán	10	San Lucas Tolimán	8	Agosto	2023-08-16T00:00:00	2024-11-08T09:00:00	5	Humedad	49
141885	7	Sololá	713	San Lucas Tolimán	10	San Lucas Tolimán	8	Agosto	2023-08-16T00:00:00	2024-11-08T09:00:00	6	Velocidad del viento	1.6
141886	7	Sololá	713	San Lucas Tolimán	10	San Lucas Tolimán	8	Agosto	2023-08-16T00:00:00	2024-11-08T09:00:00	7	Dirección del viento	1.61
141887	7	Sololá	713	San Lucas Tolimán	10	San Lucas Tolimán	8	Agosto	2023-08-16T00:00:00	2024-11-08T09:00:00	1	Precipitación	0
141888	7	Sololá	713	San Lucas Tolimán	10	San Lucas Tolimán	8	Agosto	2023-08-16T00:00:00	2024-11-08T09:00:00	8	Radiación solar	526
141889	7	Sololá	713	San Lucas Tolimán	10	San Lucas Tolimán	8	Agosto	2023-08-16T00:00:00	2024-11-08T10:00:00	2	Temperatura media	24.4
141890	7	Sololá	713	San Lucas Tolimán	10	San Lucas Tolimán	8	Agosto	2023-08-16T00:00:00	2024-11-08T10:00:00	4	Temperatura máxima	24.4
141891	7	Sololá	713	San Lucas Tolimán	10	San Lucas Tolimán	8	Agosto	2023-08-16T00:00:00	2024-11-08T10:00:00	3	Temperatura mínima	23.1
141892	7	Sololá	713	San Lucas Tolimán	10	San Lucas Tolimán	8	Agosto	2023-08-16T00:00:00	2024-11-08T10:00:00	5	Humedad	45
141893	7	Sololá	713	San Lucas Tolimán	10	San Lucas Tolimán	8	Agosto	2023-08-16T00:00:00	2024-11-08T10:00:00	6	Velocidad del viento	4.8
141894	7	Sololá	713	San Lucas Tolimán	10	San Lucas Tolimán	8	Agosto	2023-08-16T00:00:00	2024-11-08T10:00:00	7	Dirección del viento	4.83
141895	7	Sololá	713	San Lucas Tolimán	10	San Lucas Tolimán	8	Agosto	2023-08-16T00:00:00	2024-11-08T10:00:00	1	Precipitación	0
141896	7	Sololá	713	San Lucas Tolimán	10	San Lucas Tolimán	8	Agosto	2023-08-16T00:00:00	2024-11-08T10:00:00	8	Radiación solar	817
141897	7	Sololá	713	San Lucas Tolimán	10	San Lucas Tolimán	8	Agosto	2023-08-16T00:00:00	2024-11-08T11:00:00	2	Temperatura media	24.9
141898	7	Sololá	713	San Lucas Tolimán	10	San Lucas Tolimán	8	Agosto	2023-08-16T00:00:00	2024-11-08T11:00:00	4	Temperatura máxima	25.1
141899	7	Sololá	713	San Lucas Tolimán	10	San Lucas Tolimán	8	Agosto	2023-08-16T00:00:00	2024-11-08T11:00:00	3	Temperatura mínima	24
141900	7	Sololá	713	San Lucas Tolimán	10	San Lucas Tolimán	8	Agosto	2023-08-16T00:00:00	2024-11-08T11:00:00	5	Humedad	53
141901	7	Sololá	713	San Lucas Tolimán	10	San Lucas Tolimán	8	Agosto	2023-08-16T00:00:00	2024-11-08T11:00:00	6	Velocidad del viento	9.7
141902	7	Sololá	713	San Lucas Tolimán	10	San Lucas Tolimán	8	Agosto	2023-08-16T00:00:00	2024-11-08T11:00:00	7	Dirección del viento	9.66
141903	7	Sololá	713	San Lucas Tolimán	10	San Lucas Tolimán	8	Agosto	2023-08-16T00:00:00	2024-11-08T11:00:00	1	Precipitación	0
141904	7	Sololá	713	San Lucas Tolimán	10	San Lucas Tolimán	8	Agosto	2023-08-16T00:00:00	2024-11-08T11:00:00	8	Radiación solar	1021
141905	7	Sololá	713	San Lucas Tolimán	10	San Lucas Tolimán	8	Agosto	2023-08-16T00:00:00	2024-11-08T12:00:00	2	Temperatura media	23.2
141906	7	Sololá	713	San Lucas Tolimán	10	San Lucas Tolimán	8	Agosto	2023-08-16T00:00:00	2024-11-08T12:00:00	4	Temperatura máxima	24.8
141907	7	Sololá	713	San Lucas Tolimán	10	San Lucas Tolimán	8	Agosto	2023-08-16T00:00:00	2024-11-08T12:00:00	3	Temperatura mínima	22.1
141908	7	Sololá	713	San Lucas Tolimán	10	San Lucas Tolimán	8	Agosto	2023-08-16T00:00:00	2024-11-08T12:00:00	5	Humedad	58
141909	7	Sololá	713	San Lucas Tolimán	10	San Lucas Tolimán	8	Agosto	2023-08-16T00:00:00	2024-11-08T12:00:00	6	Velocidad del viento	11.3
141910	7	Sololá	713	San Lucas Tolimán	10	San Lucas Tolimán	8	Agosto	2023-08-16T00:00:00	2024-11-08T12:00:00	7	Dirección del viento	11.27
141911	7	Sololá	713	San Lucas Tolimán	10	San Lucas Tolimán	8	Agosto	2023-08-16T00:00:00	2024-11-08T12:00:00	1	Precipitación	0
141912	7	Sololá	713	San Lucas Tolimán	10	San Lucas Tolimán	8	Agosto	2023-08-16T00:00:00	2024-11-08T12:00:00	8	Radiación solar	742
141913	7	Sololá	713	San Lucas Tolimán	10	San Lucas Tolimán	8	Agosto	2023-08-16T00:00:00	2024-11-08T13:00:00	2	Temperatura media	23.2
141914	7	Sololá	713	San Lucas Tolimán	10	San Lucas Tolimán	8	Agosto	2023-08-16T00:00:00	2024-11-08T13:00:00	4	Temperatura máxima	23.3
141915	7	Sololá	713	San Lucas Tolimán	10	San Lucas Tolimán	8	Agosto	2023-08-16T00:00:00	2024-11-08T13:00:00	3	Temperatura mínima	21.9
141916	7	Sololá	713	San Lucas Tolimán	10	San Lucas Tolimán	8	Agosto	2023-08-16T00:00:00	2024-11-08T13:00:00	5	Humedad	59
141917	7	Sololá	713	San Lucas Tolimán	10	San Lucas Tolimán	8	Agosto	2023-08-16T00:00:00	2024-11-08T13:00:00	6	Velocidad del viento	11.3
141918	7	Sololá	713	San Lucas Tolimán	10	San Lucas Tolimán	8	Agosto	2023-08-16T00:00:00	2024-11-08T13:00:00	7	Dirección del viento	11.27
141919	7	Sololá	713	San Lucas Tolimán	10	San Lucas Tolimán	8	Agosto	2023-08-16T00:00:00	2024-11-08T13:00:00	1	Precipitación	0
141920	7	Sololá	713	San Lucas Tolimán	10	San Lucas Tolimán	8	Agosto	2023-08-16T00:00:00	2024-11-08T13:00:00	8	Radiación solar	461
141921	7	Sololá	713	San Lucas Tolimán	10	San Lucas Tolimán	8	Agosto	2023-08-16T00:00:00	2024-11-08T14:00:00	2	Temperatura media	22.5
141922	7	Sololá	713	San Lucas Tolimán	10	San Lucas Tolimán	8	Agosto	2023-08-16T00:00:00	2024-11-08T14:00:00	4	Temperatura máxima	23.6
141923	7	Sololá	713	San Lucas Tolimán	10	San Lucas Tolimán	8	Agosto	2023-08-16T00:00:00	2024-11-08T14:00:00	3	Temperatura mínima	22.2
141924	7	Sololá	713	San Lucas Tolimán	10	San Lucas Tolimán	8	Agosto	2023-08-16T00:00:00	2024-11-08T14:00:00	5	Humedad	60
141925	7	Sololá	713	San Lucas Tolimán	10	San Lucas Tolimán	8	Agosto	2023-08-16T00:00:00	2024-11-08T14:00:00	6	Velocidad del viento	12.9
141926	7	Sololá	713	San Lucas Tolimán	10	San Lucas Tolimán	8	Agosto	2023-08-16T00:00:00	2024-11-08T14:00:00	7	Dirección del viento	12.87
141927	7	Sololá	713	San Lucas Tolimán	10	San Lucas Tolimán	8	Agosto	2023-08-16T00:00:00	2024-11-08T14:00:00	1	Precipitación	0
141928	7	Sololá	713	San Lucas Tolimán	10	San Lucas Tolimán	8	Agosto	2023-08-16T00:00:00	2024-11-08T14:00:00	8	Radiación solar	920
141929	7	Sololá	713	San Lucas Tolimán	10	San Lucas Tolimán	8	Agosto	2023-08-16T00:00:00	2024-11-08T15:00:00	2	Temperatura media	21.4
141930	7	Sololá	713	San Lucas Tolimán	10	San Lucas Tolimán	8	Agosto	2023-08-16T00:00:00	2024-11-08T15:00:00	4	Temperatura máxima	23.6
141931	7	Sololá	713	San Lucas Tolimán	10	San Lucas Tolimán	8	Agosto	2023-08-16T00:00:00	2024-11-08T15:00:00	3	Temperatura mínima	21.3
141932	7	Sololá	713	San Lucas Tolimán	10	San Lucas Tolimán	8	Agosto	2023-08-16T00:00:00	2024-11-08T15:00:00	5	Humedad	62
141933	7	Sololá	713	San Lucas Tolimán	10	San Lucas Tolimán	8	Agosto	2023-08-16T00:00:00	2024-11-08T15:00:00	6	Velocidad del viento	12.9
141934	7	Sololá	713	San Lucas Tolimán	10	San Lucas Tolimán	8	Agosto	2023-08-16T00:00:00	2024-11-08T15:00:00	7	Dirección del viento	12.87
141935	7	Sololá	713	San Lucas Tolimán	10	San Lucas Tolimán	8	Agosto	2023-08-16T00:00:00	2024-11-08T15:00:00	1	Precipitación	0
141936	7	Sololá	713	San Lucas Tolimán	10	San Lucas Tolimán	8	Agosto	2023-08-16T00:00:00	2024-11-08T15:00:00	8	Radiación solar	833
141937	7	Sololá	713	San Lucas Tolimán	10	San Lucas Tolimán	8	Agosto	2023-08-16T00:00:00	2024-11-08T16:00:00	2	Temperatura media	20.7
141938	7	Sololá	713	San Lucas Tolimán	10	San Lucas Tolimán	8	Agosto	2023-08-16T00:00:00	2024-11-08T16:00:00	4	Temperatura máxima	22.1
141939	7	Sololá	713	San Lucas Tolimán	10	San Lucas Tolimán	8	Agosto	2023-08-16T00:00:00	2024-11-08T16:00:00	3	Temperatura mínima	20.7
141940	7	Sololá	713	San Lucas Tolimán	10	San Lucas Tolimán	8	Agosto	2023-08-16T00:00:00	2024-11-08T16:00:00	5	Humedad	62
141941	7	Sololá	713	San Lucas Tolimán	10	San Lucas Tolimán	8	Agosto	2023-08-16T00:00:00	2024-11-08T16:00:00	6	Velocidad del viento	11.3
141942	7	Sololá	713	San Lucas Tolimán	10	San Lucas Tolimán	8	Agosto	2023-08-16T00:00:00	2024-11-08T16:00:00	7	Dirección del viento	11.27
141943	7	Sololá	713	San Lucas Tolimán	10	San Lucas Tolimán	8	Agosto	2023-08-16T00:00:00	2024-11-08T16:00:00	1	Precipitación	0
141944	7	Sololá	713	San Lucas Tolimán	10	San Lucas Tolimán	8	Agosto	2023-08-16T00:00:00	2024-11-08T16:00:00	8	Radiación solar	298
141945	7	Sololá	713	San Lucas Tolimán	10	San Lucas Tolimán	8	Agosto	2023-08-16T00:00:00	2024-11-08T17:00:00	2	Temperatura media	19.6
141946	7	Sololá	713	San Lucas Tolimán	10	San Lucas Tolimán	8	Agosto	2023-08-16T00:00:00	2024-11-08T17:00:00	4	Temperatura máxima	20.7
141947	7	Sololá	713	San Lucas Tolimán	10	San Lucas Tolimán	8	Agosto	2023-08-16T00:00:00	2024-11-08T17:00:00	3	Temperatura mínima	19.6
141948	7	Sololá	713	San Lucas Tolimán	10	San Lucas Tolimán	8	Agosto	2023-08-16T00:00:00	2024-11-08T17:00:00	5	Humedad	61
141949	7	Sololá	713	San Lucas Tolimán	10	San Lucas Tolimán	8	Agosto	2023-08-16T00:00:00	2024-11-08T17:00:00	6	Velocidad del viento	8
141950	7	Sololá	713	San Lucas Tolimán	10	San Lucas Tolimán	8	Agosto	2023-08-16T00:00:00	2024-11-08T17:00:00	7	Dirección del viento	8.05
141951	7	Sololá	713	San Lucas Tolimán	10	San Lucas Tolimán	8	Agosto	2023-08-16T00:00:00	2024-11-08T17:00:00	1	Precipitación	0
141952	7	Sololá	713	San Lucas Tolimán	10	San Lucas Tolimán	8	Agosto	2023-08-16T00:00:00	2024-11-08T17:00:00	8	Radiación solar	84
141953	7	Sololá	713	San Lucas Tolimán	10	San Lucas Tolimán	8	Agosto	2023-08-16T00:00:00	2024-11-08T18:00:00	2	Temperatura media	19.9
141954	7	Sololá	713	San Lucas Tolimán	10	San Lucas Tolimán	8	Agosto	2023-08-16T00:00:00	2024-11-08T18:00:00	4	Temperatura máxima	19.9
141955	7	Sololá	713	San Lucas Tolimán	10	San Lucas Tolimán	8	Agosto	2023-08-16T00:00:00	2024-11-08T18:00:00	3	Temperatura mínima	19.6
141956	7	Sololá	713	San Lucas Tolimán	10	San Lucas Tolimán	8	Agosto	2023-08-16T00:00:00	2024-11-08T18:00:00	5	Humedad	60
141957	7	Sololá	713	San Lucas Tolimán	10	San Lucas Tolimán	8	Agosto	2023-08-16T00:00:00	2024-11-08T18:00:00	6	Velocidad del viento	6.4
141958	7	Sololá	713	San Lucas Tolimán	10	San Lucas Tolimán	8	Agosto	2023-08-16T00:00:00	2024-11-08T18:00:00	7	Dirección del viento	6.44
141959	7	Sololá	713	San Lucas Tolimán	10	San Lucas Tolimán	8	Agosto	2023-08-16T00:00:00	2024-11-08T18:00:00	1	Precipitación	0
141960	7	Sololá	713	San Lucas Tolimán	10	San Lucas Tolimán	8	Agosto	2023-08-16T00:00:00	2024-11-08T18:00:00	8	Radiación solar	45
141961	7	Sololá	713	San Lucas Tolimán	10	San Lucas Tolimán	8	Agosto	2023-08-16T00:00:00	2024-11-08T19:00:00	2	Temperatura media	19.3
141962	7	Sololá	713	San Lucas Tolimán	10	San Lucas Tolimán	8	Agosto	2023-08-16T00:00:00	2024-11-08T19:00:00	4	Temperatura máxima	19.9
141963	7	Sololá	713	San Lucas Tolimán	10	San Lucas Tolimán	8	Agosto	2023-08-16T00:00:00	2024-11-08T19:00:00	3	Temperatura mínima	19.3
141964	7	Sololá	713	San Lucas Tolimán	10	San Lucas Tolimán	8	Agosto	2023-08-16T00:00:00	2024-11-08T19:00:00	5	Humedad	61
141965	7	Sololá	713	San Lucas Tolimán	10	San Lucas Tolimán	8	Agosto	2023-08-16T00:00:00	2024-11-08T19:00:00	6	Velocidad del viento	4.8
141966	7	Sololá	713	San Lucas Tolimán	10	San Lucas Tolimán	8	Agosto	2023-08-16T00:00:00	2024-11-08T19:00:00	7	Dirección del viento	4.83
141967	7	Sololá	713	San Lucas Tolimán	10	San Lucas Tolimán	8	Agosto	2023-08-16T00:00:00	2024-11-08T19:00:00	1	Precipitación	0
141968	7	Sololá	713	San Lucas Tolimán	10	San Lucas Tolimán	8	Agosto	2023-08-16T00:00:00	2024-11-08T19:00:00	8	Radiación solar	0
141969	7	Sololá	713	San Lucas Tolimán	10	San Lucas Tolimán	8	Agosto	2023-08-16T00:00:00	2024-11-08T20:00:00	2	Temperatura media	19.1
141970	7	Sololá	713	San Lucas Tolimán	10	San Lucas Tolimán	8	Agosto	2023-08-16T00:00:00	2024-11-08T20:00:00	4	Temperatura máxima	19.3
141971	7	Sololá	713	San Lucas Tolimán	10	San Lucas Tolimán	8	Agosto	2023-08-16T00:00:00	2024-11-08T20:00:00	3	Temperatura mínima	19
141972	7	Sololá	713	San Lucas Tolimán	10	San Lucas Tolimán	8	Agosto	2023-08-16T00:00:00	2024-11-08T20:00:00	5	Humedad	60
141973	7	Sololá	713	San Lucas Tolimán	10	San Lucas Tolimán	8	Agosto	2023-08-16T00:00:00	2024-11-08T20:00:00	6	Velocidad del viento	0
141974	7	Sololá	713	San Lucas Tolimán	10	San Lucas Tolimán	8	Agosto	2023-08-16T00:00:00	2024-11-08T20:00:00	7	Dirección del viento	0
141975	7	Sololá	713	San Lucas Tolimán	10	San Lucas Tolimán	8	Agosto	2023-08-16T00:00:00	2024-11-08T20:00:00	1	Precipitación	0
141976	7	Sololá	713	San Lucas Tolimán	10	San Lucas Tolimán	8	Agosto	2023-08-16T00:00:00	2024-11-08T20:00:00	8	Radiación solar	0
141977	7	Sololá	713	San Lucas Tolimán	10	San Lucas Tolimán	8	Agosto	2023-08-16T00:00:00	2024-11-08T21:00:00	2	Temperatura media	18.8
141978	7	Sololá	713	San Lucas Tolimán	10	San Lucas Tolimán	8	Agosto	2023-08-16T00:00:00	2024-11-08T21:00:00	4	Temperatura máxima	19.1
141979	7	Sololá	713	San Lucas Tolimán	10	San Lucas Tolimán	8	Agosto	2023-08-16T00:00:00	2024-11-08T21:00:00	3	Temperatura mínima	18.8
141980	7	Sololá	713	San Lucas Tolimán	10	San Lucas Tolimán	8	Agosto	2023-08-16T00:00:00	2024-11-08T21:00:00	5	Humedad	60
141981	7	Sololá	713	San Lucas Tolimán	10	San Lucas Tolimán	8	Agosto	2023-08-16T00:00:00	2024-11-08T21:00:00	6	Velocidad del viento	1.6
141982	7	Sololá	713	San Lucas Tolimán	10	San Lucas Tolimán	8	Agosto	2023-08-16T00:00:00	2024-11-08T21:00:00	7	Dirección del viento	1.61
141983	7	Sololá	713	San Lucas Tolimán	10	San Lucas Tolimán	8	Agosto	2023-08-16T00:00:00	2024-11-08T21:00:00	1	Precipitación	0
141984	7	Sololá	713	San Lucas Tolimán	10	San Lucas Tolimán	8	Agosto	2023-08-16T00:00:00	2024-11-08T21:00:00	8	Radiación solar	0
141985	7	Sololá	713	San Lucas Tolimán	10	San Lucas Tolimán	8	Agosto	2023-08-16T00:00:00	2024-11-08T22:00:00	2	Temperatura media	18.9
141986	7	Sololá	713	San Lucas Tolimán	10	San Lucas Tolimán	8	Agosto	2023-08-16T00:00:00	2024-11-08T22:00:00	4	Temperatura máxima	18.9
141987	7	Sololá	713	San Lucas Tolimán	10	San Lucas Tolimán	8	Agosto	2023-08-16T00:00:00	2024-11-08T22:00:00	3	Temperatura mínima	18.3
141988	7	Sololá	713	San Lucas Tolimán	10	San Lucas Tolimán	8	Agosto	2023-08-16T00:00:00	2024-11-08T22:00:00	5	Humedad	56
141989	7	Sololá	713	San Lucas Tolimán	10	San Lucas Tolimán	8	Agosto	2023-08-16T00:00:00	2024-11-08T22:00:00	6	Velocidad del viento	3.2
141990	7	Sololá	713	San Lucas Tolimán	10	San Lucas Tolimán	8	Agosto	2023-08-16T00:00:00	2024-11-08T22:00:00	7	Dirección del viento	3.22
141991	7	Sololá	713	San Lucas Tolimán	10	San Lucas Tolimán	8	Agosto	2023-08-16T00:00:00	2024-11-08T22:00:00	1	Precipitación	0
141992	7	Sololá	713	San Lucas Tolimán	10	San Lucas Tolimán	8	Agosto	2023-08-16T00:00:00	2024-11-08T22:00:00	8	Radiación solar	0
141993	7	Sololá	713	San Lucas Tolimán	10	San Lucas Tolimán	8	Agosto	2023-08-16T00:00:00	2024-11-08T23:00:00	2	Temperatura media	19.5
141994	7	Sololá	713	San Lucas Tolimán	10	San Lucas Tolimán	8	Agosto	2023-08-16T00:00:00	2024-11-08T23:00:00	4	Temperatura máxima	19.8
141995	7	Sololá	713	San Lucas Tolimán	10	San Lucas Tolimán	8	Agosto	2023-08-16T00:00:00	2024-11-08T23:00:00	3	Temperatura mínima	18.8
141996	7	Sololá	713	San Lucas Tolimán	10	San Lucas Tolimán	8	Agosto	2023-08-16T00:00:00	2024-11-08T23:00:00	5	Humedad	57
141997	7	Sololá	713	San Lucas Tolimán	10	San Lucas Tolimán	8	Agosto	2023-08-16T00:00:00	2024-11-08T23:00:00	6	Velocidad del viento	3.2
141998	7	Sololá	713	San Lucas Tolimán	10	San Lucas Tolimán	8	Agosto	2023-08-16T00:00:00	2024-11-08T23:00:00	7	Dirección del viento	3.22
141999	7	Sololá	713	San Lucas Tolimán	10	San Lucas Tolimán	8	Agosto	2023-08-16T00:00:00	2024-11-08T23:00:00	1	Precipitación	0
142000	7	Sololá	713	San Lucas Tolimán	10	San Lucas Tolimán	8	Agosto	2023-08-16T00:00:00	2024-11-08T23:00:00	8	Radiación solar	0
142001	7	Sololá	713	San Lucas Tolimán	10	San Lucas Tolimán	8	Agosto	2023-08-17T00:00:00	2024-11-08T00:00:00	2	Temperatura media	19.6
142002	7	Sololá	713	San Lucas Tolimán	10	San Lucas Tolimán	8	Agosto	2023-08-17T00:00:00	2024-11-08T00:00:00	4	Temperatura máxima	19.8
142003	7	Sololá	713	San Lucas Tolimán	10	San Lucas Tolimán	8	Agosto	2023-08-17T00:00:00	2024-11-08T00:00:00	3	Temperatura mínima	18.9
142004	7	Sololá	713	San Lucas Tolimán	10	San Lucas Tolimán	8	Agosto	2023-08-17T00:00:00	2024-11-08T00:00:00	5	Humedad	56
142005	7	Sololá	713	San Lucas Tolimán	10	San Lucas Tolimán	8	Agosto	2023-08-17T00:00:00	2024-11-08T00:00:00	6	Velocidad del viento	3.2
142006	7	Sololá	713	San Lucas Tolimán	10	San Lucas Tolimán	8	Agosto	2023-08-17T00:00:00	2024-11-08T00:00:00	7	Dirección del viento	3.22
142007	7	Sololá	713	San Lucas Tolimán	10	San Lucas Tolimán	8	Agosto	2023-08-17T00:00:00	2024-11-08T00:00:00	1	Precipitación	0
142008	7	Sololá	713	San Lucas Tolimán	10	San Lucas Tolimán	8	Agosto	2023-08-17T00:00:00	2024-11-08T00:00:00	8	Radiación solar	0
142009	7	Sololá	713	San Lucas Tolimán	10	San Lucas Tolimán	8	Agosto	2023-08-17T00:00:00	2024-11-08T01:00:00	2	Temperatura media	18.2
142010	7	Sololá	713	San Lucas Tolimán	10	San Lucas Tolimán	8	Agosto	2023-08-17T00:00:00	2024-11-08T01:00:00	4	Temperatura máxima	19.6
142011	7	Sololá	713	San Lucas Tolimán	10	San Lucas Tolimán	8	Agosto	2023-08-17T00:00:00	2024-11-08T01:00:00	3	Temperatura mínima	18.2
142012	7	Sololá	713	San Lucas Tolimán	10	San Lucas Tolimán	8	Agosto	2023-08-17T00:00:00	2024-11-08T01:00:00	5	Humedad	61
142013	7	Sololá	713	San Lucas Tolimán	10	San Lucas Tolimán	8	Agosto	2023-08-17T00:00:00	2024-11-08T01:00:00	6	Velocidad del viento	1.6
142014	7	Sololá	713	San Lucas Tolimán	10	San Lucas Tolimán	8	Agosto	2023-08-17T00:00:00	2024-11-08T01:00:00	7	Dirección del viento	1.61
142015	7	Sololá	713	San Lucas Tolimán	10	San Lucas Tolimán	8	Agosto	2023-08-17T00:00:00	2024-11-08T01:00:00	1	Precipitación	0
142016	7	Sololá	713	San Lucas Tolimán	10	San Lucas Tolimán	8	Agosto	2023-08-17T00:00:00	2024-11-08T01:00:00	8	Radiación solar	0
142017	7	Sololá	713	San Lucas Tolimán	10	San Lucas Tolimán	8	Agosto	2023-08-17T00:00:00	2024-11-08T02:00:00	2	Temperatura media	17.5
142018	7	Sololá	713	San Lucas Tolimán	10	San Lucas Tolimán	8	Agosto	2023-08-17T00:00:00	2024-11-08T02:00:00	4	Temperatura máxima	18.2
142019	7	Sololá	713	San Lucas Tolimán	10	San Lucas Tolimán	8	Agosto	2023-08-17T00:00:00	2024-11-08T02:00:00	3	Temperatura mínima	17.5
142020	7	Sololá	713	San Lucas Tolimán	10	San Lucas Tolimán	8	Agosto	2023-08-17T00:00:00	2024-11-08T02:00:00	5	Humedad	62
142021	7	Sololá	713	San Lucas Tolimán	10	San Lucas Tolimán	8	Agosto	2023-08-17T00:00:00	2024-11-08T02:00:00	6	Velocidad del viento	0
142022	7	Sololá	713	San Lucas Tolimán	10	San Lucas Tolimán	8	Agosto	2023-08-17T00:00:00	2024-11-08T02:00:00	7	Dirección del viento	0
142023	7	Sololá	713	San Lucas Tolimán	10	San Lucas Tolimán	8	Agosto	2023-08-17T00:00:00	2024-11-08T02:00:00	1	Precipitación	0
142024	7	Sololá	713	San Lucas Tolimán	10	San Lucas Tolimán	8	Agosto	2023-08-17T00:00:00	2024-11-08T02:00:00	8	Radiación solar	0
142025	7	Sololá	713	San Lucas Tolimán	10	San Lucas Tolimán	8	Agosto	2023-08-17T00:00:00	2024-11-08T03:00:00	2	Temperatura media	16.8
142026	7	Sololá	713	San Lucas Tolimán	10	San Lucas Tolimán	8	Agosto	2023-08-17T00:00:00	2024-11-08T03:00:00	4	Temperatura máxima	17.5
142027	7	Sololá	713	San Lucas Tolimán	10	San Lucas Tolimán	8	Agosto	2023-08-17T00:00:00	2024-11-08T03:00:00	3	Temperatura mínima	16.7
142028	7	Sololá	713	San Lucas Tolimán	10	San Lucas Tolimán	8	Agosto	2023-08-17T00:00:00	2024-11-08T03:00:00	5	Humedad	60
142029	7	Sololá	713	San Lucas Tolimán	10	San Lucas Tolimán	8	Agosto	2023-08-17T00:00:00	2024-11-08T03:00:00	6	Velocidad del viento	0
142030	7	Sololá	713	San Lucas Tolimán	10	San Lucas Tolimán	8	Agosto	2023-08-17T00:00:00	2024-11-08T03:00:00	7	Dirección del viento	0
142031	7	Sololá	713	San Lucas Tolimán	10	San Lucas Tolimán	8	Agosto	2023-08-17T00:00:00	2024-11-08T03:00:00	1	Precipitación	0
142032	7	Sololá	713	San Lucas Tolimán	10	San Lucas Tolimán	8	Agosto	2023-08-17T00:00:00	2024-11-08T03:00:00	8	Radiación solar	0
142033	7	Sololá	713	San Lucas Tolimán	10	San Lucas Tolimán	8	Agosto	2023-08-17T00:00:00	2024-11-08T04:00:00	2	Temperatura media	17.1
142034	7	Sololá	713	San Lucas Tolimán	10	San Lucas Tolimán	8	Agosto	2023-08-17T00:00:00	2024-11-08T04:00:00	4	Temperatura máxima	17.6
142035	7	Sololá	713	San Lucas Tolimán	10	San Lucas Tolimán	8	Agosto	2023-08-17T00:00:00	2024-11-08T04:00:00	3	Temperatura mínima	16.8
142036	7	Sololá	713	San Lucas Tolimán	10	San Lucas Tolimán	8	Agosto	2023-08-17T00:00:00	2024-11-08T04:00:00	5	Humedad	59
142037	7	Sololá	713	San Lucas Tolimán	10	San Lucas Tolimán	8	Agosto	2023-08-17T00:00:00	2024-11-08T04:00:00	6	Velocidad del viento	0
142038	7	Sololá	713	San Lucas Tolimán	10	San Lucas Tolimán	8	Agosto	2023-08-17T00:00:00	2024-11-08T04:00:00	7	Dirección del viento	0
142039	7	Sololá	713	San Lucas Tolimán	10	San Lucas Tolimán	8	Agosto	2023-08-17T00:00:00	2024-11-08T04:00:00	1	Precipitación	0
142040	7	Sololá	713	San Lucas Tolimán	10	San Lucas Tolimán	8	Agosto	2023-08-17T00:00:00	2024-11-08T04:00:00	8	Radiación solar	0
142041	7	Sololá	713	San Lucas Tolimán	10	San Lucas Tolimán	8	Agosto	2023-08-17T00:00:00	2024-11-08T05:00:00	2	Temperatura media	16.8
142042	7	Sololá	713	San Lucas Tolimán	10	San Lucas Tolimán	8	Agosto	2023-08-17T00:00:00	2024-11-08T05:00:00	4	Temperatura máxima	17.1
142043	7	Sololá	713	San Lucas Tolimán	10	San Lucas Tolimán	8	Agosto	2023-08-17T00:00:00	2024-11-08T05:00:00	3	Temperatura mínima	16.7
142044	7	Sololá	713	San Lucas Tolimán	10	San Lucas Tolimán	8	Agosto	2023-08-17T00:00:00	2024-11-08T05:00:00	5	Humedad	59
142045	7	Sololá	713	San Lucas Tolimán	10	San Lucas Tolimán	8	Agosto	2023-08-17T00:00:00	2024-11-08T05:00:00	6	Velocidad del viento	0
142046	7	Sololá	713	San Lucas Tolimán	10	San Lucas Tolimán	8	Agosto	2023-08-17T00:00:00	2024-11-08T05:00:00	7	Dirección del viento	0
142047	7	Sololá	713	San Lucas Tolimán	10	San Lucas Tolimán	8	Agosto	2023-08-17T00:00:00	2024-11-08T05:00:00	1	Precipitación	0
142048	7	Sololá	713	San Lucas Tolimán	10	San Lucas Tolimán	8	Agosto	2023-08-17T00:00:00	2024-11-08T05:00:00	8	Radiación solar	0
142049	7	Sololá	713	San Lucas Tolimán	10	San Lucas Tolimán	8	Agosto	2023-08-17T00:00:00	2024-11-08T06:00:00	2	Temperatura media	15.6
142050	7	Sololá	713	San Lucas Tolimán	10	San Lucas Tolimán	8	Agosto	2023-08-17T00:00:00	2024-11-08T06:00:00	4	Temperatura máxima	16.8
142051	7	Sololá	713	San Lucas Tolimán	10	San Lucas Tolimán	8	Agosto	2023-08-17T00:00:00	2024-11-08T06:00:00	3	Temperatura mínima	15.6
142052	7	Sololá	713	San Lucas Tolimán	10	San Lucas Tolimán	8	Agosto	2023-08-17T00:00:00	2024-11-08T06:00:00	5	Humedad	62
142053	7	Sololá	713	San Lucas Tolimán	10	San Lucas Tolimán	8	Agosto	2023-08-17T00:00:00	2024-11-08T06:00:00	6	Velocidad del viento	1.6
142054	7	Sololá	713	San Lucas Tolimán	10	San Lucas Tolimán	8	Agosto	2023-08-17T00:00:00	2024-11-08T06:00:00	7	Dirección del viento	1.61
142055	7	Sololá	713	San Lucas Tolimán	10	San Lucas Tolimán	8	Agosto	2023-08-17T00:00:00	2024-11-08T06:00:00	1	Precipitación	0
142056	7	Sololá	713	San Lucas Tolimán	10	San Lucas Tolimán	8	Agosto	2023-08-17T00:00:00	2024-11-08T06:00:00	8	Radiación solar	0
142057	7	Sololá	713	San Lucas Tolimán	10	San Lucas Tolimán	8	Agosto	2023-08-17T00:00:00	2024-11-08T07:00:00	2	Temperatura media	18.3
142058	7	Sololá	713	San Lucas Tolimán	10	San Lucas Tolimán	8	Agosto	2023-08-17T00:00:00	2024-11-08T07:00:00	4	Temperatura máxima	18.3
142059	7	Sololá	713	San Lucas Tolimán	10	San Lucas Tolimán	8	Agosto	2023-08-17T00:00:00	2024-11-08T07:00:00	3	Temperatura mínima	15.4
142060	7	Sololá	713	San Lucas Tolimán	10	San Lucas Tolimán	8	Agosto	2023-08-17T00:00:00	2024-11-08T07:00:00	5	Humedad	56
142061	7	Sololá	713	San Lucas Tolimán	10	San Lucas Tolimán	8	Agosto	2023-08-17T00:00:00	2024-11-08T07:00:00	6	Velocidad del viento	1.6
142062	7	Sololá	713	San Lucas Tolimán	10	San Lucas Tolimán	8	Agosto	2023-08-17T00:00:00	2024-11-08T07:00:00	7	Dirección del viento	1.61
142063	7	Sololá	713	San Lucas Tolimán	10	San Lucas Tolimán	8	Agosto	2023-08-17T00:00:00	2024-11-08T07:00:00	1	Precipitación	0
142064	7	Sololá	713	San Lucas Tolimán	10	San Lucas Tolimán	8	Agosto	2023-08-17T00:00:00	2024-11-08T07:00:00	8	Radiación solar	48
142065	7	Sololá	713	San Lucas Tolimán	10	San Lucas Tolimán	8	Agosto	2023-08-17T00:00:00	2024-11-08T08:00:00	2	Temperatura media	20.8
142066	7	Sololá	713	San Lucas Tolimán	10	San Lucas Tolimán	8	Agosto	2023-08-17T00:00:00	2024-11-08T08:00:00	4	Temperatura máxima	20.8
142067	7	Sololá	713	San Lucas Tolimán	10	San Lucas Tolimán	8	Agosto	2023-08-17T00:00:00	2024-11-08T08:00:00	3	Temperatura mínima	18.3
142068	7	Sololá	713	San Lucas Tolimán	10	San Lucas Tolimán	8	Agosto	2023-08-17T00:00:00	2024-11-08T08:00:00	5	Humedad	55
142069	7	Sololá	713	San Lucas Tolimán	10	San Lucas Tolimán	8	Agosto	2023-08-17T00:00:00	2024-11-08T08:00:00	6	Velocidad del viento	3.2
142070	7	Sololá	713	San Lucas Tolimán	10	San Lucas Tolimán	8	Agosto	2023-08-17T00:00:00	2024-11-08T08:00:00	7	Dirección del viento	3.22
142071	7	Sololá	713	San Lucas Tolimán	10	San Lucas Tolimán	8	Agosto	2023-08-17T00:00:00	2024-11-08T08:00:00	1	Precipitación	0
142072	7	Sololá	713	San Lucas Tolimán	10	San Lucas Tolimán	8	Agosto	2023-08-17T00:00:00	2024-11-08T08:00:00	8	Radiación solar	299
142073	7	Sololá	713	San Lucas Tolimán	10	San Lucas Tolimán	8	Agosto	2023-08-17T00:00:00	2024-11-08T09:00:00	2	Temperatura media	22.4
142074	7	Sololá	713	San Lucas Tolimán	10	San Lucas Tolimán	8	Agosto	2023-08-17T00:00:00	2024-11-08T09:00:00	4	Temperatura máxima	22.5
142075	7	Sololá	713	San Lucas Tolimán	10	San Lucas Tolimán	8	Agosto	2023-08-17T00:00:00	2024-11-08T09:00:00	3	Temperatura mínima	20.8
142076	7	Sololá	713	San Lucas Tolimán	10	San Lucas Tolimán	8	Agosto	2023-08-17T00:00:00	2024-11-08T09:00:00	5	Humedad	51
142077	7	Sololá	713	San Lucas Tolimán	10	San Lucas Tolimán	8	Agosto	2023-08-17T00:00:00	2024-11-08T09:00:00	6	Velocidad del viento	3.2
142078	7	Sololá	713	San Lucas Tolimán	10	San Lucas Tolimán	8	Agosto	2023-08-17T00:00:00	2024-11-08T09:00:00	7	Dirección del viento	3.22
142079	7	Sololá	713	San Lucas Tolimán	10	San Lucas Tolimán	8	Agosto	2023-08-17T00:00:00	2024-11-08T09:00:00	1	Precipitación	0
142080	7	Sololá	713	San Lucas Tolimán	10	San Lucas Tolimán	8	Agosto	2023-08-17T00:00:00	2024-11-08T09:00:00	8	Radiación solar	478
142081	7	Sololá	713	San Lucas Tolimán	10	San Lucas Tolimán	8	Agosto	2023-08-17T00:00:00	2024-11-08T10:00:00	2	Temperatura media	24.5
142082	7	Sololá	713	San Lucas Tolimán	10	San Lucas Tolimán	8	Agosto	2023-08-17T00:00:00	2024-11-08T10:00:00	4	Temperatura máxima	24.5
142083	7	Sololá	713	San Lucas Tolimán	10	San Lucas Tolimán	8	Agosto	2023-08-17T00:00:00	2024-11-08T10:00:00	3	Temperatura mínima	22.5
142084	7	Sololá	713	San Lucas Tolimán	10	San Lucas Tolimán	8	Agosto	2023-08-17T00:00:00	2024-11-08T10:00:00	5	Humedad	45
142085	7	Sololá	713	San Lucas Tolimán	10	San Lucas Tolimán	8	Agosto	2023-08-17T00:00:00	2024-11-08T10:00:00	6	Velocidad del viento	4.8
142086	7	Sololá	713	San Lucas Tolimán	10	San Lucas Tolimán	8	Agosto	2023-08-17T00:00:00	2024-11-08T10:00:00	7	Dirección del viento	4.83
142087	7	Sololá	713	San Lucas Tolimán	10	San Lucas Tolimán	8	Agosto	2023-08-17T00:00:00	2024-11-08T10:00:00	1	Precipitación	0
142088	7	Sololá	713	San Lucas Tolimán	10	San Lucas Tolimán	8	Agosto	2023-08-17T00:00:00	2024-11-08T10:00:00	8	Radiación solar	817
142089	7	Sololá	713	San Lucas Tolimán	10	San Lucas Tolimán	8	Agosto	2023-08-17T00:00:00	2024-11-08T11:00:00	2	Temperatura media	25.6
142090	7	Sololá	713	San Lucas Tolimán	10	San Lucas Tolimán	8	Agosto	2023-08-17T00:00:00	2024-11-08T11:00:00	4	Temperatura máxima	25.6
142091	7	Sololá	713	San Lucas Tolimán	10	San Lucas Tolimán	8	Agosto	2023-08-17T00:00:00	2024-11-08T11:00:00	3	Temperatura mínima	24.4
142092	7	Sololá	713	San Lucas Tolimán	10	San Lucas Tolimán	8	Agosto	2023-08-17T00:00:00	2024-11-08T11:00:00	5	Humedad	39
142093	7	Sololá	713	San Lucas Tolimán	10	San Lucas Tolimán	8	Agosto	2023-08-17T00:00:00	2024-11-08T11:00:00	6	Velocidad del viento	9.7
142094	7	Sololá	713	San Lucas Tolimán	10	San Lucas Tolimán	8	Agosto	2023-08-17T00:00:00	2024-11-08T11:00:00	7	Dirección del viento	9.66
142095	7	Sololá	713	San Lucas Tolimán	10	San Lucas Tolimán	8	Agosto	2023-08-17T00:00:00	2024-11-08T11:00:00	1	Precipitación	0
142096	7	Sololá	713	San Lucas Tolimán	10	San Lucas Tolimán	8	Agosto	2023-08-17T00:00:00	2024-11-08T11:00:00	8	Radiación solar	977
142097	7	Sololá	713	San Lucas Tolimán	10	San Lucas Tolimán	8	Agosto	2023-08-17T00:00:00	2024-11-08T12:00:00	2	Temperatura media	24.4
142098	7	Sololá	713	San Lucas Tolimán	10	San Lucas Tolimán	8	Agosto	2023-08-17T00:00:00	2024-11-08T12:00:00	4	Temperatura máxima	25.7
142099	7	Sololá	713	San Lucas Tolimán	10	San Lucas Tolimán	8	Agosto	2023-08-17T00:00:00	2024-11-08T12:00:00	3	Temperatura mínima	23.6
142100	7	Sololá	713	San Lucas Tolimán	10	San Lucas Tolimán	8	Agosto	2023-08-17T00:00:00	2024-11-08T12:00:00	5	Humedad	57
142101	7	Sololá	713	San Lucas Tolimán	10	San Lucas Tolimán	8	Agosto	2023-08-17T00:00:00	2024-11-08T12:00:00	6	Velocidad del viento	9.7
142102	7	Sololá	713	San Lucas Tolimán	10	San Lucas Tolimán	8	Agosto	2023-08-17T00:00:00	2024-11-08T12:00:00	7	Dirección del viento	9.66
142103	7	Sololá	713	San Lucas Tolimán	10	San Lucas Tolimán	8	Agosto	2023-08-17T00:00:00	2024-11-08T12:00:00	1	Precipitación	0
142104	7	Sololá	713	San Lucas Tolimán	10	San Lucas Tolimán	8	Agosto	2023-08-17T00:00:00	2024-11-08T12:00:00	8	Radiación solar	948
142105	7	Sololá	713	San Lucas Tolimán	10	San Lucas Tolimán	8	Agosto	2023-08-17T00:00:00	2024-11-08T13:00:00	2	Temperatura media	22.3
142106	7	Sololá	713	San Lucas Tolimán	10	San Lucas Tolimán	8	Agosto	2023-08-17T00:00:00	2024-11-08T13:00:00	4	Temperatura máxima	24.4
142107	7	Sololá	713	San Lucas Tolimán	10	San Lucas Tolimán	8	Agosto	2023-08-17T00:00:00	2024-11-08T13:00:00	3	Temperatura mínima	22.3
142108	7	Sololá	713	San Lucas Tolimán	10	San Lucas Tolimán	8	Agosto	2023-08-17T00:00:00	2024-11-08T13:00:00	5	Humedad	61
142109	7	Sololá	713	San Lucas Tolimán	10	San Lucas Tolimán	8	Agosto	2023-08-17T00:00:00	2024-11-08T13:00:00	6	Velocidad del viento	11.3
142110	7	Sololá	713	San Lucas Tolimán	10	San Lucas Tolimán	8	Agosto	2023-08-17T00:00:00	2024-11-08T13:00:00	7	Dirección del viento	11.27
142111	7	Sololá	713	San Lucas Tolimán	10	San Lucas Tolimán	8	Agosto	2023-08-17T00:00:00	2024-11-08T13:00:00	1	Precipitación	0
142112	7	Sololá	713	San Lucas Tolimán	10	San Lucas Tolimán	8	Agosto	2023-08-17T00:00:00	2024-11-08T13:00:00	8	Radiación solar	639
142113	7	Sololá	713	San Lucas Tolimán	10	San Lucas Tolimán	8	Agosto	2023-08-17T00:00:00	2024-11-08T14:00:00	2	Temperatura media	23
142114	7	Sololá	713	San Lucas Tolimán	10	San Lucas Tolimán	8	Agosto	2023-08-17T00:00:00	2024-11-08T14:00:00	4	Temperatura máxima	23.1
142115	7	Sololá	713	San Lucas Tolimán	10	San Lucas Tolimán	8	Agosto	2023-08-17T00:00:00	2024-11-08T14:00:00	3	Temperatura mínima	22
142116	7	Sololá	713	San Lucas Tolimán	10	San Lucas Tolimán	8	Agosto	2023-08-17T00:00:00	2024-11-08T14:00:00	5	Humedad	59
142117	7	Sololá	713	San Lucas Tolimán	10	San Lucas Tolimán	8	Agosto	2023-08-17T00:00:00	2024-11-08T14:00:00	6	Velocidad del viento	12.9
142118	7	Sololá	713	San Lucas Tolimán	10	San Lucas Tolimán	8	Agosto	2023-08-17T00:00:00	2024-11-08T14:00:00	7	Dirección del viento	12.87
142119	7	Sololá	713	San Lucas Tolimán	10	San Lucas Tolimán	8	Agosto	2023-08-17T00:00:00	2024-11-08T14:00:00	1	Precipitación	0
142120	7	Sololá	713	San Lucas Tolimán	10	San Lucas Tolimán	8	Agosto	2023-08-17T00:00:00	2024-11-08T14:00:00	8	Radiación solar	606
142121	7	Sololá	713	San Lucas Tolimán	10	San Lucas Tolimán	8	Agosto	2023-08-17T00:00:00	2024-11-08T15:00:00	2	Temperatura media	23.4
142122	7	Sololá	713	San Lucas Tolimán	10	San Lucas Tolimán	8	Agosto	2023-08-17T00:00:00	2024-11-08T15:00:00	4	Temperatura máxima	23.9
142123	7	Sololá	713	San Lucas Tolimán	10	San Lucas Tolimán	8	Agosto	2023-08-17T00:00:00	2024-11-08T15:00:00	3	Temperatura mínima	22.6
142124	7	Sololá	713	San Lucas Tolimán	10	San Lucas Tolimán	8	Agosto	2023-08-17T00:00:00	2024-11-08T15:00:00	5	Humedad	59
142125	7	Sololá	713	San Lucas Tolimán	10	San Lucas Tolimán	8	Agosto	2023-08-17T00:00:00	2024-11-08T15:00:00	6	Velocidad del viento	11.3
142126	7	Sololá	713	San Lucas Tolimán	10	San Lucas Tolimán	8	Agosto	2023-08-17T00:00:00	2024-11-08T15:00:00	7	Dirección del viento	11.27
142127	7	Sololá	713	San Lucas Tolimán	10	San Lucas Tolimán	8	Agosto	2023-08-17T00:00:00	2024-11-08T15:00:00	1	Precipitación	0
142128	7	Sololá	713	San Lucas Tolimán	10	San Lucas Tolimán	8	Agosto	2023-08-17T00:00:00	2024-11-08T15:00:00	8	Radiación solar	805
142129	7	Sololá	713	San Lucas Tolimán	10	San Lucas Tolimán	8	Agosto	2023-08-17T00:00:00	2024-11-08T16:00:00	2	Temperatura media	22.7
142130	7	Sololá	713	San Lucas Tolimán	10	San Lucas Tolimán	8	Agosto	2023-08-17T00:00:00	2024-11-08T16:00:00	4	Temperatura máxima	23.8
142131	7	Sololá	713	San Lucas Tolimán	10	San Lucas Tolimán	8	Agosto	2023-08-17T00:00:00	2024-11-08T16:00:00	3	Temperatura mínima	22.3
142132	7	Sololá	713	San Lucas Tolimán	10	San Lucas Tolimán	8	Agosto	2023-08-17T00:00:00	2024-11-08T16:00:00	5	Humedad	60
142133	7	Sololá	713	San Lucas Tolimán	10	San Lucas Tolimán	8	Agosto	2023-08-17T00:00:00	2024-11-08T16:00:00	6	Velocidad del viento	11.3
142134	7	Sololá	713	San Lucas Tolimán	10	San Lucas Tolimán	8	Agosto	2023-08-17T00:00:00	2024-11-08T16:00:00	7	Dirección del viento	11.27
142135	7	Sololá	713	San Lucas Tolimán	10	San Lucas Tolimán	8	Agosto	2023-08-17T00:00:00	2024-11-08T16:00:00	1	Precipitación	0
142136	7	Sololá	713	San Lucas Tolimán	10	San Lucas Tolimán	8	Agosto	2023-08-17T00:00:00	2024-11-08T16:00:00	8	Radiación solar	720
142137	7	Sololá	713	San Lucas Tolimán	10	San Lucas Tolimán	8	Agosto	2023-08-17T00:00:00	2024-11-08T17:00:00	2	Temperatura media	22.1
142138	7	Sololá	713	San Lucas Tolimán	10	San Lucas Tolimán	8	Agosto	2023-08-17T00:00:00	2024-11-08T17:00:00	4	Temperatura máxima	23.4
142139	7	Sololá	713	San Lucas Tolimán	10	San Lucas Tolimán	8	Agosto	2023-08-17T00:00:00	2024-11-08T17:00:00	3	Temperatura mínima	22.1
142140	7	Sololá	713	San Lucas Tolimán	10	San Lucas Tolimán	8	Agosto	2023-08-17T00:00:00	2024-11-08T17:00:00	5	Humedad	61
142141	7	Sololá	713	San Lucas Tolimán	10	San Lucas Tolimán	8	Agosto	2023-08-17T00:00:00	2024-11-08T17:00:00	6	Velocidad del viento	11.3
142142	7	Sololá	713	San Lucas Tolimán	10	San Lucas Tolimán	8	Agosto	2023-08-17T00:00:00	2024-11-08T17:00:00	7	Dirección del viento	11.27
142143	7	Sololá	713	San Lucas Tolimán	10	San Lucas Tolimán	8	Agosto	2023-08-17T00:00:00	2024-11-08T17:00:00	1	Precipitación	0
142144	7	Sololá	713	San Lucas Tolimán	10	San Lucas Tolimán	8	Agosto	2023-08-17T00:00:00	2024-11-08T17:00:00	8	Radiación solar	494
142145	7	Sololá	713	San Lucas Tolimán	10	San Lucas Tolimán	8	Agosto	2023-08-17T00:00:00	2024-11-08T18:00:00	2	Temperatura media	20.6
142146	7	Sololá	713	San Lucas Tolimán	10	San Lucas Tolimán	8	Agosto	2023-08-17T00:00:00	2024-11-08T18:00:00	4	Temperatura máxima	22.2
142147	7	Sololá	713	San Lucas Tolimán	10	San Lucas Tolimán	8	Agosto	2023-08-17T00:00:00	2024-11-08T18:00:00	3	Temperatura mínima	20.6
142148	7	Sololá	713	San Lucas Tolimán	10	San Lucas Tolimán	8	Agosto	2023-08-17T00:00:00	2024-11-08T18:00:00	5	Humedad	61
142149	7	Sololá	713	San Lucas Tolimán	10	San Lucas Tolimán	8	Agosto	2023-08-17T00:00:00	2024-11-08T18:00:00	6	Velocidad del viento	9.7
142150	7	Sololá	713	San Lucas Tolimán	10	San Lucas Tolimán	8	Agosto	2023-08-17T00:00:00	2024-11-08T18:00:00	7	Dirección del viento	9.66
142151	7	Sololá	713	San Lucas Tolimán	10	San Lucas Tolimán	8	Agosto	2023-08-17T00:00:00	2024-11-08T18:00:00	1	Precipitación	0
142152	7	Sololá	713	San Lucas Tolimán	10	San Lucas Tolimán	8	Agosto	2023-08-17T00:00:00	2024-11-08T18:00:00	8	Radiación solar	135
142153	7	Sololá	713	San Lucas Tolimán	10	San Lucas Tolimán	8	Agosto	2023-08-17T00:00:00	2024-11-08T19:00:00	2	Temperatura media	20.1
142154	7	Sololá	713	San Lucas Tolimán	10	San Lucas Tolimán	8	Agosto	2023-08-17T00:00:00	2024-11-08T19:00:00	4	Temperatura máxima	20.7
142155	7	Sololá	713	San Lucas Tolimán	10	San Lucas Tolimán	8	Agosto	2023-08-17T00:00:00	2024-11-08T19:00:00	3	Temperatura mínima	20.1
142156	7	Sololá	713	San Lucas Tolimán	10	San Lucas Tolimán	8	Agosto	2023-08-17T00:00:00	2024-11-08T19:00:00	5	Humedad	61
142157	7	Sololá	713	San Lucas Tolimán	10	San Lucas Tolimán	8	Agosto	2023-08-17T00:00:00	2024-11-08T19:00:00	6	Velocidad del viento	6.4
142158	7	Sololá	713	San Lucas Tolimán	10	San Lucas Tolimán	8	Agosto	2023-08-17T00:00:00	2024-11-08T19:00:00	7	Dirección del viento	6.44
142159	7	Sololá	713	San Lucas Tolimán	10	San Lucas Tolimán	8	Agosto	2023-08-17T00:00:00	2024-11-08T19:00:00	1	Precipitación	0
142160	7	Sololá	713	San Lucas Tolimán	10	San Lucas Tolimán	8	Agosto	2023-08-17T00:00:00	2024-11-08T19:00:00	8	Radiación solar	0
142161	7	Sololá	713	San Lucas Tolimán	10	San Lucas Tolimán	8	Agosto	2023-08-17T00:00:00	2024-11-08T20:00:00	2	Temperatura media	20.5
142162	7	Sololá	713	San Lucas Tolimán	10	San Lucas Tolimán	8	Agosto	2023-08-17T00:00:00	2024-11-08T20:00:00	4	Temperatura máxima	20.6
142163	7	Sololá	713	San Lucas Tolimán	10	San Lucas Tolimán	8	Agosto	2023-08-17T00:00:00	2024-11-08T20:00:00	3	Temperatura mínima	19.9
142164	7	Sololá	713	San Lucas Tolimán	10	San Lucas Tolimán	8	Agosto	2023-08-17T00:00:00	2024-11-08T20:00:00	5	Humedad	57
142165	7	Sololá	713	San Lucas Tolimán	10	San Lucas Tolimán	8	Agosto	2023-08-17T00:00:00	2024-11-08T20:00:00	6	Velocidad del viento	1.6
142166	7	Sololá	713	San Lucas Tolimán	10	San Lucas Tolimán	8	Agosto	2023-08-17T00:00:00	2024-11-08T20:00:00	7	Dirección del viento	1.61
142167	7	Sololá	713	San Lucas Tolimán	10	San Lucas Tolimán	8	Agosto	2023-08-17T00:00:00	2024-11-08T20:00:00	1	Precipitación	0
142168	7	Sololá	713	San Lucas Tolimán	10	San Lucas Tolimán	8	Agosto	2023-08-17T00:00:00	2024-11-08T20:00:00	8	Radiación solar	0
142169	7	Sololá	713	San Lucas Tolimán	10	San Lucas Tolimán	8	Agosto	2023-08-17T00:00:00	2024-11-08T21:00:00	2	Temperatura media	21.2
142170	7	Sololá	713	San Lucas Tolimán	10	San Lucas Tolimán	8	Agosto	2023-08-17T00:00:00	2024-11-08T21:00:00	4	Temperatura máxima	21.2
142171	7	Sololá	713	San Lucas Tolimán	10	San Lucas Tolimán	8	Agosto	2023-08-17T00:00:00	2024-11-08T21:00:00	3	Temperatura mínima	20.1
142172	7	Sololá	713	San Lucas Tolimán	10	San Lucas Tolimán	8	Agosto	2023-08-17T00:00:00	2024-11-08T21:00:00	5	Humedad	54
142173	7	Sololá	713	San Lucas Tolimán	10	San Lucas Tolimán	8	Agosto	2023-08-17T00:00:00	2024-11-08T21:00:00	6	Velocidad del viento	4.8
142174	7	Sololá	713	San Lucas Tolimán	10	San Lucas Tolimán	8	Agosto	2023-08-17T00:00:00	2024-11-08T21:00:00	7	Dirección del viento	4.83
142175	7	Sololá	713	San Lucas Tolimán	10	San Lucas Tolimán	8	Agosto	2023-08-17T00:00:00	2024-11-08T21:00:00	1	Precipitación	0
142176	7	Sololá	713	San Lucas Tolimán	10	San Lucas Tolimán	8	Agosto	2023-08-17T00:00:00	2024-11-08T21:00:00	8	Radiación solar	0
142177	7	Sololá	713	San Lucas Tolimán	10	San Lucas Tolimán	8	Agosto	2023-08-17T00:00:00	2024-11-08T22:00:00	2	Temperatura media	20.6
142178	7	Sololá	713	San Lucas Tolimán	10	San Lucas Tolimán	8	Agosto	2023-08-17T00:00:00	2024-11-08T22:00:00	4	Temperatura máxima	21.3
142179	7	Sololá	713	San Lucas Tolimán	10	San Lucas Tolimán	8	Agosto	2023-08-17T00:00:00	2024-11-08T22:00:00	3	Temperatura mínima	20.1
142180	7	Sololá	713	San Lucas Tolimán	10	San Lucas Tolimán	8	Agosto	2023-08-17T00:00:00	2024-11-08T22:00:00	5	Humedad	57
142181	7	Sololá	713	San Lucas Tolimán	10	San Lucas Tolimán	8	Agosto	2023-08-17T00:00:00	2024-11-08T22:00:00	6	Velocidad del viento	4.8
142182	7	Sololá	713	San Lucas Tolimán	10	San Lucas Tolimán	8	Agosto	2023-08-17T00:00:00	2024-11-08T22:00:00	7	Dirección del viento	4.83
142183	7	Sololá	713	San Lucas Tolimán	10	San Lucas Tolimán	8	Agosto	2023-08-17T00:00:00	2024-11-08T22:00:00	1	Precipitación	0
142184	7	Sololá	713	San Lucas Tolimán	10	San Lucas Tolimán	8	Agosto	2023-08-17T00:00:00	2024-11-08T22:00:00	8	Radiación solar	0
142185	7	Sololá	713	San Lucas Tolimán	10	San Lucas Tolimán	8	Agosto	2023-08-17T00:00:00	2024-11-08T23:00:00	2	Temperatura media	19.3
142186	7	Sololá	713	San Lucas Tolimán	10	San Lucas Tolimán	8	Agosto	2023-08-17T00:00:00	2024-11-08T23:00:00	4	Temperatura máxima	20.8
142187	7	Sololá	713	San Lucas Tolimán	10	San Lucas Tolimán	8	Agosto	2023-08-17T00:00:00	2024-11-08T23:00:00	3	Temperatura mínima	19.2
142188	7	Sololá	713	San Lucas Tolimán	10	San Lucas Tolimán	8	Agosto	2023-08-17T00:00:00	2024-11-08T23:00:00	5	Humedad	60
142189	7	Sololá	713	San Lucas Tolimán	10	San Lucas Tolimán	8	Agosto	2023-08-17T00:00:00	2024-11-08T23:00:00	6	Velocidad del viento	4.8
142190	7	Sololá	713	San Lucas Tolimán	10	San Lucas Tolimán	8	Agosto	2023-08-17T00:00:00	2024-11-08T23:00:00	7	Dirección del viento	4.83
142191	7	Sololá	713	San Lucas Tolimán	10	San Lucas Tolimán	8	Agosto	2023-08-17T00:00:00	2024-11-08T23:00:00	1	Precipitación	0
142192	7	Sololá	713	San Lucas Tolimán	10	San Lucas Tolimán	8	Agosto	2023-08-17T00:00:00	2024-11-08T23:00:00	8	Radiación solar	0
142193	7	Sololá	713	San Lucas Tolimán	10	San Lucas Tolimán	8	Agosto	2023-08-18T00:00:00	2024-11-08T00:00:00	2	Temperatura media	20.7
142194	7	Sololá	713	San Lucas Tolimán	10	San Lucas Tolimán	8	Agosto	2023-08-18T00:00:00	2024-11-08T00:00:00	4	Temperatura máxima	20.7
142195	7	Sololá	713	San Lucas Tolimán	10	San Lucas Tolimán	8	Agosto	2023-08-18T00:00:00	2024-11-08T00:00:00	3	Temperatura mínima	19.3
142196	7	Sololá	713	San Lucas Tolimán	10	San Lucas Tolimán	8	Agosto	2023-08-18T00:00:00	2024-11-08T00:00:00	5	Humedad	54
142197	7	Sololá	713	San Lucas Tolimán	10	San Lucas Tolimán	8	Agosto	2023-08-18T00:00:00	2024-11-08T00:00:00	6	Velocidad del viento	8
142198	7	Sololá	713	San Lucas Tolimán	10	San Lucas Tolimán	8	Agosto	2023-08-18T00:00:00	2024-11-08T00:00:00	7	Dirección del viento	8.05
142199	7	Sololá	713	San Lucas Tolimán	10	San Lucas Tolimán	8	Agosto	2023-08-18T00:00:00	2024-11-08T00:00:00	1	Precipitación	0
142200	7	Sololá	713	San Lucas Tolimán	10	San Lucas Tolimán	8	Agosto	2023-08-18T00:00:00	2024-11-08T00:00:00	8	Radiación solar	0
142201	7	Sololá	713	San Lucas Tolimán	10	San Lucas Tolimán	8	Agosto	2023-08-18T00:00:00	2024-11-08T01:00:00	2	Temperatura media	20.3
142202	7	Sololá	713	San Lucas Tolimán	10	San Lucas Tolimán	8	Agosto	2023-08-18T00:00:00	2024-11-08T01:00:00	4	Temperatura máxima	20.8
142203	7	Sololá	713	San Lucas Tolimán	10	San Lucas Tolimán	8	Agosto	2023-08-18T00:00:00	2024-11-08T01:00:00	3	Temperatura mínima	20.3
142204	7	Sololá	713	San Lucas Tolimán	10	San Lucas Tolimán	8	Agosto	2023-08-18T00:00:00	2024-11-08T01:00:00	5	Humedad	55
142205	7	Sololá	713	San Lucas Tolimán	10	San Lucas Tolimán	8	Agosto	2023-08-18T00:00:00	2024-11-08T01:00:00	6	Velocidad del viento	11.3
142206	7	Sololá	713	San Lucas Tolimán	10	San Lucas Tolimán	8	Agosto	2023-08-18T00:00:00	2024-11-08T01:00:00	7	Dirección del viento	11.27
142207	7	Sololá	713	San Lucas Tolimán	10	San Lucas Tolimán	8	Agosto	2023-08-18T00:00:00	2024-11-08T01:00:00	1	Precipitación	0
142208	7	Sololá	713	San Lucas Tolimán	10	San Lucas Tolimán	8	Agosto	2023-08-18T00:00:00	2024-11-08T01:00:00	8	Radiación solar	0
142209	7	Sololá	713	San Lucas Tolimán	10	San Lucas Tolimán	8	Agosto	2023-08-18T00:00:00	2024-11-08T02:00:00	2	Temperatura media	20.8
142210	7	Sololá	713	San Lucas Tolimán	10	San Lucas Tolimán	8	Agosto	2023-08-18T00:00:00	2024-11-08T02:00:00	4	Temperatura máxima	20.8
142211	7	Sololá	713	San Lucas Tolimán	10	San Lucas Tolimán	8	Agosto	2023-08-18T00:00:00	2024-11-08T02:00:00	3	Temperatura mínima	19.6
142212	7	Sololá	713	San Lucas Tolimán	10	San Lucas Tolimán	8	Agosto	2023-08-18T00:00:00	2024-11-08T02:00:00	5	Humedad	54
142213	7	Sololá	713	San Lucas Tolimán	10	San Lucas Tolimán	8	Agosto	2023-08-18T00:00:00	2024-11-08T02:00:00	6	Velocidad del viento	6.4
142214	7	Sololá	713	San Lucas Tolimán	10	San Lucas Tolimán	8	Agosto	2023-08-18T00:00:00	2024-11-08T02:00:00	7	Dirección del viento	6.44
142215	7	Sololá	713	San Lucas Tolimán	10	San Lucas Tolimán	8	Agosto	2023-08-18T00:00:00	2024-11-08T02:00:00	1	Precipitación	0
142216	7	Sololá	713	San Lucas Tolimán	10	San Lucas Tolimán	8	Agosto	2023-08-18T00:00:00	2024-11-08T02:00:00	8	Radiación solar	0
142217	7	Sololá	713	San Lucas Tolimán	10	San Lucas Tolimán	8	Agosto	2023-08-18T00:00:00	2024-11-08T03:00:00	2	Temperatura media	20.4
142218	7	Sololá	713	San Lucas Tolimán	10	San Lucas Tolimán	8	Agosto	2023-08-18T00:00:00	2024-11-08T03:00:00	4	Temperatura máxima	21
142219	7	Sololá	713	San Lucas Tolimán	10	San Lucas Tolimán	8	Agosto	2023-08-18T00:00:00	2024-11-08T03:00:00	3	Temperatura mínima	20.4
142220	7	Sololá	713	San Lucas Tolimán	10	San Lucas Tolimán	8	Agosto	2023-08-18T00:00:00	2024-11-08T03:00:00	5	Humedad	56
142221	7	Sololá	713	San Lucas Tolimán	10	San Lucas Tolimán	8	Agosto	2023-08-18T00:00:00	2024-11-08T03:00:00	6	Velocidad del viento	8
142222	7	Sololá	713	San Lucas Tolimán	10	San Lucas Tolimán	8	Agosto	2023-08-18T00:00:00	2024-11-08T03:00:00	7	Dirección del viento	8.05
142223	7	Sololá	713	San Lucas Tolimán	10	San Lucas Tolimán	8	Agosto	2023-08-18T00:00:00	2024-11-08T03:00:00	1	Precipitación	0
142224	7	Sololá	713	San Lucas Tolimán	10	San Lucas Tolimán	8	Agosto	2023-08-18T00:00:00	2024-11-08T03:00:00	8	Radiación solar	0
142225	7	Sololá	713	San Lucas Tolimán	10	San Lucas Tolimán	8	Agosto	2023-08-18T00:00:00	2024-11-08T04:00:00	2	Temperatura media	20.5
142226	7	Sololá	713	San Lucas Tolimán	10	San Lucas Tolimán	8	Agosto	2023-08-18T00:00:00	2024-11-08T04:00:00	4	Temperatura máxima	20.8
142227	7	Sololá	713	San Lucas Tolimán	10	San Lucas Tolimán	8	Agosto	2023-08-18T00:00:00	2024-11-08T04:00:00	3	Temperatura mínima	20.2
142228	7	Sololá	713	San Lucas Tolimán	10	San Lucas Tolimán	8	Agosto	2023-08-18T00:00:00	2024-11-08T04:00:00	5	Humedad	56
142229	7	Sololá	713	San Lucas Tolimán	10	San Lucas Tolimán	8	Agosto	2023-08-18T00:00:00	2024-11-08T04:00:00	6	Velocidad del viento	6.4
142230	7	Sololá	713	San Lucas Tolimán	10	San Lucas Tolimán	8	Agosto	2023-08-18T00:00:00	2024-11-08T04:00:00	7	Dirección del viento	6.44
142231	7	Sololá	713	San Lucas Tolimán	10	San Lucas Tolimán	8	Agosto	2023-08-18T00:00:00	2024-11-08T04:00:00	1	Precipitación	0
142232	7	Sololá	713	San Lucas Tolimán	10	San Lucas Tolimán	8	Agosto	2023-08-18T00:00:00	2024-11-08T04:00:00	8	Radiación solar	0
142233	7	Sololá	713	San Lucas Tolimán	10	San Lucas Tolimán	8	Agosto	2023-08-18T00:00:00	2024-11-08T05:00:00	2	Temperatura media	19.8
142234	7	Sololá	713	San Lucas Tolimán	10	San Lucas Tolimán	8	Agosto	2023-08-18T00:00:00	2024-11-08T05:00:00	4	Temperatura máxima	20.7
142235	7	Sololá	713	San Lucas Tolimán	10	San Lucas Tolimán	8	Agosto	2023-08-18T00:00:00	2024-11-08T05:00:00	3	Temperatura mínima	19.8
142236	7	Sololá	713	San Lucas Tolimán	10	San Lucas Tolimán	8	Agosto	2023-08-18T00:00:00	2024-11-08T05:00:00	5	Humedad	58
142237	7	Sololá	713	San Lucas Tolimán	10	San Lucas Tolimán	8	Agosto	2023-08-18T00:00:00	2024-11-08T05:00:00	6	Velocidad del viento	3.2
142238	7	Sololá	713	San Lucas Tolimán	10	San Lucas Tolimán	8	Agosto	2023-08-18T00:00:00	2024-11-08T05:00:00	7	Dirección del viento	3.22
142239	7	Sololá	713	San Lucas Tolimán	10	San Lucas Tolimán	8	Agosto	2023-08-18T00:00:00	2024-11-08T05:00:00	1	Precipitación	0
142240	7	Sololá	713	San Lucas Tolimán	10	San Lucas Tolimán	8	Agosto	2023-08-18T00:00:00	2024-11-08T05:00:00	8	Radiación solar	0
142241	7	Sololá	713	San Lucas Tolimán	10	San Lucas Tolimán	8	Agosto	2023-08-18T00:00:00	2024-11-08T06:00:00	2	Temperatura media	18.3
142242	7	Sololá	713	San Lucas Tolimán	10	San Lucas Tolimán	8	Agosto	2023-08-18T00:00:00	2024-11-08T06:00:00	4	Temperatura máxima	20.2
142243	7	Sololá	713	San Lucas Tolimán	10	San Lucas Tolimán	8	Agosto	2023-08-18T00:00:00	2024-11-08T06:00:00	3	Temperatura mínima	18.3
142244	7	Sololá	713	San Lucas Tolimán	10	San Lucas Tolimán	8	Agosto	2023-08-18T00:00:00	2024-11-08T06:00:00	5	Humedad	62
142245	7	Sololá	713	San Lucas Tolimán	10	San Lucas Tolimán	8	Agosto	2023-08-18T00:00:00	2024-11-08T06:00:00	6	Velocidad del viento	1.6
142246	7	Sololá	713	San Lucas Tolimán	10	San Lucas Tolimán	8	Agosto	2023-08-18T00:00:00	2024-11-08T06:00:00	7	Dirección del viento	1.61
142247	7	Sololá	713	San Lucas Tolimán	10	San Lucas Tolimán	8	Agosto	2023-08-18T00:00:00	2024-11-08T06:00:00	1	Precipitación	0
142248	7	Sololá	713	San Lucas Tolimán	10	San Lucas Tolimán	8	Agosto	2023-08-18T00:00:00	2024-11-08T06:00:00	8	Radiación solar	0
142249	7	Sololá	713	San Lucas Tolimán	10	San Lucas Tolimán	8	Agosto	2023-08-18T00:00:00	2024-11-08T07:00:00	2	Temperatura media	18.7
142250	7	Sololá	713	San Lucas Tolimán	10	San Lucas Tolimán	8	Agosto	2023-08-18T00:00:00	2024-11-08T07:00:00	4	Temperatura máxima	18.7
142251	7	Sololá	713	San Lucas Tolimán	10	San Lucas Tolimán	8	Agosto	2023-08-18T00:00:00	2024-11-08T07:00:00	3	Temperatura mínima	17.8
142252	7	Sololá	713	San Lucas Tolimán	10	San Lucas Tolimán	8	Agosto	2023-08-18T00:00:00	2024-11-08T07:00:00	5	Humedad	60
142253	7	Sololá	713	San Lucas Tolimán	10	San Lucas Tolimán	8	Agosto	2023-08-18T00:00:00	2024-11-08T07:00:00	6	Velocidad del viento	1.6
142254	7	Sololá	713	San Lucas Tolimán	10	San Lucas Tolimán	8	Agosto	2023-08-18T00:00:00	2024-11-08T07:00:00	7	Dirección del viento	1.61
142255	7	Sololá	713	San Lucas Tolimán	10	San Lucas Tolimán	8	Agosto	2023-08-18T00:00:00	2024-11-08T07:00:00	1	Precipitación	0
142256	7	Sololá	713	San Lucas Tolimán	10	San Lucas Tolimán	8	Agosto	2023-08-18T00:00:00	2024-11-08T07:00:00	8	Radiación solar	49
142257	7	Sololá	713	San Lucas Tolimán	10	San Lucas Tolimán	8	Agosto	2023-08-18T00:00:00	2024-11-08T08:00:00	2	Temperatura media	21.1
142258	7	Sololá	713	San Lucas Tolimán	10	San Lucas Tolimán	8	Agosto	2023-08-18T00:00:00	2024-11-08T08:00:00	4	Temperatura máxima	21.1
142259	7	Sololá	713	San Lucas Tolimán	10	San Lucas Tolimán	8	Agosto	2023-08-18T00:00:00	2024-11-08T08:00:00	3	Temperatura mínima	18.7
142260	7	Sololá	713	San Lucas Tolimán	10	San Lucas Tolimán	8	Agosto	2023-08-18T00:00:00	2024-11-08T08:00:00	5	Humedad	53
142261	7	Sololá	713	San Lucas Tolimán	10	San Lucas Tolimán	8	Agosto	2023-08-18T00:00:00	2024-11-08T08:00:00	6	Velocidad del viento	4.8
142262	7	Sololá	713	San Lucas Tolimán	10	San Lucas Tolimán	8	Agosto	2023-08-18T00:00:00	2024-11-08T08:00:00	7	Dirección del viento	4.83
142263	7	Sololá	713	San Lucas Tolimán	10	San Lucas Tolimán	8	Agosto	2023-08-18T00:00:00	2024-11-08T08:00:00	1	Precipitación	0
142264	7	Sololá	713	San Lucas Tolimán	10	San Lucas Tolimán	8	Agosto	2023-08-18T00:00:00	2024-11-08T08:00:00	8	Radiación solar	167
142265	7	Sololá	713	San Lucas Tolimán	10	San Lucas Tolimán	8	Agosto	2023-08-18T00:00:00	2024-11-08T09:00:00	2	Temperatura media	22.3
142266	7	Sololá	713	San Lucas Tolimán	10	San Lucas Tolimán	8	Agosto	2023-08-18T00:00:00	2024-11-08T09:00:00	4	Temperatura máxima	22.6
142267	7	Sololá	713	San Lucas Tolimán	10	San Lucas Tolimán	8	Agosto	2023-08-18T00:00:00	2024-11-08T09:00:00	3	Temperatura mínima	21
142268	7	Sololá	713	San Lucas Tolimán	10	San Lucas Tolimán	8	Agosto	2023-08-18T00:00:00	2024-11-08T09:00:00	5	Humedad	53
142269	7	Sololá	713	San Lucas Tolimán	10	San Lucas Tolimán	8	Agosto	2023-08-18T00:00:00	2024-11-08T09:00:00	6	Velocidad del viento	4.8
142270	7	Sololá	713	San Lucas Tolimán	10	San Lucas Tolimán	8	Agosto	2023-08-18T00:00:00	2024-11-08T09:00:00	7	Dirección del viento	4.83
142271	7	Sololá	713	San Lucas Tolimán	10	San Lucas Tolimán	8	Agosto	2023-08-18T00:00:00	2024-11-08T09:00:00	1	Precipitación	0
142272	7	Sololá	713	San Lucas Tolimán	10	San Lucas Tolimán	8	Agosto	2023-08-18T00:00:00	2024-11-08T09:00:00	8	Radiación solar	271
142273	7	Sololá	713	San Lucas Tolimán	10	San Lucas Tolimán	8	Agosto	2023-08-18T00:00:00	2024-11-08T10:00:00	2	Temperatura media	24.7
142274	7	Sololá	713	San Lucas Tolimán	10	San Lucas Tolimán	8	Agosto	2023-08-18T00:00:00	2024-11-08T10:00:00	4	Temperatura máxima	24.8
142275	7	Sololá	713	San Lucas Tolimán	10	San Lucas Tolimán	8	Agosto	2023-08-18T00:00:00	2024-11-08T10:00:00	3	Temperatura mínima	22.3
142276	7	Sololá	713	San Lucas Tolimán	10	San Lucas Tolimán	8	Agosto	2023-08-18T00:00:00	2024-11-08T10:00:00	5	Humedad	45
142277	7	Sololá	713	San Lucas Tolimán	10	San Lucas Tolimán	8	Agosto	2023-08-18T00:00:00	2024-11-08T10:00:00	6	Velocidad del viento	8
142278	7	Sololá	713	San Lucas Tolimán	10	San Lucas Tolimán	8	Agosto	2023-08-18T00:00:00	2024-11-08T10:00:00	7	Dirección del viento	8.05
142279	7	Sololá	713	San Lucas Tolimán	10	San Lucas Tolimán	8	Agosto	2023-08-18T00:00:00	2024-11-08T10:00:00	1	Precipitación	0
142280	7	Sololá	713	San Lucas Tolimán	10	San Lucas Tolimán	8	Agosto	2023-08-18T00:00:00	2024-11-08T10:00:00	8	Radiación solar	890
142281	7	Sololá	713	San Lucas Tolimán	10	San Lucas Tolimán	8	Agosto	2023-08-18T00:00:00	2024-11-08T11:00:00	2	Temperatura media	25.2
142282	7	Sololá	713	San Lucas Tolimán	10	San Lucas Tolimán	8	Agosto	2023-08-18T00:00:00	2024-11-08T11:00:00	4	Temperatura máxima	25.7
142283	7	Sololá	713	San Lucas Tolimán	10	San Lucas Tolimán	8	Agosto	2023-08-18T00:00:00	2024-11-08T11:00:00	3	Temperatura mínima	24.5
142284	7	Sololá	713	San Lucas Tolimán	10	San Lucas Tolimán	8	Agosto	2023-08-18T00:00:00	2024-11-08T11:00:00	5	Humedad	73
142285	7	Sololá	713	San Lucas Tolimán	10	San Lucas Tolimán	8	Agosto	2023-08-18T00:00:00	2024-11-08T11:00:00	6	Velocidad del viento	8
142286	7	Sololá	713	San Lucas Tolimán	10	San Lucas Tolimán	8	Agosto	2023-08-18T00:00:00	2024-11-08T11:00:00	7	Dirección del viento	8.05
142287	7	Sololá	713	San Lucas Tolimán	10	San Lucas Tolimán	8	Agosto	2023-08-18T00:00:00	2024-11-08T11:00:00	1	Precipitación	0
142288	7	Sololá	713	San Lucas Tolimán	10	San Lucas Tolimán	8	Agosto	2023-08-18T00:00:00	2024-11-08T11:00:00	8	Radiación solar	868
142289	7	Sololá	713	San Lucas Tolimán	10	San Lucas Tolimán	8	Agosto	2023-08-18T00:00:00	2024-11-08T12:00:00	2	Temperatura media	24.8
142290	7	Sololá	713	San Lucas Tolimán	10	San Lucas Tolimán	8	Agosto	2023-08-18T00:00:00	2024-11-08T12:00:00	4	Temperatura máxima	25.3
142291	7	Sololá	713	San Lucas Tolimán	10	San Lucas Tolimán	8	Agosto	2023-08-18T00:00:00	2024-11-08T12:00:00	3	Temperatura mínima	24.1
142292	7	Sololá	713	San Lucas Tolimán	10	San Lucas Tolimán	8	Agosto	2023-08-18T00:00:00	2024-11-08T12:00:00	5	Humedad	75
142293	7	Sololá	713	San Lucas Tolimán	10	San Lucas Tolimán	8	Agosto	2023-08-18T00:00:00	2024-11-08T12:00:00	6	Velocidad del viento	11.3
142294	7	Sololá	713	San Lucas Tolimán	10	San Lucas Tolimán	8	Agosto	2023-08-18T00:00:00	2024-11-08T12:00:00	7	Dirección del viento	11.27
142295	7	Sololá	713	San Lucas Tolimán	10	San Lucas Tolimán	8	Agosto	2023-08-18T00:00:00	2024-11-08T12:00:00	1	Precipitación	0
142296	7	Sololá	713	San Lucas Tolimán	10	San Lucas Tolimán	8	Agosto	2023-08-18T00:00:00	2024-11-08T12:00:00	8	Radiación solar	1039
142297	7	Sololá	713	San Lucas Tolimán	10	San Lucas Tolimán	8	Agosto	2023-08-18T00:00:00	2024-11-08T13:00:00	2	Temperatura media	26.5
142298	7	Sololá	713	San Lucas Tolimán	10	San Lucas Tolimán	8	Agosto	2023-08-18T00:00:00	2024-11-08T13:00:00	4	Temperatura máxima	26.8
142299	7	Sololá	713	San Lucas Tolimán	10	San Lucas Tolimán	8	Agosto	2023-08-18T00:00:00	2024-11-08T13:00:00	3	Temperatura mínima	24.8
142300	7	Sololá	713	San Lucas Tolimán	10	San Lucas Tolimán	8	Agosto	2023-08-18T00:00:00	2024-11-08T13:00:00	5	Humedad	70
142301	7	Sololá	713	San Lucas Tolimán	10	San Lucas Tolimán	8	Agosto	2023-08-18T00:00:00	2024-11-08T13:00:00	6	Velocidad del viento	8
142302	7	Sololá	713	San Lucas Tolimán	10	San Lucas Tolimán	8	Agosto	2023-08-18T00:00:00	2024-11-08T13:00:00	7	Dirección del viento	8.05
142303	7	Sololá	713	San Lucas Tolimán	10	San Lucas Tolimán	8	Agosto	2023-08-18T00:00:00	2024-11-08T13:00:00	1	Precipitación	0
142304	7	Sololá	713	San Lucas Tolimán	10	San Lucas Tolimán	8	Agosto	2023-08-18T00:00:00	2024-11-08T13:00:00	8	Radiación solar	1083
142305	7	Sololá	713	San Lucas Tolimán	10	San Lucas Tolimán	8	Agosto	2023-08-18T00:00:00	2024-11-08T14:00:00	2	Temperatura media	25.9
142306	7	Sololá	713	San Lucas Tolimán	10	San Lucas Tolimán	8	Agosto	2023-08-18T00:00:00	2024-11-08T14:00:00	4	Temperatura máxima	26.5
142307	7	Sololá	713	San Lucas Tolimán	10	San Lucas Tolimán	8	Agosto	2023-08-18T00:00:00	2024-11-08T14:00:00	3	Temperatura mínima	25.6
142308	7	Sololá	713	San Lucas Tolimán	10	San Lucas Tolimán	8	Agosto	2023-08-18T00:00:00	2024-11-08T14:00:00	5	Humedad	75
142309	7	Sololá	713	San Lucas Tolimán	10	San Lucas Tolimán	8	Agosto	2023-08-18T00:00:00	2024-11-08T14:00:00	6	Velocidad del viento	11.3
142310	7	Sololá	713	San Lucas Tolimán	10	San Lucas Tolimán	8	Agosto	2023-08-18T00:00:00	2024-11-08T14:00:00	7	Dirección del viento	11.27
142311	7	Sololá	713	San Lucas Tolimán	10	San Lucas Tolimán	8	Agosto	2023-08-18T00:00:00	2024-11-08T14:00:00	1	Precipitación	0
142312	7	Sololá	713	San Lucas Tolimán	10	San Lucas Tolimán	8	Agosto	2023-08-18T00:00:00	2024-11-08T14:00:00	8	Radiación solar	892
142313	7	Sololá	713	San Lucas Tolimán	10	San Lucas Tolimán	8	Agosto	2023-08-18T00:00:00	2024-11-08T15:00:00	2	Temperatura media	22.1
142314	7	Sololá	713	San Lucas Tolimán	10	San Lucas Tolimán	8	Agosto	2023-08-18T00:00:00	2024-11-08T15:00:00	4	Temperatura máxima	26
142315	7	Sololá	713	San Lucas Tolimán	10	San Lucas Tolimán	8	Agosto	2023-08-18T00:00:00	2024-11-08T15:00:00	3	Temperatura mínima	21.9
142316	7	Sololá	713	San Lucas Tolimán	10	San Lucas Tolimán	8	Agosto	2023-08-18T00:00:00	2024-11-08T15:00:00	5	Humedad	61
142317	7	Sololá	713	San Lucas Tolimán	10	San Lucas Tolimán	8	Agosto	2023-08-18T00:00:00	2024-11-08T15:00:00	6	Velocidad del viento	12.9
142318	7	Sololá	713	San Lucas Tolimán	10	San Lucas Tolimán	8	Agosto	2023-08-18T00:00:00	2024-11-08T15:00:00	7	Dirección del viento	12.87
142319	7	Sololá	713	San Lucas Tolimán	10	San Lucas Tolimán	8	Agosto	2023-08-18T00:00:00	2024-11-08T15:00:00	1	Precipitación	0
142320	7	Sololá	713	San Lucas Tolimán	10	San Lucas Tolimán	8	Agosto	2023-08-18T00:00:00	2024-11-08T15:00:00	8	Radiación solar	576
142321	7	Sololá	713	San Lucas Tolimán	10	San Lucas Tolimán	8	Agosto	2023-08-18T00:00:00	2024-11-08T16:00:00	2	Temperatura media	23.7
142322	7	Sololá	713	San Lucas Tolimán	10	San Lucas Tolimán	8	Agosto	2023-08-18T00:00:00	2024-11-08T16:00:00	4	Temperatura máxima	23.7
142323	7	Sololá	713	San Lucas Tolimán	10	San Lucas Tolimán	8	Agosto	2023-08-18T00:00:00	2024-11-08T16:00:00	3	Temperatura mínima	20
142324	7	Sololá	713	San Lucas Tolimán	10	San Lucas Tolimán	8	Agosto	2023-08-18T00:00:00	2024-11-08T16:00:00	5	Humedad	55
142325	7	Sololá	713	San Lucas Tolimán	10	San Lucas Tolimán	8	Agosto	2023-08-18T00:00:00	2024-11-08T16:00:00	6	Velocidad del viento	11.3
142326	7	Sololá	713	San Lucas Tolimán	10	San Lucas Tolimán	8	Agosto	2023-08-18T00:00:00	2024-11-08T16:00:00	7	Dirección del viento	11.27
142327	7	Sololá	713	San Lucas Tolimán	10	San Lucas Tolimán	8	Agosto	2023-08-18T00:00:00	2024-11-08T16:00:00	1	Precipitación	0
142328	7	Sololá	713	San Lucas Tolimán	10	San Lucas Tolimán	8	Agosto	2023-08-18T00:00:00	2024-11-08T16:00:00	8	Radiación solar	480
142329	7	Sololá	713	San Lucas Tolimán	10	San Lucas Tolimán	8	Agosto	2023-08-18T00:00:00	2024-11-08T17:00:00	2	Temperatura media	19.9
142330	7	Sololá	713	San Lucas Tolimán	10	San Lucas Tolimán	8	Agosto	2023-08-18T00:00:00	2024-11-08T17:00:00	4	Temperatura máxima	23.8
142331	7	Sololá	713	San Lucas Tolimán	10	San Lucas Tolimán	8	Agosto	2023-08-18T00:00:00	2024-11-08T17:00:00	3	Temperatura mínima	19.9
142332	7	Sololá	713	San Lucas Tolimán	10	San Lucas Tolimán	8	Agosto	2023-08-18T00:00:00	2024-11-08T17:00:00	5	Humedad	61
142333	7	Sololá	713	San Lucas Tolimán	10	San Lucas Tolimán	8	Agosto	2023-08-18T00:00:00	2024-11-08T17:00:00	6	Velocidad del viento	9.7
142334	7	Sololá	713	San Lucas Tolimán	10	San Lucas Tolimán	8	Agosto	2023-08-18T00:00:00	2024-11-08T17:00:00	7	Dirección del viento	9.66
142335	7	Sololá	713	San Lucas Tolimán	10	San Lucas Tolimán	8	Agosto	2023-08-18T00:00:00	2024-11-08T17:00:00	1	Precipitación	0
142336	7	Sololá	713	San Lucas Tolimán	10	San Lucas Tolimán	8	Agosto	2023-08-18T00:00:00	2024-11-08T17:00:00	8	Radiación solar	142
142337	7	Sololá	713	San Lucas Tolimán	10	San Lucas Tolimán	8	Agosto	2023-08-18T00:00:00	2024-11-08T18:00:00	2	Temperatura media	19.5
142338	7	Sololá	713	San Lucas Tolimán	10	San Lucas Tolimán	8	Agosto	2023-08-18T00:00:00	2024-11-08T18:00:00	4	Temperatura máxima	19.9
142339	7	Sololá	713	San Lucas Tolimán	10	San Lucas Tolimán	8	Agosto	2023-08-18T00:00:00	2024-11-08T18:00:00	3	Temperatura mínima	19.5
142340	7	Sololá	713	San Lucas Tolimán	10	San Lucas Tolimán	8	Agosto	2023-08-18T00:00:00	2024-11-08T18:00:00	5	Humedad	60
142341	7	Sololá	713	San Lucas Tolimán	10	San Lucas Tolimán	8	Agosto	2023-08-18T00:00:00	2024-11-08T18:00:00	6	Velocidad del viento	9.7
142342	7	Sololá	713	San Lucas Tolimán	10	San Lucas Tolimán	8	Agosto	2023-08-18T00:00:00	2024-11-08T18:00:00	7	Dirección del viento	9.66
142343	7	Sololá	713	San Lucas Tolimán	10	San Lucas Tolimán	8	Agosto	2023-08-18T00:00:00	2024-11-08T18:00:00	1	Precipitación	0
142344	7	Sololá	713	San Lucas Tolimán	10	San Lucas Tolimán	8	Agosto	2023-08-18T00:00:00	2024-11-08T18:00:00	8	Radiación solar	61
142345	7	Sololá	713	San Lucas Tolimán	10	San Lucas Tolimán	8	Agosto	2023-08-18T00:00:00	2024-11-08T19:00:00	2	Temperatura media	18.8
142346	7	Sololá	713	San Lucas Tolimán	10	San Lucas Tolimán	8	Agosto	2023-08-18T00:00:00	2024-11-08T19:00:00	4	Temperatura máxima	19.5
142347	7	Sololá	713	San Lucas Tolimán	10	San Lucas Tolimán	8	Agosto	2023-08-18T00:00:00	2024-11-08T19:00:00	3	Temperatura mínima	18.7
142348	7	Sololá	713	San Lucas Tolimán	10	San Lucas Tolimán	8	Agosto	2023-08-18T00:00:00	2024-11-08T19:00:00	5	Humedad	62
142349	7	Sololá	713	San Lucas Tolimán	10	San Lucas Tolimán	8	Agosto	2023-08-18T00:00:00	2024-11-08T19:00:00	6	Velocidad del viento	8
142350	7	Sololá	713	San Lucas Tolimán	10	San Lucas Tolimán	8	Agosto	2023-08-18T00:00:00	2024-11-08T19:00:00	7	Dirección del viento	8.05
142351	7	Sololá	713	San Lucas Tolimán	10	San Lucas Tolimán	8	Agosto	2023-08-18T00:00:00	2024-11-08T19:00:00	1	Precipitación	0
142352	7	Sololá	713	San Lucas Tolimán	10	San Lucas Tolimán	8	Agosto	2023-08-18T00:00:00	2024-11-08T19:00:00	8	Radiación solar	0
142353	7	Sololá	713	San Lucas Tolimán	10	San Lucas Tolimán	8	Agosto	2023-08-18T00:00:00	2024-11-08T20:00:00	2	Temperatura media	18.6
142354	7	Sololá	713	San Lucas Tolimán	10	San Lucas Tolimán	8	Agosto	2023-08-18T00:00:00	2024-11-08T20:00:00	4	Temperatura máxima	18.8
142355	7	Sololá	713	San Lucas Tolimán	10	San Lucas Tolimán	8	Agosto	2023-08-18T00:00:00	2024-11-08T20:00:00	3	Temperatura mínima	18.6
142356	7	Sololá	713	San Lucas Tolimán	10	San Lucas Tolimán	8	Agosto	2023-08-18T00:00:00	2024-11-08T20:00:00	5	Humedad	56
142357	7	Sololá	713	San Lucas Tolimán	10	San Lucas Tolimán	8	Agosto	2023-08-18T00:00:00	2024-11-08T20:00:00	6	Velocidad del viento	3.2
142358	7	Sololá	713	San Lucas Tolimán	10	San Lucas Tolimán	8	Agosto	2023-08-18T00:00:00	2024-11-08T20:00:00	7	Dirección del viento	3.22
142359	7	Sololá	713	San Lucas Tolimán	10	San Lucas Tolimán	8	Agosto	2023-08-18T00:00:00	2024-11-08T20:00:00	1	Precipitación	0
142360	7	Sololá	713	San Lucas Tolimán	10	San Lucas Tolimán	8	Agosto	2023-08-18T00:00:00	2024-11-08T20:00:00	8	Radiación solar	0
142361	7	Sololá	713	San Lucas Tolimán	10	San Lucas Tolimán	8	Agosto	2023-08-18T00:00:00	2024-11-08T21:00:00	2	Temperatura media	21.1
142362	7	Sololá	713	San Lucas Tolimán	10	San Lucas Tolimán	8	Agosto	2023-08-18T00:00:00	2024-11-08T21:00:00	4	Temperatura máxima	21.1
142363	7	Sololá	713	San Lucas Tolimán	10	San Lucas Tolimán	8	Agosto	2023-08-18T00:00:00	2024-11-08T21:00:00	3	Temperatura mínima	18.6
142364	7	Sololá	713	San Lucas Tolimán	10	San Lucas Tolimán	8	Agosto	2023-08-18T00:00:00	2024-11-08T21:00:00	5	Humedad	53
142365	7	Sololá	713	San Lucas Tolimán	10	San Lucas Tolimán	8	Agosto	2023-08-18T00:00:00	2024-11-08T21:00:00	6	Velocidad del viento	9.7
142366	7	Sololá	713	San Lucas Tolimán	10	San Lucas Tolimán	8	Agosto	2023-08-18T00:00:00	2024-11-08T21:00:00	7	Dirección del viento	9.66
142367	7	Sololá	713	San Lucas Tolimán	10	San Lucas Tolimán	8	Agosto	2023-08-18T00:00:00	2024-11-08T21:00:00	1	Precipitación	0
142368	7	Sololá	713	San Lucas Tolimán	10	San Lucas Tolimán	8	Agosto	2023-08-18T00:00:00	2024-11-08T21:00:00	8	Radiación solar	0
142369	7	Sololá	713	San Lucas Tolimán	10	San Lucas Tolimán	8	Agosto	2023-08-18T00:00:00	2024-11-08T22:00:00	2	Temperatura media	20.4
142370	7	Sololá	713	San Lucas Tolimán	10	San Lucas Tolimán	8	Agosto	2023-08-18T00:00:00	2024-11-08T22:00:00	4	Temperatura máxima	21.1
142371	7	Sololá	713	San Lucas Tolimán	10	San Lucas Tolimán	8	Agosto	2023-08-18T00:00:00	2024-11-08T22:00:00	3	Temperatura mínima	20.4
142372	7	Sololá	713	San Lucas Tolimán	10	San Lucas Tolimán	8	Agosto	2023-08-18T00:00:00	2024-11-08T22:00:00	5	Humedad	53
142373	7	Sololá	713	San Lucas Tolimán	10	San Lucas Tolimán	8	Agosto	2023-08-18T00:00:00	2024-11-08T22:00:00	6	Velocidad del viento	17.7
142374	7	Sololá	713	San Lucas Tolimán	10	San Lucas Tolimán	8	Agosto	2023-08-18T00:00:00	2024-11-08T22:00:00	7	Dirección del viento	17.7
142375	7	Sololá	713	San Lucas Tolimán	10	San Lucas Tolimán	8	Agosto	2023-08-18T00:00:00	2024-11-08T22:00:00	1	Precipitación	0
142376	7	Sololá	713	San Lucas Tolimán	10	San Lucas Tolimán	8	Agosto	2023-08-18T00:00:00	2024-11-08T22:00:00	8	Radiación solar	0
142377	7	Sololá	713	San Lucas Tolimán	10	San Lucas Tolimán	8	Agosto	2023-08-18T00:00:00	2024-11-08T23:00:00	2	Temperatura media	19.6
142378	7	Sololá	713	San Lucas Tolimán	10	San Lucas Tolimán	8	Agosto	2023-08-18T00:00:00	2024-11-08T23:00:00	4	Temperatura máxima	20.4
142379	7	Sololá	713	San Lucas Tolimán	10	San Lucas Tolimán	8	Agosto	2023-08-18T00:00:00	2024-11-08T23:00:00	3	Temperatura mínima	19.6
142380	7	Sololá	713	San Lucas Tolimán	10	San Lucas Tolimán	8	Agosto	2023-08-18T00:00:00	2024-11-08T23:00:00	5	Humedad	56
142381	7	Sololá	713	San Lucas Tolimán	10	San Lucas Tolimán	8	Agosto	2023-08-18T00:00:00	2024-11-08T23:00:00	6	Velocidad del viento	8
142382	7	Sololá	713	San Lucas Tolimán	10	San Lucas Tolimán	8	Agosto	2023-08-18T00:00:00	2024-11-08T23:00:00	7	Dirección del viento	8.05
142383	7	Sololá	713	San Lucas Tolimán	10	San Lucas Tolimán	8	Agosto	2023-08-18T00:00:00	2024-11-08T23:00:00	1	Precipitación	0
142384	7	Sololá	713	San Lucas Tolimán	10	San Lucas Tolimán	8	Agosto	2023-08-18T00:00:00	2024-11-08T23:00:00	8	Radiación solar	0
142385	7	Sololá	713	San Lucas Tolimán	10	San Lucas Tolimán	8	Agosto	2023-08-19T00:00:00	2024-11-08T00:00:00	2	Temperatura media	19.3
142386	7	Sololá	713	San Lucas Tolimán	10	San Lucas Tolimán	8	Agosto	2023-08-19T00:00:00	2024-11-08T00:00:00	4	Temperatura máxima	19.6
142387	7	Sololá	713	San Lucas Tolimán	10	San Lucas Tolimán	8	Agosto	2023-08-19T00:00:00	2024-11-08T00:00:00	3	Temperatura mínima	19.2
142388	7	Sololá	713	San Lucas Tolimán	10	San Lucas Tolimán	8	Agosto	2023-08-19T00:00:00	2024-11-08T00:00:00	5	Humedad	55
142389	7	Sololá	713	San Lucas Tolimán	10	San Lucas Tolimán	8	Agosto	2023-08-19T00:00:00	2024-11-08T00:00:00	6	Velocidad del viento	6.4
142390	7	Sololá	713	San Lucas Tolimán	10	San Lucas Tolimán	8	Agosto	2023-08-19T00:00:00	2024-11-08T00:00:00	7	Dirección del viento	6.44
142391	7	Sololá	713	San Lucas Tolimán	10	San Lucas Tolimán	8	Agosto	2023-08-19T00:00:00	2024-11-08T00:00:00	1	Precipitación	0
142392	7	Sololá	713	San Lucas Tolimán	10	San Lucas Tolimán	8	Agosto	2023-08-19T00:00:00	2024-11-08T00:00:00	8	Radiación solar	0
142393	7	Sololá	713	San Lucas Tolimán	10	San Lucas Tolimán	8	Agosto	2023-08-19T00:00:00	2024-11-08T01:00:00	2	Temperatura media	19.8
142394	7	Sololá	713	San Lucas Tolimán	10	San Lucas Tolimán	8	Agosto	2023-08-19T00:00:00	2024-11-08T01:00:00	4	Temperatura máxima	19.9
142395	7	Sololá	713	San Lucas Tolimán	10	San Lucas Tolimán	8	Agosto	2023-08-19T00:00:00	2024-11-08T01:00:00	3	Temperatura mínima	19.2
142396	7	Sololá	713	San Lucas Tolimán	10	San Lucas Tolimán	8	Agosto	2023-08-19T00:00:00	2024-11-08T01:00:00	5	Humedad	53
142397	7	Sololá	713	San Lucas Tolimán	10	San Lucas Tolimán	8	Agosto	2023-08-19T00:00:00	2024-11-08T01:00:00	6	Velocidad del viento	8
142398	7	Sololá	713	San Lucas Tolimán	10	San Lucas Tolimán	8	Agosto	2023-08-19T00:00:00	2024-11-08T01:00:00	7	Dirección del viento	8.05
142399	7	Sololá	713	San Lucas Tolimán	10	San Lucas Tolimán	8	Agosto	2023-08-19T00:00:00	2024-11-08T01:00:00	1	Precipitación	0
142400	7	Sololá	713	San Lucas Tolimán	10	San Lucas Tolimán	8	Agosto	2023-08-19T00:00:00	2024-11-08T01:00:00	8	Radiación solar	0
142401	7	Sololá	713	San Lucas Tolimán	10	San Lucas Tolimán	8	Agosto	2023-08-19T00:00:00	2024-11-08T02:00:00	2	Temperatura media	18.2
142402	7	Sololá	713	San Lucas Tolimán	10	San Lucas Tolimán	8	Agosto	2023-08-19T00:00:00	2024-11-08T02:00:00	4	Temperatura máxima	19.8
142403	7	Sololá	713	San Lucas Tolimán	10	San Lucas Tolimán	8	Agosto	2023-08-19T00:00:00	2024-11-08T02:00:00	3	Temperatura mínima	18.2
142404	7	Sololá	713	San Lucas Tolimán	10	San Lucas Tolimán	8	Agosto	2023-08-19T00:00:00	2024-11-08T02:00:00	5	Humedad	57
142405	7	Sololá	713	San Lucas Tolimán	10	San Lucas Tolimán	8	Agosto	2023-08-19T00:00:00	2024-11-08T02:00:00	6	Velocidad del viento	1.6
142406	7	Sololá	713	San Lucas Tolimán	10	San Lucas Tolimán	8	Agosto	2023-08-19T00:00:00	2024-11-08T02:00:00	7	Dirección del viento	1.61
142407	7	Sololá	713	San Lucas Tolimán	10	San Lucas Tolimán	8	Agosto	2023-08-19T00:00:00	2024-11-08T02:00:00	1	Precipitación	0
142408	7	Sololá	713	San Lucas Tolimán	10	San Lucas Tolimán	8	Agosto	2023-08-19T00:00:00	2024-11-08T02:00:00	8	Radiación solar	0
142409	7	Sololá	713	San Lucas Tolimán	10	San Lucas Tolimán	8	Agosto	2023-08-19T00:00:00	2024-11-08T03:00:00	2	Temperatura media	17.7
142410	7	Sololá	713	San Lucas Tolimán	10	San Lucas Tolimán	8	Agosto	2023-08-19T00:00:00	2024-11-08T03:00:00	4	Temperatura máxima	18.2
142411	7	Sololá	713	San Lucas Tolimán	10	San Lucas Tolimán	8	Agosto	2023-08-19T00:00:00	2024-11-08T03:00:00	3	Temperatura mínima	17.2
142412	7	Sololá	713	San Lucas Tolimán	10	San Lucas Tolimán	8	Agosto	2023-08-19T00:00:00	2024-11-08T03:00:00	5	Humedad	58
142413	7	Sololá	713	San Lucas Tolimán	10	San Lucas Tolimán	8	Agosto	2023-08-19T00:00:00	2024-11-08T03:00:00	6	Velocidad del viento	3.2
142414	7	Sololá	713	San Lucas Tolimán	10	San Lucas Tolimán	8	Agosto	2023-08-19T00:00:00	2024-11-08T03:00:00	7	Dirección del viento	3.22
142415	7	Sololá	713	San Lucas Tolimán	10	San Lucas Tolimán	8	Agosto	2023-08-19T00:00:00	2024-11-08T03:00:00	1	Precipitación	0
142416	7	Sololá	713	San Lucas Tolimán	10	San Lucas Tolimán	8	Agosto	2023-08-19T00:00:00	2024-11-08T03:00:00	8	Radiación solar	0
142417	7	Sololá	713	San Lucas Tolimán	10	San Lucas Tolimán	8	Agosto	2023-08-19T00:00:00	2024-11-08T04:00:00	2	Temperatura media	17.5
142418	7	Sololá	713	San Lucas Tolimán	10	San Lucas Tolimán	8	Agosto	2023-08-19T00:00:00	2024-11-08T04:00:00	4	Temperatura máxima	18.1
142419	7	Sololá	713	San Lucas Tolimán	10	San Lucas Tolimán	8	Agosto	2023-08-19T00:00:00	2024-11-08T04:00:00	3	Temperatura mínima	17.4
142420	7	Sololá	713	San Lucas Tolimán	10	San Lucas Tolimán	8	Agosto	2023-08-19T00:00:00	2024-11-08T04:00:00	5	Humedad	56
142421	7	Sololá	713	San Lucas Tolimán	10	San Lucas Tolimán	8	Agosto	2023-08-19T00:00:00	2024-11-08T04:00:00	6	Velocidad del viento	3.2
142422	7	Sololá	713	San Lucas Tolimán	10	San Lucas Tolimán	8	Agosto	2023-08-19T00:00:00	2024-11-08T04:00:00	7	Dirección del viento	3.22
142423	7	Sololá	713	San Lucas Tolimán	10	San Lucas Tolimán	8	Agosto	2023-08-19T00:00:00	2024-11-08T04:00:00	1	Precipitación	0
142424	7	Sololá	713	San Lucas Tolimán	10	San Lucas Tolimán	8	Agosto	2023-08-19T00:00:00	2024-11-08T04:00:00	8	Radiación solar	0
142425	7	Sololá	713	San Lucas Tolimán	10	San Lucas Tolimán	8	Agosto	2023-08-19T00:00:00	2024-11-08T05:00:00	2	Temperatura media	16.1
142426	7	Sololá	713	San Lucas Tolimán	10	San Lucas Tolimán	8	Agosto	2023-08-19T00:00:00	2024-11-08T05:00:00	4	Temperatura máxima	17.5
142427	7	Sololá	713	San Lucas Tolimán	10	San Lucas Tolimán	8	Agosto	2023-08-19T00:00:00	2024-11-08T05:00:00	3	Temperatura mínima	16.1
142428	7	Sololá	713	San Lucas Tolimán	10	San Lucas Tolimán	8	Agosto	2023-08-19T00:00:00	2024-11-08T05:00:00	5	Humedad	60
142429	7	Sololá	713	San Lucas Tolimán	10	San Lucas Tolimán	8	Agosto	2023-08-19T00:00:00	2024-11-08T05:00:00	6	Velocidad del viento	1.6
142430	7	Sololá	713	San Lucas Tolimán	10	San Lucas Tolimán	8	Agosto	2023-08-19T00:00:00	2024-11-08T05:00:00	7	Dirección del viento	1.61
142431	7	Sololá	713	San Lucas Tolimán	10	San Lucas Tolimán	8	Agosto	2023-08-19T00:00:00	2024-11-08T05:00:00	1	Precipitación	0
142432	7	Sololá	713	San Lucas Tolimán	10	San Lucas Tolimán	8	Agosto	2023-08-19T00:00:00	2024-11-08T05:00:00	8	Radiación solar	0
142433	7	Sololá	713	San Lucas Tolimán	10	San Lucas Tolimán	8	Agosto	2023-08-19T00:00:00	2024-11-08T06:00:00	2	Temperatura media	15.6
142434	7	Sololá	713	San Lucas Tolimán	10	San Lucas Tolimán	8	Agosto	2023-08-19T00:00:00	2024-11-08T06:00:00	4	Temperatura máxima	16.1
142435	7	Sololá	713	San Lucas Tolimán	10	San Lucas Tolimán	8	Agosto	2023-08-19T00:00:00	2024-11-08T06:00:00	3	Temperatura mínima	15.6
142436	7	Sololá	713	San Lucas Tolimán	10	San Lucas Tolimán	8	Agosto	2023-08-19T00:00:00	2024-11-08T06:00:00	5	Humedad	60
142437	7	Sololá	713	San Lucas Tolimán	10	San Lucas Tolimán	8	Agosto	2023-08-19T00:00:00	2024-11-08T06:00:00	6	Velocidad del viento	1.6
142438	7	Sololá	713	San Lucas Tolimán	10	San Lucas Tolimán	8	Agosto	2023-08-19T00:00:00	2024-11-08T06:00:00	7	Dirección del viento	1.61
142439	7	Sololá	713	San Lucas Tolimán	10	San Lucas Tolimán	8	Agosto	2023-08-19T00:00:00	2024-11-08T06:00:00	1	Precipitación	0
142440	7	Sololá	713	San Lucas Tolimán	10	San Lucas Tolimán	8	Agosto	2023-08-19T00:00:00	2024-11-08T06:00:00	8	Radiación solar	2
142441	7	Sololá	713	San Lucas Tolimán	10	San Lucas Tolimán	8	Agosto	2023-08-19T00:00:00	2024-11-08T07:00:00	2	Temperatura media	16.7
142442	7	Sololá	713	San Lucas Tolimán	10	San Lucas Tolimán	8	Agosto	2023-08-19T00:00:00	2024-11-08T07:00:00	4	Temperatura máxima	16.7
142443	7	Sololá	713	San Lucas Tolimán	10	San Lucas Tolimán	8	Agosto	2023-08-19T00:00:00	2024-11-08T07:00:00	3	Temperatura mínima	15.4
142444	7	Sololá	713	San Lucas Tolimán	10	San Lucas Tolimán	8	Agosto	2023-08-19T00:00:00	2024-11-08T07:00:00	5	Humedad	58
142445	7	Sololá	713	San Lucas Tolimán	10	San Lucas Tolimán	8	Agosto	2023-08-19T00:00:00	2024-11-08T07:00:00	6	Velocidad del viento	1.6
142446	7	Sololá	713	San Lucas Tolimán	10	San Lucas Tolimán	8	Agosto	2023-08-19T00:00:00	2024-11-08T07:00:00	7	Dirección del viento	1.61
142447	7	Sololá	713	San Lucas Tolimán	10	San Lucas Tolimán	8	Agosto	2023-08-19T00:00:00	2024-11-08T07:00:00	1	Precipitación	0
142448	7	Sololá	713	San Lucas Tolimán	10	San Lucas Tolimán	8	Agosto	2023-08-19T00:00:00	2024-11-08T07:00:00	8	Radiación solar	73
142449	7	Sololá	713	San Lucas Tolimán	10	San Lucas Tolimán	8	Agosto	2023-08-19T00:00:00	2024-11-08T08:00:00	2	Temperatura media	20.7
142450	7	Sololá	713	San Lucas Tolimán	10	San Lucas Tolimán	8	Agosto	2023-08-19T00:00:00	2024-11-08T08:00:00	4	Temperatura máxima	20.7
142451	7	Sololá	713	San Lucas Tolimán	10	San Lucas Tolimán	8	Agosto	2023-08-19T00:00:00	2024-11-08T08:00:00	3	Temperatura mínima	16.7
142452	7	Sololá	713	San Lucas Tolimán	10	San Lucas Tolimán	8	Agosto	2023-08-19T00:00:00	2024-11-08T08:00:00	5	Humedad	49
142453	7	Sololá	713	San Lucas Tolimán	10	San Lucas Tolimán	8	Agosto	2023-08-19T00:00:00	2024-11-08T08:00:00	6	Velocidad del viento	1.6
142454	7	Sololá	713	San Lucas Tolimán	10	San Lucas Tolimán	8	Agosto	2023-08-19T00:00:00	2024-11-08T08:00:00	7	Dirección del viento	1.61
142455	7	Sololá	713	San Lucas Tolimán	10	San Lucas Tolimán	8	Agosto	2023-08-19T00:00:00	2024-11-08T08:00:00	1	Precipitación	0
142456	7	Sololá	713	San Lucas Tolimán	10	San Lucas Tolimán	8	Agosto	2023-08-19T00:00:00	2024-11-08T08:00:00	8	Radiación solar	266
142457	7	Sololá	713	San Lucas Tolimán	10	San Lucas Tolimán	8	Agosto	2023-08-19T00:00:00	2024-11-08T09:00:00	2	Temperatura media	23.2
142458	7	Sololá	713	San Lucas Tolimán	10	San Lucas Tolimán	8	Agosto	2023-08-19T00:00:00	2024-11-08T09:00:00	4	Temperatura máxima	23.2
142459	7	Sololá	713	San Lucas Tolimán	10	San Lucas Tolimán	8	Agosto	2023-08-19T00:00:00	2024-11-08T09:00:00	3	Temperatura mínima	20.7
142460	7	Sololá	713	San Lucas Tolimán	10	San Lucas Tolimán	8	Agosto	2023-08-19T00:00:00	2024-11-08T09:00:00	5	Humedad	41
142461	7	Sololá	713	San Lucas Tolimán	10	San Lucas Tolimán	8	Agosto	2023-08-19T00:00:00	2024-11-08T09:00:00	6	Velocidad del viento	4.8
142462	7	Sololá	713	San Lucas Tolimán	10	San Lucas Tolimán	8	Agosto	2023-08-19T00:00:00	2024-11-08T09:00:00	7	Dirección del viento	4.83
142463	7	Sololá	713	San Lucas Tolimán	10	San Lucas Tolimán	8	Agosto	2023-08-19T00:00:00	2024-11-08T09:00:00	1	Precipitación	0
142464	7	Sololá	713	San Lucas Tolimán	10	San Lucas Tolimán	8	Agosto	2023-08-19T00:00:00	2024-11-08T09:00:00	8	Radiación solar	579
142465	7	Sololá	713	San Lucas Tolimán	10	San Lucas Tolimán	8	Agosto	2023-08-19T00:00:00	2024-11-08T10:00:00	2	Temperatura media	24.2
142466	7	Sololá	713	San Lucas Tolimán	10	San Lucas Tolimán	8	Agosto	2023-08-19T00:00:00	2024-11-08T10:00:00	4	Temperatura máxima	24.2
142467	7	Sololá	713	San Lucas Tolimán	10	San Lucas Tolimán	8	Agosto	2023-08-19T00:00:00	2024-11-08T10:00:00	3	Temperatura mínima	23.1
142468	7	Sololá	713	San Lucas Tolimán	10	San Lucas Tolimán	8	Agosto	2023-08-19T00:00:00	2024-11-08T10:00:00	5	Humedad	38
142469	7	Sololá	713	San Lucas Tolimán	10	San Lucas Tolimán	8	Agosto	2023-08-19T00:00:00	2024-11-08T10:00:00	6	Velocidad del viento	11.3
142470	7	Sololá	713	San Lucas Tolimán	10	San Lucas Tolimán	8	Agosto	2023-08-19T00:00:00	2024-11-08T10:00:00	7	Dirección del viento	11.27
142471	7	Sololá	713	San Lucas Tolimán	10	San Lucas Tolimán	8	Agosto	2023-08-19T00:00:00	2024-11-08T10:00:00	1	Precipitación	0
142472	7	Sololá	713	San Lucas Tolimán	10	San Lucas Tolimán	8	Agosto	2023-08-19T00:00:00	2024-11-08T10:00:00	8	Radiación solar	807
142473	7	Sololá	713	San Lucas Tolimán	10	San Lucas Tolimán	8	Agosto	2023-08-19T00:00:00	2024-11-08T11:00:00	2	Temperatura media	25.3
142474	7	Sololá	713	San Lucas Tolimán	10	San Lucas Tolimán	8	Agosto	2023-08-19T00:00:00	2024-11-08T11:00:00	4	Temperatura máxima	25.4
142475	7	Sololá	713	San Lucas Tolimán	10	San Lucas Tolimán	8	Agosto	2023-08-19T00:00:00	2024-11-08T11:00:00	3	Temperatura mínima	24.2
142476	7	Sololá	713	San Lucas Tolimán	10	San Lucas Tolimán	8	Agosto	2023-08-19T00:00:00	2024-11-08T11:00:00	5	Humedad	50
142477	7	Sololá	713	San Lucas Tolimán	10	San Lucas Tolimán	8	Agosto	2023-08-19T00:00:00	2024-11-08T11:00:00	6	Velocidad del viento	11.3
142478	7	Sololá	713	San Lucas Tolimán	10	San Lucas Tolimán	8	Agosto	2023-08-19T00:00:00	2024-11-08T11:00:00	7	Dirección del viento	11.27
142479	7	Sololá	713	San Lucas Tolimán	10	San Lucas Tolimán	8	Agosto	2023-08-19T00:00:00	2024-11-08T11:00:00	1	Precipitación	0
142480	7	Sololá	713	San Lucas Tolimán	10	San Lucas Tolimán	8	Agosto	2023-08-19T00:00:00	2024-11-08T11:00:00	8	Radiación solar	967
142481	7	Sololá	713	San Lucas Tolimán	10	San Lucas Tolimán	8	Agosto	2023-08-19T00:00:00	2024-11-08T12:00:00	2	Temperatura media	23.9
142482	7	Sololá	713	San Lucas Tolimán	10	San Lucas Tolimán	8	Agosto	2023-08-19T00:00:00	2024-11-08T12:00:00	4	Temperatura máxima	26.1
142483	7	Sololá	713	San Lucas Tolimán	10	San Lucas Tolimán	8	Agosto	2023-08-19T00:00:00	2024-11-08T12:00:00	3	Temperatura mínima	23.6
142484	7	Sololá	713	San Lucas Tolimán	10	San Lucas Tolimán	8	Agosto	2023-08-19T00:00:00	2024-11-08T12:00:00	5	Humedad	59
142485	7	Sololá	713	San Lucas Tolimán	10	San Lucas Tolimán	8	Agosto	2023-08-19T00:00:00	2024-11-08T12:00:00	6	Velocidad del viento	9.7
142486	7	Sololá	713	San Lucas Tolimán	10	San Lucas Tolimán	8	Agosto	2023-08-19T00:00:00	2024-11-08T12:00:00	7	Dirección del viento	9.66
142487	7	Sololá	713	San Lucas Tolimán	10	San Lucas Tolimán	8	Agosto	2023-08-19T00:00:00	2024-11-08T12:00:00	1	Precipitación	0
142488	7	Sololá	713	San Lucas Tolimán	10	San Lucas Tolimán	8	Agosto	2023-08-19T00:00:00	2024-11-08T12:00:00	8	Radiación solar	1086
142489	7	Sololá	713	San Lucas Tolimán	10	San Lucas Tolimán	8	Agosto	2023-08-19T00:00:00	2024-11-08T13:00:00	2	Temperatura media	23.2
142490	7	Sololá	713	San Lucas Tolimán	10	San Lucas Tolimán	8	Agosto	2023-08-19T00:00:00	2024-11-08T13:00:00	4	Temperatura máxima	24.4
142491	7	Sololá	713	San Lucas Tolimán	10	San Lucas Tolimán	8	Agosto	2023-08-19T00:00:00	2024-11-08T13:00:00	3	Temperatura mínima	23
142492	7	Sololá	713	San Lucas Tolimán	10	San Lucas Tolimán	8	Agosto	2023-08-19T00:00:00	2024-11-08T13:00:00	5	Humedad	60
142493	7	Sololá	713	San Lucas Tolimán	10	San Lucas Tolimán	8	Agosto	2023-08-19T00:00:00	2024-11-08T13:00:00	6	Velocidad del viento	12.9
142494	7	Sololá	713	San Lucas Tolimán	10	San Lucas Tolimán	8	Agosto	2023-08-19T00:00:00	2024-11-08T13:00:00	7	Dirección del viento	12.87
142495	7	Sololá	713	San Lucas Tolimán	10	San Lucas Tolimán	8	Agosto	2023-08-19T00:00:00	2024-11-08T13:00:00	1	Precipitación	0
142496	7	Sololá	713	San Lucas Tolimán	10	San Lucas Tolimán	8	Agosto	2023-08-19T00:00:00	2024-11-08T13:00:00	8	Radiación solar	1072
142497	7	Sololá	713	San Lucas Tolimán	10	San Lucas Tolimán	8	Agosto	2023-08-19T00:00:00	2024-11-08T14:00:00	2	Temperatura media	23.4
142498	7	Sololá	713	San Lucas Tolimán	10	San Lucas Tolimán	8	Agosto	2023-08-19T00:00:00	2024-11-08T14:00:00	4	Temperatura máxima	23.6
142499	7	Sololá	713	San Lucas Tolimán	10	San Lucas Tolimán	8	Agosto	2023-08-19T00:00:00	2024-11-08T14:00:00	3	Temperatura mínima	22.7
142500	7	Sololá	713	San Lucas Tolimán	10	San Lucas Tolimán	8	Agosto	2023-08-19T00:00:00	2024-11-08T14:00:00	5	Humedad	60
142501	7	Sololá	713	San Lucas Tolimán	10	San Lucas Tolimán	8	Agosto	2023-08-19T00:00:00	2024-11-08T14:00:00	6	Velocidad del viento	11.3
142502	7	Sololá	713	San Lucas Tolimán	10	San Lucas Tolimán	8	Agosto	2023-08-19T00:00:00	2024-11-08T14:00:00	7	Dirección del viento	11.27
142503	7	Sololá	713	San Lucas Tolimán	10	San Lucas Tolimán	8	Agosto	2023-08-19T00:00:00	2024-11-08T14:00:00	1	Precipitación	0
142504	7	Sololá	713	San Lucas Tolimán	10	San Lucas Tolimán	8	Agosto	2023-08-19T00:00:00	2024-11-08T14:00:00	8	Radiación solar	619
142505	7	Sololá	713	San Lucas Tolimán	10	San Lucas Tolimán	8	Agosto	2023-08-19T00:00:00	2024-11-08T15:00:00	2	Temperatura media	22.9
142506	7	Sololá	713	San Lucas Tolimán	10	San Lucas Tolimán	8	Agosto	2023-08-19T00:00:00	2024-11-08T15:00:00	4	Temperatura máxima	23.9
142507	7	Sololá	713	San Lucas Tolimán	10	San Lucas Tolimán	8	Agosto	2023-08-19T00:00:00	2024-11-08T15:00:00	3	Temperatura mínima	22.9
142508	7	Sololá	713	San Lucas Tolimán	10	San Lucas Tolimán	8	Agosto	2023-08-19T00:00:00	2024-11-08T15:00:00	5	Humedad	61
142509	7	Sololá	713	San Lucas Tolimán	10	San Lucas Tolimán	8	Agosto	2023-08-19T00:00:00	2024-11-08T15:00:00	6	Velocidad del viento	12.9
142510	7	Sololá	713	San Lucas Tolimán	10	San Lucas Tolimán	8	Agosto	2023-08-19T00:00:00	2024-11-08T15:00:00	7	Dirección del viento	12.87
142511	7	Sololá	713	San Lucas Tolimán	10	San Lucas Tolimán	8	Agosto	2023-08-19T00:00:00	2024-11-08T15:00:00	1	Precipitación	0
142512	7	Sololá	713	San Lucas Tolimán	10	San Lucas Tolimán	8	Agosto	2023-08-19T00:00:00	2024-11-08T15:00:00	8	Radiación solar	902
142513	7	Sololá	713	San Lucas Tolimán	10	San Lucas Tolimán	8	Agosto	2023-08-19T00:00:00	2024-11-08T16:00:00	2	Temperatura media	22.8
142514	7	Sololá	713	San Lucas Tolimán	10	San Lucas Tolimán	8	Agosto	2023-08-19T00:00:00	2024-11-08T16:00:00	4	Temperatura máxima	23.4
142515	7	Sololá	713	San Lucas Tolimán	10	San Lucas Tolimán	8	Agosto	2023-08-19T00:00:00	2024-11-08T16:00:00	3	Temperatura mínima	22.2
142516	7	Sololá	713	San Lucas Tolimán	10	San Lucas Tolimán	8	Agosto	2023-08-19T00:00:00	2024-11-08T16:00:00	5	Humedad	60
142517	7	Sololá	713	San Lucas Tolimán	10	San Lucas Tolimán	8	Agosto	2023-08-19T00:00:00	2024-11-08T16:00:00	6	Velocidad del viento	12.9
142518	7	Sololá	713	San Lucas Tolimán	10	San Lucas Tolimán	8	Agosto	2023-08-19T00:00:00	2024-11-08T16:00:00	7	Dirección del viento	12.87
142519	7	Sololá	713	San Lucas Tolimán	10	San Lucas Tolimán	8	Agosto	2023-08-19T00:00:00	2024-11-08T16:00:00	1	Precipitación	0
142520	7	Sololá	713	San Lucas Tolimán	10	San Lucas Tolimán	8	Agosto	2023-08-19T00:00:00	2024-11-08T16:00:00	8	Radiación solar	749
142521	7	Sololá	713	San Lucas Tolimán	10	San Lucas Tolimán	8	Agosto	2023-08-19T00:00:00	2024-11-08T17:00:00	2	Temperatura media	20.8
142522	7	Sololá	713	San Lucas Tolimán	10	San Lucas Tolimán	8	Agosto	2023-08-19T00:00:00	2024-11-08T17:00:00	4	Temperatura máxima	22.8
142523	7	Sololá	713	San Lucas Tolimán	10	San Lucas Tolimán	8	Agosto	2023-08-19T00:00:00	2024-11-08T17:00:00	3	Temperatura mínima	20.7
142524	7	Sololá	713	San Lucas Tolimán	10	San Lucas Tolimán	8	Agosto	2023-08-19T00:00:00	2024-11-08T17:00:00	5	Humedad	59
142525	7	Sololá	713	San Lucas Tolimán	10	San Lucas Tolimán	8	Agosto	2023-08-19T00:00:00	2024-11-08T17:00:00	6	Velocidad del viento	12.9
142526	7	Sololá	713	San Lucas Tolimán	10	San Lucas Tolimán	8	Agosto	2023-08-19T00:00:00	2024-11-08T17:00:00	7	Dirección del viento	12.87
142527	7	Sololá	713	San Lucas Tolimán	10	San Lucas Tolimán	8	Agosto	2023-08-19T00:00:00	2024-11-08T17:00:00	1	Precipitación	0
142528	7	Sololá	713	San Lucas Tolimán	10	San Lucas Tolimán	8	Agosto	2023-08-19T00:00:00	2024-11-08T17:00:00	8	Radiación solar	160
142529	7	Sololá	713	San Lucas Tolimán	10	San Lucas Tolimán	8	Agosto	2023-08-19T00:00:00	2024-11-08T18:00:00	2	Temperatura media	20.2
142530	7	Sololá	713	San Lucas Tolimán	10	San Lucas Tolimán	8	Agosto	2023-08-19T00:00:00	2024-11-08T18:00:00	4	Temperatura máxima	20.9
142531	7	Sololá	713	San Lucas Tolimán	10	San Lucas Tolimán	8	Agosto	2023-08-19T00:00:00	2024-11-08T18:00:00	3	Temperatura mínima	20.2
142532	7	Sololá	713	San Lucas Tolimán	10	San Lucas Tolimán	8	Agosto	2023-08-19T00:00:00	2024-11-08T18:00:00	5	Humedad	61
142533	7	Sololá	713	San Lucas Tolimán	10	San Lucas Tolimán	8	Agosto	2023-08-19T00:00:00	2024-11-08T18:00:00	6	Velocidad del viento	9.7
142534	7	Sololá	713	San Lucas Tolimán	10	San Lucas Tolimán	8	Agosto	2023-08-19T00:00:00	2024-11-08T18:00:00	7	Dirección del viento	9.66
142535	7	Sololá	713	San Lucas Tolimán	10	San Lucas Tolimán	8	Agosto	2023-08-19T00:00:00	2024-11-08T18:00:00	1	Precipitación	0
142536	7	Sololá	713	San Lucas Tolimán	10	San Lucas Tolimán	8	Agosto	2023-08-19T00:00:00	2024-11-08T18:00:00	8	Radiación solar	61
142537	7	Sololá	713	San Lucas Tolimán	10	San Lucas Tolimán	8	Agosto	2023-08-19T00:00:00	2024-11-08T19:00:00	2	Temperatura media	19.8
142538	7	Sololá	713	San Lucas Tolimán	10	San Lucas Tolimán	8	Agosto	2023-08-19T00:00:00	2024-11-08T19:00:00	4	Temperatura máxima	20.2
142539	7	Sololá	713	San Lucas Tolimán	10	San Lucas Tolimán	8	Agosto	2023-08-19T00:00:00	2024-11-08T19:00:00	3	Temperatura mínima	19.7
142540	7	Sololá	713	San Lucas Tolimán	10	San Lucas Tolimán	8	Agosto	2023-08-19T00:00:00	2024-11-08T19:00:00	5	Humedad	60
142541	7	Sololá	713	San Lucas Tolimán	10	San Lucas Tolimán	8	Agosto	2023-08-19T00:00:00	2024-11-08T19:00:00	6	Velocidad del viento	6.4
142542	7	Sololá	713	San Lucas Tolimán	10	San Lucas Tolimán	8	Agosto	2023-08-19T00:00:00	2024-11-08T19:00:00	7	Dirección del viento	6.44
142543	7	Sololá	713	San Lucas Tolimán	10	San Lucas Tolimán	8	Agosto	2023-08-19T00:00:00	2024-11-08T19:00:00	1	Precipitación	0
142544	7	Sololá	713	San Lucas Tolimán	10	San Lucas Tolimán	8	Agosto	2023-08-19T00:00:00	2024-11-08T19:00:00	8	Radiación solar	0
142545	7	Sololá	713	San Lucas Tolimán	10	San Lucas Tolimán	8	Agosto	2023-08-19T00:00:00	2024-11-08T20:00:00	2	Temperatura media	19.7
142546	7	Sololá	713	San Lucas Tolimán	10	San Lucas Tolimán	8	Agosto	2023-08-19T00:00:00	2024-11-08T20:00:00	4	Temperatura máxima	19.8
142547	7	Sololá	713	San Lucas Tolimán	10	San Lucas Tolimán	8	Agosto	2023-08-19T00:00:00	2024-11-08T20:00:00	3	Temperatura mínima	19.6
142548	7	Sololá	713	San Lucas Tolimán	10	San Lucas Tolimán	8	Agosto	2023-08-19T00:00:00	2024-11-08T20:00:00	5	Humedad	57
142549	7	Sololá	713	San Lucas Tolimán	10	San Lucas Tolimán	8	Agosto	2023-08-19T00:00:00	2024-11-08T20:00:00	6	Velocidad del viento	3.2
142550	7	Sololá	713	San Lucas Tolimán	10	San Lucas Tolimán	8	Agosto	2023-08-19T00:00:00	2024-11-08T20:00:00	7	Dirección del viento	3.22
142551	7	Sololá	713	San Lucas Tolimán	10	San Lucas Tolimán	8	Agosto	2023-08-19T00:00:00	2024-11-08T20:00:00	1	Precipitación	0
142552	7	Sololá	713	San Lucas Tolimán	10	San Lucas Tolimán	8	Agosto	2023-08-19T00:00:00	2024-11-08T20:00:00	8	Radiación solar	0
142553	7	Sololá	713	San Lucas Tolimán	10	San Lucas Tolimán	8	Agosto	2023-08-19T00:00:00	2024-11-08T21:00:00	2	Temperatura media	20.2
142554	7	Sololá	713	San Lucas Tolimán	10	San Lucas Tolimán	8	Agosto	2023-08-19T00:00:00	2024-11-08T21:00:00	4	Temperatura máxima	20.2
142555	7	Sololá	713	San Lucas Tolimán	10	San Lucas Tolimán	8	Agosto	2023-08-19T00:00:00	2024-11-08T21:00:00	3	Temperatura mínima	19.5
142556	7	Sololá	713	San Lucas Tolimán	10	San Lucas Tolimán	8	Agosto	2023-08-19T00:00:00	2024-11-08T21:00:00	5	Humedad	55
142557	7	Sololá	713	San Lucas Tolimán	10	San Lucas Tolimán	8	Agosto	2023-08-19T00:00:00	2024-11-08T21:00:00	6	Velocidad del viento	3.2
142558	7	Sololá	713	San Lucas Tolimán	10	San Lucas Tolimán	8	Agosto	2023-08-19T00:00:00	2024-11-08T21:00:00	7	Dirección del viento	3.22
142559	7	Sololá	713	San Lucas Tolimán	10	San Lucas Tolimán	8	Agosto	2023-08-19T00:00:00	2024-11-08T21:00:00	1	Precipitación	0
142560	7	Sololá	713	San Lucas Tolimán	10	San Lucas Tolimán	8	Agosto	2023-08-19T00:00:00	2024-11-08T21:00:00	8	Radiación solar	0
142561	7	Sololá	713	San Lucas Tolimán	10	San Lucas Tolimán	8	Agosto	2023-08-19T00:00:00	2024-11-08T22:00:00	2	Temperatura media	19.6
142562	7	Sololá	713	San Lucas Tolimán	10	San Lucas Tolimán	8	Agosto	2023-08-19T00:00:00	2024-11-08T22:00:00	4	Temperatura máxima	20.3
142563	7	Sololá	713	San Lucas Tolimán	10	San Lucas Tolimán	8	Agosto	2023-08-19T00:00:00	2024-11-08T22:00:00	3	Temperatura mínima	19.6
142564	7	Sololá	713	San Lucas Tolimán	10	San Lucas Tolimán	8	Agosto	2023-08-19T00:00:00	2024-11-08T22:00:00	5	Humedad	56
142565	7	Sololá	713	San Lucas Tolimán	10	San Lucas Tolimán	8	Agosto	2023-08-19T00:00:00	2024-11-08T22:00:00	6	Velocidad del viento	9.7
142566	7	Sololá	713	San Lucas Tolimán	10	San Lucas Tolimán	8	Agosto	2023-08-19T00:00:00	2024-11-08T22:00:00	7	Dirección del viento	9.66
142567	7	Sololá	713	San Lucas Tolimán	10	San Lucas Tolimán	8	Agosto	2023-08-19T00:00:00	2024-11-08T22:00:00	1	Precipitación	0
142568	7	Sololá	713	San Lucas Tolimán	10	San Lucas Tolimán	8	Agosto	2023-08-19T00:00:00	2024-11-08T22:00:00	8	Radiación solar	0
142569	7	Sololá	713	San Lucas Tolimán	10	San Lucas Tolimán	8	Agosto	2023-08-19T00:00:00	2024-11-08T23:00:00	2	Temperatura media	18.6
142570	7	Sololá	713	San Lucas Tolimán	10	San Lucas Tolimán	8	Agosto	2023-08-19T00:00:00	2024-11-08T23:00:00	4	Temperatura máxima	19.6
142571	7	Sololá	713	San Lucas Tolimán	10	San Lucas Tolimán	8	Agosto	2023-08-19T00:00:00	2024-11-08T23:00:00	3	Temperatura mínima	18.6
142572	7	Sololá	713	San Lucas Tolimán	10	San Lucas Tolimán	8	Agosto	2023-08-19T00:00:00	2024-11-08T23:00:00	5	Humedad	56
142573	7	Sololá	713	San Lucas Tolimán	10	San Lucas Tolimán	8	Agosto	2023-08-19T00:00:00	2024-11-08T23:00:00	6	Velocidad del viento	3.2
142574	7	Sololá	713	San Lucas Tolimán	10	San Lucas Tolimán	8	Agosto	2023-08-19T00:00:00	2024-11-08T23:00:00	7	Dirección del viento	3.22
142575	7	Sololá	713	San Lucas Tolimán	10	San Lucas Tolimán	8	Agosto	2023-08-19T00:00:00	2024-11-08T23:00:00	1	Precipitación	0
142576	7	Sololá	713	San Lucas Tolimán	10	San Lucas Tolimán	8	Agosto	2023-08-19T00:00:00	2024-11-08T23:00:00	8	Radiación solar	0
142577	7	Sololá	713	San Lucas Tolimán	10	San Lucas Tolimán	8	Agosto	2023-08-20T00:00:00	2024-11-08T00:00:00	2	Temperatura media	18
142578	7	Sololá	713	San Lucas Tolimán	10	San Lucas Tolimán	8	Agosto	2023-08-20T00:00:00	2024-11-08T00:00:00	4	Temperatura máxima	18.8
142579	7	Sololá	713	San Lucas Tolimán	10	San Lucas Tolimán	8	Agosto	2023-08-20T00:00:00	2024-11-08T00:00:00	3	Temperatura mínima	17.9
142580	7	Sololá	713	San Lucas Tolimán	10	San Lucas Tolimán	8	Agosto	2023-08-20T00:00:00	2024-11-08T00:00:00	5	Humedad	58
142581	7	Sololá	713	San Lucas Tolimán	10	San Lucas Tolimán	8	Agosto	2023-08-20T00:00:00	2024-11-08T00:00:00	6	Velocidad del viento	3.2
142582	7	Sololá	713	San Lucas Tolimán	10	San Lucas Tolimán	8	Agosto	2023-08-20T00:00:00	2024-11-08T00:00:00	7	Dirección del viento	3.22
142583	7	Sololá	713	San Lucas Tolimán	10	San Lucas Tolimán	8	Agosto	2023-08-20T00:00:00	2024-11-08T00:00:00	1	Precipitación	0
142584	7	Sololá	713	San Lucas Tolimán	10	San Lucas Tolimán	8	Agosto	2023-08-20T00:00:00	2024-11-08T00:00:00	8	Radiación solar	0
142585	7	Sololá	713	San Lucas Tolimán	10	San Lucas Tolimán	8	Agosto	2023-08-20T00:00:00	2024-11-08T01:00:00	2	Temperatura media	17.8
142586	7	Sololá	713	San Lucas Tolimán	10	San Lucas Tolimán	8	Agosto	2023-08-20T00:00:00	2024-11-08T01:00:00	4	Temperatura máxima	18.3
142587	7	Sololá	713	San Lucas Tolimán	10	San Lucas Tolimán	8	Agosto	2023-08-20T00:00:00	2024-11-08T01:00:00	3	Temperatura mínima	17.8
142588	7	Sololá	713	San Lucas Tolimán	10	San Lucas Tolimán	8	Agosto	2023-08-20T00:00:00	2024-11-08T01:00:00	5	Humedad	57
142589	7	Sololá	713	San Lucas Tolimán	10	San Lucas Tolimán	8	Agosto	2023-08-20T00:00:00	2024-11-08T01:00:00	6	Velocidad del viento	4.8
142590	7	Sololá	713	San Lucas Tolimán	10	San Lucas Tolimán	8	Agosto	2023-08-20T00:00:00	2024-11-08T01:00:00	7	Dirección del viento	4.83
142591	7	Sololá	713	San Lucas Tolimán	10	San Lucas Tolimán	8	Agosto	2023-08-20T00:00:00	2024-11-08T01:00:00	1	Precipitación	0
142592	7	Sololá	713	San Lucas Tolimán	10	San Lucas Tolimán	8	Agosto	2023-08-20T00:00:00	2024-11-08T01:00:00	8	Radiación solar	0
142593	7	Sololá	713	San Lucas Tolimán	10	San Lucas Tolimán	8	Agosto	2023-08-20T00:00:00	2024-11-08T02:00:00	2	Temperatura media	17.9
142594	7	Sololá	713	San Lucas Tolimán	10	San Lucas Tolimán	8	Agosto	2023-08-20T00:00:00	2024-11-08T02:00:00	4	Temperatura máxima	18.3
142595	7	Sololá	713	San Lucas Tolimán	10	San Lucas Tolimán	8	Agosto	2023-08-20T00:00:00	2024-11-08T02:00:00	3	Temperatura mínima	17.8
142596	7	Sololá	713	San Lucas Tolimán	10	San Lucas Tolimán	8	Agosto	2023-08-20T00:00:00	2024-11-08T02:00:00	5	Humedad	55
142597	7	Sololá	713	San Lucas Tolimán	10	San Lucas Tolimán	8	Agosto	2023-08-20T00:00:00	2024-11-08T02:00:00	6	Velocidad del viento	3.2
142598	7	Sololá	713	San Lucas Tolimán	10	San Lucas Tolimán	8	Agosto	2023-08-20T00:00:00	2024-11-08T02:00:00	7	Dirección del viento	3.22
142599	7	Sololá	713	San Lucas Tolimán	10	San Lucas Tolimán	8	Agosto	2023-08-20T00:00:00	2024-11-08T02:00:00	1	Precipitación	0
142600	7	Sololá	713	San Lucas Tolimán	10	San Lucas Tolimán	8	Agosto	2023-08-20T00:00:00	2024-11-08T02:00:00	8	Radiación solar	0
142601	7	Sololá	713	San Lucas Tolimán	10	San Lucas Tolimán	8	Agosto	2023-08-20T00:00:00	2024-11-08T03:00:00	2	Temperatura media	18.1
142602	7	Sololá	713	San Lucas Tolimán	10	San Lucas Tolimán	8	Agosto	2023-08-20T00:00:00	2024-11-08T03:00:00	4	Temperatura máxima	18.1
142603	7	Sololá	713	San Lucas Tolimán	10	San Lucas Tolimán	8	Agosto	2023-08-20T00:00:00	2024-11-08T03:00:00	3	Temperatura mínima	17.7
142604	7	Sololá	713	San Lucas Tolimán	10	San Lucas Tolimán	8	Agosto	2023-08-20T00:00:00	2024-11-08T03:00:00	5	Humedad	56
142605	7	Sololá	713	San Lucas Tolimán	10	San Lucas Tolimán	8	Agosto	2023-08-20T00:00:00	2024-11-08T03:00:00	6	Velocidad del viento	6.4
142606	7	Sololá	713	San Lucas Tolimán	10	San Lucas Tolimán	8	Agosto	2023-08-20T00:00:00	2024-11-08T03:00:00	7	Dirección del viento	6.44
142607	7	Sololá	713	San Lucas Tolimán	10	San Lucas Tolimán	8	Agosto	2023-08-20T00:00:00	2024-11-08T03:00:00	1	Precipitación	0
142608	7	Sololá	713	San Lucas Tolimán	10	San Lucas Tolimán	8	Agosto	2023-08-20T00:00:00	2024-11-08T03:00:00	8	Radiación solar	0
142609	7	Sololá	713	San Lucas Tolimán	10	San Lucas Tolimán	8	Agosto	2023-08-20T00:00:00	2024-11-08T04:00:00	2	Temperatura media	17.4
142610	7	Sololá	713	San Lucas Tolimán	10	San Lucas Tolimán	8	Agosto	2023-08-20T00:00:00	2024-11-08T04:00:00	4	Temperatura máxima	18.1
142611	7	Sololá	713	San Lucas Tolimán	10	San Lucas Tolimán	8	Agosto	2023-08-20T00:00:00	2024-11-08T04:00:00	3	Temperatura mínima	17.4
142612	7	Sololá	713	San Lucas Tolimán	10	San Lucas Tolimán	8	Agosto	2023-08-20T00:00:00	2024-11-08T04:00:00	5	Humedad	54
142613	7	Sololá	713	San Lucas Tolimán	10	San Lucas Tolimán	8	Agosto	2023-08-20T00:00:00	2024-11-08T04:00:00	6	Velocidad del viento	3.2
142614	7	Sololá	713	San Lucas Tolimán	10	San Lucas Tolimán	8	Agosto	2023-08-20T00:00:00	2024-11-08T04:00:00	7	Dirección del viento	3.22
142615	7	Sololá	713	San Lucas Tolimán	10	San Lucas Tolimán	8	Agosto	2023-08-20T00:00:00	2024-11-08T04:00:00	1	Precipitación	0
142616	7	Sololá	713	San Lucas Tolimán	10	San Lucas Tolimán	8	Agosto	2023-08-20T00:00:00	2024-11-08T04:00:00	8	Radiación solar	0
142617	7	Sololá	713	San Lucas Tolimán	10	San Lucas Tolimán	8	Agosto	2023-08-20T00:00:00	2024-11-08T05:00:00	2	Temperatura media	16.8
142618	7	Sololá	713	San Lucas Tolimán	10	San Lucas Tolimán	8	Agosto	2023-08-20T00:00:00	2024-11-08T05:00:00	4	Temperatura máxima	17.6
142619	7	Sololá	713	San Lucas Tolimán	10	San Lucas Tolimán	8	Agosto	2023-08-20T00:00:00	2024-11-08T05:00:00	3	Temperatura mínima	16.4
142620	7	Sololá	713	San Lucas Tolimán	10	San Lucas Tolimán	8	Agosto	2023-08-20T00:00:00	2024-11-08T05:00:00	5	Humedad	55
142621	7	Sololá	713	San Lucas Tolimán	10	San Lucas Tolimán	8	Agosto	2023-08-20T00:00:00	2024-11-08T05:00:00	6	Velocidad del viento	3.2
142622	7	Sololá	713	San Lucas Tolimán	10	San Lucas Tolimán	8	Agosto	2023-08-20T00:00:00	2024-11-08T05:00:00	7	Dirección del viento	3.22
142623	7	Sololá	713	San Lucas Tolimán	10	San Lucas Tolimán	8	Agosto	2023-08-20T00:00:00	2024-11-08T05:00:00	1	Precipitación	0
142624	7	Sololá	713	San Lucas Tolimán	10	San Lucas Tolimán	8	Agosto	2023-08-20T00:00:00	2024-11-08T05:00:00	8	Radiación solar	0
142625	7	Sololá	713	San Lucas Tolimán	10	San Lucas Tolimán	8	Agosto	2023-08-20T00:00:00	2024-11-08T06:00:00	2	Temperatura media	16.8
142626	7	Sololá	713	San Lucas Tolimán	10	San Lucas Tolimán	8	Agosto	2023-08-20T00:00:00	2024-11-08T06:00:00	4	Temperatura máxima	17.1
142627	7	Sololá	713	San Lucas Tolimán	10	San Lucas Tolimán	8	Agosto	2023-08-20T00:00:00	2024-11-08T06:00:00	3	Temperatura mínima	16.7
142628	7	Sololá	713	San Lucas Tolimán	10	San Lucas Tolimán	8	Agosto	2023-08-20T00:00:00	2024-11-08T06:00:00	5	Humedad	56
142629	7	Sololá	713	San Lucas Tolimán	10	San Lucas Tolimán	8	Agosto	2023-08-20T00:00:00	2024-11-08T06:00:00	6	Velocidad del viento	4.8
142630	7	Sololá	713	San Lucas Tolimán	10	San Lucas Tolimán	8	Agosto	2023-08-20T00:00:00	2024-11-08T06:00:00	7	Dirección del viento	4.83
142631	7	Sololá	713	San Lucas Tolimán	10	San Lucas Tolimán	8	Agosto	2023-08-20T00:00:00	2024-11-08T06:00:00	1	Precipitación	0
142632	7	Sololá	713	San Lucas Tolimán	10	San Lucas Tolimán	8	Agosto	2023-08-20T00:00:00	2024-11-08T06:00:00	8	Radiación solar	1
142633	7	Sololá	713	San Lucas Tolimán	10	San Lucas Tolimán	8	Agosto	2023-08-20T00:00:00	2024-11-08T07:00:00	2	Temperatura media	18.3
142634	7	Sololá	713	San Lucas Tolimán	10	San Lucas Tolimán	8	Agosto	2023-08-20T00:00:00	2024-11-08T07:00:00	4	Temperatura máxima	18.3
142635	7	Sololá	713	San Lucas Tolimán	10	San Lucas Tolimán	8	Agosto	2023-08-20T00:00:00	2024-11-08T07:00:00	3	Temperatura mínima	16.8
142636	7	Sololá	713	San Lucas Tolimán	10	San Lucas Tolimán	8	Agosto	2023-08-20T00:00:00	2024-11-08T07:00:00	5	Humedad	53
142637	7	Sololá	713	San Lucas Tolimán	10	San Lucas Tolimán	8	Agosto	2023-08-20T00:00:00	2024-11-08T07:00:00	6	Velocidad del viento	4.8
142638	7	Sololá	713	San Lucas Tolimán	10	San Lucas Tolimán	8	Agosto	2023-08-20T00:00:00	2024-11-08T07:00:00	7	Dirección del viento	4.83
142639	7	Sololá	713	San Lucas Tolimán	10	San Lucas Tolimán	8	Agosto	2023-08-20T00:00:00	2024-11-08T07:00:00	1	Precipitación	0
142640	7	Sololá	713	San Lucas Tolimán	10	San Lucas Tolimán	8	Agosto	2023-08-20T00:00:00	2024-11-08T07:00:00	8	Radiación solar	57
142641	7	Sololá	713	San Lucas Tolimán	10	San Lucas Tolimán	8	Agosto	2023-08-20T00:00:00	2024-11-08T08:00:00	2	Temperatura media	20.7
142642	7	Sololá	713	San Lucas Tolimán	10	San Lucas Tolimán	8	Agosto	2023-08-20T00:00:00	2024-11-08T08:00:00	4	Temperatura máxima	20.7
142643	7	Sololá	713	San Lucas Tolimán	10	San Lucas Tolimán	8	Agosto	2023-08-20T00:00:00	2024-11-08T08:00:00	3	Temperatura mínima	18.3
142644	7	Sololá	713	San Lucas Tolimán	10	San Lucas Tolimán	8	Agosto	2023-08-20T00:00:00	2024-11-08T08:00:00	5	Humedad	47
142645	7	Sololá	713	San Lucas Tolimán	10	San Lucas Tolimán	8	Agosto	2023-08-20T00:00:00	2024-11-08T08:00:00	6	Velocidad del viento	4.8
142646	7	Sololá	713	San Lucas Tolimán	10	San Lucas Tolimán	8	Agosto	2023-08-20T00:00:00	2024-11-08T08:00:00	7	Dirección del viento	4.83
142647	7	Sololá	713	San Lucas Tolimán	10	San Lucas Tolimán	8	Agosto	2023-08-20T00:00:00	2024-11-08T08:00:00	1	Precipitación	0
142648	7	Sololá	713	San Lucas Tolimán	10	San Lucas Tolimán	8	Agosto	2023-08-20T00:00:00	2024-11-08T08:00:00	8	Radiación solar	322
142649	7	Sololá	713	San Lucas Tolimán	10	San Lucas Tolimán	8	Agosto	2023-08-20T00:00:00	2024-11-08T09:00:00	2	Temperatura media	22.6
142650	7	Sololá	713	San Lucas Tolimán	10	San Lucas Tolimán	8	Agosto	2023-08-20T00:00:00	2024-11-08T09:00:00	4	Temperatura máxima	22.6
142651	7	Sololá	713	San Lucas Tolimán	10	San Lucas Tolimán	8	Agosto	2023-08-20T00:00:00	2024-11-08T09:00:00	3	Temperatura mínima	20.7
142652	7	Sololá	713	San Lucas Tolimán	10	San Lucas Tolimán	8	Agosto	2023-08-20T00:00:00	2024-11-08T09:00:00	5	Humedad	39
142653	7	Sololá	713	San Lucas Tolimán	10	San Lucas Tolimán	8	Agosto	2023-08-20T00:00:00	2024-11-08T09:00:00	6	Velocidad del viento	4.8
142654	7	Sololá	713	San Lucas Tolimán	10	San Lucas Tolimán	8	Agosto	2023-08-20T00:00:00	2024-11-08T09:00:00	7	Dirección del viento	4.83
142655	7	Sololá	713	San Lucas Tolimán	10	San Lucas Tolimán	8	Agosto	2023-08-20T00:00:00	2024-11-08T09:00:00	1	Precipitación	0
142656	7	Sololá	713	San Lucas Tolimán	10	San Lucas Tolimán	8	Agosto	2023-08-20T00:00:00	2024-11-08T09:00:00	8	Radiación solar	587
142657	7	Sololá	713	San Lucas Tolimán	10	San Lucas Tolimán	8	Agosto	2023-08-20T00:00:00	2024-11-08T10:00:00	2	Temperatura media	25.4
142658	7	Sololá	713	San Lucas Tolimán	10	San Lucas Tolimán	8	Agosto	2023-08-20T00:00:00	2024-11-08T10:00:00	4	Temperatura máxima	25.4
142659	7	Sololá	713	San Lucas Tolimán	10	San Lucas Tolimán	8	Agosto	2023-08-20T00:00:00	2024-11-08T10:00:00	3	Temperatura mínima	22.6
142660	7	Sololá	713	San Lucas Tolimán	10	San Lucas Tolimán	8	Agosto	2023-08-20T00:00:00	2024-11-08T10:00:00	5	Humedad	38
142661	7	Sololá	713	San Lucas Tolimán	10	San Lucas Tolimán	8	Agosto	2023-08-20T00:00:00	2024-11-08T10:00:00	6	Velocidad del viento	4.8
142662	7	Sololá	713	San Lucas Tolimán	10	San Lucas Tolimán	8	Agosto	2023-08-20T00:00:00	2024-11-08T10:00:00	7	Dirección del viento	4.83
142663	7	Sololá	713	San Lucas Tolimán	10	San Lucas Tolimán	8	Agosto	2023-08-20T00:00:00	2024-11-08T10:00:00	1	Precipitación	0
142664	7	Sololá	713	San Lucas Tolimán	10	San Lucas Tolimán	8	Agosto	2023-08-20T00:00:00	2024-11-08T10:00:00	8	Radiación solar	808
142665	7	Sololá	713	San Lucas Tolimán	10	San Lucas Tolimán	8	Agosto	2023-08-20T00:00:00	2024-11-08T11:00:00	2	Temperatura media	24.2
142666	7	Sololá	713	San Lucas Tolimán	10	San Lucas Tolimán	8	Agosto	2023-08-20T00:00:00	2024-11-08T11:00:00	4	Temperatura máxima	25.7
142667	7	Sololá	713	San Lucas Tolimán	10	San Lucas Tolimán	8	Agosto	2023-08-20T00:00:00	2024-11-08T11:00:00	3	Temperatura mínima	24.1
142668	7	Sololá	713	San Lucas Tolimán	10	San Lucas Tolimán	8	Agosto	2023-08-20T00:00:00	2024-11-08T11:00:00	5	Humedad	49
142669	7	Sololá	713	San Lucas Tolimán	10	San Lucas Tolimán	8	Agosto	2023-08-20T00:00:00	2024-11-08T11:00:00	6	Velocidad del viento	8
142670	7	Sololá	713	San Lucas Tolimán	10	San Lucas Tolimán	8	Agosto	2023-08-20T00:00:00	2024-11-08T11:00:00	7	Dirección del viento	8.05
142671	7	Sololá	713	San Lucas Tolimán	10	San Lucas Tolimán	8	Agosto	2023-08-20T00:00:00	2024-11-08T11:00:00	1	Precipitación	0
142672	7	Sololá	713	San Lucas Tolimán	10	San Lucas Tolimán	8	Agosto	2023-08-20T00:00:00	2024-11-08T11:00:00	8	Radiación solar	968
142673	7	Sololá	713	San Lucas Tolimán	10	San Lucas Tolimán	8	Agosto	2023-08-20T00:00:00	2024-11-08T12:00:00	2	Temperatura media	23.9
142674	7	Sololá	713	San Lucas Tolimán	10	San Lucas Tolimán	8	Agosto	2023-08-20T00:00:00	2024-11-08T12:00:00	4	Temperatura máxima	24.6
142675	7	Sololá	713	San Lucas Tolimán	10	San Lucas Tolimán	8	Agosto	2023-08-20T00:00:00	2024-11-08T12:00:00	3	Temperatura mínima	23.6
142676	7	Sololá	713	San Lucas Tolimán	10	San Lucas Tolimán	8	Agosto	2023-08-20T00:00:00	2024-11-08T12:00:00	5	Humedad	53
142677	7	Sololá	713	San Lucas Tolimán	10	San Lucas Tolimán	8	Agosto	2023-08-20T00:00:00	2024-11-08T12:00:00	6	Velocidad del viento	11.3
142678	7	Sololá	713	San Lucas Tolimán	10	San Lucas Tolimán	8	Agosto	2023-08-20T00:00:00	2024-11-08T12:00:00	7	Dirección del viento	11.27
142679	7	Sololá	713	San Lucas Tolimán	10	San Lucas Tolimán	8	Agosto	2023-08-20T00:00:00	2024-11-08T12:00:00	1	Precipitación	0
142680	7	Sololá	713	San Lucas Tolimán	10	San Lucas Tolimán	8	Agosto	2023-08-20T00:00:00	2024-11-08T12:00:00	8	Radiación solar	1062
142681	7	Sololá	713	San Lucas Tolimán	10	San Lucas Tolimán	8	Agosto	2023-08-20T00:00:00	2024-11-08T13:00:00	2	Temperatura media	24.1
142682	7	Sololá	713	San Lucas Tolimán	10	San Lucas Tolimán	8	Agosto	2023-08-20T00:00:00	2024-11-08T13:00:00	4	Temperatura máxima	24.6
142683	7	Sololá	713	San Lucas Tolimán	10	San Lucas Tolimán	8	Agosto	2023-08-20T00:00:00	2024-11-08T13:00:00	3	Temperatura mínima	23.9
142684	7	Sololá	713	San Lucas Tolimán	10	San Lucas Tolimán	8	Agosto	2023-08-20T00:00:00	2024-11-08T13:00:00	5	Humedad	56
142685	7	Sololá	713	San Lucas Tolimán	10	San Lucas Tolimán	8	Agosto	2023-08-20T00:00:00	2024-11-08T13:00:00	6	Velocidad del viento	11.3
142686	7	Sololá	713	San Lucas Tolimán	10	San Lucas Tolimán	8	Agosto	2023-08-20T00:00:00	2024-11-08T13:00:00	7	Dirección del viento	11.27
142687	7	Sololá	713	San Lucas Tolimán	10	San Lucas Tolimán	8	Agosto	2023-08-20T00:00:00	2024-11-08T13:00:00	1	Precipitación	0
142688	7	Sololá	713	San Lucas Tolimán	10	San Lucas Tolimán	8	Agosto	2023-08-20T00:00:00	2024-11-08T13:00:00	8	Radiación solar	1085
142689	7	Sololá	713	San Lucas Tolimán	10	San Lucas Tolimán	8	Agosto	2023-08-20T00:00:00	2024-11-08T14:00:00	2	Temperatura media	22.6
142690	7	Sololá	713	San Lucas Tolimán	10	San Lucas Tolimán	8	Agosto	2023-08-20T00:00:00	2024-11-08T14:00:00	4	Temperatura máxima	24.1
142691	7	Sololá	713	San Lucas Tolimán	10	San Lucas Tolimán	8	Agosto	2023-08-20T00:00:00	2024-11-08T14:00:00	3	Temperatura mínima	22.4
142692	7	Sololá	713	San Lucas Tolimán	10	San Lucas Tolimán	8	Agosto	2023-08-20T00:00:00	2024-11-08T14:00:00	5	Humedad	61
142693	7	Sololá	713	San Lucas Tolimán	10	San Lucas Tolimán	8	Agosto	2023-08-20T00:00:00	2024-11-08T14:00:00	6	Velocidad del viento	14.5
142694	7	Sololá	713	San Lucas Tolimán	10	San Lucas Tolimán	8	Agosto	2023-08-20T00:00:00	2024-11-08T14:00:00	7	Dirección del viento	14.48
142695	7	Sololá	713	San Lucas Tolimán	10	San Lucas Tolimán	8	Agosto	2023-08-20T00:00:00	2024-11-08T14:00:00	1	Precipitación	0
142696	7	Sololá	713	San Lucas Tolimán	10	San Lucas Tolimán	8	Agosto	2023-08-20T00:00:00	2024-11-08T14:00:00	8	Radiación solar	960
142697	7	Sololá	713	San Lucas Tolimán	10	San Lucas Tolimán	8	Agosto	2023-08-20T00:00:00	2024-11-08T15:00:00	2	Temperatura media	23.6
142698	7	Sololá	713	San Lucas Tolimán	10	San Lucas Tolimán	8	Agosto	2023-08-20T00:00:00	2024-11-08T15:00:00	4	Temperatura máxima	24.1
142699	7	Sololá	713	San Lucas Tolimán	10	San Lucas Tolimán	8	Agosto	2023-08-20T00:00:00	2024-11-08T15:00:00	3	Temperatura mínima	22.6
142700	7	Sololá	713	San Lucas Tolimán	10	San Lucas Tolimán	8	Agosto	2023-08-20T00:00:00	2024-11-08T15:00:00	5	Humedad	58
142701	7	Sololá	713	San Lucas Tolimán	10	San Lucas Tolimán	8	Agosto	2023-08-20T00:00:00	2024-11-08T15:00:00	6	Velocidad del viento	11.3
142702	7	Sololá	713	San Lucas Tolimán	10	San Lucas Tolimán	8	Agosto	2023-08-20T00:00:00	2024-11-08T15:00:00	7	Dirección del viento	11.27
142703	7	Sololá	713	San Lucas Tolimán	10	San Lucas Tolimán	8	Agosto	2023-08-20T00:00:00	2024-11-08T15:00:00	1	Precipitación	0
142704	7	Sololá	713	San Lucas Tolimán	10	San Lucas Tolimán	8	Agosto	2023-08-20T00:00:00	2024-11-08T15:00:00	8	Radiación solar	985
142705	7	Sololá	713	San Lucas Tolimán	10	San Lucas Tolimán	8	Agosto	2023-08-20T00:00:00	2024-11-08T16:00:00	2	Temperatura media	23.3
142706	7	Sololá	713	San Lucas Tolimán	10	San Lucas Tolimán	8	Agosto	2023-08-20T00:00:00	2024-11-08T16:00:00	4	Temperatura máxima	23.8
142707	7	Sololá	713	San Lucas Tolimán	10	San Lucas Tolimán	8	Agosto	2023-08-20T00:00:00	2024-11-08T16:00:00	3	Temperatura mínima	22.9
142708	7	Sololá	713	San Lucas Tolimán	10	San Lucas Tolimán	8	Agosto	2023-08-20T00:00:00	2024-11-08T16:00:00	5	Humedad	60
142709	7	Sololá	713	San Lucas Tolimán	10	San Lucas Tolimán	8	Agosto	2023-08-20T00:00:00	2024-11-08T16:00:00	6	Velocidad del viento	12.9
142710	7	Sololá	713	San Lucas Tolimán	10	San Lucas Tolimán	8	Agosto	2023-08-20T00:00:00	2024-11-08T16:00:00	7	Dirección del viento	12.87
142711	7	Sololá	713	San Lucas Tolimán	10	San Lucas Tolimán	8	Agosto	2023-08-20T00:00:00	2024-11-08T16:00:00	1	Precipitación	0
142712	7	Sololá	713	San Lucas Tolimán	10	San Lucas Tolimán	8	Agosto	2023-08-20T00:00:00	2024-11-08T16:00:00	8	Radiación solar	695
142713	7	Sololá	713	San Lucas Tolimán	10	San Lucas Tolimán	8	Agosto	2023-08-20T00:00:00	2024-11-08T17:00:00	2	Temperatura media	22.9
142714	7	Sololá	713	San Lucas Tolimán	10	San Lucas Tolimán	8	Agosto	2023-08-20T00:00:00	2024-11-08T17:00:00	4	Temperatura máxima	23.7
142715	7	Sololá	713	San Lucas Tolimán	10	San Lucas Tolimán	8	Agosto	2023-08-20T00:00:00	2024-11-08T17:00:00	3	Temperatura mínima	22.1
142716	7	Sololá	713	San Lucas Tolimán	10	San Lucas Tolimán	8	Agosto	2023-08-20T00:00:00	2024-11-08T17:00:00	5	Humedad	60
142717	7	Sololá	713	San Lucas Tolimán	10	San Lucas Tolimán	8	Agosto	2023-08-20T00:00:00	2024-11-08T17:00:00	6	Velocidad del viento	9.7
142718	7	Sololá	713	San Lucas Tolimán	10	San Lucas Tolimán	8	Agosto	2023-08-20T00:00:00	2024-11-08T17:00:00	7	Dirección del viento	9.66
142719	7	Sololá	713	San Lucas Tolimán	10	San Lucas Tolimán	8	Agosto	2023-08-20T00:00:00	2024-11-08T17:00:00	1	Precipitación	0
142720	7	Sololá	713	San Lucas Tolimán	10	San Lucas Tolimán	8	Agosto	2023-08-20T00:00:00	2024-11-08T17:00:00	8	Radiación solar	359
142721	7	Sololá	713	San Lucas Tolimán	10	San Lucas Tolimán	8	Agosto	2023-08-20T00:00:00	2024-11-08T18:00:00	2	Temperatura media	20.7
142722	7	Sololá	713	San Lucas Tolimán	10	San Lucas Tolimán	8	Agosto	2023-08-20T00:00:00	2024-11-08T18:00:00	4	Temperatura máxima	23.3
142723	7	Sololá	713	San Lucas Tolimán	10	San Lucas Tolimán	8	Agosto	2023-08-20T00:00:00	2024-11-08T18:00:00	3	Temperatura mínima	20.7
142724	7	Sololá	713	San Lucas Tolimán	10	San Lucas Tolimán	8	Agosto	2023-08-20T00:00:00	2024-11-08T18:00:00	5	Humedad	61
142725	7	Sololá	713	San Lucas Tolimán	10	San Lucas Tolimán	8	Agosto	2023-08-20T00:00:00	2024-11-08T18:00:00	6	Velocidad del viento	8
142726	7	Sololá	713	San Lucas Tolimán	10	San Lucas Tolimán	8	Agosto	2023-08-20T00:00:00	2024-11-08T18:00:00	7	Dirección del viento	8.05
142727	7	Sololá	713	San Lucas Tolimán	10	San Lucas Tolimán	8	Agosto	2023-08-20T00:00:00	2024-11-08T18:00:00	1	Precipitación	0
142728	7	Sololá	713	San Lucas Tolimán	10	San Lucas Tolimán	8	Agosto	2023-08-20T00:00:00	2024-11-08T18:00:00	8	Radiación solar	104
142729	7	Sololá	713	San Lucas Tolimán	10	San Lucas Tolimán	8	Agosto	2023-08-20T00:00:00	2024-11-08T19:00:00	2	Temperatura media	20.2
142730	7	Sololá	713	San Lucas Tolimán	10	San Lucas Tolimán	8	Agosto	2023-08-20T00:00:00	2024-11-08T19:00:00	4	Temperatura máxima	20.7
142731	7	Sololá	713	San Lucas Tolimán	10	San Lucas Tolimán	8	Agosto	2023-08-20T00:00:00	2024-11-08T19:00:00	3	Temperatura mínima	20.2
142732	7	Sololá	713	San Lucas Tolimán	10	San Lucas Tolimán	8	Agosto	2023-08-20T00:00:00	2024-11-08T19:00:00	5	Humedad	62
142733	7	Sololá	713	San Lucas Tolimán	10	San Lucas Tolimán	8	Agosto	2023-08-20T00:00:00	2024-11-08T19:00:00	6	Velocidad del viento	6.4
142734	7	Sololá	713	San Lucas Tolimán	10	San Lucas Tolimán	8	Agosto	2023-08-20T00:00:00	2024-11-08T19:00:00	7	Dirección del viento	6.44
142735	7	Sololá	713	San Lucas Tolimán	10	San Lucas Tolimán	8	Agosto	2023-08-20T00:00:00	2024-11-08T19:00:00	1	Precipitación	0
142736	7	Sololá	713	San Lucas Tolimán	10	San Lucas Tolimán	8	Agosto	2023-08-20T00:00:00	2024-11-08T19:00:00	8	Radiación solar	0
142737	7	Sololá	713	San Lucas Tolimán	10	San Lucas Tolimán	8	Agosto	2023-08-20T00:00:00	2024-11-08T20:00:00	2	Temperatura media	20.2
142738	7	Sololá	713	San Lucas Tolimán	10	San Lucas Tolimán	8	Agosto	2023-08-20T00:00:00	2024-11-08T20:00:00	4	Temperatura máxima	20.3
142739	7	Sololá	713	San Lucas Tolimán	10	San Lucas Tolimán	8	Agosto	2023-08-20T00:00:00	2024-11-08T20:00:00	3	Temperatura mínima	19.6
142740	7	Sololá	713	San Lucas Tolimán	10	San Lucas Tolimán	8	Agosto	2023-08-20T00:00:00	2024-11-08T20:00:00	5	Humedad	56
142741	7	Sololá	713	San Lucas Tolimán	10	San Lucas Tolimán	8	Agosto	2023-08-20T00:00:00	2024-11-08T20:00:00	6	Velocidad del viento	3.2
142742	7	Sololá	713	San Lucas Tolimán	10	San Lucas Tolimán	8	Agosto	2023-08-20T00:00:00	2024-11-08T20:00:00	7	Dirección del viento	3.22
142743	7	Sololá	713	San Lucas Tolimán	10	San Lucas Tolimán	8	Agosto	2023-08-20T00:00:00	2024-11-08T20:00:00	1	Precipitación	0
142744	7	Sololá	713	San Lucas Tolimán	10	San Lucas Tolimán	8	Agosto	2023-08-20T00:00:00	2024-11-08T20:00:00	8	Radiación solar	0
142745	7	Sololá	713	San Lucas Tolimán	10	San Lucas Tolimán	8	Agosto	2023-08-20T00:00:00	2024-11-08T21:00:00	2	Temperatura media	21.6
142746	7	Sololá	713	San Lucas Tolimán	10	San Lucas Tolimán	8	Agosto	2023-08-20T00:00:00	2024-11-08T21:00:00	4	Temperatura máxima	21.6
142747	7	Sololá	713	San Lucas Tolimán	10	San Lucas Tolimán	8	Agosto	2023-08-20T00:00:00	2024-11-08T21:00:00	3	Temperatura mínima	20.2
142748	7	Sololá	713	San Lucas Tolimán	10	San Lucas Tolimán	8	Agosto	2023-08-20T00:00:00	2024-11-08T21:00:00	5	Humedad	54
142749	7	Sololá	713	San Lucas Tolimán	10	San Lucas Tolimán	8	Agosto	2023-08-20T00:00:00	2024-11-08T21:00:00	6	Velocidad del viento	8
142750	7	Sololá	713	San Lucas Tolimán	10	San Lucas Tolimán	8	Agosto	2023-08-20T00:00:00	2024-11-08T21:00:00	7	Dirección del viento	8.05
142751	7	Sololá	713	San Lucas Tolimán	10	San Lucas Tolimán	8	Agosto	2023-08-20T00:00:00	2024-11-08T21:00:00	1	Precipitación	0
142752	7	Sololá	713	San Lucas Tolimán	10	San Lucas Tolimán	8	Agosto	2023-08-20T00:00:00	2024-11-08T21:00:00	8	Radiación solar	0
142753	7	Sololá	713	San Lucas Tolimán	10	San Lucas Tolimán	8	Agosto	2023-08-20T00:00:00	2024-11-08T22:00:00	2	Temperatura media	21.6
142754	7	Sololá	713	San Lucas Tolimán	10	San Lucas Tolimán	8	Agosto	2023-08-20T00:00:00	2024-11-08T22:00:00	4	Temperatura máxima	21.6
142755	7	Sololá	713	San Lucas Tolimán	10	San Lucas Tolimán	8	Agosto	2023-08-20T00:00:00	2024-11-08T22:00:00	3	Temperatura mínima	21.2
142756	7	Sololá	713	San Lucas Tolimán	10	San Lucas Tolimán	8	Agosto	2023-08-20T00:00:00	2024-11-08T22:00:00	5	Humedad	53
142757	7	Sololá	713	San Lucas Tolimán	10	San Lucas Tolimán	8	Agosto	2023-08-20T00:00:00	2024-11-08T22:00:00	6	Velocidad del viento	9.7
142758	7	Sololá	713	San Lucas Tolimán	10	San Lucas Tolimán	8	Agosto	2023-08-20T00:00:00	2024-11-08T22:00:00	7	Dirección del viento	9.66
142759	7	Sololá	713	San Lucas Tolimán	10	San Lucas Tolimán	8	Agosto	2023-08-20T00:00:00	2024-11-08T22:00:00	1	Precipitación	0
142760	7	Sololá	713	San Lucas Tolimán	10	San Lucas Tolimán	8	Agosto	2023-08-20T00:00:00	2024-11-08T22:00:00	8	Radiación solar	0
142761	7	Sololá	713	San Lucas Tolimán	10	San Lucas Tolimán	8	Agosto	2023-08-20T00:00:00	2024-11-08T23:00:00	2	Temperatura media	21
142762	7	Sololá	713	San Lucas Tolimán	10	San Lucas Tolimán	8	Agosto	2023-08-20T00:00:00	2024-11-08T23:00:00	4	Temperatura máxima	21.6
142763	7	Sololá	713	San Lucas Tolimán	10	San Lucas Tolimán	8	Agosto	2023-08-20T00:00:00	2024-11-08T23:00:00	3	Temperatura mínima	20.9
142764	7	Sololá	713	San Lucas Tolimán	10	San Lucas Tolimán	8	Agosto	2023-08-20T00:00:00	2024-11-08T23:00:00	5	Humedad	55
142765	7	Sololá	713	San Lucas Tolimán	10	San Lucas Tolimán	8	Agosto	2023-08-20T00:00:00	2024-11-08T23:00:00	6	Velocidad del viento	8
142766	7	Sololá	713	San Lucas Tolimán	10	San Lucas Tolimán	8	Agosto	2023-08-20T00:00:00	2024-11-08T23:00:00	7	Dirección del viento	8.05
142767	7	Sololá	713	San Lucas Tolimán	10	San Lucas Tolimán	8	Agosto	2023-08-20T00:00:00	2024-11-08T23:00:00	1	Precipitación	0
142768	7	Sololá	713	San Lucas Tolimán	10	San Lucas Tolimán	8	Agosto	2023-08-20T00:00:00	2024-11-08T23:00:00	8	Radiación solar	0
142769	7	Sololá	713	San Lucas Tolimán	10	San Lucas Tolimán	8	Agosto	2023-08-21T00:00:00	2024-11-08T00:00:00	2	Temperatura media	19.6
142770	7	Sololá	713	San Lucas Tolimán	10	San Lucas Tolimán	8	Agosto	2023-08-21T00:00:00	2024-11-08T00:00:00	4	Temperatura máxima	21
142771	7	Sololá	713	San Lucas Tolimán	10	San Lucas Tolimán	8	Agosto	2023-08-21T00:00:00	2024-11-08T00:00:00	3	Temperatura mínima	19.6
142772	7	Sololá	713	San Lucas Tolimán	10	San Lucas Tolimán	8	Agosto	2023-08-21T00:00:00	2024-11-08T00:00:00	5	Humedad	59
142773	7	Sololá	713	San Lucas Tolimán	10	San Lucas Tolimán	8	Agosto	2023-08-21T00:00:00	2024-11-08T00:00:00	6	Velocidad del viento	3.2
142774	7	Sololá	713	San Lucas Tolimán	10	San Lucas Tolimán	8	Agosto	2023-08-21T00:00:00	2024-11-08T00:00:00	7	Dirección del viento	3.22
142775	7	Sololá	713	San Lucas Tolimán	10	San Lucas Tolimán	8	Agosto	2023-08-21T00:00:00	2024-11-08T00:00:00	1	Precipitación	0
142776	7	Sololá	713	San Lucas Tolimán	10	San Lucas Tolimán	8	Agosto	2023-08-21T00:00:00	2024-11-08T00:00:00	8	Radiación solar	0
142777	7	Sololá	713	San Lucas Tolimán	10	San Lucas Tolimán	8	Agosto	2023-08-21T00:00:00	2024-11-08T01:00:00	2	Temperatura media	19.3
142778	7	Sololá	713	San Lucas Tolimán	10	San Lucas Tolimán	8	Agosto	2023-08-21T00:00:00	2024-11-08T01:00:00	4	Temperatura máxima	19.7
142779	7	Sololá	713	San Lucas Tolimán	10	San Lucas Tolimán	8	Agosto	2023-08-21T00:00:00	2024-11-08T01:00:00	3	Temperatura mínima	19.1
142780	7	Sololá	713	San Lucas Tolimán	10	San Lucas Tolimán	8	Agosto	2023-08-21T00:00:00	2024-11-08T01:00:00	5	Humedad	60
142781	7	Sololá	713	San Lucas Tolimán	10	San Lucas Tolimán	8	Agosto	2023-08-21T00:00:00	2024-11-08T01:00:00	6	Velocidad del viento	3.2
142782	7	Sololá	713	San Lucas Tolimán	10	San Lucas Tolimán	8	Agosto	2023-08-21T00:00:00	2024-11-08T01:00:00	7	Dirección del viento	3.22
142783	7	Sololá	713	San Lucas Tolimán	10	San Lucas Tolimán	8	Agosto	2023-08-21T00:00:00	2024-11-08T01:00:00	1	Precipitación	0
142784	7	Sololá	713	San Lucas Tolimán	10	San Lucas Tolimán	8	Agosto	2023-08-21T00:00:00	2024-11-08T01:00:00	8	Radiación solar	0
142785	7	Sololá	713	San Lucas Tolimán	10	San Lucas Tolimán	8	Agosto	2023-08-21T00:00:00	2024-11-08T02:00:00	2	Temperatura media	19.1
142786	7	Sololá	713	San Lucas Tolimán	10	San Lucas Tolimán	8	Agosto	2023-08-21T00:00:00	2024-11-08T02:00:00	4	Temperatura máxima	19.3
142787	7	Sololá	713	San Lucas Tolimán	10	San Lucas Tolimán	8	Agosto	2023-08-21T00:00:00	2024-11-08T02:00:00	3	Temperatura mínima	18.8
142788	7	Sololá	713	San Lucas Tolimán	10	San Lucas Tolimán	8	Agosto	2023-08-21T00:00:00	2024-11-08T02:00:00	5	Humedad	59
142789	7	Sololá	713	San Lucas Tolimán	10	San Lucas Tolimán	8	Agosto	2023-08-21T00:00:00	2024-11-08T02:00:00	6	Velocidad del viento	0
142790	7	Sololá	713	San Lucas Tolimán	10	San Lucas Tolimán	8	Agosto	2023-08-21T00:00:00	2024-11-08T02:00:00	7	Dirección del viento	0
142791	7	Sololá	713	San Lucas Tolimán	10	San Lucas Tolimán	8	Agosto	2023-08-21T00:00:00	2024-11-08T02:00:00	1	Precipitación	0
142792	7	Sololá	713	San Lucas Tolimán	10	San Lucas Tolimán	8	Agosto	2023-08-21T00:00:00	2024-11-08T02:00:00	8	Radiación solar	0
142793	7	Sololá	713	San Lucas Tolimán	10	San Lucas Tolimán	8	Agosto	2023-08-21T00:00:00	2024-11-08T03:00:00	2	Temperatura media	20.1
142794	7	Sololá	713	San Lucas Tolimán	10	San Lucas Tolimán	8	Agosto	2023-08-21T00:00:00	2024-11-08T03:00:00	4	Temperatura máxima	20.2
142795	7	Sololá	713	San Lucas Tolimán	10	San Lucas Tolimán	8	Agosto	2023-08-21T00:00:00	2024-11-08T03:00:00	3	Temperatura mínima	18.9
142796	7	Sololá	713	San Lucas Tolimán	10	San Lucas Tolimán	8	Agosto	2023-08-21T00:00:00	2024-11-08T03:00:00	5	Humedad	54
142797	7	Sololá	713	San Lucas Tolimán	10	San Lucas Tolimán	8	Agosto	2023-08-21T00:00:00	2024-11-08T03:00:00	6	Velocidad del viento	9.7
142798	7	Sololá	713	San Lucas Tolimán	10	San Lucas Tolimán	8	Agosto	2023-08-21T00:00:00	2024-11-08T03:00:00	7	Dirección del viento	9.66
142799	7	Sololá	713	San Lucas Tolimán	10	San Lucas Tolimán	8	Agosto	2023-08-21T00:00:00	2024-11-08T03:00:00	1	Precipitación	0
142800	7	Sololá	713	San Lucas Tolimán	10	San Lucas Tolimán	8	Agosto	2023-08-21T00:00:00	2024-11-08T03:00:00	8	Radiación solar	0
142801	7	Sololá	713	San Lucas Tolimán	10	San Lucas Tolimán	8	Agosto	2023-08-21T00:00:00	2024-11-08T04:00:00	2	Temperatura media	18.5
142802	7	Sololá	713	San Lucas Tolimán	10	San Lucas Tolimán	8	Agosto	2023-08-21T00:00:00	2024-11-08T04:00:00	4	Temperatura máxima	20.2
142803	7	Sololá	713	San Lucas Tolimán	10	San Lucas Tolimán	8	Agosto	2023-08-21T00:00:00	2024-11-08T04:00:00	3	Temperatura mínima	18.5
142804	7	Sololá	713	San Lucas Tolimán	10	San Lucas Tolimán	8	Agosto	2023-08-21T00:00:00	2024-11-08T04:00:00	5	Humedad	59
142805	7	Sololá	713	San Lucas Tolimán	10	San Lucas Tolimán	8	Agosto	2023-08-21T00:00:00	2024-11-08T04:00:00	6	Velocidad del viento	8
142806	7	Sololá	713	San Lucas Tolimán	10	San Lucas Tolimán	8	Agosto	2023-08-21T00:00:00	2024-11-08T04:00:00	7	Dirección del viento	8.05
142807	7	Sololá	713	San Lucas Tolimán	10	San Lucas Tolimán	8	Agosto	2023-08-21T00:00:00	2024-11-08T04:00:00	1	Precipitación	0
142808	7	Sololá	713	San Lucas Tolimán	10	San Lucas Tolimán	8	Agosto	2023-08-21T00:00:00	2024-11-08T04:00:00	8	Radiación solar	0
142809	7	Sololá	713	San Lucas Tolimán	10	San Lucas Tolimán	8	Agosto	2023-08-21T00:00:00	2024-11-08T05:00:00	2	Temperatura media	18.7
142810	7	Sololá	713	San Lucas Tolimán	10	San Lucas Tolimán	8	Agosto	2023-08-21T00:00:00	2024-11-08T05:00:00	4	Temperatura máxima	19
142811	7	Sololá	713	San Lucas Tolimán	10	San Lucas Tolimán	8	Agosto	2023-08-21T00:00:00	2024-11-08T05:00:00	3	Temperatura mínima	18.5
142812	7	Sololá	713	San Lucas Tolimán	10	San Lucas Tolimán	8	Agosto	2023-08-21T00:00:00	2024-11-08T05:00:00	5	Humedad	58
142813	7	Sololá	713	San Lucas Tolimán	10	San Lucas Tolimán	8	Agosto	2023-08-21T00:00:00	2024-11-08T05:00:00	6	Velocidad del viento	1.6
142814	7	Sololá	713	San Lucas Tolimán	10	San Lucas Tolimán	8	Agosto	2023-08-21T00:00:00	2024-11-08T05:00:00	7	Dirección del viento	1.61
142815	7	Sololá	713	San Lucas Tolimán	10	San Lucas Tolimán	8	Agosto	2023-08-21T00:00:00	2024-11-08T05:00:00	1	Precipitación	0
142816	7	Sololá	713	San Lucas Tolimán	10	San Lucas Tolimán	8	Agosto	2023-08-21T00:00:00	2024-11-08T05:00:00	8	Radiación solar	0
142817	7	Sololá	713	San Lucas Tolimán	10	San Lucas Tolimán	8	Agosto	2023-08-21T00:00:00	2024-11-08T06:00:00	2	Temperatura media	18.4
142818	7	Sololá	713	San Lucas Tolimán	10	San Lucas Tolimán	8	Agosto	2023-08-21T00:00:00	2024-11-08T06:00:00	4	Temperatura máxima	18.7
142819	7	Sololá	713	San Lucas Tolimán	10	San Lucas Tolimán	8	Agosto	2023-08-21T00:00:00	2024-11-08T06:00:00	3	Temperatura mínima	18.3
142820	7	Sololá	713	San Lucas Tolimán	10	San Lucas Tolimán	8	Agosto	2023-08-21T00:00:00	2024-11-08T06:00:00	5	Humedad	60
142821	7	Sololá	713	San Lucas Tolimán	10	San Lucas Tolimán	8	Agosto	2023-08-21T00:00:00	2024-11-08T06:00:00	6	Velocidad del viento	1.6
142822	7	Sololá	713	San Lucas Tolimán	10	San Lucas Tolimán	8	Agosto	2023-08-21T00:00:00	2024-11-08T06:00:00	7	Dirección del viento	1.61
142823	7	Sololá	713	San Lucas Tolimán	10	San Lucas Tolimán	8	Agosto	2023-08-21T00:00:00	2024-11-08T06:00:00	1	Precipitación	0
142824	7	Sololá	713	San Lucas Tolimán	10	San Lucas Tolimán	8	Agosto	2023-08-21T00:00:00	2024-11-08T06:00:00	8	Radiación solar	0
142825	7	Sololá	713	San Lucas Tolimán	10	San Lucas Tolimán	8	Agosto	2023-08-21T00:00:00	2024-11-08T07:00:00	2	Temperatura media	18.8
142826	7	Sololá	713	San Lucas Tolimán	10	San Lucas Tolimán	8	Agosto	2023-08-21T00:00:00	2024-11-08T07:00:00	4	Temperatura máxima	18.8
142827	7	Sololá	713	San Lucas Tolimán	10	San Lucas Tolimán	8	Agosto	2023-08-21T00:00:00	2024-11-08T07:00:00	3	Temperatura mínima	18.4
142828	7	Sololá	713	San Lucas Tolimán	10	San Lucas Tolimán	8	Agosto	2023-08-21T00:00:00	2024-11-08T07:00:00	5	Humedad	59
142829	7	Sololá	713	San Lucas Tolimán	10	San Lucas Tolimán	8	Agosto	2023-08-21T00:00:00	2024-11-08T07:00:00	6	Velocidad del viento	0
142830	7	Sololá	713	San Lucas Tolimán	10	San Lucas Tolimán	8	Agosto	2023-08-21T00:00:00	2024-11-08T07:00:00	7	Dirección del viento	0
142831	7	Sololá	713	San Lucas Tolimán	10	San Lucas Tolimán	8	Agosto	2023-08-21T00:00:00	2024-11-08T07:00:00	1	Precipitación	0
142832	7	Sololá	713	San Lucas Tolimán	10	San Lucas Tolimán	8	Agosto	2023-08-21T00:00:00	2024-11-08T07:00:00	8	Radiación solar	32
142833	7	Sololá	713	San Lucas Tolimán	10	San Lucas Tolimán	8	Agosto	2023-08-21T00:00:00	2024-11-08T08:00:00	2	Temperatura media	19.8
142834	7	Sololá	713	San Lucas Tolimán	10	San Lucas Tolimán	8	Agosto	2023-08-21T00:00:00	2024-11-08T08:00:00	4	Temperatura máxima	19.8
142835	7	Sololá	713	San Lucas Tolimán	10	San Lucas Tolimán	8	Agosto	2023-08-21T00:00:00	2024-11-08T08:00:00	3	Temperatura mínima	18.8
142836	7	Sololá	713	San Lucas Tolimán	10	San Lucas Tolimán	8	Agosto	2023-08-21T00:00:00	2024-11-08T08:00:00	5	Humedad	57
142837	7	Sololá	713	San Lucas Tolimán	10	San Lucas Tolimán	8	Agosto	2023-08-21T00:00:00	2024-11-08T08:00:00	6	Velocidad del viento	1.6
142838	7	Sololá	713	San Lucas Tolimán	10	San Lucas Tolimán	8	Agosto	2023-08-21T00:00:00	2024-11-08T08:00:00	7	Dirección del viento	1.61
142839	7	Sololá	713	San Lucas Tolimán	10	San Lucas Tolimán	8	Agosto	2023-08-21T00:00:00	2024-11-08T08:00:00	1	Precipitación	0
142840	7	Sololá	713	San Lucas Tolimán	10	San Lucas Tolimán	8	Agosto	2023-08-21T00:00:00	2024-11-08T08:00:00	8	Radiación solar	139
142841	7	Sololá	713	San Lucas Tolimán	10	San Lucas Tolimán	8	Agosto	2023-08-21T00:00:00	2024-11-08T09:00:00	2	Temperatura media	20.8
142842	7	Sololá	713	San Lucas Tolimán	10	San Lucas Tolimán	8	Agosto	2023-08-21T00:00:00	2024-11-08T09:00:00	4	Temperatura máxima	20.9
142843	7	Sololá	713	San Lucas Tolimán	10	San Lucas Tolimán	8	Agosto	2023-08-21T00:00:00	2024-11-08T09:00:00	3	Temperatura mínima	19.8
142844	7	Sololá	713	San Lucas Tolimán	10	San Lucas Tolimán	8	Agosto	2023-08-21T00:00:00	2024-11-08T09:00:00	5	Humedad	56
142845	7	Sololá	713	San Lucas Tolimán	10	San Lucas Tolimán	8	Agosto	2023-08-21T00:00:00	2024-11-08T09:00:00	6	Velocidad del viento	4.8
142846	7	Sololá	713	San Lucas Tolimán	10	San Lucas Tolimán	8	Agosto	2023-08-21T00:00:00	2024-11-08T09:00:00	7	Dirección del viento	4.83
142847	7	Sololá	713	San Lucas Tolimán	10	San Lucas Tolimán	8	Agosto	2023-08-21T00:00:00	2024-11-08T09:00:00	1	Precipitación	0
142848	7	Sololá	713	San Lucas Tolimán	10	San Lucas Tolimán	8	Agosto	2023-08-21T00:00:00	2024-11-08T09:00:00	8	Radiación solar	289
142849	7	Sololá	713	San Lucas Tolimán	10	San Lucas Tolimán	8	Agosto	2023-08-21T00:00:00	2024-11-08T10:00:00	2	Temperatura media	23.2
142850	7	Sololá	713	San Lucas Tolimán	10	San Lucas Tolimán	8	Agosto	2023-08-21T00:00:00	2024-11-08T10:00:00	4	Temperatura máxima	23.2
142851	7	Sololá	713	San Lucas Tolimán	10	San Lucas Tolimán	8	Agosto	2023-08-21T00:00:00	2024-11-08T10:00:00	3	Temperatura mínima	20.8
142852	7	Sololá	713	San Lucas Tolimán	10	San Lucas Tolimán	8	Agosto	2023-08-21T00:00:00	2024-11-08T10:00:00	5	Humedad	49
142853	7	Sololá	713	San Lucas Tolimán	10	San Lucas Tolimán	8	Agosto	2023-08-21T00:00:00	2024-11-08T10:00:00	6	Velocidad del viento	4.8
142854	7	Sololá	713	San Lucas Tolimán	10	San Lucas Tolimán	8	Agosto	2023-08-21T00:00:00	2024-11-08T10:00:00	7	Dirección del viento	4.83
142855	7	Sololá	713	San Lucas Tolimán	10	San Lucas Tolimán	8	Agosto	2023-08-21T00:00:00	2024-11-08T10:00:00	1	Precipitación	0
142856	7	Sololá	713	San Lucas Tolimán	10	San Lucas Tolimán	8	Agosto	2023-08-21T00:00:00	2024-11-08T10:00:00	8	Radiación solar	562
142857	7	Sololá	713	San Lucas Tolimán	10	San Lucas Tolimán	8	Agosto	2023-08-21T00:00:00	2024-11-08T11:00:00	2	Temperatura media	24.4
142858	7	Sololá	713	San Lucas Tolimán	10	San Lucas Tolimán	8	Agosto	2023-08-21T00:00:00	2024-11-08T11:00:00	4	Temperatura máxima	24.8
142859	7	Sololá	713	San Lucas Tolimán	10	San Lucas Tolimán	8	Agosto	2023-08-21T00:00:00	2024-11-08T11:00:00	3	Temperatura mínima	22.9
142860	7	Sololá	713	San Lucas Tolimán	10	San Lucas Tolimán	8	Agosto	2023-08-21T00:00:00	2024-11-08T11:00:00	5	Humedad	55
142861	7	Sololá	713	San Lucas Tolimán	10	San Lucas Tolimán	8	Agosto	2023-08-21T00:00:00	2024-11-08T11:00:00	6	Velocidad del viento	6.4
142862	7	Sololá	713	San Lucas Tolimán	10	San Lucas Tolimán	8	Agosto	2023-08-21T00:00:00	2024-11-08T11:00:00	7	Dirección del viento	6.44
142863	7	Sololá	713	San Lucas Tolimán	10	San Lucas Tolimán	8	Agosto	2023-08-21T00:00:00	2024-11-08T11:00:00	1	Precipitación	0
142864	7	Sololá	713	San Lucas Tolimán	10	San Lucas Tolimán	8	Agosto	2023-08-21T00:00:00	2024-11-08T11:00:00	8	Radiación solar	806
142865	7	Sololá	713	San Lucas Tolimán	10	San Lucas Tolimán	8	Agosto	2023-08-21T00:00:00	2024-11-08T12:00:00	2	Temperatura media	22.9
142866	7	Sololá	713	San Lucas Tolimán	10	San Lucas Tolimán	8	Agosto	2023-08-21T00:00:00	2024-11-08T12:00:00	4	Temperatura máxima	24.4
142867	7	Sololá	713	San Lucas Tolimán	10	San Lucas Tolimán	8	Agosto	2023-08-21T00:00:00	2024-11-08T12:00:00	3	Temperatura mínima	22.9
142868	7	Sololá	713	San Lucas Tolimán	10	San Lucas Tolimán	8	Agosto	2023-08-21T00:00:00	2024-11-08T12:00:00	5	Humedad	62
142869	7	Sololá	713	San Lucas Tolimán	10	San Lucas Tolimán	8	Agosto	2023-08-21T00:00:00	2024-11-08T12:00:00	6	Velocidad del viento	11.3
142870	7	Sololá	713	San Lucas Tolimán	10	San Lucas Tolimán	8	Agosto	2023-08-21T00:00:00	2024-11-08T12:00:00	7	Dirección del viento	11.27
142871	7	Sololá	713	San Lucas Tolimán	10	San Lucas Tolimán	8	Agosto	2023-08-21T00:00:00	2024-11-08T12:00:00	1	Precipitación	0
142872	7	Sololá	713	San Lucas Tolimán	10	San Lucas Tolimán	8	Agosto	2023-08-21T00:00:00	2024-11-08T12:00:00	8	Radiación solar	817
142873	7	Sololá	713	San Lucas Tolimán	10	San Lucas Tolimán	8	Agosto	2023-08-21T00:00:00	2024-11-08T13:00:00	2	Temperatura media	22
142874	7	Sololá	713	San Lucas Tolimán	10	San Lucas Tolimán	8	Agosto	2023-08-21T00:00:00	2024-11-08T13:00:00	4	Temperatura máxima	22.9
142875	7	Sololá	713	San Lucas Tolimán	10	San Lucas Tolimán	8	Agosto	2023-08-21T00:00:00	2024-11-08T13:00:00	3	Temperatura mínima	21.6
142876	7	Sololá	713	San Lucas Tolimán	10	San Lucas Tolimán	8	Agosto	2023-08-21T00:00:00	2024-11-08T13:00:00	5	Humedad	62
142877	7	Sololá	713	San Lucas Tolimán	10	San Lucas Tolimán	8	Agosto	2023-08-21T00:00:00	2024-11-08T13:00:00	6	Velocidad del viento	12.9
142878	7	Sololá	713	San Lucas Tolimán	10	San Lucas Tolimán	8	Agosto	2023-08-21T00:00:00	2024-11-08T13:00:00	7	Dirección del viento	12.87
142879	7	Sololá	713	San Lucas Tolimán	10	San Lucas Tolimán	8	Agosto	2023-08-21T00:00:00	2024-11-08T13:00:00	1	Precipitación	0
142880	7	Sololá	713	San Lucas Tolimán	10	San Lucas Tolimán	8	Agosto	2023-08-21T00:00:00	2024-11-08T13:00:00	8	Radiación solar	535
142881	7	Sololá	713	San Lucas Tolimán	10	San Lucas Tolimán	8	Agosto	2023-08-21T00:00:00	2024-11-08T14:00:00	2	Temperatura media	21
142882	7	Sololá	713	San Lucas Tolimán	10	San Lucas Tolimán	8	Agosto	2023-08-21T00:00:00	2024-11-08T14:00:00	4	Temperatura máxima	22
142883	7	Sololá	713	San Lucas Tolimán	10	San Lucas Tolimán	8	Agosto	2023-08-21T00:00:00	2024-11-08T14:00:00	3	Temperatura mínima	21
142884	7	Sololá	713	San Lucas Tolimán	10	San Lucas Tolimán	8	Agosto	2023-08-21T00:00:00	2024-11-08T14:00:00	5	Humedad	61
142885	7	Sololá	713	San Lucas Tolimán	10	San Lucas Tolimán	8	Agosto	2023-08-21T00:00:00	2024-11-08T14:00:00	6	Velocidad del viento	12.9
142886	7	Sololá	713	San Lucas Tolimán	10	San Lucas Tolimán	8	Agosto	2023-08-21T00:00:00	2024-11-08T14:00:00	7	Dirección del viento	12.87
142887	7	Sololá	713	San Lucas Tolimán	10	San Lucas Tolimán	8	Agosto	2023-08-21T00:00:00	2024-11-08T14:00:00	1	Precipitación	0
142888	7	Sololá	713	San Lucas Tolimán	10	San Lucas Tolimán	8	Agosto	2023-08-21T00:00:00	2024-11-08T14:00:00	8	Radiación solar	411
142889	7	Sololá	713	San Lucas Tolimán	10	San Lucas Tolimán	8	Agosto	2023-08-21T00:00:00	2024-11-08T15:00:00	2	Temperatura media	21.3
142890	7	Sololá	713	San Lucas Tolimán	10	San Lucas Tolimán	8	Agosto	2023-08-21T00:00:00	2024-11-08T15:00:00	4	Temperatura máxima	23.1
142891	7	Sololá	713	San Lucas Tolimán	10	San Lucas Tolimán	8	Agosto	2023-08-21T00:00:00	2024-11-08T15:00:00	3	Temperatura mínima	20.9
142892	7	Sololá	713	San Lucas Tolimán	10	San Lucas Tolimán	8	Agosto	2023-08-21T00:00:00	2024-11-08T15:00:00	5	Humedad	61
142893	7	Sololá	713	San Lucas Tolimán	10	San Lucas Tolimán	8	Agosto	2023-08-21T00:00:00	2024-11-08T15:00:00	6	Velocidad del viento	11.3
142894	7	Sololá	713	San Lucas Tolimán	10	San Lucas Tolimán	8	Agosto	2023-08-21T00:00:00	2024-11-08T15:00:00	7	Dirección del viento	11.27
142895	7	Sololá	713	San Lucas Tolimán	10	San Lucas Tolimán	8	Agosto	2023-08-21T00:00:00	2024-11-08T15:00:00	1	Precipitación	0
142896	7	Sololá	713	San Lucas Tolimán	10	San Lucas Tolimán	8	Agosto	2023-08-21T00:00:00	2024-11-08T15:00:00	8	Radiación solar	446
142897	7	Sololá	713	San Lucas Tolimán	10	San Lucas Tolimán	8	Agosto	2023-08-21T00:00:00	2024-11-08T16:00:00	2	Temperatura media	19.3
142898	7	Sololá	713	San Lucas Tolimán	10	San Lucas Tolimán	8	Agosto	2023-08-21T00:00:00	2024-11-08T16:00:00	4	Temperatura máxima	21.2
142899	7	Sololá	713	San Lucas Tolimán	10	San Lucas Tolimán	8	Agosto	2023-08-21T00:00:00	2024-11-08T16:00:00	3	Temperatura mínima	19.3
142900	7	Sololá	713	San Lucas Tolimán	10	San Lucas Tolimán	8	Agosto	2023-08-21T00:00:00	2024-11-08T16:00:00	5	Humedad	61
142901	7	Sololá	713	San Lucas Tolimán	10	San Lucas Tolimán	8	Agosto	2023-08-21T00:00:00	2024-11-08T16:00:00	6	Velocidad del viento	12.9
142902	7	Sololá	713	San Lucas Tolimán	10	San Lucas Tolimán	8	Agosto	2023-08-21T00:00:00	2024-11-08T16:00:00	7	Dirección del viento	12.87
142903	7	Sololá	713	San Lucas Tolimán	10	San Lucas Tolimán	8	Agosto	2023-08-21T00:00:00	2024-11-08T16:00:00	1	Precipitación	0
142904	7	Sololá	713	San Lucas Tolimán	10	San Lucas Tolimán	8	Agosto	2023-08-21T00:00:00	2024-11-08T16:00:00	8	Radiación solar	98
142905	7	Sololá	713	San Lucas Tolimán	10	San Lucas Tolimán	8	Agosto	2023-08-21T00:00:00	2024-11-08T17:00:00	2	Temperatura media	19.4
142906	7	Sololá	713	San Lucas Tolimán	10	San Lucas Tolimán	8	Agosto	2023-08-21T00:00:00	2024-11-08T17:00:00	4	Temperatura máxima	19.6
142907	7	Sololá	713	San Lucas Tolimán	10	San Lucas Tolimán	8	Agosto	2023-08-21T00:00:00	2024-11-08T17:00:00	3	Temperatura mínima	19.1
142908	7	Sololá	713	San Lucas Tolimán	10	San Lucas Tolimán	8	Agosto	2023-08-21T00:00:00	2024-11-08T17:00:00	5	Humedad	59
142909	7	Sololá	713	San Lucas Tolimán	10	San Lucas Tolimán	8	Agosto	2023-08-21T00:00:00	2024-11-08T17:00:00	6	Velocidad del viento	9.7
142910	7	Sololá	713	San Lucas Tolimán	10	San Lucas Tolimán	8	Agosto	2023-08-21T00:00:00	2024-11-08T17:00:00	7	Dirección del viento	9.66
142911	7	Sololá	713	San Lucas Tolimán	10	San Lucas Tolimán	8	Agosto	2023-08-21T00:00:00	2024-11-08T17:00:00	1	Precipitación	0
142912	7	Sololá	713	San Lucas Tolimán	10	San Lucas Tolimán	8	Agosto	2023-08-21T00:00:00	2024-11-08T17:00:00	8	Radiación solar	18
142913	7	Sololá	713	San Lucas Tolimán	10	San Lucas Tolimán	8	Agosto	2023-08-21T00:00:00	2024-11-08T18:00:00	2	Temperatura media	19.1
142914	7	Sololá	713	San Lucas Tolimán	10	San Lucas Tolimán	8	Agosto	2023-08-21T00:00:00	2024-11-08T18:00:00	4	Temperatura máxima	20.1
142915	7	Sololá	713	San Lucas Tolimán	10	San Lucas Tolimán	8	Agosto	2023-08-21T00:00:00	2024-11-08T18:00:00	3	Temperatura mínima	19.1
142916	7	Sololá	713	San Lucas Tolimán	10	San Lucas Tolimán	8	Agosto	2023-08-21T00:00:00	2024-11-08T18:00:00	5	Humedad	61
142917	7	Sololá	713	San Lucas Tolimán	10	San Lucas Tolimán	8	Agosto	2023-08-21T00:00:00	2024-11-08T18:00:00	6	Velocidad del viento	4.8
142918	7	Sololá	713	San Lucas Tolimán	10	San Lucas Tolimán	8	Agosto	2023-08-21T00:00:00	2024-11-08T18:00:00	7	Dirección del viento	4.83
142919	7	Sololá	713	San Lucas Tolimán	10	San Lucas Tolimán	8	Agosto	2023-08-21T00:00:00	2024-11-08T18:00:00	1	Precipitación	0
142920	7	Sololá	713	San Lucas Tolimán	10	San Lucas Tolimán	8	Agosto	2023-08-21T00:00:00	2024-11-08T18:00:00	8	Radiación solar	7
142921	7	Sololá	713	San Lucas Tolimán	10	San Lucas Tolimán	8	Agosto	2023-08-21T00:00:00	2024-11-08T19:00:00	2	Temperatura media	19.3
142922	7	Sololá	713	San Lucas Tolimán	10	San Lucas Tolimán	8	Agosto	2023-08-21T00:00:00	2024-11-08T19:00:00	4	Temperatura máxima	19.4
142923	7	Sololá	713	San Lucas Tolimán	10	San Lucas Tolimán	8	Agosto	2023-08-21T00:00:00	2024-11-08T19:00:00	3	Temperatura mínima	19.1
142924	7	Sololá	713	San Lucas Tolimán	10	San Lucas Tolimán	8	Agosto	2023-08-21T00:00:00	2024-11-08T19:00:00	5	Humedad	60
142925	7	Sololá	713	San Lucas Tolimán	10	San Lucas Tolimán	8	Agosto	2023-08-21T00:00:00	2024-11-08T19:00:00	6	Velocidad del viento	0
142926	7	Sololá	713	San Lucas Tolimán	10	San Lucas Tolimán	8	Agosto	2023-08-21T00:00:00	2024-11-08T19:00:00	7	Dirección del viento	0
142927	7	Sololá	713	San Lucas Tolimán	10	San Lucas Tolimán	8	Agosto	2023-08-21T00:00:00	2024-11-08T19:00:00	1	Precipitación	0
142928	7	Sololá	713	San Lucas Tolimán	10	San Lucas Tolimán	8	Agosto	2023-08-21T00:00:00	2024-11-08T19:00:00	8	Radiación solar	0
142929	7	Sololá	713	San Lucas Tolimán	10	San Lucas Tolimán	8	Agosto	2023-08-21T00:00:00	2024-11-08T20:00:00	2	Temperatura media	19.1
142930	7	Sololá	713	San Lucas Tolimán	10	San Lucas Tolimán	8	Agosto	2023-08-21T00:00:00	2024-11-08T20:00:00	4	Temperatura máxima	19.6
142931	7	Sololá	713	San Lucas Tolimán	10	San Lucas Tolimán	8	Agosto	2023-08-21T00:00:00	2024-11-08T20:00:00	3	Temperatura mínima	19.1
142932	7	Sololá	713	San Lucas Tolimán	10	San Lucas Tolimán	8	Agosto	2023-08-21T00:00:00	2024-11-08T20:00:00	5	Humedad	61
142933	7	Sololá	713	San Lucas Tolimán	10	San Lucas Tolimán	8	Agosto	2023-08-21T00:00:00	2024-11-08T20:00:00	6	Velocidad del viento	1.6
142934	7	Sololá	713	San Lucas Tolimán	10	San Lucas Tolimán	8	Agosto	2023-08-21T00:00:00	2024-11-08T20:00:00	7	Dirección del viento	1.61
142935	7	Sololá	713	San Lucas Tolimán	10	San Lucas Tolimán	8	Agosto	2023-08-21T00:00:00	2024-11-08T20:00:00	1	Precipitación	0
142936	7	Sololá	713	San Lucas Tolimán	10	San Lucas Tolimán	8	Agosto	2023-08-21T00:00:00	2024-11-08T20:00:00	8	Radiación solar	0
142937	7	Sololá	713	San Lucas Tolimán	10	San Lucas Tolimán	8	Agosto	2023-08-21T00:00:00	2024-11-08T21:00:00	2	Temperatura media	19.2
142938	7	Sololá	713	San Lucas Tolimán	10	San Lucas Tolimán	8	Agosto	2023-08-21T00:00:00	2024-11-08T21:00:00	4	Temperatura máxima	19.2
142939	7	Sololá	713	San Lucas Tolimán	10	San Lucas Tolimán	8	Agosto	2023-08-21T00:00:00	2024-11-08T21:00:00	3	Temperatura mínima	18.9
142940	7	Sololá	713	San Lucas Tolimán	10	San Lucas Tolimán	8	Agosto	2023-08-21T00:00:00	2024-11-08T21:00:00	5	Humedad	57
142941	7	Sololá	713	San Lucas Tolimán	10	San Lucas Tolimán	8	Agosto	2023-08-21T00:00:00	2024-11-08T21:00:00	6	Velocidad del viento	3.2
142942	7	Sololá	713	San Lucas Tolimán	10	San Lucas Tolimán	8	Agosto	2023-08-21T00:00:00	2024-11-08T21:00:00	7	Dirección del viento	3.22
142943	7	Sololá	713	San Lucas Tolimán	10	San Lucas Tolimán	8	Agosto	2023-08-21T00:00:00	2024-11-08T21:00:00	1	Precipitación	0
142944	7	Sololá	713	San Lucas Tolimán	10	San Lucas Tolimán	8	Agosto	2023-08-21T00:00:00	2024-11-08T21:00:00	8	Radiación solar	0
142945	7	Sololá	713	San Lucas Tolimán	10	San Lucas Tolimán	8	Agosto	2023-08-21T00:00:00	2024-11-08T22:00:00	2	Temperatura media	20.2
142946	7	Sololá	713	San Lucas Tolimán	10	San Lucas Tolimán	8	Agosto	2023-08-21T00:00:00	2024-11-08T22:00:00	4	Temperatura máxima	20.2
142947	7	Sololá	713	San Lucas Tolimán	10	San Lucas Tolimán	8	Agosto	2023-08-21T00:00:00	2024-11-08T22:00:00	3	Temperatura mínima	19.1
142948	7	Sololá	713	San Lucas Tolimán	10	San Lucas Tolimán	8	Agosto	2023-08-21T00:00:00	2024-11-08T22:00:00	5	Humedad	57
142949	7	Sololá	713	San Lucas Tolimán	10	San Lucas Tolimán	8	Agosto	2023-08-21T00:00:00	2024-11-08T22:00:00	6	Velocidad del viento	3.2
142950	7	Sololá	713	San Lucas Tolimán	10	San Lucas Tolimán	8	Agosto	2023-08-21T00:00:00	2024-11-08T22:00:00	7	Dirección del viento	3.22
142951	7	Sololá	713	San Lucas Tolimán	10	San Lucas Tolimán	8	Agosto	2023-08-21T00:00:00	2024-11-08T22:00:00	1	Precipitación	0
142952	7	Sololá	713	San Lucas Tolimán	10	San Lucas Tolimán	8	Agosto	2023-08-21T00:00:00	2024-11-08T22:00:00	8	Radiación solar	0
142953	7	Sololá	713	San Lucas Tolimán	10	San Lucas Tolimán	8	Agosto	2023-08-21T00:00:00	2024-11-08T23:00:00	2	Temperatura media	20.7
142954	7	Sololá	713	San Lucas Tolimán	10	San Lucas Tolimán	8	Agosto	2023-08-21T00:00:00	2024-11-08T23:00:00	4	Temperatura máxima	20.9
142955	7	Sololá	713	San Lucas Tolimán	10	San Lucas Tolimán	8	Agosto	2023-08-21T00:00:00	2024-11-08T23:00:00	3	Temperatura mínima	19.7
142956	7	Sololá	713	San Lucas Tolimán	10	San Lucas Tolimán	8	Agosto	2023-08-21T00:00:00	2024-11-08T23:00:00	5	Humedad	56
142957	7	Sololá	713	San Lucas Tolimán	10	San Lucas Tolimán	8	Agosto	2023-08-21T00:00:00	2024-11-08T23:00:00	6	Velocidad del viento	9.7
142958	7	Sololá	713	San Lucas Tolimán	10	San Lucas Tolimán	8	Agosto	2023-08-21T00:00:00	2024-11-08T23:00:00	7	Dirección del viento	9.66
142959	7	Sololá	713	San Lucas Tolimán	10	San Lucas Tolimán	8	Agosto	2023-08-21T00:00:00	2024-11-08T23:00:00	1	Precipitación	0
142960	7	Sololá	713	San Lucas Tolimán	10	San Lucas Tolimán	8	Agosto	2023-08-21T00:00:00	2024-11-08T23:00:00	8	Radiación solar	0
142961	7	Sololá	713	San Lucas Tolimán	10	San Lucas Tolimán	8	Agosto	2023-08-22T00:00:00	2024-11-08T00:00:00	2	Temperatura media	19.7
142962	7	Sololá	713	San Lucas Tolimán	10	San Lucas Tolimán	8	Agosto	2023-08-22T00:00:00	2024-11-08T00:00:00	4	Temperatura máxima	20.7
142963	7	Sololá	713	San Lucas Tolimán	10	San Lucas Tolimán	8	Agosto	2023-08-22T00:00:00	2024-11-08T00:00:00	3	Temperatura mínima	19.7
142964	7	Sololá	713	San Lucas Tolimán	10	San Lucas Tolimán	8	Agosto	2023-08-22T00:00:00	2024-11-08T00:00:00	5	Humedad	60
142965	7	Sololá	713	San Lucas Tolimán	10	San Lucas Tolimán	8	Agosto	2023-08-22T00:00:00	2024-11-08T00:00:00	6	Velocidad del viento	1.6
142966	7	Sololá	713	San Lucas Tolimán	10	San Lucas Tolimán	8	Agosto	2023-08-22T00:00:00	2024-11-08T00:00:00	7	Dirección del viento	1.61
142967	7	Sololá	713	San Lucas Tolimán	10	San Lucas Tolimán	8	Agosto	2023-08-22T00:00:00	2024-11-08T00:00:00	1	Precipitación	0
142968	7	Sololá	713	San Lucas Tolimán	10	San Lucas Tolimán	8	Agosto	2023-08-22T00:00:00	2024-11-08T00:00:00	8	Radiación solar	0
142969	7	Sololá	713	San Lucas Tolimán	10	San Lucas Tolimán	8	Agosto	2023-08-22T00:00:00	2024-11-08T01:00:00	2	Temperatura media	18.8
142970	7	Sololá	713	San Lucas Tolimán	10	San Lucas Tolimán	8	Agosto	2023-08-22T00:00:00	2024-11-08T01:00:00	4	Temperatura máxima	19.7
142971	7	Sololá	713	San Lucas Tolimán	10	San Lucas Tolimán	8	Agosto	2023-08-22T00:00:00	2024-11-08T01:00:00	3	Temperatura mínima	18.6
142972	7	Sololá	713	San Lucas Tolimán	10	San Lucas Tolimán	8	Agosto	2023-08-22T00:00:00	2024-11-08T01:00:00	5	Humedad	61
142973	7	Sololá	713	San Lucas Tolimán	10	San Lucas Tolimán	8	Agosto	2023-08-22T00:00:00	2024-11-08T01:00:00	6	Velocidad del viento	0
142974	7	Sololá	713	San Lucas Tolimán	10	San Lucas Tolimán	8	Agosto	2023-08-22T00:00:00	2024-11-08T01:00:00	7	Dirección del viento	0
142975	7	Sololá	713	San Lucas Tolimán	10	San Lucas Tolimán	8	Agosto	2023-08-22T00:00:00	2024-11-08T01:00:00	1	Precipitación	0
142976	7	Sololá	713	San Lucas Tolimán	10	San Lucas Tolimán	8	Agosto	2023-08-22T00:00:00	2024-11-08T01:00:00	8	Radiación solar	0
142977	7	Sololá	713	San Lucas Tolimán	10	San Lucas Tolimán	8	Agosto	2023-08-22T00:00:00	2024-11-08T02:00:00	2	Temperatura media	18.6
142978	7	Sololá	713	San Lucas Tolimán	10	San Lucas Tolimán	8	Agosto	2023-08-22T00:00:00	2024-11-08T02:00:00	4	Temperatura máxima	18.8
142979	7	Sololá	713	San Lucas Tolimán	10	San Lucas Tolimán	8	Agosto	2023-08-22T00:00:00	2024-11-08T02:00:00	3	Temperatura mínima	17.8
142980	7	Sololá	713	San Lucas Tolimán	10	San Lucas Tolimán	8	Agosto	2023-08-22T00:00:00	2024-11-08T02:00:00	5	Humedad	57
142981	7	Sololá	713	San Lucas Tolimán	10	San Lucas Tolimán	8	Agosto	2023-08-22T00:00:00	2024-11-08T02:00:00	6	Velocidad del viento	1.6
142982	7	Sololá	713	San Lucas Tolimán	10	San Lucas Tolimán	8	Agosto	2023-08-22T00:00:00	2024-11-08T02:00:00	7	Dirección del viento	1.61
142983	7	Sololá	713	San Lucas Tolimán	10	San Lucas Tolimán	8	Agosto	2023-08-22T00:00:00	2024-11-08T02:00:00	1	Precipitación	0
142984	7	Sololá	713	San Lucas Tolimán	10	San Lucas Tolimán	8	Agosto	2023-08-22T00:00:00	2024-11-08T02:00:00	8	Radiación solar	0
142985	7	Sololá	713	San Lucas Tolimán	10	San Lucas Tolimán	8	Agosto	2023-08-22T00:00:00	2024-11-08T03:00:00	2	Temperatura media	18.4
142986	7	Sololá	713	San Lucas Tolimán	10	San Lucas Tolimán	8	Agosto	2023-08-22T00:00:00	2024-11-08T03:00:00	4	Temperatura máxima	18.8
142987	7	Sololá	713	San Lucas Tolimán	10	San Lucas Tolimán	8	Agosto	2023-08-22T00:00:00	2024-11-08T03:00:00	3	Temperatura mínima	17.7
142988	7	Sololá	713	San Lucas Tolimán	10	San Lucas Tolimán	8	Agosto	2023-08-22T00:00:00	2024-11-08T03:00:00	5	Humedad	58
142989	7	Sololá	713	San Lucas Tolimán	10	San Lucas Tolimán	8	Agosto	2023-08-22T00:00:00	2024-11-08T03:00:00	6	Velocidad del viento	1.6
142990	7	Sololá	713	San Lucas Tolimán	10	San Lucas Tolimán	8	Agosto	2023-08-22T00:00:00	2024-11-08T03:00:00	7	Dirección del viento	1.61
142991	7	Sololá	713	San Lucas Tolimán	10	San Lucas Tolimán	8	Agosto	2023-08-22T00:00:00	2024-11-08T03:00:00	1	Precipitación	0
142992	7	Sololá	713	San Lucas Tolimán	10	San Lucas Tolimán	8	Agosto	2023-08-22T00:00:00	2024-11-08T03:00:00	8	Radiación solar	0
142993	7	Sololá	713	San Lucas Tolimán	10	San Lucas Tolimán	8	Agosto	2023-08-22T00:00:00	2024-11-08T04:00:00	2	Temperatura media	18.8
142994	7	Sololá	713	San Lucas Tolimán	10	San Lucas Tolimán	8	Agosto	2023-08-22T00:00:00	2024-11-08T04:00:00	4	Temperatura máxima	18.8
142995	7	Sololá	713	San Lucas Tolimán	10	San Lucas Tolimán	8	Agosto	2023-08-22T00:00:00	2024-11-08T04:00:00	3	Temperatura mínima	18.4
142996	7	Sololá	713	San Lucas Tolimán	10	San Lucas Tolimán	8	Agosto	2023-08-22T00:00:00	2024-11-08T04:00:00	5	Humedad	57
142997	7	Sololá	713	San Lucas Tolimán	10	San Lucas Tolimán	8	Agosto	2023-08-22T00:00:00	2024-11-08T04:00:00	6	Velocidad del viento	1.6
142998	7	Sololá	713	San Lucas Tolimán	10	San Lucas Tolimán	8	Agosto	2023-08-22T00:00:00	2024-11-08T04:00:00	7	Dirección del viento	1.61
142999	7	Sololá	713	San Lucas Tolimán	10	San Lucas Tolimán	8	Agosto	2023-08-22T00:00:00	2024-11-08T04:00:00	1	Precipitación	0
143000	7	Sololá	713	San Lucas Tolimán	10	San Lucas Tolimán	8	Agosto	2023-08-22T00:00:00	2024-11-08T04:00:00	8	Radiación solar	0
143001	7	Sololá	713	San Lucas Tolimán	10	San Lucas Tolimán	8	Agosto	2023-08-22T00:00:00	2024-11-08T05:00:00	2	Temperatura media	17.9
143002	7	Sololá	713	San Lucas Tolimán	10	San Lucas Tolimán	8	Agosto	2023-08-22T00:00:00	2024-11-08T05:00:00	4	Temperatura máxima	18.8
143003	7	Sololá	713	San Lucas Tolimán	10	San Lucas Tolimán	8	Agosto	2023-08-22T00:00:00	2024-11-08T05:00:00	3	Temperatura mínima	17.9
143004	7	Sololá	713	San Lucas Tolimán	10	San Lucas Tolimán	8	Agosto	2023-08-22T00:00:00	2024-11-08T05:00:00	5	Humedad	60
143005	7	Sololá	713	San Lucas Tolimán	10	San Lucas Tolimán	8	Agosto	2023-08-22T00:00:00	2024-11-08T05:00:00	6	Velocidad del viento	1.6
143006	7	Sololá	713	San Lucas Tolimán	10	San Lucas Tolimán	8	Agosto	2023-08-22T00:00:00	2024-11-08T05:00:00	7	Dirección del viento	1.61
143007	7	Sololá	713	San Lucas Tolimán	10	San Lucas Tolimán	8	Agosto	2023-08-22T00:00:00	2024-11-08T05:00:00	1	Precipitación	0
143008	7	Sololá	713	San Lucas Tolimán	10	San Lucas Tolimán	8	Agosto	2023-08-22T00:00:00	2024-11-08T05:00:00	8	Radiación solar	0
143009	7	Sololá	713	San Lucas Tolimán	10	San Lucas Tolimán	8	Agosto	2023-08-22T00:00:00	2024-11-08T06:00:00	2	Temperatura media	16.6
143010	7	Sololá	713	San Lucas Tolimán	10	San Lucas Tolimán	8	Agosto	2023-08-22T00:00:00	2024-11-08T06:00:00	4	Temperatura máxima	18
143011	7	Sololá	713	San Lucas Tolimán	10	San Lucas Tolimán	8	Agosto	2023-08-22T00:00:00	2024-11-08T06:00:00	3	Temperatura mínima	16.6
143012	7	Sololá	713	San Lucas Tolimán	10	San Lucas Tolimán	8	Agosto	2023-08-22T00:00:00	2024-11-08T06:00:00	5	Humedad	62
143013	7	Sololá	713	San Lucas Tolimán	10	San Lucas Tolimán	8	Agosto	2023-08-22T00:00:00	2024-11-08T06:00:00	6	Velocidad del viento	1.6
143014	7	Sololá	713	San Lucas Tolimán	10	San Lucas Tolimán	8	Agosto	2023-08-22T00:00:00	2024-11-08T06:00:00	7	Dirección del viento	1.61
143015	7	Sololá	713	San Lucas Tolimán	10	San Lucas Tolimán	8	Agosto	2023-08-22T00:00:00	2024-11-08T06:00:00	1	Precipitación	0
143016	7	Sololá	713	San Lucas Tolimán	10	San Lucas Tolimán	8	Agosto	2023-08-22T00:00:00	2024-11-08T06:00:00	8	Radiación solar	0
143017	7	Sololá	713	San Lucas Tolimán	10	San Lucas Tolimán	8	Agosto	2023-08-22T00:00:00	2024-11-08T07:00:00	2	Temperatura media	17.5
143018	7	Sololá	713	San Lucas Tolimán	10	San Lucas Tolimán	8	Agosto	2023-08-22T00:00:00	2024-11-08T07:00:00	4	Temperatura máxima	17.5
143019	7	Sololá	713	San Lucas Tolimán	10	San Lucas Tolimán	8	Agosto	2023-08-22T00:00:00	2024-11-08T07:00:00	3	Temperatura mínima	16.6
143020	7	Sololá	713	San Lucas Tolimán	10	San Lucas Tolimán	8	Agosto	2023-08-22T00:00:00	2024-11-08T07:00:00	5	Humedad	61
143021	7	Sololá	713	San Lucas Tolimán	10	San Lucas Tolimán	8	Agosto	2023-08-22T00:00:00	2024-11-08T07:00:00	6	Velocidad del viento	0
143022	7	Sololá	713	San Lucas Tolimán	10	San Lucas Tolimán	8	Agosto	2023-08-22T00:00:00	2024-11-08T07:00:00	7	Dirección del viento	0
143023	7	Sololá	713	San Lucas Tolimán	10	San Lucas Tolimán	8	Agosto	2023-08-22T00:00:00	2024-11-08T07:00:00	1	Precipitación	0
143024	7	Sololá	713	San Lucas Tolimán	10	San Lucas Tolimán	8	Agosto	2023-08-22T00:00:00	2024-11-08T07:00:00	8	Radiación solar	67
143025	7	Sololá	713	San Lucas Tolimán	10	San Lucas Tolimán	8	Agosto	2023-08-22T00:00:00	2024-11-08T08:00:00	2	Temperatura media	19.7
143026	7	Sololá	713	San Lucas Tolimán	10	San Lucas Tolimán	8	Agosto	2023-08-22T00:00:00	2024-11-08T08:00:00	4	Temperatura máxima	19.7
143027	7	Sololá	713	San Lucas Tolimán	10	San Lucas Tolimán	8	Agosto	2023-08-22T00:00:00	2024-11-08T08:00:00	3	Temperatura mínima	17.5
143028	7	Sololá	713	San Lucas Tolimán	10	San Lucas Tolimán	8	Agosto	2023-08-22T00:00:00	2024-11-08T08:00:00	5	Humedad	56
143029	7	Sololá	713	San Lucas Tolimán	10	San Lucas Tolimán	8	Agosto	2023-08-22T00:00:00	2024-11-08T08:00:00	6	Velocidad del viento	1.6
143030	7	Sololá	713	San Lucas Tolimán	10	San Lucas Tolimán	8	Agosto	2023-08-22T00:00:00	2024-11-08T08:00:00	7	Dirección del viento	1.61
143031	7	Sololá	713	San Lucas Tolimán	10	San Lucas Tolimán	8	Agosto	2023-08-22T00:00:00	2024-11-08T08:00:00	1	Precipitación	0
143032	7	Sololá	713	San Lucas Tolimán	10	San Lucas Tolimán	8	Agosto	2023-08-22T00:00:00	2024-11-08T08:00:00	8	Radiación solar	204
143033	7	Sololá	713	San Lucas Tolimán	10	San Lucas Tolimán	8	Agosto	2023-08-22T00:00:00	2024-11-08T09:00:00	2	Temperatura media	22.3
143034	7	Sololá	713	San Lucas Tolimán	10	San Lucas Tolimán	8	Agosto	2023-08-22T00:00:00	2024-11-08T09:00:00	4	Temperatura máxima	22.3
143035	7	Sololá	713	San Lucas Tolimán	10	San Lucas Tolimán	8	Agosto	2023-08-22T00:00:00	2024-11-08T09:00:00	3	Temperatura mínima	19.7
143036	7	Sololá	713	San Lucas Tolimán	10	San Lucas Tolimán	8	Agosto	2023-08-22T00:00:00	2024-11-08T09:00:00	5	Humedad	51
143037	7	Sololá	713	San Lucas Tolimán	10	San Lucas Tolimán	8	Agosto	2023-08-22T00:00:00	2024-11-08T09:00:00	6	Velocidad del viento	1.6
143038	7	Sololá	713	San Lucas Tolimán	10	San Lucas Tolimán	8	Agosto	2023-08-22T00:00:00	2024-11-08T09:00:00	7	Dirección del viento	1.61
143039	7	Sololá	713	San Lucas Tolimán	10	San Lucas Tolimán	8	Agosto	2023-08-22T00:00:00	2024-11-08T09:00:00	1	Precipitación	0
143040	7	Sololá	713	San Lucas Tolimán	10	San Lucas Tolimán	8	Agosto	2023-08-22T00:00:00	2024-11-08T09:00:00	8	Radiación solar	309
143041	7	Sololá	713	San Lucas Tolimán	10	San Lucas Tolimán	8	Agosto	2023-08-22T00:00:00	2024-11-08T10:00:00	2	Temperatura media	23.2
143042	7	Sololá	713	San Lucas Tolimán	10	San Lucas Tolimán	8	Agosto	2023-08-22T00:00:00	2024-11-08T10:00:00	4	Temperatura máxima	23.3
143043	7	Sololá	713	San Lucas Tolimán	10	San Lucas Tolimán	8	Agosto	2023-08-22T00:00:00	2024-11-08T10:00:00	3	Temperatura mínima	22.3
143044	7	Sololá	713	San Lucas Tolimán	10	San Lucas Tolimán	8	Agosto	2023-08-22T00:00:00	2024-11-08T10:00:00	5	Humedad	56
143045	7	Sololá	713	San Lucas Tolimán	10	San Lucas Tolimán	8	Agosto	2023-08-22T00:00:00	2024-11-08T10:00:00	6	Velocidad del viento	3.2
143046	7	Sololá	713	San Lucas Tolimán	10	San Lucas Tolimán	8	Agosto	2023-08-22T00:00:00	2024-11-08T10:00:00	7	Dirección del viento	3.22
143047	7	Sololá	713	San Lucas Tolimán	10	San Lucas Tolimán	8	Agosto	2023-08-22T00:00:00	2024-11-08T10:00:00	1	Precipitación	0
143048	7	Sololá	713	San Lucas Tolimán	10	San Lucas Tolimán	8	Agosto	2023-08-22T00:00:00	2024-11-08T10:00:00	8	Radiación solar	409
143049	7	Sololá	713	San Lucas Tolimán	10	San Lucas Tolimán	8	Agosto	2023-08-22T00:00:00	2024-11-08T11:00:00	2	Temperatura media	22
143050	7	Sololá	713	San Lucas Tolimán	10	San Lucas Tolimán	8	Agosto	2023-08-22T00:00:00	2024-11-08T11:00:00	4	Temperatura máxima	23.2
143051	7	Sololá	713	San Lucas Tolimán	10	San Lucas Tolimán	8	Agosto	2023-08-22T00:00:00	2024-11-08T11:00:00	3	Temperatura mínima	21.7
143052	7	Sololá	713	San Lucas Tolimán	10	San Lucas Tolimán	8	Agosto	2023-08-22T00:00:00	2024-11-08T11:00:00	5	Humedad	61
143053	7	Sololá	713	San Lucas Tolimán	10	San Lucas Tolimán	8	Agosto	2023-08-22T00:00:00	2024-11-08T11:00:00	6	Velocidad del viento	12.9
143054	7	Sololá	713	San Lucas Tolimán	10	San Lucas Tolimán	8	Agosto	2023-08-22T00:00:00	2024-11-08T11:00:00	7	Dirección del viento	12.87
143055	7	Sololá	713	San Lucas Tolimán	10	San Lucas Tolimán	8	Agosto	2023-08-22T00:00:00	2024-11-08T11:00:00	1	Precipitación	0
143056	7	Sololá	713	San Lucas Tolimán	10	San Lucas Tolimán	8	Agosto	2023-08-22T00:00:00	2024-11-08T11:00:00	8	Radiación solar	818
143057	7	Sololá	713	San Lucas Tolimán	10	San Lucas Tolimán	8	Agosto	2023-08-22T00:00:00	2024-11-08T12:00:00	2	Temperatura media	22.4
143058	7	Sololá	713	San Lucas Tolimán	10	San Lucas Tolimán	8	Agosto	2023-08-22T00:00:00	2024-11-08T12:00:00	4	Temperatura máxima	23.6
143059	7	Sololá	713	San Lucas Tolimán	10	San Lucas Tolimán	8	Agosto	2023-08-22T00:00:00	2024-11-08T12:00:00	3	Temperatura mínima	21.9
143060	7	Sololá	713	San Lucas Tolimán	10	San Lucas Tolimán	8	Agosto	2023-08-22T00:00:00	2024-11-08T12:00:00	5	Humedad	61
143061	7	Sololá	713	San Lucas Tolimán	10	San Lucas Tolimán	8	Agosto	2023-08-22T00:00:00	2024-11-08T12:00:00	6	Velocidad del viento	12.9
143062	7	Sololá	713	San Lucas Tolimán	10	San Lucas Tolimán	8	Agosto	2023-08-22T00:00:00	2024-11-08T12:00:00	7	Dirección del viento	12.87
143063	7	Sololá	713	San Lucas Tolimán	10	San Lucas Tolimán	8	Agosto	2023-08-22T00:00:00	2024-11-08T12:00:00	1	Precipitación	0
143064	7	Sololá	713	San Lucas Tolimán	10	San Lucas Tolimán	8	Agosto	2023-08-22T00:00:00	2024-11-08T12:00:00	8	Radiación solar	948
143065	7	Sololá	713	San Lucas Tolimán	10	San Lucas Tolimán	8	Agosto	2023-08-22T00:00:00	2024-11-08T13:00:00	2	Temperatura media	23.6
143066	7	Sololá	713	San Lucas Tolimán	10	San Lucas Tolimán	8	Agosto	2023-08-22T00:00:00	2024-11-08T13:00:00	4	Temperatura máxima	24.1
143067	7	Sololá	713	San Lucas Tolimán	10	San Lucas Tolimán	8	Agosto	2023-08-22T00:00:00	2024-11-08T13:00:00	3	Temperatura mínima	22.4
143068	7	Sololá	713	San Lucas Tolimán	10	San Lucas Tolimán	8	Agosto	2023-08-22T00:00:00	2024-11-08T13:00:00	5	Humedad	59
143069	7	Sololá	713	San Lucas Tolimán	10	San Lucas Tolimán	8	Agosto	2023-08-22T00:00:00	2024-11-08T13:00:00	6	Velocidad del viento	12.9
143070	7	Sololá	713	San Lucas Tolimán	10	San Lucas Tolimán	8	Agosto	2023-08-22T00:00:00	2024-11-08T13:00:00	7	Dirección del viento	12.87
143071	7	Sololá	713	San Lucas Tolimán	10	San Lucas Tolimán	8	Agosto	2023-08-22T00:00:00	2024-11-08T13:00:00	1	Precipitación	0
143072	7	Sololá	713	San Lucas Tolimán	10	San Lucas Tolimán	8	Agosto	2023-08-22T00:00:00	2024-11-08T13:00:00	8	Radiación solar	1067
143073	7	Sololá	713	San Lucas Tolimán	10	San Lucas Tolimán	8	Agosto	2023-08-22T00:00:00	2024-11-08T14:00:00	2	Temperatura media	23.7
143074	7	Sololá	713	San Lucas Tolimán	10	San Lucas Tolimán	8	Agosto	2023-08-22T00:00:00	2024-11-08T14:00:00	4	Temperatura máxima	23.9
143075	7	Sololá	713	San Lucas Tolimán	10	San Lucas Tolimán	8	Agosto	2023-08-22T00:00:00	2024-11-08T14:00:00	3	Temperatura mínima	23.1
143076	7	Sololá	713	San Lucas Tolimán	10	San Lucas Tolimán	8	Agosto	2023-08-22T00:00:00	2024-11-08T14:00:00	5	Humedad	59
143077	7	Sololá	713	San Lucas Tolimán	10	San Lucas Tolimán	8	Agosto	2023-08-22T00:00:00	2024-11-08T14:00:00	6	Velocidad del viento	12.9
143078	7	Sololá	713	San Lucas Tolimán	10	San Lucas Tolimán	8	Agosto	2023-08-22T00:00:00	2024-11-08T14:00:00	7	Dirección del viento	12.87
143079	7	Sololá	713	San Lucas Tolimán	10	San Lucas Tolimán	8	Agosto	2023-08-22T00:00:00	2024-11-08T14:00:00	1	Precipitación	0
143080	7	Sololá	713	San Lucas Tolimán	10	San Lucas Tolimán	8	Agosto	2023-08-22T00:00:00	2024-11-08T14:00:00	8	Radiación solar	999
143081	7	Sololá	713	San Lucas Tolimán	10	San Lucas Tolimán	8	Agosto	2023-08-22T00:00:00	2024-11-08T15:00:00	2	Temperatura media	22.3
143082	7	Sololá	713	San Lucas Tolimán	10	San Lucas Tolimán	8	Agosto	2023-08-22T00:00:00	2024-11-08T15:00:00	4	Temperatura máxima	23.9
143083	7	Sololá	713	San Lucas Tolimán	10	San Lucas Tolimán	8	Agosto	2023-08-22T00:00:00	2024-11-08T15:00:00	3	Temperatura mínima	21.7
143084	7	Sololá	713	San Lucas Tolimán	10	San Lucas Tolimán	8	Agosto	2023-08-22T00:00:00	2024-11-08T15:00:00	5	Humedad	60
143085	7	Sololá	713	San Lucas Tolimán	10	San Lucas Tolimán	8	Agosto	2023-08-22T00:00:00	2024-11-08T15:00:00	6	Velocidad del viento	12.9
143086	7	Sololá	713	San Lucas Tolimán	10	San Lucas Tolimán	8	Agosto	2023-08-22T00:00:00	2024-11-08T15:00:00	7	Dirección del viento	12.87
143087	7	Sololá	713	San Lucas Tolimán	10	San Lucas Tolimán	8	Agosto	2023-08-22T00:00:00	2024-11-08T15:00:00	1	Precipitación	0
143088	7	Sololá	713	San Lucas Tolimán	10	San Lucas Tolimán	8	Agosto	2023-08-22T00:00:00	2024-11-08T15:00:00	8	Radiación solar	607
143089	7	Sololá	713	San Lucas Tolimán	10	San Lucas Tolimán	8	Agosto	2023-08-22T00:00:00	2024-11-08T16:00:00	2	Temperatura media	22.1
143090	7	Sololá	713	San Lucas Tolimán	10	San Lucas Tolimán	8	Agosto	2023-08-22T00:00:00	2024-11-08T16:00:00	4	Temperatura máxima	22.7
143091	7	Sololá	713	San Lucas Tolimán	10	San Lucas Tolimán	8	Agosto	2023-08-22T00:00:00	2024-11-08T16:00:00	3	Temperatura mínima	21.9
143092	7	Sololá	713	San Lucas Tolimán	10	San Lucas Tolimán	8	Agosto	2023-08-22T00:00:00	2024-11-08T16:00:00	5	Humedad	61
143093	7	Sololá	713	San Lucas Tolimán	10	San Lucas Tolimán	8	Agosto	2023-08-22T00:00:00	2024-11-08T16:00:00	6	Velocidad del viento	11.3
143094	7	Sololá	713	San Lucas Tolimán	10	San Lucas Tolimán	8	Agosto	2023-08-22T00:00:00	2024-11-08T16:00:00	7	Dirección del viento	11.27
143095	7	Sololá	713	San Lucas Tolimán	10	San Lucas Tolimán	8	Agosto	2023-08-22T00:00:00	2024-11-08T16:00:00	1	Precipitación	0
143096	7	Sololá	713	San Lucas Tolimán	10	San Lucas Tolimán	8	Agosto	2023-08-22T00:00:00	2024-11-08T16:00:00	8	Radiación solar	395
143097	7	Sololá	713	San Lucas Tolimán	10	San Lucas Tolimán	8	Agosto	2023-08-22T00:00:00	2024-11-08T17:00:00	2	Temperatura media	20.9
143098	7	Sololá	713	San Lucas Tolimán	10	San Lucas Tolimán	8	Agosto	2023-08-22T00:00:00	2024-11-08T17:00:00	4	Temperatura máxima	22.1
143099	7	Sololá	713	San Lucas Tolimán	10	San Lucas Tolimán	8	Agosto	2023-08-22T00:00:00	2024-11-08T17:00:00	3	Temperatura mínima	20.9
143100	7	Sololá	713	San Lucas Tolimán	10	San Lucas Tolimán	8	Agosto	2023-08-22T00:00:00	2024-11-08T17:00:00	5	Humedad	62
143101	7	Sololá	713	San Lucas Tolimán	10	San Lucas Tolimán	8	Agosto	2023-08-22T00:00:00	2024-11-08T17:00:00	6	Velocidad del viento	9.7
143102	7	Sololá	713	San Lucas Tolimán	10	San Lucas Tolimán	8	Agosto	2023-08-22T00:00:00	2024-11-08T17:00:00	7	Dirección del viento	9.66
143103	7	Sololá	713	San Lucas Tolimán	10	San Lucas Tolimán	8	Agosto	2023-08-22T00:00:00	2024-11-08T17:00:00	1	Precipitación	0
143104	7	Sololá	713	San Lucas Tolimán	10	San Lucas Tolimán	8	Agosto	2023-08-22T00:00:00	2024-11-08T17:00:00	8	Radiación solar	178
143105	7	Sololá	713	San Lucas Tolimán	10	San Lucas Tolimán	8	Agosto	2023-08-22T00:00:00	2024-11-08T18:00:00	2	Temperatura media	20.9
143106	7	Sololá	713	San Lucas Tolimán	10	San Lucas Tolimán	8	Agosto	2023-08-22T00:00:00	2024-11-08T18:00:00	4	Temperatura máxima	21.1
143107	7	Sololá	713	San Lucas Tolimán	10	San Lucas Tolimán	8	Agosto	2023-08-22T00:00:00	2024-11-08T18:00:00	3	Temperatura mínima	20.3
143108	7	Sololá	713	San Lucas Tolimán	10	San Lucas Tolimán	8	Agosto	2023-08-22T00:00:00	2024-11-08T18:00:00	5	Humedad	58
143109	7	Sololá	713	San Lucas Tolimán	10	San Lucas Tolimán	8	Agosto	2023-08-22T00:00:00	2024-11-08T18:00:00	6	Velocidad del viento	8
143110	7	Sololá	713	San Lucas Tolimán	10	San Lucas Tolimán	8	Agosto	2023-08-22T00:00:00	2024-11-08T18:00:00	7	Dirección del viento	8.05
143111	7	Sololá	713	San Lucas Tolimán	10	San Lucas Tolimán	8	Agosto	2023-08-22T00:00:00	2024-11-08T18:00:00	1	Precipitación	0
143112	7	Sololá	713	San Lucas Tolimán	10	San Lucas Tolimán	8	Agosto	2023-08-22T00:00:00	2024-11-08T18:00:00	8	Radiación solar	77
143113	7	Sololá	713	San Lucas Tolimán	10	San Lucas Tolimán	8	Agosto	2023-08-22T00:00:00	2024-11-08T19:00:00	2	Temperatura media	19.5
143114	7	Sololá	713	San Lucas Tolimán	10	San Lucas Tolimán	8	Agosto	2023-08-22T00:00:00	2024-11-08T19:00:00	4	Temperatura máxima	21
143115	7	Sololá	713	San Lucas Tolimán	10	San Lucas Tolimán	8	Agosto	2023-08-22T00:00:00	2024-11-08T19:00:00	3	Temperatura mínima	19.4
143116	7	Sololá	713	San Lucas Tolimán	10	San Lucas Tolimán	8	Agosto	2023-08-22T00:00:00	2024-11-08T19:00:00	5	Humedad	61
143117	7	Sololá	713	San Lucas Tolimán	10	San Lucas Tolimán	8	Agosto	2023-08-22T00:00:00	2024-11-08T19:00:00	6	Velocidad del viento	6.4
143118	7	Sololá	713	San Lucas Tolimán	10	San Lucas Tolimán	8	Agosto	2023-08-22T00:00:00	2024-11-08T19:00:00	7	Dirección del viento	6.44
143119	7	Sololá	713	San Lucas Tolimán	10	San Lucas Tolimán	8	Agosto	2023-08-22T00:00:00	2024-11-08T19:00:00	1	Precipitación	0
143120	7	Sololá	713	San Lucas Tolimán	10	San Lucas Tolimán	8	Agosto	2023-08-22T00:00:00	2024-11-08T19:00:00	8	Radiación solar	0
143121	7	Sololá	713	San Lucas Tolimán	10	San Lucas Tolimán	8	Agosto	2023-08-22T00:00:00	2024-11-08T20:00:00	2	Temperatura media	19.3
143122	7	Sololá	713	San Lucas Tolimán	10	San Lucas Tolimán	8	Agosto	2023-08-22T00:00:00	2024-11-08T20:00:00	4	Temperatura máxima	19.8
143123	7	Sololá	713	San Lucas Tolimán	10	San Lucas Tolimán	8	Agosto	2023-08-22T00:00:00	2024-11-08T20:00:00	3	Temperatura mínima	19.3
143124	7	Sololá	713	San Lucas Tolimán	10	San Lucas Tolimán	8	Agosto	2023-08-22T00:00:00	2024-11-08T20:00:00	5	Humedad	60
143125	7	Sololá	713	San Lucas Tolimán	10	San Lucas Tolimán	8	Agosto	2023-08-22T00:00:00	2024-11-08T20:00:00	6	Velocidad del viento	4.8
143126	7	Sololá	713	San Lucas Tolimán	10	San Lucas Tolimán	8	Agosto	2023-08-22T00:00:00	2024-11-08T20:00:00	7	Dirección del viento	4.83
143127	7	Sololá	713	San Lucas Tolimán	10	San Lucas Tolimán	8	Agosto	2023-08-22T00:00:00	2024-11-08T20:00:00	1	Precipitación	0
143128	7	Sololá	713	San Lucas Tolimán	10	San Lucas Tolimán	8	Agosto	2023-08-22T00:00:00	2024-11-08T20:00:00	8	Radiación solar	0
143129	7	Sololá	713	San Lucas Tolimán	10	San Lucas Tolimán	8	Agosto	2023-08-22T00:00:00	2024-11-08T21:00:00	2	Temperatura media	19.7
143130	7	Sololá	713	San Lucas Tolimán	10	San Lucas Tolimán	8	Agosto	2023-08-22T00:00:00	2024-11-08T21:00:00	4	Temperatura máxima	20.3
143131	7	Sololá	713	San Lucas Tolimán	10	San Lucas Tolimán	8	Agosto	2023-08-22T00:00:00	2024-11-08T21:00:00	3	Temperatura mínima	19.2
143132	7	Sololá	713	San Lucas Tolimán	10	San Lucas Tolimán	8	Agosto	2023-08-22T00:00:00	2024-11-08T21:00:00	5	Humedad	56
143133	7	Sololá	713	San Lucas Tolimán	10	San Lucas Tolimán	8	Agosto	2023-08-22T00:00:00	2024-11-08T21:00:00	6	Velocidad del viento	3.2
143134	7	Sololá	713	San Lucas Tolimán	10	San Lucas Tolimán	8	Agosto	2023-08-22T00:00:00	2024-11-08T21:00:00	7	Dirección del viento	3.22
143135	7	Sololá	713	San Lucas Tolimán	10	San Lucas Tolimán	8	Agosto	2023-08-22T00:00:00	2024-11-08T21:00:00	1	Precipitación	0
143136	7	Sololá	713	San Lucas Tolimán	10	San Lucas Tolimán	8	Agosto	2023-08-22T00:00:00	2024-11-08T21:00:00	8	Radiación solar	0
143137	7	Sololá	713	San Lucas Tolimán	10	San Lucas Tolimán	8	Agosto	2023-08-22T00:00:00	2024-11-08T22:00:00	2	Temperatura media	19.7
143138	7	Sololá	713	San Lucas Tolimán	10	San Lucas Tolimán	8	Agosto	2023-08-22T00:00:00	2024-11-08T22:00:00	4	Temperatura máxima	20
143139	7	Sololá	713	San Lucas Tolimán	10	San Lucas Tolimán	8	Agosto	2023-08-22T00:00:00	2024-11-08T22:00:00	3	Temperatura mínima	19.4
143140	7	Sololá	713	San Lucas Tolimán	10	San Lucas Tolimán	8	Agosto	2023-08-22T00:00:00	2024-11-08T22:00:00	5	Humedad	58
143141	7	Sololá	713	San Lucas Tolimán	10	San Lucas Tolimán	8	Agosto	2023-08-22T00:00:00	2024-11-08T22:00:00	6	Velocidad del viento	1.6
143142	7	Sololá	713	San Lucas Tolimán	10	San Lucas Tolimán	8	Agosto	2023-08-22T00:00:00	2024-11-08T22:00:00	7	Dirección del viento	1.61
143143	7	Sololá	713	San Lucas Tolimán	10	San Lucas Tolimán	8	Agosto	2023-08-22T00:00:00	2024-11-08T22:00:00	1	Precipitación	0
143144	7	Sololá	713	San Lucas Tolimán	10	San Lucas Tolimán	8	Agosto	2023-08-22T00:00:00	2024-11-08T22:00:00	8	Radiación solar	0
143145	7	Sololá	713	San Lucas Tolimán	10	San Lucas Tolimán	8	Agosto	2023-08-22T00:00:00	2024-11-08T23:00:00	2	Temperatura media	18.6
143146	7	Sololá	713	San Lucas Tolimán	10	San Lucas Tolimán	8	Agosto	2023-08-22T00:00:00	2024-11-08T23:00:00	4	Temperatura máxima	19.7
143147	7	Sololá	713	San Lucas Tolimán	10	San Lucas Tolimán	8	Agosto	2023-08-22T00:00:00	2024-11-08T23:00:00	3	Temperatura mínima	18.2
143148	7	Sololá	713	San Lucas Tolimán	10	San Lucas Tolimán	8	Agosto	2023-08-22T00:00:00	2024-11-08T23:00:00	5	Humedad	59
143149	7	Sololá	713	San Lucas Tolimán	10	San Lucas Tolimán	8	Agosto	2023-08-22T00:00:00	2024-11-08T23:00:00	6	Velocidad del viento	1.6
143150	7	Sololá	713	San Lucas Tolimán	10	San Lucas Tolimán	8	Agosto	2023-08-22T00:00:00	2024-11-08T23:00:00	7	Dirección del viento	1.61
143151	7	Sololá	713	San Lucas Tolimán	10	San Lucas Tolimán	8	Agosto	2023-08-22T00:00:00	2024-11-08T23:00:00	1	Precipitación	0
143152	7	Sololá	713	San Lucas Tolimán	10	San Lucas Tolimán	8	Agosto	2023-08-22T00:00:00	2024-11-08T23:00:00	8	Radiación solar	0
143153	7	Sololá	713	San Lucas Tolimán	10	San Lucas Tolimán	8	Agosto	2023-08-23T00:00:00	2024-11-08T00:00:00	2	Temperatura media	17.3
143154	7	Sololá	713	San Lucas Tolimán	10	San Lucas Tolimán	8	Agosto	2023-08-23T00:00:00	2024-11-08T00:00:00	4	Temperatura máxima	18.6
143155	7	Sololá	713	San Lucas Tolimán	10	San Lucas Tolimán	8	Agosto	2023-08-23T00:00:00	2024-11-08T00:00:00	3	Temperatura mínima	17.3
143156	7	Sololá	713	San Lucas Tolimán	10	San Lucas Tolimán	8	Agosto	2023-08-23T00:00:00	2024-11-08T00:00:00	5	Humedad	61
143157	7	Sololá	713	San Lucas Tolimán	10	San Lucas Tolimán	8	Agosto	2023-08-23T00:00:00	2024-11-08T00:00:00	6	Velocidad del viento	1.6
143158	7	Sololá	713	San Lucas Tolimán	10	San Lucas Tolimán	8	Agosto	2023-08-23T00:00:00	2024-11-08T00:00:00	7	Dirección del viento	1.61
143159	7	Sololá	713	San Lucas Tolimán	10	San Lucas Tolimán	8	Agosto	2023-08-23T00:00:00	2024-11-08T00:00:00	1	Precipitación	0
143160	7	Sololá	713	San Lucas Tolimán	10	San Lucas Tolimán	8	Agosto	2023-08-23T00:00:00	2024-11-08T00:00:00	8	Radiación solar	0
143161	7	Sololá	713	San Lucas Tolimán	10	San Lucas Tolimán	8	Agosto	2023-08-23T00:00:00	2024-11-08T01:00:00	2	Temperatura media	18.1
143162	7	Sololá	713	San Lucas Tolimán	10	San Lucas Tolimán	8	Agosto	2023-08-23T00:00:00	2024-11-08T01:00:00	4	Temperatura máxima	18.1
143163	7	Sololá	713	San Lucas Tolimán	10	San Lucas Tolimán	8	Agosto	2023-08-23T00:00:00	2024-11-08T01:00:00	3	Temperatura mínima	17.3
143164	7	Sololá	713	San Lucas Tolimán	10	San Lucas Tolimán	8	Agosto	2023-08-23T00:00:00	2024-11-08T01:00:00	5	Humedad	59
143165	7	Sololá	713	San Lucas Tolimán	10	San Lucas Tolimán	8	Agosto	2023-08-23T00:00:00	2024-11-08T01:00:00	6	Velocidad del viento	1.6
143166	7	Sololá	713	San Lucas Tolimán	10	San Lucas Tolimán	8	Agosto	2023-08-23T00:00:00	2024-11-08T01:00:00	7	Dirección del viento	1.61
143167	7	Sololá	713	San Lucas Tolimán	10	San Lucas Tolimán	8	Agosto	2023-08-23T00:00:00	2024-11-08T01:00:00	1	Precipitación	0
143168	7	Sololá	713	San Lucas Tolimán	10	San Lucas Tolimán	8	Agosto	2023-08-23T00:00:00	2024-11-08T01:00:00	8	Radiación solar	0
143169	7	Sololá	713	San Lucas Tolimán	10	San Lucas Tolimán	8	Agosto	2023-08-23T00:00:00	2024-11-08T02:00:00	2	Temperatura media	18.5
143170	7	Sololá	713	San Lucas Tolimán	10	San Lucas Tolimán	8	Agosto	2023-08-23T00:00:00	2024-11-08T02:00:00	4	Temperatura máxima	18.7
143171	7	Sololá	713	San Lucas Tolimán	10	San Lucas Tolimán	8	Agosto	2023-08-23T00:00:00	2024-11-08T02:00:00	3	Temperatura mínima	18.1
143172	7	Sololá	713	San Lucas Tolimán	10	San Lucas Tolimán	8	Agosto	2023-08-23T00:00:00	2024-11-08T02:00:00	5	Humedad	57
143173	7	Sololá	713	San Lucas Tolimán	10	San Lucas Tolimán	8	Agosto	2023-08-23T00:00:00	2024-11-08T02:00:00	6	Velocidad del viento	1.6
143174	7	Sololá	713	San Lucas Tolimán	10	San Lucas Tolimán	8	Agosto	2023-08-23T00:00:00	2024-11-08T02:00:00	7	Dirección del viento	1.61
143175	7	Sololá	713	San Lucas Tolimán	10	San Lucas Tolimán	8	Agosto	2023-08-23T00:00:00	2024-11-08T02:00:00	1	Precipitación	0
143176	7	Sololá	713	San Lucas Tolimán	10	San Lucas Tolimán	8	Agosto	2023-08-23T00:00:00	2024-11-08T02:00:00	8	Radiación solar	0
143177	7	Sololá	713	San Lucas Tolimán	10	San Lucas Tolimán	8	Agosto	2023-08-23T00:00:00	2024-11-08T03:00:00	2	Temperatura media	17.9
143178	7	Sololá	713	San Lucas Tolimán	10	San Lucas Tolimán	8	Agosto	2023-08-23T00:00:00	2024-11-08T03:00:00	4	Temperatura máxima	18.4
143179	7	Sololá	713	San Lucas Tolimán	10	San Lucas Tolimán	8	Agosto	2023-08-23T00:00:00	2024-11-08T03:00:00	3	Temperatura mínima	17.6
143180	7	Sololá	713	San Lucas Tolimán	10	San Lucas Tolimán	8	Agosto	2023-08-23T00:00:00	2024-11-08T03:00:00	5	Humedad	57
143181	7	Sololá	713	San Lucas Tolimán	10	San Lucas Tolimán	8	Agosto	2023-08-23T00:00:00	2024-11-08T03:00:00	6	Velocidad del viento	1.6
143182	7	Sololá	713	San Lucas Tolimán	10	San Lucas Tolimán	8	Agosto	2023-08-23T00:00:00	2024-11-08T03:00:00	7	Dirección del viento	1.61
143183	7	Sololá	713	San Lucas Tolimán	10	San Lucas Tolimán	8	Agosto	2023-08-23T00:00:00	2024-11-08T03:00:00	1	Precipitación	0
143184	7	Sololá	713	San Lucas Tolimán	10	San Lucas Tolimán	8	Agosto	2023-08-23T00:00:00	2024-11-08T03:00:00	8	Radiación solar	0
143185	7	Sololá	713	San Lucas Tolimán	10	San Lucas Tolimán	8	Agosto	2023-08-23T00:00:00	2024-11-08T04:00:00	2	Temperatura media	17.8
143186	7	Sololá	713	San Lucas Tolimán	10	San Lucas Tolimán	8	Agosto	2023-08-23T00:00:00	2024-11-08T04:00:00	4	Temperatura máxima	18.2
143187	7	Sololá	713	San Lucas Tolimán	10	San Lucas Tolimán	8	Agosto	2023-08-23T00:00:00	2024-11-08T04:00:00	3	Temperatura mínima	17.7
143188	7	Sololá	713	San Lucas Tolimán	10	San Lucas Tolimán	8	Agosto	2023-08-23T00:00:00	2024-11-08T04:00:00	5	Humedad	57
143189	7	Sololá	713	San Lucas Tolimán	10	San Lucas Tolimán	8	Agosto	2023-08-23T00:00:00	2024-11-08T04:00:00	6	Velocidad del viento	1.6
143190	7	Sololá	713	San Lucas Tolimán	10	San Lucas Tolimán	8	Agosto	2023-08-23T00:00:00	2024-11-08T04:00:00	7	Dirección del viento	1.61
143191	7	Sololá	713	San Lucas Tolimán	10	San Lucas Tolimán	8	Agosto	2023-08-23T00:00:00	2024-11-08T04:00:00	1	Precipitación	0
143192	7	Sololá	713	San Lucas Tolimán	10	San Lucas Tolimán	8	Agosto	2023-08-23T00:00:00	2024-11-08T04:00:00	8	Radiación solar	0
143193	7	Sololá	713	San Lucas Tolimán	10	San Lucas Tolimán	8	Agosto	2023-08-23T00:00:00	2024-11-08T05:00:00	2	Temperatura media	16.7
143194	7	Sololá	713	San Lucas Tolimán	10	San Lucas Tolimán	8	Agosto	2023-08-23T00:00:00	2024-11-08T05:00:00	4	Temperatura máxima	18.2
143195	7	Sololá	713	San Lucas Tolimán	10	San Lucas Tolimán	8	Agosto	2023-08-23T00:00:00	2024-11-08T05:00:00	3	Temperatura mínima	16.6
143196	7	Sololá	713	San Lucas Tolimán	10	San Lucas Tolimán	8	Agosto	2023-08-23T00:00:00	2024-11-08T05:00:00	5	Humedad	61
143197	7	Sololá	713	San Lucas Tolimán	10	San Lucas Tolimán	8	Agosto	2023-08-23T00:00:00	2024-11-08T05:00:00	6	Velocidad del viento	1.6
143198	7	Sololá	713	San Lucas Tolimán	10	San Lucas Tolimán	8	Agosto	2023-08-23T00:00:00	2024-11-08T05:00:00	7	Dirección del viento	1.61
143199	7	Sololá	713	San Lucas Tolimán	10	San Lucas Tolimán	8	Agosto	2023-08-23T00:00:00	2024-11-08T05:00:00	1	Precipitación	0
143200	7	Sololá	713	San Lucas Tolimán	10	San Lucas Tolimán	8	Agosto	2023-08-23T00:00:00	2024-11-08T05:00:00	8	Radiación solar	0
143201	7	Sololá	713	San Lucas Tolimán	10	San Lucas Tolimán	8	Agosto	2023-08-23T00:00:00	2024-11-08T06:00:00	2	Temperatura media	15.8
143202	7	Sololá	713	San Lucas Tolimán	10	San Lucas Tolimán	8	Agosto	2023-08-23T00:00:00	2024-11-08T06:00:00	4	Temperatura máxima	16.6
143203	7	Sololá	713	San Lucas Tolimán	10	San Lucas Tolimán	8	Agosto	2023-08-23T00:00:00	2024-11-08T06:00:00	3	Temperatura mínima	15.8
143204	7	Sololá	713	San Lucas Tolimán	10	San Lucas Tolimán	8	Agosto	2023-08-23T00:00:00	2024-11-08T06:00:00	5	Humedad	63
143205	7	Sololá	713	San Lucas Tolimán	10	San Lucas Tolimán	8	Agosto	2023-08-23T00:00:00	2024-11-08T06:00:00	6	Velocidad del viento	0
143206	7	Sololá	713	San Lucas Tolimán	10	San Lucas Tolimán	8	Agosto	2023-08-23T00:00:00	2024-11-08T06:00:00	7	Dirección del viento	0
143207	7	Sololá	713	San Lucas Tolimán	10	San Lucas Tolimán	8	Agosto	2023-08-23T00:00:00	2024-11-08T06:00:00	1	Precipitación	0
143208	7	Sololá	713	San Lucas Tolimán	10	San Lucas Tolimán	8	Agosto	2023-08-23T00:00:00	2024-11-08T06:00:00	8	Radiación solar	0
143209	7	Sololá	713	San Lucas Tolimán	10	San Lucas Tolimán	8	Agosto	2023-08-23T00:00:00	2024-11-08T07:00:00	2	Temperatura media	16.7
143210	7	Sololá	713	San Lucas Tolimán	10	San Lucas Tolimán	8	Agosto	2023-08-23T00:00:00	2024-11-08T07:00:00	4	Temperatura máxima	16.7
143211	7	Sololá	713	San Lucas Tolimán	10	San Lucas Tolimán	8	Agosto	2023-08-23T00:00:00	2024-11-08T07:00:00	3	Temperatura mínima	15.7
143212	7	Sololá	713	San Lucas Tolimán	10	San Lucas Tolimán	8	Agosto	2023-08-23T00:00:00	2024-11-08T07:00:00	5	Humedad	61
143213	7	Sololá	713	San Lucas Tolimán	10	San Lucas Tolimán	8	Agosto	2023-08-23T00:00:00	2024-11-08T07:00:00	6	Velocidad del viento	0
143214	7	Sololá	713	San Lucas Tolimán	10	San Lucas Tolimán	8	Agosto	2023-08-23T00:00:00	2024-11-08T07:00:00	7	Dirección del viento	0
143215	7	Sololá	713	San Lucas Tolimán	10	San Lucas Tolimán	8	Agosto	2023-08-23T00:00:00	2024-11-08T07:00:00	1	Precipitación	0
143216	7	Sololá	713	San Lucas Tolimán	10	San Lucas Tolimán	8	Agosto	2023-08-23T00:00:00	2024-11-08T07:00:00	8	Radiación solar	47
143217	7	Sololá	713	San Lucas Tolimán	10	San Lucas Tolimán	8	Agosto	2023-08-23T00:00:00	2024-11-08T08:00:00	2	Temperatura media	18.9
143218	7	Sololá	713	San Lucas Tolimán	10	San Lucas Tolimán	8	Agosto	2023-08-23T00:00:00	2024-11-08T08:00:00	4	Temperatura máxima	18.9
143219	7	Sololá	713	San Lucas Tolimán	10	San Lucas Tolimán	8	Agosto	2023-08-23T00:00:00	2024-11-08T08:00:00	3	Temperatura mínima	16.7
143220	7	Sololá	713	San Lucas Tolimán	10	San Lucas Tolimán	8	Agosto	2023-08-23T00:00:00	2024-11-08T08:00:00	5	Humedad	61
143221	7	Sololá	713	San Lucas Tolimán	10	San Lucas Tolimán	8	Agosto	2023-08-23T00:00:00	2024-11-08T08:00:00	6	Velocidad del viento	3.2
143222	7	Sololá	713	San Lucas Tolimán	10	San Lucas Tolimán	8	Agosto	2023-08-23T00:00:00	2024-11-08T08:00:00	7	Dirección del viento	3.22
143223	7	Sololá	713	San Lucas Tolimán	10	San Lucas Tolimán	8	Agosto	2023-08-23T00:00:00	2024-11-08T08:00:00	1	Precipitación	0
143224	7	Sololá	713	San Lucas Tolimán	10	San Lucas Tolimán	8	Agosto	2023-08-23T00:00:00	2024-11-08T08:00:00	8	Radiación solar	210
143225	7	Sololá	713	San Lucas Tolimán	10	San Lucas Tolimán	8	Agosto	2023-08-23T00:00:00	2024-11-08T09:00:00	2	Temperatura media	20.5
143226	7	Sololá	713	San Lucas Tolimán	10	San Lucas Tolimán	8	Agosto	2023-08-23T00:00:00	2024-11-08T09:00:00	4	Temperatura máxima	20.6
143227	7	Sololá	713	San Lucas Tolimán	10	San Lucas Tolimán	8	Agosto	2023-08-23T00:00:00	2024-11-08T09:00:00	3	Temperatura mínima	18.9
143228	7	Sololá	713	San Lucas Tolimán	10	San Lucas Tolimán	8	Agosto	2023-08-23T00:00:00	2024-11-08T09:00:00	5	Humedad	58
143229	7	Sololá	713	San Lucas Tolimán	10	San Lucas Tolimán	8	Agosto	2023-08-23T00:00:00	2024-11-08T09:00:00	6	Velocidad del viento	8
143230	7	Sololá	713	San Lucas Tolimán	10	San Lucas Tolimán	8	Agosto	2023-08-23T00:00:00	2024-11-08T09:00:00	7	Dirección del viento	8.05
143231	7	Sololá	713	San Lucas Tolimán	10	San Lucas Tolimán	8	Agosto	2023-08-23T00:00:00	2024-11-08T09:00:00	1	Precipitación	0
143232	7	Sololá	713	San Lucas Tolimán	10	San Lucas Tolimán	8	Agosto	2023-08-23T00:00:00	2024-11-08T09:00:00	8	Radiación solar	481
143233	7	Sololá	713	San Lucas Tolimán	10	San Lucas Tolimán	8	Agosto	2023-08-23T00:00:00	2024-11-08T10:00:00	2	Temperatura media	22.7
143234	7	Sololá	713	San Lucas Tolimán	10	San Lucas Tolimán	8	Agosto	2023-08-23T00:00:00	2024-11-08T10:00:00	4	Temperatura máxima	23.2
143235	7	Sololá	713	San Lucas Tolimán	10	San Lucas Tolimán	8	Agosto	2023-08-23T00:00:00	2024-11-08T10:00:00	3	Temperatura mínima	20.4
143236	7	Sololá	713	San Lucas Tolimán	10	San Lucas Tolimán	8	Agosto	2023-08-23T00:00:00	2024-11-08T10:00:00	5	Humedad	48
143237	7	Sololá	713	San Lucas Tolimán	10	San Lucas Tolimán	8	Agosto	2023-08-23T00:00:00	2024-11-08T10:00:00	6	Velocidad del viento	4.8
143238	7	Sololá	713	San Lucas Tolimán	10	San Lucas Tolimán	8	Agosto	2023-08-23T00:00:00	2024-11-08T10:00:00	7	Dirección del viento	4.83
143239	7	Sololá	713	San Lucas Tolimán	10	San Lucas Tolimán	8	Agosto	2023-08-23T00:00:00	2024-11-08T10:00:00	1	Precipitación	0
143240	7	Sololá	713	San Lucas Tolimán	10	San Lucas Tolimán	8	Agosto	2023-08-23T00:00:00	2024-11-08T10:00:00	8	Radiación solar	800
143241	7	Sololá	713	San Lucas Tolimán	10	San Lucas Tolimán	8	Agosto	2023-08-23T00:00:00	2024-11-08T11:00:00	2	Temperatura media	21.6
143242	7	Sololá	713	San Lucas Tolimán	10	San Lucas Tolimán	8	Agosto	2023-08-23T00:00:00	2024-11-08T11:00:00	4	Temperatura máxima	23.6
143243	7	Sololá	713	San Lucas Tolimán	10	San Lucas Tolimán	8	Agosto	2023-08-23T00:00:00	2024-11-08T11:00:00	3	Temperatura mínima	21.6
143244	7	Sololá	713	San Lucas Tolimán	10	San Lucas Tolimán	8	Agosto	2023-08-23T00:00:00	2024-11-08T11:00:00	5	Humedad	61
143245	7	Sololá	713	San Lucas Tolimán	10	San Lucas Tolimán	8	Agosto	2023-08-23T00:00:00	2024-11-08T11:00:00	6	Velocidad del viento	6.4
143246	7	Sololá	713	San Lucas Tolimán	10	San Lucas Tolimán	8	Agosto	2023-08-23T00:00:00	2024-11-08T11:00:00	7	Dirección del viento	6.44
143247	7	Sololá	713	San Lucas Tolimán	10	San Lucas Tolimán	8	Agosto	2023-08-23T00:00:00	2024-11-08T11:00:00	1	Precipitación	0
143248	7	Sololá	713	San Lucas Tolimán	10	San Lucas Tolimán	8	Agosto	2023-08-23T00:00:00	2024-11-08T11:00:00	8	Radiación solar	578
143249	7	Sololá	713	San Lucas Tolimán	10	San Lucas Tolimán	8	Agosto	2023-08-23T00:00:00	2024-11-08T12:00:00	2	Temperatura media	21.4
143250	7	Sololá	713	San Lucas Tolimán	10	San Lucas Tolimán	8	Agosto	2023-08-23T00:00:00	2024-11-08T12:00:00	4	Temperatura máxima	21.7
143251	7	Sololá	713	San Lucas Tolimán	10	San Lucas Tolimán	8	Agosto	2023-08-23T00:00:00	2024-11-08T12:00:00	3	Temperatura mínima	21.2
143252	7	Sololá	713	San Lucas Tolimán	10	San Lucas Tolimán	8	Agosto	2023-08-23T00:00:00	2024-11-08T12:00:00	5	Humedad	61
143253	7	Sololá	713	San Lucas Tolimán	10	San Lucas Tolimán	8	Agosto	2023-08-23T00:00:00	2024-11-08T12:00:00	6	Velocidad del viento	9.7
143254	7	Sololá	713	San Lucas Tolimán	10	San Lucas Tolimán	8	Agosto	2023-08-23T00:00:00	2024-11-08T12:00:00	7	Dirección del viento	9.66
143255	7	Sololá	713	San Lucas Tolimán	10	San Lucas Tolimán	8	Agosto	2023-08-23T00:00:00	2024-11-08T12:00:00	1	Precipitación	0
143256	7	Sololá	713	San Lucas Tolimán	10	San Lucas Tolimán	8	Agosto	2023-08-23T00:00:00	2024-11-08T12:00:00	8	Radiación solar	614
143257	7	Sololá	713	San Lucas Tolimán	10	San Lucas Tolimán	8	Agosto	2023-08-23T00:00:00	2024-11-08T13:00:00	2	Temperatura media	21.2
143258	7	Sololá	713	San Lucas Tolimán	10	San Lucas Tolimán	8	Agosto	2023-08-23T00:00:00	2024-11-08T13:00:00	4	Temperatura máxima	21.5
143259	7	Sololá	713	San Lucas Tolimán	10	San Lucas Tolimán	8	Agosto	2023-08-23T00:00:00	2024-11-08T13:00:00	3	Temperatura mínima	20.8
143260	7	Sololá	713	San Lucas Tolimán	10	San Lucas Tolimán	8	Agosto	2023-08-23T00:00:00	2024-11-08T13:00:00	5	Humedad	62
143261	7	Sololá	713	San Lucas Tolimán	10	San Lucas Tolimán	8	Agosto	2023-08-23T00:00:00	2024-11-08T13:00:00	6	Velocidad del viento	9.7
143262	7	Sololá	713	San Lucas Tolimán	10	San Lucas Tolimán	8	Agosto	2023-08-23T00:00:00	2024-11-08T13:00:00	7	Dirección del viento	9.66
143263	7	Sololá	713	San Lucas Tolimán	10	San Lucas Tolimán	8	Agosto	2023-08-23T00:00:00	2024-11-08T13:00:00	1	Precipitación	0
143264	7	Sololá	713	San Lucas Tolimán	10	San Lucas Tolimán	8	Agosto	2023-08-23T00:00:00	2024-11-08T13:00:00	8	Radiación solar	501
143265	7	Sololá	713	San Lucas Tolimán	10	San Lucas Tolimán	8	Agosto	2023-08-23T00:00:00	2024-11-08T14:00:00	2	Temperatura media	21.3
143266	7	Sololá	713	San Lucas Tolimán	10	San Lucas Tolimán	8	Agosto	2023-08-23T00:00:00	2024-11-08T14:00:00	4	Temperatura máxima	21.4
143267	7	Sololá	713	San Lucas Tolimán	10	San Lucas Tolimán	8	Agosto	2023-08-23T00:00:00	2024-11-08T14:00:00	3	Temperatura mínima	21.1
143268	7	Sololá	713	San Lucas Tolimán	10	San Lucas Tolimán	8	Agosto	2023-08-23T00:00:00	2024-11-08T14:00:00	5	Humedad	62
143269	7	Sololá	713	San Lucas Tolimán	10	San Lucas Tolimán	8	Agosto	2023-08-23T00:00:00	2024-11-08T14:00:00	6	Velocidad del viento	9.7
143270	7	Sololá	713	San Lucas Tolimán	10	San Lucas Tolimán	8	Agosto	2023-08-23T00:00:00	2024-11-08T14:00:00	7	Dirección del viento	9.66
143271	7	Sololá	713	San Lucas Tolimán	10	San Lucas Tolimán	8	Agosto	2023-08-23T00:00:00	2024-11-08T14:00:00	1	Precipitación	0
143272	7	Sololá	713	San Lucas Tolimán	10	San Lucas Tolimán	8	Agosto	2023-08-23T00:00:00	2024-11-08T14:00:00	8	Radiación solar	495
143273	7	Sololá	713	San Lucas Tolimán	10	San Lucas Tolimán	8	Agosto	2023-08-23T00:00:00	2024-11-08T15:00:00	2	Temperatura media	21.3
143274	7	Sololá	713	San Lucas Tolimán	10	San Lucas Tolimán	8	Agosto	2023-08-23T00:00:00	2024-11-08T15:00:00	4	Temperatura máxima	21.7
143275	7	Sololá	713	San Lucas Tolimán	10	San Lucas Tolimán	8	Agosto	2023-08-23T00:00:00	2024-11-08T15:00:00	3	Temperatura mínima	21.1
143276	7	Sololá	713	San Lucas Tolimán	10	San Lucas Tolimán	8	Agosto	2023-08-23T00:00:00	2024-11-08T15:00:00	5	Humedad	62
143277	7	Sololá	713	San Lucas Tolimán	10	San Lucas Tolimán	8	Agosto	2023-08-23T00:00:00	2024-11-08T15:00:00	6	Velocidad del viento	9.7
143278	7	Sololá	713	San Lucas Tolimán	10	San Lucas Tolimán	8	Agosto	2023-08-23T00:00:00	2024-11-08T15:00:00	7	Dirección del viento	9.66
143279	7	Sololá	713	San Lucas Tolimán	10	San Lucas Tolimán	8	Agosto	2023-08-23T00:00:00	2024-11-08T15:00:00	1	Precipitación	0
143280	7	Sololá	713	San Lucas Tolimán	10	San Lucas Tolimán	8	Agosto	2023-08-23T00:00:00	2024-11-08T15:00:00	8	Radiación solar	460
143281	7	Sololá	713	San Lucas Tolimán	10	San Lucas Tolimán	8	Agosto	2023-08-23T00:00:00	2024-11-08T16:00:00	2	Temperatura media	21.6
143282	7	Sololá	713	San Lucas Tolimán	10	San Lucas Tolimán	8	Agosto	2023-08-23T00:00:00	2024-11-08T16:00:00	4	Temperatura máxima	22.9
143283	7	Sololá	713	San Lucas Tolimán	10	San Lucas Tolimán	8	Agosto	2023-08-23T00:00:00	2024-11-08T16:00:00	3	Temperatura mínima	21.3
143284	7	Sololá	713	San Lucas Tolimán	10	San Lucas Tolimán	8	Agosto	2023-08-23T00:00:00	2024-11-08T16:00:00	5	Humedad	61
143285	7	Sololá	713	San Lucas Tolimán	10	San Lucas Tolimán	8	Agosto	2023-08-23T00:00:00	2024-11-08T16:00:00	6	Velocidad del viento	4.8
143286	7	Sololá	713	San Lucas Tolimán	10	San Lucas Tolimán	8	Agosto	2023-08-23T00:00:00	2024-11-08T16:00:00	7	Dirección del viento	4.83
143287	7	Sololá	713	San Lucas Tolimán	10	San Lucas Tolimán	8	Agosto	2023-08-23T00:00:00	2024-11-08T16:00:00	1	Precipitación	0
143288	7	Sololá	713	San Lucas Tolimán	10	San Lucas Tolimán	8	Agosto	2023-08-23T00:00:00	2024-11-08T16:00:00	8	Radiación solar	318
143289	7	Sololá	713	San Lucas Tolimán	10	San Lucas Tolimán	8	Agosto	2023-08-23T00:00:00	2024-11-08T17:00:00	2	Temperatura media	20.5
143290	7	Sololá	713	San Lucas Tolimán	10	San Lucas Tolimán	8	Agosto	2023-08-23T00:00:00	2024-11-08T17:00:00	4	Temperatura máxima	21.6
143291	7	Sololá	713	San Lucas Tolimán	10	San Lucas Tolimán	8	Agosto	2023-08-23T00:00:00	2024-11-08T17:00:00	3	Temperatura mínima	19.7
143292	7	Sololá	713	San Lucas Tolimán	10	San Lucas Tolimán	8	Agosto	2023-08-23T00:00:00	2024-11-08T17:00:00	5	Humedad	57
143293	7	Sololá	713	San Lucas Tolimán	10	San Lucas Tolimán	8	Agosto	2023-08-23T00:00:00	2024-11-08T17:00:00	6	Velocidad del viento	8
143294	7	Sololá	713	San Lucas Tolimán	10	San Lucas Tolimán	8	Agosto	2023-08-23T00:00:00	2024-11-08T17:00:00	7	Dirección del viento	8.05
143295	7	Sololá	713	San Lucas Tolimán	10	San Lucas Tolimán	8	Agosto	2023-08-23T00:00:00	2024-11-08T17:00:00	1	Precipitación	0
143296	7	Sololá	713	San Lucas Tolimán	10	San Lucas Tolimán	8	Agosto	2023-08-23T00:00:00	2024-11-08T17:00:00	8	Radiación solar	170
143297	7	Sololá	713	San Lucas Tolimán	10	San Lucas Tolimán	8	Agosto	2023-08-23T00:00:00	2024-11-08T18:00:00	2	Temperatura media	19.3
143298	7	Sololá	713	San Lucas Tolimán	10	San Lucas Tolimán	8	Agosto	2023-08-23T00:00:00	2024-11-08T18:00:00	4	Temperatura máxima	20.6
143299	7	Sololá	713	San Lucas Tolimán	10	San Lucas Tolimán	8	Agosto	2023-08-23T00:00:00	2024-11-08T18:00:00	3	Temperatura mínima	19.2
143300	7	Sololá	713	San Lucas Tolimán	10	San Lucas Tolimán	8	Agosto	2023-08-23T00:00:00	2024-11-08T18:00:00	5	Humedad	61
143301	7	Sololá	713	San Lucas Tolimán	10	San Lucas Tolimán	8	Agosto	2023-08-23T00:00:00	2024-11-08T18:00:00	6	Velocidad del viento	8
143302	7	Sololá	713	San Lucas Tolimán	10	San Lucas Tolimán	8	Agosto	2023-08-23T00:00:00	2024-11-08T18:00:00	7	Dirección del viento	8.05
143303	7	Sololá	713	San Lucas Tolimán	10	San Lucas Tolimán	8	Agosto	2023-08-23T00:00:00	2024-11-08T18:00:00	1	Precipitación	0
143304	7	Sololá	713	San Lucas Tolimán	10	San Lucas Tolimán	8	Agosto	2023-08-23T00:00:00	2024-11-08T18:00:00	8	Radiación solar	65
143305	7	Sololá	713	San Lucas Tolimán	10	San Lucas Tolimán	8	Agosto	2023-08-23T00:00:00	2024-11-08T19:00:00	2	Temperatura media	18.8
143306	7	Sololá	713	San Lucas Tolimán	10	San Lucas Tolimán	8	Agosto	2023-08-23T00:00:00	2024-11-08T19:00:00	4	Temperatura máxima	19.3
143307	7	Sololá	713	San Lucas Tolimán	10	San Lucas Tolimán	8	Agosto	2023-08-23T00:00:00	2024-11-08T19:00:00	3	Temperatura mínima	18.8
143308	7	Sololá	713	San Lucas Tolimán	10	San Lucas Tolimán	8	Agosto	2023-08-23T00:00:00	2024-11-08T19:00:00	5	Humedad	62
143309	7	Sololá	713	San Lucas Tolimán	10	San Lucas Tolimán	8	Agosto	2023-08-23T00:00:00	2024-11-08T19:00:00	6	Velocidad del viento	4.8
143310	7	Sololá	713	San Lucas Tolimán	10	San Lucas Tolimán	8	Agosto	2023-08-23T00:00:00	2024-11-08T19:00:00	7	Dirección del viento	4.83
143311	7	Sololá	713	San Lucas Tolimán	10	San Lucas Tolimán	8	Agosto	2023-08-23T00:00:00	2024-11-08T19:00:00	1	Precipitación	0
143312	7	Sololá	713	San Lucas Tolimán	10	San Lucas Tolimán	8	Agosto	2023-08-23T00:00:00	2024-11-08T19:00:00	8	Radiación solar	0
143313	7	Sololá	713	San Lucas Tolimán	10	San Lucas Tolimán	8	Agosto	2023-08-23T00:00:00	2024-11-08T20:00:00	2	Temperatura media	18.4
143314	7	Sololá	713	San Lucas Tolimán	10	San Lucas Tolimán	8	Agosto	2023-08-23T00:00:00	2024-11-08T20:00:00	4	Temperatura máxima	18.9
143315	7	Sololá	713	San Lucas Tolimán	10	San Lucas Tolimán	8	Agosto	2023-08-23T00:00:00	2024-11-08T20:00:00	3	Temperatura mínima	18.3
143316	7	Sololá	713	San Lucas Tolimán	10	San Lucas Tolimán	8	Agosto	2023-08-23T00:00:00	2024-11-08T20:00:00	5	Humedad	60
143317	7	Sololá	713	San Lucas Tolimán	10	San Lucas Tolimán	8	Agosto	2023-08-23T00:00:00	2024-11-08T20:00:00	6	Velocidad del viento	3.2
143318	7	Sololá	713	San Lucas Tolimán	10	San Lucas Tolimán	8	Agosto	2023-08-23T00:00:00	2024-11-08T20:00:00	7	Dirección del viento	3.22
143319	7	Sololá	713	San Lucas Tolimán	10	San Lucas Tolimán	8	Agosto	2023-08-23T00:00:00	2024-11-08T20:00:00	1	Precipitación	0
143320	7	Sololá	713	San Lucas Tolimán	10	San Lucas Tolimán	8	Agosto	2023-08-23T00:00:00	2024-11-08T20:00:00	8	Radiación solar	0
143321	7	Sololá	713	San Lucas Tolimán	10	San Lucas Tolimán	8	Agosto	2023-08-23T00:00:00	2024-11-08T21:00:00	2	Temperatura media	18.8
143322	7	Sololá	713	San Lucas Tolimán	10	San Lucas Tolimán	8	Agosto	2023-08-23T00:00:00	2024-11-08T21:00:00	4	Temperatura máxima	18.8
143323	7	Sololá	713	San Lucas Tolimán	10	San Lucas Tolimán	8	Agosto	2023-08-23T00:00:00	2024-11-08T21:00:00	3	Temperatura mínima	18.3
143324	7	Sololá	713	San Lucas Tolimán	10	San Lucas Tolimán	8	Agosto	2023-08-23T00:00:00	2024-11-08T21:00:00	5	Humedad	58
143325	7	Sololá	713	San Lucas Tolimán	10	San Lucas Tolimán	8	Agosto	2023-08-23T00:00:00	2024-11-08T21:00:00	6	Velocidad del viento	1.6
143326	7	Sololá	713	San Lucas Tolimán	10	San Lucas Tolimán	8	Agosto	2023-08-23T00:00:00	2024-11-08T21:00:00	7	Dirección del viento	1.61
143327	7	Sololá	713	San Lucas Tolimán	10	San Lucas Tolimán	8	Agosto	2023-08-23T00:00:00	2024-11-08T21:00:00	1	Precipitación	0
143328	7	Sololá	713	San Lucas Tolimán	10	San Lucas Tolimán	8	Agosto	2023-08-23T00:00:00	2024-11-08T21:00:00	8	Radiación solar	0
143329	7	Sololá	713	San Lucas Tolimán	10	San Lucas Tolimán	8	Agosto	2023-08-23T00:00:00	2024-11-08T22:00:00	2	Temperatura media	18.3
143330	7	Sololá	713	San Lucas Tolimán	10	San Lucas Tolimán	8	Agosto	2023-08-23T00:00:00	2024-11-08T22:00:00	4	Temperatura máxima	18.9
143331	7	Sololá	713	San Lucas Tolimán	10	San Lucas Tolimán	8	Agosto	2023-08-23T00:00:00	2024-11-08T22:00:00	3	Temperatura mínima	18.3
143332	7	Sololá	713	San Lucas Tolimán	10	San Lucas Tolimán	8	Agosto	2023-08-23T00:00:00	2024-11-08T22:00:00	5	Humedad	59
143333	7	Sololá	713	San Lucas Tolimán	10	San Lucas Tolimán	8	Agosto	2023-08-23T00:00:00	2024-11-08T22:00:00	6	Velocidad del viento	1.6
143334	7	Sololá	713	San Lucas Tolimán	10	San Lucas Tolimán	8	Agosto	2023-08-23T00:00:00	2024-11-08T22:00:00	7	Dirección del viento	1.61
143335	7	Sololá	713	San Lucas Tolimán	10	San Lucas Tolimán	8	Agosto	2023-08-23T00:00:00	2024-11-08T22:00:00	1	Precipitación	0
143336	7	Sololá	713	San Lucas Tolimán	10	San Lucas Tolimán	8	Agosto	2023-08-23T00:00:00	2024-11-08T22:00:00	8	Radiación solar	0
143337	7	Sololá	713	San Lucas Tolimán	10	San Lucas Tolimán	8	Agosto	2023-08-23T00:00:00	2024-11-08T23:00:00	2	Temperatura media	17.9
143338	7	Sololá	713	San Lucas Tolimán	10	San Lucas Tolimán	8	Agosto	2023-08-23T00:00:00	2024-11-08T23:00:00	4	Temperatura máxima	18.3
143339	7	Sololá	713	San Lucas Tolimán	10	San Lucas Tolimán	8	Agosto	2023-08-23T00:00:00	2024-11-08T23:00:00	3	Temperatura mínima	17.8
143340	7	Sololá	713	San Lucas Tolimán	10	San Lucas Tolimán	8	Agosto	2023-08-23T00:00:00	2024-11-08T23:00:00	5	Humedad	58
143341	7	Sololá	713	San Lucas Tolimán	10	San Lucas Tolimán	8	Agosto	2023-08-23T00:00:00	2024-11-08T23:00:00	6	Velocidad del viento	1.6
143342	7	Sololá	713	San Lucas Tolimán	10	San Lucas Tolimán	8	Agosto	2023-08-23T00:00:00	2024-11-08T23:00:00	7	Dirección del viento	1.61
143343	7	Sololá	713	San Lucas Tolimán	10	San Lucas Tolimán	8	Agosto	2023-08-23T00:00:00	2024-11-08T23:00:00	1	Precipitación	0
143344	7	Sololá	713	San Lucas Tolimán	10	San Lucas Tolimán	8	Agosto	2023-08-23T00:00:00	2024-11-08T23:00:00	8	Radiación solar	0
143345	7	Sololá	713	San Lucas Tolimán	10	San Lucas Tolimán	8	Agosto	2023-08-24T00:00:00	2024-11-08T00:00:00	2	Temperatura media	17.7
143346	7	Sololá	713	San Lucas Tolimán	10	San Lucas Tolimán	8	Agosto	2023-08-24T00:00:00	2024-11-08T00:00:00	4	Temperatura máxima	18
143347	7	Sololá	713	San Lucas Tolimán	10	San Lucas Tolimán	8	Agosto	2023-08-24T00:00:00	2024-11-08T00:00:00	3	Temperatura mínima	17.3
143348	7	Sololá	713	San Lucas Tolimán	10	San Lucas Tolimán	8	Agosto	2023-08-24T00:00:00	2024-11-08T00:00:00	5	Humedad	61
143349	7	Sololá	713	San Lucas Tolimán	10	San Lucas Tolimán	8	Agosto	2023-08-24T00:00:00	2024-11-08T00:00:00	6	Velocidad del viento	3.2
143350	7	Sololá	713	San Lucas Tolimán	10	San Lucas Tolimán	8	Agosto	2023-08-24T00:00:00	2024-11-08T00:00:00	7	Dirección del viento	3.22
143351	7	Sololá	713	San Lucas Tolimán	10	San Lucas Tolimán	8	Agosto	2023-08-24T00:00:00	2024-11-08T00:00:00	1	Precipitación	0
143352	7	Sololá	713	San Lucas Tolimán	10	San Lucas Tolimán	8	Agosto	2023-08-24T00:00:00	2024-11-08T00:00:00	8	Radiación solar	0
143353	7	Sololá	713	San Lucas Tolimán	10	San Lucas Tolimán	8	Agosto	2023-08-24T00:00:00	2024-11-08T01:00:00	2	Temperatura media	17
143354	7	Sololá	713	San Lucas Tolimán	10	San Lucas Tolimán	8	Agosto	2023-08-24T00:00:00	2024-11-08T01:00:00	4	Temperatura máxima	17.8
143355	7	Sololá	713	San Lucas Tolimán	10	San Lucas Tolimán	8	Agosto	2023-08-24T00:00:00	2024-11-08T01:00:00	3	Temperatura mínima	16.9
143356	7	Sololá	713	San Lucas Tolimán	10	San Lucas Tolimán	8	Agosto	2023-08-24T00:00:00	2024-11-08T01:00:00	5	Humedad	58
143357	7	Sololá	713	San Lucas Tolimán	10	San Lucas Tolimán	8	Agosto	2023-08-24T00:00:00	2024-11-08T01:00:00	6	Velocidad del viento	4.8
143358	7	Sololá	713	San Lucas Tolimán	10	San Lucas Tolimán	8	Agosto	2023-08-24T00:00:00	2024-11-08T01:00:00	7	Dirección del viento	4.83
143359	7	Sololá	713	San Lucas Tolimán	10	San Lucas Tolimán	8	Agosto	2023-08-24T00:00:00	2024-11-08T01:00:00	1	Precipitación	0
143360	7	Sololá	713	San Lucas Tolimán	10	San Lucas Tolimán	8	Agosto	2023-08-24T00:00:00	2024-11-08T01:00:00	8	Radiación solar	0
143361	7	Sololá	713	San Lucas Tolimán	10	San Lucas Tolimán	8	Agosto	2023-08-24T00:00:00	2024-11-08T02:00:00	2	Temperatura media	16.9
143362	7	Sololá	713	San Lucas Tolimán	10	San Lucas Tolimán	8	Agosto	2023-08-24T00:00:00	2024-11-08T02:00:00	4	Temperatura máxima	17.7
143363	7	Sololá	713	San Lucas Tolimán	10	San Lucas Tolimán	8	Agosto	2023-08-24T00:00:00	2024-11-08T02:00:00	3	Temperatura mínima	16.8
143364	7	Sololá	713	San Lucas Tolimán	10	San Lucas Tolimán	8	Agosto	2023-08-24T00:00:00	2024-11-08T02:00:00	5	Humedad	60
143365	7	Sololá	713	San Lucas Tolimán	10	San Lucas Tolimán	8	Agosto	2023-08-24T00:00:00	2024-11-08T02:00:00	6	Velocidad del viento	6.4
143366	7	Sololá	713	San Lucas Tolimán	10	San Lucas Tolimán	8	Agosto	2023-08-24T00:00:00	2024-11-08T02:00:00	7	Dirección del viento	6.44
143367	7	Sololá	713	San Lucas Tolimán	10	San Lucas Tolimán	8	Agosto	2023-08-24T00:00:00	2024-11-08T02:00:00	1	Precipitación	0
143368	7	Sololá	713	San Lucas Tolimán	10	San Lucas Tolimán	8	Agosto	2023-08-24T00:00:00	2024-11-08T02:00:00	8	Radiación solar	0
143369	7	Sololá	713	San Lucas Tolimán	10	San Lucas Tolimán	8	Agosto	2023-08-24T00:00:00	2024-11-08T03:00:00	2	Temperatura media	17.8
143370	7	Sololá	713	San Lucas Tolimán	10	San Lucas Tolimán	8	Agosto	2023-08-24T00:00:00	2024-11-08T03:00:00	4	Temperatura máxima	17.8
143371	7	Sololá	713	San Lucas Tolimán	10	San Lucas Tolimán	8	Agosto	2023-08-24T00:00:00	2024-11-08T03:00:00	3	Temperatura mínima	16.9
143372	7	Sololá	713	San Lucas Tolimán	10	San Lucas Tolimán	8	Agosto	2023-08-24T00:00:00	2024-11-08T03:00:00	5	Humedad	60
143373	7	Sololá	713	San Lucas Tolimán	10	San Lucas Tolimán	8	Agosto	2023-08-24T00:00:00	2024-11-08T03:00:00	6	Velocidad del viento	4.8
143374	7	Sololá	713	San Lucas Tolimán	10	San Lucas Tolimán	8	Agosto	2023-08-24T00:00:00	2024-11-08T03:00:00	7	Dirección del viento	4.83
143375	7	Sololá	713	San Lucas Tolimán	10	San Lucas Tolimán	8	Agosto	2023-08-24T00:00:00	2024-11-08T03:00:00	1	Precipitación	0
143376	7	Sololá	713	San Lucas Tolimán	10	San Lucas Tolimán	8	Agosto	2023-08-24T00:00:00	2024-11-08T03:00:00	8	Radiación solar	0
143377	7	Sololá	713	San Lucas Tolimán	10	San Lucas Tolimán	8	Agosto	2023-08-24T00:00:00	2024-11-08T04:00:00	2	Temperatura media	17.4
143378	7	Sololá	713	San Lucas Tolimán	10	San Lucas Tolimán	8	Agosto	2023-08-24T00:00:00	2024-11-08T04:00:00	4	Temperatura máxima	18
143379	7	Sololá	713	San Lucas Tolimán	10	San Lucas Tolimán	8	Agosto	2023-08-24T00:00:00	2024-11-08T04:00:00	3	Temperatura mínima	17.3
143380	7	Sololá	713	San Lucas Tolimán	10	San Lucas Tolimán	8	Agosto	2023-08-24T00:00:00	2024-11-08T04:00:00	5	Humedad	61
143381	7	Sololá	713	San Lucas Tolimán	10	San Lucas Tolimán	8	Agosto	2023-08-24T00:00:00	2024-11-08T04:00:00	6	Velocidad del viento	4.8
143382	7	Sololá	713	San Lucas Tolimán	10	San Lucas Tolimán	8	Agosto	2023-08-24T00:00:00	2024-11-08T04:00:00	7	Dirección del viento	4.83
143383	7	Sololá	713	San Lucas Tolimán	10	San Lucas Tolimán	8	Agosto	2023-08-24T00:00:00	2024-11-08T04:00:00	1	Precipitación	0
143384	7	Sololá	713	San Lucas Tolimán	10	San Lucas Tolimán	8	Agosto	2023-08-24T00:00:00	2024-11-08T04:00:00	8	Radiación solar	0
143385	7	Sololá	713	San Lucas Tolimán	10	San Lucas Tolimán	8	Agosto	2023-08-24T00:00:00	2024-11-08T05:00:00	2	Temperatura media	17.2
143386	7	Sololá	713	San Lucas Tolimán	10	San Lucas Tolimán	8	Agosto	2023-08-24T00:00:00	2024-11-08T05:00:00	4	Temperatura máxima	17.6
143387	7	Sololá	713	San Lucas Tolimán	10	San Lucas Tolimán	8	Agosto	2023-08-24T00:00:00	2024-11-08T05:00:00	3	Temperatura mínima	17.1
143388	7	Sololá	713	San Lucas Tolimán	10	San Lucas Tolimán	8	Agosto	2023-08-24T00:00:00	2024-11-08T05:00:00	5	Humedad	62
143389	7	Sololá	713	San Lucas Tolimán	10	San Lucas Tolimán	8	Agosto	2023-08-24T00:00:00	2024-11-08T05:00:00	6	Velocidad del viento	3.2
143390	7	Sololá	713	San Lucas Tolimán	10	San Lucas Tolimán	8	Agosto	2023-08-24T00:00:00	2024-11-08T05:00:00	7	Dirección del viento	3.22
143391	7	Sololá	713	San Lucas Tolimán	10	San Lucas Tolimán	8	Agosto	2023-08-24T00:00:00	2024-11-08T05:00:00	1	Precipitación	0
143392	7	Sololá	713	San Lucas Tolimán	10	San Lucas Tolimán	8	Agosto	2023-08-24T00:00:00	2024-11-08T05:00:00	8	Radiación solar	0
143393	7	Sololá	713	San Lucas Tolimán	10	San Lucas Tolimán	8	Agosto	2023-08-24T00:00:00	2024-11-08T06:00:00	2	Temperatura media	17.1
143394	7	Sololá	713	San Lucas Tolimán	10	San Lucas Tolimán	8	Agosto	2023-08-24T00:00:00	2024-11-08T06:00:00	4	Temperatura máxima	17.2
143395	7	Sololá	713	San Lucas Tolimán	10	San Lucas Tolimán	8	Agosto	2023-08-24T00:00:00	2024-11-08T06:00:00	3	Temperatura mínima	16.9
143396	7	Sololá	713	San Lucas Tolimán	10	San Lucas Tolimán	8	Agosto	2023-08-24T00:00:00	2024-11-08T06:00:00	5	Humedad	61
143397	7	Sololá	713	San Lucas Tolimán	10	San Lucas Tolimán	8	Agosto	2023-08-24T00:00:00	2024-11-08T06:00:00	6	Velocidad del viento	0
143398	7	Sololá	713	San Lucas Tolimán	10	San Lucas Tolimán	8	Agosto	2023-08-24T00:00:00	2024-11-08T06:00:00	7	Dirección del viento	0
143399	7	Sololá	713	San Lucas Tolimán	10	San Lucas Tolimán	8	Agosto	2023-08-24T00:00:00	2024-11-08T06:00:00	1	Precipitación	0
143400	7	Sololá	713	San Lucas Tolimán	10	San Lucas Tolimán	8	Agosto	2023-08-24T00:00:00	2024-11-08T06:00:00	8	Radiación solar	0
143401	7	Sololá	713	San Lucas Tolimán	10	San Lucas Tolimán	8	Agosto	2023-08-24T00:00:00	2024-11-08T07:00:00	2	Temperatura media	17.4
143402	7	Sololá	713	San Lucas Tolimán	10	San Lucas Tolimán	8	Agosto	2023-08-24T00:00:00	2024-11-08T07:00:00	4	Temperatura máxima	17.6
143403	7	Sololá	713	San Lucas Tolimán	10	San Lucas Tolimán	8	Agosto	2023-08-24T00:00:00	2024-11-08T07:00:00	3	Temperatura mínima	17.1
143404	7	Sololá	713	San Lucas Tolimán	10	San Lucas Tolimán	8	Agosto	2023-08-24T00:00:00	2024-11-08T07:00:00	5	Humedad	60
143405	7	Sololá	713	San Lucas Tolimán	10	San Lucas Tolimán	8	Agosto	2023-08-24T00:00:00	2024-11-08T07:00:00	6	Velocidad del viento	1.6
143406	7	Sololá	713	San Lucas Tolimán	10	San Lucas Tolimán	8	Agosto	2023-08-24T00:00:00	2024-11-08T07:00:00	7	Dirección del viento	1.61
143407	7	Sololá	713	San Lucas Tolimán	10	San Lucas Tolimán	8	Agosto	2023-08-24T00:00:00	2024-11-08T07:00:00	1	Precipitación	0
143408	7	Sololá	713	San Lucas Tolimán	10	San Lucas Tolimán	8	Agosto	2023-08-24T00:00:00	2024-11-08T07:00:00	8	Radiación solar	32
143409	7	Sololá	713	San Lucas Tolimán	10	San Lucas Tolimán	8	Agosto	2023-08-24T00:00:00	2024-11-08T08:00:00	2	Temperatura media	18.5
143410	7	Sololá	713	San Lucas Tolimán	10	San Lucas Tolimán	8	Agosto	2023-08-24T00:00:00	2024-11-08T08:00:00	4	Temperatura máxima	18.5
143411	7	Sololá	713	San Lucas Tolimán	10	San Lucas Tolimán	8	Agosto	2023-08-24T00:00:00	2024-11-08T08:00:00	3	Temperatura mínima	17.4
143412	7	Sololá	713	San Lucas Tolimán	10	San Lucas Tolimán	8	Agosto	2023-08-24T00:00:00	2024-11-08T08:00:00	5	Humedad	58
143413	7	Sololá	713	San Lucas Tolimán	10	San Lucas Tolimán	8	Agosto	2023-08-24T00:00:00	2024-11-08T08:00:00	6	Velocidad del viento	1.6
143414	7	Sololá	713	San Lucas Tolimán	10	San Lucas Tolimán	8	Agosto	2023-08-24T00:00:00	2024-11-08T08:00:00	7	Dirección del viento	1.61
143415	7	Sololá	713	San Lucas Tolimán	10	San Lucas Tolimán	8	Agosto	2023-08-24T00:00:00	2024-11-08T08:00:00	1	Precipitación	0
143416	7	Sololá	713	San Lucas Tolimán	10	San Lucas Tolimán	8	Agosto	2023-08-24T00:00:00	2024-11-08T08:00:00	8	Radiación solar	113
143417	7	Sololá	713	San Lucas Tolimán	10	San Lucas Tolimán	8	Agosto	2023-08-24T00:00:00	2024-11-08T09:00:00	2	Temperatura media	19.3
143418	7	Sololá	713	San Lucas Tolimán	10	San Lucas Tolimán	8	Agosto	2023-08-24T00:00:00	2024-11-08T09:00:00	4	Temperatura máxima	19.3
143419	7	Sololá	713	San Lucas Tolimán	10	San Lucas Tolimán	8	Agosto	2023-08-24T00:00:00	2024-11-08T09:00:00	3	Temperatura mínima	18.5
143420	7	Sololá	713	San Lucas Tolimán	10	San Lucas Tolimán	8	Agosto	2023-08-24T00:00:00	2024-11-08T09:00:00	5	Humedad	56
143421	7	Sololá	713	San Lucas Tolimán	10	San Lucas Tolimán	8	Agosto	2023-08-24T00:00:00	2024-11-08T09:00:00	6	Velocidad del viento	4.8
143422	7	Sololá	713	San Lucas Tolimán	10	San Lucas Tolimán	8	Agosto	2023-08-24T00:00:00	2024-11-08T09:00:00	7	Dirección del viento	4.83
143423	7	Sololá	713	San Lucas Tolimán	10	San Lucas Tolimán	8	Agosto	2023-08-24T00:00:00	2024-11-08T09:00:00	1	Precipitación	0
143424	7	Sololá	713	San Lucas Tolimán	10	San Lucas Tolimán	8	Agosto	2023-08-24T00:00:00	2024-11-08T09:00:00	8	Radiación solar	195
143425	7	Sololá	713	San Lucas Tolimán	10	San Lucas Tolimán	8	Agosto	2023-08-24T00:00:00	2024-11-08T10:00:00	2	Temperatura media	19.9
143426	7	Sololá	713	San Lucas Tolimán	10	San Lucas Tolimán	8	Agosto	2023-08-24T00:00:00	2024-11-08T10:00:00	4	Temperatura máxima	20.2
143427	7	Sololá	713	San Lucas Tolimán	10	San Lucas Tolimán	8	Agosto	2023-08-24T00:00:00	2024-11-08T10:00:00	3	Temperatura mínima	19.3
143428	7	Sololá	713	San Lucas Tolimán	10	San Lucas Tolimán	8	Agosto	2023-08-24T00:00:00	2024-11-08T10:00:00	5	Humedad	60
143429	7	Sololá	713	San Lucas Tolimán	10	San Lucas Tolimán	8	Agosto	2023-08-24T00:00:00	2024-11-08T10:00:00	6	Velocidad del viento	4.8
143430	7	Sololá	713	San Lucas Tolimán	10	San Lucas Tolimán	8	Agosto	2023-08-24T00:00:00	2024-11-08T10:00:00	7	Dirección del viento	4.83
143431	7	Sololá	713	San Lucas Tolimán	10	San Lucas Tolimán	8	Agosto	2023-08-24T00:00:00	2024-11-08T10:00:00	1	Precipitación	0
143432	7	Sololá	713	San Lucas Tolimán	10	San Lucas Tolimán	8	Agosto	2023-08-24T00:00:00	2024-11-08T10:00:00	8	Radiación solar	330
143433	7	Sololá	713	San Lucas Tolimán	10	San Lucas Tolimán	8	Agosto	2023-08-24T00:00:00	2024-11-08T11:00:00	2	Temperatura media	20.1
143434	7	Sololá	713	San Lucas Tolimán	10	San Lucas Tolimán	8	Agosto	2023-08-24T00:00:00	2024-11-08T11:00:00	4	Temperatura máxima	20.1
143435	7	Sololá	713	San Lucas Tolimán	10	San Lucas Tolimán	8	Agosto	2023-08-24T00:00:00	2024-11-08T11:00:00	3	Temperatura mínima	19.7
143436	7	Sololá	713	San Lucas Tolimán	10	San Lucas Tolimán	8	Agosto	2023-08-24T00:00:00	2024-11-08T11:00:00	5	Humedad	59
143437	7	Sololá	713	San Lucas Tolimán	10	San Lucas Tolimán	8	Agosto	2023-08-24T00:00:00	2024-11-08T11:00:00	6	Velocidad del viento	8
143438	7	Sololá	713	San Lucas Tolimán	10	San Lucas Tolimán	8	Agosto	2023-08-24T00:00:00	2024-11-08T11:00:00	7	Dirección del viento	8.05
143439	7	Sololá	713	San Lucas Tolimán	10	San Lucas Tolimán	8	Agosto	2023-08-24T00:00:00	2024-11-08T11:00:00	1	Precipitación	0
143440	7	Sololá	713	San Lucas Tolimán	10	San Lucas Tolimán	8	Agosto	2023-08-24T00:00:00	2024-11-08T11:00:00	8	Radiación solar	436
143441	7	Sololá	713	San Lucas Tolimán	10	San Lucas Tolimán	8	Agosto	2023-08-24T00:00:00	2024-11-08T12:00:00	2	Temperatura media	20.4
143442	7	Sololá	713	San Lucas Tolimán	10	San Lucas Tolimán	8	Agosto	2023-08-24T00:00:00	2024-11-08T12:00:00	4	Temperatura máxima	20.4
143443	7	Sololá	713	San Lucas Tolimán	10	San Lucas Tolimán	8	Agosto	2023-08-24T00:00:00	2024-11-08T12:00:00	3	Temperatura mínima	19.9
143444	7	Sololá	713	San Lucas Tolimán	10	San Lucas Tolimán	8	Agosto	2023-08-24T00:00:00	2024-11-08T12:00:00	5	Humedad	58
143445	7	Sololá	713	San Lucas Tolimán	10	San Lucas Tolimán	8	Agosto	2023-08-24T00:00:00	2024-11-08T12:00:00	6	Velocidad del viento	8
143446	7	Sololá	713	San Lucas Tolimán	10	San Lucas Tolimán	8	Agosto	2023-08-24T00:00:00	2024-11-08T12:00:00	7	Dirección del viento	8.05
143447	7	Sololá	713	San Lucas Tolimán	10	San Lucas Tolimán	8	Agosto	2023-08-24T00:00:00	2024-11-08T12:00:00	1	Precipitación	0
143448	7	Sololá	713	San Lucas Tolimán	10	San Lucas Tolimán	8	Agosto	2023-08-24T00:00:00	2024-11-08T12:00:00	8	Radiación solar	438
143449	7	Sololá	713	San Lucas Tolimán	10	San Lucas Tolimán	8	Agosto	2023-08-24T00:00:00	2024-11-08T13:00:00	2	Temperatura media	21
143450	7	Sololá	713	San Lucas Tolimán	10	San Lucas Tolimán	8	Agosto	2023-08-24T00:00:00	2024-11-08T13:00:00	4	Temperatura máxima	21.1
143451	7	Sololá	713	San Lucas Tolimán	10	San Lucas Tolimán	8	Agosto	2023-08-24T00:00:00	2024-11-08T13:00:00	3	Temperatura mínima	20.4
143452	7	Sololá	713	San Lucas Tolimán	10	San Lucas Tolimán	8	Agosto	2023-08-24T00:00:00	2024-11-08T13:00:00	5	Humedad	57
143453	7	Sololá	713	San Lucas Tolimán	10	San Lucas Tolimán	8	Agosto	2023-08-24T00:00:00	2024-11-08T13:00:00	6	Velocidad del viento	8
143454	7	Sololá	713	San Lucas Tolimán	10	San Lucas Tolimán	8	Agosto	2023-08-24T00:00:00	2024-11-08T13:00:00	7	Dirección del viento	8.05
143455	7	Sololá	713	San Lucas Tolimán	10	San Lucas Tolimán	8	Agosto	2023-08-24T00:00:00	2024-11-08T13:00:00	1	Precipitación	0
143456	7	Sololá	713	San Lucas Tolimán	10	San Lucas Tolimán	8	Agosto	2023-08-24T00:00:00	2024-11-08T13:00:00	8	Radiación solar	463
143457	7	Sololá	713	San Lucas Tolimán	10	San Lucas Tolimán	8	Agosto	2023-08-24T00:00:00	2024-11-08T14:00:00	2	Temperatura media	20.3
143458	7	Sololá	713	San Lucas Tolimán	10	San Lucas Tolimán	8	Agosto	2023-08-24T00:00:00	2024-11-08T14:00:00	4	Temperatura máxima	21.1
143459	7	Sololá	713	San Lucas Tolimán	10	San Lucas Tolimán	8	Agosto	2023-08-24T00:00:00	2024-11-08T14:00:00	3	Temperatura mínima	20
143460	7	Sololá	713	San Lucas Tolimán	10	San Lucas Tolimán	8	Agosto	2023-08-24T00:00:00	2024-11-08T14:00:00	5	Humedad	58
143461	7	Sololá	713	San Lucas Tolimán	10	San Lucas Tolimán	8	Agosto	2023-08-24T00:00:00	2024-11-08T14:00:00	6	Velocidad del viento	8
143462	7	Sololá	713	San Lucas Tolimán	10	San Lucas Tolimán	8	Agosto	2023-08-24T00:00:00	2024-11-08T14:00:00	7	Dirección del viento	8.05
143463	7	Sololá	713	San Lucas Tolimán	10	San Lucas Tolimán	8	Agosto	2023-08-24T00:00:00	2024-11-08T14:00:00	1	Precipitación	0
143464	7	Sololá	713	San Lucas Tolimán	10	San Lucas Tolimán	8	Agosto	2023-08-24T00:00:00	2024-11-08T14:00:00	8	Radiación solar	343
143465	7	Sololá	713	San Lucas Tolimán	10	San Lucas Tolimán	8	Agosto	2023-08-24T00:00:00	2024-11-08T15:00:00	2	Temperatura media	20.8
143466	7	Sololá	713	San Lucas Tolimán	10	San Lucas Tolimán	8	Agosto	2023-08-24T00:00:00	2024-11-08T15:00:00	4	Temperatura máxima	20.8
143467	7	Sololá	713	San Lucas Tolimán	10	San Lucas Tolimán	8	Agosto	2023-08-24T00:00:00	2024-11-08T15:00:00	3	Temperatura mínima	20.3
143468	7	Sololá	713	San Lucas Tolimán	10	San Lucas Tolimán	8	Agosto	2023-08-24T00:00:00	2024-11-08T15:00:00	5	Humedad	58
143469	7	Sololá	713	San Lucas Tolimán	10	San Lucas Tolimán	8	Agosto	2023-08-24T00:00:00	2024-11-08T15:00:00	6	Velocidad del viento	6.4
143470	7	Sololá	713	San Lucas Tolimán	10	San Lucas Tolimán	8	Agosto	2023-08-24T00:00:00	2024-11-08T15:00:00	7	Dirección del viento	6.44
143471	7	Sololá	713	San Lucas Tolimán	10	San Lucas Tolimán	8	Agosto	2023-08-24T00:00:00	2024-11-08T15:00:00	1	Precipitación	0
143472	7	Sololá	713	San Lucas Tolimán	10	San Lucas Tolimán	8	Agosto	2023-08-24T00:00:00	2024-11-08T15:00:00	8	Radiación solar	432
143473	7	Sololá	713	San Lucas Tolimán	10	San Lucas Tolimán	8	Agosto	2023-08-24T00:00:00	2024-11-08T16:00:00	2	Temperatura media	21.4
143474	7	Sololá	713	San Lucas Tolimán	10	San Lucas Tolimán	8	Agosto	2023-08-24T00:00:00	2024-11-08T16:00:00	4	Temperatura máxima	22.1
143475	7	Sololá	713	San Lucas Tolimán	10	San Lucas Tolimán	8	Agosto	2023-08-24T00:00:00	2024-11-08T16:00:00	3	Temperatura mínima	20.8
143476	7	Sololá	713	San Lucas Tolimán	10	San Lucas Tolimán	8	Agosto	2023-08-24T00:00:00	2024-11-08T16:00:00	5	Humedad	56
143477	7	Sololá	713	San Lucas Tolimán	10	San Lucas Tolimán	8	Agosto	2023-08-24T00:00:00	2024-11-08T16:00:00	6	Velocidad del viento	6.4
143478	7	Sololá	713	San Lucas Tolimán	10	San Lucas Tolimán	8	Agosto	2023-08-24T00:00:00	2024-11-08T16:00:00	7	Dirección del viento	6.44
143479	7	Sololá	713	San Lucas Tolimán	10	San Lucas Tolimán	8	Agosto	2023-08-24T00:00:00	2024-11-08T16:00:00	1	Precipitación	0
143480	7	Sololá	713	San Lucas Tolimán	10	San Lucas Tolimán	8	Agosto	2023-08-24T00:00:00	2024-11-08T16:00:00	8	Radiación solar	433
143481	7	Sololá	713	San Lucas Tolimán	10	San Lucas Tolimán	8	Agosto	2023-08-24T00:00:00	2024-11-08T17:00:00	2	Temperatura media	20.6
143482	7	Sololá	713	San Lucas Tolimán	10	San Lucas Tolimán	8	Agosto	2023-08-24T00:00:00	2024-11-08T17:00:00	4	Temperatura máxima	21.4
143483	7	Sololá	713	San Lucas Tolimán	10	San Lucas Tolimán	8	Agosto	2023-08-24T00:00:00	2024-11-08T17:00:00	3	Temperatura mínima	20.5
143484	7	Sololá	713	San Lucas Tolimán	10	San Lucas Tolimán	8	Agosto	2023-08-24T00:00:00	2024-11-08T17:00:00	5	Humedad	58
143485	7	Sololá	713	San Lucas Tolimán	10	San Lucas Tolimán	8	Agosto	2023-08-24T00:00:00	2024-11-08T17:00:00	6	Velocidad del viento	4.8
143486	7	Sololá	713	San Lucas Tolimán	10	San Lucas Tolimán	8	Agosto	2023-08-24T00:00:00	2024-11-08T17:00:00	7	Dirección del viento	4.83
143487	7	Sololá	713	San Lucas Tolimán	10	San Lucas Tolimán	8	Agosto	2023-08-24T00:00:00	2024-11-08T17:00:00	1	Precipitación	0
143488	7	Sololá	713	San Lucas Tolimán	10	San Lucas Tolimán	8	Agosto	2023-08-24T00:00:00	2024-11-08T17:00:00	8	Radiación solar	132
143489	7	Sololá	713	San Lucas Tolimán	10	San Lucas Tolimán	8	Agosto	2023-08-24T00:00:00	2024-11-08T18:00:00	2	Temperatura media	20.6
143490	7	Sololá	713	San Lucas Tolimán	10	San Lucas Tolimán	8	Agosto	2023-08-24T00:00:00	2024-11-08T18:00:00	4	Temperatura máxima	20.7
143491	7	Sololá	713	San Lucas Tolimán	10	San Lucas Tolimán	8	Agosto	2023-08-24T00:00:00	2024-11-08T18:00:00	3	Temperatura mínima	20.5
143492	7	Sololá	713	San Lucas Tolimán	10	San Lucas Tolimán	8	Agosto	2023-08-24T00:00:00	2024-11-08T18:00:00	5	Humedad	58
143493	7	Sololá	713	San Lucas Tolimán	10	San Lucas Tolimán	8	Agosto	2023-08-24T00:00:00	2024-11-08T18:00:00	6	Velocidad del viento	4.8
143494	7	Sololá	713	San Lucas Tolimán	10	San Lucas Tolimán	8	Agosto	2023-08-24T00:00:00	2024-11-08T18:00:00	7	Dirección del viento	4.83
143495	7	Sololá	713	San Lucas Tolimán	10	San Lucas Tolimán	8	Agosto	2023-08-24T00:00:00	2024-11-08T18:00:00	1	Precipitación	0
143496	7	Sololá	713	San Lucas Tolimán	10	San Lucas Tolimán	8	Agosto	2023-08-24T00:00:00	2024-11-08T18:00:00	8	Radiación solar	67
143497	7	Sololá	713	San Lucas Tolimán	10	San Lucas Tolimán	8	Agosto	2023-08-24T00:00:00	2024-11-08T19:00:00	2	Temperatura media	19.9
143498	7	Sololá	713	San Lucas Tolimán	10	San Lucas Tolimán	8	Agosto	2023-08-24T00:00:00	2024-11-08T19:00:00	4	Temperatura máxima	20.6
143499	7	Sololá	713	San Lucas Tolimán	10	San Lucas Tolimán	8	Agosto	2023-08-24T00:00:00	2024-11-08T19:00:00	3	Temperatura mínima	19.9
143500	7	Sololá	713	San Lucas Tolimán	10	San Lucas Tolimán	8	Agosto	2023-08-24T00:00:00	2024-11-08T19:00:00	5	Humedad	60
143501	7	Sololá	713	San Lucas Tolimán	10	San Lucas Tolimán	8	Agosto	2023-08-24T00:00:00	2024-11-08T19:00:00	6	Velocidad del viento	0
143502	7	Sololá	713	San Lucas Tolimán	10	San Lucas Tolimán	8	Agosto	2023-08-24T00:00:00	2024-11-08T19:00:00	7	Dirección del viento	0
143503	7	Sololá	713	San Lucas Tolimán	10	San Lucas Tolimán	8	Agosto	2023-08-24T00:00:00	2024-11-08T19:00:00	1	Precipitación	0
143504	7	Sololá	713	San Lucas Tolimán	10	San Lucas Tolimán	8	Agosto	2023-08-24T00:00:00	2024-11-08T19:00:00	8	Radiación solar	0
143505	7	Sololá	713	San Lucas Tolimán	10	San Lucas Tolimán	8	Agosto	2023-08-24T00:00:00	2024-11-08T20:00:00	2	Temperatura media	19.7
143506	7	Sololá	713	San Lucas Tolimán	10	San Lucas Tolimán	8	Agosto	2023-08-24T00:00:00	2024-11-08T20:00:00	4	Temperatura máxima	20
143507	7	Sololá	713	San Lucas Tolimán	10	San Lucas Tolimán	8	Agosto	2023-08-24T00:00:00	2024-11-08T20:00:00	3	Temperatura mínima	19.7
143508	7	Sololá	713	San Lucas Tolimán	10	San Lucas Tolimán	8	Agosto	2023-08-24T00:00:00	2024-11-08T20:00:00	5	Humedad	60
143509	7	Sololá	713	San Lucas Tolimán	10	San Lucas Tolimán	8	Agosto	2023-08-24T00:00:00	2024-11-08T20:00:00	6	Velocidad del viento	1.6
143510	7	Sololá	713	San Lucas Tolimán	10	San Lucas Tolimán	8	Agosto	2023-08-24T00:00:00	2024-11-08T20:00:00	7	Dirección del viento	1.61
143511	7	Sololá	713	San Lucas Tolimán	10	San Lucas Tolimán	8	Agosto	2023-08-24T00:00:00	2024-11-08T20:00:00	1	Precipitación	0
143512	7	Sololá	713	San Lucas Tolimán	10	San Lucas Tolimán	8	Agosto	2023-08-24T00:00:00	2024-11-08T20:00:00	8	Radiación solar	0
143513	7	Sololá	713	San Lucas Tolimán	10	San Lucas Tolimán	8	Agosto	2023-08-24T00:00:00	2024-11-08T21:00:00	2	Temperatura media	18.9
143514	7	Sololá	713	San Lucas Tolimán	10	San Lucas Tolimán	8	Agosto	2023-08-24T00:00:00	2024-11-08T21:00:00	4	Temperatura máxima	19.7
143515	7	Sololá	713	San Lucas Tolimán	10	San Lucas Tolimán	8	Agosto	2023-08-24T00:00:00	2024-11-08T21:00:00	3	Temperatura mínima	18.8
143516	7	Sololá	713	San Lucas Tolimán	10	San Lucas Tolimán	8	Agosto	2023-08-24T00:00:00	2024-11-08T21:00:00	5	Humedad	61
143517	7	Sololá	713	San Lucas Tolimán	10	San Lucas Tolimán	8	Agosto	2023-08-24T00:00:00	2024-11-08T21:00:00	6	Velocidad del viento	1.6
143518	7	Sololá	713	San Lucas Tolimán	10	San Lucas Tolimán	8	Agosto	2023-08-24T00:00:00	2024-11-08T21:00:00	7	Dirección del viento	1.61
143519	7	Sololá	713	San Lucas Tolimán	10	San Lucas Tolimán	8	Agosto	2023-08-24T00:00:00	2024-11-08T21:00:00	1	Precipitación	0
143520	7	Sololá	713	San Lucas Tolimán	10	San Lucas Tolimán	8	Agosto	2023-08-24T00:00:00	2024-11-08T21:00:00	8	Radiación solar	0
143521	7	Sololá	713	San Lucas Tolimán	10	San Lucas Tolimán	8	Agosto	2023-08-24T00:00:00	2024-11-08T22:00:00	2	Temperatura media	18.4
143522	7	Sololá	713	San Lucas Tolimán	10	San Lucas Tolimán	8	Agosto	2023-08-24T00:00:00	2024-11-08T22:00:00	4	Temperatura máxima	18.9
143523	7	Sololá	713	San Lucas Tolimán	10	San Lucas Tolimán	8	Agosto	2023-08-24T00:00:00	2024-11-08T22:00:00	3	Temperatura mínima	18.3
143524	7	Sololá	713	San Lucas Tolimán	10	San Lucas Tolimán	8	Agosto	2023-08-24T00:00:00	2024-11-08T22:00:00	5	Humedad	63
143525	7	Sololá	713	San Lucas Tolimán	10	San Lucas Tolimán	8	Agosto	2023-08-24T00:00:00	2024-11-08T22:00:00	6	Velocidad del viento	6.4
143526	7	Sololá	713	San Lucas Tolimán	10	San Lucas Tolimán	8	Agosto	2023-08-24T00:00:00	2024-11-08T22:00:00	7	Dirección del viento	6.44
143527	7	Sololá	713	San Lucas Tolimán	10	San Lucas Tolimán	8	Agosto	2023-08-24T00:00:00	2024-11-08T22:00:00	1	Precipitación	0
143528	7	Sololá	713	San Lucas Tolimán	10	San Lucas Tolimán	8	Agosto	2023-08-24T00:00:00	2024-11-08T22:00:00	8	Radiación solar	0
143529	7	Sololá	713	San Lucas Tolimán	10	San Lucas Tolimán	8	Agosto	2023-08-24T00:00:00	2024-11-08T23:00:00	2	Temperatura media	18.3
143530	7	Sololá	713	San Lucas Tolimán	10	San Lucas Tolimán	8	Agosto	2023-08-24T00:00:00	2024-11-08T23:00:00	4	Temperatura máxima	18.4
143531	7	Sololá	713	San Lucas Tolimán	10	San Lucas Tolimán	8	Agosto	2023-08-24T00:00:00	2024-11-08T23:00:00	3	Temperatura mínima	18.1
143532	7	Sololá	713	San Lucas Tolimán	10	San Lucas Tolimán	8	Agosto	2023-08-24T00:00:00	2024-11-08T23:00:00	5	Humedad	64
143533	7	Sololá	713	San Lucas Tolimán	10	San Lucas Tolimán	8	Agosto	2023-08-24T00:00:00	2024-11-08T23:00:00	6	Velocidad del viento	4.8
143534	7	Sololá	713	San Lucas Tolimán	10	San Lucas Tolimán	8	Agosto	2023-08-24T00:00:00	2024-11-08T23:00:00	7	Dirección del viento	4.83
143535	7	Sololá	713	San Lucas Tolimán	10	San Lucas Tolimán	8	Agosto	2023-08-24T00:00:00	2024-11-08T23:00:00	1	Precipitación	0
143536	7	Sololá	713	San Lucas Tolimán	10	San Lucas Tolimán	8	Agosto	2023-08-24T00:00:00	2024-11-08T23:00:00	8	Radiación solar	0
143537	7	Sololá	713	San Lucas Tolimán	10	San Lucas Tolimán	8	Agosto	2023-08-25T00:00:00	2024-11-08T00:00:00	2	Temperatura media	18.2
143538	7	Sololá	713	San Lucas Tolimán	10	San Lucas Tolimán	8	Agosto	2023-08-25T00:00:00	2024-11-08T00:00:00	4	Temperatura máxima	18.3
143539	7	Sololá	713	San Lucas Tolimán	10	San Lucas Tolimán	8	Agosto	2023-08-25T00:00:00	2024-11-08T00:00:00	3	Temperatura mínima	18.1
143540	7	Sololá	713	San Lucas Tolimán	10	San Lucas Tolimán	8	Agosto	2023-08-25T00:00:00	2024-11-08T00:00:00	5	Humedad	64
143541	7	Sololá	713	San Lucas Tolimán	10	San Lucas Tolimán	8	Agosto	2023-08-25T00:00:00	2024-11-08T00:00:00	6	Velocidad del viento	4.8
143542	7	Sololá	713	San Lucas Tolimán	10	San Lucas Tolimán	8	Agosto	2023-08-25T00:00:00	2024-11-08T00:00:00	7	Dirección del viento	4.83
143543	7	Sololá	713	San Lucas Tolimán	10	San Lucas Tolimán	8	Agosto	2023-08-25T00:00:00	2024-11-08T00:00:00	1	Precipitación	0
143544	7	Sololá	713	San Lucas Tolimán	10	San Lucas Tolimán	8	Agosto	2023-08-25T00:00:00	2024-11-08T00:00:00	8	Radiación solar	0
143545	7	Sololá	713	San Lucas Tolimán	10	San Lucas Tolimán	8	Agosto	2023-08-25T00:00:00	2024-11-08T01:00:00	2	Temperatura media	17.7
143546	7	Sololá	713	San Lucas Tolimán	10	San Lucas Tolimán	8	Agosto	2023-08-25T00:00:00	2024-11-08T01:00:00	4	Temperatura máxima	18.2
143547	7	Sololá	713	San Lucas Tolimán	10	San Lucas Tolimán	8	Agosto	2023-08-25T00:00:00	2024-11-08T01:00:00	3	Temperatura mínima	17.7
143548	7	Sololá	713	San Lucas Tolimán	10	San Lucas Tolimán	8	Agosto	2023-08-25T00:00:00	2024-11-08T01:00:00	5	Humedad	68
143549	7	Sololá	713	San Lucas Tolimán	10	San Lucas Tolimán	8	Agosto	2023-08-25T00:00:00	2024-11-08T01:00:00	6	Velocidad del viento	4.8
143550	7	Sololá	713	San Lucas Tolimán	10	San Lucas Tolimán	8	Agosto	2023-08-25T00:00:00	2024-11-08T01:00:00	7	Dirección del viento	4.83
143551	7	Sololá	713	San Lucas Tolimán	10	San Lucas Tolimán	8	Agosto	2023-08-25T00:00:00	2024-11-08T01:00:00	1	Precipitación	0
143552	7	Sololá	713	San Lucas Tolimán	10	San Lucas Tolimán	8	Agosto	2023-08-25T00:00:00	2024-11-08T01:00:00	8	Radiación solar	0
143553	7	Sololá	713	San Lucas Tolimán	10	San Lucas Tolimán	8	Agosto	2023-08-25T00:00:00	2024-11-08T02:00:00	2	Temperatura media	17.2
143554	7	Sololá	713	San Lucas Tolimán	10	San Lucas Tolimán	8	Agosto	2023-08-25T00:00:00	2024-11-08T02:00:00	4	Temperatura máxima	17.7
143555	7	Sololá	713	San Lucas Tolimán	10	San Lucas Tolimán	8	Agosto	2023-08-25T00:00:00	2024-11-08T02:00:00	3	Temperatura mínima	17.2
143556	7	Sololá	713	San Lucas Tolimán	10	San Lucas Tolimán	8	Agosto	2023-08-25T00:00:00	2024-11-08T02:00:00	5	Humedad	69
143557	7	Sololá	713	San Lucas Tolimán	10	San Lucas Tolimán	8	Agosto	2023-08-25T00:00:00	2024-11-08T02:00:00	6	Velocidad del viento	1.6
143558	7	Sololá	713	San Lucas Tolimán	10	San Lucas Tolimán	8	Agosto	2023-08-25T00:00:00	2024-11-08T02:00:00	7	Dirección del viento	1.61
143559	7	Sololá	713	San Lucas Tolimán	10	San Lucas Tolimán	8	Agosto	2023-08-25T00:00:00	2024-11-08T02:00:00	1	Precipitación	0
143560	7	Sololá	713	San Lucas Tolimán	10	San Lucas Tolimán	8	Agosto	2023-08-25T00:00:00	2024-11-08T02:00:00	8	Radiación solar	0
143561	7	Sololá	713	San Lucas Tolimán	10	San Lucas Tolimán	8	Agosto	2023-08-25T00:00:00	2024-11-08T03:00:00	2	Temperatura media	16.7
143562	7	Sololá	713	San Lucas Tolimán	10	San Lucas Tolimán	8	Agosto	2023-08-25T00:00:00	2024-11-08T03:00:00	4	Temperatura máxima	17.3
143563	7	Sololá	713	San Lucas Tolimán	10	San Lucas Tolimán	8	Agosto	2023-08-25T00:00:00	2024-11-08T03:00:00	3	Temperatura mínima	16.6
143564	7	Sololá	713	San Lucas Tolimán	10	San Lucas Tolimán	8	Agosto	2023-08-25T00:00:00	2024-11-08T03:00:00	5	Humedad	69
143565	7	Sololá	713	San Lucas Tolimán	10	San Lucas Tolimán	8	Agosto	2023-08-25T00:00:00	2024-11-08T03:00:00	6	Velocidad del viento	1.6
143566	7	Sololá	713	San Lucas Tolimán	10	San Lucas Tolimán	8	Agosto	2023-08-25T00:00:00	2024-11-08T03:00:00	7	Dirección del viento	1.61
143567	7	Sololá	713	San Lucas Tolimán	10	San Lucas Tolimán	8	Agosto	2023-08-25T00:00:00	2024-11-08T03:00:00	1	Precipitación	0
143568	7	Sololá	713	San Lucas Tolimán	10	San Lucas Tolimán	8	Agosto	2023-08-25T00:00:00	2024-11-08T03:00:00	8	Radiación solar	0
143569	7	Sololá	713	San Lucas Tolimán	10	San Lucas Tolimán	8	Agosto	2023-08-25T00:00:00	2024-11-08T04:00:00	2	Temperatura media	16.6
143570	7	Sololá	713	San Lucas Tolimán	10	San Lucas Tolimán	8	Agosto	2023-08-25T00:00:00	2024-11-08T04:00:00	4	Temperatura máxima	16.7
143571	7	Sololá	713	San Lucas Tolimán	10	San Lucas Tolimán	8	Agosto	2023-08-25T00:00:00	2024-11-08T04:00:00	3	Temperatura mínima	16.6
143572	7	Sololá	713	San Lucas Tolimán	10	San Lucas Tolimán	8	Agosto	2023-08-25T00:00:00	2024-11-08T04:00:00	5	Humedad	69
143573	7	Sololá	713	San Lucas Tolimán	10	San Lucas Tolimán	8	Agosto	2023-08-25T00:00:00	2024-11-08T04:00:00	6	Velocidad del viento	0
143574	7	Sololá	713	San Lucas Tolimán	10	San Lucas Tolimán	8	Agosto	2023-08-25T00:00:00	2024-11-08T04:00:00	7	Dirección del viento	0
143575	7	Sololá	713	San Lucas Tolimán	10	San Lucas Tolimán	8	Agosto	2023-08-25T00:00:00	2024-11-08T04:00:00	1	Precipitación	0
143576	7	Sololá	713	San Lucas Tolimán	10	San Lucas Tolimán	8	Agosto	2023-08-25T00:00:00	2024-11-08T04:00:00	8	Radiación solar	0
143577	7	Sololá	713	San Lucas Tolimán	10	San Lucas Tolimán	8	Agosto	2023-08-25T00:00:00	2024-11-08T05:00:00	2	Temperatura media	16.7
143578	7	Sololá	713	San Lucas Tolimán	10	San Lucas Tolimán	8	Agosto	2023-08-25T00:00:00	2024-11-08T05:00:00	4	Temperatura máxima	16.9
143579	7	Sololá	713	San Lucas Tolimán	10	San Lucas Tolimán	8	Agosto	2023-08-25T00:00:00	2024-11-08T05:00:00	3	Temperatura mínima	16.3
143580	7	Sololá	713	San Lucas Tolimán	10	San Lucas Tolimán	8	Agosto	2023-08-25T00:00:00	2024-11-08T05:00:00	5	Humedad	68
143581	7	Sololá	713	San Lucas Tolimán	10	San Lucas Tolimán	8	Agosto	2023-08-25T00:00:00	2024-11-08T05:00:00	6	Velocidad del viento	4.8
143582	7	Sololá	713	San Lucas Tolimán	10	San Lucas Tolimán	8	Agosto	2023-08-25T00:00:00	2024-11-08T05:00:00	7	Dirección del viento	4.83
143583	7	Sololá	713	San Lucas Tolimán	10	San Lucas Tolimán	8	Agosto	2023-08-25T00:00:00	2024-11-08T05:00:00	1	Precipitación	0
143584	7	Sololá	713	San Lucas Tolimán	10	San Lucas Tolimán	8	Agosto	2023-08-25T00:00:00	2024-11-08T05:00:00	8	Radiación solar	0
143585	7	Sololá	713	San Lucas Tolimán	10	San Lucas Tolimán	8	Agosto	2023-08-25T00:00:00	2024-11-08T06:00:00	2	Temperatura media	16.2
143586	7	Sololá	713	San Lucas Tolimán	10	San Lucas Tolimán	8	Agosto	2023-08-25T00:00:00	2024-11-08T06:00:00	4	Temperatura máxima	16.7
143587	7	Sololá	713	San Lucas Tolimán	10	San Lucas Tolimán	8	Agosto	2023-08-25T00:00:00	2024-11-08T06:00:00	3	Temperatura mínima	16.1
143588	7	Sololá	713	San Lucas Tolimán	10	San Lucas Tolimán	8	Agosto	2023-08-25T00:00:00	2024-11-08T06:00:00	5	Humedad	68
143589	7	Sololá	713	San Lucas Tolimán	10	San Lucas Tolimán	8	Agosto	2023-08-25T00:00:00	2024-11-08T06:00:00	6	Velocidad del viento	1.6
143590	7	Sololá	713	San Lucas Tolimán	10	San Lucas Tolimán	8	Agosto	2023-08-25T00:00:00	2024-11-08T06:00:00	7	Dirección del viento	1.61
143591	7	Sololá	713	San Lucas Tolimán	10	San Lucas Tolimán	8	Agosto	2023-08-25T00:00:00	2024-11-08T06:00:00	1	Precipitación	0
143592	7	Sololá	713	San Lucas Tolimán	10	San Lucas Tolimán	8	Agosto	2023-08-25T00:00:00	2024-11-08T06:00:00	8	Radiación solar	0
143593	7	Sololá	713	San Lucas Tolimán	10	San Lucas Tolimán	8	Agosto	2023-08-25T00:00:00	2024-11-08T07:00:00	2	Temperatura media	16.5
143594	7	Sololá	713	San Lucas Tolimán	10	San Lucas Tolimán	8	Agosto	2023-08-25T00:00:00	2024-11-08T07:00:00	4	Temperatura máxima	16.5
143595	7	Sololá	713	San Lucas Tolimán	10	San Lucas Tolimán	8	Agosto	2023-08-25T00:00:00	2024-11-08T07:00:00	3	Temperatura mínima	15.9
143596	7	Sololá	713	San Lucas Tolimán	10	San Lucas Tolimán	8	Agosto	2023-08-25T00:00:00	2024-11-08T07:00:00	5	Humedad	67
143597	7	Sololá	713	San Lucas Tolimán	10	San Lucas Tolimán	8	Agosto	2023-08-25T00:00:00	2024-11-08T07:00:00	6	Velocidad del viento	3.2
143598	7	Sololá	713	San Lucas Tolimán	10	San Lucas Tolimán	8	Agosto	2023-08-25T00:00:00	2024-11-08T07:00:00	7	Dirección del viento	3.22
143599	7	Sololá	713	San Lucas Tolimán	10	San Lucas Tolimán	8	Agosto	2023-08-25T00:00:00	2024-11-08T07:00:00	1	Precipitación	0
143600	7	Sololá	713	San Lucas Tolimán	10	San Lucas Tolimán	8	Agosto	2023-08-25T00:00:00	2024-11-08T07:00:00	8	Radiación solar	33
143601	7	Sololá	713	San Lucas Tolimán	10	San Lucas Tolimán	8	Agosto	2023-08-25T00:00:00	2024-11-08T08:00:00	2	Temperatura media	21.1
143602	7	Sololá	713	San Lucas Tolimán	10	San Lucas Tolimán	8	Agosto	2023-08-25T00:00:00	2024-11-08T08:00:00	4	Temperatura máxima	21.1
143603	7	Sololá	713	San Lucas Tolimán	10	San Lucas Tolimán	8	Agosto	2023-08-25T00:00:00	2024-11-08T08:00:00	3	Temperatura mínima	16.5
143604	7	Sololá	713	San Lucas Tolimán	10	San Lucas Tolimán	8	Agosto	2023-08-25T00:00:00	2024-11-08T08:00:00	5	Humedad	59
143605	7	Sololá	713	San Lucas Tolimán	10	San Lucas Tolimán	8	Agosto	2023-08-25T00:00:00	2024-11-08T08:00:00	6	Velocidad del viento	3.2
143606	7	Sololá	713	San Lucas Tolimán	10	San Lucas Tolimán	8	Agosto	2023-08-25T00:00:00	2024-11-08T08:00:00	7	Dirección del viento	3.22
143607	7	Sololá	713	San Lucas Tolimán	10	San Lucas Tolimán	8	Agosto	2023-08-25T00:00:00	2024-11-08T08:00:00	1	Precipitación	0
143608	7	Sololá	713	San Lucas Tolimán	10	San Lucas Tolimán	8	Agosto	2023-08-25T00:00:00	2024-11-08T08:00:00	8	Radiación solar	332
143609	7	Sololá	713	San Lucas Tolimán	10	San Lucas Tolimán	8	Agosto	2023-08-25T00:00:00	2024-11-08T09:00:00	2	Temperatura media	20.7
143610	7	Sololá	713	San Lucas Tolimán	10	San Lucas Tolimán	8	Agosto	2023-08-25T00:00:00	2024-11-08T09:00:00	4	Temperatura máxima	21.9
143611	7	Sololá	713	San Lucas Tolimán	10	San Lucas Tolimán	8	Agosto	2023-08-25T00:00:00	2024-11-08T09:00:00	3	Temperatura mínima	20.7
143612	7	Sololá	713	San Lucas Tolimán	10	San Lucas Tolimán	8	Agosto	2023-08-25T00:00:00	2024-11-08T09:00:00	5	Humedad	59
143613	7	Sololá	713	San Lucas Tolimán	10	San Lucas Tolimán	8	Agosto	2023-08-25T00:00:00	2024-11-08T09:00:00	6	Velocidad del viento	4.8
143614	7	Sololá	713	San Lucas Tolimán	10	San Lucas Tolimán	8	Agosto	2023-08-25T00:00:00	2024-11-08T09:00:00	7	Dirección del viento	4.83
143615	7	Sololá	713	San Lucas Tolimán	10	San Lucas Tolimán	8	Agosto	2023-08-25T00:00:00	2024-11-08T09:00:00	1	Precipitación	0
143616	7	Sololá	713	San Lucas Tolimán	10	San Lucas Tolimán	8	Agosto	2023-08-25T00:00:00	2024-11-08T09:00:00	8	Radiación solar	559
143617	7	Sololá	713	San Lucas Tolimán	10	San Lucas Tolimán	8	Agosto	2023-08-25T00:00:00	2024-11-08T10:00:00	2	Temperatura media	21.3
143618	7	Sololá	713	San Lucas Tolimán	10	San Lucas Tolimán	8	Agosto	2023-08-25T00:00:00	2024-11-08T10:00:00	4	Temperatura máxima	22.2
143619	7	Sololá	713	San Lucas Tolimán	10	San Lucas Tolimán	8	Agosto	2023-08-25T00:00:00	2024-11-08T10:00:00	3	Temperatura mínima	19.8
143620	7	Sololá	713	San Lucas Tolimán	10	San Lucas Tolimán	8	Agosto	2023-08-25T00:00:00	2024-11-08T10:00:00	5	Humedad	60
143621	7	Sololá	713	San Lucas Tolimán	10	San Lucas Tolimán	8	Agosto	2023-08-25T00:00:00	2024-11-08T10:00:00	6	Velocidad del viento	8
143622	7	Sololá	713	San Lucas Tolimán	10	San Lucas Tolimán	8	Agosto	2023-08-25T00:00:00	2024-11-08T10:00:00	7	Dirección del viento	8.05
143623	7	Sololá	713	San Lucas Tolimán	10	San Lucas Tolimán	8	Agosto	2023-08-25T00:00:00	2024-11-08T10:00:00	1	Precipitación	0
143624	7	Sololá	713	San Lucas Tolimán	10	San Lucas Tolimán	8	Agosto	2023-08-25T00:00:00	2024-11-08T10:00:00	8	Radiación solar	668
143625	7	Sololá	713	San Lucas Tolimán	10	San Lucas Tolimán	8	Agosto	2023-08-25T00:00:00	2024-11-08T11:00:00	2	Temperatura media	22.8
143626	7	Sololá	713	San Lucas Tolimán	10	San Lucas Tolimán	8	Agosto	2023-08-25T00:00:00	2024-11-08T11:00:00	4	Temperatura máxima	23.2
143627	7	Sololá	713	San Lucas Tolimán	10	San Lucas Tolimán	8	Agosto	2023-08-25T00:00:00	2024-11-08T11:00:00	3	Temperatura mínima	20.8
143628	7	Sololá	713	San Lucas Tolimán	10	San Lucas Tolimán	8	Agosto	2023-08-25T00:00:00	2024-11-08T11:00:00	5	Humedad	55
143629	7	Sololá	713	San Lucas Tolimán	10	San Lucas Tolimán	8	Agosto	2023-08-25T00:00:00	2024-11-08T11:00:00	6	Velocidad del viento	6.4
143630	7	Sololá	713	San Lucas Tolimán	10	San Lucas Tolimán	8	Agosto	2023-08-25T00:00:00	2024-11-08T11:00:00	7	Dirección del viento	6.44
143631	7	Sololá	713	San Lucas Tolimán	10	San Lucas Tolimán	8	Agosto	2023-08-25T00:00:00	2024-11-08T11:00:00	1	Precipitación	0
143632	7	Sololá	713	San Lucas Tolimán	10	San Lucas Tolimán	8	Agosto	2023-08-25T00:00:00	2024-11-08T11:00:00	8	Radiación solar	769
143633	7	Sololá	713	San Lucas Tolimán	10	San Lucas Tolimán	8	Agosto	2023-08-25T00:00:00	2024-11-08T12:00:00	2	Temperatura media	23.2
143634	7	Sololá	713	San Lucas Tolimán	10	San Lucas Tolimán	8	Agosto	2023-08-25T00:00:00	2024-11-08T12:00:00	4	Temperatura máxima	23.6
143635	7	Sololá	713	San Lucas Tolimán	10	San Lucas Tolimán	8	Agosto	2023-08-25T00:00:00	2024-11-08T12:00:00	3	Temperatura mínima	23.1
143636	7	Sololá	713	San Lucas Tolimán	10	San Lucas Tolimán	8	Agosto	2023-08-25T00:00:00	2024-11-08T12:00:00	5	Humedad	57
143637	7	Sololá	713	San Lucas Tolimán	10	San Lucas Tolimán	8	Agosto	2023-08-25T00:00:00	2024-11-08T12:00:00	6	Velocidad del viento	9.7
143638	7	Sololá	713	San Lucas Tolimán	10	San Lucas Tolimán	8	Agosto	2023-08-25T00:00:00	2024-11-08T12:00:00	7	Dirección del viento	4.83
143639	7	Sololá	713	San Lucas Tolimán	10	San Lucas Tolimán	8	Agosto	2023-08-25T00:00:00	2024-11-08T12:00:00	1	Precipitación	0
143640	7	Sololá	713	San Lucas Tolimán	10	San Lucas Tolimán	8	Agosto	2023-08-25T00:00:00	2024-11-08T12:00:00	8	Radiación solar	871
143641	7	Sololá	713	San Lucas Tolimán	10	San Lucas Tolimán	8	Agosto	2023-08-25T00:00:00	2024-11-08T13:00:00	2	Temperatura media	23
143642	7	Sololá	713	San Lucas Tolimán	10	San Lucas Tolimán	8	Agosto	2023-08-25T00:00:00	2024-11-08T13:00:00	4	Temperatura máxima	23
143643	7	Sololá	713	San Lucas Tolimán	10	San Lucas Tolimán	8	Agosto	2023-08-25T00:00:00	2024-11-08T13:00:00	3	Temperatura mínima	22.3
143644	7	Sololá	713	San Lucas Tolimán	10	San Lucas Tolimán	8	Agosto	2023-08-25T00:00:00	2024-11-08T13:00:00	5	Humedad	59
143645	7	Sololá	713	San Lucas Tolimán	10	San Lucas Tolimán	8	Agosto	2023-08-25T00:00:00	2024-11-08T13:00:00	6	Velocidad del viento	9.7
143646	7	Sololá	713	San Lucas Tolimán	10	San Lucas Tolimán	8	Agosto	2023-08-25T00:00:00	2024-11-08T13:00:00	7	Dirección del viento	4.83
143647	7	Sololá	713	San Lucas Tolimán	10	San Lucas Tolimán	8	Agosto	2023-08-25T00:00:00	2024-11-08T13:00:00	1	Precipitación	0
143648	7	Sololá	713	San Lucas Tolimán	10	San Lucas Tolimán	8	Agosto	2023-08-25T00:00:00	2024-11-08T13:00:00	8	Radiación solar	812
143649	7	Sololá	713	San Lucas Tolimán	10	San Lucas Tolimán	8	Agosto	2023-08-25T00:00:00	2024-11-08T14:00:00	2	Temperatura media	23.5
143650	7	Sololá	713	San Lucas Tolimán	10	San Lucas Tolimán	8	Agosto	2023-08-25T00:00:00	2024-11-08T14:00:00	4	Temperatura máxima	23.6
143651	7	Sololá	713	San Lucas Tolimán	10	San Lucas Tolimán	8	Agosto	2023-08-25T00:00:00	2024-11-08T14:00:00	3	Temperatura mínima	22
143652	7	Sololá	713	San Lucas Tolimán	10	San Lucas Tolimán	8	Agosto	2023-08-25T00:00:00	2024-11-08T14:00:00	5	Humedad	57
143653	7	Sololá	713	San Lucas Tolimán	10	San Lucas Tolimán	8	Agosto	2023-08-25T00:00:00	2024-11-08T14:00:00	6	Velocidad del viento	9.7
143654	7	Sololá	713	San Lucas Tolimán	10	San Lucas Tolimán	8	Agosto	2023-08-25T00:00:00	2024-11-08T14:00:00	7	Dirección del viento	4.83
143655	7	Sololá	713	San Lucas Tolimán	10	San Lucas Tolimán	8	Agosto	2023-08-25T00:00:00	2024-11-08T14:00:00	1	Precipitación	0
143656	7	Sololá	713	San Lucas Tolimán	10	San Lucas Tolimán	8	Agosto	2023-08-25T00:00:00	2024-11-08T14:00:00	8	Radiación solar	854
143657	7	Sololá	713	San Lucas Tolimán	10	San Lucas Tolimán	8	Agosto	2023-08-25T00:00:00	2024-11-08T15:00:00	2	Temperatura media	21.5
143658	7	Sololá	713	San Lucas Tolimán	10	San Lucas Tolimán	8	Agosto	2023-08-25T00:00:00	2024-11-08T15:00:00	4	Temperatura máxima	22.7
143659	7	Sololá	713	San Lucas Tolimán	10	San Lucas Tolimán	8	Agosto	2023-08-25T00:00:00	2024-11-08T15:00:00	3	Temperatura mínima	21.5
143660	7	Sololá	713	San Lucas Tolimán	10	San Lucas Tolimán	8	Agosto	2023-08-25T00:00:00	2024-11-08T15:00:00	5	Humedad	63
143661	7	Sololá	713	San Lucas Tolimán	10	San Lucas Tolimán	8	Agosto	2023-08-25T00:00:00	2024-11-08T15:00:00	6	Velocidad del viento	9.7
143662	7	Sololá	713	San Lucas Tolimán	10	San Lucas Tolimán	8	Agosto	2023-08-25T00:00:00	2024-11-08T15:00:00	7	Dirección del viento	4.83
143663	7	Sololá	713	San Lucas Tolimán	10	San Lucas Tolimán	8	Agosto	2023-08-25T00:00:00	2024-11-08T15:00:00	1	Precipitación	0
143664	7	Sololá	713	San Lucas Tolimán	10	San Lucas Tolimán	8	Agosto	2023-08-25T00:00:00	2024-11-08T15:00:00	8	Radiación solar	258
143665	7	Sololá	713	San Lucas Tolimán	10	San Lucas Tolimán	8	Agosto	2023-08-25T00:00:00	2024-11-08T16:00:00	2	Temperatura media	20.9
143666	7	Sololá	713	San Lucas Tolimán	10	San Lucas Tolimán	8	Agosto	2023-08-25T00:00:00	2024-11-08T16:00:00	4	Temperatura máxima	21.6
143667	7	Sololá	713	San Lucas Tolimán	10	San Lucas Tolimán	8	Agosto	2023-08-25T00:00:00	2024-11-08T16:00:00	3	Temperatura mínima	20.9
143668	7	Sololá	713	San Lucas Tolimán	10	San Lucas Tolimán	8	Agosto	2023-08-25T00:00:00	2024-11-08T16:00:00	5	Humedad	65
143669	7	Sololá	713	San Lucas Tolimán	10	San Lucas Tolimán	8	Agosto	2023-08-25T00:00:00	2024-11-08T16:00:00	6	Velocidad del viento	8
143670	7	Sololá	713	San Lucas Tolimán	10	San Lucas Tolimán	8	Agosto	2023-08-25T00:00:00	2024-11-08T16:00:00	7	Dirección del viento	4.02
143671	7	Sololá	713	San Lucas Tolimán	10	San Lucas Tolimán	8	Agosto	2023-08-25T00:00:00	2024-11-08T16:00:00	1	Precipitación	0
143672	7	Sololá	713	San Lucas Tolimán	10	San Lucas Tolimán	8	Agosto	2023-08-25T00:00:00	2024-11-08T16:00:00	8	Radiación solar	150
143673	7	Sololá	713	San Lucas Tolimán	10	San Lucas Tolimán	8	Agosto	2023-08-25T00:00:00	2024-11-08T17:00:00	2	Temperatura media	20.4
143674	7	Sololá	713	San Lucas Tolimán	10	San Lucas Tolimán	8	Agosto	2023-08-25T00:00:00	2024-11-08T17:00:00	4	Temperatura máxima	20.7
143675	7	Sololá	713	San Lucas Tolimán	10	San Lucas Tolimán	8	Agosto	2023-08-25T00:00:00	2024-11-08T17:00:00	3	Temperatura mínima	20.4
143676	7	Sololá	713	San Lucas Tolimán	10	San Lucas Tolimán	8	Agosto	2023-08-25T00:00:00	2024-11-08T17:00:00	5	Humedad	65
143677	7	Sololá	713	San Lucas Tolimán	10	San Lucas Tolimán	8	Agosto	2023-08-25T00:00:00	2024-11-08T17:00:00	6	Velocidad del viento	8
143678	7	Sololá	713	San Lucas Tolimán	10	San Lucas Tolimán	8	Agosto	2023-08-25T00:00:00	2024-11-08T17:00:00	7	Dirección del viento	4.02
143679	7	Sololá	713	San Lucas Tolimán	10	San Lucas Tolimán	8	Agosto	2023-08-25T00:00:00	2024-11-08T17:00:00	1	Precipitación	0
143680	7	Sololá	713	San Lucas Tolimán	10	San Lucas Tolimán	8	Agosto	2023-08-25T00:00:00	2024-11-08T17:00:00	8	Radiación solar	87
143681	7	Sololá	713	San Lucas Tolimán	10	San Lucas Tolimán	8	Agosto	2023-08-25T00:00:00	2024-11-08T18:00:00	2	Temperatura media	19.7
143682	7	Sololá	713	San Lucas Tolimán	10	San Lucas Tolimán	8	Agosto	2023-08-25T00:00:00	2024-11-08T18:00:00	4	Temperatura máxima	20.2
143683	7	Sololá	713	San Lucas Tolimán	10	San Lucas Tolimán	8	Agosto	2023-08-25T00:00:00	2024-11-08T18:00:00	3	Temperatura mínima	19.7
143684	7	Sololá	713	San Lucas Tolimán	10	San Lucas Tolimán	8	Agosto	2023-08-25T00:00:00	2024-11-08T18:00:00	5	Humedad	65
143685	7	Sololá	713	San Lucas Tolimán	10	San Lucas Tolimán	8	Agosto	2023-08-25T00:00:00	2024-11-08T18:00:00	6	Velocidad del viento	6.4
143686	7	Sololá	713	San Lucas Tolimán	10	San Lucas Tolimán	8	Agosto	2023-08-25T00:00:00	2024-11-08T18:00:00	7	Dirección del viento	3.22
143687	7	Sololá	713	San Lucas Tolimán	10	San Lucas Tolimán	8	Agosto	2023-08-25T00:00:00	2024-11-08T18:00:00	1	Precipitación	0.2
143688	7	Sololá	713	San Lucas Tolimán	10	San Lucas Tolimán	8	Agosto	2023-08-25T00:00:00	2024-11-08T18:00:00	8	Radiación solar	24
143689	7	Sololá	713	San Lucas Tolimán	10	San Lucas Tolimán	8	Agosto	2023-08-25T00:00:00	2024-11-08T19:00:00	2	Temperatura media	19.4
143690	7	Sololá	713	San Lucas Tolimán	10	San Lucas Tolimán	8	Agosto	2023-08-25T00:00:00	2024-11-08T19:00:00	4	Temperatura máxima	19.7
143691	7	Sololá	713	San Lucas Tolimán	10	San Lucas Tolimán	8	Agosto	2023-08-25T00:00:00	2024-11-08T19:00:00	3	Temperatura mínima	19.4
143692	7	Sololá	713	San Lucas Tolimán	10	San Lucas Tolimán	8	Agosto	2023-08-25T00:00:00	2024-11-08T19:00:00	5	Humedad	65
143693	7	Sololá	713	San Lucas Tolimán	10	San Lucas Tolimán	8	Agosto	2023-08-25T00:00:00	2024-11-08T19:00:00	6	Velocidad del viento	6.4
143694	7	Sololá	713	San Lucas Tolimán	10	San Lucas Tolimán	8	Agosto	2023-08-25T00:00:00	2024-11-08T19:00:00	7	Dirección del viento	3.22
143695	7	Sololá	713	San Lucas Tolimán	10	San Lucas Tolimán	8	Agosto	2023-08-25T00:00:00	2024-11-08T19:00:00	1	Precipitación	0.2
143696	7	Sololá	713	San Lucas Tolimán	10	San Lucas Tolimán	8	Agosto	2023-08-25T00:00:00	2024-11-08T19:00:00	8	Radiación solar	0
143697	7	Sololá	713	San Lucas Tolimán	10	San Lucas Tolimán	8	Agosto	2023-08-25T00:00:00	2024-11-08T20:00:00	2	Temperatura media	19
143698	7	Sololá	713	San Lucas Tolimán	10	San Lucas Tolimán	8	Agosto	2023-08-25T00:00:00	2024-11-08T20:00:00	4	Temperatura máxima	19.4
143699	7	Sololá	713	San Lucas Tolimán	10	San Lucas Tolimán	8	Agosto	2023-08-25T00:00:00	2024-11-08T20:00:00	3	Temperatura mínima	19
143700	7	Sololá	713	San Lucas Tolimán	10	San Lucas Tolimán	8	Agosto	2023-08-25T00:00:00	2024-11-08T20:00:00	5	Humedad	65
143701	7	Sololá	713	San Lucas Tolimán	10	San Lucas Tolimán	8	Agosto	2023-08-25T00:00:00	2024-11-08T20:00:00	6	Velocidad del viento	4.8
143702	7	Sololá	713	San Lucas Tolimán	10	San Lucas Tolimán	8	Agosto	2023-08-25T00:00:00	2024-11-08T20:00:00	7	Dirección del viento	2.41
143703	7	Sololá	713	San Lucas Tolimán	10	San Lucas Tolimán	8	Agosto	2023-08-25T00:00:00	2024-11-08T20:00:00	1	Precipitación	0
143704	7	Sololá	713	San Lucas Tolimán	10	San Lucas Tolimán	8	Agosto	2023-08-25T00:00:00	2024-11-08T20:00:00	8	Radiación solar	0
143705	7	Sololá	713	San Lucas Tolimán	10	San Lucas Tolimán	8	Agosto	2023-08-25T00:00:00	2024-11-08T21:00:00	2	Temperatura media	18.4
143706	7	Sololá	713	San Lucas Tolimán	10	San Lucas Tolimán	8	Agosto	2023-08-25T00:00:00	2024-11-08T21:00:00	4	Temperatura máxima	18.8
143707	7	Sololá	713	San Lucas Tolimán	10	San Lucas Tolimán	8	Agosto	2023-08-25T00:00:00	2024-11-08T21:00:00	3	Temperatura mínima	18.4
143708	7	Sololá	713	San Lucas Tolimán	10	San Lucas Tolimán	8	Agosto	2023-08-25T00:00:00	2024-11-08T21:00:00	5	Humedad	65
143709	7	Sololá	713	San Lucas Tolimán	10	San Lucas Tolimán	8	Agosto	2023-08-25T00:00:00	2024-11-08T21:00:00	6	Velocidad del viento	4.8
143710	7	Sololá	713	San Lucas Tolimán	10	San Lucas Tolimán	8	Agosto	2023-08-25T00:00:00	2024-11-08T21:00:00	7	Dirección del viento	2.41
143711	7	Sololá	713	San Lucas Tolimán	10	San Lucas Tolimán	8	Agosto	2023-08-25T00:00:00	2024-11-08T21:00:00	1	Precipitación	0
143712	7	Sololá	713	San Lucas Tolimán	10	San Lucas Tolimán	8	Agosto	2023-08-25T00:00:00	2024-11-08T21:00:00	8	Radiación solar	0
143713	7	Sololá	713	San Lucas Tolimán	10	San Lucas Tolimán	8	Agosto	2023-08-25T00:00:00	2024-11-08T22:00:00	2	Temperatura media	18.1
143714	7	Sololá	713	San Lucas Tolimán	10	San Lucas Tolimán	8	Agosto	2023-08-25T00:00:00	2024-11-08T22:00:00	4	Temperatura máxima	18.4
143715	7	Sololá	713	San Lucas Tolimán	10	San Lucas Tolimán	8	Agosto	2023-08-25T00:00:00	2024-11-08T22:00:00	3	Temperatura mínima	18.1
143716	7	Sololá	713	San Lucas Tolimán	10	San Lucas Tolimán	8	Agosto	2023-08-25T00:00:00	2024-11-08T22:00:00	5	Humedad	65
143717	7	Sololá	713	San Lucas Tolimán	10	San Lucas Tolimán	8	Agosto	2023-08-25T00:00:00	2024-11-08T22:00:00	6	Velocidad del viento	3.2
143718	7	Sololá	713	San Lucas Tolimán	10	San Lucas Tolimán	8	Agosto	2023-08-25T00:00:00	2024-11-08T22:00:00	7	Dirección del viento	1.61
143719	7	Sololá	713	San Lucas Tolimán	10	San Lucas Tolimán	8	Agosto	2023-08-25T00:00:00	2024-11-08T22:00:00	1	Precipitación	0
143720	7	Sololá	713	San Lucas Tolimán	10	San Lucas Tolimán	8	Agosto	2023-08-25T00:00:00	2024-11-08T22:00:00	8	Radiación solar	0
143721	7	Sololá	713	San Lucas Tolimán	10	San Lucas Tolimán	8	Agosto	2023-08-25T00:00:00	2024-11-08T23:00:00	2	Temperatura media	17.9
143722	7	Sololá	713	San Lucas Tolimán	10	San Lucas Tolimán	8	Agosto	2023-08-25T00:00:00	2024-11-08T23:00:00	4	Temperatura máxima	17.9
143723	7	Sololá	713	San Lucas Tolimán	10	San Lucas Tolimán	8	Agosto	2023-08-25T00:00:00	2024-11-08T23:00:00	3	Temperatura mínima	17.7
143724	7	Sololá	713	San Lucas Tolimán	10	San Lucas Tolimán	8	Agosto	2023-08-25T00:00:00	2024-11-08T23:00:00	5	Humedad	64
143725	7	Sololá	713	San Lucas Tolimán	10	San Lucas Tolimán	8	Agosto	2023-08-25T00:00:00	2024-11-08T23:00:00	6	Velocidad del viento	3.2
143726	7	Sololá	713	San Lucas Tolimán	10	San Lucas Tolimán	8	Agosto	2023-08-25T00:00:00	2024-11-08T23:00:00	7	Dirección del viento	1.61
143727	7	Sololá	713	San Lucas Tolimán	10	San Lucas Tolimán	8	Agosto	2023-08-25T00:00:00	2024-11-08T23:00:00	1	Precipitación	0
143728	7	Sololá	713	San Lucas Tolimán	10	San Lucas Tolimán	8	Agosto	2023-08-25T00:00:00	2024-11-08T23:00:00	8	Radiación solar	0
143729	7	Sololá	713	San Lucas Tolimán	10	San Lucas Tolimán	8	Agosto	2023-08-26T00:00:00	2024-11-08T00:00:00	2	Temperatura media	17.8
143730	7	Sololá	713	San Lucas Tolimán	10	San Lucas Tolimán	8	Agosto	2023-08-26T00:00:00	2024-11-08T00:00:00	4	Temperatura máxima	17.8
143731	7	Sololá	713	San Lucas Tolimán	10	San Lucas Tolimán	8	Agosto	2023-08-26T00:00:00	2024-11-08T00:00:00	3	Temperatura mínima	17.6
143732	7	Sololá	713	San Lucas Tolimán	10	San Lucas Tolimán	8	Agosto	2023-08-26T00:00:00	2024-11-08T00:00:00	5	Humedad	65
143733	7	Sololá	713	San Lucas Tolimán	10	San Lucas Tolimán	8	Agosto	2023-08-26T00:00:00	2024-11-08T00:00:00	6	Velocidad del viento	4.8
143734	7	Sololá	713	San Lucas Tolimán	10	San Lucas Tolimán	8	Agosto	2023-08-26T00:00:00	2024-11-08T00:00:00	7	Dirección del viento	2.41
143735	7	Sololá	713	San Lucas Tolimán	10	San Lucas Tolimán	8	Agosto	2023-08-26T00:00:00	2024-11-08T00:00:00	1	Precipitación	0
143736	7	Sololá	713	San Lucas Tolimán	10	San Lucas Tolimán	8	Agosto	2023-08-26T00:00:00	2024-11-08T00:00:00	8	Radiación solar	0
143737	7	Sololá	713	San Lucas Tolimán	10	San Lucas Tolimán	8	Agosto	2023-08-26T00:00:00	2024-11-08T01:00:00	2	Temperatura media	17.7
143738	7	Sololá	713	San Lucas Tolimán	10	San Lucas Tolimán	8	Agosto	2023-08-26T00:00:00	2024-11-08T01:00:00	4	Temperatura máxima	17.9
143739	7	Sololá	713	San Lucas Tolimán	10	San Lucas Tolimán	8	Agosto	2023-08-26T00:00:00	2024-11-08T01:00:00	3	Temperatura mínima	17.7
143740	7	Sololá	713	San Lucas Tolimán	10	San Lucas Tolimán	8	Agosto	2023-08-26T00:00:00	2024-11-08T01:00:00	5	Humedad	67
143741	7	Sololá	713	San Lucas Tolimán	10	San Lucas Tolimán	8	Agosto	2023-08-26T00:00:00	2024-11-08T01:00:00	6	Velocidad del viento	3.2
143742	7	Sololá	713	San Lucas Tolimán	10	San Lucas Tolimán	8	Agosto	2023-08-26T00:00:00	2024-11-08T01:00:00	7	Dirección del viento	1.61
143743	7	Sololá	713	San Lucas Tolimán	10	San Lucas Tolimán	8	Agosto	2023-08-26T00:00:00	2024-11-08T01:00:00	1	Precipitación	0
143744	7	Sololá	713	San Lucas Tolimán	10	San Lucas Tolimán	8	Agosto	2023-08-26T00:00:00	2024-11-08T01:00:00	8	Radiación solar	0
143745	7	Sololá	713	San Lucas Tolimán	10	San Lucas Tolimán	8	Agosto	2023-08-26T00:00:00	2024-11-08T02:00:00	2	Temperatura media	17.3
143746	7	Sololá	713	San Lucas Tolimán	10	San Lucas Tolimán	8	Agosto	2023-08-26T00:00:00	2024-11-08T02:00:00	4	Temperatura máxima	17.7
143747	7	Sololá	713	San Lucas Tolimán	10	San Lucas Tolimán	8	Agosto	2023-08-26T00:00:00	2024-11-08T02:00:00	3	Temperatura mínima	17.3
143748	7	Sololá	713	San Lucas Tolimán	10	San Lucas Tolimán	8	Agosto	2023-08-26T00:00:00	2024-11-08T02:00:00	5	Humedad	66
143749	7	Sololá	713	San Lucas Tolimán	10	San Lucas Tolimán	8	Agosto	2023-08-26T00:00:00	2024-11-08T02:00:00	6	Velocidad del viento	3.2
143750	7	Sololá	713	San Lucas Tolimán	10	San Lucas Tolimán	8	Agosto	2023-08-26T00:00:00	2024-11-08T02:00:00	7	Dirección del viento	1.61
143751	7	Sololá	713	San Lucas Tolimán	10	San Lucas Tolimán	8	Agosto	2023-08-26T00:00:00	2024-11-08T02:00:00	1	Precipitación	0
143752	7	Sololá	713	San Lucas Tolimán	10	San Lucas Tolimán	8	Agosto	2023-08-26T00:00:00	2024-11-08T02:00:00	8	Radiación solar	0
143753	7	Sololá	713	San Lucas Tolimán	10	San Lucas Tolimán	8	Agosto	2023-08-26T00:00:00	2024-11-08T03:00:00	2	Temperatura media	16.9
143754	7	Sololá	713	San Lucas Tolimán	10	San Lucas Tolimán	8	Agosto	2023-08-26T00:00:00	2024-11-08T03:00:00	4	Temperatura máxima	17.1
143755	7	Sololá	713	San Lucas Tolimán	10	San Lucas Tolimán	8	Agosto	2023-08-26T00:00:00	2024-11-08T03:00:00	3	Temperatura mínima	16.8
143756	7	Sololá	713	San Lucas Tolimán	10	San Lucas Tolimán	8	Agosto	2023-08-26T00:00:00	2024-11-08T03:00:00	5	Humedad	66
143757	7	Sololá	713	San Lucas Tolimán	10	San Lucas Tolimán	8	Agosto	2023-08-26T00:00:00	2024-11-08T03:00:00	6	Velocidad del viento	3.2
143758	7	Sololá	713	San Lucas Tolimán	10	San Lucas Tolimán	8	Agosto	2023-08-26T00:00:00	2024-11-08T03:00:00	7	Dirección del viento	1.61
143759	7	Sololá	713	San Lucas Tolimán	10	San Lucas Tolimán	8	Agosto	2023-08-26T00:00:00	2024-11-08T03:00:00	1	Precipitación	0
143760	7	Sololá	713	San Lucas Tolimán	10	San Lucas Tolimán	8	Agosto	2023-08-26T00:00:00	2024-11-08T03:00:00	8	Radiación solar	0
143761	7	Sololá	713	San Lucas Tolimán	10	San Lucas Tolimán	8	Agosto	2023-08-26T00:00:00	2024-11-08T04:00:00	2	Temperatura media	17.2
143762	7	Sololá	713	San Lucas Tolimán	10	San Lucas Tolimán	8	Agosto	2023-08-26T00:00:00	2024-11-08T04:00:00	4	Temperatura máxima	17.2
143763	7	Sololá	713	San Lucas Tolimán	10	San Lucas Tolimán	8	Agosto	2023-08-26T00:00:00	2024-11-08T04:00:00	3	Temperatura mínima	16.9
143764	7	Sololá	713	San Lucas Tolimán	10	San Lucas Tolimán	8	Agosto	2023-08-26T00:00:00	2024-11-08T04:00:00	5	Humedad	65
143765	7	Sololá	713	San Lucas Tolimán	10	San Lucas Tolimán	8	Agosto	2023-08-26T00:00:00	2024-11-08T04:00:00	6	Velocidad del viento	4.8
143766	7	Sololá	713	San Lucas Tolimán	10	San Lucas Tolimán	8	Agosto	2023-08-26T00:00:00	2024-11-08T04:00:00	7	Dirección del viento	2.41
143767	7	Sololá	713	San Lucas Tolimán	10	San Lucas Tolimán	8	Agosto	2023-08-26T00:00:00	2024-11-08T04:00:00	1	Precipitación	0
143768	7	Sololá	713	San Lucas Tolimán	10	San Lucas Tolimán	8	Agosto	2023-08-26T00:00:00	2024-11-08T04:00:00	8	Radiación solar	0
143769	7	Sololá	713	San Lucas Tolimán	10	San Lucas Tolimán	8	Agosto	2023-08-26T00:00:00	2024-11-08T05:00:00	2	Temperatura media	17.4
143770	7	Sololá	713	San Lucas Tolimán	10	San Lucas Tolimán	8	Agosto	2023-08-26T00:00:00	2024-11-08T05:00:00	4	Temperatura máxima	17.7
143771	7	Sololá	713	San Lucas Tolimán	10	San Lucas Tolimán	8	Agosto	2023-08-26T00:00:00	2024-11-08T05:00:00	3	Temperatura mínima	17.4
143772	7	Sololá	713	San Lucas Tolimán	10	San Lucas Tolimán	8	Agosto	2023-08-26T00:00:00	2024-11-08T05:00:00	5	Humedad	67
143773	7	Sololá	713	San Lucas Tolimán	10	San Lucas Tolimán	8	Agosto	2023-08-26T00:00:00	2024-11-08T05:00:00	6	Velocidad del viento	3.2
143774	7	Sololá	713	San Lucas Tolimán	10	San Lucas Tolimán	8	Agosto	2023-08-26T00:00:00	2024-11-08T05:00:00	7	Dirección del viento	1.61
143775	7	Sololá	713	San Lucas Tolimán	10	San Lucas Tolimán	8	Agosto	2023-08-26T00:00:00	2024-11-08T05:00:00	1	Precipitación	0
143776	7	Sololá	713	San Lucas Tolimán	10	San Lucas Tolimán	8	Agosto	2023-08-26T00:00:00	2024-11-08T05:00:00	8	Radiación solar	0
143777	7	Sololá	713	San Lucas Tolimán	10	San Lucas Tolimán	8	Agosto	2023-08-26T00:00:00	2024-11-08T06:00:00	2	Temperatura media	17.6
143778	7	Sololá	713	San Lucas Tolimán	10	San Lucas Tolimán	8	Agosto	2023-08-26T00:00:00	2024-11-08T06:00:00	4	Temperatura máxima	17.7
143779	7	Sololá	713	San Lucas Tolimán	10	San Lucas Tolimán	8	Agosto	2023-08-26T00:00:00	2024-11-08T06:00:00	3	Temperatura mínima	17.6
143780	7	Sololá	713	San Lucas Tolimán	10	San Lucas Tolimán	8	Agosto	2023-08-26T00:00:00	2024-11-08T06:00:00	5	Humedad	67
143781	7	Sololá	713	San Lucas Tolimán	10	San Lucas Tolimán	8	Agosto	2023-08-26T00:00:00	2024-11-08T06:00:00	6	Velocidad del viento	0
143782	7	Sololá	713	San Lucas Tolimán	10	San Lucas Tolimán	8	Agosto	2023-08-26T00:00:00	2024-11-08T06:00:00	7	Dirección del viento	0
143783	7	Sololá	713	San Lucas Tolimán	10	San Lucas Tolimán	8	Agosto	2023-08-26T00:00:00	2024-11-08T06:00:00	1	Precipitación	0
143784	7	Sololá	713	San Lucas Tolimán	10	San Lucas Tolimán	8	Agosto	2023-08-26T00:00:00	2024-11-08T06:00:00	8	Radiación solar	1
143785	7	Sololá	713	San Lucas Tolimán	10	San Lucas Tolimán	8	Agosto	2023-08-26T00:00:00	2024-11-08T07:00:00	2	Temperatura media	18.7
143786	7	Sololá	713	San Lucas Tolimán	10	San Lucas Tolimán	8	Agosto	2023-08-26T00:00:00	2024-11-08T07:00:00	4	Temperatura máxima	18.7
143787	7	Sololá	713	San Lucas Tolimán	10	San Lucas Tolimán	8	Agosto	2023-08-26T00:00:00	2024-11-08T07:00:00	3	Temperatura mínima	17.6
143788	7	Sololá	713	San Lucas Tolimán	10	San Lucas Tolimán	8	Agosto	2023-08-26T00:00:00	2024-11-08T07:00:00	5	Humedad	64
143789	7	Sololá	713	San Lucas Tolimán	10	San Lucas Tolimán	8	Agosto	2023-08-26T00:00:00	2024-11-08T07:00:00	6	Velocidad del viento	1.6
143790	7	Sololá	713	San Lucas Tolimán	10	San Lucas Tolimán	8	Agosto	2023-08-26T00:00:00	2024-11-08T07:00:00	7	Dirección del viento	0.8
143791	7	Sololá	713	San Lucas Tolimán	10	San Lucas Tolimán	8	Agosto	2023-08-26T00:00:00	2024-11-08T07:00:00	1	Precipitación	0
143792	7	Sololá	713	San Lucas Tolimán	10	San Lucas Tolimán	8	Agosto	2023-08-26T00:00:00	2024-11-08T07:00:00	8	Radiación solar	106
143793	7	Sololá	713	San Lucas Tolimán	10	San Lucas Tolimán	8	Agosto	2023-08-26T00:00:00	2024-11-08T08:00:00	2	Temperatura media	20.9
143794	7	Sololá	713	San Lucas Tolimán	10	San Lucas Tolimán	8	Agosto	2023-08-26T00:00:00	2024-11-08T08:00:00	4	Temperatura máxima	21.2
143795	7	Sololá	713	San Lucas Tolimán	10	San Lucas Tolimán	8	Agosto	2023-08-26T00:00:00	2024-11-08T08:00:00	3	Temperatura mínima	20.3
143796	7	Sololá	713	San Lucas Tolimán	10	San Lucas Tolimán	8	Agosto	2023-08-26T00:00:00	2024-11-08T08:00:00	5	Humedad	59
143797	7	Sololá	713	San Lucas Tolimán	10	San Lucas Tolimán	8	Agosto	2023-08-26T00:00:00	2024-11-08T08:00:00	6	Velocidad del viento	4.8
143798	7	Sololá	713	San Lucas Tolimán	10	San Lucas Tolimán	8	Agosto	2023-08-26T00:00:00	2024-11-08T08:00:00	7	Dirección del viento	2.41
143799	7	Sololá	713	San Lucas Tolimán	10	San Lucas Tolimán	8	Agosto	2023-08-26T00:00:00	2024-11-08T08:00:00	1	Precipitación	0
143800	7	Sololá	713	San Lucas Tolimán	10	San Lucas Tolimán	8	Agosto	2023-08-26T00:00:00	2024-11-08T08:00:00	8	Radiación solar	373
143801	7	Sololá	713	San Lucas Tolimán	10	San Lucas Tolimán	8	Agosto	2023-08-26T00:00:00	2024-11-08T09:00:00	2	Temperatura media	22.4
143802	7	Sololá	713	San Lucas Tolimán	10	San Lucas Tolimán	8	Agosto	2023-08-26T00:00:00	2024-11-08T09:00:00	4	Temperatura máxima	22.7
143803	7	Sololá	713	San Lucas Tolimán	10	San Lucas Tolimán	8	Agosto	2023-08-26T00:00:00	2024-11-08T09:00:00	3	Temperatura mínima	22.3
143804	7	Sololá	713	San Lucas Tolimán	10	San Lucas Tolimán	8	Agosto	2023-08-26T00:00:00	2024-11-08T09:00:00	5	Humedad	56
143805	7	Sololá	713	San Lucas Tolimán	10	San Lucas Tolimán	8	Agosto	2023-08-26T00:00:00	2024-11-08T09:00:00	6	Velocidad del viento	4.8
143806	7	Sololá	713	San Lucas Tolimán	10	San Lucas Tolimán	8	Agosto	2023-08-26T00:00:00	2024-11-08T09:00:00	7	Dirección del viento	2.41
143807	7	Sololá	713	San Lucas Tolimán	10	San Lucas Tolimán	8	Agosto	2023-08-26T00:00:00	2024-11-08T09:00:00	1	Precipitación	0
143808	7	Sololá	713	San Lucas Tolimán	10	San Lucas Tolimán	8	Agosto	2023-08-26T00:00:00	2024-11-08T09:00:00	8	Radiación solar	648
143809	7	Sololá	713	San Lucas Tolimán	10	San Lucas Tolimán	8	Agosto	2023-08-26T00:00:00	2024-11-08T10:00:00	2	Temperatura media	23.7
143810	7	Sololá	713	San Lucas Tolimán	10	San Lucas Tolimán	8	Agosto	2023-08-26T00:00:00	2024-11-08T10:00:00	4	Temperatura máxima	23.7
143811	7	Sololá	713	San Lucas Tolimán	10	San Lucas Tolimán	8	Agosto	2023-08-26T00:00:00	2024-11-08T10:00:00	3	Temperatura mínima	22.2
143812	7	Sololá	713	San Lucas Tolimán	10	San Lucas Tolimán	8	Agosto	2023-08-26T00:00:00	2024-11-08T10:00:00	5	Humedad	56
143813	7	Sololá	713	San Lucas Tolimán	10	San Lucas Tolimán	8	Agosto	2023-08-26T00:00:00	2024-11-08T10:00:00	6	Velocidad del viento	6.4
143814	7	Sololá	713	San Lucas Tolimán	10	San Lucas Tolimán	8	Agosto	2023-08-26T00:00:00	2024-11-08T10:00:00	7	Dirección del viento	3.22
143815	7	Sololá	713	San Lucas Tolimán	10	San Lucas Tolimán	8	Agosto	2023-08-26T00:00:00	2024-11-08T10:00:00	1	Precipitación	0
143816	7	Sololá	713	San Lucas Tolimán	10	San Lucas Tolimán	8	Agosto	2023-08-26T00:00:00	2024-11-08T10:00:00	8	Radiación solar	791
143817	7	Sololá	713	San Lucas Tolimán	10	San Lucas Tolimán	8	Agosto	2023-08-26T00:00:00	2024-11-08T11:00:00	2	Temperatura media	24.1
143818	7	Sololá	713	San Lucas Tolimán	10	San Lucas Tolimán	8	Agosto	2023-08-26T00:00:00	2024-11-08T11:00:00	4	Temperatura máxima	24.5
143819	7	Sololá	713	San Lucas Tolimán	10	San Lucas Tolimán	8	Agosto	2023-08-26T00:00:00	2024-11-08T11:00:00	3	Temperatura mínima	23.8
143820	7	Sololá	713	San Lucas Tolimán	10	San Lucas Tolimán	8	Agosto	2023-08-26T00:00:00	2024-11-08T11:00:00	5	Humedad	55
143821	7	Sololá	713	San Lucas Tolimán	10	San Lucas Tolimán	8	Agosto	2023-08-26T00:00:00	2024-11-08T11:00:00	6	Velocidad del viento	11.3
143822	7	Sololá	713	San Lucas Tolimán	10	San Lucas Tolimán	8	Agosto	2023-08-26T00:00:00	2024-11-08T11:00:00	7	Dirección del viento	5.63
143823	7	Sololá	713	San Lucas Tolimán	10	San Lucas Tolimán	8	Agosto	2023-08-26T00:00:00	2024-11-08T11:00:00	1	Precipitación	0
143824	7	Sololá	713	San Lucas Tolimán	10	San Lucas Tolimán	8	Agosto	2023-08-26T00:00:00	2024-11-08T11:00:00	8	Radiación solar	1032
143825	7	Sololá	713	San Lucas Tolimán	10	San Lucas Tolimán	8	Agosto	2023-08-26T00:00:00	2024-11-08T12:00:00	2	Temperatura media	23.8
143826	7	Sololá	713	San Lucas Tolimán	10	San Lucas Tolimán	8	Agosto	2023-08-26T00:00:00	2024-11-08T12:00:00	4	Temperatura máxima	24.1
143827	7	Sololá	713	San Lucas Tolimán	10	San Lucas Tolimán	8	Agosto	2023-08-26T00:00:00	2024-11-08T12:00:00	3	Temperatura mínima	23.6
143828	7	Sololá	713	San Lucas Tolimán	10	San Lucas Tolimán	8	Agosto	2023-08-26T00:00:00	2024-11-08T12:00:00	5	Humedad	58
143829	7	Sololá	713	San Lucas Tolimán	10	San Lucas Tolimán	8	Agosto	2023-08-26T00:00:00	2024-11-08T12:00:00	6	Velocidad del viento	12.9
143830	7	Sololá	713	San Lucas Tolimán	10	San Lucas Tolimán	8	Agosto	2023-08-26T00:00:00	2024-11-08T12:00:00	7	Dirección del viento	6.44
143831	7	Sololá	713	San Lucas Tolimán	10	San Lucas Tolimán	8	Agosto	2023-08-26T00:00:00	2024-11-08T12:00:00	1	Precipitación	0
143832	7	Sololá	713	San Lucas Tolimán	10	San Lucas Tolimán	8	Agosto	2023-08-26T00:00:00	2024-11-08T12:00:00	8	Radiación solar	1146
143833	7	Sololá	713	San Lucas Tolimán	10	San Lucas Tolimán	8	Agosto	2023-08-26T00:00:00	2024-11-08T13:00:00	2	Temperatura media	23.3
143834	7	Sololá	713	San Lucas Tolimán	10	San Lucas Tolimán	8	Agosto	2023-08-26T00:00:00	2024-11-08T13:00:00	4	Temperatura máxima	23.4
143835	7	Sololá	713	San Lucas Tolimán	10	San Lucas Tolimán	8	Agosto	2023-08-26T00:00:00	2024-11-08T13:00:00	3	Temperatura mínima	23.2
143836	7	Sololá	713	San Lucas Tolimán	10	San Lucas Tolimán	8	Agosto	2023-08-26T00:00:00	2024-11-08T13:00:00	5	Humedad	59
143837	7	Sololá	713	San Lucas Tolimán	10	San Lucas Tolimán	8	Agosto	2023-08-26T00:00:00	2024-11-08T13:00:00	6	Velocidad del viento	9.7
143838	7	Sololá	713	San Lucas Tolimán	10	San Lucas Tolimán	8	Agosto	2023-08-26T00:00:00	2024-11-08T13:00:00	7	Dirección del viento	4.83
143839	7	Sololá	713	San Lucas Tolimán	10	San Lucas Tolimán	8	Agosto	2023-08-26T00:00:00	2024-11-08T13:00:00	1	Precipitación	0
143840	7	Sololá	713	San Lucas Tolimán	10	San Lucas Tolimán	8	Agosto	2023-08-26T00:00:00	2024-11-08T13:00:00	8	Radiación solar	646
143841	7	Sololá	713	San Lucas Tolimán	10	San Lucas Tolimán	8	Agosto	2023-08-26T00:00:00	2024-11-08T14:00:00	2	Temperatura media	23.2
143842	7	Sololá	713	San Lucas Tolimán	10	San Lucas Tolimán	8	Agosto	2023-08-26T00:00:00	2024-11-08T14:00:00	4	Temperatura máxima	23.4
143843	7	Sololá	713	San Lucas Tolimán	10	San Lucas Tolimán	8	Agosto	2023-08-26T00:00:00	2024-11-08T14:00:00	3	Temperatura mínima	22.9
143844	7	Sololá	713	San Lucas Tolimán	10	San Lucas Tolimán	8	Agosto	2023-08-26T00:00:00	2024-11-08T14:00:00	5	Humedad	59
143845	7	Sololá	713	San Lucas Tolimán	10	San Lucas Tolimán	8	Agosto	2023-08-26T00:00:00	2024-11-08T14:00:00	6	Velocidad del viento	11.3
143846	7	Sololá	713	San Lucas Tolimán	10	San Lucas Tolimán	8	Agosto	2023-08-26T00:00:00	2024-11-08T14:00:00	7	Dirección del viento	5.63
143847	7	Sololá	713	San Lucas Tolimán	10	San Lucas Tolimán	8	Agosto	2023-08-26T00:00:00	2024-11-08T14:00:00	1	Precipitación	0
143848	7	Sololá	713	San Lucas Tolimán	10	San Lucas Tolimán	8	Agosto	2023-08-26T00:00:00	2024-11-08T14:00:00	8	Radiación solar	725
143849	7	Sololá	713	San Lucas Tolimán	10	San Lucas Tolimán	8	Agosto	2023-08-26T00:00:00	2024-11-08T15:00:00	2	Temperatura media	21.4
143850	7	Sololá	713	San Lucas Tolimán	10	San Lucas Tolimán	8	Agosto	2023-08-26T00:00:00	2024-11-08T15:00:00	4	Temperatura máxima	22.2
143851	7	Sololá	713	San Lucas Tolimán	10	San Lucas Tolimán	8	Agosto	2023-08-26T00:00:00	2024-11-08T15:00:00	3	Temperatura mínima	21.4
143852	7	Sololá	713	San Lucas Tolimán	10	San Lucas Tolimán	8	Agosto	2023-08-26T00:00:00	2024-11-08T15:00:00	5	Humedad	64
143853	7	Sololá	713	San Lucas Tolimán	10	San Lucas Tolimán	8	Agosto	2023-08-26T00:00:00	2024-11-08T15:00:00	6	Velocidad del viento	11.3
143854	7	Sololá	713	San Lucas Tolimán	10	San Lucas Tolimán	8	Agosto	2023-08-26T00:00:00	2024-11-08T15:00:00	7	Dirección del viento	5.63
143855	7	Sololá	713	San Lucas Tolimán	10	San Lucas Tolimán	8	Agosto	2023-08-26T00:00:00	2024-11-08T15:00:00	1	Precipitación	0
143856	7	Sololá	713	San Lucas Tolimán	10	San Lucas Tolimán	8	Agosto	2023-08-26T00:00:00	2024-11-08T15:00:00	8	Radiación solar	288
143857	7	Sololá	713	San Lucas Tolimán	10	San Lucas Tolimán	8	Agosto	2023-08-26T00:00:00	2024-11-08T16:00:00	2	Temperatura media	21.2
143858	7	Sololá	713	San Lucas Tolimán	10	San Lucas Tolimán	8	Agosto	2023-08-26T00:00:00	2024-11-08T16:00:00	4	Temperatura máxima	21.8
143859	7	Sololá	713	San Lucas Tolimán	10	San Lucas Tolimán	8	Agosto	2023-08-26T00:00:00	2024-11-08T16:00:00	3	Temperatura mínima	21.2
143860	7	Sololá	713	San Lucas Tolimán	10	San Lucas Tolimán	8	Agosto	2023-08-26T00:00:00	2024-11-08T16:00:00	5	Humedad	64
143861	7	Sololá	713	San Lucas Tolimán	10	San Lucas Tolimán	8	Agosto	2023-08-26T00:00:00	2024-11-08T16:00:00	6	Velocidad del viento	9.7
143862	7	Sololá	713	San Lucas Tolimán	10	San Lucas Tolimán	8	Agosto	2023-08-26T00:00:00	2024-11-08T16:00:00	7	Dirección del viento	4.83
143863	7	Sololá	713	San Lucas Tolimán	10	San Lucas Tolimán	8	Agosto	2023-08-26T00:00:00	2024-11-08T16:00:00	1	Precipitación	0
143864	7	Sololá	713	San Lucas Tolimán	10	San Lucas Tolimán	8	Agosto	2023-08-26T00:00:00	2024-11-08T16:00:00	8	Radiación solar	259
143865	7	Sololá	713	San Lucas Tolimán	10	San Lucas Tolimán	8	Agosto	2023-08-26T00:00:00	2024-11-08T17:00:00	2	Temperatura media	21.6
143866	7	Sololá	713	San Lucas Tolimán	10	San Lucas Tolimán	8	Agosto	2023-08-26T00:00:00	2024-11-08T17:00:00	4	Temperatura máxima	22.1
143867	7	Sololá	713	San Lucas Tolimán	10	San Lucas Tolimán	8	Agosto	2023-08-26T00:00:00	2024-11-08T17:00:00	3	Temperatura mínima	21.6
143868	7	Sololá	713	San Lucas Tolimán	10	San Lucas Tolimán	8	Agosto	2023-08-26T00:00:00	2024-11-08T17:00:00	5	Humedad	63
143869	7	Sololá	713	San Lucas Tolimán	10	San Lucas Tolimán	8	Agosto	2023-08-26T00:00:00	2024-11-08T17:00:00	6	Velocidad del viento	6.4
143870	7	Sololá	713	San Lucas Tolimán	10	San Lucas Tolimán	8	Agosto	2023-08-26T00:00:00	2024-11-08T17:00:00	7	Dirección del viento	3.22
143871	7	Sololá	713	San Lucas Tolimán	10	San Lucas Tolimán	8	Agosto	2023-08-26T00:00:00	2024-11-08T17:00:00	1	Precipitación	0
143872	7	Sololá	713	San Lucas Tolimán	10	San Lucas Tolimán	8	Agosto	2023-08-26T00:00:00	2024-11-08T17:00:00	8	Radiación solar	218
143873	7	Sololá	713	San Lucas Tolimán	10	San Lucas Tolimán	8	Agosto	2023-08-26T00:00:00	2024-11-08T18:00:00	2	Temperatura media	20.6
143874	7	Sololá	713	San Lucas Tolimán	10	San Lucas Tolimán	8	Agosto	2023-08-26T00:00:00	2024-11-08T18:00:00	4	Temperatura máxima	21.1
143875	7	Sololá	713	San Lucas Tolimán	10	San Lucas Tolimán	8	Agosto	2023-08-26T00:00:00	2024-11-08T18:00:00	3	Temperatura mínima	20.6
143876	7	Sololá	713	San Lucas Tolimán	10	San Lucas Tolimán	8	Agosto	2023-08-26T00:00:00	2024-11-08T18:00:00	5	Humedad	65
143877	7	Sololá	713	San Lucas Tolimán	10	San Lucas Tolimán	8	Agosto	2023-08-26T00:00:00	2024-11-08T18:00:00	6	Velocidad del viento	8
143878	7	Sololá	713	San Lucas Tolimán	10	San Lucas Tolimán	8	Agosto	2023-08-26T00:00:00	2024-11-08T18:00:00	7	Dirección del viento	4.02
143879	7	Sololá	713	San Lucas Tolimán	10	San Lucas Tolimán	8	Agosto	2023-08-26T00:00:00	2024-11-08T18:00:00	1	Precipitación	0
143880	7	Sololá	713	San Lucas Tolimán	10	San Lucas Tolimán	8	Agosto	2023-08-26T00:00:00	2024-11-08T18:00:00	8	Radiación solar	37
143881	7	Sololá	713	San Lucas Tolimán	10	San Lucas Tolimán	8	Agosto	2023-08-26T00:00:00	2024-11-08T19:00:00	2	Temperatura media	20.2
143882	7	Sololá	713	San Lucas Tolimán	10	San Lucas Tolimán	8	Agosto	2023-08-26T00:00:00	2024-11-08T19:00:00	4	Temperatura máxima	20.4
143883	7	Sololá	713	San Lucas Tolimán	10	San Lucas Tolimán	8	Agosto	2023-08-26T00:00:00	2024-11-08T19:00:00	3	Temperatura mínima	20.2
143884	7	Sololá	713	San Lucas Tolimán	10	San Lucas Tolimán	8	Agosto	2023-08-26T00:00:00	2024-11-08T19:00:00	5	Humedad	65
143885	7	Sololá	713	San Lucas Tolimán	10	San Lucas Tolimán	8	Agosto	2023-08-26T00:00:00	2024-11-08T19:00:00	6	Velocidad del viento	6.4
143886	7	Sololá	713	San Lucas Tolimán	10	San Lucas Tolimán	8	Agosto	2023-08-26T00:00:00	2024-11-08T19:00:00	7	Dirección del viento	3.22
143887	7	Sololá	713	San Lucas Tolimán	10	San Lucas Tolimán	8	Agosto	2023-08-26T00:00:00	2024-11-08T19:00:00	1	Precipitación	0
143888	7	Sololá	713	San Lucas Tolimán	10	San Lucas Tolimán	8	Agosto	2023-08-26T00:00:00	2024-11-08T19:00:00	8	Radiación solar	0
143889	7	Sololá	713	San Lucas Tolimán	10	San Lucas Tolimán	8	Agosto	2023-08-26T00:00:00	2024-11-08T20:00:00	2	Temperatura media	19.7
143890	7	Sololá	713	San Lucas Tolimán	10	San Lucas Tolimán	8	Agosto	2023-08-26T00:00:00	2024-11-08T20:00:00	4	Temperatura máxima	20
143891	7	Sololá	713	San Lucas Tolimán	10	San Lucas Tolimán	8	Agosto	2023-08-26T00:00:00	2024-11-08T20:00:00	3	Temperatura mínima	19.7
143892	7	Sololá	713	San Lucas Tolimán	10	San Lucas Tolimán	8	Agosto	2023-08-26T00:00:00	2024-11-08T20:00:00	5	Humedad	65
143893	7	Sololá	713	San Lucas Tolimán	10	San Lucas Tolimán	8	Agosto	2023-08-26T00:00:00	2024-11-08T20:00:00	6	Velocidad del viento	8
143894	7	Sololá	713	San Lucas Tolimán	10	San Lucas Tolimán	8	Agosto	2023-08-26T00:00:00	2024-11-08T20:00:00	7	Dirección del viento	4.02
143895	7	Sololá	713	San Lucas Tolimán	10	San Lucas Tolimán	8	Agosto	2023-08-26T00:00:00	2024-11-08T20:00:00	1	Precipitación	0
143896	7	Sololá	713	San Lucas Tolimán	10	San Lucas Tolimán	8	Agosto	2023-08-26T00:00:00	2024-11-08T20:00:00	8	Radiación solar	0
143897	7	Sololá	713	San Lucas Tolimán	10	San Lucas Tolimán	8	Agosto	2023-08-26T00:00:00	2024-11-08T21:00:00	2	Temperatura media	18.8
143898	7	Sololá	713	San Lucas Tolimán	10	San Lucas Tolimán	8	Agosto	2023-08-26T00:00:00	2024-11-08T21:00:00	4	Temperatura máxima	19.2
143899	7	Sololá	713	San Lucas Tolimán	10	San Lucas Tolimán	8	Agosto	2023-08-26T00:00:00	2024-11-08T21:00:00	3	Temperatura mínima	18.8
143900	7	Sololá	713	San Lucas Tolimán	10	San Lucas Tolimán	8	Agosto	2023-08-26T00:00:00	2024-11-08T21:00:00	5	Humedad	64
143901	7	Sololá	713	San Lucas Tolimán	10	San Lucas Tolimán	8	Agosto	2023-08-26T00:00:00	2024-11-08T21:00:00	6	Velocidad del viento	6.4
143902	7	Sololá	713	San Lucas Tolimán	10	San Lucas Tolimán	8	Agosto	2023-08-26T00:00:00	2024-11-08T21:00:00	7	Dirección del viento	3.22
143903	7	Sololá	713	San Lucas Tolimán	10	San Lucas Tolimán	8	Agosto	2023-08-26T00:00:00	2024-11-08T21:00:00	1	Precipitación	0
143904	7	Sololá	713	San Lucas Tolimán	10	San Lucas Tolimán	8	Agosto	2023-08-26T00:00:00	2024-11-08T21:00:00	8	Radiación solar	0
143905	7	Sololá	713	San Lucas Tolimán	10	San Lucas Tolimán	8	Agosto	2023-08-26T00:00:00	2024-11-08T22:00:00	2	Temperatura media	18.7
143906	7	Sololá	713	San Lucas Tolimán	10	San Lucas Tolimán	8	Agosto	2023-08-26T00:00:00	2024-11-08T22:00:00	4	Temperatura máxima	18.8
143907	7	Sololá	713	San Lucas Tolimán	10	San Lucas Tolimán	8	Agosto	2023-08-26T00:00:00	2024-11-08T22:00:00	3	Temperatura mínima	18.6
143908	7	Sololá	713	San Lucas Tolimán	10	San Lucas Tolimán	8	Agosto	2023-08-26T00:00:00	2024-11-08T22:00:00	5	Humedad	64
143909	7	Sololá	713	San Lucas Tolimán	10	San Lucas Tolimán	8	Agosto	2023-08-26T00:00:00	2024-11-08T22:00:00	6	Velocidad del viento	3.2
143910	7	Sololá	713	San Lucas Tolimán	10	San Lucas Tolimán	8	Agosto	2023-08-26T00:00:00	2024-11-08T22:00:00	7	Dirección del viento	1.61
143911	7	Sololá	713	San Lucas Tolimán	10	San Lucas Tolimán	8	Agosto	2023-08-26T00:00:00	2024-11-08T22:00:00	1	Precipitación	0
143912	7	Sololá	713	San Lucas Tolimán	10	San Lucas Tolimán	8	Agosto	2023-08-26T00:00:00	2024-11-08T22:00:00	8	Radiación solar	0
143913	7	Sololá	713	San Lucas Tolimán	10	San Lucas Tolimán	8	Agosto	2023-08-26T00:00:00	2024-11-08T23:00:00	2	Temperatura media	18.8
143914	7	Sololá	713	San Lucas Tolimán	10	San Lucas Tolimán	8	Agosto	2023-08-26T00:00:00	2024-11-08T23:00:00	4	Temperatura máxima	18.9
143915	7	Sololá	713	San Lucas Tolimán	10	San Lucas Tolimán	8	Agosto	2023-08-26T00:00:00	2024-11-08T23:00:00	3	Temperatura mínima	18.7
143916	7	Sololá	713	San Lucas Tolimán	10	San Lucas Tolimán	8	Agosto	2023-08-26T00:00:00	2024-11-08T23:00:00	5	Humedad	63
143917	7	Sololá	713	San Lucas Tolimán	10	San Lucas Tolimán	8	Agosto	2023-08-26T00:00:00	2024-11-08T23:00:00	6	Velocidad del viento	8
143918	7	Sololá	713	San Lucas Tolimán	10	San Lucas Tolimán	8	Agosto	2023-08-26T00:00:00	2024-11-08T23:00:00	7	Dirección del viento	4.02
143919	7	Sololá	713	San Lucas Tolimán	10	San Lucas Tolimán	8	Agosto	2023-08-26T00:00:00	2024-11-08T23:00:00	1	Precipitación	0
143920	7	Sololá	713	San Lucas Tolimán	10	San Lucas Tolimán	8	Agosto	2023-08-26T00:00:00	2024-11-08T23:00:00	8	Radiación solar	0
143921	7	Sololá	713	San Lucas Tolimán	10	San Lucas Tolimán	8	Agosto	2023-08-27T00:00:00	2024-11-08T00:00:00	2	Temperatura media	18.6
143922	7	Sololá	713	San Lucas Tolimán	10	San Lucas Tolimán	8	Agosto	2023-08-27T00:00:00	2024-11-08T00:00:00	4	Temperatura máxima	18.7
143923	7	Sololá	713	San Lucas Tolimán	10	San Lucas Tolimán	8	Agosto	2023-08-27T00:00:00	2024-11-08T00:00:00	3	Temperatura mínima	18.6
143924	7	Sololá	713	San Lucas Tolimán	10	San Lucas Tolimán	8	Agosto	2023-08-27T00:00:00	2024-11-08T00:00:00	5	Humedad	65
143925	7	Sololá	713	San Lucas Tolimán	10	San Lucas Tolimán	8	Agosto	2023-08-27T00:00:00	2024-11-08T00:00:00	6	Velocidad del viento	0
143926	7	Sololá	713	San Lucas Tolimán	10	San Lucas Tolimán	8	Agosto	2023-08-27T00:00:00	2024-11-08T00:00:00	7	Dirección del viento	0
143927	7	Sololá	713	San Lucas Tolimán	10	San Lucas Tolimán	8	Agosto	2023-08-27T00:00:00	2024-11-08T00:00:00	1	Precipitación	0
143928	7	Sololá	713	San Lucas Tolimán	10	San Lucas Tolimán	8	Agosto	2023-08-27T00:00:00	2024-11-08T00:00:00	8	Radiación solar	0
143929	7	Sololá	713	San Lucas Tolimán	10	San Lucas Tolimán	8	Agosto	2023-08-27T00:00:00	2024-11-08T01:00:00	2	Temperatura media	18
143930	7	Sololá	713	San Lucas Tolimán	10	San Lucas Tolimán	8	Agosto	2023-08-27T00:00:00	2024-11-08T01:00:00	4	Temperatura máxima	18.3
143931	7	Sololá	713	San Lucas Tolimán	10	San Lucas Tolimán	8	Agosto	2023-08-27T00:00:00	2024-11-08T01:00:00	3	Temperatura mínima	18
143932	7	Sololá	713	San Lucas Tolimán	10	San Lucas Tolimán	8	Agosto	2023-08-27T00:00:00	2024-11-08T01:00:00	5	Humedad	65
143933	7	Sololá	713	San Lucas Tolimán	10	San Lucas Tolimán	8	Agosto	2023-08-27T00:00:00	2024-11-08T01:00:00	6	Velocidad del viento	3.2
143934	7	Sololá	713	San Lucas Tolimán	10	San Lucas Tolimán	8	Agosto	2023-08-27T00:00:00	2024-11-08T01:00:00	7	Dirección del viento	1.61
143935	7	Sololá	713	San Lucas Tolimán	10	San Lucas Tolimán	8	Agosto	2023-08-27T00:00:00	2024-11-08T01:00:00	1	Precipitación	0
143936	7	Sololá	713	San Lucas Tolimán	10	San Lucas Tolimán	8	Agosto	2023-08-27T00:00:00	2024-11-08T01:00:00	8	Radiación solar	0
143937	7	Sololá	713	San Lucas Tolimán	10	San Lucas Tolimán	8	Agosto	2023-08-27T00:00:00	2024-11-08T02:00:00	2	Temperatura media	17.7
143938	7	Sololá	713	San Lucas Tolimán	10	San Lucas Tolimán	8	Agosto	2023-08-27T00:00:00	2024-11-08T02:00:00	4	Temperatura máxima	18.1
143939	7	Sololá	713	San Lucas Tolimán	10	San Lucas Tolimán	8	Agosto	2023-08-27T00:00:00	2024-11-08T02:00:00	3	Temperatura mínima	17.7
143940	7	Sololá	713	San Lucas Tolimán	10	San Lucas Tolimán	8	Agosto	2023-08-27T00:00:00	2024-11-08T02:00:00	5	Humedad	65
143941	7	Sololá	713	San Lucas Tolimán	10	San Lucas Tolimán	8	Agosto	2023-08-27T00:00:00	2024-11-08T02:00:00	6	Velocidad del viento	3.2
143942	7	Sololá	713	San Lucas Tolimán	10	San Lucas Tolimán	8	Agosto	2023-08-27T00:00:00	2024-11-08T02:00:00	7	Dirección del viento	1.61
143943	7	Sololá	713	San Lucas Tolimán	10	San Lucas Tolimán	8	Agosto	2023-08-27T00:00:00	2024-11-08T02:00:00	1	Precipitación	0
143944	7	Sololá	713	San Lucas Tolimán	10	San Lucas Tolimán	8	Agosto	2023-08-27T00:00:00	2024-11-08T02:00:00	8	Radiación solar	0
143945	7	Sololá	713	San Lucas Tolimán	10	San Lucas Tolimán	8	Agosto	2023-08-27T00:00:00	2024-11-08T03:00:00	2	Temperatura media	17.9
143946	7	Sololá	713	San Lucas Tolimán	10	San Lucas Tolimán	8	Agosto	2023-08-27T00:00:00	2024-11-08T03:00:00	4	Temperatura máxima	18.1
143947	7	Sololá	713	San Lucas Tolimán	10	San Lucas Tolimán	8	Agosto	2023-08-27T00:00:00	2024-11-08T03:00:00	3	Temperatura mínima	17.7
143948	7	Sololá	713	San Lucas Tolimán	10	San Lucas Tolimán	8	Agosto	2023-08-27T00:00:00	2024-11-08T03:00:00	5	Humedad	64
143949	7	Sololá	713	San Lucas Tolimán	10	San Lucas Tolimán	8	Agosto	2023-08-27T00:00:00	2024-11-08T03:00:00	6	Velocidad del viento	3.2
143950	7	Sololá	713	San Lucas Tolimán	10	San Lucas Tolimán	8	Agosto	2023-08-27T00:00:00	2024-11-08T03:00:00	7	Dirección del viento	1.61
143951	7	Sololá	713	San Lucas Tolimán	10	San Lucas Tolimán	8	Agosto	2023-08-27T00:00:00	2024-11-08T03:00:00	1	Precipitación	0
143952	7	Sololá	713	San Lucas Tolimán	10	San Lucas Tolimán	8	Agosto	2023-08-27T00:00:00	2024-11-08T03:00:00	8	Radiación solar	0
143953	7	Sololá	713	San Lucas Tolimán	10	San Lucas Tolimán	8	Agosto	2023-08-27T00:00:00	2024-11-08T04:00:00	2	Temperatura media	17.6
143954	7	Sololá	713	San Lucas Tolimán	10	San Lucas Tolimán	8	Agosto	2023-08-27T00:00:00	2024-11-08T04:00:00	4	Temperatura máxima	17.9
143955	7	Sololá	713	San Lucas Tolimán	10	San Lucas Tolimán	8	Agosto	2023-08-27T00:00:00	2024-11-08T04:00:00	3	Temperatura mínima	17.6
143956	7	Sololá	713	San Lucas Tolimán	10	San Lucas Tolimán	8	Agosto	2023-08-27T00:00:00	2024-11-08T04:00:00	5	Humedad	65
143957	7	Sololá	713	San Lucas Tolimán	10	San Lucas Tolimán	8	Agosto	2023-08-27T00:00:00	2024-11-08T04:00:00	6	Velocidad del viento	1.6
143958	7	Sololá	713	San Lucas Tolimán	10	San Lucas Tolimán	8	Agosto	2023-08-27T00:00:00	2024-11-08T04:00:00	7	Dirección del viento	0.8
143959	7	Sololá	713	San Lucas Tolimán	10	San Lucas Tolimán	8	Agosto	2023-08-27T00:00:00	2024-11-08T04:00:00	1	Precipitación	0
143960	7	Sololá	713	San Lucas Tolimán	10	San Lucas Tolimán	8	Agosto	2023-08-27T00:00:00	2024-11-08T04:00:00	8	Radiación solar	0
143961	7	Sololá	713	San Lucas Tolimán	10	San Lucas Tolimán	8	Agosto	2023-08-27T00:00:00	2024-11-08T05:00:00	2	Temperatura media	17.5
143962	7	Sololá	713	San Lucas Tolimán	10	San Lucas Tolimán	8	Agosto	2023-08-27T00:00:00	2024-11-08T05:00:00	4	Temperatura máxima	17.7
143963	7	Sololá	713	San Lucas Tolimán	10	San Lucas Tolimán	8	Agosto	2023-08-27T00:00:00	2024-11-08T05:00:00	3	Temperatura mínima	17.4
143964	7	Sololá	713	San Lucas Tolimán	10	San Lucas Tolimán	8	Agosto	2023-08-27T00:00:00	2024-11-08T05:00:00	5	Humedad	65
143965	7	Sololá	713	San Lucas Tolimán	10	San Lucas Tolimán	8	Agosto	2023-08-27T00:00:00	2024-11-08T05:00:00	6	Velocidad del viento	0
143966	7	Sololá	713	San Lucas Tolimán	10	San Lucas Tolimán	8	Agosto	2023-08-27T00:00:00	2024-11-08T05:00:00	7	Dirección del viento	0
143967	7	Sololá	713	San Lucas Tolimán	10	San Lucas Tolimán	8	Agosto	2023-08-27T00:00:00	2024-11-08T05:00:00	1	Precipitación	0
143968	7	Sololá	713	San Lucas Tolimán	10	San Lucas Tolimán	8	Agosto	2023-08-27T00:00:00	2024-11-08T05:00:00	8	Radiación solar	0
143969	7	Sololá	713	San Lucas Tolimán	10	San Lucas Tolimán	8	Agosto	2023-08-27T00:00:00	2024-11-08T06:00:00	2	Temperatura media	17.3
143970	7	Sololá	713	San Lucas Tolimán	10	San Lucas Tolimán	8	Agosto	2023-08-27T00:00:00	2024-11-08T06:00:00	4	Temperatura máxima	17.6
143971	7	Sololá	713	San Lucas Tolimán	10	San Lucas Tolimán	8	Agosto	2023-08-27T00:00:00	2024-11-08T06:00:00	3	Temperatura mínima	17.2
143972	7	Sololá	713	San Lucas Tolimán	10	San Lucas Tolimán	8	Agosto	2023-08-27T00:00:00	2024-11-08T06:00:00	5	Humedad	65
143973	7	Sololá	713	San Lucas Tolimán	10	San Lucas Tolimán	8	Agosto	2023-08-27T00:00:00	2024-11-08T06:00:00	6	Velocidad del viento	1.6
143974	7	Sololá	713	San Lucas Tolimán	10	San Lucas Tolimán	8	Agosto	2023-08-27T00:00:00	2024-11-08T06:00:00	7	Dirección del viento	0.8
143975	7	Sololá	713	San Lucas Tolimán	10	San Lucas Tolimán	8	Agosto	2023-08-27T00:00:00	2024-11-08T06:00:00	1	Precipitación	0
143976	7	Sololá	713	San Lucas Tolimán	10	San Lucas Tolimán	8	Agosto	2023-08-27T00:00:00	2024-11-08T06:00:00	8	Radiación solar	0
143977	7	Sololá	713	San Lucas Tolimán	10	San Lucas Tolimán	8	Agosto	2023-08-27T00:00:00	2024-11-08T07:00:00	2	Temperatura media	17.6
143978	7	Sololá	713	San Lucas Tolimán	10	San Lucas Tolimán	8	Agosto	2023-08-27T00:00:00	2024-11-08T07:00:00	4	Temperatura máxima	17.6
143979	7	Sololá	713	San Lucas Tolimán	10	San Lucas Tolimán	8	Agosto	2023-08-27T00:00:00	2024-11-08T07:00:00	3	Temperatura mínima	17.1
143980	7	Sololá	713	San Lucas Tolimán	10	San Lucas Tolimán	8	Agosto	2023-08-27T00:00:00	2024-11-08T07:00:00	5	Humedad	65
143981	7	Sololá	713	San Lucas Tolimán	10	San Lucas Tolimán	8	Agosto	2023-08-27T00:00:00	2024-11-08T07:00:00	6	Velocidad del viento	0
143982	7	Sololá	713	San Lucas Tolimán	10	San Lucas Tolimán	8	Agosto	2023-08-27T00:00:00	2024-11-08T07:00:00	7	Dirección del viento	0
143983	7	Sololá	713	San Lucas Tolimán	10	San Lucas Tolimán	8	Agosto	2023-08-27T00:00:00	2024-11-08T07:00:00	1	Precipitación	0
143984	7	Sololá	713	San Lucas Tolimán	10	San Lucas Tolimán	8	Agosto	2023-08-27T00:00:00	2024-11-08T07:00:00	8	Radiación solar	62
143985	7	Sololá	713	San Lucas Tolimán	10	San Lucas Tolimán	8	Agosto	2023-08-27T00:00:00	2024-11-08T08:00:00	2	Temperatura media	20.8
143986	7	Sololá	713	San Lucas Tolimán	10	San Lucas Tolimán	8	Agosto	2023-08-27T00:00:00	2024-11-08T08:00:00	4	Temperatura máxima	20.9
143987	7	Sololá	713	San Lucas Tolimán	10	San Lucas Tolimán	8	Agosto	2023-08-27T00:00:00	2024-11-08T08:00:00	3	Temperatura mínima	19.2
143988	7	Sololá	713	San Lucas Tolimán	10	San Lucas Tolimán	8	Agosto	2023-08-27T00:00:00	2024-11-08T08:00:00	5	Humedad	61
143989	7	Sololá	713	San Lucas Tolimán	10	San Lucas Tolimán	8	Agosto	2023-08-27T00:00:00	2024-11-08T08:00:00	6	Velocidad del viento	1.6
143990	7	Sololá	713	San Lucas Tolimán	10	San Lucas Tolimán	8	Agosto	2023-08-27T00:00:00	2024-11-08T08:00:00	7	Dirección del viento	0.8
143991	7	Sololá	713	San Lucas Tolimán	10	San Lucas Tolimán	8	Agosto	2023-08-27T00:00:00	2024-11-08T08:00:00	1	Precipitación	0
143992	7	Sololá	713	San Lucas Tolimán	10	San Lucas Tolimán	8	Agosto	2023-08-27T00:00:00	2024-11-08T08:00:00	8	Radiación solar	320
143993	7	Sololá	713	San Lucas Tolimán	10	San Lucas Tolimán	8	Agosto	2023-08-27T00:00:00	2024-11-08T09:00:00	2	Temperatura media	21.8
143994	7	Sololá	713	San Lucas Tolimán	10	San Lucas Tolimán	8	Agosto	2023-08-27T00:00:00	2024-11-08T09:00:00	4	Temperatura máxima	22.1
143995	7	Sololá	713	San Lucas Tolimán	10	San Lucas Tolimán	8	Agosto	2023-08-27T00:00:00	2024-11-08T09:00:00	3	Temperatura mínima	20.4
143996	7	Sololá	713	San Lucas Tolimán	10	San Lucas Tolimán	8	Agosto	2023-08-27T00:00:00	2024-11-08T09:00:00	5	Humedad	59
143997	7	Sololá	713	San Lucas Tolimán	10	San Lucas Tolimán	8	Agosto	2023-08-27T00:00:00	2024-11-08T09:00:00	6	Velocidad del viento	4.8
143998	7	Sololá	713	San Lucas Tolimán	10	San Lucas Tolimán	8	Agosto	2023-08-27T00:00:00	2024-11-08T09:00:00	7	Dirección del viento	2.41
143999	7	Sololá	713	San Lucas Tolimán	10	San Lucas Tolimán	8	Agosto	2023-08-27T00:00:00	2024-11-08T09:00:00	1	Precipitación	0
144000	7	Sololá	713	San Lucas Tolimán	10	San Lucas Tolimán	8	Agosto	2023-08-27T00:00:00	2024-11-08T09:00:00	8	Radiación solar	481
144001	7	Sololá	713	San Lucas Tolimán	10	San Lucas Tolimán	8	Agosto	2023-08-27T00:00:00	2024-11-08T10:00:00	2	Temperatura media	22.6
144002	7	Sololá	713	San Lucas Tolimán	10	San Lucas Tolimán	8	Agosto	2023-08-27T00:00:00	2024-11-08T10:00:00	4	Temperatura máxima	23.2
144003	7	Sololá	713	San Lucas Tolimán	10	San Lucas Tolimán	8	Agosto	2023-08-27T00:00:00	2024-11-08T10:00:00	3	Temperatura mínima	21.5
144004	7	Sololá	713	San Lucas Tolimán	10	San Lucas Tolimán	8	Agosto	2023-08-27T00:00:00	2024-11-08T10:00:00	5	Humedad	58
144005	7	Sololá	713	San Lucas Tolimán	10	San Lucas Tolimán	8	Agosto	2023-08-27T00:00:00	2024-11-08T10:00:00	6	Velocidad del viento	9.7
144006	7	Sololá	713	San Lucas Tolimán	10	San Lucas Tolimán	8	Agosto	2023-08-27T00:00:00	2024-11-08T10:00:00	7	Dirección del viento	4.83
144007	7	Sololá	713	San Lucas Tolimán	10	San Lucas Tolimán	8	Agosto	2023-08-27T00:00:00	2024-11-08T10:00:00	1	Precipitación	0
144008	7	Sololá	713	San Lucas Tolimán	10	San Lucas Tolimán	8	Agosto	2023-08-27T00:00:00	2024-11-08T10:00:00	8	Radiación solar	1010
144009	7	Sololá	713	San Lucas Tolimán	10	San Lucas Tolimán	8	Agosto	2023-08-27T00:00:00	2024-11-08T11:00:00	2	Temperatura media	23.4
144010	7	Sololá	713	San Lucas Tolimán	10	San Lucas Tolimán	8	Agosto	2023-08-27T00:00:00	2024-11-08T11:00:00	4	Temperatura máxima	23.4
144011	7	Sololá	713	San Lucas Tolimán	10	San Lucas Tolimán	8	Agosto	2023-08-27T00:00:00	2024-11-08T11:00:00	3	Temperatura mínima	22.6
144012	7	Sololá	713	San Lucas Tolimán	10	San Lucas Tolimán	8	Agosto	2023-08-27T00:00:00	2024-11-08T11:00:00	5	Humedad	57
144013	7	Sololá	713	San Lucas Tolimán	10	San Lucas Tolimán	8	Agosto	2023-08-27T00:00:00	2024-11-08T11:00:00	6	Velocidad del viento	11.3
144014	7	Sololá	713	San Lucas Tolimán	10	San Lucas Tolimán	8	Agosto	2023-08-27T00:00:00	2024-11-08T11:00:00	7	Dirección del viento	11.27
144015	7	Sololá	713	San Lucas Tolimán	10	San Lucas Tolimán	8	Agosto	2023-08-27T00:00:00	2024-11-08T11:00:00	1	Precipitación	0
144016	7	Sololá	713	San Lucas Tolimán	10	San Lucas Tolimán	8	Agosto	2023-08-27T00:00:00	2024-11-08T11:00:00	8	Radiación solar	1078
144017	7	Sololá	713	San Lucas Tolimán	10	San Lucas Tolimán	8	Agosto	2023-08-27T00:00:00	2024-11-08T12:00:00	2	Temperatura media	22.9
144018	7	Sololá	713	San Lucas Tolimán	10	San Lucas Tolimán	8	Agosto	2023-08-27T00:00:00	2024-11-08T12:00:00	4	Temperatura máxima	24.1
144019	7	Sololá	713	San Lucas Tolimán	10	San Lucas Tolimán	8	Agosto	2023-08-27T00:00:00	2024-11-08T12:00:00	3	Temperatura mínima	22.5
144020	7	Sololá	713	San Lucas Tolimán	10	San Lucas Tolimán	8	Agosto	2023-08-27T00:00:00	2024-11-08T12:00:00	5	Humedad	59
144021	7	Sololá	713	San Lucas Tolimán	10	San Lucas Tolimán	8	Agosto	2023-08-27T00:00:00	2024-11-08T12:00:00	6	Velocidad del viento	11.3
144022	7	Sololá	713	San Lucas Tolimán	10	San Lucas Tolimán	8	Agosto	2023-08-27T00:00:00	2024-11-08T12:00:00	7	Dirección del viento	11.27
144023	7	Sololá	713	San Lucas Tolimán	10	San Lucas Tolimán	8	Agosto	2023-08-27T00:00:00	2024-11-08T12:00:00	1	Precipitación	0
144024	7	Sololá	713	San Lucas Tolimán	10	San Lucas Tolimán	8	Agosto	2023-08-27T00:00:00	2024-11-08T12:00:00	8	Radiación solar	960
144025	7	Sololá	713	San Lucas Tolimán	10	San Lucas Tolimán	8	Agosto	2023-08-27T00:00:00	2024-11-08T13:00:00	2	Temperatura media	23.9
144026	7	Sololá	713	San Lucas Tolimán	10	San Lucas Tolimán	8	Agosto	2023-08-27T00:00:00	2024-11-08T13:00:00	4	Temperatura máxima	24.2
144027	7	Sololá	713	San Lucas Tolimán	10	San Lucas Tolimán	8	Agosto	2023-08-27T00:00:00	2024-11-08T13:00:00	3	Temperatura mínima	22.4
144028	7	Sololá	713	San Lucas Tolimán	10	San Lucas Tolimán	8	Agosto	2023-08-27T00:00:00	2024-11-08T13:00:00	5	Humedad	56
144029	7	Sololá	713	San Lucas Tolimán	10	San Lucas Tolimán	8	Agosto	2023-08-27T00:00:00	2024-11-08T13:00:00	6	Velocidad del viento	9.7
144030	7	Sololá	713	San Lucas Tolimán	10	San Lucas Tolimán	8	Agosto	2023-08-27T00:00:00	2024-11-08T13:00:00	7	Dirección del viento	9.66
144031	7	Sololá	713	San Lucas Tolimán	10	San Lucas Tolimán	8	Agosto	2023-08-27T00:00:00	2024-11-08T13:00:00	1	Precipitación	0
144032	7	Sololá	713	San Lucas Tolimán	10	San Lucas Tolimán	8	Agosto	2023-08-27T00:00:00	2024-11-08T13:00:00	8	Radiación solar	1066
144033	7	Sololá	713	San Lucas Tolimán	10	San Lucas Tolimán	8	Agosto	2023-08-27T00:00:00	2024-11-08T14:00:00	2	Temperatura media	23.2
144034	7	Sololá	713	San Lucas Tolimán	10	San Lucas Tolimán	8	Agosto	2023-08-27T00:00:00	2024-11-08T14:00:00	4	Temperatura máxima	24.1
144035	7	Sololá	713	San Lucas Tolimán	10	San Lucas Tolimán	8	Agosto	2023-08-27T00:00:00	2024-11-08T14:00:00	3	Temperatura mínima	23.2
144036	7	Sololá	713	San Lucas Tolimán	10	San Lucas Tolimán	8	Agosto	2023-08-27T00:00:00	2024-11-08T14:00:00	5	Humedad	59
144037	7	Sololá	713	San Lucas Tolimán	10	San Lucas Tolimán	8	Agosto	2023-08-27T00:00:00	2024-11-08T14:00:00	6	Velocidad del viento	9.7
144038	7	Sololá	713	San Lucas Tolimán	10	San Lucas Tolimán	8	Agosto	2023-08-27T00:00:00	2024-11-08T14:00:00	7	Dirección del viento	9.66
144039	7	Sololá	713	San Lucas Tolimán	10	San Lucas Tolimán	8	Agosto	2023-08-27T00:00:00	2024-11-08T14:00:00	1	Precipitación	0
144040	7	Sololá	713	San Lucas Tolimán	10	San Lucas Tolimán	8	Agosto	2023-08-27T00:00:00	2024-11-08T14:00:00	8	Radiación solar	1011
144041	7	Sololá	713	San Lucas Tolimán	10	San Lucas Tolimán	8	Agosto	2023-08-27T00:00:00	2024-11-08T15:00:00	2	Temperatura media	22.8
144042	7	Sololá	713	San Lucas Tolimán	10	San Lucas Tolimán	8	Agosto	2023-08-27T00:00:00	2024-11-08T15:00:00	4	Temperatura máxima	23.3
144043	7	Sololá	713	San Lucas Tolimán	10	San Lucas Tolimán	8	Agosto	2023-08-27T00:00:00	2024-11-08T15:00:00	3	Temperatura mínima	22.6
144044	7	Sololá	713	San Lucas Tolimán	10	San Lucas Tolimán	8	Agosto	2023-08-27T00:00:00	2024-11-08T15:00:00	5	Humedad	61
144045	7	Sololá	713	San Lucas Tolimán	10	San Lucas Tolimán	8	Agosto	2023-08-27T00:00:00	2024-11-08T15:00:00	6	Velocidad del viento	9.7
144046	7	Sololá	713	San Lucas Tolimán	10	San Lucas Tolimán	8	Agosto	2023-08-27T00:00:00	2024-11-08T15:00:00	7	Dirección del viento	9.66
144047	7	Sololá	713	San Lucas Tolimán	10	San Lucas Tolimán	8	Agosto	2023-08-27T00:00:00	2024-11-08T15:00:00	1	Precipitación	0
144048	7	Sololá	713	San Lucas Tolimán	10	San Lucas Tolimán	8	Agosto	2023-08-27T00:00:00	2024-11-08T15:00:00	8	Radiación solar	517
144049	7	Sololá	713	San Lucas Tolimán	10	San Lucas Tolimán	8	Agosto	2023-08-27T00:00:00	2024-11-08T16:00:00	2	Temperatura media	22.6
144050	7	Sololá	713	San Lucas Tolimán	10	San Lucas Tolimán	8	Agosto	2023-08-27T00:00:00	2024-11-08T16:00:00	4	Temperatura máxima	23.2
144051	7	Sololá	713	San Lucas Tolimán	10	San Lucas Tolimán	8	Agosto	2023-08-27T00:00:00	2024-11-08T16:00:00	3	Temperatura mínima	22.2
144052	7	Sololá	713	San Lucas Tolimán	10	San Lucas Tolimán	8	Agosto	2023-08-27T00:00:00	2024-11-08T16:00:00	5	Humedad	62
144053	7	Sololá	713	San Lucas Tolimán	10	San Lucas Tolimán	8	Agosto	2023-08-27T00:00:00	2024-11-08T16:00:00	6	Velocidad del viento	8
144054	7	Sololá	713	San Lucas Tolimán	10	San Lucas Tolimán	8	Agosto	2023-08-27T00:00:00	2024-11-08T16:00:00	7	Dirección del viento	8.05
144055	7	Sololá	713	San Lucas Tolimán	10	San Lucas Tolimán	8	Agosto	2023-08-27T00:00:00	2024-11-08T16:00:00	1	Precipitación	0
144056	7	Sololá	713	San Lucas Tolimán	10	San Lucas Tolimán	8	Agosto	2023-08-27T00:00:00	2024-11-08T16:00:00	8	Radiación solar	390
144057	7	Sololá	713	San Lucas Tolimán	10	San Lucas Tolimán	8	Agosto	2023-08-27T00:00:00	2024-11-08T17:00:00	2	Temperatura media	21.3
144058	7	Sololá	713	San Lucas Tolimán	10	San Lucas Tolimán	8	Agosto	2023-08-27T00:00:00	2024-11-08T17:00:00	4	Temperatura máxima	22.6
144059	7	Sololá	713	San Lucas Tolimán	10	San Lucas Tolimán	8	Agosto	2023-08-27T00:00:00	2024-11-08T17:00:00	3	Temperatura mínima	21.3
144060	7	Sololá	713	San Lucas Tolimán	10	San Lucas Tolimán	8	Agosto	2023-08-27T00:00:00	2024-11-08T17:00:00	5	Humedad	64
144061	7	Sololá	713	San Lucas Tolimán	10	San Lucas Tolimán	8	Agosto	2023-08-27T00:00:00	2024-11-08T17:00:00	6	Velocidad del viento	6.4
144062	7	Sololá	713	San Lucas Tolimán	10	San Lucas Tolimán	8	Agosto	2023-08-27T00:00:00	2024-11-08T17:00:00	7	Dirección del viento	6.44
144063	7	Sololá	713	San Lucas Tolimán	10	San Lucas Tolimán	8	Agosto	2023-08-27T00:00:00	2024-11-08T17:00:00	1	Precipitación	0
144064	7	Sololá	713	San Lucas Tolimán	10	San Lucas Tolimán	8	Agosto	2023-08-27T00:00:00	2024-11-08T17:00:00	8	Radiación solar	145
144065	7	Sololá	713	San Lucas Tolimán	10	San Lucas Tolimán	8	Agosto	2023-08-27T00:00:00	2024-11-08T18:00:00	2	Temperatura media	20.9
144066	7	Sololá	713	San Lucas Tolimán	10	San Lucas Tolimán	8	Agosto	2023-08-27T00:00:00	2024-11-08T18:00:00	4	Temperatura máxima	21.3
144067	7	Sololá	713	San Lucas Tolimán	10	San Lucas Tolimán	8	Agosto	2023-08-27T00:00:00	2024-11-08T18:00:00	3	Temperatura mínima	20.9
144068	7	Sololá	713	San Lucas Tolimán	10	San Lucas Tolimán	8	Agosto	2023-08-27T00:00:00	2024-11-08T18:00:00	5	Humedad	64
144069	7	Sololá	713	San Lucas Tolimán	10	San Lucas Tolimán	8	Agosto	2023-08-27T00:00:00	2024-11-08T18:00:00	6	Velocidad del viento	6.4
144070	7	Sololá	713	San Lucas Tolimán	10	San Lucas Tolimán	8	Agosto	2023-08-27T00:00:00	2024-11-08T18:00:00	7	Dirección del viento	6.44
144071	7	Sololá	713	San Lucas Tolimán	10	San Lucas Tolimán	8	Agosto	2023-08-27T00:00:00	2024-11-08T18:00:00	1	Precipitación	0
144072	7	Sololá	713	San Lucas Tolimán	10	San Lucas Tolimán	8	Agosto	2023-08-27T00:00:00	2024-11-08T18:00:00	8	Radiación solar	90
144073	7	Sololá	713	San Lucas Tolimán	10	San Lucas Tolimán	8	Agosto	2023-08-27T00:00:00	2024-11-08T19:00:00	2	Temperatura media	20.8
144074	7	Sololá	713	San Lucas Tolimán	10	San Lucas Tolimán	8	Agosto	2023-08-27T00:00:00	2024-11-08T19:00:00	4	Temperatura máxima	21
144075	7	Sololá	713	San Lucas Tolimán	10	San Lucas Tolimán	8	Agosto	2023-08-27T00:00:00	2024-11-08T19:00:00	3	Temperatura mínima	20.8
144076	7	Sololá	713	San Lucas Tolimán	10	San Lucas Tolimán	8	Agosto	2023-08-27T00:00:00	2024-11-08T19:00:00	5	Humedad	65
144077	7	Sololá	713	San Lucas Tolimán	10	San Lucas Tolimán	8	Agosto	2023-08-27T00:00:00	2024-11-08T19:00:00	6	Velocidad del viento	4.8
144078	7	Sololá	713	San Lucas Tolimán	10	San Lucas Tolimán	8	Agosto	2023-08-27T00:00:00	2024-11-08T19:00:00	7	Dirección del viento	4.83
144079	7	Sololá	713	San Lucas Tolimán	10	San Lucas Tolimán	8	Agosto	2023-08-27T00:00:00	2024-11-08T19:00:00	1	Precipitación	0
144080	7	Sololá	713	San Lucas Tolimán	10	San Lucas Tolimán	8	Agosto	2023-08-27T00:00:00	2024-11-08T19:00:00	8	Radiación solar	0
144081	7	Sololá	713	San Lucas Tolimán	10	San Lucas Tolimán	8	Agosto	2023-08-27T00:00:00	2024-11-08T20:00:00	2	Temperatura media	20.3
144082	7	Sololá	713	San Lucas Tolimán	10	San Lucas Tolimán	8	Agosto	2023-08-27T00:00:00	2024-11-08T20:00:00	4	Temperatura máxima	20.8
144083	7	Sololá	713	San Lucas Tolimán	10	San Lucas Tolimán	8	Agosto	2023-08-27T00:00:00	2024-11-08T20:00:00	3	Temperatura mínima	20.3
144084	7	Sololá	713	San Lucas Tolimán	10	San Lucas Tolimán	8	Agosto	2023-08-27T00:00:00	2024-11-08T20:00:00	5	Humedad	64
144085	7	Sololá	713	San Lucas Tolimán	10	San Lucas Tolimán	8	Agosto	2023-08-27T00:00:00	2024-11-08T20:00:00	6	Velocidad del viento	4.8
144086	7	Sololá	713	San Lucas Tolimán	10	San Lucas Tolimán	8	Agosto	2023-08-27T00:00:00	2024-11-08T20:00:00	7	Dirección del viento	4.83
144087	7	Sololá	713	San Lucas Tolimán	10	San Lucas Tolimán	8	Agosto	2023-08-27T00:00:00	2024-11-08T20:00:00	1	Precipitación	0
144088	7	Sololá	713	San Lucas Tolimán	10	San Lucas Tolimán	8	Agosto	2023-08-27T00:00:00	2024-11-08T20:00:00	8	Radiación solar	0
144089	7	Sololá	713	San Lucas Tolimán	10	San Lucas Tolimán	8	Agosto	2023-08-27T00:00:00	2024-11-08T21:00:00	2	Temperatura media	18.2
144090	7	Sololá	713	San Lucas Tolimán	10	San Lucas Tolimán	8	Agosto	2023-08-27T00:00:00	2024-11-08T21:00:00	4	Temperatura máxima	20.2
144091	7	Sololá	713	San Lucas Tolimán	10	San Lucas Tolimán	8	Agosto	2023-08-27T00:00:00	2024-11-08T21:00:00	3	Temperatura mínima	18
144092	7	Sololá	713	San Lucas Tolimán	10	San Lucas Tolimán	8	Agosto	2023-08-27T00:00:00	2024-11-08T21:00:00	5	Humedad	65
144093	7	Sololá	713	San Lucas Tolimán	10	San Lucas Tolimán	8	Agosto	2023-08-27T00:00:00	2024-11-08T21:00:00	6	Velocidad del viento	9.7
144094	7	Sololá	713	San Lucas Tolimán	10	San Lucas Tolimán	8	Agosto	2023-08-27T00:00:00	2024-11-08T21:00:00	7	Dirección del viento	9.66
144095	7	Sololá	713	San Lucas Tolimán	10	San Lucas Tolimán	8	Agosto	2023-08-27T00:00:00	2024-11-08T21:00:00	1	Precipitación	0.2
144096	7	Sololá	713	San Lucas Tolimán	10	San Lucas Tolimán	8	Agosto	2023-08-27T00:00:00	2024-11-08T21:00:00	8	Radiación solar	0
144097	7	Sololá	713	San Lucas Tolimán	10	San Lucas Tolimán	8	Agosto	2023-08-27T00:00:00	2024-11-08T22:00:00	2	Temperatura media	17.9
144098	7	Sololá	713	San Lucas Tolimán	10	San Lucas Tolimán	8	Agosto	2023-08-27T00:00:00	2024-11-08T22:00:00	4	Temperatura máxima	18.3
144099	7	Sololá	713	San Lucas Tolimán	10	San Lucas Tolimán	8	Agosto	2023-08-27T00:00:00	2024-11-08T22:00:00	3	Temperatura mínima	17.8
144100	7	Sololá	713	San Lucas Tolimán	10	San Lucas Tolimán	8	Agosto	2023-08-27T00:00:00	2024-11-08T22:00:00	5	Humedad	64
144101	7	Sololá	713	San Lucas Tolimán	10	San Lucas Tolimán	8	Agosto	2023-08-27T00:00:00	2024-11-08T22:00:00	6	Velocidad del viento	1.6
144102	7	Sololá	713	San Lucas Tolimán	10	San Lucas Tolimán	8	Agosto	2023-08-27T00:00:00	2024-11-08T22:00:00	7	Dirección del viento	1.61
144103	7	Sololá	713	San Lucas Tolimán	10	San Lucas Tolimán	8	Agosto	2023-08-27T00:00:00	2024-11-08T22:00:00	1	Precipitación	1.4
144104	7	Sololá	713	San Lucas Tolimán	10	San Lucas Tolimán	8	Agosto	2023-08-27T00:00:00	2024-11-08T22:00:00	8	Radiación solar	0
144105	7	Sololá	713	San Lucas Tolimán	10	San Lucas Tolimán	8	Agosto	2023-08-27T00:00:00	2024-11-08T23:00:00	2	Temperatura media	17.8
144106	7	Sololá	713	San Lucas Tolimán	10	San Lucas Tolimán	8	Agosto	2023-08-27T00:00:00	2024-11-08T23:00:00	4	Temperatura máxima	17.9
144107	7	Sololá	713	San Lucas Tolimán	10	San Lucas Tolimán	8	Agosto	2023-08-27T00:00:00	2024-11-08T23:00:00	3	Temperatura mínima	17.6
144108	7	Sololá	713	San Lucas Tolimán	10	San Lucas Tolimán	8	Agosto	2023-08-27T00:00:00	2024-11-08T23:00:00	5	Humedad	65
144109	7	Sololá	713	San Lucas Tolimán	10	San Lucas Tolimán	8	Agosto	2023-08-27T00:00:00	2024-11-08T23:00:00	6	Velocidad del viento	1.6
144110	7	Sololá	713	San Lucas Tolimán	10	San Lucas Tolimán	8	Agosto	2023-08-27T00:00:00	2024-11-08T23:00:00	7	Dirección del viento	1.61
144111	7	Sololá	713	San Lucas Tolimán	10	San Lucas Tolimán	8	Agosto	2023-08-27T00:00:00	2024-11-08T23:00:00	1	Precipitación	0.6
144112	7	Sololá	713	San Lucas Tolimán	10	San Lucas Tolimán	8	Agosto	2023-08-27T00:00:00	2024-11-08T23:00:00	8	Radiación solar	0
144113	7	Sololá	713	San Lucas Tolimán	10	San Lucas Tolimán	8	Agosto	2023-08-28T00:00:00	2024-11-08T00:00:00	2	Temperatura media	17.9
144114	7	Sololá	713	San Lucas Tolimán	10	San Lucas Tolimán	8	Agosto	2023-08-28T00:00:00	2024-11-08T00:00:00	4	Temperatura máxima	18.1
144115	7	Sololá	713	San Lucas Tolimán	10	San Lucas Tolimán	8	Agosto	2023-08-28T00:00:00	2024-11-08T00:00:00	3	Temperatura mínima	17.8
144116	7	Sololá	713	San Lucas Tolimán	10	San Lucas Tolimán	8	Agosto	2023-08-28T00:00:00	2024-11-08T00:00:00	5	Humedad	65
144117	7	Sololá	713	San Lucas Tolimán	10	San Lucas Tolimán	8	Agosto	2023-08-28T00:00:00	2024-11-08T00:00:00	6	Velocidad del viento	4.8
144118	7	Sololá	713	San Lucas Tolimán	10	San Lucas Tolimán	8	Agosto	2023-08-28T00:00:00	2024-11-08T00:00:00	7	Dirección del viento	4.83
144119	7	Sololá	713	San Lucas Tolimán	10	San Lucas Tolimán	8	Agosto	2023-08-28T00:00:00	2024-11-08T00:00:00	1	Precipitación	0.6
144120	7	Sololá	713	San Lucas Tolimán	10	San Lucas Tolimán	8	Agosto	2023-08-28T00:00:00	2024-11-08T00:00:00	8	Radiación solar	0
144121	7	Sololá	713	San Lucas Tolimán	10	San Lucas Tolimán	8	Agosto	2023-08-28T00:00:00	2024-11-08T01:00:00	2	Temperatura media	17.5
144122	7	Sololá	713	San Lucas Tolimán	10	San Lucas Tolimán	8	Agosto	2023-08-28T00:00:00	2024-11-08T01:00:00	4	Temperatura máxima	17.9
144123	7	Sololá	713	San Lucas Tolimán	10	San Lucas Tolimán	8	Agosto	2023-08-28T00:00:00	2024-11-08T01:00:00	3	Temperatura mínima	17.5
144124	7	Sololá	713	San Lucas Tolimán	10	San Lucas Tolimán	8	Agosto	2023-08-28T00:00:00	2024-11-08T01:00:00	5	Humedad	67
144125	7	Sololá	713	San Lucas Tolimán	10	San Lucas Tolimán	8	Agosto	2023-08-28T00:00:00	2024-11-08T01:00:00	6	Velocidad del viento	6.4
144126	7	Sololá	713	San Lucas Tolimán	10	San Lucas Tolimán	8	Agosto	2023-08-28T00:00:00	2024-11-08T01:00:00	7	Dirección del viento	6.44
144127	7	Sololá	713	San Lucas Tolimán	10	San Lucas Tolimán	8	Agosto	2023-08-28T00:00:00	2024-11-08T01:00:00	1	Precipitación	0.8
144128	7	Sololá	713	San Lucas Tolimán	10	San Lucas Tolimán	8	Agosto	2023-08-28T00:00:00	2024-11-08T01:00:00	8	Radiación solar	0
144129	7	Sololá	713	San Lucas Tolimán	10	San Lucas Tolimán	8	Agosto	2023-08-28T00:00:00	2024-11-08T02:00:00	2	Temperatura media	17.3
144130	7	Sololá	713	San Lucas Tolimán	10	San Lucas Tolimán	8	Agosto	2023-08-28T00:00:00	2024-11-08T02:00:00	4	Temperatura máxima	17.5
144131	7	Sololá	713	San Lucas Tolimán	10	San Lucas Tolimán	8	Agosto	2023-08-28T00:00:00	2024-11-08T02:00:00	3	Temperatura mínima	17.2
144132	7	Sololá	713	San Lucas Tolimán	10	San Lucas Tolimán	8	Agosto	2023-08-28T00:00:00	2024-11-08T02:00:00	5	Humedad	65
144133	7	Sololá	713	San Lucas Tolimán	10	San Lucas Tolimán	8	Agosto	2023-08-28T00:00:00	2024-11-08T02:00:00	6	Velocidad del viento	9.7
144134	7	Sololá	713	San Lucas Tolimán	10	San Lucas Tolimán	8	Agosto	2023-08-28T00:00:00	2024-11-08T02:00:00	7	Dirección del viento	9.66
144135	7	Sololá	713	San Lucas Tolimán	10	San Lucas Tolimán	8	Agosto	2023-08-28T00:00:00	2024-11-08T02:00:00	1	Precipitación	6.4
144136	7	Sololá	713	San Lucas Tolimán	10	San Lucas Tolimán	8	Agosto	2023-08-28T00:00:00	2024-11-08T02:00:00	8	Radiación solar	0
144137	7	Sololá	713	San Lucas Tolimán	10	San Lucas Tolimán	8	Agosto	2023-08-28T00:00:00	2024-11-08T03:00:00	2	Temperatura media	17.2
144138	7	Sololá	713	San Lucas Tolimán	10	San Lucas Tolimán	8	Agosto	2023-08-28T00:00:00	2024-11-08T03:00:00	4	Temperatura máxima	17.3
144139	7	Sololá	713	San Lucas Tolimán	10	San Lucas Tolimán	8	Agosto	2023-08-28T00:00:00	2024-11-08T03:00:00	3	Temperatura mínima	17.1
144140	7	Sololá	713	San Lucas Tolimán	10	San Lucas Tolimán	8	Agosto	2023-08-28T00:00:00	2024-11-08T03:00:00	5	Humedad	67
144141	7	Sololá	713	San Lucas Tolimán	10	San Lucas Tolimán	8	Agosto	2023-08-28T00:00:00	2024-11-08T03:00:00	6	Velocidad del viento	3.2
144142	7	Sololá	713	San Lucas Tolimán	10	San Lucas Tolimán	8	Agosto	2023-08-28T00:00:00	2024-11-08T03:00:00	7	Dirección del viento	3.22
144143	7	Sololá	713	San Lucas Tolimán	10	San Lucas Tolimán	8	Agosto	2023-08-28T00:00:00	2024-11-08T03:00:00	1	Precipitación	0
144144	7	Sololá	713	San Lucas Tolimán	10	San Lucas Tolimán	8	Agosto	2023-08-28T00:00:00	2024-11-08T03:00:00	8	Radiación solar	0
144145	7	Sololá	713	San Lucas Tolimán	10	San Lucas Tolimán	8	Agosto	2023-08-28T00:00:00	2024-11-08T04:00:00	2	Temperatura media	17.4
144146	7	Sololá	713	San Lucas Tolimán	10	San Lucas Tolimán	8	Agosto	2023-08-28T00:00:00	2024-11-08T04:00:00	4	Temperatura máxima	17.5
144147	7	Sololá	713	San Lucas Tolimán	10	San Lucas Tolimán	8	Agosto	2023-08-28T00:00:00	2024-11-08T04:00:00	3	Temperatura mínima	17
144148	7	Sololá	713	San Lucas Tolimán	10	San Lucas Tolimán	8	Agosto	2023-08-28T00:00:00	2024-11-08T04:00:00	5	Humedad	65
144149	7	Sololá	713	San Lucas Tolimán	10	San Lucas Tolimán	8	Agosto	2023-08-28T00:00:00	2024-11-08T04:00:00	6	Velocidad del viento	6.4
144150	7	Sololá	713	San Lucas Tolimán	10	San Lucas Tolimán	8	Agosto	2023-08-28T00:00:00	2024-11-08T04:00:00	7	Dirección del viento	6.44
144151	7	Sololá	713	San Lucas Tolimán	10	San Lucas Tolimán	8	Agosto	2023-08-28T00:00:00	2024-11-08T04:00:00	1	Precipitación	0
144152	7	Sololá	713	San Lucas Tolimán	10	San Lucas Tolimán	8	Agosto	2023-08-28T00:00:00	2024-11-08T04:00:00	8	Radiación solar	0
144153	7	Sololá	713	San Lucas Tolimán	10	San Lucas Tolimán	8	Agosto	2023-08-28T00:00:00	2024-11-08T05:00:00	2	Temperatura media	17.6
144154	7	Sololá	713	San Lucas Tolimán	10	San Lucas Tolimán	8	Agosto	2023-08-28T00:00:00	2024-11-08T05:00:00	4	Temperatura máxima	17.6
144155	7	Sololá	713	San Lucas Tolimán	10	San Lucas Tolimán	8	Agosto	2023-08-28T00:00:00	2024-11-08T05:00:00	3	Temperatura mínima	17.3
144156	7	Sololá	713	San Lucas Tolimán	10	San Lucas Tolimán	8	Agosto	2023-08-28T00:00:00	2024-11-08T05:00:00	5	Humedad	65
144157	7	Sololá	713	San Lucas Tolimán	10	San Lucas Tolimán	8	Agosto	2023-08-28T00:00:00	2024-11-08T05:00:00	6	Velocidad del viento	1.6
144158	7	Sololá	713	San Lucas Tolimán	10	San Lucas Tolimán	8	Agosto	2023-08-28T00:00:00	2024-11-08T05:00:00	7	Dirección del viento	1.61
144159	7	Sololá	713	San Lucas Tolimán	10	San Lucas Tolimán	8	Agosto	2023-08-28T00:00:00	2024-11-08T05:00:00	1	Precipitación	0
144160	7	Sololá	713	San Lucas Tolimán	10	San Lucas Tolimán	8	Agosto	2023-08-28T00:00:00	2024-11-08T05:00:00	8	Radiación solar	0
144161	7	Sololá	713	San Lucas Tolimán	10	San Lucas Tolimán	8	Agosto	2023-08-28T00:00:00	2024-11-08T06:00:00	2	Temperatura media	17.2
144162	7	Sololá	713	San Lucas Tolimán	10	San Lucas Tolimán	8	Agosto	2023-08-28T00:00:00	2024-11-08T06:00:00	4	Temperatura máxima	17.6
144163	7	Sololá	713	San Lucas Tolimán	10	San Lucas Tolimán	8	Agosto	2023-08-28T00:00:00	2024-11-08T06:00:00	3	Temperatura mínima	17.1
144164	7	Sololá	713	San Lucas Tolimán	10	San Lucas Tolimán	8	Agosto	2023-08-28T00:00:00	2024-11-08T06:00:00	5	Humedad	66
144165	7	Sololá	713	San Lucas Tolimán	10	San Lucas Tolimán	8	Agosto	2023-08-28T00:00:00	2024-11-08T06:00:00	6	Velocidad del viento	1.6
144166	7	Sololá	713	San Lucas Tolimán	10	San Lucas Tolimán	8	Agosto	2023-08-28T00:00:00	2024-11-08T06:00:00	7	Dirección del viento	1.61
144167	7	Sololá	713	San Lucas Tolimán	10	San Lucas Tolimán	8	Agosto	2023-08-28T00:00:00	2024-11-08T06:00:00	1	Precipitación	0
144168	7	Sololá	713	San Lucas Tolimán	10	San Lucas Tolimán	8	Agosto	2023-08-28T00:00:00	2024-11-08T06:00:00	8	Radiación solar	0
144169	7	Sololá	713	San Lucas Tolimán	10	San Lucas Tolimán	8	Agosto	2023-08-28T00:00:00	2024-11-08T07:00:00	2	Temperatura media	17.5
144170	7	Sololá	713	San Lucas Tolimán	10	San Lucas Tolimán	8	Agosto	2023-08-28T00:00:00	2024-11-08T07:00:00	4	Temperatura máxima	17.5
144171	7	Sololá	713	San Lucas Tolimán	10	San Lucas Tolimán	8	Agosto	2023-08-28T00:00:00	2024-11-08T07:00:00	3	Temperatura mínima	17.1
144172	7	Sololá	713	San Lucas Tolimán	10	San Lucas Tolimán	8	Agosto	2023-08-28T00:00:00	2024-11-08T07:00:00	5	Humedad	66
144173	7	Sololá	713	San Lucas Tolimán	10	San Lucas Tolimán	8	Agosto	2023-08-28T00:00:00	2024-11-08T07:00:00	6	Velocidad del viento	1.6
144174	7	Sololá	713	San Lucas Tolimán	10	San Lucas Tolimán	8	Agosto	2023-08-28T00:00:00	2024-11-08T07:00:00	7	Dirección del viento	1.61
144175	7	Sololá	713	San Lucas Tolimán	10	San Lucas Tolimán	8	Agosto	2023-08-28T00:00:00	2024-11-08T07:00:00	1	Precipitación	0
144176	7	Sololá	713	San Lucas Tolimán	10	San Lucas Tolimán	8	Agosto	2023-08-28T00:00:00	2024-11-08T07:00:00	8	Radiación solar	41
144177	7	Sololá	713	San Lucas Tolimán	10	San Lucas Tolimán	8	Agosto	2023-08-28T00:00:00	2024-11-08T08:00:00	2	Temperatura media	20.9
144178	7	Sololá	713	San Lucas Tolimán	10	San Lucas Tolimán	8	Agosto	2023-08-28T00:00:00	2024-11-08T08:00:00	4	Temperatura máxima	20.9
144179	7	Sololá	713	San Lucas Tolimán	10	San Lucas Tolimán	8	Agosto	2023-08-28T00:00:00	2024-11-08T08:00:00	3	Temperatura mínima	17.5
144180	7	Sololá	713	San Lucas Tolimán	10	San Lucas Tolimán	8	Agosto	2023-08-28T00:00:00	2024-11-08T08:00:00	5	Humedad	61
144181	7	Sololá	713	San Lucas Tolimán	10	San Lucas Tolimán	8	Agosto	2023-08-28T00:00:00	2024-11-08T08:00:00	6	Velocidad del viento	1.6
144182	7	Sololá	713	San Lucas Tolimán	10	San Lucas Tolimán	8	Agosto	2023-08-28T00:00:00	2024-11-08T08:00:00	7	Dirección del viento	1.61
144183	7	Sololá	713	San Lucas Tolimán	10	San Lucas Tolimán	8	Agosto	2023-08-28T00:00:00	2024-11-08T08:00:00	1	Precipitación	0
144184	7	Sololá	713	San Lucas Tolimán	10	San Lucas Tolimán	8	Agosto	2023-08-28T00:00:00	2024-11-08T08:00:00	8	Radiación solar	362
144185	7	Sololá	713	San Lucas Tolimán	10	San Lucas Tolimán	8	Agosto	2023-08-28T00:00:00	2024-11-08T09:00:00	2	Temperatura media	20.2
144186	7	Sololá	713	San Lucas Tolimán	10	San Lucas Tolimán	8	Agosto	2023-08-28T00:00:00	2024-11-08T09:00:00	4	Temperatura máxima	21.6
144187	7	Sololá	713	San Lucas Tolimán	10	San Lucas Tolimán	8	Agosto	2023-08-28T00:00:00	2024-11-08T09:00:00	3	Temperatura mínima	20.2
144188	7	Sololá	713	San Lucas Tolimán	10	San Lucas Tolimán	8	Agosto	2023-08-28T00:00:00	2024-11-08T09:00:00	5	Humedad	61
144189	7	Sololá	713	San Lucas Tolimán	10	San Lucas Tolimán	8	Agosto	2023-08-28T00:00:00	2024-11-08T09:00:00	6	Velocidad del viento	4.8
144190	7	Sololá	713	San Lucas Tolimán	10	San Lucas Tolimán	8	Agosto	2023-08-28T00:00:00	2024-11-08T09:00:00	7	Dirección del viento	4.83
144191	7	Sololá	713	San Lucas Tolimán	10	San Lucas Tolimán	8	Agosto	2023-08-28T00:00:00	2024-11-08T09:00:00	1	Precipitación	0
144192	7	Sololá	713	San Lucas Tolimán	10	San Lucas Tolimán	8	Agosto	2023-08-28T00:00:00	2024-11-08T09:00:00	8	Radiación solar	423
144193	7	Sololá	713	San Lucas Tolimán	10	San Lucas Tolimán	8	Agosto	2023-08-28T00:00:00	2024-11-08T10:00:00	2	Temperatura media	21.7
144194	7	Sololá	713	San Lucas Tolimán	10	San Lucas Tolimán	8	Agosto	2023-08-28T00:00:00	2024-11-08T10:00:00	4	Temperatura máxima	21.7
144195	7	Sololá	713	San Lucas Tolimán	10	San Lucas Tolimán	8	Agosto	2023-08-28T00:00:00	2024-11-08T10:00:00	3	Temperatura mínima	20.2
144196	7	Sololá	713	San Lucas Tolimán	10	San Lucas Tolimán	8	Agosto	2023-08-28T00:00:00	2024-11-08T10:00:00	5	Humedad	58
144197	7	Sololá	713	San Lucas Tolimán	10	San Lucas Tolimán	8	Agosto	2023-08-28T00:00:00	2024-11-08T10:00:00	6	Velocidad del viento	4.8
144198	7	Sololá	713	San Lucas Tolimán	10	San Lucas Tolimán	8	Agosto	2023-08-28T00:00:00	2024-11-08T10:00:00	7	Dirección del viento	4.83
144199	7	Sololá	713	San Lucas Tolimán	10	San Lucas Tolimán	8	Agosto	2023-08-28T00:00:00	2024-11-08T10:00:00	1	Precipitación	0
144200	7	Sololá	713	San Lucas Tolimán	10	San Lucas Tolimán	8	Agosto	2023-08-28T00:00:00	2024-11-08T10:00:00	8	Radiación solar	446
144201	7	Sololá	713	San Lucas Tolimán	10	San Lucas Tolimán	8	Agosto	2023-08-28T00:00:00	2024-11-08T11:00:00	2	Temperatura media	22.3
144202	7	Sololá	713	San Lucas Tolimán	10	San Lucas Tolimán	8	Agosto	2023-08-28T00:00:00	2024-11-08T11:00:00	4	Temperatura máxima	23.1
144203	7	Sololá	713	San Lucas Tolimán	10	San Lucas Tolimán	8	Agosto	2023-08-28T00:00:00	2024-11-08T11:00:00	3	Temperatura mínima	21.6
144204	7	Sololá	713	San Lucas Tolimán	10	San Lucas Tolimán	8	Agosto	2023-08-28T00:00:00	2024-11-08T11:00:00	5	Humedad	60
144205	7	Sololá	713	San Lucas Tolimán	10	San Lucas Tolimán	8	Agosto	2023-08-28T00:00:00	2024-11-08T11:00:00	6	Velocidad del viento	8
144206	7	Sololá	713	San Lucas Tolimán	10	San Lucas Tolimán	8	Agosto	2023-08-28T00:00:00	2024-11-08T11:00:00	7	Dirección del viento	8.05
144207	7	Sololá	713	San Lucas Tolimán	10	San Lucas Tolimán	8	Agosto	2023-08-28T00:00:00	2024-11-08T11:00:00	1	Precipitación	0
144208	7	Sololá	713	San Lucas Tolimán	10	San Lucas Tolimán	8	Agosto	2023-08-28T00:00:00	2024-11-08T11:00:00	8	Radiación solar	797
144209	7	Sololá	713	San Lucas Tolimán	10	San Lucas Tolimán	8	Agosto	2023-08-28T00:00:00	2024-11-08T12:00:00	2	Temperatura media	22.5
144210	7	Sololá	713	San Lucas Tolimán	10	San Lucas Tolimán	8	Agosto	2023-08-28T00:00:00	2024-11-08T12:00:00	4	Temperatura máxima	23.1
144211	7	Sololá	713	San Lucas Tolimán	10	San Lucas Tolimán	8	Agosto	2023-08-28T00:00:00	2024-11-08T12:00:00	3	Temperatura mínima	21.9
144212	7	Sololá	713	San Lucas Tolimán	10	San Lucas Tolimán	8	Agosto	2023-08-28T00:00:00	2024-11-08T12:00:00	5	Humedad	58
144213	7	Sololá	713	San Lucas Tolimán	10	San Lucas Tolimán	8	Agosto	2023-08-28T00:00:00	2024-11-08T12:00:00	6	Velocidad del viento	9.7
144214	7	Sololá	713	San Lucas Tolimán	10	San Lucas Tolimán	8	Agosto	2023-08-28T00:00:00	2024-11-08T12:00:00	7	Dirección del viento	9.66
144215	7	Sololá	713	San Lucas Tolimán	10	San Lucas Tolimán	8	Agosto	2023-08-28T00:00:00	2024-11-08T12:00:00	1	Precipitación	0
144216	7	Sololá	713	San Lucas Tolimán	10	San Lucas Tolimán	8	Agosto	2023-08-28T00:00:00	2024-11-08T12:00:00	8	Radiación solar	1154
144217	7	Sololá	713	San Lucas Tolimán	10	San Lucas Tolimán	8	Agosto	2023-08-28T00:00:00	2024-11-08T13:00:00	2	Temperatura media	20.8
144218	7	Sololá	713	San Lucas Tolimán	10	San Lucas Tolimán	8	Agosto	2023-08-28T00:00:00	2024-11-08T13:00:00	4	Temperatura máxima	22.6
144219	7	Sololá	713	San Lucas Tolimán	10	San Lucas Tolimán	8	Agosto	2023-08-28T00:00:00	2024-11-08T13:00:00	3	Temperatura mínima	20.7
144220	7	Sololá	713	San Lucas Tolimán	10	San Lucas Tolimán	8	Agosto	2023-08-28T00:00:00	2024-11-08T13:00:00	5	Humedad	64
144221	7	Sololá	713	San Lucas Tolimán	10	San Lucas Tolimán	8	Agosto	2023-08-28T00:00:00	2024-11-08T13:00:00	6	Velocidad del viento	9.7
144222	7	Sololá	713	San Lucas Tolimán	10	San Lucas Tolimán	8	Agosto	2023-08-28T00:00:00	2024-11-08T13:00:00	7	Dirección del viento	9.66
144223	7	Sololá	713	San Lucas Tolimán	10	San Lucas Tolimán	8	Agosto	2023-08-28T00:00:00	2024-11-08T13:00:00	1	Precipitación	0
144224	7	Sololá	713	San Lucas Tolimán	10	San Lucas Tolimán	8	Agosto	2023-08-28T00:00:00	2024-11-08T13:00:00	8	Radiación solar	525
144225	7	Sololá	713	San Lucas Tolimán	10	San Lucas Tolimán	8	Agosto	2023-08-28T00:00:00	2024-11-08T14:00:00	2	Temperatura media	20.5
144226	7	Sololá	713	San Lucas Tolimán	10	San Lucas Tolimán	8	Agosto	2023-08-28T00:00:00	2024-11-08T14:00:00	4	Temperatura máxima	21.2
144227	7	Sololá	713	San Lucas Tolimán	10	San Lucas Tolimán	8	Agosto	2023-08-28T00:00:00	2024-11-08T14:00:00	3	Temperatura mínima	20.5
144228	7	Sololá	713	San Lucas Tolimán	10	San Lucas Tolimán	8	Agosto	2023-08-28T00:00:00	2024-11-08T14:00:00	5	Humedad	64
144229	7	Sololá	713	San Lucas Tolimán	10	San Lucas Tolimán	8	Agosto	2023-08-28T00:00:00	2024-11-08T14:00:00	6	Velocidad del viento	9.7
144230	7	Sololá	713	San Lucas Tolimán	10	San Lucas Tolimán	8	Agosto	2023-08-28T00:00:00	2024-11-08T14:00:00	7	Dirección del viento	9.66
144231	7	Sololá	713	San Lucas Tolimán	10	San Lucas Tolimán	8	Agosto	2023-08-28T00:00:00	2024-11-08T14:00:00	1	Precipitación	0
144232	7	Sololá	713	San Lucas Tolimán	10	San Lucas Tolimán	8	Agosto	2023-08-28T00:00:00	2024-11-08T14:00:00	8	Radiación solar	365
144233	7	Sololá	713	San Lucas Tolimán	10	San Lucas Tolimán	8	Agosto	2023-08-28T00:00:00	2024-11-08T15:00:00	2	Temperatura media	20.1
144234	7	Sololá	713	San Lucas Tolimán	10	San Lucas Tolimán	8	Agosto	2023-08-28T00:00:00	2024-11-08T15:00:00	4	Temperatura máxima	20.6
144235	7	Sololá	713	San Lucas Tolimán	10	San Lucas Tolimán	8	Agosto	2023-08-28T00:00:00	2024-11-08T15:00:00	3	Temperatura mínima	19.8
144236	7	Sololá	713	San Lucas Tolimán	10	San Lucas Tolimán	8	Agosto	2023-08-28T00:00:00	2024-11-08T15:00:00	5	Humedad	63
144237	7	Sololá	713	San Lucas Tolimán	10	San Lucas Tolimán	8	Agosto	2023-08-28T00:00:00	2024-11-08T15:00:00	6	Velocidad del viento	9.7
144238	7	Sololá	713	San Lucas Tolimán	10	San Lucas Tolimán	8	Agosto	2023-08-28T00:00:00	2024-11-08T15:00:00	7	Dirección del viento	9.66
144239	7	Sololá	713	San Lucas Tolimán	10	San Lucas Tolimán	8	Agosto	2023-08-28T00:00:00	2024-11-08T15:00:00	1	Precipitación	0
144240	7	Sololá	713	San Lucas Tolimán	10	San Lucas Tolimán	8	Agosto	2023-08-28T00:00:00	2024-11-08T15:00:00	8	Radiación solar	166
144241	7	Sololá	713	San Lucas Tolimán	10	San Lucas Tolimán	8	Agosto	2023-08-28T00:00:00	2024-11-08T16:00:00	2	Temperatura media	18.7
144242	7	Sololá	713	San Lucas Tolimán	10	San Lucas Tolimán	8	Agosto	2023-08-28T00:00:00	2024-11-08T16:00:00	4	Temperatura máxima	20.2
144243	7	Sololá	713	San Lucas Tolimán	10	San Lucas Tolimán	8	Agosto	2023-08-28T00:00:00	2024-11-08T16:00:00	3	Temperatura mínima	18.7
144244	7	Sololá	713	San Lucas Tolimán	10	San Lucas Tolimán	8	Agosto	2023-08-28T00:00:00	2024-11-08T16:00:00	5	Humedad	64
144245	7	Sololá	713	San Lucas Tolimán	10	San Lucas Tolimán	8	Agosto	2023-08-28T00:00:00	2024-11-08T16:00:00	6	Velocidad del viento	4.8
144246	7	Sololá	713	San Lucas Tolimán	10	San Lucas Tolimán	8	Agosto	2023-08-28T00:00:00	2024-11-08T16:00:00	7	Dirección del viento	4.83
144247	7	Sololá	713	San Lucas Tolimán	10	San Lucas Tolimán	8	Agosto	2023-08-28T00:00:00	2024-11-08T16:00:00	1	Precipitación	13.4
144248	7	Sololá	713	San Lucas Tolimán	10	San Lucas Tolimán	8	Agosto	2023-08-28T00:00:00	2024-11-08T16:00:00	8	Radiación solar	34
144249	7	Sololá	713	San Lucas Tolimán	10	San Lucas Tolimán	8	Agosto	2023-08-28T00:00:00	2024-11-08T17:00:00	2	Temperatura media	18.5
144250	7	Sololá	713	San Lucas Tolimán	10	San Lucas Tolimán	8	Agosto	2023-08-28T00:00:00	2024-11-08T17:00:00	4	Temperatura máxima	18.7
144251	7	Sololá	713	San Lucas Tolimán	10	San Lucas Tolimán	8	Agosto	2023-08-28T00:00:00	2024-11-08T17:00:00	3	Temperatura mínima	18.3
144252	7	Sololá	713	San Lucas Tolimán	10	San Lucas Tolimán	8	Agosto	2023-08-28T00:00:00	2024-11-08T17:00:00	5	Humedad	67
144253	7	Sololá	713	San Lucas Tolimán	10	San Lucas Tolimán	8	Agosto	2023-08-28T00:00:00	2024-11-08T17:00:00	6	Velocidad del viento	1.6
144254	7	Sololá	713	San Lucas Tolimán	10	San Lucas Tolimán	8	Agosto	2023-08-28T00:00:00	2024-11-08T17:00:00	7	Dirección del viento	1.61
144255	7	Sololá	713	San Lucas Tolimán	10	San Lucas Tolimán	8	Agosto	2023-08-28T00:00:00	2024-11-08T17:00:00	1	Precipitación	14
144256	7	Sololá	713	San Lucas Tolimán	10	San Lucas Tolimán	8	Agosto	2023-08-28T00:00:00	2024-11-08T17:00:00	8	Radiación solar	13
144257	7	Sololá	713	San Lucas Tolimán	10	San Lucas Tolimán	8	Agosto	2023-08-28T00:00:00	2024-11-08T18:00:00	2	Temperatura media	18.4
144258	7	Sololá	713	San Lucas Tolimán	10	San Lucas Tolimán	8	Agosto	2023-08-28T00:00:00	2024-11-08T18:00:00	4	Temperatura máxima	18.5
144259	7	Sololá	713	San Lucas Tolimán	10	San Lucas Tolimán	8	Agosto	2023-08-28T00:00:00	2024-11-08T18:00:00	3	Temperatura mínima	18.2
144260	7	Sololá	713	San Lucas Tolimán	10	San Lucas Tolimán	8	Agosto	2023-08-28T00:00:00	2024-11-08T18:00:00	5	Humedad	68
144261	7	Sololá	713	San Lucas Tolimán	10	San Lucas Tolimán	8	Agosto	2023-08-28T00:00:00	2024-11-08T18:00:00	6	Velocidad del viento	3.2
144262	7	Sololá	713	San Lucas Tolimán	10	San Lucas Tolimán	8	Agosto	2023-08-28T00:00:00	2024-11-08T18:00:00	7	Dirección del viento	3.22
144263	7	Sololá	713	San Lucas Tolimán	10	San Lucas Tolimán	8	Agosto	2023-08-28T00:00:00	2024-11-08T18:00:00	1	Precipitación	3
144264	7	Sololá	713	San Lucas Tolimán	10	San Lucas Tolimán	8	Agosto	2023-08-28T00:00:00	2024-11-08T18:00:00	8	Radiación solar	17
144265	7	Sololá	713	San Lucas Tolimán	10	San Lucas Tolimán	8	Agosto	2023-08-28T00:00:00	2024-11-08T19:00:00	2	Temperatura media	17.9
144266	7	Sololá	713	San Lucas Tolimán	10	San Lucas Tolimán	8	Agosto	2023-08-28T00:00:00	2024-11-08T19:00:00	4	Temperatura máxima	18.4
144267	7	Sololá	713	San Lucas Tolimán	10	San Lucas Tolimán	8	Agosto	2023-08-28T00:00:00	2024-11-08T19:00:00	3	Temperatura mínima	17.9
144268	7	Sololá	713	San Lucas Tolimán	10	San Lucas Tolimán	8	Agosto	2023-08-28T00:00:00	2024-11-08T19:00:00	5	Humedad	68
144269	7	Sololá	713	San Lucas Tolimán	10	San Lucas Tolimán	8	Agosto	2023-08-28T00:00:00	2024-11-08T19:00:00	6	Velocidad del viento	0
144270	7	Sololá	713	San Lucas Tolimán	10	San Lucas Tolimán	8	Agosto	2023-08-28T00:00:00	2024-11-08T19:00:00	7	Dirección del viento	0
144271	7	Sololá	713	San Lucas Tolimán	10	San Lucas Tolimán	8	Agosto	2023-08-28T00:00:00	2024-11-08T19:00:00	1	Precipitación	0
144272	7	Sololá	713	San Lucas Tolimán	10	San Lucas Tolimán	8	Agosto	2023-08-28T00:00:00	2024-11-08T19:00:00	8	Radiación solar	0
144273	7	Sololá	713	San Lucas Tolimán	10	San Lucas Tolimán	8	Agosto	2023-08-28T00:00:00	2024-11-08T20:00:00	2	Temperatura media	17.9
144274	7	Sololá	713	San Lucas Tolimán	10	San Lucas Tolimán	8	Agosto	2023-08-28T00:00:00	2024-11-08T20:00:00	4	Temperatura máxima	18.2
144275	7	Sololá	713	San Lucas Tolimán	10	San Lucas Tolimán	8	Agosto	2023-08-28T00:00:00	2024-11-08T20:00:00	3	Temperatura mínima	17.8
144276	7	Sololá	713	San Lucas Tolimán	10	San Lucas Tolimán	8	Agosto	2023-08-28T00:00:00	2024-11-08T20:00:00	5	Humedad	68
144277	7	Sololá	713	San Lucas Tolimán	10	San Lucas Tolimán	8	Agosto	2023-08-28T00:00:00	2024-11-08T20:00:00	6	Velocidad del viento	0
144278	7	Sololá	713	San Lucas Tolimán	10	San Lucas Tolimán	8	Agosto	2023-08-28T00:00:00	2024-11-08T20:00:00	7	Dirección del viento	0
144279	7	Sololá	713	San Lucas Tolimán	10	San Lucas Tolimán	8	Agosto	2023-08-28T00:00:00	2024-11-08T20:00:00	1	Precipitación	0.2
144280	7	Sololá	713	San Lucas Tolimán	10	San Lucas Tolimán	8	Agosto	2023-08-28T00:00:00	2024-11-08T20:00:00	8	Radiación solar	0
144281	7	Sololá	713	San Lucas Tolimán	10	San Lucas Tolimán	8	Agosto	2023-08-28T00:00:00	2024-11-08T21:00:00	2	Temperatura media	17.8
144282	7	Sololá	713	San Lucas Tolimán	10	San Lucas Tolimán	8	Agosto	2023-08-28T00:00:00	2024-11-08T21:00:00	4	Temperatura máxima	18
144283	7	Sololá	713	San Lucas Tolimán	10	San Lucas Tolimán	8	Agosto	2023-08-28T00:00:00	2024-11-08T21:00:00	3	Temperatura mínima	17.7
144284	7	Sololá	713	San Lucas Tolimán	10	San Lucas Tolimán	8	Agosto	2023-08-28T00:00:00	2024-11-08T21:00:00	5	Humedad	68
144285	7	Sololá	713	San Lucas Tolimán	10	San Lucas Tolimán	8	Agosto	2023-08-28T00:00:00	2024-11-08T21:00:00	6	Velocidad del viento	0
144286	7	Sololá	713	San Lucas Tolimán	10	San Lucas Tolimán	8	Agosto	2023-08-28T00:00:00	2024-11-08T21:00:00	7	Dirección del viento	0
144287	7	Sololá	713	San Lucas Tolimán	10	San Lucas Tolimán	8	Agosto	2023-08-28T00:00:00	2024-11-08T21:00:00	1	Precipitación	0.4
144288	7	Sololá	713	San Lucas Tolimán	10	San Lucas Tolimán	8	Agosto	2023-08-28T00:00:00	2024-11-08T21:00:00	8	Radiación solar	0
144289	7	Sololá	713	San Lucas Tolimán	10	San Lucas Tolimán	8	Agosto	2023-08-28T00:00:00	2024-11-08T22:00:00	2	Temperatura media	17.3
144290	7	Sololá	713	San Lucas Tolimán	10	San Lucas Tolimán	8	Agosto	2023-08-28T00:00:00	2024-11-08T22:00:00	4	Temperatura máxima	17.8
144291	7	Sololá	713	San Lucas Tolimán	10	San Lucas Tolimán	8	Agosto	2023-08-28T00:00:00	2024-11-08T22:00:00	3	Temperatura mínima	17.2
144292	7	Sololá	713	San Lucas Tolimán	10	San Lucas Tolimán	8	Agosto	2023-08-28T00:00:00	2024-11-08T22:00:00	5	Humedad	68
144293	7	Sololá	713	San Lucas Tolimán	10	San Lucas Tolimán	8	Agosto	2023-08-28T00:00:00	2024-11-08T22:00:00	6	Velocidad del viento	1.6
144294	7	Sololá	713	San Lucas Tolimán	10	San Lucas Tolimán	8	Agosto	2023-08-28T00:00:00	2024-11-08T22:00:00	7	Dirección del viento	1.61
144295	7	Sololá	713	San Lucas Tolimán	10	San Lucas Tolimán	8	Agosto	2023-08-28T00:00:00	2024-11-08T22:00:00	1	Precipitación	0
144296	7	Sololá	713	San Lucas Tolimán	10	San Lucas Tolimán	8	Agosto	2023-08-28T00:00:00	2024-11-08T22:00:00	8	Radiación solar	0
144297	7	Sololá	713	San Lucas Tolimán	10	San Lucas Tolimán	8	Agosto	2023-08-28T00:00:00	2024-11-08T23:00:00	2	Temperatura media	17.2
144298	7	Sololá	713	San Lucas Tolimán	10	San Lucas Tolimán	8	Agosto	2023-08-28T00:00:00	2024-11-08T23:00:00	4	Temperatura máxima	17.3
144299	7	Sololá	713	San Lucas Tolimán	10	San Lucas Tolimán	8	Agosto	2023-08-28T00:00:00	2024-11-08T23:00:00	3	Temperatura mínima	17.1
144300	7	Sololá	713	San Lucas Tolimán	10	San Lucas Tolimán	8	Agosto	2023-08-28T00:00:00	2024-11-08T23:00:00	5	Humedad	68
144301	7	Sololá	713	San Lucas Tolimán	10	San Lucas Tolimán	8	Agosto	2023-08-28T00:00:00	2024-11-08T23:00:00	6	Velocidad del viento	1.6
144302	7	Sololá	713	San Lucas Tolimán	10	San Lucas Tolimán	8	Agosto	2023-08-28T00:00:00	2024-11-08T23:00:00	7	Dirección del viento	1.61
144303	7	Sololá	713	San Lucas Tolimán	10	San Lucas Tolimán	8	Agosto	2023-08-28T00:00:00	2024-11-08T23:00:00	1	Precipitación	0.2
144304	7	Sololá	713	San Lucas Tolimán	10	San Lucas Tolimán	8	Agosto	2023-08-28T00:00:00	2024-11-08T23:00:00	8	Radiación solar	0
144305	7	Sololá	713	San Lucas Tolimán	10	San Lucas Tolimán	8	Agosto	2023-08-29T00:00:00	2024-11-08T00:00:00	2	Temperatura media	17.1
144306	7	Sololá	713	San Lucas Tolimán	10	San Lucas Tolimán	8	Agosto	2023-08-29T00:00:00	2024-11-08T00:00:00	4	Temperatura máxima	17.2
144307	7	Sololá	713	San Lucas Tolimán	10	San Lucas Tolimán	8	Agosto	2023-08-29T00:00:00	2024-11-08T00:00:00	3	Temperatura mínima	17
144308	7	Sololá	713	San Lucas Tolimán	10	San Lucas Tolimán	8	Agosto	2023-08-29T00:00:00	2024-11-08T00:00:00	5	Humedad	68
144309	7	Sololá	713	San Lucas Tolimán	10	San Lucas Tolimán	8	Agosto	2023-08-29T00:00:00	2024-11-08T00:00:00	6	Velocidad del viento	1.6
144310	7	Sololá	713	San Lucas Tolimán	10	San Lucas Tolimán	8	Agosto	2023-08-29T00:00:00	2024-11-08T00:00:00	7	Dirección del viento	1.61
144311	7	Sololá	713	San Lucas Tolimán	10	San Lucas Tolimán	8	Agosto	2023-08-29T00:00:00	2024-11-08T00:00:00	1	Precipitación	0
144312	7	Sololá	713	San Lucas Tolimán	10	San Lucas Tolimán	8	Agosto	2023-08-29T00:00:00	2024-11-08T00:00:00	8	Radiación solar	0
144313	7	Sololá	713	San Lucas Tolimán	10	San Lucas Tolimán	8	Agosto	2023-08-29T00:00:00	2024-11-08T01:00:00	2	Temperatura media	17.2
144314	7	Sololá	713	San Lucas Tolimán	10	San Lucas Tolimán	8	Agosto	2023-08-29T00:00:00	2024-11-08T01:00:00	4	Temperatura máxima	17.2
144315	7	Sololá	713	San Lucas Tolimán	10	San Lucas Tolimán	8	Agosto	2023-08-29T00:00:00	2024-11-08T01:00:00	3	Temperatura mínima	16.9
144316	7	Sololá	713	San Lucas Tolimán	10	San Lucas Tolimán	8	Agosto	2023-08-29T00:00:00	2024-11-08T01:00:00	5	Humedad	68
144317	7	Sololá	713	San Lucas Tolimán	10	San Lucas Tolimán	8	Agosto	2023-08-29T00:00:00	2024-11-08T01:00:00	6	Velocidad del viento	0
144318	7	Sololá	713	San Lucas Tolimán	10	San Lucas Tolimán	8	Agosto	2023-08-29T00:00:00	2024-11-08T01:00:00	7	Dirección del viento	0
144319	7	Sololá	713	San Lucas Tolimán	10	San Lucas Tolimán	8	Agosto	2023-08-29T00:00:00	2024-11-08T01:00:00	1	Precipitación	0
144320	7	Sololá	713	San Lucas Tolimán	10	San Lucas Tolimán	8	Agosto	2023-08-29T00:00:00	2024-11-08T01:00:00	8	Radiación solar	0
144321	7	Sololá	713	San Lucas Tolimán	10	San Lucas Tolimán	8	Agosto	2023-08-29T00:00:00	2024-11-08T02:00:00	2	Temperatura media	17.4
144322	7	Sololá	713	San Lucas Tolimán	10	San Lucas Tolimán	8	Agosto	2023-08-29T00:00:00	2024-11-08T02:00:00	4	Temperatura máxima	17.4
144323	7	Sololá	713	San Lucas Tolimán	10	San Lucas Tolimán	8	Agosto	2023-08-29T00:00:00	2024-11-08T02:00:00	3	Temperatura mínima	17.2
144324	7	Sololá	713	San Lucas Tolimán	10	San Lucas Tolimán	8	Agosto	2023-08-29T00:00:00	2024-11-08T02:00:00	5	Humedad	68
144325	7	Sololá	713	San Lucas Tolimán	10	San Lucas Tolimán	8	Agosto	2023-08-29T00:00:00	2024-11-08T02:00:00	6	Velocidad del viento	0
144326	7	Sololá	713	San Lucas Tolimán	10	San Lucas Tolimán	8	Agosto	2023-08-29T00:00:00	2024-11-08T02:00:00	7	Dirección del viento	0
144327	7	Sololá	713	San Lucas Tolimán	10	San Lucas Tolimán	8	Agosto	2023-08-29T00:00:00	2024-11-08T02:00:00	1	Precipitación	0
144328	7	Sololá	713	San Lucas Tolimán	10	San Lucas Tolimán	8	Agosto	2023-08-29T00:00:00	2024-11-08T02:00:00	8	Radiación solar	0
144329	7	Sololá	713	San Lucas Tolimán	10	San Lucas Tolimán	8	Agosto	2023-08-29T00:00:00	2024-11-08T03:00:00	2	Temperatura media	17.3
144330	7	Sololá	713	San Lucas Tolimán	10	San Lucas Tolimán	8	Agosto	2023-08-29T00:00:00	2024-11-08T03:00:00	4	Temperatura máxima	17.5
144331	7	Sololá	713	San Lucas Tolimán	10	San Lucas Tolimán	8	Agosto	2023-08-29T00:00:00	2024-11-08T03:00:00	3	Temperatura mínima	17.3
144332	7	Sololá	713	San Lucas Tolimán	10	San Lucas Tolimán	8	Agosto	2023-08-29T00:00:00	2024-11-08T03:00:00	5	Humedad	68
144333	7	Sololá	713	San Lucas Tolimán	10	San Lucas Tolimán	8	Agosto	2023-08-29T00:00:00	2024-11-08T03:00:00	6	Velocidad del viento	0
144334	7	Sololá	713	San Lucas Tolimán	10	San Lucas Tolimán	8	Agosto	2023-08-29T00:00:00	2024-11-08T03:00:00	7	Dirección del viento	0
144335	7	Sololá	713	San Lucas Tolimán	10	San Lucas Tolimán	8	Agosto	2023-08-29T00:00:00	2024-11-08T03:00:00	1	Precipitación	0
144336	7	Sololá	713	San Lucas Tolimán	10	San Lucas Tolimán	8	Agosto	2023-08-29T00:00:00	2024-11-08T03:00:00	8	Radiación solar	0
144337	7	Sololá	713	San Lucas Tolimán	10	San Lucas Tolimán	8	Agosto	2023-08-29T00:00:00	2024-11-08T04:00:00	2	Temperatura media	16.9
144338	7	Sololá	713	San Lucas Tolimán	10	San Lucas Tolimán	8	Agosto	2023-08-29T00:00:00	2024-11-08T04:00:00	4	Temperatura máxima	17.4
144339	7	Sololá	713	San Lucas Tolimán	10	San Lucas Tolimán	8	Agosto	2023-08-29T00:00:00	2024-11-08T04:00:00	3	Temperatura mínima	16.9
144340	7	Sololá	713	San Lucas Tolimán	10	San Lucas Tolimán	8	Agosto	2023-08-29T00:00:00	2024-11-08T04:00:00	5	Humedad	68
144341	7	Sololá	713	San Lucas Tolimán	10	San Lucas Tolimán	8	Agosto	2023-08-29T00:00:00	2024-11-08T04:00:00	6	Velocidad del viento	0
144342	7	Sololá	713	San Lucas Tolimán	10	San Lucas Tolimán	8	Agosto	2023-08-29T00:00:00	2024-11-08T04:00:00	7	Dirección del viento	0
144343	7	Sololá	713	San Lucas Tolimán	10	San Lucas Tolimán	8	Agosto	2023-08-29T00:00:00	2024-11-08T04:00:00	1	Precipitación	0
144344	7	Sololá	713	San Lucas Tolimán	10	San Lucas Tolimán	8	Agosto	2023-08-29T00:00:00	2024-11-08T04:00:00	8	Radiación solar	0
144345	7	Sololá	713	San Lucas Tolimán	10	San Lucas Tolimán	8	Agosto	2023-08-29T00:00:00	2024-11-08T05:00:00	2	Temperatura media	16.7
144346	7	Sololá	713	San Lucas Tolimán	10	San Lucas Tolimán	8	Agosto	2023-08-29T00:00:00	2024-11-08T05:00:00	4	Temperatura máxima	16.9
144347	7	Sololá	713	San Lucas Tolimán	10	San Lucas Tolimán	8	Agosto	2023-08-29T00:00:00	2024-11-08T05:00:00	3	Temperatura mínima	16.6
144348	7	Sololá	713	San Lucas Tolimán	10	San Lucas Tolimán	8	Agosto	2023-08-29T00:00:00	2024-11-08T05:00:00	5	Humedad	67
144349	7	Sololá	713	San Lucas Tolimán	10	San Lucas Tolimán	8	Agosto	2023-08-29T00:00:00	2024-11-08T05:00:00	6	Velocidad del viento	4.8
144350	7	Sololá	713	San Lucas Tolimán	10	San Lucas Tolimán	8	Agosto	2023-08-29T00:00:00	2024-11-08T05:00:00	7	Dirección del viento	4.83
144351	7	Sololá	713	San Lucas Tolimán	10	San Lucas Tolimán	8	Agosto	2023-08-29T00:00:00	2024-11-08T05:00:00	1	Precipitación	0
144352	7	Sololá	713	San Lucas Tolimán	10	San Lucas Tolimán	8	Agosto	2023-08-29T00:00:00	2024-11-08T05:00:00	8	Radiación solar	0
144353	7	Sololá	713	San Lucas Tolimán	10	San Lucas Tolimán	8	Agosto	2023-08-29T00:00:00	2024-11-08T06:00:00	2	Temperatura media	16.4
144354	7	Sololá	713	San Lucas Tolimán	10	San Lucas Tolimán	8	Agosto	2023-08-29T00:00:00	2024-11-08T06:00:00	4	Temperatura máxima	16.7
144355	7	Sololá	713	San Lucas Tolimán	10	San Lucas Tolimán	8	Agosto	2023-08-29T00:00:00	2024-11-08T06:00:00	3	Temperatura mínima	16.4
144356	7	Sololá	713	San Lucas Tolimán	10	San Lucas Tolimán	8	Agosto	2023-08-29T00:00:00	2024-11-08T06:00:00	5	Humedad	67
144357	7	Sololá	713	San Lucas Tolimán	10	San Lucas Tolimán	8	Agosto	2023-08-29T00:00:00	2024-11-08T06:00:00	6	Velocidad del viento	4.8
144358	7	Sololá	713	San Lucas Tolimán	10	San Lucas Tolimán	8	Agosto	2023-08-29T00:00:00	2024-11-08T06:00:00	7	Dirección del viento	4.83
144359	7	Sololá	713	San Lucas Tolimán	10	San Lucas Tolimán	8	Agosto	2023-08-29T00:00:00	2024-11-08T06:00:00	1	Precipitación	0
144360	7	Sololá	713	San Lucas Tolimán	10	San Lucas Tolimán	8	Agosto	2023-08-29T00:00:00	2024-11-08T06:00:00	8	Radiación solar	0
144361	7	Sololá	713	San Lucas Tolimán	10	San Lucas Tolimán	8	Agosto	2023-08-29T00:00:00	2024-11-08T07:00:00	2	Temperatura media	17.1
144362	7	Sololá	713	San Lucas Tolimán	10	San Lucas Tolimán	8	Agosto	2023-08-29T00:00:00	2024-11-08T07:00:00	4	Temperatura máxima	17.1
144363	7	Sololá	713	San Lucas Tolimán	10	San Lucas Tolimán	8	Agosto	2023-08-29T00:00:00	2024-11-08T07:00:00	3	Temperatura mínima	16.4
144364	7	Sololá	713	San Lucas Tolimán	10	San Lucas Tolimán	8	Agosto	2023-08-29T00:00:00	2024-11-08T07:00:00	5	Humedad	67
144365	7	Sololá	713	San Lucas Tolimán	10	San Lucas Tolimán	8	Agosto	2023-08-29T00:00:00	2024-11-08T07:00:00	6	Velocidad del viento	3.2
144366	7	Sololá	713	San Lucas Tolimán	10	San Lucas Tolimán	8	Agosto	2023-08-29T00:00:00	2024-11-08T07:00:00	7	Dirección del viento	3.22
144367	7	Sololá	713	San Lucas Tolimán	10	San Lucas Tolimán	8	Agosto	2023-08-29T00:00:00	2024-11-08T07:00:00	1	Precipitación	0
144368	7	Sololá	713	San Lucas Tolimán	10	San Lucas Tolimán	8	Agosto	2023-08-29T00:00:00	2024-11-08T07:00:00	8	Radiación solar	35
144369	7	Sololá	713	San Lucas Tolimán	10	San Lucas Tolimán	8	Agosto	2023-08-29T00:00:00	2024-11-08T08:00:00	2	Temperatura media	18.9
144370	7	Sololá	713	San Lucas Tolimán	10	San Lucas Tolimán	8	Agosto	2023-08-29T00:00:00	2024-11-08T08:00:00	4	Temperatura máxima	18.9
144371	7	Sololá	713	San Lucas Tolimán	10	San Lucas Tolimán	8	Agosto	2023-08-29T00:00:00	2024-11-08T08:00:00	3	Temperatura mínima	17.1
144372	7	Sololá	713	San Lucas Tolimán	10	San Lucas Tolimán	8	Agosto	2023-08-29T00:00:00	2024-11-08T08:00:00	5	Humedad	63
144373	7	Sololá	713	San Lucas Tolimán	10	San Lucas Tolimán	8	Agosto	2023-08-29T00:00:00	2024-11-08T08:00:00	6	Velocidad del viento	1.6
144374	7	Sololá	713	San Lucas Tolimán	10	San Lucas Tolimán	8	Agosto	2023-08-29T00:00:00	2024-11-08T08:00:00	7	Dirección del viento	1.61
144375	7	Sololá	713	San Lucas Tolimán	10	San Lucas Tolimán	8	Agosto	2023-08-29T00:00:00	2024-11-08T08:00:00	1	Precipitación	0
144376	7	Sololá	713	San Lucas Tolimán	10	San Lucas Tolimán	8	Agosto	2023-08-29T00:00:00	2024-11-08T08:00:00	8	Radiación solar	212
144377	7	Sololá	713	San Lucas Tolimán	10	San Lucas Tolimán	8	Agosto	2023-08-29T00:00:00	2024-11-08T09:00:00	2	Temperatura media	19.9
144378	7	Sololá	713	San Lucas Tolimán	10	San Lucas Tolimán	8	Agosto	2023-08-29T00:00:00	2024-11-08T09:00:00	4	Temperatura máxima	20
144379	7	Sololá	713	San Lucas Tolimán	10	San Lucas Tolimán	8	Agosto	2023-08-29T00:00:00	2024-11-08T09:00:00	3	Temperatura mínima	18.9
144380	7	Sololá	713	San Lucas Tolimán	10	San Lucas Tolimán	8	Agosto	2023-08-29T00:00:00	2024-11-08T09:00:00	5	Humedad	61
144381	7	Sololá	713	San Lucas Tolimán	10	San Lucas Tolimán	8	Agosto	2023-08-29T00:00:00	2024-11-08T09:00:00	6	Velocidad del viento	3.2
144382	7	Sololá	713	San Lucas Tolimán	10	San Lucas Tolimán	8	Agosto	2023-08-29T00:00:00	2024-11-08T09:00:00	7	Dirección del viento	3.22
144383	7	Sololá	713	San Lucas Tolimán	10	San Lucas Tolimán	8	Agosto	2023-08-29T00:00:00	2024-11-08T09:00:00	1	Precipitación	0
144384	7	Sololá	713	San Lucas Tolimán	10	San Lucas Tolimán	8	Agosto	2023-08-29T00:00:00	2024-11-08T09:00:00	8	Radiación solar	329
144385	7	Sololá	713	San Lucas Tolimán	10	San Lucas Tolimán	8	Agosto	2023-08-29T00:00:00	2024-11-08T10:00:00	2	Temperatura media	21.3
144386	7	Sololá	713	San Lucas Tolimán	10	San Lucas Tolimán	8	Agosto	2023-08-29T00:00:00	2024-11-08T10:00:00	4	Temperatura máxima	21.3
144387	7	Sololá	713	San Lucas Tolimán	10	San Lucas Tolimán	8	Agosto	2023-08-29T00:00:00	2024-11-08T10:00:00	3	Temperatura mínima	19.9
144388	7	Sololá	713	San Lucas Tolimán	10	San Lucas Tolimán	8	Agosto	2023-08-29T00:00:00	2024-11-08T10:00:00	5	Humedad	57
144389	7	Sololá	713	San Lucas Tolimán	10	San Lucas Tolimán	8	Agosto	2023-08-29T00:00:00	2024-11-08T10:00:00	6	Velocidad del viento	4.8
144390	7	Sololá	713	San Lucas Tolimán	10	San Lucas Tolimán	8	Agosto	2023-08-29T00:00:00	2024-11-08T10:00:00	7	Dirección del viento	4.83
144391	7	Sololá	713	San Lucas Tolimán	10	San Lucas Tolimán	8	Agosto	2023-08-29T00:00:00	2024-11-08T10:00:00	1	Precipitación	0
144392	7	Sololá	713	San Lucas Tolimán	10	San Lucas Tolimán	8	Agosto	2023-08-29T00:00:00	2024-11-08T10:00:00	8	Radiación solar	507
144393	7	Sololá	713	San Lucas Tolimán	10	San Lucas Tolimán	8	Agosto	2023-08-29T00:00:00	2024-11-08T11:00:00	2	Temperatura media	21.6
144394	7	Sololá	713	San Lucas Tolimán	10	San Lucas Tolimán	8	Agosto	2023-08-29T00:00:00	2024-11-08T11:00:00	4	Temperatura máxima	22.8
144395	7	Sololá	713	San Lucas Tolimán	10	San Lucas Tolimán	8	Agosto	2023-08-29T00:00:00	2024-11-08T11:00:00	3	Temperatura mínima	21.3
144396	7	Sololá	713	San Lucas Tolimán	10	San Lucas Tolimán	8	Agosto	2023-08-29T00:00:00	2024-11-08T11:00:00	5	Humedad	61
144397	7	Sololá	713	San Lucas Tolimán	10	San Lucas Tolimán	8	Agosto	2023-08-29T00:00:00	2024-11-08T11:00:00	6	Velocidad del viento	8
144398	7	Sololá	713	San Lucas Tolimán	10	San Lucas Tolimán	8	Agosto	2023-08-29T00:00:00	2024-11-08T11:00:00	7	Dirección del viento	8.05
144399	7	Sololá	713	San Lucas Tolimán	10	San Lucas Tolimán	8	Agosto	2023-08-29T00:00:00	2024-11-08T11:00:00	1	Precipitación	0
144400	7	Sololá	713	San Lucas Tolimán	10	San Lucas Tolimán	8	Agosto	2023-08-29T00:00:00	2024-11-08T11:00:00	8	Radiación solar	720
144401	7	Sololá	713	San Lucas Tolimán	10	San Lucas Tolimán	8	Agosto	2023-08-29T00:00:00	2024-11-08T12:00:00	2	Temperatura media	22.2
144402	7	Sololá	713	San Lucas Tolimán	10	San Lucas Tolimán	8	Agosto	2023-08-29T00:00:00	2024-11-08T12:00:00	4	Temperatura máxima	22.6
144403	7	Sololá	713	San Lucas Tolimán	10	San Lucas Tolimán	8	Agosto	2023-08-29T00:00:00	2024-11-08T12:00:00	3	Temperatura mínima	21.6
144404	7	Sololá	713	San Lucas Tolimán	10	San Lucas Tolimán	8	Agosto	2023-08-29T00:00:00	2024-11-08T12:00:00	5	Humedad	58
144405	7	Sololá	713	San Lucas Tolimán	10	San Lucas Tolimán	8	Agosto	2023-08-29T00:00:00	2024-11-08T12:00:00	6	Velocidad del viento	9.7
144406	7	Sololá	713	San Lucas Tolimán	10	San Lucas Tolimán	8	Agosto	2023-08-29T00:00:00	2024-11-08T12:00:00	7	Dirección del viento	9.66
144407	7	Sololá	713	San Lucas Tolimán	10	San Lucas Tolimán	8	Agosto	2023-08-29T00:00:00	2024-11-08T12:00:00	1	Precipitación	0
144408	7	Sololá	713	San Lucas Tolimán	10	San Lucas Tolimán	8	Agosto	2023-08-29T00:00:00	2024-11-08T12:00:00	8	Radiación solar	1009
144409	7	Sololá	713	San Lucas Tolimán	10	San Lucas Tolimán	8	Agosto	2023-08-29T00:00:00	2024-11-08T13:00:00	2	Temperatura media	22.9
144410	7	Sololá	713	San Lucas Tolimán	10	San Lucas Tolimán	8	Agosto	2023-08-29T00:00:00	2024-11-08T13:00:00	4	Temperatura máxima	23.2
144411	7	Sololá	713	San Lucas Tolimán	10	San Lucas Tolimán	8	Agosto	2023-08-29T00:00:00	2024-11-08T13:00:00	3	Temperatura mínima	21.7
144412	7	Sololá	713	San Lucas Tolimán	10	San Lucas Tolimán	8	Agosto	2023-08-29T00:00:00	2024-11-08T13:00:00	5	Humedad	59
144413	7	Sololá	713	San Lucas Tolimán	10	San Lucas Tolimán	8	Agosto	2023-08-29T00:00:00	2024-11-08T13:00:00	6	Velocidad del viento	9.7
144414	7	Sololá	713	San Lucas Tolimán	10	San Lucas Tolimán	8	Agosto	2023-08-29T00:00:00	2024-11-08T13:00:00	7	Dirección del viento	9.66
144415	7	Sololá	713	San Lucas Tolimán	10	San Lucas Tolimán	8	Agosto	2023-08-29T00:00:00	2024-11-08T13:00:00	1	Precipitación	0
144416	7	Sololá	713	San Lucas Tolimán	10	San Lucas Tolimán	8	Agosto	2023-08-29T00:00:00	2024-11-08T13:00:00	8	Radiación solar	783
144417	7	Sololá	713	San Lucas Tolimán	10	San Lucas Tolimán	8	Agosto	2023-08-29T00:00:00	2024-11-08T14:00:00	2	Temperatura media	22.9
144418	7	Sololá	713	San Lucas Tolimán	10	San Lucas Tolimán	8	Agosto	2023-08-29T00:00:00	2024-11-08T14:00:00	4	Temperatura máxima	22.9
144419	7	Sololá	713	San Lucas Tolimán	10	San Lucas Tolimán	8	Agosto	2023-08-29T00:00:00	2024-11-08T14:00:00	3	Temperatura mínima	22.2
144420	7	Sololá	713	San Lucas Tolimán	10	San Lucas Tolimán	8	Agosto	2023-08-29T00:00:00	2024-11-08T14:00:00	5	Humedad	59
144421	7	Sololá	713	San Lucas Tolimán	10	San Lucas Tolimán	8	Agosto	2023-08-29T00:00:00	2024-11-08T14:00:00	6	Velocidad del viento	9.7
144422	7	Sololá	713	San Lucas Tolimán	10	San Lucas Tolimán	8	Agosto	2023-08-29T00:00:00	2024-11-08T14:00:00	7	Dirección del viento	9.66
144423	7	Sololá	713	San Lucas Tolimán	10	San Lucas Tolimán	8	Agosto	2023-08-29T00:00:00	2024-11-08T14:00:00	1	Precipitación	0
144424	7	Sololá	713	San Lucas Tolimán	10	San Lucas Tolimán	8	Agosto	2023-08-29T00:00:00	2024-11-08T14:00:00	8	Radiación solar	824
144425	7	Sololá	713	San Lucas Tolimán	10	San Lucas Tolimán	8	Agosto	2023-08-29T00:00:00	2024-11-08T15:00:00	2	Temperatura media	22.2
144426	7	Sololá	713	San Lucas Tolimán	10	San Lucas Tolimán	8	Agosto	2023-08-29T00:00:00	2024-11-08T15:00:00	4	Temperatura máxima	23.3
144427	7	Sololá	713	San Lucas Tolimán	10	San Lucas Tolimán	8	Agosto	2023-08-29T00:00:00	2024-11-08T15:00:00	3	Temperatura mínima	21.9
144428	7	Sololá	713	San Lucas Tolimán	10	San Lucas Tolimán	8	Agosto	2023-08-29T00:00:00	2024-11-08T15:00:00	5	Humedad	61
144429	7	Sololá	713	San Lucas Tolimán	10	San Lucas Tolimán	8	Agosto	2023-08-29T00:00:00	2024-11-08T15:00:00	6	Velocidad del viento	9.7
144430	7	Sololá	713	San Lucas Tolimán	10	San Lucas Tolimán	8	Agosto	2023-08-29T00:00:00	2024-11-08T15:00:00	7	Dirección del viento	9.66
144431	7	Sololá	713	San Lucas Tolimán	10	San Lucas Tolimán	8	Agosto	2023-08-29T00:00:00	2024-11-08T15:00:00	1	Precipitación	0
144432	7	Sololá	713	San Lucas Tolimán	10	San Lucas Tolimán	8	Agosto	2023-08-29T00:00:00	2024-11-08T15:00:00	8	Radiación solar	353
144433	7	Sololá	713	San Lucas Tolimán	10	San Lucas Tolimán	8	Agosto	2023-08-29T00:00:00	2024-11-08T16:00:00	2	Temperatura media	20.6
144434	7	Sololá	713	San Lucas Tolimán	10	San Lucas Tolimán	8	Agosto	2023-08-29T00:00:00	2024-11-08T16:00:00	4	Temperatura máxima	22.2
144435	7	Sololá	713	San Lucas Tolimán	10	San Lucas Tolimán	8	Agosto	2023-08-29T00:00:00	2024-11-08T16:00:00	3	Temperatura mínima	20.4
144436	7	Sololá	713	San Lucas Tolimán	10	San Lucas Tolimán	8	Agosto	2023-08-29T00:00:00	2024-11-08T16:00:00	5	Humedad	64
144437	7	Sololá	713	San Lucas Tolimán	10	San Lucas Tolimán	8	Agosto	2023-08-29T00:00:00	2024-11-08T16:00:00	6	Velocidad del viento	8
144438	7	Sololá	713	San Lucas Tolimán	10	San Lucas Tolimán	8	Agosto	2023-08-29T00:00:00	2024-11-08T16:00:00	7	Dirección del viento	8.05
144439	7	Sololá	713	San Lucas Tolimán	10	San Lucas Tolimán	8	Agosto	2023-08-29T00:00:00	2024-11-08T16:00:00	1	Precipitación	0
144440	7	Sololá	713	San Lucas Tolimán	10	San Lucas Tolimán	8	Agosto	2023-08-29T00:00:00	2024-11-08T16:00:00	8	Radiación solar	114
144441	7	Sololá	713	San Lucas Tolimán	10	San Lucas Tolimán	8	Agosto	2023-08-29T00:00:00	2024-11-08T17:00:00	2	Temperatura media	19.1
144442	7	Sololá	713	San Lucas Tolimán	10	San Lucas Tolimán	8	Agosto	2023-08-29T00:00:00	2024-11-08T17:00:00	4	Temperatura máxima	20.7
144443	7	Sololá	713	San Lucas Tolimán	10	San Lucas Tolimán	8	Agosto	2023-08-29T00:00:00	2024-11-08T17:00:00	3	Temperatura mínima	19.1
144444	7	Sololá	713	San Lucas Tolimán	10	San Lucas Tolimán	8	Agosto	2023-08-29T00:00:00	2024-11-08T17:00:00	5	Humedad	65
144445	7	Sololá	713	San Lucas Tolimán	10	San Lucas Tolimán	8	Agosto	2023-08-29T00:00:00	2024-11-08T17:00:00	6	Velocidad del viento	8
144446	7	Sololá	713	San Lucas Tolimán	10	San Lucas Tolimán	8	Agosto	2023-08-29T00:00:00	2024-11-08T17:00:00	7	Dirección del viento	8.05
144447	7	Sololá	713	San Lucas Tolimán	10	San Lucas Tolimán	8	Agosto	2023-08-29T00:00:00	2024-11-08T17:00:00	1	Precipitación	0
144448	7	Sololá	713	San Lucas Tolimán	10	San Lucas Tolimán	8	Agosto	2023-08-29T00:00:00	2024-11-08T17:00:00	8	Radiación solar	44
144449	7	Sololá	713	San Lucas Tolimán	10	San Lucas Tolimán	8	Agosto	2023-08-29T00:00:00	2024-11-08T18:00:00	2	Temperatura media	18.4
144450	7	Sololá	713	San Lucas Tolimán	10	San Lucas Tolimán	8	Agosto	2023-08-29T00:00:00	2024-11-08T18:00:00	4	Temperatura máxima	19.2
144451	7	Sololá	713	San Lucas Tolimán	10	San Lucas Tolimán	8	Agosto	2023-08-29T00:00:00	2024-11-08T18:00:00	3	Temperatura mínima	18.4
144452	7	Sololá	713	San Lucas Tolimán	10	San Lucas Tolimán	8	Agosto	2023-08-29T00:00:00	2024-11-08T18:00:00	5	Humedad	65
144453	7	Sololá	713	San Lucas Tolimán	10	San Lucas Tolimán	8	Agosto	2023-08-29T00:00:00	2024-11-08T18:00:00	6	Velocidad del viento	9.7
144454	7	Sololá	713	San Lucas Tolimán	10	San Lucas Tolimán	8	Agosto	2023-08-29T00:00:00	2024-11-08T18:00:00	7	Dirección del viento	9.66
144455	7	Sololá	713	San Lucas Tolimán	10	San Lucas Tolimán	8	Agosto	2023-08-29T00:00:00	2024-11-08T18:00:00	1	Precipitación	0
144456	7	Sololá	713	San Lucas Tolimán	10	San Lucas Tolimán	8	Agosto	2023-08-29T00:00:00	2024-11-08T18:00:00	8	Radiación solar	9
144457	7	Sololá	713	San Lucas Tolimán	10	San Lucas Tolimán	8	Agosto	2023-08-29T00:00:00	2024-11-08T19:00:00	2	Temperatura media	18
144458	7	Sololá	713	San Lucas Tolimán	10	San Lucas Tolimán	8	Agosto	2023-08-29T00:00:00	2024-11-08T19:00:00	4	Temperatura máxima	18.4
144459	7	Sololá	713	San Lucas Tolimán	10	San Lucas Tolimán	8	Agosto	2023-08-29T00:00:00	2024-11-08T19:00:00	3	Temperatura mínima	17.9
144460	7	Sololá	713	San Lucas Tolimán	10	San Lucas Tolimán	8	Agosto	2023-08-29T00:00:00	2024-11-08T19:00:00	5	Humedad	68
144461	7	Sololá	713	San Lucas Tolimán	10	San Lucas Tolimán	8	Agosto	2023-08-29T00:00:00	2024-11-08T19:00:00	6	Velocidad del viento	6.4
144462	7	Sololá	713	San Lucas Tolimán	10	San Lucas Tolimán	8	Agosto	2023-08-29T00:00:00	2024-11-08T19:00:00	7	Dirección del viento	6.44
144463	7	Sololá	713	San Lucas Tolimán	10	San Lucas Tolimán	8	Agosto	2023-08-29T00:00:00	2024-11-08T19:00:00	1	Precipitación	2.2
144464	7	Sololá	713	San Lucas Tolimán	10	San Lucas Tolimán	8	Agosto	2023-08-29T00:00:00	2024-11-08T19:00:00	8	Radiación solar	0
144465	7	Sololá	713	San Lucas Tolimán	10	San Lucas Tolimán	8	Agosto	2023-08-29T00:00:00	2024-11-08T20:00:00	2	Temperatura media	17.2
144466	7	Sololá	713	San Lucas Tolimán	10	San Lucas Tolimán	8	Agosto	2023-08-29T00:00:00	2024-11-08T20:00:00	4	Temperatura máxima	18
144467	7	Sololá	713	San Lucas Tolimán	10	San Lucas Tolimán	8	Agosto	2023-08-29T00:00:00	2024-11-08T20:00:00	3	Temperatura mínima	17.2
144468	7	Sololá	713	San Lucas Tolimán	10	San Lucas Tolimán	8	Agosto	2023-08-29T00:00:00	2024-11-08T20:00:00	5	Humedad	65
144469	7	Sololá	713	San Lucas Tolimán	10	San Lucas Tolimán	8	Agosto	2023-08-29T00:00:00	2024-11-08T20:00:00	6	Velocidad del viento	4.8
144470	7	Sololá	713	San Lucas Tolimán	10	San Lucas Tolimán	8	Agosto	2023-08-29T00:00:00	2024-11-08T20:00:00	7	Dirección del viento	4.83
144471	7	Sololá	713	San Lucas Tolimán	10	San Lucas Tolimán	8	Agosto	2023-08-29T00:00:00	2024-11-08T20:00:00	1	Precipitación	4.4
144472	7	Sololá	713	San Lucas Tolimán	10	San Lucas Tolimán	8	Agosto	2023-08-29T00:00:00	2024-11-08T20:00:00	8	Radiación solar	0
144473	7	Sololá	713	San Lucas Tolimán	10	San Lucas Tolimán	8	Agosto	2023-08-29T00:00:00	2024-11-08T21:00:00	2	Temperatura media	17.4
144474	7	Sololá	713	San Lucas Tolimán	10	San Lucas Tolimán	8	Agosto	2023-08-29T00:00:00	2024-11-08T21:00:00	4	Temperatura máxima	17.4
144475	7	Sololá	713	San Lucas Tolimán	10	San Lucas Tolimán	8	Agosto	2023-08-29T00:00:00	2024-11-08T21:00:00	3	Temperatura mínima	17.1
144476	7	Sololá	713	San Lucas Tolimán	10	San Lucas Tolimán	8	Agosto	2023-08-29T00:00:00	2024-11-08T21:00:00	5	Humedad	67
144477	7	Sololá	713	San Lucas Tolimán	10	San Lucas Tolimán	8	Agosto	2023-08-29T00:00:00	2024-11-08T21:00:00	6	Velocidad del viento	1.6
144478	7	Sololá	713	San Lucas Tolimán	10	San Lucas Tolimán	8	Agosto	2023-08-29T00:00:00	2024-11-08T21:00:00	7	Dirección del viento	1.61
144479	7	Sololá	713	San Lucas Tolimán	10	San Lucas Tolimán	8	Agosto	2023-08-29T00:00:00	2024-11-08T21:00:00	1	Precipitación	1.6
144480	7	Sololá	713	San Lucas Tolimán	10	San Lucas Tolimán	8	Agosto	2023-08-29T00:00:00	2024-11-08T21:00:00	8	Radiación solar	0
144481	7	Sololá	713	San Lucas Tolimán	10	San Lucas Tolimán	8	Agosto	2023-08-29T00:00:00	2024-11-08T22:00:00	2	Temperatura media	17.8
144482	7	Sololá	713	San Lucas Tolimán	10	San Lucas Tolimán	8	Agosto	2023-08-29T00:00:00	2024-11-08T22:00:00	4	Temperatura máxima	17.9
144483	7	Sololá	713	San Lucas Tolimán	10	San Lucas Tolimán	8	Agosto	2023-08-29T00:00:00	2024-11-08T22:00:00	3	Temperatura mínima	17.4
144484	7	Sololá	713	San Lucas Tolimán	10	San Lucas Tolimán	8	Agosto	2023-08-29T00:00:00	2024-11-08T22:00:00	5	Humedad	67
144485	7	Sololá	713	San Lucas Tolimán	10	San Lucas Tolimán	8	Agosto	2023-08-29T00:00:00	2024-11-08T22:00:00	6	Velocidad del viento	1.6
144486	7	Sololá	713	San Lucas Tolimán	10	San Lucas Tolimán	8	Agosto	2023-08-29T00:00:00	2024-11-08T22:00:00	7	Dirección del viento	1.61
144487	7	Sololá	713	San Lucas Tolimán	10	San Lucas Tolimán	8	Agosto	2023-08-29T00:00:00	2024-11-08T22:00:00	1	Precipitación	0.4
144488	7	Sololá	713	San Lucas Tolimán	10	San Lucas Tolimán	8	Agosto	2023-08-29T00:00:00	2024-11-08T22:00:00	8	Radiación solar	0
144489	7	Sololá	713	San Lucas Tolimán	10	San Lucas Tolimán	8	Agosto	2023-08-29T00:00:00	2024-11-08T23:00:00	2	Temperatura media	17.6
144490	7	Sololá	713	San Lucas Tolimán	10	San Lucas Tolimán	8	Agosto	2023-08-29T00:00:00	2024-11-08T23:00:00	4	Temperatura máxima	17.8
144491	7	Sololá	713	San Lucas Tolimán	10	San Lucas Tolimán	8	Agosto	2023-08-29T00:00:00	2024-11-08T23:00:00	3	Temperatura mínima	17.4
144492	7	Sololá	713	San Lucas Tolimán	10	San Lucas Tolimán	8	Agosto	2023-08-29T00:00:00	2024-11-08T23:00:00	5	Humedad	68
144493	7	Sololá	713	San Lucas Tolimán	10	San Lucas Tolimán	8	Agosto	2023-08-29T00:00:00	2024-11-08T23:00:00	6	Velocidad del viento	0
144494	7	Sololá	713	San Lucas Tolimán	10	San Lucas Tolimán	8	Agosto	2023-08-29T00:00:00	2024-11-08T23:00:00	7	Dirección del viento	0
144495	7	Sololá	713	San Lucas Tolimán	10	San Lucas Tolimán	8	Agosto	2023-08-29T00:00:00	2024-11-08T23:00:00	1	Precipitación	0.2
144496	7	Sololá	713	San Lucas Tolimán	10	San Lucas Tolimán	8	Agosto	2023-08-29T00:00:00	2024-11-08T23:00:00	8	Radiación solar	0
144497	7	Sololá	713	San Lucas Tolimán	10	San Lucas Tolimán	8	Agosto	2023-08-30T00:00:00	2024-11-08T00:00:00	2	Temperatura media	17.8
144498	7	Sololá	713	San Lucas Tolimán	10	San Lucas Tolimán	8	Agosto	2023-08-30T00:00:00	2024-11-08T00:00:00	4	Temperatura máxima	17.8
144499	7	Sololá	713	San Lucas Tolimán	10	San Lucas Tolimán	8	Agosto	2023-08-30T00:00:00	2024-11-08T00:00:00	3	Temperatura mínima	17.5
144500	7	Sololá	713	San Lucas Tolimán	10	San Lucas Tolimán	8	Agosto	2023-08-30T00:00:00	2024-11-08T00:00:00	5	Humedad	68
144501	7	Sololá	713	San Lucas Tolimán	10	San Lucas Tolimán	8	Agosto	2023-08-30T00:00:00	2024-11-08T00:00:00	6	Velocidad del viento	0
144502	7	Sololá	713	San Lucas Tolimán	10	San Lucas Tolimán	8	Agosto	2023-08-30T00:00:00	2024-11-08T00:00:00	7	Dirección del viento	0
144503	7	Sololá	713	San Lucas Tolimán	10	San Lucas Tolimán	8	Agosto	2023-08-30T00:00:00	2024-11-08T00:00:00	1	Precipitación	0
144504	7	Sololá	713	San Lucas Tolimán	10	San Lucas Tolimán	8	Agosto	2023-08-30T00:00:00	2024-11-08T00:00:00	8	Radiación solar	0
144505	7	Sololá	713	San Lucas Tolimán	10	San Lucas Tolimán	8	Agosto	2023-08-30T00:00:00	2024-11-08T01:00:00	2	Temperatura media	17.8
144506	7	Sololá	713	San Lucas Tolimán	10	San Lucas Tolimán	8	Agosto	2023-08-30T00:00:00	2024-11-08T01:00:00	4	Temperatura máxima	17.9
144507	7	Sololá	713	San Lucas Tolimán	10	San Lucas Tolimán	8	Agosto	2023-08-30T00:00:00	2024-11-08T01:00:00	3	Temperatura mínima	17.7
144508	7	Sololá	713	San Lucas Tolimán	10	San Lucas Tolimán	8	Agosto	2023-08-30T00:00:00	2024-11-08T01:00:00	5	Humedad	68
144509	7	Sololá	713	San Lucas Tolimán	10	San Lucas Tolimán	8	Agosto	2023-08-30T00:00:00	2024-11-08T01:00:00	6	Velocidad del viento	0
144510	7	Sololá	713	San Lucas Tolimán	10	San Lucas Tolimán	8	Agosto	2023-08-30T00:00:00	2024-11-08T01:00:00	7	Dirección del viento	0
144511	7	Sololá	713	San Lucas Tolimán	10	San Lucas Tolimán	8	Agosto	2023-08-30T00:00:00	2024-11-08T01:00:00	1	Precipitación	0
144512	7	Sololá	713	San Lucas Tolimán	10	San Lucas Tolimán	8	Agosto	2023-08-30T00:00:00	2024-11-08T01:00:00	8	Radiación solar	0
144513	7	Sololá	713	San Lucas Tolimán	10	San Lucas Tolimán	8	Agosto	2023-08-30T00:00:00	2024-11-08T02:00:00	2	Temperatura media	17.9
144514	7	Sololá	713	San Lucas Tolimán	10	San Lucas Tolimán	8	Agosto	2023-08-30T00:00:00	2024-11-08T02:00:00	4	Temperatura máxima	17.9
144515	7	Sololá	713	San Lucas Tolimán	10	San Lucas Tolimán	8	Agosto	2023-08-30T00:00:00	2024-11-08T02:00:00	3	Temperatura mínima	17.7
144516	7	Sololá	713	San Lucas Tolimán	10	San Lucas Tolimán	8	Agosto	2023-08-30T00:00:00	2024-11-08T02:00:00	5	Humedad	68
144517	7	Sololá	713	San Lucas Tolimán	10	San Lucas Tolimán	8	Agosto	2023-08-30T00:00:00	2024-11-08T02:00:00	6	Velocidad del viento	1.6
144518	7	Sololá	713	San Lucas Tolimán	10	San Lucas Tolimán	8	Agosto	2023-08-30T00:00:00	2024-11-08T02:00:00	7	Dirección del viento	1.61
144519	7	Sololá	713	San Lucas Tolimán	10	San Lucas Tolimán	8	Agosto	2023-08-30T00:00:00	2024-11-08T02:00:00	1	Precipitación	0
144520	7	Sololá	713	San Lucas Tolimán	10	San Lucas Tolimán	8	Agosto	2023-08-30T00:00:00	2024-11-08T02:00:00	8	Radiación solar	0
144521	7	Sololá	713	San Lucas Tolimán	10	San Lucas Tolimán	8	Agosto	2023-08-30T00:00:00	2024-11-08T03:00:00	2	Temperatura media	18.4
144522	7	Sololá	713	San Lucas Tolimán	10	San Lucas Tolimán	8	Agosto	2023-08-30T00:00:00	2024-11-08T03:00:00	4	Temperatura máxima	18.4
144523	7	Sololá	713	San Lucas Tolimán	10	San Lucas Tolimán	8	Agosto	2023-08-30T00:00:00	2024-11-08T03:00:00	3	Temperatura mínima	17.9
144524	7	Sololá	713	San Lucas Tolimán	10	San Lucas Tolimán	8	Agosto	2023-08-30T00:00:00	2024-11-08T03:00:00	5	Humedad	68
144525	7	Sololá	713	San Lucas Tolimán	10	San Lucas Tolimán	8	Agosto	2023-08-30T00:00:00	2024-11-08T03:00:00	6	Velocidad del viento	4.8
144526	7	Sololá	713	San Lucas Tolimán	10	San Lucas Tolimán	8	Agosto	2023-08-30T00:00:00	2024-11-08T03:00:00	7	Dirección del viento	4.83
144527	7	Sololá	713	San Lucas Tolimán	10	San Lucas Tolimán	8	Agosto	2023-08-30T00:00:00	2024-11-08T03:00:00	1	Precipitación	0
144528	7	Sololá	713	San Lucas Tolimán	10	San Lucas Tolimán	8	Agosto	2023-08-30T00:00:00	2024-11-08T03:00:00	8	Radiación solar	0
144529	7	Sololá	713	San Lucas Tolimán	10	San Lucas Tolimán	8	Agosto	2023-08-30T00:00:00	2024-11-08T04:00:00	2	Temperatura media	18.3
144530	7	Sololá	713	San Lucas Tolimán	10	San Lucas Tolimán	8	Agosto	2023-08-30T00:00:00	2024-11-08T04:00:00	4	Temperatura máxima	18.6
144531	7	Sololá	713	San Lucas Tolimán	10	San Lucas Tolimán	8	Agosto	2023-08-30T00:00:00	2024-11-08T04:00:00	3	Temperatura mínima	18.2
144532	7	Sololá	713	San Lucas Tolimán	10	San Lucas Tolimán	8	Agosto	2023-08-30T00:00:00	2024-11-08T04:00:00	5	Humedad	67
144533	7	Sololá	713	San Lucas Tolimán	10	San Lucas Tolimán	8	Agosto	2023-08-30T00:00:00	2024-11-08T04:00:00	6	Velocidad del viento	3.2
144534	7	Sololá	713	San Lucas Tolimán	10	San Lucas Tolimán	8	Agosto	2023-08-30T00:00:00	2024-11-08T04:00:00	7	Dirección del viento	3.22
144535	7	Sololá	713	San Lucas Tolimán	10	San Lucas Tolimán	8	Agosto	2023-08-30T00:00:00	2024-11-08T04:00:00	1	Precipitación	0
144536	7	Sololá	713	San Lucas Tolimán	10	San Lucas Tolimán	8	Agosto	2023-08-30T00:00:00	2024-11-08T04:00:00	8	Radiación solar	0
144537	7	Sololá	713	San Lucas Tolimán	10	San Lucas Tolimán	8	Agosto	2023-08-30T00:00:00	2024-11-08T05:00:00	2	Temperatura media	18.2
144538	7	Sololá	713	San Lucas Tolimán	10	San Lucas Tolimán	8	Agosto	2023-08-30T00:00:00	2024-11-08T05:00:00	4	Temperatura máxima	18.4
144539	7	Sololá	713	San Lucas Tolimán	10	San Lucas Tolimán	8	Agosto	2023-08-30T00:00:00	2024-11-08T05:00:00	3	Temperatura mínima	18.2
144540	7	Sololá	713	San Lucas Tolimán	10	San Lucas Tolimán	8	Agosto	2023-08-30T00:00:00	2024-11-08T05:00:00	5	Humedad	66
144541	7	Sololá	713	San Lucas Tolimán	10	San Lucas Tolimán	8	Agosto	2023-08-30T00:00:00	2024-11-08T05:00:00	6	Velocidad del viento	0
144542	7	Sololá	713	San Lucas Tolimán	10	San Lucas Tolimán	8	Agosto	2023-08-30T00:00:00	2024-11-08T05:00:00	7	Dirección del viento	0
144543	7	Sololá	713	San Lucas Tolimán	10	San Lucas Tolimán	8	Agosto	2023-08-30T00:00:00	2024-11-08T05:00:00	1	Precipitación	0
144544	7	Sololá	713	San Lucas Tolimán	10	San Lucas Tolimán	8	Agosto	2023-08-30T00:00:00	2024-11-08T05:00:00	8	Radiación solar	0
144545	7	Sololá	713	San Lucas Tolimán	10	San Lucas Tolimán	8	Agosto	2023-08-30T00:00:00	2024-11-08T06:00:00	2	Temperatura media	17.6
144546	7	Sololá	713	San Lucas Tolimán	10	San Lucas Tolimán	8	Agosto	2023-08-30T00:00:00	2024-11-08T06:00:00	4	Temperatura máxima	18.1
144547	7	Sololá	713	San Lucas Tolimán	10	San Lucas Tolimán	8	Agosto	2023-08-30T00:00:00	2024-11-08T06:00:00	3	Temperatura mínima	17.6
144548	7	Sololá	713	San Lucas Tolimán	10	San Lucas Tolimán	8	Agosto	2023-08-30T00:00:00	2024-11-08T06:00:00	5	Humedad	67
144549	7	Sololá	713	San Lucas Tolimán	10	San Lucas Tolimán	8	Agosto	2023-08-30T00:00:00	2024-11-08T06:00:00	6	Velocidad del viento	0
144550	7	Sololá	713	San Lucas Tolimán	10	San Lucas Tolimán	8	Agosto	2023-08-30T00:00:00	2024-11-08T06:00:00	7	Dirección del viento	0
144551	7	Sololá	713	San Lucas Tolimán	10	San Lucas Tolimán	8	Agosto	2023-08-30T00:00:00	2024-11-08T06:00:00	1	Precipitación	0
144552	7	Sololá	713	San Lucas Tolimán	10	San Lucas Tolimán	8	Agosto	2023-08-30T00:00:00	2024-11-08T06:00:00	8	Radiación solar	0
144553	7	Sololá	713	San Lucas Tolimán	10	San Lucas Tolimán	8	Agosto	2023-08-30T00:00:00	2024-11-08T07:00:00	2	Temperatura media	18.1
144554	7	Sololá	713	San Lucas Tolimán	10	San Lucas Tolimán	8	Agosto	2023-08-30T00:00:00	2024-11-08T07:00:00	4	Temperatura máxima	18.1
144555	7	Sololá	713	San Lucas Tolimán	10	San Lucas Tolimán	8	Agosto	2023-08-30T00:00:00	2024-11-08T07:00:00	3	Temperatura mínima	17.6
144556	7	Sololá	713	San Lucas Tolimán	10	San Lucas Tolimán	8	Agosto	2023-08-30T00:00:00	2024-11-08T07:00:00	5	Humedad	67
144557	7	Sololá	713	San Lucas Tolimán	10	San Lucas Tolimán	8	Agosto	2023-08-30T00:00:00	2024-11-08T07:00:00	6	Velocidad del viento	0
144558	7	Sololá	713	San Lucas Tolimán	10	San Lucas Tolimán	8	Agosto	2023-08-30T00:00:00	2024-11-08T07:00:00	7	Dirección del viento	0
144559	7	Sololá	713	San Lucas Tolimán	10	San Lucas Tolimán	8	Agosto	2023-08-30T00:00:00	2024-11-08T07:00:00	1	Precipitación	0
144560	7	Sololá	713	San Lucas Tolimán	10	San Lucas Tolimán	8	Agosto	2023-08-30T00:00:00	2024-11-08T07:00:00	8	Radiación solar	40
144561	7	Sololá	713	San Lucas Tolimán	10	San Lucas Tolimán	8	Agosto	2023-08-30T00:00:00	2024-11-08T08:00:00	2	Temperatura media	19.9
144562	7	Sololá	713	San Lucas Tolimán	10	San Lucas Tolimán	8	Agosto	2023-08-30T00:00:00	2024-11-08T08:00:00	4	Temperatura máxima	19.9
144563	7	Sololá	713	San Lucas Tolimán	10	San Lucas Tolimán	8	Agosto	2023-08-30T00:00:00	2024-11-08T08:00:00	3	Temperatura mínima	18.1
144564	7	Sololá	713	San Lucas Tolimán	10	San Lucas Tolimán	8	Agosto	2023-08-30T00:00:00	2024-11-08T08:00:00	5	Humedad	62
144565	7	Sololá	713	San Lucas Tolimán	10	San Lucas Tolimán	8	Agosto	2023-08-30T00:00:00	2024-11-08T08:00:00	6	Velocidad del viento	0
144566	7	Sololá	713	San Lucas Tolimán	10	San Lucas Tolimán	8	Agosto	2023-08-30T00:00:00	2024-11-08T08:00:00	7	Dirección del viento	0
144567	7	Sololá	713	San Lucas Tolimán	10	San Lucas Tolimán	8	Agosto	2023-08-30T00:00:00	2024-11-08T08:00:00	1	Precipitación	0
144568	7	Sololá	713	San Lucas Tolimán	10	San Lucas Tolimán	8	Agosto	2023-08-30T00:00:00	2024-11-08T08:00:00	8	Radiación solar	204
144569	7	Sololá	713	San Lucas Tolimán	10	San Lucas Tolimán	8	Agosto	2023-08-30T00:00:00	2024-11-08T09:00:00	2	Temperatura media	21.6
144570	7	Sololá	713	San Lucas Tolimán	10	San Lucas Tolimán	8	Agosto	2023-08-30T00:00:00	2024-11-08T09:00:00	4	Temperatura máxima	21.6
144571	7	Sololá	713	San Lucas Tolimán	10	San Lucas Tolimán	8	Agosto	2023-08-30T00:00:00	2024-11-08T09:00:00	3	Temperatura mínima	20
144572	7	Sololá	713	San Lucas Tolimán	10	San Lucas Tolimán	8	Agosto	2023-08-30T00:00:00	2024-11-08T09:00:00	5	Humedad	56
144573	7	Sololá	713	San Lucas Tolimán	10	San Lucas Tolimán	8	Agosto	2023-08-30T00:00:00	2024-11-08T09:00:00	6	Velocidad del viento	3.2
144574	7	Sololá	713	San Lucas Tolimán	10	San Lucas Tolimán	8	Agosto	2023-08-30T00:00:00	2024-11-08T09:00:00	7	Dirección del viento	3.22
144575	7	Sololá	713	San Lucas Tolimán	10	San Lucas Tolimán	8	Agosto	2023-08-30T00:00:00	2024-11-08T09:00:00	1	Precipitación	0
144576	7	Sololá	713	San Lucas Tolimán	10	San Lucas Tolimán	8	Agosto	2023-08-30T00:00:00	2024-11-08T09:00:00	8	Radiación solar	309
144577	7	Sololá	713	San Lucas Tolimán	10	San Lucas Tolimán	8	Agosto	2023-08-30T00:00:00	2024-11-08T10:00:00	2	Temperatura media	23
144578	7	Sololá	713	San Lucas Tolimán	10	San Lucas Tolimán	8	Agosto	2023-08-30T00:00:00	2024-11-08T10:00:00	4	Temperatura máxima	23
144579	7	Sololá	713	San Lucas Tolimán	10	San Lucas Tolimán	8	Agosto	2023-08-30T00:00:00	2024-11-08T10:00:00	3	Temperatura mínima	21.5
144580	7	Sololá	713	San Lucas Tolimán	10	San Lucas Tolimán	8	Agosto	2023-08-30T00:00:00	2024-11-08T10:00:00	5	Humedad	53
144581	7	Sololá	713	San Lucas Tolimán	10	San Lucas Tolimán	8	Agosto	2023-08-30T00:00:00	2024-11-08T10:00:00	6	Velocidad del viento	6.4
144582	7	Sololá	713	San Lucas Tolimán	10	San Lucas Tolimán	8	Agosto	2023-08-30T00:00:00	2024-11-08T10:00:00	7	Dirección del viento	6.44
144583	7	Sololá	713	San Lucas Tolimán	10	San Lucas Tolimán	8	Agosto	2023-08-30T00:00:00	2024-11-08T10:00:00	1	Precipitación	0
144584	7	Sololá	713	San Lucas Tolimán	10	San Lucas Tolimán	8	Agosto	2023-08-30T00:00:00	2024-11-08T10:00:00	8	Radiación solar	603
144585	7	Sololá	713	San Lucas Tolimán	10	San Lucas Tolimán	8	Agosto	2023-08-30T00:00:00	2024-11-08T11:00:00	2	Temperatura media	22.6
144586	7	Sololá	713	San Lucas Tolimán	10	San Lucas Tolimán	8	Agosto	2023-08-30T00:00:00	2024-11-08T11:00:00	4	Temperatura máxima	24.2
144587	7	Sololá	713	San Lucas Tolimán	10	San Lucas Tolimán	8	Agosto	2023-08-30T00:00:00	2024-11-08T11:00:00	3	Temperatura mínima	22.5
144588	7	Sololá	713	San Lucas Tolimán	10	San Lucas Tolimán	8	Agosto	2023-08-30T00:00:00	2024-11-08T11:00:00	5	Humedad	54
144589	7	Sololá	713	San Lucas Tolimán	10	San Lucas Tolimán	8	Agosto	2023-08-30T00:00:00	2024-11-08T11:00:00	6	Velocidad del viento	8
144590	7	Sololá	713	San Lucas Tolimán	10	San Lucas Tolimán	8	Agosto	2023-08-30T00:00:00	2024-11-08T11:00:00	7	Dirección del viento	8.05
144591	7	Sololá	713	San Lucas Tolimán	10	San Lucas Tolimán	8	Agosto	2023-08-30T00:00:00	2024-11-08T11:00:00	1	Precipitación	0
144592	7	Sololá	713	San Lucas Tolimán	10	San Lucas Tolimán	8	Agosto	2023-08-30T00:00:00	2024-11-08T11:00:00	8	Radiación solar	780
144593	7	Sololá	713	San Lucas Tolimán	10	San Lucas Tolimán	8	Agosto	2023-08-30T00:00:00	2024-11-08T12:00:00	2	Temperatura media	24.1
144594	7	Sololá	713	San Lucas Tolimán	10	San Lucas Tolimán	8	Agosto	2023-08-30T00:00:00	2024-11-08T12:00:00	4	Temperatura máxima	24.1
144595	7	Sololá	713	San Lucas Tolimán	10	San Lucas Tolimán	8	Agosto	2023-08-30T00:00:00	2024-11-08T12:00:00	3	Temperatura mínima	22.6
144596	7	Sololá	713	San Lucas Tolimán	10	San Lucas Tolimán	8	Agosto	2023-08-30T00:00:00	2024-11-08T12:00:00	5	Humedad	53
144597	7	Sololá	713	San Lucas Tolimán	10	San Lucas Tolimán	8	Agosto	2023-08-30T00:00:00	2024-11-08T12:00:00	6	Velocidad del viento	9.7
144598	7	Sololá	713	San Lucas Tolimán	10	San Lucas Tolimán	8	Agosto	2023-08-30T00:00:00	2024-11-08T12:00:00	7	Dirección del viento	9.66
144599	7	Sololá	713	San Lucas Tolimán	10	San Lucas Tolimán	8	Agosto	2023-08-30T00:00:00	2024-11-08T12:00:00	1	Precipitación	0
144600	7	Sololá	713	San Lucas Tolimán	10	San Lucas Tolimán	8	Agosto	2023-08-30T00:00:00	2024-11-08T12:00:00	8	Radiación solar	1069
144601	7	Sololá	713	San Lucas Tolimán	10	San Lucas Tolimán	8	Agosto	2023-08-30T00:00:00	2024-11-08T13:00:00	2	Temperatura media	24.3
144602	7	Sololá	713	San Lucas Tolimán	10	San Lucas Tolimán	8	Agosto	2023-08-30T00:00:00	2024-11-08T13:00:00	4	Temperatura máxima	24.7
144603	7	Sololá	713	San Lucas Tolimán	10	San Lucas Tolimán	8	Agosto	2023-08-30T00:00:00	2024-11-08T13:00:00	3	Temperatura mínima	24.1
144604	7	Sololá	713	San Lucas Tolimán	10	San Lucas Tolimán	8	Agosto	2023-08-30T00:00:00	2024-11-08T13:00:00	5	Humedad	52
144605	7	Sololá	713	San Lucas Tolimán	10	San Lucas Tolimán	8	Agosto	2023-08-30T00:00:00	2024-11-08T13:00:00	6	Velocidad del viento	9.7
144606	7	Sololá	713	San Lucas Tolimán	10	San Lucas Tolimán	8	Agosto	2023-08-30T00:00:00	2024-11-08T13:00:00	7	Dirección del viento	9.66
144607	7	Sololá	713	San Lucas Tolimán	10	San Lucas Tolimán	8	Agosto	2023-08-30T00:00:00	2024-11-08T13:00:00	1	Precipitación	0
144608	7	Sololá	713	San Lucas Tolimán	10	San Lucas Tolimán	8	Agosto	2023-08-30T00:00:00	2024-11-08T13:00:00	8	Radiación solar	1238
144609	7	Sololá	713	San Lucas Tolimán	10	San Lucas Tolimán	8	Agosto	2023-08-30T00:00:00	2024-11-08T14:00:00	2	Temperatura media	23.1
144610	7	Sololá	713	San Lucas Tolimán	10	San Lucas Tolimán	8	Agosto	2023-08-30T00:00:00	2024-11-08T14:00:00	4	Temperatura máxima	24.4
144611	7	Sololá	713	San Lucas Tolimán	10	San Lucas Tolimán	8	Agosto	2023-08-30T00:00:00	2024-11-08T14:00:00	3	Temperatura mínima	23
144612	7	Sololá	713	San Lucas Tolimán	10	San Lucas Tolimán	8	Agosto	2023-08-30T00:00:00	2024-11-08T14:00:00	5	Humedad	60
144613	7	Sololá	713	San Lucas Tolimán	10	San Lucas Tolimán	8	Agosto	2023-08-30T00:00:00	2024-11-08T14:00:00	6	Velocidad del viento	11.3
144614	7	Sololá	713	San Lucas Tolimán	10	San Lucas Tolimán	8	Agosto	2023-08-30T00:00:00	2024-11-08T14:00:00	7	Dirección del viento	11.27
144615	7	Sololá	713	San Lucas Tolimán	10	San Lucas Tolimán	8	Agosto	2023-08-30T00:00:00	2024-11-08T14:00:00	1	Precipitación	0
144616	7	Sololá	713	San Lucas Tolimán	10	San Lucas Tolimán	8	Agosto	2023-08-30T00:00:00	2024-11-08T14:00:00	8	Radiación solar	793
144617	7	Sololá	713	San Lucas Tolimán	10	San Lucas Tolimán	8	Agosto	2023-08-30T00:00:00	2024-11-08T15:00:00	2	Temperatura media	21.3
144618	7	Sololá	713	San Lucas Tolimán	10	San Lucas Tolimán	8	Agosto	2023-08-30T00:00:00	2024-11-08T15:00:00	4	Temperatura máxima	23.1
144619	7	Sololá	713	San Lucas Tolimán	10	San Lucas Tolimán	8	Agosto	2023-08-30T00:00:00	2024-11-08T15:00:00	3	Temperatura mínima	21.3
144620	7	Sololá	713	San Lucas Tolimán	10	San Lucas Tolimán	8	Agosto	2023-08-30T00:00:00	2024-11-08T15:00:00	5	Humedad	62
144621	7	Sololá	713	San Lucas Tolimán	10	San Lucas Tolimán	8	Agosto	2023-08-30T00:00:00	2024-11-08T15:00:00	6	Velocidad del viento	11.3
144622	7	Sololá	713	San Lucas Tolimán	10	San Lucas Tolimán	8	Agosto	2023-08-30T00:00:00	2024-11-08T15:00:00	7	Dirección del viento	11.27
144623	7	Sololá	713	San Lucas Tolimán	10	San Lucas Tolimán	8	Agosto	2023-08-30T00:00:00	2024-11-08T15:00:00	1	Precipitación	0
144624	7	Sololá	713	San Lucas Tolimán	10	San Lucas Tolimán	8	Agosto	2023-08-30T00:00:00	2024-11-08T15:00:00	8	Radiación solar	241
144625	7	Sololá	713	San Lucas Tolimán	10	San Lucas Tolimán	8	Agosto	2023-08-30T00:00:00	2024-11-08T16:00:00	2	Temperatura media	21.2
144626	7	Sololá	713	San Lucas Tolimán	10	San Lucas Tolimán	8	Agosto	2023-08-30T00:00:00	2024-11-08T16:00:00	4	Temperatura máxima	21.4
144627	7	Sololá	713	San Lucas Tolimán	10	San Lucas Tolimán	8	Agosto	2023-08-30T00:00:00	2024-11-08T16:00:00	3	Temperatura mínima	20.7
144628	7	Sololá	713	San Lucas Tolimán	10	San Lucas Tolimán	8	Agosto	2023-08-30T00:00:00	2024-11-08T16:00:00	5	Humedad	63
144629	7	Sololá	713	San Lucas Tolimán	10	San Lucas Tolimán	8	Agosto	2023-08-30T00:00:00	2024-11-08T16:00:00	6	Velocidad del viento	6.4
144630	7	Sololá	713	San Lucas Tolimán	10	San Lucas Tolimán	8	Agosto	2023-08-30T00:00:00	2024-11-08T16:00:00	7	Dirección del viento	6.44
144631	7	Sololá	713	San Lucas Tolimán	10	San Lucas Tolimán	8	Agosto	2023-08-30T00:00:00	2024-11-08T16:00:00	1	Precipitación	0.2
144632	7	Sololá	713	San Lucas Tolimán	10	San Lucas Tolimán	8	Agosto	2023-08-30T00:00:00	2024-11-08T16:00:00	8	Radiación solar	266
144633	7	Sololá	713	San Lucas Tolimán	10	San Lucas Tolimán	8	Agosto	2023-08-30T00:00:00	2024-11-08T17:00:00	2	Temperatura media	21.3
144634	7	Sololá	713	San Lucas Tolimán	10	San Lucas Tolimán	8	Agosto	2023-08-30T00:00:00	2024-11-08T17:00:00	4	Temperatura máxima	21.7
144635	7	Sololá	713	San Lucas Tolimán	10	San Lucas Tolimán	8	Agosto	2023-08-30T00:00:00	2024-11-08T17:00:00	3	Temperatura mínima	21.2
144636	7	Sololá	713	San Lucas Tolimán	10	San Lucas Tolimán	8	Agosto	2023-08-30T00:00:00	2024-11-08T17:00:00	5	Humedad	62
144637	7	Sololá	713	San Lucas Tolimán	10	San Lucas Tolimán	8	Agosto	2023-08-30T00:00:00	2024-11-08T17:00:00	6	Velocidad del viento	3.2
144638	7	Sololá	713	San Lucas Tolimán	10	San Lucas Tolimán	8	Agosto	2023-08-30T00:00:00	2024-11-08T17:00:00	7	Dirección del viento	3.22
144639	7	Sololá	713	San Lucas Tolimán	10	San Lucas Tolimán	8	Agosto	2023-08-30T00:00:00	2024-11-08T17:00:00	1	Precipitación	0
144640	7	Sololá	713	San Lucas Tolimán	10	San Lucas Tolimán	8	Agosto	2023-08-30T00:00:00	2024-11-08T17:00:00	8	Radiación solar	170
144641	7	Sololá	713	San Lucas Tolimán	10	San Lucas Tolimán	8	Agosto	2023-08-30T00:00:00	2024-11-08T18:00:00	2	Temperatura media	20.6
144642	7	Sololá	713	San Lucas Tolimán	10	San Lucas Tolimán	8	Agosto	2023-08-30T00:00:00	2024-11-08T18:00:00	4	Temperatura máxima	21.4
144643	7	Sololá	713	San Lucas Tolimán	10	San Lucas Tolimán	8	Agosto	2023-08-30T00:00:00	2024-11-08T18:00:00	3	Temperatura mínima	20.5
144644	7	Sololá	713	San Lucas Tolimán	10	San Lucas Tolimán	8	Agosto	2023-08-30T00:00:00	2024-11-08T18:00:00	5	Humedad	64
144645	7	Sololá	713	San Lucas Tolimán	10	San Lucas Tolimán	8	Agosto	2023-08-30T00:00:00	2024-11-08T18:00:00	6	Velocidad del viento	3.2
144646	7	Sololá	713	San Lucas Tolimán	10	San Lucas Tolimán	8	Agosto	2023-08-30T00:00:00	2024-11-08T18:00:00	7	Dirección del viento	3.22
144647	7	Sololá	713	San Lucas Tolimán	10	San Lucas Tolimán	8	Agosto	2023-08-30T00:00:00	2024-11-08T18:00:00	1	Precipitación	0
144648	7	Sololá	713	San Lucas Tolimán	10	San Lucas Tolimán	8	Agosto	2023-08-30T00:00:00	2024-11-08T18:00:00	8	Radiación solar	41
144649	7	Sololá	713	San Lucas Tolimán	10	San Lucas Tolimán	8	Agosto	2023-08-30T00:00:00	2024-11-08T19:00:00	2	Temperatura media	19.8
144650	7	Sololá	713	San Lucas Tolimán	10	San Lucas Tolimán	8	Agosto	2023-08-30T00:00:00	2024-11-08T19:00:00	4	Temperatura máxima	20.6
144651	7	Sololá	713	San Lucas Tolimán	10	San Lucas Tolimán	8	Agosto	2023-08-30T00:00:00	2024-11-08T19:00:00	3	Temperatura mínima	19.8
144652	7	Sololá	713	San Lucas Tolimán	10	San Lucas Tolimán	8	Agosto	2023-08-30T00:00:00	2024-11-08T19:00:00	5	Humedad	64
144653	7	Sololá	713	San Lucas Tolimán	10	San Lucas Tolimán	8	Agosto	2023-08-30T00:00:00	2024-11-08T19:00:00	6	Velocidad del viento	3.2
144654	7	Sololá	713	San Lucas Tolimán	10	San Lucas Tolimán	8	Agosto	2023-08-30T00:00:00	2024-11-08T19:00:00	7	Dirección del viento	3.22
144655	7	Sololá	713	San Lucas Tolimán	10	San Lucas Tolimán	8	Agosto	2023-08-30T00:00:00	2024-11-08T19:00:00	1	Precipitación	0
144656	7	Sololá	713	San Lucas Tolimán	10	San Lucas Tolimán	8	Agosto	2023-08-30T00:00:00	2024-11-08T19:00:00	8	Radiación solar	0
144657	7	Sololá	713	San Lucas Tolimán	10	San Lucas Tolimán	8	Agosto	2023-08-30T00:00:00	2024-11-08T20:00:00	2	Temperatura media	19.3
144658	7	Sololá	713	San Lucas Tolimán	10	San Lucas Tolimán	8	Agosto	2023-08-30T00:00:00	2024-11-08T20:00:00	4	Temperatura máxima	20.1
144659	7	Sololá	713	San Lucas Tolimán	10	San Lucas Tolimán	8	Agosto	2023-08-30T00:00:00	2024-11-08T20:00:00	3	Temperatura mínima	19.2
144660	7	Sololá	713	San Lucas Tolimán	10	San Lucas Tolimán	8	Agosto	2023-08-30T00:00:00	2024-11-08T20:00:00	5	Humedad	63
144661	7	Sololá	713	San Lucas Tolimán	10	San Lucas Tolimán	8	Agosto	2023-08-30T00:00:00	2024-11-08T20:00:00	6	Velocidad del viento	1.6
144662	7	Sololá	713	San Lucas Tolimán	10	San Lucas Tolimán	8	Agosto	2023-08-30T00:00:00	2024-11-08T20:00:00	7	Dirección del viento	1.61
144663	7	Sololá	713	San Lucas Tolimán	10	San Lucas Tolimán	8	Agosto	2023-08-30T00:00:00	2024-11-08T20:00:00	1	Precipitación	0
144664	7	Sololá	713	San Lucas Tolimán	10	San Lucas Tolimán	8	Agosto	2023-08-30T00:00:00	2024-11-08T20:00:00	8	Radiación solar	0
144665	7	Sololá	713	San Lucas Tolimán	10	San Lucas Tolimán	8	Agosto	2023-08-30T00:00:00	2024-11-08T21:00:00	2	Temperatura media	18.9
144666	7	Sololá	713	San Lucas Tolimán	10	San Lucas Tolimán	8	Agosto	2023-08-30T00:00:00	2024-11-08T21:00:00	4	Temperatura máxima	19.8
144667	7	Sololá	713	San Lucas Tolimán	10	San Lucas Tolimán	8	Agosto	2023-08-30T00:00:00	2024-11-08T21:00:00	3	Temperatura mínima	18.9
144668	7	Sololá	713	San Lucas Tolimán	10	San Lucas Tolimán	8	Agosto	2023-08-30T00:00:00	2024-11-08T21:00:00	5	Humedad	64
144669	7	Sololá	713	San Lucas Tolimán	10	San Lucas Tolimán	8	Agosto	2023-08-30T00:00:00	2024-11-08T21:00:00	6	Velocidad del viento	6.4
144670	7	Sololá	713	San Lucas Tolimán	10	San Lucas Tolimán	8	Agosto	2023-08-30T00:00:00	2024-11-08T21:00:00	7	Dirección del viento	6.44
144671	7	Sololá	713	San Lucas Tolimán	10	San Lucas Tolimán	8	Agosto	2023-08-30T00:00:00	2024-11-08T21:00:00	1	Precipitación	0
144672	7	Sololá	713	San Lucas Tolimán	10	San Lucas Tolimán	8	Agosto	2023-08-30T00:00:00	2024-11-08T21:00:00	8	Radiación solar	0
144673	7	Sololá	713	San Lucas Tolimán	10	San Lucas Tolimán	8	Agosto	2023-08-30T00:00:00	2024-11-08T22:00:00	2	Temperatura media	18.3
144674	7	Sololá	713	San Lucas Tolimán	10	San Lucas Tolimán	8	Agosto	2023-08-30T00:00:00	2024-11-08T22:00:00	4	Temperatura máxima	18.9
144675	7	Sololá	713	San Lucas Tolimán	10	San Lucas Tolimán	8	Agosto	2023-08-30T00:00:00	2024-11-08T22:00:00	3	Temperatura mínima	18.3
144676	7	Sololá	713	San Lucas Tolimán	10	San Lucas Tolimán	8	Agosto	2023-08-30T00:00:00	2024-11-08T22:00:00	5	Humedad	64
144677	7	Sololá	713	San Lucas Tolimán	10	San Lucas Tolimán	8	Agosto	2023-08-30T00:00:00	2024-11-08T22:00:00	6	Velocidad del viento	3.2
144678	7	Sololá	713	San Lucas Tolimán	10	San Lucas Tolimán	8	Agosto	2023-08-30T00:00:00	2024-11-08T22:00:00	7	Dirección del viento	3.22
144679	7	Sololá	713	San Lucas Tolimán	10	San Lucas Tolimán	8	Agosto	2023-08-30T00:00:00	2024-11-08T22:00:00	1	Precipitación	0
144680	7	Sololá	713	San Lucas Tolimán	10	San Lucas Tolimán	8	Agosto	2023-08-30T00:00:00	2024-11-08T22:00:00	8	Radiación solar	0
144681	7	Sololá	713	San Lucas Tolimán	10	San Lucas Tolimán	8	Agosto	2023-08-30T00:00:00	2024-11-08T23:00:00	2	Temperatura media	17.8
144682	7	Sololá	713	San Lucas Tolimán	10	San Lucas Tolimán	8	Agosto	2023-08-30T00:00:00	2024-11-08T23:00:00	4	Temperatura máxima	18.3
144683	7	Sololá	713	San Lucas Tolimán	10	San Lucas Tolimán	8	Agosto	2023-08-30T00:00:00	2024-11-08T23:00:00	3	Temperatura mínima	17.8
144684	7	Sololá	713	San Lucas Tolimán	10	San Lucas Tolimán	8	Agosto	2023-08-30T00:00:00	2024-11-08T23:00:00	5	Humedad	64
144685	7	Sololá	713	San Lucas Tolimán	10	San Lucas Tolimán	8	Agosto	2023-08-30T00:00:00	2024-11-08T23:00:00	6	Velocidad del viento	3.2
144686	7	Sololá	713	San Lucas Tolimán	10	San Lucas Tolimán	8	Agosto	2023-08-30T00:00:00	2024-11-08T23:00:00	7	Dirección del viento	3.22
144687	7	Sololá	713	San Lucas Tolimán	10	San Lucas Tolimán	8	Agosto	2023-08-30T00:00:00	2024-11-08T23:00:00	1	Precipitación	0
144688	7	Sololá	713	San Lucas Tolimán	10	San Lucas Tolimán	8	Agosto	2023-08-30T00:00:00	2024-11-08T23:00:00	8	Radiación solar	0
144689	7	Sololá	713	San Lucas Tolimán	10	San Lucas Tolimán	8	Agosto	2023-08-31T00:00:00	2024-11-08T00:00:00	2	Temperatura media	18.3
144690	7	Sololá	713	San Lucas Tolimán	10	San Lucas Tolimán	8	Agosto	2023-08-31T00:00:00	2024-11-08T00:00:00	4	Temperatura máxima	18.4
144691	7	Sololá	713	San Lucas Tolimán	10	San Lucas Tolimán	8	Agosto	2023-08-31T00:00:00	2024-11-08T00:00:00	3	Temperatura mínima	17.8
144692	7	Sololá	713	San Lucas Tolimán	10	San Lucas Tolimán	8	Agosto	2023-08-31T00:00:00	2024-11-08T00:00:00	5	Humedad	64
144693	7	Sololá	713	San Lucas Tolimán	10	San Lucas Tolimán	8	Agosto	2023-08-31T00:00:00	2024-11-08T00:00:00	6	Velocidad del viento	1.6
144694	7	Sololá	713	San Lucas Tolimán	10	San Lucas Tolimán	8	Agosto	2023-08-31T00:00:00	2024-11-08T00:00:00	7	Dirección del viento	1.61
144695	7	Sololá	713	San Lucas Tolimán	10	San Lucas Tolimán	8	Agosto	2023-08-31T00:00:00	2024-11-08T00:00:00	1	Precipitación	0
144696	7	Sololá	713	San Lucas Tolimán	10	San Lucas Tolimán	8	Agosto	2023-08-31T00:00:00	2024-11-08T00:00:00	8	Radiación solar	0
144697	7	Sololá	713	San Lucas Tolimán	10	San Lucas Tolimán	8	Agosto	2023-08-31T00:00:00	2024-11-08T01:00:00	2	Temperatura media	18.8
144698	7	Sololá	713	San Lucas Tolimán	10	San Lucas Tolimán	8	Agosto	2023-08-31T00:00:00	2024-11-08T01:00:00	4	Temperatura máxima	19
144699	7	Sololá	713	San Lucas Tolimán	10	San Lucas Tolimán	8	Agosto	2023-08-31T00:00:00	2024-11-08T01:00:00	3	Temperatura mínima	18.3
144700	7	Sololá	713	San Lucas Tolimán	10	San Lucas Tolimán	8	Agosto	2023-08-31T00:00:00	2024-11-08T01:00:00	5	Humedad	64
144701	7	Sololá	713	San Lucas Tolimán	10	San Lucas Tolimán	8	Agosto	2023-08-31T00:00:00	2024-11-08T01:00:00	6	Velocidad del viento	1.6
144702	7	Sololá	713	San Lucas Tolimán	10	San Lucas Tolimán	8	Agosto	2023-08-31T00:00:00	2024-11-08T01:00:00	7	Dirección del viento	1.61
144703	7	Sololá	713	San Lucas Tolimán	10	San Lucas Tolimán	8	Agosto	2023-08-31T00:00:00	2024-11-08T01:00:00	1	Precipitación	0
144704	7	Sololá	713	San Lucas Tolimán	10	San Lucas Tolimán	8	Agosto	2023-08-31T00:00:00	2024-11-08T01:00:00	8	Radiación solar	0
144705	7	Sololá	713	San Lucas Tolimán	10	San Lucas Tolimán	8	Agosto	2023-08-31T00:00:00	2024-11-08T02:00:00	2	Temperatura media	18.4
144706	7	Sololá	713	San Lucas Tolimán	10	San Lucas Tolimán	8	Agosto	2023-08-31T00:00:00	2024-11-08T02:00:00	4	Temperatura máxima	18.8
144707	7	Sololá	713	San Lucas Tolimán	10	San Lucas Tolimán	8	Agosto	2023-08-31T00:00:00	2024-11-08T02:00:00	3	Temperatura mínima	18.4
144708	7	Sololá	713	San Lucas Tolimán	10	San Lucas Tolimán	8	Agosto	2023-08-31T00:00:00	2024-11-08T02:00:00	5	Humedad	64
144709	7	Sololá	713	San Lucas Tolimán	10	San Lucas Tolimán	8	Agosto	2023-08-31T00:00:00	2024-11-08T02:00:00	6	Velocidad del viento	0
144710	7	Sololá	713	San Lucas Tolimán	10	San Lucas Tolimán	8	Agosto	2023-08-31T00:00:00	2024-11-08T02:00:00	7	Dirección del viento	0
144711	7	Sololá	713	San Lucas Tolimán	10	San Lucas Tolimán	8	Agosto	2023-08-31T00:00:00	2024-11-08T02:00:00	1	Precipitación	0
144712	7	Sololá	713	San Lucas Tolimán	10	San Lucas Tolimán	8	Agosto	2023-08-31T00:00:00	2024-11-08T02:00:00	8	Radiación solar	0
144713	7	Sololá	713	San Lucas Tolimán	10	San Lucas Tolimán	8	Agosto	2023-08-31T00:00:00	2024-11-08T03:00:00	2	Temperatura media	17.9
144714	7	Sololá	713	San Lucas Tolimán	10	San Lucas Tolimán	8	Agosto	2023-08-31T00:00:00	2024-11-08T03:00:00	4	Temperatura máxima	18.4
144715	7	Sololá	713	San Lucas Tolimán	10	San Lucas Tolimán	8	Agosto	2023-08-31T00:00:00	2024-11-08T03:00:00	3	Temperatura mínima	17.9
144716	7	Sololá	713	San Lucas Tolimán	10	San Lucas Tolimán	8	Agosto	2023-08-31T00:00:00	2024-11-08T03:00:00	5	Humedad	64
144717	7	Sololá	713	San Lucas Tolimán	10	San Lucas Tolimán	8	Agosto	2023-08-31T00:00:00	2024-11-08T03:00:00	6	Velocidad del viento	1.6
144718	7	Sololá	713	San Lucas Tolimán	10	San Lucas Tolimán	8	Agosto	2023-08-31T00:00:00	2024-11-08T03:00:00	7	Dirección del viento	1.61
144719	7	Sololá	713	San Lucas Tolimán	10	San Lucas Tolimán	8	Agosto	2023-08-31T00:00:00	2024-11-08T03:00:00	1	Precipitación	0
144720	7	Sololá	713	San Lucas Tolimán	10	San Lucas Tolimán	8	Agosto	2023-08-31T00:00:00	2024-11-08T03:00:00	8	Radiación solar	0
144721	7	Sololá	713	San Lucas Tolimán	10	San Lucas Tolimán	8	Agosto	2023-08-31T00:00:00	2024-11-08T04:00:00	2	Temperatura media	17.8
144722	7	Sololá	713	San Lucas Tolimán	10	San Lucas Tolimán	8	Agosto	2023-08-31T00:00:00	2024-11-08T04:00:00	4	Temperatura máxima	17.9
144723	7	Sololá	713	San Lucas Tolimán	10	San Lucas Tolimán	8	Agosto	2023-08-31T00:00:00	2024-11-08T04:00:00	3	Temperatura mínima	17.7
144724	7	Sololá	713	San Lucas Tolimán	10	San Lucas Tolimán	8	Agosto	2023-08-31T00:00:00	2024-11-08T04:00:00	5	Humedad	65
144725	7	Sololá	713	San Lucas Tolimán	10	San Lucas Tolimán	8	Agosto	2023-08-31T00:00:00	2024-11-08T04:00:00	6	Velocidad del viento	1.6
144726	7	Sololá	713	San Lucas Tolimán	10	San Lucas Tolimán	8	Agosto	2023-08-31T00:00:00	2024-11-08T04:00:00	7	Dirección del viento	1.61
144727	7	Sololá	713	San Lucas Tolimán	10	San Lucas Tolimán	8	Agosto	2023-08-31T00:00:00	2024-11-08T04:00:00	1	Precipitación	0
144728	7	Sololá	713	San Lucas Tolimán	10	San Lucas Tolimán	8	Agosto	2023-08-31T00:00:00	2024-11-08T04:00:00	8	Radiación solar	0
144729	7	Sololá	713	San Lucas Tolimán	10	San Lucas Tolimán	8	Agosto	2023-08-31T00:00:00	2024-11-08T05:00:00	2	Temperatura media	18.4
144730	7	Sololá	713	San Lucas Tolimán	10	San Lucas Tolimán	8	Agosto	2023-08-31T00:00:00	2024-11-08T05:00:00	4	Temperatura máxima	18.4
144731	7	Sololá	713	San Lucas Tolimán	10	San Lucas Tolimán	8	Agosto	2023-08-31T00:00:00	2024-11-08T05:00:00	3	Temperatura mínima	17.8
144732	7	Sololá	713	San Lucas Tolimán	10	San Lucas Tolimán	8	Agosto	2023-08-31T00:00:00	2024-11-08T05:00:00	5	Humedad	63
144733	7	Sololá	713	San Lucas Tolimán	10	San Lucas Tolimán	8	Agosto	2023-08-31T00:00:00	2024-11-08T05:00:00	6	Velocidad del viento	1.6
144734	7	Sololá	713	San Lucas Tolimán	10	San Lucas Tolimán	8	Agosto	2023-08-31T00:00:00	2024-11-08T05:00:00	7	Dirección del viento	1.61
144735	7	Sololá	713	San Lucas Tolimán	10	San Lucas Tolimán	8	Agosto	2023-08-31T00:00:00	2024-11-08T05:00:00	1	Precipitación	0
144736	7	Sololá	713	San Lucas Tolimán	10	San Lucas Tolimán	8	Agosto	2023-08-31T00:00:00	2024-11-08T05:00:00	8	Radiación solar	0
144737	7	Sololá	713	San Lucas Tolimán	10	San Lucas Tolimán	8	Agosto	2023-08-31T00:00:00	2024-11-08T06:00:00	2	Temperatura media	17.9
144738	7	Sololá	713	San Lucas Tolimán	10	San Lucas Tolimán	8	Agosto	2023-08-31T00:00:00	2024-11-08T06:00:00	4	Temperatura máxima	18.4
144739	7	Sololá	713	San Lucas Tolimán	10	San Lucas Tolimán	8	Agosto	2023-08-31T00:00:00	2024-11-08T06:00:00	3	Temperatura mínima	17.9
144740	7	Sololá	713	San Lucas Tolimán	10	San Lucas Tolimán	8	Agosto	2023-08-31T00:00:00	2024-11-08T06:00:00	5	Humedad	64
144741	7	Sololá	713	San Lucas Tolimán	10	San Lucas Tolimán	8	Agosto	2023-08-31T00:00:00	2024-11-08T06:00:00	6	Velocidad del viento	0
144742	7	Sololá	713	San Lucas Tolimán	10	San Lucas Tolimán	8	Agosto	2023-08-31T00:00:00	2024-11-08T06:00:00	7	Dirección del viento	0
144743	7	Sololá	713	San Lucas Tolimán	10	San Lucas Tolimán	8	Agosto	2023-08-31T00:00:00	2024-11-08T06:00:00	1	Precipitación	0
144744	7	Sololá	713	San Lucas Tolimán	10	San Lucas Tolimán	8	Agosto	2023-08-31T00:00:00	2024-11-08T06:00:00	8	Radiación solar	0
144745	7	Sololá	713	San Lucas Tolimán	10	San Lucas Tolimán	8	Agosto	2023-08-31T00:00:00	2024-11-08T07:00:00	2	Temperatura media	19
144746	7	Sololá	713	San Lucas Tolimán	10	San Lucas Tolimán	8	Agosto	2023-08-31T00:00:00	2024-11-08T07:00:00	4	Temperatura máxima	19
144747	7	Sololá	713	San Lucas Tolimán	10	San Lucas Tolimán	8	Agosto	2023-08-31T00:00:00	2024-11-08T07:00:00	3	Temperatura mínima	17.9
144748	7	Sololá	713	San Lucas Tolimán	10	San Lucas Tolimán	8	Agosto	2023-08-31T00:00:00	2024-11-08T07:00:00	5	Humedad	63
144749	7	Sololá	713	San Lucas Tolimán	10	San Lucas Tolimán	8	Agosto	2023-08-31T00:00:00	2024-11-08T07:00:00	6	Velocidad del viento	1.6
144750	7	Sololá	713	San Lucas Tolimán	10	San Lucas Tolimán	8	Agosto	2023-08-31T00:00:00	2024-11-08T07:00:00	7	Dirección del viento	1.61
144751	7	Sololá	713	San Lucas Tolimán	10	San Lucas Tolimán	8	Agosto	2023-08-31T00:00:00	2024-11-08T07:00:00	1	Precipitación	0
144752	7	Sololá	713	San Lucas Tolimán	10	San Lucas Tolimán	8	Agosto	2023-08-31T00:00:00	2024-11-08T07:00:00	8	Radiación solar	50
144753	7	Sololá	713	San Lucas Tolimán	10	San Lucas Tolimán	8	Agosto	2023-08-31T00:00:00	2024-11-08T08:00:00	2	Temperatura media	21.4
144754	7	Sololá	713	San Lucas Tolimán	10	San Lucas Tolimán	8	Agosto	2023-08-31T00:00:00	2024-11-08T08:00:00	4	Temperatura máxima	21.4
144755	7	Sololá	713	San Lucas Tolimán	10	San Lucas Tolimán	8	Agosto	2023-08-31T00:00:00	2024-11-08T08:00:00	3	Temperatura mínima	19
144756	7	Sololá	713	San Lucas Tolimán	10	San Lucas Tolimán	8	Agosto	2023-08-31T00:00:00	2024-11-08T08:00:00	5	Humedad	57
144757	7	Sololá	713	San Lucas Tolimán	10	San Lucas Tolimán	8	Agosto	2023-08-31T00:00:00	2024-11-08T08:00:00	6	Velocidad del viento	3.2
144758	7	Sololá	713	San Lucas Tolimán	10	San Lucas Tolimán	8	Agosto	2023-08-31T00:00:00	2024-11-08T08:00:00	7	Dirección del viento	3.22
144759	7	Sololá	713	San Lucas Tolimán	10	San Lucas Tolimán	8	Agosto	2023-08-31T00:00:00	2024-11-08T08:00:00	1	Precipitación	0
144760	7	Sololá	713	San Lucas Tolimán	10	San Lucas Tolimán	8	Agosto	2023-08-31T00:00:00	2024-11-08T08:00:00	8	Radiación solar	233
144761	7	Sololá	713	San Lucas Tolimán	10	San Lucas Tolimán	8	Agosto	2023-08-31T00:00:00	2024-11-08T09:00:00	2	Temperatura media	22.9
144762	7	Sololá	713	San Lucas Tolimán	10	San Lucas Tolimán	8	Agosto	2023-08-31T00:00:00	2024-11-08T09:00:00	4	Temperatura máxima	22.9
144763	7	Sololá	713	San Lucas Tolimán	10	San Lucas Tolimán	8	Agosto	2023-08-31T00:00:00	2024-11-08T09:00:00	3	Temperatura mínima	21.4
144764	7	Sololá	713	San Lucas Tolimán	10	San Lucas Tolimán	8	Agosto	2023-08-31T00:00:00	2024-11-08T09:00:00	5	Humedad	52
144765	7	Sololá	713	San Lucas Tolimán	10	San Lucas Tolimán	8	Agosto	2023-08-31T00:00:00	2024-11-08T09:00:00	6	Velocidad del viento	4.8
144766	7	Sololá	713	San Lucas Tolimán	10	San Lucas Tolimán	8	Agosto	2023-08-31T00:00:00	2024-11-08T09:00:00	7	Dirección del viento	4.83
144767	7	Sololá	713	San Lucas Tolimán	10	San Lucas Tolimán	8	Agosto	2023-08-31T00:00:00	2024-11-08T09:00:00	1	Precipitación	0
144768	7	Sololá	713	San Lucas Tolimán	10	San Lucas Tolimán	8	Agosto	2023-08-31T00:00:00	2024-11-08T09:00:00	8	Radiación solar	568
144769	7	Sololá	713	San Lucas Tolimán	10	San Lucas Tolimán	8	Agosto	2023-08-31T00:00:00	2024-11-08T10:00:00	2	Temperatura media	25.3
144770	7	Sololá	713	San Lucas Tolimán	10	San Lucas Tolimán	8	Agosto	2023-08-31T00:00:00	2024-11-08T10:00:00	4	Temperatura máxima	25.3
144771	7	Sololá	713	San Lucas Tolimán	10	San Lucas Tolimán	8	Agosto	2023-08-31T00:00:00	2024-11-08T10:00:00	3	Temperatura mínima	23
144772	7	Sololá	713	San Lucas Tolimán	10	San Lucas Tolimán	8	Agosto	2023-08-31T00:00:00	2024-11-08T10:00:00	5	Humedad	49
144773	7	Sololá	713	San Lucas Tolimán	10	San Lucas Tolimán	8	Agosto	2023-08-31T00:00:00	2024-11-08T10:00:00	6	Velocidad del viento	4.8
144774	7	Sololá	713	San Lucas Tolimán	10	San Lucas Tolimán	8	Agosto	2023-08-31T00:00:00	2024-11-08T10:00:00	7	Dirección del viento	4.83
144775	7	Sololá	713	San Lucas Tolimán	10	San Lucas Tolimán	8	Agosto	2023-08-31T00:00:00	2024-11-08T10:00:00	1	Precipitación	0
144776	7	Sololá	713	San Lucas Tolimán	10	San Lucas Tolimán	8	Agosto	2023-08-31T00:00:00	2024-11-08T10:00:00	8	Radiación solar	811
144777	7	Sololá	713	San Lucas Tolimán	10	San Lucas Tolimán	8	Agosto	2023-08-31T00:00:00	2024-11-08T11:00:00	2	Temperatura media	24.7
144778	7	Sololá	713	San Lucas Tolimán	10	San Lucas Tolimán	8	Agosto	2023-08-31T00:00:00	2024-11-08T11:00:00	4	Temperatura máxima	25.3
144779	7	Sololá	713	San Lucas Tolimán	10	San Lucas Tolimán	8	Agosto	2023-08-31T00:00:00	2024-11-08T11:00:00	3	Temperatura mínima	24.4
144780	7	Sololá	713	San Lucas Tolimán	10	San Lucas Tolimán	8	Agosto	2023-08-31T00:00:00	2024-11-08T11:00:00	5	Humedad	52
144781	7	Sololá	713	San Lucas Tolimán	10	San Lucas Tolimán	8	Agosto	2023-08-31T00:00:00	2024-11-08T11:00:00	6	Velocidad del viento	11.3
144782	7	Sololá	713	San Lucas Tolimán	10	San Lucas Tolimán	8	Agosto	2023-08-31T00:00:00	2024-11-08T11:00:00	7	Dirección del viento	11.27
144783	7	Sololá	713	San Lucas Tolimán	10	San Lucas Tolimán	8	Agosto	2023-08-31T00:00:00	2024-11-08T11:00:00	1	Precipitación	0
144784	7	Sololá	713	San Lucas Tolimán	10	San Lucas Tolimán	8	Agosto	2023-08-31T00:00:00	2024-11-08T11:00:00	8	Radiación solar	976
144785	7	Sololá	713	San Lucas Tolimán	10	San Lucas Tolimán	8	Agosto	2023-08-31T00:00:00	2024-11-08T12:00:00	2	Temperatura media	24.7
144786	7	Sololá	713	San Lucas Tolimán	10	San Lucas Tolimán	8	Agosto	2023-08-31T00:00:00	2024-11-08T12:00:00	4	Temperatura máxima	24.9
144787	7	Sololá	713	San Lucas Tolimán	10	San Lucas Tolimán	8	Agosto	2023-08-31T00:00:00	2024-11-08T12:00:00	3	Temperatura mínima	24.3
144788	7	Sololá	713	San Lucas Tolimán	10	San Lucas Tolimán	8	Agosto	2023-08-31T00:00:00	2024-11-08T12:00:00	5	Humedad	53
144789	7	Sololá	713	San Lucas Tolimán	10	San Lucas Tolimán	8	Agosto	2023-08-31T00:00:00	2024-11-08T12:00:00	6	Velocidad del viento	11.3
144790	7	Sololá	713	San Lucas Tolimán	10	San Lucas Tolimán	8	Agosto	2023-08-31T00:00:00	2024-11-08T12:00:00	7	Dirección del viento	11.27
144791	7	Sololá	713	San Lucas Tolimán	10	San Lucas Tolimán	8	Agosto	2023-08-31T00:00:00	2024-11-08T12:00:00	1	Precipitación	0
144792	7	Sololá	713	San Lucas Tolimán	10	San Lucas Tolimán	8	Agosto	2023-08-31T00:00:00	2024-11-08T12:00:00	8	Radiación solar	1089
144793	7	Sololá	713	San Lucas Tolimán	10	San Lucas Tolimán	8	Agosto	2023-08-31T00:00:00	2024-11-08T13:00:00	2	Temperatura media	22.8
144794	7	Sololá	713	San Lucas Tolimán	10	San Lucas Tolimán	8	Agosto	2023-08-31T00:00:00	2024-11-08T13:00:00	4	Temperatura máxima	25
144795	7	Sololá	713	San Lucas Tolimán	10	San Lucas Tolimán	8	Agosto	2023-08-31T00:00:00	2024-11-08T13:00:00	3	Temperatura mínima	22.8
144796	7	Sololá	713	San Lucas Tolimán	10	San Lucas Tolimán	8	Agosto	2023-08-31T00:00:00	2024-11-08T13:00:00	5	Humedad	60
144797	7	Sololá	713	San Lucas Tolimán	10	San Lucas Tolimán	8	Agosto	2023-08-31T00:00:00	2024-11-08T13:00:00	6	Velocidad del viento	9.7
144798	7	Sololá	713	San Lucas Tolimán	10	San Lucas Tolimán	8	Agosto	2023-08-31T00:00:00	2024-11-08T13:00:00	7	Dirección del viento	9.66
144799	7	Sololá	713	San Lucas Tolimán	10	San Lucas Tolimán	8	Agosto	2023-08-31T00:00:00	2024-11-08T13:00:00	1	Precipitación	0
144800	7	Sololá	713	San Lucas Tolimán	10	San Lucas Tolimán	8	Agosto	2023-08-31T00:00:00	2024-11-08T13:00:00	8	Radiación solar	682
144801	7	Sololá	713	San Lucas Tolimán	10	San Lucas Tolimán	8	Agosto	2023-08-31T00:00:00	2024-11-08T14:00:00	2	Temperatura media	21.4
144802	7	Sololá	713	San Lucas Tolimán	10	San Lucas Tolimán	8	Agosto	2023-08-31T00:00:00	2024-11-08T14:00:00	4	Temperatura máxima	22.8
144803	7	Sololá	713	San Lucas Tolimán	10	San Lucas Tolimán	8	Agosto	2023-08-31T00:00:00	2024-11-08T14:00:00	3	Temperatura mínima	21.4
144804	7	Sololá	713	San Lucas Tolimán	10	San Lucas Tolimán	8	Agosto	2023-08-31T00:00:00	2024-11-08T14:00:00	5	Humedad	63
144805	7	Sololá	713	San Lucas Tolimán	10	San Lucas Tolimán	8	Agosto	2023-08-31T00:00:00	2024-11-08T14:00:00	6	Velocidad del viento	9.7
144806	7	Sololá	713	San Lucas Tolimán	10	San Lucas Tolimán	8	Agosto	2023-08-31T00:00:00	2024-11-08T14:00:00	7	Dirección del viento	9.66
144807	7	Sololá	713	San Lucas Tolimán	10	San Lucas Tolimán	8	Agosto	2023-08-31T00:00:00	2024-11-08T14:00:00	1	Precipitación	0
144808	7	Sololá	713	San Lucas Tolimán	10	San Lucas Tolimán	8	Agosto	2023-08-31T00:00:00	2024-11-08T14:00:00	8	Radiación solar	169
144809	7	Sololá	713	San Lucas Tolimán	10	San Lucas Tolimán	8	Agosto	2023-08-31T00:00:00	2024-11-08T15:00:00	2	Temperatura media	21.3
144810	7	Sololá	713	San Lucas Tolimán	10	San Lucas Tolimán	8	Agosto	2023-08-31T00:00:00	2024-11-08T15:00:00	4	Temperatura máxima	21.4
144811	7	Sololá	713	San Lucas Tolimán	10	San Lucas Tolimán	8	Agosto	2023-08-31T00:00:00	2024-11-08T15:00:00	3	Temperatura mínima	21.2
144812	7	Sololá	713	San Lucas Tolimán	10	San Lucas Tolimán	8	Agosto	2023-08-31T00:00:00	2024-11-08T15:00:00	5	Humedad	63
144813	7	Sololá	713	San Lucas Tolimán	10	San Lucas Tolimán	8	Agosto	2023-08-31T00:00:00	2024-11-08T15:00:00	6	Velocidad del viento	4.8
144814	7	Sololá	713	San Lucas Tolimán	10	San Lucas Tolimán	8	Agosto	2023-08-31T00:00:00	2024-11-08T15:00:00	7	Dirección del viento	4.83
144815	7	Sololá	713	San Lucas Tolimán	10	San Lucas Tolimán	8	Agosto	2023-08-31T00:00:00	2024-11-08T15:00:00	1	Precipitación	0
144816	7	Sololá	713	San Lucas Tolimán	10	San Lucas Tolimán	8	Agosto	2023-08-31T00:00:00	2024-11-08T15:00:00	8	Radiación solar	73
144817	7	Sololá	713	San Lucas Tolimán	10	San Lucas Tolimán	8	Agosto	2023-08-31T00:00:00	2024-11-08T16:00:00	2	Temperatura media	21.7
144818	7	Sololá	713	San Lucas Tolimán	10	San Lucas Tolimán	8	Agosto	2023-08-31T00:00:00	2024-11-08T16:00:00	4	Temperatura máxima	21.8
144819	7	Sololá	713	San Lucas Tolimán	10	San Lucas Tolimán	8	Agosto	2023-08-31T00:00:00	2024-11-08T16:00:00	3	Temperatura mínima	21.3
144820	7	Sololá	713	San Lucas Tolimán	10	San Lucas Tolimán	8	Agosto	2023-08-31T00:00:00	2024-11-08T16:00:00	5	Humedad	59
144821	7	Sololá	713	San Lucas Tolimán	10	San Lucas Tolimán	8	Agosto	2023-08-31T00:00:00	2024-11-08T16:00:00	6	Velocidad del viento	3.2
144822	7	Sololá	713	San Lucas Tolimán	10	San Lucas Tolimán	8	Agosto	2023-08-31T00:00:00	2024-11-08T16:00:00	7	Dirección del viento	3.22
144823	7	Sololá	713	San Lucas Tolimán	10	San Lucas Tolimán	8	Agosto	2023-08-31T00:00:00	2024-11-08T16:00:00	1	Precipitación	0
144824	7	Sololá	713	San Lucas Tolimán	10	San Lucas Tolimán	8	Agosto	2023-08-31T00:00:00	2024-11-08T16:00:00	8	Radiación solar	107
144825	7	Sololá	713	San Lucas Tolimán	10	San Lucas Tolimán	8	Agosto	2023-08-31T00:00:00	2024-11-08T17:00:00	2	Temperatura media	20.8
144826	7	Sololá	713	San Lucas Tolimán	10	San Lucas Tolimán	8	Agosto	2023-08-31T00:00:00	2024-11-08T17:00:00	4	Temperatura máxima	21.7
144827	7	Sololá	713	San Lucas Tolimán	10	San Lucas Tolimán	8	Agosto	2023-08-31T00:00:00	2024-11-08T17:00:00	3	Temperatura mínima	20.8
144828	7	Sololá	713	San Lucas Tolimán	10	San Lucas Tolimán	8	Agosto	2023-08-31T00:00:00	2024-11-08T17:00:00	5	Humedad	64
144829	7	Sololá	713	San Lucas Tolimán	10	San Lucas Tolimán	8	Agosto	2023-08-31T00:00:00	2024-11-08T17:00:00	6	Velocidad del viento	1.6
144830	7	Sololá	713	San Lucas Tolimán	10	San Lucas Tolimán	8	Agosto	2023-08-31T00:00:00	2024-11-08T17:00:00	7	Dirección del viento	1.61
144831	7	Sololá	713	San Lucas Tolimán	10	San Lucas Tolimán	8	Agosto	2023-08-31T00:00:00	2024-11-08T17:00:00	1	Precipitación	0
144832	7	Sololá	713	San Lucas Tolimán	10	San Lucas Tolimán	8	Agosto	2023-08-31T00:00:00	2024-11-08T17:00:00	8	Radiación solar	24
144833	7	Sololá	713	San Lucas Tolimán	10	San Lucas Tolimán	8	Agosto	2023-08-31T00:00:00	2024-11-08T18:00:00	2	Temperatura media	20.2
144834	7	Sololá	713	San Lucas Tolimán	10	San Lucas Tolimán	8	Agosto	2023-08-31T00:00:00	2024-11-08T18:00:00	4	Temperatura máxima	20.8
144835	7	Sololá	713	San Lucas Tolimán	10	San Lucas Tolimán	8	Agosto	2023-08-31T00:00:00	2024-11-08T18:00:00	3	Temperatura mínima	20.2
144836	7	Sololá	713	San Lucas Tolimán	10	San Lucas Tolimán	8	Agosto	2023-08-31T00:00:00	2024-11-08T18:00:00	5	Humedad	64
144837	7	Sololá	713	San Lucas Tolimán	10	San Lucas Tolimán	8	Agosto	2023-08-31T00:00:00	2024-11-08T18:00:00	6	Velocidad del viento	1.6
144838	7	Sololá	713	San Lucas Tolimán	10	San Lucas Tolimán	8	Agosto	2023-08-31T00:00:00	2024-11-08T18:00:00	7	Dirección del viento	1.61
144839	7	Sololá	713	San Lucas Tolimán	10	San Lucas Tolimán	8	Agosto	2023-08-31T00:00:00	2024-11-08T18:00:00	1	Precipitación	0
144840	7	Sololá	713	San Lucas Tolimán	10	San Lucas Tolimán	8	Agosto	2023-08-31T00:00:00	2024-11-08T18:00:00	8	Radiación solar	0
144841	7	Sololá	713	San Lucas Tolimán	10	San Lucas Tolimán	8	Agosto	2023-08-31T00:00:00	2024-11-08T19:00:00	2	Temperatura media	19.8
144842	7	Sololá	713	San Lucas Tolimán	10	San Lucas Tolimán	8	Agosto	2023-08-31T00:00:00	2024-11-08T19:00:00	4	Temperatura máxima	20.2
144843	7	Sololá	713	San Lucas Tolimán	10	San Lucas Tolimán	8	Agosto	2023-08-31T00:00:00	2024-11-08T19:00:00	3	Temperatura mínima	19.7
144844	7	Sololá	713	San Lucas Tolimán	10	San Lucas Tolimán	8	Agosto	2023-08-31T00:00:00	2024-11-08T19:00:00	5	Humedad	64
144845	7	Sololá	713	San Lucas Tolimán	10	San Lucas Tolimán	8	Agosto	2023-08-31T00:00:00	2024-11-08T19:00:00	6	Velocidad del viento	3.2
144846	7	Sololá	713	San Lucas Tolimán	10	San Lucas Tolimán	8	Agosto	2023-08-31T00:00:00	2024-11-08T19:00:00	7	Dirección del viento	3.22
144847	7	Sololá	713	San Lucas Tolimán	10	San Lucas Tolimán	8	Agosto	2023-08-31T00:00:00	2024-11-08T19:00:00	1	Precipitación	1.2
144848	7	Sololá	713	San Lucas Tolimán	10	San Lucas Tolimán	8	Agosto	2023-08-31T00:00:00	2024-11-08T19:00:00	8	Radiación solar	0
144849	7	Sololá	713	San Lucas Tolimán	10	San Lucas Tolimán	8	Agosto	2023-08-31T00:00:00	2024-11-08T20:00:00	2	Temperatura media	19.6
144850	7	Sololá	713	San Lucas Tolimán	10	San Lucas Tolimán	8	Agosto	2023-08-31T00:00:00	2024-11-08T20:00:00	4	Temperatura máxima	19.9
144851	7	Sololá	713	San Lucas Tolimán	10	San Lucas Tolimán	8	Agosto	2023-08-31T00:00:00	2024-11-08T20:00:00	3	Temperatura mínima	19.6
144852	7	Sololá	713	San Lucas Tolimán	10	San Lucas Tolimán	8	Agosto	2023-08-31T00:00:00	2024-11-08T20:00:00	5	Humedad	64
144853	7	Sololá	713	San Lucas Tolimán	10	San Lucas Tolimán	8	Agosto	2023-08-31T00:00:00	2024-11-08T20:00:00	6	Velocidad del viento	1.6
144854	7	Sololá	713	San Lucas Tolimán	10	San Lucas Tolimán	8	Agosto	2023-08-31T00:00:00	2024-11-08T20:00:00	7	Dirección del viento	1.61
144855	7	Sololá	713	San Lucas Tolimán	10	San Lucas Tolimán	8	Agosto	2023-08-31T00:00:00	2024-11-08T20:00:00	1	Precipitación	1.2
144856	7	Sololá	713	San Lucas Tolimán	10	San Lucas Tolimán	8	Agosto	2023-08-31T00:00:00	2024-11-08T20:00:00	8	Radiación solar	0
144857	7	Sololá	713	San Lucas Tolimán	10	San Lucas Tolimán	8	Agosto	2023-08-31T00:00:00	2024-11-08T21:00:00	2	Temperatura media	18.9
144858	7	Sololá	713	San Lucas Tolimán	10	San Lucas Tolimán	8	Agosto	2023-08-31T00:00:00	2024-11-08T21:00:00	4	Temperatura máxima	19.6
144859	7	Sololá	713	San Lucas Tolimán	10	San Lucas Tolimán	8	Agosto	2023-08-31T00:00:00	2024-11-08T21:00:00	3	Temperatura mínima	18.9
144860	7	Sololá	713	San Lucas Tolimán	10	San Lucas Tolimán	8	Agosto	2023-08-31T00:00:00	2024-11-08T21:00:00	5	Humedad	64
144861	7	Sololá	713	San Lucas Tolimán	10	San Lucas Tolimán	8	Agosto	2023-08-31T00:00:00	2024-11-08T21:00:00	6	Velocidad del viento	1.6
144862	7	Sololá	713	San Lucas Tolimán	10	San Lucas Tolimán	8	Agosto	2023-08-31T00:00:00	2024-11-08T21:00:00	7	Dirección del viento	1.61
144863	7	Sololá	713	San Lucas Tolimán	10	San Lucas Tolimán	8	Agosto	2023-08-31T00:00:00	2024-11-08T21:00:00	1	Precipitación	0
144864	7	Sololá	713	San Lucas Tolimán	10	San Lucas Tolimán	8	Agosto	2023-08-31T00:00:00	2024-11-08T21:00:00	8	Radiación solar	0
144865	7	Sololá	713	San Lucas Tolimán	10	San Lucas Tolimán	8	Agosto	2023-08-31T00:00:00	2024-11-08T22:00:00	2	Temperatura media	18.4
144866	7	Sololá	713	San Lucas Tolimán	10	San Lucas Tolimán	8	Agosto	2023-08-31T00:00:00	2024-11-08T22:00:00	4	Temperatura máxima	18.9
144867	7	Sololá	713	San Lucas Tolimán	10	San Lucas Tolimán	8	Agosto	2023-08-31T00:00:00	2024-11-08T22:00:00	3	Temperatura mínima	17.7
144868	7	Sololá	713	San Lucas Tolimán	10	San Lucas Tolimán	8	Agosto	2023-08-31T00:00:00	2024-11-08T22:00:00	5	Humedad	64
144869	7	Sololá	713	San Lucas Tolimán	10	San Lucas Tolimán	8	Agosto	2023-08-31T00:00:00	2024-11-08T22:00:00	6	Velocidad del viento	4.8
144870	7	Sololá	713	San Lucas Tolimán	10	San Lucas Tolimán	8	Agosto	2023-08-31T00:00:00	2024-11-08T22:00:00	7	Dirección del viento	4.83
144871	7	Sololá	713	San Lucas Tolimán	10	San Lucas Tolimán	8	Agosto	2023-08-31T00:00:00	2024-11-08T22:00:00	1	Precipitación	0
144872	7	Sololá	713	San Lucas Tolimán	10	San Lucas Tolimán	8	Agosto	2023-08-31T00:00:00	2024-11-08T22:00:00	8	Radiación solar	0
144873	7	Sololá	713	San Lucas Tolimán	10	San Lucas Tolimán	8	Agosto	2023-08-31T00:00:00	2024-11-08T23:00:00	2	Temperatura media	18.9
144874	7	Sololá	713	San Lucas Tolimán	10	San Lucas Tolimán	8	Agosto	2023-08-31T00:00:00	2024-11-08T23:00:00	4	Temperatura máxima	19.2
144875	7	Sololá	713	San Lucas Tolimán	10	San Lucas Tolimán	8	Agosto	2023-08-31T00:00:00	2024-11-08T23:00:00	3	Temperatura mínima	18.4
144876	7	Sololá	713	San Lucas Tolimán	10	San Lucas Tolimán	8	Agosto	2023-08-31T00:00:00	2024-11-08T23:00:00	5	Humedad	64
144877	7	Sololá	713	San Lucas Tolimán	10	San Lucas Tolimán	8	Agosto	2023-08-31T00:00:00	2024-11-08T23:00:00	6	Velocidad del viento	4.8
144878	7	Sololá	713	San Lucas Tolimán	10	San Lucas Tolimán	8	Agosto	2023-08-31T00:00:00	2024-11-08T23:00:00	7	Dirección del viento	4.83
144879	7	Sololá	713	San Lucas Tolimán	10	San Lucas Tolimán	8	Agosto	2023-08-31T00:00:00	2024-11-08T23:00:00	1	Precipitación	0.2
144880	7	Sololá	713	San Lucas Tolimán	10	San Lucas Tolimán	8	Agosto	2023-08-31T00:00:00	2024-11-08T23:00:00	8	Radiación solar	0
144881	7	Sololá	713	San Lucas Tolimán	10	San Lucas Tolimán	9	Septiembre	2023-01-09T00:00:00	2024-11-08T00:00:00	2	Temperatura media	18.7
144882	7	Sololá	713	San Lucas Tolimán	10	San Lucas Tolimán	9	Septiembre	2023-01-09T00:00:00	2024-11-08T00:00:00	4	Temperatura máxima	18.9
144883	7	Sololá	713	San Lucas Tolimán	10	San Lucas Tolimán	9	Septiembre	2023-01-09T00:00:00	2024-11-08T00:00:00	3	Temperatura mínima	18.7
144884	7	Sololá	713	San Lucas Tolimán	10	San Lucas Tolimán	9	Septiembre	2023-01-09T00:00:00	2024-11-08T00:00:00	5	Humedad	66
144885	7	Sololá	713	San Lucas Tolimán	10	San Lucas Tolimán	9	Septiembre	2023-01-09T00:00:00	2024-11-08T00:00:00	6	Velocidad del viento	3.2
144886	7	Sololá	713	San Lucas Tolimán	10	San Lucas Tolimán	9	Septiembre	2023-01-09T00:00:00	2024-11-08T00:00:00	7	Dirección del viento	3.22
144887	7	Sololá	713	San Lucas Tolimán	10	San Lucas Tolimán	9	Septiembre	2023-01-09T00:00:00	2024-11-08T00:00:00	1	Precipitación	0
144888	7	Sololá	713	San Lucas Tolimán	10	San Lucas Tolimán	9	Septiembre	2023-01-09T00:00:00	2024-11-08T00:00:00	8	Radiación solar	0
144889	7	Sololá	713	San Lucas Tolimán	10	San Lucas Tolimán	9	Septiembre	2023-01-09T00:00:00	2024-11-08T01:00:00	2	Temperatura media	18.8
144890	7	Sololá	713	San Lucas Tolimán	10	San Lucas Tolimán	9	Septiembre	2023-01-09T00:00:00	2024-11-08T01:00:00	4	Temperatura máxima	19
144891	7	Sololá	713	San Lucas Tolimán	10	San Lucas Tolimán	9	Septiembre	2023-01-09T00:00:00	2024-11-08T01:00:00	3	Temperatura mínima	18.4
144892	7	Sololá	713	San Lucas Tolimán	10	San Lucas Tolimán	9	Septiembre	2023-01-09T00:00:00	2024-11-08T01:00:00	5	Humedad	62
144893	7	Sololá	713	San Lucas Tolimán	10	San Lucas Tolimán	9	Septiembre	2023-01-09T00:00:00	2024-11-08T01:00:00	6	Velocidad del viento	6.4
144894	7	Sololá	713	San Lucas Tolimán	10	San Lucas Tolimán	9	Septiembre	2023-01-09T00:00:00	2024-11-08T01:00:00	7	Dirección del viento	6.44
144895	7	Sololá	713	San Lucas Tolimán	10	San Lucas Tolimán	9	Septiembre	2023-01-09T00:00:00	2024-11-08T01:00:00	1	Precipitación	0
144896	7	Sololá	713	San Lucas Tolimán	10	San Lucas Tolimán	9	Septiembre	2023-01-09T00:00:00	2024-11-08T01:00:00	8	Radiación solar	0
144897	7	Sololá	713	San Lucas Tolimán	10	San Lucas Tolimán	9	Septiembre	2023-01-09T00:00:00	2024-11-08T02:00:00	2	Temperatura media	18.5
144898	7	Sololá	713	San Lucas Tolimán	10	San Lucas Tolimán	9	Septiembre	2023-01-09T00:00:00	2024-11-08T02:00:00	4	Temperatura máxima	19.4
144899	7	Sololá	713	San Lucas Tolimán	10	San Lucas Tolimán	9	Septiembre	2023-01-09T00:00:00	2024-11-08T02:00:00	3	Temperatura mínima	18.5
144900	7	Sololá	713	San Lucas Tolimán	10	San Lucas Tolimán	9	Septiembre	2023-01-09T00:00:00	2024-11-08T02:00:00	5	Humedad	61
144901	7	Sololá	713	San Lucas Tolimán	10	San Lucas Tolimán	9	Septiembre	2023-01-09T00:00:00	2024-11-08T02:00:00	6	Velocidad del viento	3.2
144902	7	Sololá	713	San Lucas Tolimán	10	San Lucas Tolimán	9	Septiembre	2023-01-09T00:00:00	2024-11-08T02:00:00	7	Dirección del viento	3.22
144903	7	Sololá	713	San Lucas Tolimán	10	San Lucas Tolimán	9	Septiembre	2023-01-09T00:00:00	2024-11-08T02:00:00	1	Precipitación	0
144904	7	Sololá	713	San Lucas Tolimán	10	San Lucas Tolimán	9	Septiembre	2023-01-09T00:00:00	2024-11-08T02:00:00	8	Radiación solar	0
144905	7	Sololá	713	San Lucas Tolimán	10	San Lucas Tolimán	9	Septiembre	2023-01-09T00:00:00	2024-11-08T03:00:00	2	Temperatura media	17.5
144906	7	Sololá	713	San Lucas Tolimán	10	San Lucas Tolimán	9	Septiembre	2023-01-09T00:00:00	2024-11-08T03:00:00	4	Temperatura máxima	18.5
144907	7	Sololá	713	San Lucas Tolimán	10	San Lucas Tolimán	9	Septiembre	2023-01-09T00:00:00	2024-11-08T03:00:00	3	Temperatura mínima	17.4
144908	7	Sololá	713	San Lucas Tolimán	10	San Lucas Tolimán	9	Septiembre	2023-01-09T00:00:00	2024-11-08T03:00:00	5	Humedad	63
144909	7	Sololá	713	San Lucas Tolimán	10	San Lucas Tolimán	9	Septiembre	2023-01-09T00:00:00	2024-11-08T03:00:00	6	Velocidad del viento	3.2
144910	7	Sololá	713	San Lucas Tolimán	10	San Lucas Tolimán	9	Septiembre	2023-01-09T00:00:00	2024-11-08T03:00:00	7	Dirección del viento	3.22
144911	7	Sololá	713	San Lucas Tolimán	10	San Lucas Tolimán	9	Septiembre	2023-01-09T00:00:00	2024-11-08T03:00:00	1	Precipitación	0
144912	7	Sololá	713	San Lucas Tolimán	10	San Lucas Tolimán	9	Septiembre	2023-01-09T00:00:00	2024-11-08T03:00:00	8	Radiación solar	0
144913	7	Sololá	713	San Lucas Tolimán	10	San Lucas Tolimán	9	Septiembre	2023-01-09T00:00:00	2024-11-08T04:00:00	2	Temperatura media	17.7
144914	7	Sololá	713	San Lucas Tolimán	10	San Lucas Tolimán	9	Septiembre	2023-01-09T00:00:00	2024-11-08T04:00:00	4	Temperatura máxima	18.2
144915	7	Sololá	713	San Lucas Tolimán	10	San Lucas Tolimán	9	Septiembre	2023-01-09T00:00:00	2024-11-08T04:00:00	3	Temperatura mínima	17.5
144916	7	Sololá	713	San Lucas Tolimán	10	San Lucas Tolimán	9	Septiembre	2023-01-09T00:00:00	2024-11-08T04:00:00	5	Humedad	63
144917	7	Sololá	713	San Lucas Tolimán	10	San Lucas Tolimán	9	Septiembre	2023-01-09T00:00:00	2024-11-08T04:00:00	6	Velocidad del viento	4.8
144918	7	Sololá	713	San Lucas Tolimán	10	San Lucas Tolimán	9	Septiembre	2023-01-09T00:00:00	2024-11-08T04:00:00	7	Dirección del viento	4.83
144919	7	Sololá	713	San Lucas Tolimán	10	San Lucas Tolimán	9	Septiembre	2023-01-09T00:00:00	2024-11-08T04:00:00	1	Precipitación	0
144920	7	Sololá	713	San Lucas Tolimán	10	San Lucas Tolimán	9	Septiembre	2023-01-09T00:00:00	2024-11-08T04:00:00	8	Radiación solar	0
144921	7	Sololá	713	San Lucas Tolimán	10	San Lucas Tolimán	9	Septiembre	2023-01-09T00:00:00	2024-11-08T05:00:00	2	Temperatura media	17.1
144922	7	Sololá	713	San Lucas Tolimán	10	San Lucas Tolimán	9	Septiembre	2023-01-09T00:00:00	2024-11-08T05:00:00	4	Temperatura máxima	17.7
144923	7	Sololá	713	San Lucas Tolimán	10	San Lucas Tolimán	9	Septiembre	2023-01-09T00:00:00	2024-11-08T05:00:00	3	Temperatura mínima	17.1
144924	7	Sololá	713	San Lucas Tolimán	10	San Lucas Tolimán	9	Septiembre	2023-01-09T00:00:00	2024-11-08T05:00:00	5	Humedad	64
144925	7	Sololá	713	San Lucas Tolimán	10	San Lucas Tolimán	9	Septiembre	2023-01-09T00:00:00	2024-11-08T05:00:00	6	Velocidad del viento	1.6
144926	7	Sololá	713	San Lucas Tolimán	10	San Lucas Tolimán	9	Septiembre	2023-01-09T00:00:00	2024-11-08T05:00:00	7	Dirección del viento	1.61
144927	7	Sololá	713	San Lucas Tolimán	10	San Lucas Tolimán	9	Septiembre	2023-01-09T00:00:00	2024-11-08T05:00:00	1	Precipitación	0
144928	7	Sololá	713	San Lucas Tolimán	10	San Lucas Tolimán	9	Septiembre	2023-01-09T00:00:00	2024-11-08T05:00:00	8	Radiación solar	0
144929	7	Sololá	713	San Lucas Tolimán	10	San Lucas Tolimán	9	Septiembre	2023-01-09T00:00:00	2024-11-08T06:00:00	2	Temperatura media	16.2
144930	7	Sololá	713	San Lucas Tolimán	10	San Lucas Tolimán	9	Septiembre	2023-01-09T00:00:00	2024-11-08T06:00:00	4	Temperatura máxima	17.1
144931	7	Sololá	713	San Lucas Tolimán	10	San Lucas Tolimán	9	Septiembre	2023-01-09T00:00:00	2024-11-08T06:00:00	3	Temperatura mínima	16.2
144932	7	Sololá	713	San Lucas Tolimán	10	San Lucas Tolimán	9	Septiembre	2023-01-09T00:00:00	2024-11-08T06:00:00	5	Humedad	65
144933	7	Sololá	713	San Lucas Tolimán	10	San Lucas Tolimán	9	Septiembre	2023-01-09T00:00:00	2024-11-08T06:00:00	6	Velocidad del viento	1.6
144934	7	Sololá	713	San Lucas Tolimán	10	San Lucas Tolimán	9	Septiembre	2023-01-09T00:00:00	2024-11-08T06:00:00	7	Dirección del viento	1.61
144935	7	Sololá	713	San Lucas Tolimán	10	San Lucas Tolimán	9	Septiembre	2023-01-09T00:00:00	2024-11-08T06:00:00	1	Precipitación	0
144936	7	Sololá	713	San Lucas Tolimán	10	San Lucas Tolimán	9	Septiembre	2023-01-09T00:00:00	2024-11-08T06:00:00	8	Radiación solar	0
144937	7	Sololá	713	San Lucas Tolimán	10	San Lucas Tolimán	9	Septiembre	2023-01-09T00:00:00	2024-11-08T07:00:00	2	Temperatura media	17.8
144938	7	Sololá	713	San Lucas Tolimán	10	San Lucas Tolimán	9	Septiembre	2023-01-09T00:00:00	2024-11-08T07:00:00	4	Temperatura máxima	17.8
144939	7	Sololá	713	San Lucas Tolimán	10	San Lucas Tolimán	9	Septiembre	2023-01-09T00:00:00	2024-11-08T07:00:00	3	Temperatura mínima	16.2
144940	7	Sololá	713	San Lucas Tolimán	10	San Lucas Tolimán	9	Septiembre	2023-01-09T00:00:00	2024-11-08T07:00:00	5	Humedad	63
144941	7	Sololá	713	San Lucas Tolimán	10	San Lucas Tolimán	9	Septiembre	2023-01-09T00:00:00	2024-11-08T07:00:00	6	Velocidad del viento	1.6
144942	7	Sololá	713	San Lucas Tolimán	10	San Lucas Tolimán	9	Septiembre	2023-01-09T00:00:00	2024-11-08T07:00:00	7	Dirección del viento	1.61
144943	7	Sololá	713	San Lucas Tolimán	10	San Lucas Tolimán	9	Septiembre	2023-01-09T00:00:00	2024-11-08T07:00:00	1	Precipitación	0
144944	7	Sololá	713	San Lucas Tolimán	10	San Lucas Tolimán	9	Septiembre	2023-01-09T00:00:00	2024-11-08T07:00:00	8	Radiación solar	56
144945	7	Sololá	713	San Lucas Tolimán	10	San Lucas Tolimán	9	Septiembre	2023-01-09T00:00:00	2024-11-08T08:00:00	2	Temperatura media	22.6
144946	7	Sololá	713	San Lucas Tolimán	10	San Lucas Tolimán	9	Septiembre	2023-01-09T00:00:00	2024-11-08T08:00:00	4	Temperatura máxima	22.6
144947	7	Sololá	713	San Lucas Tolimán	10	San Lucas Tolimán	9	Septiembre	2023-01-09T00:00:00	2024-11-08T08:00:00	3	Temperatura mínima	17.8
144948	7	Sololá	713	San Lucas Tolimán	10	San Lucas Tolimán	9	Septiembre	2023-01-09T00:00:00	2024-11-08T08:00:00	5	Humedad	71
144949	7	Sololá	713	San Lucas Tolimán	10	San Lucas Tolimán	9	Septiembre	2023-01-09T00:00:00	2024-11-08T08:00:00	6	Velocidad del viento	1.6
144950	7	Sololá	713	San Lucas Tolimán	10	San Lucas Tolimán	9	Septiembre	2023-01-09T00:00:00	2024-11-08T08:00:00	7	Dirección del viento	1.61
144951	7	Sololá	713	San Lucas Tolimán	10	San Lucas Tolimán	9	Septiembre	2023-01-09T00:00:00	2024-11-08T08:00:00	1	Precipitación	0
144952	7	Sololá	713	San Lucas Tolimán	10	San Lucas Tolimán	9	Septiembre	2023-01-09T00:00:00	2024-11-08T08:00:00	8	Radiación solar	209
144953	7	Sololá	713	San Lucas Tolimán	10	San Lucas Tolimán	9	Septiembre	2023-01-09T00:00:00	2024-11-08T09:00:00	2	Temperatura media	25.5
144954	7	Sololá	713	San Lucas Tolimán	10	San Lucas Tolimán	9	Septiembre	2023-01-09T00:00:00	2024-11-08T09:00:00	4	Temperatura máxima	25.5
144955	7	Sololá	713	San Lucas Tolimán	10	San Lucas Tolimán	9	Septiembre	2023-01-09T00:00:00	2024-11-08T09:00:00	3	Temperatura mínima	22.6
144956	7	Sololá	713	San Lucas Tolimán	10	San Lucas Tolimán	9	Septiembre	2023-01-09T00:00:00	2024-11-08T09:00:00	5	Humedad	57
144957	7	Sololá	713	San Lucas Tolimán	10	San Lucas Tolimán	9	Septiembre	2023-01-09T00:00:00	2024-11-08T09:00:00	6	Velocidad del viento	1.6
144958	7	Sololá	713	San Lucas Tolimán	10	San Lucas Tolimán	9	Septiembre	2023-01-09T00:00:00	2024-11-08T09:00:00	7	Dirección del viento	1.61
144959	7	Sololá	713	San Lucas Tolimán	10	San Lucas Tolimán	9	Septiembre	2023-01-09T00:00:00	2024-11-08T09:00:00	1	Precipitación	0
144960	7	Sololá	713	San Lucas Tolimán	10	San Lucas Tolimán	9	Septiembre	2023-01-09T00:00:00	2024-11-08T09:00:00	8	Radiación solar	583
144961	7	Sololá	713	San Lucas Tolimán	10	San Lucas Tolimán	9	Septiembre	2023-01-09T00:00:00	2024-11-08T10:00:00	2	Temperatura media	27
144962	7	Sololá	713	San Lucas Tolimán	10	San Lucas Tolimán	9	Septiembre	2023-01-09T00:00:00	2024-11-08T10:00:00	4	Temperatura máxima	27
144963	7	Sololá	713	San Lucas Tolimán	10	San Lucas Tolimán	9	Septiembre	2023-01-09T00:00:00	2024-11-08T10:00:00	3	Temperatura mínima	25.5
144964	7	Sololá	713	San Lucas Tolimán	10	San Lucas Tolimán	9	Septiembre	2023-01-09T00:00:00	2024-11-08T10:00:00	5	Humedad	49
144965	7	Sololá	713	San Lucas Tolimán	10	San Lucas Tolimán	9	Septiembre	2023-01-09T00:00:00	2024-11-08T10:00:00	6	Velocidad del viento	4.8
144966	7	Sololá	713	San Lucas Tolimán	10	San Lucas Tolimán	9	Septiembre	2023-01-09T00:00:00	2024-11-08T10:00:00	7	Dirección del viento	4.83
144967	7	Sololá	713	San Lucas Tolimán	10	San Lucas Tolimán	9	Septiembre	2023-01-09T00:00:00	2024-11-08T10:00:00	1	Precipitación	0
144968	7	Sololá	713	San Lucas Tolimán	10	San Lucas Tolimán	9	Septiembre	2023-01-09T00:00:00	2024-11-08T10:00:00	8	Radiación solar	656
144969	7	Sololá	713	San Lucas Tolimán	10	San Lucas Tolimán	9	Septiembre	2023-01-09T00:00:00	2024-11-08T11:00:00	2	Temperatura media	27.1
144970	7	Sololá	713	San Lucas Tolimán	10	San Lucas Tolimán	9	Septiembre	2023-01-09T00:00:00	2024-11-08T11:00:00	4	Temperatura máxima	27.7
144971	7	Sololá	713	San Lucas Tolimán	10	San Lucas Tolimán	9	Septiembre	2023-01-09T00:00:00	2024-11-08T11:00:00	3	Temperatura mínima	27
144972	7	Sololá	713	San Lucas Tolimán	10	San Lucas Tolimán	9	Septiembre	2023-01-09T00:00:00	2024-11-08T11:00:00	5	Humedad	65
144973	7	Sololá	713	San Lucas Tolimán	10	San Lucas Tolimán	9	Septiembre	2023-01-09T00:00:00	2024-11-08T11:00:00	6	Velocidad del viento	6.4
144974	7	Sololá	713	San Lucas Tolimán	10	San Lucas Tolimán	9	Septiembre	2023-01-09T00:00:00	2024-11-08T11:00:00	7	Dirección del viento	6.44
144975	7	Sololá	713	San Lucas Tolimán	10	San Lucas Tolimán	9	Septiembre	2023-01-09T00:00:00	2024-11-08T11:00:00	1	Precipitación	0
144976	7	Sololá	713	San Lucas Tolimán	10	San Lucas Tolimán	9	Septiembre	2023-01-09T00:00:00	2024-11-08T11:00:00	8	Radiación solar	896
144977	7	Sololá	713	San Lucas Tolimán	10	San Lucas Tolimán	9	Septiembre	2023-01-09T00:00:00	2024-11-08T12:00:00	2	Temperatura media	25.8
144978	7	Sololá	713	San Lucas Tolimán	10	San Lucas Tolimán	9	Septiembre	2023-01-09T00:00:00	2024-11-08T12:00:00	4	Temperatura máxima	27.2
144979	7	Sololá	713	San Lucas Tolimán	10	San Lucas Tolimán	9	Septiembre	2023-01-09T00:00:00	2024-11-08T12:00:00	3	Temperatura mínima	25.8
144980	7	Sololá	713	San Lucas Tolimán	10	San Lucas Tolimán	9	Septiembre	2023-01-09T00:00:00	2024-11-08T12:00:00	5	Humedad	74
144981	7	Sololá	713	San Lucas Tolimán	10	San Lucas Tolimán	9	Septiembre	2023-01-09T00:00:00	2024-11-08T12:00:00	6	Velocidad del viento	11.3
144982	7	Sololá	713	San Lucas Tolimán	10	San Lucas Tolimán	9	Septiembre	2023-01-09T00:00:00	2024-11-08T12:00:00	7	Dirección del viento	11.27
144983	7	Sololá	713	San Lucas Tolimán	10	San Lucas Tolimán	9	Septiembre	2023-01-09T00:00:00	2024-11-08T12:00:00	1	Precipitación	0
144984	7	Sololá	713	San Lucas Tolimán	10	San Lucas Tolimán	9	Septiembre	2023-01-09T00:00:00	2024-11-08T12:00:00	8	Radiación solar	978
144985	7	Sololá	713	San Lucas Tolimán	10	San Lucas Tolimán	9	Septiembre	2023-01-09T00:00:00	2024-11-08T13:00:00	2	Temperatura media	25.6
144986	7	Sololá	713	San Lucas Tolimán	10	San Lucas Tolimán	9	Septiembre	2023-01-09T00:00:00	2024-11-08T13:00:00	4	Temperatura máxima	26.1
144987	7	Sololá	713	San Lucas Tolimán	10	San Lucas Tolimán	9	Septiembre	2023-01-09T00:00:00	2024-11-08T13:00:00	3	Temperatura mínima	25.6
144988	7	Sololá	713	San Lucas Tolimán	10	San Lucas Tolimán	9	Septiembre	2023-01-09T00:00:00	2024-11-08T13:00:00	5	Humedad	74
144989	7	Sololá	713	San Lucas Tolimán	10	San Lucas Tolimán	9	Septiembre	2023-01-09T00:00:00	2024-11-08T13:00:00	6	Velocidad del viento	12.9
144990	7	Sololá	713	San Lucas Tolimán	10	San Lucas Tolimán	9	Septiembre	2023-01-09T00:00:00	2024-11-08T13:00:00	7	Dirección del viento	12.87
144991	7	Sololá	713	San Lucas Tolimán	10	San Lucas Tolimán	9	Septiembre	2023-01-09T00:00:00	2024-11-08T13:00:00	1	Precipitación	0
144992	7	Sololá	713	San Lucas Tolimán	10	San Lucas Tolimán	9	Septiembre	2023-01-09T00:00:00	2024-11-08T13:00:00	8	Radiación solar	964
144993	7	Sololá	713	San Lucas Tolimán	10	San Lucas Tolimán	9	Septiembre	2023-01-09T00:00:00	2024-11-08T14:00:00	2	Temperatura media	24.4
144994	7	Sololá	713	San Lucas Tolimán	10	San Lucas Tolimán	9	Septiembre	2023-01-09T00:00:00	2024-11-08T14:00:00	4	Temperatura máxima	25.8
144995	7	Sololá	713	San Lucas Tolimán	10	San Lucas Tolimán	9	Septiembre	2023-01-09T00:00:00	2024-11-08T14:00:00	3	Temperatura mínima	24.4
144996	7	Sololá	713	San Lucas Tolimán	10	San Lucas Tolimán	9	Septiembre	2023-01-09T00:00:00	2024-11-08T14:00:00	5	Humedad	76
144997	7	Sololá	713	San Lucas Tolimán	10	San Lucas Tolimán	9	Septiembre	2023-01-09T00:00:00	2024-11-08T14:00:00	6	Velocidad del viento	12.9
144998	7	Sololá	713	San Lucas Tolimán	10	San Lucas Tolimán	9	Septiembre	2023-01-09T00:00:00	2024-11-08T14:00:00	7	Dirección del viento	12.87
144999	7	Sololá	713	San Lucas Tolimán	10	San Lucas Tolimán	9	Septiembre	2023-01-09T00:00:00	2024-11-08T14:00:00	1	Precipitación	0
145000	7	Sololá	713	San Lucas Tolimán	10	San Lucas Tolimán	9	Septiembre	2023-01-09T00:00:00	2024-11-08T14:00:00	8	Radiación solar	949
145001	7	Sololá	713	San Lucas Tolimán	10	San Lucas Tolimán	9	Septiembre	2023-01-09T00:00:00	2024-11-08T15:00:00	2	Temperatura media	24.8
145002	7	Sololá	713	San Lucas Tolimán	10	San Lucas Tolimán	9	Septiembre	2023-01-09T00:00:00	2024-11-08T15:00:00	4	Temperatura máxima	24.8
145003	7	Sololá	713	San Lucas Tolimán	10	San Lucas Tolimán	9	Septiembre	2023-01-09T00:00:00	2024-11-08T15:00:00	3	Temperatura mínima	24
145004	7	Sololá	713	San Lucas Tolimán	10	San Lucas Tolimán	9	Septiembre	2023-01-09T00:00:00	2024-11-08T15:00:00	5	Humedad	77
145005	7	Sololá	713	San Lucas Tolimán	10	San Lucas Tolimán	9	Septiembre	2023-01-09T00:00:00	2024-11-08T15:00:00	6	Velocidad del viento	11.3
145006	7	Sololá	713	San Lucas Tolimán	10	San Lucas Tolimán	9	Septiembre	2023-01-09T00:00:00	2024-11-08T15:00:00	7	Dirección del viento	11.27
145007	7	Sololá	713	San Lucas Tolimán	10	San Lucas Tolimán	9	Septiembre	2023-01-09T00:00:00	2024-11-08T15:00:00	1	Precipitación	0
145008	7	Sololá	713	San Lucas Tolimán	10	San Lucas Tolimán	9	Septiembre	2023-01-09T00:00:00	2024-11-08T15:00:00	8	Radiación solar	782
145009	7	Sololá	713	San Lucas Tolimán	10	San Lucas Tolimán	9	Septiembre	2023-01-09T00:00:00	2024-11-08T16:00:00	2	Temperatura media	23.8
145010	7	Sololá	713	San Lucas Tolimán	10	San Lucas Tolimán	9	Septiembre	2023-01-09T00:00:00	2024-11-08T16:00:00	4	Temperatura máxima	24.8
145011	7	Sololá	713	San Lucas Tolimán	10	San Lucas Tolimán	9	Septiembre	2023-01-09T00:00:00	2024-11-08T16:00:00	3	Temperatura mínima	23.3
145012	7	Sololá	713	San Lucas Tolimán	10	San Lucas Tolimán	9	Septiembre	2023-01-09T00:00:00	2024-11-08T16:00:00	5	Humedad	81
145013	7	Sololá	713	San Lucas Tolimán	10	San Lucas Tolimán	9	Septiembre	2023-01-09T00:00:00	2024-11-08T16:00:00	6	Velocidad del viento	11.3
145014	7	Sololá	713	San Lucas Tolimán	10	San Lucas Tolimán	9	Septiembre	2023-01-09T00:00:00	2024-11-08T16:00:00	7	Dirección del viento	11.27
145015	7	Sololá	713	San Lucas Tolimán	10	San Lucas Tolimán	9	Septiembre	2023-01-09T00:00:00	2024-11-08T16:00:00	1	Precipitación	0
145016	7	Sololá	713	San Lucas Tolimán	10	San Lucas Tolimán	9	Septiembre	2023-01-09T00:00:00	2024-11-08T16:00:00	8	Radiación solar	527
145017	7	Sololá	713	San Lucas Tolimán	10	San Lucas Tolimán	9	Septiembre	2023-01-09T00:00:00	2024-11-08T17:00:00	2	Temperatura media	21.6
145018	7	Sololá	713	San Lucas Tolimán	10	San Lucas Tolimán	9	Septiembre	2023-01-09T00:00:00	2024-11-08T17:00:00	4	Temperatura máxima	23.9
145019	7	Sololá	713	San Lucas Tolimán	10	San Lucas Tolimán	9	Septiembre	2023-01-09T00:00:00	2024-11-08T17:00:00	3	Temperatura mínima	21.6
145020	7	Sololá	713	San Lucas Tolimán	10	San Lucas Tolimán	9	Septiembre	2023-01-09T00:00:00	2024-11-08T17:00:00	5	Humedad	87
145021	7	Sololá	713	San Lucas Tolimán	10	San Lucas Tolimán	9	Septiembre	2023-01-09T00:00:00	2024-11-08T17:00:00	6	Velocidad del viento	8
145022	7	Sololá	713	San Lucas Tolimán	10	San Lucas Tolimán	9	Septiembre	2023-01-09T00:00:00	2024-11-08T17:00:00	7	Dirección del viento	8.05
145023	7	Sololá	713	San Lucas Tolimán	10	San Lucas Tolimán	9	Septiembre	2023-01-09T00:00:00	2024-11-08T17:00:00	1	Precipitación	0
145024	7	Sololá	713	San Lucas Tolimán	10	San Lucas Tolimán	9	Septiembre	2023-01-09T00:00:00	2024-11-08T17:00:00	8	Radiación solar	320
145025	7	Sololá	713	San Lucas Tolimán	10	San Lucas Tolimán	9	Septiembre	2023-01-09T00:00:00	2024-11-08T18:00:00	2	Temperatura media	21.2
145026	7	Sololá	713	San Lucas Tolimán	10	San Lucas Tolimán	9	Septiembre	2023-01-09T00:00:00	2024-11-08T18:00:00	4	Temperatura máxima	21.6
145027	7	Sololá	713	San Lucas Tolimán	10	San Lucas Tolimán	9	Septiembre	2023-01-09T00:00:00	2024-11-08T18:00:00	3	Temperatura mínima	21
145028	7	Sololá	713	San Lucas Tolimán	10	San Lucas Tolimán	9	Septiembre	2023-01-09T00:00:00	2024-11-08T18:00:00	5	Humedad	89
145029	7	Sololá	713	San Lucas Tolimán	10	San Lucas Tolimán	9	Septiembre	2023-01-09T00:00:00	2024-11-08T18:00:00	6	Velocidad del viento	4.8
145030	7	Sololá	713	San Lucas Tolimán	10	San Lucas Tolimán	9	Septiembre	2023-01-09T00:00:00	2024-11-08T18:00:00	7	Dirección del viento	4.83
145031	7	Sololá	713	San Lucas Tolimán	10	San Lucas Tolimán	9	Septiembre	2023-01-09T00:00:00	2024-11-08T18:00:00	1	Precipitación	0
145032	7	Sololá	713	San Lucas Tolimán	10	San Lucas Tolimán	9	Septiembre	2023-01-09T00:00:00	2024-11-08T18:00:00	8	Radiación solar	99
145033	7	Sololá	713	San Lucas Tolimán	10	San Lucas Tolimán	9	Septiembre	2023-01-09T00:00:00	2024-11-08T19:00:00	2	Temperatura media	20.6
145034	7	Sololá	713	San Lucas Tolimán	10	San Lucas Tolimán	9	Septiembre	2023-01-09T00:00:00	2024-11-08T19:00:00	4	Temperatura máxima	21.2
145035	7	Sololá	713	San Lucas Tolimán	10	San Lucas Tolimán	9	Septiembre	2023-01-09T00:00:00	2024-11-08T19:00:00	3	Temperatura mínima	20.4
145036	7	Sololá	713	San Lucas Tolimán	10	San Lucas Tolimán	9	Septiembre	2023-01-09T00:00:00	2024-11-08T19:00:00	5	Humedad	91
145037	7	Sololá	713	San Lucas Tolimán	10	San Lucas Tolimán	9	Septiembre	2023-01-09T00:00:00	2024-11-08T19:00:00	6	Velocidad del viento	6.4
145038	7	Sololá	713	San Lucas Tolimán	10	San Lucas Tolimán	9	Septiembre	2023-01-09T00:00:00	2024-11-08T19:00:00	7	Dirección del viento	6.44
145039	7	Sololá	713	San Lucas Tolimán	10	San Lucas Tolimán	9	Septiembre	2023-01-09T00:00:00	2024-11-08T19:00:00	1	Precipitación	0
145040	7	Sololá	713	San Lucas Tolimán	10	San Lucas Tolimán	9	Septiembre	2023-01-09T00:00:00	2024-11-08T19:00:00	8	Radiación solar	0
145041	7	Sololá	713	San Lucas Tolimán	10	San Lucas Tolimán	9	Septiembre	2023-01-09T00:00:00	2024-11-08T20:00:00	2	Temperatura media	20.3
145042	7	Sololá	713	San Lucas Tolimán	10	San Lucas Tolimán	9	Septiembre	2023-01-09T00:00:00	2024-11-08T20:00:00	4	Temperatura máxima	20.8
145043	7	Sololá	713	San Lucas Tolimán	10	San Lucas Tolimán	9	Septiembre	2023-01-09T00:00:00	2024-11-08T20:00:00	3	Temperatura mínima	20.3
145044	7	Sololá	713	San Lucas Tolimán	10	San Lucas Tolimán	9	Septiembre	2023-01-09T00:00:00	2024-11-08T20:00:00	5	Humedad	83
145045	7	Sololá	713	San Lucas Tolimán	10	San Lucas Tolimán	9	Septiembre	2023-01-09T00:00:00	2024-11-08T20:00:00	6	Velocidad del viento	3.2
145046	7	Sololá	713	San Lucas Tolimán	10	San Lucas Tolimán	9	Septiembre	2023-01-09T00:00:00	2024-11-08T20:00:00	7	Dirección del viento	3.22
145047	7	Sololá	713	San Lucas Tolimán	10	San Lucas Tolimán	9	Septiembre	2023-01-09T00:00:00	2024-11-08T20:00:00	1	Precipitación	0.2
145048	7	Sololá	713	San Lucas Tolimán	10	San Lucas Tolimán	9	Septiembre	2023-01-09T00:00:00	2024-11-08T20:00:00	8	Radiación solar	0
145049	7	Sololá	713	San Lucas Tolimán	10	San Lucas Tolimán	9	Septiembre	2023-01-09T00:00:00	2024-11-08T21:00:00	2	Temperatura media	19.3
145050	7	Sololá	713	San Lucas Tolimán	10	San Lucas Tolimán	9	Septiembre	2023-01-09T00:00:00	2024-11-08T21:00:00	4	Temperatura máxima	20.3
145051	7	Sololá	713	San Lucas Tolimán	10	San Lucas Tolimán	9	Septiembre	2023-01-09T00:00:00	2024-11-08T21:00:00	3	Temperatura mínima	19.3
145052	7	Sololá	713	San Lucas Tolimán	10	San Lucas Tolimán	9	Septiembre	2023-01-09T00:00:00	2024-11-08T21:00:00	5	Humedad	85
145053	7	Sololá	713	San Lucas Tolimán	10	San Lucas Tolimán	9	Septiembre	2023-01-09T00:00:00	2024-11-08T21:00:00	6	Velocidad del viento	3.2
145054	7	Sololá	713	San Lucas Tolimán	10	San Lucas Tolimán	9	Septiembre	2023-01-09T00:00:00	2024-11-08T21:00:00	7	Dirección del viento	3.22
145055	7	Sololá	713	San Lucas Tolimán	10	San Lucas Tolimán	9	Septiembre	2023-01-09T00:00:00	2024-11-08T21:00:00	1	Precipitación	0.4
145056	7	Sololá	713	San Lucas Tolimán	10	San Lucas Tolimán	9	Septiembre	2023-01-09T00:00:00	2024-11-08T21:00:00	8	Radiación solar	0
145057	7	Sololá	713	San Lucas Tolimán	10	San Lucas Tolimán	9	Septiembre	2023-01-09T00:00:00	2024-11-08T22:00:00	2	Temperatura media	19.4
145058	7	Sololá	713	San Lucas Tolimán	10	San Lucas Tolimán	9	Septiembre	2023-01-09T00:00:00	2024-11-08T22:00:00	4	Temperatura máxima	19.9
145059	7	Sololá	713	San Lucas Tolimán	10	San Lucas Tolimán	9	Septiembre	2023-01-09T00:00:00	2024-11-08T22:00:00	3	Temperatura mínima	19.2
145060	7	Sololá	713	San Lucas Tolimán	10	San Lucas Tolimán	9	Septiembre	2023-01-09T00:00:00	2024-11-08T22:00:00	5	Humedad	81
145061	7	Sololá	713	San Lucas Tolimán	10	San Lucas Tolimán	9	Septiembre	2023-01-09T00:00:00	2024-11-08T22:00:00	6	Velocidad del viento	1.6
145062	7	Sololá	713	San Lucas Tolimán	10	San Lucas Tolimán	9	Septiembre	2023-01-09T00:00:00	2024-11-08T22:00:00	7	Dirección del viento	1.61
145063	7	Sololá	713	San Lucas Tolimán	10	San Lucas Tolimán	9	Septiembre	2023-01-09T00:00:00	2024-11-08T22:00:00	1	Precipitación	0
145064	7	Sololá	713	San Lucas Tolimán	10	San Lucas Tolimán	9	Septiembre	2023-01-09T00:00:00	2024-11-08T22:00:00	8	Radiación solar	0
145065	7	Sololá	713	San Lucas Tolimán	10	San Lucas Tolimán	9	Septiembre	2023-01-09T00:00:00	2024-11-08T23:00:00	2	Temperatura media	19.1
145066	7	Sololá	713	San Lucas Tolimán	10	San Lucas Tolimán	9	Septiembre	2023-01-09T00:00:00	2024-11-08T23:00:00	4	Temperatura máxima	19.4
145067	7	Sololá	713	San Lucas Tolimán	10	San Lucas Tolimán	9	Septiembre	2023-01-09T00:00:00	2024-11-08T23:00:00	3	Temperatura mínima	18.8
145068	7	Sololá	713	San Lucas Tolimán	10	San Lucas Tolimán	9	Septiembre	2023-01-09T00:00:00	2024-11-08T23:00:00	5	Humedad	84
145069	7	Sololá	713	San Lucas Tolimán	10	San Lucas Tolimán	9	Septiembre	2023-01-09T00:00:00	2024-11-08T23:00:00	6	Velocidad del viento	1.6
145070	7	Sololá	713	San Lucas Tolimán	10	San Lucas Tolimán	9	Septiembre	2023-01-09T00:00:00	2024-11-08T23:00:00	7	Dirección del viento	1.61
145071	7	Sololá	713	San Lucas Tolimán	10	San Lucas Tolimán	9	Septiembre	2023-01-09T00:00:00	2024-11-08T23:00:00	1	Precipitación	0
145072	7	Sololá	713	San Lucas Tolimán	10	San Lucas Tolimán	9	Septiembre	2023-01-09T00:00:00	2024-11-08T23:00:00	8	Radiación solar	0
145073	7	Sololá	713	San Lucas Tolimán	10	San Lucas Tolimán	9	Septiembre	2023-02-09T00:00:00	2024-11-08T00:00:00	2	Temperatura media	19.3
145074	7	Sololá	713	San Lucas Tolimán	10	San Lucas Tolimán	9	Septiembre	2023-02-09T00:00:00	2024-11-08T00:00:00	4	Temperatura máxima	19.3
145075	7	Sololá	713	San Lucas Tolimán	10	San Lucas Tolimán	9	Septiembre	2023-02-09T00:00:00	2024-11-08T00:00:00	3	Temperatura mínima	19.1
145076	7	Sololá	713	San Lucas Tolimán	10	San Lucas Tolimán	9	Septiembre	2023-02-09T00:00:00	2024-11-08T00:00:00	5	Humedad	82
145077	7	Sololá	713	San Lucas Tolimán	10	San Lucas Tolimán	9	Septiembre	2023-02-09T00:00:00	2024-11-08T00:00:00	6	Velocidad del viento	1.6
145078	7	Sololá	713	San Lucas Tolimán	10	San Lucas Tolimán	9	Septiembre	2023-02-09T00:00:00	2024-11-08T00:00:00	7	Dirección del viento	1.61
145079	7	Sololá	713	San Lucas Tolimán	10	San Lucas Tolimán	9	Septiembre	2023-02-09T00:00:00	2024-11-08T00:00:00	1	Precipitación	0
145080	7	Sololá	713	San Lucas Tolimán	10	San Lucas Tolimán	9	Septiembre	2023-02-09T00:00:00	2024-11-08T00:00:00	8	Radiación solar	0
145081	7	Sololá	713	San Lucas Tolimán	10	San Lucas Tolimán	9	Septiembre	2023-02-09T00:00:00	2024-11-08T01:00:00	2	Temperatura media	19.3
145082	7	Sololá	713	San Lucas Tolimán	10	San Lucas Tolimán	9	Septiembre	2023-02-09T00:00:00	2024-11-08T01:00:00	4	Temperatura máxima	20.2
145083	7	Sololá	713	San Lucas Tolimán	10	San Lucas Tolimán	9	Septiembre	2023-02-09T00:00:00	2024-11-08T01:00:00	3	Temperatura mínima	19.2
145084	7	Sololá	713	San Lucas Tolimán	10	San Lucas Tolimán	9	Septiembre	2023-02-09T00:00:00	2024-11-08T01:00:00	5	Humedad	84
145085	7	Sololá	713	San Lucas Tolimán	10	San Lucas Tolimán	9	Septiembre	2023-02-09T00:00:00	2024-11-08T01:00:00	6	Velocidad del viento	1.6
145086	7	Sololá	713	San Lucas Tolimán	10	San Lucas Tolimán	9	Septiembre	2023-02-09T00:00:00	2024-11-08T01:00:00	7	Dirección del viento	1.61
145087	7	Sololá	713	San Lucas Tolimán	10	San Lucas Tolimán	9	Septiembre	2023-02-09T00:00:00	2024-11-08T01:00:00	1	Precipitación	0
145088	7	Sololá	713	San Lucas Tolimán	10	San Lucas Tolimán	9	Septiembre	2023-02-09T00:00:00	2024-11-08T01:00:00	8	Radiación solar	0
145089	7	Sololá	713	San Lucas Tolimán	10	San Lucas Tolimán	9	Septiembre	2023-02-09T00:00:00	2024-11-08T02:00:00	2	Temperatura media	18.7
145090	7	Sololá	713	San Lucas Tolimán	10	San Lucas Tolimán	9	Septiembre	2023-02-09T00:00:00	2024-11-08T02:00:00	4	Temperatura máxima	19.3
145091	7	Sololá	713	San Lucas Tolimán	10	San Lucas Tolimán	9	Septiembre	2023-02-09T00:00:00	2024-11-08T02:00:00	3	Temperatura mínima	18.7
145092	7	Sololá	713	San Lucas Tolimán	10	San Lucas Tolimán	9	Septiembre	2023-02-09T00:00:00	2024-11-08T02:00:00	5	Humedad	85
145093	7	Sololá	713	San Lucas Tolimán	10	San Lucas Tolimán	9	Septiembre	2023-02-09T00:00:00	2024-11-08T02:00:00	6	Velocidad del viento	0
145094	7	Sololá	713	San Lucas Tolimán	10	San Lucas Tolimán	9	Septiembre	2023-02-09T00:00:00	2024-11-08T02:00:00	7	Dirección del viento	0
145095	7	Sololá	713	San Lucas Tolimán	10	San Lucas Tolimán	9	Septiembre	2023-02-09T00:00:00	2024-11-08T02:00:00	1	Precipitación	0
145096	7	Sololá	713	San Lucas Tolimán	10	San Lucas Tolimán	9	Septiembre	2023-02-09T00:00:00	2024-11-08T02:00:00	8	Radiación solar	0
145097	7	Sololá	713	San Lucas Tolimán	10	San Lucas Tolimán	9	Septiembre	2023-02-09T00:00:00	2024-11-08T03:00:00	2	Temperatura media	17.7
145098	7	Sololá	713	San Lucas Tolimán	10	San Lucas Tolimán	9	Septiembre	2023-02-09T00:00:00	2024-11-08T03:00:00	4	Temperatura máxima	18.7
145099	7	Sololá	713	San Lucas Tolimán	10	San Lucas Tolimán	9	Septiembre	2023-02-09T00:00:00	2024-11-08T03:00:00	3	Temperatura mínima	17.7
145100	7	Sololá	713	San Lucas Tolimán	10	San Lucas Tolimán	9	Septiembre	2023-02-09T00:00:00	2024-11-08T03:00:00	5	Humedad	87
145101	7	Sololá	713	San Lucas Tolimán	10	San Lucas Tolimán	9	Septiembre	2023-02-09T00:00:00	2024-11-08T03:00:00	6	Velocidad del viento	1.6
145102	7	Sololá	713	San Lucas Tolimán	10	San Lucas Tolimán	9	Septiembre	2023-02-09T00:00:00	2024-11-08T03:00:00	7	Dirección del viento	1.61
145103	7	Sololá	713	San Lucas Tolimán	10	San Lucas Tolimán	9	Septiembre	2023-02-09T00:00:00	2024-11-08T03:00:00	1	Precipitación	0
145104	7	Sololá	713	San Lucas Tolimán	10	San Lucas Tolimán	9	Septiembre	2023-02-09T00:00:00	2024-11-08T03:00:00	8	Radiación solar	0
145105	7	Sololá	713	San Lucas Tolimán	10	San Lucas Tolimán	9	Septiembre	2023-02-09T00:00:00	2024-11-08T04:00:00	2	Temperatura media	18.8
145106	7	Sololá	713	San Lucas Tolimán	10	San Lucas Tolimán	9	Septiembre	2023-02-09T00:00:00	2024-11-08T04:00:00	4	Temperatura máxima	18.8
145107	7	Sololá	713	San Lucas Tolimán	10	San Lucas Tolimán	9	Septiembre	2023-02-09T00:00:00	2024-11-08T04:00:00	3	Temperatura mínima	17.7
145108	7	Sololá	713	San Lucas Tolimán	10	San Lucas Tolimán	9	Septiembre	2023-02-09T00:00:00	2024-11-08T04:00:00	5	Humedad	77
145109	7	Sololá	713	San Lucas Tolimán	10	San Lucas Tolimán	9	Septiembre	2023-02-09T00:00:00	2024-11-08T04:00:00	6	Velocidad del viento	1.6
145110	7	Sololá	713	San Lucas Tolimán	10	San Lucas Tolimán	9	Septiembre	2023-02-09T00:00:00	2024-11-08T04:00:00	7	Dirección del viento	1.61
145111	7	Sololá	713	San Lucas Tolimán	10	San Lucas Tolimán	9	Septiembre	2023-02-09T00:00:00	2024-11-08T04:00:00	1	Precipitación	0
145112	7	Sololá	713	San Lucas Tolimán	10	San Lucas Tolimán	9	Septiembre	2023-02-09T00:00:00	2024-11-08T04:00:00	8	Radiación solar	0
145113	7	Sololá	713	San Lucas Tolimán	10	San Lucas Tolimán	9	Septiembre	2023-02-09T00:00:00	2024-11-08T05:00:00	2	Temperatura media	19.7
145114	7	Sololá	713	San Lucas Tolimán	10	San Lucas Tolimán	9	Septiembre	2023-02-09T00:00:00	2024-11-08T05:00:00	4	Temperatura máxima	19.8
145115	7	Sololá	713	San Lucas Tolimán	10	San Lucas Tolimán	9	Septiembre	2023-02-09T00:00:00	2024-11-08T05:00:00	3	Temperatura mínima	18.8
145116	7	Sololá	713	San Lucas Tolimán	10	San Lucas Tolimán	9	Septiembre	2023-02-09T00:00:00	2024-11-08T05:00:00	5	Humedad	73
145117	7	Sololá	713	San Lucas Tolimán	10	San Lucas Tolimán	9	Septiembre	2023-02-09T00:00:00	2024-11-08T05:00:00	6	Velocidad del viento	1.6
145118	7	Sololá	713	San Lucas Tolimán	10	San Lucas Tolimán	9	Septiembre	2023-02-09T00:00:00	2024-11-08T05:00:00	7	Dirección del viento	1.61
145119	7	Sololá	713	San Lucas Tolimán	10	San Lucas Tolimán	9	Septiembre	2023-02-09T00:00:00	2024-11-08T05:00:00	1	Precipitación	0
145120	7	Sololá	713	San Lucas Tolimán	10	San Lucas Tolimán	9	Septiembre	2023-02-09T00:00:00	2024-11-08T05:00:00	8	Radiación solar	0
145121	7	Sololá	713	San Lucas Tolimán	10	San Lucas Tolimán	9	Septiembre	2023-02-09T00:00:00	2024-11-08T06:00:00	2	Temperatura media	18.7
145122	7	Sololá	713	San Lucas Tolimán	10	San Lucas Tolimán	9	Septiembre	2023-02-09T00:00:00	2024-11-08T06:00:00	4	Temperatura máxima	19.7
145123	7	Sololá	713	San Lucas Tolimán	10	San Lucas Tolimán	9	Septiembre	2023-02-09T00:00:00	2024-11-08T06:00:00	3	Temperatura mínima	18.7
145124	7	Sololá	713	San Lucas Tolimán	10	San Lucas Tolimán	9	Septiembre	2023-02-09T00:00:00	2024-11-08T06:00:00	5	Humedad	77
145125	7	Sololá	713	San Lucas Tolimán	10	San Lucas Tolimán	9	Septiembre	2023-02-09T00:00:00	2024-11-08T06:00:00	6	Velocidad del viento	1.6
145126	7	Sololá	713	San Lucas Tolimán	10	San Lucas Tolimán	9	Septiembre	2023-02-09T00:00:00	2024-11-08T06:00:00	7	Dirección del viento	1.61
145127	7	Sololá	713	San Lucas Tolimán	10	San Lucas Tolimán	9	Septiembre	2023-02-09T00:00:00	2024-11-08T06:00:00	1	Precipitación	0
145128	7	Sololá	713	San Lucas Tolimán	10	San Lucas Tolimán	9	Septiembre	2023-02-09T00:00:00	2024-11-08T06:00:00	8	Radiación solar	0
145129	7	Sololá	713	San Lucas Tolimán	10	San Lucas Tolimán	9	Septiembre	2023-02-09T00:00:00	2024-11-08T07:00:00	2	Temperatura media	18.4
145130	7	Sololá	713	San Lucas Tolimán	10	San Lucas Tolimán	9	Septiembre	2023-02-09T00:00:00	2024-11-08T07:00:00	4	Temperatura máxima	18.8
145131	7	Sololá	713	San Lucas Tolimán	10	San Lucas Tolimán	9	Septiembre	2023-02-09T00:00:00	2024-11-08T07:00:00	3	Temperatura mínima	18.1
145132	7	Sololá	713	San Lucas Tolimán	10	San Lucas Tolimán	9	Septiembre	2023-02-09T00:00:00	2024-11-08T07:00:00	5	Humedad	79
145133	7	Sololá	713	San Lucas Tolimán	10	San Lucas Tolimán	9	Septiembre	2023-02-09T00:00:00	2024-11-08T07:00:00	6	Velocidad del viento	1.6
145134	7	Sololá	713	San Lucas Tolimán	10	San Lucas Tolimán	9	Septiembre	2023-02-09T00:00:00	2024-11-08T07:00:00	7	Dirección del viento	1.61
145135	7	Sololá	713	San Lucas Tolimán	10	San Lucas Tolimán	9	Septiembre	2023-02-09T00:00:00	2024-11-08T07:00:00	1	Precipitación	0
145136	7	Sololá	713	San Lucas Tolimán	10	San Lucas Tolimán	9	Septiembre	2023-02-09T00:00:00	2024-11-08T07:00:00	8	Radiación solar	32
145137	7	Sololá	713	San Lucas Tolimán	10	San Lucas Tolimán	9	Septiembre	2023-02-09T00:00:00	2024-11-08T08:00:00	2	Temperatura media	21.9
145138	7	Sololá	713	San Lucas Tolimán	10	San Lucas Tolimán	9	Septiembre	2023-02-09T00:00:00	2024-11-08T08:00:00	4	Temperatura máxima	21.9
145139	7	Sololá	713	San Lucas Tolimán	10	San Lucas Tolimán	9	Septiembre	2023-02-09T00:00:00	2024-11-08T08:00:00	3	Temperatura mínima	18.4
145140	7	Sololá	713	San Lucas Tolimán	10	San Lucas Tolimán	9	Septiembre	2023-02-09T00:00:00	2024-11-08T08:00:00	5	Humedad	69
145141	7	Sololá	713	San Lucas Tolimán	10	San Lucas Tolimán	9	Septiembre	2023-02-09T00:00:00	2024-11-08T08:00:00	6	Velocidad del viento	1.6
145142	7	Sololá	713	San Lucas Tolimán	10	San Lucas Tolimán	9	Septiembre	2023-02-09T00:00:00	2024-11-08T08:00:00	7	Dirección del viento	1.61
145143	7	Sololá	713	San Lucas Tolimán	10	San Lucas Tolimán	9	Septiembre	2023-02-09T00:00:00	2024-11-08T08:00:00	1	Precipitación	0
145144	7	Sololá	713	San Lucas Tolimán	10	San Lucas Tolimán	9	Septiembre	2023-02-09T00:00:00	2024-11-08T08:00:00	8	Radiación solar	238
145145	7	Sololá	713	San Lucas Tolimán	10	San Lucas Tolimán	9	Septiembre	2023-02-09T00:00:00	2024-11-08T09:00:00	2	Temperatura media	25.1
145146	7	Sololá	713	San Lucas Tolimán	10	San Lucas Tolimán	9	Septiembre	2023-02-09T00:00:00	2024-11-08T09:00:00	4	Temperatura máxima	25.1
145147	7	Sololá	713	San Lucas Tolimán	10	San Lucas Tolimán	9	Septiembre	2023-02-09T00:00:00	2024-11-08T09:00:00	3	Temperatura mínima	21.9
145148	7	Sololá	713	San Lucas Tolimán	10	San Lucas Tolimán	9	Septiembre	2023-02-09T00:00:00	2024-11-08T09:00:00	5	Humedad	57
145149	7	Sololá	713	San Lucas Tolimán	10	San Lucas Tolimán	9	Septiembre	2023-02-09T00:00:00	2024-11-08T09:00:00	6	Velocidad del viento	1.6
145150	7	Sololá	713	San Lucas Tolimán	10	San Lucas Tolimán	9	Septiembre	2023-02-09T00:00:00	2024-11-08T09:00:00	7	Dirección del viento	1.61
145151	7	Sololá	713	San Lucas Tolimán	10	San Lucas Tolimán	9	Septiembre	2023-02-09T00:00:00	2024-11-08T09:00:00	1	Precipitación	0
145152	7	Sololá	713	San Lucas Tolimán	10	San Lucas Tolimán	9	Septiembre	2023-02-09T00:00:00	2024-11-08T09:00:00	8	Radiación solar	534
145153	7	Sololá	713	San Lucas Tolimán	10	San Lucas Tolimán	9	Septiembre	2023-02-09T00:00:00	2024-11-08T10:00:00	2	Temperatura media	25.4
145154	7	Sololá	713	San Lucas Tolimán	10	San Lucas Tolimán	9	Septiembre	2023-02-09T00:00:00	2024-11-08T10:00:00	4	Temperatura máxima	25.7
145155	7	Sololá	713	San Lucas Tolimán	10	San Lucas Tolimán	9	Septiembre	2023-02-09T00:00:00	2024-11-08T10:00:00	3	Temperatura mínima	25
145156	7	Sololá	713	San Lucas Tolimán	10	San Lucas Tolimán	9	Septiembre	2023-02-09T00:00:00	2024-11-08T10:00:00	5	Humedad	62
145157	7	Sololá	713	San Lucas Tolimán	10	San Lucas Tolimán	9	Septiembre	2023-02-09T00:00:00	2024-11-08T10:00:00	6	Velocidad del viento	3.2
145158	7	Sololá	713	San Lucas Tolimán	10	San Lucas Tolimán	9	Septiembre	2023-02-09T00:00:00	2024-11-08T10:00:00	7	Dirección del viento	3.22
145159	7	Sololá	713	San Lucas Tolimán	10	San Lucas Tolimán	9	Septiembre	2023-02-09T00:00:00	2024-11-08T10:00:00	1	Precipitación	0
145160	7	Sololá	713	San Lucas Tolimán	10	San Lucas Tolimán	9	Septiembre	2023-02-09T00:00:00	2024-11-08T10:00:00	8	Radiación solar	737
145161	7	Sololá	713	San Lucas Tolimán	10	San Lucas Tolimán	9	Septiembre	2023-02-09T00:00:00	2024-11-08T11:00:00	2	Temperatura media	26.7
145162	7	Sololá	713	San Lucas Tolimán	10	San Lucas Tolimán	9	Septiembre	2023-02-09T00:00:00	2024-11-08T11:00:00	4	Temperatura máxima	26.8
145163	7	Sololá	713	San Lucas Tolimán	10	San Lucas Tolimán	9	Septiembre	2023-02-09T00:00:00	2024-11-08T11:00:00	3	Temperatura mínima	25.3
145164	7	Sololá	713	San Lucas Tolimán	10	San Lucas Tolimán	9	Septiembre	2023-02-09T00:00:00	2024-11-08T11:00:00	5	Humedad	64
145165	7	Sololá	713	San Lucas Tolimán	10	San Lucas Tolimán	9	Septiembre	2023-02-09T00:00:00	2024-11-08T11:00:00	6	Velocidad del viento	4.8
145166	7	Sololá	713	San Lucas Tolimán	10	San Lucas Tolimán	9	Septiembre	2023-02-09T00:00:00	2024-11-08T11:00:00	7	Dirección del viento	4.83
145167	7	Sololá	713	San Lucas Tolimán	10	San Lucas Tolimán	9	Septiembre	2023-02-09T00:00:00	2024-11-08T11:00:00	1	Precipitación	0
145168	7	Sololá	713	San Lucas Tolimán	10	San Lucas Tolimán	9	Septiembre	2023-02-09T00:00:00	2024-11-08T11:00:00	8	Radiación solar	905
145169	7	Sololá	713	San Lucas Tolimán	10	San Lucas Tolimán	9	Septiembre	2023-02-09T00:00:00	2024-11-08T12:00:00	2	Temperatura media	24.6
145170	7	Sololá	713	San Lucas Tolimán	10	San Lucas Tolimán	9	Septiembre	2023-02-09T00:00:00	2024-11-08T12:00:00	4	Temperatura máxima	26.7
145171	7	Sololá	713	San Lucas Tolimán	10	San Lucas Tolimán	9	Septiembre	2023-02-09T00:00:00	2024-11-08T12:00:00	3	Temperatura mínima	24.3
145172	7	Sololá	713	San Lucas Tolimán	10	San Lucas Tolimán	9	Septiembre	2023-02-09T00:00:00	2024-11-08T12:00:00	5	Humedad	77
145173	7	Sololá	713	San Lucas Tolimán	10	San Lucas Tolimán	9	Septiembre	2023-02-09T00:00:00	2024-11-08T12:00:00	6	Velocidad del viento	9.7
145174	7	Sololá	713	San Lucas Tolimán	10	San Lucas Tolimán	9	Septiembre	2023-02-09T00:00:00	2024-11-08T12:00:00	7	Dirección del viento	9.66
145175	7	Sololá	713	San Lucas Tolimán	10	San Lucas Tolimán	9	Septiembre	2023-02-09T00:00:00	2024-11-08T12:00:00	1	Precipitación	0
145176	7	Sololá	713	San Lucas Tolimán	10	San Lucas Tolimán	9	Septiembre	2023-02-09T00:00:00	2024-11-08T12:00:00	8	Radiación solar	1007
145177	7	Sololá	713	San Lucas Tolimán	10	San Lucas Tolimán	9	Septiembre	2023-02-09T00:00:00	2024-11-08T13:00:00	2	Temperatura media	24.5
145178	7	Sololá	713	San Lucas Tolimán	10	San Lucas Tolimán	9	Septiembre	2023-02-09T00:00:00	2024-11-08T13:00:00	4	Temperatura máxima	25.2
145179	7	Sololá	713	San Lucas Tolimán	10	San Lucas Tolimán	9	Septiembre	2023-02-09T00:00:00	2024-11-08T13:00:00	3	Temperatura mínima	24.2
145180	7	Sololá	713	San Lucas Tolimán	10	San Lucas Tolimán	9	Septiembre	2023-02-09T00:00:00	2024-11-08T13:00:00	5	Humedad	75
145181	7	Sololá	713	San Lucas Tolimán	10	San Lucas Tolimán	9	Septiembre	2023-02-09T00:00:00	2024-11-08T13:00:00	6	Velocidad del viento	9.7
145182	7	Sololá	713	San Lucas Tolimán	10	San Lucas Tolimán	9	Septiembre	2023-02-09T00:00:00	2024-11-08T13:00:00	7	Dirección del viento	9.66
145183	7	Sololá	713	San Lucas Tolimán	10	San Lucas Tolimán	9	Septiembre	2023-02-09T00:00:00	2024-11-08T13:00:00	1	Precipitación	0
145184	7	Sololá	713	San Lucas Tolimán	10	San Lucas Tolimán	9	Septiembre	2023-02-09T00:00:00	2024-11-08T13:00:00	8	Radiación solar	757
145185	7	Sololá	713	San Lucas Tolimán	10	San Lucas Tolimán	9	Septiembre	2023-02-09T00:00:00	2024-11-08T14:00:00	2	Temperatura media	19.3
145186	7	Sololá	713	San Lucas Tolimán	10	San Lucas Tolimán	9	Septiembre	2023-02-09T00:00:00	2024-11-08T14:00:00	4	Temperatura máxima	24.4
145187	7	Sololá	713	San Lucas Tolimán	10	San Lucas Tolimán	9	Septiembre	2023-02-09T00:00:00	2024-11-08T14:00:00	3	Temperatura mínima	19.3
145188	7	Sololá	713	San Lucas Tolimán	10	San Lucas Tolimán	9	Septiembre	2023-02-09T00:00:00	2024-11-08T14:00:00	5	Humedad	88
145189	7	Sololá	713	San Lucas Tolimán	10	San Lucas Tolimán	9	Septiembre	2023-02-09T00:00:00	2024-11-08T14:00:00	6	Velocidad del viento	12.9
145190	7	Sololá	713	San Lucas Tolimán	10	San Lucas Tolimán	9	Septiembre	2023-02-09T00:00:00	2024-11-08T14:00:00	7	Dirección del viento	12.87
145191	7	Sololá	713	San Lucas Tolimán	10	San Lucas Tolimán	9	Septiembre	2023-02-09T00:00:00	2024-11-08T14:00:00	1	Precipitación	0
145192	7	Sololá	713	San Lucas Tolimán	10	San Lucas Tolimán	9	Septiembre	2023-02-09T00:00:00	2024-11-08T14:00:00	8	Radiación solar	712
145193	7	Sololá	713	San Lucas Tolimán	10	San Lucas Tolimán	9	Septiembre	2023-02-09T00:00:00	2024-11-08T15:00:00	2	Temperatura media	18.7
145194	7	Sololá	713	San Lucas Tolimán	10	San Lucas Tolimán	9	Septiembre	2023-02-09T00:00:00	2024-11-08T15:00:00	4	Temperatura máxima	19.3
145195	7	Sololá	713	San Lucas Tolimán	10	San Lucas Tolimán	9	Septiembre	2023-02-09T00:00:00	2024-11-08T15:00:00	3	Temperatura mínima	18.4
145196	7	Sololá	713	San Lucas Tolimán	10	San Lucas Tolimán	9	Septiembre	2023-02-09T00:00:00	2024-11-08T15:00:00	5	Humedad	87
145197	7	Sololá	713	San Lucas Tolimán	10	San Lucas Tolimán	9	Septiembre	2023-02-09T00:00:00	2024-11-08T15:00:00	6	Velocidad del viento	11.3
145198	7	Sololá	713	San Lucas Tolimán	10	San Lucas Tolimán	9	Septiembre	2023-02-09T00:00:00	2024-11-08T15:00:00	7	Dirección del viento	11.27
145199	7	Sololá	713	San Lucas Tolimán	10	San Lucas Tolimán	9	Septiembre	2023-02-09T00:00:00	2024-11-08T15:00:00	1	Precipitación	2.2
145200	7	Sololá	713	San Lucas Tolimán	10	San Lucas Tolimán	9	Septiembre	2023-02-09T00:00:00	2024-11-08T15:00:00	8	Radiación solar	547
145201	7	Sololá	713	San Lucas Tolimán	10	San Lucas Tolimán	9	Septiembre	2023-02-09T00:00:00	2024-11-08T16:00:00	2	Temperatura media	21.1
145202	7	Sololá	713	San Lucas Tolimán	10	San Lucas Tolimán	9	Septiembre	2023-02-09T00:00:00	2024-11-08T16:00:00	4	Temperatura máxima	21.7
145203	7	Sololá	713	San Lucas Tolimán	10	San Lucas Tolimán	9	Septiembre	2023-02-09T00:00:00	2024-11-08T16:00:00	3	Temperatura mínima	18.7
145204	7	Sololá	713	San Lucas Tolimán	10	San Lucas Tolimán	9	Septiembre	2023-02-09T00:00:00	2024-11-08T16:00:00	5	Humedad	81
145205	7	Sololá	713	San Lucas Tolimán	10	San Lucas Tolimán	9	Septiembre	2023-02-09T00:00:00	2024-11-08T16:00:00	6	Velocidad del viento	8
145206	7	Sololá	713	San Lucas Tolimán	10	San Lucas Tolimán	9	Septiembre	2023-02-09T00:00:00	2024-11-08T16:00:00	7	Dirección del viento	8.05
145207	7	Sololá	713	San Lucas Tolimán	10	San Lucas Tolimán	9	Septiembre	2023-02-09T00:00:00	2024-11-08T16:00:00	1	Precipitación	0
145208	7	Sololá	713	San Lucas Tolimán	10	San Lucas Tolimán	9	Septiembre	2023-02-09T00:00:00	2024-11-08T16:00:00	8	Radiación solar	270
145209	7	Sololá	713	San Lucas Tolimán	10	San Lucas Tolimán	9	Septiembre	2023-02-09T00:00:00	2024-11-08T17:00:00	2	Temperatura media	23.1
145210	7	Sololá	713	San Lucas Tolimán	10	San Lucas Tolimán	9	Septiembre	2023-02-09T00:00:00	2024-11-08T17:00:00	4	Temperatura máxima	23.2
145211	7	Sololá	713	San Lucas Tolimán	10	San Lucas Tolimán	9	Septiembre	2023-02-09T00:00:00	2024-11-08T17:00:00	3	Temperatura mínima	21.1
145212	7	Sololá	713	San Lucas Tolimán	10	San Lucas Tolimán	9	Septiembre	2023-02-09T00:00:00	2024-11-08T17:00:00	5	Humedad	74
145213	7	Sololá	713	San Lucas Tolimán	10	San Lucas Tolimán	9	Septiembre	2023-02-09T00:00:00	2024-11-08T17:00:00	6	Velocidad del viento	1.6
145214	7	Sololá	713	San Lucas Tolimán	10	San Lucas Tolimán	9	Septiembre	2023-02-09T00:00:00	2024-11-08T17:00:00	7	Dirección del viento	1.61
145215	7	Sololá	713	San Lucas Tolimán	10	San Lucas Tolimán	9	Septiembre	2023-02-09T00:00:00	2024-11-08T17:00:00	1	Precipitación	0
145216	7	Sololá	713	San Lucas Tolimán	10	San Lucas Tolimán	9	Septiembre	2023-02-09T00:00:00	2024-11-08T17:00:00	8	Radiación solar	349
145217	7	Sololá	713	San Lucas Tolimán	10	San Lucas Tolimán	9	Septiembre	2023-02-09T00:00:00	2024-11-08T18:00:00	2	Temperatura media	20
145218	7	Sololá	713	San Lucas Tolimán	10	San Lucas Tolimán	9	Septiembre	2023-02-09T00:00:00	2024-11-08T18:00:00	4	Temperatura máxima	23.1
145219	7	Sololá	713	San Lucas Tolimán	10	San Lucas Tolimán	9	Septiembre	2023-02-09T00:00:00	2024-11-08T18:00:00	3	Temperatura mínima	20
145220	7	Sololá	713	San Lucas Tolimán	10	San Lucas Tolimán	9	Septiembre	2023-02-09T00:00:00	2024-11-08T18:00:00	5	Humedad	88
145221	7	Sololá	713	San Lucas Tolimán	10	San Lucas Tolimán	9	Septiembre	2023-02-09T00:00:00	2024-11-08T18:00:00	6	Velocidad del viento	3.2
145222	7	Sololá	713	San Lucas Tolimán	10	San Lucas Tolimán	9	Septiembre	2023-02-09T00:00:00	2024-11-08T18:00:00	7	Dirección del viento	3.22
145223	7	Sololá	713	San Lucas Tolimán	10	San Lucas Tolimán	9	Septiembre	2023-02-09T00:00:00	2024-11-08T18:00:00	1	Precipitación	0.2
145224	7	Sololá	713	San Lucas Tolimán	10	San Lucas Tolimán	9	Septiembre	2023-02-09T00:00:00	2024-11-08T18:00:00	8	Radiación solar	64
145225	7	Sololá	713	San Lucas Tolimán	10	San Lucas Tolimán	9	Septiembre	2023-02-09T00:00:00	2024-11-08T19:00:00	2	Temperatura media	19.1
145226	7	Sololá	713	San Lucas Tolimán	10	San Lucas Tolimán	9	Septiembre	2023-02-09T00:00:00	2024-11-08T19:00:00	4	Temperatura máxima	20.1
145227	7	Sololá	713	San Lucas Tolimán	10	San Lucas Tolimán	9	Septiembre	2023-02-09T00:00:00	2024-11-08T19:00:00	3	Temperatura mínima	19
145228	7	Sololá	713	San Lucas Tolimán	10	San Lucas Tolimán	9	Septiembre	2023-02-09T00:00:00	2024-11-08T19:00:00	5	Humedad	88
145229	7	Sololá	713	San Lucas Tolimán	10	San Lucas Tolimán	9	Septiembre	2023-02-09T00:00:00	2024-11-08T19:00:00	6	Velocidad del viento	1.6
145230	7	Sololá	713	San Lucas Tolimán	10	San Lucas Tolimán	9	Septiembre	2023-02-09T00:00:00	2024-11-08T19:00:00	7	Dirección del viento	1.61
145231	7	Sololá	713	San Lucas Tolimán	10	San Lucas Tolimán	9	Septiembre	2023-02-09T00:00:00	2024-11-08T19:00:00	1	Precipitación	0
145232	7	Sololá	713	San Lucas Tolimán	10	San Lucas Tolimán	9	Septiembre	2023-02-09T00:00:00	2024-11-08T19:00:00	8	Radiación solar	0
145233	7	Sololá	713	San Lucas Tolimán	10	San Lucas Tolimán	9	Septiembre	2023-02-09T00:00:00	2024-11-08T20:00:00	2	Temperatura media	18.9
145234	7	Sololá	713	San Lucas Tolimán	10	San Lucas Tolimán	9	Septiembre	2023-02-09T00:00:00	2024-11-08T20:00:00	4	Temperatura máxima	19.1
145235	7	Sololá	713	San Lucas Tolimán	10	San Lucas Tolimán	9	Septiembre	2023-02-09T00:00:00	2024-11-08T20:00:00	3	Temperatura mínima	18.8
145236	7	Sololá	713	San Lucas Tolimán	10	San Lucas Tolimán	9	Septiembre	2023-02-09T00:00:00	2024-11-08T20:00:00	5	Humedad	88
145237	7	Sololá	713	San Lucas Tolimán	10	San Lucas Tolimán	9	Septiembre	2023-02-09T00:00:00	2024-11-08T20:00:00	6	Velocidad del viento	1.6
145238	7	Sololá	713	San Lucas Tolimán	10	San Lucas Tolimán	9	Septiembre	2023-02-09T00:00:00	2024-11-08T20:00:00	7	Dirección del viento	1.61
145239	7	Sololá	713	San Lucas Tolimán	10	San Lucas Tolimán	9	Septiembre	2023-02-09T00:00:00	2024-11-08T20:00:00	1	Precipitación	0
145240	7	Sololá	713	San Lucas Tolimán	10	San Lucas Tolimán	9	Septiembre	2023-02-09T00:00:00	2024-11-08T20:00:00	8	Radiación solar	0
145241	7	Sololá	713	San Lucas Tolimán	10	San Lucas Tolimán	9	Septiembre	2023-02-09T00:00:00	2024-11-08T21:00:00	2	Temperatura media	19.9
145242	7	Sololá	713	San Lucas Tolimán	10	San Lucas Tolimán	9	Septiembre	2023-02-09T00:00:00	2024-11-08T21:00:00	4	Temperatura máxima	20.1
145243	7	Sololá	713	San Lucas Tolimán	10	San Lucas Tolimán	9	Septiembre	2023-02-09T00:00:00	2024-11-08T21:00:00	3	Temperatura mínima	18.8
145244	7	Sololá	713	San Lucas Tolimán	10	San Lucas Tolimán	9	Septiembre	2023-02-09T00:00:00	2024-11-08T21:00:00	5	Humedad	82
145245	7	Sololá	713	San Lucas Tolimán	10	San Lucas Tolimán	9	Septiembre	2023-02-09T00:00:00	2024-11-08T21:00:00	6	Velocidad del viento	1.6
145246	7	Sololá	713	San Lucas Tolimán	10	San Lucas Tolimán	9	Septiembre	2023-02-09T00:00:00	2024-11-08T21:00:00	7	Dirección del viento	1.61
145247	7	Sololá	713	San Lucas Tolimán	10	San Lucas Tolimán	9	Septiembre	2023-02-09T00:00:00	2024-11-08T21:00:00	1	Precipitación	0
145248	7	Sololá	713	San Lucas Tolimán	10	San Lucas Tolimán	9	Septiembre	2023-02-09T00:00:00	2024-11-08T21:00:00	8	Radiación solar	0
145249	7	Sololá	713	San Lucas Tolimán	10	San Lucas Tolimán	9	Septiembre	2023-02-09T00:00:00	2024-11-08T22:00:00	2	Temperatura media	20.7
145250	7	Sololá	713	San Lucas Tolimán	10	San Lucas Tolimán	9	Septiembre	2023-02-09T00:00:00	2024-11-08T22:00:00	4	Temperatura máxima	20.7
145251	7	Sololá	713	San Lucas Tolimán	10	San Lucas Tolimán	9	Septiembre	2023-02-09T00:00:00	2024-11-08T22:00:00	3	Temperatura mínima	19.2
145252	7	Sololá	713	San Lucas Tolimán	10	San Lucas Tolimán	9	Septiembre	2023-02-09T00:00:00	2024-11-08T22:00:00	5	Humedad	77
145253	7	Sololá	713	San Lucas Tolimán	10	San Lucas Tolimán	9	Septiembre	2023-02-09T00:00:00	2024-11-08T22:00:00	6	Velocidad del viento	1.6
145254	7	Sololá	713	San Lucas Tolimán	10	San Lucas Tolimán	9	Septiembre	2023-02-09T00:00:00	2024-11-08T22:00:00	7	Dirección del viento	1.61
145255	7	Sololá	713	San Lucas Tolimán	10	San Lucas Tolimán	9	Septiembre	2023-02-09T00:00:00	2024-11-08T22:00:00	1	Precipitación	0
145256	7	Sololá	713	San Lucas Tolimán	10	San Lucas Tolimán	9	Septiembre	2023-02-09T00:00:00	2024-11-08T22:00:00	8	Radiación solar	0
145257	7	Sololá	713	San Lucas Tolimán	10	San Lucas Tolimán	9	Septiembre	2023-02-09T00:00:00	2024-11-08T23:00:00	2	Temperatura media	20.4
145258	7	Sololá	713	San Lucas Tolimán	10	San Lucas Tolimán	9	Septiembre	2023-02-09T00:00:00	2024-11-08T23:00:00	4	Temperatura máxima	20.9
145259	7	Sololá	713	San Lucas Tolimán	10	San Lucas Tolimán	9	Septiembre	2023-02-09T00:00:00	2024-11-08T23:00:00	3	Temperatura mínima	20.4
145260	7	Sololá	713	San Lucas Tolimán	10	San Lucas Tolimán	9	Septiembre	2023-02-09T00:00:00	2024-11-08T23:00:00	5	Humedad	79
145261	7	Sololá	713	San Lucas Tolimán	10	San Lucas Tolimán	9	Septiembre	2023-02-09T00:00:00	2024-11-08T23:00:00	6	Velocidad del viento	1.6
145262	7	Sololá	713	San Lucas Tolimán	10	San Lucas Tolimán	9	Septiembre	2023-02-09T00:00:00	2024-11-08T23:00:00	7	Dirección del viento	1.61
145263	7	Sololá	713	San Lucas Tolimán	10	San Lucas Tolimán	9	Septiembre	2023-02-09T00:00:00	2024-11-08T23:00:00	1	Precipitación	0
145264	7	Sololá	713	San Lucas Tolimán	10	San Lucas Tolimán	9	Septiembre	2023-02-09T00:00:00	2024-11-08T23:00:00	8	Radiación solar	0
145265	7	Sololá	713	San Lucas Tolimán	10	San Lucas Tolimán	9	Septiembre	2023-03-09T00:00:00	2024-11-08T00:00:00	2	Temperatura media	20.3
145266	7	Sololá	713	San Lucas Tolimán	10	San Lucas Tolimán	9	Septiembre	2023-03-09T00:00:00	2024-11-08T00:00:00	4	Temperatura máxima	20.6
145267	7	Sololá	713	San Lucas Tolimán	10	San Lucas Tolimán	9	Septiembre	2023-03-09T00:00:00	2024-11-08T00:00:00	3	Temperatura mínima	20
145268	7	Sololá	713	San Lucas Tolimán	10	San Lucas Tolimán	9	Septiembre	2023-03-09T00:00:00	2024-11-08T00:00:00	5	Humedad	77
145269	7	Sololá	713	San Lucas Tolimán	10	San Lucas Tolimán	9	Septiembre	2023-03-09T00:00:00	2024-11-08T00:00:00	6	Velocidad del viento	3.2
145270	7	Sololá	713	San Lucas Tolimán	10	San Lucas Tolimán	9	Septiembre	2023-03-09T00:00:00	2024-11-08T00:00:00	7	Dirección del viento	3.22
145271	7	Sololá	713	San Lucas Tolimán	10	San Lucas Tolimán	9	Septiembre	2023-03-09T00:00:00	2024-11-08T00:00:00	1	Precipitación	0
145272	7	Sololá	713	San Lucas Tolimán	10	San Lucas Tolimán	9	Septiembre	2023-03-09T00:00:00	2024-11-08T00:00:00	8	Radiación solar	0
145273	7	Sololá	713	San Lucas Tolimán	10	San Lucas Tolimán	9	Septiembre	2023-03-09T00:00:00	2024-11-08T01:00:00	2	Temperatura media	19.2
145274	7	Sololá	713	San Lucas Tolimán	10	San Lucas Tolimán	9	Septiembre	2023-03-09T00:00:00	2024-11-08T01:00:00	4	Temperatura máxima	20.3
145275	7	Sololá	713	San Lucas Tolimán	10	San Lucas Tolimán	9	Septiembre	2023-03-09T00:00:00	2024-11-08T01:00:00	3	Temperatura mínima	19.2
145276	7	Sololá	713	San Lucas Tolimán	10	San Lucas Tolimán	9	Septiembre	2023-03-09T00:00:00	2024-11-08T01:00:00	5	Humedad	80
145277	7	Sololá	713	San Lucas Tolimán	10	San Lucas Tolimán	9	Septiembre	2023-03-09T00:00:00	2024-11-08T01:00:00	6	Velocidad del viento	1.6
145278	7	Sololá	713	San Lucas Tolimán	10	San Lucas Tolimán	9	Septiembre	2023-03-09T00:00:00	2024-11-08T01:00:00	7	Dirección del viento	1.61
145279	7	Sololá	713	San Lucas Tolimán	10	San Lucas Tolimán	9	Septiembre	2023-03-09T00:00:00	2024-11-08T01:00:00	1	Precipitación	0
145280	7	Sololá	713	San Lucas Tolimán	10	San Lucas Tolimán	9	Septiembre	2023-03-09T00:00:00	2024-11-08T01:00:00	8	Radiación solar	0
145281	7	Sololá	713	San Lucas Tolimán	10	San Lucas Tolimán	9	Septiembre	2023-03-09T00:00:00	2024-11-08T02:00:00	2	Temperatura media	20.4
145282	7	Sololá	713	San Lucas Tolimán	10	San Lucas Tolimán	9	Septiembre	2023-03-09T00:00:00	2024-11-08T02:00:00	4	Temperatura máxima	20.4
145283	7	Sololá	713	San Lucas Tolimán	10	San Lucas Tolimán	9	Septiembre	2023-03-09T00:00:00	2024-11-08T02:00:00	3	Temperatura mínima	18.7
145284	7	Sololá	713	San Lucas Tolimán	10	San Lucas Tolimán	9	Septiembre	2023-03-09T00:00:00	2024-11-08T02:00:00	5	Humedad	73
145285	7	Sololá	713	San Lucas Tolimán	10	San Lucas Tolimán	9	Septiembre	2023-03-09T00:00:00	2024-11-08T02:00:00	6	Velocidad del viento	1.6
145286	7	Sololá	713	San Lucas Tolimán	10	San Lucas Tolimán	9	Septiembre	2023-03-09T00:00:00	2024-11-08T02:00:00	7	Dirección del viento	1.61
145287	7	Sololá	713	San Lucas Tolimán	10	San Lucas Tolimán	9	Septiembre	2023-03-09T00:00:00	2024-11-08T02:00:00	1	Precipitación	0
145288	7	Sololá	713	San Lucas Tolimán	10	San Lucas Tolimán	9	Septiembre	2023-03-09T00:00:00	2024-11-08T02:00:00	8	Radiación solar	0
145289	7	Sololá	713	San Lucas Tolimán	10	San Lucas Tolimán	9	Septiembre	2023-03-09T00:00:00	2024-11-08T03:00:00	2	Temperatura media	20.2
145290	7	Sololá	713	San Lucas Tolimán	10	San Lucas Tolimán	9	Septiembre	2023-03-09T00:00:00	2024-11-08T03:00:00	4	Temperatura máxima	20.8
145291	7	Sololá	713	San Lucas Tolimán	10	San Lucas Tolimán	9	Septiembre	2023-03-09T00:00:00	2024-11-08T03:00:00	3	Temperatura mínima	20.2
145292	7	Sololá	713	San Lucas Tolimán	10	San Lucas Tolimán	9	Septiembre	2023-03-09T00:00:00	2024-11-08T03:00:00	5	Humedad	74
145293	7	Sololá	713	San Lucas Tolimán	10	San Lucas Tolimán	9	Septiembre	2023-03-09T00:00:00	2024-11-08T03:00:00	6	Velocidad del viento	4.8
145294	7	Sololá	713	San Lucas Tolimán	10	San Lucas Tolimán	9	Septiembre	2023-03-09T00:00:00	2024-11-08T03:00:00	7	Dirección del viento	4.83
145295	7	Sololá	713	San Lucas Tolimán	10	San Lucas Tolimán	9	Septiembre	2023-03-09T00:00:00	2024-11-08T03:00:00	1	Precipitación	0
145296	7	Sololá	713	San Lucas Tolimán	10	San Lucas Tolimán	9	Septiembre	2023-03-09T00:00:00	2024-11-08T03:00:00	8	Radiación solar	0
145297	7	Sololá	713	San Lucas Tolimán	10	San Lucas Tolimán	9	Septiembre	2023-03-09T00:00:00	2024-11-08T04:00:00	2	Temperatura media	18.5
145298	7	Sololá	713	San Lucas Tolimán	10	San Lucas Tolimán	9	Septiembre	2023-03-09T00:00:00	2024-11-08T04:00:00	4	Temperatura máxima	20.2
145299	7	Sololá	713	San Lucas Tolimán	10	San Lucas Tolimán	9	Septiembre	2023-03-09T00:00:00	2024-11-08T04:00:00	3	Temperatura mínima	18.5
145300	7	Sololá	713	San Lucas Tolimán	10	San Lucas Tolimán	9	Septiembre	2023-03-09T00:00:00	2024-11-08T04:00:00	5	Humedad	81
145301	7	Sololá	713	San Lucas Tolimán	10	San Lucas Tolimán	9	Septiembre	2023-03-09T00:00:00	2024-11-08T04:00:00	6	Velocidad del viento	1.6
145302	7	Sololá	713	San Lucas Tolimán	10	San Lucas Tolimán	9	Septiembre	2023-03-09T00:00:00	2024-11-08T04:00:00	7	Dirección del viento	1.61
145303	7	Sololá	713	San Lucas Tolimán	10	San Lucas Tolimán	9	Septiembre	2023-03-09T00:00:00	2024-11-08T04:00:00	1	Precipitación	0
145304	7	Sololá	713	San Lucas Tolimán	10	San Lucas Tolimán	9	Septiembre	2023-03-09T00:00:00	2024-11-08T04:00:00	8	Radiación solar	0
145305	7	Sololá	713	San Lucas Tolimán	10	San Lucas Tolimán	9	Septiembre	2023-03-09T00:00:00	2024-11-08T05:00:00	2	Temperatura media	19.7
145306	7	Sololá	713	San Lucas Tolimán	10	San Lucas Tolimán	9	Septiembre	2023-03-09T00:00:00	2024-11-08T05:00:00	4	Temperatura máxima	19.7
145307	7	Sololá	713	San Lucas Tolimán	10	San Lucas Tolimán	9	Septiembre	2023-03-09T00:00:00	2024-11-08T05:00:00	3	Temperatura mínima	17.6
145308	7	Sololá	713	San Lucas Tolimán	10	San Lucas Tolimán	9	Septiembre	2023-03-09T00:00:00	2024-11-08T05:00:00	5	Humedad	75
145309	7	Sololá	713	San Lucas Tolimán	10	San Lucas Tolimán	9	Septiembre	2023-03-09T00:00:00	2024-11-08T05:00:00	6	Velocidad del viento	4.8
145310	7	Sololá	713	San Lucas Tolimán	10	San Lucas Tolimán	9	Septiembre	2023-03-09T00:00:00	2024-11-08T05:00:00	7	Dirección del viento	4.83
145311	7	Sololá	713	San Lucas Tolimán	10	San Lucas Tolimán	9	Septiembre	2023-03-09T00:00:00	2024-11-08T05:00:00	1	Precipitación	0
145312	7	Sololá	713	San Lucas Tolimán	10	San Lucas Tolimán	9	Septiembre	2023-03-09T00:00:00	2024-11-08T05:00:00	8	Radiación solar	0
145313	7	Sololá	713	San Lucas Tolimán	10	San Lucas Tolimán	9	Septiembre	2023-03-09T00:00:00	2024-11-08T06:00:00	2	Temperatura media	19.2
145314	7	Sololá	713	San Lucas Tolimán	10	San Lucas Tolimán	9	Septiembre	2023-03-09T00:00:00	2024-11-08T06:00:00	4	Temperatura máxima	19.7
145315	7	Sololá	713	San Lucas Tolimán	10	San Lucas Tolimán	9	Septiembre	2023-03-09T00:00:00	2024-11-08T06:00:00	3	Temperatura mínima	19.2
145316	7	Sololá	713	San Lucas Tolimán	10	San Lucas Tolimán	9	Septiembre	2023-03-09T00:00:00	2024-11-08T06:00:00	5	Humedad	76
145317	7	Sololá	713	San Lucas Tolimán	10	San Lucas Tolimán	9	Septiembre	2023-03-09T00:00:00	2024-11-08T06:00:00	6	Velocidad del viento	1.6
145318	7	Sololá	713	San Lucas Tolimán	10	San Lucas Tolimán	9	Septiembre	2023-03-09T00:00:00	2024-11-08T06:00:00	7	Dirección del viento	1.61
145319	7	Sololá	713	San Lucas Tolimán	10	San Lucas Tolimán	9	Septiembre	2023-03-09T00:00:00	2024-11-08T06:00:00	1	Precipitación	0
145320	7	Sololá	713	San Lucas Tolimán	10	San Lucas Tolimán	9	Septiembre	2023-03-09T00:00:00	2024-11-08T06:00:00	8	Radiación solar	0
145321	7	Sololá	713	San Lucas Tolimán	10	San Lucas Tolimán	9	Septiembre	2023-03-09T00:00:00	2024-11-08T07:00:00	2	Temperatura media	19.4
145322	7	Sololá	713	San Lucas Tolimán	10	San Lucas Tolimán	9	Septiembre	2023-03-09T00:00:00	2024-11-08T07:00:00	4	Temperatura máxima	19.5
145323	7	Sololá	713	San Lucas Tolimán	10	San Lucas Tolimán	9	Septiembre	2023-03-09T00:00:00	2024-11-08T07:00:00	3	Temperatura mínima	18.3
145324	7	Sololá	713	San Lucas Tolimán	10	San Lucas Tolimán	9	Septiembre	2023-03-09T00:00:00	2024-11-08T07:00:00	5	Humedad	75
145325	7	Sololá	713	San Lucas Tolimán	10	San Lucas Tolimán	9	Septiembre	2023-03-09T00:00:00	2024-11-08T07:00:00	6	Velocidad del viento	1.6
145326	7	Sololá	713	San Lucas Tolimán	10	San Lucas Tolimán	9	Septiembre	2023-03-09T00:00:00	2024-11-08T07:00:00	7	Dirección del viento	1.61
145327	7	Sololá	713	San Lucas Tolimán	10	San Lucas Tolimán	9	Septiembre	2023-03-09T00:00:00	2024-11-08T07:00:00	1	Precipitación	0
145328	7	Sololá	713	San Lucas Tolimán	10	San Lucas Tolimán	9	Septiembre	2023-03-09T00:00:00	2024-11-08T07:00:00	8	Radiación solar	45
145329	7	Sololá	713	San Lucas Tolimán	10	San Lucas Tolimán	9	Septiembre	2023-03-09T00:00:00	2024-11-08T08:00:00	2	Temperatura media	21.6
145330	7	Sololá	713	San Lucas Tolimán	10	San Lucas Tolimán	9	Septiembre	2023-03-09T00:00:00	2024-11-08T08:00:00	4	Temperatura máxima	21.7
145331	7	Sololá	713	San Lucas Tolimán	10	San Lucas Tolimán	9	Septiembre	2023-03-09T00:00:00	2024-11-08T08:00:00	3	Temperatura mínima	19.4
145332	7	Sololá	713	San Lucas Tolimán	10	San Lucas Tolimán	9	Septiembre	2023-03-09T00:00:00	2024-11-08T08:00:00	5	Humedad	72
145333	7	Sololá	713	San Lucas Tolimán	10	San Lucas Tolimán	9	Septiembre	2023-03-09T00:00:00	2024-11-08T08:00:00	6	Velocidad del viento	1.6
145334	7	Sololá	713	San Lucas Tolimán	10	San Lucas Tolimán	9	Septiembre	2023-03-09T00:00:00	2024-11-08T08:00:00	7	Dirección del viento	1.61
145335	7	Sololá	713	San Lucas Tolimán	10	San Lucas Tolimán	9	Septiembre	2023-03-09T00:00:00	2024-11-08T08:00:00	1	Precipitación	0
145336	7	Sololá	713	San Lucas Tolimán	10	San Lucas Tolimán	9	Septiembre	2023-03-09T00:00:00	2024-11-08T08:00:00	8	Radiación solar	151
145337	7	Sololá	713	San Lucas Tolimán	10	San Lucas Tolimán	9	Septiembre	2023-03-09T00:00:00	2024-11-08T09:00:00	2	Temperatura media	24.7
145338	7	Sololá	713	San Lucas Tolimán	10	San Lucas Tolimán	9	Septiembre	2023-03-09T00:00:00	2024-11-08T09:00:00	4	Temperatura máxima	24.8
145339	7	Sololá	713	San Lucas Tolimán	10	San Lucas Tolimán	9	Septiembre	2023-03-09T00:00:00	2024-11-08T09:00:00	3	Temperatura mínima	21.6
145340	7	Sololá	713	San Lucas Tolimán	10	San Lucas Tolimán	9	Septiembre	2023-03-09T00:00:00	2024-11-08T09:00:00	5	Humedad	61
145341	7	Sololá	713	San Lucas Tolimán	10	San Lucas Tolimán	9	Septiembre	2023-03-09T00:00:00	2024-11-08T09:00:00	6	Velocidad del viento	1.6
145342	7	Sololá	713	San Lucas Tolimán	10	San Lucas Tolimán	9	Septiembre	2023-03-09T00:00:00	2024-11-08T09:00:00	7	Dirección del viento	1.61
145343	7	Sololá	713	San Lucas Tolimán	10	San Lucas Tolimán	9	Septiembre	2023-03-09T00:00:00	2024-11-08T09:00:00	1	Precipitación	0
145344	7	Sololá	713	San Lucas Tolimán	10	San Lucas Tolimán	9	Septiembre	2023-03-09T00:00:00	2024-11-08T09:00:00	8	Radiación solar	220
145345	7	Sololá	713	San Lucas Tolimán	10	San Lucas Tolimán	9	Septiembre	2023-03-09T00:00:00	2024-11-08T10:00:00	2	Temperatura media	25.8
145346	7	Sololá	713	San Lucas Tolimán	10	San Lucas Tolimán	9	Septiembre	2023-03-09T00:00:00	2024-11-08T10:00:00	4	Temperatura máxima	26.4
145347	7	Sololá	713	San Lucas Tolimán	10	San Lucas Tolimán	9	Septiembre	2023-03-09T00:00:00	2024-11-08T10:00:00	3	Temperatura mínima	24.8
145348	7	Sololá	713	San Lucas Tolimán	10	San Lucas Tolimán	9	Septiembre	2023-03-09T00:00:00	2024-11-08T10:00:00	5	Humedad	68
145349	7	Sololá	713	San Lucas Tolimán	10	San Lucas Tolimán	9	Septiembre	2023-03-09T00:00:00	2024-11-08T10:00:00	6	Velocidad del viento	3.2
145350	7	Sololá	713	San Lucas Tolimán	10	San Lucas Tolimán	9	Septiembre	2023-03-09T00:00:00	2024-11-08T10:00:00	7	Dirección del viento	3.22
145351	7	Sololá	713	San Lucas Tolimán	10	San Lucas Tolimán	9	Septiembre	2023-03-09T00:00:00	2024-11-08T10:00:00	1	Precipitación	0
145352	7	Sololá	713	San Lucas Tolimán	10	San Lucas Tolimán	9	Septiembre	2023-03-09T00:00:00	2024-11-08T10:00:00	8	Radiación solar	267
145353	7	Sololá	713	San Lucas Tolimán	10	San Lucas Tolimán	9	Septiembre	2023-03-09T00:00:00	2024-11-08T11:00:00	2	Temperatura media	24.9
145354	7	Sololá	713	San Lucas Tolimán	10	San Lucas Tolimán	9	Septiembre	2023-03-09T00:00:00	2024-11-08T11:00:00	4	Temperatura máxima	25.9
145355	7	Sololá	713	San Lucas Tolimán	10	San Lucas Tolimán	9	Septiembre	2023-03-09T00:00:00	2024-11-08T11:00:00	3	Temperatura mínima	24.2
145356	7	Sololá	713	San Lucas Tolimán	10	San Lucas Tolimán	9	Septiembre	2023-03-09T00:00:00	2024-11-08T11:00:00	5	Humedad	74
145357	7	Sololá	713	San Lucas Tolimán	10	San Lucas Tolimán	9	Septiembre	2023-03-09T00:00:00	2024-11-08T11:00:00	6	Velocidad del viento	9.7
145358	7	Sololá	713	San Lucas Tolimán	10	San Lucas Tolimán	9	Septiembre	2023-03-09T00:00:00	2024-11-08T11:00:00	7	Dirección del viento	9.66
145359	7	Sololá	713	San Lucas Tolimán	10	San Lucas Tolimán	9	Septiembre	2023-03-09T00:00:00	2024-11-08T11:00:00	1	Precipitación	0
145360	7	Sololá	713	San Lucas Tolimán	10	San Lucas Tolimán	9	Septiembre	2023-03-09T00:00:00	2024-11-08T11:00:00	8	Radiación solar	390
145361	7	Sololá	713	San Lucas Tolimán	10	San Lucas Tolimán	9	Septiembre	2023-03-09T00:00:00	2024-11-08T12:00:00	2	Temperatura media	22.9
145362	7	Sololá	713	San Lucas Tolimán	10	San Lucas Tolimán	9	Septiembre	2023-03-09T00:00:00	2024-11-08T12:00:00	4	Temperatura máxima	25.3
145363	7	Sololá	713	San Lucas Tolimán	10	San Lucas Tolimán	9	Septiembre	2023-03-09T00:00:00	2024-11-08T12:00:00	3	Temperatura mínima	22.9
145364	7	Sololá	713	San Lucas Tolimán	10	San Lucas Tolimán	9	Septiembre	2023-03-09T00:00:00	2024-11-08T12:00:00	5	Humedad	83
145365	7	Sololá	713	San Lucas Tolimán	10	San Lucas Tolimán	9	Septiembre	2023-03-09T00:00:00	2024-11-08T12:00:00	6	Velocidad del viento	11.3
145366	7	Sololá	713	San Lucas Tolimán	10	San Lucas Tolimán	9	Septiembre	2023-03-09T00:00:00	2024-11-08T12:00:00	7	Dirección del viento	11.27
145367	7	Sololá	713	San Lucas Tolimán	10	San Lucas Tolimán	9	Septiembre	2023-03-09T00:00:00	2024-11-08T12:00:00	1	Precipitación	0
145368	7	Sololá	713	San Lucas Tolimán	10	San Lucas Tolimán	9	Septiembre	2023-03-09T00:00:00	2024-11-08T12:00:00	8	Radiación solar	314
145369	7	Sololá	713	San Lucas Tolimán	10	San Lucas Tolimán	9	Septiembre	2023-03-09T00:00:00	2024-11-08T13:00:00	2	Temperatura media	23.3
145370	7	Sololá	713	San Lucas Tolimán	10	San Lucas Tolimán	9	Septiembre	2023-03-09T00:00:00	2024-11-08T13:00:00	4	Temperatura máxima	23.3
145371	7	Sololá	713	San Lucas Tolimán	10	San Lucas Tolimán	9	Septiembre	2023-03-09T00:00:00	2024-11-08T13:00:00	3	Temperatura mínima	22.4
145372	7	Sololá	713	San Lucas Tolimán	10	San Lucas Tolimán	9	Septiembre	2023-03-09T00:00:00	2024-11-08T13:00:00	5	Humedad	81
145373	7	Sololá	713	San Lucas Tolimán	10	San Lucas Tolimán	9	Septiembre	2023-03-09T00:00:00	2024-11-08T13:00:00	6	Velocidad del viento	11.3
145374	7	Sololá	713	San Lucas Tolimán	10	San Lucas Tolimán	9	Septiembre	2023-03-09T00:00:00	2024-11-08T13:00:00	7	Dirección del viento	11.27
145375	7	Sololá	713	San Lucas Tolimán	10	San Lucas Tolimán	9	Septiembre	2023-03-09T00:00:00	2024-11-08T13:00:00	1	Precipitación	0
145376	7	Sololá	713	San Lucas Tolimán	10	San Lucas Tolimán	9	Septiembre	2023-03-09T00:00:00	2024-11-08T13:00:00	8	Radiación solar	203
145377	7	Sololá	713	San Lucas Tolimán	10	San Lucas Tolimán	9	Septiembre	2023-03-09T00:00:00	2024-11-08T14:00:00	2	Temperatura media	23.3
145378	7	Sololá	713	San Lucas Tolimán	10	San Lucas Tolimán	9	Septiembre	2023-03-09T00:00:00	2024-11-08T14:00:00	4	Temperatura máxima	24
145379	7	Sololá	713	San Lucas Tolimán	10	San Lucas Tolimán	9	Septiembre	2023-03-09T00:00:00	2024-11-08T14:00:00	3	Temperatura mínima	22.8
145380	7	Sololá	713	San Lucas Tolimán	10	San Lucas Tolimán	9	Septiembre	2023-03-09T00:00:00	2024-11-08T14:00:00	5	Humedad	81
145381	7	Sololá	713	San Lucas Tolimán	10	San Lucas Tolimán	9	Septiembre	2023-03-09T00:00:00	2024-11-08T14:00:00	6	Velocidad del viento	12.9
145382	7	Sololá	713	San Lucas Tolimán	10	San Lucas Tolimán	9	Septiembre	2023-03-09T00:00:00	2024-11-08T14:00:00	7	Dirección del viento	12.87
145383	7	Sololá	713	San Lucas Tolimán	10	San Lucas Tolimán	9	Septiembre	2023-03-09T00:00:00	2024-11-08T14:00:00	1	Precipitación	0
145384	7	Sololá	713	San Lucas Tolimán	10	San Lucas Tolimán	9	Septiembre	2023-03-09T00:00:00	2024-11-08T14:00:00	8	Radiación solar	37
145385	7	Sololá	713	San Lucas Tolimán	10	San Lucas Tolimán	9	Septiembre	2023-03-09T00:00:00	2024-11-08T15:00:00	2	Temperatura media	23.8
145386	7	Sololá	713	San Lucas Tolimán	10	San Lucas Tolimán	9	Septiembre	2023-03-09T00:00:00	2024-11-08T15:00:00	4	Temperatura máxima	24.2
145387	7	Sololá	713	San Lucas Tolimán	10	San Lucas Tolimán	9	Septiembre	2023-03-09T00:00:00	2024-11-08T15:00:00	3	Temperatura mínima	23.3
145388	7	Sololá	713	San Lucas Tolimán	10	San Lucas Tolimán	9	Septiembre	2023-03-09T00:00:00	2024-11-08T15:00:00	5	Humedad	79
145389	7	Sololá	713	San Lucas Tolimán	10	San Lucas Tolimán	9	Septiembre	2023-03-09T00:00:00	2024-11-08T15:00:00	6	Velocidad del viento	12.9
145390	7	Sololá	713	San Lucas Tolimán	10	San Lucas Tolimán	9	Septiembre	2023-03-09T00:00:00	2024-11-08T15:00:00	7	Dirección del viento	12.87
145391	7	Sololá	713	San Lucas Tolimán	10	San Lucas Tolimán	9	Septiembre	2023-03-09T00:00:00	2024-11-08T15:00:00	1	Precipitación	0
145392	7	Sololá	713	San Lucas Tolimán	10	San Lucas Tolimán	9	Septiembre	2023-03-09T00:00:00	2024-11-08T15:00:00	8	Radiación solar	116
145393	7	Sololá	713	San Lucas Tolimán	10	San Lucas Tolimán	9	Septiembre	2023-03-09T00:00:00	2024-11-08T16:00:00	2	Temperatura media	21.9
145394	7	Sololá	713	San Lucas Tolimán	10	San Lucas Tolimán	9	Septiembre	2023-03-09T00:00:00	2024-11-08T16:00:00	4	Temperatura máxima	23.8
145395	7	Sololá	713	San Lucas Tolimán	10	San Lucas Tolimán	9	Septiembre	2023-03-09T00:00:00	2024-11-08T16:00:00	3	Temperatura mínima	21.9
145396	7	Sololá	713	San Lucas Tolimán	10	San Lucas Tolimán	9	Septiembre	2023-03-09T00:00:00	2024-11-08T16:00:00	5	Humedad	85
145397	7	Sololá	713	San Lucas Tolimán	10	San Lucas Tolimán	9	Septiembre	2023-03-09T00:00:00	2024-11-08T16:00:00	6	Velocidad del viento	9.7
145398	7	Sololá	713	San Lucas Tolimán	10	San Lucas Tolimán	9	Septiembre	2023-03-09T00:00:00	2024-11-08T16:00:00	7	Dirección del viento	9.66
145399	7	Sololá	713	San Lucas Tolimán	10	San Lucas Tolimán	9	Septiembre	2023-03-09T00:00:00	2024-11-08T16:00:00	1	Precipitación	0
145400	7	Sololá	713	San Lucas Tolimán	10	San Lucas Tolimán	9	Septiembre	2023-03-09T00:00:00	2024-11-08T16:00:00	8	Radiación solar	75
145401	7	Sololá	713	San Lucas Tolimán	10	San Lucas Tolimán	9	Septiembre	2023-03-09T00:00:00	2024-11-08T17:00:00	2	Temperatura media	20.1
145402	7	Sololá	713	San Lucas Tolimán	10	San Lucas Tolimán	9	Septiembre	2023-03-09T00:00:00	2024-11-08T17:00:00	4	Temperatura máxima	21.9
145403	7	Sololá	713	San Lucas Tolimán	10	San Lucas Tolimán	9	Septiembre	2023-03-09T00:00:00	2024-11-08T17:00:00	3	Temperatura mínima	20.1
145404	7	Sololá	713	San Lucas Tolimán	10	San Lucas Tolimán	9	Septiembre	2023-03-09T00:00:00	2024-11-08T17:00:00	5	Humedad	88
145405	7	Sololá	713	San Lucas Tolimán	10	San Lucas Tolimán	9	Septiembre	2023-03-09T00:00:00	2024-11-08T17:00:00	6	Velocidad del viento	9.7
145406	7	Sololá	713	San Lucas Tolimán	10	San Lucas Tolimán	9	Septiembre	2023-03-09T00:00:00	2024-11-08T17:00:00	7	Dirección del viento	9.66
145407	7	Sololá	713	San Lucas Tolimán	10	San Lucas Tolimán	9	Septiembre	2023-03-09T00:00:00	2024-11-08T17:00:00	1	Precipitación	0
145408	7	Sololá	713	San Lucas Tolimán	10	San Lucas Tolimán	9	Septiembre	2023-03-09T00:00:00	2024-11-08T17:00:00	8	Radiación solar	46
145409	7	Sololá	713	San Lucas Tolimán	10	San Lucas Tolimán	9	Septiembre	2023-03-09T00:00:00	2024-11-08T18:00:00	2	Temperatura media	19.4
145410	7	Sololá	713	San Lucas Tolimán	10	San Lucas Tolimán	9	Septiembre	2023-03-09T00:00:00	2024-11-08T18:00:00	4	Temperatura máxima	20.2
145411	7	Sololá	713	San Lucas Tolimán	10	San Lucas Tolimán	9	Septiembre	2023-03-09T00:00:00	2024-11-08T18:00:00	3	Temperatura mínima	19.2
145412	7	Sololá	713	San Lucas Tolimán	10	San Lucas Tolimán	9	Septiembre	2023-03-09T00:00:00	2024-11-08T18:00:00	5	Humedad	91
145413	7	Sololá	713	San Lucas Tolimán	10	San Lucas Tolimán	9	Septiembre	2023-03-09T00:00:00	2024-11-08T18:00:00	6	Velocidad del viento	6.4
145414	7	Sololá	713	San Lucas Tolimán	10	San Lucas Tolimán	9	Septiembre	2023-03-09T00:00:00	2024-11-08T18:00:00	7	Dirección del viento	6.44
145415	7	Sololá	713	San Lucas Tolimán	10	San Lucas Tolimán	9	Septiembre	2023-03-09T00:00:00	2024-11-08T18:00:00	1	Precipitación	0
145416	7	Sololá	713	San Lucas Tolimán	10	San Lucas Tolimán	9	Septiembre	2023-03-09T00:00:00	2024-11-08T18:00:00	8	Radiación solar	25
145417	7	Sololá	713	San Lucas Tolimán	10	San Lucas Tolimán	9	Septiembre	2023-03-09T00:00:00	2024-11-08T19:00:00	2	Temperatura media	17.9
145418	7	Sololá	713	San Lucas Tolimán	10	San Lucas Tolimán	9	Septiembre	2023-03-09T00:00:00	2024-11-08T19:00:00	4	Temperatura máxima	19.4
145419	7	Sololá	713	San Lucas Tolimán	10	San Lucas Tolimán	9	Septiembre	2023-03-09T00:00:00	2024-11-08T19:00:00	3	Temperatura mínima	17.8
145420	7	Sololá	713	San Lucas Tolimán	10	San Lucas Tolimán	9	Septiembre	2023-03-09T00:00:00	2024-11-08T19:00:00	5	Humedad	92
145421	7	Sololá	713	San Lucas Tolimán	10	San Lucas Tolimán	9	Septiembre	2023-03-09T00:00:00	2024-11-08T19:00:00	6	Velocidad del viento	4.8
145422	7	Sololá	713	San Lucas Tolimán	10	San Lucas Tolimán	9	Septiembre	2023-03-09T00:00:00	2024-11-08T19:00:00	7	Dirección del viento	4.83
145423	7	Sololá	713	San Lucas Tolimán	10	San Lucas Tolimán	9	Septiembre	2023-03-09T00:00:00	2024-11-08T19:00:00	1	Precipitación	7
145424	7	Sololá	713	San Lucas Tolimán	10	San Lucas Tolimán	9	Septiembre	2023-03-09T00:00:00	2024-11-08T19:00:00	8	Radiación solar	0
145425	7	Sololá	713	San Lucas Tolimán	10	San Lucas Tolimán	9	Septiembre	2023-03-09T00:00:00	2024-11-08T20:00:00	2	Temperatura media	17.8
145426	7	Sololá	713	San Lucas Tolimán	10	San Lucas Tolimán	9	Septiembre	2023-03-09T00:00:00	2024-11-08T20:00:00	4	Temperatura máxima	17.9
145427	7	Sololá	713	San Lucas Tolimán	10	San Lucas Tolimán	9	Septiembre	2023-03-09T00:00:00	2024-11-08T20:00:00	3	Temperatura mínima	17.7
145428	7	Sololá	713	San Lucas Tolimán	10	San Lucas Tolimán	9	Septiembre	2023-03-09T00:00:00	2024-11-08T20:00:00	5	Humedad	92
145429	7	Sololá	713	San Lucas Tolimán	10	San Lucas Tolimán	9	Septiembre	2023-03-09T00:00:00	2024-11-08T20:00:00	6	Velocidad del viento	1.6
145430	7	Sololá	713	San Lucas Tolimán	10	San Lucas Tolimán	9	Septiembre	2023-03-09T00:00:00	2024-11-08T20:00:00	7	Dirección del viento	1.61
145431	7	Sololá	713	San Lucas Tolimán	10	San Lucas Tolimán	9	Septiembre	2023-03-09T00:00:00	2024-11-08T20:00:00	1	Precipitación	0
145432	7	Sololá	713	San Lucas Tolimán	10	San Lucas Tolimán	9	Septiembre	2023-03-09T00:00:00	2024-11-08T20:00:00	8	Radiación solar	0
145433	7	Sololá	713	San Lucas Tolimán	10	San Lucas Tolimán	9	Septiembre	2023-03-09T00:00:00	2024-11-08T21:00:00	2	Temperatura media	17.8
145434	7	Sololá	713	San Lucas Tolimán	10	San Lucas Tolimán	9	Septiembre	2023-03-09T00:00:00	2024-11-08T21:00:00	4	Temperatura máxima	17.8
145435	7	Sololá	713	San Lucas Tolimán	10	San Lucas Tolimán	9	Septiembre	2023-03-09T00:00:00	2024-11-08T21:00:00	3	Temperatura mínima	17.7
145436	7	Sololá	713	San Lucas Tolimán	10	San Lucas Tolimán	9	Septiembre	2023-03-09T00:00:00	2024-11-08T21:00:00	5	Humedad	94
145437	7	Sololá	713	San Lucas Tolimán	10	San Lucas Tolimán	9	Septiembre	2023-03-09T00:00:00	2024-11-08T21:00:00	6	Velocidad del viento	0
145438	7	Sololá	713	San Lucas Tolimán	10	San Lucas Tolimán	9	Septiembre	2023-03-09T00:00:00	2024-11-08T21:00:00	7	Dirección del viento	0
145439	7	Sololá	713	San Lucas Tolimán	10	San Lucas Tolimán	9	Septiembre	2023-03-09T00:00:00	2024-11-08T21:00:00	1	Precipitación	0
145440	7	Sololá	713	San Lucas Tolimán	10	San Lucas Tolimán	9	Septiembre	2023-03-09T00:00:00	2024-11-08T21:00:00	8	Radiación solar	0
145441	7	Sololá	713	San Lucas Tolimán	10	San Lucas Tolimán	9	Septiembre	2023-03-09T00:00:00	2024-11-08T22:00:00	2	Temperatura media	17.6
145442	7	Sololá	713	San Lucas Tolimán	10	San Lucas Tolimán	9	Septiembre	2023-03-09T00:00:00	2024-11-08T22:00:00	4	Temperatura máxima	17.8
145443	7	Sololá	713	San Lucas Tolimán	10	San Lucas Tolimán	9	Septiembre	2023-03-09T00:00:00	2024-11-08T22:00:00	3	Temperatura mínima	17.6
145444	7	Sololá	713	San Lucas Tolimán	10	San Lucas Tolimán	9	Septiembre	2023-03-09T00:00:00	2024-11-08T22:00:00	5	Humedad	94
145445	7	Sololá	713	San Lucas Tolimán	10	San Lucas Tolimán	9	Septiembre	2023-03-09T00:00:00	2024-11-08T22:00:00	6	Velocidad del viento	0
145446	7	Sololá	713	San Lucas Tolimán	10	San Lucas Tolimán	9	Septiembre	2023-03-09T00:00:00	2024-11-08T22:00:00	7	Dirección del viento	0
145447	7	Sololá	713	San Lucas Tolimán	10	San Lucas Tolimán	9	Septiembre	2023-03-09T00:00:00	2024-11-08T22:00:00	1	Precipitación	3.6
145448	7	Sololá	713	San Lucas Tolimán	10	San Lucas Tolimán	9	Septiembre	2023-03-09T00:00:00	2024-11-08T22:00:00	8	Radiación solar	0
145449	7	Sololá	713	San Lucas Tolimán	10	San Lucas Tolimán	9	Septiembre	2023-03-09T00:00:00	2024-11-08T23:00:00	2	Temperatura media	17.3
145450	7	Sololá	713	San Lucas Tolimán	10	San Lucas Tolimán	9	Septiembre	2023-03-09T00:00:00	2024-11-08T23:00:00	4	Temperatura máxima	17.6
145451	7	Sololá	713	San Lucas Tolimán	10	San Lucas Tolimán	9	Septiembre	2023-03-09T00:00:00	2024-11-08T23:00:00	3	Temperatura mínima	17.2
145452	7	Sololá	713	San Lucas Tolimán	10	San Lucas Tolimán	9	Septiembre	2023-03-09T00:00:00	2024-11-08T23:00:00	5	Humedad	94
145453	7	Sololá	713	San Lucas Tolimán	10	San Lucas Tolimán	9	Septiembre	2023-03-09T00:00:00	2024-11-08T23:00:00	6	Velocidad del viento	0
145454	7	Sololá	713	San Lucas Tolimán	10	San Lucas Tolimán	9	Septiembre	2023-03-09T00:00:00	2024-11-08T23:00:00	7	Dirección del viento	0
145455	7	Sololá	713	San Lucas Tolimán	10	San Lucas Tolimán	9	Septiembre	2023-03-09T00:00:00	2024-11-08T23:00:00	1	Precipitación	0.4
145456	7	Sololá	713	San Lucas Tolimán	10	San Lucas Tolimán	9	Septiembre	2023-03-09T00:00:00	2024-11-08T23:00:00	8	Radiación solar	0
145457	7	Sololá	713	San Lucas Tolimán	10	San Lucas Tolimán	9	Septiembre	2023-04-09T00:00:00	2024-11-08T00:00:00	2	Temperatura media	17.1
145458	7	Sololá	713	San Lucas Tolimán	10	San Lucas Tolimán	9	Septiembre	2023-04-09T00:00:00	2024-11-08T00:00:00	4	Temperatura máxima	17.3
145459	7	Sololá	713	San Lucas Tolimán	10	San Lucas Tolimán	9	Septiembre	2023-04-09T00:00:00	2024-11-08T00:00:00	3	Temperatura mínima	17.1
145460	7	Sololá	713	San Lucas Tolimán	10	San Lucas Tolimán	9	Septiembre	2023-04-09T00:00:00	2024-11-08T00:00:00	5	Humedad	94
145461	7	Sololá	713	San Lucas Tolimán	10	San Lucas Tolimán	9	Septiembre	2023-04-09T00:00:00	2024-11-08T00:00:00	6	Velocidad del viento	0
145462	7	Sololá	713	San Lucas Tolimán	10	San Lucas Tolimán	9	Septiembre	2023-04-09T00:00:00	2024-11-08T00:00:00	7	Dirección del viento	0
145463	7	Sololá	713	San Lucas Tolimán	10	San Lucas Tolimán	9	Septiembre	2023-04-09T00:00:00	2024-11-08T00:00:00	1	Precipitación	0
145464	7	Sololá	713	San Lucas Tolimán	10	San Lucas Tolimán	9	Septiembre	2023-04-09T00:00:00	2024-11-08T00:00:00	8	Radiación solar	0
145465	7	Sololá	713	San Lucas Tolimán	10	San Lucas Tolimán	9	Septiembre	2023-04-09T00:00:00	2024-11-08T01:00:00	2	Temperatura media	16.8
145466	7	Sololá	713	San Lucas Tolimán	10	San Lucas Tolimán	9	Septiembre	2023-04-09T00:00:00	2024-11-08T01:00:00	4	Temperatura máxima	17.1
145467	7	Sololá	713	San Lucas Tolimán	10	San Lucas Tolimán	9	Septiembre	2023-04-09T00:00:00	2024-11-08T01:00:00	3	Temperatura mínima	16.8
145468	7	Sololá	713	San Lucas Tolimán	10	San Lucas Tolimán	9	Septiembre	2023-04-09T00:00:00	2024-11-08T01:00:00	5	Humedad	95
145469	7	Sololá	713	San Lucas Tolimán	10	San Lucas Tolimán	9	Septiembre	2023-04-09T00:00:00	2024-11-08T01:00:00	6	Velocidad del viento	0
145470	7	Sololá	713	San Lucas Tolimán	10	San Lucas Tolimán	9	Septiembre	2023-04-09T00:00:00	2024-11-08T01:00:00	7	Dirección del viento	0
145471	7	Sololá	713	San Lucas Tolimán	10	San Lucas Tolimán	9	Septiembre	2023-04-09T00:00:00	2024-11-08T01:00:00	1	Precipitación	0
145472	7	Sololá	713	San Lucas Tolimán	10	San Lucas Tolimán	9	Septiembre	2023-04-09T00:00:00	2024-11-08T01:00:00	8	Radiación solar	0
145473	7	Sololá	713	San Lucas Tolimán	10	San Lucas Tolimán	9	Septiembre	2023-04-09T00:00:00	2024-11-08T02:00:00	2	Temperatura media	16.8
145474	7	Sololá	713	San Lucas Tolimán	10	San Lucas Tolimán	9	Septiembre	2023-04-09T00:00:00	2024-11-08T02:00:00	4	Temperatura máxima	16.9
145475	7	Sololá	713	San Lucas Tolimán	10	San Lucas Tolimán	9	Septiembre	2023-04-09T00:00:00	2024-11-08T02:00:00	3	Temperatura mínima	16.8
145476	7	Sololá	713	San Lucas Tolimán	10	San Lucas Tolimán	9	Septiembre	2023-04-09T00:00:00	2024-11-08T02:00:00	5	Humedad	94
145477	7	Sololá	713	San Lucas Tolimán	10	San Lucas Tolimán	9	Septiembre	2023-04-09T00:00:00	2024-11-08T02:00:00	6	Velocidad del viento	1.6
145478	7	Sololá	713	San Lucas Tolimán	10	San Lucas Tolimán	9	Septiembre	2023-04-09T00:00:00	2024-11-08T02:00:00	7	Dirección del viento	1.61
145479	7	Sololá	713	San Lucas Tolimán	10	San Lucas Tolimán	9	Septiembre	2023-04-09T00:00:00	2024-11-08T02:00:00	1	Precipitación	0
145480	7	Sololá	713	San Lucas Tolimán	10	San Lucas Tolimán	9	Septiembre	2023-04-09T00:00:00	2024-11-08T02:00:00	8	Radiación solar	0
145481	7	Sololá	713	San Lucas Tolimán	10	San Lucas Tolimán	9	Septiembre	2023-04-09T00:00:00	2024-11-08T03:00:00	2	Temperatura media	16.3
145482	7	Sololá	713	San Lucas Tolimán	10	San Lucas Tolimán	9	Septiembre	2023-04-09T00:00:00	2024-11-08T03:00:00	4	Temperatura máxima	16.8
145483	7	Sololá	713	San Lucas Tolimán	10	San Lucas Tolimán	9	Septiembre	2023-04-09T00:00:00	2024-11-08T03:00:00	3	Temperatura mínima	16.2
145484	7	Sololá	713	San Lucas Tolimán	10	San Lucas Tolimán	9	Septiembre	2023-04-09T00:00:00	2024-11-08T03:00:00	5	Humedad	94
145485	7	Sololá	713	San Lucas Tolimán	10	San Lucas Tolimán	9	Septiembre	2023-04-09T00:00:00	2024-11-08T03:00:00	6	Velocidad del viento	0
145486	7	Sololá	713	San Lucas Tolimán	10	San Lucas Tolimán	9	Septiembre	2023-04-09T00:00:00	2024-11-08T03:00:00	7	Dirección del viento	0
145487	7	Sololá	713	San Lucas Tolimán	10	San Lucas Tolimán	9	Septiembre	2023-04-09T00:00:00	2024-11-08T03:00:00	1	Precipitación	0
145488	7	Sololá	713	San Lucas Tolimán	10	San Lucas Tolimán	9	Septiembre	2023-04-09T00:00:00	2024-11-08T03:00:00	8	Radiación solar	0
145489	7	Sololá	713	San Lucas Tolimán	10	San Lucas Tolimán	9	Septiembre	2023-04-09T00:00:00	2024-11-08T04:00:00	2	Temperatura media	16.3
145490	7	Sololá	713	San Lucas Tolimán	10	San Lucas Tolimán	9	Septiembre	2023-04-09T00:00:00	2024-11-08T04:00:00	4	Temperatura máxima	16.3
145491	7	Sololá	713	San Lucas Tolimán	10	San Lucas Tolimán	9	Septiembre	2023-04-09T00:00:00	2024-11-08T04:00:00	3	Temperatura mínima	15.7
145492	7	Sololá	713	San Lucas Tolimán	10	San Lucas Tolimán	9	Septiembre	2023-04-09T00:00:00	2024-11-08T04:00:00	5	Humedad	93
145493	7	Sololá	713	San Lucas Tolimán	10	San Lucas Tolimán	9	Septiembre	2023-04-09T00:00:00	2024-11-08T04:00:00	6	Velocidad del viento	1.6
145494	7	Sololá	713	San Lucas Tolimán	10	San Lucas Tolimán	9	Septiembre	2023-04-09T00:00:00	2024-11-08T04:00:00	7	Dirección del viento	1.61
145495	7	Sololá	713	San Lucas Tolimán	10	San Lucas Tolimán	9	Septiembre	2023-04-09T00:00:00	2024-11-08T04:00:00	1	Precipitación	0
145496	7	Sololá	713	San Lucas Tolimán	10	San Lucas Tolimán	9	Septiembre	2023-04-09T00:00:00	2024-11-08T04:00:00	8	Radiación solar	0
145497	7	Sololá	713	San Lucas Tolimán	10	San Lucas Tolimán	9	Septiembre	2023-04-09T00:00:00	2024-11-08T05:00:00	2	Temperatura media	16.2
145498	7	Sololá	713	San Lucas Tolimán	10	San Lucas Tolimán	9	Septiembre	2023-04-09T00:00:00	2024-11-08T05:00:00	4	Temperatura máxima	16.4
145499	7	Sololá	713	San Lucas Tolimán	10	San Lucas Tolimán	9	Septiembre	2023-04-09T00:00:00	2024-11-08T05:00:00	3	Temperatura mínima	16.2
145500	7	Sololá	713	San Lucas Tolimán	10	San Lucas Tolimán	9	Septiembre	2023-04-09T00:00:00	2024-11-08T05:00:00	5	Humedad	94
145501	7	Sololá	713	San Lucas Tolimán	10	San Lucas Tolimán	9	Septiembre	2023-04-09T00:00:00	2024-11-08T05:00:00	6	Velocidad del viento	3.2
145502	7	Sololá	713	San Lucas Tolimán	10	San Lucas Tolimán	9	Septiembre	2023-04-09T00:00:00	2024-11-08T05:00:00	7	Dirección del viento	3.22
145503	7	Sololá	713	San Lucas Tolimán	10	San Lucas Tolimán	9	Septiembre	2023-04-09T00:00:00	2024-11-08T05:00:00	1	Precipitación	0
145504	7	Sololá	713	San Lucas Tolimán	10	San Lucas Tolimán	9	Septiembre	2023-04-09T00:00:00	2024-11-08T05:00:00	8	Radiación solar	0
145505	7	Sololá	713	San Lucas Tolimán	10	San Lucas Tolimán	9	Septiembre	2023-04-09T00:00:00	2024-11-08T06:00:00	2	Temperatura media	15.7
145506	7	Sololá	713	San Lucas Tolimán	10	San Lucas Tolimán	9	Septiembre	2023-04-09T00:00:00	2024-11-08T06:00:00	4	Temperatura máxima	16.2
145507	7	Sololá	713	San Lucas Tolimán	10	San Lucas Tolimán	9	Septiembre	2023-04-09T00:00:00	2024-11-08T06:00:00	3	Temperatura mínima	15.6
145508	7	Sololá	713	San Lucas Tolimán	10	San Lucas Tolimán	9	Septiembre	2023-04-09T00:00:00	2024-11-08T06:00:00	5	Humedad	95
145509	7	Sololá	713	San Lucas Tolimán	10	San Lucas Tolimán	9	Septiembre	2023-04-09T00:00:00	2024-11-08T06:00:00	6	Velocidad del viento	0
145510	7	Sololá	713	San Lucas Tolimán	10	San Lucas Tolimán	9	Septiembre	2023-04-09T00:00:00	2024-11-08T06:00:00	7	Dirección del viento	0
145511	7	Sololá	713	San Lucas Tolimán	10	San Lucas Tolimán	9	Septiembre	2023-04-09T00:00:00	2024-11-08T06:00:00	1	Precipitación	0
145512	7	Sololá	713	San Lucas Tolimán	10	San Lucas Tolimán	9	Septiembre	2023-04-09T00:00:00	2024-11-08T06:00:00	8	Radiación solar	0
145513	7	Sololá	713	San Lucas Tolimán	10	San Lucas Tolimán	9	Septiembre	2023-04-09T00:00:00	2024-11-08T07:00:00	2	Temperatura media	16.8
145514	7	Sololá	713	San Lucas Tolimán	10	San Lucas Tolimán	9	Septiembre	2023-04-09T00:00:00	2024-11-08T07:00:00	4	Temperatura máxima	16.8
145515	7	Sololá	713	San Lucas Tolimán	10	San Lucas Tolimán	9	Septiembre	2023-04-09T00:00:00	2024-11-08T07:00:00	3	Temperatura mínima	15.6
145516	7	Sololá	713	San Lucas Tolimán	10	San Lucas Tolimán	9	Septiembre	2023-04-09T00:00:00	2024-11-08T07:00:00	5	Humedad	94
145517	7	Sololá	713	San Lucas Tolimán	10	San Lucas Tolimán	9	Septiembre	2023-04-09T00:00:00	2024-11-08T07:00:00	6	Velocidad del viento	1.6
145518	7	Sololá	713	San Lucas Tolimán	10	San Lucas Tolimán	9	Septiembre	2023-04-09T00:00:00	2024-11-08T07:00:00	7	Dirección del viento	1.61
145519	7	Sololá	713	San Lucas Tolimán	10	San Lucas Tolimán	9	Septiembre	2023-04-09T00:00:00	2024-11-08T07:00:00	1	Precipitación	0
145520	7	Sololá	713	San Lucas Tolimán	10	San Lucas Tolimán	9	Septiembre	2023-04-09T00:00:00	2024-11-08T07:00:00	8	Radiación solar	29
145521	7	Sololá	713	San Lucas Tolimán	10	San Lucas Tolimán	9	Septiembre	2023-04-09T00:00:00	2024-11-08T08:00:00	2	Temperatura media	20
145522	7	Sololá	713	San Lucas Tolimán	10	San Lucas Tolimán	9	Septiembre	2023-04-09T00:00:00	2024-11-08T08:00:00	4	Temperatura máxima	20
145523	7	Sololá	713	San Lucas Tolimán	10	San Lucas Tolimán	9	Septiembre	2023-04-09T00:00:00	2024-11-08T08:00:00	3	Temperatura mínima	16.8
145524	7	Sololá	713	San Lucas Tolimán	10	San Lucas Tolimán	9	Septiembre	2023-04-09T00:00:00	2024-11-08T08:00:00	5	Humedad	82
145525	7	Sololá	713	San Lucas Tolimán	10	San Lucas Tolimán	9	Septiembre	2023-04-09T00:00:00	2024-11-08T08:00:00	6	Velocidad del viento	1.6
145526	7	Sololá	713	San Lucas Tolimán	10	San Lucas Tolimán	9	Septiembre	2023-04-09T00:00:00	2024-11-08T08:00:00	7	Dirección del viento	1.61
145527	7	Sololá	713	San Lucas Tolimán	10	San Lucas Tolimán	9	Septiembre	2023-04-09T00:00:00	2024-11-08T08:00:00	1	Precipitación	0.2
145528	7	Sololá	713	San Lucas Tolimán	10	San Lucas Tolimán	9	Septiembre	2023-04-09T00:00:00	2024-11-08T08:00:00	8	Radiación solar	292
145529	7	Sololá	713	San Lucas Tolimán	10	San Lucas Tolimán	9	Septiembre	2023-04-09T00:00:00	2024-11-08T09:00:00	2	Temperatura media	22.6
145530	7	Sololá	713	San Lucas Tolimán	10	San Lucas Tolimán	9	Septiembre	2023-04-09T00:00:00	2024-11-08T09:00:00	4	Temperatura máxima	22.6
145531	7	Sololá	713	San Lucas Tolimán	10	San Lucas Tolimán	9	Septiembre	2023-04-09T00:00:00	2024-11-08T09:00:00	3	Temperatura mínima	20
145532	7	Sololá	713	San Lucas Tolimán	10	San Lucas Tolimán	9	Septiembre	2023-04-09T00:00:00	2024-11-08T09:00:00	5	Humedad	73
145533	7	Sololá	713	San Lucas Tolimán	10	San Lucas Tolimán	9	Septiembre	2023-04-09T00:00:00	2024-11-08T09:00:00	6	Velocidad del viento	4.8
145534	7	Sololá	713	San Lucas Tolimán	10	San Lucas Tolimán	9	Septiembre	2023-04-09T00:00:00	2024-11-08T09:00:00	7	Dirección del viento	4.83
145535	7	Sololá	713	San Lucas Tolimán	10	San Lucas Tolimán	9	Septiembre	2023-04-09T00:00:00	2024-11-08T09:00:00	1	Precipitación	0
145536	7	Sololá	713	San Lucas Tolimán	10	San Lucas Tolimán	9	Septiembre	2023-04-09T00:00:00	2024-11-08T09:00:00	8	Radiación solar	536
145537	7	Sololá	713	San Lucas Tolimán	10	San Lucas Tolimán	9	Septiembre	2023-04-09T00:00:00	2024-11-08T10:00:00	2	Temperatura media	23.7
145538	7	Sololá	713	San Lucas Tolimán	10	San Lucas Tolimán	9	Septiembre	2023-04-09T00:00:00	2024-11-08T10:00:00	4	Temperatura máxima	24.1
145539	7	Sololá	713	San Lucas Tolimán	10	San Lucas Tolimán	9	Septiembre	2023-04-09T00:00:00	2024-11-08T10:00:00	3	Temperatura mínima	22.6
145540	7	Sololá	713	San Lucas Tolimán	10	San Lucas Tolimán	9	Septiembre	2023-04-09T00:00:00	2024-11-08T10:00:00	5	Humedad	66
145541	7	Sololá	713	San Lucas Tolimán	10	San Lucas Tolimán	9	Septiembre	2023-04-09T00:00:00	2024-11-08T10:00:00	6	Velocidad del viento	3.2
145542	7	Sololá	713	San Lucas Tolimán	10	San Lucas Tolimán	9	Septiembre	2023-04-09T00:00:00	2024-11-08T10:00:00	7	Dirección del viento	3.22
145543	7	Sololá	713	San Lucas Tolimán	10	San Lucas Tolimán	9	Septiembre	2023-04-09T00:00:00	2024-11-08T10:00:00	1	Precipitación	0
145544	7	Sololá	713	San Lucas Tolimán	10	San Lucas Tolimán	9	Septiembre	2023-04-09T00:00:00	2024-11-08T10:00:00	8	Radiación solar	684
145545	7	Sololá	713	San Lucas Tolimán	10	San Lucas Tolimán	9	Septiembre	2023-04-09T00:00:00	2024-11-08T11:00:00	2	Temperatura media	25.1
145546	7	Sololá	713	San Lucas Tolimán	10	San Lucas Tolimán	9	Septiembre	2023-04-09T00:00:00	2024-11-08T11:00:00	4	Temperatura máxima	25.3
145547	7	Sololá	713	San Lucas Tolimán	10	San Lucas Tolimán	9	Septiembre	2023-04-09T00:00:00	2024-11-08T11:00:00	3	Temperatura mínima	23.7
145548	7	Sololá	713	San Lucas Tolimán	10	San Lucas Tolimán	9	Septiembre	2023-04-09T00:00:00	2024-11-08T11:00:00	5	Humedad	71
145549	7	Sololá	713	San Lucas Tolimán	10	San Lucas Tolimán	9	Septiembre	2023-04-09T00:00:00	2024-11-08T11:00:00	6	Velocidad del viento	3.2
145550	7	Sololá	713	San Lucas Tolimán	10	San Lucas Tolimán	9	Septiembre	2023-04-09T00:00:00	2024-11-08T11:00:00	7	Dirección del viento	3.22
145551	7	Sololá	713	San Lucas Tolimán	10	San Lucas Tolimán	9	Septiembre	2023-04-09T00:00:00	2024-11-08T11:00:00	1	Precipitación	0
145552	7	Sololá	713	San Lucas Tolimán	10	San Lucas Tolimán	9	Septiembre	2023-04-09T00:00:00	2024-11-08T11:00:00	8	Radiación solar	881
145553	7	Sololá	713	San Lucas Tolimán	10	San Lucas Tolimán	9	Septiembre	2023-04-09T00:00:00	2024-11-08T12:00:00	2	Temperatura media	24.6
145554	7	Sololá	713	San Lucas Tolimán	10	San Lucas Tolimán	9	Septiembre	2023-04-09T00:00:00	2024-11-08T12:00:00	4	Temperatura máxima	25.1
145555	7	Sololá	713	San Lucas Tolimán	10	San Lucas Tolimán	9	Septiembre	2023-04-09T00:00:00	2024-11-08T12:00:00	3	Temperatura mínima	24.2
145556	7	Sololá	713	San Lucas Tolimán	10	San Lucas Tolimán	9	Septiembre	2023-04-09T00:00:00	2024-11-08T12:00:00	5	Humedad	74
145557	7	Sololá	713	San Lucas Tolimán	10	San Lucas Tolimán	9	Septiembre	2023-04-09T00:00:00	2024-11-08T12:00:00	6	Velocidad del viento	11.3
145558	7	Sololá	713	San Lucas Tolimán	10	San Lucas Tolimán	9	Septiembre	2023-04-09T00:00:00	2024-11-08T12:00:00	7	Dirección del viento	11.27
145559	7	Sololá	713	San Lucas Tolimán	10	San Lucas Tolimán	9	Septiembre	2023-04-09T00:00:00	2024-11-08T12:00:00	1	Precipitación	0
145560	7	Sololá	713	San Lucas Tolimán	10	San Lucas Tolimán	9	Septiembre	2023-04-09T00:00:00	2024-11-08T12:00:00	8	Radiación solar	948
145561	7	Sololá	713	San Lucas Tolimán	10	San Lucas Tolimán	9	Septiembre	2023-04-09T00:00:00	2024-11-08T13:00:00	2	Temperatura media	22.7
145562	7	Sololá	713	San Lucas Tolimán	10	San Lucas Tolimán	9	Septiembre	2023-04-09T00:00:00	2024-11-08T13:00:00	4	Temperatura máxima	24.5
145563	7	Sololá	713	San Lucas Tolimán	10	San Lucas Tolimán	9	Septiembre	2023-04-09T00:00:00	2024-11-08T13:00:00	3	Temperatura mínima	22.6
145564	7	Sololá	713	San Lucas Tolimán	10	San Lucas Tolimán	9	Septiembre	2023-04-09T00:00:00	2024-11-08T13:00:00	5	Humedad	82
145565	7	Sololá	713	San Lucas Tolimán	10	San Lucas Tolimán	9	Septiembre	2023-04-09T00:00:00	2024-11-08T13:00:00	6	Velocidad del viento	11.3
145566	7	Sololá	713	San Lucas Tolimán	10	San Lucas Tolimán	9	Septiembre	2023-04-09T00:00:00	2024-11-08T13:00:00	7	Dirección del viento	11.27
145567	7	Sololá	713	San Lucas Tolimán	10	San Lucas Tolimán	9	Septiembre	2023-04-09T00:00:00	2024-11-08T13:00:00	1	Precipitación	0
145568	7	Sololá	713	San Lucas Tolimán	10	San Lucas Tolimán	9	Septiembre	2023-04-09T00:00:00	2024-11-08T13:00:00	8	Radiación solar	970
145569	7	Sololá	713	San Lucas Tolimán	10	San Lucas Tolimán	9	Septiembre	2023-04-09T00:00:00	2024-11-08T14:00:00	2	Temperatura media	19.4
145570	7	Sololá	713	San Lucas Tolimán	10	San Lucas Tolimán	9	Septiembre	2023-04-09T00:00:00	2024-11-08T14:00:00	4	Temperatura máxima	22.7
145571	7	Sololá	713	San Lucas Tolimán	10	San Lucas Tolimán	9	Septiembre	2023-04-09T00:00:00	2024-11-08T14:00:00	3	Temperatura mínima	19.4
145572	7	Sololá	713	San Lucas Tolimán	10	San Lucas Tolimán	9	Septiembre	2023-04-09T00:00:00	2024-11-08T14:00:00	5	Humedad	89
145573	7	Sololá	713	San Lucas Tolimán	10	San Lucas Tolimán	9	Septiembre	2023-04-09T00:00:00	2024-11-08T14:00:00	6	Velocidad del viento	11.3
145574	7	Sololá	713	San Lucas Tolimán	10	San Lucas Tolimán	9	Septiembre	2023-04-09T00:00:00	2024-11-08T14:00:00	7	Dirección del viento	11.27
145575	7	Sololá	713	San Lucas Tolimán	10	San Lucas Tolimán	9	Septiembre	2023-04-09T00:00:00	2024-11-08T14:00:00	1	Precipitación	0
145576	7	Sololá	713	San Lucas Tolimán	10	San Lucas Tolimán	9	Septiembre	2023-04-09T00:00:00	2024-11-08T14:00:00	8	Radiación solar	552
145577	7	Sololá	713	San Lucas Tolimán	10	San Lucas Tolimán	9	Septiembre	2023-04-09T00:00:00	2024-11-08T15:00:00	2	Temperatura media	20.2
145578	7	Sololá	713	San Lucas Tolimán	10	San Lucas Tolimán	9	Septiembre	2023-04-09T00:00:00	2024-11-08T15:00:00	4	Temperatura máxima	20.6
145579	7	Sololá	713	San Lucas Tolimán	10	San Lucas Tolimán	9	Septiembre	2023-04-09T00:00:00	2024-11-08T15:00:00	3	Temperatura mínima	18.9
145580	7	Sololá	713	San Lucas Tolimán	10	San Lucas Tolimán	9	Septiembre	2023-04-09T00:00:00	2024-11-08T15:00:00	5	Humedad	87
145581	7	Sololá	713	San Lucas Tolimán	10	San Lucas Tolimán	9	Septiembre	2023-04-09T00:00:00	2024-11-08T15:00:00	6	Velocidad del viento	9.7
145582	7	Sololá	713	San Lucas Tolimán	10	San Lucas Tolimán	9	Septiembre	2023-04-09T00:00:00	2024-11-08T15:00:00	7	Dirección del viento	9.66
145583	7	Sololá	713	San Lucas Tolimán	10	San Lucas Tolimán	9	Septiembre	2023-04-09T00:00:00	2024-11-08T15:00:00	1	Precipitación	0
145584	7	Sololá	713	San Lucas Tolimán	10	San Lucas Tolimán	9	Septiembre	2023-04-09T00:00:00	2024-11-08T15:00:00	8	Radiación solar	355
145585	7	Sololá	713	San Lucas Tolimán	10	San Lucas Tolimán	9	Septiembre	2023-04-09T00:00:00	2024-11-08T16:00:00	2	Temperatura media	18.6
145586	7	Sololá	713	San Lucas Tolimán	10	San Lucas Tolimán	9	Septiembre	2023-04-09T00:00:00	2024-11-08T16:00:00	4	Temperatura máxima	20.2
145587	7	Sololá	713	San Lucas Tolimán	10	San Lucas Tolimán	9	Septiembre	2023-04-09T00:00:00	2024-11-08T16:00:00	3	Temperatura mínima	18.6
145588	7	Sololá	713	San Lucas Tolimán	10	San Lucas Tolimán	9	Septiembre	2023-04-09T00:00:00	2024-11-08T16:00:00	5	Humedad	91
145589	7	Sololá	713	San Lucas Tolimán	10	San Lucas Tolimán	9	Septiembre	2023-04-09T00:00:00	2024-11-08T16:00:00	6	Velocidad del viento	6.4
145590	7	Sololá	713	San Lucas Tolimán	10	San Lucas Tolimán	9	Septiembre	2023-04-09T00:00:00	2024-11-08T16:00:00	7	Dirección del viento	6.44
145591	7	Sololá	713	San Lucas Tolimán	10	San Lucas Tolimán	9	Septiembre	2023-04-09T00:00:00	2024-11-08T16:00:00	1	Precipitación	2.2
145592	7	Sololá	713	San Lucas Tolimán	10	San Lucas Tolimán	9	Septiembre	2023-04-09T00:00:00	2024-11-08T16:00:00	8	Radiación solar	229
145593	7	Sololá	713	San Lucas Tolimán	10	San Lucas Tolimán	9	Septiembre	2023-04-09T00:00:00	2024-11-08T17:00:00	2	Temperatura media	17.7
145594	7	Sololá	713	San Lucas Tolimán	10	San Lucas Tolimán	9	Septiembre	2023-04-09T00:00:00	2024-11-08T17:00:00	4	Temperatura máxima	18.6
145595	7	Sololá	713	San Lucas Tolimán	10	San Lucas Tolimán	9	Septiembre	2023-04-09T00:00:00	2024-11-08T17:00:00	3	Temperatura mínima	17.6
145596	7	Sololá	713	San Lucas Tolimán	10	San Lucas Tolimán	9	Septiembre	2023-04-09T00:00:00	2024-11-08T17:00:00	5	Humedad	95
145597	7	Sololá	713	San Lucas Tolimán	10	San Lucas Tolimán	9	Septiembre	2023-04-09T00:00:00	2024-11-08T17:00:00	6	Velocidad del viento	6.4
145598	7	Sololá	713	San Lucas Tolimán	10	San Lucas Tolimán	9	Septiembre	2023-04-09T00:00:00	2024-11-08T17:00:00	7	Dirección del viento	6.44
145599	7	Sololá	713	San Lucas Tolimán	10	San Lucas Tolimán	9	Septiembre	2023-04-09T00:00:00	2024-11-08T17:00:00	1	Precipitación	9
145600	7	Sololá	713	San Lucas Tolimán	10	San Lucas Tolimán	9	Septiembre	2023-04-09T00:00:00	2024-11-08T17:00:00	8	Radiación solar	161
145601	7	Sololá	713	San Lucas Tolimán	10	San Lucas Tolimán	9	Septiembre	2023-04-09T00:00:00	2024-11-08T18:00:00	2	Temperatura media	17.5
145602	7	Sololá	713	San Lucas Tolimán	10	San Lucas Tolimán	9	Septiembre	2023-04-09T00:00:00	2024-11-08T18:00:00	4	Temperatura máxima	17.8
145603	7	Sololá	713	San Lucas Tolimán	10	San Lucas Tolimán	9	Septiembre	2023-04-09T00:00:00	2024-11-08T18:00:00	3	Temperatura mínima	17.5
145604	7	Sololá	713	San Lucas Tolimán	10	San Lucas Tolimán	9	Septiembre	2023-04-09T00:00:00	2024-11-08T18:00:00	5	Humedad	91
145605	7	Sololá	713	San Lucas Tolimán	10	San Lucas Tolimán	9	Septiembre	2023-04-09T00:00:00	2024-11-08T18:00:00	6	Velocidad del viento	4.8
145606	7	Sololá	713	San Lucas Tolimán	10	San Lucas Tolimán	9	Septiembre	2023-04-09T00:00:00	2024-11-08T18:00:00	7	Dirección del viento	4.83
145607	7	Sololá	713	San Lucas Tolimán	10	San Lucas Tolimán	9	Septiembre	2023-04-09T00:00:00	2024-11-08T18:00:00	1	Precipitación	0
145608	7	Sololá	713	San Lucas Tolimán	10	San Lucas Tolimán	9	Septiembre	2023-04-09T00:00:00	2024-11-08T18:00:00	8	Radiación solar	36
145609	7	Sololá	713	San Lucas Tolimán	10	San Lucas Tolimán	9	Septiembre	2023-04-09T00:00:00	2024-11-08T19:00:00	2	Temperatura media	17.1
145610	7	Sololá	713	San Lucas Tolimán	10	San Lucas Tolimán	9	Septiembre	2023-04-09T00:00:00	2024-11-08T19:00:00	4	Temperatura máxima	17.6
145611	7	Sololá	713	San Lucas Tolimán	10	San Lucas Tolimán	9	Septiembre	2023-04-09T00:00:00	2024-11-08T19:00:00	3	Temperatura mínima	17.1
145612	7	Sololá	713	San Lucas Tolimán	10	San Lucas Tolimán	9	Septiembre	2023-04-09T00:00:00	2024-11-08T19:00:00	5	Humedad	93
145613	7	Sololá	713	San Lucas Tolimán	10	San Lucas Tolimán	9	Septiembre	2023-04-09T00:00:00	2024-11-08T19:00:00	6	Velocidad del viento	3.2
145614	7	Sololá	713	San Lucas Tolimán	10	San Lucas Tolimán	9	Septiembre	2023-04-09T00:00:00	2024-11-08T19:00:00	7	Dirección del viento	3.22
145615	7	Sololá	713	San Lucas Tolimán	10	San Lucas Tolimán	9	Septiembre	2023-04-09T00:00:00	2024-11-08T19:00:00	1	Precipitación	0
145616	7	Sololá	713	San Lucas Tolimán	10	San Lucas Tolimán	9	Septiembre	2023-04-09T00:00:00	2024-11-08T19:00:00	8	Radiación solar	0
145617	7	Sololá	713	San Lucas Tolimán	10	San Lucas Tolimán	9	Septiembre	2023-04-09T00:00:00	2024-11-08T20:00:00	2	Temperatura media	16.9
145618	7	Sololá	713	San Lucas Tolimán	10	San Lucas Tolimán	9	Septiembre	2023-04-09T00:00:00	2024-11-08T20:00:00	4	Temperatura máxima	17.1
145619	7	Sololá	713	San Lucas Tolimán	10	San Lucas Tolimán	9	Septiembre	2023-04-09T00:00:00	2024-11-08T20:00:00	3	Temperatura mínima	16.9
145620	7	Sololá	713	San Lucas Tolimán	10	San Lucas Tolimán	9	Septiembre	2023-04-09T00:00:00	2024-11-08T20:00:00	5	Humedad	94
145621	7	Sololá	713	San Lucas Tolimán	10	San Lucas Tolimán	9	Septiembre	2023-04-09T00:00:00	2024-11-08T20:00:00	6	Velocidad del viento	1.6
145622	7	Sololá	713	San Lucas Tolimán	10	San Lucas Tolimán	9	Septiembre	2023-04-09T00:00:00	2024-11-08T20:00:00	7	Dirección del viento	1.61
145623	7	Sololá	713	San Lucas Tolimán	10	San Lucas Tolimán	9	Septiembre	2023-04-09T00:00:00	2024-11-08T20:00:00	1	Precipitación	0
145624	7	Sololá	713	San Lucas Tolimán	10	San Lucas Tolimán	9	Septiembre	2023-04-09T00:00:00	2024-11-08T20:00:00	8	Radiación solar	0
145625	7	Sololá	713	San Lucas Tolimán	10	San Lucas Tolimán	9	Septiembre	2023-04-09T00:00:00	2024-11-08T21:00:00	2	Temperatura media	17
145626	7	Sololá	713	San Lucas Tolimán	10	San Lucas Tolimán	9	Septiembre	2023-04-09T00:00:00	2024-11-08T21:00:00	4	Temperatura máxima	17
145627	7	Sololá	713	San Lucas Tolimán	10	San Lucas Tolimán	9	Septiembre	2023-04-09T00:00:00	2024-11-08T21:00:00	3	Temperatura mínima	16.8
145628	7	Sololá	713	San Lucas Tolimán	10	San Lucas Tolimán	9	Septiembre	2023-04-09T00:00:00	2024-11-08T21:00:00	5	Humedad	94
145629	7	Sololá	713	San Lucas Tolimán	10	San Lucas Tolimán	9	Septiembre	2023-04-09T00:00:00	2024-11-08T21:00:00	6	Velocidad del viento	3.2
145630	7	Sololá	713	San Lucas Tolimán	10	San Lucas Tolimán	9	Septiembre	2023-04-09T00:00:00	2024-11-08T21:00:00	7	Dirección del viento	3.22
145631	7	Sololá	713	San Lucas Tolimán	10	San Lucas Tolimán	9	Septiembre	2023-04-09T00:00:00	2024-11-08T21:00:00	1	Precipitación	0
145632	7	Sololá	713	San Lucas Tolimán	10	San Lucas Tolimán	9	Septiembre	2023-04-09T00:00:00	2024-11-08T21:00:00	8	Radiación solar	0
145633	7	Sololá	713	San Lucas Tolimán	10	San Lucas Tolimán	9	Septiembre	2023-04-09T00:00:00	2024-11-08T22:00:00	2	Temperatura media	16.8
145634	7	Sololá	713	San Lucas Tolimán	10	San Lucas Tolimán	9	Septiembre	2023-04-09T00:00:00	2024-11-08T22:00:00	4	Temperatura máxima	17
145635	7	Sololá	713	San Lucas Tolimán	10	San Lucas Tolimán	9	Septiembre	2023-04-09T00:00:00	2024-11-08T22:00:00	3	Temperatura mínima	16.8
145636	7	Sololá	713	San Lucas Tolimán	10	San Lucas Tolimán	9	Septiembre	2023-04-09T00:00:00	2024-11-08T22:00:00	5	Humedad	94
145637	7	Sololá	713	San Lucas Tolimán	10	San Lucas Tolimán	9	Septiembre	2023-04-09T00:00:00	2024-11-08T22:00:00	6	Velocidad del viento	3.2
145638	7	Sololá	713	San Lucas Tolimán	10	San Lucas Tolimán	9	Septiembre	2023-04-09T00:00:00	2024-11-08T22:00:00	7	Dirección del viento	3.22
145639	7	Sololá	713	San Lucas Tolimán	10	San Lucas Tolimán	9	Septiembre	2023-04-09T00:00:00	2024-11-08T22:00:00	1	Precipitación	0
145640	7	Sololá	713	San Lucas Tolimán	10	San Lucas Tolimán	9	Septiembre	2023-04-09T00:00:00	2024-11-08T22:00:00	8	Radiación solar	0
145641	7	Sololá	713	San Lucas Tolimán	10	San Lucas Tolimán	9	Septiembre	2023-04-09T00:00:00	2024-11-08T23:00:00	2	Temperatura media	17
145642	7	Sololá	713	San Lucas Tolimán	10	San Lucas Tolimán	9	Septiembre	2023-04-09T00:00:00	2024-11-08T23:00:00	4	Temperatura máxima	17
145643	7	Sololá	713	San Lucas Tolimán	10	San Lucas Tolimán	9	Septiembre	2023-04-09T00:00:00	2024-11-08T23:00:00	3	Temperatura mínima	16.8
145644	7	Sololá	713	San Lucas Tolimán	10	San Lucas Tolimán	9	Septiembre	2023-04-09T00:00:00	2024-11-08T23:00:00	5	Humedad	94
145645	7	Sololá	713	San Lucas Tolimán	10	San Lucas Tolimán	9	Septiembre	2023-04-09T00:00:00	2024-11-08T23:00:00	6	Velocidad del viento	1.6
145646	7	Sololá	713	San Lucas Tolimán	10	San Lucas Tolimán	9	Septiembre	2023-04-09T00:00:00	2024-11-08T23:00:00	7	Dirección del viento	1.61
145647	7	Sololá	713	San Lucas Tolimán	10	San Lucas Tolimán	9	Septiembre	2023-04-09T00:00:00	2024-11-08T23:00:00	1	Precipitación	0
145648	7	Sololá	713	San Lucas Tolimán	10	San Lucas Tolimán	9	Septiembre	2023-04-09T00:00:00	2024-11-08T23:00:00	8	Radiación solar	0
145649	7	Sololá	713	San Lucas Tolimán	10	San Lucas Tolimán	9	Septiembre	2023-05-09T00:00:00	2024-11-08T00:00:00	2	Temperatura media	16.9
145650	7	Sololá	713	San Lucas Tolimán	10	San Lucas Tolimán	9	Septiembre	2023-05-09T00:00:00	2024-11-08T00:00:00	4	Temperatura máxima	17.1
145651	7	Sololá	713	San Lucas Tolimán	10	San Lucas Tolimán	9	Septiembre	2023-05-09T00:00:00	2024-11-08T00:00:00	3	Temperatura mínima	16.9
145652	7	Sololá	713	San Lucas Tolimán	10	San Lucas Tolimán	9	Septiembre	2023-05-09T00:00:00	2024-11-08T00:00:00	5	Humedad	95
145653	7	Sololá	713	San Lucas Tolimán	10	San Lucas Tolimán	9	Septiembre	2023-05-09T00:00:00	2024-11-08T00:00:00	6	Velocidad del viento	1.6
145654	7	Sololá	713	San Lucas Tolimán	10	San Lucas Tolimán	9	Septiembre	2023-05-09T00:00:00	2024-11-08T00:00:00	7	Dirección del viento	1.61
145655	7	Sololá	713	San Lucas Tolimán	10	San Lucas Tolimán	9	Septiembre	2023-05-09T00:00:00	2024-11-08T00:00:00	1	Precipitación	0
145656	7	Sololá	713	San Lucas Tolimán	10	San Lucas Tolimán	9	Septiembre	2023-05-09T00:00:00	2024-11-08T00:00:00	8	Radiación solar	0
145657	7	Sololá	713	San Lucas Tolimán	10	San Lucas Tolimán	9	Septiembre	2023-05-09T00:00:00	2024-11-08T01:00:00	2	Temperatura media	16.9
145658	7	Sololá	713	San Lucas Tolimán	10	San Lucas Tolimán	9	Septiembre	2023-05-09T00:00:00	2024-11-08T01:00:00	4	Temperatura máxima	17.1
145659	7	Sololá	713	San Lucas Tolimán	10	San Lucas Tolimán	9	Septiembre	2023-05-09T00:00:00	2024-11-08T01:00:00	3	Temperatura mínima	16.9
145660	7	Sololá	713	San Lucas Tolimán	10	San Lucas Tolimán	9	Septiembre	2023-05-09T00:00:00	2024-11-08T01:00:00	5	Humedad	95
145661	7	Sololá	713	San Lucas Tolimán	10	San Lucas Tolimán	9	Septiembre	2023-05-09T00:00:00	2024-11-08T01:00:00	6	Velocidad del viento	0
145662	7	Sololá	713	San Lucas Tolimán	10	San Lucas Tolimán	9	Septiembre	2023-05-09T00:00:00	2024-11-08T01:00:00	7	Dirección del viento	0
145663	7	Sololá	713	San Lucas Tolimán	10	San Lucas Tolimán	9	Septiembre	2023-05-09T00:00:00	2024-11-08T01:00:00	1	Precipitación	0
145664	7	Sololá	713	San Lucas Tolimán	10	San Lucas Tolimán	9	Septiembre	2023-05-09T00:00:00	2024-11-08T01:00:00	8	Radiación solar	0
145665	7	Sololá	713	San Lucas Tolimán	10	San Lucas Tolimán	9	Septiembre	2023-05-09T00:00:00	2024-11-08T02:00:00	2	Temperatura media	16.8
145666	7	Sololá	713	San Lucas Tolimán	10	San Lucas Tolimán	9	Septiembre	2023-05-09T00:00:00	2024-11-08T02:00:00	4	Temperatura máxima	16.9
145667	7	Sololá	713	San Lucas Tolimán	10	San Lucas Tolimán	9	Septiembre	2023-05-09T00:00:00	2024-11-08T02:00:00	3	Temperatura mínima	16.8
145668	7	Sololá	713	San Lucas Tolimán	10	San Lucas Tolimán	9	Septiembre	2023-05-09T00:00:00	2024-11-08T02:00:00	5	Humedad	95
145669	7	Sololá	713	San Lucas Tolimán	10	San Lucas Tolimán	9	Septiembre	2023-05-09T00:00:00	2024-11-08T02:00:00	6	Velocidad del viento	0
145670	7	Sololá	713	San Lucas Tolimán	10	San Lucas Tolimán	9	Septiembre	2023-05-09T00:00:00	2024-11-08T02:00:00	7	Dirección del viento	0
145671	7	Sololá	713	San Lucas Tolimán	10	San Lucas Tolimán	9	Septiembre	2023-05-09T00:00:00	2024-11-08T02:00:00	1	Precipitación	0
145672	7	Sololá	713	San Lucas Tolimán	10	San Lucas Tolimán	9	Septiembre	2023-05-09T00:00:00	2024-11-08T02:00:00	8	Radiación solar	0
145673	7	Sololá	713	San Lucas Tolimán	10	San Lucas Tolimán	9	Septiembre	2023-05-09T00:00:00	2024-11-08T03:00:00	2	Temperatura media	16.2
145674	7	Sololá	713	San Lucas Tolimán	10	San Lucas Tolimán	9	Septiembre	2023-05-09T00:00:00	2024-11-08T03:00:00	4	Temperatura máxima	16.8
145675	7	Sololá	713	San Lucas Tolimán	10	San Lucas Tolimán	9	Septiembre	2023-05-09T00:00:00	2024-11-08T03:00:00	3	Temperatura mínima	16.2
145676	7	Sololá	713	San Lucas Tolimán	10	San Lucas Tolimán	9	Septiembre	2023-05-09T00:00:00	2024-11-08T03:00:00	5	Humedad	95
145677	7	Sololá	713	San Lucas Tolimán	10	San Lucas Tolimán	9	Septiembre	2023-05-09T00:00:00	2024-11-08T03:00:00	6	Velocidad del viento	0
145678	7	Sololá	713	San Lucas Tolimán	10	San Lucas Tolimán	9	Septiembre	2023-05-09T00:00:00	2024-11-08T03:00:00	7	Dirección del viento	0
145679	7	Sololá	713	San Lucas Tolimán	10	San Lucas Tolimán	9	Septiembre	2023-05-09T00:00:00	2024-11-08T03:00:00	1	Precipitación	0
145680	7	Sololá	713	San Lucas Tolimán	10	San Lucas Tolimán	9	Septiembre	2023-05-09T00:00:00	2024-11-08T03:00:00	8	Radiación solar	0
145681	7	Sololá	713	San Lucas Tolimán	10	San Lucas Tolimán	9	Septiembre	2023-05-09T00:00:00	2024-11-08T04:00:00	2	Temperatura media	16.3
145682	7	Sololá	713	San Lucas Tolimán	10	San Lucas Tolimán	9	Septiembre	2023-05-09T00:00:00	2024-11-08T04:00:00	4	Temperatura máxima	16.4
145683	7	Sololá	713	San Lucas Tolimán	10	San Lucas Tolimán	9	Septiembre	2023-05-09T00:00:00	2024-11-08T04:00:00	3	Temperatura mínima	16.2
145684	7	Sololá	713	San Lucas Tolimán	10	San Lucas Tolimán	9	Septiembre	2023-05-09T00:00:00	2024-11-08T04:00:00	5	Humedad	95
145685	7	Sololá	713	San Lucas Tolimán	10	San Lucas Tolimán	9	Septiembre	2023-05-09T00:00:00	2024-11-08T04:00:00	6	Velocidad del viento	0
145686	7	Sololá	713	San Lucas Tolimán	10	San Lucas Tolimán	9	Septiembre	2023-05-09T00:00:00	2024-11-08T04:00:00	7	Dirección del viento	0
145687	7	Sololá	713	San Lucas Tolimán	10	San Lucas Tolimán	9	Septiembre	2023-05-09T00:00:00	2024-11-08T04:00:00	1	Precipitación	0
145688	7	Sololá	713	San Lucas Tolimán	10	San Lucas Tolimán	9	Septiembre	2023-05-09T00:00:00	2024-11-08T04:00:00	8	Radiación solar	0
145689	7	Sololá	713	San Lucas Tolimán	10	San Lucas Tolimán	9	Septiembre	2023-05-09T00:00:00	2024-11-08T05:00:00	2	Temperatura media	15.9
145690	7	Sololá	713	San Lucas Tolimán	10	San Lucas Tolimán	9	Septiembre	2023-05-09T00:00:00	2024-11-08T05:00:00	4	Temperatura máxima	16.4
145691	7	Sololá	713	San Lucas Tolimán	10	San Lucas Tolimán	9	Septiembre	2023-05-09T00:00:00	2024-11-08T05:00:00	3	Temperatura mínima	15.9
145692	7	Sololá	713	San Lucas Tolimán	10	San Lucas Tolimán	9	Septiembre	2023-05-09T00:00:00	2024-11-08T05:00:00	5	Humedad	94
145693	7	Sololá	713	San Lucas Tolimán	10	San Lucas Tolimán	9	Septiembre	2023-05-09T00:00:00	2024-11-08T05:00:00	6	Velocidad del viento	1.6
145694	7	Sololá	713	San Lucas Tolimán	10	San Lucas Tolimán	9	Septiembre	2023-05-09T00:00:00	2024-11-08T05:00:00	7	Dirección del viento	1.61
145695	7	Sololá	713	San Lucas Tolimán	10	San Lucas Tolimán	9	Septiembre	2023-05-09T00:00:00	2024-11-08T05:00:00	1	Precipitación	0
145696	7	Sololá	713	San Lucas Tolimán	10	San Lucas Tolimán	9	Septiembre	2023-05-09T00:00:00	2024-11-08T05:00:00	8	Radiación solar	0
145697	7	Sololá	713	San Lucas Tolimán	10	San Lucas Tolimán	9	Septiembre	2023-05-09T00:00:00	2024-11-08T06:00:00	2	Temperatura media	15.9
145698	7	Sololá	713	San Lucas Tolimán	10	San Lucas Tolimán	9	Septiembre	2023-05-09T00:00:00	2024-11-08T06:00:00	4	Temperatura máxima	16.1
145699	7	Sololá	713	San Lucas Tolimán	10	San Lucas Tolimán	9	Septiembre	2023-05-09T00:00:00	2024-11-08T06:00:00	3	Temperatura mínima	15.8
145700	7	Sololá	713	San Lucas Tolimán	10	San Lucas Tolimán	9	Septiembre	2023-05-09T00:00:00	2024-11-08T06:00:00	5	Humedad	94
145701	7	Sololá	713	San Lucas Tolimán	10	San Lucas Tolimán	9	Septiembre	2023-05-09T00:00:00	2024-11-08T06:00:00	6	Velocidad del viento	1.6
145702	7	Sololá	713	San Lucas Tolimán	10	San Lucas Tolimán	9	Septiembre	2023-05-09T00:00:00	2024-11-08T06:00:00	7	Dirección del viento	1.61
145703	7	Sololá	713	San Lucas Tolimán	10	San Lucas Tolimán	9	Septiembre	2023-05-09T00:00:00	2024-11-08T06:00:00	1	Precipitación	0
145704	7	Sololá	713	San Lucas Tolimán	10	San Lucas Tolimán	9	Septiembre	2023-05-09T00:00:00	2024-11-08T06:00:00	8	Radiación solar	0
145705	7	Sololá	713	San Lucas Tolimán	10	San Lucas Tolimán	9	Septiembre	2023-05-09T00:00:00	2024-11-08T07:00:00	2	Temperatura media	17.1
145706	7	Sololá	713	San Lucas Tolimán	10	San Lucas Tolimán	9	Septiembre	2023-05-09T00:00:00	2024-11-08T07:00:00	4	Temperatura máxima	17.1
145707	7	Sololá	713	San Lucas Tolimán	10	San Lucas Tolimán	9	Septiembre	2023-05-09T00:00:00	2024-11-08T07:00:00	3	Temperatura mínima	15.9
145708	7	Sololá	713	San Lucas Tolimán	10	San Lucas Tolimán	9	Septiembre	2023-05-09T00:00:00	2024-11-08T07:00:00	5	Humedad	94
145709	7	Sololá	713	San Lucas Tolimán	10	San Lucas Tolimán	9	Septiembre	2023-05-09T00:00:00	2024-11-08T07:00:00	6	Velocidad del viento	1.6
145710	7	Sololá	713	San Lucas Tolimán	10	San Lucas Tolimán	9	Septiembre	2023-05-09T00:00:00	2024-11-08T07:00:00	7	Dirección del viento	1.61
145711	7	Sololá	713	San Lucas Tolimán	10	San Lucas Tolimán	9	Septiembre	2023-05-09T00:00:00	2024-11-08T07:00:00	1	Precipitación	0
145712	7	Sololá	713	San Lucas Tolimán	10	San Lucas Tolimán	9	Septiembre	2023-05-09T00:00:00	2024-11-08T07:00:00	8	Radiación solar	11
145713	7	Sololá	713	San Lucas Tolimán	10	San Lucas Tolimán	9	Septiembre	2023-05-09T00:00:00	2024-11-08T08:00:00	2	Temperatura media	21.4
145714	7	Sololá	713	San Lucas Tolimán	10	San Lucas Tolimán	9	Septiembre	2023-05-09T00:00:00	2024-11-08T08:00:00	4	Temperatura máxima	21.4
145715	7	Sololá	713	San Lucas Tolimán	10	San Lucas Tolimán	9	Septiembre	2023-05-09T00:00:00	2024-11-08T08:00:00	3	Temperatura mínima	17.1
145716	7	Sololá	713	San Lucas Tolimán	10	San Lucas Tolimán	9	Septiembre	2023-05-09T00:00:00	2024-11-08T08:00:00	5	Humedad	79
145717	7	Sololá	713	San Lucas Tolimán	10	San Lucas Tolimán	9	Septiembre	2023-05-09T00:00:00	2024-11-08T08:00:00	6	Velocidad del viento	3.2
145718	7	Sololá	713	San Lucas Tolimán	10	San Lucas Tolimán	9	Septiembre	2023-05-09T00:00:00	2024-11-08T08:00:00	7	Dirección del viento	3.22
145719	7	Sololá	713	San Lucas Tolimán	10	San Lucas Tolimán	9	Septiembre	2023-05-09T00:00:00	2024-11-08T08:00:00	1	Precipitación	0
145720	7	Sololá	713	San Lucas Tolimán	10	San Lucas Tolimán	9	Septiembre	2023-05-09T00:00:00	2024-11-08T08:00:00	8	Radiación solar	146
145721	7	Sololá	713	San Lucas Tolimán	10	San Lucas Tolimán	9	Septiembre	2023-05-09T00:00:00	2024-11-08T09:00:00	2	Temperatura media	22.3
145722	7	Sololá	713	San Lucas Tolimán	10	San Lucas Tolimán	9	Septiembre	2023-05-09T00:00:00	2024-11-08T09:00:00	4	Temperatura máxima	22.7
145723	7	Sololá	713	San Lucas Tolimán	10	San Lucas Tolimán	9	Septiembre	2023-05-09T00:00:00	2024-11-08T09:00:00	3	Temperatura mínima	21.3
145724	7	Sololá	713	San Lucas Tolimán	10	San Lucas Tolimán	9	Septiembre	2023-05-09T00:00:00	2024-11-08T09:00:00	5	Humedad	77
145725	7	Sololá	713	San Lucas Tolimán	10	San Lucas Tolimán	9	Septiembre	2023-05-09T00:00:00	2024-11-08T09:00:00	6	Velocidad del viento	3.2
145726	7	Sololá	713	San Lucas Tolimán	10	San Lucas Tolimán	9	Septiembre	2023-05-09T00:00:00	2024-11-08T09:00:00	7	Dirección del viento	3.22
145727	7	Sololá	713	San Lucas Tolimán	10	San Lucas Tolimán	9	Septiembre	2023-05-09T00:00:00	2024-11-08T09:00:00	1	Precipitación	0
145728	7	Sololá	713	San Lucas Tolimán	10	San Lucas Tolimán	9	Septiembre	2023-05-09T00:00:00	2024-11-08T09:00:00	8	Radiación solar	340
145729	7	Sololá	713	San Lucas Tolimán	10	San Lucas Tolimán	9	Septiembre	2023-05-09T00:00:00	2024-11-08T10:00:00	2	Temperatura media	23.2
145730	7	Sololá	713	San Lucas Tolimán	10	San Lucas Tolimán	9	Septiembre	2023-05-09T00:00:00	2024-11-08T10:00:00	4	Temperatura máxima	23.2
145731	7	Sololá	713	San Lucas Tolimán	10	San Lucas Tolimán	9	Septiembre	2023-05-09T00:00:00	2024-11-08T10:00:00	3	Temperatura mínima	22.2
145732	7	Sololá	713	San Lucas Tolimán	10	San Lucas Tolimán	9	Septiembre	2023-05-09T00:00:00	2024-11-08T10:00:00	5	Humedad	74
145733	7	Sololá	713	San Lucas Tolimán	10	San Lucas Tolimán	9	Septiembre	2023-05-09T00:00:00	2024-11-08T10:00:00	6	Velocidad del viento	8
145734	7	Sololá	713	San Lucas Tolimán	10	San Lucas Tolimán	9	Septiembre	2023-05-09T00:00:00	2024-11-08T10:00:00	7	Dirección del viento	8.05
145735	7	Sololá	713	San Lucas Tolimán	10	San Lucas Tolimán	9	Septiembre	2023-05-09T00:00:00	2024-11-08T10:00:00	1	Precipitación	0
145736	7	Sololá	713	San Lucas Tolimán	10	San Lucas Tolimán	9	Septiembre	2023-05-09T00:00:00	2024-11-08T10:00:00	8	Radiación solar	391
145737	7	Sololá	713	San Lucas Tolimán	10	San Lucas Tolimán	9	Septiembre	2023-05-09T00:00:00	2024-11-08T11:00:00	2	Temperatura media	23.6
145738	7	Sololá	713	San Lucas Tolimán	10	San Lucas Tolimán	9	Septiembre	2023-05-09T00:00:00	2024-11-08T11:00:00	4	Temperatura máxima	23.8
145739	7	Sololá	713	San Lucas Tolimán	10	San Lucas Tolimán	9	Septiembre	2023-05-09T00:00:00	2024-11-08T11:00:00	3	Temperatura mínima	22.9
145740	7	Sololá	713	San Lucas Tolimán	10	San Lucas Tolimán	9	Septiembre	2023-05-09T00:00:00	2024-11-08T11:00:00	5	Humedad	75
145741	7	Sololá	713	San Lucas Tolimán	10	San Lucas Tolimán	9	Septiembre	2023-05-09T00:00:00	2024-11-08T11:00:00	6	Velocidad del viento	9.7
145742	7	Sololá	713	San Lucas Tolimán	10	San Lucas Tolimán	9	Septiembre	2023-05-09T00:00:00	2024-11-08T11:00:00	7	Dirección del viento	9.66
145743	7	Sololá	713	San Lucas Tolimán	10	San Lucas Tolimán	9	Septiembre	2023-05-09T00:00:00	2024-11-08T11:00:00	1	Precipitación	0
145744	7	Sololá	713	San Lucas Tolimán	10	San Lucas Tolimán	9	Septiembre	2023-05-09T00:00:00	2024-11-08T11:00:00	8	Radiación solar	490
145745	7	Sololá	713	San Lucas Tolimán	10	San Lucas Tolimán	9	Septiembre	2023-05-09T00:00:00	2024-11-08T12:00:00	2	Temperatura media	23.3
145746	7	Sololá	713	San Lucas Tolimán	10	San Lucas Tolimán	9	Septiembre	2023-05-09T00:00:00	2024-11-08T12:00:00	4	Temperatura máxima	23.7
145747	7	Sololá	713	San Lucas Tolimán	10	San Lucas Tolimán	9	Septiembre	2023-05-09T00:00:00	2024-11-08T12:00:00	3	Temperatura mínima	22.9
145748	7	Sololá	713	San Lucas Tolimán	10	San Lucas Tolimán	9	Septiembre	2023-05-09T00:00:00	2024-11-08T12:00:00	5	Humedad	78
145749	7	Sololá	713	San Lucas Tolimán	10	San Lucas Tolimán	9	Septiembre	2023-05-09T00:00:00	2024-11-08T12:00:00	6	Velocidad del viento	9.7
145750	7	Sololá	713	San Lucas Tolimán	10	San Lucas Tolimán	9	Septiembre	2023-05-09T00:00:00	2024-11-08T12:00:00	7	Dirección del viento	9.66
145751	7	Sololá	713	San Lucas Tolimán	10	San Lucas Tolimán	9	Septiembre	2023-05-09T00:00:00	2024-11-08T12:00:00	1	Precipitación	0
145752	7	Sololá	713	San Lucas Tolimán	10	San Lucas Tolimán	9	Septiembre	2023-05-09T00:00:00	2024-11-08T12:00:00	8	Radiación solar	602
145753	7	Sololá	713	San Lucas Tolimán	10	San Lucas Tolimán	9	Septiembre	2023-05-09T00:00:00	2024-11-08T13:00:00	2	Temperatura media	22.6
145754	7	Sololá	713	San Lucas Tolimán	10	San Lucas Tolimán	9	Septiembre	2023-05-09T00:00:00	2024-11-08T13:00:00	4	Temperatura máxima	23.4
145755	7	Sololá	713	San Lucas Tolimán	10	San Lucas Tolimán	9	Septiembre	2023-05-09T00:00:00	2024-11-08T13:00:00	3	Temperatura mínima	22.4
145756	7	Sololá	713	San Lucas Tolimán	10	San Lucas Tolimán	9	Septiembre	2023-05-09T00:00:00	2024-11-08T13:00:00	5	Humedad	82
145757	7	Sololá	713	San Lucas Tolimán	10	San Lucas Tolimán	9	Septiembre	2023-05-09T00:00:00	2024-11-08T13:00:00	6	Velocidad del viento	9.7
145758	7	Sololá	713	San Lucas Tolimán	10	San Lucas Tolimán	9	Septiembre	2023-05-09T00:00:00	2024-11-08T13:00:00	7	Dirección del viento	9.66
145759	7	Sololá	713	San Lucas Tolimán	10	San Lucas Tolimán	9	Septiembre	2023-05-09T00:00:00	2024-11-08T13:00:00	1	Precipitación	0
145760	7	Sololá	713	San Lucas Tolimán	10	San Lucas Tolimán	9	Septiembre	2023-05-09T00:00:00	2024-11-08T13:00:00	8	Radiación solar	936
145761	7	Sololá	713	San Lucas Tolimán	10	San Lucas Tolimán	9	Septiembre	2023-05-09T00:00:00	2024-11-08T14:00:00	2	Temperatura media	20.2
145762	7	Sololá	713	San Lucas Tolimán	10	San Lucas Tolimán	9	Septiembre	2023-05-09T00:00:00	2024-11-08T14:00:00	4	Temperatura máxima	23
145763	7	Sololá	713	San Lucas Tolimán	10	San Lucas Tolimán	9	Septiembre	2023-05-09T00:00:00	2024-11-08T14:00:00	3	Temperatura mínima	20.2
145764	7	Sololá	713	San Lucas Tolimán	10	San Lucas Tolimán	9	Septiembre	2023-05-09T00:00:00	2024-11-08T14:00:00	5	Humedad	92
145765	7	Sololá	713	San Lucas Tolimán	10	San Lucas Tolimán	9	Septiembre	2023-05-09T00:00:00	2024-11-08T14:00:00	6	Velocidad del viento	8
145766	7	Sololá	713	San Lucas Tolimán	10	San Lucas Tolimán	9	Septiembre	2023-05-09T00:00:00	2024-11-08T14:00:00	7	Dirección del viento	8.05
145767	7	Sololá	713	San Lucas Tolimán	10	San Lucas Tolimán	9	Septiembre	2023-05-09T00:00:00	2024-11-08T14:00:00	1	Precipitación	2.6
145768	7	Sololá	713	San Lucas Tolimán	10	San Lucas Tolimán	9	Septiembre	2023-05-09T00:00:00	2024-11-08T14:00:00	8	Radiación solar	612
145769	7	Sololá	713	San Lucas Tolimán	10	San Lucas Tolimán	9	Septiembre	2023-05-09T00:00:00	2024-11-08T15:00:00	2	Temperatura media	17
145770	7	Sololá	713	San Lucas Tolimán	10	San Lucas Tolimán	9	Septiembre	2023-05-09T00:00:00	2024-11-08T15:00:00	4	Temperatura máxima	20.2
145771	7	Sololá	713	San Lucas Tolimán	10	San Lucas Tolimán	9	Septiembre	2023-05-09T00:00:00	2024-11-08T15:00:00	3	Temperatura mínima	17
145772	7	Sololá	713	San Lucas Tolimán	10	San Lucas Tolimán	9	Septiembre	2023-05-09T00:00:00	2024-11-08T15:00:00	5	Humedad	93
145773	7	Sololá	713	San Lucas Tolimán	10	San Lucas Tolimán	9	Septiembre	2023-05-09T00:00:00	2024-11-08T15:00:00	6	Velocidad del viento	8
145774	7	Sololá	713	San Lucas Tolimán	10	San Lucas Tolimán	9	Septiembre	2023-05-09T00:00:00	2024-11-08T15:00:00	7	Dirección del viento	8.05
145775	7	Sololá	713	San Lucas Tolimán	10	San Lucas Tolimán	9	Septiembre	2023-05-09T00:00:00	2024-11-08T15:00:00	1	Precipitación	20.8
145776	7	Sololá	713	San Lucas Tolimán	10	San Lucas Tolimán	9	Septiembre	2023-05-09T00:00:00	2024-11-08T15:00:00	8	Radiación solar	556
145777	7	Sololá	713	San Lucas Tolimán	10	San Lucas Tolimán	9	Septiembre	2023-05-09T00:00:00	2024-11-08T16:00:00	2	Temperatura media	16.7
145778	7	Sololá	713	San Lucas Tolimán	10	San Lucas Tolimán	9	Septiembre	2023-05-09T00:00:00	2024-11-08T16:00:00	4	Temperatura máxima	17
145779	7	Sololá	713	San Lucas Tolimán	10	San Lucas Tolimán	9	Septiembre	2023-05-09T00:00:00	2024-11-08T16:00:00	3	Temperatura mínima	16.7
145780	7	Sololá	713	San Lucas Tolimán	10	San Lucas Tolimán	9	Septiembre	2023-05-09T00:00:00	2024-11-08T16:00:00	5	Humedad	94
145781	7	Sololá	713	San Lucas Tolimán	10	San Lucas Tolimán	9	Septiembre	2023-05-09T00:00:00	2024-11-08T16:00:00	6	Velocidad del viento	3.2
145782	7	Sololá	713	San Lucas Tolimán	10	San Lucas Tolimán	9	Septiembre	2023-05-09T00:00:00	2024-11-08T16:00:00	7	Dirección del viento	3.22
145783	7	Sololá	713	San Lucas Tolimán	10	San Lucas Tolimán	9	Septiembre	2023-05-09T00:00:00	2024-11-08T16:00:00	1	Precipitación	1.4
145784	7	Sololá	713	San Lucas Tolimán	10	San Lucas Tolimán	9	Septiembre	2023-05-09T00:00:00	2024-11-08T16:00:00	8	Radiación solar	154
145785	7	Sololá	713	San Lucas Tolimán	10	San Lucas Tolimán	9	Septiembre	2023-05-09T00:00:00	2024-11-08T17:00:00	2	Temperatura media	16.9
145786	7	Sololá	713	San Lucas Tolimán	10	San Lucas Tolimán	9	Septiembre	2023-05-09T00:00:00	2024-11-08T17:00:00	4	Temperatura máxima	16.9
145787	7	Sololá	713	San Lucas Tolimán	10	San Lucas Tolimán	9	Septiembre	2023-05-09T00:00:00	2024-11-08T17:00:00	3	Temperatura mínima	16.7
145788	7	Sololá	713	San Lucas Tolimán	10	San Lucas Tolimán	9	Septiembre	2023-05-09T00:00:00	2024-11-08T17:00:00	5	Humedad	95
145789	7	Sololá	713	San Lucas Tolimán	10	San Lucas Tolimán	9	Septiembre	2023-05-09T00:00:00	2024-11-08T17:00:00	6	Velocidad del viento	1.6
145790	7	Sololá	713	San Lucas Tolimán	10	San Lucas Tolimán	9	Septiembre	2023-05-09T00:00:00	2024-11-08T17:00:00	7	Dirección del viento	1.61
145791	7	Sololá	713	San Lucas Tolimán	10	San Lucas Tolimán	9	Septiembre	2023-05-09T00:00:00	2024-11-08T17:00:00	1	Precipitación	0
145792	7	Sololá	713	San Lucas Tolimán	10	San Lucas Tolimán	9	Septiembre	2023-05-09T00:00:00	2024-11-08T17:00:00	8	Radiación solar	149
145793	7	Sololá	713	San Lucas Tolimán	10	San Lucas Tolimán	9	Septiembre	2023-05-09T00:00:00	2024-11-08T18:00:00	2	Temperatura media	16.9
145794	7	Sololá	713	San Lucas Tolimán	10	San Lucas Tolimán	9	Septiembre	2023-05-09T00:00:00	2024-11-08T18:00:00	4	Temperatura máxima	16.9
145795	7	Sololá	713	San Lucas Tolimán	10	San Lucas Tolimán	9	Septiembre	2023-05-09T00:00:00	2024-11-08T18:00:00	3	Temperatura mínima	16.6
145796	7	Sololá	713	San Lucas Tolimán	10	San Lucas Tolimán	9	Septiembre	2023-05-09T00:00:00	2024-11-08T18:00:00	5	Humedad	66
145797	7	Sololá	713	San Lucas Tolimán	10	San Lucas Tolimán	9	Septiembre	2023-05-09T00:00:00	2024-11-08T18:00:00	6	Velocidad del viento	1.6
145798	7	Sololá	713	San Lucas Tolimán	10	San Lucas Tolimán	9	Septiembre	2023-05-09T00:00:00	2024-11-08T18:00:00	7	Dirección del viento	1.61
145799	7	Sololá	713	San Lucas Tolimán	10	San Lucas Tolimán	9	Septiembre	2023-05-09T00:00:00	2024-11-08T18:00:00	1	Precipitación	0.2
145800	7	Sololá	713	San Lucas Tolimán	10	San Lucas Tolimán	9	Septiembre	2023-05-09T00:00:00	2024-11-08T18:00:00	8	Radiación solar	21
145801	7	Sololá	713	San Lucas Tolimán	10	San Lucas Tolimán	9	Septiembre	2023-05-09T00:00:00	2024-11-08T19:00:00	2	Temperatura media	17.6
145802	7	Sololá	713	San Lucas Tolimán	10	San Lucas Tolimán	9	Septiembre	2023-05-09T00:00:00	2024-11-08T19:00:00	4	Temperatura máxima	17.6
145803	7	Sololá	713	San Lucas Tolimán	10	San Lucas Tolimán	9	Septiembre	2023-05-09T00:00:00	2024-11-08T19:00:00	3	Temperatura mínima	16.8
145804	7	Sololá	713	San Lucas Tolimán	10	San Lucas Tolimán	9	Septiembre	2023-05-09T00:00:00	2024-11-08T19:00:00	5	Humedad	65
145805	7	Sololá	713	San Lucas Tolimán	10	San Lucas Tolimán	9	Septiembre	2023-05-09T00:00:00	2024-11-08T19:00:00	6	Velocidad del viento	1.6
145806	7	Sololá	713	San Lucas Tolimán	10	San Lucas Tolimán	9	Septiembre	2023-05-09T00:00:00	2024-11-08T19:00:00	7	Dirección del viento	1.61
145807	7	Sololá	713	San Lucas Tolimán	10	San Lucas Tolimán	9	Septiembre	2023-05-09T00:00:00	2024-11-08T19:00:00	1	Precipitación	0
145808	7	Sololá	713	San Lucas Tolimán	10	San Lucas Tolimán	9	Septiembre	2023-05-09T00:00:00	2024-11-08T19:00:00	8	Radiación solar	0
145809	7	Sololá	713	San Lucas Tolimán	10	San Lucas Tolimán	9	Septiembre	2023-05-09T00:00:00	2024-11-08T20:00:00	2	Temperatura media	17.7
145810	7	Sololá	713	San Lucas Tolimán	10	San Lucas Tolimán	9	Septiembre	2023-05-09T00:00:00	2024-11-08T20:00:00	4	Temperatura máxima	17.7
145811	7	Sololá	713	San Lucas Tolimán	10	San Lucas Tolimán	9	Septiembre	2023-05-09T00:00:00	2024-11-08T20:00:00	3	Temperatura mínima	17.6
145812	7	Sololá	713	San Lucas Tolimán	10	San Lucas Tolimán	9	Septiembre	2023-05-09T00:00:00	2024-11-08T20:00:00	5	Humedad	65
145813	7	Sololá	713	San Lucas Tolimán	10	San Lucas Tolimán	9	Septiembre	2023-05-09T00:00:00	2024-11-08T20:00:00	6	Velocidad del viento	0
145814	7	Sololá	713	San Lucas Tolimán	10	San Lucas Tolimán	9	Septiembre	2023-05-09T00:00:00	2024-11-08T20:00:00	7	Dirección del viento	0
145815	7	Sololá	713	San Lucas Tolimán	10	San Lucas Tolimán	9	Septiembre	2023-05-09T00:00:00	2024-11-08T20:00:00	1	Precipitación	0
145816	7	Sololá	713	San Lucas Tolimán	10	San Lucas Tolimán	9	Septiembre	2023-05-09T00:00:00	2024-11-08T20:00:00	8	Radiación solar	0
145817	7	Sololá	713	San Lucas Tolimán	10	San Lucas Tolimán	9	Septiembre	2023-05-09T00:00:00	2024-11-08T21:00:00	2	Temperatura media	17.7
145818	7	Sololá	713	San Lucas Tolimán	10	San Lucas Tolimán	9	Septiembre	2023-05-09T00:00:00	2024-11-08T21:00:00	4	Temperatura máxima	17.7
145819	7	Sololá	713	San Lucas Tolimán	10	San Lucas Tolimán	9	Septiembre	2023-05-09T00:00:00	2024-11-08T21:00:00	3	Temperatura mínima	17.5
145820	7	Sololá	713	San Lucas Tolimán	10	San Lucas Tolimán	9	Septiembre	2023-05-09T00:00:00	2024-11-08T21:00:00	5	Humedad	62
145821	7	Sololá	713	San Lucas Tolimán	10	San Lucas Tolimán	9	Septiembre	2023-05-09T00:00:00	2024-11-08T21:00:00	6	Velocidad del viento	0
145822	7	Sololá	713	San Lucas Tolimán	10	San Lucas Tolimán	9	Septiembre	2023-05-09T00:00:00	2024-11-08T21:00:00	7	Dirección del viento	0
145823	7	Sololá	713	San Lucas Tolimán	10	San Lucas Tolimán	9	Septiembre	2023-05-09T00:00:00	2024-11-08T21:00:00	1	Precipitación	0
145824	7	Sololá	713	San Lucas Tolimán	10	San Lucas Tolimán	9	Septiembre	2023-05-09T00:00:00	2024-11-08T21:00:00	8	Radiación solar	0
145825	7	Sololá	713	San Lucas Tolimán	10	San Lucas Tolimán	9	Septiembre	2023-05-09T00:00:00	2024-11-08T22:00:00	2	Temperatura media	18.9
145826	7	Sololá	713	San Lucas Tolimán	10	San Lucas Tolimán	9	Septiembre	2023-05-09T00:00:00	2024-11-08T22:00:00	4	Temperatura máxima	19.5
145827	7	Sololá	713	San Lucas Tolimán	10	San Lucas Tolimán	9	Septiembre	2023-05-09T00:00:00	2024-11-08T22:00:00	3	Temperatura mínima	17.7
145828	7	Sololá	713	San Lucas Tolimán	10	San Lucas Tolimán	9	Septiembre	2023-05-09T00:00:00	2024-11-08T22:00:00	5	Humedad	61
145829	7	Sololá	713	San Lucas Tolimán	10	San Lucas Tolimán	9	Septiembre	2023-05-09T00:00:00	2024-11-08T22:00:00	6	Velocidad del viento	4.8
145830	7	Sololá	713	San Lucas Tolimán	10	San Lucas Tolimán	9	Septiembre	2023-05-09T00:00:00	2024-11-08T22:00:00	7	Dirección del viento	4.83
145831	7	Sololá	713	San Lucas Tolimán	10	San Lucas Tolimán	9	Septiembre	2023-05-09T00:00:00	2024-11-08T22:00:00	1	Precipitación	0
145832	7	Sololá	713	San Lucas Tolimán	10	San Lucas Tolimán	9	Septiembre	2023-05-09T00:00:00	2024-11-08T22:00:00	8	Radiación solar	0
145833	7	Sololá	713	San Lucas Tolimán	10	San Lucas Tolimán	9	Septiembre	2023-05-09T00:00:00	2024-11-08T23:00:00	2	Temperatura media	18.7
145834	7	Sololá	713	San Lucas Tolimán	10	San Lucas Tolimán	9	Septiembre	2023-05-09T00:00:00	2024-11-08T23:00:00	4	Temperatura máxima	19.4
145835	7	Sololá	713	San Lucas Tolimán	10	San Lucas Tolimán	9	Septiembre	2023-05-09T00:00:00	2024-11-08T23:00:00	3	Temperatura mínima	18.6
145836	7	Sololá	713	San Lucas Tolimán	10	San Lucas Tolimán	9	Septiembre	2023-05-09T00:00:00	2024-11-08T23:00:00	5	Humedad	61
145837	7	Sololá	713	San Lucas Tolimán	10	San Lucas Tolimán	9	Septiembre	2023-05-09T00:00:00	2024-11-08T23:00:00	6	Velocidad del viento	3.2
145838	7	Sololá	713	San Lucas Tolimán	10	San Lucas Tolimán	9	Septiembre	2023-05-09T00:00:00	2024-11-08T23:00:00	7	Dirección del viento	3.22
145839	7	Sololá	713	San Lucas Tolimán	10	San Lucas Tolimán	9	Septiembre	2023-05-09T00:00:00	2024-11-08T23:00:00	1	Precipitación	0
145840	7	Sololá	713	San Lucas Tolimán	10	San Lucas Tolimán	9	Septiembre	2023-05-09T00:00:00	2024-11-08T23:00:00	8	Radiación solar	0
145841	7	Sololá	713	San Lucas Tolimán	10	San Lucas Tolimán	9	Septiembre	2023-06-09T00:00:00	2024-11-08T00:00:00	2	Temperatura media	18.7
145842	7	Sololá	713	San Lucas Tolimán	10	San Lucas Tolimán	9	Septiembre	2023-06-09T00:00:00	2024-11-08T00:00:00	4	Temperatura máxima	18.7
145843	7	Sololá	713	San Lucas Tolimán	10	San Lucas Tolimán	9	Septiembre	2023-06-09T00:00:00	2024-11-08T00:00:00	3	Temperatura mínima	17.9
145844	7	Sololá	713	San Lucas Tolimán	10	San Lucas Tolimán	9	Septiembre	2023-06-09T00:00:00	2024-11-08T00:00:00	5	Humedad	60
145845	7	Sololá	713	San Lucas Tolimán	10	San Lucas Tolimán	9	Septiembre	2023-06-09T00:00:00	2024-11-08T00:00:00	6	Velocidad del viento	3.2
145846	7	Sololá	713	San Lucas Tolimán	10	San Lucas Tolimán	9	Septiembre	2023-06-09T00:00:00	2024-11-08T00:00:00	7	Dirección del viento	3.22
145847	7	Sololá	713	San Lucas Tolimán	10	San Lucas Tolimán	9	Septiembre	2023-06-09T00:00:00	2024-11-08T00:00:00	1	Precipitación	0
145848	7	Sololá	713	San Lucas Tolimán	10	San Lucas Tolimán	9	Septiembre	2023-06-09T00:00:00	2024-11-08T00:00:00	8	Radiación solar	0
145849	7	Sololá	713	San Lucas Tolimán	10	San Lucas Tolimán	9	Septiembre	2023-06-09T00:00:00	2024-11-08T01:00:00	2	Temperatura media	19.8
145850	7	Sololá	713	San Lucas Tolimán	10	San Lucas Tolimán	9	Septiembre	2023-06-09T00:00:00	2024-11-08T01:00:00	4	Temperatura máxima	20.1
145851	7	Sololá	713	San Lucas Tolimán	10	San Lucas Tolimán	9	Septiembre	2023-06-09T00:00:00	2024-11-08T01:00:00	3	Temperatura mínima	18.6
145852	7	Sololá	713	San Lucas Tolimán	10	San Lucas Tolimán	9	Septiembre	2023-06-09T00:00:00	2024-11-08T01:00:00	5	Humedad	59
145853	7	Sololá	713	San Lucas Tolimán	10	San Lucas Tolimán	9	Septiembre	2023-06-09T00:00:00	2024-11-08T01:00:00	6	Velocidad del viento	4.8
145854	7	Sololá	713	San Lucas Tolimán	10	San Lucas Tolimán	9	Septiembre	2023-06-09T00:00:00	2024-11-08T01:00:00	7	Dirección del viento	4.83
145855	7	Sololá	713	San Lucas Tolimán	10	San Lucas Tolimán	9	Septiembre	2023-06-09T00:00:00	2024-11-08T01:00:00	1	Precipitación	0
145856	7	Sololá	713	San Lucas Tolimán	10	San Lucas Tolimán	9	Septiembre	2023-06-09T00:00:00	2024-11-08T01:00:00	8	Radiación solar	0
145857	7	Sololá	713	San Lucas Tolimán	10	San Lucas Tolimán	9	Septiembre	2023-06-09T00:00:00	2024-11-08T02:00:00	2	Temperatura media	17.9
145858	7	Sololá	713	San Lucas Tolimán	10	San Lucas Tolimán	9	Septiembre	2023-06-09T00:00:00	2024-11-08T02:00:00	4	Temperatura máxima	19.7
145859	7	Sololá	713	San Lucas Tolimán	10	San Lucas Tolimán	9	Septiembre	2023-06-09T00:00:00	2024-11-08T02:00:00	3	Temperatura mínima	17.9
145860	7	Sololá	713	San Lucas Tolimán	10	San Lucas Tolimán	9	Septiembre	2023-06-09T00:00:00	2024-11-08T02:00:00	5	Humedad	63
145861	7	Sololá	713	San Lucas Tolimán	10	San Lucas Tolimán	9	Septiembre	2023-06-09T00:00:00	2024-11-08T02:00:00	6	Velocidad del viento	1.6
145862	7	Sololá	713	San Lucas Tolimán	10	San Lucas Tolimán	9	Septiembre	2023-06-09T00:00:00	2024-11-08T02:00:00	7	Dirección del viento	1.61
145863	7	Sololá	713	San Lucas Tolimán	10	San Lucas Tolimán	9	Septiembre	2023-06-09T00:00:00	2024-11-08T02:00:00	1	Precipitación	0
145864	7	Sololá	713	San Lucas Tolimán	10	San Lucas Tolimán	9	Septiembre	2023-06-09T00:00:00	2024-11-08T02:00:00	8	Radiación solar	0
145865	7	Sololá	713	San Lucas Tolimán	10	San Lucas Tolimán	9	Septiembre	2023-06-09T00:00:00	2024-11-08T03:00:00	2	Temperatura media	16.9
145866	7	Sololá	713	San Lucas Tolimán	10	San Lucas Tolimán	9	Septiembre	2023-06-09T00:00:00	2024-11-08T03:00:00	4	Temperatura máxima	17.9
145867	7	Sololá	713	San Lucas Tolimán	10	San Lucas Tolimán	9	Septiembre	2023-06-09T00:00:00	2024-11-08T03:00:00	3	Temperatura mínima	16.9
145868	7	Sololá	713	San Lucas Tolimán	10	San Lucas Tolimán	9	Septiembre	2023-06-09T00:00:00	2024-11-08T03:00:00	5	Humedad	63
145869	7	Sololá	713	San Lucas Tolimán	10	San Lucas Tolimán	9	Septiembre	2023-06-09T00:00:00	2024-11-08T03:00:00	6	Velocidad del viento	1.6
145870	7	Sololá	713	San Lucas Tolimán	10	San Lucas Tolimán	9	Septiembre	2023-06-09T00:00:00	2024-11-08T03:00:00	7	Dirección del viento	1.61
145871	7	Sololá	713	San Lucas Tolimán	10	San Lucas Tolimán	9	Septiembre	2023-06-09T00:00:00	2024-11-08T03:00:00	1	Precipitación	0
145872	7	Sololá	713	San Lucas Tolimán	10	San Lucas Tolimán	9	Septiembre	2023-06-09T00:00:00	2024-11-08T03:00:00	8	Radiación solar	0
145873	7	Sololá	713	San Lucas Tolimán	10	San Lucas Tolimán	9	Septiembre	2023-06-09T00:00:00	2024-11-08T04:00:00	2	Temperatura media	16.8
145874	7	Sololá	713	San Lucas Tolimán	10	San Lucas Tolimán	9	Septiembre	2023-06-09T00:00:00	2024-11-08T04:00:00	4	Temperatura máxima	17
145875	7	Sololá	713	San Lucas Tolimán	10	San Lucas Tolimán	9	Septiembre	2023-06-09T00:00:00	2024-11-08T04:00:00	3	Temperatura mínima	16.7
145876	7	Sololá	713	San Lucas Tolimán	10	San Lucas Tolimán	9	Septiembre	2023-06-09T00:00:00	2024-11-08T04:00:00	5	Humedad	62
145877	7	Sololá	713	San Lucas Tolimán	10	San Lucas Tolimán	9	Septiembre	2023-06-09T00:00:00	2024-11-08T04:00:00	6	Velocidad del viento	3.2
145878	7	Sololá	713	San Lucas Tolimán	10	San Lucas Tolimán	9	Septiembre	2023-06-09T00:00:00	2024-11-08T04:00:00	7	Dirección del viento	3.22
145879	7	Sololá	713	San Lucas Tolimán	10	San Lucas Tolimán	9	Septiembre	2023-06-09T00:00:00	2024-11-08T04:00:00	1	Precipitación	0
145880	7	Sololá	713	San Lucas Tolimán	10	San Lucas Tolimán	9	Septiembre	2023-06-09T00:00:00	2024-11-08T04:00:00	8	Radiación solar	0
145881	7	Sololá	713	San Lucas Tolimán	10	San Lucas Tolimán	9	Septiembre	2023-06-09T00:00:00	2024-11-08T05:00:00	2	Temperatura media	16.7
145882	7	Sololá	713	San Lucas Tolimán	10	San Lucas Tolimán	9	Septiembre	2023-06-09T00:00:00	2024-11-08T05:00:00	4	Temperatura máxima	16.8
145883	7	Sololá	713	San Lucas Tolimán	10	San Lucas Tolimán	9	Septiembre	2023-06-09T00:00:00	2024-11-08T05:00:00	3	Temperatura mínima	16.7
145884	7	Sololá	713	San Lucas Tolimán	10	San Lucas Tolimán	9	Septiembre	2023-06-09T00:00:00	2024-11-08T05:00:00	5	Humedad	66
145885	7	Sololá	713	San Lucas Tolimán	10	San Lucas Tolimán	9	Septiembre	2023-06-09T00:00:00	2024-11-08T05:00:00	6	Velocidad del viento	3.2
145886	7	Sololá	713	San Lucas Tolimán	10	San Lucas Tolimán	9	Septiembre	2023-06-09T00:00:00	2024-11-08T05:00:00	7	Dirección del viento	3.22
145887	7	Sololá	713	San Lucas Tolimán	10	San Lucas Tolimán	9	Septiembre	2023-06-09T00:00:00	2024-11-08T05:00:00	1	Precipitación	0
145888	7	Sololá	713	San Lucas Tolimán	10	San Lucas Tolimán	9	Septiembre	2023-06-09T00:00:00	2024-11-08T05:00:00	8	Radiación solar	0
145889	7	Sololá	713	San Lucas Tolimán	10	San Lucas Tolimán	9	Septiembre	2023-06-09T00:00:00	2024-11-08T06:00:00	2	Temperatura media	16.4
145890	7	Sololá	713	San Lucas Tolimán	10	San Lucas Tolimán	9	Septiembre	2023-06-09T00:00:00	2024-11-08T06:00:00	4	Temperatura máxima	16.7
145891	7	Sololá	713	San Lucas Tolimán	10	San Lucas Tolimán	9	Septiembre	2023-06-09T00:00:00	2024-11-08T06:00:00	3	Temperatura mínima	16.4
145892	7	Sololá	713	San Lucas Tolimán	10	San Lucas Tolimán	9	Septiembre	2023-06-09T00:00:00	2024-11-08T06:00:00	5	Humedad	67
145893	7	Sololá	713	San Lucas Tolimán	10	San Lucas Tolimán	9	Septiembre	2023-06-09T00:00:00	2024-11-08T06:00:00	6	Velocidad del viento	1.6
145894	7	Sololá	713	San Lucas Tolimán	10	San Lucas Tolimán	9	Septiembre	2023-06-09T00:00:00	2024-11-08T06:00:00	7	Dirección del viento	1.61
145895	7	Sololá	713	San Lucas Tolimán	10	San Lucas Tolimán	9	Septiembre	2023-06-09T00:00:00	2024-11-08T06:00:00	1	Precipitación	0
145896	7	Sololá	713	San Lucas Tolimán	10	San Lucas Tolimán	9	Septiembre	2023-06-09T00:00:00	2024-11-08T06:00:00	8	Radiación solar	0
145897	7	Sololá	713	San Lucas Tolimán	10	San Lucas Tolimán	9	Septiembre	2023-06-09T00:00:00	2024-11-08T07:00:00	2	Temperatura media	17.1
145898	7	Sololá	713	San Lucas Tolimán	10	San Lucas Tolimán	9	Septiembre	2023-06-09T00:00:00	2024-11-08T07:00:00	4	Temperatura máxima	17.1
145899	7	Sololá	713	San Lucas Tolimán	10	San Lucas Tolimán	9	Septiembre	2023-06-09T00:00:00	2024-11-08T07:00:00	3	Temperatura mínima	16.3
145900	7	Sololá	713	San Lucas Tolimán	10	San Lucas Tolimán	9	Septiembre	2023-06-09T00:00:00	2024-11-08T07:00:00	5	Humedad	67
145901	7	Sololá	713	San Lucas Tolimán	10	San Lucas Tolimán	9	Septiembre	2023-06-09T00:00:00	2024-11-08T07:00:00	6	Velocidad del viento	3.2
145902	7	Sololá	713	San Lucas Tolimán	10	San Lucas Tolimán	9	Septiembre	2023-06-09T00:00:00	2024-11-08T07:00:00	7	Dirección del viento	3.22
145903	7	Sololá	713	San Lucas Tolimán	10	San Lucas Tolimán	9	Septiembre	2023-06-09T00:00:00	2024-11-08T07:00:00	1	Precipitación	0
145904	7	Sololá	713	San Lucas Tolimán	10	San Lucas Tolimán	9	Septiembre	2023-06-09T00:00:00	2024-11-08T07:00:00	8	Radiación solar	45
145905	7	Sololá	713	San Lucas Tolimán	10	San Lucas Tolimán	9	Septiembre	2023-06-09T00:00:00	2024-11-08T08:00:00	2	Temperatura media	19.4
145906	7	Sololá	713	San Lucas Tolimán	10	San Lucas Tolimán	9	Septiembre	2023-06-09T00:00:00	2024-11-08T08:00:00	4	Temperatura máxima	19.4
145907	7	Sololá	713	San Lucas Tolimán	10	San Lucas Tolimán	9	Septiembre	2023-06-09T00:00:00	2024-11-08T08:00:00	3	Temperatura mínima	17
145908	7	Sololá	713	San Lucas Tolimán	10	San Lucas Tolimán	9	Septiembre	2023-06-09T00:00:00	2024-11-08T08:00:00	5	Humedad	59
145909	7	Sololá	713	San Lucas Tolimán	10	San Lucas Tolimán	9	Septiembre	2023-06-09T00:00:00	2024-11-08T08:00:00	6	Velocidad del viento	1.6
145910	7	Sololá	713	San Lucas Tolimán	10	San Lucas Tolimán	9	Septiembre	2023-06-09T00:00:00	2024-11-08T08:00:00	7	Dirección del viento	1.61
145911	7	Sololá	713	San Lucas Tolimán	10	San Lucas Tolimán	9	Septiembre	2023-06-09T00:00:00	2024-11-08T08:00:00	1	Precipitación	0
145912	7	Sololá	713	San Lucas Tolimán	10	San Lucas Tolimán	9	Septiembre	2023-06-09T00:00:00	2024-11-08T08:00:00	8	Radiación solar	190
145913	7	Sololá	713	San Lucas Tolimán	10	San Lucas Tolimán	9	Septiembre	2023-06-09T00:00:00	2024-11-08T09:00:00	2	Temperatura media	21.6
145914	7	Sololá	713	San Lucas Tolimán	10	San Lucas Tolimán	9	Septiembre	2023-06-09T00:00:00	2024-11-08T09:00:00	4	Temperatura máxima	21.8
145915	7	Sololá	713	San Lucas Tolimán	10	San Lucas Tolimán	9	Septiembre	2023-06-09T00:00:00	2024-11-08T09:00:00	3	Temperatura mínima	19.4
145916	7	Sololá	713	San Lucas Tolimán	10	San Lucas Tolimán	9	Septiembre	2023-06-09T00:00:00	2024-11-08T09:00:00	5	Humedad	57
145917	7	Sololá	713	San Lucas Tolimán	10	San Lucas Tolimán	9	Septiembre	2023-06-09T00:00:00	2024-11-08T09:00:00	6	Velocidad del viento	1.6
145918	7	Sololá	713	San Lucas Tolimán	10	San Lucas Tolimán	9	Septiembre	2023-06-09T00:00:00	2024-11-08T09:00:00	7	Dirección del viento	1.61
145919	7	Sololá	713	San Lucas Tolimán	10	San Lucas Tolimán	9	Septiembre	2023-06-09T00:00:00	2024-11-08T09:00:00	1	Precipitación	0
145920	7	Sololá	713	San Lucas Tolimán	10	San Lucas Tolimán	9	Septiembre	2023-06-09T00:00:00	2024-11-08T09:00:00	8	Radiación solar	298
145921	7	Sololá	713	San Lucas Tolimán	10	San Lucas Tolimán	9	Septiembre	2023-06-09T00:00:00	2024-11-08T10:00:00	2	Temperatura media	21.3
145922	7	Sololá	713	San Lucas Tolimán	10	San Lucas Tolimán	9	Septiembre	2023-06-09T00:00:00	2024-11-08T10:00:00	4	Temperatura máxima	22.3
145923	7	Sololá	713	San Lucas Tolimán	10	San Lucas Tolimán	9	Septiembre	2023-06-09T00:00:00	2024-11-08T10:00:00	3	Temperatura mínima	20.9
145924	7	Sololá	713	San Lucas Tolimán	10	San Lucas Tolimán	9	Septiembre	2023-06-09T00:00:00	2024-11-08T10:00:00	5	Humedad	62
145925	7	Sololá	713	San Lucas Tolimán	10	San Lucas Tolimán	9	Septiembre	2023-06-09T00:00:00	2024-11-08T10:00:00	6	Velocidad del viento	6.4
145926	7	Sololá	713	San Lucas Tolimán	10	San Lucas Tolimán	9	Septiembre	2023-06-09T00:00:00	2024-11-08T10:00:00	7	Dirección del viento	6.44
145927	7	Sololá	713	San Lucas Tolimán	10	San Lucas Tolimán	9	Septiembre	2023-06-09T00:00:00	2024-11-08T10:00:00	1	Precipitación	0
145928	7	Sololá	713	San Lucas Tolimán	10	San Lucas Tolimán	9	Septiembre	2023-06-09T00:00:00	2024-11-08T10:00:00	8	Radiación solar	443
145929	7	Sololá	713	San Lucas Tolimán	10	San Lucas Tolimán	9	Septiembre	2023-06-09T00:00:00	2024-11-08T11:00:00	2	Temperatura media	22.8
145930	7	Sololá	713	San Lucas Tolimán	10	San Lucas Tolimán	9	Septiembre	2023-06-09T00:00:00	2024-11-08T11:00:00	4	Temperatura máxima	25.1
145931	7	Sololá	713	San Lucas Tolimán	10	San Lucas Tolimán	9	Septiembre	2023-06-09T00:00:00	2024-11-08T11:00:00	3	Temperatura mínima	-67.8
145932	7	Sololá	713	San Lucas Tolimán	10	San Lucas Tolimán	9	Septiembre	2023-06-09T00:00:00	2024-11-08T11:00:00	5	Humedad	53
145933	7	Sololá	713	San Lucas Tolimán	10	San Lucas Tolimán	9	Septiembre	2023-06-09T00:00:00	2024-11-08T11:00:00	6	Velocidad del viento	3.2
145934	7	Sololá	713	San Lucas Tolimán	10	San Lucas Tolimán	9	Septiembre	2023-06-09T00:00:00	2024-11-08T11:00:00	7	Dirección del viento	3.22
145935	7	Sololá	713	San Lucas Tolimán	10	San Lucas Tolimán	9	Septiembre	2023-06-09T00:00:00	2024-11-08T11:00:00	1	Precipitación	0.2
145936	7	Sololá	713	San Lucas Tolimán	10	San Lucas Tolimán	9	Septiembre	2023-06-09T00:00:00	2024-11-08T11:00:00	8	Radiación solar	534
145937	7	Sololá	713	San Lucas Tolimán	10	San Lucas Tolimán	9	Septiembre	2023-06-09T00:00:00	2024-11-08T12:00:00	2	Temperatura media	24.2
145938	7	Sololá	713	San Lucas Tolimán	10	San Lucas Tolimán	9	Septiembre	2023-06-09T00:00:00	2024-11-08T12:00:00	4	Temperatura máxima	24.3
145939	7	Sololá	713	San Lucas Tolimán	10	San Lucas Tolimán	9	Septiembre	2023-06-09T00:00:00	2024-11-08T12:00:00	3	Temperatura mínima	22.6
145940	7	Sololá	713	San Lucas Tolimán	10	San Lucas Tolimán	9	Septiembre	2023-06-09T00:00:00	2024-11-08T12:00:00	5	Humedad	52
145941	7	Sololá	713	San Lucas Tolimán	10	San Lucas Tolimán	9	Septiembre	2023-06-09T00:00:00	2024-11-08T12:00:00	6	Velocidad del viento	6.4
145942	7	Sololá	713	San Lucas Tolimán	10	San Lucas Tolimán	9	Septiembre	2023-06-09T00:00:00	2024-11-08T12:00:00	7	Dirección del viento	6.44
145943	7	Sololá	713	San Lucas Tolimán	10	San Lucas Tolimán	9	Septiembre	2023-06-09T00:00:00	2024-11-08T12:00:00	1	Precipitación	0
145944	7	Sololá	713	San Lucas Tolimán	10	San Lucas Tolimán	9	Septiembre	2023-06-09T00:00:00	2024-11-08T12:00:00	8	Radiación solar	810
145945	7	Sololá	713	San Lucas Tolimán	10	San Lucas Tolimán	9	Septiembre	2023-06-09T00:00:00	2024-11-08T13:00:00	2	Temperatura media	23.7
145946	7	Sololá	713	San Lucas Tolimán	10	San Lucas Tolimán	9	Septiembre	2023-06-09T00:00:00	2024-11-08T13:00:00	4	Temperatura máxima	24.6
145947	7	Sololá	713	San Lucas Tolimán	10	San Lucas Tolimán	9	Septiembre	2023-06-09T00:00:00	2024-11-08T13:00:00	3	Temperatura mínima	23.6
145948	7	Sololá	713	San Lucas Tolimán	10	San Lucas Tolimán	9	Septiembre	2023-06-09T00:00:00	2024-11-08T13:00:00	5	Humedad	57
145949	7	Sololá	713	San Lucas Tolimán	10	San Lucas Tolimán	9	Septiembre	2023-06-09T00:00:00	2024-11-08T13:00:00	6	Velocidad del viento	9.7
145950	7	Sololá	713	San Lucas Tolimán	10	San Lucas Tolimán	9	Septiembre	2023-06-09T00:00:00	2024-11-08T13:00:00	7	Dirección del viento	9.66
145951	7	Sololá	713	San Lucas Tolimán	10	San Lucas Tolimán	9	Septiembre	2023-06-09T00:00:00	2024-11-08T13:00:00	1	Precipitación	0
145952	7	Sololá	713	San Lucas Tolimán	10	San Lucas Tolimán	9	Septiembre	2023-06-09T00:00:00	2024-11-08T13:00:00	8	Radiación solar	861
145953	7	Sololá	713	San Lucas Tolimán	10	San Lucas Tolimán	9	Septiembre	2023-06-09T00:00:00	2024-11-08T14:00:00	2	Temperatura media	23
145954	7	Sololá	713	San Lucas Tolimán	10	San Lucas Tolimán	9	Septiembre	2023-06-09T00:00:00	2024-11-08T14:00:00	4	Temperatura máxima	24
145955	7	Sololá	713	San Lucas Tolimán	10	San Lucas Tolimán	9	Septiembre	2023-06-09T00:00:00	2024-11-08T14:00:00	3	Temperatura mínima	22.7
145956	7	Sololá	713	San Lucas Tolimán	10	San Lucas Tolimán	9	Septiembre	2023-06-09T00:00:00	2024-11-08T14:00:00	5	Humedad	59
145957	7	Sololá	713	San Lucas Tolimán	10	San Lucas Tolimán	9	Septiembre	2023-06-09T00:00:00	2024-11-08T14:00:00	6	Velocidad del viento	9.7
145958	7	Sololá	713	San Lucas Tolimán	10	San Lucas Tolimán	9	Septiembre	2023-06-09T00:00:00	2024-11-08T14:00:00	7	Dirección del viento	9.66
145959	7	Sololá	713	San Lucas Tolimán	10	San Lucas Tolimán	9	Septiembre	2023-06-09T00:00:00	2024-11-08T14:00:00	1	Precipitación	0
145960	7	Sololá	713	San Lucas Tolimán	10	San Lucas Tolimán	9	Septiembre	2023-06-09T00:00:00	2024-11-08T14:00:00	8	Radiación solar	791
145961	7	Sololá	713	San Lucas Tolimán	10	San Lucas Tolimán	9	Septiembre	2023-06-09T00:00:00	2024-11-08T15:00:00	2	Temperatura media	22.8
145962	7	Sololá	713	San Lucas Tolimán	10	San Lucas Tolimán	9	Septiembre	2023-06-09T00:00:00	2024-11-08T15:00:00	4	Temperatura máxima	23.8
145963	7	Sololá	713	San Lucas Tolimán	10	San Lucas Tolimán	9	Septiembre	2023-06-09T00:00:00	2024-11-08T15:00:00	3	Temperatura mínima	22.6
145964	7	Sololá	713	San Lucas Tolimán	10	San Lucas Tolimán	9	Septiembre	2023-06-09T00:00:00	2024-11-08T15:00:00	5	Humedad	58
145965	7	Sololá	713	San Lucas Tolimán	10	San Lucas Tolimán	9	Septiembre	2023-06-09T00:00:00	2024-11-08T15:00:00	6	Velocidad del viento	9.7
145966	7	Sololá	713	San Lucas Tolimán	10	San Lucas Tolimán	9	Septiembre	2023-06-09T00:00:00	2024-11-08T15:00:00	7	Dirección del viento	9.66
145967	7	Sololá	713	San Lucas Tolimán	10	San Lucas Tolimán	9	Septiembre	2023-06-09T00:00:00	2024-11-08T15:00:00	1	Precipitación	0
145968	7	Sololá	713	San Lucas Tolimán	10	San Lucas Tolimán	9	Septiembre	2023-06-09T00:00:00	2024-11-08T15:00:00	8	Radiación solar	638
145969	7	Sololá	713	San Lucas Tolimán	10	San Lucas Tolimán	9	Septiembre	2023-06-09T00:00:00	2024-11-08T16:00:00	2	Temperatura media	22.3
145970	7	Sololá	713	San Lucas Tolimán	10	San Lucas Tolimán	9	Septiembre	2023-06-09T00:00:00	2024-11-08T16:00:00	4	Temperatura máxima	23.6
145971	7	Sololá	713	San Lucas Tolimán	10	San Lucas Tolimán	9	Septiembre	2023-06-09T00:00:00	2024-11-08T16:00:00	3	Temperatura mínima	22.2
145972	7	Sololá	713	San Lucas Tolimán	10	San Lucas Tolimán	9	Septiembre	2023-06-09T00:00:00	2024-11-08T16:00:00	5	Humedad	59
145973	7	Sololá	713	San Lucas Tolimán	10	San Lucas Tolimán	9	Septiembre	2023-06-09T00:00:00	2024-11-08T16:00:00	6	Velocidad del viento	9.7
145974	7	Sololá	713	San Lucas Tolimán	10	San Lucas Tolimán	9	Septiembre	2023-06-09T00:00:00	2024-11-08T16:00:00	7	Dirección del viento	9.66
145975	7	Sololá	713	San Lucas Tolimán	10	San Lucas Tolimán	9	Septiembre	2023-06-09T00:00:00	2024-11-08T16:00:00	1	Precipitación	0
145976	7	Sololá	713	San Lucas Tolimán	10	San Lucas Tolimán	9	Septiembre	2023-06-09T00:00:00	2024-11-08T16:00:00	8	Radiación solar	463
145977	7	Sololá	713	San Lucas Tolimán	10	San Lucas Tolimán	9	Septiembre	2023-06-09T00:00:00	2024-11-08T17:00:00	2	Temperatura media	20.9
145978	7	Sololá	713	San Lucas Tolimán	10	San Lucas Tolimán	9	Septiembre	2023-06-09T00:00:00	2024-11-08T17:00:00	4	Temperatura máxima	22.6
145979	7	Sololá	713	San Lucas Tolimán	10	San Lucas Tolimán	9	Septiembre	2023-06-09T00:00:00	2024-11-08T17:00:00	3	Temperatura mínima	20.9
145980	7	Sololá	713	San Lucas Tolimán	10	San Lucas Tolimán	9	Septiembre	2023-06-09T00:00:00	2024-11-08T17:00:00	5	Humedad	61
145981	7	Sololá	713	San Lucas Tolimán	10	San Lucas Tolimán	9	Septiembre	2023-06-09T00:00:00	2024-11-08T17:00:00	6	Velocidad del viento	9.7
145982	7	Sololá	713	San Lucas Tolimán	10	San Lucas Tolimán	9	Septiembre	2023-06-09T00:00:00	2024-11-08T17:00:00	7	Dirección del viento	9.66
145983	7	Sololá	713	San Lucas Tolimán	10	San Lucas Tolimán	9	Septiembre	2023-06-09T00:00:00	2024-11-08T17:00:00	1	Precipitación	1.8
145984	7	Sololá	713	San Lucas Tolimán	10	San Lucas Tolimán	9	Septiembre	2023-06-09T00:00:00	2024-11-08T17:00:00	8	Radiación solar	259
145985	7	Sololá	713	San Lucas Tolimán	10	San Lucas Tolimán	9	Septiembre	2023-06-09T00:00:00	2024-11-08T18:00:00	2	Temperatura media	19.3
145986	7	Sololá	713	San Lucas Tolimán	10	San Lucas Tolimán	9	Septiembre	2023-06-09T00:00:00	2024-11-08T18:00:00	4	Temperatura máxima	20.9
145987	7	Sololá	713	San Lucas Tolimán	10	San Lucas Tolimán	9	Septiembre	2023-06-09T00:00:00	2024-11-08T18:00:00	3	Temperatura mínima	19.3
145988	7	Sololá	713	San Lucas Tolimán	10	San Lucas Tolimán	9	Septiembre	2023-06-09T00:00:00	2024-11-08T18:00:00	5	Humedad	60
145989	7	Sololá	713	San Lucas Tolimán	10	San Lucas Tolimán	9	Septiembre	2023-06-09T00:00:00	2024-11-08T18:00:00	6	Velocidad del viento	4.8
145990	7	Sololá	713	San Lucas Tolimán	10	San Lucas Tolimán	9	Septiembre	2023-06-09T00:00:00	2024-11-08T18:00:00	7	Dirección del viento	4.83
145991	7	Sololá	713	San Lucas Tolimán	10	San Lucas Tolimán	9	Septiembre	2023-06-09T00:00:00	2024-11-08T18:00:00	1	Precipitación	1.6
145992	7	Sololá	713	San Lucas Tolimán	10	San Lucas Tolimán	9	Septiembre	2023-06-09T00:00:00	2024-11-08T18:00:00	8	Radiación solar	54
145993	7	Sololá	713	San Lucas Tolimán	10	San Lucas Tolimán	9	Septiembre	2023-06-09T00:00:00	2024-11-08T19:00:00	2	Temperatura media	18.7
145994	7	Sololá	713	San Lucas Tolimán	10	San Lucas Tolimán	9	Septiembre	2023-06-09T00:00:00	2024-11-08T19:00:00	4	Temperatura máxima	19.3
145995	7	Sololá	713	San Lucas Tolimán	10	San Lucas Tolimán	9	Septiembre	2023-06-09T00:00:00	2024-11-08T19:00:00	3	Temperatura mínima	18.7
145996	7	Sololá	713	San Lucas Tolimán	10	San Lucas Tolimán	9	Septiembre	2023-06-09T00:00:00	2024-11-08T19:00:00	5	Humedad	61
145997	7	Sololá	713	San Lucas Tolimán	10	San Lucas Tolimán	9	Septiembre	2023-06-09T00:00:00	2024-11-08T19:00:00	6	Velocidad del viento	6.4
145998	7	Sololá	713	San Lucas Tolimán	10	San Lucas Tolimán	9	Septiembre	2023-06-09T00:00:00	2024-11-08T19:00:00	7	Dirección del viento	6.44
145999	7	Sololá	713	San Lucas Tolimán	10	San Lucas Tolimán	9	Septiembre	2023-06-09T00:00:00	2024-11-08T19:00:00	1	Precipitación	0
146000	7	Sololá	713	San Lucas Tolimán	10	San Lucas Tolimán	9	Septiembre	2023-06-09T00:00:00	2024-11-08T19:00:00	8	Radiación solar	0
146001	7	Sololá	713	San Lucas Tolimán	10	San Lucas Tolimán	9	Septiembre	2023-06-09T00:00:00	2024-11-08T20:00:00	2	Temperatura media	18.5
146002	7	Sololá	713	San Lucas Tolimán	10	San Lucas Tolimán	9	Septiembre	2023-06-09T00:00:00	2024-11-08T20:00:00	4	Temperatura máxima	18.7
146003	7	Sololá	713	San Lucas Tolimán	10	San Lucas Tolimán	9	Septiembre	2023-06-09T00:00:00	2024-11-08T20:00:00	3	Temperatura mínima	18.4
146004	7	Sololá	713	San Lucas Tolimán	10	San Lucas Tolimán	9	Septiembre	2023-06-09T00:00:00	2024-11-08T20:00:00	5	Humedad	63
146005	7	Sololá	713	San Lucas Tolimán	10	San Lucas Tolimán	9	Septiembre	2023-06-09T00:00:00	2024-11-08T20:00:00	6	Velocidad del viento	3.2
146006	7	Sololá	713	San Lucas Tolimán	10	San Lucas Tolimán	9	Septiembre	2023-06-09T00:00:00	2024-11-08T20:00:00	7	Dirección del viento	3.22
146007	7	Sololá	713	San Lucas Tolimán	10	San Lucas Tolimán	9	Septiembre	2023-06-09T00:00:00	2024-11-08T20:00:00	1	Precipitación	0
146008	7	Sololá	713	San Lucas Tolimán	10	San Lucas Tolimán	9	Septiembre	2023-06-09T00:00:00	2024-11-08T20:00:00	8	Radiación solar	0
146009	7	Sololá	713	San Lucas Tolimán	10	San Lucas Tolimán	9	Septiembre	2023-06-09T00:00:00	2024-11-08T21:00:00	2	Temperatura media	17.8
146010	7	Sololá	713	San Lucas Tolimán	10	San Lucas Tolimán	9	Septiembre	2023-06-09T00:00:00	2024-11-08T21:00:00	4	Temperatura máxima	18.5
146011	7	Sololá	713	San Lucas Tolimán	10	San Lucas Tolimán	9	Septiembre	2023-06-09T00:00:00	2024-11-08T21:00:00	3	Temperatura mínima	17.8
146012	7	Sololá	713	San Lucas Tolimán	10	San Lucas Tolimán	9	Septiembre	2023-06-09T00:00:00	2024-11-08T21:00:00	5	Humedad	63
146013	7	Sololá	713	San Lucas Tolimán	10	San Lucas Tolimán	9	Septiembre	2023-06-09T00:00:00	2024-11-08T21:00:00	6	Velocidad del viento	3.2
146014	7	Sololá	713	San Lucas Tolimán	10	San Lucas Tolimán	9	Septiembre	2023-06-09T00:00:00	2024-11-08T21:00:00	7	Dirección del viento	3.22
146015	7	Sololá	713	San Lucas Tolimán	10	San Lucas Tolimán	9	Septiembre	2023-06-09T00:00:00	2024-11-08T21:00:00	1	Precipitación	0
146016	7	Sololá	713	San Lucas Tolimán	10	San Lucas Tolimán	9	Septiembre	2023-06-09T00:00:00	2024-11-08T21:00:00	8	Radiación solar	0
146017	7	Sololá	713	San Lucas Tolimán	10	San Lucas Tolimán	9	Septiembre	2023-06-09T00:00:00	2024-11-08T22:00:00	2	Temperatura media	17.8
146018	7	Sololá	713	San Lucas Tolimán	10	San Lucas Tolimán	9	Septiembre	2023-06-09T00:00:00	2024-11-08T22:00:00	4	Temperatura máxima	17.8
146019	7	Sololá	713	San Lucas Tolimán	10	San Lucas Tolimán	9	Septiembre	2023-06-09T00:00:00	2024-11-08T22:00:00	3	Temperatura mínima	17.7
146020	7	Sololá	713	San Lucas Tolimán	10	San Lucas Tolimán	9	Septiembre	2023-06-09T00:00:00	2024-11-08T22:00:00	5	Humedad	60
146021	7	Sololá	713	San Lucas Tolimán	10	San Lucas Tolimán	9	Septiembre	2023-06-09T00:00:00	2024-11-08T22:00:00	6	Velocidad del viento	1.6
146022	7	Sololá	713	San Lucas Tolimán	10	San Lucas Tolimán	9	Septiembre	2023-06-09T00:00:00	2024-11-08T22:00:00	7	Dirección del viento	1.61
146023	7	Sololá	713	San Lucas Tolimán	10	San Lucas Tolimán	9	Septiembre	2023-06-09T00:00:00	2024-11-08T22:00:00	1	Precipitación	0
146024	7	Sololá	713	San Lucas Tolimán	10	San Lucas Tolimán	9	Septiembre	2023-06-09T00:00:00	2024-11-08T22:00:00	8	Radiación solar	0
146025	7	Sololá	713	San Lucas Tolimán	10	San Lucas Tolimán	9	Septiembre	2023-06-09T00:00:00	2024-11-08T23:00:00	2	Temperatura media	18.2
146026	7	Sololá	713	San Lucas Tolimán	10	San Lucas Tolimán	9	Septiembre	2023-06-09T00:00:00	2024-11-08T23:00:00	4	Temperatura máxima	19.3
146027	7	Sololá	713	San Lucas Tolimán	10	San Lucas Tolimán	9	Septiembre	2023-06-09T00:00:00	2024-11-08T23:00:00	3	Temperatura mínima	17.7
146028	7	Sololá	713	San Lucas Tolimán	10	San Lucas Tolimán	9	Septiembre	2023-06-09T00:00:00	2024-11-08T23:00:00	5	Humedad	59
146029	7	Sololá	713	San Lucas Tolimán	10	San Lucas Tolimán	9	Septiembre	2023-06-09T00:00:00	2024-11-08T23:00:00	6	Velocidad del viento	3.2
146030	7	Sololá	713	San Lucas Tolimán	10	San Lucas Tolimán	9	Septiembre	2023-06-09T00:00:00	2024-11-08T23:00:00	7	Dirección del viento	3.22
146031	7	Sololá	713	San Lucas Tolimán	10	San Lucas Tolimán	9	Septiembre	2023-06-09T00:00:00	2024-11-08T23:00:00	1	Precipitación	0
146032	7	Sololá	713	San Lucas Tolimán	10	San Lucas Tolimán	9	Septiembre	2023-06-09T00:00:00	2024-11-08T23:00:00	8	Radiación solar	0
146033	7	Sololá	713	San Lucas Tolimán	10	San Lucas Tolimán	9	Septiembre	2023-07-09T00:00:00	2024-11-08T00:00:00	2	Temperatura media	18.3
146034	7	Sololá	713	San Lucas Tolimán	10	San Lucas Tolimán	9	Septiembre	2023-07-09T00:00:00	2024-11-08T00:00:00	4	Temperatura máxima	18.5
146035	7	Sololá	713	San Lucas Tolimán	10	San Lucas Tolimán	9	Septiembre	2023-07-09T00:00:00	2024-11-08T00:00:00	3	Temperatura mínima	18.1
146036	7	Sololá	713	San Lucas Tolimán	10	San Lucas Tolimán	9	Septiembre	2023-07-09T00:00:00	2024-11-08T00:00:00	5	Humedad	59
146037	7	Sololá	713	San Lucas Tolimán	10	San Lucas Tolimán	9	Septiembre	2023-07-09T00:00:00	2024-11-08T00:00:00	6	Velocidad del viento	3.2
146038	7	Sololá	713	San Lucas Tolimán	10	San Lucas Tolimán	9	Septiembre	2023-07-09T00:00:00	2024-11-08T00:00:00	7	Dirección del viento	3.22
146039	7	Sololá	713	San Lucas Tolimán	10	San Lucas Tolimán	9	Septiembre	2023-07-09T00:00:00	2024-11-08T00:00:00	1	Precipitación	0
146040	7	Sololá	713	San Lucas Tolimán	10	San Lucas Tolimán	9	Septiembre	2023-07-09T00:00:00	2024-11-08T00:00:00	8	Radiación solar	0
146041	7	Sololá	713	San Lucas Tolimán	10	San Lucas Tolimán	9	Septiembre	2023-07-09T00:00:00	2024-11-08T01:00:00	2	Temperatura media	17.2
146042	7	Sololá	713	San Lucas Tolimán	10	San Lucas Tolimán	9	Septiembre	2023-07-09T00:00:00	2024-11-08T01:00:00	4	Temperatura máxima	18.4
146043	7	Sololá	713	San Lucas Tolimán	10	San Lucas Tolimán	9	Septiembre	2023-07-09T00:00:00	2024-11-08T01:00:00	3	Temperatura mínima	17.2
146044	7	Sololá	713	San Lucas Tolimán	10	San Lucas Tolimán	9	Septiembre	2023-07-09T00:00:00	2024-11-08T01:00:00	5	Humedad	61
146045	7	Sololá	713	San Lucas Tolimán	10	San Lucas Tolimán	9	Septiembre	2023-07-09T00:00:00	2024-11-08T01:00:00	6	Velocidad del viento	3.2
146046	7	Sololá	713	San Lucas Tolimán	10	San Lucas Tolimán	9	Septiembre	2023-07-09T00:00:00	2024-11-08T01:00:00	7	Dirección del viento	3.22
146047	7	Sololá	713	San Lucas Tolimán	10	San Lucas Tolimán	9	Septiembre	2023-07-09T00:00:00	2024-11-08T01:00:00	1	Precipitación	0
146048	7	Sololá	713	San Lucas Tolimán	10	San Lucas Tolimán	9	Septiembre	2023-07-09T00:00:00	2024-11-08T01:00:00	8	Radiación solar	0
146049	7	Sololá	713	San Lucas Tolimán	10	San Lucas Tolimán	9	Septiembre	2023-07-09T00:00:00	2024-11-08T02:00:00	2	Temperatura media	17
146050	7	Sololá	713	San Lucas Tolimán	10	San Lucas Tolimán	9	Septiembre	2023-07-09T00:00:00	2024-11-08T02:00:00	4	Temperatura máxima	17.3
146051	7	Sololá	713	San Lucas Tolimán	10	San Lucas Tolimán	9	Septiembre	2023-07-09T00:00:00	2024-11-08T02:00:00	3	Temperatura mínima	16.9
146052	7	Sololá	713	San Lucas Tolimán	10	San Lucas Tolimán	9	Septiembre	2023-07-09T00:00:00	2024-11-08T02:00:00	5	Humedad	62
146053	7	Sololá	713	San Lucas Tolimán	10	San Lucas Tolimán	9	Septiembre	2023-07-09T00:00:00	2024-11-08T02:00:00	6	Velocidad del viento	1.6
146054	7	Sololá	713	San Lucas Tolimán	10	San Lucas Tolimán	9	Septiembre	2023-07-09T00:00:00	2024-11-08T02:00:00	7	Dirección del viento	1.61
146055	7	Sololá	713	San Lucas Tolimán	10	San Lucas Tolimán	9	Septiembre	2023-07-09T00:00:00	2024-11-08T02:00:00	1	Precipitación	0
146056	7	Sololá	713	San Lucas Tolimán	10	San Lucas Tolimán	9	Septiembre	2023-07-09T00:00:00	2024-11-08T02:00:00	8	Radiación solar	0
146057	7	Sololá	713	San Lucas Tolimán	10	San Lucas Tolimán	9	Septiembre	2023-07-09T00:00:00	2024-11-08T03:00:00	2	Temperatura media	17.6
146058	7	Sololá	713	San Lucas Tolimán	10	San Lucas Tolimán	9	Septiembre	2023-07-09T00:00:00	2024-11-08T03:00:00	4	Temperatura máxima	17.6
146059	7	Sololá	713	San Lucas Tolimán	10	San Lucas Tolimán	9	Septiembre	2023-07-09T00:00:00	2024-11-08T03:00:00	3	Temperatura mínima	17
146060	7	Sololá	713	San Lucas Tolimán	10	San Lucas Tolimán	9	Septiembre	2023-07-09T00:00:00	2024-11-08T03:00:00	5	Humedad	60
146061	7	Sololá	713	San Lucas Tolimán	10	San Lucas Tolimán	9	Septiembre	2023-07-09T00:00:00	2024-11-08T03:00:00	6	Velocidad del viento	1.6
146062	7	Sololá	713	San Lucas Tolimán	10	San Lucas Tolimán	9	Septiembre	2023-07-09T00:00:00	2024-11-08T03:00:00	7	Dirección del viento	1.61
146063	7	Sololá	713	San Lucas Tolimán	10	San Lucas Tolimán	9	Septiembre	2023-07-09T00:00:00	2024-11-08T03:00:00	1	Precipitación	0
146064	7	Sololá	713	San Lucas Tolimán	10	San Lucas Tolimán	9	Septiembre	2023-07-09T00:00:00	2024-11-08T03:00:00	8	Radiación solar	0
146065	7	Sololá	713	San Lucas Tolimán	10	San Lucas Tolimán	9	Septiembre	2023-07-09T00:00:00	2024-11-08T04:00:00	2	Temperatura media	16.9
146066	7	Sololá	713	San Lucas Tolimán	10	San Lucas Tolimán	9	Septiembre	2023-07-09T00:00:00	2024-11-08T04:00:00	4	Temperatura máxima	17.7
146067	7	Sololá	713	San Lucas Tolimán	10	San Lucas Tolimán	9	Septiembre	2023-07-09T00:00:00	2024-11-08T04:00:00	3	Temperatura mínima	16.9
146068	7	Sololá	713	San Lucas Tolimán	10	San Lucas Tolimán	9	Septiembre	2023-07-09T00:00:00	2024-11-08T04:00:00	5	Humedad	61
146069	7	Sololá	713	San Lucas Tolimán	10	San Lucas Tolimán	9	Septiembre	2023-07-09T00:00:00	2024-11-08T04:00:00	6	Velocidad del viento	1.6
146070	7	Sololá	713	San Lucas Tolimán	10	San Lucas Tolimán	9	Septiembre	2023-07-09T00:00:00	2024-11-08T04:00:00	7	Dirección del viento	1.61
146071	7	Sololá	713	San Lucas Tolimán	10	San Lucas Tolimán	9	Septiembre	2023-07-09T00:00:00	2024-11-08T04:00:00	1	Precipitación	0
146072	7	Sololá	713	San Lucas Tolimán	10	San Lucas Tolimán	9	Septiembre	2023-07-09T00:00:00	2024-11-08T04:00:00	8	Radiación solar	0
146073	7	Sololá	713	San Lucas Tolimán	10	San Lucas Tolimán	9	Septiembre	2023-07-09T00:00:00	2024-11-08T05:00:00	2	Temperatura media	17.3
146074	7	Sololá	713	San Lucas Tolimán	10	San Lucas Tolimán	9	Septiembre	2023-07-09T00:00:00	2024-11-08T05:00:00	4	Temperatura máxima	17.3
146075	7	Sololá	713	San Lucas Tolimán	10	San Lucas Tolimán	9	Septiembre	2023-07-09T00:00:00	2024-11-08T05:00:00	3	Temperatura mínima	16.9
146076	7	Sololá	713	San Lucas Tolimán	10	San Lucas Tolimán	9	Septiembre	2023-07-09T00:00:00	2024-11-08T05:00:00	5	Humedad	61
146077	7	Sololá	713	San Lucas Tolimán	10	San Lucas Tolimán	9	Septiembre	2023-07-09T00:00:00	2024-11-08T05:00:00	6	Velocidad del viento	1.6
146078	7	Sololá	713	San Lucas Tolimán	10	San Lucas Tolimán	9	Septiembre	2023-07-09T00:00:00	2024-11-08T05:00:00	7	Dirección del viento	1.61
146079	7	Sololá	713	San Lucas Tolimán	10	San Lucas Tolimán	9	Septiembre	2023-07-09T00:00:00	2024-11-08T05:00:00	1	Precipitación	0
146080	7	Sololá	713	San Lucas Tolimán	10	San Lucas Tolimán	9	Septiembre	2023-07-09T00:00:00	2024-11-08T05:00:00	8	Radiación solar	0
146081	7	Sololá	713	San Lucas Tolimán	10	San Lucas Tolimán	9	Septiembre	2023-07-09T00:00:00	2024-11-08T06:00:00	2	Temperatura media	17.3
146082	7	Sololá	713	San Lucas Tolimán	10	San Lucas Tolimán	9	Septiembre	2023-07-09T00:00:00	2024-11-08T06:00:00	4	Temperatura máxima	17.7
146083	7	Sololá	713	San Lucas Tolimán	10	San Lucas Tolimán	9	Septiembre	2023-07-09T00:00:00	2024-11-08T06:00:00	3	Temperatura mínima	17.2
146084	7	Sololá	713	San Lucas Tolimán	10	San Lucas Tolimán	9	Septiembre	2023-07-09T00:00:00	2024-11-08T06:00:00	5	Humedad	61
146085	7	Sololá	713	San Lucas Tolimán	10	San Lucas Tolimán	9	Septiembre	2023-07-09T00:00:00	2024-11-08T06:00:00	6	Velocidad del viento	1.6
146086	7	Sololá	713	San Lucas Tolimán	10	San Lucas Tolimán	9	Septiembre	2023-07-09T00:00:00	2024-11-08T06:00:00	7	Dirección del viento	1.61
146087	7	Sololá	713	San Lucas Tolimán	10	San Lucas Tolimán	9	Septiembre	2023-07-09T00:00:00	2024-11-08T06:00:00	1	Precipitación	0
146088	7	Sololá	713	San Lucas Tolimán	10	San Lucas Tolimán	9	Septiembre	2023-07-09T00:00:00	2024-11-08T06:00:00	8	Radiación solar	0
146089	7	Sololá	713	San Lucas Tolimán	10	San Lucas Tolimán	9	Septiembre	2023-07-09T00:00:00	2024-11-08T07:00:00	2	Temperatura media	17.7
146090	7	Sololá	713	San Lucas Tolimán	10	San Lucas Tolimán	9	Septiembre	2023-07-09T00:00:00	2024-11-08T07:00:00	4	Temperatura máxima	17.7
146091	7	Sololá	713	San Lucas Tolimán	10	San Lucas Tolimán	9	Septiembre	2023-07-09T00:00:00	2024-11-08T07:00:00	3	Temperatura mínima	17.1
146092	7	Sololá	713	San Lucas Tolimán	10	San Lucas Tolimán	9	Septiembre	2023-07-09T00:00:00	2024-11-08T07:00:00	5	Humedad	60
146093	7	Sololá	713	San Lucas Tolimán	10	San Lucas Tolimán	9	Septiembre	2023-07-09T00:00:00	2024-11-08T07:00:00	6	Velocidad del viento	1.6
146094	7	Sololá	713	San Lucas Tolimán	10	San Lucas Tolimán	9	Septiembre	2023-07-09T00:00:00	2024-11-08T07:00:00	7	Dirección del viento	1.61
146095	7	Sololá	713	San Lucas Tolimán	10	San Lucas Tolimán	9	Septiembre	2023-07-09T00:00:00	2024-11-08T07:00:00	1	Precipitación	0
146096	7	Sololá	713	San Lucas Tolimán	10	San Lucas Tolimán	9	Septiembre	2023-07-09T00:00:00	2024-11-08T07:00:00	8	Radiación solar	39
146097	7	Sololá	713	San Lucas Tolimán	10	San Lucas Tolimán	9	Septiembre	2023-07-09T00:00:00	2024-11-08T08:00:00	2	Temperatura media	21.3
146098	7	Sololá	713	San Lucas Tolimán	10	San Lucas Tolimán	9	Septiembre	2023-07-09T00:00:00	2024-11-08T08:00:00	4	Temperatura máxima	21.3
146099	7	Sololá	713	San Lucas Tolimán	10	San Lucas Tolimán	9	Septiembre	2023-07-09T00:00:00	2024-11-08T08:00:00	3	Temperatura mínima	17.7
146100	7	Sololá	713	San Lucas Tolimán	10	San Lucas Tolimán	9	Septiembre	2023-07-09T00:00:00	2024-11-08T08:00:00	5	Humedad	56
146101	7	Sololá	713	San Lucas Tolimán	10	San Lucas Tolimán	9	Septiembre	2023-07-09T00:00:00	2024-11-08T08:00:00	6	Velocidad del viento	1.6
146102	7	Sololá	713	San Lucas Tolimán	10	San Lucas Tolimán	9	Septiembre	2023-07-09T00:00:00	2024-11-08T08:00:00	7	Dirección del viento	1.61
146103	7	Sololá	713	San Lucas Tolimán	10	San Lucas Tolimán	9	Septiembre	2023-07-09T00:00:00	2024-11-08T08:00:00	1	Precipitación	0
146104	7	Sololá	713	San Lucas Tolimán	10	San Lucas Tolimán	9	Septiembre	2023-07-09T00:00:00	2024-11-08T08:00:00	8	Radiación solar	234
146105	7	Sololá	713	San Lucas Tolimán	10	San Lucas Tolimán	9	Septiembre	2023-07-09T00:00:00	2024-11-08T09:00:00	2	Temperatura media	22.2
146106	7	Sololá	713	San Lucas Tolimán	10	San Lucas Tolimán	9	Septiembre	2023-07-09T00:00:00	2024-11-08T09:00:00	4	Temperatura máxima	22.4
146107	7	Sololá	713	San Lucas Tolimán	10	San Lucas Tolimán	9	Septiembre	2023-07-09T00:00:00	2024-11-08T09:00:00	3	Temperatura mínima	21.3
146108	7	Sololá	713	San Lucas Tolimán	10	San Lucas Tolimán	9	Septiembre	2023-07-09T00:00:00	2024-11-08T09:00:00	5	Humedad	59
146109	7	Sololá	713	San Lucas Tolimán	10	San Lucas Tolimán	9	Septiembre	2023-07-09T00:00:00	2024-11-08T09:00:00	6	Velocidad del viento	3.2
146110	7	Sololá	713	San Lucas Tolimán	10	San Lucas Tolimán	9	Septiembre	2023-07-09T00:00:00	2024-11-08T09:00:00	7	Dirección del viento	3.22
146111	7	Sololá	713	San Lucas Tolimán	10	San Lucas Tolimán	9	Septiembre	2023-07-09T00:00:00	2024-11-08T09:00:00	1	Precipitación	0
146112	7	Sololá	713	San Lucas Tolimán	10	San Lucas Tolimán	9	Septiembre	2023-07-09T00:00:00	2024-11-08T09:00:00	8	Radiación solar	466
146113	7	Sololá	713	San Lucas Tolimán	10	San Lucas Tolimán	9	Septiembre	2023-07-09T00:00:00	2024-11-08T10:00:00	2	Temperatura media	23.3
146114	7	Sololá	713	San Lucas Tolimán	10	San Lucas Tolimán	9	Septiembre	2023-07-09T00:00:00	2024-11-08T10:00:00	4	Temperatura máxima	23.4
146115	7	Sololá	713	San Lucas Tolimán	10	San Lucas Tolimán	9	Septiembre	2023-07-09T00:00:00	2024-11-08T10:00:00	3	Temperatura mínima	22.2
146116	7	Sololá	713	San Lucas Tolimán	10	San Lucas Tolimán	9	Septiembre	2023-07-09T00:00:00	2024-11-08T10:00:00	5	Humedad	55
146117	7	Sololá	713	San Lucas Tolimán	10	San Lucas Tolimán	9	Septiembre	2023-07-09T00:00:00	2024-11-08T10:00:00	6	Velocidad del viento	6.4
146118	7	Sololá	713	San Lucas Tolimán	10	San Lucas Tolimán	9	Septiembre	2023-07-09T00:00:00	2024-11-08T10:00:00	7	Dirección del viento	6.44
146119	7	Sololá	713	San Lucas Tolimán	10	San Lucas Tolimán	9	Septiembre	2023-07-09T00:00:00	2024-11-08T10:00:00	1	Precipitación	0
146120	7	Sololá	713	San Lucas Tolimán	10	San Lucas Tolimán	9	Septiembre	2023-07-09T00:00:00	2024-11-08T10:00:00	8	Radiación solar	688
146121	7	Sololá	713	San Lucas Tolimán	10	San Lucas Tolimán	9	Septiembre	2023-07-09T00:00:00	2024-11-08T11:00:00	2	Temperatura media	24.5
146122	7	Sololá	713	San Lucas Tolimán	10	San Lucas Tolimán	9	Septiembre	2023-07-09T00:00:00	2024-11-08T11:00:00	4	Temperatura máxima	24.6
146123	7	Sololá	713	San Lucas Tolimán	10	San Lucas Tolimán	9	Septiembre	2023-07-09T00:00:00	2024-11-08T11:00:00	3	Temperatura mínima	23.3
146124	7	Sololá	713	San Lucas Tolimán	10	San Lucas Tolimán	9	Septiembre	2023-07-09T00:00:00	2024-11-08T11:00:00	5	Humedad	57
146125	7	Sololá	713	San Lucas Tolimán	10	San Lucas Tolimán	9	Septiembre	2023-07-09T00:00:00	2024-11-08T11:00:00	6	Velocidad del viento	6.4
146126	7	Sololá	713	San Lucas Tolimán	10	San Lucas Tolimán	9	Septiembre	2023-07-09T00:00:00	2024-11-08T11:00:00	7	Dirección del viento	6.44
146127	7	Sololá	713	San Lucas Tolimán	10	San Lucas Tolimán	9	Septiembre	2023-07-09T00:00:00	2024-11-08T11:00:00	1	Precipitación	0
146128	7	Sololá	713	San Lucas Tolimán	10	San Lucas Tolimán	9	Septiembre	2023-07-09T00:00:00	2024-11-08T11:00:00	8	Radiación solar	851
146129	7	Sololá	713	San Lucas Tolimán	10	San Lucas Tolimán	9	Septiembre	2023-07-09T00:00:00	2024-11-08T12:00:00	2	Temperatura media	25.4
146130	7	Sololá	713	San Lucas Tolimán	10	San Lucas Tolimán	9	Septiembre	2023-07-09T00:00:00	2024-11-08T12:00:00	4	Temperatura máxima	26.3
146131	7	Sololá	713	San Lucas Tolimán	10	San Lucas Tolimán	9	Septiembre	2023-07-09T00:00:00	2024-11-08T12:00:00	3	Temperatura mínima	24.5
146132	7	Sololá	713	San Lucas Tolimán	10	San Lucas Tolimán	9	Septiembre	2023-07-09T00:00:00	2024-11-08T12:00:00	5	Humedad	78
146133	7	Sololá	713	San Lucas Tolimán	10	San Lucas Tolimán	9	Septiembre	2023-07-09T00:00:00	2024-11-08T12:00:00	6	Velocidad del viento	6.4
146134	7	Sololá	713	San Lucas Tolimán	10	San Lucas Tolimán	9	Septiembre	2023-07-09T00:00:00	2024-11-08T12:00:00	7	Dirección del viento	6.44
146135	7	Sololá	713	San Lucas Tolimán	10	San Lucas Tolimán	9	Septiembre	2023-07-09T00:00:00	2024-11-08T12:00:00	1	Precipitación	0
146136	7	Sololá	713	San Lucas Tolimán	10	San Lucas Tolimán	9	Septiembre	2023-07-09T00:00:00	2024-11-08T12:00:00	8	Radiación solar	917
146137	7	Sololá	713	San Lucas Tolimán	10	San Lucas Tolimán	9	Septiembre	2023-07-09T00:00:00	2024-11-08T13:00:00	2	Temperatura media	22.2
146138	7	Sololá	713	San Lucas Tolimán	10	San Lucas Tolimán	9	Septiembre	2023-07-09T00:00:00	2024-11-08T13:00:00	4	Temperatura máxima	25.4
146139	7	Sololá	713	San Lucas Tolimán	10	San Lucas Tolimán	9	Septiembre	2023-07-09T00:00:00	2024-11-08T13:00:00	3	Temperatura mínima	22.2
146140	7	Sololá	713	San Lucas Tolimán	10	San Lucas Tolimán	9	Septiembre	2023-07-09T00:00:00	2024-11-08T13:00:00	5	Humedad	86
146141	7	Sololá	713	San Lucas Tolimán	10	San Lucas Tolimán	9	Septiembre	2023-07-09T00:00:00	2024-11-08T13:00:00	6	Velocidad del viento	11.3
146142	7	Sololá	713	San Lucas Tolimán	10	San Lucas Tolimán	9	Septiembre	2023-07-09T00:00:00	2024-11-08T13:00:00	7	Dirección del viento	11.27
146143	7	Sololá	713	San Lucas Tolimán	10	San Lucas Tolimán	9	Septiembre	2023-07-09T00:00:00	2024-11-08T13:00:00	1	Precipitación	0
146144	7	Sololá	713	San Lucas Tolimán	10	San Lucas Tolimán	9	Septiembre	2023-07-09T00:00:00	2024-11-08T13:00:00	8	Radiación solar	113
146145	7	Sololá	713	San Lucas Tolimán	10	San Lucas Tolimán	9	Septiembre	2023-07-09T00:00:00	2024-11-08T14:00:00	2	Temperatura media	21.4
146146	7	Sololá	713	San Lucas Tolimán	10	San Lucas Tolimán	9	Septiembre	2023-07-09T00:00:00	2024-11-08T14:00:00	4	Temperatura máxima	22.2
146147	7	Sololá	713	San Lucas Tolimán	10	San Lucas Tolimán	9	Septiembre	2023-07-09T00:00:00	2024-11-08T14:00:00	3	Temperatura mínima	21.2
146148	7	Sololá	713	San Lucas Tolimán	10	San Lucas Tolimán	9	Septiembre	2023-07-09T00:00:00	2024-11-08T14:00:00	5	Humedad	90
146149	7	Sololá	713	San Lucas Tolimán	10	San Lucas Tolimán	9	Septiembre	2023-07-09T00:00:00	2024-11-08T14:00:00	6	Velocidad del viento	11.3
146150	7	Sololá	713	San Lucas Tolimán	10	San Lucas Tolimán	9	Septiembre	2023-07-09T00:00:00	2024-11-08T14:00:00	7	Dirección del viento	11.27
146151	7	Sololá	713	San Lucas Tolimán	10	San Lucas Tolimán	9	Septiembre	2023-07-09T00:00:00	2024-11-08T14:00:00	1	Precipitación	0
146152	7	Sololá	713	San Lucas Tolimán	10	San Lucas Tolimán	9	Septiembre	2023-07-09T00:00:00	2024-11-08T14:00:00	8	Radiación solar	82
146153	7	Sololá	713	San Lucas Tolimán	10	San Lucas Tolimán	9	Septiembre	2023-07-09T00:00:00	2024-11-08T15:00:00	2	Temperatura media	21.1
146154	7	Sololá	713	San Lucas Tolimán	10	San Lucas Tolimán	9	Septiembre	2023-07-09T00:00:00	2024-11-08T15:00:00	4	Temperatura máxima	21.7
146155	7	Sololá	713	San Lucas Tolimán	10	San Lucas Tolimán	9	Septiembre	2023-07-09T00:00:00	2024-11-08T15:00:00	3	Temperatura mínima	21.1
146156	7	Sololá	713	San Lucas Tolimán	10	San Lucas Tolimán	9	Septiembre	2023-07-09T00:00:00	2024-11-08T15:00:00	5	Humedad	91
146157	7	Sololá	713	San Lucas Tolimán	10	San Lucas Tolimán	9	Septiembre	2023-07-09T00:00:00	2024-11-08T15:00:00	6	Velocidad del viento	6.4
146158	7	Sololá	713	San Lucas Tolimán	10	San Lucas Tolimán	9	Septiembre	2023-07-09T00:00:00	2024-11-08T15:00:00	7	Dirección del viento	6.44
146159	7	Sololá	713	San Lucas Tolimán	10	San Lucas Tolimán	9	Septiembre	2023-07-09T00:00:00	2024-11-08T15:00:00	1	Precipitación	0
146160	7	Sololá	713	San Lucas Tolimán	10	San Lucas Tolimán	9	Septiembre	2023-07-09T00:00:00	2024-11-08T15:00:00	8	Radiación solar	150
146161	7	Sololá	713	San Lucas Tolimán	10	San Lucas Tolimán	9	Septiembre	2023-07-09T00:00:00	2024-11-08T16:00:00	2	Temperatura media	20.2
146162	7	Sololá	713	San Lucas Tolimán	10	San Lucas Tolimán	9	Septiembre	2023-07-09T00:00:00	2024-11-08T16:00:00	4	Temperatura máxima	21.1
146163	7	Sololá	713	San Lucas Tolimán	10	San Lucas Tolimán	9	Septiembre	2023-07-09T00:00:00	2024-11-08T16:00:00	3	Temperatura mínima	20.2
146164	7	Sololá	713	San Lucas Tolimán	10	San Lucas Tolimán	9	Septiembre	2023-07-09T00:00:00	2024-11-08T16:00:00	5	Humedad	93
146165	7	Sololá	713	San Lucas Tolimán	10	San Lucas Tolimán	9	Septiembre	2023-07-09T00:00:00	2024-11-08T16:00:00	6	Velocidad del viento	6.4
146166	7	Sololá	713	San Lucas Tolimán	10	San Lucas Tolimán	9	Septiembre	2023-07-09T00:00:00	2024-11-08T16:00:00	7	Dirección del viento	6.44
146167	7	Sololá	713	San Lucas Tolimán	10	San Lucas Tolimán	9	Septiembre	2023-07-09T00:00:00	2024-11-08T16:00:00	1	Precipitación	0
146168	7	Sololá	713	San Lucas Tolimán	10	San Lucas Tolimán	9	Septiembre	2023-07-09T00:00:00	2024-11-08T16:00:00	8	Radiación solar	103
146169	7	Sololá	713	San Lucas Tolimán	10	San Lucas Tolimán	9	Septiembre	2023-07-09T00:00:00	2024-11-08T17:00:00	2	Temperatura media	20.1
146170	7	Sololá	713	San Lucas Tolimán	10	San Lucas Tolimán	9	Septiembre	2023-07-09T00:00:00	2024-11-08T17:00:00	4	Temperatura máxima	20.2
146171	7	Sololá	713	San Lucas Tolimán	10	San Lucas Tolimán	9	Septiembre	2023-07-09T00:00:00	2024-11-08T17:00:00	3	Temperatura mínima	19.9
146172	7	Sololá	713	San Lucas Tolimán	10	San Lucas Tolimán	9	Septiembre	2023-07-09T00:00:00	2024-11-08T17:00:00	5	Humedad	92
146173	7	Sololá	713	San Lucas Tolimán	10	San Lucas Tolimán	9	Septiembre	2023-07-09T00:00:00	2024-11-08T17:00:00	6	Velocidad del viento	6.4
146174	7	Sololá	713	San Lucas Tolimán	10	San Lucas Tolimán	9	Septiembre	2023-07-09T00:00:00	2024-11-08T17:00:00	7	Dirección del viento	6.44
146175	7	Sololá	713	San Lucas Tolimán	10	San Lucas Tolimán	9	Septiembre	2023-07-09T00:00:00	2024-11-08T17:00:00	1	Precipitación	0
146176	7	Sololá	713	San Lucas Tolimán	10	San Lucas Tolimán	9	Septiembre	2023-07-09T00:00:00	2024-11-08T17:00:00	8	Radiación solar	39
146177	7	Sololá	713	San Lucas Tolimán	10	San Lucas Tolimán	9	Septiembre	2023-07-09T00:00:00	2024-11-08T18:00:00	2	Temperatura media	19.9
146178	7	Sololá	713	San Lucas Tolimán	10	San Lucas Tolimán	9	Septiembre	2023-07-09T00:00:00	2024-11-08T18:00:00	4	Temperatura máxima	20.1
146179	7	Sololá	713	San Lucas Tolimán	10	San Lucas Tolimán	9	Septiembre	2023-07-09T00:00:00	2024-11-08T18:00:00	3	Temperatura mínima	19.9
146180	7	Sololá	713	San Lucas Tolimán	10	San Lucas Tolimán	9	Septiembre	2023-07-09T00:00:00	2024-11-08T18:00:00	5	Humedad	92
146181	7	Sololá	713	San Lucas Tolimán	10	San Lucas Tolimán	9	Septiembre	2023-07-09T00:00:00	2024-11-08T18:00:00	6	Velocidad del viento	4.8
146182	7	Sololá	713	San Lucas Tolimán	10	San Lucas Tolimán	9	Septiembre	2023-07-09T00:00:00	2024-11-08T18:00:00	7	Dirección del viento	4.83
146183	7	Sololá	713	San Lucas Tolimán	10	San Lucas Tolimán	9	Septiembre	2023-07-09T00:00:00	2024-11-08T18:00:00	1	Precipitación	0
146184	7	Sololá	713	San Lucas Tolimán	10	San Lucas Tolimán	9	Septiembre	2023-07-09T00:00:00	2024-11-08T18:00:00	8	Radiación solar	7
146185	7	Sololá	713	San Lucas Tolimán	10	San Lucas Tolimán	9	Septiembre	2023-07-09T00:00:00	2024-11-08T19:00:00	2	Temperatura media	19.5
146186	7	Sololá	713	San Lucas Tolimán	10	San Lucas Tolimán	9	Septiembre	2023-07-09T00:00:00	2024-11-08T19:00:00	4	Temperatura máxima	19.9
146187	7	Sololá	713	San Lucas Tolimán	10	San Lucas Tolimán	9	Septiembre	2023-07-09T00:00:00	2024-11-08T19:00:00	3	Temperatura mínima	19.3
146188	7	Sololá	713	San Lucas Tolimán	10	San Lucas Tolimán	9	Septiembre	2023-07-09T00:00:00	2024-11-08T19:00:00	5	Humedad	59
146189	7	Sololá	713	San Lucas Tolimán	10	San Lucas Tolimán	9	Septiembre	2023-07-09T00:00:00	2024-11-08T19:00:00	6	Velocidad del viento	3.2
146190	7	Sololá	713	San Lucas Tolimán	10	San Lucas Tolimán	9	Septiembre	2023-07-09T00:00:00	2024-11-08T19:00:00	7	Dirección del viento	3.22
146191	7	Sololá	713	San Lucas Tolimán	10	San Lucas Tolimán	9	Septiembre	2023-07-09T00:00:00	2024-11-08T19:00:00	1	Precipitación	0
146192	7	Sololá	713	San Lucas Tolimán	10	San Lucas Tolimán	9	Septiembre	2023-07-09T00:00:00	2024-11-08T19:00:00	8	Radiación solar	0
146193	7	Sololá	713	San Lucas Tolimán	10	San Lucas Tolimán	9	Septiembre	2023-07-09T00:00:00	2024-11-08T20:00:00	2	Temperatura media	19.4
146194	7	Sololá	713	San Lucas Tolimán	10	San Lucas Tolimán	9	Septiembre	2023-07-09T00:00:00	2024-11-08T20:00:00	4	Temperatura máxima	19.7
146195	7	Sololá	713	San Lucas Tolimán	10	San Lucas Tolimán	9	Septiembre	2023-07-09T00:00:00	2024-11-08T20:00:00	3	Temperatura mínima	19.2
146196	7	Sololá	713	San Lucas Tolimán	10	San Lucas Tolimán	9	Septiembre	2023-07-09T00:00:00	2024-11-08T20:00:00	5	Humedad	59
146197	7	Sololá	713	San Lucas Tolimán	10	San Lucas Tolimán	9	Septiembre	2023-07-09T00:00:00	2024-11-08T20:00:00	6	Velocidad del viento	1.6
146198	7	Sololá	713	San Lucas Tolimán	10	San Lucas Tolimán	9	Septiembre	2023-07-09T00:00:00	2024-11-08T20:00:00	7	Dirección del viento	1.61
146199	7	Sololá	713	San Lucas Tolimán	10	San Lucas Tolimán	9	Septiembre	2023-07-09T00:00:00	2024-11-08T20:00:00	1	Precipitación	0
146200	7	Sololá	713	San Lucas Tolimán	10	San Lucas Tolimán	9	Septiembre	2023-07-09T00:00:00	2024-11-08T20:00:00	8	Radiación solar	0
146201	7	Sololá	713	San Lucas Tolimán	10	San Lucas Tolimán	9	Septiembre	2023-07-09T00:00:00	2024-11-08T21:00:00	2	Temperatura media	18.7
146202	7	Sololá	713	San Lucas Tolimán	10	San Lucas Tolimán	9	Septiembre	2023-07-09T00:00:00	2024-11-08T21:00:00	4	Temperatura máxima	19.5
146203	7	Sololá	713	San Lucas Tolimán	10	San Lucas Tolimán	9	Septiembre	2023-07-09T00:00:00	2024-11-08T21:00:00	3	Temperatura mínima	18.7
146204	7	Sololá	713	San Lucas Tolimán	10	San Lucas Tolimán	9	Septiembre	2023-07-09T00:00:00	2024-11-08T21:00:00	5	Humedad	60
146205	7	Sololá	713	San Lucas Tolimán	10	San Lucas Tolimán	9	Septiembre	2023-07-09T00:00:00	2024-11-08T21:00:00	6	Velocidad del viento	1.6
146206	7	Sololá	713	San Lucas Tolimán	10	San Lucas Tolimán	9	Septiembre	2023-07-09T00:00:00	2024-11-08T21:00:00	7	Dirección del viento	1.61
146207	7	Sololá	713	San Lucas Tolimán	10	San Lucas Tolimán	9	Septiembre	2023-07-09T00:00:00	2024-11-08T21:00:00	1	Precipitación	0
146208	7	Sololá	713	San Lucas Tolimán	10	San Lucas Tolimán	9	Septiembre	2023-07-09T00:00:00	2024-11-08T21:00:00	8	Radiación solar	0
146209	7	Sololá	713	San Lucas Tolimán	10	San Lucas Tolimán	9	Septiembre	2023-07-09T00:00:00	2024-11-08T22:00:00	2	Temperatura media	18.3
146210	7	Sololá	713	San Lucas Tolimán	10	San Lucas Tolimán	9	Septiembre	2023-07-09T00:00:00	2024-11-08T22:00:00	4	Temperatura máxima	18.7
146211	7	Sololá	713	San Lucas Tolimán	10	San Lucas Tolimán	9	Septiembre	2023-07-09T00:00:00	2024-11-08T22:00:00	3	Temperatura mínima	18.2
146212	7	Sololá	713	San Lucas Tolimán	10	San Lucas Tolimán	9	Septiembre	2023-07-09T00:00:00	2024-11-08T22:00:00	5	Humedad	61
146213	7	Sololá	713	San Lucas Tolimán	10	San Lucas Tolimán	9	Septiembre	2023-07-09T00:00:00	2024-11-08T22:00:00	6	Velocidad del viento	1.6
146214	7	Sololá	713	San Lucas Tolimán	10	San Lucas Tolimán	9	Septiembre	2023-07-09T00:00:00	2024-11-08T22:00:00	7	Dirección del viento	1.61
146215	7	Sololá	713	San Lucas Tolimán	10	San Lucas Tolimán	9	Septiembre	2023-07-09T00:00:00	2024-11-08T22:00:00	1	Precipitación	0
146216	7	Sololá	713	San Lucas Tolimán	10	San Lucas Tolimán	9	Septiembre	2023-07-09T00:00:00	2024-11-08T22:00:00	8	Radiación solar	0
146217	7	Sololá	713	San Lucas Tolimán	10	San Lucas Tolimán	9	Septiembre	2023-07-09T00:00:00	2024-11-08T23:00:00	2	Temperatura media	17.8
146218	7	Sololá	713	San Lucas Tolimán	10	San Lucas Tolimán	9	Septiembre	2023-07-09T00:00:00	2024-11-08T23:00:00	4	Temperatura máxima	18.3
146219	7	Sololá	713	San Lucas Tolimán	10	San Lucas Tolimán	9	Septiembre	2023-07-09T00:00:00	2024-11-08T23:00:00	3	Temperatura mínima	17.7
146220	7	Sololá	713	San Lucas Tolimán	10	San Lucas Tolimán	9	Septiembre	2023-07-09T00:00:00	2024-11-08T23:00:00	5	Humedad	60
146221	7	Sololá	713	San Lucas Tolimán	10	San Lucas Tolimán	9	Septiembre	2023-07-09T00:00:00	2024-11-08T23:00:00	6	Velocidad del viento	3.2
146222	7	Sololá	713	San Lucas Tolimán	10	San Lucas Tolimán	9	Septiembre	2023-07-09T00:00:00	2024-11-08T23:00:00	7	Dirección del viento	3.22
146223	7	Sololá	713	San Lucas Tolimán	10	San Lucas Tolimán	9	Septiembre	2023-07-09T00:00:00	2024-11-08T23:00:00	1	Precipitación	0
146224	7	Sololá	713	San Lucas Tolimán	10	San Lucas Tolimán	9	Septiembre	2023-07-09T00:00:00	2024-11-08T23:00:00	8	Radiación solar	0
146225	7	Sololá	713	San Lucas Tolimán	10	San Lucas Tolimán	9	Septiembre	2023-08-09T00:00:00	2024-11-08T00:00:00	2	Temperatura media	18.8
146226	7	Sololá	713	San Lucas Tolimán	10	San Lucas Tolimán	9	Septiembre	2023-08-09T00:00:00	2024-11-08T00:00:00	4	Temperatura máxima	18.8
146227	7	Sololá	713	San Lucas Tolimán	10	San Lucas Tolimán	9	Septiembre	2023-08-09T00:00:00	2024-11-08T00:00:00	3	Temperatura mínima	17.7
146228	7	Sololá	713	San Lucas Tolimán	10	San Lucas Tolimán	9	Septiembre	2023-08-09T00:00:00	2024-11-08T00:00:00	5	Humedad	59
146229	7	Sololá	713	San Lucas Tolimán	10	San Lucas Tolimán	9	Septiembre	2023-08-09T00:00:00	2024-11-08T00:00:00	6	Velocidad del viento	1.6
146230	7	Sololá	713	San Lucas Tolimán	10	San Lucas Tolimán	9	Septiembre	2023-08-09T00:00:00	2024-11-08T00:00:00	7	Dirección del viento	1.61
146231	7	Sololá	713	San Lucas Tolimán	10	San Lucas Tolimán	9	Septiembre	2023-08-09T00:00:00	2024-11-08T00:00:00	1	Precipitación	0
146232	7	Sololá	713	San Lucas Tolimán	10	San Lucas Tolimán	9	Septiembre	2023-08-09T00:00:00	2024-11-08T00:00:00	8	Radiación solar	0
146233	7	Sololá	713	San Lucas Tolimán	10	San Lucas Tolimán	9	Septiembre	2023-08-09T00:00:00	2024-11-08T01:00:00	2	Temperatura media	16.8
146234	7	Sololá	713	San Lucas Tolimán	10	San Lucas Tolimán	9	Septiembre	2023-08-09T00:00:00	2024-11-08T01:00:00	4	Temperatura máxima	18.8
146235	7	Sololá	713	San Lucas Tolimán	10	San Lucas Tolimán	9	Septiembre	2023-08-09T00:00:00	2024-11-08T01:00:00	3	Temperatura mínima	16.8
146236	7	Sololá	713	San Lucas Tolimán	10	San Lucas Tolimán	9	Septiembre	2023-08-09T00:00:00	2024-11-08T01:00:00	5	Humedad	62
146237	7	Sololá	713	San Lucas Tolimán	10	San Lucas Tolimán	9	Septiembre	2023-08-09T00:00:00	2024-11-08T01:00:00	6	Velocidad del viento	1.6
146238	7	Sololá	713	San Lucas Tolimán	10	San Lucas Tolimán	9	Septiembre	2023-08-09T00:00:00	2024-11-08T01:00:00	7	Dirección del viento	1.61
146239	7	Sololá	713	San Lucas Tolimán	10	San Lucas Tolimán	9	Septiembre	2023-08-09T00:00:00	2024-11-08T01:00:00	1	Precipitación	0
146240	7	Sololá	713	San Lucas Tolimán	10	San Lucas Tolimán	9	Septiembre	2023-08-09T00:00:00	2024-11-08T01:00:00	8	Radiación solar	0
146241	7	Sololá	713	San Lucas Tolimán	10	San Lucas Tolimán	9	Septiembre	2023-08-09T00:00:00	2024-11-08T02:00:00	2	Temperatura media	17.2
146242	7	Sololá	713	San Lucas Tolimán	10	San Lucas Tolimán	9	Septiembre	2023-08-09T00:00:00	2024-11-08T02:00:00	4	Temperatura máxima	17.3
146243	7	Sololá	713	San Lucas Tolimán	10	San Lucas Tolimán	9	Septiembre	2023-08-09T00:00:00	2024-11-08T02:00:00	3	Temperatura mínima	16.7
146244	7	Sololá	713	San Lucas Tolimán	10	San Lucas Tolimán	9	Septiembre	2023-08-09T00:00:00	2024-11-08T02:00:00	5	Humedad	59
146245	7	Sololá	713	San Lucas Tolimán	10	San Lucas Tolimán	9	Septiembre	2023-08-09T00:00:00	2024-11-08T02:00:00	6	Velocidad del viento	0
146246	7	Sololá	713	San Lucas Tolimán	10	San Lucas Tolimán	9	Septiembre	2023-08-09T00:00:00	2024-11-08T02:00:00	7	Dirección del viento	0
146247	7	Sololá	713	San Lucas Tolimán	10	San Lucas Tolimán	9	Septiembre	2023-08-09T00:00:00	2024-11-08T02:00:00	1	Precipitación	0
146248	7	Sololá	713	San Lucas Tolimán	10	San Lucas Tolimán	9	Septiembre	2023-08-09T00:00:00	2024-11-08T02:00:00	8	Radiación solar	0
146249	7	Sololá	713	San Lucas Tolimán	10	San Lucas Tolimán	9	Septiembre	2023-08-09T00:00:00	2024-11-08T03:00:00	2	Temperatura media	16.7
146250	7	Sololá	713	San Lucas Tolimán	10	San Lucas Tolimán	9	Septiembre	2023-08-09T00:00:00	2024-11-08T03:00:00	4	Temperatura máxima	18.2
146251	7	Sololá	713	San Lucas Tolimán	10	San Lucas Tolimán	9	Septiembre	2023-08-09T00:00:00	2024-11-08T03:00:00	3	Temperatura mínima	16.7
146252	7	Sololá	713	San Lucas Tolimán	10	San Lucas Tolimán	9	Septiembre	2023-08-09T00:00:00	2024-11-08T03:00:00	5	Humedad	62
146253	7	Sololá	713	San Lucas Tolimán	10	San Lucas Tolimán	9	Septiembre	2023-08-09T00:00:00	2024-11-08T03:00:00	6	Velocidad del viento	1.6
146254	7	Sololá	713	San Lucas Tolimán	10	San Lucas Tolimán	9	Septiembre	2023-08-09T00:00:00	2024-11-08T03:00:00	7	Dirección del viento	1.61
146255	7	Sololá	713	San Lucas Tolimán	10	San Lucas Tolimán	9	Septiembre	2023-08-09T00:00:00	2024-11-08T03:00:00	1	Precipitación	0
146256	7	Sololá	713	San Lucas Tolimán	10	San Lucas Tolimán	9	Septiembre	2023-08-09T00:00:00	2024-11-08T03:00:00	8	Radiación solar	0
146257	7	Sololá	713	San Lucas Tolimán	10	San Lucas Tolimán	9	Septiembre	2023-08-09T00:00:00	2024-11-08T04:00:00	2	Temperatura media	17.7
146258	7	Sololá	713	San Lucas Tolimán	10	San Lucas Tolimán	9	Septiembre	2023-08-09T00:00:00	2024-11-08T04:00:00	4	Temperatura máxima	17.7
146259	7	Sololá	713	San Lucas Tolimán	10	San Lucas Tolimán	9	Septiembre	2023-08-09T00:00:00	2024-11-08T04:00:00	3	Temperatura mínima	16.5
146260	7	Sololá	713	San Lucas Tolimán	10	San Lucas Tolimán	9	Septiembre	2023-08-09T00:00:00	2024-11-08T04:00:00	5	Humedad	58
146261	7	Sololá	713	San Lucas Tolimán	10	San Lucas Tolimán	9	Septiembre	2023-08-09T00:00:00	2024-11-08T04:00:00	6	Velocidad del viento	1.6
146262	7	Sololá	713	San Lucas Tolimán	10	San Lucas Tolimán	9	Septiembre	2023-08-09T00:00:00	2024-11-08T04:00:00	7	Dirección del viento	1.61
146263	7	Sololá	713	San Lucas Tolimán	10	San Lucas Tolimán	9	Septiembre	2023-08-09T00:00:00	2024-11-08T04:00:00	1	Precipitación	0
146264	7	Sololá	713	San Lucas Tolimán	10	San Lucas Tolimán	9	Septiembre	2023-08-09T00:00:00	2024-11-08T04:00:00	8	Radiación solar	0
146265	7	Sololá	713	San Lucas Tolimán	10	San Lucas Tolimán	9	Septiembre	2023-08-09T00:00:00	2024-11-08T05:00:00	2	Temperatura media	18.1
146266	7	Sololá	713	San Lucas Tolimán	10	San Lucas Tolimán	9	Septiembre	2023-08-09T00:00:00	2024-11-08T05:00:00	4	Temperatura máxima	18.5
146267	7	Sololá	713	San Lucas Tolimán	10	San Lucas Tolimán	9	Septiembre	2023-08-09T00:00:00	2024-11-08T05:00:00	3	Temperatura mínima	17.7
146268	7	Sololá	713	San Lucas Tolimán	10	San Lucas Tolimán	9	Septiembre	2023-08-09T00:00:00	2024-11-08T05:00:00	5	Humedad	60
146269	7	Sololá	713	San Lucas Tolimán	10	San Lucas Tolimán	9	Septiembre	2023-08-09T00:00:00	2024-11-08T05:00:00	6	Velocidad del viento	3.2
146270	7	Sololá	713	San Lucas Tolimán	10	San Lucas Tolimán	9	Septiembre	2023-08-09T00:00:00	2024-11-08T05:00:00	7	Dirección del viento	3.22
146271	7	Sololá	713	San Lucas Tolimán	10	San Lucas Tolimán	9	Septiembre	2023-08-09T00:00:00	2024-11-08T05:00:00	1	Precipitación	0
146272	7	Sololá	713	San Lucas Tolimán	10	San Lucas Tolimán	9	Septiembre	2023-08-09T00:00:00	2024-11-08T05:00:00	8	Radiación solar	0
146273	7	Sololá	713	San Lucas Tolimán	10	San Lucas Tolimán	9	Septiembre	2023-08-09T00:00:00	2024-11-08T06:00:00	2	Temperatura media	17.7
146274	7	Sololá	713	San Lucas Tolimán	10	San Lucas Tolimán	9	Septiembre	2023-08-09T00:00:00	2024-11-08T06:00:00	4	Temperatura máxima	18.1
146275	7	Sololá	713	San Lucas Tolimán	10	San Lucas Tolimán	9	Septiembre	2023-08-09T00:00:00	2024-11-08T06:00:00	3	Temperatura mínima	17.2
146276	7	Sololá	713	San Lucas Tolimán	10	San Lucas Tolimán	9	Septiembre	2023-08-09T00:00:00	2024-11-08T06:00:00	5	Humedad	58
146277	7	Sololá	713	San Lucas Tolimán	10	San Lucas Tolimán	9	Septiembre	2023-08-09T00:00:00	2024-11-08T06:00:00	6	Velocidad del viento	1.6
146278	7	Sololá	713	San Lucas Tolimán	10	San Lucas Tolimán	9	Septiembre	2023-08-09T00:00:00	2024-11-08T06:00:00	7	Dirección del viento	1.61
146279	7	Sololá	713	San Lucas Tolimán	10	San Lucas Tolimán	9	Septiembre	2023-08-09T00:00:00	2024-11-08T06:00:00	1	Precipitación	0
146280	7	Sololá	713	San Lucas Tolimán	10	San Lucas Tolimán	9	Septiembre	2023-08-09T00:00:00	2024-11-08T06:00:00	8	Radiación solar	0
146281	7	Sololá	713	San Lucas Tolimán	10	San Lucas Tolimán	9	Septiembre	2023-08-09T00:00:00	2024-11-08T07:00:00	2	Temperatura media	18.2
146282	7	Sololá	713	San Lucas Tolimán	10	San Lucas Tolimán	9	Septiembre	2023-08-09T00:00:00	2024-11-08T07:00:00	4	Temperatura máxima	18.4
146283	7	Sololá	713	San Lucas Tolimán	10	San Lucas Tolimán	9	Septiembre	2023-08-09T00:00:00	2024-11-08T07:00:00	3	Temperatura mínima	17.7
146284	7	Sololá	713	San Lucas Tolimán	10	San Lucas Tolimán	9	Septiembre	2023-08-09T00:00:00	2024-11-08T07:00:00	5	Humedad	58
146285	7	Sololá	713	San Lucas Tolimán	10	San Lucas Tolimán	9	Septiembre	2023-08-09T00:00:00	2024-11-08T07:00:00	6	Velocidad del viento	1.6
146286	7	Sololá	713	San Lucas Tolimán	10	San Lucas Tolimán	9	Septiembre	2023-08-09T00:00:00	2024-11-08T07:00:00	7	Dirección del viento	1.61
146287	7	Sololá	713	San Lucas Tolimán	10	San Lucas Tolimán	9	Septiembre	2023-08-09T00:00:00	2024-11-08T07:00:00	1	Precipitación	0
146288	7	Sololá	713	San Lucas Tolimán	10	San Lucas Tolimán	9	Septiembre	2023-08-09T00:00:00	2024-11-08T07:00:00	8	Radiación solar	44
146289	7	Sololá	713	San Lucas Tolimán	10	San Lucas Tolimán	9	Septiembre	2023-08-09T00:00:00	2024-11-08T08:00:00	2	Temperatura media	22.2
146290	7	Sololá	713	San Lucas Tolimán	10	San Lucas Tolimán	9	Septiembre	2023-08-09T00:00:00	2024-11-08T08:00:00	4	Temperatura máxima	22.2
146291	7	Sololá	713	San Lucas Tolimán	10	San Lucas Tolimán	9	Septiembre	2023-08-09T00:00:00	2024-11-08T08:00:00	3	Temperatura mínima	18.2
146292	7	Sololá	713	San Lucas Tolimán	10	San Lucas Tolimán	9	Septiembre	2023-08-09T00:00:00	2024-11-08T08:00:00	5	Humedad	53
146293	7	Sololá	713	San Lucas Tolimán	10	San Lucas Tolimán	9	Septiembre	2023-08-09T00:00:00	2024-11-08T08:00:00	6	Velocidad del viento	0
146294	7	Sololá	713	San Lucas Tolimán	10	San Lucas Tolimán	9	Septiembre	2023-08-09T00:00:00	2024-11-08T08:00:00	7	Dirección del viento	0
146295	7	Sololá	713	San Lucas Tolimán	10	San Lucas Tolimán	9	Septiembre	2023-08-09T00:00:00	2024-11-08T08:00:00	1	Precipitación	0
146296	7	Sololá	713	San Lucas Tolimán	10	San Lucas Tolimán	9	Septiembre	2023-08-09T00:00:00	2024-11-08T08:00:00	8	Radiación solar	327
146297	7	Sololá	713	San Lucas Tolimán	10	San Lucas Tolimán	9	Septiembre	2023-08-09T00:00:00	2024-11-08T09:00:00	2	Temperatura media	22.2
146298	7	Sololá	713	San Lucas Tolimán	10	San Lucas Tolimán	9	Septiembre	2023-08-09T00:00:00	2024-11-08T09:00:00	4	Temperatura máxima	22.7
146299	7	Sololá	713	San Lucas Tolimán	10	San Lucas Tolimán	9	Septiembre	2023-08-09T00:00:00	2024-11-08T09:00:00	3	Temperatura mínima	21.6
146300	7	Sololá	713	San Lucas Tolimán	10	San Lucas Tolimán	9	Septiembre	2023-08-09T00:00:00	2024-11-08T09:00:00	5	Humedad	58
146301	7	Sololá	713	San Lucas Tolimán	10	San Lucas Tolimán	9	Septiembre	2023-08-09T00:00:00	2024-11-08T09:00:00	6	Velocidad del viento	6.4
146302	7	Sololá	713	San Lucas Tolimán	10	San Lucas Tolimán	9	Septiembre	2023-08-09T00:00:00	2024-11-08T09:00:00	7	Dirección del viento	6.44
146303	7	Sololá	713	San Lucas Tolimán	10	San Lucas Tolimán	9	Septiembre	2023-08-09T00:00:00	2024-11-08T09:00:00	1	Precipitación	0
146304	7	Sololá	713	San Lucas Tolimán	10	San Lucas Tolimán	9	Septiembre	2023-08-09T00:00:00	2024-11-08T09:00:00	8	Radiación solar	560
146305	7	Sololá	713	San Lucas Tolimán	10	San Lucas Tolimán	9	Septiembre	2023-08-09T00:00:00	2024-11-08T10:00:00	2	Temperatura media	22.5
146306	7	Sololá	713	San Lucas Tolimán	10	San Lucas Tolimán	9	Septiembre	2023-08-09T00:00:00	2024-11-08T10:00:00	4	Temperatura máxima	22.6
146307	7	Sololá	713	San Lucas Tolimán	10	San Lucas Tolimán	9	Septiembre	2023-08-09T00:00:00	2024-11-08T10:00:00	3	Temperatura mínima	22
146308	7	Sololá	713	San Lucas Tolimán	10	San Lucas Tolimán	9	Septiembre	2023-08-09T00:00:00	2024-11-08T10:00:00	5	Humedad	60
146309	7	Sololá	713	San Lucas Tolimán	10	San Lucas Tolimán	9	Septiembre	2023-08-09T00:00:00	2024-11-08T10:00:00	6	Velocidad del viento	9.7
146310	7	Sololá	713	San Lucas Tolimán	10	San Lucas Tolimán	9	Septiembre	2023-08-09T00:00:00	2024-11-08T10:00:00	7	Dirección del viento	9.66
146311	7	Sololá	713	San Lucas Tolimán	10	San Lucas Tolimán	9	Septiembre	2023-08-09T00:00:00	2024-11-08T10:00:00	1	Precipitación	0
146312	7	Sololá	713	San Lucas Tolimán	10	San Lucas Tolimán	9	Septiembre	2023-08-09T00:00:00	2024-11-08T10:00:00	8	Radiación solar	750
146313	7	Sololá	713	San Lucas Tolimán	10	San Lucas Tolimán	9	Septiembre	2023-08-09T00:00:00	2024-11-08T11:00:00	2	Temperatura media	23.7
146314	7	Sololá	713	San Lucas Tolimán	10	San Lucas Tolimán	9	Septiembre	2023-08-09T00:00:00	2024-11-08T11:00:00	4	Temperatura máxima	23.8
146315	7	Sololá	713	San Lucas Tolimán	10	San Lucas Tolimán	9	Septiembre	2023-08-09T00:00:00	2024-11-08T11:00:00	3	Temperatura mínima	22.5
146316	7	Sololá	713	San Lucas Tolimán	10	San Lucas Tolimán	9	Septiembre	2023-08-09T00:00:00	2024-11-08T11:00:00	5	Humedad	55
146317	7	Sololá	713	San Lucas Tolimán	10	San Lucas Tolimán	9	Septiembre	2023-08-09T00:00:00	2024-11-08T11:00:00	6	Velocidad del viento	11.3
146318	7	Sololá	713	San Lucas Tolimán	10	San Lucas Tolimán	9	Septiembre	2023-08-09T00:00:00	2024-11-08T11:00:00	7	Dirección del viento	11.27
146319	7	Sololá	713	San Lucas Tolimán	10	San Lucas Tolimán	9	Septiembre	2023-08-09T00:00:00	2024-11-08T11:00:00	1	Precipitación	0
146320	7	Sololá	713	San Lucas Tolimán	10	San Lucas Tolimán	9	Septiembre	2023-08-09T00:00:00	2024-11-08T11:00:00	8	Radiación solar	925
146321	7	Sololá	713	San Lucas Tolimán	10	San Lucas Tolimán	9	Septiembre	2023-08-09T00:00:00	2024-11-08T12:00:00	2	Temperatura media	24.4
146322	7	Sololá	713	San Lucas Tolimán	10	San Lucas Tolimán	9	Septiembre	2023-08-09T00:00:00	2024-11-08T12:00:00	4	Temperatura máxima	24.5
146323	7	Sololá	713	San Lucas Tolimán	10	San Lucas Tolimán	9	Septiembre	2023-08-09T00:00:00	2024-11-08T12:00:00	3	Temperatura mínima	23.6
146324	7	Sololá	713	San Lucas Tolimán	10	San Lucas Tolimán	9	Septiembre	2023-08-09T00:00:00	2024-11-08T12:00:00	5	Humedad	56
146325	7	Sololá	713	San Lucas Tolimán	10	San Lucas Tolimán	9	Septiembre	2023-08-09T00:00:00	2024-11-08T12:00:00	6	Velocidad del viento	12.9
146326	7	Sololá	713	San Lucas Tolimán	10	San Lucas Tolimán	9	Septiembre	2023-08-09T00:00:00	2024-11-08T12:00:00	7	Dirección del viento	12.87
146327	7	Sololá	713	San Lucas Tolimán	10	San Lucas Tolimán	9	Septiembre	2023-08-09T00:00:00	2024-11-08T12:00:00	1	Precipitación	0
146328	7	Sololá	713	San Lucas Tolimán	10	San Lucas Tolimán	9	Septiembre	2023-08-09T00:00:00	2024-11-08T12:00:00	8	Radiación solar	1050
146329	7	Sololá	713	San Lucas Tolimán	10	San Lucas Tolimán	9	Septiembre	2023-08-09T00:00:00	2024-11-08T13:00:00	2	Temperatura media	23.8
146330	7	Sololá	713	San Lucas Tolimán	10	San Lucas Tolimán	9	Septiembre	2023-08-09T00:00:00	2024-11-08T13:00:00	4	Temperatura máxima	24.6
146331	7	Sololá	713	San Lucas Tolimán	10	San Lucas Tolimán	9	Septiembre	2023-08-09T00:00:00	2024-11-08T13:00:00	3	Temperatura mínima	23.7
146332	7	Sololá	713	San Lucas Tolimán	10	San Lucas Tolimán	9	Septiembre	2023-08-09T00:00:00	2024-11-08T13:00:00	5	Humedad	59
146333	7	Sololá	713	San Lucas Tolimán	10	San Lucas Tolimán	9	Septiembre	2023-08-09T00:00:00	2024-11-08T13:00:00	6	Velocidad del viento	12.9
146334	7	Sololá	713	San Lucas Tolimán	10	San Lucas Tolimán	9	Septiembre	2023-08-09T00:00:00	2024-11-08T13:00:00	7	Dirección del viento	12.87
146335	7	Sololá	713	San Lucas Tolimán	10	San Lucas Tolimán	9	Septiembre	2023-08-09T00:00:00	2024-11-08T13:00:00	1	Precipitación	0
146336	7	Sololá	713	San Lucas Tolimán	10	San Lucas Tolimán	9	Septiembre	2023-08-09T00:00:00	2024-11-08T13:00:00	8	Radiación solar	1060
146337	7	Sololá	713	San Lucas Tolimán	10	San Lucas Tolimán	9	Septiembre	2023-08-09T00:00:00	2024-11-08T14:00:00	2	Temperatura media	23.6
146338	7	Sololá	713	San Lucas Tolimán	10	San Lucas Tolimán	9	Septiembre	2023-08-09T00:00:00	2024-11-08T14:00:00	4	Temperatura máxima	24
146339	7	Sololá	713	San Lucas Tolimán	10	San Lucas Tolimán	9	Septiembre	2023-08-09T00:00:00	2024-11-08T14:00:00	3	Temperatura mínima	23.1
146340	7	Sololá	713	San Lucas Tolimán	10	San Lucas Tolimán	9	Septiembre	2023-08-09T00:00:00	2024-11-08T14:00:00	5	Humedad	59
146341	7	Sololá	713	San Lucas Tolimán	10	San Lucas Tolimán	9	Septiembre	2023-08-09T00:00:00	2024-11-08T14:00:00	6	Velocidad del viento	12.9
146342	7	Sololá	713	San Lucas Tolimán	10	San Lucas Tolimán	9	Septiembre	2023-08-09T00:00:00	2024-11-08T14:00:00	7	Dirección del viento	12.87
146343	7	Sololá	713	San Lucas Tolimán	10	San Lucas Tolimán	9	Septiembre	2023-08-09T00:00:00	2024-11-08T14:00:00	1	Precipitación	0
146344	7	Sololá	713	San Lucas Tolimán	10	San Lucas Tolimán	9	Septiembre	2023-08-09T00:00:00	2024-11-08T14:00:00	8	Radiación solar	860
146345	7	Sololá	713	San Lucas Tolimán	10	San Lucas Tolimán	9	Septiembre	2023-08-09T00:00:00	2024-11-08T15:00:00	2	Temperatura media	23.2
146346	7	Sololá	713	San Lucas Tolimán	10	San Lucas Tolimán	9	Septiembre	2023-08-09T00:00:00	2024-11-08T15:00:00	4	Temperatura máxima	24.2
146347	7	Sololá	713	San Lucas Tolimán	10	San Lucas Tolimán	9	Septiembre	2023-08-09T00:00:00	2024-11-08T15:00:00	3	Temperatura mínima	23.1
146348	7	Sololá	713	San Lucas Tolimán	10	San Lucas Tolimán	9	Septiembre	2023-08-09T00:00:00	2024-11-08T15:00:00	5	Humedad	63
146349	7	Sololá	713	San Lucas Tolimán	10	San Lucas Tolimán	9	Septiembre	2023-08-09T00:00:00	2024-11-08T15:00:00	6	Velocidad del viento	11.3
146350	7	Sololá	713	San Lucas Tolimán	10	San Lucas Tolimán	9	Septiembre	2023-08-09T00:00:00	2024-11-08T15:00:00	7	Dirección del viento	11.27
146351	7	Sololá	713	San Lucas Tolimán	10	San Lucas Tolimán	9	Septiembre	2023-08-09T00:00:00	2024-11-08T15:00:00	1	Precipitación	0
146352	7	Sololá	713	San Lucas Tolimán	10	San Lucas Tolimán	9	Septiembre	2023-08-09T00:00:00	2024-11-08T15:00:00	8	Radiación solar	884
146353	7	Sololá	713	San Lucas Tolimán	10	San Lucas Tolimán	9	Septiembre	2023-08-09T00:00:00	2024-11-08T16:00:00	2	Temperatura media	21.9
146354	7	Sololá	713	San Lucas Tolimán	10	San Lucas Tolimán	9	Septiembre	2023-08-09T00:00:00	2024-11-08T16:00:00	4	Temperatura máxima	23.4
146355	7	Sololá	713	San Lucas Tolimán	10	San Lucas Tolimán	9	Septiembre	2023-08-09T00:00:00	2024-11-08T16:00:00	3	Temperatura mínima	21.9
146356	7	Sololá	713	San Lucas Tolimán	10	San Lucas Tolimán	9	Septiembre	2023-08-09T00:00:00	2024-11-08T16:00:00	5	Humedad	63
146357	7	Sololá	713	San Lucas Tolimán	10	San Lucas Tolimán	9	Septiembre	2023-08-09T00:00:00	2024-11-08T16:00:00	6	Velocidad del viento	11.3
146358	7	Sololá	713	San Lucas Tolimán	10	San Lucas Tolimán	9	Septiembre	2023-08-09T00:00:00	2024-11-08T16:00:00	7	Dirección del viento	11.27
146359	7	Sololá	713	San Lucas Tolimán	10	San Lucas Tolimán	9	Septiembre	2023-08-09T00:00:00	2024-11-08T16:00:00	1	Precipitación	0
146360	7	Sololá	713	San Lucas Tolimán	10	San Lucas Tolimán	9	Septiembre	2023-08-09T00:00:00	2024-11-08T16:00:00	8	Radiación solar	349
146361	7	Sololá	713	San Lucas Tolimán	10	San Lucas Tolimán	9	Septiembre	2023-08-09T00:00:00	2024-11-08T17:00:00	2	Temperatura media	20.8
146362	7	Sololá	713	San Lucas Tolimán	10	San Lucas Tolimán	9	Septiembre	2023-08-09T00:00:00	2024-11-08T17:00:00	4	Temperatura máxima	21.9
146363	7	Sololá	713	San Lucas Tolimán	10	San Lucas Tolimán	9	Septiembre	2023-08-09T00:00:00	2024-11-08T17:00:00	3	Temperatura mínima	20.8
146364	7	Sololá	713	San Lucas Tolimán	10	San Lucas Tolimán	9	Septiembre	2023-08-09T00:00:00	2024-11-08T17:00:00	5	Humedad	62
146365	7	Sololá	713	San Lucas Tolimán	10	San Lucas Tolimán	9	Septiembre	2023-08-09T00:00:00	2024-11-08T17:00:00	6	Velocidad del viento	8
146366	7	Sololá	713	San Lucas Tolimán	10	San Lucas Tolimán	9	Septiembre	2023-08-09T00:00:00	2024-11-08T17:00:00	7	Dirección del viento	8.05
146367	7	Sololá	713	San Lucas Tolimán	10	San Lucas Tolimán	9	Septiembre	2023-08-09T00:00:00	2024-11-08T17:00:00	1	Precipitación	0
146368	7	Sololá	713	San Lucas Tolimán	10	San Lucas Tolimán	9	Septiembre	2023-08-09T00:00:00	2024-11-08T17:00:00	8	Radiación solar	129
146369	7	Sololá	713	San Lucas Tolimán	10	San Lucas Tolimán	9	Septiembre	2023-08-09T00:00:00	2024-11-08T18:00:00	2	Temperatura media	20.2
146370	7	Sololá	713	San Lucas Tolimán	10	San Lucas Tolimán	9	Septiembre	2023-08-09T00:00:00	2024-11-08T18:00:00	4	Temperatura máxima	20.8
146371	7	Sololá	713	San Lucas Tolimán	10	San Lucas Tolimán	9	Septiembre	2023-08-09T00:00:00	2024-11-08T18:00:00	3	Temperatura mínima	20.2
146372	7	Sololá	713	San Lucas Tolimán	10	San Lucas Tolimán	9	Septiembre	2023-08-09T00:00:00	2024-11-08T18:00:00	5	Humedad	60
146373	7	Sololá	713	San Lucas Tolimán	10	San Lucas Tolimán	9	Septiembre	2023-08-09T00:00:00	2024-11-08T18:00:00	6	Velocidad del viento	6.4
146374	7	Sololá	713	San Lucas Tolimán	10	San Lucas Tolimán	9	Septiembre	2023-08-09T00:00:00	2024-11-08T18:00:00	7	Dirección del viento	6.44
146375	7	Sololá	713	San Lucas Tolimán	10	San Lucas Tolimán	9	Septiembre	2023-08-09T00:00:00	2024-11-08T18:00:00	1	Precipitación	0
146376	7	Sololá	713	San Lucas Tolimán	10	San Lucas Tolimán	9	Septiembre	2023-08-09T00:00:00	2024-11-08T18:00:00	8	Radiación solar	12
146377	7	Sololá	713	San Lucas Tolimán	10	San Lucas Tolimán	9	Septiembre	2023-08-09T00:00:00	2024-11-08T19:00:00	2	Temperatura media	18.2
146378	7	Sololá	713	San Lucas Tolimán	10	San Lucas Tolimán	9	Septiembre	2023-08-09T00:00:00	2024-11-08T19:00:00	4	Temperatura máxima	20.3
146379	7	Sololá	713	San Lucas Tolimán	10	San Lucas Tolimán	9	Septiembre	2023-08-09T00:00:00	2024-11-08T19:00:00	3	Temperatura mínima	18.2
146380	7	Sololá	713	San Lucas Tolimán	10	San Lucas Tolimán	9	Septiembre	2023-08-09T00:00:00	2024-11-08T19:00:00	5	Humedad	68
146381	7	Sololá	713	San Lucas Tolimán	10	San Lucas Tolimán	9	Septiembre	2023-08-09T00:00:00	2024-11-08T19:00:00	6	Velocidad del viento	6.4
146382	7	Sololá	713	San Lucas Tolimán	10	San Lucas Tolimán	9	Septiembre	2023-08-09T00:00:00	2024-11-08T19:00:00	7	Dirección del viento	6.44
146383	7	Sololá	713	San Lucas Tolimán	10	San Lucas Tolimán	9	Septiembre	2023-08-09T00:00:00	2024-11-08T19:00:00	1	Precipitación	4.2
146384	7	Sololá	713	San Lucas Tolimán	10	San Lucas Tolimán	9	Septiembre	2023-08-09T00:00:00	2024-11-08T19:00:00	8	Radiación solar	0
146385	7	Sololá	713	San Lucas Tolimán	10	San Lucas Tolimán	9	Septiembre	2023-08-09T00:00:00	2024-11-08T20:00:00	2	Temperatura media	17.3
146386	7	Sololá	713	San Lucas Tolimán	10	San Lucas Tolimán	9	Septiembre	2023-08-09T00:00:00	2024-11-08T20:00:00	4	Temperatura máxima	18.2
146387	7	Sololá	713	San Lucas Tolimán	10	San Lucas Tolimán	9	Septiembre	2023-08-09T00:00:00	2024-11-08T20:00:00	3	Temperatura mínima	17.2
146388	7	Sololá	713	San Lucas Tolimán	10	San Lucas Tolimán	9	Septiembre	2023-08-09T00:00:00	2024-11-08T20:00:00	5	Humedad	66
146389	7	Sololá	713	San Lucas Tolimán	10	San Lucas Tolimán	9	Septiembre	2023-08-09T00:00:00	2024-11-08T20:00:00	6	Velocidad del viento	9.7
146390	7	Sololá	713	San Lucas Tolimán	10	San Lucas Tolimán	9	Septiembre	2023-08-09T00:00:00	2024-11-08T20:00:00	7	Dirección del viento	9.66
146391	7	Sololá	713	San Lucas Tolimán	10	San Lucas Tolimán	9	Septiembre	2023-08-09T00:00:00	2024-11-08T20:00:00	1	Precipitación	8.4
146392	7	Sololá	713	San Lucas Tolimán	10	San Lucas Tolimán	9	Septiembre	2023-08-09T00:00:00	2024-11-08T20:00:00	8	Radiación solar	0
146393	7	Sololá	713	San Lucas Tolimán	10	San Lucas Tolimán	9	Septiembre	2023-08-09T00:00:00	2024-11-08T21:00:00	2	Temperatura media	17.3
146394	7	Sololá	713	San Lucas Tolimán	10	San Lucas Tolimán	9	Septiembre	2023-08-09T00:00:00	2024-11-08T21:00:00	4	Temperatura máxima	17.7
146395	7	Sololá	713	San Lucas Tolimán	10	San Lucas Tolimán	9	Septiembre	2023-08-09T00:00:00	2024-11-08T21:00:00	3	Temperatura mínima	17.3
146396	7	Sololá	713	San Lucas Tolimán	10	San Lucas Tolimán	9	Septiembre	2023-08-09T00:00:00	2024-11-08T21:00:00	5	Humedad	66
146397	7	Sololá	713	San Lucas Tolimán	10	San Lucas Tolimán	9	Septiembre	2023-08-09T00:00:00	2024-11-08T21:00:00	6	Velocidad del viento	0
146398	7	Sololá	713	San Lucas Tolimán	10	San Lucas Tolimán	9	Septiembre	2023-08-09T00:00:00	2024-11-08T21:00:00	7	Dirección del viento	0
146399	7	Sololá	713	San Lucas Tolimán	10	San Lucas Tolimán	9	Septiembre	2023-08-09T00:00:00	2024-11-08T21:00:00	1	Precipitación	0.6
146400	7	Sololá	713	San Lucas Tolimán	10	San Lucas Tolimán	9	Septiembre	2023-08-09T00:00:00	2024-11-08T21:00:00	8	Radiación solar	0
146401	7	Sololá	713	San Lucas Tolimán	10	San Lucas Tolimán	9	Septiembre	2023-08-09T00:00:00	2024-11-08T22:00:00	2	Temperatura media	18.1
146402	7	Sololá	713	San Lucas Tolimán	10	San Lucas Tolimán	9	Septiembre	2023-08-09T00:00:00	2024-11-08T22:00:00	4	Temperatura máxima	18.1
146403	7	Sololá	713	San Lucas Tolimán	10	San Lucas Tolimán	9	Septiembre	2023-08-09T00:00:00	2024-11-08T22:00:00	3	Temperatura mínima	17.3
146404	7	Sololá	713	San Lucas Tolimán	10	San Lucas Tolimán	9	Septiembre	2023-08-09T00:00:00	2024-11-08T22:00:00	5	Humedad	66
146405	7	Sololá	713	San Lucas Tolimán	10	San Lucas Tolimán	9	Septiembre	2023-08-09T00:00:00	2024-11-08T22:00:00	6	Velocidad del viento	3.2
146406	7	Sololá	713	San Lucas Tolimán	10	San Lucas Tolimán	9	Septiembre	2023-08-09T00:00:00	2024-11-08T22:00:00	7	Dirección del viento	3.22
146407	7	Sololá	713	San Lucas Tolimán	10	San Lucas Tolimán	9	Septiembre	2023-08-09T00:00:00	2024-11-08T22:00:00	1	Precipitación	0
146408	7	Sololá	713	San Lucas Tolimán	10	San Lucas Tolimán	9	Septiembre	2023-08-09T00:00:00	2024-11-08T22:00:00	8	Radiación solar	0
146409	7	Sololá	713	San Lucas Tolimán	10	San Lucas Tolimán	9	Septiembre	2023-08-09T00:00:00	2024-11-08T23:00:00	2	Temperatura media	17.5
146410	7	Sololá	713	San Lucas Tolimán	10	San Lucas Tolimán	9	Septiembre	2023-08-09T00:00:00	2024-11-08T23:00:00	4	Temperatura máxima	18.1
146411	7	Sololá	713	San Lucas Tolimán	10	San Lucas Tolimán	9	Septiembre	2023-08-09T00:00:00	2024-11-08T23:00:00	3	Temperatura mínima	17.4
146412	7	Sololá	713	San Lucas Tolimán	10	San Lucas Tolimán	9	Septiembre	2023-08-09T00:00:00	2024-11-08T23:00:00	5	Humedad	63
146413	7	Sololá	713	San Lucas Tolimán	10	San Lucas Tolimán	9	Septiembre	2023-08-09T00:00:00	2024-11-08T23:00:00	6	Velocidad del viento	3.2
146414	7	Sololá	713	San Lucas Tolimán	10	San Lucas Tolimán	9	Septiembre	2023-08-09T00:00:00	2024-11-08T23:00:00	7	Dirección del viento	3.22
146415	7	Sololá	713	San Lucas Tolimán	10	San Lucas Tolimán	9	Septiembre	2023-08-09T00:00:00	2024-11-08T23:00:00	1	Precipitación	0
146416	7	Sololá	713	San Lucas Tolimán	10	San Lucas Tolimán	9	Septiembre	2023-08-09T00:00:00	2024-11-08T23:00:00	8	Radiación solar	0
146417	7	Sololá	713	San Lucas Tolimán	10	San Lucas Tolimán	9	Septiembre	2023-09-09T00:00:00	2024-11-08T00:00:00	2	Temperatura media	16.7
146418	7	Sololá	713	San Lucas Tolimán	10	San Lucas Tolimán	9	Septiembre	2023-09-09T00:00:00	2024-11-08T00:00:00	4	Temperatura máxima	17.6
146419	7	Sololá	713	San Lucas Tolimán	10	San Lucas Tolimán	9	Septiembre	2023-09-09T00:00:00	2024-11-08T00:00:00	3	Temperatura mínima	16.6
146420	7	Sololá	713	San Lucas Tolimán	10	San Lucas Tolimán	9	Septiembre	2023-09-09T00:00:00	2024-11-08T00:00:00	5	Humedad	65
146421	7	Sololá	713	San Lucas Tolimán	10	San Lucas Tolimán	9	Septiembre	2023-09-09T00:00:00	2024-11-08T00:00:00	6	Velocidad del viento	4.8
146422	7	Sololá	713	San Lucas Tolimán	10	San Lucas Tolimán	9	Septiembre	2023-09-09T00:00:00	2024-11-08T00:00:00	7	Dirección del viento	4.83
146423	7	Sololá	713	San Lucas Tolimán	10	San Lucas Tolimán	9	Septiembre	2023-09-09T00:00:00	2024-11-08T00:00:00	1	Precipitación	0
146424	7	Sololá	713	San Lucas Tolimán	10	San Lucas Tolimán	9	Septiembre	2023-09-09T00:00:00	2024-11-08T00:00:00	8	Radiación solar	0
146425	7	Sololá	713	San Lucas Tolimán	10	San Lucas Tolimán	9	Septiembre	2023-09-09T00:00:00	2024-11-08T01:00:00	2	Temperatura media	16.5
146426	7	Sololá	713	San Lucas Tolimán	10	San Lucas Tolimán	9	Septiembre	2023-09-09T00:00:00	2024-11-08T01:00:00	4	Temperatura máxima	16.7
146427	7	Sololá	713	San Lucas Tolimán	10	San Lucas Tolimán	9	Septiembre	2023-09-09T00:00:00	2024-11-08T01:00:00	3	Temperatura mínima	16.4
146428	7	Sololá	713	San Lucas Tolimán	10	San Lucas Tolimán	9	Septiembre	2023-09-09T00:00:00	2024-11-08T01:00:00	5	Humedad	67
146429	7	Sololá	713	San Lucas Tolimán	10	San Lucas Tolimán	9	Septiembre	2023-09-09T00:00:00	2024-11-08T01:00:00	6	Velocidad del viento	1.6
146430	7	Sololá	713	San Lucas Tolimán	10	San Lucas Tolimán	9	Septiembre	2023-09-09T00:00:00	2024-11-08T01:00:00	7	Dirección del viento	1.61
146431	7	Sololá	713	San Lucas Tolimán	10	San Lucas Tolimán	9	Septiembre	2023-09-09T00:00:00	2024-11-08T01:00:00	1	Precipitación	0
146432	7	Sololá	713	San Lucas Tolimán	10	San Lucas Tolimán	9	Septiembre	2023-09-09T00:00:00	2024-11-08T01:00:00	8	Radiación solar	0
146433	7	Sololá	713	San Lucas Tolimán	10	San Lucas Tolimán	9	Septiembre	2023-09-09T00:00:00	2024-11-08T02:00:00	2	Temperatura media	16.6
146434	7	Sololá	713	San Lucas Tolimán	10	San Lucas Tolimán	9	Septiembre	2023-09-09T00:00:00	2024-11-08T02:00:00	4	Temperatura máxima	16.6
146435	7	Sololá	713	San Lucas Tolimán	10	San Lucas Tolimán	9	Septiembre	2023-09-09T00:00:00	2024-11-08T02:00:00	3	Temperatura mínima	16.3
146436	7	Sololá	713	San Lucas Tolimán	10	San Lucas Tolimán	9	Septiembre	2023-09-09T00:00:00	2024-11-08T02:00:00	5	Humedad	67
146437	7	Sololá	713	San Lucas Tolimán	10	San Lucas Tolimán	9	Septiembre	2023-09-09T00:00:00	2024-11-08T02:00:00	6	Velocidad del viento	1.6
146438	7	Sololá	713	San Lucas Tolimán	10	San Lucas Tolimán	9	Septiembre	2023-09-09T00:00:00	2024-11-08T02:00:00	7	Dirección del viento	1.61
146439	7	Sololá	713	San Lucas Tolimán	10	San Lucas Tolimán	9	Septiembre	2023-09-09T00:00:00	2024-11-08T02:00:00	1	Precipitación	0
146440	7	Sololá	713	San Lucas Tolimán	10	San Lucas Tolimán	9	Septiembre	2023-09-09T00:00:00	2024-11-08T02:00:00	8	Radiación solar	0
146441	7	Sololá	713	San Lucas Tolimán	10	San Lucas Tolimán	9	Septiembre	2023-09-09T00:00:00	2024-11-08T03:00:00	2	Temperatura media	17.6
146442	7	Sololá	713	San Lucas Tolimán	10	San Lucas Tolimán	9	Septiembre	2023-09-09T00:00:00	2024-11-08T03:00:00	4	Temperatura máxima	17.6
146443	7	Sololá	713	San Lucas Tolimán	10	San Lucas Tolimán	9	Septiembre	2023-09-09T00:00:00	2024-11-08T03:00:00	3	Temperatura mínima	16.6
146444	7	Sololá	713	San Lucas Tolimán	10	San Lucas Tolimán	9	Septiembre	2023-09-09T00:00:00	2024-11-08T03:00:00	5	Humedad	63
146445	7	Sololá	713	San Lucas Tolimán	10	San Lucas Tolimán	9	Septiembre	2023-09-09T00:00:00	2024-11-08T03:00:00	6	Velocidad del viento	1.6
146446	7	Sololá	713	San Lucas Tolimán	10	San Lucas Tolimán	9	Septiembre	2023-09-09T00:00:00	2024-11-08T03:00:00	7	Dirección del viento	1.61
146447	7	Sololá	713	San Lucas Tolimán	10	San Lucas Tolimán	9	Septiembre	2023-09-09T00:00:00	2024-11-08T03:00:00	1	Precipitación	0
146448	7	Sololá	713	San Lucas Tolimán	10	San Lucas Tolimán	9	Septiembre	2023-09-09T00:00:00	2024-11-08T03:00:00	8	Radiación solar	0
146449	7	Sololá	713	San Lucas Tolimán	10	San Lucas Tolimán	9	Septiembre	2023-09-09T00:00:00	2024-11-08T04:00:00	2	Temperatura media	17.1
146450	7	Sololá	713	San Lucas Tolimán	10	San Lucas Tolimán	9	Septiembre	2023-09-09T00:00:00	2024-11-08T04:00:00	4	Temperatura máxima	17.6
146451	7	Sololá	713	San Lucas Tolimán	10	San Lucas Tolimán	9	Septiembre	2023-09-09T00:00:00	2024-11-08T04:00:00	3	Temperatura mínima	17.1
146452	7	Sololá	713	San Lucas Tolimán	10	San Lucas Tolimán	9	Septiembre	2023-09-09T00:00:00	2024-11-08T04:00:00	5	Humedad	62
146453	7	Sololá	713	San Lucas Tolimán	10	San Lucas Tolimán	9	Septiembre	2023-09-09T00:00:00	2024-11-08T04:00:00	6	Velocidad del viento	1.6
146454	7	Sololá	713	San Lucas Tolimán	10	San Lucas Tolimán	9	Septiembre	2023-09-09T00:00:00	2024-11-08T04:00:00	7	Dirección del viento	1.61
146455	7	Sololá	713	San Lucas Tolimán	10	San Lucas Tolimán	9	Septiembre	2023-09-09T00:00:00	2024-11-08T04:00:00	1	Precipitación	0
146456	7	Sololá	713	San Lucas Tolimán	10	San Lucas Tolimán	9	Septiembre	2023-09-09T00:00:00	2024-11-08T04:00:00	8	Radiación solar	0
146457	7	Sololá	713	San Lucas Tolimán	10	San Lucas Tolimán	9	Septiembre	2023-09-09T00:00:00	2024-11-08T05:00:00	2	Temperatura media	16.7
146458	7	Sololá	713	San Lucas Tolimán	10	San Lucas Tolimán	9	Septiembre	2023-09-09T00:00:00	2024-11-08T05:00:00	4	Temperatura máxima	17.8
146459	7	Sololá	713	San Lucas Tolimán	10	San Lucas Tolimán	9	Septiembre	2023-09-09T00:00:00	2024-11-08T05:00:00	3	Temperatura mínima	16.7
146460	7	Sololá	713	San Lucas Tolimán	10	San Lucas Tolimán	9	Septiembre	2023-09-09T00:00:00	2024-11-08T05:00:00	5	Humedad	63
146461	7	Sololá	713	San Lucas Tolimán	10	San Lucas Tolimán	9	Septiembre	2023-09-09T00:00:00	2024-11-08T05:00:00	6	Velocidad del viento	1.6
146462	7	Sololá	713	San Lucas Tolimán	10	San Lucas Tolimán	9	Septiembre	2023-09-09T00:00:00	2024-11-08T05:00:00	7	Dirección del viento	1.61
146463	7	Sololá	713	San Lucas Tolimán	10	San Lucas Tolimán	9	Septiembre	2023-09-09T00:00:00	2024-11-08T05:00:00	1	Precipitación	0
146464	7	Sololá	713	San Lucas Tolimán	10	San Lucas Tolimán	9	Septiembre	2023-09-09T00:00:00	2024-11-08T05:00:00	8	Radiación solar	0
146465	7	Sololá	713	San Lucas Tolimán	10	San Lucas Tolimán	9	Septiembre	2023-09-09T00:00:00	2024-11-08T06:00:00	2	Temperatura media	16.3
146466	7	Sololá	713	San Lucas Tolimán	10	San Lucas Tolimán	9	Septiembre	2023-09-09T00:00:00	2024-11-08T06:00:00	4	Temperatura máxima	16.8
146467	7	Sololá	713	San Lucas Tolimán	10	San Lucas Tolimán	9	Septiembre	2023-09-09T00:00:00	2024-11-08T06:00:00	3	Temperatura mínima	16.2
146468	7	Sololá	713	San Lucas Tolimán	10	San Lucas Tolimán	9	Septiembre	2023-09-09T00:00:00	2024-11-08T06:00:00	5	Humedad	63
146469	7	Sololá	713	San Lucas Tolimán	10	San Lucas Tolimán	9	Septiembre	2023-09-09T00:00:00	2024-11-08T06:00:00	6	Velocidad del viento	1.6
146470	7	Sololá	713	San Lucas Tolimán	10	San Lucas Tolimán	9	Septiembre	2023-09-09T00:00:00	2024-11-08T06:00:00	7	Dirección del viento	1.61
146471	7	Sololá	713	San Lucas Tolimán	10	San Lucas Tolimán	9	Septiembre	2023-09-09T00:00:00	2024-11-08T06:00:00	1	Precipitación	0
146472	7	Sololá	713	San Lucas Tolimán	10	San Lucas Tolimán	9	Septiembre	2023-09-09T00:00:00	2024-11-08T06:00:00	8	Radiación solar	2
146473	7	Sololá	713	San Lucas Tolimán	10	San Lucas Tolimán	9	Septiembre	2023-09-09T00:00:00	2024-11-08T07:00:00	2	Temperatura media	17.2
146474	7	Sololá	713	San Lucas Tolimán	10	San Lucas Tolimán	9	Septiembre	2023-09-09T00:00:00	2024-11-08T07:00:00	4	Temperatura máxima	17.2
146475	7	Sololá	713	San Lucas Tolimán	10	San Lucas Tolimán	9	Septiembre	2023-09-09T00:00:00	2024-11-08T07:00:00	3	Temperatura mínima	16.1
146476	7	Sololá	713	San Lucas Tolimán	10	San Lucas Tolimán	9	Septiembre	2023-09-09T00:00:00	2024-11-08T07:00:00	5	Humedad	62
146477	7	Sololá	713	San Lucas Tolimán	10	San Lucas Tolimán	9	Septiembre	2023-09-09T00:00:00	2024-11-08T07:00:00	6	Velocidad del viento	1.6
146478	7	Sololá	713	San Lucas Tolimán	10	San Lucas Tolimán	9	Septiembre	2023-09-09T00:00:00	2024-11-08T07:00:00	7	Dirección del viento	1.61
146479	7	Sololá	713	San Lucas Tolimán	10	San Lucas Tolimán	9	Septiembre	2023-09-09T00:00:00	2024-11-08T07:00:00	1	Precipitación	0
146480	7	Sololá	713	San Lucas Tolimán	10	San Lucas Tolimán	9	Septiembre	2023-09-09T00:00:00	2024-11-08T07:00:00	8	Radiación solar	49
146481	7	Sololá	713	San Lucas Tolimán	10	San Lucas Tolimán	9	Septiembre	2023-09-09T00:00:00	2024-11-08T08:00:00	2	Temperatura media	19.2
146482	7	Sololá	713	San Lucas Tolimán	10	San Lucas Tolimán	9	Septiembre	2023-09-09T00:00:00	2024-11-08T08:00:00	4	Temperatura máxima	19.3
146483	7	Sololá	713	San Lucas Tolimán	10	San Lucas Tolimán	9	Septiembre	2023-09-09T00:00:00	2024-11-08T08:00:00	3	Temperatura mínima	17.2
146484	7	Sololá	713	San Lucas Tolimán	10	San Lucas Tolimán	9	Septiembre	2023-09-09T00:00:00	2024-11-08T08:00:00	5	Humedad	60
146485	7	Sololá	713	San Lucas Tolimán	10	San Lucas Tolimán	9	Septiembre	2023-09-09T00:00:00	2024-11-08T08:00:00	6	Velocidad del viento	1.6
146486	7	Sololá	713	San Lucas Tolimán	10	San Lucas Tolimán	9	Septiembre	2023-09-09T00:00:00	2024-11-08T08:00:00	7	Dirección del viento	1.61
146487	7	Sololá	713	San Lucas Tolimán	10	San Lucas Tolimán	9	Septiembre	2023-09-09T00:00:00	2024-11-08T08:00:00	1	Precipitación	0
146488	7	Sololá	713	San Lucas Tolimán	10	San Lucas Tolimán	9	Septiembre	2023-09-09T00:00:00	2024-11-08T08:00:00	8	Radiación solar	175
146489	7	Sololá	713	San Lucas Tolimán	10	San Lucas Tolimán	9	Septiembre	2023-09-09T00:00:00	2024-11-08T09:00:00	2	Temperatura media	21.6
146490	7	Sololá	713	San Lucas Tolimán	10	San Lucas Tolimán	9	Septiembre	2023-09-09T00:00:00	2024-11-08T09:00:00	4	Temperatura máxima	21.8
146491	7	Sololá	713	San Lucas Tolimán	10	San Lucas Tolimán	9	Septiembre	2023-09-09T00:00:00	2024-11-08T09:00:00	3	Temperatura mínima	19.2
146492	7	Sololá	713	San Lucas Tolimán	10	San Lucas Tolimán	9	Septiembre	2023-09-09T00:00:00	2024-11-08T09:00:00	5	Humedad	53
146493	7	Sololá	713	San Lucas Tolimán	10	San Lucas Tolimán	9	Septiembre	2023-09-09T00:00:00	2024-11-08T09:00:00	6	Velocidad del viento	1.6
146494	7	Sololá	713	San Lucas Tolimán	10	San Lucas Tolimán	9	Septiembre	2023-09-09T00:00:00	2024-11-08T09:00:00	7	Dirección del viento	1.61
146495	7	Sololá	713	San Lucas Tolimán	10	San Lucas Tolimán	9	Septiembre	2023-09-09T00:00:00	2024-11-08T09:00:00	1	Precipitación	0
146496	7	Sololá	713	San Lucas Tolimán	10	San Lucas Tolimán	9	Septiembre	2023-09-09T00:00:00	2024-11-08T09:00:00	8	Radiación solar	446
146497	7	Sololá	713	San Lucas Tolimán	10	San Lucas Tolimán	9	Septiembre	2023-09-09T00:00:00	2024-11-08T10:00:00	2	Temperatura media	22.9
146498	7	Sololá	713	San Lucas Tolimán	10	San Lucas Tolimán	9	Septiembre	2023-09-09T00:00:00	2024-11-08T10:00:00	4	Temperatura máxima	22.9
146499	7	Sololá	713	San Lucas Tolimán	10	San Lucas Tolimán	9	Septiembre	2023-09-09T00:00:00	2024-11-08T10:00:00	3	Temperatura mínima	21.5
146500	7	Sololá	713	San Lucas Tolimán	10	San Lucas Tolimán	9	Septiembre	2023-09-09T00:00:00	2024-11-08T10:00:00	5	Humedad	53
146501	7	Sololá	713	San Lucas Tolimán	10	San Lucas Tolimán	9	Septiembre	2023-09-09T00:00:00	2024-11-08T10:00:00	6	Velocidad del viento	4.8
146502	7	Sololá	713	San Lucas Tolimán	10	San Lucas Tolimán	9	Septiembre	2023-09-09T00:00:00	2024-11-08T10:00:00	7	Dirección del viento	4.83
146503	7	Sololá	713	San Lucas Tolimán	10	San Lucas Tolimán	9	Septiembre	2023-09-09T00:00:00	2024-11-08T10:00:00	1	Precipitación	0
146504	7	Sololá	713	San Lucas Tolimán	10	San Lucas Tolimán	9	Septiembre	2023-09-09T00:00:00	2024-11-08T10:00:00	8	Radiación solar	713
146505	7	Sololá	713	San Lucas Tolimán	10	San Lucas Tolimán	9	Septiembre	2023-09-09T00:00:00	2024-11-08T11:00:00	2	Temperatura media	23.4
146506	7	Sololá	713	San Lucas Tolimán	10	San Lucas Tolimán	9	Septiembre	2023-09-09T00:00:00	2024-11-08T11:00:00	4	Temperatura máxima	23.4
146507	7	Sololá	713	San Lucas Tolimán	10	San Lucas Tolimán	9	Septiembre	2023-09-09T00:00:00	2024-11-08T11:00:00	3	Temperatura mínima	21.6
146508	7	Sololá	713	San Lucas Tolimán	10	San Lucas Tolimán	9	Septiembre	2023-09-09T00:00:00	2024-11-08T11:00:00	5	Humedad	50
146509	7	Sololá	713	San Lucas Tolimán	10	San Lucas Tolimán	9	Septiembre	2023-09-09T00:00:00	2024-11-08T11:00:00	6	Velocidad del viento	8
146510	7	Sololá	713	San Lucas Tolimán	10	San Lucas Tolimán	9	Septiembre	2023-09-09T00:00:00	2024-11-08T11:00:00	7	Dirección del viento	8.05
146511	7	Sololá	713	San Lucas Tolimán	10	San Lucas Tolimán	9	Septiembre	2023-09-09T00:00:00	2024-11-08T11:00:00	1	Precipitación	0
146512	7	Sololá	713	San Lucas Tolimán	10	San Lucas Tolimán	9	Septiembre	2023-09-09T00:00:00	2024-11-08T11:00:00	8	Radiación solar	879
146513	7	Sololá	713	San Lucas Tolimán	10	San Lucas Tolimán	9	Septiembre	2023-09-09T00:00:00	2024-11-08T12:00:00	2	Temperatura media	23.4
146514	7	Sololá	713	San Lucas Tolimán	10	San Lucas Tolimán	9	Septiembre	2023-09-09T00:00:00	2024-11-08T12:00:00	4	Temperatura máxima	23.6
146515	7	Sololá	713	San Lucas Tolimán	10	San Lucas Tolimán	9	Septiembre	2023-09-09T00:00:00	2024-11-08T12:00:00	3	Temperatura mínima	23.1
146516	7	Sololá	713	San Lucas Tolimán	10	San Lucas Tolimán	9	Septiembre	2023-09-09T00:00:00	2024-11-08T12:00:00	5	Humedad	55
146517	7	Sololá	713	San Lucas Tolimán	10	San Lucas Tolimán	9	Septiembre	2023-09-09T00:00:00	2024-11-08T12:00:00	6	Velocidad del viento	9.7
146518	7	Sololá	713	San Lucas Tolimán	10	San Lucas Tolimán	9	Septiembre	2023-09-09T00:00:00	2024-11-08T12:00:00	7	Dirección del viento	9.66
146519	7	Sololá	713	San Lucas Tolimán	10	San Lucas Tolimán	9	Septiembre	2023-09-09T00:00:00	2024-11-08T12:00:00	1	Precipitación	0
146520	7	Sololá	713	San Lucas Tolimán	10	San Lucas Tolimán	9	Septiembre	2023-09-09T00:00:00	2024-11-08T12:00:00	8	Radiación solar	997
146521	7	Sololá	713	San Lucas Tolimán	10	San Lucas Tolimán	9	Septiembre	2023-09-09T00:00:00	2024-11-08T13:00:00	2	Temperatura media	23.6
146522	7	Sololá	713	San Lucas Tolimán	10	San Lucas Tolimán	9	Septiembre	2023-09-09T00:00:00	2024-11-08T13:00:00	4	Temperatura máxima	24.3
146523	7	Sololá	713	San Lucas Tolimán	10	San Lucas Tolimán	9	Septiembre	2023-09-09T00:00:00	2024-11-08T13:00:00	3	Temperatura mínima	23.4
146524	7	Sololá	713	San Lucas Tolimán	10	San Lucas Tolimán	9	Septiembre	2023-09-09T00:00:00	2024-11-08T13:00:00	5	Humedad	56
146525	7	Sololá	713	San Lucas Tolimán	10	San Lucas Tolimán	9	Septiembre	2023-09-09T00:00:00	2024-11-08T13:00:00	6	Velocidad del viento	9.7
146526	7	Sololá	713	San Lucas Tolimán	10	San Lucas Tolimán	9	Septiembre	2023-09-09T00:00:00	2024-11-08T13:00:00	7	Dirección del viento	9.66
146527	7	Sololá	713	San Lucas Tolimán	10	San Lucas Tolimán	9	Septiembre	2023-09-09T00:00:00	2024-11-08T13:00:00	1	Precipitación	0
146528	7	Sololá	713	San Lucas Tolimán	10	San Lucas Tolimán	9	Septiembre	2023-09-09T00:00:00	2024-11-08T13:00:00	8	Radiación solar	968
146529	7	Sololá	713	San Lucas Tolimán	10	San Lucas Tolimán	9	Septiembre	2023-09-09T00:00:00	2024-11-08T14:00:00	2	Temperatura media	22.7
146530	7	Sololá	713	San Lucas Tolimán	10	San Lucas Tolimán	9	Septiembre	2023-09-09T00:00:00	2024-11-08T14:00:00	4	Temperatura máxima	24.8
146531	7	Sololá	713	San Lucas Tolimán	10	San Lucas Tolimán	9	Septiembre	2023-09-09T00:00:00	2024-11-08T14:00:00	3	Temperatura mínima	22.7
146532	7	Sololá	713	San Lucas Tolimán	10	San Lucas Tolimán	9	Septiembre	2023-09-09T00:00:00	2024-11-08T14:00:00	5	Humedad	61
146533	7	Sololá	713	San Lucas Tolimán	10	San Lucas Tolimán	9	Septiembre	2023-09-09T00:00:00	2024-11-08T14:00:00	6	Velocidad del viento	9.7
146534	7	Sololá	713	San Lucas Tolimán	10	San Lucas Tolimán	9	Septiembre	2023-09-09T00:00:00	2024-11-08T14:00:00	7	Dirección del viento	9.66
146535	7	Sololá	713	San Lucas Tolimán	10	San Lucas Tolimán	9	Septiembre	2023-09-09T00:00:00	2024-11-08T14:00:00	1	Precipitación	0
146536	7	Sololá	713	San Lucas Tolimán	10	San Lucas Tolimán	9	Septiembre	2023-09-09T00:00:00	2024-11-08T14:00:00	8	Radiación solar	932
146537	7	Sololá	713	San Lucas Tolimán	10	San Lucas Tolimán	9	Septiembre	2023-09-09T00:00:00	2024-11-08T15:00:00	2	Temperatura media	19.9
146538	7	Sololá	713	San Lucas Tolimán	10	San Lucas Tolimán	9	Septiembre	2023-09-09T00:00:00	2024-11-08T15:00:00	4	Temperatura máxima	23.1
146539	7	Sololá	713	San Lucas Tolimán	10	San Lucas Tolimán	9	Septiembre	2023-09-09T00:00:00	2024-11-08T15:00:00	3	Temperatura mínima	19.8
146540	7	Sololá	713	San Lucas Tolimán	10	San Lucas Tolimán	9	Septiembre	2023-09-09T00:00:00	2024-11-08T15:00:00	5	Humedad	64
146541	7	Sololá	713	San Lucas Tolimán	10	San Lucas Tolimán	9	Septiembre	2023-09-09T00:00:00	2024-11-08T15:00:00	6	Velocidad del viento	9.7
146542	7	Sololá	713	San Lucas Tolimán	10	San Lucas Tolimán	9	Septiembre	2023-09-09T00:00:00	2024-11-08T15:00:00	7	Dirección del viento	9.66
146543	7	Sololá	713	San Lucas Tolimán	10	San Lucas Tolimán	9	Septiembre	2023-09-09T00:00:00	2024-11-08T15:00:00	1	Precipitación	1.8
146544	7	Sololá	713	San Lucas Tolimán	10	San Lucas Tolimán	9	Septiembre	2023-09-09T00:00:00	2024-11-08T15:00:00	8	Radiación solar	221
146545	7	Sololá	713	San Lucas Tolimán	10	San Lucas Tolimán	9	Septiembre	2023-09-09T00:00:00	2024-11-08T16:00:00	2	Temperatura media	18.7
146546	7	Sololá	713	San Lucas Tolimán	10	San Lucas Tolimán	9	Septiembre	2023-09-09T00:00:00	2024-11-08T16:00:00	4	Temperatura máxima	19.9
146547	7	Sololá	713	San Lucas Tolimán	10	San Lucas Tolimán	9	Septiembre	2023-09-09T00:00:00	2024-11-08T16:00:00	3	Temperatura mínima	18.7
146548	7	Sololá	713	San Lucas Tolimán	10	San Lucas Tolimán	9	Septiembre	2023-09-09T00:00:00	2024-11-08T16:00:00	5	Humedad	63
146549	7	Sololá	713	San Lucas Tolimán	10	San Lucas Tolimán	9	Septiembre	2023-09-09T00:00:00	2024-11-08T16:00:00	6	Velocidad del viento	11.3
146550	7	Sololá	713	San Lucas Tolimán	10	San Lucas Tolimán	9	Septiembre	2023-09-09T00:00:00	2024-11-08T16:00:00	7	Dirección del viento	11.27
146551	7	Sololá	713	San Lucas Tolimán	10	San Lucas Tolimán	9	Septiembre	2023-09-09T00:00:00	2024-11-08T16:00:00	1	Precipitación	0.8
146552	7	Sololá	713	San Lucas Tolimán	10	San Lucas Tolimán	9	Septiembre	2023-09-09T00:00:00	2024-11-08T16:00:00	8	Radiación solar	59
146553	7	Sololá	713	San Lucas Tolimán	10	San Lucas Tolimán	9	Septiembre	2023-09-09T00:00:00	2024-11-08T17:00:00	2	Temperatura media	18.1
146554	7	Sololá	713	San Lucas Tolimán	10	San Lucas Tolimán	9	Septiembre	2023-09-09T00:00:00	2024-11-08T17:00:00	4	Temperatura máxima	18.7
146555	7	Sololá	713	San Lucas Tolimán	10	San Lucas Tolimán	9	Septiembre	2023-09-09T00:00:00	2024-11-08T17:00:00	3	Temperatura mínima	18.1
146556	7	Sololá	713	San Lucas Tolimán	10	San Lucas Tolimán	9	Septiembre	2023-09-09T00:00:00	2024-11-08T17:00:00	5	Humedad	64
146557	7	Sololá	713	San Lucas Tolimán	10	San Lucas Tolimán	9	Septiembre	2023-09-09T00:00:00	2024-11-08T17:00:00	6	Velocidad del viento	3.2
146558	7	Sololá	713	San Lucas Tolimán	10	San Lucas Tolimán	9	Septiembre	2023-09-09T00:00:00	2024-11-08T17:00:00	7	Dirección del viento	3.22
146559	7	Sololá	713	San Lucas Tolimán	10	San Lucas Tolimán	9	Septiembre	2023-09-09T00:00:00	2024-11-08T17:00:00	1	Precipitación	2.4
146560	7	Sololá	713	San Lucas Tolimán	10	San Lucas Tolimán	9	Septiembre	2023-09-09T00:00:00	2024-11-08T17:00:00	8	Radiación solar	17
146561	7	Sololá	713	San Lucas Tolimán	10	San Lucas Tolimán	9	Septiembre	2023-09-09T00:00:00	2024-11-08T18:00:00	2	Temperatura media	18.5
146562	7	Sololá	713	San Lucas Tolimán	10	San Lucas Tolimán	9	Septiembre	2023-09-09T00:00:00	2024-11-08T18:00:00	4	Temperatura máxima	18.5
146563	7	Sololá	713	San Lucas Tolimán	10	San Lucas Tolimán	9	Septiembre	2023-09-09T00:00:00	2024-11-08T18:00:00	3	Temperatura mínima	18.1
146564	7	Sololá	713	San Lucas Tolimán	10	San Lucas Tolimán	9	Septiembre	2023-09-09T00:00:00	2024-11-08T18:00:00	5	Humedad	66
146565	7	Sololá	713	San Lucas Tolimán	10	San Lucas Tolimán	9	Septiembre	2023-09-09T00:00:00	2024-11-08T18:00:00	6	Velocidad del viento	1.6
146566	7	Sololá	713	San Lucas Tolimán	10	San Lucas Tolimán	9	Septiembre	2023-09-09T00:00:00	2024-11-08T18:00:00	7	Dirección del viento	1.61
146567	7	Sololá	713	San Lucas Tolimán	10	San Lucas Tolimán	9	Septiembre	2023-09-09T00:00:00	2024-11-08T18:00:00	1	Precipitación	0.4
146568	7	Sololá	713	San Lucas Tolimán	10	San Lucas Tolimán	9	Septiembre	2023-09-09T00:00:00	2024-11-08T18:00:00	8	Radiación solar	12
146569	7	Sololá	713	San Lucas Tolimán	10	San Lucas Tolimán	9	Septiembre	2023-09-09T00:00:00	2024-11-08T19:00:00	2	Temperatura media	18.5
146570	7	Sololá	713	San Lucas Tolimán	10	San Lucas Tolimán	9	Septiembre	2023-09-09T00:00:00	2024-11-08T19:00:00	4	Temperatura máxima	18.8
146571	7	Sololá	713	San Lucas Tolimán	10	San Lucas Tolimán	9	Septiembre	2023-09-09T00:00:00	2024-11-08T19:00:00	3	Temperatura mínima	18.4
146572	7	Sololá	713	San Lucas Tolimán	10	San Lucas Tolimán	9	Septiembre	2023-09-09T00:00:00	2024-11-08T19:00:00	5	Humedad	66
146573	7	Sololá	713	San Lucas Tolimán	10	San Lucas Tolimán	9	Septiembre	2023-09-09T00:00:00	2024-11-08T19:00:00	6	Velocidad del viento	1.6
146574	7	Sololá	713	San Lucas Tolimán	10	San Lucas Tolimán	9	Septiembre	2023-09-09T00:00:00	2024-11-08T19:00:00	7	Dirección del viento	1.61
146575	7	Sololá	713	San Lucas Tolimán	10	San Lucas Tolimán	9	Septiembre	2023-09-09T00:00:00	2024-11-08T19:00:00	1	Precipitación	0.2
146576	7	Sololá	713	San Lucas Tolimán	10	San Lucas Tolimán	9	Septiembre	2023-09-09T00:00:00	2024-11-08T19:00:00	8	Radiación solar	0
146577	7	Sololá	713	San Lucas Tolimán	10	San Lucas Tolimán	9	Septiembre	2023-09-09T00:00:00	2024-11-08T20:00:00	2	Temperatura media	18.6
146578	7	Sololá	713	San Lucas Tolimán	10	San Lucas Tolimán	9	Septiembre	2023-09-09T00:00:00	2024-11-08T20:00:00	4	Temperatura máxima	18.6
146579	7	Sololá	713	San Lucas Tolimán	10	San Lucas Tolimán	9	Septiembre	2023-09-09T00:00:00	2024-11-08T20:00:00	3	Temperatura mínima	18.3
146580	7	Sololá	713	San Lucas Tolimán	10	San Lucas Tolimán	9	Septiembre	2023-09-09T00:00:00	2024-11-08T20:00:00	5	Humedad	66
146581	7	Sololá	713	San Lucas Tolimán	10	San Lucas Tolimán	9	Septiembre	2023-09-09T00:00:00	2024-11-08T20:00:00	6	Velocidad del viento	1.6
146582	7	Sololá	713	San Lucas Tolimán	10	San Lucas Tolimán	9	Septiembre	2023-09-09T00:00:00	2024-11-08T20:00:00	7	Dirección del viento	1.61
146583	7	Sololá	713	San Lucas Tolimán	10	San Lucas Tolimán	9	Septiembre	2023-09-09T00:00:00	2024-11-08T20:00:00	1	Precipitación	0.2
146584	7	Sololá	713	San Lucas Tolimán	10	San Lucas Tolimán	9	Septiembre	2023-09-09T00:00:00	2024-11-08T20:00:00	8	Radiación solar	0
146585	7	Sololá	713	San Lucas Tolimán	10	San Lucas Tolimán	9	Septiembre	2023-09-09T00:00:00	2024-11-08T21:00:00	2	Temperatura media	18.1
146586	7	Sololá	713	San Lucas Tolimán	10	San Lucas Tolimán	9	Septiembre	2023-09-09T00:00:00	2024-11-08T21:00:00	4	Temperatura máxima	18.7
146587	7	Sololá	713	San Lucas Tolimán	10	San Lucas Tolimán	9	Septiembre	2023-09-09T00:00:00	2024-11-08T21:00:00	3	Temperatura mínima	18.1
146588	7	Sololá	713	San Lucas Tolimán	10	San Lucas Tolimán	9	Septiembre	2023-09-09T00:00:00	2024-11-08T21:00:00	5	Humedad	66
146589	7	Sololá	713	San Lucas Tolimán	10	San Lucas Tolimán	9	Septiembre	2023-09-09T00:00:00	2024-11-08T21:00:00	6	Velocidad del viento	3.2
146590	7	Sololá	713	San Lucas Tolimán	10	San Lucas Tolimán	9	Septiembre	2023-09-09T00:00:00	2024-11-08T21:00:00	7	Dirección del viento	3.22
146591	7	Sololá	713	San Lucas Tolimán	10	San Lucas Tolimán	9	Septiembre	2023-09-09T00:00:00	2024-11-08T21:00:00	1	Precipitación	0
146592	7	Sololá	713	San Lucas Tolimán	10	San Lucas Tolimán	9	Septiembre	2023-09-09T00:00:00	2024-11-08T21:00:00	8	Radiación solar	0
146593	7	Sololá	713	San Lucas Tolimán	10	San Lucas Tolimán	9	Septiembre	2023-09-09T00:00:00	2024-11-08T22:00:00	2	Temperatura media	18.2
146594	7	Sololá	713	San Lucas Tolimán	10	San Lucas Tolimán	9	Septiembre	2023-09-09T00:00:00	2024-11-08T22:00:00	4	Temperatura máxima	18.2
146595	7	Sololá	713	San Lucas Tolimán	10	San Lucas Tolimán	9	Septiembre	2023-09-09T00:00:00	2024-11-08T22:00:00	3	Temperatura mínima	17.9
146596	7	Sololá	713	San Lucas Tolimán	10	San Lucas Tolimán	9	Septiembre	2023-09-09T00:00:00	2024-11-08T22:00:00	5	Humedad	66
146597	7	Sololá	713	San Lucas Tolimán	10	San Lucas Tolimán	9	Septiembre	2023-09-09T00:00:00	2024-11-08T22:00:00	6	Velocidad del viento	1.6
146598	7	Sololá	713	San Lucas Tolimán	10	San Lucas Tolimán	9	Septiembre	2023-09-09T00:00:00	2024-11-08T22:00:00	7	Dirección del viento	1.61
146599	7	Sololá	713	San Lucas Tolimán	10	San Lucas Tolimán	9	Septiembre	2023-09-09T00:00:00	2024-11-08T22:00:00	1	Precipitación	0
146600	7	Sololá	713	San Lucas Tolimán	10	San Lucas Tolimán	9	Septiembre	2023-09-09T00:00:00	2024-11-08T22:00:00	8	Radiación solar	0
146601	7	Sololá	713	San Lucas Tolimán	10	San Lucas Tolimán	9	Septiembre	2023-09-09T00:00:00	2024-11-08T23:00:00	2	Temperatura media	18.2
146602	7	Sololá	713	San Lucas Tolimán	10	San Lucas Tolimán	9	Septiembre	2023-09-09T00:00:00	2024-11-08T23:00:00	4	Temperatura máxima	18.3
146603	7	Sololá	713	San Lucas Tolimán	10	San Lucas Tolimán	9	Septiembre	2023-09-09T00:00:00	2024-11-08T23:00:00	3	Temperatura mínima	18.1
146604	7	Sololá	713	San Lucas Tolimán	10	San Lucas Tolimán	9	Septiembre	2023-09-09T00:00:00	2024-11-08T23:00:00	5	Humedad	67
146605	7	Sololá	713	San Lucas Tolimán	10	San Lucas Tolimán	9	Septiembre	2023-09-09T00:00:00	2024-11-08T23:00:00	6	Velocidad del viento	1.6
146606	7	Sololá	713	San Lucas Tolimán	10	San Lucas Tolimán	9	Septiembre	2023-09-09T00:00:00	2024-11-08T23:00:00	7	Dirección del viento	1.61
146607	7	Sololá	713	San Lucas Tolimán	10	San Lucas Tolimán	9	Septiembre	2023-09-09T00:00:00	2024-11-08T23:00:00	1	Precipitación	0
146608	7	Sololá	713	San Lucas Tolimán	10	San Lucas Tolimán	9	Septiembre	2023-09-09T00:00:00	2024-11-08T23:00:00	8	Radiación solar	0
146609	7	Sololá	713	San Lucas Tolimán	10	San Lucas Tolimán	9	Septiembre	2023-10-09T00:00:00	2024-11-08T00:00:00	2	Temperatura media	17.9
146610	7	Sololá	713	San Lucas Tolimán	10	San Lucas Tolimán	9	Septiembre	2023-10-09T00:00:00	2024-11-08T00:00:00	4	Temperatura máxima	18.3
146611	7	Sololá	713	San Lucas Tolimán	10	San Lucas Tolimán	9	Septiembre	2023-10-09T00:00:00	2024-11-08T00:00:00	3	Temperatura mínima	17.9
146612	7	Sololá	713	San Lucas Tolimán	10	San Lucas Tolimán	9	Septiembre	2023-10-09T00:00:00	2024-11-08T00:00:00	5	Humedad	65
146613	7	Sololá	713	San Lucas Tolimán	10	San Lucas Tolimán	9	Septiembre	2023-10-09T00:00:00	2024-11-08T00:00:00	6	Velocidad del viento	1.6
146614	7	Sololá	713	San Lucas Tolimán	10	San Lucas Tolimán	9	Septiembre	2023-10-09T00:00:00	2024-11-08T00:00:00	7	Dirección del viento	1.61
146615	7	Sololá	713	San Lucas Tolimán	10	San Lucas Tolimán	9	Septiembre	2023-10-09T00:00:00	2024-11-08T00:00:00	1	Precipitación	0
146616	7	Sololá	713	San Lucas Tolimán	10	San Lucas Tolimán	9	Septiembre	2023-10-09T00:00:00	2024-11-08T00:00:00	8	Radiación solar	0
146617	7	Sololá	713	San Lucas Tolimán	10	San Lucas Tolimán	9	Septiembre	2023-10-09T00:00:00	2024-11-08T01:00:00	2	Temperatura media	18.2
146618	7	Sololá	713	San Lucas Tolimán	10	San Lucas Tolimán	9	Septiembre	2023-10-09T00:00:00	2024-11-08T01:00:00	4	Temperatura máxima	18.9
146619	7	Sololá	713	San Lucas Tolimán	10	San Lucas Tolimán	9	Septiembre	2023-10-09T00:00:00	2024-11-08T01:00:00	3	Temperatura mínima	17.7
146620	7	Sololá	713	San Lucas Tolimán	10	San Lucas Tolimán	9	Septiembre	2023-10-09T00:00:00	2024-11-08T01:00:00	5	Humedad	63
146621	7	Sololá	713	San Lucas Tolimán	10	San Lucas Tolimán	9	Septiembre	2023-10-09T00:00:00	2024-11-08T01:00:00	6	Velocidad del viento	3.2
146622	7	Sololá	713	San Lucas Tolimán	10	San Lucas Tolimán	9	Septiembre	2023-10-09T00:00:00	2024-11-08T01:00:00	7	Dirección del viento	3.22
146623	7	Sololá	713	San Lucas Tolimán	10	San Lucas Tolimán	9	Septiembre	2023-10-09T00:00:00	2024-11-08T01:00:00	1	Precipitación	0
146624	7	Sololá	713	San Lucas Tolimán	10	San Lucas Tolimán	9	Septiembre	2023-10-09T00:00:00	2024-11-08T01:00:00	8	Radiación solar	0
146625	7	Sololá	713	San Lucas Tolimán	10	San Lucas Tolimán	9	Septiembre	2023-10-09T00:00:00	2024-11-08T02:00:00	2	Temperatura media	17.7
146626	7	Sololá	713	San Lucas Tolimán	10	San Lucas Tolimán	9	Septiembre	2023-10-09T00:00:00	2024-11-08T02:00:00	4	Temperatura máxima	18.2
146627	7	Sololá	713	San Lucas Tolimán	10	San Lucas Tolimán	9	Septiembre	2023-10-09T00:00:00	2024-11-08T02:00:00	3	Temperatura mínima	17.6
146628	7	Sololá	713	San Lucas Tolimán	10	San Lucas Tolimán	9	Septiembre	2023-10-09T00:00:00	2024-11-08T02:00:00	5	Humedad	64
146629	7	Sololá	713	San Lucas Tolimán	10	San Lucas Tolimán	9	Septiembre	2023-10-09T00:00:00	2024-11-08T02:00:00	6	Velocidad del viento	3.2
146630	7	Sololá	713	San Lucas Tolimán	10	San Lucas Tolimán	9	Septiembre	2023-10-09T00:00:00	2024-11-08T02:00:00	7	Dirección del viento	3.22
146631	7	Sololá	713	San Lucas Tolimán	10	San Lucas Tolimán	9	Septiembre	2023-10-09T00:00:00	2024-11-08T02:00:00	1	Precipitación	0
146632	7	Sololá	713	San Lucas Tolimán	10	San Lucas Tolimán	9	Septiembre	2023-10-09T00:00:00	2024-11-08T02:00:00	8	Radiación solar	0
146633	7	Sololá	713	San Lucas Tolimán	10	San Lucas Tolimán	9	Septiembre	2023-10-09T00:00:00	2024-11-08T03:00:00	2	Temperatura media	17.4
146634	7	Sololá	713	San Lucas Tolimán	10	San Lucas Tolimán	9	Septiembre	2023-10-09T00:00:00	2024-11-08T03:00:00	4	Temperatura máxima	17.8
146635	7	Sololá	713	San Lucas Tolimán	10	San Lucas Tolimán	9	Septiembre	2023-10-09T00:00:00	2024-11-08T03:00:00	3	Temperatura mínima	17.2
146636	7	Sololá	713	San Lucas Tolimán	10	San Lucas Tolimán	9	Septiembre	2023-10-09T00:00:00	2024-11-08T03:00:00	5	Humedad	65
146637	7	Sololá	713	San Lucas Tolimán	10	San Lucas Tolimán	9	Septiembre	2023-10-09T00:00:00	2024-11-08T03:00:00	6	Velocidad del viento	4.8
146638	7	Sololá	713	San Lucas Tolimán	10	San Lucas Tolimán	9	Septiembre	2023-10-09T00:00:00	2024-11-08T03:00:00	7	Dirección del viento	4.83
146639	7	Sololá	713	San Lucas Tolimán	10	San Lucas Tolimán	9	Septiembre	2023-10-09T00:00:00	2024-11-08T03:00:00	1	Precipitación	0
146640	7	Sololá	713	San Lucas Tolimán	10	San Lucas Tolimán	9	Septiembre	2023-10-09T00:00:00	2024-11-08T03:00:00	8	Radiación solar	0
146641	7	Sololá	713	San Lucas Tolimán	10	San Lucas Tolimán	9	Septiembre	2023-10-09T00:00:00	2024-11-08T04:00:00	2	Temperatura media	17.2
146642	7	Sololá	713	San Lucas Tolimán	10	San Lucas Tolimán	9	Septiembre	2023-10-09T00:00:00	2024-11-08T04:00:00	4	Temperatura máxima	17.8
146643	7	Sololá	713	San Lucas Tolimán	10	San Lucas Tolimán	9	Septiembre	2023-10-09T00:00:00	2024-11-08T04:00:00	3	Temperatura mínima	17.1
146644	7	Sololá	713	San Lucas Tolimán	10	San Lucas Tolimán	9	Septiembre	2023-10-09T00:00:00	2024-11-08T04:00:00	5	Humedad	64
146645	7	Sololá	713	San Lucas Tolimán	10	San Lucas Tolimán	9	Septiembre	2023-10-09T00:00:00	2024-11-08T04:00:00	6	Velocidad del viento	4.8
146646	7	Sololá	713	San Lucas Tolimán	10	San Lucas Tolimán	9	Septiembre	2023-10-09T00:00:00	2024-11-08T04:00:00	7	Dirección del viento	4.83
146647	7	Sololá	713	San Lucas Tolimán	10	San Lucas Tolimán	9	Septiembre	2023-10-09T00:00:00	2024-11-08T04:00:00	1	Precipitación	0
146648	7	Sololá	713	San Lucas Tolimán	10	San Lucas Tolimán	9	Septiembre	2023-10-09T00:00:00	2024-11-08T04:00:00	8	Radiación solar	0
146649	7	Sololá	713	San Lucas Tolimán	10	San Lucas Tolimán	9	Septiembre	2023-10-09T00:00:00	2024-11-08T05:00:00	2	Temperatura media	17.2
146650	7	Sololá	713	San Lucas Tolimán	10	San Lucas Tolimán	9	Septiembre	2023-10-09T00:00:00	2024-11-08T05:00:00	4	Temperatura máxima	17.3
146651	7	Sololá	713	San Lucas Tolimán	10	San Lucas Tolimán	9	Septiembre	2023-10-09T00:00:00	2024-11-08T05:00:00	3	Temperatura mínima	16.9
146652	7	Sololá	713	San Lucas Tolimán	10	San Lucas Tolimán	9	Septiembre	2023-10-09T00:00:00	2024-11-08T05:00:00	5	Humedad	62
146653	7	Sololá	713	San Lucas Tolimán	10	San Lucas Tolimán	9	Septiembre	2023-10-09T00:00:00	2024-11-08T05:00:00	6	Velocidad del viento	1.6
146654	7	Sololá	713	San Lucas Tolimán	10	San Lucas Tolimán	9	Septiembre	2023-10-09T00:00:00	2024-11-08T05:00:00	7	Dirección del viento	1.61
146655	7	Sololá	713	San Lucas Tolimán	10	San Lucas Tolimán	9	Septiembre	2023-10-09T00:00:00	2024-11-08T05:00:00	1	Precipitación	0
146656	7	Sololá	713	San Lucas Tolimán	10	San Lucas Tolimán	9	Septiembre	2023-10-09T00:00:00	2024-11-08T05:00:00	8	Radiación solar	0
146657	7	Sololá	713	San Lucas Tolimán	10	San Lucas Tolimán	9	Septiembre	2023-10-09T00:00:00	2024-11-08T06:00:00	2	Temperatura media	17.8
146658	7	Sololá	713	San Lucas Tolimán	10	San Lucas Tolimán	9	Septiembre	2023-10-09T00:00:00	2024-11-08T06:00:00	4	Temperatura máxima	17.9
146659	7	Sololá	713	San Lucas Tolimán	10	San Lucas Tolimán	9	Septiembre	2023-10-09T00:00:00	2024-11-08T06:00:00	3	Temperatura mínima	17.2
146660	7	Sololá	713	San Lucas Tolimán	10	San Lucas Tolimán	9	Septiembre	2023-10-09T00:00:00	2024-11-08T06:00:00	5	Humedad	61
146661	7	Sololá	713	San Lucas Tolimán	10	San Lucas Tolimán	9	Septiembre	2023-10-09T00:00:00	2024-11-08T06:00:00	6	Velocidad del viento	1.6
146662	7	Sololá	713	San Lucas Tolimán	10	San Lucas Tolimán	9	Septiembre	2023-10-09T00:00:00	2024-11-08T06:00:00	7	Dirección del viento	1.61
146663	7	Sololá	713	San Lucas Tolimán	10	San Lucas Tolimán	9	Septiembre	2023-10-09T00:00:00	2024-11-08T06:00:00	1	Precipitación	0
146664	7	Sololá	713	San Lucas Tolimán	10	San Lucas Tolimán	9	Septiembre	2023-10-09T00:00:00	2024-11-08T06:00:00	8	Radiación solar	0
146665	7	Sololá	713	San Lucas Tolimán	10	San Lucas Tolimán	9	Septiembre	2023-10-09T00:00:00	2024-11-08T07:00:00	2	Temperatura media	17.4
146666	7	Sololá	713	San Lucas Tolimán	10	San Lucas Tolimán	9	Septiembre	2023-10-09T00:00:00	2024-11-08T07:00:00	4	Temperatura máxima	17.9
146667	7	Sololá	713	San Lucas Tolimán	10	San Lucas Tolimán	9	Septiembre	2023-10-09T00:00:00	2024-11-08T07:00:00	3	Temperatura mínima	17.3
146668	7	Sololá	713	San Lucas Tolimán	10	San Lucas Tolimán	9	Septiembre	2023-10-09T00:00:00	2024-11-08T07:00:00	5	Humedad	65
146669	7	Sololá	713	San Lucas Tolimán	10	San Lucas Tolimán	9	Septiembre	2023-10-09T00:00:00	2024-11-08T07:00:00	6	Velocidad del viento	1.6
146670	7	Sololá	713	San Lucas Tolimán	10	San Lucas Tolimán	9	Septiembre	2023-10-09T00:00:00	2024-11-08T07:00:00	7	Dirección del viento	1.61
146671	7	Sololá	713	San Lucas Tolimán	10	San Lucas Tolimán	9	Septiembre	2023-10-09T00:00:00	2024-11-08T07:00:00	1	Precipitación	0
146672	7	Sololá	713	San Lucas Tolimán	10	San Lucas Tolimán	9	Septiembre	2023-10-09T00:00:00	2024-11-08T07:00:00	8	Radiación solar	23
146673	7	Sololá	713	San Lucas Tolimán	10	San Lucas Tolimán	9	Septiembre	2023-10-09T00:00:00	2024-11-08T08:00:00	2	Temperatura media	18.7
146674	7	Sololá	713	San Lucas Tolimán	10	San Lucas Tolimán	9	Septiembre	2023-10-09T00:00:00	2024-11-08T08:00:00	4	Temperatura máxima	18.7
146675	7	Sololá	713	San Lucas Tolimán	10	San Lucas Tolimán	9	Septiembre	2023-10-09T00:00:00	2024-11-08T08:00:00	3	Temperatura mínima	17.3
146676	7	Sololá	713	San Lucas Tolimán	10	San Lucas Tolimán	9	Septiembre	2023-10-09T00:00:00	2024-11-08T08:00:00	5	Humedad	61
146677	7	Sololá	713	San Lucas Tolimán	10	San Lucas Tolimán	9	Septiembre	2023-10-09T00:00:00	2024-11-08T08:00:00	6	Velocidad del viento	1.6
146678	7	Sololá	713	San Lucas Tolimán	10	San Lucas Tolimán	9	Septiembre	2023-10-09T00:00:00	2024-11-08T08:00:00	7	Dirección del viento	1.61
146679	7	Sololá	713	San Lucas Tolimán	10	San Lucas Tolimán	9	Septiembre	2023-10-09T00:00:00	2024-11-08T08:00:00	1	Precipitación	0
146680	7	Sololá	713	San Lucas Tolimán	10	San Lucas Tolimán	9	Septiembre	2023-10-09T00:00:00	2024-11-08T08:00:00	8	Radiación solar	84
146681	7	Sololá	713	San Lucas Tolimán	10	San Lucas Tolimán	9	Septiembre	2023-10-09T00:00:00	2024-11-08T09:00:00	2	Temperatura media	20.8
146682	7	Sololá	713	San Lucas Tolimán	10	San Lucas Tolimán	9	Septiembre	2023-10-09T00:00:00	2024-11-08T09:00:00	4	Temperatura máxima	20.8
146683	7	Sololá	713	San Lucas Tolimán	10	San Lucas Tolimán	9	Septiembre	2023-10-09T00:00:00	2024-11-08T09:00:00	3	Temperatura mínima	18.7
146684	7	Sololá	713	San Lucas Tolimán	10	San Lucas Tolimán	9	Septiembre	2023-10-09T00:00:00	2024-11-08T09:00:00	5	Humedad	53
146685	7	Sololá	713	San Lucas Tolimán	10	San Lucas Tolimán	9	Septiembre	2023-10-09T00:00:00	2024-11-08T09:00:00	6	Velocidad del viento	6.4
146686	7	Sololá	713	San Lucas Tolimán	10	San Lucas Tolimán	9	Septiembre	2023-10-09T00:00:00	2024-11-08T09:00:00	7	Dirección del viento	6.44
146687	7	Sololá	713	San Lucas Tolimán	10	San Lucas Tolimán	9	Septiembre	2023-10-09T00:00:00	2024-11-08T09:00:00	1	Precipitación	0
146688	7	Sololá	713	San Lucas Tolimán	10	San Lucas Tolimán	9	Septiembre	2023-10-09T00:00:00	2024-11-08T09:00:00	8	Radiación solar	174
146689	7	Sololá	713	San Lucas Tolimán	10	San Lucas Tolimán	9	Septiembre	2023-10-09T00:00:00	2024-11-08T10:00:00	2	Temperatura media	21.8
146690	7	Sololá	713	San Lucas Tolimán	10	San Lucas Tolimán	9	Septiembre	2023-10-09T00:00:00	2024-11-08T10:00:00	4	Temperatura máxima	21.8
146691	7	Sololá	713	San Lucas Tolimán	10	San Lucas Tolimán	9	Septiembre	2023-10-09T00:00:00	2024-11-08T10:00:00	3	Temperatura mínima	20.8
146692	7	Sololá	713	San Lucas Tolimán	10	San Lucas Tolimán	9	Septiembre	2023-10-09T00:00:00	2024-11-08T10:00:00	5	Humedad	53
146693	7	Sololá	713	San Lucas Tolimán	10	San Lucas Tolimán	9	Septiembre	2023-10-09T00:00:00	2024-11-08T10:00:00	6	Velocidad del viento	4.8
146694	7	Sololá	713	San Lucas Tolimán	10	San Lucas Tolimán	9	Septiembre	2023-10-09T00:00:00	2024-11-08T10:00:00	7	Dirección del viento	4.83
146695	7	Sololá	713	San Lucas Tolimán	10	San Lucas Tolimán	9	Septiembre	2023-10-09T00:00:00	2024-11-08T10:00:00	1	Precipitación	0
146696	7	Sololá	713	San Lucas Tolimán	10	San Lucas Tolimán	9	Septiembre	2023-10-09T00:00:00	2024-11-08T10:00:00	8	Radiación solar	284
146697	7	Sololá	713	San Lucas Tolimán	10	San Lucas Tolimán	9	Septiembre	2023-10-09T00:00:00	2024-11-08T11:00:00	2	Temperatura media	23.7
146698	7	Sololá	713	San Lucas Tolimán	10	San Lucas Tolimán	9	Septiembre	2023-10-09T00:00:00	2024-11-08T11:00:00	4	Temperatura máxima	23.7
146699	7	Sololá	713	San Lucas Tolimán	10	San Lucas Tolimán	9	Septiembre	2023-10-09T00:00:00	2024-11-08T11:00:00	3	Temperatura mínima	21.2
146700	7	Sololá	713	San Lucas Tolimán	10	San Lucas Tolimán	9	Septiembre	2023-10-09T00:00:00	2024-11-08T11:00:00	5	Humedad	53
146701	7	Sololá	713	San Lucas Tolimán	10	San Lucas Tolimán	9	Septiembre	2023-10-09T00:00:00	2024-11-08T11:00:00	6	Velocidad del viento	6.4
146702	7	Sololá	713	San Lucas Tolimán	10	San Lucas Tolimán	9	Septiembre	2023-10-09T00:00:00	2024-11-08T11:00:00	7	Dirección del viento	6.44
146703	7	Sololá	713	San Lucas Tolimán	10	San Lucas Tolimán	9	Septiembre	2023-10-09T00:00:00	2024-11-08T11:00:00	1	Precipitación	0
146704	7	Sololá	713	San Lucas Tolimán	10	San Lucas Tolimán	9	Septiembre	2023-10-09T00:00:00	2024-11-08T11:00:00	8	Radiación solar	723
146705	7	Sololá	713	San Lucas Tolimán	10	San Lucas Tolimán	9	Septiembre	2023-10-09T00:00:00	2024-11-08T12:00:00	2	Temperatura media	22.7
146706	7	Sololá	713	San Lucas Tolimán	10	San Lucas Tolimán	9	Septiembre	2023-10-09T00:00:00	2024-11-08T12:00:00	4	Temperatura máxima	23.8
146707	7	Sololá	713	San Lucas Tolimán	10	San Lucas Tolimán	9	Septiembre	2023-10-09T00:00:00	2024-11-08T12:00:00	3	Temperatura mínima	22.4
146708	7	Sololá	713	San Lucas Tolimán	10	San Lucas Tolimán	9	Septiembre	2023-10-09T00:00:00	2024-11-08T12:00:00	5	Humedad	60
146709	7	Sololá	713	San Lucas Tolimán	10	San Lucas Tolimán	9	Septiembre	2023-10-09T00:00:00	2024-11-08T12:00:00	6	Velocidad del viento	11.3
146710	7	Sololá	713	San Lucas Tolimán	10	San Lucas Tolimán	9	Septiembre	2023-10-09T00:00:00	2024-11-08T12:00:00	7	Dirección del viento	11.27
146711	7	Sololá	713	San Lucas Tolimán	10	San Lucas Tolimán	9	Septiembre	2023-10-09T00:00:00	2024-11-08T12:00:00	1	Precipitación	0
146712	7	Sololá	713	San Lucas Tolimán	10	San Lucas Tolimán	9	Septiembre	2023-10-09T00:00:00	2024-11-08T12:00:00	8	Radiación solar	1045
146713	7	Sololá	713	San Lucas Tolimán	10	San Lucas Tolimán	9	Septiembre	2023-10-09T00:00:00	2024-11-08T13:00:00	2	Temperatura media	21.7
146714	7	Sololá	713	San Lucas Tolimán	10	San Lucas Tolimán	9	Septiembre	2023-10-09T00:00:00	2024-11-08T13:00:00	4	Temperatura máxima	22.9
146715	7	Sololá	713	San Lucas Tolimán	10	San Lucas Tolimán	9	Septiembre	2023-10-09T00:00:00	2024-11-08T13:00:00	3	Temperatura mínima	21.7
146716	7	Sololá	713	San Lucas Tolimán	10	San Lucas Tolimán	9	Septiembre	2023-10-09T00:00:00	2024-11-08T13:00:00	5	Humedad	63
146717	7	Sololá	713	San Lucas Tolimán	10	San Lucas Tolimán	9	Septiembre	2023-10-09T00:00:00	2024-11-08T13:00:00	6	Velocidad del viento	11.3
146718	7	Sololá	713	San Lucas Tolimán	10	San Lucas Tolimán	9	Septiembre	2023-10-09T00:00:00	2024-11-08T13:00:00	7	Dirección del viento	11.27
146719	7	Sololá	713	San Lucas Tolimán	10	San Lucas Tolimán	9	Septiembre	2023-10-09T00:00:00	2024-11-08T13:00:00	1	Precipitación	0
146720	7	Sololá	713	San Lucas Tolimán	10	San Lucas Tolimán	9	Septiembre	2023-10-09T00:00:00	2024-11-08T13:00:00	8	Radiación solar	959
146721	7	Sololá	713	San Lucas Tolimán	10	San Lucas Tolimán	9	Septiembre	2023-10-09T00:00:00	2024-11-08T14:00:00	2	Temperatura media	22.7
146722	7	Sololá	713	San Lucas Tolimán	10	San Lucas Tolimán	9	Septiembre	2023-10-09T00:00:00	2024-11-08T14:00:00	4	Temperatura máxima	23.1
146723	7	Sololá	713	San Lucas Tolimán	10	San Lucas Tolimán	9	Septiembre	2023-10-09T00:00:00	2024-11-08T14:00:00	3	Temperatura mínima	21.7
146724	7	Sololá	713	San Lucas Tolimán	10	San Lucas Tolimán	9	Septiembre	2023-10-09T00:00:00	2024-11-08T14:00:00	5	Humedad	60
146725	7	Sololá	713	San Lucas Tolimán	10	San Lucas Tolimán	9	Septiembre	2023-10-09T00:00:00	2024-11-08T14:00:00	6	Velocidad del viento	9.7
146726	7	Sololá	713	San Lucas Tolimán	10	San Lucas Tolimán	9	Septiembre	2023-10-09T00:00:00	2024-11-08T14:00:00	7	Dirección del viento	9.66
146727	7	Sololá	713	San Lucas Tolimán	10	San Lucas Tolimán	9	Septiembre	2023-10-09T00:00:00	2024-11-08T14:00:00	1	Precipitación	0
146728	7	Sololá	713	San Lucas Tolimán	10	San Lucas Tolimán	9	Septiembre	2023-10-09T00:00:00	2024-11-08T14:00:00	8	Radiación solar	1033
146729	7	Sololá	713	San Lucas Tolimán	10	San Lucas Tolimán	9	Septiembre	2023-10-09T00:00:00	2024-11-08T15:00:00	2	Temperatura media	22.9
146730	7	Sololá	713	San Lucas Tolimán	10	San Lucas Tolimán	9	Septiembre	2023-10-09T00:00:00	2024-11-08T15:00:00	4	Temperatura máxima	23.3
146731	7	Sololá	713	San Lucas Tolimán	10	San Lucas Tolimán	9	Septiembre	2023-10-09T00:00:00	2024-11-08T15:00:00	3	Temperatura mínima	22.6
146732	7	Sololá	713	San Lucas Tolimán	10	San Lucas Tolimán	9	Septiembre	2023-10-09T00:00:00	2024-11-08T15:00:00	5	Humedad	60
146733	7	Sololá	713	San Lucas Tolimán	10	San Lucas Tolimán	9	Septiembre	2023-10-09T00:00:00	2024-11-08T15:00:00	6	Velocidad del viento	11.3
146734	7	Sololá	713	San Lucas Tolimán	10	San Lucas Tolimán	9	Septiembre	2023-10-09T00:00:00	2024-11-08T15:00:00	7	Dirección del viento	11.27
146735	7	Sololá	713	San Lucas Tolimán	10	San Lucas Tolimán	9	Septiembre	2023-10-09T00:00:00	2024-11-08T15:00:00	1	Precipitación	0
146736	7	Sololá	713	San Lucas Tolimán	10	San Lucas Tolimán	9	Septiembre	2023-10-09T00:00:00	2024-11-08T15:00:00	8	Radiación solar	833
146737	7	Sololá	713	San Lucas Tolimán	10	San Lucas Tolimán	9	Septiembre	2023-10-09T00:00:00	2024-11-08T16:00:00	2	Temperatura media	22.4
146738	7	Sololá	713	San Lucas Tolimán	10	San Lucas Tolimán	9	Septiembre	2023-10-09T00:00:00	2024-11-08T16:00:00	4	Temperatura máxima	23.2
146739	7	Sololá	713	San Lucas Tolimán	10	San Lucas Tolimán	9	Septiembre	2023-10-09T00:00:00	2024-11-08T16:00:00	3	Temperatura mínima	22.4
146740	7	Sololá	713	San Lucas Tolimán	10	San Lucas Tolimán	9	Septiembre	2023-10-09T00:00:00	2024-11-08T16:00:00	5	Humedad	62
146741	7	Sololá	713	San Lucas Tolimán	10	San Lucas Tolimán	9	Septiembre	2023-10-09T00:00:00	2024-11-08T16:00:00	6	Velocidad del viento	11.3
146742	7	Sololá	713	San Lucas Tolimán	10	San Lucas Tolimán	9	Septiembre	2023-10-09T00:00:00	2024-11-08T16:00:00	7	Dirección del viento	11.27
146743	7	Sololá	713	San Lucas Tolimán	10	San Lucas Tolimán	9	Septiembre	2023-10-09T00:00:00	2024-11-08T16:00:00	1	Precipitación	0
146744	7	Sololá	713	San Lucas Tolimán	10	San Lucas Tolimán	9	Septiembre	2023-10-09T00:00:00	2024-11-08T16:00:00	8	Radiación solar	638
146745	7	Sololá	713	San Lucas Tolimán	10	San Lucas Tolimán	9	Septiembre	2023-10-09T00:00:00	2024-11-08T17:00:00	2	Temperatura media	20.4
146746	7	Sololá	713	San Lucas Tolimán	10	San Lucas Tolimán	9	Septiembre	2023-10-09T00:00:00	2024-11-08T17:00:00	4	Temperatura máxima	22.4
146747	7	Sololá	713	San Lucas Tolimán	10	San Lucas Tolimán	9	Septiembre	2023-10-09T00:00:00	2024-11-08T17:00:00	3	Temperatura mínima	20.4
146748	7	Sololá	713	San Lucas Tolimán	10	San Lucas Tolimán	9	Septiembre	2023-10-09T00:00:00	2024-11-08T17:00:00	5	Humedad	64
146749	7	Sololá	713	San Lucas Tolimán	10	San Lucas Tolimán	9	Septiembre	2023-10-09T00:00:00	2024-11-08T17:00:00	6	Velocidad del viento	9.7
146750	7	Sololá	713	San Lucas Tolimán	10	San Lucas Tolimán	9	Septiembre	2023-10-09T00:00:00	2024-11-08T17:00:00	7	Dirección del viento	9.66
146751	7	Sololá	713	San Lucas Tolimán	10	San Lucas Tolimán	9	Septiembre	2023-10-09T00:00:00	2024-11-08T17:00:00	1	Precipitación	0
146752	7	Sololá	713	San Lucas Tolimán	10	San Lucas Tolimán	9	Septiembre	2023-10-09T00:00:00	2024-11-08T17:00:00	8	Radiación solar	157
146753	7	Sololá	713	San Lucas Tolimán	10	San Lucas Tolimán	9	Septiembre	2023-10-09T00:00:00	2024-11-08T18:00:00	2	Temperatura media	19.8
146754	7	Sololá	713	San Lucas Tolimán	10	San Lucas Tolimán	9	Septiembre	2023-10-09T00:00:00	2024-11-08T18:00:00	4	Temperatura máxima	20.4
146755	7	Sololá	713	San Lucas Tolimán	10	San Lucas Tolimán	9	Septiembre	2023-10-09T00:00:00	2024-11-08T18:00:00	3	Temperatura mínima	19.1
146756	7	Sololá	713	San Lucas Tolimán	10	San Lucas Tolimán	9	Septiembre	2023-10-09T00:00:00	2024-11-08T18:00:00	5	Humedad	91
146757	7	Sololá	713	San Lucas Tolimán	10	San Lucas Tolimán	9	Septiembre	2023-10-09T00:00:00	2024-11-08T18:00:00	6	Velocidad del viento	4.8
146758	7	Sololá	713	San Lucas Tolimán	10	San Lucas Tolimán	9	Septiembre	2023-10-09T00:00:00	2024-11-08T18:00:00	7	Dirección del viento	4.83
146759	7	Sololá	713	San Lucas Tolimán	10	San Lucas Tolimán	9	Septiembre	2023-10-09T00:00:00	2024-11-08T18:00:00	1	Precipitación	0
146760	7	Sololá	713	San Lucas Tolimán	10	San Lucas Tolimán	9	Septiembre	2023-10-09T00:00:00	2024-11-08T18:00:00	8	Radiación solar	21
146761	7	Sololá	713	San Lucas Tolimán	10	San Lucas Tolimán	9	Septiembre	2023-10-09T00:00:00	2024-11-08T19:00:00	2	Temperatura media	19.5
146762	7	Sololá	713	San Lucas Tolimán	10	San Lucas Tolimán	9	Septiembre	2023-10-09T00:00:00	2024-11-08T19:00:00	4	Temperatura máxima	19.9
146763	7	Sololá	713	San Lucas Tolimán	10	San Lucas Tolimán	9	Septiembre	2023-10-09T00:00:00	2024-11-08T19:00:00	3	Temperatura mínima	19.5
146764	7	Sololá	713	San Lucas Tolimán	10	San Lucas Tolimán	9	Septiembre	2023-10-09T00:00:00	2024-11-08T19:00:00	5	Humedad	88
146765	7	Sololá	713	San Lucas Tolimán	10	San Lucas Tolimán	9	Septiembre	2023-10-09T00:00:00	2024-11-08T19:00:00	6	Velocidad del viento	3.2
146766	7	Sololá	713	San Lucas Tolimán	10	San Lucas Tolimán	9	Septiembre	2023-10-09T00:00:00	2024-11-08T19:00:00	7	Dirección del viento	3.22
146767	7	Sololá	713	San Lucas Tolimán	10	San Lucas Tolimán	9	Septiembre	2023-10-09T00:00:00	2024-11-08T19:00:00	1	Precipitación	0
146768	7	Sololá	713	San Lucas Tolimán	10	San Lucas Tolimán	9	Septiembre	2023-10-09T00:00:00	2024-11-08T19:00:00	8	Radiación solar	0
146769	7	Sololá	713	San Lucas Tolimán	10	San Lucas Tolimán	9	Septiembre	2023-10-09T00:00:00	2024-11-08T20:00:00	2	Temperatura media	18.9
146770	7	Sololá	713	San Lucas Tolimán	10	San Lucas Tolimán	9	Septiembre	2023-10-09T00:00:00	2024-11-08T20:00:00	4	Temperatura máxima	19.5
146771	7	Sololá	713	San Lucas Tolimán	10	San Lucas Tolimán	9	Septiembre	2023-10-09T00:00:00	2024-11-08T20:00:00	3	Temperatura mínima	18.9
146772	7	Sololá	713	San Lucas Tolimán	10	San Lucas Tolimán	9	Septiembre	2023-10-09T00:00:00	2024-11-08T20:00:00	5	Humedad	91
146773	7	Sololá	713	San Lucas Tolimán	10	San Lucas Tolimán	9	Septiembre	2023-10-09T00:00:00	2024-11-08T20:00:00	6	Velocidad del viento	3.2
146774	7	Sololá	713	San Lucas Tolimán	10	San Lucas Tolimán	9	Septiembre	2023-10-09T00:00:00	2024-11-08T20:00:00	7	Dirección del viento	3.22
146775	7	Sololá	713	San Lucas Tolimán	10	San Lucas Tolimán	9	Septiembre	2023-10-09T00:00:00	2024-11-08T20:00:00	1	Precipitación	0.2
146776	7	Sololá	713	San Lucas Tolimán	10	San Lucas Tolimán	9	Septiembre	2023-10-09T00:00:00	2024-11-08T20:00:00	8	Radiación solar	0
146777	7	Sololá	713	San Lucas Tolimán	10	San Lucas Tolimán	9	Septiembre	2023-10-09T00:00:00	2024-11-08T21:00:00	2	Temperatura media	18.6
146778	7	Sololá	713	San Lucas Tolimán	10	San Lucas Tolimán	9	Septiembre	2023-10-09T00:00:00	2024-11-08T21:00:00	4	Temperatura máxima	19
146779	7	Sololá	713	San Lucas Tolimán	10	San Lucas Tolimán	9	Septiembre	2023-10-09T00:00:00	2024-11-08T21:00:00	3	Temperatura mínima	18.6
146780	7	Sololá	713	San Lucas Tolimán	10	San Lucas Tolimán	9	Septiembre	2023-10-09T00:00:00	2024-11-08T21:00:00	5	Humedad	92
146781	7	Sololá	713	San Lucas Tolimán	10	San Lucas Tolimán	9	Septiembre	2023-10-09T00:00:00	2024-11-08T21:00:00	6	Velocidad del viento	3.2
146782	7	Sololá	713	San Lucas Tolimán	10	San Lucas Tolimán	9	Septiembre	2023-10-09T00:00:00	2024-11-08T21:00:00	7	Dirección del viento	3.22
146783	7	Sololá	713	San Lucas Tolimán	10	San Lucas Tolimán	9	Septiembre	2023-10-09T00:00:00	2024-11-08T21:00:00	1	Precipitación	0
146784	7	Sololá	713	San Lucas Tolimán	10	San Lucas Tolimán	9	Septiembre	2023-10-09T00:00:00	2024-11-08T21:00:00	8	Radiación solar	0
146785	7	Sololá	713	San Lucas Tolimán	10	San Lucas Tolimán	9	Septiembre	2023-10-09T00:00:00	2024-11-08T22:00:00	2	Temperatura media	18.3
146786	7	Sololá	713	San Lucas Tolimán	10	San Lucas Tolimán	9	Septiembre	2023-10-09T00:00:00	2024-11-08T22:00:00	4	Temperatura máxima	18.7
146787	7	Sololá	713	San Lucas Tolimán	10	San Lucas Tolimán	9	Septiembre	2023-10-09T00:00:00	2024-11-08T22:00:00	3	Temperatura mínima	18.3
146788	7	Sololá	713	San Lucas Tolimán	10	San Lucas Tolimán	9	Septiembre	2023-10-09T00:00:00	2024-11-08T22:00:00	5	Humedad	94
146789	7	Sololá	713	San Lucas Tolimán	10	San Lucas Tolimán	9	Septiembre	2023-10-09T00:00:00	2024-11-08T22:00:00	6	Velocidad del viento	3.2
146790	7	Sololá	713	San Lucas Tolimán	10	San Lucas Tolimán	9	Septiembre	2023-10-09T00:00:00	2024-11-08T22:00:00	7	Dirección del viento	3.22
146791	7	Sololá	713	San Lucas Tolimán	10	San Lucas Tolimán	9	Septiembre	2023-10-09T00:00:00	2024-11-08T22:00:00	1	Precipitación	0
146792	7	Sololá	713	San Lucas Tolimán	10	San Lucas Tolimán	9	Septiembre	2023-10-09T00:00:00	2024-11-08T22:00:00	8	Radiación solar	0
146793	7	Sololá	713	San Lucas Tolimán	10	San Lucas Tolimán	9	Septiembre	2023-10-09T00:00:00	2024-11-08T23:00:00	2	Temperatura media	18.2
146794	7	Sololá	713	San Lucas Tolimán	10	San Lucas Tolimán	9	Septiembre	2023-10-09T00:00:00	2024-11-08T23:00:00	4	Temperatura máxima	18.4
146795	7	Sololá	713	San Lucas Tolimán	10	San Lucas Tolimán	9	Septiembre	2023-10-09T00:00:00	2024-11-08T23:00:00	3	Temperatura mínima	18.2
146796	7	Sololá	713	San Lucas Tolimán	10	San Lucas Tolimán	9	Septiembre	2023-10-09T00:00:00	2024-11-08T23:00:00	5	Humedad	93
146797	7	Sololá	713	San Lucas Tolimán	10	San Lucas Tolimán	9	Septiembre	2023-10-09T00:00:00	2024-11-08T23:00:00	6	Velocidad del viento	4.8
146798	7	Sololá	713	San Lucas Tolimán	10	San Lucas Tolimán	9	Septiembre	2023-10-09T00:00:00	2024-11-08T23:00:00	7	Dirección del viento	4.83
146799	7	Sololá	713	San Lucas Tolimán	10	San Lucas Tolimán	9	Septiembre	2023-10-09T00:00:00	2024-11-08T23:00:00	1	Precipitación	0
146800	7	Sololá	713	San Lucas Tolimán	10	San Lucas Tolimán	9	Septiembre	2023-10-09T00:00:00	2024-11-08T23:00:00	8	Radiación solar	0
146801	7	Sololá	713	San Lucas Tolimán	10	San Lucas Tolimán	9	Septiembre	2023-11-09T00:00:00	2024-11-08T00:00:00	2	Temperatura media	17.9
146802	7	Sololá	713	San Lucas Tolimán	10	San Lucas Tolimán	9	Septiembre	2023-11-09T00:00:00	2024-11-08T00:00:00	4	Temperatura máxima	18.2
146803	7	Sololá	713	San Lucas Tolimán	10	San Lucas Tolimán	9	Septiembre	2023-11-09T00:00:00	2024-11-08T00:00:00	3	Temperatura mínima	17.8
146804	7	Sololá	713	San Lucas Tolimán	10	San Lucas Tolimán	9	Septiembre	2023-11-09T00:00:00	2024-11-08T00:00:00	5	Humedad	94
146805	7	Sololá	713	San Lucas Tolimán	10	San Lucas Tolimán	9	Septiembre	2023-11-09T00:00:00	2024-11-08T00:00:00	6	Velocidad del viento	3.2
146806	7	Sololá	713	San Lucas Tolimán	10	San Lucas Tolimán	9	Septiembre	2023-11-09T00:00:00	2024-11-08T00:00:00	7	Dirección del viento	3.22
146807	7	Sololá	713	San Lucas Tolimán	10	San Lucas Tolimán	9	Septiembre	2023-11-09T00:00:00	2024-11-08T00:00:00	1	Precipitación	0
146808	7	Sololá	713	San Lucas Tolimán	10	San Lucas Tolimán	9	Septiembre	2023-11-09T00:00:00	2024-11-08T00:00:00	8	Radiación solar	0
146809	7	Sololá	713	San Lucas Tolimán	10	San Lucas Tolimán	9	Septiembre	2023-11-09T00:00:00	2024-11-08T01:00:00	2	Temperatura media	17.6
146810	7	Sololá	713	San Lucas Tolimán	10	San Lucas Tolimán	9	Septiembre	2023-11-09T00:00:00	2024-11-08T01:00:00	4	Temperatura máxima	17.9
146811	7	Sololá	713	San Lucas Tolimán	10	San Lucas Tolimán	9	Septiembre	2023-11-09T00:00:00	2024-11-08T01:00:00	3	Temperatura mínima	17.6
146812	7	Sololá	713	San Lucas Tolimán	10	San Lucas Tolimán	9	Septiembre	2023-11-09T00:00:00	2024-11-08T01:00:00	5	Humedad	94
146813	7	Sololá	713	San Lucas Tolimán	10	San Lucas Tolimán	9	Septiembre	2023-11-09T00:00:00	2024-11-08T01:00:00	6	Velocidad del viento	1.6
146814	7	Sololá	713	San Lucas Tolimán	10	San Lucas Tolimán	9	Septiembre	2023-11-09T00:00:00	2024-11-08T01:00:00	7	Dirección del viento	1.61
146815	7	Sololá	713	San Lucas Tolimán	10	San Lucas Tolimán	9	Septiembre	2023-11-09T00:00:00	2024-11-08T01:00:00	1	Precipitación	0
146816	7	Sololá	713	San Lucas Tolimán	10	San Lucas Tolimán	9	Septiembre	2023-11-09T00:00:00	2024-11-08T01:00:00	8	Radiación solar	0
146817	7	Sololá	713	San Lucas Tolimán	10	San Lucas Tolimán	9	Septiembre	2023-11-09T00:00:00	2024-11-08T02:00:00	2	Temperatura media	17.4
146818	7	Sololá	713	San Lucas Tolimán	10	San Lucas Tolimán	9	Septiembre	2023-11-09T00:00:00	2024-11-08T02:00:00	4	Temperatura máxima	17.6
146819	7	Sololá	713	San Lucas Tolimán	10	San Lucas Tolimán	9	Septiembre	2023-11-09T00:00:00	2024-11-08T02:00:00	3	Temperatura mínima	17.3
146820	7	Sololá	713	San Lucas Tolimán	10	San Lucas Tolimán	9	Septiembre	2023-11-09T00:00:00	2024-11-08T02:00:00	5	Humedad	90
146821	7	Sololá	713	San Lucas Tolimán	10	San Lucas Tolimán	9	Septiembre	2023-11-09T00:00:00	2024-11-08T02:00:00	6	Velocidad del viento	1.6
146822	7	Sololá	713	San Lucas Tolimán	10	San Lucas Tolimán	9	Septiembre	2023-11-09T00:00:00	2024-11-08T02:00:00	7	Dirección del viento	1.61
146823	7	Sololá	713	San Lucas Tolimán	10	San Lucas Tolimán	9	Septiembre	2023-11-09T00:00:00	2024-11-08T02:00:00	1	Precipitación	0
146824	7	Sololá	713	San Lucas Tolimán	10	San Lucas Tolimán	9	Septiembre	2023-11-09T00:00:00	2024-11-08T02:00:00	8	Radiación solar	0
146825	7	Sololá	713	San Lucas Tolimán	10	San Lucas Tolimán	9	Septiembre	2023-11-09T00:00:00	2024-11-08T03:00:00	2	Temperatura media	17.9
146826	7	Sololá	713	San Lucas Tolimán	10	San Lucas Tolimán	9	Septiembre	2023-11-09T00:00:00	2024-11-08T03:00:00	4	Temperatura máxima	17.9
146827	7	Sololá	713	San Lucas Tolimán	10	San Lucas Tolimán	9	Septiembre	2023-11-09T00:00:00	2024-11-08T03:00:00	3	Temperatura mínima	17.4
146828	7	Sololá	713	San Lucas Tolimán	10	San Lucas Tolimán	9	Septiembre	2023-11-09T00:00:00	2024-11-08T03:00:00	5	Humedad	84
146829	7	Sololá	713	San Lucas Tolimán	10	San Lucas Tolimán	9	Septiembre	2023-11-09T00:00:00	2024-11-08T03:00:00	6	Velocidad del viento	1.6
146830	7	Sololá	713	San Lucas Tolimán	10	San Lucas Tolimán	9	Septiembre	2023-11-09T00:00:00	2024-11-08T03:00:00	7	Dirección del viento	1.61
146831	7	Sololá	713	San Lucas Tolimán	10	San Lucas Tolimán	9	Septiembre	2023-11-09T00:00:00	2024-11-08T03:00:00	1	Precipitación	0
146832	7	Sololá	713	San Lucas Tolimán	10	San Lucas Tolimán	9	Septiembre	2023-11-09T00:00:00	2024-11-08T03:00:00	8	Radiación solar	0
146833	7	Sololá	713	San Lucas Tolimán	10	San Lucas Tolimán	9	Septiembre	2023-11-09T00:00:00	2024-11-08T04:00:00	2	Temperatura media	17.8
146834	7	Sololá	713	San Lucas Tolimán	10	San Lucas Tolimán	9	Septiembre	2023-11-09T00:00:00	2024-11-08T04:00:00	4	Temperatura máxima	18.7
146835	7	Sololá	713	San Lucas Tolimán	10	San Lucas Tolimán	9	Septiembre	2023-11-09T00:00:00	2024-11-08T04:00:00	3	Temperatura mínima	17.8
146836	7	Sololá	713	San Lucas Tolimán	10	San Lucas Tolimán	9	Septiembre	2023-11-09T00:00:00	2024-11-08T04:00:00	5	Humedad	84
146837	7	Sololá	713	San Lucas Tolimán	10	San Lucas Tolimán	9	Septiembre	2023-11-09T00:00:00	2024-11-08T04:00:00	6	Velocidad del viento	1.6
146838	7	Sololá	713	San Lucas Tolimán	10	San Lucas Tolimán	9	Septiembre	2023-11-09T00:00:00	2024-11-08T04:00:00	7	Dirección del viento	1.61
146839	7	Sololá	713	San Lucas Tolimán	10	San Lucas Tolimán	9	Septiembre	2023-11-09T00:00:00	2024-11-08T04:00:00	1	Precipitación	0
146840	7	Sololá	713	San Lucas Tolimán	10	San Lucas Tolimán	9	Septiembre	2023-11-09T00:00:00	2024-11-08T04:00:00	8	Radiación solar	0
146841	7	Sololá	713	San Lucas Tolimán	10	San Lucas Tolimán	9	Septiembre	2023-11-09T00:00:00	2024-11-08T05:00:00	2	Temperatura media	16.3
146842	7	Sololá	713	San Lucas Tolimán	10	San Lucas Tolimán	9	Septiembre	2023-11-09T00:00:00	2024-11-08T05:00:00	4	Temperatura máxima	17.9
146843	7	Sololá	713	San Lucas Tolimán	10	San Lucas Tolimán	9	Septiembre	2023-11-09T00:00:00	2024-11-08T05:00:00	3	Temperatura mínima	16.3
146844	7	Sololá	713	San Lucas Tolimán	10	San Lucas Tolimán	9	Septiembre	2023-11-09T00:00:00	2024-11-08T05:00:00	5	Humedad	90
146845	7	Sololá	713	San Lucas Tolimán	10	San Lucas Tolimán	9	Septiembre	2023-11-09T00:00:00	2024-11-08T05:00:00	6	Velocidad del viento	1.6
146846	7	Sololá	713	San Lucas Tolimán	10	San Lucas Tolimán	9	Septiembre	2023-11-09T00:00:00	2024-11-08T05:00:00	7	Dirección del viento	1.61
146847	7	Sololá	713	San Lucas Tolimán	10	San Lucas Tolimán	9	Septiembre	2023-11-09T00:00:00	2024-11-08T05:00:00	1	Precipitación	0
146848	7	Sololá	713	San Lucas Tolimán	10	San Lucas Tolimán	9	Septiembre	2023-11-09T00:00:00	2024-11-08T05:00:00	8	Radiación solar	0
146849	7	Sololá	713	San Lucas Tolimán	10	San Lucas Tolimán	9	Septiembre	2023-11-09T00:00:00	2024-11-08T06:00:00	2	Temperatura media	16.3
146850	7	Sololá	713	San Lucas Tolimán	10	San Lucas Tolimán	9	Septiembre	2023-11-09T00:00:00	2024-11-08T06:00:00	4	Temperatura máxima	16.3
146851	7	Sololá	713	San Lucas Tolimán	10	San Lucas Tolimán	9	Septiembre	2023-11-09T00:00:00	2024-11-08T06:00:00	3	Temperatura mínima	16
146852	7	Sololá	713	San Lucas Tolimán	10	San Lucas Tolimán	9	Septiembre	2023-11-09T00:00:00	2024-11-08T06:00:00	5	Humedad	88
146853	7	Sololá	713	San Lucas Tolimán	10	San Lucas Tolimán	9	Septiembre	2023-11-09T00:00:00	2024-11-08T06:00:00	6	Velocidad del viento	1.6
146854	7	Sololá	713	San Lucas Tolimán	10	San Lucas Tolimán	9	Septiembre	2023-11-09T00:00:00	2024-11-08T06:00:00	7	Dirección del viento	1.61
146855	7	Sololá	713	San Lucas Tolimán	10	San Lucas Tolimán	9	Septiembre	2023-11-09T00:00:00	2024-11-08T06:00:00	1	Precipitación	0
146856	7	Sololá	713	San Lucas Tolimán	10	San Lucas Tolimán	9	Septiembre	2023-11-09T00:00:00	2024-11-08T06:00:00	8	Radiación solar	0
146857	7	Sololá	713	San Lucas Tolimán	10	San Lucas Tolimán	9	Septiembre	2023-11-09T00:00:00	2024-11-08T07:00:00	2	Temperatura media	17.2
146858	7	Sololá	713	San Lucas Tolimán	10	San Lucas Tolimán	9	Septiembre	2023-11-09T00:00:00	2024-11-08T07:00:00	4	Temperatura máxima	17.2
146859	7	Sololá	713	San Lucas Tolimán	10	San Lucas Tolimán	9	Septiembre	2023-11-09T00:00:00	2024-11-08T07:00:00	3	Temperatura mínima	16.3
146860	7	Sololá	713	San Lucas Tolimán	10	San Lucas Tolimán	9	Septiembre	2023-11-09T00:00:00	2024-11-08T07:00:00	5	Humedad	88
146861	7	Sololá	713	San Lucas Tolimán	10	San Lucas Tolimán	9	Septiembre	2023-11-09T00:00:00	2024-11-08T07:00:00	6	Velocidad del viento	0
146862	7	Sololá	713	San Lucas Tolimán	10	San Lucas Tolimán	9	Septiembre	2023-11-09T00:00:00	2024-11-08T07:00:00	7	Dirección del viento	0
146863	7	Sololá	713	San Lucas Tolimán	10	San Lucas Tolimán	9	Septiembre	2023-11-09T00:00:00	2024-11-08T07:00:00	1	Precipitación	0
146864	7	Sololá	713	San Lucas Tolimán	10	San Lucas Tolimán	9	Septiembre	2023-11-09T00:00:00	2024-11-08T07:00:00	8	Radiación solar	44
146865	7	Sololá	713	San Lucas Tolimán	10	San Lucas Tolimán	9	Septiembre	2023-11-09T00:00:00	2024-11-08T08:00:00	2	Temperatura media	19.9
146866	7	Sololá	713	San Lucas Tolimán	10	San Lucas Tolimán	9	Septiembre	2023-11-09T00:00:00	2024-11-08T08:00:00	4	Temperatura máxima	19.9
146867	7	Sololá	713	San Lucas Tolimán	10	San Lucas Tolimán	9	Septiembre	2023-11-09T00:00:00	2024-11-08T08:00:00	3	Temperatura mínima	17.2
146868	7	Sololá	713	San Lucas Tolimán	10	San Lucas Tolimán	9	Septiembre	2023-11-09T00:00:00	2024-11-08T08:00:00	5	Humedad	77
146869	7	Sololá	713	San Lucas Tolimán	10	San Lucas Tolimán	9	Septiembre	2023-11-09T00:00:00	2024-11-08T08:00:00	6	Velocidad del viento	1.6
146870	7	Sololá	713	San Lucas Tolimán	10	San Lucas Tolimán	9	Septiembre	2023-11-09T00:00:00	2024-11-08T08:00:00	7	Dirección del viento	1.61
146871	7	Sololá	713	San Lucas Tolimán	10	San Lucas Tolimán	9	Septiembre	2023-11-09T00:00:00	2024-11-08T08:00:00	1	Precipitación	0
146872	7	Sololá	713	San Lucas Tolimán	10	San Lucas Tolimán	9	Septiembre	2023-11-09T00:00:00	2024-11-08T08:00:00	8	Radiación solar	225
146873	7	Sololá	713	San Lucas Tolimán	10	San Lucas Tolimán	9	Septiembre	2023-11-09T00:00:00	2024-11-08T09:00:00	2	Temperatura media	24.2
146874	7	Sololá	713	San Lucas Tolimán	10	San Lucas Tolimán	9	Septiembre	2023-11-09T00:00:00	2024-11-08T09:00:00	4	Temperatura máxima	24.2
146875	7	Sololá	713	San Lucas Tolimán	10	San Lucas Tolimán	9	Septiembre	2023-11-09T00:00:00	2024-11-08T09:00:00	3	Temperatura mínima	19.9
146876	7	Sololá	713	San Lucas Tolimán	10	San Lucas Tolimán	9	Septiembre	2023-11-09T00:00:00	2024-11-08T09:00:00	5	Humedad	65
146877	7	Sololá	713	San Lucas Tolimán	10	San Lucas Tolimán	9	Septiembre	2023-11-09T00:00:00	2024-11-08T09:00:00	6	Velocidad del viento	1.6
146878	7	Sololá	713	San Lucas Tolimán	10	San Lucas Tolimán	9	Septiembre	2023-11-09T00:00:00	2024-11-08T09:00:00	7	Dirección del viento	1.61
146879	7	Sololá	713	San Lucas Tolimán	10	San Lucas Tolimán	9	Septiembre	2023-11-09T00:00:00	2024-11-08T09:00:00	1	Precipitación	0.2
146880	7	Sololá	713	San Lucas Tolimán	10	San Lucas Tolimán	9	Septiembre	2023-11-09T00:00:00	2024-11-08T09:00:00	8	Radiación solar	545
146881	7	Sololá	713	San Lucas Tolimán	10	San Lucas Tolimán	9	Septiembre	2023-11-09T00:00:00	2024-11-08T10:00:00	2	Temperatura media	24.9
146882	7	Sololá	713	San Lucas Tolimán	10	San Lucas Tolimán	9	Septiembre	2023-11-09T00:00:00	2024-11-08T10:00:00	4	Temperatura máxima	26
146883	7	Sololá	713	San Lucas Tolimán	10	San Lucas Tolimán	9	Septiembre	2023-11-09T00:00:00	2024-11-08T10:00:00	3	Temperatura mínima	24.2
146884	7	Sololá	713	San Lucas Tolimán	10	San Lucas Tolimán	9	Septiembre	2023-11-09T00:00:00	2024-11-08T10:00:00	5	Humedad	73
146885	7	Sololá	713	San Lucas Tolimán	10	San Lucas Tolimán	9	Septiembre	2023-11-09T00:00:00	2024-11-08T10:00:00	6	Velocidad del viento	4.8
146886	7	Sololá	713	San Lucas Tolimán	10	San Lucas Tolimán	9	Septiembre	2023-11-09T00:00:00	2024-11-08T10:00:00	7	Dirección del viento	4.83
146887	7	Sololá	713	San Lucas Tolimán	10	San Lucas Tolimán	9	Septiembre	2023-11-09T00:00:00	2024-11-08T10:00:00	1	Precipitación	0
146888	7	Sololá	713	San Lucas Tolimán	10	San Lucas Tolimán	9	Septiembre	2023-11-09T00:00:00	2024-11-08T10:00:00	8	Radiación solar	749
146889	7	Sololá	713	San Lucas Tolimán	10	San Lucas Tolimán	9	Septiembre	2023-11-09T00:00:00	2024-11-08T11:00:00	2	Temperatura media	24.5
146890	7	Sololá	713	San Lucas Tolimán	10	San Lucas Tolimán	9	Septiembre	2023-11-09T00:00:00	2024-11-08T11:00:00	4	Temperatura máxima	24.9
146891	7	Sololá	713	San Lucas Tolimán	10	San Lucas Tolimán	9	Septiembre	2023-11-09T00:00:00	2024-11-08T11:00:00	3	Temperatura mínima	23.8
146892	7	Sololá	713	San Lucas Tolimán	10	San Lucas Tolimán	9	Septiembre	2023-11-09T00:00:00	2024-11-08T11:00:00	5	Humedad	76
146893	7	Sololá	713	San Lucas Tolimán	10	San Lucas Tolimán	9	Septiembre	2023-11-09T00:00:00	2024-11-08T11:00:00	6	Velocidad del viento	8
146894	7	Sololá	713	San Lucas Tolimán	10	San Lucas Tolimán	9	Septiembre	2023-11-09T00:00:00	2024-11-08T11:00:00	7	Dirección del viento	8.05
146895	7	Sololá	713	San Lucas Tolimán	10	San Lucas Tolimán	9	Septiembre	2023-11-09T00:00:00	2024-11-08T11:00:00	1	Precipitación	0
146896	7	Sololá	713	San Lucas Tolimán	10	San Lucas Tolimán	9	Septiembre	2023-11-09T00:00:00	2024-11-08T11:00:00	8	Radiación solar	1029
146897	7	Sololá	713	San Lucas Tolimán	10	San Lucas Tolimán	9	Septiembre	2023-11-09T00:00:00	2024-11-08T12:00:00	2	Temperatura media	24.8
146898	7	Sololá	713	San Lucas Tolimán	10	San Lucas Tolimán	9	Septiembre	2023-11-09T00:00:00	2024-11-08T12:00:00	4	Temperatura máxima	24.8
146899	7	Sololá	713	San Lucas Tolimán	10	San Lucas Tolimán	9	Septiembre	2023-11-09T00:00:00	2024-11-08T12:00:00	3	Temperatura mínima	24.2
146900	7	Sololá	713	San Lucas Tolimán	10	San Lucas Tolimán	9	Septiembre	2023-11-09T00:00:00	2024-11-08T12:00:00	5	Humedad	76
146901	7	Sololá	713	San Lucas Tolimán	10	San Lucas Tolimán	9	Septiembre	2023-11-09T00:00:00	2024-11-08T12:00:00	6	Velocidad del viento	11.3
146902	7	Sololá	713	San Lucas Tolimán	10	San Lucas Tolimán	9	Septiembre	2023-11-09T00:00:00	2024-11-08T12:00:00	7	Dirección del viento	11.27
146903	7	Sololá	713	San Lucas Tolimán	10	San Lucas Tolimán	9	Septiembre	2023-11-09T00:00:00	2024-11-08T12:00:00	1	Precipitación	0
146904	7	Sololá	713	San Lucas Tolimán	10	San Lucas Tolimán	9	Septiembre	2023-11-09T00:00:00	2024-11-08T12:00:00	8	Radiación solar	1010
146905	7	Sololá	713	San Lucas Tolimán	10	San Lucas Tolimán	9	Septiembre	2023-11-09T00:00:00	2024-11-08T13:00:00	2	Temperatura media	24.2
146906	7	Sololá	713	San Lucas Tolimán	10	San Lucas Tolimán	9	Septiembre	2023-11-09T00:00:00	2024-11-08T13:00:00	4	Temperatura máxima	24.8
146907	7	Sololá	713	San Lucas Tolimán	10	San Lucas Tolimán	9	Septiembre	2023-11-09T00:00:00	2024-11-08T13:00:00	3	Temperatura mínima	23.8
146908	7	Sololá	713	San Lucas Tolimán	10	San Lucas Tolimán	9	Septiembre	2023-11-09T00:00:00	2024-11-08T13:00:00	5	Humedad	76
146909	7	Sololá	713	San Lucas Tolimán	10	San Lucas Tolimán	9	Septiembre	2023-11-09T00:00:00	2024-11-08T13:00:00	6	Velocidad del viento	9.7
146910	7	Sololá	713	San Lucas Tolimán	10	San Lucas Tolimán	9	Septiembre	2023-11-09T00:00:00	2024-11-08T13:00:00	7	Dirección del viento	9.66
146911	7	Sololá	713	San Lucas Tolimán	10	San Lucas Tolimán	9	Septiembre	2023-11-09T00:00:00	2024-11-08T13:00:00	1	Precipitación	0
146912	7	Sololá	713	San Lucas Tolimán	10	San Lucas Tolimán	9	Septiembre	2023-11-09T00:00:00	2024-11-08T13:00:00	8	Radiación solar	1033
146913	7	Sololá	713	San Lucas Tolimán	10	San Lucas Tolimán	9	Septiembre	2023-11-09T00:00:00	2024-11-08T14:00:00	2	Temperatura media	24.7
146914	7	Sololá	713	San Lucas Tolimán	10	San Lucas Tolimán	9	Septiembre	2023-11-09T00:00:00	2024-11-08T14:00:00	4	Temperatura máxima	25.2
146915	7	Sololá	713	San Lucas Tolimán	10	San Lucas Tolimán	9	Septiembre	2023-11-09T00:00:00	2024-11-08T14:00:00	3	Temperatura mínima	24.2
146916	7	Sololá	713	San Lucas Tolimán	10	San Lucas Tolimán	9	Septiembre	2023-11-09T00:00:00	2024-11-08T14:00:00	5	Humedad	77
146917	7	Sololá	713	San Lucas Tolimán	10	San Lucas Tolimán	9	Septiembre	2023-11-09T00:00:00	2024-11-08T14:00:00	6	Velocidad del viento	9.7
146918	7	Sololá	713	San Lucas Tolimán	10	San Lucas Tolimán	9	Septiembre	2023-11-09T00:00:00	2024-11-08T14:00:00	7	Dirección del viento	9.66
146919	7	Sololá	713	San Lucas Tolimán	10	San Lucas Tolimán	9	Septiembre	2023-11-09T00:00:00	2024-11-08T14:00:00	1	Precipitación	0
146920	7	Sololá	713	San Lucas Tolimán	10	San Lucas Tolimán	9	Septiembre	2023-11-09T00:00:00	2024-11-08T14:00:00	8	Radiación solar	988
146921	7	Sololá	713	San Lucas Tolimán	10	San Lucas Tolimán	9	Septiembre	2023-11-09T00:00:00	2024-11-08T15:00:00	2	Temperatura media	23.7
146922	7	Sololá	713	San Lucas Tolimán	10	San Lucas Tolimán	9	Septiembre	2023-11-09T00:00:00	2024-11-08T15:00:00	4	Temperatura máxima	24.7
146923	7	Sololá	713	San Lucas Tolimán	10	San Lucas Tolimán	9	Septiembre	2023-11-09T00:00:00	2024-11-08T15:00:00	3	Temperatura mínima	23.7
146924	7	Sololá	713	San Lucas Tolimán	10	San Lucas Tolimán	9	Septiembre	2023-11-09T00:00:00	2024-11-08T15:00:00	5	Humedad	81
146925	7	Sololá	713	San Lucas Tolimán	10	San Lucas Tolimán	9	Septiembre	2023-11-09T00:00:00	2024-11-08T15:00:00	6	Velocidad del viento	9.7
146926	7	Sololá	713	San Lucas Tolimán	10	San Lucas Tolimán	9	Septiembre	2023-11-09T00:00:00	2024-11-08T15:00:00	7	Dirección del viento	9.66
146927	7	Sololá	713	San Lucas Tolimán	10	San Lucas Tolimán	9	Septiembre	2023-11-09T00:00:00	2024-11-08T15:00:00	1	Precipitación	0
146928	7	Sololá	713	San Lucas Tolimán	10	San Lucas Tolimán	9	Septiembre	2023-11-09T00:00:00	2024-11-08T15:00:00	8	Radiación solar	456
146929	7	Sololá	713	San Lucas Tolimán	10	San Lucas Tolimán	9	Septiembre	2023-11-09T00:00:00	2024-11-08T16:00:00	2	Temperatura media	20.9
146930	7	Sololá	713	San Lucas Tolimán	10	San Lucas Tolimán	9	Septiembre	2023-11-09T00:00:00	2024-11-08T16:00:00	4	Temperatura máxima	23.6
146931	7	Sololá	713	San Lucas Tolimán	10	San Lucas Tolimán	9	Septiembre	2023-11-09T00:00:00	2024-11-08T16:00:00	3	Temperatura mínima	20.9
146932	7	Sololá	713	San Lucas Tolimán	10	San Lucas Tolimán	9	Septiembre	2023-11-09T00:00:00	2024-11-08T16:00:00	5	Humedad	90
146933	7	Sololá	713	San Lucas Tolimán	10	San Lucas Tolimán	9	Septiembre	2023-11-09T00:00:00	2024-11-08T16:00:00	6	Velocidad del viento	9.7
146934	7	Sololá	713	San Lucas Tolimán	10	San Lucas Tolimán	9	Septiembre	2023-11-09T00:00:00	2024-11-08T16:00:00	7	Dirección del viento	9.66
146935	7	Sololá	713	San Lucas Tolimán	10	San Lucas Tolimán	9	Septiembre	2023-11-09T00:00:00	2024-11-08T16:00:00	1	Precipitación	0
146936	7	Sololá	713	San Lucas Tolimán	10	San Lucas Tolimán	9	Septiembre	2023-11-09T00:00:00	2024-11-08T16:00:00	8	Radiación solar	504
146937	7	Sololá	713	San Lucas Tolimán	10	San Lucas Tolimán	9	Septiembre	2023-11-09T00:00:00	2024-11-08T17:00:00	2	Temperatura media	20.2
146938	7	Sololá	713	San Lucas Tolimán	10	San Lucas Tolimán	9	Septiembre	2023-11-09T00:00:00	2024-11-08T17:00:00	4	Temperatura máxima	20.9
146939	7	Sololá	713	San Lucas Tolimán	10	San Lucas Tolimán	9	Septiembre	2023-11-09T00:00:00	2024-11-08T17:00:00	3	Temperatura mínima	20.2
146940	7	Sololá	713	San Lucas Tolimán	10	San Lucas Tolimán	9	Septiembre	2023-11-09T00:00:00	2024-11-08T17:00:00	5	Humedad	92
146941	7	Sololá	713	San Lucas Tolimán	10	San Lucas Tolimán	9	Septiembre	2023-11-09T00:00:00	2024-11-08T17:00:00	6	Velocidad del viento	8
146942	7	Sololá	713	San Lucas Tolimán	10	San Lucas Tolimán	9	Septiembre	2023-11-09T00:00:00	2024-11-08T17:00:00	7	Dirección del viento	8.05
146943	7	Sololá	713	San Lucas Tolimán	10	San Lucas Tolimán	9	Septiembre	2023-11-09T00:00:00	2024-11-08T17:00:00	1	Precipitación	0
146944	7	Sololá	713	San Lucas Tolimán	10	San Lucas Tolimán	9	Septiembre	2023-11-09T00:00:00	2024-11-08T17:00:00	8	Radiación solar	92
146945	7	Sololá	713	San Lucas Tolimán	10	San Lucas Tolimán	9	Septiembre	2023-11-09T00:00:00	2024-11-08T18:00:00	2	Temperatura media	20
146946	7	Sololá	713	San Lucas Tolimán	10	San Lucas Tolimán	9	Septiembre	2023-11-09T00:00:00	2024-11-08T18:00:00	4	Temperatura máxima	20.3
146947	7	Sololá	713	San Lucas Tolimán	10	San Lucas Tolimán	9	Septiembre	2023-11-09T00:00:00	2024-11-08T18:00:00	3	Temperatura mínima	20
146948	7	Sololá	713	San Lucas Tolimán	10	San Lucas Tolimán	9	Septiembre	2023-11-09T00:00:00	2024-11-08T18:00:00	5	Humedad	90
146949	7	Sololá	713	San Lucas Tolimán	10	San Lucas Tolimán	9	Septiembre	2023-11-09T00:00:00	2024-11-08T18:00:00	6	Velocidad del viento	4.8
146950	7	Sololá	713	San Lucas Tolimán	10	San Lucas Tolimán	9	Septiembre	2023-11-09T00:00:00	2024-11-08T18:00:00	7	Dirección del viento	4.83
146951	7	Sololá	713	San Lucas Tolimán	10	San Lucas Tolimán	9	Septiembre	2023-11-09T00:00:00	2024-11-08T18:00:00	1	Precipitación	0
146952	7	Sololá	713	San Lucas Tolimán	10	San Lucas Tolimán	9	Septiembre	2023-11-09T00:00:00	2024-11-08T18:00:00	8	Radiación solar	20
146953	7	Sololá	713	San Lucas Tolimán	10	San Lucas Tolimán	9	Septiembre	2023-11-09T00:00:00	2024-11-08T19:00:00	2	Temperatura media	19.8
146954	7	Sololá	713	San Lucas Tolimán	10	San Lucas Tolimán	9	Septiembre	2023-11-09T00:00:00	2024-11-08T19:00:00	4	Temperatura máxima	20.1
146955	7	Sololá	713	San Lucas Tolimán	10	San Lucas Tolimán	9	Septiembre	2023-11-09T00:00:00	2024-11-08T19:00:00	3	Temperatura mínima	19.7
146956	7	Sololá	713	San Lucas Tolimán	10	San Lucas Tolimán	9	Septiembre	2023-11-09T00:00:00	2024-11-08T19:00:00	5	Humedad	93
146957	7	Sololá	713	San Lucas Tolimán	10	San Lucas Tolimán	9	Septiembre	2023-11-09T00:00:00	2024-11-08T19:00:00	6	Velocidad del viento	4.8
146958	7	Sololá	713	San Lucas Tolimán	10	San Lucas Tolimán	9	Septiembre	2023-11-09T00:00:00	2024-11-08T19:00:00	7	Dirección del viento	4.83
146959	7	Sololá	713	San Lucas Tolimán	10	San Lucas Tolimán	9	Septiembre	2023-11-09T00:00:00	2024-11-08T19:00:00	1	Precipitación	0
146960	7	Sololá	713	San Lucas Tolimán	10	San Lucas Tolimán	9	Septiembre	2023-11-09T00:00:00	2024-11-08T19:00:00	8	Radiación solar	0
146961	7	Sololá	713	San Lucas Tolimán	10	San Lucas Tolimán	9	Septiembre	2023-11-09T00:00:00	2024-11-08T20:00:00	2	Temperatura media	19.4
146962	7	Sololá	713	San Lucas Tolimán	10	San Lucas Tolimán	9	Septiembre	2023-11-09T00:00:00	2024-11-08T20:00:00	4	Temperatura máxima	19.8
146963	7	Sololá	713	San Lucas Tolimán	10	San Lucas Tolimán	9	Septiembre	2023-11-09T00:00:00	2024-11-08T20:00:00	3	Temperatura mínima	19.4
146964	7	Sololá	713	San Lucas Tolimán	10	San Lucas Tolimán	9	Septiembre	2023-11-09T00:00:00	2024-11-08T20:00:00	5	Humedad	92
146965	7	Sololá	713	San Lucas Tolimán	10	San Lucas Tolimán	9	Septiembre	2023-11-09T00:00:00	2024-11-08T20:00:00	6	Velocidad del viento	3.2
146966	7	Sololá	713	San Lucas Tolimán	10	San Lucas Tolimán	9	Septiembre	2023-11-09T00:00:00	2024-11-08T20:00:00	7	Dirección del viento	3.22
146967	7	Sololá	713	San Lucas Tolimán	10	San Lucas Tolimán	9	Septiembre	2023-11-09T00:00:00	2024-11-08T20:00:00	1	Precipitación	0
146968	7	Sololá	713	San Lucas Tolimán	10	San Lucas Tolimán	9	Septiembre	2023-11-09T00:00:00	2024-11-08T20:00:00	8	Radiación solar	0
146969	7	Sololá	713	San Lucas Tolimán	10	San Lucas Tolimán	9	Septiembre	2023-11-09T00:00:00	2024-11-08T21:00:00	2	Temperatura media	19.2
146970	7	Sololá	713	San Lucas Tolimán	10	San Lucas Tolimán	9	Septiembre	2023-11-09T00:00:00	2024-11-08T21:00:00	4	Temperatura máxima	19.6
146971	7	Sololá	713	San Lucas Tolimán	10	San Lucas Tolimán	9	Septiembre	2023-11-09T00:00:00	2024-11-08T21:00:00	3	Temperatura mínima	19.2
146972	7	Sololá	713	San Lucas Tolimán	10	San Lucas Tolimán	9	Septiembre	2023-11-09T00:00:00	2024-11-08T21:00:00	5	Humedad	93
146973	7	Sololá	713	San Lucas Tolimán	10	San Lucas Tolimán	9	Septiembre	2023-11-09T00:00:00	2024-11-08T21:00:00	6	Velocidad del viento	1.6
146974	7	Sololá	713	San Lucas Tolimán	10	San Lucas Tolimán	9	Septiembre	2023-11-09T00:00:00	2024-11-08T21:00:00	7	Dirección del viento	1.61
146975	7	Sololá	713	San Lucas Tolimán	10	San Lucas Tolimán	9	Septiembre	2023-11-09T00:00:00	2024-11-08T21:00:00	1	Precipitación	0
146976	7	Sololá	713	San Lucas Tolimán	10	San Lucas Tolimán	9	Septiembre	2023-11-09T00:00:00	2024-11-08T21:00:00	8	Radiación solar	0
146977	7	Sololá	713	San Lucas Tolimán	10	San Lucas Tolimán	9	Septiembre	2023-11-09T00:00:00	2024-11-08T22:00:00	2	Temperatura media	18.7
146978	7	Sololá	713	San Lucas Tolimán	10	San Lucas Tolimán	9	Septiembre	2023-11-09T00:00:00	2024-11-08T22:00:00	4	Temperatura máxima	19.2
146979	7	Sololá	713	San Lucas Tolimán	10	San Lucas Tolimán	9	Septiembre	2023-11-09T00:00:00	2024-11-08T22:00:00	3	Temperatura mínima	18.7
146980	7	Sololá	713	San Lucas Tolimán	10	San Lucas Tolimán	9	Septiembre	2023-11-09T00:00:00	2024-11-08T22:00:00	5	Humedad	95
146981	7	Sololá	713	San Lucas Tolimán	10	San Lucas Tolimán	9	Septiembre	2023-11-09T00:00:00	2024-11-08T22:00:00	6	Velocidad del viento	3.2
146982	7	Sololá	713	San Lucas Tolimán	10	San Lucas Tolimán	9	Septiembre	2023-11-09T00:00:00	2024-11-08T22:00:00	7	Dirección del viento	3.22
146983	7	Sololá	713	San Lucas Tolimán	10	San Lucas Tolimán	9	Septiembre	2023-11-09T00:00:00	2024-11-08T22:00:00	1	Precipitación	0
146984	7	Sololá	713	San Lucas Tolimán	10	San Lucas Tolimán	9	Septiembre	2023-11-09T00:00:00	2024-11-08T22:00:00	8	Radiación solar	0
146985	7	Sololá	713	San Lucas Tolimán	10	San Lucas Tolimán	9	Septiembre	2023-11-09T00:00:00	2024-11-08T23:00:00	2	Temperatura media	18.8
146986	7	Sololá	713	San Lucas Tolimán	10	San Lucas Tolimán	9	Septiembre	2023-11-09T00:00:00	2024-11-08T23:00:00	4	Temperatura máxima	18.8
146987	7	Sololá	713	San Lucas Tolimán	10	San Lucas Tolimán	9	Septiembre	2023-11-09T00:00:00	2024-11-08T23:00:00	3	Temperatura mínima	18.6
146988	7	Sololá	713	San Lucas Tolimán	10	San Lucas Tolimán	9	Septiembre	2023-11-09T00:00:00	2024-11-08T23:00:00	5	Humedad	93
146989	7	Sololá	713	San Lucas Tolimán	10	San Lucas Tolimán	9	Septiembre	2023-11-09T00:00:00	2024-11-08T23:00:00	6	Velocidad del viento	3.2
146990	7	Sololá	713	San Lucas Tolimán	10	San Lucas Tolimán	9	Septiembre	2023-11-09T00:00:00	2024-11-08T23:00:00	7	Dirección del viento	3.22
146991	7	Sololá	713	San Lucas Tolimán	10	San Lucas Tolimán	9	Septiembre	2023-11-09T00:00:00	2024-11-08T23:00:00	1	Precipitación	0
146992	7	Sololá	713	San Lucas Tolimán	10	San Lucas Tolimán	9	Septiembre	2023-11-09T00:00:00	2024-11-08T23:00:00	8	Radiación solar	0
146993	7	Sololá	713	San Lucas Tolimán	10	San Lucas Tolimán	9	Septiembre	2023-12-09T00:00:00	2024-11-08T00:00:00	2	Temperatura media	18.1
146994	7	Sololá	713	San Lucas Tolimán	10	San Lucas Tolimán	9	Septiembre	2023-12-09T00:00:00	2024-11-08T00:00:00	4	Temperatura máxima	18.8
146995	7	Sololá	713	San Lucas Tolimán	10	San Lucas Tolimán	9	Septiembre	2023-12-09T00:00:00	2024-11-08T00:00:00	3	Temperatura mínima	18.1
146996	7	Sololá	713	San Lucas Tolimán	10	San Lucas Tolimán	9	Septiembre	2023-12-09T00:00:00	2024-11-08T00:00:00	5	Humedad	91
146997	7	Sololá	713	San Lucas Tolimán	10	San Lucas Tolimán	9	Septiembre	2023-12-09T00:00:00	2024-11-08T00:00:00	6	Velocidad del viento	0
146998	7	Sololá	713	San Lucas Tolimán	10	San Lucas Tolimán	9	Septiembre	2023-12-09T00:00:00	2024-11-08T00:00:00	7	Dirección del viento	0
146999	7	Sololá	713	San Lucas Tolimán	10	San Lucas Tolimán	9	Septiembre	2023-12-09T00:00:00	2024-11-08T00:00:00	1	Precipitación	0
147000	7	Sololá	713	San Lucas Tolimán	10	San Lucas Tolimán	9	Septiembre	2023-12-09T00:00:00	2024-11-08T00:00:00	8	Radiación solar	0
147001	7	Sololá	713	San Lucas Tolimán	10	San Lucas Tolimán	9	Septiembre	2023-12-09T00:00:00	2024-11-08T01:00:00	2	Temperatura media	17.3
147002	7	Sololá	713	San Lucas Tolimán	10	San Lucas Tolimán	9	Septiembre	2023-12-09T00:00:00	2024-11-08T01:00:00	4	Temperatura máxima	18.1
147003	7	Sololá	713	San Lucas Tolimán	10	San Lucas Tolimán	9	Septiembre	2023-12-09T00:00:00	2024-11-08T01:00:00	3	Temperatura mínima	17.3
147004	7	Sololá	713	San Lucas Tolimán	10	San Lucas Tolimán	9	Septiembre	2023-12-09T00:00:00	2024-11-08T01:00:00	5	Humedad	92
147005	7	Sololá	713	San Lucas Tolimán	10	San Lucas Tolimán	9	Septiembre	2023-12-09T00:00:00	2024-11-08T01:00:00	6	Velocidad del viento	0
147006	7	Sololá	713	San Lucas Tolimán	10	San Lucas Tolimán	9	Septiembre	2023-12-09T00:00:00	2024-11-08T01:00:00	7	Dirección del viento	0
147007	7	Sololá	713	San Lucas Tolimán	10	San Lucas Tolimán	9	Septiembre	2023-12-09T00:00:00	2024-11-08T01:00:00	1	Precipitación	0
147008	7	Sololá	713	San Lucas Tolimán	10	San Lucas Tolimán	9	Septiembre	2023-12-09T00:00:00	2024-11-08T01:00:00	8	Radiación solar	0
147009	7	Sololá	713	San Lucas Tolimán	10	San Lucas Tolimán	9	Septiembre	2023-12-09T00:00:00	2024-11-08T02:00:00	2	Temperatura media	17.2
147010	7	Sololá	713	San Lucas Tolimán	10	San Lucas Tolimán	9	Septiembre	2023-12-09T00:00:00	2024-11-08T02:00:00	4	Temperatura máxima	17.3
147011	7	Sololá	713	San Lucas Tolimán	10	San Lucas Tolimán	9	Septiembre	2023-12-09T00:00:00	2024-11-08T02:00:00	3	Temperatura mínima	17.2
147012	7	Sololá	713	San Lucas Tolimán	10	San Lucas Tolimán	9	Septiembre	2023-12-09T00:00:00	2024-11-08T02:00:00	5	Humedad	92
147013	7	Sololá	713	San Lucas Tolimán	10	San Lucas Tolimán	9	Septiembre	2023-12-09T00:00:00	2024-11-08T02:00:00	6	Velocidad del viento	0
147014	7	Sololá	713	San Lucas Tolimán	10	San Lucas Tolimán	9	Septiembre	2023-12-09T00:00:00	2024-11-08T02:00:00	7	Dirección del viento	0
147015	7	Sololá	713	San Lucas Tolimán	10	San Lucas Tolimán	9	Septiembre	2023-12-09T00:00:00	2024-11-08T02:00:00	1	Precipitación	0
147016	7	Sololá	713	San Lucas Tolimán	10	San Lucas Tolimán	9	Septiembre	2023-12-09T00:00:00	2024-11-08T02:00:00	8	Radiación solar	0
147017	7	Sololá	713	San Lucas Tolimán	10	San Lucas Tolimán	9	Septiembre	2023-12-09T00:00:00	2024-11-08T03:00:00	2	Temperatura media	17.1
147018	7	Sololá	713	San Lucas Tolimán	10	San Lucas Tolimán	9	Septiembre	2023-12-09T00:00:00	2024-11-08T03:00:00	4	Temperatura máxima	17.3
147019	7	Sololá	713	San Lucas Tolimán	10	San Lucas Tolimán	9	Septiembre	2023-12-09T00:00:00	2024-11-08T03:00:00	3	Temperatura mínima	17.1
147020	7	Sololá	713	San Lucas Tolimán	10	San Lucas Tolimán	9	Septiembre	2023-12-09T00:00:00	2024-11-08T03:00:00	5	Humedad	90
147021	7	Sololá	713	San Lucas Tolimán	10	San Lucas Tolimán	9	Septiembre	2023-12-09T00:00:00	2024-11-08T03:00:00	6	Velocidad del viento	1.6
147022	7	Sololá	713	San Lucas Tolimán	10	San Lucas Tolimán	9	Septiembre	2023-12-09T00:00:00	2024-11-08T03:00:00	7	Dirección del viento	1.61
147023	7	Sololá	713	San Lucas Tolimán	10	San Lucas Tolimán	9	Septiembre	2023-12-09T00:00:00	2024-11-08T03:00:00	1	Precipitación	0
147024	7	Sololá	713	San Lucas Tolimán	10	San Lucas Tolimán	9	Septiembre	2023-12-09T00:00:00	2024-11-08T03:00:00	8	Radiación solar	0
147025	7	Sololá	713	San Lucas Tolimán	10	San Lucas Tolimán	9	Septiembre	2023-12-09T00:00:00	2024-11-08T04:00:00	2	Temperatura media	17.1
147026	7	Sololá	713	San Lucas Tolimán	10	San Lucas Tolimán	9	Septiembre	2023-12-09T00:00:00	2024-11-08T04:00:00	4	Temperatura máxima	17.1
147027	7	Sololá	713	San Lucas Tolimán	10	San Lucas Tolimán	9	Septiembre	2023-12-09T00:00:00	2024-11-08T04:00:00	3	Temperatura mínima	16.8
147028	7	Sololá	713	San Lucas Tolimán	10	San Lucas Tolimán	9	Septiembre	2023-12-09T00:00:00	2024-11-08T04:00:00	5	Humedad	88
147029	7	Sololá	713	San Lucas Tolimán	10	San Lucas Tolimán	9	Septiembre	2023-12-09T00:00:00	2024-11-08T04:00:00	6	Velocidad del viento	1.6
147030	7	Sololá	713	San Lucas Tolimán	10	San Lucas Tolimán	9	Septiembre	2023-12-09T00:00:00	2024-11-08T04:00:00	7	Dirección del viento	1.61
147031	7	Sololá	713	San Lucas Tolimán	10	San Lucas Tolimán	9	Septiembre	2023-12-09T00:00:00	2024-11-08T04:00:00	1	Precipitación	0
147032	7	Sololá	713	San Lucas Tolimán	10	San Lucas Tolimán	9	Septiembre	2023-12-09T00:00:00	2024-11-08T04:00:00	8	Radiación solar	0
147033	7	Sololá	713	San Lucas Tolimán	10	San Lucas Tolimán	9	Septiembre	2023-12-09T00:00:00	2024-11-08T05:00:00	2	Temperatura media	17.6
147034	7	Sololá	713	San Lucas Tolimán	10	San Lucas Tolimán	9	Septiembre	2023-12-09T00:00:00	2024-11-08T05:00:00	4	Temperatura máxima	17.9
147035	7	Sololá	713	San Lucas Tolimán	10	San Lucas Tolimán	9	Septiembre	2023-12-09T00:00:00	2024-11-08T05:00:00	3	Temperatura mínima	17.1
147036	7	Sololá	713	San Lucas Tolimán	10	San Lucas Tolimán	9	Septiembre	2023-12-09T00:00:00	2024-11-08T05:00:00	5	Humedad	88
147037	7	Sololá	713	San Lucas Tolimán	10	San Lucas Tolimán	9	Septiembre	2023-12-09T00:00:00	2024-11-08T05:00:00	6	Velocidad del viento	1.6
147038	7	Sololá	713	San Lucas Tolimán	10	San Lucas Tolimán	9	Septiembre	2023-12-09T00:00:00	2024-11-08T05:00:00	7	Dirección del viento	1.61
147039	7	Sololá	713	San Lucas Tolimán	10	San Lucas Tolimán	9	Septiembre	2023-12-09T00:00:00	2024-11-08T05:00:00	1	Precipitación	0
147040	7	Sololá	713	San Lucas Tolimán	10	San Lucas Tolimán	9	Septiembre	2023-12-09T00:00:00	2024-11-08T05:00:00	8	Radiación solar	0
147041	7	Sololá	713	San Lucas Tolimán	10	San Lucas Tolimán	9	Septiembre	2023-12-09T00:00:00	2024-11-08T06:00:00	2	Temperatura media	16.7
147042	7	Sololá	713	San Lucas Tolimán	10	San Lucas Tolimán	9	Septiembre	2023-12-09T00:00:00	2024-11-08T06:00:00	4	Temperatura máxima	17.6
147043	7	Sololá	713	San Lucas Tolimán	10	San Lucas Tolimán	9	Septiembre	2023-12-09T00:00:00	2024-11-08T06:00:00	3	Temperatura mínima	16.7
147044	7	Sololá	713	San Lucas Tolimán	10	San Lucas Tolimán	9	Septiembre	2023-12-09T00:00:00	2024-11-08T06:00:00	5	Humedad	89
147045	7	Sololá	713	San Lucas Tolimán	10	San Lucas Tolimán	9	Septiembre	2023-12-09T00:00:00	2024-11-08T06:00:00	6	Velocidad del viento	0
147046	7	Sololá	713	San Lucas Tolimán	10	San Lucas Tolimán	9	Septiembre	2023-12-09T00:00:00	2024-11-08T06:00:00	7	Dirección del viento	0
147047	7	Sololá	713	San Lucas Tolimán	10	San Lucas Tolimán	9	Septiembre	2023-12-09T00:00:00	2024-11-08T06:00:00	1	Precipitación	0
147048	7	Sololá	713	San Lucas Tolimán	10	San Lucas Tolimán	9	Septiembre	2023-12-09T00:00:00	2024-11-08T06:00:00	8	Radiación solar	0
147049	7	Sololá	713	San Lucas Tolimán	10	San Lucas Tolimán	9	Septiembre	2023-12-09T00:00:00	2024-11-08T07:00:00	2	Temperatura media	17.1
147050	7	Sololá	713	San Lucas Tolimán	10	San Lucas Tolimán	9	Septiembre	2023-12-09T00:00:00	2024-11-08T07:00:00	4	Temperatura máxima	17.1
147051	7	Sololá	713	San Lucas Tolimán	10	San Lucas Tolimán	9	Septiembre	2023-12-09T00:00:00	2024-11-08T07:00:00	3	Temperatura mínima	16.6
147052	7	Sololá	713	San Lucas Tolimán	10	San Lucas Tolimán	9	Septiembre	2023-12-09T00:00:00	2024-11-08T07:00:00	5	Humedad	87
147053	7	Sololá	713	San Lucas Tolimán	10	San Lucas Tolimán	9	Septiembre	2023-12-09T00:00:00	2024-11-08T07:00:00	6	Velocidad del viento	1.6
147054	7	Sololá	713	San Lucas Tolimán	10	San Lucas Tolimán	9	Septiembre	2023-12-09T00:00:00	2024-11-08T07:00:00	7	Dirección del viento	1.61
147055	7	Sololá	713	San Lucas Tolimán	10	San Lucas Tolimán	9	Septiembre	2023-12-09T00:00:00	2024-11-08T07:00:00	1	Precipitación	0
147056	7	Sololá	713	San Lucas Tolimán	10	San Lucas Tolimán	9	Septiembre	2023-12-09T00:00:00	2024-11-08T07:00:00	8	Radiación solar	44
147057	7	Sololá	713	San Lucas Tolimán	10	San Lucas Tolimán	9	Septiembre	2023-12-09T00:00:00	2024-11-08T08:00:00	2	Temperatura media	22.1
147058	7	Sololá	713	San Lucas Tolimán	10	San Lucas Tolimán	9	Septiembre	2023-12-09T00:00:00	2024-11-08T08:00:00	4	Temperatura máxima	22.1
147059	7	Sololá	713	San Lucas Tolimán	10	San Lucas Tolimán	9	Septiembre	2023-12-09T00:00:00	2024-11-08T08:00:00	3	Temperatura mínima	17
147060	7	Sololá	713	San Lucas Tolimán	10	San Lucas Tolimán	9	Septiembre	2023-12-09T00:00:00	2024-11-08T08:00:00	5	Humedad	75
147061	7	Sololá	713	San Lucas Tolimán	10	San Lucas Tolimán	9	Septiembre	2023-12-09T00:00:00	2024-11-08T08:00:00	6	Velocidad del viento	1.6
147062	7	Sololá	713	San Lucas Tolimán	10	San Lucas Tolimán	9	Septiembre	2023-12-09T00:00:00	2024-11-08T08:00:00	7	Dirección del viento	1.61
147063	7	Sololá	713	San Lucas Tolimán	10	San Lucas Tolimán	9	Septiembre	2023-12-09T00:00:00	2024-11-08T08:00:00	1	Precipitación	0
147064	7	Sololá	713	San Lucas Tolimán	10	San Lucas Tolimán	9	Septiembre	2023-12-09T00:00:00	2024-11-08T08:00:00	8	Radiación solar	156
147065	7	Sololá	713	San Lucas Tolimán	10	San Lucas Tolimán	9	Septiembre	2023-12-09T00:00:00	2024-11-08T09:00:00	2	Temperatura media	25.2
147066	7	Sololá	713	San Lucas Tolimán	10	San Lucas Tolimán	9	Septiembre	2023-12-09T00:00:00	2024-11-08T09:00:00	4	Temperatura máxima	25.2
147067	7	Sololá	713	San Lucas Tolimán	10	San Lucas Tolimán	9	Septiembre	2023-12-09T00:00:00	2024-11-08T09:00:00	3	Temperatura mínima	22.1
147068	7	Sololá	713	San Lucas Tolimán	10	San Lucas Tolimán	9	Septiembre	2023-12-09T00:00:00	2024-11-08T09:00:00	5	Humedad	62
147069	7	Sololá	713	San Lucas Tolimán	10	San Lucas Tolimán	9	Septiembre	2023-12-09T00:00:00	2024-11-08T09:00:00	6	Velocidad del viento	1.6
147070	7	Sololá	713	San Lucas Tolimán	10	San Lucas Tolimán	9	Septiembre	2023-12-09T00:00:00	2024-11-08T09:00:00	7	Dirección del viento	1.61
147071	7	Sololá	713	San Lucas Tolimán	10	San Lucas Tolimán	9	Septiembre	2023-12-09T00:00:00	2024-11-08T09:00:00	1	Precipitación	0
147072	7	Sololá	713	San Lucas Tolimán	10	San Lucas Tolimán	9	Septiembre	2023-12-09T00:00:00	2024-11-08T09:00:00	8	Radiación solar	325
147073	7	Sololá	713	San Lucas Tolimán	10	San Lucas Tolimán	9	Septiembre	2023-12-09T00:00:00	2024-11-08T10:00:00	2	Temperatura media	25.7
147074	7	Sololá	713	San Lucas Tolimán	10	San Lucas Tolimán	9	Septiembre	2023-12-09T00:00:00	2024-11-08T10:00:00	4	Temperatura máxima	26.4
147075	7	Sololá	713	San Lucas Tolimán	10	San Lucas Tolimán	9	Septiembre	2023-12-09T00:00:00	2024-11-08T10:00:00	3	Temperatura mínima	25.2
147076	7	Sololá	713	San Lucas Tolimán	10	San Lucas Tolimán	9	Septiembre	2023-12-09T00:00:00	2024-11-08T10:00:00	5	Humedad	66
147077	7	Sololá	713	San Lucas Tolimán	10	San Lucas Tolimán	9	Septiembre	2023-12-09T00:00:00	2024-11-08T10:00:00	6	Velocidad del viento	4.8
147078	7	Sololá	713	San Lucas Tolimán	10	San Lucas Tolimán	9	Septiembre	2023-12-09T00:00:00	2024-11-08T10:00:00	7	Dirección del viento	4.83
147079	7	Sololá	713	San Lucas Tolimán	10	San Lucas Tolimán	9	Septiembre	2023-12-09T00:00:00	2024-11-08T10:00:00	1	Precipitación	0
147080	7	Sololá	713	San Lucas Tolimán	10	San Lucas Tolimán	9	Septiembre	2023-12-09T00:00:00	2024-11-08T10:00:00	8	Radiación solar	477
147081	7	Sololá	713	San Lucas Tolimán	10	San Lucas Tolimán	9	Septiembre	2023-12-09T00:00:00	2024-11-08T11:00:00	2	Temperatura media	24.5
147082	7	Sololá	713	San Lucas Tolimán	10	San Lucas Tolimán	9	Septiembre	2023-12-09T00:00:00	2024-11-08T11:00:00	4	Temperatura máxima	25.7
147083	7	Sololá	713	San Lucas Tolimán	10	San Lucas Tolimán	9	Septiembre	2023-12-09T00:00:00	2024-11-08T11:00:00	3	Temperatura mínima	24.5
147084	7	Sololá	713	San Lucas Tolimán	10	San Lucas Tolimán	9	Septiembre	2023-12-09T00:00:00	2024-11-08T11:00:00	5	Humedad	71
147085	7	Sololá	713	San Lucas Tolimán	10	San Lucas Tolimán	9	Septiembre	2023-12-09T00:00:00	2024-11-08T11:00:00	6	Velocidad del viento	8
147086	7	Sololá	713	San Lucas Tolimán	10	San Lucas Tolimán	9	Septiembre	2023-12-09T00:00:00	2024-11-08T11:00:00	7	Dirección del viento	8.05
147087	7	Sololá	713	San Lucas Tolimán	10	San Lucas Tolimán	9	Septiembre	2023-12-09T00:00:00	2024-11-08T11:00:00	1	Precipitación	0
147088	7	Sololá	713	San Lucas Tolimán	10	San Lucas Tolimán	9	Septiembre	2023-12-09T00:00:00	2024-11-08T11:00:00	8	Radiación solar	555
147089	7	Sololá	713	San Lucas Tolimán	10	San Lucas Tolimán	9	Septiembre	2023-12-09T00:00:00	2024-11-08T12:00:00	2	Temperatura media	25
147090	7	Sololá	713	San Lucas Tolimán	10	San Lucas Tolimán	9	Septiembre	2023-12-09T00:00:00	2024-11-08T12:00:00	4	Temperatura máxima	25.5
147091	7	Sololá	713	San Lucas Tolimán	10	San Lucas Tolimán	9	Septiembre	2023-12-09T00:00:00	2024-11-08T12:00:00	3	Temperatura mínima	24.4
147092	7	Sololá	713	San Lucas Tolimán	10	San Lucas Tolimán	9	Septiembre	2023-12-09T00:00:00	2024-11-08T12:00:00	5	Humedad	74
147093	7	Sololá	713	San Lucas Tolimán	10	San Lucas Tolimán	9	Septiembre	2023-12-09T00:00:00	2024-11-08T12:00:00	6	Velocidad del viento	8
147094	7	Sololá	713	San Lucas Tolimán	10	San Lucas Tolimán	9	Septiembre	2023-12-09T00:00:00	2024-11-08T12:00:00	7	Dirección del viento	8.05
147095	7	Sololá	713	San Lucas Tolimán	10	San Lucas Tolimán	9	Septiembre	2023-12-09T00:00:00	2024-11-08T12:00:00	1	Precipitación	0
147096	7	Sololá	713	San Lucas Tolimán	10	San Lucas Tolimán	9	Septiembre	2023-12-09T00:00:00	2024-11-08T12:00:00	8	Radiación solar	698
147097	7	Sololá	713	San Lucas Tolimán	10	San Lucas Tolimán	9	Septiembre	2023-12-09T00:00:00	2024-11-08T13:00:00	2	Temperatura media	25.8
147098	7	Sololá	713	San Lucas Tolimán	10	San Lucas Tolimán	9	Septiembre	2023-12-09T00:00:00	2024-11-08T13:00:00	4	Temperatura máxima	26.1
147099	7	Sololá	713	San Lucas Tolimán	10	San Lucas Tolimán	9	Septiembre	2023-12-09T00:00:00	2024-11-08T13:00:00	3	Temperatura mínima	24.6
147100	7	Sololá	713	San Lucas Tolimán	10	San Lucas Tolimán	9	Septiembre	2023-12-09T00:00:00	2024-11-08T13:00:00	5	Humedad	73
147101	7	Sololá	713	San Lucas Tolimán	10	San Lucas Tolimán	9	Septiembre	2023-12-09T00:00:00	2024-11-08T13:00:00	6	Velocidad del viento	8
147102	7	Sololá	713	San Lucas Tolimán	10	San Lucas Tolimán	9	Septiembre	2023-12-09T00:00:00	2024-11-08T13:00:00	7	Dirección del viento	8.05
147103	7	Sololá	713	San Lucas Tolimán	10	San Lucas Tolimán	9	Septiembre	2023-12-09T00:00:00	2024-11-08T13:00:00	1	Precipitación	0
147104	7	Sololá	713	San Lucas Tolimán	10	San Lucas Tolimán	9	Septiembre	2023-12-09T00:00:00	2024-11-08T13:00:00	8	Radiación solar	789
147105	7	Sololá	713	San Lucas Tolimán	10	San Lucas Tolimán	9	Septiembre	2023-12-09T00:00:00	2024-11-08T14:00:00	2	Temperatura media	26.2
147106	7	Sololá	713	San Lucas Tolimán	10	San Lucas Tolimán	9	Septiembre	2023-12-09T00:00:00	2024-11-08T14:00:00	4	Temperatura máxima	26.4
147107	7	Sololá	713	San Lucas Tolimán	10	San Lucas Tolimán	9	Septiembre	2023-12-09T00:00:00	2024-11-08T14:00:00	3	Temperatura mínima	25.1
147108	7	Sololá	713	San Lucas Tolimán	10	San Lucas Tolimán	9	Septiembre	2023-12-09T00:00:00	2024-11-08T14:00:00	5	Humedad	73
147109	7	Sololá	713	San Lucas Tolimán	10	San Lucas Tolimán	9	Septiembre	2023-12-09T00:00:00	2024-11-08T14:00:00	6	Velocidad del viento	6.4
147110	7	Sololá	713	San Lucas Tolimán	10	San Lucas Tolimán	9	Septiembre	2023-12-09T00:00:00	2024-11-08T14:00:00	7	Dirección del viento	6.44
147111	7	Sololá	713	San Lucas Tolimán	10	San Lucas Tolimán	9	Septiembre	2023-12-09T00:00:00	2024-11-08T14:00:00	1	Precipitación	0
147112	7	Sololá	713	San Lucas Tolimán	10	San Lucas Tolimán	9	Septiembre	2023-12-09T00:00:00	2024-11-08T14:00:00	8	Radiación solar	900
147113	7	Sololá	713	San Lucas Tolimán	10	San Lucas Tolimán	9	Septiembre	2023-12-09T00:00:00	2024-11-08T15:00:00	2	Temperatura media	24.3
147114	7	Sololá	713	San Lucas Tolimán	10	San Lucas Tolimán	9	Septiembre	2023-12-09T00:00:00	2024-11-08T15:00:00	4	Temperatura máxima	26.2
147115	7	Sololá	713	San Lucas Tolimán	10	San Lucas Tolimán	9	Septiembre	2023-12-09T00:00:00	2024-11-08T15:00:00	3	Temperatura mínima	24.3
147116	7	Sololá	713	San Lucas Tolimán	10	San Lucas Tolimán	9	Septiembre	2023-12-09T00:00:00	2024-11-08T15:00:00	5	Humedad	78
147117	7	Sololá	713	San Lucas Tolimán	10	San Lucas Tolimán	9	Septiembre	2023-12-09T00:00:00	2024-11-08T15:00:00	6	Velocidad del viento	8
147118	7	Sololá	713	San Lucas Tolimán	10	San Lucas Tolimán	9	Septiembre	2023-12-09T00:00:00	2024-11-08T15:00:00	7	Dirección del viento	8.05
147119	7	Sololá	713	San Lucas Tolimán	10	San Lucas Tolimán	9	Septiembre	2023-12-09T00:00:00	2024-11-08T15:00:00	1	Precipitación	0
147120	7	Sololá	713	San Lucas Tolimán	10	San Lucas Tolimán	9	Septiembre	2023-12-09T00:00:00	2024-11-08T15:00:00	8	Radiación solar	559
147121	7	Sololá	713	San Lucas Tolimán	10	San Lucas Tolimán	9	Septiembre	2023-12-09T00:00:00	2024-11-08T16:00:00	2	Temperatura media	23.6
147122	7	Sololá	713	San Lucas Tolimán	10	San Lucas Tolimán	9	Septiembre	2023-12-09T00:00:00	2024-11-08T16:00:00	4	Temperatura máxima	24.3
147123	7	Sololá	713	San Lucas Tolimán	10	San Lucas Tolimán	9	Septiembre	2023-12-09T00:00:00	2024-11-08T16:00:00	3	Temperatura mínima	23.3
147124	7	Sololá	713	San Lucas Tolimán	10	San Lucas Tolimán	9	Septiembre	2023-12-09T00:00:00	2024-11-08T16:00:00	5	Humedad	81
147125	7	Sololá	713	San Lucas Tolimán	10	San Lucas Tolimán	9	Septiembre	2023-12-09T00:00:00	2024-11-08T16:00:00	6	Velocidad del viento	8
147126	7	Sololá	713	San Lucas Tolimán	10	San Lucas Tolimán	9	Septiembre	2023-12-09T00:00:00	2024-11-08T16:00:00	7	Dirección del viento	8.05
147127	7	Sololá	713	San Lucas Tolimán	10	San Lucas Tolimán	9	Septiembre	2023-12-09T00:00:00	2024-11-08T16:00:00	1	Precipitación	0
147128	7	Sololá	713	San Lucas Tolimán	10	San Lucas Tolimán	9	Septiembre	2023-12-09T00:00:00	2024-11-08T16:00:00	8	Radiación solar	101
147129	7	Sololá	713	San Lucas Tolimán	10	San Lucas Tolimán	9	Septiembre	2023-12-09T00:00:00	2024-11-08T17:00:00	2	Temperatura media	22
147130	7	Sololá	713	San Lucas Tolimán	10	San Lucas Tolimán	9	Septiembre	2023-12-09T00:00:00	2024-11-08T17:00:00	4	Temperatura máxima	23.6
147131	7	Sololá	713	San Lucas Tolimán	10	San Lucas Tolimán	9	Septiembre	2023-12-09T00:00:00	2024-11-08T17:00:00	3	Temperatura mínima	21.9
147132	7	Sololá	713	San Lucas Tolimán	10	San Lucas Tolimán	9	Septiembre	2023-12-09T00:00:00	2024-11-08T17:00:00	5	Humedad	85
147133	7	Sololá	713	San Lucas Tolimán	10	San Lucas Tolimán	9	Septiembre	2023-12-09T00:00:00	2024-11-08T17:00:00	6	Velocidad del viento	6.4
147134	7	Sololá	713	San Lucas Tolimán	10	San Lucas Tolimán	9	Septiembre	2023-12-09T00:00:00	2024-11-08T17:00:00	7	Dirección del viento	6.44
147135	7	Sololá	713	San Lucas Tolimán	10	San Lucas Tolimán	9	Septiembre	2023-12-09T00:00:00	2024-11-08T17:00:00	1	Precipitación	0
147136	7	Sololá	713	San Lucas Tolimán	10	San Lucas Tolimán	9	Septiembre	2023-12-09T00:00:00	2024-11-08T17:00:00	8	Radiación solar	28
147137	7	Sololá	713	San Lucas Tolimán	10	San Lucas Tolimán	9	Septiembre	2023-12-09T00:00:00	2024-11-08T18:00:00	2	Temperatura media	20.8
147138	7	Sololá	713	San Lucas Tolimán	10	San Lucas Tolimán	9	Septiembre	2023-12-09T00:00:00	2024-11-08T18:00:00	4	Temperatura máxima	22
147139	7	Sololá	713	San Lucas Tolimán	10	San Lucas Tolimán	9	Septiembre	2023-12-09T00:00:00	2024-11-08T18:00:00	3	Temperatura mínima	20.8
147140	7	Sololá	713	San Lucas Tolimán	10	San Lucas Tolimán	9	Septiembre	2023-12-09T00:00:00	2024-11-08T18:00:00	5	Humedad	88
147141	7	Sololá	713	San Lucas Tolimán	10	San Lucas Tolimán	9	Septiembre	2023-12-09T00:00:00	2024-11-08T18:00:00	6	Velocidad del viento	4.8
147142	7	Sololá	713	San Lucas Tolimán	10	San Lucas Tolimán	9	Septiembre	2023-12-09T00:00:00	2024-11-08T18:00:00	7	Dirección del viento	4.83
147143	7	Sololá	713	San Lucas Tolimán	10	San Lucas Tolimán	9	Septiembre	2023-12-09T00:00:00	2024-11-08T18:00:00	1	Precipitación	0
147144	7	Sololá	713	San Lucas Tolimán	10	San Lucas Tolimán	9	Septiembre	2023-12-09T00:00:00	2024-11-08T18:00:00	8	Radiación solar	5
147145	7	Sololá	713	San Lucas Tolimán	10	San Lucas Tolimán	9	Septiembre	2023-12-09T00:00:00	2024-11-08T19:00:00	2	Temperatura media	20.4
147146	7	Sololá	713	San Lucas Tolimán	10	San Lucas Tolimán	9	Septiembre	2023-12-09T00:00:00	2024-11-08T19:00:00	4	Temperatura máxima	20.8
147147	7	Sololá	713	San Lucas Tolimán	10	San Lucas Tolimán	9	Septiembre	2023-12-09T00:00:00	2024-11-08T19:00:00	3	Temperatura mínima	20.4
147148	7	Sololá	713	San Lucas Tolimán	10	San Lucas Tolimán	9	Septiembre	2023-12-09T00:00:00	2024-11-08T19:00:00	5	Humedad	90
147149	7	Sololá	713	San Lucas Tolimán	10	San Lucas Tolimán	9	Septiembre	2023-12-09T00:00:00	2024-11-08T19:00:00	6	Velocidad del viento	3.2
147150	7	Sololá	713	San Lucas Tolimán	10	San Lucas Tolimán	9	Septiembre	2023-12-09T00:00:00	2024-11-08T19:00:00	7	Dirección del viento	3.22
147151	7	Sololá	713	San Lucas Tolimán	10	San Lucas Tolimán	9	Septiembre	2023-12-09T00:00:00	2024-11-08T19:00:00	1	Precipitación	0
147152	7	Sololá	713	San Lucas Tolimán	10	San Lucas Tolimán	9	Septiembre	2023-12-09T00:00:00	2024-11-08T19:00:00	8	Radiación solar	0
147153	7	Sololá	713	San Lucas Tolimán	10	San Lucas Tolimán	9	Septiembre	2023-12-09T00:00:00	2024-11-08T20:00:00	2	Temperatura media	19.2
147154	7	Sololá	713	San Lucas Tolimán	10	San Lucas Tolimán	9	Septiembre	2023-12-09T00:00:00	2024-11-08T20:00:00	4	Temperatura máxima	20.4
147155	7	Sololá	713	San Lucas Tolimán	10	San Lucas Tolimán	9	Septiembre	2023-12-09T00:00:00	2024-11-08T20:00:00	3	Temperatura mínima	19.2
147156	7	Sololá	713	San Lucas Tolimán	10	San Lucas Tolimán	9	Septiembre	2023-12-09T00:00:00	2024-11-08T20:00:00	5	Humedad	93
147157	7	Sololá	713	San Lucas Tolimán	10	San Lucas Tolimán	9	Septiembre	2023-12-09T00:00:00	2024-11-08T20:00:00	6	Velocidad del viento	6.4
147158	7	Sololá	713	San Lucas Tolimán	10	San Lucas Tolimán	9	Septiembre	2023-12-09T00:00:00	2024-11-08T20:00:00	7	Dirección del viento	6.44
147159	7	Sololá	713	San Lucas Tolimán	10	San Lucas Tolimán	9	Septiembre	2023-12-09T00:00:00	2024-11-08T20:00:00	1	Precipitación	0
147160	7	Sololá	713	San Lucas Tolimán	10	San Lucas Tolimán	9	Septiembre	2023-12-09T00:00:00	2024-11-08T20:00:00	8	Radiación solar	0
147161	7	Sololá	713	San Lucas Tolimán	10	San Lucas Tolimán	9	Septiembre	2023-12-09T00:00:00	2024-11-08T21:00:00	2	Temperatura media	18.9
147162	7	Sololá	713	San Lucas Tolimán	10	San Lucas Tolimán	9	Septiembre	2023-12-09T00:00:00	2024-11-08T21:00:00	4	Temperatura máxima	19.2
147163	7	Sololá	713	San Lucas Tolimán	10	San Lucas Tolimán	9	Septiembre	2023-12-09T00:00:00	2024-11-08T21:00:00	3	Temperatura mínima	18.8
147164	7	Sololá	713	San Lucas Tolimán	10	San Lucas Tolimán	9	Septiembre	2023-12-09T00:00:00	2024-11-08T21:00:00	5	Humedad	94
147165	7	Sololá	713	San Lucas Tolimán	10	San Lucas Tolimán	9	Septiembre	2023-12-09T00:00:00	2024-11-08T21:00:00	6	Velocidad del viento	3.2
147166	7	Sololá	713	San Lucas Tolimán	10	San Lucas Tolimán	9	Septiembre	2023-12-09T00:00:00	2024-11-08T21:00:00	7	Dirección del viento	3.22
147167	7	Sololá	713	San Lucas Tolimán	10	San Lucas Tolimán	9	Septiembre	2023-12-09T00:00:00	2024-11-08T21:00:00	1	Precipitación	0
147168	7	Sololá	713	San Lucas Tolimán	10	San Lucas Tolimán	9	Septiembre	2023-12-09T00:00:00	2024-11-08T21:00:00	8	Radiación solar	0
147169	7	Sololá	713	San Lucas Tolimán	10	San Lucas Tolimán	9	Septiembre	2023-12-09T00:00:00	2024-11-08T22:00:00	2	Temperatura media	18.8
147170	7	Sololá	713	San Lucas Tolimán	10	San Lucas Tolimán	9	Septiembre	2023-12-09T00:00:00	2024-11-08T22:00:00	4	Temperatura máxima	19.1
147171	7	Sololá	713	San Lucas Tolimán	10	San Lucas Tolimán	9	Septiembre	2023-12-09T00:00:00	2024-11-08T22:00:00	3	Temperatura mínima	18.8
147172	7	Sololá	713	San Lucas Tolimán	10	San Lucas Tolimán	9	Septiembre	2023-12-09T00:00:00	2024-11-08T22:00:00	5	Humedad	94
147173	7	Sololá	713	San Lucas Tolimán	10	San Lucas Tolimán	9	Septiembre	2023-12-09T00:00:00	2024-11-08T22:00:00	6	Velocidad del viento	1.6
147174	7	Sololá	713	San Lucas Tolimán	10	San Lucas Tolimán	9	Septiembre	2023-12-09T00:00:00	2024-11-08T22:00:00	7	Dirección del viento	1.61
147175	7	Sololá	713	San Lucas Tolimán	10	San Lucas Tolimán	9	Septiembre	2023-12-09T00:00:00	2024-11-08T22:00:00	1	Precipitación	0
147176	7	Sololá	713	San Lucas Tolimán	10	San Lucas Tolimán	9	Septiembre	2023-12-09T00:00:00	2024-11-08T22:00:00	8	Radiación solar	0
147177	7	Sololá	713	San Lucas Tolimán	10	San Lucas Tolimán	9	Septiembre	2023-12-09T00:00:00	2024-11-08T23:00:00	2	Temperatura media	18.4
147178	7	Sololá	713	San Lucas Tolimán	10	San Lucas Tolimán	9	Septiembre	2023-12-09T00:00:00	2024-11-08T23:00:00	4	Temperatura máxima	18.8
147179	7	Sololá	713	San Lucas Tolimán	10	San Lucas Tolimán	9	Septiembre	2023-12-09T00:00:00	2024-11-08T23:00:00	3	Temperatura mínima	18.4
147180	7	Sololá	713	San Lucas Tolimán	10	San Lucas Tolimán	9	Septiembre	2023-12-09T00:00:00	2024-11-08T23:00:00	5	Humedad	93
147181	7	Sololá	713	San Lucas Tolimán	10	San Lucas Tolimán	9	Septiembre	2023-12-09T00:00:00	2024-11-08T23:00:00	6	Velocidad del viento	1.6
147182	7	Sololá	713	San Lucas Tolimán	10	San Lucas Tolimán	9	Septiembre	2023-12-09T00:00:00	2024-11-08T23:00:00	7	Dirección del viento	1.61
147183	7	Sololá	713	San Lucas Tolimán	10	San Lucas Tolimán	9	Septiembre	2023-12-09T00:00:00	2024-11-08T23:00:00	1	Precipitación	0
147184	7	Sololá	713	San Lucas Tolimán	10	San Lucas Tolimán	9	Septiembre	2023-12-09T00:00:00	2024-11-08T23:00:00	8	Radiación solar	0
147185	7	Sololá	713	San Lucas Tolimán	10	San Lucas Tolimán	9	Septiembre	2023-09-13T00:00:00	2024-11-08T00:00:00	2	Temperatura media	17.9
147186	7	Sololá	713	San Lucas Tolimán	10	San Lucas Tolimán	9	Septiembre	2023-09-13T00:00:00	2024-11-08T00:00:00	4	Temperatura máxima	18.4
147187	7	Sololá	713	San Lucas Tolimán	10	San Lucas Tolimán	9	Septiembre	2023-09-13T00:00:00	2024-11-08T00:00:00	3	Temperatura mínima	17.8
147188	7	Sololá	713	San Lucas Tolimán	10	San Lucas Tolimán	9	Septiembre	2023-09-13T00:00:00	2024-11-08T00:00:00	5	Humedad	67
147189	7	Sololá	713	San Lucas Tolimán	10	San Lucas Tolimán	9	Septiembre	2023-09-13T00:00:00	2024-11-08T00:00:00	6	Velocidad del viento	6.4
147190	7	Sololá	713	San Lucas Tolimán	10	San Lucas Tolimán	9	Septiembre	2023-09-13T00:00:00	2024-11-08T00:00:00	7	Dirección del viento	6.44
147191	7	Sololá	713	San Lucas Tolimán	10	San Lucas Tolimán	9	Septiembre	2023-09-13T00:00:00	2024-11-08T00:00:00	1	Precipitación	0
147192	7	Sololá	713	San Lucas Tolimán	10	San Lucas Tolimán	9	Septiembre	2023-09-13T00:00:00	2024-11-08T00:00:00	8	Radiación solar	0
147193	7	Sololá	713	San Lucas Tolimán	10	San Lucas Tolimán	9	Septiembre	2023-09-13T00:00:00	2024-11-08T01:00:00	2	Temperatura media	18.1
147194	7	Sololá	713	San Lucas Tolimán	10	San Lucas Tolimán	9	Septiembre	2023-09-13T00:00:00	2024-11-08T01:00:00	4	Temperatura máxima	18.2
147195	7	Sololá	713	San Lucas Tolimán	10	San Lucas Tolimán	9	Septiembre	2023-09-13T00:00:00	2024-11-08T01:00:00	3	Temperatura mínima	17.9
147196	7	Sololá	713	San Lucas Tolimán	10	San Lucas Tolimán	9	Septiembre	2023-09-13T00:00:00	2024-11-08T01:00:00	5	Humedad	66
147197	7	Sololá	713	San Lucas Tolimán	10	San Lucas Tolimán	9	Septiembre	2023-09-13T00:00:00	2024-11-08T01:00:00	6	Velocidad del viento	4.8
147198	7	Sololá	713	San Lucas Tolimán	10	San Lucas Tolimán	9	Septiembre	2023-09-13T00:00:00	2024-11-08T01:00:00	7	Dirección del viento	4.83
147199	7	Sololá	713	San Lucas Tolimán	10	San Lucas Tolimán	9	Septiembre	2023-09-13T00:00:00	2024-11-08T01:00:00	1	Precipitación	0
147200	7	Sololá	713	San Lucas Tolimán	10	San Lucas Tolimán	9	Septiembre	2023-09-13T00:00:00	2024-11-08T01:00:00	8	Radiación solar	0
147201	7	Sololá	713	San Lucas Tolimán	10	San Lucas Tolimán	9	Septiembre	2023-09-13T00:00:00	2024-11-08T02:00:00	2	Temperatura media	18.2
147202	7	Sololá	713	San Lucas Tolimán	10	San Lucas Tolimán	9	Septiembre	2023-09-13T00:00:00	2024-11-08T02:00:00	4	Temperatura máxima	18.2
147203	7	Sololá	713	San Lucas Tolimán	10	San Lucas Tolimán	9	Septiembre	2023-09-13T00:00:00	2024-11-08T02:00:00	3	Temperatura mínima	18.1
147204	7	Sololá	713	San Lucas Tolimán	10	San Lucas Tolimán	9	Septiembre	2023-09-13T00:00:00	2024-11-08T02:00:00	5	Humedad	63
147205	7	Sololá	713	San Lucas Tolimán	10	San Lucas Tolimán	9	Septiembre	2023-09-13T00:00:00	2024-11-08T02:00:00	6	Velocidad del viento	1.6
147206	7	Sololá	713	San Lucas Tolimán	10	San Lucas Tolimán	9	Septiembre	2023-09-13T00:00:00	2024-11-08T02:00:00	7	Dirección del viento	1.61
147207	7	Sololá	713	San Lucas Tolimán	10	San Lucas Tolimán	9	Septiembre	2023-09-13T00:00:00	2024-11-08T02:00:00	1	Precipitación	0
147208	7	Sololá	713	San Lucas Tolimán	10	San Lucas Tolimán	9	Septiembre	2023-09-13T00:00:00	2024-11-08T02:00:00	8	Radiación solar	0
147209	7	Sololá	713	San Lucas Tolimán	10	San Lucas Tolimán	9	Septiembre	2023-09-13T00:00:00	2024-11-08T03:00:00	2	Temperatura media	17.9
147210	7	Sololá	713	San Lucas Tolimán	10	San Lucas Tolimán	9	Septiembre	2023-09-13T00:00:00	2024-11-08T03:00:00	4	Temperatura máxima	18.2
147211	7	Sololá	713	San Lucas Tolimán	10	San Lucas Tolimán	9	Septiembre	2023-09-13T00:00:00	2024-11-08T03:00:00	3	Temperatura mínima	17.7
147212	7	Sololá	713	San Lucas Tolimán	10	San Lucas Tolimán	9	Septiembre	2023-09-13T00:00:00	2024-11-08T03:00:00	5	Humedad	63
147213	7	Sololá	713	San Lucas Tolimán	10	San Lucas Tolimán	9	Septiembre	2023-09-13T00:00:00	2024-11-08T03:00:00	6	Velocidad del viento	1.6
147214	7	Sololá	713	San Lucas Tolimán	10	San Lucas Tolimán	9	Septiembre	2023-09-13T00:00:00	2024-11-08T03:00:00	7	Dirección del viento	1.61
147215	7	Sololá	713	San Lucas Tolimán	10	San Lucas Tolimán	9	Septiembre	2023-09-13T00:00:00	2024-11-08T03:00:00	1	Precipitación	0
147216	7	Sololá	713	San Lucas Tolimán	10	San Lucas Tolimán	9	Septiembre	2023-09-13T00:00:00	2024-11-08T03:00:00	8	Radiación solar	0
147217	7	Sololá	713	San Lucas Tolimán	10	San Lucas Tolimán	9	Septiembre	2023-09-13T00:00:00	2024-11-08T04:00:00	2	Temperatura media	18
147218	7	Sololá	713	San Lucas Tolimán	10	San Lucas Tolimán	9	Septiembre	2023-09-13T00:00:00	2024-11-08T04:00:00	4	Temperatura máxima	18.1
147219	7	Sololá	713	San Lucas Tolimán	10	San Lucas Tolimán	9	Septiembre	2023-09-13T00:00:00	2024-11-08T04:00:00	3	Temperatura mínima	17.8
147220	7	Sololá	713	San Lucas Tolimán	10	San Lucas Tolimán	9	Septiembre	2023-09-13T00:00:00	2024-11-08T04:00:00	5	Humedad	64
147221	7	Sololá	713	San Lucas Tolimán	10	San Lucas Tolimán	9	Septiembre	2023-09-13T00:00:00	2024-11-08T04:00:00	6	Velocidad del viento	4.8
147222	7	Sololá	713	San Lucas Tolimán	10	San Lucas Tolimán	9	Septiembre	2023-09-13T00:00:00	2024-11-08T04:00:00	7	Dirección del viento	4.83
147223	7	Sololá	713	San Lucas Tolimán	10	San Lucas Tolimán	9	Septiembre	2023-09-13T00:00:00	2024-11-08T04:00:00	1	Precipitación	0
147224	7	Sololá	713	San Lucas Tolimán	10	San Lucas Tolimán	9	Septiembre	2023-09-13T00:00:00	2024-11-08T04:00:00	8	Radiación solar	0
147225	7	Sololá	713	San Lucas Tolimán	10	San Lucas Tolimán	9	Septiembre	2023-09-13T00:00:00	2024-11-08T05:00:00	2	Temperatura media	17.5
147226	7	Sololá	713	San Lucas Tolimán	10	San Lucas Tolimán	9	Septiembre	2023-09-13T00:00:00	2024-11-08T05:00:00	4	Temperatura máxima	18
147227	7	Sololá	713	San Lucas Tolimán	10	San Lucas Tolimán	9	Septiembre	2023-09-13T00:00:00	2024-11-08T05:00:00	3	Temperatura mínima	17.4
147228	7	Sololá	713	San Lucas Tolimán	10	San Lucas Tolimán	9	Septiembre	2023-09-13T00:00:00	2024-11-08T05:00:00	5	Humedad	67
147229	7	Sololá	713	San Lucas Tolimán	10	San Lucas Tolimán	9	Septiembre	2023-09-13T00:00:00	2024-11-08T05:00:00	6	Velocidad del viento	3.2
147230	7	Sololá	713	San Lucas Tolimán	10	San Lucas Tolimán	9	Septiembre	2023-09-13T00:00:00	2024-11-08T05:00:00	7	Dirección del viento	3.22
147231	7	Sololá	713	San Lucas Tolimán	10	San Lucas Tolimán	9	Septiembre	2023-09-13T00:00:00	2024-11-08T05:00:00	1	Precipitación	0
147232	7	Sololá	713	San Lucas Tolimán	10	San Lucas Tolimán	9	Septiembre	2023-09-13T00:00:00	2024-11-08T05:00:00	8	Radiación solar	0
147233	7	Sololá	713	San Lucas Tolimán	10	San Lucas Tolimán	9	Septiembre	2023-09-13T00:00:00	2024-11-08T06:00:00	2	Temperatura media	18.3
147234	7	Sololá	713	San Lucas Tolimán	10	San Lucas Tolimán	9	Septiembre	2023-09-13T00:00:00	2024-11-08T06:00:00	4	Temperatura máxima	18.4
147235	7	Sololá	713	San Lucas Tolimán	10	San Lucas Tolimán	9	Septiembre	2023-09-13T00:00:00	2024-11-08T06:00:00	3	Temperatura mínima	17.3
147236	7	Sololá	713	San Lucas Tolimán	10	San Lucas Tolimán	9	Septiembre	2023-09-13T00:00:00	2024-11-08T06:00:00	5	Humedad	63
147237	7	Sololá	713	San Lucas Tolimán	10	San Lucas Tolimán	9	Septiembre	2023-09-13T00:00:00	2024-11-08T06:00:00	6	Velocidad del viento	4.8
147238	7	Sololá	713	San Lucas Tolimán	10	San Lucas Tolimán	9	Septiembre	2023-09-13T00:00:00	2024-11-08T06:00:00	7	Dirección del viento	4.83
147239	7	Sololá	713	San Lucas Tolimán	10	San Lucas Tolimán	9	Septiembre	2023-09-13T00:00:00	2024-11-08T06:00:00	1	Precipitación	0
147240	7	Sololá	713	San Lucas Tolimán	10	San Lucas Tolimán	9	Septiembre	2023-09-13T00:00:00	2024-11-08T06:00:00	8	Radiación solar	0
147241	7	Sololá	713	San Lucas Tolimán	10	San Lucas Tolimán	9	Septiembre	2023-09-13T00:00:00	2024-11-08T07:00:00	2	Temperatura media	19.7
147242	7	Sololá	713	San Lucas Tolimán	10	San Lucas Tolimán	9	Septiembre	2023-09-13T00:00:00	2024-11-08T07:00:00	4	Temperatura máxima	19.7
147243	7	Sololá	713	San Lucas Tolimán	10	San Lucas Tolimán	9	Septiembre	2023-09-13T00:00:00	2024-11-08T07:00:00	3	Temperatura mínima	18.3
147244	7	Sololá	713	San Lucas Tolimán	10	San Lucas Tolimán	9	Septiembre	2023-09-13T00:00:00	2024-11-08T07:00:00	5	Humedad	60
147245	7	Sololá	713	San Lucas Tolimán	10	San Lucas Tolimán	9	Septiembre	2023-09-13T00:00:00	2024-11-08T07:00:00	6	Velocidad del viento	6.4
147246	7	Sololá	713	San Lucas Tolimán	10	San Lucas Tolimán	9	Septiembre	2023-09-13T00:00:00	2024-11-08T07:00:00	7	Dirección del viento	6.44
147247	7	Sololá	713	San Lucas Tolimán	10	San Lucas Tolimán	9	Septiembre	2023-09-13T00:00:00	2024-11-08T07:00:00	1	Precipitación	0
147248	7	Sololá	713	San Lucas Tolimán	10	San Lucas Tolimán	9	Septiembre	2023-09-13T00:00:00	2024-11-08T07:00:00	8	Radiación solar	59
147249	7	Sololá	713	San Lucas Tolimán	10	San Lucas Tolimán	9	Septiembre	2023-09-13T00:00:00	2024-11-08T08:00:00	2	Temperatura media	22
147250	7	Sololá	713	San Lucas Tolimán	10	San Lucas Tolimán	9	Septiembre	2023-09-13T00:00:00	2024-11-08T08:00:00	4	Temperatura máxima	22
147251	7	Sololá	713	San Lucas Tolimán	10	San Lucas Tolimán	9	Septiembre	2023-09-13T00:00:00	2024-11-08T08:00:00	3	Temperatura mínima	19.7
147252	7	Sololá	713	San Lucas Tolimán	10	San Lucas Tolimán	9	Septiembre	2023-09-13T00:00:00	2024-11-08T08:00:00	5	Humedad	57
147253	7	Sololá	713	San Lucas Tolimán	10	San Lucas Tolimán	9	Septiembre	2023-09-13T00:00:00	2024-11-08T08:00:00	6	Velocidad del viento	4.8
147254	7	Sololá	713	San Lucas Tolimán	10	San Lucas Tolimán	9	Septiembre	2023-09-13T00:00:00	2024-11-08T08:00:00	7	Dirección del viento	4.83
147255	7	Sololá	713	San Lucas Tolimán	10	San Lucas Tolimán	9	Septiembre	2023-09-13T00:00:00	2024-11-08T08:00:00	1	Precipitación	0
147256	7	Sololá	713	San Lucas Tolimán	10	San Lucas Tolimán	9	Septiembre	2023-09-13T00:00:00	2024-11-08T08:00:00	8	Radiación solar	306
147257	7	Sololá	713	San Lucas Tolimán	10	San Lucas Tolimán	9	Septiembre	2023-09-13T00:00:00	2024-11-08T09:00:00	2	Temperatura media	23
147258	7	Sololá	713	San Lucas Tolimán	10	San Lucas Tolimán	9	Septiembre	2023-09-13T00:00:00	2024-11-08T09:00:00	4	Temperatura máxima	23.4
147259	7	Sololá	713	San Lucas Tolimán	10	San Lucas Tolimán	9	Septiembre	2023-09-13T00:00:00	2024-11-08T09:00:00	3	Temperatura mínima	22.3
147260	7	Sololá	713	San Lucas Tolimán	10	San Lucas Tolimán	9	Septiembre	2023-09-13T00:00:00	2024-11-08T09:00:00	5	Humedad	78
147261	7	Sololá	713	San Lucas Tolimán	10	San Lucas Tolimán	9	Septiembre	2023-09-13T00:00:00	2024-11-08T09:00:00	6	Velocidad del viento	6.4
147262	7	Sololá	713	San Lucas Tolimán	10	San Lucas Tolimán	9	Septiembre	2023-09-13T00:00:00	2024-11-08T09:00:00	7	Dirección del viento	6.44
147263	7	Sololá	713	San Lucas Tolimán	10	San Lucas Tolimán	9	Septiembre	2023-09-13T00:00:00	2024-11-08T09:00:00	1	Precipitación	0
147264	7	Sololá	713	San Lucas Tolimán	10	San Lucas Tolimán	9	Septiembre	2023-09-13T00:00:00	2024-11-08T09:00:00	8	Radiación solar	490
147265	7	Sololá	713	San Lucas Tolimán	10	San Lucas Tolimán	9	Septiembre	2023-09-13T00:00:00	2024-11-08T10:00:00	2	Temperatura media	24.3
147266	7	Sololá	713	San Lucas Tolimán	10	San Lucas Tolimán	9	Septiembre	2023-09-13T00:00:00	2024-11-08T10:00:00	4	Temperatura máxima	24.3
147267	7	Sololá	713	San Lucas Tolimán	10	San Lucas Tolimán	9	Septiembre	2023-09-13T00:00:00	2024-11-08T10:00:00	3	Temperatura mínima	23.1
147268	7	Sololá	713	San Lucas Tolimán	10	San Lucas Tolimán	9	Septiembre	2023-09-13T00:00:00	2024-11-08T10:00:00	5	Humedad	74
147269	7	Sololá	713	San Lucas Tolimán	10	San Lucas Tolimán	9	Septiembre	2023-09-13T00:00:00	2024-11-08T10:00:00	6	Velocidad del viento	6.4
147270	7	Sololá	713	San Lucas Tolimán	10	San Lucas Tolimán	9	Septiembre	2023-09-13T00:00:00	2024-11-08T10:00:00	7	Dirección del viento	6.44
147271	7	Sololá	713	San Lucas Tolimán	10	San Lucas Tolimán	9	Septiembre	2023-09-13T00:00:00	2024-11-08T10:00:00	1	Precipitación	0
147272	7	Sololá	713	San Lucas Tolimán	10	San Lucas Tolimán	9	Septiembre	2023-09-13T00:00:00	2024-11-08T10:00:00	8	Radiación solar	722
147273	7	Sololá	713	San Lucas Tolimán	10	San Lucas Tolimán	9	Septiembre	2023-09-13T00:00:00	2024-11-08T11:00:00	2	Temperatura media	25.7
147274	7	Sololá	713	San Lucas Tolimán	10	San Lucas Tolimán	9	Septiembre	2023-09-13T00:00:00	2024-11-08T11:00:00	4	Temperatura máxima	25.7
147275	7	Sololá	713	San Lucas Tolimán	10	San Lucas Tolimán	9	Septiembre	2023-09-13T00:00:00	2024-11-08T11:00:00	3	Temperatura mínima	24.3
147276	7	Sololá	713	San Lucas Tolimán	10	San Lucas Tolimán	9	Septiembre	2023-09-13T00:00:00	2024-11-08T11:00:00	5	Humedad	69
147277	7	Sololá	713	San Lucas Tolimán	10	San Lucas Tolimán	9	Septiembre	2023-09-13T00:00:00	2024-11-08T11:00:00	6	Velocidad del viento	6.4
147278	7	Sololá	713	San Lucas Tolimán	10	San Lucas Tolimán	9	Septiembre	2023-09-13T00:00:00	2024-11-08T11:00:00	7	Dirección del viento	6.44
147279	7	Sololá	713	San Lucas Tolimán	10	San Lucas Tolimán	9	Septiembre	2023-09-13T00:00:00	2024-11-08T11:00:00	1	Precipitación	0
147280	7	Sololá	713	San Lucas Tolimán	10	San Lucas Tolimán	9	Septiembre	2023-09-13T00:00:00	2024-11-08T11:00:00	8	Radiación solar	817
147281	7	Sololá	713	San Lucas Tolimán	10	San Lucas Tolimán	9	Septiembre	2023-09-13T00:00:00	2024-11-08T12:00:00	2	Temperatura media	25.3
147282	7	Sololá	713	San Lucas Tolimán	10	San Lucas Tolimán	9	Septiembre	2023-09-13T00:00:00	2024-11-08T12:00:00	4	Temperatura máxima	26.2
147283	7	Sololá	713	San Lucas Tolimán	10	San Lucas Tolimán	9	Septiembre	2023-09-13T00:00:00	2024-11-08T12:00:00	3	Temperatura mínima	25.2
147284	7	Sololá	713	San Lucas Tolimán	10	San Lucas Tolimán	9	Septiembre	2023-09-13T00:00:00	2024-11-08T12:00:00	5	Humedad	73
147285	7	Sololá	713	San Lucas Tolimán	10	San Lucas Tolimán	9	Septiembre	2023-09-13T00:00:00	2024-11-08T12:00:00	6	Velocidad del viento	8
147286	7	Sololá	713	San Lucas Tolimán	10	San Lucas Tolimán	9	Septiembre	2023-09-13T00:00:00	2024-11-08T12:00:00	7	Dirección del viento	8.05
147287	7	Sololá	713	San Lucas Tolimán	10	San Lucas Tolimán	9	Septiembre	2023-09-13T00:00:00	2024-11-08T12:00:00	1	Precipitación	0
147288	7	Sololá	713	San Lucas Tolimán	10	San Lucas Tolimán	9	Septiembre	2023-09-13T00:00:00	2024-11-08T12:00:00	8	Radiación solar	709
147289	7	Sololá	713	San Lucas Tolimán	10	San Lucas Tolimán	9	Septiembre	2023-09-13T00:00:00	2024-11-08T13:00:00	2	Temperatura media	25.5
147290	7	Sololá	713	San Lucas Tolimán	10	San Lucas Tolimán	9	Septiembre	2023-09-13T00:00:00	2024-11-08T13:00:00	4	Temperatura máxima	26.1
147291	7	Sololá	713	San Lucas Tolimán	10	San Lucas Tolimán	9	Septiembre	2023-09-13T00:00:00	2024-11-08T13:00:00	3	Temperatura mínima	25.4
147292	7	Sololá	713	San Lucas Tolimán	10	San Lucas Tolimán	9	Septiembre	2023-09-13T00:00:00	2024-11-08T13:00:00	5	Humedad	75
147293	7	Sololá	713	San Lucas Tolimán	10	San Lucas Tolimán	9	Septiembre	2023-09-13T00:00:00	2024-11-08T13:00:00	6	Velocidad del viento	6.4
147294	7	Sololá	713	San Lucas Tolimán	10	San Lucas Tolimán	9	Septiembre	2023-09-13T00:00:00	2024-11-08T13:00:00	7	Dirección del viento	6.44
147295	7	Sololá	713	San Lucas Tolimán	10	San Lucas Tolimán	9	Septiembre	2023-09-13T00:00:00	2024-11-08T13:00:00	1	Precipitación	0
147296	7	Sololá	713	San Lucas Tolimán	10	San Lucas Tolimán	9	Septiembre	2023-09-13T00:00:00	2024-11-08T13:00:00	8	Radiación solar	310
147297	7	Sololá	713	San Lucas Tolimán	10	San Lucas Tolimán	9	Septiembre	2023-09-13T00:00:00	2024-11-08T14:00:00	2	Temperatura media	22.8
147298	7	Sololá	713	San Lucas Tolimán	10	San Lucas Tolimán	9	Septiembre	2023-09-13T00:00:00	2024-11-08T14:00:00	4	Temperatura máxima	25.9
147299	7	Sololá	713	San Lucas Tolimán	10	San Lucas Tolimán	9	Septiembre	2023-09-13T00:00:00	2024-11-08T14:00:00	3	Temperatura mínima	22.8
147300	7	Sololá	713	San Lucas Tolimán	10	San Lucas Tolimán	9	Septiembre	2023-09-13T00:00:00	2024-11-08T14:00:00	5	Humedad	84
147301	7	Sololá	713	San Lucas Tolimán	10	San Lucas Tolimán	9	Septiembre	2023-09-13T00:00:00	2024-11-08T14:00:00	6	Velocidad del viento	6.4
147302	7	Sololá	713	San Lucas Tolimán	10	San Lucas Tolimán	9	Septiembre	2023-09-13T00:00:00	2024-11-08T14:00:00	7	Dirección del viento	6.44
147303	7	Sololá	713	San Lucas Tolimán	10	San Lucas Tolimán	9	Septiembre	2023-09-13T00:00:00	2024-11-08T14:00:00	1	Precipitación	0
147304	7	Sololá	713	San Lucas Tolimán	10	San Lucas Tolimán	9	Septiembre	2023-09-13T00:00:00	2024-11-08T14:00:00	8	Radiación solar	388
147305	7	Sololá	713	San Lucas Tolimán	10	San Lucas Tolimán	9	Septiembre	2023-09-13T00:00:00	2024-11-08T15:00:00	2	Temperatura media	22.2
147306	7	Sololá	713	San Lucas Tolimán	10	San Lucas Tolimán	9	Septiembre	2023-09-13T00:00:00	2024-11-08T15:00:00	4	Temperatura máxima	24.9
147307	7	Sololá	713	San Lucas Tolimán	10	San Lucas Tolimán	9	Septiembre	2023-09-13T00:00:00	2024-11-08T15:00:00	3	Temperatura mínima	22.2
147308	7	Sololá	713	San Lucas Tolimán	10	San Lucas Tolimán	9	Septiembre	2023-09-13T00:00:00	2024-11-08T15:00:00	5	Humedad	85
147309	7	Sololá	713	San Lucas Tolimán	10	San Lucas Tolimán	9	Septiembre	2023-09-13T00:00:00	2024-11-08T15:00:00	6	Velocidad del viento	4.8
147310	7	Sololá	713	San Lucas Tolimán	10	San Lucas Tolimán	9	Septiembre	2023-09-13T00:00:00	2024-11-08T15:00:00	7	Dirección del viento	4.83
147311	7	Sololá	713	San Lucas Tolimán	10	San Lucas Tolimán	9	Septiembre	2023-09-13T00:00:00	2024-11-08T15:00:00	1	Precipitación	0
147312	7	Sololá	713	San Lucas Tolimán	10	San Lucas Tolimán	9	Septiembre	2023-09-13T00:00:00	2024-11-08T15:00:00	8	Radiación solar	137
147313	7	Sololá	713	San Lucas Tolimán	10	San Lucas Tolimán	9	Septiembre	2023-09-13T00:00:00	2024-11-08T16:00:00	2	Temperatura media	20.7
147314	7	Sololá	713	San Lucas Tolimán	10	San Lucas Tolimán	9	Septiembre	2023-09-13T00:00:00	2024-11-08T16:00:00	4	Temperatura máxima	22.2
147315	7	Sololá	713	San Lucas Tolimán	10	San Lucas Tolimán	9	Septiembre	2023-09-13T00:00:00	2024-11-08T16:00:00	3	Temperatura mínima	20.7
147316	7	Sololá	713	San Lucas Tolimán	10	San Lucas Tolimán	9	Septiembre	2023-09-13T00:00:00	2024-11-08T16:00:00	5	Humedad	91
147317	7	Sololá	713	San Lucas Tolimán	10	San Lucas Tolimán	9	Septiembre	2023-09-13T00:00:00	2024-11-08T16:00:00	6	Velocidad del viento	3.2
147318	7	Sololá	713	San Lucas Tolimán	10	San Lucas Tolimán	9	Septiembre	2023-09-13T00:00:00	2024-11-08T16:00:00	7	Dirección del viento	3.22
147319	7	Sololá	713	San Lucas Tolimán	10	San Lucas Tolimán	9	Septiembre	2023-09-13T00:00:00	2024-11-08T16:00:00	1	Precipitación	1.6
147320	7	Sololá	713	San Lucas Tolimán	10	San Lucas Tolimán	9	Septiembre	2023-09-13T00:00:00	2024-11-08T16:00:00	8	Radiación solar	44
147321	7	Sololá	713	San Lucas Tolimán	10	San Lucas Tolimán	9	Septiembre	2023-09-13T00:00:00	2024-11-08T17:00:00	2	Temperatura media	19.9
147322	7	Sololá	713	San Lucas Tolimán	10	San Lucas Tolimán	9	Septiembre	2023-09-13T00:00:00	2024-11-08T17:00:00	4	Temperatura máxima	20.7
147323	7	Sololá	713	San Lucas Tolimán	10	San Lucas Tolimán	9	Septiembre	2023-09-13T00:00:00	2024-11-08T17:00:00	3	Temperatura mínima	19.9
147324	7	Sololá	713	San Lucas Tolimán	10	San Lucas Tolimán	9	Septiembre	2023-09-13T00:00:00	2024-11-08T17:00:00	5	Humedad	93
147325	7	Sololá	713	San Lucas Tolimán	10	San Lucas Tolimán	9	Septiembre	2023-09-13T00:00:00	2024-11-08T17:00:00	6	Velocidad del viento	3.2
147326	7	Sololá	713	San Lucas Tolimán	10	San Lucas Tolimán	9	Septiembre	2023-09-13T00:00:00	2024-11-08T17:00:00	7	Dirección del viento	3.22
147327	7	Sololá	713	San Lucas Tolimán	10	San Lucas Tolimán	9	Septiembre	2023-09-13T00:00:00	2024-11-08T17:00:00	1	Precipitación	2
147328	7	Sololá	713	San Lucas Tolimán	10	San Lucas Tolimán	9	Septiembre	2023-09-13T00:00:00	2024-11-08T17:00:00	8	Radiación solar	29
147329	7	Sololá	713	San Lucas Tolimán	10	San Lucas Tolimán	9	Septiembre	2023-09-13T00:00:00	2024-11-08T18:00:00	2	Temperatura media	19.9
147330	7	Sololá	713	San Lucas Tolimán	10	San Lucas Tolimán	9	Septiembre	2023-09-13T00:00:00	2024-11-08T18:00:00	4	Temperatura máxima	20.1
147331	7	Sololá	713	San Lucas Tolimán	10	San Lucas Tolimán	9	Septiembre	2023-09-13T00:00:00	2024-11-08T18:00:00	3	Temperatura mínima	19.9
147332	7	Sololá	713	San Lucas Tolimán	10	San Lucas Tolimán	9	Septiembre	2023-09-13T00:00:00	2024-11-08T18:00:00	5	Humedad	93
147333	7	Sololá	713	San Lucas Tolimán	10	San Lucas Tolimán	9	Septiembre	2023-09-13T00:00:00	2024-11-08T18:00:00	6	Velocidad del viento	1.6
147334	7	Sololá	713	San Lucas Tolimán	10	San Lucas Tolimán	9	Septiembre	2023-09-13T00:00:00	2024-11-08T18:00:00	7	Dirección del viento	1.61
147335	7	Sololá	713	San Lucas Tolimán	10	San Lucas Tolimán	9	Septiembre	2023-09-13T00:00:00	2024-11-08T18:00:00	1	Precipitación	0.2
147336	7	Sololá	713	San Lucas Tolimán	10	San Lucas Tolimán	9	Septiembre	2023-09-13T00:00:00	2024-11-08T18:00:00	8	Radiación solar	26
147337	7	Sololá	713	San Lucas Tolimán	10	San Lucas Tolimán	9	Septiembre	2023-09-13T00:00:00	2024-11-08T19:00:00	2	Temperatura media	19.5
147338	7	Sololá	713	San Lucas Tolimán	10	San Lucas Tolimán	9	Septiembre	2023-09-13T00:00:00	2024-11-08T19:00:00	4	Temperatura máxima	19.9
147339	7	Sololá	713	San Lucas Tolimán	10	San Lucas Tolimán	9	Septiembre	2023-09-13T00:00:00	2024-11-08T19:00:00	3	Temperatura mínima	19.5
147340	7	Sololá	713	San Lucas Tolimán	10	San Lucas Tolimán	9	Septiembre	2023-09-13T00:00:00	2024-11-08T19:00:00	5	Humedad	95
147341	7	Sololá	713	San Lucas Tolimán	10	San Lucas Tolimán	9	Septiembre	2023-09-13T00:00:00	2024-11-08T19:00:00	6	Velocidad del viento	3.2
147342	7	Sololá	713	San Lucas Tolimán	10	San Lucas Tolimán	9	Septiembre	2023-09-13T00:00:00	2024-11-08T19:00:00	7	Dirección del viento	3.22
147343	7	Sololá	713	San Lucas Tolimán	10	San Lucas Tolimán	9	Septiembre	2023-09-13T00:00:00	2024-11-08T19:00:00	1	Precipitación	0.2
147344	7	Sololá	713	San Lucas Tolimán	10	San Lucas Tolimán	9	Septiembre	2023-09-13T00:00:00	2024-11-08T19:00:00	8	Radiación solar	0
147345	7	Sololá	713	San Lucas Tolimán	10	San Lucas Tolimán	9	Septiembre	2023-09-13T00:00:00	2024-11-08T20:00:00	2	Temperatura media	19.4
147346	7	Sololá	713	San Lucas Tolimán	10	San Lucas Tolimán	9	Septiembre	2023-09-13T00:00:00	2024-11-08T20:00:00	4	Temperatura máxima	19.6
147347	7	Sololá	713	San Lucas Tolimán	10	San Lucas Tolimán	9	Septiembre	2023-09-13T00:00:00	2024-11-08T20:00:00	3	Temperatura mínima	19.4
147348	7	Sololá	713	San Lucas Tolimán	10	San Lucas Tolimán	9	Septiembre	2023-09-13T00:00:00	2024-11-08T20:00:00	5	Humedad	95
147349	7	Sololá	713	San Lucas Tolimán	10	San Lucas Tolimán	9	Septiembre	2023-09-13T00:00:00	2024-11-08T20:00:00	6	Velocidad del viento	1.6
147350	7	Sololá	713	San Lucas Tolimán	10	San Lucas Tolimán	9	Septiembre	2023-09-13T00:00:00	2024-11-08T20:00:00	7	Dirección del viento	1.61
147351	7	Sololá	713	San Lucas Tolimán	10	San Lucas Tolimán	9	Septiembre	2023-09-13T00:00:00	2024-11-08T20:00:00	1	Precipitación	1.4
147352	7	Sololá	713	San Lucas Tolimán	10	San Lucas Tolimán	9	Septiembre	2023-09-13T00:00:00	2024-11-08T20:00:00	8	Radiación solar	0
147353	7	Sololá	713	San Lucas Tolimán	10	San Lucas Tolimán	9	Septiembre	2023-09-13T00:00:00	2024-11-08T21:00:00	2	Temperatura media	19.1
147354	7	Sololá	713	San Lucas Tolimán	10	San Lucas Tolimán	9	Septiembre	2023-09-13T00:00:00	2024-11-08T21:00:00	4	Temperatura máxima	19.4
147355	7	Sololá	713	San Lucas Tolimán	10	San Lucas Tolimán	9	Septiembre	2023-09-13T00:00:00	2024-11-08T21:00:00	3	Temperatura mínima	19.1
147356	7	Sololá	713	San Lucas Tolimán	10	San Lucas Tolimán	9	Septiembre	2023-09-13T00:00:00	2024-11-08T21:00:00	5	Humedad	95
147357	7	Sololá	713	San Lucas Tolimán	10	San Lucas Tolimán	9	Septiembre	2023-09-13T00:00:00	2024-11-08T21:00:00	6	Velocidad del viento	0
147358	7	Sololá	713	San Lucas Tolimán	10	San Lucas Tolimán	9	Septiembre	2023-09-13T00:00:00	2024-11-08T21:00:00	7	Dirección del viento	0
147359	7	Sololá	713	San Lucas Tolimán	10	San Lucas Tolimán	9	Septiembre	2023-09-13T00:00:00	2024-11-08T21:00:00	1	Precipitación	0
147360	7	Sololá	713	San Lucas Tolimán	10	San Lucas Tolimán	9	Septiembre	2023-09-13T00:00:00	2024-11-08T21:00:00	8	Radiación solar	0
147361	7	Sololá	713	San Lucas Tolimán	10	San Lucas Tolimán	9	Septiembre	2023-09-13T00:00:00	2024-11-08T22:00:00	2	Temperatura media	18.9
147362	7	Sololá	713	San Lucas Tolimán	10	San Lucas Tolimán	9	Septiembre	2023-09-13T00:00:00	2024-11-08T22:00:00	4	Temperatura máxima	19.1
147363	7	Sololá	713	San Lucas Tolimán	10	San Lucas Tolimán	9	Septiembre	2023-09-13T00:00:00	2024-11-08T22:00:00	3	Temperatura mínima	18.8
147364	7	Sololá	713	San Lucas Tolimán	10	San Lucas Tolimán	9	Septiembre	2023-09-13T00:00:00	2024-11-08T22:00:00	5	Humedad	96
147365	7	Sololá	713	San Lucas Tolimán	10	San Lucas Tolimán	9	Septiembre	2023-09-13T00:00:00	2024-11-08T22:00:00	6	Velocidad del viento	0
147366	7	Sololá	713	San Lucas Tolimán	10	San Lucas Tolimán	9	Septiembre	2023-09-13T00:00:00	2024-11-08T22:00:00	7	Dirección del viento	0
147367	7	Sololá	713	San Lucas Tolimán	10	San Lucas Tolimán	9	Septiembre	2023-09-13T00:00:00	2024-11-08T22:00:00	1	Precipitación	0
147368	7	Sololá	713	San Lucas Tolimán	10	San Lucas Tolimán	9	Septiembre	2023-09-13T00:00:00	2024-11-08T22:00:00	8	Radiación solar	0
147369	7	Sololá	713	San Lucas Tolimán	10	San Lucas Tolimán	9	Septiembre	2023-09-13T00:00:00	2024-11-08T23:00:00	2	Temperatura media	18.8
147370	7	Sololá	713	San Lucas Tolimán	10	San Lucas Tolimán	9	Septiembre	2023-09-13T00:00:00	2024-11-08T23:00:00	4	Temperatura máxima	18.9
147371	7	Sololá	713	San Lucas Tolimán	10	San Lucas Tolimán	9	Septiembre	2023-09-13T00:00:00	2024-11-08T23:00:00	3	Temperatura mínima	18.8
147372	7	Sololá	713	San Lucas Tolimán	10	San Lucas Tolimán	9	Septiembre	2023-09-13T00:00:00	2024-11-08T23:00:00	5	Humedad	96
147373	7	Sololá	713	San Lucas Tolimán	10	San Lucas Tolimán	9	Septiembre	2023-09-13T00:00:00	2024-11-08T23:00:00	6	Velocidad del viento	0
147374	7	Sololá	713	San Lucas Tolimán	10	San Lucas Tolimán	9	Septiembre	2023-09-13T00:00:00	2024-11-08T23:00:00	7	Dirección del viento	0
147375	7	Sololá	713	San Lucas Tolimán	10	San Lucas Tolimán	9	Septiembre	2023-09-13T00:00:00	2024-11-08T23:00:00	1	Precipitación	0.2
147376	7	Sololá	713	San Lucas Tolimán	10	San Lucas Tolimán	9	Septiembre	2023-09-13T00:00:00	2024-11-08T23:00:00	8	Radiación solar	0
147377	7	Sololá	713	San Lucas Tolimán	10	San Lucas Tolimán	9	Septiembre	2023-09-14T00:00:00	2024-11-08T00:00:00	2	Temperatura media	18.3
147378	7	Sololá	713	San Lucas Tolimán	10	San Lucas Tolimán	9	Septiembre	2023-09-14T00:00:00	2024-11-08T00:00:00	4	Temperatura máxima	18.8
147379	7	Sololá	713	San Lucas Tolimán	10	San Lucas Tolimán	9	Septiembre	2023-09-14T00:00:00	2024-11-08T00:00:00	3	Temperatura mínima	18.3
147380	7	Sololá	713	San Lucas Tolimán	10	San Lucas Tolimán	9	Septiembre	2023-09-14T00:00:00	2024-11-08T00:00:00	5	Humedad	95
147381	7	Sololá	713	San Lucas Tolimán	10	San Lucas Tolimán	9	Septiembre	2023-09-14T00:00:00	2024-11-08T00:00:00	6	Velocidad del viento	0
147382	7	Sololá	713	San Lucas Tolimán	10	San Lucas Tolimán	9	Septiembre	2023-09-14T00:00:00	2024-11-08T00:00:00	7	Dirección del viento	0
147383	7	Sololá	713	San Lucas Tolimán	10	San Lucas Tolimán	9	Septiembre	2023-09-14T00:00:00	2024-11-08T00:00:00	1	Precipitación	0.6
147384	7	Sololá	713	San Lucas Tolimán	10	San Lucas Tolimán	9	Septiembre	2023-09-14T00:00:00	2024-11-08T00:00:00	8	Radiación solar	0
147385	7	Sololá	713	San Lucas Tolimán	10	San Lucas Tolimán	9	Septiembre	2023-09-14T00:00:00	2024-11-08T01:00:00	2	Temperatura media	17.9
147386	7	Sololá	713	San Lucas Tolimán	10	San Lucas Tolimán	9	Septiembre	2023-09-14T00:00:00	2024-11-08T01:00:00	4	Temperatura máxima	18.3
147387	7	Sololá	713	San Lucas Tolimán	10	San Lucas Tolimán	9	Septiembre	2023-09-14T00:00:00	2024-11-08T01:00:00	3	Temperatura mínima	17.7
147388	7	Sololá	713	San Lucas Tolimán	10	San Lucas Tolimán	9	Septiembre	2023-09-14T00:00:00	2024-11-08T01:00:00	5	Humedad	67
147389	7	Sololá	713	San Lucas Tolimán	10	San Lucas Tolimán	9	Septiembre	2023-09-14T00:00:00	2024-11-08T01:00:00	6	Velocidad del viento	1.6
147390	7	Sololá	713	San Lucas Tolimán	10	San Lucas Tolimán	9	Septiembre	2023-09-14T00:00:00	2024-11-08T01:00:00	7	Dirección del viento	1.61
147391	7	Sololá	713	San Lucas Tolimán	10	San Lucas Tolimán	9	Septiembre	2023-09-14T00:00:00	2024-11-08T01:00:00	1	Precipitación	3
147392	7	Sololá	713	San Lucas Tolimán	10	San Lucas Tolimán	9	Septiembre	2023-09-14T00:00:00	2024-11-08T01:00:00	8	Radiación solar	0
147393	7	Sololá	713	San Lucas Tolimán	10	San Lucas Tolimán	9	Septiembre	2023-09-14T00:00:00	2024-11-08T02:00:00	2	Temperatura media	17.7
147394	7	Sololá	713	San Lucas Tolimán	10	San Lucas Tolimán	9	Septiembre	2023-09-14T00:00:00	2024-11-08T02:00:00	4	Temperatura máxima	17.9
147395	7	Sololá	713	San Lucas Tolimán	10	San Lucas Tolimán	9	Septiembre	2023-09-14T00:00:00	2024-11-08T02:00:00	3	Temperatura mínima	17.6
147396	7	Sololá	713	San Lucas Tolimán	10	San Lucas Tolimán	9	Septiembre	2023-09-14T00:00:00	2024-11-08T02:00:00	5	Humedad	67
147397	7	Sololá	713	San Lucas Tolimán	10	San Lucas Tolimán	9	Septiembre	2023-09-14T00:00:00	2024-11-08T02:00:00	6	Velocidad del viento	4.8
147398	7	Sololá	713	San Lucas Tolimán	10	San Lucas Tolimán	9	Septiembre	2023-09-14T00:00:00	2024-11-08T02:00:00	7	Dirección del viento	4.83
147399	7	Sololá	713	San Lucas Tolimán	10	San Lucas Tolimán	9	Septiembre	2023-09-14T00:00:00	2024-11-08T02:00:00	1	Precipitación	0
147400	7	Sololá	713	San Lucas Tolimán	10	San Lucas Tolimán	9	Septiembre	2023-09-14T00:00:00	2024-11-08T02:00:00	8	Radiación solar	0
147401	7	Sololá	713	San Lucas Tolimán	10	San Lucas Tolimán	9	Septiembre	2023-09-14T00:00:00	2024-11-08T03:00:00	2	Temperatura media	17.1
147402	7	Sololá	713	San Lucas Tolimán	10	San Lucas Tolimán	9	Septiembre	2023-09-14T00:00:00	2024-11-08T03:00:00	4	Temperatura máxima	17.8
147403	7	Sololá	713	San Lucas Tolimán	10	San Lucas Tolimán	9	Septiembre	2023-09-14T00:00:00	2024-11-08T03:00:00	3	Temperatura mínima	17.1
147404	7	Sololá	713	San Lucas Tolimán	10	San Lucas Tolimán	9	Septiembre	2023-09-14T00:00:00	2024-11-08T03:00:00	5	Humedad	67
147405	7	Sololá	713	San Lucas Tolimán	10	San Lucas Tolimán	9	Septiembre	2023-09-14T00:00:00	2024-11-08T03:00:00	6	Velocidad del viento	1.6
147406	7	Sololá	713	San Lucas Tolimán	10	San Lucas Tolimán	9	Septiembre	2023-09-14T00:00:00	2024-11-08T03:00:00	7	Dirección del viento	1.61
147407	7	Sololá	713	San Lucas Tolimán	10	San Lucas Tolimán	9	Septiembre	2023-09-14T00:00:00	2024-11-08T03:00:00	1	Precipitación	0
147408	7	Sololá	713	San Lucas Tolimán	10	San Lucas Tolimán	9	Septiembre	2023-09-14T00:00:00	2024-11-08T03:00:00	8	Radiación solar	0
147409	7	Sololá	713	San Lucas Tolimán	10	San Lucas Tolimán	9	Septiembre	2023-09-14T00:00:00	2024-11-08T04:00:00	2	Temperatura media	16.6
147410	7	Sololá	713	San Lucas Tolimán	10	San Lucas Tolimán	9	Septiembre	2023-09-14T00:00:00	2024-11-08T04:00:00	4	Temperatura máxima	17.1
147411	7	Sololá	713	San Lucas Tolimán	10	San Lucas Tolimán	9	Septiembre	2023-09-14T00:00:00	2024-11-08T04:00:00	3	Temperatura mínima	16.5
147412	7	Sololá	713	San Lucas Tolimán	10	San Lucas Tolimán	9	Septiembre	2023-09-14T00:00:00	2024-11-08T04:00:00	5	Humedad	66
147413	7	Sololá	713	San Lucas Tolimán	10	San Lucas Tolimán	9	Septiembre	2023-09-14T00:00:00	2024-11-08T04:00:00	6	Velocidad del viento	1.6
147414	7	Sololá	713	San Lucas Tolimán	10	San Lucas Tolimán	9	Septiembre	2023-09-14T00:00:00	2024-11-08T04:00:00	7	Dirección del viento	1.61
147415	7	Sololá	713	San Lucas Tolimán	10	San Lucas Tolimán	9	Septiembre	2023-09-14T00:00:00	2024-11-08T04:00:00	1	Precipitación	0
147416	7	Sololá	713	San Lucas Tolimán	10	San Lucas Tolimán	9	Septiembre	2023-09-14T00:00:00	2024-11-08T04:00:00	8	Radiación solar	0
147417	7	Sololá	713	San Lucas Tolimán	10	San Lucas Tolimán	9	Septiembre	2023-09-14T00:00:00	2024-11-08T05:00:00	2	Temperatura media	17.5
147418	7	Sololá	713	San Lucas Tolimán	10	San Lucas Tolimán	9	Septiembre	2023-09-14T00:00:00	2024-11-08T05:00:00	4	Temperatura máxima	17.6
147419	7	Sololá	713	San Lucas Tolimán	10	San Lucas Tolimán	9	Septiembre	2023-09-14T00:00:00	2024-11-08T05:00:00	3	Temperatura mínima	16.6
147420	7	Sololá	713	San Lucas Tolimán	10	San Lucas Tolimán	9	Septiembre	2023-09-14T00:00:00	2024-11-08T05:00:00	5	Humedad	62
147421	7	Sololá	713	San Lucas Tolimán	10	San Lucas Tolimán	9	Septiembre	2023-09-14T00:00:00	2024-11-08T05:00:00	6	Velocidad del viento	3.2
147422	7	Sololá	713	San Lucas Tolimán	10	San Lucas Tolimán	9	Septiembre	2023-09-14T00:00:00	2024-11-08T05:00:00	7	Dirección del viento	3.22
147423	7	Sololá	713	San Lucas Tolimán	10	San Lucas Tolimán	9	Septiembre	2023-09-14T00:00:00	2024-11-08T05:00:00	1	Precipitación	0
147424	7	Sololá	713	San Lucas Tolimán	10	San Lucas Tolimán	9	Septiembre	2023-09-14T00:00:00	2024-11-08T05:00:00	8	Radiación solar	0
147425	7	Sololá	713	San Lucas Tolimán	10	San Lucas Tolimán	9	Septiembre	2023-09-14T00:00:00	2024-11-08T06:00:00	2	Temperatura media	17
147426	7	Sololá	713	San Lucas Tolimán	10	San Lucas Tolimán	9	Septiembre	2023-09-14T00:00:00	2024-11-08T06:00:00	4	Temperatura máxima	17.6
147427	7	Sololá	713	San Lucas Tolimán	10	San Lucas Tolimán	9	Septiembre	2023-09-14T00:00:00	2024-11-08T06:00:00	3	Temperatura mínima	16.9
147428	7	Sololá	713	San Lucas Tolimán	10	San Lucas Tolimán	9	Septiembre	2023-09-14T00:00:00	2024-11-08T06:00:00	5	Humedad	64
147429	7	Sololá	713	San Lucas Tolimán	10	San Lucas Tolimán	9	Septiembre	2023-09-14T00:00:00	2024-11-08T06:00:00	6	Velocidad del viento	4.8
147430	7	Sololá	713	San Lucas Tolimán	10	San Lucas Tolimán	9	Septiembre	2023-09-14T00:00:00	2024-11-08T06:00:00	7	Dirección del viento	4.83
147431	7	Sololá	713	San Lucas Tolimán	10	San Lucas Tolimán	9	Septiembre	2023-09-14T00:00:00	2024-11-08T06:00:00	1	Precipitación	0.2
147432	7	Sololá	713	San Lucas Tolimán	10	San Lucas Tolimán	9	Septiembre	2023-09-14T00:00:00	2024-11-08T06:00:00	8	Radiación solar	0
147433	7	Sololá	713	San Lucas Tolimán	10	San Lucas Tolimán	9	Septiembre	2023-09-14T00:00:00	2024-11-08T07:00:00	2	Temperatura media	17.2
147434	7	Sololá	713	San Lucas Tolimán	10	San Lucas Tolimán	9	Septiembre	2023-09-14T00:00:00	2024-11-08T07:00:00	4	Temperatura máxima	17.2
147435	7	Sololá	713	San Lucas Tolimán	10	San Lucas Tolimán	9	Septiembre	2023-09-14T00:00:00	2024-11-08T07:00:00	3	Temperatura mínima	16.8
147436	7	Sololá	713	San Lucas Tolimán	10	San Lucas Tolimán	9	Septiembre	2023-09-14T00:00:00	2024-11-08T07:00:00	5	Humedad	68
147437	7	Sololá	713	San Lucas Tolimán	10	San Lucas Tolimán	9	Septiembre	2023-09-14T00:00:00	2024-11-08T07:00:00	6	Velocidad del viento	6.4
147438	7	Sololá	713	San Lucas Tolimán	10	San Lucas Tolimán	9	Septiembre	2023-09-14T00:00:00	2024-11-08T07:00:00	7	Dirección del viento	6.44
147439	7	Sololá	713	San Lucas Tolimán	10	San Lucas Tolimán	9	Septiembre	2023-09-14T00:00:00	2024-11-08T07:00:00	1	Precipitación	0
147440	7	Sololá	713	San Lucas Tolimán	10	San Lucas Tolimán	9	Septiembre	2023-09-14T00:00:00	2024-11-08T07:00:00	8	Radiación solar	52
147441	7	Sololá	713	San Lucas Tolimán	10	San Lucas Tolimán	9	Septiembre	2023-09-14T00:00:00	2024-11-08T08:00:00	2	Temperatura media	18.9
147442	7	Sololá	713	San Lucas Tolimán	10	San Lucas Tolimán	9	Septiembre	2023-09-14T00:00:00	2024-11-08T08:00:00	4	Temperatura máxima	18.9
147443	7	Sololá	713	San Lucas Tolimán	10	San Lucas Tolimán	9	Septiembre	2023-09-14T00:00:00	2024-11-08T08:00:00	3	Temperatura mínima	17.2
147444	7	Sololá	713	San Lucas Tolimán	10	San Lucas Tolimán	9	Septiembre	2023-09-14T00:00:00	2024-11-08T08:00:00	5	Humedad	62
147445	7	Sololá	713	San Lucas Tolimán	10	San Lucas Tolimán	9	Septiembre	2023-09-14T00:00:00	2024-11-08T08:00:00	6	Velocidad del viento	4.8
147446	7	Sololá	713	San Lucas Tolimán	10	San Lucas Tolimán	9	Septiembre	2023-09-14T00:00:00	2024-11-08T08:00:00	7	Dirección del viento	4.83
147447	7	Sololá	713	San Lucas Tolimán	10	San Lucas Tolimán	9	Septiembre	2023-09-14T00:00:00	2024-11-08T08:00:00	1	Precipitación	0
147448	7	Sololá	713	San Lucas Tolimán	10	San Lucas Tolimán	9	Septiembre	2023-09-14T00:00:00	2024-11-08T08:00:00	8	Radiación solar	152
147449	7	Sololá	713	San Lucas Tolimán	10	San Lucas Tolimán	9	Septiembre	2023-09-14T00:00:00	2024-11-08T09:00:00	2	Temperatura media	20.4
147450	7	Sololá	713	San Lucas Tolimán	10	San Lucas Tolimán	9	Septiembre	2023-09-14T00:00:00	2024-11-08T09:00:00	4	Temperatura máxima	20.4
147451	7	Sololá	713	San Lucas Tolimán	10	San Lucas Tolimán	9	Septiembre	2023-09-14T00:00:00	2024-11-08T09:00:00	3	Temperatura mínima	18.9
147452	7	Sololá	713	San Lucas Tolimán	10	San Lucas Tolimán	9	Septiembre	2023-09-14T00:00:00	2024-11-08T09:00:00	5	Humedad	61
147453	7	Sololá	713	San Lucas Tolimán	10	San Lucas Tolimán	9	Septiembre	2023-09-14T00:00:00	2024-11-08T09:00:00	6	Velocidad del viento	6.4
147454	7	Sololá	713	San Lucas Tolimán	10	San Lucas Tolimán	9	Septiembre	2023-09-14T00:00:00	2024-11-08T09:00:00	7	Dirección del viento	6.44
147455	7	Sololá	713	San Lucas Tolimán	10	San Lucas Tolimán	9	Septiembre	2023-09-14T00:00:00	2024-11-08T09:00:00	1	Precipitación	0
147456	7	Sololá	713	San Lucas Tolimán	10	San Lucas Tolimán	9	Septiembre	2023-09-14T00:00:00	2024-11-08T09:00:00	8	Radiación solar	299
147457	7	Sololá	713	San Lucas Tolimán	10	San Lucas Tolimán	9	Septiembre	2023-09-14T00:00:00	2024-11-08T10:00:00	2	Temperatura media	21.6
147458	7	Sololá	713	San Lucas Tolimán	10	San Lucas Tolimán	9	Septiembre	2023-09-14T00:00:00	2024-11-08T10:00:00	4	Temperatura máxima	21.9
147459	7	Sololá	713	San Lucas Tolimán	10	San Lucas Tolimán	9	Septiembre	2023-09-14T00:00:00	2024-11-08T10:00:00	3	Temperatura mínima	20.4
147460	7	Sololá	713	San Lucas Tolimán	10	San Lucas Tolimán	9	Septiembre	2023-09-14T00:00:00	2024-11-08T10:00:00	5	Humedad	55
147461	7	Sololá	713	San Lucas Tolimán	10	San Lucas Tolimán	9	Septiembre	2023-09-14T00:00:00	2024-11-08T10:00:00	6	Velocidad del viento	4.8
147462	7	Sololá	713	San Lucas Tolimán	10	San Lucas Tolimán	9	Septiembre	2023-09-14T00:00:00	2024-11-08T10:00:00	7	Dirección del viento	4.83
147463	7	Sololá	713	San Lucas Tolimán	10	San Lucas Tolimán	9	Septiembre	2023-09-14T00:00:00	2024-11-08T10:00:00	1	Precipitación	0
147464	7	Sololá	713	San Lucas Tolimán	10	San Lucas Tolimán	9	Septiembre	2023-09-14T00:00:00	2024-11-08T10:00:00	8	Radiación solar	689
147465	7	Sololá	713	San Lucas Tolimán	10	San Lucas Tolimán	9	Septiembre	2023-09-14T00:00:00	2024-11-08T11:00:00	2	Temperatura media	23.2
147466	7	Sololá	713	San Lucas Tolimán	10	San Lucas Tolimán	9	Septiembre	2023-09-14T00:00:00	2024-11-08T11:00:00	4	Temperatura máxima	23.7
147467	7	Sololá	713	San Lucas Tolimán	10	San Lucas Tolimán	9	Septiembre	2023-09-14T00:00:00	2024-11-08T11:00:00	3	Temperatura mínima	21.5
147468	7	Sololá	713	San Lucas Tolimán	10	San Lucas Tolimán	9	Septiembre	2023-09-14T00:00:00	2024-11-08T11:00:00	5	Humedad	58
147469	7	Sololá	713	San Lucas Tolimán	10	San Lucas Tolimán	9	Septiembre	2023-09-14T00:00:00	2024-11-08T11:00:00	6	Velocidad del viento	6.4
147470	7	Sololá	713	San Lucas Tolimán	10	San Lucas Tolimán	9	Septiembre	2023-09-14T00:00:00	2024-11-08T11:00:00	7	Dirección del viento	6.44
147471	7	Sololá	713	San Lucas Tolimán	10	San Lucas Tolimán	9	Septiembre	2023-09-14T00:00:00	2024-11-08T11:00:00	1	Precipitación	0
147472	7	Sololá	713	San Lucas Tolimán	10	San Lucas Tolimán	9	Septiembre	2023-09-14T00:00:00	2024-11-08T11:00:00	8	Radiación solar	900
147473	7	Sololá	713	San Lucas Tolimán	10	San Lucas Tolimán	9	Septiembre	2023-09-14T00:00:00	2024-11-08T12:00:00	2	Temperatura media	23.9
147474	7	Sololá	713	San Lucas Tolimán	10	San Lucas Tolimán	9	Septiembre	2023-09-14T00:00:00	2024-11-08T12:00:00	4	Temperatura máxima	24.8
147475	7	Sololá	713	San Lucas Tolimán	10	San Lucas Tolimán	9	Septiembre	2023-09-14T00:00:00	2024-11-08T12:00:00	3	Temperatura mínima	23.2
147476	7	Sololá	713	San Lucas Tolimán	10	San Lucas Tolimán	9	Septiembre	2023-09-14T00:00:00	2024-11-08T12:00:00	5	Humedad	57
147477	7	Sololá	713	San Lucas Tolimán	10	San Lucas Tolimán	9	Septiembre	2023-09-14T00:00:00	2024-11-08T12:00:00	6	Velocidad del viento	8
147478	7	Sololá	713	San Lucas Tolimán	10	San Lucas Tolimán	9	Septiembre	2023-09-14T00:00:00	2024-11-08T12:00:00	7	Dirección del viento	8.05
147479	7	Sololá	713	San Lucas Tolimán	10	San Lucas Tolimán	9	Septiembre	2023-09-14T00:00:00	2024-11-08T12:00:00	1	Precipitación	0
147480	7	Sololá	713	San Lucas Tolimán	10	San Lucas Tolimán	9	Septiembre	2023-09-14T00:00:00	2024-11-08T12:00:00	8	Radiación solar	783
147481	7	Sololá	713	San Lucas Tolimán	10	San Lucas Tolimán	9	Septiembre	2023-09-14T00:00:00	2024-11-08T13:00:00	2	Temperatura media	24.3
147482	7	Sololá	713	San Lucas Tolimán	10	San Lucas Tolimán	9	Septiembre	2023-09-14T00:00:00	2024-11-08T13:00:00	4	Temperatura máxima	24.6
147483	7	Sololá	713	San Lucas Tolimán	10	San Lucas Tolimán	9	Septiembre	2023-09-14T00:00:00	2024-11-08T13:00:00	3	Temperatura mínima	23.6
147484	7	Sololá	713	San Lucas Tolimán	10	San Lucas Tolimán	9	Septiembre	2023-09-14T00:00:00	2024-11-08T13:00:00	5	Humedad	58
147485	7	Sololá	713	San Lucas Tolimán	10	San Lucas Tolimán	9	Septiembre	2023-09-14T00:00:00	2024-11-08T13:00:00	6	Velocidad del viento	9.7
147486	7	Sololá	713	San Lucas Tolimán	10	San Lucas Tolimán	9	Septiembre	2023-09-14T00:00:00	2024-11-08T13:00:00	7	Dirección del viento	9.66
147487	7	Sololá	713	San Lucas Tolimán	10	San Lucas Tolimán	9	Septiembre	2023-09-14T00:00:00	2024-11-08T13:00:00	1	Precipitación	0
147488	7	Sololá	713	San Lucas Tolimán	10	San Lucas Tolimán	9	Septiembre	2023-09-14T00:00:00	2024-11-08T13:00:00	8	Radiación solar	1058
147489	7	Sololá	713	San Lucas Tolimán	10	San Lucas Tolimán	9	Septiembre	2023-09-14T00:00:00	2024-11-08T14:00:00	2	Temperatura media	21.3
147490	7	Sololá	713	San Lucas Tolimán	10	San Lucas Tolimán	9	Septiembre	2023-09-14T00:00:00	2024-11-08T14:00:00	4	Temperatura máxima	24.3
147491	7	Sololá	713	San Lucas Tolimán	10	San Lucas Tolimán	9	Septiembre	2023-09-14T00:00:00	2024-11-08T14:00:00	3	Temperatura mínima	21.3
147492	7	Sololá	713	San Lucas Tolimán	10	San Lucas Tolimán	9	Septiembre	2023-09-14T00:00:00	2024-11-08T14:00:00	5	Humedad	64
147493	7	Sololá	713	San Lucas Tolimán	10	San Lucas Tolimán	9	Septiembre	2023-09-14T00:00:00	2024-11-08T14:00:00	6	Velocidad del viento	11.3
147494	7	Sololá	713	San Lucas Tolimán	10	San Lucas Tolimán	9	Septiembre	2023-09-14T00:00:00	2024-11-08T14:00:00	7	Dirección del viento	11.27
147495	7	Sololá	713	San Lucas Tolimán	10	San Lucas Tolimán	9	Septiembre	2023-09-14T00:00:00	2024-11-08T14:00:00	1	Precipitación	0
147496	7	Sololá	713	San Lucas Tolimán	10	San Lucas Tolimán	9	Septiembre	2023-09-14T00:00:00	2024-11-08T14:00:00	8	Radiación solar	305
147497	7	Sololá	713	San Lucas Tolimán	10	San Lucas Tolimán	9	Septiembre	2023-09-14T00:00:00	2024-11-08T15:00:00	2	Temperatura media	19.8
147498	7	Sololá	713	San Lucas Tolimán	10	San Lucas Tolimán	9	Septiembre	2023-09-14T00:00:00	2024-11-08T15:00:00	4	Temperatura máxima	21.3
147499	7	Sololá	713	San Lucas Tolimán	10	San Lucas Tolimán	9	Septiembre	2023-09-14T00:00:00	2024-11-08T15:00:00	3	Temperatura mínima	19.8
147500	7	Sololá	713	San Lucas Tolimán	10	San Lucas Tolimán	9	Septiembre	2023-09-14T00:00:00	2024-11-08T15:00:00	5	Humedad	62
147501	7	Sololá	713	San Lucas Tolimán	10	San Lucas Tolimán	9	Septiembre	2023-09-14T00:00:00	2024-11-08T15:00:00	6	Velocidad del viento	11.3
147502	7	Sololá	713	San Lucas Tolimán	10	San Lucas Tolimán	9	Septiembre	2023-09-14T00:00:00	2024-11-08T15:00:00	7	Dirección del viento	11.27
147503	7	Sololá	713	San Lucas Tolimán	10	San Lucas Tolimán	9	Septiembre	2023-09-14T00:00:00	2024-11-08T15:00:00	1	Precipitación	0
147504	7	Sololá	713	San Lucas Tolimán	10	San Lucas Tolimán	9	Septiembre	2023-09-14T00:00:00	2024-11-08T15:00:00	8	Radiación solar	112
147505	7	Sololá	713	San Lucas Tolimán	10	San Lucas Tolimán	9	Septiembre	2023-09-14T00:00:00	2024-11-08T16:00:00	2	Temperatura media	20.8
147506	7	Sololá	713	San Lucas Tolimán	10	San Lucas Tolimán	9	Septiembre	2023-09-14T00:00:00	2024-11-08T16:00:00	4	Temperatura máxima	20.8
147507	7	Sololá	713	San Lucas Tolimán	10	San Lucas Tolimán	9	Septiembre	2023-09-14T00:00:00	2024-11-08T16:00:00	3	Temperatura mínima	19.8
147508	7	Sololá	713	San Lucas Tolimán	10	San Lucas Tolimán	9	Septiembre	2023-09-14T00:00:00	2024-11-08T16:00:00	5	Humedad	62
147509	7	Sololá	713	San Lucas Tolimán	10	San Lucas Tolimán	9	Septiembre	2023-09-14T00:00:00	2024-11-08T16:00:00	6	Velocidad del viento	8
147510	7	Sololá	713	San Lucas Tolimán	10	San Lucas Tolimán	9	Septiembre	2023-09-14T00:00:00	2024-11-08T16:00:00	7	Dirección del viento	8.05
147511	7	Sololá	713	San Lucas Tolimán	10	San Lucas Tolimán	9	Septiembre	2023-09-14T00:00:00	2024-11-08T16:00:00	1	Precipitación	0
147512	7	Sololá	713	San Lucas Tolimán	10	San Lucas Tolimán	9	Septiembre	2023-09-14T00:00:00	2024-11-08T16:00:00	8	Radiación solar	184
147513	7	Sololá	713	San Lucas Tolimán	10	San Lucas Tolimán	9	Septiembre	2023-09-14T00:00:00	2024-11-08T17:00:00	2	Temperatura media	20.1
147514	7	Sololá	713	San Lucas Tolimán	10	San Lucas Tolimán	9	Septiembre	2023-09-14T00:00:00	2024-11-08T17:00:00	4	Temperatura máxima	20.9
147515	7	Sololá	713	San Lucas Tolimán	10	San Lucas Tolimán	9	Septiembre	2023-09-14T00:00:00	2024-11-08T17:00:00	3	Temperatura mínima	20.1
147516	7	Sololá	713	San Lucas Tolimán	10	San Lucas Tolimán	9	Septiembre	2023-09-14T00:00:00	2024-11-08T17:00:00	5	Humedad	63
147517	7	Sololá	713	San Lucas Tolimán	10	San Lucas Tolimán	9	Septiembre	2023-09-14T00:00:00	2024-11-08T17:00:00	6	Velocidad del viento	6.4
147518	7	Sololá	713	San Lucas Tolimán	10	San Lucas Tolimán	9	Septiembre	2023-09-14T00:00:00	2024-11-08T17:00:00	7	Dirección del viento	6.44
147519	7	Sololá	713	San Lucas Tolimán	10	San Lucas Tolimán	9	Septiembre	2023-09-14T00:00:00	2024-11-08T17:00:00	1	Precipitación	0
147520	7	Sololá	713	San Lucas Tolimán	10	San Lucas Tolimán	9	Septiembre	2023-09-14T00:00:00	2024-11-08T17:00:00	8	Radiación solar	116
147521	7	Sololá	713	San Lucas Tolimán	10	San Lucas Tolimán	9	Septiembre	2023-09-14T00:00:00	2024-11-08T18:00:00	2	Temperatura media	19.9
147522	7	Sololá	713	San Lucas Tolimán	10	San Lucas Tolimán	9	Septiembre	2023-09-14T00:00:00	2024-11-08T18:00:00	4	Temperatura máxima	20.2
147523	7	Sololá	713	San Lucas Tolimán	10	San Lucas Tolimán	9	Septiembre	2023-09-14T00:00:00	2024-11-08T18:00:00	3	Temperatura mínima	19.8
147524	7	Sololá	713	San Lucas Tolimán	10	San Lucas Tolimán	9	Septiembre	2023-09-14T00:00:00	2024-11-08T18:00:00	5	Humedad	62
147525	7	Sololá	713	San Lucas Tolimán	10	San Lucas Tolimán	9	Septiembre	2023-09-14T00:00:00	2024-11-08T18:00:00	6	Velocidad del viento	4.8
147526	7	Sololá	713	San Lucas Tolimán	10	San Lucas Tolimán	9	Septiembre	2023-09-14T00:00:00	2024-11-08T18:00:00	7	Dirección del viento	4.83
147527	7	Sololá	713	San Lucas Tolimán	10	San Lucas Tolimán	9	Septiembre	2023-09-14T00:00:00	2024-11-08T18:00:00	1	Precipitación	0
147528	7	Sololá	713	San Lucas Tolimán	10	San Lucas Tolimán	9	Septiembre	2023-09-14T00:00:00	2024-11-08T18:00:00	8	Radiación solar	26
147529	7	Sololá	713	San Lucas Tolimán	10	San Lucas Tolimán	9	Septiembre	2023-09-14T00:00:00	2024-11-08T19:00:00	2	Temperatura media	19.6
147530	7	Sololá	713	San Lucas Tolimán	10	San Lucas Tolimán	9	Septiembre	2023-09-14T00:00:00	2024-11-08T19:00:00	4	Temperatura máxima	20.1
147531	7	Sololá	713	San Lucas Tolimán	10	San Lucas Tolimán	9	Septiembre	2023-09-14T00:00:00	2024-11-08T19:00:00	3	Temperatura mínima	19.6
147532	7	Sololá	713	San Lucas Tolimán	10	San Lucas Tolimán	9	Septiembre	2023-09-14T00:00:00	2024-11-08T19:00:00	5	Humedad	64
147533	7	Sololá	713	San Lucas Tolimán	10	San Lucas Tolimán	9	Septiembre	2023-09-14T00:00:00	2024-11-08T19:00:00	6	Velocidad del viento	4.8
147534	7	Sololá	713	San Lucas Tolimán	10	San Lucas Tolimán	9	Septiembre	2023-09-14T00:00:00	2024-11-08T19:00:00	7	Dirección del viento	4.83
147535	7	Sololá	713	San Lucas Tolimán	10	San Lucas Tolimán	9	Septiembre	2023-09-14T00:00:00	2024-11-08T19:00:00	1	Precipitación	0
147536	7	Sololá	713	San Lucas Tolimán	10	San Lucas Tolimán	9	Septiembre	2023-09-14T00:00:00	2024-11-08T19:00:00	8	Radiación solar	0
147537	7	Sololá	713	San Lucas Tolimán	10	San Lucas Tolimán	9	Septiembre	2023-09-14T00:00:00	2024-11-08T20:00:00	2	Temperatura media	18.9
147538	7	Sololá	713	San Lucas Tolimán	10	San Lucas Tolimán	9	Septiembre	2023-09-14T00:00:00	2024-11-08T20:00:00	4	Temperatura máxima	19.6
147539	7	Sololá	713	San Lucas Tolimán	10	San Lucas Tolimán	9	Septiembre	2023-09-14T00:00:00	2024-11-08T20:00:00	3	Temperatura mínima	18.8
147540	7	Sololá	713	San Lucas Tolimán	10	San Lucas Tolimán	9	Septiembre	2023-09-14T00:00:00	2024-11-08T20:00:00	5	Humedad	65
147541	7	Sololá	713	San Lucas Tolimán	10	San Lucas Tolimán	9	Septiembre	2023-09-14T00:00:00	2024-11-08T20:00:00	6	Velocidad del viento	3.2
147542	7	Sololá	713	San Lucas Tolimán	10	San Lucas Tolimán	9	Septiembre	2023-09-14T00:00:00	2024-11-08T20:00:00	7	Dirección del viento	3.22
147543	7	Sololá	713	San Lucas Tolimán	10	San Lucas Tolimán	9	Septiembre	2023-09-14T00:00:00	2024-11-08T20:00:00	1	Precipitación	0
147544	7	Sololá	713	San Lucas Tolimán	10	San Lucas Tolimán	9	Septiembre	2023-09-14T00:00:00	2024-11-08T20:00:00	8	Radiación solar	0
147545	7	Sololá	713	San Lucas Tolimán	10	San Lucas Tolimán	9	Septiembre	2023-09-14T00:00:00	2024-11-08T21:00:00	2	Temperatura media	18.7
147546	7	Sololá	713	San Lucas Tolimán	10	San Lucas Tolimán	9	Septiembre	2023-09-14T00:00:00	2024-11-08T21:00:00	4	Temperatura máxima	19
147547	7	Sololá	713	San Lucas Tolimán	10	San Lucas Tolimán	9	Septiembre	2023-09-14T00:00:00	2024-11-08T21:00:00	3	Temperatura mínima	18.5
147548	7	Sololá	713	San Lucas Tolimán	10	San Lucas Tolimán	9	Septiembre	2023-09-14T00:00:00	2024-11-08T21:00:00	5	Humedad	64
147549	7	Sololá	713	San Lucas Tolimán	10	San Lucas Tolimán	9	Septiembre	2023-09-14T00:00:00	2024-11-08T21:00:00	6	Velocidad del viento	3.2
147550	7	Sololá	713	San Lucas Tolimán	10	San Lucas Tolimán	9	Septiembre	2023-09-14T00:00:00	2024-11-08T21:00:00	7	Dirección del viento	3.22
147551	7	Sololá	713	San Lucas Tolimán	10	San Lucas Tolimán	9	Septiembre	2023-09-14T00:00:00	2024-11-08T21:00:00	1	Precipitación	0
147552	7	Sololá	713	San Lucas Tolimán	10	San Lucas Tolimán	9	Septiembre	2023-09-14T00:00:00	2024-11-08T21:00:00	8	Radiación solar	0
147553	7	Sololá	713	San Lucas Tolimán	10	San Lucas Tolimán	9	Septiembre	2023-09-14T00:00:00	2024-11-08T22:00:00	2	Temperatura media	18.8
147554	7	Sololá	713	San Lucas Tolimán	10	San Lucas Tolimán	9	Septiembre	2023-09-14T00:00:00	2024-11-08T22:00:00	4	Temperatura máxima	18.8
147555	7	Sololá	713	San Lucas Tolimán	10	San Lucas Tolimán	9	Septiembre	2023-09-14T00:00:00	2024-11-08T22:00:00	3	Temperatura mínima	18.6
147556	7	Sololá	713	San Lucas Tolimán	10	San Lucas Tolimán	9	Septiembre	2023-09-14T00:00:00	2024-11-08T22:00:00	5	Humedad	66
147557	7	Sololá	713	San Lucas Tolimán	10	San Lucas Tolimán	9	Septiembre	2023-09-14T00:00:00	2024-11-08T22:00:00	6	Velocidad del viento	4.8
147558	7	Sololá	713	San Lucas Tolimán	10	San Lucas Tolimán	9	Septiembre	2023-09-14T00:00:00	2024-11-08T22:00:00	7	Dirección del viento	4.83
147559	7	Sololá	713	San Lucas Tolimán	10	San Lucas Tolimán	9	Septiembre	2023-09-14T00:00:00	2024-11-08T22:00:00	1	Precipitación	0
147560	7	Sololá	713	San Lucas Tolimán	10	San Lucas Tolimán	9	Septiembre	2023-09-14T00:00:00	2024-11-08T22:00:00	8	Radiación solar	0
147561	7	Sololá	713	San Lucas Tolimán	10	San Lucas Tolimán	9	Septiembre	2023-09-14T00:00:00	2024-11-08T23:00:00	2	Temperatura media	19.1
147562	7	Sololá	713	San Lucas Tolimán	10	San Lucas Tolimán	9	Septiembre	2023-09-14T00:00:00	2024-11-08T23:00:00	4	Temperatura máxima	19.5
147563	7	Sololá	713	San Lucas Tolimán	10	San Lucas Tolimán	9	Septiembre	2023-09-14T00:00:00	2024-11-08T23:00:00	3	Temperatura mínima	18.7
147564	7	Sololá	713	San Lucas Tolimán	10	San Lucas Tolimán	9	Septiembre	2023-09-14T00:00:00	2024-11-08T23:00:00	5	Humedad	62
147565	7	Sololá	713	San Lucas Tolimán	10	San Lucas Tolimán	9	Septiembre	2023-09-14T00:00:00	2024-11-08T23:00:00	6	Velocidad del viento	3.2
147566	7	Sololá	713	San Lucas Tolimán	10	San Lucas Tolimán	9	Septiembre	2023-09-14T00:00:00	2024-11-08T23:00:00	7	Dirección del viento	3.22
147567	7	Sololá	713	San Lucas Tolimán	10	San Lucas Tolimán	9	Septiembre	2023-09-14T00:00:00	2024-11-08T23:00:00	1	Precipitación	0
147568	7	Sololá	713	San Lucas Tolimán	10	San Lucas Tolimán	9	Septiembre	2023-09-14T00:00:00	2024-11-08T23:00:00	8	Radiación solar	0
147569	7	Sololá	713	San Lucas Tolimán	10	San Lucas Tolimán	9	Septiembre	2023-09-15T00:00:00	2024-11-08T00:00:00	2	Temperatura media	18.5
147570	7	Sololá	713	San Lucas Tolimán	10	San Lucas Tolimán	9	Septiembre	2023-09-15T00:00:00	2024-11-08T00:00:00	4	Temperatura máxima	19.2
147571	7	Sololá	713	San Lucas Tolimán	10	San Lucas Tolimán	9	Septiembre	2023-09-15T00:00:00	2024-11-08T00:00:00	3	Temperatura mínima	18.4
147572	7	Sololá	713	San Lucas Tolimán	10	San Lucas Tolimán	9	Septiembre	2023-09-15T00:00:00	2024-11-08T00:00:00	5	Humedad	62
147573	7	Sololá	713	San Lucas Tolimán	10	San Lucas Tolimán	9	Septiembre	2023-09-15T00:00:00	2024-11-08T00:00:00	6	Velocidad del viento	3.2
147574	7	Sololá	713	San Lucas Tolimán	10	San Lucas Tolimán	9	Septiembre	2023-09-15T00:00:00	2024-11-08T00:00:00	7	Dirección del viento	3.22
147575	7	Sololá	713	San Lucas Tolimán	10	San Lucas Tolimán	9	Septiembre	2023-09-15T00:00:00	2024-11-08T00:00:00	1	Precipitación	0
147576	7	Sololá	713	San Lucas Tolimán	10	San Lucas Tolimán	9	Septiembre	2023-09-15T00:00:00	2024-11-08T00:00:00	8	Radiación solar	0
147577	7	Sololá	713	San Lucas Tolimán	10	San Lucas Tolimán	9	Septiembre	2023-09-15T00:00:00	2024-11-08T01:00:00	2	Temperatura media	18.7
147578	7	Sololá	713	San Lucas Tolimán	10	San Lucas Tolimán	9	Septiembre	2023-09-15T00:00:00	2024-11-08T01:00:00	4	Temperatura máxima	19.1
147579	7	Sololá	713	San Lucas Tolimán	10	San Lucas Tolimán	9	Septiembre	2023-09-15T00:00:00	2024-11-08T01:00:00	3	Temperatura mínima	18.5
147580	7	Sololá	713	San Lucas Tolimán	10	San Lucas Tolimán	9	Septiembre	2023-09-15T00:00:00	2024-11-08T01:00:00	5	Humedad	61
147581	7	Sololá	713	San Lucas Tolimán	10	San Lucas Tolimán	9	Septiembre	2023-09-15T00:00:00	2024-11-08T01:00:00	6	Velocidad del viento	1.6
147582	7	Sololá	713	San Lucas Tolimán	10	San Lucas Tolimán	9	Septiembre	2023-09-15T00:00:00	2024-11-08T01:00:00	7	Dirección del viento	1.61
147583	7	Sololá	713	San Lucas Tolimán	10	San Lucas Tolimán	9	Septiembre	2023-09-15T00:00:00	2024-11-08T01:00:00	1	Precipitación	0
147584	7	Sololá	713	San Lucas Tolimán	10	San Lucas Tolimán	9	Septiembre	2023-09-15T00:00:00	2024-11-08T01:00:00	8	Radiación solar	0
147585	7	Sololá	713	San Lucas Tolimán	10	San Lucas Tolimán	9	Septiembre	2023-09-15T00:00:00	2024-11-08T02:00:00	2	Temperatura media	18.3
147586	7	Sololá	713	San Lucas Tolimán	10	San Lucas Tolimán	9	Septiembre	2023-09-15T00:00:00	2024-11-08T02:00:00	4	Temperatura máxima	18.8
147587	7	Sololá	713	San Lucas Tolimán	10	San Lucas Tolimán	9	Septiembre	2023-09-15T00:00:00	2024-11-08T02:00:00	3	Temperatura mínima	18.3
147588	7	Sololá	713	San Lucas Tolimán	10	San Lucas Tolimán	9	Septiembre	2023-09-15T00:00:00	2024-11-08T02:00:00	5	Humedad	62
147589	7	Sololá	713	San Lucas Tolimán	10	San Lucas Tolimán	9	Septiembre	2023-09-15T00:00:00	2024-11-08T02:00:00	6	Velocidad del viento	1.6
147590	7	Sololá	713	San Lucas Tolimán	10	San Lucas Tolimán	9	Septiembre	2023-09-15T00:00:00	2024-11-08T02:00:00	7	Dirección del viento	1.61
147591	7	Sololá	713	San Lucas Tolimán	10	San Lucas Tolimán	9	Septiembre	2023-09-15T00:00:00	2024-11-08T02:00:00	1	Precipitación	0
147592	7	Sololá	713	San Lucas Tolimán	10	San Lucas Tolimán	9	Septiembre	2023-09-15T00:00:00	2024-11-08T02:00:00	8	Radiación solar	0
147593	7	Sololá	713	San Lucas Tolimán	10	San Lucas Tolimán	9	Septiembre	2023-09-15T00:00:00	2024-11-08T03:00:00	2	Temperatura media	17.1
147594	7	Sololá	713	San Lucas Tolimán	10	San Lucas Tolimán	9	Septiembre	2023-09-15T00:00:00	2024-11-08T03:00:00	4	Temperatura máxima	18.4
147595	7	Sololá	713	San Lucas Tolimán	10	San Lucas Tolimán	9	Septiembre	2023-09-15T00:00:00	2024-11-08T03:00:00	3	Temperatura mínima	17.1
147596	7	Sololá	713	San Lucas Tolimán	10	San Lucas Tolimán	9	Septiembre	2023-09-15T00:00:00	2024-11-08T03:00:00	5	Humedad	64
147597	7	Sololá	713	San Lucas Tolimán	10	San Lucas Tolimán	9	Septiembre	2023-09-15T00:00:00	2024-11-08T03:00:00	6	Velocidad del viento	1.6
147598	7	Sololá	713	San Lucas Tolimán	10	San Lucas Tolimán	9	Septiembre	2023-09-15T00:00:00	2024-11-08T03:00:00	7	Dirección del viento	1.61
147599	7	Sololá	713	San Lucas Tolimán	10	San Lucas Tolimán	9	Septiembre	2023-09-15T00:00:00	2024-11-08T03:00:00	1	Precipitación	0
147600	7	Sololá	713	San Lucas Tolimán	10	San Lucas Tolimán	9	Septiembre	2023-09-15T00:00:00	2024-11-08T03:00:00	8	Radiación solar	0
147601	7	Sololá	713	San Lucas Tolimán	10	San Lucas Tolimán	9	Septiembre	2023-09-15T00:00:00	2024-11-08T04:00:00	2	Temperatura media	17.2
147602	7	Sololá	713	San Lucas Tolimán	10	San Lucas Tolimán	9	Septiembre	2023-09-15T00:00:00	2024-11-08T04:00:00	4	Temperatura máxima	17.2
147603	7	Sololá	713	San Lucas Tolimán	10	San Lucas Tolimán	9	Septiembre	2023-09-15T00:00:00	2024-11-08T04:00:00	3	Temperatura mínima	16.9
147604	7	Sololá	713	San Lucas Tolimán	10	San Lucas Tolimán	9	Septiembre	2023-09-15T00:00:00	2024-11-08T04:00:00	5	Humedad	62
147605	7	Sololá	713	San Lucas Tolimán	10	San Lucas Tolimán	9	Septiembre	2023-09-15T00:00:00	2024-11-08T04:00:00	6	Velocidad del viento	1.6
147606	7	Sololá	713	San Lucas Tolimán	10	San Lucas Tolimán	9	Septiembre	2023-09-15T00:00:00	2024-11-08T04:00:00	7	Dirección del viento	1.61
147607	7	Sololá	713	San Lucas Tolimán	10	San Lucas Tolimán	9	Septiembre	2023-09-15T00:00:00	2024-11-08T04:00:00	1	Precipitación	0
147608	7	Sololá	713	San Lucas Tolimán	10	San Lucas Tolimán	9	Septiembre	2023-09-15T00:00:00	2024-11-08T04:00:00	8	Radiación solar	0
147609	7	Sololá	713	San Lucas Tolimán	10	San Lucas Tolimán	9	Septiembre	2023-09-15T00:00:00	2024-11-08T05:00:00	2	Temperatura media	17.3
147610	7	Sololá	713	San Lucas Tolimán	10	San Lucas Tolimán	9	Septiembre	2023-09-15T00:00:00	2024-11-08T05:00:00	4	Temperatura máxima	17.3
147611	7	Sololá	713	San Lucas Tolimán	10	San Lucas Tolimán	9	Septiembre	2023-09-15T00:00:00	2024-11-08T05:00:00	3	Temperatura mínima	16.7
147612	7	Sololá	713	San Lucas Tolimán	10	San Lucas Tolimán	9	Septiembre	2023-09-15T00:00:00	2024-11-08T05:00:00	5	Humedad	62
147613	7	Sololá	713	San Lucas Tolimán	10	San Lucas Tolimán	9	Septiembre	2023-09-15T00:00:00	2024-11-08T05:00:00	6	Velocidad del viento	1.6
147614	7	Sololá	713	San Lucas Tolimán	10	San Lucas Tolimán	9	Septiembre	2023-09-15T00:00:00	2024-11-08T05:00:00	7	Dirección del viento	1.61
147615	7	Sololá	713	San Lucas Tolimán	10	San Lucas Tolimán	9	Septiembre	2023-09-15T00:00:00	2024-11-08T05:00:00	1	Precipitación	0
147616	7	Sololá	713	San Lucas Tolimán	10	San Lucas Tolimán	9	Septiembre	2023-09-15T00:00:00	2024-11-08T05:00:00	8	Radiación solar	0
147617	7	Sololá	713	San Lucas Tolimán	10	San Lucas Tolimán	9	Septiembre	2023-09-15T00:00:00	2024-11-08T06:00:00	2	Temperatura media	17.1
147618	7	Sololá	713	San Lucas Tolimán	10	San Lucas Tolimán	9	Septiembre	2023-09-15T00:00:00	2024-11-08T06:00:00	4	Temperatura máxima	17.6
147619	7	Sololá	713	San Lucas Tolimán	10	San Lucas Tolimán	9	Septiembre	2023-09-15T00:00:00	2024-11-08T06:00:00	3	Temperatura mínima	17.1
147620	7	Sololá	713	San Lucas Tolimán	10	San Lucas Tolimán	9	Septiembre	2023-09-15T00:00:00	2024-11-08T06:00:00	5	Humedad	64
147621	7	Sololá	713	San Lucas Tolimán	10	San Lucas Tolimán	9	Septiembre	2023-09-15T00:00:00	2024-11-08T06:00:00	6	Velocidad del viento	1.6
147622	7	Sololá	713	San Lucas Tolimán	10	San Lucas Tolimán	9	Septiembre	2023-09-15T00:00:00	2024-11-08T06:00:00	7	Dirección del viento	1.61
147623	7	Sololá	713	San Lucas Tolimán	10	San Lucas Tolimán	9	Septiembre	2023-09-15T00:00:00	2024-11-08T06:00:00	1	Precipitación	0
147624	7	Sololá	713	San Lucas Tolimán	10	San Lucas Tolimán	9	Septiembre	2023-09-15T00:00:00	2024-11-08T06:00:00	8	Radiación solar	0
147625	7	Sololá	713	San Lucas Tolimán	10	San Lucas Tolimán	9	Septiembre	2023-09-15T00:00:00	2024-11-08T07:00:00	2	Temperatura media	18.1
147626	7	Sololá	713	San Lucas Tolimán	10	San Lucas Tolimán	9	Septiembre	2023-09-15T00:00:00	2024-11-08T07:00:00	4	Temperatura máxima	18.1
147627	7	Sololá	713	San Lucas Tolimán	10	San Lucas Tolimán	9	Septiembre	2023-09-15T00:00:00	2024-11-08T07:00:00	3	Temperatura mínima	16.6
147628	7	Sololá	713	San Lucas Tolimán	10	San Lucas Tolimán	9	Septiembre	2023-09-15T00:00:00	2024-11-08T07:00:00	5	Humedad	64
147629	7	Sololá	713	San Lucas Tolimán	10	San Lucas Tolimán	9	Septiembre	2023-09-15T00:00:00	2024-11-08T07:00:00	6	Velocidad del viento	3.2
147630	7	Sololá	713	San Lucas Tolimán	10	San Lucas Tolimán	9	Septiembre	2023-09-15T00:00:00	2024-11-08T07:00:00	7	Dirección del viento	3.22
147631	7	Sololá	713	San Lucas Tolimán	10	San Lucas Tolimán	9	Septiembre	2023-09-15T00:00:00	2024-11-08T07:00:00	1	Precipitación	0
147632	7	Sololá	713	San Lucas Tolimán	10	San Lucas Tolimán	9	Septiembre	2023-09-15T00:00:00	2024-11-08T07:00:00	8	Radiación solar	49
147633	7	Sololá	713	San Lucas Tolimán	10	San Lucas Tolimán	9	Septiembre	2023-09-15T00:00:00	2024-11-08T08:00:00	2	Temperatura media	20.3
147634	7	Sololá	713	San Lucas Tolimán	10	San Lucas Tolimán	9	Septiembre	2023-09-15T00:00:00	2024-11-08T08:00:00	4	Temperatura máxima	20.3
147635	7	Sololá	713	San Lucas Tolimán	10	San Lucas Tolimán	9	Septiembre	2023-09-15T00:00:00	2024-11-08T08:00:00	3	Temperatura mínima	18.1
147636	7	Sololá	713	San Lucas Tolimán	10	San Lucas Tolimán	9	Septiembre	2023-09-15T00:00:00	2024-11-08T08:00:00	5	Humedad	59
147637	7	Sololá	713	San Lucas Tolimán	10	San Lucas Tolimán	9	Septiembre	2023-09-15T00:00:00	2024-11-08T08:00:00	6	Velocidad del viento	3.2
147638	7	Sololá	713	San Lucas Tolimán	10	San Lucas Tolimán	9	Septiembre	2023-09-15T00:00:00	2024-11-08T08:00:00	7	Dirección del viento	3.22
147639	7	Sololá	713	San Lucas Tolimán	10	San Lucas Tolimán	9	Septiembre	2023-09-15T00:00:00	2024-11-08T08:00:00	1	Precipitación	0
147640	7	Sololá	713	San Lucas Tolimán	10	San Lucas Tolimán	9	Septiembre	2023-09-15T00:00:00	2024-11-08T08:00:00	8	Radiación solar	209
147641	7	Sololá	713	San Lucas Tolimán	10	San Lucas Tolimán	9	Septiembre	2023-09-15T00:00:00	2024-11-08T09:00:00	2	Temperatura media	22.7
147642	7	Sololá	713	San Lucas Tolimán	10	San Lucas Tolimán	9	Septiembre	2023-09-15T00:00:00	2024-11-08T09:00:00	4	Temperatura máxima	23.1
147643	7	Sololá	713	San Lucas Tolimán	10	San Lucas Tolimán	9	Septiembre	2023-09-15T00:00:00	2024-11-08T09:00:00	3	Temperatura mínima	20.3
147644	7	Sololá	713	San Lucas Tolimán	10	San Lucas Tolimán	9	Septiembre	2023-09-15T00:00:00	2024-11-08T09:00:00	5	Humedad	52
147645	7	Sololá	713	San Lucas Tolimán	10	San Lucas Tolimán	9	Septiembre	2023-09-15T00:00:00	2024-11-08T09:00:00	6	Velocidad del viento	3.2
147646	7	Sololá	713	San Lucas Tolimán	10	San Lucas Tolimán	9	Septiembre	2023-09-15T00:00:00	2024-11-08T09:00:00	7	Dirección del viento	3.22
147647	7	Sololá	713	San Lucas Tolimán	10	San Lucas Tolimán	9	Septiembre	2023-09-15T00:00:00	2024-11-08T09:00:00	1	Precipitación	0
147648	7	Sololá	713	San Lucas Tolimán	10	San Lucas Tolimán	9	Septiembre	2023-09-15T00:00:00	2024-11-08T09:00:00	8	Radiación solar	540
147649	7	Sololá	713	San Lucas Tolimán	10	San Lucas Tolimán	9	Septiembre	2023-09-15T00:00:00	2024-11-08T10:00:00	2	Temperatura media	24.3
147650	7	Sololá	713	San Lucas Tolimán	10	San Lucas Tolimán	9	Septiembre	2023-09-15T00:00:00	2024-11-08T10:00:00	4	Temperatura máxima	24.3
147651	7	Sololá	713	San Lucas Tolimán	10	San Lucas Tolimán	9	Septiembre	2023-09-15T00:00:00	2024-11-08T10:00:00	3	Temperatura mínima	22.7
147652	7	Sololá	713	San Lucas Tolimán	10	San Lucas Tolimán	9	Septiembre	2023-09-15T00:00:00	2024-11-08T10:00:00	5	Humedad	56
147653	7	Sololá	713	San Lucas Tolimán	10	San Lucas Tolimán	9	Septiembre	2023-09-15T00:00:00	2024-11-08T10:00:00	6	Velocidad del viento	4.8
147654	7	Sololá	713	San Lucas Tolimán	10	San Lucas Tolimán	9	Septiembre	2023-09-15T00:00:00	2024-11-08T10:00:00	7	Dirección del viento	4.83
147655	7	Sololá	713	San Lucas Tolimán	10	San Lucas Tolimán	9	Septiembre	2023-09-15T00:00:00	2024-11-08T10:00:00	1	Precipitación	0
147656	7	Sololá	713	San Lucas Tolimán	10	San Lucas Tolimán	9	Septiembre	2023-09-15T00:00:00	2024-11-08T10:00:00	8	Radiación solar	850
147657	7	Sololá	713	San Lucas Tolimán	10	San Lucas Tolimán	9	Septiembre	2023-09-15T00:00:00	2024-11-08T11:00:00	2	Temperatura media	24
147658	7	Sololá	713	San Lucas Tolimán	10	San Lucas Tolimán	9	Septiembre	2023-09-15T00:00:00	2024-11-08T11:00:00	4	Temperatura máxima	24.7
147659	7	Sololá	713	San Lucas Tolimán	10	San Lucas Tolimán	9	Septiembre	2023-09-15T00:00:00	2024-11-08T11:00:00	3	Temperatura mínima	23.9
147660	7	Sololá	713	San Lucas Tolimán	10	San Lucas Tolimán	9	Septiembre	2023-09-15T00:00:00	2024-11-08T11:00:00	5	Humedad	56
147661	7	Sololá	713	San Lucas Tolimán	10	San Lucas Tolimán	9	Septiembre	2023-09-15T00:00:00	2024-11-08T11:00:00	6	Velocidad del viento	8
147662	7	Sololá	713	San Lucas Tolimán	10	San Lucas Tolimán	9	Septiembre	2023-09-15T00:00:00	2024-11-08T11:00:00	7	Dirección del viento	8.05
147663	7	Sololá	713	San Lucas Tolimán	10	San Lucas Tolimán	9	Septiembre	2023-09-15T00:00:00	2024-11-08T11:00:00	1	Precipitación	0
147664	7	Sololá	713	San Lucas Tolimán	10	San Lucas Tolimán	9	Septiembre	2023-09-15T00:00:00	2024-11-08T11:00:00	8	Radiación solar	956
147665	7	Sololá	713	San Lucas Tolimán	10	San Lucas Tolimán	9	Septiembre	2023-09-15T00:00:00	2024-11-08T12:00:00	2	Temperatura media	24.2
147666	7	Sololá	713	San Lucas Tolimán	10	San Lucas Tolimán	9	Septiembre	2023-09-15T00:00:00	2024-11-08T12:00:00	4	Temperatura máxima	24.8
147667	7	Sololá	713	San Lucas Tolimán	10	San Lucas Tolimán	9	Septiembre	2023-09-15T00:00:00	2024-11-08T12:00:00	3	Temperatura mínima	23.3
147668	7	Sololá	713	San Lucas Tolimán	10	San Lucas Tolimán	9	Septiembre	2023-09-15T00:00:00	2024-11-08T12:00:00	5	Humedad	57
147669	7	Sololá	713	San Lucas Tolimán	10	San Lucas Tolimán	9	Septiembre	2023-09-15T00:00:00	2024-11-08T12:00:00	6	Velocidad del viento	11.3
147670	7	Sololá	713	San Lucas Tolimán	10	San Lucas Tolimán	9	Septiembre	2023-09-15T00:00:00	2024-11-08T12:00:00	7	Dirección del viento	11.27
147671	7	Sololá	713	San Lucas Tolimán	10	San Lucas Tolimán	9	Septiembre	2023-09-15T00:00:00	2024-11-08T12:00:00	1	Precipitación	0
147672	7	Sololá	713	San Lucas Tolimán	10	San Lucas Tolimán	9	Septiembre	2023-09-15T00:00:00	2024-11-08T12:00:00	8	Radiación solar	1078
147673	7	Sololá	713	San Lucas Tolimán	10	San Lucas Tolimán	9	Septiembre	2023-09-15T00:00:00	2024-11-08T13:00:00	2	Temperatura media	22.9
147674	7	Sololá	713	San Lucas Tolimán	10	San Lucas Tolimán	9	Septiembre	2023-09-15T00:00:00	2024-11-08T13:00:00	4	Temperatura máxima	24.2
147675	7	Sololá	713	San Lucas Tolimán	10	San Lucas Tolimán	9	Septiembre	2023-09-15T00:00:00	2024-11-08T13:00:00	3	Temperatura mínima	22.9
147676	7	Sololá	713	San Lucas Tolimán	10	San Lucas Tolimán	9	Septiembre	2023-09-15T00:00:00	2024-11-08T13:00:00	5	Humedad	61
147677	7	Sololá	713	San Lucas Tolimán	10	San Lucas Tolimán	9	Septiembre	2023-09-15T00:00:00	2024-11-08T13:00:00	6	Velocidad del viento	11.3
147678	7	Sololá	713	San Lucas Tolimán	10	San Lucas Tolimán	9	Septiembre	2023-09-15T00:00:00	2024-11-08T13:00:00	7	Dirección del viento	11.27
147679	7	Sololá	713	San Lucas Tolimán	10	San Lucas Tolimán	9	Septiembre	2023-09-15T00:00:00	2024-11-08T13:00:00	1	Precipitación	0
147680	7	Sololá	713	San Lucas Tolimán	10	San Lucas Tolimán	9	Septiembre	2023-09-15T00:00:00	2024-11-08T13:00:00	8	Radiación solar	869
147681	7	Sololá	713	San Lucas Tolimán	10	San Lucas Tolimán	9	Septiembre	2023-09-15T00:00:00	2024-11-08T14:00:00	2	Temperatura media	20.3
147682	7	Sololá	713	San Lucas Tolimán	10	San Lucas Tolimán	9	Septiembre	2023-09-15T00:00:00	2024-11-08T14:00:00	4	Temperatura máxima	24.5
147683	7	Sololá	713	San Lucas Tolimán	10	San Lucas Tolimán	9	Septiembre	2023-09-15T00:00:00	2024-11-08T14:00:00	3	Temperatura mínima	20.2
147684	7	Sololá	713	San Lucas Tolimán	10	San Lucas Tolimán	9	Septiembre	2023-09-15T00:00:00	2024-11-08T14:00:00	5	Humedad	63
147685	7	Sololá	713	San Lucas Tolimán	10	San Lucas Tolimán	9	Septiembre	2023-09-15T00:00:00	2024-11-08T14:00:00	6	Velocidad del viento	12.9
147686	7	Sololá	713	San Lucas Tolimán	10	San Lucas Tolimán	9	Septiembre	2023-09-15T00:00:00	2024-11-08T14:00:00	7	Dirección del viento	12.87
147687	7	Sololá	713	San Lucas Tolimán	10	San Lucas Tolimán	9	Septiembre	2023-09-15T00:00:00	2024-11-08T14:00:00	1	Precipitación	0
147688	7	Sololá	713	San Lucas Tolimán	10	San Lucas Tolimán	9	Septiembre	2023-09-15T00:00:00	2024-11-08T14:00:00	8	Radiación solar	702
147689	7	Sololá	713	San Lucas Tolimán	10	San Lucas Tolimán	9	Septiembre	2023-09-15T00:00:00	2024-11-08T15:00:00	2	Temperatura media	19.9
147690	7	Sololá	713	San Lucas Tolimán	10	San Lucas Tolimán	9	Septiembre	2023-09-15T00:00:00	2024-11-08T15:00:00	4	Temperatura máxima	21.7
147691	7	Sololá	713	San Lucas Tolimán	10	San Lucas Tolimán	9	Septiembre	2023-09-15T00:00:00	2024-11-08T15:00:00	3	Temperatura mínima	19.8
147692	7	Sololá	713	San Lucas Tolimán	10	San Lucas Tolimán	9	Septiembre	2023-09-15T00:00:00	2024-11-08T15:00:00	5	Humedad	63
147693	7	Sololá	713	San Lucas Tolimán	10	San Lucas Tolimán	9	Septiembre	2023-09-15T00:00:00	2024-11-08T15:00:00	6	Velocidad del viento	12.9
147694	7	Sololá	713	San Lucas Tolimán	10	San Lucas Tolimán	9	Septiembre	2023-09-15T00:00:00	2024-11-08T15:00:00	7	Dirección del viento	12.87
147695	7	Sololá	713	San Lucas Tolimán	10	San Lucas Tolimán	9	Septiembre	2023-09-15T00:00:00	2024-11-08T15:00:00	1	Precipitación	0
147696	7	Sololá	713	San Lucas Tolimán	10	San Lucas Tolimán	9	Septiembre	2023-09-15T00:00:00	2024-11-08T15:00:00	8	Radiación solar	290
147697	7	Sololá	713	San Lucas Tolimán	10	San Lucas Tolimán	9	Septiembre	2023-09-15T00:00:00	2024-11-08T16:00:00	2	Temperatura media	20.1
147698	7	Sololá	713	San Lucas Tolimán	10	San Lucas Tolimán	9	Septiembre	2023-09-15T00:00:00	2024-11-08T16:00:00	4	Temperatura máxima	20.1
147699	7	Sololá	713	San Lucas Tolimán	10	San Lucas Tolimán	9	Septiembre	2023-09-15T00:00:00	2024-11-08T16:00:00	3	Temperatura mínima	19.8
147700	7	Sololá	713	San Lucas Tolimán	10	San Lucas Tolimán	9	Septiembre	2023-09-15T00:00:00	2024-11-08T16:00:00	5	Humedad	62
147701	7	Sololá	713	San Lucas Tolimán	10	San Lucas Tolimán	9	Septiembre	2023-09-15T00:00:00	2024-11-08T16:00:00	6	Velocidad del viento	9.7
147702	7	Sololá	713	San Lucas Tolimán	10	San Lucas Tolimán	9	Septiembre	2023-09-15T00:00:00	2024-11-08T16:00:00	7	Dirección del viento	9.66
147703	7	Sololá	713	San Lucas Tolimán	10	San Lucas Tolimán	9	Septiembre	2023-09-15T00:00:00	2024-11-08T16:00:00	1	Precipitación	0
147704	7	Sololá	713	San Lucas Tolimán	10	San Lucas Tolimán	9	Septiembre	2023-09-15T00:00:00	2024-11-08T16:00:00	8	Radiación solar	186
147705	7	Sololá	713	San Lucas Tolimán	10	San Lucas Tolimán	9	Septiembre	2023-09-15T00:00:00	2024-11-08T17:00:00	2	Temperatura media	18.1
147706	7	Sololá	713	San Lucas Tolimán	10	San Lucas Tolimán	9	Septiembre	2023-09-15T00:00:00	2024-11-08T17:00:00	4	Temperatura máxima	20.2
147707	7	Sololá	713	San Lucas Tolimán	10	San Lucas Tolimán	9	Septiembre	2023-09-15T00:00:00	2024-11-08T17:00:00	3	Temperatura mínima	18.1
147708	7	Sololá	713	San Lucas Tolimán	10	San Lucas Tolimán	9	Septiembre	2023-09-15T00:00:00	2024-11-08T17:00:00	5	Humedad	68
147709	7	Sololá	713	San Lucas Tolimán	10	San Lucas Tolimán	9	Septiembre	2023-09-15T00:00:00	2024-11-08T17:00:00	6	Velocidad del viento	8
147710	7	Sololá	713	San Lucas Tolimán	10	San Lucas Tolimán	9	Septiembre	2023-09-15T00:00:00	2024-11-08T17:00:00	7	Dirección del viento	8.05
147711	7	Sololá	713	San Lucas Tolimán	10	San Lucas Tolimán	9	Septiembre	2023-09-15T00:00:00	2024-11-08T17:00:00	1	Precipitación	0
147712	7	Sololá	713	San Lucas Tolimán	10	San Lucas Tolimán	9	Septiembre	2023-09-15T00:00:00	2024-11-08T17:00:00	8	Radiación solar	51
147713	7	Sololá	713	San Lucas Tolimán	10	San Lucas Tolimán	9	Septiembre	2023-09-15T00:00:00	2024-11-08T18:00:00	2	Temperatura media	17.6
147714	7	Sololá	713	San Lucas Tolimán	10	San Lucas Tolimán	9	Septiembre	2023-09-15T00:00:00	2024-11-08T18:00:00	4	Temperatura máxima	18.1
147715	7	Sololá	713	San Lucas Tolimán	10	San Lucas Tolimán	9	Septiembre	2023-09-15T00:00:00	2024-11-08T18:00:00	3	Temperatura mínima	17.6
147716	7	Sololá	713	San Lucas Tolimán	10	San Lucas Tolimán	9	Septiembre	2023-09-15T00:00:00	2024-11-08T18:00:00	5	Humedad	68
147717	7	Sololá	713	San Lucas Tolimán	10	San Lucas Tolimán	9	Septiembre	2023-09-15T00:00:00	2024-11-08T18:00:00	6	Velocidad del viento	4.8
147718	7	Sololá	713	San Lucas Tolimán	10	San Lucas Tolimán	9	Septiembre	2023-09-15T00:00:00	2024-11-08T18:00:00	7	Dirección del viento	4.83
147719	7	Sololá	713	San Lucas Tolimán	10	San Lucas Tolimán	9	Septiembre	2023-09-15T00:00:00	2024-11-08T18:00:00	1	Precipitación	0
147720	7	Sololá	713	San Lucas Tolimán	10	San Lucas Tolimán	9	Septiembre	2023-09-15T00:00:00	2024-11-08T18:00:00	8	Radiación solar	22
147721	7	Sololá	713	San Lucas Tolimán	10	San Lucas Tolimán	9	Septiembre	2023-09-15T00:00:00	2024-11-08T19:00:00	2	Temperatura media	17.1
147722	7	Sololá	713	San Lucas Tolimán	10	San Lucas Tolimán	9	Septiembre	2023-09-15T00:00:00	2024-11-08T19:00:00	4	Temperatura máxima	17.6
147723	7	Sololá	713	San Lucas Tolimán	10	San Lucas Tolimán	9	Septiembre	2023-09-15T00:00:00	2024-11-08T19:00:00	3	Temperatura mínima	17.1
147724	7	Sololá	713	San Lucas Tolimán	10	San Lucas Tolimán	9	Septiembre	2023-09-15T00:00:00	2024-11-08T19:00:00	5	Humedad	68
147725	7	Sololá	713	San Lucas Tolimán	10	San Lucas Tolimán	9	Septiembre	2023-09-15T00:00:00	2024-11-08T19:00:00	6	Velocidad del viento	4.8
147726	7	Sololá	713	San Lucas Tolimán	10	San Lucas Tolimán	9	Septiembre	2023-09-15T00:00:00	2024-11-08T19:00:00	7	Dirección del viento	4.83
147727	7	Sololá	713	San Lucas Tolimán	10	San Lucas Tolimán	9	Septiembre	2023-09-15T00:00:00	2024-11-08T19:00:00	1	Precipitación	0
147728	7	Sololá	713	San Lucas Tolimán	10	San Lucas Tolimán	9	Septiembre	2023-09-15T00:00:00	2024-11-08T19:00:00	8	Radiación solar	0
147729	7	Sololá	713	San Lucas Tolimán	10	San Lucas Tolimán	9	Septiembre	2023-09-15T00:00:00	2024-11-08T20:00:00	2	Temperatura media	17
147730	7	Sololá	713	San Lucas Tolimán	10	San Lucas Tolimán	9	Septiembre	2023-09-15T00:00:00	2024-11-08T20:00:00	4	Temperatura máxima	17.1
147731	7	Sololá	713	San Lucas Tolimán	10	San Lucas Tolimán	9	Septiembre	2023-09-15T00:00:00	2024-11-08T20:00:00	3	Temperatura mínima	16.9
147732	7	Sololá	713	San Lucas Tolimán	10	San Lucas Tolimán	9	Septiembre	2023-09-15T00:00:00	2024-11-08T20:00:00	5	Humedad	69
147733	7	Sololá	713	San Lucas Tolimán	10	San Lucas Tolimán	9	Septiembre	2023-09-15T00:00:00	2024-11-08T20:00:00	6	Velocidad del viento	4.8
147734	7	Sololá	713	San Lucas Tolimán	10	San Lucas Tolimán	9	Septiembre	2023-09-15T00:00:00	2024-11-08T20:00:00	7	Dirección del viento	4.83
147735	7	Sololá	713	San Lucas Tolimán	10	San Lucas Tolimán	9	Septiembre	2023-09-15T00:00:00	2024-11-08T20:00:00	1	Precipitación	0
147736	7	Sololá	713	San Lucas Tolimán	10	San Lucas Tolimán	9	Septiembre	2023-09-15T00:00:00	2024-11-08T20:00:00	8	Radiación solar	0
147737	7	Sololá	713	San Lucas Tolimán	10	San Lucas Tolimán	9	Septiembre	2023-09-15T00:00:00	2024-11-08T21:00:00	2	Temperatura media	16.9
147738	7	Sololá	713	San Lucas Tolimán	10	San Lucas Tolimán	9	Septiembre	2023-09-15T00:00:00	2024-11-08T21:00:00	4	Temperatura máxima	17.1
147739	7	Sololá	713	San Lucas Tolimán	10	San Lucas Tolimán	9	Septiembre	2023-09-15T00:00:00	2024-11-08T21:00:00	3	Temperatura mínima	16.9
147740	7	Sololá	713	San Lucas Tolimán	10	San Lucas Tolimán	9	Septiembre	2023-09-15T00:00:00	2024-11-08T21:00:00	5	Humedad	68
147741	7	Sololá	713	San Lucas Tolimán	10	San Lucas Tolimán	9	Septiembre	2023-09-15T00:00:00	2024-11-08T21:00:00	6	Velocidad del viento	4.8
147742	7	Sololá	713	San Lucas Tolimán	10	San Lucas Tolimán	9	Septiembre	2023-09-15T00:00:00	2024-11-08T21:00:00	7	Dirección del viento	4.83
147743	7	Sololá	713	San Lucas Tolimán	10	San Lucas Tolimán	9	Septiembre	2023-09-15T00:00:00	2024-11-08T21:00:00	1	Precipitación	0
147744	7	Sololá	713	San Lucas Tolimán	10	San Lucas Tolimán	9	Septiembre	2023-09-15T00:00:00	2024-11-08T21:00:00	8	Radiación solar	0
147745	7	Sololá	713	San Lucas Tolimán	10	San Lucas Tolimán	9	Septiembre	2023-09-15T00:00:00	2024-11-08T22:00:00	2	Temperatura media	16.9
147746	7	Sololá	713	San Lucas Tolimán	10	San Lucas Tolimán	9	Septiembre	2023-09-15T00:00:00	2024-11-08T22:00:00	4	Temperatura máxima	16.9
147747	7	Sololá	713	San Lucas Tolimán	10	San Lucas Tolimán	9	Septiembre	2023-09-15T00:00:00	2024-11-08T22:00:00	3	Temperatura mínima	16.8
147748	7	Sololá	713	San Lucas Tolimán	10	San Lucas Tolimán	9	Septiembre	2023-09-15T00:00:00	2024-11-08T22:00:00	5	Humedad	66
147749	7	Sololá	713	San Lucas Tolimán	10	San Lucas Tolimán	9	Septiembre	2023-09-15T00:00:00	2024-11-08T22:00:00	6	Velocidad del viento	3.2
147750	7	Sololá	713	San Lucas Tolimán	10	San Lucas Tolimán	9	Septiembre	2023-09-15T00:00:00	2024-11-08T22:00:00	7	Dirección del viento	3.22
147751	7	Sololá	713	San Lucas Tolimán	10	San Lucas Tolimán	9	Septiembre	2023-09-15T00:00:00	2024-11-08T22:00:00	1	Precipitación	0
147752	7	Sololá	713	San Lucas Tolimán	10	San Lucas Tolimán	9	Septiembre	2023-09-15T00:00:00	2024-11-08T22:00:00	8	Radiación solar	0
147753	7	Sololá	713	San Lucas Tolimán	10	San Lucas Tolimán	9	Septiembre	2023-09-15T00:00:00	2024-11-08T23:00:00	2	Temperatura media	16.8
147754	7	Sololá	713	San Lucas Tolimán	10	San Lucas Tolimán	9	Septiembre	2023-09-15T00:00:00	2024-11-08T23:00:00	4	Temperatura máxima	17
147755	7	Sololá	713	San Lucas Tolimán	10	San Lucas Tolimán	9	Septiembre	2023-09-15T00:00:00	2024-11-08T23:00:00	3	Temperatura mínima	16.7
147756	7	Sololá	713	San Lucas Tolimán	10	San Lucas Tolimán	9	Septiembre	2023-09-15T00:00:00	2024-11-08T23:00:00	5	Humedad	65
147757	7	Sololá	713	San Lucas Tolimán	10	San Lucas Tolimán	9	Septiembre	2023-09-15T00:00:00	2024-11-08T23:00:00	6	Velocidad del viento	1.6
147758	7	Sololá	713	San Lucas Tolimán	10	San Lucas Tolimán	9	Septiembre	2023-09-15T00:00:00	2024-11-08T23:00:00	7	Dirección del viento	1.61
147759	7	Sololá	713	San Lucas Tolimán	10	San Lucas Tolimán	9	Septiembre	2023-09-15T00:00:00	2024-11-08T23:00:00	1	Precipitación	0
147760	7	Sololá	713	San Lucas Tolimán	10	San Lucas Tolimán	9	Septiembre	2023-09-15T00:00:00	2024-11-08T23:00:00	8	Radiación solar	0
147761	7	Sololá	713	San Lucas Tolimán	10	San Lucas Tolimán	9	Septiembre	2023-09-16T00:00:00	2024-11-08T00:00:00	2	Temperatura media	17
147762	7	Sololá	713	San Lucas Tolimán	10	San Lucas Tolimán	9	Septiembre	2023-09-16T00:00:00	2024-11-08T00:00:00	4	Temperatura máxima	17.1
147763	7	Sololá	713	San Lucas Tolimán	10	San Lucas Tolimán	9	Septiembre	2023-09-16T00:00:00	2024-11-08T00:00:00	3	Temperatura mínima	16.8
147764	7	Sololá	713	San Lucas Tolimán	10	San Lucas Tolimán	9	Septiembre	2023-09-16T00:00:00	2024-11-08T00:00:00	5	Humedad	66
147765	7	Sololá	713	San Lucas Tolimán	10	San Lucas Tolimán	9	Septiembre	2023-09-16T00:00:00	2024-11-08T00:00:00	6	Velocidad del viento	1.6
147766	7	Sololá	713	San Lucas Tolimán	10	San Lucas Tolimán	9	Septiembre	2023-09-16T00:00:00	2024-11-08T00:00:00	7	Dirección del viento	1.61
147767	7	Sololá	713	San Lucas Tolimán	10	San Lucas Tolimán	9	Septiembre	2023-09-16T00:00:00	2024-11-08T00:00:00	1	Precipitación	0
147768	7	Sololá	713	San Lucas Tolimán	10	San Lucas Tolimán	9	Septiembre	2023-09-16T00:00:00	2024-11-08T00:00:00	8	Radiación solar	0
147769	7	Sololá	713	San Lucas Tolimán	10	San Lucas Tolimán	9	Septiembre	2023-09-16T00:00:00	2024-11-08T01:00:00	2	Temperatura media	16.3
147770	7	Sololá	713	San Lucas Tolimán	10	San Lucas Tolimán	9	Septiembre	2023-09-16T00:00:00	2024-11-08T01:00:00	4	Temperatura máxima	17.1
147771	7	Sololá	713	San Lucas Tolimán	10	San Lucas Tolimán	9	Septiembre	2023-09-16T00:00:00	2024-11-08T01:00:00	3	Temperatura mínima	16.3
147772	7	Sololá	713	San Lucas Tolimán	10	San Lucas Tolimán	9	Septiembre	2023-09-16T00:00:00	2024-11-08T01:00:00	5	Humedad	66
147773	7	Sololá	713	San Lucas Tolimán	10	San Lucas Tolimán	9	Septiembre	2023-09-16T00:00:00	2024-11-08T01:00:00	6	Velocidad del viento	1.6
147774	7	Sololá	713	San Lucas Tolimán	10	San Lucas Tolimán	9	Septiembre	2023-09-16T00:00:00	2024-11-08T01:00:00	7	Dirección del viento	1.61
147775	7	Sololá	713	San Lucas Tolimán	10	San Lucas Tolimán	9	Septiembre	2023-09-16T00:00:00	2024-11-08T01:00:00	1	Precipitación	0
147776	7	Sololá	713	San Lucas Tolimán	10	San Lucas Tolimán	9	Septiembre	2023-09-16T00:00:00	2024-11-08T01:00:00	8	Radiación solar	0
147777	7	Sololá	713	San Lucas Tolimán	10	San Lucas Tolimán	9	Septiembre	2023-09-16T00:00:00	2024-11-08T02:00:00	2	Temperatura media	16.6
147778	7	Sololá	713	San Lucas Tolimán	10	San Lucas Tolimán	9	Septiembre	2023-09-16T00:00:00	2024-11-08T02:00:00	4	Temperatura máxima	16.6
147779	7	Sololá	713	San Lucas Tolimán	10	San Lucas Tolimán	9	Septiembre	2023-09-16T00:00:00	2024-11-08T02:00:00	3	Temperatura mínima	15.8
147780	7	Sololá	713	San Lucas Tolimán	10	San Lucas Tolimán	9	Septiembre	2023-09-16T00:00:00	2024-11-08T02:00:00	5	Humedad	63
147781	7	Sololá	713	San Lucas Tolimán	10	San Lucas Tolimán	9	Septiembre	2023-09-16T00:00:00	2024-11-08T02:00:00	6	Velocidad del viento	3.2
147782	7	Sololá	713	San Lucas Tolimán	10	San Lucas Tolimán	9	Septiembre	2023-09-16T00:00:00	2024-11-08T02:00:00	7	Dirección del viento	3.22
147783	7	Sololá	713	San Lucas Tolimán	10	San Lucas Tolimán	9	Septiembre	2023-09-16T00:00:00	2024-11-08T02:00:00	1	Precipitación	0
147784	7	Sololá	713	San Lucas Tolimán	10	San Lucas Tolimán	9	Septiembre	2023-09-16T00:00:00	2024-11-08T02:00:00	8	Radiación solar	0
147785	7	Sololá	713	San Lucas Tolimán	10	San Lucas Tolimán	9	Septiembre	2023-09-16T00:00:00	2024-11-08T03:00:00	2	Temperatura media	17.3
147786	7	Sololá	713	San Lucas Tolimán	10	San Lucas Tolimán	9	Septiembre	2023-09-16T00:00:00	2024-11-08T03:00:00	4	Temperatura máxima	18
147787	7	Sololá	713	San Lucas Tolimán	10	San Lucas Tolimán	9	Septiembre	2023-09-16T00:00:00	2024-11-08T03:00:00	3	Temperatura mínima	16.6
147788	7	Sololá	713	San Lucas Tolimán	10	San Lucas Tolimán	9	Septiembre	2023-09-16T00:00:00	2024-11-08T03:00:00	5	Humedad	59
147789	7	Sololá	713	San Lucas Tolimán	10	San Lucas Tolimán	9	Septiembre	2023-09-16T00:00:00	2024-11-08T03:00:00	6	Velocidad del viento	3.2
147790	7	Sololá	713	San Lucas Tolimán	10	San Lucas Tolimán	9	Septiembre	2023-09-16T00:00:00	2024-11-08T03:00:00	7	Dirección del viento	3.22
147791	7	Sololá	713	San Lucas Tolimán	10	San Lucas Tolimán	9	Septiembre	2023-09-16T00:00:00	2024-11-08T03:00:00	1	Precipitación	0
147792	7	Sololá	713	San Lucas Tolimán	10	San Lucas Tolimán	9	Septiembre	2023-09-16T00:00:00	2024-11-08T03:00:00	8	Radiación solar	0
147793	7	Sololá	713	San Lucas Tolimán	10	San Lucas Tolimán	9	Septiembre	2023-09-16T00:00:00	2024-11-08T04:00:00	2	Temperatura media	17.1
147794	7	Sololá	713	San Lucas Tolimán	10	San Lucas Tolimán	9	Septiembre	2023-09-16T00:00:00	2024-11-08T04:00:00	4	Temperatura máxima	17.5
147795	7	Sololá	713	San Lucas Tolimán	10	San Lucas Tolimán	9	Septiembre	2023-09-16T00:00:00	2024-11-08T04:00:00	3	Temperatura mínima	17.1
147796	7	Sololá	713	San Lucas Tolimán	10	San Lucas Tolimán	9	Septiembre	2023-09-16T00:00:00	2024-11-08T04:00:00	5	Humedad	61
147797	7	Sololá	713	San Lucas Tolimán	10	San Lucas Tolimán	9	Septiembre	2023-09-16T00:00:00	2024-11-08T04:00:00	6	Velocidad del viento	1.6
147798	7	Sololá	713	San Lucas Tolimán	10	San Lucas Tolimán	9	Septiembre	2023-09-16T00:00:00	2024-11-08T04:00:00	7	Dirección del viento	1.61
147799	7	Sololá	713	San Lucas Tolimán	10	San Lucas Tolimán	9	Septiembre	2023-09-16T00:00:00	2024-11-08T04:00:00	1	Precipitación	0
147800	7	Sololá	713	San Lucas Tolimán	10	San Lucas Tolimán	9	Septiembre	2023-09-16T00:00:00	2024-11-08T04:00:00	8	Radiación solar	0
147801	7	Sololá	713	San Lucas Tolimán	10	San Lucas Tolimán	9	Septiembre	2023-09-16T00:00:00	2024-11-08T05:00:00	2	Temperatura media	16.6
147802	7	Sololá	713	San Lucas Tolimán	10	San Lucas Tolimán	9	Septiembre	2023-09-16T00:00:00	2024-11-08T05:00:00	4	Temperatura máxima	17.1
147803	7	Sololá	713	San Lucas Tolimán	10	San Lucas Tolimán	9	Septiembre	2023-09-16T00:00:00	2024-11-08T05:00:00	3	Temperatura mínima	16.5
147804	7	Sololá	713	San Lucas Tolimán	10	San Lucas Tolimán	9	Septiembre	2023-09-16T00:00:00	2024-11-08T05:00:00	5	Humedad	61
147805	7	Sololá	713	San Lucas Tolimán	10	San Lucas Tolimán	9	Septiembre	2023-09-16T00:00:00	2024-11-08T05:00:00	6	Velocidad del viento	1.6
147806	7	Sololá	713	San Lucas Tolimán	10	San Lucas Tolimán	9	Septiembre	2023-09-16T00:00:00	2024-11-08T05:00:00	7	Dirección del viento	1.61
147807	7	Sololá	713	San Lucas Tolimán	10	San Lucas Tolimán	9	Septiembre	2023-09-16T00:00:00	2024-11-08T05:00:00	1	Precipitación	0
147808	7	Sololá	713	San Lucas Tolimán	10	San Lucas Tolimán	9	Septiembre	2023-09-16T00:00:00	2024-11-08T05:00:00	8	Radiación solar	0
147809	7	Sololá	713	San Lucas Tolimán	10	San Lucas Tolimán	9	Septiembre	2023-09-16T00:00:00	2024-11-08T06:00:00	2	Temperatura media	16.7
147810	7	Sololá	713	San Lucas Tolimán	10	San Lucas Tolimán	9	Septiembre	2023-09-16T00:00:00	2024-11-08T06:00:00	4	Temperatura máxima	16.9
147811	7	Sololá	713	San Lucas Tolimán	10	San Lucas Tolimán	9	Septiembre	2023-09-16T00:00:00	2024-11-08T06:00:00	3	Temperatura mínima	16.2
147812	7	Sololá	713	San Lucas Tolimán	10	San Lucas Tolimán	9	Septiembre	2023-09-16T00:00:00	2024-11-08T06:00:00	5	Humedad	60
147813	7	Sololá	713	San Lucas Tolimán	10	San Lucas Tolimán	9	Septiembre	2023-09-16T00:00:00	2024-11-08T06:00:00	6	Velocidad del viento	0
147814	7	Sololá	713	San Lucas Tolimán	10	San Lucas Tolimán	9	Septiembre	2023-09-16T00:00:00	2024-11-08T06:00:00	7	Dirección del viento	0
147815	7	Sololá	713	San Lucas Tolimán	10	San Lucas Tolimán	9	Septiembre	2023-09-16T00:00:00	2024-11-08T06:00:00	1	Precipitación	0
147816	7	Sololá	713	San Lucas Tolimán	10	San Lucas Tolimán	9	Septiembre	2023-09-16T00:00:00	2024-11-08T06:00:00	8	Radiación solar	0
147817	7	Sololá	713	San Lucas Tolimán	10	San Lucas Tolimán	9	Septiembre	2023-09-16T00:00:00	2024-11-08T07:00:00	2	Temperatura media	17.7
147818	7	Sololá	713	San Lucas Tolimán	10	San Lucas Tolimán	9	Septiembre	2023-09-16T00:00:00	2024-11-08T07:00:00	4	Temperatura máxima	17.7
147819	7	Sololá	713	San Lucas Tolimán	10	San Lucas Tolimán	9	Septiembre	2023-09-16T00:00:00	2024-11-08T07:00:00	3	Temperatura mínima	16.6
147820	7	Sololá	713	San Lucas Tolimán	10	San Lucas Tolimán	9	Septiembre	2023-09-16T00:00:00	2024-11-08T07:00:00	5	Humedad	58
147821	7	Sololá	713	San Lucas Tolimán	10	San Lucas Tolimán	9	Septiembre	2023-09-16T00:00:00	2024-11-08T07:00:00	6	Velocidad del viento	1.6
147822	7	Sololá	713	San Lucas Tolimán	10	San Lucas Tolimán	9	Septiembre	2023-09-16T00:00:00	2024-11-08T07:00:00	7	Dirección del viento	1.61
147823	7	Sololá	713	San Lucas Tolimán	10	San Lucas Tolimán	9	Septiembre	2023-09-16T00:00:00	2024-11-08T07:00:00	1	Precipitación	0
147824	7	Sololá	713	San Lucas Tolimán	10	San Lucas Tolimán	9	Septiembre	2023-09-16T00:00:00	2024-11-08T07:00:00	8	Radiación solar	27
147825	7	Sololá	713	San Lucas Tolimán	10	San Lucas Tolimán	9	Septiembre	2023-09-16T00:00:00	2024-11-08T08:00:00	2	Temperatura media	20.8
147826	7	Sololá	713	San Lucas Tolimán	10	San Lucas Tolimán	9	Septiembre	2023-09-16T00:00:00	2024-11-08T08:00:00	4	Temperatura máxima	20.8
147827	7	Sololá	713	San Lucas Tolimán	10	San Lucas Tolimán	9	Septiembre	2023-09-16T00:00:00	2024-11-08T08:00:00	3	Temperatura mínima	17.7
147828	7	Sololá	713	San Lucas Tolimán	10	San Lucas Tolimán	9	Septiembre	2023-09-16T00:00:00	2024-11-08T08:00:00	5	Humedad	48
147829	7	Sololá	713	San Lucas Tolimán	10	San Lucas Tolimán	9	Septiembre	2023-09-16T00:00:00	2024-11-08T08:00:00	6	Velocidad del viento	1.6
147830	7	Sololá	713	San Lucas Tolimán	10	San Lucas Tolimán	9	Septiembre	2023-09-16T00:00:00	2024-11-08T08:00:00	7	Dirección del viento	1.61
147831	7	Sololá	713	San Lucas Tolimán	10	San Lucas Tolimán	9	Septiembre	2023-09-16T00:00:00	2024-11-08T08:00:00	1	Precipitación	0
147832	7	Sololá	713	San Lucas Tolimán	10	San Lucas Tolimán	9	Septiembre	2023-09-16T00:00:00	2024-11-08T08:00:00	8	Radiación solar	322
147833	7	Sololá	713	San Lucas Tolimán	10	San Lucas Tolimán	9	Septiembre	2023-09-16T00:00:00	2024-11-08T09:00:00	2	Temperatura media	22.7
147834	7	Sololá	713	San Lucas Tolimán	10	San Lucas Tolimán	9	Septiembre	2023-09-16T00:00:00	2024-11-08T09:00:00	4	Temperatura máxima	22.7
147835	7	Sololá	713	San Lucas Tolimán	10	San Lucas Tolimán	9	Septiembre	2023-09-16T00:00:00	2024-11-08T09:00:00	3	Temperatura mínima	20.8
147836	7	Sololá	713	San Lucas Tolimán	10	San Lucas Tolimán	9	Septiembre	2023-09-16T00:00:00	2024-11-08T09:00:00	5	Humedad	43
147837	7	Sololá	713	San Lucas Tolimán	10	San Lucas Tolimán	9	Septiembre	2023-09-16T00:00:00	2024-11-08T09:00:00	6	Velocidad del viento	4.8
147838	7	Sololá	713	San Lucas Tolimán	10	San Lucas Tolimán	9	Septiembre	2023-09-16T00:00:00	2024-11-08T09:00:00	7	Dirección del viento	4.83
147839	7	Sololá	713	San Lucas Tolimán	10	San Lucas Tolimán	9	Septiembre	2023-09-16T00:00:00	2024-11-08T09:00:00	1	Precipitación	0
147840	7	Sololá	713	San Lucas Tolimán	10	San Lucas Tolimán	9	Septiembre	2023-09-16T00:00:00	2024-11-08T09:00:00	8	Radiación solar	563
147841	7	Sololá	713	San Lucas Tolimán	10	San Lucas Tolimán	9	Septiembre	2023-09-16T00:00:00	2024-11-08T10:00:00	2	Temperatura media	24.6
147842	7	Sololá	713	San Lucas Tolimán	10	San Lucas Tolimán	9	Septiembre	2023-09-16T00:00:00	2024-11-08T10:00:00	4	Temperatura máxima	24.6
147843	7	Sololá	713	San Lucas Tolimán	10	San Lucas Tolimán	9	Septiembre	2023-09-16T00:00:00	2024-11-08T10:00:00	3	Temperatura mínima	22.7
147844	7	Sololá	713	San Lucas Tolimán	10	San Lucas Tolimán	9	Septiembre	2023-09-16T00:00:00	2024-11-08T10:00:00	5	Humedad	44
147845	7	Sololá	713	San Lucas Tolimán	10	San Lucas Tolimán	9	Septiembre	2023-09-16T00:00:00	2024-11-08T10:00:00	6	Velocidad del viento	4.8
147846	7	Sololá	713	San Lucas Tolimán	10	San Lucas Tolimán	9	Septiembre	2023-09-16T00:00:00	2024-11-08T10:00:00	7	Dirección del viento	4.83
147847	7	Sololá	713	San Lucas Tolimán	10	San Lucas Tolimán	9	Septiembre	2023-09-16T00:00:00	2024-11-08T10:00:00	1	Precipitación	0
147848	7	Sololá	713	San Lucas Tolimán	10	San Lucas Tolimán	9	Septiembre	2023-09-16T00:00:00	2024-11-08T10:00:00	8	Radiación solar	766
147849	7	Sololá	713	San Lucas Tolimán	10	San Lucas Tolimán	9	Septiembre	2023-09-16T00:00:00	2024-11-08T11:00:00	2	Temperatura media	23.9
147850	7	Sololá	713	San Lucas Tolimán	10	San Lucas Tolimán	9	Septiembre	2023-09-16T00:00:00	2024-11-08T11:00:00	4	Temperatura máxima	25
147851	7	Sololá	713	San Lucas Tolimán	10	San Lucas Tolimán	9	Septiembre	2023-09-16T00:00:00	2024-11-08T11:00:00	3	Temperatura mínima	23.2
147852	7	Sololá	713	San Lucas Tolimán	10	San Lucas Tolimán	9	Septiembre	2023-09-16T00:00:00	2024-11-08T11:00:00	5	Humedad	56
147853	7	Sololá	713	San Lucas Tolimán	10	San Lucas Tolimán	9	Septiembre	2023-09-16T00:00:00	2024-11-08T11:00:00	6	Velocidad del viento	9.7
147854	7	Sololá	713	San Lucas Tolimán	10	San Lucas Tolimán	9	Septiembre	2023-09-16T00:00:00	2024-11-08T11:00:00	7	Dirección del viento	9.66
147855	7	Sololá	713	San Lucas Tolimán	10	San Lucas Tolimán	9	Septiembre	2023-09-16T00:00:00	2024-11-08T11:00:00	1	Precipitación	0
147856	7	Sololá	713	San Lucas Tolimán	10	San Lucas Tolimán	9	Septiembre	2023-09-16T00:00:00	2024-11-08T11:00:00	8	Radiación solar	869
147857	7	Sololá	713	San Lucas Tolimán	10	San Lucas Tolimán	9	Septiembre	2023-09-16T00:00:00	2024-11-08T12:00:00	2	Temperatura media	24.2
147858	7	Sololá	713	San Lucas Tolimán	10	San Lucas Tolimán	9	Septiembre	2023-09-16T00:00:00	2024-11-08T12:00:00	4	Temperatura máxima	24.7
147859	7	Sololá	713	San Lucas Tolimán	10	San Lucas Tolimán	9	Septiembre	2023-09-16T00:00:00	2024-11-08T12:00:00	3	Temperatura mínima	23.6
147860	7	Sololá	713	San Lucas Tolimán	10	San Lucas Tolimán	9	Septiembre	2023-09-16T00:00:00	2024-11-08T12:00:00	5	Humedad	58
147861	7	Sololá	713	San Lucas Tolimán	10	San Lucas Tolimán	9	Septiembre	2023-09-16T00:00:00	2024-11-08T12:00:00	6	Velocidad del viento	11.3
147862	7	Sololá	713	San Lucas Tolimán	10	San Lucas Tolimán	9	Septiembre	2023-09-16T00:00:00	2024-11-08T12:00:00	7	Dirección del viento	11.27
147863	7	Sololá	713	San Lucas Tolimán	10	San Lucas Tolimán	9	Septiembre	2023-09-16T00:00:00	2024-11-08T12:00:00	1	Precipitación	0
147864	7	Sololá	713	San Lucas Tolimán	10	San Lucas Tolimán	9	Septiembre	2023-09-16T00:00:00	2024-11-08T12:00:00	8	Radiación solar	1098
147865	7	Sololá	713	San Lucas Tolimán	10	San Lucas Tolimán	9	Septiembre	2023-09-16T00:00:00	2024-11-08T13:00:00	2	Temperatura media	25.3
147866	7	Sololá	713	San Lucas Tolimán	10	San Lucas Tolimán	9	Septiembre	2023-09-16T00:00:00	2024-11-08T13:00:00	4	Temperatura máxima	25.3
147867	7	Sololá	713	San Lucas Tolimán	10	San Lucas Tolimán	9	Septiembre	2023-09-16T00:00:00	2024-11-08T13:00:00	3	Temperatura mínima	23.9
147868	7	Sololá	713	San Lucas Tolimán	10	San Lucas Tolimán	9	Septiembre	2023-09-16T00:00:00	2024-11-08T13:00:00	5	Humedad	56
147869	7	Sololá	713	San Lucas Tolimán	10	San Lucas Tolimán	9	Septiembre	2023-09-16T00:00:00	2024-11-08T13:00:00	6	Velocidad del viento	11.3
147870	7	Sololá	713	San Lucas Tolimán	10	San Lucas Tolimán	9	Septiembre	2023-09-16T00:00:00	2024-11-08T13:00:00	7	Dirección del viento	11.27
147871	7	Sololá	713	San Lucas Tolimán	10	San Lucas Tolimán	9	Septiembre	2023-09-16T00:00:00	2024-11-08T13:00:00	1	Precipitación	0
147872	7	Sololá	713	San Lucas Tolimán	10	San Lucas Tolimán	9	Septiembre	2023-09-16T00:00:00	2024-11-08T13:00:00	8	Radiación solar	1128
147873	7	Sololá	713	San Lucas Tolimán	10	San Lucas Tolimán	9	Septiembre	2023-09-16T00:00:00	2024-11-08T14:00:00	2	Temperatura media	24.6
147874	7	Sololá	713	San Lucas Tolimán	10	San Lucas Tolimán	9	Septiembre	2023-09-16T00:00:00	2024-11-08T14:00:00	4	Temperatura máxima	25.3
147875	7	Sololá	713	San Lucas Tolimán	10	San Lucas Tolimán	9	Septiembre	2023-09-16T00:00:00	2024-11-08T14:00:00	3	Temperatura mínima	24.4
147876	7	Sololá	713	San Lucas Tolimán	10	San Lucas Tolimán	9	Septiembre	2023-09-16T00:00:00	2024-11-08T14:00:00	5	Humedad	58
147877	7	Sololá	713	San Lucas Tolimán	10	San Lucas Tolimán	9	Septiembre	2023-09-16T00:00:00	2024-11-08T14:00:00	6	Velocidad del viento	12.9
147878	7	Sololá	713	San Lucas Tolimán	10	San Lucas Tolimán	9	Septiembre	2023-09-16T00:00:00	2024-11-08T14:00:00	7	Dirección del viento	12.87
147879	7	Sololá	713	San Lucas Tolimán	10	San Lucas Tolimán	9	Septiembre	2023-09-16T00:00:00	2024-11-08T14:00:00	1	Precipitación	0
147880	7	Sololá	713	San Lucas Tolimán	10	San Lucas Tolimán	9	Septiembre	2023-09-16T00:00:00	2024-11-08T14:00:00	8	Radiación solar	1016
147881	7	Sololá	713	San Lucas Tolimán	10	San Lucas Tolimán	9	Septiembre	2023-09-16T00:00:00	2024-11-08T15:00:00	2	Temperatura media	24.1
147882	7	Sololá	713	San Lucas Tolimán	10	San Lucas Tolimán	9	Septiembre	2023-09-16T00:00:00	2024-11-08T15:00:00	4	Temperatura máxima	24.9
147883	7	Sololá	713	San Lucas Tolimán	10	San Lucas Tolimán	9	Septiembre	2023-09-16T00:00:00	2024-11-08T15:00:00	3	Temperatura mínima	23.8
147884	7	Sololá	713	San Lucas Tolimán	10	San Lucas Tolimán	9	Septiembre	2023-09-16T00:00:00	2024-11-08T15:00:00	5	Humedad	58
147885	7	Sololá	713	San Lucas Tolimán	10	San Lucas Tolimán	9	Septiembre	2023-09-16T00:00:00	2024-11-08T15:00:00	6	Velocidad del viento	12.9
147886	7	Sololá	713	San Lucas Tolimán	10	San Lucas Tolimán	9	Septiembre	2023-09-16T00:00:00	2024-11-08T15:00:00	7	Dirección del viento	12.87
147887	7	Sololá	713	San Lucas Tolimán	10	San Lucas Tolimán	9	Septiembre	2023-09-16T00:00:00	2024-11-08T15:00:00	1	Precipitación	0
147888	7	Sololá	713	San Lucas Tolimán	10	San Lucas Tolimán	9	Septiembre	2023-09-16T00:00:00	2024-11-08T15:00:00	8	Radiación solar	912
147889	7	Sololá	713	San Lucas Tolimán	10	San Lucas Tolimán	9	Septiembre	2023-09-16T00:00:00	2024-11-08T16:00:00	2	Temperatura media	23.7
147890	7	Sololá	713	San Lucas Tolimán	10	San Lucas Tolimán	9	Septiembre	2023-09-16T00:00:00	2024-11-08T16:00:00	4	Temperatura máxima	24.2
147891	7	Sololá	713	San Lucas Tolimán	10	San Lucas Tolimán	9	Septiembre	2023-09-16T00:00:00	2024-11-08T16:00:00	3	Temperatura mínima	23
147892	7	Sololá	713	San Lucas Tolimán	10	San Lucas Tolimán	9	Septiembre	2023-09-16T00:00:00	2024-11-08T16:00:00	5	Humedad	60
147893	7	Sololá	713	San Lucas Tolimán	10	San Lucas Tolimán	9	Septiembre	2023-09-16T00:00:00	2024-11-08T16:00:00	6	Velocidad del viento	11.3
147894	7	Sololá	713	San Lucas Tolimán	10	San Lucas Tolimán	9	Septiembre	2023-09-16T00:00:00	2024-11-08T16:00:00	7	Dirección del viento	11.27
147895	7	Sololá	713	San Lucas Tolimán	10	San Lucas Tolimán	9	Septiembre	2023-09-16T00:00:00	2024-11-08T16:00:00	1	Precipitación	0
147896	7	Sololá	713	San Lucas Tolimán	10	San Lucas Tolimán	9	Septiembre	2023-09-16T00:00:00	2024-11-08T16:00:00	8	Radiación solar	543
147897	7	Sololá	713	San Lucas Tolimán	10	San Lucas Tolimán	9	Septiembre	2023-09-16T00:00:00	2024-11-08T17:00:00	2	Temperatura media	22.3
147898	7	Sololá	713	San Lucas Tolimán	10	San Lucas Tolimán	9	Septiembre	2023-09-16T00:00:00	2024-11-08T17:00:00	4	Temperatura máxima	23.6
147899	7	Sololá	713	San Lucas Tolimán	10	San Lucas Tolimán	9	Septiembre	2023-09-16T00:00:00	2024-11-08T17:00:00	3	Temperatura mínima	22.2
147900	7	Sololá	713	San Lucas Tolimán	10	San Lucas Tolimán	9	Septiembre	2023-09-16T00:00:00	2024-11-08T17:00:00	5	Humedad	59
147901	7	Sololá	713	San Lucas Tolimán	10	San Lucas Tolimán	9	Septiembre	2023-09-16T00:00:00	2024-11-08T17:00:00	6	Velocidad del viento	11.3
147902	7	Sololá	713	San Lucas Tolimán	10	San Lucas Tolimán	9	Septiembre	2023-09-16T00:00:00	2024-11-08T17:00:00	7	Dirección del viento	11.27
147903	7	Sololá	713	San Lucas Tolimán	10	San Lucas Tolimán	9	Septiembre	2023-09-16T00:00:00	2024-11-08T17:00:00	1	Precipitación	0
147904	7	Sololá	713	San Lucas Tolimán	10	San Lucas Tolimán	9	Septiembre	2023-09-16T00:00:00	2024-11-08T17:00:00	8	Radiación solar	268
147905	7	Sololá	713	San Lucas Tolimán	10	San Lucas Tolimán	9	Septiembre	2023-09-16T00:00:00	2024-11-08T18:00:00	2	Temperatura media	20.6
147906	7	Sololá	713	San Lucas Tolimán	10	San Lucas Tolimán	9	Septiembre	2023-09-16T00:00:00	2024-11-08T18:00:00	4	Temperatura máxima	22.2
147907	7	Sololá	713	San Lucas Tolimán	10	San Lucas Tolimán	9	Septiembre	2023-09-16T00:00:00	2024-11-08T18:00:00	3	Temperatura mínima	20.6
147908	7	Sololá	713	San Lucas Tolimán	10	San Lucas Tolimán	9	Septiembre	2023-09-16T00:00:00	2024-11-08T18:00:00	5	Humedad	59
147909	7	Sololá	713	San Lucas Tolimán	10	San Lucas Tolimán	9	Septiembre	2023-09-16T00:00:00	2024-11-08T18:00:00	6	Velocidad del viento	9.7
147910	7	Sololá	713	San Lucas Tolimán	10	San Lucas Tolimán	9	Septiembre	2023-09-16T00:00:00	2024-11-08T18:00:00	7	Dirección del viento	9.66
147911	7	Sololá	713	San Lucas Tolimán	10	San Lucas Tolimán	9	Septiembre	2023-09-16T00:00:00	2024-11-08T18:00:00	1	Precipitación	0
147912	7	Sololá	713	San Lucas Tolimán	10	San Lucas Tolimán	9	Septiembre	2023-09-16T00:00:00	2024-11-08T18:00:00	8	Radiación solar	42
147913	7	Sololá	713	San Lucas Tolimán	10	San Lucas Tolimán	9	Septiembre	2023-09-16T00:00:00	2024-11-08T19:00:00	2	Temperatura media	20.2
147914	7	Sololá	713	San Lucas Tolimán	10	San Lucas Tolimán	9	Septiembre	2023-09-16T00:00:00	2024-11-08T19:00:00	4	Temperatura máxima	20.8
147915	7	Sololá	713	San Lucas Tolimán	10	San Lucas Tolimán	9	Septiembre	2023-09-16T00:00:00	2024-11-08T19:00:00	3	Temperatura mínima	20.2
147916	7	Sololá	713	San Lucas Tolimán	10	San Lucas Tolimán	9	Septiembre	2023-09-16T00:00:00	2024-11-08T19:00:00	5	Humedad	60
147917	7	Sololá	713	San Lucas Tolimán	10	San Lucas Tolimán	9	Septiembre	2023-09-16T00:00:00	2024-11-08T19:00:00	6	Velocidad del viento	8
147918	7	Sololá	713	San Lucas Tolimán	10	San Lucas Tolimán	9	Septiembre	2023-09-16T00:00:00	2024-11-08T19:00:00	7	Dirección del viento	8.05
147919	7	Sololá	713	San Lucas Tolimán	10	San Lucas Tolimán	9	Septiembre	2023-09-16T00:00:00	2024-11-08T19:00:00	1	Precipitación	0
147920	7	Sololá	713	San Lucas Tolimán	10	San Lucas Tolimán	9	Septiembre	2023-09-16T00:00:00	2024-11-08T19:00:00	8	Radiación solar	0
147921	7	Sololá	713	San Lucas Tolimán	10	San Lucas Tolimán	9	Septiembre	2023-09-16T00:00:00	2024-11-08T20:00:00	2	Temperatura media	20.2
147922	7	Sololá	713	San Lucas Tolimán	10	San Lucas Tolimán	9	Septiembre	2023-09-16T00:00:00	2024-11-08T20:00:00	4	Temperatura máxima	20.4
147923	7	Sololá	713	San Lucas Tolimán	10	San Lucas Tolimán	9	Septiembre	2023-09-16T00:00:00	2024-11-08T20:00:00	3	Temperatura mínima	20.1
147924	7	Sololá	713	San Lucas Tolimán	10	San Lucas Tolimán	9	Septiembre	2023-09-16T00:00:00	2024-11-08T20:00:00	5	Humedad	57
147925	7	Sololá	713	San Lucas Tolimán	10	San Lucas Tolimán	9	Septiembre	2023-09-16T00:00:00	2024-11-08T20:00:00	6	Velocidad del viento	3.2
147926	7	Sololá	713	San Lucas Tolimán	10	San Lucas Tolimán	9	Septiembre	2023-09-16T00:00:00	2024-11-08T20:00:00	7	Dirección del viento	3.22
147927	7	Sololá	713	San Lucas Tolimán	10	San Lucas Tolimán	9	Septiembre	2023-09-16T00:00:00	2024-11-08T20:00:00	1	Precipitación	0
147928	7	Sololá	713	San Lucas Tolimán	10	San Lucas Tolimán	9	Septiembre	2023-09-16T00:00:00	2024-11-08T20:00:00	8	Radiación solar	0
147929	7	Sololá	713	San Lucas Tolimán	10	San Lucas Tolimán	9	Septiembre	2023-09-16T00:00:00	2024-11-08T21:00:00	2	Temperatura media	20.3
147930	7	Sololá	713	San Lucas Tolimán	10	San Lucas Tolimán	9	Septiembre	2023-09-16T00:00:00	2024-11-08T21:00:00	4	Temperatura máxima	20.8
147931	7	Sololá	713	San Lucas Tolimán	10	San Lucas Tolimán	9	Septiembre	2023-09-16T00:00:00	2024-11-08T21:00:00	3	Temperatura mínima	20.1
147932	7	Sololá	713	San Lucas Tolimán	10	San Lucas Tolimán	9	Septiembre	2023-09-16T00:00:00	2024-11-08T21:00:00	5	Humedad	57
147933	7	Sololá	713	San Lucas Tolimán	10	San Lucas Tolimán	9	Septiembre	2023-09-16T00:00:00	2024-11-08T21:00:00	6	Velocidad del viento	3.2
147934	7	Sololá	713	San Lucas Tolimán	10	San Lucas Tolimán	9	Septiembre	2023-09-16T00:00:00	2024-11-08T21:00:00	7	Dirección del viento	3.22
147935	7	Sololá	713	San Lucas Tolimán	10	San Lucas Tolimán	9	Septiembre	2023-09-16T00:00:00	2024-11-08T21:00:00	1	Precipitación	0
147936	7	Sololá	713	San Lucas Tolimán	10	San Lucas Tolimán	9	Septiembre	2023-09-16T00:00:00	2024-11-08T21:00:00	8	Radiación solar	0
147937	7	Sololá	713	San Lucas Tolimán	10	San Lucas Tolimán	9	Septiembre	2023-09-16T00:00:00	2024-11-08T22:00:00	2	Temperatura media	21.2
147938	7	Sololá	713	San Lucas Tolimán	10	San Lucas Tolimán	9	Septiembre	2023-09-16T00:00:00	2024-11-08T22:00:00	4	Temperatura máxima	21.2
147939	7	Sololá	713	San Lucas Tolimán	10	San Lucas Tolimán	9	Septiembre	2023-09-16T00:00:00	2024-11-08T22:00:00	3	Temperatura mínima	19.7
147940	7	Sololá	713	San Lucas Tolimán	10	San Lucas Tolimán	9	Septiembre	2023-09-16T00:00:00	2024-11-08T22:00:00	5	Humedad	54
147941	7	Sololá	713	San Lucas Tolimán	10	San Lucas Tolimán	9	Septiembre	2023-09-16T00:00:00	2024-11-08T22:00:00	6	Velocidad del viento	4.8
147942	7	Sololá	713	San Lucas Tolimán	10	San Lucas Tolimán	9	Septiembre	2023-09-16T00:00:00	2024-11-08T22:00:00	7	Dirección del viento	4.83
147943	7	Sololá	713	San Lucas Tolimán	10	San Lucas Tolimán	9	Septiembre	2023-09-16T00:00:00	2024-11-08T22:00:00	1	Precipitación	0
147944	7	Sololá	713	San Lucas Tolimán	10	San Lucas Tolimán	9	Septiembre	2023-09-16T00:00:00	2024-11-08T22:00:00	8	Radiación solar	0
147945	7	Sololá	713	San Lucas Tolimán	10	San Lucas Tolimán	9	Septiembre	2023-09-16T00:00:00	2024-11-08T23:00:00	2	Temperatura media	20.8
147946	7	Sololá	713	San Lucas Tolimán	10	San Lucas Tolimán	9	Septiembre	2023-09-16T00:00:00	2024-11-08T23:00:00	4	Temperatura máxima	21.2
147947	7	Sololá	713	San Lucas Tolimán	10	San Lucas Tolimán	9	Septiembre	2023-09-16T00:00:00	2024-11-08T23:00:00	3	Temperatura mínima	20.4
147948	7	Sololá	713	San Lucas Tolimán	10	San Lucas Tolimán	9	Septiembre	2023-09-16T00:00:00	2024-11-08T23:00:00	5	Humedad	54
147949	7	Sololá	713	San Lucas Tolimán	10	San Lucas Tolimán	9	Septiembre	2023-09-16T00:00:00	2024-11-08T23:00:00	6	Velocidad del viento	8
147950	7	Sololá	713	San Lucas Tolimán	10	San Lucas Tolimán	9	Septiembre	2023-09-16T00:00:00	2024-11-08T23:00:00	7	Dirección del viento	8.05
147951	7	Sololá	713	San Lucas Tolimán	10	San Lucas Tolimán	9	Septiembre	2023-09-16T00:00:00	2024-11-08T23:00:00	1	Precipitación	0
147952	7	Sololá	713	San Lucas Tolimán	10	San Lucas Tolimán	9	Septiembre	2023-09-16T00:00:00	2024-11-08T23:00:00	8	Radiación solar	0
147953	7	Sololá	713	San Lucas Tolimán	10	San Lucas Tolimán	9	Septiembre	2023-09-17T00:00:00	2024-11-08T00:00:00	2	Temperatura media	19.4
147954	7	Sololá	713	San Lucas Tolimán	10	San Lucas Tolimán	9	Septiembre	2023-09-17T00:00:00	2024-11-08T00:00:00	4	Temperatura máxima	20.9
147955	7	Sololá	713	San Lucas Tolimán	10	San Lucas Tolimán	9	Septiembre	2023-09-17T00:00:00	2024-11-08T00:00:00	3	Temperatura mínima	19.4
147956	7	Sololá	713	San Lucas Tolimán	10	San Lucas Tolimán	9	Septiembre	2023-09-17T00:00:00	2024-11-08T00:00:00	5	Humedad	58
147957	7	Sololá	713	San Lucas Tolimán	10	San Lucas Tolimán	9	Septiembre	2023-09-17T00:00:00	2024-11-08T00:00:00	6	Velocidad del viento	3.2
147958	7	Sololá	713	San Lucas Tolimán	10	San Lucas Tolimán	9	Septiembre	2023-09-17T00:00:00	2024-11-08T00:00:00	7	Dirección del viento	3.22
147959	7	Sololá	713	San Lucas Tolimán	10	San Lucas Tolimán	9	Septiembre	2023-09-17T00:00:00	2024-11-08T00:00:00	1	Precipitación	0
147960	7	Sololá	713	San Lucas Tolimán	10	San Lucas Tolimán	9	Septiembre	2023-09-17T00:00:00	2024-11-08T00:00:00	8	Radiación solar	0
147961	7	Sololá	713	San Lucas Tolimán	10	San Lucas Tolimán	9	Septiembre	2023-09-17T00:00:00	2024-11-08T01:00:00	2	Temperatura media	19.9
147962	7	Sololá	713	San Lucas Tolimán	10	San Lucas Tolimán	9	Septiembre	2023-09-17T00:00:00	2024-11-08T01:00:00	4	Temperatura máxima	20.2
147963	7	Sololá	713	San Lucas Tolimán	10	San Lucas Tolimán	9	Septiembre	2023-09-17T00:00:00	2024-11-08T01:00:00	3	Temperatura mínima	18.1
147964	7	Sololá	713	San Lucas Tolimán	10	San Lucas Tolimán	9	Septiembre	2023-09-17T00:00:00	2024-11-08T01:00:00	5	Humedad	54
147965	7	Sololá	713	San Lucas Tolimán	10	San Lucas Tolimán	9	Septiembre	2023-09-17T00:00:00	2024-11-08T01:00:00	6	Velocidad del viento	6.4
147966	7	Sololá	713	San Lucas Tolimán	10	San Lucas Tolimán	9	Septiembre	2023-09-17T00:00:00	2024-11-08T01:00:00	7	Dirección del viento	6.44
147967	7	Sololá	713	San Lucas Tolimán	10	San Lucas Tolimán	9	Septiembre	2023-09-17T00:00:00	2024-11-08T01:00:00	1	Precipitación	0
147968	7	Sololá	713	San Lucas Tolimán	10	San Lucas Tolimán	9	Septiembre	2023-09-17T00:00:00	2024-11-08T01:00:00	8	Radiación solar	0
147969	7	Sololá	713	San Lucas Tolimán	10	San Lucas Tolimán	9	Septiembre	2023-09-17T00:00:00	2024-11-08T02:00:00	2	Temperatura media	18.3
147970	7	Sololá	713	San Lucas Tolimán	10	San Lucas Tolimán	9	Septiembre	2023-09-17T00:00:00	2024-11-08T02:00:00	4	Temperatura máxima	20
147971	7	Sololá	713	San Lucas Tolimán	10	San Lucas Tolimán	9	Septiembre	2023-09-17T00:00:00	2024-11-08T02:00:00	3	Temperatura mínima	18.3
147972	7	Sololá	713	San Lucas Tolimán	10	San Lucas Tolimán	9	Septiembre	2023-09-17T00:00:00	2024-11-08T02:00:00	5	Humedad	60
147973	7	Sololá	713	San Lucas Tolimán	10	San Lucas Tolimán	9	Septiembre	2023-09-17T00:00:00	2024-11-08T02:00:00	6	Velocidad del viento	1.6
147974	7	Sololá	713	San Lucas Tolimán	10	San Lucas Tolimán	9	Septiembre	2023-09-17T00:00:00	2024-11-08T02:00:00	7	Dirección del viento	1.61
147975	7	Sololá	713	San Lucas Tolimán	10	San Lucas Tolimán	9	Septiembre	2023-09-17T00:00:00	2024-11-08T02:00:00	1	Precipitación	0
147976	7	Sololá	713	San Lucas Tolimán	10	San Lucas Tolimán	9	Septiembre	2023-09-17T00:00:00	2024-11-08T02:00:00	8	Radiación solar	0
147977	7	Sololá	713	San Lucas Tolimán	10	San Lucas Tolimán	9	Septiembre	2023-09-17T00:00:00	2024-11-08T03:00:00	2	Temperatura media	18.6
147978	7	Sololá	713	San Lucas Tolimán	10	San Lucas Tolimán	9	Septiembre	2023-09-17T00:00:00	2024-11-08T03:00:00	4	Temperatura máxima	18.8
147979	7	Sololá	713	San Lucas Tolimán	10	San Lucas Tolimán	9	Septiembre	2023-09-17T00:00:00	2024-11-08T03:00:00	3	Temperatura mínima	18.1
147980	7	Sololá	713	San Lucas Tolimán	10	San Lucas Tolimán	9	Septiembre	2023-09-17T00:00:00	2024-11-08T03:00:00	5	Humedad	57
147981	7	Sololá	713	San Lucas Tolimán	10	San Lucas Tolimán	9	Septiembre	2023-09-17T00:00:00	2024-11-08T03:00:00	6	Velocidad del viento	1.6
147982	7	Sololá	713	San Lucas Tolimán	10	San Lucas Tolimán	9	Septiembre	2023-09-17T00:00:00	2024-11-08T03:00:00	7	Dirección del viento	1.61
147983	7	Sololá	713	San Lucas Tolimán	10	San Lucas Tolimán	9	Septiembre	2023-09-17T00:00:00	2024-11-08T03:00:00	1	Precipitación	0
147984	7	Sololá	713	San Lucas Tolimán	10	San Lucas Tolimán	9	Septiembre	2023-09-17T00:00:00	2024-11-08T03:00:00	8	Radiación solar	0
147985	7	Sololá	713	San Lucas Tolimán	10	San Lucas Tolimán	9	Septiembre	2023-09-17T00:00:00	2024-11-08T04:00:00	2	Temperatura media	17.7
147986	7	Sololá	713	San Lucas Tolimán	10	San Lucas Tolimán	9	Septiembre	2023-09-17T00:00:00	2024-11-08T04:00:00	4	Temperatura máxima	18.7
147987	7	Sololá	713	San Lucas Tolimán	10	San Lucas Tolimán	9	Septiembre	2023-09-17T00:00:00	2024-11-08T04:00:00	3	Temperatura mínima	17.7
147988	7	Sololá	713	San Lucas Tolimán	10	San Lucas Tolimán	9	Septiembre	2023-09-17T00:00:00	2024-11-08T04:00:00	5	Humedad	59
147989	7	Sololá	713	San Lucas Tolimán	10	San Lucas Tolimán	9	Septiembre	2023-09-17T00:00:00	2024-11-08T04:00:00	6	Velocidad del viento	1.6
147990	7	Sololá	713	San Lucas Tolimán	10	San Lucas Tolimán	9	Septiembre	2023-09-17T00:00:00	2024-11-08T04:00:00	7	Dirección del viento	1.61
147991	7	Sololá	713	San Lucas Tolimán	10	San Lucas Tolimán	9	Septiembre	2023-09-17T00:00:00	2024-11-08T04:00:00	1	Precipitación	0
147992	7	Sololá	713	San Lucas Tolimán	10	San Lucas Tolimán	9	Septiembre	2023-09-17T00:00:00	2024-11-08T04:00:00	8	Radiación solar	0
147993	7	Sololá	713	San Lucas Tolimán	10	San Lucas Tolimán	9	Septiembre	2023-09-17T00:00:00	2024-11-08T05:00:00	2	Temperatura media	15.9
147994	7	Sololá	713	San Lucas Tolimán	10	San Lucas Tolimán	9	Septiembre	2023-09-17T00:00:00	2024-11-08T05:00:00	4	Temperatura máxima	17.7
147995	7	Sololá	713	San Lucas Tolimán	10	San Lucas Tolimán	9	Septiembre	2023-09-17T00:00:00	2024-11-08T05:00:00	3	Temperatura mínima	15.9
147996	7	Sololá	713	San Lucas Tolimán	10	San Lucas Tolimán	9	Septiembre	2023-09-17T00:00:00	2024-11-08T05:00:00	5	Humedad	62
147997	7	Sololá	713	San Lucas Tolimán	10	San Lucas Tolimán	9	Septiembre	2023-09-17T00:00:00	2024-11-08T05:00:00	6	Velocidad del viento	3.2
147998	7	Sololá	713	San Lucas Tolimán	10	San Lucas Tolimán	9	Septiembre	2023-09-17T00:00:00	2024-11-08T05:00:00	7	Dirección del viento	3.22
147999	7	Sololá	713	San Lucas Tolimán	10	San Lucas Tolimán	9	Septiembre	2023-09-17T00:00:00	2024-11-08T05:00:00	1	Precipitación	0
148000	7	Sololá	713	San Lucas Tolimán	10	San Lucas Tolimán	9	Septiembre	2023-09-17T00:00:00	2024-11-08T05:00:00	8	Radiación solar	0
148001	7	Sololá	713	San Lucas Tolimán	10	San Lucas Tolimán	9	Septiembre	2023-09-17T00:00:00	2024-11-08T06:00:00	2	Temperatura media	16.1
148002	7	Sololá	713	San Lucas Tolimán	10	San Lucas Tolimán	9	Septiembre	2023-09-17T00:00:00	2024-11-08T06:00:00	4	Temperatura máxima	16.1
148003	7	Sololá	713	San Lucas Tolimán	10	San Lucas Tolimán	9	Septiembre	2023-09-17T00:00:00	2024-11-08T06:00:00	3	Temperatura mínima	15.6
148004	7	Sololá	713	San Lucas Tolimán	10	San Lucas Tolimán	9	Septiembre	2023-09-17T00:00:00	2024-11-08T06:00:00	5	Humedad	61
148005	7	Sololá	713	San Lucas Tolimán	10	San Lucas Tolimán	9	Septiembre	2023-09-17T00:00:00	2024-11-08T06:00:00	6	Velocidad del viento	1.6
148006	7	Sololá	713	San Lucas Tolimán	10	San Lucas Tolimán	9	Septiembre	2023-09-17T00:00:00	2024-11-08T06:00:00	7	Dirección del viento	1.61
148007	7	Sololá	713	San Lucas Tolimán	10	San Lucas Tolimán	9	Septiembre	2023-09-17T00:00:00	2024-11-08T06:00:00	1	Precipitación	0
148008	7	Sololá	713	San Lucas Tolimán	10	San Lucas Tolimán	9	Septiembre	2023-09-17T00:00:00	2024-11-08T06:00:00	8	Radiación solar	0
148009	7	Sololá	713	San Lucas Tolimán	10	San Lucas Tolimán	9	Septiembre	2023-09-17T00:00:00	2024-11-08T07:00:00	2	Temperatura media	17.6
148010	7	Sololá	713	San Lucas Tolimán	10	San Lucas Tolimán	9	Septiembre	2023-09-17T00:00:00	2024-11-08T07:00:00	4	Temperatura máxima	17.6
148011	7	Sololá	713	San Lucas Tolimán	10	San Lucas Tolimán	9	Septiembre	2023-09-17T00:00:00	2024-11-08T07:00:00	3	Temperatura mínima	15.9
148012	7	Sololá	713	San Lucas Tolimán	10	San Lucas Tolimán	9	Septiembre	2023-09-17T00:00:00	2024-11-08T07:00:00	5	Humedad	57
148013	7	Sololá	713	San Lucas Tolimán	10	San Lucas Tolimán	9	Septiembre	2023-09-17T00:00:00	2024-11-08T07:00:00	6	Velocidad del viento	3.2
148014	7	Sololá	713	San Lucas Tolimán	10	San Lucas Tolimán	9	Septiembre	2023-09-17T00:00:00	2024-11-08T07:00:00	7	Dirección del viento	3.22
148015	7	Sololá	713	San Lucas Tolimán	10	San Lucas Tolimán	9	Septiembre	2023-09-17T00:00:00	2024-11-08T07:00:00	1	Precipitación	0
148016	7	Sololá	713	San Lucas Tolimán	10	San Lucas Tolimán	9	Septiembre	2023-09-17T00:00:00	2024-11-08T07:00:00	8	Radiación solar	36
148017	7	Sololá	713	San Lucas Tolimán	10	San Lucas Tolimán	9	Septiembre	2023-09-17T00:00:00	2024-11-08T08:00:00	2	Temperatura media	19.1
148018	7	Sololá	713	San Lucas Tolimán	10	San Lucas Tolimán	9	Septiembre	2023-09-17T00:00:00	2024-11-08T08:00:00	4	Temperatura máxima	19.2
148019	7	Sololá	713	San Lucas Tolimán	10	San Lucas Tolimán	9	Septiembre	2023-09-17T00:00:00	2024-11-08T08:00:00	3	Temperatura mínima	17.6
148020	7	Sololá	713	San Lucas Tolimán	10	San Lucas Tolimán	9	Septiembre	2023-09-17T00:00:00	2024-11-08T08:00:00	5	Humedad	57
148021	7	Sololá	713	San Lucas Tolimán	10	San Lucas Tolimán	9	Septiembre	2023-09-17T00:00:00	2024-11-08T08:00:00	6	Velocidad del viento	1.6
148022	7	Sololá	713	San Lucas Tolimán	10	San Lucas Tolimán	9	Septiembre	2023-09-17T00:00:00	2024-11-08T08:00:00	7	Dirección del viento	1.61
148023	7	Sololá	713	San Lucas Tolimán	10	San Lucas Tolimán	9	Septiembre	2023-09-17T00:00:00	2024-11-08T08:00:00	1	Precipitación	0
148024	7	Sololá	713	San Lucas Tolimán	10	San Lucas Tolimán	9	Septiembre	2023-09-17T00:00:00	2024-11-08T08:00:00	8	Radiación solar	167
148025	7	Sololá	713	San Lucas Tolimán	10	San Lucas Tolimán	9	Septiembre	2023-09-17T00:00:00	2024-11-08T09:00:00	2	Temperatura media	23.1
148026	7	Sololá	713	San Lucas Tolimán	10	San Lucas Tolimán	9	Septiembre	2023-09-17T00:00:00	2024-11-08T09:00:00	4	Temperatura máxima	23.1
148027	7	Sololá	713	San Lucas Tolimán	10	San Lucas Tolimán	9	Septiembre	2023-09-17T00:00:00	2024-11-08T09:00:00	3	Temperatura mínima	19.1
148028	7	Sololá	713	San Lucas Tolimán	10	San Lucas Tolimán	9	Septiembre	2023-09-17T00:00:00	2024-11-08T09:00:00	5	Humedad	49
148029	7	Sololá	713	San Lucas Tolimán	10	San Lucas Tolimán	9	Septiembre	2023-09-17T00:00:00	2024-11-08T09:00:00	6	Velocidad del viento	3.2
148030	7	Sololá	713	San Lucas Tolimán	10	San Lucas Tolimán	9	Septiembre	2023-09-17T00:00:00	2024-11-08T09:00:00	7	Dirección del viento	3.22
148031	7	Sololá	713	San Lucas Tolimán	10	San Lucas Tolimán	9	Septiembre	2023-09-17T00:00:00	2024-11-08T09:00:00	1	Precipitación	0
148032	7	Sololá	713	San Lucas Tolimán	10	San Lucas Tolimán	9	Septiembre	2023-09-17T00:00:00	2024-11-08T09:00:00	8	Radiación solar	504
148033	7	Sololá	713	San Lucas Tolimán	10	San Lucas Tolimán	9	Septiembre	2023-09-17T00:00:00	2024-11-08T10:00:00	2	Temperatura media	23.8
148034	7	Sololá	713	San Lucas Tolimán	10	San Lucas Tolimán	9	Septiembre	2023-09-17T00:00:00	2024-11-08T10:00:00	4	Temperatura máxima	24.3
148035	7	Sololá	713	San Lucas Tolimán	10	San Lucas Tolimán	9	Septiembre	2023-09-17T00:00:00	2024-11-08T10:00:00	3	Temperatura mínima	23
148036	7	Sololá	713	San Lucas Tolimán	10	San Lucas Tolimán	9	Septiembre	2023-09-17T00:00:00	2024-11-08T10:00:00	5	Humedad	55
148037	7	Sololá	713	San Lucas Tolimán	10	San Lucas Tolimán	9	Septiembre	2023-09-17T00:00:00	2024-11-08T10:00:00	6	Velocidad del viento	4.8
148038	7	Sololá	713	San Lucas Tolimán	10	San Lucas Tolimán	9	Septiembre	2023-09-17T00:00:00	2024-11-08T10:00:00	7	Dirección del viento	4.83
148039	7	Sololá	713	San Lucas Tolimán	10	San Lucas Tolimán	9	Septiembre	2023-09-17T00:00:00	2024-11-08T10:00:00	1	Precipitación	0
148040	7	Sololá	713	San Lucas Tolimán	10	San Lucas Tolimán	9	Septiembre	2023-09-17T00:00:00	2024-11-08T10:00:00	8	Radiación solar	699
148041	7	Sololá	713	San Lucas Tolimán	10	San Lucas Tolimán	9	Septiembre	2023-09-17T00:00:00	2024-11-08T11:00:00	2	Temperatura media	23.8
148042	7	Sololá	713	San Lucas Tolimán	10	San Lucas Tolimán	9	Septiembre	2023-09-17T00:00:00	2024-11-08T11:00:00	4	Temperatura máxima	24.1
148043	7	Sololá	713	San Lucas Tolimán	10	San Lucas Tolimán	9	Septiembre	2023-09-17T00:00:00	2024-11-08T11:00:00	3	Temperatura mínima	23.1
148044	7	Sololá	713	San Lucas Tolimán	10	San Lucas Tolimán	9	Septiembre	2023-09-17T00:00:00	2024-11-08T11:00:00	5	Humedad	55
148045	7	Sololá	713	San Lucas Tolimán	10	San Lucas Tolimán	9	Septiembre	2023-09-17T00:00:00	2024-11-08T11:00:00	6	Velocidad del viento	9.7
148046	7	Sololá	713	San Lucas Tolimán	10	San Lucas Tolimán	9	Septiembre	2023-09-17T00:00:00	2024-11-08T11:00:00	7	Dirección del viento	9.66
148047	7	Sololá	713	San Lucas Tolimán	10	San Lucas Tolimán	9	Septiembre	2023-09-17T00:00:00	2024-11-08T11:00:00	1	Precipitación	0
148048	7	Sololá	713	San Lucas Tolimán	10	San Lucas Tolimán	9	Septiembre	2023-09-17T00:00:00	2024-11-08T11:00:00	8	Radiación solar	860
148049	7	Sololá	713	San Lucas Tolimán	10	San Lucas Tolimán	9	Septiembre	2023-09-17T00:00:00	2024-11-08T12:00:00	2	Temperatura media	24.2
148050	7	Sololá	713	San Lucas Tolimán	10	San Lucas Tolimán	9	Septiembre	2023-09-17T00:00:00	2024-11-08T12:00:00	4	Temperatura máxima	24.2
148051	7	Sololá	713	San Lucas Tolimán	10	San Lucas Tolimán	9	Septiembre	2023-09-17T00:00:00	2024-11-08T12:00:00	3	Temperatura mínima	23.6
148052	7	Sololá	713	San Lucas Tolimán	10	San Lucas Tolimán	9	Septiembre	2023-09-17T00:00:00	2024-11-08T12:00:00	5	Humedad	58
148053	7	Sololá	713	San Lucas Tolimán	10	San Lucas Tolimán	9	Septiembre	2023-09-17T00:00:00	2024-11-08T12:00:00	6	Velocidad del viento	11.3
148054	7	Sololá	713	San Lucas Tolimán	10	San Lucas Tolimán	9	Septiembre	2023-09-17T00:00:00	2024-11-08T12:00:00	7	Dirección del viento	11.27
148055	7	Sololá	713	San Lucas Tolimán	10	San Lucas Tolimán	9	Septiembre	2023-09-17T00:00:00	2024-11-08T12:00:00	1	Precipitación	0
148056	7	Sololá	713	San Lucas Tolimán	10	San Lucas Tolimán	9	Septiembre	2023-09-17T00:00:00	2024-11-08T12:00:00	8	Radiación solar	1020
148057	7	Sololá	713	San Lucas Tolimán	10	San Lucas Tolimán	9	Septiembre	2023-09-17T00:00:00	2024-11-08T13:00:00	2	Temperatura media	23.4
148058	7	Sololá	713	San Lucas Tolimán	10	San Lucas Tolimán	9	Septiembre	2023-09-17T00:00:00	2024-11-08T13:00:00	4	Temperatura máxima	24.2
148059	7	Sololá	713	San Lucas Tolimán	10	San Lucas Tolimán	9	Septiembre	2023-09-17T00:00:00	2024-11-08T13:00:00	3	Temperatura mínima	22.6
148060	7	Sololá	713	San Lucas Tolimán	10	San Lucas Tolimán	9	Septiembre	2023-09-17T00:00:00	2024-11-08T13:00:00	5	Humedad	58
148061	7	Sololá	713	San Lucas Tolimán	10	San Lucas Tolimán	9	Septiembre	2023-09-17T00:00:00	2024-11-08T13:00:00	6	Velocidad del viento	11.3
148062	7	Sololá	713	San Lucas Tolimán	10	San Lucas Tolimán	9	Septiembre	2023-09-17T00:00:00	2024-11-08T13:00:00	7	Dirección del viento	11.27
148063	7	Sololá	713	San Lucas Tolimán	10	San Lucas Tolimán	9	Septiembre	2023-09-17T00:00:00	2024-11-08T13:00:00	1	Precipitación	0
148064	7	Sololá	713	San Lucas Tolimán	10	San Lucas Tolimán	9	Septiembre	2023-09-17T00:00:00	2024-11-08T13:00:00	8	Radiación solar	920
148065	7	Sololá	713	San Lucas Tolimán	10	San Lucas Tolimán	9	Septiembre	2023-09-17T00:00:00	2024-11-08T14:00:00	2	Temperatura media	23.8
148066	7	Sololá	713	San Lucas Tolimán	10	San Lucas Tolimán	9	Septiembre	2023-09-17T00:00:00	2024-11-08T14:00:00	4	Temperatura máxima	23.8
148067	7	Sololá	713	San Lucas Tolimán	10	San Lucas Tolimán	9	Septiembre	2023-09-17T00:00:00	2024-11-08T14:00:00	3	Temperatura mínima	22.9
148068	7	Sololá	713	San Lucas Tolimán	10	San Lucas Tolimán	9	Septiembre	2023-09-17T00:00:00	2024-11-08T14:00:00	5	Humedad	59
148069	7	Sololá	713	San Lucas Tolimán	10	San Lucas Tolimán	9	Septiembre	2023-09-17T00:00:00	2024-11-08T14:00:00	6	Velocidad del viento	11.3
148070	7	Sololá	713	San Lucas Tolimán	10	San Lucas Tolimán	9	Septiembre	2023-09-17T00:00:00	2024-11-08T14:00:00	7	Dirección del viento	11.27
148071	7	Sololá	713	San Lucas Tolimán	10	San Lucas Tolimán	9	Septiembre	2023-09-17T00:00:00	2024-11-08T14:00:00	1	Precipitación	0
148072	7	Sololá	713	San Lucas Tolimán	10	San Lucas Tolimán	9	Septiembre	2023-09-17T00:00:00	2024-11-08T14:00:00	8	Radiación solar	921
148073	7	Sololá	713	San Lucas Tolimán	10	San Lucas Tolimán	9	Septiembre	2023-09-17T00:00:00	2024-11-08T15:00:00	2	Temperatura media	24.4
148074	7	Sololá	713	San Lucas Tolimán	10	San Lucas Tolimán	9	Septiembre	2023-09-17T00:00:00	2024-11-08T15:00:00	4	Temperatura máxima	24.4
148075	7	Sololá	713	San Lucas Tolimán	10	San Lucas Tolimán	9	Septiembre	2023-09-17T00:00:00	2024-11-08T15:00:00	3	Temperatura mínima	22.9
148076	7	Sololá	713	San Lucas Tolimán	10	San Lucas Tolimán	9	Septiembre	2023-09-17T00:00:00	2024-11-08T15:00:00	5	Humedad	58
148077	7	Sololá	713	San Lucas Tolimán	10	San Lucas Tolimán	9	Septiembre	2023-09-17T00:00:00	2024-11-08T15:00:00	6	Velocidad del viento	9.7
148078	7	Sololá	713	San Lucas Tolimán	10	San Lucas Tolimán	9	Septiembre	2023-09-17T00:00:00	2024-11-08T15:00:00	7	Dirección del viento	9.66
148079	7	Sololá	713	San Lucas Tolimán	10	San Lucas Tolimán	9	Septiembre	2023-09-17T00:00:00	2024-11-08T15:00:00	1	Precipitación	0
148080	7	Sololá	713	San Lucas Tolimán	10	San Lucas Tolimán	9	Septiembre	2023-09-17T00:00:00	2024-11-08T15:00:00	8	Radiación solar	732
148081	7	Sololá	713	San Lucas Tolimán	10	San Lucas Tolimán	9	Septiembre	2023-09-17T00:00:00	2024-11-08T16:00:00	2	Temperatura media	23
148082	7	Sololá	713	San Lucas Tolimán	10	San Lucas Tolimán	9	Septiembre	2023-09-17T00:00:00	2024-11-08T16:00:00	4	Temperatura máxima	24.5
148083	7	Sololá	713	San Lucas Tolimán	10	San Lucas Tolimán	9	Septiembre	2023-09-17T00:00:00	2024-11-08T16:00:00	3	Temperatura mínima	23
148084	7	Sololá	713	San Lucas Tolimán	10	San Lucas Tolimán	9	Septiembre	2023-09-17T00:00:00	2024-11-08T16:00:00	5	Humedad	62
148085	7	Sololá	713	San Lucas Tolimán	10	San Lucas Tolimán	9	Septiembre	2023-09-17T00:00:00	2024-11-08T16:00:00	6	Velocidad del viento	9.7
148086	7	Sololá	713	San Lucas Tolimán	10	San Lucas Tolimán	9	Septiembre	2023-09-17T00:00:00	2024-11-08T16:00:00	7	Dirección del viento	9.66
148087	7	Sololá	713	San Lucas Tolimán	10	San Lucas Tolimán	9	Septiembre	2023-09-17T00:00:00	2024-11-08T16:00:00	1	Precipitación	0
148088	7	Sololá	713	San Lucas Tolimán	10	San Lucas Tolimán	9	Septiembre	2023-09-17T00:00:00	2024-11-08T16:00:00	8	Radiación solar	623
148089	7	Sololá	713	San Lucas Tolimán	10	San Lucas Tolimán	9	Septiembre	2023-09-17T00:00:00	2024-11-08T17:00:00	2	Temperatura media	22.1
148090	7	Sololá	713	San Lucas Tolimán	10	San Lucas Tolimán	9	Septiembre	2023-09-17T00:00:00	2024-11-08T17:00:00	4	Temperatura máxima	23.1
148091	7	Sololá	713	San Lucas Tolimán	10	San Lucas Tolimán	9	Septiembre	2023-09-17T00:00:00	2024-11-08T17:00:00	3	Temperatura mínima	21.9
148092	7	Sololá	713	San Lucas Tolimán	10	San Lucas Tolimán	9	Septiembre	2023-09-17T00:00:00	2024-11-08T17:00:00	5	Humedad	60
148093	7	Sololá	713	San Lucas Tolimán	10	San Lucas Tolimán	9	Septiembre	2023-09-17T00:00:00	2024-11-08T17:00:00	6	Velocidad del viento	9.7
148094	7	Sololá	713	San Lucas Tolimán	10	San Lucas Tolimán	9	Septiembre	2023-09-17T00:00:00	2024-11-08T17:00:00	7	Dirección del viento	9.66
148095	7	Sololá	713	San Lucas Tolimán	10	San Lucas Tolimán	9	Septiembre	2023-09-17T00:00:00	2024-11-08T17:00:00	1	Precipitación	0
148096	7	Sololá	713	San Lucas Tolimán	10	San Lucas Tolimán	9	Septiembre	2023-09-17T00:00:00	2024-11-08T17:00:00	8	Radiación solar	246
148097	7	Sololá	713	San Lucas Tolimán	10	San Lucas Tolimán	9	Septiembre	2023-09-17T00:00:00	2024-11-08T18:00:00	2	Temperatura media	20.9
148098	7	Sololá	713	San Lucas Tolimán	10	San Lucas Tolimán	9	Septiembre	2023-09-17T00:00:00	2024-11-08T18:00:00	4	Temperatura máxima	22.2
148099	7	Sololá	713	San Lucas Tolimán	10	San Lucas Tolimán	9	Septiembre	2023-09-17T00:00:00	2024-11-08T18:00:00	3	Temperatura mínima	20.8
148100	7	Sololá	713	San Lucas Tolimán	10	San Lucas Tolimán	9	Septiembre	2023-09-17T00:00:00	2024-11-08T18:00:00	5	Humedad	59
148101	7	Sololá	713	San Lucas Tolimán	10	San Lucas Tolimán	9	Septiembre	2023-09-17T00:00:00	2024-11-08T18:00:00	6	Velocidad del viento	9.7
148102	7	Sololá	713	San Lucas Tolimán	10	San Lucas Tolimán	9	Septiembre	2023-09-17T00:00:00	2024-11-08T18:00:00	7	Dirección del viento	9.66
148103	7	Sololá	713	San Lucas Tolimán	10	San Lucas Tolimán	9	Septiembre	2023-09-17T00:00:00	2024-11-08T18:00:00	1	Precipitación	0
148104	7	Sololá	713	San Lucas Tolimán	10	San Lucas Tolimán	9	Septiembre	2023-09-17T00:00:00	2024-11-08T18:00:00	8	Radiación solar	27
148105	7	Sololá	713	San Lucas Tolimán	10	San Lucas Tolimán	9	Septiembre	2023-09-17T00:00:00	2024-11-08T19:00:00	2	Temperatura media	20.3
148106	7	Sololá	713	San Lucas Tolimán	10	San Lucas Tolimán	9	Septiembre	2023-09-17T00:00:00	2024-11-08T19:00:00	4	Temperatura máxima	20.9
148107	7	Sololá	713	San Lucas Tolimán	10	San Lucas Tolimán	9	Septiembre	2023-09-17T00:00:00	2024-11-08T19:00:00	3	Temperatura mínima	20.3
148108	7	Sololá	713	San Lucas Tolimán	10	San Lucas Tolimán	9	Septiembre	2023-09-17T00:00:00	2024-11-08T19:00:00	5	Humedad	61
148109	7	Sololá	713	San Lucas Tolimán	10	San Lucas Tolimán	9	Septiembre	2023-09-17T00:00:00	2024-11-08T19:00:00	6	Velocidad del viento	8
148110	7	Sololá	713	San Lucas Tolimán	10	San Lucas Tolimán	9	Septiembre	2023-09-17T00:00:00	2024-11-08T19:00:00	7	Dirección del viento	8.05
148111	7	Sololá	713	San Lucas Tolimán	10	San Lucas Tolimán	9	Septiembre	2023-09-17T00:00:00	2024-11-08T19:00:00	1	Precipitación	0
148112	7	Sololá	713	San Lucas Tolimán	10	San Lucas Tolimán	9	Septiembre	2023-09-17T00:00:00	2024-11-08T19:00:00	8	Radiación solar	0
148113	7	Sololá	713	San Lucas Tolimán	10	San Lucas Tolimán	9	Septiembre	2023-09-17T00:00:00	2024-11-08T20:00:00	2	Temperatura media	20.1
148114	7	Sololá	713	San Lucas Tolimán	10	San Lucas Tolimán	9	Septiembre	2023-09-17T00:00:00	2024-11-08T20:00:00	4	Temperatura máxima	20.3
148115	7	Sololá	713	San Lucas Tolimán	10	San Lucas Tolimán	9	Septiembre	2023-09-17T00:00:00	2024-11-08T20:00:00	3	Temperatura mínima	19.9
148116	7	Sololá	713	San Lucas Tolimán	10	San Lucas Tolimán	9	Septiembre	2023-09-17T00:00:00	2024-11-08T20:00:00	5	Humedad	59
148117	7	Sololá	713	San Lucas Tolimán	10	San Lucas Tolimán	9	Septiembre	2023-09-17T00:00:00	2024-11-08T20:00:00	6	Velocidad del viento	4.8
148118	7	Sololá	713	San Lucas Tolimán	10	San Lucas Tolimán	9	Septiembre	2023-09-17T00:00:00	2024-11-08T20:00:00	7	Dirección del viento	4.83
148119	7	Sololá	713	San Lucas Tolimán	10	San Lucas Tolimán	9	Septiembre	2023-09-17T00:00:00	2024-11-08T20:00:00	1	Precipitación	0
148120	7	Sololá	713	San Lucas Tolimán	10	San Lucas Tolimán	9	Septiembre	2023-09-17T00:00:00	2024-11-08T20:00:00	8	Radiación solar	0
148121	7	Sololá	713	San Lucas Tolimán	10	San Lucas Tolimán	9	Septiembre	2023-09-17T00:00:00	2024-11-08T21:00:00	2	Temperatura media	20.2
148122	7	Sololá	713	San Lucas Tolimán	10	San Lucas Tolimán	9	Septiembre	2023-09-17T00:00:00	2024-11-08T21:00:00	4	Temperatura máxima	20.2
148123	7	Sololá	713	San Lucas Tolimán	10	San Lucas Tolimán	9	Septiembre	2023-09-17T00:00:00	2024-11-08T21:00:00	3	Temperatura mínima	19.8
148124	7	Sololá	713	San Lucas Tolimán	10	San Lucas Tolimán	9	Septiembre	2023-09-17T00:00:00	2024-11-08T21:00:00	5	Humedad	60
148125	7	Sololá	713	San Lucas Tolimán	10	San Lucas Tolimán	9	Septiembre	2023-09-17T00:00:00	2024-11-08T21:00:00	6	Velocidad del viento	4.8
148126	7	Sololá	713	San Lucas Tolimán	10	San Lucas Tolimán	9	Septiembre	2023-09-17T00:00:00	2024-11-08T21:00:00	7	Dirección del viento	4.83
148127	7	Sololá	713	San Lucas Tolimán	10	San Lucas Tolimán	9	Septiembre	2023-09-17T00:00:00	2024-11-08T21:00:00	1	Precipitación	0
148128	7	Sololá	713	San Lucas Tolimán	10	San Lucas Tolimán	9	Septiembre	2023-09-17T00:00:00	2024-11-08T21:00:00	8	Radiación solar	0
148129	7	Sololá	713	San Lucas Tolimán	10	San Lucas Tolimán	9	Septiembre	2023-09-17T00:00:00	2024-11-08T22:00:00	2	Temperatura media	17.7
148130	7	Sololá	713	San Lucas Tolimán	10	San Lucas Tolimán	9	Septiembre	2023-09-17T00:00:00	2024-11-08T22:00:00	4	Temperatura máxima	20.1
148131	7	Sololá	713	San Lucas Tolimán	10	San Lucas Tolimán	9	Septiembre	2023-09-17T00:00:00	2024-11-08T22:00:00	3	Temperatura mínima	17.7
148132	7	Sololá	713	San Lucas Tolimán	10	San Lucas Tolimán	9	Septiembre	2023-09-17T00:00:00	2024-11-08T22:00:00	5	Humedad	68
148133	7	Sololá	713	San Lucas Tolimán	10	San Lucas Tolimán	9	Septiembre	2023-09-17T00:00:00	2024-11-08T22:00:00	6	Velocidad del viento	8
148134	7	Sololá	713	San Lucas Tolimán	10	San Lucas Tolimán	9	Septiembre	2023-09-17T00:00:00	2024-11-08T22:00:00	7	Dirección del viento	8.05
148135	7	Sololá	713	San Lucas Tolimán	10	San Lucas Tolimán	9	Septiembre	2023-09-17T00:00:00	2024-11-08T22:00:00	1	Precipitación	0
148136	7	Sololá	713	San Lucas Tolimán	10	San Lucas Tolimán	9	Septiembre	2023-09-17T00:00:00	2024-11-08T22:00:00	8	Radiación solar	0
148137	7	Sololá	713	San Lucas Tolimán	10	San Lucas Tolimán	9	Septiembre	2023-09-17T00:00:00	2024-11-08T23:00:00	2	Temperatura media	17.9
148138	7	Sololá	713	San Lucas Tolimán	10	San Lucas Tolimán	9	Septiembre	2023-09-17T00:00:00	2024-11-08T23:00:00	4	Temperatura máxima	17.9
148139	7	Sololá	713	San Lucas Tolimán	10	San Lucas Tolimán	9	Septiembre	2023-09-17T00:00:00	2024-11-08T23:00:00	3	Temperatura mínima	17.7
148140	7	Sololá	713	San Lucas Tolimán	10	San Lucas Tolimán	9	Septiembre	2023-09-17T00:00:00	2024-11-08T23:00:00	5	Humedad	67
148141	7	Sololá	713	San Lucas Tolimán	10	San Lucas Tolimán	9	Septiembre	2023-09-17T00:00:00	2024-11-08T23:00:00	6	Velocidad del viento	6.4
148142	7	Sololá	713	San Lucas Tolimán	10	San Lucas Tolimán	9	Septiembre	2023-09-17T00:00:00	2024-11-08T23:00:00	7	Dirección del viento	6.44
148143	7	Sololá	713	San Lucas Tolimán	10	San Lucas Tolimán	9	Septiembre	2023-09-17T00:00:00	2024-11-08T23:00:00	1	Precipitación	0.6
148144	7	Sololá	713	San Lucas Tolimán	10	San Lucas Tolimán	9	Septiembre	2023-09-17T00:00:00	2024-11-08T23:00:00	8	Radiación solar	0
148145	7	Sololá	713	San Lucas Tolimán	10	San Lucas Tolimán	9	Septiembre	2023-09-18T00:00:00	2024-11-08T00:00:00	2	Temperatura media	17.7
148146	7	Sololá	713	San Lucas Tolimán	10	San Lucas Tolimán	9	Septiembre	2023-09-18T00:00:00	2024-11-08T00:00:00	4	Temperatura máxima	18.1
148147	7	Sololá	713	San Lucas Tolimán	10	San Lucas Tolimán	9	Septiembre	2023-09-18T00:00:00	2024-11-08T00:00:00	3	Temperatura mínima	17.4
148148	7	Sololá	713	San Lucas Tolimán	10	San Lucas Tolimán	9	Septiembre	2023-09-18T00:00:00	2024-11-08T00:00:00	5	Humedad	66
148149	7	Sololá	713	San Lucas Tolimán	10	San Lucas Tolimán	9	Septiembre	2023-09-18T00:00:00	2024-11-08T00:00:00	6	Velocidad del viento	3.2
148150	7	Sololá	713	San Lucas Tolimán	10	San Lucas Tolimán	9	Septiembre	2023-09-18T00:00:00	2024-11-08T00:00:00	7	Dirección del viento	3.22
148151	7	Sololá	713	San Lucas Tolimán	10	San Lucas Tolimán	9	Septiembre	2023-09-18T00:00:00	2024-11-08T00:00:00	1	Precipitación	2.2
148152	7	Sololá	713	San Lucas Tolimán	10	San Lucas Tolimán	9	Septiembre	2023-09-18T00:00:00	2024-11-08T00:00:00	8	Radiación solar	0
148153	7	Sololá	713	San Lucas Tolimán	10	San Lucas Tolimán	9	Septiembre	2023-09-18T00:00:00	2024-11-08T01:00:00	2	Temperatura media	17.7
148154	7	Sololá	713	San Lucas Tolimán	10	San Lucas Tolimán	9	Septiembre	2023-09-18T00:00:00	2024-11-08T01:00:00	4	Temperatura máxima	17.7
148155	7	Sololá	713	San Lucas Tolimán	10	San Lucas Tolimán	9	Septiembre	2023-09-18T00:00:00	2024-11-08T01:00:00	3	Temperatura mínima	17.4
148156	7	Sololá	713	San Lucas Tolimán	10	San Lucas Tolimán	9	Septiembre	2023-09-18T00:00:00	2024-11-08T01:00:00	5	Humedad	67
148157	7	Sololá	713	San Lucas Tolimán	10	San Lucas Tolimán	9	Septiembre	2023-09-18T00:00:00	2024-11-08T01:00:00	6	Velocidad del viento	6.4
148158	7	Sololá	713	San Lucas Tolimán	10	San Lucas Tolimán	9	Septiembre	2023-09-18T00:00:00	2024-11-08T01:00:00	7	Dirección del viento	6.44
148159	7	Sololá	713	San Lucas Tolimán	10	San Lucas Tolimán	9	Septiembre	2023-09-18T00:00:00	2024-11-08T01:00:00	1	Precipitación	0.2
148160	7	Sololá	713	San Lucas Tolimán	10	San Lucas Tolimán	9	Septiembre	2023-09-18T00:00:00	2024-11-08T01:00:00	8	Radiación solar	0
148161	7	Sololá	713	San Lucas Tolimán	10	San Lucas Tolimán	9	Septiembre	2023-09-18T00:00:00	2024-11-08T02:00:00	2	Temperatura media	17.7
148162	7	Sololá	713	San Lucas Tolimán	10	San Lucas Tolimán	9	Septiembre	2023-09-18T00:00:00	2024-11-08T02:00:00	4	Temperatura máxima	18.1
148163	7	Sololá	713	San Lucas Tolimán	10	San Lucas Tolimán	9	Septiembre	2023-09-18T00:00:00	2024-11-08T02:00:00	3	Temperatura mínima	17.6
148164	7	Sololá	713	San Lucas Tolimán	10	San Lucas Tolimán	9	Septiembre	2023-09-18T00:00:00	2024-11-08T02:00:00	5	Humedad	66
148165	7	Sololá	713	San Lucas Tolimán	10	San Lucas Tolimán	9	Septiembre	2023-09-18T00:00:00	2024-11-08T02:00:00	6	Velocidad del viento	3.2
148166	7	Sololá	713	San Lucas Tolimán	10	San Lucas Tolimán	9	Septiembre	2023-09-18T00:00:00	2024-11-08T02:00:00	7	Dirección del viento	3.22
148167	7	Sololá	713	San Lucas Tolimán	10	San Lucas Tolimán	9	Septiembre	2023-09-18T00:00:00	2024-11-08T02:00:00	1	Precipitación	0
148168	7	Sololá	713	San Lucas Tolimán	10	San Lucas Tolimán	9	Septiembre	2023-09-18T00:00:00	2024-11-08T02:00:00	8	Radiación solar	0
148169	7	Sololá	713	San Lucas Tolimán	10	San Lucas Tolimán	9	Septiembre	2023-09-18T00:00:00	2024-11-08T03:00:00	2	Temperatura media	16.7
148170	7	Sololá	713	San Lucas Tolimán	10	San Lucas Tolimán	9	Septiembre	2023-09-18T00:00:00	2024-11-08T03:00:00	4	Temperatura máxima	17.8
148171	7	Sololá	713	San Lucas Tolimán	10	San Lucas Tolimán	9	Septiembre	2023-09-18T00:00:00	2024-11-08T03:00:00	3	Temperatura mínima	16.7
148172	7	Sololá	713	San Lucas Tolimán	10	San Lucas Tolimán	9	Septiembre	2023-09-18T00:00:00	2024-11-08T03:00:00	5	Humedad	64
148173	7	Sololá	713	San Lucas Tolimán	10	San Lucas Tolimán	9	Septiembre	2023-09-18T00:00:00	2024-11-08T03:00:00	6	Velocidad del viento	3.2
148174	7	Sololá	713	San Lucas Tolimán	10	San Lucas Tolimán	9	Septiembre	2023-09-18T00:00:00	2024-11-08T03:00:00	7	Dirección del viento	3.22
148175	7	Sololá	713	San Lucas Tolimán	10	San Lucas Tolimán	9	Septiembre	2023-09-18T00:00:00	2024-11-08T03:00:00	1	Precipitación	0
148176	7	Sololá	713	San Lucas Tolimán	10	San Lucas Tolimán	9	Septiembre	2023-09-18T00:00:00	2024-11-08T03:00:00	8	Radiación solar	0
148177	7	Sololá	713	San Lucas Tolimán	10	San Lucas Tolimán	9	Septiembre	2023-09-18T00:00:00	2024-11-08T04:00:00	2	Temperatura media	16.7
148178	7	Sololá	713	San Lucas Tolimán	10	San Lucas Tolimán	9	Septiembre	2023-09-18T00:00:00	2024-11-08T04:00:00	4	Temperatura máxima	16.8
148179	7	Sololá	713	San Lucas Tolimán	10	San Lucas Tolimán	9	Septiembre	2023-09-18T00:00:00	2024-11-08T04:00:00	3	Temperatura mínima	16.6
148180	7	Sololá	713	San Lucas Tolimán	10	San Lucas Tolimán	9	Septiembre	2023-09-18T00:00:00	2024-11-08T04:00:00	5	Humedad	65
148181	7	Sololá	713	San Lucas Tolimán	10	San Lucas Tolimán	9	Septiembre	2023-09-18T00:00:00	2024-11-08T04:00:00	6	Velocidad del viento	1.6
148182	7	Sololá	713	San Lucas Tolimán	10	San Lucas Tolimán	9	Septiembre	2023-09-18T00:00:00	2024-11-08T04:00:00	7	Dirección del viento	1.61
148183	7	Sololá	713	San Lucas Tolimán	10	San Lucas Tolimán	9	Septiembre	2023-09-18T00:00:00	2024-11-08T04:00:00	1	Precipitación	0
148184	7	Sololá	713	San Lucas Tolimán	10	San Lucas Tolimán	9	Septiembre	2023-09-18T00:00:00	2024-11-08T04:00:00	8	Radiación solar	0
148185	7	Sololá	713	San Lucas Tolimán	10	San Lucas Tolimán	9	Septiembre	2023-09-18T00:00:00	2024-11-08T05:00:00	2	Temperatura media	17.1
148186	7	Sololá	713	San Lucas Tolimán	10	San Lucas Tolimán	9	Septiembre	2023-09-18T00:00:00	2024-11-08T05:00:00	4	Temperatura máxima	17.3
148187	7	Sololá	713	San Lucas Tolimán	10	San Lucas Tolimán	9	Septiembre	2023-09-18T00:00:00	2024-11-08T05:00:00	3	Temperatura mínima	16.4
148188	7	Sololá	713	San Lucas Tolimán	10	San Lucas Tolimán	9	Septiembre	2023-09-18T00:00:00	2024-11-08T05:00:00	5	Humedad	63
148189	7	Sololá	713	San Lucas Tolimán	10	San Lucas Tolimán	9	Septiembre	2023-09-18T00:00:00	2024-11-08T05:00:00	6	Velocidad del viento	3.2
148190	7	Sololá	713	San Lucas Tolimán	10	San Lucas Tolimán	9	Septiembre	2023-09-18T00:00:00	2024-11-08T05:00:00	7	Dirección del viento	3.22
148191	7	Sololá	713	San Lucas Tolimán	10	San Lucas Tolimán	9	Septiembre	2023-09-18T00:00:00	2024-11-08T05:00:00	1	Precipitación	0
148192	7	Sololá	713	San Lucas Tolimán	10	San Lucas Tolimán	9	Septiembre	2023-09-18T00:00:00	2024-11-08T05:00:00	8	Radiación solar	0
148193	7	Sololá	713	San Lucas Tolimán	10	San Lucas Tolimán	9	Septiembre	2023-09-18T00:00:00	2024-11-08T06:00:00	2	Temperatura media	17.8
148194	7	Sololá	713	San Lucas Tolimán	10	San Lucas Tolimán	9	Septiembre	2023-09-18T00:00:00	2024-11-08T06:00:00	4	Temperatura máxima	17.8
148195	7	Sololá	713	San Lucas Tolimán	10	San Lucas Tolimán	9	Septiembre	2023-09-18T00:00:00	2024-11-08T06:00:00	3	Temperatura mínima	16.8
148196	7	Sololá	713	San Lucas Tolimán	10	San Lucas Tolimán	9	Septiembre	2023-09-18T00:00:00	2024-11-08T06:00:00	5	Humedad	55
148197	7	Sololá	713	San Lucas Tolimán	10	San Lucas Tolimán	9	Septiembre	2023-09-18T00:00:00	2024-11-08T06:00:00	6	Velocidad del viento	3.2
148198	7	Sololá	713	San Lucas Tolimán	10	San Lucas Tolimán	9	Septiembre	2023-09-18T00:00:00	2024-11-08T06:00:00	7	Dirección del viento	3.22
148199	7	Sololá	713	San Lucas Tolimán	10	San Lucas Tolimán	9	Septiembre	2023-09-18T00:00:00	2024-11-08T06:00:00	1	Precipitación	0
148200	7	Sololá	713	San Lucas Tolimán	10	San Lucas Tolimán	9	Septiembre	2023-09-18T00:00:00	2024-11-08T06:00:00	8	Radiación solar	0
148201	7	Sololá	713	San Lucas Tolimán	10	San Lucas Tolimán	9	Septiembre	2023-09-18T00:00:00	2024-11-08T07:00:00	2	Temperatura media	18
148202	7	Sololá	713	San Lucas Tolimán	10	San Lucas Tolimán	9	Septiembre	2023-09-18T00:00:00	2024-11-08T07:00:00	4	Temperatura máxima	18.2
148203	7	Sololá	713	San Lucas Tolimán	10	San Lucas Tolimán	9	Septiembre	2023-09-18T00:00:00	2024-11-08T07:00:00	3	Temperatura mínima	17.8
148204	7	Sololá	713	San Lucas Tolimán	10	San Lucas Tolimán	9	Septiembre	2023-09-18T00:00:00	2024-11-08T07:00:00	5	Humedad	55
148205	7	Sololá	713	San Lucas Tolimán	10	San Lucas Tolimán	9	Septiembre	2023-09-18T00:00:00	2024-11-08T07:00:00	6	Velocidad del viento	4.8
148206	7	Sololá	713	San Lucas Tolimán	10	San Lucas Tolimán	9	Septiembre	2023-09-18T00:00:00	2024-11-08T07:00:00	7	Dirección del viento	4.83
148207	7	Sololá	713	San Lucas Tolimán	10	San Lucas Tolimán	9	Septiembre	2023-09-18T00:00:00	2024-11-08T07:00:00	1	Precipitación	0
148208	7	Sololá	713	San Lucas Tolimán	10	San Lucas Tolimán	9	Septiembre	2023-09-18T00:00:00	2024-11-08T07:00:00	8	Radiación solar	47
148209	7	Sololá	713	San Lucas Tolimán	10	San Lucas Tolimán	9	Septiembre	2023-09-18T00:00:00	2024-11-08T08:00:00	2	Temperatura media	20.1
148210	7	Sololá	713	San Lucas Tolimán	10	San Lucas Tolimán	9	Septiembre	2023-09-18T00:00:00	2024-11-08T08:00:00	4	Temperatura máxima	20.1
148211	7	Sololá	713	San Lucas Tolimán	10	San Lucas Tolimán	9	Septiembre	2023-09-18T00:00:00	2024-11-08T08:00:00	3	Temperatura mínima	18
148212	7	Sololá	713	San Lucas Tolimán	10	San Lucas Tolimán	9	Septiembre	2023-09-18T00:00:00	2024-11-08T08:00:00	5	Humedad	48
148213	7	Sololá	713	San Lucas Tolimán	10	San Lucas Tolimán	9	Septiembre	2023-09-18T00:00:00	2024-11-08T08:00:00	6	Velocidad del viento	4.8
148214	7	Sololá	713	San Lucas Tolimán	10	San Lucas Tolimán	9	Septiembre	2023-09-18T00:00:00	2024-11-08T08:00:00	7	Dirección del viento	4.83
148215	7	Sololá	713	San Lucas Tolimán	10	San Lucas Tolimán	9	Septiembre	2023-09-18T00:00:00	2024-11-08T08:00:00	1	Precipitación	0
148216	7	Sololá	713	San Lucas Tolimán	10	San Lucas Tolimán	9	Septiembre	2023-09-18T00:00:00	2024-11-08T08:00:00	8	Radiación solar	238
148217	7	Sololá	713	San Lucas Tolimán	10	San Lucas Tolimán	9	Septiembre	2023-09-18T00:00:00	2024-11-08T09:00:00	2	Temperatura media	22.1
148218	7	Sololá	713	San Lucas Tolimán	10	San Lucas Tolimán	9	Septiembre	2023-09-18T00:00:00	2024-11-08T09:00:00	4	Temperatura máxima	22.3
148219	7	Sololá	713	San Lucas Tolimán	10	San Lucas Tolimán	9	Septiembre	2023-09-18T00:00:00	2024-11-08T09:00:00	3	Temperatura mínima	20.1
148220	7	Sololá	713	San Lucas Tolimán	10	San Lucas Tolimán	9	Septiembre	2023-09-18T00:00:00	2024-11-08T09:00:00	5	Humedad	47
148221	7	Sololá	713	San Lucas Tolimán	10	San Lucas Tolimán	9	Septiembre	2023-09-18T00:00:00	2024-11-08T09:00:00	6	Velocidad del viento	8
148222	7	Sololá	713	San Lucas Tolimán	10	San Lucas Tolimán	9	Septiembre	2023-09-18T00:00:00	2024-11-08T09:00:00	7	Dirección del viento	8.05
148223	7	Sololá	713	San Lucas Tolimán	10	San Lucas Tolimán	9	Septiembre	2023-09-18T00:00:00	2024-11-08T09:00:00	1	Precipitación	0
148224	7	Sololá	713	San Lucas Tolimán	10	San Lucas Tolimán	9	Septiembre	2023-09-18T00:00:00	2024-11-08T09:00:00	8	Radiación solar	584
148225	7	Sololá	713	San Lucas Tolimán	10	San Lucas Tolimán	9	Septiembre	2023-09-18T00:00:00	2024-11-08T10:00:00	2	Temperatura media	23.4
148226	7	Sololá	713	San Lucas Tolimán	10	San Lucas Tolimán	9	Septiembre	2023-09-18T00:00:00	2024-11-08T10:00:00	4	Temperatura máxima	24.6
148227	7	Sololá	713	San Lucas Tolimán	10	San Lucas Tolimán	9	Septiembre	2023-09-18T00:00:00	2024-11-08T10:00:00	3	Temperatura mínima	22
148228	7	Sololá	713	San Lucas Tolimán	10	San Lucas Tolimán	9	Septiembre	2023-09-18T00:00:00	2024-11-08T10:00:00	5	Humedad	52
148229	7	Sololá	713	San Lucas Tolimán	10	San Lucas Tolimán	9	Septiembre	2023-09-18T00:00:00	2024-11-08T10:00:00	6	Velocidad del viento	6.4
148230	7	Sololá	713	San Lucas Tolimán	10	San Lucas Tolimán	9	Septiembre	2023-09-18T00:00:00	2024-11-08T10:00:00	7	Dirección del viento	6.44
148231	7	Sololá	713	San Lucas Tolimán	10	San Lucas Tolimán	9	Septiembre	2023-09-18T00:00:00	2024-11-08T10:00:00	1	Precipitación	0
148232	7	Sololá	713	San Lucas Tolimán	10	San Lucas Tolimán	9	Septiembre	2023-09-18T00:00:00	2024-11-08T10:00:00	8	Radiación solar	776
148233	7	Sololá	713	San Lucas Tolimán	10	San Lucas Tolimán	9	Septiembre	2023-09-18T00:00:00	2024-11-08T11:00:00	2	Temperatura media	23.2
148234	7	Sololá	713	San Lucas Tolimán	10	San Lucas Tolimán	9	Septiembre	2023-09-18T00:00:00	2024-11-08T11:00:00	4	Temperatura máxima	23.7
148235	7	Sololá	713	San Lucas Tolimán	10	San Lucas Tolimán	9	Septiembre	2023-09-18T00:00:00	2024-11-08T11:00:00	3	Temperatura mínima	22.9
148236	7	Sololá	713	San Lucas Tolimán	10	San Lucas Tolimán	9	Septiembre	2023-09-18T00:00:00	2024-11-08T11:00:00	5	Humedad	56
148237	7	Sololá	713	San Lucas Tolimán	10	San Lucas Tolimán	9	Septiembre	2023-09-18T00:00:00	2024-11-08T11:00:00	6	Velocidad del viento	11.3
148238	7	Sololá	713	San Lucas Tolimán	10	San Lucas Tolimán	9	Septiembre	2023-09-18T00:00:00	2024-11-08T11:00:00	7	Dirección del viento	11.27
148239	7	Sololá	713	San Lucas Tolimán	10	San Lucas Tolimán	9	Septiembre	2023-09-18T00:00:00	2024-11-08T11:00:00	1	Precipitación	0
148240	7	Sololá	713	San Lucas Tolimán	10	San Lucas Tolimán	9	Septiembre	2023-09-18T00:00:00	2024-11-08T11:00:00	8	Radiación solar	919
148241	7	Sololá	713	San Lucas Tolimán	10	San Lucas Tolimán	9	Septiembre	2023-09-18T00:00:00	2024-11-08T12:00:00	2	Temperatura media	23.4
148242	7	Sololá	713	San Lucas Tolimán	10	San Lucas Tolimán	9	Septiembre	2023-09-18T00:00:00	2024-11-08T12:00:00	4	Temperatura máxima	23.6
148243	7	Sololá	713	San Lucas Tolimán	10	San Lucas Tolimán	9	Septiembre	2023-09-18T00:00:00	2024-11-08T12:00:00	3	Temperatura mínima	22.4
148244	7	Sololá	713	San Lucas Tolimán	10	San Lucas Tolimán	9	Septiembre	2023-09-18T00:00:00	2024-11-08T12:00:00	5	Humedad	56
148245	7	Sololá	713	San Lucas Tolimán	10	San Lucas Tolimán	9	Septiembre	2023-09-18T00:00:00	2024-11-08T12:00:00	6	Velocidad del viento	12.9
148246	7	Sololá	713	San Lucas Tolimán	10	San Lucas Tolimán	9	Septiembre	2023-09-18T00:00:00	2024-11-08T12:00:00	7	Dirección del viento	12.87
148247	7	Sololá	713	San Lucas Tolimán	10	San Lucas Tolimán	9	Septiembre	2023-09-18T00:00:00	2024-11-08T12:00:00	1	Precipitación	0
148248	7	Sololá	713	San Lucas Tolimán	10	San Lucas Tolimán	9	Septiembre	2023-09-18T00:00:00	2024-11-08T12:00:00	8	Radiación solar	1061
148249	7	Sololá	713	San Lucas Tolimán	10	San Lucas Tolimán	9	Septiembre	2023-09-18T00:00:00	2024-11-08T13:00:00	2	Temperatura media	23.7
148250	7	Sololá	713	San Lucas Tolimán	10	San Lucas Tolimán	9	Septiembre	2023-09-18T00:00:00	2024-11-08T13:00:00	4	Temperatura máxima	23.7
148251	7	Sololá	713	San Lucas Tolimán	10	San Lucas Tolimán	9	Septiembre	2023-09-18T00:00:00	2024-11-08T13:00:00	3	Temperatura mínima	20.5
148252	7	Sololá	713	San Lucas Tolimán	10	San Lucas Tolimán	9	Septiembre	2023-09-18T00:00:00	2024-11-08T13:00:00	5	Humedad	76
148253	7	Sololá	713	San Lucas Tolimán	10	San Lucas Tolimán	9	Septiembre	2023-09-18T00:00:00	2024-11-08T13:00:00	6	Velocidad del viento	14.5
148254	7	Sololá	713	San Lucas Tolimán	10	San Lucas Tolimán	9	Septiembre	2023-09-18T00:00:00	2024-11-08T13:00:00	7	Dirección del viento	14.48
148255	7	Sololá	713	San Lucas Tolimán	10	San Lucas Tolimán	9	Septiembre	2023-09-18T00:00:00	2024-11-08T13:00:00	1	Precipitación	0
148256	7	Sololá	713	San Lucas Tolimán	10	San Lucas Tolimán	9	Septiembre	2023-09-18T00:00:00	2024-11-08T13:00:00	8	Radiación solar	460
148257	7	Sololá	713	San Lucas Tolimán	10	San Lucas Tolimán	9	Septiembre	2023-09-18T00:00:00	2024-11-08T14:00:00	2	Temperatura media	25.2
148258	7	Sololá	713	San Lucas Tolimán	10	San Lucas Tolimán	9	Septiembre	2023-09-18T00:00:00	2024-11-08T14:00:00	4	Temperatura máxima	25.2
148259	7	Sololá	713	San Lucas Tolimán	10	San Lucas Tolimán	9	Septiembre	2023-09-18T00:00:00	2024-11-08T14:00:00	3	Temperatura mínima	23.7
148260	7	Sololá	713	San Lucas Tolimán	10	San Lucas Tolimán	9	Septiembre	2023-09-18T00:00:00	2024-11-08T14:00:00	5	Humedad	73
148261	7	Sololá	713	San Lucas Tolimán	10	San Lucas Tolimán	9	Septiembre	2023-09-18T00:00:00	2024-11-08T14:00:00	6	Velocidad del viento	6.4
148262	7	Sololá	713	San Lucas Tolimán	10	San Lucas Tolimán	9	Septiembre	2023-09-18T00:00:00	2024-11-08T14:00:00	7	Dirección del viento	6.44
148263	7	Sololá	713	San Lucas Tolimán	10	San Lucas Tolimán	9	Septiembre	2023-09-18T00:00:00	2024-11-08T14:00:00	1	Precipitación	0
148264	7	Sololá	713	San Lucas Tolimán	10	San Lucas Tolimán	9	Septiembre	2023-09-18T00:00:00	2024-11-08T14:00:00	8	Radiación solar	912
148265	7	Sololá	713	San Lucas Tolimán	10	San Lucas Tolimán	9	Septiembre	2023-09-18T00:00:00	2024-11-08T15:00:00	2	Temperatura media	25.7
148266	7	Sololá	713	San Lucas Tolimán	10	San Lucas Tolimán	9	Septiembre	2023-09-18T00:00:00	2024-11-08T15:00:00	4	Temperatura máxima	25.9
148267	7	Sololá	713	San Lucas Tolimán	10	San Lucas Tolimán	9	Septiembre	2023-09-18T00:00:00	2024-11-08T15:00:00	3	Temperatura mínima	24.5
148268	7	Sololá	713	San Lucas Tolimán	10	San Lucas Tolimán	9	Septiembre	2023-09-18T00:00:00	2024-11-08T15:00:00	5	Humedad	73
148269	7	Sololá	713	San Lucas Tolimán	10	San Lucas Tolimán	9	Septiembre	2023-09-18T00:00:00	2024-11-08T15:00:00	6	Velocidad del viento	6.4
148270	7	Sololá	713	San Lucas Tolimán	10	San Lucas Tolimán	9	Septiembre	2023-09-18T00:00:00	2024-11-08T15:00:00	7	Dirección del viento	6.44
148271	7	Sololá	713	San Lucas Tolimán	10	San Lucas Tolimán	9	Septiembre	2023-09-18T00:00:00	2024-11-08T15:00:00	1	Precipitación	0
148272	7	Sololá	713	San Lucas Tolimán	10	San Lucas Tolimán	9	Septiembre	2023-09-18T00:00:00	2024-11-08T15:00:00	8	Radiación solar	409
148273	7	Sololá	713	San Lucas Tolimán	10	San Lucas Tolimán	9	Septiembre	2023-09-18T00:00:00	2024-11-08T16:00:00	2	Temperatura media	23
148274	7	Sololá	713	San Lucas Tolimán	10	San Lucas Tolimán	9	Septiembre	2023-09-18T00:00:00	2024-11-08T16:00:00	4	Temperatura máxima	25.8
148275	7	Sololá	713	San Lucas Tolimán	10	San Lucas Tolimán	9	Septiembre	2023-09-18T00:00:00	2024-11-08T16:00:00	3	Temperatura mínima	23
148276	7	Sololá	713	San Lucas Tolimán	10	San Lucas Tolimán	9	Septiembre	2023-09-18T00:00:00	2024-11-08T16:00:00	5	Humedad	79
148277	7	Sololá	713	San Lucas Tolimán	10	San Lucas Tolimán	9	Septiembre	2023-09-18T00:00:00	2024-11-08T16:00:00	6	Velocidad del viento	6.4
148278	7	Sololá	713	San Lucas Tolimán	10	San Lucas Tolimán	9	Septiembre	2023-09-18T00:00:00	2024-11-08T16:00:00	7	Dirección del viento	6.44
148279	7	Sololá	713	San Lucas Tolimán	10	San Lucas Tolimán	9	Septiembre	2023-09-18T00:00:00	2024-11-08T16:00:00	1	Precipitación	0
148280	7	Sololá	713	San Lucas Tolimán	10	San Lucas Tolimán	9	Septiembre	2023-09-18T00:00:00	2024-11-08T16:00:00	8	Radiación solar	145
148281	7	Sololá	713	San Lucas Tolimán	10	San Lucas Tolimán	9	Septiembre	2023-09-18T00:00:00	2024-11-08T17:00:00	2	Temperatura media	19.4
148282	7	Sololá	713	San Lucas Tolimán	10	San Lucas Tolimán	9	Septiembre	2023-09-18T00:00:00	2024-11-08T17:00:00	4	Temperatura máxima	23
148283	7	Sololá	713	San Lucas Tolimán	10	San Lucas Tolimán	9	Septiembre	2023-09-18T00:00:00	2024-11-08T17:00:00	3	Temperatura mínima	19.4
148284	7	Sololá	713	San Lucas Tolimán	10	San Lucas Tolimán	9	Septiembre	2023-09-18T00:00:00	2024-11-08T17:00:00	5	Humedad	90
148285	7	Sololá	713	San Lucas Tolimán	10	San Lucas Tolimán	9	Septiembre	2023-09-18T00:00:00	2024-11-08T17:00:00	6	Velocidad del viento	6.4
148286	7	Sololá	713	San Lucas Tolimán	10	San Lucas Tolimán	9	Septiembre	2023-09-18T00:00:00	2024-11-08T17:00:00	7	Dirección del viento	6.44
148287	7	Sololá	713	San Lucas Tolimán	10	San Lucas Tolimán	9	Septiembre	2023-09-18T00:00:00	2024-11-08T17:00:00	1	Precipitación	0
148288	7	Sololá	713	San Lucas Tolimán	10	San Lucas Tolimán	9	Septiembre	2023-09-18T00:00:00	2024-11-08T17:00:00	8	Radiación solar	22
148289	7	Sololá	713	San Lucas Tolimán	10	San Lucas Tolimán	9	Septiembre	2023-09-18T00:00:00	2024-11-08T18:00:00	2	Temperatura media	19.1
148290	7	Sololá	713	San Lucas Tolimán	10	San Lucas Tolimán	9	Septiembre	2023-09-18T00:00:00	2024-11-08T18:00:00	4	Temperatura máxima	19.4
148291	7	Sololá	713	San Lucas Tolimán	10	San Lucas Tolimán	9	Septiembre	2023-09-18T00:00:00	2024-11-08T18:00:00	3	Temperatura mínima	18.9
148292	7	Sololá	713	San Lucas Tolimán	10	San Lucas Tolimán	9	Septiembre	2023-09-18T00:00:00	2024-11-08T18:00:00	5	Humedad	89
148293	7	Sololá	713	San Lucas Tolimán	10	San Lucas Tolimán	9	Septiembre	2023-09-18T00:00:00	2024-11-08T18:00:00	6	Velocidad del viento	6.4
148294	7	Sololá	713	San Lucas Tolimán	10	San Lucas Tolimán	9	Septiembre	2023-09-18T00:00:00	2024-11-08T18:00:00	7	Dirección del viento	6.44
148295	7	Sololá	713	San Lucas Tolimán	10	San Lucas Tolimán	9	Septiembre	2023-09-18T00:00:00	2024-11-08T18:00:00	1	Precipitación	0
148296	7	Sololá	713	San Lucas Tolimán	10	San Lucas Tolimán	9	Septiembre	2023-09-18T00:00:00	2024-11-08T18:00:00	8	Radiación solar	1
148297	7	Sololá	713	San Lucas Tolimán	10	San Lucas Tolimán	9	Septiembre	2023-09-18T00:00:00	2024-11-08T19:00:00	2	Temperatura media	19.1
148298	7	Sololá	713	San Lucas Tolimán	10	San Lucas Tolimán	9	Septiembre	2023-09-18T00:00:00	2024-11-08T19:00:00	4	Temperatura máxima	19.1
148299	7	Sololá	713	San Lucas Tolimán	10	San Lucas Tolimán	9	Septiembre	2023-09-18T00:00:00	2024-11-08T19:00:00	3	Temperatura mínima	18.9
148300	7	Sololá	713	San Lucas Tolimán	10	San Lucas Tolimán	9	Septiembre	2023-09-18T00:00:00	2024-11-08T19:00:00	5	Humedad	90
148301	7	Sololá	713	San Lucas Tolimán	10	San Lucas Tolimán	9	Septiembre	2023-09-18T00:00:00	2024-11-08T19:00:00	6	Velocidad del viento	6.4
148302	7	Sololá	713	San Lucas Tolimán	10	San Lucas Tolimán	9	Septiembre	2023-09-18T00:00:00	2024-11-08T19:00:00	7	Dirección del viento	6.44
148303	7	Sololá	713	San Lucas Tolimán	10	San Lucas Tolimán	9	Septiembre	2023-09-18T00:00:00	2024-11-08T19:00:00	1	Precipitación	0
148304	7	Sololá	713	San Lucas Tolimán	10	San Lucas Tolimán	9	Septiembre	2023-09-18T00:00:00	2024-11-08T19:00:00	8	Radiación solar	0
148305	7	Sololá	713	San Lucas Tolimán	10	San Lucas Tolimán	9	Septiembre	2023-09-18T00:00:00	2024-11-08T20:00:00	2	Temperatura media	19.2
148306	7	Sololá	713	San Lucas Tolimán	10	San Lucas Tolimán	9	Septiembre	2023-09-18T00:00:00	2024-11-08T20:00:00	4	Temperatura máxima	19.2
148307	7	Sololá	713	San Lucas Tolimán	10	San Lucas Tolimán	9	Septiembre	2023-09-18T00:00:00	2024-11-08T20:00:00	3	Temperatura mínima	19
148308	7	Sololá	713	San Lucas Tolimán	10	San Lucas Tolimán	9	Septiembre	2023-09-18T00:00:00	2024-11-08T20:00:00	5	Humedad	90
148309	7	Sololá	713	San Lucas Tolimán	10	San Lucas Tolimán	9	Septiembre	2023-09-18T00:00:00	2024-11-08T20:00:00	6	Velocidad del viento	4.8
148310	7	Sololá	713	San Lucas Tolimán	10	San Lucas Tolimán	9	Septiembre	2023-09-18T00:00:00	2024-11-08T20:00:00	7	Dirección del viento	4.83
148311	7	Sololá	713	San Lucas Tolimán	10	San Lucas Tolimán	9	Septiembre	2023-09-18T00:00:00	2024-11-08T20:00:00	1	Precipitación	0
148312	7	Sololá	713	San Lucas Tolimán	10	San Lucas Tolimán	9	Septiembre	2023-09-18T00:00:00	2024-11-08T20:00:00	8	Radiación solar	0
148313	7	Sololá	713	San Lucas Tolimán	10	San Lucas Tolimán	9	Septiembre	2023-09-18T00:00:00	2024-11-08T21:00:00	2	Temperatura media	18.6
148314	7	Sololá	713	San Lucas Tolimán	10	San Lucas Tolimán	9	Septiembre	2023-09-18T00:00:00	2024-11-08T21:00:00	4	Temperatura máxima	19.2
148315	7	Sololá	713	San Lucas Tolimán	10	San Lucas Tolimán	9	Septiembre	2023-09-18T00:00:00	2024-11-08T21:00:00	3	Temperatura mínima	18.6
148316	7	Sololá	713	San Lucas Tolimán	10	San Lucas Tolimán	9	Septiembre	2023-09-18T00:00:00	2024-11-08T21:00:00	5	Humedad	89
148317	7	Sololá	713	San Lucas Tolimán	10	San Lucas Tolimán	9	Septiembre	2023-09-18T00:00:00	2024-11-08T21:00:00	6	Velocidad del viento	1.6
148318	7	Sololá	713	San Lucas Tolimán	10	San Lucas Tolimán	9	Septiembre	2023-09-18T00:00:00	2024-11-08T21:00:00	7	Dirección del viento	1.61
148319	7	Sololá	713	San Lucas Tolimán	10	San Lucas Tolimán	9	Septiembre	2023-09-18T00:00:00	2024-11-08T21:00:00	1	Precipitación	0
148320	7	Sololá	713	San Lucas Tolimán	10	San Lucas Tolimán	9	Septiembre	2023-09-18T00:00:00	2024-11-08T21:00:00	8	Radiación solar	0
148321	7	Sololá	713	San Lucas Tolimán	10	San Lucas Tolimán	9	Septiembre	2023-09-18T00:00:00	2024-11-08T22:00:00	2	Temperatura media	18.3
148322	7	Sololá	713	San Lucas Tolimán	10	San Lucas Tolimán	9	Septiembre	2023-09-18T00:00:00	2024-11-08T22:00:00	4	Temperatura máxima	18.7
148323	7	Sololá	713	San Lucas Tolimán	10	San Lucas Tolimán	9	Septiembre	2023-09-18T00:00:00	2024-11-08T22:00:00	3	Temperatura mínima	18.2
148324	7	Sololá	713	San Lucas Tolimán	10	San Lucas Tolimán	9	Septiembre	2023-09-18T00:00:00	2024-11-08T22:00:00	5	Humedad	89
148325	7	Sololá	713	San Lucas Tolimán	10	San Lucas Tolimán	9	Septiembre	2023-09-18T00:00:00	2024-11-08T22:00:00	6	Velocidad del viento	0
148326	7	Sololá	713	San Lucas Tolimán	10	San Lucas Tolimán	9	Septiembre	2023-09-18T00:00:00	2024-11-08T22:00:00	7	Dirección del viento	0
148327	7	Sololá	713	San Lucas Tolimán	10	San Lucas Tolimán	9	Septiembre	2023-09-18T00:00:00	2024-11-08T22:00:00	1	Precipitación	0
148328	7	Sololá	713	San Lucas Tolimán	10	San Lucas Tolimán	9	Septiembre	2023-09-18T00:00:00	2024-11-08T22:00:00	8	Radiación solar	0
148329	7	Sololá	713	San Lucas Tolimán	10	San Lucas Tolimán	9	Septiembre	2023-09-18T00:00:00	2024-11-08T23:00:00	2	Temperatura media	18.8
148330	7	Sololá	713	San Lucas Tolimán	10	San Lucas Tolimán	9	Septiembre	2023-09-18T00:00:00	2024-11-08T23:00:00	4	Temperatura máxima	18.8
148331	7	Sololá	713	San Lucas Tolimán	10	San Lucas Tolimán	9	Septiembre	2023-09-18T00:00:00	2024-11-08T23:00:00	3	Temperatura mínima	18.2
148332	7	Sololá	713	San Lucas Tolimán	10	San Lucas Tolimán	9	Septiembre	2023-09-18T00:00:00	2024-11-08T23:00:00	5	Humedad	83
148333	7	Sololá	713	San Lucas Tolimán	10	San Lucas Tolimán	9	Septiembre	2023-09-18T00:00:00	2024-11-08T23:00:00	6	Velocidad del viento	1.6
148334	7	Sololá	713	San Lucas Tolimán	10	San Lucas Tolimán	9	Septiembre	2023-09-18T00:00:00	2024-11-08T23:00:00	7	Dirección del viento	1.61
148335	7	Sololá	713	San Lucas Tolimán	10	San Lucas Tolimán	9	Septiembre	2023-09-18T00:00:00	2024-11-08T23:00:00	1	Precipitación	0
148336	7	Sololá	713	San Lucas Tolimán	10	San Lucas Tolimán	9	Septiembre	2023-09-18T00:00:00	2024-11-08T23:00:00	8	Radiación solar	0
148337	7	Sololá	713	San Lucas Tolimán	10	San Lucas Tolimán	9	Septiembre	2023-09-19T00:00:00	2024-11-08T00:00:00	2	Temperatura media	17.7
148338	7	Sololá	713	San Lucas Tolimán	10	San Lucas Tolimán	9	Septiembre	2023-09-19T00:00:00	2024-11-08T00:00:00	4	Temperatura máxima	18.8
148339	7	Sololá	713	San Lucas Tolimán	10	San Lucas Tolimán	9	Septiembre	2023-09-19T00:00:00	2024-11-08T00:00:00	3	Temperatura mínima	17.6
148340	7	Sololá	713	San Lucas Tolimán	10	San Lucas Tolimán	9	Septiembre	2023-09-19T00:00:00	2024-11-08T00:00:00	5	Humedad	85
148341	7	Sololá	713	San Lucas Tolimán	10	San Lucas Tolimán	9	Septiembre	2023-09-19T00:00:00	2024-11-08T00:00:00	6	Velocidad del viento	0
148342	7	Sololá	713	San Lucas Tolimán	10	San Lucas Tolimán	9	Septiembre	2023-09-19T00:00:00	2024-11-08T00:00:00	7	Dirección del viento	0
148343	7	Sololá	713	San Lucas Tolimán	10	San Lucas Tolimán	9	Septiembre	2023-09-19T00:00:00	2024-11-08T00:00:00	1	Precipitación	0
148344	7	Sololá	713	San Lucas Tolimán	10	San Lucas Tolimán	9	Septiembre	2023-09-19T00:00:00	2024-11-08T00:00:00	8	Radiación solar	0
148345	7	Sololá	713	San Lucas Tolimán	10	San Lucas Tolimán	9	Septiembre	2023-09-19T00:00:00	2024-11-08T01:00:00	2	Temperatura media	17.3
148346	7	Sololá	713	San Lucas Tolimán	10	San Lucas Tolimán	9	Septiembre	2023-09-19T00:00:00	2024-11-08T01:00:00	4	Temperatura máxima	17.7
148347	7	Sololá	713	San Lucas Tolimán	10	San Lucas Tolimán	9	Septiembre	2023-09-19T00:00:00	2024-11-08T01:00:00	3	Temperatura mínima	17.3
148348	7	Sololá	713	San Lucas Tolimán	10	San Lucas Tolimán	9	Septiembre	2023-09-19T00:00:00	2024-11-08T01:00:00	5	Humedad	87
148349	7	Sololá	713	San Lucas Tolimán	10	San Lucas Tolimán	9	Septiembre	2023-09-19T00:00:00	2024-11-08T01:00:00	6	Velocidad del viento	0
148350	7	Sololá	713	San Lucas Tolimán	10	San Lucas Tolimán	9	Septiembre	2023-09-19T00:00:00	2024-11-08T01:00:00	7	Dirección del viento	0
148351	7	Sololá	713	San Lucas Tolimán	10	San Lucas Tolimán	9	Septiembre	2023-09-19T00:00:00	2024-11-08T01:00:00	1	Precipitación	0
148352	7	Sololá	713	San Lucas Tolimán	10	San Lucas Tolimán	9	Septiembre	2023-09-19T00:00:00	2024-11-08T01:00:00	8	Radiación solar	0
148353	7	Sololá	713	San Lucas Tolimán	10	San Lucas Tolimán	9	Septiembre	2023-09-19T00:00:00	2024-11-08T02:00:00	2	Temperatura media	18.6
148354	7	Sololá	713	San Lucas Tolimán	10	San Lucas Tolimán	9	Septiembre	2023-09-19T00:00:00	2024-11-08T02:00:00	4	Temperatura máxima	18.6
148355	7	Sololá	713	San Lucas Tolimán	10	San Lucas Tolimán	9	Septiembre	2023-09-19T00:00:00	2024-11-08T02:00:00	3	Temperatura mínima	17.3
148356	7	Sololá	713	San Lucas Tolimán	10	San Lucas Tolimán	9	Septiembre	2023-09-19T00:00:00	2024-11-08T02:00:00	5	Humedad	82
148357	7	Sololá	713	San Lucas Tolimán	10	San Lucas Tolimán	9	Septiembre	2023-09-19T00:00:00	2024-11-08T02:00:00	6	Velocidad del viento	1.6
148358	7	Sololá	713	San Lucas Tolimán	10	San Lucas Tolimán	9	Septiembre	2023-09-19T00:00:00	2024-11-08T02:00:00	7	Dirección del viento	1.61
148359	7	Sololá	713	San Lucas Tolimán	10	San Lucas Tolimán	9	Septiembre	2023-09-19T00:00:00	2024-11-08T02:00:00	1	Precipitación	0
148360	7	Sololá	713	San Lucas Tolimán	10	San Lucas Tolimán	9	Septiembre	2023-09-19T00:00:00	2024-11-08T02:00:00	8	Radiación solar	0
148361	7	Sololá	713	San Lucas Tolimán	10	San Lucas Tolimán	9	Septiembre	2023-09-19T00:00:00	2024-11-08T03:00:00	2	Temperatura media	18.3
148362	7	Sololá	713	San Lucas Tolimán	10	San Lucas Tolimán	9	Septiembre	2023-09-19T00:00:00	2024-11-08T03:00:00	4	Temperatura máxima	18.5
148363	7	Sololá	713	San Lucas Tolimán	10	San Lucas Tolimán	9	Septiembre	2023-09-19T00:00:00	2024-11-08T03:00:00	3	Temperatura mínima	17.7
148364	7	Sololá	713	San Lucas Tolimán	10	San Lucas Tolimán	9	Septiembre	2023-09-19T00:00:00	2024-11-08T03:00:00	5	Humedad	75
148365	7	Sololá	713	San Lucas Tolimán	10	San Lucas Tolimán	9	Septiembre	2023-09-19T00:00:00	2024-11-08T03:00:00	6	Velocidad del viento	1.6
148366	7	Sololá	713	San Lucas Tolimán	10	San Lucas Tolimán	9	Septiembre	2023-09-19T00:00:00	2024-11-08T03:00:00	7	Dirección del viento	1.61
148367	7	Sololá	713	San Lucas Tolimán	10	San Lucas Tolimán	9	Septiembre	2023-09-19T00:00:00	2024-11-08T03:00:00	1	Precipitación	0
148368	7	Sololá	713	San Lucas Tolimán	10	San Lucas Tolimán	9	Septiembre	2023-09-19T00:00:00	2024-11-08T03:00:00	8	Radiación solar	0
148369	7	Sololá	713	San Lucas Tolimán	10	San Lucas Tolimán	9	Septiembre	2023-09-19T00:00:00	2024-11-08T04:00:00	2	Temperatura media	17.7
148370	7	Sololá	713	San Lucas Tolimán	10	San Lucas Tolimán	9	Septiembre	2023-09-19T00:00:00	2024-11-08T04:00:00	4	Temperatura máxima	19.1
148371	7	Sololá	713	San Lucas Tolimán	10	San Lucas Tolimán	9	Septiembre	2023-09-19T00:00:00	2024-11-08T04:00:00	3	Temperatura mínima	17.7
148372	7	Sololá	713	San Lucas Tolimán	10	San Lucas Tolimán	9	Septiembre	2023-09-19T00:00:00	2024-11-08T04:00:00	5	Humedad	80
148373	7	Sololá	713	San Lucas Tolimán	10	San Lucas Tolimán	9	Septiembre	2023-09-19T00:00:00	2024-11-08T04:00:00	6	Velocidad del viento	1.6
148374	7	Sololá	713	San Lucas Tolimán	10	San Lucas Tolimán	9	Septiembre	2023-09-19T00:00:00	2024-11-08T04:00:00	7	Dirección del viento	1.61
148375	7	Sololá	713	San Lucas Tolimán	10	San Lucas Tolimán	9	Septiembre	2023-09-19T00:00:00	2024-11-08T04:00:00	1	Precipitación	0
148376	7	Sololá	713	San Lucas Tolimán	10	San Lucas Tolimán	9	Septiembre	2023-09-19T00:00:00	2024-11-08T04:00:00	8	Radiación solar	0
148377	7	Sololá	713	San Lucas Tolimán	10	San Lucas Tolimán	9	Septiembre	2023-09-19T00:00:00	2024-11-08T05:00:00	2	Temperatura media	16.1
148378	7	Sololá	713	San Lucas Tolimán	10	San Lucas Tolimán	9	Septiembre	2023-09-19T00:00:00	2024-11-08T05:00:00	4	Temperatura máxima	17.7
148379	7	Sololá	713	San Lucas Tolimán	10	San Lucas Tolimán	9	Septiembre	2023-09-19T00:00:00	2024-11-08T05:00:00	3	Temperatura mínima	16.1
148380	7	Sololá	713	San Lucas Tolimán	10	San Lucas Tolimán	9	Septiembre	2023-09-19T00:00:00	2024-11-08T05:00:00	5	Humedad	86
148381	7	Sololá	713	San Lucas Tolimán	10	San Lucas Tolimán	9	Septiembre	2023-09-19T00:00:00	2024-11-08T05:00:00	6	Velocidad del viento	0
148382	7	Sololá	713	San Lucas Tolimán	10	San Lucas Tolimán	9	Septiembre	2023-09-19T00:00:00	2024-11-08T05:00:00	7	Dirección del viento	0
148383	7	Sololá	713	San Lucas Tolimán	10	San Lucas Tolimán	9	Septiembre	2023-09-19T00:00:00	2024-11-08T05:00:00	1	Precipitación	0
148384	7	Sololá	713	San Lucas Tolimán	10	San Lucas Tolimán	9	Septiembre	2023-09-19T00:00:00	2024-11-08T05:00:00	8	Radiación solar	0
148385	7	Sololá	713	San Lucas Tolimán	10	San Lucas Tolimán	9	Septiembre	2023-09-19T00:00:00	2024-11-08T06:00:00	2	Temperatura media	15.2
148386	7	Sololá	713	San Lucas Tolimán	10	San Lucas Tolimán	9	Septiembre	2023-09-19T00:00:00	2024-11-08T06:00:00	4	Temperatura máxima	16.1
148387	7	Sololá	713	San Lucas Tolimán	10	San Lucas Tolimán	9	Septiembre	2023-09-19T00:00:00	2024-11-08T06:00:00	3	Temperatura mínima	15.2
148388	7	Sololá	713	San Lucas Tolimán	10	San Lucas Tolimán	9	Septiembre	2023-09-19T00:00:00	2024-11-08T06:00:00	5	Humedad	88
148389	7	Sololá	713	San Lucas Tolimán	10	San Lucas Tolimán	9	Septiembre	2023-09-19T00:00:00	2024-11-08T06:00:00	6	Velocidad del viento	0
148390	7	Sololá	713	San Lucas Tolimán	10	San Lucas Tolimán	9	Septiembre	2023-09-19T00:00:00	2024-11-08T06:00:00	7	Dirección del viento	0
148391	7	Sololá	713	San Lucas Tolimán	10	San Lucas Tolimán	9	Septiembre	2023-09-19T00:00:00	2024-11-08T06:00:00	1	Precipitación	0
148392	7	Sololá	713	San Lucas Tolimán	10	San Lucas Tolimán	9	Septiembre	2023-09-19T00:00:00	2024-11-08T06:00:00	8	Radiación solar	0
148393	7	Sololá	713	San Lucas Tolimán	10	San Lucas Tolimán	9	Septiembre	2023-09-19T00:00:00	2024-11-08T07:00:00	2	Temperatura media	15.6
148394	7	Sololá	713	San Lucas Tolimán	10	San Lucas Tolimán	9	Septiembre	2023-09-19T00:00:00	2024-11-08T07:00:00	4	Temperatura máxima	15.6
148395	7	Sololá	713	San Lucas Tolimán	10	San Lucas Tolimán	9	Septiembre	2023-09-19T00:00:00	2024-11-08T07:00:00	3	Temperatura mínima	15
148396	7	Sololá	713	San Lucas Tolimán	10	San Lucas Tolimán	9	Septiembre	2023-09-19T00:00:00	2024-11-08T07:00:00	5	Humedad	87
148397	7	Sololá	713	San Lucas Tolimán	10	San Lucas Tolimán	9	Septiembre	2023-09-19T00:00:00	2024-11-08T07:00:00	6	Velocidad del viento	0
148398	7	Sololá	713	San Lucas Tolimán	10	San Lucas Tolimán	9	Septiembre	2023-09-19T00:00:00	2024-11-08T07:00:00	7	Dirección del viento	0
148399	7	Sololá	713	San Lucas Tolimán	10	San Lucas Tolimán	9	Septiembre	2023-09-19T00:00:00	2024-11-08T07:00:00	1	Precipitación	0
148400	7	Sololá	713	San Lucas Tolimán	10	San Lucas Tolimán	9	Septiembre	2023-09-19T00:00:00	2024-11-08T07:00:00	8	Radiación solar	23
148401	7	Sololá	713	San Lucas Tolimán	10	San Lucas Tolimán	9	Septiembre	2023-09-19T00:00:00	2024-11-08T08:00:00	2	Temperatura media	19.7
148402	7	Sololá	713	San Lucas Tolimán	10	San Lucas Tolimán	9	Septiembre	2023-09-19T00:00:00	2024-11-08T08:00:00	4	Temperatura máxima	19.7
148403	7	Sololá	713	San Lucas Tolimán	10	San Lucas Tolimán	9	Septiembre	2023-09-19T00:00:00	2024-11-08T08:00:00	3	Temperatura mínima	15.5
148404	7	Sololá	713	San Lucas Tolimán	10	San Lucas Tolimán	9	Septiembre	2023-09-19T00:00:00	2024-11-08T08:00:00	5	Humedad	71
148405	7	Sololá	713	San Lucas Tolimán	10	San Lucas Tolimán	9	Septiembre	2023-09-19T00:00:00	2024-11-08T08:00:00	6	Velocidad del viento	0
148406	7	Sololá	713	San Lucas Tolimán	10	San Lucas Tolimán	9	Septiembre	2023-09-19T00:00:00	2024-11-08T08:00:00	7	Dirección del viento	0
148407	7	Sololá	713	San Lucas Tolimán	10	San Lucas Tolimán	9	Septiembre	2023-09-19T00:00:00	2024-11-08T08:00:00	1	Precipitación	0
148408	7	Sololá	713	San Lucas Tolimán	10	San Lucas Tolimán	9	Septiembre	2023-09-19T00:00:00	2024-11-08T08:00:00	8	Radiación solar	279
148409	7	Sololá	713	San Lucas Tolimán	10	San Lucas Tolimán	9	Septiembre	2023-09-19T00:00:00	2024-11-08T09:00:00	2	Temperatura media	23.2
148410	7	Sololá	713	San Lucas Tolimán	10	San Lucas Tolimán	9	Septiembre	2023-09-19T00:00:00	2024-11-08T09:00:00	4	Temperatura máxima	23.3
148411	7	Sololá	713	San Lucas Tolimán	10	San Lucas Tolimán	9	Septiembre	2023-09-19T00:00:00	2024-11-08T09:00:00	3	Temperatura mínima	19.8
148412	7	Sololá	713	San Lucas Tolimán	10	San Lucas Tolimán	9	Septiembre	2023-09-19T00:00:00	2024-11-08T09:00:00	5	Humedad	59
148413	7	Sololá	713	San Lucas Tolimán	10	San Lucas Tolimán	9	Septiembre	2023-09-19T00:00:00	2024-11-08T09:00:00	6	Velocidad del viento	0
148414	7	Sololá	713	San Lucas Tolimán	10	San Lucas Tolimán	9	Septiembre	2023-09-19T00:00:00	2024-11-08T09:00:00	7	Dirección del viento	0
148415	7	Sololá	713	San Lucas Tolimán	10	San Lucas Tolimán	9	Septiembre	2023-09-19T00:00:00	2024-11-08T09:00:00	1	Precipitación	0
148416	7	Sololá	713	San Lucas Tolimán	10	San Lucas Tolimán	9	Septiembre	2023-09-19T00:00:00	2024-11-08T09:00:00	8	Radiación solar	521
148417	7	Sololá	713	San Lucas Tolimán	10	San Lucas Tolimán	9	Septiembre	2023-09-19T00:00:00	2024-11-08T10:00:00	2	Temperatura media	25.9
148418	7	Sololá	713	San Lucas Tolimán	10	San Lucas Tolimán	9	Septiembre	2023-09-19T00:00:00	2024-11-08T10:00:00	4	Temperatura máxima	26.2
148419	7	Sololá	713	San Lucas Tolimán	10	San Lucas Tolimán	9	Septiembre	2023-09-19T00:00:00	2024-11-08T10:00:00	3	Temperatura mínima	23.2
148420	7	Sololá	713	San Lucas Tolimán	10	San Lucas Tolimán	9	Septiembre	2023-09-19T00:00:00	2024-11-08T10:00:00	5	Humedad	62
148421	7	Sololá	713	San Lucas Tolimán	10	San Lucas Tolimán	9	Septiembre	2023-09-19T00:00:00	2024-11-08T10:00:00	6	Velocidad del viento	1.6
148422	7	Sololá	713	San Lucas Tolimán	10	San Lucas Tolimán	9	Septiembre	2023-09-19T00:00:00	2024-11-08T10:00:00	7	Dirección del viento	1.61
148423	7	Sololá	713	San Lucas Tolimán	10	San Lucas Tolimán	9	Septiembre	2023-09-19T00:00:00	2024-11-08T10:00:00	1	Precipitación	0
148424	7	Sololá	713	San Lucas Tolimán	10	San Lucas Tolimán	9	Septiembre	2023-09-19T00:00:00	2024-11-08T10:00:00	8	Radiación solar	697
148425	7	Sololá	713	San Lucas Tolimán	10	San Lucas Tolimán	9	Septiembre	2023-09-19T00:00:00	2024-11-08T11:00:00	2	Temperatura media	25.4
148426	7	Sololá	713	San Lucas Tolimán	10	San Lucas Tolimán	9	Septiembre	2023-09-19T00:00:00	2024-11-08T11:00:00	4	Temperatura máxima	26.2
148427	7	Sololá	713	San Lucas Tolimán	10	San Lucas Tolimán	9	Septiembre	2023-09-19T00:00:00	2024-11-08T11:00:00	3	Temperatura mínima	25.4
148428	7	Sololá	713	San Lucas Tolimán	10	San Lucas Tolimán	9	Septiembre	2023-09-19T00:00:00	2024-11-08T11:00:00	5	Humedad	69
148429	7	Sololá	713	San Lucas Tolimán	10	San Lucas Tolimán	9	Septiembre	2023-09-19T00:00:00	2024-11-08T11:00:00	6	Velocidad del viento	4.8
148430	7	Sololá	713	San Lucas Tolimán	10	San Lucas Tolimán	9	Septiembre	2023-09-19T00:00:00	2024-11-08T11:00:00	7	Dirección del viento	4.83
148431	7	Sololá	713	San Lucas Tolimán	10	San Lucas Tolimán	9	Septiembre	2023-09-19T00:00:00	2024-11-08T11:00:00	1	Precipitación	0
148432	7	Sololá	713	San Lucas Tolimán	10	San Lucas Tolimán	9	Septiembre	2023-09-19T00:00:00	2024-11-08T11:00:00	8	Radiación solar	896
148433	7	Sololá	713	San Lucas Tolimán	10	San Lucas Tolimán	9	Septiembre	2023-09-19T00:00:00	2024-11-08T12:00:00	2	Temperatura media	25.8
148434	7	Sololá	713	San Lucas Tolimán	10	San Lucas Tolimán	9	Septiembre	2023-09-19T00:00:00	2024-11-08T12:00:00	4	Temperatura máxima	26.2
148435	7	Sololá	713	San Lucas Tolimán	10	San Lucas Tolimán	9	Septiembre	2023-09-19T00:00:00	2024-11-08T12:00:00	3	Temperatura mínima	25.1
148436	7	Sololá	713	San Lucas Tolimán	10	San Lucas Tolimán	9	Septiembre	2023-09-19T00:00:00	2024-11-08T12:00:00	5	Humedad	71
148437	7	Sololá	713	San Lucas Tolimán	10	San Lucas Tolimán	9	Septiembre	2023-09-19T00:00:00	2024-11-08T12:00:00	6	Velocidad del viento	6.4
148438	7	Sololá	713	San Lucas Tolimán	10	San Lucas Tolimán	9	Septiembre	2023-09-19T00:00:00	2024-11-08T12:00:00	7	Dirección del viento	6.44
148439	7	Sololá	713	San Lucas Tolimán	10	San Lucas Tolimán	9	Septiembre	2023-09-19T00:00:00	2024-11-08T12:00:00	1	Precipitación	0
148440	7	Sololá	713	San Lucas Tolimán	10	San Lucas Tolimán	9	Septiembre	2023-09-19T00:00:00	2024-11-08T12:00:00	8	Radiación solar	987
148441	7	Sololá	713	San Lucas Tolimán	10	San Lucas Tolimán	9	Septiembre	2023-09-19T00:00:00	2024-11-08T13:00:00	2	Temperatura media	26.3
148442	7	Sololá	713	San Lucas Tolimán	10	San Lucas Tolimán	9	Septiembre	2023-09-19T00:00:00	2024-11-08T13:00:00	4	Temperatura máxima	26.6
148443	7	Sololá	713	San Lucas Tolimán	10	San Lucas Tolimán	9	Septiembre	2023-09-19T00:00:00	2024-11-08T13:00:00	3	Temperatura mínima	25.8
148444	7	Sololá	713	San Lucas Tolimán	10	San Lucas Tolimán	9	Septiembre	2023-09-19T00:00:00	2024-11-08T13:00:00	5	Humedad	72
148445	7	Sololá	713	San Lucas Tolimán	10	San Lucas Tolimán	9	Septiembre	2023-09-19T00:00:00	2024-11-08T13:00:00	6	Velocidad del viento	6.4
148446	7	Sololá	713	San Lucas Tolimán	10	San Lucas Tolimán	9	Septiembre	2023-09-19T00:00:00	2024-11-08T13:00:00	7	Dirección del viento	6.44
148447	7	Sololá	713	San Lucas Tolimán	10	San Lucas Tolimán	9	Septiembre	2023-09-19T00:00:00	2024-11-08T13:00:00	1	Precipitación	0
148448	7	Sololá	713	San Lucas Tolimán	10	San Lucas Tolimán	9	Septiembre	2023-09-19T00:00:00	2024-11-08T13:00:00	8	Radiación solar	903
148449	7	Sololá	713	San Lucas Tolimán	10	San Lucas Tolimán	9	Septiembre	2023-09-19T00:00:00	2024-11-08T14:00:00	2	Temperatura media	26.4
148450	7	Sololá	713	San Lucas Tolimán	10	San Lucas Tolimán	9	Septiembre	2023-09-19T00:00:00	2024-11-08T14:00:00	4	Temperatura máxima	26.4
148451	7	Sololá	713	San Lucas Tolimán	10	San Lucas Tolimán	9	Septiembre	2023-09-19T00:00:00	2024-11-08T14:00:00	3	Temperatura mínima	25.8
148452	7	Sololá	713	San Lucas Tolimán	10	San Lucas Tolimán	9	Septiembre	2023-09-19T00:00:00	2024-11-08T14:00:00	5	Humedad	71
148453	7	Sololá	713	San Lucas Tolimán	10	San Lucas Tolimán	9	Septiembre	2023-09-19T00:00:00	2024-11-08T14:00:00	6	Velocidad del viento	6.4
148454	7	Sololá	713	San Lucas Tolimán	10	San Lucas Tolimán	9	Septiembre	2023-09-19T00:00:00	2024-11-08T14:00:00	7	Dirección del viento	6.44
148455	7	Sololá	713	San Lucas Tolimán	10	San Lucas Tolimán	9	Septiembre	2023-09-19T00:00:00	2024-11-08T14:00:00	1	Precipitación	0
148456	7	Sololá	713	San Lucas Tolimán	10	San Lucas Tolimán	9	Septiembre	2023-09-19T00:00:00	2024-11-08T14:00:00	8	Radiación solar	443
148457	7	Sololá	713	San Lucas Tolimán	10	San Lucas Tolimán	9	Septiembre	2023-09-19T00:00:00	2024-11-08T15:00:00	2	Temperatura media	25.8
148458	7	Sololá	713	San Lucas Tolimán	10	San Lucas Tolimán	9	Septiembre	2023-09-19T00:00:00	2024-11-08T15:00:00	4	Temperatura máxima	26.6
148459	7	Sololá	713	San Lucas Tolimán	10	San Lucas Tolimán	9	Septiembre	2023-09-19T00:00:00	2024-11-08T15:00:00	3	Temperatura mínima	25.8
148460	7	Sololá	713	San Lucas Tolimán	10	San Lucas Tolimán	9	Septiembre	2023-09-19T00:00:00	2024-11-08T15:00:00	5	Humedad	72
148461	7	Sololá	713	San Lucas Tolimán	10	San Lucas Tolimán	9	Septiembre	2023-09-19T00:00:00	2024-11-08T15:00:00	6	Velocidad del viento	8
148462	7	Sololá	713	San Lucas Tolimán	10	San Lucas Tolimán	9	Septiembre	2023-09-19T00:00:00	2024-11-08T15:00:00	7	Dirección del viento	8.05
148463	7	Sololá	713	San Lucas Tolimán	10	San Lucas Tolimán	9	Septiembre	2023-09-19T00:00:00	2024-11-08T15:00:00	1	Precipitación	0
148464	7	Sololá	713	San Lucas Tolimán	10	San Lucas Tolimán	9	Septiembre	2023-09-19T00:00:00	2024-11-08T15:00:00	8	Radiación solar	281
148465	7	Sololá	713	San Lucas Tolimán	10	San Lucas Tolimán	9	Septiembre	2023-09-19T00:00:00	2024-11-08T16:00:00	2	Temperatura media	23.9
148466	7	Sololá	713	San Lucas Tolimán	10	San Lucas Tolimán	9	Septiembre	2023-09-19T00:00:00	2024-11-08T16:00:00	4	Temperatura máxima	26.1
148467	7	Sololá	713	San Lucas Tolimán	10	San Lucas Tolimán	9	Septiembre	2023-09-19T00:00:00	2024-11-08T16:00:00	3	Temperatura mínima	23.7
148468	7	Sololá	713	San Lucas Tolimán	10	San Lucas Tolimán	9	Septiembre	2023-09-19T00:00:00	2024-11-08T16:00:00	5	Humedad	77
148469	7	Sololá	713	San Lucas Tolimán	10	San Lucas Tolimán	9	Septiembre	2023-09-19T00:00:00	2024-11-08T16:00:00	6	Velocidad del viento	8
148470	7	Sololá	713	San Lucas Tolimán	10	San Lucas Tolimán	9	Septiembre	2023-09-19T00:00:00	2024-11-08T16:00:00	7	Dirección del viento	8.05
148471	7	Sololá	713	San Lucas Tolimán	10	San Lucas Tolimán	9	Septiembre	2023-09-19T00:00:00	2024-11-08T16:00:00	1	Precipitación	0
148472	7	Sololá	713	San Lucas Tolimán	10	San Lucas Tolimán	9	Septiembre	2023-09-19T00:00:00	2024-11-08T16:00:00	8	Radiación solar	49
148473	7	Sololá	713	San Lucas Tolimán	10	San Lucas Tolimán	9	Septiembre	2023-09-19T00:00:00	2024-11-08T17:00:00	2	Temperatura media	21.6
148474	7	Sololá	713	San Lucas Tolimán	10	San Lucas Tolimán	9	Septiembre	2023-09-19T00:00:00	2024-11-08T17:00:00	4	Temperatura máxima	22.1
148475	7	Sololá	713	San Lucas Tolimán	10	San Lucas Tolimán	9	Septiembre	2023-09-19T00:00:00	2024-11-08T17:00:00	3	Temperatura mínima	21.6
148476	7	Sololá	713	San Lucas Tolimán	10	San Lucas Tolimán	9	Septiembre	2023-09-19T00:00:00	2024-11-08T17:00:00	5	Humedad	61
148477	7	Sololá	713	San Lucas Tolimán	10	San Lucas Tolimán	9	Septiembre	2023-09-19T00:00:00	2024-11-08T17:00:00	6	Velocidad del viento	11.3
148478	7	Sololá	713	San Lucas Tolimán	10	San Lucas Tolimán	9	Septiembre	2023-09-19T00:00:00	2024-11-08T17:00:00	7	Dirección del viento	11.27
148479	7	Sololá	713	San Lucas Tolimán	10	San Lucas Tolimán	9	Septiembre	2023-09-19T00:00:00	2024-11-08T17:00:00	1	Precipitación	0
148480	7	Sololá	713	San Lucas Tolimán	10	San Lucas Tolimán	9	Septiembre	2023-09-19T00:00:00	2024-11-08T17:00:00	8	Radiación solar	303
148481	7	Sololá	713	San Lucas Tolimán	10	San Lucas Tolimán	9	Septiembre	2023-09-19T00:00:00	2024-11-08T18:00:00	2	Temperatura media	19.8
148482	7	Sololá	713	San Lucas Tolimán	10	San Lucas Tolimán	9	Septiembre	2023-09-19T00:00:00	2024-11-08T18:00:00	4	Temperatura máxima	21.7
148483	7	Sololá	713	San Lucas Tolimán	10	San Lucas Tolimán	9	Septiembre	2023-09-19T00:00:00	2024-11-08T18:00:00	3	Temperatura mínima	19.8
148484	7	Sololá	713	San Lucas Tolimán	10	San Lucas Tolimán	9	Septiembre	2023-09-19T00:00:00	2024-11-08T18:00:00	5	Humedad	60
148485	7	Sololá	713	San Lucas Tolimán	10	San Lucas Tolimán	9	Septiembre	2023-09-19T00:00:00	2024-11-08T18:00:00	6	Velocidad del viento	8
148486	7	Sololá	713	San Lucas Tolimán	10	San Lucas Tolimán	9	Septiembre	2023-09-19T00:00:00	2024-11-08T18:00:00	7	Dirección del viento	8.05
148487	7	Sololá	713	San Lucas Tolimán	10	San Lucas Tolimán	9	Septiembre	2023-09-19T00:00:00	2024-11-08T18:00:00	1	Precipitación	0
148488	7	Sololá	713	San Lucas Tolimán	10	San Lucas Tolimán	9	Septiembre	2023-09-19T00:00:00	2024-11-08T18:00:00	8	Radiación solar	35
148489	7	Sololá	713	San Lucas Tolimán	10	San Lucas Tolimán	9	Septiembre	2023-09-19T00:00:00	2024-11-08T19:00:00	2	Temperatura media	19.6
148490	7	Sololá	713	San Lucas Tolimán	10	San Lucas Tolimán	9	Septiembre	2023-09-19T00:00:00	2024-11-08T19:00:00	4	Temperatura máxima	19.8
148491	7	Sololá	713	San Lucas Tolimán	10	San Lucas Tolimán	9	Septiembre	2023-09-19T00:00:00	2024-11-08T19:00:00	3	Temperatura mínima	19.6
148492	7	Sololá	713	San Lucas Tolimán	10	San Lucas Tolimán	9	Septiembre	2023-09-19T00:00:00	2024-11-08T19:00:00	5	Humedad	58
148493	7	Sololá	713	San Lucas Tolimán	10	San Lucas Tolimán	9	Septiembre	2023-09-19T00:00:00	2024-11-08T19:00:00	6	Velocidad del viento	8
148494	7	Sololá	713	San Lucas Tolimán	10	San Lucas Tolimán	9	Septiembre	2023-09-19T00:00:00	2024-11-08T19:00:00	7	Dirección del viento	8.05
148495	7	Sololá	713	San Lucas Tolimán	10	San Lucas Tolimán	9	Septiembre	2023-09-19T00:00:00	2024-11-08T19:00:00	1	Precipitación	0
148496	7	Sololá	713	San Lucas Tolimán	10	San Lucas Tolimán	9	Septiembre	2023-09-19T00:00:00	2024-11-08T19:00:00	8	Radiación solar	0
148497	7	Sololá	713	San Lucas Tolimán	10	San Lucas Tolimán	9	Septiembre	2023-09-19T00:00:00	2024-11-08T20:00:00	2	Temperatura media	18.8
148498	7	Sololá	713	San Lucas Tolimán	10	San Lucas Tolimán	9	Septiembre	2023-09-19T00:00:00	2024-11-08T20:00:00	4	Temperatura máxima	19.6
148499	7	Sololá	713	San Lucas Tolimán	10	San Lucas Tolimán	9	Septiembre	2023-09-19T00:00:00	2024-11-08T20:00:00	3	Temperatura mínima	18.8
148500	7	Sololá	713	San Lucas Tolimán	10	San Lucas Tolimán	9	Septiembre	2023-09-19T00:00:00	2024-11-08T20:00:00	5	Humedad	58
148501	7	Sololá	713	San Lucas Tolimán	10	San Lucas Tolimán	9	Septiembre	2023-09-19T00:00:00	2024-11-08T20:00:00	6	Velocidad del viento	3.2
148502	7	Sololá	713	San Lucas Tolimán	10	San Lucas Tolimán	9	Septiembre	2023-09-19T00:00:00	2024-11-08T20:00:00	7	Dirección del viento	3.22
148503	7	Sololá	713	San Lucas Tolimán	10	San Lucas Tolimán	9	Septiembre	2023-09-19T00:00:00	2024-11-08T20:00:00	1	Precipitación	0
148504	7	Sololá	713	San Lucas Tolimán	10	San Lucas Tolimán	9	Septiembre	2023-09-19T00:00:00	2024-11-08T20:00:00	8	Radiación solar	0
148505	7	Sololá	713	San Lucas Tolimán	10	San Lucas Tolimán	9	Septiembre	2023-09-19T00:00:00	2024-11-08T21:00:00	2	Temperatura media	18.5
148506	7	Sololá	713	San Lucas Tolimán	10	San Lucas Tolimán	9	Septiembre	2023-09-19T00:00:00	2024-11-08T21:00:00	4	Temperatura máxima	18.8
148507	7	Sololá	713	San Lucas Tolimán	10	San Lucas Tolimán	9	Septiembre	2023-09-19T00:00:00	2024-11-08T21:00:00	3	Temperatura mínima	18.4
148508	7	Sololá	713	San Lucas Tolimán	10	San Lucas Tolimán	9	Septiembre	2023-09-19T00:00:00	2024-11-08T21:00:00	5	Humedad	58
148509	7	Sololá	713	San Lucas Tolimán	10	San Lucas Tolimán	9	Septiembre	2023-09-19T00:00:00	2024-11-08T21:00:00	6	Velocidad del viento	1.6
148510	7	Sololá	713	San Lucas Tolimán	10	San Lucas Tolimán	9	Septiembre	2023-09-19T00:00:00	2024-11-08T21:00:00	7	Dirección del viento	1.61
148511	7	Sololá	713	San Lucas Tolimán	10	San Lucas Tolimán	9	Septiembre	2023-09-19T00:00:00	2024-11-08T21:00:00	1	Precipitación	0
148512	7	Sololá	713	San Lucas Tolimán	10	San Lucas Tolimán	9	Septiembre	2023-09-19T00:00:00	2024-11-08T21:00:00	8	Radiación solar	0
148513	7	Sololá	713	San Lucas Tolimán	10	San Lucas Tolimán	9	Septiembre	2023-09-19T00:00:00	2024-11-08T22:00:00	2	Temperatura media	19.2
148514	7	Sololá	713	San Lucas Tolimán	10	San Lucas Tolimán	9	Septiembre	2023-09-19T00:00:00	2024-11-08T22:00:00	4	Temperatura máxima	19.2
148515	7	Sololá	713	San Lucas Tolimán	10	San Lucas Tolimán	9	Septiembre	2023-09-19T00:00:00	2024-11-08T22:00:00	3	Temperatura mínima	18.4
148516	7	Sololá	713	San Lucas Tolimán	10	San Lucas Tolimán	9	Septiembre	2023-09-19T00:00:00	2024-11-08T22:00:00	5	Humedad	56
148517	7	Sololá	713	San Lucas Tolimán	10	San Lucas Tolimán	9	Septiembre	2023-09-19T00:00:00	2024-11-08T22:00:00	6	Velocidad del viento	1.6
148518	7	Sololá	713	San Lucas Tolimán	10	San Lucas Tolimán	9	Septiembre	2023-09-19T00:00:00	2024-11-08T22:00:00	7	Dirección del viento	1.61
148519	7	Sololá	713	San Lucas Tolimán	10	San Lucas Tolimán	9	Septiembre	2023-09-19T00:00:00	2024-11-08T22:00:00	1	Precipitación	0
148520	7	Sololá	713	San Lucas Tolimán	10	San Lucas Tolimán	9	Septiembre	2023-09-19T00:00:00	2024-11-08T22:00:00	8	Radiación solar	0
148521	7	Sololá	713	San Lucas Tolimán	10	San Lucas Tolimán	9	Septiembre	2023-09-19T00:00:00	2024-11-08T23:00:00	2	Temperatura media	17.3
148522	7	Sololá	713	San Lucas Tolimán	10	San Lucas Tolimán	9	Septiembre	2023-09-19T00:00:00	2024-11-08T23:00:00	4	Temperatura máxima	19.1
148523	7	Sololá	713	San Lucas Tolimán	10	San Lucas Tolimán	9	Septiembre	2023-09-19T00:00:00	2024-11-08T23:00:00	3	Temperatura mínima	17.3
148524	7	Sololá	713	San Lucas Tolimán	10	San Lucas Tolimán	9	Septiembre	2023-09-19T00:00:00	2024-11-08T23:00:00	5	Humedad	60
148525	7	Sololá	713	San Lucas Tolimán	10	San Lucas Tolimán	9	Septiembre	2023-09-19T00:00:00	2024-11-08T23:00:00	6	Velocidad del viento	1.6
148526	7	Sololá	713	San Lucas Tolimán	10	San Lucas Tolimán	9	Septiembre	2023-09-19T00:00:00	2024-11-08T23:00:00	7	Dirección del viento	1.61
148527	7	Sololá	713	San Lucas Tolimán	10	San Lucas Tolimán	9	Septiembre	2023-09-19T00:00:00	2024-11-08T23:00:00	1	Precipitación	0
148528	7	Sololá	713	San Lucas Tolimán	10	San Lucas Tolimán	9	Septiembre	2023-09-19T00:00:00	2024-11-08T23:00:00	8	Radiación solar	0
148529	7	Sololá	713	San Lucas Tolimán	10	San Lucas Tolimán	9	Septiembre	2023-09-20T00:00:00	2024-11-08T00:00:00	2	Temperatura media	16.6
148530	7	Sololá	713	San Lucas Tolimán	10	San Lucas Tolimán	9	Septiembre	2023-09-20T00:00:00	2024-11-08T00:00:00	4	Temperatura máxima	17.4
148531	7	Sololá	713	San Lucas Tolimán	10	San Lucas Tolimán	9	Septiembre	2023-09-20T00:00:00	2024-11-08T00:00:00	3	Temperatura mínima	16.6
148532	7	Sololá	713	San Lucas Tolimán	10	San Lucas Tolimán	9	Septiembre	2023-09-20T00:00:00	2024-11-08T00:00:00	5	Humedad	60
148533	7	Sololá	713	San Lucas Tolimán	10	San Lucas Tolimán	9	Septiembre	2023-09-20T00:00:00	2024-11-08T00:00:00	6	Velocidad del viento	0
148534	7	Sololá	713	San Lucas Tolimán	10	San Lucas Tolimán	9	Septiembre	2023-09-20T00:00:00	2024-11-08T00:00:00	7	Dirección del viento	0
148535	7	Sololá	713	San Lucas Tolimán	10	San Lucas Tolimán	9	Septiembre	2023-09-20T00:00:00	2024-11-08T00:00:00	1	Precipitación	0
148536	7	Sololá	713	San Lucas Tolimán	10	San Lucas Tolimán	9	Septiembre	2023-09-20T00:00:00	2024-11-08T00:00:00	8	Radiación solar	0
148537	7	Sololá	713	San Lucas Tolimán	10	San Lucas Tolimán	9	Septiembre	2023-09-20T00:00:00	2024-11-08T01:00:00	2	Temperatura media	17.1
148538	7	Sololá	713	San Lucas Tolimán	10	San Lucas Tolimán	9	Septiembre	2023-09-20T00:00:00	2024-11-08T01:00:00	4	Temperatura máxima	17.3
148539	7	Sololá	713	San Lucas Tolimán	10	San Lucas Tolimán	9	Septiembre	2023-09-20T00:00:00	2024-11-08T01:00:00	3	Temperatura mínima	16.6
148540	7	Sololá	713	San Lucas Tolimán	10	San Lucas Tolimán	9	Septiembre	2023-09-20T00:00:00	2024-11-08T01:00:00	5	Humedad	57
148541	7	Sololá	713	San Lucas Tolimán	10	San Lucas Tolimán	9	Septiembre	2023-09-20T00:00:00	2024-11-08T01:00:00	6	Velocidad del viento	0
148542	7	Sololá	713	San Lucas Tolimán	10	San Lucas Tolimán	9	Septiembre	2023-09-20T00:00:00	2024-11-08T01:00:00	7	Dirección del viento	0
148543	7	Sololá	713	San Lucas Tolimán	10	San Lucas Tolimán	9	Septiembre	2023-09-20T00:00:00	2024-11-08T01:00:00	1	Precipitación	0
148544	7	Sololá	713	San Lucas Tolimán	10	San Lucas Tolimán	9	Septiembre	2023-09-20T00:00:00	2024-11-08T01:00:00	8	Radiación solar	0
148545	7	Sololá	713	San Lucas Tolimán	10	San Lucas Tolimán	9	Septiembre	2023-09-20T00:00:00	2024-11-08T02:00:00	2	Temperatura media	16.4
148546	7	Sololá	713	San Lucas Tolimán	10	San Lucas Tolimán	9	Septiembre	2023-09-20T00:00:00	2024-11-08T02:00:00	4	Temperatura máxima	17.1
148547	7	Sololá	713	San Lucas Tolimán	10	San Lucas Tolimán	9	Septiembre	2023-09-20T00:00:00	2024-11-08T02:00:00	3	Temperatura mínima	16.3
148548	7	Sololá	713	San Lucas Tolimán	10	San Lucas Tolimán	9	Septiembre	2023-09-20T00:00:00	2024-11-08T02:00:00	5	Humedad	58
148549	7	Sololá	713	San Lucas Tolimán	10	San Lucas Tolimán	9	Septiembre	2023-09-20T00:00:00	2024-11-08T02:00:00	6	Velocidad del viento	1.6
148550	7	Sololá	713	San Lucas Tolimán	10	San Lucas Tolimán	9	Septiembre	2023-09-20T00:00:00	2024-11-08T02:00:00	7	Dirección del viento	1.61
148551	7	Sololá	713	San Lucas Tolimán	10	San Lucas Tolimán	9	Septiembre	2023-09-20T00:00:00	2024-11-08T02:00:00	1	Precipitación	0
148552	7	Sololá	713	San Lucas Tolimán	10	San Lucas Tolimán	9	Septiembre	2023-09-20T00:00:00	2024-11-08T02:00:00	8	Radiación solar	0
148553	7	Sololá	713	San Lucas Tolimán	10	San Lucas Tolimán	9	Septiembre	2023-09-20T00:00:00	2024-11-08T03:00:00	2	Temperatura media	17.2
148554	7	Sololá	713	San Lucas Tolimán	10	San Lucas Tolimán	9	Septiembre	2023-09-20T00:00:00	2024-11-08T03:00:00	4	Temperatura máxima	17.3
148555	7	Sololá	713	San Lucas Tolimán	10	San Lucas Tolimán	9	Septiembre	2023-09-20T00:00:00	2024-11-08T03:00:00	3	Temperatura mínima	16.3
148556	7	Sololá	713	San Lucas Tolimán	10	San Lucas Tolimán	9	Septiembre	2023-09-20T00:00:00	2024-11-08T03:00:00	5	Humedad	56
148557	7	Sololá	713	San Lucas Tolimán	10	San Lucas Tolimán	9	Septiembre	2023-09-20T00:00:00	2024-11-08T03:00:00	6	Velocidad del viento	1.6
148558	7	Sololá	713	San Lucas Tolimán	10	San Lucas Tolimán	9	Septiembre	2023-09-20T00:00:00	2024-11-08T03:00:00	7	Dirección del viento	1.61
148559	7	Sololá	713	San Lucas Tolimán	10	San Lucas Tolimán	9	Septiembre	2023-09-20T00:00:00	2024-11-08T03:00:00	1	Precipitación	0
148560	7	Sololá	713	San Lucas Tolimán	10	San Lucas Tolimán	9	Septiembre	2023-09-20T00:00:00	2024-11-08T03:00:00	8	Radiación solar	0
148561	7	Sololá	713	San Lucas Tolimán	10	San Lucas Tolimán	9	Septiembre	2023-09-20T00:00:00	2024-11-08T04:00:00	2	Temperatura media	15.6
148562	7	Sololá	713	San Lucas Tolimán	10	San Lucas Tolimán	9	Septiembre	2023-09-20T00:00:00	2024-11-08T04:00:00	4	Temperatura máxima	17.2
148563	7	Sololá	713	San Lucas Tolimán	10	San Lucas Tolimán	9	Septiembre	2023-09-20T00:00:00	2024-11-08T04:00:00	3	Temperatura mínima	15.4
148564	7	Sololá	713	San Lucas Tolimán	10	San Lucas Tolimán	9	Septiembre	2023-09-20T00:00:00	2024-11-08T04:00:00	5	Humedad	61
148565	7	Sololá	713	San Lucas Tolimán	10	San Lucas Tolimán	9	Septiembre	2023-09-20T00:00:00	2024-11-08T04:00:00	6	Velocidad del viento	3.2
148566	7	Sololá	713	San Lucas Tolimán	10	San Lucas Tolimán	9	Septiembre	2023-09-20T00:00:00	2024-11-08T04:00:00	7	Dirección del viento	3.22
148567	7	Sololá	713	San Lucas Tolimán	10	San Lucas Tolimán	9	Septiembre	2023-09-20T00:00:00	2024-11-08T04:00:00	1	Precipitación	0
148568	7	Sololá	713	San Lucas Tolimán	10	San Lucas Tolimán	9	Septiembre	2023-09-20T00:00:00	2024-11-08T04:00:00	8	Radiación solar	0
148569	7	Sololá	713	San Lucas Tolimán	10	San Lucas Tolimán	9	Septiembre	2023-09-20T00:00:00	2024-11-08T05:00:00	2	Temperatura media	15.9
148570	7	Sololá	713	San Lucas Tolimán	10	San Lucas Tolimán	9	Septiembre	2023-09-20T00:00:00	2024-11-08T05:00:00	4	Temperatura máxima	16.8
148571	7	Sololá	713	San Lucas Tolimán	10	San Lucas Tolimán	9	Septiembre	2023-09-20T00:00:00	2024-11-08T05:00:00	3	Temperatura mínima	15.7
148572	7	Sololá	713	San Lucas Tolimán	10	San Lucas Tolimán	9	Septiembre	2023-09-20T00:00:00	2024-11-08T05:00:00	5	Humedad	60
148573	7	Sololá	713	San Lucas Tolimán	10	San Lucas Tolimán	9	Septiembre	2023-09-20T00:00:00	2024-11-08T05:00:00	6	Velocidad del viento	4.8
148574	7	Sololá	713	San Lucas Tolimán	10	San Lucas Tolimán	9	Septiembre	2023-09-20T00:00:00	2024-11-08T05:00:00	7	Dirección del viento	4.83
148575	7	Sololá	713	San Lucas Tolimán	10	San Lucas Tolimán	9	Septiembre	2023-09-20T00:00:00	2024-11-08T05:00:00	1	Precipitación	0
148576	7	Sololá	713	San Lucas Tolimán	10	San Lucas Tolimán	9	Septiembre	2023-09-20T00:00:00	2024-11-08T05:00:00	8	Radiación solar	0
148577	7	Sololá	713	San Lucas Tolimán	10	San Lucas Tolimán	9	Septiembre	2023-09-20T00:00:00	2024-11-08T06:00:00	2	Temperatura media	16.2
148578	7	Sololá	713	San Lucas Tolimán	10	San Lucas Tolimán	9	Septiembre	2023-09-20T00:00:00	2024-11-08T06:00:00	4	Temperatura máxima	16.2
148579	7	Sololá	713	San Lucas Tolimán	10	San Lucas Tolimán	9	Septiembre	2023-09-20T00:00:00	2024-11-08T06:00:00	3	Temperatura mínima	15.7
148580	7	Sololá	713	San Lucas Tolimán	10	San Lucas Tolimán	9	Septiembre	2023-09-20T00:00:00	2024-11-08T06:00:00	5	Humedad	57
148581	7	Sololá	713	San Lucas Tolimán	10	San Lucas Tolimán	9	Septiembre	2023-09-20T00:00:00	2024-11-08T06:00:00	6	Velocidad del viento	1.6
148582	7	Sololá	713	San Lucas Tolimán	10	San Lucas Tolimán	9	Septiembre	2023-09-20T00:00:00	2024-11-08T06:00:00	7	Dirección del viento	1.61
148583	7	Sololá	713	San Lucas Tolimán	10	San Lucas Tolimán	9	Septiembre	2023-09-20T00:00:00	2024-11-08T06:00:00	1	Precipitación	0
148584	7	Sololá	713	San Lucas Tolimán	10	San Lucas Tolimán	9	Septiembre	2023-09-20T00:00:00	2024-11-08T06:00:00	8	Radiación solar	0
148585	7	Sololá	713	San Lucas Tolimán	10	San Lucas Tolimán	9	Septiembre	2023-09-20T00:00:00	2024-11-08T07:00:00	2	Temperatura media	16.6
148586	7	Sololá	713	San Lucas Tolimán	10	San Lucas Tolimán	9	Septiembre	2023-09-20T00:00:00	2024-11-08T07:00:00	4	Temperatura máxima	16.6
148587	7	Sololá	713	San Lucas Tolimán	10	San Lucas Tolimán	9	Septiembre	2023-09-20T00:00:00	2024-11-08T07:00:00	3	Temperatura mínima	16.1
148588	7	Sololá	713	San Lucas Tolimán	10	San Lucas Tolimán	9	Septiembre	2023-09-20T00:00:00	2024-11-08T07:00:00	5	Humedad	58
148589	7	Sololá	713	San Lucas Tolimán	10	San Lucas Tolimán	9	Septiembre	2023-09-20T00:00:00	2024-11-08T07:00:00	6	Velocidad del viento	1.6
148590	7	Sololá	713	San Lucas Tolimán	10	San Lucas Tolimán	9	Septiembre	2023-09-20T00:00:00	2024-11-08T07:00:00	7	Dirección del viento	1.61
148591	7	Sololá	713	San Lucas Tolimán	10	San Lucas Tolimán	9	Septiembre	2023-09-20T00:00:00	2024-11-08T07:00:00	1	Precipitación	0
148592	7	Sololá	713	San Lucas Tolimán	10	San Lucas Tolimán	9	Septiembre	2023-09-20T00:00:00	2024-11-08T07:00:00	8	Radiación solar	43
148593	7	Sololá	713	San Lucas Tolimán	10	San Lucas Tolimán	9	Septiembre	2023-09-20T00:00:00	2024-11-08T08:00:00	2	Temperatura media	20.3
148594	7	Sololá	713	San Lucas Tolimán	10	San Lucas Tolimán	9	Septiembre	2023-09-20T00:00:00	2024-11-08T08:00:00	4	Temperatura máxima	20.3
148595	7	Sololá	713	San Lucas Tolimán	10	San Lucas Tolimán	9	Septiembre	2023-09-20T00:00:00	2024-11-08T08:00:00	3	Temperatura mínima	16.6
148596	7	Sololá	713	San Lucas Tolimán	10	San Lucas Tolimán	9	Septiembre	2023-09-20T00:00:00	2024-11-08T08:00:00	5	Humedad	55
148597	7	Sololá	713	San Lucas Tolimán	10	San Lucas Tolimán	9	Septiembre	2023-09-20T00:00:00	2024-11-08T08:00:00	6	Velocidad del viento	4.8
148598	7	Sololá	713	San Lucas Tolimán	10	San Lucas Tolimán	9	Septiembre	2023-09-20T00:00:00	2024-11-08T08:00:00	7	Dirección del viento	4.83
148599	7	Sololá	713	San Lucas Tolimán	10	San Lucas Tolimán	9	Septiembre	2023-09-20T00:00:00	2024-11-08T08:00:00	1	Precipitación	0
148600	7	Sololá	713	San Lucas Tolimán	10	San Lucas Tolimán	9	Septiembre	2023-09-20T00:00:00	2024-11-08T08:00:00	8	Radiación solar	293
148601	7	Sololá	713	San Lucas Tolimán	10	San Lucas Tolimán	9	Septiembre	2023-09-20T00:00:00	2024-11-08T09:00:00	2	Temperatura media	22.1
148602	7	Sololá	713	San Lucas Tolimán	10	San Lucas Tolimán	9	Septiembre	2023-09-20T00:00:00	2024-11-08T09:00:00	4	Temperatura máxima	22.1
148603	7	Sololá	713	San Lucas Tolimán	10	San Lucas Tolimán	9	Septiembre	2023-09-20T00:00:00	2024-11-08T09:00:00	3	Temperatura mínima	20.3
148604	7	Sololá	713	San Lucas Tolimán	10	San Lucas Tolimán	9	Septiembre	2023-09-20T00:00:00	2024-11-08T09:00:00	5	Humedad	52
148605	7	Sololá	713	San Lucas Tolimán	10	San Lucas Tolimán	9	Septiembre	2023-09-20T00:00:00	2024-11-08T09:00:00	6	Velocidad del viento	6.4
148606	7	Sololá	713	San Lucas Tolimán	10	San Lucas Tolimán	9	Septiembre	2023-09-20T00:00:00	2024-11-08T09:00:00	7	Dirección del viento	6.44
148607	7	Sololá	713	San Lucas Tolimán	10	San Lucas Tolimán	9	Septiembre	2023-09-20T00:00:00	2024-11-08T09:00:00	1	Precipitación	0
148608	7	Sololá	713	San Lucas Tolimán	10	San Lucas Tolimán	9	Septiembre	2023-09-20T00:00:00	2024-11-08T09:00:00	8	Radiación solar	583
148609	7	Sololá	713	San Lucas Tolimán	10	San Lucas Tolimán	9	Septiembre	2023-09-20T00:00:00	2024-11-08T10:00:00	2	Temperatura media	22.6
148610	7	Sololá	713	San Lucas Tolimán	10	San Lucas Tolimán	9	Septiembre	2023-09-20T00:00:00	2024-11-08T10:00:00	4	Temperatura máxima	22.9
148611	7	Sololá	713	San Lucas Tolimán	10	San Lucas Tolimán	9	Septiembre	2023-09-20T00:00:00	2024-11-08T10:00:00	3	Temperatura mínima	22.1
148612	7	Sololá	713	San Lucas Tolimán	10	San Lucas Tolimán	9	Septiembre	2023-09-20T00:00:00	2024-11-08T10:00:00	5	Humedad	51
148613	7	Sololá	713	San Lucas Tolimán	10	San Lucas Tolimán	9	Septiembre	2023-09-20T00:00:00	2024-11-08T10:00:00	6	Velocidad del viento	6.4
148614	7	Sololá	713	San Lucas Tolimán	10	San Lucas Tolimán	9	Septiembre	2023-09-20T00:00:00	2024-11-08T10:00:00	7	Dirección del viento	6.44
148615	7	Sololá	713	San Lucas Tolimán	10	San Lucas Tolimán	9	Septiembre	2023-09-20T00:00:00	2024-11-08T10:00:00	1	Precipitación	0
148616	7	Sololá	713	San Lucas Tolimán	10	San Lucas Tolimán	9	Septiembre	2023-09-20T00:00:00	2024-11-08T10:00:00	8	Radiación solar	562
148617	7	Sololá	713	San Lucas Tolimán	10	San Lucas Tolimán	9	Septiembre	2023-09-20T00:00:00	2024-11-08T11:00:00	2	Temperatura media	24.3
148618	7	Sololá	713	San Lucas Tolimán	10	San Lucas Tolimán	9	Septiembre	2023-09-20T00:00:00	2024-11-08T11:00:00	4	Temperatura máxima	24.4
148619	7	Sololá	713	San Lucas Tolimán	10	San Lucas Tolimán	9	Septiembre	2023-09-20T00:00:00	2024-11-08T11:00:00	3	Temperatura mínima	22.5
148620	7	Sololá	713	San Lucas Tolimán	10	San Lucas Tolimán	9	Septiembre	2023-09-20T00:00:00	2024-11-08T11:00:00	5	Humedad	56
148621	7	Sololá	713	San Lucas Tolimán	10	San Lucas Tolimán	9	Septiembre	2023-09-20T00:00:00	2024-11-08T11:00:00	6	Velocidad del viento	4.8
148622	7	Sololá	713	San Lucas Tolimán	10	San Lucas Tolimán	9	Septiembre	2023-09-20T00:00:00	2024-11-08T11:00:00	7	Dirección del viento	4.83
148623	7	Sololá	713	San Lucas Tolimán	10	San Lucas Tolimán	9	Septiembre	2023-09-20T00:00:00	2024-11-08T11:00:00	1	Precipitación	0
148624	7	Sololá	713	San Lucas Tolimán	10	San Lucas Tolimán	9	Septiembre	2023-09-20T00:00:00	2024-11-08T11:00:00	8	Radiación solar	612
148625	7	Sololá	713	San Lucas Tolimán	10	San Lucas Tolimán	9	Septiembre	2023-09-20T00:00:00	2024-11-08T12:00:00	2	Temperatura media	25.9
148626	7	Sololá	713	San Lucas Tolimán	10	San Lucas Tolimán	9	Septiembre	2023-09-20T00:00:00	2024-11-08T12:00:00	4	Temperatura máxima	26.1
148627	7	Sololá	713	San Lucas Tolimán	10	San Lucas Tolimán	9	Septiembre	2023-09-20T00:00:00	2024-11-08T12:00:00	3	Temperatura mínima	23.1
148628	7	Sololá	713	San Lucas Tolimán	10	San Lucas Tolimán	9	Septiembre	2023-09-20T00:00:00	2024-11-08T12:00:00	5	Humedad	51
148629	7	Sololá	713	San Lucas Tolimán	10	San Lucas Tolimán	9	Septiembre	2023-09-20T00:00:00	2024-11-08T12:00:00	6	Velocidad del viento	6.4
148630	7	Sololá	713	San Lucas Tolimán	10	San Lucas Tolimán	9	Septiembre	2023-09-20T00:00:00	2024-11-08T12:00:00	7	Dirección del viento	6.44
148631	7	Sololá	713	San Lucas Tolimán	10	San Lucas Tolimán	9	Septiembre	2023-09-20T00:00:00	2024-11-08T12:00:00	1	Precipitación	0
148632	7	Sololá	713	San Lucas Tolimán	10	San Lucas Tolimán	9	Septiembre	2023-09-20T00:00:00	2024-11-08T12:00:00	8	Radiación solar	743
148633	7	Sololá	713	San Lucas Tolimán	10	San Lucas Tolimán	9	Septiembre	2023-09-20T00:00:00	2024-11-08T13:00:00	2	Temperatura media	24.7
148634	7	Sololá	713	San Lucas Tolimán	10	San Lucas Tolimán	9	Septiembre	2023-09-20T00:00:00	2024-11-08T13:00:00	4	Temperatura máxima	25.9
148635	7	Sololá	713	San Lucas Tolimán	10	San Lucas Tolimán	9	Septiembre	2023-09-20T00:00:00	2024-11-08T13:00:00	3	Temperatura mínima	23.8
148636	7	Sololá	713	San Lucas Tolimán	10	San Lucas Tolimán	9	Septiembre	2023-09-20T00:00:00	2024-11-08T13:00:00	5	Humedad	54
148637	7	Sololá	713	San Lucas Tolimán	10	San Lucas Tolimán	9	Septiembre	2023-09-20T00:00:00	2024-11-08T13:00:00	6	Velocidad del viento	11.3
148638	7	Sololá	713	San Lucas Tolimán	10	San Lucas Tolimán	9	Septiembre	2023-09-20T00:00:00	2024-11-08T13:00:00	7	Dirección del viento	11.27
148639	7	Sololá	713	San Lucas Tolimán	10	San Lucas Tolimán	9	Septiembre	2023-09-20T00:00:00	2024-11-08T13:00:00	1	Precipitación	0
148640	7	Sololá	713	San Lucas Tolimán	10	San Lucas Tolimán	9	Septiembre	2023-09-20T00:00:00	2024-11-08T13:00:00	8	Radiación solar	970
148641	7	Sololá	713	San Lucas Tolimán	10	San Lucas Tolimán	9	Septiembre	2023-09-20T00:00:00	2024-11-08T14:00:00	2	Temperatura media	22.8
148642	7	Sololá	713	San Lucas Tolimán	10	San Lucas Tolimán	9	Septiembre	2023-09-20T00:00:00	2024-11-08T14:00:00	4	Temperatura máxima	24.9
148643	7	Sololá	713	San Lucas Tolimán	10	San Lucas Tolimán	9	Septiembre	2023-09-20T00:00:00	2024-11-08T14:00:00	3	Temperatura mínima	22.6
148644	7	Sololá	713	San Lucas Tolimán	10	San Lucas Tolimán	9	Septiembre	2023-09-20T00:00:00	2024-11-08T14:00:00	5	Humedad	61
148645	7	Sololá	713	San Lucas Tolimán	10	San Lucas Tolimán	9	Septiembre	2023-09-20T00:00:00	2024-11-08T14:00:00	6	Velocidad del viento	12.9
148646	7	Sololá	713	San Lucas Tolimán	10	San Lucas Tolimán	9	Septiembre	2023-09-20T00:00:00	2024-11-08T14:00:00	7	Dirección del viento	12.87
148647	7	Sololá	713	San Lucas Tolimán	10	San Lucas Tolimán	9	Septiembre	2023-09-20T00:00:00	2024-11-08T14:00:00	1	Precipitación	0
148648	7	Sololá	713	San Lucas Tolimán	10	San Lucas Tolimán	9	Septiembre	2023-09-20T00:00:00	2024-11-08T14:00:00	8	Radiación solar	670
148649	7	Sololá	713	San Lucas Tolimán	10	San Lucas Tolimán	9	Septiembre	2023-09-20T00:00:00	2024-11-08T15:00:00	2	Temperatura media	22.9
148650	7	Sololá	713	San Lucas Tolimán	10	San Lucas Tolimán	9	Septiembre	2023-09-20T00:00:00	2024-11-08T15:00:00	4	Temperatura máxima	23.2
148651	7	Sololá	713	San Lucas Tolimán	10	San Lucas Tolimán	9	Septiembre	2023-09-20T00:00:00	2024-11-08T15:00:00	3	Temperatura mínima	22.1
148652	7	Sololá	713	San Lucas Tolimán	10	San Lucas Tolimán	9	Septiembre	2023-09-20T00:00:00	2024-11-08T15:00:00	5	Humedad	58
148653	7	Sololá	713	San Lucas Tolimán	10	San Lucas Tolimán	9	Septiembre	2023-09-20T00:00:00	2024-11-08T15:00:00	6	Velocidad del viento	14.5
148654	7	Sololá	713	San Lucas Tolimán	10	San Lucas Tolimán	9	Septiembre	2023-09-20T00:00:00	2024-11-08T15:00:00	7	Dirección del viento	14.48
148655	7	Sololá	713	San Lucas Tolimán	10	San Lucas Tolimán	9	Septiembre	2023-09-20T00:00:00	2024-11-08T15:00:00	1	Precipitación	0
148656	7	Sololá	713	San Lucas Tolimán	10	San Lucas Tolimán	9	Septiembre	2023-09-20T00:00:00	2024-11-08T15:00:00	8	Radiación solar	903
148657	7	Sololá	713	San Lucas Tolimán	10	San Lucas Tolimán	9	Septiembre	2023-09-20T00:00:00	2024-11-08T16:00:00	2	Temperatura media	19.6
148658	7	Sololá	713	San Lucas Tolimán	10	San Lucas Tolimán	9	Septiembre	2023-09-20T00:00:00	2024-11-08T16:00:00	4	Temperatura máxima	23
148659	7	Sololá	713	San Lucas Tolimán	10	San Lucas Tolimán	9	Septiembre	2023-09-20T00:00:00	2024-11-08T16:00:00	3	Temperatura mínima	19.6
148660	7	Sololá	713	San Lucas Tolimán	10	San Lucas Tolimán	9	Septiembre	2023-09-20T00:00:00	2024-11-08T16:00:00	5	Humedad	61
148661	7	Sololá	713	San Lucas Tolimán	10	San Lucas Tolimán	9	Septiembre	2023-09-20T00:00:00	2024-11-08T16:00:00	6	Velocidad del viento	14.5
148662	7	Sololá	713	San Lucas Tolimán	10	San Lucas Tolimán	9	Septiembre	2023-09-20T00:00:00	2024-11-08T16:00:00	7	Dirección del viento	14.48
148663	7	Sololá	713	San Lucas Tolimán	10	San Lucas Tolimán	9	Septiembre	2023-09-20T00:00:00	2024-11-08T16:00:00	1	Precipitación	0
148664	7	Sololá	713	San Lucas Tolimán	10	San Lucas Tolimán	9	Septiembre	2023-09-20T00:00:00	2024-11-08T16:00:00	8	Radiación solar	270
148665	7	Sololá	713	San Lucas Tolimán	10	San Lucas Tolimán	9	Septiembre	2023-09-20T00:00:00	2024-11-08T17:00:00	2	Temperatura media	18.8
148666	7	Sololá	713	San Lucas Tolimán	10	San Lucas Tolimán	9	Septiembre	2023-09-20T00:00:00	2024-11-08T17:00:00	4	Temperatura máxima	19.6
148667	7	Sololá	713	San Lucas Tolimán	10	San Lucas Tolimán	9	Septiembre	2023-09-20T00:00:00	2024-11-08T17:00:00	3	Temperatura mínima	18.8
148668	7	Sololá	713	San Lucas Tolimán	10	San Lucas Tolimán	9	Septiembre	2023-09-20T00:00:00	2024-11-08T17:00:00	5	Humedad	67
148669	7	Sololá	713	San Lucas Tolimán	10	San Lucas Tolimán	9	Septiembre	2023-09-20T00:00:00	2024-11-08T17:00:00	6	Velocidad del viento	11.3
148670	7	Sololá	713	San Lucas Tolimán	10	San Lucas Tolimán	9	Septiembre	2023-09-20T00:00:00	2024-11-08T17:00:00	7	Dirección del viento	11.27
148671	7	Sololá	713	San Lucas Tolimán	10	San Lucas Tolimán	9	Septiembre	2023-09-20T00:00:00	2024-11-08T17:00:00	1	Precipitación	0
148672	7	Sololá	713	San Lucas Tolimán	10	San Lucas Tolimán	9	Septiembre	2023-09-20T00:00:00	2024-11-08T17:00:00	8	Radiación solar	53
148673	7	Sololá	713	San Lucas Tolimán	10	San Lucas Tolimán	9	Septiembre	2023-09-20T00:00:00	2024-11-08T18:00:00	2	Temperatura media	19.3
148674	7	Sololá	713	San Lucas Tolimán	10	San Lucas Tolimán	9	Septiembre	2023-09-20T00:00:00	2024-11-08T18:00:00	4	Temperatura máxima	19.4
148675	7	Sololá	713	San Lucas Tolimán	10	San Lucas Tolimán	9	Septiembre	2023-09-20T00:00:00	2024-11-08T18:00:00	3	Temperatura mínima	18.8
148676	7	Sololá	713	San Lucas Tolimán	10	San Lucas Tolimán	9	Septiembre	2023-09-20T00:00:00	2024-11-08T18:00:00	5	Humedad	60
148677	7	Sololá	713	San Lucas Tolimán	10	San Lucas Tolimán	9	Septiembre	2023-09-20T00:00:00	2024-11-08T18:00:00	6	Velocidad del viento	6.4
148678	7	Sololá	713	San Lucas Tolimán	10	San Lucas Tolimán	9	Septiembre	2023-09-20T00:00:00	2024-11-08T18:00:00	7	Dirección del viento	6.44
148679	7	Sololá	713	San Lucas Tolimán	10	San Lucas Tolimán	9	Septiembre	2023-09-20T00:00:00	2024-11-08T18:00:00	1	Precipitación	0
148680	7	Sololá	713	San Lucas Tolimán	10	San Lucas Tolimán	9	Septiembre	2023-09-20T00:00:00	2024-11-08T18:00:00	8	Radiación solar	21
148681	7	Sololá	713	San Lucas Tolimán	10	San Lucas Tolimán	9	Septiembre	2023-09-20T00:00:00	2024-11-08T19:00:00	2	Temperatura media	18.8
148682	7	Sololá	713	San Lucas Tolimán	10	San Lucas Tolimán	9	Septiembre	2023-09-20T00:00:00	2024-11-08T19:00:00	4	Temperatura máxima	19.4
148683	7	Sololá	713	San Lucas Tolimán	10	San Lucas Tolimán	9	Septiembre	2023-09-20T00:00:00	2024-11-08T19:00:00	3	Temperatura mínima	18.8
148684	7	Sololá	713	San Lucas Tolimán	10	San Lucas Tolimán	9	Septiembre	2023-09-20T00:00:00	2024-11-08T19:00:00	5	Humedad	61
148685	7	Sololá	713	San Lucas Tolimán	10	San Lucas Tolimán	9	Septiembre	2023-09-20T00:00:00	2024-11-08T19:00:00	6	Velocidad del viento	4.8
148686	7	Sololá	713	San Lucas Tolimán	10	San Lucas Tolimán	9	Septiembre	2023-09-20T00:00:00	2024-11-08T19:00:00	7	Dirección del viento	4.83
148687	7	Sololá	713	San Lucas Tolimán	10	San Lucas Tolimán	9	Septiembre	2023-09-20T00:00:00	2024-11-08T19:00:00	1	Precipitación	0
148688	7	Sololá	713	San Lucas Tolimán	10	San Lucas Tolimán	9	Septiembre	2023-09-20T00:00:00	2024-11-08T19:00:00	8	Radiación solar	0
148689	7	Sololá	713	San Lucas Tolimán	10	San Lucas Tolimán	9	Septiembre	2023-09-20T00:00:00	2024-11-08T20:00:00	2	Temperatura media	18.5
148690	7	Sololá	713	San Lucas Tolimán	10	San Lucas Tolimán	9	Septiembre	2023-09-20T00:00:00	2024-11-08T20:00:00	4	Temperatura máxima	18.9
148691	7	Sololá	713	San Lucas Tolimán	10	San Lucas Tolimán	9	Septiembre	2023-09-20T00:00:00	2024-11-08T20:00:00	3	Temperatura mínima	18.4
148692	7	Sololá	713	San Lucas Tolimán	10	San Lucas Tolimán	9	Septiembre	2023-09-20T00:00:00	2024-11-08T20:00:00	5	Humedad	63
148693	7	Sololá	713	San Lucas Tolimán	10	San Lucas Tolimán	9	Septiembre	2023-09-20T00:00:00	2024-11-08T20:00:00	6	Velocidad del viento	4.8
148694	7	Sololá	713	San Lucas Tolimán	10	San Lucas Tolimán	9	Septiembre	2023-09-20T00:00:00	2024-11-08T20:00:00	7	Dirección del viento	4.83
148695	7	Sololá	713	San Lucas Tolimán	10	San Lucas Tolimán	9	Septiembre	2023-09-20T00:00:00	2024-11-08T20:00:00	1	Precipitación	0
148696	7	Sololá	713	San Lucas Tolimán	10	San Lucas Tolimán	9	Septiembre	2023-09-20T00:00:00	2024-11-08T20:00:00	8	Radiación solar	0
148697	7	Sololá	713	San Lucas Tolimán	10	San Lucas Tolimán	9	Septiembre	2023-09-20T00:00:00	2024-11-08T21:00:00	2	Temperatura media	18.6
148698	7	Sololá	713	San Lucas Tolimán	10	San Lucas Tolimán	9	Septiembre	2023-09-20T00:00:00	2024-11-08T21:00:00	4	Temperatura máxima	18.7
148699	7	Sololá	713	San Lucas Tolimán	10	San Lucas Tolimán	9	Septiembre	2023-09-20T00:00:00	2024-11-08T21:00:00	3	Temperatura mínima	18.4
148700	7	Sololá	713	San Lucas Tolimán	10	San Lucas Tolimán	9	Septiembre	2023-09-20T00:00:00	2024-11-08T21:00:00	5	Humedad	63
148701	7	Sololá	713	San Lucas Tolimán	10	San Lucas Tolimán	9	Septiembre	2023-09-20T00:00:00	2024-11-08T21:00:00	6	Velocidad del viento	4.8
148702	7	Sololá	713	San Lucas Tolimán	10	San Lucas Tolimán	9	Septiembre	2023-09-20T00:00:00	2024-11-08T21:00:00	7	Dirección del viento	4.83
148703	7	Sololá	713	San Lucas Tolimán	10	San Lucas Tolimán	9	Septiembre	2023-09-20T00:00:00	2024-11-08T21:00:00	1	Precipitación	0
148704	7	Sololá	713	San Lucas Tolimán	10	San Lucas Tolimán	9	Septiembre	2023-09-20T00:00:00	2024-11-08T21:00:00	8	Radiación solar	0
148705	7	Sololá	713	San Lucas Tolimán	10	San Lucas Tolimán	9	Septiembre	2023-09-20T00:00:00	2024-11-08T22:00:00	2	Temperatura media	18.3
148706	7	Sololá	713	San Lucas Tolimán	10	San Lucas Tolimán	9	Septiembre	2023-09-20T00:00:00	2024-11-08T22:00:00	4	Temperatura máxima	18.6
148707	7	Sololá	713	San Lucas Tolimán	10	San Lucas Tolimán	9	Septiembre	2023-09-20T00:00:00	2024-11-08T22:00:00	3	Temperatura mínima	18.3
148708	7	Sololá	713	San Lucas Tolimán	10	San Lucas Tolimán	9	Septiembre	2023-09-20T00:00:00	2024-11-08T22:00:00	5	Humedad	66
148709	7	Sololá	713	San Lucas Tolimán	10	San Lucas Tolimán	9	Septiembre	2023-09-20T00:00:00	2024-11-08T22:00:00	6	Velocidad del viento	6.4
148710	7	Sololá	713	San Lucas Tolimán	10	San Lucas Tolimán	9	Septiembre	2023-09-20T00:00:00	2024-11-08T22:00:00	7	Dirección del viento	6.44
148711	7	Sololá	713	San Lucas Tolimán	10	San Lucas Tolimán	9	Septiembre	2023-09-20T00:00:00	2024-11-08T22:00:00	1	Precipitación	0
148712	7	Sololá	713	San Lucas Tolimán	10	San Lucas Tolimán	9	Septiembre	2023-09-20T00:00:00	2024-11-08T22:00:00	8	Radiación solar	0
148713	7	Sololá	713	San Lucas Tolimán	10	San Lucas Tolimán	9	Septiembre	2023-09-20T00:00:00	2024-11-08T23:00:00	2	Temperatura media	18.2
148714	7	Sololá	713	San Lucas Tolimán	10	San Lucas Tolimán	9	Septiembre	2023-09-20T00:00:00	2024-11-08T23:00:00	4	Temperatura máxima	18.4
148715	7	Sololá	713	San Lucas Tolimán	10	San Lucas Tolimán	9	Septiembre	2023-09-20T00:00:00	2024-11-08T23:00:00	3	Temperatura mínima	18.2
148716	7	Sololá	713	San Lucas Tolimán	10	San Lucas Tolimán	9	Septiembre	2023-09-20T00:00:00	2024-11-08T23:00:00	5	Humedad	67
148717	7	Sololá	713	San Lucas Tolimán	10	San Lucas Tolimán	9	Septiembre	2023-09-20T00:00:00	2024-11-08T23:00:00	6	Velocidad del viento	4.8
148718	7	Sololá	713	San Lucas Tolimán	10	San Lucas Tolimán	9	Septiembre	2023-09-20T00:00:00	2024-11-08T23:00:00	7	Dirección del viento	4.83
148719	7	Sololá	713	San Lucas Tolimán	10	San Lucas Tolimán	9	Septiembre	2023-09-20T00:00:00	2024-11-08T23:00:00	1	Precipitación	0
148720	7	Sololá	713	San Lucas Tolimán	10	San Lucas Tolimán	9	Septiembre	2023-09-20T00:00:00	2024-11-08T23:00:00	8	Radiación solar	0
148721	7	Sololá	713	San Lucas Tolimán	10	San Lucas Tolimán	9	Septiembre	2023-09-21T00:00:00	2024-11-08T00:00:00	2	Temperatura media	17.6
148722	7	Sololá	713	San Lucas Tolimán	10	San Lucas Tolimán	9	Septiembre	2023-09-21T00:00:00	2024-11-08T00:00:00	4	Temperatura máxima	18.2
148723	7	Sololá	713	San Lucas Tolimán	10	San Lucas Tolimán	9	Septiembre	2023-09-21T00:00:00	2024-11-08T00:00:00	3	Temperatura mínima	17.6
148724	7	Sololá	713	San Lucas Tolimán	10	San Lucas Tolimán	9	Septiembre	2023-09-21T00:00:00	2024-11-08T00:00:00	5	Humedad	67
148725	7	Sololá	713	San Lucas Tolimán	10	San Lucas Tolimán	9	Septiembre	2023-09-21T00:00:00	2024-11-08T00:00:00	6	Velocidad del viento	4.8
148726	7	Sololá	713	San Lucas Tolimán	10	San Lucas Tolimán	9	Septiembre	2023-09-21T00:00:00	2024-11-08T00:00:00	7	Dirección del viento	4.83
148727	7	Sololá	713	San Lucas Tolimán	10	San Lucas Tolimán	9	Septiembre	2023-09-21T00:00:00	2024-11-08T00:00:00	1	Precipitación	0
148728	7	Sololá	713	San Lucas Tolimán	10	San Lucas Tolimán	9	Septiembre	2023-09-21T00:00:00	2024-11-08T00:00:00	8	Radiación solar	0
148729	7	Sololá	713	San Lucas Tolimán	10	San Lucas Tolimán	9	Septiembre	2023-09-21T00:00:00	2024-11-08T01:00:00	2	Temperatura media	17.2
148730	7	Sololá	713	San Lucas Tolimán	10	San Lucas Tolimán	9	Septiembre	2023-09-21T00:00:00	2024-11-08T01:00:00	4	Temperatura máxima	17.7
148731	7	Sololá	713	San Lucas Tolimán	10	San Lucas Tolimán	9	Septiembre	2023-09-21T00:00:00	2024-11-08T01:00:00	3	Temperatura mínima	17.2
148732	7	Sololá	713	San Lucas Tolimán	10	San Lucas Tolimán	9	Septiembre	2023-09-21T00:00:00	2024-11-08T01:00:00	5	Humedad	67
148733	7	Sololá	713	San Lucas Tolimán	10	San Lucas Tolimán	9	Septiembre	2023-09-21T00:00:00	2024-11-08T01:00:00	6	Velocidad del viento	1.6
148734	7	Sololá	713	San Lucas Tolimán	10	San Lucas Tolimán	9	Septiembre	2023-09-21T00:00:00	2024-11-08T01:00:00	7	Dirección del viento	1.61
148735	7	Sololá	713	San Lucas Tolimán	10	San Lucas Tolimán	9	Septiembre	2023-09-21T00:00:00	2024-11-08T01:00:00	1	Precipitación	0
148736	7	Sololá	713	San Lucas Tolimán	10	San Lucas Tolimán	9	Septiembre	2023-09-21T00:00:00	2024-11-08T01:00:00	8	Radiación solar	0
148737	7	Sololá	713	San Lucas Tolimán	10	San Lucas Tolimán	9	Septiembre	2023-09-21T00:00:00	2024-11-08T02:00:00	2	Temperatura media	16.6
148738	7	Sololá	713	San Lucas Tolimán	10	San Lucas Tolimán	9	Septiembre	2023-09-21T00:00:00	2024-11-08T02:00:00	4	Temperatura máxima	17.2
148739	7	Sololá	713	San Lucas Tolimán	10	San Lucas Tolimán	9	Septiembre	2023-09-21T00:00:00	2024-11-08T02:00:00	3	Temperatura mínima	16.5
148740	7	Sololá	713	San Lucas Tolimán	10	San Lucas Tolimán	9	Septiembre	2023-09-21T00:00:00	2024-11-08T02:00:00	5	Humedad	65
148741	7	Sololá	713	San Lucas Tolimán	10	San Lucas Tolimán	9	Septiembre	2023-09-21T00:00:00	2024-11-08T02:00:00	6	Velocidad del viento	1.6
148742	7	Sololá	713	San Lucas Tolimán	10	San Lucas Tolimán	9	Septiembre	2023-09-21T00:00:00	2024-11-08T02:00:00	7	Dirección del viento	1.61
148743	7	Sololá	713	San Lucas Tolimán	10	San Lucas Tolimán	9	Septiembre	2023-09-21T00:00:00	2024-11-08T02:00:00	1	Precipitación	0
148744	7	Sololá	713	San Lucas Tolimán	10	San Lucas Tolimán	9	Septiembre	2023-09-21T00:00:00	2024-11-08T02:00:00	8	Radiación solar	0
148745	7	Sololá	713	San Lucas Tolimán	10	San Lucas Tolimán	9	Septiembre	2023-09-21T00:00:00	2024-11-08T03:00:00	2	Temperatura media	16.6
148746	7	Sololá	713	San Lucas Tolimán	10	San Lucas Tolimán	9	Septiembre	2023-09-21T00:00:00	2024-11-08T03:00:00	4	Temperatura máxima	16.7
148747	7	Sololá	713	San Lucas Tolimán	10	San Lucas Tolimán	9	Septiembre	2023-09-21T00:00:00	2024-11-08T03:00:00	3	Temperatura mínima	16.2
148748	7	Sololá	713	San Lucas Tolimán	10	San Lucas Tolimán	9	Septiembre	2023-09-21T00:00:00	2024-11-08T03:00:00	5	Humedad	62
148749	7	Sololá	713	San Lucas Tolimán	10	San Lucas Tolimán	9	Septiembre	2023-09-21T00:00:00	2024-11-08T03:00:00	6	Velocidad del viento	3.2
148750	7	Sololá	713	San Lucas Tolimán	10	San Lucas Tolimán	9	Septiembre	2023-09-21T00:00:00	2024-11-08T03:00:00	7	Dirección del viento	3.22
148751	7	Sololá	713	San Lucas Tolimán	10	San Lucas Tolimán	9	Septiembre	2023-09-21T00:00:00	2024-11-08T03:00:00	1	Precipitación	0
148752	7	Sololá	713	San Lucas Tolimán	10	San Lucas Tolimán	9	Septiembre	2023-09-21T00:00:00	2024-11-08T03:00:00	8	Radiación solar	0
148753	7	Sololá	713	San Lucas Tolimán	10	San Lucas Tolimán	9	Septiembre	2023-09-21T00:00:00	2024-11-08T04:00:00	2	Temperatura media	16.2
148754	7	Sololá	713	San Lucas Tolimán	10	San Lucas Tolimán	9	Septiembre	2023-09-21T00:00:00	2024-11-08T04:00:00	4	Temperatura máxima	16.6
148755	7	Sololá	713	San Lucas Tolimán	10	San Lucas Tolimán	9	Septiembre	2023-09-21T00:00:00	2024-11-08T04:00:00	3	Temperatura mínima	16.1
148756	7	Sololá	713	San Lucas Tolimán	10	San Lucas Tolimán	9	Septiembre	2023-09-21T00:00:00	2024-11-08T04:00:00	5	Humedad	63
148757	7	Sololá	713	San Lucas Tolimán	10	San Lucas Tolimán	9	Septiembre	2023-09-21T00:00:00	2024-11-08T04:00:00	6	Velocidad del viento	3.2
148758	7	Sololá	713	San Lucas Tolimán	10	San Lucas Tolimán	9	Septiembre	2023-09-21T00:00:00	2024-11-08T04:00:00	7	Dirección del viento	3.22
148759	7	Sololá	713	San Lucas Tolimán	10	San Lucas Tolimán	9	Septiembre	2023-09-21T00:00:00	2024-11-08T04:00:00	1	Precipitación	0
148760	7	Sololá	713	San Lucas Tolimán	10	San Lucas Tolimán	9	Septiembre	2023-09-21T00:00:00	2024-11-08T04:00:00	8	Radiación solar	0
148761	7	Sololá	713	San Lucas Tolimán	10	San Lucas Tolimán	9	Septiembre	2023-09-21T00:00:00	2024-11-08T05:00:00	2	Temperatura media	16.3
148762	7	Sololá	713	San Lucas Tolimán	10	San Lucas Tolimán	9	Septiembre	2023-09-21T00:00:00	2024-11-08T05:00:00	4	Temperatura máxima	16.4
148763	7	Sololá	713	San Lucas Tolimán	10	San Lucas Tolimán	9	Septiembre	2023-09-21T00:00:00	2024-11-08T05:00:00	3	Temperatura mínima	16
148764	7	Sololá	713	San Lucas Tolimán	10	San Lucas Tolimán	9	Septiembre	2023-09-21T00:00:00	2024-11-08T05:00:00	5	Humedad	62
148765	7	Sololá	713	San Lucas Tolimán	10	San Lucas Tolimán	9	Septiembre	2023-09-21T00:00:00	2024-11-08T05:00:00	6	Velocidad del viento	3.2
148766	7	Sololá	713	San Lucas Tolimán	10	San Lucas Tolimán	9	Septiembre	2023-09-21T00:00:00	2024-11-08T05:00:00	7	Dirección del viento	3.22
148767	7	Sololá	713	San Lucas Tolimán	10	San Lucas Tolimán	9	Septiembre	2023-09-21T00:00:00	2024-11-08T05:00:00	1	Precipitación	0
148768	7	Sololá	713	San Lucas Tolimán	10	San Lucas Tolimán	9	Septiembre	2023-09-21T00:00:00	2024-11-08T05:00:00	8	Radiación solar	0
148769	7	Sololá	713	San Lucas Tolimán	10	San Lucas Tolimán	9	Septiembre	2023-09-21T00:00:00	2024-11-08T06:00:00	2	Temperatura media	16.3
148770	7	Sololá	713	San Lucas Tolimán	10	San Lucas Tolimán	9	Septiembre	2023-09-21T00:00:00	2024-11-08T06:00:00	4	Temperatura máxima	16.3
148771	7	Sololá	713	San Lucas Tolimán	10	San Lucas Tolimán	9	Septiembre	2023-09-21T00:00:00	2024-11-08T06:00:00	3	Temperatura mínima	15.9
148772	7	Sololá	713	San Lucas Tolimán	10	San Lucas Tolimán	9	Septiembre	2023-09-21T00:00:00	2024-11-08T06:00:00	5	Humedad	61
148773	7	Sololá	713	San Lucas Tolimán	10	San Lucas Tolimán	9	Septiembre	2023-09-21T00:00:00	2024-11-08T06:00:00	6	Velocidad del viento	1.6
148774	7	Sololá	713	San Lucas Tolimán	10	San Lucas Tolimán	9	Septiembre	2023-09-21T00:00:00	2024-11-08T06:00:00	7	Dirección del viento	1.61
148775	7	Sololá	713	San Lucas Tolimán	10	San Lucas Tolimán	9	Septiembre	2023-09-21T00:00:00	2024-11-08T06:00:00	1	Precipitación	0
148776	7	Sololá	713	San Lucas Tolimán	10	San Lucas Tolimán	9	Septiembre	2023-09-21T00:00:00	2024-11-08T06:00:00	8	Radiación solar	0
148777	7	Sololá	713	San Lucas Tolimán	10	San Lucas Tolimán	9	Septiembre	2023-09-21T00:00:00	2024-11-08T07:00:00	2	Temperatura media	17.8
148778	7	Sololá	713	San Lucas Tolimán	10	San Lucas Tolimán	9	Septiembre	2023-09-21T00:00:00	2024-11-08T07:00:00	4	Temperatura máxima	17.8
148779	7	Sololá	713	San Lucas Tolimán	10	San Lucas Tolimán	9	Septiembre	2023-09-21T00:00:00	2024-11-08T07:00:00	3	Temperatura mínima	16.3
148780	7	Sololá	713	San Lucas Tolimán	10	San Lucas Tolimán	9	Septiembre	2023-09-21T00:00:00	2024-11-08T07:00:00	5	Humedad	61
148781	7	Sololá	713	San Lucas Tolimán	10	San Lucas Tolimán	9	Septiembre	2023-09-21T00:00:00	2024-11-08T07:00:00	6	Velocidad del viento	1.6
148782	7	Sololá	713	San Lucas Tolimán	10	San Lucas Tolimán	9	Septiembre	2023-09-21T00:00:00	2024-11-08T07:00:00	7	Dirección del viento	1.61
148783	7	Sololá	713	San Lucas Tolimán	10	San Lucas Tolimán	9	Septiembre	2023-09-21T00:00:00	2024-11-08T07:00:00	1	Precipitación	0
148784	7	Sololá	713	San Lucas Tolimán	10	San Lucas Tolimán	9	Septiembre	2023-09-21T00:00:00	2024-11-08T07:00:00	8	Radiación solar	52
148785	7	Sololá	713	San Lucas Tolimán	10	San Lucas Tolimán	9	Septiembre	2023-09-21T00:00:00	2024-11-08T08:00:00	2	Temperatura media	22.5
148786	7	Sololá	713	San Lucas Tolimán	10	San Lucas Tolimán	9	Septiembre	2023-09-21T00:00:00	2024-11-08T08:00:00	4	Temperatura máxima	22.5
148787	7	Sololá	713	San Lucas Tolimán	10	San Lucas Tolimán	9	Septiembre	2023-09-21T00:00:00	2024-11-08T08:00:00	3	Temperatura mínima	17.8
148788	7	Sololá	713	San Lucas Tolimán	10	San Lucas Tolimán	9	Septiembre	2023-09-21T00:00:00	2024-11-08T08:00:00	5	Humedad	50
148789	7	Sololá	713	San Lucas Tolimán	10	San Lucas Tolimán	9	Septiembre	2023-09-21T00:00:00	2024-11-08T08:00:00	6	Velocidad del viento	3.2
148790	7	Sololá	713	San Lucas Tolimán	10	San Lucas Tolimán	9	Septiembre	2023-09-21T00:00:00	2024-11-08T08:00:00	7	Dirección del viento	3.22
148791	7	Sololá	713	San Lucas Tolimán	10	San Lucas Tolimán	9	Septiembre	2023-09-21T00:00:00	2024-11-08T08:00:00	1	Precipitación	0
148792	7	Sololá	713	San Lucas Tolimán	10	San Lucas Tolimán	9	Septiembre	2023-09-21T00:00:00	2024-11-08T08:00:00	8	Radiación solar	378
148793	7	Sololá	713	San Lucas Tolimán	10	San Lucas Tolimán	9	Septiembre	2023-09-21T00:00:00	2024-11-08T09:00:00	2	Temperatura media	23.4
148794	7	Sololá	713	San Lucas Tolimán	10	San Lucas Tolimán	9	Septiembre	2023-09-21T00:00:00	2024-11-08T09:00:00	4	Temperatura máxima	23.6
148795	7	Sololá	713	San Lucas Tolimán	10	San Lucas Tolimán	9	Septiembre	2023-09-21T00:00:00	2024-11-08T09:00:00	3	Temperatura mínima	22.4
148796	7	Sololá	713	San Lucas Tolimán	10	San Lucas Tolimán	9	Septiembre	2023-09-21T00:00:00	2024-11-08T09:00:00	5	Humedad	50
148797	7	Sololá	713	San Lucas Tolimán	10	San Lucas Tolimán	9	Septiembre	2023-09-21T00:00:00	2024-11-08T09:00:00	6	Velocidad del viento	4.8
148798	7	Sololá	713	San Lucas Tolimán	10	San Lucas Tolimán	9	Septiembre	2023-09-21T00:00:00	2024-11-08T09:00:00	7	Dirección del viento	4.83
148799	7	Sololá	713	San Lucas Tolimán	10	San Lucas Tolimán	9	Septiembre	2023-09-21T00:00:00	2024-11-08T09:00:00	1	Precipitación	0
148800	7	Sololá	713	San Lucas Tolimán	10	San Lucas Tolimán	9	Septiembre	2023-09-21T00:00:00	2024-11-08T09:00:00	8	Radiación solar	631
148801	7	Sololá	713	San Lucas Tolimán	10	San Lucas Tolimán	9	Septiembre	2023-09-21T00:00:00	2024-11-08T10:00:00	2	Temperatura media	23.4
148802	7	Sololá	713	San Lucas Tolimán	10	San Lucas Tolimán	9	Septiembre	2023-09-21T00:00:00	2024-11-08T10:00:00	4	Temperatura máxima	24
148803	7	Sololá	713	San Lucas Tolimán	10	San Lucas Tolimán	9	Septiembre	2023-09-21T00:00:00	2024-11-08T10:00:00	3	Temperatura mínima	22.8
148804	7	Sololá	713	San Lucas Tolimán	10	San Lucas Tolimán	9	Septiembre	2023-09-21T00:00:00	2024-11-08T10:00:00	5	Humedad	56
148805	7	Sololá	713	San Lucas Tolimán	10	San Lucas Tolimán	9	Septiembre	2023-09-21T00:00:00	2024-11-08T10:00:00	6	Velocidad del viento	8
148806	7	Sololá	713	San Lucas Tolimán	10	San Lucas Tolimán	9	Septiembre	2023-09-21T00:00:00	2024-11-08T10:00:00	7	Dirección del viento	8.05
148807	7	Sololá	713	San Lucas Tolimán	10	San Lucas Tolimán	9	Septiembre	2023-09-21T00:00:00	2024-11-08T10:00:00	1	Precipitación	0
148808	7	Sololá	713	San Lucas Tolimán	10	San Lucas Tolimán	9	Septiembre	2023-09-21T00:00:00	2024-11-08T10:00:00	8	Radiación solar	798
148809	7	Sololá	713	San Lucas Tolimán	10	San Lucas Tolimán	9	Septiembre	2023-09-21T00:00:00	2024-11-08T11:00:00	2	Temperatura media	22.7
148810	7	Sololá	713	San Lucas Tolimán	10	San Lucas Tolimán	9	Septiembre	2023-09-21T00:00:00	2024-11-08T11:00:00	4	Temperatura máxima	23.8
148811	7	Sololá	713	San Lucas Tolimán	10	San Lucas Tolimán	9	Septiembre	2023-09-21T00:00:00	2024-11-08T11:00:00	3	Temperatura mínima	22.7
148812	7	Sololá	713	San Lucas Tolimán	10	San Lucas Tolimán	9	Septiembre	2023-09-21T00:00:00	2024-11-08T11:00:00	5	Humedad	61
148813	7	Sololá	713	San Lucas Tolimán	10	San Lucas Tolimán	9	Septiembre	2023-09-21T00:00:00	2024-11-08T11:00:00	6	Velocidad del viento	11.3
148814	7	Sololá	713	San Lucas Tolimán	10	San Lucas Tolimán	9	Septiembre	2023-09-21T00:00:00	2024-11-08T11:00:00	7	Dirección del viento	11.27
148815	7	Sololá	713	San Lucas Tolimán	10	San Lucas Tolimán	9	Septiembre	2023-09-21T00:00:00	2024-11-08T11:00:00	1	Precipitación	0
148816	7	Sololá	713	San Lucas Tolimán	10	San Lucas Tolimán	9	Septiembre	2023-09-21T00:00:00	2024-11-08T11:00:00	8	Radiación solar	852
148817	7	Sololá	713	San Lucas Tolimán	10	San Lucas Tolimán	9	Septiembre	2023-09-21T00:00:00	2024-11-08T12:00:00	2	Temperatura media	22.8
148818	7	Sololá	713	San Lucas Tolimán	10	San Lucas Tolimán	9	Septiembre	2023-09-21T00:00:00	2024-11-08T12:00:00	4	Temperatura máxima	24.2
148819	7	Sololá	713	San Lucas Tolimán	10	San Lucas Tolimán	9	Septiembre	2023-09-21T00:00:00	2024-11-08T12:00:00	3	Temperatura mínima	22.7
148820	7	Sololá	713	San Lucas Tolimán	10	San Lucas Tolimán	9	Septiembre	2023-09-21T00:00:00	2024-11-08T12:00:00	5	Humedad	60
148821	7	Sololá	713	San Lucas Tolimán	10	San Lucas Tolimán	9	Septiembre	2023-09-21T00:00:00	2024-11-08T12:00:00	6	Velocidad del viento	12.9
148822	7	Sololá	713	San Lucas Tolimán	10	San Lucas Tolimán	9	Septiembre	2023-09-21T00:00:00	2024-11-08T12:00:00	7	Dirección del viento	12.87
148823	7	Sololá	713	San Lucas Tolimán	10	San Lucas Tolimán	9	Septiembre	2023-09-21T00:00:00	2024-11-08T12:00:00	1	Precipitación	0
148824	7	Sololá	713	San Lucas Tolimán	10	San Lucas Tolimán	9	Septiembre	2023-09-21T00:00:00	2024-11-08T12:00:00	8	Radiación solar	1094
148825	7	Sololá	713	San Lucas Tolimán	10	San Lucas Tolimán	9	Septiembre	2023-09-21T00:00:00	2024-11-08T13:00:00	2	Temperatura media	24.8
148826	7	Sololá	713	San Lucas Tolimán	10	San Lucas Tolimán	9	Septiembre	2023-09-21T00:00:00	2024-11-08T13:00:00	4	Temperatura máxima	25.8
148827	7	Sololá	713	San Lucas Tolimán	10	San Lucas Tolimán	9	Septiembre	2023-09-21T00:00:00	2024-11-08T13:00:00	3	Temperatura mínima	22.7
148828	7	Sololá	713	San Lucas Tolimán	10	San Lucas Tolimán	9	Septiembre	2023-09-21T00:00:00	2024-11-08T13:00:00	5	Humedad	56
148829	7	Sololá	713	San Lucas Tolimán	10	San Lucas Tolimán	9	Septiembre	2023-09-21T00:00:00	2024-11-08T13:00:00	6	Velocidad del viento	8
148830	7	Sololá	713	San Lucas Tolimán	10	San Lucas Tolimán	9	Septiembre	2023-09-21T00:00:00	2024-11-08T13:00:00	7	Dirección del viento	8.05
148831	7	Sololá	713	San Lucas Tolimán	10	San Lucas Tolimán	9	Septiembre	2023-09-21T00:00:00	2024-11-08T13:00:00	1	Precipitación	0
148832	7	Sololá	713	San Lucas Tolimán	10	San Lucas Tolimán	9	Septiembre	2023-09-21T00:00:00	2024-11-08T13:00:00	8	Radiación solar	864
148833	7	Sololá	713	San Lucas Tolimán	10	San Lucas Tolimán	9	Septiembre	2023-09-21T00:00:00	2024-11-08T14:00:00	2	Temperatura media	25.5
148834	7	Sololá	713	San Lucas Tolimán	10	San Lucas Tolimán	9	Septiembre	2023-09-21T00:00:00	2024-11-08T14:00:00	4	Temperatura máxima	25.5
148835	7	Sololá	713	San Lucas Tolimán	10	San Lucas Tolimán	9	Septiembre	2023-09-21T00:00:00	2024-11-08T14:00:00	3	Temperatura mínima	23.7
148836	7	Sololá	713	San Lucas Tolimán	10	San Lucas Tolimán	9	Septiembre	2023-09-21T00:00:00	2024-11-08T14:00:00	5	Humedad	56
148837	7	Sololá	713	San Lucas Tolimán	10	San Lucas Tolimán	9	Septiembre	2023-09-21T00:00:00	2024-11-08T14:00:00	6	Velocidad del viento	9.7
148838	7	Sololá	713	San Lucas Tolimán	10	San Lucas Tolimán	9	Septiembre	2023-09-21T00:00:00	2024-11-08T14:00:00	7	Dirección del viento	9.66
148839	7	Sololá	713	San Lucas Tolimán	10	San Lucas Tolimán	9	Septiembre	2023-09-21T00:00:00	2024-11-08T14:00:00	1	Precipitación	0
148840	7	Sololá	713	San Lucas Tolimán	10	San Lucas Tolimán	9	Septiembre	2023-09-21T00:00:00	2024-11-08T14:00:00	8	Radiación solar	924
148841	7	Sololá	713	San Lucas Tolimán	10	San Lucas Tolimán	9	Septiembre	2023-09-21T00:00:00	2024-11-08T15:00:00	2	Temperatura media	23.7
148842	7	Sololá	713	San Lucas Tolimán	10	San Lucas Tolimán	9	Septiembre	2023-09-21T00:00:00	2024-11-08T15:00:00	4	Temperatura máxima	25.6
148843	7	Sololá	713	San Lucas Tolimán	10	San Lucas Tolimán	9	Septiembre	2023-09-21T00:00:00	2024-11-08T15:00:00	3	Temperatura mínima	23.7
148844	7	Sololá	713	San Lucas Tolimán	10	San Lucas Tolimán	9	Septiembre	2023-09-21T00:00:00	2024-11-08T15:00:00	5	Humedad	61
148845	7	Sololá	713	San Lucas Tolimán	10	San Lucas Tolimán	9	Septiembre	2023-09-21T00:00:00	2024-11-08T15:00:00	6	Velocidad del viento	11.3
148846	7	Sololá	713	San Lucas Tolimán	10	San Lucas Tolimán	9	Septiembre	2023-09-21T00:00:00	2024-11-08T15:00:00	7	Dirección del viento	11.27
148847	7	Sololá	713	San Lucas Tolimán	10	San Lucas Tolimán	9	Septiembre	2023-09-21T00:00:00	2024-11-08T15:00:00	1	Precipitación	0
148848	7	Sololá	713	San Lucas Tolimán	10	San Lucas Tolimán	9	Septiembre	2023-09-21T00:00:00	2024-11-08T15:00:00	8	Radiación solar	929
148849	7	Sololá	713	San Lucas Tolimán	10	San Lucas Tolimán	9	Septiembre	2023-09-21T00:00:00	2024-11-08T16:00:00	2	Temperatura media	21.9
148850	7	Sololá	713	San Lucas Tolimán	10	San Lucas Tolimán	9	Septiembre	2023-09-21T00:00:00	2024-11-08T16:00:00	4	Temperatura máxima	23.7
148851	7	Sololá	713	San Lucas Tolimán	10	San Lucas Tolimán	9	Septiembre	2023-09-21T00:00:00	2024-11-08T16:00:00	3	Temperatura mínima	21.9
148852	7	Sololá	713	San Lucas Tolimán	10	San Lucas Tolimán	9	Septiembre	2023-09-21T00:00:00	2024-11-08T16:00:00	5	Humedad	63
148853	7	Sololá	713	San Lucas Tolimán	10	San Lucas Tolimán	9	Septiembre	2023-09-21T00:00:00	2024-11-08T16:00:00	6	Velocidad del viento	12.9
148854	7	Sololá	713	San Lucas Tolimán	10	San Lucas Tolimán	9	Septiembre	2023-09-21T00:00:00	2024-11-08T16:00:00	7	Dirección del viento	12.87
148855	7	Sololá	713	San Lucas Tolimán	10	San Lucas Tolimán	9	Septiembre	2023-09-21T00:00:00	2024-11-08T16:00:00	1	Precipitación	0
148856	7	Sololá	713	San Lucas Tolimán	10	San Lucas Tolimán	9	Septiembre	2023-09-21T00:00:00	2024-11-08T16:00:00	8	Radiación solar	499
148857	7	Sololá	713	San Lucas Tolimán	10	San Lucas Tolimán	9	Septiembre	2023-09-21T00:00:00	2024-11-08T17:00:00	2	Temperatura media	20.2
148858	7	Sololá	713	San Lucas Tolimán	10	San Lucas Tolimán	9	Septiembre	2023-09-21T00:00:00	2024-11-08T17:00:00	4	Temperatura máxima	22.1
148859	7	Sololá	713	San Lucas Tolimán	10	San Lucas Tolimán	9	Septiembre	2023-09-21T00:00:00	2024-11-08T17:00:00	3	Temperatura mínima	19.9
148860	7	Sololá	713	San Lucas Tolimán	10	San Lucas Tolimán	9	Septiembre	2023-09-21T00:00:00	2024-11-08T17:00:00	5	Humedad	60
148861	7	Sololá	713	San Lucas Tolimán	10	San Lucas Tolimán	9	Septiembre	2023-09-21T00:00:00	2024-11-08T17:00:00	6	Velocidad del viento	12.9
148862	7	Sololá	713	San Lucas Tolimán	10	San Lucas Tolimán	9	Septiembre	2023-09-21T00:00:00	2024-11-08T17:00:00	7	Dirección del viento	12.87
148863	7	Sololá	713	San Lucas Tolimán	10	San Lucas Tolimán	9	Septiembre	2023-09-21T00:00:00	2024-11-08T17:00:00	1	Precipitación	0
148864	7	Sololá	713	San Lucas Tolimán	10	San Lucas Tolimán	9	Septiembre	2023-09-21T00:00:00	2024-11-08T17:00:00	8	Radiación solar	109
148865	7	Sololá	713	San Lucas Tolimán	10	San Lucas Tolimán	9	Septiembre	2023-09-21T00:00:00	2024-11-08T18:00:00	2	Temperatura media	19.7
148866	7	Sololá	713	San Lucas Tolimán	10	San Lucas Tolimán	9	Septiembre	2023-09-21T00:00:00	2024-11-08T18:00:00	4	Temperatura máxima	21.1
148867	7	Sololá	713	San Lucas Tolimán	10	San Lucas Tolimán	9	Septiembre	2023-09-21T00:00:00	2024-11-08T18:00:00	3	Temperatura mínima	19.7
148868	7	Sololá	713	San Lucas Tolimán	10	San Lucas Tolimán	9	Septiembre	2023-09-21T00:00:00	2024-11-08T18:00:00	5	Humedad	63
148869	7	Sololá	713	San Lucas Tolimán	10	San Lucas Tolimán	9	Septiembre	2023-09-21T00:00:00	2024-11-08T18:00:00	6	Velocidad del viento	8
148870	7	Sololá	713	San Lucas Tolimán	10	San Lucas Tolimán	9	Septiembre	2023-09-21T00:00:00	2024-11-08T18:00:00	7	Dirección del viento	8.05
148871	7	Sololá	713	San Lucas Tolimán	10	San Lucas Tolimán	9	Septiembre	2023-09-21T00:00:00	2024-11-08T18:00:00	1	Precipitación	0
148872	7	Sololá	713	San Lucas Tolimán	10	San Lucas Tolimán	9	Septiembre	2023-09-21T00:00:00	2024-11-08T18:00:00	8	Radiación solar	24
148873	7	Sololá	713	San Lucas Tolimán	10	San Lucas Tolimán	9	Septiembre	2023-09-21T00:00:00	2024-11-08T19:00:00	2	Temperatura media	19.3
148874	7	Sololá	713	San Lucas Tolimán	10	San Lucas Tolimán	9	Septiembre	2023-09-21T00:00:00	2024-11-08T19:00:00	4	Temperatura máxima	19.7
148875	7	Sololá	713	San Lucas Tolimán	10	San Lucas Tolimán	9	Septiembre	2023-09-21T00:00:00	2024-11-08T19:00:00	3	Temperatura mínima	19.2
148876	7	Sololá	713	San Lucas Tolimán	10	San Lucas Tolimán	9	Septiembre	2023-09-21T00:00:00	2024-11-08T19:00:00	5	Humedad	62
148877	7	Sololá	713	San Lucas Tolimán	10	San Lucas Tolimán	9	Septiembre	2023-09-21T00:00:00	2024-11-08T19:00:00	6	Velocidad del viento	4.8
148878	7	Sololá	713	San Lucas Tolimán	10	San Lucas Tolimán	9	Septiembre	2023-09-21T00:00:00	2024-11-08T19:00:00	7	Dirección del viento	4.83
148879	7	Sololá	713	San Lucas Tolimán	10	San Lucas Tolimán	9	Septiembre	2023-09-21T00:00:00	2024-11-08T19:00:00	1	Precipitación	0
148880	7	Sololá	713	San Lucas Tolimán	10	San Lucas Tolimán	9	Septiembre	2023-09-21T00:00:00	2024-11-08T19:00:00	8	Radiación solar	0
148881	7	Sololá	713	San Lucas Tolimán	10	San Lucas Tolimán	9	Septiembre	2023-09-21T00:00:00	2024-11-08T20:00:00	2	Temperatura media	18.9
148882	7	Sololá	713	San Lucas Tolimán	10	San Lucas Tolimán	9	Septiembre	2023-09-21T00:00:00	2024-11-08T20:00:00	4	Temperatura máxima	19.6
148883	7	Sololá	713	San Lucas Tolimán	10	San Lucas Tolimán	9	Septiembre	2023-09-21T00:00:00	2024-11-08T20:00:00	3	Temperatura mínima	18.9
148884	7	Sololá	713	San Lucas Tolimán	10	San Lucas Tolimán	9	Septiembre	2023-09-21T00:00:00	2024-11-08T20:00:00	5	Humedad	63
148885	7	Sololá	713	San Lucas Tolimán	10	San Lucas Tolimán	9	Septiembre	2023-09-21T00:00:00	2024-11-08T20:00:00	6	Velocidad del viento	6.4
148886	7	Sololá	713	San Lucas Tolimán	10	San Lucas Tolimán	9	Septiembre	2023-09-21T00:00:00	2024-11-08T20:00:00	7	Dirección del viento	6.44
148887	7	Sololá	713	San Lucas Tolimán	10	San Lucas Tolimán	9	Septiembre	2023-09-21T00:00:00	2024-11-08T20:00:00	1	Precipitación	2.6
148888	7	Sololá	713	San Lucas Tolimán	10	San Lucas Tolimán	9	Septiembre	2023-09-21T00:00:00	2024-11-08T20:00:00	8	Radiación solar	0
148889	7	Sololá	713	San Lucas Tolimán	10	San Lucas Tolimán	9	Septiembre	2023-09-21T00:00:00	2024-11-08T21:00:00	2	Temperatura media	18.7
148890	7	Sololá	713	San Lucas Tolimán	10	San Lucas Tolimán	9	Septiembre	2023-09-21T00:00:00	2024-11-08T21:00:00	4	Temperatura máxima	18.9
148891	7	Sololá	713	San Lucas Tolimán	10	San Lucas Tolimán	9	Septiembre	2023-09-21T00:00:00	2024-11-08T21:00:00	3	Temperatura mínima	18.4
148892	7	Sololá	713	San Lucas Tolimán	10	San Lucas Tolimán	9	Septiembre	2023-09-21T00:00:00	2024-11-08T21:00:00	5	Humedad	65
148893	7	Sololá	713	San Lucas Tolimán	10	San Lucas Tolimán	9	Septiembre	2023-09-21T00:00:00	2024-11-08T21:00:00	6	Velocidad del viento	6.4
148894	7	Sololá	713	San Lucas Tolimán	10	San Lucas Tolimán	9	Septiembre	2023-09-21T00:00:00	2024-11-08T21:00:00	7	Dirección del viento	6.44
148895	7	Sololá	713	San Lucas Tolimán	10	San Lucas Tolimán	9	Septiembre	2023-09-21T00:00:00	2024-11-08T21:00:00	1	Precipitación	3.6
148896	7	Sololá	713	San Lucas Tolimán	10	San Lucas Tolimán	9	Septiembre	2023-09-21T00:00:00	2024-11-08T21:00:00	8	Radiación solar	0
148897	7	Sololá	713	San Lucas Tolimán	10	San Lucas Tolimán	9	Septiembre	2023-09-21T00:00:00	2024-11-08T22:00:00	2	Temperatura media	18.4
148898	7	Sololá	713	San Lucas Tolimán	10	San Lucas Tolimán	9	Septiembre	2023-09-21T00:00:00	2024-11-08T22:00:00	4	Temperatura máxima	18.7
148899	7	Sololá	713	San Lucas Tolimán	10	San Lucas Tolimán	9	Septiembre	2023-09-21T00:00:00	2024-11-08T22:00:00	3	Temperatura mínima	18.4
148900	7	Sololá	713	San Lucas Tolimán	10	San Lucas Tolimán	9	Septiembre	2023-09-21T00:00:00	2024-11-08T22:00:00	5	Humedad	68
148901	7	Sololá	713	San Lucas Tolimán	10	San Lucas Tolimán	9	Septiembre	2023-09-21T00:00:00	2024-11-08T22:00:00	6	Velocidad del viento	6.4
148902	7	Sololá	713	San Lucas Tolimán	10	San Lucas Tolimán	9	Septiembre	2023-09-21T00:00:00	2024-11-08T22:00:00	7	Dirección del viento	6.44
148903	7	Sololá	713	San Lucas Tolimán	10	San Lucas Tolimán	9	Septiembre	2023-09-21T00:00:00	2024-11-08T22:00:00	1	Precipitación	0.6
148904	7	Sololá	713	San Lucas Tolimán	10	San Lucas Tolimán	9	Septiembre	2023-09-21T00:00:00	2024-11-08T22:00:00	8	Radiación solar	0
148905	7	Sololá	713	San Lucas Tolimán	10	San Lucas Tolimán	9	Septiembre	2023-09-21T00:00:00	2024-11-08T23:00:00	2	Temperatura media	17.7
148906	7	Sololá	713	San Lucas Tolimán	10	San Lucas Tolimán	9	Septiembre	2023-09-21T00:00:00	2024-11-08T23:00:00	4	Temperatura máxima	18.4
148907	7	Sololá	713	San Lucas Tolimán	10	San Lucas Tolimán	9	Septiembre	2023-09-21T00:00:00	2024-11-08T23:00:00	3	Temperatura mínima	17.6
148908	7	Sololá	713	San Lucas Tolimán	10	San Lucas Tolimán	9	Septiembre	2023-09-21T00:00:00	2024-11-08T23:00:00	5	Humedad	68
148909	7	Sololá	713	San Lucas Tolimán	10	San Lucas Tolimán	9	Septiembre	2023-09-21T00:00:00	2024-11-08T23:00:00	6	Velocidad del viento	9.7
148910	7	Sololá	713	San Lucas Tolimán	10	San Lucas Tolimán	9	Septiembre	2023-09-21T00:00:00	2024-11-08T23:00:00	7	Dirección del viento	9.66
148911	7	Sololá	713	San Lucas Tolimán	10	San Lucas Tolimán	9	Septiembre	2023-09-21T00:00:00	2024-11-08T23:00:00	1	Precipitación	4
148912	7	Sololá	713	San Lucas Tolimán	10	San Lucas Tolimán	9	Septiembre	2023-09-21T00:00:00	2024-11-08T23:00:00	8	Radiación solar	0
148913	7	Sololá	713	San Lucas Tolimán	10	San Lucas Tolimán	9	Septiembre	2023-09-22T00:00:00	2024-11-08T00:00:00	2	Temperatura media	17.7
148914	7	Sololá	713	San Lucas Tolimán	10	San Lucas Tolimán	9	Septiembre	2023-09-22T00:00:00	2024-11-08T00:00:00	4	Temperatura máxima	17.8
148915	7	Sololá	713	San Lucas Tolimán	10	San Lucas Tolimán	9	Septiembre	2023-09-22T00:00:00	2024-11-08T00:00:00	3	Temperatura mínima	17.6
148916	7	Sololá	713	San Lucas Tolimán	10	San Lucas Tolimán	9	Septiembre	2023-09-22T00:00:00	2024-11-08T00:00:00	5	Humedad	68
148917	7	Sololá	713	San Lucas Tolimán	10	San Lucas Tolimán	9	Septiembre	2023-09-22T00:00:00	2024-11-08T00:00:00	6	Velocidad del viento	4.8
148918	7	Sololá	713	San Lucas Tolimán	10	San Lucas Tolimán	9	Septiembre	2023-09-22T00:00:00	2024-11-08T00:00:00	7	Dirección del viento	4.83
148919	7	Sololá	713	San Lucas Tolimán	10	San Lucas Tolimán	9	Septiembre	2023-09-22T00:00:00	2024-11-08T00:00:00	1	Precipitación	0
148920	7	Sololá	713	San Lucas Tolimán	10	San Lucas Tolimán	9	Septiembre	2023-09-22T00:00:00	2024-11-08T00:00:00	8	Radiación solar	0
148921	7	Sololá	713	San Lucas Tolimán	10	San Lucas Tolimán	9	Septiembre	2023-09-22T00:00:00	2024-11-08T01:00:00	2	Temperatura media	17.5
148922	7	Sololá	713	San Lucas Tolimán	10	San Lucas Tolimán	9	Septiembre	2023-09-22T00:00:00	2024-11-08T01:00:00	4	Temperatura máxima	17.7
148923	7	Sololá	713	San Lucas Tolimán	10	San Lucas Tolimán	9	Septiembre	2023-09-22T00:00:00	2024-11-08T01:00:00	3	Temperatura mínima	17.5
148924	7	Sololá	713	San Lucas Tolimán	10	San Lucas Tolimán	9	Septiembre	2023-09-22T00:00:00	2024-11-08T01:00:00	5	Humedad	68
148925	7	Sololá	713	San Lucas Tolimán	10	San Lucas Tolimán	9	Septiembre	2023-09-22T00:00:00	2024-11-08T01:00:00	6	Velocidad del viento	1.6
148926	7	Sololá	713	San Lucas Tolimán	10	San Lucas Tolimán	9	Septiembre	2023-09-22T00:00:00	2024-11-08T01:00:00	7	Dirección del viento	1.61
148927	7	Sololá	713	San Lucas Tolimán	10	San Lucas Tolimán	9	Septiembre	2023-09-22T00:00:00	2024-11-08T01:00:00	1	Precipitación	0
148928	7	Sololá	713	San Lucas Tolimán	10	San Lucas Tolimán	9	Septiembre	2023-09-22T00:00:00	2024-11-08T01:00:00	8	Radiación solar	0
148929	7	Sololá	713	San Lucas Tolimán	10	San Lucas Tolimán	9	Septiembre	2023-09-22T00:00:00	2024-11-08T02:00:00	2	Temperatura media	17.5
148930	7	Sololá	713	San Lucas Tolimán	10	San Lucas Tolimán	9	Septiembre	2023-09-22T00:00:00	2024-11-08T02:00:00	4	Temperatura máxima	17.7
148931	7	Sololá	713	San Lucas Tolimán	10	San Lucas Tolimán	9	Septiembre	2023-09-22T00:00:00	2024-11-08T02:00:00	3	Temperatura mínima	17.4
148932	7	Sololá	713	San Lucas Tolimán	10	San Lucas Tolimán	9	Septiembre	2023-09-22T00:00:00	2024-11-08T02:00:00	5	Humedad	67
148933	7	Sololá	713	San Lucas Tolimán	10	San Lucas Tolimán	9	Septiembre	2023-09-22T00:00:00	2024-11-08T02:00:00	6	Velocidad del viento	1.6
148934	7	Sololá	713	San Lucas Tolimán	10	San Lucas Tolimán	9	Septiembre	2023-09-22T00:00:00	2024-11-08T02:00:00	7	Dirección del viento	1.61
148935	7	Sololá	713	San Lucas Tolimán	10	San Lucas Tolimán	9	Septiembre	2023-09-22T00:00:00	2024-11-08T02:00:00	1	Precipitación	0
148936	7	Sololá	713	San Lucas Tolimán	10	San Lucas Tolimán	9	Septiembre	2023-09-22T00:00:00	2024-11-08T02:00:00	8	Radiación solar	0
148937	7	Sololá	713	San Lucas Tolimán	10	San Lucas Tolimán	9	Septiembre	2023-09-22T00:00:00	2024-11-08T03:00:00	2	Temperatura media	17.3
148938	7	Sololá	713	San Lucas Tolimán	10	San Lucas Tolimán	9	Septiembre	2023-09-22T00:00:00	2024-11-08T03:00:00	4	Temperatura máxima	17.6
148939	7	Sololá	713	San Lucas Tolimán	10	San Lucas Tolimán	9	Septiembre	2023-09-22T00:00:00	2024-11-08T03:00:00	3	Temperatura mínima	17.3
148940	7	Sololá	713	San Lucas Tolimán	10	San Lucas Tolimán	9	Septiembre	2023-09-22T00:00:00	2024-11-08T03:00:00	5	Humedad	67
148941	7	Sololá	713	San Lucas Tolimán	10	San Lucas Tolimán	9	Septiembre	2023-09-22T00:00:00	2024-11-08T03:00:00	6	Velocidad del viento	1.6
148942	7	Sololá	713	San Lucas Tolimán	10	San Lucas Tolimán	9	Septiembre	2023-09-22T00:00:00	2024-11-08T03:00:00	7	Dirección del viento	1.61
148943	7	Sololá	713	San Lucas Tolimán	10	San Lucas Tolimán	9	Septiembre	2023-09-22T00:00:00	2024-11-08T03:00:00	1	Precipitación	0
148944	7	Sololá	713	San Lucas Tolimán	10	San Lucas Tolimán	9	Septiembre	2023-09-22T00:00:00	2024-11-08T03:00:00	8	Radiación solar	0
148945	7	Sololá	713	San Lucas Tolimán	10	San Lucas Tolimán	9	Septiembre	2023-09-22T00:00:00	2024-11-08T04:00:00	2	Temperatura media	18.9
148946	7	Sololá	713	San Lucas Tolimán	10	San Lucas Tolimán	9	Septiembre	2023-09-22T00:00:00	2024-11-08T04:00:00	4	Temperatura máxima	18.9
148947	7	Sololá	713	San Lucas Tolimán	10	San Lucas Tolimán	9	Septiembre	2023-09-22T00:00:00	2024-11-08T04:00:00	3	Temperatura mínima	17.3
148948	7	Sololá	713	San Lucas Tolimán	10	San Lucas Tolimán	9	Septiembre	2023-09-22T00:00:00	2024-11-08T04:00:00	5	Humedad	61
148949	7	Sololá	713	San Lucas Tolimán	10	San Lucas Tolimán	9	Septiembre	2023-09-22T00:00:00	2024-11-08T04:00:00	6	Velocidad del viento	6.4
148950	7	Sololá	713	San Lucas Tolimán	10	San Lucas Tolimán	9	Septiembre	2023-09-22T00:00:00	2024-11-08T04:00:00	7	Dirección del viento	6.44
148951	7	Sololá	713	San Lucas Tolimán	10	San Lucas Tolimán	9	Septiembre	2023-09-22T00:00:00	2024-11-08T04:00:00	1	Precipitación	0
148952	7	Sololá	713	San Lucas Tolimán	10	San Lucas Tolimán	9	Septiembre	2023-09-22T00:00:00	2024-11-08T04:00:00	8	Radiación solar	0
148953	7	Sololá	713	San Lucas Tolimán	10	San Lucas Tolimán	9	Septiembre	2023-09-22T00:00:00	2024-11-08T05:00:00	2	Temperatura media	17.7
148954	7	Sololá	713	San Lucas Tolimán	10	San Lucas Tolimán	9	Septiembre	2023-09-22T00:00:00	2024-11-08T05:00:00	4	Temperatura máxima	19.3
148955	7	Sololá	713	San Lucas Tolimán	10	San Lucas Tolimán	9	Septiembre	2023-09-22T00:00:00	2024-11-08T05:00:00	3	Temperatura mínima	17.7
148956	7	Sololá	713	San Lucas Tolimán	10	San Lucas Tolimán	9	Septiembre	2023-09-22T00:00:00	2024-11-08T05:00:00	5	Humedad	64
148957	7	Sololá	713	San Lucas Tolimán	10	San Lucas Tolimán	9	Septiembre	2023-09-22T00:00:00	2024-11-08T05:00:00	6	Velocidad del viento	3.2
148958	7	Sololá	713	San Lucas Tolimán	10	San Lucas Tolimán	9	Septiembre	2023-09-22T00:00:00	2024-11-08T05:00:00	7	Dirección del viento	3.22
148959	7	Sololá	713	San Lucas Tolimán	10	San Lucas Tolimán	9	Septiembre	2023-09-22T00:00:00	2024-11-08T05:00:00	1	Precipitación	0
148960	7	Sololá	713	San Lucas Tolimán	10	San Lucas Tolimán	9	Septiembre	2023-09-22T00:00:00	2024-11-08T05:00:00	8	Radiación solar	0
148961	7	Sololá	713	San Lucas Tolimán	10	San Lucas Tolimán	9	Septiembre	2023-09-22T00:00:00	2024-11-08T06:00:00	2	Temperatura media	16.7
148962	7	Sololá	713	San Lucas Tolimán	10	San Lucas Tolimán	9	Septiembre	2023-09-22T00:00:00	2024-11-08T06:00:00	4	Temperatura máxima	17.7
148963	7	Sololá	713	San Lucas Tolimán	10	San Lucas Tolimán	9	Septiembre	2023-09-22T00:00:00	2024-11-08T06:00:00	3	Temperatura mínima	16.7
148964	7	Sololá	713	San Lucas Tolimán	10	San Lucas Tolimán	9	Septiembre	2023-09-22T00:00:00	2024-11-08T06:00:00	5	Humedad	64
148965	7	Sololá	713	San Lucas Tolimán	10	San Lucas Tolimán	9	Septiembre	2023-09-22T00:00:00	2024-11-08T06:00:00	6	Velocidad del viento	1.6
148966	7	Sololá	713	San Lucas Tolimán	10	San Lucas Tolimán	9	Septiembre	2023-09-22T00:00:00	2024-11-08T06:00:00	7	Dirección del viento	1.61
148967	7	Sololá	713	San Lucas Tolimán	10	San Lucas Tolimán	9	Septiembre	2023-09-22T00:00:00	2024-11-08T06:00:00	1	Precipitación	0
148968	7	Sololá	713	San Lucas Tolimán	10	San Lucas Tolimán	9	Septiembre	2023-09-22T00:00:00	2024-11-08T06:00:00	8	Radiación solar	0
148969	7	Sololá	713	San Lucas Tolimán	10	San Lucas Tolimán	9	Septiembre	2023-09-22T00:00:00	2024-11-08T07:00:00	2	Temperatura media	17.4
148970	7	Sololá	713	San Lucas Tolimán	10	San Lucas Tolimán	9	Septiembre	2023-09-22T00:00:00	2024-11-08T07:00:00	4	Temperatura máxima	17.4
148971	7	Sololá	713	San Lucas Tolimán	10	San Lucas Tolimán	9	Septiembre	2023-09-22T00:00:00	2024-11-08T07:00:00	3	Temperatura mínima	16.6
148972	7	Sololá	713	San Lucas Tolimán	10	San Lucas Tolimán	9	Septiembre	2023-09-22T00:00:00	2024-11-08T07:00:00	5	Humedad	62
148973	7	Sololá	713	San Lucas Tolimán	10	San Lucas Tolimán	9	Septiembre	2023-09-22T00:00:00	2024-11-08T07:00:00	6	Velocidad del viento	3.2
148974	7	Sololá	713	San Lucas Tolimán	10	San Lucas Tolimán	9	Septiembre	2023-09-22T00:00:00	2024-11-08T07:00:00	7	Dirección del viento	3.22
148975	7	Sololá	713	San Lucas Tolimán	10	San Lucas Tolimán	9	Septiembre	2023-09-22T00:00:00	2024-11-08T07:00:00	1	Precipitación	0
148976	7	Sololá	713	San Lucas Tolimán	10	San Lucas Tolimán	9	Septiembre	2023-09-22T00:00:00	2024-11-08T07:00:00	8	Radiación solar	48
148977	7	Sololá	713	San Lucas Tolimán	10	San Lucas Tolimán	9	Septiembre	2023-09-22T00:00:00	2024-11-08T08:00:00	2	Temperatura media	22.6
148978	7	Sololá	713	San Lucas Tolimán	10	San Lucas Tolimán	9	Septiembre	2023-09-22T00:00:00	2024-11-08T08:00:00	4	Temperatura máxima	22.6
148979	7	Sololá	713	San Lucas Tolimán	10	San Lucas Tolimán	9	Septiembre	2023-09-22T00:00:00	2024-11-08T08:00:00	3	Temperatura mínima	17.5
148980	7	Sololá	713	San Lucas Tolimán	10	San Lucas Tolimán	9	Septiembre	2023-09-22T00:00:00	2024-11-08T08:00:00	5	Humedad	51
148981	7	Sololá	713	San Lucas Tolimán	10	San Lucas Tolimán	9	Septiembre	2023-09-22T00:00:00	2024-11-08T08:00:00	6	Velocidad del viento	1.6
148982	7	Sololá	713	San Lucas Tolimán	10	San Lucas Tolimán	9	Septiembre	2023-09-22T00:00:00	2024-11-08T08:00:00	7	Dirección del viento	1.61
148983	7	Sololá	713	San Lucas Tolimán	10	San Lucas Tolimán	9	Septiembre	2023-09-22T00:00:00	2024-11-08T08:00:00	1	Precipitación	0
148984	7	Sololá	713	San Lucas Tolimán	10	San Lucas Tolimán	9	Septiembre	2023-09-22T00:00:00	2024-11-08T08:00:00	8	Radiación solar	353
148985	7	Sololá	713	San Lucas Tolimán	10	San Lucas Tolimán	9	Septiembre	2023-09-22T00:00:00	2024-11-08T09:00:00	2	Temperatura media	23.6
148986	7	Sololá	713	San Lucas Tolimán	10	San Lucas Tolimán	9	Septiembre	2023-09-22T00:00:00	2024-11-08T09:00:00	4	Temperatura máxima	24
148987	7	Sololá	713	San Lucas Tolimán	10	San Lucas Tolimán	9	Septiembre	2023-09-22T00:00:00	2024-11-08T09:00:00	3	Temperatura mínima	22.6
148988	7	Sololá	713	San Lucas Tolimán	10	San Lucas Tolimán	9	Septiembre	2023-09-22T00:00:00	2024-11-08T09:00:00	5	Humedad	47
148989	7	Sololá	713	San Lucas Tolimán	10	San Lucas Tolimán	9	Septiembre	2023-09-22T00:00:00	2024-11-08T09:00:00	6	Velocidad del viento	3.2
148990	7	Sololá	713	San Lucas Tolimán	10	San Lucas Tolimán	9	Septiembre	2023-09-22T00:00:00	2024-11-08T09:00:00	7	Dirección del viento	3.22
148991	7	Sololá	713	San Lucas Tolimán	10	San Lucas Tolimán	9	Septiembre	2023-09-22T00:00:00	2024-11-08T09:00:00	1	Precipitación	0
148992	7	Sololá	713	San Lucas Tolimán	10	San Lucas Tolimán	9	Septiembre	2023-09-22T00:00:00	2024-11-08T09:00:00	8	Radiación solar	674
148993	7	Sololá	713	San Lucas Tolimán	10	San Lucas Tolimán	9	Septiembre	2023-09-22T00:00:00	2024-11-08T10:00:00	2	Temperatura media	23.9
148994	7	Sololá	713	San Lucas Tolimán	10	San Lucas Tolimán	9	Septiembre	2023-09-22T00:00:00	2024-11-08T10:00:00	4	Temperatura máxima	24.4
148995	7	Sololá	713	San Lucas Tolimán	10	San Lucas Tolimán	9	Septiembre	2023-09-22T00:00:00	2024-11-08T10:00:00	3	Temperatura mínima	23.6
148996	7	Sololá	713	San Lucas Tolimán	10	San Lucas Tolimán	9	Septiembre	2023-09-22T00:00:00	2024-11-08T10:00:00	5	Humedad	47
148997	7	Sololá	713	San Lucas Tolimán	10	San Lucas Tolimán	9	Septiembre	2023-09-22T00:00:00	2024-11-08T10:00:00	6	Velocidad del viento	4.8
148998	7	Sololá	713	San Lucas Tolimán	10	San Lucas Tolimán	9	Septiembre	2023-09-22T00:00:00	2024-11-08T10:00:00	7	Dirección del viento	4.83
148999	7	Sololá	713	San Lucas Tolimán	10	San Lucas Tolimán	9	Septiembre	2023-09-22T00:00:00	2024-11-08T10:00:00	1	Precipitación	0
149000	7	Sololá	713	San Lucas Tolimán	10	San Lucas Tolimán	9	Septiembre	2023-09-22T00:00:00	2024-11-08T10:00:00	8	Radiación solar	747
149001	7	Sololá	713	San Lucas Tolimán	10	San Lucas Tolimán	9	Septiembre	2023-09-22T00:00:00	2024-11-08T11:00:00	2	Temperatura media	24.3
149002	7	Sololá	713	San Lucas Tolimán	10	San Lucas Tolimán	9	Septiembre	2023-09-22T00:00:00	2024-11-08T11:00:00	4	Temperatura máxima	24.5
149003	7	Sololá	713	San Lucas Tolimán	10	San Lucas Tolimán	9	Septiembre	2023-09-22T00:00:00	2024-11-08T11:00:00	3	Temperatura mínima	22.8
149004	7	Sololá	713	San Lucas Tolimán	10	San Lucas Tolimán	9	Septiembre	2023-09-22T00:00:00	2024-11-08T11:00:00	5	Humedad	57
149005	7	Sololá	713	San Lucas Tolimán	10	San Lucas Tolimán	9	Septiembre	2023-09-22T00:00:00	2024-11-08T11:00:00	6	Velocidad del viento	6.4
149006	7	Sololá	713	San Lucas Tolimán	10	San Lucas Tolimán	9	Septiembre	2023-09-22T00:00:00	2024-11-08T11:00:00	7	Dirección del viento	6.44
149007	7	Sololá	713	San Lucas Tolimán	10	San Lucas Tolimán	9	Septiembre	2023-09-22T00:00:00	2024-11-08T11:00:00	1	Precipitación	0
149008	7	Sololá	713	San Lucas Tolimán	10	San Lucas Tolimán	9	Septiembre	2023-09-22T00:00:00	2024-11-08T11:00:00	8	Radiación solar	779
149009	7	Sololá	713	San Lucas Tolimán	10	San Lucas Tolimán	9	Septiembre	2023-09-22T00:00:00	2024-11-08T12:00:00	2	Temperatura media	23.3
149010	7	Sololá	713	San Lucas Tolimán	10	San Lucas Tolimán	9	Septiembre	2023-09-22T00:00:00	2024-11-08T12:00:00	4	Temperatura máxima	24.3
149011	7	Sololá	713	San Lucas Tolimán	10	San Lucas Tolimán	9	Septiembre	2023-09-22T00:00:00	2024-11-08T12:00:00	3	Temperatura mínima	22.8
149012	7	Sololá	713	San Lucas Tolimán	10	San Lucas Tolimán	9	Septiembre	2023-09-22T00:00:00	2024-11-08T12:00:00	5	Humedad	60
149013	7	Sololá	713	San Lucas Tolimán	10	San Lucas Tolimán	9	Septiembre	2023-09-22T00:00:00	2024-11-08T12:00:00	6	Velocidad del viento	11.3
149014	7	Sololá	713	San Lucas Tolimán	10	San Lucas Tolimán	9	Septiembre	2023-09-22T00:00:00	2024-11-08T12:00:00	7	Dirección del viento	11.27
149015	7	Sololá	713	San Lucas Tolimán	10	San Lucas Tolimán	9	Septiembre	2023-09-22T00:00:00	2024-11-08T12:00:00	1	Precipitación	0
149016	7	Sololá	713	San Lucas Tolimán	10	San Lucas Tolimán	9	Septiembre	2023-09-22T00:00:00	2024-11-08T12:00:00	8	Radiación solar	1000
149017	7	Sololá	713	San Lucas Tolimán	10	San Lucas Tolimán	9	Septiembre	2023-09-22T00:00:00	2024-11-08T13:00:00	2	Temperatura media	23
149018	7	Sololá	713	San Lucas Tolimán	10	San Lucas Tolimán	9	Septiembre	2023-09-22T00:00:00	2024-11-08T13:00:00	4	Temperatura máxima	23.8
149019	7	Sololá	713	San Lucas Tolimán	10	San Lucas Tolimán	9	Septiembre	2023-09-22T00:00:00	2024-11-08T13:00:00	3	Temperatura mínima	22.1
149020	7	Sololá	713	San Lucas Tolimán	10	San Lucas Tolimán	9	Septiembre	2023-09-22T00:00:00	2024-11-08T13:00:00	5	Humedad	59
149021	7	Sololá	713	San Lucas Tolimán	10	San Lucas Tolimán	9	Septiembre	2023-09-22T00:00:00	2024-11-08T13:00:00	6	Velocidad del viento	11.3
149022	7	Sololá	713	San Lucas Tolimán	10	San Lucas Tolimán	9	Septiembre	2023-09-22T00:00:00	2024-11-08T13:00:00	7	Dirección del viento	11.27
149023	7	Sololá	713	San Lucas Tolimán	10	San Lucas Tolimán	9	Septiembre	2023-09-22T00:00:00	2024-11-08T13:00:00	1	Precipitación	0
149024	7	Sololá	713	San Lucas Tolimán	10	San Lucas Tolimán	9	Septiembre	2023-09-22T00:00:00	2024-11-08T13:00:00	8	Radiación solar	725
149025	7	Sololá	713	San Lucas Tolimán	10	San Lucas Tolimán	9	Septiembre	2023-09-22T00:00:00	2024-11-08T14:00:00	2	Temperatura media	23.1
149026	7	Sololá	713	San Lucas Tolimán	10	San Lucas Tolimán	9	Septiembre	2023-09-22T00:00:00	2024-11-08T14:00:00	4	Temperatura máxima	23.1
149027	7	Sololá	713	San Lucas Tolimán	10	San Lucas Tolimán	9	Septiembre	2023-09-22T00:00:00	2024-11-08T14:00:00	3	Temperatura mínima	22.5
149028	7	Sololá	713	San Lucas Tolimán	10	San Lucas Tolimán	9	Septiembre	2023-09-22T00:00:00	2024-11-08T14:00:00	5	Humedad	60
149029	7	Sololá	713	San Lucas Tolimán	10	San Lucas Tolimán	9	Septiembre	2023-09-22T00:00:00	2024-11-08T14:00:00	6	Velocidad del viento	11.3
149030	7	Sololá	713	San Lucas Tolimán	10	San Lucas Tolimán	9	Septiembre	2023-09-22T00:00:00	2024-11-08T14:00:00	7	Dirección del viento	11.27
149031	7	Sololá	713	San Lucas Tolimán	10	San Lucas Tolimán	9	Septiembre	2023-09-22T00:00:00	2024-11-08T14:00:00	1	Precipitación	0
149032	7	Sololá	713	San Lucas Tolimán	10	San Lucas Tolimán	9	Septiembre	2023-09-22T00:00:00	2024-11-08T14:00:00	8	Radiación solar	855
149033	7	Sololá	713	San Lucas Tolimán	10	San Lucas Tolimán	9	Septiembre	2023-09-22T00:00:00	2024-11-08T15:00:00	2	Temperatura media	22.4
149034	7	Sololá	713	San Lucas Tolimán	10	San Lucas Tolimán	9	Septiembre	2023-09-22T00:00:00	2024-11-08T15:00:00	4	Temperatura máxima	23.4
149035	7	Sololá	713	San Lucas Tolimán	10	San Lucas Tolimán	9	Septiembre	2023-09-22T00:00:00	2024-11-08T15:00:00	3	Temperatura mínima	22.3
149036	7	Sololá	713	San Lucas Tolimán	10	San Lucas Tolimán	9	Septiembre	2023-09-22T00:00:00	2024-11-08T15:00:00	5	Humedad	61
149037	7	Sololá	713	San Lucas Tolimán	10	San Lucas Tolimán	9	Septiembre	2023-09-22T00:00:00	2024-11-08T15:00:00	6	Velocidad del viento	12.9
149038	7	Sololá	713	San Lucas Tolimán	10	San Lucas Tolimán	9	Septiembre	2023-09-22T00:00:00	2024-11-08T15:00:00	7	Dirección del viento	12.87
149039	7	Sololá	713	San Lucas Tolimán	10	San Lucas Tolimán	9	Septiembre	2023-09-22T00:00:00	2024-11-08T15:00:00	1	Precipitación	0
149040	7	Sololá	713	San Lucas Tolimán	10	San Lucas Tolimán	9	Septiembre	2023-09-22T00:00:00	2024-11-08T15:00:00	8	Radiación solar	838
149041	7	Sololá	713	San Lucas Tolimán	10	San Lucas Tolimán	9	Septiembre	2023-09-22T00:00:00	2024-11-08T16:00:00	2	Temperatura media	22.1
149042	7	Sololá	713	San Lucas Tolimán	10	San Lucas Tolimán	9	Septiembre	2023-09-22T00:00:00	2024-11-08T16:00:00	4	Temperatura máxima	22.9
149043	7	Sololá	713	San Lucas Tolimán	10	San Lucas Tolimán	9	Septiembre	2023-09-22T00:00:00	2024-11-08T16:00:00	3	Temperatura mínima	21.9
149044	7	Sololá	713	San Lucas Tolimán	10	San Lucas Tolimán	9	Septiembre	2023-09-22T00:00:00	2024-11-08T16:00:00	5	Humedad	61
149045	7	Sololá	713	San Lucas Tolimán	10	San Lucas Tolimán	9	Septiembre	2023-09-22T00:00:00	2024-11-08T16:00:00	6	Velocidad del viento	12.9
149046	7	Sololá	713	San Lucas Tolimán	10	San Lucas Tolimán	9	Septiembre	2023-09-22T00:00:00	2024-11-08T16:00:00	7	Dirección del viento	12.87
149047	7	Sololá	713	San Lucas Tolimán	10	San Lucas Tolimán	9	Septiembre	2023-09-22T00:00:00	2024-11-08T16:00:00	1	Precipitación	0
149048	7	Sololá	713	San Lucas Tolimán	10	San Lucas Tolimán	9	Septiembre	2023-09-22T00:00:00	2024-11-08T16:00:00	8	Radiación solar	567
149049	7	Sololá	713	San Lucas Tolimán	10	San Lucas Tolimán	9	Septiembre	2023-09-22T00:00:00	2024-11-08T17:00:00	2	Temperatura media	21.6
149050	7	Sololá	713	San Lucas Tolimán	10	San Lucas Tolimán	9	Septiembre	2023-09-22T00:00:00	2024-11-08T17:00:00	4	Temperatura máxima	22.2
149051	7	Sololá	713	San Lucas Tolimán	10	San Lucas Tolimán	9	Septiembre	2023-09-22T00:00:00	2024-11-08T17:00:00	3	Temperatura mínima	21.6
149052	7	Sololá	713	San Lucas Tolimán	10	San Lucas Tolimán	9	Septiembre	2023-09-22T00:00:00	2024-11-08T17:00:00	5	Humedad	60
149053	7	Sololá	713	San Lucas Tolimán	10	San Lucas Tolimán	9	Septiembre	2023-09-22T00:00:00	2024-11-08T17:00:00	6	Velocidad del viento	11.3
149054	7	Sololá	713	San Lucas Tolimán	10	San Lucas Tolimán	9	Septiembre	2023-09-22T00:00:00	2024-11-08T17:00:00	7	Dirección del viento	11.27
149055	7	Sololá	713	San Lucas Tolimán	10	San Lucas Tolimán	9	Septiembre	2023-09-22T00:00:00	2024-11-08T17:00:00	1	Precipitación	0
149056	7	Sololá	713	San Lucas Tolimán	10	San Lucas Tolimán	9	Septiembre	2023-09-22T00:00:00	2024-11-08T17:00:00	8	Radiación solar	291
149057	7	Sololá	713	San Lucas Tolimán	10	San Lucas Tolimán	9	Septiembre	2023-09-22T00:00:00	2024-11-08T18:00:00	2	Temperatura media	20.3
149058	7	Sololá	713	San Lucas Tolimán	10	San Lucas Tolimán	9	Septiembre	2023-09-22T00:00:00	2024-11-08T18:00:00	4	Temperatura máxima	21.6
149059	7	Sololá	713	San Lucas Tolimán	10	San Lucas Tolimán	9	Septiembre	2023-09-22T00:00:00	2024-11-08T18:00:00	3	Temperatura mínima	20.3
149060	7	Sololá	713	San Lucas Tolimán	10	San Lucas Tolimán	9	Septiembre	2023-09-22T00:00:00	2024-11-08T18:00:00	5	Humedad	60
149061	7	Sololá	713	San Lucas Tolimán	10	San Lucas Tolimán	9	Septiembre	2023-09-22T00:00:00	2024-11-08T18:00:00	6	Velocidad del viento	9.7
149062	7	Sololá	713	San Lucas Tolimán	10	San Lucas Tolimán	9	Septiembre	2023-09-22T00:00:00	2024-11-08T18:00:00	7	Dirección del viento	9.66
149063	7	Sololá	713	San Lucas Tolimán	10	San Lucas Tolimán	9	Septiembre	2023-09-22T00:00:00	2024-11-08T18:00:00	1	Precipitación	0
149064	7	Sololá	713	San Lucas Tolimán	10	San Lucas Tolimán	9	Septiembre	2023-09-22T00:00:00	2024-11-08T18:00:00	8	Radiación solar	51
149065	7	Sololá	713	San Lucas Tolimán	10	San Lucas Tolimán	9	Septiembre	2023-09-22T00:00:00	2024-11-08T19:00:00	2	Temperatura media	20.1
149066	7	Sololá	713	San Lucas Tolimán	10	San Lucas Tolimán	9	Septiembre	2023-09-22T00:00:00	2024-11-08T19:00:00	4	Temperatura máxima	20.4
149067	7	Sololá	713	San Lucas Tolimán	10	San Lucas Tolimán	9	Septiembre	2023-09-22T00:00:00	2024-11-08T19:00:00	3	Temperatura mínima	19.9
149068	7	Sololá	713	San Lucas Tolimán	10	San Lucas Tolimán	9	Septiembre	2023-09-22T00:00:00	2024-11-08T19:00:00	5	Humedad	59
149069	7	Sololá	713	San Lucas Tolimán	10	San Lucas Tolimán	9	Septiembre	2023-09-22T00:00:00	2024-11-08T19:00:00	6	Velocidad del viento	6.4
149070	7	Sololá	713	San Lucas Tolimán	10	San Lucas Tolimán	9	Septiembre	2023-09-22T00:00:00	2024-11-08T19:00:00	7	Dirección del viento	6.44
149071	7	Sololá	713	San Lucas Tolimán	10	San Lucas Tolimán	9	Septiembre	2023-09-22T00:00:00	2024-11-08T19:00:00	1	Precipitación	0
149072	7	Sololá	713	San Lucas Tolimán	10	San Lucas Tolimán	9	Septiembre	2023-09-22T00:00:00	2024-11-08T19:00:00	8	Radiación solar	0
149073	7	Sololá	713	San Lucas Tolimán	10	San Lucas Tolimán	9	Septiembre	2023-09-22T00:00:00	2024-11-08T20:00:00	2	Temperatura media	19.9
149074	7	Sololá	713	San Lucas Tolimán	10	San Lucas Tolimán	9	Septiembre	2023-09-22T00:00:00	2024-11-08T20:00:00	4	Temperatura máxima	20.2
149075	7	Sololá	713	San Lucas Tolimán	10	San Lucas Tolimán	9	Septiembre	2023-09-22T00:00:00	2024-11-08T20:00:00	3	Temperatura mínima	19.7
149076	7	Sololá	713	San Lucas Tolimán	10	San Lucas Tolimán	9	Septiembre	2023-09-22T00:00:00	2024-11-08T20:00:00	5	Humedad	61
149077	7	Sololá	713	San Lucas Tolimán	10	San Lucas Tolimán	9	Septiembre	2023-09-22T00:00:00	2024-11-08T20:00:00	6	Velocidad del viento	6.4
149078	7	Sololá	713	San Lucas Tolimán	10	San Lucas Tolimán	9	Septiembre	2023-09-22T00:00:00	2024-11-08T20:00:00	7	Dirección del viento	6.44
149079	7	Sololá	713	San Lucas Tolimán	10	San Lucas Tolimán	9	Septiembre	2023-09-22T00:00:00	2024-11-08T20:00:00	1	Precipitación	0
149080	7	Sololá	713	San Lucas Tolimán	10	San Lucas Tolimán	9	Septiembre	2023-09-22T00:00:00	2024-11-08T20:00:00	8	Radiación solar	0
149081	7	Sololá	713	San Lucas Tolimán	10	San Lucas Tolimán	9	Septiembre	2023-09-22T00:00:00	2024-11-08T21:00:00	2	Temperatura media	19.6
149082	7	Sololá	713	San Lucas Tolimán	10	San Lucas Tolimán	9	Septiembre	2023-09-22T00:00:00	2024-11-08T21:00:00	4	Temperatura máxima	20
149083	7	Sololá	713	San Lucas Tolimán	10	San Lucas Tolimán	9	Septiembre	2023-09-22T00:00:00	2024-11-08T21:00:00	3	Temperatura mínima	19.5
149084	7	Sololá	713	San Lucas Tolimán	10	San Lucas Tolimán	9	Septiembre	2023-09-22T00:00:00	2024-11-08T21:00:00	5	Humedad	59
149085	7	Sololá	713	San Lucas Tolimán	10	San Lucas Tolimán	9	Septiembre	2023-09-22T00:00:00	2024-11-08T21:00:00	6	Velocidad del viento	3.2
149086	7	Sololá	713	San Lucas Tolimán	10	San Lucas Tolimán	9	Septiembre	2023-09-22T00:00:00	2024-11-08T21:00:00	7	Dirección del viento	3.22
149087	7	Sololá	713	San Lucas Tolimán	10	San Lucas Tolimán	9	Septiembre	2023-09-22T00:00:00	2024-11-08T21:00:00	1	Precipitación	0
149088	7	Sololá	713	San Lucas Tolimán	10	San Lucas Tolimán	9	Septiembre	2023-09-22T00:00:00	2024-11-08T21:00:00	8	Radiación solar	0
149089	7	Sololá	713	San Lucas Tolimán	10	San Lucas Tolimán	9	Septiembre	2023-09-22T00:00:00	2024-11-08T22:00:00	2	Temperatura media	19.9
149090	7	Sololá	713	San Lucas Tolimán	10	San Lucas Tolimán	9	Septiembre	2023-09-22T00:00:00	2024-11-08T22:00:00	4	Temperatura máxima	20.1
149091	7	Sololá	713	San Lucas Tolimán	10	San Lucas Tolimán	9	Septiembre	2023-09-22T00:00:00	2024-11-08T22:00:00	3	Temperatura mínima	19.5
149092	7	Sololá	713	San Lucas Tolimán	10	San Lucas Tolimán	9	Septiembre	2023-09-22T00:00:00	2024-11-08T22:00:00	5	Humedad	56
149093	7	Sololá	713	San Lucas Tolimán	10	San Lucas Tolimán	9	Septiembre	2023-09-22T00:00:00	2024-11-08T22:00:00	6	Velocidad del viento	0
149094	7	Sololá	713	San Lucas Tolimán	10	San Lucas Tolimán	9	Septiembre	2023-09-22T00:00:00	2024-11-08T22:00:00	7	Dirección del viento	0
149095	7	Sololá	713	San Lucas Tolimán	10	San Lucas Tolimán	9	Septiembre	2023-09-22T00:00:00	2024-11-08T22:00:00	1	Precipitación	0
149096	7	Sololá	713	San Lucas Tolimán	10	San Lucas Tolimán	9	Septiembre	2023-09-22T00:00:00	2024-11-08T22:00:00	8	Radiación solar	0
149097	7	Sololá	713	San Lucas Tolimán	10	San Lucas Tolimán	9	Septiembre	2023-09-22T00:00:00	2024-11-08T23:00:00	2	Temperatura media	20.3
149098	7	Sololá	713	San Lucas Tolimán	10	San Lucas Tolimán	9	Septiembre	2023-09-22T00:00:00	2024-11-08T23:00:00	4	Temperatura máxima	20.4
149099	7	Sololá	713	San Lucas Tolimán	10	San Lucas Tolimán	9	Septiembre	2023-09-22T00:00:00	2024-11-08T23:00:00	3	Temperatura mínima	19.8
149100	7	Sololá	713	San Lucas Tolimán	10	San Lucas Tolimán	9	Septiembre	2023-09-22T00:00:00	2024-11-08T23:00:00	5	Humedad	55
149101	7	Sololá	713	San Lucas Tolimán	10	San Lucas Tolimán	9	Septiembre	2023-09-22T00:00:00	2024-11-08T23:00:00	6	Velocidad del viento	3.2
149102	7	Sololá	713	San Lucas Tolimán	10	San Lucas Tolimán	9	Septiembre	2023-09-22T00:00:00	2024-11-08T23:00:00	7	Dirección del viento	3.22
149103	7	Sololá	713	San Lucas Tolimán	10	San Lucas Tolimán	9	Septiembre	2023-09-22T00:00:00	2024-11-08T23:00:00	1	Precipitación	0
149104	7	Sololá	713	San Lucas Tolimán	10	San Lucas Tolimán	9	Septiembre	2023-09-22T00:00:00	2024-11-08T23:00:00	8	Radiación solar	0
149105	7	Sololá	713	San Lucas Tolimán	10	San Lucas Tolimán	9	Septiembre	2023-09-23T00:00:00	2024-11-08T00:00:00	2	Temperatura media	19.7
149106	7	Sololá	713	San Lucas Tolimán	10	San Lucas Tolimán	9	Septiembre	2023-09-23T00:00:00	2024-11-08T00:00:00	4	Temperatura máxima	20.6
149107	7	Sololá	713	San Lucas Tolimán	10	San Lucas Tolimán	9	Septiembre	2023-09-23T00:00:00	2024-11-08T00:00:00	3	Temperatura mínima	19.7
149108	7	Sololá	713	San Lucas Tolimán	10	San Lucas Tolimán	9	Septiembre	2023-09-23T00:00:00	2024-11-08T00:00:00	5	Humedad	58
149109	7	Sololá	713	San Lucas Tolimán	10	San Lucas Tolimán	9	Septiembre	2023-09-23T00:00:00	2024-11-08T00:00:00	6	Velocidad del viento	1.6
149110	7	Sololá	713	San Lucas Tolimán	10	San Lucas Tolimán	9	Septiembre	2023-09-23T00:00:00	2024-11-08T00:00:00	7	Dirección del viento	1.61
149111	7	Sololá	713	San Lucas Tolimán	10	San Lucas Tolimán	9	Septiembre	2023-09-23T00:00:00	2024-11-08T00:00:00	1	Precipitación	0
149112	7	Sololá	713	San Lucas Tolimán	10	San Lucas Tolimán	9	Septiembre	2023-09-23T00:00:00	2024-11-08T00:00:00	8	Radiación solar	0
149113	7	Sololá	713	San Lucas Tolimán	10	San Lucas Tolimán	9	Septiembre	2023-09-23T00:00:00	2024-11-08T01:00:00	2	Temperatura media	18.6
149114	7	Sololá	713	San Lucas Tolimán	10	San Lucas Tolimán	9	Septiembre	2023-09-23T00:00:00	2024-11-08T01:00:00	4	Temperatura máxima	19.7
149115	7	Sololá	713	San Lucas Tolimán	10	San Lucas Tolimán	9	Septiembre	2023-09-23T00:00:00	2024-11-08T01:00:00	3	Temperatura mínima	18.5
149116	7	Sololá	713	San Lucas Tolimán	10	San Lucas Tolimán	9	Septiembre	2023-09-23T00:00:00	2024-11-08T01:00:00	5	Humedad	60
149117	7	Sololá	713	San Lucas Tolimán	10	San Lucas Tolimán	9	Septiembre	2023-09-23T00:00:00	2024-11-08T01:00:00	6	Velocidad del viento	3.2
149118	7	Sololá	713	San Lucas Tolimán	10	San Lucas Tolimán	9	Septiembre	2023-09-23T00:00:00	2024-11-08T01:00:00	7	Dirección del viento	3.22
149119	7	Sololá	713	San Lucas Tolimán	10	San Lucas Tolimán	9	Septiembre	2023-09-23T00:00:00	2024-11-08T01:00:00	1	Precipitación	0
149120	7	Sololá	713	San Lucas Tolimán	10	San Lucas Tolimán	9	Septiembre	2023-09-23T00:00:00	2024-11-08T01:00:00	8	Radiación solar	0
149121	7	Sololá	713	San Lucas Tolimán	10	San Lucas Tolimán	9	Septiembre	2023-09-23T00:00:00	2024-11-08T02:00:00	2	Temperatura media	18.3
149122	7	Sololá	713	San Lucas Tolimán	10	San Lucas Tolimán	9	Septiembre	2023-09-23T00:00:00	2024-11-08T02:00:00	4	Temperatura máxima	18.8
149123	7	Sololá	713	San Lucas Tolimán	10	San Lucas Tolimán	9	Septiembre	2023-09-23T00:00:00	2024-11-08T02:00:00	3	Temperatura mínima	18.3
149124	7	Sololá	713	San Lucas Tolimán	10	San Lucas Tolimán	9	Septiembre	2023-09-23T00:00:00	2024-11-08T02:00:00	5	Humedad	61
149125	7	Sololá	713	San Lucas Tolimán	10	San Lucas Tolimán	9	Septiembre	2023-09-23T00:00:00	2024-11-08T02:00:00	6	Velocidad del viento	1.6
149126	7	Sololá	713	San Lucas Tolimán	10	San Lucas Tolimán	9	Septiembre	2023-09-23T00:00:00	2024-11-08T02:00:00	7	Dirección del viento	1.61
149127	7	Sololá	713	San Lucas Tolimán	10	San Lucas Tolimán	9	Septiembre	2023-09-23T00:00:00	2024-11-08T02:00:00	1	Precipitación	0
149128	7	Sololá	713	San Lucas Tolimán	10	San Lucas Tolimán	9	Septiembre	2023-09-23T00:00:00	2024-11-08T02:00:00	8	Radiación solar	0
149129	7	Sololá	713	San Lucas Tolimán	10	San Lucas Tolimán	9	Septiembre	2023-09-23T00:00:00	2024-11-08T03:00:00	2	Temperatura media	17.3
149130	7	Sololá	713	San Lucas Tolimán	10	San Lucas Tolimán	9	Septiembre	2023-09-23T00:00:00	2024-11-08T03:00:00	4	Temperatura máxima	18.3
149131	7	Sololá	713	San Lucas Tolimán	10	San Lucas Tolimán	9	Septiembre	2023-09-23T00:00:00	2024-11-08T03:00:00	3	Temperatura mínima	17.3
149132	7	Sololá	713	San Lucas Tolimán	10	San Lucas Tolimán	9	Septiembre	2023-09-23T00:00:00	2024-11-08T03:00:00	5	Humedad	62
149133	7	Sololá	713	San Lucas Tolimán	10	San Lucas Tolimán	9	Septiembre	2023-09-23T00:00:00	2024-11-08T03:00:00	6	Velocidad del viento	0
149134	7	Sololá	713	San Lucas Tolimán	10	San Lucas Tolimán	9	Septiembre	2023-09-23T00:00:00	2024-11-08T03:00:00	7	Dirección del viento	0
149135	7	Sololá	713	San Lucas Tolimán	10	San Lucas Tolimán	9	Septiembre	2023-09-23T00:00:00	2024-11-08T03:00:00	1	Precipitación	0
149136	7	Sololá	713	San Lucas Tolimán	10	San Lucas Tolimán	9	Septiembre	2023-09-23T00:00:00	2024-11-08T03:00:00	8	Radiación solar	0
149137	7	Sololá	713	San Lucas Tolimán	10	San Lucas Tolimán	9	Septiembre	2023-09-23T00:00:00	2024-11-08T04:00:00	2	Temperatura media	16.3
149138	7	Sololá	713	San Lucas Tolimán	10	San Lucas Tolimán	9	Septiembre	2023-09-23T00:00:00	2024-11-08T04:00:00	4	Temperatura máxima	17.3
149139	7	Sololá	713	San Lucas Tolimán	10	San Lucas Tolimán	9	Septiembre	2023-09-23T00:00:00	2024-11-08T04:00:00	3	Temperatura mínima	16.3
149140	7	Sololá	713	San Lucas Tolimán	10	San Lucas Tolimán	9	Septiembre	2023-09-23T00:00:00	2024-11-08T04:00:00	5	Humedad	61
149141	7	Sololá	713	San Lucas Tolimán	10	San Lucas Tolimán	9	Septiembre	2023-09-23T00:00:00	2024-11-08T04:00:00	6	Velocidad del viento	0
149142	7	Sololá	713	San Lucas Tolimán	10	San Lucas Tolimán	9	Septiembre	2023-09-23T00:00:00	2024-11-08T04:00:00	7	Dirección del viento	0
149143	7	Sololá	713	San Lucas Tolimán	10	San Lucas Tolimán	9	Septiembre	2023-09-23T00:00:00	2024-11-08T04:00:00	1	Precipitación	0
149144	7	Sololá	713	San Lucas Tolimán	10	San Lucas Tolimán	9	Septiembre	2023-09-23T00:00:00	2024-11-08T04:00:00	8	Radiación solar	0
149145	7	Sololá	713	San Lucas Tolimán	10	San Lucas Tolimán	9	Septiembre	2023-09-23T00:00:00	2024-11-08T05:00:00	2	Temperatura media	15.8
149146	7	Sololá	713	San Lucas Tolimán	10	San Lucas Tolimán	9	Septiembre	2023-09-23T00:00:00	2024-11-08T05:00:00	4	Temperatura máxima	16.5
149147	7	Sololá	713	San Lucas Tolimán	10	San Lucas Tolimán	9	Septiembre	2023-09-23T00:00:00	2024-11-08T05:00:00	3	Temperatura mínima	15.8
149148	7	Sololá	713	San Lucas Tolimán	10	San Lucas Tolimán	9	Septiembre	2023-09-23T00:00:00	2024-11-08T05:00:00	5	Humedad	61
149149	7	Sololá	713	San Lucas Tolimán	10	San Lucas Tolimán	9	Septiembre	2023-09-23T00:00:00	2024-11-08T05:00:00	6	Velocidad del viento	0
149150	7	Sololá	713	San Lucas Tolimán	10	San Lucas Tolimán	9	Septiembre	2023-09-23T00:00:00	2024-11-08T05:00:00	7	Dirección del viento	0
149151	7	Sololá	713	San Lucas Tolimán	10	San Lucas Tolimán	9	Septiembre	2023-09-23T00:00:00	2024-11-08T05:00:00	1	Precipitación	0
149152	7	Sololá	713	San Lucas Tolimán	10	San Lucas Tolimán	9	Septiembre	2023-09-23T00:00:00	2024-11-08T05:00:00	8	Radiación solar	0
149153	7	Sololá	713	San Lucas Tolimán	10	San Lucas Tolimán	9	Septiembre	2023-09-23T00:00:00	2024-11-08T06:00:00	2	Temperatura media	16.3
149154	7	Sololá	713	San Lucas Tolimán	10	San Lucas Tolimán	9	Septiembre	2023-09-23T00:00:00	2024-11-08T06:00:00	4	Temperatura máxima	16.4
149155	7	Sololá	713	San Lucas Tolimán	10	San Lucas Tolimán	9	Septiembre	2023-09-23T00:00:00	2024-11-08T06:00:00	3	Temperatura mínima	15.7
149156	7	Sololá	713	San Lucas Tolimán	10	San Lucas Tolimán	9	Septiembre	2023-09-23T00:00:00	2024-11-08T06:00:00	5	Humedad	60
149157	7	Sololá	713	San Lucas Tolimán	10	San Lucas Tolimán	9	Septiembre	2023-09-23T00:00:00	2024-11-08T06:00:00	6	Velocidad del viento	0
149158	7	Sololá	713	San Lucas Tolimán	10	San Lucas Tolimán	9	Septiembre	2023-09-23T00:00:00	2024-11-08T06:00:00	7	Dirección del viento	0
149159	7	Sololá	713	San Lucas Tolimán	10	San Lucas Tolimán	9	Septiembre	2023-09-23T00:00:00	2024-11-08T06:00:00	1	Precipitación	0
149160	7	Sololá	713	San Lucas Tolimán	10	San Lucas Tolimán	9	Septiembre	2023-09-23T00:00:00	2024-11-08T06:00:00	8	Radiación solar	0
149161	7	Sololá	713	San Lucas Tolimán	10	San Lucas Tolimán	9	Septiembre	2023-09-23T00:00:00	2024-11-08T07:00:00	2	Temperatura media	16.9
149162	7	Sololá	713	San Lucas Tolimán	10	San Lucas Tolimán	9	Septiembre	2023-09-23T00:00:00	2024-11-08T07:00:00	4	Temperatura máxima	17
149163	7	Sololá	713	San Lucas Tolimán	10	San Lucas Tolimán	9	Septiembre	2023-09-23T00:00:00	2024-11-08T07:00:00	3	Temperatura mínima	16.3
149164	7	Sololá	713	San Lucas Tolimán	10	San Lucas Tolimán	9	Septiembre	2023-09-23T00:00:00	2024-11-08T07:00:00	5	Humedad	59
149165	7	Sololá	713	San Lucas Tolimán	10	San Lucas Tolimán	9	Septiembre	2023-09-23T00:00:00	2024-11-08T07:00:00	6	Velocidad del viento	0
149166	7	Sololá	713	San Lucas Tolimán	10	San Lucas Tolimán	9	Septiembre	2023-09-23T00:00:00	2024-11-08T07:00:00	7	Dirección del viento	0
149167	7	Sololá	713	San Lucas Tolimán	10	San Lucas Tolimán	9	Septiembre	2023-09-23T00:00:00	2024-11-08T07:00:00	1	Precipitación	0
149168	7	Sololá	713	San Lucas Tolimán	10	San Lucas Tolimán	9	Septiembre	2023-09-23T00:00:00	2024-11-08T07:00:00	8	Radiación solar	17
149169	7	Sololá	713	San Lucas Tolimán	10	San Lucas Tolimán	9	Septiembre	2023-09-23T00:00:00	2024-11-08T08:00:00	2	Temperatura media	21.5
149170	7	Sololá	713	San Lucas Tolimán	10	San Lucas Tolimán	9	Septiembre	2023-09-23T00:00:00	2024-11-08T08:00:00	4	Temperatura máxima	21.5
149171	7	Sololá	713	San Lucas Tolimán	10	San Lucas Tolimán	9	Septiembre	2023-09-23T00:00:00	2024-11-08T08:00:00	3	Temperatura mínima	16.9
149172	7	Sololá	713	San Lucas Tolimán	10	San Lucas Tolimán	9	Septiembre	2023-09-23T00:00:00	2024-11-08T08:00:00	5	Humedad	54
149173	7	Sololá	713	San Lucas Tolimán	10	San Lucas Tolimán	9	Septiembre	2023-09-23T00:00:00	2024-11-08T08:00:00	6	Velocidad del viento	1.6
149174	7	Sololá	713	San Lucas Tolimán	10	San Lucas Tolimán	9	Septiembre	2023-09-23T00:00:00	2024-11-08T08:00:00	7	Dirección del viento	1.61
149175	7	Sololá	713	San Lucas Tolimán	10	San Lucas Tolimán	9	Septiembre	2023-09-23T00:00:00	2024-11-08T08:00:00	1	Precipitación	0
149176	7	Sololá	713	San Lucas Tolimán	10	San Lucas Tolimán	9	Septiembre	2023-09-23T00:00:00	2024-11-08T08:00:00	8	Radiación solar	300
149177	7	Sololá	713	San Lucas Tolimán	10	San Lucas Tolimán	9	Septiembre	2023-09-23T00:00:00	2024-11-08T09:00:00	2	Temperatura media	23.4
149178	7	Sololá	713	San Lucas Tolimán	10	San Lucas Tolimán	9	Septiembre	2023-09-23T00:00:00	2024-11-08T09:00:00	4	Temperatura máxima	23.8
149179	7	Sololá	713	San Lucas Tolimán	10	San Lucas Tolimán	9	Septiembre	2023-09-23T00:00:00	2024-11-08T09:00:00	3	Temperatura mínima	21.1
149180	7	Sololá	713	San Lucas Tolimán	10	San Lucas Tolimán	9	Septiembre	2023-09-23T00:00:00	2024-11-08T09:00:00	5	Humedad	46
149181	7	Sololá	713	San Lucas Tolimán	10	San Lucas Tolimán	9	Septiembre	2023-09-23T00:00:00	2024-11-08T09:00:00	6	Velocidad del viento	3.2
149182	7	Sololá	713	San Lucas Tolimán	10	San Lucas Tolimán	9	Septiembre	2023-09-23T00:00:00	2024-11-08T09:00:00	7	Dirección del viento	3.22
149183	7	Sololá	713	San Lucas Tolimán	10	San Lucas Tolimán	9	Septiembre	2023-09-23T00:00:00	2024-11-08T09:00:00	1	Precipitación	0
149184	7	Sololá	713	San Lucas Tolimán	10	San Lucas Tolimán	9	Septiembre	2023-09-23T00:00:00	2024-11-08T09:00:00	8	Radiación solar	561
149185	7	Sololá	713	San Lucas Tolimán	10	San Lucas Tolimán	9	Septiembre	2023-09-23T00:00:00	2024-11-08T10:00:00	2	Temperatura media	24.4
149186	7	Sololá	713	San Lucas Tolimán	10	San Lucas Tolimán	9	Septiembre	2023-09-23T00:00:00	2024-11-08T10:00:00	4	Temperatura máxima	24.8
149187	7	Sololá	713	San Lucas Tolimán	10	San Lucas Tolimán	9	Septiembre	2023-09-23T00:00:00	2024-11-08T10:00:00	3	Temperatura mínima	23.4
149188	7	Sololá	713	San Lucas Tolimán	10	San Lucas Tolimán	9	Septiembre	2023-09-23T00:00:00	2024-11-08T10:00:00	5	Humedad	51
149189	7	Sololá	713	San Lucas Tolimán	10	San Lucas Tolimán	9	Septiembre	2023-09-23T00:00:00	2024-11-08T10:00:00	6	Velocidad del viento	3.2
149190	7	Sololá	713	San Lucas Tolimán	10	San Lucas Tolimán	9	Septiembre	2023-09-23T00:00:00	2024-11-08T10:00:00	7	Dirección del viento	3.22
149191	7	Sololá	713	San Lucas Tolimán	10	San Lucas Tolimán	9	Septiembre	2023-09-23T00:00:00	2024-11-08T10:00:00	1	Precipitación	0
149192	7	Sololá	713	San Lucas Tolimán	10	San Lucas Tolimán	9	Septiembre	2023-09-23T00:00:00	2024-11-08T10:00:00	8	Radiación solar	707
149193	7	Sololá	713	San Lucas Tolimán	10	San Lucas Tolimán	9	Septiembre	2023-09-23T00:00:00	2024-11-08T11:00:00	2	Temperatura media	25.9
149194	7	Sololá	713	San Lucas Tolimán	10	San Lucas Tolimán	9	Septiembre	2023-09-23T00:00:00	2024-11-08T11:00:00	4	Temperatura máxima	25.9
149195	7	Sololá	713	San Lucas Tolimán	10	San Lucas Tolimán	9	Septiembre	2023-09-23T00:00:00	2024-11-08T11:00:00	3	Temperatura mínima	24.4
149196	7	Sololá	713	San Lucas Tolimán	10	San Lucas Tolimán	9	Septiembre	2023-09-23T00:00:00	2024-11-08T11:00:00	5	Humedad	48
149197	7	Sololá	713	San Lucas Tolimán	10	San Lucas Tolimán	9	Septiembre	2023-09-23T00:00:00	2024-11-08T11:00:00	6	Velocidad del viento	4.8
149198	7	Sololá	713	San Lucas Tolimán	10	San Lucas Tolimán	9	Septiembre	2023-09-23T00:00:00	2024-11-08T11:00:00	7	Dirección del viento	4.83
149199	7	Sololá	713	San Lucas Tolimán	10	San Lucas Tolimán	9	Septiembre	2023-09-23T00:00:00	2024-11-08T11:00:00	1	Precipitación	0
149200	7	Sololá	713	San Lucas Tolimán	10	San Lucas Tolimán	9	Septiembre	2023-09-23T00:00:00	2024-11-08T11:00:00	8	Radiación solar	888
149201	7	Sololá	713	San Lucas Tolimán	10	San Lucas Tolimán	9	Septiembre	2023-09-23T00:00:00	2024-11-08T12:00:00	2	Temperatura media	25.2
149202	7	Sololá	713	San Lucas Tolimán	10	San Lucas Tolimán	9	Septiembre	2023-09-23T00:00:00	2024-11-08T12:00:00	4	Temperatura máxima	26.1
149203	7	Sololá	713	San Lucas Tolimán	10	San Lucas Tolimán	9	Septiembre	2023-09-23T00:00:00	2024-11-08T12:00:00	3	Temperatura mínima	25.2
149204	7	Sololá	713	San Lucas Tolimán	10	San Lucas Tolimán	9	Septiembre	2023-09-23T00:00:00	2024-11-08T12:00:00	5	Humedad	55
149205	7	Sololá	713	San Lucas Tolimán	10	San Lucas Tolimán	9	Septiembre	2023-09-23T00:00:00	2024-11-08T12:00:00	6	Velocidad del viento	8
149206	7	Sololá	713	San Lucas Tolimán	10	San Lucas Tolimán	9	Septiembre	2023-09-23T00:00:00	2024-11-08T12:00:00	7	Dirección del viento	8.05
149207	7	Sololá	713	San Lucas Tolimán	10	San Lucas Tolimán	9	Septiembre	2023-09-23T00:00:00	2024-11-08T12:00:00	1	Precipitación	0
149208	7	Sololá	713	San Lucas Tolimán	10	San Lucas Tolimán	9	Septiembre	2023-09-23T00:00:00	2024-11-08T12:00:00	8	Radiación solar	1036
149209	7	Sololá	713	San Lucas Tolimán	10	San Lucas Tolimán	9	Septiembre	2023-09-23T00:00:00	2024-11-08T13:00:00	2	Temperatura media	24.3
149210	7	Sololá	713	San Lucas Tolimán	10	San Lucas Tolimán	9	Septiembre	2023-09-23T00:00:00	2024-11-08T13:00:00	4	Temperatura máxima	25.3
149211	7	Sololá	713	San Lucas Tolimán	10	San Lucas Tolimán	9	Septiembre	2023-09-23T00:00:00	2024-11-08T13:00:00	3	Temperatura mínima	24.2
149212	7	Sololá	713	San Lucas Tolimán	10	San Lucas Tolimán	9	Septiembre	2023-09-23T00:00:00	2024-11-08T13:00:00	5	Humedad	58
149213	7	Sololá	713	San Lucas Tolimán	10	San Lucas Tolimán	9	Septiembre	2023-09-23T00:00:00	2024-11-08T13:00:00	6	Velocidad del viento	12.9
149214	7	Sololá	713	San Lucas Tolimán	10	San Lucas Tolimán	9	Septiembre	2023-09-23T00:00:00	2024-11-08T13:00:00	7	Dirección del viento	12.87
149215	7	Sololá	713	San Lucas Tolimán	10	San Lucas Tolimán	9	Septiembre	2023-09-23T00:00:00	2024-11-08T13:00:00	1	Precipitación	0
149216	7	Sololá	713	San Lucas Tolimán	10	San Lucas Tolimán	9	Septiembre	2023-09-23T00:00:00	2024-11-08T13:00:00	8	Radiación solar	1078
149217	7	Sololá	713	San Lucas Tolimán	10	San Lucas Tolimán	9	Septiembre	2023-09-23T00:00:00	2024-11-08T14:00:00	2	Temperatura media	23.7
149218	7	Sololá	713	San Lucas Tolimán	10	San Lucas Tolimán	9	Septiembre	2023-09-23T00:00:00	2024-11-08T14:00:00	4	Temperatura máxima	24.8
149219	7	Sololá	713	San Lucas Tolimán	10	San Lucas Tolimán	9	Septiembre	2023-09-23T00:00:00	2024-11-08T14:00:00	3	Temperatura mínima	23.7
149220	7	Sololá	713	San Lucas Tolimán	10	San Lucas Tolimán	9	Septiembre	2023-09-23T00:00:00	2024-11-08T14:00:00	5	Humedad	60
149221	7	Sololá	713	San Lucas Tolimán	10	San Lucas Tolimán	9	Septiembre	2023-09-23T00:00:00	2024-11-08T14:00:00	6	Velocidad del viento	12.9
149222	7	Sololá	713	San Lucas Tolimán	10	San Lucas Tolimán	9	Septiembre	2023-09-23T00:00:00	2024-11-08T14:00:00	7	Dirección del viento	12.87
149223	7	Sololá	713	San Lucas Tolimán	10	San Lucas Tolimán	9	Septiembre	2023-09-23T00:00:00	2024-11-08T14:00:00	1	Precipitación	0
149224	7	Sololá	713	San Lucas Tolimán	10	San Lucas Tolimán	9	Septiembre	2023-09-23T00:00:00	2024-11-08T14:00:00	8	Radiación solar	973
149225	7	Sololá	713	San Lucas Tolimán	10	San Lucas Tolimán	9	Septiembre	2023-09-23T00:00:00	2024-11-08T15:00:00	2	Temperatura media	23.6
149226	7	Sololá	713	San Lucas Tolimán	10	San Lucas Tolimán	9	Septiembre	2023-09-23T00:00:00	2024-11-08T15:00:00	4	Temperatura máxima	24
149227	7	Sololá	713	San Lucas Tolimán	10	San Lucas Tolimán	9	Septiembre	2023-09-23T00:00:00	2024-11-08T15:00:00	3	Temperatura mínima	22.9
149228	7	Sololá	713	San Lucas Tolimán	10	San Lucas Tolimán	9	Septiembre	2023-09-23T00:00:00	2024-11-08T15:00:00	5	Humedad	60
149229	7	Sololá	713	San Lucas Tolimán	10	San Lucas Tolimán	9	Septiembre	2023-09-23T00:00:00	2024-11-08T15:00:00	6	Velocidad del viento	12.9
149230	7	Sololá	713	San Lucas Tolimán	10	San Lucas Tolimán	9	Septiembre	2023-09-23T00:00:00	2024-11-08T15:00:00	7	Dirección del viento	12.87
149231	7	Sololá	713	San Lucas Tolimán	10	San Lucas Tolimán	9	Septiembre	2023-09-23T00:00:00	2024-11-08T15:00:00	1	Precipitación	0
149232	7	Sololá	713	San Lucas Tolimán	10	San Lucas Tolimán	9	Septiembre	2023-09-23T00:00:00	2024-11-08T15:00:00	8	Radiación solar	815
149233	7	Sololá	713	San Lucas Tolimán	10	San Lucas Tolimán	9	Septiembre	2023-09-23T00:00:00	2024-11-08T16:00:00	2	Temperatura media	23.3
149234	7	Sololá	713	San Lucas Tolimán	10	San Lucas Tolimán	9	Septiembre	2023-09-23T00:00:00	2024-11-08T16:00:00	4	Temperatura máxima	23.8
149235	7	Sololá	713	San Lucas Tolimán	10	San Lucas Tolimán	9	Septiembre	2023-09-23T00:00:00	2024-11-08T16:00:00	3	Temperatura mínima	22.4
149236	7	Sololá	713	San Lucas Tolimán	10	San Lucas Tolimán	9	Septiembre	2023-09-23T00:00:00	2024-11-08T16:00:00	5	Humedad	58
149237	7	Sololá	713	San Lucas Tolimán	10	San Lucas Tolimán	9	Septiembre	2023-09-23T00:00:00	2024-11-08T16:00:00	6	Velocidad del viento	11.3
149238	7	Sololá	713	San Lucas Tolimán	10	San Lucas Tolimán	9	Septiembre	2023-09-23T00:00:00	2024-11-08T16:00:00	7	Dirección del viento	11.27
149239	7	Sololá	713	San Lucas Tolimán	10	San Lucas Tolimán	9	Septiembre	2023-09-23T00:00:00	2024-11-08T16:00:00	1	Precipitación	0
149240	7	Sololá	713	San Lucas Tolimán	10	San Lucas Tolimán	9	Septiembre	2023-09-23T00:00:00	2024-11-08T16:00:00	8	Radiación solar	541
149241	7	Sololá	713	San Lucas Tolimán	10	San Lucas Tolimán	9	Septiembre	2023-09-23T00:00:00	2024-11-08T17:00:00	2	Temperatura media	21.4
149242	7	Sololá	713	San Lucas Tolimán	10	San Lucas Tolimán	9	Septiembre	2023-09-23T00:00:00	2024-11-08T17:00:00	4	Temperatura máxima	23.3
149243	7	Sololá	713	San Lucas Tolimán	10	San Lucas Tolimán	9	Septiembre	2023-09-23T00:00:00	2024-11-08T17:00:00	3	Temperatura mínima	21.4
149244	7	Sololá	713	San Lucas Tolimán	10	San Lucas Tolimán	9	Septiembre	2023-09-23T00:00:00	2024-11-08T17:00:00	5	Humedad	60
149245	7	Sololá	713	San Lucas Tolimán	10	San Lucas Tolimán	9	Septiembre	2023-09-23T00:00:00	2024-11-08T17:00:00	6	Velocidad del viento	9.7
149246	7	Sololá	713	San Lucas Tolimán	10	San Lucas Tolimán	9	Septiembre	2023-09-23T00:00:00	2024-11-08T17:00:00	7	Dirección del viento	9.66
149247	7	Sololá	713	San Lucas Tolimán	10	San Lucas Tolimán	9	Septiembre	2023-09-23T00:00:00	2024-11-08T17:00:00	1	Precipitación	0
149248	7	Sololá	713	San Lucas Tolimán	10	San Lucas Tolimán	9	Septiembre	2023-09-23T00:00:00	2024-11-08T17:00:00	8	Radiación solar	275
149249	7	Sololá	713	San Lucas Tolimán	10	San Lucas Tolimán	9	Septiembre	2023-09-23T00:00:00	2024-11-08T18:00:00	2	Temperatura media	20.3
149250	7	Sololá	713	San Lucas Tolimán	10	San Lucas Tolimán	9	Septiembre	2023-09-23T00:00:00	2024-11-08T18:00:00	4	Temperatura máxima	21.4
149251	7	Sololá	713	San Lucas Tolimán	10	San Lucas Tolimán	9	Septiembre	2023-09-23T00:00:00	2024-11-08T18:00:00	3	Temperatura mínima	20.3
149252	7	Sololá	713	San Lucas Tolimán	10	San Lucas Tolimán	9	Septiembre	2023-09-23T00:00:00	2024-11-08T18:00:00	5	Humedad	60
149253	7	Sololá	713	San Lucas Tolimán	10	San Lucas Tolimán	9	Septiembre	2023-09-23T00:00:00	2024-11-08T18:00:00	6	Velocidad del viento	9.7
149254	7	Sololá	713	San Lucas Tolimán	10	San Lucas Tolimán	9	Septiembre	2023-09-23T00:00:00	2024-11-08T18:00:00	7	Dirección del viento	9.66
149255	7	Sololá	713	San Lucas Tolimán	10	San Lucas Tolimán	9	Septiembre	2023-09-23T00:00:00	2024-11-08T18:00:00	1	Precipitación	0
149256	7	Sololá	713	San Lucas Tolimán	10	San Lucas Tolimán	9	Septiembre	2023-09-23T00:00:00	2024-11-08T18:00:00	8	Radiación solar	17
149257	7	Sololá	713	San Lucas Tolimán	10	San Lucas Tolimán	9	Septiembre	2023-09-23T00:00:00	2024-11-08T19:00:00	2	Temperatura media	20
149258	7	Sololá	713	San Lucas Tolimán	10	San Lucas Tolimán	9	Septiembre	2023-09-23T00:00:00	2024-11-08T19:00:00	4	Temperatura máxima	20.6
149259	7	Sololá	713	San Lucas Tolimán	10	San Lucas Tolimán	9	Septiembre	2023-09-23T00:00:00	2024-11-08T19:00:00	3	Temperatura mínima	20
149260	7	Sololá	713	San Lucas Tolimán	10	San Lucas Tolimán	9	Septiembre	2023-09-23T00:00:00	2024-11-08T19:00:00	5	Humedad	61
149261	7	Sololá	713	San Lucas Tolimán	10	San Lucas Tolimán	9	Septiembre	2023-09-23T00:00:00	2024-11-08T19:00:00	6	Velocidad del viento	8
149262	7	Sololá	713	San Lucas Tolimán	10	San Lucas Tolimán	9	Septiembre	2023-09-23T00:00:00	2024-11-08T19:00:00	7	Dirección del viento	8.05
149263	7	Sololá	713	San Lucas Tolimán	10	San Lucas Tolimán	9	Septiembre	2023-09-23T00:00:00	2024-11-08T19:00:00	1	Precipitación	0
149264	7	Sololá	713	San Lucas Tolimán	10	San Lucas Tolimán	9	Septiembre	2023-09-23T00:00:00	2024-11-08T19:00:00	8	Radiación solar	0
149265	7	Sololá	713	San Lucas Tolimán	10	San Lucas Tolimán	9	Septiembre	2023-09-23T00:00:00	2024-11-08T20:00:00	2	Temperatura media	18.7
149266	7	Sololá	713	San Lucas Tolimán	10	San Lucas Tolimán	9	Septiembre	2023-09-23T00:00:00	2024-11-08T20:00:00	4	Temperatura máxima	20
149267	7	Sololá	713	San Lucas Tolimán	10	San Lucas Tolimán	9	Septiembre	2023-09-23T00:00:00	2024-11-08T20:00:00	3	Temperatura mínima	18.5
149268	7	Sololá	713	San Lucas Tolimán	10	San Lucas Tolimán	9	Septiembre	2023-09-23T00:00:00	2024-11-08T20:00:00	5	Humedad	68
149269	7	Sololá	713	San Lucas Tolimán	10	San Lucas Tolimán	9	Septiembre	2023-09-23T00:00:00	2024-11-08T20:00:00	6	Velocidad del viento	8
149270	7	Sololá	713	San Lucas Tolimán	10	San Lucas Tolimán	9	Septiembre	2023-09-23T00:00:00	2024-11-08T20:00:00	7	Dirección del viento	8.05
149271	7	Sololá	713	San Lucas Tolimán	10	San Lucas Tolimán	9	Septiembre	2023-09-23T00:00:00	2024-11-08T20:00:00	1	Precipitación	0
149272	7	Sololá	713	San Lucas Tolimán	10	San Lucas Tolimán	9	Septiembre	2023-09-23T00:00:00	2024-11-08T20:00:00	8	Radiación solar	0
149273	7	Sololá	713	San Lucas Tolimán	10	San Lucas Tolimán	9	Septiembre	2023-09-23T00:00:00	2024-11-08T21:00:00	2	Temperatura media	18.8
149274	7	Sololá	713	San Lucas Tolimán	10	San Lucas Tolimán	9	Septiembre	2023-09-23T00:00:00	2024-11-08T21:00:00	4	Temperatura máxima	18.8
149275	7	Sololá	713	San Lucas Tolimán	10	San Lucas Tolimán	9	Septiembre	2023-09-23T00:00:00	2024-11-08T21:00:00	3	Temperatura mínima	18.6
149276	7	Sololá	713	San Lucas Tolimán	10	San Lucas Tolimán	9	Septiembre	2023-09-23T00:00:00	2024-11-08T21:00:00	5	Humedad	67
149277	7	Sololá	713	San Lucas Tolimán	10	San Lucas Tolimán	9	Septiembre	2023-09-23T00:00:00	2024-11-08T21:00:00	6	Velocidad del viento	4.8
149278	7	Sololá	713	San Lucas Tolimán	10	San Lucas Tolimán	9	Septiembre	2023-09-23T00:00:00	2024-11-08T21:00:00	7	Dirección del viento	4.83
149279	7	Sololá	713	San Lucas Tolimán	10	San Lucas Tolimán	9	Septiembre	2023-09-23T00:00:00	2024-11-08T21:00:00	1	Precipitación	0
149280	7	Sololá	713	San Lucas Tolimán	10	San Lucas Tolimán	9	Septiembre	2023-09-23T00:00:00	2024-11-08T21:00:00	8	Radiación solar	0
149281	7	Sololá	713	San Lucas Tolimán	10	San Lucas Tolimán	9	Septiembre	2023-09-23T00:00:00	2024-11-08T22:00:00	2	Temperatura media	19
149282	7	Sololá	713	San Lucas Tolimán	10	San Lucas Tolimán	9	Septiembre	2023-09-23T00:00:00	2024-11-08T22:00:00	4	Temperatura máxima	19.3
149283	7	Sololá	713	San Lucas Tolimán	10	San Lucas Tolimán	9	Septiembre	2023-09-23T00:00:00	2024-11-08T22:00:00	3	Temperatura mínima	18.8
149284	7	Sololá	713	San Lucas Tolimán	10	San Lucas Tolimán	9	Septiembre	2023-09-23T00:00:00	2024-11-08T22:00:00	5	Humedad	64
149285	7	Sololá	713	San Lucas Tolimán	10	San Lucas Tolimán	9	Septiembre	2023-09-23T00:00:00	2024-11-08T22:00:00	6	Velocidad del viento	6.4
149286	7	Sololá	713	San Lucas Tolimán	10	San Lucas Tolimán	9	Septiembre	2023-09-23T00:00:00	2024-11-08T22:00:00	7	Dirección del viento	6.44
149287	7	Sololá	713	San Lucas Tolimán	10	San Lucas Tolimán	9	Septiembre	2023-09-23T00:00:00	2024-11-08T22:00:00	1	Precipitación	0
149288	7	Sololá	713	San Lucas Tolimán	10	San Lucas Tolimán	9	Septiembre	2023-09-23T00:00:00	2024-11-08T22:00:00	8	Radiación solar	0
149289	7	Sololá	713	San Lucas Tolimán	10	San Lucas Tolimán	9	Septiembre	2023-09-23T00:00:00	2024-11-08T23:00:00	2	Temperatura media	18.7
149290	7	Sololá	713	San Lucas Tolimán	10	San Lucas Tolimán	9	Septiembre	2023-09-23T00:00:00	2024-11-08T23:00:00	4	Temperatura máxima	19.1
149291	7	Sololá	713	San Lucas Tolimán	10	San Lucas Tolimán	9	Septiembre	2023-09-23T00:00:00	2024-11-08T23:00:00	3	Temperatura mínima	18.7
149292	7	Sololá	713	San Lucas Tolimán	10	San Lucas Tolimán	9	Septiembre	2023-09-23T00:00:00	2024-11-08T23:00:00	5	Humedad	64
149293	7	Sololá	713	San Lucas Tolimán	10	San Lucas Tolimán	9	Septiembre	2023-09-23T00:00:00	2024-11-08T23:00:00	6	Velocidad del viento	4.8
149294	7	Sololá	713	San Lucas Tolimán	10	San Lucas Tolimán	9	Septiembre	2023-09-23T00:00:00	2024-11-08T23:00:00	7	Dirección del viento	4.83
149295	7	Sololá	713	San Lucas Tolimán	10	San Lucas Tolimán	9	Septiembre	2023-09-23T00:00:00	2024-11-08T23:00:00	1	Precipitación	0
149296	7	Sololá	713	San Lucas Tolimán	10	San Lucas Tolimán	9	Septiembre	2023-09-23T00:00:00	2024-11-08T23:00:00	8	Radiación solar	0
149297	7	Sololá	713	San Lucas Tolimán	10	San Lucas Tolimán	9	Septiembre	2023-09-24T00:00:00	2024-11-08T00:00:00	2	Temperatura media	17.9
149298	7	Sololá	713	San Lucas Tolimán	10	San Lucas Tolimán	9	Septiembre	2023-09-24T00:00:00	2024-11-08T00:00:00	4	Temperatura máxima	18.7
149299	7	Sololá	713	San Lucas Tolimán	10	San Lucas Tolimán	9	Septiembre	2023-09-24T00:00:00	2024-11-08T00:00:00	3	Temperatura mínima	17.9
149300	7	Sololá	713	San Lucas Tolimán	10	San Lucas Tolimán	9	Septiembre	2023-09-24T00:00:00	2024-11-08T00:00:00	5	Humedad	65
149301	7	Sololá	713	San Lucas Tolimán	10	San Lucas Tolimán	9	Septiembre	2023-09-24T00:00:00	2024-11-08T00:00:00	6	Velocidad del viento	3.2
149302	7	Sololá	713	San Lucas Tolimán	10	San Lucas Tolimán	9	Septiembre	2023-09-24T00:00:00	2024-11-08T00:00:00	7	Dirección del viento	3.22
149303	7	Sololá	713	San Lucas Tolimán	10	San Lucas Tolimán	9	Septiembre	2023-09-24T00:00:00	2024-11-08T00:00:00	1	Precipitación	0
149304	7	Sololá	713	San Lucas Tolimán	10	San Lucas Tolimán	9	Septiembre	2023-09-24T00:00:00	2024-11-08T00:00:00	8	Radiación solar	0
149305	7	Sololá	713	San Lucas Tolimán	10	San Lucas Tolimán	9	Septiembre	2023-09-24T00:00:00	2024-11-08T01:00:00	2	Temperatura media	17.7
149306	7	Sololá	713	San Lucas Tolimán	10	San Lucas Tolimán	9	Septiembre	2023-09-24T00:00:00	2024-11-08T01:00:00	4	Temperatura máxima	17.9
149307	7	Sololá	713	San Lucas Tolimán	10	San Lucas Tolimán	9	Septiembre	2023-09-24T00:00:00	2024-11-08T01:00:00	3	Temperatura mínima	17.6
149308	7	Sololá	713	San Lucas Tolimán	10	San Lucas Tolimán	9	Septiembre	2023-09-24T00:00:00	2024-11-08T01:00:00	5	Humedad	92
149309	7	Sololá	713	San Lucas Tolimán	10	San Lucas Tolimán	9	Septiembre	2023-09-24T00:00:00	2024-11-08T01:00:00	6	Velocidad del viento	4.8
149310	7	Sololá	713	San Lucas Tolimán	10	San Lucas Tolimán	9	Septiembre	2023-09-24T00:00:00	2024-11-08T01:00:00	7	Dirección del viento	4.83
149311	7	Sololá	713	San Lucas Tolimán	10	San Lucas Tolimán	9	Septiembre	2023-09-24T00:00:00	2024-11-08T01:00:00	1	Precipitación	0
149312	7	Sololá	713	San Lucas Tolimán	10	San Lucas Tolimán	9	Septiembre	2023-09-24T00:00:00	2024-11-08T01:00:00	8	Radiación solar	0
149313	7	Sololá	713	San Lucas Tolimán	10	San Lucas Tolimán	9	Septiembre	2023-09-24T00:00:00	2024-11-08T02:00:00	2	Temperatura media	17.1
149314	7	Sololá	713	San Lucas Tolimán	10	San Lucas Tolimán	9	Septiembre	2023-09-24T00:00:00	2024-11-08T02:00:00	4	Temperatura máxima	17.6
149315	7	Sololá	713	San Lucas Tolimán	10	San Lucas Tolimán	9	Septiembre	2023-09-24T00:00:00	2024-11-08T02:00:00	3	Temperatura mínima	17.1
149316	7	Sololá	713	San Lucas Tolimán	10	San Lucas Tolimán	9	Septiembre	2023-09-24T00:00:00	2024-11-08T02:00:00	5	Humedad	91
149317	7	Sololá	713	San Lucas Tolimán	10	San Lucas Tolimán	9	Septiembre	2023-09-24T00:00:00	2024-11-08T02:00:00	6	Velocidad del viento	3.2
149318	7	Sololá	713	San Lucas Tolimán	10	San Lucas Tolimán	9	Septiembre	2023-09-24T00:00:00	2024-11-08T02:00:00	7	Dirección del viento	3.22
149319	7	Sololá	713	San Lucas Tolimán	10	San Lucas Tolimán	9	Septiembre	2023-09-24T00:00:00	2024-11-08T02:00:00	1	Precipitación	0
149320	7	Sololá	713	San Lucas Tolimán	10	San Lucas Tolimán	9	Septiembre	2023-09-24T00:00:00	2024-11-08T02:00:00	8	Radiación solar	0
149321	7	Sololá	713	San Lucas Tolimán	10	San Lucas Tolimán	9	Septiembre	2023-09-24T00:00:00	2024-11-08T03:00:00	2	Temperatura media	16.6
149322	7	Sololá	713	San Lucas Tolimán	10	San Lucas Tolimán	9	Septiembre	2023-09-24T00:00:00	2024-11-08T03:00:00	4	Temperatura máxima	17.2
149323	7	Sololá	713	San Lucas Tolimán	10	San Lucas Tolimán	9	Septiembre	2023-09-24T00:00:00	2024-11-08T03:00:00	3	Temperatura mínima	16.6
149324	7	Sololá	713	San Lucas Tolimán	10	San Lucas Tolimán	9	Septiembre	2023-09-24T00:00:00	2024-11-08T03:00:00	5	Humedad	91
149325	7	Sololá	713	San Lucas Tolimán	10	San Lucas Tolimán	9	Septiembre	2023-09-24T00:00:00	2024-11-08T03:00:00	6	Velocidad del viento	3.2
149326	7	Sololá	713	San Lucas Tolimán	10	San Lucas Tolimán	9	Septiembre	2023-09-24T00:00:00	2024-11-08T03:00:00	7	Dirección del viento	3.22
149327	7	Sololá	713	San Lucas Tolimán	10	San Lucas Tolimán	9	Septiembre	2023-09-24T00:00:00	2024-11-08T03:00:00	1	Precipitación	0
149328	7	Sololá	713	San Lucas Tolimán	10	San Lucas Tolimán	9	Septiembre	2023-09-24T00:00:00	2024-11-08T03:00:00	8	Radiación solar	0
149329	7	Sololá	713	San Lucas Tolimán	10	San Lucas Tolimán	9	Septiembre	2023-09-24T00:00:00	2024-11-08T04:00:00	2	Temperatura media	16
149330	7	Sololá	713	San Lucas Tolimán	10	San Lucas Tolimán	9	Septiembre	2023-09-24T00:00:00	2024-11-08T04:00:00	4	Temperatura máxima	16.6
149331	7	Sololá	713	San Lucas Tolimán	10	San Lucas Tolimán	9	Septiembre	2023-09-24T00:00:00	2024-11-08T04:00:00	3	Temperatura mínima	16
149332	7	Sololá	713	San Lucas Tolimán	10	San Lucas Tolimán	9	Septiembre	2023-09-24T00:00:00	2024-11-08T04:00:00	5	Humedad	92
149333	7	Sololá	713	San Lucas Tolimán	10	San Lucas Tolimán	9	Septiembre	2023-09-24T00:00:00	2024-11-08T04:00:00	6	Velocidad del viento	1.6
149334	7	Sololá	713	San Lucas Tolimán	10	San Lucas Tolimán	9	Septiembre	2023-09-24T00:00:00	2024-11-08T04:00:00	7	Dirección del viento	1.61
149335	7	Sololá	713	San Lucas Tolimán	10	San Lucas Tolimán	9	Septiembre	2023-09-24T00:00:00	2024-11-08T04:00:00	1	Precipitación	0
149336	7	Sololá	713	San Lucas Tolimán	10	San Lucas Tolimán	9	Septiembre	2023-09-24T00:00:00	2024-11-08T04:00:00	8	Radiación solar	0
149337	7	Sololá	713	San Lucas Tolimán	10	San Lucas Tolimán	9	Septiembre	2023-09-24T00:00:00	2024-11-08T05:00:00	2	Temperatura media	16.5
149338	7	Sololá	713	San Lucas Tolimán	10	San Lucas Tolimán	9	Septiembre	2023-09-24T00:00:00	2024-11-08T05:00:00	4	Temperatura máxima	16.6
149339	7	Sololá	713	San Lucas Tolimán	10	San Lucas Tolimán	9	Septiembre	2023-09-24T00:00:00	2024-11-08T05:00:00	3	Temperatura mínima	16
149340	7	Sololá	713	San Lucas Tolimán	10	San Lucas Tolimán	9	Septiembre	2023-09-24T00:00:00	2024-11-08T05:00:00	5	Humedad	92
149341	7	Sololá	713	San Lucas Tolimán	10	San Lucas Tolimán	9	Septiembre	2023-09-24T00:00:00	2024-11-08T05:00:00	6	Velocidad del viento	3.2
149342	7	Sololá	713	San Lucas Tolimán	10	San Lucas Tolimán	9	Septiembre	2023-09-24T00:00:00	2024-11-08T05:00:00	7	Dirección del viento	3.22
149343	7	Sololá	713	San Lucas Tolimán	10	San Lucas Tolimán	9	Septiembre	2023-09-24T00:00:00	2024-11-08T05:00:00	1	Precipitación	0
149344	7	Sololá	713	San Lucas Tolimán	10	San Lucas Tolimán	9	Septiembre	2023-09-24T00:00:00	2024-11-08T05:00:00	8	Radiación solar	0
149345	7	Sololá	713	San Lucas Tolimán	10	San Lucas Tolimán	9	Septiembre	2023-09-24T00:00:00	2024-11-08T06:00:00	2	Temperatura media	16.4
149346	7	Sololá	713	San Lucas Tolimán	10	San Lucas Tolimán	9	Septiembre	2023-09-24T00:00:00	2024-11-08T06:00:00	4	Temperatura máxima	16.6
149347	7	Sololá	713	San Lucas Tolimán	10	San Lucas Tolimán	9	Septiembre	2023-09-24T00:00:00	2024-11-08T06:00:00	3	Temperatura mínima	16.4
149348	7	Sololá	713	San Lucas Tolimán	10	San Lucas Tolimán	9	Septiembre	2023-09-24T00:00:00	2024-11-08T06:00:00	5	Humedad	90
149349	7	Sololá	713	San Lucas Tolimán	10	San Lucas Tolimán	9	Septiembre	2023-09-24T00:00:00	2024-11-08T06:00:00	6	Velocidad del viento	0
149350	7	Sololá	713	San Lucas Tolimán	10	San Lucas Tolimán	9	Septiembre	2023-09-24T00:00:00	2024-11-08T06:00:00	7	Dirección del viento	0
149351	7	Sololá	713	San Lucas Tolimán	10	San Lucas Tolimán	9	Septiembre	2023-09-24T00:00:00	2024-11-08T06:00:00	1	Precipitación	0
149352	7	Sololá	713	San Lucas Tolimán	10	San Lucas Tolimán	9	Septiembre	2023-09-24T00:00:00	2024-11-08T06:00:00	8	Radiación solar	0
149353	7	Sololá	713	San Lucas Tolimán	10	San Lucas Tolimán	9	Septiembre	2023-09-24T00:00:00	2024-11-08T07:00:00	2	Temperatura media	17.9
149354	7	Sololá	713	San Lucas Tolimán	10	San Lucas Tolimán	9	Septiembre	2023-09-24T00:00:00	2024-11-08T07:00:00	4	Temperatura máxima	17.9
149355	7	Sololá	713	San Lucas Tolimán	10	San Lucas Tolimán	9	Septiembre	2023-09-24T00:00:00	2024-11-08T07:00:00	3	Temperatura mínima	16.2
149356	7	Sololá	713	San Lucas Tolimán	10	San Lucas Tolimán	9	Septiembre	2023-09-24T00:00:00	2024-11-08T07:00:00	5	Humedad	91
149357	7	Sololá	713	San Lucas Tolimán	10	San Lucas Tolimán	9	Septiembre	2023-09-24T00:00:00	2024-11-08T07:00:00	6	Velocidad del viento	6.4
149358	7	Sololá	713	San Lucas Tolimán	10	San Lucas Tolimán	9	Septiembre	2023-09-24T00:00:00	2024-11-08T07:00:00	7	Dirección del viento	6.44
149359	7	Sololá	713	San Lucas Tolimán	10	San Lucas Tolimán	9	Septiembre	2023-09-24T00:00:00	2024-11-08T07:00:00	1	Precipitación	0
149360	7	Sololá	713	San Lucas Tolimán	10	San Lucas Tolimán	9	Septiembre	2023-09-24T00:00:00	2024-11-08T07:00:00	8	Radiación solar	33
149361	7	Sololá	713	San Lucas Tolimán	10	San Lucas Tolimán	9	Septiembre	2023-09-24T00:00:00	2024-11-08T08:00:00	2	Temperatura media	20.4
149362	7	Sololá	713	San Lucas Tolimán	10	San Lucas Tolimán	9	Septiembre	2023-09-24T00:00:00	2024-11-08T08:00:00	4	Temperatura máxima	20.4
149363	7	Sololá	713	San Lucas Tolimán	10	San Lucas Tolimán	9	Septiembre	2023-09-24T00:00:00	2024-11-08T08:00:00	3	Temperatura mínima	17.9
149364	7	Sololá	713	San Lucas Tolimán	10	San Lucas Tolimán	9	Septiembre	2023-09-24T00:00:00	2024-11-08T08:00:00	5	Humedad	81
149365	7	Sololá	713	San Lucas Tolimán	10	San Lucas Tolimán	9	Septiembre	2023-09-24T00:00:00	2024-11-08T08:00:00	6	Velocidad del viento	1.6
149366	7	Sololá	713	San Lucas Tolimán	10	San Lucas Tolimán	9	Septiembre	2023-09-24T00:00:00	2024-11-08T08:00:00	7	Dirección del viento	1.61
149367	7	Sololá	713	San Lucas Tolimán	10	San Lucas Tolimán	9	Septiembre	2023-09-24T00:00:00	2024-11-08T08:00:00	1	Precipitación	0
149368	7	Sololá	713	San Lucas Tolimán	10	San Lucas Tolimán	9	Septiembre	2023-09-24T00:00:00	2024-11-08T08:00:00	8	Radiación solar	276
149369	7	Sololá	713	San Lucas Tolimán	10	San Lucas Tolimán	9	Septiembre	2023-09-24T00:00:00	2024-11-08T09:00:00	2	Temperatura media	23.3
149370	7	Sololá	713	San Lucas Tolimán	10	San Lucas Tolimán	9	Septiembre	2023-09-24T00:00:00	2024-11-08T09:00:00	4	Temperatura máxima	23.3
149371	7	Sololá	713	San Lucas Tolimán	10	San Lucas Tolimán	9	Septiembre	2023-09-24T00:00:00	2024-11-08T09:00:00	3	Temperatura mínima	20.4
149372	7	Sololá	713	San Lucas Tolimán	10	San Lucas Tolimán	9	Septiembre	2023-09-24T00:00:00	2024-11-08T09:00:00	5	Humedad	73
149373	7	Sololá	713	San Lucas Tolimán	10	San Lucas Tolimán	9	Septiembre	2023-09-24T00:00:00	2024-11-08T09:00:00	6	Velocidad del viento	3.2
149374	7	Sololá	713	San Lucas Tolimán	10	San Lucas Tolimán	9	Septiembre	2023-09-24T00:00:00	2024-11-08T09:00:00	7	Dirección del viento	3.22
149375	7	Sololá	713	San Lucas Tolimán	10	San Lucas Tolimán	9	Septiembre	2023-09-24T00:00:00	2024-11-08T09:00:00	1	Precipitación	0
149376	7	Sololá	713	San Lucas Tolimán	10	San Lucas Tolimán	9	Septiembre	2023-09-24T00:00:00	2024-11-08T09:00:00	8	Radiación solar	513
149377	7	Sololá	713	San Lucas Tolimán	10	San Lucas Tolimán	9	Septiembre	2023-09-24T00:00:00	2024-11-08T10:00:00	2	Temperatura media	23.6
149378	7	Sololá	713	San Lucas Tolimán	10	San Lucas Tolimán	9	Septiembre	2023-09-24T00:00:00	2024-11-08T10:00:00	4	Temperatura máxima	25.1
149379	7	Sololá	713	San Lucas Tolimán	10	San Lucas Tolimán	9	Septiembre	2023-09-24T00:00:00	2024-11-08T10:00:00	3	Temperatura mínima	23.3
149380	7	Sololá	713	San Lucas Tolimán	10	San Lucas Tolimán	9	Septiembre	2023-09-24T00:00:00	2024-11-08T10:00:00	5	Humedad	75
149381	7	Sololá	713	San Lucas Tolimán	10	San Lucas Tolimán	9	Septiembre	2023-09-24T00:00:00	2024-11-08T10:00:00	6	Velocidad del viento	4.8
149382	7	Sololá	713	San Lucas Tolimán	10	San Lucas Tolimán	9	Septiembre	2023-09-24T00:00:00	2024-11-08T10:00:00	7	Dirección del viento	4.83
149383	7	Sololá	713	San Lucas Tolimán	10	San Lucas Tolimán	9	Septiembre	2023-09-24T00:00:00	2024-11-08T10:00:00	1	Precipitación	0
149384	7	Sololá	713	San Lucas Tolimán	10	San Lucas Tolimán	9	Septiembre	2023-09-24T00:00:00	2024-11-08T10:00:00	8	Radiación solar	716
149385	7	Sololá	713	San Lucas Tolimán	10	San Lucas Tolimán	9	Septiembre	2023-09-24T00:00:00	2024-11-08T11:00:00	2	Temperatura media	23.4
149386	7	Sololá	713	San Lucas Tolimán	10	San Lucas Tolimán	9	Septiembre	2023-09-24T00:00:00	2024-11-08T11:00:00	4	Temperatura máxima	23.6
149387	7	Sololá	713	San Lucas Tolimán	10	San Lucas Tolimán	9	Septiembre	2023-09-24T00:00:00	2024-11-08T11:00:00	3	Temperatura mínima	22.3
149388	7	Sololá	713	San Lucas Tolimán	10	San Lucas Tolimán	9	Septiembre	2023-09-24T00:00:00	2024-11-08T11:00:00	5	Humedad	77
149389	7	Sololá	713	San Lucas Tolimán	10	San Lucas Tolimán	9	Septiembre	2023-09-24T00:00:00	2024-11-08T11:00:00	6	Velocidad del viento	11.3
149390	7	Sololá	713	San Lucas Tolimán	10	San Lucas Tolimán	9	Septiembre	2023-09-24T00:00:00	2024-11-08T11:00:00	7	Dirección del viento	11.27
149391	7	Sololá	713	San Lucas Tolimán	10	San Lucas Tolimán	9	Septiembre	2023-09-24T00:00:00	2024-11-08T11:00:00	1	Precipitación	0
149392	7	Sololá	713	San Lucas Tolimán	10	San Lucas Tolimán	9	Septiembre	2023-09-24T00:00:00	2024-11-08T11:00:00	8	Radiación solar	894
149393	7	Sololá	713	San Lucas Tolimán	10	San Lucas Tolimán	9	Septiembre	2023-09-24T00:00:00	2024-11-08T12:00:00	2	Temperatura media	22.6
149394	7	Sololá	713	San Lucas Tolimán	10	San Lucas Tolimán	9	Septiembre	2023-09-24T00:00:00	2024-11-08T12:00:00	4	Temperatura máxima	23.9
149395	7	Sololá	713	San Lucas Tolimán	10	San Lucas Tolimán	9	Septiembre	2023-09-24T00:00:00	2024-11-08T12:00:00	3	Temperatura mínima	21.3
149396	7	Sololá	713	San Lucas Tolimán	10	San Lucas Tolimán	9	Septiembre	2023-09-24T00:00:00	2024-11-08T12:00:00	5	Humedad	81
149397	7	Sololá	713	San Lucas Tolimán	10	San Lucas Tolimán	9	Septiembre	2023-09-24T00:00:00	2024-11-08T12:00:00	6	Velocidad del viento	12.9
149398	7	Sololá	713	San Lucas Tolimán	10	San Lucas Tolimán	9	Septiembre	2023-09-24T00:00:00	2024-11-08T12:00:00	7	Dirección del viento	12.87
149399	7	Sololá	713	San Lucas Tolimán	10	San Lucas Tolimán	9	Septiembre	2023-09-24T00:00:00	2024-11-08T12:00:00	1	Precipitación	0
149400	7	Sololá	713	San Lucas Tolimán	10	San Lucas Tolimán	9	Septiembre	2023-09-24T00:00:00	2024-11-08T12:00:00	8	Radiación solar	912
149401	7	Sololá	713	San Lucas Tolimán	10	San Lucas Tolimán	9	Septiembre	2023-09-24T00:00:00	2024-11-08T13:00:00	2	Temperatura media	23.1
149402	7	Sololá	713	San Lucas Tolimán	10	San Lucas Tolimán	9	Septiembre	2023-09-24T00:00:00	2024-11-08T13:00:00	4	Temperatura máxima	23.3
149403	7	Sololá	713	San Lucas Tolimán	10	San Lucas Tolimán	9	Septiembre	2023-09-24T00:00:00	2024-11-08T13:00:00	3	Temperatura mínima	22.6
149404	7	Sololá	713	San Lucas Tolimán	10	San Lucas Tolimán	9	Septiembre	2023-09-24T00:00:00	2024-11-08T13:00:00	5	Humedad	76
149405	7	Sololá	713	San Lucas Tolimán	10	San Lucas Tolimán	9	Septiembre	2023-09-24T00:00:00	2024-11-08T13:00:00	6	Velocidad del viento	12.9
149406	7	Sololá	713	San Lucas Tolimán	10	San Lucas Tolimán	9	Septiembre	2023-09-24T00:00:00	2024-11-08T13:00:00	7	Dirección del viento	12.87
149407	7	Sololá	713	San Lucas Tolimán	10	San Lucas Tolimán	9	Septiembre	2023-09-24T00:00:00	2024-11-08T13:00:00	1	Precipitación	0
149408	7	Sololá	713	San Lucas Tolimán	10	San Lucas Tolimán	9	Septiembre	2023-09-24T00:00:00	2024-11-08T13:00:00	8	Radiación solar	572
149409	7	Sololá	713	San Lucas Tolimán	10	San Lucas Tolimán	9	Septiembre	2023-09-24T00:00:00	2024-11-08T14:00:00	2	Temperatura media	22.6
149410	7	Sololá	713	San Lucas Tolimán	10	San Lucas Tolimán	9	Septiembre	2023-09-24T00:00:00	2024-11-08T14:00:00	4	Temperatura máxima	23.7
149411	7	Sololá	713	San Lucas Tolimán	10	San Lucas Tolimán	9	Septiembre	2023-09-24T00:00:00	2024-11-08T14:00:00	3	Temperatura mínima	22
149412	7	Sololá	713	San Lucas Tolimán	10	San Lucas Tolimán	9	Septiembre	2023-09-24T00:00:00	2024-11-08T14:00:00	5	Humedad	81
149413	7	Sololá	713	San Lucas Tolimán	10	San Lucas Tolimán	9	Septiembre	2023-09-24T00:00:00	2024-11-08T14:00:00	6	Velocidad del viento	11.3
149414	7	Sololá	713	San Lucas Tolimán	10	San Lucas Tolimán	9	Septiembre	2023-09-24T00:00:00	2024-11-08T14:00:00	7	Dirección del viento	11.27
149415	7	Sololá	713	San Lucas Tolimán	10	San Lucas Tolimán	9	Septiembre	2023-09-24T00:00:00	2024-11-08T14:00:00	1	Precipitación	0
149416	7	Sololá	713	San Lucas Tolimán	10	San Lucas Tolimán	9	Septiembre	2023-09-24T00:00:00	2024-11-08T14:00:00	8	Radiación solar	193
149417	7	Sololá	713	San Lucas Tolimán	10	San Lucas Tolimán	9	Septiembre	2023-09-24T00:00:00	2024-11-08T15:00:00	2	Temperatura media	21.4
149418	7	Sololá	713	San Lucas Tolimán	10	San Lucas Tolimán	9	Septiembre	2023-09-24T00:00:00	2024-11-08T15:00:00	4	Temperatura máxima	22.6
149419	7	Sololá	713	San Lucas Tolimán	10	San Lucas Tolimán	9	Septiembre	2023-09-24T00:00:00	2024-11-08T15:00:00	3	Temperatura mínima	21.3
149420	7	Sololá	713	San Lucas Tolimán	10	San Lucas Tolimán	9	Septiembre	2023-09-24T00:00:00	2024-11-08T15:00:00	5	Humedad	86
149421	7	Sololá	713	San Lucas Tolimán	10	San Lucas Tolimán	9	Septiembre	2023-09-24T00:00:00	2024-11-08T15:00:00	6	Velocidad del viento	8
149422	7	Sololá	713	San Lucas Tolimán	10	San Lucas Tolimán	9	Septiembre	2023-09-24T00:00:00	2024-11-08T15:00:00	7	Dirección del viento	8.05
149423	7	Sololá	713	San Lucas Tolimán	10	San Lucas Tolimán	9	Septiembre	2023-09-24T00:00:00	2024-11-08T15:00:00	1	Precipitación	0
149424	7	Sololá	713	San Lucas Tolimán	10	San Lucas Tolimán	9	Septiembre	2023-09-24T00:00:00	2024-11-08T15:00:00	8	Radiación solar	58
149425	7	Sololá	713	San Lucas Tolimán	10	San Lucas Tolimán	9	Septiembre	2023-09-24T00:00:00	2024-11-08T16:00:00	2	Temperatura media	21.4
149426	7	Sololá	713	San Lucas Tolimán	10	San Lucas Tolimán	9	Septiembre	2023-09-24T00:00:00	2024-11-08T16:00:00	4	Temperatura máxima	22.2
149427	7	Sololá	713	San Lucas Tolimán	10	San Lucas Tolimán	9	Septiembre	2023-09-24T00:00:00	2024-11-08T16:00:00	3	Temperatura mínima	21.3
149428	7	Sololá	713	San Lucas Tolimán	10	San Lucas Tolimán	9	Septiembre	2023-09-24T00:00:00	2024-11-08T16:00:00	5	Humedad	82
149429	7	Sololá	713	San Lucas Tolimán	10	San Lucas Tolimán	9	Septiembre	2023-09-24T00:00:00	2024-11-08T16:00:00	6	Velocidad del viento	8
149430	7	Sololá	713	San Lucas Tolimán	10	San Lucas Tolimán	9	Septiembre	2023-09-24T00:00:00	2024-11-08T16:00:00	7	Dirección del viento	8.05
149431	7	Sololá	713	San Lucas Tolimán	10	San Lucas Tolimán	9	Septiembre	2023-09-24T00:00:00	2024-11-08T16:00:00	1	Precipitación	0
149432	7	Sololá	713	San Lucas Tolimán	10	San Lucas Tolimán	9	Septiembre	2023-09-24T00:00:00	2024-11-08T16:00:00	8	Radiación solar	67
149433	7	Sololá	713	San Lucas Tolimán	10	San Lucas Tolimán	9	Septiembre	2023-09-24T00:00:00	2024-11-08T17:00:00	2	Temperatura media	20.8
149434	7	Sololá	713	San Lucas Tolimán	10	San Lucas Tolimán	9	Septiembre	2023-09-24T00:00:00	2024-11-08T17:00:00	4	Temperatura máxima	21.6
149435	7	Sololá	713	San Lucas Tolimán	10	San Lucas Tolimán	9	Septiembre	2023-09-24T00:00:00	2024-11-08T17:00:00	3	Temperatura mínima	20.8
149436	7	Sololá	713	San Lucas Tolimán	10	San Lucas Tolimán	9	Septiembre	2023-09-24T00:00:00	2024-11-08T17:00:00	5	Humedad	83
149437	7	Sololá	713	San Lucas Tolimán	10	San Lucas Tolimán	9	Septiembre	2023-09-24T00:00:00	2024-11-08T17:00:00	6	Velocidad del viento	6.4
149438	7	Sololá	713	San Lucas Tolimán	10	San Lucas Tolimán	9	Septiembre	2023-09-24T00:00:00	2024-11-08T17:00:00	7	Dirección del viento	6.44
149439	7	Sololá	713	San Lucas Tolimán	10	San Lucas Tolimán	9	Septiembre	2023-09-24T00:00:00	2024-11-08T17:00:00	1	Precipitación	0
149440	7	Sololá	713	San Lucas Tolimán	10	San Lucas Tolimán	9	Septiembre	2023-09-24T00:00:00	2024-11-08T17:00:00	8	Radiación solar	32
149441	7	Sololá	713	San Lucas Tolimán	10	San Lucas Tolimán	9	Septiembre	2023-09-24T00:00:00	2024-11-08T18:00:00	2	Temperatura media	20
149442	7	Sololá	713	San Lucas Tolimán	10	San Lucas Tolimán	9	Septiembre	2023-09-24T00:00:00	2024-11-08T18:00:00	4	Temperatura máxima	20.8
149443	7	Sololá	713	San Lucas Tolimán	10	San Lucas Tolimán	9	Septiembre	2023-09-24T00:00:00	2024-11-08T18:00:00	3	Temperatura mínima	20
149444	7	Sololá	713	San Lucas Tolimán	10	San Lucas Tolimán	9	Septiembre	2023-09-24T00:00:00	2024-11-08T18:00:00	5	Humedad	88
149445	7	Sololá	713	San Lucas Tolimán	10	San Lucas Tolimán	9	Septiembre	2023-09-24T00:00:00	2024-11-08T18:00:00	6	Velocidad del viento	6.4
149446	7	Sololá	713	San Lucas Tolimán	10	San Lucas Tolimán	9	Septiembre	2023-09-24T00:00:00	2024-11-08T18:00:00	7	Dirección del viento	6.44
149447	7	Sololá	713	San Lucas Tolimán	10	San Lucas Tolimán	9	Septiembre	2023-09-24T00:00:00	2024-11-08T18:00:00	1	Precipitación	0
149448	7	Sololá	713	San Lucas Tolimán	10	San Lucas Tolimán	9	Septiembre	2023-09-24T00:00:00	2024-11-08T18:00:00	8	Radiación solar	7
149449	7	Sololá	713	San Lucas Tolimán	10	San Lucas Tolimán	9	Septiembre	2023-09-24T00:00:00	2024-11-08T19:00:00	2	Temperatura media	19.6
149450	7	Sololá	713	San Lucas Tolimán	10	San Lucas Tolimán	9	Septiembre	2023-09-24T00:00:00	2024-11-08T19:00:00	4	Temperatura máxima	20
149451	7	Sololá	713	San Lucas Tolimán	10	San Lucas Tolimán	9	Septiembre	2023-09-24T00:00:00	2024-11-08T19:00:00	3	Temperatura mínima	19.5
149452	7	Sololá	713	San Lucas Tolimán	10	San Lucas Tolimán	9	Septiembre	2023-09-24T00:00:00	2024-11-08T19:00:00	5	Humedad	91
149453	7	Sololá	713	San Lucas Tolimán	10	San Lucas Tolimán	9	Septiembre	2023-09-24T00:00:00	2024-11-08T19:00:00	6	Velocidad del viento	8
149454	7	Sololá	713	San Lucas Tolimán	10	San Lucas Tolimán	9	Septiembre	2023-09-24T00:00:00	2024-11-08T19:00:00	7	Dirección del viento	8.05
149455	7	Sololá	713	San Lucas Tolimán	10	San Lucas Tolimán	9	Septiembre	2023-09-24T00:00:00	2024-11-08T19:00:00	1	Precipitación	0.2
149456	7	Sololá	713	San Lucas Tolimán	10	San Lucas Tolimán	9	Septiembre	2023-09-24T00:00:00	2024-11-08T19:00:00	8	Radiación solar	0
149457	7	Sololá	713	San Lucas Tolimán	10	San Lucas Tolimán	9	Septiembre	2023-09-24T00:00:00	2024-11-08T20:00:00	2	Temperatura media	19.3
149458	7	Sololá	713	San Lucas Tolimán	10	San Lucas Tolimán	9	Septiembre	2023-09-24T00:00:00	2024-11-08T20:00:00	4	Temperatura máxima	19.6
149459	7	Sololá	713	San Lucas Tolimán	10	San Lucas Tolimán	9	Septiembre	2023-09-24T00:00:00	2024-11-08T20:00:00	3	Temperatura mínima	19.2
149460	7	Sololá	713	San Lucas Tolimán	10	San Lucas Tolimán	9	Septiembre	2023-09-24T00:00:00	2024-11-08T20:00:00	5	Humedad	93
149461	7	Sololá	713	San Lucas Tolimán	10	San Lucas Tolimán	9	Septiembre	2023-09-24T00:00:00	2024-11-08T20:00:00	6	Velocidad del viento	4.8
149462	7	Sololá	713	San Lucas Tolimán	10	San Lucas Tolimán	9	Septiembre	2023-09-24T00:00:00	2024-11-08T20:00:00	7	Dirección del viento	4.83
149463	7	Sololá	713	San Lucas Tolimán	10	San Lucas Tolimán	9	Septiembre	2023-09-24T00:00:00	2024-11-08T20:00:00	1	Precipitación	0.4
149464	7	Sololá	713	San Lucas Tolimán	10	San Lucas Tolimán	9	Septiembre	2023-09-24T00:00:00	2024-11-08T20:00:00	8	Radiación solar	0
149465	7	Sololá	713	San Lucas Tolimán	10	San Lucas Tolimán	9	Septiembre	2023-09-24T00:00:00	2024-11-08T21:00:00	2	Temperatura media	18.7
149466	7	Sololá	713	San Lucas Tolimán	10	San Lucas Tolimán	9	Septiembre	2023-09-24T00:00:00	2024-11-08T21:00:00	4	Temperatura máxima	19.4
149467	7	Sololá	713	San Lucas Tolimán	10	San Lucas Tolimán	9	Septiembre	2023-09-24T00:00:00	2024-11-08T21:00:00	3	Temperatura mínima	18.7
149468	7	Sololá	713	San Lucas Tolimán	10	San Lucas Tolimán	9	Septiembre	2023-09-24T00:00:00	2024-11-08T21:00:00	5	Humedad	92
149469	7	Sololá	713	San Lucas Tolimán	10	San Lucas Tolimán	9	Septiembre	2023-09-24T00:00:00	2024-11-08T21:00:00	6	Velocidad del viento	6.4
149470	7	Sololá	713	San Lucas Tolimán	10	San Lucas Tolimán	9	Septiembre	2023-09-24T00:00:00	2024-11-08T21:00:00	7	Dirección del viento	6.44
149471	7	Sololá	713	San Lucas Tolimán	10	San Lucas Tolimán	9	Septiembre	2023-09-24T00:00:00	2024-11-08T21:00:00	1	Precipitación	0
149472	7	Sololá	713	San Lucas Tolimán	10	San Lucas Tolimán	9	Septiembre	2023-09-24T00:00:00	2024-11-08T21:00:00	8	Radiación solar	0
149473	7	Sololá	713	San Lucas Tolimán	10	San Lucas Tolimán	9	Septiembre	2023-09-24T00:00:00	2024-11-08T22:00:00	2	Temperatura media	18.1
149474	7	Sololá	713	San Lucas Tolimán	10	San Lucas Tolimán	9	Septiembre	2023-09-24T00:00:00	2024-11-08T22:00:00	4	Temperatura máxima	18.8
149475	7	Sololá	713	San Lucas Tolimán	10	San Lucas Tolimán	9	Septiembre	2023-09-24T00:00:00	2024-11-08T22:00:00	3	Temperatura mínima	18
149476	7	Sololá	713	San Lucas Tolimán	10	San Lucas Tolimán	9	Septiembre	2023-09-24T00:00:00	2024-11-08T22:00:00	5	Humedad	96
149477	7	Sololá	713	San Lucas Tolimán	10	San Lucas Tolimán	9	Septiembre	2023-09-24T00:00:00	2024-11-08T22:00:00	6	Velocidad del viento	6.4
149478	7	Sololá	713	San Lucas Tolimán	10	San Lucas Tolimán	9	Septiembre	2023-09-24T00:00:00	2024-11-08T22:00:00	7	Dirección del viento	6.44
149479	7	Sololá	713	San Lucas Tolimán	10	San Lucas Tolimán	9	Septiembre	2023-09-24T00:00:00	2024-11-08T22:00:00	1	Precipitación	0
149480	7	Sololá	713	San Lucas Tolimán	10	San Lucas Tolimán	9	Septiembre	2023-09-24T00:00:00	2024-11-08T22:00:00	8	Radiación solar	0
149481	7	Sololá	713	San Lucas Tolimán	10	San Lucas Tolimán	9	Septiembre	2023-09-24T00:00:00	2024-11-08T23:00:00	2	Temperatura media	18.1
149482	7	Sololá	713	San Lucas Tolimán	10	San Lucas Tolimán	9	Septiembre	2023-09-24T00:00:00	2024-11-08T23:00:00	4	Temperatura máxima	18.2
149483	7	Sololá	713	San Lucas Tolimán	10	San Lucas Tolimán	9	Septiembre	2023-09-24T00:00:00	2024-11-08T23:00:00	3	Temperatura mínima	17.9
149484	7	Sololá	713	San Lucas Tolimán	10	San Lucas Tolimán	9	Septiembre	2023-09-24T00:00:00	2024-11-08T23:00:00	5	Humedad	94
149485	7	Sololá	713	San Lucas Tolimán	10	San Lucas Tolimán	9	Septiembre	2023-09-24T00:00:00	2024-11-08T23:00:00	6	Velocidad del viento	4.8
149486	7	Sololá	713	San Lucas Tolimán	10	San Lucas Tolimán	9	Septiembre	2023-09-24T00:00:00	2024-11-08T23:00:00	7	Dirección del viento	4.83
149487	7	Sololá	713	San Lucas Tolimán	10	San Lucas Tolimán	9	Septiembre	2023-09-24T00:00:00	2024-11-08T23:00:00	1	Precipitación	0.4
149488	7	Sololá	713	San Lucas Tolimán	10	San Lucas Tolimán	9	Septiembre	2023-09-24T00:00:00	2024-11-08T23:00:00	8	Radiación solar	0
149489	7	Sololá	713	San Lucas Tolimán	10	San Lucas Tolimán	9	Septiembre	2023-09-25T00:00:00	2024-11-08T00:00:00	2	Temperatura media	17.8
149490	7	Sololá	713	San Lucas Tolimán	10	San Lucas Tolimán	9	Septiembre	2023-09-25T00:00:00	2024-11-08T00:00:00	4	Temperatura máxima	18.2
149491	7	Sololá	713	San Lucas Tolimán	10	San Lucas Tolimán	9	Septiembre	2023-09-25T00:00:00	2024-11-08T00:00:00	3	Temperatura mínima	17.8
149492	7	Sololá	713	San Lucas Tolimán	10	San Lucas Tolimán	9	Septiembre	2023-09-25T00:00:00	2024-11-08T00:00:00	5	Humedad	95
149493	7	Sololá	713	San Lucas Tolimán	10	San Lucas Tolimán	9	Septiembre	2023-09-25T00:00:00	2024-11-08T00:00:00	6	Velocidad del viento	4.8
149494	7	Sololá	713	San Lucas Tolimán	10	San Lucas Tolimán	9	Septiembre	2023-09-25T00:00:00	2024-11-08T00:00:00	7	Dirección del viento	4.83
149495	7	Sololá	713	San Lucas Tolimán	10	San Lucas Tolimán	9	Septiembre	2023-09-25T00:00:00	2024-11-08T00:00:00	1	Precipitación	1
149496	7	Sololá	713	San Lucas Tolimán	10	San Lucas Tolimán	9	Septiembre	2023-09-25T00:00:00	2024-11-08T00:00:00	8	Radiación solar	0
149497	7	Sololá	713	San Lucas Tolimán	10	San Lucas Tolimán	9	Septiembre	2023-09-25T00:00:00	2024-11-08T01:00:00	2	Temperatura media	17.4
149498	7	Sololá	713	San Lucas Tolimán	10	San Lucas Tolimán	9	Septiembre	2023-09-25T00:00:00	2024-11-08T01:00:00	4	Temperatura máxima	17.8
149499	7	Sololá	713	San Lucas Tolimán	10	San Lucas Tolimán	9	Septiembre	2023-09-25T00:00:00	2024-11-08T01:00:00	3	Temperatura mínima	17.4
149500	7	Sololá	713	San Lucas Tolimán	10	San Lucas Tolimán	9	Septiembre	2023-09-25T00:00:00	2024-11-08T01:00:00	5	Humedad	95
149501	7	Sololá	713	San Lucas Tolimán	10	San Lucas Tolimán	9	Septiembre	2023-09-25T00:00:00	2024-11-08T01:00:00	6	Velocidad del viento	6.4
149502	7	Sololá	713	San Lucas Tolimán	10	San Lucas Tolimán	9	Septiembre	2023-09-25T00:00:00	2024-11-08T01:00:00	7	Dirección del viento	6.44
149503	7	Sololá	713	San Lucas Tolimán	10	San Lucas Tolimán	9	Septiembre	2023-09-25T00:00:00	2024-11-08T01:00:00	1	Precipitación	3.4
149504	7	Sololá	713	San Lucas Tolimán	10	San Lucas Tolimán	9	Septiembre	2023-09-25T00:00:00	2024-11-08T01:00:00	8	Radiación solar	0
149505	7	Sololá	713	San Lucas Tolimán	10	San Lucas Tolimán	9	Septiembre	2023-09-25T00:00:00	2024-11-08T02:00:00	2	Temperatura media	17.2
149506	7	Sololá	713	San Lucas Tolimán	10	San Lucas Tolimán	9	Septiembre	2023-09-25T00:00:00	2024-11-08T02:00:00	4	Temperatura máxima	17.4
149507	7	Sololá	713	San Lucas Tolimán	10	San Lucas Tolimán	9	Septiembre	2023-09-25T00:00:00	2024-11-08T02:00:00	3	Temperatura mínima	17.1
149508	7	Sololá	713	San Lucas Tolimán	10	San Lucas Tolimán	9	Septiembre	2023-09-25T00:00:00	2024-11-08T02:00:00	5	Humedad	96
149509	7	Sololá	713	San Lucas Tolimán	10	San Lucas Tolimán	9	Septiembre	2023-09-25T00:00:00	2024-11-08T02:00:00	6	Velocidad del viento	1.6
149510	7	Sololá	713	San Lucas Tolimán	10	San Lucas Tolimán	9	Septiembre	2023-09-25T00:00:00	2024-11-08T02:00:00	7	Dirección del viento	1.61
149511	7	Sololá	713	San Lucas Tolimán	10	San Lucas Tolimán	9	Septiembre	2023-09-25T00:00:00	2024-11-08T02:00:00	1	Precipitación	1.6
149512	7	Sololá	713	San Lucas Tolimán	10	San Lucas Tolimán	9	Septiembre	2023-09-25T00:00:00	2024-11-08T02:00:00	8	Radiación solar	0
149513	7	Sololá	713	San Lucas Tolimán	10	San Lucas Tolimán	9	Septiembre	2023-09-25T00:00:00	2024-11-08T03:00:00	2	Temperatura media	17.3
149514	7	Sololá	713	San Lucas Tolimán	10	San Lucas Tolimán	9	Septiembre	2023-09-25T00:00:00	2024-11-08T03:00:00	4	Temperatura máxima	17.4
149515	7	Sololá	713	San Lucas Tolimán	10	San Lucas Tolimán	9	Septiembre	2023-09-25T00:00:00	2024-11-08T03:00:00	3	Temperatura mínima	17.2
149516	7	Sololá	713	San Lucas Tolimán	10	San Lucas Tolimán	9	Septiembre	2023-09-25T00:00:00	2024-11-08T03:00:00	5	Humedad	94
149517	7	Sololá	713	San Lucas Tolimán	10	San Lucas Tolimán	9	Septiembre	2023-09-25T00:00:00	2024-11-08T03:00:00	6	Velocidad del viento	1.6
149518	7	Sololá	713	San Lucas Tolimán	10	San Lucas Tolimán	9	Septiembre	2023-09-25T00:00:00	2024-11-08T03:00:00	7	Dirección del viento	1.61
149519	7	Sololá	713	San Lucas Tolimán	10	San Lucas Tolimán	9	Septiembre	2023-09-25T00:00:00	2024-11-08T03:00:00	1	Precipitación	0.2
149520	7	Sololá	713	San Lucas Tolimán	10	San Lucas Tolimán	9	Septiembre	2023-09-25T00:00:00	2024-11-08T03:00:00	8	Radiación solar	0
149521	7	Sololá	713	San Lucas Tolimán	10	San Lucas Tolimán	9	Septiembre	2023-09-25T00:00:00	2024-11-08T04:00:00	2	Temperatura media	17.2
149522	7	Sololá	713	San Lucas Tolimán	10	San Lucas Tolimán	9	Septiembre	2023-09-25T00:00:00	2024-11-08T04:00:00	4	Temperatura máxima	17.4
149523	7	Sololá	713	San Lucas Tolimán	10	San Lucas Tolimán	9	Septiembre	2023-09-25T00:00:00	2024-11-08T04:00:00	3	Temperatura mínima	17.2
149524	7	Sololá	713	San Lucas Tolimán	10	San Lucas Tolimán	9	Septiembre	2023-09-25T00:00:00	2024-11-08T04:00:00	5	Humedad	95
149525	7	Sololá	713	San Lucas Tolimán	10	San Lucas Tolimán	9	Septiembre	2023-09-25T00:00:00	2024-11-08T04:00:00	6	Velocidad del viento	1.6
149526	7	Sololá	713	San Lucas Tolimán	10	San Lucas Tolimán	9	Septiembre	2023-09-25T00:00:00	2024-11-08T04:00:00	7	Dirección del viento	1.61
149527	7	Sololá	713	San Lucas Tolimán	10	San Lucas Tolimán	9	Septiembre	2023-09-25T00:00:00	2024-11-08T04:00:00	1	Precipitación	0.4
149528	7	Sololá	713	San Lucas Tolimán	10	San Lucas Tolimán	9	Septiembre	2023-09-25T00:00:00	2024-11-08T04:00:00	8	Radiación solar	0
149529	7	Sololá	713	San Lucas Tolimán	10	San Lucas Tolimán	9	Septiembre	2023-09-25T00:00:00	2024-11-08T05:00:00	2	Temperatura media	16.9
149530	7	Sololá	713	San Lucas Tolimán	10	San Lucas Tolimán	9	Septiembre	2023-09-25T00:00:00	2024-11-08T05:00:00	4	Temperatura máxima	17.2
149531	7	Sololá	713	San Lucas Tolimán	10	San Lucas Tolimán	9	Septiembre	2023-09-25T00:00:00	2024-11-08T05:00:00	3	Temperatura mínima	16.9
149532	7	Sololá	713	San Lucas Tolimán	10	San Lucas Tolimán	9	Septiembre	2023-09-25T00:00:00	2024-11-08T05:00:00	5	Humedad	94
149533	7	Sololá	713	San Lucas Tolimán	10	San Lucas Tolimán	9	Septiembre	2023-09-25T00:00:00	2024-11-08T05:00:00	6	Velocidad del viento	3.2
149534	7	Sololá	713	San Lucas Tolimán	10	San Lucas Tolimán	9	Septiembre	2023-09-25T00:00:00	2024-11-08T05:00:00	7	Dirección del viento	3.22
149535	7	Sololá	713	San Lucas Tolimán	10	San Lucas Tolimán	9	Septiembre	2023-09-25T00:00:00	2024-11-08T05:00:00	1	Precipitación	0
149536	7	Sololá	713	San Lucas Tolimán	10	San Lucas Tolimán	9	Septiembre	2023-09-25T00:00:00	2024-11-08T05:00:00	8	Radiación solar	0
149537	7	Sololá	713	San Lucas Tolimán	10	San Lucas Tolimán	9	Septiembre	2023-09-25T00:00:00	2024-11-08T06:00:00	2	Temperatura media	16.9
149538	7	Sololá	713	San Lucas Tolimán	10	San Lucas Tolimán	9	Septiembre	2023-09-25T00:00:00	2024-11-08T06:00:00	4	Temperatura máxima	17.3
149539	7	Sololá	713	San Lucas Tolimán	10	San Lucas Tolimán	9	Septiembre	2023-09-25T00:00:00	2024-11-08T06:00:00	3	Temperatura mínima	16.9
149540	7	Sololá	713	San Lucas Tolimán	10	San Lucas Tolimán	9	Septiembre	2023-09-25T00:00:00	2024-11-08T06:00:00	5	Humedad	94
149541	7	Sololá	713	San Lucas Tolimán	10	San Lucas Tolimán	9	Septiembre	2023-09-25T00:00:00	2024-11-08T06:00:00	6	Velocidad del viento	4.8
149542	7	Sololá	713	San Lucas Tolimán	10	San Lucas Tolimán	9	Septiembre	2023-09-25T00:00:00	2024-11-08T06:00:00	7	Dirección del viento	4.83
149543	7	Sololá	713	San Lucas Tolimán	10	San Lucas Tolimán	9	Septiembre	2023-09-25T00:00:00	2024-11-08T06:00:00	1	Precipitación	0.2
149544	7	Sololá	713	San Lucas Tolimán	10	San Lucas Tolimán	9	Septiembre	2023-09-25T00:00:00	2024-11-08T06:00:00	8	Radiación solar	0
149545	7	Sololá	713	San Lucas Tolimán	10	San Lucas Tolimán	9	Septiembre	2023-09-25T00:00:00	2024-11-08T07:00:00	2	Temperatura media	16.7
149546	7	Sololá	713	San Lucas Tolimán	10	San Lucas Tolimán	9	Septiembre	2023-09-25T00:00:00	2024-11-08T07:00:00	4	Temperatura máxima	16.9
149547	7	Sololá	713	San Lucas Tolimán	10	San Lucas Tolimán	9	Septiembre	2023-09-25T00:00:00	2024-11-08T07:00:00	3	Temperatura mínima	16.6
149548	7	Sololá	713	San Lucas Tolimán	10	San Lucas Tolimán	9	Septiembre	2023-09-25T00:00:00	2024-11-08T07:00:00	5	Humedad	93
149549	7	Sololá	713	San Lucas Tolimán	10	San Lucas Tolimán	9	Septiembre	2023-09-25T00:00:00	2024-11-08T07:00:00	6	Velocidad del viento	1.6
149550	7	Sololá	713	San Lucas Tolimán	10	San Lucas Tolimán	9	Septiembre	2023-09-25T00:00:00	2024-11-08T07:00:00	7	Dirección del viento	1.61
149551	7	Sololá	713	San Lucas Tolimán	10	San Lucas Tolimán	9	Septiembre	2023-09-25T00:00:00	2024-11-08T07:00:00	1	Precipitación	0
149552	7	Sololá	713	San Lucas Tolimán	10	San Lucas Tolimán	9	Septiembre	2023-09-25T00:00:00	2024-11-08T07:00:00	8	Radiación solar	40
149553	7	Sololá	713	San Lucas Tolimán	10	San Lucas Tolimán	9	Septiembre	2023-09-25T00:00:00	2024-11-08T08:00:00	2	Temperatura media	20.1
149554	7	Sololá	713	San Lucas Tolimán	10	San Lucas Tolimán	9	Septiembre	2023-09-25T00:00:00	2024-11-08T08:00:00	4	Temperatura máxima	20.1
149555	7	Sololá	713	San Lucas Tolimán	10	San Lucas Tolimán	9	Septiembre	2023-09-25T00:00:00	2024-11-08T08:00:00	3	Temperatura mínima	16.7
149556	7	Sololá	713	San Lucas Tolimán	10	San Lucas Tolimán	9	Septiembre	2023-09-25T00:00:00	2024-11-08T08:00:00	5	Humedad	82
149557	7	Sololá	713	San Lucas Tolimán	10	San Lucas Tolimán	9	Septiembre	2023-09-25T00:00:00	2024-11-08T08:00:00	6	Velocidad del viento	1.6
149558	7	Sololá	713	San Lucas Tolimán	10	San Lucas Tolimán	9	Septiembre	2023-09-25T00:00:00	2024-11-08T08:00:00	7	Dirección del viento	1.61
149559	7	Sololá	713	San Lucas Tolimán	10	San Lucas Tolimán	9	Septiembre	2023-09-25T00:00:00	2024-11-08T08:00:00	1	Precipitación	0
149560	7	Sololá	713	San Lucas Tolimán	10	San Lucas Tolimán	9	Septiembre	2023-09-25T00:00:00	2024-11-08T08:00:00	8	Radiación solar	186
149561	7	Sololá	713	San Lucas Tolimán	10	San Lucas Tolimán	9	Septiembre	2023-09-25T00:00:00	2024-11-08T09:00:00	2	Temperatura media	23.3
149562	7	Sololá	713	San Lucas Tolimán	10	San Lucas Tolimán	9	Septiembre	2023-09-25T00:00:00	2024-11-08T09:00:00	4	Temperatura máxima	23.3
149563	7	Sololá	713	San Lucas Tolimán	10	San Lucas Tolimán	9	Septiembre	2023-09-25T00:00:00	2024-11-08T09:00:00	3	Temperatura mínima	20.1
149564	7	Sololá	713	San Lucas Tolimán	10	San Lucas Tolimán	9	Septiembre	2023-09-25T00:00:00	2024-11-08T09:00:00	5	Humedad	71
149565	7	Sololá	713	San Lucas Tolimán	10	San Lucas Tolimán	9	Septiembre	2023-09-25T00:00:00	2024-11-08T09:00:00	6	Velocidad del viento	3.2
149566	7	Sololá	713	San Lucas Tolimán	10	San Lucas Tolimán	9	Septiembre	2023-09-25T00:00:00	2024-11-08T09:00:00	7	Dirección del viento	3.22
149567	7	Sololá	713	San Lucas Tolimán	10	San Lucas Tolimán	9	Septiembre	2023-09-25T00:00:00	2024-11-08T09:00:00	1	Precipitación	0
149568	7	Sololá	713	San Lucas Tolimán	10	San Lucas Tolimán	9	Septiembre	2023-09-25T00:00:00	2024-11-08T09:00:00	8	Radiación solar	345
149569	7	Sololá	713	San Lucas Tolimán	10	San Lucas Tolimán	9	Septiembre	2023-09-25T00:00:00	2024-11-08T10:00:00	2	Temperatura media	23.4
149570	7	Sololá	713	San Lucas Tolimán	10	San Lucas Tolimán	9	Septiembre	2023-09-25T00:00:00	2024-11-08T10:00:00	4	Temperatura máxima	24.6
149571	7	Sololá	713	San Lucas Tolimán	10	San Lucas Tolimán	9	Septiembre	2023-09-25T00:00:00	2024-11-08T10:00:00	3	Temperatura mínima	23.4
149572	7	Sololá	713	San Lucas Tolimán	10	San Lucas Tolimán	9	Septiembre	2023-09-25T00:00:00	2024-11-08T10:00:00	5	Humedad	69
149573	7	Sololá	713	San Lucas Tolimán	10	San Lucas Tolimán	9	Septiembre	2023-09-25T00:00:00	2024-11-08T10:00:00	6	Velocidad del viento	3.2
149574	7	Sololá	713	San Lucas Tolimán	10	San Lucas Tolimán	9	Septiembre	2023-09-25T00:00:00	2024-11-08T10:00:00	7	Dirección del viento	3.22
149575	7	Sololá	713	San Lucas Tolimán	10	San Lucas Tolimán	9	Septiembre	2023-09-25T00:00:00	2024-11-08T10:00:00	1	Precipitación	0
149576	7	Sololá	713	San Lucas Tolimán	10	San Lucas Tolimán	9	Septiembre	2023-09-25T00:00:00	2024-11-08T10:00:00	8	Radiación solar	505
149577	7	Sololá	713	San Lucas Tolimán	10	San Lucas Tolimán	9	Septiembre	2023-09-25T00:00:00	2024-11-08T11:00:00	2	Temperatura media	22.8
149578	7	Sololá	713	San Lucas Tolimán	10	San Lucas Tolimán	9	Septiembre	2023-09-25T00:00:00	2024-11-08T11:00:00	4	Temperatura máxima	24.2
149579	7	Sololá	713	San Lucas Tolimán	10	San Lucas Tolimán	9	Septiembre	2023-09-25T00:00:00	2024-11-08T11:00:00	3	Temperatura mínima	22.8
149580	7	Sololá	713	San Lucas Tolimán	10	San Lucas Tolimán	9	Septiembre	2023-09-25T00:00:00	2024-11-08T11:00:00	5	Humedad	77
149581	7	Sololá	713	San Lucas Tolimán	10	San Lucas Tolimán	9	Septiembre	2023-09-25T00:00:00	2024-11-08T11:00:00	6	Velocidad del viento	3.2
149582	7	Sololá	713	San Lucas Tolimán	10	San Lucas Tolimán	9	Septiembre	2023-09-25T00:00:00	2024-11-08T11:00:00	7	Dirección del viento	3.22
149583	7	Sololá	713	San Lucas Tolimán	10	San Lucas Tolimán	9	Septiembre	2023-09-25T00:00:00	2024-11-08T11:00:00	1	Precipitación	0
149584	7	Sololá	713	San Lucas Tolimán	10	San Lucas Tolimán	9	Septiembre	2023-09-25T00:00:00	2024-11-08T11:00:00	8	Radiación solar	530
149585	7	Sololá	713	San Lucas Tolimán	10	San Lucas Tolimán	9	Septiembre	2023-09-25T00:00:00	2024-11-08T12:00:00	2	Temperatura media	20.2
149586	7	Sololá	713	San Lucas Tolimán	10	San Lucas Tolimán	9	Septiembre	2023-09-25T00:00:00	2024-11-08T12:00:00	4	Temperatura máxima	22.8
149587	7	Sololá	713	San Lucas Tolimán	10	San Lucas Tolimán	9	Septiembre	2023-09-25T00:00:00	2024-11-08T12:00:00	3	Temperatura mínima	20.2
149588	7	Sololá	713	San Lucas Tolimán	10	San Lucas Tolimán	9	Septiembre	2023-09-25T00:00:00	2024-11-08T12:00:00	5	Humedad	90
149589	7	Sololá	713	San Lucas Tolimán	10	San Lucas Tolimán	9	Septiembre	2023-09-25T00:00:00	2024-11-08T12:00:00	6	Velocidad del viento	9.7
149590	7	Sololá	713	San Lucas Tolimán	10	San Lucas Tolimán	9	Septiembre	2023-09-25T00:00:00	2024-11-08T12:00:00	7	Dirección del viento	9.66
149591	7	Sololá	713	San Lucas Tolimán	10	San Lucas Tolimán	9	Septiembre	2023-09-25T00:00:00	2024-11-08T12:00:00	1	Precipitación	0
149592	7	Sololá	713	San Lucas Tolimán	10	San Lucas Tolimán	9	Septiembre	2023-09-25T00:00:00	2024-11-08T12:00:00	8	Radiación solar	822
149593	7	Sololá	713	San Lucas Tolimán	10	San Lucas Tolimán	9	Septiembre	2023-09-25T00:00:00	2024-11-08T13:00:00	2	Temperatura media	19.7
149594	7	Sololá	713	San Lucas Tolimán	10	San Lucas Tolimán	9	Septiembre	2023-09-25T00:00:00	2024-11-08T13:00:00	4	Temperatura máxima	20.2
149595	7	Sololá	713	San Lucas Tolimán	10	San Lucas Tolimán	9	Septiembre	2023-09-25T00:00:00	2024-11-08T13:00:00	3	Temperatura mínima	19.5
149596	7	Sololá	713	San Lucas Tolimán	10	San Lucas Tolimán	9	Septiembre	2023-09-25T00:00:00	2024-11-08T13:00:00	5	Humedad	87
149597	7	Sololá	713	San Lucas Tolimán	10	San Lucas Tolimán	9	Septiembre	2023-09-25T00:00:00	2024-11-08T13:00:00	6	Velocidad del viento	12.9
149598	7	Sololá	713	San Lucas Tolimán	10	San Lucas Tolimán	9	Septiembre	2023-09-25T00:00:00	2024-11-08T13:00:00	7	Dirección del viento	12.87
149599	7	Sololá	713	San Lucas Tolimán	10	San Lucas Tolimán	9	Septiembre	2023-09-25T00:00:00	2024-11-08T13:00:00	1	Precipitación	0
149600	7	Sololá	713	San Lucas Tolimán	10	San Lucas Tolimán	9	Septiembre	2023-09-25T00:00:00	2024-11-08T13:00:00	8	Radiación solar	494
149601	7	Sololá	713	San Lucas Tolimán	10	San Lucas Tolimán	9	Septiembre	2023-09-25T00:00:00	2024-11-08T14:00:00	2	Temperatura media	21.2
149602	7	Sololá	713	San Lucas Tolimán	10	San Lucas Tolimán	9	Septiembre	2023-09-25T00:00:00	2024-11-08T14:00:00	4	Temperatura máxima	21.2
149603	7	Sololá	713	San Lucas Tolimán	10	San Lucas Tolimán	9	Septiembre	2023-09-25T00:00:00	2024-11-08T14:00:00	3	Temperatura mínima	19.7
149604	7	Sololá	713	San Lucas Tolimán	10	San Lucas Tolimán	9	Septiembre	2023-09-25T00:00:00	2024-11-08T14:00:00	5	Humedad	78
149605	7	Sololá	713	San Lucas Tolimán	10	San Lucas Tolimán	9	Septiembre	2023-09-25T00:00:00	2024-11-08T14:00:00	6	Velocidad del viento	11.3
149606	7	Sololá	713	San Lucas Tolimán	10	San Lucas Tolimán	9	Septiembre	2023-09-25T00:00:00	2024-11-08T14:00:00	7	Dirección del viento	11.27
149607	7	Sololá	713	San Lucas Tolimán	10	San Lucas Tolimán	9	Septiembre	2023-09-25T00:00:00	2024-11-08T14:00:00	1	Precipitación	0
149608	7	Sololá	713	San Lucas Tolimán	10	San Lucas Tolimán	9	Septiembre	2023-09-25T00:00:00	2024-11-08T14:00:00	8	Radiación solar	527
149609	7	Sololá	713	San Lucas Tolimán	10	San Lucas Tolimán	9	Septiembre	2023-09-25T00:00:00	2024-11-08T15:00:00	2	Temperatura media	20.8
149610	7	Sololá	713	San Lucas Tolimán	10	San Lucas Tolimán	9	Septiembre	2023-09-25T00:00:00	2024-11-08T15:00:00	4	Temperatura máxima	21.4
149611	7	Sololá	713	San Lucas Tolimán	10	San Lucas Tolimán	9	Septiembre	2023-09-25T00:00:00	2024-11-08T15:00:00	3	Temperatura mínima	20.7
149612	7	Sololá	713	San Lucas Tolimán	10	San Lucas Tolimán	9	Septiembre	2023-09-25T00:00:00	2024-11-08T15:00:00	5	Humedad	82
149613	7	Sololá	713	San Lucas Tolimán	10	San Lucas Tolimán	9	Septiembre	2023-09-25T00:00:00	2024-11-08T15:00:00	6	Velocidad del viento	8
149614	7	Sololá	713	San Lucas Tolimán	10	San Lucas Tolimán	9	Septiembre	2023-09-25T00:00:00	2024-11-08T15:00:00	7	Dirección del viento	8.05
149615	7	Sololá	713	San Lucas Tolimán	10	San Lucas Tolimán	9	Septiembre	2023-09-25T00:00:00	2024-11-08T15:00:00	1	Precipitación	0
149616	7	Sololá	713	San Lucas Tolimán	10	San Lucas Tolimán	9	Septiembre	2023-09-25T00:00:00	2024-11-08T15:00:00	8	Radiación solar	180
149617	7	Sololá	713	San Lucas Tolimán	10	San Lucas Tolimán	9	Septiembre	2023-09-25T00:00:00	2024-11-08T16:00:00	2	Temperatura media	20.2
149618	7	Sololá	713	San Lucas Tolimán	10	San Lucas Tolimán	9	Septiembre	2023-09-25T00:00:00	2024-11-08T16:00:00	4	Temperatura máxima	20.8
149619	7	Sololá	713	San Lucas Tolimán	10	San Lucas Tolimán	9	Septiembre	2023-09-25T00:00:00	2024-11-08T16:00:00	3	Temperatura mínima	20.1
149620	7	Sololá	713	San Lucas Tolimán	10	San Lucas Tolimán	9	Septiembre	2023-09-25T00:00:00	2024-11-08T16:00:00	5	Humedad	87
149621	7	Sololá	713	San Lucas Tolimán	10	San Lucas Tolimán	9	Septiembre	2023-09-25T00:00:00	2024-11-08T16:00:00	6	Velocidad del viento	6.4
149622	7	Sololá	713	San Lucas Tolimán	10	San Lucas Tolimán	9	Septiembre	2023-09-25T00:00:00	2024-11-08T16:00:00	7	Dirección del viento	6.44
149623	7	Sololá	713	San Lucas Tolimán	10	San Lucas Tolimán	9	Septiembre	2023-09-25T00:00:00	2024-11-08T16:00:00	1	Precipitación	0
149624	7	Sololá	713	San Lucas Tolimán	10	San Lucas Tolimán	9	Septiembre	2023-09-25T00:00:00	2024-11-08T16:00:00	8	Radiación solar	45
149625	7	Sololá	713	San Lucas Tolimán	10	San Lucas Tolimán	9	Septiembre	2023-09-25T00:00:00	2024-11-08T17:00:00	2	Temperatura media	19.9
149626	7	Sololá	713	San Lucas Tolimán	10	San Lucas Tolimán	9	Septiembre	2023-09-25T00:00:00	2024-11-08T17:00:00	4	Temperatura máxima	20.2
149627	7	Sololá	713	San Lucas Tolimán	10	San Lucas Tolimán	9	Septiembre	2023-09-25T00:00:00	2024-11-08T17:00:00	3	Temperatura mínima	19.7
149628	7	Sololá	713	San Lucas Tolimán	10	San Lucas Tolimán	9	Septiembre	2023-09-25T00:00:00	2024-11-08T17:00:00	5	Humedad	86
149629	7	Sololá	713	San Lucas Tolimán	10	San Lucas Tolimán	9	Septiembre	2023-09-25T00:00:00	2024-11-08T17:00:00	6	Velocidad del viento	4.8
149630	7	Sololá	713	San Lucas Tolimán	10	San Lucas Tolimán	9	Septiembre	2023-09-25T00:00:00	2024-11-08T17:00:00	7	Dirección del viento	4.83
149631	7	Sololá	713	San Lucas Tolimán	10	San Lucas Tolimán	9	Septiembre	2023-09-25T00:00:00	2024-11-08T17:00:00	1	Precipitación	0
149632	7	Sololá	713	San Lucas Tolimán	10	San Lucas Tolimán	9	Septiembre	2023-09-25T00:00:00	2024-11-08T17:00:00	8	Radiación solar	48
149633	7	Sololá	713	San Lucas Tolimán	10	San Lucas Tolimán	9	Septiembre	2023-09-25T00:00:00	2024-11-08T18:00:00	2	Temperatura media	19.4
149634	7	Sololá	713	San Lucas Tolimán	10	San Lucas Tolimán	9	Septiembre	2023-09-25T00:00:00	2024-11-08T18:00:00	4	Temperatura máxima	19.9
149635	7	Sololá	713	San Lucas Tolimán	10	San Lucas Tolimán	9	Septiembre	2023-09-25T00:00:00	2024-11-08T18:00:00	3	Temperatura mínima	19.3
149636	7	Sololá	713	San Lucas Tolimán	10	San Lucas Tolimán	9	Septiembre	2023-09-25T00:00:00	2024-11-08T18:00:00	5	Humedad	90
149637	7	Sololá	713	San Lucas Tolimán	10	San Lucas Tolimán	9	Septiembre	2023-09-25T00:00:00	2024-11-08T18:00:00	6	Velocidad del viento	6.4
149638	7	Sololá	713	San Lucas Tolimán	10	San Lucas Tolimán	9	Septiembre	2023-09-25T00:00:00	2024-11-08T18:00:00	7	Dirección del viento	6.44
149639	7	Sololá	713	San Lucas Tolimán	10	San Lucas Tolimán	9	Septiembre	2023-09-25T00:00:00	2024-11-08T18:00:00	1	Precipitación	0
149640	7	Sololá	713	San Lucas Tolimán	10	San Lucas Tolimán	9	Septiembre	2023-09-25T00:00:00	2024-11-08T18:00:00	8	Radiación solar	5
149641	7	Sololá	713	San Lucas Tolimán	10	San Lucas Tolimán	9	Septiembre	2023-09-25T00:00:00	2024-11-08T19:00:00	2	Temperatura media	18.7
149642	7	Sololá	713	San Lucas Tolimán	10	San Lucas Tolimán	9	Septiembre	2023-09-25T00:00:00	2024-11-08T19:00:00	4	Temperatura máxima	19.4
149643	7	Sololá	713	San Lucas Tolimán	10	San Lucas Tolimán	9	Septiembre	2023-09-25T00:00:00	2024-11-08T19:00:00	3	Temperatura mínima	18.6
149644	7	Sololá	713	San Lucas Tolimán	10	San Lucas Tolimán	9	Septiembre	2023-09-25T00:00:00	2024-11-08T19:00:00	5	Humedad	89
149645	7	Sololá	713	San Lucas Tolimán	10	San Lucas Tolimán	9	Septiembre	2023-09-25T00:00:00	2024-11-08T19:00:00	6	Velocidad del viento	3.2
149646	7	Sololá	713	San Lucas Tolimán	10	San Lucas Tolimán	9	Septiembre	2023-09-25T00:00:00	2024-11-08T19:00:00	7	Dirección del viento	3.22
149647	7	Sololá	713	San Lucas Tolimán	10	San Lucas Tolimán	9	Septiembre	2023-09-25T00:00:00	2024-11-08T19:00:00	1	Precipitación	0
149648	7	Sololá	713	San Lucas Tolimán	10	San Lucas Tolimán	9	Septiembre	2023-09-25T00:00:00	2024-11-08T19:00:00	8	Radiación solar	0
149649	7	Sololá	713	San Lucas Tolimán	10	San Lucas Tolimán	9	Septiembre	2023-09-25T00:00:00	2024-11-08T20:00:00	2	Temperatura media	17.9
149650	7	Sololá	713	San Lucas Tolimán	10	San Lucas Tolimán	9	Septiembre	2023-09-25T00:00:00	2024-11-08T20:00:00	4	Temperatura máxima	18.7
149651	7	Sololá	713	San Lucas Tolimán	10	San Lucas Tolimán	9	Septiembre	2023-09-25T00:00:00	2024-11-08T20:00:00	3	Temperatura mínima	17.9
149652	7	Sololá	713	San Lucas Tolimán	10	San Lucas Tolimán	9	Septiembre	2023-09-25T00:00:00	2024-11-08T20:00:00	5	Humedad	90
149653	7	Sololá	713	San Lucas Tolimán	10	San Lucas Tolimán	9	Septiembre	2023-09-25T00:00:00	2024-11-08T20:00:00	6	Velocidad del viento	3.2
149654	7	Sololá	713	San Lucas Tolimán	10	San Lucas Tolimán	9	Septiembre	2023-09-25T00:00:00	2024-11-08T20:00:00	7	Dirección del viento	3.22
149655	7	Sololá	713	San Lucas Tolimán	10	San Lucas Tolimán	9	Septiembre	2023-09-25T00:00:00	2024-11-08T20:00:00	1	Precipitación	0
149656	7	Sololá	713	San Lucas Tolimán	10	San Lucas Tolimán	9	Septiembre	2023-09-25T00:00:00	2024-11-08T20:00:00	8	Radiación solar	0
149657	7	Sololá	713	San Lucas Tolimán	10	San Lucas Tolimán	9	Septiembre	2023-09-25T00:00:00	2024-11-08T21:00:00	2	Temperatura media	18
149658	7	Sololá	713	San Lucas Tolimán	10	San Lucas Tolimán	9	Septiembre	2023-09-25T00:00:00	2024-11-08T21:00:00	4	Temperatura máxima	18.1
149659	7	Sololá	713	San Lucas Tolimán	10	San Lucas Tolimán	9	Septiembre	2023-09-25T00:00:00	2024-11-08T21:00:00	3	Temperatura mínima	17.7
149660	7	Sololá	713	San Lucas Tolimán	10	San Lucas Tolimán	9	Septiembre	2023-09-25T00:00:00	2024-11-08T21:00:00	5	Humedad	93
149661	7	Sololá	713	San Lucas Tolimán	10	San Lucas Tolimán	9	Septiembre	2023-09-25T00:00:00	2024-11-08T21:00:00	6	Velocidad del viento	6.4
149662	7	Sololá	713	San Lucas Tolimán	10	San Lucas Tolimán	9	Septiembre	2023-09-25T00:00:00	2024-11-08T21:00:00	7	Dirección del viento	6.44
149663	7	Sololá	713	San Lucas Tolimán	10	San Lucas Tolimán	9	Septiembre	2023-09-25T00:00:00	2024-11-08T21:00:00	1	Precipitación	0
149664	7	Sololá	713	San Lucas Tolimán	10	San Lucas Tolimán	9	Septiembre	2023-09-25T00:00:00	2024-11-08T21:00:00	8	Radiación solar	0
149665	7	Sololá	713	San Lucas Tolimán	10	San Lucas Tolimán	9	Septiembre	2023-09-25T00:00:00	2024-11-08T22:00:00	2	Temperatura media	17.8
149666	7	Sololá	713	San Lucas Tolimán	10	San Lucas Tolimán	9	Septiembre	2023-09-25T00:00:00	2024-11-08T22:00:00	4	Temperatura máxima	18
149667	7	Sololá	713	San Lucas Tolimán	10	San Lucas Tolimán	9	Septiembre	2023-09-25T00:00:00	2024-11-08T22:00:00	3	Temperatura mínima	17.6
149668	7	Sololá	713	San Lucas Tolimán	10	San Lucas Tolimán	9	Septiembre	2023-09-25T00:00:00	2024-11-08T22:00:00	5	Humedad	92
149669	7	Sololá	713	San Lucas Tolimán	10	San Lucas Tolimán	9	Septiembre	2023-09-25T00:00:00	2024-11-08T22:00:00	6	Velocidad del viento	4.8
149670	7	Sololá	713	San Lucas Tolimán	10	San Lucas Tolimán	9	Septiembre	2023-09-25T00:00:00	2024-11-08T22:00:00	7	Dirección del viento	4.83
149671	7	Sololá	713	San Lucas Tolimán	10	San Lucas Tolimán	9	Septiembre	2023-09-25T00:00:00	2024-11-08T22:00:00	1	Precipitación	0
149672	7	Sololá	713	San Lucas Tolimán	10	San Lucas Tolimán	9	Septiembre	2023-09-25T00:00:00	2024-11-08T22:00:00	8	Radiación solar	0
149673	7	Sololá	713	San Lucas Tolimán	10	San Lucas Tolimán	9	Septiembre	2023-09-25T00:00:00	2024-11-08T23:00:00	2	Temperatura media	17.9
149674	7	Sololá	713	San Lucas Tolimán	10	San Lucas Tolimán	9	Septiembre	2023-09-25T00:00:00	2024-11-08T23:00:00	4	Temperatura máxima	18.1
149675	7	Sololá	713	San Lucas Tolimán	10	San Lucas Tolimán	9	Septiembre	2023-09-25T00:00:00	2024-11-08T23:00:00	3	Temperatura mínima	17.6
149676	7	Sololá	713	San Lucas Tolimán	10	San Lucas Tolimán	9	Septiembre	2023-09-25T00:00:00	2024-11-08T23:00:00	5	Humedad	91
149677	7	Sololá	713	San Lucas Tolimán	10	San Lucas Tolimán	9	Septiembre	2023-09-25T00:00:00	2024-11-08T23:00:00	6	Velocidad del viento	4.8
149678	7	Sololá	713	San Lucas Tolimán	10	San Lucas Tolimán	9	Septiembre	2023-09-25T00:00:00	2024-11-08T23:00:00	7	Dirección del viento	4.83
149679	7	Sololá	713	San Lucas Tolimán	10	San Lucas Tolimán	9	Septiembre	2023-09-25T00:00:00	2024-11-08T23:00:00	1	Precipitación	0
149680	7	Sololá	713	San Lucas Tolimán	10	San Lucas Tolimán	9	Septiembre	2023-09-25T00:00:00	2024-11-08T23:00:00	8	Radiación solar	0
149681	7	Sololá	713	San Lucas Tolimán	10	San Lucas Tolimán	9	Septiembre	2023-09-26T00:00:00	2024-11-08T00:00:00	2	Temperatura media	17.7
149682	7	Sololá	713	San Lucas Tolimán	10	San Lucas Tolimán	9	Septiembre	2023-09-26T00:00:00	2024-11-08T00:00:00	4	Temperatura máxima	18
149683	7	Sololá	713	San Lucas Tolimán	10	San Lucas Tolimán	9	Septiembre	2023-09-26T00:00:00	2024-11-08T00:00:00	3	Temperatura mínima	17.7
149684	7	Sololá	713	San Lucas Tolimán	10	San Lucas Tolimán	9	Septiembre	2023-09-26T00:00:00	2024-11-08T00:00:00	5	Humedad	92
149685	7	Sololá	713	San Lucas Tolimán	10	San Lucas Tolimán	9	Septiembre	2023-09-26T00:00:00	2024-11-08T00:00:00	6	Velocidad del viento	1.6
149686	7	Sololá	713	San Lucas Tolimán	10	San Lucas Tolimán	9	Septiembre	2023-09-26T00:00:00	2024-11-08T00:00:00	7	Dirección del viento	1.61
149687	7	Sololá	713	San Lucas Tolimán	10	San Lucas Tolimán	9	Septiembre	2023-09-26T00:00:00	2024-11-08T00:00:00	1	Precipitación	0
149688	7	Sololá	713	San Lucas Tolimán	10	San Lucas Tolimán	9	Septiembre	2023-09-26T00:00:00	2024-11-08T00:00:00	8	Radiación solar	0
149689	7	Sololá	713	San Lucas Tolimán	10	San Lucas Tolimán	9	Septiembre	2023-09-26T00:00:00	2024-11-08T01:00:00	2	Temperatura media	18.8
149690	7	Sololá	713	San Lucas Tolimán	10	San Lucas Tolimán	9	Septiembre	2023-09-26T00:00:00	2024-11-08T01:00:00	4	Temperatura máxima	18.8
149691	7	Sololá	713	San Lucas Tolimán	10	San Lucas Tolimán	9	Septiembre	2023-09-26T00:00:00	2024-11-08T01:00:00	3	Temperatura mínima	17.4
149692	7	Sololá	713	San Lucas Tolimán	10	San Lucas Tolimán	9	Septiembre	2023-09-26T00:00:00	2024-11-08T01:00:00	5	Humedad	88
149693	7	Sololá	713	San Lucas Tolimán	10	San Lucas Tolimán	9	Septiembre	2023-09-26T00:00:00	2024-11-08T01:00:00	6	Velocidad del viento	4.8
149694	7	Sololá	713	San Lucas Tolimán	10	San Lucas Tolimán	9	Septiembre	2023-09-26T00:00:00	2024-11-08T01:00:00	7	Dirección del viento	4.83
149695	7	Sololá	713	San Lucas Tolimán	10	San Lucas Tolimán	9	Septiembre	2023-09-26T00:00:00	2024-11-08T01:00:00	1	Precipitación	0
149696	7	Sololá	713	San Lucas Tolimán	10	San Lucas Tolimán	9	Septiembre	2023-09-26T00:00:00	2024-11-08T01:00:00	8	Radiación solar	0
149697	7	Sololá	713	San Lucas Tolimán	10	San Lucas Tolimán	9	Septiembre	2023-09-26T00:00:00	2024-11-08T02:00:00	2	Temperatura media	17.6
149698	7	Sololá	713	San Lucas Tolimán	10	San Lucas Tolimán	9	Septiembre	2023-09-26T00:00:00	2024-11-08T02:00:00	4	Temperatura máxima	18.8
149699	7	Sololá	713	San Lucas Tolimán	10	San Lucas Tolimán	9	Septiembre	2023-09-26T00:00:00	2024-11-08T02:00:00	3	Temperatura mínima	17.6
149700	7	Sololá	713	San Lucas Tolimán	10	San Lucas Tolimán	9	Septiembre	2023-09-26T00:00:00	2024-11-08T02:00:00	5	Humedad	92
149701	7	Sololá	713	San Lucas Tolimán	10	San Lucas Tolimán	9	Septiembre	2023-09-26T00:00:00	2024-11-08T02:00:00	6	Velocidad del viento	3.2
149702	7	Sololá	713	San Lucas Tolimán	10	San Lucas Tolimán	9	Septiembre	2023-09-26T00:00:00	2024-11-08T02:00:00	7	Dirección del viento	3.22
149703	7	Sololá	713	San Lucas Tolimán	10	San Lucas Tolimán	9	Septiembre	2023-09-26T00:00:00	2024-11-08T02:00:00	1	Precipitación	0
149704	7	Sololá	713	San Lucas Tolimán	10	San Lucas Tolimán	9	Septiembre	2023-09-26T00:00:00	2024-11-08T02:00:00	8	Radiación solar	0
149705	7	Sololá	713	San Lucas Tolimán	10	San Lucas Tolimán	9	Septiembre	2023-09-26T00:00:00	2024-11-08T03:00:00	2	Temperatura media	18.3
149706	7	Sololá	713	San Lucas Tolimán	10	San Lucas Tolimán	9	Septiembre	2023-09-26T00:00:00	2024-11-08T03:00:00	4	Temperatura máxima	18.3
149707	7	Sololá	713	San Lucas Tolimán	10	San Lucas Tolimán	9	Septiembre	2023-09-26T00:00:00	2024-11-08T03:00:00	3	Temperatura mínima	17.4
149708	7	Sololá	713	San Lucas Tolimán	10	San Lucas Tolimán	9	Septiembre	2023-09-26T00:00:00	2024-11-08T03:00:00	5	Humedad	91
149709	7	Sololá	713	San Lucas Tolimán	10	San Lucas Tolimán	9	Septiembre	2023-09-26T00:00:00	2024-11-08T03:00:00	6	Velocidad del viento	1.6
149710	7	Sololá	713	San Lucas Tolimán	10	San Lucas Tolimán	9	Septiembre	2023-09-26T00:00:00	2024-11-08T03:00:00	7	Dirección del viento	1.61
149711	7	Sololá	713	San Lucas Tolimán	10	San Lucas Tolimán	9	Septiembre	2023-09-26T00:00:00	2024-11-08T03:00:00	1	Precipitación	0
149712	7	Sololá	713	San Lucas Tolimán	10	San Lucas Tolimán	9	Septiembre	2023-09-26T00:00:00	2024-11-08T03:00:00	8	Radiación solar	0
149713	7	Sololá	713	San Lucas Tolimán	10	San Lucas Tolimán	9	Septiembre	2023-09-26T00:00:00	2024-11-08T04:00:00	2	Temperatura media	17.9
149714	7	Sololá	713	San Lucas Tolimán	10	San Lucas Tolimán	9	Septiembre	2023-09-26T00:00:00	2024-11-08T04:00:00	4	Temperatura máxima	18.3
149715	7	Sololá	713	San Lucas Tolimán	10	San Lucas Tolimán	9	Septiembre	2023-09-26T00:00:00	2024-11-08T04:00:00	3	Temperatura mínima	17.9
149716	7	Sololá	713	San Lucas Tolimán	10	San Lucas Tolimán	9	Septiembre	2023-09-26T00:00:00	2024-11-08T04:00:00	5	Humedad	90
149717	7	Sololá	713	San Lucas Tolimán	10	San Lucas Tolimán	9	Septiembre	2023-09-26T00:00:00	2024-11-08T04:00:00	6	Velocidad del viento	1.6
149718	7	Sololá	713	San Lucas Tolimán	10	San Lucas Tolimán	9	Septiembre	2023-09-26T00:00:00	2024-11-08T04:00:00	7	Dirección del viento	1.61
149719	7	Sololá	713	San Lucas Tolimán	10	San Lucas Tolimán	9	Septiembre	2023-09-26T00:00:00	2024-11-08T04:00:00	1	Precipitación	0
149720	7	Sololá	713	San Lucas Tolimán	10	San Lucas Tolimán	9	Septiembre	2023-09-26T00:00:00	2024-11-08T04:00:00	8	Radiación solar	0
149721	7	Sololá	713	San Lucas Tolimán	10	San Lucas Tolimán	9	Septiembre	2023-09-26T00:00:00	2024-11-08T05:00:00	2	Temperatura media	16.9
149722	7	Sololá	713	San Lucas Tolimán	10	San Lucas Tolimán	9	Septiembre	2023-09-26T00:00:00	2024-11-08T05:00:00	4	Temperatura máxima	17.9
149723	7	Sololá	713	San Lucas Tolimán	10	San Lucas Tolimán	9	Septiembre	2023-09-26T00:00:00	2024-11-08T05:00:00	3	Temperatura mínima	16.9
149724	7	Sololá	713	San Lucas Tolimán	10	San Lucas Tolimán	9	Septiembre	2023-09-26T00:00:00	2024-11-08T05:00:00	5	Humedad	92
149725	7	Sololá	713	San Lucas Tolimán	10	San Lucas Tolimán	9	Septiembre	2023-09-26T00:00:00	2024-11-08T05:00:00	6	Velocidad del viento	0
149726	7	Sololá	713	San Lucas Tolimán	10	San Lucas Tolimán	9	Septiembre	2023-09-26T00:00:00	2024-11-08T05:00:00	7	Dirección del viento	0
149727	7	Sololá	713	San Lucas Tolimán	10	San Lucas Tolimán	9	Septiembre	2023-09-26T00:00:00	2024-11-08T05:00:00	1	Precipitación	0
149728	7	Sololá	713	San Lucas Tolimán	10	San Lucas Tolimán	9	Septiembre	2023-09-26T00:00:00	2024-11-08T05:00:00	8	Radiación solar	0
149729	7	Sololá	713	San Lucas Tolimán	10	San Lucas Tolimán	9	Septiembre	2023-09-26T00:00:00	2024-11-08T06:00:00	2	Temperatura media	16
149730	7	Sololá	713	San Lucas Tolimán	10	San Lucas Tolimán	9	Septiembre	2023-09-26T00:00:00	2024-11-08T06:00:00	4	Temperatura máxima	16.9
149731	7	Sololá	713	San Lucas Tolimán	10	San Lucas Tolimán	9	Septiembre	2023-09-26T00:00:00	2024-11-08T06:00:00	3	Temperatura mínima	16
149732	7	Sololá	713	San Lucas Tolimán	10	San Lucas Tolimán	9	Septiembre	2023-09-26T00:00:00	2024-11-08T06:00:00	5	Humedad	94
149733	7	Sololá	713	San Lucas Tolimán	10	San Lucas Tolimán	9	Septiembre	2023-09-26T00:00:00	2024-11-08T06:00:00	6	Velocidad del viento	1.6
149734	7	Sololá	713	San Lucas Tolimán	10	San Lucas Tolimán	9	Septiembre	2023-09-26T00:00:00	2024-11-08T06:00:00	7	Dirección del viento	1.61
149735	7	Sololá	713	San Lucas Tolimán	10	San Lucas Tolimán	9	Septiembre	2023-09-26T00:00:00	2024-11-08T06:00:00	1	Precipitación	0
149736	7	Sololá	713	San Lucas Tolimán	10	San Lucas Tolimán	9	Septiembre	2023-09-26T00:00:00	2024-11-08T06:00:00	8	Radiación solar	0
149737	7	Sololá	713	San Lucas Tolimán	10	San Lucas Tolimán	9	Septiembre	2023-09-26T00:00:00	2024-11-08T07:00:00	2	Temperatura media	16.8
149738	7	Sololá	713	San Lucas Tolimán	10	San Lucas Tolimán	9	Septiembre	2023-09-26T00:00:00	2024-11-08T07:00:00	4	Temperatura máxima	16.8
149739	7	Sololá	713	San Lucas Tolimán	10	San Lucas Tolimán	9	Septiembre	2023-09-26T00:00:00	2024-11-08T07:00:00	3	Temperatura mínima	15.9
149740	7	Sololá	713	San Lucas Tolimán	10	San Lucas Tolimán	9	Septiembre	2023-09-26T00:00:00	2024-11-08T07:00:00	5	Humedad	92
149741	7	Sololá	713	San Lucas Tolimán	10	San Lucas Tolimán	9	Septiembre	2023-09-26T00:00:00	2024-11-08T07:00:00	6	Velocidad del viento	0
149742	7	Sololá	713	San Lucas Tolimán	10	San Lucas Tolimán	9	Septiembre	2023-09-26T00:00:00	2024-11-08T07:00:00	7	Dirección del viento	0
149743	7	Sololá	713	San Lucas Tolimán	10	San Lucas Tolimán	9	Septiembre	2023-09-26T00:00:00	2024-11-08T07:00:00	1	Precipitación	0
149744	7	Sololá	713	San Lucas Tolimán	10	San Lucas Tolimán	9	Septiembre	2023-09-26T00:00:00	2024-11-08T07:00:00	8	Radiación solar	30
149745	7	Sololá	713	San Lucas Tolimán	10	San Lucas Tolimán	9	Septiembre	2023-09-26T00:00:00	2024-11-08T08:00:00	2	Temperatura media	21.4
149746	7	Sololá	713	San Lucas Tolimán	10	San Lucas Tolimán	9	Septiembre	2023-09-26T00:00:00	2024-11-08T08:00:00	4	Temperatura máxima	21.4
149747	7	Sololá	713	San Lucas Tolimán	10	San Lucas Tolimán	9	Septiembre	2023-09-26T00:00:00	2024-11-08T08:00:00	3	Temperatura mínima	16.9
149748	7	Sololá	713	San Lucas Tolimán	10	San Lucas Tolimán	9	Septiembre	2023-09-26T00:00:00	2024-11-08T08:00:00	5	Humedad	75
149749	7	Sololá	713	San Lucas Tolimán	10	San Lucas Tolimán	9	Septiembre	2023-09-26T00:00:00	2024-11-08T08:00:00	6	Velocidad del viento	1.6
149750	7	Sololá	713	San Lucas Tolimán	10	San Lucas Tolimán	9	Septiembre	2023-09-26T00:00:00	2024-11-08T08:00:00	7	Dirección del viento	1.61
149751	7	Sololá	713	San Lucas Tolimán	10	San Lucas Tolimán	9	Septiembre	2023-09-26T00:00:00	2024-11-08T08:00:00	1	Precipitación	0
149752	7	Sololá	713	San Lucas Tolimán	10	San Lucas Tolimán	9	Septiembre	2023-09-26T00:00:00	2024-11-08T08:00:00	8	Radiación solar	198
149753	7	Sololá	713	San Lucas Tolimán	10	San Lucas Tolimán	9	Septiembre	2023-09-26T00:00:00	2024-11-08T09:00:00	2	Temperatura media	23.6
149754	7	Sololá	713	San Lucas Tolimán	10	San Lucas Tolimán	9	Septiembre	2023-09-26T00:00:00	2024-11-08T09:00:00	4	Temperatura máxima	23.7
149755	7	Sololá	713	San Lucas Tolimán	10	San Lucas Tolimán	9	Septiembre	2023-09-26T00:00:00	2024-11-08T09:00:00	3	Temperatura mínima	21.4
149756	7	Sololá	713	San Lucas Tolimán	10	San Lucas Tolimán	9	Septiembre	2023-09-26T00:00:00	2024-11-08T09:00:00	5	Humedad	68
149757	7	Sololá	713	San Lucas Tolimán	10	San Lucas Tolimán	9	Septiembre	2023-09-26T00:00:00	2024-11-08T09:00:00	6	Velocidad del viento	3.2
149758	7	Sololá	713	San Lucas Tolimán	10	San Lucas Tolimán	9	Septiembre	2023-09-26T00:00:00	2024-11-08T09:00:00	7	Dirección del viento	3.22
149759	7	Sololá	713	San Lucas Tolimán	10	San Lucas Tolimán	9	Septiembre	2023-09-26T00:00:00	2024-11-08T09:00:00	1	Precipitación	0
149760	7	Sololá	713	San Lucas Tolimán	10	San Lucas Tolimán	9	Septiembre	2023-09-26T00:00:00	2024-11-08T09:00:00	8	Radiación solar	326
149761	7	Sololá	713	San Lucas Tolimán	10	San Lucas Tolimán	9	Septiembre	2023-09-26T00:00:00	2024-11-08T10:00:00	2	Temperatura media	24.7
149762	7	Sololá	713	San Lucas Tolimán	10	San Lucas Tolimán	9	Septiembre	2023-09-26T00:00:00	2024-11-08T10:00:00	4	Temperatura máxima	24.7
149763	7	Sololá	713	San Lucas Tolimán	10	San Lucas Tolimán	9	Septiembre	2023-09-26T00:00:00	2024-11-08T10:00:00	3	Temperatura mínima	23.6
149764	7	Sololá	713	San Lucas Tolimán	10	San Lucas Tolimán	9	Septiembre	2023-09-26T00:00:00	2024-11-08T10:00:00	5	Humedad	69
149765	7	Sololá	713	San Lucas Tolimán	10	San Lucas Tolimán	9	Septiembre	2023-09-26T00:00:00	2024-11-08T10:00:00	6	Velocidad del viento	3.2
149766	7	Sololá	713	San Lucas Tolimán	10	San Lucas Tolimán	9	Septiembre	2023-09-26T00:00:00	2024-11-08T10:00:00	7	Dirección del viento	3.22
149767	7	Sololá	713	San Lucas Tolimán	10	San Lucas Tolimán	9	Septiembre	2023-09-26T00:00:00	2024-11-08T10:00:00	1	Precipitación	0
149768	7	Sololá	713	San Lucas Tolimán	10	San Lucas Tolimán	9	Septiembre	2023-09-26T00:00:00	2024-11-08T10:00:00	8	Radiación solar	556
149769	7	Sololá	713	San Lucas Tolimán	10	San Lucas Tolimán	9	Septiembre	2023-09-26T00:00:00	2024-11-08T11:00:00	2	Temperatura media	24.3
149770	7	Sololá	713	San Lucas Tolimán	10	San Lucas Tolimán	9	Septiembre	2023-09-26T00:00:00	2024-11-08T11:00:00	4	Temperatura máxima	25
149771	7	Sololá	713	San Lucas Tolimán	10	San Lucas Tolimán	9	Septiembre	2023-09-26T00:00:00	2024-11-08T11:00:00	3	Temperatura mínima	23.9
149772	7	Sololá	713	San Lucas Tolimán	10	San Lucas Tolimán	9	Septiembre	2023-09-26T00:00:00	2024-11-08T11:00:00	5	Humedad	77
149773	7	Sololá	713	San Lucas Tolimán	10	San Lucas Tolimán	9	Septiembre	2023-09-26T00:00:00	2024-11-08T11:00:00	6	Velocidad del viento	11.3
149774	7	Sololá	713	San Lucas Tolimán	10	San Lucas Tolimán	9	Septiembre	2023-09-26T00:00:00	2024-11-08T11:00:00	7	Dirección del viento	11.27
149775	7	Sololá	713	San Lucas Tolimán	10	San Lucas Tolimán	9	Septiembre	2023-09-26T00:00:00	2024-11-08T11:00:00	1	Precipitación	0
149776	7	Sololá	713	San Lucas Tolimán	10	San Lucas Tolimán	9	Septiembre	2023-09-26T00:00:00	2024-11-08T11:00:00	8	Radiación solar	855
149777	7	Sololá	713	San Lucas Tolimán	10	San Lucas Tolimán	9	Septiembre	2023-09-26T00:00:00	2024-11-08T12:00:00	2	Temperatura media	23.7
149778	7	Sololá	713	San Lucas Tolimán	10	San Lucas Tolimán	9	Septiembre	2023-09-26T00:00:00	2024-11-08T12:00:00	4	Temperatura máxima	24.6
149779	7	Sololá	713	San Lucas Tolimán	10	San Lucas Tolimán	9	Septiembre	2023-09-26T00:00:00	2024-11-08T12:00:00	3	Temperatura mínima	23.5
149780	7	Sololá	713	San Lucas Tolimán	10	San Lucas Tolimán	9	Septiembre	2023-09-26T00:00:00	2024-11-08T12:00:00	5	Humedad	80
149781	7	Sololá	713	San Lucas Tolimán	10	San Lucas Tolimán	9	Septiembre	2023-09-26T00:00:00	2024-11-08T12:00:00	6	Velocidad del viento	12.9
149782	7	Sololá	713	San Lucas Tolimán	10	San Lucas Tolimán	9	Septiembre	2023-09-26T00:00:00	2024-11-08T12:00:00	7	Dirección del viento	12.87
149783	7	Sololá	713	San Lucas Tolimán	10	San Lucas Tolimán	9	Septiembre	2023-09-26T00:00:00	2024-11-08T12:00:00	1	Precipitación	0
149784	7	Sololá	713	San Lucas Tolimán	10	San Lucas Tolimán	9	Septiembre	2023-09-26T00:00:00	2024-11-08T12:00:00	8	Radiación solar	469
149785	7	Sololá	713	San Lucas Tolimán	10	San Lucas Tolimán	9	Septiembre	2023-09-26T00:00:00	2024-11-08T13:00:00	2	Temperatura media	23.4
149786	7	Sololá	713	San Lucas Tolimán	10	San Lucas Tolimán	9	Septiembre	2023-09-26T00:00:00	2024-11-08T13:00:00	4	Temperatura máxima	24.1
149787	7	Sololá	713	San Lucas Tolimán	10	San Lucas Tolimán	9	Septiembre	2023-09-26T00:00:00	2024-11-08T13:00:00	3	Temperatura mínima	23
149788	7	Sololá	713	San Lucas Tolimán	10	San Lucas Tolimán	9	Septiembre	2023-09-26T00:00:00	2024-11-08T13:00:00	5	Humedad	84
149789	7	Sololá	713	San Lucas Tolimán	10	San Lucas Tolimán	9	Septiembre	2023-09-26T00:00:00	2024-11-08T13:00:00	6	Velocidad del viento	14.5
149790	7	Sololá	713	San Lucas Tolimán	10	San Lucas Tolimán	9	Septiembre	2023-09-26T00:00:00	2024-11-08T13:00:00	7	Dirección del viento	14.48
149791	7	Sololá	713	San Lucas Tolimán	10	San Lucas Tolimán	9	Septiembre	2023-09-26T00:00:00	2024-11-08T13:00:00	1	Precipitación	0
149792	7	Sololá	713	San Lucas Tolimán	10	San Lucas Tolimán	9	Septiembre	2023-09-26T00:00:00	2024-11-08T13:00:00	8	Radiación solar	426
149793	7	Sololá	713	San Lucas Tolimán	10	San Lucas Tolimán	9	Septiembre	2023-09-26T00:00:00	2024-11-08T14:00:00	2	Temperatura media	21.1
149794	7	Sololá	713	San Lucas Tolimán	10	San Lucas Tolimán	9	Septiembre	2023-09-26T00:00:00	2024-11-08T14:00:00	4	Temperatura máxima	23.8
149795	7	Sololá	713	San Lucas Tolimán	10	San Lucas Tolimán	9	Septiembre	2023-09-26T00:00:00	2024-11-08T14:00:00	3	Temperatura mínima	21.1
149796	7	Sololá	713	San Lucas Tolimán	10	San Lucas Tolimán	9	Septiembre	2023-09-26T00:00:00	2024-11-08T14:00:00	5	Humedad	91
149797	7	Sololá	713	San Lucas Tolimán	10	San Lucas Tolimán	9	Septiembre	2023-09-26T00:00:00	2024-11-08T14:00:00	6	Velocidad del viento	12.9
149798	7	Sololá	713	San Lucas Tolimán	10	San Lucas Tolimán	9	Septiembre	2023-09-26T00:00:00	2024-11-08T14:00:00	7	Dirección del viento	12.87
149799	7	Sololá	713	San Lucas Tolimán	10	San Lucas Tolimán	9	Septiembre	2023-09-26T00:00:00	2024-11-08T14:00:00	1	Precipitación	0
149800	7	Sololá	713	San Lucas Tolimán	10	San Lucas Tolimán	9	Septiembre	2023-09-26T00:00:00	2024-11-08T14:00:00	8	Radiación solar	135
149801	7	Sololá	713	San Lucas Tolimán	10	San Lucas Tolimán	9	Septiembre	2023-09-26T00:00:00	2024-11-08T15:00:00	2	Temperatura media	22.9
149802	7	Sololá	713	San Lucas Tolimán	10	San Lucas Tolimán	9	Septiembre	2023-09-26T00:00:00	2024-11-08T15:00:00	4	Temperatura máxima	22.9
149803	7	Sololá	713	San Lucas Tolimán	10	San Lucas Tolimán	9	Septiembre	2023-09-26T00:00:00	2024-11-08T15:00:00	3	Temperatura mínima	20.6
149804	7	Sololá	713	San Lucas Tolimán	10	San Lucas Tolimán	9	Septiembre	2023-09-26T00:00:00	2024-11-08T15:00:00	5	Humedad	83
149805	7	Sololá	713	San Lucas Tolimán	10	San Lucas Tolimán	9	Septiembre	2023-09-26T00:00:00	2024-11-08T15:00:00	6	Velocidad del viento	9.7
149806	7	Sololá	713	San Lucas Tolimán	10	San Lucas Tolimán	9	Septiembre	2023-09-26T00:00:00	2024-11-08T15:00:00	7	Dirección del viento	9.66
149807	7	Sololá	713	San Lucas Tolimán	10	San Lucas Tolimán	9	Septiembre	2023-09-26T00:00:00	2024-11-08T15:00:00	1	Precipitación	0
149808	7	Sololá	713	San Lucas Tolimán	10	San Lucas Tolimán	9	Septiembre	2023-09-26T00:00:00	2024-11-08T15:00:00	8	Radiación solar	166
149809	7	Sololá	713	San Lucas Tolimán	10	San Lucas Tolimán	9	Septiembre	2023-09-26T00:00:00	2024-11-08T16:00:00	2	Temperatura media	20.3
149810	7	Sololá	713	San Lucas Tolimán	10	San Lucas Tolimán	9	Septiembre	2023-09-26T00:00:00	2024-11-08T16:00:00	4	Temperatura máxima	23
149811	7	Sololá	713	San Lucas Tolimán	10	San Lucas Tolimán	9	Septiembre	2023-09-26T00:00:00	2024-11-08T16:00:00	3	Temperatura mínima	20.3
149812	7	Sololá	713	San Lucas Tolimán	10	San Lucas Tolimán	9	Septiembre	2023-09-26T00:00:00	2024-11-08T16:00:00	5	Humedad	85
149813	7	Sololá	713	San Lucas Tolimán	10	San Lucas Tolimán	9	Septiembre	2023-09-26T00:00:00	2024-11-08T16:00:00	6	Velocidad del viento	9.7
149814	7	Sololá	713	San Lucas Tolimán	10	San Lucas Tolimán	9	Septiembre	2023-09-26T00:00:00	2024-11-08T16:00:00	7	Dirección del viento	9.66
149815	7	Sololá	713	San Lucas Tolimán	10	San Lucas Tolimán	9	Septiembre	2023-09-26T00:00:00	2024-11-08T16:00:00	1	Precipitación	0
149816	7	Sololá	713	San Lucas Tolimán	10	San Lucas Tolimán	9	Septiembre	2023-09-26T00:00:00	2024-11-08T16:00:00	8	Radiación solar	26
149817	7	Sololá	713	San Lucas Tolimán	10	San Lucas Tolimán	9	Septiembre	2023-09-26T00:00:00	2024-11-08T17:00:00	2	Temperatura media	18.5
149818	7	Sololá	713	San Lucas Tolimán	10	San Lucas Tolimán	9	Septiembre	2023-09-26T00:00:00	2024-11-08T17:00:00	4	Temperatura máxima	20.3
149819	7	Sololá	713	San Lucas Tolimán	10	San Lucas Tolimán	9	Septiembre	2023-09-26T00:00:00	2024-11-08T17:00:00	3	Temperatura mínima	18.5
149820	7	Sololá	713	San Lucas Tolimán	10	San Lucas Tolimán	9	Septiembre	2023-09-26T00:00:00	2024-11-08T17:00:00	5	Humedad	92
149821	7	Sololá	713	San Lucas Tolimán	10	San Lucas Tolimán	9	Septiembre	2023-09-26T00:00:00	2024-11-08T17:00:00	6	Velocidad del viento	9.7
149822	7	Sololá	713	San Lucas Tolimán	10	San Lucas Tolimán	9	Septiembre	2023-09-26T00:00:00	2024-11-08T17:00:00	7	Dirección del viento	9.66
149823	7	Sololá	713	San Lucas Tolimán	10	San Lucas Tolimán	9	Septiembre	2023-09-26T00:00:00	2024-11-08T17:00:00	1	Precipitación	2
149824	7	Sololá	713	San Lucas Tolimán	10	San Lucas Tolimán	9	Septiembre	2023-09-26T00:00:00	2024-11-08T17:00:00	8	Radiación solar	10
149825	7	Sololá	713	San Lucas Tolimán	10	San Lucas Tolimán	9	Septiembre	2023-09-26T00:00:00	2024-11-08T18:00:00	2	Temperatura media	18.3
149826	7	Sololá	713	San Lucas Tolimán	10	San Lucas Tolimán	9	Septiembre	2023-09-26T00:00:00	2024-11-08T18:00:00	4	Temperatura máxima	18.5
149827	7	Sololá	713	San Lucas Tolimán	10	San Lucas Tolimán	9	Septiembre	2023-09-26T00:00:00	2024-11-08T18:00:00	3	Temperatura mínima	18.1
149828	7	Sololá	713	San Lucas Tolimán	10	San Lucas Tolimán	9	Septiembre	2023-09-26T00:00:00	2024-11-08T18:00:00	5	Humedad	93
149829	7	Sololá	713	San Lucas Tolimán	10	San Lucas Tolimán	9	Septiembre	2023-09-26T00:00:00	2024-11-08T18:00:00	6	Velocidad del viento	3.2
149830	7	Sololá	713	San Lucas Tolimán	10	San Lucas Tolimán	9	Septiembre	2023-09-26T00:00:00	2024-11-08T18:00:00	7	Dirección del viento	3.22
149831	7	Sololá	713	San Lucas Tolimán	10	San Lucas Tolimán	9	Septiembre	2023-09-26T00:00:00	2024-11-08T18:00:00	1	Precipitación	0.8
149832	7	Sololá	713	San Lucas Tolimán	10	San Lucas Tolimán	9	Septiembre	2023-09-26T00:00:00	2024-11-08T18:00:00	8	Radiación solar	0
149833	7	Sololá	713	San Lucas Tolimán	10	San Lucas Tolimán	9	Septiembre	2023-09-26T00:00:00	2024-11-08T19:00:00	2	Temperatura media	17.9
149834	7	Sololá	713	San Lucas Tolimán	10	San Lucas Tolimán	9	Septiembre	2023-09-26T00:00:00	2024-11-08T19:00:00	4	Temperatura máxima	18.2
149835	7	Sololá	713	San Lucas Tolimán	10	San Lucas Tolimán	9	Septiembre	2023-09-26T00:00:00	2024-11-08T19:00:00	3	Temperatura mínima	17.8
149836	7	Sololá	713	San Lucas Tolimán	10	San Lucas Tolimán	9	Septiembre	2023-09-26T00:00:00	2024-11-08T19:00:00	5	Humedad	93
149837	7	Sololá	713	San Lucas Tolimán	10	San Lucas Tolimán	9	Septiembre	2023-09-26T00:00:00	2024-11-08T19:00:00	6	Velocidad del viento	3.2
149838	7	Sololá	713	San Lucas Tolimán	10	San Lucas Tolimán	9	Septiembre	2023-09-26T00:00:00	2024-11-08T19:00:00	7	Dirección del viento	3.22
149839	7	Sololá	713	San Lucas Tolimán	10	San Lucas Tolimán	9	Septiembre	2023-09-26T00:00:00	2024-11-08T19:00:00	1	Precipitación	0.8
149840	7	Sololá	713	San Lucas Tolimán	10	San Lucas Tolimán	9	Septiembre	2023-09-26T00:00:00	2024-11-08T19:00:00	8	Radiación solar	0
149841	7	Sololá	713	San Lucas Tolimán	10	San Lucas Tolimán	9	Septiembre	2023-09-26T00:00:00	2024-11-08T20:00:00	2	Temperatura media	17.9
149842	7	Sololá	713	San Lucas Tolimán	10	San Lucas Tolimán	9	Septiembre	2023-09-26T00:00:00	2024-11-08T20:00:00	4	Temperatura máxima	17.9
149843	7	Sololá	713	San Lucas Tolimán	10	San Lucas Tolimán	9	Septiembre	2023-09-26T00:00:00	2024-11-08T20:00:00	3	Temperatura mínima	17.8
149844	7	Sololá	713	San Lucas Tolimán	10	San Lucas Tolimán	9	Septiembre	2023-09-26T00:00:00	2024-11-08T20:00:00	5	Humedad	95
149845	7	Sololá	713	San Lucas Tolimán	10	San Lucas Tolimán	9	Septiembre	2023-09-26T00:00:00	2024-11-08T20:00:00	6	Velocidad del viento	1.6
149846	7	Sololá	713	San Lucas Tolimán	10	San Lucas Tolimán	9	Septiembre	2023-09-26T00:00:00	2024-11-08T20:00:00	7	Dirección del viento	1.61
149847	7	Sololá	713	San Lucas Tolimán	10	San Lucas Tolimán	9	Septiembre	2023-09-26T00:00:00	2024-11-08T20:00:00	1	Precipitación	1
149848	7	Sololá	713	San Lucas Tolimán	10	San Lucas Tolimán	9	Septiembre	2023-09-26T00:00:00	2024-11-08T20:00:00	8	Radiación solar	0
149849	7	Sololá	713	San Lucas Tolimán	10	San Lucas Tolimán	9	Septiembre	2023-09-26T00:00:00	2024-11-08T21:00:00	2	Temperatura media	18.3
149850	7	Sololá	713	San Lucas Tolimán	10	San Lucas Tolimán	9	Septiembre	2023-09-26T00:00:00	2024-11-08T21:00:00	4	Temperatura máxima	18.3
149851	7	Sololá	713	San Lucas Tolimán	10	San Lucas Tolimán	9	Septiembre	2023-09-26T00:00:00	2024-11-08T21:00:00	3	Temperatura mínima	17.8
149852	7	Sololá	713	San Lucas Tolimán	10	San Lucas Tolimán	9	Septiembre	2023-09-26T00:00:00	2024-11-08T21:00:00	5	Humedad	95
149853	7	Sololá	713	San Lucas Tolimán	10	San Lucas Tolimán	9	Septiembre	2023-09-26T00:00:00	2024-11-08T21:00:00	6	Velocidad del viento	0
149854	7	Sololá	713	San Lucas Tolimán	10	San Lucas Tolimán	9	Septiembre	2023-09-26T00:00:00	2024-11-08T21:00:00	7	Dirección del viento	0
149855	7	Sololá	713	San Lucas Tolimán	10	San Lucas Tolimán	9	Septiembre	2023-09-26T00:00:00	2024-11-08T21:00:00	1	Precipitación	0
149856	7	Sololá	713	San Lucas Tolimán	10	San Lucas Tolimán	9	Septiembre	2023-09-26T00:00:00	2024-11-08T21:00:00	8	Radiación solar	0
149857	7	Sololá	713	San Lucas Tolimán	10	San Lucas Tolimán	9	Septiembre	2023-09-26T00:00:00	2024-11-08T22:00:00	2	Temperatura media	18.3
149858	7	Sololá	713	San Lucas Tolimán	10	San Lucas Tolimán	9	Septiembre	2023-09-26T00:00:00	2024-11-08T22:00:00	4	Temperatura máxima	18.3
149859	7	Sololá	713	San Lucas Tolimán	10	San Lucas Tolimán	9	Septiembre	2023-09-26T00:00:00	2024-11-08T22:00:00	3	Temperatura mínima	18.2
149860	7	Sololá	713	San Lucas Tolimán	10	San Lucas Tolimán	9	Septiembre	2023-09-26T00:00:00	2024-11-08T22:00:00	5	Humedad	96
149861	7	Sololá	713	San Lucas Tolimán	10	San Lucas Tolimán	9	Septiembre	2023-09-26T00:00:00	2024-11-08T22:00:00	6	Velocidad del viento	0
149862	7	Sololá	713	San Lucas Tolimán	10	San Lucas Tolimán	9	Septiembre	2023-09-26T00:00:00	2024-11-08T22:00:00	7	Dirección del viento	0
149863	7	Sololá	713	San Lucas Tolimán	10	San Lucas Tolimán	9	Septiembre	2023-09-26T00:00:00	2024-11-08T22:00:00	1	Precipitación	0
149864	7	Sololá	713	San Lucas Tolimán	10	San Lucas Tolimán	9	Septiembre	2023-09-26T00:00:00	2024-11-08T22:00:00	8	Radiación solar	0
149865	7	Sololá	713	San Lucas Tolimán	10	San Lucas Tolimán	9	Septiembre	2023-09-26T00:00:00	2024-11-08T23:00:00	2	Temperatura media	18.5
149866	7	Sololá	713	San Lucas Tolimán	10	San Lucas Tolimán	9	Septiembre	2023-09-26T00:00:00	2024-11-08T23:00:00	4	Temperatura máxima	18.5
149867	7	Sololá	713	San Lucas Tolimán	10	San Lucas Tolimán	9	Septiembre	2023-09-26T00:00:00	2024-11-08T23:00:00	3	Temperatura mínima	18.3
149868	7	Sololá	713	San Lucas Tolimán	10	San Lucas Tolimán	9	Septiembre	2023-09-26T00:00:00	2024-11-08T23:00:00	5	Humedad	95
149869	7	Sololá	713	San Lucas Tolimán	10	San Lucas Tolimán	9	Septiembre	2023-09-26T00:00:00	2024-11-08T23:00:00	6	Velocidad del viento	1.6
149870	7	Sololá	713	San Lucas Tolimán	10	San Lucas Tolimán	9	Septiembre	2023-09-26T00:00:00	2024-11-08T23:00:00	7	Dirección del viento	1.61
149871	7	Sololá	713	San Lucas Tolimán	10	San Lucas Tolimán	9	Septiembre	2023-09-26T00:00:00	2024-11-08T23:00:00	1	Precipitación	0
149872	7	Sololá	713	San Lucas Tolimán	10	San Lucas Tolimán	9	Septiembre	2023-09-26T00:00:00	2024-11-08T23:00:00	8	Radiación solar	0
149873	7	Sololá	713	San Lucas Tolimán	10	San Lucas Tolimán	9	Septiembre	2023-09-27T00:00:00	2024-11-08T00:00:00	2	Temperatura media	17.7
149874	7	Sololá	713	San Lucas Tolimán	10	San Lucas Tolimán	9	Septiembre	2023-09-27T00:00:00	2024-11-08T00:00:00	4	Temperatura máxima	18.5
149875	7	Sololá	713	San Lucas Tolimán	10	San Lucas Tolimán	9	Septiembre	2023-09-27T00:00:00	2024-11-08T00:00:00	3	Temperatura mínima	17.7
149876	7	Sololá	713	San Lucas Tolimán	10	San Lucas Tolimán	9	Septiembre	2023-09-27T00:00:00	2024-11-08T00:00:00	5	Humedad	95
149877	7	Sololá	713	San Lucas Tolimán	10	San Lucas Tolimán	9	Septiembre	2023-09-27T00:00:00	2024-11-08T00:00:00	6	Velocidad del viento	3.2
149878	7	Sololá	713	San Lucas Tolimán	10	San Lucas Tolimán	9	Septiembre	2023-09-27T00:00:00	2024-11-08T00:00:00	7	Dirección del viento	3.22
149879	7	Sololá	713	San Lucas Tolimán	10	San Lucas Tolimán	9	Septiembre	2023-09-27T00:00:00	2024-11-08T00:00:00	1	Precipitación	0
149880	7	Sololá	713	San Lucas Tolimán	10	San Lucas Tolimán	9	Septiembre	2023-09-27T00:00:00	2024-11-08T00:00:00	8	Radiación solar	0
149881	7	Sololá	713	San Lucas Tolimán	10	San Lucas Tolimán	9	Septiembre	2023-09-27T00:00:00	2024-11-08T01:00:00	2	Temperatura media	17.4
149882	7	Sololá	713	San Lucas Tolimán	10	San Lucas Tolimán	9	Septiembre	2023-09-27T00:00:00	2024-11-08T01:00:00	4	Temperatura máxima	17.7
149883	7	Sololá	713	San Lucas Tolimán	10	San Lucas Tolimán	9	Septiembre	2023-09-27T00:00:00	2024-11-08T01:00:00	3	Temperatura mínima	17.4
149884	7	Sololá	713	San Lucas Tolimán	10	San Lucas Tolimán	9	Septiembre	2023-09-27T00:00:00	2024-11-08T01:00:00	5	Humedad	96
149885	7	Sololá	713	San Lucas Tolimán	10	San Lucas Tolimán	9	Septiembre	2023-09-27T00:00:00	2024-11-08T01:00:00	6	Velocidad del viento	0
149886	7	Sololá	713	San Lucas Tolimán	10	San Lucas Tolimán	9	Septiembre	2023-09-27T00:00:00	2024-11-08T01:00:00	7	Dirección del viento	0
149887	7	Sololá	713	San Lucas Tolimán	10	San Lucas Tolimán	9	Septiembre	2023-09-27T00:00:00	2024-11-08T01:00:00	1	Precipitación	0
149888	7	Sololá	713	San Lucas Tolimán	10	San Lucas Tolimán	9	Septiembre	2023-09-27T00:00:00	2024-11-08T01:00:00	8	Radiación solar	0
149889	7	Sololá	713	San Lucas Tolimán	10	San Lucas Tolimán	9	Septiembre	2023-09-27T00:00:00	2024-11-08T02:00:00	2	Temperatura media	17.3
149890	7	Sololá	713	San Lucas Tolimán	10	San Lucas Tolimán	9	Septiembre	2023-09-27T00:00:00	2024-11-08T02:00:00	4	Temperatura máxima	17.6
149891	7	Sololá	713	San Lucas Tolimán	10	San Lucas Tolimán	9	Septiembre	2023-09-27T00:00:00	2024-11-08T02:00:00	3	Temperatura mínima	17.3
149892	7	Sololá	713	San Lucas Tolimán	10	San Lucas Tolimán	9	Septiembre	2023-09-27T00:00:00	2024-11-08T02:00:00	5	Humedad	96
149893	7	Sololá	713	San Lucas Tolimán	10	San Lucas Tolimán	9	Septiembre	2023-09-27T00:00:00	2024-11-08T02:00:00	6	Velocidad del viento	0
149894	7	Sololá	713	San Lucas Tolimán	10	San Lucas Tolimán	9	Septiembre	2023-09-27T00:00:00	2024-11-08T02:00:00	7	Dirección del viento	0
149895	7	Sololá	713	San Lucas Tolimán	10	San Lucas Tolimán	9	Septiembre	2023-09-27T00:00:00	2024-11-08T02:00:00	1	Precipitación	0
149896	7	Sololá	713	San Lucas Tolimán	10	San Lucas Tolimán	9	Septiembre	2023-09-27T00:00:00	2024-11-08T02:00:00	8	Radiación solar	0
149897	7	Sololá	713	San Lucas Tolimán	10	San Lucas Tolimán	9	Septiembre	2023-09-27T00:00:00	2024-11-08T03:00:00	2	Temperatura media	16.6
149898	7	Sololá	713	San Lucas Tolimán	10	San Lucas Tolimán	9	Septiembre	2023-09-27T00:00:00	2024-11-08T03:00:00	4	Temperatura máxima	17.3
149899	7	Sololá	713	San Lucas Tolimán	10	San Lucas Tolimán	9	Septiembre	2023-09-27T00:00:00	2024-11-08T03:00:00	3	Temperatura mínima	16.6
149900	7	Sololá	713	San Lucas Tolimán	10	San Lucas Tolimán	9	Septiembre	2023-09-27T00:00:00	2024-11-08T03:00:00	5	Humedad	94
149901	7	Sololá	713	San Lucas Tolimán	10	San Lucas Tolimán	9	Septiembre	2023-09-27T00:00:00	2024-11-08T03:00:00	6	Velocidad del viento	1.6
149902	7	Sololá	713	San Lucas Tolimán	10	San Lucas Tolimán	9	Septiembre	2023-09-27T00:00:00	2024-11-08T03:00:00	7	Dirección del viento	1.61
149903	7	Sololá	713	San Lucas Tolimán	10	San Lucas Tolimán	9	Septiembre	2023-09-27T00:00:00	2024-11-08T03:00:00	1	Precipitación	0
149904	7	Sololá	713	San Lucas Tolimán	10	San Lucas Tolimán	9	Septiembre	2023-09-27T00:00:00	2024-11-08T03:00:00	8	Radiación solar	0
149905	7	Sololá	713	San Lucas Tolimán	10	San Lucas Tolimán	9	Septiembre	2023-09-27T00:00:00	2024-11-08T04:00:00	2	Temperatura media	16.6
149906	7	Sololá	713	San Lucas Tolimán	10	San Lucas Tolimán	9	Septiembre	2023-09-27T00:00:00	2024-11-08T04:00:00	4	Temperatura máxima	16.7
149907	7	Sololá	713	San Lucas Tolimán	10	San Lucas Tolimán	9	Septiembre	2023-09-27T00:00:00	2024-11-08T04:00:00	3	Temperatura mínima	16.5
149908	7	Sololá	713	San Lucas Tolimán	10	San Lucas Tolimán	9	Septiembre	2023-09-27T00:00:00	2024-11-08T04:00:00	5	Humedad	95
149909	7	Sololá	713	San Lucas Tolimán	10	San Lucas Tolimán	9	Septiembre	2023-09-27T00:00:00	2024-11-08T04:00:00	6	Velocidad del viento	1.6
149910	7	Sololá	713	San Lucas Tolimán	10	San Lucas Tolimán	9	Septiembre	2023-09-27T00:00:00	2024-11-08T04:00:00	7	Dirección del viento	1.61
149911	7	Sololá	713	San Lucas Tolimán	10	San Lucas Tolimán	9	Septiembre	2023-09-27T00:00:00	2024-11-08T04:00:00	1	Precipitación	0.2
149912	7	Sololá	713	San Lucas Tolimán	10	San Lucas Tolimán	9	Septiembre	2023-09-27T00:00:00	2024-11-08T04:00:00	8	Radiación solar	0
149913	7	Sololá	713	San Lucas Tolimán	10	San Lucas Tolimán	9	Septiembre	2023-09-27T00:00:00	2024-11-08T05:00:00	2	Temperatura media	17
149914	7	Sololá	713	San Lucas Tolimán	10	San Lucas Tolimán	9	Septiembre	2023-09-27T00:00:00	2024-11-08T05:00:00	4	Temperatura máxima	17
149915	7	Sololá	713	San Lucas Tolimán	10	San Lucas Tolimán	9	Septiembre	2023-09-27T00:00:00	2024-11-08T05:00:00	3	Temperatura mínima	16.6
149916	7	Sololá	713	San Lucas Tolimán	10	San Lucas Tolimán	9	Septiembre	2023-09-27T00:00:00	2024-11-08T05:00:00	5	Humedad	96
149917	7	Sololá	713	San Lucas Tolimán	10	San Lucas Tolimán	9	Septiembre	2023-09-27T00:00:00	2024-11-08T05:00:00	6	Velocidad del viento	0
149918	7	Sololá	713	San Lucas Tolimán	10	San Lucas Tolimán	9	Septiembre	2023-09-27T00:00:00	2024-11-08T05:00:00	7	Dirección del viento	0
149919	7	Sololá	713	San Lucas Tolimán	10	San Lucas Tolimán	9	Septiembre	2023-09-27T00:00:00	2024-11-08T05:00:00	1	Precipitación	0
149920	7	Sololá	713	San Lucas Tolimán	10	San Lucas Tolimán	9	Septiembre	2023-09-27T00:00:00	2024-11-08T05:00:00	8	Radiación solar	0
149921	7	Sololá	713	San Lucas Tolimán	10	San Lucas Tolimán	9	Septiembre	2023-09-27T00:00:00	2024-11-08T06:00:00	2	Temperatura media	16.6
149922	7	Sololá	713	San Lucas Tolimán	10	San Lucas Tolimán	9	Septiembre	2023-09-27T00:00:00	2024-11-08T06:00:00	4	Temperatura máxima	17.1
149923	7	Sololá	713	San Lucas Tolimán	10	San Lucas Tolimán	9	Septiembre	2023-09-27T00:00:00	2024-11-08T06:00:00	3	Temperatura mínima	16.6
149924	7	Sololá	713	San Lucas Tolimán	10	San Lucas Tolimán	9	Septiembre	2023-09-27T00:00:00	2024-11-08T06:00:00	5	Humedad	96
149925	7	Sololá	713	San Lucas Tolimán	10	San Lucas Tolimán	9	Septiembre	2023-09-27T00:00:00	2024-11-08T06:00:00	6	Velocidad del viento	0
149926	7	Sololá	713	San Lucas Tolimán	10	San Lucas Tolimán	9	Septiembre	2023-09-27T00:00:00	2024-11-08T06:00:00	7	Dirección del viento	0
149927	7	Sololá	713	San Lucas Tolimán	10	San Lucas Tolimán	9	Septiembre	2023-09-27T00:00:00	2024-11-08T06:00:00	1	Precipitación	0
149928	7	Sololá	713	San Lucas Tolimán	10	San Lucas Tolimán	9	Septiembre	2023-09-27T00:00:00	2024-11-08T06:00:00	8	Radiación solar	0
149929	7	Sololá	713	San Lucas Tolimán	10	San Lucas Tolimán	9	Septiembre	2023-09-27T00:00:00	2024-11-08T07:00:00	2	Temperatura media	17.4
149930	7	Sololá	713	San Lucas Tolimán	10	San Lucas Tolimán	9	Septiembre	2023-09-27T00:00:00	2024-11-08T07:00:00	4	Temperatura máxima	17.4
149931	7	Sololá	713	San Lucas Tolimán	10	San Lucas Tolimán	9	Septiembre	2023-09-27T00:00:00	2024-11-08T07:00:00	3	Temperatura mínima	16.5
149932	7	Sololá	713	San Lucas Tolimán	10	San Lucas Tolimán	9	Septiembre	2023-09-27T00:00:00	2024-11-08T07:00:00	5	Humedad	64
149933	7	Sololá	713	San Lucas Tolimán	10	San Lucas Tolimán	9	Septiembre	2023-09-27T00:00:00	2024-11-08T07:00:00	6	Velocidad del viento	1.6
149934	7	Sololá	713	San Lucas Tolimán	10	San Lucas Tolimán	9	Septiembre	2023-09-27T00:00:00	2024-11-08T07:00:00	7	Dirección del viento	1.61
149935	7	Sololá	713	San Lucas Tolimán	10	San Lucas Tolimán	9	Septiembre	2023-09-27T00:00:00	2024-11-08T07:00:00	1	Precipitación	0
149936	7	Sololá	713	San Lucas Tolimán	10	San Lucas Tolimán	9	Septiembre	2023-09-27T00:00:00	2024-11-08T07:00:00	8	Radiación solar	44
149937	7	Sololá	713	San Lucas Tolimán	10	San Lucas Tolimán	9	Septiembre	2023-09-27T00:00:00	2024-11-08T08:00:00	2	Temperatura media	20.1
149938	7	Sololá	713	San Lucas Tolimán	10	San Lucas Tolimán	9	Septiembre	2023-09-27T00:00:00	2024-11-08T08:00:00	4	Temperatura máxima	20.2
149939	7	Sololá	713	San Lucas Tolimán	10	San Lucas Tolimán	9	Septiembre	2023-09-27T00:00:00	2024-11-08T08:00:00	3	Temperatura mínima	17.4
149940	7	Sololá	713	San Lucas Tolimán	10	San Lucas Tolimán	9	Septiembre	2023-09-27T00:00:00	2024-11-08T08:00:00	5	Humedad	61
149941	7	Sololá	713	San Lucas Tolimán	10	San Lucas Tolimán	9	Septiembre	2023-09-27T00:00:00	2024-11-08T08:00:00	6	Velocidad del viento	3.2
149942	7	Sololá	713	San Lucas Tolimán	10	San Lucas Tolimán	9	Septiembre	2023-09-27T00:00:00	2024-11-08T08:00:00	7	Dirección del viento	3.22
149943	7	Sololá	713	San Lucas Tolimán	10	San Lucas Tolimán	9	Septiembre	2023-09-27T00:00:00	2024-11-08T08:00:00	1	Precipitación	0
149944	7	Sololá	713	San Lucas Tolimán	10	San Lucas Tolimán	9	Septiembre	2023-09-27T00:00:00	2024-11-08T08:00:00	8	Radiación solar	252
149945	7	Sololá	713	San Lucas Tolimán	10	San Lucas Tolimán	9	Septiembre	2023-09-27T00:00:00	2024-11-08T09:00:00	2	Temperatura media	21.3
149946	7	Sololá	713	San Lucas Tolimán	10	San Lucas Tolimán	9	Septiembre	2023-09-27T00:00:00	2024-11-08T09:00:00	4	Temperatura máxima	21.3
149947	7	Sololá	713	San Lucas Tolimán	10	San Lucas Tolimán	9	Septiembre	2023-09-27T00:00:00	2024-11-08T09:00:00	3	Temperatura mínima	20.1
149948	7	Sololá	713	San Lucas Tolimán	10	San Lucas Tolimán	9	Septiembre	2023-09-27T00:00:00	2024-11-08T09:00:00	5	Humedad	57
149949	7	Sololá	713	San Lucas Tolimán	10	San Lucas Tolimán	9	Septiembre	2023-09-27T00:00:00	2024-11-08T09:00:00	6	Velocidad del viento	6.4
149950	7	Sololá	713	San Lucas Tolimán	10	San Lucas Tolimán	9	Septiembre	2023-09-27T00:00:00	2024-11-08T09:00:00	7	Dirección del viento	6.44
149951	7	Sololá	713	San Lucas Tolimán	10	San Lucas Tolimán	9	Septiembre	2023-09-27T00:00:00	2024-11-08T09:00:00	1	Precipitación	0
149952	7	Sololá	713	San Lucas Tolimán	10	San Lucas Tolimán	9	Septiembre	2023-09-27T00:00:00	2024-11-08T09:00:00	8	Radiación solar	543
149953	7	Sololá	713	San Lucas Tolimán	10	San Lucas Tolimán	9	Septiembre	2023-09-27T00:00:00	2024-11-08T10:00:00	2	Temperatura media	22.9
149954	7	Sololá	713	San Lucas Tolimán	10	San Lucas Tolimán	9	Septiembre	2023-09-27T00:00:00	2024-11-08T10:00:00	4	Temperatura máxima	22.9
149955	7	Sololá	713	San Lucas Tolimán	10	San Lucas Tolimán	9	Septiembre	2023-09-27T00:00:00	2024-11-08T10:00:00	3	Temperatura mínima	21.2
149956	7	Sololá	713	San Lucas Tolimán	10	San Lucas Tolimán	9	Septiembre	2023-09-27T00:00:00	2024-11-08T10:00:00	5	Humedad	51
149957	7	Sololá	713	San Lucas Tolimán	10	San Lucas Tolimán	9	Septiembre	2023-09-27T00:00:00	2024-11-08T10:00:00	6	Velocidad del viento	4.8
149958	7	Sololá	713	San Lucas Tolimán	10	San Lucas Tolimán	9	Septiembre	2023-09-27T00:00:00	2024-11-08T10:00:00	7	Dirección del viento	4.83
149959	7	Sololá	713	San Lucas Tolimán	10	San Lucas Tolimán	9	Septiembre	2023-09-27T00:00:00	2024-11-08T10:00:00	1	Precipitación	0
149960	7	Sololá	713	San Lucas Tolimán	10	San Lucas Tolimán	9	Septiembre	2023-09-27T00:00:00	2024-11-08T10:00:00	8	Radiación solar	582
149961	7	Sololá	713	San Lucas Tolimán	10	San Lucas Tolimán	9	Septiembre	2023-09-27T00:00:00	2024-11-08T11:00:00	2	Temperatura media	24.7
149962	7	Sololá	713	San Lucas Tolimán	10	San Lucas Tolimán	9	Septiembre	2023-09-27T00:00:00	2024-11-08T11:00:00	4	Temperatura máxima	24.9
149963	7	Sololá	713	San Lucas Tolimán	10	San Lucas Tolimán	9	Septiembre	2023-09-27T00:00:00	2024-11-08T11:00:00	3	Temperatura mínima	22.9
149964	7	Sololá	713	San Lucas Tolimán	10	San Lucas Tolimán	9	Septiembre	2023-09-27T00:00:00	2024-11-08T11:00:00	5	Humedad	56
149965	7	Sololá	713	San Lucas Tolimán	10	San Lucas Tolimán	9	Septiembre	2023-09-27T00:00:00	2024-11-08T11:00:00	6	Velocidad del viento	4.8
149966	7	Sololá	713	San Lucas Tolimán	10	San Lucas Tolimán	9	Septiembre	2023-09-27T00:00:00	2024-11-08T11:00:00	7	Dirección del viento	4.83
149967	7	Sololá	713	San Lucas Tolimán	10	San Lucas Tolimán	9	Septiembre	2023-09-27T00:00:00	2024-11-08T11:00:00	1	Precipitación	0
149968	7	Sololá	713	San Lucas Tolimán	10	San Lucas Tolimán	9	Septiembre	2023-09-27T00:00:00	2024-11-08T11:00:00	8	Radiación solar	957
149969	7	Sololá	713	San Lucas Tolimán	10	San Lucas Tolimán	9	Septiembre	2023-09-27T00:00:00	2024-11-08T12:00:00	2	Temperatura media	24.2
149970	7	Sololá	713	San Lucas Tolimán	10	San Lucas Tolimán	9	Septiembre	2023-09-27T00:00:00	2024-11-08T12:00:00	4	Temperatura máxima	24.9
149971	7	Sololá	713	San Lucas Tolimán	10	San Lucas Tolimán	9	Septiembre	2023-09-27T00:00:00	2024-11-08T12:00:00	3	Temperatura mínima	24.1
149972	7	Sololá	713	San Lucas Tolimán	10	San Lucas Tolimán	9	Septiembre	2023-09-27T00:00:00	2024-11-08T12:00:00	5	Humedad	59
149973	7	Sololá	713	San Lucas Tolimán	10	San Lucas Tolimán	9	Septiembre	2023-09-27T00:00:00	2024-11-08T12:00:00	6	Velocidad del viento	9.7
149974	7	Sololá	713	San Lucas Tolimán	10	San Lucas Tolimán	9	Septiembre	2023-09-27T00:00:00	2024-11-08T12:00:00	7	Dirección del viento	9.66
149975	7	Sololá	713	San Lucas Tolimán	10	San Lucas Tolimán	9	Septiembre	2023-09-27T00:00:00	2024-11-08T12:00:00	1	Precipitación	0
149976	7	Sololá	713	San Lucas Tolimán	10	San Lucas Tolimán	9	Septiembre	2023-09-27T00:00:00	2024-11-08T12:00:00	8	Radiación solar	1057
149977	7	Sololá	713	San Lucas Tolimán	10	San Lucas Tolimán	9	Septiembre	2023-09-27T00:00:00	2024-11-08T13:00:00	2	Temperatura media	22.4
149978	7	Sololá	713	San Lucas Tolimán	10	San Lucas Tolimán	9	Septiembre	2023-09-27T00:00:00	2024-11-08T13:00:00	4	Temperatura máxima	24.5
149979	7	Sololá	713	San Lucas Tolimán	10	San Lucas Tolimán	9	Septiembre	2023-09-27T00:00:00	2024-11-08T13:00:00	3	Temperatura mínima	22.4
149980	7	Sololá	713	San Lucas Tolimán	10	San Lucas Tolimán	9	Septiembre	2023-09-27T00:00:00	2024-11-08T13:00:00	5	Humedad	61
149981	7	Sololá	713	San Lucas Tolimán	10	San Lucas Tolimán	9	Septiembre	2023-09-27T00:00:00	2024-11-08T13:00:00	6	Velocidad del viento	11.3
149982	7	Sololá	713	San Lucas Tolimán	10	San Lucas Tolimán	9	Septiembre	2023-09-27T00:00:00	2024-11-08T13:00:00	7	Dirección del viento	11.27
149983	7	Sololá	713	San Lucas Tolimán	10	San Lucas Tolimán	9	Septiembre	2023-09-27T00:00:00	2024-11-08T13:00:00	1	Precipitación	0
149984	7	Sololá	713	San Lucas Tolimán	10	San Lucas Tolimán	9	Septiembre	2023-09-27T00:00:00	2024-11-08T13:00:00	8	Radiación solar	890
149985	7	Sololá	713	San Lucas Tolimán	10	San Lucas Tolimán	9	Septiembre	2023-09-27T00:00:00	2024-11-08T14:00:00	2	Temperatura media	20.3
149986	7	Sololá	713	San Lucas Tolimán	10	San Lucas Tolimán	9	Septiembre	2023-09-27T00:00:00	2024-11-08T14:00:00	4	Temperatura máxima	22.7
149987	7	Sololá	713	San Lucas Tolimán	10	San Lucas Tolimán	9	Septiembre	2023-09-27T00:00:00	2024-11-08T14:00:00	3	Temperatura mínima	20.2
149988	7	Sololá	713	San Lucas Tolimán	10	San Lucas Tolimán	9	Septiembre	2023-09-27T00:00:00	2024-11-08T14:00:00	5	Humedad	61
149989	7	Sololá	713	San Lucas Tolimán	10	San Lucas Tolimán	9	Septiembre	2023-09-27T00:00:00	2024-11-08T14:00:00	6	Velocidad del viento	9.7
149990	7	Sololá	713	San Lucas Tolimán	10	San Lucas Tolimán	9	Septiembre	2023-09-27T00:00:00	2024-11-08T14:00:00	7	Dirección del viento	9.66
149991	7	Sololá	713	San Lucas Tolimán	10	San Lucas Tolimán	9	Septiembre	2023-09-27T00:00:00	2024-11-08T14:00:00	1	Precipitación	7.2
149992	7	Sololá	713	San Lucas Tolimán	10	San Lucas Tolimán	9	Septiembre	2023-09-27T00:00:00	2024-11-08T14:00:00	8	Radiación solar	284
149993	7	Sololá	713	San Lucas Tolimán	10	San Lucas Tolimán	9	Septiembre	2023-09-27T00:00:00	2024-11-08T15:00:00	2	Temperatura media	19
149994	7	Sololá	713	San Lucas Tolimán	10	San Lucas Tolimán	9	Septiembre	2023-09-27T00:00:00	2024-11-08T15:00:00	4	Temperatura máxima	20.2
149995	7	Sololá	713	San Lucas Tolimán	10	San Lucas Tolimán	9	Septiembre	2023-09-27T00:00:00	2024-11-08T15:00:00	3	Temperatura mínima	18.6
149996	7	Sololá	713	San Lucas Tolimán	10	San Lucas Tolimán	9	Septiembre	2023-09-27T00:00:00	2024-11-08T15:00:00	5	Humedad	66
149997	7	Sololá	713	San Lucas Tolimán	10	San Lucas Tolimán	9	Septiembre	2023-09-27T00:00:00	2024-11-08T15:00:00	6	Velocidad del viento	8
149998	7	Sololá	713	San Lucas Tolimán	10	San Lucas Tolimán	9	Septiembre	2023-09-27T00:00:00	2024-11-08T15:00:00	7	Dirección del viento	8.05
149999	7	Sololá	713	San Lucas Tolimán	10	San Lucas Tolimán	9	Septiembre	2023-09-27T00:00:00	2024-11-08T15:00:00	1	Precipitación	20.4
150000	7	Sololá	713	San Lucas Tolimán	10	San Lucas Tolimán	9	Septiembre	2023-09-27T00:00:00	2024-11-08T15:00:00	8	Radiación solar	28
150001	7	Sololá	713	San Lucas Tolimán	10	San Lucas Tolimán	9	Septiembre	2023-09-27T00:00:00	2024-11-08T16:00:00	2	Temperatura media	19.3
150002	7	Sololá	713	San Lucas Tolimán	10	San Lucas Tolimán	9	Septiembre	2023-09-27T00:00:00	2024-11-08T16:00:00	4	Temperatura máxima	19.3
150003	7	Sololá	713	San Lucas Tolimán	10	San Lucas Tolimán	9	Septiembre	2023-09-27T00:00:00	2024-11-08T16:00:00	3	Temperatura mínima	19
150004	7	Sololá	713	San Lucas Tolimán	10	San Lucas Tolimán	9	Septiembre	2023-09-27T00:00:00	2024-11-08T16:00:00	5	Humedad	94
150005	7	Sololá	713	San Lucas Tolimán	10	San Lucas Tolimán	9	Septiembre	2023-09-27T00:00:00	2024-11-08T16:00:00	6	Velocidad del viento	3.2
150006	7	Sololá	713	San Lucas Tolimán	10	San Lucas Tolimán	9	Septiembre	2023-09-27T00:00:00	2024-11-08T16:00:00	7	Dirección del viento	3.22
150007	7	Sololá	713	San Lucas Tolimán	10	San Lucas Tolimán	9	Septiembre	2023-09-27T00:00:00	2024-11-08T16:00:00	1	Precipitación	12.6
150008	7	Sololá	713	San Lucas Tolimán	10	San Lucas Tolimán	9	Septiembre	2023-09-27T00:00:00	2024-11-08T16:00:00	8	Radiación solar	415
150009	7	Sololá	713	San Lucas Tolimán	10	San Lucas Tolimán	9	Septiembre	2023-09-27T00:00:00	2024-11-08T17:00:00	2	Temperatura media	19.3
150010	7	Sololá	713	San Lucas Tolimán	10	San Lucas Tolimán	9	Septiembre	2023-09-27T00:00:00	2024-11-08T17:00:00	4	Temperatura máxima	19.5
150011	7	Sololá	713	San Lucas Tolimán	10	San Lucas Tolimán	9	Septiembre	2023-09-27T00:00:00	2024-11-08T17:00:00	3	Temperatura mínima	19.3
150012	7	Sololá	713	San Lucas Tolimán	10	San Lucas Tolimán	9	Septiembre	2023-09-27T00:00:00	2024-11-08T17:00:00	5	Humedad	94
150013	7	Sololá	713	San Lucas Tolimán	10	San Lucas Tolimán	9	Septiembre	2023-09-27T00:00:00	2024-11-08T17:00:00	6	Velocidad del viento	1.6
150014	7	Sololá	713	San Lucas Tolimán	10	San Lucas Tolimán	9	Septiembre	2023-09-27T00:00:00	2024-11-08T17:00:00	7	Dirección del viento	1.61
150015	7	Sololá	713	San Lucas Tolimán	10	San Lucas Tolimán	9	Septiembre	2023-09-27T00:00:00	2024-11-08T17:00:00	1	Precipitación	0
150016	7	Sololá	713	San Lucas Tolimán	10	San Lucas Tolimán	9	Septiembre	2023-09-27T00:00:00	2024-11-08T17:00:00	8	Radiación solar	194
150017	7	Sololá	713	San Lucas Tolimán	10	San Lucas Tolimán	9	Septiembre	2023-09-27T00:00:00	2024-11-08T18:00:00	2	Temperatura media	19
150018	7	Sololá	713	San Lucas Tolimán	10	San Lucas Tolimán	9	Septiembre	2023-09-27T00:00:00	2024-11-08T18:00:00	4	Temperatura máxima	19.3
150019	7	Sololá	713	San Lucas Tolimán	10	San Lucas Tolimán	9	Septiembre	2023-09-27T00:00:00	2024-11-08T18:00:00	3	Temperatura mínima	18.9
150020	7	Sololá	713	San Lucas Tolimán	10	San Lucas Tolimán	9	Septiembre	2023-09-27T00:00:00	2024-11-08T18:00:00	5	Humedad	94
150021	7	Sololá	713	San Lucas Tolimán	10	San Lucas Tolimán	9	Septiembre	2023-09-27T00:00:00	2024-11-08T18:00:00	6	Velocidad del viento	1.6
150022	7	Sololá	713	San Lucas Tolimán	10	San Lucas Tolimán	9	Septiembre	2023-09-27T00:00:00	2024-11-08T18:00:00	7	Dirección del viento	1.61
150023	7	Sololá	713	San Lucas Tolimán	10	San Lucas Tolimán	9	Septiembre	2023-09-27T00:00:00	2024-11-08T18:00:00	1	Precipitación	0
150024	7	Sololá	713	San Lucas Tolimán	10	San Lucas Tolimán	9	Septiembre	2023-09-27T00:00:00	2024-11-08T18:00:00	8	Radiación solar	22
150025	7	Sololá	713	San Lucas Tolimán	10	San Lucas Tolimán	9	Septiembre	2023-09-27T00:00:00	2024-11-08T19:00:00	2	Temperatura media	18.8
150026	7	Sololá	713	San Lucas Tolimán	10	San Lucas Tolimán	9	Septiembre	2023-09-27T00:00:00	2024-11-08T19:00:00	4	Temperatura máxima	19
150027	7	Sololá	713	San Lucas Tolimán	10	San Lucas Tolimán	9	Septiembre	2023-09-27T00:00:00	2024-11-08T19:00:00	3	Temperatura mínima	18.8
150028	7	Sololá	713	San Lucas Tolimán	10	San Lucas Tolimán	9	Septiembre	2023-09-27T00:00:00	2024-11-08T19:00:00	5	Humedad	96
150029	7	Sololá	713	San Lucas Tolimán	10	San Lucas Tolimán	9	Septiembre	2023-09-27T00:00:00	2024-11-08T19:00:00	6	Velocidad del viento	6.4
150030	7	Sololá	713	San Lucas Tolimán	10	San Lucas Tolimán	9	Septiembre	2023-09-27T00:00:00	2024-11-08T19:00:00	7	Dirección del viento	6.44
150031	7	Sololá	713	San Lucas Tolimán	10	San Lucas Tolimán	9	Septiembre	2023-09-27T00:00:00	2024-11-08T19:00:00	1	Precipitación	7.2
150032	7	Sololá	713	San Lucas Tolimán	10	San Lucas Tolimán	9	Septiembre	2023-09-27T00:00:00	2024-11-08T19:00:00	8	Radiación solar	0
150033	7	Sololá	713	San Lucas Tolimán	10	San Lucas Tolimán	9	Septiembre	2023-09-27T00:00:00	2024-11-08T20:00:00	2	Temperatura media	18.6
150034	7	Sololá	713	San Lucas Tolimán	10	San Lucas Tolimán	9	Septiembre	2023-09-27T00:00:00	2024-11-08T20:00:00	4	Temperatura máxima	18.8
150035	7	Sololá	713	San Lucas Tolimán	10	San Lucas Tolimán	9	Septiembre	2023-09-27T00:00:00	2024-11-08T20:00:00	3	Temperatura mínima	18.5
150036	7	Sololá	713	San Lucas Tolimán	10	San Lucas Tolimán	9	Septiembre	2023-09-27T00:00:00	2024-11-08T20:00:00	5	Humedad	96
150037	7	Sololá	713	San Lucas Tolimán	10	San Lucas Tolimán	9	Septiembre	2023-09-27T00:00:00	2024-11-08T20:00:00	6	Velocidad del viento	1.6
150038	7	Sololá	713	San Lucas Tolimán	10	San Lucas Tolimán	9	Septiembre	2023-09-27T00:00:00	2024-11-08T20:00:00	7	Dirección del viento	1.61
150039	7	Sololá	713	San Lucas Tolimán	10	San Lucas Tolimán	9	Septiembre	2023-09-27T00:00:00	2024-11-08T20:00:00	1	Precipitación	0.6
150040	7	Sololá	713	San Lucas Tolimán	10	San Lucas Tolimán	9	Septiembre	2023-09-27T00:00:00	2024-11-08T20:00:00	8	Radiación solar	0
150041	7	Sololá	713	San Lucas Tolimán	10	San Lucas Tolimán	9	Septiembre	2023-09-27T00:00:00	2024-11-08T21:00:00	2	Temperatura media	18.1
150042	7	Sololá	713	San Lucas Tolimán	10	San Lucas Tolimán	9	Septiembre	2023-09-27T00:00:00	2024-11-08T21:00:00	4	Temperatura máxima	18.6
150043	7	Sololá	713	San Lucas Tolimán	10	San Lucas Tolimán	9	Septiembre	2023-09-27T00:00:00	2024-11-08T21:00:00	3	Temperatura mínima	18.1
150044	7	Sololá	713	San Lucas Tolimán	10	San Lucas Tolimán	9	Septiembre	2023-09-27T00:00:00	2024-11-08T21:00:00	5	Humedad	96
150045	7	Sololá	713	San Lucas Tolimán	10	San Lucas Tolimán	9	Septiembre	2023-09-27T00:00:00	2024-11-08T21:00:00	6	Velocidad del viento	1.6
150046	7	Sololá	713	San Lucas Tolimán	10	San Lucas Tolimán	9	Septiembre	2023-09-27T00:00:00	2024-11-08T21:00:00	7	Dirección del viento	1.61
150047	7	Sololá	713	San Lucas Tolimán	10	San Lucas Tolimán	9	Septiembre	2023-09-27T00:00:00	2024-11-08T21:00:00	1	Precipitación	0.8
150048	7	Sololá	713	San Lucas Tolimán	10	San Lucas Tolimán	9	Septiembre	2023-09-27T00:00:00	2024-11-08T21:00:00	8	Radiación solar	0
150049	7	Sololá	713	San Lucas Tolimán	10	San Lucas Tolimán	9	Septiembre	2023-09-27T00:00:00	2024-11-08T22:00:00	2	Temperatura media	17.8
150050	7	Sololá	713	San Lucas Tolimán	10	San Lucas Tolimán	9	Septiembre	2023-09-27T00:00:00	2024-11-08T22:00:00	4	Temperatura máxima	18.2
150051	7	Sololá	713	San Lucas Tolimán	10	San Lucas Tolimán	9	Septiembre	2023-09-27T00:00:00	2024-11-08T22:00:00	3	Temperatura mínima	17.8
150052	7	Sololá	713	San Lucas Tolimán	10	San Lucas Tolimán	9	Septiembre	2023-09-27T00:00:00	2024-11-08T22:00:00	5	Humedad	96
150053	7	Sololá	713	San Lucas Tolimán	10	San Lucas Tolimán	9	Septiembre	2023-09-27T00:00:00	2024-11-08T22:00:00	6	Velocidad del viento	1.6
150054	7	Sololá	713	San Lucas Tolimán	10	San Lucas Tolimán	9	Septiembre	2023-09-27T00:00:00	2024-11-08T22:00:00	7	Dirección del viento	1.61
150055	7	Sololá	713	San Lucas Tolimán	10	San Lucas Tolimán	9	Septiembre	2023-09-27T00:00:00	2024-11-08T22:00:00	1	Precipitación	0.6
150056	7	Sololá	713	San Lucas Tolimán	10	San Lucas Tolimán	9	Septiembre	2023-09-27T00:00:00	2024-11-08T22:00:00	8	Radiación solar	0
150057	7	Sololá	713	San Lucas Tolimán	10	San Lucas Tolimán	9	Septiembre	2023-09-27T00:00:00	2024-11-08T23:00:00	2	Temperatura media	17.8
150058	7	Sololá	713	San Lucas Tolimán	10	San Lucas Tolimán	9	Septiembre	2023-09-27T00:00:00	2024-11-08T23:00:00	4	Temperatura máxima	17.8
150059	7	Sololá	713	San Lucas Tolimán	10	San Lucas Tolimán	9	Septiembre	2023-09-27T00:00:00	2024-11-08T23:00:00	3	Temperatura mínima	17.7
150060	7	Sololá	713	San Lucas Tolimán	10	San Lucas Tolimán	9	Septiembre	2023-09-27T00:00:00	2024-11-08T23:00:00	5	Humedad	96
150061	7	Sololá	713	San Lucas Tolimán	10	San Lucas Tolimán	9	Septiembre	2023-09-27T00:00:00	2024-11-08T23:00:00	6	Velocidad del viento	0
150062	7	Sololá	713	San Lucas Tolimán	10	San Lucas Tolimán	9	Septiembre	2023-09-27T00:00:00	2024-11-08T23:00:00	7	Dirección del viento	0
150063	7	Sololá	713	San Lucas Tolimán	10	San Lucas Tolimán	9	Septiembre	2023-09-27T00:00:00	2024-11-08T23:00:00	1	Precipitación	1.2
150064	7	Sololá	713	San Lucas Tolimán	10	San Lucas Tolimán	9	Septiembre	2023-09-27T00:00:00	2024-11-08T23:00:00	8	Radiación solar	0
150065	7	Sololá	713	San Lucas Tolimán	10	San Lucas Tolimán	9	Septiembre	2023-09-28T00:00:00	2024-11-08T00:00:00	2	Temperatura media	17.7
150066	7	Sololá	713	San Lucas Tolimán	10	San Lucas Tolimán	9	Septiembre	2023-09-28T00:00:00	2024-11-08T00:00:00	4	Temperatura máxima	17.8
150067	7	Sololá	713	San Lucas Tolimán	10	San Lucas Tolimán	9	Septiembre	2023-09-28T00:00:00	2024-11-08T00:00:00	3	Temperatura mínima	17.6
150068	7	Sololá	713	San Lucas Tolimán	10	San Lucas Tolimán	9	Septiembre	2023-09-28T00:00:00	2024-11-08T00:00:00	5	Humedad	96
150069	7	Sololá	713	San Lucas Tolimán	10	San Lucas Tolimán	9	Septiembre	2023-09-28T00:00:00	2024-11-08T00:00:00	6	Velocidad del viento	0
150070	7	Sololá	713	San Lucas Tolimán	10	San Lucas Tolimán	9	Septiembre	2023-09-28T00:00:00	2024-11-08T00:00:00	7	Dirección del viento	0
150071	7	Sololá	713	San Lucas Tolimán	10	San Lucas Tolimán	9	Septiembre	2023-09-28T00:00:00	2024-11-08T00:00:00	1	Precipitación	0.2
150072	7	Sololá	713	San Lucas Tolimán	10	San Lucas Tolimán	9	Septiembre	2023-09-28T00:00:00	2024-11-08T00:00:00	8	Radiación solar	0
150073	7	Sololá	713	San Lucas Tolimán	10	San Lucas Tolimán	9	Septiembre	2023-09-28T00:00:00	2024-11-08T01:00:00	2	Temperatura media	17.4
150074	7	Sololá	713	San Lucas Tolimán	10	San Lucas Tolimán	9	Septiembre	2023-09-28T00:00:00	2024-11-08T01:00:00	4	Temperatura máxima	17.8
150075	7	Sololá	713	San Lucas Tolimán	10	San Lucas Tolimán	9	Septiembre	2023-09-28T00:00:00	2024-11-08T01:00:00	3	Temperatura mínima	17.4
150076	7	Sololá	713	San Lucas Tolimán	10	San Lucas Tolimán	9	Septiembre	2023-09-28T00:00:00	2024-11-08T01:00:00	5	Humedad	96
150077	7	Sololá	713	San Lucas Tolimán	10	San Lucas Tolimán	9	Septiembre	2023-09-28T00:00:00	2024-11-08T01:00:00	6	Velocidad del viento	1.6
150078	7	Sololá	713	San Lucas Tolimán	10	San Lucas Tolimán	9	Septiembre	2023-09-28T00:00:00	2024-11-08T01:00:00	7	Dirección del viento	1.61
150079	7	Sololá	713	San Lucas Tolimán	10	San Lucas Tolimán	9	Septiembre	2023-09-28T00:00:00	2024-11-08T01:00:00	1	Precipitación	0
150080	7	Sololá	713	San Lucas Tolimán	10	San Lucas Tolimán	9	Septiembre	2023-09-28T00:00:00	2024-11-08T01:00:00	8	Radiación solar	0
150081	7	Sololá	713	San Lucas Tolimán	10	San Lucas Tolimán	9	Septiembre	2023-09-28T00:00:00	2024-11-08T02:00:00	2	Temperatura media	17.3
150082	7	Sololá	713	San Lucas Tolimán	10	San Lucas Tolimán	9	Septiembre	2023-09-28T00:00:00	2024-11-08T02:00:00	4	Temperatura máxima	17.5
150083	7	Sololá	713	San Lucas Tolimán	10	San Lucas Tolimán	9	Septiembre	2023-09-28T00:00:00	2024-11-08T02:00:00	3	Temperatura mínima	17.3
150084	7	Sololá	713	San Lucas Tolimán	10	San Lucas Tolimán	9	Septiembre	2023-09-28T00:00:00	2024-11-08T02:00:00	5	Humedad	96
150085	7	Sololá	713	San Lucas Tolimán	10	San Lucas Tolimán	9	Septiembre	2023-09-28T00:00:00	2024-11-08T02:00:00	6	Velocidad del viento	0
150086	7	Sololá	713	San Lucas Tolimán	10	San Lucas Tolimán	9	Septiembre	2023-09-28T00:00:00	2024-11-08T02:00:00	7	Dirección del viento	0
150087	7	Sololá	713	San Lucas Tolimán	10	San Lucas Tolimán	9	Septiembre	2023-09-28T00:00:00	2024-11-08T02:00:00	1	Precipitación	0
150088	7	Sololá	713	San Lucas Tolimán	10	San Lucas Tolimán	9	Septiembre	2023-09-28T00:00:00	2024-11-08T02:00:00	8	Radiación solar	0
150089	7	Sololá	713	San Lucas Tolimán	10	San Lucas Tolimán	9	Septiembre	2023-09-28T00:00:00	2024-11-08T03:00:00	2	Temperatura media	17.3
150090	7	Sololá	713	San Lucas Tolimán	10	San Lucas Tolimán	9	Septiembre	2023-09-28T00:00:00	2024-11-08T03:00:00	4	Temperatura máxima	17.4
150091	7	Sololá	713	San Lucas Tolimán	10	San Lucas Tolimán	9	Septiembre	2023-09-28T00:00:00	2024-11-08T03:00:00	3	Temperatura mínima	17.3
150092	7	Sololá	713	San Lucas Tolimán	10	San Lucas Tolimán	9	Septiembre	2023-09-28T00:00:00	2024-11-08T03:00:00	5	Humedad	96
150093	7	Sololá	713	San Lucas Tolimán	10	San Lucas Tolimán	9	Septiembre	2023-09-28T00:00:00	2024-11-08T03:00:00	6	Velocidad del viento	0
150094	7	Sololá	713	San Lucas Tolimán	10	San Lucas Tolimán	9	Septiembre	2023-09-28T00:00:00	2024-11-08T03:00:00	7	Dirección del viento	0
150095	7	Sololá	713	San Lucas Tolimán	10	San Lucas Tolimán	9	Septiembre	2023-09-28T00:00:00	2024-11-08T03:00:00	1	Precipitación	0
150096	7	Sololá	713	San Lucas Tolimán	10	San Lucas Tolimán	9	Septiembre	2023-09-28T00:00:00	2024-11-08T03:00:00	8	Radiación solar	0
150097	7	Sololá	713	San Lucas Tolimán	10	San Lucas Tolimán	9	Septiembre	2023-09-28T00:00:00	2024-11-08T04:00:00	2	Temperatura media	17.7
150098	7	Sololá	713	San Lucas Tolimán	10	San Lucas Tolimán	9	Septiembre	2023-09-28T00:00:00	2024-11-08T04:00:00	4	Temperatura máxima	17.7
150099	7	Sololá	713	San Lucas Tolimán	10	San Lucas Tolimán	9	Septiembre	2023-09-28T00:00:00	2024-11-08T04:00:00	3	Temperatura mínima	17.3
150100	7	Sololá	713	San Lucas Tolimán	10	San Lucas Tolimán	9	Septiembre	2023-09-28T00:00:00	2024-11-08T04:00:00	5	Humedad	93
150101	7	Sololá	713	San Lucas Tolimán	10	San Lucas Tolimán	9	Septiembre	2023-09-28T00:00:00	2024-11-08T04:00:00	6	Velocidad del viento	1.6
150102	7	Sololá	713	San Lucas Tolimán	10	San Lucas Tolimán	9	Septiembre	2023-09-28T00:00:00	2024-11-08T04:00:00	7	Dirección del viento	1.61
150103	7	Sololá	713	San Lucas Tolimán	10	San Lucas Tolimán	9	Septiembre	2023-09-28T00:00:00	2024-11-08T04:00:00	1	Precipitación	0
150104	7	Sololá	713	San Lucas Tolimán	10	San Lucas Tolimán	9	Septiembre	2023-09-28T00:00:00	2024-11-08T04:00:00	8	Radiación solar	0
150105	7	Sololá	713	San Lucas Tolimán	10	San Lucas Tolimán	9	Septiembre	2023-09-28T00:00:00	2024-11-08T05:00:00	2	Temperatura media	16.9
150106	7	Sololá	713	San Lucas Tolimán	10	San Lucas Tolimán	9	Septiembre	2023-09-28T00:00:00	2024-11-08T05:00:00	4	Temperatura máxima	17.7
150107	7	Sololá	713	San Lucas Tolimán	10	San Lucas Tolimán	9	Septiembre	2023-09-28T00:00:00	2024-11-08T05:00:00	3	Temperatura mínima	16.9
150108	7	Sololá	713	San Lucas Tolimán	10	San Lucas Tolimán	9	Septiembre	2023-09-28T00:00:00	2024-11-08T05:00:00	5	Humedad	94
150109	7	Sololá	713	San Lucas Tolimán	10	San Lucas Tolimán	9	Septiembre	2023-09-28T00:00:00	2024-11-08T05:00:00	6	Velocidad del viento	1.6
150110	7	Sololá	713	San Lucas Tolimán	10	San Lucas Tolimán	9	Septiembre	2023-09-28T00:00:00	2024-11-08T05:00:00	7	Dirección del viento	1.61
150111	7	Sololá	713	San Lucas Tolimán	10	San Lucas Tolimán	9	Septiembre	2023-09-28T00:00:00	2024-11-08T05:00:00	1	Precipitación	0
150112	7	Sololá	713	San Lucas Tolimán	10	San Lucas Tolimán	9	Septiembre	2023-09-28T00:00:00	2024-11-08T05:00:00	8	Radiación solar	0
150113	7	Sololá	713	San Lucas Tolimán	10	San Lucas Tolimán	9	Septiembre	2023-09-28T00:00:00	2024-11-08T06:00:00	2	Temperatura media	16.8
150114	7	Sololá	713	San Lucas Tolimán	10	San Lucas Tolimán	9	Septiembre	2023-09-28T00:00:00	2024-11-08T06:00:00	4	Temperatura máxima	16.9
150115	7	Sololá	713	San Lucas Tolimán	10	San Lucas Tolimán	9	Septiembre	2023-09-28T00:00:00	2024-11-08T06:00:00	3	Temperatura mínima	16.8
150116	7	Sololá	713	San Lucas Tolimán	10	San Lucas Tolimán	9	Septiembre	2023-09-28T00:00:00	2024-11-08T06:00:00	5	Humedad	94
150117	7	Sololá	713	San Lucas Tolimán	10	San Lucas Tolimán	9	Septiembre	2023-09-28T00:00:00	2024-11-08T06:00:00	6	Velocidad del viento	1.6
150118	7	Sololá	713	San Lucas Tolimán	10	San Lucas Tolimán	9	Septiembre	2023-09-28T00:00:00	2024-11-08T06:00:00	7	Dirección del viento	1.61
150119	7	Sololá	713	San Lucas Tolimán	10	San Lucas Tolimán	9	Septiembre	2023-09-28T00:00:00	2024-11-08T06:00:00	1	Precipitación	0
150120	7	Sololá	713	San Lucas Tolimán	10	San Lucas Tolimán	9	Septiembre	2023-09-28T00:00:00	2024-11-08T06:00:00	8	Radiación solar	2
150121	7	Sololá	713	San Lucas Tolimán	10	San Lucas Tolimán	9	Septiembre	2023-09-28T00:00:00	2024-11-08T07:00:00	2	Temperatura media	16.8
150122	7	Sololá	713	San Lucas Tolimán	10	San Lucas Tolimán	9	Septiembre	2023-09-28T00:00:00	2024-11-08T07:00:00	4	Temperatura máxima	16.9
150123	7	Sololá	713	San Lucas Tolimán	10	San Lucas Tolimán	9	Septiembre	2023-09-28T00:00:00	2024-11-08T07:00:00	3	Temperatura mínima	16.7
150124	7	Sololá	713	San Lucas Tolimán	10	San Lucas Tolimán	9	Septiembre	2023-09-28T00:00:00	2024-11-08T07:00:00	5	Humedad	95
150125	7	Sololá	713	San Lucas Tolimán	10	San Lucas Tolimán	9	Septiembre	2023-09-28T00:00:00	2024-11-08T07:00:00	6	Velocidad del viento	1.6
150126	7	Sololá	713	San Lucas Tolimán	10	San Lucas Tolimán	9	Septiembre	2023-09-28T00:00:00	2024-11-08T07:00:00	7	Dirección del viento	1.61
150127	7	Sololá	713	San Lucas Tolimán	10	San Lucas Tolimán	9	Septiembre	2023-09-28T00:00:00	2024-11-08T07:00:00	1	Precipitación	0
150128	7	Sololá	713	San Lucas Tolimán	10	San Lucas Tolimán	9	Septiembre	2023-09-28T00:00:00	2024-11-08T07:00:00	8	Radiación solar	23
150129	7	Sololá	713	San Lucas Tolimán	10	San Lucas Tolimán	9	Septiembre	2023-09-28T00:00:00	2024-11-08T08:00:00	2	Temperatura media	20.7
150130	7	Sololá	713	San Lucas Tolimán	10	San Lucas Tolimán	9	Septiembre	2023-09-28T00:00:00	2024-11-08T08:00:00	4	Temperatura máxima	20.7
150131	7	Sololá	713	San Lucas Tolimán	10	San Lucas Tolimán	9	Septiembre	2023-09-28T00:00:00	2024-11-08T08:00:00	3	Temperatura mínima	16.7
150132	7	Sololá	713	San Lucas Tolimán	10	San Lucas Tolimán	9	Septiembre	2023-09-28T00:00:00	2024-11-08T08:00:00	5	Humedad	86
150133	7	Sololá	713	San Lucas Tolimán	10	San Lucas Tolimán	9	Septiembre	2023-09-28T00:00:00	2024-11-08T08:00:00	6	Velocidad del viento	1.6
150134	7	Sololá	713	San Lucas Tolimán	10	San Lucas Tolimán	9	Septiembre	2023-09-28T00:00:00	2024-11-08T08:00:00	7	Dirección del viento	1.61
150135	7	Sololá	713	San Lucas Tolimán	10	San Lucas Tolimán	9	Septiembre	2023-09-28T00:00:00	2024-11-08T08:00:00	1	Precipitación	0
150136	7	Sololá	713	San Lucas Tolimán	10	San Lucas Tolimán	9	Septiembre	2023-09-28T00:00:00	2024-11-08T08:00:00	8	Radiación solar	258
150137	7	Sololá	713	San Lucas Tolimán	10	San Lucas Tolimán	9	Septiembre	2023-09-28T00:00:00	2024-11-08T09:00:00	2	Temperatura media	22.4
150138	7	Sololá	713	San Lucas Tolimán	10	San Lucas Tolimán	9	Septiembre	2023-09-28T00:00:00	2024-11-08T09:00:00	4	Temperatura máxima	22.6
150139	7	Sololá	713	San Lucas Tolimán	10	San Lucas Tolimán	9	Septiembre	2023-09-28T00:00:00	2024-11-08T09:00:00	3	Temperatura mínima	20.7
150140	7	Sololá	713	San Lucas Tolimán	10	San Lucas Tolimán	9	Septiembre	2023-09-28T00:00:00	2024-11-08T09:00:00	5	Humedad	75
150141	7	Sololá	713	San Lucas Tolimán	10	San Lucas Tolimán	9	Septiembre	2023-09-28T00:00:00	2024-11-08T09:00:00	6	Velocidad del viento	3.2
150142	7	Sololá	713	San Lucas Tolimán	10	San Lucas Tolimán	9	Septiembre	2023-09-28T00:00:00	2024-11-08T09:00:00	7	Dirección del viento	3.22
150143	7	Sololá	713	San Lucas Tolimán	10	San Lucas Tolimán	9	Septiembre	2023-09-28T00:00:00	2024-11-08T09:00:00	1	Precipitación	0
150144	7	Sololá	713	San Lucas Tolimán	10	San Lucas Tolimán	9	Septiembre	2023-09-28T00:00:00	2024-11-08T09:00:00	8	Radiación solar	497
150145	7	Sololá	713	San Lucas Tolimán	10	San Lucas Tolimán	9	Septiembre	2023-09-28T00:00:00	2024-11-08T10:00:00	2	Temperatura media	25.6
150146	7	Sololá	713	San Lucas Tolimán	10	San Lucas Tolimán	9	Septiembre	2023-09-28T00:00:00	2024-11-08T10:00:00	4	Temperatura máxima	25.7
150147	7	Sololá	713	San Lucas Tolimán	10	San Lucas Tolimán	9	Septiembre	2023-09-28T00:00:00	2024-11-08T10:00:00	3	Temperatura mínima	22.4
150148	7	Sololá	713	San Lucas Tolimán	10	San Lucas Tolimán	9	Septiembre	2023-09-28T00:00:00	2024-11-08T10:00:00	5	Humedad	69
150149	7	Sololá	713	San Lucas Tolimán	10	San Lucas Tolimán	9	Septiembre	2023-09-28T00:00:00	2024-11-08T10:00:00	6	Velocidad del viento	3.2
150150	7	Sololá	713	San Lucas Tolimán	10	San Lucas Tolimán	9	Septiembre	2023-09-28T00:00:00	2024-11-08T10:00:00	7	Dirección del viento	3.22
150151	7	Sololá	713	San Lucas Tolimán	10	San Lucas Tolimán	9	Septiembre	2023-09-28T00:00:00	2024-11-08T10:00:00	1	Precipitación	0
150152	7	Sololá	713	San Lucas Tolimán	10	San Lucas Tolimán	9	Septiembre	2023-09-28T00:00:00	2024-11-08T10:00:00	8	Radiación solar	710
150153	7	Sololá	713	San Lucas Tolimán	10	San Lucas Tolimán	9	Septiembre	2023-09-28T00:00:00	2024-11-08T11:00:00	2	Temperatura media	23.8
150154	7	Sololá	713	San Lucas Tolimán	10	San Lucas Tolimán	9	Septiembre	2023-09-28T00:00:00	2024-11-08T11:00:00	4	Temperatura máxima	25.6
150155	7	Sololá	713	San Lucas Tolimán	10	San Lucas Tolimán	9	Septiembre	2023-09-28T00:00:00	2024-11-08T11:00:00	3	Temperatura mínima	23.5
150156	7	Sololá	713	San Lucas Tolimán	10	San Lucas Tolimán	9	Septiembre	2023-09-28T00:00:00	2024-11-08T11:00:00	5	Humedad	79
150157	7	Sololá	713	San Lucas Tolimán	10	San Lucas Tolimán	9	Septiembre	2023-09-28T00:00:00	2024-11-08T11:00:00	6	Velocidad del viento	9.7
150158	7	Sololá	713	San Lucas Tolimán	10	San Lucas Tolimán	9	Septiembre	2023-09-28T00:00:00	2024-11-08T11:00:00	7	Dirección del viento	9.66
150159	7	Sololá	713	San Lucas Tolimán	10	San Lucas Tolimán	9	Septiembre	2023-09-28T00:00:00	2024-11-08T11:00:00	1	Precipitación	0
150160	7	Sololá	713	San Lucas Tolimán	10	San Lucas Tolimán	9	Septiembre	2023-09-28T00:00:00	2024-11-08T11:00:00	8	Radiación solar	862
150161	7	Sololá	713	San Lucas Tolimán	10	San Lucas Tolimán	9	Septiembre	2023-09-28T00:00:00	2024-11-08T12:00:00	2	Temperatura media	24.4
150162	7	Sololá	713	San Lucas Tolimán	10	San Lucas Tolimán	9	Septiembre	2023-09-28T00:00:00	2024-11-08T12:00:00	4	Temperatura máxima	24.5
150163	7	Sololá	713	San Lucas Tolimán	10	San Lucas Tolimán	9	Septiembre	2023-09-28T00:00:00	2024-11-08T12:00:00	3	Temperatura mínima	23.8
150164	7	Sololá	713	San Lucas Tolimán	10	San Lucas Tolimán	9	Septiembre	2023-09-28T00:00:00	2024-11-08T12:00:00	5	Humedad	79
150165	7	Sololá	713	San Lucas Tolimán	10	San Lucas Tolimán	9	Septiembre	2023-09-28T00:00:00	2024-11-08T12:00:00	6	Velocidad del viento	11.3
150166	7	Sololá	713	San Lucas Tolimán	10	San Lucas Tolimán	9	Septiembre	2023-09-28T00:00:00	2024-11-08T12:00:00	7	Dirección del viento	11.27
150167	7	Sololá	713	San Lucas Tolimán	10	San Lucas Tolimán	9	Septiembre	2023-09-28T00:00:00	2024-11-08T12:00:00	1	Precipitación	0
150168	7	Sololá	713	San Lucas Tolimán	10	San Lucas Tolimán	9	Septiembre	2023-09-28T00:00:00	2024-11-08T12:00:00	8	Radiación solar	967
150169	7	Sololá	713	San Lucas Tolimán	10	San Lucas Tolimán	9	Septiembre	2023-09-28T00:00:00	2024-11-08T13:00:00	2	Temperatura media	23.6
150170	7	Sololá	713	San Lucas Tolimán	10	San Lucas Tolimán	9	Septiembre	2023-09-28T00:00:00	2024-11-08T13:00:00	4	Temperatura máxima	24.7
150171	7	Sololá	713	San Lucas Tolimán	10	San Lucas Tolimán	9	Septiembre	2023-09-28T00:00:00	2024-11-08T13:00:00	3	Temperatura mínima	23.3
150172	7	Sololá	713	San Lucas Tolimán	10	San Lucas Tolimán	9	Septiembre	2023-09-28T00:00:00	2024-11-08T13:00:00	5	Humedad	84
150173	7	Sololá	713	San Lucas Tolimán	10	San Lucas Tolimán	9	Septiembre	2023-09-28T00:00:00	2024-11-08T13:00:00	6	Velocidad del viento	12.9
150174	7	Sololá	713	San Lucas Tolimán	10	San Lucas Tolimán	9	Septiembre	2023-09-28T00:00:00	2024-11-08T13:00:00	7	Dirección del viento	12.87
150175	7	Sololá	713	San Lucas Tolimán	10	San Lucas Tolimán	9	Septiembre	2023-09-28T00:00:00	2024-11-08T13:00:00	1	Precipitación	0
150176	7	Sololá	713	San Lucas Tolimán	10	San Lucas Tolimán	9	Septiembre	2023-09-28T00:00:00	2024-11-08T13:00:00	8	Radiación solar	664
150177	7	Sololá	713	San Lucas Tolimán	10	San Lucas Tolimán	9	Septiembre	2023-09-28T00:00:00	2024-11-08T14:00:00	2	Temperatura media	22.7
150178	7	Sololá	713	San Lucas Tolimán	10	San Lucas Tolimán	9	Septiembre	2023-09-28T00:00:00	2024-11-08T14:00:00	4	Temperatura máxima	23.6
150179	7	Sololá	713	San Lucas Tolimán	10	San Lucas Tolimán	9	Septiembre	2023-09-28T00:00:00	2024-11-08T14:00:00	3	Temperatura mínima	22.7
150180	7	Sololá	713	San Lucas Tolimán	10	San Lucas Tolimán	9	Septiembre	2023-09-28T00:00:00	2024-11-08T14:00:00	5	Humedad	87
150181	7	Sololá	713	San Lucas Tolimán	10	San Lucas Tolimán	9	Septiembre	2023-09-28T00:00:00	2024-11-08T14:00:00	6	Velocidad del viento	11.3
150182	7	Sololá	713	San Lucas Tolimán	10	San Lucas Tolimán	9	Septiembre	2023-09-28T00:00:00	2024-11-08T14:00:00	7	Dirección del viento	11.27
150183	7	Sololá	713	San Lucas Tolimán	10	San Lucas Tolimán	9	Septiembre	2023-09-28T00:00:00	2024-11-08T14:00:00	1	Precipitación	0
150184	7	Sololá	713	San Lucas Tolimán	10	San Lucas Tolimán	9	Septiembre	2023-09-28T00:00:00	2024-11-08T14:00:00	8	Radiación solar	372
150185	7	Sololá	713	San Lucas Tolimán	10	San Lucas Tolimán	9	Septiembre	2023-09-28T00:00:00	2024-11-08T15:00:00	2	Temperatura media	19.6
150186	7	Sololá	713	San Lucas Tolimán	10	San Lucas Tolimán	9	Septiembre	2023-09-28T00:00:00	2024-11-08T15:00:00	4	Temperatura máxima	23.1
150187	7	Sololá	713	San Lucas Tolimán	10	San Lucas Tolimán	9	Septiembre	2023-09-28T00:00:00	2024-11-08T15:00:00	3	Temperatura mínima	19.6
150188	7	Sololá	713	San Lucas Tolimán	10	San Lucas Tolimán	9	Septiembre	2023-09-28T00:00:00	2024-11-08T15:00:00	5	Humedad	95
150189	7	Sololá	713	San Lucas Tolimán	10	San Lucas Tolimán	9	Septiembre	2023-09-28T00:00:00	2024-11-08T15:00:00	6	Velocidad del viento	12.9
150190	7	Sololá	713	San Lucas Tolimán	10	San Lucas Tolimán	9	Septiembre	2023-09-28T00:00:00	2024-11-08T15:00:00	7	Dirección del viento	12.87
150191	7	Sololá	713	San Lucas Tolimán	10	San Lucas Tolimán	9	Septiembre	2023-09-28T00:00:00	2024-11-08T15:00:00	1	Precipitación	18.6
150192	7	Sololá	713	San Lucas Tolimán	10	San Lucas Tolimán	9	Septiembre	2023-09-28T00:00:00	2024-11-08T15:00:00	8	Radiación solar	397
150193	7	Sololá	713	San Lucas Tolimán	10	San Lucas Tolimán	9	Septiembre	2023-09-28T00:00:00	2024-11-08T16:00:00	2	Temperatura media	19.3
150194	7	Sololá	713	San Lucas Tolimán	10	San Lucas Tolimán	9	Septiembre	2023-09-28T00:00:00	2024-11-08T16:00:00	4	Temperatura máxima	19.6
150195	7	Sololá	713	San Lucas Tolimán	10	San Lucas Tolimán	9	Septiembre	2023-09-28T00:00:00	2024-11-08T16:00:00	3	Temperatura mínima	19.2
150196	7	Sololá	713	San Lucas Tolimán	10	San Lucas Tolimán	9	Septiembre	2023-09-28T00:00:00	2024-11-08T16:00:00	5	Humedad	94
150197	7	Sololá	713	San Lucas Tolimán	10	San Lucas Tolimán	9	Septiembre	2023-09-28T00:00:00	2024-11-08T16:00:00	6	Velocidad del viento	8
150198	7	Sololá	713	San Lucas Tolimán	10	San Lucas Tolimán	9	Septiembre	2023-09-28T00:00:00	2024-11-08T16:00:00	7	Dirección del viento	8.05
150199	7	Sololá	713	San Lucas Tolimán	10	San Lucas Tolimán	9	Septiembre	2023-09-28T00:00:00	2024-11-08T16:00:00	1	Precipitación	1.2
150200	7	Sololá	713	San Lucas Tolimán	10	San Lucas Tolimán	9	Septiembre	2023-09-28T00:00:00	2024-11-08T16:00:00	8	Radiación solar	434
150201	7	Sololá	713	San Lucas Tolimán	10	San Lucas Tolimán	9	Septiembre	2023-09-28T00:00:00	2024-11-08T17:00:00	2	Temperatura media	19.1
150202	7	Sololá	713	San Lucas Tolimán	10	San Lucas Tolimán	9	Septiembre	2023-09-28T00:00:00	2024-11-08T17:00:00	4	Temperatura máxima	19.3
150203	7	Sololá	713	San Lucas Tolimán	10	San Lucas Tolimán	9	Septiembre	2023-09-28T00:00:00	2024-11-08T17:00:00	3	Temperatura mínima	19.1
150204	7	Sololá	713	San Lucas Tolimán	10	San Lucas Tolimán	9	Septiembre	2023-09-28T00:00:00	2024-11-08T17:00:00	5	Humedad	95
150205	7	Sololá	713	San Lucas Tolimán	10	San Lucas Tolimán	9	Septiembre	2023-09-28T00:00:00	2024-11-08T17:00:00	6	Velocidad del viento	4.8
150206	7	Sololá	713	San Lucas Tolimán	10	San Lucas Tolimán	9	Septiembre	2023-09-28T00:00:00	2024-11-08T17:00:00	7	Dirección del viento	4.83
150207	7	Sololá	713	San Lucas Tolimán	10	San Lucas Tolimán	9	Septiembre	2023-09-28T00:00:00	2024-11-08T17:00:00	1	Precipitación	0
150208	7	Sololá	713	San Lucas Tolimán	10	San Lucas Tolimán	9	Septiembre	2023-09-28T00:00:00	2024-11-08T17:00:00	8	Radiación solar	165
150209	7	Sololá	713	San Lucas Tolimán	10	San Lucas Tolimán	9	Septiembre	2023-09-28T00:00:00	2024-11-08T18:00:00	2	Temperatura media	19
150210	7	Sololá	713	San Lucas Tolimán	10	San Lucas Tolimán	9	Septiembre	2023-09-28T00:00:00	2024-11-08T18:00:00	4	Temperatura máxima	19.2
150211	7	Sololá	713	San Lucas Tolimán	10	San Lucas Tolimán	9	Septiembre	2023-09-28T00:00:00	2024-11-08T18:00:00	3	Temperatura mínima	19
150212	7	Sololá	713	San Lucas Tolimán	10	San Lucas Tolimán	9	Septiembre	2023-09-28T00:00:00	2024-11-08T18:00:00	5	Humedad	95
150213	7	Sololá	713	San Lucas Tolimán	10	San Lucas Tolimán	9	Septiembre	2023-09-28T00:00:00	2024-11-08T18:00:00	6	Velocidad del viento	3.2
150214	7	Sololá	713	San Lucas Tolimán	10	San Lucas Tolimán	9	Septiembre	2023-09-28T00:00:00	2024-11-08T18:00:00	7	Dirección del viento	3.22
150215	7	Sololá	713	San Lucas Tolimán	10	San Lucas Tolimán	9	Septiembre	2023-09-28T00:00:00	2024-11-08T18:00:00	1	Precipitación	0
150216	7	Sololá	713	San Lucas Tolimán	10	San Lucas Tolimán	9	Septiembre	2023-09-28T00:00:00	2024-11-08T18:00:00	8	Radiación solar	35
150217	7	Sololá	713	San Lucas Tolimán	10	San Lucas Tolimán	9	Septiembre	2023-09-28T00:00:00	2024-11-08T19:00:00	2	Temperatura media	18.7
150218	7	Sololá	713	San Lucas Tolimán	10	San Lucas Tolimán	9	Septiembre	2023-09-28T00:00:00	2024-11-08T19:00:00	4	Temperatura máxima	19
150219	7	Sololá	713	San Lucas Tolimán	10	San Lucas Tolimán	9	Septiembre	2023-09-28T00:00:00	2024-11-08T19:00:00	3	Temperatura mínima	18.7
150220	7	Sololá	713	San Lucas Tolimán	10	San Lucas Tolimán	9	Septiembre	2023-09-28T00:00:00	2024-11-08T19:00:00	5	Humedad	96
150221	7	Sololá	713	San Lucas Tolimán	10	San Lucas Tolimán	9	Septiembre	2023-09-28T00:00:00	2024-11-08T19:00:00	6	Velocidad del viento	1.6
150222	7	Sololá	713	San Lucas Tolimán	10	San Lucas Tolimán	9	Septiembre	2023-09-28T00:00:00	2024-11-08T19:00:00	7	Dirección del viento	1.61
150223	7	Sololá	713	San Lucas Tolimán	10	San Lucas Tolimán	9	Septiembre	2023-09-28T00:00:00	2024-11-08T19:00:00	1	Precipitación	0.6
150224	7	Sololá	713	San Lucas Tolimán	10	San Lucas Tolimán	9	Septiembre	2023-09-28T00:00:00	2024-11-08T19:00:00	8	Radiación solar	0
150225	7	Sololá	713	San Lucas Tolimán	10	San Lucas Tolimán	9	Septiembre	2023-09-28T00:00:00	2024-11-08T20:00:00	2	Temperatura media	18.8
150226	7	Sololá	713	San Lucas Tolimán	10	San Lucas Tolimán	9	Septiembre	2023-09-28T00:00:00	2024-11-08T20:00:00	4	Temperatura máxima	19.1
150227	7	Sololá	713	San Lucas Tolimán	10	San Lucas Tolimán	9	Septiembre	2023-09-28T00:00:00	2024-11-08T20:00:00	3	Temperatura mínima	18.7
150228	7	Sololá	713	San Lucas Tolimán	10	San Lucas Tolimán	9	Septiembre	2023-09-28T00:00:00	2024-11-08T20:00:00	5	Humedad	96
150229	7	Sololá	713	San Lucas Tolimán	10	San Lucas Tolimán	9	Septiembre	2023-09-28T00:00:00	2024-11-08T20:00:00	6	Velocidad del viento	1.6
150230	7	Sololá	713	San Lucas Tolimán	10	San Lucas Tolimán	9	Septiembre	2023-09-28T00:00:00	2024-11-08T20:00:00	7	Dirección del viento	1.61
150231	7	Sololá	713	San Lucas Tolimán	10	San Lucas Tolimán	9	Septiembre	2023-09-28T00:00:00	2024-11-08T20:00:00	1	Precipitación	0.2
150232	7	Sololá	713	San Lucas Tolimán	10	San Lucas Tolimán	9	Septiembre	2023-09-28T00:00:00	2024-11-08T20:00:00	8	Radiación solar	0
150233	7	Sololá	713	San Lucas Tolimán	10	San Lucas Tolimán	9	Septiembre	2023-09-28T00:00:00	2024-11-08T21:00:00	2	Temperatura media	18.7
150234	7	Sololá	713	San Lucas Tolimán	10	San Lucas Tolimán	9	Septiembre	2023-09-28T00:00:00	2024-11-08T21:00:00	4	Temperatura máxima	18.8
150235	7	Sololá	713	San Lucas Tolimán	10	San Lucas Tolimán	9	Septiembre	2023-09-28T00:00:00	2024-11-08T21:00:00	3	Temperatura mínima	18.7
150236	7	Sololá	713	San Lucas Tolimán	10	San Lucas Tolimán	9	Septiembre	2023-09-28T00:00:00	2024-11-08T21:00:00	5	Humedad	97
150237	7	Sololá	713	San Lucas Tolimán	10	San Lucas Tolimán	9	Septiembre	2023-09-28T00:00:00	2024-11-08T21:00:00	6	Velocidad del viento	3.2
150238	7	Sololá	713	San Lucas Tolimán	10	San Lucas Tolimán	9	Septiembre	2023-09-28T00:00:00	2024-11-08T21:00:00	7	Dirección del viento	3.22
150239	7	Sololá	713	San Lucas Tolimán	10	San Lucas Tolimán	9	Septiembre	2023-09-28T00:00:00	2024-11-08T21:00:00	1	Precipitación	0
150240	7	Sololá	713	San Lucas Tolimán	10	San Lucas Tolimán	9	Septiembre	2023-09-28T00:00:00	2024-11-08T21:00:00	8	Radiación solar	0
150241	7	Sololá	713	San Lucas Tolimán	10	San Lucas Tolimán	9	Septiembre	2023-09-28T00:00:00	2024-11-08T22:00:00	2	Temperatura media	18.6
150242	7	Sololá	713	San Lucas Tolimán	10	San Lucas Tolimán	9	Septiembre	2023-09-28T00:00:00	2024-11-08T22:00:00	4	Temperatura máxima	18.8
150243	7	Sololá	713	San Lucas Tolimán	10	San Lucas Tolimán	9	Septiembre	2023-09-28T00:00:00	2024-11-08T22:00:00	3	Temperatura mínima	18.5
150244	7	Sololá	713	San Lucas Tolimán	10	San Lucas Tolimán	9	Septiembre	2023-09-28T00:00:00	2024-11-08T22:00:00	5	Humedad	96
150245	7	Sololá	713	San Lucas Tolimán	10	San Lucas Tolimán	9	Septiembre	2023-09-28T00:00:00	2024-11-08T22:00:00	6	Velocidad del viento	3.2
150246	7	Sololá	713	San Lucas Tolimán	10	San Lucas Tolimán	9	Septiembre	2023-09-28T00:00:00	2024-11-08T22:00:00	7	Dirección del viento	3.22
150247	7	Sololá	713	San Lucas Tolimán	10	San Lucas Tolimán	9	Septiembre	2023-09-28T00:00:00	2024-11-08T22:00:00	1	Precipitación	0
150248	7	Sololá	713	San Lucas Tolimán	10	San Lucas Tolimán	9	Septiembre	2023-09-28T00:00:00	2024-11-08T22:00:00	8	Radiación solar	0
150249	7	Sololá	713	San Lucas Tolimán	10	San Lucas Tolimán	9	Septiembre	2023-09-28T00:00:00	2024-11-08T23:00:00	2	Temperatura media	18.4
150250	7	Sololá	713	San Lucas Tolimán	10	San Lucas Tolimán	9	Septiembre	2023-09-28T00:00:00	2024-11-08T23:00:00	4	Temperatura máxima	18.6
150251	7	Sololá	713	San Lucas Tolimán	10	San Lucas Tolimán	9	Septiembre	2023-09-28T00:00:00	2024-11-08T23:00:00	3	Temperatura mínima	18.4
150252	7	Sololá	713	San Lucas Tolimán	10	San Lucas Tolimán	9	Septiembre	2023-09-28T00:00:00	2024-11-08T23:00:00	5	Humedad	96
150253	7	Sololá	713	San Lucas Tolimán	10	San Lucas Tolimán	9	Septiembre	2023-09-28T00:00:00	2024-11-08T23:00:00	6	Velocidad del viento	3.2
150254	7	Sololá	713	San Lucas Tolimán	10	San Lucas Tolimán	9	Septiembre	2023-09-28T00:00:00	2024-11-08T23:00:00	7	Dirección del viento	3.22
150255	7	Sololá	713	San Lucas Tolimán	10	San Lucas Tolimán	9	Septiembre	2023-09-28T00:00:00	2024-11-08T23:00:00	1	Precipitación	0
150256	7	Sololá	713	San Lucas Tolimán	10	San Lucas Tolimán	9	Septiembre	2023-09-28T00:00:00	2024-11-08T23:00:00	8	Radiación solar	0
150257	7	Sololá	713	San Lucas Tolimán	10	San Lucas Tolimán	9	Septiembre	2023-09-29T00:00:00	2024-11-08T00:00:00	2	Temperatura media	18.2
150258	7	Sololá	713	San Lucas Tolimán	10	San Lucas Tolimán	9	Septiembre	2023-09-29T00:00:00	2024-11-08T00:00:00	4	Temperatura máxima	18.4
150259	7	Sololá	713	San Lucas Tolimán	10	San Lucas Tolimán	9	Septiembre	2023-09-29T00:00:00	2024-11-08T00:00:00	3	Temperatura mínima	18.2
150260	7	Sololá	713	San Lucas Tolimán	10	San Lucas Tolimán	9	Septiembre	2023-09-29T00:00:00	2024-11-08T00:00:00	5	Humedad	97
150261	7	Sololá	713	San Lucas Tolimán	10	San Lucas Tolimán	9	Septiembre	2023-09-29T00:00:00	2024-11-08T00:00:00	6	Velocidad del viento	1.6
150262	7	Sololá	713	San Lucas Tolimán	10	San Lucas Tolimán	9	Septiembre	2023-09-29T00:00:00	2024-11-08T00:00:00	7	Dirección del viento	1.61
150263	7	Sololá	713	San Lucas Tolimán	10	San Lucas Tolimán	9	Septiembre	2023-09-29T00:00:00	2024-11-08T00:00:00	1	Precipitación	0
150264	7	Sololá	713	San Lucas Tolimán	10	San Lucas Tolimán	9	Septiembre	2023-09-29T00:00:00	2024-11-08T00:00:00	8	Radiación solar	0
150265	7	Sololá	713	San Lucas Tolimán	10	San Lucas Tolimán	9	Septiembre	2023-09-29T00:00:00	2024-11-08T01:00:00	2	Temperatura media	17.7
150266	7	Sololá	713	San Lucas Tolimán	10	San Lucas Tolimán	9	Septiembre	2023-09-29T00:00:00	2024-11-08T01:00:00	4	Temperatura máxima	18.3
150267	7	Sololá	713	San Lucas Tolimán	10	San Lucas Tolimán	9	Septiembre	2023-09-29T00:00:00	2024-11-08T01:00:00	3	Temperatura mínima	17.7
150268	7	Sololá	713	San Lucas Tolimán	10	San Lucas Tolimán	9	Septiembre	2023-09-29T00:00:00	2024-11-08T01:00:00	5	Humedad	95
150269	7	Sololá	713	San Lucas Tolimán	10	San Lucas Tolimán	9	Septiembre	2023-09-29T00:00:00	2024-11-08T01:00:00	6	Velocidad del viento	1.6
150270	7	Sololá	713	San Lucas Tolimán	10	San Lucas Tolimán	9	Septiembre	2023-09-29T00:00:00	2024-11-08T01:00:00	7	Dirección del viento	1.61
150271	7	Sololá	713	San Lucas Tolimán	10	San Lucas Tolimán	9	Septiembre	2023-09-29T00:00:00	2024-11-08T01:00:00	1	Precipitación	0
150272	7	Sololá	713	San Lucas Tolimán	10	San Lucas Tolimán	9	Septiembre	2023-09-29T00:00:00	2024-11-08T01:00:00	8	Radiación solar	0
150273	7	Sololá	713	San Lucas Tolimán	10	San Lucas Tolimán	9	Septiembre	2023-09-29T00:00:00	2024-11-08T02:00:00	2	Temperatura media	17.7
150274	7	Sololá	713	San Lucas Tolimán	10	San Lucas Tolimán	9	Septiembre	2023-09-29T00:00:00	2024-11-08T02:00:00	4	Temperatura máxima	18
150275	7	Sololá	713	San Lucas Tolimán	10	San Lucas Tolimán	9	Septiembre	2023-09-29T00:00:00	2024-11-08T02:00:00	3	Temperatura mínima	17.7
150276	7	Sololá	713	San Lucas Tolimán	10	San Lucas Tolimán	9	Septiembre	2023-09-29T00:00:00	2024-11-08T02:00:00	5	Humedad	94
150277	7	Sololá	713	San Lucas Tolimán	10	San Lucas Tolimán	9	Septiembre	2023-09-29T00:00:00	2024-11-08T02:00:00	6	Velocidad del viento	0
150278	7	Sololá	713	San Lucas Tolimán	10	San Lucas Tolimán	9	Septiembre	2023-09-29T00:00:00	2024-11-08T02:00:00	7	Dirección del viento	0
150279	7	Sololá	713	San Lucas Tolimán	10	San Lucas Tolimán	9	Septiembre	2023-09-29T00:00:00	2024-11-08T02:00:00	1	Precipitación	0
150280	7	Sololá	713	San Lucas Tolimán	10	San Lucas Tolimán	9	Septiembre	2023-09-29T00:00:00	2024-11-08T02:00:00	8	Radiación solar	0
150281	7	Sololá	713	San Lucas Tolimán	10	San Lucas Tolimán	9	Septiembre	2023-09-29T00:00:00	2024-11-08T03:00:00	2	Temperatura media	17.6
150282	7	Sololá	713	San Lucas Tolimán	10	San Lucas Tolimán	9	Septiembre	2023-09-29T00:00:00	2024-11-08T03:00:00	4	Temperatura máxima	17.7
150283	7	Sololá	713	San Lucas Tolimán	10	San Lucas Tolimán	9	Septiembre	2023-09-29T00:00:00	2024-11-08T03:00:00	3	Temperatura mínima	17.6
150284	7	Sololá	713	San Lucas Tolimán	10	San Lucas Tolimán	9	Septiembre	2023-09-29T00:00:00	2024-11-08T03:00:00	5	Humedad	94
150285	7	Sololá	713	San Lucas Tolimán	10	San Lucas Tolimán	9	Septiembre	2023-09-29T00:00:00	2024-11-08T03:00:00	6	Velocidad del viento	1.6
150286	7	Sololá	713	San Lucas Tolimán	10	San Lucas Tolimán	9	Septiembre	2023-09-29T00:00:00	2024-11-08T03:00:00	7	Dirección del viento	1.61
150287	7	Sololá	713	San Lucas Tolimán	10	San Lucas Tolimán	9	Septiembre	2023-09-29T00:00:00	2024-11-08T03:00:00	1	Precipitación	0
150288	7	Sololá	713	San Lucas Tolimán	10	San Lucas Tolimán	9	Septiembre	2023-09-29T00:00:00	2024-11-08T03:00:00	8	Radiación solar	0
150289	7	Sololá	713	San Lucas Tolimán	10	San Lucas Tolimán	9	Septiembre	2023-09-29T00:00:00	2024-11-08T04:00:00	2	Temperatura media	17.7
150290	7	Sololá	713	San Lucas Tolimán	10	San Lucas Tolimán	9	Septiembre	2023-09-29T00:00:00	2024-11-08T04:00:00	4	Temperatura máxima	17.8
150291	7	Sololá	713	San Lucas Tolimán	10	San Lucas Tolimán	9	Septiembre	2023-09-29T00:00:00	2024-11-08T04:00:00	3	Temperatura mínima	17.5
150292	7	Sololá	713	San Lucas Tolimán	10	San Lucas Tolimán	9	Septiembre	2023-09-29T00:00:00	2024-11-08T04:00:00	5	Humedad	95
150293	7	Sololá	713	San Lucas Tolimán	10	San Lucas Tolimán	9	Septiembre	2023-09-29T00:00:00	2024-11-08T04:00:00	6	Velocidad del viento	3.2
150294	7	Sololá	713	San Lucas Tolimán	10	San Lucas Tolimán	9	Septiembre	2023-09-29T00:00:00	2024-11-08T04:00:00	7	Dirección del viento	3.22
150295	7	Sololá	713	San Lucas Tolimán	10	San Lucas Tolimán	9	Septiembre	2023-09-29T00:00:00	2024-11-08T04:00:00	1	Precipitación	0
150296	7	Sololá	713	San Lucas Tolimán	10	San Lucas Tolimán	9	Septiembre	2023-09-29T00:00:00	2024-11-08T04:00:00	8	Radiación solar	0
150297	7	Sololá	713	San Lucas Tolimán	10	San Lucas Tolimán	9	Septiembre	2023-09-29T00:00:00	2024-11-08T05:00:00	2	Temperatura media	17.6
150298	7	Sololá	713	San Lucas Tolimán	10	San Lucas Tolimán	9	Septiembre	2023-09-29T00:00:00	2024-11-08T05:00:00	4	Temperatura máxima	17.7
150299	7	Sololá	713	San Lucas Tolimán	10	San Lucas Tolimán	9	Septiembre	2023-09-29T00:00:00	2024-11-08T05:00:00	3	Temperatura mínima	17.6
150300	7	Sololá	713	San Lucas Tolimán	10	San Lucas Tolimán	9	Septiembre	2023-09-29T00:00:00	2024-11-08T05:00:00	5	Humedad	95
150301	7	Sololá	713	San Lucas Tolimán	10	San Lucas Tolimán	9	Septiembre	2023-09-29T00:00:00	2024-11-08T05:00:00	6	Velocidad del viento	3.2
150302	7	Sololá	713	San Lucas Tolimán	10	San Lucas Tolimán	9	Septiembre	2023-09-29T00:00:00	2024-11-08T05:00:00	7	Dirección del viento	3.22
150303	7	Sololá	713	San Lucas Tolimán	10	San Lucas Tolimán	9	Septiembre	2023-09-29T00:00:00	2024-11-08T05:00:00	1	Precipitación	0
150304	7	Sololá	713	San Lucas Tolimán	10	San Lucas Tolimán	9	Septiembre	2023-09-29T00:00:00	2024-11-08T05:00:00	8	Radiación solar	0
150305	7	Sololá	713	San Lucas Tolimán	10	San Lucas Tolimán	9	Septiembre	2023-09-29T00:00:00	2024-11-08T06:00:00	2	Temperatura media	17.4
150306	7	Sololá	713	San Lucas Tolimán	10	San Lucas Tolimán	9	Septiembre	2023-09-29T00:00:00	2024-11-08T06:00:00	4	Temperatura máxima	17.7
150307	7	Sololá	713	San Lucas Tolimán	10	San Lucas Tolimán	9	Septiembre	2023-09-29T00:00:00	2024-11-08T06:00:00	3	Temperatura mínima	17.3
150308	7	Sololá	713	San Lucas Tolimán	10	San Lucas Tolimán	9	Septiembre	2023-09-29T00:00:00	2024-11-08T06:00:00	5	Humedad	94
150309	7	Sololá	713	San Lucas Tolimán	10	San Lucas Tolimán	9	Septiembre	2023-09-29T00:00:00	2024-11-08T06:00:00	6	Velocidad del viento	3.2
150310	7	Sololá	713	San Lucas Tolimán	10	San Lucas Tolimán	9	Septiembre	2023-09-29T00:00:00	2024-11-08T06:00:00	7	Dirección del viento	3.22
150311	7	Sololá	713	San Lucas Tolimán	10	San Lucas Tolimán	9	Septiembre	2023-09-29T00:00:00	2024-11-08T06:00:00	1	Precipitación	0
150312	7	Sololá	713	San Lucas Tolimán	10	San Lucas Tolimán	9	Septiembre	2023-09-29T00:00:00	2024-11-08T06:00:00	8	Radiación solar	0
150313	7	Sololá	713	San Lucas Tolimán	10	San Lucas Tolimán	9	Septiembre	2023-09-29T00:00:00	2024-11-08T07:00:00	2	Temperatura media	17.6
150314	7	Sololá	713	San Lucas Tolimán	10	San Lucas Tolimán	9	Septiembre	2023-09-29T00:00:00	2024-11-08T07:00:00	4	Temperatura máxima	17.6
150315	7	Sololá	713	San Lucas Tolimán	10	San Lucas Tolimán	9	Septiembre	2023-09-29T00:00:00	2024-11-08T07:00:00	3	Temperatura mínima	17.3
150316	7	Sololá	713	San Lucas Tolimán	10	San Lucas Tolimán	9	Septiembre	2023-09-29T00:00:00	2024-11-08T07:00:00	5	Humedad	96
150317	7	Sololá	713	San Lucas Tolimán	10	San Lucas Tolimán	9	Septiembre	2023-09-29T00:00:00	2024-11-08T07:00:00	6	Velocidad del viento	1.6
150318	7	Sololá	713	San Lucas Tolimán	10	San Lucas Tolimán	9	Septiembre	2023-09-29T00:00:00	2024-11-08T07:00:00	7	Dirección del viento	1.61
150319	7	Sololá	713	San Lucas Tolimán	10	San Lucas Tolimán	9	Septiembre	2023-09-29T00:00:00	2024-11-08T07:00:00	1	Precipitación	0
150320	7	Sololá	713	San Lucas Tolimán	10	San Lucas Tolimán	9	Septiembre	2023-09-29T00:00:00	2024-11-08T07:00:00	8	Radiación solar	30
150321	7	Sololá	713	San Lucas Tolimán	10	San Lucas Tolimán	9	Septiembre	2023-09-29T00:00:00	2024-11-08T08:00:00	2	Temperatura media	18.8
150322	7	Sololá	713	San Lucas Tolimán	10	San Lucas Tolimán	9	Septiembre	2023-09-29T00:00:00	2024-11-08T08:00:00	4	Temperatura máxima	18.8
150323	7	Sololá	713	San Lucas Tolimán	10	San Lucas Tolimán	9	Septiembre	2023-09-29T00:00:00	2024-11-08T08:00:00	3	Temperatura mínima	17.6
150324	7	Sololá	713	San Lucas Tolimán	10	San Lucas Tolimán	9	Septiembre	2023-09-29T00:00:00	2024-11-08T08:00:00	5	Humedad	93
150325	7	Sololá	713	San Lucas Tolimán	10	San Lucas Tolimán	9	Septiembre	2023-09-29T00:00:00	2024-11-08T08:00:00	6	Velocidad del viento	1.6
150326	7	Sololá	713	San Lucas Tolimán	10	San Lucas Tolimán	9	Septiembre	2023-09-29T00:00:00	2024-11-08T08:00:00	7	Dirección del viento	1.61
150327	7	Sololá	713	San Lucas Tolimán	10	San Lucas Tolimán	9	Septiembre	2023-09-29T00:00:00	2024-11-08T08:00:00	1	Precipitación	0
150328	7	Sololá	713	San Lucas Tolimán	10	San Lucas Tolimán	9	Septiembre	2023-09-29T00:00:00	2024-11-08T08:00:00	8	Radiación solar	351
150329	7	Sololá	713	San Lucas Tolimán	10	San Lucas Tolimán	9	Septiembre	2023-09-29T00:00:00	2024-11-08T09:00:00	2	Temperatura media	21.3
150330	7	Sololá	713	San Lucas Tolimán	10	San Lucas Tolimán	9	Septiembre	2023-09-29T00:00:00	2024-11-08T09:00:00	4	Temperatura máxima	21.3
150331	7	Sololá	713	San Lucas Tolimán	10	San Lucas Tolimán	9	Septiembre	2023-09-29T00:00:00	2024-11-08T09:00:00	3	Temperatura mínima	18.8
150332	7	Sololá	713	San Lucas Tolimán	10	San Lucas Tolimán	9	Septiembre	2023-09-29T00:00:00	2024-11-08T09:00:00	5	Humedad	86
150333	7	Sololá	713	San Lucas Tolimán	10	San Lucas Tolimán	9	Septiembre	2023-09-29T00:00:00	2024-11-08T09:00:00	6	Velocidad del viento	1.6
150334	7	Sololá	713	San Lucas Tolimán	10	San Lucas Tolimán	9	Septiembre	2023-09-29T00:00:00	2024-11-08T09:00:00	7	Dirección del viento	1.61
150335	7	Sololá	713	San Lucas Tolimán	10	San Lucas Tolimán	9	Septiembre	2023-09-29T00:00:00	2024-11-08T09:00:00	1	Precipitación	0
150336	7	Sololá	713	San Lucas Tolimán	10	San Lucas Tolimán	9	Septiembre	2023-09-29T00:00:00	2024-11-08T09:00:00	8	Radiación solar	277
150337	7	Sololá	713	San Lucas Tolimán	10	San Lucas Tolimán	9	Septiembre	2023-09-29T00:00:00	2024-11-08T10:00:00	2	Temperatura media	24.2
150338	7	Sololá	713	San Lucas Tolimán	10	San Lucas Tolimán	9	Septiembre	2023-09-29T00:00:00	2024-11-08T10:00:00	4	Temperatura máxima	24.2
150339	7	Sololá	713	San Lucas Tolimán	10	San Lucas Tolimán	9	Septiembre	2023-09-29T00:00:00	2024-11-08T10:00:00	3	Temperatura mínima	21.3
150340	7	Sololá	713	San Lucas Tolimán	10	San Lucas Tolimán	9	Septiembre	2023-09-29T00:00:00	2024-11-08T10:00:00	5	Humedad	74
150341	7	Sololá	713	San Lucas Tolimán	10	San Lucas Tolimán	9	Septiembre	2023-09-29T00:00:00	2024-11-08T10:00:00	6	Velocidad del viento	1.6
150342	7	Sololá	713	San Lucas Tolimán	10	San Lucas Tolimán	9	Septiembre	2023-09-29T00:00:00	2024-11-08T10:00:00	7	Dirección del viento	1.61
150343	7	Sololá	713	San Lucas Tolimán	10	San Lucas Tolimán	9	Septiembre	2023-09-29T00:00:00	2024-11-08T10:00:00	1	Precipitación	0
150344	7	Sololá	713	San Lucas Tolimán	10	San Lucas Tolimán	9	Septiembre	2023-09-29T00:00:00	2024-11-08T10:00:00	8	Radiación solar	717
150345	7	Sololá	713	San Lucas Tolimán	10	San Lucas Tolimán	9	Septiembre	2023-09-29T00:00:00	2024-11-08T11:00:00	2	Temperatura media	24.7
150346	7	Sololá	713	San Lucas Tolimán	10	San Lucas Tolimán	9	Septiembre	2023-09-29T00:00:00	2024-11-08T11:00:00	4	Temperatura máxima	25.3
150347	7	Sololá	713	San Lucas Tolimán	10	San Lucas Tolimán	9	Septiembre	2023-09-29T00:00:00	2024-11-08T11:00:00	3	Temperatura mínima	24.1
150348	7	Sololá	713	San Lucas Tolimán	10	San Lucas Tolimán	9	Septiembre	2023-09-29T00:00:00	2024-11-08T11:00:00	5	Humedad	74
150349	7	Sololá	713	San Lucas Tolimán	10	San Lucas Tolimán	9	Septiembre	2023-09-29T00:00:00	2024-11-08T11:00:00	6	Velocidad del viento	3.2
150350	7	Sololá	713	San Lucas Tolimán	10	San Lucas Tolimán	9	Septiembre	2023-09-29T00:00:00	2024-11-08T11:00:00	7	Dirección del viento	3.22
150351	7	Sololá	713	San Lucas Tolimán	10	San Lucas Tolimán	9	Septiembre	2023-09-29T00:00:00	2024-11-08T11:00:00	1	Precipitación	0
150352	7	Sololá	713	San Lucas Tolimán	10	San Lucas Tolimán	9	Septiembre	2023-09-29T00:00:00	2024-11-08T11:00:00	8	Radiación solar	746
150353	7	Sololá	713	San Lucas Tolimán	10	San Lucas Tolimán	9	Septiembre	2023-09-29T00:00:00	2024-11-08T12:00:00	2	Temperatura media	22.1
150354	7	Sololá	713	San Lucas Tolimán	10	San Lucas Tolimán	9	Septiembre	2023-09-29T00:00:00	2024-11-08T12:00:00	4	Temperatura máxima	24.8
150355	7	Sololá	713	San Lucas Tolimán	10	San Lucas Tolimán	9	Septiembre	2023-09-29T00:00:00	2024-11-08T12:00:00	3	Temperatura mínima	22.1
150356	7	Sololá	713	San Lucas Tolimán	10	San Lucas Tolimán	9	Septiembre	2023-09-29T00:00:00	2024-11-08T12:00:00	5	Humedad	88
150357	7	Sololá	713	San Lucas Tolimán	10	San Lucas Tolimán	9	Septiembre	2023-09-29T00:00:00	2024-11-08T12:00:00	6	Velocidad del viento	12.9
150358	7	Sololá	713	San Lucas Tolimán	10	San Lucas Tolimán	9	Septiembre	2023-09-29T00:00:00	2024-11-08T12:00:00	7	Dirección del viento	12.87
150359	7	Sololá	713	San Lucas Tolimán	10	San Lucas Tolimán	9	Septiembre	2023-09-29T00:00:00	2024-11-08T12:00:00	1	Precipitación	0
150360	7	Sololá	713	San Lucas Tolimán	10	San Lucas Tolimán	9	Septiembre	2023-09-29T00:00:00	2024-11-08T12:00:00	8	Radiación solar	744
150361	7	Sololá	713	San Lucas Tolimán	10	San Lucas Tolimán	9	Septiembre	2023-09-29T00:00:00	2024-11-08T13:00:00	2	Temperatura media	20.3
150362	7	Sololá	713	San Lucas Tolimán	10	San Lucas Tolimán	9	Septiembre	2023-09-29T00:00:00	2024-11-08T13:00:00	4	Temperatura máxima	22.1
150363	7	Sololá	713	San Lucas Tolimán	10	San Lucas Tolimán	9	Septiembre	2023-09-29T00:00:00	2024-11-08T13:00:00	3	Temperatura mínima	20.3
150364	7	Sololá	713	San Lucas Tolimán	10	San Lucas Tolimán	9	Septiembre	2023-09-29T00:00:00	2024-11-08T13:00:00	5	Humedad	94
150365	7	Sololá	713	San Lucas Tolimán	10	San Lucas Tolimán	9	Septiembre	2023-09-29T00:00:00	2024-11-08T13:00:00	6	Velocidad del viento	12.9
150366	7	Sololá	713	San Lucas Tolimán	10	San Lucas Tolimán	9	Septiembre	2023-09-29T00:00:00	2024-11-08T13:00:00	7	Dirección del viento	12.87
150367	7	Sololá	713	San Lucas Tolimán	10	San Lucas Tolimán	9	Septiembre	2023-09-29T00:00:00	2024-11-08T13:00:00	1	Precipitación	2
150368	7	Sololá	713	San Lucas Tolimán	10	San Lucas Tolimán	9	Septiembre	2023-09-29T00:00:00	2024-11-08T13:00:00	8	Radiación solar	133
150369	7	Sololá	713	San Lucas Tolimán	10	San Lucas Tolimán	9	Septiembre	2023-09-29T00:00:00	2024-11-08T14:00:00	2	Temperatura media	21
150370	7	Sololá	713	San Lucas Tolimán	10	San Lucas Tolimán	9	Septiembre	2023-09-29T00:00:00	2024-11-08T14:00:00	4	Temperatura máxima	21
150371	7	Sololá	713	San Lucas Tolimán	10	San Lucas Tolimán	9	Septiembre	2023-09-29T00:00:00	2024-11-08T14:00:00	3	Temperatura mínima	20.2
150372	7	Sololá	713	San Lucas Tolimán	10	San Lucas Tolimán	9	Septiembre	2023-09-29T00:00:00	2024-11-08T14:00:00	5	Humedad	90
150373	7	Sololá	713	San Lucas Tolimán	10	San Lucas Tolimán	9	Septiembre	2023-09-29T00:00:00	2024-11-08T14:00:00	6	Velocidad del viento	9.7
150374	7	Sololá	713	San Lucas Tolimán	10	San Lucas Tolimán	9	Septiembre	2023-09-29T00:00:00	2024-11-08T14:00:00	7	Dirección del viento	9.66
150375	7	Sololá	713	San Lucas Tolimán	10	San Lucas Tolimán	9	Septiembre	2023-09-29T00:00:00	2024-11-08T14:00:00	1	Precipitación	2
150376	7	Sololá	713	San Lucas Tolimán	10	San Lucas Tolimán	9	Septiembre	2023-09-29T00:00:00	2024-11-08T14:00:00	8	Radiación solar	165
150377	7	Sololá	713	San Lucas Tolimán	10	San Lucas Tolimán	9	Septiembre	2023-09-29T00:00:00	2024-11-08T15:00:00	2	Temperatura media	20.4
150378	7	Sololá	713	San Lucas Tolimán	10	San Lucas Tolimán	9	Septiembre	2023-09-29T00:00:00	2024-11-08T15:00:00	4	Temperatura máxima	21.3
150379	7	Sololá	713	San Lucas Tolimán	10	San Lucas Tolimán	9	Septiembre	2023-09-29T00:00:00	2024-11-08T15:00:00	3	Temperatura mínima	20.4
150380	7	Sololá	713	San Lucas Tolimán	10	San Lucas Tolimán	9	Septiembre	2023-09-29T00:00:00	2024-11-08T15:00:00	5	Humedad	94
150381	7	Sololá	713	San Lucas Tolimán	10	San Lucas Tolimán	9	Septiembre	2023-09-29T00:00:00	2024-11-08T15:00:00	6	Velocidad del viento	6.4
150382	7	Sololá	713	San Lucas Tolimán	10	San Lucas Tolimán	9	Septiembre	2023-09-29T00:00:00	2024-11-08T15:00:00	7	Dirección del viento	6.44
150383	7	Sololá	713	San Lucas Tolimán	10	San Lucas Tolimán	9	Septiembre	2023-09-29T00:00:00	2024-11-08T15:00:00	1	Precipitación	0
150384	7	Sololá	713	San Lucas Tolimán	10	San Lucas Tolimán	9	Septiembre	2023-09-29T00:00:00	2024-11-08T15:00:00	8	Radiación solar	132
150385	7	Sololá	713	San Lucas Tolimán	10	San Lucas Tolimán	9	Septiembre	2023-09-29T00:00:00	2024-11-08T16:00:00	2	Temperatura media	19.1
150386	7	Sololá	713	San Lucas Tolimán	10	San Lucas Tolimán	9	Septiembre	2023-09-29T00:00:00	2024-11-08T16:00:00	4	Temperatura máxima	20.4
150387	7	Sololá	713	San Lucas Tolimán	10	San Lucas Tolimán	9	Septiembre	2023-09-29T00:00:00	2024-11-08T16:00:00	3	Temperatura mínima	19.1
150388	7	Sololá	713	San Lucas Tolimán	10	San Lucas Tolimán	9	Septiembre	2023-09-29T00:00:00	2024-11-08T16:00:00	5	Humedad	91
150389	7	Sololá	713	San Lucas Tolimán	10	San Lucas Tolimán	9	Septiembre	2023-09-29T00:00:00	2024-11-08T16:00:00	6	Velocidad del viento	8
150390	7	Sololá	713	San Lucas Tolimán	10	San Lucas Tolimán	9	Septiembre	2023-09-29T00:00:00	2024-11-08T16:00:00	7	Dirección del viento	8.05
150391	7	Sololá	713	San Lucas Tolimán	10	San Lucas Tolimán	9	Septiembre	2023-09-29T00:00:00	2024-11-08T16:00:00	1	Precipitación	0.2
150392	7	Sololá	713	San Lucas Tolimán	10	San Lucas Tolimán	9	Septiembre	2023-09-29T00:00:00	2024-11-08T16:00:00	8	Radiación solar	27
150393	7	Sololá	713	San Lucas Tolimán	10	San Lucas Tolimán	9	Septiembre	2023-09-29T00:00:00	2024-11-08T17:00:00	2	Temperatura media	18.9
150394	7	Sololá	713	San Lucas Tolimán	10	San Lucas Tolimán	9	Septiembre	2023-09-29T00:00:00	2024-11-08T17:00:00	4	Temperatura máxima	19.6
150395	7	Sololá	713	San Lucas Tolimán	10	San Lucas Tolimán	9	Septiembre	2023-09-29T00:00:00	2024-11-08T17:00:00	3	Temperatura mínima	18.8
150396	7	Sololá	713	San Lucas Tolimán	10	San Lucas Tolimán	9	Septiembre	2023-09-29T00:00:00	2024-11-08T17:00:00	5	Humedad	94
150397	7	Sololá	713	San Lucas Tolimán	10	San Lucas Tolimán	9	Septiembre	2023-09-29T00:00:00	2024-11-08T17:00:00	6	Velocidad del viento	9.7
150398	7	Sololá	713	San Lucas Tolimán	10	San Lucas Tolimán	9	Septiembre	2023-09-29T00:00:00	2024-11-08T17:00:00	7	Dirección del viento	9.66
150399	7	Sololá	713	San Lucas Tolimán	10	San Lucas Tolimán	9	Septiembre	2023-09-29T00:00:00	2024-11-08T17:00:00	1	Precipitación	0
150400	7	Sololá	713	San Lucas Tolimán	10	San Lucas Tolimán	9	Septiembre	2023-09-29T00:00:00	2024-11-08T17:00:00	8	Radiación solar	51
150401	7	Sololá	713	San Lucas Tolimán	10	San Lucas Tolimán	9	Septiembre	2023-09-29T00:00:00	2024-11-08T18:00:00	2	Temperatura media	18.8
150402	7	Sololá	713	San Lucas Tolimán	10	San Lucas Tolimán	9	Septiembre	2023-09-29T00:00:00	2024-11-08T18:00:00	4	Temperatura máxima	19.1
150403	7	Sololá	713	San Lucas Tolimán	10	San Lucas Tolimán	9	Septiembre	2023-09-29T00:00:00	2024-11-08T18:00:00	3	Temperatura mínima	18.7
150404	7	Sololá	713	San Lucas Tolimán	10	San Lucas Tolimán	9	Septiembre	2023-09-29T00:00:00	2024-11-08T18:00:00	5	Humedad	95
150405	7	Sololá	713	San Lucas Tolimán	10	San Lucas Tolimán	9	Septiembre	2023-09-29T00:00:00	2024-11-08T18:00:00	6	Velocidad del viento	3.2
150406	7	Sololá	713	San Lucas Tolimán	10	San Lucas Tolimán	9	Septiembre	2023-09-29T00:00:00	2024-11-08T18:00:00	7	Dirección del viento	3.22
150407	7	Sololá	713	San Lucas Tolimán	10	San Lucas Tolimán	9	Septiembre	2023-09-29T00:00:00	2024-11-08T18:00:00	1	Precipitación	0
150408	7	Sololá	713	San Lucas Tolimán	10	San Lucas Tolimán	9	Septiembre	2023-09-29T00:00:00	2024-11-08T18:00:00	8	Radiación solar	10
150409	7	Sololá	713	San Lucas Tolimán	10	San Lucas Tolimán	9	Septiembre	2023-09-29T00:00:00	2024-11-08T19:00:00	2	Temperatura media	18.7
150410	7	Sololá	713	San Lucas Tolimán	10	San Lucas Tolimán	9	Septiembre	2023-09-29T00:00:00	2024-11-08T19:00:00	4	Temperatura máxima	18.8
150411	7	Sololá	713	San Lucas Tolimán	10	San Lucas Tolimán	9	Septiembre	2023-09-29T00:00:00	2024-11-08T19:00:00	3	Temperatura mínima	18.7
150412	7	Sololá	713	San Lucas Tolimán	10	San Lucas Tolimán	9	Septiembre	2023-09-29T00:00:00	2024-11-08T19:00:00	5	Humedad	95
150413	7	Sololá	713	San Lucas Tolimán	10	San Lucas Tolimán	9	Septiembre	2023-09-29T00:00:00	2024-11-08T19:00:00	6	Velocidad del viento	0
150414	7	Sololá	713	San Lucas Tolimán	10	San Lucas Tolimán	9	Septiembre	2023-09-29T00:00:00	2024-11-08T19:00:00	7	Dirección del viento	0
150415	7	Sololá	713	San Lucas Tolimán	10	San Lucas Tolimán	9	Septiembre	2023-09-29T00:00:00	2024-11-08T19:00:00	1	Precipitación	0
150416	7	Sololá	713	San Lucas Tolimán	10	San Lucas Tolimán	9	Septiembre	2023-09-29T00:00:00	2024-11-08T19:00:00	8	Radiación solar	0
150417	7	Sololá	713	San Lucas Tolimán	10	San Lucas Tolimán	9	Septiembre	2023-09-29T00:00:00	2024-11-08T20:00:00	2	Temperatura media	18.9
150418	7	Sololá	713	San Lucas Tolimán	10	San Lucas Tolimán	9	Septiembre	2023-09-29T00:00:00	2024-11-08T20:00:00	4	Temperatura máxima	19.1
150419	7	Sololá	713	San Lucas Tolimán	10	San Lucas Tolimán	9	Septiembre	2023-09-29T00:00:00	2024-11-08T20:00:00	3	Temperatura mínima	18.7
150420	7	Sololá	713	San Lucas Tolimán	10	San Lucas Tolimán	9	Septiembre	2023-09-29T00:00:00	2024-11-08T20:00:00	5	Humedad	95
150421	7	Sololá	713	San Lucas Tolimán	10	San Lucas Tolimán	9	Septiembre	2023-09-29T00:00:00	2024-11-08T20:00:00	6	Velocidad del viento	1.6
150422	7	Sololá	713	San Lucas Tolimán	10	San Lucas Tolimán	9	Septiembre	2023-09-29T00:00:00	2024-11-08T20:00:00	7	Dirección del viento	1.61
150423	7	Sololá	713	San Lucas Tolimán	10	San Lucas Tolimán	9	Septiembre	2023-09-29T00:00:00	2024-11-08T20:00:00	1	Precipitación	0.2
150424	7	Sololá	713	San Lucas Tolimán	10	San Lucas Tolimán	9	Septiembre	2023-09-29T00:00:00	2024-11-08T20:00:00	8	Radiación solar	0
150425	7	Sololá	713	San Lucas Tolimán	10	San Lucas Tolimán	9	Septiembre	2023-09-29T00:00:00	2024-11-08T21:00:00	2	Temperatura media	18.6
150426	7	Sololá	713	San Lucas Tolimán	10	San Lucas Tolimán	9	Septiembre	2023-09-29T00:00:00	2024-11-08T21:00:00	4	Temperatura máxima	18.9
150427	7	Sololá	713	San Lucas Tolimán	10	San Lucas Tolimán	9	Septiembre	2023-09-29T00:00:00	2024-11-08T21:00:00	3	Temperatura mínima	18.6
150428	7	Sololá	713	San Lucas Tolimán	10	San Lucas Tolimán	9	Septiembre	2023-09-29T00:00:00	2024-11-08T21:00:00	5	Humedad	95
150429	7	Sololá	713	San Lucas Tolimán	10	San Lucas Tolimán	9	Septiembre	2023-09-29T00:00:00	2024-11-08T21:00:00	6	Velocidad del viento	3.2
150430	7	Sololá	713	San Lucas Tolimán	10	San Lucas Tolimán	9	Septiembre	2023-09-29T00:00:00	2024-11-08T21:00:00	7	Dirección del viento	3.22
150431	7	Sololá	713	San Lucas Tolimán	10	San Lucas Tolimán	9	Septiembre	2023-09-29T00:00:00	2024-11-08T21:00:00	1	Precipitación	0
150432	7	Sololá	713	San Lucas Tolimán	10	San Lucas Tolimán	9	Septiembre	2023-09-29T00:00:00	2024-11-08T21:00:00	8	Radiación solar	0
150433	7	Sololá	713	San Lucas Tolimán	10	San Lucas Tolimán	9	Septiembre	2023-09-29T00:00:00	2024-11-08T22:00:00	2	Temperatura media	18.5
150434	7	Sololá	713	San Lucas Tolimán	10	San Lucas Tolimán	9	Septiembre	2023-09-29T00:00:00	2024-11-08T22:00:00	4	Temperatura máxima	18.6
150435	7	Sololá	713	San Lucas Tolimán	10	San Lucas Tolimán	9	Septiembre	2023-09-29T00:00:00	2024-11-08T22:00:00	3	Temperatura mínima	18.4
150436	7	Sololá	713	San Lucas Tolimán	10	San Lucas Tolimán	9	Septiembre	2023-09-29T00:00:00	2024-11-08T22:00:00	5	Humedad	96
150437	7	Sololá	713	San Lucas Tolimán	10	San Lucas Tolimán	9	Septiembre	2023-09-29T00:00:00	2024-11-08T22:00:00	6	Velocidad del viento	0
150438	7	Sololá	713	San Lucas Tolimán	10	San Lucas Tolimán	9	Septiembre	2023-09-29T00:00:00	2024-11-08T22:00:00	7	Dirección del viento	0
150439	7	Sololá	713	San Lucas Tolimán	10	San Lucas Tolimán	9	Septiembre	2023-09-29T00:00:00	2024-11-08T22:00:00	1	Precipitación	0
150440	7	Sololá	713	San Lucas Tolimán	10	San Lucas Tolimán	9	Septiembre	2023-09-29T00:00:00	2024-11-08T22:00:00	8	Radiación solar	0
150441	7	Sololá	713	San Lucas Tolimán	10	San Lucas Tolimán	9	Septiembre	2023-09-29T00:00:00	2024-11-08T23:00:00	2	Temperatura media	18.1
150442	7	Sololá	713	San Lucas Tolimán	10	San Lucas Tolimán	9	Septiembre	2023-09-29T00:00:00	2024-11-08T23:00:00	4	Temperatura máxima	18.6
150443	7	Sololá	713	San Lucas Tolimán	10	San Lucas Tolimán	9	Septiembre	2023-09-29T00:00:00	2024-11-08T23:00:00	3	Temperatura mínima	18.1
150444	7	Sololá	713	San Lucas Tolimán	10	San Lucas Tolimán	9	Septiembre	2023-09-29T00:00:00	2024-11-08T23:00:00	5	Humedad	96
150445	7	Sololá	713	San Lucas Tolimán	10	San Lucas Tolimán	9	Septiembre	2023-09-29T00:00:00	2024-11-08T23:00:00	6	Velocidad del viento	3.2
150446	7	Sololá	713	San Lucas Tolimán	10	San Lucas Tolimán	9	Septiembre	2023-09-29T00:00:00	2024-11-08T23:00:00	7	Dirección del viento	3.22
150447	7	Sololá	713	San Lucas Tolimán	10	San Lucas Tolimán	9	Septiembre	2023-09-29T00:00:00	2024-11-08T23:00:00	1	Precipitación	0
150448	7	Sololá	713	San Lucas Tolimán	10	San Lucas Tolimán	9	Septiembre	2023-09-29T00:00:00	2024-11-08T23:00:00	8	Radiación solar	0
150449	7	Sololá	713	San Lucas Tolimán	10	San Lucas Tolimán	9	Septiembre	2023-09-30T00:00:00	2024-11-08T00:00:00	2	Temperatura media	17.8
150450	7	Sololá	713	San Lucas Tolimán	10	San Lucas Tolimán	9	Septiembre	2023-09-30T00:00:00	2024-11-08T00:00:00	4	Temperatura máxima	18.1
150451	7	Sololá	713	San Lucas Tolimán	10	San Lucas Tolimán	9	Septiembre	2023-09-30T00:00:00	2024-11-08T00:00:00	3	Temperatura mínima	17.8
150452	7	Sololá	713	San Lucas Tolimán	10	San Lucas Tolimán	9	Septiembre	2023-09-30T00:00:00	2024-11-08T00:00:00	5	Humedad	96
150453	7	Sololá	713	San Lucas Tolimán	10	San Lucas Tolimán	9	Septiembre	2023-09-30T00:00:00	2024-11-08T00:00:00	6	Velocidad del viento	1.6
150454	7	Sololá	713	San Lucas Tolimán	10	San Lucas Tolimán	9	Septiembre	2023-09-30T00:00:00	2024-11-08T00:00:00	7	Dirección del viento	1.61
150455	7	Sololá	713	San Lucas Tolimán	10	San Lucas Tolimán	9	Septiembre	2023-09-30T00:00:00	2024-11-08T00:00:00	1	Precipitación	0
150456	7	Sololá	713	San Lucas Tolimán	10	San Lucas Tolimán	9	Septiembre	2023-09-30T00:00:00	2024-11-08T00:00:00	8	Radiación solar	0
150457	7	Sololá	713	San Lucas Tolimán	10	San Lucas Tolimán	9	Septiembre	2023-09-30T00:00:00	2024-11-08T01:00:00	2	Temperatura media	18.1
150458	7	Sololá	713	San Lucas Tolimán	10	San Lucas Tolimán	9	Septiembre	2023-09-30T00:00:00	2024-11-08T01:00:00	4	Temperatura máxima	18.1
150459	7	Sololá	713	San Lucas Tolimán	10	San Lucas Tolimán	9	Septiembre	2023-09-30T00:00:00	2024-11-08T01:00:00	3	Temperatura mínima	17.8
150460	7	Sololá	713	San Lucas Tolimán	10	San Lucas Tolimán	9	Septiembre	2023-09-30T00:00:00	2024-11-08T01:00:00	5	Humedad	97
150461	7	Sololá	713	San Lucas Tolimán	10	San Lucas Tolimán	9	Septiembre	2023-09-30T00:00:00	2024-11-08T01:00:00	6	Velocidad del viento	0
150462	7	Sololá	713	San Lucas Tolimán	10	San Lucas Tolimán	9	Septiembre	2023-09-30T00:00:00	2024-11-08T01:00:00	7	Dirección del viento	0
150463	7	Sololá	713	San Lucas Tolimán	10	San Lucas Tolimán	9	Septiembre	2023-09-30T00:00:00	2024-11-08T01:00:00	1	Precipitación	0
150464	7	Sololá	713	San Lucas Tolimán	10	San Lucas Tolimán	9	Septiembre	2023-09-30T00:00:00	2024-11-08T01:00:00	8	Radiación solar	0
150465	7	Sololá	713	San Lucas Tolimán	10	San Lucas Tolimán	9	Septiembre	2023-09-30T00:00:00	2024-11-08T02:00:00	2	Temperatura media	17.7
150466	7	Sololá	713	San Lucas Tolimán	10	San Lucas Tolimán	9	Septiembre	2023-09-30T00:00:00	2024-11-08T02:00:00	4	Temperatura máxima	18.2
150467	7	Sololá	713	San Lucas Tolimán	10	San Lucas Tolimán	9	Septiembre	2023-09-30T00:00:00	2024-11-08T02:00:00	3	Temperatura mínima	17.7
150468	7	Sololá	713	San Lucas Tolimán	10	San Lucas Tolimán	9	Septiembre	2023-09-30T00:00:00	2024-11-08T02:00:00	5	Humedad	96
150469	7	Sololá	713	San Lucas Tolimán	10	San Lucas Tolimán	9	Septiembre	2023-09-30T00:00:00	2024-11-08T02:00:00	6	Velocidad del viento	0
150470	7	Sololá	713	San Lucas Tolimán	10	San Lucas Tolimán	9	Septiembre	2023-09-30T00:00:00	2024-11-08T02:00:00	7	Dirección del viento	0
150471	7	Sololá	713	San Lucas Tolimán	10	San Lucas Tolimán	9	Septiembre	2023-09-30T00:00:00	2024-11-08T02:00:00	1	Precipitación	0
150472	7	Sololá	713	San Lucas Tolimán	10	San Lucas Tolimán	9	Septiembre	2023-09-30T00:00:00	2024-11-08T02:00:00	8	Radiación solar	0
150473	7	Sololá	713	San Lucas Tolimán	10	San Lucas Tolimán	9	Septiembre	2023-09-30T00:00:00	2024-11-08T03:00:00	2	Temperatura media	17.6
150474	7	Sololá	713	San Lucas Tolimán	10	San Lucas Tolimán	9	Septiembre	2023-09-30T00:00:00	2024-11-08T03:00:00	4	Temperatura máxima	17.7
150475	7	Sololá	713	San Lucas Tolimán	10	San Lucas Tolimán	9	Septiembre	2023-09-30T00:00:00	2024-11-08T03:00:00	3	Temperatura mínima	17.6
150476	7	Sololá	713	San Lucas Tolimán	10	San Lucas Tolimán	9	Septiembre	2023-09-30T00:00:00	2024-11-08T03:00:00	5	Humedad	96
150477	7	Sololá	713	San Lucas Tolimán	10	San Lucas Tolimán	9	Septiembre	2023-09-30T00:00:00	2024-11-08T03:00:00	6	Velocidad del viento	0
150478	7	Sololá	713	San Lucas Tolimán	10	San Lucas Tolimán	9	Septiembre	2023-09-30T00:00:00	2024-11-08T03:00:00	7	Dirección del viento	0
150479	7	Sololá	713	San Lucas Tolimán	10	San Lucas Tolimán	9	Septiembre	2023-09-30T00:00:00	2024-11-08T03:00:00	1	Precipitación	0
150480	7	Sololá	713	San Lucas Tolimán	10	San Lucas Tolimán	9	Septiembre	2023-09-30T00:00:00	2024-11-08T03:00:00	8	Radiación solar	0
150481	7	Sololá	713	San Lucas Tolimán	10	San Lucas Tolimán	9	Septiembre	2023-09-30T00:00:00	2024-11-08T04:00:00	2	Temperatura media	17.3
150482	7	Sololá	713	San Lucas Tolimán	10	San Lucas Tolimán	9	Septiembre	2023-09-30T00:00:00	2024-11-08T04:00:00	4	Temperatura máxima	17.7
150483	7	Sololá	713	San Lucas Tolimán	10	San Lucas Tolimán	9	Septiembre	2023-09-30T00:00:00	2024-11-08T04:00:00	3	Temperatura mínima	17.2
150484	7	Sololá	713	San Lucas Tolimán	10	San Lucas Tolimán	9	Septiembre	2023-09-30T00:00:00	2024-11-08T04:00:00	5	Humedad	96
150485	7	Sololá	713	San Lucas Tolimán	10	San Lucas Tolimán	9	Septiembre	2023-09-30T00:00:00	2024-11-08T04:00:00	6	Velocidad del viento	0
150486	7	Sololá	713	San Lucas Tolimán	10	San Lucas Tolimán	9	Septiembre	2023-09-30T00:00:00	2024-11-08T04:00:00	7	Dirección del viento	0
150487	7	Sololá	713	San Lucas Tolimán	10	San Lucas Tolimán	9	Septiembre	2023-09-30T00:00:00	2024-11-08T04:00:00	1	Precipitación	0
150488	7	Sololá	713	San Lucas Tolimán	10	San Lucas Tolimán	9	Septiembre	2023-09-30T00:00:00	2024-11-08T04:00:00	8	Radiación solar	0
150489	7	Sololá	713	San Lucas Tolimán	10	San Lucas Tolimán	9	Septiembre	2023-09-30T00:00:00	2024-11-08T05:00:00	2	Temperatura media	17.3
150490	7	Sololá	713	San Lucas Tolimán	10	San Lucas Tolimán	9	Septiembre	2023-09-30T00:00:00	2024-11-08T05:00:00	4	Temperatura máxima	17.3
150491	7	Sololá	713	San Lucas Tolimán	10	San Lucas Tolimán	9	Septiembre	2023-09-30T00:00:00	2024-11-08T05:00:00	3	Temperatura mínima	17.1
150492	7	Sololá	713	San Lucas Tolimán	10	San Lucas Tolimán	9	Septiembre	2023-09-30T00:00:00	2024-11-08T05:00:00	5	Humedad	95
150493	7	Sololá	713	San Lucas Tolimán	10	San Lucas Tolimán	9	Septiembre	2023-09-30T00:00:00	2024-11-08T05:00:00	6	Velocidad del viento	0
150494	7	Sololá	713	San Lucas Tolimán	10	San Lucas Tolimán	9	Septiembre	2023-09-30T00:00:00	2024-11-08T05:00:00	7	Dirección del viento	0
150495	7	Sololá	713	San Lucas Tolimán	10	San Lucas Tolimán	9	Septiembre	2023-09-30T00:00:00	2024-11-08T05:00:00	1	Precipitación	0
150496	7	Sololá	713	San Lucas Tolimán	10	San Lucas Tolimán	9	Septiembre	2023-09-30T00:00:00	2024-11-08T05:00:00	8	Radiación solar	0
150497	7	Sololá	713	San Lucas Tolimán	10	San Lucas Tolimán	9	Septiembre	2023-09-30T00:00:00	2024-11-08T06:00:00	2	Temperatura media	17.2
150498	7	Sololá	713	San Lucas Tolimán	10	San Lucas Tolimán	9	Septiembre	2023-09-30T00:00:00	2024-11-08T06:00:00	4	Temperatura máxima	17.6
150499	7	Sololá	713	San Lucas Tolimán	10	San Lucas Tolimán	9	Septiembre	2023-09-30T00:00:00	2024-11-08T06:00:00	3	Temperatura mínima	17.1
150500	7	Sololá	713	San Lucas Tolimán	10	San Lucas Tolimán	9	Septiembre	2023-09-30T00:00:00	2024-11-08T06:00:00	5	Humedad	95
150501	7	Sololá	713	San Lucas Tolimán	10	San Lucas Tolimán	9	Septiembre	2023-09-30T00:00:00	2024-11-08T06:00:00	6	Velocidad del viento	0
150502	7	Sololá	713	San Lucas Tolimán	10	San Lucas Tolimán	9	Septiembre	2023-09-30T00:00:00	2024-11-08T06:00:00	7	Dirección del viento	0
150503	7	Sololá	713	San Lucas Tolimán	10	San Lucas Tolimán	9	Septiembre	2023-09-30T00:00:00	2024-11-08T06:00:00	1	Precipitación	0
150504	7	Sololá	713	San Lucas Tolimán	10	San Lucas Tolimán	9	Septiembre	2023-09-30T00:00:00	2024-11-08T06:00:00	8	Radiación solar	0
150505	7	Sololá	713	San Lucas Tolimán	10	San Lucas Tolimán	9	Septiembre	2023-09-30T00:00:00	2024-11-08T07:00:00	2	Temperatura media	17.3
150506	7	Sololá	713	San Lucas Tolimán	10	San Lucas Tolimán	9	Septiembre	2023-09-30T00:00:00	2024-11-08T07:00:00	4	Temperatura máxima	17.3
150507	7	Sololá	713	San Lucas Tolimán	10	San Lucas Tolimán	9	Septiembre	2023-09-30T00:00:00	2024-11-08T07:00:00	3	Temperatura mínima	16.9
150508	7	Sololá	713	San Lucas Tolimán	10	San Lucas Tolimán	9	Septiembre	2023-09-30T00:00:00	2024-11-08T07:00:00	5	Humedad	96
150509	7	Sololá	713	San Lucas Tolimán	10	San Lucas Tolimán	9	Septiembre	2023-09-30T00:00:00	2024-11-08T07:00:00	6	Velocidad del viento	1.6
150510	7	Sololá	713	San Lucas Tolimán	10	San Lucas Tolimán	9	Septiembre	2023-09-30T00:00:00	2024-11-08T07:00:00	7	Dirección del viento	1.61
150511	7	Sololá	713	San Lucas Tolimán	10	San Lucas Tolimán	9	Septiembre	2023-09-30T00:00:00	2024-11-08T07:00:00	1	Precipitación	0
150512	7	Sololá	713	San Lucas Tolimán	10	San Lucas Tolimán	9	Septiembre	2023-09-30T00:00:00	2024-11-08T07:00:00	8	Radiación solar	40
150513	7	Sololá	713	San Lucas Tolimán	10	San Lucas Tolimán	9	Septiembre	2023-09-30T00:00:00	2024-11-08T08:00:00	2	Temperatura media	21.1
150514	7	Sololá	713	San Lucas Tolimán	10	San Lucas Tolimán	9	Septiembre	2023-09-30T00:00:00	2024-11-08T08:00:00	4	Temperatura máxima	21.1
150515	7	Sololá	713	San Lucas Tolimán	10	San Lucas Tolimán	9	Septiembre	2023-09-30T00:00:00	2024-11-08T08:00:00	3	Temperatura mínima	17.3
150516	7	Sololá	713	San Lucas Tolimán	10	San Lucas Tolimán	9	Septiembre	2023-09-30T00:00:00	2024-11-08T08:00:00	5	Humedad	87
150517	7	Sololá	713	San Lucas Tolimán	10	San Lucas Tolimán	9	Septiembre	2023-09-30T00:00:00	2024-11-08T08:00:00	6	Velocidad del viento	0
150518	7	Sololá	713	San Lucas Tolimán	10	San Lucas Tolimán	9	Septiembre	2023-09-30T00:00:00	2024-11-08T08:00:00	7	Dirección del viento	0
150519	7	Sololá	713	San Lucas Tolimán	10	San Lucas Tolimán	9	Septiembre	2023-09-30T00:00:00	2024-11-08T08:00:00	1	Precipitación	0
150520	7	Sololá	713	San Lucas Tolimán	10	San Lucas Tolimán	9	Septiembre	2023-09-30T00:00:00	2024-11-08T08:00:00	8	Radiación solar	232
150521	7	Sololá	713	San Lucas Tolimán	10	San Lucas Tolimán	9	Septiembre	2023-09-30T00:00:00	2024-11-08T09:00:00	2	Temperatura media	22.8
150522	7	Sololá	713	San Lucas Tolimán	10	San Lucas Tolimán	9	Septiembre	2023-09-30T00:00:00	2024-11-08T09:00:00	4	Temperatura máxima	23.4
150523	7	Sololá	713	San Lucas Tolimán	10	San Lucas Tolimán	9	Septiembre	2023-09-30T00:00:00	2024-11-08T09:00:00	3	Temperatura mínima	21.1
150524	7	Sololá	713	San Lucas Tolimán	10	San Lucas Tolimán	9	Septiembre	2023-09-30T00:00:00	2024-11-08T09:00:00	5	Humedad	80
150525	7	Sololá	713	San Lucas Tolimán	10	San Lucas Tolimán	9	Septiembre	2023-09-30T00:00:00	2024-11-08T09:00:00	6	Velocidad del viento	3.2
150526	7	Sololá	713	San Lucas Tolimán	10	San Lucas Tolimán	9	Septiembre	2023-09-30T00:00:00	2024-11-08T09:00:00	7	Dirección del viento	3.22
150527	7	Sololá	713	San Lucas Tolimán	10	San Lucas Tolimán	9	Septiembre	2023-09-30T00:00:00	2024-11-08T09:00:00	1	Precipitación	0
150528	7	Sololá	713	San Lucas Tolimán	10	San Lucas Tolimán	9	Septiembre	2023-09-30T00:00:00	2024-11-08T09:00:00	8	Radiación solar	423
150529	7	Sololá	713	San Lucas Tolimán	10	San Lucas Tolimán	9	Septiembre	2023-09-30T00:00:00	2024-11-08T10:00:00	2	Temperatura media	23.7
150530	7	Sololá	713	San Lucas Tolimán	10	San Lucas Tolimán	9	Septiembre	2023-09-30T00:00:00	2024-11-08T10:00:00	4	Temperatura máxima	23.9
150531	7	Sololá	713	San Lucas Tolimán	10	San Lucas Tolimán	9	Septiembre	2023-09-30T00:00:00	2024-11-08T10:00:00	3	Temperatura mínima	22.7
150532	7	Sololá	713	San Lucas Tolimán	10	San Lucas Tolimán	9	Septiembre	2023-09-30T00:00:00	2024-11-08T10:00:00	5	Humedad	80
150533	7	Sololá	713	San Lucas Tolimán	10	San Lucas Tolimán	9	Septiembre	2023-09-30T00:00:00	2024-11-08T10:00:00	6	Velocidad del viento	9.7
150534	7	Sololá	713	San Lucas Tolimán	10	San Lucas Tolimán	9	Septiembre	2023-09-30T00:00:00	2024-11-08T10:00:00	7	Dirección del viento	9.66
150535	7	Sololá	713	San Lucas Tolimán	10	San Lucas Tolimán	9	Septiembre	2023-09-30T00:00:00	2024-11-08T10:00:00	1	Precipitación	0
150536	7	Sololá	713	San Lucas Tolimán	10	San Lucas Tolimán	9	Septiembre	2023-09-30T00:00:00	2024-11-08T10:00:00	8	Radiación solar	716
150537	7	Sololá	713	San Lucas Tolimán	10	San Lucas Tolimán	9	Septiembre	2023-09-30T00:00:00	2024-11-08T11:00:00	2	Temperatura media	24.2
150538	7	Sololá	713	San Lucas Tolimán	10	San Lucas Tolimán	9	Septiembre	2023-09-30T00:00:00	2024-11-08T11:00:00	4	Temperatura máxima	24.2
150539	7	Sololá	713	San Lucas Tolimán	10	San Lucas Tolimán	9	Septiembre	2023-09-30T00:00:00	2024-11-08T11:00:00	3	Temperatura mínima	23.6
150540	7	Sololá	713	San Lucas Tolimán	10	San Lucas Tolimán	9	Septiembre	2023-09-30T00:00:00	2024-11-08T11:00:00	5	Humedad	79
150541	7	Sololá	713	San Lucas Tolimán	10	San Lucas Tolimán	9	Septiembre	2023-09-30T00:00:00	2024-11-08T11:00:00	6	Velocidad del viento	11.3
150542	7	Sololá	713	San Lucas Tolimán	10	San Lucas Tolimán	9	Septiembre	2023-09-30T00:00:00	2024-11-08T11:00:00	7	Dirección del viento	11.27
150543	7	Sololá	713	San Lucas Tolimán	10	San Lucas Tolimán	9	Septiembre	2023-09-30T00:00:00	2024-11-08T11:00:00	1	Precipitación	0
150544	7	Sololá	713	San Lucas Tolimán	10	San Lucas Tolimán	9	Septiembre	2023-09-30T00:00:00	2024-11-08T11:00:00	8	Radiación solar	884
150545	7	Sololá	713	San Lucas Tolimán	10	San Lucas Tolimán	9	Septiembre	2023-09-30T00:00:00	2024-11-08T12:00:00	2	Temperatura media	23.4
150546	7	Sololá	713	San Lucas Tolimán	10	San Lucas Tolimán	9	Septiembre	2023-09-30T00:00:00	2024-11-08T12:00:00	4	Temperatura máxima	24.5
150547	7	Sololá	713	San Lucas Tolimán	10	San Lucas Tolimán	9	Septiembre	2023-09-30T00:00:00	2024-11-08T12:00:00	3	Temperatura mínima	23.4
150548	7	Sololá	713	San Lucas Tolimán	10	San Lucas Tolimán	9	Septiembre	2023-09-30T00:00:00	2024-11-08T12:00:00	5	Humedad	84
150549	7	Sololá	713	San Lucas Tolimán	10	San Lucas Tolimán	9	Septiembre	2023-09-30T00:00:00	2024-11-08T12:00:00	6	Velocidad del viento	12.9
150550	7	Sololá	713	San Lucas Tolimán	10	San Lucas Tolimán	9	Septiembre	2023-09-30T00:00:00	2024-11-08T12:00:00	7	Dirección del viento	12.87
150551	7	Sololá	713	San Lucas Tolimán	10	San Lucas Tolimán	9	Septiembre	2023-09-30T00:00:00	2024-11-08T12:00:00	1	Precipitación	0
150552	7	Sololá	713	San Lucas Tolimán	10	San Lucas Tolimán	9	Septiembre	2023-09-30T00:00:00	2024-11-08T12:00:00	8	Radiación solar	946
150553	7	Sololá	713	San Lucas Tolimán	10	San Lucas Tolimán	9	Septiembre	2023-09-30T00:00:00	2024-11-08T13:00:00	2	Temperatura media	23.4
150554	7	Sololá	713	San Lucas Tolimán	10	San Lucas Tolimán	9	Septiembre	2023-09-30T00:00:00	2024-11-08T13:00:00	4	Temperatura máxima	24
150555	7	Sololá	713	San Lucas Tolimán	10	San Lucas Tolimán	9	Septiembre	2023-09-30T00:00:00	2024-11-08T13:00:00	3	Temperatura mínima	22.9
150556	7	Sololá	713	San Lucas Tolimán	10	San Lucas Tolimán	9	Septiembre	2023-09-30T00:00:00	2024-11-08T13:00:00	5	Humedad	83
150557	7	Sololá	713	San Lucas Tolimán	10	San Lucas Tolimán	9	Septiembre	2023-09-30T00:00:00	2024-11-08T13:00:00	6	Velocidad del viento	12.9
150558	7	Sololá	713	San Lucas Tolimán	10	San Lucas Tolimán	9	Septiembre	2023-09-30T00:00:00	2024-11-08T13:00:00	7	Dirección del viento	12.87
150559	7	Sololá	713	San Lucas Tolimán	10	San Lucas Tolimán	9	Septiembre	2023-09-30T00:00:00	2024-11-08T13:00:00	1	Precipitación	0
150560	7	Sololá	713	San Lucas Tolimán	10	San Lucas Tolimán	9	Septiembre	2023-09-30T00:00:00	2024-11-08T13:00:00	8	Radiación solar	805
150561	7	Sololá	713	San Lucas Tolimán	10	San Lucas Tolimán	9	Septiembre	2023-09-30T00:00:00	2024-11-08T14:00:00	2	Temperatura media	22.9
150562	7	Sololá	713	San Lucas Tolimán	10	San Lucas Tolimán	9	Septiembre	2023-09-30T00:00:00	2024-11-08T14:00:00	4	Temperatura máxima	23.5
150563	7	Sololá	713	San Lucas Tolimán	10	San Lucas Tolimán	9	Septiembre	2023-09-30T00:00:00	2024-11-08T14:00:00	3	Temperatura mínima	22.4
150564	7	Sololá	713	San Lucas Tolimán	10	San Lucas Tolimán	9	Septiembre	2023-09-30T00:00:00	2024-11-08T14:00:00	5	Humedad	86
150565	7	Sololá	713	San Lucas Tolimán	10	San Lucas Tolimán	9	Septiembre	2023-09-30T00:00:00	2024-11-08T14:00:00	6	Velocidad del viento	12.9
150566	7	Sololá	713	San Lucas Tolimán	10	San Lucas Tolimán	9	Septiembre	2023-09-30T00:00:00	2024-11-08T14:00:00	7	Dirección del viento	12.87
150567	7	Sololá	713	San Lucas Tolimán	10	San Lucas Tolimán	9	Septiembre	2023-09-30T00:00:00	2024-11-08T14:00:00	1	Precipitación	0
150568	7	Sololá	713	San Lucas Tolimán	10	San Lucas Tolimán	9	Septiembre	2023-09-30T00:00:00	2024-11-08T14:00:00	8	Radiación solar	244
150569	7	Sololá	713	San Lucas Tolimán	10	San Lucas Tolimán	9	Septiembre	2023-09-30T00:00:00	2024-11-08T15:00:00	2	Temperatura media	21.8
150570	7	Sololá	713	San Lucas Tolimán	10	San Lucas Tolimán	9	Septiembre	2023-09-30T00:00:00	2024-11-08T15:00:00	4	Temperatura máxima	23.2
150571	7	Sololá	713	San Lucas Tolimán	10	San Lucas Tolimán	9	Septiembre	2023-09-30T00:00:00	2024-11-08T15:00:00	3	Temperatura mínima	21.7
150572	7	Sololá	713	San Lucas Tolimán	10	San Lucas Tolimán	9	Septiembre	2023-09-30T00:00:00	2024-11-08T15:00:00	5	Humedad	89
150573	7	Sololá	713	San Lucas Tolimán	10	San Lucas Tolimán	9	Septiembre	2023-09-30T00:00:00	2024-11-08T15:00:00	6	Velocidad del viento	11.3
150574	7	Sololá	713	San Lucas Tolimán	10	San Lucas Tolimán	9	Septiembre	2023-09-30T00:00:00	2024-11-08T15:00:00	7	Dirección del viento	11.27
150575	7	Sololá	713	San Lucas Tolimán	10	San Lucas Tolimán	9	Septiembre	2023-09-30T00:00:00	2024-11-08T15:00:00	1	Precipitación	0
150576	7	Sololá	713	San Lucas Tolimán	10	San Lucas Tolimán	9	Septiembre	2023-09-30T00:00:00	2024-11-08T15:00:00	8	Radiación solar	290
150577	7	Sololá	713	San Lucas Tolimán	10	San Lucas Tolimán	9	Septiembre	2023-09-30T00:00:00	2024-11-08T16:00:00	2	Temperatura media	21.7
150578	7	Sololá	713	San Lucas Tolimán	10	San Lucas Tolimán	9	Septiembre	2023-09-30T00:00:00	2024-11-08T16:00:00	4	Temperatura máxima	21.8
150579	7	Sololá	713	San Lucas Tolimán	10	San Lucas Tolimán	9	Septiembre	2023-09-30T00:00:00	2024-11-08T16:00:00	3	Temperatura mínima	21.6
150580	7	Sololá	713	San Lucas Tolimán	10	San Lucas Tolimán	9	Septiembre	2023-09-30T00:00:00	2024-11-08T16:00:00	5	Humedad	88
150581	7	Sololá	713	San Lucas Tolimán	10	San Lucas Tolimán	9	Septiembre	2023-09-30T00:00:00	2024-11-08T16:00:00	6	Velocidad del viento	6.4
150582	7	Sololá	713	San Lucas Tolimán	10	San Lucas Tolimán	9	Septiembre	2023-09-30T00:00:00	2024-11-08T16:00:00	7	Dirección del viento	6.44
150583	7	Sololá	713	San Lucas Tolimán	10	San Lucas Tolimán	9	Septiembre	2023-09-30T00:00:00	2024-11-08T16:00:00	1	Precipitación	0
150584	7	Sololá	713	San Lucas Tolimán	10	San Lucas Tolimán	9	Septiembre	2023-09-30T00:00:00	2024-11-08T16:00:00	8	Radiación solar	69
150585	7	Sololá	713	San Lucas Tolimán	10	San Lucas Tolimán	9	Septiembre	2023-09-30T00:00:00	2024-11-08T17:00:00	2	Temperatura media	21
150586	7	Sololá	713	San Lucas Tolimán	10	San Lucas Tolimán	9	Septiembre	2023-09-30T00:00:00	2024-11-08T17:00:00	4	Temperatura máxima	22.1
150587	7	Sololá	713	San Lucas Tolimán	10	San Lucas Tolimán	9	Septiembre	2023-09-30T00:00:00	2024-11-08T17:00:00	3	Temperatura mínima	21
150588	7	Sololá	713	San Lucas Tolimán	10	San Lucas Tolimán	9	Septiembre	2023-09-30T00:00:00	2024-11-08T17:00:00	5	Humedad	91
150589	7	Sololá	713	San Lucas Tolimán	10	San Lucas Tolimán	9	Septiembre	2023-09-30T00:00:00	2024-11-08T17:00:00	6	Velocidad del viento	6.4
150590	7	Sololá	713	San Lucas Tolimán	10	San Lucas Tolimán	9	Septiembre	2023-09-30T00:00:00	2024-11-08T17:00:00	7	Dirección del viento	6.44
150591	7	Sololá	713	San Lucas Tolimán	10	San Lucas Tolimán	9	Septiembre	2023-09-30T00:00:00	2024-11-08T17:00:00	1	Precipitación	0
150592	7	Sololá	713	San Lucas Tolimán	10	San Lucas Tolimán	9	Septiembre	2023-09-30T00:00:00	2024-11-08T17:00:00	8	Radiación solar	17
150593	7	Sololá	713	San Lucas Tolimán	10	San Lucas Tolimán	9	Septiembre	2023-09-30T00:00:00	2024-11-08T18:00:00	2	Temperatura media	19.9
150594	7	Sololá	713	San Lucas Tolimán	10	San Lucas Tolimán	9	Septiembre	2023-09-30T00:00:00	2024-11-08T18:00:00	4	Temperatura máxima	21
150595	7	Sololá	713	San Lucas Tolimán	10	San Lucas Tolimán	9	Septiembre	2023-09-30T00:00:00	2024-11-08T18:00:00	3	Temperatura mínima	19.9
150596	7	Sololá	713	San Lucas Tolimán	10	San Lucas Tolimán	9	Septiembre	2023-09-30T00:00:00	2024-11-08T18:00:00	5	Humedad	94
150597	7	Sololá	713	San Lucas Tolimán	10	San Lucas Tolimán	9	Septiembre	2023-09-30T00:00:00	2024-11-08T18:00:00	6	Velocidad del viento	6.4
150598	7	Sololá	713	San Lucas Tolimán	10	San Lucas Tolimán	9	Septiembre	2023-09-30T00:00:00	2024-11-08T18:00:00	7	Dirección del viento	6.44
150599	7	Sololá	713	San Lucas Tolimán	10	San Lucas Tolimán	9	Septiembre	2023-09-30T00:00:00	2024-11-08T18:00:00	1	Precipitación	5.6
150600	7	Sololá	713	San Lucas Tolimán	10	San Lucas Tolimán	9	Septiembre	2023-09-30T00:00:00	2024-11-08T18:00:00	8	Radiación solar	11
150601	7	Sololá	713	San Lucas Tolimán	10	San Lucas Tolimán	9	Septiembre	2023-09-30T00:00:00	2024-11-08T19:00:00	2	Temperatura media	19.6
150602	7	Sololá	713	San Lucas Tolimán	10	San Lucas Tolimán	9	Septiembre	2023-09-30T00:00:00	2024-11-08T19:00:00	4	Temperatura máxima	20
150603	7	Sololá	713	San Lucas Tolimán	10	San Lucas Tolimán	9	Septiembre	2023-09-30T00:00:00	2024-11-08T19:00:00	3	Temperatura mínima	19.6
150604	7	Sololá	713	San Lucas Tolimán	10	San Lucas Tolimán	9	Septiembre	2023-09-30T00:00:00	2024-11-08T19:00:00	5	Humedad	95
150605	7	Sololá	713	San Lucas Tolimán	10	San Lucas Tolimán	9	Septiembre	2023-09-30T00:00:00	2024-11-08T19:00:00	6	Velocidad del viento	8
150606	7	Sololá	713	San Lucas Tolimán	10	San Lucas Tolimán	9	Septiembre	2023-09-30T00:00:00	2024-11-08T19:00:00	7	Dirección del viento	8.05
150607	7	Sololá	713	San Lucas Tolimán	10	San Lucas Tolimán	9	Septiembre	2023-09-30T00:00:00	2024-11-08T19:00:00	1	Precipitación	0.6
150608	7	Sololá	713	San Lucas Tolimán	10	San Lucas Tolimán	9	Septiembre	2023-09-30T00:00:00	2024-11-08T19:00:00	8	Radiación solar	0
150609	7	Sololá	713	San Lucas Tolimán	10	San Lucas Tolimán	9	Septiembre	2023-09-30T00:00:00	2024-11-08T20:00:00	2	Temperatura media	18.8
150610	7	Sololá	713	San Lucas Tolimán	10	San Lucas Tolimán	9	Septiembre	2023-09-30T00:00:00	2024-11-08T20:00:00	4	Temperatura máxima	19.6
150611	7	Sololá	713	San Lucas Tolimán	10	San Lucas Tolimán	9	Septiembre	2023-09-30T00:00:00	2024-11-08T20:00:00	3	Temperatura mínima	18.7
150612	7	Sololá	713	San Lucas Tolimán	10	San Lucas Tolimán	9	Septiembre	2023-09-30T00:00:00	2024-11-08T20:00:00	5	Humedad	97
150613	7	Sololá	713	San Lucas Tolimán	10	San Lucas Tolimán	9	Septiembre	2023-09-30T00:00:00	2024-11-08T20:00:00	6	Velocidad del viento	8
150614	7	Sololá	713	San Lucas Tolimán	10	San Lucas Tolimán	9	Septiembre	2023-09-30T00:00:00	2024-11-08T20:00:00	7	Dirección del viento	8.05
150615	7	Sololá	713	San Lucas Tolimán	10	San Lucas Tolimán	9	Septiembre	2023-09-30T00:00:00	2024-11-08T20:00:00	1	Precipitación	0.6
150616	7	Sololá	713	San Lucas Tolimán	10	San Lucas Tolimán	9	Septiembre	2023-09-30T00:00:00	2024-11-08T20:00:00	8	Radiación solar	0
150617	7	Sololá	713	San Lucas Tolimán	10	San Lucas Tolimán	9	Septiembre	2023-09-30T00:00:00	2024-11-08T21:00:00	2	Temperatura media	18.9
150618	7	Sololá	713	San Lucas Tolimán	10	San Lucas Tolimán	9	Septiembre	2023-09-30T00:00:00	2024-11-08T21:00:00	4	Temperatura máxima	18.9
150619	7	Sololá	713	San Lucas Tolimán	10	San Lucas Tolimán	9	Septiembre	2023-09-30T00:00:00	2024-11-08T21:00:00	3	Temperatura mínima	18.7
150620	7	Sololá	713	San Lucas Tolimán	10	San Lucas Tolimán	9	Septiembre	2023-09-30T00:00:00	2024-11-08T21:00:00	5	Humedad	97
150621	7	Sololá	713	San Lucas Tolimán	10	San Lucas Tolimán	9	Septiembre	2023-09-30T00:00:00	2024-11-08T21:00:00	6	Velocidad del viento	1.6
150622	7	Sololá	713	San Lucas Tolimán	10	San Lucas Tolimán	9	Septiembre	2023-09-30T00:00:00	2024-11-08T21:00:00	7	Dirección del viento	1.61
150623	7	Sololá	713	San Lucas Tolimán	10	San Lucas Tolimán	9	Septiembre	2023-09-30T00:00:00	2024-11-08T21:00:00	1	Precipitación	0
150624	7	Sololá	713	San Lucas Tolimán	10	San Lucas Tolimán	9	Septiembre	2023-09-30T00:00:00	2024-11-08T21:00:00	8	Radiación solar	0
150625	7	Sololá	713	San Lucas Tolimán	10	San Lucas Tolimán	9	Septiembre	2023-09-30T00:00:00	2024-11-08T22:00:00	2	Temperatura media	18.9
150626	7	Sololá	713	San Lucas Tolimán	10	San Lucas Tolimán	9	Septiembre	2023-09-30T00:00:00	2024-11-08T22:00:00	4	Temperatura máxima	18.9
150627	7	Sololá	713	San Lucas Tolimán	10	San Lucas Tolimán	9	Septiembre	2023-09-30T00:00:00	2024-11-08T22:00:00	3	Temperatura mínima	18.8
150628	7	Sololá	713	San Lucas Tolimán	10	San Lucas Tolimán	9	Septiembre	2023-09-30T00:00:00	2024-11-08T22:00:00	5	Humedad	97
150629	7	Sololá	713	San Lucas Tolimán	10	San Lucas Tolimán	9	Septiembre	2023-09-30T00:00:00	2024-11-08T22:00:00	6	Velocidad del viento	0
150630	7	Sololá	713	San Lucas Tolimán	10	San Lucas Tolimán	9	Septiembre	2023-09-30T00:00:00	2024-11-08T22:00:00	7	Dirección del viento	0
150631	7	Sololá	713	San Lucas Tolimán	10	San Lucas Tolimán	9	Septiembre	2023-09-30T00:00:00	2024-11-08T22:00:00	1	Precipitación	0
150632	7	Sololá	713	San Lucas Tolimán	10	San Lucas Tolimán	9	Septiembre	2023-09-30T00:00:00	2024-11-08T22:00:00	8	Radiación solar	0
150633	7	Sololá	713	San Lucas Tolimán	10	San Lucas Tolimán	9	Septiembre	2023-09-30T00:00:00	2024-11-08T23:00:00	2	Temperatura media	18.7
150634	7	Sololá	713	San Lucas Tolimán	10	San Lucas Tolimán	9	Septiembre	2023-09-30T00:00:00	2024-11-08T23:00:00	4	Temperatura máxima	19
150635	7	Sololá	713	San Lucas Tolimán	10	San Lucas Tolimán	9	Septiembre	2023-09-30T00:00:00	2024-11-08T23:00:00	3	Temperatura mínima	18.7
150636	7	Sololá	713	San Lucas Tolimán	10	San Lucas Tolimán	9	Septiembre	2023-09-30T00:00:00	2024-11-08T23:00:00	5	Humedad	97
150637	7	Sololá	713	San Lucas Tolimán	10	San Lucas Tolimán	9	Septiembre	2023-09-30T00:00:00	2024-11-08T23:00:00	6	Velocidad del viento	1.6
150638	7	Sololá	713	San Lucas Tolimán	10	San Lucas Tolimán	9	Septiembre	2023-09-30T00:00:00	2024-11-08T23:00:00	7	Dirección del viento	1.61
150639	7	Sololá	713	San Lucas Tolimán	10	San Lucas Tolimán	9	Septiembre	2023-09-30T00:00:00	2024-11-08T23:00:00	1	Precipitación	0
150640	7	Sololá	713	San Lucas Tolimán	10	San Lucas Tolimán	9	Septiembre	2023-09-30T00:00:00	2024-11-08T23:00:00	8	Radiación solar	0
150641	7	Sololá	713	San Lucas Tolimán	10	San Lucas Tolimán	10	Octubre	2023-01-10T00:00:00	2024-11-08T00:00:00	2	Temperatura media	18.2
150642	7	Sololá	713	San Lucas Tolimán	10	San Lucas Tolimán	10	Octubre	2023-01-10T00:00:00	2024-11-08T00:00:00	4	Temperatura máxima	18.7
150643	7	Sololá	713	San Lucas Tolimán	10	San Lucas Tolimán	10	Octubre	2023-01-10T00:00:00	2024-11-08T00:00:00	3	Temperatura mínima	18.1
150644	7	Sololá	713	San Lucas Tolimán	10	San Lucas Tolimán	10	Octubre	2023-01-10T00:00:00	2024-11-08T00:00:00	5	Humedad	96
150645	7	Sololá	713	San Lucas Tolimán	10	San Lucas Tolimán	10	Octubre	2023-01-10T00:00:00	2024-11-08T00:00:00	6	Velocidad del viento	1.6
150646	7	Sololá	713	San Lucas Tolimán	10	San Lucas Tolimán	10	Octubre	2023-01-10T00:00:00	2024-11-08T00:00:00	7	Dirección del viento	1.61
150647	7	Sololá	713	San Lucas Tolimán	10	San Lucas Tolimán	10	Octubre	2023-01-10T00:00:00	2024-11-08T00:00:00	1	Precipitación	0
150648	7	Sololá	713	San Lucas Tolimán	10	San Lucas Tolimán	10	Octubre	2023-01-10T00:00:00	2024-11-08T00:00:00	8	Radiación solar	0
150649	7	Sololá	713	San Lucas Tolimán	10	San Lucas Tolimán	10	Octubre	2023-01-10T00:00:00	2024-11-08T01:00:00	2	Temperatura media	17.6
150650	7	Sololá	713	San Lucas Tolimán	10	San Lucas Tolimán	10	Octubre	2023-01-10T00:00:00	2024-11-08T01:00:00	4	Temperatura máxima	18.2
150651	7	Sololá	713	San Lucas Tolimán	10	San Lucas Tolimán	10	Octubre	2023-01-10T00:00:00	2024-11-08T01:00:00	3	Temperatura mínima	17.6
150652	7	Sololá	713	San Lucas Tolimán	10	San Lucas Tolimán	10	Octubre	2023-01-10T00:00:00	2024-11-08T01:00:00	5	Humedad	96
150653	7	Sololá	713	San Lucas Tolimán	10	San Lucas Tolimán	10	Octubre	2023-01-10T00:00:00	2024-11-08T01:00:00	6	Velocidad del viento	3.2
150654	7	Sololá	713	San Lucas Tolimán	10	San Lucas Tolimán	10	Octubre	2023-01-10T00:00:00	2024-11-08T01:00:00	7	Dirección del viento	3.22
150655	7	Sololá	713	San Lucas Tolimán	10	San Lucas Tolimán	10	Octubre	2023-01-10T00:00:00	2024-11-08T01:00:00	1	Precipitación	0.2
150656	7	Sololá	713	San Lucas Tolimán	10	San Lucas Tolimán	10	Octubre	2023-01-10T00:00:00	2024-11-08T01:00:00	8	Radiación solar	0
150657	7	Sololá	713	San Lucas Tolimán	10	San Lucas Tolimán	10	Octubre	2023-01-10T00:00:00	2024-11-08T02:00:00	2	Temperatura media	17.2
150658	7	Sololá	713	San Lucas Tolimán	10	San Lucas Tolimán	10	Octubre	2023-01-10T00:00:00	2024-11-08T02:00:00	4	Temperatura máxima	17.6
150659	7	Sololá	713	San Lucas Tolimán	10	San Lucas Tolimán	10	Octubre	2023-01-10T00:00:00	2024-11-08T02:00:00	3	Temperatura mínima	17.2
150660	7	Sololá	713	San Lucas Tolimán	10	San Lucas Tolimán	10	Octubre	2023-01-10T00:00:00	2024-11-08T02:00:00	5	Humedad	95
150661	7	Sololá	713	San Lucas Tolimán	10	San Lucas Tolimán	10	Octubre	2023-01-10T00:00:00	2024-11-08T02:00:00	6	Velocidad del viento	1.6
150662	7	Sololá	713	San Lucas Tolimán	10	San Lucas Tolimán	10	Octubre	2023-01-10T00:00:00	2024-11-08T02:00:00	7	Dirección del viento	1.61
150663	7	Sololá	713	San Lucas Tolimán	10	San Lucas Tolimán	10	Octubre	2023-01-10T00:00:00	2024-11-08T02:00:00	1	Precipitación	0
150664	7	Sololá	713	San Lucas Tolimán	10	San Lucas Tolimán	10	Octubre	2023-01-10T00:00:00	2024-11-08T02:00:00	8	Radiación solar	0
150665	7	Sololá	713	San Lucas Tolimán	10	San Lucas Tolimán	10	Octubre	2023-01-10T00:00:00	2024-11-08T03:00:00	2	Temperatura media	16.7
150666	7	Sololá	713	San Lucas Tolimán	10	San Lucas Tolimán	10	Octubre	2023-01-10T00:00:00	2024-11-08T03:00:00	4	Temperatura máxima	17.2
150667	7	Sololá	713	San Lucas Tolimán	10	San Lucas Tolimán	10	Octubre	2023-01-10T00:00:00	2024-11-08T03:00:00	3	Temperatura mínima	16.7
150668	7	Sololá	713	San Lucas Tolimán	10	San Lucas Tolimán	10	Octubre	2023-01-10T00:00:00	2024-11-08T03:00:00	5	Humedad	95
150669	7	Sololá	713	San Lucas Tolimán	10	San Lucas Tolimán	10	Octubre	2023-01-10T00:00:00	2024-11-08T03:00:00	6	Velocidad del viento	1.6
150670	7	Sololá	713	San Lucas Tolimán	10	San Lucas Tolimán	10	Octubre	2023-01-10T00:00:00	2024-11-08T03:00:00	7	Dirección del viento	1.61
150671	7	Sololá	713	San Lucas Tolimán	10	San Lucas Tolimán	10	Octubre	2023-01-10T00:00:00	2024-11-08T03:00:00	1	Precipitación	0
150672	7	Sololá	713	San Lucas Tolimán	10	San Lucas Tolimán	10	Octubre	2023-01-10T00:00:00	2024-11-08T03:00:00	8	Radiación solar	0
150673	7	Sololá	713	San Lucas Tolimán	10	San Lucas Tolimán	10	Octubre	2023-01-10T00:00:00	2024-11-08T04:00:00	2	Temperatura media	16.3
150674	7	Sololá	713	San Lucas Tolimán	10	San Lucas Tolimán	10	Octubre	2023-01-10T00:00:00	2024-11-08T04:00:00	4	Temperatura máxima	16.7
150675	7	Sololá	713	San Lucas Tolimán	10	San Lucas Tolimán	10	Octubre	2023-01-10T00:00:00	2024-11-08T04:00:00	3	Temperatura mínima	16.3
150676	7	Sololá	713	San Lucas Tolimán	10	San Lucas Tolimán	10	Octubre	2023-01-10T00:00:00	2024-11-08T04:00:00	5	Humedad	96
150677	7	Sololá	713	San Lucas Tolimán	10	San Lucas Tolimán	10	Octubre	2023-01-10T00:00:00	2024-11-08T04:00:00	6	Velocidad del viento	1.6
150678	7	Sololá	713	San Lucas Tolimán	10	San Lucas Tolimán	10	Octubre	2023-01-10T00:00:00	2024-11-08T04:00:00	7	Dirección del viento	1.61
150679	7	Sololá	713	San Lucas Tolimán	10	San Lucas Tolimán	10	Octubre	2023-01-10T00:00:00	2024-11-08T04:00:00	1	Precipitación	0
150680	7	Sololá	713	San Lucas Tolimán	10	San Lucas Tolimán	10	Octubre	2023-01-10T00:00:00	2024-11-08T04:00:00	8	Radiación solar	0
150681	7	Sololá	713	San Lucas Tolimán	10	San Lucas Tolimán	10	Octubre	2023-01-10T00:00:00	2024-11-08T05:00:00	2	Temperatura media	15.7
150682	7	Sololá	713	San Lucas Tolimán	10	San Lucas Tolimán	10	Octubre	2023-01-10T00:00:00	2024-11-08T05:00:00	4	Temperatura máxima	16.3
150683	7	Sololá	713	San Lucas Tolimán	10	San Lucas Tolimán	10	Octubre	2023-01-10T00:00:00	2024-11-08T05:00:00	3	Temperatura mínima	15.7
150684	7	Sololá	713	San Lucas Tolimán	10	San Lucas Tolimán	10	Octubre	2023-01-10T00:00:00	2024-11-08T05:00:00	5	Humedad	95
150685	7	Sololá	713	San Lucas Tolimán	10	San Lucas Tolimán	10	Octubre	2023-01-10T00:00:00	2024-11-08T05:00:00	6	Velocidad del viento	3.2
150686	7	Sololá	713	San Lucas Tolimán	10	San Lucas Tolimán	10	Octubre	2023-01-10T00:00:00	2024-11-08T05:00:00	7	Dirección del viento	3.22
150687	7	Sololá	713	San Lucas Tolimán	10	San Lucas Tolimán	10	Octubre	2023-01-10T00:00:00	2024-11-08T05:00:00	1	Precipitación	0
150688	7	Sololá	713	San Lucas Tolimán	10	San Lucas Tolimán	10	Octubre	2023-01-10T00:00:00	2024-11-08T05:00:00	8	Radiación solar	0
150689	7	Sololá	713	San Lucas Tolimán	10	San Lucas Tolimán	10	Octubre	2023-01-10T00:00:00	2024-11-08T06:00:00	2	Temperatura media	15.7
150690	7	Sololá	713	San Lucas Tolimán	10	San Lucas Tolimán	10	Octubre	2023-01-10T00:00:00	2024-11-08T06:00:00	4	Temperatura máxima	15.8
150691	7	Sololá	713	San Lucas Tolimán	10	San Lucas Tolimán	10	Octubre	2023-01-10T00:00:00	2024-11-08T06:00:00	3	Temperatura mínima	15.6
150692	7	Sololá	713	San Lucas Tolimán	10	San Lucas Tolimán	10	Octubre	2023-01-10T00:00:00	2024-11-08T06:00:00	5	Humedad	96
150693	7	Sololá	713	San Lucas Tolimán	10	San Lucas Tolimán	10	Octubre	2023-01-10T00:00:00	2024-11-08T06:00:00	6	Velocidad del viento	1.6
150694	7	Sololá	713	San Lucas Tolimán	10	San Lucas Tolimán	10	Octubre	2023-01-10T00:00:00	2024-11-08T06:00:00	7	Dirección del viento	1.61
150695	7	Sololá	713	San Lucas Tolimán	10	San Lucas Tolimán	10	Octubre	2023-01-10T00:00:00	2024-11-08T06:00:00	1	Precipitación	0
150696	7	Sololá	713	San Lucas Tolimán	10	San Lucas Tolimán	10	Octubre	2023-01-10T00:00:00	2024-11-08T06:00:00	8	Radiación solar	0
150697	7	Sololá	713	San Lucas Tolimán	10	San Lucas Tolimán	10	Octubre	2023-01-10T00:00:00	2024-11-08T07:00:00	2	Temperatura media	16.8
150698	7	Sololá	713	San Lucas Tolimán	10	San Lucas Tolimán	10	Octubre	2023-01-10T00:00:00	2024-11-08T07:00:00	4	Temperatura máxima	16.8
150699	7	Sololá	713	San Lucas Tolimán	10	San Lucas Tolimán	10	Octubre	2023-01-10T00:00:00	2024-11-08T07:00:00	3	Temperatura mínima	15.7
150700	7	Sololá	713	San Lucas Tolimán	10	San Lucas Tolimán	10	Octubre	2023-01-10T00:00:00	2024-11-08T07:00:00	5	Humedad	90
150701	7	Sololá	713	San Lucas Tolimán	10	San Lucas Tolimán	10	Octubre	2023-01-10T00:00:00	2024-11-08T07:00:00	6	Velocidad del viento	1.6
150702	7	Sololá	713	San Lucas Tolimán	10	San Lucas Tolimán	10	Octubre	2023-01-10T00:00:00	2024-11-08T07:00:00	7	Dirección del viento	1.61
150703	7	Sololá	713	San Lucas Tolimán	10	San Lucas Tolimán	10	Octubre	2023-01-10T00:00:00	2024-11-08T07:00:00	1	Precipitación	0
150704	7	Sololá	713	San Lucas Tolimán	10	San Lucas Tolimán	10	Octubre	2023-01-10T00:00:00	2024-11-08T07:00:00	8	Radiación solar	26
150705	7	Sololá	713	San Lucas Tolimán	10	San Lucas Tolimán	10	Octubre	2023-01-10T00:00:00	2024-11-08T08:00:00	2	Temperatura media	20.8
150706	7	Sololá	713	San Lucas Tolimán	10	San Lucas Tolimán	10	Octubre	2023-01-10T00:00:00	2024-11-08T08:00:00	4	Temperatura máxima	20.8
150707	7	Sololá	713	San Lucas Tolimán	10	San Lucas Tolimán	10	Octubre	2023-01-10T00:00:00	2024-11-08T08:00:00	3	Temperatura mínima	16.8
150708	7	Sololá	713	San Lucas Tolimán	10	San Lucas Tolimán	10	Octubre	2023-01-10T00:00:00	2024-11-08T08:00:00	5	Humedad	78
150709	7	Sololá	713	San Lucas Tolimán	10	San Lucas Tolimán	10	Octubre	2023-01-10T00:00:00	2024-11-08T08:00:00	6	Velocidad del viento	1.6
150710	7	Sololá	713	San Lucas Tolimán	10	San Lucas Tolimán	10	Octubre	2023-01-10T00:00:00	2024-11-08T08:00:00	7	Dirección del viento	1.61
150711	7	Sololá	713	San Lucas Tolimán	10	San Lucas Tolimán	10	Octubre	2023-01-10T00:00:00	2024-11-08T08:00:00	1	Precipitación	0
150712	7	Sololá	713	San Lucas Tolimán	10	San Lucas Tolimán	10	Octubre	2023-01-10T00:00:00	2024-11-08T08:00:00	8	Radiación solar	259
150713	7	Sololá	713	San Lucas Tolimán	10	San Lucas Tolimán	10	Octubre	2023-01-10T00:00:00	2024-11-08T09:00:00	2	Temperatura media	23.4
150714	7	Sololá	713	San Lucas Tolimán	10	San Lucas Tolimán	10	Octubre	2023-01-10T00:00:00	2024-11-08T09:00:00	4	Temperatura máxima	23.4
150715	7	Sololá	713	San Lucas Tolimán	10	San Lucas Tolimán	10	Octubre	2023-01-10T00:00:00	2024-11-08T09:00:00	3	Temperatura mínima	20.7
150716	7	Sololá	713	San Lucas Tolimán	10	San Lucas Tolimán	10	Octubre	2023-01-10T00:00:00	2024-11-08T09:00:00	5	Humedad	69
150717	7	Sololá	713	San Lucas Tolimán	10	San Lucas Tolimán	10	Octubre	2023-01-10T00:00:00	2024-11-08T09:00:00	6	Velocidad del viento	1.6
150718	7	Sololá	713	San Lucas Tolimán	10	San Lucas Tolimán	10	Octubre	2023-01-10T00:00:00	2024-11-08T09:00:00	7	Dirección del viento	1.61
150719	7	Sololá	713	San Lucas Tolimán	10	San Lucas Tolimán	10	Octubre	2023-01-10T00:00:00	2024-11-08T09:00:00	1	Precipitación	0
150720	7	Sololá	713	San Lucas Tolimán	10	San Lucas Tolimán	10	Octubre	2023-01-10T00:00:00	2024-11-08T09:00:00	8	Radiación solar	516
150721	7	Sololá	713	San Lucas Tolimán	10	San Lucas Tolimán	10	Octubre	2023-01-10T00:00:00	2024-11-08T10:00:00	2	Temperatura media	22.4
150722	7	Sololá	713	San Lucas Tolimán	10	San Lucas Tolimán	10	Octubre	2023-01-10T00:00:00	2024-11-08T10:00:00	4	Temperatura máxima	24.8
150723	7	Sololá	713	San Lucas Tolimán	10	San Lucas Tolimán	10	Octubre	2023-01-10T00:00:00	2024-11-08T10:00:00	3	Temperatura mínima	22.1
150724	7	Sololá	713	San Lucas Tolimán	10	San Lucas Tolimán	10	Octubre	2023-01-10T00:00:00	2024-11-08T10:00:00	5	Humedad	83
150725	7	Sololá	713	San Lucas Tolimán	10	San Lucas Tolimán	10	Octubre	2023-01-10T00:00:00	2024-11-08T10:00:00	6	Velocidad del viento	9.7
150726	7	Sololá	713	San Lucas Tolimán	10	San Lucas Tolimán	10	Octubre	2023-01-10T00:00:00	2024-11-08T10:00:00	7	Dirección del viento	9.66
150727	7	Sololá	713	San Lucas Tolimán	10	San Lucas Tolimán	10	Octubre	2023-01-10T00:00:00	2024-11-08T10:00:00	1	Precipitación	0
150728	7	Sololá	713	San Lucas Tolimán	10	San Lucas Tolimán	10	Octubre	2023-01-10T00:00:00	2024-11-08T10:00:00	8	Radiación solar	713
150729	7	Sololá	713	San Lucas Tolimán	10	San Lucas Tolimán	10	Octubre	2023-01-10T00:00:00	2024-11-08T11:00:00	2	Temperatura media	23.1
150730	7	Sololá	713	San Lucas Tolimán	10	San Lucas Tolimán	10	Octubre	2023-01-10T00:00:00	2024-11-08T11:00:00	4	Temperatura máxima	23.2
150731	7	Sololá	713	San Lucas Tolimán	10	San Lucas Tolimán	10	Octubre	2023-01-10T00:00:00	2024-11-08T11:00:00	3	Temperatura mínima	22.4
150732	7	Sololá	713	San Lucas Tolimán	10	San Lucas Tolimán	10	Octubre	2023-01-10T00:00:00	2024-11-08T11:00:00	5	Humedad	57
150733	7	Sololá	713	San Lucas Tolimán	10	San Lucas Tolimán	10	Octubre	2023-01-10T00:00:00	2024-11-08T11:00:00	6	Velocidad del viento	12.9
150734	7	Sololá	713	San Lucas Tolimán	10	San Lucas Tolimán	10	Octubre	2023-01-10T00:00:00	2024-11-08T11:00:00	7	Dirección del viento	12.87
150735	7	Sololá	713	San Lucas Tolimán	10	San Lucas Tolimán	10	Octubre	2023-01-10T00:00:00	2024-11-08T11:00:00	1	Precipitación	0
150736	7	Sololá	713	San Lucas Tolimán	10	San Lucas Tolimán	10	Octubre	2023-01-10T00:00:00	2024-11-08T11:00:00	8	Radiación solar	1028
150737	7	Sololá	713	San Lucas Tolimán	10	San Lucas Tolimán	10	Octubre	2023-01-10T00:00:00	2024-11-08T12:00:00	2	Temperatura media	22.4
150738	7	Sololá	713	San Lucas Tolimán	10	San Lucas Tolimán	10	Octubre	2023-01-10T00:00:00	2024-11-08T12:00:00	4	Temperatura máxima	23.2
150739	7	Sololá	713	San Lucas Tolimán	10	San Lucas Tolimán	10	Octubre	2023-01-10T00:00:00	2024-11-08T12:00:00	3	Temperatura mínima	22
150740	7	Sololá	713	San Lucas Tolimán	10	San Lucas Tolimán	10	Octubre	2023-01-10T00:00:00	2024-11-08T12:00:00	5	Humedad	58
150741	7	Sololá	713	San Lucas Tolimán	10	San Lucas Tolimán	10	Octubre	2023-01-10T00:00:00	2024-11-08T12:00:00	6	Velocidad del viento	11.3
150742	7	Sololá	713	San Lucas Tolimán	10	San Lucas Tolimán	10	Octubre	2023-01-10T00:00:00	2024-11-08T12:00:00	7	Dirección del viento	11.27
150743	7	Sololá	713	San Lucas Tolimán	10	San Lucas Tolimán	10	Octubre	2023-01-10T00:00:00	2024-11-08T12:00:00	1	Precipitación	0
150744	7	Sololá	713	San Lucas Tolimán	10	San Lucas Tolimán	10	Octubre	2023-01-10T00:00:00	2024-11-08T12:00:00	8	Radiación solar	887
150745	7	Sololá	713	San Lucas Tolimán	10	San Lucas Tolimán	10	Octubre	2023-01-10T00:00:00	2024-11-08T13:00:00	2	Temperatura media	22.7
150746	7	Sololá	713	San Lucas Tolimán	10	San Lucas Tolimán	10	Octubre	2023-01-10T00:00:00	2024-11-08T13:00:00	4	Temperatura máxima	23.2
150747	7	Sololá	713	San Lucas Tolimán	10	San Lucas Tolimán	10	Octubre	2023-01-10T00:00:00	2024-11-08T13:00:00	3	Temperatura mínima	22.1
150748	7	Sololá	713	San Lucas Tolimán	10	San Lucas Tolimán	10	Octubre	2023-01-10T00:00:00	2024-11-08T13:00:00	5	Humedad	58
150749	7	Sololá	713	San Lucas Tolimán	10	San Lucas Tolimán	10	Octubre	2023-01-10T00:00:00	2024-11-08T13:00:00	6	Velocidad del viento	11.3
150750	7	Sololá	713	San Lucas Tolimán	10	San Lucas Tolimán	10	Octubre	2023-01-10T00:00:00	2024-11-08T13:00:00	7	Dirección del viento	11.27
150751	7	Sololá	713	San Lucas Tolimán	10	San Lucas Tolimán	10	Octubre	2023-01-10T00:00:00	2024-11-08T13:00:00	1	Precipitación	0
150752	7	Sololá	713	San Lucas Tolimán	10	San Lucas Tolimán	10	Octubre	2023-01-10T00:00:00	2024-11-08T13:00:00	8	Radiación solar	968
150753	7	Sololá	713	San Lucas Tolimán	10	San Lucas Tolimán	10	Octubre	2023-01-10T00:00:00	2024-11-08T14:00:00	2	Temperatura media	22.9
150754	7	Sololá	713	San Lucas Tolimán	10	San Lucas Tolimán	10	Octubre	2023-01-10T00:00:00	2024-11-08T14:00:00	4	Temperatura máxima	23
150755	7	Sololá	713	San Lucas Tolimán	10	San Lucas Tolimán	10	Octubre	2023-01-10T00:00:00	2024-11-08T14:00:00	3	Temperatura mínima	21.8
150756	7	Sololá	713	San Lucas Tolimán	10	San Lucas Tolimán	10	Octubre	2023-01-10T00:00:00	2024-11-08T14:00:00	5	Humedad	59
150757	7	Sololá	713	San Lucas Tolimán	10	San Lucas Tolimán	10	Octubre	2023-01-10T00:00:00	2024-11-08T14:00:00	6	Velocidad del viento	9.7
150758	7	Sololá	713	San Lucas Tolimán	10	San Lucas Tolimán	10	Octubre	2023-01-10T00:00:00	2024-11-08T14:00:00	7	Dirección del viento	9.66
150759	7	Sololá	713	San Lucas Tolimán	10	San Lucas Tolimán	10	Octubre	2023-01-10T00:00:00	2024-11-08T14:00:00	1	Precipitación	0
150760	7	Sololá	713	San Lucas Tolimán	10	San Lucas Tolimán	10	Octubre	2023-01-10T00:00:00	2024-11-08T14:00:00	8	Radiación solar	607
150761	7	Sololá	713	San Lucas Tolimán	10	San Lucas Tolimán	10	Octubre	2023-01-10T00:00:00	2024-11-08T15:00:00	2	Temperatura media	21.4
150762	7	Sololá	713	San Lucas Tolimán	10	San Lucas Tolimán	10	Octubre	2023-01-10T00:00:00	2024-11-08T15:00:00	4	Temperatura máxima	23.2
150763	7	Sololá	713	San Lucas Tolimán	10	San Lucas Tolimán	10	Octubre	2023-01-10T00:00:00	2024-11-08T15:00:00	3	Temperatura mínima	21.4
150764	7	Sololá	713	San Lucas Tolimán	10	San Lucas Tolimán	10	Octubre	2023-01-10T00:00:00	2024-11-08T15:00:00	5	Humedad	62
150765	7	Sololá	713	San Lucas Tolimán	10	San Lucas Tolimán	10	Octubre	2023-01-10T00:00:00	2024-11-08T15:00:00	6	Velocidad del viento	11.3
150766	7	Sololá	713	San Lucas Tolimán	10	San Lucas Tolimán	10	Octubre	2023-01-10T00:00:00	2024-11-08T15:00:00	7	Dirección del viento	11.27
150767	7	Sololá	713	San Lucas Tolimán	10	San Lucas Tolimán	10	Octubre	2023-01-10T00:00:00	2024-11-08T15:00:00	1	Precipitación	0
150768	7	Sololá	713	San Lucas Tolimán	10	San Lucas Tolimán	10	Octubre	2023-01-10T00:00:00	2024-11-08T15:00:00	8	Radiación solar	359
150769	7	Sololá	713	San Lucas Tolimán	10	San Lucas Tolimán	10	Octubre	2023-01-10T00:00:00	2024-11-08T16:00:00	2	Temperatura media	20.6
150770	7	Sololá	713	San Lucas Tolimán	10	San Lucas Tolimán	10	Octubre	2023-01-10T00:00:00	2024-11-08T16:00:00	4	Temperatura máxima	21.4
150771	7	Sololá	713	San Lucas Tolimán	10	San Lucas Tolimán	10	Octubre	2023-01-10T00:00:00	2024-11-08T16:00:00	3	Temperatura mínima	20.4
150772	7	Sololá	713	San Lucas Tolimán	10	San Lucas Tolimán	10	Octubre	2023-01-10T00:00:00	2024-11-08T16:00:00	5	Humedad	64
150773	7	Sololá	713	San Lucas Tolimán	10	San Lucas Tolimán	10	Octubre	2023-01-10T00:00:00	2024-11-08T16:00:00	6	Velocidad del viento	9.7
150774	7	Sololá	713	San Lucas Tolimán	10	San Lucas Tolimán	10	Octubre	2023-01-10T00:00:00	2024-11-08T16:00:00	7	Dirección del viento	9.66
150775	7	Sololá	713	San Lucas Tolimán	10	San Lucas Tolimán	10	Octubre	2023-01-10T00:00:00	2024-11-08T16:00:00	1	Precipitación	0
150776	7	Sololá	713	San Lucas Tolimán	10	San Lucas Tolimán	10	Octubre	2023-01-10T00:00:00	2024-11-08T16:00:00	8	Radiación solar	111
150777	7	Sololá	713	San Lucas Tolimán	10	San Lucas Tolimán	10	Octubre	2023-01-10T00:00:00	2024-11-08T17:00:00	2	Temperatura media	20.1
150778	7	Sololá	713	San Lucas Tolimán	10	San Lucas Tolimán	10	Octubre	2023-01-10T00:00:00	2024-11-08T17:00:00	4	Temperatura máxima	20.7
150779	7	Sololá	713	San Lucas Tolimán	10	San Lucas Tolimán	10	Octubre	2023-01-10T00:00:00	2024-11-08T17:00:00	3	Temperatura mínima	20.1
150780	7	Sololá	713	San Lucas Tolimán	10	San Lucas Tolimán	10	Octubre	2023-01-10T00:00:00	2024-11-08T17:00:00	5	Humedad	64
150781	7	Sololá	713	San Lucas Tolimán	10	San Lucas Tolimán	10	Octubre	2023-01-10T00:00:00	2024-11-08T17:00:00	6	Velocidad del viento	9.7
150782	7	Sololá	713	San Lucas Tolimán	10	San Lucas Tolimán	10	Octubre	2023-01-10T00:00:00	2024-11-08T17:00:00	7	Dirección del viento	9.66
150783	7	Sololá	713	San Lucas Tolimán	10	San Lucas Tolimán	10	Octubre	2023-01-10T00:00:00	2024-11-08T17:00:00	1	Precipitación	0
150784	7	Sololá	713	San Lucas Tolimán	10	San Lucas Tolimán	10	Octubre	2023-01-10T00:00:00	2024-11-08T17:00:00	8	Radiación solar	75
150785	7	Sololá	713	San Lucas Tolimán	10	San Lucas Tolimán	10	Octubre	2023-01-10T00:00:00	2024-11-08T18:00:00	2	Temperatura media	18.2
150786	7	Sololá	713	San Lucas Tolimán	10	San Lucas Tolimán	10	Octubre	2023-01-10T00:00:00	2024-11-08T18:00:00	4	Temperatura máxima	20.2
150787	7	Sololá	713	San Lucas Tolimán	10	San Lucas Tolimán	10	Octubre	2023-01-10T00:00:00	2024-11-08T18:00:00	3	Temperatura mínima	18.1
150788	7	Sololá	713	San Lucas Tolimán	10	San Lucas Tolimán	10	Octubre	2023-01-10T00:00:00	2024-11-08T18:00:00	5	Humedad	67
150789	7	Sololá	713	San Lucas Tolimán	10	San Lucas Tolimán	10	Octubre	2023-01-10T00:00:00	2024-11-08T18:00:00	6	Velocidad del viento	11.3
150790	7	Sololá	713	San Lucas Tolimán	10	San Lucas Tolimán	10	Octubre	2023-01-10T00:00:00	2024-11-08T18:00:00	7	Dirección del viento	11.27
150791	7	Sololá	713	San Lucas Tolimán	10	San Lucas Tolimán	10	Octubre	2023-01-10T00:00:00	2024-11-08T18:00:00	1	Precipitación	0
150792	7	Sololá	713	San Lucas Tolimán	10	San Lucas Tolimán	10	Octubre	2023-01-10T00:00:00	2024-11-08T18:00:00	8	Radiación solar	13
150793	7	Sololá	713	San Lucas Tolimán	10	San Lucas Tolimán	10	Octubre	2023-01-10T00:00:00	2024-11-08T19:00:00	2	Temperatura media	18.1
150794	7	Sololá	713	San Lucas Tolimán	10	San Lucas Tolimán	10	Octubre	2023-01-10T00:00:00	2024-11-08T19:00:00	4	Temperatura máxima	18.2
150795	7	Sololá	713	San Lucas Tolimán	10	San Lucas Tolimán	10	Octubre	2023-01-10T00:00:00	2024-11-08T19:00:00	3	Temperatura mínima	18
150796	7	Sololá	713	San Lucas Tolimán	10	San Lucas Tolimán	10	Octubre	2023-01-10T00:00:00	2024-11-08T19:00:00	5	Humedad	67
150797	7	Sololá	713	San Lucas Tolimán	10	San Lucas Tolimán	10	Octubre	2023-01-10T00:00:00	2024-11-08T19:00:00	6	Velocidad del viento	4.8
150798	7	Sololá	713	San Lucas Tolimán	10	San Lucas Tolimán	10	Octubre	2023-01-10T00:00:00	2024-11-08T19:00:00	7	Dirección del viento	4.83
150799	7	Sololá	713	San Lucas Tolimán	10	San Lucas Tolimán	10	Octubre	2023-01-10T00:00:00	2024-11-08T19:00:00	1	Precipitación	0
150800	7	Sololá	713	San Lucas Tolimán	10	San Lucas Tolimán	10	Octubre	2023-01-10T00:00:00	2024-11-08T19:00:00	8	Radiación solar	0
150801	7	Sololá	713	San Lucas Tolimán	10	San Lucas Tolimán	10	Octubre	2023-01-10T00:00:00	2024-11-08T20:00:00	2	Temperatura media	18.3
150802	7	Sololá	713	San Lucas Tolimán	10	San Lucas Tolimán	10	Octubre	2023-01-10T00:00:00	2024-11-08T20:00:00	4	Temperatura máxima	18.3
150803	7	Sololá	713	San Lucas Tolimán	10	San Lucas Tolimán	10	Octubre	2023-01-10T00:00:00	2024-11-08T20:00:00	3	Temperatura mínima	18
150804	7	Sololá	713	San Lucas Tolimán	10	San Lucas Tolimán	10	Octubre	2023-01-10T00:00:00	2024-11-08T20:00:00	5	Humedad	66
150805	7	Sololá	713	San Lucas Tolimán	10	San Lucas Tolimán	10	Octubre	2023-01-10T00:00:00	2024-11-08T20:00:00	6	Velocidad del viento	3.2
150806	7	Sololá	713	San Lucas Tolimán	10	San Lucas Tolimán	10	Octubre	2023-01-10T00:00:00	2024-11-08T20:00:00	7	Dirección del viento	3.22
150807	7	Sololá	713	San Lucas Tolimán	10	San Lucas Tolimán	10	Octubre	2023-01-10T00:00:00	2024-11-08T20:00:00	1	Precipitación	0
150808	7	Sololá	713	San Lucas Tolimán	10	San Lucas Tolimán	10	Octubre	2023-01-10T00:00:00	2024-11-08T20:00:00	8	Radiación solar	0
150809	7	Sololá	713	San Lucas Tolimán	10	San Lucas Tolimán	10	Octubre	2023-01-10T00:00:00	2024-11-08T21:00:00	2	Temperatura media	18.3
150810	7	Sololá	713	San Lucas Tolimán	10	San Lucas Tolimán	10	Octubre	2023-01-10T00:00:00	2024-11-08T21:00:00	4	Temperatura máxima	18.6
150811	7	Sololá	713	San Lucas Tolimán	10	San Lucas Tolimán	10	Octubre	2023-01-10T00:00:00	2024-11-08T21:00:00	3	Temperatura mínima	18.3
150812	7	Sololá	713	San Lucas Tolimán	10	San Lucas Tolimán	10	Octubre	2023-01-10T00:00:00	2024-11-08T21:00:00	5	Humedad	66
150813	7	Sololá	713	San Lucas Tolimán	10	San Lucas Tolimán	10	Octubre	2023-01-10T00:00:00	2024-11-08T21:00:00	6	Velocidad del viento	4.8
150814	7	Sololá	713	San Lucas Tolimán	10	San Lucas Tolimán	10	Octubre	2023-01-10T00:00:00	2024-11-08T21:00:00	7	Dirección del viento	4.83
150815	7	Sololá	713	San Lucas Tolimán	10	San Lucas Tolimán	10	Octubre	2023-01-10T00:00:00	2024-11-08T21:00:00	1	Precipitación	0.8
150816	7	Sololá	713	San Lucas Tolimán	10	San Lucas Tolimán	10	Octubre	2023-01-10T00:00:00	2024-11-08T21:00:00	8	Radiación solar	0
150817	7	Sololá	713	San Lucas Tolimán	10	San Lucas Tolimán	10	Octubre	2023-01-10T00:00:00	2024-11-08T22:00:00	2	Temperatura media	18.2
150818	7	Sololá	713	San Lucas Tolimán	10	San Lucas Tolimán	10	Octubre	2023-01-10T00:00:00	2024-11-08T22:00:00	4	Temperatura máxima	18.4
150819	7	Sololá	713	San Lucas Tolimán	10	San Lucas Tolimán	10	Octubre	2023-01-10T00:00:00	2024-11-08T22:00:00	3	Temperatura mínima	18.1
150820	7	Sololá	713	San Lucas Tolimán	10	San Lucas Tolimán	10	Octubre	2023-01-10T00:00:00	2024-11-08T22:00:00	5	Humedad	67
150821	7	Sololá	713	San Lucas Tolimán	10	San Lucas Tolimán	10	Octubre	2023-01-10T00:00:00	2024-11-08T22:00:00	6	Velocidad del viento	3.2
150822	7	Sololá	713	San Lucas Tolimán	10	San Lucas Tolimán	10	Octubre	2023-01-10T00:00:00	2024-11-08T22:00:00	7	Dirección del viento	3.22
150823	7	Sololá	713	San Lucas Tolimán	10	San Lucas Tolimán	10	Octubre	2023-01-10T00:00:00	2024-11-08T22:00:00	1	Precipitación	0.8
150824	7	Sololá	713	San Lucas Tolimán	10	San Lucas Tolimán	10	Octubre	2023-01-10T00:00:00	2024-11-08T22:00:00	8	Radiación solar	0
150825	7	Sololá	713	San Lucas Tolimán	10	San Lucas Tolimán	10	Octubre	2023-01-10T00:00:00	2024-11-08T23:00:00	2	Temperatura media	18.3
150826	7	Sololá	713	San Lucas Tolimán	10	San Lucas Tolimán	10	Octubre	2023-01-10T00:00:00	2024-11-08T23:00:00	4	Temperatura máxima	18.4
150827	7	Sololá	713	San Lucas Tolimán	10	San Lucas Tolimán	10	Octubre	2023-01-10T00:00:00	2024-11-08T23:00:00	3	Temperatura mínima	18.1
150828	7	Sololá	713	San Lucas Tolimán	10	San Lucas Tolimán	10	Octubre	2023-01-10T00:00:00	2024-11-08T23:00:00	5	Humedad	66
150829	7	Sololá	713	San Lucas Tolimán	10	San Lucas Tolimán	10	Octubre	2023-01-10T00:00:00	2024-11-08T23:00:00	6	Velocidad del viento	3.2
150830	7	Sololá	713	San Lucas Tolimán	10	San Lucas Tolimán	10	Octubre	2023-01-10T00:00:00	2024-11-08T23:00:00	7	Dirección del viento	3.22
150831	7	Sololá	713	San Lucas Tolimán	10	San Lucas Tolimán	10	Octubre	2023-01-10T00:00:00	2024-11-08T23:00:00	1	Precipitación	0.2
150832	7	Sololá	713	San Lucas Tolimán	10	San Lucas Tolimán	10	Octubre	2023-01-10T00:00:00	2024-11-08T23:00:00	8	Radiación solar	0
150833	7	Sololá	713	San Lucas Tolimán	10	San Lucas Tolimán	10	Octubre	2023-02-10T00:00:00	2024-11-08T00:00:00	2	Temperatura media	18.2
150834	7	Sololá	713	San Lucas Tolimán	10	San Lucas Tolimán	10	Octubre	2023-02-10T00:00:00	2024-11-08T00:00:00	4	Temperatura máxima	18.4
150835	7	Sololá	713	San Lucas Tolimán	10	San Lucas Tolimán	10	Octubre	2023-02-10T00:00:00	2024-11-08T00:00:00	3	Temperatura mínima	18.1
150836	7	Sololá	713	San Lucas Tolimán	10	San Lucas Tolimán	10	Octubre	2023-02-10T00:00:00	2024-11-08T00:00:00	5	Humedad	67
150837	7	Sololá	713	San Lucas Tolimán	10	San Lucas Tolimán	10	Octubre	2023-02-10T00:00:00	2024-11-08T00:00:00	6	Velocidad del viento	4.8
150838	7	Sololá	713	San Lucas Tolimán	10	San Lucas Tolimán	10	Octubre	2023-02-10T00:00:00	2024-11-08T00:00:00	7	Dirección del viento	4.83
150839	7	Sololá	713	San Lucas Tolimán	10	San Lucas Tolimán	10	Octubre	2023-02-10T00:00:00	2024-11-08T00:00:00	1	Precipitación	0
150840	7	Sololá	713	San Lucas Tolimán	10	San Lucas Tolimán	10	Octubre	2023-02-10T00:00:00	2024-11-08T00:00:00	8	Radiación solar	0
150841	7	Sololá	713	San Lucas Tolimán	10	San Lucas Tolimán	10	Octubre	2023-02-10T00:00:00	2024-11-08T01:00:00	2	Temperatura media	17.9
150842	7	Sololá	713	San Lucas Tolimán	10	San Lucas Tolimán	10	Octubre	2023-02-10T00:00:00	2024-11-08T01:00:00	4	Temperatura máxima	18.2
150843	7	Sololá	713	San Lucas Tolimán	10	San Lucas Tolimán	10	Octubre	2023-02-10T00:00:00	2024-11-08T01:00:00	3	Temperatura mínima	17.8
150844	7	Sololá	713	San Lucas Tolimán	10	San Lucas Tolimán	10	Octubre	2023-02-10T00:00:00	2024-11-08T01:00:00	5	Humedad	67
150845	7	Sololá	713	San Lucas Tolimán	10	San Lucas Tolimán	10	Octubre	2023-02-10T00:00:00	2024-11-08T01:00:00	6	Velocidad del viento	4.8
150846	7	Sololá	713	San Lucas Tolimán	10	San Lucas Tolimán	10	Octubre	2023-02-10T00:00:00	2024-11-08T01:00:00	7	Dirección del viento	4.83
150847	7	Sololá	713	San Lucas Tolimán	10	San Lucas Tolimán	10	Octubre	2023-02-10T00:00:00	2024-11-08T01:00:00	1	Precipitación	0
150848	7	Sololá	713	San Lucas Tolimán	10	San Lucas Tolimán	10	Octubre	2023-02-10T00:00:00	2024-11-08T01:00:00	8	Radiación solar	0
150849	7	Sololá	713	San Lucas Tolimán	10	San Lucas Tolimán	10	Octubre	2023-02-10T00:00:00	2024-11-08T02:00:00	2	Temperatura media	17.7
150850	7	Sololá	713	San Lucas Tolimán	10	San Lucas Tolimán	10	Octubre	2023-02-10T00:00:00	2024-11-08T02:00:00	4	Temperatura máxima	17.9
150851	7	Sololá	713	San Lucas Tolimán	10	San Lucas Tolimán	10	Octubre	2023-02-10T00:00:00	2024-11-08T02:00:00	3	Temperatura mínima	17.6
150852	7	Sololá	713	San Lucas Tolimán	10	San Lucas Tolimán	10	Octubre	2023-02-10T00:00:00	2024-11-08T02:00:00	5	Humedad	68
150853	7	Sololá	713	San Lucas Tolimán	10	San Lucas Tolimán	10	Octubre	2023-02-10T00:00:00	2024-11-08T02:00:00	6	Velocidad del viento	4.8
150854	7	Sololá	713	San Lucas Tolimán	10	San Lucas Tolimán	10	Octubre	2023-02-10T00:00:00	2024-11-08T02:00:00	7	Dirección del viento	4.83
150855	7	Sololá	713	San Lucas Tolimán	10	San Lucas Tolimán	10	Octubre	2023-02-10T00:00:00	2024-11-08T02:00:00	1	Precipitación	0
150856	7	Sololá	713	San Lucas Tolimán	10	San Lucas Tolimán	10	Octubre	2023-02-10T00:00:00	2024-11-08T02:00:00	8	Radiación solar	0
150857	7	Sololá	713	San Lucas Tolimán	10	San Lucas Tolimán	10	Octubre	2023-02-10T00:00:00	2024-11-08T03:00:00	2	Temperatura media	17.3
150858	7	Sololá	713	San Lucas Tolimán	10	San Lucas Tolimán	10	Octubre	2023-02-10T00:00:00	2024-11-08T03:00:00	4	Temperatura máxima	17.8
150859	7	Sololá	713	San Lucas Tolimán	10	San Lucas Tolimán	10	Octubre	2023-02-10T00:00:00	2024-11-08T03:00:00	3	Temperatura mínima	17.3
150860	7	Sololá	713	San Lucas Tolimán	10	San Lucas Tolimán	10	Octubre	2023-02-10T00:00:00	2024-11-08T03:00:00	5	Humedad	68
150861	7	Sololá	713	San Lucas Tolimán	10	San Lucas Tolimán	10	Octubre	2023-02-10T00:00:00	2024-11-08T03:00:00	6	Velocidad del viento	1.6
150862	7	Sololá	713	San Lucas Tolimán	10	San Lucas Tolimán	10	Octubre	2023-02-10T00:00:00	2024-11-08T03:00:00	7	Dirección del viento	1.61
150863	7	Sololá	713	San Lucas Tolimán	10	San Lucas Tolimán	10	Octubre	2023-02-10T00:00:00	2024-11-08T03:00:00	1	Precipitación	0
150864	7	Sololá	713	San Lucas Tolimán	10	San Lucas Tolimán	10	Octubre	2023-02-10T00:00:00	2024-11-08T03:00:00	8	Radiación solar	0
150865	7	Sololá	713	San Lucas Tolimán	10	San Lucas Tolimán	10	Octubre	2023-02-10T00:00:00	2024-11-08T04:00:00	2	Temperatura media	17.1
150866	7	Sololá	713	San Lucas Tolimán	10	San Lucas Tolimán	10	Octubre	2023-02-10T00:00:00	2024-11-08T04:00:00	4	Temperatura máxima	17.3
150867	7	Sololá	713	San Lucas Tolimán	10	San Lucas Tolimán	10	Octubre	2023-02-10T00:00:00	2024-11-08T04:00:00	3	Temperatura mínima	17.1
150868	7	Sololá	713	San Lucas Tolimán	10	San Lucas Tolimán	10	Octubre	2023-02-10T00:00:00	2024-11-08T04:00:00	5	Humedad	67
150869	7	Sololá	713	San Lucas Tolimán	10	San Lucas Tolimán	10	Octubre	2023-02-10T00:00:00	2024-11-08T04:00:00	6	Velocidad del viento	0
150870	7	Sololá	713	San Lucas Tolimán	10	San Lucas Tolimán	10	Octubre	2023-02-10T00:00:00	2024-11-08T04:00:00	7	Dirección del viento	0
150871	7	Sololá	713	San Lucas Tolimán	10	San Lucas Tolimán	10	Octubre	2023-02-10T00:00:00	2024-11-08T04:00:00	1	Precipitación	0
150872	7	Sololá	713	San Lucas Tolimán	10	San Lucas Tolimán	10	Octubre	2023-02-10T00:00:00	2024-11-08T04:00:00	8	Radiación solar	0
150873	7	Sololá	713	San Lucas Tolimán	10	San Lucas Tolimán	10	Octubre	2023-02-10T00:00:00	2024-11-08T05:00:00	2	Temperatura media	16.7
150874	7	Sololá	713	San Lucas Tolimán	10	San Lucas Tolimán	10	Octubre	2023-02-10T00:00:00	2024-11-08T05:00:00	4	Temperatura máxima	17.1
150875	7	Sololá	713	San Lucas Tolimán	10	San Lucas Tolimán	10	Octubre	2023-02-10T00:00:00	2024-11-08T05:00:00	3	Temperatura mínima	16.7
150876	7	Sololá	713	San Lucas Tolimán	10	San Lucas Tolimán	10	Octubre	2023-02-10T00:00:00	2024-11-08T05:00:00	5	Humedad	67
150877	7	Sololá	713	San Lucas Tolimán	10	San Lucas Tolimán	10	Octubre	2023-02-10T00:00:00	2024-11-08T05:00:00	6	Velocidad del viento	1.6
150878	7	Sololá	713	San Lucas Tolimán	10	San Lucas Tolimán	10	Octubre	2023-02-10T00:00:00	2024-11-08T05:00:00	7	Dirección del viento	1.61
150879	7	Sololá	713	San Lucas Tolimán	10	San Lucas Tolimán	10	Octubre	2023-02-10T00:00:00	2024-11-08T05:00:00	1	Precipitación	0
150880	7	Sololá	713	San Lucas Tolimán	10	San Lucas Tolimán	10	Octubre	2023-02-10T00:00:00	2024-11-08T05:00:00	8	Radiación solar	0
150881	7	Sololá	713	San Lucas Tolimán	10	San Lucas Tolimán	10	Octubre	2023-02-10T00:00:00	2024-11-08T06:00:00	2	Temperatura media	16.4
150882	7	Sololá	713	San Lucas Tolimán	10	San Lucas Tolimán	10	Octubre	2023-02-10T00:00:00	2024-11-08T06:00:00	4	Temperatura máxima	16.7
150883	7	Sololá	713	San Lucas Tolimán	10	San Lucas Tolimán	10	Octubre	2023-02-10T00:00:00	2024-11-08T06:00:00	3	Temperatura mínima	16.4
150884	7	Sololá	713	San Lucas Tolimán	10	San Lucas Tolimán	10	Octubre	2023-02-10T00:00:00	2024-11-08T06:00:00	5	Humedad	67
150885	7	Sololá	713	San Lucas Tolimán	10	San Lucas Tolimán	10	Octubre	2023-02-10T00:00:00	2024-11-08T06:00:00	6	Velocidad del viento	1.6
150886	7	Sololá	713	San Lucas Tolimán	10	San Lucas Tolimán	10	Octubre	2023-02-10T00:00:00	2024-11-08T06:00:00	7	Dirección del viento	1.61
150887	7	Sololá	713	San Lucas Tolimán	10	San Lucas Tolimán	10	Octubre	2023-02-10T00:00:00	2024-11-08T06:00:00	1	Precipitación	0
150888	7	Sololá	713	San Lucas Tolimán	10	San Lucas Tolimán	10	Octubre	2023-02-10T00:00:00	2024-11-08T06:00:00	8	Radiación solar	0
150889	7	Sololá	713	San Lucas Tolimán	10	San Lucas Tolimán	10	Octubre	2023-02-10T00:00:00	2024-11-08T07:00:00	2	Temperatura media	17
150890	7	Sololá	713	San Lucas Tolimán	10	San Lucas Tolimán	10	Octubre	2023-02-10T00:00:00	2024-11-08T07:00:00	4	Temperatura máxima	17
150891	7	Sololá	713	San Lucas Tolimán	10	San Lucas Tolimán	10	Octubre	2023-02-10T00:00:00	2024-11-08T07:00:00	3	Temperatura mínima	16.1
150892	7	Sololá	713	San Lucas Tolimán	10	San Lucas Tolimán	10	Octubre	2023-02-10T00:00:00	2024-11-08T07:00:00	5	Humedad	67
150893	7	Sololá	713	San Lucas Tolimán	10	San Lucas Tolimán	10	Octubre	2023-02-10T00:00:00	2024-11-08T07:00:00	6	Velocidad del viento	4.8
150894	7	Sololá	713	San Lucas Tolimán	10	San Lucas Tolimán	10	Octubre	2023-02-10T00:00:00	2024-11-08T07:00:00	7	Dirección del viento	4.83
150895	7	Sololá	713	San Lucas Tolimán	10	San Lucas Tolimán	10	Octubre	2023-02-10T00:00:00	2024-11-08T07:00:00	1	Precipitación	0
150896	7	Sololá	713	San Lucas Tolimán	10	San Lucas Tolimán	10	Octubre	2023-02-10T00:00:00	2024-11-08T07:00:00	8	Radiación solar	49
150897	7	Sololá	713	San Lucas Tolimán	10	San Lucas Tolimán	10	Octubre	2023-02-10T00:00:00	2024-11-08T08:00:00	2	Temperatura media	19.6
150898	7	Sololá	713	San Lucas Tolimán	10	San Lucas Tolimán	10	Octubre	2023-02-10T00:00:00	2024-11-08T08:00:00	4	Temperatura máxima	19.6
150899	7	Sololá	713	San Lucas Tolimán	10	San Lucas Tolimán	10	Octubre	2023-02-10T00:00:00	2024-11-08T08:00:00	3	Temperatura mínima	17
150900	7	Sololá	713	San Lucas Tolimán	10	San Lucas Tolimán	10	Octubre	2023-02-10T00:00:00	2024-11-08T08:00:00	5	Humedad	60
150901	7	Sololá	713	San Lucas Tolimán	10	San Lucas Tolimán	10	Octubre	2023-02-10T00:00:00	2024-11-08T08:00:00	6	Velocidad del viento	1.6
150902	7	Sololá	713	San Lucas Tolimán	10	San Lucas Tolimán	10	Octubre	2023-02-10T00:00:00	2024-11-08T08:00:00	7	Dirección del viento	1.61
150903	7	Sololá	713	San Lucas Tolimán	10	San Lucas Tolimán	10	Octubre	2023-02-10T00:00:00	2024-11-08T08:00:00	1	Precipitación	0
150904	7	Sololá	713	San Lucas Tolimán	10	San Lucas Tolimán	10	Octubre	2023-02-10T00:00:00	2024-11-08T08:00:00	8	Radiación solar	204
150905	7	Sololá	713	San Lucas Tolimán	10	San Lucas Tolimán	10	Octubre	2023-02-10T00:00:00	2024-11-08T09:00:00	2	Temperatura media	22.2
150906	7	Sololá	713	San Lucas Tolimán	10	San Lucas Tolimán	10	Octubre	2023-02-10T00:00:00	2024-11-08T09:00:00	4	Temperatura máxima	22.2
150907	7	Sololá	713	San Lucas Tolimán	10	San Lucas Tolimán	10	Octubre	2023-02-10T00:00:00	2024-11-08T09:00:00	3	Temperatura mínima	19.6
150908	7	Sololá	713	San Lucas Tolimán	10	San Lucas Tolimán	10	Octubre	2023-02-10T00:00:00	2024-11-08T09:00:00	5	Humedad	48
150909	7	Sololá	713	San Lucas Tolimán	10	San Lucas Tolimán	10	Octubre	2023-02-10T00:00:00	2024-11-08T09:00:00	6	Velocidad del viento	4.8
150910	7	Sololá	713	San Lucas Tolimán	10	San Lucas Tolimán	10	Octubre	2023-02-10T00:00:00	2024-11-08T09:00:00	7	Dirección del viento	4.83
150911	7	Sololá	713	San Lucas Tolimán	10	San Lucas Tolimán	10	Octubre	2023-02-10T00:00:00	2024-11-08T09:00:00	1	Precipitación	0
150912	7	Sololá	713	San Lucas Tolimán	10	San Lucas Tolimán	10	Octubre	2023-02-10T00:00:00	2024-11-08T09:00:00	8	Radiación solar	529
150913	7	Sololá	713	San Lucas Tolimán	10	San Lucas Tolimán	10	Octubre	2023-02-10T00:00:00	2024-11-08T10:00:00	2	Temperatura media	24.1
150914	7	Sololá	713	San Lucas Tolimán	10	San Lucas Tolimán	10	Octubre	2023-02-10T00:00:00	2024-11-08T10:00:00	4	Temperatura máxima	24.1
150915	7	Sololá	713	San Lucas Tolimán	10	San Lucas Tolimán	10	Octubre	2023-02-10T00:00:00	2024-11-08T10:00:00	3	Temperatura mínima	22.1
150916	7	Sololá	713	San Lucas Tolimán	10	San Lucas Tolimán	10	Octubre	2023-02-10T00:00:00	2024-11-08T10:00:00	5	Humedad	44
150917	7	Sololá	713	San Lucas Tolimán	10	San Lucas Tolimán	10	Octubre	2023-02-10T00:00:00	2024-11-08T10:00:00	6	Velocidad del viento	4.8
150918	7	Sololá	713	San Lucas Tolimán	10	San Lucas Tolimán	10	Octubre	2023-02-10T00:00:00	2024-11-08T10:00:00	7	Dirección del viento	4.83
150919	7	Sololá	713	San Lucas Tolimán	10	San Lucas Tolimán	10	Octubre	2023-02-10T00:00:00	2024-11-08T10:00:00	1	Precipitación	0
150920	7	Sololá	713	San Lucas Tolimán	10	San Lucas Tolimán	10	Octubre	2023-02-10T00:00:00	2024-11-08T10:00:00	8	Radiación solar	650
150921	7	Sololá	713	San Lucas Tolimán	10	San Lucas Tolimán	10	Octubre	2023-02-10T00:00:00	2024-11-08T11:00:00	2	Temperatura media	23.9
150922	7	Sololá	713	San Lucas Tolimán	10	San Lucas Tolimán	10	Octubre	2023-02-10T00:00:00	2024-11-08T11:00:00	4	Temperatura máxima	25.7
150923	7	Sololá	713	San Lucas Tolimán	10	San Lucas Tolimán	10	Octubre	2023-02-10T00:00:00	2024-11-08T11:00:00	3	Temperatura mínima	23.2
150924	7	Sololá	713	San Lucas Tolimán	10	San Lucas Tolimán	10	Octubre	2023-02-10T00:00:00	2024-11-08T11:00:00	5	Humedad	53
150925	7	Sololá	713	San Lucas Tolimán	10	San Lucas Tolimán	10	Octubre	2023-02-10T00:00:00	2024-11-08T11:00:00	6	Velocidad del viento	8
150926	7	Sololá	713	San Lucas Tolimán	10	San Lucas Tolimán	10	Octubre	2023-02-10T00:00:00	2024-11-08T11:00:00	7	Dirección del viento	8.05
150927	7	Sololá	713	San Lucas Tolimán	10	San Lucas Tolimán	10	Octubre	2023-02-10T00:00:00	2024-11-08T11:00:00	1	Precipitación	0
150928	7	Sololá	713	San Lucas Tolimán	10	San Lucas Tolimán	10	Octubre	2023-02-10T00:00:00	2024-11-08T11:00:00	8	Radiación solar	943
150929	7	Sololá	713	San Lucas Tolimán	10	San Lucas Tolimán	10	Octubre	2023-02-10T00:00:00	2024-11-08T12:00:00	2	Temperatura media	22.9
150930	7	Sololá	713	San Lucas Tolimán	10	San Lucas Tolimán	10	Octubre	2023-02-10T00:00:00	2024-11-08T12:00:00	4	Temperatura máxima	24.1
150931	7	Sololá	713	San Lucas Tolimán	10	San Lucas Tolimán	10	Octubre	2023-02-10T00:00:00	2024-11-08T12:00:00	3	Temperatura mínima	22.9
150932	7	Sololá	713	San Lucas Tolimán	10	San Lucas Tolimán	10	Octubre	2023-02-10T00:00:00	2024-11-08T12:00:00	5	Humedad	57
150933	7	Sololá	713	San Lucas Tolimán	10	San Lucas Tolimán	10	Octubre	2023-02-10T00:00:00	2024-11-08T12:00:00	6	Velocidad del viento	12.9
150934	7	Sololá	713	San Lucas Tolimán	10	San Lucas Tolimán	10	Octubre	2023-02-10T00:00:00	2024-11-08T12:00:00	7	Dirección del viento	12.87
150935	7	Sololá	713	San Lucas Tolimán	10	San Lucas Tolimán	10	Octubre	2023-02-10T00:00:00	2024-11-08T12:00:00	1	Precipitación	0
150936	7	Sololá	713	San Lucas Tolimán	10	San Lucas Tolimán	10	Octubre	2023-02-10T00:00:00	2024-11-08T12:00:00	8	Radiación solar	1051
150937	7	Sololá	713	San Lucas Tolimán	10	San Lucas Tolimán	10	Octubre	2023-02-10T00:00:00	2024-11-08T13:00:00	2	Temperatura media	23.4
150938	7	Sololá	713	San Lucas Tolimán	10	San Lucas Tolimán	10	Octubre	2023-02-10T00:00:00	2024-11-08T13:00:00	4	Temperatura máxima	24.1
150939	7	Sololá	713	San Lucas Tolimán	10	San Lucas Tolimán	10	Octubre	2023-02-10T00:00:00	2024-11-08T13:00:00	3	Temperatura mínima	22.8
150940	7	Sololá	713	San Lucas Tolimán	10	San Lucas Tolimán	10	Octubre	2023-02-10T00:00:00	2024-11-08T13:00:00	5	Humedad	56
150941	7	Sololá	713	San Lucas Tolimán	10	San Lucas Tolimán	10	Octubre	2023-02-10T00:00:00	2024-11-08T13:00:00	6	Velocidad del viento	12.9
150942	7	Sololá	713	San Lucas Tolimán	10	San Lucas Tolimán	10	Octubre	2023-02-10T00:00:00	2024-11-08T13:00:00	7	Dirección del viento	12.87
150943	7	Sololá	713	San Lucas Tolimán	10	San Lucas Tolimán	10	Octubre	2023-02-10T00:00:00	2024-11-08T13:00:00	1	Precipitación	0
150944	7	Sololá	713	San Lucas Tolimán	10	San Lucas Tolimán	10	Octubre	2023-02-10T00:00:00	2024-11-08T13:00:00	8	Radiación solar	990
150945	7	Sololá	713	San Lucas Tolimán	10	San Lucas Tolimán	10	Octubre	2023-02-10T00:00:00	2024-11-08T14:00:00	2	Temperatura media	23.3
150946	7	Sololá	713	San Lucas Tolimán	10	San Lucas Tolimán	10	Octubre	2023-02-10T00:00:00	2024-11-08T14:00:00	4	Temperatura máxima	24
150947	7	Sololá	713	San Lucas Tolimán	10	San Lucas Tolimán	10	Octubre	2023-02-10T00:00:00	2024-11-08T14:00:00	3	Temperatura mínima	22.7
150948	7	Sololá	713	San Lucas Tolimán	10	San Lucas Tolimán	10	Octubre	2023-02-10T00:00:00	2024-11-08T14:00:00	5	Humedad	58
150949	7	Sololá	713	San Lucas Tolimán	10	San Lucas Tolimán	10	Octubre	2023-02-10T00:00:00	2024-11-08T14:00:00	6	Velocidad del viento	11.3
150950	7	Sololá	713	San Lucas Tolimán	10	San Lucas Tolimán	10	Octubre	2023-02-10T00:00:00	2024-11-08T14:00:00	7	Dirección del viento	11.27
150951	7	Sololá	713	San Lucas Tolimán	10	San Lucas Tolimán	10	Octubre	2023-02-10T00:00:00	2024-11-08T14:00:00	1	Precipitación	0
150952	7	Sololá	713	San Lucas Tolimán	10	San Lucas Tolimán	10	Octubre	2023-02-10T00:00:00	2024-11-08T14:00:00	8	Radiación solar	803
150953	7	Sololá	713	San Lucas Tolimán	10	San Lucas Tolimán	10	Octubre	2023-02-10T00:00:00	2024-11-08T15:00:00	2	Temperatura media	24.6
150954	7	Sololá	713	San Lucas Tolimán	10	San Lucas Tolimán	10	Octubre	2023-02-10T00:00:00	2024-11-08T15:00:00	4	Temperatura máxima	24.6
150955	7	Sololá	713	San Lucas Tolimán	10	San Lucas Tolimán	10	Octubre	2023-02-10T00:00:00	2024-11-08T15:00:00	3	Temperatura mínima	22.9
150956	7	Sololá	713	San Lucas Tolimán	10	San Lucas Tolimán	10	Octubre	2023-02-10T00:00:00	2024-11-08T15:00:00	5	Humedad	53
150957	7	Sololá	713	San Lucas Tolimán	10	San Lucas Tolimán	10	Octubre	2023-02-10T00:00:00	2024-11-08T15:00:00	6	Velocidad del viento	11.3
150958	7	Sololá	713	San Lucas Tolimán	10	San Lucas Tolimán	10	Octubre	2023-02-10T00:00:00	2024-11-08T15:00:00	7	Dirección del viento	11.27
150959	7	Sololá	713	San Lucas Tolimán	10	San Lucas Tolimán	10	Octubre	2023-02-10T00:00:00	2024-11-08T15:00:00	1	Precipitación	0
150960	7	Sololá	713	San Lucas Tolimán	10	San Lucas Tolimán	10	Octubre	2023-02-10T00:00:00	2024-11-08T15:00:00	8	Radiación solar	863
150961	7	Sololá	713	San Lucas Tolimán	10	San Lucas Tolimán	10	Octubre	2023-02-10T00:00:00	2024-11-08T16:00:00	2	Temperatura media	20.4
150962	7	Sololá	713	San Lucas Tolimán	10	San Lucas Tolimán	10	Octubre	2023-02-10T00:00:00	2024-11-08T16:00:00	4	Temperatura máxima	24.5
150963	7	Sololá	713	San Lucas Tolimán	10	San Lucas Tolimán	10	Octubre	2023-02-10T00:00:00	2024-11-08T16:00:00	3	Temperatura mínima	20.4
150964	7	Sololá	713	San Lucas Tolimán	10	San Lucas Tolimán	10	Octubre	2023-02-10T00:00:00	2024-11-08T16:00:00	5	Humedad	64
150965	7	Sololá	713	San Lucas Tolimán	10	San Lucas Tolimán	10	Octubre	2023-02-10T00:00:00	2024-11-08T16:00:00	6	Velocidad del viento	9.7
150966	7	Sololá	713	San Lucas Tolimán	10	San Lucas Tolimán	10	Octubre	2023-02-10T00:00:00	2024-11-08T16:00:00	7	Dirección del viento	9.66
150967	7	Sololá	713	San Lucas Tolimán	10	San Lucas Tolimán	10	Octubre	2023-02-10T00:00:00	2024-11-08T16:00:00	1	Precipitación	0.8
150968	7	Sololá	713	San Lucas Tolimán	10	San Lucas Tolimán	10	Octubre	2023-02-10T00:00:00	2024-11-08T16:00:00	8	Radiación solar	124
150969	7	Sololá	713	San Lucas Tolimán	10	San Lucas Tolimán	10	Octubre	2023-02-10T00:00:00	2024-11-08T17:00:00	2	Temperatura media	19.3
150970	7	Sololá	713	San Lucas Tolimán	10	San Lucas Tolimán	10	Octubre	2023-02-10T00:00:00	2024-11-08T17:00:00	4	Temperatura máxima	20.4
150971	7	Sololá	713	San Lucas Tolimán	10	San Lucas Tolimán	10	Octubre	2023-02-10T00:00:00	2024-11-08T17:00:00	3	Temperatura mínima	19.1
150972	7	Sololá	713	San Lucas Tolimán	10	San Lucas Tolimán	10	Octubre	2023-02-10T00:00:00	2024-11-08T17:00:00	5	Humedad	65
150973	7	Sololá	713	San Lucas Tolimán	10	San Lucas Tolimán	10	Octubre	2023-02-10T00:00:00	2024-11-08T17:00:00	6	Velocidad del viento	14.5
150974	7	Sololá	713	San Lucas Tolimán	10	San Lucas Tolimán	10	Octubre	2023-02-10T00:00:00	2024-11-08T17:00:00	7	Dirección del viento	14.48
150975	7	Sololá	713	San Lucas Tolimán	10	San Lucas Tolimán	10	Octubre	2023-02-10T00:00:00	2024-11-08T17:00:00	1	Precipitación	0
150976	7	Sololá	713	San Lucas Tolimán	10	San Lucas Tolimán	10	Octubre	2023-02-10T00:00:00	2024-11-08T17:00:00	8	Radiación solar	42
150977	7	Sololá	713	San Lucas Tolimán	10	San Lucas Tolimán	10	Octubre	2023-02-10T00:00:00	2024-11-08T18:00:00	2	Temperatura media	17.8
150978	7	Sololá	713	San Lucas Tolimán	10	San Lucas Tolimán	10	Octubre	2023-02-10T00:00:00	2024-11-08T18:00:00	4	Temperatura máxima	19.4
150979	7	Sololá	713	San Lucas Tolimán	10	San Lucas Tolimán	10	Octubre	2023-02-10T00:00:00	2024-11-08T18:00:00	3	Temperatura mínima	17.8
150980	7	Sololá	713	San Lucas Tolimán	10	San Lucas Tolimán	10	Octubre	2023-02-10T00:00:00	2024-11-08T18:00:00	5	Humedad	67
150981	7	Sololá	713	San Lucas Tolimán	10	San Lucas Tolimán	10	Octubre	2023-02-10T00:00:00	2024-11-08T18:00:00	6	Velocidad del viento	12.9
150982	7	Sololá	713	San Lucas Tolimán	10	San Lucas Tolimán	10	Octubre	2023-02-10T00:00:00	2024-11-08T18:00:00	7	Dirección del viento	12.87
150983	7	Sololá	713	San Lucas Tolimán	10	San Lucas Tolimán	10	Octubre	2023-02-10T00:00:00	2024-11-08T18:00:00	1	Precipitación	0.8
150984	7	Sololá	713	San Lucas Tolimán	10	San Lucas Tolimán	10	Octubre	2023-02-10T00:00:00	2024-11-08T18:00:00	8	Radiación solar	4
150985	7	Sololá	713	San Lucas Tolimán	10	San Lucas Tolimán	10	Octubre	2023-02-10T00:00:00	2024-11-08T19:00:00	2	Temperatura media	17.9
150986	7	Sololá	713	San Lucas Tolimán	10	San Lucas Tolimán	10	Octubre	2023-02-10T00:00:00	2024-11-08T19:00:00	4	Temperatura máxima	18.1
150987	7	Sololá	713	San Lucas Tolimán	10	San Lucas Tolimán	10	Octubre	2023-02-10T00:00:00	2024-11-08T19:00:00	3	Temperatura mínima	17.8
150988	7	Sololá	713	San Lucas Tolimán	10	San Lucas Tolimán	10	Octubre	2023-02-10T00:00:00	2024-11-08T19:00:00	5	Humedad	67
150989	7	Sololá	713	San Lucas Tolimán	10	San Lucas Tolimán	10	Octubre	2023-02-10T00:00:00	2024-11-08T19:00:00	6	Velocidad del viento	12.9
150990	7	Sololá	713	San Lucas Tolimán	10	San Lucas Tolimán	10	Octubre	2023-02-10T00:00:00	2024-11-08T19:00:00	7	Dirección del viento	12.87
150991	7	Sololá	713	San Lucas Tolimán	10	San Lucas Tolimán	10	Octubre	2023-02-10T00:00:00	2024-11-08T19:00:00	1	Precipitación	1
150992	7	Sololá	713	San Lucas Tolimán	10	San Lucas Tolimán	10	Octubre	2023-02-10T00:00:00	2024-11-08T19:00:00	8	Radiación solar	0
150993	7	Sololá	713	San Lucas Tolimán	10	San Lucas Tolimán	10	Octubre	2023-02-10T00:00:00	2024-11-08T20:00:00	2	Temperatura media	18.1
150994	7	Sololá	713	San Lucas Tolimán	10	San Lucas Tolimán	10	Octubre	2023-02-10T00:00:00	2024-11-08T20:00:00	4	Temperatura máxima	18.3
150995	7	Sololá	713	San Lucas Tolimán	10	San Lucas Tolimán	10	Octubre	2023-02-10T00:00:00	2024-11-08T20:00:00	3	Temperatura mínima	17.9
150996	7	Sololá	713	San Lucas Tolimán	10	San Lucas Tolimán	10	Octubre	2023-02-10T00:00:00	2024-11-08T20:00:00	5	Humedad	66
150997	7	Sololá	713	San Lucas Tolimán	10	San Lucas Tolimán	10	Octubre	2023-02-10T00:00:00	2024-11-08T20:00:00	6	Velocidad del viento	3.2
150998	7	Sololá	713	San Lucas Tolimán	10	San Lucas Tolimán	10	Octubre	2023-02-10T00:00:00	2024-11-08T20:00:00	7	Dirección del viento	3.22
150999	7	Sololá	713	San Lucas Tolimán	10	San Lucas Tolimán	10	Octubre	2023-02-10T00:00:00	2024-11-08T20:00:00	1	Precipitación	0
151000	7	Sololá	713	San Lucas Tolimán	10	San Lucas Tolimán	10	Octubre	2023-02-10T00:00:00	2024-11-08T20:00:00	8	Radiación solar	0
151001	7	Sololá	713	San Lucas Tolimán	10	San Lucas Tolimán	10	Octubre	2023-02-10T00:00:00	2024-11-08T21:00:00	2	Temperatura media	18.7
151002	7	Sololá	713	San Lucas Tolimán	10	San Lucas Tolimán	10	Octubre	2023-02-10T00:00:00	2024-11-08T21:00:00	4	Temperatura máxima	18.7
151003	7	Sololá	713	San Lucas Tolimán	10	San Lucas Tolimán	10	Octubre	2023-02-10T00:00:00	2024-11-08T21:00:00	3	Temperatura mínima	18
151004	7	Sololá	713	San Lucas Tolimán	10	San Lucas Tolimán	10	Octubre	2023-02-10T00:00:00	2024-11-08T21:00:00	5	Humedad	65
151005	7	Sololá	713	San Lucas Tolimán	10	San Lucas Tolimán	10	Octubre	2023-02-10T00:00:00	2024-11-08T21:00:00	6	Velocidad del viento	3.2
151006	7	Sololá	713	San Lucas Tolimán	10	San Lucas Tolimán	10	Octubre	2023-02-10T00:00:00	2024-11-08T21:00:00	7	Dirección del viento	3.22
151007	7	Sololá	713	San Lucas Tolimán	10	San Lucas Tolimán	10	Octubre	2023-02-10T00:00:00	2024-11-08T21:00:00	1	Precipitación	0
151008	7	Sololá	713	San Lucas Tolimán	10	San Lucas Tolimán	10	Octubre	2023-02-10T00:00:00	2024-11-08T21:00:00	8	Radiación solar	0
151009	7	Sololá	713	San Lucas Tolimán	10	San Lucas Tolimán	10	Octubre	2023-02-10T00:00:00	2024-11-08T22:00:00	2	Temperatura media	17.5
151010	7	Sololá	713	San Lucas Tolimán	10	San Lucas Tolimán	10	Octubre	2023-02-10T00:00:00	2024-11-08T22:00:00	4	Temperatura máxima	18.7
151011	7	Sololá	713	San Lucas Tolimán	10	San Lucas Tolimán	10	Octubre	2023-02-10T00:00:00	2024-11-08T22:00:00	3	Temperatura mínima	17.5
151012	7	Sololá	713	San Lucas Tolimán	10	San Lucas Tolimán	10	Octubre	2023-02-10T00:00:00	2024-11-08T22:00:00	5	Humedad	66
151013	7	Sololá	713	San Lucas Tolimán	10	San Lucas Tolimán	10	Octubre	2023-02-10T00:00:00	2024-11-08T22:00:00	6	Velocidad del viento	4.8
151014	7	Sololá	713	San Lucas Tolimán	10	San Lucas Tolimán	10	Octubre	2023-02-10T00:00:00	2024-11-08T22:00:00	7	Dirección del viento	4.83
151015	7	Sololá	713	San Lucas Tolimán	10	San Lucas Tolimán	10	Octubre	2023-02-10T00:00:00	2024-11-08T22:00:00	1	Precipitación	2.8
151016	7	Sololá	713	San Lucas Tolimán	10	San Lucas Tolimán	10	Octubre	2023-02-10T00:00:00	2024-11-08T22:00:00	8	Radiación solar	0
151017	7	Sololá	713	San Lucas Tolimán	10	San Lucas Tolimán	10	Octubre	2023-02-10T00:00:00	2024-11-08T23:00:00	2	Temperatura media	17.4
151018	7	Sololá	713	San Lucas Tolimán	10	San Lucas Tolimán	10	Octubre	2023-02-10T00:00:00	2024-11-08T23:00:00	4	Temperatura máxima	17.8
151019	7	Sololá	713	San Lucas Tolimán	10	San Lucas Tolimán	10	Octubre	2023-02-10T00:00:00	2024-11-08T23:00:00	3	Temperatura mínima	17.3
151020	7	Sololá	713	San Lucas Tolimán	10	San Lucas Tolimán	10	Octubre	2023-02-10T00:00:00	2024-11-08T23:00:00	5	Humedad	65
151021	7	Sololá	713	San Lucas Tolimán	10	San Lucas Tolimán	10	Octubre	2023-02-10T00:00:00	2024-11-08T23:00:00	6	Velocidad del viento	3.2
151022	7	Sololá	713	San Lucas Tolimán	10	San Lucas Tolimán	10	Octubre	2023-02-10T00:00:00	2024-11-08T23:00:00	7	Dirección del viento	3.22
151023	7	Sololá	713	San Lucas Tolimán	10	San Lucas Tolimán	10	Octubre	2023-02-10T00:00:00	2024-11-08T23:00:00	1	Precipitación	1.2
151024	7	Sololá	713	San Lucas Tolimán	10	San Lucas Tolimán	10	Octubre	2023-02-10T00:00:00	2024-11-08T23:00:00	8	Radiación solar	0
151025	7	Sololá	713	San Lucas Tolimán	10	San Lucas Tolimán	10	Octubre	2023-03-10T00:00:00	2024-11-08T00:00:00	2	Temperatura media	17.3
151026	7	Sololá	713	San Lucas Tolimán	10	San Lucas Tolimán	10	Octubre	2023-03-10T00:00:00	2024-11-08T00:00:00	4	Temperatura máxima	17.6
151027	7	Sololá	713	San Lucas Tolimán	10	San Lucas Tolimán	10	Octubre	2023-03-10T00:00:00	2024-11-08T00:00:00	3	Temperatura mínima	17.3
151028	7	Sololá	713	San Lucas Tolimán	10	San Lucas Tolimán	10	Octubre	2023-03-10T00:00:00	2024-11-08T00:00:00	5	Humedad	66
151029	7	Sololá	713	San Lucas Tolimán	10	San Lucas Tolimán	10	Octubre	2023-03-10T00:00:00	2024-11-08T00:00:00	6	Velocidad del viento	1.6
151030	7	Sololá	713	San Lucas Tolimán	10	San Lucas Tolimán	10	Octubre	2023-03-10T00:00:00	2024-11-08T00:00:00	7	Dirección del viento	1.61
151031	7	Sololá	713	San Lucas Tolimán	10	San Lucas Tolimán	10	Octubre	2023-03-10T00:00:00	2024-11-08T00:00:00	1	Precipitación	0.2
151032	7	Sololá	713	San Lucas Tolimán	10	San Lucas Tolimán	10	Octubre	2023-03-10T00:00:00	2024-11-08T00:00:00	8	Radiación solar	0
151033	7	Sololá	713	San Lucas Tolimán	10	San Lucas Tolimán	10	Octubre	2023-03-10T00:00:00	2024-11-08T01:00:00	2	Temperatura media	17.2
151034	7	Sololá	713	San Lucas Tolimán	10	San Lucas Tolimán	10	Octubre	2023-03-10T00:00:00	2024-11-08T01:00:00	4	Temperatura máxima	17.3
151035	7	Sololá	713	San Lucas Tolimán	10	San Lucas Tolimán	10	Octubre	2023-03-10T00:00:00	2024-11-08T01:00:00	3	Temperatura mínima	17
151036	7	Sololá	713	San Lucas Tolimán	10	San Lucas Tolimán	10	Octubre	2023-03-10T00:00:00	2024-11-08T01:00:00	5	Humedad	67
151037	7	Sololá	713	San Lucas Tolimán	10	San Lucas Tolimán	10	Octubre	2023-03-10T00:00:00	2024-11-08T01:00:00	6	Velocidad del viento	1.6
151038	7	Sololá	713	San Lucas Tolimán	10	San Lucas Tolimán	10	Octubre	2023-03-10T00:00:00	2024-11-08T01:00:00	7	Dirección del viento	1.61
151039	7	Sololá	713	San Lucas Tolimán	10	San Lucas Tolimán	10	Octubre	2023-03-10T00:00:00	2024-11-08T01:00:00	1	Precipitación	0
151040	7	Sololá	713	San Lucas Tolimán	10	San Lucas Tolimán	10	Octubre	2023-03-10T00:00:00	2024-11-08T01:00:00	8	Radiación solar	0
151041	7	Sololá	713	San Lucas Tolimán	10	San Lucas Tolimán	10	Octubre	2023-03-10T00:00:00	2024-11-08T02:00:00	2	Temperatura media	17.3
151042	7	Sololá	713	San Lucas Tolimán	10	San Lucas Tolimán	10	Octubre	2023-03-10T00:00:00	2024-11-08T02:00:00	4	Temperatura máxima	17.5
151043	7	Sololá	713	San Lucas Tolimán	10	San Lucas Tolimán	10	Octubre	2023-03-10T00:00:00	2024-11-08T02:00:00	3	Temperatura mínima	17.2
151044	7	Sololá	713	San Lucas Tolimán	10	San Lucas Tolimán	10	Octubre	2023-03-10T00:00:00	2024-11-08T02:00:00	5	Humedad	65
151045	7	Sololá	713	San Lucas Tolimán	10	San Lucas Tolimán	10	Octubre	2023-03-10T00:00:00	2024-11-08T02:00:00	6	Velocidad del viento	1.6
151046	7	Sololá	713	San Lucas Tolimán	10	San Lucas Tolimán	10	Octubre	2023-03-10T00:00:00	2024-11-08T02:00:00	7	Dirección del viento	1.61
151047	7	Sololá	713	San Lucas Tolimán	10	San Lucas Tolimán	10	Octubre	2023-03-10T00:00:00	2024-11-08T02:00:00	1	Precipitación	0
151048	7	Sololá	713	San Lucas Tolimán	10	San Lucas Tolimán	10	Octubre	2023-03-10T00:00:00	2024-11-08T02:00:00	8	Radiación solar	0
151049	7	Sololá	713	San Lucas Tolimán	10	San Lucas Tolimán	10	Octubre	2023-03-10T00:00:00	2024-11-08T03:00:00	2	Temperatura media	16.8
151050	7	Sololá	713	San Lucas Tolimán	10	San Lucas Tolimán	10	Octubre	2023-03-10T00:00:00	2024-11-08T03:00:00	4	Temperatura máxima	17.3
151051	7	Sololá	713	San Lucas Tolimán	10	San Lucas Tolimán	10	Octubre	2023-03-10T00:00:00	2024-11-08T03:00:00	3	Temperatura mínima	16.8
151052	7	Sololá	713	San Lucas Tolimán	10	San Lucas Tolimán	10	Octubre	2023-03-10T00:00:00	2024-11-08T03:00:00	5	Humedad	66
151053	7	Sololá	713	San Lucas Tolimán	10	San Lucas Tolimán	10	Octubre	2023-03-10T00:00:00	2024-11-08T03:00:00	6	Velocidad del viento	1.6
151054	7	Sololá	713	San Lucas Tolimán	10	San Lucas Tolimán	10	Octubre	2023-03-10T00:00:00	2024-11-08T03:00:00	7	Dirección del viento	1.61
151055	7	Sololá	713	San Lucas Tolimán	10	San Lucas Tolimán	10	Octubre	2023-03-10T00:00:00	2024-11-08T03:00:00	1	Precipitación	0
151056	7	Sololá	713	San Lucas Tolimán	10	San Lucas Tolimán	10	Octubre	2023-03-10T00:00:00	2024-11-08T03:00:00	8	Radiación solar	0
151057	7	Sololá	713	San Lucas Tolimán	10	San Lucas Tolimán	10	Octubre	2023-03-10T00:00:00	2024-11-08T04:00:00	2	Temperatura media	16.1
151058	7	Sololá	713	San Lucas Tolimán	10	San Lucas Tolimán	10	Octubre	2023-03-10T00:00:00	2024-11-08T04:00:00	4	Temperatura máxima	16.9
151059	7	Sololá	713	San Lucas Tolimán	10	San Lucas Tolimán	10	Octubre	2023-03-10T00:00:00	2024-11-08T04:00:00	3	Temperatura mínima	16.1
151060	7	Sololá	713	San Lucas Tolimán	10	San Lucas Tolimán	10	Octubre	2023-03-10T00:00:00	2024-11-08T04:00:00	5	Humedad	67
151061	7	Sololá	713	San Lucas Tolimán	10	San Lucas Tolimán	10	Octubre	2023-03-10T00:00:00	2024-11-08T04:00:00	6	Velocidad del viento	3.2
151062	7	Sololá	713	San Lucas Tolimán	10	San Lucas Tolimán	10	Octubre	2023-03-10T00:00:00	2024-11-08T04:00:00	7	Dirección del viento	3.22
151063	7	Sololá	713	San Lucas Tolimán	10	San Lucas Tolimán	10	Octubre	2023-03-10T00:00:00	2024-11-08T04:00:00	1	Precipitación	0
151064	7	Sololá	713	San Lucas Tolimán	10	San Lucas Tolimán	10	Octubre	2023-03-10T00:00:00	2024-11-08T04:00:00	8	Radiación solar	0
151065	7	Sololá	713	San Lucas Tolimán	10	San Lucas Tolimán	10	Octubre	2023-03-10T00:00:00	2024-11-08T05:00:00	2	Temperatura media	15.9
151066	7	Sololá	713	San Lucas Tolimán	10	San Lucas Tolimán	10	Octubre	2023-03-10T00:00:00	2024-11-08T05:00:00	4	Temperatura máxima	16.2
151067	7	Sololá	713	San Lucas Tolimán	10	San Lucas Tolimán	10	Octubre	2023-03-10T00:00:00	2024-11-08T05:00:00	3	Temperatura mínima	15.9
151068	7	Sololá	713	San Lucas Tolimán	10	San Lucas Tolimán	10	Octubre	2023-03-10T00:00:00	2024-11-08T05:00:00	5	Humedad	67
151069	7	Sololá	713	San Lucas Tolimán	10	San Lucas Tolimán	10	Octubre	2023-03-10T00:00:00	2024-11-08T05:00:00	6	Velocidad del viento	1.6
151070	7	Sololá	713	San Lucas Tolimán	10	San Lucas Tolimán	10	Octubre	2023-03-10T00:00:00	2024-11-08T05:00:00	7	Dirección del viento	1.61
151071	7	Sololá	713	San Lucas Tolimán	10	San Lucas Tolimán	10	Octubre	2023-03-10T00:00:00	2024-11-08T05:00:00	1	Precipitación	0
151072	7	Sololá	713	San Lucas Tolimán	10	San Lucas Tolimán	10	Octubre	2023-03-10T00:00:00	2024-11-08T05:00:00	8	Radiación solar	0
151073	7	Sololá	713	San Lucas Tolimán	10	San Lucas Tolimán	10	Octubre	2023-03-10T00:00:00	2024-11-08T06:00:00	2	Temperatura media	15.8
151074	7	Sololá	713	San Lucas Tolimán	10	San Lucas Tolimán	10	Octubre	2023-03-10T00:00:00	2024-11-08T06:00:00	4	Temperatura máxima	15.9
151075	7	Sololá	713	San Lucas Tolimán	10	San Lucas Tolimán	10	Octubre	2023-03-10T00:00:00	2024-11-08T06:00:00	3	Temperatura mínima	15.7
151076	7	Sololá	713	San Lucas Tolimán	10	San Lucas Tolimán	10	Octubre	2023-03-10T00:00:00	2024-11-08T06:00:00	5	Humedad	67
151077	7	Sololá	713	San Lucas Tolimán	10	San Lucas Tolimán	10	Octubre	2023-03-10T00:00:00	2024-11-08T06:00:00	6	Velocidad del viento	3.2
151078	7	Sololá	713	San Lucas Tolimán	10	San Lucas Tolimán	10	Octubre	2023-03-10T00:00:00	2024-11-08T06:00:00	7	Dirección del viento	3.22
151079	7	Sololá	713	San Lucas Tolimán	10	San Lucas Tolimán	10	Octubre	2023-03-10T00:00:00	2024-11-08T06:00:00	1	Precipitación	0
151080	7	Sololá	713	San Lucas Tolimán	10	San Lucas Tolimán	10	Octubre	2023-03-10T00:00:00	2024-11-08T06:00:00	8	Radiación solar	1
151081	7	Sololá	713	San Lucas Tolimán	10	San Lucas Tolimán	10	Octubre	2023-03-10T00:00:00	2024-11-08T07:00:00	2	Temperatura media	16.4
151082	7	Sololá	713	San Lucas Tolimán	10	San Lucas Tolimán	10	Octubre	2023-03-10T00:00:00	2024-11-08T07:00:00	4	Temperatura máxima	16.5
151083	7	Sololá	713	San Lucas Tolimán	10	San Lucas Tolimán	10	Octubre	2023-03-10T00:00:00	2024-11-08T07:00:00	3	Temperatura mínima	15.8
151084	7	Sololá	713	San Lucas Tolimán	10	San Lucas Tolimán	10	Octubre	2023-03-10T00:00:00	2024-11-08T07:00:00	5	Humedad	67
151085	7	Sololá	713	San Lucas Tolimán	10	San Lucas Tolimán	10	Octubre	2023-03-10T00:00:00	2024-11-08T07:00:00	6	Velocidad del viento	1.6
151086	7	Sololá	713	San Lucas Tolimán	10	San Lucas Tolimán	10	Octubre	2023-03-10T00:00:00	2024-11-08T07:00:00	7	Dirección del viento	1.61
151087	7	Sololá	713	San Lucas Tolimán	10	San Lucas Tolimán	10	Octubre	2023-03-10T00:00:00	2024-11-08T07:00:00	1	Precipitación	0
151088	7	Sololá	713	San Lucas Tolimán	10	San Lucas Tolimán	10	Octubre	2023-03-10T00:00:00	2024-11-08T07:00:00	8	Radiación solar	25
151089	7	Sololá	713	San Lucas Tolimán	10	San Lucas Tolimán	10	Octubre	2023-03-10T00:00:00	2024-11-08T08:00:00	2	Temperatura media	21.3
151090	7	Sololá	713	San Lucas Tolimán	10	San Lucas Tolimán	10	Octubre	2023-03-10T00:00:00	2024-11-08T08:00:00	4	Temperatura máxima	21.3
151091	7	Sololá	713	San Lucas Tolimán	10	San Lucas Tolimán	10	Octubre	2023-03-10T00:00:00	2024-11-08T08:00:00	3	Temperatura mínima	16.5
151092	7	Sololá	713	San Lucas Tolimán	10	San Lucas Tolimán	10	Octubre	2023-03-10T00:00:00	2024-11-08T08:00:00	5	Humedad	55
151093	7	Sololá	713	San Lucas Tolimán	10	San Lucas Tolimán	10	Octubre	2023-03-10T00:00:00	2024-11-08T08:00:00	6	Velocidad del viento	1.6
151094	7	Sololá	713	San Lucas Tolimán	10	San Lucas Tolimán	10	Octubre	2023-03-10T00:00:00	2024-11-08T08:00:00	7	Dirección del viento	1.61
151095	7	Sololá	713	San Lucas Tolimán	10	San Lucas Tolimán	10	Octubre	2023-03-10T00:00:00	2024-11-08T08:00:00	1	Precipitación	0
151096	7	Sololá	713	San Lucas Tolimán	10	San Lucas Tolimán	10	Octubre	2023-03-10T00:00:00	2024-11-08T08:00:00	8	Radiación solar	295
151097	7	Sololá	713	San Lucas Tolimán	10	San Lucas Tolimán	10	Octubre	2023-03-10T00:00:00	2024-11-08T09:00:00	2	Temperatura media	21.4
151098	7	Sololá	713	San Lucas Tolimán	10	San Lucas Tolimán	10	Octubre	2023-03-10T00:00:00	2024-11-08T09:00:00	4	Temperatura máxima	21.8
151099	7	Sololá	713	San Lucas Tolimán	10	San Lucas Tolimán	10	Octubre	2023-03-10T00:00:00	2024-11-08T09:00:00	3	Temperatura mínima	21.2
151100	7	Sololá	713	San Lucas Tolimán	10	San Lucas Tolimán	10	Octubre	2023-03-10T00:00:00	2024-11-08T09:00:00	5	Humedad	54
151101	7	Sololá	713	San Lucas Tolimán	10	San Lucas Tolimán	10	Octubre	2023-03-10T00:00:00	2024-11-08T09:00:00	6	Velocidad del viento	3.2
151102	7	Sololá	713	San Lucas Tolimán	10	San Lucas Tolimán	10	Octubre	2023-03-10T00:00:00	2024-11-08T09:00:00	7	Dirección del viento	3.22
151103	7	Sololá	713	San Lucas Tolimán	10	San Lucas Tolimán	10	Octubre	2023-03-10T00:00:00	2024-11-08T09:00:00	1	Precipitación	0
151104	7	Sololá	713	San Lucas Tolimán	10	San Lucas Tolimán	10	Octubre	2023-03-10T00:00:00	2024-11-08T09:00:00	8	Radiación solar	458
151105	7	Sololá	713	San Lucas Tolimán	10	San Lucas Tolimán	10	Octubre	2023-03-10T00:00:00	2024-11-08T10:00:00	2	Temperatura media	22
151106	7	Sololá	713	San Lucas Tolimán	10	San Lucas Tolimán	10	Octubre	2023-03-10T00:00:00	2024-11-08T10:00:00	4	Temperatura máxima	22.5
151107	7	Sololá	713	San Lucas Tolimán	10	San Lucas Tolimán	10	Octubre	2023-03-10T00:00:00	2024-11-08T10:00:00	3	Temperatura mínima	21.2
151108	7	Sololá	713	San Lucas Tolimán	10	San Lucas Tolimán	10	Octubre	2023-03-10T00:00:00	2024-11-08T10:00:00	5	Humedad	57
151109	7	Sololá	713	San Lucas Tolimán	10	San Lucas Tolimán	10	Octubre	2023-03-10T00:00:00	2024-11-08T10:00:00	6	Velocidad del viento	3.2
151110	7	Sololá	713	San Lucas Tolimán	10	San Lucas Tolimán	10	Octubre	2023-03-10T00:00:00	2024-11-08T10:00:00	7	Dirección del viento	3.22
151111	7	Sololá	713	San Lucas Tolimán	10	San Lucas Tolimán	10	Octubre	2023-03-10T00:00:00	2024-11-08T10:00:00	1	Precipitación	0
151112	7	Sololá	713	San Lucas Tolimán	10	San Lucas Tolimán	10	Octubre	2023-03-10T00:00:00	2024-11-08T10:00:00	8	Radiación solar	355
151113	7	Sololá	713	San Lucas Tolimán	10	San Lucas Tolimán	10	Octubre	2023-03-10T00:00:00	2024-11-08T11:00:00	2	Temperatura media	22.7
151114	7	Sololá	713	San Lucas Tolimán	10	San Lucas Tolimán	10	Octubre	2023-03-10T00:00:00	2024-11-08T11:00:00	4	Temperatura máxima	22.7
151115	7	Sololá	713	San Lucas Tolimán	10	San Lucas Tolimán	10	Octubre	2023-03-10T00:00:00	2024-11-08T11:00:00	3	Temperatura mínima	21.4
151116	7	Sololá	713	San Lucas Tolimán	10	San Lucas Tolimán	10	Octubre	2023-03-10T00:00:00	2024-11-08T11:00:00	5	Humedad	57
151117	7	Sololá	713	San Lucas Tolimán	10	San Lucas Tolimán	10	Octubre	2023-03-10T00:00:00	2024-11-08T11:00:00	6	Velocidad del viento	8
151118	7	Sololá	713	San Lucas Tolimán	10	San Lucas Tolimán	10	Octubre	2023-03-10T00:00:00	2024-11-08T11:00:00	7	Dirección del viento	8.05
151119	7	Sololá	713	San Lucas Tolimán	10	San Lucas Tolimán	10	Octubre	2023-03-10T00:00:00	2024-11-08T11:00:00	1	Precipitación	0
151120	7	Sololá	713	San Lucas Tolimán	10	San Lucas Tolimán	10	Octubre	2023-03-10T00:00:00	2024-11-08T11:00:00	8	Radiación solar	496
151121	7	Sololá	713	San Lucas Tolimán	10	San Lucas Tolimán	10	Octubre	2023-03-10T00:00:00	2024-11-08T12:00:00	2	Temperatura media	21.8
151122	7	Sololá	713	San Lucas Tolimán	10	San Lucas Tolimán	10	Octubre	2023-03-10T00:00:00	2024-11-08T12:00:00	4	Temperatura máxima	23.2
151123	7	Sololá	713	San Lucas Tolimán	10	San Lucas Tolimán	10	Octubre	2023-03-10T00:00:00	2024-11-08T12:00:00	3	Temperatura mínima	21.7
151124	7	Sololá	713	San Lucas Tolimán	10	San Lucas Tolimán	10	Octubre	2023-03-10T00:00:00	2024-11-08T12:00:00	5	Humedad	59
151125	7	Sololá	713	San Lucas Tolimán	10	San Lucas Tolimán	10	Octubre	2023-03-10T00:00:00	2024-11-08T12:00:00	6	Velocidad del viento	9.7
151126	7	Sololá	713	San Lucas Tolimán	10	San Lucas Tolimán	10	Octubre	2023-03-10T00:00:00	2024-11-08T12:00:00	7	Dirección del viento	9.66
151127	7	Sololá	713	San Lucas Tolimán	10	San Lucas Tolimán	10	Octubre	2023-03-10T00:00:00	2024-11-08T12:00:00	1	Precipitación	0
151128	7	Sololá	713	San Lucas Tolimán	10	San Lucas Tolimán	10	Octubre	2023-03-10T00:00:00	2024-11-08T12:00:00	8	Radiación solar	540
151129	7	Sololá	713	San Lucas Tolimán	10	San Lucas Tolimán	10	Octubre	2023-03-10T00:00:00	2024-11-08T13:00:00	2	Temperatura media	22.8
151130	7	Sololá	713	San Lucas Tolimán	10	San Lucas Tolimán	10	Octubre	2023-03-10T00:00:00	2024-11-08T13:00:00	4	Temperatura máxima	23.3
151131	7	Sololá	713	San Lucas Tolimán	10	San Lucas Tolimán	10	Octubre	2023-03-10T00:00:00	2024-11-08T13:00:00	3	Temperatura mínima	21.8
151132	7	Sololá	713	San Lucas Tolimán	10	San Lucas Tolimán	10	Octubre	2023-03-10T00:00:00	2024-11-08T13:00:00	5	Humedad	58
151133	7	Sololá	713	San Lucas Tolimán	10	San Lucas Tolimán	10	Octubre	2023-03-10T00:00:00	2024-11-08T13:00:00	6	Velocidad del viento	9.7
151134	7	Sololá	713	San Lucas Tolimán	10	San Lucas Tolimán	10	Octubre	2023-03-10T00:00:00	2024-11-08T13:00:00	7	Dirección del viento	9.66
151135	7	Sololá	713	San Lucas Tolimán	10	San Lucas Tolimán	10	Octubre	2023-03-10T00:00:00	2024-11-08T13:00:00	1	Precipitación	0
151136	7	Sololá	713	San Lucas Tolimán	10	San Lucas Tolimán	10	Octubre	2023-03-10T00:00:00	2024-11-08T13:00:00	8	Radiación solar	930
151137	7	Sololá	713	San Lucas Tolimán	10	San Lucas Tolimán	10	Octubre	2023-03-10T00:00:00	2024-11-08T14:00:00	2	Temperatura media	20.6
151138	7	Sololá	713	San Lucas Tolimán	10	San Lucas Tolimán	10	Octubre	2023-03-10T00:00:00	2024-11-08T14:00:00	4	Temperatura máxima	22.7
151139	7	Sololá	713	San Lucas Tolimán	10	San Lucas Tolimán	10	Octubre	2023-03-10T00:00:00	2024-11-08T14:00:00	3	Temperatura mínima	20.4
151140	7	Sololá	713	San Lucas Tolimán	10	San Lucas Tolimán	10	Octubre	2023-03-10T00:00:00	2024-11-08T14:00:00	5	Humedad	63
151141	7	Sololá	713	San Lucas Tolimán	10	San Lucas Tolimán	10	Octubre	2023-03-10T00:00:00	2024-11-08T14:00:00	6	Velocidad del viento	9.7
151142	7	Sololá	713	San Lucas Tolimán	10	San Lucas Tolimán	10	Octubre	2023-03-10T00:00:00	2024-11-08T14:00:00	7	Dirección del viento	9.66
151143	7	Sololá	713	San Lucas Tolimán	10	San Lucas Tolimán	10	Octubre	2023-03-10T00:00:00	2024-11-08T14:00:00	1	Precipitación	0
151144	7	Sololá	713	San Lucas Tolimán	10	San Lucas Tolimán	10	Octubre	2023-03-10T00:00:00	2024-11-08T14:00:00	8	Radiación solar	297
151145	7	Sololá	713	San Lucas Tolimán	10	San Lucas Tolimán	10	Octubre	2023-03-10T00:00:00	2024-11-08T15:00:00	2	Temperatura media	19.6
151146	7	Sololá	713	San Lucas Tolimán	10	San Lucas Tolimán	10	Octubre	2023-03-10T00:00:00	2024-11-08T15:00:00	4	Temperatura máxima	20.7
151147	7	Sololá	713	San Lucas Tolimán	10	San Lucas Tolimán	10	Octubre	2023-03-10T00:00:00	2024-11-08T15:00:00	3	Temperatura mínima	19.6
151148	7	Sololá	713	San Lucas Tolimán	10	San Lucas Tolimán	10	Octubre	2023-03-10T00:00:00	2024-11-08T15:00:00	5	Humedad	65
151149	7	Sololá	713	San Lucas Tolimán	10	San Lucas Tolimán	10	Octubre	2023-03-10T00:00:00	2024-11-08T15:00:00	6	Velocidad del viento	8
151150	7	Sololá	713	San Lucas Tolimán	10	San Lucas Tolimán	10	Octubre	2023-03-10T00:00:00	2024-11-08T15:00:00	7	Dirección del viento	8.05
151151	7	Sololá	713	San Lucas Tolimán	10	San Lucas Tolimán	10	Octubre	2023-03-10T00:00:00	2024-11-08T15:00:00	1	Precipitación	0.2
151152	7	Sololá	713	San Lucas Tolimán	10	San Lucas Tolimán	10	Octubre	2023-03-10T00:00:00	2024-11-08T15:00:00	8	Radiación solar	139
151153	7	Sololá	713	San Lucas Tolimán	10	San Lucas Tolimán	10	Octubre	2023-03-10T00:00:00	2024-11-08T16:00:00	2	Temperatura media	18.4
151154	7	Sololá	713	San Lucas Tolimán	10	San Lucas Tolimán	10	Octubre	2023-03-10T00:00:00	2024-11-08T16:00:00	4	Temperatura máxima	19.6
151155	7	Sololá	713	San Lucas Tolimán	10	San Lucas Tolimán	10	Octubre	2023-03-10T00:00:00	2024-11-08T16:00:00	3	Temperatura mínima	18.4
151156	7	Sololá	713	San Lucas Tolimán	10	San Lucas Tolimán	10	Octubre	2023-03-10T00:00:00	2024-11-08T16:00:00	5	Humedad	67
151157	7	Sololá	713	San Lucas Tolimán	10	San Lucas Tolimán	10	Octubre	2023-03-10T00:00:00	2024-11-08T16:00:00	6	Velocidad del viento	9.7
151158	7	Sololá	713	San Lucas Tolimán	10	San Lucas Tolimán	10	Octubre	2023-03-10T00:00:00	2024-11-08T16:00:00	7	Dirección del viento	9.66
151159	7	Sololá	713	San Lucas Tolimán	10	San Lucas Tolimán	10	Octubre	2023-03-10T00:00:00	2024-11-08T16:00:00	1	Precipitación	3.8
151160	7	Sololá	713	San Lucas Tolimán	10	San Lucas Tolimán	10	Octubre	2023-03-10T00:00:00	2024-11-08T16:00:00	8	Radiación solar	87
151161	7	Sololá	713	San Lucas Tolimán	10	San Lucas Tolimán	10	Octubre	2023-03-10T00:00:00	2024-11-08T17:00:00	2	Temperatura media	18.3
151162	7	Sololá	713	San Lucas Tolimán	10	San Lucas Tolimán	10	Octubre	2023-03-10T00:00:00	2024-11-08T17:00:00	4	Temperatura máxima	18.5
151163	7	Sololá	713	San Lucas Tolimán	10	San Lucas Tolimán	10	Octubre	2023-03-10T00:00:00	2024-11-08T17:00:00	3	Temperatura mínima	18.2
151164	7	Sololá	713	San Lucas Tolimán	10	San Lucas Tolimán	10	Octubre	2023-03-10T00:00:00	2024-11-08T17:00:00	5	Humedad	67
151165	7	Sololá	713	San Lucas Tolimán	10	San Lucas Tolimán	10	Octubre	2023-03-10T00:00:00	2024-11-08T17:00:00	6	Velocidad del viento	9.7
151166	7	Sololá	713	San Lucas Tolimán	10	San Lucas Tolimán	10	Octubre	2023-03-10T00:00:00	2024-11-08T17:00:00	7	Dirección del viento	9.66
151167	7	Sololá	713	San Lucas Tolimán	10	San Lucas Tolimán	10	Octubre	2023-03-10T00:00:00	2024-11-08T17:00:00	1	Precipitación	3
151168	7	Sololá	713	San Lucas Tolimán	10	San Lucas Tolimán	10	Octubre	2023-03-10T00:00:00	2024-11-08T17:00:00	8	Radiación solar	29
151169	7	Sololá	713	San Lucas Tolimán	10	San Lucas Tolimán	10	Octubre	2023-03-10T00:00:00	2024-11-08T18:00:00	2	Temperatura media	18.3
151170	7	Sololá	713	San Lucas Tolimán	10	San Lucas Tolimán	10	Octubre	2023-03-10T00:00:00	2024-11-08T18:00:00	4	Temperatura máxima	18.3
151171	7	Sololá	713	San Lucas Tolimán	10	San Lucas Tolimán	10	Octubre	2023-03-10T00:00:00	2024-11-08T18:00:00	3	Temperatura mínima	18.2
151172	7	Sololá	713	San Lucas Tolimán	10	San Lucas Tolimán	10	Octubre	2023-03-10T00:00:00	2024-11-08T18:00:00	5	Humedad	97
151173	7	Sololá	713	San Lucas Tolimán	10	San Lucas Tolimán	10	Octubre	2023-03-10T00:00:00	2024-11-08T18:00:00	6	Velocidad del viento	8
151174	7	Sololá	713	San Lucas Tolimán	10	San Lucas Tolimán	10	Octubre	2023-03-10T00:00:00	2024-11-08T18:00:00	7	Dirección del viento	8.05
151175	7	Sololá	713	San Lucas Tolimán	10	San Lucas Tolimán	10	Octubre	2023-03-10T00:00:00	2024-11-08T18:00:00	1	Precipitación	2
151176	7	Sololá	713	San Lucas Tolimán	10	San Lucas Tolimán	10	Octubre	2023-03-10T00:00:00	2024-11-08T18:00:00	8	Radiación solar	16
151177	7	Sololá	713	San Lucas Tolimán	10	San Lucas Tolimán	10	Octubre	2023-03-10T00:00:00	2024-11-08T19:00:00	2	Temperatura media	18.3
151178	7	Sololá	713	San Lucas Tolimán	10	San Lucas Tolimán	10	Octubre	2023-03-10T00:00:00	2024-11-08T19:00:00	4	Temperatura máxima	18.4
151179	7	Sololá	713	San Lucas Tolimán	10	San Lucas Tolimán	10	Octubre	2023-03-10T00:00:00	2024-11-08T19:00:00	3	Temperatura mínima	18.2
151180	7	Sololá	713	San Lucas Tolimán	10	San Lucas Tolimán	10	Octubre	2023-03-10T00:00:00	2024-11-08T19:00:00	5	Humedad	98
151181	7	Sololá	713	San Lucas Tolimán	10	San Lucas Tolimán	10	Octubre	2023-03-10T00:00:00	2024-11-08T19:00:00	6	Velocidad del viento	3.2
151182	7	Sololá	713	San Lucas Tolimán	10	San Lucas Tolimán	10	Octubre	2023-03-10T00:00:00	2024-11-08T19:00:00	7	Dirección del viento	3.22
151183	7	Sololá	713	San Lucas Tolimán	10	San Lucas Tolimán	10	Octubre	2023-03-10T00:00:00	2024-11-08T19:00:00	1	Precipitación	2.8
151184	7	Sololá	713	San Lucas Tolimán	10	San Lucas Tolimán	10	Octubre	2023-03-10T00:00:00	2024-11-08T19:00:00	8	Radiación solar	0
151185	7	Sololá	713	San Lucas Tolimán	10	San Lucas Tolimán	10	Octubre	2023-03-10T00:00:00	2024-11-08T20:00:00	2	Temperatura media	17.9
151186	7	Sololá	713	San Lucas Tolimán	10	San Lucas Tolimán	10	Octubre	2023-03-10T00:00:00	2024-11-08T20:00:00	4	Temperatura máxima	18.3
151187	7	Sololá	713	San Lucas Tolimán	10	San Lucas Tolimán	10	Octubre	2023-03-10T00:00:00	2024-11-08T20:00:00	3	Temperatura mínima	17.8
151188	7	Sololá	713	San Lucas Tolimán	10	San Lucas Tolimán	10	Octubre	2023-03-10T00:00:00	2024-11-08T20:00:00	5	Humedad	98
151189	7	Sololá	713	San Lucas Tolimán	10	San Lucas Tolimán	10	Octubre	2023-03-10T00:00:00	2024-11-08T20:00:00	6	Velocidad del viento	8
151190	7	Sololá	713	San Lucas Tolimán	10	San Lucas Tolimán	10	Octubre	2023-03-10T00:00:00	2024-11-08T20:00:00	7	Dirección del viento	8.05
151191	7	Sololá	713	San Lucas Tolimán	10	San Lucas Tolimán	10	Octubre	2023-03-10T00:00:00	2024-11-08T20:00:00	1	Precipitación	0.6
151192	7	Sololá	713	San Lucas Tolimán	10	San Lucas Tolimán	10	Octubre	2023-03-10T00:00:00	2024-11-08T20:00:00	8	Radiación solar	0
151193	7	Sololá	713	San Lucas Tolimán	10	San Lucas Tolimán	10	Octubre	2023-03-10T00:00:00	2024-11-08T21:00:00	2	Temperatura media	17.9
151194	7	Sololá	713	San Lucas Tolimán	10	San Lucas Tolimán	10	Octubre	2023-03-10T00:00:00	2024-11-08T21:00:00	4	Temperatura máxima	17.9
151195	7	Sololá	713	San Lucas Tolimán	10	San Lucas Tolimán	10	Octubre	2023-03-10T00:00:00	2024-11-08T21:00:00	3	Temperatura mínima	17.8
151196	7	Sololá	713	San Lucas Tolimán	10	San Lucas Tolimán	10	Octubre	2023-03-10T00:00:00	2024-11-08T21:00:00	5	Humedad	97
151197	7	Sololá	713	San Lucas Tolimán	10	San Lucas Tolimán	10	Octubre	2023-03-10T00:00:00	2024-11-08T21:00:00	6	Velocidad del viento	8
151198	7	Sololá	713	San Lucas Tolimán	10	San Lucas Tolimán	10	Octubre	2023-03-10T00:00:00	2024-11-08T21:00:00	7	Dirección del viento	8.05
151199	7	Sololá	713	San Lucas Tolimán	10	San Lucas Tolimán	10	Octubre	2023-03-10T00:00:00	2024-11-08T21:00:00	1	Precipitación	1.2
151200	7	Sololá	713	San Lucas Tolimán	10	San Lucas Tolimán	10	Octubre	2023-03-10T00:00:00	2024-11-08T21:00:00	8	Radiación solar	0
151201	7	Sololá	713	San Lucas Tolimán	10	San Lucas Tolimán	10	Octubre	2023-03-10T00:00:00	2024-11-08T22:00:00	2	Temperatura media	17.8
151202	7	Sololá	713	San Lucas Tolimán	10	San Lucas Tolimán	10	Octubre	2023-03-10T00:00:00	2024-11-08T22:00:00	4	Temperatura máxima	17.9
151203	7	Sololá	713	San Lucas Tolimán	10	San Lucas Tolimán	10	Octubre	2023-03-10T00:00:00	2024-11-08T22:00:00	3	Temperatura mínima	17.8
151204	7	Sololá	713	San Lucas Tolimán	10	San Lucas Tolimán	10	Octubre	2023-03-10T00:00:00	2024-11-08T22:00:00	5	Humedad	97
151205	7	Sololá	713	San Lucas Tolimán	10	San Lucas Tolimán	10	Octubre	2023-03-10T00:00:00	2024-11-08T22:00:00	6	Velocidad del viento	1.6
151206	7	Sololá	713	San Lucas Tolimán	10	San Lucas Tolimán	10	Octubre	2023-03-10T00:00:00	2024-11-08T22:00:00	7	Dirección del viento	1.61
151207	7	Sololá	713	San Lucas Tolimán	10	San Lucas Tolimán	10	Octubre	2023-03-10T00:00:00	2024-11-08T22:00:00	1	Precipitación	2.4
151208	7	Sololá	713	San Lucas Tolimán	10	San Lucas Tolimán	10	Octubre	2023-03-10T00:00:00	2024-11-08T22:00:00	8	Radiación solar	0
151209	7	Sololá	713	San Lucas Tolimán	10	San Lucas Tolimán	10	Octubre	2023-03-10T00:00:00	2024-11-08T23:00:00	2	Temperatura media	17.8
151210	7	Sololá	713	San Lucas Tolimán	10	San Lucas Tolimán	10	Octubre	2023-03-10T00:00:00	2024-11-08T23:00:00	4	Temperatura máxima	17.9
151211	7	Sololá	713	San Lucas Tolimán	10	San Lucas Tolimán	10	Octubre	2023-03-10T00:00:00	2024-11-08T23:00:00	3	Temperatura mínima	17.8
151212	7	Sololá	713	San Lucas Tolimán	10	San Lucas Tolimán	10	Octubre	2023-03-10T00:00:00	2024-11-08T23:00:00	5	Humedad	96
151213	7	Sololá	713	San Lucas Tolimán	10	San Lucas Tolimán	10	Octubre	2023-03-10T00:00:00	2024-11-08T23:00:00	6	Velocidad del viento	3.2
151214	7	Sololá	713	San Lucas Tolimán	10	San Lucas Tolimán	10	Octubre	2023-03-10T00:00:00	2024-11-08T23:00:00	7	Dirección del viento	3.22
151215	7	Sololá	713	San Lucas Tolimán	10	San Lucas Tolimán	10	Octubre	2023-03-10T00:00:00	2024-11-08T23:00:00	1	Precipitación	0.4
151216	7	Sololá	713	San Lucas Tolimán	10	San Lucas Tolimán	10	Octubre	2023-03-10T00:00:00	2024-11-08T23:00:00	8	Radiación solar	0
151217	7	Sololá	713	San Lucas Tolimán	10	San Lucas Tolimán	10	Octubre	2023-04-10T00:00:00	2024-11-08T00:00:00	2	Temperatura media	17.6
151218	7	Sololá	713	San Lucas Tolimán	10	San Lucas Tolimán	10	Octubre	2023-04-10T00:00:00	2024-11-08T00:00:00	4	Temperatura máxima	17.8
151219	7	Sololá	713	San Lucas Tolimán	10	San Lucas Tolimán	10	Octubre	2023-04-10T00:00:00	2024-11-08T00:00:00	3	Temperatura mínima	17.6
151220	7	Sololá	713	San Lucas Tolimán	10	San Lucas Tolimán	10	Octubre	2023-04-10T00:00:00	2024-11-08T00:00:00	5	Humedad	96
151221	7	Sololá	713	San Lucas Tolimán	10	San Lucas Tolimán	10	Octubre	2023-04-10T00:00:00	2024-11-08T00:00:00	6	Velocidad del viento	0
151222	7	Sololá	713	San Lucas Tolimán	10	San Lucas Tolimán	10	Octubre	2023-04-10T00:00:00	2024-11-08T00:00:00	7	Dirección del viento	0
151223	7	Sololá	713	San Lucas Tolimán	10	San Lucas Tolimán	10	Octubre	2023-04-10T00:00:00	2024-11-08T00:00:00	1	Precipitación	0
151224	7	Sololá	713	San Lucas Tolimán	10	San Lucas Tolimán	10	Octubre	2023-04-10T00:00:00	2024-11-08T00:00:00	8	Radiación solar	0
151225	7	Sololá	713	San Lucas Tolimán	10	San Lucas Tolimán	10	Octubre	2023-04-10T00:00:00	2024-11-08T01:00:00	2	Temperatura media	16.9
151226	7	Sololá	713	San Lucas Tolimán	10	San Lucas Tolimán	10	Octubre	2023-04-10T00:00:00	2024-11-08T01:00:00	4	Temperatura máxima	17.6
151227	7	Sololá	713	San Lucas Tolimán	10	San Lucas Tolimán	10	Octubre	2023-04-10T00:00:00	2024-11-08T01:00:00	3	Temperatura mínima	16.9
151228	7	Sololá	713	San Lucas Tolimán	10	San Lucas Tolimán	10	Octubre	2023-04-10T00:00:00	2024-11-08T01:00:00	5	Humedad	96
151229	7	Sololá	713	San Lucas Tolimán	10	San Lucas Tolimán	10	Octubre	2023-04-10T00:00:00	2024-11-08T01:00:00	6	Velocidad del viento	0
151230	7	Sololá	713	San Lucas Tolimán	10	San Lucas Tolimán	10	Octubre	2023-04-10T00:00:00	2024-11-08T01:00:00	7	Dirección del viento	0
151231	7	Sololá	713	San Lucas Tolimán	10	San Lucas Tolimán	10	Octubre	2023-04-10T00:00:00	2024-11-08T01:00:00	1	Precipitación	0
151232	7	Sololá	713	San Lucas Tolimán	10	San Lucas Tolimán	10	Octubre	2023-04-10T00:00:00	2024-11-08T01:00:00	8	Radiación solar	0
151233	7	Sololá	713	San Lucas Tolimán	10	San Lucas Tolimán	10	Octubre	2023-04-10T00:00:00	2024-11-08T02:00:00	2	Temperatura media	16.2
151234	7	Sololá	713	San Lucas Tolimán	10	San Lucas Tolimán	10	Octubre	2023-04-10T00:00:00	2024-11-08T02:00:00	4	Temperatura máxima	16.9
151235	7	Sololá	713	San Lucas Tolimán	10	San Lucas Tolimán	10	Octubre	2023-04-10T00:00:00	2024-11-08T02:00:00	3	Temperatura mínima	16.2
151236	7	Sololá	713	San Lucas Tolimán	10	San Lucas Tolimán	10	Octubre	2023-04-10T00:00:00	2024-11-08T02:00:00	5	Humedad	97
151237	7	Sololá	713	San Lucas Tolimán	10	San Lucas Tolimán	10	Octubre	2023-04-10T00:00:00	2024-11-08T02:00:00	6	Velocidad del viento	1.6
151238	7	Sololá	713	San Lucas Tolimán	10	San Lucas Tolimán	10	Octubre	2023-04-10T00:00:00	2024-11-08T02:00:00	7	Dirección del viento	1.61
151239	7	Sololá	713	San Lucas Tolimán	10	San Lucas Tolimán	10	Octubre	2023-04-10T00:00:00	2024-11-08T02:00:00	1	Precipitación	0
151240	7	Sololá	713	San Lucas Tolimán	10	San Lucas Tolimán	10	Octubre	2023-04-10T00:00:00	2024-11-08T02:00:00	8	Radiación solar	0
151241	7	Sololá	713	San Lucas Tolimán	10	San Lucas Tolimán	10	Octubre	2023-04-10T00:00:00	2024-11-08T03:00:00	2	Temperatura media	16.2
151242	7	Sololá	713	San Lucas Tolimán	10	San Lucas Tolimán	10	Octubre	2023-04-10T00:00:00	2024-11-08T03:00:00	4	Temperatura máxima	16.3
151243	7	Sololá	713	San Lucas Tolimán	10	San Lucas Tolimán	10	Octubre	2023-04-10T00:00:00	2024-11-08T03:00:00	3	Temperatura mínima	16.2
151244	7	Sololá	713	San Lucas Tolimán	10	San Lucas Tolimán	10	Octubre	2023-04-10T00:00:00	2024-11-08T03:00:00	5	Humedad	97
151245	7	Sololá	713	San Lucas Tolimán	10	San Lucas Tolimán	10	Octubre	2023-04-10T00:00:00	2024-11-08T03:00:00	6	Velocidad del viento	1.6
151246	7	Sololá	713	San Lucas Tolimán	10	San Lucas Tolimán	10	Octubre	2023-04-10T00:00:00	2024-11-08T03:00:00	7	Dirección del viento	1.61
151247	7	Sololá	713	San Lucas Tolimán	10	San Lucas Tolimán	10	Octubre	2023-04-10T00:00:00	2024-11-08T03:00:00	1	Precipitación	0
151248	7	Sololá	713	San Lucas Tolimán	10	San Lucas Tolimán	10	Octubre	2023-04-10T00:00:00	2024-11-08T03:00:00	8	Radiación solar	0
151249	7	Sololá	713	San Lucas Tolimán	10	San Lucas Tolimán	10	Octubre	2023-04-10T00:00:00	2024-11-08T04:00:00	2	Temperatura media	16.2
151250	7	Sololá	713	San Lucas Tolimán	10	San Lucas Tolimán	10	Octubre	2023-04-10T00:00:00	2024-11-08T04:00:00	4	Temperatura máxima	16.2
151251	7	Sololá	713	San Lucas Tolimán	10	San Lucas Tolimán	10	Octubre	2023-04-10T00:00:00	2024-11-08T04:00:00	3	Temperatura mínima	16.1
151252	7	Sololá	713	San Lucas Tolimán	10	San Lucas Tolimán	10	Octubre	2023-04-10T00:00:00	2024-11-08T04:00:00	5	Humedad	97
151253	7	Sololá	713	San Lucas Tolimán	10	San Lucas Tolimán	10	Octubre	2023-04-10T00:00:00	2024-11-08T04:00:00	6	Velocidad del viento	1.6
151254	7	Sololá	713	San Lucas Tolimán	10	San Lucas Tolimán	10	Octubre	2023-04-10T00:00:00	2024-11-08T04:00:00	7	Dirección del viento	1.61
151255	7	Sololá	713	San Lucas Tolimán	10	San Lucas Tolimán	10	Octubre	2023-04-10T00:00:00	2024-11-08T04:00:00	1	Precipitación	0
151256	7	Sololá	713	San Lucas Tolimán	10	San Lucas Tolimán	10	Octubre	2023-04-10T00:00:00	2024-11-08T04:00:00	8	Radiación solar	0
151257	7	Sololá	713	San Lucas Tolimán	10	San Lucas Tolimán	10	Octubre	2023-04-10T00:00:00	2024-11-08T05:00:00	2	Temperatura media	16.7
151258	7	Sololá	713	San Lucas Tolimán	10	San Lucas Tolimán	10	Octubre	2023-04-10T00:00:00	2024-11-08T05:00:00	4	Temperatura máxima	16.8
151259	7	Sololá	713	San Lucas Tolimán	10	San Lucas Tolimán	10	Octubre	2023-04-10T00:00:00	2024-11-08T05:00:00	3	Temperatura mínima	16.2
151260	7	Sololá	713	San Lucas Tolimán	10	San Lucas Tolimán	10	Octubre	2023-04-10T00:00:00	2024-11-08T05:00:00	5	Humedad	96
151261	7	Sololá	713	San Lucas Tolimán	10	San Lucas Tolimán	10	Octubre	2023-04-10T00:00:00	2024-11-08T05:00:00	6	Velocidad del viento	4.8
151262	7	Sololá	713	San Lucas Tolimán	10	San Lucas Tolimán	10	Octubre	2023-04-10T00:00:00	2024-11-08T05:00:00	7	Dirección del viento	4.83
151263	7	Sololá	713	San Lucas Tolimán	10	San Lucas Tolimán	10	Octubre	2023-04-10T00:00:00	2024-11-08T05:00:00	1	Precipitación	0
151264	7	Sololá	713	San Lucas Tolimán	10	San Lucas Tolimán	10	Octubre	2023-04-10T00:00:00	2024-11-08T05:00:00	8	Radiación solar	0
151265	7	Sololá	713	San Lucas Tolimán	10	San Lucas Tolimán	10	Octubre	2023-04-10T00:00:00	2024-11-08T06:00:00	2	Temperatura media	16.7
151266	7	Sololá	713	San Lucas Tolimán	10	San Lucas Tolimán	10	Octubre	2023-04-10T00:00:00	2024-11-08T06:00:00	4	Temperatura máxima	16.7
151267	7	Sololá	713	San Lucas Tolimán	10	San Lucas Tolimán	10	Octubre	2023-04-10T00:00:00	2024-11-08T06:00:00	3	Temperatura mínima	16.5
151268	7	Sololá	713	San Lucas Tolimán	10	San Lucas Tolimán	10	Octubre	2023-04-10T00:00:00	2024-11-08T06:00:00	5	Humedad	97
151269	7	Sololá	713	San Lucas Tolimán	10	San Lucas Tolimán	10	Octubre	2023-04-10T00:00:00	2024-11-08T06:00:00	6	Velocidad del viento	3.2
151270	7	Sololá	713	San Lucas Tolimán	10	San Lucas Tolimán	10	Octubre	2023-04-10T00:00:00	2024-11-08T06:00:00	7	Dirección del viento	3.22
151271	7	Sololá	713	San Lucas Tolimán	10	San Lucas Tolimán	10	Octubre	2023-04-10T00:00:00	2024-11-08T06:00:00	1	Precipitación	0
151272	7	Sololá	713	San Lucas Tolimán	10	San Lucas Tolimán	10	Octubre	2023-04-10T00:00:00	2024-11-08T06:00:00	8	Radiación solar	0
151273	7	Sololá	713	San Lucas Tolimán	10	San Lucas Tolimán	10	Octubre	2023-04-10T00:00:00	2024-11-08T07:00:00	2	Temperatura media	17.2
151274	7	Sololá	713	San Lucas Tolimán	10	San Lucas Tolimán	10	Octubre	2023-04-10T00:00:00	2024-11-08T07:00:00	4	Temperatura máxima	17.2
151275	7	Sololá	713	San Lucas Tolimán	10	San Lucas Tolimán	10	Octubre	2023-04-10T00:00:00	2024-11-08T07:00:00	3	Temperatura mínima	16.6
151276	7	Sololá	713	San Lucas Tolimán	10	San Lucas Tolimán	10	Octubre	2023-04-10T00:00:00	2024-11-08T07:00:00	5	Humedad	96
151277	7	Sololá	713	San Lucas Tolimán	10	San Lucas Tolimán	10	Octubre	2023-04-10T00:00:00	2024-11-08T07:00:00	6	Velocidad del viento	4.8
151278	7	Sololá	713	San Lucas Tolimán	10	San Lucas Tolimán	10	Octubre	2023-04-10T00:00:00	2024-11-08T07:00:00	7	Dirección del viento	4.83
151279	7	Sololá	713	San Lucas Tolimán	10	San Lucas Tolimán	10	Octubre	2023-04-10T00:00:00	2024-11-08T07:00:00	1	Precipitación	0
151280	7	Sololá	713	San Lucas Tolimán	10	San Lucas Tolimán	10	Octubre	2023-04-10T00:00:00	2024-11-08T07:00:00	8	Radiación solar	46
151281	7	Sololá	713	San Lucas Tolimán	10	San Lucas Tolimán	10	Octubre	2023-04-10T00:00:00	2024-11-08T08:00:00	2	Temperatura media	19.8
151282	7	Sololá	713	San Lucas Tolimán	10	San Lucas Tolimán	10	Octubre	2023-04-10T00:00:00	2024-11-08T08:00:00	4	Temperatura máxima	19.8
151283	7	Sololá	713	San Lucas Tolimán	10	San Lucas Tolimán	10	Octubre	2023-04-10T00:00:00	2024-11-08T08:00:00	3	Temperatura mínima	17.1
151284	7	Sololá	713	San Lucas Tolimán	10	San Lucas Tolimán	10	Octubre	2023-04-10T00:00:00	2024-11-08T08:00:00	5	Humedad	92
151285	7	Sololá	713	San Lucas Tolimán	10	San Lucas Tolimán	10	Octubre	2023-04-10T00:00:00	2024-11-08T08:00:00	6	Velocidad del viento	1.6
151286	7	Sololá	713	San Lucas Tolimán	10	San Lucas Tolimán	10	Octubre	2023-04-10T00:00:00	2024-11-08T08:00:00	7	Dirección del viento	1.61
151287	7	Sololá	713	San Lucas Tolimán	10	San Lucas Tolimán	10	Octubre	2023-04-10T00:00:00	2024-11-08T08:00:00	1	Precipitación	0
151288	7	Sololá	713	San Lucas Tolimán	10	San Lucas Tolimán	10	Octubre	2023-04-10T00:00:00	2024-11-08T08:00:00	8	Radiación solar	162
151289	7	Sololá	713	San Lucas Tolimán	10	San Lucas Tolimán	10	Octubre	2023-04-10T00:00:00	2024-11-08T09:00:00	2	Temperatura media	22.3
151290	7	Sololá	713	San Lucas Tolimán	10	San Lucas Tolimán	10	Octubre	2023-04-10T00:00:00	2024-11-08T09:00:00	4	Temperatura máxima	22.3
151291	7	Sololá	713	San Lucas Tolimán	10	San Lucas Tolimán	10	Octubre	2023-04-10T00:00:00	2024-11-08T09:00:00	3	Temperatura mínima	19.8
151292	7	Sololá	713	San Lucas Tolimán	10	San Lucas Tolimán	10	Octubre	2023-04-10T00:00:00	2024-11-08T09:00:00	5	Humedad	75
151293	7	Sololá	713	San Lucas Tolimán	10	San Lucas Tolimán	10	Octubre	2023-04-10T00:00:00	2024-11-08T09:00:00	6	Velocidad del viento	4.8
151294	7	Sololá	713	San Lucas Tolimán	10	San Lucas Tolimán	10	Octubre	2023-04-10T00:00:00	2024-11-08T09:00:00	7	Dirección del viento	4.83
151295	7	Sololá	713	San Lucas Tolimán	10	San Lucas Tolimán	10	Octubre	2023-04-10T00:00:00	2024-11-08T09:00:00	1	Precipitación	0.2
151296	7	Sololá	713	San Lucas Tolimán	10	San Lucas Tolimán	10	Octubre	2023-04-10T00:00:00	2024-11-08T09:00:00	8	Radiación solar	165
151297	7	Sololá	713	San Lucas Tolimán	10	San Lucas Tolimán	10	Octubre	2023-04-10T00:00:00	2024-11-08T10:00:00	2	Temperatura media	25.4
151298	7	Sololá	713	San Lucas Tolimán	10	San Lucas Tolimán	10	Octubre	2023-04-10T00:00:00	2024-11-08T10:00:00	4	Temperatura máxima	25.4
151299	7	Sololá	713	San Lucas Tolimán	10	San Lucas Tolimán	10	Octubre	2023-04-10T00:00:00	2024-11-08T10:00:00	3	Temperatura mínima	22.3
151300	7	Sololá	713	San Lucas Tolimán	10	San Lucas Tolimán	10	Octubre	2023-04-10T00:00:00	2024-11-08T10:00:00	5	Humedad	67
151301	7	Sololá	713	San Lucas Tolimán	10	San Lucas Tolimán	10	Octubre	2023-04-10T00:00:00	2024-11-08T10:00:00	6	Velocidad del viento	4.8
151302	7	Sololá	713	San Lucas Tolimán	10	San Lucas Tolimán	10	Octubre	2023-04-10T00:00:00	2024-11-08T10:00:00	7	Dirección del viento	4.83
151303	7	Sololá	713	San Lucas Tolimán	10	San Lucas Tolimán	10	Octubre	2023-04-10T00:00:00	2024-11-08T10:00:00	1	Precipitación	0
151304	7	Sololá	713	San Lucas Tolimán	10	San Lucas Tolimán	10	Octubre	2023-04-10T00:00:00	2024-11-08T10:00:00	8	Radiación solar	355
151305	7	Sololá	713	San Lucas Tolimán	10	San Lucas Tolimán	10	Octubre	2023-04-10T00:00:00	2024-11-08T11:00:00	2	Temperatura media	23.6
151306	7	Sololá	713	San Lucas Tolimán	10	San Lucas Tolimán	10	Octubre	2023-04-10T00:00:00	2024-11-08T11:00:00	4	Temperatura máxima	26.4
151307	7	Sololá	713	San Lucas Tolimán	10	San Lucas Tolimán	10	Octubre	2023-04-10T00:00:00	2024-11-08T11:00:00	3	Temperatura mínima	23.6
151308	7	Sololá	713	San Lucas Tolimán	10	San Lucas Tolimán	10	Octubre	2023-04-10T00:00:00	2024-11-08T11:00:00	5	Humedad	83
151309	7	Sololá	713	San Lucas Tolimán	10	San Lucas Tolimán	10	Octubre	2023-04-10T00:00:00	2024-11-08T11:00:00	6	Velocidad del viento	8
151310	7	Sololá	713	San Lucas Tolimán	10	San Lucas Tolimán	10	Octubre	2023-04-10T00:00:00	2024-11-08T11:00:00	7	Dirección del viento	8.05
151311	7	Sololá	713	San Lucas Tolimán	10	San Lucas Tolimán	10	Octubre	2023-04-10T00:00:00	2024-11-08T11:00:00	1	Precipitación	0
151312	7	Sololá	713	San Lucas Tolimán	10	San Lucas Tolimán	10	Octubre	2023-04-10T00:00:00	2024-11-08T11:00:00	8	Radiación solar	320
151313	7	Sololá	713	San Lucas Tolimán	10	San Lucas Tolimán	10	Octubre	2023-04-10T00:00:00	2024-11-08T12:00:00	2	Temperatura media	22.6
151314	7	Sololá	713	San Lucas Tolimán	10	San Lucas Tolimán	10	Octubre	2023-04-10T00:00:00	2024-11-08T12:00:00	4	Temperatura máxima	23.6
151315	7	Sololá	713	San Lucas Tolimán	10	San Lucas Tolimán	10	Octubre	2023-04-10T00:00:00	2024-11-08T12:00:00	3	Temperatura mínima	22.3
151316	7	Sololá	713	San Lucas Tolimán	10	San Lucas Tolimán	10	Octubre	2023-04-10T00:00:00	2024-11-08T12:00:00	5	Humedad	85
151317	7	Sololá	713	San Lucas Tolimán	10	San Lucas Tolimán	10	Octubre	2023-04-10T00:00:00	2024-11-08T12:00:00	6	Velocidad del viento	14.5
151318	7	Sololá	713	San Lucas Tolimán	10	San Lucas Tolimán	10	Octubre	2023-04-10T00:00:00	2024-11-08T12:00:00	7	Dirección del viento	14.48
151319	7	Sololá	713	San Lucas Tolimán	10	San Lucas Tolimán	10	Octubre	2023-04-10T00:00:00	2024-11-08T12:00:00	1	Precipitación	0
151320	7	Sololá	713	San Lucas Tolimán	10	San Lucas Tolimán	10	Octubre	2023-04-10T00:00:00	2024-11-08T12:00:00	8	Radiación solar	331
151321	7	Sololá	713	San Lucas Tolimán	10	San Lucas Tolimán	10	Octubre	2023-04-10T00:00:00	2024-11-08T13:00:00	2	Temperatura media	21.9
151322	7	Sololá	713	San Lucas Tolimán	10	San Lucas Tolimán	10	Octubre	2023-04-10T00:00:00	2024-11-08T13:00:00	4	Temperatura máxima	22.8
151323	7	Sololá	713	San Lucas Tolimán	10	San Lucas Tolimán	10	Octubre	2023-04-10T00:00:00	2024-11-08T13:00:00	3	Temperatura mínima	21.2
151324	7	Sololá	713	San Lucas Tolimán	10	San Lucas Tolimán	10	Octubre	2023-04-10T00:00:00	2024-11-08T13:00:00	5	Humedad	88
151325	7	Sololá	713	San Lucas Tolimán	10	San Lucas Tolimán	10	Octubre	2023-04-10T00:00:00	2024-11-08T13:00:00	6	Velocidad del viento	14.5
151326	7	Sololá	713	San Lucas Tolimán	10	San Lucas Tolimán	10	Octubre	2023-04-10T00:00:00	2024-11-08T13:00:00	7	Dirección del viento	14.48
151327	7	Sololá	713	San Lucas Tolimán	10	San Lucas Tolimán	10	Octubre	2023-04-10T00:00:00	2024-11-08T13:00:00	1	Precipitación	0
151328	7	Sololá	713	San Lucas Tolimán	10	San Lucas Tolimán	10	Octubre	2023-04-10T00:00:00	2024-11-08T13:00:00	8	Radiación solar	423
151329	7	Sololá	713	San Lucas Tolimán	10	San Lucas Tolimán	10	Octubre	2023-04-10T00:00:00	2024-11-08T14:00:00	2	Temperatura media	20.9
151330	7	Sololá	713	San Lucas Tolimán	10	San Lucas Tolimán	10	Octubre	2023-04-10T00:00:00	2024-11-08T14:00:00	4	Temperatura máxima	22
151331	7	Sololá	713	San Lucas Tolimán	10	San Lucas Tolimán	10	Octubre	2023-04-10T00:00:00	2024-11-08T14:00:00	3	Temperatura mínima	20.9
151332	7	Sololá	713	San Lucas Tolimán	10	San Lucas Tolimán	10	Octubre	2023-04-10T00:00:00	2024-11-08T14:00:00	5	Humedad	91
151333	7	Sololá	713	San Lucas Tolimán	10	San Lucas Tolimán	10	Octubre	2023-04-10T00:00:00	2024-11-08T14:00:00	6	Velocidad del viento	11.3
151334	7	Sololá	713	San Lucas Tolimán	10	San Lucas Tolimán	10	Octubre	2023-04-10T00:00:00	2024-11-08T14:00:00	7	Dirección del viento	11.27
151335	7	Sololá	713	San Lucas Tolimán	10	San Lucas Tolimán	10	Octubre	2023-04-10T00:00:00	2024-11-08T14:00:00	1	Precipitación	0
151336	7	Sololá	713	San Lucas Tolimán	10	San Lucas Tolimán	10	Octubre	2023-04-10T00:00:00	2024-11-08T14:00:00	8	Radiación solar	448
151337	7	Sololá	713	San Lucas Tolimán	10	San Lucas Tolimán	10	Octubre	2023-04-10T00:00:00	2024-11-08T15:00:00	2	Temperatura media	19.1
151338	7	Sololá	713	San Lucas Tolimán	10	San Lucas Tolimán	10	Octubre	2023-04-10T00:00:00	2024-11-08T15:00:00	4	Temperatura máxima	21.1
151339	7	Sololá	713	San Lucas Tolimán	10	San Lucas Tolimán	10	Octubre	2023-04-10T00:00:00	2024-11-08T15:00:00	3	Temperatura mínima	19.1
151340	7	Sololá	713	San Lucas Tolimán	10	San Lucas Tolimán	10	Octubre	2023-04-10T00:00:00	2024-11-08T15:00:00	5	Humedad	95
151341	7	Sololá	713	San Lucas Tolimán	10	San Lucas Tolimán	10	Octubre	2023-04-10T00:00:00	2024-11-08T15:00:00	6	Velocidad del viento	11.3
151342	7	Sololá	713	San Lucas Tolimán	10	San Lucas Tolimán	10	Octubre	2023-04-10T00:00:00	2024-11-08T15:00:00	7	Dirección del viento	11.27
151343	7	Sololá	713	San Lucas Tolimán	10	San Lucas Tolimán	10	Octubre	2023-04-10T00:00:00	2024-11-08T15:00:00	1	Precipitación	3.2
151344	7	Sololá	713	San Lucas Tolimán	10	San Lucas Tolimán	10	Octubre	2023-04-10T00:00:00	2024-11-08T15:00:00	8	Radiación solar	322
151345	7	Sololá	713	San Lucas Tolimán	10	San Lucas Tolimán	10	Octubre	2023-04-10T00:00:00	2024-11-08T16:00:00	2	Temperatura media	18.4
151346	7	Sololá	713	San Lucas Tolimán	10	San Lucas Tolimán	10	Octubre	2023-04-10T00:00:00	2024-11-08T16:00:00	4	Temperatura máxima	19.1
151347	7	Sololá	713	San Lucas Tolimán	10	San Lucas Tolimán	10	Octubre	2023-04-10T00:00:00	2024-11-08T16:00:00	3	Temperatura mínima	18.3
151348	7	Sololá	713	San Lucas Tolimán	10	San Lucas Tolimán	10	Octubre	2023-04-10T00:00:00	2024-11-08T16:00:00	5	Humedad	95
151349	7	Sololá	713	San Lucas Tolimán	10	San Lucas Tolimán	10	Octubre	2023-04-10T00:00:00	2024-11-08T16:00:00	6	Velocidad del viento	11.3
151350	7	Sololá	713	San Lucas Tolimán	10	San Lucas Tolimán	10	Octubre	2023-04-10T00:00:00	2024-11-08T16:00:00	7	Dirección del viento	11.27
151351	7	Sololá	713	San Lucas Tolimán	10	San Lucas Tolimán	10	Octubre	2023-04-10T00:00:00	2024-11-08T16:00:00	1	Precipitación	7.2
151352	7	Sololá	713	San Lucas Tolimán	10	San Lucas Tolimán	10	Octubre	2023-04-10T00:00:00	2024-11-08T16:00:00	8	Radiación solar	300
151353	7	Sololá	713	San Lucas Tolimán	10	San Lucas Tolimán	10	Octubre	2023-04-10T00:00:00	2024-11-08T17:00:00	2	Temperatura media	18.4
151354	7	Sololá	713	San Lucas Tolimán	10	San Lucas Tolimán	10	Octubre	2023-04-10T00:00:00	2024-11-08T17:00:00	4	Temperatura máxima	18.5
151355	7	Sololá	713	San Lucas Tolimán	10	San Lucas Tolimán	10	Octubre	2023-04-10T00:00:00	2024-11-08T17:00:00	3	Temperatura mínima	18.2
151356	7	Sololá	713	San Lucas Tolimán	10	San Lucas Tolimán	10	Octubre	2023-04-10T00:00:00	2024-11-08T17:00:00	5	Humedad	96
151357	7	Sololá	713	San Lucas Tolimán	10	San Lucas Tolimán	10	Octubre	2023-04-10T00:00:00	2024-11-08T17:00:00	6	Velocidad del viento	6.4
151358	7	Sololá	713	San Lucas Tolimán	10	San Lucas Tolimán	10	Octubre	2023-04-10T00:00:00	2024-11-08T17:00:00	7	Dirección del viento	6.44
151359	7	Sololá	713	San Lucas Tolimán	10	San Lucas Tolimán	10	Octubre	2023-04-10T00:00:00	2024-11-08T17:00:00	1	Precipitación	0
151360	7	Sololá	713	San Lucas Tolimán	10	San Lucas Tolimán	10	Octubre	2023-04-10T00:00:00	2024-11-08T17:00:00	8	Radiación solar	137
151361	7	Sololá	713	San Lucas Tolimán	10	San Lucas Tolimán	10	Octubre	2023-04-10T00:00:00	2024-11-08T18:00:00	2	Temperatura media	18.2
151362	7	Sololá	713	San Lucas Tolimán	10	San Lucas Tolimán	10	Octubre	2023-04-10T00:00:00	2024-11-08T18:00:00	4	Temperatura máxima	18.4
151363	7	Sololá	713	San Lucas Tolimán	10	San Lucas Tolimán	10	Octubre	2023-04-10T00:00:00	2024-11-08T18:00:00	3	Temperatura mínima	18.2
151364	7	Sololá	713	San Lucas Tolimán	10	San Lucas Tolimán	10	Octubre	2023-04-10T00:00:00	2024-11-08T18:00:00	5	Humedad	95
151365	7	Sololá	713	San Lucas Tolimán	10	San Lucas Tolimán	10	Octubre	2023-04-10T00:00:00	2024-11-08T18:00:00	6	Velocidad del viento	3.2
151366	7	Sololá	713	San Lucas Tolimán	10	San Lucas Tolimán	10	Octubre	2023-04-10T00:00:00	2024-11-08T18:00:00	7	Dirección del viento	3.22
151367	7	Sololá	713	San Lucas Tolimán	10	San Lucas Tolimán	10	Octubre	2023-04-10T00:00:00	2024-11-08T18:00:00	1	Precipitación	0.4
151368	7	Sololá	713	San Lucas Tolimán	10	San Lucas Tolimán	10	Octubre	2023-04-10T00:00:00	2024-11-08T18:00:00	8	Radiación solar	6
151369	7	Sololá	713	San Lucas Tolimán	10	San Lucas Tolimán	10	Octubre	2023-04-10T00:00:00	2024-11-08T19:00:00	2	Temperatura media	17.6
151370	7	Sololá	713	San Lucas Tolimán	10	San Lucas Tolimán	10	Octubre	2023-04-10T00:00:00	2024-11-08T19:00:00	4	Temperatura máxima	18.3
151371	7	Sololá	713	San Lucas Tolimán	10	San Lucas Tolimán	10	Octubre	2023-04-10T00:00:00	2024-11-08T19:00:00	3	Temperatura mínima	17.6
151372	7	Sololá	713	San Lucas Tolimán	10	San Lucas Tolimán	10	Octubre	2023-04-10T00:00:00	2024-11-08T19:00:00	5	Humedad	96
151373	7	Sololá	713	San Lucas Tolimán	10	San Lucas Tolimán	10	Octubre	2023-04-10T00:00:00	2024-11-08T19:00:00	6	Velocidad del viento	1.6
151374	7	Sololá	713	San Lucas Tolimán	10	San Lucas Tolimán	10	Octubre	2023-04-10T00:00:00	2024-11-08T19:00:00	7	Dirección del viento	1.61
151375	7	Sololá	713	San Lucas Tolimán	10	San Lucas Tolimán	10	Octubre	2023-04-10T00:00:00	2024-11-08T19:00:00	1	Precipitación	0
151376	7	Sololá	713	San Lucas Tolimán	10	San Lucas Tolimán	10	Octubre	2023-04-10T00:00:00	2024-11-08T19:00:00	8	Radiación solar	0
151377	7	Sololá	713	San Lucas Tolimán	10	San Lucas Tolimán	10	Octubre	2023-04-10T00:00:00	2024-11-08T20:00:00	2	Temperatura media	17.6
151378	7	Sololá	713	San Lucas Tolimán	10	San Lucas Tolimán	10	Octubre	2023-04-10T00:00:00	2024-11-08T20:00:00	4	Temperatura máxima	17.9
151379	7	Sololá	713	San Lucas Tolimán	10	San Lucas Tolimán	10	Octubre	2023-04-10T00:00:00	2024-11-08T20:00:00	3	Temperatura mínima	17.6
151380	7	Sololá	713	San Lucas Tolimán	10	San Lucas Tolimán	10	Octubre	2023-04-10T00:00:00	2024-11-08T20:00:00	5	Humedad	67
151381	7	Sololá	713	San Lucas Tolimán	10	San Lucas Tolimán	10	Octubre	2023-04-10T00:00:00	2024-11-08T20:00:00	6	Velocidad del viento	6.4
151382	7	Sololá	713	San Lucas Tolimán	10	San Lucas Tolimán	10	Octubre	2023-04-10T00:00:00	2024-11-08T20:00:00	7	Dirección del viento	6.44
151383	7	Sololá	713	San Lucas Tolimán	10	San Lucas Tolimán	10	Octubre	2023-04-10T00:00:00	2024-11-08T20:00:00	1	Precipitación	0
151384	7	Sololá	713	San Lucas Tolimán	10	San Lucas Tolimán	10	Octubre	2023-04-10T00:00:00	2024-11-08T20:00:00	8	Radiación solar	0
151385	7	Sololá	713	San Lucas Tolimán	10	San Lucas Tolimán	10	Octubre	2023-04-10T00:00:00	2024-11-08T21:00:00	2	Temperatura media	17.3
151386	7	Sololá	713	San Lucas Tolimán	10	San Lucas Tolimán	10	Octubre	2023-04-10T00:00:00	2024-11-08T21:00:00	4	Temperatura máxima	17.6
151387	7	Sololá	713	San Lucas Tolimán	10	San Lucas Tolimán	10	Octubre	2023-04-10T00:00:00	2024-11-08T21:00:00	3	Temperatura mínima	17.3
151388	7	Sololá	713	San Lucas Tolimán	10	San Lucas Tolimán	10	Octubre	2023-04-10T00:00:00	2024-11-08T21:00:00	5	Humedad	67
151389	7	Sololá	713	San Lucas Tolimán	10	San Lucas Tolimán	10	Octubre	2023-04-10T00:00:00	2024-11-08T21:00:00	6	Velocidad del viento	4.8
151390	7	Sololá	713	San Lucas Tolimán	10	San Lucas Tolimán	10	Octubre	2023-04-10T00:00:00	2024-11-08T21:00:00	7	Dirección del viento	4.83
151391	7	Sololá	713	San Lucas Tolimán	10	San Lucas Tolimán	10	Octubre	2023-04-10T00:00:00	2024-11-08T21:00:00	1	Precipitación	0
151392	7	Sololá	713	San Lucas Tolimán	10	San Lucas Tolimán	10	Octubre	2023-04-10T00:00:00	2024-11-08T21:00:00	8	Radiación solar	0
151393	7	Sololá	713	San Lucas Tolimán	10	San Lucas Tolimán	10	Octubre	2023-04-10T00:00:00	2024-11-08T22:00:00	2	Temperatura media	17.8
151394	7	Sololá	713	San Lucas Tolimán	10	San Lucas Tolimán	10	Octubre	2023-04-10T00:00:00	2024-11-08T22:00:00	4	Temperatura máxima	17.8
151395	7	Sololá	713	San Lucas Tolimán	10	San Lucas Tolimán	10	Octubre	2023-04-10T00:00:00	2024-11-08T22:00:00	3	Temperatura mínima	17.2
151396	7	Sololá	713	San Lucas Tolimán	10	San Lucas Tolimán	10	Octubre	2023-04-10T00:00:00	2024-11-08T22:00:00	5	Humedad	66
151397	7	Sololá	713	San Lucas Tolimán	10	San Lucas Tolimán	10	Octubre	2023-04-10T00:00:00	2024-11-08T22:00:00	6	Velocidad del viento	9.7
151398	7	Sololá	713	San Lucas Tolimán	10	San Lucas Tolimán	10	Octubre	2023-04-10T00:00:00	2024-11-08T22:00:00	7	Dirección del viento	9.66
151399	7	Sololá	713	San Lucas Tolimán	10	San Lucas Tolimán	10	Octubre	2023-04-10T00:00:00	2024-11-08T22:00:00	1	Precipitación	0
151400	7	Sololá	713	San Lucas Tolimán	10	San Lucas Tolimán	10	Octubre	2023-04-10T00:00:00	2024-11-08T22:00:00	8	Radiación solar	0
151401	7	Sololá	713	San Lucas Tolimán	10	San Lucas Tolimán	10	Octubre	2023-04-10T00:00:00	2024-11-08T23:00:00	2	Temperatura media	17.3
151402	7	Sololá	713	San Lucas Tolimán	10	San Lucas Tolimán	10	Octubre	2023-04-10T00:00:00	2024-11-08T23:00:00	4	Temperatura máxima	17.8
151403	7	Sololá	713	San Lucas Tolimán	10	San Lucas Tolimán	10	Octubre	2023-04-10T00:00:00	2024-11-08T23:00:00	3	Temperatura mínima	17.3
151404	7	Sololá	713	San Lucas Tolimán	10	San Lucas Tolimán	10	Octubre	2023-04-10T00:00:00	2024-11-08T23:00:00	5	Humedad	66
151405	7	Sololá	713	San Lucas Tolimán	10	San Lucas Tolimán	10	Octubre	2023-04-10T00:00:00	2024-11-08T23:00:00	6	Velocidad del viento	3.2
151406	7	Sololá	713	San Lucas Tolimán	10	San Lucas Tolimán	10	Octubre	2023-04-10T00:00:00	2024-11-08T23:00:00	7	Dirección del viento	3.22
151407	7	Sololá	713	San Lucas Tolimán	10	San Lucas Tolimán	10	Octubre	2023-04-10T00:00:00	2024-11-08T23:00:00	1	Precipitación	0
151408	7	Sololá	713	San Lucas Tolimán	10	San Lucas Tolimán	10	Octubre	2023-04-10T00:00:00	2024-11-08T23:00:00	8	Radiación solar	0
151409	7	Sololá	713	San Lucas Tolimán	10	San Lucas Tolimán	10	Octubre	2023-05-10T00:00:00	2024-11-08T00:00:00	2	Temperatura media	16.9
151410	7	Sololá	713	San Lucas Tolimán	10	San Lucas Tolimán	10	Octubre	2023-05-10T00:00:00	2024-11-08T00:00:00	4	Temperatura máxima	17.4
151411	7	Sololá	713	San Lucas Tolimán	10	San Lucas Tolimán	10	Octubre	2023-05-10T00:00:00	2024-11-08T00:00:00	3	Temperatura mínima	16.8
151412	7	Sololá	713	San Lucas Tolimán	10	San Lucas Tolimán	10	Octubre	2023-05-10T00:00:00	2024-11-08T00:00:00	5	Humedad	96
151413	7	Sololá	713	San Lucas Tolimán	10	San Lucas Tolimán	10	Octubre	2023-05-10T00:00:00	2024-11-08T00:00:00	6	Velocidad del viento	3.2
151414	7	Sololá	713	San Lucas Tolimán	10	San Lucas Tolimán	10	Octubre	2023-05-10T00:00:00	2024-11-08T00:00:00	7	Dirección del viento	3.22
151415	7	Sololá	713	San Lucas Tolimán	10	San Lucas Tolimán	10	Octubre	2023-05-10T00:00:00	2024-11-08T00:00:00	1	Precipitación	0
151416	7	Sololá	713	San Lucas Tolimán	10	San Lucas Tolimán	10	Octubre	2023-05-10T00:00:00	2024-11-08T00:00:00	8	Radiación solar	0
151417	7	Sololá	713	San Lucas Tolimán	10	San Lucas Tolimán	10	Octubre	2023-05-10T00:00:00	2024-11-08T01:00:00	2	Temperatura media	16.5
151418	7	Sololá	713	San Lucas Tolimán	10	San Lucas Tolimán	10	Octubre	2023-05-10T00:00:00	2024-11-08T01:00:00	4	Temperatura máxima	16.9
151419	7	Sololá	713	San Lucas Tolimán	10	San Lucas Tolimán	10	Octubre	2023-05-10T00:00:00	2024-11-08T01:00:00	3	Temperatura mínima	16.5
151420	7	Sololá	713	San Lucas Tolimán	10	San Lucas Tolimán	10	Octubre	2023-05-10T00:00:00	2024-11-08T01:00:00	5	Humedad	96
151421	7	Sololá	713	San Lucas Tolimán	10	San Lucas Tolimán	10	Octubre	2023-05-10T00:00:00	2024-11-08T01:00:00	6	Velocidad del viento	1.6
151422	7	Sololá	713	San Lucas Tolimán	10	San Lucas Tolimán	10	Octubre	2023-05-10T00:00:00	2024-11-08T01:00:00	7	Dirección del viento	1.61
151423	7	Sololá	713	San Lucas Tolimán	10	San Lucas Tolimán	10	Octubre	2023-05-10T00:00:00	2024-11-08T01:00:00	1	Precipitación	0
151424	7	Sololá	713	San Lucas Tolimán	10	San Lucas Tolimán	10	Octubre	2023-05-10T00:00:00	2024-11-08T01:00:00	8	Radiación solar	0
151425	7	Sololá	713	San Lucas Tolimán	10	San Lucas Tolimán	10	Octubre	2023-05-10T00:00:00	2024-11-08T02:00:00	2	Temperatura media	16.6
151426	7	Sololá	713	San Lucas Tolimán	10	San Lucas Tolimán	10	Octubre	2023-05-10T00:00:00	2024-11-08T02:00:00	4	Temperatura máxima	16.6
151427	7	Sololá	713	San Lucas Tolimán	10	San Lucas Tolimán	10	Octubre	2023-05-10T00:00:00	2024-11-08T02:00:00	3	Temperatura mínima	16.3
151428	7	Sololá	713	San Lucas Tolimán	10	San Lucas Tolimán	10	Octubre	2023-05-10T00:00:00	2024-11-08T02:00:00	5	Humedad	96
151429	7	Sololá	713	San Lucas Tolimán	10	San Lucas Tolimán	10	Octubre	2023-05-10T00:00:00	2024-11-08T02:00:00	6	Velocidad del viento	1.6
151430	7	Sololá	713	San Lucas Tolimán	10	San Lucas Tolimán	10	Octubre	2023-05-10T00:00:00	2024-11-08T02:00:00	7	Dirección del viento	1.61
151431	7	Sololá	713	San Lucas Tolimán	10	San Lucas Tolimán	10	Octubre	2023-05-10T00:00:00	2024-11-08T02:00:00	1	Precipitación	0
151432	7	Sololá	713	San Lucas Tolimán	10	San Lucas Tolimán	10	Octubre	2023-05-10T00:00:00	2024-11-08T02:00:00	8	Radiación solar	0
151433	7	Sololá	713	San Lucas Tolimán	10	San Lucas Tolimán	10	Octubre	2023-05-10T00:00:00	2024-11-08T03:00:00	2	Temperatura media	16.9
151434	7	Sololá	713	San Lucas Tolimán	10	San Lucas Tolimán	10	Octubre	2023-05-10T00:00:00	2024-11-08T03:00:00	4	Temperatura máxima	16.9
151435	7	Sololá	713	San Lucas Tolimán	10	San Lucas Tolimán	10	Octubre	2023-05-10T00:00:00	2024-11-08T03:00:00	3	Temperatura mínima	16.6
151436	7	Sololá	713	San Lucas Tolimán	10	San Lucas Tolimán	10	Octubre	2023-05-10T00:00:00	2024-11-08T03:00:00	5	Humedad	97
151437	7	Sololá	713	San Lucas Tolimán	10	San Lucas Tolimán	10	Octubre	2023-05-10T00:00:00	2024-11-08T03:00:00	6	Velocidad del viento	1.6
151438	7	Sololá	713	San Lucas Tolimán	10	San Lucas Tolimán	10	Octubre	2023-05-10T00:00:00	2024-11-08T03:00:00	7	Dirección del viento	1.61
151439	7	Sololá	713	San Lucas Tolimán	10	San Lucas Tolimán	10	Octubre	2023-05-10T00:00:00	2024-11-08T03:00:00	1	Precipitación	0.2
151440	7	Sololá	713	San Lucas Tolimán	10	San Lucas Tolimán	10	Octubre	2023-05-10T00:00:00	2024-11-08T03:00:00	8	Radiación solar	0
151441	7	Sololá	713	San Lucas Tolimán	10	San Lucas Tolimán	10	Octubre	2023-05-10T00:00:00	2024-11-08T04:00:00	2	Temperatura media	17.6
151442	7	Sololá	713	San Lucas Tolimán	10	San Lucas Tolimán	10	Octubre	2023-05-10T00:00:00	2024-11-08T04:00:00	4	Temperatura máxima	17.6
151443	7	Sololá	713	San Lucas Tolimán	10	San Lucas Tolimán	10	Octubre	2023-05-10T00:00:00	2024-11-08T04:00:00	3	Temperatura mínima	16.9
151444	7	Sololá	713	San Lucas Tolimán	10	San Lucas Tolimán	10	Octubre	2023-05-10T00:00:00	2024-11-08T04:00:00	5	Humedad	93
151445	7	Sololá	713	San Lucas Tolimán	10	San Lucas Tolimán	10	Octubre	2023-05-10T00:00:00	2024-11-08T04:00:00	6	Velocidad del viento	1.6
151446	7	Sololá	713	San Lucas Tolimán	10	San Lucas Tolimán	10	Octubre	2023-05-10T00:00:00	2024-11-08T04:00:00	7	Dirección del viento	1.61
151447	7	Sololá	713	San Lucas Tolimán	10	San Lucas Tolimán	10	Octubre	2023-05-10T00:00:00	2024-11-08T04:00:00	1	Precipitación	0
151448	7	Sololá	713	San Lucas Tolimán	10	San Lucas Tolimán	10	Octubre	2023-05-10T00:00:00	2024-11-08T04:00:00	8	Radiación solar	0
151449	7	Sololá	713	San Lucas Tolimán	10	San Lucas Tolimán	10	Octubre	2023-05-10T00:00:00	2024-11-08T05:00:00	2	Temperatura media	16.6
151450	7	Sololá	713	San Lucas Tolimán	10	San Lucas Tolimán	10	Octubre	2023-05-10T00:00:00	2024-11-08T05:00:00	4	Temperatura máxima	17.6
151451	7	Sololá	713	San Lucas Tolimán	10	San Lucas Tolimán	10	Octubre	2023-05-10T00:00:00	2024-11-08T05:00:00	3	Temperatura mínima	16.6
151452	7	Sololá	713	San Lucas Tolimán	10	San Lucas Tolimán	10	Octubre	2023-05-10T00:00:00	2024-11-08T05:00:00	5	Humedad	94
151453	7	Sololá	713	San Lucas Tolimán	10	San Lucas Tolimán	10	Octubre	2023-05-10T00:00:00	2024-11-08T05:00:00	6	Velocidad del viento	1.6
151454	7	Sololá	713	San Lucas Tolimán	10	San Lucas Tolimán	10	Octubre	2023-05-10T00:00:00	2024-11-08T05:00:00	7	Dirección del viento	1.61
151455	7	Sololá	713	San Lucas Tolimán	10	San Lucas Tolimán	10	Octubre	2023-05-10T00:00:00	2024-11-08T05:00:00	1	Precipitación	0
151456	7	Sololá	713	San Lucas Tolimán	10	San Lucas Tolimán	10	Octubre	2023-05-10T00:00:00	2024-11-08T05:00:00	8	Radiación solar	0
151457	7	Sololá	713	San Lucas Tolimán	10	San Lucas Tolimán	10	Octubre	2023-05-10T00:00:00	2024-11-08T06:00:00	2	Temperatura media	16.7
151458	7	Sololá	713	San Lucas Tolimán	10	San Lucas Tolimán	10	Octubre	2023-05-10T00:00:00	2024-11-08T06:00:00	4	Temperatura máxima	16.9
151459	7	Sololá	713	San Lucas Tolimán	10	San Lucas Tolimán	10	Octubre	2023-05-10T00:00:00	2024-11-08T06:00:00	3	Temperatura mínima	16.3
151460	7	Sololá	713	San Lucas Tolimán	10	San Lucas Tolimán	10	Octubre	2023-05-10T00:00:00	2024-11-08T06:00:00	5	Humedad	92
151461	7	Sololá	713	San Lucas Tolimán	10	San Lucas Tolimán	10	Octubre	2023-05-10T00:00:00	2024-11-08T06:00:00	6	Velocidad del viento	1.6
151462	7	Sololá	713	San Lucas Tolimán	10	San Lucas Tolimán	10	Octubre	2023-05-10T00:00:00	2024-11-08T06:00:00	7	Dirección del viento	1.61
151463	7	Sololá	713	San Lucas Tolimán	10	San Lucas Tolimán	10	Octubre	2023-05-10T00:00:00	2024-11-08T06:00:00	1	Precipitación	0
151464	7	Sololá	713	San Lucas Tolimán	10	San Lucas Tolimán	10	Octubre	2023-05-10T00:00:00	2024-11-08T06:00:00	8	Radiación solar	0
151465	7	Sololá	713	San Lucas Tolimán	10	San Lucas Tolimán	10	Octubre	2023-05-10T00:00:00	2024-11-08T07:00:00	2	Temperatura media	16.4
151466	7	Sololá	713	San Lucas Tolimán	10	San Lucas Tolimán	10	Octubre	2023-05-10T00:00:00	2024-11-08T07:00:00	4	Temperatura máxima	16.7
151467	7	Sololá	713	San Lucas Tolimán	10	San Lucas Tolimán	10	Octubre	2023-05-10T00:00:00	2024-11-08T07:00:00	3	Temperatura mínima	16.3
151468	7	Sololá	713	San Lucas Tolimán	10	San Lucas Tolimán	10	Octubre	2023-05-10T00:00:00	2024-11-08T07:00:00	5	Humedad	94
151469	7	Sololá	713	San Lucas Tolimán	10	San Lucas Tolimán	10	Octubre	2023-05-10T00:00:00	2024-11-08T07:00:00	6	Velocidad del viento	0
151470	7	Sololá	713	San Lucas Tolimán	10	San Lucas Tolimán	10	Octubre	2023-05-10T00:00:00	2024-11-08T07:00:00	7	Dirección del viento	0
151471	7	Sololá	713	San Lucas Tolimán	10	San Lucas Tolimán	10	Octubre	2023-05-10T00:00:00	2024-11-08T07:00:00	1	Precipitación	0
151472	7	Sololá	713	San Lucas Tolimán	10	San Lucas Tolimán	10	Octubre	2023-05-10T00:00:00	2024-11-08T07:00:00	8	Radiación solar	42
151473	7	Sololá	713	San Lucas Tolimán	10	San Lucas Tolimán	10	Octubre	2023-05-10T00:00:00	2024-11-08T08:00:00	2	Temperatura media	21.2
151474	7	Sololá	713	San Lucas Tolimán	10	San Lucas Tolimán	10	Octubre	2023-05-10T00:00:00	2024-11-08T08:00:00	4	Temperatura máxima	21.2
151475	7	Sololá	713	San Lucas Tolimán	10	San Lucas Tolimán	10	Octubre	2023-05-10T00:00:00	2024-11-08T08:00:00	3	Temperatura mínima	16.4
151476	7	Sololá	713	San Lucas Tolimán	10	San Lucas Tolimán	10	Octubre	2023-05-10T00:00:00	2024-11-08T08:00:00	5	Humedad	83
151477	7	Sololá	713	San Lucas Tolimán	10	San Lucas Tolimán	10	Octubre	2023-05-10T00:00:00	2024-11-08T08:00:00	6	Velocidad del viento	1.6
151478	7	Sololá	713	San Lucas Tolimán	10	San Lucas Tolimán	10	Octubre	2023-05-10T00:00:00	2024-11-08T08:00:00	7	Dirección del viento	1.61
151479	7	Sololá	713	San Lucas Tolimán	10	San Lucas Tolimán	10	Octubre	2023-05-10T00:00:00	2024-11-08T08:00:00	1	Precipitación	0
151480	7	Sololá	713	San Lucas Tolimán	10	San Lucas Tolimán	10	Octubre	2023-05-10T00:00:00	2024-11-08T08:00:00	8	Radiación solar	308
151481	7	Sololá	713	San Lucas Tolimán	10	San Lucas Tolimán	10	Octubre	2023-05-10T00:00:00	2024-11-08T09:00:00	2	Temperatura media	22.3
151482	7	Sololá	713	San Lucas Tolimán	10	San Lucas Tolimán	10	Octubre	2023-05-10T00:00:00	2024-11-08T09:00:00	4	Temperatura máxima	22.3
151483	7	Sololá	713	San Lucas Tolimán	10	San Lucas Tolimán	10	Octubre	2023-05-10T00:00:00	2024-11-08T09:00:00	3	Temperatura mínima	21.2
151484	7	Sololá	713	San Lucas Tolimán	10	San Lucas Tolimán	10	Octubre	2023-05-10T00:00:00	2024-11-08T09:00:00	5	Humedad	82
151485	7	Sololá	713	San Lucas Tolimán	10	San Lucas Tolimán	10	Octubre	2023-05-10T00:00:00	2024-11-08T09:00:00	6	Velocidad del viento	3.2
151486	7	Sololá	713	San Lucas Tolimán	10	San Lucas Tolimán	10	Octubre	2023-05-10T00:00:00	2024-11-08T09:00:00	7	Dirección del viento	3.22
151487	7	Sololá	713	San Lucas Tolimán	10	San Lucas Tolimán	10	Octubre	2023-05-10T00:00:00	2024-11-08T09:00:00	1	Precipitación	0
151488	7	Sololá	713	San Lucas Tolimán	10	San Lucas Tolimán	10	Octubre	2023-05-10T00:00:00	2024-11-08T09:00:00	8	Radiación solar	520
151489	7	Sololá	713	San Lucas Tolimán	10	San Lucas Tolimán	10	Octubre	2023-05-10T00:00:00	2024-11-08T10:00:00	2	Temperatura media	23
151490	7	Sololá	713	San Lucas Tolimán	10	San Lucas Tolimán	10	Octubre	2023-05-10T00:00:00	2024-11-08T10:00:00	4	Temperatura máxima	23
151491	7	Sololá	713	San Lucas Tolimán	10	San Lucas Tolimán	10	Octubre	2023-05-10T00:00:00	2024-11-08T10:00:00	3	Temperatura mínima	22.3
151492	7	Sololá	713	San Lucas Tolimán	10	San Lucas Tolimán	10	Octubre	2023-05-10T00:00:00	2024-11-08T10:00:00	5	Humedad	76
151493	7	Sololá	713	San Lucas Tolimán	10	San Lucas Tolimán	10	Octubre	2023-05-10T00:00:00	2024-11-08T10:00:00	6	Velocidad del viento	9.7
151494	7	Sololá	713	San Lucas Tolimán	10	San Lucas Tolimán	10	Octubre	2023-05-10T00:00:00	2024-11-08T10:00:00	7	Dirección del viento	9.66
151495	7	Sololá	713	San Lucas Tolimán	10	San Lucas Tolimán	10	Octubre	2023-05-10T00:00:00	2024-11-08T10:00:00	1	Precipitación	0
151496	7	Sololá	713	San Lucas Tolimán	10	San Lucas Tolimán	10	Octubre	2023-05-10T00:00:00	2024-11-08T10:00:00	8	Radiación solar	736
151497	7	Sololá	713	San Lucas Tolimán	10	San Lucas Tolimán	10	Octubre	2023-05-10T00:00:00	2024-11-08T11:00:00	2	Temperatura media	23.4
151498	7	Sololá	713	San Lucas Tolimán	10	San Lucas Tolimán	10	Octubre	2023-05-10T00:00:00	2024-11-08T11:00:00	4	Temperatura máxima	23.4
151499	7	Sololá	713	San Lucas Tolimán	10	San Lucas Tolimán	10	Octubre	2023-05-10T00:00:00	2024-11-08T11:00:00	3	Temperatura mínima	23
151500	7	Sololá	713	San Lucas Tolimán	10	San Lucas Tolimán	10	Octubre	2023-05-10T00:00:00	2024-11-08T11:00:00	5	Humedad	79
151501	7	Sololá	713	San Lucas Tolimán	10	San Lucas Tolimán	10	Octubre	2023-05-10T00:00:00	2024-11-08T11:00:00	6	Velocidad del viento	12.9
151502	7	Sololá	713	San Lucas Tolimán	10	San Lucas Tolimán	10	Octubre	2023-05-10T00:00:00	2024-11-08T11:00:00	7	Dirección del viento	12.87
151503	7	Sololá	713	San Lucas Tolimán	10	San Lucas Tolimán	10	Octubre	2023-05-10T00:00:00	2024-11-08T11:00:00	1	Precipitación	0
151504	7	Sololá	713	San Lucas Tolimán	10	San Lucas Tolimán	10	Octubre	2023-05-10T00:00:00	2024-11-08T11:00:00	8	Radiación solar	835
151505	7	Sololá	713	San Lucas Tolimán	10	San Lucas Tolimán	10	Octubre	2023-05-10T00:00:00	2024-11-08T12:00:00	2	Temperatura media	22.6
151506	7	Sololá	713	San Lucas Tolimán	10	San Lucas Tolimán	10	Octubre	2023-05-10T00:00:00	2024-11-08T12:00:00	4	Temperatura máxima	23.4
151507	7	Sololá	713	San Lucas Tolimán	10	San Lucas Tolimán	10	Octubre	2023-05-10T00:00:00	2024-11-08T12:00:00	3	Temperatura mínima	22.6
151508	7	Sololá	713	San Lucas Tolimán	10	San Lucas Tolimán	10	Octubre	2023-05-10T00:00:00	2024-11-08T12:00:00	5	Humedad	82
151509	7	Sololá	713	San Lucas Tolimán	10	San Lucas Tolimán	10	Octubre	2023-05-10T00:00:00	2024-11-08T12:00:00	6	Velocidad del viento	14.5
151510	7	Sololá	713	San Lucas Tolimán	10	San Lucas Tolimán	10	Octubre	2023-05-10T00:00:00	2024-11-08T12:00:00	7	Dirección del viento	14.48
151511	7	Sololá	713	San Lucas Tolimán	10	San Lucas Tolimán	10	Octubre	2023-05-10T00:00:00	2024-11-08T12:00:00	1	Precipitación	0
151512	7	Sololá	713	San Lucas Tolimán	10	San Lucas Tolimán	10	Octubre	2023-05-10T00:00:00	2024-11-08T12:00:00	8	Radiación solar	906
151513	7	Sololá	713	San Lucas Tolimán	10	San Lucas Tolimán	10	Octubre	2023-05-10T00:00:00	2024-11-08T13:00:00	2	Temperatura media	21.9
151514	7	Sololá	713	San Lucas Tolimán	10	San Lucas Tolimán	10	Octubre	2023-05-10T00:00:00	2024-11-08T13:00:00	4	Temperatura máxima	23.2
151515	7	Sololá	713	San Lucas Tolimán	10	San Lucas Tolimán	10	Octubre	2023-05-10T00:00:00	2024-11-08T13:00:00	3	Temperatura mínima	21.8
151516	7	Sololá	713	San Lucas Tolimán	10	San Lucas Tolimán	10	Octubre	2023-05-10T00:00:00	2024-11-08T13:00:00	5	Humedad	87
151517	7	Sololá	713	San Lucas Tolimán	10	San Lucas Tolimán	10	Octubre	2023-05-10T00:00:00	2024-11-08T13:00:00	6	Velocidad del viento	12.9
151518	7	Sololá	713	San Lucas Tolimán	10	San Lucas Tolimán	10	Octubre	2023-05-10T00:00:00	2024-11-08T13:00:00	7	Dirección del viento	12.87
151519	7	Sololá	713	San Lucas Tolimán	10	San Lucas Tolimán	10	Octubre	2023-05-10T00:00:00	2024-11-08T13:00:00	1	Precipitación	0
151520	7	Sololá	713	San Lucas Tolimán	10	San Lucas Tolimán	10	Octubre	2023-05-10T00:00:00	2024-11-08T13:00:00	8	Radiación solar	921
151521	7	Sololá	713	San Lucas Tolimán	10	San Lucas Tolimán	10	Octubre	2023-05-10T00:00:00	2024-11-08T14:00:00	2	Temperatura media	22.3
151522	7	Sololá	713	San Lucas Tolimán	10	San Lucas Tolimán	10	Octubre	2023-05-10T00:00:00	2024-11-08T14:00:00	4	Temperatura máxima	22.3
151523	7	Sololá	713	San Lucas Tolimán	10	San Lucas Tolimán	10	Octubre	2023-05-10T00:00:00	2024-11-08T14:00:00	3	Temperatura mínima	21.8
151524	7	Sololá	713	San Lucas Tolimán	10	San Lucas Tolimán	10	Octubre	2023-05-10T00:00:00	2024-11-08T14:00:00	5	Humedad	86
151525	7	Sololá	713	San Lucas Tolimán	10	San Lucas Tolimán	10	Octubre	2023-05-10T00:00:00	2024-11-08T14:00:00	6	Velocidad del viento	11.3
151526	7	Sololá	713	San Lucas Tolimán	10	San Lucas Tolimán	10	Octubre	2023-05-10T00:00:00	2024-11-08T14:00:00	7	Dirección del viento	11.27
151527	7	Sololá	713	San Lucas Tolimán	10	San Lucas Tolimán	10	Octubre	2023-05-10T00:00:00	2024-11-08T14:00:00	1	Precipitación	0
151528	7	Sololá	713	San Lucas Tolimán	10	San Lucas Tolimán	10	Octubre	2023-05-10T00:00:00	2024-11-08T14:00:00	8	Radiación solar	463
151529	7	Sololá	713	San Lucas Tolimán	10	San Lucas Tolimán	10	Octubre	2023-05-10T00:00:00	2024-11-08T15:00:00	2	Temperatura media	22.7
151530	7	Sololá	713	San Lucas Tolimán	10	San Lucas Tolimán	10	Octubre	2023-05-10T00:00:00	2024-11-08T15:00:00	4	Temperatura máxima	22.7
151531	7	Sololá	713	San Lucas Tolimán	10	San Lucas Tolimán	10	Octubre	2023-05-10T00:00:00	2024-11-08T15:00:00	3	Temperatura mínima	22
151532	7	Sololá	713	San Lucas Tolimán	10	San Lucas Tolimán	10	Octubre	2023-05-10T00:00:00	2024-11-08T15:00:00	5	Humedad	84
151533	7	Sololá	713	San Lucas Tolimán	10	San Lucas Tolimán	10	Octubre	2023-05-10T00:00:00	2024-11-08T15:00:00	6	Velocidad del viento	12.9
151534	7	Sololá	713	San Lucas Tolimán	10	San Lucas Tolimán	10	Octubre	2023-05-10T00:00:00	2024-11-08T15:00:00	7	Dirección del viento	12.87
151535	7	Sololá	713	San Lucas Tolimán	10	San Lucas Tolimán	10	Octubre	2023-05-10T00:00:00	2024-11-08T15:00:00	1	Precipitación	0
151536	7	Sololá	713	San Lucas Tolimán	10	San Lucas Tolimán	10	Octubre	2023-05-10T00:00:00	2024-11-08T15:00:00	8	Radiación solar	381
151537	7	Sololá	713	San Lucas Tolimán	10	San Lucas Tolimán	10	Octubre	2023-05-10T00:00:00	2024-11-08T16:00:00	2	Temperatura media	20.3
151538	7	Sololá	713	San Lucas Tolimán	10	San Lucas Tolimán	10	Octubre	2023-05-10T00:00:00	2024-11-08T16:00:00	4	Temperatura máxima	22.8
151539	7	Sololá	713	San Lucas Tolimán	10	San Lucas Tolimán	10	Octubre	2023-05-10T00:00:00	2024-11-08T16:00:00	3	Temperatura mínima	20.3
151540	7	Sololá	713	San Lucas Tolimán	10	San Lucas Tolimán	10	Octubre	2023-05-10T00:00:00	2024-11-08T16:00:00	5	Humedad	93
151541	7	Sololá	713	San Lucas Tolimán	10	San Lucas Tolimán	10	Octubre	2023-05-10T00:00:00	2024-11-08T16:00:00	6	Velocidad del viento	9.7
151542	7	Sololá	713	San Lucas Tolimán	10	San Lucas Tolimán	10	Octubre	2023-05-10T00:00:00	2024-11-08T16:00:00	7	Dirección del viento	9.66
151543	7	Sololá	713	San Lucas Tolimán	10	San Lucas Tolimán	10	Octubre	2023-05-10T00:00:00	2024-11-08T16:00:00	1	Precipitación	0.8
151544	7	Sololá	713	San Lucas Tolimán	10	San Lucas Tolimán	10	Octubre	2023-05-10T00:00:00	2024-11-08T16:00:00	8	Radiación solar	323
151545	7	Sololá	713	San Lucas Tolimán	10	San Lucas Tolimán	10	Octubre	2023-05-10T00:00:00	2024-11-08T17:00:00	2	Temperatura media	19.9
151546	7	Sololá	713	San Lucas Tolimán	10	San Lucas Tolimán	10	Octubre	2023-05-10T00:00:00	2024-11-08T17:00:00	4	Temperatura máxima	20.5
151547	7	Sololá	713	San Lucas Tolimán	10	San Lucas Tolimán	10	Octubre	2023-05-10T00:00:00	2024-11-08T17:00:00	3	Temperatura mínima	19.8
151548	7	Sololá	713	San Lucas Tolimán	10	San Lucas Tolimán	10	Octubre	2023-05-10T00:00:00	2024-11-08T17:00:00	5	Humedad	93
151549	7	Sololá	713	San Lucas Tolimán	10	San Lucas Tolimán	10	Octubre	2023-05-10T00:00:00	2024-11-08T17:00:00	6	Velocidad del viento	8
151550	7	Sololá	713	San Lucas Tolimán	10	San Lucas Tolimán	10	Octubre	2023-05-10T00:00:00	2024-11-08T17:00:00	7	Dirección del viento	8.05
151551	7	Sololá	713	San Lucas Tolimán	10	San Lucas Tolimán	10	Octubre	2023-05-10T00:00:00	2024-11-08T17:00:00	1	Precipitación	0.2
151552	7	Sololá	713	San Lucas Tolimán	10	San Lucas Tolimán	10	Octubre	2023-05-10T00:00:00	2024-11-08T17:00:00	8	Radiación solar	77
151553	7	Sololá	713	San Lucas Tolimán	10	San Lucas Tolimán	10	Octubre	2023-05-10T00:00:00	2024-11-08T18:00:00	2	Temperatura media	18.4
151554	7	Sololá	713	San Lucas Tolimán	10	San Lucas Tolimán	10	Octubre	2023-05-10T00:00:00	2024-11-08T18:00:00	4	Temperatura máxima	19.9
151555	7	Sololá	713	San Lucas Tolimán	10	San Lucas Tolimán	10	Octubre	2023-05-10T00:00:00	2024-11-08T18:00:00	3	Temperatura mínima	18.4
151556	7	Sololá	713	San Lucas Tolimán	10	San Lucas Tolimán	10	Octubre	2023-05-10T00:00:00	2024-11-08T18:00:00	5	Humedad	90
151557	7	Sololá	713	San Lucas Tolimán	10	San Lucas Tolimán	10	Octubre	2023-05-10T00:00:00	2024-11-08T18:00:00	6	Velocidad del viento	9.7
151558	7	Sololá	713	San Lucas Tolimán	10	San Lucas Tolimán	10	Octubre	2023-05-10T00:00:00	2024-11-08T18:00:00	7	Dirección del viento	9.66
151559	7	Sololá	713	San Lucas Tolimán	10	San Lucas Tolimán	10	Octubre	2023-05-10T00:00:00	2024-11-08T18:00:00	1	Precipitación	0.8
151560	7	Sololá	713	San Lucas Tolimán	10	San Lucas Tolimán	10	Octubre	2023-05-10T00:00:00	2024-11-08T18:00:00	8	Radiación solar	5
151561	7	Sololá	713	San Lucas Tolimán	10	San Lucas Tolimán	10	Octubre	2023-05-10T00:00:00	2024-11-08T19:00:00	2	Temperatura media	18.2
151562	7	Sololá	713	San Lucas Tolimán	10	San Lucas Tolimán	10	Octubre	2023-05-10T00:00:00	2024-11-08T19:00:00	4	Temperatura máxima	18.8
151563	7	Sololá	713	San Lucas Tolimán	10	San Lucas Tolimán	10	Octubre	2023-05-10T00:00:00	2024-11-08T19:00:00	3	Temperatura mínima	18.2
151564	7	Sololá	713	San Lucas Tolimán	10	San Lucas Tolimán	10	Octubre	2023-05-10T00:00:00	2024-11-08T19:00:00	5	Humedad	93
151565	7	Sololá	713	San Lucas Tolimán	10	San Lucas Tolimán	10	Octubre	2023-05-10T00:00:00	2024-11-08T19:00:00	6	Velocidad del viento	8
151566	7	Sololá	713	San Lucas Tolimán	10	San Lucas Tolimán	10	Octubre	2023-05-10T00:00:00	2024-11-08T19:00:00	7	Dirección del viento	8.05
151567	7	Sololá	713	San Lucas Tolimán	10	San Lucas Tolimán	10	Octubre	2023-05-10T00:00:00	2024-11-08T19:00:00	1	Precipitación	0
151568	7	Sololá	713	San Lucas Tolimán	10	San Lucas Tolimán	10	Octubre	2023-05-10T00:00:00	2024-11-08T19:00:00	8	Radiación solar	0
151569	7	Sololá	713	San Lucas Tolimán	10	San Lucas Tolimán	10	Octubre	2023-05-10T00:00:00	2024-11-08T20:00:00	2	Temperatura media	18.4
151570	7	Sololá	713	San Lucas Tolimán	10	San Lucas Tolimán	10	Octubre	2023-05-10T00:00:00	2024-11-08T20:00:00	4	Temperatura máxima	18.4
151571	7	Sololá	713	San Lucas Tolimán	10	San Lucas Tolimán	10	Octubre	2023-05-10T00:00:00	2024-11-08T20:00:00	3	Temperatura mínima	18.1
151572	7	Sololá	713	San Lucas Tolimán	10	San Lucas Tolimán	10	Octubre	2023-05-10T00:00:00	2024-11-08T20:00:00	5	Humedad	94
151573	7	Sololá	713	San Lucas Tolimán	10	San Lucas Tolimán	10	Octubre	2023-05-10T00:00:00	2024-11-08T20:00:00	6	Velocidad del viento	1.6
151574	7	Sololá	713	San Lucas Tolimán	10	San Lucas Tolimán	10	Octubre	2023-05-10T00:00:00	2024-11-08T20:00:00	7	Dirección del viento	1.61
151575	7	Sololá	713	San Lucas Tolimán	10	San Lucas Tolimán	10	Octubre	2023-05-10T00:00:00	2024-11-08T20:00:00	1	Precipitación	0
151576	7	Sololá	713	San Lucas Tolimán	10	San Lucas Tolimán	10	Octubre	2023-05-10T00:00:00	2024-11-08T20:00:00	8	Radiación solar	0
151577	7	Sololá	713	San Lucas Tolimán	10	San Lucas Tolimán	10	Octubre	2023-05-10T00:00:00	2024-11-08T21:00:00	2	Temperatura media	18
151578	7	Sololá	713	San Lucas Tolimán	10	San Lucas Tolimán	10	Octubre	2023-05-10T00:00:00	2024-11-08T21:00:00	4	Temperatura máxima	18.5
151579	7	Sololá	713	San Lucas Tolimán	10	San Lucas Tolimán	10	Octubre	2023-05-10T00:00:00	2024-11-08T21:00:00	3	Temperatura mínima	18
151580	7	Sololá	713	San Lucas Tolimán	10	San Lucas Tolimán	10	Octubre	2023-05-10T00:00:00	2024-11-08T21:00:00	5	Humedad	94
151581	7	Sololá	713	San Lucas Tolimán	10	San Lucas Tolimán	10	Octubre	2023-05-10T00:00:00	2024-11-08T21:00:00	6	Velocidad del viento	1.6
151582	7	Sololá	713	San Lucas Tolimán	10	San Lucas Tolimán	10	Octubre	2023-05-10T00:00:00	2024-11-08T21:00:00	7	Dirección del viento	1.61
151583	7	Sololá	713	San Lucas Tolimán	10	San Lucas Tolimán	10	Octubre	2023-05-10T00:00:00	2024-11-08T21:00:00	1	Precipitación	0
151584	7	Sololá	713	San Lucas Tolimán	10	San Lucas Tolimán	10	Octubre	2023-05-10T00:00:00	2024-11-08T21:00:00	8	Radiación solar	0
151585	7	Sololá	713	San Lucas Tolimán	10	San Lucas Tolimán	10	Octubre	2023-05-10T00:00:00	2024-11-08T22:00:00	2	Temperatura media	17.3
151586	7	Sololá	713	San Lucas Tolimán	10	San Lucas Tolimán	10	Octubre	2023-05-10T00:00:00	2024-11-08T22:00:00	4	Temperatura máxima	18.1
151587	7	Sololá	713	San Lucas Tolimán	10	San Lucas Tolimán	10	Octubre	2023-05-10T00:00:00	2024-11-08T22:00:00	3	Temperatura mínima	17.3
151588	7	Sololá	713	San Lucas Tolimán	10	San Lucas Tolimán	10	Octubre	2023-05-10T00:00:00	2024-11-08T22:00:00	5	Humedad	95
151589	7	Sololá	713	San Lucas Tolimán	10	San Lucas Tolimán	10	Octubre	2023-05-10T00:00:00	2024-11-08T22:00:00	6	Velocidad del viento	1.6
151590	7	Sololá	713	San Lucas Tolimán	10	San Lucas Tolimán	10	Octubre	2023-05-10T00:00:00	2024-11-08T22:00:00	7	Dirección del viento	1.61
151591	7	Sololá	713	San Lucas Tolimán	10	San Lucas Tolimán	10	Octubre	2023-05-10T00:00:00	2024-11-08T22:00:00	1	Precipitación	0
151592	7	Sololá	713	San Lucas Tolimán	10	San Lucas Tolimán	10	Octubre	2023-05-10T00:00:00	2024-11-08T22:00:00	8	Radiación solar	0
151593	7	Sololá	713	San Lucas Tolimán	10	San Lucas Tolimán	10	Octubre	2023-05-10T00:00:00	2024-11-08T23:00:00	2	Temperatura media	17.7
151594	7	Sololá	713	San Lucas Tolimán	10	San Lucas Tolimán	10	Octubre	2023-05-10T00:00:00	2024-11-08T23:00:00	4	Temperatura máxima	17.7
151595	7	Sololá	713	San Lucas Tolimán	10	San Lucas Tolimán	10	Octubre	2023-05-10T00:00:00	2024-11-08T23:00:00	3	Temperatura mínima	17.3
151596	7	Sololá	713	San Lucas Tolimán	10	San Lucas Tolimán	10	Octubre	2023-05-10T00:00:00	2024-11-08T23:00:00	5	Humedad	96
151597	7	Sololá	713	San Lucas Tolimán	10	San Lucas Tolimán	10	Octubre	2023-05-10T00:00:00	2024-11-08T23:00:00	6	Velocidad del viento	1.6
151598	7	Sololá	713	San Lucas Tolimán	10	San Lucas Tolimán	10	Octubre	2023-05-10T00:00:00	2024-11-08T23:00:00	7	Dirección del viento	1.61
151599	7	Sololá	713	San Lucas Tolimán	10	San Lucas Tolimán	10	Octubre	2023-05-10T00:00:00	2024-11-08T23:00:00	1	Precipitación	0
151600	7	Sololá	713	San Lucas Tolimán	10	San Lucas Tolimán	10	Octubre	2023-05-10T00:00:00	2024-11-08T23:00:00	8	Radiación solar	0
151601	7	Sololá	713	San Lucas Tolimán	10	San Lucas Tolimán	10	Octubre	2023-06-10T00:00:00	2024-11-08T00:00:00	2	Temperatura media	17.3
151602	7	Sololá	713	San Lucas Tolimán	10	San Lucas Tolimán	10	Octubre	2023-06-10T00:00:00	2024-11-08T00:00:00	4	Temperatura máxima	17.7
151603	7	Sololá	713	San Lucas Tolimán	10	San Lucas Tolimán	10	Octubre	2023-06-10T00:00:00	2024-11-08T00:00:00	3	Temperatura mínima	17.2
151604	7	Sololá	713	San Lucas Tolimán	10	San Lucas Tolimán	10	Octubre	2023-06-10T00:00:00	2024-11-08T00:00:00	5	Humedad	95
151605	7	Sololá	713	San Lucas Tolimán	10	San Lucas Tolimán	10	Octubre	2023-06-10T00:00:00	2024-11-08T00:00:00	6	Velocidad del viento	3.2
151606	7	Sololá	713	San Lucas Tolimán	10	San Lucas Tolimán	10	Octubre	2023-06-10T00:00:00	2024-11-08T00:00:00	7	Dirección del viento	3.22
151607	7	Sololá	713	San Lucas Tolimán	10	San Lucas Tolimán	10	Octubre	2023-06-10T00:00:00	2024-11-08T00:00:00	1	Precipitación	0
151608	7	Sololá	713	San Lucas Tolimán	10	San Lucas Tolimán	10	Octubre	2023-06-10T00:00:00	2024-11-08T00:00:00	8	Radiación solar	0
151609	7	Sololá	713	San Lucas Tolimán	10	San Lucas Tolimán	10	Octubre	2023-06-10T00:00:00	2024-11-08T01:00:00	2	Temperatura media	17.9
151610	7	Sololá	713	San Lucas Tolimán	10	San Lucas Tolimán	10	Octubre	2023-06-10T00:00:00	2024-11-08T01:00:00	4	Temperatura máxima	17.9
151611	7	Sololá	713	San Lucas Tolimán	10	San Lucas Tolimán	10	Octubre	2023-06-10T00:00:00	2024-11-08T01:00:00	3	Temperatura mínima	17.3
151612	7	Sololá	713	San Lucas Tolimán	10	San Lucas Tolimán	10	Octubre	2023-06-10T00:00:00	2024-11-08T01:00:00	5	Humedad	97
151613	7	Sololá	713	San Lucas Tolimán	10	San Lucas Tolimán	10	Octubre	2023-06-10T00:00:00	2024-11-08T01:00:00	6	Velocidad del viento	11.3
151614	7	Sololá	713	San Lucas Tolimán	10	San Lucas Tolimán	10	Octubre	2023-06-10T00:00:00	2024-11-08T01:00:00	7	Dirección del viento	11.27
151615	7	Sololá	713	San Lucas Tolimán	10	San Lucas Tolimán	10	Octubre	2023-06-10T00:00:00	2024-11-08T01:00:00	1	Precipitación	0
151616	7	Sololá	713	San Lucas Tolimán	10	San Lucas Tolimán	10	Octubre	2023-06-10T00:00:00	2024-11-08T01:00:00	8	Radiación solar	0
151617	7	Sololá	713	San Lucas Tolimán	10	San Lucas Tolimán	10	Octubre	2023-06-10T00:00:00	2024-11-08T02:00:00	2	Temperatura media	17.7
151618	7	Sololá	713	San Lucas Tolimán	10	San Lucas Tolimán	10	Octubre	2023-06-10T00:00:00	2024-11-08T02:00:00	4	Temperatura máxima	17.9
151619	7	Sololá	713	San Lucas Tolimán	10	San Lucas Tolimán	10	Octubre	2023-06-10T00:00:00	2024-11-08T02:00:00	3	Temperatura mínima	17.6
151620	7	Sololá	713	San Lucas Tolimán	10	San Lucas Tolimán	10	Octubre	2023-06-10T00:00:00	2024-11-08T02:00:00	5	Humedad	97
151621	7	Sololá	713	San Lucas Tolimán	10	San Lucas Tolimán	10	Octubre	2023-06-10T00:00:00	2024-11-08T02:00:00	6	Velocidad del viento	4.8
151622	7	Sololá	713	San Lucas Tolimán	10	San Lucas Tolimán	10	Octubre	2023-06-10T00:00:00	2024-11-08T02:00:00	7	Dirección del viento	4.83
151623	7	Sololá	713	San Lucas Tolimán	10	San Lucas Tolimán	10	Octubre	2023-06-10T00:00:00	2024-11-08T02:00:00	1	Precipitación	0
151624	7	Sololá	713	San Lucas Tolimán	10	San Lucas Tolimán	10	Octubre	2023-06-10T00:00:00	2024-11-08T02:00:00	8	Radiación solar	0
151625	7	Sololá	713	San Lucas Tolimán	10	San Lucas Tolimán	10	Octubre	2023-06-10T00:00:00	2024-11-08T03:00:00	2	Temperatura media	17.3
151626	7	Sololá	713	San Lucas Tolimán	10	San Lucas Tolimán	10	Octubre	2023-06-10T00:00:00	2024-11-08T03:00:00	4	Temperatura máxima	17.8
151627	7	Sololá	713	San Lucas Tolimán	10	San Lucas Tolimán	10	Octubre	2023-06-10T00:00:00	2024-11-08T03:00:00	3	Temperatura mínima	17.3
151628	7	Sololá	713	San Lucas Tolimán	10	San Lucas Tolimán	10	Octubre	2023-06-10T00:00:00	2024-11-08T03:00:00	5	Humedad	96
151629	7	Sololá	713	San Lucas Tolimán	10	San Lucas Tolimán	10	Octubre	2023-06-10T00:00:00	2024-11-08T03:00:00	6	Velocidad del viento	3.2
151630	7	Sololá	713	San Lucas Tolimán	10	San Lucas Tolimán	10	Octubre	2023-06-10T00:00:00	2024-11-08T03:00:00	7	Dirección del viento	3.22
151631	7	Sololá	713	San Lucas Tolimán	10	San Lucas Tolimán	10	Octubre	2023-06-10T00:00:00	2024-11-08T03:00:00	1	Precipitación	0
151632	7	Sololá	713	San Lucas Tolimán	10	San Lucas Tolimán	10	Octubre	2023-06-10T00:00:00	2024-11-08T03:00:00	8	Radiación solar	0
151633	7	Sololá	713	San Lucas Tolimán	10	San Lucas Tolimán	10	Octubre	2023-06-10T00:00:00	2024-11-08T04:00:00	2	Temperatura media	16.6
151634	7	Sololá	713	San Lucas Tolimán	10	San Lucas Tolimán	10	Octubre	2023-06-10T00:00:00	2024-11-08T04:00:00	4	Temperatura máxima	17.3
151635	7	Sololá	713	San Lucas Tolimán	10	San Lucas Tolimán	10	Octubre	2023-06-10T00:00:00	2024-11-08T04:00:00	3	Temperatura mínima	16.6
151636	7	Sololá	713	San Lucas Tolimán	10	San Lucas Tolimán	10	Octubre	2023-06-10T00:00:00	2024-11-08T04:00:00	5	Humedad	96
151637	7	Sololá	713	San Lucas Tolimán	10	San Lucas Tolimán	10	Octubre	2023-06-10T00:00:00	2024-11-08T04:00:00	6	Velocidad del viento	0
151638	7	Sololá	713	San Lucas Tolimán	10	San Lucas Tolimán	10	Octubre	2023-06-10T00:00:00	2024-11-08T04:00:00	7	Dirección del viento	0
151639	7	Sololá	713	San Lucas Tolimán	10	San Lucas Tolimán	10	Octubre	2023-06-10T00:00:00	2024-11-08T04:00:00	1	Precipitación	0
151640	7	Sololá	713	San Lucas Tolimán	10	San Lucas Tolimán	10	Octubre	2023-06-10T00:00:00	2024-11-08T04:00:00	8	Radiación solar	0
151641	7	Sololá	713	San Lucas Tolimán	10	San Lucas Tolimán	10	Octubre	2023-06-10T00:00:00	2024-11-08T05:00:00	2	Temperatura media	16.2
151642	7	Sololá	713	San Lucas Tolimán	10	San Lucas Tolimán	10	Octubre	2023-06-10T00:00:00	2024-11-08T05:00:00	4	Temperatura máxima	16.6
151643	7	Sololá	713	San Lucas Tolimán	10	San Lucas Tolimán	10	Octubre	2023-06-10T00:00:00	2024-11-08T05:00:00	3	Temperatura mínima	16.2
151644	7	Sololá	713	San Lucas Tolimán	10	San Lucas Tolimán	10	Octubre	2023-06-10T00:00:00	2024-11-08T05:00:00	5	Humedad	96
151645	7	Sololá	713	San Lucas Tolimán	10	San Lucas Tolimán	10	Octubre	2023-06-10T00:00:00	2024-11-08T05:00:00	6	Velocidad del viento	0
151646	7	Sololá	713	San Lucas Tolimán	10	San Lucas Tolimán	10	Octubre	2023-06-10T00:00:00	2024-11-08T05:00:00	7	Dirección del viento	0
151647	7	Sololá	713	San Lucas Tolimán	10	San Lucas Tolimán	10	Octubre	2023-06-10T00:00:00	2024-11-08T05:00:00	1	Precipitación	0.2
151648	7	Sololá	713	San Lucas Tolimán	10	San Lucas Tolimán	10	Octubre	2023-06-10T00:00:00	2024-11-08T05:00:00	8	Radiación solar	0
151649	7	Sololá	713	San Lucas Tolimán	10	San Lucas Tolimán	10	Octubre	2023-06-10T00:00:00	2024-11-08T06:00:00	2	Temperatura media	16
151650	7	Sololá	713	San Lucas Tolimán	10	San Lucas Tolimán	10	Octubre	2023-06-10T00:00:00	2024-11-08T06:00:00	4	Temperatura máxima	16.3
151651	7	Sololá	713	San Lucas Tolimán	10	San Lucas Tolimán	10	Octubre	2023-06-10T00:00:00	2024-11-08T06:00:00	3	Temperatura mínima	15.9
151652	7	Sololá	713	San Lucas Tolimán	10	San Lucas Tolimán	10	Octubre	2023-06-10T00:00:00	2024-11-08T06:00:00	5	Humedad	97
151653	7	Sololá	713	San Lucas Tolimán	10	San Lucas Tolimán	10	Octubre	2023-06-10T00:00:00	2024-11-08T06:00:00	6	Velocidad del viento	0
151654	7	Sololá	713	San Lucas Tolimán	10	San Lucas Tolimán	10	Octubre	2023-06-10T00:00:00	2024-11-08T06:00:00	7	Dirección del viento	0
151655	7	Sololá	713	San Lucas Tolimán	10	San Lucas Tolimán	10	Octubre	2023-06-10T00:00:00	2024-11-08T06:00:00	1	Precipitación	0
151656	7	Sololá	713	San Lucas Tolimán	10	San Lucas Tolimán	10	Octubre	2023-06-10T00:00:00	2024-11-08T06:00:00	8	Radiación solar	0
151657	7	Sololá	713	San Lucas Tolimán	10	San Lucas Tolimán	10	Octubre	2023-06-10T00:00:00	2024-11-08T07:00:00	2	Temperatura media	16.4
151658	7	Sololá	713	San Lucas Tolimán	10	San Lucas Tolimán	10	Octubre	2023-06-10T00:00:00	2024-11-08T07:00:00	4	Temperatura máxima	16.4
151659	7	Sololá	713	San Lucas Tolimán	10	San Lucas Tolimán	10	Octubre	2023-06-10T00:00:00	2024-11-08T07:00:00	3	Temperatura mínima	15.9
151660	7	Sololá	713	San Lucas Tolimán	10	San Lucas Tolimán	10	Octubre	2023-06-10T00:00:00	2024-11-08T07:00:00	5	Humedad	97
151661	7	Sololá	713	San Lucas Tolimán	10	San Lucas Tolimán	10	Octubre	2023-06-10T00:00:00	2024-11-08T07:00:00	6	Velocidad del viento	0
151662	7	Sololá	713	San Lucas Tolimán	10	San Lucas Tolimán	10	Octubre	2023-06-10T00:00:00	2024-11-08T07:00:00	7	Dirección del viento	0
151663	7	Sololá	713	San Lucas Tolimán	10	San Lucas Tolimán	10	Octubre	2023-06-10T00:00:00	2024-11-08T07:00:00	1	Precipitación	0
151664	7	Sololá	713	San Lucas Tolimán	10	San Lucas Tolimán	10	Octubre	2023-06-10T00:00:00	2024-11-08T07:00:00	8	Radiación solar	35
151665	7	Sololá	713	San Lucas Tolimán	10	San Lucas Tolimán	10	Octubre	2023-06-10T00:00:00	2024-11-08T08:00:00	2	Temperatura media	20.9
151666	7	Sololá	713	San Lucas Tolimán	10	San Lucas Tolimán	10	Octubre	2023-06-10T00:00:00	2024-11-08T08:00:00	4	Temperatura máxima	20.9
151667	7	Sololá	713	San Lucas Tolimán	10	San Lucas Tolimán	10	Octubre	2023-06-10T00:00:00	2024-11-08T08:00:00	3	Temperatura mínima	16.4
151668	7	Sololá	713	San Lucas Tolimán	10	San Lucas Tolimán	10	Octubre	2023-06-10T00:00:00	2024-11-08T08:00:00	5	Humedad	86
151669	7	Sololá	713	San Lucas Tolimán	10	San Lucas Tolimán	10	Octubre	2023-06-10T00:00:00	2024-11-08T08:00:00	6	Velocidad del viento	1.6
151670	7	Sololá	713	San Lucas Tolimán	10	San Lucas Tolimán	10	Octubre	2023-06-10T00:00:00	2024-11-08T08:00:00	7	Dirección del viento	1.61
151671	7	Sololá	713	San Lucas Tolimán	10	San Lucas Tolimán	10	Octubre	2023-06-10T00:00:00	2024-11-08T08:00:00	1	Precipitación	0
151672	7	Sololá	713	San Lucas Tolimán	10	San Lucas Tolimán	10	Octubre	2023-06-10T00:00:00	2024-11-08T08:00:00	8	Radiación solar	255
151673	7	Sololá	713	San Lucas Tolimán	10	San Lucas Tolimán	10	Octubre	2023-06-10T00:00:00	2024-11-08T09:00:00	2	Temperatura media	21.2
151674	7	Sololá	713	San Lucas Tolimán	10	San Lucas Tolimán	10	Octubre	2023-06-10T00:00:00	2024-11-08T09:00:00	4	Temperatura máxima	22.9
151675	7	Sololá	713	San Lucas Tolimán	10	San Lucas Tolimán	10	Octubre	2023-06-10T00:00:00	2024-11-08T09:00:00	3	Temperatura mínima	21
151676	7	Sololá	713	San Lucas Tolimán	10	San Lucas Tolimán	10	Octubre	2023-06-10T00:00:00	2024-11-08T09:00:00	5	Humedad	87
151677	7	Sololá	713	San Lucas Tolimán	10	San Lucas Tolimán	10	Octubre	2023-06-10T00:00:00	2024-11-08T09:00:00	6	Velocidad del viento	6.4
151678	7	Sololá	713	San Lucas Tolimán	10	San Lucas Tolimán	10	Octubre	2023-06-10T00:00:00	2024-11-08T09:00:00	7	Dirección del viento	6.44
151679	7	Sololá	713	San Lucas Tolimán	10	San Lucas Tolimán	10	Octubre	2023-06-10T00:00:00	2024-11-08T09:00:00	1	Precipitación	0
151680	7	Sololá	713	San Lucas Tolimán	10	San Lucas Tolimán	10	Octubre	2023-06-10T00:00:00	2024-11-08T09:00:00	8	Radiación solar	515
151681	7	Sololá	713	San Lucas Tolimán	10	San Lucas Tolimán	10	Octubre	2023-06-10T00:00:00	2024-11-08T10:00:00	2	Temperatura media	21.8
151682	7	Sololá	713	San Lucas Tolimán	10	San Lucas Tolimán	10	Octubre	2023-06-10T00:00:00	2024-11-08T10:00:00	4	Temperatura máxima	21.8
151683	7	Sololá	713	San Lucas Tolimán	10	San Lucas Tolimán	10	Octubre	2023-06-10T00:00:00	2024-11-08T10:00:00	3	Temperatura mínima	20.8
151684	7	Sololá	713	San Lucas Tolimán	10	San Lucas Tolimán	10	Octubre	2023-06-10T00:00:00	2024-11-08T10:00:00	5	Humedad	83
151685	7	Sololá	713	San Lucas Tolimán	10	San Lucas Tolimán	10	Octubre	2023-06-10T00:00:00	2024-11-08T10:00:00	6	Velocidad del viento	11.3
151686	7	Sololá	713	San Lucas Tolimán	10	San Lucas Tolimán	10	Octubre	2023-06-10T00:00:00	2024-11-08T10:00:00	7	Dirección del viento	11.27
151687	7	Sololá	713	San Lucas Tolimán	10	San Lucas Tolimán	10	Octubre	2023-06-10T00:00:00	2024-11-08T10:00:00	1	Precipitación	0
151688	7	Sololá	713	San Lucas Tolimán	10	San Lucas Tolimán	10	Octubre	2023-06-10T00:00:00	2024-11-08T10:00:00	8	Radiación solar	675
151689	7	Sololá	713	San Lucas Tolimán	10	San Lucas Tolimán	10	Octubre	2023-06-10T00:00:00	2024-11-08T11:00:00	2	Temperatura media	22.8
151690	7	Sololá	713	San Lucas Tolimán	10	San Lucas Tolimán	10	Octubre	2023-06-10T00:00:00	2024-11-08T11:00:00	4	Temperatura máxima	22.9
151691	7	Sololá	713	San Lucas Tolimán	10	San Lucas Tolimán	10	Octubre	2023-06-10T00:00:00	2024-11-08T11:00:00	3	Temperatura mínima	21.7
151692	7	Sololá	713	San Lucas Tolimán	10	San Lucas Tolimán	10	Octubre	2023-06-10T00:00:00	2024-11-08T11:00:00	5	Humedad	81
151693	7	Sololá	713	San Lucas Tolimán	10	San Lucas Tolimán	10	Octubre	2023-06-10T00:00:00	2024-11-08T11:00:00	6	Velocidad del viento	12.9
151694	7	Sololá	713	San Lucas Tolimán	10	San Lucas Tolimán	10	Octubre	2023-06-10T00:00:00	2024-11-08T11:00:00	7	Dirección del viento	12.87
151695	7	Sololá	713	San Lucas Tolimán	10	San Lucas Tolimán	10	Octubre	2023-06-10T00:00:00	2024-11-08T11:00:00	1	Precipitación	0
151696	7	Sololá	713	San Lucas Tolimán	10	San Lucas Tolimán	10	Octubre	2023-06-10T00:00:00	2024-11-08T11:00:00	8	Radiación solar	849
151697	7	Sololá	713	San Lucas Tolimán	10	San Lucas Tolimán	10	Octubre	2023-06-10T00:00:00	2024-11-08T12:00:00	2	Temperatura media	23.7
151698	7	Sololá	713	San Lucas Tolimán	10	San Lucas Tolimán	10	Octubre	2023-06-10T00:00:00	2024-11-08T12:00:00	4	Temperatura máxima	23.7
151699	7	Sololá	713	San Lucas Tolimán	10	San Lucas Tolimán	10	Octubre	2023-06-10T00:00:00	2024-11-08T12:00:00	3	Temperatura mínima	22.8
151700	7	Sololá	713	San Lucas Tolimán	10	San Lucas Tolimán	10	Octubre	2023-06-10T00:00:00	2024-11-08T12:00:00	5	Humedad	82
151701	7	Sololá	713	San Lucas Tolimán	10	San Lucas Tolimán	10	Octubre	2023-06-10T00:00:00	2024-11-08T12:00:00	6	Velocidad del viento	11.3
151702	7	Sololá	713	San Lucas Tolimán	10	San Lucas Tolimán	10	Octubre	2023-06-10T00:00:00	2024-11-08T12:00:00	7	Dirección del viento	11.27
151703	7	Sololá	713	San Lucas Tolimán	10	San Lucas Tolimán	10	Octubre	2023-06-10T00:00:00	2024-11-08T12:00:00	1	Precipitación	0
151704	7	Sololá	713	San Lucas Tolimán	10	San Lucas Tolimán	10	Octubre	2023-06-10T00:00:00	2024-11-08T12:00:00	8	Radiación solar	958
151705	7	Sololá	713	San Lucas Tolimán	10	San Lucas Tolimán	10	Octubre	2023-06-10T00:00:00	2024-11-08T13:00:00	2	Temperatura media	22.9
151706	7	Sololá	713	San Lucas Tolimán	10	San Lucas Tolimán	10	Octubre	2023-06-10T00:00:00	2024-11-08T13:00:00	4	Temperatura máxima	23.9
151707	7	Sololá	713	San Lucas Tolimán	10	San Lucas Tolimán	10	Octubre	2023-06-10T00:00:00	2024-11-08T13:00:00	3	Temperatura mínima	22.7
151708	7	Sololá	713	San Lucas Tolimán	10	San Lucas Tolimán	10	Octubre	2023-06-10T00:00:00	2024-11-08T13:00:00	5	Humedad	85
151709	7	Sololá	713	San Lucas Tolimán	10	San Lucas Tolimán	10	Octubre	2023-06-10T00:00:00	2024-11-08T13:00:00	6	Velocidad del viento	11.3
151710	7	Sololá	713	San Lucas Tolimán	10	San Lucas Tolimán	10	Octubre	2023-06-10T00:00:00	2024-11-08T13:00:00	7	Dirección del viento	11.27
151711	7	Sololá	713	San Lucas Tolimán	10	San Lucas Tolimán	10	Octubre	2023-06-10T00:00:00	2024-11-08T13:00:00	1	Precipitación	0
151712	7	Sololá	713	San Lucas Tolimán	10	San Lucas Tolimán	10	Octubre	2023-06-10T00:00:00	2024-11-08T13:00:00	8	Radiación solar	855
151713	7	Sololá	713	San Lucas Tolimán	10	San Lucas Tolimán	10	Octubre	2023-06-10T00:00:00	2024-11-08T14:00:00	2	Temperatura media	23
151714	7	Sololá	713	San Lucas Tolimán	10	San Lucas Tolimán	10	Octubre	2023-06-10T00:00:00	2024-11-08T14:00:00	4	Temperatura máxima	23.1
151715	7	Sololá	713	San Lucas Tolimán	10	San Lucas Tolimán	10	Octubre	2023-06-10T00:00:00	2024-11-08T14:00:00	3	Temperatura mínima	22.3
151716	7	Sololá	713	San Lucas Tolimán	10	San Lucas Tolimán	10	Octubre	2023-06-10T00:00:00	2024-11-08T14:00:00	5	Humedad	85
151717	7	Sololá	713	San Lucas Tolimán	10	San Lucas Tolimán	10	Octubre	2023-06-10T00:00:00	2024-11-08T14:00:00	6	Velocidad del viento	11.3
151718	7	Sololá	713	San Lucas Tolimán	10	San Lucas Tolimán	10	Octubre	2023-06-10T00:00:00	2024-11-08T14:00:00	7	Dirección del viento	11.27
151719	7	Sololá	713	San Lucas Tolimán	10	San Lucas Tolimán	10	Octubre	2023-06-10T00:00:00	2024-11-08T14:00:00	1	Precipitación	0
151720	7	Sololá	713	San Lucas Tolimán	10	San Lucas Tolimán	10	Octubre	2023-06-10T00:00:00	2024-11-08T14:00:00	8	Radiación solar	624
151721	7	Sololá	713	San Lucas Tolimán	10	San Lucas Tolimán	10	Octubre	2023-06-10T00:00:00	2024-11-08T15:00:00	2	Temperatura media	22.8
151722	7	Sololá	713	San Lucas Tolimán	10	San Lucas Tolimán	10	Octubre	2023-06-10T00:00:00	2024-11-08T15:00:00	4	Temperatura máxima	23.7
151723	7	Sololá	713	San Lucas Tolimán	10	San Lucas Tolimán	10	Octubre	2023-06-10T00:00:00	2024-11-08T15:00:00	3	Temperatura mínima	22.4
151724	7	Sololá	713	San Lucas Tolimán	10	San Lucas Tolimán	10	Octubre	2023-06-10T00:00:00	2024-11-08T15:00:00	5	Humedad	86
151725	7	Sololá	713	San Lucas Tolimán	10	San Lucas Tolimán	10	Octubre	2023-06-10T00:00:00	2024-11-08T15:00:00	6	Velocidad del viento	11.3
151726	7	Sololá	713	San Lucas Tolimán	10	San Lucas Tolimán	10	Octubre	2023-06-10T00:00:00	2024-11-08T15:00:00	7	Dirección del viento	11.27
151727	7	Sololá	713	San Lucas Tolimán	10	San Lucas Tolimán	10	Octubre	2023-06-10T00:00:00	2024-11-08T15:00:00	1	Precipitación	0
151728	7	Sololá	713	San Lucas Tolimán	10	San Lucas Tolimán	10	Octubre	2023-06-10T00:00:00	2024-11-08T15:00:00	8	Radiación solar	304
151729	7	Sololá	713	San Lucas Tolimán	10	San Lucas Tolimán	10	Octubre	2023-06-10T00:00:00	2024-11-08T16:00:00	2	Temperatura media	22.4
151730	7	Sololá	713	San Lucas Tolimán	10	San Lucas Tolimán	10	Octubre	2023-06-10T00:00:00	2024-11-08T16:00:00	4	Temperatura máxima	22.8
151731	7	Sololá	713	San Lucas Tolimán	10	San Lucas Tolimán	10	Octubre	2023-06-10T00:00:00	2024-11-08T16:00:00	3	Temperatura mínima	22.4
151732	7	Sololá	713	San Lucas Tolimán	10	San Lucas Tolimán	10	Octubre	2023-06-10T00:00:00	2024-11-08T16:00:00	5	Humedad	87
151733	7	Sololá	713	San Lucas Tolimán	10	San Lucas Tolimán	10	Octubre	2023-06-10T00:00:00	2024-11-08T16:00:00	6	Velocidad del viento	9.7
151734	7	Sololá	713	San Lucas Tolimán	10	San Lucas Tolimán	10	Octubre	2023-06-10T00:00:00	2024-11-08T16:00:00	7	Dirección del viento	9.66
151735	7	Sololá	713	San Lucas Tolimán	10	San Lucas Tolimán	10	Octubre	2023-06-10T00:00:00	2024-11-08T16:00:00	1	Precipitación	0
151736	7	Sololá	713	San Lucas Tolimán	10	San Lucas Tolimán	10	Octubre	2023-06-10T00:00:00	2024-11-08T16:00:00	8	Radiación solar	197
151737	7	Sololá	713	San Lucas Tolimán	10	San Lucas Tolimán	10	Octubre	2023-06-10T00:00:00	2024-11-08T17:00:00	2	Temperatura media	20.9
151738	7	Sololá	713	San Lucas Tolimán	10	San Lucas Tolimán	10	Octubre	2023-06-10T00:00:00	2024-11-08T17:00:00	4	Temperatura máxima	22.6
151739	7	Sololá	713	San Lucas Tolimán	10	San Lucas Tolimán	10	Octubre	2023-06-10T00:00:00	2024-11-08T17:00:00	3	Temperatura mínima	20.9
151740	7	Sololá	713	San Lucas Tolimán	10	San Lucas Tolimán	10	Octubre	2023-06-10T00:00:00	2024-11-08T17:00:00	5	Humedad	91
151741	7	Sololá	713	San Lucas Tolimán	10	San Lucas Tolimán	10	Octubre	2023-06-10T00:00:00	2024-11-08T17:00:00	6	Velocidad del viento	9.7
151742	7	Sololá	713	San Lucas Tolimán	10	San Lucas Tolimán	10	Octubre	2023-06-10T00:00:00	2024-11-08T17:00:00	7	Dirección del viento	9.66
151743	7	Sololá	713	San Lucas Tolimán	10	San Lucas Tolimán	10	Octubre	2023-06-10T00:00:00	2024-11-08T17:00:00	1	Precipitación	0
151744	7	Sololá	713	San Lucas Tolimán	10	San Lucas Tolimán	10	Octubre	2023-06-10T00:00:00	2024-11-08T17:00:00	8	Radiación solar	49
151745	7	Sololá	713	San Lucas Tolimán	10	San Lucas Tolimán	10	Octubre	2023-06-10T00:00:00	2024-11-08T18:00:00	2	Temperatura media	19.5
151746	7	Sololá	713	San Lucas Tolimán	10	San Lucas Tolimán	10	Octubre	2023-06-10T00:00:00	2024-11-08T18:00:00	4	Temperatura máxima	20.8
151747	7	Sololá	713	San Lucas Tolimán	10	San Lucas Tolimán	10	Octubre	2023-06-10T00:00:00	2024-11-08T18:00:00	3	Temperatura mínima	19.5
151748	7	Sololá	713	San Lucas Tolimán	10	San Lucas Tolimán	10	Octubre	2023-06-10T00:00:00	2024-11-08T18:00:00	5	Humedad	93
151749	7	Sololá	713	San Lucas Tolimán	10	San Lucas Tolimán	10	Octubre	2023-06-10T00:00:00	2024-11-08T18:00:00	6	Velocidad del viento	9.7
151750	7	Sololá	713	San Lucas Tolimán	10	San Lucas Tolimán	10	Octubre	2023-06-10T00:00:00	2024-11-08T18:00:00	7	Dirección del viento	9.66
151751	7	Sololá	713	San Lucas Tolimán	10	San Lucas Tolimán	10	Octubre	2023-06-10T00:00:00	2024-11-08T18:00:00	1	Precipitación	0
151752	7	Sololá	713	San Lucas Tolimán	10	San Lucas Tolimán	10	Octubre	2023-06-10T00:00:00	2024-11-08T18:00:00	8	Radiación solar	11
151753	7	Sololá	713	San Lucas Tolimán	10	San Lucas Tolimán	10	Octubre	2023-06-10T00:00:00	2024-11-08T19:00:00	2	Temperatura media	19.3
151754	7	Sololá	713	San Lucas Tolimán	10	San Lucas Tolimán	10	Octubre	2023-06-10T00:00:00	2024-11-08T19:00:00	4	Temperatura máxima	19.6
151755	7	Sololá	713	San Lucas Tolimán	10	San Lucas Tolimán	10	Octubre	2023-06-10T00:00:00	2024-11-08T19:00:00	3	Temperatura mínima	19.2
151756	7	Sololá	713	San Lucas Tolimán	10	San Lucas Tolimán	10	Octubre	2023-06-10T00:00:00	2024-11-08T19:00:00	5	Humedad	92
151757	7	Sololá	713	San Lucas Tolimán	10	San Lucas Tolimán	10	Octubre	2023-06-10T00:00:00	2024-11-08T19:00:00	6	Velocidad del viento	11.3
151758	7	Sololá	713	San Lucas Tolimán	10	San Lucas Tolimán	10	Octubre	2023-06-10T00:00:00	2024-11-08T19:00:00	7	Dirección del viento	11.27
151759	7	Sololá	713	San Lucas Tolimán	10	San Lucas Tolimán	10	Octubre	2023-06-10T00:00:00	2024-11-08T19:00:00	1	Precipitación	0
151760	7	Sololá	713	San Lucas Tolimán	10	San Lucas Tolimán	10	Octubre	2023-06-10T00:00:00	2024-11-08T19:00:00	8	Radiación solar	0
151761	7	Sololá	713	San Lucas Tolimán	10	San Lucas Tolimán	10	Octubre	2023-06-10T00:00:00	2024-11-08T20:00:00	2	Temperatura media	18.4
151762	7	Sololá	713	San Lucas Tolimán	10	San Lucas Tolimán	10	Octubre	2023-06-10T00:00:00	2024-11-08T20:00:00	4	Temperatura máxima	19.3
151763	7	Sololá	713	San Lucas Tolimán	10	San Lucas Tolimán	10	Octubre	2023-06-10T00:00:00	2024-11-08T20:00:00	3	Temperatura mínima	18.4
151764	7	Sololá	713	San Lucas Tolimán	10	San Lucas Tolimán	10	Octubre	2023-06-10T00:00:00	2024-11-08T20:00:00	5	Humedad	96
151765	7	Sololá	713	San Lucas Tolimán	10	San Lucas Tolimán	10	Octubre	2023-06-10T00:00:00	2024-11-08T20:00:00	6	Velocidad del viento	9.7
151766	7	Sololá	713	San Lucas Tolimán	10	San Lucas Tolimán	10	Octubre	2023-06-10T00:00:00	2024-11-08T20:00:00	7	Dirección del viento	9.66
151767	7	Sololá	713	San Lucas Tolimán	10	San Lucas Tolimán	10	Octubre	2023-06-10T00:00:00	2024-11-08T20:00:00	1	Precipitación	0.4
151768	7	Sololá	713	San Lucas Tolimán	10	San Lucas Tolimán	10	Octubre	2023-06-10T00:00:00	2024-11-08T20:00:00	8	Radiación solar	0
151769	7	Sololá	713	San Lucas Tolimán	10	San Lucas Tolimán	10	Octubre	2023-06-10T00:00:00	2024-11-08T21:00:00	2	Temperatura media	18.3
151770	7	Sololá	713	San Lucas Tolimán	10	San Lucas Tolimán	10	Octubre	2023-06-10T00:00:00	2024-11-08T21:00:00	4	Temperatura máxima	18.6
151771	7	Sololá	713	San Lucas Tolimán	10	San Lucas Tolimán	10	Octubre	2023-06-10T00:00:00	2024-11-08T21:00:00	3	Temperatura mínima	18.3
151772	7	Sololá	713	San Lucas Tolimán	10	San Lucas Tolimán	10	Octubre	2023-06-10T00:00:00	2024-11-08T21:00:00	5	Humedad	95
151773	7	Sololá	713	San Lucas Tolimán	10	San Lucas Tolimán	10	Octubre	2023-06-10T00:00:00	2024-11-08T21:00:00	6	Velocidad del viento	4.8
151774	7	Sololá	713	San Lucas Tolimán	10	San Lucas Tolimán	10	Octubre	2023-06-10T00:00:00	2024-11-08T21:00:00	7	Dirección del viento	4.83
151775	7	Sololá	713	San Lucas Tolimán	10	San Lucas Tolimán	10	Octubre	2023-06-10T00:00:00	2024-11-08T21:00:00	1	Precipitación	0
151776	7	Sololá	713	San Lucas Tolimán	10	San Lucas Tolimán	10	Octubre	2023-06-10T00:00:00	2024-11-08T21:00:00	8	Radiación solar	0
151777	7	Sololá	713	San Lucas Tolimán	10	San Lucas Tolimán	10	Octubre	2023-06-10T00:00:00	2024-11-08T22:00:00	2	Temperatura media	18.1
151778	7	Sololá	713	San Lucas Tolimán	10	San Lucas Tolimán	10	Octubre	2023-06-10T00:00:00	2024-11-08T22:00:00	4	Temperatura máxima	18.4
151779	7	Sololá	713	San Lucas Tolimán	10	San Lucas Tolimán	10	Octubre	2023-06-10T00:00:00	2024-11-08T22:00:00	3	Temperatura mínima	18.1
151780	7	Sololá	713	San Lucas Tolimán	10	San Lucas Tolimán	10	Octubre	2023-06-10T00:00:00	2024-11-08T22:00:00	5	Humedad	94
151781	7	Sololá	713	San Lucas Tolimán	10	San Lucas Tolimán	10	Octubre	2023-06-10T00:00:00	2024-11-08T22:00:00	6	Velocidad del viento	3.2
151782	7	Sololá	713	San Lucas Tolimán	10	San Lucas Tolimán	10	Octubre	2023-06-10T00:00:00	2024-11-08T22:00:00	7	Dirección del viento	3.22
151783	7	Sololá	713	San Lucas Tolimán	10	San Lucas Tolimán	10	Octubre	2023-06-10T00:00:00	2024-11-08T22:00:00	1	Precipitación	0
151784	7	Sololá	713	San Lucas Tolimán	10	San Lucas Tolimán	10	Octubre	2023-06-10T00:00:00	2024-11-08T22:00:00	8	Radiación solar	0
151785	7	Sololá	713	San Lucas Tolimán	10	San Lucas Tolimán	10	Octubre	2023-06-10T00:00:00	2024-11-08T23:00:00	2	Temperatura media	18.2
151786	7	Sololá	713	San Lucas Tolimán	10	San Lucas Tolimán	10	Octubre	2023-06-10T00:00:00	2024-11-08T23:00:00	4	Temperatura máxima	18.3
151787	7	Sololá	713	San Lucas Tolimán	10	San Lucas Tolimán	10	Octubre	2023-06-10T00:00:00	2024-11-08T23:00:00	3	Temperatura mínima	18.1
151788	7	Sololá	713	San Lucas Tolimán	10	San Lucas Tolimán	10	Octubre	2023-06-10T00:00:00	2024-11-08T23:00:00	5	Humedad	95
151789	7	Sololá	713	San Lucas Tolimán	10	San Lucas Tolimán	10	Octubre	2023-06-10T00:00:00	2024-11-08T23:00:00	6	Velocidad del viento	4.8
151790	7	Sololá	713	San Lucas Tolimán	10	San Lucas Tolimán	10	Octubre	2023-06-10T00:00:00	2024-11-08T23:00:00	7	Dirección del viento	4.83
151791	7	Sololá	713	San Lucas Tolimán	10	San Lucas Tolimán	10	Octubre	2023-06-10T00:00:00	2024-11-08T23:00:00	1	Precipitación	0
151792	7	Sololá	713	San Lucas Tolimán	10	San Lucas Tolimán	10	Octubre	2023-06-10T00:00:00	2024-11-08T23:00:00	8	Radiación solar	0
151793	7	Sololá	713	San Lucas Tolimán	10	San Lucas Tolimán	10	Octubre	2023-07-10T00:00:00	2024-11-08T00:00:00	2	Temperatura media	18.3
151794	7	Sololá	713	San Lucas Tolimán	10	San Lucas Tolimán	10	Octubre	2023-07-10T00:00:00	2024-11-08T00:00:00	4	Temperatura máxima	18.3
151795	7	Sololá	713	San Lucas Tolimán	10	San Lucas Tolimán	10	Octubre	2023-07-10T00:00:00	2024-11-08T00:00:00	3	Temperatura mínima	18.1
151796	7	Sololá	713	San Lucas Tolimán	10	San Lucas Tolimán	10	Octubre	2023-07-10T00:00:00	2024-11-08T00:00:00	5	Humedad	95
151797	7	Sololá	713	San Lucas Tolimán	10	San Lucas Tolimán	10	Octubre	2023-07-10T00:00:00	2024-11-08T00:00:00	6	Velocidad del viento	1.6
151798	7	Sololá	713	San Lucas Tolimán	10	San Lucas Tolimán	10	Octubre	2023-07-10T00:00:00	2024-11-08T00:00:00	7	Dirección del viento	1.61
151799	7	Sololá	713	San Lucas Tolimán	10	San Lucas Tolimán	10	Octubre	2023-07-10T00:00:00	2024-11-08T00:00:00	1	Precipitación	0.2
151800	7	Sololá	713	San Lucas Tolimán	10	San Lucas Tolimán	10	Octubre	2023-07-10T00:00:00	2024-11-08T00:00:00	8	Radiación solar	0
151801	7	Sololá	713	San Lucas Tolimán	10	San Lucas Tolimán	10	Octubre	2023-07-10T00:00:00	2024-11-08T01:00:00	2	Temperatura media	18.1
151802	7	Sololá	713	San Lucas Tolimán	10	San Lucas Tolimán	10	Octubre	2023-07-10T00:00:00	2024-11-08T01:00:00	4	Temperatura máxima	18.3
151803	7	Sololá	713	San Lucas Tolimán	10	San Lucas Tolimán	10	Octubre	2023-07-10T00:00:00	2024-11-08T01:00:00	3	Temperatura mínima	18.1
151804	7	Sololá	713	San Lucas Tolimán	10	San Lucas Tolimán	10	Octubre	2023-07-10T00:00:00	2024-11-08T01:00:00	5	Humedad	95
151805	7	Sololá	713	San Lucas Tolimán	10	San Lucas Tolimán	10	Octubre	2023-07-10T00:00:00	2024-11-08T01:00:00	6	Velocidad del viento	1.6
151806	7	Sololá	713	San Lucas Tolimán	10	San Lucas Tolimán	10	Octubre	2023-07-10T00:00:00	2024-11-08T01:00:00	7	Dirección del viento	1.61
151807	7	Sololá	713	San Lucas Tolimán	10	San Lucas Tolimán	10	Octubre	2023-07-10T00:00:00	2024-11-08T01:00:00	1	Precipitación	0
151808	7	Sololá	713	San Lucas Tolimán	10	San Lucas Tolimán	10	Octubre	2023-07-10T00:00:00	2024-11-08T01:00:00	8	Radiación solar	0
151809	7	Sololá	713	San Lucas Tolimán	10	San Lucas Tolimán	10	Octubre	2023-07-10T00:00:00	2024-11-08T02:00:00	2	Temperatura media	17.6
151810	7	Sololá	713	San Lucas Tolimán	10	San Lucas Tolimán	10	Octubre	2023-07-10T00:00:00	2024-11-08T02:00:00	4	Temperatura máxima	18.1
151811	7	Sololá	713	San Lucas Tolimán	10	San Lucas Tolimán	10	Octubre	2023-07-10T00:00:00	2024-11-08T02:00:00	3	Temperatura mínima	17.6
151812	7	Sololá	713	San Lucas Tolimán	10	San Lucas Tolimán	10	Octubre	2023-07-10T00:00:00	2024-11-08T02:00:00	5	Humedad	95
151813	7	Sololá	713	San Lucas Tolimán	10	San Lucas Tolimán	10	Octubre	2023-07-10T00:00:00	2024-11-08T02:00:00	6	Velocidad del viento	1.6
151814	7	Sololá	713	San Lucas Tolimán	10	San Lucas Tolimán	10	Octubre	2023-07-10T00:00:00	2024-11-08T02:00:00	7	Dirección del viento	1.61
151815	7	Sololá	713	San Lucas Tolimán	10	San Lucas Tolimán	10	Octubre	2023-07-10T00:00:00	2024-11-08T02:00:00	1	Precipitación	0
151816	7	Sololá	713	San Lucas Tolimán	10	San Lucas Tolimán	10	Octubre	2023-07-10T00:00:00	2024-11-08T02:00:00	8	Radiación solar	0
151817	7	Sololá	713	San Lucas Tolimán	10	San Lucas Tolimán	10	Octubre	2023-07-10T00:00:00	2024-11-08T03:00:00	2	Temperatura media	17.3
151818	7	Sololá	713	San Lucas Tolimán	10	San Lucas Tolimán	10	Octubre	2023-07-10T00:00:00	2024-11-08T03:00:00	4	Temperatura máxima	17.6
151819	7	Sololá	713	San Lucas Tolimán	10	San Lucas Tolimán	10	Octubre	2023-07-10T00:00:00	2024-11-08T03:00:00	3	Temperatura mínima	17.2
151820	7	Sololá	713	San Lucas Tolimán	10	San Lucas Tolimán	10	Octubre	2023-07-10T00:00:00	2024-11-08T03:00:00	5	Humedad	96
151821	7	Sololá	713	San Lucas Tolimán	10	San Lucas Tolimán	10	Octubre	2023-07-10T00:00:00	2024-11-08T03:00:00	6	Velocidad del viento	1.6
151822	7	Sololá	713	San Lucas Tolimán	10	San Lucas Tolimán	10	Octubre	2023-07-10T00:00:00	2024-11-08T03:00:00	7	Dirección del viento	1.61
151823	7	Sololá	713	San Lucas Tolimán	10	San Lucas Tolimán	10	Octubre	2023-07-10T00:00:00	2024-11-08T03:00:00	1	Precipitación	0
151824	7	Sololá	713	San Lucas Tolimán	10	San Lucas Tolimán	10	Octubre	2023-07-10T00:00:00	2024-11-08T03:00:00	8	Radiación solar	0
151825	7	Sololá	713	San Lucas Tolimán	10	San Lucas Tolimán	10	Octubre	2023-07-10T00:00:00	2024-11-08T04:00:00	2	Temperatura media	17.8
151826	7	Sololá	713	San Lucas Tolimán	10	San Lucas Tolimán	10	Octubre	2023-07-10T00:00:00	2024-11-08T04:00:00	4	Temperatura máxima	17.8
151827	7	Sololá	713	San Lucas Tolimán	10	San Lucas Tolimán	10	Octubre	2023-07-10T00:00:00	2024-11-08T04:00:00	3	Temperatura mínima	17.2
151828	7	Sololá	713	San Lucas Tolimán	10	San Lucas Tolimán	10	Octubre	2023-07-10T00:00:00	2024-11-08T04:00:00	5	Humedad	96
151829	7	Sololá	713	San Lucas Tolimán	10	San Lucas Tolimán	10	Octubre	2023-07-10T00:00:00	2024-11-08T04:00:00	6	Velocidad del viento	1.6
151830	7	Sololá	713	San Lucas Tolimán	10	San Lucas Tolimán	10	Octubre	2023-07-10T00:00:00	2024-11-08T04:00:00	7	Dirección del viento	1.61
151831	7	Sololá	713	San Lucas Tolimán	10	San Lucas Tolimán	10	Octubre	2023-07-10T00:00:00	2024-11-08T04:00:00	1	Precipitación	0
151832	7	Sololá	713	San Lucas Tolimán	10	San Lucas Tolimán	10	Octubre	2023-07-10T00:00:00	2024-11-08T04:00:00	8	Radiación solar	0
151833	7	Sololá	713	San Lucas Tolimán	10	San Lucas Tolimán	10	Octubre	2023-07-10T00:00:00	2024-11-08T05:00:00	2	Temperatura media	18.1
151834	7	Sololá	713	San Lucas Tolimán	10	San Lucas Tolimán	10	Octubre	2023-07-10T00:00:00	2024-11-08T05:00:00	4	Temperatura máxima	18.1
151835	7	Sololá	713	San Lucas Tolimán	10	San Lucas Tolimán	10	Octubre	2023-07-10T00:00:00	2024-11-08T05:00:00	3	Temperatura mínima	17.8
151836	7	Sololá	713	San Lucas Tolimán	10	San Lucas Tolimán	10	Octubre	2023-07-10T00:00:00	2024-11-08T05:00:00	5	Humedad	95
151837	7	Sololá	713	San Lucas Tolimán	10	San Lucas Tolimán	10	Octubre	2023-07-10T00:00:00	2024-11-08T05:00:00	6	Velocidad del viento	1.6
151838	7	Sololá	713	San Lucas Tolimán	10	San Lucas Tolimán	10	Octubre	2023-07-10T00:00:00	2024-11-08T05:00:00	7	Dirección del viento	1.61
151839	7	Sololá	713	San Lucas Tolimán	10	San Lucas Tolimán	10	Octubre	2023-07-10T00:00:00	2024-11-08T05:00:00	1	Precipitación	0
151840	7	Sololá	713	San Lucas Tolimán	10	San Lucas Tolimán	10	Octubre	2023-07-10T00:00:00	2024-11-08T05:00:00	8	Radiación solar	0
151841	7	Sololá	713	San Lucas Tolimán	10	San Lucas Tolimán	10	Octubre	2023-07-10T00:00:00	2024-11-08T06:00:00	2	Temperatura media	18.1
151842	7	Sololá	713	San Lucas Tolimán	10	San Lucas Tolimán	10	Octubre	2023-07-10T00:00:00	2024-11-08T06:00:00	4	Temperatura máxima	18.4
151843	7	Sololá	713	San Lucas Tolimán	10	San Lucas Tolimán	10	Octubre	2023-07-10T00:00:00	2024-11-08T06:00:00	3	Temperatura mínima	18
151844	7	Sololá	713	San Lucas Tolimán	10	San Lucas Tolimán	10	Octubre	2023-07-10T00:00:00	2024-11-08T06:00:00	5	Humedad	93
151845	7	Sololá	713	San Lucas Tolimán	10	San Lucas Tolimán	10	Octubre	2023-07-10T00:00:00	2024-11-08T06:00:00	6	Velocidad del viento	3.2
151846	7	Sololá	713	San Lucas Tolimán	10	San Lucas Tolimán	10	Octubre	2023-07-10T00:00:00	2024-11-08T06:00:00	7	Dirección del viento	3.22
151847	7	Sololá	713	San Lucas Tolimán	10	San Lucas Tolimán	10	Octubre	2023-07-10T00:00:00	2024-11-08T06:00:00	1	Precipitación	0
151848	7	Sololá	713	San Lucas Tolimán	10	San Lucas Tolimán	10	Octubre	2023-07-10T00:00:00	2024-11-08T06:00:00	8	Radiación solar	0
151849	7	Sololá	713	San Lucas Tolimán	10	San Lucas Tolimán	10	Octubre	2023-07-10T00:00:00	2024-11-08T07:00:00	2	Temperatura media	18.5
151850	7	Sololá	713	San Lucas Tolimán	10	San Lucas Tolimán	10	Octubre	2023-07-10T00:00:00	2024-11-08T07:00:00	4	Temperatura máxima	18.5
151851	7	Sololá	713	San Lucas Tolimán	10	San Lucas Tolimán	10	Octubre	2023-07-10T00:00:00	2024-11-08T07:00:00	3	Temperatura mínima	17.9
151852	7	Sololá	713	San Lucas Tolimán	10	San Lucas Tolimán	10	Octubre	2023-07-10T00:00:00	2024-11-08T07:00:00	5	Humedad	94
151853	7	Sololá	713	San Lucas Tolimán	10	San Lucas Tolimán	10	Octubre	2023-07-10T00:00:00	2024-11-08T07:00:00	6	Velocidad del viento	1.6
151854	7	Sololá	713	San Lucas Tolimán	10	San Lucas Tolimán	10	Octubre	2023-07-10T00:00:00	2024-11-08T07:00:00	7	Dirección del viento	1.61
151855	7	Sololá	713	San Lucas Tolimán	10	San Lucas Tolimán	10	Octubre	2023-07-10T00:00:00	2024-11-08T07:00:00	1	Precipitación	0
151856	7	Sololá	713	San Lucas Tolimán	10	San Lucas Tolimán	10	Octubre	2023-07-10T00:00:00	2024-11-08T07:00:00	8	Radiación solar	21
151857	7	Sololá	713	San Lucas Tolimán	10	San Lucas Tolimán	10	Octubre	2023-07-10T00:00:00	2024-11-08T08:00:00	2	Temperatura media	20.3
151858	7	Sololá	713	San Lucas Tolimán	10	San Lucas Tolimán	10	Octubre	2023-07-10T00:00:00	2024-11-08T08:00:00	4	Temperatura máxima	20.3
151859	7	Sololá	713	San Lucas Tolimán	10	San Lucas Tolimán	10	Octubre	2023-07-10T00:00:00	2024-11-08T08:00:00	3	Temperatura mínima	18.6
151860	7	Sololá	713	San Lucas Tolimán	10	San Lucas Tolimán	10	Octubre	2023-07-10T00:00:00	2024-11-08T08:00:00	5	Humedad	89
151861	7	Sololá	713	San Lucas Tolimán	10	San Lucas Tolimán	10	Octubre	2023-07-10T00:00:00	2024-11-08T08:00:00	6	Velocidad del viento	3.2
151862	7	Sololá	713	San Lucas Tolimán	10	San Lucas Tolimán	10	Octubre	2023-07-10T00:00:00	2024-11-08T08:00:00	7	Dirección del viento	3.22
151863	7	Sololá	713	San Lucas Tolimán	10	San Lucas Tolimán	10	Octubre	2023-07-10T00:00:00	2024-11-08T08:00:00	1	Precipitación	0
151864	7	Sololá	713	San Lucas Tolimán	10	San Lucas Tolimán	10	Octubre	2023-07-10T00:00:00	2024-11-08T08:00:00	8	Radiación solar	241
151865	7	Sololá	713	San Lucas Tolimán	10	San Lucas Tolimán	10	Octubre	2023-07-10T00:00:00	2024-11-08T09:00:00	2	Temperatura media	22.7
151866	7	Sololá	713	San Lucas Tolimán	10	San Lucas Tolimán	10	Octubre	2023-07-10T00:00:00	2024-11-08T09:00:00	4	Temperatura máxima	22.9
151867	7	Sololá	713	San Lucas Tolimán	10	San Lucas Tolimán	10	Octubre	2023-07-10T00:00:00	2024-11-08T09:00:00	3	Temperatura mínima	20.3
151868	7	Sololá	713	San Lucas Tolimán	10	San Lucas Tolimán	10	Octubre	2023-07-10T00:00:00	2024-11-08T09:00:00	5	Humedad	78
151869	7	Sololá	713	San Lucas Tolimán	10	San Lucas Tolimán	10	Octubre	2023-07-10T00:00:00	2024-11-08T09:00:00	6	Velocidad del viento	3.2
151870	7	Sololá	713	San Lucas Tolimán	10	San Lucas Tolimán	10	Octubre	2023-07-10T00:00:00	2024-11-08T09:00:00	7	Dirección del viento	3.22
151871	7	Sololá	713	San Lucas Tolimán	10	San Lucas Tolimán	10	Octubre	2023-07-10T00:00:00	2024-11-08T09:00:00	1	Precipitación	0
151872	7	Sololá	713	San Lucas Tolimán	10	San Lucas Tolimán	10	Octubre	2023-07-10T00:00:00	2024-11-08T09:00:00	8	Radiación solar	466
151873	7	Sololá	713	San Lucas Tolimán	10	San Lucas Tolimán	10	Octubre	2023-07-10T00:00:00	2024-11-08T10:00:00	2	Temperatura media	25.2
151874	7	Sololá	713	San Lucas Tolimán	10	San Lucas Tolimán	10	Octubre	2023-07-10T00:00:00	2024-11-08T10:00:00	4	Temperatura máxima	25.2
151875	7	Sololá	713	San Lucas Tolimán	10	San Lucas Tolimán	10	Octubre	2023-07-10T00:00:00	2024-11-08T10:00:00	3	Temperatura mínima	22.5
151876	7	Sololá	713	San Lucas Tolimán	10	San Lucas Tolimán	10	Octubre	2023-07-10T00:00:00	2024-11-08T10:00:00	5	Humedad	72
151877	7	Sololá	713	San Lucas Tolimán	10	San Lucas Tolimán	10	Octubre	2023-07-10T00:00:00	2024-11-08T10:00:00	6	Velocidad del viento	4.8
151878	7	Sololá	713	San Lucas Tolimán	10	San Lucas Tolimán	10	Octubre	2023-07-10T00:00:00	2024-11-08T10:00:00	7	Dirección del viento	4.83
151879	7	Sololá	713	San Lucas Tolimán	10	San Lucas Tolimán	10	Octubre	2023-07-10T00:00:00	2024-11-08T10:00:00	1	Precipitación	0
151880	7	Sololá	713	San Lucas Tolimán	10	San Lucas Tolimán	10	Octubre	2023-07-10T00:00:00	2024-11-08T10:00:00	8	Radiación solar	672
151881	7	Sololá	713	San Lucas Tolimán	10	San Lucas Tolimán	10	Octubre	2023-07-10T00:00:00	2024-11-08T11:00:00	2	Temperatura media	27.8
151882	7	Sololá	713	San Lucas Tolimán	10	San Lucas Tolimán	10	Octubre	2023-07-10T00:00:00	2024-11-08T11:00:00	4	Temperatura máxima	28.1
151883	7	Sololá	713	San Lucas Tolimán	10	San Lucas Tolimán	10	Octubre	2023-07-10T00:00:00	2024-11-08T11:00:00	3	Temperatura mínima	25.2
151884	7	Sololá	713	San Lucas Tolimán	10	San Lucas Tolimán	10	Octubre	2023-07-10T00:00:00	2024-11-08T11:00:00	5	Humedad	70
151885	7	Sololá	713	San Lucas Tolimán	10	San Lucas Tolimán	10	Octubre	2023-07-10T00:00:00	2024-11-08T11:00:00	6	Velocidad del viento	3.2
151886	7	Sololá	713	San Lucas Tolimán	10	San Lucas Tolimán	10	Octubre	2023-07-10T00:00:00	2024-11-08T11:00:00	7	Dirección del viento	3.22
151887	7	Sololá	713	San Lucas Tolimán	10	San Lucas Tolimán	10	Octubre	2023-07-10T00:00:00	2024-11-08T11:00:00	1	Precipitación	0
151888	7	Sololá	713	San Lucas Tolimán	10	San Lucas Tolimán	10	Octubre	2023-07-10T00:00:00	2024-11-08T11:00:00	8	Radiación solar	615
151889	7	Sololá	713	San Lucas Tolimán	10	San Lucas Tolimán	10	Octubre	2023-07-10T00:00:00	2024-11-08T12:00:00	2	Temperatura media	23.8
151890	7	Sololá	713	San Lucas Tolimán	10	San Lucas Tolimán	10	Octubre	2023-07-10T00:00:00	2024-11-08T12:00:00	4	Temperatura máxima	27.8
151891	7	Sololá	713	San Lucas Tolimán	10	San Lucas Tolimán	10	Octubre	2023-07-10T00:00:00	2024-11-08T12:00:00	3	Temperatura mínima	23.8
151892	7	Sololá	713	San Lucas Tolimán	10	San Lucas Tolimán	10	Octubre	2023-07-10T00:00:00	2024-11-08T12:00:00	5	Humedad	83
151893	7	Sololá	713	San Lucas Tolimán	10	San Lucas Tolimán	10	Octubre	2023-07-10T00:00:00	2024-11-08T12:00:00	6	Velocidad del viento	12.9
151894	7	Sololá	713	San Lucas Tolimán	10	San Lucas Tolimán	10	Octubre	2023-07-10T00:00:00	2024-11-08T12:00:00	7	Dirección del viento	12.87
151895	7	Sololá	713	San Lucas Tolimán	10	San Lucas Tolimán	10	Octubre	2023-07-10T00:00:00	2024-11-08T12:00:00	1	Precipitación	0
151896	7	Sololá	713	San Lucas Tolimán	10	San Lucas Tolimán	10	Octubre	2023-07-10T00:00:00	2024-11-08T12:00:00	8	Radiación solar	486
151897	7	Sololá	713	San Lucas Tolimán	10	San Lucas Tolimán	10	Octubre	2023-07-10T00:00:00	2024-11-08T13:00:00	2	Temperatura media	23.4
151898	7	Sololá	713	San Lucas Tolimán	10	San Lucas Tolimán	10	Octubre	2023-07-10T00:00:00	2024-11-08T13:00:00	4	Temperatura máxima	23.9
151899	7	Sololá	713	San Lucas Tolimán	10	San Lucas Tolimán	10	Octubre	2023-07-10T00:00:00	2024-11-08T13:00:00	3	Temperatura mínima	22.7
151900	7	Sololá	713	San Lucas Tolimán	10	San Lucas Tolimán	10	Octubre	2023-07-10T00:00:00	2024-11-08T13:00:00	5	Humedad	84
151901	7	Sololá	713	San Lucas Tolimán	10	San Lucas Tolimán	10	Octubre	2023-07-10T00:00:00	2024-11-08T13:00:00	6	Velocidad del viento	12.9
151902	7	Sololá	713	San Lucas Tolimán	10	San Lucas Tolimán	10	Octubre	2023-07-10T00:00:00	2024-11-08T13:00:00	7	Dirección del viento	12.87
151903	7	Sololá	713	San Lucas Tolimán	10	San Lucas Tolimán	10	Octubre	2023-07-10T00:00:00	2024-11-08T13:00:00	1	Precipitación	0
151904	7	Sololá	713	San Lucas Tolimán	10	San Lucas Tolimán	10	Octubre	2023-07-10T00:00:00	2024-11-08T13:00:00	8	Radiación solar	344
151905	7	Sololá	713	San Lucas Tolimán	10	San Lucas Tolimán	10	Octubre	2023-07-10T00:00:00	2024-11-08T14:00:00	2	Temperatura media	22.6
151906	7	Sololá	713	San Lucas Tolimán	10	San Lucas Tolimán	10	Octubre	2023-07-10T00:00:00	2024-11-08T14:00:00	4	Temperatura máxima	24.4
151907	7	Sololá	713	San Lucas Tolimán	10	San Lucas Tolimán	10	Octubre	2023-07-10T00:00:00	2024-11-08T14:00:00	3	Temperatura mínima	22.6
151908	7	Sololá	713	San Lucas Tolimán	10	San Lucas Tolimán	10	Octubre	2023-07-10T00:00:00	2024-11-08T14:00:00	5	Humedad	88
151909	7	Sololá	713	San Lucas Tolimán	10	San Lucas Tolimán	10	Octubre	2023-07-10T00:00:00	2024-11-08T14:00:00	6	Velocidad del viento	14.5
151910	7	Sololá	713	San Lucas Tolimán	10	San Lucas Tolimán	10	Octubre	2023-07-10T00:00:00	2024-11-08T14:00:00	7	Dirección del viento	14.48
151911	7	Sololá	713	San Lucas Tolimán	10	San Lucas Tolimán	10	Octubre	2023-07-10T00:00:00	2024-11-08T14:00:00	1	Precipitación	0
151912	7	Sololá	713	San Lucas Tolimán	10	San Lucas Tolimán	10	Octubre	2023-07-10T00:00:00	2024-11-08T14:00:00	8	Radiación solar	340
151913	7	Sololá	713	San Lucas Tolimán	10	San Lucas Tolimán	10	Octubre	2023-07-10T00:00:00	2024-11-08T15:00:00	2	Temperatura media	21.9
151914	7	Sololá	713	San Lucas Tolimán	10	San Lucas Tolimán	10	Octubre	2023-07-10T00:00:00	2024-11-08T15:00:00	4	Temperatura máxima	22.9
151915	7	Sololá	713	San Lucas Tolimán	10	San Lucas Tolimán	10	Octubre	2023-07-10T00:00:00	2024-11-08T15:00:00	3	Temperatura mínima	21.6
151916	7	Sololá	713	San Lucas Tolimán	10	San Lucas Tolimán	10	Octubre	2023-07-10T00:00:00	2024-11-08T15:00:00	5	Humedad	93
151917	7	Sololá	713	San Lucas Tolimán	10	San Lucas Tolimán	10	Octubre	2023-07-10T00:00:00	2024-11-08T15:00:00	6	Velocidad del viento	12.9
151918	7	Sololá	713	San Lucas Tolimán	10	San Lucas Tolimán	10	Octubre	2023-07-10T00:00:00	2024-11-08T15:00:00	7	Dirección del viento	12.87
151919	7	Sololá	713	San Lucas Tolimán	10	San Lucas Tolimán	10	Octubre	2023-07-10T00:00:00	2024-11-08T15:00:00	1	Precipitación	0.2
151920	7	Sololá	713	San Lucas Tolimán	10	San Lucas Tolimán	10	Octubre	2023-07-10T00:00:00	2024-11-08T15:00:00	8	Radiación solar	318
151921	7	Sololá	713	San Lucas Tolimán	10	San Lucas Tolimán	10	Octubre	2023-07-10T00:00:00	2024-11-08T16:00:00	2	Temperatura media	20.7
151922	7	Sololá	713	San Lucas Tolimán	10	San Lucas Tolimán	10	Octubre	2023-07-10T00:00:00	2024-11-08T16:00:00	4	Temperatura máxima	22.2
151923	7	Sololá	713	San Lucas Tolimán	10	San Lucas Tolimán	10	Octubre	2023-07-10T00:00:00	2024-11-08T16:00:00	3	Temperatura mínima	20.7
151924	7	Sololá	713	San Lucas Tolimán	10	San Lucas Tolimán	10	Octubre	2023-07-10T00:00:00	2024-11-08T16:00:00	5	Humedad	95
151925	7	Sololá	713	San Lucas Tolimán	10	San Lucas Tolimán	10	Octubre	2023-07-10T00:00:00	2024-11-08T16:00:00	6	Velocidad del viento	9.7
151926	7	Sololá	713	San Lucas Tolimán	10	San Lucas Tolimán	10	Octubre	2023-07-10T00:00:00	2024-11-08T16:00:00	7	Dirección del viento	9.66
151927	7	Sololá	713	San Lucas Tolimán	10	San Lucas Tolimán	10	Octubre	2023-07-10T00:00:00	2024-11-08T16:00:00	1	Precipitación	0
151928	7	Sololá	713	San Lucas Tolimán	10	San Lucas Tolimán	10	Octubre	2023-07-10T00:00:00	2024-11-08T16:00:00	8	Radiación solar	182
151929	7	Sololá	713	San Lucas Tolimán	10	San Lucas Tolimán	10	Octubre	2023-07-10T00:00:00	2024-11-08T17:00:00	2	Temperatura media	20.4
151930	7	Sololá	713	San Lucas Tolimán	10	San Lucas Tolimán	10	Octubre	2023-07-10T00:00:00	2024-11-08T17:00:00	4	Temperatura máxima	20.8
151931	7	Sololá	713	San Lucas Tolimán	10	San Lucas Tolimán	10	Octubre	2023-07-10T00:00:00	2024-11-08T17:00:00	3	Temperatura mínima	20.3
151932	7	Sololá	713	San Lucas Tolimán	10	San Lucas Tolimán	10	Octubre	2023-07-10T00:00:00	2024-11-08T17:00:00	5	Humedad	95
151933	7	Sololá	713	San Lucas Tolimán	10	San Lucas Tolimán	10	Octubre	2023-07-10T00:00:00	2024-11-08T17:00:00	6	Velocidad del viento	8
151934	7	Sololá	713	San Lucas Tolimán	10	San Lucas Tolimán	10	Octubre	2023-07-10T00:00:00	2024-11-08T17:00:00	7	Dirección del viento	8.05
151935	7	Sololá	713	San Lucas Tolimán	10	San Lucas Tolimán	10	Octubre	2023-07-10T00:00:00	2024-11-08T17:00:00	1	Precipitación	0
151936	7	Sololá	713	San Lucas Tolimán	10	San Lucas Tolimán	10	Octubre	2023-07-10T00:00:00	2024-11-08T17:00:00	8	Radiación solar	58
151937	7	Sololá	713	San Lucas Tolimán	10	San Lucas Tolimán	10	Octubre	2023-07-10T00:00:00	2024-11-08T18:00:00	2	Temperatura media	19.3
151938	7	Sololá	713	San Lucas Tolimán	10	San Lucas Tolimán	10	Octubre	2023-07-10T00:00:00	2024-11-08T18:00:00	4	Temperatura máxima	20.4
151939	7	Sololá	713	San Lucas Tolimán	10	San Lucas Tolimán	10	Octubre	2023-07-10T00:00:00	2024-11-08T18:00:00	3	Temperatura mínima	19.3
151940	7	Sololá	713	San Lucas Tolimán	10	San Lucas Tolimán	10	Octubre	2023-07-10T00:00:00	2024-11-08T18:00:00	5	Humedad	95
151941	7	Sololá	713	San Lucas Tolimán	10	San Lucas Tolimán	10	Octubre	2023-07-10T00:00:00	2024-11-08T18:00:00	6	Velocidad del viento	9.7
151942	7	Sololá	713	San Lucas Tolimán	10	San Lucas Tolimán	10	Octubre	2023-07-10T00:00:00	2024-11-08T18:00:00	7	Dirección del viento	9.66
151943	7	Sololá	713	San Lucas Tolimán	10	San Lucas Tolimán	10	Octubre	2023-07-10T00:00:00	2024-11-08T18:00:00	1	Precipitación	0
151944	7	Sololá	713	San Lucas Tolimán	10	San Lucas Tolimán	10	Octubre	2023-07-10T00:00:00	2024-11-08T18:00:00	8	Radiación solar	7
151945	7	Sololá	713	San Lucas Tolimán	10	San Lucas Tolimán	10	Octubre	2023-07-10T00:00:00	2024-11-08T19:00:00	2	Temperatura media	18.8
151946	7	Sololá	713	San Lucas Tolimán	10	San Lucas Tolimán	10	Octubre	2023-07-10T00:00:00	2024-11-08T19:00:00	4	Temperatura máxima	19.6
151947	7	Sololá	713	San Lucas Tolimán	10	San Lucas Tolimán	10	Octubre	2023-07-10T00:00:00	2024-11-08T19:00:00	3	Temperatura mínima	18.8
151948	7	Sololá	713	San Lucas Tolimán	10	San Lucas Tolimán	10	Octubre	2023-07-10T00:00:00	2024-11-08T19:00:00	5	Humedad	95
151949	7	Sololá	713	San Lucas Tolimán	10	San Lucas Tolimán	10	Octubre	2023-07-10T00:00:00	2024-11-08T19:00:00	6	Velocidad del viento	9.7
151950	7	Sololá	713	San Lucas Tolimán	10	San Lucas Tolimán	10	Octubre	2023-07-10T00:00:00	2024-11-08T19:00:00	7	Dirección del viento	9.66
151951	7	Sololá	713	San Lucas Tolimán	10	San Lucas Tolimán	10	Octubre	2023-07-10T00:00:00	2024-11-08T19:00:00	1	Precipitación	1.2
151952	7	Sololá	713	San Lucas Tolimán	10	San Lucas Tolimán	10	Octubre	2023-07-10T00:00:00	2024-11-08T19:00:00	8	Radiación solar	0
151953	7	Sololá	713	San Lucas Tolimán	10	San Lucas Tolimán	10	Octubre	2023-07-10T00:00:00	2024-11-08T20:00:00	2	Temperatura media	18.6
151954	7	Sololá	713	San Lucas Tolimán	10	San Lucas Tolimán	10	Octubre	2023-07-10T00:00:00	2024-11-08T20:00:00	4	Temperatura máxima	18.9
151955	7	Sololá	713	San Lucas Tolimán	10	San Lucas Tolimán	10	Octubre	2023-07-10T00:00:00	2024-11-08T20:00:00	3	Temperatura mínima	18.6
151956	7	Sololá	713	San Lucas Tolimán	10	San Lucas Tolimán	10	Octubre	2023-07-10T00:00:00	2024-11-08T20:00:00	5	Humedad	96
151957	7	Sololá	713	San Lucas Tolimán	10	San Lucas Tolimán	10	Octubre	2023-07-10T00:00:00	2024-11-08T20:00:00	6	Velocidad del viento	8
151958	7	Sololá	713	San Lucas Tolimán	10	San Lucas Tolimán	10	Octubre	2023-07-10T00:00:00	2024-11-08T20:00:00	7	Dirección del viento	8.05
151959	7	Sololá	713	San Lucas Tolimán	10	San Lucas Tolimán	10	Octubre	2023-07-10T00:00:00	2024-11-08T20:00:00	1	Precipitación	2.2
151960	7	Sololá	713	San Lucas Tolimán	10	San Lucas Tolimán	10	Octubre	2023-07-10T00:00:00	2024-11-08T20:00:00	8	Radiación solar	0
151961	7	Sololá	713	San Lucas Tolimán	10	San Lucas Tolimán	10	Octubre	2023-07-10T00:00:00	2024-11-08T21:00:00	2	Temperatura media	18.6
151962	7	Sololá	713	San Lucas Tolimán	10	San Lucas Tolimán	10	Octubre	2023-07-10T00:00:00	2024-11-08T21:00:00	4	Temperatura máxima	18.7
151963	7	Sololá	713	San Lucas Tolimán	10	San Lucas Tolimán	10	Octubre	2023-07-10T00:00:00	2024-11-08T21:00:00	3	Temperatura mínima	18.5
151964	7	Sololá	713	San Lucas Tolimán	10	San Lucas Tolimán	10	Octubre	2023-07-10T00:00:00	2024-11-08T21:00:00	5	Humedad	96
151965	7	Sololá	713	San Lucas Tolimán	10	San Lucas Tolimán	10	Octubre	2023-07-10T00:00:00	2024-11-08T21:00:00	6	Velocidad del viento	1.6
151966	7	Sololá	713	San Lucas Tolimán	10	San Lucas Tolimán	10	Octubre	2023-07-10T00:00:00	2024-11-08T21:00:00	7	Dirección del viento	1.61
151967	7	Sololá	713	San Lucas Tolimán	10	San Lucas Tolimán	10	Octubre	2023-07-10T00:00:00	2024-11-08T21:00:00	1	Precipitación	4
151968	7	Sololá	713	San Lucas Tolimán	10	San Lucas Tolimán	10	Octubre	2023-07-10T00:00:00	2024-11-08T21:00:00	8	Radiación solar	0
151969	7	Sololá	713	San Lucas Tolimán	10	San Lucas Tolimán	10	Octubre	2023-07-10T00:00:00	2024-11-08T22:00:00	2	Temperatura media	18.2
151970	7	Sololá	713	San Lucas Tolimán	10	San Lucas Tolimán	10	Octubre	2023-07-10T00:00:00	2024-11-08T22:00:00	4	Temperatura máxima	18.7
151971	7	Sololá	713	San Lucas Tolimán	10	San Lucas Tolimán	10	Octubre	2023-07-10T00:00:00	2024-11-08T22:00:00	3	Temperatura mínima	18.2
151972	7	Sololá	713	San Lucas Tolimán	10	San Lucas Tolimán	10	Octubre	2023-07-10T00:00:00	2024-11-08T22:00:00	5	Humedad	95
151973	7	Sololá	713	San Lucas Tolimán	10	San Lucas Tolimán	10	Octubre	2023-07-10T00:00:00	2024-11-08T22:00:00	6	Velocidad del viento	1.6
151974	7	Sololá	713	San Lucas Tolimán	10	San Lucas Tolimán	10	Octubre	2023-07-10T00:00:00	2024-11-08T22:00:00	7	Dirección del viento	1.61
151975	7	Sololá	713	San Lucas Tolimán	10	San Lucas Tolimán	10	Octubre	2023-07-10T00:00:00	2024-11-08T22:00:00	1	Precipitación	2.8
151976	7	Sololá	713	San Lucas Tolimán	10	San Lucas Tolimán	10	Octubre	2023-07-10T00:00:00	2024-11-08T22:00:00	8	Radiación solar	0
151977	7	Sololá	713	San Lucas Tolimán	10	San Lucas Tolimán	10	Octubre	2023-07-10T00:00:00	2024-11-08T23:00:00	2	Temperatura media	18.3
151978	7	Sololá	713	San Lucas Tolimán	10	San Lucas Tolimán	10	Octubre	2023-07-10T00:00:00	2024-11-08T23:00:00	4	Temperatura máxima	18.4
151979	7	Sololá	713	San Lucas Tolimán	10	San Lucas Tolimán	10	Octubre	2023-07-10T00:00:00	2024-11-08T23:00:00	3	Temperatura mínima	18.1
151980	7	Sololá	713	San Lucas Tolimán	10	San Lucas Tolimán	10	Octubre	2023-07-10T00:00:00	2024-11-08T23:00:00	5	Humedad	96
151981	7	Sololá	713	San Lucas Tolimán	10	San Lucas Tolimán	10	Octubre	2023-07-10T00:00:00	2024-11-08T23:00:00	6	Velocidad del viento	1.6
151982	7	Sololá	713	San Lucas Tolimán	10	San Lucas Tolimán	10	Octubre	2023-07-10T00:00:00	2024-11-08T23:00:00	7	Dirección del viento	1.61
151983	7	Sololá	713	San Lucas Tolimán	10	San Lucas Tolimán	10	Octubre	2023-07-10T00:00:00	2024-11-08T23:00:00	1	Precipitación	1.2
151984	7	Sololá	713	San Lucas Tolimán	10	San Lucas Tolimán	10	Octubre	2023-07-10T00:00:00	2024-11-08T23:00:00	8	Radiación solar	0
151985	7	Sololá	713	San Lucas Tolimán	10	San Lucas Tolimán	10	Octubre	2023-08-10T00:00:00	2024-11-08T00:00:00	2	Temperatura media	17.9
151986	7	Sololá	713	San Lucas Tolimán	10	San Lucas Tolimán	10	Octubre	2023-08-10T00:00:00	2024-11-08T00:00:00	4	Temperatura máxima	18.4
151987	7	Sololá	713	San Lucas Tolimán	10	San Lucas Tolimán	10	Octubre	2023-08-10T00:00:00	2024-11-08T00:00:00	3	Temperatura mínima	17.9
151988	7	Sololá	713	San Lucas Tolimán	10	San Lucas Tolimán	10	Octubre	2023-08-10T00:00:00	2024-11-08T00:00:00	5	Humedad	94
151989	7	Sololá	713	San Lucas Tolimán	10	San Lucas Tolimán	10	Octubre	2023-08-10T00:00:00	2024-11-08T00:00:00	6	Velocidad del viento	3.2
151990	7	Sololá	713	San Lucas Tolimán	10	San Lucas Tolimán	10	Octubre	2023-08-10T00:00:00	2024-11-08T00:00:00	7	Dirección del viento	3.22
151991	7	Sololá	713	San Lucas Tolimán	10	San Lucas Tolimán	10	Octubre	2023-08-10T00:00:00	2024-11-08T00:00:00	1	Precipitación	0.2
151992	7	Sololá	713	San Lucas Tolimán	10	San Lucas Tolimán	10	Octubre	2023-08-10T00:00:00	2024-11-08T00:00:00	8	Radiación solar	0
151993	7	Sololá	713	San Lucas Tolimán	10	San Lucas Tolimán	10	Octubre	2023-08-10T00:00:00	2024-11-08T01:00:00	2	Temperatura media	17.9
151994	7	Sololá	713	San Lucas Tolimán	10	San Lucas Tolimán	10	Octubre	2023-08-10T00:00:00	2024-11-08T01:00:00	4	Temperatura máxima	18
151995	7	Sololá	713	San Lucas Tolimán	10	San Lucas Tolimán	10	Octubre	2023-08-10T00:00:00	2024-11-08T01:00:00	3	Temperatura mínima	17.8
151996	7	Sololá	713	San Lucas Tolimán	10	San Lucas Tolimán	10	Octubre	2023-08-10T00:00:00	2024-11-08T01:00:00	5	Humedad	96
151997	7	Sololá	713	San Lucas Tolimán	10	San Lucas Tolimán	10	Octubre	2023-08-10T00:00:00	2024-11-08T01:00:00	6	Velocidad del viento	1.6
151998	7	Sololá	713	San Lucas Tolimán	10	San Lucas Tolimán	10	Octubre	2023-08-10T00:00:00	2024-11-08T01:00:00	7	Dirección del viento	1.61
151999	7	Sololá	713	San Lucas Tolimán	10	San Lucas Tolimán	10	Octubre	2023-08-10T00:00:00	2024-11-08T01:00:00	1	Precipitación	0.6
152000	7	Sololá	713	San Lucas Tolimán	10	San Lucas Tolimán	10	Octubre	2023-08-10T00:00:00	2024-11-08T01:00:00	8	Radiación solar	0
152001	7	Sololá	713	San Lucas Tolimán	10	San Lucas Tolimán	10	Octubre	2023-08-10T00:00:00	2024-11-08T02:00:00	2	Temperatura media	17.9
152002	7	Sololá	713	San Lucas Tolimán	10	San Lucas Tolimán	10	Octubre	2023-08-10T00:00:00	2024-11-08T02:00:00	4	Temperatura máxima	18
152003	7	Sololá	713	San Lucas Tolimán	10	San Lucas Tolimán	10	Octubre	2023-08-10T00:00:00	2024-11-08T02:00:00	3	Temperatura mínima	17.8
152004	7	Sololá	713	San Lucas Tolimán	10	San Lucas Tolimán	10	Octubre	2023-08-10T00:00:00	2024-11-08T02:00:00	5	Humedad	96
152005	7	Sololá	713	San Lucas Tolimán	10	San Lucas Tolimán	10	Octubre	2023-08-10T00:00:00	2024-11-08T02:00:00	6	Velocidad del viento	1.6
152006	7	Sololá	713	San Lucas Tolimán	10	San Lucas Tolimán	10	Octubre	2023-08-10T00:00:00	2024-11-08T02:00:00	7	Dirección del viento	1.61
152007	7	Sololá	713	San Lucas Tolimán	10	San Lucas Tolimán	10	Octubre	2023-08-10T00:00:00	2024-11-08T02:00:00	1	Precipitación	0
152008	7	Sololá	713	San Lucas Tolimán	10	San Lucas Tolimán	10	Octubre	2023-08-10T00:00:00	2024-11-08T02:00:00	8	Radiación solar	0
152009	7	Sololá	713	San Lucas Tolimán	10	San Lucas Tolimán	10	Octubre	2023-08-10T00:00:00	2024-11-08T03:00:00	2	Temperatura media	18.1
152010	7	Sololá	713	San Lucas Tolimán	10	San Lucas Tolimán	10	Octubre	2023-08-10T00:00:00	2024-11-08T03:00:00	4	Temperatura máxima	18.1
152011	7	Sololá	713	San Lucas Tolimán	10	San Lucas Tolimán	10	Octubre	2023-08-10T00:00:00	2024-11-08T03:00:00	3	Temperatura mínima	17.8
152012	7	Sololá	713	San Lucas Tolimán	10	San Lucas Tolimán	10	Octubre	2023-08-10T00:00:00	2024-11-08T03:00:00	5	Humedad	96
152013	7	Sololá	713	San Lucas Tolimán	10	San Lucas Tolimán	10	Octubre	2023-08-10T00:00:00	2024-11-08T03:00:00	6	Velocidad del viento	1.6
152014	7	Sololá	713	San Lucas Tolimán	10	San Lucas Tolimán	10	Octubre	2023-08-10T00:00:00	2024-11-08T03:00:00	7	Dirección del viento	1.61
152015	7	Sololá	713	San Lucas Tolimán	10	San Lucas Tolimán	10	Octubre	2023-08-10T00:00:00	2024-11-08T03:00:00	1	Precipitación	0
152016	7	Sololá	713	San Lucas Tolimán	10	San Lucas Tolimán	10	Octubre	2023-08-10T00:00:00	2024-11-08T03:00:00	8	Radiación solar	0
152017	7	Sololá	713	San Lucas Tolimán	10	San Lucas Tolimán	10	Octubre	2023-08-10T00:00:00	2024-11-08T04:00:00	2	Temperatura media	17.6
152018	7	Sololá	713	San Lucas Tolimán	10	San Lucas Tolimán	10	Octubre	2023-08-10T00:00:00	2024-11-08T04:00:00	4	Temperatura máxima	18.1
152019	7	Sololá	713	San Lucas Tolimán	10	San Lucas Tolimán	10	Octubre	2023-08-10T00:00:00	2024-11-08T04:00:00	3	Temperatura mínima	17.6
152020	7	Sololá	713	San Lucas Tolimán	10	San Lucas Tolimán	10	Octubre	2023-08-10T00:00:00	2024-11-08T04:00:00	5	Humedad	96
152021	7	Sololá	713	San Lucas Tolimán	10	San Lucas Tolimán	10	Octubre	2023-08-10T00:00:00	2024-11-08T04:00:00	6	Velocidad del viento	0
152022	7	Sololá	713	San Lucas Tolimán	10	San Lucas Tolimán	10	Octubre	2023-08-10T00:00:00	2024-11-08T04:00:00	7	Dirección del viento	0
152023	7	Sololá	713	San Lucas Tolimán	10	San Lucas Tolimán	10	Octubre	2023-08-10T00:00:00	2024-11-08T04:00:00	1	Precipitación	0
152024	7	Sololá	713	San Lucas Tolimán	10	San Lucas Tolimán	10	Octubre	2023-08-10T00:00:00	2024-11-08T04:00:00	8	Radiación solar	0
152025	7	Sololá	713	San Lucas Tolimán	10	San Lucas Tolimán	10	Octubre	2023-08-10T00:00:00	2024-11-08T05:00:00	2	Temperatura media	17.4
152026	7	Sololá	713	San Lucas Tolimán	10	San Lucas Tolimán	10	Octubre	2023-08-10T00:00:00	2024-11-08T05:00:00	4	Temperatura máxima	17.6
152027	7	Sololá	713	San Lucas Tolimán	10	San Lucas Tolimán	10	Octubre	2023-08-10T00:00:00	2024-11-08T05:00:00	3	Temperatura mínima	17.3
152028	7	Sololá	713	San Lucas Tolimán	10	San Lucas Tolimán	10	Octubre	2023-08-10T00:00:00	2024-11-08T05:00:00	5	Humedad	96
152029	7	Sololá	713	San Lucas Tolimán	10	San Lucas Tolimán	10	Octubre	2023-08-10T00:00:00	2024-11-08T05:00:00	6	Velocidad del viento	0
152030	7	Sololá	713	San Lucas Tolimán	10	San Lucas Tolimán	10	Octubre	2023-08-10T00:00:00	2024-11-08T05:00:00	7	Dirección del viento	0
152031	7	Sololá	713	San Lucas Tolimán	10	San Lucas Tolimán	10	Octubre	2023-08-10T00:00:00	2024-11-08T05:00:00	1	Precipitación	0
152032	7	Sololá	713	San Lucas Tolimán	10	San Lucas Tolimán	10	Octubre	2023-08-10T00:00:00	2024-11-08T05:00:00	8	Radiación solar	0
152033	7	Sololá	713	San Lucas Tolimán	10	San Lucas Tolimán	10	Octubre	2023-08-10T00:00:00	2024-11-08T06:00:00	2	Temperatura media	17.7
152034	7	Sololá	713	San Lucas Tolimán	10	San Lucas Tolimán	10	Octubre	2023-08-10T00:00:00	2024-11-08T06:00:00	4	Temperatura máxima	18
152035	7	Sololá	713	San Lucas Tolimán	10	San Lucas Tolimán	10	Octubre	2023-08-10T00:00:00	2024-11-08T06:00:00	3	Temperatura mínima	17.3
152036	7	Sololá	713	San Lucas Tolimán	10	San Lucas Tolimán	10	Octubre	2023-08-10T00:00:00	2024-11-08T06:00:00	5	Humedad	93
152037	7	Sololá	713	San Lucas Tolimán	10	San Lucas Tolimán	10	Octubre	2023-08-10T00:00:00	2024-11-08T06:00:00	6	Velocidad del viento	4.8
152038	7	Sololá	713	San Lucas Tolimán	10	San Lucas Tolimán	10	Octubre	2023-08-10T00:00:00	2024-11-08T06:00:00	7	Dirección del viento	4.83
152039	7	Sololá	713	San Lucas Tolimán	10	San Lucas Tolimán	10	Octubre	2023-08-10T00:00:00	2024-11-08T06:00:00	1	Precipitación	0
152040	7	Sololá	713	San Lucas Tolimán	10	San Lucas Tolimán	10	Octubre	2023-08-10T00:00:00	2024-11-08T06:00:00	8	Radiación solar	0
152041	7	Sololá	713	San Lucas Tolimán	10	San Lucas Tolimán	10	Octubre	2023-08-10T00:00:00	2024-11-08T07:00:00	2	Temperatura media	17.7
152042	7	Sololá	713	San Lucas Tolimán	10	San Lucas Tolimán	10	Octubre	2023-08-10T00:00:00	2024-11-08T07:00:00	4	Temperatura máxima	17.7
152043	7	Sololá	713	San Lucas Tolimán	10	San Lucas Tolimán	10	Octubre	2023-08-10T00:00:00	2024-11-08T07:00:00	3	Temperatura mínima	17.4
152044	7	Sololá	713	San Lucas Tolimán	10	San Lucas Tolimán	10	Octubre	2023-08-10T00:00:00	2024-11-08T07:00:00	5	Humedad	96
152045	7	Sololá	713	San Lucas Tolimán	10	San Lucas Tolimán	10	Octubre	2023-08-10T00:00:00	2024-11-08T07:00:00	6	Velocidad del viento	0
152046	7	Sololá	713	San Lucas Tolimán	10	San Lucas Tolimán	10	Octubre	2023-08-10T00:00:00	2024-11-08T07:00:00	7	Dirección del viento	0
152047	7	Sololá	713	San Lucas Tolimán	10	San Lucas Tolimán	10	Octubre	2023-08-10T00:00:00	2024-11-08T07:00:00	1	Precipitación	0
152048	7	Sololá	713	San Lucas Tolimán	10	San Lucas Tolimán	10	Octubre	2023-08-10T00:00:00	2024-11-08T07:00:00	8	Radiación solar	37
152049	7	Sololá	713	San Lucas Tolimán	10	San Lucas Tolimán	10	Octubre	2023-08-10T00:00:00	2024-11-08T08:00:00	2	Temperatura media	20.8
152050	7	Sololá	713	San Lucas Tolimán	10	San Lucas Tolimán	10	Octubre	2023-08-10T00:00:00	2024-11-08T08:00:00	4	Temperatura máxima	20.8
152051	7	Sololá	713	San Lucas Tolimán	10	San Lucas Tolimán	10	Octubre	2023-08-10T00:00:00	2024-11-08T08:00:00	3	Temperatura mínima	17.7
152052	7	Sololá	713	San Lucas Tolimán	10	San Lucas Tolimán	10	Octubre	2023-08-10T00:00:00	2024-11-08T08:00:00	5	Humedad	87
152053	7	Sololá	713	San Lucas Tolimán	10	San Lucas Tolimán	10	Octubre	2023-08-10T00:00:00	2024-11-08T08:00:00	6	Velocidad del viento	1.6
152054	7	Sololá	713	San Lucas Tolimán	10	San Lucas Tolimán	10	Octubre	2023-08-10T00:00:00	2024-11-08T08:00:00	7	Dirección del viento	1.61
152055	7	Sololá	713	San Lucas Tolimán	10	San Lucas Tolimán	10	Octubre	2023-08-10T00:00:00	2024-11-08T08:00:00	1	Precipitación	0
152056	7	Sololá	713	San Lucas Tolimán	10	San Lucas Tolimán	10	Octubre	2023-08-10T00:00:00	2024-11-08T08:00:00	8	Radiación solar	247
152057	7	Sololá	713	San Lucas Tolimán	10	San Lucas Tolimán	10	Octubre	2023-08-10T00:00:00	2024-11-08T09:00:00	2	Temperatura media	21.8
152058	7	Sololá	713	San Lucas Tolimán	10	San Lucas Tolimán	10	Octubre	2023-08-10T00:00:00	2024-11-08T09:00:00	4	Temperatura máxima	22.2
152059	7	Sololá	713	San Lucas Tolimán	10	San Lucas Tolimán	10	Octubre	2023-08-10T00:00:00	2024-11-08T09:00:00	3	Temperatura mínima	20.8
152060	7	Sololá	713	San Lucas Tolimán	10	San Lucas Tolimán	10	Octubre	2023-08-10T00:00:00	2024-11-08T09:00:00	5	Humedad	83
152061	7	Sololá	713	San Lucas Tolimán	10	San Lucas Tolimán	10	Octubre	2023-08-10T00:00:00	2024-11-08T09:00:00	6	Velocidad del viento	1.6
152062	7	Sololá	713	San Lucas Tolimán	10	San Lucas Tolimán	10	Octubre	2023-08-10T00:00:00	2024-11-08T09:00:00	7	Dirección del viento	1.61
152063	7	Sololá	713	San Lucas Tolimán	10	San Lucas Tolimán	10	Octubre	2023-08-10T00:00:00	2024-11-08T09:00:00	1	Precipitación	0
152064	7	Sololá	713	San Lucas Tolimán	10	San Lucas Tolimán	10	Octubre	2023-08-10T00:00:00	2024-11-08T09:00:00	8	Radiación solar	418
152065	7	Sololá	713	San Lucas Tolimán	10	San Lucas Tolimán	10	Octubre	2023-08-10T00:00:00	2024-11-08T10:00:00	2	Temperatura media	21.4
152066	7	Sololá	713	San Lucas Tolimán	10	San Lucas Tolimán	10	Octubre	2023-08-10T00:00:00	2024-11-08T10:00:00	4	Temperatura máxima	21.9
152067	7	Sololá	713	San Lucas Tolimán	10	San Lucas Tolimán	10	Octubre	2023-08-10T00:00:00	2024-11-08T10:00:00	3	Temperatura mínima	21.4
152068	7	Sololá	713	San Lucas Tolimán	10	San Lucas Tolimán	10	Octubre	2023-08-10T00:00:00	2024-11-08T10:00:00	5	Humedad	85
152069	7	Sololá	713	San Lucas Tolimán	10	San Lucas Tolimán	10	Octubre	2023-08-10T00:00:00	2024-11-08T10:00:00	6	Velocidad del viento	6.4
152070	7	Sololá	713	San Lucas Tolimán	10	San Lucas Tolimán	10	Octubre	2023-08-10T00:00:00	2024-11-08T10:00:00	7	Dirección del viento	6.44
152071	7	Sololá	713	San Lucas Tolimán	10	San Lucas Tolimán	10	Octubre	2023-08-10T00:00:00	2024-11-08T10:00:00	1	Precipitación	0
152072	7	Sololá	713	San Lucas Tolimán	10	San Lucas Tolimán	10	Octubre	2023-08-10T00:00:00	2024-11-08T10:00:00	8	Radiación solar	676
152073	7	Sololá	713	San Lucas Tolimán	10	San Lucas Tolimán	10	Octubre	2023-08-10T00:00:00	2024-11-08T11:00:00	2	Temperatura media	22.6
152074	7	Sololá	713	San Lucas Tolimán	10	San Lucas Tolimán	10	Octubre	2023-08-10T00:00:00	2024-11-08T11:00:00	4	Temperatura máxima	22.8
152075	7	Sololá	713	San Lucas Tolimán	10	San Lucas Tolimán	10	Octubre	2023-08-10T00:00:00	2024-11-08T11:00:00	3	Temperatura mínima	21.4
152076	7	Sololá	713	San Lucas Tolimán	10	San Lucas Tolimán	10	Octubre	2023-08-10T00:00:00	2024-11-08T11:00:00	5	Humedad	83
152077	7	Sololá	713	San Lucas Tolimán	10	San Lucas Tolimán	10	Octubre	2023-08-10T00:00:00	2024-11-08T11:00:00	6	Velocidad del viento	4.8
152078	7	Sololá	713	San Lucas Tolimán	10	San Lucas Tolimán	10	Octubre	2023-08-10T00:00:00	2024-11-08T11:00:00	7	Dirección del viento	4.83
152079	7	Sololá	713	San Lucas Tolimán	10	San Lucas Tolimán	10	Octubre	2023-08-10T00:00:00	2024-11-08T11:00:00	1	Precipitación	0
152080	7	Sololá	713	San Lucas Tolimán	10	San Lucas Tolimán	10	Octubre	2023-08-10T00:00:00	2024-11-08T11:00:00	8	Radiación solar	377
152081	7	Sololá	713	San Lucas Tolimán	10	San Lucas Tolimán	10	Octubre	2023-08-10T00:00:00	2024-11-08T12:00:00	2	Temperatura media	24.7
152082	7	Sololá	713	San Lucas Tolimán	10	San Lucas Tolimán	10	Octubre	2023-08-10T00:00:00	2024-11-08T12:00:00	4	Temperatura máxima	24.7
152083	7	Sololá	713	San Lucas Tolimán	10	San Lucas Tolimán	10	Octubre	2023-08-10T00:00:00	2024-11-08T12:00:00	3	Temperatura mínima	22.4
152084	7	Sololá	713	San Lucas Tolimán	10	San Lucas Tolimán	10	Octubre	2023-08-10T00:00:00	2024-11-08T12:00:00	5	Humedad	79
152085	7	Sololá	713	San Lucas Tolimán	10	San Lucas Tolimán	10	Octubre	2023-08-10T00:00:00	2024-11-08T12:00:00	6	Velocidad del viento	6.4
152086	7	Sololá	713	San Lucas Tolimán	10	San Lucas Tolimán	10	Octubre	2023-08-10T00:00:00	2024-11-08T12:00:00	7	Dirección del viento	6.44
152087	7	Sololá	713	San Lucas Tolimán	10	San Lucas Tolimán	10	Octubre	2023-08-10T00:00:00	2024-11-08T12:00:00	1	Precipitación	0
152088	7	Sololá	713	San Lucas Tolimán	10	San Lucas Tolimán	10	Octubre	2023-08-10T00:00:00	2024-11-08T12:00:00	8	Radiación solar	709
152089	7	Sololá	713	San Lucas Tolimán	10	San Lucas Tolimán	10	Octubre	2023-08-10T00:00:00	2024-11-08T13:00:00	2	Temperatura media	24.9
152090	7	Sololá	713	San Lucas Tolimán	10	San Lucas Tolimán	10	Octubre	2023-08-10T00:00:00	2024-11-08T13:00:00	4	Temperatura máxima	25
152091	7	Sololá	713	San Lucas Tolimán	10	San Lucas Tolimán	10	Octubre	2023-08-10T00:00:00	2024-11-08T13:00:00	3	Temperatura mínima	24
152092	7	Sololá	713	San Lucas Tolimán	10	San Lucas Tolimán	10	Octubre	2023-08-10T00:00:00	2024-11-08T13:00:00	5	Humedad	78
152093	7	Sololá	713	San Lucas Tolimán	10	San Lucas Tolimán	10	Octubre	2023-08-10T00:00:00	2024-11-08T13:00:00	6	Velocidad del viento	9.7
152094	7	Sololá	713	San Lucas Tolimán	10	San Lucas Tolimán	10	Octubre	2023-08-10T00:00:00	2024-11-08T13:00:00	7	Dirección del viento	9.66
152095	7	Sololá	713	San Lucas Tolimán	10	San Lucas Tolimán	10	Octubre	2023-08-10T00:00:00	2024-11-08T13:00:00	1	Precipitación	0
152096	7	Sololá	713	San Lucas Tolimán	10	San Lucas Tolimán	10	Octubre	2023-08-10T00:00:00	2024-11-08T13:00:00	8	Radiación solar	142
152097	7	Sololá	713	San Lucas Tolimán	10	San Lucas Tolimán	10	Octubre	2023-08-10T00:00:00	2024-11-08T14:00:00	2	Temperatura media	25.4
152098	7	Sololá	713	San Lucas Tolimán	10	San Lucas Tolimán	10	Octubre	2023-08-10T00:00:00	2024-11-08T14:00:00	4	Temperatura máxima	25.9
152099	7	Sololá	713	San Lucas Tolimán	10	San Lucas Tolimán	10	Octubre	2023-08-10T00:00:00	2024-11-08T14:00:00	3	Temperatura mínima	24.7
152100	7	Sololá	713	San Lucas Tolimán	10	San Lucas Tolimán	10	Octubre	2023-08-10T00:00:00	2024-11-08T14:00:00	5	Humedad	78
152101	7	Sololá	713	San Lucas Tolimán	10	San Lucas Tolimán	10	Octubre	2023-08-10T00:00:00	2024-11-08T14:00:00	6	Velocidad del viento	9.7
152102	7	Sololá	713	San Lucas Tolimán	10	San Lucas Tolimán	10	Octubre	2023-08-10T00:00:00	2024-11-08T14:00:00	7	Dirección del viento	9.66
152103	7	Sololá	713	San Lucas Tolimán	10	San Lucas Tolimán	10	Octubre	2023-08-10T00:00:00	2024-11-08T14:00:00	1	Precipitación	0
152104	7	Sololá	713	San Lucas Tolimán	10	San Lucas Tolimán	10	Octubre	2023-08-10T00:00:00	2024-11-08T14:00:00	8	Radiación solar	245
152105	7	Sololá	713	San Lucas Tolimán	10	San Lucas Tolimán	10	Octubre	2023-08-10T00:00:00	2024-11-08T15:00:00	2	Temperatura media	24
152106	7	Sololá	713	San Lucas Tolimán	10	San Lucas Tolimán	10	Octubre	2023-08-10T00:00:00	2024-11-08T15:00:00	4	Temperatura máxima	25.4
152107	7	Sololá	713	San Lucas Tolimán	10	San Lucas Tolimán	10	Octubre	2023-08-10T00:00:00	2024-11-08T15:00:00	3	Temperatura mínima	23.9
152108	7	Sololá	713	San Lucas Tolimán	10	San Lucas Tolimán	10	Octubre	2023-08-10T00:00:00	2024-11-08T15:00:00	5	Humedad	82
152109	7	Sololá	713	San Lucas Tolimán	10	San Lucas Tolimán	10	Octubre	2023-08-10T00:00:00	2024-11-08T15:00:00	6	Velocidad del viento	12.9
152110	7	Sololá	713	San Lucas Tolimán	10	San Lucas Tolimán	10	Octubre	2023-08-10T00:00:00	2024-11-08T15:00:00	7	Dirección del viento	12.87
152111	7	Sololá	713	San Lucas Tolimán	10	San Lucas Tolimán	10	Octubre	2023-08-10T00:00:00	2024-11-08T15:00:00	1	Precipitación	0
152112	7	Sololá	713	San Lucas Tolimán	10	San Lucas Tolimán	10	Octubre	2023-08-10T00:00:00	2024-11-08T15:00:00	8	Radiación solar	300
152113	7	Sololá	713	San Lucas Tolimán	10	San Lucas Tolimán	10	Octubre	2023-08-10T00:00:00	2024-11-08T16:00:00	2	Temperatura media	21.4
152114	7	Sololá	713	San Lucas Tolimán	10	San Lucas Tolimán	10	Octubre	2023-08-10T00:00:00	2024-11-08T16:00:00	4	Temperatura máxima	24.1
152115	7	Sololá	713	San Lucas Tolimán	10	San Lucas Tolimán	10	Octubre	2023-08-10T00:00:00	2024-11-08T16:00:00	3	Temperatura mínima	21.4
152116	7	Sololá	713	San Lucas Tolimán	10	San Lucas Tolimán	10	Octubre	2023-08-10T00:00:00	2024-11-08T16:00:00	5	Humedad	92
152117	7	Sololá	713	San Lucas Tolimán	10	San Lucas Tolimán	10	Octubre	2023-08-10T00:00:00	2024-11-08T16:00:00	6	Velocidad del viento	11.3
152118	7	Sololá	713	San Lucas Tolimán	10	San Lucas Tolimán	10	Octubre	2023-08-10T00:00:00	2024-11-08T16:00:00	7	Dirección del viento	11.27
152119	7	Sololá	713	San Lucas Tolimán	10	San Lucas Tolimán	10	Octubre	2023-08-10T00:00:00	2024-11-08T16:00:00	1	Precipitación	0
152120	7	Sololá	713	San Lucas Tolimán	10	San Lucas Tolimán	10	Octubre	2023-08-10T00:00:00	2024-11-08T16:00:00	8	Radiación solar	173
152121	7	Sololá	713	San Lucas Tolimán	10	San Lucas Tolimán	10	Octubre	2023-08-10T00:00:00	2024-11-08T17:00:00	2	Temperatura media	20.8
152122	7	Sololá	713	San Lucas Tolimán	10	San Lucas Tolimán	10	Octubre	2023-08-10T00:00:00	2024-11-08T17:00:00	4	Temperatura máxima	21.4
152123	7	Sololá	713	San Lucas Tolimán	10	San Lucas Tolimán	10	Octubre	2023-08-10T00:00:00	2024-11-08T17:00:00	3	Temperatura mínima	20.7
152124	7	Sololá	713	San Lucas Tolimán	10	San Lucas Tolimán	10	Octubre	2023-08-10T00:00:00	2024-11-08T17:00:00	5	Humedad	95
152125	7	Sololá	713	San Lucas Tolimán	10	San Lucas Tolimán	10	Octubre	2023-08-10T00:00:00	2024-11-08T17:00:00	6	Velocidad del viento	4.8
152126	7	Sololá	713	San Lucas Tolimán	10	San Lucas Tolimán	10	Octubre	2023-08-10T00:00:00	2024-11-08T17:00:00	7	Dirección del viento	4.83
152127	7	Sololá	713	San Lucas Tolimán	10	San Lucas Tolimán	10	Octubre	2023-08-10T00:00:00	2024-11-08T17:00:00	1	Precipitación	3.6
152128	7	Sololá	713	San Lucas Tolimán	10	San Lucas Tolimán	10	Octubre	2023-08-10T00:00:00	2024-11-08T17:00:00	8	Radiación solar	129
152129	7	Sololá	713	San Lucas Tolimán	10	San Lucas Tolimán	10	Octubre	2023-08-10T00:00:00	2024-11-08T18:00:00	2	Temperatura media	19.7
152130	7	Sololá	713	San Lucas Tolimán	10	San Lucas Tolimán	10	Octubre	2023-08-10T00:00:00	2024-11-08T18:00:00	4	Temperatura máxima	20.8
152131	7	Sololá	713	San Lucas Tolimán	10	San Lucas Tolimán	10	Octubre	2023-08-10T00:00:00	2024-11-08T18:00:00	3	Temperatura mínima	19.6
152132	7	Sololá	713	San Lucas Tolimán	10	San Lucas Tolimán	10	Octubre	2023-08-10T00:00:00	2024-11-08T18:00:00	5	Humedad	93
152133	7	Sololá	713	San Lucas Tolimán	10	San Lucas Tolimán	10	Octubre	2023-08-10T00:00:00	2024-11-08T18:00:00	6	Velocidad del viento	3.2
152134	7	Sololá	713	San Lucas Tolimán	10	San Lucas Tolimán	10	Octubre	2023-08-10T00:00:00	2024-11-08T18:00:00	7	Dirección del viento	3.22
152135	7	Sololá	713	San Lucas Tolimán	10	San Lucas Tolimán	10	Octubre	2023-08-10T00:00:00	2024-11-08T18:00:00	1	Precipitación	0.2
152136	7	Sololá	713	San Lucas Tolimán	10	San Lucas Tolimán	10	Octubre	2023-08-10T00:00:00	2024-11-08T18:00:00	8	Radiación solar	23
152137	7	Sololá	713	San Lucas Tolimán	10	San Lucas Tolimán	10	Octubre	2023-08-10T00:00:00	2024-11-08T19:00:00	2	Temperatura media	19.3
152138	7	Sololá	713	San Lucas Tolimán	10	San Lucas Tolimán	10	Octubre	2023-08-10T00:00:00	2024-11-08T19:00:00	4	Temperatura máxima	19.7
152139	7	Sololá	713	San Lucas Tolimán	10	San Lucas Tolimán	10	Octubre	2023-08-10T00:00:00	2024-11-08T19:00:00	3	Temperatura mínima	19.2
152140	7	Sololá	713	San Lucas Tolimán	10	San Lucas Tolimán	10	Octubre	2023-08-10T00:00:00	2024-11-08T19:00:00	5	Humedad	96
152141	7	Sololá	713	San Lucas Tolimán	10	San Lucas Tolimán	10	Octubre	2023-08-10T00:00:00	2024-11-08T19:00:00	6	Velocidad del viento	3.2
152142	7	Sololá	713	San Lucas Tolimán	10	San Lucas Tolimán	10	Octubre	2023-08-10T00:00:00	2024-11-08T19:00:00	7	Dirección del viento	3.22
152143	7	Sololá	713	San Lucas Tolimán	10	San Lucas Tolimán	10	Octubre	2023-08-10T00:00:00	2024-11-08T19:00:00	1	Precipitación	0
152144	7	Sololá	713	San Lucas Tolimán	10	San Lucas Tolimán	10	Octubre	2023-08-10T00:00:00	2024-11-08T19:00:00	8	Radiación solar	0
152145	7	Sololá	713	San Lucas Tolimán	10	San Lucas Tolimán	10	Octubre	2023-08-10T00:00:00	2024-11-08T20:00:00	2	Temperatura media	19.4
152146	7	Sololá	713	San Lucas Tolimán	10	San Lucas Tolimán	10	Octubre	2023-08-10T00:00:00	2024-11-08T20:00:00	4	Temperatura máxima	19.5
152147	7	Sololá	713	San Lucas Tolimán	10	San Lucas Tolimán	10	Octubre	2023-08-10T00:00:00	2024-11-08T20:00:00	3	Temperatura mínima	19.3
152148	7	Sololá	713	San Lucas Tolimán	10	San Lucas Tolimán	10	Octubre	2023-08-10T00:00:00	2024-11-08T20:00:00	5	Humedad	96
152149	7	Sololá	713	San Lucas Tolimán	10	San Lucas Tolimán	10	Octubre	2023-08-10T00:00:00	2024-11-08T20:00:00	6	Velocidad del viento	3.2
152150	7	Sololá	713	San Lucas Tolimán	10	San Lucas Tolimán	10	Octubre	2023-08-10T00:00:00	2024-11-08T20:00:00	7	Dirección del viento	3.22
152151	7	Sololá	713	San Lucas Tolimán	10	San Lucas Tolimán	10	Octubre	2023-08-10T00:00:00	2024-11-08T20:00:00	1	Precipitación	0
152152	7	Sololá	713	San Lucas Tolimán	10	San Lucas Tolimán	10	Octubre	2023-08-10T00:00:00	2024-11-08T20:00:00	8	Radiación solar	0
152153	7	Sololá	713	San Lucas Tolimán	10	San Lucas Tolimán	10	Octubre	2023-08-10T00:00:00	2024-11-08T21:00:00	2	Temperatura media	18.6
152154	7	Sololá	713	San Lucas Tolimán	10	San Lucas Tolimán	10	Octubre	2023-08-10T00:00:00	2024-11-08T21:00:00	4	Temperatura máxima	19.4
152155	7	Sololá	713	San Lucas Tolimán	10	San Lucas Tolimán	10	Octubre	2023-08-10T00:00:00	2024-11-08T21:00:00	3	Temperatura mínima	18.6
152156	7	Sololá	713	San Lucas Tolimán	10	San Lucas Tolimán	10	Octubre	2023-08-10T00:00:00	2024-11-08T21:00:00	5	Humedad	96
152157	7	Sololá	713	San Lucas Tolimán	10	San Lucas Tolimán	10	Octubre	2023-08-10T00:00:00	2024-11-08T21:00:00	6	Velocidad del viento	4.8
152158	7	Sololá	713	San Lucas Tolimán	10	San Lucas Tolimán	10	Octubre	2023-08-10T00:00:00	2024-11-08T21:00:00	7	Dirección del viento	4.83
152159	7	Sololá	713	San Lucas Tolimán	10	San Lucas Tolimán	10	Octubre	2023-08-10T00:00:00	2024-11-08T21:00:00	1	Precipitación	1.6
152160	7	Sololá	713	San Lucas Tolimán	10	San Lucas Tolimán	10	Octubre	2023-08-10T00:00:00	2024-11-08T21:00:00	8	Radiación solar	0
152161	7	Sololá	713	San Lucas Tolimán	10	San Lucas Tolimán	10	Octubre	2023-08-10T00:00:00	2024-11-08T22:00:00	2	Temperatura media	18.2
152162	7	Sololá	713	San Lucas Tolimán	10	San Lucas Tolimán	10	Octubre	2023-08-10T00:00:00	2024-11-08T22:00:00	4	Temperatura máxima	18.6
152163	7	Sololá	713	San Lucas Tolimán	10	San Lucas Tolimán	10	Octubre	2023-08-10T00:00:00	2024-11-08T22:00:00	3	Temperatura mínima	18.2
152164	7	Sololá	713	San Lucas Tolimán	10	San Lucas Tolimán	10	Octubre	2023-08-10T00:00:00	2024-11-08T22:00:00	5	Humedad	97
152165	7	Sololá	713	San Lucas Tolimán	10	San Lucas Tolimán	10	Octubre	2023-08-10T00:00:00	2024-11-08T22:00:00	6	Velocidad del viento	4.8
152166	7	Sololá	713	San Lucas Tolimán	10	San Lucas Tolimán	10	Octubre	2023-08-10T00:00:00	2024-11-08T22:00:00	7	Dirección del viento	4.83
152167	7	Sololá	713	San Lucas Tolimán	10	San Lucas Tolimán	10	Octubre	2023-08-10T00:00:00	2024-11-08T22:00:00	1	Precipitación	1.2
152168	7	Sololá	713	San Lucas Tolimán	10	San Lucas Tolimán	10	Octubre	2023-08-10T00:00:00	2024-11-08T22:00:00	8	Radiación solar	0
152169	7	Sololá	713	San Lucas Tolimán	10	San Lucas Tolimán	10	Octubre	2023-08-10T00:00:00	2024-11-08T23:00:00	2	Temperatura media	18.2
152170	7	Sololá	713	San Lucas Tolimán	10	San Lucas Tolimán	10	Octubre	2023-08-10T00:00:00	2024-11-08T23:00:00	4	Temperatura máxima	18.3
152171	7	Sololá	713	San Lucas Tolimán	10	San Lucas Tolimán	10	Octubre	2023-08-10T00:00:00	2024-11-08T23:00:00	3	Temperatura mínima	18.1
152172	7	Sololá	713	San Lucas Tolimán	10	San Lucas Tolimán	10	Octubre	2023-08-10T00:00:00	2024-11-08T23:00:00	5	Humedad	97
152173	7	Sololá	713	San Lucas Tolimán	10	San Lucas Tolimán	10	Octubre	2023-08-10T00:00:00	2024-11-08T23:00:00	6	Velocidad del viento	6.4
152174	7	Sololá	713	San Lucas Tolimán	10	San Lucas Tolimán	10	Octubre	2023-08-10T00:00:00	2024-11-08T23:00:00	7	Dirección del viento	6.44
152175	7	Sololá	713	San Lucas Tolimán	10	San Lucas Tolimán	10	Octubre	2023-08-10T00:00:00	2024-11-08T23:00:00	1	Precipitación	0.2
152176	7	Sololá	713	San Lucas Tolimán	10	San Lucas Tolimán	10	Octubre	2023-08-10T00:00:00	2024-11-08T23:00:00	8	Radiación solar	0
152177	7	Sololá	713	San Lucas Tolimán	10	San Lucas Tolimán	10	Octubre	2023-09-10T00:00:00	2024-11-08T00:00:00	2	Temperatura media	18.3
152178	7	Sololá	713	San Lucas Tolimán	10	San Lucas Tolimán	10	Octubre	2023-09-10T00:00:00	2024-11-08T00:00:00	4	Temperatura máxima	18.3
152179	7	Sololá	713	San Lucas Tolimán	10	San Lucas Tolimán	10	Octubre	2023-09-10T00:00:00	2024-11-08T00:00:00	3	Temperatura mínima	18.2
152180	7	Sololá	713	San Lucas Tolimán	10	San Lucas Tolimán	10	Octubre	2023-09-10T00:00:00	2024-11-08T00:00:00	5	Humedad	96
152181	7	Sololá	713	San Lucas Tolimán	10	San Lucas Tolimán	10	Octubre	2023-09-10T00:00:00	2024-11-08T00:00:00	6	Velocidad del viento	4.8
152182	7	Sololá	713	San Lucas Tolimán	10	San Lucas Tolimán	10	Octubre	2023-09-10T00:00:00	2024-11-08T00:00:00	7	Dirección del viento	4.83
152183	7	Sololá	713	San Lucas Tolimán	10	San Lucas Tolimán	10	Octubre	2023-09-10T00:00:00	2024-11-08T00:00:00	1	Precipitación	0.6
152184	7	Sololá	713	San Lucas Tolimán	10	San Lucas Tolimán	10	Octubre	2023-09-10T00:00:00	2024-11-08T00:00:00	8	Radiación solar	0
152185	7	Sololá	713	San Lucas Tolimán	10	San Lucas Tolimán	10	Octubre	2023-09-10T00:00:00	2024-11-08T01:00:00	2	Temperatura media	18.2
152186	7	Sololá	713	San Lucas Tolimán	10	San Lucas Tolimán	10	Octubre	2023-09-10T00:00:00	2024-11-08T01:00:00	4	Temperatura máxima	18.3
152187	7	Sololá	713	San Lucas Tolimán	10	San Lucas Tolimán	10	Octubre	2023-09-10T00:00:00	2024-11-08T01:00:00	3	Temperatura mínima	18.1
152188	7	Sololá	713	San Lucas Tolimán	10	San Lucas Tolimán	10	Octubre	2023-09-10T00:00:00	2024-11-08T01:00:00	5	Humedad	96
152189	7	Sololá	713	San Lucas Tolimán	10	San Lucas Tolimán	10	Octubre	2023-09-10T00:00:00	2024-11-08T01:00:00	6	Velocidad del viento	1.6
152190	7	Sololá	713	San Lucas Tolimán	10	San Lucas Tolimán	10	Octubre	2023-09-10T00:00:00	2024-11-08T01:00:00	7	Dirección del viento	1.61
152191	7	Sololá	713	San Lucas Tolimán	10	San Lucas Tolimán	10	Octubre	2023-09-10T00:00:00	2024-11-08T01:00:00	1	Precipitación	0
152192	7	Sololá	713	San Lucas Tolimán	10	San Lucas Tolimán	10	Octubre	2023-09-10T00:00:00	2024-11-08T01:00:00	8	Radiación solar	0
152193	7	Sololá	713	San Lucas Tolimán	10	San Lucas Tolimán	10	Octubre	2023-09-10T00:00:00	2024-11-08T02:00:00	2	Temperatura media	18.1
152194	7	Sololá	713	San Lucas Tolimán	10	San Lucas Tolimán	10	Octubre	2023-09-10T00:00:00	2024-11-08T02:00:00	4	Temperatura máxima	18.2
152195	7	Sololá	713	San Lucas Tolimán	10	San Lucas Tolimán	10	Octubre	2023-09-10T00:00:00	2024-11-08T02:00:00	3	Temperatura mínima	18
152196	7	Sololá	713	San Lucas Tolimán	10	San Lucas Tolimán	10	Octubre	2023-09-10T00:00:00	2024-11-08T02:00:00	5	Humedad	96
152197	7	Sololá	713	San Lucas Tolimán	10	San Lucas Tolimán	10	Octubre	2023-09-10T00:00:00	2024-11-08T02:00:00	6	Velocidad del viento	1.6
152198	7	Sololá	713	San Lucas Tolimán	10	San Lucas Tolimán	10	Octubre	2023-09-10T00:00:00	2024-11-08T02:00:00	7	Dirección del viento	1.61
152199	7	Sololá	713	San Lucas Tolimán	10	San Lucas Tolimán	10	Octubre	2023-09-10T00:00:00	2024-11-08T02:00:00	1	Precipitación	0
152200	7	Sololá	713	San Lucas Tolimán	10	San Lucas Tolimán	10	Octubre	2023-09-10T00:00:00	2024-11-08T02:00:00	8	Radiación solar	0
152201	7	Sololá	713	San Lucas Tolimán	10	San Lucas Tolimán	10	Octubre	2023-09-10T00:00:00	2024-11-08T03:00:00	2	Temperatura media	17.7
152202	7	Sololá	713	San Lucas Tolimán	10	San Lucas Tolimán	10	Octubre	2023-09-10T00:00:00	2024-11-08T03:00:00	4	Temperatura máxima	18.1
152203	7	Sololá	713	San Lucas Tolimán	10	San Lucas Tolimán	10	Octubre	2023-09-10T00:00:00	2024-11-08T03:00:00	3	Temperatura mínima	17.7
152204	7	Sololá	713	San Lucas Tolimán	10	San Lucas Tolimán	10	Octubre	2023-09-10T00:00:00	2024-11-08T03:00:00	5	Humedad	96
152205	7	Sololá	713	San Lucas Tolimán	10	San Lucas Tolimán	10	Octubre	2023-09-10T00:00:00	2024-11-08T03:00:00	6	Velocidad del viento	0
152206	7	Sololá	713	San Lucas Tolimán	10	San Lucas Tolimán	10	Octubre	2023-09-10T00:00:00	2024-11-08T03:00:00	7	Dirección del viento	0
152207	7	Sololá	713	San Lucas Tolimán	10	San Lucas Tolimán	10	Octubre	2023-09-10T00:00:00	2024-11-08T03:00:00	1	Precipitación	0
152208	7	Sololá	713	San Lucas Tolimán	10	San Lucas Tolimán	10	Octubre	2023-09-10T00:00:00	2024-11-08T03:00:00	8	Radiación solar	0
152209	7	Sololá	713	San Lucas Tolimán	10	San Lucas Tolimán	10	Octubre	2023-09-10T00:00:00	2024-11-08T04:00:00	2	Temperatura media	17.6
152210	7	Sololá	713	San Lucas Tolimán	10	San Lucas Tolimán	10	Octubre	2023-09-10T00:00:00	2024-11-08T04:00:00	4	Temperatura máxima	17.7
152211	7	Sololá	713	San Lucas Tolimán	10	San Lucas Tolimán	10	Octubre	2023-09-10T00:00:00	2024-11-08T04:00:00	3	Temperatura mínima	17.6
152212	7	Sololá	713	San Lucas Tolimán	10	San Lucas Tolimán	10	Octubre	2023-09-10T00:00:00	2024-11-08T04:00:00	5	Humedad	96
152213	7	Sololá	713	San Lucas Tolimán	10	San Lucas Tolimán	10	Octubre	2023-09-10T00:00:00	2024-11-08T04:00:00	6	Velocidad del viento	1.6
152214	7	Sololá	713	San Lucas Tolimán	10	San Lucas Tolimán	10	Octubre	2023-09-10T00:00:00	2024-11-08T04:00:00	7	Dirección del viento	1.61
152215	7	Sololá	713	San Lucas Tolimán	10	San Lucas Tolimán	10	Octubre	2023-09-10T00:00:00	2024-11-08T04:00:00	1	Precipitación	0
152216	7	Sololá	713	San Lucas Tolimán	10	San Lucas Tolimán	10	Octubre	2023-09-10T00:00:00	2024-11-08T04:00:00	8	Radiación solar	0
152217	7	Sololá	713	San Lucas Tolimán	10	San Lucas Tolimán	10	Octubre	2023-09-10T00:00:00	2024-11-08T05:00:00	2	Temperatura media	17.7
152218	7	Sololá	713	San Lucas Tolimán	10	San Lucas Tolimán	10	Octubre	2023-09-10T00:00:00	2024-11-08T05:00:00	4	Temperatura máxima	17.7
152219	7	Sololá	713	San Lucas Tolimán	10	San Lucas Tolimán	10	Octubre	2023-09-10T00:00:00	2024-11-08T05:00:00	3	Temperatura mínima	17.3
152220	7	Sololá	713	San Lucas Tolimán	10	San Lucas Tolimán	10	Octubre	2023-09-10T00:00:00	2024-11-08T05:00:00	5	Humedad	94
152221	7	Sololá	713	San Lucas Tolimán	10	San Lucas Tolimán	10	Octubre	2023-09-10T00:00:00	2024-11-08T05:00:00	6	Velocidad del viento	3.2
152222	7	Sololá	713	San Lucas Tolimán	10	San Lucas Tolimán	10	Octubre	2023-09-10T00:00:00	2024-11-08T05:00:00	7	Dirección del viento	3.22
152223	7	Sololá	713	San Lucas Tolimán	10	San Lucas Tolimán	10	Octubre	2023-09-10T00:00:00	2024-11-08T05:00:00	1	Precipitación	0
152224	7	Sololá	713	San Lucas Tolimán	10	San Lucas Tolimán	10	Octubre	2023-09-10T00:00:00	2024-11-08T05:00:00	8	Radiación solar	0
152225	7	Sololá	713	San Lucas Tolimán	10	San Lucas Tolimán	10	Octubre	2023-09-10T00:00:00	2024-11-08T06:00:00	2	Temperatura media	17.7
152226	7	Sololá	713	San Lucas Tolimán	10	San Lucas Tolimán	10	Octubre	2023-09-10T00:00:00	2024-11-08T06:00:00	4	Temperatura máxima	17.7
152227	7	Sololá	713	San Lucas Tolimán	10	San Lucas Tolimán	10	Octubre	2023-09-10T00:00:00	2024-11-08T06:00:00	3	Temperatura mínima	17.5
152228	7	Sololá	713	San Lucas Tolimán	10	San Lucas Tolimán	10	Octubre	2023-09-10T00:00:00	2024-11-08T06:00:00	5	Humedad	95
152229	7	Sololá	713	San Lucas Tolimán	10	San Lucas Tolimán	10	Octubre	2023-09-10T00:00:00	2024-11-08T06:00:00	6	Velocidad del viento	3.2
152230	7	Sololá	713	San Lucas Tolimán	10	San Lucas Tolimán	10	Octubre	2023-09-10T00:00:00	2024-11-08T06:00:00	7	Dirección del viento	3.22
152231	7	Sololá	713	San Lucas Tolimán	10	San Lucas Tolimán	10	Octubre	2023-09-10T00:00:00	2024-11-08T06:00:00	1	Precipitación	0
152232	7	Sololá	713	San Lucas Tolimán	10	San Lucas Tolimán	10	Octubre	2023-09-10T00:00:00	2024-11-08T06:00:00	8	Radiación solar	0
152233	7	Sololá	713	San Lucas Tolimán	10	San Lucas Tolimán	10	Octubre	2023-09-10T00:00:00	2024-11-08T07:00:00	2	Temperatura media	17.9
152234	7	Sololá	713	San Lucas Tolimán	10	San Lucas Tolimán	10	Octubre	2023-09-10T00:00:00	2024-11-08T07:00:00	4	Temperatura máxima	17.9
152235	7	Sololá	713	San Lucas Tolimán	10	San Lucas Tolimán	10	Octubre	2023-09-10T00:00:00	2024-11-08T07:00:00	3	Temperatura mínima	17.7
152236	7	Sololá	713	San Lucas Tolimán	10	San Lucas Tolimán	10	Octubre	2023-09-10T00:00:00	2024-11-08T07:00:00	5	Humedad	95
152237	7	Sololá	713	San Lucas Tolimán	10	San Lucas Tolimán	10	Octubre	2023-09-10T00:00:00	2024-11-08T07:00:00	6	Velocidad del viento	4.8
152238	7	Sololá	713	San Lucas Tolimán	10	San Lucas Tolimán	10	Octubre	2023-09-10T00:00:00	2024-11-08T07:00:00	7	Dirección del viento	4.83
152239	7	Sololá	713	San Lucas Tolimán	10	San Lucas Tolimán	10	Octubre	2023-09-10T00:00:00	2024-11-08T07:00:00	1	Precipitación	0
152240	7	Sololá	713	San Lucas Tolimán	10	San Lucas Tolimán	10	Octubre	2023-09-10T00:00:00	2024-11-08T07:00:00	8	Radiación solar	62
152241	7	Sololá	713	San Lucas Tolimán	10	San Lucas Tolimán	10	Octubre	2023-09-10T00:00:00	2024-11-08T08:00:00	2	Temperatura media	19.5
152242	7	Sololá	713	San Lucas Tolimán	10	San Lucas Tolimán	10	Octubre	2023-09-10T00:00:00	2024-11-08T08:00:00	4	Temperatura máxima	19.5
152243	7	Sololá	713	San Lucas Tolimán	10	San Lucas Tolimán	10	Octubre	2023-09-10T00:00:00	2024-11-08T08:00:00	3	Temperatura mínima	17.9
152244	7	Sololá	713	San Lucas Tolimán	10	San Lucas Tolimán	10	Octubre	2023-09-10T00:00:00	2024-11-08T08:00:00	5	Humedad	91
152245	7	Sololá	713	San Lucas Tolimán	10	San Lucas Tolimán	10	Octubre	2023-09-10T00:00:00	2024-11-08T08:00:00	6	Velocidad del viento	3.2
152246	7	Sololá	713	San Lucas Tolimán	10	San Lucas Tolimán	10	Octubre	2023-09-10T00:00:00	2024-11-08T08:00:00	7	Dirección del viento	3.22
152247	7	Sololá	713	San Lucas Tolimán	10	San Lucas Tolimán	10	Octubre	2023-09-10T00:00:00	2024-11-08T08:00:00	1	Precipitación	0
152248	7	Sololá	713	San Lucas Tolimán	10	San Lucas Tolimán	10	Octubre	2023-09-10T00:00:00	2024-11-08T08:00:00	8	Radiación solar	209
152249	7	Sololá	713	San Lucas Tolimán	10	San Lucas Tolimán	10	Octubre	2023-09-10T00:00:00	2024-11-08T09:00:00	2	Temperatura media	21.4
152250	7	Sololá	713	San Lucas Tolimán	10	San Lucas Tolimán	10	Octubre	2023-09-10T00:00:00	2024-11-08T09:00:00	4	Temperatura máxima	21.4
152251	7	Sololá	713	San Lucas Tolimán	10	San Lucas Tolimán	10	Octubre	2023-09-10T00:00:00	2024-11-08T09:00:00	3	Temperatura mínima	19.4
152252	7	Sololá	713	San Lucas Tolimán	10	San Lucas Tolimán	10	Octubre	2023-09-10T00:00:00	2024-11-08T09:00:00	5	Humedad	59
152253	7	Sololá	713	San Lucas Tolimán	10	San Lucas Tolimán	10	Octubre	2023-09-10T00:00:00	2024-11-08T09:00:00	6	Velocidad del viento	3.2
152254	7	Sololá	713	San Lucas Tolimán	10	San Lucas Tolimán	10	Octubre	2023-09-10T00:00:00	2024-11-08T09:00:00	7	Dirección del viento	3.22
152255	7	Sololá	713	San Lucas Tolimán	10	San Lucas Tolimán	10	Octubre	2023-09-10T00:00:00	2024-11-08T09:00:00	1	Precipitación	0
152256	7	Sololá	713	San Lucas Tolimán	10	San Lucas Tolimán	10	Octubre	2023-09-10T00:00:00	2024-11-08T09:00:00	8	Radiación solar	499
152257	7	Sololá	713	San Lucas Tolimán	10	San Lucas Tolimán	10	Octubre	2023-09-10T00:00:00	2024-11-08T10:00:00	2	Temperatura media	22.6
152258	7	Sololá	713	San Lucas Tolimán	10	San Lucas Tolimán	10	Octubre	2023-09-10T00:00:00	2024-11-08T10:00:00	4	Temperatura máxima	22.6
152259	7	Sololá	713	San Lucas Tolimán	10	San Lucas Tolimán	10	Octubre	2023-09-10T00:00:00	2024-11-08T10:00:00	3	Temperatura mínima	21.4
152260	7	Sololá	713	San Lucas Tolimán	10	San Lucas Tolimán	10	Octubre	2023-09-10T00:00:00	2024-11-08T10:00:00	5	Humedad	52
152261	7	Sololá	713	San Lucas Tolimán	10	San Lucas Tolimán	10	Octubre	2023-09-10T00:00:00	2024-11-08T10:00:00	6	Velocidad del viento	8
152262	7	Sololá	713	San Lucas Tolimán	10	San Lucas Tolimán	10	Octubre	2023-09-10T00:00:00	2024-11-08T10:00:00	7	Dirección del viento	8.05
152263	7	Sololá	713	San Lucas Tolimán	10	San Lucas Tolimán	10	Octubre	2023-09-10T00:00:00	2024-11-08T10:00:00	1	Precipitación	0
152264	7	Sololá	713	San Lucas Tolimán	10	San Lucas Tolimán	10	Octubre	2023-09-10T00:00:00	2024-11-08T10:00:00	8	Radiación solar	656
152265	7	Sololá	713	San Lucas Tolimán	10	San Lucas Tolimán	10	Octubre	2023-09-10T00:00:00	2024-11-08T11:00:00	2	Temperatura media	24.7
152266	7	Sololá	713	San Lucas Tolimán	10	San Lucas Tolimán	10	Octubre	2023-09-10T00:00:00	2024-11-08T11:00:00	4	Temperatura máxima	24.7
152267	7	Sololá	713	San Lucas Tolimán	10	San Lucas Tolimán	10	Octubre	2023-09-10T00:00:00	2024-11-08T11:00:00	3	Temperatura mínima	22.5
152268	7	Sololá	713	San Lucas Tolimán	10	San Lucas Tolimán	10	Octubre	2023-09-10T00:00:00	2024-11-08T11:00:00	5	Humedad	54
152269	7	Sololá	713	San Lucas Tolimán	10	San Lucas Tolimán	10	Octubre	2023-09-10T00:00:00	2024-11-08T11:00:00	6	Velocidad del viento	8
152270	7	Sololá	713	San Lucas Tolimán	10	San Lucas Tolimán	10	Octubre	2023-09-10T00:00:00	2024-11-08T11:00:00	7	Dirección del viento	8.05
152271	7	Sololá	713	San Lucas Tolimán	10	San Lucas Tolimán	10	Octubre	2023-09-10T00:00:00	2024-11-08T11:00:00	1	Precipitación	0
152272	7	Sololá	713	San Lucas Tolimán	10	San Lucas Tolimán	10	Octubre	2023-09-10T00:00:00	2024-11-08T11:00:00	8	Radiación solar	989
152273	7	Sololá	713	San Lucas Tolimán	10	San Lucas Tolimán	10	Octubre	2023-09-10T00:00:00	2024-11-08T12:00:00	2	Temperatura media	21.6
152274	7	Sololá	713	San Lucas Tolimán	10	San Lucas Tolimán	10	Octubre	2023-09-10T00:00:00	2024-11-08T12:00:00	4	Temperatura máxima	24.9
152275	7	Sololá	713	San Lucas Tolimán	10	San Lucas Tolimán	10	Octubre	2023-09-10T00:00:00	2024-11-08T12:00:00	3	Temperatura mínima	21.6
152276	7	Sololá	713	San Lucas Tolimán	10	San Lucas Tolimán	10	Octubre	2023-09-10T00:00:00	2024-11-08T12:00:00	5	Humedad	62
152277	7	Sololá	713	San Lucas Tolimán	10	San Lucas Tolimán	10	Octubre	2023-09-10T00:00:00	2024-11-08T12:00:00	6	Velocidad del viento	12.9
152278	7	Sololá	713	San Lucas Tolimán	10	San Lucas Tolimán	10	Octubre	2023-09-10T00:00:00	2024-11-08T12:00:00	7	Dirección del viento	12.87
152279	7	Sololá	713	San Lucas Tolimán	10	San Lucas Tolimán	10	Octubre	2023-09-10T00:00:00	2024-11-08T12:00:00	1	Precipitación	0
152280	7	Sololá	713	San Lucas Tolimán	10	San Lucas Tolimán	10	Octubre	2023-09-10T00:00:00	2024-11-08T12:00:00	8	Radiación solar	558
152281	7	Sololá	713	San Lucas Tolimán	10	San Lucas Tolimán	10	Octubre	2023-09-10T00:00:00	2024-11-08T13:00:00	2	Temperatura media	20.3
152282	7	Sololá	713	San Lucas Tolimán	10	San Lucas Tolimán	10	Octubre	2023-09-10T00:00:00	2024-11-08T13:00:00	4	Temperatura máxima	21.6
152283	7	Sololá	713	San Lucas Tolimán	10	San Lucas Tolimán	10	Octubre	2023-09-10T00:00:00	2024-11-08T13:00:00	3	Temperatura mínima	20.3
152284	7	Sololá	713	San Lucas Tolimán	10	San Lucas Tolimán	10	Octubre	2023-09-10T00:00:00	2024-11-08T13:00:00	5	Humedad	65
152285	7	Sololá	713	San Lucas Tolimán	10	San Lucas Tolimán	10	Octubre	2023-09-10T00:00:00	2024-11-08T13:00:00	6	Velocidad del viento	11.3
152286	7	Sololá	713	San Lucas Tolimán	10	San Lucas Tolimán	10	Octubre	2023-09-10T00:00:00	2024-11-08T13:00:00	7	Dirección del viento	11.27
152287	7	Sololá	713	San Lucas Tolimán	10	San Lucas Tolimán	10	Octubre	2023-09-10T00:00:00	2024-11-08T13:00:00	1	Precipitación	0
152288	7	Sololá	713	San Lucas Tolimán	10	San Lucas Tolimán	10	Octubre	2023-09-10T00:00:00	2024-11-08T13:00:00	8	Radiación solar	178
152289	7	Sololá	713	San Lucas Tolimán	10	San Lucas Tolimán	10	Octubre	2023-09-10T00:00:00	2024-11-08T14:00:00	2	Temperatura media	19.9
152290	7	Sololá	713	San Lucas Tolimán	10	San Lucas Tolimán	10	Octubre	2023-09-10T00:00:00	2024-11-08T14:00:00	4	Temperatura máxima	20.4
152291	7	Sololá	713	San Lucas Tolimán	10	San Lucas Tolimán	10	Octubre	2023-09-10T00:00:00	2024-11-08T14:00:00	3	Temperatura mínima	19.8
152292	7	Sololá	713	San Lucas Tolimán	10	San Lucas Tolimán	10	Octubre	2023-09-10T00:00:00	2024-11-08T14:00:00	5	Humedad	65
152293	7	Sololá	713	San Lucas Tolimán	10	San Lucas Tolimán	10	Octubre	2023-09-10T00:00:00	2024-11-08T14:00:00	6	Velocidad del viento	8
152294	7	Sololá	713	San Lucas Tolimán	10	San Lucas Tolimán	10	Octubre	2023-09-10T00:00:00	2024-11-08T14:00:00	7	Dirección del viento	8.05
152295	7	Sololá	713	San Lucas Tolimán	10	San Lucas Tolimán	10	Octubre	2023-09-10T00:00:00	2024-11-08T14:00:00	1	Precipitación	0
152296	7	Sololá	713	San Lucas Tolimán	10	San Lucas Tolimán	10	Octubre	2023-09-10T00:00:00	2024-11-08T14:00:00	8	Radiación solar	67
152297	7	Sololá	713	San Lucas Tolimán	10	San Lucas Tolimán	10	Octubre	2023-09-10T00:00:00	2024-11-08T15:00:00	2	Temperatura media	18.4
152298	7	Sololá	713	San Lucas Tolimán	10	San Lucas Tolimán	10	Octubre	2023-09-10T00:00:00	2024-11-08T15:00:00	4	Temperatura máxima	19.9
152299	7	Sololá	713	San Lucas Tolimán	10	San Lucas Tolimán	10	Octubre	2023-09-10T00:00:00	2024-11-08T15:00:00	3	Temperatura mínima	18.4
152300	7	Sololá	713	San Lucas Tolimán	10	San Lucas Tolimán	10	Octubre	2023-09-10T00:00:00	2024-11-08T15:00:00	5	Humedad	65
152301	7	Sololá	713	San Lucas Tolimán	10	San Lucas Tolimán	10	Octubre	2023-09-10T00:00:00	2024-11-08T15:00:00	6	Velocidad del viento	8
152302	7	Sololá	713	San Lucas Tolimán	10	San Lucas Tolimán	10	Octubre	2023-09-10T00:00:00	2024-11-08T15:00:00	7	Dirección del viento	8.05
152303	7	Sololá	713	San Lucas Tolimán	10	San Lucas Tolimán	10	Octubre	2023-09-10T00:00:00	2024-11-08T15:00:00	1	Precipitación	11
152304	7	Sololá	713	San Lucas Tolimán	10	San Lucas Tolimán	10	Octubre	2023-09-10T00:00:00	2024-11-08T15:00:00	8	Radiación solar	22
152305	7	Sololá	713	San Lucas Tolimán	10	San Lucas Tolimán	10	Octubre	2023-09-10T00:00:00	2024-11-08T16:00:00	2	Temperatura media	17.8
152306	7	Sololá	713	San Lucas Tolimán	10	San Lucas Tolimán	10	Octubre	2023-09-10T00:00:00	2024-11-08T16:00:00	4	Temperatura máxima	18.4
152307	7	Sololá	713	San Lucas Tolimán	10	San Lucas Tolimán	10	Octubre	2023-09-10T00:00:00	2024-11-08T16:00:00	3	Temperatura mínima	17.7
152308	7	Sololá	713	San Lucas Tolimán	10	San Lucas Tolimán	10	Octubre	2023-09-10T00:00:00	2024-11-08T16:00:00	5	Humedad	67
152309	7	Sololá	713	San Lucas Tolimán	10	San Lucas Tolimán	10	Octubre	2023-09-10T00:00:00	2024-11-08T16:00:00	6	Velocidad del viento	6.4
152310	7	Sololá	713	San Lucas Tolimán	10	San Lucas Tolimán	10	Octubre	2023-09-10T00:00:00	2024-11-08T16:00:00	7	Dirección del viento	6.44
152311	7	Sololá	713	San Lucas Tolimán	10	San Lucas Tolimán	10	Octubre	2023-09-10T00:00:00	2024-11-08T16:00:00	1	Precipitación	15.4
152312	7	Sololá	713	San Lucas Tolimán	10	San Lucas Tolimán	10	Octubre	2023-09-10T00:00:00	2024-11-08T16:00:00	8	Radiación solar	12
152313	7	Sololá	713	San Lucas Tolimán	10	San Lucas Tolimán	10	Octubre	2023-09-10T00:00:00	2024-11-08T17:00:00	2	Temperatura media	18.1
152314	7	Sololá	713	San Lucas Tolimán	10	San Lucas Tolimán	10	Octubre	2023-09-10T00:00:00	2024-11-08T17:00:00	4	Temperatura máxima	18.2
152315	7	Sololá	713	San Lucas Tolimán	10	San Lucas Tolimán	10	Octubre	2023-09-10T00:00:00	2024-11-08T17:00:00	3	Temperatura mínima	17.8
152316	7	Sololá	713	San Lucas Tolimán	10	San Lucas Tolimán	10	Octubre	2023-09-10T00:00:00	2024-11-08T17:00:00	5	Humedad	67
152317	7	Sololá	713	San Lucas Tolimán	10	San Lucas Tolimán	10	Octubre	2023-09-10T00:00:00	2024-11-08T17:00:00	6	Velocidad del viento	3.2
152318	7	Sololá	713	San Lucas Tolimán	10	San Lucas Tolimán	10	Octubre	2023-09-10T00:00:00	2024-11-08T17:00:00	7	Dirección del viento	3.22
152319	7	Sololá	713	San Lucas Tolimán	10	San Lucas Tolimán	10	Octubre	2023-09-10T00:00:00	2024-11-08T17:00:00	1	Precipitación	0.6
152320	7	Sololá	713	San Lucas Tolimán	10	San Lucas Tolimán	10	Octubre	2023-09-10T00:00:00	2024-11-08T17:00:00	8	Radiación solar	36
152321	7	Sololá	713	San Lucas Tolimán	10	San Lucas Tolimán	10	Octubre	2023-09-10T00:00:00	2024-11-08T18:00:00	2	Temperatura media	18.2
152322	7	Sololá	713	San Lucas Tolimán	10	San Lucas Tolimán	10	Octubre	2023-09-10T00:00:00	2024-11-08T18:00:00	4	Temperatura máxima	18.2
152323	7	Sololá	713	San Lucas Tolimán	10	San Lucas Tolimán	10	Octubre	2023-09-10T00:00:00	2024-11-08T18:00:00	3	Temperatura mínima	18.1
152324	7	Sololá	713	San Lucas Tolimán	10	San Lucas Tolimán	10	Octubre	2023-09-10T00:00:00	2024-11-08T18:00:00	5	Humedad	67
152325	7	Sololá	713	San Lucas Tolimán	10	San Lucas Tolimán	10	Octubre	2023-09-10T00:00:00	2024-11-08T18:00:00	6	Velocidad del viento	1.6
152326	7	Sololá	713	San Lucas Tolimán	10	San Lucas Tolimán	10	Octubre	2023-09-10T00:00:00	2024-11-08T18:00:00	7	Dirección del viento	1.61
152327	7	Sololá	713	San Lucas Tolimán	10	San Lucas Tolimán	10	Octubre	2023-09-10T00:00:00	2024-11-08T18:00:00	1	Precipitación	0
152328	7	Sololá	713	San Lucas Tolimán	10	San Lucas Tolimán	10	Octubre	2023-09-10T00:00:00	2024-11-08T18:00:00	8	Radiación solar	16
152329	7	Sololá	713	San Lucas Tolimán	10	San Lucas Tolimán	10	Octubre	2023-09-10T00:00:00	2024-11-08T19:00:00	2	Temperatura media	18.2
152330	7	Sololá	713	San Lucas Tolimán	10	San Lucas Tolimán	10	Octubre	2023-09-10T00:00:00	2024-11-08T19:00:00	4	Temperatura máxima	18.2
152331	7	Sololá	713	San Lucas Tolimán	10	San Lucas Tolimán	10	Octubre	2023-09-10T00:00:00	2024-11-08T19:00:00	3	Temperatura mínima	18.1
152332	7	Sololá	713	San Lucas Tolimán	10	San Lucas Tolimán	10	Octubre	2023-09-10T00:00:00	2024-11-08T19:00:00	5	Humedad	67
152333	7	Sololá	713	San Lucas Tolimán	10	San Lucas Tolimán	10	Octubre	2023-09-10T00:00:00	2024-11-08T19:00:00	6	Velocidad del viento	1.6
152334	7	Sololá	713	San Lucas Tolimán	10	San Lucas Tolimán	10	Octubre	2023-09-10T00:00:00	2024-11-08T19:00:00	7	Dirección del viento	1.61
152335	7	Sololá	713	San Lucas Tolimán	10	San Lucas Tolimán	10	Octubre	2023-09-10T00:00:00	2024-11-08T19:00:00	1	Precipitación	0.6
152336	7	Sololá	713	San Lucas Tolimán	10	San Lucas Tolimán	10	Octubre	2023-09-10T00:00:00	2024-11-08T19:00:00	8	Radiación solar	0
152337	7	Sololá	713	San Lucas Tolimán	10	San Lucas Tolimán	10	Octubre	2023-09-10T00:00:00	2024-11-08T20:00:00	2	Temperatura media	18.1
152338	7	Sololá	713	San Lucas Tolimán	10	San Lucas Tolimán	10	Octubre	2023-09-10T00:00:00	2024-11-08T20:00:00	4	Temperatura máxima	18.2
152339	7	Sololá	713	San Lucas Tolimán	10	San Lucas Tolimán	10	Octubre	2023-09-10T00:00:00	2024-11-08T20:00:00	3	Temperatura mínima	18.1
152340	7	Sololá	713	San Lucas Tolimán	10	San Lucas Tolimán	10	Octubre	2023-09-10T00:00:00	2024-11-08T20:00:00	5	Humedad	97
152341	7	Sololá	713	San Lucas Tolimán	10	San Lucas Tolimán	10	Octubre	2023-09-10T00:00:00	2024-11-08T20:00:00	6	Velocidad del viento	1.6
152342	7	Sololá	713	San Lucas Tolimán	10	San Lucas Tolimán	10	Octubre	2023-09-10T00:00:00	2024-11-08T20:00:00	7	Dirección del viento	1.61
152343	7	Sololá	713	San Lucas Tolimán	10	San Lucas Tolimán	10	Octubre	2023-09-10T00:00:00	2024-11-08T20:00:00	1	Precipitación	0
152344	7	Sololá	713	San Lucas Tolimán	10	San Lucas Tolimán	10	Octubre	2023-09-10T00:00:00	2024-11-08T20:00:00	8	Radiación solar	0
152345	7	Sololá	713	San Lucas Tolimán	10	San Lucas Tolimán	10	Octubre	2023-09-10T00:00:00	2024-11-08T21:00:00	2	Temperatura media	17.7
152346	7	Sololá	713	San Lucas Tolimán	10	San Lucas Tolimán	10	Octubre	2023-09-10T00:00:00	2024-11-08T21:00:00	4	Temperatura máxima	18.1
152347	7	Sololá	713	San Lucas Tolimán	10	San Lucas Tolimán	10	Octubre	2023-09-10T00:00:00	2024-11-08T21:00:00	3	Temperatura mínima	17.7
152348	7	Sololá	713	San Lucas Tolimán	10	San Lucas Tolimán	10	Octubre	2023-09-10T00:00:00	2024-11-08T21:00:00	5	Humedad	97
152349	7	Sololá	713	San Lucas Tolimán	10	San Lucas Tolimán	10	Octubre	2023-09-10T00:00:00	2024-11-08T21:00:00	6	Velocidad del viento	1.6
152350	7	Sololá	713	San Lucas Tolimán	10	San Lucas Tolimán	10	Octubre	2023-09-10T00:00:00	2024-11-08T21:00:00	7	Dirección del viento	1.61
152351	7	Sololá	713	San Lucas Tolimán	10	San Lucas Tolimán	10	Octubre	2023-09-10T00:00:00	2024-11-08T21:00:00	1	Precipitación	0
152352	7	Sololá	713	San Lucas Tolimán	10	San Lucas Tolimán	10	Octubre	2023-09-10T00:00:00	2024-11-08T21:00:00	8	Radiación solar	0
152353	7	Sololá	713	San Lucas Tolimán	10	San Lucas Tolimán	10	Octubre	2023-09-10T00:00:00	2024-11-08T22:00:00	2	Temperatura media	17.6
152354	7	Sololá	713	San Lucas Tolimán	10	San Lucas Tolimán	10	Octubre	2023-09-10T00:00:00	2024-11-08T22:00:00	4	Temperatura máxima	17.8
152355	7	Sololá	713	San Lucas Tolimán	10	San Lucas Tolimán	10	Octubre	2023-09-10T00:00:00	2024-11-08T22:00:00	3	Temperatura mínima	17.4
152356	7	Sololá	713	San Lucas Tolimán	10	San Lucas Tolimán	10	Octubre	2023-09-10T00:00:00	2024-11-08T22:00:00	5	Humedad	96
152357	7	Sololá	713	San Lucas Tolimán	10	San Lucas Tolimán	10	Octubre	2023-09-10T00:00:00	2024-11-08T22:00:00	6	Velocidad del viento	6.4
152358	7	Sololá	713	San Lucas Tolimán	10	San Lucas Tolimán	10	Octubre	2023-09-10T00:00:00	2024-11-08T22:00:00	7	Dirección del viento	6.44
152359	7	Sololá	713	San Lucas Tolimán	10	San Lucas Tolimán	10	Octubre	2023-09-10T00:00:00	2024-11-08T22:00:00	1	Precipitación	0
152360	7	Sololá	713	San Lucas Tolimán	10	San Lucas Tolimán	10	Octubre	2023-09-10T00:00:00	2024-11-08T22:00:00	8	Radiación solar	0
152361	7	Sololá	713	San Lucas Tolimán	10	San Lucas Tolimán	10	Octubre	2023-09-10T00:00:00	2024-11-08T23:00:00	2	Temperatura media	17.6
152362	7	Sololá	713	San Lucas Tolimán	10	San Lucas Tolimán	10	Octubre	2023-09-10T00:00:00	2024-11-08T23:00:00	4	Temperatura máxima	17.7
152363	7	Sololá	713	San Lucas Tolimán	10	San Lucas Tolimán	10	Octubre	2023-09-10T00:00:00	2024-11-08T23:00:00	3	Temperatura mínima	17.6
152364	7	Sololá	713	San Lucas Tolimán	10	San Lucas Tolimán	10	Octubre	2023-09-10T00:00:00	2024-11-08T23:00:00	5	Humedad	97
152365	7	Sololá	713	San Lucas Tolimán	10	San Lucas Tolimán	10	Octubre	2023-09-10T00:00:00	2024-11-08T23:00:00	6	Velocidad del viento	6.4
152366	7	Sololá	713	San Lucas Tolimán	10	San Lucas Tolimán	10	Octubre	2023-09-10T00:00:00	2024-11-08T23:00:00	7	Dirección del viento	6.44
152367	7	Sololá	713	San Lucas Tolimán	10	San Lucas Tolimán	10	Octubre	2023-09-10T00:00:00	2024-11-08T23:00:00	1	Precipitación	0
152368	7	Sololá	713	San Lucas Tolimán	10	San Lucas Tolimán	10	Octubre	2023-09-10T00:00:00	2024-11-08T23:00:00	8	Radiación solar	0
152369	7	Sololá	713	San Lucas Tolimán	10	San Lucas Tolimán	10	Octubre	2023-10-10T00:00:00	2024-11-08T00:00:00	2	Temperatura media	17.4
152370	7	Sololá	713	San Lucas Tolimán	10	San Lucas Tolimán	10	Octubre	2023-10-10T00:00:00	2024-11-08T00:00:00	4	Temperatura máxima	17.7
152371	7	Sololá	713	San Lucas Tolimán	10	San Lucas Tolimán	10	Octubre	2023-10-10T00:00:00	2024-11-08T00:00:00	3	Temperatura mínima	17.3
152372	7	Sololá	713	San Lucas Tolimán	10	San Lucas Tolimán	10	Octubre	2023-10-10T00:00:00	2024-11-08T00:00:00	5	Humedad	97
152373	7	Sololá	713	San Lucas Tolimán	10	San Lucas Tolimán	10	Octubre	2023-10-10T00:00:00	2024-11-08T00:00:00	6	Velocidad del viento	3.2
152374	7	Sololá	713	San Lucas Tolimán	10	San Lucas Tolimán	10	Octubre	2023-10-10T00:00:00	2024-11-08T00:00:00	7	Dirección del viento	3.22
152375	7	Sololá	713	San Lucas Tolimán	10	San Lucas Tolimán	10	Octubre	2023-10-10T00:00:00	2024-11-08T00:00:00	1	Precipitación	0
152376	7	Sololá	713	San Lucas Tolimán	10	San Lucas Tolimán	10	Octubre	2023-10-10T00:00:00	2024-11-08T00:00:00	8	Radiación solar	0
152377	7	Sololá	713	San Lucas Tolimán	10	San Lucas Tolimán	10	Octubre	2023-10-10T00:00:00	2024-11-08T01:00:00	2	Temperatura media	17.2
152378	7	Sololá	713	San Lucas Tolimán	10	San Lucas Tolimán	10	Octubre	2023-10-10T00:00:00	2024-11-08T01:00:00	4	Temperatura máxima	17.6
152379	7	Sololá	713	San Lucas Tolimán	10	San Lucas Tolimán	10	Octubre	2023-10-10T00:00:00	2024-11-08T01:00:00	3	Temperatura mínima	17.1
152380	7	Sololá	713	San Lucas Tolimán	10	San Lucas Tolimán	10	Octubre	2023-10-10T00:00:00	2024-11-08T01:00:00	5	Humedad	96
152381	7	Sololá	713	San Lucas Tolimán	10	San Lucas Tolimán	10	Octubre	2023-10-10T00:00:00	2024-11-08T01:00:00	6	Velocidad del viento	3.2
152382	7	Sololá	713	San Lucas Tolimán	10	San Lucas Tolimán	10	Octubre	2023-10-10T00:00:00	2024-11-08T01:00:00	7	Dirección del viento	3.22
152383	7	Sololá	713	San Lucas Tolimán	10	San Lucas Tolimán	10	Octubre	2023-10-10T00:00:00	2024-11-08T01:00:00	1	Precipitación	0
152384	7	Sololá	713	San Lucas Tolimán	10	San Lucas Tolimán	10	Octubre	2023-10-10T00:00:00	2024-11-08T01:00:00	8	Radiación solar	0
152385	7	Sololá	713	San Lucas Tolimán	10	San Lucas Tolimán	10	Octubre	2023-10-10T00:00:00	2024-11-08T02:00:00	2	Temperatura media	17
152386	7	Sololá	713	San Lucas Tolimán	10	San Lucas Tolimán	10	Octubre	2023-10-10T00:00:00	2024-11-08T02:00:00	4	Temperatura máxima	17.2
152387	7	Sololá	713	San Lucas Tolimán	10	San Lucas Tolimán	10	Octubre	2023-10-10T00:00:00	2024-11-08T02:00:00	3	Temperatura mínima	16.9
152388	7	Sololá	713	San Lucas Tolimán	10	San Lucas Tolimán	10	Octubre	2023-10-10T00:00:00	2024-11-08T02:00:00	5	Humedad	97
152389	7	Sololá	713	San Lucas Tolimán	10	San Lucas Tolimán	10	Octubre	2023-10-10T00:00:00	2024-11-08T02:00:00	6	Velocidad del viento	1.6
152390	7	Sololá	713	San Lucas Tolimán	10	San Lucas Tolimán	10	Octubre	2023-10-10T00:00:00	2024-11-08T02:00:00	7	Dirección del viento	1.61
152391	7	Sololá	713	San Lucas Tolimán	10	San Lucas Tolimán	10	Octubre	2023-10-10T00:00:00	2024-11-08T02:00:00	1	Precipitación	0
152392	7	Sololá	713	San Lucas Tolimán	10	San Lucas Tolimán	10	Octubre	2023-10-10T00:00:00	2024-11-08T02:00:00	8	Radiación solar	0
152393	7	Sololá	713	San Lucas Tolimán	10	San Lucas Tolimán	10	Octubre	2023-10-10T00:00:00	2024-11-08T03:00:00	2	Temperatura media	17.1
152394	7	Sololá	713	San Lucas Tolimán	10	San Lucas Tolimán	10	Octubre	2023-10-10T00:00:00	2024-11-08T03:00:00	4	Temperatura máxima	17.3
152395	7	Sololá	713	San Lucas Tolimán	10	San Lucas Tolimán	10	Octubre	2023-10-10T00:00:00	2024-11-08T03:00:00	3	Temperatura mínima	16.9
152396	7	Sololá	713	San Lucas Tolimán	10	San Lucas Tolimán	10	Octubre	2023-10-10T00:00:00	2024-11-08T03:00:00	5	Humedad	97
152397	7	Sololá	713	San Lucas Tolimán	10	San Lucas Tolimán	10	Octubre	2023-10-10T00:00:00	2024-11-08T03:00:00	6	Velocidad del viento	1.6
152398	7	Sololá	713	San Lucas Tolimán	10	San Lucas Tolimán	10	Octubre	2023-10-10T00:00:00	2024-11-08T03:00:00	7	Dirección del viento	1.61
152399	7	Sololá	713	San Lucas Tolimán	10	San Lucas Tolimán	10	Octubre	2023-10-10T00:00:00	2024-11-08T03:00:00	1	Precipitación	0
152400	7	Sololá	713	San Lucas Tolimán	10	San Lucas Tolimán	10	Octubre	2023-10-10T00:00:00	2024-11-08T03:00:00	8	Radiación solar	0
152401	7	Sololá	713	San Lucas Tolimán	10	San Lucas Tolimán	10	Octubre	2023-10-10T00:00:00	2024-11-08T04:00:00	2	Temperatura media	16.6
152402	7	Sololá	713	San Lucas Tolimán	10	San Lucas Tolimán	10	Octubre	2023-10-10T00:00:00	2024-11-08T04:00:00	4	Temperatura máxima	17.1
152403	7	Sololá	713	San Lucas Tolimán	10	San Lucas Tolimán	10	Octubre	2023-10-10T00:00:00	2024-11-08T04:00:00	3	Temperatura mínima	16.4
152404	7	Sololá	713	San Lucas Tolimán	10	San Lucas Tolimán	10	Octubre	2023-10-10T00:00:00	2024-11-08T04:00:00	5	Humedad	97
152405	7	Sololá	713	San Lucas Tolimán	10	San Lucas Tolimán	10	Octubre	2023-10-10T00:00:00	2024-11-08T04:00:00	6	Velocidad del viento	1.6
152406	7	Sololá	713	San Lucas Tolimán	10	San Lucas Tolimán	10	Octubre	2023-10-10T00:00:00	2024-11-08T04:00:00	7	Dirección del viento	1.61
152407	7	Sololá	713	San Lucas Tolimán	10	San Lucas Tolimán	10	Octubre	2023-10-10T00:00:00	2024-11-08T04:00:00	1	Precipitación	0.2
152408	7	Sololá	713	San Lucas Tolimán	10	San Lucas Tolimán	10	Octubre	2023-10-10T00:00:00	2024-11-08T04:00:00	8	Radiación solar	0
152409	7	Sololá	713	San Lucas Tolimán	10	San Lucas Tolimán	10	Octubre	2023-10-10T00:00:00	2024-11-08T05:00:00	2	Temperatura media	16.3
152410	7	Sololá	713	San Lucas Tolimán	10	San Lucas Tolimán	10	Octubre	2023-10-10T00:00:00	2024-11-08T05:00:00	4	Temperatura máxima	16.6
152411	7	Sololá	713	San Lucas Tolimán	10	San Lucas Tolimán	10	Octubre	2023-10-10T00:00:00	2024-11-08T05:00:00	3	Temperatura mínima	16.3
152412	7	Sololá	713	San Lucas Tolimán	10	San Lucas Tolimán	10	Octubre	2023-10-10T00:00:00	2024-11-08T05:00:00	5	Humedad	96
152413	7	Sololá	713	San Lucas Tolimán	10	San Lucas Tolimán	10	Octubre	2023-10-10T00:00:00	2024-11-08T05:00:00	6	Velocidad del viento	1.6
152414	7	Sololá	713	San Lucas Tolimán	10	San Lucas Tolimán	10	Octubre	2023-10-10T00:00:00	2024-11-08T05:00:00	7	Dirección del viento	1.61
152415	7	Sololá	713	San Lucas Tolimán	10	San Lucas Tolimán	10	Octubre	2023-10-10T00:00:00	2024-11-08T05:00:00	1	Precipitación	0
152416	7	Sololá	713	San Lucas Tolimán	10	San Lucas Tolimán	10	Octubre	2023-10-10T00:00:00	2024-11-08T05:00:00	8	Radiación solar	0
152417	7	Sololá	713	San Lucas Tolimán	10	San Lucas Tolimán	10	Octubre	2023-10-10T00:00:00	2024-11-08T06:00:00	2	Temperatura media	16.1
152418	7	Sololá	713	San Lucas Tolimán	10	San Lucas Tolimán	10	Octubre	2023-10-10T00:00:00	2024-11-08T06:00:00	4	Temperatura máxima	16.3
152419	7	Sololá	713	San Lucas Tolimán	10	San Lucas Tolimán	10	Octubre	2023-10-10T00:00:00	2024-11-08T06:00:00	3	Temperatura mínima	16.1
152420	7	Sololá	713	San Lucas Tolimán	10	San Lucas Tolimán	10	Octubre	2023-10-10T00:00:00	2024-11-08T06:00:00	5	Humedad	97
152421	7	Sololá	713	San Lucas Tolimán	10	San Lucas Tolimán	10	Octubre	2023-10-10T00:00:00	2024-11-08T06:00:00	6	Velocidad del viento	1.6
152422	7	Sololá	713	San Lucas Tolimán	10	San Lucas Tolimán	10	Octubre	2023-10-10T00:00:00	2024-11-08T06:00:00	7	Dirección del viento	1.61
152423	7	Sololá	713	San Lucas Tolimán	10	San Lucas Tolimán	10	Octubre	2023-10-10T00:00:00	2024-11-08T06:00:00	1	Precipitación	0
152424	7	Sololá	713	San Lucas Tolimán	10	San Lucas Tolimán	10	Octubre	2023-10-10T00:00:00	2024-11-08T06:00:00	8	Radiación solar	0
152425	7	Sololá	713	San Lucas Tolimán	10	San Lucas Tolimán	10	Octubre	2023-10-10T00:00:00	2024-11-08T07:00:00	2	Temperatura media	17.2
152426	7	Sololá	713	San Lucas Tolimán	10	San Lucas Tolimán	10	Octubre	2023-10-10T00:00:00	2024-11-08T07:00:00	4	Temperatura máxima	17.2
152427	7	Sololá	713	San Lucas Tolimán	10	San Lucas Tolimán	10	Octubre	2023-10-10T00:00:00	2024-11-08T07:00:00	3	Temperatura mínima	16.1
152428	7	Sololá	713	San Lucas Tolimán	10	San Lucas Tolimán	10	Octubre	2023-10-10T00:00:00	2024-11-08T07:00:00	5	Humedad	98
152429	7	Sololá	713	San Lucas Tolimán	10	San Lucas Tolimán	10	Octubre	2023-10-10T00:00:00	2024-11-08T07:00:00	6	Velocidad del viento	0
152430	7	Sololá	713	San Lucas Tolimán	10	San Lucas Tolimán	10	Octubre	2023-10-10T00:00:00	2024-11-08T07:00:00	7	Dirección del viento	0
152431	7	Sololá	713	San Lucas Tolimán	10	San Lucas Tolimán	10	Octubre	2023-10-10T00:00:00	2024-11-08T07:00:00	1	Precipitación	0
152432	7	Sololá	713	San Lucas Tolimán	10	San Lucas Tolimán	10	Octubre	2023-10-10T00:00:00	2024-11-08T07:00:00	8	Radiación solar	28
152433	7	Sololá	713	San Lucas Tolimán	10	San Lucas Tolimán	10	Octubre	2023-10-10T00:00:00	2024-11-08T08:00:00	2	Temperatura media	19.6
152434	7	Sololá	713	San Lucas Tolimán	10	San Lucas Tolimán	10	Octubre	2023-10-10T00:00:00	2024-11-08T08:00:00	4	Temperatura máxima	19.6
152435	7	Sololá	713	San Lucas Tolimán	10	San Lucas Tolimán	10	Octubre	2023-10-10T00:00:00	2024-11-08T08:00:00	3	Temperatura mínima	17.2
152436	7	Sololá	713	San Lucas Tolimán	10	San Lucas Tolimán	10	Octubre	2023-10-10T00:00:00	2024-11-08T08:00:00	5	Humedad	94
152437	7	Sololá	713	San Lucas Tolimán	10	San Lucas Tolimán	10	Octubre	2023-10-10T00:00:00	2024-11-08T08:00:00	6	Velocidad del viento	1.6
152438	7	Sololá	713	San Lucas Tolimán	10	San Lucas Tolimán	10	Octubre	2023-10-10T00:00:00	2024-11-08T08:00:00	7	Dirección del viento	1.61
152439	7	Sololá	713	San Lucas Tolimán	10	San Lucas Tolimán	10	Octubre	2023-10-10T00:00:00	2024-11-08T08:00:00	1	Precipitación	0
152440	7	Sololá	713	San Lucas Tolimán	10	San Lucas Tolimán	10	Octubre	2023-10-10T00:00:00	2024-11-08T08:00:00	8	Radiación solar	257
152441	7	Sololá	713	San Lucas Tolimán	10	San Lucas Tolimán	10	Octubre	2023-10-10T00:00:00	2024-11-08T09:00:00	2	Temperatura media	22.9
152442	7	Sololá	713	San Lucas Tolimán	10	San Lucas Tolimán	10	Octubre	2023-10-10T00:00:00	2024-11-08T09:00:00	4	Temperatura máxima	22.9
152443	7	Sololá	713	San Lucas Tolimán	10	San Lucas Tolimán	10	Octubre	2023-10-10T00:00:00	2024-11-08T09:00:00	3	Temperatura mínima	19.6
152444	7	Sololá	713	San Lucas Tolimán	10	San Lucas Tolimán	10	Octubre	2023-10-10T00:00:00	2024-11-08T09:00:00	5	Humedad	82
152445	7	Sololá	713	San Lucas Tolimán	10	San Lucas Tolimán	10	Octubre	2023-10-10T00:00:00	2024-11-08T09:00:00	6	Velocidad del viento	3.2
152446	7	Sololá	713	San Lucas Tolimán	10	San Lucas Tolimán	10	Octubre	2023-10-10T00:00:00	2024-11-08T09:00:00	7	Dirección del viento	3.22
152447	7	Sololá	713	San Lucas Tolimán	10	San Lucas Tolimán	10	Octubre	2023-10-10T00:00:00	2024-11-08T09:00:00	1	Precipitación	0
152448	7	Sololá	713	San Lucas Tolimán	10	San Lucas Tolimán	10	Octubre	2023-10-10T00:00:00	2024-11-08T09:00:00	8	Radiación solar	515
152449	7	Sololá	713	San Lucas Tolimán	10	San Lucas Tolimán	10	Octubre	2023-10-10T00:00:00	2024-11-08T10:00:00	2	Temperatura media	22
152450	7	Sololá	713	San Lucas Tolimán	10	San Lucas Tolimán	10	Octubre	2023-10-10T00:00:00	2024-11-08T10:00:00	4	Temperatura máxima	23.6
152451	7	Sololá	713	San Lucas Tolimán	10	San Lucas Tolimán	10	Octubre	2023-10-10T00:00:00	2024-11-08T10:00:00	3	Temperatura mínima	22
152452	7	Sololá	713	San Lucas Tolimán	10	San Lucas Tolimán	10	Octubre	2023-10-10T00:00:00	2024-11-08T10:00:00	5	Humedad	84
152453	7	Sololá	713	San Lucas Tolimán	10	San Lucas Tolimán	10	Octubre	2023-10-10T00:00:00	2024-11-08T10:00:00	6	Velocidad del viento	6.4
152454	7	Sololá	713	San Lucas Tolimán	10	San Lucas Tolimán	10	Octubre	2023-10-10T00:00:00	2024-11-08T10:00:00	7	Dirección del viento	6.44
152455	7	Sololá	713	San Lucas Tolimán	10	San Lucas Tolimán	10	Octubre	2023-10-10T00:00:00	2024-11-08T10:00:00	1	Precipitación	0
152456	7	Sololá	713	San Lucas Tolimán	10	San Lucas Tolimán	10	Octubre	2023-10-10T00:00:00	2024-11-08T10:00:00	8	Radiación solar	710
152457	7	Sololá	713	San Lucas Tolimán	10	San Lucas Tolimán	10	Octubre	2023-10-10T00:00:00	2024-11-08T11:00:00	2	Temperatura media	23.2
152458	7	Sololá	713	San Lucas Tolimán	10	San Lucas Tolimán	10	Octubre	2023-10-10T00:00:00	2024-11-08T11:00:00	4	Temperatura máxima	23.5
152459	7	Sololá	713	San Lucas Tolimán	10	San Lucas Tolimán	10	Octubre	2023-10-10T00:00:00	2024-11-08T11:00:00	3	Temperatura mínima	22
152460	7	Sololá	713	San Lucas Tolimán	10	San Lucas Tolimán	10	Octubre	2023-10-10T00:00:00	2024-11-08T11:00:00	5	Humedad	82
152461	7	Sololá	713	San Lucas Tolimán	10	San Lucas Tolimán	10	Octubre	2023-10-10T00:00:00	2024-11-08T11:00:00	6	Velocidad del viento	11.3
152462	7	Sololá	713	San Lucas Tolimán	10	San Lucas Tolimán	10	Octubre	2023-10-10T00:00:00	2024-11-08T11:00:00	7	Dirección del viento	11.27
152463	7	Sololá	713	San Lucas Tolimán	10	San Lucas Tolimán	10	Octubre	2023-10-10T00:00:00	2024-11-08T11:00:00	1	Precipitación	0
152464	7	Sololá	713	San Lucas Tolimán	10	San Lucas Tolimán	10	Octubre	2023-10-10T00:00:00	2024-11-08T11:00:00	8	Radiación solar	863
152465	7	Sololá	713	San Lucas Tolimán	10	San Lucas Tolimán	10	Octubre	2023-10-10T00:00:00	2024-11-08T12:00:00	2	Temperatura media	23.3
152466	7	Sololá	713	San Lucas Tolimán	10	San Lucas Tolimán	10	Octubre	2023-10-10T00:00:00	2024-11-08T12:00:00	4	Temperatura máxima	23.3
152467	7	Sololá	713	San Lucas Tolimán	10	San Lucas Tolimán	10	Octubre	2023-10-10T00:00:00	2024-11-08T12:00:00	3	Temperatura mínima	22.8
152468	7	Sololá	713	San Lucas Tolimán	10	San Lucas Tolimán	10	Octubre	2023-10-10T00:00:00	2024-11-08T12:00:00	5	Humedad	81
152469	7	Sololá	713	San Lucas Tolimán	10	San Lucas Tolimán	10	Octubre	2023-10-10T00:00:00	2024-11-08T12:00:00	6	Velocidad del viento	11.3
152470	7	Sololá	713	San Lucas Tolimán	10	San Lucas Tolimán	10	Octubre	2023-10-10T00:00:00	2024-11-08T12:00:00	7	Dirección del viento	11.27
152471	7	Sololá	713	San Lucas Tolimán	10	San Lucas Tolimán	10	Octubre	2023-10-10T00:00:00	2024-11-08T12:00:00	1	Precipitación	0
152472	7	Sololá	713	San Lucas Tolimán	10	San Lucas Tolimán	10	Octubre	2023-10-10T00:00:00	2024-11-08T12:00:00	8	Radiación solar	917
152473	7	Sololá	713	San Lucas Tolimán	10	San Lucas Tolimán	10	Octubre	2023-10-10T00:00:00	2024-11-08T13:00:00	2	Temperatura media	21.3
152474	7	Sololá	713	San Lucas Tolimán	10	San Lucas Tolimán	10	Octubre	2023-10-10T00:00:00	2024-11-08T13:00:00	4	Temperatura máxima	23.7
152475	7	Sololá	713	San Lucas Tolimán	10	San Lucas Tolimán	10	Octubre	2023-10-10T00:00:00	2024-11-08T13:00:00	3	Temperatura mínima	21.2
152476	7	Sololá	713	San Lucas Tolimán	10	San Lucas Tolimán	10	Octubre	2023-10-10T00:00:00	2024-11-08T13:00:00	5	Humedad	88
152477	7	Sololá	713	San Lucas Tolimán	10	San Lucas Tolimán	10	Octubre	2023-10-10T00:00:00	2024-11-08T13:00:00	6	Velocidad del viento	11.3
152478	7	Sololá	713	San Lucas Tolimán	10	San Lucas Tolimán	10	Octubre	2023-10-10T00:00:00	2024-11-08T13:00:00	7	Dirección del viento	11.27
152479	7	Sololá	713	San Lucas Tolimán	10	San Lucas Tolimán	10	Octubre	2023-10-10T00:00:00	2024-11-08T13:00:00	1	Precipitación	0
152480	7	Sololá	713	San Lucas Tolimán	10	San Lucas Tolimán	10	Octubre	2023-10-10T00:00:00	2024-11-08T13:00:00	8	Radiación solar	560
152481	7	Sololá	713	San Lucas Tolimán	10	San Lucas Tolimán	10	Octubre	2023-10-10T00:00:00	2024-11-08T14:00:00	2	Temperatura media	21.5
152482	7	Sololá	713	San Lucas Tolimán	10	San Lucas Tolimán	10	Octubre	2023-10-10T00:00:00	2024-11-08T14:00:00	4	Temperatura máxima	22.1
152483	7	Sololá	713	San Lucas Tolimán	10	San Lucas Tolimán	10	Octubre	2023-10-10T00:00:00	2024-11-08T14:00:00	3	Temperatura mínima	21.3
152484	7	Sololá	713	San Lucas Tolimán	10	San Lucas Tolimán	10	Octubre	2023-10-10T00:00:00	2024-11-08T14:00:00	5	Humedad	88
152485	7	Sololá	713	San Lucas Tolimán	10	San Lucas Tolimán	10	Octubre	2023-10-10T00:00:00	2024-11-08T14:00:00	6	Velocidad del viento	9.7
152486	7	Sololá	713	San Lucas Tolimán	10	San Lucas Tolimán	10	Octubre	2023-10-10T00:00:00	2024-11-08T14:00:00	7	Dirección del viento	9.66
152487	7	Sololá	713	San Lucas Tolimán	10	San Lucas Tolimán	10	Octubre	2023-10-10T00:00:00	2024-11-08T14:00:00	1	Precipitación	0
152488	7	Sololá	713	San Lucas Tolimán	10	San Lucas Tolimán	10	Octubre	2023-10-10T00:00:00	2024-11-08T14:00:00	8	Radiación solar	310
152489	7	Sololá	713	San Lucas Tolimán	10	San Lucas Tolimán	10	Octubre	2023-10-10T00:00:00	2024-11-08T15:00:00	2	Temperatura media	20.7
152490	7	Sololá	713	San Lucas Tolimán	10	San Lucas Tolimán	10	Octubre	2023-10-10T00:00:00	2024-11-08T15:00:00	4	Temperatura máxima	21.5
152491	7	Sololá	713	San Lucas Tolimán	10	San Lucas Tolimán	10	Octubre	2023-10-10T00:00:00	2024-11-08T15:00:00	3	Temperatura mínima	20.7
152492	7	Sololá	713	San Lucas Tolimán	10	San Lucas Tolimán	10	Octubre	2023-10-10T00:00:00	2024-11-08T15:00:00	5	Humedad	91
152493	7	Sololá	713	San Lucas Tolimán	10	San Lucas Tolimán	10	Octubre	2023-10-10T00:00:00	2024-11-08T15:00:00	6	Velocidad del viento	8
152494	7	Sololá	713	San Lucas Tolimán	10	San Lucas Tolimán	10	Octubre	2023-10-10T00:00:00	2024-11-08T15:00:00	7	Dirección del viento	8.05
152495	7	Sololá	713	San Lucas Tolimán	10	San Lucas Tolimán	10	Octubre	2023-10-10T00:00:00	2024-11-08T15:00:00	1	Precipitación	0
152496	7	Sololá	713	San Lucas Tolimán	10	San Lucas Tolimán	10	Octubre	2023-10-10T00:00:00	2024-11-08T15:00:00	8	Radiación solar	111
152497	7	Sololá	713	San Lucas Tolimán	10	San Lucas Tolimán	10	Octubre	2023-10-10T00:00:00	2024-11-08T16:00:00	2	Temperatura media	20.4
152498	7	Sololá	713	San Lucas Tolimán	10	San Lucas Tolimán	10	Octubre	2023-10-10T00:00:00	2024-11-08T16:00:00	4	Temperatura máxima	20.7
152499	7	Sololá	713	San Lucas Tolimán	10	San Lucas Tolimán	10	Octubre	2023-10-10T00:00:00	2024-11-08T16:00:00	3	Temperatura mínima	20.4
152500	7	Sololá	713	San Lucas Tolimán	10	San Lucas Tolimán	10	Octubre	2023-10-10T00:00:00	2024-11-08T16:00:00	5	Humedad	93
152501	7	Sololá	713	San Lucas Tolimán	10	San Lucas Tolimán	10	Octubre	2023-10-10T00:00:00	2024-11-08T16:00:00	6	Velocidad del viento	6.4
152502	7	Sololá	713	San Lucas Tolimán	10	San Lucas Tolimán	10	Octubre	2023-10-10T00:00:00	2024-11-08T16:00:00	7	Dirección del viento	6.44
152503	7	Sololá	713	San Lucas Tolimán	10	San Lucas Tolimán	10	Octubre	2023-10-10T00:00:00	2024-11-08T16:00:00	1	Precipitación	0
152504	7	Sololá	713	San Lucas Tolimán	10	San Lucas Tolimán	10	Octubre	2023-10-10T00:00:00	2024-11-08T16:00:00	8	Radiación solar	46
152505	7	Sololá	713	San Lucas Tolimán	10	San Lucas Tolimán	10	Octubre	2023-10-10T00:00:00	2024-11-08T17:00:00	2	Temperatura media	18.8
152506	7	Sololá	713	San Lucas Tolimán	10	San Lucas Tolimán	10	Octubre	2023-10-10T00:00:00	2024-11-08T17:00:00	4	Temperatura máxima	20.4
152507	7	Sololá	713	San Lucas Tolimán	10	San Lucas Tolimán	10	Octubre	2023-10-10T00:00:00	2024-11-08T17:00:00	3	Temperatura mínima	18.7
152508	7	Sololá	713	San Lucas Tolimán	10	San Lucas Tolimán	10	Octubre	2023-10-10T00:00:00	2024-11-08T17:00:00	5	Humedad	94
152509	7	Sololá	713	San Lucas Tolimán	10	San Lucas Tolimán	10	Octubre	2023-10-10T00:00:00	2024-11-08T17:00:00	6	Velocidad del viento	12.9
152510	7	Sololá	713	San Lucas Tolimán	10	San Lucas Tolimán	10	Octubre	2023-10-10T00:00:00	2024-11-08T17:00:00	7	Dirección del viento	12.87
152511	7	Sololá	713	San Lucas Tolimán	10	San Lucas Tolimán	10	Octubre	2023-10-10T00:00:00	2024-11-08T17:00:00	1	Precipitación	0
152512	7	Sololá	713	San Lucas Tolimán	10	San Lucas Tolimán	10	Octubre	2023-10-10T00:00:00	2024-11-08T17:00:00	8	Radiación solar	22
152513	7	Sololá	713	San Lucas Tolimán	10	San Lucas Tolimán	10	Octubre	2023-10-10T00:00:00	2024-11-08T18:00:00	2	Temperatura media	18.7
152514	7	Sololá	713	San Lucas Tolimán	10	San Lucas Tolimán	10	Octubre	2023-10-10T00:00:00	2024-11-08T18:00:00	4	Temperatura máxima	19.1
152515	7	Sololá	713	San Lucas Tolimán	10	San Lucas Tolimán	10	Octubre	2023-10-10T00:00:00	2024-11-08T18:00:00	3	Temperatura mínima	18.7
152516	7	Sololá	713	San Lucas Tolimán	10	San Lucas Tolimán	10	Octubre	2023-10-10T00:00:00	2024-11-08T18:00:00	5	Humedad	96
152517	7	Sololá	713	San Lucas Tolimán	10	San Lucas Tolimán	10	Octubre	2023-10-10T00:00:00	2024-11-08T18:00:00	6	Velocidad del viento	9.7
152518	7	Sololá	713	San Lucas Tolimán	10	San Lucas Tolimán	10	Octubre	2023-10-10T00:00:00	2024-11-08T18:00:00	7	Dirección del viento	9.66
152519	7	Sololá	713	San Lucas Tolimán	10	San Lucas Tolimán	10	Octubre	2023-10-10T00:00:00	2024-11-08T18:00:00	1	Precipitación	0
152520	7	Sololá	713	San Lucas Tolimán	10	San Lucas Tolimán	10	Octubre	2023-10-10T00:00:00	2024-11-08T18:00:00	8	Radiación solar	0
152521	7	Sololá	713	San Lucas Tolimán	10	San Lucas Tolimán	10	Octubre	2023-10-10T00:00:00	2024-11-08T19:00:00	2	Temperatura media	18.8
152522	7	Sololá	713	San Lucas Tolimán	10	San Lucas Tolimán	10	Octubre	2023-10-10T00:00:00	2024-11-08T19:00:00	4	Temperatura máxima	18.8
152523	7	Sololá	713	San Lucas Tolimán	10	San Lucas Tolimán	10	Octubre	2023-10-10T00:00:00	2024-11-08T19:00:00	3	Temperatura mínima	18.6
152524	7	Sololá	713	San Lucas Tolimán	10	San Lucas Tolimán	10	Octubre	2023-10-10T00:00:00	2024-11-08T19:00:00	5	Humedad	96
152525	7	Sololá	713	San Lucas Tolimán	10	San Lucas Tolimán	10	Octubre	2023-10-10T00:00:00	2024-11-08T19:00:00	6	Velocidad del viento	8
152526	7	Sololá	713	San Lucas Tolimán	10	San Lucas Tolimán	10	Octubre	2023-10-10T00:00:00	2024-11-08T19:00:00	7	Dirección del viento	8.05
152527	7	Sololá	713	San Lucas Tolimán	10	San Lucas Tolimán	10	Octubre	2023-10-10T00:00:00	2024-11-08T19:00:00	1	Precipitación	0
152528	7	Sololá	713	San Lucas Tolimán	10	San Lucas Tolimán	10	Octubre	2023-10-10T00:00:00	2024-11-08T19:00:00	8	Radiación solar	0
152529	7	Sololá	713	San Lucas Tolimán	10	San Lucas Tolimán	10	Octubre	2023-10-10T00:00:00	2024-11-08T20:00:00	2	Temperatura media	18.6
152530	7	Sololá	713	San Lucas Tolimán	10	San Lucas Tolimán	10	Octubre	2023-10-10T00:00:00	2024-11-08T20:00:00	4	Temperatura máxima	18.9
152531	7	Sololá	713	San Lucas Tolimán	10	San Lucas Tolimán	10	Octubre	2023-10-10T00:00:00	2024-11-08T20:00:00	3	Temperatura mínima	18.6
152532	7	Sololá	713	San Lucas Tolimán	10	San Lucas Tolimán	10	Octubre	2023-10-10T00:00:00	2024-11-08T20:00:00	5	Humedad	96
152533	7	Sololá	713	San Lucas Tolimán	10	San Lucas Tolimán	10	Octubre	2023-10-10T00:00:00	2024-11-08T20:00:00	6	Velocidad del viento	4.8
152534	7	Sololá	713	San Lucas Tolimán	10	San Lucas Tolimán	10	Octubre	2023-10-10T00:00:00	2024-11-08T20:00:00	7	Dirección del viento	4.83
152535	7	Sololá	713	San Lucas Tolimán	10	San Lucas Tolimán	10	Octubre	2023-10-10T00:00:00	2024-11-08T20:00:00	1	Precipitación	0
152536	7	Sololá	713	San Lucas Tolimán	10	San Lucas Tolimán	10	Octubre	2023-10-10T00:00:00	2024-11-08T20:00:00	8	Radiación solar	0
152537	7	Sololá	713	San Lucas Tolimán	10	San Lucas Tolimán	10	Octubre	2023-10-10T00:00:00	2024-11-08T21:00:00	2	Temperatura media	18.3
152538	7	Sololá	713	San Lucas Tolimán	10	San Lucas Tolimán	10	Octubre	2023-10-10T00:00:00	2024-11-08T21:00:00	4	Temperatura máxima	18.6
152539	7	Sololá	713	San Lucas Tolimán	10	San Lucas Tolimán	10	Octubre	2023-10-10T00:00:00	2024-11-08T21:00:00	3	Temperatura mínima	18.3
152540	7	Sololá	713	San Lucas Tolimán	10	San Lucas Tolimán	10	Octubre	2023-10-10T00:00:00	2024-11-08T21:00:00	5	Humedad	97
152541	7	Sololá	713	San Lucas Tolimán	10	San Lucas Tolimán	10	Octubre	2023-10-10T00:00:00	2024-11-08T21:00:00	6	Velocidad del viento	3.2
152542	7	Sololá	713	San Lucas Tolimán	10	San Lucas Tolimán	10	Octubre	2023-10-10T00:00:00	2024-11-08T21:00:00	7	Dirección del viento	3.22
152543	7	Sololá	713	San Lucas Tolimán	10	San Lucas Tolimán	10	Octubre	2023-10-10T00:00:00	2024-11-08T21:00:00	1	Precipitación	1.2
152544	7	Sololá	713	San Lucas Tolimán	10	San Lucas Tolimán	10	Octubre	2023-10-10T00:00:00	2024-11-08T21:00:00	8	Radiación solar	0
152545	7	Sololá	713	San Lucas Tolimán	10	San Lucas Tolimán	10	Octubre	2023-10-10T00:00:00	2024-11-08T22:00:00	2	Temperatura media	18.3
152546	7	Sololá	713	San Lucas Tolimán	10	San Lucas Tolimán	10	Octubre	2023-10-10T00:00:00	2024-11-08T22:00:00	4	Temperatura máxima	18.4
152547	7	Sololá	713	San Lucas Tolimán	10	San Lucas Tolimán	10	Octubre	2023-10-10T00:00:00	2024-11-08T22:00:00	3	Temperatura mínima	18.3
152548	7	Sololá	713	San Lucas Tolimán	10	San Lucas Tolimán	10	Octubre	2023-10-10T00:00:00	2024-11-08T22:00:00	5	Humedad	97
152549	7	Sololá	713	San Lucas Tolimán	10	San Lucas Tolimán	10	Octubre	2023-10-10T00:00:00	2024-11-08T22:00:00	6	Velocidad del viento	6.4
152550	7	Sololá	713	San Lucas Tolimán	10	San Lucas Tolimán	10	Octubre	2023-10-10T00:00:00	2024-11-08T22:00:00	7	Dirección del viento	6.44
152551	7	Sololá	713	San Lucas Tolimán	10	San Lucas Tolimán	10	Octubre	2023-10-10T00:00:00	2024-11-08T22:00:00	1	Precipitación	2.2
152552	7	Sololá	713	San Lucas Tolimán	10	San Lucas Tolimán	10	Octubre	2023-10-10T00:00:00	2024-11-08T22:00:00	8	Radiación solar	0
152553	7	Sololá	713	San Lucas Tolimán	10	San Lucas Tolimán	10	Octubre	2023-10-10T00:00:00	2024-11-08T23:00:00	2	Temperatura media	18
152554	7	Sololá	713	San Lucas Tolimán	10	San Lucas Tolimán	10	Octubre	2023-10-10T00:00:00	2024-11-08T23:00:00	4	Temperatura máxima	18.3
152555	7	Sololá	713	San Lucas Tolimán	10	San Lucas Tolimán	10	Octubre	2023-10-10T00:00:00	2024-11-08T23:00:00	3	Temperatura mínima	18
152556	7	Sololá	713	San Lucas Tolimán	10	San Lucas Tolimán	10	Octubre	2023-10-10T00:00:00	2024-11-08T23:00:00	5	Humedad	96
152557	7	Sololá	713	San Lucas Tolimán	10	San Lucas Tolimán	10	Octubre	2023-10-10T00:00:00	2024-11-08T23:00:00	6	Velocidad del viento	6.4
152558	7	Sololá	713	San Lucas Tolimán	10	San Lucas Tolimán	10	Octubre	2023-10-10T00:00:00	2024-11-08T23:00:00	7	Dirección del viento	6.44
152559	7	Sololá	713	San Lucas Tolimán	10	San Lucas Tolimán	10	Octubre	2023-10-10T00:00:00	2024-11-08T23:00:00	1	Precipitación	3.2
152560	7	Sololá	713	San Lucas Tolimán	10	San Lucas Tolimán	10	Octubre	2023-10-10T00:00:00	2024-11-08T23:00:00	8	Radiación solar	0
152561	7	Sololá	713	San Lucas Tolimán	10	San Lucas Tolimán	10	Octubre	2023-11-10T00:00:00	2024-11-08T00:00:00	2	Temperatura media	17.8
152562	7	Sololá	713	San Lucas Tolimán	10	San Lucas Tolimán	10	Octubre	2023-11-10T00:00:00	2024-11-08T00:00:00	4	Temperatura máxima	18
152563	7	Sololá	713	San Lucas Tolimán	10	San Lucas Tolimán	10	Octubre	2023-11-10T00:00:00	2024-11-08T00:00:00	3	Temperatura mínima	17.8
152564	7	Sololá	713	San Lucas Tolimán	10	San Lucas Tolimán	10	Octubre	2023-11-10T00:00:00	2024-11-08T00:00:00	5	Humedad	97
152565	7	Sololá	713	San Lucas Tolimán	10	San Lucas Tolimán	10	Octubre	2023-11-10T00:00:00	2024-11-08T00:00:00	6	Velocidad del viento	4.8
152566	7	Sololá	713	San Lucas Tolimán	10	San Lucas Tolimán	10	Octubre	2023-11-10T00:00:00	2024-11-08T00:00:00	7	Dirección del viento	4.83
152567	7	Sololá	713	San Lucas Tolimán	10	San Lucas Tolimán	10	Octubre	2023-11-10T00:00:00	2024-11-08T00:00:00	1	Precipitación	2.6
152568	7	Sololá	713	San Lucas Tolimán	10	San Lucas Tolimán	10	Octubre	2023-11-10T00:00:00	2024-11-08T00:00:00	8	Radiación solar	0
152569	7	Sololá	713	San Lucas Tolimán	10	San Lucas Tolimán	10	Octubre	2023-11-10T00:00:00	2024-11-08T01:00:00	2	Temperatura media	17.8
152570	7	Sololá	713	San Lucas Tolimán	10	San Lucas Tolimán	10	Octubre	2023-11-10T00:00:00	2024-11-08T01:00:00	4	Temperatura máxima	17.9
152571	7	Sololá	713	San Lucas Tolimán	10	San Lucas Tolimán	10	Octubre	2023-11-10T00:00:00	2024-11-08T01:00:00	3	Temperatura mínima	17.8
152572	7	Sololá	713	San Lucas Tolimán	10	San Lucas Tolimán	10	Octubre	2023-11-10T00:00:00	2024-11-08T01:00:00	5	Humedad	96
152573	7	Sololá	713	San Lucas Tolimán	10	San Lucas Tolimán	10	Octubre	2023-11-10T00:00:00	2024-11-08T01:00:00	6	Velocidad del viento	6.4
152574	7	Sololá	713	San Lucas Tolimán	10	San Lucas Tolimán	10	Octubre	2023-11-10T00:00:00	2024-11-08T01:00:00	7	Dirección del viento	6.44
152575	7	Sololá	713	San Lucas Tolimán	10	San Lucas Tolimán	10	Octubre	2023-11-10T00:00:00	2024-11-08T01:00:00	1	Precipitación	0.2
152576	7	Sololá	713	San Lucas Tolimán	10	San Lucas Tolimán	10	Octubre	2023-11-10T00:00:00	2024-11-08T01:00:00	8	Radiación solar	0
152577	7	Sololá	713	San Lucas Tolimán	10	San Lucas Tolimán	10	Octubre	2023-11-10T00:00:00	2024-11-08T02:00:00	2	Temperatura media	17.9
152578	7	Sololá	713	San Lucas Tolimán	10	San Lucas Tolimán	10	Octubre	2023-11-10T00:00:00	2024-11-08T02:00:00	4	Temperatura máxima	18.2
152579	7	Sololá	713	San Lucas Tolimán	10	San Lucas Tolimán	10	Octubre	2023-11-10T00:00:00	2024-11-08T02:00:00	3	Temperatura mínima	17.7
152580	7	Sololá	713	San Lucas Tolimán	10	San Lucas Tolimán	10	Octubre	2023-11-10T00:00:00	2024-11-08T02:00:00	5	Humedad	95
152581	7	Sololá	713	San Lucas Tolimán	10	San Lucas Tolimán	10	Octubre	2023-11-10T00:00:00	2024-11-08T02:00:00	6	Velocidad del viento	4.8
152582	7	Sololá	713	San Lucas Tolimán	10	San Lucas Tolimán	10	Octubre	2023-11-10T00:00:00	2024-11-08T02:00:00	7	Dirección del viento	4.83
152583	7	Sololá	713	San Lucas Tolimán	10	San Lucas Tolimán	10	Octubre	2023-11-10T00:00:00	2024-11-08T02:00:00	1	Precipitación	0
152584	7	Sololá	713	San Lucas Tolimán	10	San Lucas Tolimán	10	Octubre	2023-11-10T00:00:00	2024-11-08T02:00:00	8	Radiación solar	0
152585	7	Sololá	713	San Lucas Tolimán	10	San Lucas Tolimán	10	Octubre	2023-11-10T00:00:00	2024-11-08T03:00:00	2	Temperatura media	17.6
152586	7	Sololá	713	San Lucas Tolimán	10	San Lucas Tolimán	10	Octubre	2023-11-10T00:00:00	2024-11-08T03:00:00	4	Temperatura máxima	17.9
152587	7	Sololá	713	San Lucas Tolimán	10	San Lucas Tolimán	10	Octubre	2023-11-10T00:00:00	2024-11-08T03:00:00	3	Temperatura mínima	17.5
152588	7	Sololá	713	San Lucas Tolimán	10	San Lucas Tolimán	10	Octubre	2023-11-10T00:00:00	2024-11-08T03:00:00	5	Humedad	96
152589	7	Sololá	713	San Lucas Tolimán	10	San Lucas Tolimán	10	Octubre	2023-11-10T00:00:00	2024-11-08T03:00:00	6	Velocidad del viento	1.6
152590	7	Sololá	713	San Lucas Tolimán	10	San Lucas Tolimán	10	Octubre	2023-11-10T00:00:00	2024-11-08T03:00:00	7	Dirección del viento	1.61
152591	7	Sololá	713	San Lucas Tolimán	10	San Lucas Tolimán	10	Octubre	2023-11-10T00:00:00	2024-11-08T03:00:00	1	Precipitación	0
152592	7	Sololá	713	San Lucas Tolimán	10	San Lucas Tolimán	10	Octubre	2023-11-10T00:00:00	2024-11-08T03:00:00	8	Radiación solar	0
152593	7	Sololá	713	San Lucas Tolimán	10	San Lucas Tolimán	10	Octubre	2023-11-10T00:00:00	2024-11-08T04:00:00	2	Temperatura media	17.6
152594	7	Sololá	713	San Lucas Tolimán	10	San Lucas Tolimán	10	Octubre	2023-11-10T00:00:00	2024-11-08T04:00:00	4	Temperatura máxima	17.6
152595	7	Sololá	713	San Lucas Tolimán	10	San Lucas Tolimán	10	Octubre	2023-11-10T00:00:00	2024-11-08T04:00:00	3	Temperatura mínima	17.3
152596	7	Sololá	713	San Lucas Tolimán	10	San Lucas Tolimán	10	Octubre	2023-11-10T00:00:00	2024-11-08T04:00:00	5	Humedad	97
152597	7	Sololá	713	San Lucas Tolimán	10	San Lucas Tolimán	10	Octubre	2023-11-10T00:00:00	2024-11-08T04:00:00	6	Velocidad del viento	6.4
152598	7	Sololá	713	San Lucas Tolimán	10	San Lucas Tolimán	10	Octubre	2023-11-10T00:00:00	2024-11-08T04:00:00	7	Dirección del viento	6.44
152599	7	Sololá	713	San Lucas Tolimán	10	San Lucas Tolimán	10	Octubre	2023-11-10T00:00:00	2024-11-08T04:00:00	1	Precipitación	0
152600	7	Sololá	713	San Lucas Tolimán	10	San Lucas Tolimán	10	Octubre	2023-11-10T00:00:00	2024-11-08T04:00:00	8	Radiación solar	0
152601	7	Sololá	713	San Lucas Tolimán	10	San Lucas Tolimán	10	Octubre	2023-11-10T00:00:00	2024-11-08T05:00:00	2	Temperatura media	17.4
152602	7	Sololá	713	San Lucas Tolimán	10	San Lucas Tolimán	10	Octubre	2023-11-10T00:00:00	2024-11-08T05:00:00	4	Temperatura máxima	17.6
152603	7	Sololá	713	San Lucas Tolimán	10	San Lucas Tolimán	10	Octubre	2023-11-10T00:00:00	2024-11-08T05:00:00	3	Temperatura mínima	17.4
152604	7	Sololá	713	San Lucas Tolimán	10	San Lucas Tolimán	10	Octubre	2023-11-10T00:00:00	2024-11-08T05:00:00	5	Humedad	98
152605	7	Sololá	713	San Lucas Tolimán	10	San Lucas Tolimán	10	Octubre	2023-11-10T00:00:00	2024-11-08T05:00:00	6	Velocidad del viento	4.8
152606	7	Sololá	713	San Lucas Tolimán	10	San Lucas Tolimán	10	Octubre	2023-11-10T00:00:00	2024-11-08T05:00:00	7	Dirección del viento	4.83
152607	7	Sololá	713	San Lucas Tolimán	10	San Lucas Tolimán	10	Octubre	2023-11-10T00:00:00	2024-11-08T05:00:00	1	Precipitación	0
152608	7	Sololá	713	San Lucas Tolimán	10	San Lucas Tolimán	10	Octubre	2023-11-10T00:00:00	2024-11-08T05:00:00	8	Radiación solar	0
152609	7	Sololá	713	San Lucas Tolimán	10	San Lucas Tolimán	10	Octubre	2023-11-10T00:00:00	2024-11-08T06:00:00	2	Temperatura media	17.3
152610	7	Sololá	713	San Lucas Tolimán	10	San Lucas Tolimán	10	Octubre	2023-11-10T00:00:00	2024-11-08T06:00:00	4	Temperatura máxima	17.4
152611	7	Sololá	713	San Lucas Tolimán	10	San Lucas Tolimán	10	Octubre	2023-11-10T00:00:00	2024-11-08T06:00:00	3	Temperatura mínima	17.3
152612	7	Sololá	713	San Lucas Tolimán	10	San Lucas Tolimán	10	Octubre	2023-11-10T00:00:00	2024-11-08T06:00:00	5	Humedad	98
152613	7	Sololá	713	San Lucas Tolimán	10	San Lucas Tolimán	10	Octubre	2023-11-10T00:00:00	2024-11-08T06:00:00	6	Velocidad del viento	3.2
152614	7	Sololá	713	San Lucas Tolimán	10	San Lucas Tolimán	10	Octubre	2023-11-10T00:00:00	2024-11-08T06:00:00	7	Dirección del viento	3.22
152615	7	Sololá	713	San Lucas Tolimán	10	San Lucas Tolimán	10	Octubre	2023-11-10T00:00:00	2024-11-08T06:00:00	1	Precipitación	0
152616	7	Sololá	713	San Lucas Tolimán	10	San Lucas Tolimán	10	Octubre	2023-11-10T00:00:00	2024-11-08T06:00:00	8	Radiación solar	0
152617	7	Sololá	713	San Lucas Tolimán	10	San Lucas Tolimán	10	Octubre	2023-11-10T00:00:00	2024-11-08T07:00:00	2	Temperatura media	17.4
152618	7	Sololá	713	San Lucas Tolimán	10	San Lucas Tolimán	10	Octubre	2023-11-10T00:00:00	2024-11-08T07:00:00	4	Temperatura máxima	17.4
152619	7	Sololá	713	San Lucas Tolimán	10	San Lucas Tolimán	10	Octubre	2023-11-10T00:00:00	2024-11-08T07:00:00	3	Temperatura mínima	17.3
152620	7	Sololá	713	San Lucas Tolimán	10	San Lucas Tolimán	10	Octubre	2023-11-10T00:00:00	2024-11-08T07:00:00	5	Humedad	98
152621	7	Sololá	713	San Lucas Tolimán	10	San Lucas Tolimán	10	Octubre	2023-11-10T00:00:00	2024-11-08T07:00:00	6	Velocidad del viento	1.6
152622	7	Sololá	713	San Lucas Tolimán	10	San Lucas Tolimán	10	Octubre	2023-11-10T00:00:00	2024-11-08T07:00:00	7	Dirección del viento	1.61
152623	7	Sololá	713	San Lucas Tolimán	10	San Lucas Tolimán	10	Octubre	2023-11-10T00:00:00	2024-11-08T07:00:00	1	Precipitación	0
152624	7	Sololá	713	San Lucas Tolimán	10	San Lucas Tolimán	10	Octubre	2023-11-10T00:00:00	2024-11-08T07:00:00	8	Radiación solar	20
152625	7	Sololá	713	San Lucas Tolimán	10	San Lucas Tolimán	10	Octubre	2023-11-10T00:00:00	2024-11-08T08:00:00	2	Temperatura media	19.3
152626	7	Sololá	713	San Lucas Tolimán	10	San Lucas Tolimán	10	Octubre	2023-11-10T00:00:00	2024-11-08T08:00:00	4	Temperatura máxima	19.3
152627	7	Sololá	713	San Lucas Tolimán	10	San Lucas Tolimán	10	Octubre	2023-11-10T00:00:00	2024-11-08T08:00:00	3	Temperatura mínima	17.4
152628	7	Sololá	713	San Lucas Tolimán	10	San Lucas Tolimán	10	Octubre	2023-11-10T00:00:00	2024-11-08T08:00:00	5	Humedad	95
152629	7	Sololá	713	San Lucas Tolimán	10	San Lucas Tolimán	10	Octubre	2023-11-10T00:00:00	2024-11-08T08:00:00	6	Velocidad del viento	1.6
152630	7	Sololá	713	San Lucas Tolimán	10	San Lucas Tolimán	10	Octubre	2023-11-10T00:00:00	2024-11-08T08:00:00	7	Dirección del viento	1.61
152631	7	Sololá	713	San Lucas Tolimán	10	San Lucas Tolimán	10	Octubre	2023-11-10T00:00:00	2024-11-08T08:00:00	1	Precipitación	0
152632	7	Sololá	713	San Lucas Tolimán	10	San Lucas Tolimán	10	Octubre	2023-11-10T00:00:00	2024-11-08T08:00:00	8	Radiación solar	253
152633	7	Sololá	713	San Lucas Tolimán	10	San Lucas Tolimán	10	Octubre	2023-11-10T00:00:00	2024-11-08T09:00:00	2	Temperatura media	22.3
152634	7	Sololá	713	San Lucas Tolimán	10	San Lucas Tolimán	10	Octubre	2023-11-10T00:00:00	2024-11-08T09:00:00	4	Temperatura máxima	22.3
152635	7	Sololá	713	San Lucas Tolimán	10	San Lucas Tolimán	10	Octubre	2023-11-10T00:00:00	2024-11-08T09:00:00	3	Temperatura mínima	19.2
152636	7	Sololá	713	San Lucas Tolimán	10	San Lucas Tolimán	10	Octubre	2023-11-10T00:00:00	2024-11-08T09:00:00	5	Humedad	81
152637	7	Sololá	713	San Lucas Tolimán	10	San Lucas Tolimán	10	Octubre	2023-11-10T00:00:00	2024-11-08T09:00:00	6	Velocidad del viento	1.6
152638	7	Sololá	713	San Lucas Tolimán	10	San Lucas Tolimán	10	Octubre	2023-11-10T00:00:00	2024-11-08T09:00:00	7	Dirección del viento	1.61
152639	7	Sololá	713	San Lucas Tolimán	10	San Lucas Tolimán	10	Octubre	2023-11-10T00:00:00	2024-11-08T09:00:00	1	Precipitación	0
152640	7	Sololá	713	San Lucas Tolimán	10	San Lucas Tolimán	10	Octubre	2023-11-10T00:00:00	2024-11-08T09:00:00	8	Radiación solar	517
152641	7	Sololá	713	San Lucas Tolimán	10	San Lucas Tolimán	10	Octubre	2023-11-10T00:00:00	2024-11-08T10:00:00	2	Temperatura media	21.3
152642	7	Sololá	713	San Lucas Tolimán	10	San Lucas Tolimán	10	Octubre	2023-11-10T00:00:00	2024-11-08T10:00:00	4	Temperatura máxima	22.4
152643	7	Sololá	713	San Lucas Tolimán	10	San Lucas Tolimán	10	Octubre	2023-11-10T00:00:00	2024-11-08T10:00:00	3	Temperatura mínima	21.3
152644	7	Sololá	713	San Lucas Tolimán	10	San Lucas Tolimán	10	Octubre	2023-11-10T00:00:00	2024-11-08T10:00:00	5	Humedad	86
152645	7	Sololá	713	San Lucas Tolimán	10	San Lucas Tolimán	10	Octubre	2023-11-10T00:00:00	2024-11-08T10:00:00	6	Velocidad del viento	8
152646	7	Sololá	713	San Lucas Tolimán	10	San Lucas Tolimán	10	Octubre	2023-11-10T00:00:00	2024-11-08T10:00:00	7	Dirección del viento	8.05
152647	7	Sololá	713	San Lucas Tolimán	10	San Lucas Tolimán	10	Octubre	2023-11-10T00:00:00	2024-11-08T10:00:00	1	Precipitación	0
152648	7	Sololá	713	San Lucas Tolimán	10	San Lucas Tolimán	10	Octubre	2023-11-10T00:00:00	2024-11-08T10:00:00	8	Radiación solar	697
152649	7	Sololá	713	San Lucas Tolimán	10	San Lucas Tolimán	10	Octubre	2023-11-10T00:00:00	2024-11-08T11:00:00	2	Temperatura media	20.8
152650	7	Sololá	713	San Lucas Tolimán	10	San Lucas Tolimán	10	Octubre	2023-11-10T00:00:00	2024-11-08T11:00:00	4	Temperatura máxima	21.3
152651	7	Sololá	713	San Lucas Tolimán	10	San Lucas Tolimán	10	Octubre	2023-11-10T00:00:00	2024-11-08T11:00:00	3	Temperatura mínima	20.8
152652	7	Sololá	713	San Lucas Tolimán	10	San Lucas Tolimán	10	Octubre	2023-11-10T00:00:00	2024-11-08T11:00:00	5	Humedad	88
152653	7	Sololá	713	San Lucas Tolimán	10	San Lucas Tolimán	10	Octubre	2023-11-10T00:00:00	2024-11-08T11:00:00	6	Velocidad del viento	9.7
152654	7	Sololá	713	San Lucas Tolimán	10	San Lucas Tolimán	10	Octubre	2023-11-10T00:00:00	2024-11-08T11:00:00	7	Dirección del viento	9.66
152655	7	Sololá	713	San Lucas Tolimán	10	San Lucas Tolimán	10	Octubre	2023-11-10T00:00:00	2024-11-08T11:00:00	1	Precipitación	0
152656	7	Sololá	713	San Lucas Tolimán	10	San Lucas Tolimán	10	Octubre	2023-11-10T00:00:00	2024-11-08T11:00:00	8	Radiación solar	835
152657	7	Sololá	713	San Lucas Tolimán	10	San Lucas Tolimán	10	Octubre	2023-11-10T00:00:00	2024-11-08T12:00:00	2	Temperatura media	20.3
152658	7	Sololá	713	San Lucas Tolimán	10	San Lucas Tolimán	10	Octubre	2023-11-10T00:00:00	2024-11-08T12:00:00	4	Temperatura máxima	21.4
152659	7	Sololá	713	San Lucas Tolimán	10	San Lucas Tolimán	10	Octubre	2023-11-10T00:00:00	2024-11-08T12:00:00	3	Temperatura mínima	20.3
152660	7	Sololá	713	San Lucas Tolimán	10	San Lucas Tolimán	10	Octubre	2023-11-10T00:00:00	2024-11-08T12:00:00	5	Humedad	92
152661	7	Sololá	713	San Lucas Tolimán	10	San Lucas Tolimán	10	Octubre	2023-11-10T00:00:00	2024-11-08T12:00:00	6	Velocidad del viento	8
152662	7	Sololá	713	San Lucas Tolimán	10	San Lucas Tolimán	10	Octubre	2023-11-10T00:00:00	2024-11-08T12:00:00	7	Dirección del viento	8.05
152663	7	Sololá	713	San Lucas Tolimán	10	San Lucas Tolimán	10	Octubre	2023-11-10T00:00:00	2024-11-08T12:00:00	1	Precipitación	0
152664	7	Sololá	713	San Lucas Tolimán	10	San Lucas Tolimán	10	Octubre	2023-11-10T00:00:00	2024-11-08T12:00:00	8	Radiación solar	945
152665	7	Sololá	713	San Lucas Tolimán	10	San Lucas Tolimán	10	Octubre	2023-11-10T00:00:00	2024-11-08T13:00:00	2	Temperatura media	21.6
152666	7	Sololá	713	San Lucas Tolimán	10	San Lucas Tolimán	10	Octubre	2023-11-10T00:00:00	2024-11-08T13:00:00	4	Temperatura máxima	21.8
152667	7	Sololá	713	San Lucas Tolimán	10	San Lucas Tolimán	10	Octubre	2023-11-10T00:00:00	2024-11-08T13:00:00	3	Temperatura mínima	20.3
152668	7	Sololá	713	San Lucas Tolimán	10	San Lucas Tolimán	10	Octubre	2023-11-10T00:00:00	2024-11-08T13:00:00	5	Humedad	87
152669	7	Sololá	713	San Lucas Tolimán	10	San Lucas Tolimán	10	Octubre	2023-11-10T00:00:00	2024-11-08T13:00:00	6	Velocidad del viento	9.7
152670	7	Sololá	713	San Lucas Tolimán	10	San Lucas Tolimán	10	Octubre	2023-11-10T00:00:00	2024-11-08T13:00:00	7	Dirección del viento	9.66
152671	7	Sololá	713	San Lucas Tolimán	10	San Lucas Tolimán	10	Octubre	2023-11-10T00:00:00	2024-11-08T13:00:00	1	Precipitación	0
152672	7	Sololá	713	San Lucas Tolimán	10	San Lucas Tolimán	10	Octubre	2023-11-10T00:00:00	2024-11-08T13:00:00	8	Radiación solar	593
152673	7	Sololá	713	San Lucas Tolimán	10	San Lucas Tolimán	10	Octubre	2023-11-10T00:00:00	2024-11-08T14:00:00	2	Temperatura media	19.2
152674	7	Sololá	713	San Lucas Tolimán	10	San Lucas Tolimán	10	Octubre	2023-11-10T00:00:00	2024-11-08T14:00:00	4	Temperatura máxima	21.6
152675	7	Sololá	713	San Lucas Tolimán	10	San Lucas Tolimán	10	Octubre	2023-11-10T00:00:00	2024-11-08T14:00:00	3	Temperatura mínima	19.1
152676	7	Sololá	713	San Lucas Tolimán	10	San Lucas Tolimán	10	Octubre	2023-11-10T00:00:00	2024-11-08T14:00:00	5	Humedad	66
152677	7	Sololá	713	San Lucas Tolimán	10	San Lucas Tolimán	10	Octubre	2023-11-10T00:00:00	2024-11-08T14:00:00	6	Velocidad del viento	8
152678	7	Sololá	713	San Lucas Tolimán	10	San Lucas Tolimán	10	Octubre	2023-11-10T00:00:00	2024-11-08T14:00:00	7	Dirección del viento	8.05
152679	7	Sololá	713	San Lucas Tolimán	10	San Lucas Tolimán	10	Octubre	2023-11-10T00:00:00	2024-11-08T14:00:00	1	Precipitación	0
152680	7	Sololá	713	San Lucas Tolimán	10	San Lucas Tolimán	10	Octubre	2023-11-10T00:00:00	2024-11-08T14:00:00	8	Radiación solar	82
152681	7	Sololá	713	San Lucas Tolimán	10	San Lucas Tolimán	10	Octubre	2023-11-10T00:00:00	2024-11-08T15:00:00	2	Temperatura media	19.7
152682	7	Sololá	713	San Lucas Tolimán	10	San Lucas Tolimán	10	Octubre	2023-11-10T00:00:00	2024-11-08T15:00:00	4	Temperatura máxima	19.8
152683	7	Sololá	713	San Lucas Tolimán	10	San Lucas Tolimán	10	Octubre	2023-11-10T00:00:00	2024-11-08T15:00:00	3	Temperatura mínima	19.2
152684	7	Sololá	713	San Lucas Tolimán	10	San Lucas Tolimán	10	Octubre	2023-11-10T00:00:00	2024-11-08T15:00:00	5	Humedad	64
152685	7	Sololá	713	San Lucas Tolimán	10	San Lucas Tolimán	10	Octubre	2023-11-10T00:00:00	2024-11-08T15:00:00	6	Velocidad del viento	4.8
152686	7	Sololá	713	San Lucas Tolimán	10	San Lucas Tolimán	10	Octubre	2023-11-10T00:00:00	2024-11-08T15:00:00	7	Dirección del viento	4.83
152687	7	Sololá	713	San Lucas Tolimán	10	San Lucas Tolimán	10	Octubre	2023-11-10T00:00:00	2024-11-08T15:00:00	1	Precipitación	0
152688	7	Sololá	713	San Lucas Tolimán	10	San Lucas Tolimán	10	Octubre	2023-11-10T00:00:00	2024-11-08T15:00:00	8	Radiación solar	143
152689	7	Sololá	713	San Lucas Tolimán	10	San Lucas Tolimán	10	Octubre	2023-11-10T00:00:00	2024-11-08T16:00:00	2	Temperatura media	19.2
152690	7	Sololá	713	San Lucas Tolimán	10	San Lucas Tolimán	10	Octubre	2023-11-10T00:00:00	2024-11-08T16:00:00	4	Temperatura máxima	19.7
152691	7	Sololá	713	San Lucas Tolimán	10	San Lucas Tolimán	10	Octubre	2023-11-10T00:00:00	2024-11-08T16:00:00	3	Temperatura mínima	19.1
152692	7	Sololá	713	San Lucas Tolimán	10	San Lucas Tolimán	10	Octubre	2023-11-10T00:00:00	2024-11-08T16:00:00	5	Humedad	65
152693	7	Sololá	713	San Lucas Tolimán	10	San Lucas Tolimán	10	Octubre	2023-11-10T00:00:00	2024-11-08T16:00:00	6	Velocidad del viento	6.4
152694	7	Sololá	713	San Lucas Tolimán	10	San Lucas Tolimán	10	Octubre	2023-11-10T00:00:00	2024-11-08T16:00:00	7	Dirección del viento	6.44
152695	7	Sololá	713	San Lucas Tolimán	10	San Lucas Tolimán	10	Octubre	2023-11-10T00:00:00	2024-11-08T16:00:00	1	Precipitación	0
152696	7	Sololá	713	San Lucas Tolimán	10	San Lucas Tolimán	10	Octubre	2023-11-10T00:00:00	2024-11-08T16:00:00	8	Radiación solar	36
152697	7	Sololá	713	San Lucas Tolimán	10	San Lucas Tolimán	10	Octubre	2023-11-10T00:00:00	2024-11-08T17:00:00	2	Temperatura media	18.8
152698	7	Sololá	713	San Lucas Tolimán	10	San Lucas Tolimán	10	Octubre	2023-11-10T00:00:00	2024-11-08T17:00:00	4	Temperatura máxima	19.2
152699	7	Sololá	713	San Lucas Tolimán	10	San Lucas Tolimán	10	Octubre	2023-11-10T00:00:00	2024-11-08T17:00:00	3	Temperatura mínima	18.8
152700	7	Sololá	713	San Lucas Tolimán	10	San Lucas Tolimán	10	Octubre	2023-11-10T00:00:00	2024-11-08T17:00:00	5	Humedad	66
152701	7	Sololá	713	San Lucas Tolimán	10	San Lucas Tolimán	10	Octubre	2023-11-10T00:00:00	2024-11-08T17:00:00	6	Velocidad del viento	6.4
152702	7	Sololá	713	San Lucas Tolimán	10	San Lucas Tolimán	10	Octubre	2023-11-10T00:00:00	2024-11-08T17:00:00	7	Dirección del viento	6.44
152703	7	Sololá	713	San Lucas Tolimán	10	San Lucas Tolimán	10	Octubre	2023-11-10T00:00:00	2024-11-08T17:00:00	1	Precipitación	0
152704	7	Sololá	713	San Lucas Tolimán	10	San Lucas Tolimán	10	Octubre	2023-11-10T00:00:00	2024-11-08T17:00:00	8	Radiación solar	20
152705	7	Sololá	713	San Lucas Tolimán	10	San Lucas Tolimán	10	Octubre	2023-11-10T00:00:00	2024-11-08T18:00:00	2	Temperatura media	18.6
152706	7	Sololá	713	San Lucas Tolimán	10	San Lucas Tolimán	10	Octubre	2023-11-10T00:00:00	2024-11-08T18:00:00	4	Temperatura máxima	18.8
152707	7	Sololá	713	San Lucas Tolimán	10	San Lucas Tolimán	10	Octubre	2023-11-10T00:00:00	2024-11-08T18:00:00	3	Temperatura mínima	18.6
152708	7	Sololá	713	San Lucas Tolimán	10	San Lucas Tolimán	10	Octubre	2023-11-10T00:00:00	2024-11-08T18:00:00	5	Humedad	67
152709	7	Sololá	713	San Lucas Tolimán	10	San Lucas Tolimán	10	Octubre	2023-11-10T00:00:00	2024-11-08T18:00:00	6	Velocidad del viento	6.4
152710	7	Sololá	713	San Lucas Tolimán	10	San Lucas Tolimán	10	Octubre	2023-11-10T00:00:00	2024-11-08T18:00:00	7	Dirección del viento	6.44
152711	7	Sololá	713	San Lucas Tolimán	10	San Lucas Tolimán	10	Octubre	2023-11-10T00:00:00	2024-11-08T18:00:00	1	Precipitación	0.2
152712	7	Sololá	713	San Lucas Tolimán	10	San Lucas Tolimán	10	Octubre	2023-11-10T00:00:00	2024-11-08T18:00:00	8	Radiación solar	1
152713	7	Sololá	713	San Lucas Tolimán	10	San Lucas Tolimán	10	Octubre	2023-11-10T00:00:00	2024-11-08T19:00:00	2	Temperatura media	18.4
152714	7	Sololá	713	San Lucas Tolimán	10	San Lucas Tolimán	10	Octubre	2023-11-10T00:00:00	2024-11-08T19:00:00	4	Temperatura máxima	18.7
152715	7	Sololá	713	San Lucas Tolimán	10	San Lucas Tolimán	10	Octubre	2023-11-10T00:00:00	2024-11-08T19:00:00	3	Temperatura mínima	18.4
152716	7	Sololá	713	San Lucas Tolimán	10	San Lucas Tolimán	10	Octubre	2023-11-10T00:00:00	2024-11-08T19:00:00	5	Humedad	68
152717	7	Sololá	713	San Lucas Tolimán	10	San Lucas Tolimán	10	Octubre	2023-11-10T00:00:00	2024-11-08T19:00:00	6	Velocidad del viento	1.6
152718	7	Sololá	713	San Lucas Tolimán	10	San Lucas Tolimán	10	Octubre	2023-11-10T00:00:00	2024-11-08T19:00:00	7	Dirección del viento	1.61
152719	7	Sololá	713	San Lucas Tolimán	10	San Lucas Tolimán	10	Octubre	2023-11-10T00:00:00	2024-11-08T19:00:00	1	Precipitación	1
152720	7	Sololá	713	San Lucas Tolimán	10	San Lucas Tolimán	10	Octubre	2023-11-10T00:00:00	2024-11-08T19:00:00	8	Radiación solar	0
152721	7	Sololá	713	San Lucas Tolimán	10	San Lucas Tolimán	10	Octubre	2023-11-10T00:00:00	2024-11-08T20:00:00	2	Temperatura media	18.2
152722	7	Sololá	713	San Lucas Tolimán	10	San Lucas Tolimán	10	Octubre	2023-11-10T00:00:00	2024-11-08T20:00:00	4	Temperatura máxima	18.4
152723	7	Sololá	713	San Lucas Tolimán	10	San Lucas Tolimán	10	Octubre	2023-11-10T00:00:00	2024-11-08T20:00:00	3	Temperatura mínima	18.2
152724	7	Sololá	713	San Lucas Tolimán	10	San Lucas Tolimán	10	Octubre	2023-11-10T00:00:00	2024-11-08T20:00:00	5	Humedad	67
152725	7	Sololá	713	San Lucas Tolimán	10	San Lucas Tolimán	10	Octubre	2023-11-10T00:00:00	2024-11-08T20:00:00	6	Velocidad del viento	3.2
152726	7	Sololá	713	San Lucas Tolimán	10	San Lucas Tolimán	10	Octubre	2023-11-10T00:00:00	2024-11-08T20:00:00	7	Dirección del viento	3.22
152727	7	Sololá	713	San Lucas Tolimán	10	San Lucas Tolimán	10	Octubre	2023-11-10T00:00:00	2024-11-08T20:00:00	1	Precipitación	2.2
152728	7	Sololá	713	San Lucas Tolimán	10	San Lucas Tolimán	10	Octubre	2023-11-10T00:00:00	2024-11-08T20:00:00	8	Radiación solar	0
152729	7	Sololá	713	San Lucas Tolimán	10	San Lucas Tolimán	10	Octubre	2023-11-10T00:00:00	2024-11-08T21:00:00	2	Temperatura media	18.2
152730	7	Sololá	713	San Lucas Tolimán	10	San Lucas Tolimán	10	Octubre	2023-11-10T00:00:00	2024-11-08T21:00:00	4	Temperatura máxima	18.3
152731	7	Sololá	713	San Lucas Tolimán	10	San Lucas Tolimán	10	Octubre	2023-11-10T00:00:00	2024-11-08T21:00:00	3	Temperatura mínima	18.2
152732	7	Sololá	713	San Lucas Tolimán	10	San Lucas Tolimán	10	Octubre	2023-11-10T00:00:00	2024-11-08T21:00:00	5	Humedad	67
152733	7	Sololá	713	San Lucas Tolimán	10	San Lucas Tolimán	10	Octubre	2023-11-10T00:00:00	2024-11-08T21:00:00	6	Velocidad del viento	1.6
152734	7	Sololá	713	San Lucas Tolimán	10	San Lucas Tolimán	10	Octubre	2023-11-10T00:00:00	2024-11-08T21:00:00	7	Dirección del viento	1.61
152735	7	Sololá	713	San Lucas Tolimán	10	San Lucas Tolimán	10	Octubre	2023-11-10T00:00:00	2024-11-08T21:00:00	1	Precipitación	1
152736	7	Sololá	713	San Lucas Tolimán	10	San Lucas Tolimán	10	Octubre	2023-11-10T00:00:00	2024-11-08T21:00:00	8	Radiación solar	0
152737	7	Sololá	713	San Lucas Tolimán	10	San Lucas Tolimán	10	Octubre	2023-11-10T00:00:00	2024-11-08T22:00:00	2	Temperatura media	18.1
152738	7	Sololá	713	San Lucas Tolimán	10	San Lucas Tolimán	10	Octubre	2023-11-10T00:00:00	2024-11-08T22:00:00	4	Temperatura máxima	18.3
152739	7	Sololá	713	San Lucas Tolimán	10	San Lucas Tolimán	10	Octubre	2023-11-10T00:00:00	2024-11-08T22:00:00	3	Temperatura mínima	18.1
152740	7	Sololá	713	San Lucas Tolimán	10	San Lucas Tolimán	10	Octubre	2023-11-10T00:00:00	2024-11-08T22:00:00	5	Humedad	68
152741	7	Sololá	713	San Lucas Tolimán	10	San Lucas Tolimán	10	Octubre	2023-11-10T00:00:00	2024-11-08T22:00:00	6	Velocidad del viento	1.6
152742	7	Sololá	713	San Lucas Tolimán	10	San Lucas Tolimán	10	Octubre	2023-11-10T00:00:00	2024-11-08T22:00:00	7	Dirección del viento	1.61
152743	7	Sololá	713	San Lucas Tolimán	10	San Lucas Tolimán	10	Octubre	2023-11-10T00:00:00	2024-11-08T22:00:00	1	Precipitación	1.4
152744	7	Sololá	713	San Lucas Tolimán	10	San Lucas Tolimán	10	Octubre	2023-11-10T00:00:00	2024-11-08T22:00:00	8	Radiación solar	0
152745	7	Sololá	713	San Lucas Tolimán	10	San Lucas Tolimán	10	Octubre	2023-11-10T00:00:00	2024-11-08T23:00:00	2	Temperatura media	17.9
152746	7	Sololá	713	San Lucas Tolimán	10	San Lucas Tolimán	10	Octubre	2023-11-10T00:00:00	2024-11-08T23:00:00	4	Temperatura máxima	18.1
152747	7	Sololá	713	San Lucas Tolimán	10	San Lucas Tolimán	10	Octubre	2023-11-10T00:00:00	2024-11-08T23:00:00	3	Temperatura mínima	17.9
152748	7	Sololá	713	San Lucas Tolimán	10	San Lucas Tolimán	10	Octubre	2023-11-10T00:00:00	2024-11-08T23:00:00	5	Humedad	68
152749	7	Sololá	713	San Lucas Tolimán	10	San Lucas Tolimán	10	Octubre	2023-11-10T00:00:00	2024-11-08T23:00:00	6	Velocidad del viento	3.2
152750	7	Sololá	713	San Lucas Tolimán	10	San Lucas Tolimán	10	Octubre	2023-11-10T00:00:00	2024-11-08T23:00:00	7	Dirección del viento	3.22
152751	7	Sololá	713	San Lucas Tolimán	10	San Lucas Tolimán	10	Octubre	2023-11-10T00:00:00	2024-11-08T23:00:00	1	Precipitación	0.4
152752	7	Sololá	713	San Lucas Tolimán	10	San Lucas Tolimán	10	Octubre	2023-11-10T00:00:00	2024-11-08T23:00:00	8	Radiación solar	0
152753	7	Sololá	713	San Lucas Tolimán	10	San Lucas Tolimán	10	Octubre	2023-12-10T00:00:00	2024-11-08T00:00:00	2	Temperatura media	17.8
152754	7	Sololá	713	San Lucas Tolimán	10	San Lucas Tolimán	10	Octubre	2023-12-10T00:00:00	2024-11-08T00:00:00	4	Temperatura máxima	18
152755	7	Sololá	713	San Lucas Tolimán	10	San Lucas Tolimán	10	Octubre	2023-12-10T00:00:00	2024-11-08T00:00:00	3	Temperatura mínima	17.8
152756	7	Sololá	713	San Lucas Tolimán	10	San Lucas Tolimán	10	Octubre	2023-12-10T00:00:00	2024-11-08T00:00:00	5	Humedad	68
152757	7	Sololá	713	San Lucas Tolimán	10	San Lucas Tolimán	10	Octubre	2023-12-10T00:00:00	2024-11-08T00:00:00	6	Velocidad del viento	4.8
152758	7	Sololá	713	San Lucas Tolimán	10	San Lucas Tolimán	10	Octubre	2023-12-10T00:00:00	2024-11-08T00:00:00	7	Dirección del viento	4.83
152759	7	Sololá	713	San Lucas Tolimán	10	San Lucas Tolimán	10	Octubre	2023-12-10T00:00:00	2024-11-08T00:00:00	1	Precipitación	0
152760	7	Sololá	713	San Lucas Tolimán	10	San Lucas Tolimán	10	Octubre	2023-12-10T00:00:00	2024-11-08T00:00:00	8	Radiación solar	0
152761	7	Sololá	713	San Lucas Tolimán	10	San Lucas Tolimán	10	Octubre	2023-12-10T00:00:00	2024-11-08T01:00:00	2	Temperatura media	17.7
152762	7	Sololá	713	San Lucas Tolimán	10	San Lucas Tolimán	10	Octubre	2023-12-10T00:00:00	2024-11-08T01:00:00	4	Temperatura máxima	17.9
152763	7	Sololá	713	San Lucas Tolimán	10	San Lucas Tolimán	10	Octubre	2023-12-10T00:00:00	2024-11-08T01:00:00	3	Temperatura mínima	17.7
152764	7	Sololá	713	San Lucas Tolimán	10	San Lucas Tolimán	10	Octubre	2023-12-10T00:00:00	2024-11-08T01:00:00	5	Humedad	97
152765	7	Sololá	713	San Lucas Tolimán	10	San Lucas Tolimán	10	Octubre	2023-12-10T00:00:00	2024-11-08T01:00:00	6	Velocidad del viento	4.8
152766	7	Sololá	713	San Lucas Tolimán	10	San Lucas Tolimán	10	Octubre	2023-12-10T00:00:00	2024-11-08T01:00:00	7	Dirección del viento	4.83
152767	7	Sololá	713	San Lucas Tolimán	10	San Lucas Tolimán	10	Octubre	2023-12-10T00:00:00	2024-11-08T01:00:00	1	Precipitación	0
152768	7	Sololá	713	San Lucas Tolimán	10	San Lucas Tolimán	10	Octubre	2023-12-10T00:00:00	2024-11-08T01:00:00	8	Radiación solar	0
152769	7	Sololá	713	San Lucas Tolimán	10	San Lucas Tolimán	10	Octubre	2023-12-10T00:00:00	2024-11-08T02:00:00	2	Temperatura media	17.7
152770	7	Sololá	713	San Lucas Tolimán	10	San Lucas Tolimán	10	Octubre	2023-12-10T00:00:00	2024-11-08T02:00:00	4	Temperatura máxima	17.7
152771	7	Sololá	713	San Lucas Tolimán	10	San Lucas Tolimán	10	Octubre	2023-12-10T00:00:00	2024-11-08T02:00:00	3	Temperatura mínima	17.6
152772	7	Sololá	713	San Lucas Tolimán	10	San Lucas Tolimán	10	Octubre	2023-12-10T00:00:00	2024-11-08T02:00:00	5	Humedad	98
152773	7	Sololá	713	San Lucas Tolimán	10	San Lucas Tolimán	10	Octubre	2023-12-10T00:00:00	2024-11-08T02:00:00	6	Velocidad del viento	4.8
152774	7	Sololá	713	San Lucas Tolimán	10	San Lucas Tolimán	10	Octubre	2023-12-10T00:00:00	2024-11-08T02:00:00	7	Dirección del viento	4.83
152775	7	Sololá	713	San Lucas Tolimán	10	San Lucas Tolimán	10	Octubre	2023-12-10T00:00:00	2024-11-08T02:00:00	1	Precipitación	0
152776	7	Sololá	713	San Lucas Tolimán	10	San Lucas Tolimán	10	Octubre	2023-12-10T00:00:00	2024-11-08T02:00:00	8	Radiación solar	0
152777	7	Sololá	713	San Lucas Tolimán	10	San Lucas Tolimán	10	Octubre	2023-12-10T00:00:00	2024-11-08T03:00:00	2	Temperatura media	17.7
152778	7	Sololá	713	San Lucas Tolimán	10	San Lucas Tolimán	10	Octubre	2023-12-10T00:00:00	2024-11-08T03:00:00	4	Temperatura máxima	17.7
152779	7	Sololá	713	San Lucas Tolimán	10	San Lucas Tolimán	10	Octubre	2023-12-10T00:00:00	2024-11-08T03:00:00	3	Temperatura mínima	17.6
152780	7	Sololá	713	San Lucas Tolimán	10	San Lucas Tolimán	10	Octubre	2023-12-10T00:00:00	2024-11-08T03:00:00	5	Humedad	98
152781	7	Sololá	713	San Lucas Tolimán	10	San Lucas Tolimán	10	Octubre	2023-12-10T00:00:00	2024-11-08T03:00:00	6	Velocidad del viento	4.8
152782	7	Sololá	713	San Lucas Tolimán	10	San Lucas Tolimán	10	Octubre	2023-12-10T00:00:00	2024-11-08T03:00:00	7	Dirección del viento	4.83
152783	7	Sololá	713	San Lucas Tolimán	10	San Lucas Tolimán	10	Octubre	2023-12-10T00:00:00	2024-11-08T03:00:00	1	Precipitación	0
152784	7	Sololá	713	San Lucas Tolimán	10	San Lucas Tolimán	10	Octubre	2023-12-10T00:00:00	2024-11-08T03:00:00	8	Radiación solar	0
152785	7	Sololá	713	San Lucas Tolimán	10	San Lucas Tolimán	10	Octubre	2023-12-10T00:00:00	2024-11-08T04:00:00	2	Temperatura media	17.5
152786	7	Sololá	713	San Lucas Tolimán	10	San Lucas Tolimán	10	Octubre	2023-12-10T00:00:00	2024-11-08T04:00:00	4	Temperatura máxima	17.7
152787	7	Sololá	713	San Lucas Tolimán	10	San Lucas Tolimán	10	Octubre	2023-12-10T00:00:00	2024-11-08T04:00:00	3	Temperatura mínima	17.5
152788	7	Sololá	713	San Lucas Tolimán	10	San Lucas Tolimán	10	Octubre	2023-12-10T00:00:00	2024-11-08T04:00:00	5	Humedad	98
152789	7	Sololá	713	San Lucas Tolimán	10	San Lucas Tolimán	10	Octubre	2023-12-10T00:00:00	2024-11-08T04:00:00	6	Velocidad del viento	3.2
152790	7	Sololá	713	San Lucas Tolimán	10	San Lucas Tolimán	10	Octubre	2023-12-10T00:00:00	2024-11-08T04:00:00	7	Dirección del viento	3.22
152791	7	Sololá	713	San Lucas Tolimán	10	San Lucas Tolimán	10	Octubre	2023-12-10T00:00:00	2024-11-08T04:00:00	1	Precipitación	0.2
152792	7	Sololá	713	San Lucas Tolimán	10	San Lucas Tolimán	10	Octubre	2023-12-10T00:00:00	2024-11-08T04:00:00	8	Radiación solar	0
152793	7	Sololá	713	San Lucas Tolimán	10	San Lucas Tolimán	10	Octubre	2023-12-10T00:00:00	2024-11-08T05:00:00	2	Temperatura media	17.3
152794	7	Sololá	713	San Lucas Tolimán	10	San Lucas Tolimán	10	Octubre	2023-12-10T00:00:00	2024-11-08T05:00:00	4	Temperatura máxima	17.5
152795	7	Sololá	713	San Lucas Tolimán	10	San Lucas Tolimán	10	Octubre	2023-12-10T00:00:00	2024-11-08T05:00:00	3	Temperatura mínima	17.2
152796	7	Sololá	713	San Lucas Tolimán	10	San Lucas Tolimán	10	Octubre	2023-12-10T00:00:00	2024-11-08T05:00:00	5	Humedad	98
152797	7	Sololá	713	San Lucas Tolimán	10	San Lucas Tolimán	10	Octubre	2023-12-10T00:00:00	2024-11-08T05:00:00	6	Velocidad del viento	1.6
152798	7	Sololá	713	San Lucas Tolimán	10	San Lucas Tolimán	10	Octubre	2023-12-10T00:00:00	2024-11-08T05:00:00	7	Dirección del viento	1.61
152799	7	Sololá	713	San Lucas Tolimán	10	San Lucas Tolimán	10	Octubre	2023-12-10T00:00:00	2024-11-08T05:00:00	1	Precipitación	0
152800	7	Sololá	713	San Lucas Tolimán	10	San Lucas Tolimán	10	Octubre	2023-12-10T00:00:00	2024-11-08T05:00:00	8	Radiación solar	0
152801	7	Sololá	713	San Lucas Tolimán	10	San Lucas Tolimán	10	Octubre	2023-12-10T00:00:00	2024-11-08T06:00:00	2	Temperatura media	17.5
152802	7	Sololá	713	San Lucas Tolimán	10	San Lucas Tolimán	10	Octubre	2023-12-10T00:00:00	2024-11-08T06:00:00	4	Temperatura máxima	17.6
152803	7	Sololá	713	San Lucas Tolimán	10	San Lucas Tolimán	10	Octubre	2023-12-10T00:00:00	2024-11-08T06:00:00	3	Temperatura mínima	17.3
152804	7	Sololá	713	San Lucas Tolimán	10	San Lucas Tolimán	10	Octubre	2023-12-10T00:00:00	2024-11-08T06:00:00	5	Humedad	95
152805	7	Sololá	713	San Lucas Tolimán	10	San Lucas Tolimán	10	Octubre	2023-12-10T00:00:00	2024-11-08T06:00:00	6	Velocidad del viento	4.8
152806	7	Sololá	713	San Lucas Tolimán	10	San Lucas Tolimán	10	Octubre	2023-12-10T00:00:00	2024-11-08T06:00:00	7	Dirección del viento	4.83
152807	7	Sololá	713	San Lucas Tolimán	10	San Lucas Tolimán	10	Octubre	2023-12-10T00:00:00	2024-11-08T06:00:00	1	Precipitación	0
152808	7	Sololá	713	San Lucas Tolimán	10	San Lucas Tolimán	10	Octubre	2023-12-10T00:00:00	2024-11-08T06:00:00	8	Radiación solar	0
152809	7	Sololá	713	San Lucas Tolimán	10	San Lucas Tolimán	10	Octubre	2023-12-10T00:00:00	2024-11-08T07:00:00	2	Temperatura media	17.2
152810	7	Sololá	713	San Lucas Tolimán	10	San Lucas Tolimán	10	Octubre	2023-12-10T00:00:00	2024-11-08T07:00:00	4	Temperatura máxima	17.6
152811	7	Sololá	713	San Lucas Tolimán	10	San Lucas Tolimán	10	Octubre	2023-12-10T00:00:00	2024-11-08T07:00:00	3	Temperatura mínima	17.2
152812	7	Sololá	713	San Lucas Tolimán	10	San Lucas Tolimán	10	Octubre	2023-12-10T00:00:00	2024-11-08T07:00:00	5	Humedad	97
152813	7	Sololá	713	San Lucas Tolimán	10	San Lucas Tolimán	10	Octubre	2023-12-10T00:00:00	2024-11-08T07:00:00	6	Velocidad del viento	6.4
152814	7	Sololá	713	San Lucas Tolimán	10	San Lucas Tolimán	10	Octubre	2023-12-10T00:00:00	2024-11-08T07:00:00	7	Dirección del viento	6.44
152815	7	Sololá	713	San Lucas Tolimán	10	San Lucas Tolimán	10	Octubre	2023-12-10T00:00:00	2024-11-08T07:00:00	1	Precipitación	0
152816	7	Sololá	713	San Lucas Tolimán	10	San Lucas Tolimán	10	Octubre	2023-12-10T00:00:00	2024-11-08T07:00:00	8	Radiación solar	14
152817	7	Sololá	713	San Lucas Tolimán	10	San Lucas Tolimán	10	Octubre	2023-12-10T00:00:00	2024-11-08T08:00:00	2	Temperatura media	18.7
152818	7	Sololá	713	San Lucas Tolimán	10	San Lucas Tolimán	10	Octubre	2023-12-10T00:00:00	2024-11-08T08:00:00	4	Temperatura máxima	18.7
152819	7	Sololá	713	San Lucas Tolimán	10	San Lucas Tolimán	10	Octubre	2023-12-10T00:00:00	2024-11-08T08:00:00	3	Temperatura mínima	17.2
152820	7	Sololá	713	San Lucas Tolimán	10	San Lucas Tolimán	10	Octubre	2023-12-10T00:00:00	2024-11-08T08:00:00	5	Humedad	94
152821	7	Sololá	713	San Lucas Tolimán	10	San Lucas Tolimán	10	Octubre	2023-12-10T00:00:00	2024-11-08T08:00:00	6	Velocidad del viento	3.2
152822	7	Sololá	713	San Lucas Tolimán	10	San Lucas Tolimán	10	Octubre	2023-12-10T00:00:00	2024-11-08T08:00:00	7	Dirección del viento	3.22
152823	7	Sololá	713	San Lucas Tolimán	10	San Lucas Tolimán	10	Octubre	2023-12-10T00:00:00	2024-11-08T08:00:00	1	Precipitación	0
152824	7	Sololá	713	San Lucas Tolimán	10	San Lucas Tolimán	10	Octubre	2023-12-10T00:00:00	2024-11-08T08:00:00	8	Radiación solar	240
152825	7	Sololá	713	San Lucas Tolimán	10	San Lucas Tolimán	10	Octubre	2023-12-10T00:00:00	2024-11-08T09:00:00	2	Temperatura media	19.2
152826	7	Sololá	713	San Lucas Tolimán	10	San Lucas Tolimán	10	Octubre	2023-12-10T00:00:00	2024-11-08T09:00:00	4	Temperatura máxima	19.8
152827	7	Sololá	713	San Lucas Tolimán	10	San Lucas Tolimán	10	Octubre	2023-12-10T00:00:00	2024-11-08T09:00:00	3	Temperatura mínima	18.7
152828	7	Sololá	713	San Lucas Tolimán	10	San Lucas Tolimán	10	Octubre	2023-12-10T00:00:00	2024-11-08T09:00:00	5	Humedad	91
152829	7	Sololá	713	San Lucas Tolimán	10	San Lucas Tolimán	10	Octubre	2023-12-10T00:00:00	2024-11-08T09:00:00	6	Velocidad del viento	8
152830	7	Sololá	713	San Lucas Tolimán	10	San Lucas Tolimán	10	Octubre	2023-12-10T00:00:00	2024-11-08T09:00:00	7	Dirección del viento	8.05
152831	7	Sololá	713	San Lucas Tolimán	10	San Lucas Tolimán	10	Octubre	2023-12-10T00:00:00	2024-11-08T09:00:00	1	Precipitación	0
152832	7	Sololá	713	San Lucas Tolimán	10	San Lucas Tolimán	10	Octubre	2023-12-10T00:00:00	2024-11-08T09:00:00	8	Radiación solar	521
152833	7	Sololá	713	San Lucas Tolimán	10	San Lucas Tolimán	10	Octubre	2023-12-10T00:00:00	2024-11-08T10:00:00	2	Temperatura media	20.8
152834	7	Sololá	713	San Lucas Tolimán	10	San Lucas Tolimán	10	Octubre	2023-12-10T00:00:00	2024-11-08T10:00:00	4	Temperatura máxima	20.8
152835	7	Sololá	713	San Lucas Tolimán	10	San Lucas Tolimán	10	Octubre	2023-12-10T00:00:00	2024-11-08T10:00:00	3	Temperatura mínima	19.2
152836	7	Sololá	713	San Lucas Tolimán	10	San Lucas Tolimán	10	Octubre	2023-12-10T00:00:00	2024-11-08T10:00:00	5	Humedad	87
152837	7	Sololá	713	San Lucas Tolimán	10	San Lucas Tolimán	10	Octubre	2023-12-10T00:00:00	2024-11-08T10:00:00	6	Velocidad del viento	6.4
152838	7	Sololá	713	San Lucas Tolimán	10	San Lucas Tolimán	10	Octubre	2023-12-10T00:00:00	2024-11-08T10:00:00	7	Dirección del viento	6.44
152839	7	Sololá	713	San Lucas Tolimán	10	San Lucas Tolimán	10	Octubre	2023-12-10T00:00:00	2024-11-08T10:00:00	1	Precipitación	0
152840	7	Sololá	713	San Lucas Tolimán	10	San Lucas Tolimán	10	Octubre	2023-12-10T00:00:00	2024-11-08T10:00:00	8	Radiación solar	718
152841	7	Sololá	713	San Lucas Tolimán	10	San Lucas Tolimán	10	Octubre	2023-12-10T00:00:00	2024-11-08T11:00:00	2	Temperatura media	23.9
152842	7	Sololá	713	San Lucas Tolimán	10	San Lucas Tolimán	10	Octubre	2023-12-10T00:00:00	2024-11-08T11:00:00	4	Temperatura máxima	24.3
152843	7	Sololá	713	San Lucas Tolimán	10	San Lucas Tolimán	10	Octubre	2023-12-10T00:00:00	2024-11-08T11:00:00	3	Temperatura mínima	20.8
152844	7	Sololá	713	San Lucas Tolimán	10	San Lucas Tolimán	10	Octubre	2023-12-10T00:00:00	2024-11-08T11:00:00	5	Humedad	75
152845	7	Sololá	713	San Lucas Tolimán	10	San Lucas Tolimán	10	Octubre	2023-12-10T00:00:00	2024-11-08T11:00:00	6	Velocidad del viento	3.2
152846	7	Sololá	713	San Lucas Tolimán	10	San Lucas Tolimán	10	Octubre	2023-12-10T00:00:00	2024-11-08T11:00:00	7	Dirección del viento	3.22
152847	7	Sololá	713	San Lucas Tolimán	10	San Lucas Tolimán	10	Octubre	2023-12-10T00:00:00	2024-11-08T11:00:00	1	Precipitación	0
152848	7	Sololá	713	San Lucas Tolimán	10	San Lucas Tolimán	10	Octubre	2023-12-10T00:00:00	2024-11-08T11:00:00	8	Radiación solar	854
152849	7	Sololá	713	San Lucas Tolimán	10	San Lucas Tolimán	10	Octubre	2023-12-10T00:00:00	2024-11-08T12:00:00	2	Temperatura media	24.3
152850	7	Sololá	713	San Lucas Tolimán	10	San Lucas Tolimán	10	Octubre	2023-12-10T00:00:00	2024-11-08T12:00:00	4	Temperatura máxima	24.3
152851	7	Sololá	713	San Lucas Tolimán	10	San Lucas Tolimán	10	Octubre	2023-12-10T00:00:00	2024-11-08T12:00:00	3	Temperatura mínima	23.3
152852	7	Sololá	713	San Lucas Tolimán	10	San Lucas Tolimán	10	Octubre	2023-12-10T00:00:00	2024-11-08T12:00:00	5	Humedad	76
152853	7	Sololá	713	San Lucas Tolimán	10	San Lucas Tolimán	10	Octubre	2023-12-10T00:00:00	2024-11-08T12:00:00	6	Velocidad del viento	3.2
152854	7	Sololá	713	San Lucas Tolimán	10	San Lucas Tolimán	10	Octubre	2023-12-10T00:00:00	2024-11-08T12:00:00	7	Dirección del viento	3.22
152855	7	Sololá	713	San Lucas Tolimán	10	San Lucas Tolimán	10	Octubre	2023-12-10T00:00:00	2024-11-08T12:00:00	1	Precipitación	0
152856	7	Sololá	713	San Lucas Tolimán	10	San Lucas Tolimán	10	Octubre	2023-12-10T00:00:00	2024-11-08T12:00:00	8	Radiación solar	935
152857	7	Sololá	713	San Lucas Tolimán	10	San Lucas Tolimán	10	Octubre	2023-12-10T00:00:00	2024-11-08T13:00:00	2	Temperatura media	21.4
152858	7	Sololá	713	San Lucas Tolimán	10	San Lucas Tolimán	10	Octubre	2023-12-10T00:00:00	2024-11-08T13:00:00	4	Temperatura máxima	24.4
152859	7	Sololá	713	San Lucas Tolimán	10	San Lucas Tolimán	10	Octubre	2023-12-10T00:00:00	2024-11-08T13:00:00	3	Temperatura mínima	21.4
152860	7	Sololá	713	San Lucas Tolimán	10	San Lucas Tolimán	10	Octubre	2023-12-10T00:00:00	2024-11-08T13:00:00	5	Humedad	91
152861	7	Sololá	713	San Lucas Tolimán	10	San Lucas Tolimán	10	Octubre	2023-12-10T00:00:00	2024-11-08T13:00:00	6	Velocidad del viento	9.7
152862	7	Sololá	713	San Lucas Tolimán	10	San Lucas Tolimán	10	Octubre	2023-12-10T00:00:00	2024-11-08T13:00:00	7	Dirección del viento	9.66
152863	7	Sololá	713	San Lucas Tolimán	10	San Lucas Tolimán	10	Octubre	2023-12-10T00:00:00	2024-11-08T13:00:00	1	Precipitación	0
152864	7	Sololá	713	San Lucas Tolimán	10	San Lucas Tolimán	10	Octubre	2023-12-10T00:00:00	2024-11-08T13:00:00	8	Radiación solar	916
152865	7	Sololá	713	San Lucas Tolimán	10	San Lucas Tolimán	10	Octubre	2023-12-10T00:00:00	2024-11-08T14:00:00	2	Temperatura media	20.4
152866	7	Sololá	713	San Lucas Tolimán	10	San Lucas Tolimán	10	Octubre	2023-12-10T00:00:00	2024-11-08T14:00:00	4	Temperatura máxima	21.5
152867	7	Sololá	713	San Lucas Tolimán	10	San Lucas Tolimán	10	Octubre	2023-12-10T00:00:00	2024-11-08T14:00:00	3	Temperatura mínima	20.4
152868	7	Sololá	713	San Lucas Tolimán	10	San Lucas Tolimán	10	Octubre	2023-12-10T00:00:00	2024-11-08T14:00:00	5	Humedad	89
152869	7	Sololá	713	San Lucas Tolimán	10	San Lucas Tolimán	10	Octubre	2023-12-10T00:00:00	2024-11-08T14:00:00	6	Velocidad del viento	11.3
152870	7	Sololá	713	San Lucas Tolimán	10	San Lucas Tolimán	10	Octubre	2023-12-10T00:00:00	2024-11-08T14:00:00	7	Dirección del viento	11.27
152871	7	Sololá	713	San Lucas Tolimán	10	San Lucas Tolimán	10	Octubre	2023-12-10T00:00:00	2024-11-08T14:00:00	1	Precipitación	0
152872	7	Sololá	713	San Lucas Tolimán	10	San Lucas Tolimán	10	Octubre	2023-12-10T00:00:00	2024-11-08T14:00:00	8	Radiación solar	794
152873	7	Sololá	713	San Lucas Tolimán	10	San Lucas Tolimán	10	Octubre	2023-12-10T00:00:00	2024-11-08T15:00:00	2	Temperatura media	20.2
152874	7	Sololá	713	San Lucas Tolimán	10	San Lucas Tolimán	10	Octubre	2023-12-10T00:00:00	2024-11-08T15:00:00	4	Temperatura máxima	20.7
152875	7	Sololá	713	San Lucas Tolimán	10	San Lucas Tolimán	10	Octubre	2023-12-10T00:00:00	2024-11-08T15:00:00	3	Temperatura mínima	20.2
152876	7	Sololá	713	San Lucas Tolimán	10	San Lucas Tolimán	10	Octubre	2023-12-10T00:00:00	2024-11-08T15:00:00	5	Humedad	93
152877	7	Sololá	713	San Lucas Tolimán	10	San Lucas Tolimán	10	Octubre	2023-12-10T00:00:00	2024-11-08T15:00:00	6	Velocidad del viento	8
152878	7	Sololá	713	San Lucas Tolimán	10	San Lucas Tolimán	10	Octubre	2023-12-10T00:00:00	2024-11-08T15:00:00	7	Dirección del viento	8.05
152879	7	Sololá	713	San Lucas Tolimán	10	San Lucas Tolimán	10	Octubre	2023-12-10T00:00:00	2024-11-08T15:00:00	1	Precipitación	0
152880	7	Sololá	713	San Lucas Tolimán	10	San Lucas Tolimán	10	Octubre	2023-12-10T00:00:00	2024-11-08T15:00:00	8	Radiación solar	337
152881	7	Sololá	713	San Lucas Tolimán	10	San Lucas Tolimán	10	Octubre	2023-12-10T00:00:00	2024-11-08T16:00:00	2	Temperatura media	20.2
152882	7	Sololá	713	San Lucas Tolimán	10	San Lucas Tolimán	10	Octubre	2023-12-10T00:00:00	2024-11-08T16:00:00	4	Temperatura máxima	20.4
152883	7	Sololá	713	San Lucas Tolimán	10	San Lucas Tolimán	10	Octubre	2023-12-10T00:00:00	2024-11-08T16:00:00	3	Temperatura mínima	19.9
152884	7	Sololá	713	San Lucas Tolimán	10	San Lucas Tolimán	10	Octubre	2023-12-10T00:00:00	2024-11-08T16:00:00	5	Humedad	92
152885	7	Sololá	713	San Lucas Tolimán	10	San Lucas Tolimán	10	Octubre	2023-12-10T00:00:00	2024-11-08T16:00:00	6	Velocidad del viento	6.4
152886	7	Sololá	713	San Lucas Tolimán	10	San Lucas Tolimán	10	Octubre	2023-12-10T00:00:00	2024-11-08T16:00:00	7	Dirección del viento	6.44
152887	7	Sololá	713	San Lucas Tolimán	10	San Lucas Tolimán	10	Octubre	2023-12-10T00:00:00	2024-11-08T16:00:00	1	Precipitación	0
152888	7	Sololá	713	San Lucas Tolimán	10	San Lucas Tolimán	10	Octubre	2023-12-10T00:00:00	2024-11-08T16:00:00	8	Radiación solar	37
152889	7	Sololá	713	San Lucas Tolimán	10	San Lucas Tolimán	10	Octubre	2023-12-10T00:00:00	2024-11-08T17:00:00	2	Temperatura media	19.6
152890	7	Sololá	713	San Lucas Tolimán	10	San Lucas Tolimán	10	Octubre	2023-12-10T00:00:00	2024-11-08T17:00:00	4	Temperatura máxima	20.2
152891	7	Sololá	713	San Lucas Tolimán	10	San Lucas Tolimán	10	Octubre	2023-12-10T00:00:00	2024-11-08T17:00:00	3	Temperatura mínima	19.6
152892	7	Sololá	713	San Lucas Tolimán	10	San Lucas Tolimán	10	Octubre	2023-12-10T00:00:00	2024-11-08T17:00:00	5	Humedad	94
152893	7	Sololá	713	San Lucas Tolimán	10	San Lucas Tolimán	10	Octubre	2023-12-10T00:00:00	2024-11-08T17:00:00	6	Velocidad del viento	6.4
152894	7	Sololá	713	San Lucas Tolimán	10	San Lucas Tolimán	10	Octubre	2023-12-10T00:00:00	2024-11-08T17:00:00	7	Dirección del viento	6.44
152895	7	Sololá	713	San Lucas Tolimán	10	San Lucas Tolimán	10	Octubre	2023-12-10T00:00:00	2024-11-08T17:00:00	1	Precipitación	0
152896	7	Sololá	713	San Lucas Tolimán	10	San Lucas Tolimán	10	Octubre	2023-12-10T00:00:00	2024-11-08T17:00:00	8	Radiación solar	63
152897	7	Sololá	713	San Lucas Tolimán	10	San Lucas Tolimán	10	Octubre	2023-12-10T00:00:00	2024-11-08T18:00:00	2	Temperatura media	19.4
152898	7	Sololá	713	San Lucas Tolimán	10	San Lucas Tolimán	10	Octubre	2023-12-10T00:00:00	2024-11-08T18:00:00	4	Temperatura máxima	19.6
152899	7	Sololá	713	San Lucas Tolimán	10	San Lucas Tolimán	10	Octubre	2023-12-10T00:00:00	2024-11-08T18:00:00	3	Temperatura mínima	19.3
152900	7	Sololá	713	San Lucas Tolimán	10	San Lucas Tolimán	10	Octubre	2023-12-10T00:00:00	2024-11-08T18:00:00	5	Humedad	95
152901	7	Sololá	713	San Lucas Tolimán	10	San Lucas Tolimán	10	Octubre	2023-12-10T00:00:00	2024-11-08T18:00:00	6	Velocidad del viento	6.4
152902	7	Sololá	713	San Lucas Tolimán	10	San Lucas Tolimán	10	Octubre	2023-12-10T00:00:00	2024-11-08T18:00:00	7	Dirección del viento	6.44
152903	7	Sololá	713	San Lucas Tolimán	10	San Lucas Tolimán	10	Octubre	2023-12-10T00:00:00	2024-11-08T18:00:00	1	Precipitación	0
152904	7	Sololá	713	San Lucas Tolimán	10	San Lucas Tolimán	10	Octubre	2023-12-10T00:00:00	2024-11-08T18:00:00	8	Radiación solar	11
152905	7	Sololá	713	San Lucas Tolimán	10	San Lucas Tolimán	10	Octubre	2023-12-10T00:00:00	2024-11-08T19:00:00	2	Temperatura media	18.7
152906	7	Sololá	713	San Lucas Tolimán	10	San Lucas Tolimán	10	Octubre	2023-12-10T00:00:00	2024-11-08T19:00:00	4	Temperatura máxima	19.5
152907	7	Sololá	713	San Lucas Tolimán	10	San Lucas Tolimán	10	Octubre	2023-12-10T00:00:00	2024-11-08T19:00:00	3	Temperatura mínima	18.7
152908	7	Sololá	713	San Lucas Tolimán	10	San Lucas Tolimán	10	Octubre	2023-12-10T00:00:00	2024-11-08T19:00:00	5	Humedad	65
152909	7	Sololá	713	San Lucas Tolimán	10	San Lucas Tolimán	10	Octubre	2023-12-10T00:00:00	2024-11-08T19:00:00	6	Velocidad del viento	4.8
152910	7	Sololá	713	San Lucas Tolimán	10	San Lucas Tolimán	10	Octubre	2023-12-10T00:00:00	2024-11-08T19:00:00	7	Dirección del viento	4.83
152911	7	Sololá	713	San Lucas Tolimán	10	San Lucas Tolimán	10	Octubre	2023-12-10T00:00:00	2024-11-08T19:00:00	1	Precipitación	0
152912	7	Sololá	713	San Lucas Tolimán	10	San Lucas Tolimán	10	Octubre	2023-12-10T00:00:00	2024-11-08T19:00:00	8	Radiación solar	0
152913	7	Sololá	713	San Lucas Tolimán	10	San Lucas Tolimán	10	Octubre	2023-12-10T00:00:00	2024-11-08T20:00:00	2	Temperatura media	18.3
152914	7	Sololá	713	San Lucas Tolimán	10	San Lucas Tolimán	10	Octubre	2023-12-10T00:00:00	2024-11-08T20:00:00	4	Temperatura máxima	18.7
152915	7	Sololá	713	San Lucas Tolimán	10	San Lucas Tolimán	10	Octubre	2023-12-10T00:00:00	2024-11-08T20:00:00	3	Temperatura mínima	18.2
152916	7	Sololá	713	San Lucas Tolimán	10	San Lucas Tolimán	10	Octubre	2023-12-10T00:00:00	2024-11-08T20:00:00	5	Humedad	67
152917	7	Sololá	713	San Lucas Tolimán	10	San Lucas Tolimán	10	Octubre	2023-12-10T00:00:00	2024-11-08T20:00:00	6	Velocidad del viento	1.6
152918	7	Sololá	713	San Lucas Tolimán	10	San Lucas Tolimán	10	Octubre	2023-12-10T00:00:00	2024-11-08T20:00:00	7	Dirección del viento	1.61
152919	7	Sololá	713	San Lucas Tolimán	10	San Lucas Tolimán	10	Octubre	2023-12-10T00:00:00	2024-11-08T20:00:00	1	Precipitación	0.2
152920	7	Sololá	713	San Lucas Tolimán	10	San Lucas Tolimán	10	Octubre	2023-12-10T00:00:00	2024-11-08T20:00:00	8	Radiación solar	0
152921	7	Sololá	713	San Lucas Tolimán	10	San Lucas Tolimán	10	Octubre	2023-12-10T00:00:00	2024-11-08T21:00:00	2	Temperatura media	18.9
152922	7	Sololá	713	San Lucas Tolimán	10	San Lucas Tolimán	10	Octubre	2023-12-10T00:00:00	2024-11-08T21:00:00	4	Temperatura máxima	18.9
152923	7	Sololá	713	San Lucas Tolimán	10	San Lucas Tolimán	10	Octubre	2023-12-10T00:00:00	2024-11-08T21:00:00	3	Temperatura mínima	18.3
152924	7	Sololá	713	San Lucas Tolimán	10	San Lucas Tolimán	10	Octubre	2023-12-10T00:00:00	2024-11-08T21:00:00	5	Humedad	67
152925	7	Sololá	713	San Lucas Tolimán	10	San Lucas Tolimán	10	Octubre	2023-12-10T00:00:00	2024-11-08T21:00:00	6	Velocidad del viento	0
152926	7	Sololá	713	San Lucas Tolimán	10	San Lucas Tolimán	10	Octubre	2023-12-10T00:00:00	2024-11-08T21:00:00	7	Dirección del viento	0
152927	7	Sololá	713	San Lucas Tolimán	10	San Lucas Tolimán	10	Octubre	2023-12-10T00:00:00	2024-11-08T21:00:00	1	Precipitación	0.4
152928	7	Sololá	713	San Lucas Tolimán	10	San Lucas Tolimán	10	Octubre	2023-12-10T00:00:00	2024-11-08T21:00:00	8	Radiación solar	0
152929	7	Sololá	713	San Lucas Tolimán	10	San Lucas Tolimán	10	Octubre	2023-12-10T00:00:00	2024-11-08T22:00:00	2	Temperatura media	18.5
152930	7	Sololá	713	San Lucas Tolimán	10	San Lucas Tolimán	10	Octubre	2023-12-10T00:00:00	2024-11-08T22:00:00	4	Temperatura máxima	18.9
152931	7	Sololá	713	San Lucas Tolimán	10	San Lucas Tolimán	10	Octubre	2023-12-10T00:00:00	2024-11-08T22:00:00	3	Temperatura mínima	18.5
152932	7	Sololá	713	San Lucas Tolimán	10	San Lucas Tolimán	10	Octubre	2023-12-10T00:00:00	2024-11-08T22:00:00	5	Humedad	66
152933	7	Sololá	713	San Lucas Tolimán	10	San Lucas Tolimán	10	Octubre	2023-12-10T00:00:00	2024-11-08T22:00:00	6	Velocidad del viento	4.8
152934	7	Sololá	713	San Lucas Tolimán	10	San Lucas Tolimán	10	Octubre	2023-12-10T00:00:00	2024-11-08T22:00:00	7	Dirección del viento	4.83
152935	7	Sololá	713	San Lucas Tolimán	10	San Lucas Tolimán	10	Octubre	2023-12-10T00:00:00	2024-11-08T22:00:00	1	Precipitación	0.2
152936	7	Sololá	713	San Lucas Tolimán	10	San Lucas Tolimán	10	Octubre	2023-12-10T00:00:00	2024-11-08T22:00:00	8	Radiación solar	0
152937	7	Sololá	713	San Lucas Tolimán	10	San Lucas Tolimán	10	Octubre	2023-12-10T00:00:00	2024-11-08T23:00:00	2	Temperatura media	17.9
152938	7	Sololá	713	San Lucas Tolimán	10	San Lucas Tolimán	10	Octubre	2023-12-10T00:00:00	2024-11-08T23:00:00	4	Temperatura máxima	18.6
152939	7	Sololá	713	San Lucas Tolimán	10	San Lucas Tolimán	10	Octubre	2023-12-10T00:00:00	2024-11-08T23:00:00	3	Temperatura mínima	17.9
152940	7	Sololá	713	San Lucas Tolimán	10	San Lucas Tolimán	10	Octubre	2023-12-10T00:00:00	2024-11-08T23:00:00	5	Humedad	67
152941	7	Sololá	713	San Lucas Tolimán	10	San Lucas Tolimán	10	Octubre	2023-12-10T00:00:00	2024-11-08T23:00:00	6	Velocidad del viento	1.6
152942	7	Sololá	713	San Lucas Tolimán	10	San Lucas Tolimán	10	Octubre	2023-12-10T00:00:00	2024-11-08T23:00:00	7	Dirección del viento	1.61
152943	7	Sololá	713	San Lucas Tolimán	10	San Lucas Tolimán	10	Octubre	2023-12-10T00:00:00	2024-11-08T23:00:00	1	Precipitación	0
152944	7	Sololá	713	San Lucas Tolimán	10	San Lucas Tolimán	10	Octubre	2023-12-10T00:00:00	2024-11-08T23:00:00	8	Radiación solar	0
152945	7	Sololá	713	San Lucas Tolimán	10	San Lucas Tolimán	10	Octubre	2023-10-13T00:00:00	2024-11-08T00:00:00	2	Temperatura media	17.9
152946	7	Sololá	713	San Lucas Tolimán	10	San Lucas Tolimán	10	Octubre	2023-10-13T00:00:00	2024-11-08T00:00:00	4	Temperatura máxima	18
152947	7	Sololá	713	San Lucas Tolimán	10	San Lucas Tolimán	10	Octubre	2023-10-13T00:00:00	2024-11-08T00:00:00	3	Temperatura mínima	17.7
152948	7	Sololá	713	San Lucas Tolimán	10	San Lucas Tolimán	10	Octubre	2023-10-13T00:00:00	2024-11-08T00:00:00	5	Humedad	68
152949	7	Sololá	713	San Lucas Tolimán	10	San Lucas Tolimán	10	Octubre	2023-10-13T00:00:00	2024-11-08T00:00:00	6	Velocidad del viento	9.7
152950	7	Sololá	713	San Lucas Tolimán	10	San Lucas Tolimán	10	Octubre	2023-10-13T00:00:00	2024-11-08T00:00:00	7	Dirección del viento	9.66
152951	7	Sololá	713	San Lucas Tolimán	10	San Lucas Tolimán	10	Octubre	2023-10-13T00:00:00	2024-11-08T00:00:00	1	Precipitación	0.2
152952	7	Sololá	713	San Lucas Tolimán	10	San Lucas Tolimán	10	Octubre	2023-10-13T00:00:00	2024-11-08T00:00:00	8	Radiación solar	0
152953	7	Sololá	713	San Lucas Tolimán	10	San Lucas Tolimán	10	Octubre	2023-10-13T00:00:00	2024-11-08T01:00:00	2	Temperatura media	17.7
152954	7	Sololá	713	San Lucas Tolimán	10	San Lucas Tolimán	10	Octubre	2023-10-13T00:00:00	2024-11-08T01:00:00	4	Temperatura máxima	18
152955	7	Sololá	713	San Lucas Tolimán	10	San Lucas Tolimán	10	Octubre	2023-10-13T00:00:00	2024-11-08T01:00:00	3	Temperatura mínima	17.7
152956	7	Sololá	713	San Lucas Tolimán	10	San Lucas Tolimán	10	Octubre	2023-10-13T00:00:00	2024-11-08T01:00:00	5	Humedad	68
152957	7	Sololá	713	San Lucas Tolimán	10	San Lucas Tolimán	10	Octubre	2023-10-13T00:00:00	2024-11-08T01:00:00	6	Velocidad del viento	1.6
152958	7	Sololá	713	San Lucas Tolimán	10	San Lucas Tolimán	10	Octubre	2023-10-13T00:00:00	2024-11-08T01:00:00	7	Dirección del viento	1.61
152959	7	Sololá	713	San Lucas Tolimán	10	San Lucas Tolimán	10	Octubre	2023-10-13T00:00:00	2024-11-08T01:00:00	1	Precipitación	0
152960	7	Sololá	713	San Lucas Tolimán	10	San Lucas Tolimán	10	Octubre	2023-10-13T00:00:00	2024-11-08T01:00:00	8	Radiación solar	0
152961	7	Sololá	713	San Lucas Tolimán	10	San Lucas Tolimán	10	Octubre	2023-10-13T00:00:00	2024-11-08T02:00:00	2	Temperatura media	17.9
152962	7	Sololá	713	San Lucas Tolimán	10	San Lucas Tolimán	10	Octubre	2023-10-13T00:00:00	2024-11-08T02:00:00	4	Temperatura máxima	17.9
152963	7	Sololá	713	San Lucas Tolimán	10	San Lucas Tolimán	10	Octubre	2023-10-13T00:00:00	2024-11-08T02:00:00	3	Temperatura mínima	17.7
152964	7	Sololá	713	San Lucas Tolimán	10	San Lucas Tolimán	10	Octubre	2023-10-13T00:00:00	2024-11-08T02:00:00	5	Humedad	67
152965	7	Sololá	713	San Lucas Tolimán	10	San Lucas Tolimán	10	Octubre	2023-10-13T00:00:00	2024-11-08T02:00:00	6	Velocidad del viento	3.2
152966	7	Sololá	713	San Lucas Tolimán	10	San Lucas Tolimán	10	Octubre	2023-10-13T00:00:00	2024-11-08T02:00:00	7	Dirección del viento	3.22
152967	7	Sololá	713	San Lucas Tolimán	10	San Lucas Tolimán	10	Octubre	2023-10-13T00:00:00	2024-11-08T02:00:00	1	Precipitación	0
152968	7	Sololá	713	San Lucas Tolimán	10	San Lucas Tolimán	10	Octubre	2023-10-13T00:00:00	2024-11-08T02:00:00	8	Radiación solar	0
152969	7	Sololá	713	San Lucas Tolimán	10	San Lucas Tolimán	10	Octubre	2023-10-13T00:00:00	2024-11-08T03:00:00	2	Temperatura media	17.3
152970	7	Sololá	713	San Lucas Tolimán	10	San Lucas Tolimán	10	Octubre	2023-10-13T00:00:00	2024-11-08T03:00:00	4	Temperatura máxima	17.9
152971	7	Sololá	713	San Lucas Tolimán	10	San Lucas Tolimán	10	Octubre	2023-10-13T00:00:00	2024-11-08T03:00:00	3	Temperatura mínima	17.2
152972	7	Sololá	713	San Lucas Tolimán	10	San Lucas Tolimán	10	Octubre	2023-10-13T00:00:00	2024-11-08T03:00:00	5	Humedad	68
152973	7	Sololá	713	San Lucas Tolimán	10	San Lucas Tolimán	10	Octubre	2023-10-13T00:00:00	2024-11-08T03:00:00	6	Velocidad del viento	1.6
152974	7	Sololá	713	San Lucas Tolimán	10	San Lucas Tolimán	10	Octubre	2023-10-13T00:00:00	2024-11-08T03:00:00	7	Dirección del viento	1.61
152975	7	Sololá	713	San Lucas Tolimán	10	San Lucas Tolimán	10	Octubre	2023-10-13T00:00:00	2024-11-08T03:00:00	1	Precipitación	0
152976	7	Sololá	713	San Lucas Tolimán	10	San Lucas Tolimán	10	Octubre	2023-10-13T00:00:00	2024-11-08T03:00:00	8	Radiación solar	0
152977	7	Sololá	713	San Lucas Tolimán	10	San Lucas Tolimán	10	Octubre	2023-10-13T00:00:00	2024-11-08T04:00:00	2	Temperatura media	17.3
152978	7	Sololá	713	San Lucas Tolimán	10	San Lucas Tolimán	10	Octubre	2023-10-13T00:00:00	2024-11-08T04:00:00	4	Temperatura máxima	17.3
152979	7	Sololá	713	San Lucas Tolimán	10	San Lucas Tolimán	10	Octubre	2023-10-13T00:00:00	2024-11-08T04:00:00	3	Temperatura mínima	17.1
152980	7	Sololá	713	San Lucas Tolimán	10	San Lucas Tolimán	10	Octubre	2023-10-13T00:00:00	2024-11-08T04:00:00	5	Humedad	68
152981	7	Sololá	713	San Lucas Tolimán	10	San Lucas Tolimán	10	Octubre	2023-10-13T00:00:00	2024-11-08T04:00:00	6	Velocidad del viento	0
152982	7	Sololá	713	San Lucas Tolimán	10	San Lucas Tolimán	10	Octubre	2023-10-13T00:00:00	2024-11-08T04:00:00	7	Dirección del viento	0
152983	7	Sololá	713	San Lucas Tolimán	10	San Lucas Tolimán	10	Octubre	2023-10-13T00:00:00	2024-11-08T04:00:00	1	Precipitación	0
152984	7	Sololá	713	San Lucas Tolimán	10	San Lucas Tolimán	10	Octubre	2023-10-13T00:00:00	2024-11-08T04:00:00	8	Radiación solar	0
152985	7	Sololá	713	San Lucas Tolimán	10	San Lucas Tolimán	10	Octubre	2023-10-13T00:00:00	2024-11-08T05:00:00	2	Temperatura media	16.9
152986	7	Sololá	713	San Lucas Tolimán	10	San Lucas Tolimán	10	Octubre	2023-10-13T00:00:00	2024-11-08T05:00:00	4	Temperatura máxima	17.3
152987	7	Sololá	713	San Lucas Tolimán	10	San Lucas Tolimán	10	Octubre	2023-10-13T00:00:00	2024-11-08T05:00:00	3	Temperatura mínima	16.9
152988	7	Sololá	713	San Lucas Tolimán	10	San Lucas Tolimán	10	Octubre	2023-10-13T00:00:00	2024-11-08T05:00:00	5	Humedad	68
152989	7	Sololá	713	San Lucas Tolimán	10	San Lucas Tolimán	10	Octubre	2023-10-13T00:00:00	2024-11-08T05:00:00	6	Velocidad del viento	0
152990	7	Sololá	713	San Lucas Tolimán	10	San Lucas Tolimán	10	Octubre	2023-10-13T00:00:00	2024-11-08T05:00:00	7	Dirección del viento	0
152991	7	Sololá	713	San Lucas Tolimán	10	San Lucas Tolimán	10	Octubre	2023-10-13T00:00:00	2024-11-08T05:00:00	1	Precipitación	0
152992	7	Sololá	713	San Lucas Tolimán	10	San Lucas Tolimán	10	Octubre	2023-10-13T00:00:00	2024-11-08T05:00:00	8	Radiación solar	0
152993	7	Sololá	713	San Lucas Tolimán	10	San Lucas Tolimán	10	Octubre	2023-10-13T00:00:00	2024-11-08T06:00:00	2	Temperatura media	17.1
152994	7	Sololá	713	San Lucas Tolimán	10	San Lucas Tolimán	10	Octubre	2023-10-13T00:00:00	2024-11-08T06:00:00	4	Temperatura máxima	17.1
152995	7	Sololá	713	San Lucas Tolimán	10	San Lucas Tolimán	10	Octubre	2023-10-13T00:00:00	2024-11-08T06:00:00	3	Temperatura mínima	16.9
152996	7	Sololá	713	San Lucas Tolimán	10	San Lucas Tolimán	10	Octubre	2023-10-13T00:00:00	2024-11-08T06:00:00	5	Humedad	67
152997	7	Sololá	713	San Lucas Tolimán	10	San Lucas Tolimán	10	Octubre	2023-10-13T00:00:00	2024-11-08T06:00:00	6	Velocidad del viento	0
152998	7	Sololá	713	San Lucas Tolimán	10	San Lucas Tolimán	10	Octubre	2023-10-13T00:00:00	2024-11-08T06:00:00	7	Dirección del viento	0
152999	7	Sololá	713	San Lucas Tolimán	10	San Lucas Tolimán	10	Octubre	2023-10-13T00:00:00	2024-11-08T06:00:00	1	Precipitación	0
153000	7	Sololá	713	San Lucas Tolimán	10	San Lucas Tolimán	10	Octubre	2023-10-13T00:00:00	2024-11-08T06:00:00	8	Radiación solar	0
153001	7	Sololá	713	San Lucas Tolimán	10	San Lucas Tolimán	10	Octubre	2023-10-13T00:00:00	2024-11-08T07:00:00	2	Temperatura media	17.3
153002	7	Sololá	713	San Lucas Tolimán	10	San Lucas Tolimán	10	Octubre	2023-10-13T00:00:00	2024-11-08T07:00:00	4	Temperatura máxima	17.8
153003	7	Sololá	713	San Lucas Tolimán	10	San Lucas Tolimán	10	Octubre	2023-10-13T00:00:00	2024-11-08T07:00:00	3	Temperatura mínima	17.1
153004	7	Sololá	713	San Lucas Tolimán	10	San Lucas Tolimán	10	Octubre	2023-10-13T00:00:00	2024-11-08T07:00:00	5	Humedad	67
153005	7	Sololá	713	San Lucas Tolimán	10	San Lucas Tolimán	10	Octubre	2023-10-13T00:00:00	2024-11-08T07:00:00	6	Velocidad del viento	6.4
153006	7	Sololá	713	San Lucas Tolimán	10	San Lucas Tolimán	10	Octubre	2023-10-13T00:00:00	2024-11-08T07:00:00	7	Dirección del viento	6.44
153007	7	Sololá	713	San Lucas Tolimán	10	San Lucas Tolimán	10	Octubre	2023-10-13T00:00:00	2024-11-08T07:00:00	1	Precipitación	0
153008	7	Sololá	713	San Lucas Tolimán	10	San Lucas Tolimán	10	Octubre	2023-10-13T00:00:00	2024-11-08T07:00:00	8	Radiación solar	22
153009	7	Sololá	713	San Lucas Tolimán	10	San Lucas Tolimán	10	Octubre	2023-10-13T00:00:00	2024-11-08T08:00:00	2	Temperatura media	19.9
153010	7	Sololá	713	San Lucas Tolimán	10	San Lucas Tolimán	10	Octubre	2023-10-13T00:00:00	2024-11-08T08:00:00	4	Temperatura máxima	19.9
153011	7	Sololá	713	San Lucas Tolimán	10	San Lucas Tolimán	10	Octubre	2023-10-13T00:00:00	2024-11-08T08:00:00	3	Temperatura mínima	17.3
153012	7	Sololá	713	San Lucas Tolimán	10	San Lucas Tolimán	10	Octubre	2023-10-13T00:00:00	2024-11-08T08:00:00	5	Humedad	63
153013	7	Sololá	713	San Lucas Tolimán	10	San Lucas Tolimán	10	Octubre	2023-10-13T00:00:00	2024-11-08T08:00:00	6	Velocidad del viento	3.2
153014	7	Sololá	713	San Lucas Tolimán	10	San Lucas Tolimán	10	Octubre	2023-10-13T00:00:00	2024-11-08T08:00:00	7	Dirección del viento	3.22
153015	7	Sololá	713	San Lucas Tolimán	10	San Lucas Tolimán	10	Octubre	2023-10-13T00:00:00	2024-11-08T08:00:00	1	Precipitación	0
153016	7	Sololá	713	San Lucas Tolimán	10	San Lucas Tolimán	10	Octubre	2023-10-13T00:00:00	2024-11-08T08:00:00	8	Radiación solar	223
153017	7	Sololá	713	San Lucas Tolimán	10	San Lucas Tolimán	10	Octubre	2023-10-13T00:00:00	2024-11-08T09:00:00	2	Temperatura media	22.3
153018	7	Sololá	713	San Lucas Tolimán	10	San Lucas Tolimán	10	Octubre	2023-10-13T00:00:00	2024-11-08T09:00:00	4	Temperatura máxima	22.7
153019	7	Sololá	713	San Lucas Tolimán	10	San Lucas Tolimán	10	Octubre	2023-10-13T00:00:00	2024-11-08T09:00:00	3	Temperatura mínima	19.9
153020	7	Sololá	713	San Lucas Tolimán	10	San Lucas Tolimán	10	Octubre	2023-10-13T00:00:00	2024-11-08T09:00:00	5	Humedad	57
153021	7	Sololá	713	San Lucas Tolimán	10	San Lucas Tolimán	10	Octubre	2023-10-13T00:00:00	2024-11-08T09:00:00	6	Velocidad del viento	3.2
153022	7	Sololá	713	San Lucas Tolimán	10	San Lucas Tolimán	10	Octubre	2023-10-13T00:00:00	2024-11-08T09:00:00	7	Dirección del viento	3.22
153023	7	Sololá	713	San Lucas Tolimán	10	San Lucas Tolimán	10	Octubre	2023-10-13T00:00:00	2024-11-08T09:00:00	1	Precipitación	0
153024	7	Sololá	713	San Lucas Tolimán	10	San Lucas Tolimán	10	Octubre	2023-10-13T00:00:00	2024-11-08T09:00:00	8	Radiación solar	475
153025	7	Sololá	713	San Lucas Tolimán	10	San Lucas Tolimán	10	Octubre	2023-10-13T00:00:00	2024-11-08T10:00:00	2	Temperatura media	21.1
153026	7	Sololá	713	San Lucas Tolimán	10	San Lucas Tolimán	10	Octubre	2023-10-13T00:00:00	2024-11-08T10:00:00	4	Temperatura máxima	22.3
153027	7	Sololá	713	San Lucas Tolimán	10	San Lucas Tolimán	10	Octubre	2023-10-13T00:00:00	2024-11-08T10:00:00	3	Temperatura mínima	20.4
153028	7	Sololá	713	San Lucas Tolimán	10	San Lucas Tolimán	10	Octubre	2023-10-13T00:00:00	2024-11-08T10:00:00	5	Humedad	62
153029	7	Sololá	713	San Lucas Tolimán	10	San Lucas Tolimán	10	Octubre	2023-10-13T00:00:00	2024-11-08T10:00:00	6	Velocidad del viento	9.7
153030	7	Sololá	713	San Lucas Tolimán	10	San Lucas Tolimán	10	Octubre	2023-10-13T00:00:00	2024-11-08T10:00:00	7	Dirección del viento	9.66
153031	7	Sololá	713	San Lucas Tolimán	10	San Lucas Tolimán	10	Octubre	2023-10-13T00:00:00	2024-11-08T10:00:00	1	Precipitación	0
153032	7	Sololá	713	San Lucas Tolimán	10	San Lucas Tolimán	10	Octubre	2023-10-13T00:00:00	2024-11-08T10:00:00	8	Radiación solar	644
153033	7	Sololá	713	San Lucas Tolimán	10	San Lucas Tolimán	10	Octubre	2023-10-13T00:00:00	2024-11-08T11:00:00	2	Temperatura media	21.8
153034	7	Sololá	713	San Lucas Tolimán	10	San Lucas Tolimán	10	Octubre	2023-10-13T00:00:00	2024-11-08T11:00:00	4	Temperatura máxima	22.2
153035	7	Sololá	713	San Lucas Tolimán	10	San Lucas Tolimán	10	Octubre	2023-10-13T00:00:00	2024-11-08T11:00:00	3	Temperatura mínima	21.1
153036	7	Sololá	713	San Lucas Tolimán	10	San Lucas Tolimán	10	Octubre	2023-10-13T00:00:00	2024-11-08T11:00:00	5	Humedad	59
153037	7	Sololá	713	San Lucas Tolimán	10	San Lucas Tolimán	10	Octubre	2023-10-13T00:00:00	2024-11-08T11:00:00	6	Velocidad del viento	9.7
153038	7	Sololá	713	San Lucas Tolimán	10	San Lucas Tolimán	10	Octubre	2023-10-13T00:00:00	2024-11-08T11:00:00	7	Dirección del viento	9.66
153039	7	Sololá	713	San Lucas Tolimán	10	San Lucas Tolimán	10	Octubre	2023-10-13T00:00:00	2024-11-08T11:00:00	1	Precipitación	0
153040	7	Sololá	713	San Lucas Tolimán	10	San Lucas Tolimán	10	Octubre	2023-10-13T00:00:00	2024-11-08T11:00:00	8	Radiación solar	666
153041	7	Sololá	713	San Lucas Tolimán	10	San Lucas Tolimán	10	Octubre	2023-10-13T00:00:00	2024-11-08T12:00:00	2	Temperatura media	21.3
153042	7	Sololá	713	San Lucas Tolimán	10	San Lucas Tolimán	10	Octubre	2023-10-13T00:00:00	2024-11-08T12:00:00	4	Temperatura máxima	21.8
153043	7	Sololá	713	San Lucas Tolimán	10	San Lucas Tolimán	10	Octubre	2023-10-13T00:00:00	2024-11-08T12:00:00	3	Temperatura mínima	21
153044	7	Sololá	713	San Lucas Tolimán	10	San Lucas Tolimán	10	Octubre	2023-10-13T00:00:00	2024-11-08T12:00:00	5	Humedad	62
153045	7	Sololá	713	San Lucas Tolimán	10	San Lucas Tolimán	10	Octubre	2023-10-13T00:00:00	2024-11-08T12:00:00	6	Velocidad del viento	9.7
153046	7	Sololá	713	San Lucas Tolimán	10	San Lucas Tolimán	10	Octubre	2023-10-13T00:00:00	2024-11-08T12:00:00	7	Dirección del viento	9.66
153047	7	Sololá	713	San Lucas Tolimán	10	San Lucas Tolimán	10	Octubre	2023-10-13T00:00:00	2024-11-08T12:00:00	1	Precipitación	0
153048	7	Sololá	713	San Lucas Tolimán	10	San Lucas Tolimán	10	Octubre	2023-10-13T00:00:00	2024-11-08T12:00:00	8	Radiación solar	397
153049	7	Sololá	713	San Lucas Tolimán	10	San Lucas Tolimán	10	Octubre	2023-10-13T00:00:00	2024-11-08T13:00:00	2	Temperatura media	21.1
153050	7	Sololá	713	San Lucas Tolimán	10	San Lucas Tolimán	10	Octubre	2023-10-13T00:00:00	2024-11-08T13:00:00	4	Temperatura máxima	21.4
153051	7	Sololá	713	San Lucas Tolimán	10	San Lucas Tolimán	10	Octubre	2023-10-13T00:00:00	2024-11-08T13:00:00	3	Temperatura mínima	21
153052	7	Sololá	713	San Lucas Tolimán	10	San Lucas Tolimán	10	Octubre	2023-10-13T00:00:00	2024-11-08T13:00:00	5	Humedad	63
153053	7	Sololá	713	San Lucas Tolimán	10	San Lucas Tolimán	10	Octubre	2023-10-13T00:00:00	2024-11-08T13:00:00	6	Velocidad del viento	9.7
153054	7	Sololá	713	San Lucas Tolimán	10	San Lucas Tolimán	10	Octubre	2023-10-13T00:00:00	2024-11-08T13:00:00	7	Dirección del viento	9.66
153055	7	Sololá	713	San Lucas Tolimán	10	San Lucas Tolimán	10	Octubre	2023-10-13T00:00:00	2024-11-08T13:00:00	1	Precipitación	0
153056	7	Sololá	713	San Lucas Tolimán	10	San Lucas Tolimán	10	Octubre	2023-10-13T00:00:00	2024-11-08T13:00:00	8	Radiación solar	368
153057	7	Sololá	713	San Lucas Tolimán	10	San Lucas Tolimán	10	Octubre	2023-10-13T00:00:00	2024-11-08T14:00:00	2	Temperatura media	19.9
153058	7	Sololá	713	San Lucas Tolimán	10	San Lucas Tolimán	10	Octubre	2023-10-13T00:00:00	2024-11-08T14:00:00	4	Temperatura máxima	21.1
153059	7	Sololá	713	San Lucas Tolimán	10	San Lucas Tolimán	10	Octubre	2023-10-13T00:00:00	2024-11-08T14:00:00	3	Temperatura mínima	19.9
153060	7	Sololá	713	San Lucas Tolimán	10	San Lucas Tolimán	10	Octubre	2023-10-13T00:00:00	2024-11-08T14:00:00	5	Humedad	66
153061	7	Sololá	713	San Lucas Tolimán	10	San Lucas Tolimán	10	Octubre	2023-10-13T00:00:00	2024-11-08T14:00:00	6	Velocidad del viento	8
153062	7	Sololá	713	San Lucas Tolimán	10	San Lucas Tolimán	10	Octubre	2023-10-13T00:00:00	2024-11-08T14:00:00	7	Dirección del viento	8.05
153063	7	Sololá	713	San Lucas Tolimán	10	San Lucas Tolimán	10	Octubre	2023-10-13T00:00:00	2024-11-08T14:00:00	1	Precipitación	0
153064	7	Sololá	713	San Lucas Tolimán	10	San Lucas Tolimán	10	Octubre	2023-10-13T00:00:00	2024-11-08T14:00:00	8	Radiación solar	221
153065	7	Sololá	713	San Lucas Tolimán	10	San Lucas Tolimán	10	Octubre	2023-10-13T00:00:00	2024-11-08T15:00:00	2	Temperatura media	19.4
153066	7	Sololá	713	San Lucas Tolimán	10	San Lucas Tolimán	10	Octubre	2023-10-13T00:00:00	2024-11-08T15:00:00	4	Temperatura máxima	20
153067	7	Sololá	713	San Lucas Tolimán	10	San Lucas Tolimán	10	Octubre	2023-10-13T00:00:00	2024-11-08T15:00:00	3	Temperatura mínima	19.3
153068	7	Sololá	713	San Lucas Tolimán	10	San Lucas Tolimán	10	Octubre	2023-10-13T00:00:00	2024-11-08T15:00:00	5	Humedad	67
153069	7	Sololá	713	San Lucas Tolimán	10	San Lucas Tolimán	10	Octubre	2023-10-13T00:00:00	2024-11-08T15:00:00	6	Velocidad del viento	8
153070	7	Sololá	713	San Lucas Tolimán	10	San Lucas Tolimán	10	Octubre	2023-10-13T00:00:00	2024-11-08T15:00:00	7	Dirección del viento	8.05
153071	7	Sololá	713	San Lucas Tolimán	10	San Lucas Tolimán	10	Octubre	2023-10-13T00:00:00	2024-11-08T15:00:00	1	Precipitación	0
153072	7	Sololá	713	San Lucas Tolimán	10	San Lucas Tolimán	10	Octubre	2023-10-13T00:00:00	2024-11-08T15:00:00	8	Radiación solar	86
153073	7	Sololá	713	San Lucas Tolimán	10	San Lucas Tolimán	10	Octubre	2023-10-13T00:00:00	2024-11-08T16:00:00	2	Temperatura media	19.6
153074	7	Sololá	713	San Lucas Tolimán	10	San Lucas Tolimán	10	Octubre	2023-10-13T00:00:00	2024-11-08T16:00:00	4	Temperatura máxima	19.6
153075	7	Sololá	713	San Lucas Tolimán	10	San Lucas Tolimán	10	Octubre	2023-10-13T00:00:00	2024-11-08T16:00:00	3	Temperatura mínima	19.4
153076	7	Sololá	713	San Lucas Tolimán	10	San Lucas Tolimán	10	Octubre	2023-10-13T00:00:00	2024-11-08T16:00:00	5	Humedad	66
153077	7	Sololá	713	San Lucas Tolimán	10	San Lucas Tolimán	10	Octubre	2023-10-13T00:00:00	2024-11-08T16:00:00	6	Velocidad del viento	6.4
153078	7	Sololá	713	San Lucas Tolimán	10	San Lucas Tolimán	10	Octubre	2023-10-13T00:00:00	2024-11-08T16:00:00	7	Dirección del viento	6.44
153079	7	Sololá	713	San Lucas Tolimán	10	San Lucas Tolimán	10	Octubre	2023-10-13T00:00:00	2024-11-08T16:00:00	1	Precipitación	0
153080	7	Sololá	713	San Lucas Tolimán	10	San Lucas Tolimán	10	Octubre	2023-10-13T00:00:00	2024-11-08T16:00:00	8	Radiación solar	48
153081	7	Sololá	713	San Lucas Tolimán	10	San Lucas Tolimán	10	Octubre	2023-10-13T00:00:00	2024-11-08T17:00:00	2	Temperatura media	19.9
153082	7	Sololá	713	San Lucas Tolimán	10	San Lucas Tolimán	10	Octubre	2023-10-13T00:00:00	2024-11-08T17:00:00	4	Temperatura máxima	20.1
153083	7	Sololá	713	San Lucas Tolimán	10	San Lucas Tolimán	10	Octubre	2023-10-13T00:00:00	2024-11-08T17:00:00	3	Temperatura mínima	19.6
153084	7	Sololá	713	San Lucas Tolimán	10	San Lucas Tolimán	10	Octubre	2023-10-13T00:00:00	2024-11-08T17:00:00	5	Humedad	64
153085	7	Sololá	713	San Lucas Tolimán	10	San Lucas Tolimán	10	Octubre	2023-10-13T00:00:00	2024-11-08T17:00:00	6	Velocidad del viento	4.8
153086	7	Sololá	713	San Lucas Tolimán	10	San Lucas Tolimán	10	Octubre	2023-10-13T00:00:00	2024-11-08T17:00:00	7	Dirección del viento	4.83
153087	7	Sololá	713	San Lucas Tolimán	10	San Lucas Tolimán	10	Octubre	2023-10-13T00:00:00	2024-11-08T17:00:00	1	Precipitación	0
153088	7	Sololá	713	San Lucas Tolimán	10	San Lucas Tolimán	10	Octubre	2023-10-13T00:00:00	2024-11-08T17:00:00	8	Radiación solar	50
153089	7	Sololá	713	San Lucas Tolimán	10	San Lucas Tolimán	10	Octubre	2023-10-13T00:00:00	2024-11-08T18:00:00	2	Temperatura media	19.3
153090	7	Sololá	713	San Lucas Tolimán	10	San Lucas Tolimán	10	Octubre	2023-10-13T00:00:00	2024-11-08T18:00:00	4	Temperatura máxima	19.9
153091	7	Sololá	713	San Lucas Tolimán	10	San Lucas Tolimán	10	Octubre	2023-10-13T00:00:00	2024-11-08T18:00:00	3	Temperatura mínima	19.3
153092	7	Sololá	713	San Lucas Tolimán	10	San Lucas Tolimán	10	Octubre	2023-10-13T00:00:00	2024-11-08T18:00:00	5	Humedad	66
153093	7	Sololá	713	San Lucas Tolimán	10	San Lucas Tolimán	10	Octubre	2023-10-13T00:00:00	2024-11-08T18:00:00	6	Velocidad del viento	6.4
153094	7	Sololá	713	San Lucas Tolimán	10	San Lucas Tolimán	10	Octubre	2023-10-13T00:00:00	2024-11-08T18:00:00	7	Dirección del viento	6.44
153095	7	Sololá	713	San Lucas Tolimán	10	San Lucas Tolimán	10	Octubre	2023-10-13T00:00:00	2024-11-08T18:00:00	1	Precipitación	0
153096	7	Sololá	713	San Lucas Tolimán	10	San Lucas Tolimán	10	Octubre	2023-10-13T00:00:00	2024-11-08T18:00:00	8	Radiación solar	7
153097	7	Sololá	713	San Lucas Tolimán	10	San Lucas Tolimán	10	Octubre	2023-10-13T00:00:00	2024-11-08T19:00:00	2	Temperatura media	19.2
153098	7	Sololá	713	San Lucas Tolimán	10	San Lucas Tolimán	10	Octubre	2023-10-13T00:00:00	2024-11-08T19:00:00	4	Temperatura máxima	19.3
153099	7	Sololá	713	San Lucas Tolimán	10	San Lucas Tolimán	10	Octubre	2023-10-13T00:00:00	2024-11-08T19:00:00	3	Temperatura mínima	19.2
153100	7	Sololá	713	San Lucas Tolimán	10	San Lucas Tolimán	10	Octubre	2023-10-13T00:00:00	2024-11-08T19:00:00	5	Humedad	66
153101	7	Sololá	713	San Lucas Tolimán	10	San Lucas Tolimán	10	Octubre	2023-10-13T00:00:00	2024-11-08T19:00:00	6	Velocidad del viento	6.4
153102	7	Sololá	713	San Lucas Tolimán	10	San Lucas Tolimán	10	Octubre	2023-10-13T00:00:00	2024-11-08T19:00:00	7	Dirección del viento	6.44
153103	7	Sololá	713	San Lucas Tolimán	10	San Lucas Tolimán	10	Octubre	2023-10-13T00:00:00	2024-11-08T19:00:00	1	Precipitación	0
153104	7	Sololá	713	San Lucas Tolimán	10	San Lucas Tolimán	10	Octubre	2023-10-13T00:00:00	2024-11-08T19:00:00	8	Radiación solar	0
153105	7	Sololá	713	San Lucas Tolimán	10	San Lucas Tolimán	10	Octubre	2023-10-13T00:00:00	2024-11-08T20:00:00	2	Temperatura media	19
153106	7	Sololá	713	San Lucas Tolimán	10	San Lucas Tolimán	10	Octubre	2023-10-13T00:00:00	2024-11-08T20:00:00	4	Temperatura máxima	19.3
153107	7	Sololá	713	San Lucas Tolimán	10	San Lucas Tolimán	10	Octubre	2023-10-13T00:00:00	2024-11-08T20:00:00	3	Temperatura mínima	18.9
153108	7	Sololá	713	San Lucas Tolimán	10	San Lucas Tolimán	10	Octubre	2023-10-13T00:00:00	2024-11-08T20:00:00	5	Humedad	67
153109	7	Sololá	713	San Lucas Tolimán	10	San Lucas Tolimán	10	Octubre	2023-10-13T00:00:00	2024-11-08T20:00:00	6	Velocidad del viento	4.8
153110	7	Sololá	713	San Lucas Tolimán	10	San Lucas Tolimán	10	Octubre	2023-10-13T00:00:00	2024-11-08T20:00:00	7	Dirección del viento	4.83
153111	7	Sololá	713	San Lucas Tolimán	10	San Lucas Tolimán	10	Octubre	2023-10-13T00:00:00	2024-11-08T20:00:00	1	Precipitación	0
153112	7	Sololá	713	San Lucas Tolimán	10	San Lucas Tolimán	10	Octubre	2023-10-13T00:00:00	2024-11-08T20:00:00	8	Radiación solar	0
153113	7	Sololá	713	San Lucas Tolimán	10	San Lucas Tolimán	10	Octubre	2023-10-13T00:00:00	2024-11-08T21:00:00	2	Temperatura media	18.8
153114	7	Sololá	713	San Lucas Tolimán	10	San Lucas Tolimán	10	Octubre	2023-10-13T00:00:00	2024-11-08T21:00:00	4	Temperatura máxima	19.1
153115	7	Sololá	713	San Lucas Tolimán	10	San Lucas Tolimán	10	Octubre	2023-10-13T00:00:00	2024-11-08T21:00:00	3	Temperatura mínima	18.7
153116	7	Sololá	713	San Lucas Tolimán	10	San Lucas Tolimán	10	Octubre	2023-10-13T00:00:00	2024-11-08T21:00:00	5	Humedad	67
153117	7	Sololá	713	San Lucas Tolimán	10	San Lucas Tolimán	10	Octubre	2023-10-13T00:00:00	2024-11-08T21:00:00	6	Velocidad del viento	3.2
153118	7	Sololá	713	San Lucas Tolimán	10	San Lucas Tolimán	10	Octubre	2023-10-13T00:00:00	2024-11-08T21:00:00	7	Dirección del viento	3.22
153119	7	Sololá	713	San Lucas Tolimán	10	San Lucas Tolimán	10	Octubre	2023-10-13T00:00:00	2024-11-08T21:00:00	1	Precipitación	0
153120	7	Sololá	713	San Lucas Tolimán	10	San Lucas Tolimán	10	Octubre	2023-10-13T00:00:00	2024-11-08T21:00:00	8	Radiación solar	0
153121	7	Sololá	713	San Lucas Tolimán	10	San Lucas Tolimán	10	Octubre	2023-10-13T00:00:00	2024-11-08T22:00:00	2	Temperatura media	18.2
153122	7	Sololá	713	San Lucas Tolimán	10	San Lucas Tolimán	10	Octubre	2023-10-13T00:00:00	2024-11-08T22:00:00	4	Temperatura máxima	18.8
153123	7	Sololá	713	San Lucas Tolimán	10	San Lucas Tolimán	10	Octubre	2023-10-13T00:00:00	2024-11-08T22:00:00	3	Temperatura mínima	18.2
153124	7	Sololá	713	San Lucas Tolimán	10	San Lucas Tolimán	10	Octubre	2023-10-13T00:00:00	2024-11-08T22:00:00	5	Humedad	66
153125	7	Sololá	713	San Lucas Tolimán	10	San Lucas Tolimán	10	Octubre	2023-10-13T00:00:00	2024-11-08T22:00:00	6	Velocidad del viento	0
153126	7	Sololá	713	San Lucas Tolimán	10	San Lucas Tolimán	10	Octubre	2023-10-13T00:00:00	2024-11-08T22:00:00	7	Dirección del viento	0
153127	7	Sololá	713	San Lucas Tolimán	10	San Lucas Tolimán	10	Octubre	2023-10-13T00:00:00	2024-11-08T22:00:00	1	Precipitación	0
153128	7	Sololá	713	San Lucas Tolimán	10	San Lucas Tolimán	10	Octubre	2023-10-13T00:00:00	2024-11-08T22:00:00	8	Radiación solar	0
153129	7	Sololá	713	San Lucas Tolimán	10	San Lucas Tolimán	10	Octubre	2023-10-13T00:00:00	2024-11-08T23:00:00	2	Temperatura media	18
153130	7	Sololá	713	San Lucas Tolimán	10	San Lucas Tolimán	10	Octubre	2023-10-13T00:00:00	2024-11-08T23:00:00	4	Temperatura máxima	18.3
153131	7	Sololá	713	San Lucas Tolimán	10	San Lucas Tolimán	10	Octubre	2023-10-13T00:00:00	2024-11-08T23:00:00	3	Temperatura mínima	18
153132	7	Sololá	713	San Lucas Tolimán	10	San Lucas Tolimán	10	Octubre	2023-10-13T00:00:00	2024-11-08T23:00:00	5	Humedad	66
153133	7	Sololá	713	San Lucas Tolimán	10	San Lucas Tolimán	10	Octubre	2023-10-13T00:00:00	2024-11-08T23:00:00	6	Velocidad del viento	1.6
153134	7	Sololá	713	San Lucas Tolimán	10	San Lucas Tolimán	10	Octubre	2023-10-13T00:00:00	2024-11-08T23:00:00	7	Dirección del viento	1.61
153135	7	Sololá	713	San Lucas Tolimán	10	San Lucas Tolimán	10	Octubre	2023-10-13T00:00:00	2024-11-08T23:00:00	1	Precipitación	0
153136	7	Sololá	713	San Lucas Tolimán	10	San Lucas Tolimán	10	Octubre	2023-10-13T00:00:00	2024-11-08T23:00:00	8	Radiación solar	0
153137	7	Sololá	713	San Lucas Tolimán	10	San Lucas Tolimán	10	Octubre	2023-10-14T00:00:00	2024-11-08T00:00:00	2	Temperatura media	17.5
153138	7	Sololá	713	San Lucas Tolimán	10	San Lucas Tolimán	10	Octubre	2023-10-14T00:00:00	2024-11-08T00:00:00	4	Temperatura máxima	18
153139	7	Sololá	713	San Lucas Tolimán	10	San Lucas Tolimán	10	Octubre	2023-10-14T00:00:00	2024-11-08T00:00:00	3	Temperatura mínima	17.5
153140	7	Sololá	713	San Lucas Tolimán	10	San Lucas Tolimán	10	Octubre	2023-10-14T00:00:00	2024-11-08T00:00:00	5	Humedad	66
153141	7	Sololá	713	San Lucas Tolimán	10	San Lucas Tolimán	10	Octubre	2023-10-14T00:00:00	2024-11-08T00:00:00	6	Velocidad del viento	3.2
153142	7	Sololá	713	San Lucas Tolimán	10	San Lucas Tolimán	10	Octubre	2023-10-14T00:00:00	2024-11-08T00:00:00	7	Dirección del viento	3.22
153143	7	Sololá	713	San Lucas Tolimán	10	San Lucas Tolimán	10	Octubre	2023-10-14T00:00:00	2024-11-08T00:00:00	1	Precipitación	0
153144	7	Sololá	713	San Lucas Tolimán	10	San Lucas Tolimán	10	Octubre	2023-10-14T00:00:00	2024-11-08T00:00:00	8	Radiación solar	0
153145	7	Sololá	713	San Lucas Tolimán	10	San Lucas Tolimán	10	Octubre	2023-10-14T00:00:00	2024-11-08T01:00:00	2	Temperatura media	17.3
153146	7	Sololá	713	San Lucas Tolimán	10	San Lucas Tolimán	10	Octubre	2023-10-14T00:00:00	2024-11-08T01:00:00	4	Temperatura máxima	17.6
153147	7	Sololá	713	San Lucas Tolimán	10	San Lucas Tolimán	10	Octubre	2023-10-14T00:00:00	2024-11-08T01:00:00	3	Temperatura mínima	17.3
153148	7	Sololá	713	San Lucas Tolimán	10	San Lucas Tolimán	10	Octubre	2023-10-14T00:00:00	2024-11-08T01:00:00	5	Humedad	67
153149	7	Sololá	713	San Lucas Tolimán	10	San Lucas Tolimán	10	Octubre	2023-10-14T00:00:00	2024-11-08T01:00:00	6	Velocidad del viento	1.6
153150	7	Sololá	713	San Lucas Tolimán	10	San Lucas Tolimán	10	Octubre	2023-10-14T00:00:00	2024-11-08T01:00:00	7	Dirección del viento	1.61
153151	7	Sololá	713	San Lucas Tolimán	10	San Lucas Tolimán	10	Octubre	2023-10-14T00:00:00	2024-11-08T01:00:00	1	Precipitación	0
153152	7	Sololá	713	San Lucas Tolimán	10	San Lucas Tolimán	10	Octubre	2023-10-14T00:00:00	2024-11-08T01:00:00	8	Radiación solar	0
153153	7	Sololá	713	San Lucas Tolimán	10	San Lucas Tolimán	10	Octubre	2023-10-14T00:00:00	2024-11-08T02:00:00	2	Temperatura media	17.2
153154	7	Sololá	713	San Lucas Tolimán	10	San Lucas Tolimán	10	Octubre	2023-10-14T00:00:00	2024-11-08T02:00:00	4	Temperatura máxima	17.4
153155	7	Sololá	713	San Lucas Tolimán	10	San Lucas Tolimán	10	Octubre	2023-10-14T00:00:00	2024-11-08T02:00:00	3	Temperatura mínima	17.2
153156	7	Sololá	713	San Lucas Tolimán	10	San Lucas Tolimán	10	Octubre	2023-10-14T00:00:00	2024-11-08T02:00:00	5	Humedad	67
153157	7	Sololá	713	San Lucas Tolimán	10	San Lucas Tolimán	10	Octubre	2023-10-14T00:00:00	2024-11-08T02:00:00	6	Velocidad del viento	0
153158	7	Sololá	713	San Lucas Tolimán	10	San Lucas Tolimán	10	Octubre	2023-10-14T00:00:00	2024-11-08T02:00:00	7	Dirección del viento	0
153159	7	Sololá	713	San Lucas Tolimán	10	San Lucas Tolimán	10	Octubre	2023-10-14T00:00:00	2024-11-08T02:00:00	1	Precipitación	0
153160	7	Sololá	713	San Lucas Tolimán	10	San Lucas Tolimán	10	Octubre	2023-10-14T00:00:00	2024-11-08T02:00:00	8	Radiación solar	0
153161	7	Sololá	713	San Lucas Tolimán	10	San Lucas Tolimán	10	Octubre	2023-10-14T00:00:00	2024-11-08T03:00:00	2	Temperatura media	17.9
153162	7	Sololá	713	San Lucas Tolimán	10	San Lucas Tolimán	10	Octubre	2023-10-14T00:00:00	2024-11-08T03:00:00	4	Temperatura máxima	18
153163	7	Sololá	713	San Lucas Tolimán	10	San Lucas Tolimán	10	Octubre	2023-10-14T00:00:00	2024-11-08T03:00:00	3	Temperatura mínima	17.2
153164	7	Sololá	713	San Lucas Tolimán	10	San Lucas Tolimán	10	Octubre	2023-10-14T00:00:00	2024-11-08T03:00:00	5	Humedad	64
153165	7	Sololá	713	San Lucas Tolimán	10	San Lucas Tolimán	10	Octubre	2023-10-14T00:00:00	2024-11-08T03:00:00	6	Velocidad del viento	1.6
153166	7	Sololá	713	San Lucas Tolimán	10	San Lucas Tolimán	10	Octubre	2023-10-14T00:00:00	2024-11-08T03:00:00	7	Dirección del viento	1.61
153167	7	Sololá	713	San Lucas Tolimán	10	San Lucas Tolimán	10	Octubre	2023-10-14T00:00:00	2024-11-08T03:00:00	1	Precipitación	0
153168	7	Sololá	713	San Lucas Tolimán	10	San Lucas Tolimán	10	Octubre	2023-10-14T00:00:00	2024-11-08T03:00:00	8	Radiación solar	0
153169	7	Sololá	713	San Lucas Tolimán	10	San Lucas Tolimán	10	Octubre	2023-10-14T00:00:00	2024-11-08T04:00:00	2	Temperatura media	17.2
153170	7	Sololá	713	San Lucas Tolimán	10	San Lucas Tolimán	10	Octubre	2023-10-14T00:00:00	2024-11-08T04:00:00	4	Temperatura máxima	17.9
153171	7	Sololá	713	San Lucas Tolimán	10	San Lucas Tolimán	10	Octubre	2023-10-14T00:00:00	2024-11-08T04:00:00	3	Temperatura mínima	17.2
153172	7	Sololá	713	San Lucas Tolimán	10	San Lucas Tolimán	10	Octubre	2023-10-14T00:00:00	2024-11-08T04:00:00	5	Humedad	65
153173	7	Sololá	713	San Lucas Tolimán	10	San Lucas Tolimán	10	Octubre	2023-10-14T00:00:00	2024-11-08T04:00:00	6	Velocidad del viento	0
153174	7	Sololá	713	San Lucas Tolimán	10	San Lucas Tolimán	10	Octubre	2023-10-14T00:00:00	2024-11-08T04:00:00	7	Dirección del viento	0
153175	7	Sololá	713	San Lucas Tolimán	10	San Lucas Tolimán	10	Octubre	2023-10-14T00:00:00	2024-11-08T04:00:00	1	Precipitación	0
153176	7	Sololá	713	San Lucas Tolimán	10	San Lucas Tolimán	10	Octubre	2023-10-14T00:00:00	2024-11-08T04:00:00	8	Radiación solar	0
153177	7	Sololá	713	San Lucas Tolimán	10	San Lucas Tolimán	10	Octubre	2023-10-14T00:00:00	2024-11-08T05:00:00	2	Temperatura media	16.6
153178	7	Sololá	713	San Lucas Tolimán	10	San Lucas Tolimán	10	Octubre	2023-10-14T00:00:00	2024-11-08T05:00:00	4	Temperatura máxima	17.2
153179	7	Sololá	713	San Lucas Tolimán	10	San Lucas Tolimán	10	Octubre	2023-10-14T00:00:00	2024-11-08T05:00:00	3	Temperatura mínima	16.5
153180	7	Sololá	713	San Lucas Tolimán	10	San Lucas Tolimán	10	Octubre	2023-10-14T00:00:00	2024-11-08T05:00:00	5	Humedad	67
153181	7	Sololá	713	San Lucas Tolimán	10	San Lucas Tolimán	10	Octubre	2023-10-14T00:00:00	2024-11-08T05:00:00	6	Velocidad del viento	1.6
153182	7	Sololá	713	San Lucas Tolimán	10	San Lucas Tolimán	10	Octubre	2023-10-14T00:00:00	2024-11-08T05:00:00	7	Dirección del viento	1.61
153183	7	Sololá	713	San Lucas Tolimán	10	San Lucas Tolimán	10	Octubre	2023-10-14T00:00:00	2024-11-08T05:00:00	1	Precipitación	0
153184	7	Sololá	713	San Lucas Tolimán	10	San Lucas Tolimán	10	Octubre	2023-10-14T00:00:00	2024-11-08T05:00:00	8	Radiación solar	0
153185	7	Sololá	713	San Lucas Tolimán	10	San Lucas Tolimán	10	Octubre	2023-10-14T00:00:00	2024-11-08T06:00:00	2	Temperatura media	17.2
153186	7	Sololá	713	San Lucas Tolimán	10	San Lucas Tolimán	10	Octubre	2023-10-14T00:00:00	2024-11-08T06:00:00	4	Temperatura máxima	17.2
153187	7	Sololá	713	San Lucas Tolimán	10	San Lucas Tolimán	10	Octubre	2023-10-14T00:00:00	2024-11-08T06:00:00	3	Temperatura mínima	16.5
153188	7	Sololá	713	San Lucas Tolimán	10	San Lucas Tolimán	10	Octubre	2023-10-14T00:00:00	2024-11-08T06:00:00	5	Humedad	65
153189	7	Sololá	713	San Lucas Tolimán	10	San Lucas Tolimán	10	Octubre	2023-10-14T00:00:00	2024-11-08T06:00:00	6	Velocidad del viento	1.6
153190	7	Sololá	713	San Lucas Tolimán	10	San Lucas Tolimán	10	Octubre	2023-10-14T00:00:00	2024-11-08T06:00:00	7	Dirección del viento	1.61
153191	7	Sololá	713	San Lucas Tolimán	10	San Lucas Tolimán	10	Octubre	2023-10-14T00:00:00	2024-11-08T06:00:00	1	Precipitación	0
153192	7	Sololá	713	San Lucas Tolimán	10	San Lucas Tolimán	10	Octubre	2023-10-14T00:00:00	2024-11-08T06:00:00	8	Radiación solar	0
153193	7	Sololá	713	San Lucas Tolimán	10	San Lucas Tolimán	10	Octubre	2023-10-14T00:00:00	2024-11-08T07:00:00	2	Temperatura media	18.3
153194	7	Sololá	713	San Lucas Tolimán	10	San Lucas Tolimán	10	Octubre	2023-10-14T00:00:00	2024-11-08T07:00:00	4	Temperatura máxima	18.3
153195	7	Sololá	713	San Lucas Tolimán	10	San Lucas Tolimán	10	Octubre	2023-10-14T00:00:00	2024-11-08T07:00:00	3	Temperatura mínima	17.2
153196	7	Sololá	713	San Lucas Tolimán	10	San Lucas Tolimán	10	Octubre	2023-10-14T00:00:00	2024-11-08T07:00:00	5	Humedad	63
153197	7	Sololá	713	San Lucas Tolimán	10	San Lucas Tolimán	10	Octubre	2023-10-14T00:00:00	2024-11-08T07:00:00	6	Velocidad del viento	1.6
153198	7	Sololá	713	San Lucas Tolimán	10	San Lucas Tolimán	10	Octubre	2023-10-14T00:00:00	2024-11-08T07:00:00	7	Dirección del viento	1.61
153199	7	Sololá	713	San Lucas Tolimán	10	San Lucas Tolimán	10	Octubre	2023-10-14T00:00:00	2024-11-08T07:00:00	1	Precipitación	0
153200	7	Sololá	713	San Lucas Tolimán	10	San Lucas Tolimán	10	Octubre	2023-10-14T00:00:00	2024-11-08T07:00:00	8	Radiación solar	19
153201	7	Sololá	713	San Lucas Tolimán	10	San Lucas Tolimán	10	Octubre	2023-10-14T00:00:00	2024-11-08T08:00:00	2	Temperatura media	21.2
153202	7	Sololá	713	San Lucas Tolimán	10	San Lucas Tolimán	10	Octubre	2023-10-14T00:00:00	2024-11-08T08:00:00	4	Temperatura máxima	21.2
153203	7	Sololá	713	San Lucas Tolimán	10	San Lucas Tolimán	10	Octubre	2023-10-14T00:00:00	2024-11-08T08:00:00	3	Temperatura mínima	18.2
153204	7	Sololá	713	San Lucas Tolimán	10	San Lucas Tolimán	10	Octubre	2023-10-14T00:00:00	2024-11-08T08:00:00	5	Humedad	55
153205	7	Sololá	713	San Lucas Tolimán	10	San Lucas Tolimán	10	Octubre	2023-10-14T00:00:00	2024-11-08T08:00:00	6	Velocidad del viento	1.6
153206	7	Sololá	713	San Lucas Tolimán	10	San Lucas Tolimán	10	Octubre	2023-10-14T00:00:00	2024-11-08T08:00:00	7	Dirección del viento	1.61
153207	7	Sololá	713	San Lucas Tolimán	10	San Lucas Tolimán	10	Octubre	2023-10-14T00:00:00	2024-11-08T08:00:00	1	Precipitación	0
153208	7	Sololá	713	San Lucas Tolimán	10	San Lucas Tolimán	10	Octubre	2023-10-14T00:00:00	2024-11-08T08:00:00	8	Radiación solar	220
153209	7	Sololá	713	San Lucas Tolimán	10	San Lucas Tolimán	10	Octubre	2023-10-14T00:00:00	2024-11-08T09:00:00	2	Temperatura media	22.9
153210	7	Sololá	713	San Lucas Tolimán	10	San Lucas Tolimán	10	Octubre	2023-10-14T00:00:00	2024-11-08T09:00:00	4	Temperatura máxima	22.9
153211	7	Sololá	713	San Lucas Tolimán	10	San Lucas Tolimán	10	Octubre	2023-10-14T00:00:00	2024-11-08T09:00:00	3	Temperatura mínima	21.2
153212	7	Sololá	713	San Lucas Tolimán	10	San Lucas Tolimán	10	Octubre	2023-10-14T00:00:00	2024-11-08T09:00:00	5	Humedad	49
153213	7	Sololá	713	San Lucas Tolimán	10	San Lucas Tolimán	10	Octubre	2023-10-14T00:00:00	2024-11-08T09:00:00	6	Velocidad del viento	4.8
153214	7	Sololá	713	San Lucas Tolimán	10	San Lucas Tolimán	10	Octubre	2023-10-14T00:00:00	2024-11-08T09:00:00	7	Dirección del viento	4.83
153215	7	Sololá	713	San Lucas Tolimán	10	San Lucas Tolimán	10	Octubre	2023-10-14T00:00:00	2024-11-08T09:00:00	1	Precipitación	0
153216	7	Sololá	713	San Lucas Tolimán	10	San Lucas Tolimán	10	Octubre	2023-10-14T00:00:00	2024-11-08T09:00:00	8	Radiación solar	464
153217	7	Sololá	713	San Lucas Tolimán	10	San Lucas Tolimán	10	Octubre	2023-10-14T00:00:00	2024-11-08T10:00:00	2	Temperatura media	23.8
153218	7	Sololá	713	San Lucas Tolimán	10	San Lucas Tolimán	10	Octubre	2023-10-14T00:00:00	2024-11-08T10:00:00	4	Temperatura máxima	24.8
153219	7	Sololá	713	San Lucas Tolimán	10	San Lucas Tolimán	10	Octubre	2023-10-14T00:00:00	2024-11-08T10:00:00	3	Temperatura mínima	22.9
153220	7	Sololá	713	San Lucas Tolimán	10	San Lucas Tolimán	10	Octubre	2023-10-14T00:00:00	2024-11-08T10:00:00	5	Humedad	53
153221	7	Sololá	713	San Lucas Tolimán	10	San Lucas Tolimán	10	Octubre	2023-10-14T00:00:00	2024-11-08T10:00:00	6	Velocidad del viento	6.4
153222	7	Sololá	713	San Lucas Tolimán	10	San Lucas Tolimán	10	Octubre	2023-10-14T00:00:00	2024-11-08T10:00:00	7	Dirección del viento	6.44
153223	7	Sololá	713	San Lucas Tolimán	10	San Lucas Tolimán	10	Octubre	2023-10-14T00:00:00	2024-11-08T10:00:00	1	Precipitación	0
153224	7	Sololá	713	San Lucas Tolimán	10	San Lucas Tolimán	10	Octubre	2023-10-14T00:00:00	2024-11-08T10:00:00	8	Radiación solar	624
153225	7	Sololá	713	San Lucas Tolimán	10	San Lucas Tolimán	10	Octubre	2023-10-14T00:00:00	2024-11-08T11:00:00	2	Temperatura media	21.5
153226	7	Sololá	713	San Lucas Tolimán	10	San Lucas Tolimán	10	Octubre	2023-10-14T00:00:00	2024-11-08T11:00:00	4	Temperatura máxima	23.8
153227	7	Sololá	713	San Lucas Tolimán	10	San Lucas Tolimán	10	Octubre	2023-10-14T00:00:00	2024-11-08T11:00:00	3	Temperatura mínima	21.4
153228	7	Sololá	713	San Lucas Tolimán	10	San Lucas Tolimán	10	Octubre	2023-10-14T00:00:00	2024-11-08T11:00:00	5	Humedad	59
153229	7	Sololá	713	San Lucas Tolimán	10	San Lucas Tolimán	10	Octubre	2023-10-14T00:00:00	2024-11-08T11:00:00	6	Velocidad del viento	11.3
153230	7	Sololá	713	San Lucas Tolimán	10	San Lucas Tolimán	10	Octubre	2023-10-14T00:00:00	2024-11-08T11:00:00	7	Dirección del viento	11.27
153231	7	Sololá	713	San Lucas Tolimán	10	San Lucas Tolimán	10	Octubre	2023-10-14T00:00:00	2024-11-08T11:00:00	1	Precipitación	0
153232	7	Sololá	713	San Lucas Tolimán	10	San Lucas Tolimán	10	Octubre	2023-10-14T00:00:00	2024-11-08T11:00:00	8	Radiación solar	281
153233	7	Sololá	713	San Lucas Tolimán	10	San Lucas Tolimán	10	Octubre	2023-10-14T00:00:00	2024-11-08T12:00:00	2	Temperatura media	20.3
153234	7	Sololá	713	San Lucas Tolimán	10	San Lucas Tolimán	10	Octubre	2023-10-14T00:00:00	2024-11-08T12:00:00	4	Temperatura máxima	21.7
153235	7	Sololá	713	San Lucas Tolimán	10	San Lucas Tolimán	10	Octubre	2023-10-14T00:00:00	2024-11-08T12:00:00	3	Temperatura mínima	20.3
153236	7	Sololá	713	San Lucas Tolimán	10	San Lucas Tolimán	10	Octubre	2023-10-14T00:00:00	2024-11-08T12:00:00	5	Humedad	63
153237	7	Sololá	713	San Lucas Tolimán	10	San Lucas Tolimán	10	Octubre	2023-10-14T00:00:00	2024-11-08T12:00:00	6	Velocidad del viento	12.9
153238	7	Sololá	713	San Lucas Tolimán	10	San Lucas Tolimán	10	Octubre	2023-10-14T00:00:00	2024-11-08T12:00:00	7	Dirección del viento	12.87
153239	7	Sololá	713	San Lucas Tolimán	10	San Lucas Tolimán	10	Octubre	2023-10-14T00:00:00	2024-11-08T12:00:00	1	Precipitación	0
153240	7	Sololá	713	San Lucas Tolimán	10	San Lucas Tolimán	10	Octubre	2023-10-14T00:00:00	2024-11-08T12:00:00	8	Radiación solar	284
153241	7	Sololá	713	San Lucas Tolimán	10	San Lucas Tolimán	10	Octubre	2023-10-14T00:00:00	2024-11-08T13:00:00	2	Temperatura media	23.4
153242	7	Sololá	713	San Lucas Tolimán	10	San Lucas Tolimán	10	Octubre	2023-10-14T00:00:00	2024-11-08T13:00:00	4	Temperatura máxima	23.4
153243	7	Sololá	713	San Lucas Tolimán	10	San Lucas Tolimán	10	Octubre	2023-10-14T00:00:00	2024-11-08T13:00:00	3	Temperatura mínima	20.3
153244	7	Sololá	713	San Lucas Tolimán	10	San Lucas Tolimán	10	Octubre	2023-10-14T00:00:00	2024-11-08T13:00:00	5	Humedad	56
153245	7	Sololá	713	San Lucas Tolimán	10	San Lucas Tolimán	10	Octubre	2023-10-14T00:00:00	2024-11-08T13:00:00	6	Velocidad del viento	8
153246	7	Sololá	713	San Lucas Tolimán	10	San Lucas Tolimán	10	Octubre	2023-10-14T00:00:00	2024-11-08T13:00:00	7	Dirección del viento	8.05
153247	7	Sololá	713	San Lucas Tolimán	10	San Lucas Tolimán	10	Octubre	2023-10-14T00:00:00	2024-11-08T13:00:00	1	Precipitación	0
153248	7	Sololá	713	San Lucas Tolimán	10	San Lucas Tolimán	10	Octubre	2023-10-14T00:00:00	2024-11-08T13:00:00	8	Radiación solar	691
153249	7	Sololá	713	San Lucas Tolimán	10	San Lucas Tolimán	10	Octubre	2023-10-14T00:00:00	2024-11-08T14:00:00	2	Temperatura media	21.2
153250	7	Sololá	713	San Lucas Tolimán	10	San Lucas Tolimán	10	Octubre	2023-10-14T00:00:00	2024-11-08T14:00:00	4	Temperatura máxima	23.4
153251	7	Sololá	713	San Lucas Tolimán	10	San Lucas Tolimán	10	Octubre	2023-10-14T00:00:00	2024-11-08T14:00:00	3	Temperatura mínima	21.2
153252	7	Sololá	713	San Lucas Tolimán	10	San Lucas Tolimán	10	Octubre	2023-10-14T00:00:00	2024-11-08T14:00:00	5	Humedad	62
153253	7	Sololá	713	San Lucas Tolimán	10	San Lucas Tolimán	10	Octubre	2023-10-14T00:00:00	2024-11-08T14:00:00	6	Velocidad del viento	9.7
153254	7	Sololá	713	San Lucas Tolimán	10	San Lucas Tolimán	10	Octubre	2023-10-14T00:00:00	2024-11-08T14:00:00	7	Dirección del viento	9.66
153255	7	Sololá	713	San Lucas Tolimán	10	San Lucas Tolimán	10	Octubre	2023-10-14T00:00:00	2024-11-08T14:00:00	1	Precipitación	0
153256	7	Sololá	713	San Lucas Tolimán	10	San Lucas Tolimán	10	Octubre	2023-10-14T00:00:00	2024-11-08T14:00:00	8	Radiación solar	353
153257	7	Sololá	713	San Lucas Tolimán	10	San Lucas Tolimán	10	Octubre	2023-10-14T00:00:00	2024-11-08T15:00:00	2	Temperatura media	19.6
153258	7	Sololá	713	San Lucas Tolimán	10	San Lucas Tolimán	10	Octubre	2023-10-14T00:00:00	2024-11-08T15:00:00	4	Temperatura máxima	21.6
153259	7	Sololá	713	San Lucas Tolimán	10	San Lucas Tolimán	10	Octubre	2023-10-14T00:00:00	2024-11-08T15:00:00	3	Temperatura mínima	19.6
153260	7	Sololá	713	San Lucas Tolimán	10	San Lucas Tolimán	10	Octubre	2023-10-14T00:00:00	2024-11-08T15:00:00	5	Humedad	66
153261	7	Sololá	713	San Lucas Tolimán	10	San Lucas Tolimán	10	Octubre	2023-10-14T00:00:00	2024-11-08T15:00:00	6	Velocidad del viento	11.3
153262	7	Sololá	713	San Lucas Tolimán	10	San Lucas Tolimán	10	Octubre	2023-10-14T00:00:00	2024-11-08T15:00:00	7	Dirección del viento	11.27
153263	7	Sololá	713	San Lucas Tolimán	10	San Lucas Tolimán	10	Octubre	2023-10-14T00:00:00	2024-11-08T15:00:00	1	Precipitación	0
153264	7	Sololá	713	San Lucas Tolimán	10	San Lucas Tolimán	10	Octubre	2023-10-14T00:00:00	2024-11-08T15:00:00	8	Radiación solar	172
153265	7	Sololá	713	San Lucas Tolimán	10	San Lucas Tolimán	10	Octubre	2023-10-14T00:00:00	2024-11-08T16:00:00	2	Temperatura media	19.9
153266	7	Sololá	713	San Lucas Tolimán	10	San Lucas Tolimán	10	Octubre	2023-10-14T00:00:00	2024-11-08T16:00:00	4	Temperatura máxima	19.9
153267	7	Sololá	713	San Lucas Tolimán	10	San Lucas Tolimán	10	Octubre	2023-10-14T00:00:00	2024-11-08T16:00:00	3	Temperatura mínima	19.4
153268	7	Sololá	713	San Lucas Tolimán	10	San Lucas Tolimán	10	Octubre	2023-10-14T00:00:00	2024-11-08T16:00:00	5	Humedad	65
153269	7	Sololá	713	San Lucas Tolimán	10	San Lucas Tolimán	10	Octubre	2023-10-14T00:00:00	2024-11-08T16:00:00	6	Velocidad del viento	8
153270	7	Sololá	713	San Lucas Tolimán	10	San Lucas Tolimán	10	Octubre	2023-10-14T00:00:00	2024-11-08T16:00:00	7	Dirección del viento	8.05
153271	7	Sololá	713	San Lucas Tolimán	10	San Lucas Tolimán	10	Octubre	2023-10-14T00:00:00	2024-11-08T16:00:00	1	Precipitación	0
153272	7	Sololá	713	San Lucas Tolimán	10	San Lucas Tolimán	10	Octubre	2023-10-14T00:00:00	2024-11-08T16:00:00	8	Radiación solar	188
153273	7	Sololá	713	San Lucas Tolimán	10	San Lucas Tolimán	10	Octubre	2023-10-14T00:00:00	2024-11-08T17:00:00	2	Temperatura media	19.7
153274	7	Sololá	713	San Lucas Tolimán	10	San Lucas Tolimán	10	Octubre	2023-10-14T00:00:00	2024-11-08T17:00:00	4	Temperatura máxima	20.1
153275	7	Sololá	713	San Lucas Tolimán	10	San Lucas Tolimán	10	Octubre	2023-10-14T00:00:00	2024-11-08T17:00:00	3	Temperatura mínima	19.6
153276	7	Sololá	713	San Lucas Tolimán	10	San Lucas Tolimán	10	Octubre	2023-10-14T00:00:00	2024-11-08T17:00:00	5	Humedad	65
153277	7	Sololá	713	San Lucas Tolimán	10	San Lucas Tolimán	10	Octubre	2023-10-14T00:00:00	2024-11-08T17:00:00	6	Velocidad del viento	4.8
153278	7	Sololá	713	San Lucas Tolimán	10	San Lucas Tolimán	10	Octubre	2023-10-14T00:00:00	2024-11-08T17:00:00	7	Dirección del viento	4.83
153279	7	Sololá	713	San Lucas Tolimán	10	San Lucas Tolimán	10	Octubre	2023-10-14T00:00:00	2024-11-08T17:00:00	1	Precipitación	0
153280	7	Sololá	713	San Lucas Tolimán	10	San Lucas Tolimán	10	Octubre	2023-10-14T00:00:00	2024-11-08T17:00:00	8	Radiación solar	98
153281	7	Sololá	713	San Lucas Tolimán	10	San Lucas Tolimán	10	Octubre	2023-10-14T00:00:00	2024-11-08T18:00:00	2	Temperatura media	19.1
153282	7	Sololá	713	San Lucas Tolimán	10	San Lucas Tolimán	10	Octubre	2023-10-14T00:00:00	2024-11-08T18:00:00	4	Temperatura máxima	19.7
153283	7	Sololá	713	San Lucas Tolimán	10	San Lucas Tolimán	10	Octubre	2023-10-14T00:00:00	2024-11-08T18:00:00	3	Temperatura mínima	19
153284	7	Sololá	713	San Lucas Tolimán	10	San Lucas Tolimán	10	Octubre	2023-10-14T00:00:00	2024-11-08T18:00:00	5	Humedad	66
153285	7	Sololá	713	San Lucas Tolimán	10	San Lucas Tolimán	10	Octubre	2023-10-14T00:00:00	2024-11-08T18:00:00	6	Velocidad del viento	6.4
153286	7	Sololá	713	San Lucas Tolimán	10	San Lucas Tolimán	10	Octubre	2023-10-14T00:00:00	2024-11-08T18:00:00	7	Dirección del viento	6.44
153287	7	Sololá	713	San Lucas Tolimán	10	San Lucas Tolimán	10	Octubre	2023-10-14T00:00:00	2024-11-08T18:00:00	1	Precipitación	0
153288	7	Sololá	713	San Lucas Tolimán	10	San Lucas Tolimán	10	Octubre	2023-10-14T00:00:00	2024-11-08T18:00:00	8	Radiación solar	21
153289	7	Sololá	713	San Lucas Tolimán	10	San Lucas Tolimán	10	Octubre	2023-10-14T00:00:00	2024-11-08T19:00:00	2	Temperatura media	20.1
153290	7	Sololá	713	San Lucas Tolimán	10	San Lucas Tolimán	10	Octubre	2023-10-14T00:00:00	2024-11-08T19:00:00	4	Temperatura máxima	20.2
153291	7	Sololá	713	San Lucas Tolimán	10	San Lucas Tolimán	10	Octubre	2023-10-14T00:00:00	2024-11-08T19:00:00	3	Temperatura mínima	18.9
153292	7	Sololá	713	San Lucas Tolimán	10	San Lucas Tolimán	10	Octubre	2023-10-14T00:00:00	2024-11-08T19:00:00	5	Humedad	61
153293	7	Sololá	713	San Lucas Tolimán	10	San Lucas Tolimán	10	Octubre	2023-10-14T00:00:00	2024-11-08T19:00:00	6	Velocidad del viento	3.2
153294	7	Sololá	713	San Lucas Tolimán	10	San Lucas Tolimán	10	Octubre	2023-10-14T00:00:00	2024-11-08T19:00:00	7	Dirección del viento	3.22
153295	7	Sololá	713	San Lucas Tolimán	10	San Lucas Tolimán	10	Octubre	2023-10-14T00:00:00	2024-11-08T19:00:00	1	Precipitación	0
153296	7	Sololá	713	San Lucas Tolimán	10	San Lucas Tolimán	10	Octubre	2023-10-14T00:00:00	2024-11-08T19:00:00	8	Radiación solar	0
153297	7	Sololá	713	San Lucas Tolimán	10	San Lucas Tolimán	10	Octubre	2023-10-14T00:00:00	2024-11-08T20:00:00	2	Temperatura media	20.4
153298	7	Sololá	713	San Lucas Tolimán	10	San Lucas Tolimán	10	Octubre	2023-10-14T00:00:00	2024-11-08T20:00:00	4	Temperatura máxima	21.3
153299	7	Sololá	713	San Lucas Tolimán	10	San Lucas Tolimán	10	Octubre	2023-10-14T00:00:00	2024-11-08T20:00:00	3	Temperatura mínima	20.1
153300	7	Sololá	713	San Lucas Tolimán	10	San Lucas Tolimán	10	Octubre	2023-10-14T00:00:00	2024-11-08T20:00:00	5	Humedad	55
153301	7	Sololá	713	San Lucas Tolimán	10	San Lucas Tolimán	10	Octubre	2023-10-14T00:00:00	2024-11-08T20:00:00	6	Velocidad del viento	3.2
153302	7	Sololá	713	San Lucas Tolimán	10	San Lucas Tolimán	10	Octubre	2023-10-14T00:00:00	2024-11-08T20:00:00	7	Dirección del viento	3.22
153303	7	Sololá	713	San Lucas Tolimán	10	San Lucas Tolimán	10	Octubre	2023-10-14T00:00:00	2024-11-08T20:00:00	1	Precipitación	0
153304	7	Sololá	713	San Lucas Tolimán	10	San Lucas Tolimán	10	Octubre	2023-10-14T00:00:00	2024-11-08T20:00:00	8	Radiación solar	0
153305	7	Sololá	713	San Lucas Tolimán	10	San Lucas Tolimán	10	Octubre	2023-10-14T00:00:00	2024-11-08T21:00:00	2	Temperatura media	21.4
153306	7	Sololá	713	San Lucas Tolimán	10	San Lucas Tolimán	10	Octubre	2023-10-14T00:00:00	2024-11-08T21:00:00	4	Temperatura máxima	21.7
153307	7	Sololá	713	San Lucas Tolimán	10	San Lucas Tolimán	10	Octubre	2023-10-14T00:00:00	2024-11-08T21:00:00	3	Temperatura mínima	19.1
153308	7	Sololá	713	San Lucas Tolimán	10	San Lucas Tolimán	10	Octubre	2023-10-14T00:00:00	2024-11-08T21:00:00	5	Humedad	52
153309	7	Sololá	713	San Lucas Tolimán	10	San Lucas Tolimán	10	Octubre	2023-10-14T00:00:00	2024-11-08T21:00:00	6	Velocidad del viento	4.8
153310	7	Sololá	713	San Lucas Tolimán	10	San Lucas Tolimán	10	Octubre	2023-10-14T00:00:00	2024-11-08T21:00:00	7	Dirección del viento	4.83
153311	7	Sololá	713	San Lucas Tolimán	10	San Lucas Tolimán	10	Octubre	2023-10-14T00:00:00	2024-11-08T21:00:00	1	Precipitación	0
153312	7	Sololá	713	San Lucas Tolimán	10	San Lucas Tolimán	10	Octubre	2023-10-14T00:00:00	2024-11-08T21:00:00	8	Radiación solar	0
153313	7	Sololá	713	San Lucas Tolimán	10	San Lucas Tolimán	10	Octubre	2023-10-14T00:00:00	2024-11-08T22:00:00	2	Temperatura media	20.2
153314	7	Sololá	713	San Lucas Tolimán	10	San Lucas Tolimán	10	Octubre	2023-10-14T00:00:00	2024-11-08T22:00:00	4	Temperatura máxima	21.4
153315	7	Sololá	713	San Lucas Tolimán	10	San Lucas Tolimán	10	Octubre	2023-10-14T00:00:00	2024-11-08T22:00:00	3	Temperatura mínima	19.5
153316	7	Sololá	713	San Lucas Tolimán	10	San Lucas Tolimán	10	Octubre	2023-10-14T00:00:00	2024-11-08T22:00:00	5	Humedad	56
153317	7	Sololá	713	San Lucas Tolimán	10	San Lucas Tolimán	10	Octubre	2023-10-14T00:00:00	2024-11-08T22:00:00	6	Velocidad del viento	3.2
153318	7	Sololá	713	San Lucas Tolimán	10	San Lucas Tolimán	10	Octubre	2023-10-14T00:00:00	2024-11-08T22:00:00	7	Dirección del viento	3.22
153319	7	Sololá	713	San Lucas Tolimán	10	San Lucas Tolimán	10	Octubre	2023-10-14T00:00:00	2024-11-08T22:00:00	1	Precipitación	0
153320	7	Sololá	713	San Lucas Tolimán	10	San Lucas Tolimán	10	Octubre	2023-10-14T00:00:00	2024-11-08T22:00:00	8	Radiación solar	0
153321	7	Sololá	713	San Lucas Tolimán	10	San Lucas Tolimán	10	Octubre	2023-10-14T00:00:00	2024-11-08T23:00:00	2	Temperatura media	18.6
153322	7	Sololá	713	San Lucas Tolimán	10	San Lucas Tolimán	10	Octubre	2023-10-14T00:00:00	2024-11-08T23:00:00	4	Temperatura máxima	20.2
153323	7	Sololá	713	San Lucas Tolimán	10	San Lucas Tolimán	10	Octubre	2023-10-14T00:00:00	2024-11-08T23:00:00	3	Temperatura mínima	18.6
153324	7	Sololá	713	San Lucas Tolimán	10	San Lucas Tolimán	10	Octubre	2023-10-14T00:00:00	2024-11-08T23:00:00	5	Humedad	65
153325	7	Sololá	713	San Lucas Tolimán	10	San Lucas Tolimán	10	Octubre	2023-10-14T00:00:00	2024-11-08T23:00:00	6	Velocidad del viento	6.4
153326	7	Sololá	713	San Lucas Tolimán	10	San Lucas Tolimán	10	Octubre	2023-10-14T00:00:00	2024-11-08T23:00:00	7	Dirección del viento	6.44
153327	7	Sololá	713	San Lucas Tolimán	10	San Lucas Tolimán	10	Octubre	2023-10-14T00:00:00	2024-11-08T23:00:00	1	Precipitación	0
153328	7	Sololá	713	San Lucas Tolimán	10	San Lucas Tolimán	10	Octubre	2023-10-14T00:00:00	2024-11-08T23:00:00	8	Radiación solar	0
153329	7	Sololá	713	San Lucas Tolimán	10	San Lucas Tolimán	10	Octubre	2023-10-15T00:00:00	2024-11-08T00:00:00	2	Temperatura media	18.4
153330	7	Sololá	713	San Lucas Tolimán	10	San Lucas Tolimán	10	Octubre	2023-10-15T00:00:00	2024-11-08T00:00:00	4	Temperatura máxima	18.6
153331	7	Sololá	713	San Lucas Tolimán	10	San Lucas Tolimán	10	Octubre	2023-10-15T00:00:00	2024-11-08T00:00:00	3	Temperatura mínima	18.3
153332	7	Sololá	713	San Lucas Tolimán	10	San Lucas Tolimán	10	Octubre	2023-10-15T00:00:00	2024-11-08T00:00:00	5	Humedad	66
153333	7	Sololá	713	San Lucas Tolimán	10	San Lucas Tolimán	10	Octubre	2023-10-15T00:00:00	2024-11-08T00:00:00	6	Velocidad del viento	4.8
153334	7	Sololá	713	San Lucas Tolimán	10	San Lucas Tolimán	10	Octubre	2023-10-15T00:00:00	2024-11-08T00:00:00	7	Dirección del viento	4.83
153335	7	Sololá	713	San Lucas Tolimán	10	San Lucas Tolimán	10	Octubre	2023-10-15T00:00:00	2024-11-08T00:00:00	1	Precipitación	0
153336	7	Sololá	713	San Lucas Tolimán	10	San Lucas Tolimán	10	Octubre	2023-10-15T00:00:00	2024-11-08T00:00:00	8	Radiación solar	0
153337	7	Sololá	713	San Lucas Tolimán	10	San Lucas Tolimán	10	Octubre	2023-10-15T00:00:00	2024-11-08T01:00:00	2	Temperatura media	18.1
153338	7	Sololá	713	San Lucas Tolimán	10	San Lucas Tolimán	10	Octubre	2023-10-15T00:00:00	2024-11-08T01:00:00	4	Temperatura máxima	18.5
153339	7	Sololá	713	San Lucas Tolimán	10	San Lucas Tolimán	10	Octubre	2023-10-15T00:00:00	2024-11-08T01:00:00	3	Temperatura mínima	18
153340	7	Sololá	713	San Lucas Tolimán	10	San Lucas Tolimán	10	Octubre	2023-10-15T00:00:00	2024-11-08T01:00:00	5	Humedad	94
153341	7	Sololá	713	San Lucas Tolimán	10	San Lucas Tolimán	10	Octubre	2023-10-15T00:00:00	2024-11-08T01:00:00	6	Velocidad del viento	4.8
153342	7	Sololá	713	San Lucas Tolimán	10	San Lucas Tolimán	10	Octubre	2023-10-15T00:00:00	2024-11-08T01:00:00	7	Dirección del viento	4.83
153343	7	Sololá	713	San Lucas Tolimán	10	San Lucas Tolimán	10	Octubre	2023-10-15T00:00:00	2024-11-08T01:00:00	1	Precipitación	0
153344	7	Sololá	713	San Lucas Tolimán	10	San Lucas Tolimán	10	Octubre	2023-10-15T00:00:00	2024-11-08T01:00:00	8	Radiación solar	0
153345	7	Sololá	713	San Lucas Tolimán	10	San Lucas Tolimán	10	Octubre	2023-10-15T00:00:00	2024-11-08T02:00:00	2	Temperatura media	17.6
153346	7	Sololá	713	San Lucas Tolimán	10	San Lucas Tolimán	10	Octubre	2023-10-15T00:00:00	2024-11-08T02:00:00	4	Temperatura máxima	18
153347	7	Sololá	713	San Lucas Tolimán	10	San Lucas Tolimán	10	Octubre	2023-10-15T00:00:00	2024-11-08T02:00:00	3	Temperatura mínima	17.4
153348	7	Sololá	713	San Lucas Tolimán	10	San Lucas Tolimán	10	Octubre	2023-10-15T00:00:00	2024-11-08T02:00:00	5	Humedad	92
153349	7	Sololá	713	San Lucas Tolimán	10	San Lucas Tolimán	10	Octubre	2023-10-15T00:00:00	2024-11-08T02:00:00	6	Velocidad del viento	3.2
153350	7	Sololá	713	San Lucas Tolimán	10	San Lucas Tolimán	10	Octubre	2023-10-15T00:00:00	2024-11-08T02:00:00	7	Dirección del viento	3.22
153351	7	Sololá	713	San Lucas Tolimán	10	San Lucas Tolimán	10	Octubre	2023-10-15T00:00:00	2024-11-08T02:00:00	1	Precipitación	0
153352	7	Sololá	713	San Lucas Tolimán	10	San Lucas Tolimán	10	Octubre	2023-10-15T00:00:00	2024-11-08T02:00:00	8	Radiación solar	0
153353	7	Sololá	713	San Lucas Tolimán	10	San Lucas Tolimán	10	Octubre	2023-10-15T00:00:00	2024-11-08T03:00:00	2	Temperatura media	17.2
153354	7	Sololá	713	San Lucas Tolimán	10	San Lucas Tolimán	10	Octubre	2023-10-15T00:00:00	2024-11-08T03:00:00	4	Temperatura máxima	17.6
153355	7	Sololá	713	San Lucas Tolimán	10	San Lucas Tolimán	10	Octubre	2023-10-15T00:00:00	2024-11-08T03:00:00	3	Temperatura mínima	17.2
153356	7	Sololá	713	San Lucas Tolimán	10	San Lucas Tolimán	10	Octubre	2023-10-15T00:00:00	2024-11-08T03:00:00	5	Humedad	93
153357	7	Sololá	713	San Lucas Tolimán	10	San Lucas Tolimán	10	Octubre	2023-10-15T00:00:00	2024-11-08T03:00:00	6	Velocidad del viento	3.2
153358	7	Sololá	713	San Lucas Tolimán	10	San Lucas Tolimán	10	Octubre	2023-10-15T00:00:00	2024-11-08T03:00:00	7	Dirección del viento	3.22
153359	7	Sololá	713	San Lucas Tolimán	10	San Lucas Tolimán	10	Octubre	2023-10-15T00:00:00	2024-11-08T03:00:00	1	Precipitación	0
153360	7	Sololá	713	San Lucas Tolimán	10	San Lucas Tolimán	10	Octubre	2023-10-15T00:00:00	2024-11-08T03:00:00	8	Radiación solar	0
153361	7	Sololá	713	San Lucas Tolimán	10	San Lucas Tolimán	10	Octubre	2023-10-15T00:00:00	2024-11-08T04:00:00	2	Temperatura media	17.2
153362	7	Sololá	713	San Lucas Tolimán	10	San Lucas Tolimán	10	Octubre	2023-10-15T00:00:00	2024-11-08T04:00:00	4	Temperatura máxima	17.3
153363	7	Sololá	713	San Lucas Tolimán	10	San Lucas Tolimán	10	Octubre	2023-10-15T00:00:00	2024-11-08T04:00:00	3	Temperatura mínima	16.8
153364	7	Sololá	713	San Lucas Tolimán	10	San Lucas Tolimán	10	Octubre	2023-10-15T00:00:00	2024-11-08T04:00:00	5	Humedad	96
153365	7	Sololá	713	San Lucas Tolimán	10	San Lucas Tolimán	10	Octubre	2023-10-15T00:00:00	2024-11-08T04:00:00	6	Velocidad del viento	4.8
153366	7	Sololá	713	San Lucas Tolimán	10	San Lucas Tolimán	10	Octubre	2023-10-15T00:00:00	2024-11-08T04:00:00	7	Dirección del viento	4.83
153367	7	Sololá	713	San Lucas Tolimán	10	San Lucas Tolimán	10	Octubre	2023-10-15T00:00:00	2024-11-08T04:00:00	1	Precipitación	0
153368	7	Sololá	713	San Lucas Tolimán	10	San Lucas Tolimán	10	Octubre	2023-10-15T00:00:00	2024-11-08T04:00:00	8	Radiación solar	0
153369	7	Sololá	713	San Lucas Tolimán	10	San Lucas Tolimán	10	Octubre	2023-10-15T00:00:00	2024-11-08T05:00:00	2	Temperatura media	16.2
153370	7	Sololá	713	San Lucas Tolimán	10	San Lucas Tolimán	10	Octubre	2023-10-15T00:00:00	2024-11-08T05:00:00	4	Temperatura máxima	17.2
153371	7	Sololá	713	San Lucas Tolimán	10	San Lucas Tolimán	10	Octubre	2023-10-15T00:00:00	2024-11-08T05:00:00	3	Temperatura mínima	16.2
153372	7	Sololá	713	San Lucas Tolimán	10	San Lucas Tolimán	10	Octubre	2023-10-15T00:00:00	2024-11-08T05:00:00	5	Humedad	95
153373	7	Sololá	713	San Lucas Tolimán	10	San Lucas Tolimán	10	Octubre	2023-10-15T00:00:00	2024-11-08T05:00:00	6	Velocidad del viento	3.2
153374	7	Sololá	713	San Lucas Tolimán	10	San Lucas Tolimán	10	Octubre	2023-10-15T00:00:00	2024-11-08T05:00:00	7	Dirección del viento	3.22
153375	7	Sololá	713	San Lucas Tolimán	10	San Lucas Tolimán	10	Octubre	2023-10-15T00:00:00	2024-11-08T05:00:00	1	Precipitación	0
153376	7	Sololá	713	San Lucas Tolimán	10	San Lucas Tolimán	10	Octubre	2023-10-15T00:00:00	2024-11-08T05:00:00	8	Radiación solar	0
153377	7	Sololá	713	San Lucas Tolimán	10	San Lucas Tolimán	10	Octubre	2023-10-15T00:00:00	2024-11-08T06:00:00	2	Temperatura media	16.4
153378	7	Sololá	713	San Lucas Tolimán	10	San Lucas Tolimán	10	Octubre	2023-10-15T00:00:00	2024-11-08T06:00:00	4	Temperatura máxima	16.4
153379	7	Sololá	713	San Lucas Tolimán	10	San Lucas Tolimán	10	Octubre	2023-10-15T00:00:00	2024-11-08T06:00:00	3	Temperatura mínima	15.8
153380	7	Sololá	713	San Lucas Tolimán	10	San Lucas Tolimán	10	Octubre	2023-10-15T00:00:00	2024-11-08T06:00:00	5	Humedad	96
153381	7	Sololá	713	San Lucas Tolimán	10	San Lucas Tolimán	10	Octubre	2023-10-15T00:00:00	2024-11-08T06:00:00	6	Velocidad del viento	3.2
153382	7	Sololá	713	San Lucas Tolimán	10	San Lucas Tolimán	10	Octubre	2023-10-15T00:00:00	2024-11-08T06:00:00	7	Dirección del viento	3.22
153383	7	Sololá	713	San Lucas Tolimán	10	San Lucas Tolimán	10	Octubre	2023-10-15T00:00:00	2024-11-08T06:00:00	1	Precipitación	0
153384	7	Sololá	713	San Lucas Tolimán	10	San Lucas Tolimán	10	Octubre	2023-10-15T00:00:00	2024-11-08T06:00:00	8	Radiación solar	0
153385	7	Sololá	713	San Lucas Tolimán	10	San Lucas Tolimán	10	Octubre	2023-10-15T00:00:00	2024-11-08T07:00:00	2	Temperatura media	17
153386	7	Sololá	713	San Lucas Tolimán	10	San Lucas Tolimán	10	Octubre	2023-10-15T00:00:00	2024-11-08T07:00:00	4	Temperatura máxima	17
153387	7	Sololá	713	San Lucas Tolimán	10	San Lucas Tolimán	10	Octubre	2023-10-15T00:00:00	2024-11-08T07:00:00	3	Temperatura mínima	16.4
153388	7	Sololá	713	San Lucas Tolimán	10	San Lucas Tolimán	10	Octubre	2023-10-15T00:00:00	2024-11-08T07:00:00	5	Humedad	97
153389	7	Sololá	713	San Lucas Tolimán	10	San Lucas Tolimán	10	Octubre	2023-10-15T00:00:00	2024-11-08T07:00:00	6	Velocidad del viento	4.8
153390	7	Sololá	713	San Lucas Tolimán	10	San Lucas Tolimán	10	Octubre	2023-10-15T00:00:00	2024-11-08T07:00:00	7	Dirección del viento	4.83
153391	7	Sololá	713	San Lucas Tolimán	10	San Lucas Tolimán	10	Octubre	2023-10-15T00:00:00	2024-11-08T07:00:00	1	Precipitación	0
153392	7	Sololá	713	San Lucas Tolimán	10	San Lucas Tolimán	10	Octubre	2023-10-15T00:00:00	2024-11-08T07:00:00	8	Radiación solar	51
153393	7	Sololá	713	San Lucas Tolimán	10	San Lucas Tolimán	10	Octubre	2023-10-15T00:00:00	2024-11-08T08:00:00	2	Temperatura media	19.2
153394	7	Sololá	713	San Lucas Tolimán	10	San Lucas Tolimán	10	Octubre	2023-10-15T00:00:00	2024-11-08T08:00:00	4	Temperatura máxima	19.2
153395	7	Sololá	713	San Lucas Tolimán	10	San Lucas Tolimán	10	Octubre	2023-10-15T00:00:00	2024-11-08T08:00:00	3	Temperatura mínima	16.9
153396	7	Sololá	713	San Lucas Tolimán	10	San Lucas Tolimán	10	Octubre	2023-10-15T00:00:00	2024-11-08T08:00:00	5	Humedad	91
153397	7	Sololá	713	San Lucas Tolimán	10	San Lucas Tolimán	10	Octubre	2023-10-15T00:00:00	2024-11-08T08:00:00	6	Velocidad del viento	8
153398	7	Sololá	713	San Lucas Tolimán	10	San Lucas Tolimán	10	Octubre	2023-10-15T00:00:00	2024-11-08T08:00:00	7	Dirección del viento	8.05
153399	7	Sololá	713	San Lucas Tolimán	10	San Lucas Tolimán	10	Octubre	2023-10-15T00:00:00	2024-11-08T08:00:00	1	Precipitación	0
153400	7	Sololá	713	San Lucas Tolimán	10	San Lucas Tolimán	10	Octubre	2023-10-15T00:00:00	2024-11-08T08:00:00	8	Radiación solar	142
153401	7	Sololá	713	San Lucas Tolimán	10	San Lucas Tolimán	10	Octubre	2023-10-15T00:00:00	2024-11-08T09:00:00	2	Temperatura media	21.3
153402	7	Sololá	713	San Lucas Tolimán	10	San Lucas Tolimán	10	Octubre	2023-10-15T00:00:00	2024-11-08T09:00:00	4	Temperatura máxima	21.3
153403	7	Sololá	713	San Lucas Tolimán	10	San Lucas Tolimán	10	Octubre	2023-10-15T00:00:00	2024-11-08T09:00:00	3	Temperatura mínima	19.2
153404	7	Sololá	713	San Lucas Tolimán	10	San Lucas Tolimán	10	Octubre	2023-10-15T00:00:00	2024-11-08T09:00:00	5	Humedad	85
153405	7	Sololá	713	San Lucas Tolimán	10	San Lucas Tolimán	10	Octubre	2023-10-15T00:00:00	2024-11-08T09:00:00	6	Velocidad del viento	9.7
153406	7	Sololá	713	San Lucas Tolimán	10	San Lucas Tolimán	10	Octubre	2023-10-15T00:00:00	2024-11-08T09:00:00	7	Dirección del viento	9.66
153407	7	Sololá	713	San Lucas Tolimán	10	San Lucas Tolimán	10	Octubre	2023-10-15T00:00:00	2024-11-08T09:00:00	1	Precipitación	0
153408	7	Sololá	713	San Lucas Tolimán	10	San Lucas Tolimán	10	Octubre	2023-10-15T00:00:00	2024-11-08T09:00:00	8	Radiación solar	250
153409	7	Sololá	713	San Lucas Tolimán	10	San Lucas Tolimán	10	Octubre	2023-10-15T00:00:00	2024-11-08T10:00:00	2	Temperatura media	21.7
153410	7	Sololá	713	San Lucas Tolimán	10	San Lucas Tolimán	10	Octubre	2023-10-15T00:00:00	2024-11-08T10:00:00	4	Temperatura máxima	22.3
153411	7	Sololá	713	San Lucas Tolimán	10	San Lucas Tolimán	10	Octubre	2023-10-15T00:00:00	2024-11-08T10:00:00	3	Temperatura mínima	21.2
153412	7	Sololá	713	San Lucas Tolimán	10	San Lucas Tolimán	10	Octubre	2023-10-15T00:00:00	2024-11-08T10:00:00	5	Humedad	84
153413	7	Sololá	713	San Lucas Tolimán	10	San Lucas Tolimán	10	Octubre	2023-10-15T00:00:00	2024-11-08T10:00:00	6	Velocidad del viento	11.3
153414	7	Sololá	713	San Lucas Tolimán	10	San Lucas Tolimán	10	Octubre	2023-10-15T00:00:00	2024-11-08T10:00:00	7	Dirección del viento	11.27
153415	7	Sololá	713	San Lucas Tolimán	10	San Lucas Tolimán	10	Octubre	2023-10-15T00:00:00	2024-11-08T10:00:00	1	Precipitación	0
153416	7	Sololá	713	San Lucas Tolimán	10	San Lucas Tolimán	10	Octubre	2023-10-15T00:00:00	2024-11-08T10:00:00	8	Radiación solar	642
153417	7	Sololá	713	San Lucas Tolimán	10	San Lucas Tolimán	10	Octubre	2023-10-15T00:00:00	2024-11-08T11:00:00	2	Temperatura media	21.3
153418	7	Sololá	713	San Lucas Tolimán	10	San Lucas Tolimán	10	Octubre	2023-10-15T00:00:00	2024-11-08T11:00:00	4	Temperatura máxima	22.3
153419	7	Sololá	713	San Lucas Tolimán	10	San Lucas Tolimán	10	Octubre	2023-10-15T00:00:00	2024-11-08T11:00:00	3	Temperatura mínima	21.2
153420	7	Sololá	713	San Lucas Tolimán	10	San Lucas Tolimán	10	Octubre	2023-10-15T00:00:00	2024-11-08T11:00:00	5	Humedad	87
153421	7	Sololá	713	San Lucas Tolimán	10	San Lucas Tolimán	10	Octubre	2023-10-15T00:00:00	2024-11-08T11:00:00	6	Velocidad del viento	12.9
153422	7	Sololá	713	San Lucas Tolimán	10	San Lucas Tolimán	10	Octubre	2023-10-15T00:00:00	2024-11-08T11:00:00	7	Dirección del viento	12.87
153423	7	Sololá	713	San Lucas Tolimán	10	San Lucas Tolimán	10	Octubre	2023-10-15T00:00:00	2024-11-08T11:00:00	1	Precipitación	0
153424	7	Sololá	713	San Lucas Tolimán	10	San Lucas Tolimán	10	Octubre	2023-10-15T00:00:00	2024-11-08T11:00:00	8	Radiación solar	862
153425	7	Sololá	713	San Lucas Tolimán	10	San Lucas Tolimán	10	Octubre	2023-10-15T00:00:00	2024-11-08T12:00:00	2	Temperatura media	22.2
153426	7	Sololá	713	San Lucas Tolimán	10	San Lucas Tolimán	10	Octubre	2023-10-15T00:00:00	2024-11-08T12:00:00	4	Temperatura máxima	22.2
153427	7	Sololá	713	San Lucas Tolimán	10	San Lucas Tolimán	10	Octubre	2023-10-15T00:00:00	2024-11-08T12:00:00	3	Temperatura mínima	21
153428	7	Sololá	713	San Lucas Tolimán	10	San Lucas Tolimán	10	Octubre	2023-10-15T00:00:00	2024-11-08T12:00:00	5	Humedad	86
153429	7	Sololá	713	San Lucas Tolimán	10	San Lucas Tolimán	10	Octubre	2023-10-15T00:00:00	2024-11-08T12:00:00	6	Velocidad del viento	12.9
153430	7	Sololá	713	San Lucas Tolimán	10	San Lucas Tolimán	10	Octubre	2023-10-15T00:00:00	2024-11-08T12:00:00	7	Dirección del viento	12.87
153431	7	Sololá	713	San Lucas Tolimán	10	San Lucas Tolimán	10	Octubre	2023-10-15T00:00:00	2024-11-08T12:00:00	1	Precipitación	0
153432	7	Sololá	713	San Lucas Tolimán	10	San Lucas Tolimán	10	Octubre	2023-10-15T00:00:00	2024-11-08T12:00:00	8	Radiación solar	843
153433	7	Sololá	713	San Lucas Tolimán	10	San Lucas Tolimán	10	Octubre	2023-10-15T00:00:00	2024-11-08T13:00:00	2	Temperatura media	21.7
153434	7	Sololá	713	San Lucas Tolimán	10	San Lucas Tolimán	10	Octubre	2023-10-15T00:00:00	2024-11-08T13:00:00	4	Temperatura máxima	22.5
153435	7	Sololá	713	San Lucas Tolimán	10	San Lucas Tolimán	10	Octubre	2023-10-15T00:00:00	2024-11-08T13:00:00	3	Temperatura mínima	21.4
153436	7	Sololá	713	San Lucas Tolimán	10	San Lucas Tolimán	10	Octubre	2023-10-15T00:00:00	2024-11-08T13:00:00	5	Humedad	87
153437	7	Sololá	713	San Lucas Tolimán	10	San Lucas Tolimán	10	Octubre	2023-10-15T00:00:00	2024-11-08T13:00:00	6	Velocidad del viento	11.3
153438	7	Sololá	713	San Lucas Tolimán	10	San Lucas Tolimán	10	Octubre	2023-10-15T00:00:00	2024-11-08T13:00:00	7	Dirección del viento	11.27
153439	7	Sololá	713	San Lucas Tolimán	10	San Lucas Tolimán	10	Octubre	2023-10-15T00:00:00	2024-11-08T13:00:00	1	Precipitación	0
153440	7	Sololá	713	San Lucas Tolimán	10	San Lucas Tolimán	10	Octubre	2023-10-15T00:00:00	2024-11-08T13:00:00	8	Radiación solar	983
153441	7	Sololá	713	San Lucas Tolimán	10	San Lucas Tolimán	10	Octubre	2023-10-15T00:00:00	2024-11-08T14:00:00	2	Temperatura media	20.9
153442	7	Sololá	713	San Lucas Tolimán	10	San Lucas Tolimán	10	Octubre	2023-10-15T00:00:00	2024-11-08T14:00:00	4	Temperatura máxima	21.8
153443	7	Sololá	713	San Lucas Tolimán	10	San Lucas Tolimán	10	Octubre	2023-10-15T00:00:00	2024-11-08T14:00:00	3	Temperatura mínima	20.1
153444	7	Sololá	713	San Lucas Tolimán	10	San Lucas Tolimán	10	Octubre	2023-10-15T00:00:00	2024-11-08T14:00:00	5	Humedad	88
153445	7	Sololá	713	San Lucas Tolimán	10	San Lucas Tolimán	10	Octubre	2023-10-15T00:00:00	2024-11-08T14:00:00	6	Velocidad del viento	11.3
153446	7	Sololá	713	San Lucas Tolimán	10	San Lucas Tolimán	10	Octubre	2023-10-15T00:00:00	2024-11-08T14:00:00	7	Dirección del viento	11.27
153447	7	Sololá	713	San Lucas Tolimán	10	San Lucas Tolimán	10	Octubre	2023-10-15T00:00:00	2024-11-08T14:00:00	1	Precipitación	0
153448	7	Sololá	713	San Lucas Tolimán	10	San Lucas Tolimán	10	Octubre	2023-10-15T00:00:00	2024-11-08T14:00:00	8	Radiación solar	838
153449	7	Sololá	713	San Lucas Tolimán	10	San Lucas Tolimán	10	Octubre	2023-10-15T00:00:00	2024-11-08T15:00:00	2	Temperatura media	19.4
153450	7	Sololá	713	San Lucas Tolimán	10	San Lucas Tolimán	10	Octubre	2023-10-15T00:00:00	2024-11-08T15:00:00	4	Temperatura máxima	20.8
153451	7	Sololá	713	San Lucas Tolimán	10	San Lucas Tolimán	10	Octubre	2023-10-15T00:00:00	2024-11-08T15:00:00	3	Temperatura mínima	19.4
153452	7	Sololá	713	San Lucas Tolimán	10	San Lucas Tolimán	10	Octubre	2023-10-15T00:00:00	2024-11-08T15:00:00	5	Humedad	94
153453	7	Sololá	713	San Lucas Tolimán	10	San Lucas Tolimán	10	Octubre	2023-10-15T00:00:00	2024-11-08T15:00:00	6	Velocidad del viento	11.3
153454	7	Sololá	713	San Lucas Tolimán	10	San Lucas Tolimán	10	Octubre	2023-10-15T00:00:00	2024-11-08T15:00:00	7	Dirección del viento	11.27
153455	7	Sololá	713	San Lucas Tolimán	10	San Lucas Tolimán	10	Octubre	2023-10-15T00:00:00	2024-11-08T15:00:00	1	Precipitación	0
153456	7	Sololá	713	San Lucas Tolimán	10	San Lucas Tolimán	10	Octubre	2023-10-15T00:00:00	2024-11-08T15:00:00	8	Radiación solar	71
153457	7	Sololá	713	San Lucas Tolimán	10	San Lucas Tolimán	10	Octubre	2023-10-15T00:00:00	2024-11-08T16:00:00	2	Temperatura media	19.6
153458	7	Sololá	713	San Lucas Tolimán	10	San Lucas Tolimán	10	Octubre	2023-10-15T00:00:00	2024-11-08T16:00:00	4	Temperatura máxima	19.6
153459	7	Sololá	713	San Lucas Tolimán	10	San Lucas Tolimán	10	Octubre	2023-10-15T00:00:00	2024-11-08T16:00:00	3	Temperatura mínima	19.4
153460	7	Sololá	713	San Lucas Tolimán	10	San Lucas Tolimán	10	Octubre	2023-10-15T00:00:00	2024-11-08T16:00:00	5	Humedad	93
153461	7	Sololá	713	San Lucas Tolimán	10	San Lucas Tolimán	10	Octubre	2023-10-15T00:00:00	2024-11-08T16:00:00	6	Velocidad del viento	6.4
153462	7	Sololá	713	San Lucas Tolimán	10	San Lucas Tolimán	10	Octubre	2023-10-15T00:00:00	2024-11-08T16:00:00	7	Dirección del viento	6.44
153463	7	Sololá	713	San Lucas Tolimán	10	San Lucas Tolimán	10	Octubre	2023-10-15T00:00:00	2024-11-08T16:00:00	1	Precipitación	0
153464	7	Sololá	713	San Lucas Tolimán	10	San Lucas Tolimán	10	Octubre	2023-10-15T00:00:00	2024-11-08T16:00:00	8	Radiación solar	32
153465	7	Sololá	713	San Lucas Tolimán	10	San Lucas Tolimán	10	Octubre	2023-10-15T00:00:00	2024-11-08T17:00:00	2	Temperatura media	18.6
153466	7	Sololá	713	San Lucas Tolimán	10	San Lucas Tolimán	10	Octubre	2023-10-15T00:00:00	2024-11-08T17:00:00	4	Temperatura máxima	19.6
153467	7	Sololá	713	San Lucas Tolimán	10	San Lucas Tolimán	10	Octubre	2023-10-15T00:00:00	2024-11-08T17:00:00	3	Temperatura mínima	18.6
153468	7	Sololá	713	San Lucas Tolimán	10	San Lucas Tolimán	10	Octubre	2023-10-15T00:00:00	2024-11-08T17:00:00	5	Humedad	96
153469	7	Sololá	713	San Lucas Tolimán	10	San Lucas Tolimán	10	Octubre	2023-10-15T00:00:00	2024-11-08T17:00:00	6	Velocidad del viento	8
153470	7	Sololá	713	San Lucas Tolimán	10	San Lucas Tolimán	10	Octubre	2023-10-15T00:00:00	2024-11-08T17:00:00	7	Dirección del viento	8.05
153471	7	Sololá	713	San Lucas Tolimán	10	San Lucas Tolimán	10	Octubre	2023-10-15T00:00:00	2024-11-08T17:00:00	1	Precipitación	0
153472	7	Sololá	713	San Lucas Tolimán	10	San Lucas Tolimán	10	Octubre	2023-10-15T00:00:00	2024-11-08T17:00:00	8	Radiación solar	25
153473	7	Sololá	713	San Lucas Tolimán	10	San Lucas Tolimán	10	Octubre	2023-10-15T00:00:00	2024-11-08T18:00:00	2	Temperatura media	18.6
153474	7	Sololá	713	San Lucas Tolimán	10	San Lucas Tolimán	10	Octubre	2023-10-15T00:00:00	2024-11-08T18:00:00	4	Temperatura máxima	18.8
153475	7	Sololá	713	San Lucas Tolimán	10	San Lucas Tolimán	10	Octubre	2023-10-15T00:00:00	2024-11-08T18:00:00	3	Temperatura mínima	18.5
153476	7	Sololá	713	San Lucas Tolimán	10	San Lucas Tolimán	10	Octubre	2023-10-15T00:00:00	2024-11-08T18:00:00	5	Humedad	93
153477	7	Sololá	713	San Lucas Tolimán	10	San Lucas Tolimán	10	Octubre	2023-10-15T00:00:00	2024-11-08T18:00:00	6	Velocidad del viento	8
153478	7	Sololá	713	San Lucas Tolimán	10	San Lucas Tolimán	10	Octubre	2023-10-15T00:00:00	2024-11-08T18:00:00	7	Dirección del viento	8.05
153479	7	Sololá	713	San Lucas Tolimán	10	San Lucas Tolimán	10	Octubre	2023-10-15T00:00:00	2024-11-08T18:00:00	1	Precipitación	0
153480	7	Sololá	713	San Lucas Tolimán	10	San Lucas Tolimán	10	Octubre	2023-10-15T00:00:00	2024-11-08T18:00:00	8	Radiación solar	9
153481	7	Sololá	713	San Lucas Tolimán	10	San Lucas Tolimán	10	Octubre	2023-10-15T00:00:00	2024-11-08T19:00:00	2	Temperatura media	18.3
153482	7	Sololá	713	San Lucas Tolimán	10	San Lucas Tolimán	10	Octubre	2023-10-15T00:00:00	2024-11-08T19:00:00	4	Temperatura máxima	18.8
153483	7	Sololá	713	San Lucas Tolimán	10	San Lucas Tolimán	10	Octubre	2023-10-15T00:00:00	2024-11-08T19:00:00	3	Temperatura mínima	18.3
153484	7	Sololá	713	San Lucas Tolimán	10	San Lucas Tolimán	10	Octubre	2023-10-15T00:00:00	2024-11-08T19:00:00	5	Humedad	94
153485	7	Sololá	713	San Lucas Tolimán	10	San Lucas Tolimán	10	Octubre	2023-10-15T00:00:00	2024-11-08T19:00:00	6	Velocidad del viento	8
153486	7	Sololá	713	San Lucas Tolimán	10	San Lucas Tolimán	10	Octubre	2023-10-15T00:00:00	2024-11-08T19:00:00	7	Dirección del viento	8.05
153487	7	Sololá	713	San Lucas Tolimán	10	San Lucas Tolimán	10	Octubre	2023-10-15T00:00:00	2024-11-08T19:00:00	1	Precipitación	0
153488	7	Sololá	713	San Lucas Tolimán	10	San Lucas Tolimán	10	Octubre	2023-10-15T00:00:00	2024-11-08T19:00:00	8	Radiación solar	0
153489	7	Sololá	713	San Lucas Tolimán	10	San Lucas Tolimán	10	Octubre	2023-10-15T00:00:00	2024-11-08T20:00:00	2	Temperatura media	18.1
153490	7	Sololá	713	San Lucas Tolimán	10	San Lucas Tolimán	10	Octubre	2023-10-15T00:00:00	2024-11-08T20:00:00	4	Temperatura máxima	18.4
153491	7	Sololá	713	San Lucas Tolimán	10	San Lucas Tolimán	10	Octubre	2023-10-15T00:00:00	2024-11-08T20:00:00	3	Temperatura mínima	18.1
153492	7	Sololá	713	San Lucas Tolimán	10	San Lucas Tolimán	10	Octubre	2023-10-15T00:00:00	2024-11-08T20:00:00	5	Humedad	94
153493	7	Sololá	713	San Lucas Tolimán	10	San Lucas Tolimán	10	Octubre	2023-10-15T00:00:00	2024-11-08T20:00:00	6	Velocidad del viento	3.2
153494	7	Sololá	713	San Lucas Tolimán	10	San Lucas Tolimán	10	Octubre	2023-10-15T00:00:00	2024-11-08T20:00:00	7	Dirección del viento	3.22
153495	7	Sololá	713	San Lucas Tolimán	10	San Lucas Tolimán	10	Octubre	2023-10-15T00:00:00	2024-11-08T20:00:00	1	Precipitación	0
153496	7	Sololá	713	San Lucas Tolimán	10	San Lucas Tolimán	10	Octubre	2023-10-15T00:00:00	2024-11-08T20:00:00	8	Radiación solar	0
153497	7	Sololá	713	San Lucas Tolimán	10	San Lucas Tolimán	10	Octubre	2023-10-15T00:00:00	2024-11-08T21:00:00	2	Temperatura media	17.9
153498	7	Sololá	713	San Lucas Tolimán	10	San Lucas Tolimán	10	Octubre	2023-10-15T00:00:00	2024-11-08T21:00:00	4	Temperatura máxima	18.1
153499	7	Sololá	713	San Lucas Tolimán	10	San Lucas Tolimán	10	Octubre	2023-10-15T00:00:00	2024-11-08T21:00:00	3	Temperatura mínima	17.8
153500	7	Sololá	713	San Lucas Tolimán	10	San Lucas Tolimán	10	Octubre	2023-10-15T00:00:00	2024-11-08T21:00:00	5	Humedad	95
153501	7	Sololá	713	San Lucas Tolimán	10	San Lucas Tolimán	10	Octubre	2023-10-15T00:00:00	2024-11-08T21:00:00	6	Velocidad del viento	3.2
153502	7	Sololá	713	San Lucas Tolimán	10	San Lucas Tolimán	10	Octubre	2023-10-15T00:00:00	2024-11-08T21:00:00	7	Dirección del viento	3.22
153503	7	Sololá	713	San Lucas Tolimán	10	San Lucas Tolimán	10	Octubre	2023-10-15T00:00:00	2024-11-08T21:00:00	1	Precipitación	0
153504	7	Sololá	713	San Lucas Tolimán	10	San Lucas Tolimán	10	Octubre	2023-10-15T00:00:00	2024-11-08T21:00:00	8	Radiación solar	0
153505	7	Sololá	713	San Lucas Tolimán	10	San Lucas Tolimán	10	Octubre	2023-10-15T00:00:00	2024-11-08T22:00:00	2	Temperatura media	17.8
153506	7	Sololá	713	San Lucas Tolimán	10	San Lucas Tolimán	10	Octubre	2023-10-15T00:00:00	2024-11-08T22:00:00	4	Temperatura máxima	18
153507	7	Sololá	713	San Lucas Tolimán	10	San Lucas Tolimán	10	Octubre	2023-10-15T00:00:00	2024-11-08T22:00:00	3	Temperatura mínima	17.7
153508	7	Sololá	713	San Lucas Tolimán	10	San Lucas Tolimán	10	Octubre	2023-10-15T00:00:00	2024-11-08T22:00:00	5	Humedad	96
153509	7	Sololá	713	San Lucas Tolimán	10	San Lucas Tolimán	10	Octubre	2023-10-15T00:00:00	2024-11-08T22:00:00	6	Velocidad del viento	6.4
153510	7	Sololá	713	San Lucas Tolimán	10	San Lucas Tolimán	10	Octubre	2023-10-15T00:00:00	2024-11-08T22:00:00	7	Dirección del viento	6.44
153511	7	Sololá	713	San Lucas Tolimán	10	San Lucas Tolimán	10	Octubre	2023-10-15T00:00:00	2024-11-08T22:00:00	1	Precipitación	0
153512	7	Sololá	713	San Lucas Tolimán	10	San Lucas Tolimán	10	Octubre	2023-10-15T00:00:00	2024-11-08T22:00:00	8	Radiación solar	0
153513	7	Sololá	713	San Lucas Tolimán	10	San Lucas Tolimán	10	Octubre	2023-10-15T00:00:00	2024-11-08T23:00:00	2	Temperatura media	18
153514	7	Sololá	713	San Lucas Tolimán	10	San Lucas Tolimán	10	Octubre	2023-10-15T00:00:00	2024-11-08T23:00:00	4	Temperatura máxima	18.2
153515	7	Sololá	713	San Lucas Tolimán	10	San Lucas Tolimán	10	Octubre	2023-10-15T00:00:00	2024-11-08T23:00:00	3	Temperatura mínima	17.8
153516	7	Sololá	713	San Lucas Tolimán	10	San Lucas Tolimán	10	Octubre	2023-10-15T00:00:00	2024-11-08T23:00:00	5	Humedad	96
153517	7	Sololá	713	San Lucas Tolimán	10	San Lucas Tolimán	10	Octubre	2023-10-15T00:00:00	2024-11-08T23:00:00	6	Velocidad del viento	3.2
153518	7	Sololá	713	San Lucas Tolimán	10	San Lucas Tolimán	10	Octubre	2023-10-15T00:00:00	2024-11-08T23:00:00	7	Dirección del viento	3.22
153519	7	Sololá	713	San Lucas Tolimán	10	San Lucas Tolimán	10	Octubre	2023-10-15T00:00:00	2024-11-08T23:00:00	1	Precipitación	6
153520	7	Sololá	713	San Lucas Tolimán	10	San Lucas Tolimán	10	Octubre	2023-10-15T00:00:00	2024-11-08T23:00:00	8	Radiación solar	0
153521	7	Sololá	713	San Lucas Tolimán	10	San Lucas Tolimán	10	Octubre	2023-10-16T00:00:00	2024-11-08T00:00:00	2	Temperatura media	17.8
153522	7	Sololá	713	San Lucas Tolimán	10	San Lucas Tolimán	10	Octubre	2023-10-16T00:00:00	2024-11-08T00:00:00	4	Temperatura máxima	18
153523	7	Sololá	713	San Lucas Tolimán	10	San Lucas Tolimán	10	Octubre	2023-10-16T00:00:00	2024-11-08T00:00:00	3	Temperatura mínima	17.8
153524	7	Sololá	713	San Lucas Tolimán	10	San Lucas Tolimán	10	Octubre	2023-10-16T00:00:00	2024-11-08T00:00:00	5	Humedad	96
153525	7	Sololá	713	San Lucas Tolimán	10	San Lucas Tolimán	10	Octubre	2023-10-16T00:00:00	2024-11-08T00:00:00	6	Velocidad del viento	1.6
153526	7	Sololá	713	San Lucas Tolimán	10	San Lucas Tolimán	10	Octubre	2023-10-16T00:00:00	2024-11-08T00:00:00	7	Dirección del viento	1.61
153527	7	Sololá	713	San Lucas Tolimán	10	San Lucas Tolimán	10	Octubre	2023-10-16T00:00:00	2024-11-08T00:00:00	1	Precipitación	1.2
153528	7	Sololá	713	San Lucas Tolimán	10	San Lucas Tolimán	10	Octubre	2023-10-16T00:00:00	2024-11-08T00:00:00	8	Radiación solar	0
153529	7	Sololá	713	San Lucas Tolimán	10	San Lucas Tolimán	10	Octubre	2023-10-16T00:00:00	2024-11-08T01:00:00	2	Temperatura media	17.4
153530	7	Sololá	713	San Lucas Tolimán	10	San Lucas Tolimán	10	Octubre	2023-10-16T00:00:00	2024-11-08T01:00:00	4	Temperatura máxima	17.7
153531	7	Sololá	713	San Lucas Tolimán	10	San Lucas Tolimán	10	Octubre	2023-10-16T00:00:00	2024-11-08T01:00:00	3	Temperatura mínima	17.4
153532	7	Sololá	713	San Lucas Tolimán	10	San Lucas Tolimán	10	Octubre	2023-10-16T00:00:00	2024-11-08T01:00:00	5	Humedad	95
153533	7	Sololá	713	San Lucas Tolimán	10	San Lucas Tolimán	10	Octubre	2023-10-16T00:00:00	2024-11-08T01:00:00	6	Velocidad del viento	3.2
153534	7	Sololá	713	San Lucas Tolimán	10	San Lucas Tolimán	10	Octubre	2023-10-16T00:00:00	2024-11-08T01:00:00	7	Dirección del viento	3.22
153535	7	Sololá	713	San Lucas Tolimán	10	San Lucas Tolimán	10	Octubre	2023-10-16T00:00:00	2024-11-08T01:00:00	1	Precipitación	0
153536	7	Sololá	713	San Lucas Tolimán	10	San Lucas Tolimán	10	Octubre	2023-10-16T00:00:00	2024-11-08T01:00:00	8	Radiación solar	0
153537	7	Sololá	713	San Lucas Tolimán	10	San Lucas Tolimán	10	Octubre	2023-10-16T00:00:00	2024-11-08T02:00:00	2	Temperatura media	17.2
153538	7	Sololá	713	San Lucas Tolimán	10	San Lucas Tolimán	10	Octubre	2023-10-16T00:00:00	2024-11-08T02:00:00	4	Temperatura máxima	17.6
153539	7	Sololá	713	San Lucas Tolimán	10	San Lucas Tolimán	10	Octubre	2023-10-16T00:00:00	2024-11-08T02:00:00	3	Temperatura mínima	17.2
153540	7	Sololá	713	San Lucas Tolimán	10	San Lucas Tolimán	10	Octubre	2023-10-16T00:00:00	2024-11-08T02:00:00	5	Humedad	96
153541	7	Sololá	713	San Lucas Tolimán	10	San Lucas Tolimán	10	Octubre	2023-10-16T00:00:00	2024-11-08T02:00:00	6	Velocidad del viento	1.6
153542	7	Sololá	713	San Lucas Tolimán	10	San Lucas Tolimán	10	Octubre	2023-10-16T00:00:00	2024-11-08T02:00:00	7	Dirección del viento	1.61
153543	7	Sololá	713	San Lucas Tolimán	10	San Lucas Tolimán	10	Octubre	2023-10-16T00:00:00	2024-11-08T02:00:00	1	Precipitación	0
153544	7	Sololá	713	San Lucas Tolimán	10	San Lucas Tolimán	10	Octubre	2023-10-16T00:00:00	2024-11-08T02:00:00	8	Radiación solar	0
153545	7	Sololá	713	San Lucas Tolimán	10	San Lucas Tolimán	10	Octubre	2023-10-16T00:00:00	2024-11-08T03:00:00	2	Temperatura media	16.4
153546	7	Sololá	713	San Lucas Tolimán	10	San Lucas Tolimán	10	Octubre	2023-10-16T00:00:00	2024-11-08T03:00:00	4	Temperatura máxima	17.2
153547	7	Sololá	713	San Lucas Tolimán	10	San Lucas Tolimán	10	Octubre	2023-10-16T00:00:00	2024-11-08T03:00:00	3	Temperatura mínima	16.4
153548	7	Sololá	713	San Lucas Tolimán	10	San Lucas Tolimán	10	Octubre	2023-10-16T00:00:00	2024-11-08T03:00:00	5	Humedad	94
153549	7	Sololá	713	San Lucas Tolimán	10	San Lucas Tolimán	10	Octubre	2023-10-16T00:00:00	2024-11-08T03:00:00	6	Velocidad del viento	0
153550	7	Sololá	713	San Lucas Tolimán	10	San Lucas Tolimán	10	Octubre	2023-10-16T00:00:00	2024-11-08T03:00:00	7	Dirección del viento	0
153551	7	Sololá	713	San Lucas Tolimán	10	San Lucas Tolimán	10	Octubre	2023-10-16T00:00:00	2024-11-08T03:00:00	1	Precipitación	0
153552	7	Sololá	713	San Lucas Tolimán	10	San Lucas Tolimán	10	Octubre	2023-10-16T00:00:00	2024-11-08T03:00:00	8	Radiación solar	0
153553	7	Sololá	713	San Lucas Tolimán	10	San Lucas Tolimán	10	Octubre	2023-10-16T00:00:00	2024-11-08T04:00:00	2	Temperatura media	16.3
153554	7	Sololá	713	San Lucas Tolimán	10	San Lucas Tolimán	10	Octubre	2023-10-16T00:00:00	2024-11-08T04:00:00	4	Temperatura máxima	16.5
153555	7	Sololá	713	San Lucas Tolimán	10	San Lucas Tolimán	10	Octubre	2023-10-16T00:00:00	2024-11-08T04:00:00	3	Temperatura mínima	16.1
153556	7	Sololá	713	San Lucas Tolimán	10	San Lucas Tolimán	10	Octubre	2023-10-16T00:00:00	2024-11-08T04:00:00	5	Humedad	92
153557	7	Sololá	713	San Lucas Tolimán	10	San Lucas Tolimán	10	Octubre	2023-10-16T00:00:00	2024-11-08T04:00:00	6	Velocidad del viento	1.6
153558	7	Sololá	713	San Lucas Tolimán	10	San Lucas Tolimán	10	Octubre	2023-10-16T00:00:00	2024-11-08T04:00:00	7	Dirección del viento	1.61
153559	7	Sololá	713	San Lucas Tolimán	10	San Lucas Tolimán	10	Octubre	2023-10-16T00:00:00	2024-11-08T04:00:00	1	Precipitación	0
153560	7	Sololá	713	San Lucas Tolimán	10	San Lucas Tolimán	10	Octubre	2023-10-16T00:00:00	2024-11-08T04:00:00	8	Radiación solar	0
153561	7	Sololá	713	San Lucas Tolimán	10	San Lucas Tolimán	10	Octubre	2023-10-16T00:00:00	2024-11-08T05:00:00	2	Temperatura media	15.5
153562	7	Sololá	713	San Lucas Tolimán	10	San Lucas Tolimán	10	Octubre	2023-10-16T00:00:00	2024-11-08T05:00:00	4	Temperatura máxima	16.3
153563	7	Sololá	713	San Lucas Tolimán	10	San Lucas Tolimán	10	Octubre	2023-10-16T00:00:00	2024-11-08T05:00:00	3	Temperatura mínima	15.4
153564	7	Sololá	713	San Lucas Tolimán	10	San Lucas Tolimán	10	Octubre	2023-10-16T00:00:00	2024-11-08T05:00:00	5	Humedad	95
153565	7	Sololá	713	San Lucas Tolimán	10	San Lucas Tolimán	10	Octubre	2023-10-16T00:00:00	2024-11-08T05:00:00	6	Velocidad del viento	1.6
153566	7	Sololá	713	San Lucas Tolimán	10	San Lucas Tolimán	10	Octubre	2023-10-16T00:00:00	2024-11-08T05:00:00	7	Dirección del viento	1.61
153567	7	Sololá	713	San Lucas Tolimán	10	San Lucas Tolimán	10	Octubre	2023-10-16T00:00:00	2024-11-08T05:00:00	1	Precipitación	0
153568	7	Sololá	713	San Lucas Tolimán	10	San Lucas Tolimán	10	Octubre	2023-10-16T00:00:00	2024-11-08T05:00:00	8	Radiación solar	0
153569	7	Sololá	713	San Lucas Tolimán	10	San Lucas Tolimán	10	Octubre	2023-10-16T00:00:00	2024-11-08T06:00:00	2	Temperatura media	16.7
153570	7	Sololá	713	San Lucas Tolimán	10	San Lucas Tolimán	10	Octubre	2023-10-16T00:00:00	2024-11-08T06:00:00	4	Temperatura máxima	16.8
153571	7	Sololá	713	San Lucas Tolimán	10	San Lucas Tolimán	10	Octubre	2023-10-16T00:00:00	2024-11-08T06:00:00	3	Temperatura mínima	15.4
153572	7	Sololá	713	San Lucas Tolimán	10	San Lucas Tolimán	10	Octubre	2023-10-16T00:00:00	2024-11-08T06:00:00	5	Humedad	87
153573	7	Sololá	713	San Lucas Tolimán	10	San Lucas Tolimán	10	Octubre	2023-10-16T00:00:00	2024-11-08T06:00:00	6	Velocidad del viento	1.6
153574	7	Sololá	713	San Lucas Tolimán	10	San Lucas Tolimán	10	Octubre	2023-10-16T00:00:00	2024-11-08T06:00:00	7	Dirección del viento	1.61
153575	7	Sololá	713	San Lucas Tolimán	10	San Lucas Tolimán	10	Octubre	2023-10-16T00:00:00	2024-11-08T06:00:00	1	Precipitación	0
153576	7	Sololá	713	San Lucas Tolimán	10	San Lucas Tolimán	10	Octubre	2023-10-16T00:00:00	2024-11-08T06:00:00	8	Radiación solar	0
153577	7	Sololá	713	San Lucas Tolimán	10	San Lucas Tolimán	10	Octubre	2023-10-16T00:00:00	2024-11-08T07:00:00	2	Temperatura media	17.9
153578	7	Sololá	713	San Lucas Tolimán	10	San Lucas Tolimán	10	Octubre	2023-10-16T00:00:00	2024-11-08T07:00:00	4	Temperatura máxima	17.9
153579	7	Sololá	713	San Lucas Tolimán	10	San Lucas Tolimán	10	Octubre	2023-10-16T00:00:00	2024-11-08T07:00:00	3	Temperatura mínima	16.7
153580	7	Sololá	713	San Lucas Tolimán	10	San Lucas Tolimán	10	Octubre	2023-10-16T00:00:00	2024-11-08T07:00:00	5	Humedad	81
153581	7	Sololá	713	San Lucas Tolimán	10	San Lucas Tolimán	10	Octubre	2023-10-16T00:00:00	2024-11-08T07:00:00	6	Velocidad del viento	3.2
153582	7	Sololá	713	San Lucas Tolimán	10	San Lucas Tolimán	10	Octubre	2023-10-16T00:00:00	2024-11-08T07:00:00	7	Dirección del viento	3.22
153583	7	Sololá	713	San Lucas Tolimán	10	San Lucas Tolimán	10	Octubre	2023-10-16T00:00:00	2024-11-08T07:00:00	1	Precipitación	0
153584	7	Sololá	713	San Lucas Tolimán	10	San Lucas Tolimán	10	Octubre	2023-10-16T00:00:00	2024-11-08T07:00:00	8	Radiación solar	20
153585	7	Sololá	713	San Lucas Tolimán	10	San Lucas Tolimán	10	Octubre	2023-10-16T00:00:00	2024-11-08T08:00:00	2	Temperatura media	21.1
153586	7	Sololá	713	San Lucas Tolimán	10	San Lucas Tolimán	10	Octubre	2023-10-16T00:00:00	2024-11-08T08:00:00	4	Temperatura máxima	21.1
153587	7	Sololá	713	San Lucas Tolimán	10	San Lucas Tolimán	10	Octubre	2023-10-16T00:00:00	2024-11-08T08:00:00	3	Temperatura mínima	17.9
153588	7	Sololá	713	San Lucas Tolimán	10	San Lucas Tolimán	10	Octubre	2023-10-16T00:00:00	2024-11-08T08:00:00	5	Humedad	72
153589	7	Sololá	713	San Lucas Tolimán	10	San Lucas Tolimán	10	Octubre	2023-10-16T00:00:00	2024-11-08T08:00:00	6	Velocidad del viento	4.8
153590	7	Sololá	713	San Lucas Tolimán	10	San Lucas Tolimán	10	Octubre	2023-10-16T00:00:00	2024-11-08T08:00:00	7	Dirección del viento	4.83
153591	7	Sololá	713	San Lucas Tolimán	10	San Lucas Tolimán	10	Octubre	2023-10-16T00:00:00	2024-11-08T08:00:00	1	Precipitación	0
153592	7	Sololá	713	San Lucas Tolimán	10	San Lucas Tolimán	10	Octubre	2023-10-16T00:00:00	2024-11-08T08:00:00	8	Radiación solar	150
153593	7	Sololá	713	San Lucas Tolimán	10	San Lucas Tolimán	10	Octubre	2023-10-16T00:00:00	2024-11-08T09:00:00	2	Temperatura media	22.2
153594	7	Sololá	713	San Lucas Tolimán	10	San Lucas Tolimán	10	Octubre	2023-10-16T00:00:00	2024-11-08T09:00:00	4	Temperatura máxima	22.2
153595	7	Sololá	713	San Lucas Tolimán	10	San Lucas Tolimán	10	Octubre	2023-10-16T00:00:00	2024-11-08T09:00:00	3	Temperatura mínima	21.1
153596	7	Sololá	713	San Lucas Tolimán	10	San Lucas Tolimán	10	Octubre	2023-10-16T00:00:00	2024-11-08T09:00:00	5	Humedad	68
153597	7	Sololá	713	San Lucas Tolimán	10	San Lucas Tolimán	10	Octubre	2023-10-16T00:00:00	2024-11-08T09:00:00	6	Velocidad del viento	6.4
153598	7	Sololá	713	San Lucas Tolimán	10	San Lucas Tolimán	10	Octubre	2023-10-16T00:00:00	2024-11-08T09:00:00	7	Dirección del viento	6.44
153599	7	Sololá	713	San Lucas Tolimán	10	San Lucas Tolimán	10	Octubre	2023-10-16T00:00:00	2024-11-08T09:00:00	1	Precipitación	0
153600	7	Sololá	713	San Lucas Tolimán	10	San Lucas Tolimán	10	Octubre	2023-10-16T00:00:00	2024-11-08T09:00:00	8	Radiación solar	331
153601	7	Sololá	713	San Lucas Tolimán	10	San Lucas Tolimán	10	Octubre	2023-10-16T00:00:00	2024-11-08T10:00:00	2	Temperatura media	24.4
153602	7	Sololá	713	San Lucas Tolimán	10	San Lucas Tolimán	10	Octubre	2023-10-16T00:00:00	2024-11-08T10:00:00	4	Temperatura máxima	24.4
153603	7	Sololá	713	San Lucas Tolimán	10	San Lucas Tolimán	10	Octubre	2023-10-16T00:00:00	2024-11-08T10:00:00	3	Temperatura mínima	22.3
153604	7	Sololá	713	San Lucas Tolimán	10	San Lucas Tolimán	10	Octubre	2023-10-16T00:00:00	2024-11-08T10:00:00	5	Humedad	61
153605	7	Sololá	713	San Lucas Tolimán	10	San Lucas Tolimán	10	Octubre	2023-10-16T00:00:00	2024-11-08T10:00:00	6	Velocidad del viento	8
153606	7	Sololá	713	San Lucas Tolimán	10	San Lucas Tolimán	10	Octubre	2023-10-16T00:00:00	2024-11-08T10:00:00	7	Dirección del viento	8.05
153607	7	Sololá	713	San Lucas Tolimán	10	San Lucas Tolimán	10	Octubre	2023-10-16T00:00:00	2024-11-08T10:00:00	1	Precipitación	0
153608	7	Sololá	713	San Lucas Tolimán	10	San Lucas Tolimán	10	Octubre	2023-10-16T00:00:00	2024-11-08T10:00:00	8	Radiación solar	748
153609	7	Sololá	713	San Lucas Tolimán	10	San Lucas Tolimán	10	Octubre	2023-10-16T00:00:00	2024-11-08T11:00:00	2	Temperatura media	24.3
153610	7	Sololá	713	San Lucas Tolimán	10	San Lucas Tolimán	10	Octubre	2023-10-16T00:00:00	2024-11-08T11:00:00	4	Temperatura máxima	24.7
153611	7	Sololá	713	San Lucas Tolimán	10	San Lucas Tolimán	10	Octubre	2023-10-16T00:00:00	2024-11-08T11:00:00	3	Temperatura mínima	24.3
153612	7	Sololá	713	San Lucas Tolimán	10	San Lucas Tolimán	10	Octubre	2023-10-16T00:00:00	2024-11-08T11:00:00	5	Humedad	73
153613	7	Sololá	713	San Lucas Tolimán	10	San Lucas Tolimán	10	Octubre	2023-10-16T00:00:00	2024-11-08T11:00:00	6	Velocidad del viento	6.4
153614	7	Sololá	713	San Lucas Tolimán	10	San Lucas Tolimán	10	Octubre	2023-10-16T00:00:00	2024-11-08T11:00:00	7	Dirección del viento	6.44
153615	7	Sololá	713	San Lucas Tolimán	10	San Lucas Tolimán	10	Octubre	2023-10-16T00:00:00	2024-11-08T11:00:00	1	Precipitación	0
153616	7	Sololá	713	San Lucas Tolimán	10	San Lucas Tolimán	10	Octubre	2023-10-16T00:00:00	2024-11-08T11:00:00	8	Radiación solar	868
153617	7	Sololá	713	San Lucas Tolimán	10	San Lucas Tolimán	10	Octubre	2023-10-16T00:00:00	2024-11-08T12:00:00	2	Temperatura media	22.2
153618	7	Sololá	713	San Lucas Tolimán	10	San Lucas Tolimán	10	Octubre	2023-10-16T00:00:00	2024-11-08T12:00:00	4	Temperatura máxima	24.3
153619	7	Sololá	713	San Lucas Tolimán	10	San Lucas Tolimán	10	Octubre	2023-10-16T00:00:00	2024-11-08T12:00:00	3	Temperatura mínima	22.2
153620	7	Sololá	713	San Lucas Tolimán	10	San Lucas Tolimán	10	Octubre	2023-10-16T00:00:00	2024-11-08T12:00:00	5	Humedad	84
153621	7	Sololá	713	San Lucas Tolimán	10	San Lucas Tolimán	10	Octubre	2023-10-16T00:00:00	2024-11-08T12:00:00	6	Velocidad del viento	9.7
153622	7	Sololá	713	San Lucas Tolimán	10	San Lucas Tolimán	10	Octubre	2023-10-16T00:00:00	2024-11-08T12:00:00	7	Dirección del viento	9.66
153623	7	Sololá	713	San Lucas Tolimán	10	San Lucas Tolimán	10	Octubre	2023-10-16T00:00:00	2024-11-08T12:00:00	1	Precipitación	0
153624	7	Sololá	713	San Lucas Tolimán	10	San Lucas Tolimán	10	Octubre	2023-10-16T00:00:00	2024-11-08T12:00:00	8	Radiación solar	246
153625	7	Sololá	713	San Lucas Tolimán	10	San Lucas Tolimán	10	Octubre	2023-10-16T00:00:00	2024-11-08T13:00:00	2	Temperatura media	20.1
153626	7	Sololá	713	San Lucas Tolimán	10	San Lucas Tolimán	10	Octubre	2023-10-16T00:00:00	2024-11-08T13:00:00	4	Temperatura máxima	22.2
153627	7	Sololá	713	San Lucas Tolimán	10	San Lucas Tolimán	10	Octubre	2023-10-16T00:00:00	2024-11-08T13:00:00	3	Temperatura mínima	19.7
153628	7	Sololá	713	San Lucas Tolimán	10	San Lucas Tolimán	10	Octubre	2023-10-16T00:00:00	2024-11-08T13:00:00	5	Humedad	91
153629	7	Sololá	713	San Lucas Tolimán	10	San Lucas Tolimán	10	Octubre	2023-10-16T00:00:00	2024-11-08T13:00:00	6	Velocidad del viento	9.7
153630	7	Sololá	713	San Lucas Tolimán	10	San Lucas Tolimán	10	Octubre	2023-10-16T00:00:00	2024-11-08T13:00:00	7	Dirección del viento	9.66
153631	7	Sololá	713	San Lucas Tolimán	10	San Lucas Tolimán	10	Octubre	2023-10-16T00:00:00	2024-11-08T13:00:00	1	Precipitación	0
153632	7	Sololá	713	San Lucas Tolimán	10	San Lucas Tolimán	10	Octubre	2023-10-16T00:00:00	2024-11-08T13:00:00	8	Radiación solar	204
153633	7	Sololá	713	San Lucas Tolimán	10	San Lucas Tolimán	10	Octubre	2023-10-16T00:00:00	2024-11-08T14:00:00	2	Temperatura media	21.7
153634	7	Sololá	713	San Lucas Tolimán	10	San Lucas Tolimán	10	Octubre	2023-10-16T00:00:00	2024-11-08T14:00:00	4	Temperatura máxima	21.7
153635	7	Sololá	713	San Lucas Tolimán	10	San Lucas Tolimán	10	Octubre	2023-10-16T00:00:00	2024-11-08T14:00:00	3	Temperatura mínima	20
153636	7	Sololá	713	San Lucas Tolimán	10	San Lucas Tolimán	10	Octubre	2023-10-16T00:00:00	2024-11-08T14:00:00	5	Humedad	86
153637	7	Sololá	713	San Lucas Tolimán	10	San Lucas Tolimán	10	Octubre	2023-10-16T00:00:00	2024-11-08T14:00:00	6	Velocidad del viento	9.7
153638	7	Sololá	713	San Lucas Tolimán	10	San Lucas Tolimán	10	Octubre	2023-10-16T00:00:00	2024-11-08T14:00:00	7	Dirección del viento	9.66
153639	7	Sololá	713	San Lucas Tolimán	10	San Lucas Tolimán	10	Octubre	2023-10-16T00:00:00	2024-11-08T14:00:00	1	Precipitación	0
153640	7	Sololá	713	San Lucas Tolimán	10	San Lucas Tolimán	10	Octubre	2023-10-16T00:00:00	2024-11-08T14:00:00	8	Radiación solar	328
153641	7	Sololá	713	San Lucas Tolimán	10	San Lucas Tolimán	10	Octubre	2023-10-16T00:00:00	2024-11-08T15:00:00	2	Temperatura media	20.8
153642	7	Sololá	713	San Lucas Tolimán	10	San Lucas Tolimán	10	Octubre	2023-10-16T00:00:00	2024-11-08T15:00:00	4	Temperatura máxima	21.8
153643	7	Sololá	713	San Lucas Tolimán	10	San Lucas Tolimán	10	Octubre	2023-10-16T00:00:00	2024-11-08T15:00:00	3	Temperatura mínima	20.4
153644	7	Sololá	713	San Lucas Tolimán	10	San Lucas Tolimán	10	Octubre	2023-10-16T00:00:00	2024-11-08T15:00:00	5	Humedad	89
153645	7	Sololá	713	San Lucas Tolimán	10	San Lucas Tolimán	10	Octubre	2023-10-16T00:00:00	2024-11-08T15:00:00	6	Velocidad del viento	9.7
153646	7	Sololá	713	San Lucas Tolimán	10	San Lucas Tolimán	10	Octubre	2023-10-16T00:00:00	2024-11-08T15:00:00	7	Dirección del viento	9.66
153647	7	Sololá	713	San Lucas Tolimán	10	San Lucas Tolimán	10	Octubre	2023-10-16T00:00:00	2024-11-08T15:00:00	1	Precipitación	0
153648	7	Sololá	713	San Lucas Tolimán	10	San Lucas Tolimán	10	Octubre	2023-10-16T00:00:00	2024-11-08T15:00:00	8	Radiación solar	264
153649	7	Sololá	713	San Lucas Tolimán	10	San Lucas Tolimán	10	Octubre	2023-10-16T00:00:00	2024-11-08T16:00:00	2	Temperatura media	20.8
153650	7	Sololá	713	San Lucas Tolimán	10	San Lucas Tolimán	10	Octubre	2023-10-16T00:00:00	2024-11-08T16:00:00	4	Temperatura máxima	21
153651	7	Sololá	713	San Lucas Tolimán	10	San Lucas Tolimán	10	Octubre	2023-10-16T00:00:00	2024-11-08T16:00:00	3	Temperatura mínima	20.4
153652	7	Sololá	713	San Lucas Tolimán	10	San Lucas Tolimán	10	Octubre	2023-10-16T00:00:00	2024-11-08T16:00:00	5	Humedad	88
153653	7	Sololá	713	San Lucas Tolimán	10	San Lucas Tolimán	10	Octubre	2023-10-16T00:00:00	2024-11-08T16:00:00	6	Velocidad del viento	9.7
153654	7	Sololá	713	San Lucas Tolimán	10	San Lucas Tolimán	10	Octubre	2023-10-16T00:00:00	2024-11-08T16:00:00	7	Dirección del viento	9.66
153655	7	Sololá	713	San Lucas Tolimán	10	San Lucas Tolimán	10	Octubre	2023-10-16T00:00:00	2024-11-08T16:00:00	1	Precipitación	0
153656	7	Sololá	713	San Lucas Tolimán	10	San Lucas Tolimán	10	Octubre	2023-10-16T00:00:00	2024-11-08T16:00:00	8	Radiación solar	184
153657	7	Sololá	713	San Lucas Tolimán	10	San Lucas Tolimán	10	Octubre	2023-10-16T00:00:00	2024-11-08T17:00:00	2	Temperatura media	19.9
153658	7	Sololá	713	San Lucas Tolimán	10	San Lucas Tolimán	10	Octubre	2023-10-16T00:00:00	2024-11-08T17:00:00	4	Temperatura máxima	20.9
153659	7	Sololá	713	San Lucas Tolimán	10	San Lucas Tolimán	10	Octubre	2023-10-16T00:00:00	2024-11-08T17:00:00	3	Temperatura mínima	19.9
153660	7	Sololá	713	San Lucas Tolimán	10	San Lucas Tolimán	10	Octubre	2023-10-16T00:00:00	2024-11-08T17:00:00	5	Humedad	91
153661	7	Sololá	713	San Lucas Tolimán	10	San Lucas Tolimán	10	Octubre	2023-10-16T00:00:00	2024-11-08T17:00:00	6	Velocidad del viento	9.7
153662	7	Sololá	713	San Lucas Tolimán	10	San Lucas Tolimán	10	Octubre	2023-10-16T00:00:00	2024-11-08T17:00:00	7	Dirección del viento	9.66
153663	7	Sololá	713	San Lucas Tolimán	10	San Lucas Tolimán	10	Octubre	2023-10-16T00:00:00	2024-11-08T17:00:00	1	Precipitación	0
153664	7	Sololá	713	San Lucas Tolimán	10	San Lucas Tolimán	10	Octubre	2023-10-16T00:00:00	2024-11-08T17:00:00	8	Radiación solar	74
153665	7	Sololá	713	San Lucas Tolimán	10	San Lucas Tolimán	10	Octubre	2023-10-16T00:00:00	2024-11-08T18:00:00	2	Temperatura media	19.3
153666	7	Sololá	713	San Lucas Tolimán	10	San Lucas Tolimán	10	Octubre	2023-10-16T00:00:00	2024-11-08T18:00:00	4	Temperatura máxima	19.9
153667	7	Sololá	713	San Lucas Tolimán	10	San Lucas Tolimán	10	Octubre	2023-10-16T00:00:00	2024-11-08T18:00:00	3	Temperatura mínima	19.3
153668	7	Sololá	713	San Lucas Tolimán	10	San Lucas Tolimán	10	Octubre	2023-10-16T00:00:00	2024-11-08T18:00:00	5	Humedad	93
153669	7	Sololá	713	San Lucas Tolimán	10	San Lucas Tolimán	10	Octubre	2023-10-16T00:00:00	2024-11-08T18:00:00	6	Velocidad del viento	4.8
153670	7	Sololá	713	San Lucas Tolimán	10	San Lucas Tolimán	10	Octubre	2023-10-16T00:00:00	2024-11-08T18:00:00	7	Dirección del viento	4.83
153671	7	Sololá	713	San Lucas Tolimán	10	San Lucas Tolimán	10	Octubre	2023-10-16T00:00:00	2024-11-08T18:00:00	1	Precipitación	0
153672	7	Sololá	713	San Lucas Tolimán	10	San Lucas Tolimán	10	Octubre	2023-10-16T00:00:00	2024-11-08T18:00:00	8	Radiación solar	10
153673	7	Sololá	713	San Lucas Tolimán	10	San Lucas Tolimán	10	Octubre	2023-10-16T00:00:00	2024-11-08T19:00:00	2	Temperatura media	18.9
153674	7	Sololá	713	San Lucas Tolimán	10	San Lucas Tolimán	10	Octubre	2023-10-16T00:00:00	2024-11-08T19:00:00	4	Temperatura máxima	19.6
153675	7	Sololá	713	San Lucas Tolimán	10	San Lucas Tolimán	10	Octubre	2023-10-16T00:00:00	2024-11-08T19:00:00	3	Temperatura mínima	18.9
153676	7	Sololá	713	San Lucas Tolimán	10	San Lucas Tolimán	10	Octubre	2023-10-16T00:00:00	2024-11-08T19:00:00	5	Humedad	93
153677	7	Sololá	713	San Lucas Tolimán	10	San Lucas Tolimán	10	Octubre	2023-10-16T00:00:00	2024-11-08T19:00:00	6	Velocidad del viento	3.2
153678	7	Sololá	713	San Lucas Tolimán	10	San Lucas Tolimán	10	Octubre	2023-10-16T00:00:00	2024-11-08T19:00:00	7	Dirección del viento	3.22
153679	7	Sololá	713	San Lucas Tolimán	10	San Lucas Tolimán	10	Octubre	2023-10-16T00:00:00	2024-11-08T19:00:00	1	Precipitación	0
153680	7	Sololá	713	San Lucas Tolimán	10	San Lucas Tolimán	10	Octubre	2023-10-16T00:00:00	2024-11-08T19:00:00	8	Radiación solar	0
153681	7	Sololá	713	San Lucas Tolimán	10	San Lucas Tolimán	10	Octubre	2023-10-16T00:00:00	2024-11-08T20:00:00	2	Temperatura media	18.3
153682	7	Sololá	713	San Lucas Tolimán	10	San Lucas Tolimán	10	Octubre	2023-10-16T00:00:00	2024-11-08T20:00:00	4	Temperatura máxima	19
153683	7	Sololá	713	San Lucas Tolimán	10	San Lucas Tolimán	10	Octubre	2023-10-16T00:00:00	2024-11-08T20:00:00	3	Temperatura mínima	18.3
153684	7	Sololá	713	San Lucas Tolimán	10	San Lucas Tolimán	10	Octubre	2023-10-16T00:00:00	2024-11-08T20:00:00	5	Humedad	93
153685	7	Sololá	713	San Lucas Tolimán	10	San Lucas Tolimán	10	Octubre	2023-10-16T00:00:00	2024-11-08T20:00:00	6	Velocidad del viento	3.2
153686	7	Sololá	713	San Lucas Tolimán	10	San Lucas Tolimán	10	Octubre	2023-10-16T00:00:00	2024-11-08T20:00:00	7	Dirección del viento	3.22
153687	7	Sololá	713	San Lucas Tolimán	10	San Lucas Tolimán	10	Octubre	2023-10-16T00:00:00	2024-11-08T20:00:00	1	Precipitación	0
153688	7	Sololá	713	San Lucas Tolimán	10	San Lucas Tolimán	10	Octubre	2023-10-16T00:00:00	2024-11-08T20:00:00	8	Radiación solar	0
153689	7	Sololá	713	San Lucas Tolimán	10	San Lucas Tolimán	10	Octubre	2023-10-16T00:00:00	2024-11-08T21:00:00	2	Temperatura media	20.6
153690	7	Sololá	713	San Lucas Tolimán	10	San Lucas Tolimán	10	Octubre	2023-10-16T00:00:00	2024-11-08T21:00:00	4	Temperatura máxima	20.7
153691	7	Sololá	713	San Lucas Tolimán	10	San Lucas Tolimán	10	Octubre	2023-10-16T00:00:00	2024-11-08T21:00:00	3	Temperatura mínima	18.1
153692	7	Sololá	713	San Lucas Tolimán	10	San Lucas Tolimán	10	Octubre	2023-10-16T00:00:00	2024-11-08T21:00:00	5	Humedad	71
153693	7	Sololá	713	San Lucas Tolimán	10	San Lucas Tolimán	10	Octubre	2023-10-16T00:00:00	2024-11-08T21:00:00	6	Velocidad del viento	4.8
153694	7	Sololá	713	San Lucas Tolimán	10	San Lucas Tolimán	10	Octubre	2023-10-16T00:00:00	2024-11-08T21:00:00	7	Dirección del viento	4.83
153695	7	Sololá	713	San Lucas Tolimán	10	San Lucas Tolimán	10	Octubre	2023-10-16T00:00:00	2024-11-08T21:00:00	1	Precipitación	0
153696	7	Sololá	713	San Lucas Tolimán	10	San Lucas Tolimán	10	Octubre	2023-10-16T00:00:00	2024-11-08T21:00:00	8	Radiación solar	0
153697	7	Sololá	713	San Lucas Tolimán	10	San Lucas Tolimán	10	Octubre	2023-10-16T00:00:00	2024-11-08T22:00:00	2	Temperatura media	20.3
153698	7	Sololá	713	San Lucas Tolimán	10	San Lucas Tolimán	10	Octubre	2023-10-16T00:00:00	2024-11-08T22:00:00	4	Temperatura máxima	20.7
153699	7	Sololá	713	San Lucas Tolimán	10	San Lucas Tolimán	10	Octubre	2023-10-16T00:00:00	2024-11-08T22:00:00	3	Temperatura mínima	20.2
153700	7	Sololá	713	San Lucas Tolimán	10	San Lucas Tolimán	10	Octubre	2023-10-16T00:00:00	2024-11-08T22:00:00	5	Humedad	73
153701	7	Sololá	713	San Lucas Tolimán	10	San Lucas Tolimán	10	Octubre	2023-10-16T00:00:00	2024-11-08T22:00:00	6	Velocidad del viento	9.7
153702	7	Sololá	713	San Lucas Tolimán	10	San Lucas Tolimán	10	Octubre	2023-10-16T00:00:00	2024-11-08T22:00:00	7	Dirección del viento	9.66
153703	7	Sololá	713	San Lucas Tolimán	10	San Lucas Tolimán	10	Octubre	2023-10-16T00:00:00	2024-11-08T22:00:00	1	Precipitación	0
153704	7	Sololá	713	San Lucas Tolimán	10	San Lucas Tolimán	10	Octubre	2023-10-16T00:00:00	2024-11-08T22:00:00	8	Radiación solar	0
153705	7	Sololá	713	San Lucas Tolimán	10	San Lucas Tolimán	10	Octubre	2023-10-16T00:00:00	2024-11-08T23:00:00	2	Temperatura media	20
153706	7	Sololá	713	San Lucas Tolimán	10	San Lucas Tolimán	10	Octubre	2023-10-16T00:00:00	2024-11-08T23:00:00	4	Temperatura máxima	20.4
153707	7	Sololá	713	San Lucas Tolimán	10	San Lucas Tolimán	10	Octubre	2023-10-16T00:00:00	2024-11-08T23:00:00	3	Temperatura mínima	20
153708	7	Sololá	713	San Lucas Tolimán	10	San Lucas Tolimán	10	Octubre	2023-10-16T00:00:00	2024-11-08T23:00:00	5	Humedad	71
153709	7	Sololá	713	San Lucas Tolimán	10	San Lucas Tolimán	10	Octubre	2023-10-16T00:00:00	2024-11-08T23:00:00	6	Velocidad del viento	9.7
153710	7	Sololá	713	San Lucas Tolimán	10	San Lucas Tolimán	10	Octubre	2023-10-16T00:00:00	2024-11-08T23:00:00	7	Dirección del viento	9.66
153711	7	Sololá	713	San Lucas Tolimán	10	San Lucas Tolimán	10	Octubre	2023-10-16T00:00:00	2024-11-08T23:00:00	1	Precipitación	0
153712	7	Sololá	713	San Lucas Tolimán	10	San Lucas Tolimán	10	Octubre	2023-10-16T00:00:00	2024-11-08T23:00:00	8	Radiación solar	0
153713	7	Sololá	713	San Lucas Tolimán	10	San Lucas Tolimán	10	Octubre	2023-10-17T00:00:00	2024-11-08T00:00:00	2	Temperatura media	19.6
153714	7	Sololá	713	San Lucas Tolimán	10	San Lucas Tolimán	10	Octubre	2023-10-17T00:00:00	2024-11-08T00:00:00	4	Temperatura máxima	20.1
153715	7	Sololá	713	San Lucas Tolimán	10	San Lucas Tolimán	10	Octubre	2023-10-17T00:00:00	2024-11-08T00:00:00	3	Temperatura mínima	19.6
153716	7	Sololá	713	San Lucas Tolimán	10	San Lucas Tolimán	10	Octubre	2023-10-17T00:00:00	2024-11-08T00:00:00	5	Humedad	71
153717	7	Sololá	713	San Lucas Tolimán	10	San Lucas Tolimán	10	Octubre	2023-10-17T00:00:00	2024-11-08T00:00:00	6	Velocidad del viento	11.3
153718	7	Sololá	713	San Lucas Tolimán	10	San Lucas Tolimán	10	Octubre	2023-10-17T00:00:00	2024-11-08T00:00:00	7	Dirección del viento	11.27
153719	7	Sololá	713	San Lucas Tolimán	10	San Lucas Tolimán	10	Octubre	2023-10-17T00:00:00	2024-11-08T00:00:00	1	Precipitación	0
153720	7	Sololá	713	San Lucas Tolimán	10	San Lucas Tolimán	10	Octubre	2023-10-17T00:00:00	2024-11-08T00:00:00	8	Radiación solar	0
153721	7	Sololá	713	San Lucas Tolimán	10	San Lucas Tolimán	10	Octubre	2023-10-17T00:00:00	2024-11-08T01:00:00	2	Temperatura media	19.2
153722	7	Sololá	713	San Lucas Tolimán	10	San Lucas Tolimán	10	Octubre	2023-10-17T00:00:00	2024-11-08T01:00:00	4	Temperatura máxima	19.6
153723	7	Sololá	713	San Lucas Tolimán	10	San Lucas Tolimán	10	Octubre	2023-10-17T00:00:00	2024-11-08T01:00:00	3	Temperatura mínima	19.2
153724	7	Sololá	713	San Lucas Tolimán	10	San Lucas Tolimán	10	Octubre	2023-10-17T00:00:00	2024-11-08T01:00:00	5	Humedad	71
153725	7	Sololá	713	San Lucas Tolimán	10	San Lucas Tolimán	10	Octubre	2023-10-17T00:00:00	2024-11-08T01:00:00	6	Velocidad del viento	11.3
153726	7	Sololá	713	San Lucas Tolimán	10	San Lucas Tolimán	10	Octubre	2023-10-17T00:00:00	2024-11-08T01:00:00	7	Dirección del viento	11.27
153727	7	Sololá	713	San Lucas Tolimán	10	San Lucas Tolimán	10	Octubre	2023-10-17T00:00:00	2024-11-08T01:00:00	1	Precipitación	0
153728	7	Sololá	713	San Lucas Tolimán	10	San Lucas Tolimán	10	Octubre	2023-10-17T00:00:00	2024-11-08T01:00:00	8	Radiación solar	0
153729	7	Sololá	713	San Lucas Tolimán	10	San Lucas Tolimán	10	Octubre	2023-10-17T00:00:00	2024-11-08T02:00:00	2	Temperatura media	19.1
153730	7	Sololá	713	San Lucas Tolimán	10	San Lucas Tolimán	10	Octubre	2023-10-17T00:00:00	2024-11-08T02:00:00	4	Temperatura máxima	19.3
153731	7	Sololá	713	San Lucas Tolimán	10	San Lucas Tolimán	10	Octubre	2023-10-17T00:00:00	2024-11-08T02:00:00	3	Temperatura mínima	19.1
153732	7	Sololá	713	San Lucas Tolimán	10	San Lucas Tolimán	10	Octubre	2023-10-17T00:00:00	2024-11-08T02:00:00	5	Humedad	70
153733	7	Sololá	713	San Lucas Tolimán	10	San Lucas Tolimán	10	Octubre	2023-10-17T00:00:00	2024-11-08T02:00:00	6	Velocidad del viento	11.3
153734	7	Sololá	713	San Lucas Tolimán	10	San Lucas Tolimán	10	Octubre	2023-10-17T00:00:00	2024-11-08T02:00:00	7	Dirección del viento	11.27
153735	7	Sololá	713	San Lucas Tolimán	10	San Lucas Tolimán	10	Octubre	2023-10-17T00:00:00	2024-11-08T02:00:00	1	Precipitación	0
153736	7	Sololá	713	San Lucas Tolimán	10	San Lucas Tolimán	10	Octubre	2023-10-17T00:00:00	2024-11-08T02:00:00	8	Radiación solar	0
153737	7	Sololá	713	San Lucas Tolimán	10	San Lucas Tolimán	10	Octubre	2023-10-17T00:00:00	2024-11-08T03:00:00	2	Temperatura media	18.2
153738	7	Sololá	713	San Lucas Tolimán	10	San Lucas Tolimán	10	Octubre	2023-10-17T00:00:00	2024-11-08T03:00:00	4	Temperatura máxima	19.1
153739	7	Sololá	713	San Lucas Tolimán	10	San Lucas Tolimán	10	Octubre	2023-10-17T00:00:00	2024-11-08T03:00:00	3	Temperatura mínima	18.2
153740	7	Sololá	713	San Lucas Tolimán	10	San Lucas Tolimán	10	Octubre	2023-10-17T00:00:00	2024-11-08T03:00:00	5	Humedad	72
153741	7	Sololá	713	San Lucas Tolimán	10	San Lucas Tolimán	10	Octubre	2023-10-17T00:00:00	2024-11-08T03:00:00	6	Velocidad del viento	9.7
153742	7	Sololá	713	San Lucas Tolimán	10	San Lucas Tolimán	10	Octubre	2023-10-17T00:00:00	2024-11-08T03:00:00	7	Dirección del viento	9.66
153743	7	Sololá	713	San Lucas Tolimán	10	San Lucas Tolimán	10	Octubre	2023-10-17T00:00:00	2024-11-08T03:00:00	1	Precipitación	0
153744	7	Sololá	713	San Lucas Tolimán	10	San Lucas Tolimán	10	Octubre	2023-10-17T00:00:00	2024-11-08T03:00:00	8	Radiación solar	0
153745	7	Sololá	713	San Lucas Tolimán	10	San Lucas Tolimán	10	Octubre	2023-10-17T00:00:00	2024-11-08T04:00:00	2	Temperatura media	18.3
153746	7	Sololá	713	San Lucas Tolimán	10	San Lucas Tolimán	10	Octubre	2023-10-17T00:00:00	2024-11-08T04:00:00	4	Temperatura máxima	18.4
153747	7	Sololá	713	San Lucas Tolimán	10	San Lucas Tolimán	10	Octubre	2023-10-17T00:00:00	2024-11-08T04:00:00	3	Temperatura mínima	18.1
153748	7	Sololá	713	San Lucas Tolimán	10	San Lucas Tolimán	10	Octubre	2023-10-17T00:00:00	2024-11-08T04:00:00	5	Humedad	72
153749	7	Sololá	713	San Lucas Tolimán	10	San Lucas Tolimán	10	Octubre	2023-10-17T00:00:00	2024-11-08T04:00:00	6	Velocidad del viento	6.4
153750	7	Sololá	713	San Lucas Tolimán	10	San Lucas Tolimán	10	Octubre	2023-10-17T00:00:00	2024-11-08T04:00:00	7	Dirección del viento	6.44
153751	7	Sololá	713	San Lucas Tolimán	10	San Lucas Tolimán	10	Octubre	2023-10-17T00:00:00	2024-11-08T04:00:00	1	Precipitación	0
153752	7	Sololá	713	San Lucas Tolimán	10	San Lucas Tolimán	10	Octubre	2023-10-17T00:00:00	2024-11-08T04:00:00	8	Radiación solar	0
153753	7	Sololá	713	San Lucas Tolimán	10	San Lucas Tolimán	10	Octubre	2023-10-17T00:00:00	2024-11-08T05:00:00	2	Temperatura media	18.4
153754	7	Sololá	713	San Lucas Tolimán	10	San Lucas Tolimán	10	Octubre	2023-10-17T00:00:00	2024-11-08T05:00:00	4	Temperatura máxima	18.6
153755	7	Sololá	713	San Lucas Tolimán	10	San Lucas Tolimán	10	Octubre	2023-10-17T00:00:00	2024-11-08T05:00:00	3	Temperatura mínima	18.3
153756	7	Sololá	713	San Lucas Tolimán	10	San Lucas Tolimán	10	Octubre	2023-10-17T00:00:00	2024-11-08T05:00:00	5	Humedad	70
153757	7	Sololá	713	San Lucas Tolimán	10	San Lucas Tolimán	10	Octubre	2023-10-17T00:00:00	2024-11-08T05:00:00	6	Velocidad del viento	6.4
153758	7	Sololá	713	San Lucas Tolimán	10	San Lucas Tolimán	10	Octubre	2023-10-17T00:00:00	2024-11-08T05:00:00	7	Dirección del viento	6.44
153759	7	Sololá	713	San Lucas Tolimán	10	San Lucas Tolimán	10	Octubre	2023-10-17T00:00:00	2024-11-08T05:00:00	1	Precipitación	0
153760	7	Sololá	713	San Lucas Tolimán	10	San Lucas Tolimán	10	Octubre	2023-10-17T00:00:00	2024-11-08T05:00:00	8	Radiación solar	0
153761	7	Sololá	713	San Lucas Tolimán	10	San Lucas Tolimán	10	Octubre	2023-10-17T00:00:00	2024-11-08T06:00:00	2	Temperatura media	18.1
153762	7	Sololá	713	San Lucas Tolimán	10	San Lucas Tolimán	10	Octubre	2023-10-17T00:00:00	2024-11-08T06:00:00	4	Temperatura máxima	18.4
153763	7	Sololá	713	San Lucas Tolimán	10	San Lucas Tolimán	10	Octubre	2023-10-17T00:00:00	2024-11-08T06:00:00	3	Temperatura mínima	17.5
153764	7	Sololá	713	San Lucas Tolimán	10	San Lucas Tolimán	10	Octubre	2023-10-17T00:00:00	2024-11-08T06:00:00	5	Humedad	70
153765	7	Sololá	713	San Lucas Tolimán	10	San Lucas Tolimán	10	Octubre	2023-10-17T00:00:00	2024-11-08T06:00:00	6	Velocidad del viento	6.4
153766	7	Sololá	713	San Lucas Tolimán	10	San Lucas Tolimán	10	Octubre	2023-10-17T00:00:00	2024-11-08T06:00:00	7	Dirección del viento	6.44
153767	7	Sololá	713	San Lucas Tolimán	10	San Lucas Tolimán	10	Octubre	2023-10-17T00:00:00	2024-11-08T06:00:00	1	Precipitación	0
153768	7	Sololá	713	San Lucas Tolimán	10	San Lucas Tolimán	10	Octubre	2023-10-17T00:00:00	2024-11-08T06:00:00	8	Radiación solar	0
153769	7	Sololá	713	San Lucas Tolimán	10	San Lucas Tolimán	10	Octubre	2023-10-17T00:00:00	2024-11-08T07:00:00	2	Temperatura media	19.2
153770	7	Sololá	713	San Lucas Tolimán	10	San Lucas Tolimán	10	Octubre	2023-10-17T00:00:00	2024-11-08T07:00:00	4	Temperatura máxima	19.2
153771	7	Sololá	713	San Lucas Tolimán	10	San Lucas Tolimán	10	Octubre	2023-10-17T00:00:00	2024-11-08T07:00:00	3	Temperatura mínima	18.1
153772	7	Sololá	713	San Lucas Tolimán	10	San Lucas Tolimán	10	Octubre	2023-10-17T00:00:00	2024-11-08T07:00:00	5	Humedad	66
153773	7	Sololá	713	San Lucas Tolimán	10	San Lucas Tolimán	10	Octubre	2023-10-17T00:00:00	2024-11-08T07:00:00	6	Velocidad del viento	9.7
153774	7	Sololá	713	San Lucas Tolimán	10	San Lucas Tolimán	10	Octubre	2023-10-17T00:00:00	2024-11-08T07:00:00	7	Dirección del viento	9.66
153775	7	Sololá	713	San Lucas Tolimán	10	San Lucas Tolimán	10	Octubre	2023-10-17T00:00:00	2024-11-08T07:00:00	1	Precipitación	0
153776	7	Sololá	713	San Lucas Tolimán	10	San Lucas Tolimán	10	Octubre	2023-10-17T00:00:00	2024-11-08T07:00:00	8	Radiación solar	31
153777	7	Sololá	713	San Lucas Tolimán	10	San Lucas Tolimán	10	Octubre	2023-10-17T00:00:00	2024-11-08T08:00:00	2	Temperatura media	20.6
153778	7	Sololá	713	San Lucas Tolimán	10	San Lucas Tolimán	10	Octubre	2023-10-17T00:00:00	2024-11-08T08:00:00	4	Temperatura máxima	20.6
153779	7	Sololá	713	San Lucas Tolimán	10	San Lucas Tolimán	10	Octubre	2023-10-17T00:00:00	2024-11-08T08:00:00	3	Temperatura mínima	19.2
153780	7	Sololá	713	San Lucas Tolimán	10	San Lucas Tolimán	10	Octubre	2023-10-17T00:00:00	2024-11-08T08:00:00	5	Humedad	65
153781	7	Sololá	713	San Lucas Tolimán	10	San Lucas Tolimán	10	Octubre	2023-10-17T00:00:00	2024-11-08T08:00:00	6	Velocidad del viento	11.3
153782	7	Sololá	713	San Lucas Tolimán	10	San Lucas Tolimán	10	Octubre	2023-10-17T00:00:00	2024-11-08T08:00:00	7	Dirección del viento	11.27
153783	7	Sololá	713	San Lucas Tolimán	10	San Lucas Tolimán	10	Octubre	2023-10-17T00:00:00	2024-11-08T08:00:00	1	Precipitación	0
153784	7	Sololá	713	San Lucas Tolimán	10	San Lucas Tolimán	10	Octubre	2023-10-17T00:00:00	2024-11-08T08:00:00	8	Radiación solar	213
153785	7	Sololá	713	San Lucas Tolimán	10	San Lucas Tolimán	10	Octubre	2023-10-17T00:00:00	2024-11-08T09:00:00	2	Temperatura media	21.9
153786	7	Sololá	713	San Lucas Tolimán	10	San Lucas Tolimán	10	Octubre	2023-10-17T00:00:00	2024-11-08T09:00:00	4	Temperatura máxima	21.9
153787	7	Sololá	713	San Lucas Tolimán	10	San Lucas Tolimán	10	Octubre	2023-10-17T00:00:00	2024-11-08T09:00:00	3	Temperatura mínima	20.6
153788	7	Sololá	713	San Lucas Tolimán	10	San Lucas Tolimán	10	Octubre	2023-10-17T00:00:00	2024-11-08T09:00:00	5	Humedad	61
153789	7	Sololá	713	San Lucas Tolimán	10	San Lucas Tolimán	10	Octubre	2023-10-17T00:00:00	2024-11-08T09:00:00	6	Velocidad del viento	11.3
153790	7	Sololá	713	San Lucas Tolimán	10	San Lucas Tolimán	10	Octubre	2023-10-17T00:00:00	2024-11-08T09:00:00	7	Dirección del viento	11.27
153791	7	Sololá	713	San Lucas Tolimán	10	San Lucas Tolimán	10	Octubre	2023-10-17T00:00:00	2024-11-08T09:00:00	1	Precipitación	0
153792	7	Sololá	713	San Lucas Tolimán	10	San Lucas Tolimán	10	Octubre	2023-10-17T00:00:00	2024-11-08T09:00:00	8	Radiación solar	307
153793	7	Sololá	713	San Lucas Tolimán	10	San Lucas Tolimán	10	Octubre	2023-10-17T00:00:00	2024-11-08T10:00:00	2	Temperatura media	23.1
153794	7	Sololá	713	San Lucas Tolimán	10	San Lucas Tolimán	10	Octubre	2023-10-17T00:00:00	2024-11-08T10:00:00	4	Temperatura máxima	23.2
153795	7	Sololá	713	San Lucas Tolimán	10	San Lucas Tolimán	10	Octubre	2023-10-17T00:00:00	2024-11-08T10:00:00	3	Temperatura mínima	21.9
153796	7	Sololá	713	San Lucas Tolimán	10	San Lucas Tolimán	10	Octubre	2023-10-17T00:00:00	2024-11-08T10:00:00	5	Humedad	56
153797	7	Sololá	713	San Lucas Tolimán	10	San Lucas Tolimán	10	Octubre	2023-10-17T00:00:00	2024-11-08T10:00:00	6	Velocidad del viento	9.7
153798	7	Sololá	713	San Lucas Tolimán	10	San Lucas Tolimán	10	Octubre	2023-10-17T00:00:00	2024-11-08T10:00:00	7	Dirección del viento	9.66
153799	7	Sololá	713	San Lucas Tolimán	10	San Lucas Tolimán	10	Octubre	2023-10-17T00:00:00	2024-11-08T10:00:00	1	Precipitación	0
153800	7	Sololá	713	San Lucas Tolimán	10	San Lucas Tolimán	10	Octubre	2023-10-17T00:00:00	2024-11-08T10:00:00	8	Radiación solar	493
153801	7	Sololá	713	San Lucas Tolimán	10	San Lucas Tolimán	10	Octubre	2023-10-17T00:00:00	2024-11-08T11:00:00	2	Temperatura media	23.3
153802	7	Sololá	713	San Lucas Tolimán	10	San Lucas Tolimán	10	Octubre	2023-10-17T00:00:00	2024-11-08T11:00:00	4	Temperatura máxima	23.4
153803	7	Sololá	713	San Lucas Tolimán	10	San Lucas Tolimán	10	Octubre	2023-10-17T00:00:00	2024-11-08T11:00:00	3	Temperatura mínima	22.8
153804	7	Sololá	713	San Lucas Tolimán	10	San Lucas Tolimán	10	Octubre	2023-10-17T00:00:00	2024-11-08T11:00:00	5	Humedad	56
153805	7	Sololá	713	San Lucas Tolimán	10	San Lucas Tolimán	10	Octubre	2023-10-17T00:00:00	2024-11-08T11:00:00	6	Velocidad del viento	6.4
153806	7	Sololá	713	San Lucas Tolimán	10	San Lucas Tolimán	10	Octubre	2023-10-17T00:00:00	2024-11-08T11:00:00	7	Dirección del viento	6.44
153807	7	Sololá	713	San Lucas Tolimán	10	San Lucas Tolimán	10	Octubre	2023-10-17T00:00:00	2024-11-08T11:00:00	1	Precipitación	0
153808	7	Sololá	713	San Lucas Tolimán	10	San Lucas Tolimán	10	Octubre	2023-10-17T00:00:00	2024-11-08T11:00:00	8	Radiación solar	366
153809	7	Sololá	713	San Lucas Tolimán	10	San Lucas Tolimán	10	Octubre	2023-10-17T00:00:00	2024-11-08T12:00:00	2	Temperatura media	24.2
153810	7	Sololá	713	San Lucas Tolimán	10	San Lucas Tolimán	10	Octubre	2023-10-17T00:00:00	2024-11-08T12:00:00	4	Temperatura máxima	24.4
153811	7	Sololá	713	San Lucas Tolimán	10	San Lucas Tolimán	10	Octubre	2023-10-17T00:00:00	2024-11-08T12:00:00	3	Temperatura mínima	23.2
153812	7	Sololá	713	San Lucas Tolimán	10	San Lucas Tolimán	10	Octubre	2023-10-17T00:00:00	2024-11-08T12:00:00	5	Humedad	66
153813	7	Sololá	713	San Lucas Tolimán	10	San Lucas Tolimán	10	Octubre	2023-10-17T00:00:00	2024-11-08T12:00:00	6	Velocidad del viento	4.8
153814	7	Sololá	713	San Lucas Tolimán	10	San Lucas Tolimán	10	Octubre	2023-10-17T00:00:00	2024-11-08T12:00:00	7	Dirección del viento	4.83
153815	7	Sololá	713	San Lucas Tolimán	10	San Lucas Tolimán	10	Octubre	2023-10-17T00:00:00	2024-11-08T12:00:00	1	Precipitación	0
153816	7	Sololá	713	San Lucas Tolimán	10	San Lucas Tolimán	10	Octubre	2023-10-17T00:00:00	2024-11-08T12:00:00	8	Radiación solar	320
153817	7	Sololá	713	San Lucas Tolimán	10	San Lucas Tolimán	10	Octubre	2023-10-17T00:00:00	2024-11-08T13:00:00	2	Temperatura media	21.3
153818	7	Sololá	713	San Lucas Tolimán	10	San Lucas Tolimán	10	Octubre	2023-10-17T00:00:00	2024-11-08T13:00:00	4	Temperatura máxima	24.2
153819	7	Sololá	713	San Lucas Tolimán	10	San Lucas Tolimán	10	Octubre	2023-10-17T00:00:00	2024-11-08T13:00:00	3	Temperatura mínima	21.1
153820	7	Sololá	713	San Lucas Tolimán	10	San Lucas Tolimán	10	Octubre	2023-10-17T00:00:00	2024-11-08T13:00:00	5	Humedad	83
153821	7	Sololá	713	San Lucas Tolimán	10	San Lucas Tolimán	10	Octubre	2023-10-17T00:00:00	2024-11-08T13:00:00	6	Velocidad del viento	6.4
153822	7	Sololá	713	San Lucas Tolimán	10	San Lucas Tolimán	10	Octubre	2023-10-17T00:00:00	2024-11-08T13:00:00	7	Dirección del viento	6.44
153823	7	Sololá	713	San Lucas Tolimán	10	San Lucas Tolimán	10	Octubre	2023-10-17T00:00:00	2024-11-08T13:00:00	1	Precipitación	0
153824	7	Sololá	713	San Lucas Tolimán	10	San Lucas Tolimán	10	Octubre	2023-10-17T00:00:00	2024-11-08T13:00:00	8	Radiación solar	710
153825	7	Sololá	713	San Lucas Tolimán	10	San Lucas Tolimán	10	Octubre	2023-10-17T00:00:00	2024-11-08T14:00:00	2	Temperatura media	22.6
153826	7	Sololá	713	San Lucas Tolimán	10	San Lucas Tolimán	10	Octubre	2023-10-17T00:00:00	2024-11-08T14:00:00	4	Temperatura máxima	23.1
153827	7	Sololá	713	San Lucas Tolimán	10	San Lucas Tolimán	10	Octubre	2023-10-17T00:00:00	2024-11-08T14:00:00	3	Temperatura mínima	21.3
153828	7	Sololá	713	San Lucas Tolimán	10	San Lucas Tolimán	10	Octubre	2023-10-17T00:00:00	2024-11-08T14:00:00	5	Humedad	75
153829	7	Sololá	713	San Lucas Tolimán	10	San Lucas Tolimán	10	Octubre	2023-10-17T00:00:00	2024-11-08T14:00:00	6	Velocidad del viento	8
153830	7	Sololá	713	San Lucas Tolimán	10	San Lucas Tolimán	10	Octubre	2023-10-17T00:00:00	2024-11-08T14:00:00	7	Dirección del viento	8.05
153831	7	Sololá	713	San Lucas Tolimán	10	San Lucas Tolimán	10	Octubre	2023-10-17T00:00:00	2024-11-08T14:00:00	1	Precipitación	0
153832	7	Sololá	713	San Lucas Tolimán	10	San Lucas Tolimán	10	Octubre	2023-10-17T00:00:00	2024-11-08T14:00:00	8	Radiación solar	428
153833	7	Sololá	713	San Lucas Tolimán	10	San Lucas Tolimán	10	Octubre	2023-10-17T00:00:00	2024-11-08T15:00:00	2	Temperatura media	23.2
153834	7	Sololá	713	San Lucas Tolimán	10	San Lucas Tolimán	10	Octubre	2023-10-17T00:00:00	2024-11-08T15:00:00	4	Temperatura máxima	24.5
153835	7	Sololá	713	San Lucas Tolimán	10	San Lucas Tolimán	10	Octubre	2023-10-17T00:00:00	2024-11-08T15:00:00	3	Temperatura mínima	22.6
153836	7	Sololá	713	San Lucas Tolimán	10	San Lucas Tolimán	10	Octubre	2023-10-17T00:00:00	2024-11-08T15:00:00	5	Humedad	78
153837	7	Sololá	713	San Lucas Tolimán	10	San Lucas Tolimán	10	Octubre	2023-10-17T00:00:00	2024-11-08T15:00:00	6	Velocidad del viento	3.2
153838	7	Sololá	713	San Lucas Tolimán	10	San Lucas Tolimán	10	Octubre	2023-10-17T00:00:00	2024-11-08T15:00:00	7	Dirección del viento	3.22
153839	7	Sololá	713	San Lucas Tolimán	10	San Lucas Tolimán	10	Octubre	2023-10-17T00:00:00	2024-11-08T15:00:00	1	Precipitación	0
153840	7	Sololá	713	San Lucas Tolimán	10	San Lucas Tolimán	10	Octubre	2023-10-17T00:00:00	2024-11-08T15:00:00	8	Radiación solar	393
153841	7	Sololá	713	San Lucas Tolimán	10	San Lucas Tolimán	10	Octubre	2023-10-17T00:00:00	2024-11-08T16:00:00	2	Temperatura media	21.2
153842	7	Sololá	713	San Lucas Tolimán	10	San Lucas Tolimán	10	Octubre	2023-10-17T00:00:00	2024-11-08T16:00:00	4	Temperatura máxima	23.1
153843	7	Sololá	713	San Lucas Tolimán	10	San Lucas Tolimán	10	Octubre	2023-10-17T00:00:00	2024-11-08T16:00:00	3	Temperatura mínima	21.1
153844	7	Sololá	713	San Lucas Tolimán	10	San Lucas Tolimán	10	Octubre	2023-10-17T00:00:00	2024-11-08T16:00:00	5	Humedad	83
153845	7	Sololá	713	San Lucas Tolimán	10	San Lucas Tolimán	10	Octubre	2023-10-17T00:00:00	2024-11-08T16:00:00	6	Velocidad del viento	4.8
153846	7	Sololá	713	San Lucas Tolimán	10	San Lucas Tolimán	10	Octubre	2023-10-17T00:00:00	2024-11-08T16:00:00	7	Dirección del viento	4.83
153847	7	Sololá	713	San Lucas Tolimán	10	San Lucas Tolimán	10	Octubre	2023-10-17T00:00:00	2024-11-08T16:00:00	1	Precipitación	0
153848	7	Sololá	713	San Lucas Tolimán	10	San Lucas Tolimán	10	Octubre	2023-10-17T00:00:00	2024-11-08T16:00:00	8	Radiación solar	60
153849	7	Sololá	713	San Lucas Tolimán	10	San Lucas Tolimán	10	Octubre	2023-10-17T00:00:00	2024-11-08T17:00:00	2	Temperatura media	21.8
153850	7	Sololá	713	San Lucas Tolimán	10	San Lucas Tolimán	10	Octubre	2023-10-17T00:00:00	2024-11-08T17:00:00	4	Temperatura máxima	22.6
153851	7	Sololá	713	San Lucas Tolimán	10	San Lucas Tolimán	10	Octubre	2023-10-17T00:00:00	2024-11-08T17:00:00	3	Temperatura mínima	21.2
153852	7	Sololá	713	San Lucas Tolimán	10	San Lucas Tolimán	10	Octubre	2023-10-17T00:00:00	2024-11-08T17:00:00	5	Humedad	66
153853	7	Sololá	713	San Lucas Tolimán	10	San Lucas Tolimán	10	Octubre	2023-10-17T00:00:00	2024-11-08T17:00:00	6	Velocidad del viento	3.2
153854	7	Sololá	713	San Lucas Tolimán	10	San Lucas Tolimán	10	Octubre	2023-10-17T00:00:00	2024-11-08T17:00:00	7	Dirección del viento	3.22
153855	7	Sololá	713	San Lucas Tolimán	10	San Lucas Tolimán	10	Octubre	2023-10-17T00:00:00	2024-11-08T17:00:00	1	Precipitación	0
153856	7	Sololá	713	San Lucas Tolimán	10	San Lucas Tolimán	10	Octubre	2023-10-17T00:00:00	2024-11-08T17:00:00	8	Radiación solar	21
153857	7	Sololá	713	San Lucas Tolimán	10	San Lucas Tolimán	10	Octubre	2023-10-17T00:00:00	2024-11-08T18:00:00	2	Temperatura media	20.7
153858	7	Sololá	713	San Lucas Tolimán	10	San Lucas Tolimán	10	Octubre	2023-10-17T00:00:00	2024-11-08T18:00:00	4	Temperatura máxima	21.8
153859	7	Sololá	713	San Lucas Tolimán	10	San Lucas Tolimán	10	Octubre	2023-10-17T00:00:00	2024-11-08T18:00:00	3	Temperatura mínima	20.7
153860	7	Sololá	713	San Lucas Tolimán	10	San Lucas Tolimán	10	Octubre	2023-10-17T00:00:00	2024-11-08T18:00:00	5	Humedad	68
153861	7	Sololá	713	San Lucas Tolimán	10	San Lucas Tolimán	10	Octubre	2023-10-17T00:00:00	2024-11-08T18:00:00	6	Velocidad del viento	6.4
153862	7	Sololá	713	San Lucas Tolimán	10	San Lucas Tolimán	10	Octubre	2023-10-17T00:00:00	2024-11-08T18:00:00	7	Dirección del viento	6.44
153863	7	Sololá	713	San Lucas Tolimán	10	San Lucas Tolimán	10	Octubre	2023-10-17T00:00:00	2024-11-08T18:00:00	1	Precipitación	0
153864	7	Sololá	713	San Lucas Tolimán	10	San Lucas Tolimán	10	Octubre	2023-10-17T00:00:00	2024-11-08T18:00:00	8	Radiación solar	4
153865	7	Sololá	713	San Lucas Tolimán	10	San Lucas Tolimán	10	Octubre	2023-10-17T00:00:00	2024-11-08T19:00:00	2	Temperatura media	20.1
153866	7	Sololá	713	San Lucas Tolimán	10	San Lucas Tolimán	10	Octubre	2023-10-17T00:00:00	2024-11-08T19:00:00	4	Temperatura máxima	20.7
153867	7	Sololá	713	San Lucas Tolimán	10	San Lucas Tolimán	10	Octubre	2023-10-17T00:00:00	2024-11-08T19:00:00	3	Temperatura mínima	19.9
153868	7	Sololá	713	San Lucas Tolimán	10	San Lucas Tolimán	10	Octubre	2023-10-17T00:00:00	2024-11-08T19:00:00	5	Humedad	70
153869	7	Sololá	713	San Lucas Tolimán	10	San Lucas Tolimán	10	Octubre	2023-10-17T00:00:00	2024-11-08T19:00:00	6	Velocidad del viento	6.4
153870	7	Sololá	713	San Lucas Tolimán	10	San Lucas Tolimán	10	Octubre	2023-10-17T00:00:00	2024-11-08T19:00:00	7	Dirección del viento	6.44
153871	7	Sololá	713	San Lucas Tolimán	10	San Lucas Tolimán	10	Octubre	2023-10-17T00:00:00	2024-11-08T19:00:00	1	Precipitación	0
153872	7	Sololá	713	San Lucas Tolimán	10	San Lucas Tolimán	10	Octubre	2023-10-17T00:00:00	2024-11-08T19:00:00	8	Radiación solar	0
153873	7	Sololá	713	San Lucas Tolimán	10	San Lucas Tolimán	10	Octubre	2023-10-17T00:00:00	2024-11-08T20:00:00	2	Temperatura media	19.8
153874	7	Sololá	713	San Lucas Tolimán	10	San Lucas Tolimán	10	Octubre	2023-10-17T00:00:00	2024-11-08T20:00:00	4	Temperatura máxima	20.1
153875	7	Sololá	713	San Lucas Tolimán	10	San Lucas Tolimán	10	Octubre	2023-10-17T00:00:00	2024-11-08T20:00:00	3	Temperatura mínima	19.6
153876	7	Sololá	713	San Lucas Tolimán	10	San Lucas Tolimán	10	Octubre	2023-10-17T00:00:00	2024-11-08T20:00:00	5	Humedad	71
153877	7	Sololá	713	San Lucas Tolimán	10	San Lucas Tolimán	10	Octubre	2023-10-17T00:00:00	2024-11-08T20:00:00	6	Velocidad del viento	6.4
153878	7	Sololá	713	San Lucas Tolimán	10	San Lucas Tolimán	10	Octubre	2023-10-17T00:00:00	2024-11-08T20:00:00	7	Dirección del viento	6.44
153879	7	Sololá	713	San Lucas Tolimán	10	San Lucas Tolimán	10	Octubre	2023-10-17T00:00:00	2024-11-08T20:00:00	1	Precipitación	0
153880	7	Sololá	713	San Lucas Tolimán	10	San Lucas Tolimán	10	Octubre	2023-10-17T00:00:00	2024-11-08T20:00:00	8	Radiación solar	0
153881	7	Sololá	713	San Lucas Tolimán	10	San Lucas Tolimán	10	Octubre	2023-10-17T00:00:00	2024-11-08T21:00:00	2	Temperatura media	19.4
153882	7	Sololá	713	San Lucas Tolimán	10	San Lucas Tolimán	10	Octubre	2023-10-17T00:00:00	2024-11-08T21:00:00	4	Temperatura máxima	19.8
153883	7	Sololá	713	San Lucas Tolimán	10	San Lucas Tolimán	10	Octubre	2023-10-17T00:00:00	2024-11-08T21:00:00	3	Temperatura mínima	19.4
153884	7	Sololá	713	San Lucas Tolimán	10	San Lucas Tolimán	10	Octubre	2023-10-17T00:00:00	2024-11-08T21:00:00	5	Humedad	71
153885	7	Sololá	713	San Lucas Tolimán	10	San Lucas Tolimán	10	Octubre	2023-10-17T00:00:00	2024-11-08T21:00:00	6	Velocidad del viento	8
153886	7	Sololá	713	San Lucas Tolimán	10	San Lucas Tolimán	10	Octubre	2023-10-17T00:00:00	2024-11-08T21:00:00	7	Dirección del viento	8.05
153887	7	Sololá	713	San Lucas Tolimán	10	San Lucas Tolimán	10	Octubre	2023-10-17T00:00:00	2024-11-08T21:00:00	1	Precipitación	0
153888	7	Sololá	713	San Lucas Tolimán	10	San Lucas Tolimán	10	Octubre	2023-10-17T00:00:00	2024-11-08T21:00:00	8	Radiación solar	0
153889	7	Sololá	713	San Lucas Tolimán	10	San Lucas Tolimán	10	Octubre	2023-10-17T00:00:00	2024-11-08T22:00:00	2	Temperatura media	18.6
153890	7	Sololá	713	San Lucas Tolimán	10	San Lucas Tolimán	10	Octubre	2023-10-17T00:00:00	2024-11-08T22:00:00	4	Temperatura máxima	19.4
153891	7	Sololá	713	San Lucas Tolimán	10	San Lucas Tolimán	10	Octubre	2023-10-17T00:00:00	2024-11-08T22:00:00	3	Temperatura mínima	18.6
153892	7	Sololá	713	San Lucas Tolimán	10	San Lucas Tolimán	10	Octubre	2023-10-17T00:00:00	2024-11-08T22:00:00	5	Humedad	73
153893	7	Sololá	713	San Lucas Tolimán	10	San Lucas Tolimán	10	Octubre	2023-10-17T00:00:00	2024-11-08T22:00:00	6	Velocidad del viento	8
153894	7	Sololá	713	San Lucas Tolimán	10	San Lucas Tolimán	10	Octubre	2023-10-17T00:00:00	2024-11-08T22:00:00	7	Dirección del viento	8.05
153895	7	Sololá	713	San Lucas Tolimán	10	San Lucas Tolimán	10	Octubre	2023-10-17T00:00:00	2024-11-08T22:00:00	1	Precipitación	0
153896	7	Sololá	713	San Lucas Tolimán	10	San Lucas Tolimán	10	Octubre	2023-10-17T00:00:00	2024-11-08T22:00:00	8	Radiación solar	0
153897	7	Sololá	713	San Lucas Tolimán	10	San Lucas Tolimán	10	Octubre	2023-10-17T00:00:00	2024-11-08T23:00:00	2	Temperatura media	18.7
153898	7	Sololá	713	San Lucas Tolimán	10	San Lucas Tolimán	10	Octubre	2023-10-17T00:00:00	2024-11-08T23:00:00	4	Temperatura máxima	18.7
153899	7	Sololá	713	San Lucas Tolimán	10	San Lucas Tolimán	10	Octubre	2023-10-17T00:00:00	2024-11-08T23:00:00	3	Temperatura mínima	18.4
153900	7	Sololá	713	San Lucas Tolimán	10	San Lucas Tolimán	10	Octubre	2023-10-17T00:00:00	2024-11-08T23:00:00	5	Humedad	71
153901	7	Sololá	713	San Lucas Tolimán	10	San Lucas Tolimán	10	Octubre	2023-10-17T00:00:00	2024-11-08T23:00:00	6	Velocidad del viento	6.4
153902	7	Sololá	713	San Lucas Tolimán	10	San Lucas Tolimán	10	Octubre	2023-10-17T00:00:00	2024-11-08T23:00:00	7	Dirección del viento	6.44
153903	7	Sololá	713	San Lucas Tolimán	10	San Lucas Tolimán	10	Octubre	2023-10-17T00:00:00	2024-11-08T23:00:00	1	Precipitación	0
153904	7	Sololá	713	San Lucas Tolimán	10	San Lucas Tolimán	10	Octubre	2023-10-17T00:00:00	2024-11-08T23:00:00	8	Radiación solar	0
153905	7	Sololá	713	San Lucas Tolimán	10	San Lucas Tolimán	10	Octubre	2023-10-18T00:00:00	2024-11-08T00:00:00	2	Temperatura media	18.5
153906	7	Sololá	713	San Lucas Tolimán	10	San Lucas Tolimán	10	Octubre	2023-10-18T00:00:00	2024-11-08T00:00:00	4	Temperatura máxima	18.7
153907	7	Sololá	713	San Lucas Tolimán	10	San Lucas Tolimán	10	Octubre	2023-10-18T00:00:00	2024-11-08T00:00:00	3	Temperatura mínima	18.4
153908	7	Sololá	713	San Lucas Tolimán	10	San Lucas Tolimán	10	Octubre	2023-10-18T00:00:00	2024-11-08T00:00:00	5	Humedad	72
153909	7	Sololá	713	San Lucas Tolimán	10	San Lucas Tolimán	10	Octubre	2023-10-18T00:00:00	2024-11-08T00:00:00	6	Velocidad del viento	6.4
153910	7	Sololá	713	San Lucas Tolimán	10	San Lucas Tolimán	10	Octubre	2023-10-18T00:00:00	2024-11-08T00:00:00	7	Dirección del viento	6.44
153911	7	Sololá	713	San Lucas Tolimán	10	San Lucas Tolimán	10	Octubre	2023-10-18T00:00:00	2024-11-08T00:00:00	1	Precipitación	0
153912	7	Sololá	713	San Lucas Tolimán	10	San Lucas Tolimán	10	Octubre	2023-10-18T00:00:00	2024-11-08T00:00:00	8	Radiación solar	0
153913	7	Sololá	713	San Lucas Tolimán	10	San Lucas Tolimán	10	Octubre	2023-10-18T00:00:00	2024-11-08T01:00:00	2	Temperatura media	17.9
153914	7	Sololá	713	San Lucas Tolimán	10	San Lucas Tolimán	10	Octubre	2023-10-18T00:00:00	2024-11-08T01:00:00	4	Temperatura máxima	18.5
153915	7	Sololá	713	San Lucas Tolimán	10	San Lucas Tolimán	10	Octubre	2023-10-18T00:00:00	2024-11-08T01:00:00	3	Temperatura mínima	17.9
153916	7	Sololá	713	San Lucas Tolimán	10	San Lucas Tolimán	10	Octubre	2023-10-18T00:00:00	2024-11-08T01:00:00	5	Humedad	75
153917	7	Sololá	713	San Lucas Tolimán	10	San Lucas Tolimán	10	Octubre	2023-10-18T00:00:00	2024-11-08T01:00:00	6	Velocidad del viento	4.8
153918	7	Sololá	713	San Lucas Tolimán	10	San Lucas Tolimán	10	Octubre	2023-10-18T00:00:00	2024-11-08T01:00:00	7	Dirección del viento	4.83
153919	7	Sololá	713	San Lucas Tolimán	10	San Lucas Tolimán	10	Octubre	2023-10-18T00:00:00	2024-11-08T01:00:00	1	Precipitación	0
153920	7	Sololá	713	San Lucas Tolimán	10	San Lucas Tolimán	10	Octubre	2023-10-18T00:00:00	2024-11-08T01:00:00	8	Radiación solar	0
153921	7	Sololá	713	San Lucas Tolimán	10	San Lucas Tolimán	10	Octubre	2023-10-18T00:00:00	2024-11-08T02:00:00	2	Temperatura media	17.3
153922	7	Sololá	713	San Lucas Tolimán	10	San Lucas Tolimán	10	Octubre	2023-10-18T00:00:00	2024-11-08T02:00:00	4	Temperatura máxima	18.4
153923	7	Sololá	713	San Lucas Tolimán	10	San Lucas Tolimán	10	Octubre	2023-10-18T00:00:00	2024-11-08T02:00:00	3	Temperatura mínima	17.3
153924	7	Sololá	713	San Lucas Tolimán	10	San Lucas Tolimán	10	Octubre	2023-10-18T00:00:00	2024-11-08T02:00:00	5	Humedad	78
153925	7	Sololá	713	San Lucas Tolimán	10	San Lucas Tolimán	10	Octubre	2023-10-18T00:00:00	2024-11-08T02:00:00	6	Velocidad del viento	4.8
153926	7	Sololá	713	San Lucas Tolimán	10	San Lucas Tolimán	10	Octubre	2023-10-18T00:00:00	2024-11-08T02:00:00	7	Dirección del viento	4.83
153927	7	Sololá	713	San Lucas Tolimán	10	San Lucas Tolimán	10	Octubre	2023-10-18T00:00:00	2024-11-08T02:00:00	1	Precipitación	0
153928	7	Sololá	713	San Lucas Tolimán	10	San Lucas Tolimán	10	Octubre	2023-10-18T00:00:00	2024-11-08T02:00:00	8	Radiación solar	0
153929	7	Sololá	713	San Lucas Tolimán	10	San Lucas Tolimán	10	Octubre	2023-10-18T00:00:00	2024-11-08T03:00:00	2	Temperatura media	16.8
153930	7	Sololá	713	San Lucas Tolimán	10	San Lucas Tolimán	10	Octubre	2023-10-18T00:00:00	2024-11-08T03:00:00	4	Temperatura máxima	17.3
153931	7	Sololá	713	San Lucas Tolimán	10	San Lucas Tolimán	10	Octubre	2023-10-18T00:00:00	2024-11-08T03:00:00	3	Temperatura mínima	16.8
153932	7	Sololá	713	San Lucas Tolimán	10	San Lucas Tolimán	10	Octubre	2023-10-18T00:00:00	2024-11-08T03:00:00	5	Humedad	79
153933	7	Sololá	713	San Lucas Tolimán	10	San Lucas Tolimán	10	Octubre	2023-10-18T00:00:00	2024-11-08T03:00:00	6	Velocidad del viento	3.2
153934	7	Sololá	713	San Lucas Tolimán	10	San Lucas Tolimán	10	Octubre	2023-10-18T00:00:00	2024-11-08T03:00:00	7	Dirección del viento	3.22
153935	7	Sololá	713	San Lucas Tolimán	10	San Lucas Tolimán	10	Octubre	2023-10-18T00:00:00	2024-11-08T03:00:00	1	Precipitación	0
153936	7	Sololá	713	San Lucas Tolimán	10	San Lucas Tolimán	10	Octubre	2023-10-18T00:00:00	2024-11-08T03:00:00	8	Radiación solar	0
153937	7	Sololá	713	San Lucas Tolimán	10	San Lucas Tolimán	10	Octubre	2023-10-18T00:00:00	2024-11-08T04:00:00	2	Temperatura media	16.7
153938	7	Sololá	713	San Lucas Tolimán	10	San Lucas Tolimán	10	Octubre	2023-10-18T00:00:00	2024-11-08T04:00:00	4	Temperatura máxima	16.8
153939	7	Sololá	713	San Lucas Tolimán	10	San Lucas Tolimán	10	Octubre	2023-10-18T00:00:00	2024-11-08T04:00:00	3	Temperatura mínima	16.4
153940	7	Sololá	713	San Lucas Tolimán	10	San Lucas Tolimán	10	Octubre	2023-10-18T00:00:00	2024-11-08T04:00:00	5	Humedad	79
153941	7	Sololá	713	San Lucas Tolimán	10	San Lucas Tolimán	10	Octubre	2023-10-18T00:00:00	2024-11-08T04:00:00	6	Velocidad del viento	3.2
153942	7	Sololá	713	San Lucas Tolimán	10	San Lucas Tolimán	10	Octubre	2023-10-18T00:00:00	2024-11-08T04:00:00	7	Dirección del viento	3.22
153943	7	Sololá	713	San Lucas Tolimán	10	San Lucas Tolimán	10	Octubre	2023-10-18T00:00:00	2024-11-08T04:00:00	1	Precipitación	0
153944	7	Sololá	713	San Lucas Tolimán	10	San Lucas Tolimán	10	Octubre	2023-10-18T00:00:00	2024-11-08T04:00:00	8	Radiación solar	0
153945	7	Sololá	713	San Lucas Tolimán	10	San Lucas Tolimán	10	Octubre	2023-10-18T00:00:00	2024-11-08T05:00:00	2	Temperatura media	15.9
153946	7	Sololá	713	San Lucas Tolimán	10	San Lucas Tolimán	10	Octubre	2023-10-18T00:00:00	2024-11-08T05:00:00	4	Temperatura máxima	16.8
153947	7	Sololá	713	San Lucas Tolimán	10	San Lucas Tolimán	10	Octubre	2023-10-18T00:00:00	2024-11-08T05:00:00	3	Temperatura mínima	15.8
153948	7	Sololá	713	San Lucas Tolimán	10	San Lucas Tolimán	10	Octubre	2023-10-18T00:00:00	2024-11-08T05:00:00	5	Humedad	82
153949	7	Sololá	713	San Lucas Tolimán	10	San Lucas Tolimán	10	Octubre	2023-10-18T00:00:00	2024-11-08T05:00:00	6	Velocidad del viento	1.6
153950	7	Sololá	713	San Lucas Tolimán	10	San Lucas Tolimán	10	Octubre	2023-10-18T00:00:00	2024-11-08T05:00:00	7	Dirección del viento	1.61
153951	7	Sololá	713	San Lucas Tolimán	10	San Lucas Tolimán	10	Octubre	2023-10-18T00:00:00	2024-11-08T05:00:00	1	Precipitación	0
153952	7	Sololá	713	San Lucas Tolimán	10	San Lucas Tolimán	10	Octubre	2023-10-18T00:00:00	2024-11-08T05:00:00	8	Radiación solar	0
153953	7	Sololá	713	San Lucas Tolimán	10	San Lucas Tolimán	10	Octubre	2023-10-18T00:00:00	2024-11-08T06:00:00	2	Temperatura media	16.2
153954	7	Sololá	713	San Lucas Tolimán	10	San Lucas Tolimán	10	Octubre	2023-10-18T00:00:00	2024-11-08T06:00:00	4	Temperatura máxima	16.2
153955	7	Sololá	713	San Lucas Tolimán	10	San Lucas Tolimán	10	Octubre	2023-10-18T00:00:00	2024-11-08T06:00:00	3	Temperatura mínima	15.6
153956	7	Sololá	713	San Lucas Tolimán	10	San Lucas Tolimán	10	Octubre	2023-10-18T00:00:00	2024-11-08T06:00:00	5	Humedad	81
153957	7	Sololá	713	San Lucas Tolimán	10	San Lucas Tolimán	10	Octubre	2023-10-18T00:00:00	2024-11-08T06:00:00	6	Velocidad del viento	1.6
153958	7	Sololá	713	San Lucas Tolimán	10	San Lucas Tolimán	10	Octubre	2023-10-18T00:00:00	2024-11-08T06:00:00	7	Dirección del viento	1.61
153959	7	Sololá	713	San Lucas Tolimán	10	San Lucas Tolimán	10	Octubre	2023-10-18T00:00:00	2024-11-08T06:00:00	1	Precipitación	0
153960	7	Sololá	713	San Lucas Tolimán	10	San Lucas Tolimán	10	Octubre	2023-10-18T00:00:00	2024-11-08T06:00:00	8	Radiación solar	0
153961	7	Sololá	713	San Lucas Tolimán	10	San Lucas Tolimán	10	Octubre	2023-10-18T00:00:00	2024-11-08T07:00:00	2	Temperatura media	16.7
153962	7	Sololá	713	San Lucas Tolimán	10	San Lucas Tolimán	10	Octubre	2023-10-18T00:00:00	2024-11-08T07:00:00	4	Temperatura máxima	16.7
153963	7	Sololá	713	San Lucas Tolimán	10	San Lucas Tolimán	10	Octubre	2023-10-18T00:00:00	2024-11-08T07:00:00	3	Temperatura mínima	16.1
153964	7	Sololá	713	San Lucas Tolimán	10	San Lucas Tolimán	10	Octubre	2023-10-18T00:00:00	2024-11-08T07:00:00	5	Humedad	80
153965	7	Sololá	713	San Lucas Tolimán	10	San Lucas Tolimán	10	Octubre	2023-10-18T00:00:00	2024-11-08T07:00:00	6	Velocidad del viento	1.6
153966	7	Sololá	713	San Lucas Tolimán	10	San Lucas Tolimán	10	Octubre	2023-10-18T00:00:00	2024-11-08T07:00:00	7	Dirección del viento	1.61
153967	7	Sololá	713	San Lucas Tolimán	10	San Lucas Tolimán	10	Octubre	2023-10-18T00:00:00	2024-11-08T07:00:00	1	Precipitación	0
153968	7	Sololá	713	San Lucas Tolimán	10	San Lucas Tolimán	10	Octubre	2023-10-18T00:00:00	2024-11-08T07:00:00	8	Radiación solar	29
153969	7	Sololá	713	San Lucas Tolimán	10	San Lucas Tolimán	10	Octubre	2023-10-18T00:00:00	2024-11-08T08:00:00	2	Temperatura media	20.3
153970	7	Sololá	713	San Lucas Tolimán	10	San Lucas Tolimán	10	Octubre	2023-10-18T00:00:00	2024-11-08T08:00:00	4	Temperatura máxima	20.3
153971	7	Sololá	713	San Lucas Tolimán	10	San Lucas Tolimán	10	Octubre	2023-10-18T00:00:00	2024-11-08T08:00:00	3	Temperatura mínima	16.5
153972	7	Sololá	713	San Lucas Tolimán	10	San Lucas Tolimán	10	Octubre	2023-10-18T00:00:00	2024-11-08T08:00:00	5	Humedad	70
153973	7	Sololá	713	San Lucas Tolimán	10	San Lucas Tolimán	10	Octubre	2023-10-18T00:00:00	2024-11-08T08:00:00	6	Velocidad del viento	1.6
153974	7	Sololá	713	San Lucas Tolimán	10	San Lucas Tolimán	10	Octubre	2023-10-18T00:00:00	2024-11-08T08:00:00	7	Dirección del viento	1.61
153975	7	Sololá	713	San Lucas Tolimán	10	San Lucas Tolimán	10	Octubre	2023-10-18T00:00:00	2024-11-08T08:00:00	1	Precipitación	0
153976	7	Sololá	713	San Lucas Tolimán	10	San Lucas Tolimán	10	Octubre	2023-10-18T00:00:00	2024-11-08T08:00:00	8	Radiación solar	234
153977	7	Sololá	713	San Lucas Tolimán	10	San Lucas Tolimán	10	Octubre	2023-10-18T00:00:00	2024-11-08T09:00:00	2	Temperatura media	23.1
153978	7	Sololá	713	San Lucas Tolimán	10	San Lucas Tolimán	10	Octubre	2023-10-18T00:00:00	2024-11-08T09:00:00	4	Temperatura máxima	23.1
153979	7	Sololá	713	San Lucas Tolimán	10	San Lucas Tolimán	10	Octubre	2023-10-18T00:00:00	2024-11-08T09:00:00	3	Temperatura mínima	20.3
153980	7	Sololá	713	San Lucas Tolimán	10	San Lucas Tolimán	10	Octubre	2023-10-18T00:00:00	2024-11-08T09:00:00	5	Humedad	60
153981	7	Sololá	713	San Lucas Tolimán	10	San Lucas Tolimán	10	Octubre	2023-10-18T00:00:00	2024-11-08T09:00:00	6	Velocidad del viento	1.6
153982	7	Sololá	713	San Lucas Tolimán	10	San Lucas Tolimán	10	Octubre	2023-10-18T00:00:00	2024-11-08T09:00:00	7	Dirección del viento	1.61
153983	7	Sololá	713	San Lucas Tolimán	10	San Lucas Tolimán	10	Octubre	2023-10-18T00:00:00	2024-11-08T09:00:00	1	Precipitación	0
153984	7	Sololá	713	San Lucas Tolimán	10	San Lucas Tolimán	10	Octubre	2023-10-18T00:00:00	2024-11-08T09:00:00	8	Radiación solar	400
153985	7	Sololá	713	San Lucas Tolimán	10	San Lucas Tolimán	10	Octubre	2023-10-18T00:00:00	2024-11-08T10:00:00	2	Temperatura media	25.3
153986	7	Sololá	713	San Lucas Tolimán	10	San Lucas Tolimán	10	Octubre	2023-10-18T00:00:00	2024-11-08T10:00:00	4	Temperatura máxima	25.4
153987	7	Sololá	713	San Lucas Tolimán	10	San Lucas Tolimán	10	Octubre	2023-10-18T00:00:00	2024-11-08T10:00:00	3	Temperatura mínima	23.1
153988	7	Sololá	713	San Lucas Tolimán	10	San Lucas Tolimán	10	Octubre	2023-10-18T00:00:00	2024-11-08T10:00:00	5	Humedad	56
153989	7	Sololá	713	San Lucas Tolimán	10	San Lucas Tolimán	10	Octubre	2023-10-18T00:00:00	2024-11-08T10:00:00	6	Velocidad del viento	3.2
153990	7	Sololá	713	San Lucas Tolimán	10	San Lucas Tolimán	10	Octubre	2023-10-18T00:00:00	2024-11-08T10:00:00	7	Dirección del viento	3.22
153991	7	Sololá	713	San Lucas Tolimán	10	San Lucas Tolimán	10	Octubre	2023-10-18T00:00:00	2024-11-08T10:00:00	1	Precipitación	0
153992	7	Sololá	713	San Lucas Tolimán	10	San Lucas Tolimán	10	Octubre	2023-10-18T00:00:00	2024-11-08T10:00:00	8	Radiación solar	559
153993	7	Sololá	713	San Lucas Tolimán	10	San Lucas Tolimán	10	Octubre	2023-10-18T00:00:00	2024-11-08T11:00:00	2	Temperatura media	24.2
153994	7	Sololá	713	San Lucas Tolimán	10	San Lucas Tolimán	10	Octubre	2023-10-18T00:00:00	2024-11-08T11:00:00	4	Temperatura máxima	25.7
153995	7	Sololá	713	San Lucas Tolimán	10	San Lucas Tolimán	10	Octubre	2023-10-18T00:00:00	2024-11-08T11:00:00	3	Temperatura mínima	23.8
153996	7	Sololá	713	San Lucas Tolimán	10	San Lucas Tolimán	10	Octubre	2023-10-18T00:00:00	2024-11-08T11:00:00	5	Humedad	74
153997	7	Sololá	713	San Lucas Tolimán	10	San Lucas Tolimán	10	Octubre	2023-10-18T00:00:00	2024-11-08T11:00:00	6	Velocidad del viento	6.4
153998	7	Sololá	713	San Lucas Tolimán	10	San Lucas Tolimán	10	Octubre	2023-10-18T00:00:00	2024-11-08T11:00:00	7	Dirección del viento	6.44
153999	7	Sololá	713	San Lucas Tolimán	10	San Lucas Tolimán	10	Octubre	2023-10-18T00:00:00	2024-11-08T11:00:00	1	Precipitación	0
154000	7	Sololá	713	San Lucas Tolimán	10	San Lucas Tolimán	10	Octubre	2023-10-18T00:00:00	2024-11-08T11:00:00	8	Radiación solar	518
154001	7	Sololá	713	San Lucas Tolimán	10	San Lucas Tolimán	10	Octubre	2023-10-18T00:00:00	2024-11-08T12:00:00	2	Temperatura media	24.3
154002	7	Sololá	713	San Lucas Tolimán	10	San Lucas Tolimán	10	Octubre	2023-10-18T00:00:00	2024-11-08T12:00:00	4	Temperatura máxima	26.8
154003	7	Sololá	713	San Lucas Tolimán	10	San Lucas Tolimán	10	Octubre	2023-10-18T00:00:00	2024-11-08T12:00:00	3	Temperatura mínima	24.2
154004	7	Sololá	713	San Lucas Tolimán	10	San Lucas Tolimán	10	Octubre	2023-10-18T00:00:00	2024-11-08T12:00:00	5	Humedad	76
154005	7	Sololá	713	San Lucas Tolimán	10	San Lucas Tolimán	10	Octubre	2023-10-18T00:00:00	2024-11-08T12:00:00	6	Velocidad del viento	6.4
154006	7	Sololá	713	San Lucas Tolimán	10	San Lucas Tolimán	10	Octubre	2023-10-18T00:00:00	2024-11-08T12:00:00	7	Dirección del viento	6.44
154007	7	Sololá	713	San Lucas Tolimán	10	San Lucas Tolimán	10	Octubre	2023-10-18T00:00:00	2024-11-08T12:00:00	1	Precipitación	0
154008	7	Sololá	713	San Lucas Tolimán	10	San Lucas Tolimán	10	Octubre	2023-10-18T00:00:00	2024-11-08T12:00:00	8	Radiación solar	890
154009	7	Sololá	713	San Lucas Tolimán	10	San Lucas Tolimán	10	Octubre	2023-10-18T00:00:00	2024-11-08T13:00:00	2	Temperatura media	22.3
154010	7	Sololá	713	San Lucas Tolimán	10	San Lucas Tolimán	10	Octubre	2023-10-18T00:00:00	2024-11-08T13:00:00	4	Temperatura máxima	24.2
154011	7	Sololá	713	San Lucas Tolimán	10	San Lucas Tolimán	10	Octubre	2023-10-18T00:00:00	2024-11-08T13:00:00	3	Temperatura mínima	22.3
154012	7	Sololá	713	San Lucas Tolimán	10	San Lucas Tolimán	10	Octubre	2023-10-18T00:00:00	2024-11-08T13:00:00	5	Humedad	83
154013	7	Sololá	713	San Lucas Tolimán	10	San Lucas Tolimán	10	Octubre	2023-10-18T00:00:00	2024-11-08T13:00:00	6	Velocidad del viento	8
154014	7	Sololá	713	San Lucas Tolimán	10	San Lucas Tolimán	10	Octubre	2023-10-18T00:00:00	2024-11-08T13:00:00	7	Dirección del viento	8.05
154015	7	Sololá	713	San Lucas Tolimán	10	San Lucas Tolimán	10	Octubre	2023-10-18T00:00:00	2024-11-08T13:00:00	1	Precipitación	0
154016	7	Sololá	713	San Lucas Tolimán	10	San Lucas Tolimán	10	Octubre	2023-10-18T00:00:00	2024-11-08T13:00:00	8	Radiación solar	615
154017	7	Sololá	713	San Lucas Tolimán	10	San Lucas Tolimán	10	Octubre	2023-10-18T00:00:00	2024-11-08T14:00:00	2	Temperatura media	20.7
154018	7	Sololá	713	San Lucas Tolimán	10	San Lucas Tolimán	10	Octubre	2023-10-18T00:00:00	2024-11-08T14:00:00	4	Temperatura máxima	22.3
154019	7	Sololá	713	San Lucas Tolimán	10	San Lucas Tolimán	10	Octubre	2023-10-18T00:00:00	2024-11-08T14:00:00	3	Temperatura mínima	20.7
154020	7	Sololá	713	San Lucas Tolimán	10	San Lucas Tolimán	10	Octubre	2023-10-18T00:00:00	2024-11-08T14:00:00	5	Humedad	88
154021	7	Sololá	713	San Lucas Tolimán	10	San Lucas Tolimán	10	Octubre	2023-10-18T00:00:00	2024-11-08T14:00:00	6	Velocidad del viento	6.4
154022	7	Sololá	713	San Lucas Tolimán	10	San Lucas Tolimán	10	Octubre	2023-10-18T00:00:00	2024-11-08T14:00:00	7	Dirección del viento	6.44
154023	7	Sololá	713	San Lucas Tolimán	10	San Lucas Tolimán	10	Octubre	2023-10-18T00:00:00	2024-11-08T14:00:00	1	Precipitación	0
154024	7	Sololá	713	San Lucas Tolimán	10	San Lucas Tolimán	10	Octubre	2023-10-18T00:00:00	2024-11-08T14:00:00	8	Radiación solar	334
154025	7	Sololá	713	San Lucas Tolimán	10	San Lucas Tolimán	10	Octubre	2023-10-18T00:00:00	2024-11-08T15:00:00	2	Temperatura media	21.9
154026	7	Sololá	713	San Lucas Tolimán	10	San Lucas Tolimán	10	Octubre	2023-10-18T00:00:00	2024-11-08T15:00:00	4	Temperatura máxima	22.1
154027	7	Sololá	713	San Lucas Tolimán	10	San Lucas Tolimán	10	Octubre	2023-10-18T00:00:00	2024-11-08T15:00:00	3	Temperatura mínima	20.7
154028	7	Sololá	713	San Lucas Tolimán	10	San Lucas Tolimán	10	Octubre	2023-10-18T00:00:00	2024-11-08T15:00:00	5	Humedad	79
154029	7	Sololá	713	San Lucas Tolimán	10	San Lucas Tolimán	10	Octubre	2023-10-18T00:00:00	2024-11-08T15:00:00	6	Velocidad del viento	4.8
154030	7	Sololá	713	San Lucas Tolimán	10	San Lucas Tolimán	10	Octubre	2023-10-18T00:00:00	2024-11-08T15:00:00	7	Dirección del viento	4.83
154031	7	Sololá	713	San Lucas Tolimán	10	San Lucas Tolimán	10	Octubre	2023-10-18T00:00:00	2024-11-08T15:00:00	1	Precipitación	0
154032	7	Sololá	713	San Lucas Tolimán	10	San Lucas Tolimán	10	Octubre	2023-10-18T00:00:00	2024-11-08T15:00:00	8	Radiación solar	380
154033	7	Sololá	713	San Lucas Tolimán	10	San Lucas Tolimán	10	Octubre	2023-10-18T00:00:00	2024-11-08T16:00:00	2	Temperatura media	22
154034	7	Sololá	713	San Lucas Tolimán	10	San Lucas Tolimán	10	Octubre	2023-10-18T00:00:00	2024-11-08T16:00:00	4	Temperatura máxima	22.3
154035	7	Sololá	713	San Lucas Tolimán	10	San Lucas Tolimán	10	Octubre	2023-10-18T00:00:00	2024-11-08T16:00:00	3	Temperatura mínima	21.4
154036	7	Sololá	713	San Lucas Tolimán	10	San Lucas Tolimán	10	Octubre	2023-10-18T00:00:00	2024-11-08T16:00:00	5	Humedad	84
154037	7	Sololá	713	San Lucas Tolimán	10	San Lucas Tolimán	10	Octubre	2023-10-18T00:00:00	2024-11-08T16:00:00	6	Velocidad del viento	4.8
154038	7	Sololá	713	San Lucas Tolimán	10	San Lucas Tolimán	10	Octubre	2023-10-18T00:00:00	2024-11-08T16:00:00	7	Dirección del viento	4.83
154039	7	Sololá	713	San Lucas Tolimán	10	San Lucas Tolimán	10	Octubre	2023-10-18T00:00:00	2024-11-08T16:00:00	1	Precipitación	0
154040	7	Sololá	713	San Lucas Tolimán	10	San Lucas Tolimán	10	Octubre	2023-10-18T00:00:00	2024-11-08T16:00:00	8	Radiación solar	72
154041	7	Sololá	713	San Lucas Tolimán	10	San Lucas Tolimán	10	Octubre	2023-10-18T00:00:00	2024-11-08T17:00:00	2	Temperatura media	20.9
154042	7	Sololá	713	San Lucas Tolimán	10	San Lucas Tolimán	10	Octubre	2023-10-18T00:00:00	2024-11-08T17:00:00	4	Temperatura máxima	22
154043	7	Sololá	713	San Lucas Tolimán	10	San Lucas Tolimán	10	Octubre	2023-10-18T00:00:00	2024-11-08T17:00:00	3	Temperatura mínima	20.9
154044	7	Sololá	713	San Lucas Tolimán	10	San Lucas Tolimán	10	Octubre	2023-10-18T00:00:00	2024-11-08T17:00:00	5	Humedad	86
154045	7	Sololá	713	San Lucas Tolimán	10	San Lucas Tolimán	10	Octubre	2023-10-18T00:00:00	2024-11-08T17:00:00	6	Velocidad del viento	3.2
154046	7	Sololá	713	San Lucas Tolimán	10	San Lucas Tolimán	10	Octubre	2023-10-18T00:00:00	2024-11-08T17:00:00	7	Dirección del viento	3.22
154047	7	Sololá	713	San Lucas Tolimán	10	San Lucas Tolimán	10	Octubre	2023-10-18T00:00:00	2024-11-08T17:00:00	1	Precipitación	0
154048	7	Sololá	713	San Lucas Tolimán	10	San Lucas Tolimán	10	Octubre	2023-10-18T00:00:00	2024-11-08T17:00:00	8	Radiación solar	33
154049	7	Sololá	713	San Lucas Tolimán	10	San Lucas Tolimán	10	Octubre	2023-10-18T00:00:00	2024-11-08T18:00:00	2	Temperatura media	19.8
154050	7	Sololá	713	San Lucas Tolimán	10	San Lucas Tolimán	10	Octubre	2023-10-18T00:00:00	2024-11-08T18:00:00	4	Temperatura máxima	20.9
154051	7	Sololá	713	San Lucas Tolimán	10	San Lucas Tolimán	10	Octubre	2023-10-18T00:00:00	2024-11-08T18:00:00	3	Temperatura mínima	19.7
154052	7	Sololá	713	San Lucas Tolimán	10	San Lucas Tolimán	10	Octubre	2023-10-18T00:00:00	2024-11-08T18:00:00	5	Humedad	88
154053	7	Sololá	713	San Lucas Tolimán	10	San Lucas Tolimán	10	Octubre	2023-10-18T00:00:00	2024-11-08T18:00:00	6	Velocidad del viento	3.2
154054	7	Sololá	713	San Lucas Tolimán	10	San Lucas Tolimán	10	Octubre	2023-10-18T00:00:00	2024-11-08T18:00:00	7	Dirección del viento	3.22
154055	7	Sololá	713	San Lucas Tolimán	10	San Lucas Tolimán	10	Octubre	2023-10-18T00:00:00	2024-11-08T18:00:00	1	Precipitación	0
154056	7	Sololá	713	San Lucas Tolimán	10	San Lucas Tolimán	10	Octubre	2023-10-18T00:00:00	2024-11-08T18:00:00	8	Radiación solar	6
154057	7	Sololá	713	San Lucas Tolimán	10	San Lucas Tolimán	10	Octubre	2023-10-18T00:00:00	2024-11-08T19:00:00	2	Temperatura media	18.9
154058	7	Sololá	713	San Lucas Tolimán	10	San Lucas Tolimán	10	Octubre	2023-10-18T00:00:00	2024-11-08T19:00:00	4	Temperatura máxima	19.8
154059	7	Sololá	713	San Lucas Tolimán	10	San Lucas Tolimán	10	Octubre	2023-10-18T00:00:00	2024-11-08T19:00:00	3	Temperatura mínima	18.9
154060	7	Sololá	713	San Lucas Tolimán	10	San Lucas Tolimán	10	Octubre	2023-10-18T00:00:00	2024-11-08T19:00:00	5	Humedad	86
154061	7	Sololá	713	San Lucas Tolimán	10	San Lucas Tolimán	10	Octubre	2023-10-18T00:00:00	2024-11-08T19:00:00	6	Velocidad del viento	1.6
154062	7	Sololá	713	San Lucas Tolimán	10	San Lucas Tolimán	10	Octubre	2023-10-18T00:00:00	2024-11-08T19:00:00	7	Dirección del viento	1.61
154063	7	Sololá	713	San Lucas Tolimán	10	San Lucas Tolimán	10	Octubre	2023-10-18T00:00:00	2024-11-08T19:00:00	1	Precipitación	0
154064	7	Sololá	713	San Lucas Tolimán	10	San Lucas Tolimán	10	Octubre	2023-10-18T00:00:00	2024-11-08T19:00:00	8	Radiación solar	0
154065	7	Sololá	713	San Lucas Tolimán	10	San Lucas Tolimán	10	Octubre	2023-10-18T00:00:00	2024-11-08T20:00:00	2	Temperatura media	20.6
154066	7	Sololá	713	San Lucas Tolimán	10	San Lucas Tolimán	10	Octubre	2023-10-18T00:00:00	2024-11-08T20:00:00	4	Temperatura máxima	20.6
154067	7	Sololá	713	San Lucas Tolimán	10	San Lucas Tolimán	10	Octubre	2023-10-18T00:00:00	2024-11-08T20:00:00	3	Temperatura mínima	18.9
154068	7	Sololá	713	San Lucas Tolimán	10	San Lucas Tolimán	10	Octubre	2023-10-18T00:00:00	2024-11-08T20:00:00	5	Humedad	73
154069	7	Sololá	713	San Lucas Tolimán	10	San Lucas Tolimán	10	Octubre	2023-10-18T00:00:00	2024-11-08T20:00:00	6	Velocidad del viento	3.2
154070	7	Sololá	713	San Lucas Tolimán	10	San Lucas Tolimán	10	Octubre	2023-10-18T00:00:00	2024-11-08T20:00:00	7	Dirección del viento	3.22
154071	7	Sololá	713	San Lucas Tolimán	10	San Lucas Tolimán	10	Octubre	2023-10-18T00:00:00	2024-11-08T20:00:00	1	Precipitación	0
154072	7	Sololá	713	San Lucas Tolimán	10	San Lucas Tolimán	10	Octubre	2023-10-18T00:00:00	2024-11-08T20:00:00	8	Radiación solar	0
154073	7	Sololá	713	San Lucas Tolimán	10	San Lucas Tolimán	10	Octubre	2023-10-18T00:00:00	2024-11-08T21:00:00	2	Temperatura media	19.8
154074	7	Sololá	713	San Lucas Tolimán	10	San Lucas Tolimán	10	Octubre	2023-10-18T00:00:00	2024-11-08T21:00:00	4	Temperatura máxima	20.7
154075	7	Sololá	713	San Lucas Tolimán	10	San Lucas Tolimán	10	Octubre	2023-10-18T00:00:00	2024-11-08T21:00:00	3	Temperatura mínima	19.8
154076	7	Sololá	713	San Lucas Tolimán	10	San Lucas Tolimán	10	Octubre	2023-10-18T00:00:00	2024-11-08T21:00:00	5	Humedad	76
154077	7	Sololá	713	San Lucas Tolimán	10	San Lucas Tolimán	10	Octubre	2023-10-18T00:00:00	2024-11-08T21:00:00	6	Velocidad del viento	3.2
154078	7	Sololá	713	San Lucas Tolimán	10	San Lucas Tolimán	10	Octubre	2023-10-18T00:00:00	2024-11-08T21:00:00	7	Dirección del viento	3.22
154079	7	Sololá	713	San Lucas Tolimán	10	San Lucas Tolimán	10	Octubre	2023-10-18T00:00:00	2024-11-08T21:00:00	1	Precipitación	0
154080	7	Sololá	713	San Lucas Tolimán	10	San Lucas Tolimán	10	Octubre	2023-10-18T00:00:00	2024-11-08T21:00:00	8	Radiación solar	0
154081	7	Sololá	713	San Lucas Tolimán	10	San Lucas Tolimán	10	Octubre	2023-10-18T00:00:00	2024-11-08T22:00:00	2	Temperatura media	18.6
154082	7	Sololá	713	San Lucas Tolimán	10	San Lucas Tolimán	10	Octubre	2023-10-18T00:00:00	2024-11-08T22:00:00	4	Temperatura máxima	19.8
154083	7	Sololá	713	San Lucas Tolimán	10	San Lucas Tolimán	10	Octubre	2023-10-18T00:00:00	2024-11-08T22:00:00	3	Temperatura mínima	18.5
154084	7	Sololá	713	San Lucas Tolimán	10	San Lucas Tolimán	10	Octubre	2023-10-18T00:00:00	2024-11-08T22:00:00	5	Humedad	79
154085	7	Sololá	713	San Lucas Tolimán	10	San Lucas Tolimán	10	Octubre	2023-10-18T00:00:00	2024-11-08T22:00:00	6	Velocidad del viento	1.6
154086	7	Sololá	713	San Lucas Tolimán	10	San Lucas Tolimán	10	Octubre	2023-10-18T00:00:00	2024-11-08T22:00:00	7	Dirección del viento	1.61
154087	7	Sololá	713	San Lucas Tolimán	10	San Lucas Tolimán	10	Octubre	2023-10-18T00:00:00	2024-11-08T22:00:00	1	Precipitación	0
154088	7	Sololá	713	San Lucas Tolimán	10	San Lucas Tolimán	10	Octubre	2023-10-18T00:00:00	2024-11-08T22:00:00	8	Radiación solar	0
154089	7	Sololá	713	San Lucas Tolimán	10	San Lucas Tolimán	10	Octubre	2023-10-18T00:00:00	2024-11-08T23:00:00	2	Temperatura media	17.9
154090	7	Sololá	713	San Lucas Tolimán	10	San Lucas Tolimán	10	Octubre	2023-10-18T00:00:00	2024-11-08T23:00:00	4	Temperatura máxima	18.6
154091	7	Sololá	713	San Lucas Tolimán	10	San Lucas Tolimán	10	Octubre	2023-10-18T00:00:00	2024-11-08T23:00:00	3	Temperatura mínima	17.7
154092	7	Sololá	713	San Lucas Tolimán	10	San Lucas Tolimán	10	Octubre	2023-10-18T00:00:00	2024-11-08T23:00:00	5	Humedad	82
154093	7	Sololá	713	San Lucas Tolimán	10	San Lucas Tolimán	10	Octubre	2023-10-18T00:00:00	2024-11-08T23:00:00	6	Velocidad del viento	1.6
154094	7	Sololá	713	San Lucas Tolimán	10	San Lucas Tolimán	10	Octubre	2023-10-18T00:00:00	2024-11-08T23:00:00	7	Dirección del viento	1.61
154095	7	Sololá	713	San Lucas Tolimán	10	San Lucas Tolimán	10	Octubre	2023-10-18T00:00:00	2024-11-08T23:00:00	1	Precipitación	0
154096	7	Sololá	713	San Lucas Tolimán	10	San Lucas Tolimán	10	Octubre	2023-10-18T00:00:00	2024-11-08T23:00:00	8	Radiación solar	0
154097	7	Sololá	713	San Lucas Tolimán	10	San Lucas Tolimán	10	Octubre	2023-10-19T00:00:00	2024-11-08T00:00:00	2	Temperatura media	17.9
154098	7	Sololá	713	San Lucas Tolimán	10	San Lucas Tolimán	10	Octubre	2023-10-19T00:00:00	2024-11-08T00:00:00	4	Temperatura máxima	18.4
154099	7	Sololá	713	San Lucas Tolimán	10	San Lucas Tolimán	10	Octubre	2023-10-19T00:00:00	2024-11-08T00:00:00	3	Temperatura mínima	17.9
154100	7	Sololá	713	San Lucas Tolimán	10	San Lucas Tolimán	10	Octubre	2023-10-19T00:00:00	2024-11-08T00:00:00	5	Humedad	81
154101	7	Sololá	713	San Lucas Tolimán	10	San Lucas Tolimán	10	Octubre	2023-10-19T00:00:00	2024-11-08T00:00:00	6	Velocidad del viento	1.6
154102	7	Sololá	713	San Lucas Tolimán	10	San Lucas Tolimán	10	Octubre	2023-10-19T00:00:00	2024-11-08T00:00:00	7	Dirección del viento	1.61
154103	7	Sololá	713	San Lucas Tolimán	10	San Lucas Tolimán	10	Octubre	2023-10-19T00:00:00	2024-11-08T00:00:00	1	Precipitación	0
154104	7	Sololá	713	San Lucas Tolimán	10	San Lucas Tolimán	10	Octubre	2023-10-19T00:00:00	2024-11-08T00:00:00	8	Radiación solar	0
154105	7	Sololá	713	San Lucas Tolimán	10	San Lucas Tolimán	10	Octubre	2023-10-19T00:00:00	2024-11-08T01:00:00	2	Temperatura media	17.9
154106	7	Sololá	713	San Lucas Tolimán	10	San Lucas Tolimán	10	Octubre	2023-10-19T00:00:00	2024-11-08T01:00:00	4	Temperatura máxima	18.1
154107	7	Sololá	713	San Lucas Tolimán	10	San Lucas Tolimán	10	Octubre	2023-10-19T00:00:00	2024-11-08T01:00:00	3	Temperatura mínima	17.8
154108	7	Sololá	713	San Lucas Tolimán	10	San Lucas Tolimán	10	Octubre	2023-10-19T00:00:00	2024-11-08T01:00:00	5	Humedad	81
154109	7	Sololá	713	San Lucas Tolimán	10	San Lucas Tolimán	10	Octubre	2023-10-19T00:00:00	2024-11-08T01:00:00	6	Velocidad del viento	1.6
154110	7	Sololá	713	San Lucas Tolimán	10	San Lucas Tolimán	10	Octubre	2023-10-19T00:00:00	2024-11-08T01:00:00	7	Dirección del viento	1.61
154111	7	Sololá	713	San Lucas Tolimán	10	San Lucas Tolimán	10	Octubre	2023-10-19T00:00:00	2024-11-08T01:00:00	1	Precipitación	0
154112	7	Sololá	713	San Lucas Tolimán	10	San Lucas Tolimán	10	Octubre	2023-10-19T00:00:00	2024-11-08T01:00:00	8	Radiación solar	0
154113	7	Sololá	713	San Lucas Tolimán	10	San Lucas Tolimán	10	Octubre	2023-10-19T00:00:00	2024-11-08T02:00:00	2	Temperatura media	17.7
154114	7	Sololá	713	San Lucas Tolimán	10	San Lucas Tolimán	10	Octubre	2023-10-19T00:00:00	2024-11-08T02:00:00	4	Temperatura máxima	18
154115	7	Sololá	713	San Lucas Tolimán	10	San Lucas Tolimán	10	Octubre	2023-10-19T00:00:00	2024-11-08T02:00:00	3	Temperatura mínima	17.6
154116	7	Sololá	713	San Lucas Tolimán	10	San Lucas Tolimán	10	Octubre	2023-10-19T00:00:00	2024-11-08T02:00:00	5	Humedad	82
154117	7	Sololá	713	San Lucas Tolimán	10	San Lucas Tolimán	10	Octubre	2023-10-19T00:00:00	2024-11-08T02:00:00	6	Velocidad del viento	3.2
154118	7	Sololá	713	San Lucas Tolimán	10	San Lucas Tolimán	10	Octubre	2023-10-19T00:00:00	2024-11-08T02:00:00	7	Dirección del viento	3.22
154119	7	Sololá	713	San Lucas Tolimán	10	San Lucas Tolimán	10	Octubre	2023-10-19T00:00:00	2024-11-08T02:00:00	1	Precipitación	0
154120	7	Sololá	713	San Lucas Tolimán	10	San Lucas Tolimán	10	Octubre	2023-10-19T00:00:00	2024-11-08T02:00:00	8	Radiación solar	0
154121	7	Sololá	713	San Lucas Tolimán	10	San Lucas Tolimán	10	Octubre	2023-10-19T00:00:00	2024-11-08T03:00:00	2	Temperatura media	17.1
154122	7	Sololá	713	San Lucas Tolimán	10	San Lucas Tolimán	10	Octubre	2023-10-19T00:00:00	2024-11-08T03:00:00	4	Temperatura máxima	18.1
154123	7	Sololá	713	San Lucas Tolimán	10	San Lucas Tolimán	10	Octubre	2023-10-19T00:00:00	2024-11-08T03:00:00	3	Temperatura mínima	17.1
154124	7	Sololá	713	San Lucas Tolimán	10	San Lucas Tolimán	10	Octubre	2023-10-19T00:00:00	2024-11-08T03:00:00	5	Humedad	85
154125	7	Sololá	713	San Lucas Tolimán	10	San Lucas Tolimán	10	Octubre	2023-10-19T00:00:00	2024-11-08T03:00:00	6	Velocidad del viento	1.6
154126	7	Sololá	713	San Lucas Tolimán	10	San Lucas Tolimán	10	Octubre	2023-10-19T00:00:00	2024-11-08T03:00:00	7	Dirección del viento	1.61
154127	7	Sololá	713	San Lucas Tolimán	10	San Lucas Tolimán	10	Octubre	2023-10-19T00:00:00	2024-11-08T03:00:00	1	Precipitación	0
154128	7	Sololá	713	San Lucas Tolimán	10	San Lucas Tolimán	10	Octubre	2023-10-19T00:00:00	2024-11-08T03:00:00	8	Radiación solar	0
154129	7	Sololá	713	San Lucas Tolimán	10	San Lucas Tolimán	10	Octubre	2023-10-19T00:00:00	2024-11-08T04:00:00	2	Temperatura media	16.7
154130	7	Sololá	713	San Lucas Tolimán	10	San Lucas Tolimán	10	Octubre	2023-10-19T00:00:00	2024-11-08T04:00:00	4	Temperatura máxima	17.2
154131	7	Sololá	713	San Lucas Tolimán	10	San Lucas Tolimán	10	Octubre	2023-10-19T00:00:00	2024-11-08T04:00:00	3	Temperatura mínima	16.7
154132	7	Sololá	713	San Lucas Tolimán	10	San Lucas Tolimán	10	Octubre	2023-10-19T00:00:00	2024-11-08T04:00:00	5	Humedad	85
154133	7	Sololá	713	San Lucas Tolimán	10	San Lucas Tolimán	10	Octubre	2023-10-19T00:00:00	2024-11-08T04:00:00	6	Velocidad del viento	1.6
154134	7	Sololá	713	San Lucas Tolimán	10	San Lucas Tolimán	10	Octubre	2023-10-19T00:00:00	2024-11-08T04:00:00	7	Dirección del viento	1.61
154135	7	Sololá	713	San Lucas Tolimán	10	San Lucas Tolimán	10	Octubre	2023-10-19T00:00:00	2024-11-08T04:00:00	1	Precipitación	0
154136	7	Sololá	713	San Lucas Tolimán	10	San Lucas Tolimán	10	Octubre	2023-10-19T00:00:00	2024-11-08T04:00:00	8	Radiación solar	0
154137	7	Sololá	713	San Lucas Tolimán	10	San Lucas Tolimán	10	Octubre	2023-10-19T00:00:00	2024-11-08T05:00:00	2	Temperatura media	16.6
154138	7	Sololá	713	San Lucas Tolimán	10	San Lucas Tolimán	10	Octubre	2023-10-19T00:00:00	2024-11-08T05:00:00	4	Temperatura máxima	17.3
154139	7	Sololá	713	San Lucas Tolimán	10	San Lucas Tolimán	10	Octubre	2023-10-19T00:00:00	2024-11-08T05:00:00	3	Temperatura mínima	16.5
154140	7	Sololá	713	San Lucas Tolimán	10	San Lucas Tolimán	10	Octubre	2023-10-19T00:00:00	2024-11-08T05:00:00	5	Humedad	88
154141	7	Sololá	713	San Lucas Tolimán	10	San Lucas Tolimán	10	Octubre	2023-10-19T00:00:00	2024-11-08T05:00:00	6	Velocidad del viento	0
154142	7	Sololá	713	San Lucas Tolimán	10	San Lucas Tolimán	10	Octubre	2023-10-19T00:00:00	2024-11-08T05:00:00	7	Dirección del viento	0
154143	7	Sololá	713	San Lucas Tolimán	10	San Lucas Tolimán	10	Octubre	2023-10-19T00:00:00	2024-11-08T05:00:00	1	Precipitación	0
154144	7	Sololá	713	San Lucas Tolimán	10	San Lucas Tolimán	10	Octubre	2023-10-19T00:00:00	2024-11-08T05:00:00	8	Radiación solar	0
154145	7	Sololá	713	San Lucas Tolimán	10	San Lucas Tolimán	10	Octubre	2023-10-19T00:00:00	2024-11-08T06:00:00	2	Temperatura media	16.3
154146	7	Sololá	713	San Lucas Tolimán	10	San Lucas Tolimán	10	Octubre	2023-10-19T00:00:00	2024-11-08T06:00:00	4	Temperatura máxima	16.5
154147	7	Sololá	713	San Lucas Tolimán	10	San Lucas Tolimán	10	Octubre	2023-10-19T00:00:00	2024-11-08T06:00:00	3	Temperatura mínima	15.9
154148	7	Sololá	713	San Lucas Tolimán	10	San Lucas Tolimán	10	Octubre	2023-10-19T00:00:00	2024-11-08T06:00:00	5	Humedad	88
154149	7	Sololá	713	San Lucas Tolimán	10	San Lucas Tolimán	10	Octubre	2023-10-19T00:00:00	2024-11-08T06:00:00	6	Velocidad del viento	0
154150	7	Sololá	713	San Lucas Tolimán	10	San Lucas Tolimán	10	Octubre	2023-10-19T00:00:00	2024-11-08T06:00:00	7	Dirección del viento	0
154151	7	Sololá	713	San Lucas Tolimán	10	San Lucas Tolimán	10	Octubre	2023-10-19T00:00:00	2024-11-08T06:00:00	1	Precipitación	0
154152	7	Sololá	713	San Lucas Tolimán	10	San Lucas Tolimán	10	Octubre	2023-10-19T00:00:00	2024-11-08T06:00:00	8	Radiación solar	0
154153	7	Sololá	713	San Lucas Tolimán	10	San Lucas Tolimán	10	Octubre	2023-10-19T00:00:00	2024-11-08T07:00:00	2	Temperatura media	16.6
154154	7	Sololá	713	San Lucas Tolimán	10	San Lucas Tolimán	10	Octubre	2023-10-19T00:00:00	2024-11-08T07:00:00	4	Temperatura máxima	16.7
154155	7	Sololá	713	San Lucas Tolimán	10	San Lucas Tolimán	10	Octubre	2023-10-19T00:00:00	2024-11-08T07:00:00	3	Temperatura mínima	16.3
154156	7	Sololá	713	San Lucas Tolimán	10	San Lucas Tolimán	10	Octubre	2023-10-19T00:00:00	2024-11-08T07:00:00	5	Humedad	88
154157	7	Sololá	713	San Lucas Tolimán	10	San Lucas Tolimán	10	Octubre	2023-10-19T00:00:00	2024-11-08T07:00:00	6	Velocidad del viento	0
154158	7	Sololá	713	San Lucas Tolimán	10	San Lucas Tolimán	10	Octubre	2023-10-19T00:00:00	2024-11-08T07:00:00	7	Dirección del viento	0
154159	7	Sololá	713	San Lucas Tolimán	10	San Lucas Tolimán	10	Octubre	2023-10-19T00:00:00	2024-11-08T07:00:00	1	Precipitación	0
154160	7	Sololá	713	San Lucas Tolimán	10	San Lucas Tolimán	10	Octubre	2023-10-19T00:00:00	2024-11-08T07:00:00	8	Radiación solar	44
154161	7	Sololá	713	San Lucas Tolimán	10	San Lucas Tolimán	10	Octubre	2023-10-19T00:00:00	2024-11-08T08:00:00	2	Temperatura media	19.8
154162	7	Sololá	713	San Lucas Tolimán	10	San Lucas Tolimán	10	Octubre	2023-10-19T00:00:00	2024-11-08T08:00:00	4	Temperatura máxima	19.8
154163	7	Sololá	713	San Lucas Tolimán	10	San Lucas Tolimán	10	Octubre	2023-10-19T00:00:00	2024-11-08T08:00:00	3	Temperatura mínima	16.6
154164	7	Sololá	713	San Lucas Tolimán	10	San Lucas Tolimán	10	Octubre	2023-10-19T00:00:00	2024-11-08T08:00:00	5	Humedad	79
154165	7	Sololá	713	San Lucas Tolimán	10	San Lucas Tolimán	10	Octubre	2023-10-19T00:00:00	2024-11-08T08:00:00	6	Velocidad del viento	1.6
154166	7	Sololá	713	San Lucas Tolimán	10	San Lucas Tolimán	10	Octubre	2023-10-19T00:00:00	2024-11-08T08:00:00	7	Dirección del viento	1.61
154167	7	Sololá	713	San Lucas Tolimán	10	San Lucas Tolimán	10	Octubre	2023-10-19T00:00:00	2024-11-08T08:00:00	1	Precipitación	0
154168	7	Sololá	713	San Lucas Tolimán	10	San Lucas Tolimán	10	Octubre	2023-10-19T00:00:00	2024-11-08T08:00:00	8	Radiación solar	159
154169	7	Sololá	713	San Lucas Tolimán	10	San Lucas Tolimán	10	Octubre	2023-10-19T00:00:00	2024-11-08T09:00:00	2	Temperatura media	23.6
154170	7	Sololá	713	San Lucas Tolimán	10	San Lucas Tolimán	10	Octubre	2023-10-19T00:00:00	2024-11-08T09:00:00	4	Temperatura máxima	23.6
154171	7	Sololá	713	San Lucas Tolimán	10	San Lucas Tolimán	10	Octubre	2023-10-19T00:00:00	2024-11-08T09:00:00	3	Temperatura mínima	19.8
154172	7	Sololá	713	San Lucas Tolimán	10	San Lucas Tolimán	10	Octubre	2023-10-19T00:00:00	2024-11-08T09:00:00	5	Humedad	69
154173	7	Sololá	713	San Lucas Tolimán	10	San Lucas Tolimán	10	Octubre	2023-10-19T00:00:00	2024-11-08T09:00:00	6	Velocidad del viento	3.2
154174	7	Sololá	713	San Lucas Tolimán	10	San Lucas Tolimán	10	Octubre	2023-10-19T00:00:00	2024-11-08T09:00:00	7	Dirección del viento	3.22
154175	7	Sololá	713	San Lucas Tolimán	10	San Lucas Tolimán	10	Octubre	2023-10-19T00:00:00	2024-11-08T09:00:00	1	Precipitación	0
154176	7	Sololá	713	San Lucas Tolimán	10	San Lucas Tolimán	10	Octubre	2023-10-19T00:00:00	2024-11-08T09:00:00	8	Radiación solar	319
154177	7	Sololá	713	San Lucas Tolimán	10	San Lucas Tolimán	10	Octubre	2023-10-19T00:00:00	2024-11-08T10:00:00	2	Temperatura media	24.2
154178	7	Sololá	713	San Lucas Tolimán	10	San Lucas Tolimán	10	Octubre	2023-10-19T00:00:00	2024-11-08T10:00:00	4	Temperatura máxima	24.2
154179	7	Sololá	713	San Lucas Tolimán	10	San Lucas Tolimán	10	Octubre	2023-10-19T00:00:00	2024-11-08T10:00:00	3	Temperatura mínima	23.2
154180	7	Sololá	713	San Lucas Tolimán	10	San Lucas Tolimán	10	Octubre	2023-10-19T00:00:00	2024-11-08T10:00:00	5	Humedad	68
154181	7	Sololá	713	San Lucas Tolimán	10	San Lucas Tolimán	10	Octubre	2023-10-19T00:00:00	2024-11-08T10:00:00	6	Velocidad del viento	8
154182	7	Sololá	713	San Lucas Tolimán	10	San Lucas Tolimán	10	Octubre	2023-10-19T00:00:00	2024-11-08T10:00:00	7	Dirección del viento	8.05
154183	7	Sololá	713	San Lucas Tolimán	10	San Lucas Tolimán	10	Octubre	2023-10-19T00:00:00	2024-11-08T10:00:00	1	Precipitación	0
154184	7	Sololá	713	San Lucas Tolimán	10	San Lucas Tolimán	10	Octubre	2023-10-19T00:00:00	2024-11-08T10:00:00	8	Radiación solar	372
154185	7	Sololá	713	San Lucas Tolimán	10	San Lucas Tolimán	10	Octubre	2023-10-19T00:00:00	2024-11-08T11:00:00	2	Temperatura media	23.3
154186	7	Sololá	713	San Lucas Tolimán	10	San Lucas Tolimán	10	Octubre	2023-10-19T00:00:00	2024-11-08T11:00:00	4	Temperatura máxima	24.8
154187	7	Sololá	713	San Lucas Tolimán	10	San Lucas Tolimán	10	Octubre	2023-10-19T00:00:00	2024-11-08T11:00:00	3	Temperatura mínima	23.3
154188	7	Sololá	713	San Lucas Tolimán	10	San Lucas Tolimán	10	Octubre	2023-10-19T00:00:00	2024-11-08T11:00:00	5	Humedad	72
154189	7	Sololá	713	San Lucas Tolimán	10	San Lucas Tolimán	10	Octubre	2023-10-19T00:00:00	2024-11-08T11:00:00	6	Velocidad del viento	11.3
154190	7	Sololá	713	San Lucas Tolimán	10	San Lucas Tolimán	10	Octubre	2023-10-19T00:00:00	2024-11-08T11:00:00	7	Dirección del viento	11.27
154191	7	Sololá	713	San Lucas Tolimán	10	San Lucas Tolimán	10	Octubre	2023-10-19T00:00:00	2024-11-08T11:00:00	1	Precipitación	0
154192	7	Sololá	713	San Lucas Tolimán	10	San Lucas Tolimán	10	Octubre	2023-10-19T00:00:00	2024-11-08T11:00:00	8	Radiación solar	697
154193	7	Sololá	713	San Lucas Tolimán	10	San Lucas Tolimán	10	Octubre	2023-10-19T00:00:00	2024-11-08T12:00:00	2	Temperatura media	21.3
154194	7	Sololá	713	San Lucas Tolimán	10	San Lucas Tolimán	10	Octubre	2023-10-19T00:00:00	2024-11-08T12:00:00	4	Temperatura máxima	23.2
154195	7	Sololá	713	San Lucas Tolimán	10	San Lucas Tolimán	10	Octubre	2023-10-19T00:00:00	2024-11-08T12:00:00	3	Temperatura mínima	21.3
154196	7	Sololá	713	San Lucas Tolimán	10	San Lucas Tolimán	10	Octubre	2023-10-19T00:00:00	2024-11-08T12:00:00	5	Humedad	83
154197	7	Sololá	713	San Lucas Tolimán	10	San Lucas Tolimán	10	Octubre	2023-10-19T00:00:00	2024-11-08T12:00:00	6	Velocidad del viento	12.9
154198	7	Sololá	713	San Lucas Tolimán	10	San Lucas Tolimán	10	Octubre	2023-10-19T00:00:00	2024-11-08T12:00:00	7	Dirección del viento	12.87
154199	7	Sololá	713	San Lucas Tolimán	10	San Lucas Tolimán	10	Octubre	2023-10-19T00:00:00	2024-11-08T12:00:00	1	Precipitación	0
154200	7	Sololá	713	San Lucas Tolimán	10	San Lucas Tolimán	10	Octubre	2023-10-19T00:00:00	2024-11-08T12:00:00	8	Radiación solar	541
154201	7	Sololá	713	San Lucas Tolimán	10	San Lucas Tolimán	10	Octubre	2023-10-19T00:00:00	2024-11-08T13:00:00	2	Temperatura media	20.9
154202	7	Sololá	713	San Lucas Tolimán	10	San Lucas Tolimán	10	Octubre	2023-10-19T00:00:00	2024-11-08T13:00:00	4	Temperatura máxima	21.4
154203	7	Sololá	713	San Lucas Tolimán	10	San Lucas Tolimán	10	Octubre	2023-10-19T00:00:00	2024-11-08T13:00:00	3	Temperatura mínima	20.5
154204	7	Sololá	713	San Lucas Tolimán	10	San Lucas Tolimán	10	Octubre	2023-10-19T00:00:00	2024-11-08T13:00:00	5	Humedad	87
154205	7	Sololá	713	San Lucas Tolimán	10	San Lucas Tolimán	10	Octubre	2023-10-19T00:00:00	2024-11-08T13:00:00	6	Velocidad del viento	9.7
154206	7	Sololá	713	San Lucas Tolimán	10	San Lucas Tolimán	10	Octubre	2023-10-19T00:00:00	2024-11-08T13:00:00	7	Dirección del viento	9.66
154207	7	Sololá	713	San Lucas Tolimán	10	San Lucas Tolimán	10	Octubre	2023-10-19T00:00:00	2024-11-08T13:00:00	1	Precipitación	0
154208	7	Sololá	713	San Lucas Tolimán	10	San Lucas Tolimán	10	Octubre	2023-10-19T00:00:00	2024-11-08T13:00:00	8	Radiación solar	794
154209	7	Sololá	713	San Lucas Tolimán	10	San Lucas Tolimán	10	Octubre	2023-10-19T00:00:00	2024-11-08T14:00:00	2	Temperatura media	20.2
154210	7	Sololá	713	San Lucas Tolimán	10	San Lucas Tolimán	10	Octubre	2023-10-19T00:00:00	2024-11-08T14:00:00	4	Temperatura máxima	20.9
154211	7	Sololá	713	San Lucas Tolimán	10	San Lucas Tolimán	10	Octubre	2023-10-19T00:00:00	2024-11-08T14:00:00	3	Temperatura mínima	20.1
154212	7	Sololá	713	San Lucas Tolimán	10	San Lucas Tolimán	10	Octubre	2023-10-19T00:00:00	2024-11-08T14:00:00	5	Humedad	89
154213	7	Sololá	713	San Lucas Tolimán	10	San Lucas Tolimán	10	Octubre	2023-10-19T00:00:00	2024-11-08T14:00:00	6	Velocidad del viento	8
154214	7	Sololá	713	San Lucas Tolimán	10	San Lucas Tolimán	10	Octubre	2023-10-19T00:00:00	2024-11-08T14:00:00	7	Dirección del viento	8.05
154215	7	Sololá	713	San Lucas Tolimán	10	San Lucas Tolimán	10	Octubre	2023-10-19T00:00:00	2024-11-08T14:00:00	1	Precipitación	0
154216	7	Sololá	713	San Lucas Tolimán	10	San Lucas Tolimán	10	Octubre	2023-10-19T00:00:00	2024-11-08T14:00:00	8	Radiación solar	476
154217	7	Sololá	713	San Lucas Tolimán	10	San Lucas Tolimán	10	Octubre	2023-10-19T00:00:00	2024-11-08T15:00:00	2	Temperatura media	19.9
154218	7	Sololá	713	San Lucas Tolimán	10	San Lucas Tolimán	10	Octubre	2023-10-19T00:00:00	2024-11-08T15:00:00	4	Temperatura máxima	20.2
154219	7	Sololá	713	San Lucas Tolimán	10	San Lucas Tolimán	10	Octubre	2023-10-19T00:00:00	2024-11-08T15:00:00	3	Temperatura mínima	19.7
154220	7	Sololá	713	San Lucas Tolimán	10	San Lucas Tolimán	10	Octubre	2023-10-19T00:00:00	2024-11-08T15:00:00	5	Humedad	89
154221	7	Sololá	713	San Lucas Tolimán	10	San Lucas Tolimán	10	Octubre	2023-10-19T00:00:00	2024-11-08T15:00:00	6	Velocidad del viento	8
154222	7	Sololá	713	San Lucas Tolimán	10	San Lucas Tolimán	10	Octubre	2023-10-19T00:00:00	2024-11-08T15:00:00	7	Dirección del viento	8.05
154223	7	Sololá	713	San Lucas Tolimán	10	San Lucas Tolimán	10	Octubre	2023-10-19T00:00:00	2024-11-08T15:00:00	1	Precipitación	0
154224	7	Sololá	713	San Lucas Tolimán	10	San Lucas Tolimán	10	Octubre	2023-10-19T00:00:00	2024-11-08T15:00:00	8	Radiación solar	524
154225	7	Sololá	713	San Lucas Tolimán	10	San Lucas Tolimán	10	Octubre	2023-10-19T00:00:00	2024-11-08T16:00:00	2	Temperatura media	18.9
154226	7	Sololá	713	San Lucas Tolimán	10	San Lucas Tolimán	10	Octubre	2023-10-19T00:00:00	2024-11-08T16:00:00	4	Temperatura máxima	20
154227	7	Sololá	713	San Lucas Tolimán	10	San Lucas Tolimán	10	Octubre	2023-10-19T00:00:00	2024-11-08T16:00:00	3	Temperatura mínima	18.8
154228	7	Sololá	713	San Lucas Tolimán	10	San Lucas Tolimán	10	Octubre	2023-10-19T00:00:00	2024-11-08T16:00:00	5	Humedad	92
154229	7	Sololá	713	San Lucas Tolimán	10	San Lucas Tolimán	10	Octubre	2023-10-19T00:00:00	2024-11-08T16:00:00	6	Velocidad del viento	11.3
154230	7	Sololá	713	San Lucas Tolimán	10	San Lucas Tolimán	10	Octubre	2023-10-19T00:00:00	2024-11-08T16:00:00	7	Dirección del viento	11.27
154231	7	Sololá	713	San Lucas Tolimán	10	San Lucas Tolimán	10	Octubre	2023-10-19T00:00:00	2024-11-08T16:00:00	1	Precipitación	0
154232	7	Sololá	713	San Lucas Tolimán	10	San Lucas Tolimán	10	Octubre	2023-10-19T00:00:00	2024-11-08T16:00:00	8	Radiación solar	230
154233	7	Sololá	713	San Lucas Tolimán	10	San Lucas Tolimán	10	Octubre	2023-10-19T00:00:00	2024-11-08T17:00:00	2	Temperatura media	18.5
154234	7	Sololá	713	San Lucas Tolimán	10	San Lucas Tolimán	10	Octubre	2023-10-19T00:00:00	2024-11-08T17:00:00	4	Temperatura máxima	18.9
154235	7	Sololá	713	San Lucas Tolimán	10	San Lucas Tolimán	10	Octubre	2023-10-19T00:00:00	2024-11-08T17:00:00	3	Temperatura mínima	18.2
154236	7	Sololá	713	San Lucas Tolimán	10	San Lucas Tolimán	10	Octubre	2023-10-19T00:00:00	2024-11-08T17:00:00	5	Humedad	94
154237	7	Sololá	713	San Lucas Tolimán	10	San Lucas Tolimán	10	Octubre	2023-10-19T00:00:00	2024-11-08T17:00:00	6	Velocidad del viento	8
154238	7	Sololá	713	San Lucas Tolimán	10	San Lucas Tolimán	10	Octubre	2023-10-19T00:00:00	2024-11-08T17:00:00	7	Dirección del viento	8.05
154239	7	Sololá	713	San Lucas Tolimán	10	San Lucas Tolimán	10	Octubre	2023-10-19T00:00:00	2024-11-08T17:00:00	1	Precipitación	0
154240	7	Sololá	713	San Lucas Tolimán	10	San Lucas Tolimán	10	Octubre	2023-10-19T00:00:00	2024-11-08T17:00:00	8	Radiación solar	58
154241	7	Sololá	713	San Lucas Tolimán	10	San Lucas Tolimán	10	Octubre	2023-10-19T00:00:00	2024-11-08T18:00:00	2	Temperatura media	18.2
154242	7	Sololá	713	San Lucas Tolimán	10	San Lucas Tolimán	10	Octubre	2023-10-19T00:00:00	2024-11-08T18:00:00	4	Temperatura máxima	18.6
154243	7	Sololá	713	San Lucas Tolimán	10	San Lucas Tolimán	10	Octubre	2023-10-19T00:00:00	2024-11-08T18:00:00	3	Temperatura mínima	18.2
154244	7	Sololá	713	San Lucas Tolimán	10	San Lucas Tolimán	10	Octubre	2023-10-19T00:00:00	2024-11-08T18:00:00	5	Humedad	94
154245	7	Sololá	713	San Lucas Tolimán	10	San Lucas Tolimán	10	Octubre	2023-10-19T00:00:00	2024-11-08T18:00:00	6	Velocidad del viento	6.4
154246	7	Sololá	713	San Lucas Tolimán	10	San Lucas Tolimán	10	Octubre	2023-10-19T00:00:00	2024-11-08T18:00:00	7	Dirección del viento	6.44
154247	7	Sololá	713	San Lucas Tolimán	10	San Lucas Tolimán	10	Octubre	2023-10-19T00:00:00	2024-11-08T18:00:00	1	Precipitación	0
154248	7	Sololá	713	San Lucas Tolimán	10	San Lucas Tolimán	10	Octubre	2023-10-19T00:00:00	2024-11-08T18:00:00	8	Radiación solar	4
154249	7	Sololá	713	San Lucas Tolimán	10	San Lucas Tolimán	10	Octubre	2023-10-19T00:00:00	2024-11-08T19:00:00	2	Temperatura media	18.2
154250	7	Sololá	713	San Lucas Tolimán	10	San Lucas Tolimán	10	Octubre	2023-10-19T00:00:00	2024-11-08T19:00:00	4	Temperatura máxima	18.4
154251	7	Sololá	713	San Lucas Tolimán	10	San Lucas Tolimán	10	Octubre	2023-10-19T00:00:00	2024-11-08T19:00:00	3	Temperatura mínima	18.2
154252	7	Sololá	713	San Lucas Tolimán	10	San Lucas Tolimán	10	Octubre	2023-10-19T00:00:00	2024-11-08T19:00:00	5	Humedad	93
154253	7	Sololá	713	San Lucas Tolimán	10	San Lucas Tolimán	10	Octubre	2023-10-19T00:00:00	2024-11-08T19:00:00	6	Velocidad del viento	4.8
154254	7	Sololá	713	San Lucas Tolimán	10	San Lucas Tolimán	10	Octubre	2023-10-19T00:00:00	2024-11-08T19:00:00	7	Dirección del viento	4.83
154255	7	Sololá	713	San Lucas Tolimán	10	San Lucas Tolimán	10	Octubre	2023-10-19T00:00:00	2024-11-08T19:00:00	1	Precipitación	0
154256	7	Sololá	713	San Lucas Tolimán	10	San Lucas Tolimán	10	Octubre	2023-10-19T00:00:00	2024-11-08T19:00:00	8	Radiación solar	0
154257	7	Sololá	713	San Lucas Tolimán	10	San Lucas Tolimán	10	Octubre	2023-10-19T00:00:00	2024-11-08T20:00:00	2	Temperatura media	18.5
154258	7	Sololá	713	San Lucas Tolimán	10	San Lucas Tolimán	10	Octubre	2023-10-19T00:00:00	2024-11-08T20:00:00	4	Temperatura máxima	18.6
154259	7	Sololá	713	San Lucas Tolimán	10	San Lucas Tolimán	10	Octubre	2023-10-19T00:00:00	2024-11-08T20:00:00	3	Temperatura mínima	18.2
154260	7	Sololá	713	San Lucas Tolimán	10	San Lucas Tolimán	10	Octubre	2023-10-19T00:00:00	2024-11-08T20:00:00	5	Humedad	91
154261	7	Sololá	713	San Lucas Tolimán	10	San Lucas Tolimán	10	Octubre	2023-10-19T00:00:00	2024-11-08T20:00:00	6	Velocidad del viento	4.8
154262	7	Sololá	713	San Lucas Tolimán	10	San Lucas Tolimán	10	Octubre	2023-10-19T00:00:00	2024-11-08T20:00:00	7	Dirección del viento	4.83
154263	7	Sololá	713	San Lucas Tolimán	10	San Lucas Tolimán	10	Octubre	2023-10-19T00:00:00	2024-11-08T20:00:00	1	Precipitación	0
154264	7	Sololá	713	San Lucas Tolimán	10	San Lucas Tolimán	10	Octubre	2023-10-19T00:00:00	2024-11-08T20:00:00	8	Radiación solar	0
154265	7	Sololá	713	San Lucas Tolimán	10	San Lucas Tolimán	10	Octubre	2023-10-19T00:00:00	2024-11-08T21:00:00	2	Temperatura media	18.3
154266	7	Sololá	713	San Lucas Tolimán	10	San Lucas Tolimán	10	Octubre	2023-10-19T00:00:00	2024-11-08T21:00:00	4	Temperatura máxima	18.6
154267	7	Sololá	713	San Lucas Tolimán	10	San Lucas Tolimán	10	Octubre	2023-10-19T00:00:00	2024-11-08T21:00:00	3	Temperatura mínima	18.3
154268	7	Sololá	713	San Lucas Tolimán	10	San Lucas Tolimán	10	Octubre	2023-10-19T00:00:00	2024-11-08T21:00:00	5	Humedad	91
154269	7	Sololá	713	San Lucas Tolimán	10	San Lucas Tolimán	10	Octubre	2023-10-19T00:00:00	2024-11-08T21:00:00	6	Velocidad del viento	3.2
154270	7	Sololá	713	San Lucas Tolimán	10	San Lucas Tolimán	10	Octubre	2023-10-19T00:00:00	2024-11-08T21:00:00	7	Dirección del viento	3.22
154271	7	Sololá	713	San Lucas Tolimán	10	San Lucas Tolimán	10	Octubre	2023-10-19T00:00:00	2024-11-08T21:00:00	1	Precipitación	0
154272	7	Sololá	713	San Lucas Tolimán	10	San Lucas Tolimán	10	Octubre	2023-10-19T00:00:00	2024-11-08T21:00:00	8	Radiación solar	0
154273	7	Sololá	713	San Lucas Tolimán	10	San Lucas Tolimán	10	Octubre	2023-10-19T00:00:00	2024-11-08T22:00:00	2	Temperatura media	18.1
154274	7	Sololá	713	San Lucas Tolimán	10	San Lucas Tolimán	10	Octubre	2023-10-19T00:00:00	2024-11-08T22:00:00	4	Temperatura máxima	18.4
154275	7	Sololá	713	San Lucas Tolimán	10	San Lucas Tolimán	10	Octubre	2023-10-19T00:00:00	2024-11-08T22:00:00	3	Temperatura mínima	17.9
154276	7	Sololá	713	San Lucas Tolimán	10	San Lucas Tolimán	10	Octubre	2023-10-19T00:00:00	2024-11-08T22:00:00	5	Humedad	92
154277	7	Sololá	713	San Lucas Tolimán	10	San Lucas Tolimán	10	Octubre	2023-10-19T00:00:00	2024-11-08T22:00:00	6	Velocidad del viento	1.6
154278	7	Sololá	713	San Lucas Tolimán	10	San Lucas Tolimán	10	Octubre	2023-10-19T00:00:00	2024-11-08T22:00:00	7	Dirección del viento	1.61
154279	7	Sololá	713	San Lucas Tolimán	10	San Lucas Tolimán	10	Octubre	2023-10-19T00:00:00	2024-11-08T22:00:00	1	Precipitación	0.4
154280	7	Sololá	713	San Lucas Tolimán	10	San Lucas Tolimán	10	Octubre	2023-10-19T00:00:00	2024-11-08T22:00:00	8	Radiación solar	0
154281	7	Sololá	713	San Lucas Tolimán	10	San Lucas Tolimán	10	Octubre	2023-10-19T00:00:00	2024-11-08T23:00:00	2	Temperatura media	17.6
154282	7	Sololá	713	San Lucas Tolimán	10	San Lucas Tolimán	10	Octubre	2023-10-19T00:00:00	2024-11-08T23:00:00	4	Temperatura máxima	18.1
154283	7	Sololá	713	San Lucas Tolimán	10	San Lucas Tolimán	10	Octubre	2023-10-19T00:00:00	2024-11-08T23:00:00	3	Temperatura mínima	17.6
154284	7	Sololá	713	San Lucas Tolimán	10	San Lucas Tolimán	10	Octubre	2023-10-19T00:00:00	2024-11-08T23:00:00	5	Humedad	93
154285	7	Sololá	713	San Lucas Tolimán	10	San Lucas Tolimán	10	Octubre	2023-10-19T00:00:00	2024-11-08T23:00:00	6	Velocidad del viento	1.6
154286	7	Sololá	713	San Lucas Tolimán	10	San Lucas Tolimán	10	Octubre	2023-10-19T00:00:00	2024-11-08T23:00:00	7	Dirección del viento	1.61
154287	7	Sololá	713	San Lucas Tolimán	10	San Lucas Tolimán	10	Octubre	2023-10-19T00:00:00	2024-11-08T23:00:00	1	Precipitación	0
154288	7	Sololá	713	San Lucas Tolimán	10	San Lucas Tolimán	10	Octubre	2023-10-19T00:00:00	2024-11-08T23:00:00	8	Radiación solar	0
154289	7	Sololá	713	San Lucas Tolimán	10	San Lucas Tolimán	10	Octubre	2023-10-20T00:00:00	2024-11-08T00:00:00	2	Temperatura media	17.2
154290	7	Sololá	713	San Lucas Tolimán	10	San Lucas Tolimán	10	Octubre	2023-10-20T00:00:00	2024-11-08T00:00:00	4	Temperatura máxima	17.7
154291	7	Sololá	713	San Lucas Tolimán	10	San Lucas Tolimán	10	Octubre	2023-10-20T00:00:00	2024-11-08T00:00:00	3	Temperatura mínima	17.2
154292	7	Sololá	713	San Lucas Tolimán	10	San Lucas Tolimán	10	Octubre	2023-10-20T00:00:00	2024-11-08T00:00:00	5	Humedad	93
154293	7	Sololá	713	San Lucas Tolimán	10	San Lucas Tolimán	10	Octubre	2023-10-20T00:00:00	2024-11-08T00:00:00	6	Velocidad del viento	1.6
154294	7	Sololá	713	San Lucas Tolimán	10	San Lucas Tolimán	10	Octubre	2023-10-20T00:00:00	2024-11-08T00:00:00	7	Dirección del viento	1.61
154295	7	Sololá	713	San Lucas Tolimán	10	San Lucas Tolimán	10	Octubre	2023-10-20T00:00:00	2024-11-08T00:00:00	1	Precipitación	0
154296	7	Sololá	713	San Lucas Tolimán	10	San Lucas Tolimán	10	Octubre	2023-10-20T00:00:00	2024-11-08T00:00:00	8	Radiación solar	0
154297	7	Sololá	713	San Lucas Tolimán	10	San Lucas Tolimán	10	Octubre	2023-10-20T00:00:00	2024-11-08T01:00:00	2	Temperatura media	16.3
154298	7	Sololá	713	San Lucas Tolimán	10	San Lucas Tolimán	10	Octubre	2023-10-20T00:00:00	2024-11-08T01:00:00	4	Temperatura máxima	17.2
154299	7	Sololá	713	San Lucas Tolimán	10	San Lucas Tolimán	10	Octubre	2023-10-20T00:00:00	2024-11-08T01:00:00	3	Temperatura mínima	16.3
154300	7	Sololá	713	San Lucas Tolimán	10	San Lucas Tolimán	10	Octubre	2023-10-20T00:00:00	2024-11-08T01:00:00	5	Humedad	94
154301	7	Sololá	713	San Lucas Tolimán	10	San Lucas Tolimán	10	Octubre	2023-10-20T00:00:00	2024-11-08T01:00:00	6	Velocidad del viento	1.6
154302	7	Sololá	713	San Lucas Tolimán	10	San Lucas Tolimán	10	Octubre	2023-10-20T00:00:00	2024-11-08T01:00:00	7	Dirección del viento	1.61
154303	7	Sololá	713	San Lucas Tolimán	10	San Lucas Tolimán	10	Octubre	2023-10-20T00:00:00	2024-11-08T01:00:00	1	Precipitación	0
154304	7	Sololá	713	San Lucas Tolimán	10	San Lucas Tolimán	10	Octubre	2023-10-20T00:00:00	2024-11-08T01:00:00	8	Radiación solar	0
154305	7	Sololá	713	San Lucas Tolimán	10	San Lucas Tolimán	10	Octubre	2023-10-20T00:00:00	2024-11-08T02:00:00	2	Temperatura media	16.3
154306	7	Sololá	713	San Lucas Tolimán	10	San Lucas Tolimán	10	Octubre	2023-10-20T00:00:00	2024-11-08T02:00:00	4	Temperatura máxima	16.4
154307	7	Sololá	713	San Lucas Tolimán	10	San Lucas Tolimán	10	Octubre	2023-10-20T00:00:00	2024-11-08T02:00:00	3	Temperatura mínima	16.1
154308	7	Sololá	713	San Lucas Tolimán	10	San Lucas Tolimán	10	Octubre	2023-10-20T00:00:00	2024-11-08T02:00:00	5	Humedad	93
154309	7	Sololá	713	San Lucas Tolimán	10	San Lucas Tolimán	10	Octubre	2023-10-20T00:00:00	2024-11-08T02:00:00	6	Velocidad del viento	3.2
154310	7	Sololá	713	San Lucas Tolimán	10	San Lucas Tolimán	10	Octubre	2023-10-20T00:00:00	2024-11-08T02:00:00	7	Dirección del viento	3.22
154311	7	Sololá	713	San Lucas Tolimán	10	San Lucas Tolimán	10	Octubre	2023-10-20T00:00:00	2024-11-08T02:00:00	1	Precipitación	0
154312	7	Sololá	713	San Lucas Tolimán	10	San Lucas Tolimán	10	Octubre	2023-10-20T00:00:00	2024-11-08T02:00:00	8	Radiación solar	0
154313	7	Sololá	713	San Lucas Tolimán	10	San Lucas Tolimán	10	Octubre	2023-10-20T00:00:00	2024-11-08T03:00:00	2	Temperatura media	15.9
154314	7	Sololá	713	San Lucas Tolimán	10	San Lucas Tolimán	10	Octubre	2023-10-20T00:00:00	2024-11-08T03:00:00	4	Temperatura máxima	16.4
154315	7	Sololá	713	San Lucas Tolimán	10	San Lucas Tolimán	10	Octubre	2023-10-20T00:00:00	2024-11-08T03:00:00	3	Temperatura mínima	15.9
154316	7	Sololá	713	San Lucas Tolimán	10	San Lucas Tolimán	10	Octubre	2023-10-20T00:00:00	2024-11-08T03:00:00	5	Humedad	94
154317	7	Sololá	713	San Lucas Tolimán	10	San Lucas Tolimán	10	Octubre	2023-10-20T00:00:00	2024-11-08T03:00:00	6	Velocidad del viento	0
154318	7	Sololá	713	San Lucas Tolimán	10	San Lucas Tolimán	10	Octubre	2023-10-20T00:00:00	2024-11-08T03:00:00	7	Dirección del viento	0
154319	7	Sololá	713	San Lucas Tolimán	10	San Lucas Tolimán	10	Octubre	2023-10-20T00:00:00	2024-11-08T03:00:00	1	Precipitación	0
154320	7	Sololá	713	San Lucas Tolimán	10	San Lucas Tolimán	10	Octubre	2023-10-20T00:00:00	2024-11-08T03:00:00	8	Radiación solar	0
154321	7	Sololá	713	San Lucas Tolimán	10	San Lucas Tolimán	10	Octubre	2023-10-20T00:00:00	2024-11-08T04:00:00	2	Temperatura media	15.4
154322	7	Sololá	713	San Lucas Tolimán	10	San Lucas Tolimán	10	Octubre	2023-10-20T00:00:00	2024-11-08T04:00:00	4	Temperatura máxima	15.9
154323	7	Sololá	713	San Lucas Tolimán	10	San Lucas Tolimán	10	Octubre	2023-10-20T00:00:00	2024-11-08T04:00:00	3	Temperatura mínima	15.3
154324	7	Sololá	713	San Lucas Tolimán	10	San Lucas Tolimán	10	Octubre	2023-10-20T00:00:00	2024-11-08T04:00:00	5	Humedad	95
154325	7	Sololá	713	San Lucas Tolimán	10	San Lucas Tolimán	10	Octubre	2023-10-20T00:00:00	2024-11-08T04:00:00	6	Velocidad del viento	1.6
154326	7	Sololá	713	San Lucas Tolimán	10	San Lucas Tolimán	10	Octubre	2023-10-20T00:00:00	2024-11-08T04:00:00	7	Dirección del viento	1.61
154327	7	Sololá	713	San Lucas Tolimán	10	San Lucas Tolimán	10	Octubre	2023-10-20T00:00:00	2024-11-08T04:00:00	1	Precipitación	0
154328	7	Sololá	713	San Lucas Tolimán	10	San Lucas Tolimán	10	Octubre	2023-10-20T00:00:00	2024-11-08T04:00:00	8	Radiación solar	0
154329	7	Sololá	713	San Lucas Tolimán	10	San Lucas Tolimán	10	Octubre	2023-10-20T00:00:00	2024-11-08T05:00:00	2	Temperatura media	15.2
154330	7	Sololá	713	San Lucas Tolimán	10	San Lucas Tolimán	10	Octubre	2023-10-20T00:00:00	2024-11-08T05:00:00	4	Temperatura máxima	15.9
154331	7	Sololá	713	San Lucas Tolimán	10	San Lucas Tolimán	10	Octubre	2023-10-20T00:00:00	2024-11-08T05:00:00	3	Temperatura mínima	15.2
154332	7	Sololá	713	San Lucas Tolimán	10	San Lucas Tolimán	10	Octubre	2023-10-20T00:00:00	2024-11-08T05:00:00	5	Humedad	93
154333	7	Sololá	713	San Lucas Tolimán	10	San Lucas Tolimán	10	Octubre	2023-10-20T00:00:00	2024-11-08T05:00:00	6	Velocidad del viento	3.2
154334	7	Sololá	713	San Lucas Tolimán	10	San Lucas Tolimán	10	Octubre	2023-10-20T00:00:00	2024-11-08T05:00:00	7	Dirección del viento	3.22
154335	7	Sololá	713	San Lucas Tolimán	10	San Lucas Tolimán	10	Octubre	2023-10-20T00:00:00	2024-11-08T05:00:00	1	Precipitación	0
154336	7	Sololá	713	San Lucas Tolimán	10	San Lucas Tolimán	10	Octubre	2023-10-20T00:00:00	2024-11-08T05:00:00	8	Radiación solar	0
154337	7	Sololá	713	San Lucas Tolimán	10	San Lucas Tolimán	10	Octubre	2023-10-20T00:00:00	2024-11-08T06:00:00	2	Temperatura media	14.8
154338	7	Sololá	713	San Lucas Tolimán	10	San Lucas Tolimán	10	Octubre	2023-10-20T00:00:00	2024-11-08T06:00:00	4	Temperatura máxima	15.2
154339	7	Sololá	713	San Lucas Tolimán	10	San Lucas Tolimán	10	Octubre	2023-10-20T00:00:00	2024-11-08T06:00:00	3	Temperatura mínima	14.7
154340	7	Sololá	713	San Lucas Tolimán	10	San Lucas Tolimán	10	Octubre	2023-10-20T00:00:00	2024-11-08T06:00:00	5	Humedad	94
154341	7	Sololá	713	San Lucas Tolimán	10	San Lucas Tolimán	10	Octubre	2023-10-20T00:00:00	2024-11-08T06:00:00	6	Velocidad del viento	3.2
154342	7	Sololá	713	San Lucas Tolimán	10	San Lucas Tolimán	10	Octubre	2023-10-20T00:00:00	2024-11-08T06:00:00	7	Dirección del viento	3.22
154343	7	Sololá	713	San Lucas Tolimán	10	San Lucas Tolimán	10	Octubre	2023-10-20T00:00:00	2024-11-08T06:00:00	1	Precipitación	0
154344	7	Sololá	713	San Lucas Tolimán	10	San Lucas Tolimán	10	Octubre	2023-10-20T00:00:00	2024-11-08T06:00:00	8	Radiación solar	0
154345	7	Sololá	713	San Lucas Tolimán	10	San Lucas Tolimán	10	Octubre	2023-10-20T00:00:00	2024-11-08T07:00:00	2	Temperatura media	16.1
154346	7	Sololá	713	San Lucas Tolimán	10	San Lucas Tolimán	10	Octubre	2023-10-20T00:00:00	2024-11-08T07:00:00	4	Temperatura máxima	16.1
154347	7	Sololá	713	San Lucas Tolimán	10	San Lucas Tolimán	10	Octubre	2023-10-20T00:00:00	2024-11-08T07:00:00	3	Temperatura mínima	14.7
154348	7	Sololá	713	San Lucas Tolimán	10	San Lucas Tolimán	10	Octubre	2023-10-20T00:00:00	2024-11-08T07:00:00	5	Humedad	92
154349	7	Sololá	713	San Lucas Tolimán	10	San Lucas Tolimán	10	Octubre	2023-10-20T00:00:00	2024-11-08T07:00:00	6	Velocidad del viento	1.6
154350	7	Sololá	713	San Lucas Tolimán	10	San Lucas Tolimán	10	Octubre	2023-10-20T00:00:00	2024-11-08T07:00:00	7	Dirección del viento	1.61
154351	7	Sololá	713	San Lucas Tolimán	10	San Lucas Tolimán	10	Octubre	2023-10-20T00:00:00	2024-11-08T07:00:00	1	Precipitación	0
154352	7	Sololá	713	San Lucas Tolimán	10	San Lucas Tolimán	10	Octubre	2023-10-20T00:00:00	2024-11-08T07:00:00	8	Radiación solar	31
154353	7	Sololá	713	San Lucas Tolimán	10	San Lucas Tolimán	10	Octubre	2023-10-20T00:00:00	2024-11-08T08:00:00	2	Temperatura media	19.6
154354	7	Sololá	713	San Lucas Tolimán	10	San Lucas Tolimán	10	Octubre	2023-10-20T00:00:00	2024-11-08T08:00:00	4	Temperatura máxima	19.6
154355	7	Sololá	713	San Lucas Tolimán	10	San Lucas Tolimán	10	Octubre	2023-10-20T00:00:00	2024-11-08T08:00:00	3	Temperatura mínima	16.1
154356	7	Sololá	713	San Lucas Tolimán	10	San Lucas Tolimán	10	Octubre	2023-10-20T00:00:00	2024-11-08T08:00:00	5	Humedad	82
154357	7	Sololá	713	San Lucas Tolimán	10	San Lucas Tolimán	10	Octubre	2023-10-20T00:00:00	2024-11-08T08:00:00	6	Velocidad del viento	1.6
154358	7	Sololá	713	San Lucas Tolimán	10	San Lucas Tolimán	10	Octubre	2023-10-20T00:00:00	2024-11-08T08:00:00	7	Dirección del viento	1.61
154359	7	Sololá	713	San Lucas Tolimán	10	San Lucas Tolimán	10	Octubre	2023-10-20T00:00:00	2024-11-08T08:00:00	1	Precipitación	0
154360	7	Sololá	713	San Lucas Tolimán	10	San Lucas Tolimán	10	Octubre	2023-10-20T00:00:00	2024-11-08T08:00:00	8	Radiación solar	273
154361	7	Sololá	713	San Lucas Tolimán	10	San Lucas Tolimán	10	Octubre	2023-10-20T00:00:00	2024-11-08T09:00:00	2	Temperatura media	21.1
154362	7	Sololá	713	San Lucas Tolimán	10	San Lucas Tolimán	10	Octubre	2023-10-20T00:00:00	2024-11-08T09:00:00	4	Temperatura máxima	21.1
154363	7	Sololá	713	San Lucas Tolimán	10	San Lucas Tolimán	10	Octubre	2023-10-20T00:00:00	2024-11-08T09:00:00	3	Temperatura mínima	19.6
154364	7	Sololá	713	San Lucas Tolimán	10	San Lucas Tolimán	10	Octubre	2023-10-20T00:00:00	2024-11-08T09:00:00	5	Humedad	77
154365	7	Sololá	713	San Lucas Tolimán	10	San Lucas Tolimán	10	Octubre	2023-10-20T00:00:00	2024-11-08T09:00:00	6	Velocidad del viento	4.8
154366	7	Sololá	713	San Lucas Tolimán	10	San Lucas Tolimán	10	Octubre	2023-10-20T00:00:00	2024-11-08T09:00:00	7	Dirección del viento	4.83
154367	7	Sololá	713	San Lucas Tolimán	10	San Lucas Tolimán	10	Octubre	2023-10-20T00:00:00	2024-11-08T09:00:00	1	Precipitación	0
154368	7	Sololá	713	San Lucas Tolimán	10	San Lucas Tolimán	10	Octubre	2023-10-20T00:00:00	2024-11-08T09:00:00	8	Radiación solar	305
154369	7	Sololá	713	San Lucas Tolimán	10	San Lucas Tolimán	10	Octubre	2023-10-20T00:00:00	2024-11-08T10:00:00	2	Temperatura media	23.4
154370	7	Sololá	713	San Lucas Tolimán	10	San Lucas Tolimán	10	Octubre	2023-10-20T00:00:00	2024-11-08T10:00:00	4	Temperatura máxima	23.4
154371	7	Sololá	713	San Lucas Tolimán	10	San Lucas Tolimán	10	Octubre	2023-10-20T00:00:00	2024-11-08T10:00:00	3	Temperatura mínima	21.1
154372	7	Sololá	713	San Lucas Tolimán	10	San Lucas Tolimán	10	Octubre	2023-10-20T00:00:00	2024-11-08T10:00:00	5	Humedad	74
154373	7	Sololá	713	San Lucas Tolimán	10	San Lucas Tolimán	10	Octubre	2023-10-20T00:00:00	2024-11-08T10:00:00	6	Velocidad del viento	4.8
154374	7	Sololá	713	San Lucas Tolimán	10	San Lucas Tolimán	10	Octubre	2023-10-20T00:00:00	2024-11-08T10:00:00	7	Dirección del viento	4.83
154375	7	Sololá	713	San Lucas Tolimán	10	San Lucas Tolimán	10	Octubre	2023-10-20T00:00:00	2024-11-08T10:00:00	1	Precipitación	0
154376	7	Sololá	713	San Lucas Tolimán	10	San Lucas Tolimán	10	Octubre	2023-10-20T00:00:00	2024-11-08T10:00:00	8	Radiación solar	361
154377	7	Sololá	713	San Lucas Tolimán	10	San Lucas Tolimán	10	Octubre	2023-10-20T00:00:00	2024-11-08T11:00:00	2	Temperatura media	22.4
154378	7	Sololá	713	San Lucas Tolimán	10	San Lucas Tolimán	10	Octubre	2023-10-20T00:00:00	2024-11-08T11:00:00	4	Temperatura máxima	23.6
154379	7	Sololá	713	San Lucas Tolimán	10	San Lucas Tolimán	10	Octubre	2023-10-20T00:00:00	2024-11-08T11:00:00	3	Temperatura mínima	22.3
154380	7	Sololá	713	San Lucas Tolimán	10	San Lucas Tolimán	10	Octubre	2023-10-20T00:00:00	2024-11-08T11:00:00	5	Humedad	78
154381	7	Sololá	713	San Lucas Tolimán	10	San Lucas Tolimán	10	Octubre	2023-10-20T00:00:00	2024-11-08T11:00:00	6	Velocidad del viento	12.9
154382	7	Sololá	713	San Lucas Tolimán	10	San Lucas Tolimán	10	Octubre	2023-10-20T00:00:00	2024-11-08T11:00:00	7	Dirección del viento	12.87
154383	7	Sololá	713	San Lucas Tolimán	10	San Lucas Tolimán	10	Octubre	2023-10-20T00:00:00	2024-11-08T11:00:00	1	Precipitación	0
154384	7	Sololá	713	San Lucas Tolimán	10	San Lucas Tolimán	10	Octubre	2023-10-20T00:00:00	2024-11-08T11:00:00	8	Radiación solar	371
154385	7	Sololá	713	San Lucas Tolimán	10	San Lucas Tolimán	10	Octubre	2023-10-20T00:00:00	2024-11-08T12:00:00	2	Temperatura media	21.3
154386	7	Sololá	713	San Lucas Tolimán	10	San Lucas Tolimán	10	Octubre	2023-10-20T00:00:00	2024-11-08T12:00:00	4	Temperatura máxima	22.8
154387	7	Sololá	713	San Lucas Tolimán	10	San Lucas Tolimán	10	Octubre	2023-10-20T00:00:00	2024-11-08T12:00:00	3	Temperatura mínima	21.3
154388	7	Sololá	713	San Lucas Tolimán	10	San Lucas Tolimán	10	Octubre	2023-10-20T00:00:00	2024-11-08T12:00:00	5	Humedad	84
154389	7	Sololá	713	San Lucas Tolimán	10	San Lucas Tolimán	10	Octubre	2023-10-20T00:00:00	2024-11-08T12:00:00	6	Velocidad del viento	11.3
154390	7	Sololá	713	San Lucas Tolimán	10	San Lucas Tolimán	10	Octubre	2023-10-20T00:00:00	2024-11-08T12:00:00	7	Dirección del viento	11.27
154391	7	Sololá	713	San Lucas Tolimán	10	San Lucas Tolimán	10	Octubre	2023-10-20T00:00:00	2024-11-08T12:00:00	1	Precipitación	0
154392	7	Sololá	713	San Lucas Tolimán	10	San Lucas Tolimán	10	Octubre	2023-10-20T00:00:00	2024-11-08T12:00:00	8	Radiación solar	303
154393	7	Sololá	713	San Lucas Tolimán	10	San Lucas Tolimán	10	Octubre	2023-10-20T00:00:00	2024-11-08T13:00:00	2	Temperatura media	22.2
154394	7	Sololá	713	San Lucas Tolimán	10	San Lucas Tolimán	10	Octubre	2023-10-20T00:00:00	2024-11-08T13:00:00	4	Temperatura máxima	22.3
154395	7	Sololá	713	San Lucas Tolimán	10	San Lucas Tolimán	10	Octubre	2023-10-20T00:00:00	2024-11-08T13:00:00	3	Temperatura mínima	21.1
154396	7	Sololá	713	San Lucas Tolimán	10	San Lucas Tolimán	10	Octubre	2023-10-20T00:00:00	2024-11-08T13:00:00	5	Humedad	82
154397	7	Sololá	713	San Lucas Tolimán	10	San Lucas Tolimán	10	Octubre	2023-10-20T00:00:00	2024-11-08T13:00:00	6	Velocidad del viento	11.3
154398	7	Sololá	713	San Lucas Tolimán	10	San Lucas Tolimán	10	Octubre	2023-10-20T00:00:00	2024-11-08T13:00:00	7	Dirección del viento	11.27
154399	7	Sololá	713	San Lucas Tolimán	10	San Lucas Tolimán	10	Octubre	2023-10-20T00:00:00	2024-11-08T13:00:00	1	Precipitación	0
154400	7	Sololá	713	San Lucas Tolimán	10	San Lucas Tolimán	10	Octubre	2023-10-20T00:00:00	2024-11-08T13:00:00	8	Radiación solar	419
154401	7	Sololá	713	San Lucas Tolimán	10	San Lucas Tolimán	10	Octubre	2023-10-20T00:00:00	2024-11-08T14:00:00	2	Temperatura media	21.9
154402	7	Sololá	713	San Lucas Tolimán	10	San Lucas Tolimán	10	Octubre	2023-10-20T00:00:00	2024-11-08T14:00:00	4	Temperatura máxima	22.5
154403	7	Sololá	713	San Lucas Tolimán	10	San Lucas Tolimán	10	Octubre	2023-10-20T00:00:00	2024-11-08T14:00:00	3	Temperatura mínima	21.6
154404	7	Sololá	713	San Lucas Tolimán	10	San Lucas Tolimán	10	Octubre	2023-10-20T00:00:00	2024-11-08T14:00:00	5	Humedad	80
154405	7	Sololá	713	San Lucas Tolimán	10	San Lucas Tolimán	10	Octubre	2023-10-20T00:00:00	2024-11-08T14:00:00	6	Velocidad del viento	11.3
154406	7	Sololá	713	San Lucas Tolimán	10	San Lucas Tolimán	10	Octubre	2023-10-20T00:00:00	2024-11-08T14:00:00	7	Dirección del viento	11.27
154407	7	Sololá	713	San Lucas Tolimán	10	San Lucas Tolimán	10	Octubre	2023-10-20T00:00:00	2024-11-08T14:00:00	1	Precipitación	0
154408	7	Sololá	713	San Lucas Tolimán	10	San Lucas Tolimán	10	Octubre	2023-10-20T00:00:00	2024-11-08T14:00:00	8	Radiación solar	578
154409	7	Sololá	713	San Lucas Tolimán	10	San Lucas Tolimán	10	Octubre	2023-10-20T00:00:00	2024-11-08T15:00:00	2	Temperatura media	21.7
154410	7	Sololá	713	San Lucas Tolimán	10	San Lucas Tolimán	10	Octubre	2023-10-20T00:00:00	2024-11-08T15:00:00	4	Temperatura máxima	22.4
154411	7	Sololá	713	San Lucas Tolimán	10	San Lucas Tolimán	10	Octubre	2023-10-20T00:00:00	2024-11-08T15:00:00	3	Temperatura mínima	21.3
154412	7	Sololá	713	San Lucas Tolimán	10	San Lucas Tolimán	10	Octubre	2023-10-20T00:00:00	2024-11-08T15:00:00	5	Humedad	83
154413	7	Sololá	713	San Lucas Tolimán	10	San Lucas Tolimán	10	Octubre	2023-10-20T00:00:00	2024-11-08T15:00:00	6	Velocidad del viento	11.3
154414	7	Sololá	713	San Lucas Tolimán	10	San Lucas Tolimán	10	Octubre	2023-10-20T00:00:00	2024-11-08T15:00:00	7	Dirección del viento	11.27
154415	7	Sololá	713	San Lucas Tolimán	10	San Lucas Tolimán	10	Octubre	2023-10-20T00:00:00	2024-11-08T15:00:00	1	Precipitación	0
154416	7	Sololá	713	San Lucas Tolimán	10	San Lucas Tolimán	10	Octubre	2023-10-20T00:00:00	2024-11-08T15:00:00	8	Radiación solar	311
154417	7	Sololá	713	San Lucas Tolimán	10	San Lucas Tolimán	10	Octubre	2023-10-20T00:00:00	2024-11-08T16:00:00	2	Temperatura media	21.2
154418	7	Sololá	713	San Lucas Tolimán	10	San Lucas Tolimán	10	Octubre	2023-10-20T00:00:00	2024-11-08T16:00:00	4	Temperatura máxima	22.3
154419	7	Sololá	713	San Lucas Tolimán	10	San Lucas Tolimán	10	Octubre	2023-10-20T00:00:00	2024-11-08T16:00:00	3	Temperatura mínima	21.1
154420	7	Sololá	713	San Lucas Tolimán	10	San Lucas Tolimán	10	Octubre	2023-10-20T00:00:00	2024-11-08T16:00:00	5	Humedad	87
154421	7	Sololá	713	San Lucas Tolimán	10	San Lucas Tolimán	10	Octubre	2023-10-20T00:00:00	2024-11-08T16:00:00	6	Velocidad del viento	9.7
154422	7	Sololá	713	San Lucas Tolimán	10	San Lucas Tolimán	10	Octubre	2023-10-20T00:00:00	2024-11-08T16:00:00	7	Dirección del viento	9.66
154423	7	Sololá	713	San Lucas Tolimán	10	San Lucas Tolimán	10	Octubre	2023-10-20T00:00:00	2024-11-08T16:00:00	1	Precipitación	0
154424	7	Sololá	713	San Lucas Tolimán	10	San Lucas Tolimán	10	Octubre	2023-10-20T00:00:00	2024-11-08T16:00:00	8	Radiación solar	241
154425	7	Sololá	713	San Lucas Tolimán	10	San Lucas Tolimán	10	Octubre	2023-10-20T00:00:00	2024-11-08T17:00:00	2	Temperatura media	19.8
154426	7	Sololá	713	San Lucas Tolimán	10	San Lucas Tolimán	10	Octubre	2023-10-20T00:00:00	2024-11-08T17:00:00	4	Temperatura máxima	21.2
154427	7	Sololá	713	San Lucas Tolimán	10	San Lucas Tolimán	10	Octubre	2023-10-20T00:00:00	2024-11-08T17:00:00	3	Temperatura mínima	19.8
154428	7	Sololá	713	San Lucas Tolimán	10	San Lucas Tolimán	10	Octubre	2023-10-20T00:00:00	2024-11-08T17:00:00	5	Humedad	92
154429	7	Sololá	713	San Lucas Tolimán	10	San Lucas Tolimán	10	Octubre	2023-10-20T00:00:00	2024-11-08T17:00:00	6	Velocidad del viento	9.7
154430	7	Sololá	713	San Lucas Tolimán	10	San Lucas Tolimán	10	Octubre	2023-10-20T00:00:00	2024-11-08T17:00:00	7	Dirección del viento	9.66
154431	7	Sololá	713	San Lucas Tolimán	10	San Lucas Tolimán	10	Octubre	2023-10-20T00:00:00	2024-11-08T17:00:00	1	Precipitación	0
154432	7	Sololá	713	San Lucas Tolimán	10	San Lucas Tolimán	10	Octubre	2023-10-20T00:00:00	2024-11-08T17:00:00	8	Radiación solar	51
154433	7	Sololá	713	San Lucas Tolimán	10	San Lucas Tolimán	10	Octubre	2023-10-20T00:00:00	2024-11-08T18:00:00	2	Temperatura media	19.4
154434	7	Sololá	713	San Lucas Tolimán	10	San Lucas Tolimán	10	Octubre	2023-10-20T00:00:00	2024-11-08T18:00:00	4	Temperatura máxima	19.8
154435	7	Sololá	713	San Lucas Tolimán	10	San Lucas Tolimán	10	Octubre	2023-10-20T00:00:00	2024-11-08T18:00:00	3	Temperatura mínima	19.4
154436	7	Sololá	713	San Lucas Tolimán	10	San Lucas Tolimán	10	Octubre	2023-10-20T00:00:00	2024-11-08T18:00:00	5	Humedad	93
154437	7	Sololá	713	San Lucas Tolimán	10	San Lucas Tolimán	10	Octubre	2023-10-20T00:00:00	2024-11-08T18:00:00	6	Velocidad del viento	8
154438	7	Sololá	713	San Lucas Tolimán	10	San Lucas Tolimán	10	Octubre	2023-10-20T00:00:00	2024-11-08T18:00:00	7	Dirección del viento	8.05
154439	7	Sololá	713	San Lucas Tolimán	10	San Lucas Tolimán	10	Octubre	2023-10-20T00:00:00	2024-11-08T18:00:00	1	Precipitación	0
154440	7	Sololá	713	San Lucas Tolimán	10	San Lucas Tolimán	10	Octubre	2023-10-20T00:00:00	2024-11-08T18:00:00	8	Radiación solar	24
154441	7	Sololá	713	San Lucas Tolimán	10	San Lucas Tolimán	10	Octubre	2023-10-20T00:00:00	2024-11-08T19:00:00	2	Temperatura media	19.1
154442	7	Sololá	713	San Lucas Tolimán	10	San Lucas Tolimán	10	Octubre	2023-10-20T00:00:00	2024-11-08T19:00:00	4	Temperatura máxima	19.4
154443	7	Sololá	713	San Lucas Tolimán	10	San Lucas Tolimán	10	Octubre	2023-10-20T00:00:00	2024-11-08T19:00:00	3	Temperatura mínima	19.1
154444	7	Sololá	713	San Lucas Tolimán	10	San Lucas Tolimán	10	Octubre	2023-10-20T00:00:00	2024-11-08T19:00:00	5	Humedad	93
154445	7	Sololá	713	San Lucas Tolimán	10	San Lucas Tolimán	10	Octubre	2023-10-20T00:00:00	2024-11-08T19:00:00	6	Velocidad del viento	6.4
154446	7	Sololá	713	San Lucas Tolimán	10	San Lucas Tolimán	10	Octubre	2023-10-20T00:00:00	2024-11-08T19:00:00	7	Dirección del viento	6.44
154447	7	Sololá	713	San Lucas Tolimán	10	San Lucas Tolimán	10	Octubre	2023-10-20T00:00:00	2024-11-08T19:00:00	1	Precipitación	0
154448	7	Sololá	713	San Lucas Tolimán	10	San Lucas Tolimán	10	Octubre	2023-10-20T00:00:00	2024-11-08T19:00:00	8	Radiación solar	0
154449	7	Sololá	713	San Lucas Tolimán	10	San Lucas Tolimán	10	Octubre	2023-10-20T00:00:00	2024-11-08T20:00:00	2	Temperatura media	18.3
154450	7	Sololá	713	San Lucas Tolimán	10	San Lucas Tolimán	10	Octubre	2023-10-20T00:00:00	2024-11-08T20:00:00	4	Temperatura máxima	19.1
154451	7	Sololá	713	San Lucas Tolimán	10	San Lucas Tolimán	10	Octubre	2023-10-20T00:00:00	2024-11-08T20:00:00	3	Temperatura mínima	18.3
154452	7	Sololá	713	San Lucas Tolimán	10	San Lucas Tolimán	10	Octubre	2023-10-20T00:00:00	2024-11-08T20:00:00	5	Humedad	92
154453	7	Sololá	713	San Lucas Tolimán	10	San Lucas Tolimán	10	Octubre	2023-10-20T00:00:00	2024-11-08T20:00:00	6	Velocidad del viento	3.2
154454	7	Sololá	713	San Lucas Tolimán	10	San Lucas Tolimán	10	Octubre	2023-10-20T00:00:00	2024-11-08T20:00:00	7	Dirección del viento	3.22
154455	7	Sololá	713	San Lucas Tolimán	10	San Lucas Tolimán	10	Octubre	2023-10-20T00:00:00	2024-11-08T20:00:00	1	Precipitación	0
154456	7	Sololá	713	San Lucas Tolimán	10	San Lucas Tolimán	10	Octubre	2023-10-20T00:00:00	2024-11-08T20:00:00	8	Radiación solar	0
154457	7	Sololá	713	San Lucas Tolimán	10	San Lucas Tolimán	10	Octubre	2023-10-20T00:00:00	2024-11-08T21:00:00	2	Temperatura media	17.6
154458	7	Sololá	713	San Lucas Tolimán	10	San Lucas Tolimán	10	Octubre	2023-10-20T00:00:00	2024-11-08T21:00:00	4	Temperatura máxima	18.3
154459	7	Sololá	713	San Lucas Tolimán	10	San Lucas Tolimán	10	Octubre	2023-10-20T00:00:00	2024-11-08T21:00:00	3	Temperatura mínima	17.6
154460	7	Sololá	713	San Lucas Tolimán	10	San Lucas Tolimán	10	Octubre	2023-10-20T00:00:00	2024-11-08T21:00:00	5	Humedad	93
154461	7	Sololá	713	San Lucas Tolimán	10	San Lucas Tolimán	10	Octubre	2023-10-20T00:00:00	2024-11-08T21:00:00	6	Velocidad del viento	4.8
154462	7	Sololá	713	San Lucas Tolimán	10	San Lucas Tolimán	10	Octubre	2023-10-20T00:00:00	2024-11-08T21:00:00	7	Dirección del viento	4.83
154463	7	Sololá	713	San Lucas Tolimán	10	San Lucas Tolimán	10	Octubre	2023-10-20T00:00:00	2024-11-08T21:00:00	1	Precipitación	0
154464	7	Sololá	713	San Lucas Tolimán	10	San Lucas Tolimán	10	Octubre	2023-10-20T00:00:00	2024-11-08T21:00:00	8	Radiación solar	0
154465	7	Sololá	713	San Lucas Tolimán	10	San Lucas Tolimán	10	Octubre	2023-10-20T00:00:00	2024-11-08T22:00:00	2	Temperatura media	16.9
154466	7	Sololá	713	San Lucas Tolimán	10	San Lucas Tolimán	10	Octubre	2023-10-20T00:00:00	2024-11-08T22:00:00	4	Temperatura máxima	17.7
154467	7	Sololá	713	San Lucas Tolimán	10	San Lucas Tolimán	10	Octubre	2023-10-20T00:00:00	2024-11-08T22:00:00	3	Temperatura mínima	16.9
154468	7	Sololá	713	San Lucas Tolimán	10	San Lucas Tolimán	10	Octubre	2023-10-20T00:00:00	2024-11-08T22:00:00	5	Humedad	93
154469	7	Sololá	713	San Lucas Tolimán	10	San Lucas Tolimán	10	Octubre	2023-10-20T00:00:00	2024-11-08T22:00:00	6	Velocidad del viento	3.2
154470	7	Sololá	713	San Lucas Tolimán	10	San Lucas Tolimán	10	Octubre	2023-10-20T00:00:00	2024-11-08T22:00:00	7	Dirección del viento	3.22
154471	7	Sololá	713	San Lucas Tolimán	10	San Lucas Tolimán	10	Octubre	2023-10-20T00:00:00	2024-11-08T22:00:00	1	Precipitación	0
154472	7	Sololá	713	San Lucas Tolimán	10	San Lucas Tolimán	10	Octubre	2023-10-20T00:00:00	2024-11-08T22:00:00	8	Radiación solar	0
154473	7	Sololá	713	San Lucas Tolimán	10	San Lucas Tolimán	10	Octubre	2023-10-20T00:00:00	2024-11-08T23:00:00	2	Temperatura media	17.2
154474	7	Sololá	713	San Lucas Tolimán	10	San Lucas Tolimán	10	Octubre	2023-10-20T00:00:00	2024-11-08T23:00:00	4	Temperatura máxima	17.2
154475	7	Sololá	713	San Lucas Tolimán	10	San Lucas Tolimán	10	Octubre	2023-10-20T00:00:00	2024-11-08T23:00:00	3	Temperatura mínima	16.7
154476	7	Sololá	713	San Lucas Tolimán	10	San Lucas Tolimán	10	Octubre	2023-10-20T00:00:00	2024-11-08T23:00:00	5	Humedad	92
154477	7	Sololá	713	San Lucas Tolimán	10	San Lucas Tolimán	10	Octubre	2023-10-20T00:00:00	2024-11-08T23:00:00	6	Velocidad del viento	3.2
154478	7	Sololá	713	San Lucas Tolimán	10	San Lucas Tolimán	10	Octubre	2023-10-20T00:00:00	2024-11-08T23:00:00	7	Dirección del viento	3.22
154479	7	Sololá	713	San Lucas Tolimán	10	San Lucas Tolimán	10	Octubre	2023-10-20T00:00:00	2024-11-08T23:00:00	1	Precipitación	0
154480	7	Sololá	713	San Lucas Tolimán	10	San Lucas Tolimán	10	Octubre	2023-10-20T00:00:00	2024-11-08T23:00:00	8	Radiación solar	0
154481	7	Sololá	713	San Lucas Tolimán	10	San Lucas Tolimán	10	Octubre	2023-10-21T00:00:00	2024-11-08T00:00:00	2	Temperatura media	17.2
154482	7	Sololá	713	San Lucas Tolimán	10	San Lucas Tolimán	10	Octubre	2023-10-21T00:00:00	2024-11-08T00:00:00	4	Temperatura máxima	17.5
154483	7	Sololá	713	San Lucas Tolimán	10	San Lucas Tolimán	10	Octubre	2023-10-21T00:00:00	2024-11-08T00:00:00	3	Temperatura mínima	17.1
154484	7	Sololá	713	San Lucas Tolimán	10	San Lucas Tolimán	10	Octubre	2023-10-21T00:00:00	2024-11-08T00:00:00	5	Humedad	89
154485	7	Sololá	713	San Lucas Tolimán	10	San Lucas Tolimán	10	Octubre	2023-10-21T00:00:00	2024-11-08T00:00:00	6	Velocidad del viento	1.6
154486	7	Sololá	713	San Lucas Tolimán	10	San Lucas Tolimán	10	Octubre	2023-10-21T00:00:00	2024-11-08T00:00:00	7	Dirección del viento	1.61
154487	7	Sololá	713	San Lucas Tolimán	10	San Lucas Tolimán	10	Octubre	2023-10-21T00:00:00	2024-11-08T00:00:00	1	Precipitación	0
154488	7	Sololá	713	San Lucas Tolimán	10	San Lucas Tolimán	10	Octubre	2023-10-21T00:00:00	2024-11-08T00:00:00	8	Radiación solar	0
154489	7	Sololá	713	San Lucas Tolimán	10	San Lucas Tolimán	10	Octubre	2023-10-21T00:00:00	2024-11-08T01:00:00	2	Temperatura media	16.2
154490	7	Sololá	713	San Lucas Tolimán	10	San Lucas Tolimán	10	Octubre	2023-10-21T00:00:00	2024-11-08T01:00:00	4	Temperatura máxima	17.2
154491	7	Sololá	713	San Lucas Tolimán	10	San Lucas Tolimán	10	Octubre	2023-10-21T00:00:00	2024-11-08T01:00:00	3	Temperatura mínima	16.2
154492	7	Sololá	713	San Lucas Tolimán	10	San Lucas Tolimán	10	Octubre	2023-10-21T00:00:00	2024-11-08T01:00:00	5	Humedad	91
154493	7	Sololá	713	San Lucas Tolimán	10	San Lucas Tolimán	10	Octubre	2023-10-21T00:00:00	2024-11-08T01:00:00	6	Velocidad del viento	1.6
154494	7	Sololá	713	San Lucas Tolimán	10	San Lucas Tolimán	10	Octubre	2023-10-21T00:00:00	2024-11-08T01:00:00	7	Dirección del viento	1.61
154495	7	Sololá	713	San Lucas Tolimán	10	San Lucas Tolimán	10	Octubre	2023-10-21T00:00:00	2024-11-08T01:00:00	1	Precipitación	0
154496	7	Sololá	713	San Lucas Tolimán	10	San Lucas Tolimán	10	Octubre	2023-10-21T00:00:00	2024-11-08T01:00:00	8	Radiación solar	0
154497	7	Sololá	713	San Lucas Tolimán	10	San Lucas Tolimán	10	Octubre	2023-10-21T00:00:00	2024-11-08T02:00:00	2	Temperatura media	15.7
154498	7	Sololá	713	San Lucas Tolimán	10	San Lucas Tolimán	10	Octubre	2023-10-21T00:00:00	2024-11-08T02:00:00	4	Temperatura máxima	16.2
154499	7	Sololá	713	San Lucas Tolimán	10	San Lucas Tolimán	10	Octubre	2023-10-21T00:00:00	2024-11-08T02:00:00	3	Temperatura mínima	15.6
154500	7	Sololá	713	San Lucas Tolimán	10	San Lucas Tolimán	10	Octubre	2023-10-21T00:00:00	2024-11-08T02:00:00	5	Humedad	93
154501	7	Sololá	713	San Lucas Tolimán	10	San Lucas Tolimán	10	Octubre	2023-10-21T00:00:00	2024-11-08T02:00:00	6	Velocidad del viento	3.2
154502	7	Sololá	713	San Lucas Tolimán	10	San Lucas Tolimán	10	Octubre	2023-10-21T00:00:00	2024-11-08T02:00:00	7	Dirección del viento	3.22
154503	7	Sololá	713	San Lucas Tolimán	10	San Lucas Tolimán	10	Octubre	2023-10-21T00:00:00	2024-11-08T02:00:00	1	Precipitación	0
154504	7	Sololá	713	San Lucas Tolimán	10	San Lucas Tolimán	10	Octubre	2023-10-21T00:00:00	2024-11-08T02:00:00	8	Radiación solar	0
154505	7	Sololá	713	San Lucas Tolimán	10	San Lucas Tolimán	10	Octubre	2023-10-21T00:00:00	2024-11-08T03:00:00	2	Temperatura media	15.5
154506	7	Sololá	713	San Lucas Tolimán	10	San Lucas Tolimán	10	Octubre	2023-10-21T00:00:00	2024-11-08T03:00:00	4	Temperatura máxima	15.7
154507	7	Sololá	713	San Lucas Tolimán	10	San Lucas Tolimán	10	Octubre	2023-10-21T00:00:00	2024-11-08T03:00:00	3	Temperatura mínima	15.4
154508	7	Sololá	713	San Lucas Tolimán	10	San Lucas Tolimán	10	Octubre	2023-10-21T00:00:00	2024-11-08T03:00:00	5	Humedad	93
154509	7	Sololá	713	San Lucas Tolimán	10	San Lucas Tolimán	10	Octubre	2023-10-21T00:00:00	2024-11-08T03:00:00	6	Velocidad del viento	4.8
154510	7	Sololá	713	San Lucas Tolimán	10	San Lucas Tolimán	10	Octubre	2023-10-21T00:00:00	2024-11-08T03:00:00	7	Dirección del viento	4.83
154511	7	Sololá	713	San Lucas Tolimán	10	San Lucas Tolimán	10	Octubre	2023-10-21T00:00:00	2024-11-08T03:00:00	1	Precipitación	0
154512	7	Sololá	713	San Lucas Tolimán	10	San Lucas Tolimán	10	Octubre	2023-10-21T00:00:00	2024-11-08T03:00:00	8	Radiación solar	0
154513	7	Sololá	713	San Lucas Tolimán	10	San Lucas Tolimán	10	Octubre	2023-10-21T00:00:00	2024-11-08T04:00:00	2	Temperatura media	15.9
154514	7	Sololá	713	San Lucas Tolimán	10	San Lucas Tolimán	10	Octubre	2023-10-21T00:00:00	2024-11-08T04:00:00	4	Temperatura máxima	15.9
154515	7	Sololá	713	San Lucas Tolimán	10	San Lucas Tolimán	10	Octubre	2023-10-21T00:00:00	2024-11-08T04:00:00	3	Temperatura mínima	15.3
154516	7	Sololá	713	San Lucas Tolimán	10	San Lucas Tolimán	10	Octubre	2023-10-21T00:00:00	2024-11-08T04:00:00	5	Humedad	92
154517	7	Sololá	713	San Lucas Tolimán	10	San Lucas Tolimán	10	Octubre	2023-10-21T00:00:00	2024-11-08T04:00:00	6	Velocidad del viento	1.6
154518	7	Sololá	713	San Lucas Tolimán	10	San Lucas Tolimán	10	Octubre	2023-10-21T00:00:00	2024-11-08T04:00:00	7	Dirección del viento	1.61
154519	7	Sololá	713	San Lucas Tolimán	10	San Lucas Tolimán	10	Octubre	2023-10-21T00:00:00	2024-11-08T04:00:00	1	Precipitación	0
154520	7	Sololá	713	San Lucas Tolimán	10	San Lucas Tolimán	10	Octubre	2023-10-21T00:00:00	2024-11-08T04:00:00	8	Radiación solar	0
154521	7	Sololá	713	San Lucas Tolimán	10	San Lucas Tolimán	10	Octubre	2023-10-21T00:00:00	2024-11-08T05:00:00	2	Temperatura media	16.4
154522	7	Sololá	713	San Lucas Tolimán	10	San Lucas Tolimán	10	Octubre	2023-10-21T00:00:00	2024-11-08T05:00:00	4	Temperatura máxima	16.4
154523	7	Sololá	713	San Lucas Tolimán	10	San Lucas Tolimán	10	Octubre	2023-10-21T00:00:00	2024-11-08T05:00:00	3	Temperatura mínima	15.8
154524	7	Sololá	713	San Lucas Tolimán	10	San Lucas Tolimán	10	Octubre	2023-10-21T00:00:00	2024-11-08T05:00:00	5	Humedad	88
154525	7	Sololá	713	San Lucas Tolimán	10	San Lucas Tolimán	10	Octubre	2023-10-21T00:00:00	2024-11-08T05:00:00	6	Velocidad del viento	1.6
154526	7	Sololá	713	San Lucas Tolimán	10	San Lucas Tolimán	10	Octubre	2023-10-21T00:00:00	2024-11-08T05:00:00	7	Dirección del viento	1.61
154527	7	Sololá	713	San Lucas Tolimán	10	San Lucas Tolimán	10	Octubre	2023-10-21T00:00:00	2024-11-08T05:00:00	1	Precipitación	0
154528	7	Sololá	713	San Lucas Tolimán	10	San Lucas Tolimán	10	Octubre	2023-10-21T00:00:00	2024-11-08T05:00:00	8	Radiación solar	0
154529	7	Sololá	713	San Lucas Tolimán	10	San Lucas Tolimán	10	Octubre	2023-10-21T00:00:00	2024-11-08T06:00:00	2	Temperatura media	15.8
154530	7	Sololá	713	San Lucas Tolimán	10	San Lucas Tolimán	10	Octubre	2023-10-21T00:00:00	2024-11-08T06:00:00	4	Temperatura máxima	16.5
154531	7	Sololá	713	San Lucas Tolimán	10	San Lucas Tolimán	10	Octubre	2023-10-21T00:00:00	2024-11-08T06:00:00	3	Temperatura mínima	15.7
154532	7	Sololá	713	San Lucas Tolimán	10	San Lucas Tolimán	10	Octubre	2023-10-21T00:00:00	2024-11-08T06:00:00	5	Humedad	90
154533	7	Sololá	713	San Lucas Tolimán	10	San Lucas Tolimán	10	Octubre	2023-10-21T00:00:00	2024-11-08T06:00:00	6	Velocidad del viento	0
154534	7	Sololá	713	San Lucas Tolimán	10	San Lucas Tolimán	10	Octubre	2023-10-21T00:00:00	2024-11-08T06:00:00	7	Dirección del viento	0
154535	7	Sololá	713	San Lucas Tolimán	10	San Lucas Tolimán	10	Octubre	2023-10-21T00:00:00	2024-11-08T06:00:00	1	Precipitación	0
154536	7	Sololá	713	San Lucas Tolimán	10	San Lucas Tolimán	10	Octubre	2023-10-21T00:00:00	2024-11-08T06:00:00	8	Radiación solar	0
154537	7	Sololá	713	San Lucas Tolimán	10	San Lucas Tolimán	10	Octubre	2023-10-21T00:00:00	2024-11-08T07:00:00	2	Temperatura media	15.6
154538	7	Sololá	713	San Lucas Tolimán	10	San Lucas Tolimán	10	Octubre	2023-10-21T00:00:00	2024-11-08T07:00:00	4	Temperatura máxima	15.8
154539	7	Sololá	713	San Lucas Tolimán	10	San Lucas Tolimán	10	Octubre	2023-10-21T00:00:00	2024-11-08T07:00:00	3	Temperatura mínima	15.4
154540	7	Sololá	713	San Lucas Tolimán	10	San Lucas Tolimán	10	Octubre	2023-10-21T00:00:00	2024-11-08T07:00:00	5	Humedad	92
154541	7	Sololá	713	San Lucas Tolimán	10	San Lucas Tolimán	10	Octubre	2023-10-21T00:00:00	2024-11-08T07:00:00	6	Velocidad del viento	1.6
154542	7	Sololá	713	San Lucas Tolimán	10	San Lucas Tolimán	10	Octubre	2023-10-21T00:00:00	2024-11-08T07:00:00	7	Dirección del viento	1.61
154543	7	Sololá	713	San Lucas Tolimán	10	San Lucas Tolimán	10	Octubre	2023-10-21T00:00:00	2024-11-08T07:00:00	1	Precipitación	0
154544	7	Sololá	713	San Lucas Tolimán	10	San Lucas Tolimán	10	Octubre	2023-10-21T00:00:00	2024-11-08T07:00:00	8	Radiación solar	27
154545	7	Sololá	713	San Lucas Tolimán	10	San Lucas Tolimán	10	Octubre	2023-10-21T00:00:00	2024-11-08T08:00:00	2	Temperatura media	18.4
154546	7	Sololá	713	San Lucas Tolimán	10	San Lucas Tolimán	10	Octubre	2023-10-21T00:00:00	2024-11-08T08:00:00	4	Temperatura máxima	18.4
154547	7	Sololá	713	San Lucas Tolimán	10	San Lucas Tolimán	10	Octubre	2023-10-21T00:00:00	2024-11-08T08:00:00	3	Temperatura mínima	15.6
154548	7	Sololá	713	San Lucas Tolimán	10	San Lucas Tolimán	10	Octubre	2023-10-21T00:00:00	2024-11-08T08:00:00	5	Humedad	83
154549	7	Sololá	713	San Lucas Tolimán	10	San Lucas Tolimán	10	Octubre	2023-10-21T00:00:00	2024-11-08T08:00:00	6	Velocidad del viento	1.6
154550	7	Sololá	713	San Lucas Tolimán	10	San Lucas Tolimán	10	Octubre	2023-10-21T00:00:00	2024-11-08T08:00:00	7	Dirección del viento	1.61
154551	7	Sololá	713	San Lucas Tolimán	10	San Lucas Tolimán	10	Octubre	2023-10-21T00:00:00	2024-11-08T08:00:00	1	Precipitación	0
154552	7	Sololá	713	San Lucas Tolimán	10	San Lucas Tolimán	10	Octubre	2023-10-21T00:00:00	2024-11-08T08:00:00	8	Radiación solar	211
154553	7	Sololá	713	San Lucas Tolimán	10	San Lucas Tolimán	10	Octubre	2023-10-21T00:00:00	2024-11-08T09:00:00	2	Temperatura media	20.2
154554	7	Sololá	713	San Lucas Tolimán	10	San Lucas Tolimán	10	Octubre	2023-10-21T00:00:00	2024-11-08T09:00:00	4	Temperatura máxima	20.2
154555	7	Sololá	713	San Lucas Tolimán	10	San Lucas Tolimán	10	Octubre	2023-10-21T00:00:00	2024-11-08T09:00:00	3	Temperatura mínima	18.4
154556	7	Sololá	713	San Lucas Tolimán	10	San Lucas Tolimán	10	Octubre	2023-10-21T00:00:00	2024-11-08T09:00:00	5	Humedad	76
154557	7	Sololá	713	San Lucas Tolimán	10	San Lucas Tolimán	10	Octubre	2023-10-21T00:00:00	2024-11-08T09:00:00	6	Velocidad del viento	1.6
154558	7	Sololá	713	San Lucas Tolimán	10	San Lucas Tolimán	10	Octubre	2023-10-21T00:00:00	2024-11-08T09:00:00	7	Dirección del viento	1.61
154559	7	Sololá	713	San Lucas Tolimán	10	San Lucas Tolimán	10	Octubre	2023-10-21T00:00:00	2024-11-08T09:00:00	1	Precipitación	0
154560	7	Sololá	713	San Lucas Tolimán	10	San Lucas Tolimán	10	Octubre	2023-10-21T00:00:00	2024-11-08T09:00:00	8	Radiación solar	207
154561	7	Sololá	713	San Lucas Tolimán	10	San Lucas Tolimán	10	Octubre	2023-10-21T00:00:00	2024-11-08T10:00:00	2	Temperatura media	21.8
154562	7	Sololá	713	San Lucas Tolimán	10	San Lucas Tolimán	10	Octubre	2023-10-21T00:00:00	2024-11-08T10:00:00	4	Temperatura máxima	22.2
154563	7	Sololá	713	San Lucas Tolimán	10	San Lucas Tolimán	10	Octubre	2023-10-21T00:00:00	2024-11-08T10:00:00	3	Temperatura mínima	20.2
154564	7	Sololá	713	San Lucas Tolimán	10	San Lucas Tolimán	10	Octubre	2023-10-21T00:00:00	2024-11-08T10:00:00	5	Humedad	72
154565	7	Sololá	713	San Lucas Tolimán	10	San Lucas Tolimán	10	Octubre	2023-10-21T00:00:00	2024-11-08T10:00:00	6	Velocidad del viento	1.6
154566	7	Sololá	713	San Lucas Tolimán	10	San Lucas Tolimán	10	Octubre	2023-10-21T00:00:00	2024-11-08T10:00:00	7	Dirección del viento	1.61
154567	7	Sololá	713	San Lucas Tolimán	10	San Lucas Tolimán	10	Octubre	2023-10-21T00:00:00	2024-11-08T10:00:00	1	Precipitación	0
154568	7	Sololá	713	San Lucas Tolimán	10	San Lucas Tolimán	10	Octubre	2023-10-21T00:00:00	2024-11-08T10:00:00	8	Radiación solar	298
154569	7	Sololá	713	San Lucas Tolimán	10	San Lucas Tolimán	10	Octubre	2023-10-21T00:00:00	2024-11-08T11:00:00	2	Temperatura media	22.8
154570	7	Sololá	713	San Lucas Tolimán	10	San Lucas Tolimán	10	Octubre	2023-10-21T00:00:00	2024-11-08T11:00:00	4	Temperatura máxima	22.9
154571	7	Sololá	713	San Lucas Tolimán	10	San Lucas Tolimán	10	Octubre	2023-10-21T00:00:00	2024-11-08T11:00:00	3	Temperatura mínima	21.7
154572	7	Sololá	713	San Lucas Tolimán	10	San Lucas Tolimán	10	Octubre	2023-10-21T00:00:00	2024-11-08T11:00:00	5	Humedad	77
154573	7	Sololá	713	San Lucas Tolimán	10	San Lucas Tolimán	10	Octubre	2023-10-21T00:00:00	2024-11-08T11:00:00	6	Velocidad del viento	6.4
154574	7	Sololá	713	San Lucas Tolimán	10	San Lucas Tolimán	10	Octubre	2023-10-21T00:00:00	2024-11-08T11:00:00	7	Dirección del viento	6.44
154575	7	Sololá	713	San Lucas Tolimán	10	San Lucas Tolimán	10	Octubre	2023-10-21T00:00:00	2024-11-08T11:00:00	1	Precipitación	0
154576	7	Sololá	713	San Lucas Tolimán	10	San Lucas Tolimán	10	Octubre	2023-10-21T00:00:00	2024-11-08T11:00:00	8	Radiación solar	862
154577	7	Sololá	713	San Lucas Tolimán	10	San Lucas Tolimán	10	Octubre	2023-10-21T00:00:00	2024-11-08T12:00:00	2	Temperatura media	23.3
154578	7	Sololá	713	San Lucas Tolimán	10	San Lucas Tolimán	10	Octubre	2023-10-21T00:00:00	2024-11-08T12:00:00	4	Temperatura máxima	23.5
154579	7	Sololá	713	San Lucas Tolimán	10	San Lucas Tolimán	10	Octubre	2023-10-21T00:00:00	2024-11-08T12:00:00	3	Temperatura mínima	22.6
154580	7	Sololá	713	San Lucas Tolimán	10	San Lucas Tolimán	10	Octubre	2023-10-21T00:00:00	2024-11-08T12:00:00	5	Humedad	79
154581	7	Sololá	713	San Lucas Tolimán	10	San Lucas Tolimán	10	Octubre	2023-10-21T00:00:00	2024-11-08T12:00:00	6	Velocidad del viento	8
154582	7	Sololá	713	San Lucas Tolimán	10	San Lucas Tolimán	10	Octubre	2023-10-21T00:00:00	2024-11-08T12:00:00	7	Dirección del viento	8.05
154583	7	Sololá	713	San Lucas Tolimán	10	San Lucas Tolimán	10	Octubre	2023-10-21T00:00:00	2024-11-08T12:00:00	1	Precipitación	0
154584	7	Sololá	713	San Lucas Tolimán	10	San Lucas Tolimán	10	Octubre	2023-10-21T00:00:00	2024-11-08T12:00:00	8	Radiación solar	945
154585	7	Sololá	713	San Lucas Tolimán	10	San Lucas Tolimán	10	Octubre	2023-10-21T00:00:00	2024-11-08T13:00:00	2	Temperatura media	23
154586	7	Sololá	713	San Lucas Tolimán	10	San Lucas Tolimán	10	Octubre	2023-10-21T00:00:00	2024-11-08T13:00:00	4	Temperatura máxima	23.6
154587	7	Sololá	713	San Lucas Tolimán	10	San Lucas Tolimán	10	Octubre	2023-10-21T00:00:00	2024-11-08T13:00:00	3	Temperatura mínima	22.8
154588	7	Sololá	713	San Lucas Tolimán	10	San Lucas Tolimán	10	Octubre	2023-10-21T00:00:00	2024-11-08T13:00:00	5	Humedad	76
154589	7	Sololá	713	San Lucas Tolimán	10	San Lucas Tolimán	10	Octubre	2023-10-21T00:00:00	2024-11-08T13:00:00	6	Velocidad del viento	12.9
154590	7	Sololá	713	San Lucas Tolimán	10	San Lucas Tolimán	10	Octubre	2023-10-21T00:00:00	2024-11-08T13:00:00	7	Dirección del viento	12.87
154591	7	Sololá	713	San Lucas Tolimán	10	San Lucas Tolimán	10	Octubre	2023-10-21T00:00:00	2024-11-08T13:00:00	1	Precipitación	0
154592	7	Sololá	713	San Lucas Tolimán	10	San Lucas Tolimán	10	Octubre	2023-10-21T00:00:00	2024-11-08T13:00:00	8	Radiación solar	670
154593	7	Sololá	713	San Lucas Tolimán	10	San Lucas Tolimán	10	Octubre	2023-10-21T00:00:00	2024-11-08T14:00:00	2	Temperatura media	22.4
154594	7	Sololá	713	San Lucas Tolimán	10	San Lucas Tolimán	10	Octubre	2023-10-21T00:00:00	2024-11-08T14:00:00	4	Temperatura máxima	23
154595	7	Sololá	713	San Lucas Tolimán	10	San Lucas Tolimán	10	Octubre	2023-10-21T00:00:00	2024-11-08T14:00:00	3	Temperatura mínima	21.1
154596	7	Sololá	713	San Lucas Tolimán	10	San Lucas Tolimán	10	Octubre	2023-10-21T00:00:00	2024-11-08T14:00:00	5	Humedad	80
154597	7	Sololá	713	San Lucas Tolimán	10	San Lucas Tolimán	10	Octubre	2023-10-21T00:00:00	2024-11-08T14:00:00	6	Velocidad del viento	11.3
154598	7	Sololá	713	San Lucas Tolimán	10	San Lucas Tolimán	10	Octubre	2023-10-21T00:00:00	2024-11-08T14:00:00	7	Dirección del viento	11.27
154599	7	Sololá	713	San Lucas Tolimán	10	San Lucas Tolimán	10	Octubre	2023-10-21T00:00:00	2024-11-08T14:00:00	1	Precipitación	0
154600	7	Sololá	713	San Lucas Tolimán	10	San Lucas Tolimán	10	Octubre	2023-10-21T00:00:00	2024-11-08T14:00:00	8	Radiación solar	643
154601	7	Sololá	713	San Lucas Tolimán	10	San Lucas Tolimán	10	Octubre	2023-10-21T00:00:00	2024-11-08T15:00:00	2	Temperatura media	20.6
154602	7	Sololá	713	San Lucas Tolimán	10	San Lucas Tolimán	10	Octubre	2023-10-21T00:00:00	2024-11-08T15:00:00	4	Temperatura máxima	22.7
154603	7	Sololá	713	San Lucas Tolimán	10	San Lucas Tolimán	10	Octubre	2023-10-21T00:00:00	2024-11-08T15:00:00	3	Temperatura mínima	20.6
154604	7	Sololá	713	San Lucas Tolimán	10	San Lucas Tolimán	10	Octubre	2023-10-21T00:00:00	2024-11-08T15:00:00	5	Humedad	87
154605	7	Sololá	713	San Lucas Tolimán	10	San Lucas Tolimán	10	Octubre	2023-10-21T00:00:00	2024-11-08T15:00:00	6	Velocidad del viento	11.3
154606	7	Sololá	713	San Lucas Tolimán	10	San Lucas Tolimán	10	Octubre	2023-10-21T00:00:00	2024-11-08T15:00:00	7	Dirección del viento	11.27
154607	7	Sololá	713	San Lucas Tolimán	10	San Lucas Tolimán	10	Octubre	2023-10-21T00:00:00	2024-11-08T15:00:00	1	Precipitación	0
154608	7	Sololá	713	San Lucas Tolimán	10	San Lucas Tolimán	10	Octubre	2023-10-21T00:00:00	2024-11-08T15:00:00	8	Radiación solar	617
154609	7	Sololá	713	San Lucas Tolimán	10	San Lucas Tolimán	10	Octubre	2023-10-21T00:00:00	2024-11-08T16:00:00	2	Temperatura media	19.8
154610	7	Sololá	713	San Lucas Tolimán	10	San Lucas Tolimán	10	Octubre	2023-10-21T00:00:00	2024-11-08T16:00:00	4	Temperatura máxima	20.6
154611	7	Sololá	713	San Lucas Tolimán	10	San Lucas Tolimán	10	Octubre	2023-10-21T00:00:00	2024-11-08T16:00:00	3	Temperatura mínima	19.4
154612	7	Sololá	713	San Lucas Tolimán	10	San Lucas Tolimán	10	Octubre	2023-10-21T00:00:00	2024-11-08T16:00:00	5	Humedad	85
154613	7	Sololá	713	San Lucas Tolimán	10	San Lucas Tolimán	10	Octubre	2023-10-21T00:00:00	2024-11-08T16:00:00	6	Velocidad del viento	9.7
154614	7	Sololá	713	San Lucas Tolimán	10	San Lucas Tolimán	10	Octubre	2023-10-21T00:00:00	2024-11-08T16:00:00	7	Dirección del viento	9.66
154615	7	Sololá	713	San Lucas Tolimán	10	San Lucas Tolimán	10	Octubre	2023-10-21T00:00:00	2024-11-08T16:00:00	1	Precipitación	0
154616	7	Sololá	713	San Lucas Tolimán	10	San Lucas Tolimán	10	Octubre	2023-10-21T00:00:00	2024-11-08T16:00:00	8	Radiación solar	273
154617	7	Sololá	713	San Lucas Tolimán	10	San Lucas Tolimán	10	Octubre	2023-10-21T00:00:00	2024-11-08T17:00:00	2	Temperatura media	18.4
154618	7	Sololá	713	San Lucas Tolimán	10	San Lucas Tolimán	10	Octubre	2023-10-21T00:00:00	2024-11-08T17:00:00	4	Temperatura máxima	19.8
154619	7	Sololá	713	San Lucas Tolimán	10	San Lucas Tolimán	10	Octubre	2023-10-21T00:00:00	2024-11-08T17:00:00	3	Temperatura mínima	18.4
154620	7	Sololá	713	San Lucas Tolimán	10	San Lucas Tolimán	10	Octubre	2023-10-21T00:00:00	2024-11-08T17:00:00	5	Humedad	89
154621	7	Sololá	713	San Lucas Tolimán	10	San Lucas Tolimán	10	Octubre	2023-10-21T00:00:00	2024-11-08T17:00:00	6	Velocidad del viento	8
154622	7	Sololá	713	San Lucas Tolimán	10	San Lucas Tolimán	10	Octubre	2023-10-21T00:00:00	2024-11-08T17:00:00	7	Dirección del viento	8.05
154623	7	Sololá	713	San Lucas Tolimán	10	San Lucas Tolimán	10	Octubre	2023-10-21T00:00:00	2024-11-08T17:00:00	1	Precipitación	0
154624	7	Sololá	713	San Lucas Tolimán	10	San Lucas Tolimán	10	Octubre	2023-10-21T00:00:00	2024-11-08T17:00:00	8	Radiación solar	66
154625	7	Sololá	713	San Lucas Tolimán	10	San Lucas Tolimán	10	Octubre	2023-10-21T00:00:00	2024-11-08T18:00:00	2	Temperatura media	18
154626	7	Sololá	713	San Lucas Tolimán	10	San Lucas Tolimán	10	Octubre	2023-10-21T00:00:00	2024-11-08T18:00:00	4	Temperatura máxima	18.4
154627	7	Sololá	713	San Lucas Tolimán	10	San Lucas Tolimán	10	Octubre	2023-10-21T00:00:00	2024-11-08T18:00:00	3	Temperatura mínima	17.9
154628	7	Sololá	713	San Lucas Tolimán	10	San Lucas Tolimán	10	Octubre	2023-10-21T00:00:00	2024-11-08T18:00:00	5	Humedad	92
154629	7	Sololá	713	San Lucas Tolimán	10	San Lucas Tolimán	10	Octubre	2023-10-21T00:00:00	2024-11-08T18:00:00	6	Velocidad del viento	8
154630	7	Sololá	713	San Lucas Tolimán	10	San Lucas Tolimán	10	Octubre	2023-10-21T00:00:00	2024-11-08T18:00:00	7	Dirección del viento	8.05
154631	7	Sololá	713	San Lucas Tolimán	10	San Lucas Tolimán	10	Octubre	2023-10-21T00:00:00	2024-11-08T18:00:00	1	Precipitación	0
154632	7	Sololá	713	San Lucas Tolimán	10	San Lucas Tolimán	10	Octubre	2023-10-21T00:00:00	2024-11-08T18:00:00	8	Radiación solar	8
154633	7	Sololá	713	San Lucas Tolimán	10	San Lucas Tolimán	10	Octubre	2023-10-21T00:00:00	2024-11-08T19:00:00	2	Temperatura media	18.3
154634	7	Sololá	713	San Lucas Tolimán	10	San Lucas Tolimán	10	Octubre	2023-10-21T00:00:00	2024-11-08T19:00:00	4	Temperatura máxima	18.3
154635	7	Sololá	713	San Lucas Tolimán	10	San Lucas Tolimán	10	Octubre	2023-10-21T00:00:00	2024-11-08T19:00:00	3	Temperatura mínima	18
154636	7	Sololá	713	San Lucas Tolimán	10	San Lucas Tolimán	10	Octubre	2023-10-21T00:00:00	2024-11-08T19:00:00	5	Humedad	91
154637	7	Sololá	713	San Lucas Tolimán	10	San Lucas Tolimán	10	Octubre	2023-10-21T00:00:00	2024-11-08T19:00:00	6	Velocidad del viento	3.2
154638	7	Sololá	713	San Lucas Tolimán	10	San Lucas Tolimán	10	Octubre	2023-10-21T00:00:00	2024-11-08T19:00:00	7	Dirección del viento	3.22
154639	7	Sololá	713	San Lucas Tolimán	10	San Lucas Tolimán	10	Octubre	2023-10-21T00:00:00	2024-11-08T19:00:00	1	Precipitación	0
154640	7	Sololá	713	San Lucas Tolimán	10	San Lucas Tolimán	10	Octubre	2023-10-21T00:00:00	2024-11-08T19:00:00	8	Radiación solar	0
154641	7	Sololá	713	San Lucas Tolimán	10	San Lucas Tolimán	10	Octubre	2023-10-21T00:00:00	2024-11-08T20:00:00	2	Temperatura media	18.6
154642	7	Sololá	713	San Lucas Tolimán	10	San Lucas Tolimán	10	Octubre	2023-10-21T00:00:00	2024-11-08T20:00:00	4	Temperatura máxima	18.6
154643	7	Sololá	713	San Lucas Tolimán	10	San Lucas Tolimán	10	Octubre	2023-10-21T00:00:00	2024-11-08T20:00:00	3	Temperatura mínima	18.3
154644	7	Sololá	713	San Lucas Tolimán	10	San Lucas Tolimán	10	Octubre	2023-10-21T00:00:00	2024-11-08T20:00:00	5	Humedad	87
154645	7	Sololá	713	San Lucas Tolimán	10	San Lucas Tolimán	10	Octubre	2023-10-21T00:00:00	2024-11-08T20:00:00	6	Velocidad del viento	3.2
154646	7	Sololá	713	San Lucas Tolimán	10	San Lucas Tolimán	10	Octubre	2023-10-21T00:00:00	2024-11-08T20:00:00	7	Dirección del viento	3.22
154647	7	Sololá	713	San Lucas Tolimán	10	San Lucas Tolimán	10	Octubre	2023-10-21T00:00:00	2024-11-08T20:00:00	1	Precipitación	0
154648	7	Sololá	713	San Lucas Tolimán	10	San Lucas Tolimán	10	Octubre	2023-10-21T00:00:00	2024-11-08T20:00:00	8	Radiación solar	0
154649	7	Sololá	713	San Lucas Tolimán	10	San Lucas Tolimán	10	Octubre	2023-10-21T00:00:00	2024-11-08T21:00:00	2	Temperatura media	18.2
154650	7	Sololá	713	San Lucas Tolimán	10	San Lucas Tolimán	10	Octubre	2023-10-21T00:00:00	2024-11-08T21:00:00	4	Temperatura máxima	18.6
154651	7	Sololá	713	San Lucas Tolimán	10	San Lucas Tolimán	10	Octubre	2023-10-21T00:00:00	2024-11-08T21:00:00	3	Temperatura mínima	18.1
154652	7	Sololá	713	San Lucas Tolimán	10	San Lucas Tolimán	10	Octubre	2023-10-21T00:00:00	2024-11-08T21:00:00	5	Humedad	89
154653	7	Sololá	713	San Lucas Tolimán	10	San Lucas Tolimán	10	Octubre	2023-10-21T00:00:00	2024-11-08T21:00:00	6	Velocidad del viento	0
154654	7	Sololá	713	San Lucas Tolimán	10	San Lucas Tolimán	10	Octubre	2023-10-21T00:00:00	2024-11-08T21:00:00	7	Dirección del viento	0
154655	7	Sololá	713	San Lucas Tolimán	10	San Lucas Tolimán	10	Octubre	2023-10-21T00:00:00	2024-11-08T21:00:00	1	Precipitación	0
154656	7	Sololá	713	San Lucas Tolimán	10	San Lucas Tolimán	10	Octubre	2023-10-21T00:00:00	2024-11-08T21:00:00	8	Radiación solar	0
154657	7	Sololá	713	San Lucas Tolimán	10	San Lucas Tolimán	10	Octubre	2023-10-21T00:00:00	2024-11-08T22:00:00	2	Temperatura media	18.2
154658	7	Sololá	713	San Lucas Tolimán	10	San Lucas Tolimán	10	Octubre	2023-10-21T00:00:00	2024-11-08T22:00:00	4	Temperatura máxima	18.2
154659	7	Sololá	713	San Lucas Tolimán	10	San Lucas Tolimán	10	Octubre	2023-10-21T00:00:00	2024-11-08T22:00:00	3	Temperatura mínima	17.9
154660	7	Sololá	713	San Lucas Tolimán	10	San Lucas Tolimán	10	Octubre	2023-10-21T00:00:00	2024-11-08T22:00:00	5	Humedad	89
154661	7	Sololá	713	San Lucas Tolimán	10	San Lucas Tolimán	10	Octubre	2023-10-21T00:00:00	2024-11-08T22:00:00	6	Velocidad del viento	0
154662	7	Sololá	713	San Lucas Tolimán	10	San Lucas Tolimán	10	Octubre	2023-10-21T00:00:00	2024-11-08T22:00:00	7	Dirección del viento	0
154663	7	Sololá	713	San Lucas Tolimán	10	San Lucas Tolimán	10	Octubre	2023-10-21T00:00:00	2024-11-08T22:00:00	1	Precipitación	0
154664	7	Sololá	713	San Lucas Tolimán	10	San Lucas Tolimán	10	Octubre	2023-10-21T00:00:00	2024-11-08T22:00:00	8	Radiación solar	0
154665	7	Sololá	713	San Lucas Tolimán	10	San Lucas Tolimán	10	Octubre	2023-10-21T00:00:00	2024-11-08T23:00:00	2	Temperatura media	17.8
154666	7	Sololá	713	San Lucas Tolimán	10	San Lucas Tolimán	10	Octubre	2023-10-21T00:00:00	2024-11-08T23:00:00	4	Temperatura máxima	18.2
154667	7	Sololá	713	San Lucas Tolimán	10	San Lucas Tolimán	10	Octubre	2023-10-21T00:00:00	2024-11-08T23:00:00	3	Temperatura mínima	17.7
154668	7	Sololá	713	San Lucas Tolimán	10	San Lucas Tolimán	10	Octubre	2023-10-21T00:00:00	2024-11-08T23:00:00	5	Humedad	89
154669	7	Sololá	713	San Lucas Tolimán	10	San Lucas Tolimán	10	Octubre	2023-10-21T00:00:00	2024-11-08T23:00:00	6	Velocidad del viento	1.6
154670	7	Sololá	713	San Lucas Tolimán	10	San Lucas Tolimán	10	Octubre	2023-10-21T00:00:00	2024-11-08T23:00:00	7	Dirección del viento	1.61
154671	7	Sololá	713	San Lucas Tolimán	10	San Lucas Tolimán	10	Octubre	2023-10-21T00:00:00	2024-11-08T23:00:00	1	Precipitación	0
154672	7	Sololá	713	San Lucas Tolimán	10	San Lucas Tolimán	10	Octubre	2023-10-21T00:00:00	2024-11-08T23:00:00	8	Radiación solar	0
154673	7	Sololá	713	San Lucas Tolimán	10	San Lucas Tolimán	10	Octubre	2023-10-22T00:00:00	2024-11-08T00:00:00	2	Temperatura media	17.8
154674	7	Sololá	713	San Lucas Tolimán	10	San Lucas Tolimán	10	Octubre	2023-10-22T00:00:00	2024-11-08T00:00:00	4	Temperatura máxima	17.9
154675	7	Sololá	713	San Lucas Tolimán	10	San Lucas Tolimán	10	Octubre	2023-10-22T00:00:00	2024-11-08T00:00:00	3	Temperatura mínima	17.7
154676	7	Sololá	713	San Lucas Tolimán	10	San Lucas Tolimán	10	Octubre	2023-10-22T00:00:00	2024-11-08T00:00:00	5	Humedad	90
154677	7	Sololá	713	San Lucas Tolimán	10	San Lucas Tolimán	10	Octubre	2023-10-22T00:00:00	2024-11-08T00:00:00	6	Velocidad del viento	0
154678	7	Sololá	713	San Lucas Tolimán	10	San Lucas Tolimán	10	Octubre	2023-10-22T00:00:00	2024-11-08T00:00:00	7	Dirección del viento	0
154679	7	Sololá	713	San Lucas Tolimán	10	San Lucas Tolimán	10	Octubre	2023-10-22T00:00:00	2024-11-08T00:00:00	1	Precipitación	0
154680	7	Sololá	713	San Lucas Tolimán	10	San Lucas Tolimán	10	Octubre	2023-10-22T00:00:00	2024-11-08T00:00:00	8	Radiación solar	0
154681	7	Sololá	713	San Lucas Tolimán	10	San Lucas Tolimán	10	Octubre	2023-10-22T00:00:00	2024-11-08T01:00:00	2	Temperatura media	18.1
154682	7	Sololá	713	San Lucas Tolimán	10	San Lucas Tolimán	10	Octubre	2023-10-22T00:00:00	2024-11-08T01:00:00	4	Temperatura máxima	18.1
154683	7	Sololá	713	San Lucas Tolimán	10	San Lucas Tolimán	10	Octubre	2023-10-22T00:00:00	2024-11-08T01:00:00	3	Temperatura mínima	17.8
154684	7	Sololá	713	San Lucas Tolimán	10	San Lucas Tolimán	10	Octubre	2023-10-22T00:00:00	2024-11-08T01:00:00	5	Humedad	90
154685	7	Sololá	713	San Lucas Tolimán	10	San Lucas Tolimán	10	Octubre	2023-10-22T00:00:00	2024-11-08T01:00:00	6	Velocidad del viento	1.6
154686	7	Sololá	713	San Lucas Tolimán	10	San Lucas Tolimán	10	Octubre	2023-10-22T00:00:00	2024-11-08T01:00:00	7	Dirección del viento	1.61
154687	7	Sololá	713	San Lucas Tolimán	10	San Lucas Tolimán	10	Octubre	2023-10-22T00:00:00	2024-11-08T01:00:00	1	Precipitación	0
154688	7	Sololá	713	San Lucas Tolimán	10	San Lucas Tolimán	10	Octubre	2023-10-22T00:00:00	2024-11-08T01:00:00	8	Radiación solar	0
154689	7	Sololá	713	San Lucas Tolimán	10	San Lucas Tolimán	10	Octubre	2023-10-22T00:00:00	2024-11-08T02:00:00	2	Temperatura media	17.9
154690	7	Sololá	713	San Lucas Tolimán	10	San Lucas Tolimán	10	Octubre	2023-10-22T00:00:00	2024-11-08T02:00:00	4	Temperatura máxima	18.2
154691	7	Sololá	713	San Lucas Tolimán	10	San Lucas Tolimán	10	Octubre	2023-10-22T00:00:00	2024-11-08T02:00:00	3	Temperatura mínima	17.8
154692	7	Sololá	713	San Lucas Tolimán	10	San Lucas Tolimán	10	Octubre	2023-10-22T00:00:00	2024-11-08T02:00:00	5	Humedad	91
154693	7	Sololá	713	San Lucas Tolimán	10	San Lucas Tolimán	10	Octubre	2023-10-22T00:00:00	2024-11-08T02:00:00	6	Velocidad del viento	1.6
154694	7	Sololá	713	San Lucas Tolimán	10	San Lucas Tolimán	10	Octubre	2023-10-22T00:00:00	2024-11-08T02:00:00	7	Dirección del viento	1.61
154695	7	Sololá	713	San Lucas Tolimán	10	San Lucas Tolimán	10	Octubre	2023-10-22T00:00:00	2024-11-08T02:00:00	1	Precipitación	0
154696	7	Sololá	713	San Lucas Tolimán	10	San Lucas Tolimán	10	Octubre	2023-10-22T00:00:00	2024-11-08T02:00:00	8	Radiación solar	0
154697	7	Sololá	713	San Lucas Tolimán	10	San Lucas Tolimán	10	Octubre	2023-10-22T00:00:00	2024-11-08T03:00:00	2	Temperatura media	17.2
154698	7	Sololá	713	San Lucas Tolimán	10	San Lucas Tolimán	10	Octubre	2023-10-22T00:00:00	2024-11-08T03:00:00	4	Temperatura máxima	17.8
154699	7	Sololá	713	San Lucas Tolimán	10	San Lucas Tolimán	10	Octubre	2023-10-22T00:00:00	2024-11-08T03:00:00	3	Temperatura mínima	17.2
154700	7	Sololá	713	San Lucas Tolimán	10	San Lucas Tolimán	10	Octubre	2023-10-22T00:00:00	2024-11-08T03:00:00	5	Humedad	61
154701	7	Sololá	713	San Lucas Tolimán	10	San Lucas Tolimán	10	Octubre	2023-10-22T00:00:00	2024-11-08T03:00:00	6	Velocidad del viento	1.6
154702	7	Sololá	713	San Lucas Tolimán	10	San Lucas Tolimán	10	Octubre	2023-10-22T00:00:00	2024-11-08T03:00:00	7	Dirección del viento	1.61
154703	7	Sololá	713	San Lucas Tolimán	10	San Lucas Tolimán	10	Octubre	2023-10-22T00:00:00	2024-11-08T03:00:00	1	Precipitación	0
154704	7	Sololá	713	San Lucas Tolimán	10	San Lucas Tolimán	10	Octubre	2023-10-22T00:00:00	2024-11-08T03:00:00	8	Radiación solar	0
154705	7	Sololá	713	San Lucas Tolimán	10	San Lucas Tolimán	10	Octubre	2023-10-22T00:00:00	2024-11-08T04:00:00	2	Temperatura media	17.9
154706	7	Sololá	713	San Lucas Tolimán	10	San Lucas Tolimán	10	Octubre	2023-10-22T00:00:00	2024-11-08T04:00:00	4	Temperatura máxima	17.9
154707	7	Sololá	713	San Lucas Tolimán	10	San Lucas Tolimán	10	Octubre	2023-10-22T00:00:00	2024-11-08T04:00:00	3	Temperatura mínima	17.2
154708	7	Sololá	713	San Lucas Tolimán	10	San Lucas Tolimán	10	Octubre	2023-10-22T00:00:00	2024-11-08T04:00:00	5	Humedad	59
154709	7	Sololá	713	San Lucas Tolimán	10	San Lucas Tolimán	10	Octubre	2023-10-22T00:00:00	2024-11-08T04:00:00	6	Velocidad del viento	0
154710	7	Sololá	713	San Lucas Tolimán	10	San Lucas Tolimán	10	Octubre	2023-10-22T00:00:00	2024-11-08T04:00:00	7	Dirección del viento	0
154711	7	Sololá	713	San Lucas Tolimán	10	San Lucas Tolimán	10	Octubre	2023-10-22T00:00:00	2024-11-08T04:00:00	1	Precipitación	0
154712	7	Sololá	713	San Lucas Tolimán	10	San Lucas Tolimán	10	Octubre	2023-10-22T00:00:00	2024-11-08T04:00:00	8	Radiación solar	0
154713	7	Sololá	713	San Lucas Tolimán	10	San Lucas Tolimán	10	Octubre	2023-10-22T00:00:00	2024-11-08T05:00:00	2	Temperatura media	17.6
154714	7	Sololá	713	San Lucas Tolimán	10	San Lucas Tolimán	10	Octubre	2023-10-22T00:00:00	2024-11-08T05:00:00	4	Temperatura máxima	18.1
154715	7	Sololá	713	San Lucas Tolimán	10	San Lucas Tolimán	10	Octubre	2023-10-22T00:00:00	2024-11-08T05:00:00	3	Temperatura mínima	17.6
154716	7	Sololá	713	San Lucas Tolimán	10	San Lucas Tolimán	10	Octubre	2023-10-22T00:00:00	2024-11-08T05:00:00	5	Humedad	60
154717	7	Sololá	713	San Lucas Tolimán	10	San Lucas Tolimán	10	Octubre	2023-10-22T00:00:00	2024-11-08T05:00:00	6	Velocidad del viento	0
154718	7	Sololá	713	San Lucas Tolimán	10	San Lucas Tolimán	10	Octubre	2023-10-22T00:00:00	2024-11-08T05:00:00	7	Dirección del viento	0
154719	7	Sololá	713	San Lucas Tolimán	10	San Lucas Tolimán	10	Octubre	2023-10-22T00:00:00	2024-11-08T05:00:00	1	Precipitación	0
154720	7	Sololá	713	San Lucas Tolimán	10	San Lucas Tolimán	10	Octubre	2023-10-22T00:00:00	2024-11-08T05:00:00	8	Radiación solar	0
154721	7	Sololá	713	San Lucas Tolimán	10	San Lucas Tolimán	10	Octubre	2023-10-22T00:00:00	2024-11-08T06:00:00	2	Temperatura media	16.3
154722	7	Sololá	713	San Lucas Tolimán	10	San Lucas Tolimán	10	Octubre	2023-10-22T00:00:00	2024-11-08T06:00:00	4	Temperatura máxima	17.6
154723	7	Sololá	713	San Lucas Tolimán	10	San Lucas Tolimán	10	Octubre	2023-10-22T00:00:00	2024-11-08T06:00:00	3	Temperatura mínima	16.3
154724	7	Sololá	713	San Lucas Tolimán	10	San Lucas Tolimán	10	Octubre	2023-10-22T00:00:00	2024-11-08T06:00:00	5	Humedad	61
154725	7	Sololá	713	San Lucas Tolimán	10	San Lucas Tolimán	10	Octubre	2023-10-22T00:00:00	2024-11-08T06:00:00	6	Velocidad del viento	1.6
154726	7	Sololá	713	San Lucas Tolimán	10	San Lucas Tolimán	10	Octubre	2023-10-22T00:00:00	2024-11-08T06:00:00	7	Dirección del viento	1.61
154727	7	Sololá	713	San Lucas Tolimán	10	San Lucas Tolimán	10	Octubre	2023-10-22T00:00:00	2024-11-08T06:00:00	1	Precipitación	0
154728	7	Sololá	713	San Lucas Tolimán	10	San Lucas Tolimán	10	Octubre	2023-10-22T00:00:00	2024-11-08T06:00:00	8	Radiación solar	0
154729	7	Sololá	713	San Lucas Tolimán	10	San Lucas Tolimán	10	Octubre	2023-10-22T00:00:00	2024-11-08T07:00:00	2	Temperatura media	17.3
154730	7	Sololá	713	San Lucas Tolimán	10	San Lucas Tolimán	10	Octubre	2023-10-22T00:00:00	2024-11-08T07:00:00	4	Temperatura máxima	17.3
154731	7	Sololá	713	San Lucas Tolimán	10	San Lucas Tolimán	10	Octubre	2023-10-22T00:00:00	2024-11-08T07:00:00	3	Temperatura mínima	16.3
154732	7	Sololá	713	San Lucas Tolimán	10	San Lucas Tolimán	10	Octubre	2023-10-22T00:00:00	2024-11-08T07:00:00	5	Humedad	60
154733	7	Sololá	713	San Lucas Tolimán	10	San Lucas Tolimán	10	Octubre	2023-10-22T00:00:00	2024-11-08T07:00:00	6	Velocidad del viento	1.6
154734	7	Sololá	713	San Lucas Tolimán	10	San Lucas Tolimán	10	Octubre	2023-10-22T00:00:00	2024-11-08T07:00:00	7	Dirección del viento	1.61
154735	7	Sololá	713	San Lucas Tolimán	10	San Lucas Tolimán	10	Octubre	2023-10-22T00:00:00	2024-11-08T07:00:00	1	Precipitación	0
154736	7	Sololá	713	San Lucas Tolimán	10	San Lucas Tolimán	10	Octubre	2023-10-22T00:00:00	2024-11-08T07:00:00	8	Radiación solar	23
154737	7	Sololá	713	San Lucas Tolimán	10	San Lucas Tolimán	10	Octubre	2023-10-22T00:00:00	2024-11-08T08:00:00	2	Temperatura media	20.2
154738	7	Sololá	713	San Lucas Tolimán	10	San Lucas Tolimán	10	Octubre	2023-10-22T00:00:00	2024-11-08T08:00:00	4	Temperatura máxima	20.2
154739	7	Sololá	713	San Lucas Tolimán	10	San Lucas Tolimán	10	Octubre	2023-10-22T00:00:00	2024-11-08T08:00:00	3	Temperatura mínima	17.3
154740	7	Sololá	713	San Lucas Tolimán	10	San Lucas Tolimán	10	Octubre	2023-10-22T00:00:00	2024-11-08T08:00:00	5	Humedad	58
154741	7	Sololá	713	San Lucas Tolimán	10	San Lucas Tolimán	10	Octubre	2023-10-22T00:00:00	2024-11-08T08:00:00	6	Velocidad del viento	3.2
154742	7	Sololá	713	San Lucas Tolimán	10	San Lucas Tolimán	10	Octubre	2023-10-22T00:00:00	2024-11-08T08:00:00	7	Dirección del viento	3.22
154743	7	Sololá	713	San Lucas Tolimán	10	San Lucas Tolimán	10	Octubre	2023-10-22T00:00:00	2024-11-08T08:00:00	1	Precipitación	0
154744	7	Sololá	713	San Lucas Tolimán	10	San Lucas Tolimán	10	Octubre	2023-10-22T00:00:00	2024-11-08T08:00:00	8	Radiación solar	184
154745	7	Sololá	713	San Lucas Tolimán	10	San Lucas Tolimán	10	Octubre	2023-10-22T00:00:00	2024-11-08T09:00:00	2	Temperatura media	21.5
154746	7	Sololá	713	San Lucas Tolimán	10	San Lucas Tolimán	10	Octubre	2023-10-22T00:00:00	2024-11-08T09:00:00	4	Temperatura máxima	21.5
154747	7	Sololá	713	San Lucas Tolimán	10	San Lucas Tolimán	10	Octubre	2023-10-22T00:00:00	2024-11-08T09:00:00	3	Temperatura mínima	20.2
154748	7	Sololá	713	San Lucas Tolimán	10	San Lucas Tolimán	10	Octubre	2023-10-22T00:00:00	2024-11-08T09:00:00	5	Humedad	53
154749	7	Sololá	713	San Lucas Tolimán	10	San Lucas Tolimán	10	Octubre	2023-10-22T00:00:00	2024-11-08T09:00:00	6	Velocidad del viento	4.8
154750	7	Sololá	713	San Lucas Tolimán	10	San Lucas Tolimán	10	Octubre	2023-10-22T00:00:00	2024-11-08T09:00:00	7	Dirección del viento	4.83
154751	7	Sololá	713	San Lucas Tolimán	10	San Lucas Tolimán	10	Octubre	2023-10-22T00:00:00	2024-11-08T09:00:00	1	Precipitación	0
154752	7	Sololá	713	San Lucas Tolimán	10	San Lucas Tolimán	10	Octubre	2023-10-22T00:00:00	2024-11-08T09:00:00	8	Radiación solar	427
154753	7	Sololá	713	San Lucas Tolimán	10	San Lucas Tolimán	10	Octubre	2023-10-22T00:00:00	2024-11-08T10:00:00	2	Temperatura media	22.7
154754	7	Sololá	713	San Lucas Tolimán	10	San Lucas Tolimán	10	Octubre	2023-10-22T00:00:00	2024-11-08T10:00:00	4	Temperatura máxima	23.2
154755	7	Sololá	713	San Lucas Tolimán	10	San Lucas Tolimán	10	Octubre	2023-10-22T00:00:00	2024-11-08T10:00:00	3	Temperatura mínima	21.4
154756	7	Sololá	713	San Lucas Tolimán	10	San Lucas Tolimán	10	Octubre	2023-10-22T00:00:00	2024-11-08T10:00:00	5	Humedad	58
154757	7	Sololá	713	San Lucas Tolimán	10	San Lucas Tolimán	10	Octubre	2023-10-22T00:00:00	2024-11-08T10:00:00	6	Velocidad del viento	8
154758	7	Sololá	713	San Lucas Tolimán	10	San Lucas Tolimán	10	Octubre	2023-10-22T00:00:00	2024-11-08T10:00:00	7	Dirección del viento	8.05
154759	7	Sololá	713	San Lucas Tolimán	10	San Lucas Tolimán	10	Octubre	2023-10-22T00:00:00	2024-11-08T10:00:00	1	Precipitación	0
154760	7	Sololá	713	San Lucas Tolimán	10	San Lucas Tolimán	10	Octubre	2023-10-22T00:00:00	2024-11-08T10:00:00	8	Radiación solar	711
154761	7	Sololá	713	San Lucas Tolimán	10	San Lucas Tolimán	10	Octubre	2023-10-22T00:00:00	2024-11-08T11:00:00	2	Temperatura media	22.9
154762	7	Sololá	713	San Lucas Tolimán	10	San Lucas Tolimán	10	Octubre	2023-10-22T00:00:00	2024-11-08T11:00:00	4	Temperatura máxima	23.2
154763	7	Sololá	713	San Lucas Tolimán	10	San Lucas Tolimán	10	Octubre	2023-10-22T00:00:00	2024-11-08T11:00:00	3	Temperatura mínima	22.4
154764	7	Sololá	713	San Lucas Tolimán	10	San Lucas Tolimán	10	Octubre	2023-10-22T00:00:00	2024-11-08T11:00:00	5	Humedad	55
154765	7	Sololá	713	San Lucas Tolimán	10	San Lucas Tolimán	10	Octubre	2023-10-22T00:00:00	2024-11-08T11:00:00	6	Velocidad del viento	12.9
154766	7	Sololá	713	San Lucas Tolimán	10	San Lucas Tolimán	10	Octubre	2023-10-22T00:00:00	2024-11-08T11:00:00	7	Dirección del viento	12.87
154767	7	Sololá	713	San Lucas Tolimán	10	San Lucas Tolimán	10	Octubre	2023-10-22T00:00:00	2024-11-08T11:00:00	1	Precipitación	0
154768	7	Sololá	713	San Lucas Tolimán	10	San Lucas Tolimán	10	Octubre	2023-10-22T00:00:00	2024-11-08T11:00:00	8	Radiación solar	938
154769	7	Sololá	713	San Lucas Tolimán	10	San Lucas Tolimán	10	Octubre	2023-10-22T00:00:00	2024-11-08T12:00:00	2	Temperatura media	24.1
154770	7	Sololá	713	San Lucas Tolimán	10	San Lucas Tolimán	10	Octubre	2023-10-22T00:00:00	2024-11-08T12:00:00	4	Temperatura máxima	24.2
154771	7	Sololá	713	San Lucas Tolimán	10	San Lucas Tolimán	10	Octubre	2023-10-22T00:00:00	2024-11-08T12:00:00	3	Temperatura mínima	22.9
154772	7	Sololá	713	San Lucas Tolimán	10	San Lucas Tolimán	10	Octubre	2023-10-22T00:00:00	2024-11-08T12:00:00	5	Humedad	52
154773	7	Sololá	713	San Lucas Tolimán	10	San Lucas Tolimán	10	Octubre	2023-10-22T00:00:00	2024-11-08T12:00:00	6	Velocidad del viento	9.7
154774	7	Sololá	713	San Lucas Tolimán	10	San Lucas Tolimán	10	Octubre	2023-10-22T00:00:00	2024-11-08T12:00:00	7	Dirección del viento	9.66
154775	7	Sololá	713	San Lucas Tolimán	10	San Lucas Tolimán	10	Octubre	2023-10-22T00:00:00	2024-11-08T12:00:00	1	Precipitación	0
154776	7	Sololá	713	San Lucas Tolimán	10	San Lucas Tolimán	10	Octubre	2023-10-22T00:00:00	2024-11-08T12:00:00	8	Radiación solar	945
154777	7	Sololá	713	San Lucas Tolimán	10	San Lucas Tolimán	10	Octubre	2023-10-22T00:00:00	2024-11-08T13:00:00	2	Temperatura media	21.9
154778	7	Sololá	713	San Lucas Tolimán	10	San Lucas Tolimán	10	Octubre	2023-10-22T00:00:00	2024-11-08T13:00:00	4	Temperatura máxima	24.1
154779	7	Sololá	713	San Lucas Tolimán	10	San Lucas Tolimán	10	Octubre	2023-10-22T00:00:00	2024-11-08T13:00:00	3	Temperatura mínima	21.9
154780	7	Sololá	713	San Lucas Tolimán	10	San Lucas Tolimán	10	Octubre	2023-10-22T00:00:00	2024-11-08T13:00:00	5	Humedad	62
154781	7	Sololá	713	San Lucas Tolimán	10	San Lucas Tolimán	10	Octubre	2023-10-22T00:00:00	2024-11-08T13:00:00	6	Velocidad del viento	9.7
154782	7	Sololá	713	San Lucas Tolimán	10	San Lucas Tolimán	10	Octubre	2023-10-22T00:00:00	2024-11-08T13:00:00	7	Dirección del viento	9.66
154783	7	Sololá	713	San Lucas Tolimán	10	San Lucas Tolimán	10	Octubre	2023-10-22T00:00:00	2024-11-08T13:00:00	1	Precipitación	0
154784	7	Sololá	713	San Lucas Tolimán	10	San Lucas Tolimán	10	Octubre	2023-10-22T00:00:00	2024-11-08T13:00:00	8	Radiación solar	605
154785	7	Sololá	713	San Lucas Tolimán	10	San Lucas Tolimán	10	Octubre	2023-10-22T00:00:00	2024-11-08T14:00:00	2	Temperatura media	19.3
154786	7	Sololá	713	San Lucas Tolimán	10	San Lucas Tolimán	10	Octubre	2023-10-22T00:00:00	2024-11-08T14:00:00	4	Temperatura máxima	21.9
154787	7	Sololá	713	San Lucas Tolimán	10	San Lucas Tolimán	10	Octubre	2023-10-22T00:00:00	2024-11-08T14:00:00	3	Temperatura mínima	19.2
154788	7	Sololá	713	San Lucas Tolimán	10	San Lucas Tolimán	10	Octubre	2023-10-22T00:00:00	2024-11-08T14:00:00	5	Humedad	60
154789	7	Sololá	713	San Lucas Tolimán	10	San Lucas Tolimán	10	Octubre	2023-10-22T00:00:00	2024-11-08T14:00:00	6	Velocidad del viento	9.7
154790	7	Sololá	713	San Lucas Tolimán	10	San Lucas Tolimán	10	Octubre	2023-10-22T00:00:00	2024-11-08T14:00:00	7	Dirección del viento	9.66
154791	7	Sololá	713	San Lucas Tolimán	10	San Lucas Tolimán	10	Octubre	2023-10-22T00:00:00	2024-11-08T14:00:00	1	Precipitación	5.6
154792	7	Sololá	713	San Lucas Tolimán	10	San Lucas Tolimán	10	Octubre	2023-10-22T00:00:00	2024-11-08T14:00:00	8	Radiación solar	97
154793	7	Sololá	713	San Lucas Tolimán	10	San Lucas Tolimán	10	Octubre	2023-10-22T00:00:00	2024-11-08T15:00:00	2	Temperatura media	19.8
154794	7	Sololá	713	San Lucas Tolimán	10	San Lucas Tolimán	10	Octubre	2023-10-22T00:00:00	2024-11-08T15:00:00	4	Temperatura máxima	19.8
154795	7	Sololá	713	San Lucas Tolimán	10	San Lucas Tolimán	10	Octubre	2023-10-22T00:00:00	2024-11-08T15:00:00	3	Temperatura mínima	19.2
154796	7	Sololá	713	San Lucas Tolimán	10	San Lucas Tolimán	10	Octubre	2023-10-22T00:00:00	2024-11-08T15:00:00	5	Humedad	59
154797	7	Sololá	713	San Lucas Tolimán	10	San Lucas Tolimán	10	Octubre	2023-10-22T00:00:00	2024-11-08T15:00:00	6	Velocidad del viento	4.8
154798	7	Sololá	713	San Lucas Tolimán	10	San Lucas Tolimán	10	Octubre	2023-10-22T00:00:00	2024-11-08T15:00:00	7	Dirección del viento	4.83
154799	7	Sololá	713	San Lucas Tolimán	10	San Lucas Tolimán	10	Octubre	2023-10-22T00:00:00	2024-11-08T15:00:00	1	Precipitación	0.4
154800	7	Sololá	713	San Lucas Tolimán	10	San Lucas Tolimán	10	Octubre	2023-10-22T00:00:00	2024-11-08T15:00:00	8	Radiación solar	144
154801	7	Sololá	713	San Lucas Tolimán	10	San Lucas Tolimán	10	Octubre	2023-10-22T00:00:00	2024-11-08T16:00:00	2	Temperatura media	20.3
154802	7	Sololá	713	San Lucas Tolimán	10	San Lucas Tolimán	10	Octubre	2023-10-22T00:00:00	2024-11-08T16:00:00	4	Temperatura máxima	20.4
154803	7	Sololá	713	San Lucas Tolimán	10	San Lucas Tolimán	10	Octubre	2023-10-22T00:00:00	2024-11-08T16:00:00	3	Temperatura mínima	19.8
154804	7	Sololá	713	San Lucas Tolimán	10	San Lucas Tolimán	10	Octubre	2023-10-22T00:00:00	2024-11-08T16:00:00	5	Humedad	57
154805	7	Sololá	713	San Lucas Tolimán	10	San Lucas Tolimán	10	Octubre	2023-10-22T00:00:00	2024-11-08T16:00:00	6	Velocidad del viento	3.2
154806	7	Sololá	713	San Lucas Tolimán	10	San Lucas Tolimán	10	Octubre	2023-10-22T00:00:00	2024-11-08T16:00:00	7	Dirección del viento	3.22
154807	7	Sololá	713	San Lucas Tolimán	10	San Lucas Tolimán	10	Octubre	2023-10-22T00:00:00	2024-11-08T16:00:00	1	Precipitación	0
154808	7	Sololá	713	San Lucas Tolimán	10	San Lucas Tolimán	10	Octubre	2023-10-22T00:00:00	2024-11-08T16:00:00	8	Radiación solar	223
154809	7	Sololá	713	San Lucas Tolimán	10	San Lucas Tolimán	10	Octubre	2023-10-22T00:00:00	2024-11-08T17:00:00	2	Temperatura media	19.4
154810	7	Sololá	713	San Lucas Tolimán	10	San Lucas Tolimán	10	Octubre	2023-10-22T00:00:00	2024-11-08T17:00:00	4	Temperatura máxima	20.3
154811	7	Sololá	713	San Lucas Tolimán	10	San Lucas Tolimán	10	Octubre	2023-10-22T00:00:00	2024-11-08T17:00:00	3	Temperatura mínima	19.3
154812	7	Sololá	713	San Lucas Tolimán	10	San Lucas Tolimán	10	Octubre	2023-10-22T00:00:00	2024-11-08T17:00:00	5	Humedad	60
154813	7	Sololá	713	San Lucas Tolimán	10	San Lucas Tolimán	10	Octubre	2023-10-22T00:00:00	2024-11-08T17:00:00	6	Velocidad del viento	1.6
154814	7	Sololá	713	San Lucas Tolimán	10	San Lucas Tolimán	10	Octubre	2023-10-22T00:00:00	2024-11-08T17:00:00	7	Dirección del viento	1.61
154815	7	Sololá	713	San Lucas Tolimán	10	San Lucas Tolimán	10	Octubre	2023-10-22T00:00:00	2024-11-08T17:00:00	1	Precipitación	0
154816	7	Sololá	713	San Lucas Tolimán	10	San Lucas Tolimán	10	Octubre	2023-10-22T00:00:00	2024-11-08T17:00:00	8	Radiación solar	26
154817	7	Sololá	713	San Lucas Tolimán	10	San Lucas Tolimán	10	Octubre	2023-10-22T00:00:00	2024-11-08T18:00:00	2	Temperatura media	18.4
154818	7	Sololá	713	San Lucas Tolimán	10	San Lucas Tolimán	10	Octubre	2023-10-22T00:00:00	2024-11-08T18:00:00	4	Temperatura máxima	19.4
154819	7	Sololá	713	San Lucas Tolimán	10	San Lucas Tolimán	10	Octubre	2023-10-22T00:00:00	2024-11-08T18:00:00	3	Temperatura mínima	18.4
154820	7	Sololá	713	San Lucas Tolimán	10	San Lucas Tolimán	10	Octubre	2023-10-22T00:00:00	2024-11-08T18:00:00	5	Humedad	63
154821	7	Sololá	713	San Lucas Tolimán	10	San Lucas Tolimán	10	Octubre	2023-10-22T00:00:00	2024-11-08T18:00:00	6	Velocidad del viento	1.6
154822	7	Sololá	713	San Lucas Tolimán	10	San Lucas Tolimán	10	Octubre	2023-10-22T00:00:00	2024-11-08T18:00:00	7	Dirección del viento	1.61
154823	7	Sololá	713	San Lucas Tolimán	10	San Lucas Tolimán	10	Octubre	2023-10-22T00:00:00	2024-11-08T18:00:00	1	Precipitación	1
154824	7	Sololá	713	San Lucas Tolimán	10	San Lucas Tolimán	10	Octubre	2023-10-22T00:00:00	2024-11-08T18:00:00	8	Radiación solar	0
154825	7	Sololá	713	San Lucas Tolimán	10	San Lucas Tolimán	10	Octubre	2023-10-22T00:00:00	2024-11-08T19:00:00	2	Temperatura media	17.8
154826	7	Sololá	713	San Lucas Tolimán	10	San Lucas Tolimán	10	Octubre	2023-10-22T00:00:00	2024-11-08T19:00:00	4	Temperatura máxima	18.5
154827	7	Sololá	713	San Lucas Tolimán	10	San Lucas Tolimán	10	Octubre	2023-10-22T00:00:00	2024-11-08T19:00:00	3	Temperatura mínima	17.8
154828	7	Sololá	713	San Lucas Tolimán	10	San Lucas Tolimán	10	Octubre	2023-10-22T00:00:00	2024-11-08T19:00:00	5	Humedad	65
154829	7	Sololá	713	San Lucas Tolimán	10	San Lucas Tolimán	10	Octubre	2023-10-22T00:00:00	2024-11-08T19:00:00	6	Velocidad del viento	1.6
154830	7	Sololá	713	San Lucas Tolimán	10	San Lucas Tolimán	10	Octubre	2023-10-22T00:00:00	2024-11-08T19:00:00	7	Dirección del viento	1.61
154831	7	Sololá	713	San Lucas Tolimán	10	San Lucas Tolimán	10	Octubre	2023-10-22T00:00:00	2024-11-08T19:00:00	1	Precipitación	0.2
154832	7	Sololá	713	San Lucas Tolimán	10	San Lucas Tolimán	10	Octubre	2023-10-22T00:00:00	2024-11-08T19:00:00	8	Radiación solar	0
154833	7	Sololá	713	San Lucas Tolimán	10	San Lucas Tolimán	10	Octubre	2023-10-22T00:00:00	2024-11-08T20:00:00	2	Temperatura media	17.5
154834	7	Sololá	713	San Lucas Tolimán	10	San Lucas Tolimán	10	Octubre	2023-10-22T00:00:00	2024-11-08T20:00:00	4	Temperatura máxima	17.9
154835	7	Sololá	713	San Lucas Tolimán	10	San Lucas Tolimán	10	Octubre	2023-10-22T00:00:00	2024-11-08T20:00:00	3	Temperatura mínima	17.3
154836	7	Sololá	713	San Lucas Tolimán	10	San Lucas Tolimán	10	Octubre	2023-10-22T00:00:00	2024-11-08T20:00:00	5	Humedad	65
154837	7	Sololá	713	San Lucas Tolimán	10	San Lucas Tolimán	10	Octubre	2023-10-22T00:00:00	2024-11-08T20:00:00	6	Velocidad del viento	4.8
154838	7	Sololá	713	San Lucas Tolimán	10	San Lucas Tolimán	10	Octubre	2023-10-22T00:00:00	2024-11-08T20:00:00	7	Dirección del viento	4.83
154839	7	Sololá	713	San Lucas Tolimán	10	San Lucas Tolimán	10	Octubre	2023-10-22T00:00:00	2024-11-08T20:00:00	1	Precipitación	0.2
154840	7	Sololá	713	San Lucas Tolimán	10	San Lucas Tolimán	10	Octubre	2023-10-22T00:00:00	2024-11-08T20:00:00	8	Radiación solar	0
154841	7	Sololá	713	San Lucas Tolimán	10	San Lucas Tolimán	10	Octubre	2023-10-22T00:00:00	2024-11-08T21:00:00	2	Temperatura media	17.2
154842	7	Sololá	713	San Lucas Tolimán	10	San Lucas Tolimán	10	Octubre	2023-10-22T00:00:00	2024-11-08T21:00:00	4	Temperatura máxima	17.6
154843	7	Sololá	713	San Lucas Tolimán	10	San Lucas Tolimán	10	Octubre	2023-10-22T00:00:00	2024-11-08T21:00:00	3	Temperatura mínima	17.2
154844	7	Sololá	713	San Lucas Tolimán	10	San Lucas Tolimán	10	Octubre	2023-10-22T00:00:00	2024-11-08T21:00:00	5	Humedad	63
154845	7	Sololá	713	San Lucas Tolimán	10	San Lucas Tolimán	10	Octubre	2023-10-22T00:00:00	2024-11-08T21:00:00	6	Velocidad del viento	6.4
154846	7	Sololá	713	San Lucas Tolimán	10	San Lucas Tolimán	10	Octubre	2023-10-22T00:00:00	2024-11-08T21:00:00	7	Dirección del viento	6.44
154847	7	Sololá	713	San Lucas Tolimán	10	San Lucas Tolimán	10	Octubre	2023-10-22T00:00:00	2024-11-08T21:00:00	1	Precipitación	0.2
154848	7	Sololá	713	San Lucas Tolimán	10	San Lucas Tolimán	10	Octubre	2023-10-22T00:00:00	2024-11-08T21:00:00	8	Radiación solar	0
154849	7	Sololá	713	San Lucas Tolimán	10	San Lucas Tolimán	10	Octubre	2023-10-22T00:00:00	2024-11-08T22:00:00	2	Temperatura media	17
154850	7	Sololá	713	San Lucas Tolimán	10	San Lucas Tolimán	10	Octubre	2023-10-22T00:00:00	2024-11-08T22:00:00	4	Temperatura máxima	17.3
154851	7	Sololá	713	San Lucas Tolimán	10	San Lucas Tolimán	10	Octubre	2023-10-22T00:00:00	2024-11-08T22:00:00	3	Temperatura mínima	16.9
154852	7	Sololá	713	San Lucas Tolimán	10	San Lucas Tolimán	10	Octubre	2023-10-22T00:00:00	2024-11-08T22:00:00	5	Humedad	65
154853	7	Sololá	713	San Lucas Tolimán	10	San Lucas Tolimán	10	Octubre	2023-10-22T00:00:00	2024-11-08T22:00:00	6	Velocidad del viento	4.8
154854	7	Sololá	713	San Lucas Tolimán	10	San Lucas Tolimán	10	Octubre	2023-10-22T00:00:00	2024-11-08T22:00:00	7	Dirección del viento	4.83
154855	7	Sololá	713	San Lucas Tolimán	10	San Lucas Tolimán	10	Octubre	2023-10-22T00:00:00	2024-11-08T22:00:00	1	Precipitación	0
154856	7	Sololá	713	San Lucas Tolimán	10	San Lucas Tolimán	10	Octubre	2023-10-22T00:00:00	2024-11-08T22:00:00	8	Radiación solar	0
154857	7	Sololá	713	San Lucas Tolimán	10	San Lucas Tolimán	10	Octubre	2023-10-22T00:00:00	2024-11-08T23:00:00	2	Temperatura media	16.6
154858	7	Sololá	713	San Lucas Tolimán	10	San Lucas Tolimán	10	Octubre	2023-10-22T00:00:00	2024-11-08T23:00:00	4	Temperatura máxima	17.1
154859	7	Sololá	713	San Lucas Tolimán	10	San Lucas Tolimán	10	Octubre	2023-10-22T00:00:00	2024-11-08T23:00:00	3	Temperatura mínima	16.6
154860	7	Sololá	713	San Lucas Tolimán	10	San Lucas Tolimán	10	Octubre	2023-10-22T00:00:00	2024-11-08T23:00:00	5	Humedad	66
154861	7	Sololá	713	San Lucas Tolimán	10	San Lucas Tolimán	10	Octubre	2023-10-22T00:00:00	2024-11-08T23:00:00	6	Velocidad del viento	0
154862	7	Sololá	713	San Lucas Tolimán	10	San Lucas Tolimán	10	Octubre	2023-10-22T00:00:00	2024-11-08T23:00:00	7	Dirección del viento	0
154863	7	Sololá	713	San Lucas Tolimán	10	San Lucas Tolimán	10	Octubre	2023-10-22T00:00:00	2024-11-08T23:00:00	1	Precipitación	0
154864	7	Sololá	713	San Lucas Tolimán	10	San Lucas Tolimán	10	Octubre	2023-10-22T00:00:00	2024-11-08T23:00:00	8	Radiación solar	0
154865	7	Sololá	713	San Lucas Tolimán	10	San Lucas Tolimán	10	Octubre	2023-10-23T00:00:00	2024-11-08T00:00:00	2	Temperatura media	16.7
154866	7	Sololá	713	San Lucas Tolimán	10	San Lucas Tolimán	10	Octubre	2023-10-23T00:00:00	2024-11-08T00:00:00	4	Temperatura máxima	16.9
154867	7	Sololá	713	San Lucas Tolimán	10	San Lucas Tolimán	10	Octubre	2023-10-23T00:00:00	2024-11-08T00:00:00	3	Temperatura mínima	16.6
154868	7	Sololá	713	San Lucas Tolimán	10	San Lucas Tolimán	10	Octubre	2023-10-23T00:00:00	2024-11-08T00:00:00	5	Humedad	66
154869	7	Sololá	713	San Lucas Tolimán	10	San Lucas Tolimán	10	Octubre	2023-10-23T00:00:00	2024-11-08T00:00:00	6	Velocidad del viento	1.6
154870	7	Sololá	713	San Lucas Tolimán	10	San Lucas Tolimán	10	Octubre	2023-10-23T00:00:00	2024-11-08T00:00:00	7	Dirección del viento	1.61
154871	7	Sololá	713	San Lucas Tolimán	10	San Lucas Tolimán	10	Octubre	2023-10-23T00:00:00	2024-11-08T00:00:00	1	Precipitación	0
154872	7	Sololá	713	San Lucas Tolimán	10	San Lucas Tolimán	10	Octubre	2023-10-23T00:00:00	2024-11-08T00:00:00	8	Radiación solar	0
154873	7	Sololá	713	San Lucas Tolimán	10	San Lucas Tolimán	10	Octubre	2023-10-23T00:00:00	2024-11-08T01:00:00	2	Temperatura media	16.4
154874	7	Sololá	713	San Lucas Tolimán	10	San Lucas Tolimán	10	Octubre	2023-10-23T00:00:00	2024-11-08T01:00:00	4	Temperatura máxima	16.7
154875	7	Sololá	713	San Lucas Tolimán	10	San Lucas Tolimán	10	Octubre	2023-10-23T00:00:00	2024-11-08T01:00:00	3	Temperatura mínima	16.2
154876	7	Sololá	713	San Lucas Tolimán	10	San Lucas Tolimán	10	Octubre	2023-10-23T00:00:00	2024-11-08T01:00:00	5	Humedad	66
154877	7	Sololá	713	San Lucas Tolimán	10	San Lucas Tolimán	10	Octubre	2023-10-23T00:00:00	2024-11-08T01:00:00	6	Velocidad del viento	1.6
154878	7	Sololá	713	San Lucas Tolimán	10	San Lucas Tolimán	10	Octubre	2023-10-23T00:00:00	2024-11-08T01:00:00	7	Dirección del viento	1.61
154879	7	Sololá	713	San Lucas Tolimán	10	San Lucas Tolimán	10	Octubre	2023-10-23T00:00:00	2024-11-08T01:00:00	1	Precipitación	0
154880	7	Sololá	713	San Lucas Tolimán	10	San Lucas Tolimán	10	Octubre	2023-10-23T00:00:00	2024-11-08T01:00:00	8	Radiación solar	0
154881	7	Sololá	713	San Lucas Tolimán	10	San Lucas Tolimán	10	Octubre	2023-10-23T00:00:00	2024-11-08T02:00:00	2	Temperatura media	16.6
154882	7	Sololá	713	San Lucas Tolimán	10	San Lucas Tolimán	10	Octubre	2023-10-23T00:00:00	2024-11-08T02:00:00	4	Temperatura máxima	16.8
154883	7	Sololá	713	San Lucas Tolimán	10	San Lucas Tolimán	10	Octubre	2023-10-23T00:00:00	2024-11-08T02:00:00	3	Temperatura mínima	16.4
154884	7	Sololá	713	San Lucas Tolimán	10	San Lucas Tolimán	10	Octubre	2023-10-23T00:00:00	2024-11-08T02:00:00	5	Humedad	66
154885	7	Sololá	713	San Lucas Tolimán	10	San Lucas Tolimán	10	Octubre	2023-10-23T00:00:00	2024-11-08T02:00:00	6	Velocidad del viento	0
154886	7	Sololá	713	San Lucas Tolimán	10	San Lucas Tolimán	10	Octubre	2023-10-23T00:00:00	2024-11-08T02:00:00	7	Dirección del viento	0
154887	7	Sololá	713	San Lucas Tolimán	10	San Lucas Tolimán	10	Octubre	2023-10-23T00:00:00	2024-11-08T02:00:00	1	Precipitación	0
154888	7	Sololá	713	San Lucas Tolimán	10	San Lucas Tolimán	10	Octubre	2023-10-23T00:00:00	2024-11-08T02:00:00	8	Radiación solar	0
154889	7	Sololá	713	San Lucas Tolimán	10	San Lucas Tolimán	10	Octubre	2023-10-23T00:00:00	2024-11-08T03:00:00	2	Temperatura media	16.4
154890	7	Sololá	713	San Lucas Tolimán	10	San Lucas Tolimán	10	Octubre	2023-10-23T00:00:00	2024-11-08T03:00:00	4	Temperatura máxima	16.6
154891	7	Sololá	713	San Lucas Tolimán	10	San Lucas Tolimán	10	Octubre	2023-10-23T00:00:00	2024-11-08T03:00:00	3	Temperatura mínima	16.2
154892	7	Sololá	713	San Lucas Tolimán	10	San Lucas Tolimán	10	Octubre	2023-10-23T00:00:00	2024-11-08T03:00:00	5	Humedad	66
154893	7	Sololá	713	San Lucas Tolimán	10	San Lucas Tolimán	10	Octubre	2023-10-23T00:00:00	2024-11-08T03:00:00	6	Velocidad del viento	1.6
154894	7	Sololá	713	San Lucas Tolimán	10	San Lucas Tolimán	10	Octubre	2023-10-23T00:00:00	2024-11-08T03:00:00	7	Dirección del viento	1.61
154895	7	Sololá	713	San Lucas Tolimán	10	San Lucas Tolimán	10	Octubre	2023-10-23T00:00:00	2024-11-08T03:00:00	1	Precipitación	0
154896	7	Sololá	713	San Lucas Tolimán	10	San Lucas Tolimán	10	Octubre	2023-10-23T00:00:00	2024-11-08T03:00:00	8	Radiación solar	0
154897	7	Sololá	713	San Lucas Tolimán	10	San Lucas Tolimán	10	Octubre	2023-10-23T00:00:00	2024-11-08T04:00:00	2	Temperatura media	16.1
154898	7	Sololá	713	San Lucas Tolimán	10	San Lucas Tolimán	10	Octubre	2023-10-23T00:00:00	2024-11-08T04:00:00	4	Temperatura máxima	16.6
154899	7	Sololá	713	San Lucas Tolimán	10	San Lucas Tolimán	10	Octubre	2023-10-23T00:00:00	2024-11-08T04:00:00	3	Temperatura mínima	16.1
154900	7	Sololá	713	San Lucas Tolimán	10	San Lucas Tolimán	10	Octubre	2023-10-23T00:00:00	2024-11-08T04:00:00	5	Humedad	64
154901	7	Sololá	713	San Lucas Tolimán	10	San Lucas Tolimán	10	Octubre	2023-10-23T00:00:00	2024-11-08T04:00:00	6	Velocidad del viento	1.6
154902	7	Sololá	713	San Lucas Tolimán	10	San Lucas Tolimán	10	Octubre	2023-10-23T00:00:00	2024-11-08T04:00:00	7	Dirección del viento	1.61
154903	7	Sololá	713	San Lucas Tolimán	10	San Lucas Tolimán	10	Octubre	2023-10-23T00:00:00	2024-11-08T04:00:00	1	Precipitación	0
154904	7	Sololá	713	San Lucas Tolimán	10	San Lucas Tolimán	10	Octubre	2023-10-23T00:00:00	2024-11-08T04:00:00	8	Radiación solar	0
154905	7	Sololá	713	San Lucas Tolimán	10	San Lucas Tolimán	10	Octubre	2023-10-23T00:00:00	2024-11-08T05:00:00	2	Temperatura media	15.6
154906	7	Sololá	713	San Lucas Tolimán	10	San Lucas Tolimán	10	Octubre	2023-10-23T00:00:00	2024-11-08T05:00:00	4	Temperatura máxima	16.1
154907	7	Sololá	713	San Lucas Tolimán	10	San Lucas Tolimán	10	Octubre	2023-10-23T00:00:00	2024-11-08T05:00:00	3	Temperatura mínima	15.6
154908	7	Sololá	713	San Lucas Tolimán	10	San Lucas Tolimán	10	Octubre	2023-10-23T00:00:00	2024-11-08T05:00:00	5	Humedad	66
154909	7	Sololá	713	San Lucas Tolimán	10	San Lucas Tolimán	10	Octubre	2023-10-23T00:00:00	2024-11-08T05:00:00	6	Velocidad del viento	0
154910	7	Sololá	713	San Lucas Tolimán	10	San Lucas Tolimán	10	Octubre	2023-10-23T00:00:00	2024-11-08T05:00:00	7	Dirección del viento	0
154911	7	Sololá	713	San Lucas Tolimán	10	San Lucas Tolimán	10	Octubre	2023-10-23T00:00:00	2024-11-08T05:00:00	1	Precipitación	0
154912	7	Sololá	713	San Lucas Tolimán	10	San Lucas Tolimán	10	Octubre	2023-10-23T00:00:00	2024-11-08T05:00:00	8	Radiación solar	0
154913	7	Sololá	713	San Lucas Tolimán	10	San Lucas Tolimán	10	Octubre	2023-10-23T00:00:00	2024-11-08T06:00:00	2	Temperatura media	16.7
154914	7	Sololá	713	San Lucas Tolimán	10	San Lucas Tolimán	10	Octubre	2023-10-23T00:00:00	2024-11-08T06:00:00	4	Temperatura máxima	16.7
154915	7	Sololá	713	San Lucas Tolimán	10	San Lucas Tolimán	10	Octubre	2023-10-23T00:00:00	2024-11-08T06:00:00	3	Temperatura mínima	15.2
154916	7	Sololá	713	San Lucas Tolimán	10	San Lucas Tolimán	10	Octubre	2023-10-23T00:00:00	2024-11-08T06:00:00	5	Humedad	59
154917	7	Sololá	713	San Lucas Tolimán	10	San Lucas Tolimán	10	Octubre	2023-10-23T00:00:00	2024-11-08T06:00:00	6	Velocidad del viento	1.6
154918	7	Sololá	713	San Lucas Tolimán	10	San Lucas Tolimán	10	Octubre	2023-10-23T00:00:00	2024-11-08T06:00:00	7	Dirección del viento	1.61
154919	7	Sololá	713	San Lucas Tolimán	10	San Lucas Tolimán	10	Octubre	2023-10-23T00:00:00	2024-11-08T06:00:00	1	Precipitación	0
154920	7	Sololá	713	San Lucas Tolimán	10	San Lucas Tolimán	10	Octubre	2023-10-23T00:00:00	2024-11-08T06:00:00	8	Radiación solar	0
154921	7	Sololá	713	San Lucas Tolimán	10	San Lucas Tolimán	10	Octubre	2023-10-23T00:00:00	2024-11-08T07:00:00	2	Temperatura media	16.6
154922	7	Sololá	713	San Lucas Tolimán	10	San Lucas Tolimán	10	Octubre	2023-10-23T00:00:00	2024-11-08T07:00:00	4	Temperatura máxima	16.7
154923	7	Sololá	713	San Lucas Tolimán	10	San Lucas Tolimán	10	Octubre	2023-10-23T00:00:00	2024-11-08T07:00:00	3	Temperatura mínima	16.4
154924	7	Sololá	713	San Lucas Tolimán	10	San Lucas Tolimán	10	Octubre	2023-10-23T00:00:00	2024-11-08T07:00:00	5	Humedad	59
154925	7	Sololá	713	San Lucas Tolimán	10	San Lucas Tolimán	10	Octubre	2023-10-23T00:00:00	2024-11-08T07:00:00	6	Velocidad del viento	3.2
154926	7	Sololá	713	San Lucas Tolimán	10	San Lucas Tolimán	10	Octubre	2023-10-23T00:00:00	2024-11-08T07:00:00	7	Dirección del viento	3.22
154927	7	Sololá	713	San Lucas Tolimán	10	San Lucas Tolimán	10	Octubre	2023-10-23T00:00:00	2024-11-08T07:00:00	1	Precipitación	0
154928	7	Sololá	713	San Lucas Tolimán	10	San Lucas Tolimán	10	Octubre	2023-10-23T00:00:00	2024-11-08T07:00:00	8	Radiación solar	21
154929	7	Sololá	713	San Lucas Tolimán	10	San Lucas Tolimán	10	Octubre	2023-10-23T00:00:00	2024-11-08T08:00:00	2	Temperatura media	20.1
154930	7	Sololá	713	San Lucas Tolimán	10	San Lucas Tolimán	10	Octubre	2023-10-23T00:00:00	2024-11-08T08:00:00	4	Temperatura máxima	20.1
154931	7	Sololá	713	San Lucas Tolimán	10	San Lucas Tolimán	10	Octubre	2023-10-23T00:00:00	2024-11-08T08:00:00	3	Temperatura mínima	16.6
154932	7	Sololá	713	San Lucas Tolimán	10	San Lucas Tolimán	10	Octubre	2023-10-23T00:00:00	2024-11-08T08:00:00	5	Humedad	58
154933	7	Sololá	713	San Lucas Tolimán	10	San Lucas Tolimán	10	Octubre	2023-10-23T00:00:00	2024-11-08T08:00:00	6	Velocidad del viento	1.6
154934	7	Sololá	713	San Lucas Tolimán	10	San Lucas Tolimán	10	Octubre	2023-10-23T00:00:00	2024-11-08T08:00:00	7	Dirección del viento	1.61
154935	7	Sololá	713	San Lucas Tolimán	10	San Lucas Tolimán	10	Octubre	2023-10-23T00:00:00	2024-11-08T08:00:00	1	Precipitación	0
154936	7	Sololá	713	San Lucas Tolimán	10	San Lucas Tolimán	10	Octubre	2023-10-23T00:00:00	2024-11-08T08:00:00	8	Radiación solar	202
154937	7	Sololá	713	San Lucas Tolimán	10	San Lucas Tolimán	10	Octubre	2023-10-23T00:00:00	2024-11-08T09:00:00	2	Temperatura media	21.1
154938	7	Sololá	713	San Lucas Tolimán	10	San Lucas Tolimán	10	Octubre	2023-10-23T00:00:00	2024-11-08T09:00:00	4	Temperatura máxima	21.2
154939	7	Sololá	713	San Lucas Tolimán	10	San Lucas Tolimán	10	Octubre	2023-10-23T00:00:00	2024-11-08T09:00:00	3	Temperatura mínima	20.1
154940	7	Sololá	713	San Lucas Tolimán	10	San Lucas Tolimán	10	Octubre	2023-10-23T00:00:00	2024-11-08T09:00:00	5	Humedad	55
154941	7	Sololá	713	San Lucas Tolimán	10	San Lucas Tolimán	10	Octubre	2023-10-23T00:00:00	2024-11-08T09:00:00	6	Velocidad del viento	3.2
154942	7	Sololá	713	San Lucas Tolimán	10	San Lucas Tolimán	10	Octubre	2023-10-23T00:00:00	2024-11-08T09:00:00	7	Dirección del viento	3.22
154943	7	Sololá	713	San Lucas Tolimán	10	San Lucas Tolimán	10	Octubre	2023-10-23T00:00:00	2024-11-08T09:00:00	1	Precipitación	0
154944	7	Sololá	713	San Lucas Tolimán	10	San Lucas Tolimán	10	Octubre	2023-10-23T00:00:00	2024-11-08T09:00:00	8	Radiación solar	435
154945	7	Sololá	713	San Lucas Tolimán	10	San Lucas Tolimán	10	Octubre	2023-10-23T00:00:00	2024-11-08T10:00:00	2	Temperatura media	20.8
154946	7	Sololá	713	San Lucas Tolimán	10	San Lucas Tolimán	10	Octubre	2023-10-23T00:00:00	2024-11-08T10:00:00	4	Temperatura máxima	22.1
154947	7	Sololá	713	San Lucas Tolimán	10	San Lucas Tolimán	10	Octubre	2023-10-23T00:00:00	2024-11-08T10:00:00	3	Temperatura mínima	20.8
154948	7	Sololá	713	San Lucas Tolimán	10	San Lucas Tolimán	10	Octubre	2023-10-23T00:00:00	2024-11-08T10:00:00	5	Humedad	61
154949	7	Sololá	713	San Lucas Tolimán	10	San Lucas Tolimán	10	Octubre	2023-10-23T00:00:00	2024-11-08T10:00:00	6	Velocidad del viento	4.8
154950	7	Sololá	713	San Lucas Tolimán	10	San Lucas Tolimán	10	Octubre	2023-10-23T00:00:00	2024-11-08T10:00:00	7	Dirección del viento	4.83
154951	7	Sololá	713	San Lucas Tolimán	10	San Lucas Tolimán	10	Octubre	2023-10-23T00:00:00	2024-11-08T10:00:00	1	Precipitación	0
154952	7	Sololá	713	San Lucas Tolimán	10	San Lucas Tolimán	10	Octubre	2023-10-23T00:00:00	2024-11-08T10:00:00	8	Radiación solar	626
154953	7	Sololá	713	San Lucas Tolimán	10	San Lucas Tolimán	10	Octubre	2023-10-23T00:00:00	2024-11-08T11:00:00	2	Temperatura media	22.8
154954	7	Sololá	713	San Lucas Tolimán	10	San Lucas Tolimán	10	Octubre	2023-10-23T00:00:00	2024-11-08T11:00:00	4	Temperatura máxima	22.8
154955	7	Sololá	713	San Lucas Tolimán	10	San Lucas Tolimán	10	Octubre	2023-10-23T00:00:00	2024-11-08T11:00:00	3	Temperatura mínima	20.8
154956	7	Sololá	713	San Lucas Tolimán	10	San Lucas Tolimán	10	Octubre	2023-10-23T00:00:00	2024-11-08T11:00:00	5	Humedad	80
154957	7	Sololá	713	San Lucas Tolimán	10	San Lucas Tolimán	10	Octubre	2023-10-23T00:00:00	2024-11-08T11:00:00	6	Velocidad del viento	6.4
154958	7	Sololá	713	San Lucas Tolimán	10	San Lucas Tolimán	10	Octubre	2023-10-23T00:00:00	2024-11-08T11:00:00	7	Dirección del viento	6.44
154959	7	Sololá	713	San Lucas Tolimán	10	San Lucas Tolimán	10	Octubre	2023-10-23T00:00:00	2024-11-08T11:00:00	1	Precipitación	0
154960	7	Sololá	713	San Lucas Tolimán	10	San Lucas Tolimán	10	Octubre	2023-10-23T00:00:00	2024-11-08T11:00:00	8	Radiación solar	634
154961	7	Sololá	713	San Lucas Tolimán	10	San Lucas Tolimán	10	Octubre	2023-10-23T00:00:00	2024-11-08T12:00:00	2	Temperatura media	22.7
154962	7	Sololá	713	San Lucas Tolimán	10	San Lucas Tolimán	10	Octubre	2023-10-23T00:00:00	2024-11-08T12:00:00	4	Temperatura máxima	23.1
154963	7	Sololá	713	San Lucas Tolimán	10	San Lucas Tolimán	10	Octubre	2023-10-23T00:00:00	2024-11-08T12:00:00	3	Temperatura mínima	21.6
154964	7	Sololá	713	San Lucas Tolimán	10	San Lucas Tolimán	10	Octubre	2023-10-23T00:00:00	2024-11-08T12:00:00	5	Humedad	82
154965	7	Sololá	713	San Lucas Tolimán	10	San Lucas Tolimán	10	Octubre	2023-10-23T00:00:00	2024-11-08T12:00:00	6	Velocidad del viento	11.3
154966	7	Sololá	713	San Lucas Tolimán	10	San Lucas Tolimán	10	Octubre	2023-10-23T00:00:00	2024-11-08T12:00:00	7	Dirección del viento	11.27
154967	7	Sololá	713	San Lucas Tolimán	10	San Lucas Tolimán	10	Octubre	2023-10-23T00:00:00	2024-11-08T12:00:00	1	Precipitación	0
154968	7	Sololá	713	San Lucas Tolimán	10	San Lucas Tolimán	10	Octubre	2023-10-23T00:00:00	2024-11-08T12:00:00	8	Radiación solar	385
154969	7	Sololá	713	San Lucas Tolimán	10	San Lucas Tolimán	10	Octubre	2023-10-23T00:00:00	2024-11-08T13:00:00	2	Temperatura media	22.8
154970	7	Sololá	713	San Lucas Tolimán	10	San Lucas Tolimán	10	Octubre	2023-10-23T00:00:00	2024-11-08T13:00:00	4	Temperatura máxima	23
154971	7	Sololá	713	San Lucas Tolimán	10	San Lucas Tolimán	10	Octubre	2023-10-23T00:00:00	2024-11-08T13:00:00	3	Temperatura mínima	21.9
154972	7	Sololá	713	San Lucas Tolimán	10	San Lucas Tolimán	10	Octubre	2023-10-23T00:00:00	2024-11-08T13:00:00	5	Humedad	81
154973	7	Sololá	713	San Lucas Tolimán	10	San Lucas Tolimán	10	Octubre	2023-10-23T00:00:00	2024-11-08T13:00:00	6	Velocidad del viento	12.9
154974	7	Sololá	713	San Lucas Tolimán	10	San Lucas Tolimán	10	Octubre	2023-10-23T00:00:00	2024-11-08T13:00:00	7	Dirección del viento	12.87
154975	7	Sololá	713	San Lucas Tolimán	10	San Lucas Tolimán	10	Octubre	2023-10-23T00:00:00	2024-11-08T13:00:00	1	Precipitación	0
154976	7	Sololá	713	San Lucas Tolimán	10	San Lucas Tolimán	10	Octubre	2023-10-23T00:00:00	2024-11-08T13:00:00	8	Radiación solar	223
154977	7	Sololá	713	San Lucas Tolimán	10	San Lucas Tolimán	10	Octubre	2023-10-23T00:00:00	2024-11-08T14:00:00	2	Temperatura media	21.4
154978	7	Sololá	713	San Lucas Tolimán	10	San Lucas Tolimán	10	Octubre	2023-10-23T00:00:00	2024-11-08T14:00:00	4	Temperatura máxima	22.8
154979	7	Sololá	713	San Lucas Tolimán	10	San Lucas Tolimán	10	Octubre	2023-10-23T00:00:00	2024-11-08T14:00:00	3	Temperatura mínima	21.3
154980	7	Sololá	713	San Lucas Tolimán	10	San Lucas Tolimán	10	Octubre	2023-10-23T00:00:00	2024-11-08T14:00:00	5	Humedad	87
154981	7	Sololá	713	San Lucas Tolimán	10	San Lucas Tolimán	10	Octubre	2023-10-23T00:00:00	2024-11-08T14:00:00	6	Velocidad del viento	12.9
154982	7	Sololá	713	San Lucas Tolimán	10	San Lucas Tolimán	10	Octubre	2023-10-23T00:00:00	2024-11-08T14:00:00	7	Dirección del viento	12.87
154983	7	Sololá	713	San Lucas Tolimán	10	San Lucas Tolimán	10	Octubre	2023-10-23T00:00:00	2024-11-08T14:00:00	1	Precipitación	0
154984	7	Sololá	713	San Lucas Tolimán	10	San Lucas Tolimán	10	Octubre	2023-10-23T00:00:00	2024-11-08T14:00:00	8	Radiación solar	101
154985	7	Sololá	713	San Lucas Tolimán	10	San Lucas Tolimán	10	Octubre	2023-10-23T00:00:00	2024-11-08T15:00:00	2	Temperatura media	20.7
154986	7	Sololá	713	San Lucas Tolimán	10	San Lucas Tolimán	10	Octubre	2023-10-23T00:00:00	2024-11-08T15:00:00	4	Temperatura máxima	21.8
154987	7	Sololá	713	San Lucas Tolimán	10	San Lucas Tolimán	10	Octubre	2023-10-23T00:00:00	2024-11-08T15:00:00	3	Temperatura mínima	20.7
154988	7	Sololá	713	San Lucas Tolimán	10	San Lucas Tolimán	10	Octubre	2023-10-23T00:00:00	2024-11-08T15:00:00	5	Humedad	87
154989	7	Sololá	713	San Lucas Tolimán	10	San Lucas Tolimán	10	Octubre	2023-10-23T00:00:00	2024-11-08T15:00:00	6	Velocidad del viento	12.9
154990	7	Sololá	713	San Lucas Tolimán	10	San Lucas Tolimán	10	Octubre	2023-10-23T00:00:00	2024-11-08T15:00:00	7	Dirección del viento	12.87
154991	7	Sololá	713	San Lucas Tolimán	10	San Lucas Tolimán	10	Octubre	2023-10-23T00:00:00	2024-11-08T15:00:00	1	Precipitación	0
154992	7	Sololá	713	San Lucas Tolimán	10	San Lucas Tolimán	10	Octubre	2023-10-23T00:00:00	2024-11-08T15:00:00	8	Radiación solar	121
154993	7	Sololá	713	San Lucas Tolimán	10	San Lucas Tolimán	10	Octubre	2023-10-23T00:00:00	2024-11-08T16:00:00	2	Temperatura media	21.5
154994	7	Sololá	713	San Lucas Tolimán	10	San Lucas Tolimán	10	Octubre	2023-10-23T00:00:00	2024-11-08T16:00:00	4	Temperatura máxima	21.7
154995	7	Sololá	713	San Lucas Tolimán	10	San Lucas Tolimán	10	Octubre	2023-10-23T00:00:00	2024-11-08T16:00:00	3	Temperatura mínima	20.3
154996	7	Sololá	713	San Lucas Tolimán	10	San Lucas Tolimán	10	Octubre	2023-10-23T00:00:00	2024-11-08T16:00:00	5	Humedad	85
154997	7	Sololá	713	San Lucas Tolimán	10	San Lucas Tolimán	10	Octubre	2023-10-23T00:00:00	2024-11-08T16:00:00	6	Velocidad del viento	9.7
154998	7	Sololá	713	San Lucas Tolimán	10	San Lucas Tolimán	10	Octubre	2023-10-23T00:00:00	2024-11-08T16:00:00	7	Dirección del viento	9.66
154999	7	Sololá	713	San Lucas Tolimán	10	San Lucas Tolimán	10	Octubre	2023-10-23T00:00:00	2024-11-08T16:00:00	1	Precipitación	0
155000	7	Sololá	713	San Lucas Tolimán	10	San Lucas Tolimán	10	Octubre	2023-10-23T00:00:00	2024-11-08T16:00:00	8	Radiación solar	124
155001	7	Sololá	713	San Lucas Tolimán	10	San Lucas Tolimán	10	Octubre	2023-10-23T00:00:00	2024-11-08T17:00:00	2	Temperatura media	19.9
155002	7	Sololá	713	San Lucas Tolimán	10	San Lucas Tolimán	10	Octubre	2023-10-23T00:00:00	2024-11-08T17:00:00	4	Temperatura máxima	21.5
155003	7	Sololá	713	San Lucas Tolimán	10	San Lucas Tolimán	10	Octubre	2023-10-23T00:00:00	2024-11-08T17:00:00	3	Temperatura mínima	19.9
155004	7	Sololá	713	San Lucas Tolimán	10	San Lucas Tolimán	10	Octubre	2023-10-23T00:00:00	2024-11-08T17:00:00	5	Humedad	91
155005	7	Sololá	713	San Lucas Tolimán	10	San Lucas Tolimán	10	Octubre	2023-10-23T00:00:00	2024-11-08T17:00:00	6	Velocidad del viento	6.4
155006	7	Sololá	713	San Lucas Tolimán	10	San Lucas Tolimán	10	Octubre	2023-10-23T00:00:00	2024-11-08T17:00:00	7	Dirección del viento	6.44
155007	7	Sololá	713	San Lucas Tolimán	10	San Lucas Tolimán	10	Octubre	2023-10-23T00:00:00	2024-11-08T17:00:00	1	Precipitación	0
155008	7	Sololá	713	San Lucas Tolimán	10	San Lucas Tolimán	10	Octubre	2023-10-23T00:00:00	2024-11-08T17:00:00	8	Radiación solar	23
155009	7	Sololá	713	San Lucas Tolimán	10	San Lucas Tolimán	10	Octubre	2023-10-23T00:00:00	2024-11-08T18:00:00	2	Temperatura media	19.3
155010	7	Sololá	713	San Lucas Tolimán	10	San Lucas Tolimán	10	Octubre	2023-10-23T00:00:00	2024-11-08T18:00:00	4	Temperatura máxima	19.9
155011	7	Sololá	713	San Lucas Tolimán	10	San Lucas Tolimán	10	Octubre	2023-10-23T00:00:00	2024-11-08T18:00:00	3	Temperatura mínima	19.3
155012	7	Sololá	713	San Lucas Tolimán	10	San Lucas Tolimán	10	Octubre	2023-10-23T00:00:00	2024-11-08T18:00:00	5	Humedad	93
155013	7	Sololá	713	San Lucas Tolimán	10	San Lucas Tolimán	10	Octubre	2023-10-23T00:00:00	2024-11-08T18:00:00	6	Velocidad del viento	9.7
155014	7	Sololá	713	San Lucas Tolimán	10	San Lucas Tolimán	10	Octubre	2023-10-23T00:00:00	2024-11-08T18:00:00	7	Dirección del viento	9.66
155015	7	Sololá	713	San Lucas Tolimán	10	San Lucas Tolimán	10	Octubre	2023-10-23T00:00:00	2024-11-08T18:00:00	1	Precipitación	0
155016	7	Sololá	713	San Lucas Tolimán	10	San Lucas Tolimán	10	Octubre	2023-10-23T00:00:00	2024-11-08T18:00:00	8	Radiación solar	2
155017	7	Sololá	713	San Lucas Tolimán	10	San Lucas Tolimán	10	Octubre	2023-10-23T00:00:00	2024-11-08T19:00:00	2	Temperatura media	19
155018	7	Sololá	713	San Lucas Tolimán	10	San Lucas Tolimán	10	Octubre	2023-10-23T00:00:00	2024-11-08T19:00:00	4	Temperatura máxima	19.4
155019	7	Sololá	713	San Lucas Tolimán	10	San Lucas Tolimán	10	Octubre	2023-10-23T00:00:00	2024-11-08T19:00:00	3	Temperatura mínima	19
155020	7	Sololá	713	San Lucas Tolimán	10	San Lucas Tolimán	10	Octubre	2023-10-23T00:00:00	2024-11-08T19:00:00	5	Humedad	92
155021	7	Sololá	713	San Lucas Tolimán	10	San Lucas Tolimán	10	Octubre	2023-10-23T00:00:00	2024-11-08T19:00:00	6	Velocidad del viento	4.8
155022	7	Sololá	713	San Lucas Tolimán	10	San Lucas Tolimán	10	Octubre	2023-10-23T00:00:00	2024-11-08T19:00:00	7	Dirección del viento	4.83
155023	7	Sololá	713	San Lucas Tolimán	10	San Lucas Tolimán	10	Octubre	2023-10-23T00:00:00	2024-11-08T19:00:00	1	Precipitación	0
155024	7	Sololá	713	San Lucas Tolimán	10	San Lucas Tolimán	10	Octubre	2023-10-23T00:00:00	2024-11-08T19:00:00	8	Radiación solar	0
155025	7	Sololá	713	San Lucas Tolimán	10	San Lucas Tolimán	10	Octubre	2023-10-23T00:00:00	2024-11-08T20:00:00	2	Temperatura media	18.8
155026	7	Sololá	713	San Lucas Tolimán	10	San Lucas Tolimán	10	Octubre	2023-10-23T00:00:00	2024-11-08T20:00:00	4	Temperatura máxima	19.1
155027	7	Sololá	713	San Lucas Tolimán	10	San Lucas Tolimán	10	Octubre	2023-10-23T00:00:00	2024-11-08T20:00:00	3	Temperatura mínima	18.5
155028	7	Sololá	713	San Lucas Tolimán	10	San Lucas Tolimán	10	Octubre	2023-10-23T00:00:00	2024-11-08T20:00:00	5	Humedad	94
155029	7	Sololá	713	San Lucas Tolimán	10	San Lucas Tolimán	10	Octubre	2023-10-23T00:00:00	2024-11-08T20:00:00	6	Velocidad del viento	4.8
155030	7	Sololá	713	San Lucas Tolimán	10	San Lucas Tolimán	10	Octubre	2023-10-23T00:00:00	2024-11-08T20:00:00	7	Dirección del viento	4.83
155031	7	Sololá	713	San Lucas Tolimán	10	San Lucas Tolimán	10	Octubre	2023-10-23T00:00:00	2024-11-08T20:00:00	1	Precipitación	0
155032	7	Sololá	713	San Lucas Tolimán	10	San Lucas Tolimán	10	Octubre	2023-10-23T00:00:00	2024-11-08T20:00:00	8	Radiación solar	0
155033	7	Sololá	713	San Lucas Tolimán	10	San Lucas Tolimán	10	Octubre	2023-10-23T00:00:00	2024-11-08T21:00:00	2	Temperatura media	18.6
155034	7	Sololá	713	San Lucas Tolimán	10	San Lucas Tolimán	10	Octubre	2023-10-23T00:00:00	2024-11-08T21:00:00	4	Temperatura máxima	18.9
155035	7	Sololá	713	San Lucas Tolimán	10	San Lucas Tolimán	10	Octubre	2023-10-23T00:00:00	2024-11-08T21:00:00	3	Temperatura mínima	18.1
155036	7	Sololá	713	San Lucas Tolimán	10	San Lucas Tolimán	10	Octubre	2023-10-23T00:00:00	2024-11-08T21:00:00	5	Humedad	96
155037	7	Sololá	713	San Lucas Tolimán	10	San Lucas Tolimán	10	Octubre	2023-10-23T00:00:00	2024-11-08T21:00:00	6	Velocidad del viento	6.4
155038	7	Sololá	713	San Lucas Tolimán	10	San Lucas Tolimán	10	Octubre	2023-10-23T00:00:00	2024-11-08T21:00:00	7	Dirección del viento	6.44
155039	7	Sololá	713	San Lucas Tolimán	10	San Lucas Tolimán	10	Octubre	2023-10-23T00:00:00	2024-11-08T21:00:00	1	Precipitación	2
155040	7	Sololá	713	San Lucas Tolimán	10	San Lucas Tolimán	10	Octubre	2023-10-23T00:00:00	2024-11-08T21:00:00	8	Radiación solar	0
155041	7	Sololá	713	San Lucas Tolimán	10	San Lucas Tolimán	10	Octubre	2023-10-23T00:00:00	2024-11-08T22:00:00	2	Temperatura media	18.1
155042	7	Sololá	713	San Lucas Tolimán	10	San Lucas Tolimán	10	Octubre	2023-10-23T00:00:00	2024-11-08T22:00:00	4	Temperatura máxima	18.6
155043	7	Sololá	713	San Lucas Tolimán	10	San Lucas Tolimán	10	Octubre	2023-10-23T00:00:00	2024-11-08T22:00:00	3	Temperatura mínima	18.1
155044	7	Sololá	713	San Lucas Tolimán	10	San Lucas Tolimán	10	Octubre	2023-10-23T00:00:00	2024-11-08T22:00:00	5	Humedad	94
155045	7	Sololá	713	San Lucas Tolimán	10	San Lucas Tolimán	10	Octubre	2023-10-23T00:00:00	2024-11-08T22:00:00	6	Velocidad del viento	8
155046	7	Sololá	713	San Lucas Tolimán	10	San Lucas Tolimán	10	Octubre	2023-10-23T00:00:00	2024-11-08T22:00:00	7	Dirección del viento	8.05
155047	7	Sololá	713	San Lucas Tolimán	10	San Lucas Tolimán	10	Octubre	2023-10-23T00:00:00	2024-11-08T22:00:00	1	Precipitación	3.2
155048	7	Sololá	713	San Lucas Tolimán	10	San Lucas Tolimán	10	Octubre	2023-10-23T00:00:00	2024-11-08T22:00:00	8	Radiación solar	0
155049	7	Sololá	713	San Lucas Tolimán	10	San Lucas Tolimán	10	Octubre	2023-10-23T00:00:00	2024-11-08T23:00:00	2	Temperatura media	17.8
155050	7	Sololá	713	San Lucas Tolimán	10	San Lucas Tolimán	10	Octubre	2023-10-23T00:00:00	2024-11-08T23:00:00	4	Temperatura máxima	18.1
155051	7	Sololá	713	San Lucas Tolimán	10	San Lucas Tolimán	10	Octubre	2023-10-23T00:00:00	2024-11-08T23:00:00	3	Temperatura mínima	17.8
155052	7	Sololá	713	San Lucas Tolimán	10	San Lucas Tolimán	10	Octubre	2023-10-23T00:00:00	2024-11-08T23:00:00	5	Humedad	96
155053	7	Sololá	713	San Lucas Tolimán	10	San Lucas Tolimán	10	Octubre	2023-10-23T00:00:00	2024-11-08T23:00:00	6	Velocidad del viento	6.4
155054	7	Sololá	713	San Lucas Tolimán	10	San Lucas Tolimán	10	Octubre	2023-10-23T00:00:00	2024-11-08T23:00:00	7	Dirección del viento	6.44
155055	7	Sololá	713	San Lucas Tolimán	10	San Lucas Tolimán	10	Octubre	2023-10-23T00:00:00	2024-11-08T23:00:00	1	Precipitación	2.4
155056	7	Sololá	713	San Lucas Tolimán	10	San Lucas Tolimán	10	Octubre	2023-10-23T00:00:00	2024-11-08T23:00:00	8	Radiación solar	0
155057	7	Sololá	713	San Lucas Tolimán	10	San Lucas Tolimán	10	Octubre	2023-10-24T00:00:00	2024-11-08T00:00:00	2	Temperatura media	17.7
155058	7	Sololá	713	San Lucas Tolimán	10	San Lucas Tolimán	10	Octubre	2023-10-24T00:00:00	2024-11-08T00:00:00	4	Temperatura máxima	17.8
155059	7	Sololá	713	San Lucas Tolimán	10	San Lucas Tolimán	10	Octubre	2023-10-24T00:00:00	2024-11-08T00:00:00	3	Temperatura mínima	17.7
155060	7	Sololá	713	San Lucas Tolimán	10	San Lucas Tolimán	10	Octubre	2023-10-24T00:00:00	2024-11-08T00:00:00	5	Humedad	97
155061	7	Sololá	713	San Lucas Tolimán	10	San Lucas Tolimán	10	Octubre	2023-10-24T00:00:00	2024-11-08T00:00:00	6	Velocidad del viento	4.8
155062	7	Sololá	713	San Lucas Tolimán	10	San Lucas Tolimán	10	Octubre	2023-10-24T00:00:00	2024-11-08T00:00:00	7	Dirección del viento	4.83
155063	7	Sololá	713	San Lucas Tolimán	10	San Lucas Tolimán	10	Octubre	2023-10-24T00:00:00	2024-11-08T00:00:00	1	Precipitación	0.8
155064	7	Sololá	713	San Lucas Tolimán	10	San Lucas Tolimán	10	Octubre	2023-10-24T00:00:00	2024-11-08T00:00:00	8	Radiación solar	0
155065	7	Sololá	713	San Lucas Tolimán	10	San Lucas Tolimán	10	Octubre	2023-10-24T00:00:00	2024-11-08T01:00:00	2	Temperatura media	17.6
155066	7	Sololá	713	San Lucas Tolimán	10	San Lucas Tolimán	10	Octubre	2023-10-24T00:00:00	2024-11-08T01:00:00	4	Temperatura máxima	17.7
155067	7	Sololá	713	San Lucas Tolimán	10	San Lucas Tolimán	10	Octubre	2023-10-24T00:00:00	2024-11-08T01:00:00	3	Temperatura mínima	17.6
155068	7	Sololá	713	San Lucas Tolimán	10	San Lucas Tolimán	10	Octubre	2023-10-24T00:00:00	2024-11-08T01:00:00	5	Humedad	97
155069	7	Sololá	713	San Lucas Tolimán	10	San Lucas Tolimán	10	Octubre	2023-10-24T00:00:00	2024-11-08T01:00:00	6	Velocidad del viento	4.8
155070	7	Sololá	713	San Lucas Tolimán	10	San Lucas Tolimán	10	Octubre	2023-10-24T00:00:00	2024-11-08T01:00:00	7	Dirección del viento	4.83
155071	7	Sololá	713	San Lucas Tolimán	10	San Lucas Tolimán	10	Octubre	2023-10-24T00:00:00	2024-11-08T01:00:00	1	Precipitación	0
155072	7	Sololá	713	San Lucas Tolimán	10	San Lucas Tolimán	10	Octubre	2023-10-24T00:00:00	2024-11-08T01:00:00	8	Radiación solar	0
155073	7	Sololá	713	San Lucas Tolimán	10	San Lucas Tolimán	10	Octubre	2023-10-24T00:00:00	2024-11-08T02:00:00	2	Temperatura media	17.4
155074	7	Sololá	713	San Lucas Tolimán	10	San Lucas Tolimán	10	Octubre	2023-10-24T00:00:00	2024-11-08T02:00:00	4	Temperatura máxima	17.7
155075	7	Sololá	713	San Lucas Tolimán	10	San Lucas Tolimán	10	Octubre	2023-10-24T00:00:00	2024-11-08T02:00:00	3	Temperatura mínima	17.4
155076	7	Sololá	713	San Lucas Tolimán	10	San Lucas Tolimán	10	Octubre	2023-10-24T00:00:00	2024-11-08T02:00:00	5	Humedad	96
155077	7	Sololá	713	San Lucas Tolimán	10	San Lucas Tolimán	10	Octubre	2023-10-24T00:00:00	2024-11-08T02:00:00	6	Velocidad del viento	4.8
155078	7	Sololá	713	San Lucas Tolimán	10	San Lucas Tolimán	10	Octubre	2023-10-24T00:00:00	2024-11-08T02:00:00	7	Dirección del viento	4.83
155079	7	Sololá	713	San Lucas Tolimán	10	San Lucas Tolimán	10	Octubre	2023-10-24T00:00:00	2024-11-08T02:00:00	1	Precipitación	0
155080	7	Sololá	713	San Lucas Tolimán	10	San Lucas Tolimán	10	Octubre	2023-10-24T00:00:00	2024-11-08T02:00:00	8	Radiación solar	0
155081	7	Sololá	713	San Lucas Tolimán	10	San Lucas Tolimán	10	Octubre	2023-10-24T00:00:00	2024-11-08T03:00:00	2	Temperatura media	17.2
155082	7	Sololá	713	San Lucas Tolimán	10	San Lucas Tolimán	10	Octubre	2023-10-24T00:00:00	2024-11-08T03:00:00	4	Temperatura máxima	17.4
155083	7	Sololá	713	San Lucas Tolimán	10	San Lucas Tolimán	10	Octubre	2023-10-24T00:00:00	2024-11-08T03:00:00	3	Temperatura mínima	17
155084	7	Sololá	713	San Lucas Tolimán	10	San Lucas Tolimán	10	Octubre	2023-10-24T00:00:00	2024-11-08T03:00:00	5	Humedad	96
155085	7	Sololá	713	San Lucas Tolimán	10	San Lucas Tolimán	10	Octubre	2023-10-24T00:00:00	2024-11-08T03:00:00	6	Velocidad del viento	1.6
155086	7	Sololá	713	San Lucas Tolimán	10	San Lucas Tolimán	10	Octubre	2023-10-24T00:00:00	2024-11-08T03:00:00	7	Dirección del viento	1.61
155087	7	Sololá	713	San Lucas Tolimán	10	San Lucas Tolimán	10	Octubre	2023-10-24T00:00:00	2024-11-08T03:00:00	1	Precipitación	0
155088	7	Sololá	713	San Lucas Tolimán	10	San Lucas Tolimán	10	Octubre	2023-10-24T00:00:00	2024-11-08T03:00:00	8	Radiación solar	0
155089	7	Sololá	713	San Lucas Tolimán	10	San Lucas Tolimán	10	Octubre	2023-10-24T00:00:00	2024-11-08T04:00:00	2	Temperatura media	17
155090	7	Sololá	713	San Lucas Tolimán	10	San Lucas Tolimán	10	Octubre	2023-10-24T00:00:00	2024-11-08T04:00:00	4	Temperatura máxima	17.2
155091	7	Sololá	713	San Lucas Tolimán	10	San Lucas Tolimán	10	Octubre	2023-10-24T00:00:00	2024-11-08T04:00:00	3	Temperatura mínima	17
155092	7	Sololá	713	San Lucas Tolimán	10	San Lucas Tolimán	10	Octubre	2023-10-24T00:00:00	2024-11-08T04:00:00	5	Humedad	96
155093	7	Sololá	713	San Lucas Tolimán	10	San Lucas Tolimán	10	Octubre	2023-10-24T00:00:00	2024-11-08T04:00:00	6	Velocidad del viento	0
155094	7	Sololá	713	San Lucas Tolimán	10	San Lucas Tolimán	10	Octubre	2023-10-24T00:00:00	2024-11-08T04:00:00	7	Dirección del viento	0
155095	7	Sololá	713	San Lucas Tolimán	10	San Lucas Tolimán	10	Octubre	2023-10-24T00:00:00	2024-11-08T04:00:00	1	Precipitación	0
155096	7	Sololá	713	San Lucas Tolimán	10	San Lucas Tolimán	10	Octubre	2023-10-24T00:00:00	2024-11-08T04:00:00	8	Radiación solar	0
155097	7	Sololá	713	San Lucas Tolimán	10	San Lucas Tolimán	10	Octubre	2023-10-24T00:00:00	2024-11-08T05:00:00	2	Temperatura media	16.7
155098	7	Sololá	713	San Lucas Tolimán	10	San Lucas Tolimán	10	Octubre	2023-10-24T00:00:00	2024-11-08T05:00:00	4	Temperatura máxima	17.1
155099	7	Sololá	713	San Lucas Tolimán	10	San Lucas Tolimán	10	Octubre	2023-10-24T00:00:00	2024-11-08T05:00:00	3	Temperatura mínima	16.7
155100	7	Sololá	713	San Lucas Tolimán	10	San Lucas Tolimán	10	Octubre	2023-10-24T00:00:00	2024-11-08T05:00:00	5	Humedad	96
155101	7	Sololá	713	San Lucas Tolimán	10	San Lucas Tolimán	10	Octubre	2023-10-24T00:00:00	2024-11-08T05:00:00	6	Velocidad del viento	0
155102	7	Sololá	713	San Lucas Tolimán	10	San Lucas Tolimán	10	Octubre	2023-10-24T00:00:00	2024-11-08T05:00:00	7	Dirección del viento	0
155103	7	Sololá	713	San Lucas Tolimán	10	San Lucas Tolimán	10	Octubre	2023-10-24T00:00:00	2024-11-08T05:00:00	1	Precipitación	0
155104	7	Sololá	713	San Lucas Tolimán	10	San Lucas Tolimán	10	Octubre	2023-10-24T00:00:00	2024-11-08T05:00:00	8	Radiación solar	0
155105	7	Sololá	713	San Lucas Tolimán	10	San Lucas Tolimán	10	Octubre	2023-10-24T00:00:00	2024-11-08T06:00:00	2	Temperatura media	16.8
155106	7	Sololá	713	San Lucas Tolimán	10	San Lucas Tolimán	10	Octubre	2023-10-24T00:00:00	2024-11-08T06:00:00	4	Temperatura máxima	16.9
155107	7	Sololá	713	San Lucas Tolimán	10	San Lucas Tolimán	10	Octubre	2023-10-24T00:00:00	2024-11-08T06:00:00	3	Temperatura mínima	16.6
155108	7	Sololá	713	San Lucas Tolimán	10	San Lucas Tolimán	10	Octubre	2023-10-24T00:00:00	2024-11-08T06:00:00	5	Humedad	95
155109	7	Sololá	713	San Lucas Tolimán	10	San Lucas Tolimán	10	Octubre	2023-10-24T00:00:00	2024-11-08T06:00:00	6	Velocidad del viento	3.2
155110	7	Sololá	713	San Lucas Tolimán	10	San Lucas Tolimán	10	Octubre	2023-10-24T00:00:00	2024-11-08T06:00:00	7	Dirección del viento	3.22
155111	7	Sololá	713	San Lucas Tolimán	10	San Lucas Tolimán	10	Octubre	2023-10-24T00:00:00	2024-11-08T06:00:00	1	Precipitación	0
155112	7	Sololá	713	San Lucas Tolimán	10	San Lucas Tolimán	10	Octubre	2023-10-24T00:00:00	2024-11-08T06:00:00	8	Radiación solar	0
155113	7	Sololá	713	San Lucas Tolimán	10	San Lucas Tolimán	10	Octubre	2023-10-24T00:00:00	2024-11-08T07:00:00	2	Temperatura media	17
155114	7	Sololá	713	San Lucas Tolimán	10	San Lucas Tolimán	10	Octubre	2023-10-24T00:00:00	2024-11-08T07:00:00	4	Temperatura máxima	17
155115	7	Sololá	713	San Lucas Tolimán	10	San Lucas Tolimán	10	Octubre	2023-10-24T00:00:00	2024-11-08T07:00:00	3	Temperatura mínima	16.7
155116	7	Sololá	713	San Lucas Tolimán	10	San Lucas Tolimán	10	Octubre	2023-10-24T00:00:00	2024-11-08T07:00:00	5	Humedad	97
155117	7	Sololá	713	San Lucas Tolimán	10	San Lucas Tolimán	10	Octubre	2023-10-24T00:00:00	2024-11-08T07:00:00	6	Velocidad del viento	1.6
155118	7	Sololá	713	San Lucas Tolimán	10	San Lucas Tolimán	10	Octubre	2023-10-24T00:00:00	2024-11-08T07:00:00	7	Dirección del viento	1.61
155119	7	Sololá	713	San Lucas Tolimán	10	San Lucas Tolimán	10	Octubre	2023-10-24T00:00:00	2024-11-08T07:00:00	1	Precipitación	0
155120	7	Sololá	713	San Lucas Tolimán	10	San Lucas Tolimán	10	Octubre	2023-10-24T00:00:00	2024-11-08T07:00:00	8	Radiación solar	46
155121	7	Sololá	713	San Lucas Tolimán	10	San Lucas Tolimán	10	Octubre	2023-10-24T00:00:00	2024-11-08T08:00:00	2	Temperatura media	19.7
155122	7	Sololá	713	San Lucas Tolimán	10	San Lucas Tolimán	10	Octubre	2023-10-24T00:00:00	2024-11-08T08:00:00	4	Temperatura máxima	19.7
155123	7	Sololá	713	San Lucas Tolimán	10	San Lucas Tolimán	10	Octubre	2023-10-24T00:00:00	2024-11-08T08:00:00	3	Temperatura mínima	17
155124	7	Sololá	713	San Lucas Tolimán	10	San Lucas Tolimán	10	Octubre	2023-10-24T00:00:00	2024-11-08T08:00:00	5	Humedad	92
155125	7	Sololá	713	San Lucas Tolimán	10	San Lucas Tolimán	10	Octubre	2023-10-24T00:00:00	2024-11-08T08:00:00	6	Velocidad del viento	0
155126	7	Sololá	713	San Lucas Tolimán	10	San Lucas Tolimán	10	Octubre	2023-10-24T00:00:00	2024-11-08T08:00:00	7	Dirección del viento	0
155127	7	Sololá	713	San Lucas Tolimán	10	San Lucas Tolimán	10	Octubre	2023-10-24T00:00:00	2024-11-08T08:00:00	1	Precipitación	0
155128	7	Sololá	713	San Lucas Tolimán	10	San Lucas Tolimán	10	Octubre	2023-10-24T00:00:00	2024-11-08T08:00:00	8	Radiación solar	247
155129	7	Sololá	713	San Lucas Tolimán	10	San Lucas Tolimán	10	Octubre	2023-10-24T00:00:00	2024-11-08T09:00:00	2	Temperatura media	23
155130	7	Sololá	713	San Lucas Tolimán	10	San Lucas Tolimán	10	Octubre	2023-10-24T00:00:00	2024-11-08T09:00:00	4	Temperatura máxima	23
155131	7	Sololá	713	San Lucas Tolimán	10	San Lucas Tolimán	10	Octubre	2023-10-24T00:00:00	2024-11-08T09:00:00	3	Temperatura mínima	19.7
155132	7	Sololá	713	San Lucas Tolimán	10	San Lucas Tolimán	10	Octubre	2023-10-24T00:00:00	2024-11-08T09:00:00	5	Humedad	78
155133	7	Sololá	713	San Lucas Tolimán	10	San Lucas Tolimán	10	Octubre	2023-10-24T00:00:00	2024-11-08T09:00:00	6	Velocidad del viento	3.2
155134	7	Sololá	713	San Lucas Tolimán	10	San Lucas Tolimán	10	Octubre	2023-10-24T00:00:00	2024-11-08T09:00:00	7	Dirección del viento	3.22
155135	7	Sololá	713	San Lucas Tolimán	10	San Lucas Tolimán	10	Octubre	2023-10-24T00:00:00	2024-11-08T09:00:00	1	Precipitación	0
155136	7	Sololá	713	San Lucas Tolimán	10	San Lucas Tolimán	10	Octubre	2023-10-24T00:00:00	2024-11-08T09:00:00	8	Radiación solar	526
155137	7	Sololá	713	San Lucas Tolimán	10	San Lucas Tolimán	10	Octubre	2023-10-24T00:00:00	2024-11-08T10:00:00	2	Temperatura media	23.1
155138	7	Sololá	713	San Lucas Tolimán	10	San Lucas Tolimán	10	Octubre	2023-10-24T00:00:00	2024-11-08T10:00:00	4	Temperatura máxima	24.2
155139	7	Sololá	713	San Lucas Tolimán	10	San Lucas Tolimán	10	Octubre	2023-10-24T00:00:00	2024-11-08T10:00:00	3	Temperatura mínima	22.9
155140	7	Sololá	713	San Lucas Tolimán	10	San Lucas Tolimán	10	Octubre	2023-10-24T00:00:00	2024-11-08T10:00:00	5	Humedad	82
155141	7	Sololá	713	San Lucas Tolimán	10	San Lucas Tolimán	10	Octubre	2023-10-24T00:00:00	2024-11-08T10:00:00	6	Velocidad del viento	4.8
155142	7	Sololá	713	San Lucas Tolimán	10	San Lucas Tolimán	10	Octubre	2023-10-24T00:00:00	2024-11-08T10:00:00	7	Dirección del viento	4.83
155143	7	Sololá	713	San Lucas Tolimán	10	San Lucas Tolimán	10	Octubre	2023-10-24T00:00:00	2024-11-08T10:00:00	1	Precipitación	0
155144	7	Sololá	713	San Lucas Tolimán	10	San Lucas Tolimán	10	Octubre	2023-10-24T00:00:00	2024-11-08T10:00:00	8	Radiación solar	441
155145	7	Sololá	713	San Lucas Tolimán	10	San Lucas Tolimán	10	Octubre	2023-10-24T00:00:00	2024-11-08T11:00:00	2	Temperatura media	21.4
155146	7	Sololá	713	San Lucas Tolimán	10	San Lucas Tolimán	10	Octubre	2023-10-24T00:00:00	2024-11-08T11:00:00	4	Temperatura máxima	23.2
155147	7	Sololá	713	San Lucas Tolimán	10	San Lucas Tolimán	10	Octubre	2023-10-24T00:00:00	2024-11-08T11:00:00	3	Temperatura mínima	21.4
155148	7	Sololá	713	San Lucas Tolimán	10	San Lucas Tolimán	10	Octubre	2023-10-24T00:00:00	2024-11-08T11:00:00	5	Humedad	87
155149	7	Sololá	713	San Lucas Tolimán	10	San Lucas Tolimán	10	Octubre	2023-10-24T00:00:00	2024-11-08T11:00:00	6	Velocidad del viento	14.5
155150	7	Sololá	713	San Lucas Tolimán	10	San Lucas Tolimán	10	Octubre	2023-10-24T00:00:00	2024-11-08T11:00:00	7	Dirección del viento	14.48
155151	7	Sololá	713	San Lucas Tolimán	10	San Lucas Tolimán	10	Octubre	2023-10-24T00:00:00	2024-11-08T11:00:00	1	Precipitación	0
155152	7	Sololá	713	San Lucas Tolimán	10	San Lucas Tolimán	10	Octubre	2023-10-24T00:00:00	2024-11-08T11:00:00	8	Radiación solar	674
155153	7	Sololá	713	San Lucas Tolimán	10	San Lucas Tolimán	10	Octubre	2023-10-24T00:00:00	2024-11-08T12:00:00	2	Temperatura media	20.2
155154	7	Sololá	713	San Lucas Tolimán	10	San Lucas Tolimán	10	Octubre	2023-10-24T00:00:00	2024-11-08T12:00:00	4	Temperatura máxima	21.4
155155	7	Sololá	713	San Lucas Tolimán	10	San Lucas Tolimán	10	Octubre	2023-10-24T00:00:00	2024-11-08T12:00:00	3	Temperatura mínima	20.1
155156	7	Sololá	713	San Lucas Tolimán	10	San Lucas Tolimán	10	Octubre	2023-10-24T00:00:00	2024-11-08T12:00:00	5	Humedad	93
155157	7	Sololá	713	San Lucas Tolimán	10	San Lucas Tolimán	10	Octubre	2023-10-24T00:00:00	2024-11-08T12:00:00	6	Velocidad del viento	14.5
155158	7	Sololá	713	San Lucas Tolimán	10	San Lucas Tolimán	10	Octubre	2023-10-24T00:00:00	2024-11-08T12:00:00	7	Dirección del viento	14.48
155159	7	Sololá	713	San Lucas Tolimán	10	San Lucas Tolimán	10	Octubre	2023-10-24T00:00:00	2024-11-08T12:00:00	1	Precipitación	0
155160	7	Sololá	713	San Lucas Tolimán	10	San Lucas Tolimán	10	Octubre	2023-10-24T00:00:00	2024-11-08T12:00:00	8	Radiación solar	831
155161	7	Sololá	713	San Lucas Tolimán	10	San Lucas Tolimán	10	Octubre	2023-10-24T00:00:00	2024-11-08T13:00:00	2	Temperatura media	19.7
155162	7	Sololá	713	San Lucas Tolimán	10	San Lucas Tolimán	10	Octubre	2023-10-24T00:00:00	2024-11-08T13:00:00	4	Temperatura máxima	20.1
155163	7	Sololá	713	San Lucas Tolimán	10	San Lucas Tolimán	10	Octubre	2023-10-24T00:00:00	2024-11-08T13:00:00	3	Temperatura mínima	19.4
155164	7	Sololá	713	San Lucas Tolimán	10	San Lucas Tolimán	10	Octubre	2023-10-24T00:00:00	2024-11-08T13:00:00	5	Humedad	93
155165	7	Sololá	713	San Lucas Tolimán	10	San Lucas Tolimán	10	Octubre	2023-10-24T00:00:00	2024-11-08T13:00:00	6	Velocidad del viento	11.3
155166	7	Sololá	713	San Lucas Tolimán	10	San Lucas Tolimán	10	Octubre	2023-10-24T00:00:00	2024-11-08T13:00:00	7	Dirección del viento	11.27
155167	7	Sololá	713	San Lucas Tolimán	10	San Lucas Tolimán	10	Octubre	2023-10-24T00:00:00	2024-11-08T13:00:00	1	Precipitación	0
155168	7	Sololá	713	San Lucas Tolimán	10	San Lucas Tolimán	10	Octubre	2023-10-24T00:00:00	2024-11-08T13:00:00	8	Radiación solar	886
155169	7	Sololá	713	San Lucas Tolimán	10	San Lucas Tolimán	10	Octubre	2023-10-24T00:00:00	2024-11-08T14:00:00	2	Temperatura media	19.7
155170	7	Sololá	713	San Lucas Tolimán	10	San Lucas Tolimán	10	Octubre	2023-10-24T00:00:00	2024-11-08T14:00:00	4	Temperatura máxima	19.8
155171	7	Sololá	713	San Lucas Tolimán	10	San Lucas Tolimán	10	Octubre	2023-10-24T00:00:00	2024-11-08T14:00:00	3	Temperatura mínima	19.6
155172	7	Sololá	713	San Lucas Tolimán	10	San Lucas Tolimán	10	Octubre	2023-10-24T00:00:00	2024-11-08T14:00:00	5	Humedad	92
155173	7	Sololá	713	San Lucas Tolimán	10	San Lucas Tolimán	10	Octubre	2023-10-24T00:00:00	2024-11-08T14:00:00	6	Velocidad del viento	9.7
155174	7	Sololá	713	San Lucas Tolimán	10	San Lucas Tolimán	10	Octubre	2023-10-24T00:00:00	2024-11-08T14:00:00	7	Dirección del viento	9.66
155175	7	Sololá	713	San Lucas Tolimán	10	San Lucas Tolimán	10	Octubre	2023-10-24T00:00:00	2024-11-08T14:00:00	1	Precipitación	0
155176	7	Sololá	713	San Lucas Tolimán	10	San Lucas Tolimán	10	Octubre	2023-10-24T00:00:00	2024-11-08T14:00:00	8	Radiación solar	853
155177	7	Sololá	713	San Lucas Tolimán	10	San Lucas Tolimán	10	Octubre	2023-10-24T00:00:00	2024-11-08T15:00:00	2	Temperatura media	20.5
155178	7	Sololá	713	San Lucas Tolimán	10	San Lucas Tolimán	10	Octubre	2023-10-24T00:00:00	2024-11-08T15:00:00	4	Temperatura máxima	20.5
155179	7	Sololá	713	San Lucas Tolimán	10	San Lucas Tolimán	10	Octubre	2023-10-24T00:00:00	2024-11-08T15:00:00	3	Temperatura mínima	19.6
155180	7	Sololá	713	San Lucas Tolimán	10	San Lucas Tolimán	10	Octubre	2023-10-24T00:00:00	2024-11-08T15:00:00	5	Humedad	90
155181	7	Sololá	713	San Lucas Tolimán	10	San Lucas Tolimán	10	Octubre	2023-10-24T00:00:00	2024-11-08T15:00:00	6	Velocidad del viento	4.8
155182	7	Sololá	713	San Lucas Tolimán	10	San Lucas Tolimán	10	Octubre	2023-10-24T00:00:00	2024-11-08T15:00:00	7	Dirección del viento	4.83
155183	7	Sololá	713	San Lucas Tolimán	10	San Lucas Tolimán	10	Octubre	2023-10-24T00:00:00	2024-11-08T15:00:00	1	Precipitación	0.2
155184	7	Sololá	713	San Lucas Tolimán	10	San Lucas Tolimán	10	Octubre	2023-10-24T00:00:00	2024-11-08T15:00:00	8	Radiación solar	561
155185	7	Sololá	713	San Lucas Tolimán	10	San Lucas Tolimán	10	Octubre	2023-10-24T00:00:00	2024-11-08T16:00:00	2	Temperatura media	20.9
155186	7	Sololá	713	San Lucas Tolimán	10	San Lucas Tolimán	10	Octubre	2023-10-24T00:00:00	2024-11-08T16:00:00	4	Temperatura máxima	20.9
155187	7	Sololá	713	San Lucas Tolimán	10	San Lucas Tolimán	10	Octubre	2023-10-24T00:00:00	2024-11-08T16:00:00	3	Temperatura mínima	20.5
155188	7	Sololá	713	San Lucas Tolimán	10	San Lucas Tolimán	10	Octubre	2023-10-24T00:00:00	2024-11-08T16:00:00	5	Humedad	88
155189	7	Sololá	713	San Lucas Tolimán	10	San Lucas Tolimán	10	Octubre	2023-10-24T00:00:00	2024-11-08T16:00:00	6	Velocidad del viento	1.6
155190	7	Sololá	713	San Lucas Tolimán	10	San Lucas Tolimán	10	Octubre	2023-10-24T00:00:00	2024-11-08T16:00:00	7	Dirección del viento	1.61
155191	7	Sololá	713	San Lucas Tolimán	10	San Lucas Tolimán	10	Octubre	2023-10-24T00:00:00	2024-11-08T16:00:00	1	Precipitación	0
155192	7	Sololá	713	San Lucas Tolimán	10	San Lucas Tolimán	10	Octubre	2023-10-24T00:00:00	2024-11-08T16:00:00	8	Radiación solar	371
155193	7	Sololá	713	San Lucas Tolimán	10	San Lucas Tolimán	10	Octubre	2023-10-24T00:00:00	2024-11-08T17:00:00	2	Temperatura media	19.9
155194	7	Sololá	713	San Lucas Tolimán	10	San Lucas Tolimán	10	Octubre	2023-10-24T00:00:00	2024-11-08T17:00:00	4	Temperatura máxima	20.9
155195	7	Sololá	713	San Lucas Tolimán	10	San Lucas Tolimán	10	Octubre	2023-10-24T00:00:00	2024-11-08T17:00:00	3	Temperatura mínima	19.9
155196	7	Sololá	713	San Lucas Tolimán	10	San Lucas Tolimán	10	Octubre	2023-10-24T00:00:00	2024-11-08T17:00:00	5	Humedad	92
155197	7	Sololá	713	San Lucas Tolimán	10	San Lucas Tolimán	10	Octubre	2023-10-24T00:00:00	2024-11-08T17:00:00	6	Velocidad del viento	3.2
155198	7	Sololá	713	San Lucas Tolimán	10	San Lucas Tolimán	10	Octubre	2023-10-24T00:00:00	2024-11-08T17:00:00	7	Dirección del viento	3.22
155199	7	Sololá	713	San Lucas Tolimán	10	San Lucas Tolimán	10	Octubre	2023-10-24T00:00:00	2024-11-08T17:00:00	1	Precipitación	0
155200	7	Sololá	713	San Lucas Tolimán	10	San Lucas Tolimán	10	Octubre	2023-10-24T00:00:00	2024-11-08T17:00:00	8	Radiación solar	35
155201	7	Sololá	713	San Lucas Tolimán	10	San Lucas Tolimán	10	Octubre	2023-10-24T00:00:00	2024-11-08T18:00:00	2	Temperatura media	19.3
155202	7	Sololá	713	San Lucas Tolimán	10	San Lucas Tolimán	10	Octubre	2023-10-24T00:00:00	2024-11-08T18:00:00	4	Temperatura máxima	20
155203	7	Sololá	713	San Lucas Tolimán	10	San Lucas Tolimán	10	Octubre	2023-10-24T00:00:00	2024-11-08T18:00:00	3	Temperatura mínima	19.3
155204	7	Sololá	713	San Lucas Tolimán	10	San Lucas Tolimán	10	Octubre	2023-10-24T00:00:00	2024-11-08T18:00:00	5	Humedad	93
155205	7	Sololá	713	San Lucas Tolimán	10	San Lucas Tolimán	10	Octubre	2023-10-24T00:00:00	2024-11-08T18:00:00	6	Velocidad del viento	1.6
155206	7	Sololá	713	San Lucas Tolimán	10	San Lucas Tolimán	10	Octubre	2023-10-24T00:00:00	2024-11-08T18:00:00	7	Dirección del viento	1.61
155207	7	Sololá	713	San Lucas Tolimán	10	San Lucas Tolimán	10	Octubre	2023-10-24T00:00:00	2024-11-08T18:00:00	1	Precipitación	0
155208	7	Sololá	713	San Lucas Tolimán	10	San Lucas Tolimán	10	Octubre	2023-10-24T00:00:00	2024-11-08T18:00:00	8	Radiación solar	6
155209	7	Sololá	713	San Lucas Tolimán	10	San Lucas Tolimán	10	Octubre	2023-10-24T00:00:00	2024-11-08T19:00:00	2	Temperatura media	18.8
155210	7	Sololá	713	San Lucas Tolimán	10	San Lucas Tolimán	10	Octubre	2023-10-24T00:00:00	2024-11-08T19:00:00	4	Temperatura máxima	19.4
155211	7	Sololá	713	San Lucas Tolimán	10	San Lucas Tolimán	10	Octubre	2023-10-24T00:00:00	2024-11-08T19:00:00	3	Temperatura mínima	18.8
155212	7	Sololá	713	San Lucas Tolimán	10	San Lucas Tolimán	10	Octubre	2023-10-24T00:00:00	2024-11-08T19:00:00	5	Humedad	94
155213	7	Sololá	713	San Lucas Tolimán	10	San Lucas Tolimán	10	Octubre	2023-10-24T00:00:00	2024-11-08T19:00:00	6	Velocidad del viento	1.6
155214	7	Sololá	713	San Lucas Tolimán	10	San Lucas Tolimán	10	Octubre	2023-10-24T00:00:00	2024-11-08T19:00:00	7	Dirección del viento	1.61
155215	7	Sololá	713	San Lucas Tolimán	10	San Lucas Tolimán	10	Octubre	2023-10-24T00:00:00	2024-11-08T19:00:00	1	Precipitación	0
155216	7	Sololá	713	San Lucas Tolimán	10	San Lucas Tolimán	10	Octubre	2023-10-24T00:00:00	2024-11-08T19:00:00	8	Radiación solar	0
155217	7	Sololá	713	San Lucas Tolimán	10	San Lucas Tolimán	10	Octubre	2023-10-24T00:00:00	2024-11-08T20:00:00	2	Temperatura media	18.7
155218	7	Sololá	713	San Lucas Tolimán	10	San Lucas Tolimán	10	Octubre	2023-10-24T00:00:00	2024-11-08T20:00:00	4	Temperatura máxima	18.8
155219	7	Sololá	713	San Lucas Tolimán	10	San Lucas Tolimán	10	Octubre	2023-10-24T00:00:00	2024-11-08T20:00:00	3	Temperatura mínima	18.6
155220	7	Sololá	713	San Lucas Tolimán	10	San Lucas Tolimán	10	Octubre	2023-10-24T00:00:00	2024-11-08T20:00:00	5	Humedad	94
155221	7	Sololá	713	San Lucas Tolimán	10	San Lucas Tolimán	10	Octubre	2023-10-24T00:00:00	2024-11-08T20:00:00	6	Velocidad del viento	0
155222	7	Sololá	713	San Lucas Tolimán	10	San Lucas Tolimán	10	Octubre	2023-10-24T00:00:00	2024-11-08T20:00:00	7	Dirección del viento	0
155223	7	Sololá	713	San Lucas Tolimán	10	San Lucas Tolimán	10	Octubre	2023-10-24T00:00:00	2024-11-08T20:00:00	1	Precipitación	0
155224	7	Sololá	713	San Lucas Tolimán	10	San Lucas Tolimán	10	Octubre	2023-10-24T00:00:00	2024-11-08T20:00:00	8	Radiación solar	0
155225	7	Sololá	713	San Lucas Tolimán	10	San Lucas Tolimán	10	Octubre	2023-10-24T00:00:00	2024-11-08T21:00:00	2	Temperatura media	18.3
155226	7	Sololá	713	San Lucas Tolimán	10	San Lucas Tolimán	10	Octubre	2023-10-24T00:00:00	2024-11-08T21:00:00	4	Temperatura máxima	18.7
155227	7	Sololá	713	San Lucas Tolimán	10	San Lucas Tolimán	10	Octubre	2023-10-24T00:00:00	2024-11-08T21:00:00	3	Temperatura mínima	18.3
155228	7	Sololá	713	San Lucas Tolimán	10	San Lucas Tolimán	10	Octubre	2023-10-24T00:00:00	2024-11-08T21:00:00	5	Humedad	94
155229	7	Sololá	713	San Lucas Tolimán	10	San Lucas Tolimán	10	Octubre	2023-10-24T00:00:00	2024-11-08T21:00:00	6	Velocidad del viento	1.6
155230	7	Sololá	713	San Lucas Tolimán	10	San Lucas Tolimán	10	Octubre	2023-10-24T00:00:00	2024-11-08T21:00:00	7	Dirección del viento	1.61
155231	7	Sololá	713	San Lucas Tolimán	10	San Lucas Tolimán	10	Octubre	2023-10-24T00:00:00	2024-11-08T21:00:00	1	Precipitación	0
155232	7	Sololá	713	San Lucas Tolimán	10	San Lucas Tolimán	10	Octubre	2023-10-24T00:00:00	2024-11-08T21:00:00	8	Radiación solar	0
155233	7	Sololá	713	San Lucas Tolimán	10	San Lucas Tolimán	10	Octubre	2023-10-24T00:00:00	2024-11-08T22:00:00	2	Temperatura media	17.6
155234	7	Sololá	713	San Lucas Tolimán	10	San Lucas Tolimán	10	Octubre	2023-10-24T00:00:00	2024-11-08T22:00:00	4	Temperatura máxima	18.3
155235	7	Sololá	713	San Lucas Tolimán	10	San Lucas Tolimán	10	Octubre	2023-10-24T00:00:00	2024-11-08T22:00:00	3	Temperatura mínima	17.6
155236	7	Sololá	713	San Lucas Tolimán	10	San Lucas Tolimán	10	Octubre	2023-10-24T00:00:00	2024-11-08T22:00:00	5	Humedad	94
155237	7	Sololá	713	San Lucas Tolimán	10	San Lucas Tolimán	10	Octubre	2023-10-24T00:00:00	2024-11-08T22:00:00	6	Velocidad del viento	3.2
155238	7	Sololá	713	San Lucas Tolimán	10	San Lucas Tolimán	10	Octubre	2023-10-24T00:00:00	2024-11-08T22:00:00	7	Dirección del viento	3.22
155239	7	Sololá	713	San Lucas Tolimán	10	San Lucas Tolimán	10	Octubre	2023-10-24T00:00:00	2024-11-08T22:00:00	1	Precipitación	0
155240	7	Sololá	713	San Lucas Tolimán	10	San Lucas Tolimán	10	Octubre	2023-10-24T00:00:00	2024-11-08T22:00:00	8	Radiación solar	0
155241	7	Sololá	713	San Lucas Tolimán	10	San Lucas Tolimán	10	Octubre	2023-10-24T00:00:00	2024-11-08T23:00:00	2	Temperatura media	17.3
155242	7	Sololá	713	San Lucas Tolimán	10	San Lucas Tolimán	10	Octubre	2023-10-24T00:00:00	2024-11-08T23:00:00	4	Temperatura máxima	17.6
155243	7	Sololá	713	San Lucas Tolimán	10	San Lucas Tolimán	10	Octubre	2023-10-24T00:00:00	2024-11-08T23:00:00	3	Temperatura mínima	17.3
155244	7	Sololá	713	San Lucas Tolimán	10	San Lucas Tolimán	10	Octubre	2023-10-24T00:00:00	2024-11-08T23:00:00	5	Humedad	95
155245	7	Sololá	713	San Lucas Tolimán	10	San Lucas Tolimán	10	Octubre	2023-10-24T00:00:00	2024-11-08T23:00:00	6	Velocidad del viento	3.2
155246	7	Sololá	713	San Lucas Tolimán	10	San Lucas Tolimán	10	Octubre	2023-10-24T00:00:00	2024-11-08T23:00:00	7	Dirección del viento	3.22
155247	7	Sololá	713	San Lucas Tolimán	10	San Lucas Tolimán	10	Octubre	2023-10-24T00:00:00	2024-11-08T23:00:00	1	Precipitación	0
155248	7	Sololá	713	San Lucas Tolimán	10	San Lucas Tolimán	10	Octubre	2023-10-24T00:00:00	2024-11-08T23:00:00	8	Radiación solar	0
155249	7	Sololá	713	San Lucas Tolimán	10	San Lucas Tolimán	10	Octubre	2023-10-25T00:00:00	2024-11-08T00:00:00	2	Temperatura media	17.1
155250	7	Sololá	713	San Lucas Tolimán	10	San Lucas Tolimán	10	Octubre	2023-10-25T00:00:00	2024-11-08T00:00:00	4	Temperatura máxima	17.3
155251	7	Sololá	713	San Lucas Tolimán	10	San Lucas Tolimán	10	Octubre	2023-10-25T00:00:00	2024-11-08T00:00:00	3	Temperatura mínima	17.1
155252	7	Sololá	713	San Lucas Tolimán	10	San Lucas Tolimán	10	Octubre	2023-10-25T00:00:00	2024-11-08T00:00:00	5	Humedad	95
155253	7	Sololá	713	San Lucas Tolimán	10	San Lucas Tolimán	10	Octubre	2023-10-25T00:00:00	2024-11-08T00:00:00	6	Velocidad del viento	1.6
155254	7	Sololá	713	San Lucas Tolimán	10	San Lucas Tolimán	10	Octubre	2023-10-25T00:00:00	2024-11-08T00:00:00	7	Dirección del viento	1.61
155255	7	Sololá	713	San Lucas Tolimán	10	San Lucas Tolimán	10	Octubre	2023-10-25T00:00:00	2024-11-08T00:00:00	1	Precipitación	0
155256	7	Sololá	713	San Lucas Tolimán	10	San Lucas Tolimán	10	Octubre	2023-10-25T00:00:00	2024-11-08T00:00:00	8	Radiación solar	0
155257	7	Sololá	713	San Lucas Tolimán	10	San Lucas Tolimán	10	Octubre	2023-10-25T00:00:00	2024-11-08T01:00:00	2	Temperatura media	17.2
155258	7	Sololá	713	San Lucas Tolimán	10	San Lucas Tolimán	10	Octubre	2023-10-25T00:00:00	2024-11-08T01:00:00	4	Temperatura máxima	17.2
155259	7	Sololá	713	San Lucas Tolimán	10	San Lucas Tolimán	10	Octubre	2023-10-25T00:00:00	2024-11-08T01:00:00	3	Temperatura mínima	17
155260	7	Sololá	713	San Lucas Tolimán	10	San Lucas Tolimán	10	Octubre	2023-10-25T00:00:00	2024-11-08T01:00:00	5	Humedad	95
155261	7	Sololá	713	San Lucas Tolimán	10	San Lucas Tolimán	10	Octubre	2023-10-25T00:00:00	2024-11-08T01:00:00	6	Velocidad del viento	0
155262	7	Sololá	713	San Lucas Tolimán	10	San Lucas Tolimán	10	Octubre	2023-10-25T00:00:00	2024-11-08T01:00:00	7	Dirección del viento	0
155263	7	Sololá	713	San Lucas Tolimán	10	San Lucas Tolimán	10	Octubre	2023-10-25T00:00:00	2024-11-08T01:00:00	1	Precipitación	0
155264	7	Sololá	713	San Lucas Tolimán	10	San Lucas Tolimán	10	Octubre	2023-10-25T00:00:00	2024-11-08T01:00:00	8	Radiación solar	0
155265	7	Sololá	713	San Lucas Tolimán	10	San Lucas Tolimán	10	Octubre	2023-10-25T00:00:00	2024-11-08T02:00:00	2	Temperatura media	17.6
155266	7	Sololá	713	San Lucas Tolimán	10	San Lucas Tolimán	10	Octubre	2023-10-25T00:00:00	2024-11-08T02:00:00	4	Temperatura máxima	17.6
155267	7	Sololá	713	San Lucas Tolimán	10	San Lucas Tolimán	10	Octubre	2023-10-25T00:00:00	2024-11-08T02:00:00	3	Temperatura mínima	17.2
155268	7	Sololá	713	San Lucas Tolimán	10	San Lucas Tolimán	10	Octubre	2023-10-25T00:00:00	2024-11-08T02:00:00	5	Humedad	96
155269	7	Sololá	713	San Lucas Tolimán	10	San Lucas Tolimán	10	Octubre	2023-10-25T00:00:00	2024-11-08T02:00:00	6	Velocidad del viento	1.6
155270	7	Sololá	713	San Lucas Tolimán	10	San Lucas Tolimán	10	Octubre	2023-10-25T00:00:00	2024-11-08T02:00:00	7	Dirección del viento	1.61
155271	7	Sololá	713	San Lucas Tolimán	10	San Lucas Tolimán	10	Octubre	2023-10-25T00:00:00	2024-11-08T02:00:00	1	Precipitación	0
155272	7	Sololá	713	San Lucas Tolimán	10	San Lucas Tolimán	10	Octubre	2023-10-25T00:00:00	2024-11-08T02:00:00	8	Radiación solar	0
155273	7	Sololá	713	San Lucas Tolimán	10	San Lucas Tolimán	10	Octubre	2023-10-25T00:00:00	2024-11-08T03:00:00	2	Temperatura media	17.1
155274	7	Sololá	713	San Lucas Tolimán	10	San Lucas Tolimán	10	Octubre	2023-10-25T00:00:00	2024-11-08T03:00:00	4	Temperatura máxima	17.7
155275	7	Sololá	713	San Lucas Tolimán	10	San Lucas Tolimán	10	Octubre	2023-10-25T00:00:00	2024-11-08T03:00:00	3	Temperatura mínima	17.1
155276	7	Sololá	713	San Lucas Tolimán	10	San Lucas Tolimán	10	Octubre	2023-10-25T00:00:00	2024-11-08T03:00:00	5	Humedad	95
155277	7	Sololá	713	San Lucas Tolimán	10	San Lucas Tolimán	10	Octubre	2023-10-25T00:00:00	2024-11-08T03:00:00	6	Velocidad del viento	1.6
155278	7	Sololá	713	San Lucas Tolimán	10	San Lucas Tolimán	10	Octubre	2023-10-25T00:00:00	2024-11-08T03:00:00	7	Dirección del viento	1.61
155279	7	Sololá	713	San Lucas Tolimán	10	San Lucas Tolimán	10	Octubre	2023-10-25T00:00:00	2024-11-08T03:00:00	1	Precipitación	0
155280	7	Sololá	713	San Lucas Tolimán	10	San Lucas Tolimán	10	Octubre	2023-10-25T00:00:00	2024-11-08T03:00:00	8	Radiación solar	0
155281	7	Sololá	713	San Lucas Tolimán	10	San Lucas Tolimán	10	Octubre	2023-10-25T00:00:00	2024-11-08T04:00:00	2	Temperatura media	16.3
155282	7	Sololá	713	San Lucas Tolimán	10	San Lucas Tolimán	10	Octubre	2023-10-25T00:00:00	2024-11-08T04:00:00	4	Temperatura máxima	17.1
155283	7	Sololá	713	San Lucas Tolimán	10	San Lucas Tolimán	10	Octubre	2023-10-25T00:00:00	2024-11-08T04:00:00	3	Temperatura mínima	16.3
155284	7	Sololá	713	San Lucas Tolimán	10	San Lucas Tolimán	10	Octubre	2023-10-25T00:00:00	2024-11-08T04:00:00	5	Humedad	96
155285	7	Sololá	713	San Lucas Tolimán	10	San Lucas Tolimán	10	Octubre	2023-10-25T00:00:00	2024-11-08T04:00:00	6	Velocidad del viento	1.6
155286	7	Sololá	713	San Lucas Tolimán	10	San Lucas Tolimán	10	Octubre	2023-10-25T00:00:00	2024-11-08T04:00:00	7	Dirección del viento	1.61
155287	7	Sololá	713	San Lucas Tolimán	10	San Lucas Tolimán	10	Octubre	2023-10-25T00:00:00	2024-11-08T04:00:00	1	Precipitación	0
155288	7	Sololá	713	San Lucas Tolimán	10	San Lucas Tolimán	10	Octubre	2023-10-25T00:00:00	2024-11-08T04:00:00	8	Radiación solar	0
155289	7	Sololá	713	San Lucas Tolimán	10	San Lucas Tolimán	10	Octubre	2023-10-25T00:00:00	2024-11-08T05:00:00	2	Temperatura media	16.9
155290	7	Sololá	713	San Lucas Tolimán	10	San Lucas Tolimán	10	Octubre	2023-10-25T00:00:00	2024-11-08T05:00:00	4	Temperatura máxima	16.9
155291	7	Sololá	713	San Lucas Tolimán	10	San Lucas Tolimán	10	Octubre	2023-10-25T00:00:00	2024-11-08T05:00:00	3	Temperatura mínima	16.3
155292	7	Sololá	713	San Lucas Tolimán	10	San Lucas Tolimán	10	Octubre	2023-10-25T00:00:00	2024-11-08T05:00:00	5	Humedad	97
155293	7	Sololá	713	San Lucas Tolimán	10	San Lucas Tolimán	10	Octubre	2023-10-25T00:00:00	2024-11-08T05:00:00	6	Velocidad del viento	1.6
155294	7	Sololá	713	San Lucas Tolimán	10	San Lucas Tolimán	10	Octubre	2023-10-25T00:00:00	2024-11-08T05:00:00	7	Dirección del viento	1.61
155295	7	Sololá	713	San Lucas Tolimán	10	San Lucas Tolimán	10	Octubre	2023-10-25T00:00:00	2024-11-08T05:00:00	1	Precipitación	0
155296	7	Sololá	713	San Lucas Tolimán	10	San Lucas Tolimán	10	Octubre	2023-10-25T00:00:00	2024-11-08T05:00:00	8	Radiación solar	0
155297	7	Sololá	713	San Lucas Tolimán	10	San Lucas Tolimán	10	Octubre	2023-10-25T00:00:00	2024-11-08T06:00:00	2	Temperatura media	17.2
155298	7	Sololá	713	San Lucas Tolimán	10	San Lucas Tolimán	10	Octubre	2023-10-25T00:00:00	2024-11-08T06:00:00	4	Temperatura máxima	17.3
155299	7	Sololá	713	San Lucas Tolimán	10	San Lucas Tolimán	10	Octubre	2023-10-25T00:00:00	2024-11-08T06:00:00	3	Temperatura mínima	16.9
155300	7	Sololá	713	San Lucas Tolimán	10	San Lucas Tolimán	10	Octubre	2023-10-25T00:00:00	2024-11-08T06:00:00	5	Humedad	95
155301	7	Sololá	713	San Lucas Tolimán	10	San Lucas Tolimán	10	Octubre	2023-10-25T00:00:00	2024-11-08T06:00:00	6	Velocidad del viento	1.6
155302	7	Sololá	713	San Lucas Tolimán	10	San Lucas Tolimán	10	Octubre	2023-10-25T00:00:00	2024-11-08T06:00:00	7	Dirección del viento	1.61
155303	7	Sololá	713	San Lucas Tolimán	10	San Lucas Tolimán	10	Octubre	2023-10-25T00:00:00	2024-11-08T06:00:00	1	Precipitación	0
155304	7	Sololá	713	San Lucas Tolimán	10	San Lucas Tolimán	10	Octubre	2023-10-25T00:00:00	2024-11-08T06:00:00	8	Radiación solar	0
155305	7	Sololá	713	San Lucas Tolimán	10	San Lucas Tolimán	10	Octubre	2023-10-25T00:00:00	2024-11-08T07:00:00	2	Temperatura media	17.4
155306	7	Sololá	713	San Lucas Tolimán	10	San Lucas Tolimán	10	Octubre	2023-10-25T00:00:00	2024-11-08T07:00:00	4	Temperatura máxima	17.4
155307	7	Sololá	713	San Lucas Tolimán	10	San Lucas Tolimán	10	Octubre	2023-10-25T00:00:00	2024-11-08T07:00:00	3	Temperatura mínima	16.9
155308	7	Sololá	713	San Lucas Tolimán	10	San Lucas Tolimán	10	Octubre	2023-10-25T00:00:00	2024-11-08T07:00:00	5	Humedad	94
155309	7	Sololá	713	San Lucas Tolimán	10	San Lucas Tolimán	10	Octubre	2023-10-25T00:00:00	2024-11-08T07:00:00	6	Velocidad del viento	3.2
155310	7	Sololá	713	San Lucas Tolimán	10	San Lucas Tolimán	10	Octubre	2023-10-25T00:00:00	2024-11-08T07:00:00	7	Dirección del viento	3.22
155311	7	Sololá	713	San Lucas Tolimán	10	San Lucas Tolimán	10	Octubre	2023-10-25T00:00:00	2024-11-08T07:00:00	1	Precipitación	0
155312	7	Sololá	713	San Lucas Tolimán	10	San Lucas Tolimán	10	Octubre	2023-10-25T00:00:00	2024-11-08T07:00:00	8	Radiación solar	41
155313	7	Sololá	713	San Lucas Tolimán	10	San Lucas Tolimán	10	Octubre	2023-10-25T00:00:00	2024-11-08T08:00:00	2	Temperatura media	19.6
155314	7	Sololá	713	San Lucas Tolimán	10	San Lucas Tolimán	10	Octubre	2023-10-25T00:00:00	2024-11-08T08:00:00	4	Temperatura máxima	19.6
155315	7	Sololá	713	San Lucas Tolimán	10	San Lucas Tolimán	10	Octubre	2023-10-25T00:00:00	2024-11-08T08:00:00	3	Temperatura mínima	17.4
155316	7	Sololá	713	San Lucas Tolimán	10	San Lucas Tolimán	10	Octubre	2023-10-25T00:00:00	2024-11-08T08:00:00	5	Humedad	88
155317	7	Sololá	713	San Lucas Tolimán	10	San Lucas Tolimán	10	Octubre	2023-10-25T00:00:00	2024-11-08T08:00:00	6	Velocidad del viento	3.2
155318	7	Sololá	713	San Lucas Tolimán	10	San Lucas Tolimán	10	Octubre	2023-10-25T00:00:00	2024-11-08T08:00:00	7	Dirección del viento	3.22
155319	7	Sololá	713	San Lucas Tolimán	10	San Lucas Tolimán	10	Octubre	2023-10-25T00:00:00	2024-11-08T08:00:00	1	Precipitación	0
155320	7	Sololá	713	San Lucas Tolimán	10	San Lucas Tolimán	10	Octubre	2023-10-25T00:00:00	2024-11-08T08:00:00	8	Radiación solar	205
155321	7	Sololá	713	San Lucas Tolimán	10	San Lucas Tolimán	10	Octubre	2023-10-25T00:00:00	2024-11-08T09:00:00	2	Temperatura media	22.2
155322	7	Sololá	713	San Lucas Tolimán	10	San Lucas Tolimán	10	Octubre	2023-10-25T00:00:00	2024-11-08T09:00:00	4	Temperatura máxima	22.2
155323	7	Sololá	713	San Lucas Tolimán	10	San Lucas Tolimán	10	Octubre	2023-10-25T00:00:00	2024-11-08T09:00:00	3	Temperatura mínima	19.6
155324	7	Sololá	713	San Lucas Tolimán	10	San Lucas Tolimán	10	Octubre	2023-10-25T00:00:00	2024-11-08T09:00:00	5	Humedad	78
155325	7	Sololá	713	San Lucas Tolimán	10	San Lucas Tolimán	10	Octubre	2023-10-25T00:00:00	2024-11-08T09:00:00	6	Velocidad del viento	1.6
155326	7	Sololá	713	San Lucas Tolimán	10	San Lucas Tolimán	10	Octubre	2023-10-25T00:00:00	2024-11-08T09:00:00	7	Dirección del viento	1.61
155327	7	Sololá	713	San Lucas Tolimán	10	San Lucas Tolimán	10	Octubre	2023-10-25T00:00:00	2024-11-08T09:00:00	1	Precipitación	0
155328	7	Sololá	713	San Lucas Tolimán	10	San Lucas Tolimán	10	Octubre	2023-10-25T00:00:00	2024-11-08T09:00:00	8	Radiación solar	412
155329	7	Sololá	713	San Lucas Tolimán	10	San Lucas Tolimán	10	Octubre	2023-10-25T00:00:00	2024-11-08T10:00:00	2	Temperatura media	23.6
155330	7	Sololá	713	San Lucas Tolimán	10	San Lucas Tolimán	10	Octubre	2023-10-25T00:00:00	2024-11-08T10:00:00	4	Temperatura máxima	23.6
155331	7	Sololá	713	San Lucas Tolimán	10	San Lucas Tolimán	10	Octubre	2023-10-25T00:00:00	2024-11-08T10:00:00	3	Temperatura mínima	22.2
155332	7	Sololá	713	San Lucas Tolimán	10	San Lucas Tolimán	10	Octubre	2023-10-25T00:00:00	2024-11-08T10:00:00	5	Humedad	69
155333	7	Sololá	713	San Lucas Tolimán	10	San Lucas Tolimán	10	Octubre	2023-10-25T00:00:00	2024-11-08T10:00:00	6	Velocidad del viento	3.2
155334	7	Sololá	713	San Lucas Tolimán	10	San Lucas Tolimán	10	Octubre	2023-10-25T00:00:00	2024-11-08T10:00:00	7	Dirección del viento	3.22
155335	7	Sololá	713	San Lucas Tolimán	10	San Lucas Tolimán	10	Octubre	2023-10-25T00:00:00	2024-11-08T10:00:00	1	Precipitación	0
155336	7	Sololá	713	San Lucas Tolimán	10	San Lucas Tolimán	10	Octubre	2023-10-25T00:00:00	2024-11-08T10:00:00	8	Radiación solar	690
155337	7	Sololá	713	San Lucas Tolimán	10	San Lucas Tolimán	10	Octubre	2023-10-25T00:00:00	2024-11-08T11:00:00	2	Temperatura media	22.3
155338	7	Sololá	713	San Lucas Tolimán	10	San Lucas Tolimán	10	Octubre	2023-10-25T00:00:00	2024-11-08T11:00:00	4	Temperatura máxima	24.1
155339	7	Sololá	713	San Lucas Tolimán	10	San Lucas Tolimán	10	Octubre	2023-10-25T00:00:00	2024-11-08T11:00:00	3	Temperatura mínima	22.3
155340	7	Sololá	713	San Lucas Tolimán	10	San Lucas Tolimán	10	Octubre	2023-10-25T00:00:00	2024-11-08T11:00:00	5	Humedad	82
155341	7	Sololá	713	San Lucas Tolimán	10	San Lucas Tolimán	10	Octubre	2023-10-25T00:00:00	2024-11-08T11:00:00	6	Velocidad del viento	4.8
155342	7	Sololá	713	San Lucas Tolimán	10	San Lucas Tolimán	10	Octubre	2023-10-25T00:00:00	2024-11-08T11:00:00	7	Dirección del viento	4.83
155343	7	Sololá	713	San Lucas Tolimán	10	San Lucas Tolimán	10	Octubre	2023-10-25T00:00:00	2024-11-08T11:00:00	1	Precipitación	0
155344	7	Sololá	713	San Lucas Tolimán	10	San Lucas Tolimán	10	Octubre	2023-10-25T00:00:00	2024-11-08T11:00:00	8	Radiación solar	685
155345	7	Sololá	713	San Lucas Tolimán	10	San Lucas Tolimán	10	Octubre	2023-10-25T00:00:00	2024-11-08T12:00:00	2	Temperatura media	22.7
155346	7	Sololá	713	San Lucas Tolimán	10	San Lucas Tolimán	10	Octubre	2023-10-25T00:00:00	2024-11-08T12:00:00	4	Temperatura máxima	23.4
155347	7	Sololá	713	San Lucas Tolimán	10	San Lucas Tolimán	10	Octubre	2023-10-25T00:00:00	2024-11-08T12:00:00	3	Temperatura mínima	22.3
155348	7	Sololá	713	San Lucas Tolimán	10	San Lucas Tolimán	10	Octubre	2023-10-25T00:00:00	2024-11-08T12:00:00	5	Humedad	82
155349	7	Sololá	713	San Lucas Tolimán	10	San Lucas Tolimán	10	Octubre	2023-10-25T00:00:00	2024-11-08T12:00:00	6	Velocidad del viento	6.4
155350	7	Sololá	713	San Lucas Tolimán	10	San Lucas Tolimán	10	Octubre	2023-10-25T00:00:00	2024-11-08T12:00:00	7	Dirección del viento	6.44
155351	7	Sololá	713	San Lucas Tolimán	10	San Lucas Tolimán	10	Octubre	2023-10-25T00:00:00	2024-11-08T12:00:00	1	Precipitación	0
155352	7	Sololá	713	San Lucas Tolimán	10	San Lucas Tolimán	10	Octubre	2023-10-25T00:00:00	2024-11-08T12:00:00	8	Radiación solar	319
155353	7	Sololá	713	San Lucas Tolimán	10	San Lucas Tolimán	10	Octubre	2023-10-25T00:00:00	2024-11-08T13:00:00	2	Temperatura media	22.9
155354	7	Sololá	713	San Lucas Tolimán	10	San Lucas Tolimán	10	Octubre	2023-10-25T00:00:00	2024-11-08T13:00:00	4	Temperatura máxima	23.5
155355	7	Sololá	713	San Lucas Tolimán	10	San Lucas Tolimán	10	Octubre	2023-10-25T00:00:00	2024-11-08T13:00:00	3	Temperatura mínima	21.8
155356	7	Sololá	713	San Lucas Tolimán	10	San Lucas Tolimán	10	Octubre	2023-10-25T00:00:00	2024-11-08T13:00:00	5	Humedad	85
155357	7	Sololá	713	San Lucas Tolimán	10	San Lucas Tolimán	10	Octubre	2023-10-25T00:00:00	2024-11-08T13:00:00	6	Velocidad del viento	8
155358	7	Sololá	713	San Lucas Tolimán	10	San Lucas Tolimán	10	Octubre	2023-10-25T00:00:00	2024-11-08T13:00:00	7	Dirección del viento	8.05
155359	7	Sololá	713	San Lucas Tolimán	10	San Lucas Tolimán	10	Octubre	2023-10-25T00:00:00	2024-11-08T13:00:00	1	Precipitación	0
155360	7	Sololá	713	San Lucas Tolimán	10	San Lucas Tolimán	10	Octubre	2023-10-25T00:00:00	2024-11-08T13:00:00	8	Radiación solar	485
155361	7	Sololá	713	San Lucas Tolimán	10	San Lucas Tolimán	10	Octubre	2023-10-25T00:00:00	2024-11-08T14:00:00	2	Temperatura media	22.8
155362	7	Sololá	713	San Lucas Tolimán	10	San Lucas Tolimán	10	Octubre	2023-10-25T00:00:00	2024-11-08T14:00:00	4	Temperatura máxima	24.3
155363	7	Sololá	713	San Lucas Tolimán	10	San Lucas Tolimán	10	Octubre	2023-10-25T00:00:00	2024-11-08T14:00:00	3	Temperatura mínima	22.4
155364	7	Sololá	713	San Lucas Tolimán	10	San Lucas Tolimán	10	Octubre	2023-10-25T00:00:00	2024-11-08T14:00:00	5	Humedad	59
155365	7	Sololá	713	San Lucas Tolimán	10	San Lucas Tolimán	10	Octubre	2023-10-25T00:00:00	2024-11-08T14:00:00	6	Velocidad del viento	8
155366	7	Sololá	713	San Lucas Tolimán	10	San Lucas Tolimán	10	Octubre	2023-10-25T00:00:00	2024-11-08T14:00:00	7	Dirección del viento	8.05
155367	7	Sololá	713	San Lucas Tolimán	10	San Lucas Tolimán	10	Octubre	2023-10-25T00:00:00	2024-11-08T14:00:00	1	Precipitación	0
155368	7	Sololá	713	San Lucas Tolimán	10	San Lucas Tolimán	10	Octubre	2023-10-25T00:00:00	2024-11-08T14:00:00	8	Radiación solar	271
155369	7	Sololá	713	San Lucas Tolimán	10	San Lucas Tolimán	10	Octubre	2023-10-25T00:00:00	2024-11-08T15:00:00	2	Temperatura media	19.6
155370	7	Sololá	713	San Lucas Tolimán	10	San Lucas Tolimán	10	Octubre	2023-10-25T00:00:00	2024-11-08T15:00:00	4	Temperatura máxima	23.7
155371	7	Sololá	713	San Lucas Tolimán	10	San Lucas Tolimán	10	Octubre	2023-10-25T00:00:00	2024-11-08T15:00:00	3	Temperatura mínima	19.6
155372	7	Sololá	713	San Lucas Tolimán	10	San Lucas Tolimán	10	Octubre	2023-10-25T00:00:00	2024-11-08T15:00:00	5	Humedad	64
155373	7	Sololá	713	San Lucas Tolimán	10	San Lucas Tolimán	10	Octubre	2023-10-25T00:00:00	2024-11-08T15:00:00	6	Velocidad del viento	11.3
155374	7	Sololá	713	San Lucas Tolimán	10	San Lucas Tolimán	10	Octubre	2023-10-25T00:00:00	2024-11-08T15:00:00	7	Dirección del viento	11.27
155375	7	Sololá	713	San Lucas Tolimán	10	San Lucas Tolimán	10	Octubre	2023-10-25T00:00:00	2024-11-08T15:00:00	1	Precipitación	0
155376	7	Sololá	713	San Lucas Tolimán	10	San Lucas Tolimán	10	Octubre	2023-10-25T00:00:00	2024-11-08T15:00:00	8	Radiación solar	185
155377	7	Sololá	713	San Lucas Tolimán	10	San Lucas Tolimán	10	Octubre	2023-10-25T00:00:00	2024-11-08T16:00:00	2	Temperatura media	19.6
155378	7	Sololá	713	San Lucas Tolimán	10	San Lucas Tolimán	10	Octubre	2023-10-25T00:00:00	2024-11-08T16:00:00	4	Temperatura máxima	19.8
155379	7	Sololá	713	San Lucas Tolimán	10	San Lucas Tolimán	10	Octubre	2023-10-25T00:00:00	2024-11-08T16:00:00	3	Temperatura mínima	19.3
155380	7	Sololá	713	San Lucas Tolimán	10	San Lucas Tolimán	10	Octubre	2023-10-25T00:00:00	2024-11-08T16:00:00	5	Humedad	63
155381	7	Sololá	713	San Lucas Tolimán	10	San Lucas Tolimán	10	Octubre	2023-10-25T00:00:00	2024-11-08T16:00:00	6	Velocidad del viento	8
155382	7	Sololá	713	San Lucas Tolimán	10	San Lucas Tolimán	10	Octubre	2023-10-25T00:00:00	2024-11-08T16:00:00	7	Dirección del viento	8.05
155383	7	Sololá	713	San Lucas Tolimán	10	San Lucas Tolimán	10	Octubre	2023-10-25T00:00:00	2024-11-08T16:00:00	1	Precipitación	0
155384	7	Sololá	713	San Lucas Tolimán	10	San Lucas Tolimán	10	Octubre	2023-10-25T00:00:00	2024-11-08T16:00:00	8	Radiación solar	119
155385	7	Sololá	713	San Lucas Tolimán	10	San Lucas Tolimán	10	Octubre	2023-10-25T00:00:00	2024-11-08T17:00:00	2	Temperatura media	19.4
155386	7	Sololá	713	San Lucas Tolimán	10	San Lucas Tolimán	10	Octubre	2023-10-25T00:00:00	2024-11-08T17:00:00	4	Temperatura máxima	20.9
155387	7	Sololá	713	San Lucas Tolimán	10	San Lucas Tolimán	10	Octubre	2023-10-25T00:00:00	2024-11-08T17:00:00	3	Temperatura mínima	19.4
155388	7	Sololá	713	San Lucas Tolimán	10	San Lucas Tolimán	10	Octubre	2023-10-25T00:00:00	2024-11-08T17:00:00	5	Humedad	62
155389	7	Sololá	713	San Lucas Tolimán	10	San Lucas Tolimán	10	Octubre	2023-10-25T00:00:00	2024-11-08T17:00:00	6	Velocidad del viento	4.8
155390	7	Sololá	713	San Lucas Tolimán	10	San Lucas Tolimán	10	Octubre	2023-10-25T00:00:00	2024-11-08T17:00:00	7	Dirección del viento	4.83
155391	7	Sololá	713	San Lucas Tolimán	10	San Lucas Tolimán	10	Octubre	2023-10-25T00:00:00	2024-11-08T17:00:00	1	Precipitación	0
155392	7	Sololá	713	San Lucas Tolimán	10	San Lucas Tolimán	10	Octubre	2023-10-25T00:00:00	2024-11-08T17:00:00	8	Radiación solar	82
155393	7	Sololá	713	San Lucas Tolimán	10	San Lucas Tolimán	10	Octubre	2023-10-25T00:00:00	2024-11-08T18:00:00	2	Temperatura media	18.5
155394	7	Sololá	713	San Lucas Tolimán	10	San Lucas Tolimán	10	Octubre	2023-10-25T00:00:00	2024-11-08T18:00:00	4	Temperatura máxima	19.4
155395	7	Sololá	713	San Lucas Tolimán	10	San Lucas Tolimán	10	Octubre	2023-10-25T00:00:00	2024-11-08T18:00:00	3	Temperatura mínima	18.5
155396	7	Sololá	713	San Lucas Tolimán	10	San Lucas Tolimán	10	Octubre	2023-10-25T00:00:00	2024-11-08T18:00:00	5	Humedad	63
155397	7	Sololá	713	San Lucas Tolimán	10	San Lucas Tolimán	10	Octubre	2023-10-25T00:00:00	2024-11-08T18:00:00	6	Velocidad del viento	6.4
155398	7	Sololá	713	San Lucas Tolimán	10	San Lucas Tolimán	10	Octubre	2023-10-25T00:00:00	2024-11-08T18:00:00	7	Dirección del viento	6.44
155399	7	Sololá	713	San Lucas Tolimán	10	San Lucas Tolimán	10	Octubre	2023-10-25T00:00:00	2024-11-08T18:00:00	1	Precipitación	0
155400	7	Sololá	713	San Lucas Tolimán	10	San Lucas Tolimán	10	Octubre	2023-10-25T00:00:00	2024-11-08T18:00:00	8	Radiación solar	13
155401	7	Sololá	713	San Lucas Tolimán	10	San Lucas Tolimán	10	Octubre	2023-10-25T00:00:00	2024-11-08T19:00:00	2	Temperatura media	19.1
155402	7	Sololá	713	San Lucas Tolimán	10	San Lucas Tolimán	10	Octubre	2023-10-25T00:00:00	2024-11-08T19:00:00	4	Temperatura máxima	19.3
155403	7	Sololá	713	San Lucas Tolimán	10	San Lucas Tolimán	10	Octubre	2023-10-25T00:00:00	2024-11-08T19:00:00	3	Temperatura mínima	18.4
155404	7	Sololá	713	San Lucas Tolimán	10	San Lucas Tolimán	10	Octubre	2023-10-25T00:00:00	2024-11-08T19:00:00	5	Humedad	60
155405	7	Sololá	713	San Lucas Tolimán	10	San Lucas Tolimán	10	Octubre	2023-10-25T00:00:00	2024-11-08T19:00:00	6	Velocidad del viento	3.2
155406	7	Sololá	713	San Lucas Tolimán	10	San Lucas Tolimán	10	Octubre	2023-10-25T00:00:00	2024-11-08T19:00:00	7	Dirección del viento	3.22
155407	7	Sololá	713	San Lucas Tolimán	10	San Lucas Tolimán	10	Octubre	2023-10-25T00:00:00	2024-11-08T19:00:00	1	Precipitación	0
155408	7	Sololá	713	San Lucas Tolimán	10	San Lucas Tolimán	10	Octubre	2023-10-25T00:00:00	2024-11-08T19:00:00	8	Radiación solar	0
155409	7	Sololá	713	San Lucas Tolimán	10	San Lucas Tolimán	10	Octubre	2023-10-25T00:00:00	2024-11-08T20:00:00	2	Temperatura media	18.7
155410	7	Sololá	713	San Lucas Tolimán	10	San Lucas Tolimán	10	Octubre	2023-10-25T00:00:00	2024-11-08T20:00:00	4	Temperatura máxima	19.2
155411	7	Sololá	713	San Lucas Tolimán	10	San Lucas Tolimán	10	Octubre	2023-10-25T00:00:00	2024-11-08T20:00:00	3	Temperatura mínima	18.7
155412	7	Sololá	713	San Lucas Tolimán	10	San Lucas Tolimán	10	Octubre	2023-10-25T00:00:00	2024-11-08T20:00:00	5	Humedad	63
155413	7	Sololá	713	San Lucas Tolimán	10	San Lucas Tolimán	10	Octubre	2023-10-25T00:00:00	2024-11-08T20:00:00	6	Velocidad del viento	4.8
155414	7	Sololá	713	San Lucas Tolimán	10	San Lucas Tolimán	10	Octubre	2023-10-25T00:00:00	2024-11-08T20:00:00	7	Dirección del viento	4.83
155415	7	Sololá	713	San Lucas Tolimán	10	San Lucas Tolimán	10	Octubre	2023-10-25T00:00:00	2024-11-08T20:00:00	1	Precipitación	0
155416	7	Sololá	713	San Lucas Tolimán	10	San Lucas Tolimán	10	Octubre	2023-10-25T00:00:00	2024-11-08T20:00:00	8	Radiación solar	0
155417	7	Sololá	713	San Lucas Tolimán	10	San Lucas Tolimán	10	Octubre	2023-10-25T00:00:00	2024-11-08T21:00:00	2	Temperatura media	18.3
155418	7	Sololá	713	San Lucas Tolimán	10	San Lucas Tolimán	10	Octubre	2023-10-25T00:00:00	2024-11-08T21:00:00	4	Temperatura máxima	18.7
155419	7	Sololá	713	San Lucas Tolimán	10	San Lucas Tolimán	10	Octubre	2023-10-25T00:00:00	2024-11-08T21:00:00	3	Temperatura mínima	18.3
155420	7	Sololá	713	San Lucas Tolimán	10	San Lucas Tolimán	10	Octubre	2023-10-25T00:00:00	2024-11-08T21:00:00	5	Humedad	63
155421	7	Sololá	713	San Lucas Tolimán	10	San Lucas Tolimán	10	Octubre	2023-10-25T00:00:00	2024-11-08T21:00:00	6	Velocidad del viento	3.2
155422	7	Sololá	713	San Lucas Tolimán	10	San Lucas Tolimán	10	Octubre	2023-10-25T00:00:00	2024-11-08T21:00:00	7	Dirección del viento	3.22
155423	7	Sololá	713	San Lucas Tolimán	10	San Lucas Tolimán	10	Octubre	2023-10-25T00:00:00	2024-11-08T21:00:00	1	Precipitación	0
155424	7	Sololá	713	San Lucas Tolimán	10	San Lucas Tolimán	10	Octubre	2023-10-25T00:00:00	2024-11-08T21:00:00	8	Radiación solar	0
155425	7	Sololá	713	San Lucas Tolimán	10	San Lucas Tolimán	10	Octubre	2023-10-25T00:00:00	2024-11-08T22:00:00	2	Temperatura media	18.2
155426	7	Sololá	713	San Lucas Tolimán	10	San Lucas Tolimán	10	Octubre	2023-10-25T00:00:00	2024-11-08T22:00:00	4	Temperatura máxima	18.7
155427	7	Sololá	713	San Lucas Tolimán	10	San Lucas Tolimán	10	Octubre	2023-10-25T00:00:00	2024-11-08T22:00:00	3	Temperatura mínima	18.1
155428	7	Sololá	713	San Lucas Tolimán	10	San Lucas Tolimán	10	Octubre	2023-10-25T00:00:00	2024-11-08T22:00:00	5	Humedad	62
155429	7	Sololá	713	San Lucas Tolimán	10	San Lucas Tolimán	10	Octubre	2023-10-25T00:00:00	2024-11-08T22:00:00	6	Velocidad del viento	3.2
155430	7	Sololá	713	San Lucas Tolimán	10	San Lucas Tolimán	10	Octubre	2023-10-25T00:00:00	2024-11-08T22:00:00	7	Dirección del viento	3.22
155431	7	Sololá	713	San Lucas Tolimán	10	San Lucas Tolimán	10	Octubre	2023-10-25T00:00:00	2024-11-08T22:00:00	1	Precipitación	0
155432	7	Sololá	713	San Lucas Tolimán	10	San Lucas Tolimán	10	Octubre	2023-10-25T00:00:00	2024-11-08T22:00:00	8	Radiación solar	0
155433	7	Sololá	713	San Lucas Tolimán	10	San Lucas Tolimán	10	Octubre	2023-10-25T00:00:00	2024-11-08T23:00:00	2	Temperatura media	18.2
155434	7	Sololá	713	San Lucas Tolimán	10	San Lucas Tolimán	10	Octubre	2023-10-25T00:00:00	2024-11-08T23:00:00	4	Temperatura máxima	18.8
155435	7	Sololá	713	San Lucas Tolimán	10	San Lucas Tolimán	10	Octubre	2023-10-25T00:00:00	2024-11-08T23:00:00	3	Temperatura mínima	18
155436	7	Sololá	713	San Lucas Tolimán	10	San Lucas Tolimán	10	Octubre	2023-10-25T00:00:00	2024-11-08T23:00:00	5	Humedad	61
155437	7	Sololá	713	San Lucas Tolimán	10	San Lucas Tolimán	10	Octubre	2023-10-25T00:00:00	2024-11-08T23:00:00	6	Velocidad del viento	3.2
155438	7	Sololá	713	San Lucas Tolimán	10	San Lucas Tolimán	10	Octubre	2023-10-25T00:00:00	2024-11-08T23:00:00	7	Dirección del viento	3.22
155439	7	Sololá	713	San Lucas Tolimán	10	San Lucas Tolimán	10	Octubre	2023-10-25T00:00:00	2024-11-08T23:00:00	1	Precipitación	0
155440	7	Sololá	713	San Lucas Tolimán	10	San Lucas Tolimán	10	Octubre	2023-10-25T00:00:00	2024-11-08T23:00:00	8	Radiación solar	0
155441	7	Sololá	713	San Lucas Tolimán	10	San Lucas Tolimán	10	Octubre	2023-10-26T00:00:00	2024-11-08T00:00:00	2	Temperatura media	17.7
155442	7	Sololá	713	San Lucas Tolimán	10	San Lucas Tolimán	10	Octubre	2023-10-26T00:00:00	2024-11-08T00:00:00	4	Temperatura máxima	18.2
155443	7	Sololá	713	San Lucas Tolimán	10	San Lucas Tolimán	10	Octubre	2023-10-26T00:00:00	2024-11-08T00:00:00	3	Temperatura mínima	17.6
155444	7	Sololá	713	San Lucas Tolimán	10	San Lucas Tolimán	10	Octubre	2023-10-26T00:00:00	2024-11-08T00:00:00	5	Humedad	62
155445	7	Sololá	713	San Lucas Tolimán	10	San Lucas Tolimán	10	Octubre	2023-10-26T00:00:00	2024-11-08T00:00:00	6	Velocidad del viento	1.6
155446	7	Sololá	713	San Lucas Tolimán	10	San Lucas Tolimán	10	Octubre	2023-10-26T00:00:00	2024-11-08T00:00:00	7	Dirección del viento	1.61
155447	7	Sololá	713	San Lucas Tolimán	10	San Lucas Tolimán	10	Octubre	2023-10-26T00:00:00	2024-11-08T00:00:00	1	Precipitación	0
155448	7	Sololá	713	San Lucas Tolimán	10	San Lucas Tolimán	10	Octubre	2023-10-26T00:00:00	2024-11-08T00:00:00	8	Radiación solar	0
155449	7	Sololá	713	San Lucas Tolimán	10	San Lucas Tolimán	10	Octubre	2023-10-26T00:00:00	2024-11-08T01:00:00	2	Temperatura media	17.7
155450	7	Sololá	713	San Lucas Tolimán	10	San Lucas Tolimán	10	Octubre	2023-10-26T00:00:00	2024-11-08T01:00:00	4	Temperatura máxima	18.1
155451	7	Sololá	713	San Lucas Tolimán	10	San Lucas Tolimán	10	Octubre	2023-10-26T00:00:00	2024-11-08T01:00:00	3	Temperatura mínima	17.4
155452	7	Sololá	713	San Lucas Tolimán	10	San Lucas Tolimán	10	Octubre	2023-10-26T00:00:00	2024-11-08T01:00:00	5	Humedad	61
155453	7	Sololá	713	San Lucas Tolimán	10	San Lucas Tolimán	10	Octubre	2023-10-26T00:00:00	2024-11-08T01:00:00	6	Velocidad del viento	1.6
155454	7	Sololá	713	San Lucas Tolimán	10	San Lucas Tolimán	10	Octubre	2023-10-26T00:00:00	2024-11-08T01:00:00	7	Dirección del viento	1.61
155455	7	Sololá	713	San Lucas Tolimán	10	San Lucas Tolimán	10	Octubre	2023-10-26T00:00:00	2024-11-08T01:00:00	1	Precipitación	0
155456	7	Sololá	713	San Lucas Tolimán	10	San Lucas Tolimán	10	Octubre	2023-10-26T00:00:00	2024-11-08T01:00:00	8	Radiación solar	0
155457	7	Sololá	713	San Lucas Tolimán	10	San Lucas Tolimán	10	Octubre	2023-10-26T00:00:00	2024-11-08T02:00:00	2	Temperatura media	17.7
155458	7	Sololá	713	San Lucas Tolimán	10	San Lucas Tolimán	10	Octubre	2023-10-26T00:00:00	2024-11-08T02:00:00	4	Temperatura máxima	17.8
155459	7	Sololá	713	San Lucas Tolimán	10	San Lucas Tolimán	10	Octubre	2023-10-26T00:00:00	2024-11-08T02:00:00	3	Temperatura mínima	17.6
155460	7	Sololá	713	San Lucas Tolimán	10	San Lucas Tolimán	10	Octubre	2023-10-26T00:00:00	2024-11-08T02:00:00	5	Humedad	63
155461	7	Sololá	713	San Lucas Tolimán	10	San Lucas Tolimán	10	Octubre	2023-10-26T00:00:00	2024-11-08T02:00:00	6	Velocidad del viento	0
155462	7	Sololá	713	San Lucas Tolimán	10	San Lucas Tolimán	10	Octubre	2023-10-26T00:00:00	2024-11-08T02:00:00	7	Dirección del viento	0
155463	7	Sololá	713	San Lucas Tolimán	10	San Lucas Tolimán	10	Octubre	2023-10-26T00:00:00	2024-11-08T02:00:00	1	Precipitación	0
155464	7	Sololá	713	San Lucas Tolimán	10	San Lucas Tolimán	10	Octubre	2023-10-26T00:00:00	2024-11-08T02:00:00	8	Radiación solar	0
155465	7	Sololá	713	San Lucas Tolimán	10	San Lucas Tolimán	10	Octubre	2023-10-26T00:00:00	2024-11-08T03:00:00	2	Temperatura media	17.6
155466	7	Sololá	713	San Lucas Tolimán	10	San Lucas Tolimán	10	Octubre	2023-10-26T00:00:00	2024-11-08T03:00:00	4	Temperatura máxima	17.8
155467	7	Sololá	713	San Lucas Tolimán	10	San Lucas Tolimán	10	Octubre	2023-10-26T00:00:00	2024-11-08T03:00:00	3	Temperatura mínima	17.4
155468	7	Sololá	713	San Lucas Tolimán	10	San Lucas Tolimán	10	Octubre	2023-10-26T00:00:00	2024-11-08T03:00:00	5	Humedad	62
155469	7	Sololá	713	San Lucas Tolimán	10	San Lucas Tolimán	10	Octubre	2023-10-26T00:00:00	2024-11-08T03:00:00	6	Velocidad del viento	1.6
155470	7	Sololá	713	San Lucas Tolimán	10	San Lucas Tolimán	10	Octubre	2023-10-26T00:00:00	2024-11-08T03:00:00	7	Dirección del viento	1.61
155471	7	Sololá	713	San Lucas Tolimán	10	San Lucas Tolimán	10	Octubre	2023-10-26T00:00:00	2024-11-08T03:00:00	1	Precipitación	0
155472	7	Sololá	713	San Lucas Tolimán	10	San Lucas Tolimán	10	Octubre	2023-10-26T00:00:00	2024-11-08T03:00:00	8	Radiación solar	0
155473	7	Sololá	713	San Lucas Tolimán	10	San Lucas Tolimán	10	Octubre	2023-10-26T00:00:00	2024-11-08T04:00:00	2	Temperatura media	17.2
155474	7	Sololá	713	San Lucas Tolimán	10	San Lucas Tolimán	10	Octubre	2023-10-26T00:00:00	2024-11-08T04:00:00	4	Temperatura máxima	17.7
155475	7	Sololá	713	San Lucas Tolimán	10	San Lucas Tolimán	10	Octubre	2023-10-26T00:00:00	2024-11-08T04:00:00	3	Temperatura mínima	17.1
155476	7	Sololá	713	San Lucas Tolimán	10	San Lucas Tolimán	10	Octubre	2023-10-26T00:00:00	2024-11-08T04:00:00	5	Humedad	62
155477	7	Sololá	713	San Lucas Tolimán	10	San Lucas Tolimán	10	Octubre	2023-10-26T00:00:00	2024-11-08T04:00:00	6	Velocidad del viento	1.6
155478	7	Sololá	713	San Lucas Tolimán	10	San Lucas Tolimán	10	Octubre	2023-10-26T00:00:00	2024-11-08T04:00:00	7	Dirección del viento	1.61
155479	7	Sololá	713	San Lucas Tolimán	10	San Lucas Tolimán	10	Octubre	2023-10-26T00:00:00	2024-11-08T04:00:00	1	Precipitación	0
155480	7	Sololá	713	San Lucas Tolimán	10	San Lucas Tolimán	10	Octubre	2023-10-26T00:00:00	2024-11-08T04:00:00	8	Radiación solar	0
155481	7	Sololá	713	San Lucas Tolimán	10	San Lucas Tolimán	10	Octubre	2023-10-26T00:00:00	2024-11-08T05:00:00	2	Temperatura media	16.7
155482	7	Sololá	713	San Lucas Tolimán	10	San Lucas Tolimán	10	Octubre	2023-10-26T00:00:00	2024-11-08T05:00:00	4	Temperatura máxima	17.2
155483	7	Sololá	713	San Lucas Tolimán	10	San Lucas Tolimán	10	Octubre	2023-10-26T00:00:00	2024-11-08T05:00:00	3	Temperatura mínima	16.5
155484	7	Sololá	713	San Lucas Tolimán	10	San Lucas Tolimán	10	Octubre	2023-10-26T00:00:00	2024-11-08T05:00:00	5	Humedad	63
155485	7	Sololá	713	San Lucas Tolimán	10	San Lucas Tolimán	10	Octubre	2023-10-26T00:00:00	2024-11-08T05:00:00	6	Velocidad del viento	1.6
155486	7	Sololá	713	San Lucas Tolimán	10	San Lucas Tolimán	10	Octubre	2023-10-26T00:00:00	2024-11-08T05:00:00	7	Dirección del viento	1.61
155487	7	Sololá	713	San Lucas Tolimán	10	San Lucas Tolimán	10	Octubre	2023-10-26T00:00:00	2024-11-08T05:00:00	1	Precipitación	0
155488	7	Sololá	713	San Lucas Tolimán	10	San Lucas Tolimán	10	Octubre	2023-10-26T00:00:00	2024-11-08T05:00:00	8	Radiación solar	0
155489	7	Sololá	713	San Lucas Tolimán	10	San Lucas Tolimán	10	Octubre	2023-10-26T00:00:00	2024-11-08T06:00:00	2	Temperatura media	16.7
155490	7	Sololá	713	San Lucas Tolimán	10	San Lucas Tolimán	10	Octubre	2023-10-26T00:00:00	2024-11-08T06:00:00	4	Temperatura máxima	16.9
155491	7	Sololá	713	San Lucas Tolimán	10	San Lucas Tolimán	10	Octubre	2023-10-26T00:00:00	2024-11-08T06:00:00	3	Temperatura mínima	16.5
155492	7	Sololá	713	San Lucas Tolimán	10	San Lucas Tolimán	10	Octubre	2023-10-26T00:00:00	2024-11-08T06:00:00	5	Humedad	62
155493	7	Sololá	713	San Lucas Tolimán	10	San Lucas Tolimán	10	Octubre	2023-10-26T00:00:00	2024-11-08T06:00:00	6	Velocidad del viento	1.6
155494	7	Sololá	713	San Lucas Tolimán	10	San Lucas Tolimán	10	Octubre	2023-10-26T00:00:00	2024-11-08T06:00:00	7	Dirección del viento	1.61
155495	7	Sololá	713	San Lucas Tolimán	10	San Lucas Tolimán	10	Octubre	2023-10-26T00:00:00	2024-11-08T06:00:00	1	Precipitación	0
155496	7	Sololá	713	San Lucas Tolimán	10	San Lucas Tolimán	10	Octubre	2023-10-26T00:00:00	2024-11-08T06:00:00	8	Radiación solar	0
155497	7	Sololá	713	San Lucas Tolimán	10	San Lucas Tolimán	10	Octubre	2023-10-26T00:00:00	2024-11-08T07:00:00	2	Temperatura media	18.3
155498	7	Sololá	713	San Lucas Tolimán	10	San Lucas Tolimán	10	Octubre	2023-10-26T00:00:00	2024-11-08T07:00:00	4	Temperatura máxima	18.3
155499	7	Sololá	713	San Lucas Tolimán	10	San Lucas Tolimán	10	Octubre	2023-10-26T00:00:00	2024-11-08T07:00:00	3	Temperatura mínima	16.4
155500	7	Sololá	713	San Lucas Tolimán	10	San Lucas Tolimán	10	Octubre	2023-10-26T00:00:00	2024-11-08T07:00:00	5	Humedad	57
155501	7	Sololá	713	San Lucas Tolimán	10	San Lucas Tolimán	10	Octubre	2023-10-26T00:00:00	2024-11-08T07:00:00	6	Velocidad del viento	3.2
155502	7	Sololá	713	San Lucas Tolimán	10	San Lucas Tolimán	10	Octubre	2023-10-26T00:00:00	2024-11-08T07:00:00	7	Dirección del viento	3.22
155503	7	Sololá	713	San Lucas Tolimán	10	San Lucas Tolimán	10	Octubre	2023-10-26T00:00:00	2024-11-08T07:00:00	1	Precipitación	0
155504	7	Sololá	713	San Lucas Tolimán	10	San Lucas Tolimán	10	Octubre	2023-10-26T00:00:00	2024-11-08T07:00:00	8	Radiación solar	43
155505	7	Sololá	713	San Lucas Tolimán	10	San Lucas Tolimán	10	Octubre	2023-10-26T00:00:00	2024-11-08T08:00:00	2	Temperatura media	21.7
155506	7	Sololá	713	San Lucas Tolimán	10	San Lucas Tolimán	10	Octubre	2023-10-26T00:00:00	2024-11-08T08:00:00	4	Temperatura máxima	21.7
155507	7	Sololá	713	San Lucas Tolimán	10	San Lucas Tolimán	10	Octubre	2023-10-26T00:00:00	2024-11-08T08:00:00	3	Temperatura mínima	18.3
155508	7	Sololá	713	San Lucas Tolimán	10	San Lucas Tolimán	10	Octubre	2023-10-26T00:00:00	2024-11-08T08:00:00	5	Humedad	48
155509	7	Sololá	713	San Lucas Tolimán	10	San Lucas Tolimán	10	Octubre	2023-10-26T00:00:00	2024-11-08T08:00:00	6	Velocidad del viento	6.4
155510	7	Sololá	713	San Lucas Tolimán	10	San Lucas Tolimán	10	Octubre	2023-10-26T00:00:00	2024-11-08T08:00:00	7	Dirección del viento	6.44
155511	7	Sololá	713	San Lucas Tolimán	10	San Lucas Tolimán	10	Octubre	2023-10-26T00:00:00	2024-11-08T08:00:00	1	Precipitación	0
155512	7	Sololá	713	San Lucas Tolimán	10	San Lucas Tolimán	10	Octubre	2023-10-26T00:00:00	2024-11-08T08:00:00	8	Radiación solar	223
155513	7	Sololá	713	San Lucas Tolimán	10	San Lucas Tolimán	10	Octubre	2023-10-26T00:00:00	2024-11-08T09:00:00	2	Temperatura media	23.4
155514	7	Sololá	713	San Lucas Tolimán	10	San Lucas Tolimán	10	Octubre	2023-10-26T00:00:00	2024-11-08T09:00:00	4	Temperatura máxima	23.4
155515	7	Sololá	713	San Lucas Tolimán	10	San Lucas Tolimán	10	Octubre	2023-10-26T00:00:00	2024-11-08T09:00:00	3	Temperatura mínima	21.7
155516	7	Sololá	713	San Lucas Tolimán	10	San Lucas Tolimán	10	Octubre	2023-10-26T00:00:00	2024-11-08T09:00:00	5	Humedad	48
155517	7	Sololá	713	San Lucas Tolimán	10	San Lucas Tolimán	10	Octubre	2023-10-26T00:00:00	2024-11-08T09:00:00	6	Velocidad del viento	6.4
155518	7	Sololá	713	San Lucas Tolimán	10	San Lucas Tolimán	10	Octubre	2023-10-26T00:00:00	2024-11-08T09:00:00	7	Dirección del viento	6.44
155519	7	Sololá	713	San Lucas Tolimán	10	San Lucas Tolimán	10	Octubre	2023-10-26T00:00:00	2024-11-08T09:00:00	1	Precipitación	0
155520	7	Sololá	713	San Lucas Tolimán	10	San Lucas Tolimán	10	Octubre	2023-10-26T00:00:00	2024-11-08T09:00:00	8	Radiación solar	401
155521	7	Sololá	713	San Lucas Tolimán	10	San Lucas Tolimán	10	Octubre	2023-10-26T00:00:00	2024-11-08T10:00:00	2	Temperatura media	23.6
155522	7	Sololá	713	San Lucas Tolimán	10	San Lucas Tolimán	10	Octubre	2023-10-26T00:00:00	2024-11-08T10:00:00	4	Temperatura máxima	24.3
155523	7	Sololá	713	San Lucas Tolimán	10	San Lucas Tolimán	10	Octubre	2023-10-26T00:00:00	2024-11-08T10:00:00	3	Temperatura mínima	23.2
155524	7	Sololá	713	San Lucas Tolimán	10	San Lucas Tolimán	10	Octubre	2023-10-26T00:00:00	2024-11-08T10:00:00	5	Humedad	51
155525	7	Sololá	713	San Lucas Tolimán	10	San Lucas Tolimán	10	Octubre	2023-10-26T00:00:00	2024-11-08T10:00:00	6	Velocidad del viento	6.4
155526	7	Sololá	713	San Lucas Tolimán	10	San Lucas Tolimán	10	Octubre	2023-10-26T00:00:00	2024-11-08T10:00:00	7	Dirección del viento	6.44
155527	7	Sololá	713	San Lucas Tolimán	10	San Lucas Tolimán	10	Octubre	2023-10-26T00:00:00	2024-11-08T10:00:00	1	Precipitación	0
155528	7	Sololá	713	San Lucas Tolimán	10	San Lucas Tolimán	10	Octubre	2023-10-26T00:00:00	2024-11-08T10:00:00	8	Radiación solar	705
155529	7	Sololá	713	San Lucas Tolimán	10	San Lucas Tolimán	10	Octubre	2023-10-26T00:00:00	2024-11-08T11:00:00	2	Temperatura media	22.6
155530	7	Sololá	713	San Lucas Tolimán	10	San Lucas Tolimán	10	Octubre	2023-10-26T00:00:00	2024-11-08T11:00:00	4	Temperatura máxima	23.9
155531	7	Sololá	713	San Lucas Tolimán	10	San Lucas Tolimán	10	Octubre	2023-10-26T00:00:00	2024-11-08T11:00:00	3	Temperatura mínima	22.6
155532	7	Sololá	713	San Lucas Tolimán	10	San Lucas Tolimán	10	Octubre	2023-10-26T00:00:00	2024-11-08T11:00:00	5	Humedad	57
155533	7	Sololá	713	San Lucas Tolimán	10	San Lucas Tolimán	10	Octubre	2023-10-26T00:00:00	2024-11-08T11:00:00	6	Velocidad del viento	8
155534	7	Sololá	713	San Lucas Tolimán	10	San Lucas Tolimán	10	Octubre	2023-10-26T00:00:00	2024-11-08T11:00:00	7	Dirección del viento	8.05
155535	7	Sololá	713	San Lucas Tolimán	10	San Lucas Tolimán	10	Octubre	2023-10-26T00:00:00	2024-11-08T11:00:00	1	Precipitación	0
155536	7	Sololá	713	San Lucas Tolimán	10	San Lucas Tolimán	10	Octubre	2023-10-26T00:00:00	2024-11-08T11:00:00	8	Radiación solar	450
155537	7	Sololá	713	San Lucas Tolimán	10	San Lucas Tolimán	10	Octubre	2023-10-26T00:00:00	2024-11-08T12:00:00	2	Temperatura media	21.8
155538	7	Sololá	713	San Lucas Tolimán	10	San Lucas Tolimán	10	Octubre	2023-10-26T00:00:00	2024-11-08T12:00:00	4	Temperatura máxima	22.6
155539	7	Sololá	713	San Lucas Tolimán	10	San Lucas Tolimán	10	Octubre	2023-10-26T00:00:00	2024-11-08T12:00:00	3	Temperatura mínima	21.3
155540	7	Sololá	713	San Lucas Tolimán	10	San Lucas Tolimán	10	Octubre	2023-10-26T00:00:00	2024-11-08T12:00:00	5	Humedad	60
155541	7	Sololá	713	San Lucas Tolimán	10	San Lucas Tolimán	10	Octubre	2023-10-26T00:00:00	2024-11-08T12:00:00	6	Velocidad del viento	9.7
155542	7	Sololá	713	San Lucas Tolimán	10	San Lucas Tolimán	10	Octubre	2023-10-26T00:00:00	2024-11-08T12:00:00	7	Dirección del viento	9.66
155543	7	Sololá	713	San Lucas Tolimán	10	San Lucas Tolimán	10	Octubre	2023-10-26T00:00:00	2024-11-08T12:00:00	1	Precipitación	0
155544	7	Sololá	713	San Lucas Tolimán	10	San Lucas Tolimán	10	Octubre	2023-10-26T00:00:00	2024-11-08T12:00:00	8	Radiación solar	477
155545	7	Sololá	713	San Lucas Tolimán	10	San Lucas Tolimán	10	Octubre	2023-10-26T00:00:00	2024-11-08T13:00:00	2	Temperatura media	22.4
155546	7	Sololá	713	San Lucas Tolimán	10	San Lucas Tolimán	10	Octubre	2023-10-26T00:00:00	2024-11-08T13:00:00	4	Temperatura máxima	23.1
155547	7	Sololá	713	San Lucas Tolimán	10	San Lucas Tolimán	10	Octubre	2023-10-26T00:00:00	2024-11-08T13:00:00	3	Temperatura mínima	21.8
155548	7	Sololá	713	San Lucas Tolimán	10	San Lucas Tolimán	10	Octubre	2023-10-26T00:00:00	2024-11-08T13:00:00	5	Humedad	58
155549	7	Sololá	713	San Lucas Tolimán	10	San Lucas Tolimán	10	Octubre	2023-10-26T00:00:00	2024-11-08T13:00:00	6	Velocidad del viento	9.7
155550	7	Sololá	713	San Lucas Tolimán	10	San Lucas Tolimán	10	Octubre	2023-10-26T00:00:00	2024-11-08T13:00:00	7	Dirección del viento	9.66
155551	7	Sololá	713	San Lucas Tolimán	10	San Lucas Tolimán	10	Octubre	2023-10-26T00:00:00	2024-11-08T13:00:00	1	Precipitación	0
155552	7	Sololá	713	San Lucas Tolimán	10	San Lucas Tolimán	10	Octubre	2023-10-26T00:00:00	2024-11-08T13:00:00	8	Radiación solar	770
155553	7	Sololá	713	San Lucas Tolimán	10	San Lucas Tolimán	10	Octubre	2023-10-26T00:00:00	2024-11-08T14:00:00	2	Temperatura media	22.1
155554	7	Sololá	713	San Lucas Tolimán	10	San Lucas Tolimán	10	Octubre	2023-10-26T00:00:00	2024-11-08T14:00:00	4	Temperatura máxima	23
155555	7	Sololá	713	San Lucas Tolimán	10	San Lucas Tolimán	10	Octubre	2023-10-26T00:00:00	2024-11-08T14:00:00	3	Temperatura mínima	21.8
155556	7	Sololá	713	San Lucas Tolimán	10	San Lucas Tolimán	10	Octubre	2023-10-26T00:00:00	2024-11-08T14:00:00	5	Humedad	59
155557	7	Sololá	713	San Lucas Tolimán	10	San Lucas Tolimán	10	Octubre	2023-10-26T00:00:00	2024-11-08T14:00:00	6	Velocidad del viento	9.7
155558	7	Sololá	713	San Lucas Tolimán	10	San Lucas Tolimán	10	Octubre	2023-10-26T00:00:00	2024-11-08T14:00:00	7	Dirección del viento	9.66
155559	7	Sololá	713	San Lucas Tolimán	10	San Lucas Tolimán	10	Octubre	2023-10-26T00:00:00	2024-11-08T14:00:00	1	Precipitación	0
155560	7	Sololá	713	San Lucas Tolimán	10	San Lucas Tolimán	10	Octubre	2023-10-26T00:00:00	2024-11-08T14:00:00	8	Radiación solar	596
155561	7	Sololá	713	San Lucas Tolimán	10	San Lucas Tolimán	10	Octubre	2023-10-26T00:00:00	2024-11-08T15:00:00	2	Temperatura media	21.9
155562	7	Sololá	713	San Lucas Tolimán	10	San Lucas Tolimán	10	Octubre	2023-10-26T00:00:00	2024-11-08T15:00:00	4	Temperatura máxima	22.5
155563	7	Sololá	713	San Lucas Tolimán	10	San Lucas Tolimán	10	Octubre	2023-10-26T00:00:00	2024-11-08T15:00:00	3	Temperatura mínima	21.4
155564	7	Sololá	713	San Lucas Tolimán	10	San Lucas Tolimán	10	Octubre	2023-10-26T00:00:00	2024-11-08T15:00:00	5	Humedad	60
155565	7	Sololá	713	San Lucas Tolimán	10	San Lucas Tolimán	10	Octubre	2023-10-26T00:00:00	2024-11-08T15:00:00	6	Velocidad del viento	11.3
155566	7	Sololá	713	San Lucas Tolimán	10	San Lucas Tolimán	10	Octubre	2023-10-26T00:00:00	2024-11-08T15:00:00	7	Dirección del viento	11.27
155567	7	Sololá	713	San Lucas Tolimán	10	San Lucas Tolimán	10	Octubre	2023-10-26T00:00:00	2024-11-08T15:00:00	1	Precipitación	0
155568	7	Sololá	713	San Lucas Tolimán	10	San Lucas Tolimán	10	Octubre	2023-10-26T00:00:00	2024-11-08T15:00:00	8	Radiación solar	639
155569	7	Sololá	713	San Lucas Tolimán	10	San Lucas Tolimán	10	Octubre	2023-10-26T00:00:00	2024-11-08T16:00:00	2	Temperatura media	21.2
155570	7	Sololá	713	San Lucas Tolimán	10	San Lucas Tolimán	10	Octubre	2023-10-26T00:00:00	2024-11-08T16:00:00	4	Temperatura máxima	22.2
155571	7	Sololá	713	San Lucas Tolimán	10	San Lucas Tolimán	10	Octubre	2023-10-26T00:00:00	2024-11-08T16:00:00	3	Temperatura mínima	20.7
155572	7	Sololá	713	San Lucas Tolimán	10	San Lucas Tolimán	10	Octubre	2023-10-26T00:00:00	2024-11-08T16:00:00	5	Humedad	61
155573	7	Sololá	713	San Lucas Tolimán	10	San Lucas Tolimán	10	Octubre	2023-10-26T00:00:00	2024-11-08T16:00:00	6	Velocidad del viento	9.7
155574	7	Sololá	713	San Lucas Tolimán	10	San Lucas Tolimán	10	Octubre	2023-10-26T00:00:00	2024-11-08T16:00:00	7	Dirección del viento	9.66
155575	7	Sololá	713	San Lucas Tolimán	10	San Lucas Tolimán	10	Octubre	2023-10-26T00:00:00	2024-11-08T16:00:00	1	Precipitación	0
155576	7	Sololá	713	San Lucas Tolimán	10	San Lucas Tolimán	10	Octubre	2023-10-26T00:00:00	2024-11-08T16:00:00	8	Radiación solar	241
155577	7	Sololá	713	San Lucas Tolimán	10	San Lucas Tolimán	10	Octubre	2023-10-26T00:00:00	2024-11-08T17:00:00	2	Temperatura media	19.6
155578	7	Sololá	713	San Lucas Tolimán	10	San Lucas Tolimán	10	Octubre	2023-10-26T00:00:00	2024-11-08T17:00:00	4	Temperatura máxima	21.2
155579	7	Sololá	713	San Lucas Tolimán	10	San Lucas Tolimán	10	Octubre	2023-10-26T00:00:00	2024-11-08T17:00:00	3	Temperatura mínima	19.5
155580	7	Sololá	713	San Lucas Tolimán	10	San Lucas Tolimán	10	Octubre	2023-10-26T00:00:00	2024-11-08T17:00:00	5	Humedad	63
155581	7	Sololá	713	San Lucas Tolimán	10	San Lucas Tolimán	10	Octubre	2023-10-26T00:00:00	2024-11-08T17:00:00	6	Velocidad del viento	9.7
155582	7	Sololá	713	San Lucas Tolimán	10	San Lucas Tolimán	10	Octubre	2023-10-26T00:00:00	2024-11-08T17:00:00	7	Dirección del viento	9.66
155583	7	Sololá	713	San Lucas Tolimán	10	San Lucas Tolimán	10	Octubre	2023-10-26T00:00:00	2024-11-08T17:00:00	1	Precipitación	0
155584	7	Sololá	713	San Lucas Tolimán	10	San Lucas Tolimán	10	Octubre	2023-10-26T00:00:00	2024-11-08T17:00:00	8	Radiación solar	33
155585	7	Sololá	713	San Lucas Tolimán	10	San Lucas Tolimán	10	Octubre	2023-10-26T00:00:00	2024-11-08T18:00:00	2	Temperatura media	18.8
155586	7	Sololá	713	San Lucas Tolimán	10	San Lucas Tolimán	10	Octubre	2023-10-26T00:00:00	2024-11-08T18:00:00	4	Temperatura máxima	19.8
155587	7	Sololá	713	San Lucas Tolimán	10	San Lucas Tolimán	10	Octubre	2023-10-26T00:00:00	2024-11-08T18:00:00	3	Temperatura mínima	18.8
155588	7	Sololá	713	San Lucas Tolimán	10	San Lucas Tolimán	10	Octubre	2023-10-26T00:00:00	2024-11-08T18:00:00	5	Humedad	63
155589	7	Sololá	713	San Lucas Tolimán	10	San Lucas Tolimán	10	Octubre	2023-10-26T00:00:00	2024-11-08T18:00:00	6	Velocidad del viento	3.2
155590	7	Sololá	713	San Lucas Tolimán	10	San Lucas Tolimán	10	Octubre	2023-10-26T00:00:00	2024-11-08T18:00:00	7	Dirección del viento	3.22
155591	7	Sololá	713	San Lucas Tolimán	10	San Lucas Tolimán	10	Octubre	2023-10-26T00:00:00	2024-11-08T18:00:00	1	Precipitación	0
155592	7	Sololá	713	San Lucas Tolimán	10	San Lucas Tolimán	10	Octubre	2023-10-26T00:00:00	2024-11-08T18:00:00	8	Radiación solar	6
155593	7	Sololá	713	San Lucas Tolimán	10	San Lucas Tolimán	10	Octubre	2023-10-26T00:00:00	2024-11-08T19:00:00	2	Temperatura media	18.5
155594	7	Sololá	713	San Lucas Tolimán	10	San Lucas Tolimán	10	Octubre	2023-10-26T00:00:00	2024-11-08T19:00:00	4	Temperatura máxima	18.8
155595	7	Sololá	713	San Lucas Tolimán	10	San Lucas Tolimán	10	Octubre	2023-10-26T00:00:00	2024-11-08T19:00:00	3	Temperatura mínima	18.4
155596	7	Sololá	713	San Lucas Tolimán	10	San Lucas Tolimán	10	Octubre	2023-10-26T00:00:00	2024-11-08T19:00:00	5	Humedad	63
155597	7	Sololá	713	San Lucas Tolimán	10	San Lucas Tolimán	10	Octubre	2023-10-26T00:00:00	2024-11-08T19:00:00	6	Velocidad del viento	1.6
155598	7	Sololá	713	San Lucas Tolimán	10	San Lucas Tolimán	10	Octubre	2023-10-26T00:00:00	2024-11-08T19:00:00	7	Dirección del viento	1.61
155599	7	Sololá	713	San Lucas Tolimán	10	San Lucas Tolimán	10	Octubre	2023-10-26T00:00:00	2024-11-08T19:00:00	1	Precipitación	0
155600	7	Sololá	713	San Lucas Tolimán	10	San Lucas Tolimán	10	Octubre	2023-10-26T00:00:00	2024-11-08T19:00:00	8	Radiación solar	0
155601	7	Sololá	713	San Lucas Tolimán	10	San Lucas Tolimán	10	Octubre	2023-10-26T00:00:00	2024-11-08T20:00:00	2	Temperatura media	19.6
155602	7	Sololá	713	San Lucas Tolimán	10	San Lucas Tolimán	10	Octubre	2023-10-26T00:00:00	2024-11-08T20:00:00	4	Temperatura máxima	19.6
155603	7	Sololá	713	San Lucas Tolimán	10	San Lucas Tolimán	10	Octubre	2023-10-26T00:00:00	2024-11-08T20:00:00	3	Temperatura mínima	18.2
155604	7	Sololá	713	San Lucas Tolimán	10	San Lucas Tolimán	10	Octubre	2023-10-26T00:00:00	2024-11-08T20:00:00	5	Humedad	57
155605	7	Sololá	713	San Lucas Tolimán	10	San Lucas Tolimán	10	Octubre	2023-10-26T00:00:00	2024-11-08T20:00:00	6	Velocidad del viento	1.6
155606	7	Sololá	713	San Lucas Tolimán	10	San Lucas Tolimán	10	Octubre	2023-10-26T00:00:00	2024-11-08T20:00:00	7	Dirección del viento	1.61
155607	7	Sololá	713	San Lucas Tolimán	10	San Lucas Tolimán	10	Octubre	2023-10-26T00:00:00	2024-11-08T20:00:00	1	Precipitación	0
155608	7	Sololá	713	San Lucas Tolimán	10	San Lucas Tolimán	10	Octubre	2023-10-26T00:00:00	2024-11-08T20:00:00	8	Radiación solar	0
155609	7	Sololá	713	San Lucas Tolimán	10	San Lucas Tolimán	10	Octubre	2023-10-26T00:00:00	2024-11-08T21:00:00	2	Temperatura media	18.4
155610	7	Sololá	713	San Lucas Tolimán	10	San Lucas Tolimán	10	Octubre	2023-10-26T00:00:00	2024-11-08T21:00:00	4	Temperatura máxima	19.7
155611	7	Sololá	713	San Lucas Tolimán	10	San Lucas Tolimán	10	Octubre	2023-10-26T00:00:00	2024-11-08T21:00:00	3	Temperatura mínima	18.1
155612	7	Sololá	713	San Lucas Tolimán	10	San Lucas Tolimán	10	Octubre	2023-10-26T00:00:00	2024-11-08T21:00:00	5	Humedad	61
155613	7	Sololá	713	San Lucas Tolimán	10	San Lucas Tolimán	10	Octubre	2023-10-26T00:00:00	2024-11-08T21:00:00	6	Velocidad del viento	3.2
155614	7	Sololá	713	San Lucas Tolimán	10	San Lucas Tolimán	10	Octubre	2023-10-26T00:00:00	2024-11-08T21:00:00	7	Dirección del viento	3.22
155615	7	Sololá	713	San Lucas Tolimán	10	San Lucas Tolimán	10	Octubre	2023-10-26T00:00:00	2024-11-08T21:00:00	1	Precipitación	0
155616	7	Sololá	713	San Lucas Tolimán	10	San Lucas Tolimán	10	Octubre	2023-10-26T00:00:00	2024-11-08T21:00:00	8	Radiación solar	0
155617	7	Sololá	713	San Lucas Tolimán	10	San Lucas Tolimán	10	Octubre	2023-10-26T00:00:00	2024-11-08T22:00:00	2	Temperatura media	18
155618	7	Sololá	713	San Lucas Tolimán	10	San Lucas Tolimán	10	Octubre	2023-10-26T00:00:00	2024-11-08T22:00:00	4	Temperatura máxima	18.5
155619	7	Sololá	713	San Lucas Tolimán	10	San Lucas Tolimán	10	Octubre	2023-10-26T00:00:00	2024-11-08T22:00:00	3	Temperatura mínima	17.9
155620	7	Sololá	713	San Lucas Tolimán	10	San Lucas Tolimán	10	Octubre	2023-10-26T00:00:00	2024-11-08T22:00:00	5	Humedad	62
155621	7	Sololá	713	San Lucas Tolimán	10	San Lucas Tolimán	10	Octubre	2023-10-26T00:00:00	2024-11-08T22:00:00	6	Velocidad del viento	3.2
155622	7	Sololá	713	San Lucas Tolimán	10	San Lucas Tolimán	10	Octubre	2023-10-26T00:00:00	2024-11-08T22:00:00	7	Dirección del viento	3.22
155623	7	Sololá	713	San Lucas Tolimán	10	San Lucas Tolimán	10	Octubre	2023-10-26T00:00:00	2024-11-08T22:00:00	1	Precipitación	0
155624	7	Sololá	713	San Lucas Tolimán	10	San Lucas Tolimán	10	Octubre	2023-10-26T00:00:00	2024-11-08T22:00:00	8	Radiación solar	0
155625	7	Sololá	713	San Lucas Tolimán	10	San Lucas Tolimán	10	Octubre	2023-10-26T00:00:00	2024-11-08T23:00:00	2	Temperatura media	17.8
155626	7	Sololá	713	San Lucas Tolimán	10	San Lucas Tolimán	10	Octubre	2023-10-26T00:00:00	2024-11-08T23:00:00	4	Temperatura máxima	18
155627	7	Sololá	713	San Lucas Tolimán	10	San Lucas Tolimán	10	Octubre	2023-10-26T00:00:00	2024-11-08T23:00:00	3	Temperatura mínima	17.5
155628	7	Sololá	713	San Lucas Tolimán	10	San Lucas Tolimán	10	Octubre	2023-10-26T00:00:00	2024-11-08T23:00:00	5	Humedad	62
155629	7	Sololá	713	San Lucas Tolimán	10	San Lucas Tolimán	10	Octubre	2023-10-26T00:00:00	2024-11-08T23:00:00	6	Velocidad del viento	3.2
155630	7	Sololá	713	San Lucas Tolimán	10	San Lucas Tolimán	10	Octubre	2023-10-26T00:00:00	2024-11-08T23:00:00	7	Dirección del viento	3.22
155631	7	Sololá	713	San Lucas Tolimán	10	San Lucas Tolimán	10	Octubre	2023-10-26T00:00:00	2024-11-08T23:00:00	1	Precipitación	0
155632	7	Sololá	713	San Lucas Tolimán	10	San Lucas Tolimán	10	Octubre	2023-10-26T00:00:00	2024-11-08T23:00:00	8	Radiación solar	0
155633	7	Sololá	713	San Lucas Tolimán	10	San Lucas Tolimán	10	Octubre	2023-10-27T00:00:00	2024-11-08T00:00:00	2	Temperatura media	17.9
155634	7	Sololá	713	San Lucas Tolimán	10	San Lucas Tolimán	10	Octubre	2023-10-27T00:00:00	2024-11-08T00:00:00	4	Temperatura máxima	18.1
155635	7	Sololá	713	San Lucas Tolimán	10	San Lucas Tolimán	10	Octubre	2023-10-27T00:00:00	2024-11-08T00:00:00	3	Temperatura mínima	17.8
155636	7	Sololá	713	San Lucas Tolimán	10	San Lucas Tolimán	10	Octubre	2023-10-27T00:00:00	2024-11-08T00:00:00	5	Humedad	61
155637	7	Sololá	713	San Lucas Tolimán	10	San Lucas Tolimán	10	Octubre	2023-10-27T00:00:00	2024-11-08T00:00:00	6	Velocidad del viento	1.6
155638	7	Sololá	713	San Lucas Tolimán	10	San Lucas Tolimán	10	Octubre	2023-10-27T00:00:00	2024-11-08T00:00:00	7	Dirección del viento	1.61
155639	7	Sololá	713	San Lucas Tolimán	10	San Lucas Tolimán	10	Octubre	2023-10-27T00:00:00	2024-11-08T00:00:00	1	Precipitación	0
155640	7	Sololá	713	San Lucas Tolimán	10	San Lucas Tolimán	10	Octubre	2023-10-27T00:00:00	2024-11-08T00:00:00	8	Radiación solar	0
155641	7	Sololá	713	San Lucas Tolimán	10	San Lucas Tolimán	10	Octubre	2023-10-27T00:00:00	2024-11-08T01:00:00	2	Temperatura media	19.3
155642	7	Sololá	713	San Lucas Tolimán	10	San Lucas Tolimán	10	Octubre	2023-10-27T00:00:00	2024-11-08T01:00:00	4	Temperatura máxima	19.3
155643	7	Sololá	713	San Lucas Tolimán	10	San Lucas Tolimán	10	Octubre	2023-10-27T00:00:00	2024-11-08T01:00:00	3	Temperatura mínima	17.8
155644	7	Sololá	713	San Lucas Tolimán	10	San Lucas Tolimán	10	Octubre	2023-10-27T00:00:00	2024-11-08T01:00:00	5	Humedad	56
155645	7	Sololá	713	San Lucas Tolimán	10	San Lucas Tolimán	10	Octubre	2023-10-27T00:00:00	2024-11-08T01:00:00	6	Velocidad del viento	1.6
155646	7	Sololá	713	San Lucas Tolimán	10	San Lucas Tolimán	10	Octubre	2023-10-27T00:00:00	2024-11-08T01:00:00	7	Dirección del viento	1.61
155647	7	Sololá	713	San Lucas Tolimán	10	San Lucas Tolimán	10	Octubre	2023-10-27T00:00:00	2024-11-08T01:00:00	1	Precipitación	0
155648	7	Sololá	713	San Lucas Tolimán	10	San Lucas Tolimán	10	Octubre	2023-10-27T00:00:00	2024-11-08T01:00:00	8	Radiación solar	0
155649	7	Sololá	713	San Lucas Tolimán	10	San Lucas Tolimán	10	Octubre	2023-10-27T00:00:00	2024-11-08T02:00:00	2	Temperatura media	18.6
155650	7	Sololá	713	San Lucas Tolimán	10	San Lucas Tolimán	10	Octubre	2023-10-27T00:00:00	2024-11-08T02:00:00	4	Temperatura máxima	20.1
155651	7	Sololá	713	San Lucas Tolimán	10	San Lucas Tolimán	10	Octubre	2023-10-27T00:00:00	2024-11-08T02:00:00	3	Temperatura mínima	18.6
155652	7	Sololá	713	San Lucas Tolimán	10	San Lucas Tolimán	10	Octubre	2023-10-27T00:00:00	2024-11-08T02:00:00	5	Humedad	58
155653	7	Sololá	713	San Lucas Tolimán	10	San Lucas Tolimán	10	Octubre	2023-10-27T00:00:00	2024-11-08T02:00:00	6	Velocidad del viento	3.2
155654	7	Sololá	713	San Lucas Tolimán	10	San Lucas Tolimán	10	Octubre	2023-10-27T00:00:00	2024-11-08T02:00:00	7	Dirección del viento	3.22
155655	7	Sololá	713	San Lucas Tolimán	10	San Lucas Tolimán	10	Octubre	2023-10-27T00:00:00	2024-11-08T02:00:00	1	Precipitación	0
155656	7	Sololá	713	San Lucas Tolimán	10	San Lucas Tolimán	10	Octubre	2023-10-27T00:00:00	2024-11-08T02:00:00	8	Radiación solar	0
155657	7	Sololá	713	San Lucas Tolimán	10	San Lucas Tolimán	10	Octubre	2023-10-27T00:00:00	2024-11-08T03:00:00	2	Temperatura media	17.3
155658	7	Sololá	713	San Lucas Tolimán	10	San Lucas Tolimán	10	Octubre	2023-10-27T00:00:00	2024-11-08T03:00:00	4	Temperatura máxima	18.6
155659	7	Sololá	713	San Lucas Tolimán	10	San Lucas Tolimán	10	Octubre	2023-10-27T00:00:00	2024-11-08T03:00:00	3	Temperatura mínima	17.3
155660	7	Sololá	713	San Lucas Tolimán	10	San Lucas Tolimán	10	Octubre	2023-10-27T00:00:00	2024-11-08T03:00:00	5	Humedad	63
155661	7	Sololá	713	San Lucas Tolimán	10	San Lucas Tolimán	10	Octubre	2023-10-27T00:00:00	2024-11-08T03:00:00	6	Velocidad del viento	1.6
155662	7	Sololá	713	San Lucas Tolimán	10	San Lucas Tolimán	10	Octubre	2023-10-27T00:00:00	2024-11-08T03:00:00	7	Dirección del viento	1.61
155663	7	Sololá	713	San Lucas Tolimán	10	San Lucas Tolimán	10	Octubre	2023-10-27T00:00:00	2024-11-08T03:00:00	1	Precipitación	0
155664	7	Sololá	713	San Lucas Tolimán	10	San Lucas Tolimán	10	Octubre	2023-10-27T00:00:00	2024-11-08T03:00:00	8	Radiación solar	0
155665	7	Sololá	713	San Lucas Tolimán	10	San Lucas Tolimán	10	Octubre	2023-10-27T00:00:00	2024-11-08T04:00:00	2	Temperatura media	17.6
155666	7	Sololá	713	San Lucas Tolimán	10	San Lucas Tolimán	10	Octubre	2023-10-27T00:00:00	2024-11-08T04:00:00	4	Temperatura máxima	17.6
155667	7	Sololá	713	San Lucas Tolimán	10	San Lucas Tolimán	10	Octubre	2023-10-27T00:00:00	2024-11-08T04:00:00	3	Temperatura mínima	17.3
155668	7	Sololá	713	San Lucas Tolimán	10	San Lucas Tolimán	10	Octubre	2023-10-27T00:00:00	2024-11-08T04:00:00	5	Humedad	61
155669	7	Sololá	713	San Lucas Tolimán	10	San Lucas Tolimán	10	Octubre	2023-10-27T00:00:00	2024-11-08T04:00:00	6	Velocidad del viento	0
155670	7	Sololá	713	San Lucas Tolimán	10	San Lucas Tolimán	10	Octubre	2023-10-27T00:00:00	2024-11-08T04:00:00	7	Dirección del viento	0
155671	7	Sololá	713	San Lucas Tolimán	10	San Lucas Tolimán	10	Octubre	2023-10-27T00:00:00	2024-11-08T04:00:00	1	Precipitación	0
155672	7	Sololá	713	San Lucas Tolimán	10	San Lucas Tolimán	10	Octubre	2023-10-27T00:00:00	2024-11-08T04:00:00	8	Radiación solar	0
155673	7	Sololá	713	San Lucas Tolimán	10	San Lucas Tolimán	10	Octubre	2023-10-27T00:00:00	2024-11-08T05:00:00	2	Temperatura media	17.1
155674	7	Sololá	713	San Lucas Tolimán	10	San Lucas Tolimán	10	Octubre	2023-10-27T00:00:00	2024-11-08T05:00:00	4	Temperatura máxima	17.6
155675	7	Sololá	713	San Lucas Tolimán	10	San Lucas Tolimán	10	Octubre	2023-10-27T00:00:00	2024-11-08T05:00:00	3	Temperatura mínima	16.9
155676	7	Sololá	713	San Lucas Tolimán	10	San Lucas Tolimán	10	Octubre	2023-10-27T00:00:00	2024-11-08T05:00:00	5	Humedad	63
155677	7	Sololá	713	San Lucas Tolimán	10	San Lucas Tolimán	10	Octubre	2023-10-27T00:00:00	2024-11-08T05:00:00	6	Velocidad del viento	1.6
155678	7	Sololá	713	San Lucas Tolimán	10	San Lucas Tolimán	10	Octubre	2023-10-27T00:00:00	2024-11-08T05:00:00	7	Dirección del viento	1.61
155679	7	Sololá	713	San Lucas Tolimán	10	San Lucas Tolimán	10	Octubre	2023-10-27T00:00:00	2024-11-08T05:00:00	1	Precipitación	0
155680	7	Sololá	713	San Lucas Tolimán	10	San Lucas Tolimán	10	Octubre	2023-10-27T00:00:00	2024-11-08T05:00:00	8	Radiación solar	0
155681	7	Sololá	713	San Lucas Tolimán	10	San Lucas Tolimán	10	Octubre	2023-10-27T00:00:00	2024-11-08T06:00:00	2	Temperatura media	16.6
155682	7	Sololá	713	San Lucas Tolimán	10	San Lucas Tolimán	10	Octubre	2023-10-27T00:00:00	2024-11-08T06:00:00	4	Temperatura máxima	17.2
155683	7	Sololá	713	San Lucas Tolimán	10	San Lucas Tolimán	10	Octubre	2023-10-27T00:00:00	2024-11-08T06:00:00	3	Temperatura mínima	16.6
155684	7	Sololá	713	San Lucas Tolimán	10	San Lucas Tolimán	10	Octubre	2023-10-27T00:00:00	2024-11-08T06:00:00	5	Humedad	64
155685	7	Sololá	713	San Lucas Tolimán	10	San Lucas Tolimán	10	Octubre	2023-10-27T00:00:00	2024-11-08T06:00:00	6	Velocidad del viento	1.6
155686	7	Sololá	713	San Lucas Tolimán	10	San Lucas Tolimán	10	Octubre	2023-10-27T00:00:00	2024-11-08T06:00:00	7	Dirección del viento	1.61
155687	7	Sololá	713	San Lucas Tolimán	10	San Lucas Tolimán	10	Octubre	2023-10-27T00:00:00	2024-11-08T06:00:00	1	Precipitación	0
155688	7	Sololá	713	San Lucas Tolimán	10	San Lucas Tolimán	10	Octubre	2023-10-27T00:00:00	2024-11-08T06:00:00	8	Radiación solar	0
155689	7	Sololá	713	San Lucas Tolimán	10	San Lucas Tolimán	10	Octubre	2023-10-27T00:00:00	2024-11-08T07:00:00	2	Temperatura media	17.7
155690	7	Sololá	713	San Lucas Tolimán	10	San Lucas Tolimán	10	Octubre	2023-10-27T00:00:00	2024-11-08T07:00:00	4	Temperatura máxima	17.8
155691	7	Sololá	713	San Lucas Tolimán	10	San Lucas Tolimán	10	Octubre	2023-10-27T00:00:00	2024-11-08T07:00:00	3	Temperatura mínima	16.5
155692	7	Sololá	713	San Lucas Tolimán	10	San Lucas Tolimán	10	Octubre	2023-10-27T00:00:00	2024-11-08T07:00:00	5	Humedad	62
155693	7	Sololá	713	San Lucas Tolimán	10	San Lucas Tolimán	10	Octubre	2023-10-27T00:00:00	2024-11-08T07:00:00	6	Velocidad del viento	1.6
155694	7	Sololá	713	San Lucas Tolimán	10	San Lucas Tolimán	10	Octubre	2023-10-27T00:00:00	2024-11-08T07:00:00	7	Dirección del viento	1.61
155695	7	Sololá	713	San Lucas Tolimán	10	San Lucas Tolimán	10	Octubre	2023-10-27T00:00:00	2024-11-08T07:00:00	1	Precipitación	0
155696	7	Sololá	713	San Lucas Tolimán	10	San Lucas Tolimán	10	Octubre	2023-10-27T00:00:00	2024-11-08T07:00:00	8	Radiación solar	58
155697	7	Sololá	713	San Lucas Tolimán	10	San Lucas Tolimán	10	Octubre	2023-10-27T00:00:00	2024-11-08T08:00:00	2	Temperatura media	22.2
155698	7	Sololá	713	San Lucas Tolimán	10	San Lucas Tolimán	10	Octubre	2023-10-27T00:00:00	2024-11-08T08:00:00	4	Temperatura máxima	22.2
155699	7	Sololá	713	San Lucas Tolimán	10	San Lucas Tolimán	10	Octubre	2023-10-27T00:00:00	2024-11-08T08:00:00	3	Temperatura mínima	17.7
155700	7	Sololá	713	San Lucas Tolimán	10	San Lucas Tolimán	10	Octubre	2023-10-27T00:00:00	2024-11-08T08:00:00	5	Humedad	48
155701	7	Sololá	713	San Lucas Tolimán	10	San Lucas Tolimán	10	Octubre	2023-10-27T00:00:00	2024-11-08T08:00:00	6	Velocidad del viento	3.2
155702	7	Sololá	713	San Lucas Tolimán	10	San Lucas Tolimán	10	Octubre	2023-10-27T00:00:00	2024-11-08T08:00:00	7	Dirección del viento	3.22
155703	7	Sololá	713	San Lucas Tolimán	10	San Lucas Tolimán	10	Octubre	2023-10-27T00:00:00	2024-11-08T08:00:00	1	Precipitación	0
155704	7	Sololá	713	San Lucas Tolimán	10	San Lucas Tolimán	10	Octubre	2023-10-27T00:00:00	2024-11-08T08:00:00	8	Radiación solar	189
155705	7	Sololá	713	San Lucas Tolimán	10	San Lucas Tolimán	10	Octubre	2023-10-27T00:00:00	2024-11-08T09:00:00	2	Temperatura media	22.7
155706	7	Sololá	713	San Lucas Tolimán	10	San Lucas Tolimán	10	Octubre	2023-10-27T00:00:00	2024-11-08T09:00:00	4	Temperatura máxima	23.3
155707	7	Sololá	713	San Lucas Tolimán	10	San Lucas Tolimán	10	Octubre	2023-10-27T00:00:00	2024-11-08T09:00:00	3	Temperatura mínima	22.2
155708	7	Sololá	713	San Lucas Tolimán	10	San Lucas Tolimán	10	Octubre	2023-10-27T00:00:00	2024-11-08T09:00:00	5	Humedad	52
155709	7	Sololá	713	San Lucas Tolimán	10	San Lucas Tolimán	10	Octubre	2023-10-27T00:00:00	2024-11-08T09:00:00	6	Velocidad del viento	4.8
155710	7	Sololá	713	San Lucas Tolimán	10	San Lucas Tolimán	10	Octubre	2023-10-27T00:00:00	2024-11-08T09:00:00	7	Dirección del viento	4.83
155711	7	Sololá	713	San Lucas Tolimán	10	San Lucas Tolimán	10	Octubre	2023-10-27T00:00:00	2024-11-08T09:00:00	1	Precipitación	0
155712	7	Sololá	713	San Lucas Tolimán	10	San Lucas Tolimán	10	Octubre	2023-10-27T00:00:00	2024-11-08T09:00:00	8	Radiación solar	368
155713	7	Sololá	713	San Lucas Tolimán	10	San Lucas Tolimán	10	Octubre	2023-10-27T00:00:00	2024-11-08T10:00:00	2	Temperatura media	23.2
155714	7	Sololá	713	San Lucas Tolimán	10	San Lucas Tolimán	10	Octubre	2023-10-27T00:00:00	2024-11-08T10:00:00	4	Temperatura máxima	23.2
155715	7	Sololá	713	San Lucas Tolimán	10	San Lucas Tolimán	10	Octubre	2023-10-27T00:00:00	2024-11-08T10:00:00	3	Temperatura mínima	21.9
155716	7	Sololá	713	San Lucas Tolimán	10	San Lucas Tolimán	10	Octubre	2023-10-27T00:00:00	2024-11-08T10:00:00	5	Humedad	47
155717	7	Sololá	713	San Lucas Tolimán	10	San Lucas Tolimán	10	Octubre	2023-10-27T00:00:00	2024-11-08T10:00:00	6	Velocidad del viento	6.4
155718	7	Sololá	713	San Lucas Tolimán	10	San Lucas Tolimán	10	Octubre	2023-10-27T00:00:00	2024-11-08T10:00:00	7	Dirección del viento	6.44
155719	7	Sololá	713	San Lucas Tolimán	10	San Lucas Tolimán	10	Octubre	2023-10-27T00:00:00	2024-11-08T10:00:00	1	Precipitación	0
155720	7	Sololá	713	San Lucas Tolimán	10	San Lucas Tolimán	10	Octubre	2023-10-27T00:00:00	2024-11-08T10:00:00	8	Radiación solar	354
155721	7	Sololá	713	San Lucas Tolimán	10	San Lucas Tolimán	10	Octubre	2023-10-27T00:00:00	2024-11-08T11:00:00	2	Temperatura media	21.3
155722	7	Sololá	713	San Lucas Tolimán	10	San Lucas Tolimán	10	Octubre	2023-10-27T00:00:00	2024-11-08T11:00:00	4	Temperatura máxima	24
155723	7	Sololá	713	San Lucas Tolimán	10	San Lucas Tolimán	10	Octubre	2023-10-27T00:00:00	2024-11-08T11:00:00	3	Temperatura mínima	20.1
155724	7	Sololá	713	San Lucas Tolimán	10	San Lucas Tolimán	10	Octubre	2023-10-27T00:00:00	2024-11-08T11:00:00	5	Humedad	59
155725	7	Sololá	713	San Lucas Tolimán	10	San Lucas Tolimán	10	Octubre	2023-10-27T00:00:00	2024-11-08T11:00:00	6	Velocidad del viento	8
155726	7	Sololá	713	San Lucas Tolimán	10	San Lucas Tolimán	10	Octubre	2023-10-27T00:00:00	2024-11-08T11:00:00	7	Dirección del viento	8.05
155727	7	Sololá	713	San Lucas Tolimán	10	San Lucas Tolimán	10	Octubre	2023-10-27T00:00:00	2024-11-08T11:00:00	1	Precipitación	0
155728	7	Sololá	713	San Lucas Tolimán	10	San Lucas Tolimán	10	Octubre	2023-10-27T00:00:00	2024-11-08T11:00:00	8	Radiación solar	458
155729	7	Sololá	713	San Lucas Tolimán	10	San Lucas Tolimán	10	Octubre	2023-10-27T00:00:00	2024-11-08T12:00:00	2	Temperatura media	21.8
155730	7	Sololá	713	San Lucas Tolimán	10	San Lucas Tolimán	10	Octubre	2023-10-27T00:00:00	2024-11-08T12:00:00	4	Temperatura máxima	22.7
155731	7	Sololá	713	San Lucas Tolimán	10	San Lucas Tolimán	10	Octubre	2023-10-27T00:00:00	2024-11-08T12:00:00	3	Temperatura mínima	21.3
155732	7	Sololá	713	San Lucas Tolimán	10	San Lucas Tolimán	10	Octubre	2023-10-27T00:00:00	2024-11-08T12:00:00	5	Humedad	59
155733	7	Sololá	713	San Lucas Tolimán	10	San Lucas Tolimán	10	Octubre	2023-10-27T00:00:00	2024-11-08T12:00:00	6	Velocidad del viento	8
155734	7	Sololá	713	San Lucas Tolimán	10	San Lucas Tolimán	10	Octubre	2023-10-27T00:00:00	2024-11-08T12:00:00	7	Dirección del viento	8.05
155735	7	Sololá	713	San Lucas Tolimán	10	San Lucas Tolimán	10	Octubre	2023-10-27T00:00:00	2024-11-08T12:00:00	1	Precipitación	0
155736	7	Sololá	713	San Lucas Tolimán	10	San Lucas Tolimán	10	Octubre	2023-10-27T00:00:00	2024-11-08T12:00:00	8	Radiación solar	491
155737	7	Sololá	713	San Lucas Tolimán	10	San Lucas Tolimán	10	Octubre	2023-10-27T00:00:00	2024-11-08T13:00:00	2	Temperatura media	22.9
155738	7	Sololá	713	San Lucas Tolimán	10	San Lucas Tolimán	10	Octubre	2023-10-27T00:00:00	2024-11-08T13:00:00	4	Temperatura máxima	23.4
155739	7	Sololá	713	San Lucas Tolimán	10	San Lucas Tolimán	10	Octubre	2023-10-27T00:00:00	2024-11-08T13:00:00	3	Temperatura mínima	21.8
155740	7	Sololá	713	San Lucas Tolimán	10	San Lucas Tolimán	10	Octubre	2023-10-27T00:00:00	2024-11-08T13:00:00	5	Humedad	55
155741	7	Sololá	713	San Lucas Tolimán	10	San Lucas Tolimán	10	Octubre	2023-10-27T00:00:00	2024-11-08T13:00:00	6	Velocidad del viento	6.4
155742	7	Sololá	713	San Lucas Tolimán	10	San Lucas Tolimán	10	Octubre	2023-10-27T00:00:00	2024-11-08T13:00:00	7	Dirección del viento	6.44
155743	7	Sololá	713	San Lucas Tolimán	10	San Lucas Tolimán	10	Octubre	2023-10-27T00:00:00	2024-11-08T13:00:00	1	Precipitación	0
155744	7	Sololá	713	San Lucas Tolimán	10	San Lucas Tolimán	10	Octubre	2023-10-27T00:00:00	2024-11-08T13:00:00	8	Radiación solar	488
155745	7	Sololá	713	San Lucas Tolimán	10	San Lucas Tolimán	10	Octubre	2023-10-27T00:00:00	2024-11-08T14:00:00	2	Temperatura media	21.1
155746	7	Sololá	713	San Lucas Tolimán	10	San Lucas Tolimán	10	Octubre	2023-10-27T00:00:00	2024-11-08T14:00:00	4	Temperatura máxima	23.2
155747	7	Sololá	713	San Lucas Tolimán	10	San Lucas Tolimán	10	Octubre	2023-10-27T00:00:00	2024-11-08T14:00:00	3	Temperatura mínima	21.1
155748	7	Sololá	713	San Lucas Tolimán	10	San Lucas Tolimán	10	Octubre	2023-10-27T00:00:00	2024-11-08T14:00:00	5	Humedad	61
155749	7	Sololá	713	San Lucas Tolimán	10	San Lucas Tolimán	10	Octubre	2023-10-27T00:00:00	2024-11-08T14:00:00	6	Velocidad del viento	6.4
155750	7	Sololá	713	San Lucas Tolimán	10	San Lucas Tolimán	10	Octubre	2023-10-27T00:00:00	2024-11-08T14:00:00	7	Dirección del viento	6.44
155751	7	Sololá	713	San Lucas Tolimán	10	San Lucas Tolimán	10	Octubre	2023-10-27T00:00:00	2024-11-08T14:00:00	1	Precipitación	0
155752	7	Sololá	713	San Lucas Tolimán	10	San Lucas Tolimán	10	Octubre	2023-10-27T00:00:00	2024-11-08T14:00:00	8	Radiación solar	290
155753	7	Sololá	713	San Lucas Tolimán	10	San Lucas Tolimán	10	Octubre	2023-10-27T00:00:00	2024-11-08T15:00:00	2	Temperatura media	21.7
155754	7	Sololá	713	San Lucas Tolimán	10	San Lucas Tolimán	10	Octubre	2023-10-27T00:00:00	2024-11-08T15:00:00	4	Temperatura máxima	22.3
155755	7	Sololá	713	San Lucas Tolimán	10	San Lucas Tolimán	10	Octubre	2023-10-27T00:00:00	2024-11-08T15:00:00	3	Temperatura mínima	20.8
155756	7	Sololá	713	San Lucas Tolimán	10	San Lucas Tolimán	10	Octubre	2023-10-27T00:00:00	2024-11-08T15:00:00	5	Humedad	52
155757	7	Sololá	713	San Lucas Tolimán	10	San Lucas Tolimán	10	Octubre	2023-10-27T00:00:00	2024-11-08T15:00:00	6	Velocidad del viento	4.8
155758	7	Sololá	713	San Lucas Tolimán	10	San Lucas Tolimán	10	Octubre	2023-10-27T00:00:00	2024-11-08T15:00:00	7	Dirección del viento	4.83
155759	7	Sololá	713	San Lucas Tolimán	10	San Lucas Tolimán	10	Octubre	2023-10-27T00:00:00	2024-11-08T15:00:00	1	Precipitación	0.4
155760	7	Sololá	713	San Lucas Tolimán	10	San Lucas Tolimán	10	Octubre	2023-10-27T00:00:00	2024-11-08T15:00:00	8	Radiación solar	387
155761	7	Sololá	713	San Lucas Tolimán	10	San Lucas Tolimán	10	Octubre	2023-10-27T00:00:00	2024-11-08T16:00:00	2	Temperatura media	23.1
155762	7	Sololá	713	San Lucas Tolimán	10	San Lucas Tolimán	10	Octubre	2023-10-27T00:00:00	2024-11-08T16:00:00	4	Temperatura máxima	23.2
155763	7	Sololá	713	San Lucas Tolimán	10	San Lucas Tolimán	10	Octubre	2023-10-27T00:00:00	2024-11-08T16:00:00	3	Temperatura mínima	21.7
155764	7	Sololá	713	San Lucas Tolimán	10	San Lucas Tolimán	10	Octubre	2023-10-27T00:00:00	2024-11-08T16:00:00	5	Humedad	44
155765	7	Sololá	713	San Lucas Tolimán	10	San Lucas Tolimán	10	Octubre	2023-10-27T00:00:00	2024-11-08T16:00:00	6	Velocidad del viento	6.4
155766	7	Sololá	713	San Lucas Tolimán	10	San Lucas Tolimán	10	Octubre	2023-10-27T00:00:00	2024-11-08T16:00:00	7	Dirección del viento	6.44
155767	7	Sololá	713	San Lucas Tolimán	10	San Lucas Tolimán	10	Octubre	2023-10-27T00:00:00	2024-11-08T16:00:00	1	Precipitación	0
155768	7	Sololá	713	San Lucas Tolimán	10	San Lucas Tolimán	10	Octubre	2023-10-27T00:00:00	2024-11-08T16:00:00	8	Radiación solar	343
155769	7	Sololá	713	San Lucas Tolimán	10	San Lucas Tolimán	10	Octubre	2023-10-27T00:00:00	2024-11-08T17:00:00	2	Temperatura media	22.2
155770	7	Sololá	713	San Lucas Tolimán	10	San Lucas Tolimán	10	Octubre	2023-10-27T00:00:00	2024-11-08T17:00:00	4	Temperatura máxima	23.2
155771	7	Sololá	713	San Lucas Tolimán	10	San Lucas Tolimán	10	Octubre	2023-10-27T00:00:00	2024-11-08T17:00:00	3	Temperatura mínima	22.2
155772	7	Sololá	713	San Lucas Tolimán	10	San Lucas Tolimán	10	Octubre	2023-10-27T00:00:00	2024-11-08T17:00:00	5	Humedad	48
155773	7	Sololá	713	San Lucas Tolimán	10	San Lucas Tolimán	10	Octubre	2023-10-27T00:00:00	2024-11-08T17:00:00	6	Velocidad del viento	8
155774	7	Sololá	713	San Lucas Tolimán	10	San Lucas Tolimán	10	Octubre	2023-10-27T00:00:00	2024-11-08T17:00:00	7	Dirección del viento	8.05
155775	7	Sololá	713	San Lucas Tolimán	10	San Lucas Tolimán	10	Octubre	2023-10-27T00:00:00	2024-11-08T17:00:00	1	Precipitación	0
155776	7	Sololá	713	San Lucas Tolimán	10	San Lucas Tolimán	10	Octubre	2023-10-27T00:00:00	2024-11-08T17:00:00	8	Radiación solar	125
155777	7	Sololá	713	San Lucas Tolimán	10	San Lucas Tolimán	10	Octubre	2023-10-27T00:00:00	2024-11-08T18:00:00	2	Temperatura media	21.2
155778	7	Sololá	713	San Lucas Tolimán	10	San Lucas Tolimán	10	Octubre	2023-10-27T00:00:00	2024-11-08T18:00:00	4	Temperatura máxima	22.3
155779	7	Sololá	713	San Lucas Tolimán	10	San Lucas Tolimán	10	Octubre	2023-10-27T00:00:00	2024-11-08T18:00:00	3	Temperatura mínima	20.7
155780	7	Sololá	713	San Lucas Tolimán	10	San Lucas Tolimán	10	Octubre	2023-10-27T00:00:00	2024-11-08T18:00:00	5	Humedad	50
155781	7	Sololá	713	San Lucas Tolimán	10	San Lucas Tolimán	10	Octubre	2023-10-27T00:00:00	2024-11-08T18:00:00	6	Velocidad del viento	1.6
155782	7	Sololá	713	San Lucas Tolimán	10	San Lucas Tolimán	10	Octubre	2023-10-27T00:00:00	2024-11-08T18:00:00	7	Dirección del viento	1.61
155783	7	Sololá	713	San Lucas Tolimán	10	San Lucas Tolimán	10	Octubre	2023-10-27T00:00:00	2024-11-08T18:00:00	1	Precipitación	0
155784	7	Sololá	713	San Lucas Tolimán	10	San Lucas Tolimán	10	Octubre	2023-10-27T00:00:00	2024-11-08T18:00:00	8	Radiación solar	10
155785	7	Sololá	713	San Lucas Tolimán	10	San Lucas Tolimán	10	Octubre	2023-10-27T00:00:00	2024-11-08T19:00:00	2	Temperatura media	20.8
155786	7	Sololá	713	San Lucas Tolimán	10	San Lucas Tolimán	10	Octubre	2023-10-27T00:00:00	2024-11-08T19:00:00	4	Temperatura máxima	21.4
155787	7	Sololá	713	San Lucas Tolimán	10	San Lucas Tolimán	10	Octubre	2023-10-27T00:00:00	2024-11-08T19:00:00	3	Temperatura mínima	20.7
155788	7	Sololá	713	San Lucas Tolimán	10	San Lucas Tolimán	10	Octubre	2023-10-27T00:00:00	2024-11-08T19:00:00	5	Humedad	51
155789	7	Sololá	713	San Lucas Tolimán	10	San Lucas Tolimán	10	Octubre	2023-10-27T00:00:00	2024-11-08T19:00:00	6	Velocidad del viento	8
155790	7	Sololá	713	San Lucas Tolimán	10	San Lucas Tolimán	10	Octubre	2023-10-27T00:00:00	2024-11-08T19:00:00	7	Dirección del viento	8.05
155791	7	Sololá	713	San Lucas Tolimán	10	San Lucas Tolimán	10	Octubre	2023-10-27T00:00:00	2024-11-08T19:00:00	1	Precipitación	0
155792	7	Sololá	713	San Lucas Tolimán	10	San Lucas Tolimán	10	Octubre	2023-10-27T00:00:00	2024-11-08T19:00:00	8	Radiación solar	0
155793	7	Sololá	713	San Lucas Tolimán	10	San Lucas Tolimán	10	Octubre	2023-10-27T00:00:00	2024-11-08T20:00:00	2	Temperatura media	20.2
155794	7	Sololá	713	San Lucas Tolimán	10	San Lucas Tolimán	10	Octubre	2023-10-27T00:00:00	2024-11-08T20:00:00	4	Temperatura máxima	20.9
155795	7	Sololá	713	San Lucas Tolimán	10	San Lucas Tolimán	10	Octubre	2023-10-27T00:00:00	2024-11-08T20:00:00	3	Temperatura mínima	20.2
155796	7	Sololá	713	San Lucas Tolimán	10	San Lucas Tolimán	10	Octubre	2023-10-27T00:00:00	2024-11-08T20:00:00	5	Humedad	57
155797	7	Sololá	713	San Lucas Tolimán	10	San Lucas Tolimán	10	Octubre	2023-10-27T00:00:00	2024-11-08T20:00:00	6	Velocidad del viento	1.6
155798	7	Sololá	713	San Lucas Tolimán	10	San Lucas Tolimán	10	Octubre	2023-10-27T00:00:00	2024-11-08T20:00:00	7	Dirección del viento	1.61
155799	7	Sololá	713	San Lucas Tolimán	10	San Lucas Tolimán	10	Octubre	2023-10-27T00:00:00	2024-11-08T20:00:00	1	Precipitación	0
155800	7	Sololá	713	San Lucas Tolimán	10	San Lucas Tolimán	10	Octubre	2023-10-27T00:00:00	2024-11-08T20:00:00	8	Radiación solar	0
155801	7	Sololá	713	San Lucas Tolimán	10	San Lucas Tolimán	10	Octubre	2023-10-27T00:00:00	2024-11-08T21:00:00	2	Temperatura media	18.7
155802	7	Sololá	713	San Lucas Tolimán	10	San Lucas Tolimán	10	Octubre	2023-10-27T00:00:00	2024-11-08T21:00:00	4	Temperatura máxima	20.2
155803	7	Sololá	713	San Lucas Tolimán	10	San Lucas Tolimán	10	Octubre	2023-10-27T00:00:00	2024-11-08T21:00:00	3	Temperatura mínima	18.7
155804	7	Sololá	713	San Lucas Tolimán	10	San Lucas Tolimán	10	Octubre	2023-10-27T00:00:00	2024-11-08T21:00:00	5	Humedad	62
155805	7	Sololá	713	San Lucas Tolimán	10	San Lucas Tolimán	10	Octubre	2023-10-27T00:00:00	2024-11-08T21:00:00	6	Velocidad del viento	3.2
155806	7	Sololá	713	San Lucas Tolimán	10	San Lucas Tolimán	10	Octubre	2023-10-27T00:00:00	2024-11-08T21:00:00	7	Dirección del viento	3.22
155807	7	Sololá	713	San Lucas Tolimán	10	San Lucas Tolimán	10	Octubre	2023-10-27T00:00:00	2024-11-08T21:00:00	1	Precipitación	0
155808	7	Sololá	713	San Lucas Tolimán	10	San Lucas Tolimán	10	Octubre	2023-10-27T00:00:00	2024-11-08T21:00:00	8	Radiación solar	0
155809	7	Sololá	713	San Lucas Tolimán	10	San Lucas Tolimán	10	Octubre	2023-10-27T00:00:00	2024-11-08T22:00:00	2	Temperatura media	18.7
155810	7	Sololá	713	San Lucas Tolimán	10	San Lucas Tolimán	10	Octubre	2023-10-27T00:00:00	2024-11-08T22:00:00	4	Temperatura máxima	18.7
155811	7	Sololá	713	San Lucas Tolimán	10	San Lucas Tolimán	10	Octubre	2023-10-27T00:00:00	2024-11-08T22:00:00	3	Temperatura mínima	18.3
155812	7	Sololá	713	San Lucas Tolimán	10	San Lucas Tolimán	10	Octubre	2023-10-27T00:00:00	2024-11-08T22:00:00	5	Humedad	59
155813	7	Sololá	713	San Lucas Tolimán	10	San Lucas Tolimán	10	Octubre	2023-10-27T00:00:00	2024-11-08T22:00:00	6	Velocidad del viento	1.6
155814	7	Sololá	713	San Lucas Tolimán	10	San Lucas Tolimán	10	Octubre	2023-10-27T00:00:00	2024-11-08T22:00:00	7	Dirección del viento	1.61
155815	7	Sololá	713	San Lucas Tolimán	10	San Lucas Tolimán	10	Octubre	2023-10-27T00:00:00	2024-11-08T22:00:00	1	Precipitación	0
155816	7	Sololá	713	San Lucas Tolimán	10	San Lucas Tolimán	10	Octubre	2023-10-27T00:00:00	2024-11-08T22:00:00	8	Radiación solar	0
155817	7	Sololá	713	San Lucas Tolimán	10	San Lucas Tolimán	10	Octubre	2023-10-27T00:00:00	2024-11-08T23:00:00	2	Temperatura media	20.3
155818	7	Sololá	713	San Lucas Tolimán	10	San Lucas Tolimán	10	Octubre	2023-10-27T00:00:00	2024-11-08T23:00:00	4	Temperatura máxima	20.4
155819	7	Sololá	713	San Lucas Tolimán	10	San Lucas Tolimán	10	Octubre	2023-10-27T00:00:00	2024-11-08T23:00:00	3	Temperatura mínima	18.7
155820	7	Sololá	713	San Lucas Tolimán	10	San Lucas Tolimán	10	Octubre	2023-10-27T00:00:00	2024-11-08T23:00:00	5	Humedad	52
155821	7	Sololá	713	San Lucas Tolimán	10	San Lucas Tolimán	10	Octubre	2023-10-27T00:00:00	2024-11-08T23:00:00	6	Velocidad del viento	6.4
155822	7	Sololá	713	San Lucas Tolimán	10	San Lucas Tolimán	10	Octubre	2023-10-27T00:00:00	2024-11-08T23:00:00	7	Dirección del viento	6.44
155823	7	Sololá	713	San Lucas Tolimán	10	San Lucas Tolimán	10	Octubre	2023-10-27T00:00:00	2024-11-08T23:00:00	1	Precipitación	0
155824	7	Sololá	713	San Lucas Tolimán	10	San Lucas Tolimán	10	Octubre	2023-10-27T00:00:00	2024-11-08T23:00:00	8	Radiación solar	0
155825	7	Sololá	713	San Lucas Tolimán	10	San Lucas Tolimán	10	Octubre	2023-10-28T00:00:00	2024-11-08T00:00:00	2	Temperatura media	20.1
155826	7	Sololá	713	San Lucas Tolimán	10	San Lucas Tolimán	10	Octubre	2023-10-28T00:00:00	2024-11-08T00:00:00	4	Temperatura máxima	20.3
155827	7	Sololá	713	San Lucas Tolimán	10	San Lucas Tolimán	10	Octubre	2023-10-28T00:00:00	2024-11-08T00:00:00	3	Temperatura mínima	19.9
155828	7	Sololá	713	San Lucas Tolimán	10	San Lucas Tolimán	10	Octubre	2023-10-28T00:00:00	2024-11-08T00:00:00	5	Humedad	52
155829	7	Sololá	713	San Lucas Tolimán	10	San Lucas Tolimán	10	Octubre	2023-10-28T00:00:00	2024-11-08T00:00:00	6	Velocidad del viento	8
155830	7	Sololá	713	San Lucas Tolimán	10	San Lucas Tolimán	10	Octubre	2023-10-28T00:00:00	2024-11-08T00:00:00	7	Dirección del viento	8.05
155831	7	Sololá	713	San Lucas Tolimán	10	San Lucas Tolimán	10	Octubre	2023-10-28T00:00:00	2024-11-08T00:00:00	1	Precipitación	0
155832	7	Sololá	713	San Lucas Tolimán	10	San Lucas Tolimán	10	Octubre	2023-10-28T00:00:00	2024-11-08T00:00:00	8	Radiación solar	0
155833	7	Sololá	713	San Lucas Tolimán	10	San Lucas Tolimán	10	Octubre	2023-10-28T00:00:00	2024-11-08T01:00:00	2	Temperatura media	20.2
155834	7	Sololá	713	San Lucas Tolimán	10	San Lucas Tolimán	10	Octubre	2023-10-28T00:00:00	2024-11-08T01:00:00	4	Temperatura máxima	20.3
155835	7	Sololá	713	San Lucas Tolimán	10	San Lucas Tolimán	10	Octubre	2023-10-28T00:00:00	2024-11-08T01:00:00	3	Temperatura mínima	20.1
155836	7	Sololá	713	San Lucas Tolimán	10	San Lucas Tolimán	10	Octubre	2023-10-28T00:00:00	2024-11-08T01:00:00	5	Humedad	51
155837	7	Sololá	713	San Lucas Tolimán	10	San Lucas Tolimán	10	Octubre	2023-10-28T00:00:00	2024-11-08T01:00:00	6	Velocidad del viento	12.9
155838	7	Sololá	713	San Lucas Tolimán	10	San Lucas Tolimán	10	Octubre	2023-10-28T00:00:00	2024-11-08T01:00:00	7	Dirección del viento	12.87
155839	7	Sololá	713	San Lucas Tolimán	10	San Lucas Tolimán	10	Octubre	2023-10-28T00:00:00	2024-11-08T01:00:00	1	Precipitación	0
155840	7	Sololá	713	San Lucas Tolimán	10	San Lucas Tolimán	10	Octubre	2023-10-28T00:00:00	2024-11-08T01:00:00	8	Radiación solar	0
155841	7	Sololá	713	San Lucas Tolimán	10	San Lucas Tolimán	10	Octubre	2023-10-28T00:00:00	2024-11-08T02:00:00	2	Temperatura media	19.1
155842	7	Sololá	713	San Lucas Tolimán	10	San Lucas Tolimán	10	Octubre	2023-10-28T00:00:00	2024-11-08T02:00:00	4	Temperatura máxima	20.2
155843	7	Sololá	713	San Lucas Tolimán	10	San Lucas Tolimán	10	Octubre	2023-10-28T00:00:00	2024-11-08T02:00:00	3	Temperatura mínima	19.1
155844	7	Sololá	713	San Lucas Tolimán	10	San Lucas Tolimán	10	Octubre	2023-10-28T00:00:00	2024-11-08T02:00:00	5	Humedad	56
155845	7	Sololá	713	San Lucas Tolimán	10	San Lucas Tolimán	10	Octubre	2023-10-28T00:00:00	2024-11-08T02:00:00	6	Velocidad del viento	1.6
155846	7	Sololá	713	San Lucas Tolimán	10	San Lucas Tolimán	10	Octubre	2023-10-28T00:00:00	2024-11-08T02:00:00	7	Dirección del viento	1.61
155847	7	Sololá	713	San Lucas Tolimán	10	San Lucas Tolimán	10	Octubre	2023-10-28T00:00:00	2024-11-08T02:00:00	1	Precipitación	0
155848	7	Sololá	713	San Lucas Tolimán	10	San Lucas Tolimán	10	Octubre	2023-10-28T00:00:00	2024-11-08T02:00:00	8	Radiación solar	0
155849	7	Sololá	713	San Lucas Tolimán	10	San Lucas Tolimán	10	Octubre	2023-10-28T00:00:00	2024-11-08T03:00:00	2	Temperatura media	17.9
155850	7	Sololá	713	San Lucas Tolimán	10	San Lucas Tolimán	10	Octubre	2023-10-28T00:00:00	2024-11-08T03:00:00	4	Temperatura máxima	19.1
155851	7	Sololá	713	San Lucas Tolimán	10	San Lucas Tolimán	10	Octubre	2023-10-28T00:00:00	2024-11-08T03:00:00	3	Temperatura mínima	17.4
155852	7	Sololá	713	San Lucas Tolimán	10	San Lucas Tolimán	10	Octubre	2023-10-28T00:00:00	2024-11-08T03:00:00	5	Humedad	59
155853	7	Sololá	713	San Lucas Tolimán	10	San Lucas Tolimán	10	Octubre	2023-10-28T00:00:00	2024-11-08T03:00:00	6	Velocidad del viento	1.6
155854	7	Sololá	713	San Lucas Tolimán	10	San Lucas Tolimán	10	Octubre	2023-10-28T00:00:00	2024-11-08T03:00:00	7	Dirección del viento	1.61
155855	7	Sololá	713	San Lucas Tolimán	10	San Lucas Tolimán	10	Octubre	2023-10-28T00:00:00	2024-11-08T03:00:00	1	Precipitación	0
155856	7	Sololá	713	San Lucas Tolimán	10	San Lucas Tolimán	10	Octubre	2023-10-28T00:00:00	2024-11-08T03:00:00	8	Radiación solar	0
155857	7	Sololá	713	San Lucas Tolimán	10	San Lucas Tolimán	10	Octubre	2023-10-28T00:00:00	2024-11-08T04:00:00	2	Temperatura media	19.7
155858	7	Sololá	713	San Lucas Tolimán	10	San Lucas Tolimán	10	Octubre	2023-10-28T00:00:00	2024-11-08T04:00:00	4	Temperatura máxima	19.7
155859	7	Sololá	713	San Lucas Tolimán	10	San Lucas Tolimán	10	Octubre	2023-10-28T00:00:00	2024-11-08T04:00:00	3	Temperatura mínima	17.7
155860	7	Sololá	713	San Lucas Tolimán	10	San Lucas Tolimán	10	Octubre	2023-10-28T00:00:00	2024-11-08T04:00:00	5	Humedad	52
155861	7	Sololá	713	San Lucas Tolimán	10	San Lucas Tolimán	10	Octubre	2023-10-28T00:00:00	2024-11-08T04:00:00	6	Velocidad del viento	8
155862	7	Sololá	713	San Lucas Tolimán	10	San Lucas Tolimán	10	Octubre	2023-10-28T00:00:00	2024-11-08T04:00:00	7	Dirección del viento	8.05
155863	7	Sololá	713	San Lucas Tolimán	10	San Lucas Tolimán	10	Octubre	2023-10-28T00:00:00	2024-11-08T04:00:00	1	Precipitación	0
155864	7	Sololá	713	San Lucas Tolimán	10	San Lucas Tolimán	10	Octubre	2023-10-28T00:00:00	2024-11-08T04:00:00	8	Radiación solar	0
155865	7	Sololá	713	San Lucas Tolimán	10	San Lucas Tolimán	10	Octubre	2023-10-28T00:00:00	2024-11-08T05:00:00	2	Temperatura media	18.7
155866	7	Sololá	713	San Lucas Tolimán	10	San Lucas Tolimán	10	Octubre	2023-10-28T00:00:00	2024-11-08T05:00:00	4	Temperatura máxima	19.8
155867	7	Sololá	713	San Lucas Tolimán	10	San Lucas Tolimán	10	Octubre	2023-10-28T00:00:00	2024-11-08T05:00:00	3	Temperatura mínima	18.7
155868	7	Sololá	713	San Lucas Tolimán	10	San Lucas Tolimán	10	Octubre	2023-10-28T00:00:00	2024-11-08T05:00:00	5	Humedad	55
155869	7	Sololá	713	San Lucas Tolimán	10	San Lucas Tolimán	10	Octubre	2023-10-28T00:00:00	2024-11-08T05:00:00	6	Velocidad del viento	9.7
155870	7	Sololá	713	San Lucas Tolimán	10	San Lucas Tolimán	10	Octubre	2023-10-28T00:00:00	2024-11-08T05:00:00	7	Dirección del viento	9.66
155871	7	Sololá	713	San Lucas Tolimán	10	San Lucas Tolimán	10	Octubre	2023-10-28T00:00:00	2024-11-08T05:00:00	1	Precipitación	0
155872	7	Sololá	713	San Lucas Tolimán	10	San Lucas Tolimán	10	Octubre	2023-10-28T00:00:00	2024-11-08T05:00:00	8	Radiación solar	0
155873	7	Sololá	713	San Lucas Tolimán	10	San Lucas Tolimán	10	Octubre	2023-10-28T00:00:00	2024-11-08T06:00:00	2	Temperatura media	17.7
155874	7	Sololá	713	San Lucas Tolimán	10	San Lucas Tolimán	10	Octubre	2023-10-28T00:00:00	2024-11-08T06:00:00	4	Temperatura máxima	18.7
155875	7	Sololá	713	San Lucas Tolimán	10	San Lucas Tolimán	10	Octubre	2023-10-28T00:00:00	2024-11-08T06:00:00	3	Temperatura mínima	17.1
155876	7	Sololá	713	San Lucas Tolimán	10	San Lucas Tolimán	10	Octubre	2023-10-28T00:00:00	2024-11-08T06:00:00	5	Humedad	54
155877	7	Sololá	713	San Lucas Tolimán	10	San Lucas Tolimán	10	Octubre	2023-10-28T00:00:00	2024-11-08T06:00:00	6	Velocidad del viento	1.6
155878	7	Sololá	713	San Lucas Tolimán	10	San Lucas Tolimán	10	Octubre	2023-10-28T00:00:00	2024-11-08T06:00:00	7	Dirección del viento	1.61
155879	7	Sololá	713	San Lucas Tolimán	10	San Lucas Tolimán	10	Octubre	2023-10-28T00:00:00	2024-11-08T06:00:00	1	Precipitación	0
155880	7	Sololá	713	San Lucas Tolimán	10	San Lucas Tolimán	10	Octubre	2023-10-28T00:00:00	2024-11-08T06:00:00	8	Radiación solar	0
155881	7	Sololá	713	San Lucas Tolimán	10	San Lucas Tolimán	10	Octubre	2023-10-28T00:00:00	2024-11-08T07:00:00	2	Temperatura media	17.4
155882	7	Sololá	713	San Lucas Tolimán	10	San Lucas Tolimán	10	Octubre	2023-10-28T00:00:00	2024-11-08T07:00:00	4	Temperatura máxima	17.9
155883	7	Sololá	713	San Lucas Tolimán	10	San Lucas Tolimán	10	Octubre	2023-10-28T00:00:00	2024-11-08T07:00:00	3	Temperatura mínima	17.4
155884	7	Sololá	713	San Lucas Tolimán	10	San Lucas Tolimán	10	Octubre	2023-10-28T00:00:00	2024-11-08T07:00:00	5	Humedad	55
155885	7	Sololá	713	San Lucas Tolimán	10	San Lucas Tolimán	10	Octubre	2023-10-28T00:00:00	2024-11-08T07:00:00	6	Velocidad del viento	1.6
155886	7	Sololá	713	San Lucas Tolimán	10	San Lucas Tolimán	10	Octubre	2023-10-28T00:00:00	2024-11-08T07:00:00	7	Dirección del viento	1.61
155887	7	Sololá	713	San Lucas Tolimán	10	San Lucas Tolimán	10	Octubre	2023-10-28T00:00:00	2024-11-08T07:00:00	1	Precipitación	0
155888	7	Sololá	713	San Lucas Tolimán	10	San Lucas Tolimán	10	Octubre	2023-10-28T00:00:00	2024-11-08T07:00:00	8	Radiación solar	21
155889	7	Sololá	713	San Lucas Tolimán	10	San Lucas Tolimán	10	Octubre	2023-10-28T00:00:00	2024-11-08T08:00:00	2	Temperatura media	21.2
155890	7	Sololá	713	San Lucas Tolimán	10	San Lucas Tolimán	10	Octubre	2023-10-28T00:00:00	2024-11-08T08:00:00	4	Temperatura máxima	21.2
155891	7	Sololá	713	San Lucas Tolimán	10	San Lucas Tolimán	10	Octubre	2023-10-28T00:00:00	2024-11-08T08:00:00	3	Temperatura mínima	17.4
155892	7	Sololá	713	San Lucas Tolimán	10	San Lucas Tolimán	10	Octubre	2023-10-28T00:00:00	2024-11-08T08:00:00	5	Humedad	47
155893	7	Sololá	713	San Lucas Tolimán	10	San Lucas Tolimán	10	Octubre	2023-10-28T00:00:00	2024-11-08T08:00:00	6	Velocidad del viento	1.6
155894	7	Sololá	713	San Lucas Tolimán	10	San Lucas Tolimán	10	Octubre	2023-10-28T00:00:00	2024-11-08T08:00:00	7	Dirección del viento	1.61
155895	7	Sololá	713	San Lucas Tolimán	10	San Lucas Tolimán	10	Octubre	2023-10-28T00:00:00	2024-11-08T08:00:00	1	Precipitación	0
155896	7	Sololá	713	San Lucas Tolimán	10	San Lucas Tolimán	10	Octubre	2023-10-28T00:00:00	2024-11-08T08:00:00	8	Radiación solar	187
155897	7	Sololá	713	San Lucas Tolimán	10	San Lucas Tolimán	10	Octubre	2023-10-28T00:00:00	2024-11-08T09:00:00	2	Temperatura media	22.3
155898	7	Sololá	713	San Lucas Tolimán	10	San Lucas Tolimán	10	Octubre	2023-10-28T00:00:00	2024-11-08T09:00:00	4	Temperatura máxima	22.6
155899	7	Sololá	713	San Lucas Tolimán	10	San Lucas Tolimán	10	Octubre	2023-10-28T00:00:00	2024-11-08T09:00:00	3	Temperatura mínima	21.2
155900	7	Sololá	713	San Lucas Tolimán	10	San Lucas Tolimán	10	Octubre	2023-10-28T00:00:00	2024-11-08T09:00:00	5	Humedad	45
155901	7	Sololá	713	San Lucas Tolimán	10	San Lucas Tolimán	10	Octubre	2023-10-28T00:00:00	2024-11-08T09:00:00	6	Velocidad del viento	3.2
155902	7	Sololá	713	San Lucas Tolimán	10	San Lucas Tolimán	10	Octubre	2023-10-28T00:00:00	2024-11-08T09:00:00	7	Dirección del viento	3.22
155903	7	Sololá	713	San Lucas Tolimán	10	San Lucas Tolimán	10	Octubre	2023-10-28T00:00:00	2024-11-08T09:00:00	1	Precipitación	0
155904	7	Sololá	713	San Lucas Tolimán	10	San Lucas Tolimán	10	Octubre	2023-10-28T00:00:00	2024-11-08T09:00:00	8	Radiación solar	412
155905	7	Sololá	713	San Lucas Tolimán	10	San Lucas Tolimán	10	Octubre	2023-10-28T00:00:00	2024-11-08T10:00:00	2	Temperatura media	22.6
155906	7	Sololá	713	San Lucas Tolimán	10	San Lucas Tolimán	10	Octubre	2023-10-28T00:00:00	2024-11-08T10:00:00	4	Temperatura máxima	22.8
155907	7	Sololá	713	San Lucas Tolimán	10	San Lucas Tolimán	10	Octubre	2023-10-28T00:00:00	2024-11-08T10:00:00	3	Temperatura mínima	21.9
155908	7	Sololá	713	San Lucas Tolimán	10	San Lucas Tolimán	10	Octubre	2023-10-28T00:00:00	2024-11-08T10:00:00	5	Humedad	44
155909	7	Sololá	713	San Lucas Tolimán	10	San Lucas Tolimán	10	Octubre	2023-10-28T00:00:00	2024-11-08T10:00:00	6	Velocidad del viento	11.3
155910	7	Sololá	713	San Lucas Tolimán	10	San Lucas Tolimán	10	Octubre	2023-10-28T00:00:00	2024-11-08T10:00:00	7	Dirección del viento	11.27
155911	7	Sololá	713	San Lucas Tolimán	10	San Lucas Tolimán	10	Octubre	2023-10-28T00:00:00	2024-11-08T10:00:00	1	Precipitación	0
155912	7	Sololá	713	San Lucas Tolimán	10	San Lucas Tolimán	10	Octubre	2023-10-28T00:00:00	2024-11-08T10:00:00	8	Radiación solar	649
155913	7	Sololá	713	San Lucas Tolimán	10	San Lucas Tolimán	10	Octubre	2023-10-28T00:00:00	2024-11-08T11:00:00	2	Temperatura media	23.8
155914	7	Sololá	713	San Lucas Tolimán	10	San Lucas Tolimán	10	Octubre	2023-10-28T00:00:00	2024-11-08T11:00:00	4	Temperatura máxima	23.8
155915	7	Sololá	713	San Lucas Tolimán	10	San Lucas Tolimán	10	Octubre	2023-10-28T00:00:00	2024-11-08T11:00:00	3	Temperatura mínima	22.4
155916	7	Sololá	713	San Lucas Tolimán	10	San Lucas Tolimán	10	Octubre	2023-10-28T00:00:00	2024-11-08T11:00:00	5	Humedad	55
155917	7	Sololá	713	San Lucas Tolimán	10	San Lucas Tolimán	10	Octubre	2023-10-28T00:00:00	2024-11-08T11:00:00	6	Velocidad del viento	6.4
155918	7	Sololá	713	San Lucas Tolimán	10	San Lucas Tolimán	10	Octubre	2023-10-28T00:00:00	2024-11-08T11:00:00	7	Dirección del viento	6.44
155919	7	Sololá	713	San Lucas Tolimán	10	San Lucas Tolimán	10	Octubre	2023-10-28T00:00:00	2024-11-08T11:00:00	1	Precipitación	0
155920	7	Sololá	713	San Lucas Tolimán	10	San Lucas Tolimán	10	Octubre	2023-10-28T00:00:00	2024-11-08T11:00:00	8	Radiación solar	528
155921	7	Sololá	713	San Lucas Tolimán	10	San Lucas Tolimán	10	Octubre	2023-10-28T00:00:00	2024-11-08T12:00:00	2	Temperatura media	22.4
155922	7	Sololá	713	San Lucas Tolimán	10	San Lucas Tolimán	10	Octubre	2023-10-28T00:00:00	2024-11-08T12:00:00	4	Temperatura máxima	24.1
155923	7	Sololá	713	San Lucas Tolimán	10	San Lucas Tolimán	10	Octubre	2023-10-28T00:00:00	2024-11-08T12:00:00	3	Temperatura mínima	22.1
155924	7	Sololá	713	San Lucas Tolimán	10	San Lucas Tolimán	10	Octubre	2023-10-28T00:00:00	2024-11-08T12:00:00	5	Humedad	57
155925	7	Sololá	713	San Lucas Tolimán	10	San Lucas Tolimán	10	Octubre	2023-10-28T00:00:00	2024-11-08T12:00:00	6	Velocidad del viento	6.4
155926	7	Sololá	713	San Lucas Tolimán	10	San Lucas Tolimán	10	Octubre	2023-10-28T00:00:00	2024-11-08T12:00:00	7	Dirección del viento	6.44
155927	7	Sololá	713	San Lucas Tolimán	10	San Lucas Tolimán	10	Octubre	2023-10-28T00:00:00	2024-11-08T12:00:00	1	Precipitación	0
155928	7	Sololá	713	San Lucas Tolimán	10	San Lucas Tolimán	10	Octubre	2023-10-28T00:00:00	2024-11-08T12:00:00	8	Radiación solar	386
155929	7	Sololá	713	San Lucas Tolimán	10	San Lucas Tolimán	10	Octubre	2023-10-28T00:00:00	2024-11-08T13:00:00	2	Temperatura media	24
155930	7	Sololá	713	San Lucas Tolimán	10	San Lucas Tolimán	10	Octubre	2023-10-28T00:00:00	2024-11-08T13:00:00	4	Temperatura máxima	24
155931	7	Sololá	713	San Lucas Tolimán	10	San Lucas Tolimán	10	Octubre	2023-10-28T00:00:00	2024-11-08T13:00:00	3	Temperatura mínima	22.4
155932	7	Sololá	713	San Lucas Tolimán	10	San Lucas Tolimán	10	Octubre	2023-10-28T00:00:00	2024-11-08T13:00:00	5	Humedad	53
155933	7	Sololá	713	San Lucas Tolimán	10	San Lucas Tolimán	10	Octubre	2023-10-28T00:00:00	2024-11-08T13:00:00	6	Velocidad del viento	4.8
155934	7	Sololá	713	San Lucas Tolimán	10	San Lucas Tolimán	10	Octubre	2023-10-28T00:00:00	2024-11-08T13:00:00	7	Dirección del viento	4.83
155935	7	Sololá	713	San Lucas Tolimán	10	San Lucas Tolimán	10	Octubre	2023-10-28T00:00:00	2024-11-08T13:00:00	1	Precipitación	0
155936	7	Sololá	713	San Lucas Tolimán	10	San Lucas Tolimán	10	Octubre	2023-10-28T00:00:00	2024-11-08T13:00:00	8	Radiación solar	535
155937	7	Sololá	713	San Lucas Tolimán	10	San Lucas Tolimán	10	Octubre	2023-10-28T00:00:00	2024-11-08T14:00:00	2	Temperatura media	23.4
155938	7	Sololá	713	San Lucas Tolimán	10	San Lucas Tolimán	10	Octubre	2023-10-28T00:00:00	2024-11-08T14:00:00	4	Temperatura máxima	24.6
155939	7	Sololá	713	San Lucas Tolimán	10	San Lucas Tolimán	10	Octubre	2023-10-28T00:00:00	2024-11-08T14:00:00	3	Temperatura mínima	22.8
155940	7	Sololá	713	San Lucas Tolimán	10	San Lucas Tolimán	10	Octubre	2023-10-28T00:00:00	2024-11-08T14:00:00	5	Humedad	58
155941	7	Sololá	713	San Lucas Tolimán	10	San Lucas Tolimán	10	Octubre	2023-10-28T00:00:00	2024-11-08T14:00:00	6	Velocidad del viento	6.4
155942	7	Sololá	713	San Lucas Tolimán	10	San Lucas Tolimán	10	Octubre	2023-10-28T00:00:00	2024-11-08T14:00:00	7	Dirección del viento	6.44
155943	7	Sololá	713	San Lucas Tolimán	10	San Lucas Tolimán	10	Octubre	2023-10-28T00:00:00	2024-11-08T14:00:00	1	Precipitación	0
155944	7	Sololá	713	San Lucas Tolimán	10	San Lucas Tolimán	10	Octubre	2023-10-28T00:00:00	2024-11-08T14:00:00	8	Radiación solar	364
155945	7	Sololá	713	San Lucas Tolimán	10	San Lucas Tolimán	10	Octubre	2023-10-28T00:00:00	2024-11-08T15:00:00	2	Temperatura media	22.4
155946	7	Sololá	713	San Lucas Tolimán	10	San Lucas Tolimán	10	Octubre	2023-10-28T00:00:00	2024-11-08T15:00:00	4	Temperatura máxima	23.6
155947	7	Sololá	713	San Lucas Tolimán	10	San Lucas Tolimán	10	Octubre	2023-10-28T00:00:00	2024-11-08T15:00:00	3	Temperatura mínima	21.8
155948	7	Sololá	713	San Lucas Tolimán	10	San Lucas Tolimán	10	Octubre	2023-10-28T00:00:00	2024-11-08T15:00:00	5	Humedad	61
155949	7	Sololá	713	San Lucas Tolimán	10	San Lucas Tolimán	10	Octubre	2023-10-28T00:00:00	2024-11-08T15:00:00	6	Velocidad del viento	6.4
155950	7	Sololá	713	San Lucas Tolimán	10	San Lucas Tolimán	10	Octubre	2023-10-28T00:00:00	2024-11-08T15:00:00	7	Dirección del viento	6.44
155951	7	Sololá	713	San Lucas Tolimán	10	San Lucas Tolimán	10	Octubre	2023-10-28T00:00:00	2024-11-08T15:00:00	1	Precipitación	0
155952	7	Sololá	713	San Lucas Tolimán	10	San Lucas Tolimán	10	Octubre	2023-10-28T00:00:00	2024-11-08T15:00:00	8	Radiación solar	305
155953	7	Sololá	713	San Lucas Tolimán	10	San Lucas Tolimán	10	Octubre	2023-10-28T00:00:00	2024-11-08T16:00:00	2	Temperatura media	20.4
155954	7	Sololá	713	San Lucas Tolimán	10	San Lucas Tolimán	10	Octubre	2023-10-28T00:00:00	2024-11-08T16:00:00	4	Temperatura máxima	22.4
155955	7	Sololá	713	San Lucas Tolimán	10	San Lucas Tolimán	10	Octubre	2023-10-28T00:00:00	2024-11-08T16:00:00	3	Temperatura mínima	20.4
155956	7	Sololá	713	San Lucas Tolimán	10	San Lucas Tolimán	10	Octubre	2023-10-28T00:00:00	2024-11-08T16:00:00	5	Humedad	60
155957	7	Sololá	713	San Lucas Tolimán	10	San Lucas Tolimán	10	Octubre	2023-10-28T00:00:00	2024-11-08T16:00:00	6	Velocidad del viento	9.7
155958	7	Sololá	713	San Lucas Tolimán	10	San Lucas Tolimán	10	Octubre	2023-10-28T00:00:00	2024-11-08T16:00:00	7	Dirección del viento	9.66
155959	7	Sololá	713	San Lucas Tolimán	10	San Lucas Tolimán	10	Octubre	2023-10-28T00:00:00	2024-11-08T16:00:00	1	Precipitación	0
155960	7	Sololá	713	San Lucas Tolimán	10	San Lucas Tolimán	10	Octubre	2023-10-28T00:00:00	2024-11-08T16:00:00	8	Radiación solar	159
155961	7	Sololá	713	San Lucas Tolimán	10	San Lucas Tolimán	10	Octubre	2023-10-28T00:00:00	2024-11-08T17:00:00	2	Temperatura media	21.9
155962	7	Sololá	713	San Lucas Tolimán	10	San Lucas Tolimán	10	Octubre	2023-10-28T00:00:00	2024-11-08T17:00:00	4	Temperatura máxima	21.9
155963	7	Sololá	713	San Lucas Tolimán	10	San Lucas Tolimán	10	Octubre	2023-10-28T00:00:00	2024-11-08T17:00:00	3	Temperatura mínima	20.4
155964	7	Sololá	713	San Lucas Tolimán	10	San Lucas Tolimán	10	Octubre	2023-10-28T00:00:00	2024-11-08T17:00:00	5	Humedad	55
155965	7	Sololá	713	San Lucas Tolimán	10	San Lucas Tolimán	10	Octubre	2023-10-28T00:00:00	2024-11-08T17:00:00	6	Velocidad del viento	1.6
155966	7	Sololá	713	San Lucas Tolimán	10	San Lucas Tolimán	10	Octubre	2023-10-28T00:00:00	2024-11-08T17:00:00	7	Dirección del viento	1.61
155967	7	Sololá	713	San Lucas Tolimán	10	San Lucas Tolimán	10	Octubre	2023-10-28T00:00:00	2024-11-08T17:00:00	1	Precipitación	0
155968	7	Sololá	713	San Lucas Tolimán	10	San Lucas Tolimán	10	Octubre	2023-10-28T00:00:00	2024-11-08T17:00:00	8	Radiación solar	53
155969	7	Sololá	713	San Lucas Tolimán	10	San Lucas Tolimán	10	Octubre	2023-10-28T00:00:00	2024-11-08T18:00:00	2	Temperatura media	18.9
155970	7	Sololá	713	San Lucas Tolimán	10	San Lucas Tolimán	10	Octubre	2023-10-28T00:00:00	2024-11-08T18:00:00	4	Temperatura máxima	21.9
155971	7	Sololá	713	San Lucas Tolimán	10	San Lucas Tolimán	10	Octubre	2023-10-28T00:00:00	2024-11-08T18:00:00	3	Temperatura mínima	18.9
155972	7	Sololá	713	San Lucas Tolimán	10	San Lucas Tolimán	10	Octubre	2023-10-28T00:00:00	2024-11-08T18:00:00	5	Humedad	61
155973	7	Sololá	713	San Lucas Tolimán	10	San Lucas Tolimán	10	Octubre	2023-10-28T00:00:00	2024-11-08T18:00:00	6	Velocidad del viento	4.8
155974	7	Sololá	713	San Lucas Tolimán	10	San Lucas Tolimán	10	Octubre	2023-10-28T00:00:00	2024-11-08T18:00:00	7	Dirección del viento	4.83
155975	7	Sololá	713	San Lucas Tolimán	10	San Lucas Tolimán	10	Octubre	2023-10-28T00:00:00	2024-11-08T18:00:00	1	Precipitación	0
155976	7	Sololá	713	San Lucas Tolimán	10	San Lucas Tolimán	10	Octubre	2023-10-28T00:00:00	2024-11-08T18:00:00	8	Radiación solar	12
155977	7	Sololá	713	San Lucas Tolimán	10	San Lucas Tolimán	10	Octubre	2023-10-28T00:00:00	2024-11-08T19:00:00	2	Temperatura media	19.2
155978	7	Sololá	713	San Lucas Tolimán	10	San Lucas Tolimán	10	Octubre	2023-10-28T00:00:00	2024-11-08T19:00:00	4	Temperatura máxima	19.7
155979	7	Sololá	713	San Lucas Tolimán	10	San Lucas Tolimán	10	Octubre	2023-10-28T00:00:00	2024-11-08T19:00:00	3	Temperatura mínima	18.7
155980	7	Sololá	713	San Lucas Tolimán	10	San Lucas Tolimán	10	Octubre	2023-10-28T00:00:00	2024-11-08T19:00:00	5	Humedad	59
155981	7	Sololá	713	San Lucas Tolimán	10	San Lucas Tolimán	10	Octubre	2023-10-28T00:00:00	2024-11-08T19:00:00	6	Velocidad del viento	3.2
155982	7	Sololá	713	San Lucas Tolimán	10	San Lucas Tolimán	10	Octubre	2023-10-28T00:00:00	2024-11-08T19:00:00	7	Dirección del viento	3.22
155983	7	Sololá	713	San Lucas Tolimán	10	San Lucas Tolimán	10	Octubre	2023-10-28T00:00:00	2024-11-08T19:00:00	1	Precipitación	0
155984	7	Sololá	713	San Lucas Tolimán	10	San Lucas Tolimán	10	Octubre	2023-10-28T00:00:00	2024-11-08T19:00:00	8	Radiación solar	0
155985	7	Sololá	713	San Lucas Tolimán	10	San Lucas Tolimán	10	Octubre	2023-10-28T00:00:00	2024-11-08T20:00:00	2	Temperatura media	18.6
155986	7	Sololá	713	San Lucas Tolimán	10	San Lucas Tolimán	10	Octubre	2023-10-28T00:00:00	2024-11-08T20:00:00	4	Temperatura máxima	19.2
155987	7	Sololá	713	San Lucas Tolimán	10	San Lucas Tolimán	10	Octubre	2023-10-28T00:00:00	2024-11-08T20:00:00	3	Temperatura mínima	18.5
155988	7	Sololá	713	San Lucas Tolimán	10	San Lucas Tolimán	10	Octubre	2023-10-28T00:00:00	2024-11-08T20:00:00	5	Humedad	60
155989	7	Sololá	713	San Lucas Tolimán	10	San Lucas Tolimán	10	Octubre	2023-10-28T00:00:00	2024-11-08T20:00:00	6	Velocidad del viento	6.4
155990	7	Sololá	713	San Lucas Tolimán	10	San Lucas Tolimán	10	Octubre	2023-10-28T00:00:00	2024-11-08T20:00:00	7	Dirección del viento	6.44
155991	7	Sololá	713	San Lucas Tolimán	10	San Lucas Tolimán	10	Octubre	2023-10-28T00:00:00	2024-11-08T20:00:00	1	Precipitación	0
155992	7	Sololá	713	San Lucas Tolimán	10	San Lucas Tolimán	10	Octubre	2023-10-28T00:00:00	2024-11-08T20:00:00	8	Radiación solar	0
155993	7	Sololá	713	San Lucas Tolimán	10	San Lucas Tolimán	10	Octubre	2023-10-28T00:00:00	2024-11-08T21:00:00	2	Temperatura media	19.6
155994	7	Sololá	713	San Lucas Tolimán	10	San Lucas Tolimán	10	Octubre	2023-10-28T00:00:00	2024-11-08T21:00:00	4	Temperatura máxima	20.1
155995	7	Sololá	713	San Lucas Tolimán	10	San Lucas Tolimán	10	Octubre	2023-10-28T00:00:00	2024-11-08T21:00:00	3	Temperatura mínima	18.5
155996	7	Sololá	713	San Lucas Tolimán	10	San Lucas Tolimán	10	Octubre	2023-10-28T00:00:00	2024-11-08T21:00:00	5	Humedad	60
155997	7	Sololá	713	San Lucas Tolimán	10	San Lucas Tolimán	10	Octubre	2023-10-28T00:00:00	2024-11-08T21:00:00	6	Velocidad del viento	4.8
155998	7	Sololá	713	San Lucas Tolimán	10	San Lucas Tolimán	10	Octubre	2023-10-28T00:00:00	2024-11-08T21:00:00	7	Dirección del viento	4.83
155999	7	Sololá	713	San Lucas Tolimán	10	San Lucas Tolimán	10	Octubre	2023-10-28T00:00:00	2024-11-08T21:00:00	1	Precipitación	0
156000	7	Sololá	713	San Lucas Tolimán	10	San Lucas Tolimán	10	Octubre	2023-10-28T00:00:00	2024-11-08T21:00:00	8	Radiación solar	0
156001	7	Sololá	713	San Lucas Tolimán	10	San Lucas Tolimán	10	Octubre	2023-10-28T00:00:00	2024-11-08T22:00:00	2	Temperatura media	20.6
156002	7	Sololá	713	San Lucas Tolimán	10	San Lucas Tolimán	10	Octubre	2023-10-28T00:00:00	2024-11-08T22:00:00	4	Temperatura máxima	20.6
156003	7	Sololá	713	San Lucas Tolimán	10	San Lucas Tolimán	10	Octubre	2023-10-28T00:00:00	2024-11-08T22:00:00	3	Temperatura mínima	19.4
156004	7	Sololá	713	San Lucas Tolimán	10	San Lucas Tolimán	10	Octubre	2023-10-28T00:00:00	2024-11-08T22:00:00	5	Humedad	77
156005	7	Sololá	713	San Lucas Tolimán	10	San Lucas Tolimán	10	Octubre	2023-10-28T00:00:00	2024-11-08T22:00:00	6	Velocidad del viento	3.2
156006	7	Sololá	713	San Lucas Tolimán	10	San Lucas Tolimán	10	Octubre	2023-10-28T00:00:00	2024-11-08T22:00:00	7	Dirección del viento	3.22
156007	7	Sololá	713	San Lucas Tolimán	10	San Lucas Tolimán	10	Octubre	2023-10-28T00:00:00	2024-11-08T22:00:00	1	Precipitación	0
156008	7	Sololá	713	San Lucas Tolimán	10	San Lucas Tolimán	10	Octubre	2023-10-28T00:00:00	2024-11-08T22:00:00	8	Radiación solar	0
156009	7	Sololá	713	San Lucas Tolimán	10	San Lucas Tolimán	10	Octubre	2023-10-28T00:00:00	2024-11-08T23:00:00	2	Temperatura media	20.4
156010	7	Sololá	713	San Lucas Tolimán	10	San Lucas Tolimán	10	Octubre	2023-10-28T00:00:00	2024-11-08T23:00:00	4	Temperatura máxima	20.6
156011	7	Sololá	713	San Lucas Tolimán	10	San Lucas Tolimán	10	Octubre	2023-10-28T00:00:00	2024-11-08T23:00:00	3	Temperatura mínima	20.1
156012	7	Sololá	713	San Lucas Tolimán	10	San Lucas Tolimán	10	Octubre	2023-10-28T00:00:00	2024-11-08T23:00:00	5	Humedad	75
156013	7	Sololá	713	San Lucas Tolimán	10	San Lucas Tolimán	10	Octubre	2023-10-28T00:00:00	2024-11-08T23:00:00	6	Velocidad del viento	3.2
156014	7	Sololá	713	San Lucas Tolimán	10	San Lucas Tolimán	10	Octubre	2023-10-28T00:00:00	2024-11-08T23:00:00	7	Dirección del viento	3.22
156015	7	Sololá	713	San Lucas Tolimán	10	San Lucas Tolimán	10	Octubre	2023-10-28T00:00:00	2024-11-08T23:00:00	1	Precipitación	0
156016	7	Sololá	713	San Lucas Tolimán	10	San Lucas Tolimán	10	Octubre	2023-10-28T00:00:00	2024-11-08T23:00:00	8	Radiación solar	0
156017	7	Sololá	713	San Lucas Tolimán	10	San Lucas Tolimán	10	Octubre	2023-10-29T00:00:00	2024-11-08T00:00:00	2	Temperatura media	20.1
156018	7	Sololá	713	San Lucas Tolimán	10	San Lucas Tolimán	10	Octubre	2023-10-29T00:00:00	2024-11-08T00:00:00	4	Temperatura máxima	20.5
156019	7	Sololá	713	San Lucas Tolimán	10	San Lucas Tolimán	10	Octubre	2023-10-29T00:00:00	2024-11-08T00:00:00	3	Temperatura mínima	19.9
156020	7	Sololá	713	San Lucas Tolimán	10	San Lucas Tolimán	10	Octubre	2023-10-29T00:00:00	2024-11-08T00:00:00	5	Humedad	74
156021	7	Sololá	713	San Lucas Tolimán	10	San Lucas Tolimán	10	Octubre	2023-10-29T00:00:00	2024-11-08T00:00:00	6	Velocidad del viento	3.2
156022	7	Sololá	713	San Lucas Tolimán	10	San Lucas Tolimán	10	Octubre	2023-10-29T00:00:00	2024-11-08T00:00:00	7	Dirección del viento	3.22
156023	7	Sololá	713	San Lucas Tolimán	10	San Lucas Tolimán	10	Octubre	2023-10-29T00:00:00	2024-11-08T00:00:00	1	Precipitación	0
156024	7	Sololá	713	San Lucas Tolimán	10	San Lucas Tolimán	10	Octubre	2023-10-29T00:00:00	2024-11-08T00:00:00	8	Radiación solar	0
156025	7	Sololá	713	San Lucas Tolimán	10	San Lucas Tolimán	10	Octubre	2023-10-29T00:00:00	2024-11-08T01:00:00	2	Temperatura media	19.8
156026	7	Sololá	713	San Lucas Tolimán	10	San Lucas Tolimán	10	Octubre	2023-10-29T00:00:00	2024-11-08T01:00:00	4	Temperatura máxima	20.1
156027	7	Sololá	713	San Lucas Tolimán	10	San Lucas Tolimán	10	Octubre	2023-10-29T00:00:00	2024-11-08T01:00:00	3	Temperatura mínima	19.1
156028	7	Sololá	713	San Lucas Tolimán	10	San Lucas Tolimán	10	Octubre	2023-10-29T00:00:00	2024-11-08T01:00:00	5	Humedad	75
156029	7	Sololá	713	San Lucas Tolimán	10	San Lucas Tolimán	10	Octubre	2023-10-29T00:00:00	2024-11-08T01:00:00	6	Velocidad del viento	4.8
156030	7	Sololá	713	San Lucas Tolimán	10	San Lucas Tolimán	10	Octubre	2023-10-29T00:00:00	2024-11-08T01:00:00	7	Dirección del viento	4.83
156031	7	Sololá	713	San Lucas Tolimán	10	San Lucas Tolimán	10	Octubre	2023-10-29T00:00:00	2024-11-08T01:00:00	1	Precipitación	0
156032	7	Sololá	713	San Lucas Tolimán	10	San Lucas Tolimán	10	Octubre	2023-10-29T00:00:00	2024-11-08T01:00:00	8	Radiación solar	0
156033	7	Sololá	713	San Lucas Tolimán	10	San Lucas Tolimán	10	Octubre	2023-10-29T00:00:00	2024-11-08T02:00:00	2	Temperatura media	19.7
156034	7	Sololá	713	San Lucas Tolimán	10	San Lucas Tolimán	10	Octubre	2023-10-29T00:00:00	2024-11-08T02:00:00	4	Temperatura máxima	19.9
156035	7	Sololá	713	San Lucas Tolimán	10	San Lucas Tolimán	10	Octubre	2023-10-29T00:00:00	2024-11-08T02:00:00	3	Temperatura mínima	19.7
156036	7	Sololá	713	San Lucas Tolimán	10	San Lucas Tolimán	10	Octubre	2023-10-29T00:00:00	2024-11-08T02:00:00	5	Humedad	76
156037	7	Sololá	713	San Lucas Tolimán	10	San Lucas Tolimán	10	Octubre	2023-10-29T00:00:00	2024-11-08T02:00:00	6	Velocidad del viento	4.8
156038	7	Sololá	713	San Lucas Tolimán	10	San Lucas Tolimán	10	Octubre	2023-10-29T00:00:00	2024-11-08T02:00:00	7	Dirección del viento	4.83
156039	7	Sololá	713	San Lucas Tolimán	10	San Lucas Tolimán	10	Octubre	2023-10-29T00:00:00	2024-11-08T02:00:00	1	Precipitación	0
156040	7	Sololá	713	San Lucas Tolimán	10	San Lucas Tolimán	10	Octubre	2023-10-29T00:00:00	2024-11-08T02:00:00	8	Radiación solar	0
156041	7	Sololá	713	San Lucas Tolimán	10	San Lucas Tolimán	10	Octubre	2023-10-29T00:00:00	2024-11-08T03:00:00	2	Temperatura media	18.7
156042	7	Sololá	713	San Lucas Tolimán	10	San Lucas Tolimán	10	Octubre	2023-10-29T00:00:00	2024-11-08T03:00:00	4	Temperatura máxima	19.7
156043	7	Sololá	713	San Lucas Tolimán	10	San Lucas Tolimán	10	Octubre	2023-10-29T00:00:00	2024-11-08T03:00:00	3	Temperatura mínima	18.7
156044	7	Sololá	713	San Lucas Tolimán	10	San Lucas Tolimán	10	Octubre	2023-10-29T00:00:00	2024-11-08T03:00:00	5	Humedad	78
156045	7	Sololá	713	San Lucas Tolimán	10	San Lucas Tolimán	10	Octubre	2023-10-29T00:00:00	2024-11-08T03:00:00	6	Velocidad del viento	3.2
156046	7	Sololá	713	San Lucas Tolimán	10	San Lucas Tolimán	10	Octubre	2023-10-29T00:00:00	2024-11-08T03:00:00	7	Dirección del viento	3.22
156047	7	Sololá	713	San Lucas Tolimán	10	San Lucas Tolimán	10	Octubre	2023-10-29T00:00:00	2024-11-08T03:00:00	1	Precipitación	0
156048	7	Sololá	713	San Lucas Tolimán	10	San Lucas Tolimán	10	Octubre	2023-10-29T00:00:00	2024-11-08T03:00:00	8	Radiación solar	0
156049	7	Sololá	713	San Lucas Tolimán	10	San Lucas Tolimán	10	Octubre	2023-10-29T00:00:00	2024-11-08T04:00:00	2	Temperatura media	18.1
156050	7	Sololá	713	San Lucas Tolimán	10	San Lucas Tolimán	10	Octubre	2023-10-29T00:00:00	2024-11-08T04:00:00	4	Temperatura máxima	19.2
156051	7	Sololá	713	San Lucas Tolimán	10	San Lucas Tolimán	10	Octubre	2023-10-29T00:00:00	2024-11-08T04:00:00	3	Temperatura mínima	18.1
156052	7	Sololá	713	San Lucas Tolimán	10	San Lucas Tolimán	10	Octubre	2023-10-29T00:00:00	2024-11-08T04:00:00	5	Humedad	82
156053	7	Sololá	713	San Lucas Tolimán	10	San Lucas Tolimán	10	Octubre	2023-10-29T00:00:00	2024-11-08T04:00:00	6	Velocidad del viento	1.6
156054	7	Sololá	713	San Lucas Tolimán	10	San Lucas Tolimán	10	Octubre	2023-10-29T00:00:00	2024-11-08T04:00:00	7	Dirección del viento	1.61
156055	7	Sololá	713	San Lucas Tolimán	10	San Lucas Tolimán	10	Octubre	2023-10-29T00:00:00	2024-11-08T04:00:00	1	Precipitación	0
156056	7	Sololá	713	San Lucas Tolimán	10	San Lucas Tolimán	10	Octubre	2023-10-29T00:00:00	2024-11-08T04:00:00	8	Radiación solar	0
156057	7	Sololá	713	San Lucas Tolimán	10	San Lucas Tolimán	10	Octubre	2023-10-29T00:00:00	2024-11-08T05:00:00	2	Temperatura media	17.1
156058	7	Sololá	713	San Lucas Tolimán	10	San Lucas Tolimán	10	Octubre	2023-10-29T00:00:00	2024-11-08T05:00:00	4	Temperatura máxima	18.1
156059	7	Sololá	713	San Lucas Tolimán	10	San Lucas Tolimán	10	Octubre	2023-10-29T00:00:00	2024-11-08T05:00:00	3	Temperatura mínima	17
156060	7	Sololá	713	San Lucas Tolimán	10	San Lucas Tolimán	10	Octubre	2023-10-29T00:00:00	2024-11-08T05:00:00	5	Humedad	85
156061	7	Sololá	713	San Lucas Tolimán	10	San Lucas Tolimán	10	Octubre	2023-10-29T00:00:00	2024-11-08T05:00:00	6	Velocidad del viento	1.6
156062	7	Sololá	713	San Lucas Tolimán	10	San Lucas Tolimán	10	Octubre	2023-10-29T00:00:00	2024-11-08T05:00:00	7	Dirección del viento	1.61
156063	7	Sololá	713	San Lucas Tolimán	10	San Lucas Tolimán	10	Octubre	2023-10-29T00:00:00	2024-11-08T05:00:00	1	Precipitación	0
156064	7	Sololá	713	San Lucas Tolimán	10	San Lucas Tolimán	10	Octubre	2023-10-29T00:00:00	2024-11-08T05:00:00	8	Radiación solar	0
156065	7	Sololá	713	San Lucas Tolimán	10	San Lucas Tolimán	10	Octubre	2023-10-29T00:00:00	2024-11-08T06:00:00	2	Temperatura media	17.4
156066	7	Sololá	713	San Lucas Tolimán	10	San Lucas Tolimán	10	Octubre	2023-10-29T00:00:00	2024-11-08T06:00:00	4	Temperatura máxima	17.8
156067	7	Sololá	713	San Lucas Tolimán	10	San Lucas Tolimán	10	Octubre	2023-10-29T00:00:00	2024-11-08T06:00:00	3	Temperatura mínima	17.1
156068	7	Sololá	713	San Lucas Tolimán	10	San Lucas Tolimán	10	Octubre	2023-10-29T00:00:00	2024-11-08T06:00:00	5	Humedad	85
156069	7	Sololá	713	San Lucas Tolimán	10	San Lucas Tolimán	10	Octubre	2023-10-29T00:00:00	2024-11-08T06:00:00	6	Velocidad del viento	1.6
156070	7	Sololá	713	San Lucas Tolimán	10	San Lucas Tolimán	10	Octubre	2023-10-29T00:00:00	2024-11-08T06:00:00	7	Dirección del viento	1.61
156071	7	Sololá	713	San Lucas Tolimán	10	San Lucas Tolimán	10	Octubre	2023-10-29T00:00:00	2024-11-08T06:00:00	1	Precipitación	0
156072	7	Sololá	713	San Lucas Tolimán	10	San Lucas Tolimán	10	Octubre	2023-10-29T00:00:00	2024-11-08T06:00:00	8	Radiación solar	0
156073	7	Sololá	713	San Lucas Tolimán	10	San Lucas Tolimán	10	Octubre	2023-10-29T00:00:00	2024-11-08T07:00:00	2	Temperatura media	18.3
156074	7	Sololá	713	San Lucas Tolimán	10	San Lucas Tolimán	10	Octubre	2023-10-29T00:00:00	2024-11-08T07:00:00	4	Temperatura máxima	18.3
156075	7	Sololá	713	San Lucas Tolimán	10	San Lucas Tolimán	10	Octubre	2023-10-29T00:00:00	2024-11-08T07:00:00	3	Temperatura mínima	17.3
156076	7	Sololá	713	San Lucas Tolimán	10	San Lucas Tolimán	10	Octubre	2023-10-29T00:00:00	2024-11-08T07:00:00	5	Humedad	80
156077	7	Sololá	713	San Lucas Tolimán	10	San Lucas Tolimán	10	Octubre	2023-10-29T00:00:00	2024-11-08T07:00:00	6	Velocidad del viento	1.6
156078	7	Sololá	713	San Lucas Tolimán	10	San Lucas Tolimán	10	Octubre	2023-10-29T00:00:00	2024-11-08T07:00:00	7	Dirección del viento	1.61
156079	7	Sololá	713	San Lucas Tolimán	10	San Lucas Tolimán	10	Octubre	2023-10-29T00:00:00	2024-11-08T07:00:00	1	Precipitación	0
156080	7	Sololá	713	San Lucas Tolimán	10	San Lucas Tolimán	10	Octubre	2023-10-29T00:00:00	2024-11-08T07:00:00	8	Radiación solar	17
156081	7	Sololá	713	San Lucas Tolimán	10	San Lucas Tolimán	10	Octubre	2023-10-29T00:00:00	2024-11-08T08:00:00	2	Temperatura media	21.2
156082	7	Sololá	713	San Lucas Tolimán	10	San Lucas Tolimán	10	Octubre	2023-10-29T00:00:00	2024-11-08T08:00:00	4	Temperatura máxima	21.2
156083	7	Sololá	713	San Lucas Tolimán	10	San Lucas Tolimán	10	Octubre	2023-10-29T00:00:00	2024-11-08T08:00:00	3	Temperatura mínima	18.3
156084	7	Sololá	713	San Lucas Tolimán	10	San Lucas Tolimán	10	Octubre	2023-10-29T00:00:00	2024-11-08T08:00:00	5	Humedad	74
156085	7	Sololá	713	San Lucas Tolimán	10	San Lucas Tolimán	10	Octubre	2023-10-29T00:00:00	2024-11-08T08:00:00	6	Velocidad del viento	4.8
156086	7	Sololá	713	San Lucas Tolimán	10	San Lucas Tolimán	10	Octubre	2023-10-29T00:00:00	2024-11-08T08:00:00	7	Dirección del viento	4.83
156087	7	Sololá	713	San Lucas Tolimán	10	San Lucas Tolimán	10	Octubre	2023-10-29T00:00:00	2024-11-08T08:00:00	1	Precipitación	0
156088	7	Sololá	713	San Lucas Tolimán	10	San Lucas Tolimán	10	Octubre	2023-10-29T00:00:00	2024-11-08T08:00:00	8	Radiación solar	117
156089	7	Sololá	713	San Lucas Tolimán	10	San Lucas Tolimán	10	Octubre	2023-10-29T00:00:00	2024-11-08T09:00:00	2	Temperatura media	19.9
156090	7	Sololá	713	San Lucas Tolimán	10	San Lucas Tolimán	10	Octubre	2023-10-29T00:00:00	2024-11-08T09:00:00	4	Temperatura máxima	21.9
156091	7	Sololá	713	San Lucas Tolimán	10	San Lucas Tolimán	10	Octubre	2023-10-29T00:00:00	2024-11-08T09:00:00	3	Temperatura mínima	19.7
156092	7	Sololá	713	San Lucas Tolimán	10	San Lucas Tolimán	10	Octubre	2023-10-29T00:00:00	2024-11-08T09:00:00	5	Humedad	87
156093	7	Sololá	713	San Lucas Tolimán	10	San Lucas Tolimán	10	Octubre	2023-10-29T00:00:00	2024-11-08T09:00:00	6	Velocidad del viento	8
156094	7	Sololá	713	San Lucas Tolimán	10	San Lucas Tolimán	10	Octubre	2023-10-29T00:00:00	2024-11-08T09:00:00	7	Dirección del viento	8.05
156095	7	Sololá	713	San Lucas Tolimán	10	San Lucas Tolimán	10	Octubre	2023-10-29T00:00:00	2024-11-08T09:00:00	1	Precipitación	0
156096	7	Sololá	713	San Lucas Tolimán	10	San Lucas Tolimán	10	Octubre	2023-10-29T00:00:00	2024-11-08T09:00:00	8	Radiación solar	300
156097	7	Sololá	713	San Lucas Tolimán	10	San Lucas Tolimán	10	Octubre	2023-10-29T00:00:00	2024-11-08T10:00:00	2	Temperatura media	24.8
156098	7	Sololá	713	San Lucas Tolimán	10	San Lucas Tolimán	10	Octubre	2023-10-29T00:00:00	2024-11-08T10:00:00	4	Temperatura máxima	24.8
156099	7	Sololá	713	San Lucas Tolimán	10	San Lucas Tolimán	10	Octubre	2023-10-29T00:00:00	2024-11-08T10:00:00	3	Temperatura mínima	20
156100	7	Sololá	713	San Lucas Tolimán	10	San Lucas Tolimán	10	Octubre	2023-10-29T00:00:00	2024-11-08T10:00:00	5	Humedad	63
156101	7	Sololá	713	San Lucas Tolimán	10	San Lucas Tolimán	10	Octubre	2023-10-29T00:00:00	2024-11-08T10:00:00	6	Velocidad del viento	4.8
156102	7	Sololá	713	San Lucas Tolimán	10	San Lucas Tolimán	10	Octubre	2023-10-29T00:00:00	2024-11-08T10:00:00	7	Dirección del viento	4.83
156103	7	Sololá	713	San Lucas Tolimán	10	San Lucas Tolimán	10	Octubre	2023-10-29T00:00:00	2024-11-08T10:00:00	1	Precipitación	0
156104	7	Sololá	713	San Lucas Tolimán	10	San Lucas Tolimán	10	Octubre	2023-10-29T00:00:00	2024-11-08T10:00:00	8	Radiación solar	311
156105	7	Sololá	713	San Lucas Tolimán	10	San Lucas Tolimán	10	Octubre	2023-10-29T00:00:00	2024-11-08T11:00:00	2	Temperatura media	22.6
156106	7	Sololá	713	San Lucas Tolimán	10	San Lucas Tolimán	10	Octubre	2023-10-29T00:00:00	2024-11-08T11:00:00	4	Temperatura máxima	25.3
156107	7	Sololá	713	San Lucas Tolimán	10	San Lucas Tolimán	10	Octubre	2023-10-29T00:00:00	2024-11-08T11:00:00	3	Temperatura mínima	22.5
156108	7	Sololá	713	San Lucas Tolimán	10	San Lucas Tolimán	10	Octubre	2023-10-29T00:00:00	2024-11-08T11:00:00	5	Humedad	81
156109	7	Sololá	713	San Lucas Tolimán	10	San Lucas Tolimán	10	Octubre	2023-10-29T00:00:00	2024-11-08T11:00:00	6	Velocidad del viento	8
156110	7	Sololá	713	San Lucas Tolimán	10	San Lucas Tolimán	10	Octubre	2023-10-29T00:00:00	2024-11-08T11:00:00	7	Dirección del viento	8.05
156111	7	Sololá	713	San Lucas Tolimán	10	San Lucas Tolimán	10	Octubre	2023-10-29T00:00:00	2024-11-08T11:00:00	1	Precipitación	0
156112	7	Sololá	713	San Lucas Tolimán	10	San Lucas Tolimán	10	Octubre	2023-10-29T00:00:00	2024-11-08T11:00:00	8	Radiación solar	268
156113	7	Sololá	713	San Lucas Tolimán	10	San Lucas Tolimán	10	Octubre	2023-10-29T00:00:00	2024-11-08T12:00:00	2	Temperatura media	23.9
156114	7	Sololá	713	San Lucas Tolimán	10	San Lucas Tolimán	10	Octubre	2023-10-29T00:00:00	2024-11-08T12:00:00	4	Temperatura máxima	25.2
156115	7	Sololá	713	San Lucas Tolimán	10	San Lucas Tolimán	10	Octubre	2023-10-29T00:00:00	2024-11-08T12:00:00	3	Temperatura mínima	22.6
156116	7	Sololá	713	San Lucas Tolimán	10	San Lucas Tolimán	10	Octubre	2023-10-29T00:00:00	2024-11-08T12:00:00	5	Humedad	79
156117	7	Sololá	713	San Lucas Tolimán	10	San Lucas Tolimán	10	Octubre	2023-10-29T00:00:00	2024-11-08T12:00:00	6	Velocidad del viento	6.4
156118	7	Sololá	713	San Lucas Tolimán	10	San Lucas Tolimán	10	Octubre	2023-10-29T00:00:00	2024-11-08T12:00:00	7	Dirección del viento	6.44
156119	7	Sololá	713	San Lucas Tolimán	10	San Lucas Tolimán	10	Octubre	2023-10-29T00:00:00	2024-11-08T12:00:00	1	Precipitación	0
156120	7	Sololá	713	San Lucas Tolimán	10	San Lucas Tolimán	10	Octubre	2023-10-29T00:00:00	2024-11-08T12:00:00	8	Radiación solar	176
156121	7	Sololá	713	San Lucas Tolimán	10	San Lucas Tolimán	10	Octubre	2023-10-29T00:00:00	2024-11-08T13:00:00	2	Temperatura media	22.7
156122	7	Sololá	713	San Lucas Tolimán	10	San Lucas Tolimán	10	Octubre	2023-10-29T00:00:00	2024-11-08T13:00:00	4	Temperatura máxima	23.8
156123	7	Sololá	713	San Lucas Tolimán	10	San Lucas Tolimán	10	Octubre	2023-10-29T00:00:00	2024-11-08T13:00:00	3	Temperatura mínima	21.8
156124	7	Sololá	713	San Lucas Tolimán	10	San Lucas Tolimán	10	Octubre	2023-10-29T00:00:00	2024-11-08T13:00:00	5	Humedad	81
156125	7	Sololá	713	San Lucas Tolimán	10	San Lucas Tolimán	10	Octubre	2023-10-29T00:00:00	2024-11-08T13:00:00	6	Velocidad del viento	11.3
156126	7	Sololá	713	San Lucas Tolimán	10	San Lucas Tolimán	10	Octubre	2023-10-29T00:00:00	2024-11-08T13:00:00	7	Dirección del viento	11.27
156127	7	Sololá	713	San Lucas Tolimán	10	San Lucas Tolimán	10	Octubre	2023-10-29T00:00:00	2024-11-08T13:00:00	1	Precipitación	0
156128	7	Sololá	713	San Lucas Tolimán	10	San Lucas Tolimán	10	Octubre	2023-10-29T00:00:00	2024-11-08T13:00:00	8	Radiación solar	128
156129	7	Sololá	713	San Lucas Tolimán	10	San Lucas Tolimán	10	Octubre	2023-10-29T00:00:00	2024-11-08T14:00:00	2	Temperatura media	21.1
156130	7	Sololá	713	San Lucas Tolimán	10	San Lucas Tolimán	10	Octubre	2023-10-29T00:00:00	2024-11-08T14:00:00	4	Temperatura máxima	23.7
156131	7	Sololá	713	San Lucas Tolimán	10	San Lucas Tolimán	10	Octubre	2023-10-29T00:00:00	2024-11-08T14:00:00	3	Temperatura mínima	21
156132	7	Sololá	713	San Lucas Tolimán	10	San Lucas Tolimán	10	Octubre	2023-10-29T00:00:00	2024-11-08T14:00:00	5	Humedad	86
156133	7	Sololá	713	San Lucas Tolimán	10	San Lucas Tolimán	10	Octubre	2023-10-29T00:00:00	2024-11-08T14:00:00	6	Velocidad del viento	11.3
156134	7	Sololá	713	San Lucas Tolimán	10	San Lucas Tolimán	10	Octubre	2023-10-29T00:00:00	2024-11-08T14:00:00	7	Dirección del viento	11.27
156135	7	Sololá	713	San Lucas Tolimán	10	San Lucas Tolimán	10	Octubre	2023-10-29T00:00:00	2024-11-08T14:00:00	1	Precipitación	0
156136	7	Sololá	713	San Lucas Tolimán	10	San Lucas Tolimán	10	Octubre	2023-10-29T00:00:00	2024-11-08T14:00:00	8	Radiación solar	100
156137	7	Sololá	713	San Lucas Tolimán	10	San Lucas Tolimán	10	Octubre	2023-10-29T00:00:00	2024-11-08T15:00:00	2	Temperatura media	22.8
156138	7	Sololá	713	San Lucas Tolimán	10	San Lucas Tolimán	10	Octubre	2023-10-29T00:00:00	2024-11-08T15:00:00	4	Temperatura máxima	22.8
156139	7	Sololá	713	San Lucas Tolimán	10	San Lucas Tolimán	10	Octubre	2023-10-29T00:00:00	2024-11-08T15:00:00	3	Temperatura mínima	20.8
156140	7	Sololá	713	San Lucas Tolimán	10	San Lucas Tolimán	10	Octubre	2023-10-29T00:00:00	2024-11-08T15:00:00	5	Humedad	78
156141	7	Sololá	713	San Lucas Tolimán	10	San Lucas Tolimán	10	Octubre	2023-10-29T00:00:00	2024-11-08T15:00:00	6	Velocidad del viento	8
156142	7	Sololá	713	San Lucas Tolimán	10	San Lucas Tolimán	10	Octubre	2023-10-29T00:00:00	2024-11-08T15:00:00	7	Dirección del viento	8.05
156143	7	Sololá	713	San Lucas Tolimán	10	San Lucas Tolimán	10	Octubre	2023-10-29T00:00:00	2024-11-08T15:00:00	1	Precipitación	0
156144	7	Sololá	713	San Lucas Tolimán	10	San Lucas Tolimán	10	Octubre	2023-10-29T00:00:00	2024-11-08T15:00:00	8	Radiación solar	265
156145	7	Sololá	713	San Lucas Tolimán	10	San Lucas Tolimán	10	Octubre	2023-10-29T00:00:00	2024-11-08T16:00:00	2	Temperatura media	20.2
156146	7	Sololá	713	San Lucas Tolimán	10	San Lucas Tolimán	10	Octubre	2023-10-29T00:00:00	2024-11-08T16:00:00	4	Temperatura máxima	22.8
156147	7	Sololá	713	San Lucas Tolimán	10	San Lucas Tolimán	10	Octubre	2023-10-29T00:00:00	2024-11-08T16:00:00	3	Temperatura mínima	20.1
156148	7	Sololá	713	San Lucas Tolimán	10	San Lucas Tolimán	10	Octubre	2023-10-29T00:00:00	2024-11-08T16:00:00	5	Humedad	88
156149	7	Sololá	713	San Lucas Tolimán	10	San Lucas Tolimán	10	Octubre	2023-10-29T00:00:00	2024-11-08T16:00:00	6	Velocidad del viento	6.4
156150	7	Sololá	713	San Lucas Tolimán	10	San Lucas Tolimán	10	Octubre	2023-10-29T00:00:00	2024-11-08T16:00:00	7	Dirección del viento	6.44
156151	7	Sololá	713	San Lucas Tolimán	10	San Lucas Tolimán	10	Octubre	2023-10-29T00:00:00	2024-11-08T16:00:00	1	Precipitación	0
156152	7	Sololá	713	San Lucas Tolimán	10	San Lucas Tolimán	10	Octubre	2023-10-29T00:00:00	2024-11-08T16:00:00	8	Radiación solar	157
156153	7	Sololá	713	San Lucas Tolimán	10	San Lucas Tolimán	10	Octubre	2023-10-29T00:00:00	2024-11-08T17:00:00	2	Temperatura media	21.2
156154	7	Sololá	713	San Lucas Tolimán	10	San Lucas Tolimán	10	Octubre	2023-10-29T00:00:00	2024-11-08T17:00:00	4	Temperatura máxima	21.6
156155	7	Sololá	713	San Lucas Tolimán	10	San Lucas Tolimán	10	Octubre	2023-10-29T00:00:00	2024-11-08T17:00:00	3	Temperatura mínima	20.2
156156	7	Sololá	713	San Lucas Tolimán	10	San Lucas Tolimán	10	Octubre	2023-10-29T00:00:00	2024-11-08T17:00:00	5	Humedad	72
156157	7	Sololá	713	San Lucas Tolimán	10	San Lucas Tolimán	10	Octubre	2023-10-29T00:00:00	2024-11-08T17:00:00	6	Velocidad del viento	4.8
156158	7	Sololá	713	San Lucas Tolimán	10	San Lucas Tolimán	10	Octubre	2023-10-29T00:00:00	2024-11-08T17:00:00	7	Dirección del viento	4.83
156159	7	Sololá	713	San Lucas Tolimán	10	San Lucas Tolimán	10	Octubre	2023-10-29T00:00:00	2024-11-08T17:00:00	1	Precipitación	0
156160	7	Sololá	713	San Lucas Tolimán	10	San Lucas Tolimán	10	Octubre	2023-10-29T00:00:00	2024-11-08T17:00:00	8	Radiación solar	36
156161	7	Sololá	713	San Lucas Tolimán	10	San Lucas Tolimán	10	Octubre	2023-10-29T00:00:00	2024-11-08T18:00:00	2	Temperatura media	19.3
156162	7	Sololá	713	San Lucas Tolimán	10	San Lucas Tolimán	10	Octubre	2023-10-29T00:00:00	2024-11-08T18:00:00	4	Temperatura máxima	21.2
156163	7	Sololá	713	San Lucas Tolimán	10	San Lucas Tolimán	10	Octubre	2023-10-29T00:00:00	2024-11-08T18:00:00	3	Temperatura mínima	19.3
156164	7	Sololá	713	San Lucas Tolimán	10	San Lucas Tolimán	10	Octubre	2023-10-29T00:00:00	2024-11-08T18:00:00	5	Humedad	89
156165	7	Sololá	713	San Lucas Tolimán	10	San Lucas Tolimán	10	Octubre	2023-10-29T00:00:00	2024-11-08T18:00:00	6	Velocidad del viento	4.8
156166	7	Sololá	713	San Lucas Tolimán	10	San Lucas Tolimán	10	Octubre	2023-10-29T00:00:00	2024-11-08T18:00:00	7	Dirección del viento	4.83
156167	7	Sololá	713	San Lucas Tolimán	10	San Lucas Tolimán	10	Octubre	2023-10-29T00:00:00	2024-11-08T18:00:00	1	Precipitación	0
156168	7	Sololá	713	San Lucas Tolimán	10	San Lucas Tolimán	10	Octubre	2023-10-29T00:00:00	2024-11-08T18:00:00	8	Radiación solar	11
156169	7	Sololá	713	San Lucas Tolimán	10	San Lucas Tolimán	10	Octubre	2023-10-29T00:00:00	2024-11-08T19:00:00	2	Temperatura media	19.7
156170	7	Sololá	713	San Lucas Tolimán	10	San Lucas Tolimán	10	Octubre	2023-10-29T00:00:00	2024-11-08T19:00:00	4	Temperatura máxima	19.7
156171	7	Sololá	713	San Lucas Tolimán	10	San Lucas Tolimán	10	Octubre	2023-10-29T00:00:00	2024-11-08T19:00:00	3	Temperatura mínima	19.2
156172	7	Sololá	713	San Lucas Tolimán	10	San Lucas Tolimán	10	Octubre	2023-10-29T00:00:00	2024-11-08T19:00:00	5	Humedad	82
156173	7	Sololá	713	San Lucas Tolimán	10	San Lucas Tolimán	10	Octubre	2023-10-29T00:00:00	2024-11-08T19:00:00	6	Velocidad del viento	3.2
156174	7	Sololá	713	San Lucas Tolimán	10	San Lucas Tolimán	10	Octubre	2023-10-29T00:00:00	2024-11-08T19:00:00	7	Dirección del viento	3.22
156175	7	Sololá	713	San Lucas Tolimán	10	San Lucas Tolimán	10	Octubre	2023-10-29T00:00:00	2024-11-08T19:00:00	1	Precipitación	0
156176	7	Sololá	713	San Lucas Tolimán	10	San Lucas Tolimán	10	Octubre	2023-10-29T00:00:00	2024-11-08T19:00:00	8	Radiación solar	0
156177	7	Sololá	713	San Lucas Tolimán	10	San Lucas Tolimán	10	Octubre	2023-10-29T00:00:00	2024-11-08T20:00:00	2	Temperatura media	18.3
156178	7	Sololá	713	San Lucas Tolimán	10	San Lucas Tolimán	10	Octubre	2023-10-29T00:00:00	2024-11-08T20:00:00	4	Temperatura máxima	19.8
156179	7	Sololá	713	San Lucas Tolimán	10	San Lucas Tolimán	10	Octubre	2023-10-29T00:00:00	2024-11-08T20:00:00	3	Temperatura mínima	18.3
156180	7	Sololá	713	San Lucas Tolimán	10	San Lucas Tolimán	10	Octubre	2023-10-29T00:00:00	2024-11-08T20:00:00	5	Humedad	94
156181	7	Sololá	713	San Lucas Tolimán	10	San Lucas Tolimán	10	Octubre	2023-10-29T00:00:00	2024-11-08T20:00:00	6	Velocidad del viento	4.8
156182	7	Sololá	713	San Lucas Tolimán	10	San Lucas Tolimán	10	Octubre	2023-10-29T00:00:00	2024-11-08T20:00:00	7	Dirección del viento	4.83
156183	7	Sololá	713	San Lucas Tolimán	10	San Lucas Tolimán	10	Octubre	2023-10-29T00:00:00	2024-11-08T20:00:00	1	Precipitación	0
156184	7	Sololá	713	San Lucas Tolimán	10	San Lucas Tolimán	10	Octubre	2023-10-29T00:00:00	2024-11-08T20:00:00	8	Radiación solar	0
156185	7	Sololá	713	San Lucas Tolimán	10	San Lucas Tolimán	10	Octubre	2023-10-29T00:00:00	2024-11-08T21:00:00	2	Temperatura media	17.8
156186	7	Sololá	713	San Lucas Tolimán	10	San Lucas Tolimán	10	Octubre	2023-10-29T00:00:00	2024-11-08T21:00:00	4	Temperatura máxima	18.3
156187	7	Sololá	713	San Lucas Tolimán	10	San Lucas Tolimán	10	Octubre	2023-10-29T00:00:00	2024-11-08T21:00:00	3	Temperatura mínima	17.8
156188	7	Sololá	713	San Lucas Tolimán	10	San Lucas Tolimán	10	Octubre	2023-10-29T00:00:00	2024-11-08T21:00:00	5	Humedad	94
156189	7	Sololá	713	San Lucas Tolimán	10	San Lucas Tolimán	10	Octubre	2023-10-29T00:00:00	2024-11-08T21:00:00	6	Velocidad del viento	3.2
156190	7	Sololá	713	San Lucas Tolimán	10	San Lucas Tolimán	10	Octubre	2023-10-29T00:00:00	2024-11-08T21:00:00	7	Dirección del viento	3.22
156191	7	Sololá	713	San Lucas Tolimán	10	San Lucas Tolimán	10	Octubre	2023-10-29T00:00:00	2024-11-08T21:00:00	1	Precipitación	0
156192	7	Sololá	713	San Lucas Tolimán	10	San Lucas Tolimán	10	Octubre	2023-10-29T00:00:00	2024-11-08T21:00:00	8	Radiación solar	0
156193	7	Sololá	713	San Lucas Tolimán	10	San Lucas Tolimán	10	Octubre	2023-10-29T00:00:00	2024-11-08T22:00:00	2	Temperatura media	18.4
156194	7	Sololá	713	San Lucas Tolimán	10	San Lucas Tolimán	10	Octubre	2023-10-29T00:00:00	2024-11-08T22:00:00	4	Temperatura máxima	18.5
156195	7	Sololá	713	San Lucas Tolimán	10	San Lucas Tolimán	10	Octubre	2023-10-29T00:00:00	2024-11-08T22:00:00	3	Temperatura mínima	17.6
156196	7	Sololá	713	San Lucas Tolimán	10	San Lucas Tolimán	10	Octubre	2023-10-29T00:00:00	2024-11-08T22:00:00	5	Humedad	88
156197	7	Sololá	713	San Lucas Tolimán	10	San Lucas Tolimán	10	Octubre	2023-10-29T00:00:00	2024-11-08T22:00:00	6	Velocidad del viento	3.2
156198	7	Sololá	713	San Lucas Tolimán	10	San Lucas Tolimán	10	Octubre	2023-10-29T00:00:00	2024-11-08T22:00:00	7	Dirección del viento	3.22
156199	7	Sololá	713	San Lucas Tolimán	10	San Lucas Tolimán	10	Octubre	2023-10-29T00:00:00	2024-11-08T22:00:00	1	Precipitación	0
156200	7	Sololá	713	San Lucas Tolimán	10	San Lucas Tolimán	10	Octubre	2023-10-29T00:00:00	2024-11-08T22:00:00	8	Radiación solar	0
156201	7	Sololá	713	San Lucas Tolimán	10	San Lucas Tolimán	10	Octubre	2023-10-29T00:00:00	2024-11-08T23:00:00	2	Temperatura media	17.6
156202	7	Sololá	713	San Lucas Tolimán	10	San Lucas Tolimán	10	Octubre	2023-10-29T00:00:00	2024-11-08T23:00:00	4	Temperatura máxima	18.4
156203	7	Sololá	713	San Lucas Tolimán	10	San Lucas Tolimán	10	Octubre	2023-10-29T00:00:00	2024-11-08T23:00:00	3	Temperatura mínima	17.6
156204	7	Sololá	713	San Lucas Tolimán	10	San Lucas Tolimán	10	Octubre	2023-10-29T00:00:00	2024-11-08T23:00:00	5	Humedad	93
156205	7	Sololá	713	San Lucas Tolimán	10	San Lucas Tolimán	10	Octubre	2023-10-29T00:00:00	2024-11-08T23:00:00	6	Velocidad del viento	3.2
156206	7	Sololá	713	San Lucas Tolimán	10	San Lucas Tolimán	10	Octubre	2023-10-29T00:00:00	2024-11-08T23:00:00	7	Dirección del viento	3.22
156207	7	Sololá	713	San Lucas Tolimán	10	San Lucas Tolimán	10	Octubre	2023-10-29T00:00:00	2024-11-08T23:00:00	1	Precipitación	0
156208	7	Sololá	713	San Lucas Tolimán	10	San Lucas Tolimán	10	Octubre	2023-10-29T00:00:00	2024-11-08T23:00:00	8	Radiación solar	0
156209	7	Sololá	713	San Lucas Tolimán	10	San Lucas Tolimán	10	Octubre	2023-10-30T00:00:00	2024-11-08T00:00:00	2	Temperatura media	18.2
156210	7	Sololá	713	San Lucas Tolimán	10	San Lucas Tolimán	10	Octubre	2023-10-30T00:00:00	2024-11-08T00:00:00	4	Temperatura máxima	18.2
156211	7	Sololá	713	San Lucas Tolimán	10	San Lucas Tolimán	10	Octubre	2023-10-30T00:00:00	2024-11-08T00:00:00	3	Temperatura mínima	17.6
156212	7	Sololá	713	San Lucas Tolimán	10	San Lucas Tolimán	10	Octubre	2023-10-30T00:00:00	2024-11-08T00:00:00	5	Humedad	89
156213	7	Sololá	713	San Lucas Tolimán	10	San Lucas Tolimán	10	Octubre	2023-10-30T00:00:00	2024-11-08T00:00:00	6	Velocidad del viento	0
156214	7	Sololá	713	San Lucas Tolimán	10	San Lucas Tolimán	10	Octubre	2023-10-30T00:00:00	2024-11-08T00:00:00	7	Dirección del viento	0
156215	7	Sololá	713	San Lucas Tolimán	10	San Lucas Tolimán	10	Octubre	2023-10-30T00:00:00	2024-11-08T00:00:00	1	Precipitación	0
156216	7	Sololá	713	San Lucas Tolimán	10	San Lucas Tolimán	10	Octubre	2023-10-30T00:00:00	2024-11-08T00:00:00	8	Radiación solar	0
156217	7	Sololá	713	San Lucas Tolimán	10	San Lucas Tolimán	10	Octubre	2023-10-30T00:00:00	2024-11-08T01:00:00	2	Temperatura media	17.4
156218	7	Sololá	713	San Lucas Tolimán	10	San Lucas Tolimán	10	Octubre	2023-10-30T00:00:00	2024-11-08T01:00:00	4	Temperatura máxima	18.2
156219	7	Sololá	713	San Lucas Tolimán	10	San Lucas Tolimán	10	Octubre	2023-10-30T00:00:00	2024-11-08T01:00:00	3	Temperatura mínima	17.3
156220	7	Sololá	713	San Lucas Tolimán	10	San Lucas Tolimán	10	Octubre	2023-10-30T00:00:00	2024-11-08T01:00:00	5	Humedad	95
156221	7	Sololá	713	San Lucas Tolimán	10	San Lucas Tolimán	10	Octubre	2023-10-30T00:00:00	2024-11-08T01:00:00	6	Velocidad del viento	6.4
156222	7	Sololá	713	San Lucas Tolimán	10	San Lucas Tolimán	10	Octubre	2023-10-30T00:00:00	2024-11-08T01:00:00	7	Dirección del viento	6.44
156223	7	Sololá	713	San Lucas Tolimán	10	San Lucas Tolimán	10	Octubre	2023-10-30T00:00:00	2024-11-08T01:00:00	1	Precipitación	0
156224	7	Sololá	713	San Lucas Tolimán	10	San Lucas Tolimán	10	Octubre	2023-10-30T00:00:00	2024-11-08T01:00:00	8	Radiación solar	0
156225	7	Sololá	713	San Lucas Tolimán	10	San Lucas Tolimán	10	Octubre	2023-10-30T00:00:00	2024-11-08T02:00:00	2	Temperatura media	17.5
156226	7	Sololá	713	San Lucas Tolimán	10	San Lucas Tolimán	10	Octubre	2023-10-30T00:00:00	2024-11-08T02:00:00	4	Temperatura máxima	17.5
156227	7	Sololá	713	San Lucas Tolimán	10	San Lucas Tolimán	10	Octubre	2023-10-30T00:00:00	2024-11-08T02:00:00	3	Temperatura mínima	17.3
156228	7	Sololá	713	San Lucas Tolimán	10	San Lucas Tolimán	10	Octubre	2023-10-30T00:00:00	2024-11-08T02:00:00	5	Humedad	90
156229	7	Sololá	713	San Lucas Tolimán	10	San Lucas Tolimán	10	Octubre	2023-10-30T00:00:00	2024-11-08T02:00:00	6	Velocidad del viento	0
156230	7	Sololá	713	San Lucas Tolimán	10	San Lucas Tolimán	10	Octubre	2023-10-30T00:00:00	2024-11-08T02:00:00	7	Dirección del viento	0
156231	7	Sololá	713	San Lucas Tolimán	10	San Lucas Tolimán	10	Octubre	2023-10-30T00:00:00	2024-11-08T02:00:00	1	Precipitación	0
156232	7	Sololá	713	San Lucas Tolimán	10	San Lucas Tolimán	10	Octubre	2023-10-30T00:00:00	2024-11-08T02:00:00	8	Radiación solar	0
156233	7	Sololá	713	San Lucas Tolimán	10	San Lucas Tolimán	10	Octubre	2023-10-30T00:00:00	2024-11-08T03:00:00	2	Temperatura media	17.1
156234	7	Sololá	713	San Lucas Tolimán	10	San Lucas Tolimán	10	Octubre	2023-10-30T00:00:00	2024-11-08T03:00:00	4	Temperatura máxima	17.5
156235	7	Sololá	713	San Lucas Tolimán	10	San Lucas Tolimán	10	Octubre	2023-10-30T00:00:00	2024-11-08T03:00:00	3	Temperatura mínima	17.1
156236	7	Sololá	713	San Lucas Tolimán	10	San Lucas Tolimán	10	Octubre	2023-10-30T00:00:00	2024-11-08T03:00:00	5	Humedad	90
156237	7	Sololá	713	San Lucas Tolimán	10	San Lucas Tolimán	10	Octubre	2023-10-30T00:00:00	2024-11-08T03:00:00	6	Velocidad del viento	0
156238	7	Sololá	713	San Lucas Tolimán	10	San Lucas Tolimán	10	Octubre	2023-10-30T00:00:00	2024-11-08T03:00:00	7	Dirección del viento	0
156239	7	Sololá	713	San Lucas Tolimán	10	San Lucas Tolimán	10	Octubre	2023-10-30T00:00:00	2024-11-08T03:00:00	1	Precipitación	0
156240	7	Sololá	713	San Lucas Tolimán	10	San Lucas Tolimán	10	Octubre	2023-10-30T00:00:00	2024-11-08T03:00:00	8	Radiación solar	0
156241	7	Sololá	713	San Lucas Tolimán	10	San Lucas Tolimán	10	Octubre	2023-10-30T00:00:00	2024-11-08T04:00:00	2	Temperatura media	17.3
156242	7	Sololá	713	San Lucas Tolimán	10	San Lucas Tolimán	10	Octubre	2023-10-30T00:00:00	2024-11-08T04:00:00	4	Temperatura máxima	17.3
156243	7	Sololá	713	San Lucas Tolimán	10	San Lucas Tolimán	10	Octubre	2023-10-30T00:00:00	2024-11-08T04:00:00	3	Temperatura mínima	16.9
156244	7	Sololá	713	San Lucas Tolimán	10	San Lucas Tolimán	10	Octubre	2023-10-30T00:00:00	2024-11-08T04:00:00	5	Humedad	88
156245	7	Sololá	713	San Lucas Tolimán	10	San Lucas Tolimán	10	Octubre	2023-10-30T00:00:00	2024-11-08T04:00:00	6	Velocidad del viento	0
156246	7	Sololá	713	San Lucas Tolimán	10	San Lucas Tolimán	10	Octubre	2023-10-30T00:00:00	2024-11-08T04:00:00	7	Dirección del viento	0
156247	7	Sololá	713	San Lucas Tolimán	10	San Lucas Tolimán	10	Octubre	2023-10-30T00:00:00	2024-11-08T04:00:00	1	Precipitación	0
156248	7	Sololá	713	San Lucas Tolimán	10	San Lucas Tolimán	10	Octubre	2023-10-30T00:00:00	2024-11-08T04:00:00	8	Radiación solar	0
156249	7	Sololá	713	San Lucas Tolimán	10	San Lucas Tolimán	10	Octubre	2023-10-30T00:00:00	2024-11-08T05:00:00	2	Temperatura media	17.3
156250	7	Sololá	713	San Lucas Tolimán	10	San Lucas Tolimán	10	Octubre	2023-10-30T00:00:00	2024-11-08T05:00:00	4	Temperatura máxima	18.2
156251	7	Sololá	713	San Lucas Tolimán	10	San Lucas Tolimán	10	Octubre	2023-10-30T00:00:00	2024-11-08T05:00:00	3	Temperatura mínima	17.3
156252	7	Sololá	713	San Lucas Tolimán	10	San Lucas Tolimán	10	Octubre	2023-10-30T00:00:00	2024-11-08T05:00:00	5	Humedad	92
156253	7	Sololá	713	San Lucas Tolimán	10	San Lucas Tolimán	10	Octubre	2023-10-30T00:00:00	2024-11-08T05:00:00	6	Velocidad del viento	4.8
156254	7	Sololá	713	San Lucas Tolimán	10	San Lucas Tolimán	10	Octubre	2023-10-30T00:00:00	2024-11-08T05:00:00	7	Dirección del viento	4.83
156255	7	Sololá	713	San Lucas Tolimán	10	San Lucas Tolimán	10	Octubre	2023-10-30T00:00:00	2024-11-08T05:00:00	1	Precipitación	0
156256	7	Sololá	713	San Lucas Tolimán	10	San Lucas Tolimán	10	Octubre	2023-10-30T00:00:00	2024-11-08T05:00:00	8	Radiación solar	0
156257	7	Sololá	713	San Lucas Tolimán	10	San Lucas Tolimán	10	Octubre	2023-10-30T00:00:00	2024-11-08T06:00:00	2	Temperatura media	17.2
156258	7	Sololá	713	San Lucas Tolimán	10	San Lucas Tolimán	10	Octubre	2023-10-30T00:00:00	2024-11-08T06:00:00	4	Temperatura máxima	17.5
156259	7	Sololá	713	San Lucas Tolimán	10	San Lucas Tolimán	10	Octubre	2023-10-30T00:00:00	2024-11-08T06:00:00	3	Temperatura mínima	17.1
156260	7	Sololá	713	San Lucas Tolimán	10	San Lucas Tolimán	10	Octubre	2023-10-30T00:00:00	2024-11-08T06:00:00	5	Humedad	92
156261	7	Sololá	713	San Lucas Tolimán	10	San Lucas Tolimán	10	Octubre	2023-10-30T00:00:00	2024-11-08T06:00:00	6	Velocidad del viento	3.2
156262	7	Sololá	713	San Lucas Tolimán	10	San Lucas Tolimán	10	Octubre	2023-10-30T00:00:00	2024-11-08T06:00:00	7	Dirección del viento	3.22
156263	7	Sololá	713	San Lucas Tolimán	10	San Lucas Tolimán	10	Octubre	2023-10-30T00:00:00	2024-11-08T06:00:00	1	Precipitación	0
156264	7	Sololá	713	San Lucas Tolimán	10	San Lucas Tolimán	10	Octubre	2023-10-30T00:00:00	2024-11-08T06:00:00	8	Radiación solar	0
156265	7	Sololá	713	San Lucas Tolimán	10	San Lucas Tolimán	10	Octubre	2023-10-30T00:00:00	2024-11-08T07:00:00	2	Temperatura media	17.3
156266	7	Sololá	713	San Lucas Tolimán	10	San Lucas Tolimán	10	Octubre	2023-10-30T00:00:00	2024-11-08T07:00:00	4	Temperatura máxima	17.3
156267	7	Sololá	713	San Lucas Tolimán	10	San Lucas Tolimán	10	Octubre	2023-10-30T00:00:00	2024-11-08T07:00:00	3	Temperatura mínima	16.9
156268	7	Sololá	713	San Lucas Tolimán	10	San Lucas Tolimán	10	Octubre	2023-10-30T00:00:00	2024-11-08T07:00:00	5	Humedad	91
156269	7	Sololá	713	San Lucas Tolimán	10	San Lucas Tolimán	10	Octubre	2023-10-30T00:00:00	2024-11-08T07:00:00	6	Velocidad del viento	0
156270	7	Sololá	713	San Lucas Tolimán	10	San Lucas Tolimán	10	Octubre	2023-10-30T00:00:00	2024-11-08T07:00:00	7	Dirección del viento	0
156271	7	Sololá	713	San Lucas Tolimán	10	San Lucas Tolimán	10	Octubre	2023-10-30T00:00:00	2024-11-08T07:00:00	1	Precipitación	0
156272	7	Sololá	713	San Lucas Tolimán	10	San Lucas Tolimán	10	Octubre	2023-10-30T00:00:00	2024-11-08T07:00:00	8	Radiación solar	16
156273	7	Sololá	713	San Lucas Tolimán	10	San Lucas Tolimán	10	Octubre	2023-10-30T00:00:00	2024-11-08T08:00:00	2	Temperatura media	20.8
156274	7	Sololá	713	San Lucas Tolimán	10	San Lucas Tolimán	10	Octubre	2023-10-30T00:00:00	2024-11-08T08:00:00	4	Temperatura máxima	20.8
156275	7	Sololá	713	San Lucas Tolimán	10	San Lucas Tolimán	10	Octubre	2023-10-30T00:00:00	2024-11-08T08:00:00	3	Temperatura mínima	17.3
156276	7	Sololá	713	San Lucas Tolimán	10	San Lucas Tolimán	10	Octubre	2023-10-30T00:00:00	2024-11-08T08:00:00	5	Humedad	73
156277	7	Sololá	713	San Lucas Tolimán	10	San Lucas Tolimán	10	Octubre	2023-10-30T00:00:00	2024-11-08T08:00:00	6	Velocidad del viento	3.2
156278	7	Sololá	713	San Lucas Tolimán	10	San Lucas Tolimán	10	Octubre	2023-10-30T00:00:00	2024-11-08T08:00:00	7	Dirección del viento	3.22
156279	7	Sololá	713	San Lucas Tolimán	10	San Lucas Tolimán	10	Octubre	2023-10-30T00:00:00	2024-11-08T08:00:00	1	Precipitación	0
156280	7	Sololá	713	San Lucas Tolimán	10	San Lucas Tolimán	10	Octubre	2023-10-30T00:00:00	2024-11-08T08:00:00	8	Radiación solar	166
156281	7	Sololá	713	San Lucas Tolimán	10	San Lucas Tolimán	10	Octubre	2023-10-30T00:00:00	2024-11-08T09:00:00	2	Temperatura media	22.7
156282	7	Sololá	713	San Lucas Tolimán	10	San Lucas Tolimán	10	Octubre	2023-10-30T00:00:00	2024-11-08T09:00:00	4	Temperatura máxima	22.7
156283	7	Sololá	713	San Lucas Tolimán	10	San Lucas Tolimán	10	Octubre	2023-10-30T00:00:00	2024-11-08T09:00:00	3	Temperatura mínima	20.8
156284	7	Sololá	713	San Lucas Tolimán	10	San Lucas Tolimán	10	Octubre	2023-10-30T00:00:00	2024-11-08T09:00:00	5	Humedad	66
156285	7	Sololá	713	San Lucas Tolimán	10	San Lucas Tolimán	10	Octubre	2023-10-30T00:00:00	2024-11-08T09:00:00	6	Velocidad del viento	1.6
156286	7	Sololá	713	San Lucas Tolimán	10	San Lucas Tolimán	10	Octubre	2023-10-30T00:00:00	2024-11-08T09:00:00	7	Dirección del viento	1.61
156287	7	Sololá	713	San Lucas Tolimán	10	San Lucas Tolimán	10	Octubre	2023-10-30T00:00:00	2024-11-08T09:00:00	1	Precipitación	0
156288	7	Sololá	713	San Lucas Tolimán	10	San Lucas Tolimán	10	Octubre	2023-10-30T00:00:00	2024-11-08T09:00:00	8	Radiación solar	374
156289	7	Sololá	713	San Lucas Tolimán	10	San Lucas Tolimán	10	Octubre	2023-10-30T00:00:00	2024-11-08T10:00:00	2	Temperatura media	23.2
156290	7	Sololá	713	San Lucas Tolimán	10	San Lucas Tolimán	10	Octubre	2023-10-30T00:00:00	2024-11-08T10:00:00	4	Temperatura máxima	23.3
156291	7	Sololá	713	San Lucas Tolimán	10	San Lucas Tolimán	10	Octubre	2023-10-30T00:00:00	2024-11-08T10:00:00	3	Temperatura mínima	22.7
156292	7	Sololá	713	San Lucas Tolimán	10	San Lucas Tolimán	10	Octubre	2023-10-30T00:00:00	2024-11-08T10:00:00	5	Humedad	63
156293	7	Sololá	713	San Lucas Tolimán	10	San Lucas Tolimán	10	Octubre	2023-10-30T00:00:00	2024-11-08T10:00:00	6	Velocidad del viento	4.8
156294	7	Sololá	713	San Lucas Tolimán	10	San Lucas Tolimán	10	Octubre	2023-10-30T00:00:00	2024-11-08T10:00:00	7	Dirección del viento	4.83
156295	7	Sololá	713	San Lucas Tolimán	10	San Lucas Tolimán	10	Octubre	2023-10-30T00:00:00	2024-11-08T10:00:00	1	Precipitación	0
156296	7	Sololá	713	San Lucas Tolimán	10	San Lucas Tolimán	10	Octubre	2023-10-30T00:00:00	2024-11-08T10:00:00	8	Radiación solar	677
156297	7	Sololá	713	San Lucas Tolimán	10	San Lucas Tolimán	10	Octubre	2023-10-30T00:00:00	2024-11-08T11:00:00	2	Temperatura media	26.1
156298	7	Sololá	713	San Lucas Tolimán	10	San Lucas Tolimán	10	Octubre	2023-10-30T00:00:00	2024-11-08T11:00:00	4	Temperatura máxima	26.4
156299	7	Sololá	713	San Lucas Tolimán	10	San Lucas Tolimán	10	Octubre	2023-10-30T00:00:00	2024-11-08T11:00:00	3	Temperatura mínima	23.2
156300	7	Sololá	713	San Lucas Tolimán	10	San Lucas Tolimán	10	Octubre	2023-10-30T00:00:00	2024-11-08T11:00:00	5	Humedad	55
156301	7	Sololá	713	San Lucas Tolimán	10	San Lucas Tolimán	10	Octubre	2023-10-30T00:00:00	2024-11-08T11:00:00	6	Velocidad del viento	3.2
156302	7	Sololá	713	San Lucas Tolimán	10	San Lucas Tolimán	10	Octubre	2023-10-30T00:00:00	2024-11-08T11:00:00	7	Dirección del viento	3.22
156303	7	Sololá	713	San Lucas Tolimán	10	San Lucas Tolimán	10	Octubre	2023-10-30T00:00:00	2024-11-08T11:00:00	1	Precipitación	0
156304	7	Sololá	713	San Lucas Tolimán	10	San Lucas Tolimán	10	Octubre	2023-10-30T00:00:00	2024-11-08T11:00:00	8	Radiación solar	826
156305	7	Sololá	713	San Lucas Tolimán	10	San Lucas Tolimán	10	Octubre	2023-10-30T00:00:00	2024-11-08T12:00:00	2	Temperatura media	26.3
156306	7	Sololá	713	San Lucas Tolimán	10	San Lucas Tolimán	10	Octubre	2023-10-30T00:00:00	2024-11-08T12:00:00	4	Temperatura máxima	27
156307	7	Sololá	713	San Lucas Tolimán	10	San Lucas Tolimán	10	Octubre	2023-10-30T00:00:00	2024-11-08T12:00:00	3	Temperatura mínima	25.6
156308	7	Sololá	713	San Lucas Tolimán	10	San Lucas Tolimán	10	Octubre	2023-10-30T00:00:00	2024-11-08T12:00:00	5	Humedad	66
156309	7	Sololá	713	San Lucas Tolimán	10	San Lucas Tolimán	10	Octubre	2023-10-30T00:00:00	2024-11-08T12:00:00	6	Velocidad del viento	4.8
156310	7	Sololá	713	San Lucas Tolimán	10	San Lucas Tolimán	10	Octubre	2023-10-30T00:00:00	2024-11-08T12:00:00	7	Dirección del viento	4.83
156311	7	Sololá	713	San Lucas Tolimán	10	San Lucas Tolimán	10	Octubre	2023-10-30T00:00:00	2024-11-08T12:00:00	1	Precipitación	0
156312	7	Sololá	713	San Lucas Tolimán	10	San Lucas Tolimán	10	Octubre	2023-10-30T00:00:00	2024-11-08T12:00:00	8	Radiación solar	908
156313	7	Sololá	713	San Lucas Tolimán	10	San Lucas Tolimán	10	Octubre	2023-10-30T00:00:00	2024-11-08T13:00:00	2	Temperatura media	22.9
156314	7	Sololá	713	San Lucas Tolimán	10	San Lucas Tolimán	10	Octubre	2023-10-30T00:00:00	2024-11-08T13:00:00	4	Temperatura máxima	26.3
156315	7	Sololá	713	San Lucas Tolimán	10	San Lucas Tolimán	10	Octubre	2023-10-30T00:00:00	2024-11-08T13:00:00	3	Temperatura mínima	22.9
156316	7	Sololá	713	San Lucas Tolimán	10	San Lucas Tolimán	10	Octubre	2023-10-30T00:00:00	2024-11-08T13:00:00	5	Humedad	81
156317	7	Sololá	713	San Lucas Tolimán	10	San Lucas Tolimán	10	Octubre	2023-10-30T00:00:00	2024-11-08T13:00:00	6	Velocidad del viento	9.7
156318	7	Sololá	713	San Lucas Tolimán	10	San Lucas Tolimán	10	Octubre	2023-10-30T00:00:00	2024-11-08T13:00:00	7	Dirección del viento	9.66
156319	7	Sololá	713	San Lucas Tolimán	10	San Lucas Tolimán	10	Octubre	2023-10-30T00:00:00	2024-11-08T13:00:00	1	Precipitación	0
156320	7	Sololá	713	San Lucas Tolimán	10	San Lucas Tolimán	10	Octubre	2023-10-30T00:00:00	2024-11-08T13:00:00	8	Radiación solar	933
156321	7	Sololá	713	San Lucas Tolimán	10	San Lucas Tolimán	10	Octubre	2023-10-30T00:00:00	2024-11-08T14:00:00	2	Temperatura media	21.2
156322	7	Sololá	713	San Lucas Tolimán	10	San Lucas Tolimán	10	Octubre	2023-10-30T00:00:00	2024-11-08T14:00:00	4	Temperatura máxima	24.2
156323	7	Sololá	713	San Lucas Tolimán	10	San Lucas Tolimán	10	Octubre	2023-10-30T00:00:00	2024-11-08T14:00:00	3	Temperatura mínima	21.2
156324	7	Sololá	713	San Lucas Tolimán	10	San Lucas Tolimán	10	Octubre	2023-10-30T00:00:00	2024-11-08T14:00:00	5	Humedad	86
156325	7	Sololá	713	San Lucas Tolimán	10	San Lucas Tolimán	10	Octubre	2023-10-30T00:00:00	2024-11-08T14:00:00	6	Velocidad del viento	11.3
156326	7	Sololá	713	San Lucas Tolimán	10	San Lucas Tolimán	10	Octubre	2023-10-30T00:00:00	2024-11-08T14:00:00	7	Dirección del viento	11.27
156327	7	Sololá	713	San Lucas Tolimán	10	San Lucas Tolimán	10	Octubre	2023-10-30T00:00:00	2024-11-08T14:00:00	1	Precipitación	0
156328	7	Sololá	713	San Lucas Tolimán	10	San Lucas Tolimán	10	Octubre	2023-10-30T00:00:00	2024-11-08T14:00:00	8	Radiación solar	591
156329	7	Sololá	713	San Lucas Tolimán	10	San Lucas Tolimán	10	Octubre	2023-10-30T00:00:00	2024-11-08T15:00:00	2	Temperatura media	21.4
156330	7	Sololá	713	San Lucas Tolimán	10	San Lucas Tolimán	10	Octubre	2023-10-30T00:00:00	2024-11-08T15:00:00	4	Temperatura máxima	21.5
156331	7	Sololá	713	San Lucas Tolimán	10	San Lucas Tolimán	10	Octubre	2023-10-30T00:00:00	2024-11-08T15:00:00	3	Temperatura mínima	20.7
156332	7	Sololá	713	San Lucas Tolimán	10	San Lucas Tolimán	10	Octubre	2023-10-30T00:00:00	2024-11-08T15:00:00	5	Humedad	83
156333	7	Sololá	713	San Lucas Tolimán	10	San Lucas Tolimán	10	Octubre	2023-10-30T00:00:00	2024-11-08T15:00:00	6	Velocidad del viento	8
156334	7	Sololá	713	San Lucas Tolimán	10	San Lucas Tolimán	10	Octubre	2023-10-30T00:00:00	2024-11-08T15:00:00	7	Dirección del viento	8.05
156335	7	Sololá	713	San Lucas Tolimán	10	San Lucas Tolimán	10	Octubre	2023-10-30T00:00:00	2024-11-08T15:00:00	1	Precipitación	0
156336	7	Sololá	713	San Lucas Tolimán	10	San Lucas Tolimán	10	Octubre	2023-10-30T00:00:00	2024-11-08T15:00:00	8	Radiación solar	542
156337	7	Sololá	713	San Lucas Tolimán	10	San Lucas Tolimán	10	Octubre	2023-10-30T00:00:00	2024-11-08T16:00:00	2	Temperatura media	21.6
156338	7	Sololá	713	San Lucas Tolimán	10	San Lucas Tolimán	10	Octubre	2023-10-30T00:00:00	2024-11-08T16:00:00	4	Temperatura máxima	22.3
156339	7	Sololá	713	San Lucas Tolimán	10	San Lucas Tolimán	10	Octubre	2023-10-30T00:00:00	2024-11-08T16:00:00	3	Temperatura mínima	21.4
156340	7	Sololá	713	San Lucas Tolimán	10	San Lucas Tolimán	10	Octubre	2023-10-30T00:00:00	2024-11-08T16:00:00	5	Humedad	85
156341	7	Sololá	713	San Lucas Tolimán	10	San Lucas Tolimán	10	Octubre	2023-10-30T00:00:00	2024-11-08T16:00:00	6	Velocidad del viento	4.8
156342	7	Sololá	713	San Lucas Tolimán	10	San Lucas Tolimán	10	Octubre	2023-10-30T00:00:00	2024-11-08T16:00:00	7	Dirección del viento	4.83
156343	7	Sololá	713	San Lucas Tolimán	10	San Lucas Tolimán	10	Octubre	2023-10-30T00:00:00	2024-11-08T16:00:00	1	Precipitación	0
156344	7	Sololá	713	San Lucas Tolimán	10	San Lucas Tolimán	10	Octubre	2023-10-30T00:00:00	2024-11-08T16:00:00	8	Radiación solar	198
156345	7	Sololá	713	San Lucas Tolimán	10	San Lucas Tolimán	10	Octubre	2023-10-30T00:00:00	2024-11-08T17:00:00	2	Temperatura media	21.1
156346	7	Sololá	713	San Lucas Tolimán	10	San Lucas Tolimán	10	Octubre	2023-10-30T00:00:00	2024-11-08T17:00:00	4	Temperatura máxima	21.7
156347	7	Sololá	713	San Lucas Tolimán	10	San Lucas Tolimán	10	Octubre	2023-10-30T00:00:00	2024-11-08T17:00:00	3	Temperatura mínima	21.1
156348	7	Sololá	713	San Lucas Tolimán	10	San Lucas Tolimán	10	Octubre	2023-10-30T00:00:00	2024-11-08T17:00:00	5	Humedad	87
156349	7	Sololá	713	San Lucas Tolimán	10	San Lucas Tolimán	10	Octubre	2023-10-30T00:00:00	2024-11-08T17:00:00	6	Velocidad del viento	6.4
156350	7	Sololá	713	San Lucas Tolimán	10	San Lucas Tolimán	10	Octubre	2023-10-30T00:00:00	2024-11-08T17:00:00	7	Dirección del viento	6.44
156351	7	Sololá	713	San Lucas Tolimán	10	San Lucas Tolimán	10	Octubre	2023-10-30T00:00:00	2024-11-08T17:00:00	1	Precipitación	0
156352	7	Sololá	713	San Lucas Tolimán	10	San Lucas Tolimán	10	Octubre	2023-10-30T00:00:00	2024-11-08T17:00:00	8	Radiación solar	45
156353	7	Sololá	713	San Lucas Tolimán	10	San Lucas Tolimán	10	Octubre	2023-10-30T00:00:00	2024-11-08T18:00:00	2	Temperatura media	19.5
156354	7	Sololá	713	San Lucas Tolimán	10	San Lucas Tolimán	10	Octubre	2023-10-30T00:00:00	2024-11-08T18:00:00	4	Temperatura máxima	21
156355	7	Sololá	713	San Lucas Tolimán	10	San Lucas Tolimán	10	Octubre	2023-10-30T00:00:00	2024-11-08T18:00:00	3	Temperatura mínima	19.3
156356	7	Sololá	713	San Lucas Tolimán	10	San Lucas Tolimán	10	Octubre	2023-10-30T00:00:00	2024-11-08T18:00:00	5	Humedad	78
156357	7	Sololá	713	San Lucas Tolimán	10	San Lucas Tolimán	10	Octubre	2023-10-30T00:00:00	2024-11-08T18:00:00	6	Velocidad del viento	4.8
156358	7	Sololá	713	San Lucas Tolimán	10	San Lucas Tolimán	10	Octubre	2023-10-30T00:00:00	2024-11-08T18:00:00	7	Dirección del viento	4.83
156359	7	Sololá	713	San Lucas Tolimán	10	San Lucas Tolimán	10	Octubre	2023-10-30T00:00:00	2024-11-08T18:00:00	1	Precipitación	0
156360	7	Sololá	713	San Lucas Tolimán	10	San Lucas Tolimán	10	Octubre	2023-10-30T00:00:00	2024-11-08T18:00:00	8	Radiación solar	5
156361	7	Sololá	713	San Lucas Tolimán	10	San Lucas Tolimán	10	Octubre	2023-10-30T00:00:00	2024-11-08T19:00:00	2	Temperatura media	19.5
156362	7	Sololá	713	San Lucas Tolimán	10	San Lucas Tolimán	10	Octubre	2023-10-30T00:00:00	2024-11-08T19:00:00	4	Temperatura máxima	20.3
156363	7	Sololá	713	San Lucas Tolimán	10	San Lucas Tolimán	10	Octubre	2023-10-30T00:00:00	2024-11-08T19:00:00	3	Temperatura mínima	19.5
156364	7	Sololá	713	San Lucas Tolimán	10	San Lucas Tolimán	10	Octubre	2023-10-30T00:00:00	2024-11-08T19:00:00	5	Humedad	79
156365	7	Sololá	713	San Lucas Tolimán	10	San Lucas Tolimán	10	Octubre	2023-10-30T00:00:00	2024-11-08T19:00:00	6	Velocidad del viento	1.6
156366	7	Sololá	713	San Lucas Tolimán	10	San Lucas Tolimán	10	Octubre	2023-10-30T00:00:00	2024-11-08T19:00:00	7	Dirección del viento	1.61
156367	7	Sololá	713	San Lucas Tolimán	10	San Lucas Tolimán	10	Octubre	2023-10-30T00:00:00	2024-11-08T19:00:00	1	Precipitación	0
156368	7	Sololá	713	San Lucas Tolimán	10	San Lucas Tolimán	10	Octubre	2023-10-30T00:00:00	2024-11-08T19:00:00	8	Radiación solar	0
156369	7	Sololá	713	San Lucas Tolimán	10	San Lucas Tolimán	10	Octubre	2023-10-30T00:00:00	2024-11-08T20:00:00	2	Temperatura media	19.3
156370	7	Sololá	713	San Lucas Tolimán	10	San Lucas Tolimán	10	Octubre	2023-10-30T00:00:00	2024-11-08T20:00:00	4	Temperatura máxima	19.5
156371	7	Sololá	713	San Lucas Tolimán	10	San Lucas Tolimán	10	Octubre	2023-10-30T00:00:00	2024-11-08T20:00:00	3	Temperatura mínima	19.3
156372	7	Sololá	713	San Lucas Tolimán	10	San Lucas Tolimán	10	Octubre	2023-10-30T00:00:00	2024-11-08T20:00:00	5	Humedad	78
156373	7	Sololá	713	San Lucas Tolimán	10	San Lucas Tolimán	10	Octubre	2023-10-30T00:00:00	2024-11-08T20:00:00	6	Velocidad del viento	0
156374	7	Sololá	713	San Lucas Tolimán	10	San Lucas Tolimán	10	Octubre	2023-10-30T00:00:00	2024-11-08T20:00:00	7	Dirección del viento	0
156375	7	Sololá	713	San Lucas Tolimán	10	San Lucas Tolimán	10	Octubre	2023-10-30T00:00:00	2024-11-08T20:00:00	1	Precipitación	0
156376	7	Sololá	713	San Lucas Tolimán	10	San Lucas Tolimán	10	Octubre	2023-10-30T00:00:00	2024-11-08T20:00:00	8	Radiación solar	0
156377	7	Sololá	713	San Lucas Tolimán	10	San Lucas Tolimán	10	Octubre	2023-10-30T00:00:00	2024-11-08T21:00:00	2	Temperatura media	18.4
156378	7	Sololá	713	San Lucas Tolimán	10	San Lucas Tolimán	10	Octubre	2023-10-30T00:00:00	2024-11-08T21:00:00	4	Temperatura máxima	19.3
156379	7	Sololá	713	San Lucas Tolimán	10	San Lucas Tolimán	10	Octubre	2023-10-30T00:00:00	2024-11-08T21:00:00	3	Temperatura mínima	18.4
156380	7	Sololá	713	San Lucas Tolimán	10	San Lucas Tolimán	10	Octubre	2023-10-30T00:00:00	2024-11-08T21:00:00	5	Humedad	81
156381	7	Sololá	713	San Lucas Tolimán	10	San Lucas Tolimán	10	Octubre	2023-10-30T00:00:00	2024-11-08T21:00:00	6	Velocidad del viento	1.6
156382	7	Sololá	713	San Lucas Tolimán	10	San Lucas Tolimán	10	Octubre	2023-10-30T00:00:00	2024-11-08T21:00:00	7	Dirección del viento	1.61
156383	7	Sololá	713	San Lucas Tolimán	10	San Lucas Tolimán	10	Octubre	2023-10-30T00:00:00	2024-11-08T21:00:00	1	Precipitación	0
156384	7	Sololá	713	San Lucas Tolimán	10	San Lucas Tolimán	10	Octubre	2023-10-30T00:00:00	2024-11-08T21:00:00	8	Radiación solar	0
156385	7	Sololá	713	San Lucas Tolimán	10	San Lucas Tolimán	10	Octubre	2023-10-30T00:00:00	2024-11-08T22:00:00	2	Temperatura media	18.2
156386	7	Sololá	713	San Lucas Tolimán	10	San Lucas Tolimán	10	Octubre	2023-10-30T00:00:00	2024-11-08T22:00:00	4	Temperatura máxima	18.4
156387	7	Sololá	713	San Lucas Tolimán	10	San Lucas Tolimán	10	Octubre	2023-10-30T00:00:00	2024-11-08T22:00:00	3	Temperatura mínima	18.1
156388	7	Sololá	713	San Lucas Tolimán	10	San Lucas Tolimán	10	Octubre	2023-10-30T00:00:00	2024-11-08T22:00:00	5	Humedad	80
156389	7	Sololá	713	San Lucas Tolimán	10	San Lucas Tolimán	10	Octubre	2023-10-30T00:00:00	2024-11-08T22:00:00	6	Velocidad del viento	0
156390	7	Sololá	713	San Lucas Tolimán	10	San Lucas Tolimán	10	Octubre	2023-10-30T00:00:00	2024-11-08T22:00:00	7	Dirección del viento	0
156391	7	Sololá	713	San Lucas Tolimán	10	San Lucas Tolimán	10	Octubre	2023-10-30T00:00:00	2024-11-08T22:00:00	1	Precipitación	0
156392	7	Sololá	713	San Lucas Tolimán	10	San Lucas Tolimán	10	Octubre	2023-10-30T00:00:00	2024-11-08T22:00:00	8	Radiación solar	0
156393	7	Sololá	713	San Lucas Tolimán	10	San Lucas Tolimán	10	Octubre	2023-10-30T00:00:00	2024-11-08T23:00:00	2	Temperatura media	19.7
156394	7	Sololá	713	San Lucas Tolimán	10	San Lucas Tolimán	10	Octubre	2023-10-30T00:00:00	2024-11-08T23:00:00	4	Temperatura máxima	19.8
156395	7	Sololá	713	San Lucas Tolimán	10	San Lucas Tolimán	10	Octubre	2023-10-30T00:00:00	2024-11-08T23:00:00	3	Temperatura mínima	18.2
156396	7	Sololá	713	San Lucas Tolimán	10	San Lucas Tolimán	10	Octubre	2023-10-30T00:00:00	2024-11-08T23:00:00	5	Humedad	71
156397	7	Sololá	713	San Lucas Tolimán	10	San Lucas Tolimán	10	Octubre	2023-10-30T00:00:00	2024-11-08T23:00:00	6	Velocidad del viento	3.2
156398	7	Sololá	713	San Lucas Tolimán	10	San Lucas Tolimán	10	Octubre	2023-10-30T00:00:00	2024-11-08T23:00:00	7	Dirección del viento	3.22
156399	7	Sololá	713	San Lucas Tolimán	10	San Lucas Tolimán	10	Octubre	2023-10-30T00:00:00	2024-11-08T23:00:00	1	Precipitación	0
156400	7	Sololá	713	San Lucas Tolimán	10	San Lucas Tolimán	10	Octubre	2023-10-30T00:00:00	2024-11-08T23:00:00	8	Radiación solar	0
156401	7	Sololá	713	San Lucas Tolimán	10	San Lucas Tolimán	10	Octubre	2023-10-31T00:00:00	2024-11-08T00:00:00	2	Temperatura media	19.4
156402	7	Sololá	713	San Lucas Tolimán	10	San Lucas Tolimán	10	Octubre	2023-10-31T00:00:00	2024-11-08T00:00:00	4	Temperatura máxima	19.8
156403	7	Sololá	713	San Lucas Tolimán	10	San Lucas Tolimán	10	Octubre	2023-10-31T00:00:00	2024-11-08T00:00:00	3	Temperatura mínima	19.4
156404	7	Sololá	713	San Lucas Tolimán	10	San Lucas Tolimán	10	Octubre	2023-10-31T00:00:00	2024-11-08T00:00:00	5	Humedad	69
156405	7	Sololá	713	San Lucas Tolimán	10	San Lucas Tolimán	10	Octubre	2023-10-31T00:00:00	2024-11-08T00:00:00	6	Velocidad del viento	3.2
156406	7	Sololá	713	San Lucas Tolimán	10	San Lucas Tolimán	10	Octubre	2023-10-31T00:00:00	2024-11-08T00:00:00	7	Dirección del viento	3.22
156407	7	Sololá	713	San Lucas Tolimán	10	San Lucas Tolimán	10	Octubre	2023-10-31T00:00:00	2024-11-08T00:00:00	1	Precipitación	0
156408	7	Sololá	713	San Lucas Tolimán	10	San Lucas Tolimán	10	Octubre	2023-10-31T00:00:00	2024-11-08T00:00:00	8	Radiación solar	0
156409	7	Sololá	713	San Lucas Tolimán	10	San Lucas Tolimán	10	Octubre	2023-10-31T00:00:00	2024-11-08T01:00:00	2	Temperatura media	19.2
156410	7	Sololá	713	San Lucas Tolimán	10	San Lucas Tolimán	10	Octubre	2023-10-31T00:00:00	2024-11-08T01:00:00	4	Temperatura máxima	19.4
156411	7	Sololá	713	San Lucas Tolimán	10	San Lucas Tolimán	10	Octubre	2023-10-31T00:00:00	2024-11-08T01:00:00	3	Temperatura mínima	19.1
156412	7	Sololá	713	San Lucas Tolimán	10	San Lucas Tolimán	10	Octubre	2023-10-31T00:00:00	2024-11-08T01:00:00	5	Humedad	71
156413	7	Sololá	713	San Lucas Tolimán	10	San Lucas Tolimán	10	Octubre	2023-10-31T00:00:00	2024-11-08T01:00:00	6	Velocidad del viento	4.8
156414	7	Sololá	713	San Lucas Tolimán	10	San Lucas Tolimán	10	Octubre	2023-10-31T00:00:00	2024-11-08T01:00:00	7	Dirección del viento	4.83
156415	7	Sololá	713	San Lucas Tolimán	10	San Lucas Tolimán	10	Octubre	2023-10-31T00:00:00	2024-11-08T01:00:00	1	Precipitación	0
156416	7	Sololá	713	San Lucas Tolimán	10	San Lucas Tolimán	10	Octubre	2023-10-31T00:00:00	2024-11-08T01:00:00	8	Radiación solar	0
156417	7	Sololá	713	San Lucas Tolimán	10	San Lucas Tolimán	10	Octubre	2023-10-31T00:00:00	2024-11-08T02:00:00	2	Temperatura media	19.3
156418	7	Sololá	713	San Lucas Tolimán	10	San Lucas Tolimán	10	Octubre	2023-10-31T00:00:00	2024-11-08T02:00:00	4	Temperatura máxima	19.4
156419	7	Sololá	713	San Lucas Tolimán	10	San Lucas Tolimán	10	Octubre	2023-10-31T00:00:00	2024-11-08T02:00:00	3	Temperatura mínima	19
156420	7	Sololá	713	San Lucas Tolimán	10	San Lucas Tolimán	10	Octubre	2023-10-31T00:00:00	2024-11-08T02:00:00	5	Humedad	67
156421	7	Sololá	713	San Lucas Tolimán	10	San Lucas Tolimán	10	Octubre	2023-10-31T00:00:00	2024-11-08T02:00:00	6	Velocidad del viento	8
156422	7	Sololá	713	San Lucas Tolimán	10	San Lucas Tolimán	10	Octubre	2023-10-31T00:00:00	2024-11-08T02:00:00	7	Dirección del viento	8.05
156423	7	Sololá	713	San Lucas Tolimán	10	San Lucas Tolimán	10	Octubre	2023-10-31T00:00:00	2024-11-08T02:00:00	1	Precipitación	0
156424	7	Sololá	713	San Lucas Tolimán	10	San Lucas Tolimán	10	Octubre	2023-10-31T00:00:00	2024-11-08T02:00:00	8	Radiación solar	0
156425	7	Sololá	713	San Lucas Tolimán	10	San Lucas Tolimán	10	Octubre	2023-10-31T00:00:00	2024-11-08T03:00:00	2	Temperatura media	19.2
156426	7	Sololá	713	San Lucas Tolimán	10	San Lucas Tolimán	10	Octubre	2023-10-31T00:00:00	2024-11-08T03:00:00	4	Temperatura máxima	19.4
156427	7	Sololá	713	San Lucas Tolimán	10	San Lucas Tolimán	10	Octubre	2023-10-31T00:00:00	2024-11-08T03:00:00	3	Temperatura mínima	19.1
156428	7	Sololá	713	San Lucas Tolimán	10	San Lucas Tolimán	10	Octubre	2023-10-31T00:00:00	2024-11-08T03:00:00	5	Humedad	68
156429	7	Sololá	713	San Lucas Tolimán	10	San Lucas Tolimán	10	Octubre	2023-10-31T00:00:00	2024-11-08T03:00:00	6	Velocidad del viento	8
156430	7	Sololá	713	San Lucas Tolimán	10	San Lucas Tolimán	10	Octubre	2023-10-31T00:00:00	2024-11-08T03:00:00	7	Dirección del viento	8.05
156431	7	Sololá	713	San Lucas Tolimán	10	San Lucas Tolimán	10	Octubre	2023-10-31T00:00:00	2024-11-08T03:00:00	1	Precipitación	0
156432	7	Sololá	713	San Lucas Tolimán	10	San Lucas Tolimán	10	Octubre	2023-10-31T00:00:00	2024-11-08T03:00:00	8	Radiación solar	0
156433	7	Sololá	713	San Lucas Tolimán	10	San Lucas Tolimán	10	Octubre	2023-10-31T00:00:00	2024-11-08T04:00:00	2	Temperatura media	19.8
156434	7	Sololá	713	San Lucas Tolimán	10	San Lucas Tolimán	10	Octubre	2023-10-31T00:00:00	2024-11-08T04:00:00	4	Temperatura máxima	19.8
156435	7	Sololá	713	San Lucas Tolimán	10	San Lucas Tolimán	10	Octubre	2023-10-31T00:00:00	2024-11-08T04:00:00	3	Temperatura mínima	19.2
156436	7	Sololá	713	San Lucas Tolimán	10	San Lucas Tolimán	10	Octubre	2023-10-31T00:00:00	2024-11-08T04:00:00	5	Humedad	63
156437	7	Sololá	713	San Lucas Tolimán	10	San Lucas Tolimán	10	Octubre	2023-10-31T00:00:00	2024-11-08T04:00:00	6	Velocidad del viento	11.3
156438	7	Sololá	713	San Lucas Tolimán	10	San Lucas Tolimán	10	Octubre	2023-10-31T00:00:00	2024-11-08T04:00:00	7	Dirección del viento	11.27
156439	7	Sololá	713	San Lucas Tolimán	10	San Lucas Tolimán	10	Octubre	2023-10-31T00:00:00	2024-11-08T04:00:00	1	Precipitación	0
156440	7	Sololá	713	San Lucas Tolimán	10	San Lucas Tolimán	10	Octubre	2023-10-31T00:00:00	2024-11-08T04:00:00	8	Radiación solar	0
156441	7	Sololá	713	San Lucas Tolimán	10	San Lucas Tolimán	10	Octubre	2023-10-31T00:00:00	2024-11-08T05:00:00	2	Temperatura media	19.7
156442	7	Sololá	713	San Lucas Tolimán	10	San Lucas Tolimán	10	Octubre	2023-10-31T00:00:00	2024-11-08T05:00:00	4	Temperatura máxima	20
156443	7	Sololá	713	San Lucas Tolimán	10	San Lucas Tolimán	10	Octubre	2023-10-31T00:00:00	2024-11-08T05:00:00	3	Temperatura mínima	19.6
156444	7	Sololá	713	San Lucas Tolimán	10	San Lucas Tolimán	10	Octubre	2023-10-31T00:00:00	2024-11-08T05:00:00	5	Humedad	64
156445	7	Sololá	713	San Lucas Tolimán	10	San Lucas Tolimán	10	Octubre	2023-10-31T00:00:00	2024-11-08T05:00:00	6	Velocidad del viento	11.3
156446	7	Sololá	713	San Lucas Tolimán	10	San Lucas Tolimán	10	Octubre	2023-10-31T00:00:00	2024-11-08T05:00:00	7	Dirección del viento	11.27
156447	7	Sololá	713	San Lucas Tolimán	10	San Lucas Tolimán	10	Octubre	2023-10-31T00:00:00	2024-11-08T05:00:00	1	Precipitación	0
156448	7	Sololá	713	San Lucas Tolimán	10	San Lucas Tolimán	10	Octubre	2023-10-31T00:00:00	2024-11-08T05:00:00	8	Radiación solar	0
156449	7	Sololá	713	San Lucas Tolimán	10	San Lucas Tolimán	10	Octubre	2023-10-31T00:00:00	2024-11-08T06:00:00	2	Temperatura media	19.8
156450	7	Sololá	713	San Lucas Tolimán	10	San Lucas Tolimán	10	Octubre	2023-10-31T00:00:00	2024-11-08T06:00:00	4	Temperatura máxima	19.8
156451	7	Sololá	713	San Lucas Tolimán	10	San Lucas Tolimán	10	Octubre	2023-10-31T00:00:00	2024-11-08T06:00:00	3	Temperatura mínima	19.6
156452	7	Sololá	713	San Lucas Tolimán	10	San Lucas Tolimán	10	Octubre	2023-10-31T00:00:00	2024-11-08T06:00:00	5	Humedad	64
156453	7	Sololá	713	San Lucas Tolimán	10	San Lucas Tolimán	10	Octubre	2023-10-31T00:00:00	2024-11-08T06:00:00	6	Velocidad del viento	6.4
156454	7	Sololá	713	San Lucas Tolimán	10	San Lucas Tolimán	10	Octubre	2023-10-31T00:00:00	2024-11-08T06:00:00	7	Dirección del viento	6.44
156455	7	Sololá	713	San Lucas Tolimán	10	San Lucas Tolimán	10	Octubre	2023-10-31T00:00:00	2024-11-08T06:00:00	1	Precipitación	0
156456	7	Sololá	713	San Lucas Tolimán	10	San Lucas Tolimán	10	Octubre	2023-10-31T00:00:00	2024-11-08T06:00:00	8	Radiación solar	0
156457	7	Sololá	713	San Lucas Tolimán	10	San Lucas Tolimán	10	Octubre	2023-10-31T00:00:00	2024-11-08T07:00:00	2	Temperatura media	19.4
156458	7	Sololá	713	San Lucas Tolimán	10	San Lucas Tolimán	10	Octubre	2023-10-31T00:00:00	2024-11-08T07:00:00	4	Temperatura máxima	19.8
156459	7	Sololá	713	San Lucas Tolimán	10	San Lucas Tolimán	10	Octubre	2023-10-31T00:00:00	2024-11-08T07:00:00	3	Temperatura mínima	19.4
156460	7	Sololá	713	San Lucas Tolimán	10	San Lucas Tolimán	10	Octubre	2023-10-31T00:00:00	2024-11-08T07:00:00	5	Humedad	66
156461	7	Sololá	713	San Lucas Tolimán	10	San Lucas Tolimán	10	Octubre	2023-10-31T00:00:00	2024-11-08T07:00:00	6	Velocidad del viento	9.7
156462	7	Sololá	713	San Lucas Tolimán	10	San Lucas Tolimán	10	Octubre	2023-10-31T00:00:00	2024-11-08T07:00:00	7	Dirección del viento	9.66
156463	7	Sololá	713	San Lucas Tolimán	10	San Lucas Tolimán	10	Octubre	2023-10-31T00:00:00	2024-11-08T07:00:00	1	Precipitación	0
156464	7	Sololá	713	San Lucas Tolimán	10	San Lucas Tolimán	10	Octubre	2023-10-31T00:00:00	2024-11-08T07:00:00	8	Radiación solar	13
156465	7	Sololá	713	San Lucas Tolimán	10	San Lucas Tolimán	10	Octubre	2023-10-31T00:00:00	2024-11-08T08:00:00	2	Temperatura media	19.7
156466	7	Sololá	713	San Lucas Tolimán	10	San Lucas Tolimán	10	Octubre	2023-10-31T00:00:00	2024-11-08T08:00:00	4	Temperatura máxima	19.7
156467	7	Sololá	713	San Lucas Tolimán	10	San Lucas Tolimán	10	Octubre	2023-10-31T00:00:00	2024-11-08T08:00:00	3	Temperatura mínima	18.8
156468	7	Sololá	713	San Lucas Tolimán	10	San Lucas Tolimán	10	Octubre	2023-10-31T00:00:00	2024-11-08T08:00:00	5	Humedad	64
156469	7	Sololá	713	San Lucas Tolimán	10	San Lucas Tolimán	10	Octubre	2023-10-31T00:00:00	2024-11-08T08:00:00	6	Velocidad del viento	9.7
156470	7	Sololá	713	San Lucas Tolimán	10	San Lucas Tolimán	10	Octubre	2023-10-31T00:00:00	2024-11-08T08:00:00	7	Dirección del viento	9.66
156471	7	Sololá	713	San Lucas Tolimán	10	San Lucas Tolimán	10	Octubre	2023-10-31T00:00:00	2024-11-08T08:00:00	1	Precipitación	0
156472	7	Sololá	713	San Lucas Tolimán	10	San Lucas Tolimán	10	Octubre	2023-10-31T00:00:00	2024-11-08T08:00:00	8	Radiación solar	157
156473	7	Sololá	713	San Lucas Tolimán	10	San Lucas Tolimán	10	Octubre	2023-10-31T00:00:00	2024-11-08T09:00:00	2	Temperatura media	21.1
156474	7	Sololá	713	San Lucas Tolimán	10	San Lucas Tolimán	10	Octubre	2023-10-31T00:00:00	2024-11-08T09:00:00	4	Temperatura máxima	21.1
156475	7	Sololá	713	San Lucas Tolimán	10	San Lucas Tolimán	10	Octubre	2023-10-31T00:00:00	2024-11-08T09:00:00	3	Temperatura mínima	19.8
156476	7	Sololá	713	San Lucas Tolimán	10	San Lucas Tolimán	10	Octubre	2023-10-31T00:00:00	2024-11-08T09:00:00	5	Humedad	62
156477	7	Sololá	713	San Lucas Tolimán	10	San Lucas Tolimán	10	Octubre	2023-10-31T00:00:00	2024-11-08T09:00:00	6	Velocidad del viento	11.3
156478	7	Sololá	713	San Lucas Tolimán	10	San Lucas Tolimán	10	Octubre	2023-10-31T00:00:00	2024-11-08T09:00:00	7	Dirección del viento	11.27
156479	7	Sololá	713	San Lucas Tolimán	10	San Lucas Tolimán	10	Octubre	2023-10-31T00:00:00	2024-11-08T09:00:00	1	Precipitación	0
156480	7	Sololá	713	San Lucas Tolimán	10	San Lucas Tolimán	10	Octubre	2023-10-31T00:00:00	2024-11-08T09:00:00	8	Radiación solar	485
156481	7	Sololá	713	San Lucas Tolimán	10	San Lucas Tolimán	10	Octubre	2023-10-31T00:00:00	2024-11-08T10:00:00	2	Temperatura media	21.3
156482	7	Sololá	713	San Lucas Tolimán	10	San Lucas Tolimán	10	Octubre	2023-10-31T00:00:00	2024-11-08T10:00:00	4	Temperatura máxima	21.4
156483	7	Sololá	713	San Lucas Tolimán	10	San Lucas Tolimán	10	Octubre	2023-10-31T00:00:00	2024-11-08T10:00:00	3	Temperatura mínima	21.1
156484	7	Sololá	713	San Lucas Tolimán	10	San Lucas Tolimán	10	Octubre	2023-10-31T00:00:00	2024-11-08T10:00:00	5	Humedad	60
156485	7	Sololá	713	San Lucas Tolimán	10	San Lucas Tolimán	10	Octubre	2023-10-31T00:00:00	2024-11-08T10:00:00	6	Velocidad del viento	8
156486	7	Sololá	713	San Lucas Tolimán	10	San Lucas Tolimán	10	Octubre	2023-10-31T00:00:00	2024-11-08T10:00:00	7	Dirección del viento	8.05
156487	7	Sololá	713	San Lucas Tolimán	10	San Lucas Tolimán	10	Octubre	2023-10-31T00:00:00	2024-11-08T10:00:00	1	Precipitación	0
156488	7	Sololá	713	San Lucas Tolimán	10	San Lucas Tolimán	10	Octubre	2023-10-31T00:00:00	2024-11-08T10:00:00	8	Radiación solar	709
156489	7	Sololá	713	San Lucas Tolimán	10	San Lucas Tolimán	10	Octubre	2023-10-31T00:00:00	2024-11-08T11:00:00	2	Temperatura media	21.3
156490	7	Sololá	713	San Lucas Tolimán	10	San Lucas Tolimán	10	Octubre	2023-10-31T00:00:00	2024-11-08T11:00:00	4	Temperatura máxima	21.4
156491	7	Sololá	713	San Lucas Tolimán	10	San Lucas Tolimán	10	Octubre	2023-10-31T00:00:00	2024-11-08T11:00:00	3	Temperatura mínima	21.3
156492	7	Sololá	713	San Lucas Tolimán	10	San Lucas Tolimán	10	Octubre	2023-10-31T00:00:00	2024-11-08T11:00:00	5	Humedad	63
156493	7	Sololá	713	San Lucas Tolimán	10	San Lucas Tolimán	10	Octubre	2023-10-31T00:00:00	2024-11-08T11:00:00	6	Velocidad del viento	12.9
156494	7	Sololá	713	San Lucas Tolimán	10	San Lucas Tolimán	10	Octubre	2023-10-31T00:00:00	2024-11-08T11:00:00	7	Dirección del viento	12.87
156495	7	Sololá	713	San Lucas Tolimán	10	San Lucas Tolimán	10	Octubre	2023-10-31T00:00:00	2024-11-08T11:00:00	1	Precipitación	0
156496	7	Sololá	713	San Lucas Tolimán	10	San Lucas Tolimán	10	Octubre	2023-10-31T00:00:00	2024-11-08T11:00:00	8	Radiación solar	763
156497	7	Sololá	713	San Lucas Tolimán	10	San Lucas Tolimán	10	Octubre	2023-10-31T00:00:00	2024-11-08T12:00:00	2	Temperatura media	20.8
156498	7	Sololá	713	San Lucas Tolimán	10	San Lucas Tolimán	10	Octubre	2023-10-31T00:00:00	2024-11-08T12:00:00	4	Temperatura máxima	21.7
156499	7	Sololá	713	San Lucas Tolimán	10	San Lucas Tolimán	10	Octubre	2023-10-31T00:00:00	2024-11-08T12:00:00	3	Temperatura mínima	20.8
156500	7	Sololá	713	San Lucas Tolimán	10	San Lucas Tolimán	10	Octubre	2023-10-31T00:00:00	2024-11-08T12:00:00	5	Humedad	70
156501	7	Sololá	713	San Lucas Tolimán	10	San Lucas Tolimán	10	Octubre	2023-10-31T00:00:00	2024-11-08T12:00:00	6	Velocidad del viento	11.3
156502	7	Sololá	713	San Lucas Tolimán	10	San Lucas Tolimán	10	Octubre	2023-10-31T00:00:00	2024-11-08T12:00:00	7	Dirección del viento	11.27
156503	7	Sololá	713	San Lucas Tolimán	10	San Lucas Tolimán	10	Octubre	2023-10-31T00:00:00	2024-11-08T12:00:00	1	Precipitación	0
156504	7	Sololá	713	San Lucas Tolimán	10	San Lucas Tolimán	10	Octubre	2023-10-31T00:00:00	2024-11-08T12:00:00	8	Radiación solar	774
156505	7	Sololá	713	San Lucas Tolimán	10	San Lucas Tolimán	10	Octubre	2023-10-31T00:00:00	2024-11-08T13:00:00	2	Temperatura media	21.1
156506	7	Sololá	713	San Lucas Tolimán	10	San Lucas Tolimán	10	Octubre	2023-10-31T00:00:00	2024-11-08T13:00:00	4	Temperatura máxima	21.1
156507	7	Sololá	713	San Lucas Tolimán	10	San Lucas Tolimán	10	Octubre	2023-10-31T00:00:00	2024-11-08T13:00:00	3	Temperatura mínima	20.5
156508	7	Sololá	713	San Lucas Tolimán	10	San Lucas Tolimán	10	Octubre	2023-10-31T00:00:00	2024-11-08T13:00:00	5	Humedad	69
156509	7	Sololá	713	San Lucas Tolimán	10	San Lucas Tolimán	10	Octubre	2023-10-31T00:00:00	2024-11-08T13:00:00	6	Velocidad del viento	8
156510	7	Sololá	713	San Lucas Tolimán	10	San Lucas Tolimán	10	Octubre	2023-10-31T00:00:00	2024-11-08T13:00:00	7	Dirección del viento	8.05
156511	7	Sololá	713	San Lucas Tolimán	10	San Lucas Tolimán	10	Octubre	2023-10-31T00:00:00	2024-11-08T13:00:00	1	Precipitación	0
156512	7	Sololá	713	San Lucas Tolimán	10	San Lucas Tolimán	10	Octubre	2023-10-31T00:00:00	2024-11-08T13:00:00	8	Radiación solar	1003
156513	7	Sololá	713	San Lucas Tolimán	10	San Lucas Tolimán	10	Octubre	2023-10-31T00:00:00	2024-11-08T14:00:00	2	Temperatura media	19.7
156514	7	Sololá	713	San Lucas Tolimán	10	San Lucas Tolimán	10	Octubre	2023-10-31T00:00:00	2024-11-08T14:00:00	4	Temperatura máxima	21.1
156515	7	Sololá	713	San Lucas Tolimán	10	San Lucas Tolimán	10	Octubre	2023-10-31T00:00:00	2024-11-08T14:00:00	3	Temperatura mínima	19.7
156516	7	Sololá	713	San Lucas Tolimán	10	San Lucas Tolimán	10	Octubre	2023-10-31T00:00:00	2024-11-08T14:00:00	5	Humedad	77
156517	7	Sololá	713	San Lucas Tolimán	10	San Lucas Tolimán	10	Octubre	2023-10-31T00:00:00	2024-11-08T14:00:00	6	Velocidad del viento	4.8
156518	7	Sololá	713	San Lucas Tolimán	10	San Lucas Tolimán	10	Octubre	2023-10-31T00:00:00	2024-11-08T14:00:00	7	Dirección del viento	4.83
156519	7	Sololá	713	San Lucas Tolimán	10	San Lucas Tolimán	10	Octubre	2023-10-31T00:00:00	2024-11-08T14:00:00	1	Precipitación	0
156520	7	Sololá	713	San Lucas Tolimán	10	San Lucas Tolimán	10	Octubre	2023-10-31T00:00:00	2024-11-08T14:00:00	8	Radiación solar	344
156521	7	Sololá	713	San Lucas Tolimán	10	San Lucas Tolimán	10	Octubre	2023-10-31T00:00:00	2024-11-08T15:00:00	2	Temperatura media	18.4
156522	7	Sololá	713	San Lucas Tolimán	10	San Lucas Tolimán	10	Octubre	2023-10-31T00:00:00	2024-11-08T15:00:00	4	Temperatura máxima	19.7
156523	7	Sololá	713	San Lucas Tolimán	10	San Lucas Tolimán	10	Octubre	2023-10-31T00:00:00	2024-11-08T15:00:00	3	Temperatura mínima	18.4
156524	7	Sololá	713	San Lucas Tolimán	10	San Lucas Tolimán	10	Octubre	2023-10-31T00:00:00	2024-11-08T15:00:00	5	Humedad	82
156525	7	Sololá	713	San Lucas Tolimán	10	San Lucas Tolimán	10	Octubre	2023-10-31T00:00:00	2024-11-08T15:00:00	6	Velocidad del viento	3.2
156526	7	Sololá	713	San Lucas Tolimán	10	San Lucas Tolimán	10	Octubre	2023-10-31T00:00:00	2024-11-08T15:00:00	7	Dirección del viento	3.22
156527	7	Sololá	713	San Lucas Tolimán	10	San Lucas Tolimán	10	Octubre	2023-10-31T00:00:00	2024-11-08T15:00:00	1	Precipitación	0.2
156528	7	Sololá	713	San Lucas Tolimán	10	San Lucas Tolimán	10	Octubre	2023-10-31T00:00:00	2024-11-08T15:00:00	8	Radiación solar	162
156529	7	Sololá	713	San Lucas Tolimán	10	San Lucas Tolimán	10	Octubre	2023-10-31T00:00:00	2024-11-08T16:00:00	2	Temperatura media	17.6
156530	7	Sololá	713	San Lucas Tolimán	10	San Lucas Tolimán	10	Octubre	2023-10-31T00:00:00	2024-11-08T16:00:00	4	Temperatura máxima	18.4
156531	7	Sololá	713	San Lucas Tolimán	10	San Lucas Tolimán	10	Octubre	2023-10-31T00:00:00	2024-11-08T16:00:00	3	Temperatura mínima	17.6
156532	7	Sololá	713	San Lucas Tolimán	10	San Lucas Tolimán	10	Octubre	2023-10-31T00:00:00	2024-11-08T16:00:00	5	Humedad	87
156533	7	Sololá	713	San Lucas Tolimán	10	San Lucas Tolimán	10	Octubre	2023-10-31T00:00:00	2024-11-08T16:00:00	6	Velocidad del viento	3.2
156534	7	Sololá	713	San Lucas Tolimán	10	San Lucas Tolimán	10	Octubre	2023-10-31T00:00:00	2024-11-08T16:00:00	7	Dirección del viento	3.22
156535	7	Sololá	713	San Lucas Tolimán	10	San Lucas Tolimán	10	Octubre	2023-10-31T00:00:00	2024-11-08T16:00:00	1	Precipitación	0.4
156536	7	Sololá	713	San Lucas Tolimán	10	San Lucas Tolimán	10	Octubre	2023-10-31T00:00:00	2024-11-08T16:00:00	8	Radiación solar	215
156537	7	Sololá	713	San Lucas Tolimán	10	San Lucas Tolimán	10	Octubre	2023-10-31T00:00:00	2024-11-08T17:00:00	2	Temperatura media	17.3
156538	7	Sololá	713	San Lucas Tolimán	10	San Lucas Tolimán	10	Octubre	2023-10-31T00:00:00	2024-11-08T17:00:00	4	Temperatura máxima	17.6
156539	7	Sololá	713	San Lucas Tolimán	10	San Lucas Tolimán	10	Octubre	2023-10-31T00:00:00	2024-11-08T17:00:00	3	Temperatura mínima	17.2
156540	7	Sololá	713	San Lucas Tolimán	10	San Lucas Tolimán	10	Octubre	2023-10-31T00:00:00	2024-11-08T17:00:00	5	Humedad	87
156541	7	Sololá	713	San Lucas Tolimán	10	San Lucas Tolimán	10	Octubre	2023-10-31T00:00:00	2024-11-08T17:00:00	6	Velocidad del viento	3.2
156542	7	Sololá	713	San Lucas Tolimán	10	San Lucas Tolimán	10	Octubre	2023-10-31T00:00:00	2024-11-08T17:00:00	7	Dirección del viento	3.22
156543	7	Sololá	713	San Lucas Tolimán	10	San Lucas Tolimán	10	Octubre	2023-10-31T00:00:00	2024-11-08T17:00:00	1	Precipitación	0.4
156544	7	Sololá	713	San Lucas Tolimán	10	San Lucas Tolimán	10	Octubre	2023-10-31T00:00:00	2024-11-08T17:00:00	8	Radiación solar	112
156545	7	Sololá	713	San Lucas Tolimán	10	San Lucas Tolimán	10	Octubre	2023-10-31T00:00:00	2024-11-08T18:00:00	2	Temperatura media	17.1
156546	7	Sololá	713	San Lucas Tolimán	10	San Lucas Tolimán	10	Octubre	2023-10-31T00:00:00	2024-11-08T18:00:00	4	Temperatura máxima	17.3
156547	7	Sololá	713	San Lucas Tolimán	10	San Lucas Tolimán	10	Octubre	2023-10-31T00:00:00	2024-11-08T18:00:00	3	Temperatura mínima	17
156548	7	Sololá	713	San Lucas Tolimán	10	San Lucas Tolimán	10	Octubre	2023-10-31T00:00:00	2024-11-08T18:00:00	5	Humedad	87
156549	7	Sololá	713	San Lucas Tolimán	10	San Lucas Tolimán	10	Octubre	2023-10-31T00:00:00	2024-11-08T18:00:00	6	Velocidad del viento	4.8
156550	7	Sololá	713	San Lucas Tolimán	10	San Lucas Tolimán	10	Octubre	2023-10-31T00:00:00	2024-11-08T18:00:00	7	Dirección del viento	4.83
156551	7	Sololá	713	San Lucas Tolimán	10	San Lucas Tolimán	10	Octubre	2023-10-31T00:00:00	2024-11-08T18:00:00	1	Precipitación	0.4
156552	7	Sololá	713	San Lucas Tolimán	10	San Lucas Tolimán	10	Octubre	2023-10-31T00:00:00	2024-11-08T18:00:00	8	Radiación solar	10
156553	7	Sololá	713	San Lucas Tolimán	10	San Lucas Tolimán	10	Octubre	2023-10-31T00:00:00	2024-11-08T19:00:00	2	Temperatura media	17.1
156554	7	Sololá	713	San Lucas Tolimán	10	San Lucas Tolimán	10	Octubre	2023-10-31T00:00:00	2024-11-08T19:00:00	4	Temperatura máxima	17.2
156555	7	Sololá	713	San Lucas Tolimán	10	San Lucas Tolimán	10	Octubre	2023-10-31T00:00:00	2024-11-08T19:00:00	3	Temperatura mínima	16.9
156556	7	Sololá	713	San Lucas Tolimán	10	San Lucas Tolimán	10	Octubre	2023-10-31T00:00:00	2024-11-08T19:00:00	5	Humedad	85
156557	7	Sololá	713	San Lucas Tolimán	10	San Lucas Tolimán	10	Octubre	2023-10-31T00:00:00	2024-11-08T19:00:00	6	Velocidad del viento	4.8
156558	7	Sololá	713	San Lucas Tolimán	10	San Lucas Tolimán	10	Octubre	2023-10-31T00:00:00	2024-11-08T19:00:00	7	Dirección del viento	4.83
156559	7	Sololá	713	San Lucas Tolimán	10	San Lucas Tolimán	10	Octubre	2023-10-31T00:00:00	2024-11-08T19:00:00	1	Precipitación	0.2
156560	7	Sololá	713	San Lucas Tolimán	10	San Lucas Tolimán	10	Octubre	2023-10-31T00:00:00	2024-11-08T19:00:00	8	Radiación solar	0
156561	7	Sololá	713	San Lucas Tolimán	10	San Lucas Tolimán	10	Octubre	2023-10-31T00:00:00	2024-11-08T20:00:00	2	Temperatura media	17.3
156562	7	Sololá	713	San Lucas Tolimán	10	San Lucas Tolimán	10	Octubre	2023-10-31T00:00:00	2024-11-08T20:00:00	4	Temperatura máxima	17.3
156563	7	Sololá	713	San Lucas Tolimán	10	San Lucas Tolimán	10	Octubre	2023-10-31T00:00:00	2024-11-08T20:00:00	3	Temperatura mínima	16.9
156564	7	Sololá	713	San Lucas Tolimán	10	San Lucas Tolimán	10	Octubre	2023-10-31T00:00:00	2024-11-08T20:00:00	5	Humedad	80
156565	7	Sololá	713	San Lucas Tolimán	10	San Lucas Tolimán	10	Octubre	2023-10-31T00:00:00	2024-11-08T20:00:00	6	Velocidad del viento	4.8
156566	7	Sololá	713	San Lucas Tolimán	10	San Lucas Tolimán	10	Octubre	2023-10-31T00:00:00	2024-11-08T20:00:00	7	Dirección del viento	4.83
156567	7	Sololá	713	San Lucas Tolimán	10	San Lucas Tolimán	10	Octubre	2023-10-31T00:00:00	2024-11-08T20:00:00	1	Precipitación	0.4
156568	7	Sololá	713	San Lucas Tolimán	10	San Lucas Tolimán	10	Octubre	2023-10-31T00:00:00	2024-11-08T20:00:00	8	Radiación solar	0
156569	7	Sololá	713	San Lucas Tolimán	10	San Lucas Tolimán	10	Octubre	2023-10-31T00:00:00	2024-11-08T21:00:00	2	Temperatura media	17.7
156570	7	Sololá	713	San Lucas Tolimán	10	San Lucas Tolimán	10	Octubre	2023-10-31T00:00:00	2024-11-08T21:00:00	4	Temperatura máxima	17.8
156571	7	Sololá	713	San Lucas Tolimán	10	San Lucas Tolimán	10	Octubre	2023-10-31T00:00:00	2024-11-08T21:00:00	3	Temperatura mínima	17.3
156572	7	Sololá	713	San Lucas Tolimán	10	San Lucas Tolimán	10	Octubre	2023-10-31T00:00:00	2024-11-08T21:00:00	5	Humedad	77
156573	7	Sololá	713	San Lucas Tolimán	10	San Lucas Tolimán	10	Octubre	2023-10-31T00:00:00	2024-11-08T21:00:00	6	Velocidad del viento	8
156574	7	Sololá	713	San Lucas Tolimán	10	San Lucas Tolimán	10	Octubre	2023-10-31T00:00:00	2024-11-08T21:00:00	7	Dirección del viento	8.05
156575	7	Sololá	713	San Lucas Tolimán	10	San Lucas Tolimán	10	Octubre	2023-10-31T00:00:00	2024-11-08T21:00:00	1	Precipitación	0
156576	7	Sololá	713	San Lucas Tolimán	10	San Lucas Tolimán	10	Octubre	2023-10-31T00:00:00	2024-11-08T21:00:00	8	Radiación solar	0
156577	7	Sololá	713	San Lucas Tolimán	10	San Lucas Tolimán	10	Octubre	2023-10-31T00:00:00	2024-11-08T22:00:00	2	Temperatura media	17.6
156578	7	Sololá	713	San Lucas Tolimán	10	San Lucas Tolimán	10	Octubre	2023-10-31T00:00:00	2024-11-08T22:00:00	4	Temperatura máxima	17.7
156579	7	Sololá	713	San Lucas Tolimán	10	San Lucas Tolimán	10	Octubre	2023-10-31T00:00:00	2024-11-08T22:00:00	3	Temperatura mínima	16.9
156580	7	Sololá	713	San Lucas Tolimán	10	San Lucas Tolimán	10	Octubre	2023-10-31T00:00:00	2024-11-08T22:00:00	5	Humedad	77
156581	7	Sololá	713	San Lucas Tolimán	10	San Lucas Tolimán	10	Octubre	2023-10-31T00:00:00	2024-11-08T22:00:00	6	Velocidad del viento	8
156582	7	Sololá	713	San Lucas Tolimán	10	San Lucas Tolimán	10	Octubre	2023-10-31T00:00:00	2024-11-08T22:00:00	7	Dirección del viento	8.05
156583	7	Sololá	713	San Lucas Tolimán	10	San Lucas Tolimán	10	Octubre	2023-10-31T00:00:00	2024-11-08T22:00:00	1	Precipitación	0.2
156584	7	Sololá	713	San Lucas Tolimán	10	San Lucas Tolimán	10	Octubre	2023-10-31T00:00:00	2024-11-08T22:00:00	8	Radiación solar	0
156585	7	Sololá	713	San Lucas Tolimán	10	San Lucas Tolimán	10	Octubre	2023-10-31T00:00:00	2024-11-08T23:00:00	2	Temperatura media	16.2
156586	7	Sololá	713	San Lucas Tolimán	10	San Lucas Tolimán	10	Octubre	2023-10-31T00:00:00	2024-11-08T23:00:00	4	Temperatura máxima	17.6
156587	7	Sololá	713	San Lucas Tolimán	10	San Lucas Tolimán	10	Octubre	2023-10-31T00:00:00	2024-11-08T23:00:00	3	Temperatura mínima	16.1
156588	7	Sololá	713	San Lucas Tolimán	10	San Lucas Tolimán	10	Octubre	2023-10-31T00:00:00	2024-11-08T23:00:00	5	Humedad	85
156589	7	Sololá	713	San Lucas Tolimán	10	San Lucas Tolimán	10	Octubre	2023-10-31T00:00:00	2024-11-08T23:00:00	6	Velocidad del viento	4.8
156590	7	Sololá	713	San Lucas Tolimán	10	San Lucas Tolimán	10	Octubre	2023-10-31T00:00:00	2024-11-08T23:00:00	7	Dirección del viento	4.83
156591	7	Sololá	713	San Lucas Tolimán	10	San Lucas Tolimán	10	Octubre	2023-10-31T00:00:00	2024-11-08T23:00:00	1	Precipitación	0.4
156592	7	Sololá	713	San Lucas Tolimán	10	San Lucas Tolimán	10	Octubre	2023-10-31T00:00:00	2024-11-08T23:00:00	8	Radiación solar	0
156593	7	Sololá	713	San Lucas Tolimán	10	San Lucas Tolimán	11	Noviembre	2023-01-11T00:00:00	2024-11-08T00:00:00	2	Temperatura media	17.1
156594	7	Sololá	713	San Lucas Tolimán	10	San Lucas Tolimán	11	Noviembre	2023-01-11T00:00:00	2024-11-08T00:00:00	4	Temperatura máxima	17.2
156595	7	Sololá	713	San Lucas Tolimán	10	San Lucas Tolimán	11	Noviembre	2023-01-11T00:00:00	2024-11-08T00:00:00	3	Temperatura mínima	16
156596	7	Sololá	713	San Lucas Tolimán	10	San Lucas Tolimán	11	Noviembre	2023-01-11T00:00:00	2024-11-08T00:00:00	5	Humedad	80
156597	7	Sololá	713	San Lucas Tolimán	10	San Lucas Tolimán	11	Noviembre	2023-01-11T00:00:00	2024-11-08T00:00:00	6	Velocidad del viento	4.8
156598	7	Sololá	713	San Lucas Tolimán	10	San Lucas Tolimán	11	Noviembre	2023-01-11T00:00:00	2024-11-08T00:00:00	7	Dirección del viento	4.83
156599	7	Sololá	713	San Lucas Tolimán	10	San Lucas Tolimán	11	Noviembre	2023-01-11T00:00:00	2024-11-08T00:00:00	1	Precipitación	0.4
156600	7	Sololá	713	San Lucas Tolimán	10	San Lucas Tolimán	11	Noviembre	2023-01-11T00:00:00	2024-11-08T00:00:00	8	Radiación solar	0
156601	7	Sololá	713	San Lucas Tolimán	10	San Lucas Tolimán	11	Noviembre	2023-01-11T00:00:00	2024-11-08T01:00:00	2	Temperatura media	17.2
156602	7	Sololá	713	San Lucas Tolimán	10	San Lucas Tolimán	11	Noviembre	2023-01-11T00:00:00	2024-11-08T01:00:00	4	Temperatura máxima	17.7
156603	7	Sololá	713	San Lucas Tolimán	10	San Lucas Tolimán	11	Noviembre	2023-01-11T00:00:00	2024-11-08T01:00:00	3	Temperatura mínima	17.1
156604	7	Sololá	713	San Lucas Tolimán	10	San Lucas Tolimán	11	Noviembre	2023-01-11T00:00:00	2024-11-08T01:00:00	5	Humedad	76
156605	7	Sololá	713	San Lucas Tolimán	10	San Lucas Tolimán	11	Noviembre	2023-01-11T00:00:00	2024-11-08T01:00:00	6	Velocidad del viento	8
156606	7	Sololá	713	San Lucas Tolimán	10	San Lucas Tolimán	11	Noviembre	2023-01-11T00:00:00	2024-11-08T01:00:00	7	Dirección del viento	8.05
156607	7	Sololá	713	San Lucas Tolimán	10	San Lucas Tolimán	11	Noviembre	2023-01-11T00:00:00	2024-11-08T01:00:00	1	Precipitación	0.2
156608	7	Sololá	713	San Lucas Tolimán	10	San Lucas Tolimán	11	Noviembre	2023-01-11T00:00:00	2024-11-08T01:00:00	8	Radiación solar	0
156609	7	Sololá	713	San Lucas Tolimán	10	San Lucas Tolimán	11	Noviembre	2023-01-11T00:00:00	2024-11-08T02:00:00	2	Temperatura media	17.6
156610	7	Sololá	713	San Lucas Tolimán	10	San Lucas Tolimán	11	Noviembre	2023-01-11T00:00:00	2024-11-08T02:00:00	4	Temperatura máxima	18
156611	7	Sololá	713	San Lucas Tolimán	10	San Lucas Tolimán	11	Noviembre	2023-01-11T00:00:00	2024-11-08T02:00:00	3	Temperatura mínima	17.2
156612	7	Sololá	713	San Lucas Tolimán	10	San Lucas Tolimán	11	Noviembre	2023-01-11T00:00:00	2024-11-08T02:00:00	5	Humedad	72
156613	7	Sololá	713	San Lucas Tolimán	10	San Lucas Tolimán	11	Noviembre	2023-01-11T00:00:00	2024-11-08T02:00:00	6	Velocidad del viento	14.5
156614	7	Sololá	713	San Lucas Tolimán	10	San Lucas Tolimán	11	Noviembre	2023-01-11T00:00:00	2024-11-08T02:00:00	7	Dirección del viento	14.48
156615	7	Sololá	713	San Lucas Tolimán	10	San Lucas Tolimán	11	Noviembre	2023-01-11T00:00:00	2024-11-08T02:00:00	1	Precipitación	0
156616	7	Sololá	713	San Lucas Tolimán	10	San Lucas Tolimán	11	Noviembre	2023-01-11T00:00:00	2024-11-08T02:00:00	8	Radiación solar	0
156617	7	Sololá	713	San Lucas Tolimán	10	San Lucas Tolimán	11	Noviembre	2023-01-11T00:00:00	2024-11-08T03:00:00	2	Temperatura media	17.9
156618	7	Sololá	713	San Lucas Tolimán	10	San Lucas Tolimán	11	Noviembre	2023-01-11T00:00:00	2024-11-08T03:00:00	4	Temperatura máxima	17.9
156619	7	Sololá	713	San Lucas Tolimán	10	San Lucas Tolimán	11	Noviembre	2023-01-11T00:00:00	2024-11-08T03:00:00	3	Temperatura mínima	16.9
156620	7	Sololá	713	San Lucas Tolimán	10	San Lucas Tolimán	11	Noviembre	2023-01-11T00:00:00	2024-11-08T03:00:00	5	Humedad	70
156621	7	Sololá	713	San Lucas Tolimán	10	San Lucas Tolimán	11	Noviembre	2023-01-11T00:00:00	2024-11-08T03:00:00	6	Velocidad del viento	11.3
156622	7	Sololá	713	San Lucas Tolimán	10	San Lucas Tolimán	11	Noviembre	2023-01-11T00:00:00	2024-11-08T03:00:00	7	Dirección del viento	11.27
156623	7	Sololá	713	San Lucas Tolimán	10	San Lucas Tolimán	11	Noviembre	2023-01-11T00:00:00	2024-11-08T03:00:00	1	Precipitación	0
156624	7	Sololá	713	San Lucas Tolimán	10	San Lucas Tolimán	11	Noviembre	2023-01-11T00:00:00	2024-11-08T03:00:00	8	Radiación solar	0
156625	7	Sololá	713	San Lucas Tolimán	10	San Lucas Tolimán	11	Noviembre	2023-01-11T00:00:00	2024-11-08T04:00:00	2	Temperatura media	17.9
156626	7	Sololá	713	San Lucas Tolimán	10	San Lucas Tolimán	11	Noviembre	2023-01-11T00:00:00	2024-11-08T04:00:00	4	Temperatura máxima	18
156627	7	Sololá	713	San Lucas Tolimán	10	San Lucas Tolimán	11	Noviembre	2023-01-11T00:00:00	2024-11-08T04:00:00	3	Temperatura mínima	17.8
156628	7	Sololá	713	San Lucas Tolimán	10	San Lucas Tolimán	11	Noviembre	2023-01-11T00:00:00	2024-11-08T04:00:00	5	Humedad	71
156629	7	Sololá	713	San Lucas Tolimán	10	San Lucas Tolimán	11	Noviembre	2023-01-11T00:00:00	2024-11-08T04:00:00	6	Velocidad del viento	12.9
156630	7	Sololá	713	San Lucas Tolimán	10	San Lucas Tolimán	11	Noviembre	2023-01-11T00:00:00	2024-11-08T04:00:00	7	Dirección del viento	12.87
156631	7	Sololá	713	San Lucas Tolimán	10	San Lucas Tolimán	11	Noviembre	2023-01-11T00:00:00	2024-11-08T04:00:00	1	Precipitación	0
156632	7	Sololá	713	San Lucas Tolimán	10	San Lucas Tolimán	11	Noviembre	2023-01-11T00:00:00	2024-11-08T04:00:00	8	Radiación solar	0
156633	7	Sololá	713	San Lucas Tolimán	10	San Lucas Tolimán	11	Noviembre	2023-01-11T00:00:00	2024-11-08T05:00:00	2	Temperatura media	18.2
156634	7	Sololá	713	San Lucas Tolimán	10	San Lucas Tolimán	11	Noviembre	2023-01-11T00:00:00	2024-11-08T05:00:00	4	Temperatura máxima	18.2
156635	7	Sololá	713	San Lucas Tolimán	10	San Lucas Tolimán	11	Noviembre	2023-01-11T00:00:00	2024-11-08T05:00:00	3	Temperatura mínima	17.8
156636	7	Sololá	713	San Lucas Tolimán	10	San Lucas Tolimán	11	Noviembre	2023-01-11T00:00:00	2024-11-08T05:00:00	5	Humedad	73
156637	7	Sololá	713	San Lucas Tolimán	10	San Lucas Tolimán	11	Noviembre	2023-01-11T00:00:00	2024-11-08T05:00:00	6	Velocidad del viento	8
156638	7	Sololá	713	San Lucas Tolimán	10	San Lucas Tolimán	11	Noviembre	2023-01-11T00:00:00	2024-11-08T05:00:00	7	Dirección del viento	8.05
156639	7	Sololá	713	San Lucas Tolimán	10	San Lucas Tolimán	11	Noviembre	2023-01-11T00:00:00	2024-11-08T05:00:00	1	Precipitación	0
156640	7	Sololá	713	San Lucas Tolimán	10	San Lucas Tolimán	11	Noviembre	2023-01-11T00:00:00	2024-11-08T05:00:00	8	Radiación solar	0
156641	7	Sololá	713	San Lucas Tolimán	10	San Lucas Tolimán	11	Noviembre	2023-01-11T00:00:00	2024-11-08T06:00:00	2	Temperatura media	18.2
156642	7	Sololá	713	San Lucas Tolimán	10	San Lucas Tolimán	11	Noviembre	2023-01-11T00:00:00	2024-11-08T06:00:00	4	Temperatura máxima	18.3
156643	7	Sololá	713	San Lucas Tolimán	10	San Lucas Tolimán	11	Noviembre	2023-01-11T00:00:00	2024-11-08T06:00:00	3	Temperatura mínima	18
156644	7	Sololá	713	San Lucas Tolimán	10	San Lucas Tolimán	11	Noviembre	2023-01-11T00:00:00	2024-11-08T06:00:00	5	Humedad	72
156645	7	Sololá	713	San Lucas Tolimán	10	San Lucas Tolimán	11	Noviembre	2023-01-11T00:00:00	2024-11-08T06:00:00	6	Velocidad del viento	9.7
156646	7	Sololá	713	San Lucas Tolimán	10	San Lucas Tolimán	11	Noviembre	2023-01-11T00:00:00	2024-11-08T06:00:00	7	Dirección del viento	9.66
156647	7	Sololá	713	San Lucas Tolimán	10	San Lucas Tolimán	11	Noviembre	2023-01-11T00:00:00	2024-11-08T06:00:00	1	Precipitación	0
156648	7	Sololá	713	San Lucas Tolimán	10	San Lucas Tolimán	11	Noviembre	2023-01-11T00:00:00	2024-11-08T06:00:00	8	Radiación solar	0
156649	7	Sololá	713	San Lucas Tolimán	10	San Lucas Tolimán	11	Noviembre	2023-01-11T00:00:00	2024-11-08T07:00:00	2	Temperatura media	18.7
156650	7	Sololá	713	San Lucas Tolimán	10	San Lucas Tolimán	11	Noviembre	2023-01-11T00:00:00	2024-11-08T07:00:00	4	Temperatura máxima	18.8
156651	7	Sololá	713	San Lucas Tolimán	10	San Lucas Tolimán	11	Noviembre	2023-01-11T00:00:00	2024-11-08T07:00:00	3	Temperatura mínima	18.2
156652	7	Sololá	713	San Lucas Tolimán	10	San Lucas Tolimán	11	Noviembre	2023-01-11T00:00:00	2024-11-08T07:00:00	5	Humedad	73
156653	7	Sololá	713	San Lucas Tolimán	10	San Lucas Tolimán	11	Noviembre	2023-01-11T00:00:00	2024-11-08T07:00:00	6	Velocidad del viento	9.7
156654	7	Sololá	713	San Lucas Tolimán	10	San Lucas Tolimán	11	Noviembre	2023-01-11T00:00:00	2024-11-08T07:00:00	7	Dirección del viento	9.66
156655	7	Sololá	713	San Lucas Tolimán	10	San Lucas Tolimán	11	Noviembre	2023-01-11T00:00:00	2024-11-08T07:00:00	1	Precipitación	0
156656	7	Sololá	713	San Lucas Tolimán	10	San Lucas Tolimán	11	Noviembre	2023-01-11T00:00:00	2024-11-08T07:00:00	8	Radiación solar	35
156657	7	Sololá	713	San Lucas Tolimán	10	San Lucas Tolimán	11	Noviembre	2023-01-11T00:00:00	2024-11-08T08:00:00	2	Temperatura media	19.1
156658	7	Sololá	713	San Lucas Tolimán	10	San Lucas Tolimán	11	Noviembre	2023-01-11T00:00:00	2024-11-08T08:00:00	4	Temperatura máxima	19.3
156659	7	Sololá	713	San Lucas Tolimán	10	San Lucas Tolimán	11	Noviembre	2023-01-11T00:00:00	2024-11-08T08:00:00	3	Temperatura mínima	18.6
156660	7	Sololá	713	San Lucas Tolimán	10	San Lucas Tolimán	11	Noviembre	2023-01-11T00:00:00	2024-11-08T08:00:00	5	Humedad	72
156661	7	Sololá	713	San Lucas Tolimán	10	San Lucas Tolimán	11	Noviembre	2023-01-11T00:00:00	2024-11-08T08:00:00	6	Velocidad del viento	11.3
156662	7	Sololá	713	San Lucas Tolimán	10	San Lucas Tolimán	11	Noviembre	2023-01-11T00:00:00	2024-11-08T08:00:00	7	Dirección del viento	11.27
156663	7	Sololá	713	San Lucas Tolimán	10	San Lucas Tolimán	11	Noviembre	2023-01-11T00:00:00	2024-11-08T08:00:00	1	Precipitación	0
156664	7	Sololá	713	San Lucas Tolimán	10	San Lucas Tolimán	11	Noviembre	2023-01-11T00:00:00	2024-11-08T08:00:00	8	Radiación solar	199
156665	7	Sololá	713	San Lucas Tolimán	10	San Lucas Tolimán	11	Noviembre	2023-01-11T00:00:00	2024-11-08T09:00:00	2	Temperatura media	19.2
156666	7	Sololá	713	San Lucas Tolimán	10	San Lucas Tolimán	11	Noviembre	2023-01-11T00:00:00	2024-11-08T09:00:00	4	Temperatura máxima	19.2
156667	7	Sololá	713	San Lucas Tolimán	10	San Lucas Tolimán	11	Noviembre	2023-01-11T00:00:00	2024-11-08T09:00:00	3	Temperatura mínima	18.8
156668	7	Sololá	713	San Lucas Tolimán	10	San Lucas Tolimán	11	Noviembre	2023-01-11T00:00:00	2024-11-08T09:00:00	5	Humedad	72
156669	7	Sololá	713	San Lucas Tolimán	10	San Lucas Tolimán	11	Noviembre	2023-01-11T00:00:00	2024-11-08T09:00:00	6	Velocidad del viento	9.7
156670	7	Sololá	713	San Lucas Tolimán	10	San Lucas Tolimán	11	Noviembre	2023-01-11T00:00:00	2024-11-08T09:00:00	7	Dirección del viento	9.66
156671	7	Sololá	713	San Lucas Tolimán	10	San Lucas Tolimán	11	Noviembre	2023-01-11T00:00:00	2024-11-08T09:00:00	1	Precipitación	0
156672	7	Sololá	713	San Lucas Tolimán	10	San Lucas Tolimán	11	Noviembre	2023-01-11T00:00:00	2024-11-08T09:00:00	8	Radiación solar	279
156673	7	Sololá	713	San Lucas Tolimán	10	San Lucas Tolimán	11	Noviembre	2023-01-11T00:00:00	2024-11-08T10:00:00	2	Temperatura media	20.1
156674	7	Sololá	713	San Lucas Tolimán	10	San Lucas Tolimán	11	Noviembre	2023-01-11T00:00:00	2024-11-08T10:00:00	4	Temperatura máxima	20.1
156675	7	Sololá	713	San Lucas Tolimán	10	San Lucas Tolimán	11	Noviembre	2023-01-11T00:00:00	2024-11-08T10:00:00	3	Temperatura mínima	19.2
156676	7	Sololá	713	San Lucas Tolimán	10	San Lucas Tolimán	11	Noviembre	2023-01-11T00:00:00	2024-11-08T10:00:00	5	Humedad	70
156677	7	Sololá	713	San Lucas Tolimán	10	San Lucas Tolimán	11	Noviembre	2023-01-11T00:00:00	2024-11-08T10:00:00	6	Velocidad del viento	12.9
156678	7	Sololá	713	San Lucas Tolimán	10	San Lucas Tolimán	11	Noviembre	2023-01-11T00:00:00	2024-11-08T10:00:00	7	Dirección del viento	12.87
156679	7	Sololá	713	San Lucas Tolimán	10	San Lucas Tolimán	11	Noviembre	2023-01-11T00:00:00	2024-11-08T10:00:00	1	Precipitación	0
156680	7	Sololá	713	San Lucas Tolimán	10	San Lucas Tolimán	11	Noviembre	2023-01-11T00:00:00	2024-11-08T10:00:00	8	Radiación solar	242
156681	7	Sololá	713	San Lucas Tolimán	10	San Lucas Tolimán	11	Noviembre	2023-01-11T00:00:00	2024-11-08T11:00:00	2	Temperatura media	20.3
156682	7	Sololá	713	San Lucas Tolimán	10	San Lucas Tolimán	11	Noviembre	2023-01-11T00:00:00	2024-11-08T11:00:00	4	Temperatura máxima	20.6
156683	7	Sololá	713	San Lucas Tolimán	10	San Lucas Tolimán	11	Noviembre	2023-01-11T00:00:00	2024-11-08T11:00:00	3	Temperatura mínima	20.1
156684	7	Sololá	713	San Lucas Tolimán	10	San Lucas Tolimán	11	Noviembre	2023-01-11T00:00:00	2024-11-08T11:00:00	5	Humedad	70
156685	7	Sololá	713	San Lucas Tolimán	10	San Lucas Tolimán	11	Noviembre	2023-01-11T00:00:00	2024-11-08T11:00:00	6	Velocidad del viento	12.9
156686	7	Sololá	713	San Lucas Tolimán	10	San Lucas Tolimán	11	Noviembre	2023-01-11T00:00:00	2024-11-08T11:00:00	7	Dirección del viento	12.87
156687	7	Sololá	713	San Lucas Tolimán	10	San Lucas Tolimán	11	Noviembre	2023-01-11T00:00:00	2024-11-08T11:00:00	1	Precipitación	0
156688	7	Sololá	713	San Lucas Tolimán	10	San Lucas Tolimán	11	Noviembre	2023-01-11T00:00:00	2024-11-08T11:00:00	8	Radiación solar	302
156689	7	Sololá	713	San Lucas Tolimán	10	San Lucas Tolimán	11	Noviembre	2023-01-11T00:00:00	2024-11-08T12:00:00	2	Temperatura media	20.7
156690	7	Sololá	713	San Lucas Tolimán	10	San Lucas Tolimán	11	Noviembre	2023-01-11T00:00:00	2024-11-08T12:00:00	4	Temperatura máxima	20.7
156691	7	Sololá	713	San Lucas Tolimán	10	San Lucas Tolimán	11	Noviembre	2023-01-11T00:00:00	2024-11-08T12:00:00	3	Temperatura mínima	20.3
156692	7	Sololá	713	San Lucas Tolimán	10	San Lucas Tolimán	11	Noviembre	2023-01-11T00:00:00	2024-11-08T12:00:00	5	Humedad	71
156693	7	Sololá	713	San Lucas Tolimán	10	San Lucas Tolimán	11	Noviembre	2023-01-11T00:00:00	2024-11-08T12:00:00	6	Velocidad del viento	6.4
156694	7	Sololá	713	San Lucas Tolimán	10	San Lucas Tolimán	11	Noviembre	2023-01-11T00:00:00	2024-11-08T12:00:00	7	Dirección del viento	6.44
156695	7	Sololá	713	San Lucas Tolimán	10	San Lucas Tolimán	11	Noviembre	2023-01-11T00:00:00	2024-11-08T12:00:00	1	Precipitación	0
156696	7	Sololá	713	San Lucas Tolimán	10	San Lucas Tolimán	11	Noviembre	2023-01-11T00:00:00	2024-11-08T12:00:00	8	Radiación solar	477
156697	7	Sololá	713	San Lucas Tolimán	10	San Lucas Tolimán	11	Noviembre	2023-01-11T00:00:00	2024-11-08T13:00:00	2	Temperatura media	20.2
156698	7	Sololá	713	San Lucas Tolimán	10	San Lucas Tolimán	11	Noviembre	2023-01-11T00:00:00	2024-11-08T13:00:00	4	Temperatura máxima	20.7
156699	7	Sololá	713	San Lucas Tolimán	10	San Lucas Tolimán	11	Noviembre	2023-01-11T00:00:00	2024-11-08T13:00:00	3	Temperatura mínima	20.2
156700	7	Sololá	713	San Lucas Tolimán	10	San Lucas Tolimán	11	Noviembre	2023-01-11T00:00:00	2024-11-08T13:00:00	5	Humedad	71
156701	7	Sololá	713	San Lucas Tolimán	10	San Lucas Tolimán	11	Noviembre	2023-01-11T00:00:00	2024-11-08T13:00:00	6	Velocidad del viento	8
156702	7	Sololá	713	San Lucas Tolimán	10	San Lucas Tolimán	11	Noviembre	2023-01-11T00:00:00	2024-11-08T13:00:00	7	Dirección del viento	8.05
156703	7	Sololá	713	San Lucas Tolimán	10	San Lucas Tolimán	11	Noviembre	2023-01-11T00:00:00	2024-11-08T13:00:00	1	Precipitación	0
156704	7	Sololá	713	San Lucas Tolimán	10	San Lucas Tolimán	11	Noviembre	2023-01-11T00:00:00	2024-11-08T13:00:00	8	Radiación solar	508
156705	7	Sololá	713	San Lucas Tolimán	10	San Lucas Tolimán	11	Noviembre	2023-01-11T00:00:00	2024-11-08T14:00:00	2	Temperatura media	19.8
156706	7	Sololá	713	San Lucas Tolimán	10	San Lucas Tolimán	11	Noviembre	2023-01-11T00:00:00	2024-11-08T14:00:00	4	Temperatura máxima	20.3
156707	7	Sololá	713	San Lucas Tolimán	10	San Lucas Tolimán	11	Noviembre	2023-01-11T00:00:00	2024-11-08T14:00:00	3	Temperatura mínima	19.8
156708	7	Sololá	713	San Lucas Tolimán	10	San Lucas Tolimán	11	Noviembre	2023-01-11T00:00:00	2024-11-08T14:00:00	5	Humedad	73
156709	7	Sololá	713	San Lucas Tolimán	10	San Lucas Tolimán	11	Noviembre	2023-01-11T00:00:00	2024-11-08T14:00:00	6	Velocidad del viento	6.4
156710	7	Sololá	713	San Lucas Tolimán	10	San Lucas Tolimán	11	Noviembre	2023-01-11T00:00:00	2024-11-08T14:00:00	7	Dirección del viento	6.44
156711	7	Sololá	713	San Lucas Tolimán	10	San Lucas Tolimán	11	Noviembre	2023-01-11T00:00:00	2024-11-08T14:00:00	1	Precipitación	0
156712	7	Sololá	713	San Lucas Tolimán	10	San Lucas Tolimán	11	Noviembre	2023-01-11T00:00:00	2024-11-08T14:00:00	8	Radiación solar	206
156713	7	Sololá	713	San Lucas Tolimán	10	San Lucas Tolimán	11	Noviembre	2023-01-11T00:00:00	2024-11-08T15:00:00	2	Temperatura media	19.5
156714	7	Sololá	713	San Lucas Tolimán	10	San Lucas Tolimán	11	Noviembre	2023-01-11T00:00:00	2024-11-08T15:00:00	4	Temperatura máxima	19.9
156715	7	Sololá	713	San Lucas Tolimán	10	San Lucas Tolimán	11	Noviembre	2023-01-11T00:00:00	2024-11-08T15:00:00	3	Temperatura mínima	19.4
156716	7	Sololá	713	San Lucas Tolimán	10	San Lucas Tolimán	11	Noviembre	2023-01-11T00:00:00	2024-11-08T15:00:00	5	Humedad	72
156717	7	Sololá	713	San Lucas Tolimán	10	San Lucas Tolimán	11	Noviembre	2023-01-11T00:00:00	2024-11-08T15:00:00	6	Velocidad del viento	4.8
156718	7	Sololá	713	San Lucas Tolimán	10	San Lucas Tolimán	11	Noviembre	2023-01-11T00:00:00	2024-11-08T15:00:00	7	Dirección del viento	4.83
156719	7	Sololá	713	San Lucas Tolimán	10	San Lucas Tolimán	11	Noviembre	2023-01-11T00:00:00	2024-11-08T15:00:00	1	Precipitación	0
156720	7	Sololá	713	San Lucas Tolimán	10	San Lucas Tolimán	11	Noviembre	2023-01-11T00:00:00	2024-11-08T15:00:00	8	Radiación solar	252
156721	7	Sololá	713	San Lucas Tolimán	10	San Lucas Tolimán	11	Noviembre	2023-01-11T00:00:00	2024-11-08T16:00:00	2	Temperatura media	19.7
156722	7	Sololá	713	San Lucas Tolimán	10	San Lucas Tolimán	11	Noviembre	2023-01-11T00:00:00	2024-11-08T16:00:00	4	Temperatura máxima	19.7
156723	7	Sololá	713	San Lucas Tolimán	10	San Lucas Tolimán	11	Noviembre	2023-01-11T00:00:00	2024-11-08T16:00:00	3	Temperatura mínima	19.1
156724	7	Sololá	713	San Lucas Tolimán	10	San Lucas Tolimán	11	Noviembre	2023-01-11T00:00:00	2024-11-08T16:00:00	5	Humedad	70
156725	7	Sololá	713	San Lucas Tolimán	10	San Lucas Tolimán	11	Noviembre	2023-01-11T00:00:00	2024-11-08T16:00:00	6	Velocidad del viento	3.2
156726	7	Sololá	713	San Lucas Tolimán	10	San Lucas Tolimán	11	Noviembre	2023-01-11T00:00:00	2024-11-08T16:00:00	7	Dirección del viento	3.22
156727	7	Sololá	713	San Lucas Tolimán	10	San Lucas Tolimán	11	Noviembre	2023-01-11T00:00:00	2024-11-08T16:00:00	1	Precipitación	0
156728	7	Sololá	713	San Lucas Tolimán	10	San Lucas Tolimán	11	Noviembre	2023-01-11T00:00:00	2024-11-08T16:00:00	8	Radiación solar	167
156729	7	Sololá	713	San Lucas Tolimán	10	San Lucas Tolimán	11	Noviembre	2023-01-11T00:00:00	2024-11-08T17:00:00	2	Temperatura media	19.7
156730	7	Sololá	713	San Lucas Tolimán	10	San Lucas Tolimán	11	Noviembre	2023-01-11T00:00:00	2024-11-08T17:00:00	4	Temperatura máxima	19.9
156731	7	Sololá	713	San Lucas Tolimán	10	San Lucas Tolimán	11	Noviembre	2023-01-11T00:00:00	2024-11-08T17:00:00	3	Temperatura mínima	19.7
156732	7	Sololá	713	San Lucas Tolimán	10	San Lucas Tolimán	11	Noviembre	2023-01-11T00:00:00	2024-11-08T17:00:00	5	Humedad	71
156733	7	Sololá	713	San Lucas Tolimán	10	San Lucas Tolimán	11	Noviembre	2023-01-11T00:00:00	2024-11-08T17:00:00	6	Velocidad del viento	4.8
156734	7	Sololá	713	San Lucas Tolimán	10	San Lucas Tolimán	11	Noviembre	2023-01-11T00:00:00	2024-11-08T17:00:00	7	Dirección del viento	4.83
156735	7	Sololá	713	San Lucas Tolimán	10	San Lucas Tolimán	11	Noviembre	2023-01-11T00:00:00	2024-11-08T17:00:00	1	Precipitación	0
156736	7	Sololá	713	San Lucas Tolimán	10	San Lucas Tolimán	11	Noviembre	2023-01-11T00:00:00	2024-11-08T17:00:00	8	Radiación solar	71
156737	7	Sololá	713	San Lucas Tolimán	10	San Lucas Tolimán	11	Noviembre	2023-01-11T00:00:00	2024-11-08T18:00:00	2	Temperatura media	19.2
156738	7	Sololá	713	San Lucas Tolimán	10	San Lucas Tolimán	11	Noviembre	2023-01-11T00:00:00	2024-11-08T18:00:00	4	Temperatura máxima	19.7
156739	7	Sololá	713	San Lucas Tolimán	10	San Lucas Tolimán	11	Noviembre	2023-01-11T00:00:00	2024-11-08T18:00:00	3	Temperatura mínima	19
156740	7	Sololá	713	San Lucas Tolimán	10	San Lucas Tolimán	11	Noviembre	2023-01-11T00:00:00	2024-11-08T18:00:00	5	Humedad	73
156741	7	Sololá	713	San Lucas Tolimán	10	San Lucas Tolimán	11	Noviembre	2023-01-11T00:00:00	2024-11-08T18:00:00	6	Velocidad del viento	3.2
156742	7	Sololá	713	San Lucas Tolimán	10	San Lucas Tolimán	11	Noviembre	2023-01-11T00:00:00	2024-11-08T18:00:00	7	Dirección del viento	3.22
156743	7	Sololá	713	San Lucas Tolimán	10	San Lucas Tolimán	11	Noviembre	2023-01-11T00:00:00	2024-11-08T18:00:00	1	Precipitación	0
156744	7	Sololá	713	San Lucas Tolimán	10	San Lucas Tolimán	11	Noviembre	2023-01-11T00:00:00	2024-11-08T18:00:00	8	Radiación solar	11
156745	7	Sololá	713	San Lucas Tolimán	10	San Lucas Tolimán	11	Noviembre	2023-01-11T00:00:00	2024-11-08T19:00:00	2	Temperatura media	18.6
156746	7	Sololá	713	San Lucas Tolimán	10	San Lucas Tolimán	11	Noviembre	2023-01-11T00:00:00	2024-11-08T19:00:00	4	Temperatura máxima	19.3
156747	7	Sololá	713	San Lucas Tolimán	10	San Lucas Tolimán	11	Noviembre	2023-01-11T00:00:00	2024-11-08T19:00:00	3	Temperatura mínima	18.5
156748	7	Sololá	713	San Lucas Tolimán	10	San Lucas Tolimán	11	Noviembre	2023-01-11T00:00:00	2024-11-08T19:00:00	5	Humedad	75
156749	7	Sololá	713	San Lucas Tolimán	10	San Lucas Tolimán	11	Noviembre	2023-01-11T00:00:00	2024-11-08T19:00:00	6	Velocidad del viento	3.2
156750	7	Sololá	713	San Lucas Tolimán	10	San Lucas Tolimán	11	Noviembre	2023-01-11T00:00:00	2024-11-08T19:00:00	7	Dirección del viento	3.22
156751	7	Sololá	713	San Lucas Tolimán	10	San Lucas Tolimán	11	Noviembre	2023-01-11T00:00:00	2024-11-08T19:00:00	1	Precipitación	0
156752	7	Sololá	713	San Lucas Tolimán	10	San Lucas Tolimán	11	Noviembre	2023-01-11T00:00:00	2024-11-08T19:00:00	8	Radiación solar	0
156753	7	Sololá	713	San Lucas Tolimán	10	San Lucas Tolimán	11	Noviembre	2023-01-11T00:00:00	2024-11-08T20:00:00	2	Temperatura media	19.1
156754	7	Sololá	713	San Lucas Tolimán	10	San Lucas Tolimán	11	Noviembre	2023-01-11T00:00:00	2024-11-08T20:00:00	4	Temperatura máxima	19.2
156755	7	Sololá	713	San Lucas Tolimán	10	San Lucas Tolimán	11	Noviembre	2023-01-11T00:00:00	2024-11-08T20:00:00	3	Temperatura mínima	18.5
156756	7	Sololá	713	San Lucas Tolimán	10	San Lucas Tolimán	11	Noviembre	2023-01-11T00:00:00	2024-11-08T20:00:00	5	Humedad	73
156757	7	Sololá	713	San Lucas Tolimán	10	San Lucas Tolimán	11	Noviembre	2023-01-11T00:00:00	2024-11-08T20:00:00	6	Velocidad del viento	1.6
156758	7	Sololá	713	San Lucas Tolimán	10	San Lucas Tolimán	11	Noviembre	2023-01-11T00:00:00	2024-11-08T20:00:00	7	Dirección del viento	1.61
156759	7	Sololá	713	San Lucas Tolimán	10	San Lucas Tolimán	11	Noviembre	2023-01-11T00:00:00	2024-11-08T20:00:00	1	Precipitación	0
156760	7	Sololá	713	San Lucas Tolimán	10	San Lucas Tolimán	11	Noviembre	2023-01-11T00:00:00	2024-11-08T20:00:00	8	Radiación solar	0
156761	7	Sololá	713	San Lucas Tolimán	10	San Lucas Tolimán	11	Noviembre	2023-01-11T00:00:00	2024-11-08T21:00:00	2	Temperatura media	18.4
156762	7	Sololá	713	San Lucas Tolimán	10	San Lucas Tolimán	11	Noviembre	2023-01-11T00:00:00	2024-11-08T21:00:00	4	Temperatura máxima	19.1
156763	7	Sololá	713	San Lucas Tolimán	10	San Lucas Tolimán	11	Noviembre	2023-01-11T00:00:00	2024-11-08T21:00:00	3	Temperatura mínima	18.3
156764	7	Sololá	713	San Lucas Tolimán	10	San Lucas Tolimán	11	Noviembre	2023-01-11T00:00:00	2024-11-08T21:00:00	5	Humedad	75
156765	7	Sololá	713	San Lucas Tolimán	10	San Lucas Tolimán	11	Noviembre	2023-01-11T00:00:00	2024-11-08T21:00:00	6	Velocidad del viento	1.6
156766	7	Sololá	713	San Lucas Tolimán	10	San Lucas Tolimán	11	Noviembre	2023-01-11T00:00:00	2024-11-08T21:00:00	7	Dirección del viento	1.61
156767	7	Sololá	713	San Lucas Tolimán	10	San Lucas Tolimán	11	Noviembre	2023-01-11T00:00:00	2024-11-08T21:00:00	1	Precipitación	0
156768	7	Sololá	713	San Lucas Tolimán	10	San Lucas Tolimán	11	Noviembre	2023-01-11T00:00:00	2024-11-08T21:00:00	8	Radiación solar	0
156769	7	Sololá	713	San Lucas Tolimán	10	San Lucas Tolimán	11	Noviembre	2023-01-11T00:00:00	2024-11-08T22:00:00	2	Temperatura media	18.9
156770	7	Sololá	713	San Lucas Tolimán	10	San Lucas Tolimán	11	Noviembre	2023-01-11T00:00:00	2024-11-08T22:00:00	4	Temperatura máxima	19
156771	7	Sololá	713	San Lucas Tolimán	10	San Lucas Tolimán	11	Noviembre	2023-01-11T00:00:00	2024-11-08T22:00:00	3	Temperatura mínima	18.4
156772	7	Sololá	713	San Lucas Tolimán	10	San Lucas Tolimán	11	Noviembre	2023-01-11T00:00:00	2024-11-08T22:00:00	5	Humedad	74
156773	7	Sololá	713	San Lucas Tolimán	10	San Lucas Tolimán	11	Noviembre	2023-01-11T00:00:00	2024-11-08T22:00:00	6	Velocidad del viento	1.6
156774	7	Sololá	713	San Lucas Tolimán	10	San Lucas Tolimán	11	Noviembre	2023-01-11T00:00:00	2024-11-08T22:00:00	7	Dirección del viento	1.61
156775	7	Sololá	713	San Lucas Tolimán	10	San Lucas Tolimán	11	Noviembre	2023-01-11T00:00:00	2024-11-08T22:00:00	1	Precipitación	0
156776	7	Sololá	713	San Lucas Tolimán	10	San Lucas Tolimán	11	Noviembre	2023-01-11T00:00:00	2024-11-08T22:00:00	8	Radiación solar	0
156777	7	Sololá	713	San Lucas Tolimán	10	San Lucas Tolimán	11	Noviembre	2023-01-11T00:00:00	2024-11-08T23:00:00	2	Temperatura media	18.4
156778	7	Sololá	713	San Lucas Tolimán	10	San Lucas Tolimán	11	Noviembre	2023-01-11T00:00:00	2024-11-08T23:00:00	4	Temperatura máxima	18.9
156779	7	Sololá	713	San Lucas Tolimán	10	San Lucas Tolimán	11	Noviembre	2023-01-11T00:00:00	2024-11-08T23:00:00	3	Temperatura mínima	18.3
156780	7	Sololá	713	San Lucas Tolimán	10	San Lucas Tolimán	11	Noviembre	2023-01-11T00:00:00	2024-11-08T23:00:00	5	Humedad	74
156781	7	Sololá	713	San Lucas Tolimán	10	San Lucas Tolimán	11	Noviembre	2023-01-11T00:00:00	2024-11-08T23:00:00	6	Velocidad del viento	0
156782	7	Sololá	713	San Lucas Tolimán	10	San Lucas Tolimán	11	Noviembre	2023-01-11T00:00:00	2024-11-08T23:00:00	7	Dirección del viento	0
156783	7	Sololá	713	San Lucas Tolimán	10	San Lucas Tolimán	11	Noviembre	2023-01-11T00:00:00	2024-11-08T23:00:00	1	Precipitación	0
156784	7	Sololá	713	San Lucas Tolimán	10	San Lucas Tolimán	11	Noviembre	2023-01-11T00:00:00	2024-11-08T23:00:00	8	Radiación solar	0
156785	7	Sololá	713	San Lucas Tolimán	10	San Lucas Tolimán	11	Noviembre	2023-02-11T00:00:00	2024-11-08T00:00:00	2	Temperatura media	17.7
156786	7	Sololá	713	San Lucas Tolimán	10	San Lucas Tolimán	11	Noviembre	2023-02-11T00:00:00	2024-11-08T00:00:00	4	Temperatura máxima	18.4
156787	7	Sololá	713	San Lucas Tolimán	10	San Lucas Tolimán	11	Noviembre	2023-02-11T00:00:00	2024-11-08T00:00:00	3	Temperatura mínima	17.6
156788	7	Sololá	713	San Lucas Tolimán	10	San Lucas Tolimán	11	Noviembre	2023-02-11T00:00:00	2024-11-08T00:00:00	5	Humedad	76
156789	7	Sololá	713	San Lucas Tolimán	10	San Lucas Tolimán	11	Noviembre	2023-02-11T00:00:00	2024-11-08T00:00:00	6	Velocidad del viento	0
156790	7	Sololá	713	San Lucas Tolimán	10	San Lucas Tolimán	11	Noviembre	2023-02-11T00:00:00	2024-11-08T00:00:00	7	Dirección del viento	0
156791	7	Sololá	713	San Lucas Tolimán	10	San Lucas Tolimán	11	Noviembre	2023-02-11T00:00:00	2024-11-08T00:00:00	1	Precipitación	0
156792	7	Sololá	713	San Lucas Tolimán	10	San Lucas Tolimán	11	Noviembre	2023-02-11T00:00:00	2024-11-08T00:00:00	8	Radiación solar	0
156793	7	Sololá	713	San Lucas Tolimán	10	San Lucas Tolimán	11	Noviembre	2023-02-11T00:00:00	2024-11-08T01:00:00	2	Temperatura media	18
156794	7	Sololá	713	San Lucas Tolimán	10	San Lucas Tolimán	11	Noviembre	2023-02-11T00:00:00	2024-11-08T01:00:00	4	Temperatura máxima	18.1
156795	7	Sololá	713	San Lucas Tolimán	10	San Lucas Tolimán	11	Noviembre	2023-02-11T00:00:00	2024-11-08T01:00:00	3	Temperatura mínima	17.5
156796	7	Sololá	713	San Lucas Tolimán	10	San Lucas Tolimán	11	Noviembre	2023-02-11T00:00:00	2024-11-08T01:00:00	5	Humedad	75
156797	7	Sololá	713	San Lucas Tolimán	10	San Lucas Tolimán	11	Noviembre	2023-02-11T00:00:00	2024-11-08T01:00:00	6	Velocidad del viento	1.6
156798	7	Sololá	713	San Lucas Tolimán	10	San Lucas Tolimán	11	Noviembre	2023-02-11T00:00:00	2024-11-08T01:00:00	7	Dirección del viento	1.61
156799	7	Sololá	713	San Lucas Tolimán	10	San Lucas Tolimán	11	Noviembre	2023-02-11T00:00:00	2024-11-08T01:00:00	1	Precipitación	0
156800	7	Sololá	713	San Lucas Tolimán	10	San Lucas Tolimán	11	Noviembre	2023-02-11T00:00:00	2024-11-08T01:00:00	8	Radiación solar	0
156801	7	Sololá	713	San Lucas Tolimán	10	San Lucas Tolimán	11	Noviembre	2023-02-11T00:00:00	2024-11-08T02:00:00	2	Temperatura media	17.9
156802	7	Sololá	713	San Lucas Tolimán	10	San Lucas Tolimán	11	Noviembre	2023-02-11T00:00:00	2024-11-08T02:00:00	4	Temperatura máxima	18.9
156803	7	Sololá	713	San Lucas Tolimán	10	San Lucas Tolimán	11	Noviembre	2023-02-11T00:00:00	2024-11-08T02:00:00	3	Temperatura mínima	17.8
156804	7	Sololá	713	San Lucas Tolimán	10	San Lucas Tolimán	11	Noviembre	2023-02-11T00:00:00	2024-11-08T02:00:00	5	Humedad	76
156805	7	Sololá	713	San Lucas Tolimán	10	San Lucas Tolimán	11	Noviembre	2023-02-11T00:00:00	2024-11-08T02:00:00	6	Velocidad del viento	3.2
156806	7	Sololá	713	San Lucas Tolimán	10	San Lucas Tolimán	11	Noviembre	2023-02-11T00:00:00	2024-11-08T02:00:00	7	Dirección del viento	3.22
156807	7	Sololá	713	San Lucas Tolimán	10	San Lucas Tolimán	11	Noviembre	2023-02-11T00:00:00	2024-11-08T02:00:00	1	Precipitación	0
156808	7	Sololá	713	San Lucas Tolimán	10	San Lucas Tolimán	11	Noviembre	2023-02-11T00:00:00	2024-11-08T02:00:00	8	Radiación solar	0
156809	7	Sololá	713	San Lucas Tolimán	10	San Lucas Tolimán	11	Noviembre	2023-02-11T00:00:00	2024-11-08T03:00:00	2	Temperatura media	17.2
156810	7	Sololá	713	San Lucas Tolimán	10	San Lucas Tolimán	11	Noviembre	2023-02-11T00:00:00	2024-11-08T03:00:00	4	Temperatura máxima	17.9
156811	7	Sololá	713	San Lucas Tolimán	10	San Lucas Tolimán	11	Noviembre	2023-02-11T00:00:00	2024-11-08T03:00:00	3	Temperatura mínima	17.2
156812	7	Sololá	713	San Lucas Tolimán	10	San Lucas Tolimán	11	Noviembre	2023-02-11T00:00:00	2024-11-08T03:00:00	5	Humedad	81
156813	7	Sololá	713	San Lucas Tolimán	10	San Lucas Tolimán	11	Noviembre	2023-02-11T00:00:00	2024-11-08T03:00:00	6	Velocidad del viento	1.6
156814	7	Sololá	713	San Lucas Tolimán	10	San Lucas Tolimán	11	Noviembre	2023-02-11T00:00:00	2024-11-08T03:00:00	7	Dirección del viento	1.61
156815	7	Sololá	713	San Lucas Tolimán	10	San Lucas Tolimán	11	Noviembre	2023-02-11T00:00:00	2024-11-08T03:00:00	1	Precipitación	0
156816	7	Sololá	713	San Lucas Tolimán	10	San Lucas Tolimán	11	Noviembre	2023-02-11T00:00:00	2024-11-08T03:00:00	8	Radiación solar	0
156817	7	Sololá	713	San Lucas Tolimán	10	San Lucas Tolimán	11	Noviembre	2023-02-11T00:00:00	2024-11-08T04:00:00	2	Temperatura media	17.7
156818	7	Sololá	713	San Lucas Tolimán	10	San Lucas Tolimán	11	Noviembre	2023-02-11T00:00:00	2024-11-08T04:00:00	4	Temperatura máxima	17.7
156819	7	Sololá	713	San Lucas Tolimán	10	San Lucas Tolimán	11	Noviembre	2023-02-11T00:00:00	2024-11-08T04:00:00	3	Temperatura mínima	17.2
156820	7	Sololá	713	San Lucas Tolimán	10	San Lucas Tolimán	11	Noviembre	2023-02-11T00:00:00	2024-11-08T04:00:00	5	Humedad	79
156821	7	Sololá	713	San Lucas Tolimán	10	San Lucas Tolimán	11	Noviembre	2023-02-11T00:00:00	2024-11-08T04:00:00	6	Velocidad del viento	1.6
156822	7	Sololá	713	San Lucas Tolimán	10	San Lucas Tolimán	11	Noviembre	2023-02-11T00:00:00	2024-11-08T04:00:00	7	Dirección del viento	1.61
156823	7	Sololá	713	San Lucas Tolimán	10	San Lucas Tolimán	11	Noviembre	2023-02-11T00:00:00	2024-11-08T04:00:00	1	Precipitación	0
156824	7	Sololá	713	San Lucas Tolimán	10	San Lucas Tolimán	11	Noviembre	2023-02-11T00:00:00	2024-11-08T04:00:00	8	Radiación solar	0
156825	7	Sololá	713	San Lucas Tolimán	10	San Lucas Tolimán	11	Noviembre	2023-02-11T00:00:00	2024-11-08T05:00:00	2	Temperatura media	18.4
156826	7	Sololá	713	San Lucas Tolimán	10	San Lucas Tolimán	11	Noviembre	2023-02-11T00:00:00	2024-11-08T05:00:00	4	Temperatura máxima	18.4
156827	7	Sololá	713	San Lucas Tolimán	10	San Lucas Tolimán	11	Noviembre	2023-02-11T00:00:00	2024-11-08T05:00:00	3	Temperatura mínima	17.7
156828	7	Sololá	713	San Lucas Tolimán	10	San Lucas Tolimán	11	Noviembre	2023-02-11T00:00:00	2024-11-08T05:00:00	5	Humedad	76
156829	7	Sololá	713	San Lucas Tolimán	10	San Lucas Tolimán	11	Noviembre	2023-02-11T00:00:00	2024-11-08T05:00:00	6	Velocidad del viento	3.2
156830	7	Sololá	713	San Lucas Tolimán	10	San Lucas Tolimán	11	Noviembre	2023-02-11T00:00:00	2024-11-08T05:00:00	7	Dirección del viento	3.22
156831	7	Sololá	713	San Lucas Tolimán	10	San Lucas Tolimán	11	Noviembre	2023-02-11T00:00:00	2024-11-08T05:00:00	1	Precipitación	0
156832	7	Sololá	713	San Lucas Tolimán	10	San Lucas Tolimán	11	Noviembre	2023-02-11T00:00:00	2024-11-08T05:00:00	8	Radiación solar	0
156833	7	Sololá	713	San Lucas Tolimán	10	San Lucas Tolimán	11	Noviembre	2023-02-11T00:00:00	2024-11-08T06:00:00	2	Temperatura media	18.8
156834	7	Sololá	713	San Lucas Tolimán	10	San Lucas Tolimán	11	Noviembre	2023-02-11T00:00:00	2024-11-08T06:00:00	4	Temperatura máxima	18.8
156835	7	Sololá	713	San Lucas Tolimán	10	San Lucas Tolimán	11	Noviembre	2023-02-11T00:00:00	2024-11-08T06:00:00	3	Temperatura mínima	18.2
156836	7	Sololá	713	San Lucas Tolimán	10	San Lucas Tolimán	11	Noviembre	2023-02-11T00:00:00	2024-11-08T06:00:00	5	Humedad	76
156837	7	Sololá	713	San Lucas Tolimán	10	San Lucas Tolimán	11	Noviembre	2023-02-11T00:00:00	2024-11-08T06:00:00	6	Velocidad del viento	3.2
156838	7	Sololá	713	San Lucas Tolimán	10	San Lucas Tolimán	11	Noviembre	2023-02-11T00:00:00	2024-11-08T06:00:00	7	Dirección del viento	3.22
156839	7	Sololá	713	San Lucas Tolimán	10	San Lucas Tolimán	11	Noviembre	2023-02-11T00:00:00	2024-11-08T06:00:00	1	Precipitación	0
156840	7	Sololá	713	San Lucas Tolimán	10	San Lucas Tolimán	11	Noviembre	2023-02-11T00:00:00	2024-11-08T06:00:00	8	Radiación solar	0
156841	7	Sololá	713	San Lucas Tolimán	10	San Lucas Tolimán	11	Noviembre	2023-02-11T00:00:00	2024-11-08T07:00:00	2	Temperatura media	18.1
156842	7	Sololá	713	San Lucas Tolimán	10	San Lucas Tolimán	11	Noviembre	2023-02-11T00:00:00	2024-11-08T07:00:00	4	Temperatura máxima	18.8
156843	7	Sololá	713	San Lucas Tolimán	10	San Lucas Tolimán	11	Noviembre	2023-02-11T00:00:00	2024-11-08T07:00:00	3	Temperatura mínima	17.6
156844	7	Sololá	713	San Lucas Tolimán	10	San Lucas Tolimán	11	Noviembre	2023-02-11T00:00:00	2024-11-08T07:00:00	5	Humedad	80
156845	7	Sololá	713	San Lucas Tolimán	10	San Lucas Tolimán	11	Noviembre	2023-02-11T00:00:00	2024-11-08T07:00:00	6	Velocidad del viento	0
156846	7	Sololá	713	San Lucas Tolimán	10	San Lucas Tolimán	11	Noviembre	2023-02-11T00:00:00	2024-11-08T07:00:00	7	Dirección del viento	0
156847	7	Sololá	713	San Lucas Tolimán	10	San Lucas Tolimán	11	Noviembre	2023-02-11T00:00:00	2024-11-08T07:00:00	1	Precipitación	0
156848	7	Sololá	713	San Lucas Tolimán	10	San Lucas Tolimán	11	Noviembre	2023-02-11T00:00:00	2024-11-08T07:00:00	8	Radiación solar	43
156849	7	Sololá	713	San Lucas Tolimán	10	San Lucas Tolimán	11	Noviembre	2023-02-11T00:00:00	2024-11-08T08:00:00	2	Temperatura media	22.2
156850	7	Sololá	713	San Lucas Tolimán	10	San Lucas Tolimán	11	Noviembre	2023-02-11T00:00:00	2024-11-08T08:00:00	4	Temperatura máxima	22.2
156851	7	Sololá	713	San Lucas Tolimán	10	San Lucas Tolimán	11	Noviembre	2023-02-11T00:00:00	2024-11-08T08:00:00	3	Temperatura mínima	18.1
156852	7	Sololá	713	San Lucas Tolimán	10	San Lucas Tolimán	11	Noviembre	2023-02-11T00:00:00	2024-11-08T08:00:00	5	Humedad	68
156853	7	Sololá	713	San Lucas Tolimán	10	San Lucas Tolimán	11	Noviembre	2023-02-11T00:00:00	2024-11-08T08:00:00	6	Velocidad del viento	8
156854	7	Sololá	713	San Lucas Tolimán	10	San Lucas Tolimán	11	Noviembre	2023-02-11T00:00:00	2024-11-08T08:00:00	7	Dirección del viento	8.05
156855	7	Sololá	713	San Lucas Tolimán	10	San Lucas Tolimán	11	Noviembre	2023-02-11T00:00:00	2024-11-08T08:00:00	1	Precipitación	0
156856	7	Sololá	713	San Lucas Tolimán	10	San Lucas Tolimán	11	Noviembre	2023-02-11T00:00:00	2024-11-08T08:00:00	8	Radiación solar	166
156857	7	Sololá	713	San Lucas Tolimán	10	San Lucas Tolimán	11	Noviembre	2023-02-11T00:00:00	2024-11-08T09:00:00	2	Temperatura media	22.1
156858	7	Sololá	713	San Lucas Tolimán	10	San Lucas Tolimán	11	Noviembre	2023-02-11T00:00:00	2024-11-08T09:00:00	4	Temperatura máxima	22.4
156859	7	Sololá	713	San Lucas Tolimán	10	San Lucas Tolimán	11	Noviembre	2023-02-11T00:00:00	2024-11-08T09:00:00	3	Temperatura mínima	21.5
156860	7	Sololá	713	San Lucas Tolimán	10	San Lucas Tolimán	11	Noviembre	2023-02-11T00:00:00	2024-11-08T09:00:00	5	Humedad	67
156861	7	Sololá	713	San Lucas Tolimán	10	San Lucas Tolimán	11	Noviembre	2023-02-11T00:00:00	2024-11-08T09:00:00	6	Velocidad del viento	8
156862	7	Sololá	713	San Lucas Tolimán	10	San Lucas Tolimán	11	Noviembre	2023-02-11T00:00:00	2024-11-08T09:00:00	7	Dirección del viento	8.05
156863	7	Sololá	713	San Lucas Tolimán	10	San Lucas Tolimán	11	Noviembre	2023-02-11T00:00:00	2024-11-08T09:00:00	1	Precipitación	0
156864	7	Sololá	713	San Lucas Tolimán	10	San Lucas Tolimán	11	Noviembre	2023-02-11T00:00:00	2024-11-08T09:00:00	8	Radiación solar	490
156865	7	Sololá	713	San Lucas Tolimán	10	San Lucas Tolimán	11	Noviembre	2023-02-11T00:00:00	2024-11-08T10:00:00	2	Temperatura media	23
156866	7	Sololá	713	San Lucas Tolimán	10	San Lucas Tolimán	11	Noviembre	2023-02-11T00:00:00	2024-11-08T10:00:00	4	Temperatura máxima	23.1
156867	7	Sololá	713	San Lucas Tolimán	10	San Lucas Tolimán	11	Noviembre	2023-02-11T00:00:00	2024-11-08T10:00:00	3	Temperatura mínima	22.1
156868	7	Sololá	713	San Lucas Tolimán	10	San Lucas Tolimán	11	Noviembre	2023-02-11T00:00:00	2024-11-08T10:00:00	5	Humedad	64
156869	7	Sololá	713	San Lucas Tolimán	10	San Lucas Tolimán	11	Noviembre	2023-02-11T00:00:00	2024-11-08T10:00:00	6	Velocidad del viento	6.4
156870	7	Sololá	713	San Lucas Tolimán	10	San Lucas Tolimán	11	Noviembre	2023-02-11T00:00:00	2024-11-08T10:00:00	7	Dirección del viento	6.44
156871	7	Sololá	713	San Lucas Tolimán	10	San Lucas Tolimán	11	Noviembre	2023-02-11T00:00:00	2024-11-08T10:00:00	1	Precipitación	0
156872	7	Sololá	713	San Lucas Tolimán	10	San Lucas Tolimán	11	Noviembre	2023-02-11T00:00:00	2024-11-08T10:00:00	8	Radiación solar	585
156873	7	Sololá	713	San Lucas Tolimán	10	San Lucas Tolimán	11	Noviembre	2023-02-11T00:00:00	2024-11-08T11:00:00	2	Temperatura media	23.3
156874	7	Sololá	713	San Lucas Tolimán	10	San Lucas Tolimán	11	Noviembre	2023-02-11T00:00:00	2024-11-08T11:00:00	4	Temperatura máxima	23.7
156875	7	Sololá	713	San Lucas Tolimán	10	San Lucas Tolimán	11	Noviembre	2023-02-11T00:00:00	2024-11-08T11:00:00	3	Temperatura mínima	22.9
156876	7	Sololá	713	San Lucas Tolimán	10	San Lucas Tolimán	11	Noviembre	2023-02-11T00:00:00	2024-11-08T11:00:00	5	Humedad	64
156877	7	Sololá	713	San Lucas Tolimán	10	San Lucas Tolimán	11	Noviembre	2023-02-11T00:00:00	2024-11-08T11:00:00	6	Velocidad del viento	3.2
156878	7	Sololá	713	San Lucas Tolimán	10	San Lucas Tolimán	11	Noviembre	2023-02-11T00:00:00	2024-11-08T11:00:00	7	Dirección del viento	3.22
156879	7	Sololá	713	San Lucas Tolimán	10	San Lucas Tolimán	11	Noviembre	2023-02-11T00:00:00	2024-11-08T11:00:00	1	Precipitación	0
156880	7	Sololá	713	San Lucas Tolimán	10	San Lucas Tolimán	11	Noviembre	2023-02-11T00:00:00	2024-11-08T11:00:00	8	Radiación solar	794
156881	7	Sololá	713	San Lucas Tolimán	10	San Lucas Tolimán	11	Noviembre	2023-02-11T00:00:00	2024-11-08T12:00:00	2	Temperatura media	24
156882	7	Sololá	713	San Lucas Tolimán	10	San Lucas Tolimán	11	Noviembre	2023-02-11T00:00:00	2024-11-08T12:00:00	4	Temperatura máxima	24.5
156883	7	Sololá	713	San Lucas Tolimán	10	San Lucas Tolimán	11	Noviembre	2023-02-11T00:00:00	2024-11-08T12:00:00	3	Temperatura mínima	23.2
156884	7	Sololá	713	San Lucas Tolimán	10	San Lucas Tolimán	11	Noviembre	2023-02-11T00:00:00	2024-11-08T12:00:00	5	Humedad	63
156885	7	Sololá	713	San Lucas Tolimán	10	San Lucas Tolimán	11	Noviembre	2023-02-11T00:00:00	2024-11-08T12:00:00	6	Velocidad del viento	8
156886	7	Sololá	713	San Lucas Tolimán	10	San Lucas Tolimán	11	Noviembre	2023-02-11T00:00:00	2024-11-08T12:00:00	7	Dirección del viento	8.05
156887	7	Sololá	713	San Lucas Tolimán	10	San Lucas Tolimán	11	Noviembre	2023-02-11T00:00:00	2024-11-08T12:00:00	1	Precipitación	0
156888	7	Sololá	713	San Lucas Tolimán	10	San Lucas Tolimán	11	Noviembre	2023-02-11T00:00:00	2024-11-08T12:00:00	8	Radiación solar	883
156889	7	Sololá	713	San Lucas Tolimán	10	San Lucas Tolimán	11	Noviembre	2023-02-11T00:00:00	2024-11-08T13:00:00	2	Temperatura media	22.3
156890	7	Sololá	713	San Lucas Tolimán	10	San Lucas Tolimán	11	Noviembre	2023-02-11T00:00:00	2024-11-08T13:00:00	4	Temperatura máxima	24.1
156891	7	Sololá	713	San Lucas Tolimán	10	San Lucas Tolimán	11	Noviembre	2023-02-11T00:00:00	2024-11-08T13:00:00	3	Temperatura mínima	22.3
156892	7	Sololá	713	San Lucas Tolimán	10	San Lucas Tolimán	11	Noviembre	2023-02-11T00:00:00	2024-11-08T13:00:00	5	Humedad	82
156893	7	Sololá	713	San Lucas Tolimán	10	San Lucas Tolimán	11	Noviembre	2023-02-11T00:00:00	2024-11-08T13:00:00	6	Velocidad del viento	4.8
156894	7	Sololá	713	San Lucas Tolimán	10	San Lucas Tolimán	11	Noviembre	2023-02-11T00:00:00	2024-11-08T13:00:00	7	Dirección del viento	4.83
156895	7	Sololá	713	San Lucas Tolimán	10	San Lucas Tolimán	11	Noviembre	2023-02-11T00:00:00	2024-11-08T13:00:00	1	Precipitación	0
156896	7	Sololá	713	San Lucas Tolimán	10	San Lucas Tolimán	11	Noviembre	2023-02-11T00:00:00	2024-11-08T13:00:00	8	Radiación solar	929
156897	7	Sololá	713	San Lucas Tolimán	10	San Lucas Tolimán	11	Noviembre	2023-02-11T00:00:00	2024-11-08T14:00:00	2	Temperatura media	21.9
156898	7	Sololá	713	San Lucas Tolimán	10	San Lucas Tolimán	11	Noviembre	2023-02-11T00:00:00	2024-11-08T14:00:00	4	Temperatura máxima	22.2
156899	7	Sololá	713	San Lucas Tolimán	10	San Lucas Tolimán	11	Noviembre	2023-02-11T00:00:00	2024-11-08T14:00:00	3	Temperatura mínima	21
156900	7	Sololá	713	San Lucas Tolimán	10	San Lucas Tolimán	11	Noviembre	2023-02-11T00:00:00	2024-11-08T14:00:00	5	Humedad	81
156901	7	Sololá	713	San Lucas Tolimán	10	San Lucas Tolimán	11	Noviembre	2023-02-11T00:00:00	2024-11-08T14:00:00	6	Velocidad del viento	6.4
156902	7	Sololá	713	San Lucas Tolimán	10	San Lucas Tolimán	11	Noviembre	2023-02-11T00:00:00	2024-11-08T14:00:00	7	Dirección del viento	6.44
156903	7	Sololá	713	San Lucas Tolimán	10	San Lucas Tolimán	11	Noviembre	2023-02-11T00:00:00	2024-11-08T14:00:00	1	Precipitación	0
156904	7	Sololá	713	San Lucas Tolimán	10	San Lucas Tolimán	11	Noviembre	2023-02-11T00:00:00	2024-11-08T14:00:00	8	Radiación solar	877
156905	7	Sololá	713	San Lucas Tolimán	10	San Lucas Tolimán	11	Noviembre	2023-02-11T00:00:00	2024-11-08T15:00:00	2	Temperatura media	22.7
156906	7	Sololá	713	San Lucas Tolimán	10	San Lucas Tolimán	11	Noviembre	2023-02-11T00:00:00	2024-11-08T15:00:00	4	Temperatura máxima	22.7
156907	7	Sololá	713	San Lucas Tolimán	10	San Lucas Tolimán	11	Noviembre	2023-02-11T00:00:00	2024-11-08T15:00:00	3	Temperatura mínima	20.9
156908	7	Sololá	713	San Lucas Tolimán	10	San Lucas Tolimán	11	Noviembre	2023-02-11T00:00:00	2024-11-08T15:00:00	5	Humedad	69
156909	7	Sololá	713	San Lucas Tolimán	10	San Lucas Tolimán	11	Noviembre	2023-02-11T00:00:00	2024-11-08T15:00:00	6	Velocidad del viento	6.4
156910	7	Sololá	713	San Lucas Tolimán	10	San Lucas Tolimán	11	Noviembre	2023-02-11T00:00:00	2024-11-08T15:00:00	7	Dirección del viento	6.44
156911	7	Sololá	713	San Lucas Tolimán	10	San Lucas Tolimán	11	Noviembre	2023-02-11T00:00:00	2024-11-08T15:00:00	1	Precipitación	0
156912	7	Sololá	713	San Lucas Tolimán	10	San Lucas Tolimán	11	Noviembre	2023-02-11T00:00:00	2024-11-08T15:00:00	8	Radiación solar	655
156913	7	Sololá	713	San Lucas Tolimán	10	San Lucas Tolimán	11	Noviembre	2023-02-11T00:00:00	2024-11-08T16:00:00	2	Temperatura media	22.2
156914	7	Sololá	713	San Lucas Tolimán	10	San Lucas Tolimán	11	Noviembre	2023-02-11T00:00:00	2024-11-08T16:00:00	4	Temperatura máxima	23.6
156915	7	Sololá	713	San Lucas Tolimán	10	San Lucas Tolimán	11	Noviembre	2023-02-11T00:00:00	2024-11-08T16:00:00	3	Temperatura mínima	22.2
156916	7	Sololá	713	San Lucas Tolimán	10	San Lucas Tolimán	11	Noviembre	2023-02-11T00:00:00	2024-11-08T16:00:00	5	Humedad	67
156917	7	Sololá	713	San Lucas Tolimán	10	San Lucas Tolimán	11	Noviembre	2023-02-11T00:00:00	2024-11-08T16:00:00	6	Velocidad del viento	8
156918	7	Sololá	713	San Lucas Tolimán	10	San Lucas Tolimán	11	Noviembre	2023-02-11T00:00:00	2024-11-08T16:00:00	7	Dirección del viento	8.05
156919	7	Sololá	713	San Lucas Tolimán	10	San Lucas Tolimán	11	Noviembre	2023-02-11T00:00:00	2024-11-08T16:00:00	1	Precipitación	0
156920	7	Sololá	713	San Lucas Tolimán	10	San Lucas Tolimán	11	Noviembre	2023-02-11T00:00:00	2024-11-08T16:00:00	8	Radiación solar	378
156921	7	Sololá	713	San Lucas Tolimán	10	San Lucas Tolimán	11	Noviembre	2023-02-11T00:00:00	2024-11-08T17:00:00	2	Temperatura media	21.2
156922	7	Sololá	713	San Lucas Tolimán	10	San Lucas Tolimán	11	Noviembre	2023-02-11T00:00:00	2024-11-08T17:00:00	4	Temperatura máxima	22.2
156923	7	Sololá	713	San Lucas Tolimán	10	San Lucas Tolimán	11	Noviembre	2023-02-11T00:00:00	2024-11-08T17:00:00	3	Temperatura mínima	21.1
156924	7	Sololá	713	San Lucas Tolimán	10	San Lucas Tolimán	11	Noviembre	2023-02-11T00:00:00	2024-11-08T17:00:00	5	Humedad	51
156925	7	Sololá	713	San Lucas Tolimán	10	San Lucas Tolimán	11	Noviembre	2023-02-11T00:00:00	2024-11-08T17:00:00	6	Velocidad del viento	9.7
156926	7	Sololá	713	San Lucas Tolimán	10	San Lucas Tolimán	11	Noviembre	2023-02-11T00:00:00	2024-11-08T17:00:00	7	Dirección del viento	9.66
156927	7	Sololá	713	San Lucas Tolimán	10	San Lucas Tolimán	11	Noviembre	2023-02-11T00:00:00	2024-11-08T17:00:00	1	Precipitación	0
156928	7	Sololá	713	San Lucas Tolimán	10	San Lucas Tolimán	11	Noviembre	2023-02-11T00:00:00	2024-11-08T17:00:00	8	Radiación solar	159
156929	7	Sololá	713	San Lucas Tolimán	10	San Lucas Tolimán	11	Noviembre	2023-02-11T00:00:00	2024-11-08T18:00:00	2	Temperatura media	20.5
156930	7	Sololá	713	San Lucas Tolimán	10	San Lucas Tolimán	11	Noviembre	2023-02-11T00:00:00	2024-11-08T18:00:00	4	Temperatura máxima	21.2
156931	7	Sololá	713	San Lucas Tolimán	10	San Lucas Tolimán	11	Noviembre	2023-02-11T00:00:00	2024-11-08T18:00:00	3	Temperatura mínima	20.5
156932	7	Sololá	713	San Lucas Tolimán	10	San Lucas Tolimán	11	Noviembre	2023-02-11T00:00:00	2024-11-08T18:00:00	5	Humedad	54
156933	7	Sololá	713	San Lucas Tolimán	10	San Lucas Tolimán	11	Noviembre	2023-02-11T00:00:00	2024-11-08T18:00:00	6	Velocidad del viento	12.9
156934	7	Sololá	713	San Lucas Tolimán	10	San Lucas Tolimán	11	Noviembre	2023-02-11T00:00:00	2024-11-08T18:00:00	7	Dirección del viento	12.87
156935	7	Sololá	713	San Lucas Tolimán	10	San Lucas Tolimán	11	Noviembre	2023-02-11T00:00:00	2024-11-08T18:00:00	1	Precipitación	0
156936	7	Sololá	713	San Lucas Tolimán	10	San Lucas Tolimán	11	Noviembre	2023-02-11T00:00:00	2024-11-08T18:00:00	8	Radiación solar	14
156937	7	Sololá	713	San Lucas Tolimán	10	San Lucas Tolimán	11	Noviembre	2023-02-11T00:00:00	2024-11-08T19:00:00	2	Temperatura media	20.3
156938	7	Sololá	713	San Lucas Tolimán	10	San Lucas Tolimán	11	Noviembre	2023-02-11T00:00:00	2024-11-08T19:00:00	4	Temperatura máxima	20.6
156939	7	Sololá	713	San Lucas Tolimán	10	San Lucas Tolimán	11	Noviembre	2023-02-11T00:00:00	2024-11-08T19:00:00	3	Temperatura mínima	20.3
156940	7	Sololá	713	San Lucas Tolimán	10	San Lucas Tolimán	11	Noviembre	2023-02-11T00:00:00	2024-11-08T19:00:00	5	Humedad	54
156941	7	Sololá	713	San Lucas Tolimán	10	San Lucas Tolimán	11	Noviembre	2023-02-11T00:00:00	2024-11-08T19:00:00	6	Velocidad del viento	11.3
156942	7	Sololá	713	San Lucas Tolimán	10	San Lucas Tolimán	11	Noviembre	2023-02-11T00:00:00	2024-11-08T19:00:00	7	Dirección del viento	11.27
156943	7	Sololá	713	San Lucas Tolimán	10	San Lucas Tolimán	11	Noviembre	2023-02-11T00:00:00	2024-11-08T19:00:00	1	Precipitación	0
156944	7	Sololá	713	San Lucas Tolimán	10	San Lucas Tolimán	11	Noviembre	2023-02-11T00:00:00	2024-11-08T19:00:00	8	Radiación solar	0
156945	7	Sololá	713	San Lucas Tolimán	10	San Lucas Tolimán	11	Noviembre	2023-02-11T00:00:00	2024-11-08T20:00:00	2	Temperatura media	20.2
156946	7	Sololá	713	San Lucas Tolimán	10	San Lucas Tolimán	11	Noviembre	2023-02-11T00:00:00	2024-11-08T20:00:00	4	Temperatura máxima	20.5
156947	7	Sololá	713	San Lucas Tolimán	10	San Lucas Tolimán	11	Noviembre	2023-02-11T00:00:00	2024-11-08T20:00:00	3	Temperatura mínima	20.1
156948	7	Sololá	713	San Lucas Tolimán	10	San Lucas Tolimán	11	Noviembre	2023-02-11T00:00:00	2024-11-08T20:00:00	5	Humedad	55
156949	7	Sololá	713	San Lucas Tolimán	10	San Lucas Tolimán	11	Noviembre	2023-02-11T00:00:00	2024-11-08T20:00:00	6	Velocidad del viento	8
156950	7	Sololá	713	San Lucas Tolimán	10	San Lucas Tolimán	11	Noviembre	2023-02-11T00:00:00	2024-11-08T20:00:00	7	Dirección del viento	8.05
156951	7	Sololá	713	San Lucas Tolimán	10	San Lucas Tolimán	11	Noviembre	2023-02-11T00:00:00	2024-11-08T20:00:00	1	Precipitación	0
156952	7	Sololá	713	San Lucas Tolimán	10	San Lucas Tolimán	11	Noviembre	2023-02-11T00:00:00	2024-11-08T20:00:00	8	Radiación solar	0
156953	7	Sololá	713	San Lucas Tolimán	10	San Lucas Tolimán	11	Noviembre	2023-02-11T00:00:00	2024-11-08T21:00:00	2	Temperatura media	20.4
156954	7	Sololá	713	San Lucas Tolimán	10	San Lucas Tolimán	11	Noviembre	2023-02-11T00:00:00	2024-11-08T21:00:00	4	Temperatura máxima	20.6
156955	7	Sololá	713	San Lucas Tolimán	10	San Lucas Tolimán	11	Noviembre	2023-02-11T00:00:00	2024-11-08T21:00:00	3	Temperatura mínima	20.2
156956	7	Sololá	713	San Lucas Tolimán	10	San Lucas Tolimán	11	Noviembre	2023-02-11T00:00:00	2024-11-08T21:00:00	5	Humedad	54
156957	7	Sololá	713	San Lucas Tolimán	10	San Lucas Tolimán	11	Noviembre	2023-02-11T00:00:00	2024-11-08T21:00:00	6	Velocidad del viento	11.3
156958	7	Sololá	713	San Lucas Tolimán	10	San Lucas Tolimán	11	Noviembre	2023-02-11T00:00:00	2024-11-08T21:00:00	7	Dirección del viento	11.27
156959	7	Sololá	713	San Lucas Tolimán	10	San Lucas Tolimán	11	Noviembre	2023-02-11T00:00:00	2024-11-08T21:00:00	1	Precipitación	0
156960	7	Sololá	713	San Lucas Tolimán	10	San Lucas Tolimán	11	Noviembre	2023-02-11T00:00:00	2024-11-08T21:00:00	8	Radiación solar	0
156961	7	Sololá	713	San Lucas Tolimán	10	San Lucas Tolimán	11	Noviembre	2023-02-11T00:00:00	2024-11-08T22:00:00	2	Temperatura media	20.4
156962	7	Sololá	713	San Lucas Tolimán	10	San Lucas Tolimán	11	Noviembre	2023-02-11T00:00:00	2024-11-08T22:00:00	4	Temperatura máxima	20.6
156963	7	Sololá	713	San Lucas Tolimán	10	San Lucas Tolimán	11	Noviembre	2023-02-11T00:00:00	2024-11-08T22:00:00	3	Temperatura mínima	20.4
156964	7	Sololá	713	San Lucas Tolimán	10	San Lucas Tolimán	11	Noviembre	2023-02-11T00:00:00	2024-11-08T22:00:00	5	Humedad	53
156965	7	Sololá	713	San Lucas Tolimán	10	San Lucas Tolimán	11	Noviembre	2023-02-11T00:00:00	2024-11-08T22:00:00	6	Velocidad del viento	11.3
156966	7	Sololá	713	San Lucas Tolimán	10	San Lucas Tolimán	11	Noviembre	2023-02-11T00:00:00	2024-11-08T22:00:00	7	Dirección del viento	11.27
156967	7	Sololá	713	San Lucas Tolimán	10	San Lucas Tolimán	11	Noviembre	2023-02-11T00:00:00	2024-11-08T22:00:00	1	Precipitación	0
156968	7	Sololá	713	San Lucas Tolimán	10	San Lucas Tolimán	11	Noviembre	2023-02-11T00:00:00	2024-11-08T22:00:00	8	Radiación solar	0
156969	7	Sololá	713	San Lucas Tolimán	10	San Lucas Tolimán	11	Noviembre	2023-02-11T00:00:00	2024-11-08T23:00:00	2	Temperatura media	20.3
156970	7	Sololá	713	San Lucas Tolimán	10	San Lucas Tolimán	11	Noviembre	2023-02-11T00:00:00	2024-11-08T23:00:00	4	Temperatura máxima	20.4
156971	7	Sololá	713	San Lucas Tolimán	10	San Lucas Tolimán	11	Noviembre	2023-02-11T00:00:00	2024-11-08T23:00:00	3	Temperatura mínima	20.1
156972	7	Sololá	713	San Lucas Tolimán	10	San Lucas Tolimán	11	Noviembre	2023-02-11T00:00:00	2024-11-08T23:00:00	5	Humedad	71
156973	7	Sololá	713	San Lucas Tolimán	10	San Lucas Tolimán	11	Noviembre	2023-02-11T00:00:00	2024-11-08T23:00:00	6	Velocidad del viento	11.3
156974	7	Sololá	713	San Lucas Tolimán	10	San Lucas Tolimán	11	Noviembre	2023-02-11T00:00:00	2024-11-08T23:00:00	7	Dirección del viento	11.27
156975	7	Sololá	713	San Lucas Tolimán	10	San Lucas Tolimán	11	Noviembre	2023-02-11T00:00:00	2024-11-08T23:00:00	1	Precipitación	0
156976	7	Sololá	713	San Lucas Tolimán	10	San Lucas Tolimán	11	Noviembre	2023-02-11T00:00:00	2024-11-08T23:00:00	8	Radiación solar	0
156977	7	Sololá	713	San Lucas Tolimán	10	San Lucas Tolimán	11	Noviembre	2023-03-11T00:00:00	2024-11-08T00:00:00	2	Temperatura media	19.9
156978	7	Sololá	713	San Lucas Tolimán	10	San Lucas Tolimán	11	Noviembre	2023-03-11T00:00:00	2024-11-08T00:00:00	4	Temperatura máxima	20.3
156979	7	Sololá	713	San Lucas Tolimán	10	San Lucas Tolimán	11	Noviembre	2023-03-11T00:00:00	2024-11-08T00:00:00	3	Temperatura mínima	19.9
156980	7	Sololá	713	San Lucas Tolimán	10	San Lucas Tolimán	11	Noviembre	2023-03-11T00:00:00	2024-11-08T00:00:00	5	Humedad	71
156981	7	Sololá	713	San Lucas Tolimán	10	San Lucas Tolimán	11	Noviembre	2023-03-11T00:00:00	2024-11-08T00:00:00	6	Velocidad del viento	8
156982	7	Sololá	713	San Lucas Tolimán	10	San Lucas Tolimán	11	Noviembre	2023-03-11T00:00:00	2024-11-08T00:00:00	7	Dirección del viento	8.05
156983	7	Sololá	713	San Lucas Tolimán	10	San Lucas Tolimán	11	Noviembre	2023-03-11T00:00:00	2024-11-08T00:00:00	1	Precipitación	0
156984	7	Sololá	713	San Lucas Tolimán	10	San Lucas Tolimán	11	Noviembre	2023-03-11T00:00:00	2024-11-08T00:00:00	8	Radiación solar	0
156985	7	Sololá	713	San Lucas Tolimán	10	San Lucas Tolimán	11	Noviembre	2023-03-11T00:00:00	2024-11-08T01:00:00	2	Temperatura media	19.6
156986	7	Sololá	713	San Lucas Tolimán	10	San Lucas Tolimán	11	Noviembre	2023-03-11T00:00:00	2024-11-08T01:00:00	4	Temperatura máxima	19.9
156987	7	Sololá	713	San Lucas Tolimán	10	San Lucas Tolimán	11	Noviembre	2023-03-11T00:00:00	2024-11-08T01:00:00	3	Temperatura mínima	19.3
156988	7	Sololá	713	San Lucas Tolimán	10	San Lucas Tolimán	11	Noviembre	2023-03-11T00:00:00	2024-11-08T01:00:00	5	Humedad	69
156989	7	Sololá	713	San Lucas Tolimán	10	San Lucas Tolimán	11	Noviembre	2023-03-11T00:00:00	2024-11-08T01:00:00	6	Velocidad del viento	8
156990	7	Sololá	713	San Lucas Tolimán	10	San Lucas Tolimán	11	Noviembre	2023-03-11T00:00:00	2024-11-08T01:00:00	7	Dirección del viento	8.05
156991	7	Sololá	713	San Lucas Tolimán	10	San Lucas Tolimán	11	Noviembre	2023-03-11T00:00:00	2024-11-08T01:00:00	1	Precipitación	0
156992	7	Sololá	713	San Lucas Tolimán	10	San Lucas Tolimán	11	Noviembre	2023-03-11T00:00:00	2024-11-08T01:00:00	8	Radiación solar	0
156993	7	Sololá	713	San Lucas Tolimán	10	San Lucas Tolimán	11	Noviembre	2023-03-11T00:00:00	2024-11-08T02:00:00	2	Temperatura media	19.4
156994	7	Sololá	713	San Lucas Tolimán	10	San Lucas Tolimán	11	Noviembre	2023-03-11T00:00:00	2024-11-08T02:00:00	4	Temperatura máxima	19.6
156995	7	Sololá	713	San Lucas Tolimán	10	San Lucas Tolimán	11	Noviembre	2023-03-11T00:00:00	2024-11-08T02:00:00	3	Temperatura mínima	19.2
156996	7	Sololá	713	San Lucas Tolimán	10	San Lucas Tolimán	11	Noviembre	2023-03-11T00:00:00	2024-11-08T02:00:00	5	Humedad	68
156997	7	Sololá	713	San Lucas Tolimán	10	San Lucas Tolimán	11	Noviembre	2023-03-11T00:00:00	2024-11-08T02:00:00	6	Velocidad del viento	9.7
156998	7	Sololá	713	San Lucas Tolimán	10	San Lucas Tolimán	11	Noviembre	2023-03-11T00:00:00	2024-11-08T02:00:00	7	Dirección del viento	9.66
156999	7	Sololá	713	San Lucas Tolimán	10	San Lucas Tolimán	11	Noviembre	2023-03-11T00:00:00	2024-11-08T02:00:00	1	Precipitación	0
157000	7	Sololá	713	San Lucas Tolimán	10	San Lucas Tolimán	11	Noviembre	2023-03-11T00:00:00	2024-11-08T02:00:00	8	Radiación solar	0
157001	7	Sololá	713	San Lucas Tolimán	10	San Lucas Tolimán	11	Noviembre	2023-03-11T00:00:00	2024-11-08T03:00:00	2	Temperatura media	19.3
157002	7	Sololá	713	San Lucas Tolimán	10	San Lucas Tolimán	11	Noviembre	2023-03-11T00:00:00	2024-11-08T03:00:00	4	Temperatura máxima	19.5
157003	7	Sololá	713	San Lucas Tolimán	10	San Lucas Tolimán	11	Noviembre	2023-03-11T00:00:00	2024-11-08T03:00:00	3	Temperatura mínima	19.3
157004	7	Sololá	713	San Lucas Tolimán	10	San Lucas Tolimán	11	Noviembre	2023-03-11T00:00:00	2024-11-08T03:00:00	5	Humedad	68
157005	7	Sololá	713	San Lucas Tolimán	10	San Lucas Tolimán	11	Noviembre	2023-03-11T00:00:00	2024-11-08T03:00:00	6	Velocidad del viento	12.9
157006	7	Sololá	713	San Lucas Tolimán	10	San Lucas Tolimán	11	Noviembre	2023-03-11T00:00:00	2024-11-08T03:00:00	7	Dirección del viento	12.87
157007	7	Sololá	713	San Lucas Tolimán	10	San Lucas Tolimán	11	Noviembre	2023-03-11T00:00:00	2024-11-08T03:00:00	1	Precipitación	0
157008	7	Sololá	713	San Lucas Tolimán	10	San Lucas Tolimán	11	Noviembre	2023-03-11T00:00:00	2024-11-08T03:00:00	8	Radiación solar	0
157009	7	Sololá	713	San Lucas Tolimán	10	San Lucas Tolimán	11	Noviembre	2023-03-11T00:00:00	2024-11-08T04:00:00	2	Temperatura media	18.8
157010	7	Sololá	713	San Lucas Tolimán	10	San Lucas Tolimán	11	Noviembre	2023-03-11T00:00:00	2024-11-08T04:00:00	4	Temperatura máxima	19.3
157011	7	Sololá	713	San Lucas Tolimán	10	San Lucas Tolimán	11	Noviembre	2023-03-11T00:00:00	2024-11-08T04:00:00	3	Temperatura mínima	18.8
157012	7	Sololá	713	San Lucas Tolimán	10	San Lucas Tolimán	11	Noviembre	2023-03-11T00:00:00	2024-11-08T04:00:00	5	Humedad	70
157013	7	Sololá	713	San Lucas Tolimán	10	San Lucas Tolimán	11	Noviembre	2023-03-11T00:00:00	2024-11-08T04:00:00	6	Velocidad del viento	14.5
157014	7	Sololá	713	San Lucas Tolimán	10	San Lucas Tolimán	11	Noviembre	2023-03-11T00:00:00	2024-11-08T04:00:00	7	Dirección del viento	14.48
157015	7	Sololá	713	San Lucas Tolimán	10	San Lucas Tolimán	11	Noviembre	2023-03-11T00:00:00	2024-11-08T04:00:00	1	Precipitación	0
157016	7	Sololá	713	San Lucas Tolimán	10	San Lucas Tolimán	11	Noviembre	2023-03-11T00:00:00	2024-11-08T04:00:00	8	Radiación solar	0
157017	7	Sololá	713	San Lucas Tolimán	10	San Lucas Tolimán	11	Noviembre	2023-03-11T00:00:00	2024-11-08T05:00:00	2	Temperatura media	18.6
157018	7	Sololá	713	San Lucas Tolimán	10	San Lucas Tolimán	11	Noviembre	2023-03-11T00:00:00	2024-11-08T05:00:00	4	Temperatura máxima	18.9
157019	7	Sololá	713	San Lucas Tolimán	10	San Lucas Tolimán	11	Noviembre	2023-03-11T00:00:00	2024-11-08T05:00:00	3	Temperatura mínima	18.6
157020	7	Sololá	713	San Lucas Tolimán	10	San Lucas Tolimán	11	Noviembre	2023-03-11T00:00:00	2024-11-08T05:00:00	5	Humedad	69
157021	7	Sololá	713	San Lucas Tolimán	10	San Lucas Tolimán	11	Noviembre	2023-03-11T00:00:00	2024-11-08T05:00:00	6	Velocidad del viento	11.3
157022	7	Sololá	713	San Lucas Tolimán	10	San Lucas Tolimán	11	Noviembre	2023-03-11T00:00:00	2024-11-08T05:00:00	7	Dirección del viento	11.27
157023	7	Sololá	713	San Lucas Tolimán	10	San Lucas Tolimán	11	Noviembre	2023-03-11T00:00:00	2024-11-08T05:00:00	1	Precipitación	0
157024	7	Sololá	713	San Lucas Tolimán	10	San Lucas Tolimán	11	Noviembre	2023-03-11T00:00:00	2024-11-08T05:00:00	8	Radiación solar	0
157025	7	Sololá	713	San Lucas Tolimán	10	San Lucas Tolimán	11	Noviembre	2023-03-11T00:00:00	2024-11-08T06:00:00	2	Temperatura media	18.9
157026	7	Sololá	713	San Lucas Tolimán	10	San Lucas Tolimán	11	Noviembre	2023-03-11T00:00:00	2024-11-08T06:00:00	4	Temperatura máxima	19.1
157027	7	Sololá	713	San Lucas Tolimán	10	San Lucas Tolimán	11	Noviembre	2023-03-11T00:00:00	2024-11-08T06:00:00	3	Temperatura mínima	18.6
157028	7	Sololá	713	San Lucas Tolimán	10	San Lucas Tolimán	11	Noviembre	2023-03-11T00:00:00	2024-11-08T06:00:00	5	Humedad	66
157029	7	Sololá	713	San Lucas Tolimán	10	San Lucas Tolimán	11	Noviembre	2023-03-11T00:00:00	2024-11-08T06:00:00	6	Velocidad del viento	12.9
157030	7	Sololá	713	San Lucas Tolimán	10	San Lucas Tolimán	11	Noviembre	2023-03-11T00:00:00	2024-11-08T06:00:00	7	Dirección del viento	12.87
157031	7	Sololá	713	San Lucas Tolimán	10	San Lucas Tolimán	11	Noviembre	2023-03-11T00:00:00	2024-11-08T06:00:00	1	Precipitación	0
157032	7	Sololá	713	San Lucas Tolimán	10	San Lucas Tolimán	11	Noviembre	2023-03-11T00:00:00	2024-11-08T06:00:00	8	Radiación solar	0
157033	7	Sololá	713	San Lucas Tolimán	10	San Lucas Tolimán	11	Noviembre	2023-03-11T00:00:00	2024-11-08T07:00:00	2	Temperatura media	19
157034	7	Sololá	713	San Lucas Tolimán	10	San Lucas Tolimán	11	Noviembre	2023-03-11T00:00:00	2024-11-08T07:00:00	4	Temperatura máxima	19
157035	7	Sololá	713	San Lucas Tolimán	10	San Lucas Tolimán	11	Noviembre	2023-03-11T00:00:00	2024-11-08T07:00:00	3	Temperatura mínima	18.7
157036	7	Sololá	713	San Lucas Tolimán	10	San Lucas Tolimán	11	Noviembre	2023-03-11T00:00:00	2024-11-08T07:00:00	5	Humedad	67
157037	7	Sololá	713	San Lucas Tolimán	10	San Lucas Tolimán	11	Noviembre	2023-03-11T00:00:00	2024-11-08T07:00:00	6	Velocidad del viento	6.4
157038	7	Sololá	713	San Lucas Tolimán	10	San Lucas Tolimán	11	Noviembre	2023-03-11T00:00:00	2024-11-08T07:00:00	7	Dirección del viento	6.44
157039	7	Sololá	713	San Lucas Tolimán	10	San Lucas Tolimán	11	Noviembre	2023-03-11T00:00:00	2024-11-08T07:00:00	1	Precipitación	0
157040	7	Sololá	713	San Lucas Tolimán	10	San Lucas Tolimán	11	Noviembre	2023-03-11T00:00:00	2024-11-08T07:00:00	8	Radiación solar	25
157041	7	Sololá	713	San Lucas Tolimán	10	San Lucas Tolimán	11	Noviembre	2023-03-11T00:00:00	2024-11-08T08:00:00	2	Temperatura media	20.2
157042	7	Sololá	713	San Lucas Tolimán	10	San Lucas Tolimán	11	Noviembre	2023-03-11T00:00:00	2024-11-08T08:00:00	4	Temperatura máxima	20.2
157043	7	Sololá	713	San Lucas Tolimán	10	San Lucas Tolimán	11	Noviembre	2023-03-11T00:00:00	2024-11-08T08:00:00	3	Temperatura mínima	19
157044	7	Sololá	713	San Lucas Tolimán	10	San Lucas Tolimán	11	Noviembre	2023-03-11T00:00:00	2024-11-08T08:00:00	5	Humedad	64
157045	7	Sololá	713	San Lucas Tolimán	10	San Lucas Tolimán	11	Noviembre	2023-03-11T00:00:00	2024-11-08T08:00:00	6	Velocidad del viento	4.8
157046	7	Sololá	713	San Lucas Tolimán	10	San Lucas Tolimán	11	Noviembre	2023-03-11T00:00:00	2024-11-08T08:00:00	7	Dirección del viento	4.83
157047	7	Sololá	713	San Lucas Tolimán	10	San Lucas Tolimán	11	Noviembre	2023-03-11T00:00:00	2024-11-08T08:00:00	1	Precipitación	0
157048	7	Sololá	713	San Lucas Tolimán	10	San Lucas Tolimán	11	Noviembre	2023-03-11T00:00:00	2024-11-08T08:00:00	8	Radiación solar	143
157049	7	Sololá	713	San Lucas Tolimán	10	San Lucas Tolimán	11	Noviembre	2023-03-11T00:00:00	2024-11-08T09:00:00	2	Temperatura media	22.7
157050	7	Sololá	713	San Lucas Tolimán	10	San Lucas Tolimán	11	Noviembre	2023-03-11T00:00:00	2024-11-08T09:00:00	4	Temperatura máxima	22.7
157051	7	Sololá	713	San Lucas Tolimán	10	San Lucas Tolimán	11	Noviembre	2023-03-11T00:00:00	2024-11-08T09:00:00	3	Temperatura mínima	20.2
157052	7	Sololá	713	San Lucas Tolimán	10	San Lucas Tolimán	11	Noviembre	2023-03-11T00:00:00	2024-11-08T09:00:00	5	Humedad	59
157053	7	Sololá	713	San Lucas Tolimán	10	San Lucas Tolimán	11	Noviembre	2023-03-11T00:00:00	2024-11-08T09:00:00	6	Velocidad del viento	6.4
157054	7	Sololá	713	San Lucas Tolimán	10	San Lucas Tolimán	11	Noviembre	2023-03-11T00:00:00	2024-11-08T09:00:00	7	Dirección del viento	6.44
157055	7	Sololá	713	San Lucas Tolimán	10	San Lucas Tolimán	11	Noviembre	2023-03-11T00:00:00	2024-11-08T09:00:00	1	Precipitación	0
157056	7	Sololá	713	San Lucas Tolimán	10	San Lucas Tolimán	11	Noviembre	2023-03-11T00:00:00	2024-11-08T09:00:00	8	Radiación solar	209
157057	7	Sololá	713	San Lucas Tolimán	10	San Lucas Tolimán	11	Noviembre	2023-03-11T00:00:00	2024-11-08T10:00:00	2	Temperatura media	22.7
157058	7	Sololá	713	San Lucas Tolimán	10	San Lucas Tolimán	11	Noviembre	2023-03-11T00:00:00	2024-11-08T10:00:00	4	Temperatura máxima	23.2
157059	7	Sololá	713	San Lucas Tolimán	10	San Lucas Tolimán	11	Noviembre	2023-03-11T00:00:00	2024-11-08T10:00:00	3	Temperatura mínima	22.7
157060	7	Sololá	713	San Lucas Tolimán	10	San Lucas Tolimán	11	Noviembre	2023-03-11T00:00:00	2024-11-08T10:00:00	5	Humedad	60
157061	7	Sololá	713	San Lucas Tolimán	10	San Lucas Tolimán	11	Noviembre	2023-03-11T00:00:00	2024-11-08T10:00:00	6	Velocidad del viento	8
157062	7	Sololá	713	San Lucas Tolimán	10	San Lucas Tolimán	11	Noviembre	2023-03-11T00:00:00	2024-11-08T10:00:00	7	Dirección del viento	8.05
157063	7	Sololá	713	San Lucas Tolimán	10	San Lucas Tolimán	11	Noviembre	2023-03-11T00:00:00	2024-11-08T10:00:00	1	Precipitación	0
157064	7	Sololá	713	San Lucas Tolimán	10	San Lucas Tolimán	11	Noviembre	2023-03-11T00:00:00	2024-11-08T10:00:00	8	Radiación solar	499
157065	7	Sololá	713	San Lucas Tolimán	10	San Lucas Tolimán	11	Noviembre	2023-03-11T00:00:00	2024-11-08T11:00:00	2	Temperatura media	22.6
157066	7	Sololá	713	San Lucas Tolimán	10	San Lucas Tolimán	11	Noviembre	2023-03-11T00:00:00	2024-11-08T11:00:00	4	Temperatura máxima	22.7
157067	7	Sololá	713	San Lucas Tolimán	10	San Lucas Tolimán	11	Noviembre	2023-03-11T00:00:00	2024-11-08T11:00:00	3	Temperatura mínima	22.1
157068	7	Sololá	713	San Lucas Tolimán	10	San Lucas Tolimán	11	Noviembre	2023-03-11T00:00:00	2024-11-08T11:00:00	5	Humedad	61
157069	7	Sololá	713	San Lucas Tolimán	10	San Lucas Tolimán	11	Noviembre	2023-03-11T00:00:00	2024-11-08T11:00:00	6	Velocidad del viento	6.4
157070	7	Sololá	713	San Lucas Tolimán	10	San Lucas Tolimán	11	Noviembre	2023-03-11T00:00:00	2024-11-08T11:00:00	7	Dirección del viento	6.44
157071	7	Sololá	713	San Lucas Tolimán	10	San Lucas Tolimán	11	Noviembre	2023-03-11T00:00:00	2024-11-08T11:00:00	1	Precipitación	0
157072	7	Sololá	713	San Lucas Tolimán	10	San Lucas Tolimán	11	Noviembre	2023-03-11T00:00:00	2024-11-08T11:00:00	8	Radiación solar	809
157073	7	Sololá	713	San Lucas Tolimán	10	San Lucas Tolimán	11	Noviembre	2023-03-11T00:00:00	2024-11-08T12:00:00	2	Temperatura media	23.3
157074	7	Sololá	713	San Lucas Tolimán	10	San Lucas Tolimán	11	Noviembre	2023-03-11T00:00:00	2024-11-08T12:00:00	4	Temperatura máxima	23.4
157075	7	Sololá	713	San Lucas Tolimán	10	San Lucas Tolimán	11	Noviembre	2023-03-11T00:00:00	2024-11-08T12:00:00	3	Temperatura mínima	22.6
157076	7	Sololá	713	San Lucas Tolimán	10	San Lucas Tolimán	11	Noviembre	2023-03-11T00:00:00	2024-11-08T12:00:00	5	Humedad	61
157077	7	Sololá	713	San Lucas Tolimán	10	San Lucas Tolimán	11	Noviembre	2023-03-11T00:00:00	2024-11-08T12:00:00	6	Velocidad del viento	8
157078	7	Sololá	713	San Lucas Tolimán	10	San Lucas Tolimán	11	Noviembre	2023-03-11T00:00:00	2024-11-08T12:00:00	7	Dirección del viento	8.05
157079	7	Sololá	713	San Lucas Tolimán	10	San Lucas Tolimán	11	Noviembre	2023-03-11T00:00:00	2024-11-08T12:00:00	1	Precipitación	0
157080	7	Sololá	713	San Lucas Tolimán	10	San Lucas Tolimán	11	Noviembre	2023-03-11T00:00:00	2024-11-08T12:00:00	8	Radiación solar	587
157081	7	Sololá	713	San Lucas Tolimán	10	San Lucas Tolimán	11	Noviembre	2023-03-11T00:00:00	2024-11-08T13:00:00	2	Temperatura media	23.6
157082	7	Sololá	713	San Lucas Tolimán	10	San Lucas Tolimán	11	Noviembre	2023-03-11T00:00:00	2024-11-08T13:00:00	4	Temperatura máxima	23.9
157083	7	Sololá	713	San Lucas Tolimán	10	San Lucas Tolimán	11	Noviembre	2023-03-11T00:00:00	2024-11-08T13:00:00	3	Temperatura mínima	23.3
157084	7	Sololá	713	San Lucas Tolimán	10	San Lucas Tolimán	11	Noviembre	2023-03-11T00:00:00	2024-11-08T13:00:00	5	Humedad	59
157085	7	Sololá	713	San Lucas Tolimán	10	San Lucas Tolimán	11	Noviembre	2023-03-11T00:00:00	2024-11-08T13:00:00	6	Velocidad del viento	11.3
157086	7	Sololá	713	San Lucas Tolimán	10	San Lucas Tolimán	11	Noviembre	2023-03-11T00:00:00	2024-11-08T13:00:00	7	Dirección del viento	11.27
157087	7	Sololá	713	San Lucas Tolimán	10	San Lucas Tolimán	11	Noviembre	2023-03-11T00:00:00	2024-11-08T13:00:00	1	Precipitación	0
157088	7	Sololá	713	San Lucas Tolimán	10	San Lucas Tolimán	11	Noviembre	2023-03-11T00:00:00	2024-11-08T13:00:00	8	Radiación solar	878
157089	7	Sololá	713	San Lucas Tolimán	10	San Lucas Tolimán	11	Noviembre	2023-03-11T00:00:00	2024-11-08T14:00:00	2	Temperatura media	22.6
157090	7	Sololá	713	San Lucas Tolimán	10	San Lucas Tolimán	11	Noviembre	2023-03-11T00:00:00	2024-11-08T14:00:00	4	Temperatura máxima	23.6
157091	7	Sololá	713	San Lucas Tolimán	10	San Lucas Tolimán	11	Noviembre	2023-03-11T00:00:00	2024-11-08T14:00:00	3	Temperatura mínima	22.6
157092	7	Sololá	713	San Lucas Tolimán	10	San Lucas Tolimán	11	Noviembre	2023-03-11T00:00:00	2024-11-08T14:00:00	5	Humedad	61
157093	7	Sololá	713	San Lucas Tolimán	10	San Lucas Tolimán	11	Noviembre	2023-03-11T00:00:00	2024-11-08T14:00:00	6	Velocidad del viento	11.3
157094	7	Sololá	713	San Lucas Tolimán	10	San Lucas Tolimán	11	Noviembre	2023-03-11T00:00:00	2024-11-08T14:00:00	7	Dirección del viento	11.27
157095	7	Sololá	713	San Lucas Tolimán	10	San Lucas Tolimán	11	Noviembre	2023-03-11T00:00:00	2024-11-08T14:00:00	1	Precipitación	0
157096	7	Sololá	713	San Lucas Tolimán	10	San Lucas Tolimán	11	Noviembre	2023-03-11T00:00:00	2024-11-08T14:00:00	8	Radiación solar	640
157097	7	Sololá	713	San Lucas Tolimán	10	San Lucas Tolimán	11	Noviembre	2023-03-11T00:00:00	2024-11-08T15:00:00	2	Temperatura media	22.3
157098	7	Sololá	713	San Lucas Tolimán	10	San Lucas Tolimán	11	Noviembre	2023-03-11T00:00:00	2024-11-08T15:00:00	4	Temperatura máxima	22.7
157099	7	Sololá	713	San Lucas Tolimán	10	San Lucas Tolimán	11	Noviembre	2023-03-11T00:00:00	2024-11-08T15:00:00	3	Temperatura mínima	22.2
157100	7	Sololá	713	San Lucas Tolimán	10	San Lucas Tolimán	11	Noviembre	2023-03-11T00:00:00	2024-11-08T15:00:00	5	Humedad	62
157101	7	Sololá	713	San Lucas Tolimán	10	San Lucas Tolimán	11	Noviembre	2023-03-11T00:00:00	2024-11-08T15:00:00	6	Velocidad del viento	11.3
157102	7	Sololá	713	San Lucas Tolimán	10	San Lucas Tolimán	11	Noviembre	2023-03-11T00:00:00	2024-11-08T15:00:00	7	Dirección del viento	11.27
157103	7	Sololá	713	San Lucas Tolimán	10	San Lucas Tolimán	11	Noviembre	2023-03-11T00:00:00	2024-11-08T15:00:00	1	Precipitación	0
157104	7	Sololá	713	San Lucas Tolimán	10	San Lucas Tolimán	11	Noviembre	2023-03-11T00:00:00	2024-11-08T15:00:00	8	Radiación solar	678
157105	7	Sololá	713	San Lucas Tolimán	10	San Lucas Tolimán	11	Noviembre	2023-03-11T00:00:00	2024-11-08T16:00:00	2	Temperatura media	22.2
157106	7	Sololá	713	San Lucas Tolimán	10	San Lucas Tolimán	11	Noviembre	2023-03-11T00:00:00	2024-11-08T16:00:00	4	Temperatura máxima	23.1
157107	7	Sololá	713	San Lucas Tolimán	10	San Lucas Tolimán	11	Noviembre	2023-03-11T00:00:00	2024-11-08T16:00:00	3	Temperatura mínima	22.2
157108	7	Sololá	713	San Lucas Tolimán	10	San Lucas Tolimán	11	Noviembre	2023-03-11T00:00:00	2024-11-08T16:00:00	5	Humedad	63
157109	7	Sololá	713	San Lucas Tolimán	10	San Lucas Tolimán	11	Noviembre	2023-03-11T00:00:00	2024-11-08T16:00:00	6	Velocidad del viento	14.5
157110	7	Sololá	713	San Lucas Tolimán	10	San Lucas Tolimán	11	Noviembre	2023-03-11T00:00:00	2024-11-08T16:00:00	7	Dirección del viento	14.48
157111	7	Sololá	713	San Lucas Tolimán	10	San Lucas Tolimán	11	Noviembre	2023-03-11T00:00:00	2024-11-08T16:00:00	1	Precipitación	0
157112	7	Sololá	713	San Lucas Tolimán	10	San Lucas Tolimán	11	Noviembre	2023-03-11T00:00:00	2024-11-08T16:00:00	8	Radiación solar	543
157113	7	Sololá	713	San Lucas Tolimán	10	San Lucas Tolimán	11	Noviembre	2023-03-11T00:00:00	2024-11-08T17:00:00	2	Temperatura media	21.6
157114	7	Sololá	713	San Lucas Tolimán	10	San Lucas Tolimán	11	Noviembre	2023-03-11T00:00:00	2024-11-08T17:00:00	4	Temperatura máxima	22.3
157115	7	Sololá	713	San Lucas Tolimán	10	San Lucas Tolimán	11	Noviembre	2023-03-11T00:00:00	2024-11-08T17:00:00	3	Temperatura mínima	21.6
157116	7	Sololá	713	San Lucas Tolimán	10	San Lucas Tolimán	11	Noviembre	2023-03-11T00:00:00	2024-11-08T17:00:00	5	Humedad	64
157117	7	Sololá	713	San Lucas Tolimán	10	San Lucas Tolimán	11	Noviembre	2023-03-11T00:00:00	2024-11-08T17:00:00	6	Velocidad del viento	12.9
157118	7	Sololá	713	San Lucas Tolimán	10	San Lucas Tolimán	11	Noviembre	2023-03-11T00:00:00	2024-11-08T17:00:00	7	Dirección del viento	12.87
157119	7	Sololá	713	San Lucas Tolimán	10	San Lucas Tolimán	11	Noviembre	2023-03-11T00:00:00	2024-11-08T17:00:00	1	Precipitación	0
157120	7	Sololá	713	San Lucas Tolimán	10	San Lucas Tolimán	11	Noviembre	2023-03-11T00:00:00	2024-11-08T17:00:00	8	Radiación solar	192
157121	7	Sololá	713	San Lucas Tolimán	10	San Lucas Tolimán	11	Noviembre	2023-03-11T00:00:00	2024-11-08T18:00:00	2	Temperatura media	20.8
157122	7	Sololá	713	San Lucas Tolimán	10	San Lucas Tolimán	11	Noviembre	2023-03-11T00:00:00	2024-11-08T18:00:00	4	Temperatura máxima	21.6
157123	7	Sololá	713	San Lucas Tolimán	10	San Lucas Tolimán	11	Noviembre	2023-03-11T00:00:00	2024-11-08T18:00:00	3	Temperatura mínima	20.8
157124	7	Sololá	713	San Lucas Tolimán	10	San Lucas Tolimán	11	Noviembre	2023-03-11T00:00:00	2024-11-08T18:00:00	5	Humedad	63
157125	7	Sololá	713	San Lucas Tolimán	10	San Lucas Tolimán	11	Noviembre	2023-03-11T00:00:00	2024-11-08T18:00:00	6	Velocidad del viento	12.9
157126	7	Sololá	713	San Lucas Tolimán	10	San Lucas Tolimán	11	Noviembre	2023-03-11T00:00:00	2024-11-08T18:00:00	7	Dirección del viento	12.87
157127	7	Sololá	713	San Lucas Tolimán	10	San Lucas Tolimán	11	Noviembre	2023-03-11T00:00:00	2024-11-08T18:00:00	1	Precipitación	0
157128	7	Sololá	713	San Lucas Tolimán	10	San Lucas Tolimán	11	Noviembre	2023-03-11T00:00:00	2024-11-08T18:00:00	8	Radiación solar	19
157129	7	Sololá	713	San Lucas Tolimán	10	San Lucas Tolimán	11	Noviembre	2023-03-11T00:00:00	2024-11-08T19:00:00	2	Temperatura media	20.6
157130	7	Sololá	713	San Lucas Tolimán	10	San Lucas Tolimán	11	Noviembre	2023-03-11T00:00:00	2024-11-08T19:00:00	4	Temperatura máxima	20.9
157131	7	Sololá	713	San Lucas Tolimán	10	San Lucas Tolimán	11	Noviembre	2023-03-11T00:00:00	2024-11-08T19:00:00	3	Temperatura mínima	20.5
157132	7	Sololá	713	San Lucas Tolimán	10	San Lucas Tolimán	11	Noviembre	2023-03-11T00:00:00	2024-11-08T19:00:00	5	Humedad	64
157133	7	Sololá	713	San Lucas Tolimán	10	San Lucas Tolimán	11	Noviembre	2023-03-11T00:00:00	2024-11-08T19:00:00	6	Velocidad del viento	12.9
157134	7	Sololá	713	San Lucas Tolimán	10	San Lucas Tolimán	11	Noviembre	2023-03-11T00:00:00	2024-11-08T19:00:00	7	Dirección del viento	12.87
157135	7	Sololá	713	San Lucas Tolimán	10	San Lucas Tolimán	11	Noviembre	2023-03-11T00:00:00	2024-11-08T19:00:00	1	Precipitación	0
157136	7	Sololá	713	San Lucas Tolimán	10	San Lucas Tolimán	11	Noviembre	2023-03-11T00:00:00	2024-11-08T19:00:00	8	Radiación solar	0
157137	7	Sololá	713	San Lucas Tolimán	10	San Lucas Tolimán	11	Noviembre	2023-03-11T00:00:00	2024-11-08T20:00:00	2	Temperatura media	20.5
157138	7	Sololá	713	San Lucas Tolimán	10	San Lucas Tolimán	11	Noviembre	2023-03-11T00:00:00	2024-11-08T20:00:00	4	Temperatura máxima	20.6
157139	7	Sololá	713	San Lucas Tolimán	10	San Lucas Tolimán	11	Noviembre	2023-03-11T00:00:00	2024-11-08T20:00:00	3	Temperatura mínima	20.3
157140	7	Sololá	713	San Lucas Tolimán	10	San Lucas Tolimán	11	Noviembre	2023-03-11T00:00:00	2024-11-08T20:00:00	5	Humedad	63
157141	7	Sololá	713	San Lucas Tolimán	10	San Lucas Tolimán	11	Noviembre	2023-03-11T00:00:00	2024-11-08T20:00:00	6	Velocidad del viento	12.9
157142	7	Sololá	713	San Lucas Tolimán	10	San Lucas Tolimán	11	Noviembre	2023-03-11T00:00:00	2024-11-08T20:00:00	7	Dirección del viento	12.87
157143	7	Sololá	713	San Lucas Tolimán	10	San Lucas Tolimán	11	Noviembre	2023-03-11T00:00:00	2024-11-08T20:00:00	1	Precipitación	0
157144	7	Sololá	713	San Lucas Tolimán	10	San Lucas Tolimán	11	Noviembre	2023-03-11T00:00:00	2024-11-08T20:00:00	8	Radiación solar	0
157145	7	Sololá	713	San Lucas Tolimán	10	San Lucas Tolimán	11	Noviembre	2023-03-11T00:00:00	2024-11-08T21:00:00	2	Temperatura media	20.8
157146	7	Sololá	713	San Lucas Tolimán	10	San Lucas Tolimán	11	Noviembre	2023-03-11T00:00:00	2024-11-08T21:00:00	4	Temperatura máxima	20.9
157147	7	Sololá	713	San Lucas Tolimán	10	San Lucas Tolimán	11	Noviembre	2023-03-11T00:00:00	2024-11-08T21:00:00	3	Temperatura mínima	20.4
157148	7	Sololá	713	San Lucas Tolimán	10	San Lucas Tolimán	11	Noviembre	2023-03-11T00:00:00	2024-11-08T21:00:00	5	Humedad	63
157149	7	Sololá	713	San Lucas Tolimán	10	San Lucas Tolimán	11	Noviembre	2023-03-11T00:00:00	2024-11-08T21:00:00	6	Velocidad del viento	12.9
157150	7	Sololá	713	San Lucas Tolimán	10	San Lucas Tolimán	11	Noviembre	2023-03-11T00:00:00	2024-11-08T21:00:00	7	Dirección del viento	12.87
157151	7	Sololá	713	San Lucas Tolimán	10	San Lucas Tolimán	11	Noviembre	2023-03-11T00:00:00	2024-11-08T21:00:00	1	Precipitación	0
157152	7	Sololá	713	San Lucas Tolimán	10	San Lucas Tolimán	11	Noviembre	2023-03-11T00:00:00	2024-11-08T21:00:00	8	Radiación solar	0
157153	7	Sololá	713	San Lucas Tolimán	10	San Lucas Tolimán	11	Noviembre	2023-03-11T00:00:00	2024-11-08T22:00:00	2	Temperatura media	20.2
157154	7	Sololá	713	San Lucas Tolimán	10	San Lucas Tolimán	11	Noviembre	2023-03-11T00:00:00	2024-11-08T22:00:00	4	Temperatura máxima	20.8
157155	7	Sololá	713	San Lucas Tolimán	10	San Lucas Tolimán	11	Noviembre	2023-03-11T00:00:00	2024-11-08T22:00:00	3	Temperatura mínima	20.2
157156	7	Sololá	713	San Lucas Tolimán	10	San Lucas Tolimán	11	Noviembre	2023-03-11T00:00:00	2024-11-08T22:00:00	5	Humedad	66
157157	7	Sololá	713	San Lucas Tolimán	10	San Lucas Tolimán	11	Noviembre	2023-03-11T00:00:00	2024-11-08T22:00:00	6	Velocidad del viento	11.3
157158	7	Sololá	713	San Lucas Tolimán	10	San Lucas Tolimán	11	Noviembre	2023-03-11T00:00:00	2024-11-08T22:00:00	7	Dirección del viento	11.27
157159	7	Sololá	713	San Lucas Tolimán	10	San Lucas Tolimán	11	Noviembre	2023-03-11T00:00:00	2024-11-08T22:00:00	1	Precipitación	0
157160	7	Sololá	713	San Lucas Tolimán	10	San Lucas Tolimán	11	Noviembre	2023-03-11T00:00:00	2024-11-08T22:00:00	8	Radiación solar	0
157161	7	Sololá	713	San Lucas Tolimán	10	San Lucas Tolimán	11	Noviembre	2023-03-11T00:00:00	2024-11-08T23:00:00	2	Temperatura media	20.6
157162	7	Sololá	713	San Lucas Tolimán	10	San Lucas Tolimán	11	Noviembre	2023-03-11T00:00:00	2024-11-08T23:00:00	4	Temperatura máxima	20.6
157163	7	Sololá	713	San Lucas Tolimán	10	San Lucas Tolimán	11	Noviembre	2023-03-11T00:00:00	2024-11-08T23:00:00	3	Temperatura mínima	20.1
157164	7	Sololá	713	San Lucas Tolimán	10	San Lucas Tolimán	11	Noviembre	2023-03-11T00:00:00	2024-11-08T23:00:00	5	Humedad	66
157165	7	Sololá	713	San Lucas Tolimán	10	San Lucas Tolimán	11	Noviembre	2023-03-11T00:00:00	2024-11-08T23:00:00	6	Velocidad del viento	12.9
157166	7	Sololá	713	San Lucas Tolimán	10	San Lucas Tolimán	11	Noviembre	2023-03-11T00:00:00	2024-11-08T23:00:00	7	Dirección del viento	12.87
157167	7	Sololá	713	San Lucas Tolimán	10	San Lucas Tolimán	11	Noviembre	2023-03-11T00:00:00	2024-11-08T23:00:00	1	Precipitación	0
157168	7	Sololá	713	San Lucas Tolimán	10	San Lucas Tolimán	11	Noviembre	2023-03-11T00:00:00	2024-11-08T23:00:00	8	Radiación solar	0
157169	7	Sololá	713	San Lucas Tolimán	10	San Lucas Tolimán	11	Noviembre	2023-04-11T00:00:00	2024-11-08T00:00:00	2	Temperatura media	20.9
157170	7	Sololá	713	San Lucas Tolimán	10	San Lucas Tolimán	11	Noviembre	2023-04-11T00:00:00	2024-11-08T00:00:00	4	Temperatura máxima	21.1
157171	7	Sololá	713	San Lucas Tolimán	10	San Lucas Tolimán	11	Noviembre	2023-04-11T00:00:00	2024-11-08T00:00:00	3	Temperatura mínima	20.4
157172	7	Sololá	713	San Lucas Tolimán	10	San Lucas Tolimán	11	Noviembre	2023-04-11T00:00:00	2024-11-08T00:00:00	5	Humedad	66
157173	7	Sololá	713	San Lucas Tolimán	10	San Lucas Tolimán	11	Noviembre	2023-04-11T00:00:00	2024-11-08T00:00:00	6	Velocidad del viento	9.7
157174	7	Sololá	713	San Lucas Tolimán	10	San Lucas Tolimán	11	Noviembre	2023-04-11T00:00:00	2024-11-08T00:00:00	7	Dirección del viento	9.66
157175	7	Sololá	713	San Lucas Tolimán	10	San Lucas Tolimán	11	Noviembre	2023-04-11T00:00:00	2024-11-08T00:00:00	1	Precipitación	0
157176	7	Sololá	713	San Lucas Tolimán	10	San Lucas Tolimán	11	Noviembre	2023-04-11T00:00:00	2024-11-08T00:00:00	8	Radiación solar	0
157177	7	Sololá	713	San Lucas Tolimán	10	San Lucas Tolimán	11	Noviembre	2023-04-11T00:00:00	2024-11-08T01:00:00	2	Temperatura media	20.2
157178	7	Sololá	713	San Lucas Tolimán	10	San Lucas Tolimán	11	Noviembre	2023-04-11T00:00:00	2024-11-08T01:00:00	4	Temperatura máxima	20.9
157179	7	Sololá	713	San Lucas Tolimán	10	San Lucas Tolimán	11	Noviembre	2023-04-11T00:00:00	2024-11-08T01:00:00	3	Temperatura mínima	20.2
157180	7	Sololá	713	San Lucas Tolimán	10	San Lucas Tolimán	11	Noviembre	2023-04-11T00:00:00	2024-11-08T01:00:00	5	Humedad	69
157181	7	Sololá	713	San Lucas Tolimán	10	San Lucas Tolimán	11	Noviembre	2023-04-11T00:00:00	2024-11-08T01:00:00	6	Velocidad del viento	12.9
157182	7	Sololá	713	San Lucas Tolimán	10	San Lucas Tolimán	11	Noviembre	2023-04-11T00:00:00	2024-11-08T01:00:00	7	Dirección del viento	12.87
157183	7	Sololá	713	San Lucas Tolimán	10	San Lucas Tolimán	11	Noviembre	2023-04-11T00:00:00	2024-11-08T01:00:00	1	Precipitación	0
157184	7	Sololá	713	San Lucas Tolimán	10	San Lucas Tolimán	11	Noviembre	2023-04-11T00:00:00	2024-11-08T01:00:00	8	Radiación solar	0
157185	7	Sololá	713	San Lucas Tolimán	10	San Lucas Tolimán	11	Noviembre	2023-04-11T00:00:00	2024-11-08T02:00:00	2	Temperatura media	20.6
157186	7	Sololá	713	San Lucas Tolimán	10	San Lucas Tolimán	11	Noviembre	2023-04-11T00:00:00	2024-11-08T02:00:00	4	Temperatura máxima	20.8
157187	7	Sololá	713	San Lucas Tolimán	10	San Lucas Tolimán	11	Noviembre	2023-04-11T00:00:00	2024-11-08T02:00:00	3	Temperatura mínima	20.2
157188	7	Sololá	713	San Lucas Tolimán	10	San Lucas Tolimán	11	Noviembre	2023-04-11T00:00:00	2024-11-08T02:00:00	5	Humedad	68
157189	7	Sololá	713	San Lucas Tolimán	10	San Lucas Tolimán	11	Noviembre	2023-04-11T00:00:00	2024-11-08T02:00:00	6	Velocidad del viento	12.9
157190	7	Sololá	713	San Lucas Tolimán	10	San Lucas Tolimán	11	Noviembre	2023-04-11T00:00:00	2024-11-08T02:00:00	7	Dirección del viento	12.87
157191	7	Sololá	713	San Lucas Tolimán	10	San Lucas Tolimán	11	Noviembre	2023-04-11T00:00:00	2024-11-08T02:00:00	1	Precipitación	0
157192	7	Sololá	713	San Lucas Tolimán	10	San Lucas Tolimán	11	Noviembre	2023-04-11T00:00:00	2024-11-08T02:00:00	8	Radiación solar	0
157193	7	Sololá	713	San Lucas Tolimán	10	San Lucas Tolimán	11	Noviembre	2023-04-11T00:00:00	2024-11-08T03:00:00	2	Temperatura media	20.2
157194	7	Sololá	713	San Lucas Tolimán	10	San Lucas Tolimán	11	Noviembre	2023-04-11T00:00:00	2024-11-08T03:00:00	4	Temperatura máxima	20.6
157195	7	Sololá	713	San Lucas Tolimán	10	San Lucas Tolimán	11	Noviembre	2023-04-11T00:00:00	2024-11-08T03:00:00	3	Temperatura mínima	20.1
157196	7	Sololá	713	San Lucas Tolimán	10	San Lucas Tolimán	11	Noviembre	2023-04-11T00:00:00	2024-11-08T03:00:00	5	Humedad	70
157197	7	Sololá	713	San Lucas Tolimán	10	San Lucas Tolimán	11	Noviembre	2023-04-11T00:00:00	2024-11-08T03:00:00	6	Velocidad del viento	11.3
157198	7	Sololá	713	San Lucas Tolimán	10	San Lucas Tolimán	11	Noviembre	2023-04-11T00:00:00	2024-11-08T03:00:00	7	Dirección del viento	11.27
157199	7	Sololá	713	San Lucas Tolimán	10	San Lucas Tolimán	11	Noviembre	2023-04-11T00:00:00	2024-11-08T03:00:00	1	Precipitación	0
157200	7	Sololá	713	San Lucas Tolimán	10	San Lucas Tolimán	11	Noviembre	2023-04-11T00:00:00	2024-11-08T03:00:00	8	Radiación solar	0
157201	7	Sololá	713	San Lucas Tolimán	10	San Lucas Tolimán	11	Noviembre	2023-04-11T00:00:00	2024-11-08T04:00:00	2	Temperatura media	20.8
157202	7	Sololá	713	San Lucas Tolimán	10	San Lucas Tolimán	11	Noviembre	2023-04-11T00:00:00	2024-11-08T04:00:00	4	Temperatura máxima	20.8
157203	7	Sololá	713	San Lucas Tolimán	10	San Lucas Tolimán	11	Noviembre	2023-04-11T00:00:00	2024-11-08T04:00:00	3	Temperatura mínima	20.1
157204	7	Sololá	713	San Lucas Tolimán	10	San Lucas Tolimán	11	Noviembre	2023-04-11T00:00:00	2024-11-08T04:00:00	5	Humedad	68
157205	7	Sololá	713	San Lucas Tolimán	10	San Lucas Tolimán	11	Noviembre	2023-04-11T00:00:00	2024-11-08T04:00:00	6	Velocidad del viento	11.3
157206	7	Sololá	713	San Lucas Tolimán	10	San Lucas Tolimán	11	Noviembre	2023-04-11T00:00:00	2024-11-08T04:00:00	7	Dirección del viento	11.27
157207	7	Sololá	713	San Lucas Tolimán	10	San Lucas Tolimán	11	Noviembre	2023-04-11T00:00:00	2024-11-08T04:00:00	1	Precipitación	0
157208	7	Sololá	713	San Lucas Tolimán	10	San Lucas Tolimán	11	Noviembre	2023-04-11T00:00:00	2024-11-08T04:00:00	8	Radiación solar	0
157209	7	Sololá	713	San Lucas Tolimán	10	San Lucas Tolimán	11	Noviembre	2023-04-11T00:00:00	2024-11-08T05:00:00	2	Temperatura media	20.4
157210	7	Sololá	713	San Lucas Tolimán	10	San Lucas Tolimán	11	Noviembre	2023-04-11T00:00:00	2024-11-08T05:00:00	4	Temperatura máxima	20.9
157211	7	Sololá	713	San Lucas Tolimán	10	San Lucas Tolimán	11	Noviembre	2023-04-11T00:00:00	2024-11-08T05:00:00	3	Temperatura mínima	20.4
157212	7	Sololá	713	San Lucas Tolimán	10	San Lucas Tolimán	11	Noviembre	2023-04-11T00:00:00	2024-11-08T05:00:00	5	Humedad	69
157213	7	Sololá	713	San Lucas Tolimán	10	San Lucas Tolimán	11	Noviembre	2023-04-11T00:00:00	2024-11-08T05:00:00	6	Velocidad del viento	9.7
157214	7	Sololá	713	San Lucas Tolimán	10	San Lucas Tolimán	11	Noviembre	2023-04-11T00:00:00	2024-11-08T05:00:00	7	Dirección del viento	9.66
157215	7	Sololá	713	San Lucas Tolimán	10	San Lucas Tolimán	11	Noviembre	2023-04-11T00:00:00	2024-11-08T05:00:00	1	Precipitación	0
157216	7	Sololá	713	San Lucas Tolimán	10	San Lucas Tolimán	11	Noviembre	2023-04-11T00:00:00	2024-11-08T05:00:00	8	Radiación solar	0
157217	7	Sololá	713	San Lucas Tolimán	10	San Lucas Tolimán	11	Noviembre	2023-04-11T00:00:00	2024-11-08T06:00:00	2	Temperatura media	20.4
157218	7	Sololá	713	San Lucas Tolimán	10	San Lucas Tolimán	11	Noviembre	2023-04-11T00:00:00	2024-11-08T06:00:00	4	Temperatura máxima	20.6
157219	7	Sololá	713	San Lucas Tolimán	10	San Lucas Tolimán	11	Noviembre	2023-04-11T00:00:00	2024-11-08T06:00:00	3	Temperatura mínima	20.4
157220	7	Sololá	713	San Lucas Tolimán	10	San Lucas Tolimán	11	Noviembre	2023-04-11T00:00:00	2024-11-08T06:00:00	5	Humedad	71
157221	7	Sololá	713	San Lucas Tolimán	10	San Lucas Tolimán	11	Noviembre	2023-04-11T00:00:00	2024-11-08T06:00:00	6	Velocidad del viento	6.4
157222	7	Sololá	713	San Lucas Tolimán	10	San Lucas Tolimán	11	Noviembre	2023-04-11T00:00:00	2024-11-08T06:00:00	7	Dirección del viento	6.44
157223	7	Sololá	713	San Lucas Tolimán	10	San Lucas Tolimán	11	Noviembre	2023-04-11T00:00:00	2024-11-08T06:00:00	1	Precipitación	0
157224	7	Sololá	713	San Lucas Tolimán	10	San Lucas Tolimán	11	Noviembre	2023-04-11T00:00:00	2024-11-08T06:00:00	8	Radiación solar	0
157225	7	Sololá	713	San Lucas Tolimán	10	San Lucas Tolimán	11	Noviembre	2023-04-11T00:00:00	2024-11-08T07:00:00	2	Temperatura media	21.1
157226	7	Sololá	713	San Lucas Tolimán	10	San Lucas Tolimán	11	Noviembre	2023-04-11T00:00:00	2024-11-08T07:00:00	4	Temperatura máxima	21.1
157227	7	Sololá	713	San Lucas Tolimán	10	San Lucas Tolimán	11	Noviembre	2023-04-11T00:00:00	2024-11-08T07:00:00	3	Temperatura mínima	20.3
157228	7	Sololá	713	San Lucas Tolimán	10	San Lucas Tolimán	11	Noviembre	2023-04-11T00:00:00	2024-11-08T07:00:00	5	Humedad	70
157229	7	Sololá	713	San Lucas Tolimán	10	San Lucas Tolimán	11	Noviembre	2023-04-11T00:00:00	2024-11-08T07:00:00	6	Velocidad del viento	6.4
157230	7	Sololá	713	San Lucas Tolimán	10	San Lucas Tolimán	11	Noviembre	2023-04-11T00:00:00	2024-11-08T07:00:00	7	Dirección del viento	6.44
157231	7	Sololá	713	San Lucas Tolimán	10	San Lucas Tolimán	11	Noviembre	2023-04-11T00:00:00	2024-11-08T07:00:00	1	Precipitación	0
157232	7	Sololá	713	San Lucas Tolimán	10	San Lucas Tolimán	11	Noviembre	2023-04-11T00:00:00	2024-11-08T07:00:00	8	Radiación solar	24
157233	7	Sololá	713	San Lucas Tolimán	10	San Lucas Tolimán	11	Noviembre	2023-04-11T00:00:00	2024-11-08T08:00:00	2	Temperatura media	21.9
157234	7	Sololá	713	San Lucas Tolimán	10	San Lucas Tolimán	11	Noviembre	2023-04-11T00:00:00	2024-11-08T08:00:00	4	Temperatura máxima	21.9
157235	7	Sololá	713	San Lucas Tolimán	10	San Lucas Tolimán	11	Noviembre	2023-04-11T00:00:00	2024-11-08T08:00:00	3	Temperatura mínima	21
157236	7	Sololá	713	San Lucas Tolimán	10	San Lucas Tolimán	11	Noviembre	2023-04-11T00:00:00	2024-11-08T08:00:00	5	Humedad	68
157237	7	Sololá	713	San Lucas Tolimán	10	San Lucas Tolimán	11	Noviembre	2023-04-11T00:00:00	2024-11-08T08:00:00	6	Velocidad del viento	8
157238	7	Sololá	713	San Lucas Tolimán	10	San Lucas Tolimán	11	Noviembre	2023-04-11T00:00:00	2024-11-08T08:00:00	7	Dirección del viento	8.05
157239	7	Sololá	713	San Lucas Tolimán	10	San Lucas Tolimán	11	Noviembre	2023-04-11T00:00:00	2024-11-08T08:00:00	1	Precipitación	0
157240	7	Sololá	713	San Lucas Tolimán	10	San Lucas Tolimán	11	Noviembre	2023-04-11T00:00:00	2024-11-08T08:00:00	8	Radiación solar	136
157241	7	Sololá	713	San Lucas Tolimán	10	San Lucas Tolimán	11	Noviembre	2023-04-11T00:00:00	2024-11-08T09:00:00	2	Temperatura media	22.6
157242	7	Sololá	713	San Lucas Tolimán	10	San Lucas Tolimán	11	Noviembre	2023-04-11T00:00:00	2024-11-08T09:00:00	4	Temperatura máxima	22.6
157243	7	Sololá	713	San Lucas Tolimán	10	San Lucas Tolimán	11	Noviembre	2023-04-11T00:00:00	2024-11-08T09:00:00	3	Temperatura mínima	21.9
157244	7	Sololá	713	San Lucas Tolimán	10	San Lucas Tolimán	11	Noviembre	2023-04-11T00:00:00	2024-11-08T09:00:00	5	Humedad	67
157245	7	Sololá	713	San Lucas Tolimán	10	San Lucas Tolimán	11	Noviembre	2023-04-11T00:00:00	2024-11-08T09:00:00	6	Velocidad del viento	9.7
157246	7	Sololá	713	San Lucas Tolimán	10	San Lucas Tolimán	11	Noviembre	2023-04-11T00:00:00	2024-11-08T09:00:00	7	Dirección del viento	9.66
157247	7	Sololá	713	San Lucas Tolimán	10	San Lucas Tolimán	11	Noviembre	2023-04-11T00:00:00	2024-11-08T09:00:00	1	Precipitación	0
157248	7	Sololá	713	San Lucas Tolimán	10	San Lucas Tolimán	11	Noviembre	2023-04-11T00:00:00	2024-11-08T09:00:00	8	Radiación solar	426
157249	7	Sololá	713	San Lucas Tolimán	10	San Lucas Tolimán	11	Noviembre	2023-04-11T00:00:00	2024-11-08T10:00:00	2	Temperatura media	20.9
157250	7	Sololá	713	San Lucas Tolimán	10	San Lucas Tolimán	11	Noviembre	2023-04-11T00:00:00	2024-11-08T10:00:00	4	Temperatura máxima	22.6
157251	7	Sololá	713	San Lucas Tolimán	10	San Lucas Tolimán	11	Noviembre	2023-04-11T00:00:00	2024-11-08T10:00:00	3	Temperatura mínima	20.7
157252	7	Sololá	713	San Lucas Tolimán	10	San Lucas Tolimán	11	Noviembre	2023-04-11T00:00:00	2024-11-08T10:00:00	5	Humedad	77
157253	7	Sololá	713	San Lucas Tolimán	10	San Lucas Tolimán	11	Noviembre	2023-04-11T00:00:00	2024-11-08T10:00:00	6	Velocidad del viento	3.2
157254	7	Sololá	713	San Lucas Tolimán	10	San Lucas Tolimán	11	Noviembre	2023-04-11T00:00:00	2024-11-08T10:00:00	7	Dirección del viento	3.22
157255	7	Sololá	713	San Lucas Tolimán	10	San Lucas Tolimán	11	Noviembre	2023-04-11T00:00:00	2024-11-08T10:00:00	1	Precipitación	0
157256	7	Sololá	713	San Lucas Tolimán	10	San Lucas Tolimán	11	Noviembre	2023-04-11T00:00:00	2024-11-08T10:00:00	8	Radiación solar	658
157257	7	Sololá	713	San Lucas Tolimán	10	San Lucas Tolimán	11	Noviembre	2023-04-11T00:00:00	2024-11-08T11:00:00	2	Temperatura media	20.3
157258	7	Sololá	713	San Lucas Tolimán	10	San Lucas Tolimán	11	Noviembre	2023-04-11T00:00:00	2024-11-08T11:00:00	4	Temperatura máxima	23.3
157259	7	Sololá	713	San Lucas Tolimán	10	San Lucas Tolimán	11	Noviembre	2023-04-11T00:00:00	2024-11-08T11:00:00	3	Temperatura mínima	20.2
157260	7	Sololá	713	San Lucas Tolimán	10	San Lucas Tolimán	11	Noviembre	2023-04-11T00:00:00	2024-11-08T11:00:00	5	Humedad	79
157261	7	Sololá	713	San Lucas Tolimán	10	San Lucas Tolimán	11	Noviembre	2023-04-11T00:00:00	2024-11-08T11:00:00	6	Velocidad del viento	6.4
157262	7	Sololá	713	San Lucas Tolimán	10	San Lucas Tolimán	11	Noviembre	2023-04-11T00:00:00	2024-11-08T11:00:00	7	Dirección del viento	6.44
157263	7	Sololá	713	San Lucas Tolimán	10	San Lucas Tolimán	11	Noviembre	2023-04-11T00:00:00	2024-11-08T11:00:00	1	Precipitación	0
157264	7	Sololá	713	San Lucas Tolimán	10	San Lucas Tolimán	11	Noviembre	2023-04-11T00:00:00	2024-11-08T11:00:00	8	Radiación solar	872
157265	7	Sololá	713	San Lucas Tolimán	10	San Lucas Tolimán	11	Noviembre	2023-04-11T00:00:00	2024-11-08T12:00:00	2	Temperatura media	22.4
157266	7	Sololá	713	San Lucas Tolimán	10	San Lucas Tolimán	11	Noviembre	2023-04-11T00:00:00	2024-11-08T12:00:00	4	Temperatura máxima	22.4
157267	7	Sololá	713	San Lucas Tolimán	10	San Lucas Tolimán	11	Noviembre	2023-04-11T00:00:00	2024-11-08T12:00:00	3	Temperatura mínima	20.1
157268	7	Sololá	713	San Lucas Tolimán	10	San Lucas Tolimán	11	Noviembre	2023-04-11T00:00:00	2024-11-08T12:00:00	5	Humedad	72
157269	7	Sololá	713	San Lucas Tolimán	10	San Lucas Tolimán	11	Noviembre	2023-04-11T00:00:00	2024-11-08T12:00:00	6	Velocidad del viento	4.8
157270	7	Sololá	713	San Lucas Tolimán	10	San Lucas Tolimán	11	Noviembre	2023-04-11T00:00:00	2024-11-08T12:00:00	7	Dirección del viento	4.83
157271	7	Sololá	713	San Lucas Tolimán	10	San Lucas Tolimán	11	Noviembre	2023-04-11T00:00:00	2024-11-08T12:00:00	1	Precipitación	0
157272	7	Sololá	713	San Lucas Tolimán	10	San Lucas Tolimán	11	Noviembre	2023-04-11T00:00:00	2024-11-08T12:00:00	8	Radiación solar	428
157273	7	Sololá	713	San Lucas Tolimán	10	San Lucas Tolimán	11	Noviembre	2023-04-11T00:00:00	2024-11-08T13:00:00	2	Temperatura media	20.9
157274	7	Sololá	713	San Lucas Tolimán	10	San Lucas Tolimán	11	Noviembre	2023-04-11T00:00:00	2024-11-08T13:00:00	4	Temperatura máxima	24.1
157275	7	Sololá	713	San Lucas Tolimán	10	San Lucas Tolimán	11	Noviembre	2023-04-11T00:00:00	2024-11-08T13:00:00	3	Temperatura mínima	20.9
157276	7	Sololá	713	San Lucas Tolimán	10	San Lucas Tolimán	11	Noviembre	2023-04-11T00:00:00	2024-11-08T13:00:00	5	Humedad	80
157277	7	Sololá	713	San Lucas Tolimán	10	San Lucas Tolimán	11	Noviembre	2023-04-11T00:00:00	2024-11-08T13:00:00	6	Velocidad del viento	4.8
157278	7	Sololá	713	San Lucas Tolimán	10	San Lucas Tolimán	11	Noviembre	2023-04-11T00:00:00	2024-11-08T13:00:00	7	Dirección del viento	4.83
157279	7	Sololá	713	San Lucas Tolimán	10	San Lucas Tolimán	11	Noviembre	2023-04-11T00:00:00	2024-11-08T13:00:00	1	Precipitación	0
157280	7	Sololá	713	San Lucas Tolimán	10	San Lucas Tolimán	11	Noviembre	2023-04-11T00:00:00	2024-11-08T13:00:00	8	Radiación solar	890
157281	7	Sololá	713	San Lucas Tolimán	10	San Lucas Tolimán	11	Noviembre	2023-04-11T00:00:00	2024-11-08T14:00:00	2	Temperatura media	22.3
157282	7	Sololá	713	San Lucas Tolimán	10	San Lucas Tolimán	11	Noviembre	2023-04-11T00:00:00	2024-11-08T14:00:00	4	Temperatura máxima	22.7
157283	7	Sololá	713	San Lucas Tolimán	10	San Lucas Tolimán	11	Noviembre	2023-04-11T00:00:00	2024-11-08T14:00:00	3	Temperatura mínima	20.4
157284	7	Sololá	713	San Lucas Tolimán	10	San Lucas Tolimán	11	Noviembre	2023-04-11T00:00:00	2024-11-08T14:00:00	5	Humedad	55
157285	7	Sololá	713	San Lucas Tolimán	10	San Lucas Tolimán	11	Noviembre	2023-04-11T00:00:00	2024-11-08T14:00:00	6	Velocidad del viento	9.7
157286	7	Sololá	713	San Lucas Tolimán	10	San Lucas Tolimán	11	Noviembre	2023-04-11T00:00:00	2024-11-08T14:00:00	7	Dirección del viento	9.66
157287	7	Sololá	713	San Lucas Tolimán	10	San Lucas Tolimán	11	Noviembre	2023-04-11T00:00:00	2024-11-08T14:00:00	1	Precipitación	0
157288	7	Sololá	713	San Lucas Tolimán	10	San Lucas Tolimán	11	Noviembre	2023-04-11T00:00:00	2024-11-08T14:00:00	8	Radiación solar	218
157289	7	Sololá	713	San Lucas Tolimán	10	San Lucas Tolimán	11	Noviembre	2023-04-11T00:00:00	2024-11-08T15:00:00	2	Temperatura media	21.6
157290	7	Sololá	713	San Lucas Tolimán	10	San Lucas Tolimán	11	Noviembre	2023-04-11T00:00:00	2024-11-08T15:00:00	4	Temperatura máxima	22.3
157291	7	Sololá	713	San Lucas Tolimán	10	San Lucas Tolimán	11	Noviembre	2023-04-11T00:00:00	2024-11-08T15:00:00	3	Temperatura mínima	21.2
157292	7	Sololá	713	San Lucas Tolimán	10	San Lucas Tolimán	11	Noviembre	2023-04-11T00:00:00	2024-11-08T15:00:00	5	Humedad	54
157293	7	Sololá	713	San Lucas Tolimán	10	San Lucas Tolimán	11	Noviembre	2023-04-11T00:00:00	2024-11-08T15:00:00	6	Velocidad del viento	11.3
157294	7	Sololá	713	San Lucas Tolimán	10	San Lucas Tolimán	11	Noviembre	2023-04-11T00:00:00	2024-11-08T15:00:00	7	Dirección del viento	11.27
157295	7	Sololá	713	San Lucas Tolimán	10	San Lucas Tolimán	11	Noviembre	2023-04-11T00:00:00	2024-11-08T15:00:00	1	Precipitación	0
157296	7	Sololá	713	San Lucas Tolimán	10	San Lucas Tolimán	11	Noviembre	2023-04-11T00:00:00	2024-11-08T15:00:00	8	Radiación solar	146
157297	7	Sololá	713	San Lucas Tolimán	10	San Lucas Tolimán	11	Noviembre	2023-04-11T00:00:00	2024-11-08T16:00:00	2	Temperatura media	21.6
157298	7	Sololá	713	San Lucas Tolimán	10	San Lucas Tolimán	11	Noviembre	2023-04-11T00:00:00	2024-11-08T16:00:00	4	Temperatura máxima	21.7
157299	7	Sololá	713	San Lucas Tolimán	10	San Lucas Tolimán	11	Noviembre	2023-04-11T00:00:00	2024-11-08T16:00:00	3	Temperatura mínima	21.4
157300	7	Sololá	713	San Lucas Tolimán	10	San Lucas Tolimán	11	Noviembre	2023-04-11T00:00:00	2024-11-08T16:00:00	5	Humedad	54
157301	7	Sololá	713	San Lucas Tolimán	10	San Lucas Tolimán	11	Noviembre	2023-04-11T00:00:00	2024-11-08T16:00:00	6	Velocidad del viento	12.9
157302	7	Sololá	713	San Lucas Tolimán	10	San Lucas Tolimán	11	Noviembre	2023-04-11T00:00:00	2024-11-08T16:00:00	7	Dirección del viento	12.87
157303	7	Sololá	713	San Lucas Tolimán	10	San Lucas Tolimán	11	Noviembre	2023-04-11T00:00:00	2024-11-08T16:00:00	1	Precipitación	0
157304	7	Sololá	713	San Lucas Tolimán	10	San Lucas Tolimán	11	Noviembre	2023-04-11T00:00:00	2024-11-08T16:00:00	8	Radiación solar	113
157305	7	Sololá	713	San Lucas Tolimán	10	San Lucas Tolimán	11	Noviembre	2023-04-11T00:00:00	2024-11-08T17:00:00	2	Temperatura media	21
157306	7	Sololá	713	San Lucas Tolimán	10	San Lucas Tolimán	11	Noviembre	2023-04-11T00:00:00	2024-11-08T17:00:00	4	Temperatura máxima	21.6
157307	7	Sololá	713	San Lucas Tolimán	10	San Lucas Tolimán	11	Noviembre	2023-04-11T00:00:00	2024-11-08T17:00:00	3	Temperatura mínima	21
157308	7	Sololá	713	San Lucas Tolimán	10	San Lucas Tolimán	11	Noviembre	2023-04-11T00:00:00	2024-11-08T17:00:00	5	Humedad	55
157309	7	Sololá	713	San Lucas Tolimán	10	San Lucas Tolimán	11	Noviembre	2023-04-11T00:00:00	2024-11-08T17:00:00	6	Velocidad del viento	9.7
157310	7	Sololá	713	San Lucas Tolimán	10	San Lucas Tolimán	11	Noviembre	2023-04-11T00:00:00	2024-11-08T17:00:00	7	Dirección del viento	9.66
157311	7	Sololá	713	San Lucas Tolimán	10	San Lucas Tolimán	11	Noviembre	2023-04-11T00:00:00	2024-11-08T17:00:00	1	Precipitación	0
157312	7	Sololá	713	San Lucas Tolimán	10	San Lucas Tolimán	11	Noviembre	2023-04-11T00:00:00	2024-11-08T17:00:00	8	Radiación solar	42
157313	7	Sololá	713	San Lucas Tolimán	10	San Lucas Tolimán	11	Noviembre	2023-04-11T00:00:00	2024-11-08T18:00:00	2	Temperatura media	20.8
157314	7	Sololá	713	San Lucas Tolimán	10	San Lucas Tolimán	11	Noviembre	2023-04-11T00:00:00	2024-11-08T18:00:00	4	Temperatura máxima	21.1
157315	7	Sololá	713	San Lucas Tolimán	10	San Lucas Tolimán	11	Noviembre	2023-04-11T00:00:00	2024-11-08T18:00:00	3	Temperatura mínima	20.8
157316	7	Sololá	713	San Lucas Tolimán	10	San Lucas Tolimán	11	Noviembre	2023-04-11T00:00:00	2024-11-08T18:00:00	5	Humedad	56
157317	7	Sololá	713	San Lucas Tolimán	10	San Lucas Tolimán	11	Noviembre	2023-04-11T00:00:00	2024-11-08T18:00:00	6	Velocidad del viento	4.8
157318	7	Sololá	713	San Lucas Tolimán	10	San Lucas Tolimán	11	Noviembre	2023-04-11T00:00:00	2024-11-08T18:00:00	7	Dirección del viento	4.83
157319	7	Sololá	713	San Lucas Tolimán	10	San Lucas Tolimán	11	Noviembre	2023-04-11T00:00:00	2024-11-08T18:00:00	1	Precipitación	0
157320	7	Sololá	713	San Lucas Tolimán	10	San Lucas Tolimán	11	Noviembre	2023-04-11T00:00:00	2024-11-08T18:00:00	8	Radiación solar	6
157321	7	Sololá	713	San Lucas Tolimán	10	San Lucas Tolimán	11	Noviembre	2023-04-11T00:00:00	2024-11-08T19:00:00	2	Temperatura media	20.8
157322	7	Sololá	713	San Lucas Tolimán	10	San Lucas Tolimán	11	Noviembre	2023-04-11T00:00:00	2024-11-08T19:00:00	4	Temperatura máxima	20.9
157323	7	Sololá	713	San Lucas Tolimán	10	San Lucas Tolimán	11	Noviembre	2023-04-11T00:00:00	2024-11-08T19:00:00	3	Temperatura mínima	20.4
157324	7	Sololá	713	San Lucas Tolimán	10	San Lucas Tolimán	11	Noviembre	2023-04-11T00:00:00	2024-11-08T19:00:00	5	Humedad	56
157325	7	Sololá	713	San Lucas Tolimán	10	San Lucas Tolimán	11	Noviembre	2023-04-11T00:00:00	2024-11-08T19:00:00	6	Velocidad del viento	4.8
157326	7	Sololá	713	San Lucas Tolimán	10	San Lucas Tolimán	11	Noviembre	2023-04-11T00:00:00	2024-11-08T19:00:00	7	Dirección del viento	4.83
157327	7	Sololá	713	San Lucas Tolimán	10	San Lucas Tolimán	11	Noviembre	2023-04-11T00:00:00	2024-11-08T19:00:00	1	Precipitación	0
157328	7	Sololá	713	San Lucas Tolimán	10	San Lucas Tolimán	11	Noviembre	2023-04-11T00:00:00	2024-11-08T19:00:00	8	Radiación solar	0
157329	7	Sololá	713	San Lucas Tolimán	10	San Lucas Tolimán	11	Noviembre	2023-04-11T00:00:00	2024-11-08T20:00:00	2	Temperatura media	20.8
157330	7	Sololá	713	San Lucas Tolimán	10	San Lucas Tolimán	11	Noviembre	2023-04-11T00:00:00	2024-11-08T20:00:00	4	Temperatura máxima	21
157331	7	Sololá	713	San Lucas Tolimán	10	San Lucas Tolimán	11	Noviembre	2023-04-11T00:00:00	2024-11-08T20:00:00	3	Temperatura mínima	20.7
157332	7	Sololá	713	San Lucas Tolimán	10	San Lucas Tolimán	11	Noviembre	2023-04-11T00:00:00	2024-11-08T20:00:00	5	Humedad	57
157333	7	Sololá	713	San Lucas Tolimán	10	San Lucas Tolimán	11	Noviembre	2023-04-11T00:00:00	2024-11-08T20:00:00	6	Velocidad del viento	6.4
157334	7	Sololá	713	San Lucas Tolimán	10	San Lucas Tolimán	11	Noviembre	2023-04-11T00:00:00	2024-11-08T20:00:00	7	Dirección del viento	6.44
157335	7	Sololá	713	San Lucas Tolimán	10	San Lucas Tolimán	11	Noviembre	2023-04-11T00:00:00	2024-11-08T20:00:00	1	Precipitación	0
157336	7	Sololá	713	San Lucas Tolimán	10	San Lucas Tolimán	11	Noviembre	2023-04-11T00:00:00	2024-11-08T20:00:00	8	Radiación solar	0
157337	7	Sololá	713	San Lucas Tolimán	10	San Lucas Tolimán	11	Noviembre	2023-04-11T00:00:00	2024-11-08T21:00:00	2	Temperatura media	20.6
157338	7	Sololá	713	San Lucas Tolimán	10	San Lucas Tolimán	11	Noviembre	2023-04-11T00:00:00	2024-11-08T21:00:00	4	Temperatura máxima	20.7
157339	7	Sololá	713	San Lucas Tolimán	10	San Lucas Tolimán	11	Noviembre	2023-04-11T00:00:00	2024-11-08T21:00:00	3	Temperatura mínima	20.5
157340	7	Sololá	713	San Lucas Tolimán	10	San Lucas Tolimán	11	Noviembre	2023-04-11T00:00:00	2024-11-08T21:00:00	5	Humedad	57
157341	7	Sololá	713	San Lucas Tolimán	10	San Lucas Tolimán	11	Noviembre	2023-04-11T00:00:00	2024-11-08T21:00:00	6	Velocidad del viento	3.2
157342	7	Sololá	713	San Lucas Tolimán	10	San Lucas Tolimán	11	Noviembre	2023-04-11T00:00:00	2024-11-08T21:00:00	7	Dirección del viento	3.22
157343	7	Sololá	713	San Lucas Tolimán	10	San Lucas Tolimán	11	Noviembre	2023-04-11T00:00:00	2024-11-08T21:00:00	1	Precipitación	0
157344	7	Sololá	713	San Lucas Tolimán	10	San Lucas Tolimán	11	Noviembre	2023-04-11T00:00:00	2024-11-08T21:00:00	8	Radiación solar	0
157345	7	Sololá	713	San Lucas Tolimán	10	San Lucas Tolimán	11	Noviembre	2023-04-11T00:00:00	2024-11-08T22:00:00	2	Temperatura media	20.4
157346	7	Sololá	713	San Lucas Tolimán	10	San Lucas Tolimán	11	Noviembre	2023-04-11T00:00:00	2024-11-08T22:00:00	4	Temperatura máxima	20.8
157347	7	Sololá	713	San Lucas Tolimán	10	San Lucas Tolimán	11	Noviembre	2023-04-11T00:00:00	2024-11-08T22:00:00	3	Temperatura mínima	20.3
157348	7	Sololá	713	San Lucas Tolimán	10	San Lucas Tolimán	11	Noviembre	2023-04-11T00:00:00	2024-11-08T22:00:00	5	Humedad	58
157349	7	Sololá	713	San Lucas Tolimán	10	San Lucas Tolimán	11	Noviembre	2023-04-11T00:00:00	2024-11-08T22:00:00	6	Velocidad del viento	4.8
157350	7	Sololá	713	San Lucas Tolimán	10	San Lucas Tolimán	11	Noviembre	2023-04-11T00:00:00	2024-11-08T22:00:00	7	Dirección del viento	4.83
157351	7	Sololá	713	San Lucas Tolimán	10	San Lucas Tolimán	11	Noviembre	2023-04-11T00:00:00	2024-11-08T22:00:00	1	Precipitación	0
157352	7	Sololá	713	San Lucas Tolimán	10	San Lucas Tolimán	11	Noviembre	2023-04-11T00:00:00	2024-11-08T22:00:00	8	Radiación solar	0
157353	7	Sololá	713	San Lucas Tolimán	10	San Lucas Tolimán	11	Noviembre	2023-04-11T00:00:00	2024-11-08T23:00:00	2	Temperatura media	20.1
157354	7	Sololá	713	San Lucas Tolimán	10	San Lucas Tolimán	11	Noviembre	2023-04-11T00:00:00	2024-11-08T23:00:00	4	Temperatura máxima	20.6
157355	7	Sololá	713	San Lucas Tolimán	10	San Lucas Tolimán	11	Noviembre	2023-04-11T00:00:00	2024-11-08T23:00:00	3	Temperatura mínima	20
157356	7	Sololá	713	San Lucas Tolimán	10	San Lucas Tolimán	11	Noviembre	2023-04-11T00:00:00	2024-11-08T23:00:00	5	Humedad	58
157357	7	Sololá	713	San Lucas Tolimán	10	San Lucas Tolimán	11	Noviembre	2023-04-11T00:00:00	2024-11-08T23:00:00	6	Velocidad del viento	3.2
157358	7	Sololá	713	San Lucas Tolimán	10	San Lucas Tolimán	11	Noviembre	2023-04-11T00:00:00	2024-11-08T23:00:00	7	Dirección del viento	3.22
157359	7	Sololá	713	San Lucas Tolimán	10	San Lucas Tolimán	11	Noviembre	2023-04-11T00:00:00	2024-11-08T23:00:00	1	Precipitación	0
157360	7	Sololá	713	San Lucas Tolimán	10	San Lucas Tolimán	11	Noviembre	2023-04-11T00:00:00	2024-11-08T23:00:00	8	Radiación solar	0
157361	7	Sololá	713	San Lucas Tolimán	10	San Lucas Tolimán	11	Noviembre	2023-05-11T00:00:00	2024-11-08T00:00:00	2	Temperatura media	19.9
157362	7	Sololá	713	San Lucas Tolimán	10	San Lucas Tolimán	11	Noviembre	2023-05-11T00:00:00	2024-11-08T00:00:00	4	Temperatura máxima	20.1
157363	7	Sololá	713	San Lucas Tolimán	10	San Lucas Tolimán	11	Noviembre	2023-05-11T00:00:00	2024-11-08T00:00:00	3	Temperatura mínima	19.8
157364	7	Sololá	713	San Lucas Tolimán	10	San Lucas Tolimán	11	Noviembre	2023-05-11T00:00:00	2024-11-08T00:00:00	5	Humedad	60
157365	7	Sololá	713	San Lucas Tolimán	10	San Lucas Tolimán	11	Noviembre	2023-05-11T00:00:00	2024-11-08T00:00:00	6	Velocidad del viento	3.2
157366	7	Sololá	713	San Lucas Tolimán	10	San Lucas Tolimán	11	Noviembre	2023-05-11T00:00:00	2024-11-08T00:00:00	7	Dirección del viento	3.22
157367	7	Sololá	713	San Lucas Tolimán	10	San Lucas Tolimán	11	Noviembre	2023-05-11T00:00:00	2024-11-08T00:00:00	1	Precipitación	0
157368	7	Sololá	713	San Lucas Tolimán	10	San Lucas Tolimán	11	Noviembre	2023-05-11T00:00:00	2024-11-08T00:00:00	8	Radiación solar	0
157369	7	Sololá	713	San Lucas Tolimán	10	San Lucas Tolimán	11	Noviembre	2023-05-11T00:00:00	2024-11-08T01:00:00	2	Temperatura media	20.1
157370	7	Sololá	713	San Lucas Tolimán	10	San Lucas Tolimán	11	Noviembre	2023-05-11T00:00:00	2024-11-08T01:00:00	4	Temperatura máxima	20.3
157371	7	Sololá	713	San Lucas Tolimán	10	San Lucas Tolimán	11	Noviembre	2023-05-11T00:00:00	2024-11-08T01:00:00	3	Temperatura mínima	19.8
157372	7	Sololá	713	San Lucas Tolimán	10	San Lucas Tolimán	11	Noviembre	2023-05-11T00:00:00	2024-11-08T01:00:00	5	Humedad	57
157373	7	Sololá	713	San Lucas Tolimán	10	San Lucas Tolimán	11	Noviembre	2023-05-11T00:00:00	2024-11-08T01:00:00	6	Velocidad del viento	1.6
157374	7	Sololá	713	San Lucas Tolimán	10	San Lucas Tolimán	11	Noviembre	2023-05-11T00:00:00	2024-11-08T01:00:00	7	Dirección del viento	1.61
157375	7	Sololá	713	San Lucas Tolimán	10	San Lucas Tolimán	11	Noviembre	2023-05-11T00:00:00	2024-11-08T01:00:00	1	Precipitación	0
157376	7	Sololá	713	San Lucas Tolimán	10	San Lucas Tolimán	11	Noviembre	2023-05-11T00:00:00	2024-11-08T01:00:00	8	Radiación solar	0
157377	7	Sololá	713	San Lucas Tolimán	10	San Lucas Tolimán	11	Noviembre	2023-05-11T00:00:00	2024-11-08T02:00:00	2	Temperatura media	20.3
157378	7	Sololá	713	San Lucas Tolimán	10	San Lucas Tolimán	11	Noviembre	2023-05-11T00:00:00	2024-11-08T02:00:00	4	Temperatura máxima	20.3
157379	7	Sololá	713	San Lucas Tolimán	10	San Lucas Tolimán	11	Noviembre	2023-05-11T00:00:00	2024-11-08T02:00:00	3	Temperatura mínima	20.1
157380	7	Sololá	713	San Lucas Tolimán	10	San Lucas Tolimán	11	Noviembre	2023-05-11T00:00:00	2024-11-08T02:00:00	5	Humedad	57
157381	7	Sololá	713	San Lucas Tolimán	10	San Lucas Tolimán	11	Noviembre	2023-05-11T00:00:00	2024-11-08T02:00:00	6	Velocidad del viento	3.2
157382	7	Sololá	713	San Lucas Tolimán	10	San Lucas Tolimán	11	Noviembre	2023-05-11T00:00:00	2024-11-08T02:00:00	7	Dirección del viento	3.22
157383	7	Sololá	713	San Lucas Tolimán	10	San Lucas Tolimán	11	Noviembre	2023-05-11T00:00:00	2024-11-08T02:00:00	1	Precipitación	0
157384	7	Sololá	713	San Lucas Tolimán	10	San Lucas Tolimán	11	Noviembre	2023-05-11T00:00:00	2024-11-08T02:00:00	8	Radiación solar	0
157385	7	Sololá	713	San Lucas Tolimán	10	San Lucas Tolimán	11	Noviembre	2023-05-11T00:00:00	2024-11-08T03:00:00	2	Temperatura media	20
157386	7	Sololá	713	San Lucas Tolimán	10	San Lucas Tolimán	11	Noviembre	2023-05-11T00:00:00	2024-11-08T03:00:00	4	Temperatura máxima	20.4
157387	7	Sololá	713	San Lucas Tolimán	10	San Lucas Tolimán	11	Noviembre	2023-05-11T00:00:00	2024-11-08T03:00:00	3	Temperatura mínima	19.9
157388	7	Sololá	713	San Lucas Tolimán	10	San Lucas Tolimán	11	Noviembre	2023-05-11T00:00:00	2024-11-08T03:00:00	5	Humedad	58
157389	7	Sololá	713	San Lucas Tolimán	10	San Lucas Tolimán	11	Noviembre	2023-05-11T00:00:00	2024-11-08T03:00:00	6	Velocidad del viento	3.2
157390	7	Sololá	713	San Lucas Tolimán	10	San Lucas Tolimán	11	Noviembre	2023-05-11T00:00:00	2024-11-08T03:00:00	7	Dirección del viento	3.22
157391	7	Sololá	713	San Lucas Tolimán	10	San Lucas Tolimán	11	Noviembre	2023-05-11T00:00:00	2024-11-08T03:00:00	1	Precipitación	0
157392	7	Sololá	713	San Lucas Tolimán	10	San Lucas Tolimán	11	Noviembre	2023-05-11T00:00:00	2024-11-08T03:00:00	8	Radiación solar	0
157393	7	Sololá	713	San Lucas Tolimán	10	San Lucas Tolimán	11	Noviembre	2023-05-11T00:00:00	2024-11-08T04:00:00	2	Temperatura media	19.1
157394	7	Sololá	713	San Lucas Tolimán	10	San Lucas Tolimán	11	Noviembre	2023-05-11T00:00:00	2024-11-08T04:00:00	4	Temperatura máxima	20
157395	7	Sololá	713	San Lucas Tolimán	10	San Lucas Tolimán	11	Noviembre	2023-05-11T00:00:00	2024-11-08T04:00:00	3	Temperatura mínima	19.1
157396	7	Sololá	713	San Lucas Tolimán	10	San Lucas Tolimán	11	Noviembre	2023-05-11T00:00:00	2024-11-08T04:00:00	5	Humedad	62
157397	7	Sololá	713	San Lucas Tolimán	10	San Lucas Tolimán	11	Noviembre	2023-05-11T00:00:00	2024-11-08T04:00:00	6	Velocidad del viento	1.6
157398	7	Sololá	713	San Lucas Tolimán	10	San Lucas Tolimán	11	Noviembre	2023-05-11T00:00:00	2024-11-08T04:00:00	7	Dirección del viento	1.61
157399	7	Sololá	713	San Lucas Tolimán	10	San Lucas Tolimán	11	Noviembre	2023-05-11T00:00:00	2024-11-08T04:00:00	1	Precipitación	0
157400	7	Sololá	713	San Lucas Tolimán	10	San Lucas Tolimán	11	Noviembre	2023-05-11T00:00:00	2024-11-08T04:00:00	8	Radiación solar	0
157401	7	Sololá	713	San Lucas Tolimán	10	San Lucas Tolimán	11	Noviembre	2023-05-11T00:00:00	2024-11-08T05:00:00	2	Temperatura media	19.3
157402	7	Sololá	713	San Lucas Tolimán	10	San Lucas Tolimán	11	Noviembre	2023-05-11T00:00:00	2024-11-08T05:00:00	4	Temperatura máxima	19.3
157403	7	Sololá	713	San Lucas Tolimán	10	San Lucas Tolimán	11	Noviembre	2023-05-11T00:00:00	2024-11-08T05:00:00	3	Temperatura mínima	18.7
157404	7	Sololá	713	San Lucas Tolimán	10	San Lucas Tolimán	11	Noviembre	2023-05-11T00:00:00	2024-11-08T05:00:00	5	Humedad	61
157405	7	Sololá	713	San Lucas Tolimán	10	San Lucas Tolimán	11	Noviembre	2023-05-11T00:00:00	2024-11-08T05:00:00	6	Velocidad del viento	1.6
157406	7	Sololá	713	San Lucas Tolimán	10	San Lucas Tolimán	11	Noviembre	2023-05-11T00:00:00	2024-11-08T05:00:00	7	Dirección del viento	1.61
157407	7	Sololá	713	San Lucas Tolimán	10	San Lucas Tolimán	11	Noviembre	2023-05-11T00:00:00	2024-11-08T05:00:00	1	Precipitación	0
157408	7	Sololá	713	San Lucas Tolimán	10	San Lucas Tolimán	11	Noviembre	2023-05-11T00:00:00	2024-11-08T05:00:00	8	Radiación solar	0
157409	7	Sololá	713	San Lucas Tolimán	10	San Lucas Tolimán	11	Noviembre	2023-05-11T00:00:00	2024-11-08T06:00:00	2	Temperatura media	19.4
157410	7	Sololá	713	San Lucas Tolimán	10	San Lucas Tolimán	11	Noviembre	2023-05-11T00:00:00	2024-11-08T06:00:00	4	Temperatura máxima	19.5
157411	7	Sololá	713	San Lucas Tolimán	10	San Lucas Tolimán	11	Noviembre	2023-05-11T00:00:00	2024-11-08T06:00:00	3	Temperatura mínima	19.3
157412	7	Sololá	713	San Lucas Tolimán	10	San Lucas Tolimán	11	Noviembre	2023-05-11T00:00:00	2024-11-08T06:00:00	5	Humedad	61
157413	7	Sololá	713	San Lucas Tolimán	10	San Lucas Tolimán	11	Noviembre	2023-05-11T00:00:00	2024-11-08T06:00:00	6	Velocidad del viento	1.6
157414	7	Sololá	713	San Lucas Tolimán	10	San Lucas Tolimán	11	Noviembre	2023-05-11T00:00:00	2024-11-08T06:00:00	7	Dirección del viento	1.61
157415	7	Sololá	713	San Lucas Tolimán	10	San Lucas Tolimán	11	Noviembre	2023-05-11T00:00:00	2024-11-08T06:00:00	1	Precipitación	0
157416	7	Sololá	713	San Lucas Tolimán	10	San Lucas Tolimán	11	Noviembre	2023-05-11T00:00:00	2024-11-08T06:00:00	8	Radiación solar	0
157417	7	Sololá	713	San Lucas Tolimán	10	San Lucas Tolimán	11	Noviembre	2023-05-11T00:00:00	2024-11-08T07:00:00	2	Temperatura media	19.6
157418	7	Sololá	713	San Lucas Tolimán	10	San Lucas Tolimán	11	Noviembre	2023-05-11T00:00:00	2024-11-08T07:00:00	4	Temperatura máxima	19.8
157419	7	Sololá	713	San Lucas Tolimán	10	San Lucas Tolimán	11	Noviembre	2023-05-11T00:00:00	2024-11-08T07:00:00	3	Temperatura mínima	19.3
157420	7	Sololá	713	San Lucas Tolimán	10	San Lucas Tolimán	11	Noviembre	2023-05-11T00:00:00	2024-11-08T07:00:00	5	Humedad	60
157421	7	Sololá	713	San Lucas Tolimán	10	San Lucas Tolimán	11	Noviembre	2023-05-11T00:00:00	2024-11-08T07:00:00	6	Velocidad del viento	1.6
157422	7	Sololá	713	San Lucas Tolimán	10	San Lucas Tolimán	11	Noviembre	2023-05-11T00:00:00	2024-11-08T07:00:00	7	Dirección del viento	1.61
157423	7	Sololá	713	San Lucas Tolimán	10	San Lucas Tolimán	11	Noviembre	2023-05-11T00:00:00	2024-11-08T07:00:00	1	Precipitación	0
157424	7	Sololá	713	San Lucas Tolimán	10	San Lucas Tolimán	11	Noviembre	2023-05-11T00:00:00	2024-11-08T07:00:00	8	Radiación solar	9
157425	7	Sololá	713	San Lucas Tolimán	10	San Lucas Tolimán	11	Noviembre	2023-05-11T00:00:00	2024-11-08T08:00:00	2	Temperatura media	19.8
157426	7	Sololá	713	San Lucas Tolimán	10	San Lucas Tolimán	11	Noviembre	2023-05-11T00:00:00	2024-11-08T08:00:00	4	Temperatura máxima	19.8
157427	7	Sololá	713	San Lucas Tolimán	10	San Lucas Tolimán	11	Noviembre	2023-05-11T00:00:00	2024-11-08T08:00:00	3	Temperatura mínima	19.4
157428	7	Sololá	713	San Lucas Tolimán	10	San Lucas Tolimán	11	Noviembre	2023-05-11T00:00:00	2024-11-08T08:00:00	5	Humedad	63
157429	7	Sololá	713	San Lucas Tolimán	10	San Lucas Tolimán	11	Noviembre	2023-05-11T00:00:00	2024-11-08T08:00:00	6	Velocidad del viento	1.6
157430	7	Sololá	713	San Lucas Tolimán	10	San Lucas Tolimán	11	Noviembre	2023-05-11T00:00:00	2024-11-08T08:00:00	7	Dirección del viento	1.61
157431	7	Sololá	713	San Lucas Tolimán	10	San Lucas Tolimán	11	Noviembre	2023-05-11T00:00:00	2024-11-08T08:00:00	1	Precipitación	0
157432	7	Sololá	713	San Lucas Tolimán	10	San Lucas Tolimán	11	Noviembre	2023-05-11T00:00:00	2024-11-08T08:00:00	8	Radiación solar	48
157433	7	Sololá	713	San Lucas Tolimán	10	San Lucas Tolimán	11	Noviembre	2023-05-11T00:00:00	2024-11-08T09:00:00	2	Temperatura media	21.4
157434	7	Sololá	713	San Lucas Tolimán	10	San Lucas Tolimán	11	Noviembre	2023-05-11T00:00:00	2024-11-08T09:00:00	4	Temperatura máxima	21.5
157435	7	Sololá	713	San Lucas Tolimán	10	San Lucas Tolimán	11	Noviembre	2023-05-11T00:00:00	2024-11-08T09:00:00	3	Temperatura mínima	19.6
157436	7	Sololá	713	San Lucas Tolimán	10	San Lucas Tolimán	11	Noviembre	2023-05-11T00:00:00	2024-11-08T09:00:00	5	Humedad	55
157437	7	Sololá	713	San Lucas Tolimán	10	San Lucas Tolimán	11	Noviembre	2023-05-11T00:00:00	2024-11-08T09:00:00	6	Velocidad del viento	4.8
157438	7	Sololá	713	San Lucas Tolimán	10	San Lucas Tolimán	11	Noviembre	2023-05-11T00:00:00	2024-11-08T09:00:00	7	Dirección del viento	4.83
157439	7	Sololá	713	San Lucas Tolimán	10	San Lucas Tolimán	11	Noviembre	2023-05-11T00:00:00	2024-11-08T09:00:00	1	Precipitación	0
157440	7	Sololá	713	San Lucas Tolimán	10	San Lucas Tolimán	11	Noviembre	2023-05-11T00:00:00	2024-11-08T09:00:00	8	Radiación solar	131
157441	7	Sololá	713	San Lucas Tolimán	10	San Lucas Tolimán	11	Noviembre	2023-05-11T00:00:00	2024-11-08T10:00:00	2	Temperatura media	21.6
157442	7	Sololá	713	San Lucas Tolimán	10	San Lucas Tolimán	11	Noviembre	2023-05-11T00:00:00	2024-11-08T10:00:00	4	Temperatura máxima	21.8
157443	7	Sololá	713	San Lucas Tolimán	10	San Lucas Tolimán	11	Noviembre	2023-05-11T00:00:00	2024-11-08T10:00:00	3	Temperatura mínima	21.4
157444	7	Sololá	713	San Lucas Tolimán	10	San Lucas Tolimán	11	Noviembre	2023-05-11T00:00:00	2024-11-08T10:00:00	5	Humedad	56
157445	7	Sololá	713	San Lucas Tolimán	10	San Lucas Tolimán	11	Noviembre	2023-05-11T00:00:00	2024-11-08T10:00:00	6	Velocidad del viento	1.6
157446	7	Sololá	713	San Lucas Tolimán	10	San Lucas Tolimán	11	Noviembre	2023-05-11T00:00:00	2024-11-08T10:00:00	7	Dirección del viento	1.61
157447	7	Sololá	713	San Lucas Tolimán	10	San Lucas Tolimán	11	Noviembre	2023-05-11T00:00:00	2024-11-08T10:00:00	1	Precipitación	0
157448	7	Sololá	713	San Lucas Tolimán	10	San Lucas Tolimán	11	Noviembre	2023-05-11T00:00:00	2024-11-08T10:00:00	8	Radiación solar	127
157449	7	Sololá	713	San Lucas Tolimán	10	San Lucas Tolimán	11	Noviembre	2023-05-11T00:00:00	2024-11-08T11:00:00	2	Temperatura media	22.4
157450	7	Sololá	713	San Lucas Tolimán	10	San Lucas Tolimán	11	Noviembre	2023-05-11T00:00:00	2024-11-08T11:00:00	4	Temperatura máxima	22.7
157451	7	Sololá	713	San Lucas Tolimán	10	San Lucas Tolimán	11	Noviembre	2023-05-11T00:00:00	2024-11-08T11:00:00	3	Temperatura mínima	21.6
157452	7	Sololá	713	San Lucas Tolimán	10	San Lucas Tolimán	11	Noviembre	2023-05-11T00:00:00	2024-11-08T11:00:00	5	Humedad	54
157453	7	Sololá	713	San Lucas Tolimán	10	San Lucas Tolimán	11	Noviembre	2023-05-11T00:00:00	2024-11-08T11:00:00	6	Velocidad del viento	4.8
157454	7	Sololá	713	San Lucas Tolimán	10	San Lucas Tolimán	11	Noviembre	2023-05-11T00:00:00	2024-11-08T11:00:00	7	Dirección del viento	4.83
157455	7	Sololá	713	San Lucas Tolimán	10	San Lucas Tolimán	11	Noviembre	2023-05-11T00:00:00	2024-11-08T11:00:00	1	Precipitación	0
157456	7	Sololá	713	San Lucas Tolimán	10	San Lucas Tolimán	11	Noviembre	2023-05-11T00:00:00	2024-11-08T11:00:00	8	Radiación solar	172
157457	7	Sololá	713	San Lucas Tolimán	10	San Lucas Tolimán	11	Noviembre	2023-05-11T00:00:00	2024-11-08T12:00:00	2	Temperatura media	22.9
157458	7	Sololá	713	San Lucas Tolimán	10	San Lucas Tolimán	11	Noviembre	2023-05-11T00:00:00	2024-11-08T12:00:00	4	Temperatura máxima	22.9
157459	7	Sololá	713	San Lucas Tolimán	10	San Lucas Tolimán	11	Noviembre	2023-05-11T00:00:00	2024-11-08T12:00:00	3	Temperatura mínima	22.3
157460	7	Sololá	713	San Lucas Tolimán	10	San Lucas Tolimán	11	Noviembre	2023-05-11T00:00:00	2024-11-08T12:00:00	5	Humedad	53
157461	7	Sololá	713	San Lucas Tolimán	10	San Lucas Tolimán	11	Noviembre	2023-05-11T00:00:00	2024-11-08T12:00:00	6	Velocidad del viento	4.8
157462	7	Sololá	713	San Lucas Tolimán	10	San Lucas Tolimán	11	Noviembre	2023-05-11T00:00:00	2024-11-08T12:00:00	7	Dirección del viento	4.83
157463	7	Sololá	713	San Lucas Tolimán	10	San Lucas Tolimán	11	Noviembre	2023-05-11T00:00:00	2024-11-08T12:00:00	1	Precipitación	0
157464	7	Sololá	713	San Lucas Tolimán	10	San Lucas Tolimán	11	Noviembre	2023-05-11T00:00:00	2024-11-08T12:00:00	8	Radiación solar	245
157465	7	Sololá	713	San Lucas Tolimán	10	San Lucas Tolimán	11	Noviembre	2023-05-11T00:00:00	2024-11-08T13:00:00	2	Temperatura media	22.7
157466	7	Sololá	713	San Lucas Tolimán	10	San Lucas Tolimán	11	Noviembre	2023-05-11T00:00:00	2024-11-08T13:00:00	4	Temperatura máxima	23.9
157467	7	Sololá	713	San Lucas Tolimán	10	San Lucas Tolimán	11	Noviembre	2023-05-11T00:00:00	2024-11-08T13:00:00	3	Temperatura mínima	22.7
157468	7	Sololá	713	San Lucas Tolimán	10	San Lucas Tolimán	11	Noviembre	2023-05-11T00:00:00	2024-11-08T13:00:00	5	Humedad	58
157469	7	Sololá	713	San Lucas Tolimán	10	San Lucas Tolimán	11	Noviembre	2023-05-11T00:00:00	2024-11-08T13:00:00	6	Velocidad del viento	4.8
157470	7	Sololá	713	San Lucas Tolimán	10	San Lucas Tolimán	11	Noviembre	2023-05-11T00:00:00	2024-11-08T13:00:00	7	Dirección del viento	4.83
157471	7	Sololá	713	San Lucas Tolimán	10	San Lucas Tolimán	11	Noviembre	2023-05-11T00:00:00	2024-11-08T13:00:00	1	Precipitación	0
157472	7	Sololá	713	San Lucas Tolimán	10	San Lucas Tolimán	11	Noviembre	2023-05-11T00:00:00	2024-11-08T13:00:00	8	Radiación solar	321
157473	7	Sololá	713	San Lucas Tolimán	10	San Lucas Tolimán	11	Noviembre	2023-05-11T00:00:00	2024-11-08T14:00:00	2	Temperatura media	22.1
157474	7	Sololá	713	San Lucas Tolimán	10	San Lucas Tolimán	11	Noviembre	2023-05-11T00:00:00	2024-11-08T14:00:00	4	Temperatura máxima	22.7
157475	7	Sololá	713	San Lucas Tolimán	10	San Lucas Tolimán	11	Noviembre	2023-05-11T00:00:00	2024-11-08T14:00:00	3	Temperatura mínima	21
157476	7	Sololá	713	San Lucas Tolimán	10	San Lucas Tolimán	11	Noviembre	2023-05-11T00:00:00	2024-11-08T14:00:00	5	Humedad	59
157477	7	Sololá	713	San Lucas Tolimán	10	San Lucas Tolimán	11	Noviembre	2023-05-11T00:00:00	2024-11-08T14:00:00	6	Velocidad del viento	6.4
157478	7	Sololá	713	San Lucas Tolimán	10	San Lucas Tolimán	11	Noviembre	2023-05-11T00:00:00	2024-11-08T14:00:00	7	Dirección del viento	6.44
157479	7	Sololá	713	San Lucas Tolimán	10	San Lucas Tolimán	11	Noviembre	2023-05-11T00:00:00	2024-11-08T14:00:00	1	Precipitación	0
157480	7	Sololá	713	San Lucas Tolimán	10	San Lucas Tolimán	11	Noviembre	2023-05-11T00:00:00	2024-11-08T14:00:00	8	Radiación solar	296
157481	7	Sololá	713	San Lucas Tolimán	10	San Lucas Tolimán	11	Noviembre	2023-05-11T00:00:00	2024-11-08T15:00:00	2	Temperatura media	22.4
157482	7	Sololá	713	San Lucas Tolimán	10	San Lucas Tolimán	11	Noviembre	2023-05-11T00:00:00	2024-11-08T15:00:00	4	Temperatura máxima	23.1
157483	7	Sololá	713	San Lucas Tolimán	10	San Lucas Tolimán	11	Noviembre	2023-05-11T00:00:00	2024-11-08T15:00:00	3	Temperatura mínima	22.1
157484	7	Sololá	713	San Lucas Tolimán	10	San Lucas Tolimán	11	Noviembre	2023-05-11T00:00:00	2024-11-08T15:00:00	5	Humedad	59
157485	7	Sololá	713	San Lucas Tolimán	10	San Lucas Tolimán	11	Noviembre	2023-05-11T00:00:00	2024-11-08T15:00:00	6	Velocidad del viento	6.4
157486	7	Sololá	713	San Lucas Tolimán	10	San Lucas Tolimán	11	Noviembre	2023-05-11T00:00:00	2024-11-08T15:00:00	7	Dirección del viento	6.44
157487	7	Sololá	713	San Lucas Tolimán	10	San Lucas Tolimán	11	Noviembre	2023-05-11T00:00:00	2024-11-08T15:00:00	1	Precipitación	0
157488	7	Sololá	713	San Lucas Tolimán	10	San Lucas Tolimán	11	Noviembre	2023-05-11T00:00:00	2024-11-08T15:00:00	8	Radiación solar	349
157489	7	Sololá	713	San Lucas Tolimán	10	San Lucas Tolimán	11	Noviembre	2023-05-11T00:00:00	2024-11-08T16:00:00	2	Temperatura media	19.4
157490	7	Sololá	713	San Lucas Tolimán	10	San Lucas Tolimán	11	Noviembre	2023-05-11T00:00:00	2024-11-08T16:00:00	4	Temperatura máxima	23.3
157491	7	Sololá	713	San Lucas Tolimán	10	San Lucas Tolimán	11	Noviembre	2023-05-11T00:00:00	2024-11-08T16:00:00	3	Temperatura mínima	19.4
157492	7	Sololá	713	San Lucas Tolimán	10	San Lucas Tolimán	11	Noviembre	2023-05-11T00:00:00	2024-11-08T16:00:00	5	Humedad	61
157493	7	Sololá	713	San Lucas Tolimán	10	San Lucas Tolimán	11	Noviembre	2023-05-11T00:00:00	2024-11-08T16:00:00	6	Velocidad del viento	8
157494	7	Sololá	713	San Lucas Tolimán	10	San Lucas Tolimán	11	Noviembre	2023-05-11T00:00:00	2024-11-08T16:00:00	7	Dirección del viento	8.05
157495	7	Sololá	713	San Lucas Tolimán	10	San Lucas Tolimán	11	Noviembre	2023-05-11T00:00:00	2024-11-08T16:00:00	1	Precipitación	0
157496	7	Sololá	713	San Lucas Tolimán	10	San Lucas Tolimán	11	Noviembre	2023-05-11T00:00:00	2024-11-08T16:00:00	8	Radiación solar	198
157497	7	Sololá	713	San Lucas Tolimán	10	San Lucas Tolimán	11	Noviembre	2023-05-11T00:00:00	2024-11-08T17:00:00	2	Temperatura media	18.8
157498	7	Sololá	713	San Lucas Tolimán	10	San Lucas Tolimán	11	Noviembre	2023-05-11T00:00:00	2024-11-08T17:00:00	4	Temperatura máxima	19.4
157499	7	Sololá	713	San Lucas Tolimán	10	San Lucas Tolimán	11	Noviembre	2023-05-11T00:00:00	2024-11-08T17:00:00	3	Temperatura mínima	18.7
157500	7	Sololá	713	San Lucas Tolimán	10	San Lucas Tolimán	11	Noviembre	2023-05-11T00:00:00	2024-11-08T17:00:00	5	Humedad	67
157501	7	Sololá	713	San Lucas Tolimán	10	San Lucas Tolimán	11	Noviembre	2023-05-11T00:00:00	2024-11-08T17:00:00	6	Velocidad del viento	8
157502	7	Sololá	713	San Lucas Tolimán	10	San Lucas Tolimán	11	Noviembre	2023-05-11T00:00:00	2024-11-08T17:00:00	7	Dirección del viento	8.05
157503	7	Sololá	713	San Lucas Tolimán	10	San Lucas Tolimán	11	Noviembre	2023-05-11T00:00:00	2024-11-08T17:00:00	1	Precipitación	0.4
157504	7	Sololá	713	San Lucas Tolimán	10	San Lucas Tolimán	11	Noviembre	2023-05-11T00:00:00	2024-11-08T17:00:00	8	Radiación solar	57
157505	7	Sololá	713	San Lucas Tolimán	10	San Lucas Tolimán	11	Noviembre	2023-05-11T00:00:00	2024-11-08T18:00:00	2	Temperatura media	18.6
157506	7	Sololá	713	San Lucas Tolimán	10	San Lucas Tolimán	11	Noviembre	2023-05-11T00:00:00	2024-11-08T18:00:00	4	Temperatura máxima	19.1
157507	7	Sololá	713	San Lucas Tolimán	10	San Lucas Tolimán	11	Noviembre	2023-05-11T00:00:00	2024-11-08T18:00:00	3	Temperatura mínima	18.6
157508	7	Sololá	713	San Lucas Tolimán	10	San Lucas Tolimán	11	Noviembre	2023-05-11T00:00:00	2024-11-08T18:00:00	5	Humedad	67
157509	7	Sololá	713	San Lucas Tolimán	10	San Lucas Tolimán	11	Noviembre	2023-05-11T00:00:00	2024-11-08T18:00:00	6	Velocidad del viento	6.4
157510	7	Sololá	713	San Lucas Tolimán	10	San Lucas Tolimán	11	Noviembre	2023-05-11T00:00:00	2024-11-08T18:00:00	7	Dirección del viento	6.44
157511	7	Sololá	713	San Lucas Tolimán	10	San Lucas Tolimán	11	Noviembre	2023-05-11T00:00:00	2024-11-08T18:00:00	1	Precipitación	0
157512	7	Sololá	713	San Lucas Tolimán	10	San Lucas Tolimán	11	Noviembre	2023-05-11T00:00:00	2024-11-08T18:00:00	8	Radiación solar	10
157513	7	Sololá	713	San Lucas Tolimán	10	San Lucas Tolimán	11	Noviembre	2023-05-11T00:00:00	2024-11-08T19:00:00	2	Temperatura media	18.4
157514	7	Sololá	713	San Lucas Tolimán	10	San Lucas Tolimán	11	Noviembre	2023-05-11T00:00:00	2024-11-08T19:00:00	4	Temperatura máxima	18.8
157515	7	Sololá	713	San Lucas Tolimán	10	San Lucas Tolimán	11	Noviembre	2023-05-11T00:00:00	2024-11-08T19:00:00	3	Temperatura mínima	18.4
157516	7	Sololá	713	San Lucas Tolimán	10	San Lucas Tolimán	11	Noviembre	2023-05-11T00:00:00	2024-11-08T19:00:00	5	Humedad	68
157517	7	Sololá	713	San Lucas Tolimán	10	San Lucas Tolimán	11	Noviembre	2023-05-11T00:00:00	2024-11-08T19:00:00	6	Velocidad del viento	3.2
157518	7	Sololá	713	San Lucas Tolimán	10	San Lucas Tolimán	11	Noviembre	2023-05-11T00:00:00	2024-11-08T19:00:00	7	Dirección del viento	3.22
157519	7	Sololá	713	San Lucas Tolimán	10	San Lucas Tolimán	11	Noviembre	2023-05-11T00:00:00	2024-11-08T19:00:00	1	Precipitación	0
157520	7	Sololá	713	San Lucas Tolimán	10	San Lucas Tolimán	11	Noviembre	2023-05-11T00:00:00	2024-11-08T19:00:00	8	Radiación solar	0
157521	7	Sololá	713	San Lucas Tolimán	10	San Lucas Tolimán	11	Noviembre	2023-05-11T00:00:00	2024-11-08T20:00:00	2	Temperatura media	20.5
157522	7	Sololá	713	San Lucas Tolimán	10	San Lucas Tolimán	11	Noviembre	2023-05-11T00:00:00	2024-11-08T20:00:00	4	Temperatura máxima	20.6
157523	7	Sololá	713	San Lucas Tolimán	10	San Lucas Tolimán	11	Noviembre	2023-05-11T00:00:00	2024-11-08T20:00:00	3	Temperatura mínima	18.2
157524	7	Sololá	713	San Lucas Tolimán	10	San Lucas Tolimán	11	Noviembre	2023-05-11T00:00:00	2024-11-08T20:00:00	5	Humedad	58
157525	7	Sololá	713	San Lucas Tolimán	10	San Lucas Tolimán	11	Noviembre	2023-05-11T00:00:00	2024-11-08T20:00:00	6	Velocidad del viento	8
157526	7	Sololá	713	San Lucas Tolimán	10	San Lucas Tolimán	11	Noviembre	2023-05-11T00:00:00	2024-11-08T20:00:00	7	Dirección del viento	8.05
157527	7	Sololá	713	San Lucas Tolimán	10	San Lucas Tolimán	11	Noviembre	2023-05-11T00:00:00	2024-11-08T20:00:00	1	Precipitación	0
157528	7	Sololá	713	San Lucas Tolimán	10	San Lucas Tolimán	11	Noviembre	2023-05-11T00:00:00	2024-11-08T20:00:00	8	Radiación solar	0
157529	7	Sololá	713	San Lucas Tolimán	10	San Lucas Tolimán	11	Noviembre	2023-05-11T00:00:00	2024-11-08T21:00:00	2	Temperatura media	19.5
157530	7	Sololá	713	San Lucas Tolimán	10	San Lucas Tolimán	11	Noviembre	2023-05-11T00:00:00	2024-11-08T21:00:00	4	Temperatura máxima	20.6
157531	7	Sololá	713	San Lucas Tolimán	10	San Lucas Tolimán	11	Noviembre	2023-05-11T00:00:00	2024-11-08T21:00:00	3	Temperatura mínima	19.4
157532	7	Sololá	713	San Lucas Tolimán	10	San Lucas Tolimán	11	Noviembre	2023-05-11T00:00:00	2024-11-08T21:00:00	5	Humedad	63
157533	7	Sololá	713	San Lucas Tolimán	10	San Lucas Tolimán	11	Noviembre	2023-05-11T00:00:00	2024-11-08T21:00:00	6	Velocidad del viento	3.2
157534	7	Sololá	713	San Lucas Tolimán	10	San Lucas Tolimán	11	Noviembre	2023-05-11T00:00:00	2024-11-08T21:00:00	7	Dirección del viento	3.22
157535	7	Sololá	713	San Lucas Tolimán	10	San Lucas Tolimán	11	Noviembre	2023-05-11T00:00:00	2024-11-08T21:00:00	1	Precipitación	0
157536	7	Sololá	713	San Lucas Tolimán	10	San Lucas Tolimán	11	Noviembre	2023-05-11T00:00:00	2024-11-08T21:00:00	8	Radiación solar	0
157537	7	Sololá	713	San Lucas Tolimán	10	San Lucas Tolimán	11	Noviembre	2023-05-11T00:00:00	2024-11-08T22:00:00	2	Temperatura media	20.3
157538	7	Sololá	713	San Lucas Tolimán	10	San Lucas Tolimán	11	Noviembre	2023-05-11T00:00:00	2024-11-08T22:00:00	4	Temperatura máxima	20.6
157539	7	Sololá	713	San Lucas Tolimán	10	San Lucas Tolimán	11	Noviembre	2023-05-11T00:00:00	2024-11-08T22:00:00	3	Temperatura mínima	19.4
157540	7	Sololá	713	San Lucas Tolimán	10	San Lucas Tolimán	11	Noviembre	2023-05-11T00:00:00	2024-11-08T22:00:00	5	Humedad	60
157541	7	Sololá	713	San Lucas Tolimán	10	San Lucas Tolimán	11	Noviembre	2023-05-11T00:00:00	2024-11-08T22:00:00	6	Velocidad del viento	3.2
157542	7	Sololá	713	San Lucas Tolimán	10	San Lucas Tolimán	11	Noviembre	2023-05-11T00:00:00	2024-11-08T22:00:00	7	Dirección del viento	3.22
157543	7	Sololá	713	San Lucas Tolimán	10	San Lucas Tolimán	11	Noviembre	2023-05-11T00:00:00	2024-11-08T22:00:00	1	Precipitación	0
157544	7	Sololá	713	San Lucas Tolimán	10	San Lucas Tolimán	11	Noviembre	2023-05-11T00:00:00	2024-11-08T22:00:00	8	Radiación solar	0
157545	7	Sololá	713	San Lucas Tolimán	10	San Lucas Tolimán	11	Noviembre	2023-05-11T00:00:00	2024-11-08T23:00:00	2	Temperatura media	20.4
157546	7	Sololá	713	San Lucas Tolimán	10	San Lucas Tolimán	11	Noviembre	2023-05-11T00:00:00	2024-11-08T23:00:00	4	Temperatura máxima	20.4
157547	7	Sololá	713	San Lucas Tolimán	10	San Lucas Tolimán	11	Noviembre	2023-05-11T00:00:00	2024-11-08T23:00:00	3	Temperatura mínima	19.6
157548	7	Sololá	713	San Lucas Tolimán	10	San Lucas Tolimán	11	Noviembre	2023-05-11T00:00:00	2024-11-08T23:00:00	5	Humedad	58
157549	7	Sololá	713	San Lucas Tolimán	10	San Lucas Tolimán	11	Noviembre	2023-05-11T00:00:00	2024-11-08T23:00:00	6	Velocidad del viento	4.8
157550	7	Sololá	713	San Lucas Tolimán	10	San Lucas Tolimán	11	Noviembre	2023-05-11T00:00:00	2024-11-08T23:00:00	7	Dirección del viento	4.83
157551	7	Sololá	713	San Lucas Tolimán	10	San Lucas Tolimán	11	Noviembre	2023-05-11T00:00:00	2024-11-08T23:00:00	1	Precipitación	0
157552	7	Sololá	713	San Lucas Tolimán	10	San Lucas Tolimán	11	Noviembre	2023-05-11T00:00:00	2024-11-08T23:00:00	8	Radiación solar	0
157553	7	Sololá	713	San Lucas Tolimán	10	San Lucas Tolimán	11	Noviembre	2023-06-11T00:00:00	2024-11-08T00:00:00	2	Temperatura media	20.3
157554	7	Sololá	713	San Lucas Tolimán	10	San Lucas Tolimán	11	Noviembre	2023-06-11T00:00:00	2024-11-08T00:00:00	4	Temperatura máxima	20.6
157555	7	Sololá	713	San Lucas Tolimán	10	San Lucas Tolimán	11	Noviembre	2023-06-11T00:00:00	2024-11-08T00:00:00	3	Temperatura mínima	20.3
157556	7	Sololá	713	San Lucas Tolimán	10	San Lucas Tolimán	11	Noviembre	2023-06-11T00:00:00	2024-11-08T00:00:00	5	Humedad	59
157557	7	Sololá	713	San Lucas Tolimán	10	San Lucas Tolimán	11	Noviembre	2023-06-11T00:00:00	2024-11-08T00:00:00	6	Velocidad del viento	8
157558	7	Sololá	713	San Lucas Tolimán	10	San Lucas Tolimán	11	Noviembre	2023-06-11T00:00:00	2024-11-08T00:00:00	7	Dirección del viento	8.05
157559	7	Sololá	713	San Lucas Tolimán	10	San Lucas Tolimán	11	Noviembre	2023-06-11T00:00:00	2024-11-08T00:00:00	1	Precipitación	0
157560	7	Sololá	713	San Lucas Tolimán	10	San Lucas Tolimán	11	Noviembre	2023-06-11T00:00:00	2024-11-08T00:00:00	8	Radiación solar	0
157561	7	Sololá	713	San Lucas Tolimán	10	San Lucas Tolimán	11	Noviembre	2023-06-11T00:00:00	2024-11-08T01:00:00	2	Temperatura media	20.6
157562	7	Sololá	713	San Lucas Tolimán	10	San Lucas Tolimán	11	Noviembre	2023-06-11T00:00:00	2024-11-08T01:00:00	4	Temperatura máxima	20.7
157563	7	Sololá	713	San Lucas Tolimán	10	San Lucas Tolimán	11	Noviembre	2023-06-11T00:00:00	2024-11-08T01:00:00	3	Temperatura mínima	20.3
157564	7	Sololá	713	San Lucas Tolimán	10	San Lucas Tolimán	11	Noviembre	2023-06-11T00:00:00	2024-11-08T01:00:00	5	Humedad	58
157565	7	Sololá	713	San Lucas Tolimán	10	San Lucas Tolimán	11	Noviembre	2023-06-11T00:00:00	2024-11-08T01:00:00	6	Velocidad del viento	9.7
157566	7	Sololá	713	San Lucas Tolimán	10	San Lucas Tolimán	11	Noviembre	2023-06-11T00:00:00	2024-11-08T01:00:00	7	Dirección del viento	9.66
157567	7	Sololá	713	San Lucas Tolimán	10	San Lucas Tolimán	11	Noviembre	2023-06-11T00:00:00	2024-11-08T01:00:00	1	Precipitación	0
157568	7	Sololá	713	San Lucas Tolimán	10	San Lucas Tolimán	11	Noviembre	2023-06-11T00:00:00	2024-11-08T01:00:00	8	Radiación solar	0
157569	7	Sololá	713	San Lucas Tolimán	10	San Lucas Tolimán	11	Noviembre	2023-06-11T00:00:00	2024-11-08T02:00:00	2	Temperatura media	20.4
157570	7	Sololá	713	San Lucas Tolimán	10	San Lucas Tolimán	11	Noviembre	2023-06-11T00:00:00	2024-11-08T02:00:00	4	Temperatura máxima	20.6
157571	7	Sololá	713	San Lucas Tolimán	10	San Lucas Tolimán	11	Noviembre	2023-06-11T00:00:00	2024-11-08T02:00:00	3	Temperatura mínima	20.4
157572	7	Sololá	713	San Lucas Tolimán	10	San Lucas Tolimán	11	Noviembre	2023-06-11T00:00:00	2024-11-08T02:00:00	5	Humedad	58
157573	7	Sololá	713	San Lucas Tolimán	10	San Lucas Tolimán	11	Noviembre	2023-06-11T00:00:00	2024-11-08T02:00:00	6	Velocidad del viento	4.8
157574	7	Sololá	713	San Lucas Tolimán	10	San Lucas Tolimán	11	Noviembre	2023-06-11T00:00:00	2024-11-08T02:00:00	7	Dirección del viento	4.83
157575	7	Sololá	713	San Lucas Tolimán	10	San Lucas Tolimán	11	Noviembre	2023-06-11T00:00:00	2024-11-08T02:00:00	1	Precipitación	0.2
157576	7	Sololá	713	San Lucas Tolimán	10	San Lucas Tolimán	11	Noviembre	2023-06-11T00:00:00	2024-11-08T02:00:00	8	Radiación solar	0
157577	7	Sololá	713	San Lucas Tolimán	10	San Lucas Tolimán	11	Noviembre	2023-06-11T00:00:00	2024-11-08T03:00:00	2	Temperatura media	19.7
157578	7	Sololá	713	San Lucas Tolimán	10	San Lucas Tolimán	11	Noviembre	2023-06-11T00:00:00	2024-11-08T03:00:00	4	Temperatura máxima	20.6
157579	7	Sololá	713	San Lucas Tolimán	10	San Lucas Tolimán	11	Noviembre	2023-06-11T00:00:00	2024-11-08T03:00:00	3	Temperatura mínima	19.7
157580	7	Sololá	713	San Lucas Tolimán	10	San Lucas Tolimán	11	Noviembre	2023-06-11T00:00:00	2024-11-08T03:00:00	5	Humedad	60
157581	7	Sololá	713	San Lucas Tolimán	10	San Lucas Tolimán	11	Noviembre	2023-06-11T00:00:00	2024-11-08T03:00:00	6	Velocidad del viento	4.8
157582	7	Sololá	713	San Lucas Tolimán	10	San Lucas Tolimán	11	Noviembre	2023-06-11T00:00:00	2024-11-08T03:00:00	7	Dirección del viento	4.83
157583	7	Sololá	713	San Lucas Tolimán	10	San Lucas Tolimán	11	Noviembre	2023-06-11T00:00:00	2024-11-08T03:00:00	1	Precipitación	0
157584	7	Sololá	713	San Lucas Tolimán	10	San Lucas Tolimán	11	Noviembre	2023-06-11T00:00:00	2024-11-08T03:00:00	8	Radiación solar	0
157585	7	Sololá	713	San Lucas Tolimán	10	San Lucas Tolimán	11	Noviembre	2023-06-11T00:00:00	2024-11-08T04:00:00	2	Temperatura media	20
157586	7	Sololá	713	San Lucas Tolimán	10	San Lucas Tolimán	11	Noviembre	2023-06-11T00:00:00	2024-11-08T04:00:00	4	Temperatura máxima	20.3
157587	7	Sololá	713	San Lucas Tolimán	10	San Lucas Tolimán	11	Noviembre	2023-06-11T00:00:00	2024-11-08T04:00:00	3	Temperatura mínima	19.4
157588	7	Sololá	713	San Lucas Tolimán	10	San Lucas Tolimán	11	Noviembre	2023-06-11T00:00:00	2024-11-08T04:00:00	5	Humedad	59
157589	7	Sololá	713	San Lucas Tolimán	10	San Lucas Tolimán	11	Noviembre	2023-06-11T00:00:00	2024-11-08T04:00:00	6	Velocidad del viento	3.2
157590	7	Sololá	713	San Lucas Tolimán	10	San Lucas Tolimán	11	Noviembre	2023-06-11T00:00:00	2024-11-08T04:00:00	7	Dirección del viento	3.22
157591	7	Sololá	713	San Lucas Tolimán	10	San Lucas Tolimán	11	Noviembre	2023-06-11T00:00:00	2024-11-08T04:00:00	1	Precipitación	0
157592	7	Sololá	713	San Lucas Tolimán	10	San Lucas Tolimán	11	Noviembre	2023-06-11T00:00:00	2024-11-08T04:00:00	8	Radiación solar	0
157593	7	Sololá	713	San Lucas Tolimán	10	San Lucas Tolimán	11	Noviembre	2023-06-11T00:00:00	2024-11-08T05:00:00	2	Temperatura media	20.6
157594	7	Sololá	713	San Lucas Tolimán	10	San Lucas Tolimán	11	Noviembre	2023-06-11T00:00:00	2024-11-08T05:00:00	4	Temperatura máxima	20.6
157595	7	Sololá	713	San Lucas Tolimán	10	San Lucas Tolimán	11	Noviembre	2023-06-11T00:00:00	2024-11-08T05:00:00	3	Temperatura mínima	19.7
157596	7	Sololá	713	San Lucas Tolimán	10	San Lucas Tolimán	11	Noviembre	2023-06-11T00:00:00	2024-11-08T05:00:00	5	Humedad	58
157597	7	Sololá	713	San Lucas Tolimán	10	San Lucas Tolimán	11	Noviembre	2023-06-11T00:00:00	2024-11-08T05:00:00	6	Velocidad del viento	3.2
157598	7	Sololá	713	San Lucas Tolimán	10	San Lucas Tolimán	11	Noviembre	2023-06-11T00:00:00	2024-11-08T05:00:00	7	Dirección del viento	3.22
157599	7	Sololá	713	San Lucas Tolimán	10	San Lucas Tolimán	11	Noviembre	2023-06-11T00:00:00	2024-11-08T05:00:00	1	Precipitación	0
157600	7	Sololá	713	San Lucas Tolimán	10	San Lucas Tolimán	11	Noviembre	2023-06-11T00:00:00	2024-11-08T05:00:00	8	Radiación solar	0
157601	7	Sololá	713	San Lucas Tolimán	10	San Lucas Tolimán	11	Noviembre	2023-06-11T00:00:00	2024-11-08T06:00:00	2	Temperatura media	20
157602	7	Sololá	713	San Lucas Tolimán	10	San Lucas Tolimán	11	Noviembre	2023-06-11T00:00:00	2024-11-08T06:00:00	4	Temperatura máxima	20.7
157603	7	Sololá	713	San Lucas Tolimán	10	San Lucas Tolimán	11	Noviembre	2023-06-11T00:00:00	2024-11-08T06:00:00	3	Temperatura mínima	20
157604	7	Sololá	713	San Lucas Tolimán	10	San Lucas Tolimán	11	Noviembre	2023-06-11T00:00:00	2024-11-08T06:00:00	5	Humedad	61
157605	7	Sololá	713	San Lucas Tolimán	10	San Lucas Tolimán	11	Noviembre	2023-06-11T00:00:00	2024-11-08T06:00:00	6	Velocidad del viento	8
157606	7	Sololá	713	San Lucas Tolimán	10	San Lucas Tolimán	11	Noviembre	2023-06-11T00:00:00	2024-11-08T06:00:00	7	Dirección del viento	8.05
157607	7	Sololá	713	San Lucas Tolimán	10	San Lucas Tolimán	11	Noviembre	2023-06-11T00:00:00	2024-11-08T06:00:00	1	Precipitación	0
157608	7	Sololá	713	San Lucas Tolimán	10	San Lucas Tolimán	11	Noviembre	2023-06-11T00:00:00	2024-11-08T06:00:00	8	Radiación solar	0
157609	7	Sololá	713	San Lucas Tolimán	10	San Lucas Tolimán	11	Noviembre	2023-06-11T00:00:00	2024-11-08T07:00:00	2	Temperatura media	20.6
157610	7	Sololá	713	San Lucas Tolimán	10	San Lucas Tolimán	11	Noviembre	2023-06-11T00:00:00	2024-11-08T07:00:00	4	Temperatura máxima	20.6
157611	7	Sololá	713	San Lucas Tolimán	10	San Lucas Tolimán	11	Noviembre	2023-06-11T00:00:00	2024-11-08T07:00:00	3	Temperatura mínima	19.9
157612	7	Sololá	713	San Lucas Tolimán	10	San Lucas Tolimán	11	Noviembre	2023-06-11T00:00:00	2024-11-08T07:00:00	5	Humedad	58
157613	7	Sololá	713	San Lucas Tolimán	10	San Lucas Tolimán	11	Noviembre	2023-06-11T00:00:00	2024-11-08T07:00:00	6	Velocidad del viento	11.3
157614	7	Sololá	713	San Lucas Tolimán	10	San Lucas Tolimán	11	Noviembre	2023-06-11T00:00:00	2024-11-08T07:00:00	7	Dirección del viento	11.27
157615	7	Sololá	713	San Lucas Tolimán	10	San Lucas Tolimán	11	Noviembre	2023-06-11T00:00:00	2024-11-08T07:00:00	1	Precipitación	0
157616	7	Sololá	713	San Lucas Tolimán	10	San Lucas Tolimán	11	Noviembre	2023-06-11T00:00:00	2024-11-08T07:00:00	8	Radiación solar	17
157617	7	Sololá	713	San Lucas Tolimán	10	San Lucas Tolimán	11	Noviembre	2023-06-11T00:00:00	2024-11-08T08:00:00	2	Temperatura media	21.5
157618	7	Sololá	713	San Lucas Tolimán	10	San Lucas Tolimán	11	Noviembre	2023-06-11T00:00:00	2024-11-08T08:00:00	4	Temperatura máxima	21.5
157619	7	Sololá	713	San Lucas Tolimán	10	San Lucas Tolimán	11	Noviembre	2023-06-11T00:00:00	2024-11-08T08:00:00	3	Temperatura mínima	20.6
157620	7	Sololá	713	San Lucas Tolimán	10	San Lucas Tolimán	11	Noviembre	2023-06-11T00:00:00	2024-11-08T08:00:00	5	Humedad	54
157621	7	Sololá	713	San Lucas Tolimán	10	San Lucas Tolimán	11	Noviembre	2023-06-11T00:00:00	2024-11-08T08:00:00	6	Velocidad del viento	6.4
157622	7	Sololá	713	San Lucas Tolimán	10	San Lucas Tolimán	11	Noviembre	2023-06-11T00:00:00	2024-11-08T08:00:00	7	Dirección del viento	6.44
157623	7	Sololá	713	San Lucas Tolimán	10	San Lucas Tolimán	11	Noviembre	2023-06-11T00:00:00	2024-11-08T08:00:00	1	Precipitación	0
157624	7	Sololá	713	San Lucas Tolimán	10	San Lucas Tolimán	11	Noviembre	2023-06-11T00:00:00	2024-11-08T08:00:00	8	Radiación solar	117
157625	7	Sololá	713	San Lucas Tolimán	10	San Lucas Tolimán	11	Noviembre	2023-06-11T00:00:00	2024-11-08T09:00:00	2	Temperatura media	22.1
157626	7	Sololá	713	San Lucas Tolimán	10	San Lucas Tolimán	11	Noviembre	2023-06-11T00:00:00	2024-11-08T09:00:00	4	Temperatura máxima	22.1
157627	7	Sololá	713	San Lucas Tolimán	10	San Lucas Tolimán	11	Noviembre	2023-06-11T00:00:00	2024-11-08T09:00:00	3	Temperatura mínima	21.5
157628	7	Sololá	713	San Lucas Tolimán	10	San Lucas Tolimán	11	Noviembre	2023-06-11T00:00:00	2024-11-08T09:00:00	5	Humedad	52
157629	7	Sololá	713	San Lucas Tolimán	10	San Lucas Tolimán	11	Noviembre	2023-06-11T00:00:00	2024-11-08T09:00:00	6	Velocidad del viento	6.4
157630	7	Sololá	713	San Lucas Tolimán	10	San Lucas Tolimán	11	Noviembre	2023-06-11T00:00:00	2024-11-08T09:00:00	7	Dirección del viento	6.44
157631	7	Sololá	713	San Lucas Tolimán	10	San Lucas Tolimán	11	Noviembre	2023-06-11T00:00:00	2024-11-08T09:00:00	1	Precipitación	0
157632	7	Sololá	713	San Lucas Tolimán	10	San Lucas Tolimán	11	Noviembre	2023-06-11T00:00:00	2024-11-08T09:00:00	8	Radiación solar	214
157633	7	Sololá	713	San Lucas Tolimán	10	San Lucas Tolimán	11	Noviembre	2023-06-11T00:00:00	2024-11-08T10:00:00	2	Temperatura media	22.7
157634	7	Sololá	713	San Lucas Tolimán	10	San Lucas Tolimán	11	Noviembre	2023-06-11T00:00:00	2024-11-08T10:00:00	4	Temperatura máxima	22.7
157635	7	Sololá	713	San Lucas Tolimán	10	San Lucas Tolimán	11	Noviembre	2023-06-11T00:00:00	2024-11-08T10:00:00	3	Temperatura mínima	22
157636	7	Sololá	713	San Lucas Tolimán	10	San Lucas Tolimán	11	Noviembre	2023-06-11T00:00:00	2024-11-08T10:00:00	5	Humedad	53
157637	7	Sololá	713	San Lucas Tolimán	10	San Lucas Tolimán	11	Noviembre	2023-06-11T00:00:00	2024-11-08T10:00:00	6	Velocidad del viento	11.3
157638	7	Sololá	713	San Lucas Tolimán	10	San Lucas Tolimán	11	Noviembre	2023-06-11T00:00:00	2024-11-08T10:00:00	7	Dirección del viento	11.27
157639	7	Sololá	713	San Lucas Tolimán	10	San Lucas Tolimán	11	Noviembre	2023-06-11T00:00:00	2024-11-08T10:00:00	1	Precipitación	0
157640	7	Sololá	713	San Lucas Tolimán	10	San Lucas Tolimán	11	Noviembre	2023-06-11T00:00:00	2024-11-08T10:00:00	8	Radiación solar	289
157641	7	Sololá	713	San Lucas Tolimán	10	San Lucas Tolimán	11	Noviembre	2023-06-11T00:00:00	2024-11-08T11:00:00	2	Temperatura media	23.6
157642	7	Sololá	713	San Lucas Tolimán	10	San Lucas Tolimán	11	Noviembre	2023-06-11T00:00:00	2024-11-08T11:00:00	4	Temperatura máxima	23.6
157643	7	Sololá	713	San Lucas Tolimán	10	San Lucas Tolimán	11	Noviembre	2023-06-11T00:00:00	2024-11-08T11:00:00	3	Temperatura mínima	22.6
157644	7	Sololá	713	San Lucas Tolimán	10	San Lucas Tolimán	11	Noviembre	2023-06-11T00:00:00	2024-11-08T11:00:00	5	Humedad	52
157645	7	Sololá	713	San Lucas Tolimán	10	San Lucas Tolimán	11	Noviembre	2023-06-11T00:00:00	2024-11-08T11:00:00	6	Velocidad del viento	12.9
157646	7	Sololá	713	San Lucas Tolimán	10	San Lucas Tolimán	11	Noviembre	2023-06-11T00:00:00	2024-11-08T11:00:00	7	Dirección del viento	12.87
157647	7	Sololá	713	San Lucas Tolimán	10	San Lucas Tolimán	11	Noviembre	2023-06-11T00:00:00	2024-11-08T11:00:00	1	Precipitación	0
157648	7	Sololá	713	San Lucas Tolimán	10	San Lucas Tolimán	11	Noviembre	2023-06-11T00:00:00	2024-11-08T11:00:00	8	Radiación solar	412
157649	7	Sololá	713	San Lucas Tolimán	10	San Lucas Tolimán	11	Noviembre	2023-06-11T00:00:00	2024-11-08T12:00:00	2	Temperatura media	23.6
157650	7	Sololá	713	San Lucas Tolimán	10	San Lucas Tolimán	11	Noviembre	2023-06-11T00:00:00	2024-11-08T12:00:00	4	Temperatura máxima	23.6
157651	7	Sololá	713	San Lucas Tolimán	10	San Lucas Tolimán	11	Noviembre	2023-06-11T00:00:00	2024-11-08T12:00:00	3	Temperatura mínima	23.1
157652	7	Sololá	713	San Lucas Tolimán	10	San Lucas Tolimán	11	Noviembre	2023-06-11T00:00:00	2024-11-08T12:00:00	5	Humedad	51
157653	7	Sololá	713	San Lucas Tolimán	10	San Lucas Tolimán	11	Noviembre	2023-06-11T00:00:00	2024-11-08T12:00:00	6	Velocidad del viento	12.9
157654	7	Sololá	713	San Lucas Tolimán	10	San Lucas Tolimán	11	Noviembre	2023-06-11T00:00:00	2024-11-08T12:00:00	7	Dirección del viento	12.87
157655	7	Sololá	713	San Lucas Tolimán	10	San Lucas Tolimán	11	Noviembre	2023-06-11T00:00:00	2024-11-08T12:00:00	1	Precipitación	0
157656	7	Sololá	713	San Lucas Tolimán	10	San Lucas Tolimán	11	Noviembre	2023-06-11T00:00:00	2024-11-08T12:00:00	8	Radiación solar	511
157657	7	Sololá	713	San Lucas Tolimán	10	San Lucas Tolimán	11	Noviembre	2023-06-11T00:00:00	2024-11-08T13:00:00	2	Temperatura media	23.5
157658	7	Sololá	713	San Lucas Tolimán	10	San Lucas Tolimán	11	Noviembre	2023-06-11T00:00:00	2024-11-08T13:00:00	4	Temperatura máxima	23.8
157659	7	Sololá	713	San Lucas Tolimán	10	San Lucas Tolimán	11	Noviembre	2023-06-11T00:00:00	2024-11-08T13:00:00	3	Temperatura mínima	23.1
157660	7	Sololá	713	San Lucas Tolimán	10	San Lucas Tolimán	11	Noviembre	2023-06-11T00:00:00	2024-11-08T13:00:00	5	Humedad	52
157661	7	Sololá	713	San Lucas Tolimán	10	San Lucas Tolimán	11	Noviembre	2023-06-11T00:00:00	2024-11-08T13:00:00	6	Velocidad del viento	6.4
157662	7	Sololá	713	San Lucas Tolimán	10	San Lucas Tolimán	11	Noviembre	2023-06-11T00:00:00	2024-11-08T13:00:00	7	Dirección del viento	6.44
157663	7	Sololá	713	San Lucas Tolimán	10	San Lucas Tolimán	11	Noviembre	2023-06-11T00:00:00	2024-11-08T13:00:00	1	Precipitación	0
157664	7	Sololá	713	San Lucas Tolimán	10	San Lucas Tolimán	11	Noviembre	2023-06-11T00:00:00	2024-11-08T13:00:00	8	Radiación solar	230
157665	7	Sololá	713	San Lucas Tolimán	10	San Lucas Tolimán	11	Noviembre	2023-06-11T00:00:00	2024-11-08T14:00:00	2	Temperatura media	23.8
157666	7	Sololá	713	San Lucas Tolimán	10	San Lucas Tolimán	11	Noviembre	2023-06-11T00:00:00	2024-11-08T14:00:00	4	Temperatura máxima	24.4
157667	7	Sololá	713	San Lucas Tolimán	10	San Lucas Tolimán	11	Noviembre	2023-06-11T00:00:00	2024-11-08T14:00:00	3	Temperatura mínima	23.5
157668	7	Sololá	713	San Lucas Tolimán	10	San Lucas Tolimán	11	Noviembre	2023-06-11T00:00:00	2024-11-08T14:00:00	5	Humedad	51
157669	7	Sololá	713	San Lucas Tolimán	10	San Lucas Tolimán	11	Noviembre	2023-06-11T00:00:00	2024-11-08T14:00:00	6	Velocidad del viento	4.8
157670	7	Sololá	713	San Lucas Tolimán	10	San Lucas Tolimán	11	Noviembre	2023-06-11T00:00:00	2024-11-08T14:00:00	7	Dirección del viento	4.83
157671	7	Sololá	713	San Lucas Tolimán	10	San Lucas Tolimán	11	Noviembre	2023-06-11T00:00:00	2024-11-08T14:00:00	1	Precipitación	0
157672	7	Sololá	713	San Lucas Tolimán	10	San Lucas Tolimán	11	Noviembre	2023-06-11T00:00:00	2024-11-08T14:00:00	8	Radiación solar	303
157673	7	Sololá	713	San Lucas Tolimán	10	San Lucas Tolimán	11	Noviembre	2023-06-11T00:00:00	2024-11-08T15:00:00	2	Temperatura media	22.4
157674	7	Sololá	713	San Lucas Tolimán	10	San Lucas Tolimán	11	Noviembre	2023-06-11T00:00:00	2024-11-08T15:00:00	4	Temperatura máxima	24.2
157675	7	Sololá	713	San Lucas Tolimán	10	San Lucas Tolimán	11	Noviembre	2023-06-11T00:00:00	2024-11-08T15:00:00	3	Temperatura mínima	22.4
157676	7	Sololá	713	San Lucas Tolimán	10	San Lucas Tolimán	11	Noviembre	2023-06-11T00:00:00	2024-11-08T15:00:00	5	Humedad	56
157677	7	Sololá	713	San Lucas Tolimán	10	San Lucas Tolimán	11	Noviembre	2023-06-11T00:00:00	2024-11-08T15:00:00	6	Velocidad del viento	9.7
157678	7	Sololá	713	San Lucas Tolimán	10	San Lucas Tolimán	11	Noviembre	2023-06-11T00:00:00	2024-11-08T15:00:00	7	Dirección del viento	9.66
157679	7	Sololá	713	San Lucas Tolimán	10	San Lucas Tolimán	11	Noviembre	2023-06-11T00:00:00	2024-11-08T15:00:00	1	Precipitación	0
157680	7	Sololá	713	San Lucas Tolimán	10	San Lucas Tolimán	11	Noviembre	2023-06-11T00:00:00	2024-11-08T15:00:00	8	Radiación solar	215
157681	7	Sololá	713	San Lucas Tolimán	10	San Lucas Tolimán	11	Noviembre	2023-06-11T00:00:00	2024-11-08T16:00:00	2	Temperatura media	23.1
157682	7	Sololá	713	San Lucas Tolimán	10	San Lucas Tolimán	11	Noviembre	2023-06-11T00:00:00	2024-11-08T16:00:00	4	Temperatura máxima	23.2
157683	7	Sololá	713	San Lucas Tolimán	10	San Lucas Tolimán	11	Noviembre	2023-06-11T00:00:00	2024-11-08T16:00:00	3	Temperatura mínima	22.4
157684	7	Sololá	713	San Lucas Tolimán	10	San Lucas Tolimán	11	Noviembre	2023-06-11T00:00:00	2024-11-08T16:00:00	5	Humedad	53
157685	7	Sololá	713	San Lucas Tolimán	10	San Lucas Tolimán	11	Noviembre	2023-06-11T00:00:00	2024-11-08T16:00:00	6	Velocidad del viento	6.4
157686	7	Sololá	713	San Lucas Tolimán	10	San Lucas Tolimán	11	Noviembre	2023-06-11T00:00:00	2024-11-08T16:00:00	7	Dirección del viento	6.44
157687	7	Sololá	713	San Lucas Tolimán	10	San Lucas Tolimán	11	Noviembre	2023-06-11T00:00:00	2024-11-08T16:00:00	1	Precipitación	0
157688	7	Sololá	713	San Lucas Tolimán	10	San Lucas Tolimán	11	Noviembre	2023-06-11T00:00:00	2024-11-08T16:00:00	8	Radiación solar	151
157689	7	Sololá	713	San Lucas Tolimán	10	San Lucas Tolimán	11	Noviembre	2023-06-11T00:00:00	2024-11-08T17:00:00	2	Temperatura media	20.6
157690	7	Sololá	713	San Lucas Tolimán	10	San Lucas Tolimán	11	Noviembre	2023-06-11T00:00:00	2024-11-08T17:00:00	4	Temperatura máxima	23.1
157691	7	Sololá	713	San Lucas Tolimán	10	San Lucas Tolimán	11	Noviembre	2023-06-11T00:00:00	2024-11-08T17:00:00	3	Temperatura mínima	20.5
157692	7	Sololá	713	San Lucas Tolimán	10	San Lucas Tolimán	11	Noviembre	2023-06-11T00:00:00	2024-11-08T17:00:00	5	Humedad	64
157693	7	Sololá	713	San Lucas Tolimán	10	San Lucas Tolimán	11	Noviembre	2023-06-11T00:00:00	2024-11-08T17:00:00	6	Velocidad del viento	6.4
157694	7	Sololá	713	San Lucas Tolimán	10	San Lucas Tolimán	11	Noviembre	2023-06-11T00:00:00	2024-11-08T17:00:00	7	Dirección del viento	6.44
157695	7	Sololá	713	San Lucas Tolimán	10	San Lucas Tolimán	11	Noviembre	2023-06-11T00:00:00	2024-11-08T17:00:00	1	Precipitación	0
157696	7	Sololá	713	San Lucas Tolimán	10	San Lucas Tolimán	11	Noviembre	2023-06-11T00:00:00	2024-11-08T17:00:00	8	Radiación solar	35
157697	7	Sololá	713	San Lucas Tolimán	10	San Lucas Tolimán	11	Noviembre	2023-06-11T00:00:00	2024-11-08T18:00:00	2	Temperatura media	21.4
157698	7	Sololá	713	San Lucas Tolimán	10	San Lucas Tolimán	11	Noviembre	2023-06-11T00:00:00	2024-11-08T18:00:00	4	Temperatura máxima	21.7
157699	7	Sololá	713	San Lucas Tolimán	10	San Lucas Tolimán	11	Noviembre	2023-06-11T00:00:00	2024-11-08T18:00:00	3	Temperatura mínima	20.2
157700	7	Sololá	713	San Lucas Tolimán	10	San Lucas Tolimán	11	Noviembre	2023-06-11T00:00:00	2024-11-08T18:00:00	5	Humedad	57
157701	7	Sololá	713	San Lucas Tolimán	10	San Lucas Tolimán	11	Noviembre	2023-06-11T00:00:00	2024-11-08T18:00:00	6	Velocidad del viento	8
157702	7	Sololá	713	San Lucas Tolimán	10	San Lucas Tolimán	11	Noviembre	2023-06-11T00:00:00	2024-11-08T18:00:00	7	Dirección del viento	8.05
157703	7	Sololá	713	San Lucas Tolimán	10	San Lucas Tolimán	11	Noviembre	2023-06-11T00:00:00	2024-11-08T18:00:00	1	Precipitación	0
157704	7	Sololá	713	San Lucas Tolimán	10	San Lucas Tolimán	11	Noviembre	2023-06-11T00:00:00	2024-11-08T18:00:00	8	Radiación solar	1
157705	7	Sololá	713	San Lucas Tolimán	10	San Lucas Tolimán	11	Noviembre	2023-06-11T00:00:00	2024-11-08T19:00:00	2	Temperatura media	21.4
157706	7	Sololá	713	San Lucas Tolimán	10	San Lucas Tolimán	11	Noviembre	2023-06-11T00:00:00	2024-11-08T19:00:00	4	Temperatura máxima	21.6
157707	7	Sololá	713	San Lucas Tolimán	10	San Lucas Tolimán	11	Noviembre	2023-06-11T00:00:00	2024-11-08T19:00:00	3	Temperatura mínima	21.2
157708	7	Sololá	713	San Lucas Tolimán	10	San Lucas Tolimán	11	Noviembre	2023-06-11T00:00:00	2024-11-08T19:00:00	5	Humedad	56
157709	7	Sololá	713	San Lucas Tolimán	10	San Lucas Tolimán	11	Noviembre	2023-06-11T00:00:00	2024-11-08T19:00:00	6	Velocidad del viento	11.3
157710	7	Sololá	713	San Lucas Tolimán	10	San Lucas Tolimán	11	Noviembre	2023-06-11T00:00:00	2024-11-08T19:00:00	7	Dirección del viento	11.27
157711	7	Sololá	713	San Lucas Tolimán	10	San Lucas Tolimán	11	Noviembre	2023-06-11T00:00:00	2024-11-08T19:00:00	1	Precipitación	0
157712	7	Sololá	713	San Lucas Tolimán	10	San Lucas Tolimán	11	Noviembre	2023-06-11T00:00:00	2024-11-08T19:00:00	8	Radiación solar	0
157713	7	Sololá	713	San Lucas Tolimán	10	San Lucas Tolimán	11	Noviembre	2023-06-11T00:00:00	2024-11-08T20:00:00	2	Temperatura media	21.6
157714	7	Sololá	713	San Lucas Tolimán	10	San Lucas Tolimán	11	Noviembre	2023-06-11T00:00:00	2024-11-08T20:00:00	4	Temperatura máxima	21.7
157715	7	Sololá	713	San Lucas Tolimán	10	San Lucas Tolimán	11	Noviembre	2023-06-11T00:00:00	2024-11-08T20:00:00	3	Temperatura mínima	21.4
157716	7	Sololá	713	San Lucas Tolimán	10	San Lucas Tolimán	11	Noviembre	2023-06-11T00:00:00	2024-11-08T20:00:00	5	Humedad	56
157717	7	Sololá	713	San Lucas Tolimán	10	San Lucas Tolimán	11	Noviembre	2023-06-11T00:00:00	2024-11-08T20:00:00	6	Velocidad del viento	12.9
157718	7	Sololá	713	San Lucas Tolimán	10	San Lucas Tolimán	11	Noviembre	2023-06-11T00:00:00	2024-11-08T20:00:00	7	Dirección del viento	12.87
157719	7	Sololá	713	San Lucas Tolimán	10	San Lucas Tolimán	11	Noviembre	2023-06-11T00:00:00	2024-11-08T20:00:00	1	Precipitación	0
157720	7	Sololá	713	San Lucas Tolimán	10	San Lucas Tolimán	11	Noviembre	2023-06-11T00:00:00	2024-11-08T20:00:00	8	Radiación solar	0
157721	7	Sololá	713	San Lucas Tolimán	10	San Lucas Tolimán	11	Noviembre	2023-06-11T00:00:00	2024-11-08T21:00:00	2	Temperatura media	21.5
157722	7	Sololá	713	San Lucas Tolimán	10	San Lucas Tolimán	11	Noviembre	2023-06-11T00:00:00	2024-11-08T21:00:00	4	Temperatura máxima	21.6
157723	7	Sololá	713	San Lucas Tolimán	10	San Lucas Tolimán	11	Noviembre	2023-06-11T00:00:00	2024-11-08T21:00:00	3	Temperatura mínima	21.2
157724	7	Sololá	713	San Lucas Tolimán	10	San Lucas Tolimán	11	Noviembre	2023-06-11T00:00:00	2024-11-08T21:00:00	5	Humedad	57
157725	7	Sololá	713	San Lucas Tolimán	10	San Lucas Tolimán	11	Noviembre	2023-06-11T00:00:00	2024-11-08T21:00:00	6	Velocidad del viento	14.5
157726	7	Sololá	713	San Lucas Tolimán	10	San Lucas Tolimán	11	Noviembre	2023-06-11T00:00:00	2024-11-08T21:00:00	7	Dirección del viento	14.48
157727	7	Sololá	713	San Lucas Tolimán	10	San Lucas Tolimán	11	Noviembre	2023-06-11T00:00:00	2024-11-08T21:00:00	1	Precipitación	0
157728	7	Sololá	713	San Lucas Tolimán	10	San Lucas Tolimán	11	Noviembre	2023-06-11T00:00:00	2024-11-08T21:00:00	8	Radiación solar	0
157729	7	Sololá	713	San Lucas Tolimán	10	San Lucas Tolimán	11	Noviembre	2023-06-11T00:00:00	2024-11-08T22:00:00	2	Temperatura media	20.4
157730	7	Sololá	713	San Lucas Tolimán	10	San Lucas Tolimán	11	Noviembre	2023-06-11T00:00:00	2024-11-08T22:00:00	4	Temperatura máxima	21.5
157731	7	Sololá	713	San Lucas Tolimán	10	San Lucas Tolimán	11	Noviembre	2023-06-11T00:00:00	2024-11-08T22:00:00	3	Temperatura mínima	20.4
157732	7	Sololá	713	San Lucas Tolimán	10	San Lucas Tolimán	11	Noviembre	2023-06-11T00:00:00	2024-11-08T22:00:00	5	Humedad	61
157733	7	Sololá	713	San Lucas Tolimán	10	San Lucas Tolimán	11	Noviembre	2023-06-11T00:00:00	2024-11-08T22:00:00	6	Velocidad del viento	6.4
157734	7	Sololá	713	San Lucas Tolimán	10	San Lucas Tolimán	11	Noviembre	2023-06-11T00:00:00	2024-11-08T22:00:00	7	Dirección del viento	6.44
157735	7	Sololá	713	San Lucas Tolimán	10	San Lucas Tolimán	11	Noviembre	2023-06-11T00:00:00	2024-11-08T22:00:00	1	Precipitación	0
157736	7	Sololá	713	San Lucas Tolimán	10	San Lucas Tolimán	11	Noviembre	2023-06-11T00:00:00	2024-11-08T22:00:00	8	Radiación solar	0
157737	7	Sololá	713	San Lucas Tolimán	10	San Lucas Tolimán	11	Noviembre	2023-06-11T00:00:00	2024-11-08T23:00:00	2	Temperatura media	21.3
157738	7	Sololá	713	San Lucas Tolimán	10	San Lucas Tolimán	11	Noviembre	2023-06-11T00:00:00	2024-11-08T23:00:00	4	Temperatura máxima	21.4
157739	7	Sololá	713	San Lucas Tolimán	10	San Lucas Tolimán	11	Noviembre	2023-06-11T00:00:00	2024-11-08T23:00:00	3	Temperatura mínima	19.8
157740	7	Sololá	713	San Lucas Tolimán	10	San Lucas Tolimán	11	Noviembre	2023-06-11T00:00:00	2024-11-08T23:00:00	5	Humedad	56
157741	7	Sololá	713	San Lucas Tolimán	10	San Lucas Tolimán	11	Noviembre	2023-06-11T00:00:00	2024-11-08T23:00:00	6	Velocidad del viento	9.7
157742	7	Sololá	713	San Lucas Tolimán	10	San Lucas Tolimán	11	Noviembre	2023-06-11T00:00:00	2024-11-08T23:00:00	7	Dirección del viento	9.66
157743	7	Sololá	713	San Lucas Tolimán	10	San Lucas Tolimán	11	Noviembre	2023-06-11T00:00:00	2024-11-08T23:00:00	1	Precipitación	0
157744	7	Sololá	713	San Lucas Tolimán	10	San Lucas Tolimán	11	Noviembre	2023-06-11T00:00:00	2024-11-08T23:00:00	8	Radiación solar	0
157745	7	Sololá	713	San Lucas Tolimán	10	San Lucas Tolimán	11	Noviembre	2023-07-11T00:00:00	2024-11-08T00:00:00	2	Temperatura media	21.2
157746	7	Sololá	713	San Lucas Tolimán	10	San Lucas Tolimán	11	Noviembre	2023-07-11T00:00:00	2024-11-08T00:00:00	4	Temperatura máxima	21.4
157747	7	Sololá	713	San Lucas Tolimán	10	San Lucas Tolimán	11	Noviembre	2023-07-11T00:00:00	2024-11-08T00:00:00	3	Temperatura mínima	21.2
157748	7	Sololá	713	San Lucas Tolimán	10	San Lucas Tolimán	11	Noviembre	2023-07-11T00:00:00	2024-11-08T00:00:00	5	Humedad	56
157749	7	Sololá	713	San Lucas Tolimán	10	San Lucas Tolimán	11	Noviembre	2023-07-11T00:00:00	2024-11-08T00:00:00	6	Velocidad del viento	14.5
157750	7	Sololá	713	San Lucas Tolimán	10	San Lucas Tolimán	11	Noviembre	2023-07-11T00:00:00	2024-11-08T00:00:00	7	Dirección del viento	14.48
157751	7	Sololá	713	San Lucas Tolimán	10	San Lucas Tolimán	11	Noviembre	2023-07-11T00:00:00	2024-11-08T00:00:00	1	Precipitación	0
157752	7	Sololá	713	San Lucas Tolimán	10	San Lucas Tolimán	11	Noviembre	2023-07-11T00:00:00	2024-11-08T00:00:00	8	Radiación solar	0
157753	7	Sololá	713	San Lucas Tolimán	10	San Lucas Tolimán	11	Noviembre	2023-07-11T00:00:00	2024-11-08T01:00:00	2	Temperatura media	20.8
157754	7	Sololá	713	San Lucas Tolimán	10	San Lucas Tolimán	11	Noviembre	2023-07-11T00:00:00	2024-11-08T01:00:00	4	Temperatura máxima	21.3
157755	7	Sololá	713	San Lucas Tolimán	10	San Lucas Tolimán	11	Noviembre	2023-07-11T00:00:00	2024-11-08T01:00:00	3	Temperatura mínima	20.8
157756	7	Sololá	713	San Lucas Tolimán	10	San Lucas Tolimán	11	Noviembre	2023-07-11T00:00:00	2024-11-08T01:00:00	5	Humedad	58
157757	7	Sololá	713	San Lucas Tolimán	10	San Lucas Tolimán	11	Noviembre	2023-07-11T00:00:00	2024-11-08T01:00:00	6	Velocidad del viento	8
157758	7	Sololá	713	San Lucas Tolimán	10	San Lucas Tolimán	11	Noviembre	2023-07-11T00:00:00	2024-11-08T01:00:00	7	Dirección del viento	8.05
157759	7	Sololá	713	San Lucas Tolimán	10	San Lucas Tolimán	11	Noviembre	2023-07-11T00:00:00	2024-11-08T01:00:00	1	Precipitación	0
157760	7	Sololá	713	San Lucas Tolimán	10	San Lucas Tolimán	11	Noviembre	2023-07-11T00:00:00	2024-11-08T01:00:00	8	Radiación solar	0
157761	7	Sololá	713	San Lucas Tolimán	10	San Lucas Tolimán	11	Noviembre	2023-07-11T00:00:00	2024-11-08T02:00:00	2	Temperatura media	21.2
157762	7	Sololá	713	San Lucas Tolimán	10	San Lucas Tolimán	11	Noviembre	2023-07-11T00:00:00	2024-11-08T02:00:00	4	Temperatura máxima	21.2
157763	7	Sololá	713	San Lucas Tolimán	10	San Lucas Tolimán	11	Noviembre	2023-07-11T00:00:00	2024-11-08T02:00:00	3	Temperatura mínima	20.6
157764	7	Sololá	713	San Lucas Tolimán	10	San Lucas Tolimán	11	Noviembre	2023-07-11T00:00:00	2024-11-08T02:00:00	5	Humedad	55
157765	7	Sololá	713	San Lucas Tolimán	10	San Lucas Tolimán	11	Noviembre	2023-07-11T00:00:00	2024-11-08T02:00:00	6	Velocidad del viento	6.4
157766	7	Sololá	713	San Lucas Tolimán	10	San Lucas Tolimán	11	Noviembre	2023-07-11T00:00:00	2024-11-08T02:00:00	7	Dirección del viento	6.44
157767	7	Sololá	713	San Lucas Tolimán	10	San Lucas Tolimán	11	Noviembre	2023-07-11T00:00:00	2024-11-08T02:00:00	1	Precipitación	0
157768	7	Sololá	713	San Lucas Tolimán	10	San Lucas Tolimán	11	Noviembre	2023-07-11T00:00:00	2024-11-08T02:00:00	8	Radiación solar	0
157769	7	Sololá	713	San Lucas Tolimán	10	San Lucas Tolimán	11	Noviembre	2023-07-11T00:00:00	2024-11-08T03:00:00	2	Temperatura media	19.3
157770	7	Sololá	713	San Lucas Tolimán	10	San Lucas Tolimán	11	Noviembre	2023-07-11T00:00:00	2024-11-08T03:00:00	4	Temperatura máxima	21.2
157771	7	Sololá	713	San Lucas Tolimán	10	San Lucas Tolimán	11	Noviembre	2023-07-11T00:00:00	2024-11-08T03:00:00	3	Temperatura mínima	19.3
157772	7	Sololá	713	San Lucas Tolimán	10	San Lucas Tolimán	11	Noviembre	2023-07-11T00:00:00	2024-11-08T03:00:00	5	Humedad	61
157773	7	Sololá	713	San Lucas Tolimán	10	San Lucas Tolimán	11	Noviembre	2023-07-11T00:00:00	2024-11-08T03:00:00	6	Velocidad del viento	3.2
157774	7	Sololá	713	San Lucas Tolimán	10	San Lucas Tolimán	11	Noviembre	2023-07-11T00:00:00	2024-11-08T03:00:00	7	Dirección del viento	3.22
157775	7	Sololá	713	San Lucas Tolimán	10	San Lucas Tolimán	11	Noviembre	2023-07-11T00:00:00	2024-11-08T03:00:00	1	Precipitación	0
157776	7	Sololá	713	San Lucas Tolimán	10	San Lucas Tolimán	11	Noviembre	2023-07-11T00:00:00	2024-11-08T03:00:00	8	Radiación solar	0
157777	7	Sololá	713	San Lucas Tolimán	10	San Lucas Tolimán	11	Noviembre	2023-07-11T00:00:00	2024-11-08T04:00:00	2	Temperatura media	18
157778	7	Sololá	713	San Lucas Tolimán	10	San Lucas Tolimán	11	Noviembre	2023-07-11T00:00:00	2024-11-08T04:00:00	4	Temperatura máxima	19.3
157779	7	Sololá	713	San Lucas Tolimán	10	San Lucas Tolimán	11	Noviembre	2023-07-11T00:00:00	2024-11-08T04:00:00	3	Temperatura mínima	18
157780	7	Sololá	713	San Lucas Tolimán	10	San Lucas Tolimán	11	Noviembre	2023-07-11T00:00:00	2024-11-08T04:00:00	5	Humedad	65
157781	7	Sololá	713	San Lucas Tolimán	10	San Lucas Tolimán	11	Noviembre	2023-07-11T00:00:00	2024-11-08T04:00:00	6	Velocidad del viento	0
157782	7	Sololá	713	San Lucas Tolimán	10	San Lucas Tolimán	11	Noviembre	2023-07-11T00:00:00	2024-11-08T04:00:00	7	Dirección del viento	0
157783	7	Sololá	713	San Lucas Tolimán	10	San Lucas Tolimán	11	Noviembre	2023-07-11T00:00:00	2024-11-08T04:00:00	1	Precipitación	0
157784	7	Sololá	713	San Lucas Tolimán	10	San Lucas Tolimán	11	Noviembre	2023-07-11T00:00:00	2024-11-08T04:00:00	8	Radiación solar	0
157785	7	Sololá	713	San Lucas Tolimán	10	San Lucas Tolimán	11	Noviembre	2023-07-11T00:00:00	2024-11-08T05:00:00	2	Temperatura media	17.9
157786	7	Sololá	713	San Lucas Tolimán	10	San Lucas Tolimán	11	Noviembre	2023-07-11T00:00:00	2024-11-08T05:00:00	4	Temperatura máxima	18
157787	7	Sololá	713	San Lucas Tolimán	10	San Lucas Tolimán	11	Noviembre	2023-07-11T00:00:00	2024-11-08T05:00:00	3	Temperatura mínima	17.6
157788	7	Sololá	713	San Lucas Tolimán	10	San Lucas Tolimán	11	Noviembre	2023-07-11T00:00:00	2024-11-08T05:00:00	5	Humedad	64
157789	7	Sololá	713	San Lucas Tolimán	10	San Lucas Tolimán	11	Noviembre	2023-07-11T00:00:00	2024-11-08T05:00:00	6	Velocidad del viento	0
157790	7	Sololá	713	San Lucas Tolimán	10	San Lucas Tolimán	11	Noviembre	2023-07-11T00:00:00	2024-11-08T05:00:00	7	Dirección del viento	0
157791	7	Sololá	713	San Lucas Tolimán	10	San Lucas Tolimán	11	Noviembre	2023-07-11T00:00:00	2024-11-08T05:00:00	1	Precipitación	0
157792	7	Sololá	713	San Lucas Tolimán	10	San Lucas Tolimán	11	Noviembre	2023-07-11T00:00:00	2024-11-08T05:00:00	8	Radiación solar	0
157793	7	Sololá	713	San Lucas Tolimán	10	San Lucas Tolimán	11	Noviembre	2023-07-11T00:00:00	2024-11-08T06:00:00	2	Temperatura media	17.7
157794	7	Sololá	713	San Lucas Tolimán	10	San Lucas Tolimán	11	Noviembre	2023-07-11T00:00:00	2024-11-08T06:00:00	4	Temperatura máxima	17.9
157795	7	Sololá	713	San Lucas Tolimán	10	San Lucas Tolimán	11	Noviembre	2023-07-11T00:00:00	2024-11-08T06:00:00	3	Temperatura mínima	17.4
157796	7	Sololá	713	San Lucas Tolimán	10	San Lucas Tolimán	11	Noviembre	2023-07-11T00:00:00	2024-11-08T06:00:00	5	Humedad	64
157797	7	Sololá	713	San Lucas Tolimán	10	San Lucas Tolimán	11	Noviembre	2023-07-11T00:00:00	2024-11-08T06:00:00	6	Velocidad del viento	1.6
157798	7	Sololá	713	San Lucas Tolimán	10	San Lucas Tolimán	11	Noviembre	2023-07-11T00:00:00	2024-11-08T06:00:00	7	Dirección del viento	1.61
157799	7	Sololá	713	San Lucas Tolimán	10	San Lucas Tolimán	11	Noviembre	2023-07-11T00:00:00	2024-11-08T06:00:00	1	Precipitación	0
157800	7	Sololá	713	San Lucas Tolimán	10	San Lucas Tolimán	11	Noviembre	2023-07-11T00:00:00	2024-11-08T06:00:00	8	Radiación solar	0
157801	7	Sololá	713	San Lucas Tolimán	10	San Lucas Tolimán	11	Noviembre	2023-07-11T00:00:00	2024-11-08T07:00:00	2	Temperatura media	19.5
157802	7	Sololá	713	San Lucas Tolimán	10	San Lucas Tolimán	11	Noviembre	2023-07-11T00:00:00	2024-11-08T07:00:00	4	Temperatura máxima	19.5
157803	7	Sololá	713	San Lucas Tolimán	10	San Lucas Tolimán	11	Noviembre	2023-07-11T00:00:00	2024-11-08T07:00:00	3	Temperatura mínima	17.7
157804	7	Sololá	713	San Lucas Tolimán	10	San Lucas Tolimán	11	Noviembre	2023-07-11T00:00:00	2024-11-08T07:00:00	5	Humedad	60
157805	7	Sololá	713	San Lucas Tolimán	10	San Lucas Tolimán	11	Noviembre	2023-07-11T00:00:00	2024-11-08T07:00:00	6	Velocidad del viento	1.6
157806	7	Sololá	713	San Lucas Tolimán	10	San Lucas Tolimán	11	Noviembre	2023-07-11T00:00:00	2024-11-08T07:00:00	7	Dirección del viento	1.61
157807	7	Sololá	713	San Lucas Tolimán	10	San Lucas Tolimán	11	Noviembre	2023-07-11T00:00:00	2024-11-08T07:00:00	1	Precipitación	0
157808	7	Sololá	713	San Lucas Tolimán	10	San Lucas Tolimán	11	Noviembre	2023-07-11T00:00:00	2024-11-08T07:00:00	8	Radiación solar	18
157809	7	Sololá	713	San Lucas Tolimán	10	San Lucas Tolimán	11	Noviembre	2023-07-11T00:00:00	2024-11-08T08:00:00	2	Temperatura media	21.4
157810	7	Sololá	713	San Lucas Tolimán	10	San Lucas Tolimán	11	Noviembre	2023-07-11T00:00:00	2024-11-08T08:00:00	4	Temperatura máxima	21.7
157811	7	Sololá	713	San Lucas Tolimán	10	San Lucas Tolimán	11	Noviembre	2023-07-11T00:00:00	2024-11-08T08:00:00	3	Temperatura mínima	19.5
157812	7	Sololá	713	San Lucas Tolimán	10	San Lucas Tolimán	11	Noviembre	2023-07-11T00:00:00	2024-11-08T08:00:00	5	Humedad	57
157813	7	Sololá	713	San Lucas Tolimán	10	San Lucas Tolimán	11	Noviembre	2023-07-11T00:00:00	2024-11-08T08:00:00	6	Velocidad del viento	4.8
157814	7	Sololá	713	San Lucas Tolimán	10	San Lucas Tolimán	11	Noviembre	2023-07-11T00:00:00	2024-11-08T08:00:00	7	Dirección del viento	4.83
157815	7	Sololá	713	San Lucas Tolimán	10	San Lucas Tolimán	11	Noviembre	2023-07-11T00:00:00	2024-11-08T08:00:00	1	Precipitación	0
157816	7	Sololá	713	San Lucas Tolimán	10	San Lucas Tolimán	11	Noviembre	2023-07-11T00:00:00	2024-11-08T08:00:00	8	Radiación solar	97
157817	7	Sololá	713	San Lucas Tolimán	10	San Lucas Tolimán	11	Noviembre	2023-07-11T00:00:00	2024-11-08T09:00:00	2	Temperatura media	22.9
157818	7	Sololá	713	San Lucas Tolimán	10	San Lucas Tolimán	11	Noviembre	2023-07-11T00:00:00	2024-11-08T09:00:00	4	Temperatura máxima	23.3
157819	7	Sololá	713	San Lucas Tolimán	10	San Lucas Tolimán	11	Noviembre	2023-07-11T00:00:00	2024-11-08T09:00:00	3	Temperatura mínima	21.4
157820	7	Sololá	713	San Lucas Tolimán	10	San Lucas Tolimán	11	Noviembre	2023-07-11T00:00:00	2024-11-08T09:00:00	5	Humedad	56
157821	7	Sololá	713	San Lucas Tolimán	10	San Lucas Tolimán	11	Noviembre	2023-07-11T00:00:00	2024-11-08T09:00:00	6	Velocidad del viento	3.2
157822	7	Sololá	713	San Lucas Tolimán	10	San Lucas Tolimán	11	Noviembre	2023-07-11T00:00:00	2024-11-08T09:00:00	7	Dirección del viento	3.22
157823	7	Sololá	713	San Lucas Tolimán	10	San Lucas Tolimán	11	Noviembre	2023-07-11T00:00:00	2024-11-08T09:00:00	1	Precipitación	0
157824	7	Sololá	713	San Lucas Tolimán	10	San Lucas Tolimán	11	Noviembre	2023-07-11T00:00:00	2024-11-08T09:00:00	8	Radiación solar	310
157825	7	Sololá	713	San Lucas Tolimán	10	San Lucas Tolimán	11	Noviembre	2023-07-11T00:00:00	2024-11-08T10:00:00	2	Temperatura media	23.4
157826	7	Sololá	713	San Lucas Tolimán	10	San Lucas Tolimán	11	Noviembre	2023-07-11T00:00:00	2024-11-08T10:00:00	4	Temperatura máxima	23.5
157827	7	Sololá	713	San Lucas Tolimán	10	San Lucas Tolimán	11	Noviembre	2023-07-11T00:00:00	2024-11-08T10:00:00	3	Temperatura mínima	22.8
157828	7	Sololá	713	San Lucas Tolimán	10	San Lucas Tolimán	11	Noviembre	2023-07-11T00:00:00	2024-11-08T10:00:00	5	Humedad	53
157829	7	Sololá	713	San Lucas Tolimán	10	San Lucas Tolimán	11	Noviembre	2023-07-11T00:00:00	2024-11-08T10:00:00	6	Velocidad del viento	1.6
157830	7	Sololá	713	San Lucas Tolimán	10	San Lucas Tolimán	11	Noviembre	2023-07-11T00:00:00	2024-11-08T10:00:00	7	Dirección del viento	1.61
157831	7	Sololá	713	San Lucas Tolimán	10	San Lucas Tolimán	11	Noviembre	2023-07-11T00:00:00	2024-11-08T10:00:00	1	Precipitación	0
157832	7	Sololá	713	San Lucas Tolimán	10	San Lucas Tolimán	11	Noviembre	2023-07-11T00:00:00	2024-11-08T10:00:00	8	Radiación solar	239
157833	7	Sololá	713	San Lucas Tolimán	10	San Lucas Tolimán	11	Noviembre	2023-07-11T00:00:00	2024-11-08T11:00:00	2	Temperatura media	24.3
157834	7	Sololá	713	San Lucas Tolimán	10	San Lucas Tolimán	11	Noviembre	2023-07-11T00:00:00	2024-11-08T11:00:00	4	Temperatura máxima	24.9
157835	7	Sololá	713	San Lucas Tolimán	10	San Lucas Tolimán	11	Noviembre	2023-07-11T00:00:00	2024-11-08T11:00:00	3	Temperatura mínima	23.4
157836	7	Sololá	713	San Lucas Tolimán	10	San Lucas Tolimán	11	Noviembre	2023-07-11T00:00:00	2024-11-08T11:00:00	5	Humedad	50
157837	7	Sololá	713	San Lucas Tolimán	10	San Lucas Tolimán	11	Noviembre	2023-07-11T00:00:00	2024-11-08T11:00:00	6	Velocidad del viento	4.8
157838	7	Sololá	713	San Lucas Tolimán	10	San Lucas Tolimán	11	Noviembre	2023-07-11T00:00:00	2024-11-08T11:00:00	7	Dirección del viento	4.83
157839	7	Sololá	713	San Lucas Tolimán	10	San Lucas Tolimán	11	Noviembre	2023-07-11T00:00:00	2024-11-08T11:00:00	1	Precipitación	0
157840	7	Sololá	713	San Lucas Tolimán	10	San Lucas Tolimán	11	Noviembre	2023-07-11T00:00:00	2024-11-08T11:00:00	8	Radiación solar	533
157841	7	Sololá	713	San Lucas Tolimán	10	San Lucas Tolimán	11	Noviembre	2023-07-11T00:00:00	2024-11-08T12:00:00	2	Temperatura media	24.9
157842	7	Sololá	713	San Lucas Tolimán	10	San Lucas Tolimán	11	Noviembre	2023-07-11T00:00:00	2024-11-08T12:00:00	4	Temperatura máxima	25.5
157843	7	Sololá	713	San Lucas Tolimán	10	San Lucas Tolimán	11	Noviembre	2023-07-11T00:00:00	2024-11-08T12:00:00	3	Temperatura mínima	24.2
157844	7	Sololá	713	San Lucas Tolimán	10	San Lucas Tolimán	11	Noviembre	2023-07-11T00:00:00	2024-11-08T12:00:00	5	Humedad	48
157845	7	Sololá	713	San Lucas Tolimán	10	San Lucas Tolimán	11	Noviembre	2023-07-11T00:00:00	2024-11-08T12:00:00	6	Velocidad del viento	8
157846	7	Sololá	713	San Lucas Tolimán	10	San Lucas Tolimán	11	Noviembre	2023-07-11T00:00:00	2024-11-08T12:00:00	7	Dirección del viento	8.05
157847	7	Sololá	713	San Lucas Tolimán	10	San Lucas Tolimán	11	Noviembre	2023-07-11T00:00:00	2024-11-08T12:00:00	1	Precipitación	0
157848	7	Sololá	713	San Lucas Tolimán	10	San Lucas Tolimán	11	Noviembre	2023-07-11T00:00:00	2024-11-08T12:00:00	8	Radiación solar	915
157849	7	Sololá	713	San Lucas Tolimán	10	San Lucas Tolimán	11	Noviembre	2023-07-11T00:00:00	2024-11-08T13:00:00	2	Temperatura media	24.6
157850	7	Sololá	713	San Lucas Tolimán	10	San Lucas Tolimán	11	Noviembre	2023-07-11T00:00:00	2024-11-08T13:00:00	4	Temperatura máxima	26.2
157851	7	Sololá	713	San Lucas Tolimán	10	San Lucas Tolimán	11	Noviembre	2023-07-11T00:00:00	2024-11-08T13:00:00	3	Temperatura mínima	24.6
157852	7	Sololá	713	San Lucas Tolimán	10	San Lucas Tolimán	11	Noviembre	2023-07-11T00:00:00	2024-11-08T13:00:00	5	Humedad	57
157853	7	Sololá	713	San Lucas Tolimán	10	San Lucas Tolimán	11	Noviembre	2023-07-11T00:00:00	2024-11-08T13:00:00	6	Velocidad del viento	6.4
157854	7	Sololá	713	San Lucas Tolimán	10	San Lucas Tolimán	11	Noviembre	2023-07-11T00:00:00	2024-11-08T13:00:00	7	Dirección del viento	6.44
157855	7	Sololá	713	San Lucas Tolimán	10	San Lucas Tolimán	11	Noviembre	2023-07-11T00:00:00	2024-11-08T13:00:00	1	Precipitación	0
157856	7	Sololá	713	San Lucas Tolimán	10	San Lucas Tolimán	11	Noviembre	2023-07-11T00:00:00	2024-11-08T13:00:00	8	Radiación solar	406
157857	7	Sololá	713	San Lucas Tolimán	10	San Lucas Tolimán	11	Noviembre	2023-07-11T00:00:00	2024-11-08T14:00:00	2	Temperatura media	23.5
157858	7	Sololá	713	San Lucas Tolimán	10	San Lucas Tolimán	11	Noviembre	2023-07-11T00:00:00	2024-11-08T14:00:00	4	Temperatura máxima	24.6
157859	7	Sololá	713	San Lucas Tolimán	10	San Lucas Tolimán	11	Noviembre	2023-07-11T00:00:00	2024-11-08T14:00:00	3	Temperatura mínima	23.2
157860	7	Sololá	713	San Lucas Tolimán	10	San Lucas Tolimán	11	Noviembre	2023-07-11T00:00:00	2024-11-08T14:00:00	5	Humedad	61
157861	7	Sololá	713	San Lucas Tolimán	10	San Lucas Tolimán	11	Noviembre	2023-07-11T00:00:00	2024-11-08T14:00:00	6	Velocidad del viento	6.4
157862	7	Sololá	713	San Lucas Tolimán	10	San Lucas Tolimán	11	Noviembre	2023-07-11T00:00:00	2024-11-08T14:00:00	7	Dirección del viento	6.44
157863	7	Sololá	713	San Lucas Tolimán	10	San Lucas Tolimán	11	Noviembre	2023-07-11T00:00:00	2024-11-08T14:00:00	1	Precipitación	0
157864	7	Sololá	713	San Lucas Tolimán	10	San Lucas Tolimán	11	Noviembre	2023-07-11T00:00:00	2024-11-08T14:00:00	8	Radiación solar	403
157865	7	Sololá	713	San Lucas Tolimán	10	San Lucas Tolimán	11	Noviembre	2023-07-11T00:00:00	2024-11-08T15:00:00	2	Temperatura media	24.1
157866	7	Sololá	713	San Lucas Tolimán	10	San Lucas Tolimán	11	Noviembre	2023-07-11T00:00:00	2024-11-08T15:00:00	4	Temperatura máxima	24.3
157867	7	Sololá	713	San Lucas Tolimán	10	San Lucas Tolimán	11	Noviembre	2023-07-11T00:00:00	2024-11-08T15:00:00	3	Temperatura mínima	22.9
157868	7	Sololá	713	San Lucas Tolimán	10	San Lucas Tolimán	11	Noviembre	2023-07-11T00:00:00	2024-11-08T15:00:00	5	Humedad	52
157869	7	Sololá	713	San Lucas Tolimán	10	San Lucas Tolimán	11	Noviembre	2023-07-11T00:00:00	2024-11-08T15:00:00	6	Velocidad del viento	6.4
157870	7	Sololá	713	San Lucas Tolimán	10	San Lucas Tolimán	11	Noviembre	2023-07-11T00:00:00	2024-11-08T15:00:00	7	Dirección del viento	6.44
157871	7	Sololá	713	San Lucas Tolimán	10	San Lucas Tolimán	11	Noviembre	2023-07-11T00:00:00	2024-11-08T15:00:00	1	Precipitación	0
157872	7	Sololá	713	San Lucas Tolimán	10	San Lucas Tolimán	11	Noviembre	2023-07-11T00:00:00	2024-11-08T15:00:00	8	Radiación solar	323
157873	7	Sololá	713	San Lucas Tolimán	10	San Lucas Tolimán	11	Noviembre	2023-07-11T00:00:00	2024-11-08T16:00:00	2	Temperatura media	23.7
157874	7	Sololá	713	San Lucas Tolimán	10	San Lucas Tolimán	11	Noviembre	2023-07-11T00:00:00	2024-11-08T16:00:00	4	Temperatura máxima	25.3
157875	7	Sololá	713	San Lucas Tolimán	10	San Lucas Tolimán	11	Noviembre	2023-07-11T00:00:00	2024-11-08T16:00:00	3	Temperatura mínima	23.7
157876	7	Sololá	713	San Lucas Tolimán	10	San Lucas Tolimán	11	Noviembre	2023-07-11T00:00:00	2024-11-08T16:00:00	5	Humedad	61
157877	7	Sololá	713	San Lucas Tolimán	10	San Lucas Tolimán	11	Noviembre	2023-07-11T00:00:00	2024-11-08T16:00:00	6	Velocidad del viento	4.8
157878	7	Sololá	713	San Lucas Tolimán	10	San Lucas Tolimán	11	Noviembre	2023-07-11T00:00:00	2024-11-08T16:00:00	7	Dirección del viento	4.83
157879	7	Sololá	713	San Lucas Tolimán	10	San Lucas Tolimán	11	Noviembre	2023-07-11T00:00:00	2024-11-08T16:00:00	1	Precipitación	0
157880	7	Sololá	713	San Lucas Tolimán	10	San Lucas Tolimán	11	Noviembre	2023-07-11T00:00:00	2024-11-08T16:00:00	8	Radiación solar	226
157881	7	Sololá	713	San Lucas Tolimán	10	San Lucas Tolimán	11	Noviembre	2023-07-11T00:00:00	2024-11-08T17:00:00	2	Temperatura media	22.4
157882	7	Sololá	713	San Lucas Tolimán	10	San Lucas Tolimán	11	Noviembre	2023-07-11T00:00:00	2024-11-08T17:00:00	4	Temperatura máxima	23.7
157883	7	Sololá	713	San Lucas Tolimán	10	San Lucas Tolimán	11	Noviembre	2023-07-11T00:00:00	2024-11-08T17:00:00	3	Temperatura mínima	21.8
157884	7	Sololá	713	San Lucas Tolimán	10	San Lucas Tolimán	11	Noviembre	2023-07-11T00:00:00	2024-11-08T17:00:00	5	Humedad	56
157885	7	Sololá	713	San Lucas Tolimán	10	San Lucas Tolimán	11	Noviembre	2023-07-11T00:00:00	2024-11-08T17:00:00	6	Velocidad del viento	4.8
157886	7	Sololá	713	San Lucas Tolimán	10	San Lucas Tolimán	11	Noviembre	2023-07-11T00:00:00	2024-11-08T17:00:00	7	Dirección del viento	4.83
157887	7	Sololá	713	San Lucas Tolimán	10	San Lucas Tolimán	11	Noviembre	2023-07-11T00:00:00	2024-11-08T17:00:00	1	Precipitación	0
157888	7	Sololá	713	San Lucas Tolimán	10	San Lucas Tolimán	11	Noviembre	2023-07-11T00:00:00	2024-11-08T17:00:00	8	Radiación solar	77
157889	7	Sololá	713	San Lucas Tolimán	10	San Lucas Tolimán	11	Noviembre	2023-07-11T00:00:00	2024-11-08T18:00:00	2	Temperatura media	22.3
157890	7	Sololá	713	San Lucas Tolimán	10	San Lucas Tolimán	11	Noviembre	2023-07-11T00:00:00	2024-11-08T18:00:00	4	Temperatura máxima	22.6
157891	7	Sololá	713	San Lucas Tolimán	10	San Lucas Tolimán	11	Noviembre	2023-07-11T00:00:00	2024-11-08T18:00:00	3	Temperatura mínima	21.3
157892	7	Sololá	713	San Lucas Tolimán	10	San Lucas Tolimán	11	Noviembre	2023-07-11T00:00:00	2024-11-08T18:00:00	5	Humedad	52
157893	7	Sololá	713	San Lucas Tolimán	10	San Lucas Tolimán	11	Noviembre	2023-07-11T00:00:00	2024-11-08T18:00:00	6	Velocidad del viento	8
157894	7	Sololá	713	San Lucas Tolimán	10	San Lucas Tolimán	11	Noviembre	2023-07-11T00:00:00	2024-11-08T18:00:00	7	Dirección del viento	8.05
157895	7	Sololá	713	San Lucas Tolimán	10	San Lucas Tolimán	11	Noviembre	2023-07-11T00:00:00	2024-11-08T18:00:00	1	Precipitación	0
157896	7	Sololá	713	San Lucas Tolimán	10	San Lucas Tolimán	11	Noviembre	2023-07-11T00:00:00	2024-11-08T18:00:00	8	Radiación solar	11
157897	7	Sololá	713	San Lucas Tolimán	10	San Lucas Tolimán	11	Noviembre	2023-07-11T00:00:00	2024-11-08T19:00:00	2	Temperatura media	21.6
157898	7	Sololá	713	San Lucas Tolimán	10	San Lucas Tolimán	11	Noviembre	2023-07-11T00:00:00	2024-11-08T19:00:00	4	Temperatura máxima	22.7
157899	7	Sololá	713	San Lucas Tolimán	10	San Lucas Tolimán	11	Noviembre	2023-07-11T00:00:00	2024-11-08T19:00:00	3	Temperatura mínima	21.6
157900	7	Sololá	713	San Lucas Tolimán	10	San Lucas Tolimán	11	Noviembre	2023-07-11T00:00:00	2024-11-08T19:00:00	5	Humedad	56
157901	7	Sololá	713	San Lucas Tolimán	10	San Lucas Tolimán	11	Noviembre	2023-07-11T00:00:00	2024-11-08T19:00:00	6	Velocidad del viento	8
157902	7	Sololá	713	San Lucas Tolimán	10	San Lucas Tolimán	11	Noviembre	2023-07-11T00:00:00	2024-11-08T19:00:00	7	Dirección del viento	8.05
157903	7	Sololá	713	San Lucas Tolimán	10	San Lucas Tolimán	11	Noviembre	2023-07-11T00:00:00	2024-11-08T19:00:00	1	Precipitación	0
157904	7	Sololá	713	San Lucas Tolimán	10	San Lucas Tolimán	11	Noviembre	2023-07-11T00:00:00	2024-11-08T19:00:00	8	Radiación solar	0
157905	7	Sololá	713	San Lucas Tolimán	10	San Lucas Tolimán	11	Noviembre	2023-07-11T00:00:00	2024-11-08T20:00:00	2	Temperatura media	21.7
157906	7	Sololá	713	San Lucas Tolimán	10	San Lucas Tolimán	11	Noviembre	2023-07-11T00:00:00	2024-11-08T20:00:00	4	Temperatura máxima	21.7
157907	7	Sololá	713	San Lucas Tolimán	10	San Lucas Tolimán	11	Noviembre	2023-07-11T00:00:00	2024-11-08T20:00:00	3	Temperatura mínima	20.9
157908	7	Sololá	713	San Lucas Tolimán	10	San Lucas Tolimán	11	Noviembre	2023-07-11T00:00:00	2024-11-08T20:00:00	5	Humedad	53
157909	7	Sololá	713	San Lucas Tolimán	10	San Lucas Tolimán	11	Noviembre	2023-07-11T00:00:00	2024-11-08T20:00:00	6	Velocidad del viento	3.2
157910	7	Sololá	713	San Lucas Tolimán	10	San Lucas Tolimán	11	Noviembre	2023-07-11T00:00:00	2024-11-08T20:00:00	7	Dirección del viento	3.22
157911	7	Sololá	713	San Lucas Tolimán	10	San Lucas Tolimán	11	Noviembre	2023-07-11T00:00:00	2024-11-08T20:00:00	1	Precipitación	0
157912	7	Sololá	713	San Lucas Tolimán	10	San Lucas Tolimán	11	Noviembre	2023-07-11T00:00:00	2024-11-08T20:00:00	8	Radiación solar	0
157913	7	Sololá	713	San Lucas Tolimán	10	San Lucas Tolimán	11	Noviembre	2023-07-11T00:00:00	2024-11-08T21:00:00	2	Temperatura media	21.9
157914	7	Sololá	713	San Lucas Tolimán	10	San Lucas Tolimán	11	Noviembre	2023-07-11T00:00:00	2024-11-08T21:00:00	4	Temperatura máxima	21.9
157915	7	Sololá	713	San Lucas Tolimán	10	San Lucas Tolimán	11	Noviembre	2023-07-11T00:00:00	2024-11-08T21:00:00	3	Temperatura mínima	21.7
157916	7	Sololá	713	San Lucas Tolimán	10	San Lucas Tolimán	11	Noviembre	2023-07-11T00:00:00	2024-11-08T21:00:00	5	Humedad	53
157917	7	Sololá	713	San Lucas Tolimán	10	San Lucas Tolimán	11	Noviembre	2023-07-11T00:00:00	2024-11-08T21:00:00	6	Velocidad del viento	4.8
157918	7	Sololá	713	San Lucas Tolimán	10	San Lucas Tolimán	11	Noviembre	2023-07-11T00:00:00	2024-11-08T21:00:00	7	Dirección del viento	4.83
157919	7	Sololá	713	San Lucas Tolimán	10	San Lucas Tolimán	11	Noviembre	2023-07-11T00:00:00	2024-11-08T21:00:00	1	Precipitación	0
157920	7	Sololá	713	San Lucas Tolimán	10	San Lucas Tolimán	11	Noviembre	2023-07-11T00:00:00	2024-11-08T21:00:00	8	Radiación solar	0
157921	7	Sololá	713	San Lucas Tolimán	10	San Lucas Tolimán	11	Noviembre	2023-07-11T00:00:00	2024-11-08T22:00:00	2	Temperatura media	21.6
157922	7	Sololá	713	San Lucas Tolimán	10	San Lucas Tolimán	11	Noviembre	2023-07-11T00:00:00	2024-11-08T22:00:00	4	Temperatura máxima	21.9
157923	7	Sololá	713	San Lucas Tolimán	10	San Lucas Tolimán	11	Noviembre	2023-07-11T00:00:00	2024-11-08T22:00:00	3	Temperatura mínima	21.6
157924	7	Sololá	713	San Lucas Tolimán	10	San Lucas Tolimán	11	Noviembre	2023-07-11T00:00:00	2024-11-08T22:00:00	5	Humedad	55
157925	7	Sololá	713	San Lucas Tolimán	10	San Lucas Tolimán	11	Noviembre	2023-07-11T00:00:00	2024-11-08T22:00:00	6	Velocidad del viento	9.7
157926	7	Sololá	713	San Lucas Tolimán	10	San Lucas Tolimán	11	Noviembre	2023-07-11T00:00:00	2024-11-08T22:00:00	7	Dirección del viento	9.66
157927	7	Sololá	713	San Lucas Tolimán	10	San Lucas Tolimán	11	Noviembre	2023-07-11T00:00:00	2024-11-08T22:00:00	1	Precipitación	0
157928	7	Sololá	713	San Lucas Tolimán	10	San Lucas Tolimán	11	Noviembre	2023-07-11T00:00:00	2024-11-08T22:00:00	8	Radiación solar	0
157929	7	Sololá	713	San Lucas Tolimán	10	San Lucas Tolimán	11	Noviembre	2023-07-11T00:00:00	2024-11-08T23:00:00	2	Temperatura media	21.4
157930	7	Sololá	713	San Lucas Tolimán	10	San Lucas Tolimán	11	Noviembre	2023-07-11T00:00:00	2024-11-08T23:00:00	4	Temperatura máxima	21.7
157931	7	Sololá	713	San Lucas Tolimán	10	San Lucas Tolimán	11	Noviembre	2023-07-11T00:00:00	2024-11-08T23:00:00	3	Temperatura mínima	21.1
157932	7	Sololá	713	San Lucas Tolimán	10	San Lucas Tolimán	11	Noviembre	2023-07-11T00:00:00	2024-11-08T23:00:00	5	Humedad	54
157933	7	Sololá	713	San Lucas Tolimán	10	San Lucas Tolimán	11	Noviembre	2023-07-11T00:00:00	2024-11-08T23:00:00	6	Velocidad del viento	4.8
157934	7	Sololá	713	San Lucas Tolimán	10	San Lucas Tolimán	11	Noviembre	2023-07-11T00:00:00	2024-11-08T23:00:00	7	Dirección del viento	4.83
157935	7	Sololá	713	San Lucas Tolimán	10	San Lucas Tolimán	11	Noviembre	2023-07-11T00:00:00	2024-11-08T23:00:00	1	Precipitación	0
157936	7	Sololá	713	San Lucas Tolimán	10	San Lucas Tolimán	11	Noviembre	2023-07-11T00:00:00	2024-11-08T23:00:00	8	Radiación solar	0
157937	7	Sololá	713	San Lucas Tolimán	10	San Lucas Tolimán	11	Noviembre	2023-08-11T00:00:00	2024-11-08T00:00:00	2	Temperatura media	21.5
157938	7	Sololá	713	San Lucas Tolimán	10	San Lucas Tolimán	11	Noviembre	2023-08-11T00:00:00	2024-11-08T00:00:00	4	Temperatura máxima	21.8
157939	7	Sololá	713	San Lucas Tolimán	10	San Lucas Tolimán	11	Noviembre	2023-08-11T00:00:00	2024-11-08T00:00:00	3	Temperatura mínima	21.3
157940	7	Sololá	713	San Lucas Tolimán	10	San Lucas Tolimán	11	Noviembre	2023-08-11T00:00:00	2024-11-08T00:00:00	5	Humedad	54
157941	7	Sololá	713	San Lucas Tolimán	10	San Lucas Tolimán	11	Noviembre	2023-08-11T00:00:00	2024-11-08T00:00:00	6	Velocidad del viento	6.4
157942	7	Sololá	713	San Lucas Tolimán	10	San Lucas Tolimán	11	Noviembre	2023-08-11T00:00:00	2024-11-08T00:00:00	7	Dirección del viento	6.44
157943	7	Sololá	713	San Lucas Tolimán	10	San Lucas Tolimán	11	Noviembre	2023-08-11T00:00:00	2024-11-08T00:00:00	1	Precipitación	0
157944	7	Sololá	713	San Lucas Tolimán	10	San Lucas Tolimán	11	Noviembre	2023-08-11T00:00:00	2024-11-08T00:00:00	8	Radiación solar	0
157945	7	Sololá	713	San Lucas Tolimán	10	San Lucas Tolimán	11	Noviembre	2023-08-11T00:00:00	2024-11-08T01:00:00	2	Temperatura media	21.3
157946	7	Sololá	713	San Lucas Tolimán	10	San Lucas Tolimán	11	Noviembre	2023-08-11T00:00:00	2024-11-08T01:00:00	4	Temperatura máxima	21.5
157947	7	Sololá	713	San Lucas Tolimán	10	San Lucas Tolimán	11	Noviembre	2023-08-11T00:00:00	2024-11-08T01:00:00	3	Temperatura mínima	21.1
157948	7	Sololá	713	San Lucas Tolimán	10	San Lucas Tolimán	11	Noviembre	2023-08-11T00:00:00	2024-11-08T01:00:00	5	Humedad	55
157949	7	Sololá	713	San Lucas Tolimán	10	San Lucas Tolimán	11	Noviembre	2023-08-11T00:00:00	2024-11-08T01:00:00	6	Velocidad del viento	4.8
157950	7	Sololá	713	San Lucas Tolimán	10	San Lucas Tolimán	11	Noviembre	2023-08-11T00:00:00	2024-11-08T01:00:00	7	Dirección del viento	4.83
157951	7	Sololá	713	San Lucas Tolimán	10	San Lucas Tolimán	11	Noviembre	2023-08-11T00:00:00	2024-11-08T01:00:00	1	Precipitación	0
157952	7	Sololá	713	San Lucas Tolimán	10	San Lucas Tolimán	11	Noviembre	2023-08-11T00:00:00	2024-11-08T01:00:00	8	Radiación solar	0
157953	7	Sololá	713	San Lucas Tolimán	10	San Lucas Tolimán	11	Noviembre	2023-08-11T00:00:00	2024-11-08T02:00:00	2	Temperatura media	20.6
157954	7	Sololá	713	San Lucas Tolimán	10	San Lucas Tolimán	11	Noviembre	2023-08-11T00:00:00	2024-11-08T02:00:00	4	Temperatura máxima	21.3
157955	7	Sololá	713	San Lucas Tolimán	10	San Lucas Tolimán	11	Noviembre	2023-08-11T00:00:00	2024-11-08T02:00:00	3	Temperatura mínima	20.6
157956	7	Sololá	713	San Lucas Tolimán	10	San Lucas Tolimán	11	Noviembre	2023-08-11T00:00:00	2024-11-08T02:00:00	5	Humedad	57
157957	7	Sololá	713	San Lucas Tolimán	10	San Lucas Tolimán	11	Noviembre	2023-08-11T00:00:00	2024-11-08T02:00:00	6	Velocidad del viento	3.2
157958	7	Sololá	713	San Lucas Tolimán	10	San Lucas Tolimán	11	Noviembre	2023-08-11T00:00:00	2024-11-08T02:00:00	7	Dirección del viento	3.22
157959	7	Sololá	713	San Lucas Tolimán	10	San Lucas Tolimán	11	Noviembre	2023-08-11T00:00:00	2024-11-08T02:00:00	1	Precipitación	0
157960	7	Sololá	713	San Lucas Tolimán	10	San Lucas Tolimán	11	Noviembre	2023-08-11T00:00:00	2024-11-08T02:00:00	8	Radiación solar	0
157961	7	Sololá	713	San Lucas Tolimán	10	San Lucas Tolimán	11	Noviembre	2023-08-11T00:00:00	2024-11-08T03:00:00	2	Temperatura media	20.2
157962	7	Sololá	713	San Lucas Tolimán	10	San Lucas Tolimán	11	Noviembre	2023-08-11T00:00:00	2024-11-08T03:00:00	4	Temperatura máxima	20.7
157963	7	Sololá	713	San Lucas Tolimán	10	San Lucas Tolimán	11	Noviembre	2023-08-11T00:00:00	2024-11-08T03:00:00	3	Temperatura mínima	19.8
157964	7	Sololá	713	San Lucas Tolimán	10	San Lucas Tolimán	11	Noviembre	2023-08-11T00:00:00	2024-11-08T03:00:00	5	Humedad	58
157965	7	Sololá	713	San Lucas Tolimán	10	San Lucas Tolimán	11	Noviembre	2023-08-11T00:00:00	2024-11-08T03:00:00	6	Velocidad del viento	1.6
157966	7	Sololá	713	San Lucas Tolimán	10	San Lucas Tolimán	11	Noviembre	2023-08-11T00:00:00	2024-11-08T03:00:00	7	Dirección del viento	1.61
157967	7	Sololá	713	San Lucas Tolimán	10	San Lucas Tolimán	11	Noviembre	2023-08-11T00:00:00	2024-11-08T03:00:00	1	Precipitación	0
157968	7	Sololá	713	San Lucas Tolimán	10	San Lucas Tolimán	11	Noviembre	2023-08-11T00:00:00	2024-11-08T03:00:00	8	Radiación solar	0
157969	7	Sololá	713	San Lucas Tolimán	10	San Lucas Tolimán	11	Noviembre	2023-08-11T00:00:00	2024-11-08T04:00:00	2	Temperatura media	21.4
157970	7	Sololá	713	San Lucas Tolimán	10	San Lucas Tolimán	11	Noviembre	2023-08-11T00:00:00	2024-11-08T04:00:00	4	Temperatura máxima	21.4
157971	7	Sololá	713	San Lucas Tolimán	10	San Lucas Tolimán	11	Noviembre	2023-08-11T00:00:00	2024-11-08T04:00:00	3	Temperatura mínima	19.9
157972	7	Sololá	713	San Lucas Tolimán	10	San Lucas Tolimán	11	Noviembre	2023-08-11T00:00:00	2024-11-08T04:00:00	5	Humedad	51
157973	7	Sololá	713	San Lucas Tolimán	10	San Lucas Tolimán	11	Noviembre	2023-08-11T00:00:00	2024-11-08T04:00:00	6	Velocidad del viento	3.2
157974	7	Sololá	713	San Lucas Tolimán	10	San Lucas Tolimán	11	Noviembre	2023-08-11T00:00:00	2024-11-08T04:00:00	7	Dirección del viento	3.22
157975	7	Sololá	713	San Lucas Tolimán	10	San Lucas Tolimán	11	Noviembre	2023-08-11T00:00:00	2024-11-08T04:00:00	1	Precipitación	0
157976	7	Sololá	713	San Lucas Tolimán	10	San Lucas Tolimán	11	Noviembre	2023-08-11T00:00:00	2024-11-08T04:00:00	8	Radiación solar	0
157977	7	Sololá	713	San Lucas Tolimán	10	San Lucas Tolimán	11	Noviembre	2023-08-11T00:00:00	2024-11-08T05:00:00	2	Temperatura media	19.1
157978	7	Sololá	713	San Lucas Tolimán	10	San Lucas Tolimán	11	Noviembre	2023-08-11T00:00:00	2024-11-08T05:00:00	4	Temperatura máxima	21.4
157979	7	Sololá	713	San Lucas Tolimán	10	San Lucas Tolimán	11	Noviembre	2023-08-11T00:00:00	2024-11-08T05:00:00	3	Temperatura mínima	19
157980	7	Sololá	713	San Lucas Tolimán	10	San Lucas Tolimán	11	Noviembre	2023-08-11T00:00:00	2024-11-08T05:00:00	5	Humedad	61
157981	7	Sololá	713	San Lucas Tolimán	10	San Lucas Tolimán	11	Noviembre	2023-08-11T00:00:00	2024-11-08T05:00:00	6	Velocidad del viento	3.2
157982	7	Sololá	713	San Lucas Tolimán	10	San Lucas Tolimán	11	Noviembre	2023-08-11T00:00:00	2024-11-08T05:00:00	7	Dirección del viento	3.22
157983	7	Sololá	713	San Lucas Tolimán	10	San Lucas Tolimán	11	Noviembre	2023-08-11T00:00:00	2024-11-08T05:00:00	1	Precipitación	0
157984	7	Sololá	713	San Lucas Tolimán	10	San Lucas Tolimán	11	Noviembre	2023-08-11T00:00:00	2024-11-08T05:00:00	8	Radiación solar	0
157985	7	Sololá	713	San Lucas Tolimán	10	San Lucas Tolimán	11	Noviembre	2023-08-11T00:00:00	2024-11-08T06:00:00	2	Temperatura media	18.2
157986	7	Sololá	713	San Lucas Tolimán	10	San Lucas Tolimán	11	Noviembre	2023-08-11T00:00:00	2024-11-08T06:00:00	4	Temperatura máxima	19.2
157987	7	Sololá	713	San Lucas Tolimán	10	San Lucas Tolimán	11	Noviembre	2023-08-11T00:00:00	2024-11-08T06:00:00	3	Temperatura mínima	18.1
157988	7	Sololá	713	San Lucas Tolimán	10	San Lucas Tolimán	11	Noviembre	2023-08-11T00:00:00	2024-11-08T06:00:00	5	Humedad	62
157989	7	Sololá	713	San Lucas Tolimán	10	San Lucas Tolimán	11	Noviembre	2023-08-11T00:00:00	2024-11-08T06:00:00	6	Velocidad del viento	6.4
157990	7	Sololá	713	San Lucas Tolimán	10	San Lucas Tolimán	11	Noviembre	2023-08-11T00:00:00	2024-11-08T06:00:00	7	Dirección del viento	6.44
157991	7	Sololá	713	San Lucas Tolimán	10	San Lucas Tolimán	11	Noviembre	2023-08-11T00:00:00	2024-11-08T06:00:00	1	Precipitación	0
157992	7	Sololá	713	San Lucas Tolimán	10	San Lucas Tolimán	11	Noviembre	2023-08-11T00:00:00	2024-11-08T06:00:00	8	Radiación solar	0
157993	7	Sololá	713	San Lucas Tolimán	10	San Lucas Tolimán	11	Noviembre	2023-08-11T00:00:00	2024-11-08T07:00:00	2	Temperatura media	18.2
157994	7	Sololá	713	San Lucas Tolimán	10	San Lucas Tolimán	11	Noviembre	2023-08-11T00:00:00	2024-11-08T07:00:00	4	Temperatura máxima	18.2
157995	7	Sololá	713	San Lucas Tolimán	10	San Lucas Tolimán	11	Noviembre	2023-08-11T00:00:00	2024-11-08T07:00:00	3	Temperatura mínima	17.9
157996	7	Sololá	713	San Lucas Tolimán	10	San Lucas Tolimán	11	Noviembre	2023-08-11T00:00:00	2024-11-08T07:00:00	5	Humedad	57
157997	7	Sololá	713	San Lucas Tolimán	10	San Lucas Tolimán	11	Noviembre	2023-08-11T00:00:00	2024-11-08T07:00:00	6	Velocidad del viento	4.8
157998	7	Sololá	713	San Lucas Tolimán	10	San Lucas Tolimán	11	Noviembre	2023-08-11T00:00:00	2024-11-08T07:00:00	7	Dirección del viento	4.83
157999	7	Sololá	713	San Lucas Tolimán	10	San Lucas Tolimán	11	Noviembre	2023-08-11T00:00:00	2024-11-08T07:00:00	1	Precipitación	0
158000	7	Sololá	713	San Lucas Tolimán	10	San Lucas Tolimán	11	Noviembre	2023-08-11T00:00:00	2024-11-08T07:00:00	8	Radiación solar	29
158001	7	Sololá	713	San Lucas Tolimán	10	San Lucas Tolimán	11	Noviembre	2023-08-11T00:00:00	2024-11-08T08:00:00	2	Temperatura media	21.2
158002	7	Sololá	713	San Lucas Tolimán	10	San Lucas Tolimán	11	Noviembre	2023-08-11T00:00:00	2024-11-08T08:00:00	4	Temperatura máxima	21.2
158003	7	Sololá	713	San Lucas Tolimán	10	San Lucas Tolimán	11	Noviembre	2023-08-11T00:00:00	2024-11-08T08:00:00	3	Temperatura mínima	18.2
158004	7	Sololá	713	San Lucas Tolimán	10	San Lucas Tolimán	11	Noviembre	2023-08-11T00:00:00	2024-11-08T08:00:00	5	Humedad	57
158005	7	Sololá	713	San Lucas Tolimán	10	San Lucas Tolimán	11	Noviembre	2023-08-11T00:00:00	2024-11-08T08:00:00	6	Velocidad del viento	4.8
158006	7	Sololá	713	San Lucas Tolimán	10	San Lucas Tolimán	11	Noviembre	2023-08-11T00:00:00	2024-11-08T08:00:00	7	Dirección del viento	4.83
158007	7	Sololá	713	San Lucas Tolimán	10	San Lucas Tolimán	11	Noviembre	2023-08-11T00:00:00	2024-11-08T08:00:00	1	Precipitación	0
158008	7	Sololá	713	San Lucas Tolimán	10	San Lucas Tolimán	11	Noviembre	2023-08-11T00:00:00	2024-11-08T08:00:00	8	Radiación solar	137
158009	7	Sololá	713	San Lucas Tolimán	10	San Lucas Tolimán	11	Noviembre	2023-08-11T00:00:00	2024-11-08T09:00:00	2	Temperatura media	23.2
158010	7	Sololá	713	San Lucas Tolimán	10	San Lucas Tolimán	11	Noviembre	2023-08-11T00:00:00	2024-11-08T09:00:00	4	Temperatura máxima	23.2
158011	7	Sololá	713	San Lucas Tolimán	10	San Lucas Tolimán	11	Noviembre	2023-08-11T00:00:00	2024-11-08T09:00:00	3	Temperatura mínima	21.2
158012	7	Sololá	713	San Lucas Tolimán	10	San Lucas Tolimán	11	Noviembre	2023-08-11T00:00:00	2024-11-08T09:00:00	5	Humedad	53
158013	7	Sololá	713	San Lucas Tolimán	10	San Lucas Tolimán	11	Noviembre	2023-08-11T00:00:00	2024-11-08T09:00:00	6	Velocidad del viento	8
158014	7	Sololá	713	San Lucas Tolimán	10	San Lucas Tolimán	11	Noviembre	2023-08-11T00:00:00	2024-11-08T09:00:00	7	Dirección del viento	8.05
158015	7	Sololá	713	San Lucas Tolimán	10	San Lucas Tolimán	11	Noviembre	2023-08-11T00:00:00	2024-11-08T09:00:00	1	Precipitación	0
158016	7	Sololá	713	San Lucas Tolimán	10	San Lucas Tolimán	11	Noviembre	2023-08-11T00:00:00	2024-11-08T09:00:00	8	Radiación solar	380
158017	7	Sololá	713	San Lucas Tolimán	10	San Lucas Tolimán	11	Noviembre	2023-08-11T00:00:00	2024-11-08T10:00:00	2	Temperatura media	23.1
158018	7	Sololá	713	San Lucas Tolimán	10	San Lucas Tolimán	11	Noviembre	2023-08-11T00:00:00	2024-11-08T10:00:00	4	Temperatura máxima	23.3
158019	7	Sololá	713	San Lucas Tolimán	10	San Lucas Tolimán	11	Noviembre	2023-08-11T00:00:00	2024-11-08T10:00:00	3	Temperatura mínima	22.4
158020	7	Sololá	713	San Lucas Tolimán	10	San Lucas Tolimán	11	Noviembre	2023-08-11T00:00:00	2024-11-08T10:00:00	5	Humedad	52
158021	7	Sololá	713	San Lucas Tolimán	10	San Lucas Tolimán	11	Noviembre	2023-08-11T00:00:00	2024-11-08T10:00:00	6	Velocidad del viento	8
158022	7	Sololá	713	San Lucas Tolimán	10	San Lucas Tolimán	11	Noviembre	2023-08-11T00:00:00	2024-11-08T10:00:00	7	Dirección del viento	8.05
158023	7	Sololá	713	San Lucas Tolimán	10	San Lucas Tolimán	11	Noviembre	2023-08-11T00:00:00	2024-11-08T10:00:00	1	Precipitación	0
158024	7	Sololá	713	San Lucas Tolimán	10	San Lucas Tolimán	11	Noviembre	2023-08-11T00:00:00	2024-11-08T10:00:00	8	Radiación solar	199
158025	7	Sololá	713	San Lucas Tolimán	10	San Lucas Tolimán	11	Noviembre	2023-08-11T00:00:00	2024-11-08T11:00:00	2	Temperatura media	24.2
158026	7	Sololá	713	San Lucas Tolimán	10	San Lucas Tolimán	11	Noviembre	2023-08-11T00:00:00	2024-11-08T11:00:00	4	Temperatura máxima	24.4
158027	7	Sololá	713	San Lucas Tolimán	10	San Lucas Tolimán	11	Noviembre	2023-08-11T00:00:00	2024-11-08T11:00:00	3	Temperatura mínima	23.1
158028	7	Sololá	713	San Lucas Tolimán	10	San Lucas Tolimán	11	Noviembre	2023-08-11T00:00:00	2024-11-08T11:00:00	5	Humedad	59
158029	7	Sololá	713	San Lucas Tolimán	10	San Lucas Tolimán	11	Noviembre	2023-08-11T00:00:00	2024-11-08T11:00:00	6	Velocidad del viento	4.8
158030	7	Sololá	713	San Lucas Tolimán	10	San Lucas Tolimán	11	Noviembre	2023-08-11T00:00:00	2024-11-08T11:00:00	7	Dirección del viento	4.83
158031	7	Sololá	713	San Lucas Tolimán	10	San Lucas Tolimán	11	Noviembre	2023-08-11T00:00:00	2024-11-08T11:00:00	1	Precipitación	0
158032	7	Sololá	713	San Lucas Tolimán	10	San Lucas Tolimán	11	Noviembre	2023-08-11T00:00:00	2024-11-08T11:00:00	8	Radiación solar	257
158033	7	Sololá	713	San Lucas Tolimán	10	San Lucas Tolimán	11	Noviembre	2023-08-11T00:00:00	2024-11-08T12:00:00	2	Temperatura media	23
158034	7	Sololá	713	San Lucas Tolimán	10	San Lucas Tolimán	11	Noviembre	2023-08-11T00:00:00	2024-11-08T12:00:00	4	Temperatura máxima	24.3
158035	7	Sololá	713	San Lucas Tolimán	10	San Lucas Tolimán	11	Noviembre	2023-08-11T00:00:00	2024-11-08T12:00:00	3	Temperatura mínima	22.9
158036	7	Sololá	713	San Lucas Tolimán	10	San Lucas Tolimán	11	Noviembre	2023-08-11T00:00:00	2024-11-08T12:00:00	5	Humedad	63
158037	7	Sololá	713	San Lucas Tolimán	10	San Lucas Tolimán	11	Noviembre	2023-08-11T00:00:00	2024-11-08T12:00:00	6	Velocidad del viento	8
158038	7	Sololá	713	San Lucas Tolimán	10	San Lucas Tolimán	11	Noviembre	2023-08-11T00:00:00	2024-11-08T12:00:00	7	Dirección del viento	8.05
158039	7	Sololá	713	San Lucas Tolimán	10	San Lucas Tolimán	11	Noviembre	2023-08-11T00:00:00	2024-11-08T12:00:00	1	Precipitación	0
158040	7	Sololá	713	San Lucas Tolimán	10	San Lucas Tolimán	11	Noviembre	2023-08-11T00:00:00	2024-11-08T12:00:00	8	Radiación solar	401
158041	7	Sololá	713	San Lucas Tolimán	10	San Lucas Tolimán	11	Noviembre	2023-08-11T00:00:00	2024-11-08T13:00:00	2	Temperatura media	25.1
158042	7	Sololá	713	San Lucas Tolimán	10	San Lucas Tolimán	11	Noviembre	2023-08-11T00:00:00	2024-11-08T13:00:00	4	Temperatura máxima	25.1
158043	7	Sololá	713	San Lucas Tolimán	10	San Lucas Tolimán	11	Noviembre	2023-08-11T00:00:00	2024-11-08T13:00:00	3	Temperatura mínima	22.9
158044	7	Sololá	713	San Lucas Tolimán	10	San Lucas Tolimán	11	Noviembre	2023-08-11T00:00:00	2024-11-08T13:00:00	5	Humedad	50
158045	7	Sololá	713	San Lucas Tolimán	10	San Lucas Tolimán	11	Noviembre	2023-08-11T00:00:00	2024-11-08T13:00:00	6	Velocidad del viento	4.8
158046	7	Sololá	713	San Lucas Tolimán	10	San Lucas Tolimán	11	Noviembre	2023-08-11T00:00:00	2024-11-08T13:00:00	7	Dirección del viento	4.83
158047	7	Sololá	713	San Lucas Tolimán	10	San Lucas Tolimán	11	Noviembre	2023-08-11T00:00:00	2024-11-08T13:00:00	1	Precipitación	0
158048	7	Sololá	713	San Lucas Tolimán	10	San Lucas Tolimán	11	Noviembre	2023-08-11T00:00:00	2024-11-08T13:00:00	8	Radiación solar	413
158049	7	Sololá	713	San Lucas Tolimán	10	San Lucas Tolimán	11	Noviembre	2023-08-11T00:00:00	2024-11-08T14:00:00	2	Temperatura media	22.6
158050	7	Sololá	713	San Lucas Tolimán	10	San Lucas Tolimán	11	Noviembre	2023-08-11T00:00:00	2024-11-08T14:00:00	4	Temperatura máxima	25.4
158051	7	Sololá	713	San Lucas Tolimán	10	San Lucas Tolimán	11	Noviembre	2023-08-11T00:00:00	2024-11-08T14:00:00	3	Temperatura mínima	22.6
158052	7	Sololá	713	San Lucas Tolimán	10	San Lucas Tolimán	11	Noviembre	2023-08-11T00:00:00	2024-11-08T14:00:00	5	Humedad	64
158053	7	Sololá	713	San Lucas Tolimán	10	San Lucas Tolimán	11	Noviembre	2023-08-11T00:00:00	2024-11-08T14:00:00	6	Velocidad del viento	8
158054	7	Sololá	713	San Lucas Tolimán	10	San Lucas Tolimán	11	Noviembre	2023-08-11T00:00:00	2024-11-08T14:00:00	7	Dirección del viento	8.05
158055	7	Sololá	713	San Lucas Tolimán	10	San Lucas Tolimán	11	Noviembre	2023-08-11T00:00:00	2024-11-08T14:00:00	1	Precipitación	0
158056	7	Sololá	713	San Lucas Tolimán	10	San Lucas Tolimán	11	Noviembre	2023-08-11T00:00:00	2024-11-08T14:00:00	8	Radiación solar	414
158057	7	Sololá	713	San Lucas Tolimán	10	San Lucas Tolimán	11	Noviembre	2023-08-11T00:00:00	2024-11-08T15:00:00	2	Temperatura media	22.2
158058	7	Sololá	713	San Lucas Tolimán	10	San Lucas Tolimán	11	Noviembre	2023-08-11T00:00:00	2024-11-08T15:00:00	4	Temperatura máxima	22.6
158059	7	Sololá	713	San Lucas Tolimán	10	San Lucas Tolimán	11	Noviembre	2023-08-11T00:00:00	2024-11-08T15:00:00	3	Temperatura mínima	21.8
158060	7	Sololá	713	San Lucas Tolimán	10	San Lucas Tolimán	11	Noviembre	2023-08-11T00:00:00	2024-11-08T15:00:00	5	Humedad	60
158061	7	Sololá	713	San Lucas Tolimán	10	San Lucas Tolimán	11	Noviembre	2023-08-11T00:00:00	2024-11-08T15:00:00	6	Velocidad del viento	8
158062	7	Sololá	713	San Lucas Tolimán	10	San Lucas Tolimán	11	Noviembre	2023-08-11T00:00:00	2024-11-08T15:00:00	7	Dirección del viento	8.05
158063	7	Sololá	713	San Lucas Tolimán	10	San Lucas Tolimán	11	Noviembre	2023-08-11T00:00:00	2024-11-08T15:00:00	1	Precipitación	0
158064	7	Sololá	713	San Lucas Tolimán	10	San Lucas Tolimán	11	Noviembre	2023-08-11T00:00:00	2024-11-08T15:00:00	8	Radiación solar	207
158065	7	Sololá	713	San Lucas Tolimán	10	San Lucas Tolimán	11	Noviembre	2023-08-11T00:00:00	2024-11-08T16:00:00	2	Temperatura media	21.7
158066	7	Sololá	713	San Lucas Tolimán	10	San Lucas Tolimán	11	Noviembre	2023-08-11T00:00:00	2024-11-08T16:00:00	4	Temperatura máxima	22.5
158067	7	Sololá	713	San Lucas Tolimán	10	San Lucas Tolimán	11	Noviembre	2023-08-11T00:00:00	2024-11-08T16:00:00	3	Temperatura mínima	21.7
158068	7	Sololá	713	San Lucas Tolimán	10	San Lucas Tolimán	11	Noviembre	2023-08-11T00:00:00	2024-11-08T16:00:00	5	Humedad	61
158069	7	Sololá	713	San Lucas Tolimán	10	San Lucas Tolimán	11	Noviembre	2023-08-11T00:00:00	2024-11-08T16:00:00	6	Velocidad del viento	8
158070	7	Sololá	713	San Lucas Tolimán	10	San Lucas Tolimán	11	Noviembre	2023-08-11T00:00:00	2024-11-08T16:00:00	7	Dirección del viento	8.05
158071	7	Sololá	713	San Lucas Tolimán	10	San Lucas Tolimán	11	Noviembre	2023-08-11T00:00:00	2024-11-08T16:00:00	1	Precipitación	0
158072	7	Sololá	713	San Lucas Tolimán	10	San Lucas Tolimán	11	Noviembre	2023-08-11T00:00:00	2024-11-08T16:00:00	8	Radiación solar	192
158073	7	Sololá	713	San Lucas Tolimán	10	San Lucas Tolimán	11	Noviembre	2023-08-11T00:00:00	2024-11-08T17:00:00	2	Temperatura media	20.8
158074	7	Sololá	713	San Lucas Tolimán	10	San Lucas Tolimán	11	Noviembre	2023-08-11T00:00:00	2024-11-08T17:00:00	4	Temperatura máxima	21.7
158075	7	Sololá	713	San Lucas Tolimán	10	San Lucas Tolimán	11	Noviembre	2023-08-11T00:00:00	2024-11-08T17:00:00	3	Temperatura mínima	20.8
158076	7	Sololá	713	San Lucas Tolimán	10	San Lucas Tolimán	11	Noviembre	2023-08-11T00:00:00	2024-11-08T17:00:00	5	Humedad	61
158077	7	Sololá	713	San Lucas Tolimán	10	San Lucas Tolimán	11	Noviembre	2023-08-11T00:00:00	2024-11-08T17:00:00	6	Velocidad del viento	8
158078	7	Sololá	713	San Lucas Tolimán	10	San Lucas Tolimán	11	Noviembre	2023-08-11T00:00:00	2024-11-08T17:00:00	7	Dirección del viento	8.05
158079	7	Sololá	713	San Lucas Tolimán	10	San Lucas Tolimán	11	Noviembre	2023-08-11T00:00:00	2024-11-08T17:00:00	1	Precipitación	0
158080	7	Sololá	713	San Lucas Tolimán	10	San Lucas Tolimán	11	Noviembre	2023-08-11T00:00:00	2024-11-08T17:00:00	8	Radiación solar	74
158081	7	Sololá	713	San Lucas Tolimán	10	San Lucas Tolimán	11	Noviembre	2023-08-11T00:00:00	2024-11-08T18:00:00	2	Temperatura media	20.2
158082	7	Sololá	713	San Lucas Tolimán	10	San Lucas Tolimán	11	Noviembre	2023-08-11T00:00:00	2024-11-08T18:00:00	4	Temperatura máxima	20.8
158083	7	Sololá	713	San Lucas Tolimán	10	San Lucas Tolimán	11	Noviembre	2023-08-11T00:00:00	2024-11-08T18:00:00	3	Temperatura mínima	20.2
158084	7	Sololá	713	San Lucas Tolimán	10	San Lucas Tolimán	11	Noviembre	2023-08-11T00:00:00	2024-11-08T18:00:00	5	Humedad	61
158085	7	Sololá	713	San Lucas Tolimán	10	San Lucas Tolimán	11	Noviembre	2023-08-11T00:00:00	2024-11-08T18:00:00	6	Velocidad del viento	4.8
158086	7	Sololá	713	San Lucas Tolimán	10	San Lucas Tolimán	11	Noviembre	2023-08-11T00:00:00	2024-11-08T18:00:00	7	Dirección del viento	4.83
158087	7	Sololá	713	San Lucas Tolimán	10	San Lucas Tolimán	11	Noviembre	2023-08-11T00:00:00	2024-11-08T18:00:00	1	Precipitación	0
158088	7	Sololá	713	San Lucas Tolimán	10	San Lucas Tolimán	11	Noviembre	2023-08-11T00:00:00	2024-11-08T18:00:00	8	Radiación solar	11
158089	7	Sololá	713	San Lucas Tolimán	10	San Lucas Tolimán	11	Noviembre	2023-08-11T00:00:00	2024-11-08T19:00:00	2	Temperatura media	19.6
158090	7	Sololá	713	San Lucas Tolimán	10	San Lucas Tolimán	11	Noviembre	2023-08-11T00:00:00	2024-11-08T19:00:00	4	Temperatura máxima	20.2
158091	7	Sololá	713	San Lucas Tolimán	10	San Lucas Tolimán	11	Noviembre	2023-08-11T00:00:00	2024-11-08T19:00:00	3	Temperatura mínima	19.3
158092	7	Sololá	713	San Lucas Tolimán	10	San Lucas Tolimán	11	Noviembre	2023-08-11T00:00:00	2024-11-08T19:00:00	5	Humedad	57
158093	7	Sololá	713	San Lucas Tolimán	10	San Lucas Tolimán	11	Noviembre	2023-08-11T00:00:00	2024-11-08T19:00:00	6	Velocidad del viento	3.2
158094	7	Sololá	713	San Lucas Tolimán	10	San Lucas Tolimán	11	Noviembre	2023-08-11T00:00:00	2024-11-08T19:00:00	7	Dirección del viento	3.22
158095	7	Sololá	713	San Lucas Tolimán	10	San Lucas Tolimán	11	Noviembre	2023-08-11T00:00:00	2024-11-08T19:00:00	1	Precipitación	0
158096	7	Sololá	713	San Lucas Tolimán	10	San Lucas Tolimán	11	Noviembre	2023-08-11T00:00:00	2024-11-08T19:00:00	8	Radiación solar	0
158097	7	Sololá	713	San Lucas Tolimán	10	San Lucas Tolimán	11	Noviembre	2023-08-11T00:00:00	2024-11-08T20:00:00	2	Temperatura media	19.6
158098	7	Sololá	713	San Lucas Tolimán	10	San Lucas Tolimán	11	Noviembre	2023-08-11T00:00:00	2024-11-08T20:00:00	4	Temperatura máxima	19.8
158099	7	Sololá	713	San Lucas Tolimán	10	San Lucas Tolimán	11	Noviembre	2023-08-11T00:00:00	2024-11-08T20:00:00	3	Temperatura mínima	19.4
158100	7	Sololá	713	San Lucas Tolimán	10	San Lucas Tolimán	11	Noviembre	2023-08-11T00:00:00	2024-11-08T20:00:00	5	Humedad	57
158101	7	Sololá	713	San Lucas Tolimán	10	San Lucas Tolimán	11	Noviembre	2023-08-11T00:00:00	2024-11-08T20:00:00	6	Velocidad del viento	1.6
158102	7	Sololá	713	San Lucas Tolimán	10	San Lucas Tolimán	11	Noviembre	2023-08-11T00:00:00	2024-11-08T20:00:00	7	Dirección del viento	1.61
158103	7	Sololá	713	San Lucas Tolimán	10	San Lucas Tolimán	11	Noviembre	2023-08-11T00:00:00	2024-11-08T20:00:00	1	Precipitación	0
158104	7	Sololá	713	San Lucas Tolimán	10	San Lucas Tolimán	11	Noviembre	2023-08-11T00:00:00	2024-11-08T20:00:00	8	Radiación solar	0
158105	7	Sololá	713	San Lucas Tolimán	10	San Lucas Tolimán	11	Noviembre	2023-08-11T00:00:00	2024-11-08T21:00:00	2	Temperatura media	18.8
158106	7	Sololá	713	San Lucas Tolimán	10	San Lucas Tolimán	11	Noviembre	2023-08-11T00:00:00	2024-11-08T21:00:00	4	Temperatura máxima	19.7
158107	7	Sololá	713	San Lucas Tolimán	10	San Lucas Tolimán	11	Noviembre	2023-08-11T00:00:00	2024-11-08T21:00:00	3	Temperatura mínima	18.8
158108	7	Sololá	713	San Lucas Tolimán	10	San Lucas Tolimán	11	Noviembre	2023-08-11T00:00:00	2024-11-08T21:00:00	5	Humedad	60
158109	7	Sololá	713	San Lucas Tolimán	10	San Lucas Tolimán	11	Noviembre	2023-08-11T00:00:00	2024-11-08T21:00:00	6	Velocidad del viento	1.6
158110	7	Sololá	713	San Lucas Tolimán	10	San Lucas Tolimán	11	Noviembre	2023-08-11T00:00:00	2024-11-08T21:00:00	7	Dirección del viento	1.61
158111	7	Sololá	713	San Lucas Tolimán	10	San Lucas Tolimán	11	Noviembre	2023-08-11T00:00:00	2024-11-08T21:00:00	1	Precipitación	0
158112	7	Sololá	713	San Lucas Tolimán	10	San Lucas Tolimán	11	Noviembre	2023-08-11T00:00:00	2024-11-08T21:00:00	8	Radiación solar	0
158113	7	Sololá	713	San Lucas Tolimán	10	San Lucas Tolimán	11	Noviembre	2023-08-11T00:00:00	2024-11-08T22:00:00	2	Temperatura media	19.3
158114	7	Sololá	713	San Lucas Tolimán	10	San Lucas Tolimán	11	Noviembre	2023-08-11T00:00:00	2024-11-08T22:00:00	4	Temperatura máxima	19.7
158115	7	Sololá	713	San Lucas Tolimán	10	San Lucas Tolimán	11	Noviembre	2023-08-11T00:00:00	2024-11-08T22:00:00	3	Temperatura mínima	18.4
158116	7	Sololá	713	San Lucas Tolimán	10	San Lucas Tolimán	11	Noviembre	2023-08-11T00:00:00	2024-11-08T22:00:00	5	Humedad	58
158117	7	Sololá	713	San Lucas Tolimán	10	San Lucas Tolimán	11	Noviembre	2023-08-11T00:00:00	2024-11-08T22:00:00	6	Velocidad del viento	1.6
158118	7	Sololá	713	San Lucas Tolimán	10	San Lucas Tolimán	11	Noviembre	2023-08-11T00:00:00	2024-11-08T22:00:00	7	Dirección del viento	1.61
158119	7	Sololá	713	San Lucas Tolimán	10	San Lucas Tolimán	11	Noviembre	2023-08-11T00:00:00	2024-11-08T22:00:00	1	Precipitación	0
158120	7	Sololá	713	San Lucas Tolimán	10	San Lucas Tolimán	11	Noviembre	2023-08-11T00:00:00	2024-11-08T22:00:00	8	Radiación solar	0
158121	7	Sololá	713	San Lucas Tolimán	10	San Lucas Tolimán	11	Noviembre	2023-08-11T00:00:00	2024-11-08T23:00:00	2	Temperatura media	18.1
158122	7	Sololá	713	San Lucas Tolimán	10	San Lucas Tolimán	11	Noviembre	2023-08-11T00:00:00	2024-11-08T23:00:00	4	Temperatura máxima	19.2
158123	7	Sololá	713	San Lucas Tolimán	10	San Lucas Tolimán	11	Noviembre	2023-08-11T00:00:00	2024-11-08T23:00:00	3	Temperatura mínima	18.1
158124	7	Sololá	713	San Lucas Tolimán	10	San Lucas Tolimán	11	Noviembre	2023-08-11T00:00:00	2024-11-08T23:00:00	5	Humedad	61
158125	7	Sololá	713	San Lucas Tolimán	10	San Lucas Tolimán	11	Noviembre	2023-08-11T00:00:00	2024-11-08T23:00:00	6	Velocidad del viento	1.6
158126	7	Sololá	713	San Lucas Tolimán	10	San Lucas Tolimán	11	Noviembre	2023-08-11T00:00:00	2024-11-08T23:00:00	7	Dirección del viento	1.61
158127	7	Sololá	713	San Lucas Tolimán	10	San Lucas Tolimán	11	Noviembre	2023-08-11T00:00:00	2024-11-08T23:00:00	1	Precipitación	0
158128	7	Sololá	713	San Lucas Tolimán	10	San Lucas Tolimán	11	Noviembre	2023-08-11T00:00:00	2024-11-08T23:00:00	8	Radiación solar	0
158129	7	Sololá	713	San Lucas Tolimán	10	San Lucas Tolimán	11	Noviembre	2023-09-11T00:00:00	2024-11-08T00:00:00	2	Temperatura media	17.2
158130	7	Sololá	713	San Lucas Tolimán	10	San Lucas Tolimán	11	Noviembre	2023-09-11T00:00:00	2024-11-08T00:00:00	4	Temperatura máxima	18.1
158131	7	Sololá	713	San Lucas Tolimán	10	San Lucas Tolimán	11	Noviembre	2023-09-11T00:00:00	2024-11-08T00:00:00	3	Temperatura mínima	17.1
158132	7	Sololá	713	San Lucas Tolimán	10	San Lucas Tolimán	11	Noviembre	2023-09-11T00:00:00	2024-11-08T00:00:00	5	Humedad	62
158133	7	Sololá	713	San Lucas Tolimán	10	San Lucas Tolimán	11	Noviembre	2023-09-11T00:00:00	2024-11-08T00:00:00	6	Velocidad del viento	0
158134	7	Sololá	713	San Lucas Tolimán	10	San Lucas Tolimán	11	Noviembre	2023-09-11T00:00:00	2024-11-08T00:00:00	7	Dirección del viento	0
158135	7	Sololá	713	San Lucas Tolimán	10	San Lucas Tolimán	11	Noviembre	2023-09-11T00:00:00	2024-11-08T00:00:00	1	Precipitación	0
158136	7	Sololá	713	San Lucas Tolimán	10	San Lucas Tolimán	11	Noviembre	2023-09-11T00:00:00	2024-11-08T00:00:00	8	Radiación solar	0
158137	7	Sololá	713	San Lucas Tolimán	10	San Lucas Tolimán	11	Noviembre	2023-09-11T00:00:00	2024-11-08T01:00:00	2	Temperatura media	17.1
158138	7	Sololá	713	San Lucas Tolimán	10	San Lucas Tolimán	11	Noviembre	2023-09-11T00:00:00	2024-11-08T01:00:00	4	Temperatura máxima	17.4
158139	7	Sololá	713	San Lucas Tolimán	10	San Lucas Tolimán	11	Noviembre	2023-09-11T00:00:00	2024-11-08T01:00:00	3	Temperatura mínima	16.9
158140	7	Sololá	713	San Lucas Tolimán	10	San Lucas Tolimán	11	Noviembre	2023-09-11T00:00:00	2024-11-08T01:00:00	5	Humedad	61
158141	7	Sololá	713	San Lucas Tolimán	10	San Lucas Tolimán	11	Noviembre	2023-09-11T00:00:00	2024-11-08T01:00:00	6	Velocidad del viento	1.6
158142	7	Sololá	713	San Lucas Tolimán	10	San Lucas Tolimán	11	Noviembre	2023-09-11T00:00:00	2024-11-08T01:00:00	7	Dirección del viento	1.61
158143	7	Sololá	713	San Lucas Tolimán	10	San Lucas Tolimán	11	Noviembre	2023-09-11T00:00:00	2024-11-08T01:00:00	1	Precipitación	0
158144	7	Sololá	713	San Lucas Tolimán	10	San Lucas Tolimán	11	Noviembre	2023-09-11T00:00:00	2024-11-08T01:00:00	8	Radiación solar	0
158145	7	Sololá	713	San Lucas Tolimán	10	San Lucas Tolimán	11	Noviembre	2023-09-11T00:00:00	2024-11-08T02:00:00	2	Temperatura media	17.5
158146	7	Sololá	713	San Lucas Tolimán	10	San Lucas Tolimán	11	Noviembre	2023-09-11T00:00:00	2024-11-08T02:00:00	4	Temperatura máxima	17.7
158147	7	Sololá	713	San Lucas Tolimán	10	San Lucas Tolimán	11	Noviembre	2023-09-11T00:00:00	2024-11-08T02:00:00	3	Temperatura mínima	17
158148	7	Sololá	713	San Lucas Tolimán	10	San Lucas Tolimán	11	Noviembre	2023-09-11T00:00:00	2024-11-08T02:00:00	5	Humedad	63
158149	7	Sololá	713	San Lucas Tolimán	10	San Lucas Tolimán	11	Noviembre	2023-09-11T00:00:00	2024-11-08T02:00:00	6	Velocidad del viento	3.2
158150	7	Sololá	713	San Lucas Tolimán	10	San Lucas Tolimán	11	Noviembre	2023-09-11T00:00:00	2024-11-08T02:00:00	7	Dirección del viento	3.22
158151	7	Sololá	713	San Lucas Tolimán	10	San Lucas Tolimán	11	Noviembre	2023-09-11T00:00:00	2024-11-08T02:00:00	1	Precipitación	0
158152	7	Sololá	713	San Lucas Tolimán	10	San Lucas Tolimán	11	Noviembre	2023-09-11T00:00:00	2024-11-08T02:00:00	8	Radiación solar	0
158153	7	Sololá	713	San Lucas Tolimán	10	San Lucas Tolimán	11	Noviembre	2023-09-11T00:00:00	2024-11-08T03:00:00	2	Temperatura media	17
158154	7	Sololá	713	San Lucas Tolimán	10	San Lucas Tolimán	11	Noviembre	2023-09-11T00:00:00	2024-11-08T03:00:00	4	Temperatura máxima	17.5
158155	7	Sololá	713	San Lucas Tolimán	10	San Lucas Tolimán	11	Noviembre	2023-09-11T00:00:00	2024-11-08T03:00:00	3	Temperatura mínima	16.8
158156	7	Sololá	713	San Lucas Tolimán	10	San Lucas Tolimán	11	Noviembre	2023-09-11T00:00:00	2024-11-08T03:00:00	5	Humedad	62
158157	7	Sololá	713	San Lucas Tolimán	10	San Lucas Tolimán	11	Noviembre	2023-09-11T00:00:00	2024-11-08T03:00:00	6	Velocidad del viento	1.6
158158	7	Sololá	713	San Lucas Tolimán	10	San Lucas Tolimán	11	Noviembre	2023-09-11T00:00:00	2024-11-08T03:00:00	7	Dirección del viento	1.61
158159	7	Sololá	713	San Lucas Tolimán	10	San Lucas Tolimán	11	Noviembre	2023-09-11T00:00:00	2024-11-08T03:00:00	1	Precipitación	0
158160	7	Sololá	713	San Lucas Tolimán	10	San Lucas Tolimán	11	Noviembre	2023-09-11T00:00:00	2024-11-08T03:00:00	8	Radiación solar	0
158161	7	Sololá	713	San Lucas Tolimán	10	San Lucas Tolimán	11	Noviembre	2023-09-11T00:00:00	2024-11-08T04:00:00	2	Temperatura media	16.6
158162	7	Sololá	713	San Lucas Tolimán	10	San Lucas Tolimán	11	Noviembre	2023-09-11T00:00:00	2024-11-08T04:00:00	4	Temperatura máxima	17.1
158163	7	Sololá	713	San Lucas Tolimán	10	San Lucas Tolimán	11	Noviembre	2023-09-11T00:00:00	2024-11-08T04:00:00	3	Temperatura mínima	16.3
158164	7	Sololá	713	San Lucas Tolimán	10	San Lucas Tolimán	11	Noviembre	2023-09-11T00:00:00	2024-11-08T04:00:00	5	Humedad	62
158165	7	Sololá	713	San Lucas Tolimán	10	San Lucas Tolimán	11	Noviembre	2023-09-11T00:00:00	2024-11-08T04:00:00	6	Velocidad del viento	1.6
158166	7	Sololá	713	San Lucas Tolimán	10	San Lucas Tolimán	11	Noviembre	2023-09-11T00:00:00	2024-11-08T04:00:00	7	Dirección del viento	1.61
158167	7	Sololá	713	San Lucas Tolimán	10	San Lucas Tolimán	11	Noviembre	2023-09-11T00:00:00	2024-11-08T04:00:00	1	Precipitación	0
158168	7	Sololá	713	San Lucas Tolimán	10	San Lucas Tolimán	11	Noviembre	2023-09-11T00:00:00	2024-11-08T04:00:00	8	Radiación solar	0
158169	7	Sololá	713	San Lucas Tolimán	10	San Lucas Tolimán	11	Noviembre	2023-09-11T00:00:00	2024-11-08T05:00:00	2	Temperatura media	17.4
158170	7	Sololá	713	San Lucas Tolimán	10	San Lucas Tolimán	11	Noviembre	2023-09-11T00:00:00	2024-11-08T05:00:00	4	Temperatura máxima	17.5
158171	7	Sololá	713	San Lucas Tolimán	10	San Lucas Tolimán	11	Noviembre	2023-09-11T00:00:00	2024-11-08T05:00:00	3	Temperatura mínima	16.6
158172	7	Sololá	713	San Lucas Tolimán	10	San Lucas Tolimán	11	Noviembre	2023-09-11T00:00:00	2024-11-08T05:00:00	5	Humedad	61
158173	7	Sololá	713	San Lucas Tolimán	10	San Lucas Tolimán	11	Noviembre	2023-09-11T00:00:00	2024-11-08T05:00:00	6	Velocidad del viento	4.8
158174	7	Sololá	713	San Lucas Tolimán	10	San Lucas Tolimán	11	Noviembre	2023-09-11T00:00:00	2024-11-08T05:00:00	7	Dirección del viento	4.83
158175	7	Sololá	713	San Lucas Tolimán	10	San Lucas Tolimán	11	Noviembre	2023-09-11T00:00:00	2024-11-08T05:00:00	1	Precipitación	0
158176	7	Sololá	713	San Lucas Tolimán	10	San Lucas Tolimán	11	Noviembre	2023-09-11T00:00:00	2024-11-08T05:00:00	8	Radiación solar	0
158177	7	Sololá	713	San Lucas Tolimán	10	San Lucas Tolimán	11	Noviembre	2023-09-11T00:00:00	2024-11-08T06:00:00	2	Temperatura media	16.6
158178	7	Sololá	713	San Lucas Tolimán	10	San Lucas Tolimán	11	Noviembre	2023-09-11T00:00:00	2024-11-08T06:00:00	4	Temperatura máxima	17.8
158179	7	Sololá	713	San Lucas Tolimán	10	San Lucas Tolimán	11	Noviembre	2023-09-11T00:00:00	2024-11-08T06:00:00	3	Temperatura mínima	16.6
158180	7	Sololá	713	San Lucas Tolimán	10	San Lucas Tolimán	11	Noviembre	2023-09-11T00:00:00	2024-11-08T06:00:00	5	Humedad	61
158181	7	Sololá	713	San Lucas Tolimán	10	San Lucas Tolimán	11	Noviembre	2023-09-11T00:00:00	2024-11-08T06:00:00	6	Velocidad del viento	1.6
158182	7	Sololá	713	San Lucas Tolimán	10	San Lucas Tolimán	11	Noviembre	2023-09-11T00:00:00	2024-11-08T06:00:00	7	Dirección del viento	1.61
158183	7	Sololá	713	San Lucas Tolimán	10	San Lucas Tolimán	11	Noviembre	2023-09-11T00:00:00	2024-11-08T06:00:00	1	Precipitación	0
158184	7	Sololá	713	San Lucas Tolimán	10	San Lucas Tolimán	11	Noviembre	2023-09-11T00:00:00	2024-11-08T06:00:00	8	Radiación solar	0
158185	7	Sololá	713	San Lucas Tolimán	10	San Lucas Tolimán	11	Noviembre	2023-09-11T00:00:00	2024-11-08T07:00:00	2	Temperatura media	17.2
158186	7	Sololá	713	San Lucas Tolimán	10	San Lucas Tolimán	11	Noviembre	2023-09-11T00:00:00	2024-11-08T07:00:00	4	Temperatura máxima	17.2
158187	7	Sololá	713	San Lucas Tolimán	10	San Lucas Tolimán	11	Noviembre	2023-09-11T00:00:00	2024-11-08T07:00:00	3	Temperatura mínima	16.3
158188	7	Sololá	713	San Lucas Tolimán	10	San Lucas Tolimán	11	Noviembre	2023-09-11T00:00:00	2024-11-08T07:00:00	5	Humedad	64
158189	7	Sololá	713	San Lucas Tolimán	10	San Lucas Tolimán	11	Noviembre	2023-09-11T00:00:00	2024-11-08T07:00:00	6	Velocidad del viento	4.8
158190	7	Sololá	713	San Lucas Tolimán	10	San Lucas Tolimán	11	Noviembre	2023-09-11T00:00:00	2024-11-08T07:00:00	7	Dirección del viento	4.83
158191	7	Sololá	713	San Lucas Tolimán	10	San Lucas Tolimán	11	Noviembre	2023-09-11T00:00:00	2024-11-08T07:00:00	1	Precipitación	0
158192	7	Sololá	713	San Lucas Tolimán	10	San Lucas Tolimán	11	Noviembre	2023-09-11T00:00:00	2024-11-08T07:00:00	8	Radiación solar	13
158193	7	Sololá	713	San Lucas Tolimán	10	San Lucas Tolimán	11	Noviembre	2023-09-11T00:00:00	2024-11-08T08:00:00	2	Temperatura media	18.5
158194	7	Sololá	713	San Lucas Tolimán	10	San Lucas Tolimán	11	Noviembre	2023-09-11T00:00:00	2024-11-08T08:00:00	4	Temperatura máxima	18.5
158195	7	Sololá	713	San Lucas Tolimán	10	San Lucas Tolimán	11	Noviembre	2023-09-11T00:00:00	2024-11-08T08:00:00	3	Temperatura mínima	17.2
158196	7	Sololá	713	San Lucas Tolimán	10	San Lucas Tolimán	11	Noviembre	2023-09-11T00:00:00	2024-11-08T08:00:00	5	Humedad	62
158197	7	Sololá	713	San Lucas Tolimán	10	San Lucas Tolimán	11	Noviembre	2023-09-11T00:00:00	2024-11-08T08:00:00	6	Velocidad del viento	4.8
158198	7	Sololá	713	San Lucas Tolimán	10	San Lucas Tolimán	11	Noviembre	2023-09-11T00:00:00	2024-11-08T08:00:00	7	Dirección del viento	4.83
158199	7	Sololá	713	San Lucas Tolimán	10	San Lucas Tolimán	11	Noviembre	2023-09-11T00:00:00	2024-11-08T08:00:00	1	Precipitación	0
158200	7	Sololá	713	San Lucas Tolimán	10	San Lucas Tolimán	11	Noviembre	2023-09-11T00:00:00	2024-11-08T08:00:00	8	Radiación solar	90
158201	7	Sololá	713	San Lucas Tolimán	10	San Lucas Tolimán	11	Noviembre	2023-09-11T00:00:00	2024-11-08T09:00:00	2	Temperatura media	21.1
158202	7	Sololá	713	San Lucas Tolimán	10	San Lucas Tolimán	11	Noviembre	2023-09-11T00:00:00	2024-11-08T09:00:00	4	Temperatura máxima	21.1
158203	7	Sololá	713	San Lucas Tolimán	10	San Lucas Tolimán	11	Noviembre	2023-09-11T00:00:00	2024-11-08T09:00:00	3	Temperatura mínima	18.4
158204	7	Sololá	713	San Lucas Tolimán	10	San Lucas Tolimán	11	Noviembre	2023-09-11T00:00:00	2024-11-08T09:00:00	5	Humedad	57
158205	7	Sololá	713	San Lucas Tolimán	10	San Lucas Tolimán	11	Noviembre	2023-09-11T00:00:00	2024-11-08T09:00:00	6	Velocidad del viento	1.6
158206	7	Sololá	713	San Lucas Tolimán	10	San Lucas Tolimán	11	Noviembre	2023-09-11T00:00:00	2024-11-08T09:00:00	7	Dirección del viento	1.61
158207	7	Sololá	713	San Lucas Tolimán	10	San Lucas Tolimán	11	Noviembre	2023-09-11T00:00:00	2024-11-08T09:00:00	1	Precipitación	0
158208	7	Sololá	713	San Lucas Tolimán	10	San Lucas Tolimán	11	Noviembre	2023-09-11T00:00:00	2024-11-08T09:00:00	8	Radiación solar	297
158209	7	Sololá	713	San Lucas Tolimán	10	San Lucas Tolimán	11	Noviembre	2023-09-11T00:00:00	2024-11-08T10:00:00	2	Temperatura media	22.1
158210	7	Sololá	713	San Lucas Tolimán	10	San Lucas Tolimán	11	Noviembre	2023-09-11T00:00:00	2024-11-08T10:00:00	4	Temperatura máxima	22.1
158211	7	Sololá	713	San Lucas Tolimán	10	San Lucas Tolimán	11	Noviembre	2023-09-11T00:00:00	2024-11-08T10:00:00	3	Temperatura mínima	20.7
158212	7	Sololá	713	San Lucas Tolimán	10	San Lucas Tolimán	11	Noviembre	2023-09-11T00:00:00	2024-11-08T10:00:00	5	Humedad	59
158213	7	Sololá	713	San Lucas Tolimán	10	San Lucas Tolimán	11	Noviembre	2023-09-11T00:00:00	2024-11-08T10:00:00	6	Velocidad del viento	4.8
158214	7	Sololá	713	San Lucas Tolimán	10	San Lucas Tolimán	11	Noviembre	2023-09-11T00:00:00	2024-11-08T10:00:00	7	Dirección del viento	4.83
158215	7	Sololá	713	San Lucas Tolimán	10	San Lucas Tolimán	11	Noviembre	2023-09-11T00:00:00	2024-11-08T10:00:00	1	Precipitación	0
158216	7	Sololá	713	San Lucas Tolimán	10	San Lucas Tolimán	11	Noviembre	2023-09-11T00:00:00	2024-11-08T10:00:00	8	Radiación solar	535
158217	7	Sololá	713	San Lucas Tolimán	10	San Lucas Tolimán	11	Noviembre	2023-09-11T00:00:00	2024-11-08T11:00:00	2	Temperatura media	24.3
158218	7	Sololá	713	San Lucas Tolimán	10	San Lucas Tolimán	11	Noviembre	2023-09-11T00:00:00	2024-11-08T11:00:00	4	Temperatura máxima	24.3
158219	7	Sololá	713	San Lucas Tolimán	10	San Lucas Tolimán	11	Noviembre	2023-09-11T00:00:00	2024-11-08T11:00:00	3	Temperatura mínima	22.1
158220	7	Sololá	713	San Lucas Tolimán	10	San Lucas Tolimán	11	Noviembre	2023-09-11T00:00:00	2024-11-08T11:00:00	5	Humedad	55
158221	7	Sololá	713	San Lucas Tolimán	10	San Lucas Tolimán	11	Noviembre	2023-09-11T00:00:00	2024-11-08T11:00:00	6	Velocidad del viento	8
158222	7	Sololá	713	San Lucas Tolimán	10	San Lucas Tolimán	11	Noviembre	2023-09-11T00:00:00	2024-11-08T11:00:00	7	Dirección del viento	8.05
158223	7	Sololá	713	San Lucas Tolimán	10	San Lucas Tolimán	11	Noviembre	2023-09-11T00:00:00	2024-11-08T11:00:00	1	Precipitación	0
158224	7	Sololá	713	San Lucas Tolimán	10	San Lucas Tolimán	11	Noviembre	2023-09-11T00:00:00	2024-11-08T11:00:00	8	Radiación solar	911
158225	7	Sololá	713	San Lucas Tolimán	10	San Lucas Tolimán	11	Noviembre	2023-09-11T00:00:00	2024-11-08T12:00:00	2	Temperatura media	24
158226	7	Sololá	713	San Lucas Tolimán	10	San Lucas Tolimán	11	Noviembre	2023-09-11T00:00:00	2024-11-08T12:00:00	4	Temperatura máxima	24.5
158227	7	Sololá	713	San Lucas Tolimán	10	San Lucas Tolimán	11	Noviembre	2023-09-11T00:00:00	2024-11-08T12:00:00	3	Temperatura mínima	23.8
158228	7	Sololá	713	San Lucas Tolimán	10	San Lucas Tolimán	11	Noviembre	2023-09-11T00:00:00	2024-11-08T12:00:00	5	Humedad	58
158229	7	Sololá	713	San Lucas Tolimán	10	San Lucas Tolimán	11	Noviembre	2023-09-11T00:00:00	2024-11-08T12:00:00	6	Velocidad del viento	9.7
158230	7	Sololá	713	San Lucas Tolimán	10	San Lucas Tolimán	11	Noviembre	2023-09-11T00:00:00	2024-11-08T12:00:00	7	Dirección del viento	9.66
158231	7	Sololá	713	San Lucas Tolimán	10	San Lucas Tolimán	11	Noviembre	2023-09-11T00:00:00	2024-11-08T12:00:00	1	Precipitación	0
158232	7	Sololá	713	San Lucas Tolimán	10	San Lucas Tolimán	11	Noviembre	2023-09-11T00:00:00	2024-11-08T12:00:00	8	Radiación solar	994
158233	7	Sololá	713	San Lucas Tolimán	10	San Lucas Tolimán	11	Noviembre	2023-09-11T00:00:00	2024-11-08T13:00:00	2	Temperatura media	23.2
158234	7	Sololá	713	San Lucas Tolimán	10	San Lucas Tolimán	11	Noviembre	2023-09-11T00:00:00	2024-11-08T13:00:00	4	Temperatura máxima	24.1
158235	7	Sololá	713	San Lucas Tolimán	10	San Lucas Tolimán	11	Noviembre	2023-09-11T00:00:00	2024-11-08T13:00:00	3	Temperatura mínima	22.7
158236	7	Sololá	713	San Lucas Tolimán	10	San Lucas Tolimán	11	Noviembre	2023-09-11T00:00:00	2024-11-08T13:00:00	5	Humedad	61
158237	7	Sololá	713	San Lucas Tolimán	10	San Lucas Tolimán	11	Noviembre	2023-09-11T00:00:00	2024-11-08T13:00:00	6	Velocidad del viento	11.3
158238	7	Sololá	713	San Lucas Tolimán	10	San Lucas Tolimán	11	Noviembre	2023-09-11T00:00:00	2024-11-08T13:00:00	7	Dirección del viento	11.27
158239	7	Sololá	713	San Lucas Tolimán	10	San Lucas Tolimán	11	Noviembre	2023-09-11T00:00:00	2024-11-08T13:00:00	1	Precipitación	0
158240	7	Sololá	713	San Lucas Tolimán	10	San Lucas Tolimán	11	Noviembre	2023-09-11T00:00:00	2024-11-08T13:00:00	8	Radiación solar	824
158241	7	Sololá	713	San Lucas Tolimán	10	San Lucas Tolimán	11	Noviembre	2023-09-11T00:00:00	2024-11-08T14:00:00	2	Temperatura media	22.8
158242	7	Sololá	713	San Lucas Tolimán	10	San Lucas Tolimán	11	Noviembre	2023-09-11T00:00:00	2024-11-08T14:00:00	4	Temperatura máxima	23.7
158243	7	Sololá	713	San Lucas Tolimán	10	San Lucas Tolimán	11	Noviembre	2023-09-11T00:00:00	2024-11-08T14:00:00	3	Temperatura mínima	22.8
158244	7	Sololá	713	San Lucas Tolimán	10	San Lucas Tolimán	11	Noviembre	2023-09-11T00:00:00	2024-11-08T14:00:00	5	Humedad	62
158245	7	Sololá	713	San Lucas Tolimán	10	San Lucas Tolimán	11	Noviembre	2023-09-11T00:00:00	2024-11-08T14:00:00	6	Velocidad del viento	9.7
158246	7	Sololá	713	San Lucas Tolimán	10	San Lucas Tolimán	11	Noviembre	2023-09-11T00:00:00	2024-11-08T14:00:00	7	Dirección del viento	9.66
158247	7	Sololá	713	San Lucas Tolimán	10	San Lucas Tolimán	11	Noviembre	2023-09-11T00:00:00	2024-11-08T14:00:00	1	Precipitación	0
158248	7	Sololá	713	San Lucas Tolimán	10	San Lucas Tolimán	11	Noviembre	2023-09-11T00:00:00	2024-11-08T14:00:00	8	Radiación solar	661
158249	7	Sololá	713	San Lucas Tolimán	10	San Lucas Tolimán	11	Noviembre	2023-09-11T00:00:00	2024-11-08T15:00:00	2	Temperatura media	22.1
158250	7	Sololá	713	San Lucas Tolimán	10	San Lucas Tolimán	11	Noviembre	2023-09-11T00:00:00	2024-11-08T15:00:00	4	Temperatura máxima	22.9
158251	7	Sololá	713	San Lucas Tolimán	10	San Lucas Tolimán	11	Noviembre	2023-09-11T00:00:00	2024-11-08T15:00:00	3	Temperatura mínima	21.6
158252	7	Sololá	713	San Lucas Tolimán	10	San Lucas Tolimán	11	Noviembre	2023-09-11T00:00:00	2024-11-08T15:00:00	5	Humedad	60
158253	7	Sololá	713	San Lucas Tolimán	10	San Lucas Tolimán	11	Noviembre	2023-09-11T00:00:00	2024-11-08T15:00:00	6	Velocidad del viento	9.7
158254	7	Sololá	713	San Lucas Tolimán	10	San Lucas Tolimán	11	Noviembre	2023-09-11T00:00:00	2024-11-08T15:00:00	7	Dirección del viento	9.66
158255	7	Sololá	713	San Lucas Tolimán	10	San Lucas Tolimán	11	Noviembre	2023-09-11T00:00:00	2024-11-08T15:00:00	1	Precipitación	0
158256	7	Sololá	713	San Lucas Tolimán	10	San Lucas Tolimán	11	Noviembre	2023-09-11T00:00:00	2024-11-08T15:00:00	8	Radiación solar	285
158257	7	Sololá	713	San Lucas Tolimán	10	San Lucas Tolimán	11	Noviembre	2023-09-11T00:00:00	2024-11-08T16:00:00	2	Temperatura media	22.3
158258	7	Sololá	713	San Lucas Tolimán	10	San Lucas Tolimán	11	Noviembre	2023-09-11T00:00:00	2024-11-08T16:00:00	4	Temperatura máxima	22.3
158259	7	Sololá	713	San Lucas Tolimán	10	San Lucas Tolimán	11	Noviembre	2023-09-11T00:00:00	2024-11-08T16:00:00	3	Temperatura mínima	21.8
158260	7	Sololá	713	San Lucas Tolimán	10	San Lucas Tolimán	11	Noviembre	2023-09-11T00:00:00	2024-11-08T16:00:00	5	Humedad	60
158261	7	Sololá	713	San Lucas Tolimán	10	San Lucas Tolimán	11	Noviembre	2023-09-11T00:00:00	2024-11-08T16:00:00	6	Velocidad del viento	8
158262	7	Sololá	713	San Lucas Tolimán	10	San Lucas Tolimán	11	Noviembre	2023-09-11T00:00:00	2024-11-08T16:00:00	7	Dirección del viento	8.05
158263	7	Sololá	713	San Lucas Tolimán	10	San Lucas Tolimán	11	Noviembre	2023-09-11T00:00:00	2024-11-08T16:00:00	1	Precipitación	0
158264	7	Sololá	713	San Lucas Tolimán	10	San Lucas Tolimán	11	Noviembre	2023-09-11T00:00:00	2024-11-08T16:00:00	8	Radiación solar	351
158265	7	Sololá	713	San Lucas Tolimán	10	San Lucas Tolimán	11	Noviembre	2023-09-11T00:00:00	2024-11-08T17:00:00	2	Temperatura media	20.6
158266	7	Sololá	713	San Lucas Tolimán	10	San Lucas Tolimán	11	Noviembre	2023-09-11T00:00:00	2024-11-08T17:00:00	4	Temperatura máxima	22.3
158267	7	Sololá	713	San Lucas Tolimán	10	San Lucas Tolimán	11	Noviembre	2023-09-11T00:00:00	2024-11-08T17:00:00	3	Temperatura mínima	20.6
158268	7	Sololá	713	San Lucas Tolimán	10	San Lucas Tolimán	11	Noviembre	2023-09-11T00:00:00	2024-11-08T17:00:00	5	Humedad	60
158269	7	Sololá	713	San Lucas Tolimán	10	San Lucas Tolimán	11	Noviembre	2023-09-11T00:00:00	2024-11-08T17:00:00	6	Velocidad del viento	6.4
158270	7	Sololá	713	San Lucas Tolimán	10	San Lucas Tolimán	11	Noviembre	2023-09-11T00:00:00	2024-11-08T17:00:00	7	Dirección del viento	6.44
158271	7	Sololá	713	San Lucas Tolimán	10	San Lucas Tolimán	11	Noviembre	2023-09-11T00:00:00	2024-11-08T17:00:00	1	Precipitación	0
158272	7	Sololá	713	San Lucas Tolimán	10	San Lucas Tolimán	11	Noviembre	2023-09-11T00:00:00	2024-11-08T17:00:00	8	Radiación solar	52
158273	7	Sololá	713	San Lucas Tolimán	10	San Lucas Tolimán	11	Noviembre	2023-09-11T00:00:00	2024-11-08T18:00:00	2	Temperatura media	20.2
158274	7	Sololá	713	San Lucas Tolimán	10	San Lucas Tolimán	11	Noviembre	2023-09-11T00:00:00	2024-11-08T18:00:00	4	Temperatura máxima	20.6
158275	7	Sololá	713	San Lucas Tolimán	10	San Lucas Tolimán	11	Noviembre	2023-09-11T00:00:00	2024-11-08T18:00:00	3	Temperatura mínima	20.2
158276	7	Sololá	713	San Lucas Tolimán	10	San Lucas Tolimán	11	Noviembre	2023-09-11T00:00:00	2024-11-08T18:00:00	5	Humedad	61
158277	7	Sololá	713	San Lucas Tolimán	10	San Lucas Tolimán	11	Noviembre	2023-09-11T00:00:00	2024-11-08T18:00:00	6	Velocidad del viento	6.4
158278	7	Sololá	713	San Lucas Tolimán	10	San Lucas Tolimán	11	Noviembre	2023-09-11T00:00:00	2024-11-08T18:00:00	7	Dirección del viento	6.44
158279	7	Sololá	713	San Lucas Tolimán	10	San Lucas Tolimán	11	Noviembre	2023-09-11T00:00:00	2024-11-08T18:00:00	1	Precipitación	0
158280	7	Sololá	713	San Lucas Tolimán	10	San Lucas Tolimán	11	Noviembre	2023-09-11T00:00:00	2024-11-08T18:00:00	8	Radiación solar	8
158281	7	Sololá	713	San Lucas Tolimán	10	San Lucas Tolimán	11	Noviembre	2023-09-11T00:00:00	2024-11-08T19:00:00	2	Temperatura media	19.3
158282	7	Sololá	713	San Lucas Tolimán	10	San Lucas Tolimán	11	Noviembre	2023-09-11T00:00:00	2024-11-08T19:00:00	4	Temperatura máxima	20.2
158283	7	Sololá	713	San Lucas Tolimán	10	San Lucas Tolimán	11	Noviembre	2023-09-11T00:00:00	2024-11-08T19:00:00	3	Temperatura mínima	19.3
158284	7	Sololá	713	San Lucas Tolimán	10	San Lucas Tolimán	11	Noviembre	2023-09-11T00:00:00	2024-11-08T19:00:00	5	Humedad	61
158285	7	Sololá	713	San Lucas Tolimán	10	San Lucas Tolimán	11	Noviembre	2023-09-11T00:00:00	2024-11-08T19:00:00	6	Velocidad del viento	3.2
158286	7	Sololá	713	San Lucas Tolimán	10	San Lucas Tolimán	11	Noviembre	2023-09-11T00:00:00	2024-11-08T19:00:00	7	Dirección del viento	3.22
158287	7	Sololá	713	San Lucas Tolimán	10	San Lucas Tolimán	11	Noviembre	2023-09-11T00:00:00	2024-11-08T19:00:00	1	Precipitación	0
158288	7	Sololá	713	San Lucas Tolimán	10	San Lucas Tolimán	11	Noviembre	2023-09-11T00:00:00	2024-11-08T19:00:00	8	Radiación solar	0
158289	7	Sololá	713	San Lucas Tolimán	10	San Lucas Tolimán	11	Noviembre	2023-09-11T00:00:00	2024-11-08T20:00:00	2	Temperatura media	18.2
158290	7	Sololá	713	San Lucas Tolimán	10	San Lucas Tolimán	11	Noviembre	2023-09-11T00:00:00	2024-11-08T20:00:00	4	Temperatura máxima	19.3
158291	7	Sololá	713	San Lucas Tolimán	10	San Lucas Tolimán	11	Noviembre	2023-09-11T00:00:00	2024-11-08T20:00:00	3	Temperatura mínima	18.2
158292	7	Sololá	713	San Lucas Tolimán	10	San Lucas Tolimán	11	Noviembre	2023-09-11T00:00:00	2024-11-08T20:00:00	5	Humedad	61
158293	7	Sololá	713	San Lucas Tolimán	10	San Lucas Tolimán	11	Noviembre	2023-09-11T00:00:00	2024-11-08T20:00:00	6	Velocidad del viento	4.8
158294	7	Sololá	713	San Lucas Tolimán	10	San Lucas Tolimán	11	Noviembre	2023-09-11T00:00:00	2024-11-08T20:00:00	7	Dirección del viento	4.83
158295	7	Sololá	713	San Lucas Tolimán	10	San Lucas Tolimán	11	Noviembre	2023-09-11T00:00:00	2024-11-08T20:00:00	1	Precipitación	0
158296	7	Sololá	713	San Lucas Tolimán	10	San Lucas Tolimán	11	Noviembre	2023-09-11T00:00:00	2024-11-08T20:00:00	8	Radiación solar	0
158297	7	Sololá	713	San Lucas Tolimán	10	San Lucas Tolimán	11	Noviembre	2023-09-11T00:00:00	2024-11-08T21:00:00	2	Temperatura media	18.2
158298	7	Sololá	713	San Lucas Tolimán	10	San Lucas Tolimán	11	Noviembre	2023-09-11T00:00:00	2024-11-08T21:00:00	4	Temperatura máxima	18.6
158299	7	Sololá	713	San Lucas Tolimán	10	San Lucas Tolimán	11	Noviembre	2023-09-11T00:00:00	2024-11-08T21:00:00	3	Temperatura mínima	18.2
158300	7	Sololá	713	San Lucas Tolimán	10	San Lucas Tolimán	11	Noviembre	2023-09-11T00:00:00	2024-11-08T21:00:00	5	Humedad	61
158301	7	Sololá	713	San Lucas Tolimán	10	San Lucas Tolimán	11	Noviembre	2023-09-11T00:00:00	2024-11-08T21:00:00	6	Velocidad del viento	3.2
158302	7	Sololá	713	San Lucas Tolimán	10	San Lucas Tolimán	11	Noviembre	2023-09-11T00:00:00	2024-11-08T21:00:00	7	Dirección del viento	3.22
158303	7	Sololá	713	San Lucas Tolimán	10	San Lucas Tolimán	11	Noviembre	2023-09-11T00:00:00	2024-11-08T21:00:00	1	Precipitación	0
158304	7	Sololá	713	San Lucas Tolimán	10	San Lucas Tolimán	11	Noviembre	2023-09-11T00:00:00	2024-11-08T21:00:00	8	Radiación solar	0
158305	7	Sololá	713	San Lucas Tolimán	10	San Lucas Tolimán	11	Noviembre	2023-09-11T00:00:00	2024-11-08T22:00:00	2	Temperatura media	17.6
158306	7	Sololá	713	San Lucas Tolimán	10	San Lucas Tolimán	11	Noviembre	2023-09-11T00:00:00	2024-11-08T22:00:00	4	Temperatura máxima	18.2
158307	7	Sololá	713	San Lucas Tolimán	10	San Lucas Tolimán	11	Noviembre	2023-09-11T00:00:00	2024-11-08T22:00:00	3	Temperatura mínima	17.5
158308	7	Sololá	713	San Lucas Tolimán	10	San Lucas Tolimán	11	Noviembre	2023-09-11T00:00:00	2024-11-08T22:00:00	5	Humedad	59
158309	7	Sololá	713	San Lucas Tolimán	10	San Lucas Tolimán	11	Noviembre	2023-09-11T00:00:00	2024-11-08T22:00:00	6	Velocidad del viento	3.2
158310	7	Sololá	713	San Lucas Tolimán	10	San Lucas Tolimán	11	Noviembre	2023-09-11T00:00:00	2024-11-08T22:00:00	7	Dirección del viento	3.22
158311	7	Sololá	713	San Lucas Tolimán	10	San Lucas Tolimán	11	Noviembre	2023-09-11T00:00:00	2024-11-08T22:00:00	1	Precipitación	0
158312	7	Sololá	713	San Lucas Tolimán	10	San Lucas Tolimán	11	Noviembre	2023-09-11T00:00:00	2024-11-08T22:00:00	8	Radiación solar	0
158313	7	Sololá	713	San Lucas Tolimán	10	San Lucas Tolimán	11	Noviembre	2023-09-11T00:00:00	2024-11-08T23:00:00	2	Temperatura media	16.7
158314	7	Sololá	713	San Lucas Tolimán	10	San Lucas Tolimán	11	Noviembre	2023-09-11T00:00:00	2024-11-08T23:00:00	4	Temperatura máxima	17.5
158315	7	Sololá	713	San Lucas Tolimán	10	San Lucas Tolimán	11	Noviembre	2023-09-11T00:00:00	2024-11-08T23:00:00	3	Temperatura mínima	16.7
158316	7	Sololá	713	San Lucas Tolimán	10	San Lucas Tolimán	11	Noviembre	2023-09-11T00:00:00	2024-11-08T23:00:00	5	Humedad	60
158317	7	Sololá	713	San Lucas Tolimán	10	San Lucas Tolimán	11	Noviembre	2023-09-11T00:00:00	2024-11-08T23:00:00	6	Velocidad del viento	3.2
158318	7	Sololá	713	San Lucas Tolimán	10	San Lucas Tolimán	11	Noviembre	2023-09-11T00:00:00	2024-11-08T23:00:00	7	Dirección del viento	3.22
158319	7	Sololá	713	San Lucas Tolimán	10	San Lucas Tolimán	11	Noviembre	2023-09-11T00:00:00	2024-11-08T23:00:00	1	Precipitación	0
158320	7	Sololá	713	San Lucas Tolimán	10	San Lucas Tolimán	11	Noviembre	2023-09-11T00:00:00	2024-11-08T23:00:00	8	Radiación solar	0
158321	7	Sololá	713	San Lucas Tolimán	10	San Lucas Tolimán	11	Noviembre	2023-10-11T00:00:00	2024-11-08T00:00:00	2	Temperatura media	15.7
158322	7	Sololá	713	San Lucas Tolimán	10	San Lucas Tolimán	11	Noviembre	2023-10-11T00:00:00	2024-11-08T00:00:00	4	Temperatura máxima	16.7
158323	7	Sololá	713	San Lucas Tolimán	10	San Lucas Tolimán	11	Noviembre	2023-10-11T00:00:00	2024-11-08T00:00:00	3	Temperatura mínima	15.7
158324	7	Sololá	713	San Lucas Tolimán	10	San Lucas Tolimán	11	Noviembre	2023-10-11T00:00:00	2024-11-08T00:00:00	5	Humedad	61
158325	7	Sololá	713	San Lucas Tolimán	10	San Lucas Tolimán	11	Noviembre	2023-10-11T00:00:00	2024-11-08T00:00:00	6	Velocidad del viento	0
158326	7	Sololá	713	San Lucas Tolimán	10	San Lucas Tolimán	11	Noviembre	2023-10-11T00:00:00	2024-11-08T00:00:00	7	Dirección del viento	0
158327	7	Sololá	713	San Lucas Tolimán	10	San Lucas Tolimán	11	Noviembre	2023-10-11T00:00:00	2024-11-08T00:00:00	1	Precipitación	0
158328	7	Sololá	713	San Lucas Tolimán	10	San Lucas Tolimán	11	Noviembre	2023-10-11T00:00:00	2024-11-08T00:00:00	8	Radiación solar	0
158329	7	Sololá	713	San Lucas Tolimán	10	San Lucas Tolimán	11	Noviembre	2023-10-11T00:00:00	2024-11-08T01:00:00	2	Temperatura media	15.4
158330	7	Sololá	713	San Lucas Tolimán	10	San Lucas Tolimán	11	Noviembre	2023-10-11T00:00:00	2024-11-08T01:00:00	4	Temperatura máxima	15.8
158331	7	Sololá	713	San Lucas Tolimán	10	San Lucas Tolimán	11	Noviembre	2023-10-11T00:00:00	2024-11-08T01:00:00	3	Temperatura mínima	15.3
158332	7	Sololá	713	San Lucas Tolimán	10	San Lucas Tolimán	11	Noviembre	2023-10-11T00:00:00	2024-11-08T01:00:00	5	Humedad	60
158333	7	Sololá	713	San Lucas Tolimán	10	San Lucas Tolimán	11	Noviembre	2023-10-11T00:00:00	2024-11-08T01:00:00	6	Velocidad del viento	0
158334	7	Sololá	713	San Lucas Tolimán	10	San Lucas Tolimán	11	Noviembre	2023-10-11T00:00:00	2024-11-08T01:00:00	7	Dirección del viento	0
158335	7	Sololá	713	San Lucas Tolimán	10	San Lucas Tolimán	11	Noviembre	2023-10-11T00:00:00	2024-11-08T01:00:00	1	Precipitación	0
158336	7	Sololá	713	San Lucas Tolimán	10	San Lucas Tolimán	11	Noviembre	2023-10-11T00:00:00	2024-11-08T01:00:00	8	Radiación solar	0
158337	7	Sololá	713	San Lucas Tolimán	10	San Lucas Tolimán	11	Noviembre	2023-10-11T00:00:00	2024-11-08T02:00:00	2	Temperatura media	16.3
158338	7	Sololá	713	San Lucas Tolimán	10	San Lucas Tolimán	11	Noviembre	2023-10-11T00:00:00	2024-11-08T02:00:00	4	Temperatura máxima	16.6
158339	7	Sololá	713	San Lucas Tolimán	10	San Lucas Tolimán	11	Noviembre	2023-10-11T00:00:00	2024-11-08T02:00:00	3	Temperatura mínima	15.3
158340	7	Sololá	713	San Lucas Tolimán	10	San Lucas Tolimán	11	Noviembre	2023-10-11T00:00:00	2024-11-08T02:00:00	5	Humedad	58
158341	7	Sololá	713	San Lucas Tolimán	10	San Lucas Tolimán	11	Noviembre	2023-10-11T00:00:00	2024-11-08T02:00:00	6	Velocidad del viento	1.6
158342	7	Sololá	713	San Lucas Tolimán	10	San Lucas Tolimán	11	Noviembre	2023-10-11T00:00:00	2024-11-08T02:00:00	7	Dirección del viento	1.61
158343	7	Sololá	713	San Lucas Tolimán	10	San Lucas Tolimán	11	Noviembre	2023-10-11T00:00:00	2024-11-08T02:00:00	1	Precipitación	0
158344	7	Sololá	713	San Lucas Tolimán	10	San Lucas Tolimán	11	Noviembre	2023-10-11T00:00:00	2024-11-08T02:00:00	8	Radiación solar	0
158345	7	Sololá	713	San Lucas Tolimán	10	San Lucas Tolimán	11	Noviembre	2023-10-11T00:00:00	2024-11-08T03:00:00	2	Temperatura media	16.4
158346	7	Sololá	713	San Lucas Tolimán	10	San Lucas Tolimán	11	Noviembre	2023-10-11T00:00:00	2024-11-08T03:00:00	4	Temperatura máxima	16.6
158347	7	Sololá	713	San Lucas Tolimán	10	San Lucas Tolimán	11	Noviembre	2023-10-11T00:00:00	2024-11-08T03:00:00	3	Temperatura mínima	15.9
158348	7	Sololá	713	San Lucas Tolimán	10	San Lucas Tolimán	11	Noviembre	2023-10-11T00:00:00	2024-11-08T03:00:00	5	Humedad	58
158349	7	Sololá	713	San Lucas Tolimán	10	San Lucas Tolimán	11	Noviembre	2023-10-11T00:00:00	2024-11-08T03:00:00	6	Velocidad del viento	1.6
158350	7	Sololá	713	San Lucas Tolimán	10	San Lucas Tolimán	11	Noviembre	2023-10-11T00:00:00	2024-11-08T03:00:00	7	Dirección del viento	1.61
158351	7	Sololá	713	San Lucas Tolimán	10	San Lucas Tolimán	11	Noviembre	2023-10-11T00:00:00	2024-11-08T03:00:00	1	Precipitación	0
158352	7	Sololá	713	San Lucas Tolimán	10	San Lucas Tolimán	11	Noviembre	2023-10-11T00:00:00	2024-11-08T03:00:00	8	Radiación solar	0
158353	7	Sololá	713	San Lucas Tolimán	10	San Lucas Tolimán	11	Noviembre	2023-10-11T00:00:00	2024-11-08T04:00:00	2	Temperatura media	15.9
158354	7	Sololá	713	San Lucas Tolimán	10	San Lucas Tolimán	11	Noviembre	2023-10-11T00:00:00	2024-11-08T04:00:00	4	Temperatura máxima	16.6
158355	7	Sololá	713	San Lucas Tolimán	10	San Lucas Tolimán	11	Noviembre	2023-10-11T00:00:00	2024-11-08T04:00:00	3	Temperatura mínima	15.8
158356	7	Sololá	713	San Lucas Tolimán	10	San Lucas Tolimán	11	Noviembre	2023-10-11T00:00:00	2024-11-08T04:00:00	5	Humedad	59
158357	7	Sololá	713	San Lucas Tolimán	10	San Lucas Tolimán	11	Noviembre	2023-10-11T00:00:00	2024-11-08T04:00:00	6	Velocidad del viento	1.6
158358	7	Sololá	713	San Lucas Tolimán	10	San Lucas Tolimán	11	Noviembre	2023-10-11T00:00:00	2024-11-08T04:00:00	7	Dirección del viento	1.61
158359	7	Sololá	713	San Lucas Tolimán	10	San Lucas Tolimán	11	Noviembre	2023-10-11T00:00:00	2024-11-08T04:00:00	1	Precipitación	0
158360	7	Sololá	713	San Lucas Tolimán	10	San Lucas Tolimán	11	Noviembre	2023-10-11T00:00:00	2024-11-08T04:00:00	8	Radiación solar	0
158361	7	Sololá	713	San Lucas Tolimán	10	San Lucas Tolimán	11	Noviembre	2023-10-11T00:00:00	2024-11-08T05:00:00	2	Temperatura media	15.8
158362	7	Sololá	713	San Lucas Tolimán	10	San Lucas Tolimán	11	Noviembre	2023-10-11T00:00:00	2024-11-08T05:00:00	4	Temperatura máxima	16.3
158363	7	Sololá	713	San Lucas Tolimán	10	San Lucas Tolimán	11	Noviembre	2023-10-11T00:00:00	2024-11-08T05:00:00	3	Temperatura mínima	15.8
158364	7	Sololá	713	San Lucas Tolimán	10	San Lucas Tolimán	11	Noviembre	2023-10-11T00:00:00	2024-11-08T05:00:00	5	Humedad	58
158365	7	Sololá	713	San Lucas Tolimán	10	San Lucas Tolimán	11	Noviembre	2023-10-11T00:00:00	2024-11-08T05:00:00	6	Velocidad del viento	1.6
158366	7	Sololá	713	San Lucas Tolimán	10	San Lucas Tolimán	11	Noviembre	2023-10-11T00:00:00	2024-11-08T05:00:00	7	Dirección del viento	1.61
158367	7	Sololá	713	San Lucas Tolimán	10	San Lucas Tolimán	11	Noviembre	2023-10-11T00:00:00	2024-11-08T05:00:00	1	Precipitación	0
158368	7	Sololá	713	San Lucas Tolimán	10	San Lucas Tolimán	11	Noviembre	2023-10-11T00:00:00	2024-11-08T05:00:00	8	Radiación solar	0
158369	7	Sololá	713	San Lucas Tolimán	10	San Lucas Tolimán	11	Noviembre	2023-10-11T00:00:00	2024-11-08T06:00:00	2	Temperatura media	15.3
158370	7	Sololá	713	San Lucas Tolimán	10	San Lucas Tolimán	11	Noviembre	2023-10-11T00:00:00	2024-11-08T06:00:00	4	Temperatura máxima	16.2
158371	7	Sololá	713	San Lucas Tolimán	10	San Lucas Tolimán	11	Noviembre	2023-10-11T00:00:00	2024-11-08T06:00:00	3	Temperatura mínima	15.3
158372	7	Sololá	713	San Lucas Tolimán	10	San Lucas Tolimán	11	Noviembre	2023-10-11T00:00:00	2024-11-08T06:00:00	5	Humedad	60
158373	7	Sololá	713	San Lucas Tolimán	10	San Lucas Tolimán	11	Noviembre	2023-10-11T00:00:00	2024-11-08T06:00:00	6	Velocidad del viento	1.6
158374	7	Sololá	713	San Lucas Tolimán	10	San Lucas Tolimán	11	Noviembre	2023-10-11T00:00:00	2024-11-08T06:00:00	7	Dirección del viento	1.61
158375	7	Sololá	713	San Lucas Tolimán	10	San Lucas Tolimán	11	Noviembre	2023-10-11T00:00:00	2024-11-08T06:00:00	1	Precipitación	0
158376	7	Sololá	713	San Lucas Tolimán	10	San Lucas Tolimán	11	Noviembre	2023-10-11T00:00:00	2024-11-08T06:00:00	8	Radiación solar	0
158377	7	Sololá	713	San Lucas Tolimán	10	San Lucas Tolimán	11	Noviembre	2023-10-11T00:00:00	2024-11-08T07:00:00	2	Temperatura media	15.6
158378	7	Sololá	713	San Lucas Tolimán	10	San Lucas Tolimán	11	Noviembre	2023-10-11T00:00:00	2024-11-08T07:00:00	4	Temperatura máxima	15.8
158379	7	Sololá	713	San Lucas Tolimán	10	San Lucas Tolimán	11	Noviembre	2023-10-11T00:00:00	2024-11-08T07:00:00	3	Temperatura mínima	15.2
158380	7	Sololá	713	San Lucas Tolimán	10	San Lucas Tolimán	11	Noviembre	2023-10-11T00:00:00	2024-11-08T07:00:00	5	Humedad	59
158381	7	Sololá	713	San Lucas Tolimán	10	San Lucas Tolimán	11	Noviembre	2023-10-11T00:00:00	2024-11-08T07:00:00	6	Velocidad del viento	1.6
158382	7	Sololá	713	San Lucas Tolimán	10	San Lucas Tolimán	11	Noviembre	2023-10-11T00:00:00	2024-11-08T07:00:00	7	Dirección del viento	1.61
158383	7	Sololá	713	San Lucas Tolimán	10	San Lucas Tolimán	11	Noviembre	2023-10-11T00:00:00	2024-11-08T07:00:00	1	Precipitación	0
158384	7	Sololá	713	San Lucas Tolimán	10	San Lucas Tolimán	11	Noviembre	2023-10-11T00:00:00	2024-11-08T07:00:00	8	Radiación solar	15
158385	7	Sololá	713	San Lucas Tolimán	10	San Lucas Tolimán	11	Noviembre	2023-10-11T00:00:00	2024-11-08T08:00:00	2	Temperatura media	17.3
158386	7	Sololá	713	San Lucas Tolimán	10	San Lucas Tolimán	11	Noviembre	2023-10-11T00:00:00	2024-11-08T08:00:00	4	Temperatura máxima	17.3
158387	7	Sololá	713	San Lucas Tolimán	10	San Lucas Tolimán	11	Noviembre	2023-10-11T00:00:00	2024-11-08T08:00:00	3	Temperatura mínima	15.5
158388	7	Sololá	713	San Lucas Tolimán	10	San Lucas Tolimán	11	Noviembre	2023-10-11T00:00:00	2024-11-08T08:00:00	5	Humedad	58
158389	7	Sololá	713	San Lucas Tolimán	10	San Lucas Tolimán	11	Noviembre	2023-10-11T00:00:00	2024-11-08T08:00:00	6	Velocidad del viento	3.2
158390	7	Sololá	713	San Lucas Tolimán	10	San Lucas Tolimán	11	Noviembre	2023-10-11T00:00:00	2024-11-08T08:00:00	7	Dirección del viento	3.22
158391	7	Sololá	713	San Lucas Tolimán	10	San Lucas Tolimán	11	Noviembre	2023-10-11T00:00:00	2024-11-08T08:00:00	1	Precipitación	0
158392	7	Sololá	713	San Lucas Tolimán	10	San Lucas Tolimán	11	Noviembre	2023-10-11T00:00:00	2024-11-08T08:00:00	8	Radiación solar	89
158393	7	Sololá	713	San Lucas Tolimán	10	San Lucas Tolimán	11	Noviembre	2023-10-11T00:00:00	2024-11-08T09:00:00	2	Temperatura media	19.1
158394	7	Sololá	713	San Lucas Tolimán	10	San Lucas Tolimán	11	Noviembre	2023-10-11T00:00:00	2024-11-08T09:00:00	4	Temperatura máxima	19.1
158395	7	Sololá	713	San Lucas Tolimán	10	San Lucas Tolimán	11	Noviembre	2023-10-11T00:00:00	2024-11-08T09:00:00	3	Temperatura mínima	17.3
158396	7	Sololá	713	San Lucas Tolimán	10	San Lucas Tolimán	11	Noviembre	2023-10-11T00:00:00	2024-11-08T09:00:00	5	Humedad	53
158397	7	Sololá	713	San Lucas Tolimán	10	San Lucas Tolimán	11	Noviembre	2023-10-11T00:00:00	2024-11-08T09:00:00	6	Velocidad del viento	6.4
158398	7	Sololá	713	San Lucas Tolimán	10	San Lucas Tolimán	11	Noviembre	2023-10-11T00:00:00	2024-11-08T09:00:00	7	Dirección del viento	6.44
158399	7	Sololá	713	San Lucas Tolimán	10	San Lucas Tolimán	11	Noviembre	2023-10-11T00:00:00	2024-11-08T09:00:00	1	Precipitación	0
158400	7	Sololá	713	San Lucas Tolimán	10	San Lucas Tolimán	11	Noviembre	2023-10-11T00:00:00	2024-11-08T09:00:00	8	Radiación solar	425
158401	7	Sololá	713	San Lucas Tolimán	10	San Lucas Tolimán	11	Noviembre	2023-10-11T00:00:00	2024-11-08T10:00:00	2	Temperatura media	20.9
158402	7	Sololá	713	San Lucas Tolimán	10	San Lucas Tolimán	11	Noviembre	2023-10-11T00:00:00	2024-11-08T10:00:00	4	Temperatura máxima	21.1
158403	7	Sololá	713	San Lucas Tolimán	10	San Lucas Tolimán	11	Noviembre	2023-10-11T00:00:00	2024-11-08T10:00:00	3	Temperatura mínima	19
158404	7	Sololá	713	San Lucas Tolimán	10	San Lucas Tolimán	11	Noviembre	2023-10-11T00:00:00	2024-11-08T10:00:00	5	Humedad	50
158405	7	Sololá	713	San Lucas Tolimán	10	San Lucas Tolimán	11	Noviembre	2023-10-11T00:00:00	2024-11-08T10:00:00	6	Velocidad del viento	6.4
158406	7	Sololá	713	San Lucas Tolimán	10	San Lucas Tolimán	11	Noviembre	2023-10-11T00:00:00	2024-11-08T10:00:00	7	Dirección del viento	6.44
158407	7	Sololá	713	San Lucas Tolimán	10	San Lucas Tolimán	11	Noviembre	2023-10-11T00:00:00	2024-11-08T10:00:00	1	Precipitación	0
158408	7	Sololá	713	San Lucas Tolimán	10	San Lucas Tolimán	11	Noviembre	2023-10-11T00:00:00	2024-11-08T10:00:00	8	Radiación solar	719
158409	7	Sololá	713	San Lucas Tolimán	10	San Lucas Tolimán	11	Noviembre	2023-10-11T00:00:00	2024-11-08T11:00:00	2	Temperatura media	22.1
158410	7	Sololá	713	San Lucas Tolimán	10	San Lucas Tolimán	11	Noviembre	2023-10-11T00:00:00	2024-11-08T11:00:00	4	Temperatura máxima	22.1
158411	7	Sololá	713	San Lucas Tolimán	10	San Lucas Tolimán	11	Noviembre	2023-10-11T00:00:00	2024-11-08T11:00:00	3	Temperatura mínima	20.8
158412	7	Sololá	713	San Lucas Tolimán	10	San Lucas Tolimán	11	Noviembre	2023-10-11T00:00:00	2024-11-08T11:00:00	5	Humedad	48
158413	7	Sololá	713	San Lucas Tolimán	10	San Lucas Tolimán	11	Noviembre	2023-10-11T00:00:00	2024-11-08T11:00:00	6	Velocidad del viento	4.8
158414	7	Sololá	713	San Lucas Tolimán	10	San Lucas Tolimán	11	Noviembre	2023-10-11T00:00:00	2024-11-08T11:00:00	7	Dirección del viento	4.83
158415	7	Sololá	713	San Lucas Tolimán	10	San Lucas Tolimán	11	Noviembre	2023-10-11T00:00:00	2024-11-08T11:00:00	1	Precipitación	0
158416	7	Sololá	713	San Lucas Tolimán	10	San Lucas Tolimán	11	Noviembre	2023-10-11T00:00:00	2024-11-08T11:00:00	8	Radiación solar	837
158417	7	Sololá	713	San Lucas Tolimán	10	San Lucas Tolimán	11	Noviembre	2023-10-11T00:00:00	2024-11-08T12:00:00	2	Temperatura media	23.2
158418	7	Sololá	713	San Lucas Tolimán	10	San Lucas Tolimán	11	Noviembre	2023-10-11T00:00:00	2024-11-08T12:00:00	4	Temperatura máxima	24.1
158419	7	Sololá	713	San Lucas Tolimán	10	San Lucas Tolimán	11	Noviembre	2023-10-11T00:00:00	2024-11-08T12:00:00	3	Temperatura mínima	22.1
158420	7	Sololá	713	San Lucas Tolimán	10	San Lucas Tolimán	11	Noviembre	2023-10-11T00:00:00	2024-11-08T12:00:00	5	Humedad	57
158421	7	Sololá	713	San Lucas Tolimán	10	San Lucas Tolimán	11	Noviembre	2023-10-11T00:00:00	2024-11-08T12:00:00	6	Velocidad del viento	9.7
158422	7	Sololá	713	San Lucas Tolimán	10	San Lucas Tolimán	11	Noviembre	2023-10-11T00:00:00	2024-11-08T12:00:00	7	Dirección del viento	9.66
158423	7	Sololá	713	San Lucas Tolimán	10	San Lucas Tolimán	11	Noviembre	2023-10-11T00:00:00	2024-11-08T12:00:00	1	Precipitación	0
158424	7	Sololá	713	San Lucas Tolimán	10	San Lucas Tolimán	11	Noviembre	2023-10-11T00:00:00	2024-11-08T12:00:00	8	Radiación solar	927
158425	7	Sololá	713	San Lucas Tolimán	10	San Lucas Tolimán	11	Noviembre	2023-10-11T00:00:00	2024-11-08T13:00:00	2	Temperatura media	24.3
158426	7	Sololá	713	San Lucas Tolimán	10	San Lucas Tolimán	11	Noviembre	2023-10-11T00:00:00	2024-11-08T13:00:00	4	Temperatura máxima	24.3
158427	7	Sololá	713	San Lucas Tolimán	10	San Lucas Tolimán	11	Noviembre	2023-10-11T00:00:00	2024-11-08T13:00:00	3	Temperatura mínima	23.1
158428	7	Sololá	713	San Lucas Tolimán	10	San Lucas Tolimán	11	Noviembre	2023-10-11T00:00:00	2024-11-08T13:00:00	5	Humedad	53
158429	7	Sololá	713	San Lucas Tolimán	10	San Lucas Tolimán	11	Noviembre	2023-10-11T00:00:00	2024-11-08T13:00:00	6	Velocidad del viento	11.3
158430	7	Sololá	713	San Lucas Tolimán	10	San Lucas Tolimán	11	Noviembre	2023-10-11T00:00:00	2024-11-08T13:00:00	7	Dirección del viento	11.27
158431	7	Sololá	713	San Lucas Tolimán	10	San Lucas Tolimán	11	Noviembre	2023-10-11T00:00:00	2024-11-08T13:00:00	1	Precipitación	0
158432	7	Sololá	713	San Lucas Tolimán	10	San Lucas Tolimán	11	Noviembre	2023-10-11T00:00:00	2024-11-08T13:00:00	8	Radiación solar	900
158433	7	Sololá	713	San Lucas Tolimán	10	San Lucas Tolimán	11	Noviembre	2023-10-11T00:00:00	2024-11-08T14:00:00	2	Temperatura media	24.2
158434	7	Sololá	713	San Lucas Tolimán	10	San Lucas Tolimán	11	Noviembre	2023-10-11T00:00:00	2024-11-08T14:00:00	4	Temperatura máxima	24.4
158435	7	Sololá	713	San Lucas Tolimán	10	San Lucas Tolimán	11	Noviembre	2023-10-11T00:00:00	2024-11-08T14:00:00	3	Temperatura mínima	23.8
158436	7	Sololá	713	San Lucas Tolimán	10	San Lucas Tolimán	11	Noviembre	2023-10-11T00:00:00	2024-11-08T14:00:00	5	Humedad	57
158437	7	Sololá	713	San Lucas Tolimán	10	San Lucas Tolimán	11	Noviembre	2023-10-11T00:00:00	2024-11-08T14:00:00	6	Velocidad del viento	11.3
158438	7	Sololá	713	San Lucas Tolimán	10	San Lucas Tolimán	11	Noviembre	2023-10-11T00:00:00	2024-11-08T14:00:00	7	Dirección del viento	11.27
158439	7	Sololá	713	San Lucas Tolimán	10	San Lucas Tolimán	11	Noviembre	2023-10-11T00:00:00	2024-11-08T14:00:00	1	Precipitación	0
158440	7	Sololá	713	San Lucas Tolimán	10	San Lucas Tolimán	11	Noviembre	2023-10-11T00:00:00	2024-11-08T14:00:00	8	Radiación solar	807
158441	7	Sololá	713	San Lucas Tolimán	10	San Lucas Tolimán	11	Noviembre	2023-10-11T00:00:00	2024-11-08T15:00:00	2	Temperatura media	22.9
158442	7	Sololá	713	San Lucas Tolimán	10	San Lucas Tolimán	11	Noviembre	2023-10-11T00:00:00	2024-11-08T15:00:00	4	Temperatura máxima	24.2
158443	7	Sololá	713	San Lucas Tolimán	10	San Lucas Tolimán	11	Noviembre	2023-10-11T00:00:00	2024-11-08T15:00:00	3	Temperatura mínima	22.6
158444	7	Sololá	713	San Lucas Tolimán	10	San Lucas Tolimán	11	Noviembre	2023-10-11T00:00:00	2024-11-08T15:00:00	5	Humedad	61
158445	7	Sololá	713	San Lucas Tolimán	10	San Lucas Tolimán	11	Noviembre	2023-10-11T00:00:00	2024-11-08T15:00:00	6	Velocidad del viento	11.3
158446	7	Sololá	713	San Lucas Tolimán	10	San Lucas Tolimán	11	Noviembre	2023-10-11T00:00:00	2024-11-08T15:00:00	7	Dirección del viento	11.27
158447	7	Sololá	713	San Lucas Tolimán	10	San Lucas Tolimán	11	Noviembre	2023-10-11T00:00:00	2024-11-08T15:00:00	1	Precipitación	0
158448	7	Sololá	713	San Lucas Tolimán	10	San Lucas Tolimán	11	Noviembre	2023-10-11T00:00:00	2024-11-08T15:00:00	8	Radiación solar	636
158449	7	Sololá	713	San Lucas Tolimán	10	San Lucas Tolimán	11	Noviembre	2023-10-11T00:00:00	2024-11-08T16:00:00	2	Temperatura media	22.2
158450	7	Sololá	713	San Lucas Tolimán	10	San Lucas Tolimán	11	Noviembre	2023-10-11T00:00:00	2024-11-08T16:00:00	4	Temperatura máxima	23.3
158451	7	Sololá	713	San Lucas Tolimán	10	San Lucas Tolimán	11	Noviembre	2023-10-11T00:00:00	2024-11-08T16:00:00	3	Temperatura mínima	22.2
158452	7	Sololá	713	San Lucas Tolimán	10	San Lucas Tolimán	11	Noviembre	2023-10-11T00:00:00	2024-11-08T16:00:00	5	Humedad	63
158453	7	Sololá	713	San Lucas Tolimán	10	San Lucas Tolimán	11	Noviembre	2023-10-11T00:00:00	2024-11-08T16:00:00	6	Velocidad del viento	11.3
158454	7	Sololá	713	San Lucas Tolimán	10	San Lucas Tolimán	11	Noviembre	2023-10-11T00:00:00	2024-11-08T16:00:00	7	Dirección del viento	11.27
158455	7	Sololá	713	San Lucas Tolimán	10	San Lucas Tolimán	11	Noviembre	2023-10-11T00:00:00	2024-11-08T16:00:00	1	Precipitación	0
158456	7	Sololá	713	San Lucas Tolimán	10	San Lucas Tolimán	11	Noviembre	2023-10-11T00:00:00	2024-11-08T16:00:00	8	Radiación solar	393
158457	7	Sololá	713	San Lucas Tolimán	10	San Lucas Tolimán	11	Noviembre	2023-10-11T00:00:00	2024-11-08T17:00:00	2	Temperatura media	20.6
158458	7	Sololá	713	San Lucas Tolimán	10	San Lucas Tolimán	11	Noviembre	2023-10-11T00:00:00	2024-11-08T17:00:00	4	Temperatura máxima	22.3
158459	7	Sololá	713	San Lucas Tolimán	10	San Lucas Tolimán	11	Noviembre	2023-10-11T00:00:00	2024-11-08T17:00:00	3	Temperatura mínima	20.6
158460	7	Sololá	713	San Lucas Tolimán	10	San Lucas Tolimán	11	Noviembre	2023-10-11T00:00:00	2024-11-08T17:00:00	5	Humedad	61
158461	7	Sololá	713	San Lucas Tolimán	10	San Lucas Tolimán	11	Noviembre	2023-10-11T00:00:00	2024-11-08T17:00:00	6	Velocidad del viento	9.7
158462	7	Sololá	713	San Lucas Tolimán	10	San Lucas Tolimán	11	Noviembre	2023-10-11T00:00:00	2024-11-08T17:00:00	7	Dirección del viento	9.66
158463	7	Sololá	713	San Lucas Tolimán	10	San Lucas Tolimán	11	Noviembre	2023-10-11T00:00:00	2024-11-08T17:00:00	1	Precipitación	0
158464	7	Sololá	713	San Lucas Tolimán	10	San Lucas Tolimán	11	Noviembre	2023-10-11T00:00:00	2024-11-08T17:00:00	8	Radiación solar	72
158465	7	Sololá	713	San Lucas Tolimán	10	San Lucas Tolimán	11	Noviembre	2023-10-11T00:00:00	2024-11-08T18:00:00	2	Temperatura media	20.1
158466	7	Sololá	713	San Lucas Tolimán	10	San Lucas Tolimán	11	Noviembre	2023-10-11T00:00:00	2024-11-08T18:00:00	4	Temperatura máxima	20.6
158467	7	Sololá	713	San Lucas Tolimán	10	San Lucas Tolimán	11	Noviembre	2023-10-11T00:00:00	2024-11-08T18:00:00	3	Temperatura mínima	20.1
158468	7	Sololá	713	San Lucas Tolimán	10	San Lucas Tolimán	11	Noviembre	2023-10-11T00:00:00	2024-11-08T18:00:00	5	Humedad	60
158469	7	Sololá	713	San Lucas Tolimán	10	San Lucas Tolimán	11	Noviembre	2023-10-11T00:00:00	2024-11-08T18:00:00	6	Velocidad del viento	3.2
158470	7	Sololá	713	San Lucas Tolimán	10	San Lucas Tolimán	11	Noviembre	2023-10-11T00:00:00	2024-11-08T18:00:00	7	Dirección del viento	3.22
158471	7	Sololá	713	San Lucas Tolimán	10	San Lucas Tolimán	11	Noviembre	2023-10-11T00:00:00	2024-11-08T18:00:00	1	Precipitación	0
158472	7	Sololá	713	San Lucas Tolimán	10	San Lucas Tolimán	11	Noviembre	2023-10-11T00:00:00	2024-11-08T18:00:00	8	Radiación solar	9
158473	7	Sololá	713	San Lucas Tolimán	10	San Lucas Tolimán	11	Noviembre	2023-10-11T00:00:00	2024-11-08T19:00:00	2	Temperatura media	20.9
158474	7	Sololá	713	San Lucas Tolimán	10	San Lucas Tolimán	11	Noviembre	2023-10-11T00:00:00	2024-11-08T19:00:00	4	Temperatura máxima	21.7
158475	7	Sololá	713	San Lucas Tolimán	10	San Lucas Tolimán	11	Noviembre	2023-10-11T00:00:00	2024-11-08T19:00:00	3	Temperatura mínima	19.6
158476	7	Sololá	713	San Lucas Tolimán	10	San Lucas Tolimán	11	Noviembre	2023-10-11T00:00:00	2024-11-08T19:00:00	5	Humedad	56
158477	7	Sololá	713	San Lucas Tolimán	10	San Lucas Tolimán	11	Noviembre	2023-10-11T00:00:00	2024-11-08T19:00:00	6	Velocidad del viento	3.2
158478	7	Sololá	713	San Lucas Tolimán	10	San Lucas Tolimán	11	Noviembre	2023-10-11T00:00:00	2024-11-08T19:00:00	7	Dirección del viento	3.22
158479	7	Sololá	713	San Lucas Tolimán	10	San Lucas Tolimán	11	Noviembre	2023-10-11T00:00:00	2024-11-08T19:00:00	1	Precipitación	0
158480	7	Sololá	713	San Lucas Tolimán	10	San Lucas Tolimán	11	Noviembre	2023-10-11T00:00:00	2024-11-08T19:00:00	8	Radiación solar	0
158481	7	Sololá	713	San Lucas Tolimán	10	San Lucas Tolimán	11	Noviembre	2023-10-11T00:00:00	2024-11-08T20:00:00	2	Temperatura media	19.7
158482	7	Sololá	713	San Lucas Tolimán	10	San Lucas Tolimán	11	Noviembre	2023-10-11T00:00:00	2024-11-08T20:00:00	4	Temperatura máxima	21.2
158483	7	Sololá	713	San Lucas Tolimán	10	San Lucas Tolimán	11	Noviembre	2023-10-11T00:00:00	2024-11-08T20:00:00	3	Temperatura mínima	19.7
158484	7	Sololá	713	San Lucas Tolimán	10	San Lucas Tolimán	11	Noviembre	2023-10-11T00:00:00	2024-11-08T20:00:00	5	Humedad	61
158485	7	Sololá	713	San Lucas Tolimán	10	San Lucas Tolimán	11	Noviembre	2023-10-11T00:00:00	2024-11-08T20:00:00	6	Velocidad del viento	1.6
158486	7	Sololá	713	San Lucas Tolimán	10	San Lucas Tolimán	11	Noviembre	2023-10-11T00:00:00	2024-11-08T20:00:00	7	Dirección del viento	1.61
158487	7	Sololá	713	San Lucas Tolimán	10	San Lucas Tolimán	11	Noviembre	2023-10-11T00:00:00	2024-11-08T20:00:00	1	Precipitación	0
158488	7	Sololá	713	San Lucas Tolimán	10	San Lucas Tolimán	11	Noviembre	2023-10-11T00:00:00	2024-11-08T20:00:00	8	Radiación solar	0
158489	7	Sololá	713	San Lucas Tolimán	10	San Lucas Tolimán	11	Noviembre	2023-10-11T00:00:00	2024-11-08T21:00:00	2	Temperatura media	19.3
158490	7	Sololá	713	San Lucas Tolimán	10	San Lucas Tolimán	11	Noviembre	2023-10-11T00:00:00	2024-11-08T21:00:00	4	Temperatura máxima	19.7
158491	7	Sololá	713	San Lucas Tolimán	10	San Lucas Tolimán	11	Noviembre	2023-10-11T00:00:00	2024-11-08T21:00:00	3	Temperatura mínima	18.8
158492	7	Sololá	713	San Lucas Tolimán	10	San Lucas Tolimán	11	Noviembre	2023-10-11T00:00:00	2024-11-08T21:00:00	5	Humedad	60
158493	7	Sololá	713	San Lucas Tolimán	10	San Lucas Tolimán	11	Noviembre	2023-10-11T00:00:00	2024-11-08T21:00:00	6	Velocidad del viento	1.6
158494	7	Sololá	713	San Lucas Tolimán	10	San Lucas Tolimán	11	Noviembre	2023-10-11T00:00:00	2024-11-08T21:00:00	7	Dirección del viento	1.61
158495	7	Sololá	713	San Lucas Tolimán	10	San Lucas Tolimán	11	Noviembre	2023-10-11T00:00:00	2024-11-08T21:00:00	1	Precipitación	0
158496	7	Sololá	713	San Lucas Tolimán	10	San Lucas Tolimán	11	Noviembre	2023-10-11T00:00:00	2024-11-08T21:00:00	8	Radiación solar	0
158497	7	Sololá	713	San Lucas Tolimán	10	San Lucas Tolimán	11	Noviembre	2023-10-11T00:00:00	2024-11-08T22:00:00	2	Temperatura media	18.9
158498	7	Sololá	713	San Lucas Tolimán	10	San Lucas Tolimán	11	Noviembre	2023-10-11T00:00:00	2024-11-08T22:00:00	4	Temperatura máxima	19.8
158499	7	Sololá	713	San Lucas Tolimán	10	San Lucas Tolimán	11	Noviembre	2023-10-11T00:00:00	2024-11-08T22:00:00	3	Temperatura mínima	18.9
158500	7	Sololá	713	San Lucas Tolimán	10	San Lucas Tolimán	11	Noviembre	2023-10-11T00:00:00	2024-11-08T22:00:00	5	Humedad	61
158501	7	Sololá	713	San Lucas Tolimán	10	San Lucas Tolimán	11	Noviembre	2023-10-11T00:00:00	2024-11-08T22:00:00	6	Velocidad del viento	1.6
158502	7	Sololá	713	San Lucas Tolimán	10	San Lucas Tolimán	11	Noviembre	2023-10-11T00:00:00	2024-11-08T22:00:00	7	Dirección del viento	1.61
158503	7	Sololá	713	San Lucas Tolimán	10	San Lucas Tolimán	11	Noviembre	2023-10-11T00:00:00	2024-11-08T22:00:00	1	Precipitación	0
158504	7	Sololá	713	San Lucas Tolimán	10	San Lucas Tolimán	11	Noviembre	2023-10-11T00:00:00	2024-11-08T22:00:00	8	Radiación solar	0
158505	7	Sololá	713	San Lucas Tolimán	10	San Lucas Tolimán	11	Noviembre	2023-10-11T00:00:00	2024-11-08T23:00:00	2	Temperatura media	21.3
158506	7	Sololá	713	San Lucas Tolimán	10	San Lucas Tolimán	11	Noviembre	2023-10-11T00:00:00	2024-11-08T23:00:00	4	Temperatura máxima	21.3
158507	7	Sololá	713	San Lucas Tolimán	10	San Lucas Tolimán	11	Noviembre	2023-10-11T00:00:00	2024-11-08T23:00:00	3	Temperatura mínima	18.9
158508	7	Sololá	713	San Lucas Tolimán	10	San Lucas Tolimán	11	Noviembre	2023-10-11T00:00:00	2024-11-08T23:00:00	5	Humedad	56
158509	7	Sololá	713	San Lucas Tolimán	10	San Lucas Tolimán	11	Noviembre	2023-10-11T00:00:00	2024-11-08T23:00:00	6	Velocidad del viento	11.3
158510	7	Sololá	713	San Lucas Tolimán	10	San Lucas Tolimán	11	Noviembre	2023-10-11T00:00:00	2024-11-08T23:00:00	7	Dirección del viento	11.27
158511	7	Sololá	713	San Lucas Tolimán	10	San Lucas Tolimán	11	Noviembre	2023-10-11T00:00:00	2024-11-08T23:00:00	1	Precipitación	0
158512	7	Sololá	713	San Lucas Tolimán	10	San Lucas Tolimán	11	Noviembre	2023-10-11T00:00:00	2024-11-08T23:00:00	8	Radiación solar	0
158513	7	Sololá	713	San Lucas Tolimán	10	San Lucas Tolimán	11	Noviembre	2023-11-11T00:00:00	2024-11-08T00:00:00	2	Temperatura media	21.2
158514	7	Sololá	713	San Lucas Tolimán	10	San Lucas Tolimán	11	Noviembre	2023-11-11T00:00:00	2024-11-08T00:00:00	4	Temperatura máxima	21.4
158515	7	Sololá	713	San Lucas Tolimán	10	San Lucas Tolimán	11	Noviembre	2023-11-11T00:00:00	2024-11-08T00:00:00	3	Temperatura mínima	21.2
158516	7	Sololá	713	San Lucas Tolimán	10	San Lucas Tolimán	11	Noviembre	2023-11-11T00:00:00	2024-11-08T00:00:00	5	Humedad	56
158517	7	Sololá	713	San Lucas Tolimán	10	San Lucas Tolimán	11	Noviembre	2023-11-11T00:00:00	2024-11-08T00:00:00	6	Velocidad del viento	11.3
158518	7	Sololá	713	San Lucas Tolimán	10	San Lucas Tolimán	11	Noviembre	2023-11-11T00:00:00	2024-11-08T00:00:00	7	Dirección del viento	11.27
158519	7	Sololá	713	San Lucas Tolimán	10	San Lucas Tolimán	11	Noviembre	2023-11-11T00:00:00	2024-11-08T00:00:00	1	Precipitación	0
158520	7	Sololá	713	San Lucas Tolimán	10	San Lucas Tolimán	11	Noviembre	2023-11-11T00:00:00	2024-11-08T00:00:00	8	Radiación solar	0
158521	7	Sololá	713	San Lucas Tolimán	10	San Lucas Tolimán	11	Noviembre	2023-11-11T00:00:00	2024-11-08T01:00:00	2	Temperatura media	20.4
158522	7	Sololá	713	San Lucas Tolimán	10	San Lucas Tolimán	11	Noviembre	2023-11-11T00:00:00	2024-11-08T01:00:00	4	Temperatura máxima	21.2
158523	7	Sololá	713	San Lucas Tolimán	10	San Lucas Tolimán	11	Noviembre	2023-11-11T00:00:00	2024-11-08T01:00:00	3	Temperatura mínima	20.3
158524	7	Sololá	713	San Lucas Tolimán	10	San Lucas Tolimán	11	Noviembre	2023-11-11T00:00:00	2024-11-08T01:00:00	5	Humedad	58
158525	7	Sololá	713	San Lucas Tolimán	10	San Lucas Tolimán	11	Noviembre	2023-11-11T00:00:00	2024-11-08T01:00:00	6	Velocidad del viento	3.2
158526	7	Sololá	713	San Lucas Tolimán	10	San Lucas Tolimán	11	Noviembre	2023-11-11T00:00:00	2024-11-08T01:00:00	7	Dirección del viento	3.22
158527	7	Sololá	713	San Lucas Tolimán	10	San Lucas Tolimán	11	Noviembre	2023-11-11T00:00:00	2024-11-08T01:00:00	1	Precipitación	0
158528	7	Sololá	713	San Lucas Tolimán	10	San Lucas Tolimán	11	Noviembre	2023-11-11T00:00:00	2024-11-08T01:00:00	8	Radiación solar	0
158529	7	Sololá	713	San Lucas Tolimán	10	San Lucas Tolimán	11	Noviembre	2023-11-11T00:00:00	2024-11-08T02:00:00	2	Temperatura media	18.7
158530	7	Sololá	713	San Lucas Tolimán	10	San Lucas Tolimán	11	Noviembre	2023-11-11T00:00:00	2024-11-08T02:00:00	4	Temperatura máxima	20.5
158531	7	Sololá	713	San Lucas Tolimán	10	San Lucas Tolimán	11	Noviembre	2023-11-11T00:00:00	2024-11-08T02:00:00	3	Temperatura mínima	18.7
158532	7	Sololá	713	San Lucas Tolimán	10	San Lucas Tolimán	11	Noviembre	2023-11-11T00:00:00	2024-11-08T02:00:00	5	Humedad	63
158533	7	Sololá	713	San Lucas Tolimán	10	San Lucas Tolimán	11	Noviembre	2023-11-11T00:00:00	2024-11-08T02:00:00	6	Velocidad del viento	3.2
158534	7	Sololá	713	San Lucas Tolimán	10	San Lucas Tolimán	11	Noviembre	2023-11-11T00:00:00	2024-11-08T02:00:00	7	Dirección del viento	3.22
158535	7	Sololá	713	San Lucas Tolimán	10	San Lucas Tolimán	11	Noviembre	2023-11-11T00:00:00	2024-11-08T02:00:00	1	Precipitación	0
158536	7	Sololá	713	San Lucas Tolimán	10	San Lucas Tolimán	11	Noviembre	2023-11-11T00:00:00	2024-11-08T02:00:00	8	Radiación solar	0
158537	7	Sololá	713	San Lucas Tolimán	10	San Lucas Tolimán	11	Noviembre	2023-11-11T00:00:00	2024-11-08T03:00:00	2	Temperatura media	18.1
158538	7	Sololá	713	San Lucas Tolimán	10	San Lucas Tolimán	11	Noviembre	2023-11-11T00:00:00	2024-11-08T03:00:00	4	Temperatura máxima	18.7
158539	7	Sololá	713	San Lucas Tolimán	10	San Lucas Tolimán	11	Noviembre	2023-11-11T00:00:00	2024-11-08T03:00:00	3	Temperatura mínima	18.1
158540	7	Sololá	713	San Lucas Tolimán	10	San Lucas Tolimán	11	Noviembre	2023-11-11T00:00:00	2024-11-08T03:00:00	5	Humedad	63
158541	7	Sololá	713	San Lucas Tolimán	10	San Lucas Tolimán	11	Noviembre	2023-11-11T00:00:00	2024-11-08T03:00:00	6	Velocidad del viento	1.6
158542	7	Sololá	713	San Lucas Tolimán	10	San Lucas Tolimán	11	Noviembre	2023-11-11T00:00:00	2024-11-08T03:00:00	7	Dirección del viento	1.61
158543	7	Sololá	713	San Lucas Tolimán	10	San Lucas Tolimán	11	Noviembre	2023-11-11T00:00:00	2024-11-08T03:00:00	1	Precipitación	0
158544	7	Sololá	713	San Lucas Tolimán	10	San Lucas Tolimán	11	Noviembre	2023-11-11T00:00:00	2024-11-08T03:00:00	8	Radiación solar	0
158545	7	Sololá	713	San Lucas Tolimán	10	San Lucas Tolimán	11	Noviembre	2023-11-11T00:00:00	2024-11-08T04:00:00	2	Temperatura media	18.6
158546	7	Sololá	713	San Lucas Tolimán	10	San Lucas Tolimán	11	Noviembre	2023-11-11T00:00:00	2024-11-08T04:00:00	4	Temperatura máxima	18.6
158547	7	Sololá	713	San Lucas Tolimán	10	San Lucas Tolimán	11	Noviembre	2023-11-11T00:00:00	2024-11-08T04:00:00	3	Temperatura mínima	17.6
158548	7	Sololá	713	San Lucas Tolimán	10	San Lucas Tolimán	11	Noviembre	2023-11-11T00:00:00	2024-11-08T04:00:00	5	Humedad	60
158549	7	Sololá	713	San Lucas Tolimán	10	San Lucas Tolimán	11	Noviembre	2023-11-11T00:00:00	2024-11-08T04:00:00	6	Velocidad del viento	1.6
158550	7	Sololá	713	San Lucas Tolimán	10	San Lucas Tolimán	11	Noviembre	2023-11-11T00:00:00	2024-11-08T04:00:00	7	Dirección del viento	1.61
158551	7	Sololá	713	San Lucas Tolimán	10	San Lucas Tolimán	11	Noviembre	2023-11-11T00:00:00	2024-11-08T04:00:00	1	Precipitación	0
158552	7	Sololá	713	San Lucas Tolimán	10	San Lucas Tolimán	11	Noviembre	2023-11-11T00:00:00	2024-11-08T04:00:00	8	Radiación solar	0
158553	7	Sololá	713	San Lucas Tolimán	10	San Lucas Tolimán	11	Noviembre	2023-11-11T00:00:00	2024-11-08T05:00:00	2	Temperatura media	20.6
158554	7	Sololá	713	San Lucas Tolimán	10	San Lucas Tolimán	11	Noviembre	2023-11-11T00:00:00	2024-11-08T05:00:00	4	Temperatura máxima	20.6
158555	7	Sololá	713	San Lucas Tolimán	10	San Lucas Tolimán	11	Noviembre	2023-11-11T00:00:00	2024-11-08T05:00:00	3	Temperatura mínima	18.7
158556	7	Sololá	713	San Lucas Tolimán	10	San Lucas Tolimán	11	Noviembre	2023-11-11T00:00:00	2024-11-08T05:00:00	5	Humedad	56
158557	7	Sololá	713	San Lucas Tolimán	10	San Lucas Tolimán	11	Noviembre	2023-11-11T00:00:00	2024-11-08T05:00:00	6	Velocidad del viento	4.8
158558	7	Sololá	713	San Lucas Tolimán	10	San Lucas Tolimán	11	Noviembre	2023-11-11T00:00:00	2024-11-08T05:00:00	7	Dirección del viento	4.83
158559	7	Sololá	713	San Lucas Tolimán	10	San Lucas Tolimán	11	Noviembre	2023-11-11T00:00:00	2024-11-08T05:00:00	1	Precipitación	0
158560	7	Sololá	713	San Lucas Tolimán	10	San Lucas Tolimán	11	Noviembre	2023-11-11T00:00:00	2024-11-08T05:00:00	8	Radiación solar	0
158561	7	Sololá	713	San Lucas Tolimán	10	San Lucas Tolimán	11	Noviembre	2023-11-11T00:00:00	2024-11-08T06:00:00	2	Temperatura media	20.5
158562	7	Sololá	713	San Lucas Tolimán	10	San Lucas Tolimán	11	Noviembre	2023-11-11T00:00:00	2024-11-08T06:00:00	4	Temperatura máxima	20.7
158563	7	Sololá	713	San Lucas Tolimán	10	San Lucas Tolimán	11	Noviembre	2023-11-11T00:00:00	2024-11-08T06:00:00	3	Temperatura mínima	20.3
158564	7	Sololá	713	San Lucas Tolimán	10	San Lucas Tolimán	11	Noviembre	2023-11-11T00:00:00	2024-11-08T06:00:00	5	Humedad	56
158565	7	Sololá	713	San Lucas Tolimán	10	San Lucas Tolimán	11	Noviembre	2023-11-11T00:00:00	2024-11-08T06:00:00	6	Velocidad del viento	4.8
158566	7	Sololá	713	San Lucas Tolimán	10	San Lucas Tolimán	11	Noviembre	2023-11-11T00:00:00	2024-11-08T06:00:00	7	Dirección del viento	4.83
158567	7	Sololá	713	San Lucas Tolimán	10	San Lucas Tolimán	11	Noviembre	2023-11-11T00:00:00	2024-11-08T06:00:00	1	Precipitación	0
158568	7	Sololá	713	San Lucas Tolimán	10	San Lucas Tolimán	11	Noviembre	2023-11-11T00:00:00	2024-11-08T06:00:00	8	Radiación solar	0
158569	7	Sololá	713	San Lucas Tolimán	10	San Lucas Tolimán	11	Noviembre	2023-11-11T00:00:00	2024-11-08T07:00:00	2	Temperatura media	20.6
158570	7	Sololá	713	San Lucas Tolimán	10	San Lucas Tolimán	11	Noviembre	2023-11-11T00:00:00	2024-11-08T07:00:00	4	Temperatura máxima	20.9
158571	7	Sololá	713	San Lucas Tolimán	10	San Lucas Tolimán	11	Noviembre	2023-11-11T00:00:00	2024-11-08T07:00:00	3	Temperatura mínima	20.4
158572	7	Sololá	713	San Lucas Tolimán	10	San Lucas Tolimán	11	Noviembre	2023-11-11T00:00:00	2024-11-08T07:00:00	5	Humedad	56
158573	7	Sololá	713	San Lucas Tolimán	10	San Lucas Tolimán	11	Noviembre	2023-11-11T00:00:00	2024-11-08T07:00:00	6	Velocidad del viento	9.7
158574	7	Sololá	713	San Lucas Tolimán	10	San Lucas Tolimán	11	Noviembre	2023-11-11T00:00:00	2024-11-08T07:00:00	7	Dirección del viento	9.66
158575	7	Sololá	713	San Lucas Tolimán	10	San Lucas Tolimán	11	Noviembre	2023-11-11T00:00:00	2024-11-08T07:00:00	1	Precipitación	0
158576	7	Sololá	713	San Lucas Tolimán	10	San Lucas Tolimán	11	Noviembre	2023-11-11T00:00:00	2024-11-08T07:00:00	8	Radiación solar	13
158577	7	Sololá	713	San Lucas Tolimán	10	San Lucas Tolimán	11	Noviembre	2023-11-11T00:00:00	2024-11-08T08:00:00	2	Temperatura media	21.4
158578	7	Sololá	713	San Lucas Tolimán	10	San Lucas Tolimán	11	Noviembre	2023-11-11T00:00:00	2024-11-08T08:00:00	4	Temperatura máxima	21.4
158579	7	Sololá	713	San Lucas Tolimán	10	San Lucas Tolimán	11	Noviembre	2023-11-11T00:00:00	2024-11-08T08:00:00	3	Temperatura mínima	19.9
158580	7	Sololá	713	San Lucas Tolimán	10	San Lucas Tolimán	11	Noviembre	2023-11-11T00:00:00	2024-11-08T08:00:00	5	Humedad	55
158581	7	Sololá	713	San Lucas Tolimán	10	San Lucas Tolimán	11	Noviembre	2023-11-11T00:00:00	2024-11-08T08:00:00	6	Velocidad del viento	4.8
158582	7	Sololá	713	San Lucas Tolimán	10	San Lucas Tolimán	11	Noviembre	2023-11-11T00:00:00	2024-11-08T08:00:00	7	Dirección del viento	4.83
158583	7	Sololá	713	San Lucas Tolimán	10	San Lucas Tolimán	11	Noviembre	2023-11-11T00:00:00	2024-11-08T08:00:00	1	Precipitación	0
158584	7	Sololá	713	San Lucas Tolimán	10	San Lucas Tolimán	11	Noviembre	2023-11-11T00:00:00	2024-11-08T08:00:00	8	Radiación solar	84
158585	7	Sololá	713	San Lucas Tolimán	10	San Lucas Tolimán	11	Noviembre	2023-11-11T00:00:00	2024-11-08T09:00:00	2	Temperatura media	23.6
158586	7	Sololá	713	San Lucas Tolimán	10	San Lucas Tolimán	11	Noviembre	2023-11-11T00:00:00	2024-11-08T09:00:00	4	Temperatura máxima	24.1
158587	7	Sololá	713	San Lucas Tolimán	10	San Lucas Tolimán	11	Noviembre	2023-11-11T00:00:00	2024-11-08T09:00:00	3	Temperatura mínima	21.4
158588	7	Sololá	713	San Lucas Tolimán	10	San Lucas Tolimán	11	Noviembre	2023-11-11T00:00:00	2024-11-08T09:00:00	5	Humedad	48
158589	7	Sololá	713	San Lucas Tolimán	10	San Lucas Tolimán	11	Noviembre	2023-11-11T00:00:00	2024-11-08T09:00:00	6	Velocidad del viento	6.4
158590	7	Sololá	713	San Lucas Tolimán	10	San Lucas Tolimán	11	Noviembre	2023-11-11T00:00:00	2024-11-08T09:00:00	7	Dirección del viento	6.44
158591	7	Sololá	713	San Lucas Tolimán	10	San Lucas Tolimán	11	Noviembre	2023-11-11T00:00:00	2024-11-08T09:00:00	1	Precipitación	0
158592	7	Sololá	713	San Lucas Tolimán	10	San Lucas Tolimán	11	Noviembre	2023-11-11T00:00:00	2024-11-08T09:00:00	8	Radiación solar	429
158593	7	Sololá	713	San Lucas Tolimán	10	San Lucas Tolimán	11	Noviembre	2023-11-11T00:00:00	2024-11-08T10:00:00	2	Temperatura media	25.4
158594	7	Sololá	713	San Lucas Tolimán	10	San Lucas Tolimán	11	Noviembre	2023-11-11T00:00:00	2024-11-08T10:00:00	4	Temperatura máxima	25.4
158595	7	Sololá	713	San Lucas Tolimán	10	San Lucas Tolimán	11	Noviembre	2023-11-11T00:00:00	2024-11-08T10:00:00	3	Temperatura mínima	23.5
158596	7	Sololá	713	San Lucas Tolimán	10	San Lucas Tolimán	11	Noviembre	2023-11-11T00:00:00	2024-11-08T10:00:00	5	Humedad	45
158597	7	Sololá	713	San Lucas Tolimán	10	San Lucas Tolimán	11	Noviembre	2023-11-11T00:00:00	2024-11-08T10:00:00	6	Velocidad del viento	9.7
158598	7	Sololá	713	San Lucas Tolimán	10	San Lucas Tolimán	11	Noviembre	2023-11-11T00:00:00	2024-11-08T10:00:00	7	Dirección del viento	9.66
158599	7	Sololá	713	San Lucas Tolimán	10	San Lucas Tolimán	11	Noviembre	2023-11-11T00:00:00	2024-11-08T10:00:00	1	Precipitación	0
158600	7	Sololá	713	San Lucas Tolimán	10	San Lucas Tolimán	11	Noviembre	2023-11-11T00:00:00	2024-11-08T10:00:00	8	Radiación solar	640
158601	7	Sololá	713	San Lucas Tolimán	10	San Lucas Tolimán	11	Noviembre	2023-11-11T00:00:00	2024-11-08T11:00:00	2	Temperatura media	24.9
158602	7	Sololá	713	San Lucas Tolimán	10	San Lucas Tolimán	11	Noviembre	2023-11-11T00:00:00	2024-11-08T11:00:00	4	Temperatura máxima	25.7
158603	7	Sololá	713	San Lucas Tolimán	10	San Lucas Tolimán	11	Noviembre	2023-11-11T00:00:00	2024-11-08T11:00:00	3	Temperatura mínima	24.8
158604	7	Sololá	713	San Lucas Tolimán	10	San Lucas Tolimán	11	Noviembre	2023-11-11T00:00:00	2024-11-08T11:00:00	5	Humedad	45
158605	7	Sololá	713	San Lucas Tolimán	10	San Lucas Tolimán	11	Noviembre	2023-11-11T00:00:00	2024-11-08T11:00:00	6	Velocidad del viento	12.9
158606	7	Sololá	713	San Lucas Tolimán	10	San Lucas Tolimán	11	Noviembre	2023-11-11T00:00:00	2024-11-08T11:00:00	7	Dirección del viento	12.87
158607	7	Sololá	713	San Lucas Tolimán	10	San Lucas Tolimán	11	Noviembre	2023-11-11T00:00:00	2024-11-08T11:00:00	1	Precipitación	0
158608	7	Sololá	713	San Lucas Tolimán	10	San Lucas Tolimán	11	Noviembre	2023-11-11T00:00:00	2024-11-08T11:00:00	8	Radiación solar	935
158609	7	Sololá	713	San Lucas Tolimán	10	San Lucas Tolimán	11	Noviembre	2023-11-11T00:00:00	2024-11-08T12:00:00	2	Temperatura media	25.5
158610	7	Sololá	713	San Lucas Tolimán	10	San Lucas Tolimán	11	Noviembre	2023-11-11T00:00:00	2024-11-08T12:00:00	4	Temperatura máxima	25.8
158611	7	Sololá	713	San Lucas Tolimán	10	San Lucas Tolimán	11	Noviembre	2023-11-11T00:00:00	2024-11-08T12:00:00	3	Temperatura mínima	24.9
158612	7	Sololá	713	San Lucas Tolimán	10	San Lucas Tolimán	11	Noviembre	2023-11-11T00:00:00	2024-11-08T12:00:00	5	Humedad	45
158613	7	Sololá	713	San Lucas Tolimán	10	San Lucas Tolimán	11	Noviembre	2023-11-11T00:00:00	2024-11-08T12:00:00	6	Velocidad del viento	11.3
158614	7	Sololá	713	San Lucas Tolimán	10	San Lucas Tolimán	11	Noviembre	2023-11-11T00:00:00	2024-11-08T12:00:00	7	Dirección del viento	11.27
158615	7	Sololá	713	San Lucas Tolimán	10	San Lucas Tolimán	11	Noviembre	2023-11-11T00:00:00	2024-11-08T12:00:00	1	Precipitación	0
158616	7	Sololá	713	San Lucas Tolimán	10	San Lucas Tolimán	11	Noviembre	2023-11-11T00:00:00	2024-11-08T12:00:00	8	Radiación solar	850
158617	7	Sololá	713	San Lucas Tolimán	10	San Lucas Tolimán	11	Noviembre	2023-11-11T00:00:00	2024-11-08T13:00:00	2	Temperatura media	26.4
158618	7	Sololá	713	San Lucas Tolimán	10	San Lucas Tolimán	11	Noviembre	2023-11-11T00:00:00	2024-11-08T13:00:00	4	Temperatura máxima	26.4
158619	7	Sololá	713	San Lucas Tolimán	10	San Lucas Tolimán	11	Noviembre	2023-11-11T00:00:00	2024-11-08T13:00:00	3	Temperatura mínima	25.4
158620	7	Sololá	713	San Lucas Tolimán	10	San Lucas Tolimán	11	Noviembre	2023-11-11T00:00:00	2024-11-08T13:00:00	5	Humedad	41
158621	7	Sololá	713	San Lucas Tolimán	10	San Lucas Tolimán	11	Noviembre	2023-11-11T00:00:00	2024-11-08T13:00:00	6	Velocidad del viento	11.3
158622	7	Sololá	713	San Lucas Tolimán	10	San Lucas Tolimán	11	Noviembre	2023-11-11T00:00:00	2024-11-08T13:00:00	7	Dirección del viento	11.27
158623	7	Sololá	713	San Lucas Tolimán	10	San Lucas Tolimán	11	Noviembre	2023-11-11T00:00:00	2024-11-08T13:00:00	1	Precipitación	0
158624	7	Sololá	713	San Lucas Tolimán	10	San Lucas Tolimán	11	Noviembre	2023-11-11T00:00:00	2024-11-08T13:00:00	8	Radiación solar	873
158625	7	Sololá	713	San Lucas Tolimán	10	San Lucas Tolimán	11	Noviembre	2023-11-11T00:00:00	2024-11-08T14:00:00	2	Temperatura media	24.6
158626	7	Sololá	713	San Lucas Tolimán	10	San Lucas Tolimán	11	Noviembre	2023-11-11T00:00:00	2024-11-08T14:00:00	4	Temperatura máxima	26.4
158627	7	Sololá	713	San Lucas Tolimán	10	San Lucas Tolimán	11	Noviembre	2023-11-11T00:00:00	2024-11-08T14:00:00	3	Temperatura mínima	24.2
158628	7	Sololá	713	San Lucas Tolimán	10	San Lucas Tolimán	11	Noviembre	2023-11-11T00:00:00	2024-11-08T14:00:00	5	Humedad	58
158629	7	Sololá	713	San Lucas Tolimán	10	San Lucas Tolimán	11	Noviembre	2023-11-11T00:00:00	2024-11-08T14:00:00	6	Velocidad del viento	9.7
158630	7	Sololá	713	San Lucas Tolimán	10	San Lucas Tolimán	11	Noviembre	2023-11-11T00:00:00	2024-11-08T14:00:00	7	Dirección del viento	9.66
158631	7	Sololá	713	San Lucas Tolimán	10	San Lucas Tolimán	11	Noviembre	2023-11-11T00:00:00	2024-11-08T14:00:00	1	Precipitación	0
158632	7	Sololá	713	San Lucas Tolimán	10	San Lucas Tolimán	11	Noviembre	2023-11-11T00:00:00	2024-11-08T14:00:00	8	Radiación solar	422
158633	7	Sololá	713	San Lucas Tolimán	10	San Lucas Tolimán	11	Noviembre	2023-11-11T00:00:00	2024-11-08T15:00:00	2	Temperatura media	24.2
158634	7	Sololá	713	San Lucas Tolimán	10	San Lucas Tolimán	11	Noviembre	2023-11-11T00:00:00	2024-11-08T15:00:00	4	Temperatura máxima	25.2
158635	7	Sololá	713	San Lucas Tolimán	10	San Lucas Tolimán	11	Noviembre	2023-11-11T00:00:00	2024-11-08T15:00:00	3	Temperatura mínima	24.1
158636	7	Sololá	713	San Lucas Tolimán	10	San Lucas Tolimán	11	Noviembre	2023-11-11T00:00:00	2024-11-08T15:00:00	5	Humedad	54
158637	7	Sololá	713	San Lucas Tolimán	10	San Lucas Tolimán	11	Noviembre	2023-11-11T00:00:00	2024-11-08T15:00:00	6	Velocidad del viento	8
158638	7	Sololá	713	San Lucas Tolimán	10	San Lucas Tolimán	11	Noviembre	2023-11-11T00:00:00	2024-11-08T15:00:00	7	Dirección del viento	8.05
158639	7	Sololá	713	San Lucas Tolimán	10	San Lucas Tolimán	11	Noviembre	2023-11-11T00:00:00	2024-11-08T15:00:00	1	Precipitación	0
158640	7	Sololá	713	San Lucas Tolimán	10	San Lucas Tolimán	11	Noviembre	2023-11-11T00:00:00	2024-11-08T15:00:00	8	Radiación solar	575
158641	7	Sololá	713	San Lucas Tolimán	10	San Lucas Tolimán	11	Noviembre	2023-11-11T00:00:00	2024-11-08T16:00:00	2	Temperatura media	23.6
158642	7	Sololá	713	San Lucas Tolimán	10	San Lucas Tolimán	11	Noviembre	2023-11-11T00:00:00	2024-11-08T16:00:00	4	Temperatura máxima	24.7
158643	7	Sololá	713	San Lucas Tolimán	10	San Lucas Tolimán	11	Noviembre	2023-11-11T00:00:00	2024-11-08T16:00:00	3	Temperatura mínima	23.4
158644	7	Sololá	713	San Lucas Tolimán	10	San Lucas Tolimán	11	Noviembre	2023-11-11T00:00:00	2024-11-08T16:00:00	5	Humedad	60
158645	7	Sololá	713	San Lucas Tolimán	10	San Lucas Tolimán	11	Noviembre	2023-11-11T00:00:00	2024-11-08T16:00:00	6	Velocidad del viento	8
158646	7	Sololá	713	San Lucas Tolimán	10	San Lucas Tolimán	11	Noviembre	2023-11-11T00:00:00	2024-11-08T16:00:00	7	Dirección del viento	8.05
158647	7	Sololá	713	San Lucas Tolimán	10	San Lucas Tolimán	11	Noviembre	2023-11-11T00:00:00	2024-11-08T16:00:00	1	Precipitación	0
158648	7	Sololá	713	San Lucas Tolimán	10	San Lucas Tolimán	11	Noviembre	2023-11-11T00:00:00	2024-11-08T16:00:00	8	Radiación solar	459
158649	7	Sololá	713	San Lucas Tolimán	10	San Lucas Tolimán	11	Noviembre	2023-11-11T00:00:00	2024-11-08T17:00:00	2	Temperatura media	21.8
158650	7	Sololá	713	San Lucas Tolimán	10	San Lucas Tolimán	11	Noviembre	2023-11-11T00:00:00	2024-11-08T17:00:00	4	Temperatura máxima	23.6
158651	7	Sololá	713	San Lucas Tolimán	10	San Lucas Tolimán	11	Noviembre	2023-11-11T00:00:00	2024-11-08T17:00:00	3	Temperatura mínima	21.8
158652	7	Sololá	713	San Lucas Tolimán	10	San Lucas Tolimán	11	Noviembre	2023-11-11T00:00:00	2024-11-08T17:00:00	5	Humedad	60
158653	7	Sololá	713	San Lucas Tolimán	10	San Lucas Tolimán	11	Noviembre	2023-11-11T00:00:00	2024-11-08T17:00:00	6	Velocidad del viento	6.4
158654	7	Sololá	713	San Lucas Tolimán	10	San Lucas Tolimán	11	Noviembre	2023-11-11T00:00:00	2024-11-08T17:00:00	7	Dirección del viento	6.44
158655	7	Sololá	713	San Lucas Tolimán	10	San Lucas Tolimán	11	Noviembre	2023-11-11T00:00:00	2024-11-08T17:00:00	1	Precipitación	0
158656	7	Sololá	713	San Lucas Tolimán	10	San Lucas Tolimán	11	Noviembre	2023-11-11T00:00:00	2024-11-08T17:00:00	8	Radiación solar	61
158657	7	Sololá	713	San Lucas Tolimán	10	San Lucas Tolimán	11	Noviembre	2023-11-11T00:00:00	2024-11-08T18:00:00	2	Temperatura media	22.5
158658	7	Sololá	713	San Lucas Tolimán	10	San Lucas Tolimán	11	Noviembre	2023-11-11T00:00:00	2024-11-08T18:00:00	4	Temperatura máxima	22.8
158659	7	Sololá	713	San Lucas Tolimán	10	San Lucas Tolimán	11	Noviembre	2023-11-11T00:00:00	2024-11-08T18:00:00	3	Temperatura mínima	21.6
158660	7	Sololá	713	San Lucas Tolimán	10	San Lucas Tolimán	11	Noviembre	2023-11-11T00:00:00	2024-11-08T18:00:00	5	Humedad	53
158661	7	Sololá	713	San Lucas Tolimán	10	San Lucas Tolimán	11	Noviembre	2023-11-11T00:00:00	2024-11-08T18:00:00	6	Velocidad del viento	6.4
158662	7	Sololá	713	San Lucas Tolimán	10	San Lucas Tolimán	11	Noviembre	2023-11-11T00:00:00	2024-11-08T18:00:00	7	Dirección del viento	6.44
158663	7	Sololá	713	San Lucas Tolimán	10	San Lucas Tolimán	11	Noviembre	2023-11-11T00:00:00	2024-11-08T18:00:00	1	Precipitación	0
158664	7	Sololá	713	San Lucas Tolimán	10	San Lucas Tolimán	11	Noviembre	2023-11-11T00:00:00	2024-11-08T18:00:00	8	Radiación solar	6
158665	7	Sololá	713	San Lucas Tolimán	10	San Lucas Tolimán	11	Noviembre	2023-11-11T00:00:00	2024-11-08T19:00:00	2	Temperatura media	22.1
158666	7	Sololá	713	San Lucas Tolimán	10	San Lucas Tolimán	11	Noviembre	2023-11-11T00:00:00	2024-11-08T19:00:00	4	Temperatura máxima	22.5
158667	7	Sololá	713	San Lucas Tolimán	10	San Lucas Tolimán	11	Noviembre	2023-11-11T00:00:00	2024-11-08T19:00:00	3	Temperatura mínima	21.7
158668	7	Sololá	713	San Lucas Tolimán	10	San Lucas Tolimán	11	Noviembre	2023-11-11T00:00:00	2024-11-08T19:00:00	5	Humedad	53
158669	7	Sololá	713	San Lucas Tolimán	10	San Lucas Tolimán	11	Noviembre	2023-11-11T00:00:00	2024-11-08T19:00:00	6	Velocidad del viento	11.3
158670	7	Sololá	713	San Lucas Tolimán	10	San Lucas Tolimán	11	Noviembre	2023-11-11T00:00:00	2024-11-08T19:00:00	7	Dirección del viento	11.27
158671	7	Sololá	713	San Lucas Tolimán	10	San Lucas Tolimán	11	Noviembre	2023-11-11T00:00:00	2024-11-08T19:00:00	1	Precipitación	0
158672	7	Sololá	713	San Lucas Tolimán	10	San Lucas Tolimán	11	Noviembre	2023-11-11T00:00:00	2024-11-08T19:00:00	8	Radiación solar	0
158673	7	Sololá	713	San Lucas Tolimán	10	San Lucas Tolimán	11	Noviembre	2023-11-11T00:00:00	2024-11-08T20:00:00	2	Temperatura media	21.9
158674	7	Sololá	713	San Lucas Tolimán	10	San Lucas Tolimán	11	Noviembre	2023-11-11T00:00:00	2024-11-08T20:00:00	4	Temperatura máxima	22.1
158675	7	Sololá	713	San Lucas Tolimán	10	San Lucas Tolimán	11	Noviembre	2023-11-11T00:00:00	2024-11-08T20:00:00	3	Temperatura mínima	21.7
158676	7	Sololá	713	San Lucas Tolimán	10	San Lucas Tolimán	11	Noviembre	2023-11-11T00:00:00	2024-11-08T20:00:00	5	Humedad	52
158677	7	Sololá	713	San Lucas Tolimán	10	San Lucas Tolimán	11	Noviembre	2023-11-11T00:00:00	2024-11-08T20:00:00	6	Velocidad del viento	17.7
158678	7	Sololá	713	San Lucas Tolimán	10	San Lucas Tolimán	11	Noviembre	2023-11-11T00:00:00	2024-11-08T20:00:00	7	Dirección del viento	17.7
158679	7	Sololá	713	San Lucas Tolimán	10	San Lucas Tolimán	11	Noviembre	2023-11-11T00:00:00	2024-11-08T20:00:00	1	Precipitación	0
158680	7	Sololá	713	San Lucas Tolimán	10	San Lucas Tolimán	11	Noviembre	2023-11-11T00:00:00	2024-11-08T20:00:00	8	Radiación solar	0
158681	7	Sololá	713	San Lucas Tolimán	10	San Lucas Tolimán	11	Noviembre	2023-11-11T00:00:00	2024-11-08T21:00:00	2	Temperatura media	21.9
158682	7	Sololá	713	San Lucas Tolimán	10	San Lucas Tolimán	11	Noviembre	2023-11-11T00:00:00	2024-11-08T21:00:00	4	Temperatura máxima	22.1
158683	7	Sololá	713	San Lucas Tolimán	10	San Lucas Tolimán	11	Noviembre	2023-11-11T00:00:00	2024-11-08T21:00:00	3	Temperatura mínima	21.7
158684	7	Sololá	713	San Lucas Tolimán	10	San Lucas Tolimán	11	Noviembre	2023-11-11T00:00:00	2024-11-08T21:00:00	5	Humedad	51
158685	7	Sololá	713	San Lucas Tolimán	10	San Lucas Tolimán	11	Noviembre	2023-11-11T00:00:00	2024-11-08T21:00:00	6	Velocidad del viento	14.5
158686	7	Sololá	713	San Lucas Tolimán	10	San Lucas Tolimán	11	Noviembre	2023-11-11T00:00:00	2024-11-08T21:00:00	7	Dirección del viento	14.48
158687	7	Sololá	713	San Lucas Tolimán	10	San Lucas Tolimán	11	Noviembre	2023-11-11T00:00:00	2024-11-08T21:00:00	1	Precipitación	0
158688	7	Sololá	713	San Lucas Tolimán	10	San Lucas Tolimán	11	Noviembre	2023-11-11T00:00:00	2024-11-08T21:00:00	8	Radiación solar	0
158689	7	Sololá	713	San Lucas Tolimán	10	San Lucas Tolimán	11	Noviembre	2023-11-11T00:00:00	2024-11-08T22:00:00	2	Temperatura media	21.9
158690	7	Sololá	713	San Lucas Tolimán	10	San Lucas Tolimán	11	Noviembre	2023-11-11T00:00:00	2024-11-08T22:00:00	4	Temperatura máxima	22.2
158691	7	Sololá	713	San Lucas Tolimán	10	San Lucas Tolimán	11	Noviembre	2023-11-11T00:00:00	2024-11-08T22:00:00	3	Temperatura mínima	21.8
158692	7	Sololá	713	San Lucas Tolimán	10	San Lucas Tolimán	11	Noviembre	2023-11-11T00:00:00	2024-11-08T22:00:00	5	Humedad	52
158693	7	Sololá	713	San Lucas Tolimán	10	San Lucas Tolimán	11	Noviembre	2023-11-11T00:00:00	2024-11-08T22:00:00	6	Velocidad del viento	17.7
158694	7	Sololá	713	San Lucas Tolimán	10	San Lucas Tolimán	11	Noviembre	2023-11-11T00:00:00	2024-11-08T22:00:00	7	Dirección del viento	17.7
158695	7	Sololá	713	San Lucas Tolimán	10	San Lucas Tolimán	11	Noviembre	2023-11-11T00:00:00	2024-11-08T22:00:00	1	Precipitación	0
158696	7	Sololá	713	San Lucas Tolimán	10	San Lucas Tolimán	11	Noviembre	2023-11-11T00:00:00	2024-11-08T22:00:00	8	Radiación solar	0
158697	7	Sololá	713	San Lucas Tolimán	10	San Lucas Tolimán	11	Noviembre	2023-11-11T00:00:00	2024-11-08T23:00:00	2	Temperatura media	21.2
158698	7	Sololá	713	San Lucas Tolimán	10	San Lucas Tolimán	11	Noviembre	2023-11-11T00:00:00	2024-11-08T23:00:00	4	Temperatura máxima	21.9
158699	7	Sololá	713	San Lucas Tolimán	10	San Lucas Tolimán	11	Noviembre	2023-11-11T00:00:00	2024-11-08T23:00:00	3	Temperatura mínima	21.2
158700	7	Sololá	713	San Lucas Tolimán	10	San Lucas Tolimán	11	Noviembre	2023-11-11T00:00:00	2024-11-08T23:00:00	5	Humedad	54
158701	7	Sololá	713	San Lucas Tolimán	10	San Lucas Tolimán	11	Noviembre	2023-11-11T00:00:00	2024-11-08T23:00:00	6	Velocidad del viento	3.2
158702	7	Sololá	713	San Lucas Tolimán	10	San Lucas Tolimán	11	Noviembre	2023-11-11T00:00:00	2024-11-08T23:00:00	7	Dirección del viento	3.22
158703	7	Sololá	713	San Lucas Tolimán	10	San Lucas Tolimán	11	Noviembre	2023-11-11T00:00:00	2024-11-08T23:00:00	1	Precipitación	0
158704	7	Sololá	713	San Lucas Tolimán	10	San Lucas Tolimán	11	Noviembre	2023-11-11T00:00:00	2024-11-08T23:00:00	8	Radiación solar	0
158705	7	Sololá	713	San Lucas Tolimán	10	San Lucas Tolimán	11	Noviembre	2023-12-11T00:00:00	2024-11-08T00:00:00	2	Temperatura media	20.2
158706	7	Sololá	713	San Lucas Tolimán	10	San Lucas Tolimán	11	Noviembre	2023-12-11T00:00:00	2024-11-08T00:00:00	4	Temperatura máxima	21.2
158707	7	Sololá	713	San Lucas Tolimán	10	San Lucas Tolimán	11	Noviembre	2023-12-11T00:00:00	2024-11-08T00:00:00	3	Temperatura mínima	20.2
158708	7	Sololá	713	San Lucas Tolimán	10	San Lucas Tolimán	11	Noviembre	2023-12-11T00:00:00	2024-11-08T00:00:00	5	Humedad	59
158709	7	Sololá	713	San Lucas Tolimán	10	San Lucas Tolimán	11	Noviembre	2023-12-11T00:00:00	2024-11-08T00:00:00	6	Velocidad del viento	1.6
158710	7	Sololá	713	San Lucas Tolimán	10	San Lucas Tolimán	11	Noviembre	2023-12-11T00:00:00	2024-11-08T00:00:00	7	Dirección del viento	1.61
158711	7	Sololá	713	San Lucas Tolimán	10	San Lucas Tolimán	11	Noviembre	2023-12-11T00:00:00	2024-11-08T00:00:00	1	Precipitación	0
158712	7	Sololá	713	San Lucas Tolimán	10	San Lucas Tolimán	11	Noviembre	2023-12-11T00:00:00	2024-11-08T00:00:00	8	Radiación solar	0
158713	7	Sololá	713	San Lucas Tolimán	10	San Lucas Tolimán	11	Noviembre	2023-12-11T00:00:00	2024-11-08T01:00:00	2	Temperatura media	19.8
158714	7	Sololá	713	San Lucas Tolimán	10	San Lucas Tolimán	11	Noviembre	2023-12-11T00:00:00	2024-11-08T01:00:00	4	Temperatura máxima	20.2
158715	7	Sololá	713	San Lucas Tolimán	10	San Lucas Tolimán	11	Noviembre	2023-12-11T00:00:00	2024-11-08T01:00:00	3	Temperatura mínima	18.9
158716	7	Sololá	713	San Lucas Tolimán	10	San Lucas Tolimán	11	Noviembre	2023-12-11T00:00:00	2024-11-08T01:00:00	5	Humedad	59
158717	7	Sololá	713	San Lucas Tolimán	10	San Lucas Tolimán	11	Noviembre	2023-12-11T00:00:00	2024-11-08T01:00:00	6	Velocidad del viento	1.6
158718	7	Sololá	713	San Lucas Tolimán	10	San Lucas Tolimán	11	Noviembre	2023-12-11T00:00:00	2024-11-08T01:00:00	7	Dirección del viento	1.61
158719	7	Sololá	713	San Lucas Tolimán	10	San Lucas Tolimán	11	Noviembre	2023-12-11T00:00:00	2024-11-08T01:00:00	1	Precipitación	0
158720	7	Sololá	713	San Lucas Tolimán	10	San Lucas Tolimán	11	Noviembre	2023-12-11T00:00:00	2024-11-08T01:00:00	8	Radiación solar	0
158721	7	Sololá	713	San Lucas Tolimán	10	San Lucas Tolimán	11	Noviembre	2023-12-11T00:00:00	2024-11-08T02:00:00	2	Temperatura media	21.1
158722	7	Sololá	713	San Lucas Tolimán	10	San Lucas Tolimán	11	Noviembre	2023-12-11T00:00:00	2024-11-08T02:00:00	4	Temperatura máxima	21.2
158723	7	Sololá	713	San Lucas Tolimán	10	San Lucas Tolimán	11	Noviembre	2023-12-11T00:00:00	2024-11-08T02:00:00	3	Temperatura mínima	19.8
158724	7	Sololá	713	San Lucas Tolimán	10	San Lucas Tolimán	11	Noviembre	2023-12-11T00:00:00	2024-11-08T02:00:00	5	Humedad	55
158725	7	Sololá	713	San Lucas Tolimán	10	San Lucas Tolimán	11	Noviembre	2023-12-11T00:00:00	2024-11-08T02:00:00	6	Velocidad del viento	8
158726	7	Sololá	713	San Lucas Tolimán	10	San Lucas Tolimán	11	Noviembre	2023-12-11T00:00:00	2024-11-08T02:00:00	7	Dirección del viento	8.05
158727	7	Sololá	713	San Lucas Tolimán	10	San Lucas Tolimán	11	Noviembre	2023-12-11T00:00:00	2024-11-08T02:00:00	1	Precipitación	0
158728	7	Sololá	713	San Lucas Tolimán	10	San Lucas Tolimán	11	Noviembre	2023-12-11T00:00:00	2024-11-08T02:00:00	8	Radiación solar	0
158729	7	Sololá	713	San Lucas Tolimán	10	San Lucas Tolimán	11	Noviembre	2023-12-11T00:00:00	2024-11-08T03:00:00	2	Temperatura media	21
158730	7	Sololá	713	San Lucas Tolimán	10	San Lucas Tolimán	11	Noviembre	2023-12-11T00:00:00	2024-11-08T03:00:00	4	Temperatura máxima	21.1
158731	7	Sololá	713	San Lucas Tolimán	10	San Lucas Tolimán	11	Noviembre	2023-12-11T00:00:00	2024-11-08T03:00:00	3	Temperatura mínima	20.7
158732	7	Sololá	713	San Lucas Tolimán	10	San Lucas Tolimán	11	Noviembre	2023-12-11T00:00:00	2024-11-08T03:00:00	5	Humedad	56
158733	7	Sololá	713	San Lucas Tolimán	10	San Lucas Tolimán	11	Noviembre	2023-12-11T00:00:00	2024-11-08T03:00:00	6	Velocidad del viento	8
158734	7	Sololá	713	San Lucas Tolimán	10	San Lucas Tolimán	11	Noviembre	2023-12-11T00:00:00	2024-11-08T03:00:00	7	Dirección del viento	8.05
158735	7	Sololá	713	San Lucas Tolimán	10	San Lucas Tolimán	11	Noviembre	2023-12-11T00:00:00	2024-11-08T03:00:00	1	Precipitación	0
158736	7	Sololá	713	San Lucas Tolimán	10	San Lucas Tolimán	11	Noviembre	2023-12-11T00:00:00	2024-11-08T03:00:00	8	Radiación solar	0
158737	7	Sololá	713	San Lucas Tolimán	10	San Lucas Tolimán	11	Noviembre	2023-12-11T00:00:00	2024-11-08T04:00:00	2	Temperatura media	20.5
158738	7	Sololá	713	San Lucas Tolimán	10	San Lucas Tolimán	11	Noviembre	2023-12-11T00:00:00	2024-11-08T04:00:00	4	Temperatura máxima	21
158739	7	Sololá	713	San Lucas Tolimán	10	San Lucas Tolimán	11	Noviembre	2023-12-11T00:00:00	2024-11-08T04:00:00	3	Temperatura mínima	20.3
158740	7	Sololá	713	San Lucas Tolimán	10	San Lucas Tolimán	11	Noviembre	2023-12-11T00:00:00	2024-11-08T04:00:00	5	Humedad	57
158741	7	Sololá	713	San Lucas Tolimán	10	San Lucas Tolimán	11	Noviembre	2023-12-11T00:00:00	2024-11-08T04:00:00	6	Velocidad del viento	3.2
158742	7	Sololá	713	San Lucas Tolimán	10	San Lucas Tolimán	11	Noviembre	2023-12-11T00:00:00	2024-11-08T04:00:00	7	Dirección del viento	3.22
158743	7	Sololá	713	San Lucas Tolimán	10	San Lucas Tolimán	11	Noviembre	2023-12-11T00:00:00	2024-11-08T04:00:00	1	Precipitación	0
158744	7	Sololá	713	San Lucas Tolimán	10	San Lucas Tolimán	11	Noviembre	2023-12-11T00:00:00	2024-11-08T04:00:00	8	Radiación solar	0
158745	7	Sololá	713	San Lucas Tolimán	10	San Lucas Tolimán	11	Noviembre	2023-12-11T00:00:00	2024-11-08T05:00:00	2	Temperatura media	20.7
158746	7	Sololá	713	San Lucas Tolimán	10	San Lucas Tolimán	11	Noviembre	2023-12-11T00:00:00	2024-11-08T05:00:00	4	Temperatura máxima	21.1
158747	7	Sololá	713	San Lucas Tolimán	10	San Lucas Tolimán	11	Noviembre	2023-12-11T00:00:00	2024-11-08T05:00:00	3	Temperatura mínima	20.4
158748	7	Sololá	713	San Lucas Tolimán	10	San Lucas Tolimán	11	Noviembre	2023-12-11T00:00:00	2024-11-08T05:00:00	5	Humedad	55
158749	7	Sololá	713	San Lucas Tolimán	10	San Lucas Tolimán	11	Noviembre	2023-12-11T00:00:00	2024-11-08T05:00:00	6	Velocidad del viento	6.4
158750	7	Sololá	713	San Lucas Tolimán	10	San Lucas Tolimán	11	Noviembre	2023-12-11T00:00:00	2024-11-08T05:00:00	7	Dirección del viento	6.44
158751	7	Sololá	713	San Lucas Tolimán	10	San Lucas Tolimán	11	Noviembre	2023-12-11T00:00:00	2024-11-08T05:00:00	1	Precipitación	0
158752	7	Sololá	713	San Lucas Tolimán	10	San Lucas Tolimán	11	Noviembre	2023-12-11T00:00:00	2024-11-08T05:00:00	8	Radiación solar	0
158753	7	Sololá	713	San Lucas Tolimán	10	San Lucas Tolimán	11	Noviembre	2023-12-11T00:00:00	2024-11-08T06:00:00	2	Temperatura media	21.2
158754	7	Sololá	713	San Lucas Tolimán	10	San Lucas Tolimán	11	Noviembre	2023-12-11T00:00:00	2024-11-08T06:00:00	4	Temperatura máxima	21.3
158755	7	Sololá	713	San Lucas Tolimán	10	San Lucas Tolimán	11	Noviembre	2023-12-11T00:00:00	2024-11-08T06:00:00	3	Temperatura mínima	20.7
158756	7	Sololá	713	San Lucas Tolimán	10	San Lucas Tolimán	11	Noviembre	2023-12-11T00:00:00	2024-11-08T06:00:00	5	Humedad	53
158757	7	Sololá	713	San Lucas Tolimán	10	San Lucas Tolimán	11	Noviembre	2023-12-11T00:00:00	2024-11-08T06:00:00	6	Velocidad del viento	9.7
158758	7	Sololá	713	San Lucas Tolimán	10	San Lucas Tolimán	11	Noviembre	2023-12-11T00:00:00	2024-11-08T06:00:00	7	Dirección del viento	9.66
158759	7	Sololá	713	San Lucas Tolimán	10	San Lucas Tolimán	11	Noviembre	2023-12-11T00:00:00	2024-11-08T06:00:00	1	Precipitación	0
158760	7	Sololá	713	San Lucas Tolimán	10	San Lucas Tolimán	11	Noviembre	2023-12-11T00:00:00	2024-11-08T06:00:00	8	Radiación solar	0
158761	7	Sololá	713	San Lucas Tolimán	10	San Lucas Tolimán	11	Noviembre	2023-12-11T00:00:00	2024-11-08T07:00:00	2	Temperatura media	21.3
158762	7	Sololá	713	San Lucas Tolimán	10	San Lucas Tolimán	11	Noviembre	2023-12-11T00:00:00	2024-11-08T07:00:00	4	Temperatura máxima	21.3
158763	7	Sololá	713	San Lucas Tolimán	10	San Lucas Tolimán	11	Noviembre	2023-12-11T00:00:00	2024-11-08T07:00:00	3	Temperatura mínima	20.9
158764	7	Sololá	713	San Lucas Tolimán	10	San Lucas Tolimán	11	Noviembre	2023-12-11T00:00:00	2024-11-08T07:00:00	5	Humedad	53
158765	7	Sololá	713	San Lucas Tolimán	10	San Lucas Tolimán	11	Noviembre	2023-12-11T00:00:00	2024-11-08T07:00:00	6	Velocidad del viento	16.1
158766	7	Sololá	713	San Lucas Tolimán	10	San Lucas Tolimán	11	Noviembre	2023-12-11T00:00:00	2024-11-08T07:00:00	7	Dirección del viento	16.09
158767	7	Sololá	713	San Lucas Tolimán	10	San Lucas Tolimán	11	Noviembre	2023-12-11T00:00:00	2024-11-08T07:00:00	1	Precipitación	0
158768	7	Sololá	713	San Lucas Tolimán	10	San Lucas Tolimán	11	Noviembre	2023-12-11T00:00:00	2024-11-08T07:00:00	8	Radiación solar	32
158769	7	Sololá	713	San Lucas Tolimán	10	San Lucas Tolimán	11	Noviembre	2023-12-11T00:00:00	2024-11-08T08:00:00	2	Temperatura media	22.4
158770	7	Sololá	713	San Lucas Tolimán	10	San Lucas Tolimán	11	Noviembre	2023-12-11T00:00:00	2024-11-08T08:00:00	4	Temperatura máxima	22.4
158771	7	Sololá	713	San Lucas Tolimán	10	San Lucas Tolimán	11	Noviembre	2023-12-11T00:00:00	2024-11-08T08:00:00	3	Temperatura mínima	20.9
158772	7	Sololá	713	San Lucas Tolimán	10	San Lucas Tolimán	11	Noviembre	2023-12-11T00:00:00	2024-11-08T08:00:00	5	Humedad	49
158773	7	Sololá	713	San Lucas Tolimán	10	San Lucas Tolimán	11	Noviembre	2023-12-11T00:00:00	2024-11-08T08:00:00	6	Velocidad del viento	16.1
158774	7	Sololá	713	San Lucas Tolimán	10	San Lucas Tolimán	11	Noviembre	2023-12-11T00:00:00	2024-11-08T08:00:00	7	Dirección del viento	16.09
158775	7	Sololá	713	San Lucas Tolimán	10	San Lucas Tolimán	11	Noviembre	2023-12-11T00:00:00	2024-11-08T08:00:00	1	Precipitación	0
158776	7	Sololá	713	San Lucas Tolimán	10	San Lucas Tolimán	11	Noviembre	2023-12-11T00:00:00	2024-11-08T08:00:00	8	Radiación solar	92
158777	7	Sololá	713	San Lucas Tolimán	10	San Lucas Tolimán	11	Noviembre	2023-12-11T00:00:00	2024-11-08T09:00:00	2	Temperatura media	23.7
158778	7	Sololá	713	San Lucas Tolimán	10	San Lucas Tolimán	11	Noviembre	2023-12-11T00:00:00	2024-11-08T09:00:00	4	Temperatura máxima	23.7
158779	7	Sololá	713	San Lucas Tolimán	10	San Lucas Tolimán	11	Noviembre	2023-12-11T00:00:00	2024-11-08T09:00:00	3	Temperatura mínima	22.4
158780	7	Sololá	713	San Lucas Tolimán	10	San Lucas Tolimán	11	Noviembre	2023-12-11T00:00:00	2024-11-08T09:00:00	5	Humedad	49
158781	7	Sololá	713	San Lucas Tolimán	10	San Lucas Tolimán	11	Noviembre	2023-12-11T00:00:00	2024-11-08T09:00:00	6	Velocidad del viento	6.4
158782	7	Sololá	713	San Lucas Tolimán	10	San Lucas Tolimán	11	Noviembre	2023-12-11T00:00:00	2024-11-08T09:00:00	7	Dirección del viento	6.44
158783	7	Sololá	713	San Lucas Tolimán	10	San Lucas Tolimán	11	Noviembre	2023-12-11T00:00:00	2024-11-08T09:00:00	1	Precipitación	0
158784	7	Sololá	713	San Lucas Tolimán	10	San Lucas Tolimán	11	Noviembre	2023-12-11T00:00:00	2024-11-08T09:00:00	8	Radiación solar	424
158785	7	Sololá	713	San Lucas Tolimán	10	San Lucas Tolimán	11	Noviembre	2023-12-11T00:00:00	2024-11-08T10:00:00	2	Temperatura media	24.3
158786	7	Sololá	713	San Lucas Tolimán	10	San Lucas Tolimán	11	Noviembre	2023-12-11T00:00:00	2024-11-08T10:00:00	4	Temperatura máxima	24.4
158787	7	Sololá	713	San Lucas Tolimán	10	San Lucas Tolimán	11	Noviembre	2023-12-11T00:00:00	2024-11-08T10:00:00	3	Temperatura mínima	23.7
158788	7	Sololá	713	San Lucas Tolimán	10	San Lucas Tolimán	11	Noviembre	2023-12-11T00:00:00	2024-11-08T10:00:00	5	Humedad	45
158789	7	Sololá	713	San Lucas Tolimán	10	San Lucas Tolimán	11	Noviembre	2023-12-11T00:00:00	2024-11-08T10:00:00	6	Velocidad del viento	8
158790	7	Sololá	713	San Lucas Tolimán	10	San Lucas Tolimán	11	Noviembre	2023-12-11T00:00:00	2024-11-08T10:00:00	7	Dirección del viento	8.05
158791	7	Sololá	713	San Lucas Tolimán	10	San Lucas Tolimán	11	Noviembre	2023-12-11T00:00:00	2024-11-08T10:00:00	1	Precipitación	0
158792	7	Sololá	713	San Lucas Tolimán	10	San Lucas Tolimán	11	Noviembre	2023-12-11T00:00:00	2024-11-08T10:00:00	8	Radiación solar	668
158793	7	Sololá	713	San Lucas Tolimán	10	San Lucas Tolimán	11	Noviembre	2023-12-11T00:00:00	2024-11-08T11:00:00	2	Temperatura media	24.2
158794	7	Sololá	713	San Lucas Tolimán	10	San Lucas Tolimán	11	Noviembre	2023-12-11T00:00:00	2024-11-08T11:00:00	4	Temperatura máxima	24.9
158795	7	Sololá	713	San Lucas Tolimán	10	San Lucas Tolimán	11	Noviembre	2023-12-11T00:00:00	2024-11-08T11:00:00	3	Temperatura mínima	24.1
158796	7	Sololá	713	San Lucas Tolimán	10	San Lucas Tolimán	11	Noviembre	2023-12-11T00:00:00	2024-11-08T11:00:00	5	Humedad	45
158797	7	Sololá	713	San Lucas Tolimán	10	San Lucas Tolimán	11	Noviembre	2023-12-11T00:00:00	2024-11-08T11:00:00	6	Velocidad del viento	9.7
158798	7	Sololá	713	San Lucas Tolimán	10	San Lucas Tolimán	11	Noviembre	2023-12-11T00:00:00	2024-11-08T11:00:00	7	Dirección del viento	9.66
158799	7	Sololá	713	San Lucas Tolimán	10	San Lucas Tolimán	11	Noviembre	2023-12-11T00:00:00	2024-11-08T11:00:00	1	Precipitación	0
158800	7	Sololá	713	San Lucas Tolimán	10	San Lucas Tolimán	11	Noviembre	2023-12-11T00:00:00	2024-11-08T11:00:00	8	Radiación solar	571
158801	7	Sololá	713	San Lucas Tolimán	10	San Lucas Tolimán	11	Noviembre	2023-12-11T00:00:00	2024-11-08T12:00:00	2	Temperatura media	25.6
158802	7	Sololá	713	San Lucas Tolimán	10	San Lucas Tolimán	11	Noviembre	2023-12-11T00:00:00	2024-11-08T12:00:00	4	Temperatura máxima	25.9
158803	7	Sololá	713	San Lucas Tolimán	10	San Lucas Tolimán	11	Noviembre	2023-12-11T00:00:00	2024-11-08T12:00:00	3	Temperatura mínima	24.1
158804	7	Sololá	713	San Lucas Tolimán	10	San Lucas Tolimán	11	Noviembre	2023-12-11T00:00:00	2024-11-08T12:00:00	5	Humedad	42
158805	7	Sololá	713	San Lucas Tolimán	10	San Lucas Tolimán	11	Noviembre	2023-12-11T00:00:00	2024-11-08T12:00:00	6	Velocidad del viento	11.3
158806	7	Sololá	713	San Lucas Tolimán	10	San Lucas Tolimán	11	Noviembre	2023-12-11T00:00:00	2024-11-08T12:00:00	7	Dirección del viento	11.27
158807	7	Sololá	713	San Lucas Tolimán	10	San Lucas Tolimán	11	Noviembre	2023-12-11T00:00:00	2024-11-08T12:00:00	1	Precipitación	0
158808	7	Sololá	713	San Lucas Tolimán	10	San Lucas Tolimán	11	Noviembre	2023-12-11T00:00:00	2024-11-08T12:00:00	8	Radiación solar	640
158809	7	Sololá	713	San Lucas Tolimán	10	San Lucas Tolimán	11	Noviembre	2023-12-11T00:00:00	2024-11-08T13:00:00	2	Temperatura media	26
158810	7	Sololá	713	San Lucas Tolimán	10	San Lucas Tolimán	11	Noviembre	2023-12-11T00:00:00	2024-11-08T13:00:00	4	Temperatura máxima	26.1
158811	7	Sololá	713	San Lucas Tolimán	10	San Lucas Tolimán	11	Noviembre	2023-12-11T00:00:00	2024-11-08T13:00:00	3	Temperatura mínima	24.4
158812	7	Sololá	713	San Lucas Tolimán	10	San Lucas Tolimán	11	Noviembre	2023-12-11T00:00:00	2024-11-08T13:00:00	5	Humedad	40
158813	7	Sololá	713	San Lucas Tolimán	10	San Lucas Tolimán	11	Noviembre	2023-12-11T00:00:00	2024-11-08T13:00:00	6	Velocidad del viento	9.7
158814	7	Sololá	713	San Lucas Tolimán	10	San Lucas Tolimán	11	Noviembre	2023-12-11T00:00:00	2024-11-08T13:00:00	7	Dirección del viento	9.66
158815	7	Sololá	713	San Lucas Tolimán	10	San Lucas Tolimán	11	Noviembre	2023-12-11T00:00:00	2024-11-08T13:00:00	1	Precipitación	0
158816	7	Sololá	713	San Lucas Tolimán	10	San Lucas Tolimán	11	Noviembre	2023-12-11T00:00:00	2024-11-08T13:00:00	8	Radiación solar	647
158817	7	Sololá	713	San Lucas Tolimán	10	San Lucas Tolimán	11	Noviembre	2023-12-11T00:00:00	2024-11-08T14:00:00	2	Temperatura media	25.1
158818	7	Sololá	713	San Lucas Tolimán	10	San Lucas Tolimán	11	Noviembre	2023-12-11T00:00:00	2024-11-08T14:00:00	4	Temperatura máxima	26.2
158819	7	Sololá	713	San Lucas Tolimán	10	San Lucas Tolimán	11	Noviembre	2023-12-11T00:00:00	2024-11-08T14:00:00	3	Temperatura mínima	25.1
158820	7	Sololá	713	San Lucas Tolimán	10	San Lucas Tolimán	11	Noviembre	2023-12-11T00:00:00	2024-11-08T14:00:00	5	Humedad	55
158821	7	Sololá	713	San Lucas Tolimán	10	San Lucas Tolimán	11	Noviembre	2023-12-11T00:00:00	2024-11-08T14:00:00	6	Velocidad del viento	8
158822	7	Sololá	713	San Lucas Tolimán	10	San Lucas Tolimán	11	Noviembre	2023-12-11T00:00:00	2024-11-08T14:00:00	7	Dirección del viento	8.05
158823	7	Sololá	713	San Lucas Tolimán	10	San Lucas Tolimán	11	Noviembre	2023-12-11T00:00:00	2024-11-08T14:00:00	1	Precipitación	0
158824	7	Sololá	713	San Lucas Tolimán	10	San Lucas Tolimán	11	Noviembre	2023-12-11T00:00:00	2024-11-08T14:00:00	8	Radiación solar	676
158825	7	Sololá	713	San Lucas Tolimán	10	San Lucas Tolimán	11	Noviembre	2023-12-11T00:00:00	2024-11-08T15:00:00	2	Temperatura media	24.8
158826	7	Sololá	713	San Lucas Tolimán	10	San Lucas Tolimán	11	Noviembre	2023-12-11T00:00:00	2024-11-08T15:00:00	4	Temperatura máxima	25.1
158827	7	Sololá	713	San Lucas Tolimán	10	San Lucas Tolimán	11	Noviembre	2023-12-11T00:00:00	2024-11-08T15:00:00	3	Temperatura mínima	23.1
158828	7	Sololá	713	San Lucas Tolimán	10	San Lucas Tolimán	11	Noviembre	2023-12-11T00:00:00	2024-11-08T15:00:00	5	Humedad	46
158829	7	Sololá	713	San Lucas Tolimán	10	San Lucas Tolimán	11	Noviembre	2023-12-11T00:00:00	2024-11-08T15:00:00	6	Velocidad del viento	8
158830	7	Sololá	713	San Lucas Tolimán	10	San Lucas Tolimán	11	Noviembre	2023-12-11T00:00:00	2024-11-08T15:00:00	7	Dirección del viento	8.05
158831	7	Sololá	713	San Lucas Tolimán	10	San Lucas Tolimán	11	Noviembre	2023-12-11T00:00:00	2024-11-08T15:00:00	1	Precipitación	0
158832	7	Sololá	713	San Lucas Tolimán	10	San Lucas Tolimán	11	Noviembre	2023-12-11T00:00:00	2024-11-08T15:00:00	8	Radiación solar	422
158833	7	Sololá	713	San Lucas Tolimán	10	San Lucas Tolimán	11	Noviembre	2023-12-11T00:00:00	2024-11-08T16:00:00	2	Temperatura media	24.7
158834	7	Sololá	713	San Lucas Tolimán	10	San Lucas Tolimán	11	Noviembre	2023-12-11T00:00:00	2024-11-08T16:00:00	4	Temperatura máxima	25.4
158835	7	Sololá	713	San Lucas Tolimán	10	San Lucas Tolimán	11	Noviembre	2023-12-11T00:00:00	2024-11-08T16:00:00	3	Temperatura mínima	24.7
158836	7	Sololá	713	San Lucas Tolimán	10	San Lucas Tolimán	11	Noviembre	2023-12-11T00:00:00	2024-11-08T16:00:00	5	Humedad	57
158837	7	Sololá	713	San Lucas Tolimán	10	San Lucas Tolimán	11	Noviembre	2023-12-11T00:00:00	2024-11-08T16:00:00	6	Velocidad del viento	4.8
158838	7	Sololá	713	San Lucas Tolimán	10	San Lucas Tolimán	11	Noviembre	2023-12-11T00:00:00	2024-11-08T16:00:00	7	Dirección del viento	4.83
158839	7	Sololá	713	San Lucas Tolimán	10	San Lucas Tolimán	11	Noviembre	2023-12-11T00:00:00	2024-11-08T16:00:00	1	Precipitación	0
158840	7	Sololá	713	San Lucas Tolimán	10	San Lucas Tolimán	11	Noviembre	2023-12-11T00:00:00	2024-11-08T16:00:00	8	Radiación solar	398
158841	7	Sololá	713	San Lucas Tolimán	10	San Lucas Tolimán	11	Noviembre	2023-12-11T00:00:00	2024-11-08T17:00:00	2	Temperatura media	22.2
158842	7	Sololá	713	San Lucas Tolimán	10	San Lucas Tolimán	11	Noviembre	2023-12-11T00:00:00	2024-11-08T17:00:00	4	Temperatura máxima	24.7
158843	7	Sololá	713	San Lucas Tolimán	10	San Lucas Tolimán	11	Noviembre	2023-12-11T00:00:00	2024-11-08T17:00:00	3	Temperatura mínima	22.2
158844	7	Sololá	713	San Lucas Tolimán	10	San Lucas Tolimán	11	Noviembre	2023-12-11T00:00:00	2024-11-08T17:00:00	5	Humedad	60
158845	7	Sololá	713	San Lucas Tolimán	10	San Lucas Tolimán	11	Noviembre	2023-12-11T00:00:00	2024-11-08T17:00:00	6	Velocidad del viento	4.8
158846	7	Sololá	713	San Lucas Tolimán	10	San Lucas Tolimán	11	Noviembre	2023-12-11T00:00:00	2024-11-08T17:00:00	7	Dirección del viento	4.83
158847	7	Sololá	713	San Lucas Tolimán	10	San Lucas Tolimán	11	Noviembre	2023-12-11T00:00:00	2024-11-08T17:00:00	1	Precipitación	0
158848	7	Sololá	713	San Lucas Tolimán	10	San Lucas Tolimán	11	Noviembre	2023-12-11T00:00:00	2024-11-08T17:00:00	8	Radiación solar	49
158849	7	Sololá	713	San Lucas Tolimán	10	San Lucas Tolimán	11	Noviembre	2023-12-11T00:00:00	2024-11-08T18:00:00	2	Temperatura media	22.1
158850	7	Sololá	713	San Lucas Tolimán	10	San Lucas Tolimán	11	Noviembre	2023-12-11T00:00:00	2024-11-08T18:00:00	4	Temperatura máxima	22.8
158851	7	Sololá	713	San Lucas Tolimán	10	San Lucas Tolimán	11	Noviembre	2023-12-11T00:00:00	2024-11-08T18:00:00	3	Temperatura mínima	21.9
158852	7	Sololá	713	San Lucas Tolimán	10	San Lucas Tolimán	11	Noviembre	2023-12-11T00:00:00	2024-11-08T18:00:00	5	Humedad	51
158853	7	Sololá	713	San Lucas Tolimán	10	San Lucas Tolimán	11	Noviembre	2023-12-11T00:00:00	2024-11-08T18:00:00	6	Velocidad del viento	9.7
158854	7	Sololá	713	San Lucas Tolimán	10	San Lucas Tolimán	11	Noviembre	2023-12-11T00:00:00	2024-11-08T18:00:00	7	Dirección del viento	9.66
158855	7	Sololá	713	San Lucas Tolimán	10	San Lucas Tolimán	11	Noviembre	2023-12-11T00:00:00	2024-11-08T18:00:00	1	Precipitación	0
158856	7	Sololá	713	San Lucas Tolimán	10	San Lucas Tolimán	11	Noviembre	2023-12-11T00:00:00	2024-11-08T18:00:00	8	Radiación solar	6
158857	7	Sololá	713	San Lucas Tolimán	10	San Lucas Tolimán	11	Noviembre	2023-12-11T00:00:00	2024-11-08T19:00:00	2	Temperatura media	21.7
158858	7	Sololá	713	San Lucas Tolimán	10	San Lucas Tolimán	11	Noviembre	2023-12-11T00:00:00	2024-11-08T19:00:00	4	Temperatura máxima	22.1
158859	7	Sololá	713	San Lucas Tolimán	10	San Lucas Tolimán	11	Noviembre	2023-12-11T00:00:00	2024-11-08T19:00:00	3	Temperatura mínima	21.6
158860	7	Sololá	713	San Lucas Tolimán	10	San Lucas Tolimán	11	Noviembre	2023-12-11T00:00:00	2024-11-08T19:00:00	5	Humedad	52
158861	7	Sololá	713	San Lucas Tolimán	10	San Lucas Tolimán	11	Noviembre	2023-12-11T00:00:00	2024-11-08T19:00:00	6	Velocidad del viento	22.5
158862	7	Sololá	713	San Lucas Tolimán	10	San Lucas Tolimán	11	Noviembre	2023-12-11T00:00:00	2024-11-08T19:00:00	7	Dirección del viento	22.53
158863	7	Sololá	713	San Lucas Tolimán	10	San Lucas Tolimán	11	Noviembre	2023-12-11T00:00:00	2024-11-08T19:00:00	1	Precipitación	0
158864	7	Sololá	713	San Lucas Tolimán	10	San Lucas Tolimán	11	Noviembre	2023-12-11T00:00:00	2024-11-08T19:00:00	8	Radiación solar	0
158865	7	Sololá	713	San Lucas Tolimán	10	San Lucas Tolimán	11	Noviembre	2023-12-11T00:00:00	2024-11-08T20:00:00	2	Temperatura media	21.6
158866	7	Sololá	713	San Lucas Tolimán	10	San Lucas Tolimán	11	Noviembre	2023-12-11T00:00:00	2024-11-08T20:00:00	4	Temperatura máxima	21.8
158867	7	Sololá	713	San Lucas Tolimán	10	San Lucas Tolimán	11	Noviembre	2023-12-11T00:00:00	2024-11-08T20:00:00	3	Temperatura mínima	21.3
158868	7	Sololá	713	San Lucas Tolimán	10	San Lucas Tolimán	11	Noviembre	2023-12-11T00:00:00	2024-11-08T20:00:00	5	Humedad	51
158869	7	Sololá	713	San Lucas Tolimán	10	San Lucas Tolimán	11	Noviembre	2023-12-11T00:00:00	2024-11-08T20:00:00	6	Velocidad del viento	16.1
158870	7	Sololá	713	San Lucas Tolimán	10	San Lucas Tolimán	11	Noviembre	2023-12-11T00:00:00	2024-11-08T20:00:00	7	Dirección del viento	16.09
158871	7	Sololá	713	San Lucas Tolimán	10	San Lucas Tolimán	11	Noviembre	2023-12-11T00:00:00	2024-11-08T20:00:00	1	Precipitación	0
158872	7	Sololá	713	San Lucas Tolimán	10	San Lucas Tolimán	11	Noviembre	2023-12-11T00:00:00	2024-11-08T20:00:00	8	Radiación solar	0
158873	7	Sololá	713	San Lucas Tolimán	10	San Lucas Tolimán	11	Noviembre	2023-12-11T00:00:00	2024-11-08T21:00:00	2	Temperatura media	21
158874	7	Sololá	713	San Lucas Tolimán	10	San Lucas Tolimán	11	Noviembre	2023-12-11T00:00:00	2024-11-08T21:00:00	4	Temperatura máxima	21.6
158875	7	Sololá	713	San Lucas Tolimán	10	San Lucas Tolimán	11	Noviembre	2023-12-11T00:00:00	2024-11-08T21:00:00	3	Temperatura mínima	20.9
158876	7	Sololá	713	San Lucas Tolimán	10	San Lucas Tolimán	11	Noviembre	2023-12-11T00:00:00	2024-11-08T21:00:00	5	Humedad	53
158877	7	Sololá	713	San Lucas Tolimán	10	San Lucas Tolimán	11	Noviembre	2023-12-11T00:00:00	2024-11-08T21:00:00	6	Velocidad del viento	14.5
158878	7	Sololá	713	San Lucas Tolimán	10	San Lucas Tolimán	11	Noviembre	2023-12-11T00:00:00	2024-11-08T21:00:00	7	Dirección del viento	14.48
158879	7	Sololá	713	San Lucas Tolimán	10	San Lucas Tolimán	11	Noviembre	2023-12-11T00:00:00	2024-11-08T21:00:00	1	Precipitación	0
158880	7	Sololá	713	San Lucas Tolimán	10	San Lucas Tolimán	11	Noviembre	2023-12-11T00:00:00	2024-11-08T21:00:00	8	Radiación solar	0
158881	7	Sololá	713	San Lucas Tolimán	10	San Lucas Tolimán	11	Noviembre	2023-12-11T00:00:00	2024-11-08T22:00:00	2	Temperatura media	20.7
158882	7	Sololá	713	San Lucas Tolimán	10	San Lucas Tolimán	11	Noviembre	2023-12-11T00:00:00	2024-11-08T22:00:00	4	Temperatura máxima	21.1
158883	7	Sololá	713	San Lucas Tolimán	10	San Lucas Tolimán	11	Noviembre	2023-12-11T00:00:00	2024-11-08T22:00:00	3	Temperatura mínima	20.7
158884	7	Sololá	713	San Lucas Tolimán	10	San Lucas Tolimán	11	Noviembre	2023-12-11T00:00:00	2024-11-08T22:00:00	5	Humedad	55
158885	7	Sololá	713	San Lucas Tolimán	10	San Lucas Tolimán	11	Noviembre	2023-12-11T00:00:00	2024-11-08T22:00:00	6	Velocidad del viento	8
158886	7	Sololá	713	San Lucas Tolimán	10	San Lucas Tolimán	11	Noviembre	2023-12-11T00:00:00	2024-11-08T22:00:00	7	Dirección del viento	8.05
158887	7	Sololá	713	San Lucas Tolimán	10	San Lucas Tolimán	11	Noviembre	2023-12-11T00:00:00	2024-11-08T22:00:00	1	Precipitación	0
158888	7	Sololá	713	San Lucas Tolimán	10	San Lucas Tolimán	11	Noviembre	2023-12-11T00:00:00	2024-11-08T22:00:00	8	Radiación solar	0
158889	7	Sololá	713	San Lucas Tolimán	10	San Lucas Tolimán	11	Noviembre	2023-12-11T00:00:00	2024-11-08T23:00:00	2	Temperatura media	20.4
158890	7	Sololá	713	San Lucas Tolimán	10	San Lucas Tolimán	11	Noviembre	2023-12-11T00:00:00	2024-11-08T23:00:00	4	Temperatura máxima	20.7
158891	7	Sololá	713	San Lucas Tolimán	10	San Lucas Tolimán	11	Noviembre	2023-12-11T00:00:00	2024-11-08T23:00:00	3	Temperatura mínima	20.1
158892	7	Sololá	713	San Lucas Tolimán	10	San Lucas Tolimán	11	Noviembre	2023-12-11T00:00:00	2024-11-08T23:00:00	5	Humedad	56
158893	7	Sololá	713	San Lucas Tolimán	10	San Lucas Tolimán	11	Noviembre	2023-12-11T00:00:00	2024-11-08T23:00:00	6	Velocidad del viento	3.2
158894	7	Sololá	713	San Lucas Tolimán	10	San Lucas Tolimán	11	Noviembre	2023-12-11T00:00:00	2024-11-08T23:00:00	7	Dirección del viento	3.22
158895	7	Sololá	713	San Lucas Tolimán	10	San Lucas Tolimán	11	Noviembre	2023-12-11T00:00:00	2024-11-08T23:00:00	1	Precipitación	0
158896	7	Sololá	713	San Lucas Tolimán	10	San Lucas Tolimán	11	Noviembre	2023-12-11T00:00:00	2024-11-08T23:00:00	8	Radiación solar	0
158897	7	Sololá	713	San Lucas Tolimán	10	San Lucas Tolimán	11	Noviembre	2023-11-13T00:00:00	2024-11-08T00:00:00	2	Temperatura media	19.9
158898	7	Sololá	713	San Lucas Tolimán	10	San Lucas Tolimán	11	Noviembre	2023-11-13T00:00:00	2024-11-08T00:00:00	4	Temperatura máxima	20.4
158899	7	Sololá	713	San Lucas Tolimán	10	San Lucas Tolimán	11	Noviembre	2023-11-13T00:00:00	2024-11-08T00:00:00	3	Temperatura mínima	19.9
158900	7	Sololá	713	San Lucas Tolimán	10	San Lucas Tolimán	11	Noviembre	2023-11-13T00:00:00	2024-11-08T00:00:00	5	Humedad	57
158901	7	Sololá	713	San Lucas Tolimán	10	San Lucas Tolimán	11	Noviembre	2023-11-13T00:00:00	2024-11-08T00:00:00	6	Velocidad del viento	3.2
158902	7	Sololá	713	San Lucas Tolimán	10	San Lucas Tolimán	11	Noviembre	2023-11-13T00:00:00	2024-11-08T00:00:00	7	Dirección del viento	3.22
158903	7	Sololá	713	San Lucas Tolimán	10	San Lucas Tolimán	11	Noviembre	2023-11-13T00:00:00	2024-11-08T00:00:00	1	Precipitación	0
158904	7	Sololá	713	San Lucas Tolimán	10	San Lucas Tolimán	11	Noviembre	2023-11-13T00:00:00	2024-11-08T00:00:00	8	Radiación solar	0
158905	7	Sololá	713	San Lucas Tolimán	10	San Lucas Tolimán	11	Noviembre	2023-11-13T00:00:00	2024-11-08T01:00:00	2	Temperatura media	19.3
158906	7	Sololá	713	San Lucas Tolimán	10	San Lucas Tolimán	11	Noviembre	2023-11-13T00:00:00	2024-11-08T01:00:00	4	Temperatura máxima	19.9
158907	7	Sololá	713	San Lucas Tolimán	10	San Lucas Tolimán	11	Noviembre	2023-11-13T00:00:00	2024-11-08T01:00:00	3	Temperatura mínima	19.2
158908	7	Sololá	713	San Lucas Tolimán	10	San Lucas Tolimán	11	Noviembre	2023-11-13T00:00:00	2024-11-08T01:00:00	5	Humedad	58
158909	7	Sololá	713	San Lucas Tolimán	10	San Lucas Tolimán	11	Noviembre	2023-11-13T00:00:00	2024-11-08T01:00:00	6	Velocidad del viento	3.2
158910	7	Sololá	713	San Lucas Tolimán	10	San Lucas Tolimán	11	Noviembre	2023-11-13T00:00:00	2024-11-08T01:00:00	7	Dirección del viento	3.22
158911	7	Sololá	713	San Lucas Tolimán	10	San Lucas Tolimán	11	Noviembre	2023-11-13T00:00:00	2024-11-08T01:00:00	1	Precipitación	0
158912	7	Sololá	713	San Lucas Tolimán	10	San Lucas Tolimán	11	Noviembre	2023-11-13T00:00:00	2024-11-08T01:00:00	8	Radiación solar	0
158913	7	Sololá	713	San Lucas Tolimán	10	San Lucas Tolimán	11	Noviembre	2023-11-13T00:00:00	2024-11-08T02:00:00	2	Temperatura media	18.6
158914	7	Sololá	713	San Lucas Tolimán	10	San Lucas Tolimán	11	Noviembre	2023-11-13T00:00:00	2024-11-08T02:00:00	4	Temperatura máxima	19.3
158915	7	Sololá	713	San Lucas Tolimán	10	San Lucas Tolimán	11	Noviembre	2023-11-13T00:00:00	2024-11-08T02:00:00	3	Temperatura mínima	18.3
158916	7	Sololá	713	San Lucas Tolimán	10	San Lucas Tolimán	11	Noviembre	2023-11-13T00:00:00	2024-11-08T02:00:00	5	Humedad	58
158917	7	Sololá	713	San Lucas Tolimán	10	San Lucas Tolimán	11	Noviembre	2023-11-13T00:00:00	2024-11-08T02:00:00	6	Velocidad del viento	1.6
158918	7	Sololá	713	San Lucas Tolimán	10	San Lucas Tolimán	11	Noviembre	2023-11-13T00:00:00	2024-11-08T02:00:00	7	Dirección del viento	1.61
158919	7	Sololá	713	San Lucas Tolimán	10	San Lucas Tolimán	11	Noviembre	2023-11-13T00:00:00	2024-11-08T02:00:00	1	Precipitación	0
158920	7	Sololá	713	San Lucas Tolimán	10	San Lucas Tolimán	11	Noviembre	2023-11-13T00:00:00	2024-11-08T02:00:00	8	Radiación solar	0
158921	7	Sololá	713	San Lucas Tolimán	10	San Lucas Tolimán	11	Noviembre	2023-11-13T00:00:00	2024-11-08T03:00:00	2	Temperatura media	18.8
158922	7	Sololá	713	San Lucas Tolimán	10	San Lucas Tolimán	11	Noviembre	2023-11-13T00:00:00	2024-11-08T03:00:00	4	Temperatura máxima	18.8
158923	7	Sololá	713	San Lucas Tolimán	10	San Lucas Tolimán	11	Noviembre	2023-11-13T00:00:00	2024-11-08T03:00:00	3	Temperatura mínima	18.5
158924	7	Sololá	713	San Lucas Tolimán	10	San Lucas Tolimán	11	Noviembre	2023-11-13T00:00:00	2024-11-08T03:00:00	5	Humedad	58
158925	7	Sololá	713	San Lucas Tolimán	10	San Lucas Tolimán	11	Noviembre	2023-11-13T00:00:00	2024-11-08T03:00:00	6	Velocidad del viento	4.8
158926	7	Sololá	713	San Lucas Tolimán	10	San Lucas Tolimán	11	Noviembre	2023-11-13T00:00:00	2024-11-08T03:00:00	7	Dirección del viento	4.83
158927	7	Sololá	713	San Lucas Tolimán	10	San Lucas Tolimán	11	Noviembre	2023-11-13T00:00:00	2024-11-08T03:00:00	1	Precipitación	0
158928	7	Sololá	713	San Lucas Tolimán	10	San Lucas Tolimán	11	Noviembre	2023-11-13T00:00:00	2024-11-08T03:00:00	8	Radiación solar	0
158929	7	Sololá	713	San Lucas Tolimán	10	San Lucas Tolimán	11	Noviembre	2023-11-13T00:00:00	2024-11-08T04:00:00	2	Temperatura media	18.6
158930	7	Sololá	713	San Lucas Tolimán	10	San Lucas Tolimán	11	Noviembre	2023-11-13T00:00:00	2024-11-08T04:00:00	4	Temperatura máxima	18.9
158931	7	Sololá	713	San Lucas Tolimán	10	San Lucas Tolimán	11	Noviembre	2023-11-13T00:00:00	2024-11-08T04:00:00	3	Temperatura mínima	18.6
158932	7	Sololá	713	San Lucas Tolimán	10	San Lucas Tolimán	11	Noviembre	2023-11-13T00:00:00	2024-11-08T04:00:00	5	Humedad	55
158933	7	Sololá	713	San Lucas Tolimán	10	San Lucas Tolimán	11	Noviembre	2023-11-13T00:00:00	2024-11-08T04:00:00	6	Velocidad del viento	3.2
158934	7	Sololá	713	San Lucas Tolimán	10	San Lucas Tolimán	11	Noviembre	2023-11-13T00:00:00	2024-11-08T04:00:00	7	Dirección del viento	3.22
158935	7	Sololá	713	San Lucas Tolimán	10	San Lucas Tolimán	11	Noviembre	2023-11-13T00:00:00	2024-11-08T04:00:00	1	Precipitación	0
158936	7	Sololá	713	San Lucas Tolimán	10	San Lucas Tolimán	11	Noviembre	2023-11-13T00:00:00	2024-11-08T04:00:00	8	Radiación solar	0
158937	7	Sololá	713	San Lucas Tolimán	10	San Lucas Tolimán	11	Noviembre	2023-11-13T00:00:00	2024-11-08T05:00:00	2	Temperatura media	18.5
158938	7	Sololá	713	San Lucas Tolimán	10	San Lucas Tolimán	11	Noviembre	2023-11-13T00:00:00	2024-11-08T05:00:00	4	Temperatura máxima	18.9
158939	7	Sololá	713	San Lucas Tolimán	10	San Lucas Tolimán	11	Noviembre	2023-11-13T00:00:00	2024-11-08T05:00:00	3	Temperatura mínima	18.5
158940	7	Sololá	713	San Lucas Tolimán	10	San Lucas Tolimán	11	Noviembre	2023-11-13T00:00:00	2024-11-08T05:00:00	5	Humedad	57
158941	7	Sololá	713	San Lucas Tolimán	10	San Lucas Tolimán	11	Noviembre	2023-11-13T00:00:00	2024-11-08T05:00:00	6	Velocidad del viento	4.8
158942	7	Sololá	713	San Lucas Tolimán	10	San Lucas Tolimán	11	Noviembre	2023-11-13T00:00:00	2024-11-08T05:00:00	7	Dirección del viento	4.83
158943	7	Sololá	713	San Lucas Tolimán	10	San Lucas Tolimán	11	Noviembre	2023-11-13T00:00:00	2024-11-08T05:00:00	1	Precipitación	0
158944	7	Sololá	713	San Lucas Tolimán	10	San Lucas Tolimán	11	Noviembre	2023-11-13T00:00:00	2024-11-08T05:00:00	8	Radiación solar	0
158945	7	Sololá	713	San Lucas Tolimán	10	San Lucas Tolimán	11	Noviembre	2023-11-13T00:00:00	2024-11-08T06:00:00	2	Temperatura media	18.4
158946	7	Sololá	713	San Lucas Tolimán	10	San Lucas Tolimán	11	Noviembre	2023-11-13T00:00:00	2024-11-08T06:00:00	4	Temperatura máxima	18.6
158947	7	Sololá	713	San Lucas Tolimán	10	San Lucas Tolimán	11	Noviembre	2023-11-13T00:00:00	2024-11-08T06:00:00	3	Temperatura mínima	18.3
158948	7	Sololá	713	San Lucas Tolimán	10	San Lucas Tolimán	11	Noviembre	2023-11-13T00:00:00	2024-11-08T06:00:00	5	Humedad	58
158949	7	Sololá	713	San Lucas Tolimán	10	San Lucas Tolimán	11	Noviembre	2023-11-13T00:00:00	2024-11-08T06:00:00	6	Velocidad del viento	3.2
158950	7	Sololá	713	San Lucas Tolimán	10	San Lucas Tolimán	11	Noviembre	2023-11-13T00:00:00	2024-11-08T06:00:00	7	Dirección del viento	3.22
158951	7	Sololá	713	San Lucas Tolimán	10	San Lucas Tolimán	11	Noviembre	2023-11-13T00:00:00	2024-11-08T06:00:00	1	Precipitación	0
158952	7	Sololá	713	San Lucas Tolimán	10	San Lucas Tolimán	11	Noviembre	2023-11-13T00:00:00	2024-11-08T06:00:00	8	Radiación solar	0
158953	7	Sololá	713	San Lucas Tolimán	10	San Lucas Tolimán	11	Noviembre	2023-11-13T00:00:00	2024-11-08T07:00:00	2	Temperatura media	19.4
158954	7	Sololá	713	San Lucas Tolimán	10	San Lucas Tolimán	11	Noviembre	2023-11-13T00:00:00	2024-11-08T07:00:00	4	Temperatura máxima	19.5
158955	7	Sololá	713	San Lucas Tolimán	10	San Lucas Tolimán	11	Noviembre	2023-11-13T00:00:00	2024-11-08T07:00:00	3	Temperatura mínima	18.3
158956	7	Sololá	713	San Lucas Tolimán	10	San Lucas Tolimán	11	Noviembre	2023-11-13T00:00:00	2024-11-08T07:00:00	5	Humedad	58
158957	7	Sololá	713	San Lucas Tolimán	10	San Lucas Tolimán	11	Noviembre	2023-11-13T00:00:00	2024-11-08T07:00:00	6	Velocidad del viento	3.2
158958	7	Sololá	713	San Lucas Tolimán	10	San Lucas Tolimán	11	Noviembre	2023-11-13T00:00:00	2024-11-08T07:00:00	7	Dirección del viento	3.22
158959	7	Sololá	713	San Lucas Tolimán	10	San Lucas Tolimán	11	Noviembre	2023-11-13T00:00:00	2024-11-08T07:00:00	1	Precipitación	0
158960	7	Sololá	713	San Lucas Tolimán	10	San Lucas Tolimán	11	Noviembre	2023-11-13T00:00:00	2024-11-08T07:00:00	8	Radiación solar	23
158961	7	Sololá	713	San Lucas Tolimán	10	San Lucas Tolimán	11	Noviembre	2023-11-13T00:00:00	2024-11-08T08:00:00	2	Temperatura media	20.4
158962	7	Sololá	713	San Lucas Tolimán	10	San Lucas Tolimán	11	Noviembre	2023-11-13T00:00:00	2024-11-08T08:00:00	4	Temperatura máxima	20.4
158963	7	Sololá	713	San Lucas Tolimán	10	San Lucas Tolimán	11	Noviembre	2023-11-13T00:00:00	2024-11-08T08:00:00	3	Temperatura mínima	19.1
158964	7	Sololá	713	San Lucas Tolimán	10	San Lucas Tolimán	11	Noviembre	2023-11-13T00:00:00	2024-11-08T08:00:00	5	Humedad	56
158965	7	Sololá	713	San Lucas Tolimán	10	San Lucas Tolimán	11	Noviembre	2023-11-13T00:00:00	2024-11-08T08:00:00	6	Velocidad del viento	4.8
158966	7	Sololá	713	San Lucas Tolimán	10	San Lucas Tolimán	11	Noviembre	2023-11-13T00:00:00	2024-11-08T08:00:00	7	Dirección del viento	4.83
158967	7	Sololá	713	San Lucas Tolimán	10	San Lucas Tolimán	11	Noviembre	2023-11-13T00:00:00	2024-11-08T08:00:00	1	Precipitación	0
158968	7	Sololá	713	San Lucas Tolimán	10	San Lucas Tolimán	11	Noviembre	2023-11-13T00:00:00	2024-11-08T08:00:00	8	Radiación solar	92
158969	7	Sololá	713	San Lucas Tolimán	10	San Lucas Tolimán	11	Noviembre	2023-11-13T00:00:00	2024-11-08T09:00:00	2	Temperatura media	23.7
158970	7	Sololá	713	San Lucas Tolimán	10	San Lucas Tolimán	11	Noviembre	2023-11-13T00:00:00	2024-11-08T09:00:00	4	Temperatura máxima	23.8
158971	7	Sololá	713	San Lucas Tolimán	10	San Lucas Tolimán	11	Noviembre	2023-11-13T00:00:00	2024-11-08T09:00:00	3	Temperatura mínima	20.4
158972	7	Sololá	713	San Lucas Tolimán	10	San Lucas Tolimán	11	Noviembre	2023-11-13T00:00:00	2024-11-08T09:00:00	5	Humedad	48
158973	7	Sololá	713	San Lucas Tolimán	10	San Lucas Tolimán	11	Noviembre	2023-11-13T00:00:00	2024-11-08T09:00:00	6	Velocidad del viento	4.8
158974	7	Sololá	713	San Lucas Tolimán	10	San Lucas Tolimán	11	Noviembre	2023-11-13T00:00:00	2024-11-08T09:00:00	7	Dirección del viento	4.83
158975	7	Sololá	713	San Lucas Tolimán	10	San Lucas Tolimán	11	Noviembre	2023-11-13T00:00:00	2024-11-08T09:00:00	1	Precipitación	0
158976	7	Sololá	713	San Lucas Tolimán	10	San Lucas Tolimán	11	Noviembre	2023-11-13T00:00:00	2024-11-08T09:00:00	8	Radiación solar	431
158977	7	Sololá	713	San Lucas Tolimán	10	San Lucas Tolimán	11	Noviembre	2023-11-13T00:00:00	2024-11-08T10:00:00	2	Temperatura media	22.7
158978	7	Sololá	713	San Lucas Tolimán	10	San Lucas Tolimán	11	Noviembre	2023-11-13T00:00:00	2024-11-08T10:00:00	4	Temperatura máxima	24.2
158979	7	Sololá	713	San Lucas Tolimán	10	San Lucas Tolimán	11	Noviembre	2023-11-13T00:00:00	2024-11-08T10:00:00	3	Temperatura mínima	22.7
158980	7	Sololá	713	San Lucas Tolimán	10	San Lucas Tolimán	11	Noviembre	2023-11-13T00:00:00	2024-11-08T10:00:00	5	Humedad	51
158981	7	Sololá	713	San Lucas Tolimán	10	San Lucas Tolimán	11	Noviembre	2023-11-13T00:00:00	2024-11-08T10:00:00	6	Velocidad del viento	8
158982	7	Sololá	713	San Lucas Tolimán	10	San Lucas Tolimán	11	Noviembre	2023-11-13T00:00:00	2024-11-08T10:00:00	7	Dirección del viento	8.05
158983	7	Sololá	713	San Lucas Tolimán	10	San Lucas Tolimán	11	Noviembre	2023-11-13T00:00:00	2024-11-08T10:00:00	1	Precipitación	0
158984	7	Sololá	713	San Lucas Tolimán	10	San Lucas Tolimán	11	Noviembre	2023-11-13T00:00:00	2024-11-08T10:00:00	8	Radiación solar	501
158985	7	Sololá	713	San Lucas Tolimán	10	San Lucas Tolimán	11	Noviembre	2023-11-13T00:00:00	2024-11-08T11:00:00	2	Temperatura media	24.8
158986	7	Sololá	713	San Lucas Tolimán	10	San Lucas Tolimán	11	Noviembre	2023-11-13T00:00:00	2024-11-08T11:00:00	4	Temperatura máxima	24.8
158987	7	Sololá	713	San Lucas Tolimán	10	San Lucas Tolimán	11	Noviembre	2023-11-13T00:00:00	2024-11-08T11:00:00	3	Temperatura mínima	22.7
158988	7	Sololá	713	San Lucas Tolimán	10	San Lucas Tolimán	11	Noviembre	2023-11-13T00:00:00	2024-11-08T11:00:00	5	Humedad	47
158989	7	Sololá	713	San Lucas Tolimán	10	San Lucas Tolimán	11	Noviembre	2023-11-13T00:00:00	2024-11-08T11:00:00	6	Velocidad del viento	6.4
158990	7	Sololá	713	San Lucas Tolimán	10	San Lucas Tolimán	11	Noviembre	2023-11-13T00:00:00	2024-11-08T11:00:00	7	Dirección del viento	6.44
158991	7	Sololá	713	San Lucas Tolimán	10	San Lucas Tolimán	11	Noviembre	2023-11-13T00:00:00	2024-11-08T11:00:00	1	Precipitación	0
158992	7	Sololá	713	San Lucas Tolimán	10	San Lucas Tolimán	11	Noviembre	2023-11-13T00:00:00	2024-11-08T11:00:00	8	Radiación solar	646
158993	7	Sololá	713	San Lucas Tolimán	10	San Lucas Tolimán	11	Noviembre	2023-11-13T00:00:00	2024-11-08T12:00:00	2	Temperatura media	26.2
158994	7	Sololá	713	San Lucas Tolimán	10	San Lucas Tolimán	11	Noviembre	2023-11-13T00:00:00	2024-11-08T12:00:00	4	Temperatura máxima	26.2
158995	7	Sololá	713	San Lucas Tolimán	10	San Lucas Tolimán	11	Noviembre	2023-11-13T00:00:00	2024-11-08T12:00:00	3	Temperatura mínima	24.4
158996	7	Sololá	713	San Lucas Tolimán	10	San Lucas Tolimán	11	Noviembre	2023-11-13T00:00:00	2024-11-08T12:00:00	5	Humedad	48
158997	7	Sololá	713	San Lucas Tolimán	10	San Lucas Tolimán	11	Noviembre	2023-11-13T00:00:00	2024-11-08T12:00:00	6	Velocidad del viento	6.4
158998	7	Sololá	713	San Lucas Tolimán	10	San Lucas Tolimán	11	Noviembre	2023-11-13T00:00:00	2024-11-08T12:00:00	7	Dirección del viento	6.44
158999	7	Sololá	713	San Lucas Tolimán	10	San Lucas Tolimán	11	Noviembre	2023-11-13T00:00:00	2024-11-08T12:00:00	1	Precipitación	0
159000	7	Sololá	713	San Lucas Tolimán	10	San Lucas Tolimán	11	Noviembre	2023-11-13T00:00:00	2024-11-08T12:00:00	8	Radiación solar	941
159001	7	Sololá	713	San Lucas Tolimán	10	San Lucas Tolimán	11	Noviembre	2023-11-13T00:00:00	2024-11-08T13:00:00	2	Temperatura media	24.5
159002	7	Sololá	713	San Lucas Tolimán	10	San Lucas Tolimán	11	Noviembre	2023-11-13T00:00:00	2024-11-08T13:00:00	4	Temperatura máxima	26.3
159003	7	Sololá	713	San Lucas Tolimán	10	San Lucas Tolimán	11	Noviembre	2023-11-13T00:00:00	2024-11-08T13:00:00	3	Temperatura mínima	23.5
159004	7	Sololá	713	San Lucas Tolimán	10	San Lucas Tolimán	11	Noviembre	2023-11-13T00:00:00	2024-11-08T13:00:00	5	Humedad	59
159005	7	Sololá	713	San Lucas Tolimán	10	San Lucas Tolimán	11	Noviembre	2023-11-13T00:00:00	2024-11-08T13:00:00	6	Velocidad del viento	9.7
159006	7	Sololá	713	San Lucas Tolimán	10	San Lucas Tolimán	11	Noviembre	2023-11-13T00:00:00	2024-11-08T13:00:00	7	Dirección del viento	9.66
159007	7	Sololá	713	San Lucas Tolimán	10	San Lucas Tolimán	11	Noviembre	2023-11-13T00:00:00	2024-11-08T13:00:00	1	Precipitación	0
159008	7	Sololá	713	San Lucas Tolimán	10	San Lucas Tolimán	11	Noviembre	2023-11-13T00:00:00	2024-11-08T13:00:00	8	Radiación solar	503
159009	7	Sololá	713	San Lucas Tolimán	10	San Lucas Tolimán	11	Noviembre	2023-11-13T00:00:00	2024-11-08T14:00:00	2	Temperatura media	23.7
159010	7	Sololá	713	San Lucas Tolimán	10	San Lucas Tolimán	11	Noviembre	2023-11-13T00:00:00	2024-11-08T14:00:00	4	Temperatura máxima	24.7
159011	7	Sololá	713	San Lucas Tolimán	10	San Lucas Tolimán	11	Noviembre	2023-11-13T00:00:00	2024-11-08T14:00:00	3	Temperatura mínima	22.9
159012	7	Sololá	713	San Lucas Tolimán	10	San Lucas Tolimán	11	Noviembre	2023-11-13T00:00:00	2024-11-08T14:00:00	5	Humedad	60
159013	7	Sololá	713	San Lucas Tolimán	10	San Lucas Tolimán	11	Noviembre	2023-11-13T00:00:00	2024-11-08T14:00:00	6	Velocidad del viento	9.7
159014	7	Sololá	713	San Lucas Tolimán	10	San Lucas Tolimán	11	Noviembre	2023-11-13T00:00:00	2024-11-08T14:00:00	7	Dirección del viento	9.66
159015	7	Sololá	713	San Lucas Tolimán	10	San Lucas Tolimán	11	Noviembre	2023-11-13T00:00:00	2024-11-08T14:00:00	1	Precipitación	0
159016	7	Sololá	713	San Lucas Tolimán	10	San Lucas Tolimán	11	Noviembre	2023-11-13T00:00:00	2024-11-08T14:00:00	8	Radiación solar	372
159017	7	Sololá	713	San Lucas Tolimán	10	San Lucas Tolimán	11	Noviembre	2023-11-13T00:00:00	2024-11-08T15:00:00	2	Temperatura media	23.2
159018	7	Sololá	713	San Lucas Tolimán	10	San Lucas Tolimán	11	Noviembre	2023-11-13T00:00:00	2024-11-08T15:00:00	4	Temperatura máxima	23.6
159019	7	Sololá	713	San Lucas Tolimán	10	San Lucas Tolimán	11	Noviembre	2023-11-13T00:00:00	2024-11-08T15:00:00	3	Temperatura mínima	22.4
159020	7	Sololá	713	San Lucas Tolimán	10	San Lucas Tolimán	11	Noviembre	2023-11-13T00:00:00	2024-11-08T15:00:00	5	Humedad	59
159021	7	Sololá	713	San Lucas Tolimán	10	San Lucas Tolimán	11	Noviembre	2023-11-13T00:00:00	2024-11-08T15:00:00	6	Velocidad del viento	8
159022	7	Sololá	713	San Lucas Tolimán	10	San Lucas Tolimán	11	Noviembre	2023-11-13T00:00:00	2024-11-08T15:00:00	7	Dirección del viento	8.05
159023	7	Sololá	713	San Lucas Tolimán	10	San Lucas Tolimán	11	Noviembre	2023-11-13T00:00:00	2024-11-08T15:00:00	1	Precipitación	0
159024	7	Sololá	713	San Lucas Tolimán	10	San Lucas Tolimán	11	Noviembre	2023-11-13T00:00:00	2024-11-08T15:00:00	8	Radiación solar	343
159025	7	Sololá	713	San Lucas Tolimán	10	San Lucas Tolimán	11	Noviembre	2023-11-13T00:00:00	2024-11-08T16:00:00	2	Temperatura media	22.4
159026	7	Sololá	713	San Lucas Tolimán	10	San Lucas Tolimán	11	Noviembre	2023-11-13T00:00:00	2024-11-08T16:00:00	4	Temperatura máxima	23.3
159027	7	Sololá	713	San Lucas Tolimán	10	San Lucas Tolimán	11	Noviembre	2023-11-13T00:00:00	2024-11-08T16:00:00	3	Temperatura mínima	21.9
159028	7	Sololá	713	San Lucas Tolimán	10	San Lucas Tolimán	11	Noviembre	2023-11-13T00:00:00	2024-11-08T16:00:00	5	Humedad	58
159029	7	Sololá	713	San Lucas Tolimán	10	San Lucas Tolimán	11	Noviembre	2023-11-13T00:00:00	2024-11-08T16:00:00	6	Velocidad del viento	9.7
159030	7	Sololá	713	San Lucas Tolimán	10	San Lucas Tolimán	11	Noviembre	2023-11-13T00:00:00	2024-11-08T16:00:00	7	Dirección del viento	9.66
159031	7	Sololá	713	San Lucas Tolimán	10	San Lucas Tolimán	11	Noviembre	2023-11-13T00:00:00	2024-11-08T16:00:00	1	Precipitación	0
159032	7	Sololá	713	San Lucas Tolimán	10	San Lucas Tolimán	11	Noviembre	2023-11-13T00:00:00	2024-11-08T16:00:00	8	Radiación solar	269
159033	7	Sololá	713	San Lucas Tolimán	10	San Lucas Tolimán	11	Noviembre	2023-11-13T00:00:00	2024-11-08T17:00:00	2	Temperatura media	20.9
159034	7	Sololá	713	San Lucas Tolimán	10	San Lucas Tolimán	11	Noviembre	2023-11-13T00:00:00	2024-11-08T17:00:00	4	Temperatura máxima	22.6
159035	7	Sololá	713	San Lucas Tolimán	10	San Lucas Tolimán	11	Noviembre	2023-11-13T00:00:00	2024-11-08T17:00:00	3	Temperatura mínima	20.8
159036	7	Sololá	713	San Lucas Tolimán	10	San Lucas Tolimán	11	Noviembre	2023-11-13T00:00:00	2024-11-08T17:00:00	5	Humedad	61
159037	7	Sololá	713	San Lucas Tolimán	10	San Lucas Tolimán	11	Noviembre	2023-11-13T00:00:00	2024-11-08T17:00:00	6	Velocidad del viento	9.7
159038	7	Sololá	713	San Lucas Tolimán	10	San Lucas Tolimán	11	Noviembre	2023-11-13T00:00:00	2024-11-08T17:00:00	7	Dirección del viento	9.66
159039	7	Sololá	713	San Lucas Tolimán	10	San Lucas Tolimán	11	Noviembre	2023-11-13T00:00:00	2024-11-08T17:00:00	1	Precipitación	0
159040	7	Sololá	713	San Lucas Tolimán	10	San Lucas Tolimán	11	Noviembre	2023-11-13T00:00:00	2024-11-08T17:00:00	8	Radiación solar	82
159041	7	Sololá	713	San Lucas Tolimán	10	San Lucas Tolimán	11	Noviembre	2023-11-13T00:00:00	2024-11-08T18:00:00	2	Temperatura media	20.7
159042	7	Sololá	713	San Lucas Tolimán	10	San Lucas Tolimán	11	Noviembre	2023-11-13T00:00:00	2024-11-08T18:00:00	4	Temperatura máxima	20.9
159043	7	Sololá	713	San Lucas Tolimán	10	San Lucas Tolimán	11	Noviembre	2023-11-13T00:00:00	2024-11-08T18:00:00	3	Temperatura mínima	20.7
159044	7	Sololá	713	San Lucas Tolimán	10	San Lucas Tolimán	11	Noviembre	2023-11-13T00:00:00	2024-11-08T18:00:00	5	Humedad	61
159045	7	Sololá	713	San Lucas Tolimán	10	San Lucas Tolimán	11	Noviembre	2023-11-13T00:00:00	2024-11-08T18:00:00	6	Velocidad del viento	4.8
159046	7	Sololá	713	San Lucas Tolimán	10	San Lucas Tolimán	11	Noviembre	2023-11-13T00:00:00	2024-11-08T18:00:00	7	Dirección del viento	4.83
159047	7	Sololá	713	San Lucas Tolimán	10	San Lucas Tolimán	11	Noviembre	2023-11-13T00:00:00	2024-11-08T18:00:00	1	Precipitación	0
159048	7	Sololá	713	San Lucas Tolimán	10	San Lucas Tolimán	11	Noviembre	2023-11-13T00:00:00	2024-11-08T18:00:00	8	Radiación solar	14
159049	7	Sololá	713	San Lucas Tolimán	10	San Lucas Tolimán	11	Noviembre	2023-11-13T00:00:00	2024-11-08T19:00:00	2	Temperatura media	20.3
159050	7	Sololá	713	San Lucas Tolimán	10	San Lucas Tolimán	11	Noviembre	2023-11-13T00:00:00	2024-11-08T19:00:00	4	Temperatura máxima	20.7
159051	7	Sololá	713	San Lucas Tolimán	10	San Lucas Tolimán	11	Noviembre	2023-11-13T00:00:00	2024-11-08T19:00:00	3	Temperatura mínima	20.3
159052	7	Sololá	713	San Lucas Tolimán	10	San Lucas Tolimán	11	Noviembre	2023-11-13T00:00:00	2024-11-08T19:00:00	5	Humedad	61
159053	7	Sololá	713	San Lucas Tolimán	10	San Lucas Tolimán	11	Noviembre	2023-11-13T00:00:00	2024-11-08T19:00:00	6	Velocidad del viento	3.2
159054	7	Sololá	713	San Lucas Tolimán	10	San Lucas Tolimán	11	Noviembre	2023-11-13T00:00:00	2024-11-08T19:00:00	7	Dirección del viento	3.22
159055	7	Sololá	713	San Lucas Tolimán	10	San Lucas Tolimán	11	Noviembre	2023-11-13T00:00:00	2024-11-08T19:00:00	1	Precipitación	0
159056	7	Sololá	713	San Lucas Tolimán	10	San Lucas Tolimán	11	Noviembre	2023-11-13T00:00:00	2024-11-08T19:00:00	8	Radiación solar	0
159057	7	Sololá	713	San Lucas Tolimán	10	San Lucas Tolimán	11	Noviembre	2023-11-13T00:00:00	2024-11-08T20:00:00	2	Temperatura media	20
159058	7	Sololá	713	San Lucas Tolimán	10	San Lucas Tolimán	11	Noviembre	2023-11-13T00:00:00	2024-11-08T20:00:00	4	Temperatura máxima	20.3
159059	7	Sololá	713	San Lucas Tolimán	10	San Lucas Tolimán	11	Noviembre	2023-11-13T00:00:00	2024-11-08T20:00:00	3	Temperatura mínima	19.8
159060	7	Sololá	713	San Lucas Tolimán	10	San Lucas Tolimán	11	Noviembre	2023-11-13T00:00:00	2024-11-08T20:00:00	5	Humedad	57
159061	7	Sololá	713	San Lucas Tolimán	10	San Lucas Tolimán	11	Noviembre	2023-11-13T00:00:00	2024-11-08T20:00:00	6	Velocidad del viento	3.2
159062	7	Sololá	713	San Lucas Tolimán	10	San Lucas Tolimán	11	Noviembre	2023-11-13T00:00:00	2024-11-08T20:00:00	7	Dirección del viento	3.22
159063	7	Sololá	713	San Lucas Tolimán	10	San Lucas Tolimán	11	Noviembre	2023-11-13T00:00:00	2024-11-08T20:00:00	1	Precipitación	0
159064	7	Sololá	713	San Lucas Tolimán	10	San Lucas Tolimán	11	Noviembre	2023-11-13T00:00:00	2024-11-08T20:00:00	8	Radiación solar	0
159065	7	Sololá	713	San Lucas Tolimán	10	San Lucas Tolimán	11	Noviembre	2023-11-13T00:00:00	2024-11-08T21:00:00	2	Temperatura media	19.8
159066	7	Sololá	713	San Lucas Tolimán	10	San Lucas Tolimán	11	Noviembre	2023-11-13T00:00:00	2024-11-08T21:00:00	4	Temperatura máxima	20.2
159067	7	Sololá	713	San Lucas Tolimán	10	San Lucas Tolimán	11	Noviembre	2023-11-13T00:00:00	2024-11-08T21:00:00	3	Temperatura mínima	19.7
159068	7	Sololá	713	San Lucas Tolimán	10	San Lucas Tolimán	11	Noviembre	2023-11-13T00:00:00	2024-11-08T21:00:00	5	Humedad	61
159069	7	Sololá	713	San Lucas Tolimán	10	San Lucas Tolimán	11	Noviembre	2023-11-13T00:00:00	2024-11-08T21:00:00	6	Velocidad del viento	4.8
159070	7	Sololá	713	San Lucas Tolimán	10	San Lucas Tolimán	11	Noviembre	2023-11-13T00:00:00	2024-11-08T21:00:00	7	Dirección del viento	4.83
159071	7	Sololá	713	San Lucas Tolimán	10	San Lucas Tolimán	11	Noviembre	2023-11-13T00:00:00	2024-11-08T21:00:00	1	Precipitación	0
159072	7	Sololá	713	San Lucas Tolimán	10	San Lucas Tolimán	11	Noviembre	2023-11-13T00:00:00	2024-11-08T21:00:00	8	Radiación solar	0
159073	7	Sololá	713	San Lucas Tolimán	10	San Lucas Tolimán	11	Noviembre	2023-11-13T00:00:00	2024-11-08T22:00:00	2	Temperatura media	21.1
159074	7	Sololá	713	San Lucas Tolimán	10	San Lucas Tolimán	11	Noviembre	2023-11-13T00:00:00	2024-11-08T22:00:00	4	Temperatura máxima	21.1
159075	7	Sololá	713	San Lucas Tolimán	10	San Lucas Tolimán	11	Noviembre	2023-11-13T00:00:00	2024-11-08T22:00:00	3	Temperatura mínima	19.6
159076	7	Sololá	713	San Lucas Tolimán	10	San Lucas Tolimán	11	Noviembre	2023-11-13T00:00:00	2024-11-08T22:00:00	5	Humedad	57
159077	7	Sololá	713	San Lucas Tolimán	10	San Lucas Tolimán	11	Noviembre	2023-11-13T00:00:00	2024-11-08T22:00:00	6	Velocidad del viento	3.2
159078	7	Sololá	713	San Lucas Tolimán	10	San Lucas Tolimán	11	Noviembre	2023-11-13T00:00:00	2024-11-08T22:00:00	7	Dirección del viento	3.22
159079	7	Sololá	713	San Lucas Tolimán	10	San Lucas Tolimán	11	Noviembre	2023-11-13T00:00:00	2024-11-08T22:00:00	1	Precipitación	0
159080	7	Sololá	713	San Lucas Tolimán	10	San Lucas Tolimán	11	Noviembre	2023-11-13T00:00:00	2024-11-08T22:00:00	8	Radiación solar	0
159081	7	Sololá	713	San Lucas Tolimán	10	San Lucas Tolimán	11	Noviembre	2023-11-13T00:00:00	2024-11-08T23:00:00	2	Temperatura media	21.2
159082	7	Sololá	713	San Lucas Tolimán	10	San Lucas Tolimán	11	Noviembre	2023-11-13T00:00:00	2024-11-08T23:00:00	4	Temperatura máxima	21.2
159083	7	Sololá	713	San Lucas Tolimán	10	San Lucas Tolimán	11	Noviembre	2023-11-13T00:00:00	2024-11-08T23:00:00	3	Temperatura mínima	20.5
159084	7	Sololá	713	San Lucas Tolimán	10	San Lucas Tolimán	11	Noviembre	2023-11-13T00:00:00	2024-11-08T23:00:00	5	Humedad	55
159085	7	Sololá	713	San Lucas Tolimán	10	San Lucas Tolimán	11	Noviembre	2023-11-13T00:00:00	2024-11-08T23:00:00	6	Velocidad del viento	1.6
159086	7	Sololá	713	San Lucas Tolimán	10	San Lucas Tolimán	11	Noviembre	2023-11-13T00:00:00	2024-11-08T23:00:00	7	Dirección del viento	1.61
159087	7	Sololá	713	San Lucas Tolimán	10	San Lucas Tolimán	11	Noviembre	2023-11-13T00:00:00	2024-11-08T23:00:00	1	Precipitación	0
159088	7	Sololá	713	San Lucas Tolimán	10	San Lucas Tolimán	11	Noviembre	2023-11-13T00:00:00	2024-11-08T23:00:00	8	Radiación solar	0
159089	7	Sololá	713	San Lucas Tolimán	10	San Lucas Tolimán	11	Noviembre	2023-11-14T00:00:00	2024-11-08T00:00:00	2	Temperatura media	21.2
159090	7	Sololá	713	San Lucas Tolimán	10	San Lucas Tolimán	11	Noviembre	2023-11-14T00:00:00	2024-11-08T00:00:00	4	Temperatura máxima	21.3
159091	7	Sololá	713	San Lucas Tolimán	10	San Lucas Tolimán	11	Noviembre	2023-11-14T00:00:00	2024-11-08T00:00:00	3	Temperatura mínima	21.2
159092	7	Sololá	713	San Lucas Tolimán	10	San Lucas Tolimán	11	Noviembre	2023-11-14T00:00:00	2024-11-08T00:00:00	5	Humedad	57
159093	7	Sololá	713	San Lucas Tolimán	10	San Lucas Tolimán	11	Noviembre	2023-11-14T00:00:00	2024-11-08T00:00:00	6	Velocidad del viento	6.4
159094	7	Sololá	713	San Lucas Tolimán	10	San Lucas Tolimán	11	Noviembre	2023-11-14T00:00:00	2024-11-08T00:00:00	7	Dirección del viento	6.44
159095	7	Sololá	713	San Lucas Tolimán	10	San Lucas Tolimán	11	Noviembre	2023-11-14T00:00:00	2024-11-08T00:00:00	1	Precipitación	0
159096	7	Sololá	713	San Lucas Tolimán	10	San Lucas Tolimán	11	Noviembre	2023-11-14T00:00:00	2024-11-08T00:00:00	8	Radiación solar	0
159097	7	Sololá	713	San Lucas Tolimán	10	San Lucas Tolimán	11	Noviembre	2023-11-14T00:00:00	2024-11-08T01:00:00	2	Temperatura media	20.5
159098	7	Sololá	713	San Lucas Tolimán	10	San Lucas Tolimán	11	Noviembre	2023-11-14T00:00:00	2024-11-08T01:00:00	4	Temperatura máxima	21.2
159099	7	Sololá	713	San Lucas Tolimán	10	San Lucas Tolimán	11	Noviembre	2023-11-14T00:00:00	2024-11-08T01:00:00	3	Temperatura mínima	19.9
159100	7	Sololá	713	San Lucas Tolimán	10	San Lucas Tolimán	11	Noviembre	2023-11-14T00:00:00	2024-11-08T01:00:00	5	Humedad	57
159101	7	Sololá	713	San Lucas Tolimán	10	San Lucas Tolimán	11	Noviembre	2023-11-14T00:00:00	2024-11-08T01:00:00	6	Velocidad del viento	3.2
159102	7	Sololá	713	San Lucas Tolimán	10	San Lucas Tolimán	11	Noviembre	2023-11-14T00:00:00	2024-11-08T01:00:00	7	Dirección del viento	3.22
159103	7	Sololá	713	San Lucas Tolimán	10	San Lucas Tolimán	11	Noviembre	2023-11-14T00:00:00	2024-11-08T01:00:00	1	Precipitación	0
159104	7	Sololá	713	San Lucas Tolimán	10	San Lucas Tolimán	11	Noviembre	2023-11-14T00:00:00	2024-11-08T01:00:00	8	Radiación solar	0
159105	7	Sololá	713	San Lucas Tolimán	10	San Lucas Tolimán	11	Noviembre	2023-11-14T00:00:00	2024-11-08T02:00:00	2	Temperatura media	19
159106	7	Sololá	713	San Lucas Tolimán	10	San Lucas Tolimán	11	Noviembre	2023-11-14T00:00:00	2024-11-08T02:00:00	4	Temperatura máxima	21
159107	7	Sololá	713	San Lucas Tolimán	10	San Lucas Tolimán	11	Noviembre	2023-11-14T00:00:00	2024-11-08T02:00:00	3	Temperatura mínima	18.9
159108	7	Sololá	713	San Lucas Tolimán	10	San Lucas Tolimán	11	Noviembre	2023-11-14T00:00:00	2024-11-08T02:00:00	5	Humedad	85
159109	7	Sololá	713	San Lucas Tolimán	10	San Lucas Tolimán	11	Noviembre	2023-11-14T00:00:00	2024-11-08T02:00:00	6	Velocidad del viento	4.8
159110	7	Sololá	713	San Lucas Tolimán	10	San Lucas Tolimán	11	Noviembre	2023-11-14T00:00:00	2024-11-08T02:00:00	7	Dirección del viento	4.83
159111	7	Sololá	713	San Lucas Tolimán	10	San Lucas Tolimán	11	Noviembre	2023-11-14T00:00:00	2024-11-08T02:00:00	1	Precipitación	0
159112	7	Sololá	713	San Lucas Tolimán	10	San Lucas Tolimán	11	Noviembre	2023-11-14T00:00:00	2024-11-08T02:00:00	8	Radiación solar	0
159113	7	Sololá	713	San Lucas Tolimán	10	San Lucas Tolimán	11	Noviembre	2023-11-14T00:00:00	2024-11-08T03:00:00	2	Temperatura media	18.3
159114	7	Sololá	713	San Lucas Tolimán	10	San Lucas Tolimán	11	Noviembre	2023-11-14T00:00:00	2024-11-08T03:00:00	4	Temperatura máxima	19
159115	7	Sololá	713	San Lucas Tolimán	10	San Lucas Tolimán	11	Noviembre	2023-11-14T00:00:00	2024-11-08T03:00:00	3	Temperatura mínima	18.3
159116	7	Sololá	713	San Lucas Tolimán	10	San Lucas Tolimán	11	Noviembre	2023-11-14T00:00:00	2024-11-08T03:00:00	5	Humedad	86
159117	7	Sololá	713	San Lucas Tolimán	10	San Lucas Tolimán	11	Noviembre	2023-11-14T00:00:00	2024-11-08T03:00:00	6	Velocidad del viento	1.6
159118	7	Sololá	713	San Lucas Tolimán	10	San Lucas Tolimán	11	Noviembre	2023-11-14T00:00:00	2024-11-08T03:00:00	7	Dirección del viento	1.61
159119	7	Sololá	713	San Lucas Tolimán	10	San Lucas Tolimán	11	Noviembre	2023-11-14T00:00:00	2024-11-08T03:00:00	1	Precipitación	0
159120	7	Sololá	713	San Lucas Tolimán	10	San Lucas Tolimán	11	Noviembre	2023-11-14T00:00:00	2024-11-08T03:00:00	8	Radiación solar	0
159121	7	Sololá	713	San Lucas Tolimán	10	San Lucas Tolimán	11	Noviembre	2023-11-14T00:00:00	2024-11-08T04:00:00	2	Temperatura media	18.3
159122	7	Sololá	713	San Lucas Tolimán	10	San Lucas Tolimán	11	Noviembre	2023-11-14T00:00:00	2024-11-08T04:00:00	4	Temperatura máxima	18.5
159123	7	Sololá	713	San Lucas Tolimán	10	San Lucas Tolimán	11	Noviembre	2023-11-14T00:00:00	2024-11-08T04:00:00	3	Temperatura mínima	18.2
159124	7	Sololá	713	San Lucas Tolimán	10	San Lucas Tolimán	11	Noviembre	2023-11-14T00:00:00	2024-11-08T04:00:00	5	Humedad	86
159125	7	Sololá	713	San Lucas Tolimán	10	San Lucas Tolimán	11	Noviembre	2023-11-14T00:00:00	2024-11-08T04:00:00	6	Velocidad del viento	0
159126	7	Sololá	713	San Lucas Tolimán	10	San Lucas Tolimán	11	Noviembre	2023-11-14T00:00:00	2024-11-08T04:00:00	7	Dirección del viento	0
159127	7	Sololá	713	San Lucas Tolimán	10	San Lucas Tolimán	11	Noviembre	2023-11-14T00:00:00	2024-11-08T04:00:00	1	Precipitación	0
159128	7	Sololá	713	San Lucas Tolimán	10	San Lucas Tolimán	11	Noviembre	2023-11-14T00:00:00	2024-11-08T04:00:00	8	Radiación solar	0
159129	7	Sololá	713	San Lucas Tolimán	10	San Lucas Tolimán	11	Noviembre	2023-11-14T00:00:00	2024-11-08T05:00:00	2	Temperatura media	19.2
159130	7	Sololá	713	San Lucas Tolimán	10	San Lucas Tolimán	11	Noviembre	2023-11-14T00:00:00	2024-11-08T05:00:00	4	Temperatura máxima	19.3
159131	7	Sololá	713	San Lucas Tolimán	10	San Lucas Tolimán	11	Noviembre	2023-11-14T00:00:00	2024-11-08T05:00:00	3	Temperatura mínima	18.2
159132	7	Sololá	713	San Lucas Tolimán	10	San Lucas Tolimán	11	Noviembre	2023-11-14T00:00:00	2024-11-08T05:00:00	5	Humedad	82
159133	7	Sololá	713	San Lucas Tolimán	10	San Lucas Tolimán	11	Noviembre	2023-11-14T00:00:00	2024-11-08T05:00:00	6	Velocidad del viento	1.6
159134	7	Sololá	713	San Lucas Tolimán	10	San Lucas Tolimán	11	Noviembre	2023-11-14T00:00:00	2024-11-08T05:00:00	7	Dirección del viento	1.61
159135	7	Sololá	713	San Lucas Tolimán	10	San Lucas Tolimán	11	Noviembre	2023-11-14T00:00:00	2024-11-08T05:00:00	1	Precipitación	0
159136	7	Sololá	713	San Lucas Tolimán	10	San Lucas Tolimán	11	Noviembre	2023-11-14T00:00:00	2024-11-08T05:00:00	8	Radiación solar	0
159137	7	Sololá	713	San Lucas Tolimán	10	San Lucas Tolimán	11	Noviembre	2023-11-14T00:00:00	2024-11-08T06:00:00	2	Temperatura media	18.1
159138	7	Sololá	713	San Lucas Tolimán	10	San Lucas Tolimán	11	Noviembre	2023-11-14T00:00:00	2024-11-08T06:00:00	4	Temperatura máxima	19.2
159139	7	Sololá	713	San Lucas Tolimán	10	San Lucas Tolimán	11	Noviembre	2023-11-14T00:00:00	2024-11-08T06:00:00	3	Temperatura mínima	18.1
159140	7	Sololá	713	San Lucas Tolimán	10	San Lucas Tolimán	11	Noviembre	2023-11-14T00:00:00	2024-11-08T06:00:00	5	Humedad	86
159141	7	Sololá	713	San Lucas Tolimán	10	San Lucas Tolimán	11	Noviembre	2023-11-14T00:00:00	2024-11-08T06:00:00	6	Velocidad del viento	0
159142	7	Sololá	713	San Lucas Tolimán	10	San Lucas Tolimán	11	Noviembre	2023-11-14T00:00:00	2024-11-08T06:00:00	7	Dirección del viento	0
159143	7	Sololá	713	San Lucas Tolimán	10	San Lucas Tolimán	11	Noviembre	2023-11-14T00:00:00	2024-11-08T06:00:00	1	Precipitación	0
159144	7	Sololá	713	San Lucas Tolimán	10	San Lucas Tolimán	11	Noviembre	2023-11-14T00:00:00	2024-11-08T06:00:00	8	Radiación solar	0
159145	7	Sololá	713	San Lucas Tolimán	10	San Lucas Tolimán	11	Noviembre	2023-11-14T00:00:00	2024-11-08T07:00:00	2	Temperatura media	18.3
159146	7	Sololá	713	San Lucas Tolimán	10	San Lucas Tolimán	11	Noviembre	2023-11-14T00:00:00	2024-11-08T07:00:00	4	Temperatura máxima	18.4
159147	7	Sololá	713	San Lucas Tolimán	10	San Lucas Tolimán	11	Noviembre	2023-11-14T00:00:00	2024-11-08T07:00:00	3	Temperatura mínima	17.9
159148	7	Sololá	713	San Lucas Tolimán	10	San Lucas Tolimán	11	Noviembre	2023-11-14T00:00:00	2024-11-08T07:00:00	5	Humedad	86
159149	7	Sololá	713	San Lucas Tolimán	10	San Lucas Tolimán	11	Noviembre	2023-11-14T00:00:00	2024-11-08T07:00:00	6	Velocidad del viento	0
159150	7	Sololá	713	San Lucas Tolimán	10	San Lucas Tolimán	11	Noviembre	2023-11-14T00:00:00	2024-11-08T07:00:00	7	Dirección del viento	0
159151	7	Sololá	713	San Lucas Tolimán	10	San Lucas Tolimán	11	Noviembre	2023-11-14T00:00:00	2024-11-08T07:00:00	1	Precipitación	0
159152	7	Sololá	713	San Lucas Tolimán	10	San Lucas Tolimán	11	Noviembre	2023-11-14T00:00:00	2024-11-08T07:00:00	8	Radiación solar	15
159153	7	Sololá	713	San Lucas Tolimán	10	San Lucas Tolimán	11	Noviembre	2023-11-14T00:00:00	2024-11-08T08:00:00	2	Temperatura media	20.5
159154	7	Sololá	713	San Lucas Tolimán	10	San Lucas Tolimán	11	Noviembre	2023-11-14T00:00:00	2024-11-08T08:00:00	4	Temperatura máxima	20.5
159155	7	Sololá	713	San Lucas Tolimán	10	San Lucas Tolimán	11	Noviembre	2023-11-14T00:00:00	2024-11-08T08:00:00	3	Temperatura mínima	18.3
159156	7	Sololá	713	San Lucas Tolimán	10	San Lucas Tolimán	11	Noviembre	2023-11-14T00:00:00	2024-11-08T08:00:00	5	Humedad	77
159157	7	Sololá	713	San Lucas Tolimán	10	San Lucas Tolimán	11	Noviembre	2023-11-14T00:00:00	2024-11-08T08:00:00	6	Velocidad del viento	1.6
159158	7	Sololá	713	San Lucas Tolimán	10	San Lucas Tolimán	11	Noviembre	2023-11-14T00:00:00	2024-11-08T08:00:00	7	Dirección del viento	1.61
159159	7	Sololá	713	San Lucas Tolimán	10	San Lucas Tolimán	11	Noviembre	2023-11-14T00:00:00	2024-11-08T08:00:00	1	Precipitación	0
159160	7	Sololá	713	San Lucas Tolimán	10	San Lucas Tolimán	11	Noviembre	2023-11-14T00:00:00	2024-11-08T08:00:00	8	Radiación solar	87
159161	7	Sololá	713	San Lucas Tolimán	10	San Lucas Tolimán	11	Noviembre	2023-11-14T00:00:00	2024-11-08T09:00:00	2	Temperatura media	23.2
159162	7	Sololá	713	San Lucas Tolimán	10	San Lucas Tolimán	11	Noviembre	2023-11-14T00:00:00	2024-11-08T09:00:00	4	Temperatura máxima	23.2
159163	7	Sololá	713	San Lucas Tolimán	10	San Lucas Tolimán	11	Noviembre	2023-11-14T00:00:00	2024-11-08T09:00:00	3	Temperatura mínima	20.5
159164	7	Sololá	713	San Lucas Tolimán	10	San Lucas Tolimán	11	Noviembre	2023-11-14T00:00:00	2024-11-08T09:00:00	5	Humedad	69
159165	7	Sololá	713	San Lucas Tolimán	10	San Lucas Tolimán	11	Noviembre	2023-11-14T00:00:00	2024-11-08T09:00:00	6	Velocidad del viento	1.6
159166	7	Sololá	713	San Lucas Tolimán	10	San Lucas Tolimán	11	Noviembre	2023-11-14T00:00:00	2024-11-08T09:00:00	7	Dirección del viento	1.61
159167	7	Sololá	713	San Lucas Tolimán	10	San Lucas Tolimán	11	Noviembre	2023-11-14T00:00:00	2024-11-08T09:00:00	1	Precipitación	0
159168	7	Sololá	713	San Lucas Tolimán	10	San Lucas Tolimán	11	Noviembre	2023-11-14T00:00:00	2024-11-08T09:00:00	8	Radiación solar	432
159169	7	Sololá	713	San Lucas Tolimán	10	San Lucas Tolimán	11	Noviembre	2023-11-14T00:00:00	2024-11-08T10:00:00	2	Temperatura media	24.1
159170	7	Sololá	713	San Lucas Tolimán	10	San Lucas Tolimán	11	Noviembre	2023-11-14T00:00:00	2024-11-08T10:00:00	4	Temperatura máxima	25.6
159171	7	Sololá	713	San Lucas Tolimán	10	San Lucas Tolimán	11	Noviembre	2023-11-14T00:00:00	2024-11-08T10:00:00	3	Temperatura mínima	23.2
159172	7	Sololá	713	San Lucas Tolimán	10	San Lucas Tolimán	11	Noviembre	2023-11-14T00:00:00	2024-11-08T10:00:00	5	Humedad	72
159173	7	Sololá	713	San Lucas Tolimán	10	San Lucas Tolimán	11	Noviembre	2023-11-14T00:00:00	2024-11-08T10:00:00	6	Velocidad del viento	3.2
159174	7	Sololá	713	San Lucas Tolimán	10	San Lucas Tolimán	11	Noviembre	2023-11-14T00:00:00	2024-11-08T10:00:00	7	Dirección del viento	3.22
159175	7	Sololá	713	San Lucas Tolimán	10	San Lucas Tolimán	11	Noviembre	2023-11-14T00:00:00	2024-11-08T10:00:00	1	Precipitación	0
159176	7	Sololá	713	San Lucas Tolimán	10	San Lucas Tolimán	11	Noviembre	2023-11-14T00:00:00	2024-11-08T10:00:00	8	Radiación solar	632
159177	7	Sololá	713	San Lucas Tolimán	10	San Lucas Tolimán	11	Noviembre	2023-11-14T00:00:00	2024-11-08T11:00:00	2	Temperatura media	23.8
159178	7	Sololá	713	San Lucas Tolimán	10	San Lucas Tolimán	11	Noviembre	2023-11-14T00:00:00	2024-11-08T11:00:00	4	Temperatura máxima	24.1
159179	7	Sololá	713	San Lucas Tolimán	10	San Lucas Tolimán	11	Noviembre	2023-11-14T00:00:00	2024-11-08T11:00:00	3	Temperatura mínima	22.6
159180	7	Sololá	713	San Lucas Tolimán	10	San Lucas Tolimán	11	Noviembre	2023-11-14T00:00:00	2024-11-08T11:00:00	5	Humedad	78
159181	7	Sololá	713	San Lucas Tolimán	10	San Lucas Tolimán	11	Noviembre	2023-11-14T00:00:00	2024-11-08T11:00:00	6	Velocidad del viento	8
159182	7	Sololá	713	San Lucas Tolimán	10	San Lucas Tolimán	11	Noviembre	2023-11-14T00:00:00	2024-11-08T11:00:00	7	Dirección del viento	8.05
159183	7	Sololá	713	San Lucas Tolimán	10	San Lucas Tolimán	11	Noviembre	2023-11-14T00:00:00	2024-11-08T11:00:00	1	Precipitación	0
159184	7	Sololá	713	San Lucas Tolimán	10	San Lucas Tolimán	11	Noviembre	2023-11-14T00:00:00	2024-11-08T11:00:00	8	Radiación solar	782
159185	7	Sololá	713	San Lucas Tolimán	10	San Lucas Tolimán	11	Noviembre	2023-11-14T00:00:00	2024-11-08T12:00:00	2	Temperatura media	22.4
159186	7	Sololá	713	San Lucas Tolimán	10	San Lucas Tolimán	11	Noviembre	2023-11-14T00:00:00	2024-11-08T12:00:00	4	Temperatura máxima	25.2
159187	7	Sololá	713	San Lucas Tolimán	10	San Lucas Tolimán	11	Noviembre	2023-11-14T00:00:00	2024-11-08T12:00:00	3	Temperatura mínima	22.4
159188	7	Sololá	713	San Lucas Tolimán	10	San Lucas Tolimán	11	Noviembre	2023-11-14T00:00:00	2024-11-08T12:00:00	5	Humedad	62
159189	7	Sololá	713	San Lucas Tolimán	10	San Lucas Tolimán	11	Noviembre	2023-11-14T00:00:00	2024-11-08T12:00:00	6	Velocidad del viento	9.7
159190	7	Sololá	713	San Lucas Tolimán	10	San Lucas Tolimán	11	Noviembre	2023-11-14T00:00:00	2024-11-08T12:00:00	7	Dirección del viento	9.66
159191	7	Sololá	713	San Lucas Tolimán	10	San Lucas Tolimán	11	Noviembre	2023-11-14T00:00:00	2024-11-08T12:00:00	1	Precipitación	0
159192	7	Sololá	713	San Lucas Tolimán	10	San Lucas Tolimán	11	Noviembre	2023-11-14T00:00:00	2024-11-08T12:00:00	8	Radiación solar	304
159193	7	Sololá	713	San Lucas Tolimán	10	San Lucas Tolimán	11	Noviembre	2023-11-14T00:00:00	2024-11-08T13:00:00	2	Temperatura media	21.1
159194	7	Sololá	713	San Lucas Tolimán	10	San Lucas Tolimán	11	Noviembre	2023-11-14T00:00:00	2024-11-08T13:00:00	4	Temperatura máxima	22.4
159195	7	Sololá	713	San Lucas Tolimán	10	San Lucas Tolimán	11	Noviembre	2023-11-14T00:00:00	2024-11-08T13:00:00	3	Temperatura mínima	21.1
159196	7	Sololá	713	San Lucas Tolimán	10	San Lucas Tolimán	11	Noviembre	2023-11-14T00:00:00	2024-11-08T13:00:00	5	Humedad	60
159197	7	Sololá	713	San Lucas Tolimán	10	San Lucas Tolimán	11	Noviembre	2023-11-14T00:00:00	2024-11-08T13:00:00	6	Velocidad del viento	11.3
159198	7	Sololá	713	San Lucas Tolimán	10	San Lucas Tolimán	11	Noviembre	2023-11-14T00:00:00	2024-11-08T13:00:00	7	Dirección del viento	11.27
159199	7	Sololá	713	San Lucas Tolimán	10	San Lucas Tolimán	11	Noviembre	2023-11-14T00:00:00	2024-11-08T13:00:00	1	Precipitación	0
159200	7	Sololá	713	San Lucas Tolimán	10	San Lucas Tolimán	11	Noviembre	2023-11-14T00:00:00	2024-11-08T13:00:00	8	Radiación solar	216
159201	7	Sololá	713	San Lucas Tolimán	10	San Lucas Tolimán	11	Noviembre	2023-11-14T00:00:00	2024-11-08T14:00:00	2	Temperatura media	20.9
159202	7	Sololá	713	San Lucas Tolimán	10	San Lucas Tolimán	11	Noviembre	2023-11-14T00:00:00	2024-11-08T14:00:00	4	Temperatura máxima	21.8
159203	7	Sololá	713	San Lucas Tolimán	10	San Lucas Tolimán	11	Noviembre	2023-11-14T00:00:00	2024-11-08T14:00:00	3	Temperatura mínima	20.8
159204	7	Sololá	713	San Lucas Tolimán	10	San Lucas Tolimán	11	Noviembre	2023-11-14T00:00:00	2024-11-08T14:00:00	5	Humedad	60
159205	7	Sololá	713	San Lucas Tolimán	10	San Lucas Tolimán	11	Noviembre	2023-11-14T00:00:00	2024-11-08T14:00:00	6	Velocidad del viento	11.3
159206	7	Sololá	713	San Lucas Tolimán	10	San Lucas Tolimán	11	Noviembre	2023-11-14T00:00:00	2024-11-08T14:00:00	7	Dirección del viento	11.27
159207	7	Sololá	713	San Lucas Tolimán	10	San Lucas Tolimán	11	Noviembre	2023-11-14T00:00:00	2024-11-08T14:00:00	1	Precipitación	0
159208	7	Sololá	713	San Lucas Tolimán	10	San Lucas Tolimán	11	Noviembre	2023-11-14T00:00:00	2024-11-08T14:00:00	8	Radiación solar	225
159209	7	Sololá	713	San Lucas Tolimán	10	San Lucas Tolimán	11	Noviembre	2023-11-14T00:00:00	2024-11-08T15:00:00	2	Temperatura media	21.5
159210	7	Sololá	713	San Lucas Tolimán	10	San Lucas Tolimán	11	Noviembre	2023-11-14T00:00:00	2024-11-08T15:00:00	4	Temperatura máxima	22.6
159211	7	Sololá	713	San Lucas Tolimán	10	San Lucas Tolimán	11	Noviembre	2023-11-14T00:00:00	2024-11-08T15:00:00	3	Temperatura mínima	20.8
159212	7	Sololá	713	San Lucas Tolimán	10	San Lucas Tolimán	11	Noviembre	2023-11-14T00:00:00	2024-11-08T15:00:00	5	Humedad	60
159213	7	Sololá	713	San Lucas Tolimán	10	San Lucas Tolimán	11	Noviembre	2023-11-14T00:00:00	2024-11-08T15:00:00	6	Velocidad del viento	9.7
159214	7	Sololá	713	San Lucas Tolimán	10	San Lucas Tolimán	11	Noviembre	2023-11-14T00:00:00	2024-11-08T15:00:00	7	Dirección del viento	9.66
159215	7	Sololá	713	San Lucas Tolimán	10	San Lucas Tolimán	11	Noviembre	2023-11-14T00:00:00	2024-11-08T15:00:00	1	Precipitación	0
159216	7	Sololá	713	San Lucas Tolimán	10	San Lucas Tolimán	11	Noviembre	2023-11-14T00:00:00	2024-11-08T15:00:00	8	Radiación solar	381
159217	7	Sololá	713	San Lucas Tolimán	10	San Lucas Tolimán	11	Noviembre	2023-11-14T00:00:00	2024-11-08T16:00:00	2	Temperatura media	20.7
159218	7	Sololá	713	San Lucas Tolimán	10	San Lucas Tolimán	11	Noviembre	2023-11-14T00:00:00	2024-11-08T16:00:00	4	Temperatura máxima	21.4
159219	7	Sololá	713	San Lucas Tolimán	10	San Lucas Tolimán	11	Noviembre	2023-11-14T00:00:00	2024-11-08T16:00:00	3	Temperatura mínima	20.7
159220	7	Sololá	713	San Lucas Tolimán	10	San Lucas Tolimán	11	Noviembre	2023-11-14T00:00:00	2024-11-08T16:00:00	5	Humedad	60
159221	7	Sololá	713	San Lucas Tolimán	10	San Lucas Tolimán	11	Noviembre	2023-11-14T00:00:00	2024-11-08T16:00:00	6	Velocidad del viento	6.4
159222	7	Sololá	713	San Lucas Tolimán	10	San Lucas Tolimán	11	Noviembre	2023-11-14T00:00:00	2024-11-08T16:00:00	7	Dirección del viento	6.44
159223	7	Sololá	713	San Lucas Tolimán	10	San Lucas Tolimán	11	Noviembre	2023-11-14T00:00:00	2024-11-08T16:00:00	1	Precipitación	0
159224	7	Sololá	713	San Lucas Tolimán	10	San Lucas Tolimán	11	Noviembre	2023-11-14T00:00:00	2024-11-08T16:00:00	8	Radiación solar	93
159225	7	Sololá	713	San Lucas Tolimán	10	San Lucas Tolimán	11	Noviembre	2023-11-14T00:00:00	2024-11-08T17:00:00	2	Temperatura media	20.7
159226	7	Sololá	713	San Lucas Tolimán	10	San Lucas Tolimán	11	Noviembre	2023-11-14T00:00:00	2024-11-08T17:00:00	4	Temperatura máxima	21.1
159227	7	Sololá	713	San Lucas Tolimán	10	San Lucas Tolimán	11	Noviembre	2023-11-14T00:00:00	2024-11-08T17:00:00	3	Temperatura mínima	20.6
159228	7	Sololá	713	San Lucas Tolimán	10	San Lucas Tolimán	11	Noviembre	2023-11-14T00:00:00	2024-11-08T17:00:00	5	Humedad	61
159229	7	Sololá	713	San Lucas Tolimán	10	San Lucas Tolimán	11	Noviembre	2023-11-14T00:00:00	2024-11-08T17:00:00	6	Velocidad del viento	4.8
159230	7	Sololá	713	San Lucas Tolimán	10	San Lucas Tolimán	11	Noviembre	2023-11-14T00:00:00	2024-11-08T17:00:00	7	Dirección del viento	4.83
159231	7	Sololá	713	San Lucas Tolimán	10	San Lucas Tolimán	11	Noviembre	2023-11-14T00:00:00	2024-11-08T17:00:00	1	Precipitación	0
159232	7	Sololá	713	San Lucas Tolimán	10	San Lucas Tolimán	11	Noviembre	2023-11-14T00:00:00	2024-11-08T17:00:00	8	Radiación solar	65
159233	7	Sololá	713	San Lucas Tolimán	10	San Lucas Tolimán	11	Noviembre	2023-11-14T00:00:00	2024-11-08T18:00:00	2	Temperatura media	19.9
159234	7	Sololá	713	San Lucas Tolimán	10	San Lucas Tolimán	11	Noviembre	2023-11-14T00:00:00	2024-11-08T18:00:00	4	Temperatura máxima	20.7
159235	7	Sololá	713	San Lucas Tolimán	10	San Lucas Tolimán	11	Noviembre	2023-11-14T00:00:00	2024-11-08T18:00:00	3	Temperatura mínima	19.9
159236	7	Sololá	713	San Lucas Tolimán	10	San Lucas Tolimán	11	Noviembre	2023-11-14T00:00:00	2024-11-08T18:00:00	5	Humedad	61
159237	7	Sololá	713	San Lucas Tolimán	10	San Lucas Tolimán	11	Noviembre	2023-11-14T00:00:00	2024-11-08T18:00:00	6	Velocidad del viento	3.2
159238	7	Sololá	713	San Lucas Tolimán	10	San Lucas Tolimán	11	Noviembre	2023-11-14T00:00:00	2024-11-08T18:00:00	7	Dirección del viento	3.22
159239	7	Sololá	713	San Lucas Tolimán	10	San Lucas Tolimán	11	Noviembre	2023-11-14T00:00:00	2024-11-08T18:00:00	1	Precipitación	0
159240	7	Sololá	713	San Lucas Tolimán	10	San Lucas Tolimán	11	Noviembre	2023-11-14T00:00:00	2024-11-08T18:00:00	8	Radiación solar	9
159241	7	Sololá	713	San Lucas Tolimán	10	San Lucas Tolimán	11	Noviembre	2023-11-14T00:00:00	2024-11-08T19:00:00	2	Temperatura media	19.7
159242	7	Sololá	713	San Lucas Tolimán	10	San Lucas Tolimán	11	Noviembre	2023-11-14T00:00:00	2024-11-08T19:00:00	4	Temperatura máxima	20
159243	7	Sololá	713	San Lucas Tolimán	10	San Lucas Tolimán	11	Noviembre	2023-11-14T00:00:00	2024-11-08T19:00:00	3	Temperatura mínima	19.7
159244	7	Sololá	713	San Lucas Tolimán	10	San Lucas Tolimán	11	Noviembre	2023-11-14T00:00:00	2024-11-08T19:00:00	5	Humedad	59
159245	7	Sololá	713	San Lucas Tolimán	10	San Lucas Tolimán	11	Noviembre	2023-11-14T00:00:00	2024-11-08T19:00:00	6	Velocidad del viento	1.6
159246	7	Sololá	713	San Lucas Tolimán	10	San Lucas Tolimán	11	Noviembre	2023-11-14T00:00:00	2024-11-08T19:00:00	7	Dirección del viento	1.61
159247	7	Sololá	713	San Lucas Tolimán	10	San Lucas Tolimán	11	Noviembre	2023-11-14T00:00:00	2024-11-08T19:00:00	1	Precipitación	0
159248	7	Sololá	713	San Lucas Tolimán	10	San Lucas Tolimán	11	Noviembre	2023-11-14T00:00:00	2024-11-08T19:00:00	8	Radiación solar	0
159249	7	Sololá	713	San Lucas Tolimán	10	San Lucas Tolimán	11	Noviembre	2023-11-14T00:00:00	2024-11-08T20:00:00	2	Temperatura media	20.9
159250	7	Sololá	713	San Lucas Tolimán	10	San Lucas Tolimán	11	Noviembre	2023-11-14T00:00:00	2024-11-08T20:00:00	4	Temperatura máxima	21.1
159251	7	Sololá	713	San Lucas Tolimán	10	San Lucas Tolimán	11	Noviembre	2023-11-14T00:00:00	2024-11-08T20:00:00	3	Temperatura mínima	19.4
159252	7	Sololá	713	San Lucas Tolimán	10	San Lucas Tolimán	11	Noviembre	2023-11-14T00:00:00	2024-11-08T20:00:00	5	Humedad	56
159253	7	Sololá	713	San Lucas Tolimán	10	San Lucas Tolimán	11	Noviembre	2023-11-14T00:00:00	2024-11-08T20:00:00	6	Velocidad del viento	3.2
159254	7	Sololá	713	San Lucas Tolimán	10	San Lucas Tolimán	11	Noviembre	2023-11-14T00:00:00	2024-11-08T20:00:00	7	Dirección del viento	3.22
159255	7	Sololá	713	San Lucas Tolimán	10	San Lucas Tolimán	11	Noviembre	2023-11-14T00:00:00	2024-11-08T20:00:00	1	Precipitación	0
159256	7	Sololá	713	San Lucas Tolimán	10	San Lucas Tolimán	11	Noviembre	2023-11-14T00:00:00	2024-11-08T20:00:00	8	Radiación solar	0
159257	7	Sololá	713	San Lucas Tolimán	10	San Lucas Tolimán	11	Noviembre	2023-11-14T00:00:00	2024-11-08T21:00:00	2	Temperatura media	21.3
159258	7	Sololá	713	San Lucas Tolimán	10	San Lucas Tolimán	11	Noviembre	2023-11-14T00:00:00	2024-11-08T21:00:00	4	Temperatura máxima	21.5
159259	7	Sololá	713	San Lucas Tolimán	10	San Lucas Tolimán	11	Noviembre	2023-11-14T00:00:00	2024-11-08T21:00:00	3	Temperatura mínima	20.9
159260	7	Sololá	713	San Lucas Tolimán	10	San Lucas Tolimán	11	Noviembre	2023-11-14T00:00:00	2024-11-08T21:00:00	5	Humedad	55
159261	7	Sololá	713	San Lucas Tolimán	10	San Lucas Tolimán	11	Noviembre	2023-11-14T00:00:00	2024-11-08T21:00:00	6	Velocidad del viento	8
159262	7	Sololá	713	San Lucas Tolimán	10	San Lucas Tolimán	11	Noviembre	2023-11-14T00:00:00	2024-11-08T21:00:00	7	Dirección del viento	8.05
159263	7	Sololá	713	San Lucas Tolimán	10	San Lucas Tolimán	11	Noviembre	2023-11-14T00:00:00	2024-11-08T21:00:00	1	Precipitación	0
159264	7	Sololá	713	San Lucas Tolimán	10	San Lucas Tolimán	11	Noviembre	2023-11-14T00:00:00	2024-11-08T21:00:00	8	Radiación solar	0
159265	7	Sololá	713	San Lucas Tolimán	10	San Lucas Tolimán	11	Noviembre	2023-11-14T00:00:00	2024-11-08T22:00:00	2	Temperatura media	21.6
159266	7	Sololá	713	San Lucas Tolimán	10	San Lucas Tolimán	11	Noviembre	2023-11-14T00:00:00	2024-11-08T22:00:00	4	Temperatura máxima	21.7
159267	7	Sololá	713	San Lucas Tolimán	10	San Lucas Tolimán	11	Noviembre	2023-11-14T00:00:00	2024-11-08T22:00:00	3	Temperatura mínima	21.2
159268	7	Sololá	713	San Lucas Tolimán	10	San Lucas Tolimán	11	Noviembre	2023-11-14T00:00:00	2024-11-08T22:00:00	5	Humedad	54
159269	7	Sololá	713	San Lucas Tolimán	10	San Lucas Tolimán	11	Noviembre	2023-11-14T00:00:00	2024-11-08T22:00:00	6	Velocidad del viento	9.7
159270	7	Sololá	713	San Lucas Tolimán	10	San Lucas Tolimán	11	Noviembre	2023-11-14T00:00:00	2024-11-08T22:00:00	7	Dirección del viento	9.66
159271	7	Sololá	713	San Lucas Tolimán	10	San Lucas Tolimán	11	Noviembre	2023-11-14T00:00:00	2024-11-08T22:00:00	1	Precipitación	0
159272	7	Sololá	713	San Lucas Tolimán	10	San Lucas Tolimán	11	Noviembre	2023-11-14T00:00:00	2024-11-08T22:00:00	8	Radiación solar	0
159273	7	Sololá	713	San Lucas Tolimán	10	San Lucas Tolimán	11	Noviembre	2023-11-14T00:00:00	2024-11-08T23:00:00	2	Temperatura media	21.1
159274	7	Sololá	713	San Lucas Tolimán	10	San Lucas Tolimán	11	Noviembre	2023-11-14T00:00:00	2024-11-08T23:00:00	4	Temperatura máxima	21.7
159275	7	Sololá	713	San Lucas Tolimán	10	San Lucas Tolimán	11	Noviembre	2023-11-14T00:00:00	2024-11-08T23:00:00	3	Temperatura mínima	21.1
159276	7	Sololá	713	San Lucas Tolimán	10	San Lucas Tolimán	11	Noviembre	2023-11-14T00:00:00	2024-11-08T23:00:00	5	Humedad	54
159277	7	Sololá	713	San Lucas Tolimán	10	San Lucas Tolimán	11	Noviembre	2023-11-14T00:00:00	2024-11-08T23:00:00	6	Velocidad del viento	8
159278	7	Sololá	713	San Lucas Tolimán	10	San Lucas Tolimán	11	Noviembre	2023-11-14T00:00:00	2024-11-08T23:00:00	7	Dirección del viento	8.05
159279	7	Sololá	713	San Lucas Tolimán	10	San Lucas Tolimán	11	Noviembre	2023-11-14T00:00:00	2024-11-08T23:00:00	1	Precipitación	0
159280	7	Sololá	713	San Lucas Tolimán	10	San Lucas Tolimán	11	Noviembre	2023-11-14T00:00:00	2024-11-08T23:00:00	8	Radiación solar	0
159281	7	Sololá	713	San Lucas Tolimán	10	San Lucas Tolimán	11	Noviembre	2023-11-15T00:00:00	2024-11-08T00:00:00	2	Temperatura media	20.6
159282	7	Sololá	713	San Lucas Tolimán	10	San Lucas Tolimán	11	Noviembre	2023-11-15T00:00:00	2024-11-08T00:00:00	4	Temperatura máxima	21.3
159283	7	Sololá	713	San Lucas Tolimán	10	San Lucas Tolimán	11	Noviembre	2023-11-15T00:00:00	2024-11-08T00:00:00	3	Temperatura mínima	20.6
159284	7	Sololá	713	San Lucas Tolimán	10	San Lucas Tolimán	11	Noviembre	2023-11-15T00:00:00	2024-11-08T00:00:00	5	Humedad	57
159285	7	Sololá	713	San Lucas Tolimán	10	San Lucas Tolimán	11	Noviembre	2023-11-15T00:00:00	2024-11-08T00:00:00	6	Velocidad del viento	3.2
159286	7	Sololá	713	San Lucas Tolimán	10	San Lucas Tolimán	11	Noviembre	2023-11-15T00:00:00	2024-11-08T00:00:00	7	Dirección del viento	3.22
159287	7	Sololá	713	San Lucas Tolimán	10	San Lucas Tolimán	11	Noviembre	2023-11-15T00:00:00	2024-11-08T00:00:00	1	Precipitación	0
159288	7	Sololá	713	San Lucas Tolimán	10	San Lucas Tolimán	11	Noviembre	2023-11-15T00:00:00	2024-11-08T00:00:00	8	Radiación solar	0
159289	7	Sololá	713	San Lucas Tolimán	10	San Lucas Tolimán	11	Noviembre	2023-11-15T00:00:00	2024-11-08T01:00:00	2	Temperatura media	21.6
159290	7	Sololá	713	San Lucas Tolimán	10	San Lucas Tolimán	11	Noviembre	2023-11-15T00:00:00	2024-11-08T01:00:00	4	Temperatura máxima	21.6
159291	7	Sololá	713	San Lucas Tolimán	10	San Lucas Tolimán	11	Noviembre	2023-11-15T00:00:00	2024-11-08T01:00:00	3	Temperatura mínima	19.4
159292	7	Sololá	713	San Lucas Tolimán	10	San Lucas Tolimán	11	Noviembre	2023-11-15T00:00:00	2024-11-08T01:00:00	5	Humedad	52
159293	7	Sololá	713	San Lucas Tolimán	10	San Lucas Tolimán	11	Noviembre	2023-11-15T00:00:00	2024-11-08T01:00:00	6	Velocidad del viento	8
159294	7	Sololá	713	San Lucas Tolimán	10	San Lucas Tolimán	11	Noviembre	2023-11-15T00:00:00	2024-11-08T01:00:00	7	Dirección del viento	8.05
159295	7	Sololá	713	San Lucas Tolimán	10	San Lucas Tolimán	11	Noviembre	2023-11-15T00:00:00	2024-11-08T01:00:00	1	Precipitación	0
159296	7	Sololá	713	San Lucas Tolimán	10	San Lucas Tolimán	11	Noviembre	2023-11-15T00:00:00	2024-11-08T01:00:00	8	Radiación solar	0
159297	7	Sololá	713	San Lucas Tolimán	10	San Lucas Tolimán	11	Noviembre	2023-11-15T00:00:00	2024-11-08T02:00:00	2	Temperatura media	21.1
159298	7	Sololá	713	San Lucas Tolimán	10	San Lucas Tolimán	11	Noviembre	2023-11-15T00:00:00	2024-11-08T02:00:00	4	Temperatura máxima	21.7
159299	7	Sololá	713	San Lucas Tolimán	10	San Lucas Tolimán	11	Noviembre	2023-11-15T00:00:00	2024-11-08T02:00:00	3	Temperatura mínima	21
159300	7	Sololá	713	San Lucas Tolimán	10	San Lucas Tolimán	11	Noviembre	2023-11-15T00:00:00	2024-11-08T02:00:00	5	Humedad	54
159301	7	Sololá	713	San Lucas Tolimán	10	San Lucas Tolimán	11	Noviembre	2023-11-15T00:00:00	2024-11-08T02:00:00	6	Velocidad del viento	11.3
159302	7	Sololá	713	San Lucas Tolimán	10	San Lucas Tolimán	11	Noviembre	2023-11-15T00:00:00	2024-11-08T02:00:00	7	Dirección del viento	11.27
159303	7	Sololá	713	San Lucas Tolimán	10	San Lucas Tolimán	11	Noviembre	2023-11-15T00:00:00	2024-11-08T02:00:00	1	Precipitación	0
159304	7	Sololá	713	San Lucas Tolimán	10	San Lucas Tolimán	11	Noviembre	2023-11-15T00:00:00	2024-11-08T02:00:00	8	Radiación solar	0
159305	7	Sololá	713	San Lucas Tolimán	10	San Lucas Tolimán	11	Noviembre	2023-11-15T00:00:00	2024-11-08T03:00:00	2	Temperatura media	19.2
159306	7	Sololá	713	San Lucas Tolimán	10	San Lucas Tolimán	11	Noviembre	2023-11-15T00:00:00	2024-11-08T03:00:00	4	Temperatura máxima	21.1
159307	7	Sololá	713	San Lucas Tolimán	10	San Lucas Tolimán	11	Noviembre	2023-11-15T00:00:00	2024-11-08T03:00:00	3	Temperatura mínima	19.2
159308	7	Sololá	713	San Lucas Tolimán	10	San Lucas Tolimán	11	Noviembre	2023-11-15T00:00:00	2024-11-08T03:00:00	5	Humedad	61
159309	7	Sololá	713	San Lucas Tolimán	10	San Lucas Tolimán	11	Noviembre	2023-11-15T00:00:00	2024-11-08T03:00:00	6	Velocidad del viento	3.2
159310	7	Sololá	713	San Lucas Tolimán	10	San Lucas Tolimán	11	Noviembre	2023-11-15T00:00:00	2024-11-08T03:00:00	7	Dirección del viento	3.22
159311	7	Sololá	713	San Lucas Tolimán	10	San Lucas Tolimán	11	Noviembre	2023-11-15T00:00:00	2024-11-08T03:00:00	1	Precipitación	0
159312	7	Sololá	713	San Lucas Tolimán	10	San Lucas Tolimán	11	Noviembre	2023-11-15T00:00:00	2024-11-08T03:00:00	8	Radiación solar	0
159313	7	Sololá	713	San Lucas Tolimán	10	San Lucas Tolimán	11	Noviembre	2023-11-15T00:00:00	2024-11-08T04:00:00	2	Temperatura media	17.8
159314	7	Sololá	713	San Lucas Tolimán	10	San Lucas Tolimán	11	Noviembre	2023-11-15T00:00:00	2024-11-08T04:00:00	4	Temperatura máxima	19.1
159315	7	Sololá	713	San Lucas Tolimán	10	San Lucas Tolimán	11	Noviembre	2023-11-15T00:00:00	2024-11-08T04:00:00	3	Temperatura mínima	17.8
159316	7	Sololá	713	San Lucas Tolimán	10	San Lucas Tolimán	11	Noviembre	2023-11-15T00:00:00	2024-11-08T04:00:00	5	Humedad	62
159317	7	Sololá	713	San Lucas Tolimán	10	San Lucas Tolimán	11	Noviembre	2023-11-15T00:00:00	2024-11-08T04:00:00	6	Velocidad del viento	1.6
159318	7	Sololá	713	San Lucas Tolimán	10	San Lucas Tolimán	11	Noviembre	2023-11-15T00:00:00	2024-11-08T04:00:00	7	Dirección del viento	1.61
159319	7	Sololá	713	San Lucas Tolimán	10	San Lucas Tolimán	11	Noviembre	2023-11-15T00:00:00	2024-11-08T04:00:00	1	Precipitación	0
159320	7	Sololá	713	San Lucas Tolimán	10	San Lucas Tolimán	11	Noviembre	2023-11-15T00:00:00	2024-11-08T04:00:00	8	Radiación solar	0
159321	7	Sololá	713	San Lucas Tolimán	10	San Lucas Tolimán	11	Noviembre	2023-11-15T00:00:00	2024-11-08T05:00:00	2	Temperatura media	18.8
159322	7	Sololá	713	San Lucas Tolimán	10	San Lucas Tolimán	11	Noviembre	2023-11-15T00:00:00	2024-11-08T05:00:00	4	Temperatura máxima	18.8
159323	7	Sololá	713	San Lucas Tolimán	10	San Lucas Tolimán	11	Noviembre	2023-11-15T00:00:00	2024-11-08T05:00:00	3	Temperatura mínima	17.7
159324	7	Sololá	713	San Lucas Tolimán	10	San Lucas Tolimán	11	Noviembre	2023-11-15T00:00:00	2024-11-08T05:00:00	5	Humedad	56
159325	7	Sololá	713	San Lucas Tolimán	10	San Lucas Tolimán	11	Noviembre	2023-11-15T00:00:00	2024-11-08T05:00:00	6	Velocidad del viento	0
159326	7	Sololá	713	San Lucas Tolimán	10	San Lucas Tolimán	11	Noviembre	2023-11-15T00:00:00	2024-11-08T05:00:00	7	Dirección del viento	0
159327	7	Sololá	713	San Lucas Tolimán	10	San Lucas Tolimán	11	Noviembre	2023-11-15T00:00:00	2024-11-08T05:00:00	1	Precipitación	0
159328	7	Sololá	713	San Lucas Tolimán	10	San Lucas Tolimán	11	Noviembre	2023-11-15T00:00:00	2024-11-08T05:00:00	8	Radiación solar	0
159329	7	Sololá	713	San Lucas Tolimán	10	San Lucas Tolimán	11	Noviembre	2023-11-15T00:00:00	2024-11-08T06:00:00	2	Temperatura media	20.2
159330	7	Sololá	713	San Lucas Tolimán	10	San Lucas Tolimán	11	Noviembre	2023-11-15T00:00:00	2024-11-08T06:00:00	4	Temperatura máxima	20.2
159331	7	Sololá	713	San Lucas Tolimán	10	San Lucas Tolimán	11	Noviembre	2023-11-15T00:00:00	2024-11-08T06:00:00	3	Temperatura mínima	18.8
159332	7	Sololá	713	San Lucas Tolimán	10	San Lucas Tolimán	11	Noviembre	2023-11-15T00:00:00	2024-11-08T06:00:00	5	Humedad	55
159333	7	Sololá	713	San Lucas Tolimán	10	San Lucas Tolimán	11	Noviembre	2023-11-15T00:00:00	2024-11-08T06:00:00	6	Velocidad del viento	6.4
159334	7	Sololá	713	San Lucas Tolimán	10	San Lucas Tolimán	11	Noviembre	2023-11-15T00:00:00	2024-11-08T06:00:00	7	Dirección del viento	6.44
159335	7	Sololá	713	San Lucas Tolimán	10	San Lucas Tolimán	11	Noviembre	2023-11-15T00:00:00	2024-11-08T06:00:00	1	Precipitación	0
159336	7	Sololá	713	San Lucas Tolimán	10	San Lucas Tolimán	11	Noviembre	2023-11-15T00:00:00	2024-11-08T06:00:00	8	Radiación solar	0
159337	7	Sololá	713	San Lucas Tolimán	10	San Lucas Tolimán	11	Noviembre	2023-11-15T00:00:00	2024-11-08T07:00:00	2	Temperatura media	20.9
159338	7	Sololá	713	San Lucas Tolimán	10	San Lucas Tolimán	11	Noviembre	2023-11-15T00:00:00	2024-11-08T07:00:00	4	Temperatura máxima	21
159339	7	Sololá	713	San Lucas Tolimán	10	San Lucas Tolimán	11	Noviembre	2023-11-15T00:00:00	2024-11-08T07:00:00	3	Temperatura mínima	20.2
159340	7	Sololá	713	San Lucas Tolimán	10	San Lucas Tolimán	11	Noviembre	2023-11-15T00:00:00	2024-11-08T07:00:00	5	Humedad	54
159341	7	Sololá	713	San Lucas Tolimán	10	San Lucas Tolimán	11	Noviembre	2023-11-15T00:00:00	2024-11-08T07:00:00	6	Velocidad del viento	12.9
159342	7	Sololá	713	San Lucas Tolimán	10	San Lucas Tolimán	11	Noviembre	2023-11-15T00:00:00	2024-11-08T07:00:00	7	Dirección del viento	12.87
159343	7	Sololá	713	San Lucas Tolimán	10	San Lucas Tolimán	11	Noviembre	2023-11-15T00:00:00	2024-11-08T07:00:00	1	Precipitación	0
159344	7	Sololá	713	San Lucas Tolimán	10	San Lucas Tolimán	11	Noviembre	2023-11-15T00:00:00	2024-11-08T07:00:00	8	Radiación solar	28
159345	7	Sololá	713	San Lucas Tolimán	10	San Lucas Tolimán	11	Noviembre	2023-11-15T00:00:00	2024-11-08T08:00:00	2	Temperatura media	22.3
159346	7	Sololá	713	San Lucas Tolimán	10	San Lucas Tolimán	11	Noviembre	2023-11-15T00:00:00	2024-11-08T08:00:00	4	Temperatura máxima	22.3
159347	7	Sololá	713	San Lucas Tolimán	10	San Lucas Tolimán	11	Noviembre	2023-11-15T00:00:00	2024-11-08T08:00:00	3	Temperatura mínima	20.8
159348	7	Sololá	713	San Lucas Tolimán	10	San Lucas Tolimán	11	Noviembre	2023-11-15T00:00:00	2024-11-08T08:00:00	5	Humedad	51
159349	7	Sololá	713	San Lucas Tolimán	10	San Lucas Tolimán	11	Noviembre	2023-11-15T00:00:00	2024-11-08T08:00:00	6	Velocidad del viento	11.3
159350	7	Sololá	713	San Lucas Tolimán	10	San Lucas Tolimán	11	Noviembre	2023-11-15T00:00:00	2024-11-08T08:00:00	7	Dirección del viento	11.27
159351	7	Sololá	713	San Lucas Tolimán	10	San Lucas Tolimán	11	Noviembre	2023-11-15T00:00:00	2024-11-08T08:00:00	1	Precipitación	0
159352	7	Sololá	713	San Lucas Tolimán	10	San Lucas Tolimán	11	Noviembre	2023-11-15T00:00:00	2024-11-08T08:00:00	8	Radiación solar	116
159353	7	Sololá	713	San Lucas Tolimán	10	San Lucas Tolimán	11	Noviembre	2023-11-15T00:00:00	2024-11-08T09:00:00	2	Temperatura media	23.9
159354	7	Sololá	713	San Lucas Tolimán	10	San Lucas Tolimán	11	Noviembre	2023-11-15T00:00:00	2024-11-08T09:00:00	4	Temperatura máxima	23.9
159355	7	Sololá	713	San Lucas Tolimán	10	San Lucas Tolimán	11	Noviembre	2023-11-15T00:00:00	2024-11-08T09:00:00	3	Temperatura mínima	22.3
159356	7	Sololá	713	San Lucas Tolimán	10	San Lucas Tolimán	11	Noviembre	2023-11-15T00:00:00	2024-11-08T09:00:00	5	Humedad	48
159357	7	Sololá	713	San Lucas Tolimán	10	San Lucas Tolimán	11	Noviembre	2023-11-15T00:00:00	2024-11-08T09:00:00	6	Velocidad del viento	11.3
159358	7	Sololá	713	San Lucas Tolimán	10	San Lucas Tolimán	11	Noviembre	2023-11-15T00:00:00	2024-11-08T09:00:00	7	Dirección del viento	11.27
159359	7	Sololá	713	San Lucas Tolimán	10	San Lucas Tolimán	11	Noviembre	2023-11-15T00:00:00	2024-11-08T09:00:00	1	Precipitación	0
159360	7	Sololá	713	San Lucas Tolimán	10	San Lucas Tolimán	11	Noviembre	2023-11-15T00:00:00	2024-11-08T09:00:00	8	Radiación solar	450
159361	7	Sololá	713	San Lucas Tolimán	10	San Lucas Tolimán	11	Noviembre	2023-11-15T00:00:00	2024-11-08T10:00:00	2	Temperatura media	25.1
159362	7	Sololá	713	San Lucas Tolimán	10	San Lucas Tolimán	11	Noviembre	2023-11-15T00:00:00	2024-11-08T10:00:00	4	Temperatura máxima	25.2
159363	7	Sololá	713	San Lucas Tolimán	10	San Lucas Tolimán	11	Noviembre	2023-11-15T00:00:00	2024-11-08T10:00:00	3	Temperatura mínima	23.9
159364	7	Sololá	713	San Lucas Tolimán	10	San Lucas Tolimán	11	Noviembre	2023-11-15T00:00:00	2024-11-08T10:00:00	5	Humedad	43
159365	7	Sololá	713	San Lucas Tolimán	10	San Lucas Tolimán	11	Noviembre	2023-11-15T00:00:00	2024-11-08T10:00:00	6	Velocidad del viento	11.3
159366	7	Sololá	713	San Lucas Tolimán	10	San Lucas Tolimán	11	Noviembre	2023-11-15T00:00:00	2024-11-08T10:00:00	7	Dirección del viento	11.27
159367	7	Sololá	713	San Lucas Tolimán	10	San Lucas Tolimán	11	Noviembre	2023-11-15T00:00:00	2024-11-08T10:00:00	1	Precipitación	0
159368	7	Sololá	713	San Lucas Tolimán	10	San Lucas Tolimán	11	Noviembre	2023-11-15T00:00:00	2024-11-08T10:00:00	8	Radiación solar	697
159369	7	Sololá	713	San Lucas Tolimán	10	San Lucas Tolimán	11	Noviembre	2023-11-15T00:00:00	2024-11-08T11:00:00	2	Temperatura media	26.1
159370	7	Sololá	713	San Lucas Tolimán	10	San Lucas Tolimán	11	Noviembre	2023-11-15T00:00:00	2024-11-08T11:00:00	4	Temperatura máxima	26.1
159371	7	Sololá	713	San Lucas Tolimán	10	San Lucas Tolimán	11	Noviembre	2023-11-15T00:00:00	2024-11-08T11:00:00	3	Temperatura mínima	26
159372	7	Sololá	713	San Lucas Tolimán	10	San Lucas Tolimán	11	Noviembre	2023-11-15T00:00:00	2024-11-08T11:00:00	5	Humedad	55
159373	7	Sololá	713	San Lucas Tolimán	10	San Lucas Tolimán	11	Noviembre	2023-11-15T00:00:00	2024-11-08T11:00:00	6	Velocidad del viento	12.9
159374	7	Sololá	713	San Lucas Tolimán	10	San Lucas Tolimán	11	Noviembre	2023-11-15T00:00:00	2024-11-08T11:00:00	7	Dirección del viento	12.87
159375	7	Sololá	713	San Lucas Tolimán	10	San Lucas Tolimán	11	Noviembre	2023-11-15T00:00:00	2024-11-08T11:00:00	1	Precipitación	0
159376	7	Sololá	713	San Lucas Tolimán	10	San Lucas Tolimán	11	Noviembre	2023-11-15T00:00:00	2024-11-08T11:00:00	8	Radiación solar	827
159377	7	Sololá	713	San Lucas Tolimán	10	San Lucas Tolimán	11	Noviembre	2023-11-15T00:00:00	2024-11-08T12:00:00	2	Temperatura media	26.4
159378	7	Sololá	713	San Lucas Tolimán	10	San Lucas Tolimán	11	Noviembre	2023-11-15T00:00:00	2024-11-08T12:00:00	4	Temperatura máxima	26.5
159379	7	Sololá	713	San Lucas Tolimán	10	San Lucas Tolimán	11	Noviembre	2023-11-15T00:00:00	2024-11-08T12:00:00	3	Temperatura mínima	25.4
159380	7	Sololá	713	San Lucas Tolimán	10	San Lucas Tolimán	11	Noviembre	2023-11-15T00:00:00	2024-11-08T12:00:00	5	Humedad	42
159381	7	Sololá	713	San Lucas Tolimán	10	San Lucas Tolimán	11	Noviembre	2023-11-15T00:00:00	2024-11-08T12:00:00	6	Velocidad del viento	11.3
159382	7	Sololá	713	San Lucas Tolimán	10	San Lucas Tolimán	11	Noviembre	2023-11-15T00:00:00	2024-11-08T12:00:00	7	Dirección del viento	11.27
159383	7	Sololá	713	San Lucas Tolimán	10	San Lucas Tolimán	11	Noviembre	2023-11-15T00:00:00	2024-11-08T12:00:00	1	Precipitación	0
159384	7	Sololá	713	San Lucas Tolimán	10	San Lucas Tolimán	11	Noviembre	2023-11-15T00:00:00	2024-11-08T12:00:00	8	Radiación solar	920
159385	7	Sololá	713	San Lucas Tolimán	10	San Lucas Tolimán	11	Noviembre	2023-11-15T00:00:00	2024-11-08T13:00:00	2	Temperatura media	25.2
159386	7	Sololá	713	San Lucas Tolimán	10	San Lucas Tolimán	11	Noviembre	2023-11-15T00:00:00	2024-11-08T13:00:00	4	Temperatura máxima	26.8
159387	7	Sololá	713	San Lucas Tolimán	10	San Lucas Tolimán	11	Noviembre	2023-11-15T00:00:00	2024-11-08T13:00:00	3	Temperatura mínima	25.1
159388	7	Sololá	713	San Lucas Tolimán	10	San Lucas Tolimán	11	Noviembre	2023-11-15T00:00:00	2024-11-08T13:00:00	5	Humedad	56
159389	7	Sololá	713	San Lucas Tolimán	10	San Lucas Tolimán	11	Noviembre	2023-11-15T00:00:00	2024-11-08T13:00:00	6	Velocidad del viento	9.7
159390	7	Sololá	713	San Lucas Tolimán	10	San Lucas Tolimán	11	Noviembre	2023-11-15T00:00:00	2024-11-08T13:00:00	7	Dirección del viento	9.66
159391	7	Sololá	713	San Lucas Tolimán	10	San Lucas Tolimán	11	Noviembre	2023-11-15T00:00:00	2024-11-08T13:00:00	1	Precipitación	0
159392	7	Sololá	713	San Lucas Tolimán	10	San Lucas Tolimán	11	Noviembre	2023-11-15T00:00:00	2024-11-08T13:00:00	8	Radiación solar	851
159393	7	Sololá	713	San Lucas Tolimán	10	San Lucas Tolimán	11	Noviembre	2023-11-15T00:00:00	2024-11-08T14:00:00	2	Temperatura media	24.7
159394	7	Sololá	713	San Lucas Tolimán	10	San Lucas Tolimán	11	Noviembre	2023-11-15T00:00:00	2024-11-08T14:00:00	4	Temperatura máxima	25.8
159395	7	Sololá	713	San Lucas Tolimán	10	San Lucas Tolimán	11	Noviembre	2023-11-15T00:00:00	2024-11-08T14:00:00	3	Temperatura mínima	24.6
159396	7	Sololá	713	San Lucas Tolimán	10	San Lucas Tolimán	11	Noviembre	2023-11-15T00:00:00	2024-11-08T14:00:00	5	Humedad	60
159397	7	Sololá	713	San Lucas Tolimán	10	San Lucas Tolimán	11	Noviembre	2023-11-15T00:00:00	2024-11-08T14:00:00	6	Velocidad del viento	8
159398	7	Sololá	713	San Lucas Tolimán	10	San Lucas Tolimán	11	Noviembre	2023-11-15T00:00:00	2024-11-08T14:00:00	7	Dirección del viento	8.05
159399	7	Sololá	713	San Lucas Tolimán	10	San Lucas Tolimán	11	Noviembre	2023-11-15T00:00:00	2024-11-08T14:00:00	1	Precipitación	0
159400	7	Sololá	713	San Lucas Tolimán	10	San Lucas Tolimán	11	Noviembre	2023-11-15T00:00:00	2024-11-08T14:00:00	8	Radiación solar	920
159401	7	Sololá	713	San Lucas Tolimán	10	San Lucas Tolimán	11	Noviembre	2023-11-15T00:00:00	2024-11-08T15:00:00	2	Temperatura media	22.8
159402	7	Sololá	713	San Lucas Tolimán	10	San Lucas Tolimán	11	Noviembre	2023-11-15T00:00:00	2024-11-08T15:00:00	4	Temperatura máxima	24.8
159403	7	Sololá	713	San Lucas Tolimán	10	San Lucas Tolimán	11	Noviembre	2023-11-15T00:00:00	2024-11-08T15:00:00	3	Temperatura mínima	22.6
159404	7	Sololá	713	San Lucas Tolimán	10	San Lucas Tolimán	11	Noviembre	2023-11-15T00:00:00	2024-11-08T15:00:00	5	Humedad	60
159405	7	Sololá	713	San Lucas Tolimán	10	San Lucas Tolimán	11	Noviembre	2023-11-15T00:00:00	2024-11-08T15:00:00	6	Velocidad del viento	11.3
159406	7	Sololá	713	San Lucas Tolimán	10	San Lucas Tolimán	11	Noviembre	2023-11-15T00:00:00	2024-11-08T15:00:00	7	Dirección del viento	11.27
159407	7	Sololá	713	San Lucas Tolimán	10	San Lucas Tolimán	11	Noviembre	2023-11-15T00:00:00	2024-11-08T15:00:00	1	Precipitación	0
159408	7	Sololá	713	San Lucas Tolimán	10	San Lucas Tolimán	11	Noviembre	2023-11-15T00:00:00	2024-11-08T15:00:00	8	Radiación solar	568
159409	7	Sololá	713	San Lucas Tolimán	10	San Lucas Tolimán	11	Noviembre	2023-11-15T00:00:00	2024-11-08T16:00:00	2	Temperatura media	21.9
159410	7	Sololá	713	San Lucas Tolimán	10	San Lucas Tolimán	11	Noviembre	2023-11-15T00:00:00	2024-11-08T16:00:00	4	Temperatura máxima	22.7
159411	7	Sololá	713	San Lucas Tolimán	10	San Lucas Tolimán	11	Noviembre	2023-11-15T00:00:00	2024-11-08T16:00:00	3	Temperatura mínima	21.4
159412	7	Sololá	713	San Lucas Tolimán	10	San Lucas Tolimán	11	Noviembre	2023-11-15T00:00:00	2024-11-08T16:00:00	5	Humedad	59
159413	7	Sololá	713	San Lucas Tolimán	10	San Lucas Tolimán	11	Noviembre	2023-11-15T00:00:00	2024-11-08T16:00:00	6	Velocidad del viento	11.3
159414	7	Sololá	713	San Lucas Tolimán	10	San Lucas Tolimán	11	Noviembre	2023-11-15T00:00:00	2024-11-08T16:00:00	7	Dirección del viento	11.27
159415	7	Sololá	713	San Lucas Tolimán	10	San Lucas Tolimán	11	Noviembre	2023-11-15T00:00:00	2024-11-08T16:00:00	1	Precipitación	0
159416	7	Sololá	713	San Lucas Tolimán	10	San Lucas Tolimán	11	Noviembre	2023-11-15T00:00:00	2024-11-08T16:00:00	8	Radiación solar	228
159417	7	Sololá	713	San Lucas Tolimán	10	San Lucas Tolimán	11	Noviembre	2023-11-15T00:00:00	2024-11-08T17:00:00	2	Temperatura media	21
159418	7	Sololá	713	San Lucas Tolimán	10	San Lucas Tolimán	11	Noviembre	2023-11-15T00:00:00	2024-11-08T17:00:00	4	Temperatura máxima	22.2
159419	7	Sololá	713	San Lucas Tolimán	10	San Lucas Tolimán	11	Noviembre	2023-11-15T00:00:00	2024-11-08T17:00:00	3	Temperatura mínima	21
159420	7	Sololá	713	San Lucas Tolimán	10	San Lucas Tolimán	11	Noviembre	2023-11-15T00:00:00	2024-11-08T17:00:00	5	Humedad	60
159421	7	Sololá	713	San Lucas Tolimán	10	San Lucas Tolimán	11	Noviembre	2023-11-15T00:00:00	2024-11-08T17:00:00	6	Velocidad del viento	8
159422	7	Sololá	713	San Lucas Tolimán	10	San Lucas Tolimán	11	Noviembre	2023-11-15T00:00:00	2024-11-08T17:00:00	7	Dirección del viento	8.05
159423	7	Sololá	713	San Lucas Tolimán	10	San Lucas Tolimán	11	Noviembre	2023-11-15T00:00:00	2024-11-08T17:00:00	1	Precipitación	0
159424	7	Sololá	713	San Lucas Tolimán	10	San Lucas Tolimán	11	Noviembre	2023-11-15T00:00:00	2024-11-08T17:00:00	8	Radiación solar	117
159425	7	Sololá	713	San Lucas Tolimán	10	San Lucas Tolimán	11	Noviembre	2023-11-15T00:00:00	2024-11-08T18:00:00	2	Temperatura media	20.1
159426	7	Sololá	713	San Lucas Tolimán	10	San Lucas Tolimán	11	Noviembre	2023-11-15T00:00:00	2024-11-08T18:00:00	4	Temperatura máxima	20.9
159427	7	Sololá	713	San Lucas Tolimán	10	San Lucas Tolimán	11	Noviembre	2023-11-15T00:00:00	2024-11-08T18:00:00	3	Temperatura mínima	20.1
159428	7	Sololá	713	San Lucas Tolimán	10	San Lucas Tolimán	11	Noviembre	2023-11-15T00:00:00	2024-11-08T18:00:00	5	Humedad	60
159429	7	Sololá	713	San Lucas Tolimán	10	San Lucas Tolimán	11	Noviembre	2023-11-15T00:00:00	2024-11-08T18:00:00	6	Velocidad del viento	9.7
159430	7	Sololá	713	San Lucas Tolimán	10	San Lucas Tolimán	11	Noviembre	2023-11-15T00:00:00	2024-11-08T18:00:00	7	Dirección del viento	9.66
159431	7	Sololá	713	San Lucas Tolimán	10	San Lucas Tolimán	11	Noviembre	2023-11-15T00:00:00	2024-11-08T18:00:00	1	Precipitación	0
159432	7	Sololá	713	San Lucas Tolimán	10	San Lucas Tolimán	11	Noviembre	2023-11-15T00:00:00	2024-11-08T18:00:00	8	Radiación solar	6
159433	7	Sololá	713	San Lucas Tolimán	10	San Lucas Tolimán	11	Noviembre	2023-11-15T00:00:00	2024-11-08T19:00:00	2	Temperatura media	19.3
159434	7	Sololá	713	San Lucas Tolimán	10	San Lucas Tolimán	11	Noviembre	2023-11-15T00:00:00	2024-11-08T19:00:00	4	Temperatura máxima	20.2
159435	7	Sololá	713	San Lucas Tolimán	10	San Lucas Tolimán	11	Noviembre	2023-11-15T00:00:00	2024-11-08T19:00:00	3	Temperatura mínima	19.3
159436	7	Sololá	713	San Lucas Tolimán	10	San Lucas Tolimán	11	Noviembre	2023-11-15T00:00:00	2024-11-08T19:00:00	5	Humedad	60
159437	7	Sololá	713	San Lucas Tolimán	10	San Lucas Tolimán	11	Noviembre	2023-11-15T00:00:00	2024-11-08T19:00:00	6	Velocidad del viento	4.8
159438	7	Sololá	713	San Lucas Tolimán	10	San Lucas Tolimán	11	Noviembre	2023-11-15T00:00:00	2024-11-08T19:00:00	7	Dirección del viento	4.83
159439	7	Sololá	713	San Lucas Tolimán	10	San Lucas Tolimán	11	Noviembre	2023-11-15T00:00:00	2024-11-08T19:00:00	1	Precipitación	0
159440	7	Sololá	713	San Lucas Tolimán	10	San Lucas Tolimán	11	Noviembre	2023-11-15T00:00:00	2024-11-08T19:00:00	8	Radiación solar	0
159441	7	Sololá	713	San Lucas Tolimán	10	San Lucas Tolimán	11	Noviembre	2023-11-15T00:00:00	2024-11-08T20:00:00	2	Temperatura media	18.7
159442	7	Sololá	713	San Lucas Tolimán	10	San Lucas Tolimán	11	Noviembre	2023-11-15T00:00:00	2024-11-08T20:00:00	4	Temperatura máxima	19.3
159443	7	Sololá	713	San Lucas Tolimán	10	San Lucas Tolimán	11	Noviembre	2023-11-15T00:00:00	2024-11-08T20:00:00	3	Temperatura mínima	18.4
159444	7	Sololá	713	San Lucas Tolimán	10	San Lucas Tolimán	11	Noviembre	2023-11-15T00:00:00	2024-11-08T20:00:00	5	Humedad	62
159445	7	Sololá	713	San Lucas Tolimán	10	San Lucas Tolimán	11	Noviembre	2023-11-15T00:00:00	2024-11-08T20:00:00	6	Velocidad del viento	3.2
159446	7	Sololá	713	San Lucas Tolimán	10	San Lucas Tolimán	11	Noviembre	2023-11-15T00:00:00	2024-11-08T20:00:00	7	Dirección del viento	3.22
159447	7	Sololá	713	San Lucas Tolimán	10	San Lucas Tolimán	11	Noviembre	2023-11-15T00:00:00	2024-11-08T20:00:00	1	Precipitación	0
159448	7	Sololá	713	San Lucas Tolimán	10	San Lucas Tolimán	11	Noviembre	2023-11-15T00:00:00	2024-11-08T20:00:00	8	Radiación solar	0
159449	7	Sololá	713	San Lucas Tolimán	10	San Lucas Tolimán	11	Noviembre	2023-11-15T00:00:00	2024-11-08T21:00:00	2	Temperatura media	17.9
159450	7	Sololá	713	San Lucas Tolimán	10	San Lucas Tolimán	11	Noviembre	2023-11-15T00:00:00	2024-11-08T21:00:00	4	Temperatura máxima	18.7
159451	7	Sololá	713	San Lucas Tolimán	10	San Lucas Tolimán	11	Noviembre	2023-11-15T00:00:00	2024-11-08T21:00:00	3	Temperatura mínima	17.8
159452	7	Sololá	713	San Lucas Tolimán	10	San Lucas Tolimán	11	Noviembre	2023-11-15T00:00:00	2024-11-08T21:00:00	5	Humedad	61
159453	7	Sololá	713	San Lucas Tolimán	10	San Lucas Tolimán	11	Noviembre	2023-11-15T00:00:00	2024-11-08T21:00:00	6	Velocidad del viento	3.2
159454	7	Sololá	713	San Lucas Tolimán	10	San Lucas Tolimán	11	Noviembre	2023-11-15T00:00:00	2024-11-08T21:00:00	7	Dirección del viento	3.22
159455	7	Sololá	713	San Lucas Tolimán	10	San Lucas Tolimán	11	Noviembre	2023-11-15T00:00:00	2024-11-08T21:00:00	1	Precipitación	0
159456	7	Sololá	713	San Lucas Tolimán	10	San Lucas Tolimán	11	Noviembre	2023-11-15T00:00:00	2024-11-08T21:00:00	8	Radiación solar	0
159457	7	Sololá	713	San Lucas Tolimán	10	San Lucas Tolimán	11	Noviembre	2023-11-15T00:00:00	2024-11-08T22:00:00	2	Temperatura media	17.6
159458	7	Sololá	713	San Lucas Tolimán	10	San Lucas Tolimán	11	Noviembre	2023-11-15T00:00:00	2024-11-08T22:00:00	4	Temperatura máxima	17.9
159459	7	Sololá	713	San Lucas Tolimán	10	San Lucas Tolimán	11	Noviembre	2023-11-15T00:00:00	2024-11-08T22:00:00	3	Temperatura mínima	17.4
159460	7	Sololá	713	San Lucas Tolimán	10	San Lucas Tolimán	11	Noviembre	2023-11-15T00:00:00	2024-11-08T22:00:00	5	Humedad	59
159461	7	Sololá	713	San Lucas Tolimán	10	San Lucas Tolimán	11	Noviembre	2023-11-15T00:00:00	2024-11-08T22:00:00	6	Velocidad del viento	1.6
159462	7	Sololá	713	San Lucas Tolimán	10	San Lucas Tolimán	11	Noviembre	2023-11-15T00:00:00	2024-11-08T22:00:00	7	Dirección del viento	1.61
159463	7	Sololá	713	San Lucas Tolimán	10	San Lucas Tolimán	11	Noviembre	2023-11-15T00:00:00	2024-11-08T22:00:00	1	Precipitación	0
159464	7	Sololá	713	San Lucas Tolimán	10	San Lucas Tolimán	11	Noviembre	2023-11-15T00:00:00	2024-11-08T22:00:00	8	Radiación solar	0
159465	7	Sololá	713	San Lucas Tolimán	10	San Lucas Tolimán	11	Noviembre	2023-11-15T00:00:00	2024-11-08T23:00:00	2	Temperatura media	20.2
159466	7	Sololá	713	San Lucas Tolimán	10	San Lucas Tolimán	11	Noviembre	2023-11-15T00:00:00	2024-11-08T23:00:00	4	Temperatura máxima	20.7
159467	7	Sololá	713	San Lucas Tolimán	10	San Lucas Tolimán	11	Noviembre	2023-11-15T00:00:00	2024-11-08T23:00:00	3	Temperatura mínima	17.7
159468	7	Sololá	713	San Lucas Tolimán	10	San Lucas Tolimán	11	Noviembre	2023-11-15T00:00:00	2024-11-08T23:00:00	5	Humedad	54
159469	7	Sololá	713	San Lucas Tolimán	10	San Lucas Tolimán	11	Noviembre	2023-11-15T00:00:00	2024-11-08T23:00:00	6	Velocidad del viento	9.7
159470	7	Sololá	713	San Lucas Tolimán	10	San Lucas Tolimán	11	Noviembre	2023-11-15T00:00:00	2024-11-08T23:00:00	7	Dirección del viento	9.66
159471	7	Sololá	713	San Lucas Tolimán	10	San Lucas Tolimán	11	Noviembre	2023-11-15T00:00:00	2024-11-08T23:00:00	1	Precipitación	0
159472	7	Sololá	713	San Lucas Tolimán	10	San Lucas Tolimán	11	Noviembre	2023-11-15T00:00:00	2024-11-08T23:00:00	8	Radiación solar	0
159473	7	Sololá	713	San Lucas Tolimán	10	San Lucas Tolimán	11	Noviembre	2023-11-16T00:00:00	2024-11-08T00:00:00	2	Temperatura media	20.2
159474	7	Sololá	713	San Lucas Tolimán	10	San Lucas Tolimán	11	Noviembre	2023-11-16T00:00:00	2024-11-08T00:00:00	4	Temperatura máxima	20.6
159475	7	Sololá	713	San Lucas Tolimán	10	San Lucas Tolimán	11	Noviembre	2023-11-16T00:00:00	2024-11-08T00:00:00	3	Temperatura mínima	20.1
159476	7	Sololá	713	San Lucas Tolimán	10	San Lucas Tolimán	11	Noviembre	2023-11-16T00:00:00	2024-11-08T00:00:00	5	Humedad	52
159477	7	Sololá	713	San Lucas Tolimán	10	San Lucas Tolimán	11	Noviembre	2023-11-16T00:00:00	2024-11-08T00:00:00	6	Velocidad del viento	8
159478	7	Sololá	713	San Lucas Tolimán	10	San Lucas Tolimán	11	Noviembre	2023-11-16T00:00:00	2024-11-08T00:00:00	7	Dirección del viento	8.05
159479	7	Sololá	713	San Lucas Tolimán	10	San Lucas Tolimán	11	Noviembre	2023-11-16T00:00:00	2024-11-08T00:00:00	1	Precipitación	0
159480	7	Sololá	713	San Lucas Tolimán	10	San Lucas Tolimán	11	Noviembre	2023-11-16T00:00:00	2024-11-08T00:00:00	8	Radiación solar	0
159481	7	Sololá	713	San Lucas Tolimán	10	San Lucas Tolimán	11	Noviembre	2023-11-16T00:00:00	2024-11-08T01:00:00	2	Temperatura media	19.2
159482	7	Sololá	713	San Lucas Tolimán	10	San Lucas Tolimán	11	Noviembre	2023-11-16T00:00:00	2024-11-08T01:00:00	4	Temperatura máxima	20.8
159483	7	Sololá	713	San Lucas Tolimán	10	San Lucas Tolimán	11	Noviembre	2023-11-16T00:00:00	2024-11-08T01:00:00	3	Temperatura mínima	19.2
159484	7	Sololá	713	San Lucas Tolimán	10	San Lucas Tolimán	11	Noviembre	2023-11-16T00:00:00	2024-11-08T01:00:00	5	Humedad	60
159485	7	Sololá	713	San Lucas Tolimán	10	San Lucas Tolimán	11	Noviembre	2023-11-16T00:00:00	2024-11-08T01:00:00	6	Velocidad del viento	8
159486	7	Sololá	713	San Lucas Tolimán	10	San Lucas Tolimán	11	Noviembre	2023-11-16T00:00:00	2024-11-08T01:00:00	7	Dirección del viento	8.05
159487	7	Sololá	713	San Lucas Tolimán	10	San Lucas Tolimán	11	Noviembre	2023-11-16T00:00:00	2024-11-08T01:00:00	1	Precipitación	0
159488	7	Sololá	713	San Lucas Tolimán	10	San Lucas Tolimán	11	Noviembre	2023-11-16T00:00:00	2024-11-08T01:00:00	8	Radiación solar	0
159489	7	Sololá	713	San Lucas Tolimán	10	San Lucas Tolimán	11	Noviembre	2023-11-16T00:00:00	2024-11-08T02:00:00	2	Temperatura media	18.3
159490	7	Sololá	713	San Lucas Tolimán	10	San Lucas Tolimán	11	Noviembre	2023-11-16T00:00:00	2024-11-08T02:00:00	4	Temperatura máxima	19.2
159491	7	Sololá	713	San Lucas Tolimán	10	San Lucas Tolimán	11	Noviembre	2023-11-16T00:00:00	2024-11-08T02:00:00	3	Temperatura mínima	18.3
159492	7	Sololá	713	San Lucas Tolimán	10	San Lucas Tolimán	11	Noviembre	2023-11-16T00:00:00	2024-11-08T02:00:00	5	Humedad	61
159493	7	Sololá	713	San Lucas Tolimán	10	San Lucas Tolimán	11	Noviembre	2023-11-16T00:00:00	2024-11-08T02:00:00	6	Velocidad del viento	3.2
159494	7	Sololá	713	San Lucas Tolimán	10	San Lucas Tolimán	11	Noviembre	2023-11-16T00:00:00	2024-11-08T02:00:00	7	Dirección del viento	3.22
159495	7	Sololá	713	San Lucas Tolimán	10	San Lucas Tolimán	11	Noviembre	2023-11-16T00:00:00	2024-11-08T02:00:00	1	Precipitación	0
159496	7	Sololá	713	San Lucas Tolimán	10	San Lucas Tolimán	11	Noviembre	2023-11-16T00:00:00	2024-11-08T02:00:00	8	Radiación solar	0
159497	7	Sololá	713	San Lucas Tolimán	10	San Lucas Tolimán	11	Noviembre	2023-11-16T00:00:00	2024-11-08T03:00:00	2	Temperatura media	20.2
159498	7	Sololá	713	San Lucas Tolimán	10	San Lucas Tolimán	11	Noviembre	2023-11-16T00:00:00	2024-11-08T03:00:00	4	Temperatura máxima	20.2
159499	7	Sololá	713	San Lucas Tolimán	10	San Lucas Tolimán	11	Noviembre	2023-11-16T00:00:00	2024-11-08T03:00:00	3	Temperatura mínima	17.1
159500	7	Sololá	713	San Lucas Tolimán	10	San Lucas Tolimán	11	Noviembre	2023-11-16T00:00:00	2024-11-08T03:00:00	5	Humedad	52
159501	7	Sololá	713	San Lucas Tolimán	10	San Lucas Tolimán	11	Noviembre	2023-11-16T00:00:00	2024-11-08T03:00:00	6	Velocidad del viento	4.8
159502	7	Sololá	713	San Lucas Tolimán	10	San Lucas Tolimán	11	Noviembre	2023-11-16T00:00:00	2024-11-08T03:00:00	7	Dirección del viento	4.83
159503	7	Sololá	713	San Lucas Tolimán	10	San Lucas Tolimán	11	Noviembre	2023-11-16T00:00:00	2024-11-08T03:00:00	1	Precipitación	0
159504	7	Sololá	713	San Lucas Tolimán	10	San Lucas Tolimán	11	Noviembre	2023-11-16T00:00:00	2024-11-08T03:00:00	8	Radiación solar	0
159505	7	Sololá	713	San Lucas Tolimán	10	San Lucas Tolimán	11	Noviembre	2023-11-16T00:00:00	2024-11-08T04:00:00	2	Temperatura media	18.9
159506	7	Sololá	713	San Lucas Tolimán	10	San Lucas Tolimán	11	Noviembre	2023-11-16T00:00:00	2024-11-08T04:00:00	4	Temperatura máxima	20.9
159507	7	Sololá	713	San Lucas Tolimán	10	San Lucas Tolimán	11	Noviembre	2023-11-16T00:00:00	2024-11-08T04:00:00	3	Temperatura mínima	18.9
159508	7	Sololá	713	San Lucas Tolimán	10	San Lucas Tolimán	11	Noviembre	2023-11-16T00:00:00	2024-11-08T04:00:00	5	Humedad	57
159509	7	Sololá	713	San Lucas Tolimán	10	San Lucas Tolimán	11	Noviembre	2023-11-16T00:00:00	2024-11-08T04:00:00	6	Velocidad del viento	6.4
159510	7	Sololá	713	San Lucas Tolimán	10	San Lucas Tolimán	11	Noviembre	2023-11-16T00:00:00	2024-11-08T04:00:00	7	Dirección del viento	6.44
159511	7	Sololá	713	San Lucas Tolimán	10	San Lucas Tolimán	11	Noviembre	2023-11-16T00:00:00	2024-11-08T04:00:00	1	Precipitación	0
159512	7	Sololá	713	San Lucas Tolimán	10	San Lucas Tolimán	11	Noviembre	2023-11-16T00:00:00	2024-11-08T04:00:00	8	Radiación solar	0
159513	7	Sololá	713	San Lucas Tolimán	10	San Lucas Tolimán	11	Noviembre	2023-11-16T00:00:00	2024-11-08T05:00:00	2	Temperatura media	19.1
159514	7	Sololá	713	San Lucas Tolimán	10	San Lucas Tolimán	11	Noviembre	2023-11-16T00:00:00	2024-11-08T05:00:00	4	Temperatura máxima	19.1
159515	7	Sololá	713	San Lucas Tolimán	10	San Lucas Tolimán	11	Noviembre	2023-11-16T00:00:00	2024-11-08T05:00:00	3	Temperatura mínima	18.4
159516	7	Sololá	713	San Lucas Tolimán	10	San Lucas Tolimán	11	Noviembre	2023-11-16T00:00:00	2024-11-08T05:00:00	5	Humedad	57
159517	7	Sololá	713	San Lucas Tolimán	10	San Lucas Tolimán	11	Noviembre	2023-11-16T00:00:00	2024-11-08T05:00:00	6	Velocidad del viento	1.6
159518	7	Sololá	713	San Lucas Tolimán	10	San Lucas Tolimán	11	Noviembre	2023-11-16T00:00:00	2024-11-08T05:00:00	7	Dirección del viento	1.61
159519	7	Sololá	713	San Lucas Tolimán	10	San Lucas Tolimán	11	Noviembre	2023-11-16T00:00:00	2024-11-08T05:00:00	1	Precipitación	0
159520	7	Sololá	713	San Lucas Tolimán	10	San Lucas Tolimán	11	Noviembre	2023-11-16T00:00:00	2024-11-08T05:00:00	8	Radiación solar	0
159521	7	Sololá	713	San Lucas Tolimán	10	San Lucas Tolimán	11	Noviembre	2023-11-16T00:00:00	2024-11-08T06:00:00	2	Temperatura media	18.5
159522	7	Sololá	713	San Lucas Tolimán	10	San Lucas Tolimán	11	Noviembre	2023-11-16T00:00:00	2024-11-08T06:00:00	4	Temperatura máxima	19.2
159523	7	Sololá	713	San Lucas Tolimán	10	San Lucas Tolimán	11	Noviembre	2023-11-16T00:00:00	2024-11-08T06:00:00	3	Temperatura mínima	17.7
159524	7	Sololá	713	San Lucas Tolimán	10	San Lucas Tolimán	11	Noviembre	2023-11-16T00:00:00	2024-11-08T06:00:00	5	Humedad	57
159525	7	Sololá	713	San Lucas Tolimán	10	San Lucas Tolimán	11	Noviembre	2023-11-16T00:00:00	2024-11-08T06:00:00	6	Velocidad del viento	1.6
159526	7	Sololá	713	San Lucas Tolimán	10	San Lucas Tolimán	11	Noviembre	2023-11-16T00:00:00	2024-11-08T06:00:00	7	Dirección del viento	1.61
159527	7	Sololá	713	San Lucas Tolimán	10	San Lucas Tolimán	11	Noviembre	2023-11-16T00:00:00	2024-11-08T06:00:00	1	Precipitación	0
159528	7	Sololá	713	San Lucas Tolimán	10	San Lucas Tolimán	11	Noviembre	2023-11-16T00:00:00	2024-11-08T06:00:00	8	Radiación solar	0
159529	7	Sololá	713	San Lucas Tolimán	10	San Lucas Tolimán	11	Noviembre	2023-11-16T00:00:00	2024-11-08T07:00:00	2	Temperatura media	18.9
159530	7	Sololá	713	San Lucas Tolimán	10	San Lucas Tolimán	11	Noviembre	2023-11-16T00:00:00	2024-11-08T07:00:00	4	Temperatura máxima	19.3
159531	7	Sololá	713	San Lucas Tolimán	10	San Lucas Tolimán	11	Noviembre	2023-11-16T00:00:00	2024-11-08T07:00:00	3	Temperatura mínima	18.5
159532	7	Sololá	713	San Lucas Tolimán	10	San Lucas Tolimán	11	Noviembre	2023-11-16T00:00:00	2024-11-08T07:00:00	5	Humedad	56
159533	7	Sololá	713	San Lucas Tolimán	10	San Lucas Tolimán	11	Noviembre	2023-11-16T00:00:00	2024-11-08T07:00:00	6	Velocidad del viento	3.2
159534	7	Sololá	713	San Lucas Tolimán	10	San Lucas Tolimán	11	Noviembre	2023-11-16T00:00:00	2024-11-08T07:00:00	7	Dirección del viento	3.22
159535	7	Sololá	713	San Lucas Tolimán	10	San Lucas Tolimán	11	Noviembre	2023-11-16T00:00:00	2024-11-08T07:00:00	1	Precipitación	0
159536	7	Sololá	713	San Lucas Tolimán	10	San Lucas Tolimán	11	Noviembre	2023-11-16T00:00:00	2024-11-08T07:00:00	8	Radiación solar	10
159537	7	Sololá	713	San Lucas Tolimán	10	San Lucas Tolimán	11	Noviembre	2023-11-16T00:00:00	2024-11-08T08:00:00	2	Temperatura media	20.3
159538	7	Sololá	713	San Lucas Tolimán	10	San Lucas Tolimán	11	Noviembre	2023-11-16T00:00:00	2024-11-08T08:00:00	4	Temperatura máxima	20.3
159539	7	Sololá	713	San Lucas Tolimán	10	San Lucas Tolimán	11	Noviembre	2023-11-16T00:00:00	2024-11-08T08:00:00	3	Temperatura mínima	18.9
159540	7	Sololá	713	San Lucas Tolimán	10	San Lucas Tolimán	11	Noviembre	2023-11-16T00:00:00	2024-11-08T08:00:00	5	Humedad	53
159541	7	Sololá	713	San Lucas Tolimán	10	San Lucas Tolimán	11	Noviembre	2023-11-16T00:00:00	2024-11-08T08:00:00	6	Velocidad del viento	3.2
159542	7	Sololá	713	San Lucas Tolimán	10	San Lucas Tolimán	11	Noviembre	2023-11-16T00:00:00	2024-11-08T08:00:00	7	Dirección del viento	3.22
159543	7	Sololá	713	San Lucas Tolimán	10	San Lucas Tolimán	11	Noviembre	2023-11-16T00:00:00	2024-11-08T08:00:00	1	Precipitación	0
159544	7	Sololá	713	San Lucas Tolimán	10	San Lucas Tolimán	11	Noviembre	2023-11-16T00:00:00	2024-11-08T08:00:00	8	Radiación solar	61
159545	7	Sololá	713	San Lucas Tolimán	10	San Lucas Tolimán	11	Noviembre	2023-11-16T00:00:00	2024-11-08T09:00:00	2	Temperatura media	23.1
159546	7	Sololá	713	San Lucas Tolimán	10	San Lucas Tolimán	11	Noviembre	2023-11-16T00:00:00	2024-11-08T09:00:00	4	Temperatura máxima	23.1
159547	7	Sololá	713	San Lucas Tolimán	10	San Lucas Tolimán	11	Noviembre	2023-11-16T00:00:00	2024-11-08T09:00:00	3	Temperatura mínima	20.3
159548	7	Sololá	713	San Lucas Tolimán	10	San Lucas Tolimán	11	Noviembre	2023-11-16T00:00:00	2024-11-08T09:00:00	5	Humedad	46
159549	7	Sololá	713	San Lucas Tolimán	10	San Lucas Tolimán	11	Noviembre	2023-11-16T00:00:00	2024-11-08T09:00:00	6	Velocidad del viento	4.8
159550	7	Sololá	713	San Lucas Tolimán	10	San Lucas Tolimán	11	Noviembre	2023-11-16T00:00:00	2024-11-08T09:00:00	7	Dirección del viento	4.83
159551	7	Sololá	713	San Lucas Tolimán	10	San Lucas Tolimán	11	Noviembre	2023-11-16T00:00:00	2024-11-08T09:00:00	1	Precipitación	0
159552	7	Sololá	713	San Lucas Tolimán	10	San Lucas Tolimán	11	Noviembre	2023-11-16T00:00:00	2024-11-08T09:00:00	8	Radiación solar	407
159553	7	Sololá	713	San Lucas Tolimán	10	San Lucas Tolimán	11	Noviembre	2023-11-16T00:00:00	2024-11-08T10:00:00	2	Temperatura media	25.6
159554	7	Sololá	713	San Lucas Tolimán	10	San Lucas Tolimán	11	Noviembre	2023-11-16T00:00:00	2024-11-08T10:00:00	4	Temperatura máxima	25.6
159555	7	Sololá	713	San Lucas Tolimán	10	San Lucas Tolimán	11	Noviembre	2023-11-16T00:00:00	2024-11-08T10:00:00	3	Temperatura mínima	23.1
159556	7	Sololá	713	San Lucas Tolimán	10	San Lucas Tolimán	11	Noviembre	2023-11-16T00:00:00	2024-11-08T10:00:00	5	Humedad	39
159557	7	Sololá	713	San Lucas Tolimán	10	San Lucas Tolimán	11	Noviembre	2023-11-16T00:00:00	2024-11-08T10:00:00	6	Velocidad del viento	3.2
159558	7	Sololá	713	San Lucas Tolimán	10	San Lucas Tolimán	11	Noviembre	2023-11-16T00:00:00	2024-11-08T10:00:00	7	Dirección del viento	3.22
159559	7	Sololá	713	San Lucas Tolimán	10	San Lucas Tolimán	11	Noviembre	2023-11-16T00:00:00	2024-11-08T10:00:00	1	Precipitación	0
159560	7	Sololá	713	San Lucas Tolimán	10	San Lucas Tolimán	11	Noviembre	2023-11-16T00:00:00	2024-11-08T10:00:00	8	Radiación solar	691
159561	7	Sololá	713	San Lucas Tolimán	10	San Lucas Tolimán	11	Noviembre	2023-11-16T00:00:00	2024-11-08T11:00:00	2	Temperatura media	24.2
159562	7	Sololá	713	San Lucas Tolimán	10	San Lucas Tolimán	11	Noviembre	2023-11-16T00:00:00	2024-11-08T11:00:00	4	Temperatura máxima	25.9
159563	7	Sololá	713	San Lucas Tolimán	10	San Lucas Tolimán	11	Noviembre	2023-11-16T00:00:00	2024-11-08T11:00:00	3	Temperatura mínima	23.8
159564	7	Sololá	713	San Lucas Tolimán	10	San Lucas Tolimán	11	Noviembre	2023-11-16T00:00:00	2024-11-08T11:00:00	5	Humedad	55
159565	7	Sololá	713	San Lucas Tolimán	10	San Lucas Tolimán	11	Noviembre	2023-11-16T00:00:00	2024-11-08T11:00:00	6	Velocidad del viento	8
159566	7	Sololá	713	San Lucas Tolimán	10	San Lucas Tolimán	11	Noviembre	2023-11-16T00:00:00	2024-11-08T11:00:00	7	Dirección del viento	8.05
159567	7	Sololá	713	San Lucas Tolimán	10	San Lucas Tolimán	11	Noviembre	2023-11-16T00:00:00	2024-11-08T11:00:00	1	Precipitación	0
159568	7	Sololá	713	San Lucas Tolimán	10	San Lucas Tolimán	11	Noviembre	2023-11-16T00:00:00	2024-11-08T11:00:00	8	Radiación solar	821
159569	7	Sololá	713	San Lucas Tolimán	10	San Lucas Tolimán	11	Noviembre	2023-11-16T00:00:00	2024-11-08T12:00:00	2	Temperatura media	24
159570	7	Sololá	713	San Lucas Tolimán	10	San Lucas Tolimán	11	Noviembre	2023-11-16T00:00:00	2024-11-08T12:00:00	4	Temperatura máxima	25
159571	7	Sololá	713	San Lucas Tolimán	10	San Lucas Tolimán	11	Noviembre	2023-11-16T00:00:00	2024-11-08T12:00:00	3	Temperatura mínima	23.8
159572	7	Sololá	713	San Lucas Tolimán	10	San Lucas Tolimán	11	Noviembre	2023-11-16T00:00:00	2024-11-08T12:00:00	5	Humedad	58
159573	7	Sololá	713	San Lucas Tolimán	10	San Lucas Tolimán	11	Noviembre	2023-11-16T00:00:00	2024-11-08T12:00:00	6	Velocidad del viento	9.7
159574	7	Sololá	713	San Lucas Tolimán	10	San Lucas Tolimán	11	Noviembre	2023-11-16T00:00:00	2024-11-08T12:00:00	7	Dirección del viento	9.66
159575	7	Sololá	713	San Lucas Tolimán	10	San Lucas Tolimán	11	Noviembre	2023-11-16T00:00:00	2024-11-08T12:00:00	1	Precipitación	0
159576	7	Sololá	713	San Lucas Tolimán	10	San Lucas Tolimán	11	Noviembre	2023-11-16T00:00:00	2024-11-08T12:00:00	8	Radiación solar	903
159577	7	Sololá	713	San Lucas Tolimán	10	San Lucas Tolimán	11	Noviembre	2023-11-16T00:00:00	2024-11-08T13:00:00	2	Temperatura media	22.9
159578	7	Sololá	713	San Lucas Tolimán	10	San Lucas Tolimán	11	Noviembre	2023-11-16T00:00:00	2024-11-08T13:00:00	4	Temperatura máxima	24
159579	7	Sololá	713	San Lucas Tolimán	10	San Lucas Tolimán	11	Noviembre	2023-11-16T00:00:00	2024-11-08T13:00:00	3	Temperatura mínima	22.6
159580	7	Sololá	713	San Lucas Tolimán	10	San Lucas Tolimán	11	Noviembre	2023-11-16T00:00:00	2024-11-08T13:00:00	5	Humedad	60
159581	7	Sololá	713	San Lucas Tolimán	10	San Lucas Tolimán	11	Noviembre	2023-11-16T00:00:00	2024-11-08T13:00:00	6	Velocidad del viento	12.9
159582	7	Sololá	713	San Lucas Tolimán	10	San Lucas Tolimán	11	Noviembre	2023-11-16T00:00:00	2024-11-08T13:00:00	7	Dirección del viento	12.87
159583	7	Sololá	713	San Lucas Tolimán	10	San Lucas Tolimán	11	Noviembre	2023-11-16T00:00:00	2024-11-08T13:00:00	1	Precipitación	0
159584	7	Sololá	713	San Lucas Tolimán	10	San Lucas Tolimán	11	Noviembre	2023-11-16T00:00:00	2024-11-08T13:00:00	8	Radiación solar	928
159585	7	Sololá	713	San Lucas Tolimán	10	San Lucas Tolimán	11	Noviembre	2023-11-16T00:00:00	2024-11-08T14:00:00	2	Temperatura media	22.6
159586	7	Sololá	713	San Lucas Tolimán	10	San Lucas Tolimán	11	Noviembre	2023-11-16T00:00:00	2024-11-08T14:00:00	4	Temperatura máxima	23.6
159587	7	Sololá	713	San Lucas Tolimán	10	San Lucas Tolimán	11	Noviembre	2023-11-16T00:00:00	2024-11-08T14:00:00	3	Temperatura mínima	22.5
159588	7	Sololá	713	San Lucas Tolimán	10	San Lucas Tolimán	11	Noviembre	2023-11-16T00:00:00	2024-11-08T14:00:00	5	Humedad	61
159589	7	Sololá	713	San Lucas Tolimán	10	San Lucas Tolimán	11	Noviembre	2023-11-16T00:00:00	2024-11-08T14:00:00	6	Velocidad del viento	12.9
159590	7	Sololá	713	San Lucas Tolimán	10	San Lucas Tolimán	11	Noviembre	2023-11-16T00:00:00	2024-11-08T14:00:00	7	Dirección del viento	12.87
159591	7	Sololá	713	San Lucas Tolimán	10	San Lucas Tolimán	11	Noviembre	2023-11-16T00:00:00	2024-11-08T14:00:00	1	Precipitación	0
159592	7	Sololá	713	San Lucas Tolimán	10	San Lucas Tolimán	11	Noviembre	2023-11-16T00:00:00	2024-11-08T14:00:00	8	Radiación solar	790
159593	7	Sololá	713	San Lucas Tolimán	10	San Lucas Tolimán	11	Noviembre	2023-11-16T00:00:00	2024-11-08T15:00:00	2	Temperatura media	21.9
159594	7	Sololá	713	San Lucas Tolimán	10	San Lucas Tolimán	11	Noviembre	2023-11-16T00:00:00	2024-11-08T15:00:00	4	Temperatura máxima	23.1
159595	7	Sololá	713	San Lucas Tolimán	10	San Lucas Tolimán	11	Noviembre	2023-11-16T00:00:00	2024-11-08T15:00:00	3	Temperatura mínima	21.9
159596	7	Sololá	713	San Lucas Tolimán	10	San Lucas Tolimán	11	Noviembre	2023-11-16T00:00:00	2024-11-08T15:00:00	5	Humedad	62
159597	7	Sololá	713	San Lucas Tolimán	10	San Lucas Tolimán	11	Noviembre	2023-11-16T00:00:00	2024-11-08T15:00:00	6	Velocidad del viento	12.9
159598	7	Sololá	713	San Lucas Tolimán	10	San Lucas Tolimán	11	Noviembre	2023-11-16T00:00:00	2024-11-08T15:00:00	7	Dirección del viento	12.87
159599	7	Sololá	713	San Lucas Tolimán	10	San Lucas Tolimán	11	Noviembre	2023-11-16T00:00:00	2024-11-08T15:00:00	1	Precipitación	0
159600	7	Sololá	713	San Lucas Tolimán	10	San Lucas Tolimán	11	Noviembre	2023-11-16T00:00:00	2024-11-08T15:00:00	8	Radiación solar	538
159601	7	Sololá	713	San Lucas Tolimán	10	San Lucas Tolimán	11	Noviembre	2023-11-16T00:00:00	2024-11-08T16:00:00	2	Temperatura media	21.1
159602	7	Sololá	713	San Lucas Tolimán	10	San Lucas Tolimán	11	Noviembre	2023-11-16T00:00:00	2024-11-08T16:00:00	4	Temperatura máxima	22
159603	7	Sololá	713	San Lucas Tolimán	10	San Lucas Tolimán	11	Noviembre	2023-11-16T00:00:00	2024-11-08T16:00:00	3	Temperatura mínima	20.7
159604	7	Sololá	713	San Lucas Tolimán	10	San Lucas Tolimán	11	Noviembre	2023-11-16T00:00:00	2024-11-08T16:00:00	5	Humedad	59
159605	7	Sololá	713	San Lucas Tolimán	10	San Lucas Tolimán	11	Noviembre	2023-11-16T00:00:00	2024-11-08T16:00:00	6	Velocidad del viento	9.7
159606	7	Sololá	713	San Lucas Tolimán	10	San Lucas Tolimán	11	Noviembre	2023-11-16T00:00:00	2024-11-08T16:00:00	7	Dirección del viento	9.66
159607	7	Sololá	713	San Lucas Tolimán	10	San Lucas Tolimán	11	Noviembre	2023-11-16T00:00:00	2024-11-08T16:00:00	1	Precipitación	0
159608	7	Sololá	713	San Lucas Tolimán	10	San Lucas Tolimán	11	Noviembre	2023-11-16T00:00:00	2024-11-08T16:00:00	8	Radiación solar	162
159609	7	Sololá	713	San Lucas Tolimán	10	San Lucas Tolimán	11	Noviembre	2023-11-16T00:00:00	2024-11-08T17:00:00	2	Temperatura media	20.3
159610	7	Sololá	713	San Lucas Tolimán	10	San Lucas Tolimán	11	Noviembre	2023-11-16T00:00:00	2024-11-08T17:00:00	4	Temperatura máxima	21.1
159611	7	Sololá	713	San Lucas Tolimán	10	San Lucas Tolimán	11	Noviembre	2023-11-16T00:00:00	2024-11-08T17:00:00	3	Temperatura mínima	20.2
159612	7	Sololá	713	San Lucas Tolimán	10	San Lucas Tolimán	11	Noviembre	2023-11-16T00:00:00	2024-11-08T17:00:00	5	Humedad	59
159613	7	Sololá	713	San Lucas Tolimán	10	San Lucas Tolimán	11	Noviembre	2023-11-16T00:00:00	2024-11-08T17:00:00	6	Velocidad del viento	8
159614	7	Sololá	713	San Lucas Tolimán	10	San Lucas Tolimán	11	Noviembre	2023-11-16T00:00:00	2024-11-08T17:00:00	7	Dirección del viento	8.05
159615	7	Sololá	713	San Lucas Tolimán	10	San Lucas Tolimán	11	Noviembre	2023-11-16T00:00:00	2024-11-08T17:00:00	1	Precipitación	0
159616	7	Sololá	713	San Lucas Tolimán	10	San Lucas Tolimán	11	Noviembre	2023-11-16T00:00:00	2024-11-08T17:00:00	8	Radiación solar	53
159617	7	Sololá	713	San Lucas Tolimán	10	San Lucas Tolimán	11	Noviembre	2023-11-16T00:00:00	2024-11-08T18:00:00	2	Temperatura media	20.1
159618	7	Sololá	713	San Lucas Tolimán	10	San Lucas Tolimán	11	Noviembre	2023-11-16T00:00:00	2024-11-08T18:00:00	4	Temperatura máxima	20.6
159619	7	Sololá	713	San Lucas Tolimán	10	San Lucas Tolimán	11	Noviembre	2023-11-16T00:00:00	2024-11-08T18:00:00	3	Temperatura mínima	20.1
159620	7	Sololá	713	San Lucas Tolimán	10	San Lucas Tolimán	11	Noviembre	2023-11-16T00:00:00	2024-11-08T18:00:00	5	Humedad	60
159621	7	Sololá	713	San Lucas Tolimán	10	San Lucas Tolimán	11	Noviembre	2023-11-16T00:00:00	2024-11-08T18:00:00	6	Velocidad del viento	4.8
159622	7	Sololá	713	San Lucas Tolimán	10	San Lucas Tolimán	11	Noviembre	2023-11-16T00:00:00	2024-11-08T18:00:00	7	Dirección del viento	4.83
159623	7	Sololá	713	San Lucas Tolimán	10	San Lucas Tolimán	11	Noviembre	2023-11-16T00:00:00	2024-11-08T18:00:00	1	Precipitación	0
159624	7	Sololá	713	San Lucas Tolimán	10	San Lucas Tolimán	11	Noviembre	2023-11-16T00:00:00	2024-11-08T18:00:00	8	Radiación solar	7
159625	7	Sololá	713	San Lucas Tolimán	10	San Lucas Tolimán	11	Noviembre	2023-11-16T00:00:00	2024-11-08T19:00:00	2	Temperatura media	19.6
159626	7	Sololá	713	San Lucas Tolimán	10	San Lucas Tolimán	11	Noviembre	2023-11-16T00:00:00	2024-11-08T19:00:00	4	Temperatura máxima	20.1
159627	7	Sololá	713	San Lucas Tolimán	10	San Lucas Tolimán	11	Noviembre	2023-11-16T00:00:00	2024-11-08T19:00:00	3	Temperatura mínima	19.6
159628	7	Sololá	713	San Lucas Tolimán	10	San Lucas Tolimán	11	Noviembre	2023-11-16T00:00:00	2024-11-08T19:00:00	5	Humedad	61
159629	7	Sololá	713	San Lucas Tolimán	10	San Lucas Tolimán	11	Noviembre	2023-11-16T00:00:00	2024-11-08T19:00:00	6	Velocidad del viento	3.2
159630	7	Sololá	713	San Lucas Tolimán	10	San Lucas Tolimán	11	Noviembre	2023-11-16T00:00:00	2024-11-08T19:00:00	7	Dirección del viento	3.22
159631	7	Sololá	713	San Lucas Tolimán	10	San Lucas Tolimán	11	Noviembre	2023-11-16T00:00:00	2024-11-08T19:00:00	1	Precipitación	0
159632	7	Sololá	713	San Lucas Tolimán	10	San Lucas Tolimán	11	Noviembre	2023-11-16T00:00:00	2024-11-08T19:00:00	8	Radiación solar	0
159633	7	Sololá	713	San Lucas Tolimán	10	San Lucas Tolimán	11	Noviembre	2023-11-16T00:00:00	2024-11-08T20:00:00	2	Temperatura media	19.1
159634	7	Sololá	713	San Lucas Tolimán	10	San Lucas Tolimán	11	Noviembre	2023-11-16T00:00:00	2024-11-08T20:00:00	4	Temperatura máxima	19.6
159635	7	Sololá	713	San Lucas Tolimán	10	San Lucas Tolimán	11	Noviembre	2023-11-16T00:00:00	2024-11-08T20:00:00	3	Temperatura mínima	19
159636	7	Sololá	713	San Lucas Tolimán	10	San Lucas Tolimán	11	Noviembre	2023-11-16T00:00:00	2024-11-08T20:00:00	5	Humedad	61
159637	7	Sololá	713	San Lucas Tolimán	10	San Lucas Tolimán	11	Noviembre	2023-11-16T00:00:00	2024-11-08T20:00:00	6	Velocidad del viento	3.2
159638	7	Sololá	713	San Lucas Tolimán	10	San Lucas Tolimán	11	Noviembre	2023-11-16T00:00:00	2024-11-08T20:00:00	7	Dirección del viento	3.22
159639	7	Sololá	713	San Lucas Tolimán	10	San Lucas Tolimán	11	Noviembre	2023-11-16T00:00:00	2024-11-08T20:00:00	1	Precipitación	0
159640	7	Sololá	713	San Lucas Tolimán	10	San Lucas Tolimán	11	Noviembre	2023-11-16T00:00:00	2024-11-08T20:00:00	8	Radiación solar	0
159641	7	Sololá	713	San Lucas Tolimán	10	San Lucas Tolimán	11	Noviembre	2023-11-16T00:00:00	2024-11-08T21:00:00	2	Temperatura media	18.9
159642	7	Sololá	713	San Lucas Tolimán	10	San Lucas Tolimán	11	Noviembre	2023-11-16T00:00:00	2024-11-08T21:00:00	4	Temperatura máxima	19.1
159643	7	Sololá	713	San Lucas Tolimán	10	San Lucas Tolimán	11	Noviembre	2023-11-16T00:00:00	2024-11-08T21:00:00	3	Temperatura mínima	18.8
159644	7	Sololá	713	San Lucas Tolimán	10	San Lucas Tolimán	11	Noviembre	2023-11-16T00:00:00	2024-11-08T21:00:00	5	Humedad	62
159645	7	Sololá	713	San Lucas Tolimán	10	San Lucas Tolimán	11	Noviembre	2023-11-16T00:00:00	2024-11-08T21:00:00	6	Velocidad del viento	3.2
159646	7	Sololá	713	San Lucas Tolimán	10	San Lucas Tolimán	11	Noviembre	2023-11-16T00:00:00	2024-11-08T21:00:00	7	Dirección del viento	3.22
159647	7	Sololá	713	San Lucas Tolimán	10	San Lucas Tolimán	11	Noviembre	2023-11-16T00:00:00	2024-11-08T21:00:00	1	Precipitación	0
159648	7	Sololá	713	San Lucas Tolimán	10	San Lucas Tolimán	11	Noviembre	2023-11-16T00:00:00	2024-11-08T21:00:00	8	Radiación solar	0
159649	7	Sololá	713	San Lucas Tolimán	10	San Lucas Tolimán	11	Noviembre	2023-11-16T00:00:00	2024-11-08T22:00:00	2	Temperatura media	18.6
159650	7	Sololá	713	San Lucas Tolimán	10	San Lucas Tolimán	11	Noviembre	2023-11-16T00:00:00	2024-11-08T22:00:00	4	Temperatura máxima	18.9
159651	7	Sololá	713	San Lucas Tolimán	10	San Lucas Tolimán	11	Noviembre	2023-11-16T00:00:00	2024-11-08T22:00:00	3	Temperatura mínima	18.4
159652	7	Sololá	713	San Lucas Tolimán	10	San Lucas Tolimán	11	Noviembre	2023-11-16T00:00:00	2024-11-08T22:00:00	5	Humedad	61
159653	7	Sololá	713	San Lucas Tolimán	10	San Lucas Tolimán	11	Noviembre	2023-11-16T00:00:00	2024-11-08T22:00:00	6	Velocidad del viento	3.2
159654	7	Sololá	713	San Lucas Tolimán	10	San Lucas Tolimán	11	Noviembre	2023-11-16T00:00:00	2024-11-08T22:00:00	7	Dirección del viento	3.22
159655	7	Sololá	713	San Lucas Tolimán	10	San Lucas Tolimán	11	Noviembre	2023-11-16T00:00:00	2024-11-08T22:00:00	1	Precipitación	0
159656	7	Sololá	713	San Lucas Tolimán	10	San Lucas Tolimán	11	Noviembre	2023-11-16T00:00:00	2024-11-08T22:00:00	8	Radiación solar	0
159657	7	Sololá	713	San Lucas Tolimán	10	San Lucas Tolimán	11	Noviembre	2023-11-16T00:00:00	2024-11-08T23:00:00	2	Temperatura media	18.7
159658	7	Sololá	713	San Lucas Tolimán	10	San Lucas Tolimán	11	Noviembre	2023-11-16T00:00:00	2024-11-08T23:00:00	4	Temperatura máxima	18.8
159659	7	Sololá	713	San Lucas Tolimán	10	San Lucas Tolimán	11	Noviembre	2023-11-16T00:00:00	2024-11-08T23:00:00	3	Temperatura mínima	18.6
159660	7	Sololá	713	San Lucas Tolimán	10	San Lucas Tolimán	11	Noviembre	2023-11-16T00:00:00	2024-11-08T23:00:00	5	Humedad	61
159661	7	Sololá	713	San Lucas Tolimán	10	San Lucas Tolimán	11	Noviembre	2023-11-16T00:00:00	2024-11-08T23:00:00	6	Velocidad del viento	3.2
159662	7	Sololá	713	San Lucas Tolimán	10	San Lucas Tolimán	11	Noviembre	2023-11-16T00:00:00	2024-11-08T23:00:00	7	Dirección del viento	3.22
159663	7	Sololá	713	San Lucas Tolimán	10	San Lucas Tolimán	11	Noviembre	2023-11-16T00:00:00	2024-11-08T23:00:00	1	Precipitación	0
159664	7	Sololá	713	San Lucas Tolimán	10	San Lucas Tolimán	11	Noviembre	2023-11-16T00:00:00	2024-11-08T23:00:00	8	Radiación solar	0
159665	7	Sololá	713	San Lucas Tolimán	10	San Lucas Tolimán	11	Noviembre	2023-11-17T00:00:00	2024-11-08T00:00:00	2	Temperatura media	18.1
159666	7	Sololá	713	San Lucas Tolimán	10	San Lucas Tolimán	11	Noviembre	2023-11-17T00:00:00	2024-11-08T00:00:00	4	Temperatura máxima	18.8
159667	7	Sololá	713	San Lucas Tolimán	10	San Lucas Tolimán	11	Noviembre	2023-11-17T00:00:00	2024-11-08T00:00:00	3	Temperatura mínima	18.1
159668	7	Sololá	713	San Lucas Tolimán	10	San Lucas Tolimán	11	Noviembre	2023-11-17T00:00:00	2024-11-08T00:00:00	5	Humedad	62
159669	7	Sololá	713	San Lucas Tolimán	10	San Lucas Tolimán	11	Noviembre	2023-11-17T00:00:00	2024-11-08T00:00:00	6	Velocidad del viento	4.8
159670	7	Sololá	713	San Lucas Tolimán	10	San Lucas Tolimán	11	Noviembre	2023-11-17T00:00:00	2024-11-08T00:00:00	7	Dirección del viento	4.83
159671	7	Sololá	713	San Lucas Tolimán	10	San Lucas Tolimán	11	Noviembre	2023-11-17T00:00:00	2024-11-08T00:00:00	1	Precipitación	0
159672	7	Sololá	713	San Lucas Tolimán	10	San Lucas Tolimán	11	Noviembre	2023-11-17T00:00:00	2024-11-08T00:00:00	8	Radiación solar	0
159673	7	Sololá	713	San Lucas Tolimán	10	San Lucas Tolimán	11	Noviembre	2023-11-17T00:00:00	2024-11-08T01:00:00	2	Temperatura media	17.7
159674	7	Sololá	713	San Lucas Tolimán	10	San Lucas Tolimán	11	Noviembre	2023-11-17T00:00:00	2024-11-08T01:00:00	4	Temperatura máxima	18.1
159675	7	Sololá	713	San Lucas Tolimán	10	San Lucas Tolimán	11	Noviembre	2023-11-17T00:00:00	2024-11-08T01:00:00	3	Temperatura mínima	17.6
159676	7	Sololá	713	San Lucas Tolimán	10	San Lucas Tolimán	11	Noviembre	2023-11-17T00:00:00	2024-11-08T01:00:00	5	Humedad	63
159677	7	Sololá	713	San Lucas Tolimán	10	San Lucas Tolimán	11	Noviembre	2023-11-17T00:00:00	2024-11-08T01:00:00	6	Velocidad del viento	1.6
159678	7	Sololá	713	San Lucas Tolimán	10	San Lucas Tolimán	11	Noviembre	2023-11-17T00:00:00	2024-11-08T01:00:00	7	Dirección del viento	1.61
159679	7	Sololá	713	San Lucas Tolimán	10	San Lucas Tolimán	11	Noviembre	2023-11-17T00:00:00	2024-11-08T01:00:00	1	Precipitación	0.2
159680	7	Sololá	713	San Lucas Tolimán	10	San Lucas Tolimán	11	Noviembre	2023-11-17T00:00:00	2024-11-08T01:00:00	8	Radiación solar	0
159681	7	Sololá	713	San Lucas Tolimán	10	San Lucas Tolimán	11	Noviembre	2023-11-17T00:00:00	2024-11-08T02:00:00	2	Temperatura media	17.6
159682	7	Sololá	713	San Lucas Tolimán	10	San Lucas Tolimán	11	Noviembre	2023-11-17T00:00:00	2024-11-08T02:00:00	4	Temperatura máxima	17.7
159683	7	Sololá	713	San Lucas Tolimán	10	San Lucas Tolimán	11	Noviembre	2023-11-17T00:00:00	2024-11-08T02:00:00	3	Temperatura mínima	17.5
159684	7	Sololá	713	San Lucas Tolimán	10	San Lucas Tolimán	11	Noviembre	2023-11-17T00:00:00	2024-11-08T02:00:00	5	Humedad	63
159685	7	Sololá	713	San Lucas Tolimán	10	San Lucas Tolimán	11	Noviembre	2023-11-17T00:00:00	2024-11-08T02:00:00	6	Velocidad del viento	0
159686	7	Sololá	713	San Lucas Tolimán	10	San Lucas Tolimán	11	Noviembre	2023-11-17T00:00:00	2024-11-08T02:00:00	7	Dirección del viento	0
159687	7	Sololá	713	San Lucas Tolimán	10	San Lucas Tolimán	11	Noviembre	2023-11-17T00:00:00	2024-11-08T02:00:00	1	Precipitación	0
159688	7	Sololá	713	San Lucas Tolimán	10	San Lucas Tolimán	11	Noviembre	2023-11-17T00:00:00	2024-11-08T02:00:00	8	Radiación solar	0
159689	7	Sololá	713	San Lucas Tolimán	10	San Lucas Tolimán	11	Noviembre	2023-11-17T00:00:00	2024-11-08T03:00:00	2	Temperatura media	17.8
159690	7	Sololá	713	San Lucas Tolimán	10	San Lucas Tolimán	11	Noviembre	2023-11-17T00:00:00	2024-11-08T03:00:00	4	Temperatura máxima	18.1
159691	7	Sololá	713	San Lucas Tolimán	10	San Lucas Tolimán	11	Noviembre	2023-11-17T00:00:00	2024-11-08T03:00:00	3	Temperatura mínima	17.6
159692	7	Sololá	713	San Lucas Tolimán	10	San Lucas Tolimán	11	Noviembre	2023-11-17T00:00:00	2024-11-08T03:00:00	5	Humedad	60
159693	7	Sololá	713	San Lucas Tolimán	10	San Lucas Tolimán	11	Noviembre	2023-11-17T00:00:00	2024-11-08T03:00:00	6	Velocidad del viento	1.6
159694	7	Sololá	713	San Lucas Tolimán	10	San Lucas Tolimán	11	Noviembre	2023-11-17T00:00:00	2024-11-08T03:00:00	7	Dirección del viento	1.61
159695	7	Sololá	713	San Lucas Tolimán	10	San Lucas Tolimán	11	Noviembre	2023-11-17T00:00:00	2024-11-08T03:00:00	1	Precipitación	0
159696	7	Sololá	713	San Lucas Tolimán	10	San Lucas Tolimán	11	Noviembre	2023-11-17T00:00:00	2024-11-08T03:00:00	8	Radiación solar	0
159697	7	Sololá	713	San Lucas Tolimán	10	San Lucas Tolimán	11	Noviembre	2023-11-17T00:00:00	2024-11-08T04:00:00	2	Temperatura media	17.4
159698	7	Sololá	713	San Lucas Tolimán	10	San Lucas Tolimán	11	Noviembre	2023-11-17T00:00:00	2024-11-08T04:00:00	4	Temperatura máxima	17.8
159699	7	Sololá	713	San Lucas Tolimán	10	San Lucas Tolimán	11	Noviembre	2023-11-17T00:00:00	2024-11-08T04:00:00	3	Temperatura mínima	17.3
159700	7	Sololá	713	San Lucas Tolimán	10	San Lucas Tolimán	11	Noviembre	2023-11-17T00:00:00	2024-11-08T04:00:00	5	Humedad	61
159701	7	Sololá	713	San Lucas Tolimán	10	San Lucas Tolimán	11	Noviembre	2023-11-17T00:00:00	2024-11-08T04:00:00	6	Velocidad del viento	1.6
159702	7	Sololá	713	San Lucas Tolimán	10	San Lucas Tolimán	11	Noviembre	2023-11-17T00:00:00	2024-11-08T04:00:00	7	Dirección del viento	1.61
159703	7	Sololá	713	San Lucas Tolimán	10	San Lucas Tolimán	11	Noviembre	2023-11-17T00:00:00	2024-11-08T04:00:00	1	Precipitación	0
159704	7	Sololá	713	San Lucas Tolimán	10	San Lucas Tolimán	11	Noviembre	2023-11-17T00:00:00	2024-11-08T04:00:00	8	Radiación solar	0
159705	7	Sololá	713	San Lucas Tolimán	10	San Lucas Tolimán	11	Noviembre	2023-11-17T00:00:00	2024-11-08T05:00:00	2	Temperatura media	16.9
159706	7	Sololá	713	San Lucas Tolimán	10	San Lucas Tolimán	11	Noviembre	2023-11-17T00:00:00	2024-11-08T05:00:00	4	Temperatura máxima	17.5
159707	7	Sololá	713	San Lucas Tolimán	10	San Lucas Tolimán	11	Noviembre	2023-11-17T00:00:00	2024-11-08T05:00:00	3	Temperatura mínima	16.8
159708	7	Sololá	713	San Lucas Tolimán	10	San Lucas Tolimán	11	Noviembre	2023-11-17T00:00:00	2024-11-08T05:00:00	5	Humedad	62
159709	7	Sololá	713	San Lucas Tolimán	10	San Lucas Tolimán	11	Noviembre	2023-11-17T00:00:00	2024-11-08T05:00:00	6	Velocidad del viento	1.6
159710	7	Sololá	713	San Lucas Tolimán	10	San Lucas Tolimán	11	Noviembre	2023-11-17T00:00:00	2024-11-08T05:00:00	7	Dirección del viento	1.61
159711	7	Sololá	713	San Lucas Tolimán	10	San Lucas Tolimán	11	Noviembre	2023-11-17T00:00:00	2024-11-08T05:00:00	1	Precipitación	0
159712	7	Sololá	713	San Lucas Tolimán	10	San Lucas Tolimán	11	Noviembre	2023-11-17T00:00:00	2024-11-08T05:00:00	8	Radiación solar	0
159713	7	Sololá	713	San Lucas Tolimán	10	San Lucas Tolimán	11	Noviembre	2023-11-17T00:00:00	2024-11-08T06:00:00	2	Temperatura media	17
159714	7	Sololá	713	San Lucas Tolimán	10	San Lucas Tolimán	11	Noviembre	2023-11-17T00:00:00	2024-11-08T06:00:00	4	Temperatura máxima	17.3
159715	7	Sololá	713	San Lucas Tolimán	10	San Lucas Tolimán	11	Noviembre	2023-11-17T00:00:00	2024-11-08T06:00:00	3	Temperatura mínima	16.9
159716	7	Sololá	713	San Lucas Tolimán	10	San Lucas Tolimán	11	Noviembre	2023-11-17T00:00:00	2024-11-08T06:00:00	5	Humedad	60
159717	7	Sololá	713	San Lucas Tolimán	10	San Lucas Tolimán	11	Noviembre	2023-11-17T00:00:00	2024-11-08T06:00:00	6	Velocidad del viento	1.6
159718	7	Sololá	713	San Lucas Tolimán	10	San Lucas Tolimán	11	Noviembre	2023-11-17T00:00:00	2024-11-08T06:00:00	7	Dirección del viento	1.61
159719	7	Sololá	713	San Lucas Tolimán	10	San Lucas Tolimán	11	Noviembre	2023-11-17T00:00:00	2024-11-08T06:00:00	1	Precipitación	0
159720	7	Sololá	713	San Lucas Tolimán	10	San Lucas Tolimán	11	Noviembre	2023-11-17T00:00:00	2024-11-08T06:00:00	8	Radiación solar	0
159721	7	Sololá	713	San Lucas Tolimán	10	San Lucas Tolimán	11	Noviembre	2023-11-17T00:00:00	2024-11-08T07:00:00	2	Temperatura media	16.6
159722	7	Sololá	713	San Lucas Tolimán	10	San Lucas Tolimán	11	Noviembre	2023-11-17T00:00:00	2024-11-08T07:00:00	4	Temperatura máxima	17
159723	7	Sololá	713	San Lucas Tolimán	10	San Lucas Tolimán	11	Noviembre	2023-11-17T00:00:00	2024-11-08T07:00:00	3	Temperatura mínima	16.4
159724	7	Sololá	713	San Lucas Tolimán	10	San Lucas Tolimán	11	Noviembre	2023-11-17T00:00:00	2024-11-08T07:00:00	5	Humedad	59
159725	7	Sololá	713	San Lucas Tolimán	10	San Lucas Tolimán	11	Noviembre	2023-11-17T00:00:00	2024-11-08T07:00:00	6	Velocidad del viento	1.6
159726	7	Sololá	713	San Lucas Tolimán	10	San Lucas Tolimán	11	Noviembre	2023-11-17T00:00:00	2024-11-08T07:00:00	7	Dirección del viento	1.61
159727	7	Sololá	713	San Lucas Tolimán	10	San Lucas Tolimán	11	Noviembre	2023-11-17T00:00:00	2024-11-08T07:00:00	1	Precipitación	0
159728	7	Sololá	713	San Lucas Tolimán	10	San Lucas Tolimán	11	Noviembre	2023-11-17T00:00:00	2024-11-08T07:00:00	8	Radiación solar	14
159729	7	Sololá	713	San Lucas Tolimán	10	San Lucas Tolimán	11	Noviembre	2023-11-17T00:00:00	2024-11-08T08:00:00	2	Temperatura media	17.8
159730	7	Sololá	713	San Lucas Tolimán	10	San Lucas Tolimán	11	Noviembre	2023-11-17T00:00:00	2024-11-08T08:00:00	4	Temperatura máxima	17.8
159731	7	Sololá	713	San Lucas Tolimán	10	San Lucas Tolimán	11	Noviembre	2023-11-17T00:00:00	2024-11-08T08:00:00	3	Temperatura mínima	16.5
159732	7	Sololá	713	San Lucas Tolimán	10	San Lucas Tolimán	11	Noviembre	2023-11-17T00:00:00	2024-11-08T08:00:00	5	Humedad	57
159733	7	Sololá	713	San Lucas Tolimán	10	San Lucas Tolimán	11	Noviembre	2023-11-17T00:00:00	2024-11-08T08:00:00	6	Velocidad del viento	0
159734	7	Sololá	713	San Lucas Tolimán	10	San Lucas Tolimán	11	Noviembre	2023-11-17T00:00:00	2024-11-08T08:00:00	7	Dirección del viento	0
159735	7	Sololá	713	San Lucas Tolimán	10	San Lucas Tolimán	11	Noviembre	2023-11-17T00:00:00	2024-11-08T08:00:00	1	Precipitación	0
159736	7	Sololá	713	San Lucas Tolimán	10	San Lucas Tolimán	11	Noviembre	2023-11-17T00:00:00	2024-11-08T08:00:00	8	Radiación solar	66
159737	7	Sololá	713	San Lucas Tolimán	10	San Lucas Tolimán	11	Noviembre	2023-11-17T00:00:00	2024-11-08T09:00:00	2	Temperatura media	20.7
159738	7	Sololá	713	San Lucas Tolimán	10	San Lucas Tolimán	11	Noviembre	2023-11-17T00:00:00	2024-11-08T09:00:00	4	Temperatura máxima	20.8
159739	7	Sololá	713	San Lucas Tolimán	10	San Lucas Tolimán	11	Noviembre	2023-11-17T00:00:00	2024-11-08T09:00:00	3	Temperatura mínima	17.8
159740	7	Sololá	713	San Lucas Tolimán	10	San Lucas Tolimán	11	Noviembre	2023-11-17T00:00:00	2024-11-08T09:00:00	5	Humedad	56
159741	7	Sololá	713	San Lucas Tolimán	10	San Lucas Tolimán	11	Noviembre	2023-11-17T00:00:00	2024-11-08T09:00:00	6	Velocidad del viento	1.6
159742	7	Sololá	713	San Lucas Tolimán	10	San Lucas Tolimán	11	Noviembre	2023-11-17T00:00:00	2024-11-08T09:00:00	7	Dirección del viento	1.61
159743	7	Sololá	713	San Lucas Tolimán	10	San Lucas Tolimán	11	Noviembre	2023-11-17T00:00:00	2024-11-08T09:00:00	1	Precipitación	0
159744	7	Sololá	713	San Lucas Tolimán	10	San Lucas Tolimán	11	Noviembre	2023-11-17T00:00:00	2024-11-08T09:00:00	8	Radiación solar	408
159745	7	Sololá	713	San Lucas Tolimán	10	San Lucas Tolimán	11	Noviembre	2023-11-17T00:00:00	2024-11-08T10:00:00	2	Temperatura media	22.2
159746	7	Sololá	713	San Lucas Tolimán	10	San Lucas Tolimán	11	Noviembre	2023-11-17T00:00:00	2024-11-08T10:00:00	4	Temperatura máxima	22.2
159747	7	Sololá	713	San Lucas Tolimán	10	San Lucas Tolimán	11	Noviembre	2023-11-17T00:00:00	2024-11-08T10:00:00	3	Temperatura mínima	20.7
159748	7	Sololá	713	San Lucas Tolimán	10	San Lucas Tolimán	11	Noviembre	2023-11-17T00:00:00	2024-11-08T10:00:00	5	Humedad	54
159749	7	Sololá	713	San Lucas Tolimán	10	San Lucas Tolimán	11	Noviembre	2023-11-17T00:00:00	2024-11-08T10:00:00	6	Velocidad del viento	3.2
159750	7	Sololá	713	San Lucas Tolimán	10	San Lucas Tolimán	11	Noviembre	2023-11-17T00:00:00	2024-11-08T10:00:00	7	Dirección del viento	3.22
159751	7	Sololá	713	San Lucas Tolimán	10	San Lucas Tolimán	11	Noviembre	2023-11-17T00:00:00	2024-11-08T10:00:00	1	Precipitación	0
159752	7	Sololá	713	San Lucas Tolimán	10	San Lucas Tolimán	11	Noviembre	2023-11-17T00:00:00	2024-11-08T10:00:00	8	Radiación solar	719
159753	7	Sololá	713	San Lucas Tolimán	10	San Lucas Tolimán	11	Noviembre	2023-11-17T00:00:00	2024-11-08T11:00:00	2	Temperatura media	24.1
159754	7	Sololá	713	San Lucas Tolimán	10	San Lucas Tolimán	11	Noviembre	2023-11-17T00:00:00	2024-11-08T11:00:00	4	Temperatura máxima	24.1
159755	7	Sololá	713	San Lucas Tolimán	10	San Lucas Tolimán	11	Noviembre	2023-11-17T00:00:00	2024-11-08T11:00:00	3	Temperatura mínima	21.9
159756	7	Sololá	713	San Lucas Tolimán	10	San Lucas Tolimán	11	Noviembre	2023-11-17T00:00:00	2024-11-08T11:00:00	5	Humedad	55
159757	7	Sololá	713	San Lucas Tolimán	10	San Lucas Tolimán	11	Noviembre	2023-11-17T00:00:00	2024-11-08T11:00:00	6	Velocidad del viento	4.8
159758	7	Sololá	713	San Lucas Tolimán	10	San Lucas Tolimán	11	Noviembre	2023-11-17T00:00:00	2024-11-08T11:00:00	7	Dirección del viento	4.83
159759	7	Sololá	713	San Lucas Tolimán	10	San Lucas Tolimán	11	Noviembre	2023-11-17T00:00:00	2024-11-08T11:00:00	1	Precipitación	0
159760	7	Sololá	713	San Lucas Tolimán	10	San Lucas Tolimán	11	Noviembre	2023-11-17T00:00:00	2024-11-08T11:00:00	8	Radiación solar	911
159761	7	Sololá	713	San Lucas Tolimán	10	San Lucas Tolimán	11	Noviembre	2023-11-17T00:00:00	2024-11-08T12:00:00	2	Temperatura media	22.8
159762	7	Sololá	713	San Lucas Tolimán	10	San Lucas Tolimán	11	Noviembre	2023-11-17T00:00:00	2024-11-08T12:00:00	4	Temperatura máxima	24.1
159763	7	Sololá	713	San Lucas Tolimán	10	San Lucas Tolimán	11	Noviembre	2023-11-17T00:00:00	2024-11-08T12:00:00	3	Temperatura mínima	22.7
159764	7	Sololá	713	San Lucas Tolimán	10	San Lucas Tolimán	11	Noviembre	2023-11-17T00:00:00	2024-11-08T12:00:00	5	Humedad	59
159765	7	Sololá	713	San Lucas Tolimán	10	San Lucas Tolimán	11	Noviembre	2023-11-17T00:00:00	2024-11-08T12:00:00	6	Velocidad del viento	8
159766	7	Sololá	713	San Lucas Tolimán	10	San Lucas Tolimán	11	Noviembre	2023-11-17T00:00:00	2024-11-08T12:00:00	7	Dirección del viento	8.05
159767	7	Sololá	713	San Lucas Tolimán	10	San Lucas Tolimán	11	Noviembre	2023-11-17T00:00:00	2024-11-08T12:00:00	1	Precipitación	0
159768	7	Sololá	713	San Lucas Tolimán	10	San Lucas Tolimán	11	Noviembre	2023-11-17T00:00:00	2024-11-08T12:00:00	8	Radiación solar	868
159769	7	Sololá	713	San Lucas Tolimán	10	San Lucas Tolimán	11	Noviembre	2023-11-17T00:00:00	2024-11-08T13:00:00	2	Temperatura media	21.8
159770	7	Sololá	713	San Lucas Tolimán	10	San Lucas Tolimán	11	Noviembre	2023-11-17T00:00:00	2024-11-08T13:00:00	4	Temperatura máxima	23.3
159771	7	Sololá	713	San Lucas Tolimán	10	San Lucas Tolimán	11	Noviembre	2023-11-17T00:00:00	2024-11-08T13:00:00	3	Temperatura mínima	21.8
159772	7	Sololá	713	San Lucas Tolimán	10	San Lucas Tolimán	11	Noviembre	2023-11-17T00:00:00	2024-11-08T13:00:00	5	Humedad	62
159773	7	Sololá	713	San Lucas Tolimán	10	San Lucas Tolimán	11	Noviembre	2023-11-17T00:00:00	2024-11-08T13:00:00	6	Velocidad del viento	9.7
159774	7	Sololá	713	San Lucas Tolimán	10	San Lucas Tolimán	11	Noviembre	2023-11-17T00:00:00	2024-11-08T13:00:00	7	Dirección del viento	9.66
159775	7	Sololá	713	San Lucas Tolimán	10	San Lucas Tolimán	11	Noviembre	2023-11-17T00:00:00	2024-11-08T13:00:00	1	Precipitación	0
159776	7	Sololá	713	San Lucas Tolimán	10	San Lucas Tolimán	11	Noviembre	2023-11-17T00:00:00	2024-11-08T13:00:00	8	Radiación solar	899
159777	7	Sololá	713	San Lucas Tolimán	10	San Lucas Tolimán	11	Noviembre	2023-11-17T00:00:00	2024-11-08T14:00:00	2	Temperatura media	20.6
159778	7	Sololá	713	San Lucas Tolimán	10	San Lucas Tolimán	11	Noviembre	2023-11-17T00:00:00	2024-11-08T14:00:00	4	Temperatura máxima	21.8
159779	7	Sololá	713	San Lucas Tolimán	10	San Lucas Tolimán	11	Noviembre	2023-11-17T00:00:00	2024-11-08T14:00:00	3	Temperatura mínima	20.6
159780	7	Sololá	713	San Lucas Tolimán	10	San Lucas Tolimán	11	Noviembre	2023-11-17T00:00:00	2024-11-08T14:00:00	5	Humedad	61
159781	7	Sololá	713	San Lucas Tolimán	10	San Lucas Tolimán	11	Noviembre	2023-11-17T00:00:00	2024-11-08T14:00:00	6	Velocidad del viento	9.7
159782	7	Sololá	713	San Lucas Tolimán	10	San Lucas Tolimán	11	Noviembre	2023-11-17T00:00:00	2024-11-08T14:00:00	7	Dirección del viento	9.66
159783	7	Sololá	713	San Lucas Tolimán	10	San Lucas Tolimán	11	Noviembre	2023-11-17T00:00:00	2024-11-08T14:00:00	1	Precipitación	0
159784	7	Sololá	713	San Lucas Tolimán	10	San Lucas Tolimán	11	Noviembre	2023-11-17T00:00:00	2024-11-08T14:00:00	8	Radiación solar	266
159785	7	Sololá	713	San Lucas Tolimán	10	San Lucas Tolimán	11	Noviembre	2023-11-17T00:00:00	2024-11-08T15:00:00	2	Temperatura media	20.2
159786	7	Sololá	713	San Lucas Tolimán	10	San Lucas Tolimán	11	Noviembre	2023-11-17T00:00:00	2024-11-08T15:00:00	4	Temperatura máxima	20.9
159787	7	Sololá	713	San Lucas Tolimán	10	San Lucas Tolimán	11	Noviembre	2023-11-17T00:00:00	2024-11-08T15:00:00	3	Temperatura mínima	20
159788	7	Sololá	713	San Lucas Tolimán	10	San Lucas Tolimán	11	Noviembre	2023-11-17T00:00:00	2024-11-08T15:00:00	5	Humedad	60
159789	7	Sololá	713	San Lucas Tolimán	10	San Lucas Tolimán	11	Noviembre	2023-11-17T00:00:00	2024-11-08T15:00:00	6	Velocidad del viento	9.7
159790	7	Sololá	713	San Lucas Tolimán	10	San Lucas Tolimán	11	Noviembre	2023-11-17T00:00:00	2024-11-08T15:00:00	7	Dirección del viento	9.66
159791	7	Sololá	713	San Lucas Tolimán	10	San Lucas Tolimán	11	Noviembre	2023-11-17T00:00:00	2024-11-08T15:00:00	1	Precipitación	0
159792	7	Sololá	713	San Lucas Tolimán	10	San Lucas Tolimán	11	Noviembre	2023-11-17T00:00:00	2024-11-08T15:00:00	8	Radiación solar	172
159793	7	Sololá	713	San Lucas Tolimán	10	San Lucas Tolimán	11	Noviembre	2023-11-17T00:00:00	2024-11-08T16:00:00	2	Temperatura media	20.1
159794	7	Sololá	713	San Lucas Tolimán	10	San Lucas Tolimán	11	Noviembre	2023-11-17T00:00:00	2024-11-08T16:00:00	4	Temperatura máxima	20.4
159795	7	Sololá	713	San Lucas Tolimán	10	San Lucas Tolimán	11	Noviembre	2023-11-17T00:00:00	2024-11-08T16:00:00	3	Temperatura mínima	20
159796	7	Sololá	713	San Lucas Tolimán	10	San Lucas Tolimán	11	Noviembre	2023-11-17T00:00:00	2024-11-08T16:00:00	5	Humedad	60
159797	7	Sololá	713	San Lucas Tolimán	10	San Lucas Tolimán	11	Noviembre	2023-11-17T00:00:00	2024-11-08T16:00:00	6	Velocidad del viento	8
159798	7	Sololá	713	San Lucas Tolimán	10	San Lucas Tolimán	11	Noviembre	2023-11-17T00:00:00	2024-11-08T16:00:00	7	Dirección del viento	8.05
159799	7	Sololá	713	San Lucas Tolimán	10	San Lucas Tolimán	11	Noviembre	2023-11-17T00:00:00	2024-11-08T16:00:00	1	Precipitación	0
159800	7	Sololá	713	San Lucas Tolimán	10	San Lucas Tolimán	11	Noviembre	2023-11-17T00:00:00	2024-11-08T16:00:00	8	Radiación solar	171
159801	7	Sololá	713	San Lucas Tolimán	10	San Lucas Tolimán	11	Noviembre	2023-11-17T00:00:00	2024-11-08T17:00:00	2	Temperatura media	19.9
159802	7	Sololá	713	San Lucas Tolimán	10	San Lucas Tolimán	11	Noviembre	2023-11-17T00:00:00	2024-11-08T17:00:00	4	Temperatura máxima	20.3
159803	7	Sololá	713	San Lucas Tolimán	10	San Lucas Tolimán	11	Noviembre	2023-11-17T00:00:00	2024-11-08T17:00:00	3	Temperatura mínima	19.9
159804	7	Sololá	713	San Lucas Tolimán	10	San Lucas Tolimán	11	Noviembre	2023-11-17T00:00:00	2024-11-08T17:00:00	5	Humedad	60
159805	7	Sololá	713	San Lucas Tolimán	10	San Lucas Tolimán	11	Noviembre	2023-11-17T00:00:00	2024-11-08T17:00:00	6	Velocidad del viento	6.4
159806	7	Sololá	713	San Lucas Tolimán	10	San Lucas Tolimán	11	Noviembre	2023-11-17T00:00:00	2024-11-08T17:00:00	7	Dirección del viento	6.44
159807	7	Sololá	713	San Lucas Tolimán	10	San Lucas Tolimán	11	Noviembre	2023-11-17T00:00:00	2024-11-08T17:00:00	1	Precipitación	0
159808	7	Sololá	713	San Lucas Tolimán	10	San Lucas Tolimán	11	Noviembre	2023-11-17T00:00:00	2024-11-08T17:00:00	8	Radiación solar	90
159809	7	Sololá	713	San Lucas Tolimán	10	San Lucas Tolimán	11	Noviembre	2023-11-17T00:00:00	2024-11-08T18:00:00	2	Temperatura media	19.1
159810	7	Sololá	713	San Lucas Tolimán	10	San Lucas Tolimán	11	Noviembre	2023-11-17T00:00:00	2024-11-08T18:00:00	4	Temperatura máxima	19.9
159811	7	Sololá	713	San Lucas Tolimán	10	San Lucas Tolimán	11	Noviembre	2023-11-17T00:00:00	2024-11-08T18:00:00	3	Temperatura mínima	19.1
159812	7	Sololá	713	San Lucas Tolimán	10	San Lucas Tolimán	11	Noviembre	2023-11-17T00:00:00	2024-11-08T18:00:00	5	Humedad	60
159813	7	Sololá	713	San Lucas Tolimán	10	San Lucas Tolimán	11	Noviembre	2023-11-17T00:00:00	2024-11-08T18:00:00	6	Velocidad del viento	3.2
159814	7	Sololá	713	San Lucas Tolimán	10	San Lucas Tolimán	11	Noviembre	2023-11-17T00:00:00	2024-11-08T18:00:00	7	Dirección del viento	3.22
159815	7	Sololá	713	San Lucas Tolimán	10	San Lucas Tolimán	11	Noviembre	2023-11-17T00:00:00	2024-11-08T18:00:00	1	Precipitación	0
159816	7	Sololá	713	San Lucas Tolimán	10	San Lucas Tolimán	11	Noviembre	2023-11-17T00:00:00	2024-11-08T18:00:00	8	Radiación solar	3
159817	7	Sololá	713	San Lucas Tolimán	10	San Lucas Tolimán	11	Noviembre	2023-11-17T00:00:00	2024-11-08T19:00:00	2	Temperatura media	18.8
159818	7	Sololá	713	San Lucas Tolimán	10	San Lucas Tolimán	11	Noviembre	2023-11-17T00:00:00	2024-11-08T19:00:00	4	Temperatura máxima	19.2
159819	7	Sololá	713	San Lucas Tolimán	10	San Lucas Tolimán	11	Noviembre	2023-11-17T00:00:00	2024-11-08T19:00:00	3	Temperatura mínima	18.8
159820	7	Sololá	713	San Lucas Tolimán	10	San Lucas Tolimán	11	Noviembre	2023-11-17T00:00:00	2024-11-08T19:00:00	5	Humedad	61
159821	7	Sololá	713	San Lucas Tolimán	10	San Lucas Tolimán	11	Noviembre	2023-11-17T00:00:00	2024-11-08T19:00:00	6	Velocidad del viento	4.8
159822	7	Sololá	713	San Lucas Tolimán	10	San Lucas Tolimán	11	Noviembre	2023-11-17T00:00:00	2024-11-08T19:00:00	7	Dirección del viento	4.83
159823	7	Sololá	713	San Lucas Tolimán	10	San Lucas Tolimán	11	Noviembre	2023-11-17T00:00:00	2024-11-08T19:00:00	1	Precipitación	0
159824	7	Sololá	713	San Lucas Tolimán	10	San Lucas Tolimán	11	Noviembre	2023-11-17T00:00:00	2024-11-08T19:00:00	8	Radiación solar	0
159825	7	Sololá	713	San Lucas Tolimán	10	San Lucas Tolimán	11	Noviembre	2023-11-17T00:00:00	2024-11-08T20:00:00	2	Temperatura media	17.9
159826	7	Sololá	713	San Lucas Tolimán	10	San Lucas Tolimán	11	Noviembre	2023-11-17T00:00:00	2024-11-08T20:00:00	4	Temperatura máxima	18.9
159827	7	Sololá	713	San Lucas Tolimán	10	San Lucas Tolimán	11	Noviembre	2023-11-17T00:00:00	2024-11-08T20:00:00	3	Temperatura mínima	17.8
159828	7	Sololá	713	San Lucas Tolimán	10	San Lucas Tolimán	11	Noviembre	2023-11-17T00:00:00	2024-11-08T20:00:00	5	Humedad	66
159829	7	Sololá	713	San Lucas Tolimán	10	San Lucas Tolimán	11	Noviembre	2023-11-17T00:00:00	2024-11-08T20:00:00	6	Velocidad del viento	4.8
159830	7	Sololá	713	San Lucas Tolimán	10	San Lucas Tolimán	11	Noviembre	2023-11-17T00:00:00	2024-11-08T20:00:00	7	Dirección del viento	4.83
159831	7	Sololá	713	San Lucas Tolimán	10	San Lucas Tolimán	11	Noviembre	2023-11-17T00:00:00	2024-11-08T20:00:00	1	Precipitación	2.6
159832	7	Sololá	713	San Lucas Tolimán	10	San Lucas Tolimán	11	Noviembre	2023-11-17T00:00:00	2024-11-08T20:00:00	8	Radiación solar	0
159833	7	Sololá	713	San Lucas Tolimán	10	San Lucas Tolimán	11	Noviembre	2023-11-17T00:00:00	2024-11-08T21:00:00	2	Temperatura media	17.9
159834	7	Sololá	713	San Lucas Tolimán	10	San Lucas Tolimán	11	Noviembre	2023-11-17T00:00:00	2024-11-08T21:00:00	4	Temperatura máxima	17.9
159835	7	Sololá	713	San Lucas Tolimán	10	San Lucas Tolimán	11	Noviembre	2023-11-17T00:00:00	2024-11-08T21:00:00	3	Temperatura mínima	17.6
159836	7	Sololá	713	San Lucas Tolimán	10	San Lucas Tolimán	11	Noviembre	2023-11-17T00:00:00	2024-11-08T21:00:00	5	Humedad	63
159837	7	Sololá	713	San Lucas Tolimán	10	San Lucas Tolimán	11	Noviembre	2023-11-17T00:00:00	2024-11-08T21:00:00	6	Velocidad del viento	6.4
159838	7	Sololá	713	San Lucas Tolimán	10	San Lucas Tolimán	11	Noviembre	2023-11-17T00:00:00	2024-11-08T21:00:00	7	Dirección del viento	6.44
159839	7	Sololá	713	San Lucas Tolimán	10	San Lucas Tolimán	11	Noviembre	2023-11-17T00:00:00	2024-11-08T21:00:00	1	Precipitación	0.4
159840	7	Sololá	713	San Lucas Tolimán	10	San Lucas Tolimán	11	Noviembre	2023-11-17T00:00:00	2024-11-08T21:00:00	8	Radiación solar	0
159841	7	Sololá	713	San Lucas Tolimán	10	San Lucas Tolimán	11	Noviembre	2023-11-17T00:00:00	2024-11-08T22:00:00	2	Temperatura media	17.6
159842	7	Sololá	713	San Lucas Tolimán	10	San Lucas Tolimán	11	Noviembre	2023-11-17T00:00:00	2024-11-08T22:00:00	4	Temperatura máxima	17.9
159843	7	Sololá	713	San Lucas Tolimán	10	San Lucas Tolimán	11	Noviembre	2023-11-17T00:00:00	2024-11-08T22:00:00	3	Temperatura mínima	17.6
159844	7	Sololá	713	San Lucas Tolimán	10	San Lucas Tolimán	11	Noviembre	2023-11-17T00:00:00	2024-11-08T22:00:00	5	Humedad	66
159845	7	Sololá	713	San Lucas Tolimán	10	San Lucas Tolimán	11	Noviembre	2023-11-17T00:00:00	2024-11-08T22:00:00	6	Velocidad del viento	4.8
159846	7	Sololá	713	San Lucas Tolimán	10	San Lucas Tolimán	11	Noviembre	2023-11-17T00:00:00	2024-11-08T22:00:00	7	Dirección del viento	4.83
159847	7	Sololá	713	San Lucas Tolimán	10	San Lucas Tolimán	11	Noviembre	2023-11-17T00:00:00	2024-11-08T22:00:00	1	Precipitación	0.4
159848	7	Sololá	713	San Lucas Tolimán	10	San Lucas Tolimán	11	Noviembre	2023-11-17T00:00:00	2024-11-08T22:00:00	8	Radiación solar	0
159849	7	Sololá	713	San Lucas Tolimán	10	San Lucas Tolimán	11	Noviembre	2023-11-17T00:00:00	2024-11-08T23:00:00	2	Temperatura media	17.4
159850	7	Sololá	713	San Lucas Tolimán	10	San Lucas Tolimán	11	Noviembre	2023-11-17T00:00:00	2024-11-08T23:00:00	4	Temperatura máxima	17.6
159851	7	Sololá	713	San Lucas Tolimán	10	San Lucas Tolimán	11	Noviembre	2023-11-17T00:00:00	2024-11-08T23:00:00	3	Temperatura mínima	17.4
159852	7	Sololá	713	San Lucas Tolimán	10	San Lucas Tolimán	11	Noviembre	2023-11-17T00:00:00	2024-11-08T23:00:00	5	Humedad	68
159853	7	Sololá	713	San Lucas Tolimán	10	San Lucas Tolimán	11	Noviembre	2023-11-17T00:00:00	2024-11-08T23:00:00	6	Velocidad del viento	3.2
159854	7	Sololá	713	San Lucas Tolimán	10	San Lucas Tolimán	11	Noviembre	2023-11-17T00:00:00	2024-11-08T23:00:00	7	Dirección del viento	3.22
159855	7	Sololá	713	San Lucas Tolimán	10	San Lucas Tolimán	11	Noviembre	2023-11-17T00:00:00	2024-11-08T23:00:00	1	Precipitación	0.8
159856	7	Sololá	713	San Lucas Tolimán	10	San Lucas Tolimán	11	Noviembre	2023-11-17T00:00:00	2024-11-08T23:00:00	8	Radiación solar	0
159857	7	Sololá	713	San Lucas Tolimán	10	San Lucas Tolimán	11	Noviembre	2023-11-18T00:00:00	2024-11-08T00:00:00	2	Temperatura media	17.1
159858	7	Sololá	713	San Lucas Tolimán	10	San Lucas Tolimán	11	Noviembre	2023-11-18T00:00:00	2024-11-08T00:00:00	4	Temperatura máxima	17.4
159859	7	Sololá	713	San Lucas Tolimán	10	San Lucas Tolimán	11	Noviembre	2023-11-18T00:00:00	2024-11-08T00:00:00	3	Temperatura mínima	17.1
159860	7	Sololá	713	San Lucas Tolimán	10	San Lucas Tolimán	11	Noviembre	2023-11-18T00:00:00	2024-11-08T00:00:00	5	Humedad	68
159861	7	Sololá	713	San Lucas Tolimán	10	San Lucas Tolimán	11	Noviembre	2023-11-18T00:00:00	2024-11-08T00:00:00	6	Velocidad del viento	4.8
159862	7	Sololá	713	San Lucas Tolimán	10	San Lucas Tolimán	11	Noviembre	2023-11-18T00:00:00	2024-11-08T00:00:00	7	Dirección del viento	4.83
159863	7	Sololá	713	San Lucas Tolimán	10	San Lucas Tolimán	11	Noviembre	2023-11-18T00:00:00	2024-11-08T00:00:00	1	Precipitación	0.4
159864	7	Sololá	713	San Lucas Tolimán	10	San Lucas Tolimán	11	Noviembre	2023-11-18T00:00:00	2024-11-08T00:00:00	8	Radiación solar	0
159865	7	Sololá	713	San Lucas Tolimán	10	San Lucas Tolimán	11	Noviembre	2023-11-18T00:00:00	2024-11-08T01:00:00	2	Temperatura media	16.6
159866	7	Sololá	713	San Lucas Tolimán	10	San Lucas Tolimán	11	Noviembre	2023-11-18T00:00:00	2024-11-08T01:00:00	4	Temperatura máxima	17.1
159867	7	Sololá	713	San Lucas Tolimán	10	San Lucas Tolimán	11	Noviembre	2023-11-18T00:00:00	2024-11-08T01:00:00	3	Temperatura mínima	16.6
159868	7	Sololá	713	San Lucas Tolimán	10	San Lucas Tolimán	11	Noviembre	2023-11-18T00:00:00	2024-11-08T01:00:00	5	Humedad	69
159869	7	Sololá	713	San Lucas Tolimán	10	San Lucas Tolimán	11	Noviembre	2023-11-18T00:00:00	2024-11-08T01:00:00	6	Velocidad del viento	6.4
159870	7	Sololá	713	San Lucas Tolimán	10	San Lucas Tolimán	11	Noviembre	2023-11-18T00:00:00	2024-11-08T01:00:00	7	Dirección del viento	6.44
159871	7	Sololá	713	San Lucas Tolimán	10	San Lucas Tolimán	11	Noviembre	2023-11-18T00:00:00	2024-11-08T01:00:00	1	Precipitación	0.4
159872	7	Sololá	713	San Lucas Tolimán	10	San Lucas Tolimán	11	Noviembre	2023-11-18T00:00:00	2024-11-08T01:00:00	8	Radiación solar	0
159873	7	Sololá	713	San Lucas Tolimán	10	San Lucas Tolimán	11	Noviembre	2023-11-18T00:00:00	2024-11-08T02:00:00	2	Temperatura media	16.4
159874	7	Sololá	713	San Lucas Tolimán	10	San Lucas Tolimán	11	Noviembre	2023-11-18T00:00:00	2024-11-08T02:00:00	4	Temperatura máxima	16.6
159875	7	Sololá	713	San Lucas Tolimán	10	San Lucas Tolimán	11	Noviembre	2023-11-18T00:00:00	2024-11-08T02:00:00	3	Temperatura mínima	16.4
159876	7	Sololá	713	San Lucas Tolimán	10	San Lucas Tolimán	11	Noviembre	2023-11-18T00:00:00	2024-11-08T02:00:00	5	Humedad	69
159877	7	Sololá	713	San Lucas Tolimán	10	San Lucas Tolimán	11	Noviembre	2023-11-18T00:00:00	2024-11-08T02:00:00	6	Velocidad del viento	4.8
159878	7	Sololá	713	San Lucas Tolimán	10	San Lucas Tolimán	11	Noviembre	2023-11-18T00:00:00	2024-11-08T02:00:00	7	Dirección del viento	4.83
159879	7	Sololá	713	San Lucas Tolimán	10	San Lucas Tolimán	11	Noviembre	2023-11-18T00:00:00	2024-11-08T02:00:00	1	Precipitación	0
159880	7	Sololá	713	San Lucas Tolimán	10	San Lucas Tolimán	11	Noviembre	2023-11-18T00:00:00	2024-11-08T02:00:00	8	Radiación solar	0
159881	7	Sololá	713	San Lucas Tolimán	10	San Lucas Tolimán	11	Noviembre	2023-11-18T00:00:00	2024-11-08T03:00:00	2	Temperatura media	16.3
159882	7	Sololá	713	San Lucas Tolimán	10	San Lucas Tolimán	11	Noviembre	2023-11-18T00:00:00	2024-11-08T03:00:00	4	Temperatura máxima	16.4
159883	7	Sololá	713	San Lucas Tolimán	10	San Lucas Tolimán	11	Noviembre	2023-11-18T00:00:00	2024-11-08T03:00:00	3	Temperatura mínima	16.3
159884	7	Sololá	713	San Lucas Tolimán	10	San Lucas Tolimán	11	Noviembre	2023-11-18T00:00:00	2024-11-08T03:00:00	5	Humedad	69
159885	7	Sololá	713	San Lucas Tolimán	10	San Lucas Tolimán	11	Noviembre	2023-11-18T00:00:00	2024-11-08T03:00:00	6	Velocidad del viento	1.6
159886	7	Sololá	713	San Lucas Tolimán	10	San Lucas Tolimán	11	Noviembre	2023-11-18T00:00:00	2024-11-08T03:00:00	7	Dirección del viento	1.61
159887	7	Sololá	713	San Lucas Tolimán	10	San Lucas Tolimán	11	Noviembre	2023-11-18T00:00:00	2024-11-08T03:00:00	1	Precipitación	0.4
159888	7	Sololá	713	San Lucas Tolimán	10	San Lucas Tolimán	11	Noviembre	2023-11-18T00:00:00	2024-11-08T03:00:00	8	Radiación solar	0
159889	7	Sololá	713	San Lucas Tolimán	10	San Lucas Tolimán	11	Noviembre	2023-11-18T00:00:00	2024-11-08T04:00:00	2	Temperatura media	16.3
159890	7	Sololá	713	San Lucas Tolimán	10	San Lucas Tolimán	11	Noviembre	2023-11-18T00:00:00	2024-11-08T04:00:00	4	Temperatura máxima	16.3
159891	7	Sololá	713	San Lucas Tolimán	10	San Lucas Tolimán	11	Noviembre	2023-11-18T00:00:00	2024-11-08T04:00:00	3	Temperatura mínima	16.2
159892	7	Sololá	713	San Lucas Tolimán	10	San Lucas Tolimán	11	Noviembre	2023-11-18T00:00:00	2024-11-08T04:00:00	5	Humedad	69
159893	7	Sololá	713	San Lucas Tolimán	10	San Lucas Tolimán	11	Noviembre	2023-11-18T00:00:00	2024-11-08T04:00:00	6	Velocidad del viento	1.6
159894	7	Sololá	713	San Lucas Tolimán	10	San Lucas Tolimán	11	Noviembre	2023-11-18T00:00:00	2024-11-08T04:00:00	7	Dirección del viento	1.61
159895	7	Sololá	713	San Lucas Tolimán	10	San Lucas Tolimán	11	Noviembre	2023-11-18T00:00:00	2024-11-08T04:00:00	1	Precipitación	0
159896	7	Sololá	713	San Lucas Tolimán	10	San Lucas Tolimán	11	Noviembre	2023-11-18T00:00:00	2024-11-08T04:00:00	8	Radiación solar	0
159897	7	Sololá	713	San Lucas Tolimán	10	San Lucas Tolimán	11	Noviembre	2023-11-18T00:00:00	2024-11-08T05:00:00	2	Temperatura media	15.4
159898	7	Sololá	713	San Lucas Tolimán	10	San Lucas Tolimán	11	Noviembre	2023-11-18T00:00:00	2024-11-08T05:00:00	4	Temperatura máxima	16.4
159899	7	Sololá	713	San Lucas Tolimán	10	San Lucas Tolimán	11	Noviembre	2023-11-18T00:00:00	2024-11-08T05:00:00	3	Temperatura mínima	15.4
159900	7	Sololá	713	San Lucas Tolimán	10	San Lucas Tolimán	11	Noviembre	2023-11-18T00:00:00	2024-11-08T05:00:00	5	Humedad	69
159901	7	Sololá	713	San Lucas Tolimán	10	San Lucas Tolimán	11	Noviembre	2023-11-18T00:00:00	2024-11-08T05:00:00	6	Velocidad del viento	3.2
159902	7	Sololá	713	San Lucas Tolimán	10	San Lucas Tolimán	11	Noviembre	2023-11-18T00:00:00	2024-11-08T05:00:00	7	Dirección del viento	3.22
159903	7	Sololá	713	San Lucas Tolimán	10	San Lucas Tolimán	11	Noviembre	2023-11-18T00:00:00	2024-11-08T05:00:00	1	Precipitación	0
159904	7	Sololá	713	San Lucas Tolimán	10	San Lucas Tolimán	11	Noviembre	2023-11-18T00:00:00	2024-11-08T05:00:00	8	Radiación solar	0
159905	7	Sololá	713	San Lucas Tolimán	10	San Lucas Tolimán	11	Noviembre	2023-11-18T00:00:00	2024-11-08T06:00:00	2	Temperatura media	14.9
159906	7	Sololá	713	San Lucas Tolimán	10	San Lucas Tolimán	11	Noviembre	2023-11-18T00:00:00	2024-11-08T06:00:00	4	Temperatura máxima	15.4
159907	7	Sololá	713	San Lucas Tolimán	10	San Lucas Tolimán	11	Noviembre	2023-11-18T00:00:00	2024-11-08T06:00:00	3	Temperatura mínima	14.8
159908	7	Sololá	713	San Lucas Tolimán	10	San Lucas Tolimán	11	Noviembre	2023-11-18T00:00:00	2024-11-08T06:00:00	5	Humedad	67
159909	7	Sololá	713	San Lucas Tolimán	10	San Lucas Tolimán	11	Noviembre	2023-11-18T00:00:00	2024-11-08T06:00:00	6	Velocidad del viento	4.8
159910	7	Sololá	713	San Lucas Tolimán	10	San Lucas Tolimán	11	Noviembre	2023-11-18T00:00:00	2024-11-08T06:00:00	7	Dirección del viento	4.83
159911	7	Sololá	713	San Lucas Tolimán	10	San Lucas Tolimán	11	Noviembre	2023-11-18T00:00:00	2024-11-08T06:00:00	1	Precipitación	0
159912	7	Sololá	713	San Lucas Tolimán	10	San Lucas Tolimán	11	Noviembre	2023-11-18T00:00:00	2024-11-08T06:00:00	8	Radiación solar	0
159913	7	Sololá	713	San Lucas Tolimán	10	San Lucas Tolimán	11	Noviembre	2023-11-18T00:00:00	2024-11-08T07:00:00	2	Temperatura media	15.3
159914	7	Sololá	713	San Lucas Tolimán	10	San Lucas Tolimán	11	Noviembre	2023-11-18T00:00:00	2024-11-08T07:00:00	4	Temperatura máxima	15.4
159915	7	Sololá	713	San Lucas Tolimán	10	San Lucas Tolimán	11	Noviembre	2023-11-18T00:00:00	2024-11-08T07:00:00	3	Temperatura mínima	14.8
159916	7	Sololá	713	San Lucas Tolimán	10	San Lucas Tolimán	11	Noviembre	2023-11-18T00:00:00	2024-11-08T07:00:00	5	Humedad	67
159917	7	Sololá	713	San Lucas Tolimán	10	San Lucas Tolimán	11	Noviembre	2023-11-18T00:00:00	2024-11-08T07:00:00	6	Velocidad del viento	4.8
159918	7	Sololá	713	San Lucas Tolimán	10	San Lucas Tolimán	11	Noviembre	2023-11-18T00:00:00	2024-11-08T07:00:00	7	Dirección del viento	4.83
159919	7	Sololá	713	San Lucas Tolimán	10	San Lucas Tolimán	11	Noviembre	2023-11-18T00:00:00	2024-11-08T07:00:00	1	Precipitación	0
159920	7	Sololá	713	San Lucas Tolimán	10	San Lucas Tolimán	11	Noviembre	2023-11-18T00:00:00	2024-11-08T07:00:00	8	Radiación solar	21
159921	7	Sololá	713	San Lucas Tolimán	10	San Lucas Tolimán	11	Noviembre	2023-11-18T00:00:00	2024-11-08T08:00:00	2	Temperatura media	16.7
159922	7	Sololá	713	San Lucas Tolimán	10	San Lucas Tolimán	11	Noviembre	2023-11-18T00:00:00	2024-11-08T08:00:00	4	Temperatura máxima	16.7
159923	7	Sololá	713	San Lucas Tolimán	10	San Lucas Tolimán	11	Noviembre	2023-11-18T00:00:00	2024-11-08T08:00:00	3	Temperatura mínima	15.4
159924	7	Sololá	713	San Lucas Tolimán	10	San Lucas Tolimán	11	Noviembre	2023-11-18T00:00:00	2024-11-08T08:00:00	5	Humedad	68
159925	7	Sololá	713	San Lucas Tolimán	10	San Lucas Tolimán	11	Noviembre	2023-11-18T00:00:00	2024-11-08T08:00:00	6	Velocidad del viento	1.6
159926	7	Sololá	713	San Lucas Tolimán	10	San Lucas Tolimán	11	Noviembre	2023-11-18T00:00:00	2024-11-08T08:00:00	7	Dirección del viento	1.61
159927	7	Sololá	713	San Lucas Tolimán	10	San Lucas Tolimán	11	Noviembre	2023-11-18T00:00:00	2024-11-08T08:00:00	1	Precipitación	0
159928	7	Sololá	713	San Lucas Tolimán	10	San Lucas Tolimán	11	Noviembre	2023-11-18T00:00:00	2024-11-08T08:00:00	8	Radiación solar	78
159929	7	Sololá	713	San Lucas Tolimán	10	San Lucas Tolimán	11	Noviembre	2023-11-18T00:00:00	2024-11-08T09:00:00	2	Temperatura media	19.8
159930	7	Sololá	713	San Lucas Tolimán	10	San Lucas Tolimán	11	Noviembre	2023-11-18T00:00:00	2024-11-08T09:00:00	4	Temperatura máxima	19.8
159931	7	Sololá	713	San Lucas Tolimán	10	San Lucas Tolimán	11	Noviembre	2023-11-18T00:00:00	2024-11-08T09:00:00	3	Temperatura mínima	16.6
159932	7	Sololá	713	San Lucas Tolimán	10	San Lucas Tolimán	11	Noviembre	2023-11-18T00:00:00	2024-11-08T09:00:00	5	Humedad	61
159933	7	Sololá	713	San Lucas Tolimán	10	San Lucas Tolimán	11	Noviembre	2023-11-18T00:00:00	2024-11-08T09:00:00	6	Velocidad del viento	1.6
159934	7	Sololá	713	San Lucas Tolimán	10	San Lucas Tolimán	11	Noviembre	2023-11-18T00:00:00	2024-11-08T09:00:00	7	Dirección del viento	1.61
159935	7	Sololá	713	San Lucas Tolimán	10	San Lucas Tolimán	11	Noviembre	2023-11-18T00:00:00	2024-11-08T09:00:00	1	Precipitación	0
159936	7	Sololá	713	San Lucas Tolimán	10	San Lucas Tolimán	11	Noviembre	2023-11-18T00:00:00	2024-11-08T09:00:00	8	Radiación solar	352
159937	7	Sololá	713	San Lucas Tolimán	10	San Lucas Tolimán	11	Noviembre	2023-11-18T00:00:00	2024-11-08T10:00:00	2	Temperatura media	20.8
159938	7	Sololá	713	San Lucas Tolimán	10	San Lucas Tolimán	11	Noviembre	2023-11-18T00:00:00	2024-11-08T10:00:00	4	Temperatura máxima	21.5
159939	7	Sololá	713	San Lucas Tolimán	10	San Lucas Tolimán	11	Noviembre	2023-11-18T00:00:00	2024-11-08T10:00:00	3	Temperatura mínima	19.6
159940	7	Sololá	713	San Lucas Tolimán	10	San Lucas Tolimán	11	Noviembre	2023-11-18T00:00:00	2024-11-08T10:00:00	5	Humedad	57
159941	7	Sololá	713	San Lucas Tolimán	10	San Lucas Tolimán	11	Noviembre	2023-11-18T00:00:00	2024-11-08T10:00:00	6	Velocidad del viento	3.2
159942	7	Sololá	713	San Lucas Tolimán	10	San Lucas Tolimán	11	Noviembre	2023-11-18T00:00:00	2024-11-08T10:00:00	7	Dirección del viento	3.22
159943	7	Sololá	713	San Lucas Tolimán	10	San Lucas Tolimán	11	Noviembre	2023-11-18T00:00:00	2024-11-08T10:00:00	1	Precipitación	0
159944	7	Sololá	713	San Lucas Tolimán	10	San Lucas Tolimán	11	Noviembre	2023-11-18T00:00:00	2024-11-08T10:00:00	8	Radiación solar	543
159945	7	Sololá	713	San Lucas Tolimán	10	San Lucas Tolimán	11	Noviembre	2023-11-18T00:00:00	2024-11-08T11:00:00	2	Temperatura media	20.3
159946	7	Sololá	713	San Lucas Tolimán	10	San Lucas Tolimán	11	Noviembre	2023-11-18T00:00:00	2024-11-08T11:00:00	4	Temperatura máxima	20.7
159947	7	Sololá	713	San Lucas Tolimán	10	San Lucas Tolimán	11	Noviembre	2023-11-18T00:00:00	2024-11-08T11:00:00	3	Temperatura mínima	19.7
159948	7	Sololá	713	San Lucas Tolimán	10	San Lucas Tolimán	11	Noviembre	2023-11-18T00:00:00	2024-11-08T11:00:00	5	Humedad	60
159949	7	Sololá	713	San Lucas Tolimán	10	San Lucas Tolimán	11	Noviembre	2023-11-18T00:00:00	2024-11-08T11:00:00	6	Velocidad del viento	6.4
159950	7	Sololá	713	San Lucas Tolimán	10	San Lucas Tolimán	11	Noviembre	2023-11-18T00:00:00	2024-11-08T11:00:00	7	Dirección del viento	6.44
159951	7	Sololá	713	San Lucas Tolimán	10	San Lucas Tolimán	11	Noviembre	2023-11-18T00:00:00	2024-11-08T11:00:00	1	Precipitación	0
159952	7	Sololá	713	San Lucas Tolimán	10	San Lucas Tolimán	11	Noviembre	2023-11-18T00:00:00	2024-11-08T11:00:00	8	Radiación solar	307
159953	7	Sololá	713	San Lucas Tolimán	10	San Lucas Tolimán	11	Noviembre	2023-11-18T00:00:00	2024-11-08T12:00:00	2	Temperatura media	20.7
159954	7	Sololá	713	San Lucas Tolimán	10	San Lucas Tolimán	11	Noviembre	2023-11-18T00:00:00	2024-11-08T12:00:00	4	Temperatura máxima	21
159955	7	Sololá	713	San Lucas Tolimán	10	San Lucas Tolimán	11	Noviembre	2023-11-18T00:00:00	2024-11-08T12:00:00	3	Temperatura mínima	20.3
159956	7	Sololá	713	San Lucas Tolimán	10	San Lucas Tolimán	11	Noviembre	2023-11-18T00:00:00	2024-11-08T12:00:00	5	Humedad	59
159957	7	Sololá	713	San Lucas Tolimán	10	San Lucas Tolimán	11	Noviembre	2023-11-18T00:00:00	2024-11-08T12:00:00	6	Velocidad del viento	8
159958	7	Sololá	713	San Lucas Tolimán	10	San Lucas Tolimán	11	Noviembre	2023-11-18T00:00:00	2024-11-08T12:00:00	7	Dirección del viento	8.05
159959	7	Sololá	713	San Lucas Tolimán	10	San Lucas Tolimán	11	Noviembre	2023-11-18T00:00:00	2024-11-08T12:00:00	1	Precipitación	0
159960	7	Sololá	713	San Lucas Tolimán	10	San Lucas Tolimán	11	Noviembre	2023-11-18T00:00:00	2024-11-08T12:00:00	8	Radiación solar	431
159961	7	Sololá	713	San Lucas Tolimán	10	San Lucas Tolimán	11	Noviembre	2023-11-18T00:00:00	2024-11-08T13:00:00	2	Temperatura media	20.6
159962	7	Sololá	713	San Lucas Tolimán	10	San Lucas Tolimán	11	Noviembre	2023-11-18T00:00:00	2024-11-08T13:00:00	4	Temperatura máxima	20.9
159963	7	Sololá	713	San Lucas Tolimán	10	San Lucas Tolimán	11	Noviembre	2023-11-18T00:00:00	2024-11-08T13:00:00	3	Temperatura mínima	19.8
159964	7	Sololá	713	San Lucas Tolimán	10	San Lucas Tolimán	11	Noviembre	2023-11-18T00:00:00	2024-11-08T13:00:00	5	Humedad	60
159965	7	Sololá	713	San Lucas Tolimán	10	San Lucas Tolimán	11	Noviembre	2023-11-18T00:00:00	2024-11-08T13:00:00	6	Velocidad del viento	9.7
159966	7	Sololá	713	San Lucas Tolimán	10	San Lucas Tolimán	11	Noviembre	2023-11-18T00:00:00	2024-11-08T13:00:00	7	Dirección del viento	9.66
159967	7	Sololá	713	San Lucas Tolimán	10	San Lucas Tolimán	11	Noviembre	2023-11-18T00:00:00	2024-11-08T13:00:00	1	Precipitación	0
159968	7	Sololá	713	San Lucas Tolimán	10	San Lucas Tolimán	11	Noviembre	2023-11-18T00:00:00	2024-11-08T13:00:00	8	Radiación solar	385
159969	7	Sololá	713	San Lucas Tolimán	10	San Lucas Tolimán	11	Noviembre	2023-11-18T00:00:00	2024-11-08T14:00:00	2	Temperatura media	21.3
159970	7	Sololá	713	San Lucas Tolimán	10	San Lucas Tolimán	11	Noviembre	2023-11-18T00:00:00	2024-11-08T14:00:00	4	Temperatura máxima	21.8
159971	7	Sololá	713	San Lucas Tolimán	10	San Lucas Tolimán	11	Noviembre	2023-11-18T00:00:00	2024-11-08T14:00:00	3	Temperatura mínima	20.6
159972	7	Sololá	713	San Lucas Tolimán	10	San Lucas Tolimán	11	Noviembre	2023-11-18T00:00:00	2024-11-08T14:00:00	5	Humedad	58
159973	7	Sololá	713	San Lucas Tolimán	10	San Lucas Tolimán	11	Noviembre	2023-11-18T00:00:00	2024-11-08T14:00:00	6	Velocidad del viento	9.7
159974	7	Sololá	713	San Lucas Tolimán	10	San Lucas Tolimán	11	Noviembre	2023-11-18T00:00:00	2024-11-08T14:00:00	7	Dirección del viento	9.66
159975	7	Sololá	713	San Lucas Tolimán	10	San Lucas Tolimán	11	Noviembre	2023-11-18T00:00:00	2024-11-08T14:00:00	1	Precipitación	0
159976	7	Sololá	713	San Lucas Tolimán	10	San Lucas Tolimán	11	Noviembre	2023-11-18T00:00:00	2024-11-08T14:00:00	8	Radiación solar	720
159977	7	Sololá	713	San Lucas Tolimán	10	San Lucas Tolimán	11	Noviembre	2023-11-18T00:00:00	2024-11-08T15:00:00	2	Temperatura media	20.4
159978	7	Sololá	713	San Lucas Tolimán	10	San Lucas Tolimán	11	Noviembre	2023-11-18T00:00:00	2024-11-08T15:00:00	4	Temperatura máxima	21.7
159979	7	Sololá	713	San Lucas Tolimán	10	San Lucas Tolimán	11	Noviembre	2023-11-18T00:00:00	2024-11-08T15:00:00	3	Temperatura mínima	20.4
159980	7	Sololá	713	San Lucas Tolimán	10	San Lucas Tolimán	11	Noviembre	2023-11-18T00:00:00	2024-11-08T15:00:00	5	Humedad	62
159981	7	Sololá	713	San Lucas Tolimán	10	San Lucas Tolimán	11	Noviembre	2023-11-18T00:00:00	2024-11-08T15:00:00	6	Velocidad del viento	9.7
159982	7	Sololá	713	San Lucas Tolimán	10	San Lucas Tolimán	11	Noviembre	2023-11-18T00:00:00	2024-11-08T15:00:00	7	Dirección del viento	9.66
159983	7	Sololá	713	San Lucas Tolimán	10	San Lucas Tolimán	11	Noviembre	2023-11-18T00:00:00	2024-11-08T15:00:00	1	Precipitación	0
159984	7	Sololá	713	San Lucas Tolimán	10	San Lucas Tolimán	11	Noviembre	2023-11-18T00:00:00	2024-11-08T15:00:00	8	Radiación solar	585
159985	7	Sololá	713	San Lucas Tolimán	10	San Lucas Tolimán	11	Noviembre	2023-11-18T00:00:00	2024-11-08T16:00:00	2	Temperatura media	19.6
159986	7	Sololá	713	San Lucas Tolimán	10	San Lucas Tolimán	11	Noviembre	2023-11-18T00:00:00	2024-11-08T16:00:00	4	Temperatura máxima	20.4
159987	7	Sololá	713	San Lucas Tolimán	10	San Lucas Tolimán	11	Noviembre	2023-11-18T00:00:00	2024-11-08T16:00:00	3	Temperatura mínima	19.3
159988	7	Sololá	713	San Lucas Tolimán	10	San Lucas Tolimán	11	Noviembre	2023-11-18T00:00:00	2024-11-08T16:00:00	5	Humedad	64
159989	7	Sololá	713	San Lucas Tolimán	10	San Lucas Tolimán	11	Noviembre	2023-11-18T00:00:00	2024-11-08T16:00:00	6	Velocidad del viento	8
159990	7	Sololá	713	San Lucas Tolimán	10	San Lucas Tolimán	11	Noviembre	2023-11-18T00:00:00	2024-11-08T16:00:00	7	Dirección del viento	8.05
159991	7	Sololá	713	San Lucas Tolimán	10	San Lucas Tolimán	11	Noviembre	2023-11-18T00:00:00	2024-11-08T16:00:00	1	Precipitación	0
159992	7	Sololá	713	San Lucas Tolimán	10	San Lucas Tolimán	11	Noviembre	2023-11-18T00:00:00	2024-11-08T16:00:00	8	Radiación solar	131
159993	7	Sololá	713	San Lucas Tolimán	10	San Lucas Tolimán	11	Noviembre	2023-11-18T00:00:00	2024-11-08T17:00:00	2	Temperatura media	19.2
159994	7	Sololá	713	San Lucas Tolimán	10	San Lucas Tolimán	11	Noviembre	2023-11-18T00:00:00	2024-11-08T17:00:00	4	Temperatura máxima	19.6
159995	7	Sololá	713	San Lucas Tolimán	10	San Lucas Tolimán	11	Noviembre	2023-11-18T00:00:00	2024-11-08T17:00:00	3	Temperatura mínima	19.1
159996	7	Sololá	713	San Lucas Tolimán	10	San Lucas Tolimán	11	Noviembre	2023-11-18T00:00:00	2024-11-08T17:00:00	5	Humedad	65
159997	7	Sololá	713	San Lucas Tolimán	10	San Lucas Tolimán	11	Noviembre	2023-11-18T00:00:00	2024-11-08T17:00:00	6	Velocidad del viento	6.4
159998	7	Sololá	713	San Lucas Tolimán	10	San Lucas Tolimán	11	Noviembre	2023-11-18T00:00:00	2024-11-08T17:00:00	7	Dirección del viento	6.44
159999	7	Sololá	713	San Lucas Tolimán	10	San Lucas Tolimán	11	Noviembre	2023-11-18T00:00:00	2024-11-08T17:00:00	1	Precipitación	0
160000	7	Sololá	713	San Lucas Tolimán	10	San Lucas Tolimán	11	Noviembre	2023-11-18T00:00:00	2024-11-08T17:00:00	8	Radiación solar	85
160001	7	Sololá	713	San Lucas Tolimán	10	San Lucas Tolimán	11	Noviembre	2023-11-18T00:00:00	2024-11-08T18:00:00	2	Temperatura media	18.8
160002	7	Sololá	713	San Lucas Tolimán	10	San Lucas Tolimán	11	Noviembre	2023-11-18T00:00:00	2024-11-08T18:00:00	4	Temperatura máxima	19.2
160003	7	Sololá	713	San Lucas Tolimán	10	San Lucas Tolimán	11	Noviembre	2023-11-18T00:00:00	2024-11-08T18:00:00	3	Temperatura mínima	18.8
160004	7	Sololá	713	San Lucas Tolimán	10	San Lucas Tolimán	11	Noviembre	2023-11-18T00:00:00	2024-11-08T18:00:00	5	Humedad	66
160005	7	Sololá	713	San Lucas Tolimán	10	San Lucas Tolimán	11	Noviembre	2023-11-18T00:00:00	2024-11-08T18:00:00	6	Velocidad del viento	4.8
160006	7	Sololá	713	San Lucas Tolimán	10	San Lucas Tolimán	11	Noviembre	2023-11-18T00:00:00	2024-11-08T18:00:00	7	Dirección del viento	4.83
160007	7	Sololá	713	San Lucas Tolimán	10	San Lucas Tolimán	11	Noviembre	2023-11-18T00:00:00	2024-11-08T18:00:00	1	Precipitación	0
160008	7	Sololá	713	San Lucas Tolimán	10	San Lucas Tolimán	11	Noviembre	2023-11-18T00:00:00	2024-11-08T18:00:00	8	Radiación solar	8
160009	7	Sololá	713	San Lucas Tolimán	10	San Lucas Tolimán	11	Noviembre	2023-11-18T00:00:00	2024-11-08T19:00:00	2	Temperatura media	18.3
160010	7	Sololá	713	San Lucas Tolimán	10	San Lucas Tolimán	11	Noviembre	2023-11-18T00:00:00	2024-11-08T19:00:00	4	Temperatura máxima	18.8
160011	7	Sololá	713	San Lucas Tolimán	10	San Lucas Tolimán	11	Noviembre	2023-11-18T00:00:00	2024-11-08T19:00:00	3	Temperatura mínima	18.3
160012	7	Sololá	713	San Lucas Tolimán	10	San Lucas Tolimán	11	Noviembre	2023-11-18T00:00:00	2024-11-08T19:00:00	5	Humedad	66
160013	7	Sololá	713	San Lucas Tolimán	10	San Lucas Tolimán	11	Noviembre	2023-11-18T00:00:00	2024-11-08T19:00:00	6	Velocidad del viento	4.8
160014	7	Sololá	713	San Lucas Tolimán	10	San Lucas Tolimán	11	Noviembre	2023-11-18T00:00:00	2024-11-08T19:00:00	7	Dirección del viento	4.83
160015	7	Sololá	713	San Lucas Tolimán	10	San Lucas Tolimán	11	Noviembre	2023-11-18T00:00:00	2024-11-08T19:00:00	1	Precipitación	0
160016	7	Sololá	713	San Lucas Tolimán	10	San Lucas Tolimán	11	Noviembre	2023-11-18T00:00:00	2024-11-08T19:00:00	8	Radiación solar	0
160017	7	Sololá	713	San Lucas Tolimán	10	San Lucas Tolimán	11	Noviembre	2023-11-18T00:00:00	2024-11-08T20:00:00	2	Temperatura media	17.6
160018	7	Sololá	713	San Lucas Tolimán	10	San Lucas Tolimán	11	Noviembre	2023-11-18T00:00:00	2024-11-08T20:00:00	4	Temperatura máxima	18.3
160019	7	Sololá	713	San Lucas Tolimán	10	San Lucas Tolimán	11	Noviembre	2023-11-18T00:00:00	2024-11-08T20:00:00	3	Temperatura mínima	17.3
160020	7	Sololá	713	San Lucas Tolimán	10	San Lucas Tolimán	11	Noviembre	2023-11-18T00:00:00	2024-11-08T20:00:00	5	Humedad	66
160021	7	Sololá	713	San Lucas Tolimán	10	San Lucas Tolimán	11	Noviembre	2023-11-18T00:00:00	2024-11-08T20:00:00	6	Velocidad del viento	3.2
160022	7	Sololá	713	San Lucas Tolimán	10	San Lucas Tolimán	11	Noviembre	2023-11-18T00:00:00	2024-11-08T20:00:00	7	Dirección del viento	3.22
160023	7	Sololá	713	San Lucas Tolimán	10	San Lucas Tolimán	11	Noviembre	2023-11-18T00:00:00	2024-11-08T20:00:00	1	Precipitación	0
160024	7	Sololá	713	San Lucas Tolimán	10	San Lucas Tolimán	11	Noviembre	2023-11-18T00:00:00	2024-11-08T20:00:00	8	Radiación solar	0
160025	7	Sololá	713	San Lucas Tolimán	10	San Lucas Tolimán	11	Noviembre	2023-11-18T00:00:00	2024-11-08T21:00:00	2	Temperatura media	17.4
160026	7	Sololá	713	San Lucas Tolimán	10	San Lucas Tolimán	11	Noviembre	2023-11-18T00:00:00	2024-11-08T21:00:00	4	Temperatura máxima	17.6
160027	7	Sololá	713	San Lucas Tolimán	10	San Lucas Tolimán	11	Noviembre	2023-11-18T00:00:00	2024-11-08T21:00:00	3	Temperatura mínima	16.9
160028	7	Sololá	713	San Lucas Tolimán	10	San Lucas Tolimán	11	Noviembre	2023-11-18T00:00:00	2024-11-08T21:00:00	5	Humedad	63
160029	7	Sololá	713	San Lucas Tolimán	10	San Lucas Tolimán	11	Noviembre	2023-11-18T00:00:00	2024-11-08T21:00:00	6	Velocidad del viento	1.6
160030	7	Sololá	713	San Lucas Tolimán	10	San Lucas Tolimán	11	Noviembre	2023-11-18T00:00:00	2024-11-08T21:00:00	7	Dirección del viento	1.61
160031	7	Sololá	713	San Lucas Tolimán	10	San Lucas Tolimán	11	Noviembre	2023-11-18T00:00:00	2024-11-08T21:00:00	1	Precipitación	0
160032	7	Sololá	713	San Lucas Tolimán	10	San Lucas Tolimán	11	Noviembre	2023-11-18T00:00:00	2024-11-08T21:00:00	8	Radiación solar	0
160033	7	Sololá	713	San Lucas Tolimán	10	San Lucas Tolimán	11	Noviembre	2023-11-18T00:00:00	2024-11-08T22:00:00	2	Temperatura media	16.9
160034	7	Sololá	713	San Lucas Tolimán	10	San Lucas Tolimán	11	Noviembre	2023-11-18T00:00:00	2024-11-08T22:00:00	4	Temperatura máxima	17.8
160035	7	Sololá	713	San Lucas Tolimán	10	San Lucas Tolimán	11	Noviembre	2023-11-18T00:00:00	2024-11-08T22:00:00	3	Temperatura mínima	16.8
160036	7	Sololá	713	San Lucas Tolimán	10	San Lucas Tolimán	11	Noviembre	2023-11-18T00:00:00	2024-11-08T22:00:00	5	Humedad	60
160037	7	Sololá	713	San Lucas Tolimán	10	San Lucas Tolimán	11	Noviembre	2023-11-18T00:00:00	2024-11-08T22:00:00	6	Velocidad del viento	0
160038	7	Sololá	713	San Lucas Tolimán	10	San Lucas Tolimán	11	Noviembre	2023-11-18T00:00:00	2024-11-08T22:00:00	7	Dirección del viento	0
160039	7	Sololá	713	San Lucas Tolimán	10	San Lucas Tolimán	11	Noviembre	2023-11-18T00:00:00	2024-11-08T22:00:00	1	Precipitación	0
160040	7	Sololá	713	San Lucas Tolimán	10	San Lucas Tolimán	11	Noviembre	2023-11-18T00:00:00	2024-11-08T22:00:00	8	Radiación solar	0
160041	7	Sololá	713	San Lucas Tolimán	10	San Lucas Tolimán	11	Noviembre	2023-11-18T00:00:00	2024-11-08T23:00:00	2	Temperatura media	17.1
160042	7	Sololá	713	San Lucas Tolimán	10	San Lucas Tolimán	11	Noviembre	2023-11-18T00:00:00	2024-11-08T23:00:00	4	Temperatura máxima	17.3
160043	7	Sololá	713	San Lucas Tolimán	10	San Lucas Tolimán	11	Noviembre	2023-11-18T00:00:00	2024-11-08T23:00:00	3	Temperatura mínima	16.8
160044	7	Sololá	713	San Lucas Tolimán	10	San Lucas Tolimán	11	Noviembre	2023-11-18T00:00:00	2024-11-08T23:00:00	5	Humedad	55
160045	7	Sololá	713	San Lucas Tolimán	10	San Lucas Tolimán	11	Noviembre	2023-11-18T00:00:00	2024-11-08T23:00:00	6	Velocidad del viento	1.6
160046	7	Sololá	713	San Lucas Tolimán	10	San Lucas Tolimán	11	Noviembre	2023-11-18T00:00:00	2024-11-08T23:00:00	7	Dirección del viento	1.61
160047	7	Sololá	713	San Lucas Tolimán	10	San Lucas Tolimán	11	Noviembre	2023-11-18T00:00:00	2024-11-08T23:00:00	1	Precipitación	0
160048	7	Sololá	713	San Lucas Tolimán	10	San Lucas Tolimán	11	Noviembre	2023-11-18T00:00:00	2024-11-08T23:00:00	8	Radiación solar	0
160049	7	Sololá	713	San Lucas Tolimán	10	San Lucas Tolimán	11	Noviembre	2023-11-19T00:00:00	2024-11-08T00:00:00	2	Temperatura media	16.3
160050	7	Sololá	713	San Lucas Tolimán	10	San Lucas Tolimán	11	Noviembre	2023-11-19T00:00:00	2024-11-08T00:00:00	4	Temperatura máxima	17.3
160051	7	Sololá	713	San Lucas Tolimán	10	San Lucas Tolimán	11	Noviembre	2023-11-19T00:00:00	2024-11-08T00:00:00	3	Temperatura mínima	16.3
160052	7	Sololá	713	San Lucas Tolimán	10	San Lucas Tolimán	11	Noviembre	2023-11-19T00:00:00	2024-11-08T00:00:00	5	Humedad	56
160053	7	Sololá	713	San Lucas Tolimán	10	San Lucas Tolimán	11	Noviembre	2023-11-19T00:00:00	2024-11-08T00:00:00	6	Velocidad del viento	1.6
160054	7	Sololá	713	San Lucas Tolimán	10	San Lucas Tolimán	11	Noviembre	2023-11-19T00:00:00	2024-11-08T00:00:00	7	Dirección del viento	1.61
160055	7	Sololá	713	San Lucas Tolimán	10	San Lucas Tolimán	11	Noviembre	2023-11-19T00:00:00	2024-11-08T00:00:00	1	Precipitación	0
160056	7	Sololá	713	San Lucas Tolimán	10	San Lucas Tolimán	11	Noviembre	2023-11-19T00:00:00	2024-11-08T00:00:00	8	Radiación solar	0
160057	7	Sololá	713	San Lucas Tolimán	10	San Lucas Tolimán	11	Noviembre	2023-11-19T00:00:00	2024-11-08T01:00:00	2	Temperatura media	16.1
160058	7	Sololá	713	San Lucas Tolimán	10	San Lucas Tolimán	11	Noviembre	2023-11-19T00:00:00	2024-11-08T01:00:00	4	Temperatura máxima	16.6
160059	7	Sololá	713	San Lucas Tolimán	10	San Lucas Tolimán	11	Noviembre	2023-11-19T00:00:00	2024-11-08T01:00:00	3	Temperatura mínima	16.1
160060	7	Sololá	713	San Lucas Tolimán	10	San Lucas Tolimán	11	Noviembre	2023-11-19T00:00:00	2024-11-08T01:00:00	5	Humedad	57
160061	7	Sololá	713	San Lucas Tolimán	10	San Lucas Tolimán	11	Noviembre	2023-11-19T00:00:00	2024-11-08T01:00:00	6	Velocidad del viento	1.6
160062	7	Sololá	713	San Lucas Tolimán	10	San Lucas Tolimán	11	Noviembre	2023-11-19T00:00:00	2024-11-08T01:00:00	7	Dirección del viento	1.61
160063	7	Sololá	713	San Lucas Tolimán	10	San Lucas Tolimán	11	Noviembre	2023-11-19T00:00:00	2024-11-08T01:00:00	1	Precipitación	0
160064	7	Sololá	713	San Lucas Tolimán	10	San Lucas Tolimán	11	Noviembre	2023-11-19T00:00:00	2024-11-08T01:00:00	8	Radiación solar	0
160065	7	Sololá	713	San Lucas Tolimán	10	San Lucas Tolimán	11	Noviembre	2023-11-19T00:00:00	2024-11-08T02:00:00	2	Temperatura media	15.7
160066	7	Sololá	713	San Lucas Tolimán	10	San Lucas Tolimán	11	Noviembre	2023-11-19T00:00:00	2024-11-08T02:00:00	4	Temperatura máxima	16.1
160067	7	Sololá	713	San Lucas Tolimán	10	San Lucas Tolimán	11	Noviembre	2023-11-19T00:00:00	2024-11-08T02:00:00	3	Temperatura mínima	15.4
160068	7	Sololá	713	San Lucas Tolimán	10	San Lucas Tolimán	11	Noviembre	2023-11-19T00:00:00	2024-11-08T02:00:00	5	Humedad	56
160069	7	Sololá	713	San Lucas Tolimán	10	San Lucas Tolimán	11	Noviembre	2023-11-19T00:00:00	2024-11-08T02:00:00	6	Velocidad del viento	3.2
160070	7	Sololá	713	San Lucas Tolimán	10	San Lucas Tolimán	11	Noviembre	2023-11-19T00:00:00	2024-11-08T02:00:00	7	Dirección del viento	3.22
160071	7	Sololá	713	San Lucas Tolimán	10	San Lucas Tolimán	11	Noviembre	2023-11-19T00:00:00	2024-11-08T02:00:00	1	Precipitación	0
160072	7	Sololá	713	San Lucas Tolimán	10	San Lucas Tolimán	11	Noviembre	2023-11-19T00:00:00	2024-11-08T02:00:00	8	Radiación solar	0
160073	7	Sololá	713	San Lucas Tolimán	10	San Lucas Tolimán	11	Noviembre	2023-11-19T00:00:00	2024-11-08T03:00:00	2	Temperatura media	15.7
160074	7	Sololá	713	San Lucas Tolimán	10	San Lucas Tolimán	11	Noviembre	2023-11-19T00:00:00	2024-11-08T03:00:00	4	Temperatura máxima	15.8
160075	7	Sololá	713	San Lucas Tolimán	10	San Lucas Tolimán	11	Noviembre	2023-11-19T00:00:00	2024-11-08T03:00:00	3	Temperatura mínima	15.5
160076	7	Sololá	713	San Lucas Tolimán	10	San Lucas Tolimán	11	Noviembre	2023-11-19T00:00:00	2024-11-08T03:00:00	5	Humedad	56
160077	7	Sololá	713	San Lucas Tolimán	10	San Lucas Tolimán	11	Noviembre	2023-11-19T00:00:00	2024-11-08T03:00:00	6	Velocidad del viento	1.6
160078	7	Sololá	713	San Lucas Tolimán	10	San Lucas Tolimán	11	Noviembre	2023-11-19T00:00:00	2024-11-08T03:00:00	7	Dirección del viento	1.61
160079	7	Sololá	713	San Lucas Tolimán	10	San Lucas Tolimán	11	Noviembre	2023-11-19T00:00:00	2024-11-08T03:00:00	1	Precipitación	0
160080	7	Sololá	713	San Lucas Tolimán	10	San Lucas Tolimán	11	Noviembre	2023-11-19T00:00:00	2024-11-08T03:00:00	8	Radiación solar	0
160081	7	Sololá	713	San Lucas Tolimán	10	San Lucas Tolimán	11	Noviembre	2023-11-19T00:00:00	2024-11-08T04:00:00	2	Temperatura media	15.2
160082	7	Sololá	713	San Lucas Tolimán	10	San Lucas Tolimán	11	Noviembre	2023-11-19T00:00:00	2024-11-08T04:00:00	4	Temperatura máxima	15.7
160083	7	Sololá	713	San Lucas Tolimán	10	San Lucas Tolimán	11	Noviembre	2023-11-19T00:00:00	2024-11-08T04:00:00	3	Temperatura mínima	14.9
160084	7	Sololá	713	San Lucas Tolimán	10	San Lucas Tolimán	11	Noviembre	2023-11-19T00:00:00	2024-11-08T04:00:00	5	Humedad	59
160085	7	Sololá	713	San Lucas Tolimán	10	San Lucas Tolimán	11	Noviembre	2023-11-19T00:00:00	2024-11-08T04:00:00	6	Velocidad del viento	1.6
160086	7	Sololá	713	San Lucas Tolimán	10	San Lucas Tolimán	11	Noviembre	2023-11-19T00:00:00	2024-11-08T04:00:00	7	Dirección del viento	1.61
160087	7	Sololá	713	San Lucas Tolimán	10	San Lucas Tolimán	11	Noviembre	2023-11-19T00:00:00	2024-11-08T04:00:00	1	Precipitación	0
160088	7	Sololá	713	San Lucas Tolimán	10	San Lucas Tolimán	11	Noviembre	2023-11-19T00:00:00	2024-11-08T04:00:00	8	Radiación solar	0
160089	7	Sololá	713	San Lucas Tolimán	10	San Lucas Tolimán	11	Noviembre	2023-11-19T00:00:00	2024-11-08T05:00:00	2	Temperatura media	15.3
160090	7	Sololá	713	San Lucas Tolimán	10	San Lucas Tolimán	11	Noviembre	2023-11-19T00:00:00	2024-11-08T05:00:00	4	Temperatura máxima	15.3
160091	7	Sololá	713	San Lucas Tolimán	10	San Lucas Tolimán	11	Noviembre	2023-11-19T00:00:00	2024-11-08T05:00:00	3	Temperatura mínima	14.9
160092	7	Sololá	713	San Lucas Tolimán	10	San Lucas Tolimán	11	Noviembre	2023-11-19T00:00:00	2024-11-08T05:00:00	5	Humedad	59
160093	7	Sololá	713	San Lucas Tolimán	10	San Lucas Tolimán	11	Noviembre	2023-11-19T00:00:00	2024-11-08T05:00:00	6	Velocidad del viento	0
160094	7	Sololá	713	San Lucas Tolimán	10	San Lucas Tolimán	11	Noviembre	2023-11-19T00:00:00	2024-11-08T05:00:00	7	Dirección del viento	0
160095	7	Sololá	713	San Lucas Tolimán	10	San Lucas Tolimán	11	Noviembre	2023-11-19T00:00:00	2024-11-08T05:00:00	1	Precipitación	0
160096	7	Sololá	713	San Lucas Tolimán	10	San Lucas Tolimán	11	Noviembre	2023-11-19T00:00:00	2024-11-08T05:00:00	8	Radiación solar	0
160097	7	Sololá	713	San Lucas Tolimán	10	San Lucas Tolimán	11	Noviembre	2023-11-19T00:00:00	2024-11-08T06:00:00	2	Temperatura media	14.7
160098	7	Sololá	713	San Lucas Tolimán	10	San Lucas Tolimán	11	Noviembre	2023-11-19T00:00:00	2024-11-08T06:00:00	4	Temperatura máxima	15.5
160099	7	Sololá	713	San Lucas Tolimán	10	San Lucas Tolimán	11	Noviembre	2023-11-19T00:00:00	2024-11-08T06:00:00	3	Temperatura mínima	14.7
160100	7	Sololá	713	San Lucas Tolimán	10	San Lucas Tolimán	11	Noviembre	2023-11-19T00:00:00	2024-11-08T06:00:00	5	Humedad	60
160101	7	Sololá	713	San Lucas Tolimán	10	San Lucas Tolimán	11	Noviembre	2023-11-19T00:00:00	2024-11-08T06:00:00	6	Velocidad del viento	1.6
160102	7	Sololá	713	San Lucas Tolimán	10	San Lucas Tolimán	11	Noviembre	2023-11-19T00:00:00	2024-11-08T06:00:00	7	Dirección del viento	1.61
160103	7	Sololá	713	San Lucas Tolimán	10	San Lucas Tolimán	11	Noviembre	2023-11-19T00:00:00	2024-11-08T06:00:00	1	Precipitación	0
160104	7	Sololá	713	San Lucas Tolimán	10	San Lucas Tolimán	11	Noviembre	2023-11-19T00:00:00	2024-11-08T06:00:00	8	Radiación solar	0
160105	7	Sololá	713	San Lucas Tolimán	10	San Lucas Tolimán	11	Noviembre	2023-11-19T00:00:00	2024-11-08T07:00:00	2	Temperatura media	14.7
160106	7	Sololá	713	San Lucas Tolimán	10	San Lucas Tolimán	11	Noviembre	2023-11-19T00:00:00	2024-11-08T07:00:00	4	Temperatura máxima	14.9
160107	7	Sololá	713	San Lucas Tolimán	10	San Lucas Tolimán	11	Noviembre	2023-11-19T00:00:00	2024-11-08T07:00:00	3	Temperatura mínima	14.6
160108	7	Sololá	713	San Lucas Tolimán	10	San Lucas Tolimán	11	Noviembre	2023-11-19T00:00:00	2024-11-08T07:00:00	5	Humedad	62
160109	7	Sololá	713	San Lucas Tolimán	10	San Lucas Tolimán	11	Noviembre	2023-11-19T00:00:00	2024-11-08T07:00:00	6	Velocidad del viento	0
160110	7	Sololá	713	San Lucas Tolimán	10	San Lucas Tolimán	11	Noviembre	2023-11-19T00:00:00	2024-11-08T07:00:00	7	Dirección del viento	0
160111	7	Sololá	713	San Lucas Tolimán	10	San Lucas Tolimán	11	Noviembre	2023-11-19T00:00:00	2024-11-08T07:00:00	1	Precipitación	0
160112	7	Sololá	713	San Lucas Tolimán	10	San Lucas Tolimán	11	Noviembre	2023-11-19T00:00:00	2024-11-08T07:00:00	8	Radiación solar	12
160113	7	Sololá	713	San Lucas Tolimán	10	San Lucas Tolimán	11	Noviembre	2023-11-19T00:00:00	2024-11-08T08:00:00	2	Temperatura media	16.3
160114	7	Sololá	713	San Lucas Tolimán	10	San Lucas Tolimán	11	Noviembre	2023-11-19T00:00:00	2024-11-08T08:00:00	4	Temperatura máxima	16.3
160115	7	Sololá	713	San Lucas Tolimán	10	San Lucas Tolimán	11	Noviembre	2023-11-19T00:00:00	2024-11-08T08:00:00	3	Temperatura mínima	14.7
160116	7	Sololá	713	San Lucas Tolimán	10	San Lucas Tolimán	11	Noviembre	2023-11-19T00:00:00	2024-11-08T08:00:00	5	Humedad	58
160117	7	Sololá	713	San Lucas Tolimán	10	San Lucas Tolimán	11	Noviembre	2023-11-19T00:00:00	2024-11-08T08:00:00	6	Velocidad del viento	3.2
160118	7	Sololá	713	San Lucas Tolimán	10	San Lucas Tolimán	11	Noviembre	2023-11-19T00:00:00	2024-11-08T08:00:00	7	Dirección del viento	3.22
160119	7	Sololá	713	San Lucas Tolimán	10	San Lucas Tolimán	11	Noviembre	2023-11-19T00:00:00	2024-11-08T08:00:00	1	Precipitación	0
160120	7	Sololá	713	San Lucas Tolimán	10	San Lucas Tolimán	11	Noviembre	2023-11-19T00:00:00	2024-11-08T08:00:00	8	Radiación solar	57
160121	7	Sololá	713	San Lucas Tolimán	10	San Lucas Tolimán	11	Noviembre	2023-11-19T00:00:00	2024-11-08T09:00:00	2	Temperatura media	19.6
160122	7	Sololá	713	San Lucas Tolimán	10	San Lucas Tolimán	11	Noviembre	2023-11-19T00:00:00	2024-11-08T09:00:00	4	Temperatura máxima	19.6
160123	7	Sololá	713	San Lucas Tolimán	10	San Lucas Tolimán	11	Noviembre	2023-11-19T00:00:00	2024-11-08T09:00:00	3	Temperatura mínima	16.3
160124	7	Sololá	713	San Lucas Tolimán	10	San Lucas Tolimán	11	Noviembre	2023-11-19T00:00:00	2024-11-08T09:00:00	5	Humedad	50
160125	7	Sololá	713	San Lucas Tolimán	10	San Lucas Tolimán	11	Noviembre	2023-11-19T00:00:00	2024-11-08T09:00:00	6	Velocidad del viento	3.2
160126	7	Sololá	713	San Lucas Tolimán	10	San Lucas Tolimán	11	Noviembre	2023-11-19T00:00:00	2024-11-08T09:00:00	7	Dirección del viento	3.22
160127	7	Sololá	713	San Lucas Tolimán	10	San Lucas Tolimán	11	Noviembre	2023-11-19T00:00:00	2024-11-08T09:00:00	1	Precipitación	0
160128	7	Sololá	713	San Lucas Tolimán	10	San Lucas Tolimán	11	Noviembre	2023-11-19T00:00:00	2024-11-08T09:00:00	8	Radiación solar	415
160129	7	Sololá	713	San Lucas Tolimán	10	San Lucas Tolimán	11	Noviembre	2023-11-19T00:00:00	2024-11-08T10:00:00	2	Temperatura media	21.3
160130	7	Sololá	713	San Lucas Tolimán	10	San Lucas Tolimán	11	Noviembre	2023-11-19T00:00:00	2024-11-08T10:00:00	4	Temperatura máxima	21.9
160131	7	Sololá	713	San Lucas Tolimán	10	San Lucas Tolimán	11	Noviembre	2023-11-19T00:00:00	2024-11-08T10:00:00	3	Temperatura mínima	19.6
160132	7	Sololá	713	San Lucas Tolimán	10	San Lucas Tolimán	11	Noviembre	2023-11-19T00:00:00	2024-11-08T10:00:00	5	Humedad	52
160133	7	Sololá	713	San Lucas Tolimán	10	San Lucas Tolimán	11	Noviembre	2023-11-19T00:00:00	2024-11-08T10:00:00	6	Velocidad del viento	4.8
160134	7	Sololá	713	San Lucas Tolimán	10	San Lucas Tolimán	11	Noviembre	2023-11-19T00:00:00	2024-11-08T10:00:00	7	Dirección del viento	4.83
160135	7	Sololá	713	San Lucas Tolimán	10	San Lucas Tolimán	11	Noviembre	2023-11-19T00:00:00	2024-11-08T10:00:00	1	Precipitación	0
160136	7	Sololá	713	San Lucas Tolimán	10	San Lucas Tolimán	11	Noviembre	2023-11-19T00:00:00	2024-11-08T10:00:00	8	Radiación solar	692
160137	7	Sololá	713	San Lucas Tolimán	10	San Lucas Tolimán	11	Noviembre	2023-11-19T00:00:00	2024-11-08T11:00:00	2	Temperatura media	22.1
160138	7	Sololá	713	San Lucas Tolimán	10	San Lucas Tolimán	11	Noviembre	2023-11-19T00:00:00	2024-11-08T11:00:00	4	Temperatura máxima	22.3
160139	7	Sololá	713	San Lucas Tolimán	10	San Lucas Tolimán	11	Noviembre	2023-11-19T00:00:00	2024-11-08T11:00:00	3	Temperatura mínima	21.2
160140	7	Sololá	713	San Lucas Tolimán	10	San Lucas Tolimán	11	Noviembre	2023-11-19T00:00:00	2024-11-08T11:00:00	5	Humedad	51
160141	7	Sololá	713	San Lucas Tolimán	10	San Lucas Tolimán	11	Noviembre	2023-11-19T00:00:00	2024-11-08T11:00:00	6	Velocidad del viento	8
160142	7	Sololá	713	San Lucas Tolimán	10	San Lucas Tolimán	11	Noviembre	2023-11-19T00:00:00	2024-11-08T11:00:00	7	Dirección del viento	8.05
160143	7	Sololá	713	San Lucas Tolimán	10	San Lucas Tolimán	11	Noviembre	2023-11-19T00:00:00	2024-11-08T11:00:00	1	Precipitación	0
160144	7	Sololá	713	San Lucas Tolimán	10	San Lucas Tolimán	11	Noviembre	2023-11-19T00:00:00	2024-11-08T11:00:00	8	Radiación solar	859
160145	7	Sololá	713	San Lucas Tolimán	10	San Lucas Tolimán	11	Noviembre	2023-11-19T00:00:00	2024-11-08T12:00:00	2	Temperatura media	21.3
160146	7	Sololá	713	San Lucas Tolimán	10	San Lucas Tolimán	11	Noviembre	2023-11-19T00:00:00	2024-11-08T12:00:00	4	Temperatura máxima	22.1
160147	7	Sololá	713	San Lucas Tolimán	10	San Lucas Tolimán	11	Noviembre	2023-11-19T00:00:00	2024-11-08T12:00:00	3	Temperatura mínima	20.9
160148	7	Sololá	713	San Lucas Tolimán	10	San Lucas Tolimán	11	Noviembre	2023-11-19T00:00:00	2024-11-08T12:00:00	5	Humedad	56
160149	7	Sololá	713	San Lucas Tolimán	10	San Lucas Tolimán	11	Noviembre	2023-11-19T00:00:00	2024-11-08T12:00:00	6	Velocidad del viento	11.3
160150	7	Sololá	713	San Lucas Tolimán	10	San Lucas Tolimán	11	Noviembre	2023-11-19T00:00:00	2024-11-08T12:00:00	7	Dirección del viento	11.27
160151	7	Sololá	713	San Lucas Tolimán	10	San Lucas Tolimán	11	Noviembre	2023-11-19T00:00:00	2024-11-08T12:00:00	1	Precipitación	0
160152	7	Sololá	713	San Lucas Tolimán	10	San Lucas Tolimán	11	Noviembre	2023-11-19T00:00:00	2024-11-08T12:00:00	8	Radiación solar	921
160153	7	Sololá	713	San Lucas Tolimán	10	San Lucas Tolimán	11	Noviembre	2023-11-19T00:00:00	2024-11-08T13:00:00	2	Temperatura media	20.2
160154	7	Sololá	713	San Lucas Tolimán	10	San Lucas Tolimán	11	Noviembre	2023-11-19T00:00:00	2024-11-08T13:00:00	4	Temperatura máxima	21.4
160155	7	Sololá	713	San Lucas Tolimán	10	San Lucas Tolimán	11	Noviembre	2023-11-19T00:00:00	2024-11-08T13:00:00	3	Temperatura mínima	20.2
160156	7	Sololá	713	San Lucas Tolimán	10	San Lucas Tolimán	11	Noviembre	2023-11-19T00:00:00	2024-11-08T13:00:00	5	Humedad	60
160157	7	Sololá	713	San Lucas Tolimán	10	San Lucas Tolimán	11	Noviembre	2023-11-19T00:00:00	2024-11-08T13:00:00	6	Velocidad del viento	9.7
160158	7	Sololá	713	San Lucas Tolimán	10	San Lucas Tolimán	11	Noviembre	2023-11-19T00:00:00	2024-11-08T13:00:00	7	Dirección del viento	9.66
160159	7	Sololá	713	San Lucas Tolimán	10	San Lucas Tolimán	11	Noviembre	2023-11-19T00:00:00	2024-11-08T13:00:00	1	Precipitación	0
160160	7	Sololá	713	San Lucas Tolimán	10	San Lucas Tolimán	11	Noviembre	2023-11-19T00:00:00	2024-11-08T13:00:00	8	Radiación solar	404
160161	7	Sololá	713	San Lucas Tolimán	10	San Lucas Tolimán	11	Noviembre	2023-11-19T00:00:00	2024-11-08T14:00:00	2	Temperatura media	20.1
160162	7	Sololá	713	San Lucas Tolimán	10	San Lucas Tolimán	11	Noviembre	2023-11-19T00:00:00	2024-11-08T14:00:00	4	Temperatura máxima	20.8
160163	7	Sololá	713	San Lucas Tolimán	10	San Lucas Tolimán	11	Noviembre	2023-11-19T00:00:00	2024-11-08T14:00:00	3	Temperatura mínima	20.1
160164	7	Sololá	713	San Lucas Tolimán	10	San Lucas Tolimán	11	Noviembre	2023-11-19T00:00:00	2024-11-08T14:00:00	5	Humedad	60
160165	7	Sololá	713	San Lucas Tolimán	10	San Lucas Tolimán	11	Noviembre	2023-11-19T00:00:00	2024-11-08T14:00:00	6	Velocidad del viento	8
160166	7	Sololá	713	San Lucas Tolimán	10	San Lucas Tolimán	11	Noviembre	2023-11-19T00:00:00	2024-11-08T14:00:00	7	Dirección del viento	8.05
160167	7	Sololá	713	San Lucas Tolimán	10	San Lucas Tolimán	11	Noviembre	2023-11-19T00:00:00	2024-11-08T14:00:00	1	Precipitación	0
160168	7	Sololá	713	San Lucas Tolimán	10	San Lucas Tolimán	11	Noviembre	2023-11-19T00:00:00	2024-11-08T14:00:00	8	Radiación solar	401
160169	7	Sololá	713	San Lucas Tolimán	10	San Lucas Tolimán	11	Noviembre	2023-11-19T00:00:00	2024-11-08T15:00:00	2	Temperatura media	19.4
160170	7	Sololá	713	San Lucas Tolimán	10	San Lucas Tolimán	11	Noviembre	2023-11-19T00:00:00	2024-11-08T15:00:00	4	Temperatura máxima	20.1
160171	7	Sololá	713	San Lucas Tolimán	10	San Lucas Tolimán	11	Noviembre	2023-11-19T00:00:00	2024-11-08T15:00:00	3	Temperatura mínima	19.4
160172	7	Sololá	713	San Lucas Tolimán	10	San Lucas Tolimán	11	Noviembre	2023-11-19T00:00:00	2024-11-08T15:00:00	5	Humedad	62
160173	7	Sololá	713	San Lucas Tolimán	10	San Lucas Tolimán	11	Noviembre	2023-11-19T00:00:00	2024-11-08T15:00:00	6	Velocidad del viento	9.7
160174	7	Sololá	713	San Lucas Tolimán	10	San Lucas Tolimán	11	Noviembre	2023-11-19T00:00:00	2024-11-08T15:00:00	7	Dirección del viento	9.66
160175	7	Sololá	713	San Lucas Tolimán	10	San Lucas Tolimán	11	Noviembre	2023-11-19T00:00:00	2024-11-08T15:00:00	1	Precipitación	0
160176	7	Sololá	713	San Lucas Tolimán	10	San Lucas Tolimán	11	Noviembre	2023-11-19T00:00:00	2024-11-08T15:00:00	8	Radiación solar	242
160177	7	Sololá	713	San Lucas Tolimán	10	San Lucas Tolimán	11	Noviembre	2023-11-19T00:00:00	2024-11-08T16:00:00	2	Temperatura media	18.9
160178	7	Sololá	713	San Lucas Tolimán	10	San Lucas Tolimán	11	Noviembre	2023-11-19T00:00:00	2024-11-08T16:00:00	4	Temperatura máxima	19.5
160179	7	Sololá	713	San Lucas Tolimán	10	San Lucas Tolimán	11	Noviembre	2023-11-19T00:00:00	2024-11-08T16:00:00	3	Temperatura mínima	18.9
160180	7	Sololá	713	San Lucas Tolimán	10	San Lucas Tolimán	11	Noviembre	2023-11-19T00:00:00	2024-11-08T16:00:00	5	Humedad	64
160181	7	Sololá	713	San Lucas Tolimán	10	San Lucas Tolimán	11	Noviembre	2023-11-19T00:00:00	2024-11-08T16:00:00	6	Velocidad del viento	8
160182	7	Sololá	713	San Lucas Tolimán	10	San Lucas Tolimán	11	Noviembre	2023-11-19T00:00:00	2024-11-08T16:00:00	7	Dirección del viento	8.05
160183	7	Sololá	713	San Lucas Tolimán	10	San Lucas Tolimán	11	Noviembre	2023-11-19T00:00:00	2024-11-08T16:00:00	1	Precipitación	0
160184	7	Sololá	713	San Lucas Tolimán	10	San Lucas Tolimán	11	Noviembre	2023-11-19T00:00:00	2024-11-08T16:00:00	8	Radiación solar	133
160185	7	Sololá	713	San Lucas Tolimán	10	San Lucas Tolimán	11	Noviembre	2023-11-19T00:00:00	2024-11-08T17:00:00	2	Temperatura media	18.2
160186	7	Sololá	713	San Lucas Tolimán	10	San Lucas Tolimán	11	Noviembre	2023-11-19T00:00:00	2024-11-08T17:00:00	4	Temperatura máxima	18.9
160187	7	Sololá	713	San Lucas Tolimán	10	San Lucas Tolimán	11	Noviembre	2023-11-19T00:00:00	2024-11-08T17:00:00	3	Temperatura mínima	18.1
160188	7	Sololá	713	San Lucas Tolimán	10	San Lucas Tolimán	11	Noviembre	2023-11-19T00:00:00	2024-11-08T17:00:00	5	Humedad	66
160189	7	Sololá	713	San Lucas Tolimán	10	San Lucas Tolimán	11	Noviembre	2023-11-19T00:00:00	2024-11-08T17:00:00	6	Velocidad del viento	8
160190	7	Sololá	713	San Lucas Tolimán	10	San Lucas Tolimán	11	Noviembre	2023-11-19T00:00:00	2024-11-08T17:00:00	7	Dirección del viento	8.05
160191	7	Sololá	713	San Lucas Tolimán	10	San Lucas Tolimán	11	Noviembre	2023-11-19T00:00:00	2024-11-08T17:00:00	1	Precipitación	0
160192	7	Sololá	713	San Lucas Tolimán	10	San Lucas Tolimán	11	Noviembre	2023-11-19T00:00:00	2024-11-08T17:00:00	8	Radiación solar	76
160193	7	Sololá	713	San Lucas Tolimán	10	San Lucas Tolimán	11	Noviembre	2023-11-19T00:00:00	2024-11-08T18:00:00	2	Temperatura media	17.8
160194	7	Sololá	713	San Lucas Tolimán	10	San Lucas Tolimán	11	Noviembre	2023-11-19T00:00:00	2024-11-08T18:00:00	4	Temperatura máxima	18.2
160195	7	Sololá	713	San Lucas Tolimán	10	San Lucas Tolimán	11	Noviembre	2023-11-19T00:00:00	2024-11-08T18:00:00	3	Temperatura mínima	17.7
160196	7	Sololá	713	San Lucas Tolimán	10	San Lucas Tolimán	11	Noviembre	2023-11-19T00:00:00	2024-11-08T18:00:00	5	Humedad	66
160197	7	Sololá	713	San Lucas Tolimán	10	San Lucas Tolimán	11	Noviembre	2023-11-19T00:00:00	2024-11-08T18:00:00	6	Velocidad del viento	8
160198	7	Sololá	713	San Lucas Tolimán	10	San Lucas Tolimán	11	Noviembre	2023-11-19T00:00:00	2024-11-08T18:00:00	7	Dirección del viento	8.05
160199	7	Sololá	713	San Lucas Tolimán	10	San Lucas Tolimán	11	Noviembre	2023-11-19T00:00:00	2024-11-08T18:00:00	1	Precipitación	0
160200	7	Sololá	713	San Lucas Tolimán	10	San Lucas Tolimán	11	Noviembre	2023-11-19T00:00:00	2024-11-08T18:00:00	8	Radiación solar	4
160201	7	Sololá	713	San Lucas Tolimán	10	San Lucas Tolimán	11	Noviembre	2023-11-19T00:00:00	2024-11-08T19:00:00	2	Temperatura media	16.7
160202	7	Sololá	713	San Lucas Tolimán	10	San Lucas Tolimán	11	Noviembre	2023-11-19T00:00:00	2024-11-08T19:00:00	4	Temperatura máxima	17.8
160203	7	Sololá	713	San Lucas Tolimán	10	San Lucas Tolimán	11	Noviembre	2023-11-19T00:00:00	2024-11-08T19:00:00	3	Temperatura mínima	16.7
160204	7	Sololá	713	San Lucas Tolimán	10	San Lucas Tolimán	11	Noviembre	2023-11-19T00:00:00	2024-11-08T19:00:00	5	Humedad	68
160205	7	Sololá	713	San Lucas Tolimán	10	San Lucas Tolimán	11	Noviembre	2023-11-19T00:00:00	2024-11-08T19:00:00	6	Velocidad del viento	8
160206	7	Sololá	713	San Lucas Tolimán	10	San Lucas Tolimán	11	Noviembre	2023-11-19T00:00:00	2024-11-08T19:00:00	7	Dirección del viento	8.05
160207	7	Sololá	713	San Lucas Tolimán	10	San Lucas Tolimán	11	Noviembre	2023-11-19T00:00:00	2024-11-08T19:00:00	1	Precipitación	0
160208	7	Sololá	713	San Lucas Tolimán	10	San Lucas Tolimán	11	Noviembre	2023-11-19T00:00:00	2024-11-08T19:00:00	8	Radiación solar	0
160209	7	Sololá	713	San Lucas Tolimán	10	San Lucas Tolimán	11	Noviembre	2023-11-19T00:00:00	2024-11-08T20:00:00	2	Temperatura media	16.3
160210	7	Sololá	713	San Lucas Tolimán	10	San Lucas Tolimán	11	Noviembre	2023-11-19T00:00:00	2024-11-08T20:00:00	4	Temperatura máxima	16.7
160211	7	Sololá	713	San Lucas Tolimán	10	San Lucas Tolimán	11	Noviembre	2023-11-19T00:00:00	2024-11-08T20:00:00	3	Temperatura mínima	16.3
160212	7	Sololá	713	San Lucas Tolimán	10	San Lucas Tolimán	11	Noviembre	2023-11-19T00:00:00	2024-11-08T20:00:00	5	Humedad	69
160213	7	Sololá	713	San Lucas Tolimán	10	San Lucas Tolimán	11	Noviembre	2023-11-19T00:00:00	2024-11-08T20:00:00	6	Velocidad del viento	8
160214	7	Sololá	713	San Lucas Tolimán	10	San Lucas Tolimán	11	Noviembre	2023-11-19T00:00:00	2024-11-08T20:00:00	7	Dirección del viento	8.05
160215	7	Sololá	713	San Lucas Tolimán	10	San Lucas Tolimán	11	Noviembre	2023-11-19T00:00:00	2024-11-08T20:00:00	1	Precipitación	0
160216	7	Sololá	713	San Lucas Tolimán	10	San Lucas Tolimán	11	Noviembre	2023-11-19T00:00:00	2024-11-08T20:00:00	8	Radiación solar	0
160217	7	Sololá	713	San Lucas Tolimán	10	San Lucas Tolimán	11	Noviembre	2023-11-19T00:00:00	2024-11-08T21:00:00	2	Temperatura media	16.6
160218	7	Sololá	713	San Lucas Tolimán	10	San Lucas Tolimán	11	Noviembre	2023-11-19T00:00:00	2024-11-08T21:00:00	4	Temperatura máxima	16.6
160219	7	Sololá	713	San Lucas Tolimán	10	San Lucas Tolimán	11	Noviembre	2023-11-19T00:00:00	2024-11-08T21:00:00	3	Temperatura mínima	16.3
160220	7	Sololá	713	San Lucas Tolimán	10	San Lucas Tolimán	11	Noviembre	2023-11-19T00:00:00	2024-11-08T21:00:00	5	Humedad	68
160221	7	Sololá	713	San Lucas Tolimán	10	San Lucas Tolimán	11	Noviembre	2023-11-19T00:00:00	2024-11-08T21:00:00	6	Velocidad del viento	6.4
160222	7	Sololá	713	San Lucas Tolimán	10	San Lucas Tolimán	11	Noviembre	2023-11-19T00:00:00	2024-11-08T21:00:00	7	Dirección del viento	6.44
160223	7	Sololá	713	San Lucas Tolimán	10	San Lucas Tolimán	11	Noviembre	2023-11-19T00:00:00	2024-11-08T21:00:00	1	Precipitación	0
160224	7	Sololá	713	San Lucas Tolimán	10	San Lucas Tolimán	11	Noviembre	2023-11-19T00:00:00	2024-11-08T21:00:00	8	Radiación solar	0
160225	7	Sololá	713	San Lucas Tolimán	10	San Lucas Tolimán	11	Noviembre	2023-11-19T00:00:00	2024-11-08T22:00:00	2	Temperatura media	16.6
160226	7	Sololá	713	San Lucas Tolimán	10	San Lucas Tolimán	11	Noviembre	2023-11-19T00:00:00	2024-11-08T22:00:00	4	Temperatura máxima	16.7
160227	7	Sololá	713	San Lucas Tolimán	10	San Lucas Tolimán	11	Noviembre	2023-11-19T00:00:00	2024-11-08T22:00:00	3	Temperatura mínima	16.6
160228	7	Sololá	713	San Lucas Tolimán	10	San Lucas Tolimán	11	Noviembre	2023-11-19T00:00:00	2024-11-08T22:00:00	5	Humedad	68
160229	7	Sololá	713	San Lucas Tolimán	10	San Lucas Tolimán	11	Noviembre	2023-11-19T00:00:00	2024-11-08T22:00:00	6	Velocidad del viento	6.4
160230	7	Sololá	713	San Lucas Tolimán	10	San Lucas Tolimán	11	Noviembre	2023-11-19T00:00:00	2024-11-08T22:00:00	7	Dirección del viento	6.44
160231	7	Sololá	713	San Lucas Tolimán	10	San Lucas Tolimán	11	Noviembre	2023-11-19T00:00:00	2024-11-08T22:00:00	1	Precipitación	0
160232	7	Sololá	713	San Lucas Tolimán	10	San Lucas Tolimán	11	Noviembre	2023-11-19T00:00:00	2024-11-08T22:00:00	8	Radiación solar	0
160233	7	Sololá	713	San Lucas Tolimán	10	San Lucas Tolimán	11	Noviembre	2023-11-19T00:00:00	2024-11-08T23:00:00	2	Temperatura media	16.4
160234	7	Sololá	713	San Lucas Tolimán	10	San Lucas Tolimán	11	Noviembre	2023-11-19T00:00:00	2024-11-08T23:00:00	4	Temperatura máxima	16.7
160235	7	Sololá	713	San Lucas Tolimán	10	San Lucas Tolimán	11	Noviembre	2023-11-19T00:00:00	2024-11-08T23:00:00	3	Temperatura mínima	16.3
160236	7	Sololá	713	San Lucas Tolimán	10	San Lucas Tolimán	11	Noviembre	2023-11-19T00:00:00	2024-11-08T23:00:00	5	Humedad	67
160237	7	Sololá	713	San Lucas Tolimán	10	San Lucas Tolimán	11	Noviembre	2023-11-19T00:00:00	2024-11-08T23:00:00	6	Velocidad del viento	6.4
160238	7	Sololá	713	San Lucas Tolimán	10	San Lucas Tolimán	11	Noviembre	2023-11-19T00:00:00	2024-11-08T23:00:00	7	Dirección del viento	6.44
160239	7	Sololá	713	San Lucas Tolimán	10	San Lucas Tolimán	11	Noviembre	2023-11-19T00:00:00	2024-11-08T23:00:00	1	Precipitación	0
160240	7	Sololá	713	San Lucas Tolimán	10	San Lucas Tolimán	11	Noviembre	2023-11-19T00:00:00	2024-11-08T23:00:00	8	Radiación solar	0
160241	7	Sololá	713	San Lucas Tolimán	10	San Lucas Tolimán	11	Noviembre	2023-11-20T00:00:00	2024-11-08T00:00:00	2	Temperatura media	16.1
160242	7	Sololá	713	San Lucas Tolimán	10	San Lucas Tolimán	11	Noviembre	2023-11-20T00:00:00	2024-11-08T00:00:00	4	Temperatura máxima	16.6
160243	7	Sololá	713	San Lucas Tolimán	10	San Lucas Tolimán	11	Noviembre	2023-11-20T00:00:00	2024-11-08T00:00:00	3	Temperatura mínima	15.8
160244	7	Sololá	713	San Lucas Tolimán	10	San Lucas Tolimán	11	Noviembre	2023-11-20T00:00:00	2024-11-08T00:00:00	5	Humedad	63
160245	7	Sololá	713	San Lucas Tolimán	10	San Lucas Tolimán	11	Noviembre	2023-11-20T00:00:00	2024-11-08T00:00:00	6	Velocidad del viento	6.4
160246	7	Sololá	713	San Lucas Tolimán	10	San Lucas Tolimán	11	Noviembre	2023-11-20T00:00:00	2024-11-08T00:00:00	7	Dirección del viento	6.44
160247	7	Sololá	713	San Lucas Tolimán	10	San Lucas Tolimán	11	Noviembre	2023-11-20T00:00:00	2024-11-08T00:00:00	1	Precipitación	0
160248	7	Sololá	713	San Lucas Tolimán	10	San Lucas Tolimán	11	Noviembre	2023-11-20T00:00:00	2024-11-08T00:00:00	8	Radiación solar	0
160249	7	Sololá	713	San Lucas Tolimán	10	San Lucas Tolimán	11	Noviembre	2023-11-20T00:00:00	2024-11-08T01:00:00	2	Temperatura media	14.8
160250	7	Sololá	713	San Lucas Tolimán	10	San Lucas Tolimán	11	Noviembre	2023-11-20T00:00:00	2024-11-08T01:00:00	4	Temperatura máxima	16.1
160251	7	Sololá	713	San Lucas Tolimán	10	San Lucas Tolimán	11	Noviembre	2023-11-20T00:00:00	2024-11-08T01:00:00	3	Temperatura mínima	14.8
160252	7	Sololá	713	San Lucas Tolimán	10	San Lucas Tolimán	11	Noviembre	2023-11-20T00:00:00	2024-11-08T01:00:00	5	Humedad	61
160253	7	Sololá	713	San Lucas Tolimán	10	San Lucas Tolimán	11	Noviembre	2023-11-20T00:00:00	2024-11-08T01:00:00	6	Velocidad del viento	3.2
160254	7	Sololá	713	San Lucas Tolimán	10	San Lucas Tolimán	11	Noviembre	2023-11-20T00:00:00	2024-11-08T01:00:00	7	Dirección del viento	3.22
160255	7	Sololá	713	San Lucas Tolimán	10	San Lucas Tolimán	11	Noviembre	2023-11-20T00:00:00	2024-11-08T01:00:00	1	Precipitación	0
160256	7	Sololá	713	San Lucas Tolimán	10	San Lucas Tolimán	11	Noviembre	2023-11-20T00:00:00	2024-11-08T01:00:00	8	Radiación solar	0
160257	7	Sololá	713	San Lucas Tolimán	10	San Lucas Tolimán	11	Noviembre	2023-11-20T00:00:00	2024-11-08T02:00:00	2	Temperatura media	14.9
160258	7	Sololá	713	San Lucas Tolimán	10	San Lucas Tolimán	11	Noviembre	2023-11-20T00:00:00	2024-11-08T02:00:00	4	Temperatura máxima	15.1
160259	7	Sololá	713	San Lucas Tolimán	10	San Lucas Tolimán	11	Noviembre	2023-11-20T00:00:00	2024-11-08T02:00:00	3	Temperatura mínima	14.8
160260	7	Sololá	713	San Lucas Tolimán	10	San Lucas Tolimán	11	Noviembre	2023-11-20T00:00:00	2024-11-08T02:00:00	5	Humedad	65
160261	7	Sololá	713	San Lucas Tolimán	10	San Lucas Tolimán	11	Noviembre	2023-11-20T00:00:00	2024-11-08T02:00:00	6	Velocidad del viento	1.6
160262	7	Sololá	713	San Lucas Tolimán	10	San Lucas Tolimán	11	Noviembre	2023-11-20T00:00:00	2024-11-08T02:00:00	7	Dirección del viento	1.61
160263	7	Sololá	713	San Lucas Tolimán	10	San Lucas Tolimán	11	Noviembre	2023-11-20T00:00:00	2024-11-08T02:00:00	1	Precipitación	0
160264	7	Sololá	713	San Lucas Tolimán	10	San Lucas Tolimán	11	Noviembre	2023-11-20T00:00:00	2024-11-08T02:00:00	8	Radiación solar	0
160265	7	Sololá	713	San Lucas Tolimán	10	San Lucas Tolimán	11	Noviembre	2023-11-20T00:00:00	2024-11-08T03:00:00	2	Temperatura media	14.3
160266	7	Sololá	713	San Lucas Tolimán	10	San Lucas Tolimán	11	Noviembre	2023-11-20T00:00:00	2024-11-08T03:00:00	4	Temperatura máxima	15.1
160267	7	Sololá	713	San Lucas Tolimán	10	San Lucas Tolimán	11	Noviembre	2023-11-20T00:00:00	2024-11-08T03:00:00	3	Temperatura mínima	14.3
160268	7	Sololá	713	San Lucas Tolimán	10	San Lucas Tolimán	11	Noviembre	2023-11-20T00:00:00	2024-11-08T03:00:00	5	Humedad	64
160269	7	Sololá	713	San Lucas Tolimán	10	San Lucas Tolimán	11	Noviembre	2023-11-20T00:00:00	2024-11-08T03:00:00	6	Velocidad del viento	0
160270	7	Sololá	713	San Lucas Tolimán	10	San Lucas Tolimán	11	Noviembre	2023-11-20T00:00:00	2024-11-08T03:00:00	7	Dirección del viento	0
160271	7	Sololá	713	San Lucas Tolimán	10	San Lucas Tolimán	11	Noviembre	2023-11-20T00:00:00	2024-11-08T03:00:00	1	Precipitación	0
160272	7	Sololá	713	San Lucas Tolimán	10	San Lucas Tolimán	11	Noviembre	2023-11-20T00:00:00	2024-11-08T03:00:00	8	Radiación solar	0
160273	7	Sololá	713	San Lucas Tolimán	10	San Lucas Tolimán	11	Noviembre	2023-11-20T00:00:00	2024-11-08T04:00:00	2	Temperatura media	13.6
160274	7	Sololá	713	San Lucas Tolimán	10	San Lucas Tolimán	11	Noviembre	2023-11-20T00:00:00	2024-11-08T04:00:00	4	Temperatura máxima	14.3
160275	7	Sololá	713	San Lucas Tolimán	10	San Lucas Tolimán	11	Noviembre	2023-11-20T00:00:00	2024-11-08T04:00:00	3	Temperatura mínima	13.5
160276	7	Sololá	713	San Lucas Tolimán	10	San Lucas Tolimán	11	Noviembre	2023-11-20T00:00:00	2024-11-08T04:00:00	5	Humedad	66
160277	7	Sololá	713	San Lucas Tolimán	10	San Lucas Tolimán	11	Noviembre	2023-11-20T00:00:00	2024-11-08T04:00:00	6	Velocidad del viento	0
160278	7	Sololá	713	San Lucas Tolimán	10	San Lucas Tolimán	11	Noviembre	2023-11-20T00:00:00	2024-11-08T04:00:00	7	Dirección del viento	0
160279	7	Sololá	713	San Lucas Tolimán	10	San Lucas Tolimán	11	Noviembre	2023-11-20T00:00:00	2024-11-08T04:00:00	1	Precipitación	0
160280	7	Sololá	713	San Lucas Tolimán	10	San Lucas Tolimán	11	Noviembre	2023-11-20T00:00:00	2024-11-08T04:00:00	8	Radiación solar	0
160281	7	Sololá	713	San Lucas Tolimán	10	San Lucas Tolimán	11	Noviembre	2023-11-20T00:00:00	2024-11-08T05:00:00	2	Temperatura media	15
160282	7	Sololá	713	San Lucas Tolimán	10	San Lucas Tolimán	11	Noviembre	2023-11-20T00:00:00	2024-11-08T05:00:00	4	Temperatura máxima	15.1
160283	7	Sololá	713	San Lucas Tolimán	10	San Lucas Tolimán	11	Noviembre	2023-11-20T00:00:00	2024-11-08T05:00:00	3	Temperatura mínima	13.5
160284	7	Sololá	713	San Lucas Tolimán	10	San Lucas Tolimán	11	Noviembre	2023-11-20T00:00:00	2024-11-08T05:00:00	5	Humedad	62
160285	7	Sololá	713	San Lucas Tolimán	10	San Lucas Tolimán	11	Noviembre	2023-11-20T00:00:00	2024-11-08T05:00:00	6	Velocidad del viento	0
160286	7	Sololá	713	San Lucas Tolimán	10	San Lucas Tolimán	11	Noviembre	2023-11-20T00:00:00	2024-11-08T05:00:00	7	Dirección del viento	0
160287	7	Sololá	713	San Lucas Tolimán	10	San Lucas Tolimán	11	Noviembre	2023-11-20T00:00:00	2024-11-08T05:00:00	1	Precipitación	0
160288	7	Sololá	713	San Lucas Tolimán	10	San Lucas Tolimán	11	Noviembre	2023-11-20T00:00:00	2024-11-08T05:00:00	8	Radiación solar	0
160289	7	Sololá	713	San Lucas Tolimán	10	San Lucas Tolimán	11	Noviembre	2023-11-20T00:00:00	2024-11-08T06:00:00	2	Temperatura media	14
160290	7	Sololá	713	San Lucas Tolimán	10	San Lucas Tolimán	11	Noviembre	2023-11-20T00:00:00	2024-11-08T06:00:00	4	Temperatura máxima	15.1
160291	7	Sololá	713	San Lucas Tolimán	10	San Lucas Tolimán	11	Noviembre	2023-11-20T00:00:00	2024-11-08T06:00:00	3	Temperatura mínima	14
160292	7	Sololá	713	San Lucas Tolimán	10	San Lucas Tolimán	11	Noviembre	2023-11-20T00:00:00	2024-11-08T06:00:00	5	Humedad	64
160293	7	Sololá	713	San Lucas Tolimán	10	San Lucas Tolimán	11	Noviembre	2023-11-20T00:00:00	2024-11-08T06:00:00	6	Velocidad del viento	0
160294	7	Sololá	713	San Lucas Tolimán	10	San Lucas Tolimán	11	Noviembre	2023-11-20T00:00:00	2024-11-08T06:00:00	7	Dirección del viento	0
160295	7	Sololá	713	San Lucas Tolimán	10	San Lucas Tolimán	11	Noviembre	2023-11-20T00:00:00	2024-11-08T06:00:00	1	Precipitación	0
160296	7	Sololá	713	San Lucas Tolimán	10	San Lucas Tolimán	11	Noviembre	2023-11-20T00:00:00	2024-11-08T06:00:00	8	Radiación solar	0
160297	7	Sololá	713	San Lucas Tolimán	10	San Lucas Tolimán	11	Noviembre	2023-11-20T00:00:00	2024-11-08T07:00:00	2	Temperatura media	14.2
160298	7	Sololá	713	San Lucas Tolimán	10	San Lucas Tolimán	11	Noviembre	2023-11-20T00:00:00	2024-11-08T07:00:00	4	Temperatura máxima	14.2
160299	7	Sololá	713	San Lucas Tolimán	10	San Lucas Tolimán	11	Noviembre	2023-11-20T00:00:00	2024-11-08T07:00:00	3	Temperatura mínima	13.5
160300	7	Sololá	713	San Lucas Tolimán	10	San Lucas Tolimán	11	Noviembre	2023-11-20T00:00:00	2024-11-08T07:00:00	5	Humedad	63
160301	7	Sololá	713	San Lucas Tolimán	10	San Lucas Tolimán	11	Noviembre	2023-11-20T00:00:00	2024-11-08T07:00:00	6	Velocidad del viento	0
160302	7	Sololá	713	San Lucas Tolimán	10	San Lucas Tolimán	11	Noviembre	2023-11-20T00:00:00	2024-11-08T07:00:00	7	Dirección del viento	0
160303	7	Sololá	713	San Lucas Tolimán	10	San Lucas Tolimán	11	Noviembre	2023-11-20T00:00:00	2024-11-08T07:00:00	1	Precipitación	0
160304	7	Sololá	713	San Lucas Tolimán	10	San Lucas Tolimán	11	Noviembre	2023-11-20T00:00:00	2024-11-08T07:00:00	8	Radiación solar	14
160305	7	Sololá	713	San Lucas Tolimán	10	San Lucas Tolimán	11	Noviembre	2023-11-20T00:00:00	2024-11-08T08:00:00	2	Temperatura media	15.8
160306	7	Sololá	713	San Lucas Tolimán	10	San Lucas Tolimán	11	Noviembre	2023-11-20T00:00:00	2024-11-08T08:00:00	4	Temperatura máxima	15.8
160307	7	Sololá	713	San Lucas Tolimán	10	San Lucas Tolimán	11	Noviembre	2023-11-20T00:00:00	2024-11-08T08:00:00	3	Temperatura mínima	14.2
160308	7	Sololá	713	San Lucas Tolimán	10	San Lucas Tolimán	11	Noviembre	2023-11-20T00:00:00	2024-11-08T08:00:00	5	Humedad	61
160309	7	Sololá	713	San Lucas Tolimán	10	San Lucas Tolimán	11	Noviembre	2023-11-20T00:00:00	2024-11-08T08:00:00	6	Velocidad del viento	1.6
160310	7	Sololá	713	San Lucas Tolimán	10	San Lucas Tolimán	11	Noviembre	2023-11-20T00:00:00	2024-11-08T08:00:00	7	Dirección del viento	1.61
160311	7	Sololá	713	San Lucas Tolimán	10	San Lucas Tolimán	11	Noviembre	2023-11-20T00:00:00	2024-11-08T08:00:00	1	Precipitación	0
160312	7	Sololá	713	San Lucas Tolimán	10	San Lucas Tolimán	11	Noviembre	2023-11-20T00:00:00	2024-11-08T08:00:00	8	Radiación solar	59
160313	7	Sololá	713	San Lucas Tolimán	10	San Lucas Tolimán	11	Noviembre	2023-11-20T00:00:00	2024-11-08T09:00:00	2	Temperatura media	18.7
160314	7	Sololá	713	San Lucas Tolimán	10	San Lucas Tolimán	11	Noviembre	2023-11-20T00:00:00	2024-11-08T09:00:00	4	Temperatura máxima	18.7
160315	7	Sololá	713	San Lucas Tolimán	10	San Lucas Tolimán	11	Noviembre	2023-11-20T00:00:00	2024-11-08T09:00:00	3	Temperatura mínima	15.8
160316	7	Sololá	713	San Lucas Tolimán	10	San Lucas Tolimán	11	Noviembre	2023-11-20T00:00:00	2024-11-08T09:00:00	5	Humedad	54
160317	7	Sololá	713	San Lucas Tolimán	10	San Lucas Tolimán	11	Noviembre	2023-11-20T00:00:00	2024-11-08T09:00:00	6	Velocidad del viento	4.8
160318	7	Sololá	713	San Lucas Tolimán	10	San Lucas Tolimán	11	Noviembre	2023-11-20T00:00:00	2024-11-08T09:00:00	7	Dirección del viento	4.83
160319	7	Sololá	713	San Lucas Tolimán	10	San Lucas Tolimán	11	Noviembre	2023-11-20T00:00:00	2024-11-08T09:00:00	1	Precipitación	0
160320	7	Sololá	713	San Lucas Tolimán	10	San Lucas Tolimán	11	Noviembre	2023-11-20T00:00:00	2024-11-08T09:00:00	8	Radiación solar	418
160321	7	Sololá	713	San Lucas Tolimán	10	San Lucas Tolimán	11	Noviembre	2023-11-20T00:00:00	2024-11-08T10:00:00	2	Temperatura media	22.3
160322	7	Sololá	713	San Lucas Tolimán	10	San Lucas Tolimán	11	Noviembre	2023-11-20T00:00:00	2024-11-08T10:00:00	4	Temperatura máxima	22.3
160323	7	Sololá	713	San Lucas Tolimán	10	San Lucas Tolimán	11	Noviembre	2023-11-20T00:00:00	2024-11-08T10:00:00	3	Temperatura mínima	18.8
160324	7	Sololá	713	San Lucas Tolimán	10	San Lucas Tolimán	11	Noviembre	2023-11-20T00:00:00	2024-11-08T10:00:00	5	Humedad	46
160325	7	Sololá	713	San Lucas Tolimán	10	San Lucas Tolimán	11	Noviembre	2023-11-20T00:00:00	2024-11-08T10:00:00	6	Velocidad del viento	3.2
160326	7	Sololá	713	San Lucas Tolimán	10	San Lucas Tolimán	11	Noviembre	2023-11-20T00:00:00	2024-11-08T10:00:00	7	Dirección del viento	3.22
160327	7	Sololá	713	San Lucas Tolimán	10	San Lucas Tolimán	11	Noviembre	2023-11-20T00:00:00	2024-11-08T10:00:00	1	Precipitación	0
160328	7	Sololá	713	San Lucas Tolimán	10	San Lucas Tolimán	11	Noviembre	2023-11-20T00:00:00	2024-11-08T10:00:00	8	Radiación solar	687
160329	7	Sololá	713	San Lucas Tolimán	10	San Lucas Tolimán	11	Noviembre	2023-11-20T00:00:00	2024-11-08T11:00:00	2	Temperatura media	22.4
160330	7	Sololá	713	San Lucas Tolimán	10	San Lucas Tolimán	11	Noviembre	2023-11-20T00:00:00	2024-11-08T11:00:00	4	Temperatura máxima	22.7
160331	7	Sololá	713	San Lucas Tolimán	10	San Lucas Tolimán	11	Noviembre	2023-11-20T00:00:00	2024-11-08T11:00:00	3	Temperatura mínima	21.9
160332	7	Sololá	713	San Lucas Tolimán	10	San Lucas Tolimán	11	Noviembre	2023-11-20T00:00:00	2024-11-08T11:00:00	5	Humedad	47
160333	7	Sololá	713	San Lucas Tolimán	10	San Lucas Tolimán	11	Noviembre	2023-11-20T00:00:00	2024-11-08T11:00:00	6	Velocidad del viento	6.4
160334	7	Sololá	713	San Lucas Tolimán	10	San Lucas Tolimán	11	Noviembre	2023-11-20T00:00:00	2024-11-08T11:00:00	7	Dirección del viento	6.44
160335	7	Sololá	713	San Lucas Tolimán	10	San Lucas Tolimán	11	Noviembre	2023-11-20T00:00:00	2024-11-08T11:00:00	1	Precipitación	0
160336	7	Sololá	713	San Lucas Tolimán	10	San Lucas Tolimán	11	Noviembre	2023-11-20T00:00:00	2024-11-08T11:00:00	8	Radiación solar	848
160337	7	Sololá	713	San Lucas Tolimán	10	San Lucas Tolimán	11	Noviembre	2023-11-20T00:00:00	2024-11-08T12:00:00	2	Temperatura media	21.2
160338	7	Sololá	713	San Lucas Tolimán	10	San Lucas Tolimán	11	Noviembre	2023-11-20T00:00:00	2024-11-08T12:00:00	4	Temperatura máxima	22.4
160339	7	Sololá	713	San Lucas Tolimán	10	San Lucas Tolimán	11	Noviembre	2023-11-20T00:00:00	2024-11-08T12:00:00	3	Temperatura mínima	21.2
160340	7	Sololá	713	San Lucas Tolimán	10	San Lucas Tolimán	11	Noviembre	2023-11-20T00:00:00	2024-11-08T12:00:00	5	Humedad	54
160341	7	Sololá	713	San Lucas Tolimán	10	San Lucas Tolimán	11	Noviembre	2023-11-20T00:00:00	2024-11-08T12:00:00	6	Velocidad del viento	9.7
160342	7	Sololá	713	San Lucas Tolimán	10	San Lucas Tolimán	11	Noviembre	2023-11-20T00:00:00	2024-11-08T12:00:00	7	Dirección del viento	9.66
160343	7	Sololá	713	San Lucas Tolimán	10	San Lucas Tolimán	11	Noviembre	2023-11-20T00:00:00	2024-11-08T12:00:00	1	Precipitación	0
160344	7	Sololá	713	San Lucas Tolimán	10	San Lucas Tolimán	11	Noviembre	2023-11-20T00:00:00	2024-11-08T12:00:00	8	Radiación solar	931
160345	7	Sololá	713	San Lucas Tolimán	10	San Lucas Tolimán	11	Noviembre	2023-11-20T00:00:00	2024-11-08T13:00:00	2	Temperatura media	20.6
160346	7	Sololá	713	San Lucas Tolimán	10	San Lucas Tolimán	11	Noviembre	2023-11-20T00:00:00	2024-11-08T13:00:00	4	Temperatura máxima	21.4
160347	7	Sololá	713	San Lucas Tolimán	10	San Lucas Tolimán	11	Noviembre	2023-11-20T00:00:00	2024-11-08T13:00:00	3	Temperatura mínima	20.3
160348	7	Sololá	713	San Lucas Tolimán	10	San Lucas Tolimán	11	Noviembre	2023-11-20T00:00:00	2024-11-08T13:00:00	5	Humedad	58
160349	7	Sololá	713	San Lucas Tolimán	10	San Lucas Tolimán	11	Noviembre	2023-11-20T00:00:00	2024-11-08T13:00:00	6	Velocidad del viento	12.9
160350	7	Sololá	713	San Lucas Tolimán	10	San Lucas Tolimán	11	Noviembre	2023-11-20T00:00:00	2024-11-08T13:00:00	7	Dirección del viento	12.87
160351	7	Sololá	713	San Lucas Tolimán	10	San Lucas Tolimán	11	Noviembre	2023-11-20T00:00:00	2024-11-08T13:00:00	1	Precipitación	0
160352	7	Sololá	713	San Lucas Tolimán	10	San Lucas Tolimán	11	Noviembre	2023-11-20T00:00:00	2024-11-08T13:00:00	8	Radiación solar	833
160353	7	Sololá	713	San Lucas Tolimán	10	San Lucas Tolimán	11	Noviembre	2023-11-20T00:00:00	2024-11-08T14:00:00	2	Temperatura media	21
160354	7	Sololá	713	San Lucas Tolimán	10	San Lucas Tolimán	11	Noviembre	2023-11-20T00:00:00	2024-11-08T14:00:00	4	Temperatura máxima	21.3
160355	7	Sololá	713	San Lucas Tolimán	10	San Lucas Tolimán	11	Noviembre	2023-11-20T00:00:00	2024-11-08T14:00:00	3	Temperatura mínima	20.4
160356	7	Sololá	713	San Lucas Tolimán	10	San Lucas Tolimán	11	Noviembre	2023-11-20T00:00:00	2024-11-08T14:00:00	5	Humedad	56
160357	7	Sololá	713	San Lucas Tolimán	10	San Lucas Tolimán	11	Noviembre	2023-11-20T00:00:00	2024-11-08T14:00:00	6	Velocidad del viento	11.3
160358	7	Sololá	713	San Lucas Tolimán	10	San Lucas Tolimán	11	Noviembre	2023-11-20T00:00:00	2024-11-08T14:00:00	7	Dirección del viento	11.27
160359	7	Sololá	713	San Lucas Tolimán	10	San Lucas Tolimán	11	Noviembre	2023-11-20T00:00:00	2024-11-08T14:00:00	1	Precipitación	0
160360	7	Sololá	713	San Lucas Tolimán	10	San Lucas Tolimán	11	Noviembre	2023-11-20T00:00:00	2024-11-08T14:00:00	8	Radiación solar	649
160361	7	Sololá	713	San Lucas Tolimán	10	San Lucas Tolimán	11	Noviembre	2023-11-20T00:00:00	2024-11-08T15:00:00	2	Temperatura media	20.1
160362	7	Sololá	713	San Lucas Tolimán	10	San Lucas Tolimán	11	Noviembre	2023-11-20T00:00:00	2024-11-08T15:00:00	4	Temperatura máxima	20.9
160363	7	Sololá	713	San Lucas Tolimán	10	San Lucas Tolimán	11	Noviembre	2023-11-20T00:00:00	2024-11-08T15:00:00	3	Temperatura mínima	20
160364	7	Sololá	713	San Lucas Tolimán	10	San Lucas Tolimán	11	Noviembre	2023-11-20T00:00:00	2024-11-08T15:00:00	5	Humedad	59
160365	7	Sololá	713	San Lucas Tolimán	10	San Lucas Tolimán	11	Noviembre	2023-11-20T00:00:00	2024-11-08T15:00:00	6	Velocidad del viento	9.7
160366	7	Sololá	713	San Lucas Tolimán	10	San Lucas Tolimán	11	Noviembre	2023-11-20T00:00:00	2024-11-08T15:00:00	7	Dirección del viento	9.66
160367	7	Sololá	713	San Lucas Tolimán	10	San Lucas Tolimán	11	Noviembre	2023-11-20T00:00:00	2024-11-08T15:00:00	1	Precipitación	0
160368	7	Sololá	713	San Lucas Tolimán	10	San Lucas Tolimán	11	Noviembre	2023-11-20T00:00:00	2024-11-08T15:00:00	8	Radiación solar	282
160369	7	Sololá	713	San Lucas Tolimán	10	San Lucas Tolimán	11	Noviembre	2023-11-20T00:00:00	2024-11-08T16:00:00	2	Temperatura media	18.7
160370	7	Sololá	713	San Lucas Tolimán	10	San Lucas Tolimán	11	Noviembre	2023-11-20T00:00:00	2024-11-08T16:00:00	4	Temperatura máxima	20.1
160371	7	Sololá	713	San Lucas Tolimán	10	San Lucas Tolimán	11	Noviembre	2023-11-20T00:00:00	2024-11-08T16:00:00	3	Temperatura mínima	18.7
160372	7	Sololá	713	San Lucas Tolimán	10	San Lucas Tolimán	11	Noviembre	2023-11-20T00:00:00	2024-11-08T16:00:00	5	Humedad	63
160373	7	Sololá	713	San Lucas Tolimán	10	San Lucas Tolimán	11	Noviembre	2023-11-20T00:00:00	2024-11-08T16:00:00	6	Velocidad del viento	9.7
160374	7	Sololá	713	San Lucas Tolimán	10	San Lucas Tolimán	11	Noviembre	2023-11-20T00:00:00	2024-11-08T16:00:00	7	Dirección del viento	9.66
160375	7	Sololá	713	San Lucas Tolimán	10	San Lucas Tolimán	11	Noviembre	2023-11-20T00:00:00	2024-11-08T16:00:00	1	Precipitación	0
160376	7	Sololá	713	San Lucas Tolimán	10	San Lucas Tolimán	11	Noviembre	2023-11-20T00:00:00	2024-11-08T16:00:00	8	Radiación solar	129
160377	7	Sololá	713	San Lucas Tolimán	10	San Lucas Tolimán	11	Noviembre	2023-11-20T00:00:00	2024-11-08T17:00:00	2	Temperatura media	18.2
160378	7	Sololá	713	San Lucas Tolimán	10	San Lucas Tolimán	11	Noviembre	2023-11-20T00:00:00	2024-11-08T17:00:00	4	Temperatura máxima	18.8
160379	7	Sololá	713	San Lucas Tolimán	10	San Lucas Tolimán	11	Noviembre	2023-11-20T00:00:00	2024-11-08T17:00:00	3	Temperatura mínima	18.2
160380	7	Sololá	713	San Lucas Tolimán	10	San Lucas Tolimán	11	Noviembre	2023-11-20T00:00:00	2024-11-08T17:00:00	5	Humedad	65
160381	7	Sololá	713	San Lucas Tolimán	10	San Lucas Tolimán	11	Noviembre	2023-11-20T00:00:00	2024-11-08T17:00:00	6	Velocidad del viento	8
160382	7	Sololá	713	San Lucas Tolimán	10	San Lucas Tolimán	11	Noviembre	2023-11-20T00:00:00	2024-11-08T17:00:00	7	Dirección del viento	8.05
160383	7	Sololá	713	San Lucas Tolimán	10	San Lucas Tolimán	11	Noviembre	2023-11-20T00:00:00	2024-11-08T17:00:00	1	Precipitación	0
160384	7	Sololá	713	San Lucas Tolimán	10	San Lucas Tolimán	11	Noviembre	2023-11-20T00:00:00	2024-11-08T17:00:00	8	Radiación solar	39
160385	7	Sololá	713	San Lucas Tolimán	10	San Lucas Tolimán	11	Noviembre	2023-11-20T00:00:00	2024-11-08T18:00:00	2	Temperatura media	18.1
160386	7	Sololá	713	San Lucas Tolimán	10	San Lucas Tolimán	11	Noviembre	2023-11-20T00:00:00	2024-11-08T18:00:00	4	Temperatura máxima	18.2
160387	7	Sololá	713	San Lucas Tolimán	10	San Lucas Tolimán	11	Noviembre	2023-11-20T00:00:00	2024-11-08T18:00:00	3	Temperatura mínima	17.9
160388	7	Sololá	713	San Lucas Tolimán	10	San Lucas Tolimán	11	Noviembre	2023-11-20T00:00:00	2024-11-08T18:00:00	5	Humedad	65
160389	7	Sololá	713	San Lucas Tolimán	10	San Lucas Tolimán	11	Noviembre	2023-11-20T00:00:00	2024-11-08T18:00:00	6	Velocidad del viento	6.4
160390	7	Sololá	713	San Lucas Tolimán	10	San Lucas Tolimán	11	Noviembre	2023-11-20T00:00:00	2024-11-08T18:00:00	7	Dirección del viento	6.44
160391	7	Sololá	713	San Lucas Tolimán	10	San Lucas Tolimán	11	Noviembre	2023-11-20T00:00:00	2024-11-08T18:00:00	1	Precipitación	0
160392	7	Sololá	713	San Lucas Tolimán	10	San Lucas Tolimán	11	Noviembre	2023-11-20T00:00:00	2024-11-08T18:00:00	8	Radiación solar	5
160393	7	Sololá	713	San Lucas Tolimán	10	San Lucas Tolimán	11	Noviembre	2023-11-20T00:00:00	2024-11-08T19:00:00	2	Temperatura media	17.8
160394	7	Sololá	713	San Lucas Tolimán	10	San Lucas Tolimán	11	Noviembre	2023-11-20T00:00:00	2024-11-08T19:00:00	4	Temperatura máxima	18.1
160395	7	Sololá	713	San Lucas Tolimán	10	San Lucas Tolimán	11	Noviembre	2023-11-20T00:00:00	2024-11-08T19:00:00	3	Temperatura mínima	17.8
160396	7	Sololá	713	San Lucas Tolimán	10	San Lucas Tolimán	11	Noviembre	2023-11-20T00:00:00	2024-11-08T19:00:00	5	Humedad	65
160397	7	Sololá	713	San Lucas Tolimán	10	San Lucas Tolimán	11	Noviembre	2023-11-20T00:00:00	2024-11-08T19:00:00	6	Velocidad del viento	3.2
160398	7	Sololá	713	San Lucas Tolimán	10	San Lucas Tolimán	11	Noviembre	2023-11-20T00:00:00	2024-11-08T19:00:00	7	Dirección del viento	3.22
160399	7	Sololá	713	San Lucas Tolimán	10	San Lucas Tolimán	11	Noviembre	2023-11-20T00:00:00	2024-11-08T19:00:00	1	Precipitación	0
160400	7	Sololá	713	San Lucas Tolimán	10	San Lucas Tolimán	11	Noviembre	2023-11-20T00:00:00	2024-11-08T19:00:00	8	Radiación solar	0
160401	7	Sololá	713	San Lucas Tolimán	10	San Lucas Tolimán	11	Noviembre	2023-11-20T00:00:00	2024-11-08T20:00:00	2	Temperatura media	17.6
160402	7	Sololá	713	San Lucas Tolimán	10	San Lucas Tolimán	11	Noviembre	2023-11-20T00:00:00	2024-11-08T20:00:00	4	Temperatura máxima	17.8
160403	7	Sololá	713	San Lucas Tolimán	10	San Lucas Tolimán	11	Noviembre	2023-11-20T00:00:00	2024-11-08T20:00:00	3	Temperatura mínima	17.4
160404	7	Sololá	713	San Lucas Tolimán	10	San Lucas Tolimán	11	Noviembre	2023-11-20T00:00:00	2024-11-08T20:00:00	5	Humedad	66
160405	7	Sololá	713	San Lucas Tolimán	10	San Lucas Tolimán	11	Noviembre	2023-11-20T00:00:00	2024-11-08T20:00:00	6	Velocidad del viento	4.8
160406	7	Sololá	713	San Lucas Tolimán	10	San Lucas Tolimán	11	Noviembre	2023-11-20T00:00:00	2024-11-08T20:00:00	7	Dirección del viento	4.83
160407	7	Sololá	713	San Lucas Tolimán	10	San Lucas Tolimán	11	Noviembre	2023-11-20T00:00:00	2024-11-08T20:00:00	1	Precipitación	0
160408	7	Sololá	713	San Lucas Tolimán	10	San Lucas Tolimán	11	Noviembre	2023-11-20T00:00:00	2024-11-08T20:00:00	8	Radiación solar	0
160409	7	Sololá	713	San Lucas Tolimán	10	San Lucas Tolimán	11	Noviembre	2023-11-20T00:00:00	2024-11-08T21:00:00	2	Temperatura media	17.5
160410	7	Sololá	713	San Lucas Tolimán	10	San Lucas Tolimán	11	Noviembre	2023-11-20T00:00:00	2024-11-08T21:00:00	4	Temperatura máxima	17.6
160411	7	Sololá	713	San Lucas Tolimán	10	San Lucas Tolimán	11	Noviembre	2023-11-20T00:00:00	2024-11-08T21:00:00	3	Temperatura mínima	17.5
160412	7	Sololá	713	San Lucas Tolimán	10	San Lucas Tolimán	11	Noviembre	2023-11-20T00:00:00	2024-11-08T21:00:00	5	Humedad	66
160413	7	Sololá	713	San Lucas Tolimán	10	San Lucas Tolimán	11	Noviembre	2023-11-20T00:00:00	2024-11-08T21:00:00	6	Velocidad del viento	4.8
160414	7	Sololá	713	San Lucas Tolimán	10	San Lucas Tolimán	11	Noviembre	2023-11-20T00:00:00	2024-11-08T21:00:00	7	Dirección del viento	4.83
160415	7	Sololá	713	San Lucas Tolimán	10	San Lucas Tolimán	11	Noviembre	2023-11-20T00:00:00	2024-11-08T21:00:00	1	Precipitación	0
160416	7	Sololá	713	San Lucas Tolimán	10	San Lucas Tolimán	11	Noviembre	2023-11-20T00:00:00	2024-11-08T21:00:00	8	Radiación solar	0
160417	7	Sololá	713	San Lucas Tolimán	10	San Lucas Tolimán	11	Noviembre	2023-11-20T00:00:00	2024-11-08T22:00:00	2	Temperatura media	17.1
160418	7	Sololá	713	San Lucas Tolimán	10	San Lucas Tolimán	11	Noviembre	2023-11-20T00:00:00	2024-11-08T22:00:00	4	Temperatura máxima	17.5
160419	7	Sololá	713	San Lucas Tolimán	10	San Lucas Tolimán	11	Noviembre	2023-11-20T00:00:00	2024-11-08T22:00:00	3	Temperatura mínima	16.7
160420	7	Sololá	713	San Lucas Tolimán	10	San Lucas Tolimán	11	Noviembre	2023-11-20T00:00:00	2024-11-08T22:00:00	5	Humedad	66
160421	7	Sololá	713	San Lucas Tolimán	10	San Lucas Tolimán	11	Noviembre	2023-11-20T00:00:00	2024-11-08T22:00:00	6	Velocidad del viento	4.8
160422	7	Sololá	713	San Lucas Tolimán	10	San Lucas Tolimán	11	Noviembre	2023-11-20T00:00:00	2024-11-08T22:00:00	7	Dirección del viento	4.83
160423	7	Sololá	713	San Lucas Tolimán	10	San Lucas Tolimán	11	Noviembre	2023-11-20T00:00:00	2024-11-08T22:00:00	1	Precipitación	0
160424	7	Sololá	713	San Lucas Tolimán	10	San Lucas Tolimán	11	Noviembre	2023-11-20T00:00:00	2024-11-08T22:00:00	8	Radiación solar	0
160425	7	Sololá	713	San Lucas Tolimán	10	San Lucas Tolimán	11	Noviembre	2023-11-20T00:00:00	2024-11-08T23:00:00	2	Temperatura media	17.1
160426	7	Sololá	713	San Lucas Tolimán	10	San Lucas Tolimán	11	Noviembre	2023-11-20T00:00:00	2024-11-08T23:00:00	4	Temperatura máxima	17.2
160427	7	Sololá	713	San Lucas Tolimán	10	San Lucas Tolimán	11	Noviembre	2023-11-20T00:00:00	2024-11-08T23:00:00	3	Temperatura mínima	17.1
160428	7	Sololá	713	San Lucas Tolimán	10	San Lucas Tolimán	11	Noviembre	2023-11-20T00:00:00	2024-11-08T23:00:00	5	Humedad	67
160429	7	Sololá	713	San Lucas Tolimán	10	San Lucas Tolimán	11	Noviembre	2023-11-20T00:00:00	2024-11-08T23:00:00	6	Velocidad del viento	3.2
160430	7	Sololá	713	San Lucas Tolimán	10	San Lucas Tolimán	11	Noviembre	2023-11-20T00:00:00	2024-11-08T23:00:00	7	Dirección del viento	3.22
160431	7	Sololá	713	San Lucas Tolimán	10	San Lucas Tolimán	11	Noviembre	2023-11-20T00:00:00	2024-11-08T23:00:00	1	Precipitación	0
160432	7	Sololá	713	San Lucas Tolimán	10	San Lucas Tolimán	11	Noviembre	2023-11-20T00:00:00	2024-11-08T23:00:00	8	Radiación solar	0
160433	7	Sololá	713	San Lucas Tolimán	10	San Lucas Tolimán	11	Noviembre	2023-11-21T00:00:00	2024-11-08T00:00:00	2	Temperatura media	16.6
160434	7	Sololá	713	San Lucas Tolimán	10	San Lucas Tolimán	11	Noviembre	2023-11-21T00:00:00	2024-11-08T00:00:00	4	Temperatura máxima	17.1
160435	7	Sololá	713	San Lucas Tolimán	10	San Lucas Tolimán	11	Noviembre	2023-11-21T00:00:00	2024-11-08T00:00:00	3	Temperatura mínima	16.4
160436	7	Sololá	713	San Lucas Tolimán	10	San Lucas Tolimán	11	Noviembre	2023-11-21T00:00:00	2024-11-08T00:00:00	5	Humedad	65
160437	7	Sololá	713	San Lucas Tolimán	10	San Lucas Tolimán	11	Noviembre	2023-11-21T00:00:00	2024-11-08T00:00:00	6	Velocidad del viento	3.2
160438	7	Sololá	713	San Lucas Tolimán	10	San Lucas Tolimán	11	Noviembre	2023-11-21T00:00:00	2024-11-08T00:00:00	7	Dirección del viento	3.22
160439	7	Sololá	713	San Lucas Tolimán	10	San Lucas Tolimán	11	Noviembre	2023-11-21T00:00:00	2024-11-08T00:00:00	1	Precipitación	0
160440	7	Sololá	713	San Lucas Tolimán	10	San Lucas Tolimán	11	Noviembre	2023-11-21T00:00:00	2024-11-08T00:00:00	8	Radiación solar	0
160441	7	Sololá	713	San Lucas Tolimán	10	San Lucas Tolimán	11	Noviembre	2023-11-21T00:00:00	2024-11-08T01:00:00	2	Temperatura media	16.2
160442	7	Sololá	713	San Lucas Tolimán	10	San Lucas Tolimán	11	Noviembre	2023-11-21T00:00:00	2024-11-08T01:00:00	4	Temperatura máxima	16.6
160443	7	Sololá	713	San Lucas Tolimán	10	San Lucas Tolimán	11	Noviembre	2023-11-21T00:00:00	2024-11-08T01:00:00	3	Temperatura mínima	16.2
160444	7	Sololá	713	San Lucas Tolimán	10	San Lucas Tolimán	11	Noviembre	2023-11-21T00:00:00	2024-11-08T01:00:00	5	Humedad	63
160445	7	Sololá	713	San Lucas Tolimán	10	San Lucas Tolimán	11	Noviembre	2023-11-21T00:00:00	2024-11-08T01:00:00	6	Velocidad del viento	3.2
160446	7	Sololá	713	San Lucas Tolimán	10	San Lucas Tolimán	11	Noviembre	2023-11-21T00:00:00	2024-11-08T01:00:00	7	Dirección del viento	3.22
160447	7	Sololá	713	San Lucas Tolimán	10	San Lucas Tolimán	11	Noviembre	2023-11-21T00:00:00	2024-11-08T01:00:00	1	Precipitación	0
160448	7	Sololá	713	San Lucas Tolimán	10	San Lucas Tolimán	11	Noviembre	2023-11-21T00:00:00	2024-11-08T01:00:00	8	Radiación solar	0
160449	7	Sololá	713	San Lucas Tolimán	10	San Lucas Tolimán	11	Noviembre	2023-11-21T00:00:00	2024-11-08T02:00:00	2	Temperatura media	16.1
160450	7	Sololá	713	San Lucas Tolimán	10	San Lucas Tolimán	11	Noviembre	2023-11-21T00:00:00	2024-11-08T02:00:00	4	Temperatura máxima	16.6
160451	7	Sololá	713	San Lucas Tolimán	10	San Lucas Tolimán	11	Noviembre	2023-11-21T00:00:00	2024-11-08T02:00:00	3	Temperatura mínima	16.1
160452	7	Sololá	713	San Lucas Tolimán	10	San Lucas Tolimán	11	Noviembre	2023-11-21T00:00:00	2024-11-08T02:00:00	5	Humedad	65
160453	7	Sololá	713	San Lucas Tolimán	10	San Lucas Tolimán	11	Noviembre	2023-11-21T00:00:00	2024-11-08T02:00:00	6	Velocidad del viento	4.8
160454	7	Sololá	713	San Lucas Tolimán	10	San Lucas Tolimán	11	Noviembre	2023-11-21T00:00:00	2024-11-08T02:00:00	7	Dirección del viento	4.83
160455	7	Sololá	713	San Lucas Tolimán	10	San Lucas Tolimán	11	Noviembre	2023-11-21T00:00:00	2024-11-08T02:00:00	1	Precipitación	0
160456	7	Sololá	713	San Lucas Tolimán	10	San Lucas Tolimán	11	Noviembre	2023-11-21T00:00:00	2024-11-08T02:00:00	8	Radiación solar	0
160457	7	Sololá	713	San Lucas Tolimán	10	San Lucas Tolimán	11	Noviembre	2023-11-21T00:00:00	2024-11-08T03:00:00	2	Temperatura media	15.5
160458	7	Sololá	713	San Lucas Tolimán	10	San Lucas Tolimán	11	Noviembre	2023-11-21T00:00:00	2024-11-08T03:00:00	4	Temperatura máxima	16.1
160459	7	Sololá	713	San Lucas Tolimán	10	San Lucas Tolimán	11	Noviembre	2023-11-21T00:00:00	2024-11-08T03:00:00	3	Temperatura mínima	15.5
160460	7	Sololá	713	San Lucas Tolimán	10	San Lucas Tolimán	11	Noviembre	2023-11-21T00:00:00	2024-11-08T03:00:00	5	Humedad	64
160461	7	Sololá	713	San Lucas Tolimán	10	San Lucas Tolimán	11	Noviembre	2023-11-21T00:00:00	2024-11-08T03:00:00	6	Velocidad del viento	1.6
160462	7	Sololá	713	San Lucas Tolimán	10	San Lucas Tolimán	11	Noviembre	2023-11-21T00:00:00	2024-11-08T03:00:00	7	Dirección del viento	1.61
160463	7	Sololá	713	San Lucas Tolimán	10	San Lucas Tolimán	11	Noviembre	2023-11-21T00:00:00	2024-11-08T03:00:00	1	Precipitación	0
160464	7	Sololá	713	San Lucas Tolimán	10	San Lucas Tolimán	11	Noviembre	2023-11-21T00:00:00	2024-11-08T03:00:00	8	Radiación solar	0
160465	7	Sololá	713	San Lucas Tolimán	10	San Lucas Tolimán	11	Noviembre	2023-11-21T00:00:00	2024-11-08T04:00:00	2	Temperatura media	14.4
160466	7	Sololá	713	San Lucas Tolimán	10	San Lucas Tolimán	11	Noviembre	2023-11-21T00:00:00	2024-11-08T04:00:00	4	Temperatura máxima	15.7
160467	7	Sololá	713	San Lucas Tolimán	10	San Lucas Tolimán	11	Noviembre	2023-11-21T00:00:00	2024-11-08T04:00:00	3	Temperatura mínima	14.4
160468	7	Sololá	713	San Lucas Tolimán	10	San Lucas Tolimán	11	Noviembre	2023-11-21T00:00:00	2024-11-08T04:00:00	5	Humedad	66
160469	7	Sololá	713	San Lucas Tolimán	10	San Lucas Tolimán	11	Noviembre	2023-11-21T00:00:00	2024-11-08T04:00:00	6	Velocidad del viento	0
160470	7	Sololá	713	San Lucas Tolimán	10	San Lucas Tolimán	11	Noviembre	2023-11-21T00:00:00	2024-11-08T04:00:00	7	Dirección del viento	0
160471	7	Sololá	713	San Lucas Tolimán	10	San Lucas Tolimán	11	Noviembre	2023-11-21T00:00:00	2024-11-08T04:00:00	1	Precipitación	0
160472	7	Sololá	713	San Lucas Tolimán	10	San Lucas Tolimán	11	Noviembre	2023-11-21T00:00:00	2024-11-08T04:00:00	8	Radiación solar	0
160473	7	Sololá	713	San Lucas Tolimán	10	San Lucas Tolimán	11	Noviembre	2023-11-21T00:00:00	2024-11-08T05:00:00	2	Temperatura media	13.4
160474	7	Sololá	713	San Lucas Tolimán	10	San Lucas Tolimán	11	Noviembre	2023-11-21T00:00:00	2024-11-08T05:00:00	4	Temperatura máxima	14.4
160475	7	Sololá	713	San Lucas Tolimán	10	San Lucas Tolimán	11	Noviembre	2023-11-21T00:00:00	2024-11-08T05:00:00	3	Temperatura mínima	13.4
160476	7	Sololá	713	San Lucas Tolimán	10	San Lucas Tolimán	11	Noviembre	2023-11-21T00:00:00	2024-11-08T05:00:00	5	Humedad	65
160477	7	Sololá	713	San Lucas Tolimán	10	San Lucas Tolimán	11	Noviembre	2023-11-21T00:00:00	2024-11-08T05:00:00	6	Velocidad del viento	4.8
160478	7	Sololá	713	San Lucas Tolimán	10	San Lucas Tolimán	11	Noviembre	2023-11-21T00:00:00	2024-11-08T05:00:00	7	Dirección del viento	4.83
160479	7	Sololá	713	San Lucas Tolimán	10	San Lucas Tolimán	11	Noviembre	2023-11-21T00:00:00	2024-11-08T05:00:00	1	Precipitación	0
160480	7	Sololá	713	San Lucas Tolimán	10	San Lucas Tolimán	11	Noviembre	2023-11-21T00:00:00	2024-11-08T05:00:00	8	Radiación solar	0
160481	7	Sololá	713	San Lucas Tolimán	10	San Lucas Tolimán	11	Noviembre	2023-11-21T00:00:00	2024-11-08T06:00:00	2	Temperatura media	13.4
160482	7	Sololá	713	San Lucas Tolimán	10	San Lucas Tolimán	11	Noviembre	2023-11-21T00:00:00	2024-11-08T06:00:00	4	Temperatura máxima	13.6
160483	7	Sololá	713	San Lucas Tolimán	10	San Lucas Tolimán	11	Noviembre	2023-11-21T00:00:00	2024-11-08T06:00:00	3	Temperatura mínima	13.3
160484	7	Sololá	713	San Lucas Tolimán	10	San Lucas Tolimán	11	Noviembre	2023-11-21T00:00:00	2024-11-08T06:00:00	5	Humedad	65
160485	7	Sololá	713	San Lucas Tolimán	10	San Lucas Tolimán	11	Noviembre	2023-11-21T00:00:00	2024-11-08T06:00:00	6	Velocidad del viento	3.2
160486	7	Sololá	713	San Lucas Tolimán	10	San Lucas Tolimán	11	Noviembre	2023-11-21T00:00:00	2024-11-08T06:00:00	7	Dirección del viento	3.22
160487	7	Sololá	713	San Lucas Tolimán	10	San Lucas Tolimán	11	Noviembre	2023-11-21T00:00:00	2024-11-08T06:00:00	1	Precipitación	0
160488	7	Sololá	713	San Lucas Tolimán	10	San Lucas Tolimán	11	Noviembre	2023-11-21T00:00:00	2024-11-08T06:00:00	8	Radiación solar	0
160489	7	Sololá	713	San Lucas Tolimán	10	San Lucas Tolimán	11	Noviembre	2023-11-21T00:00:00	2024-11-08T07:00:00	2	Temperatura media	14.6
160490	7	Sololá	713	San Lucas Tolimán	10	San Lucas Tolimán	11	Noviembre	2023-11-21T00:00:00	2024-11-08T07:00:00	4	Temperatura máxima	14.6
160491	7	Sololá	713	San Lucas Tolimán	10	San Lucas Tolimán	11	Noviembre	2023-11-21T00:00:00	2024-11-08T07:00:00	3	Temperatura mínima	13.3
160492	7	Sololá	713	San Lucas Tolimán	10	San Lucas Tolimán	11	Noviembre	2023-11-21T00:00:00	2024-11-08T07:00:00	5	Humedad	65
160493	7	Sololá	713	San Lucas Tolimán	10	San Lucas Tolimán	11	Noviembre	2023-11-21T00:00:00	2024-11-08T07:00:00	6	Velocidad del viento	0
160494	7	Sololá	713	San Lucas Tolimán	10	San Lucas Tolimán	11	Noviembre	2023-11-21T00:00:00	2024-11-08T07:00:00	7	Dirección del viento	0
160495	7	Sololá	713	San Lucas Tolimán	10	San Lucas Tolimán	11	Noviembre	2023-11-21T00:00:00	2024-11-08T07:00:00	1	Precipitación	0
160496	7	Sololá	713	San Lucas Tolimán	10	San Lucas Tolimán	11	Noviembre	2023-11-21T00:00:00	2024-11-08T07:00:00	8	Radiación solar	29
160497	7	Sololá	713	San Lucas Tolimán	10	San Lucas Tolimán	11	Noviembre	2023-11-21T00:00:00	2024-11-08T08:00:00	2	Temperatura media	16
160498	7	Sololá	713	San Lucas Tolimán	10	San Lucas Tolimán	11	Noviembre	2023-11-21T00:00:00	2024-11-08T08:00:00	4	Temperatura máxima	16
160499	7	Sololá	713	San Lucas Tolimán	10	San Lucas Tolimán	11	Noviembre	2023-11-21T00:00:00	2024-11-08T08:00:00	3	Temperatura mínima	14.6
160500	7	Sololá	713	San Lucas Tolimán	10	San Lucas Tolimán	11	Noviembre	2023-11-21T00:00:00	2024-11-08T08:00:00	5	Humedad	63
160501	7	Sololá	713	San Lucas Tolimán	10	San Lucas Tolimán	11	Noviembre	2023-11-21T00:00:00	2024-11-08T08:00:00	6	Velocidad del viento	0
160502	7	Sololá	713	San Lucas Tolimán	10	San Lucas Tolimán	11	Noviembre	2023-11-21T00:00:00	2024-11-08T08:00:00	7	Dirección del viento	0
160503	7	Sololá	713	San Lucas Tolimán	10	San Lucas Tolimán	11	Noviembre	2023-11-21T00:00:00	2024-11-08T08:00:00	1	Precipitación	0
160504	7	Sololá	713	San Lucas Tolimán	10	San Lucas Tolimán	11	Noviembre	2023-11-21T00:00:00	2024-11-08T08:00:00	8	Radiación solar	68
160505	7	Sololá	713	San Lucas Tolimán	10	San Lucas Tolimán	11	Noviembre	2023-11-21T00:00:00	2024-11-08T09:00:00	2	Temperatura media	19.2
160506	7	Sololá	713	San Lucas Tolimán	10	San Lucas Tolimán	11	Noviembre	2023-11-21T00:00:00	2024-11-08T09:00:00	4	Temperatura máxima	19.6
160507	7	Sololá	713	San Lucas Tolimán	10	San Lucas Tolimán	11	Noviembre	2023-11-21T00:00:00	2024-11-08T09:00:00	3	Temperatura mínima	16
160508	7	Sololá	713	San Lucas Tolimán	10	San Lucas Tolimán	11	Noviembre	2023-11-21T00:00:00	2024-11-08T09:00:00	5	Humedad	54
160509	7	Sololá	713	San Lucas Tolimán	10	San Lucas Tolimán	11	Noviembre	2023-11-21T00:00:00	2024-11-08T09:00:00	6	Velocidad del viento	1.6
160510	7	Sololá	713	San Lucas Tolimán	10	San Lucas Tolimán	11	Noviembre	2023-11-21T00:00:00	2024-11-08T09:00:00	7	Dirección del viento	1.61
160511	7	Sololá	713	San Lucas Tolimán	10	San Lucas Tolimán	11	Noviembre	2023-11-21T00:00:00	2024-11-08T09:00:00	1	Precipitación	0
160512	7	Sololá	713	San Lucas Tolimán	10	San Lucas Tolimán	11	Noviembre	2023-11-21T00:00:00	2024-11-08T09:00:00	8	Radiación solar	414
160513	7	Sololá	713	San Lucas Tolimán	10	San Lucas Tolimán	11	Noviembre	2023-11-21T00:00:00	2024-11-08T10:00:00	2	Temperatura media	20.8
160514	7	Sololá	713	San Lucas Tolimán	10	San Lucas Tolimán	11	Noviembre	2023-11-21T00:00:00	2024-11-08T10:00:00	4	Temperatura máxima	21.7
160515	7	Sololá	713	San Lucas Tolimán	10	San Lucas Tolimán	11	Noviembre	2023-11-21T00:00:00	2024-11-08T10:00:00	3	Temperatura mínima	19.3
160516	7	Sololá	713	San Lucas Tolimán	10	San Lucas Tolimán	11	Noviembre	2023-11-21T00:00:00	2024-11-08T10:00:00	5	Humedad	52
160517	7	Sololá	713	San Lucas Tolimán	10	San Lucas Tolimán	11	Noviembre	2023-11-21T00:00:00	2024-11-08T10:00:00	6	Velocidad del viento	4.8
160518	7	Sololá	713	San Lucas Tolimán	10	San Lucas Tolimán	11	Noviembre	2023-11-21T00:00:00	2024-11-08T10:00:00	7	Dirección del viento	4.83
160519	7	Sololá	713	San Lucas Tolimán	10	San Lucas Tolimán	11	Noviembre	2023-11-21T00:00:00	2024-11-08T10:00:00	1	Precipitación	0
160520	7	Sololá	713	San Lucas Tolimán	10	San Lucas Tolimán	11	Noviembre	2023-11-21T00:00:00	2024-11-08T10:00:00	8	Radiación solar	680
160521	7	Sololá	713	San Lucas Tolimán	10	San Lucas Tolimán	11	Noviembre	2023-11-21T00:00:00	2024-11-08T11:00:00	2	Temperatura media	21.2
160522	7	Sololá	713	San Lucas Tolimán	10	San Lucas Tolimán	11	Noviembre	2023-11-21T00:00:00	2024-11-08T11:00:00	4	Temperatura máxima	21.3
160523	7	Sololá	713	San Lucas Tolimán	10	San Lucas Tolimán	11	Noviembre	2023-11-21T00:00:00	2024-11-08T11:00:00	3	Temperatura mínima	20.7
160524	7	Sololá	713	San Lucas Tolimán	10	San Lucas Tolimán	11	Noviembre	2023-11-21T00:00:00	2024-11-08T11:00:00	5	Humedad	52
160525	7	Sololá	713	San Lucas Tolimán	10	San Lucas Tolimán	11	Noviembre	2023-11-21T00:00:00	2024-11-08T11:00:00	6	Velocidad del viento	9.7
160526	7	Sololá	713	San Lucas Tolimán	10	San Lucas Tolimán	11	Noviembre	2023-11-21T00:00:00	2024-11-08T11:00:00	7	Dirección del viento	9.66
160527	7	Sololá	713	San Lucas Tolimán	10	San Lucas Tolimán	11	Noviembre	2023-11-21T00:00:00	2024-11-08T11:00:00	1	Precipitación	0
160528	7	Sololá	713	San Lucas Tolimán	10	San Lucas Tolimán	11	Noviembre	2023-11-21T00:00:00	2024-11-08T11:00:00	8	Radiación solar	841
160529	7	Sololá	713	San Lucas Tolimán	10	San Lucas Tolimán	11	Noviembre	2023-11-21T00:00:00	2024-11-08T12:00:00	2	Temperatura media	21.3
160530	7	Sololá	713	San Lucas Tolimán	10	San Lucas Tolimán	11	Noviembre	2023-11-21T00:00:00	2024-11-08T12:00:00	4	Temperatura máxima	21.5
160531	7	Sololá	713	San Lucas Tolimán	10	San Lucas Tolimán	11	Noviembre	2023-11-21T00:00:00	2024-11-08T12:00:00	3	Temperatura mínima	20.4
160532	7	Sololá	713	San Lucas Tolimán	10	San Lucas Tolimán	11	Noviembre	2023-11-21T00:00:00	2024-11-08T12:00:00	5	Humedad	54
160533	7	Sololá	713	San Lucas Tolimán	10	San Lucas Tolimán	11	Noviembre	2023-11-21T00:00:00	2024-11-08T12:00:00	6	Velocidad del viento	9.7
160534	7	Sololá	713	San Lucas Tolimán	10	San Lucas Tolimán	11	Noviembre	2023-11-21T00:00:00	2024-11-08T12:00:00	7	Dirección del viento	9.66
160535	7	Sololá	713	San Lucas Tolimán	10	San Lucas Tolimán	11	Noviembre	2023-11-21T00:00:00	2024-11-08T12:00:00	1	Precipitación	0
160536	7	Sololá	713	San Lucas Tolimán	10	San Lucas Tolimán	11	Noviembre	2023-11-21T00:00:00	2024-11-08T12:00:00	8	Radiación solar	891
160537	7	Sololá	713	San Lucas Tolimán	10	San Lucas Tolimán	11	Noviembre	2023-11-21T00:00:00	2024-11-08T13:00:00	2	Temperatura media	20.1
160538	7	Sololá	713	San Lucas Tolimán	10	San Lucas Tolimán	11	Noviembre	2023-11-21T00:00:00	2024-11-08T13:00:00	4	Temperatura máxima	21.3
160539	7	Sololá	713	San Lucas Tolimán	10	San Lucas Tolimán	11	Noviembre	2023-11-21T00:00:00	2024-11-08T13:00:00	3	Temperatura mínima	20
160540	7	Sololá	713	San Lucas Tolimán	10	San Lucas Tolimán	11	Noviembre	2023-11-21T00:00:00	2024-11-08T13:00:00	5	Humedad	58
160541	7	Sololá	713	San Lucas Tolimán	10	San Lucas Tolimán	11	Noviembre	2023-11-21T00:00:00	2024-11-08T13:00:00	6	Velocidad del viento	11.3
160542	7	Sololá	713	San Lucas Tolimán	10	San Lucas Tolimán	11	Noviembre	2023-11-21T00:00:00	2024-11-08T13:00:00	7	Dirección del viento	11.27
160543	7	Sololá	713	San Lucas Tolimán	10	San Lucas Tolimán	11	Noviembre	2023-11-21T00:00:00	2024-11-08T13:00:00	1	Precipitación	0
160544	7	Sololá	713	San Lucas Tolimán	10	San Lucas Tolimán	11	Noviembre	2023-11-21T00:00:00	2024-11-08T13:00:00	8	Radiación solar	709
160545	7	Sololá	713	San Lucas Tolimán	10	San Lucas Tolimán	11	Noviembre	2023-11-21T00:00:00	2024-11-08T14:00:00	2	Temperatura media	20.4
160546	7	Sololá	713	San Lucas Tolimán	10	San Lucas Tolimán	11	Noviembre	2023-11-21T00:00:00	2024-11-08T14:00:00	4	Temperatura máxima	20.5
160547	7	Sololá	713	San Lucas Tolimán	10	San Lucas Tolimán	11	Noviembre	2023-11-21T00:00:00	2024-11-08T14:00:00	3	Temperatura mínima	19.6
160548	7	Sololá	713	San Lucas Tolimán	10	San Lucas Tolimán	11	Noviembre	2023-11-21T00:00:00	2024-11-08T14:00:00	5	Humedad	58
160549	7	Sololá	713	San Lucas Tolimán	10	San Lucas Tolimán	11	Noviembre	2023-11-21T00:00:00	2024-11-08T14:00:00	6	Velocidad del viento	11.3
160550	7	Sololá	713	San Lucas Tolimán	10	San Lucas Tolimán	11	Noviembre	2023-11-21T00:00:00	2024-11-08T14:00:00	7	Dirección del viento	11.27
160551	7	Sololá	713	San Lucas Tolimán	10	San Lucas Tolimán	11	Noviembre	2023-11-21T00:00:00	2024-11-08T14:00:00	1	Precipitación	0
160552	7	Sololá	713	San Lucas Tolimán	10	San Lucas Tolimán	11	Noviembre	2023-11-21T00:00:00	2024-11-08T14:00:00	8	Radiación solar	455
160553	7	Sololá	713	San Lucas Tolimán	10	San Lucas Tolimán	11	Noviembre	2023-11-21T00:00:00	2024-11-08T15:00:00	2	Temperatura media	21
160554	7	Sololá	713	San Lucas Tolimán	10	San Lucas Tolimán	11	Noviembre	2023-11-21T00:00:00	2024-11-08T15:00:00	4	Temperatura máxima	21.2
160555	7	Sololá	713	San Lucas Tolimán	10	San Lucas Tolimán	11	Noviembre	2023-11-21T00:00:00	2024-11-08T15:00:00	3	Temperatura mínima	20.2
160556	7	Sololá	713	San Lucas Tolimán	10	San Lucas Tolimán	11	Noviembre	2023-11-21T00:00:00	2024-11-08T15:00:00	5	Humedad	56
160557	7	Sololá	713	San Lucas Tolimán	10	San Lucas Tolimán	11	Noviembre	2023-11-21T00:00:00	2024-11-08T15:00:00	6	Velocidad del viento	9.7
160558	7	Sololá	713	San Lucas Tolimán	10	San Lucas Tolimán	11	Noviembre	2023-11-21T00:00:00	2024-11-08T15:00:00	7	Dirección del viento	9.66
160559	7	Sololá	713	San Lucas Tolimán	10	San Lucas Tolimán	11	Noviembre	2023-11-21T00:00:00	2024-11-08T15:00:00	1	Precipitación	0
160560	7	Sololá	713	San Lucas Tolimán	10	San Lucas Tolimán	11	Noviembre	2023-11-21T00:00:00	2024-11-08T15:00:00	8	Radiación solar	628
160561	7	Sololá	713	San Lucas Tolimán	10	San Lucas Tolimán	11	Noviembre	2023-11-21T00:00:00	2024-11-08T16:00:00	2	Temperatura media	19
160562	7	Sololá	713	San Lucas Tolimán	10	San Lucas Tolimán	11	Noviembre	2023-11-21T00:00:00	2024-11-08T16:00:00	4	Temperatura máxima	21.1
160563	7	Sololá	713	San Lucas Tolimán	10	San Lucas Tolimán	11	Noviembre	2023-11-21T00:00:00	2024-11-08T16:00:00	3	Temperatura mínima	18.9
160564	7	Sololá	713	San Lucas Tolimán	10	San Lucas Tolimán	11	Noviembre	2023-11-21T00:00:00	2024-11-08T16:00:00	5	Humedad	63
160565	7	Sololá	713	San Lucas Tolimán	10	San Lucas Tolimán	11	Noviembre	2023-11-21T00:00:00	2024-11-08T16:00:00	6	Velocidad del viento	9.7
160566	7	Sololá	713	San Lucas Tolimán	10	San Lucas Tolimán	11	Noviembre	2023-11-21T00:00:00	2024-11-08T16:00:00	7	Dirección del viento	9.66
160567	7	Sololá	713	San Lucas Tolimán	10	San Lucas Tolimán	11	Noviembre	2023-11-21T00:00:00	2024-11-08T16:00:00	1	Precipitación	0
160568	7	Sololá	713	San Lucas Tolimán	10	San Lucas Tolimán	11	Noviembre	2023-11-21T00:00:00	2024-11-08T16:00:00	8	Radiación solar	177
160569	7	Sololá	713	San Lucas Tolimán	10	San Lucas Tolimán	11	Noviembre	2023-11-21T00:00:00	2024-11-08T17:00:00	2	Temperatura media	18.5
160570	7	Sololá	713	San Lucas Tolimán	10	San Lucas Tolimán	11	Noviembre	2023-11-21T00:00:00	2024-11-08T17:00:00	4	Temperatura máxima	18.9
160571	7	Sololá	713	San Lucas Tolimán	10	San Lucas Tolimán	11	Noviembre	2023-11-21T00:00:00	2024-11-08T17:00:00	3	Temperatura mínima	18.5
160572	7	Sololá	713	San Lucas Tolimán	10	San Lucas Tolimán	11	Noviembre	2023-11-21T00:00:00	2024-11-08T17:00:00	5	Humedad	64
160573	7	Sololá	713	San Lucas Tolimán	10	San Lucas Tolimán	11	Noviembre	2023-11-21T00:00:00	2024-11-08T17:00:00	6	Velocidad del viento	8
160574	7	Sololá	713	San Lucas Tolimán	10	San Lucas Tolimán	11	Noviembre	2023-11-21T00:00:00	2024-11-08T17:00:00	7	Dirección del viento	8.05
160575	7	Sololá	713	San Lucas Tolimán	10	San Lucas Tolimán	11	Noviembre	2023-11-21T00:00:00	2024-11-08T17:00:00	1	Precipitación	0
160576	7	Sololá	713	San Lucas Tolimán	10	San Lucas Tolimán	11	Noviembre	2023-11-21T00:00:00	2024-11-08T17:00:00	8	Radiación solar	41
160577	7	Sololá	713	San Lucas Tolimán	10	San Lucas Tolimán	11	Noviembre	2023-11-21T00:00:00	2024-11-08T18:00:00	2	Temperatura media	18.2
160578	7	Sololá	713	San Lucas Tolimán	10	San Lucas Tolimán	11	Noviembre	2023-11-21T00:00:00	2024-11-08T18:00:00	4	Temperatura máxima	18.6
160579	7	Sololá	713	San Lucas Tolimán	10	San Lucas Tolimán	11	Noviembre	2023-11-21T00:00:00	2024-11-08T18:00:00	3	Temperatura mínima	18.1
160580	7	Sololá	713	San Lucas Tolimán	10	San Lucas Tolimán	11	Noviembre	2023-11-21T00:00:00	2024-11-08T18:00:00	5	Humedad	65
160581	7	Sololá	713	San Lucas Tolimán	10	San Lucas Tolimán	11	Noviembre	2023-11-21T00:00:00	2024-11-08T18:00:00	6	Velocidad del viento	8
160582	7	Sololá	713	San Lucas Tolimán	10	San Lucas Tolimán	11	Noviembre	2023-11-21T00:00:00	2024-11-08T18:00:00	7	Dirección del viento	8.05
160583	7	Sololá	713	San Lucas Tolimán	10	San Lucas Tolimán	11	Noviembre	2023-11-21T00:00:00	2024-11-08T18:00:00	1	Precipitación	0
160584	7	Sololá	713	San Lucas Tolimán	10	San Lucas Tolimán	11	Noviembre	2023-11-21T00:00:00	2024-11-08T18:00:00	8	Radiación solar	4
160585	7	Sololá	713	San Lucas Tolimán	10	San Lucas Tolimán	11	Noviembre	2023-11-21T00:00:00	2024-11-08T19:00:00	2	Temperatura media	17.2
160586	7	Sololá	713	San Lucas Tolimán	10	San Lucas Tolimán	11	Noviembre	2023-11-21T00:00:00	2024-11-08T19:00:00	4	Temperatura máxima	18.2
160587	7	Sololá	713	San Lucas Tolimán	10	San Lucas Tolimán	11	Noviembre	2023-11-21T00:00:00	2024-11-08T19:00:00	3	Temperatura mínima	17.2
160588	7	Sololá	713	San Lucas Tolimán	10	San Lucas Tolimán	11	Noviembre	2023-11-21T00:00:00	2024-11-08T19:00:00	5	Humedad	66
160589	7	Sololá	713	San Lucas Tolimán	10	San Lucas Tolimán	11	Noviembre	2023-11-21T00:00:00	2024-11-08T19:00:00	6	Velocidad del viento	6.4
160590	7	Sololá	713	San Lucas Tolimán	10	San Lucas Tolimán	11	Noviembre	2023-11-21T00:00:00	2024-11-08T19:00:00	7	Dirección del viento	6.44
160591	7	Sololá	713	San Lucas Tolimán	10	San Lucas Tolimán	11	Noviembre	2023-11-21T00:00:00	2024-11-08T19:00:00	1	Precipitación	0
160592	7	Sololá	713	San Lucas Tolimán	10	San Lucas Tolimán	11	Noviembre	2023-11-21T00:00:00	2024-11-08T19:00:00	8	Radiación solar	0
160593	7	Sololá	713	San Lucas Tolimán	10	San Lucas Tolimán	11	Noviembre	2023-11-21T00:00:00	2024-11-08T20:00:00	2	Temperatura media	15.5
160594	7	Sololá	713	San Lucas Tolimán	10	San Lucas Tolimán	11	Noviembre	2023-11-21T00:00:00	2024-11-08T20:00:00	4	Temperatura máxima	17.2
160595	7	Sololá	713	San Lucas Tolimán	10	San Lucas Tolimán	11	Noviembre	2023-11-21T00:00:00	2024-11-08T20:00:00	3	Temperatura mínima	15.5
160596	7	Sololá	713	San Lucas Tolimán	10	San Lucas Tolimán	11	Noviembre	2023-11-21T00:00:00	2024-11-08T20:00:00	5	Humedad	61
160597	7	Sololá	713	San Lucas Tolimán	10	San Lucas Tolimán	11	Noviembre	2023-11-21T00:00:00	2024-11-08T20:00:00	6	Velocidad del viento	1.6
160598	7	Sololá	713	San Lucas Tolimán	10	San Lucas Tolimán	11	Noviembre	2023-11-21T00:00:00	2024-11-08T20:00:00	7	Dirección del viento	1.61
160599	7	Sololá	713	San Lucas Tolimán	10	San Lucas Tolimán	11	Noviembre	2023-11-21T00:00:00	2024-11-08T20:00:00	1	Precipitación	0
160600	7	Sololá	713	San Lucas Tolimán	10	San Lucas Tolimán	11	Noviembre	2023-11-21T00:00:00	2024-11-08T20:00:00	8	Radiación solar	0
160601	7	Sololá	713	San Lucas Tolimán	10	San Lucas Tolimán	11	Noviembre	2023-11-21T00:00:00	2024-11-08T21:00:00	2	Temperatura media	15.6
160602	7	Sololá	713	San Lucas Tolimán	10	San Lucas Tolimán	11	Noviembre	2023-11-21T00:00:00	2024-11-08T21:00:00	4	Temperatura máxima	15.6
160603	7	Sololá	713	San Lucas Tolimán	10	San Lucas Tolimán	11	Noviembre	2023-11-21T00:00:00	2024-11-08T21:00:00	3	Temperatura mínima	15.2
160604	7	Sololá	713	San Lucas Tolimán	10	San Lucas Tolimán	11	Noviembre	2023-11-21T00:00:00	2024-11-08T21:00:00	5	Humedad	58
160605	7	Sololá	713	San Lucas Tolimán	10	San Lucas Tolimán	11	Noviembre	2023-11-21T00:00:00	2024-11-08T21:00:00	6	Velocidad del viento	0
160606	7	Sololá	713	San Lucas Tolimán	10	San Lucas Tolimán	11	Noviembre	2023-11-21T00:00:00	2024-11-08T21:00:00	7	Dirección del viento	0
160607	7	Sololá	713	San Lucas Tolimán	10	San Lucas Tolimán	11	Noviembre	2023-11-21T00:00:00	2024-11-08T21:00:00	1	Precipitación	0
160608	7	Sololá	713	San Lucas Tolimán	10	San Lucas Tolimán	11	Noviembre	2023-11-21T00:00:00	2024-11-08T21:00:00	8	Radiación solar	0
160609	7	Sololá	713	San Lucas Tolimán	10	San Lucas Tolimán	11	Noviembre	2023-11-21T00:00:00	2024-11-08T22:00:00	2	Temperatura media	15.9
160610	7	Sololá	713	San Lucas Tolimán	10	San Lucas Tolimán	11	Noviembre	2023-11-21T00:00:00	2024-11-08T22:00:00	4	Temperatura máxima	15.9
160611	7	Sololá	713	San Lucas Tolimán	10	San Lucas Tolimán	11	Noviembre	2023-11-21T00:00:00	2024-11-08T22:00:00	3	Temperatura mínima	15.3
160612	7	Sololá	713	San Lucas Tolimán	10	San Lucas Tolimán	11	Noviembre	2023-11-21T00:00:00	2024-11-08T22:00:00	5	Humedad	54
160613	7	Sololá	713	San Lucas Tolimán	10	San Lucas Tolimán	11	Noviembre	2023-11-21T00:00:00	2024-11-08T22:00:00	6	Velocidad del viento	0
160614	7	Sololá	713	San Lucas Tolimán	10	San Lucas Tolimán	11	Noviembre	2023-11-21T00:00:00	2024-11-08T22:00:00	7	Dirección del viento	0
160615	7	Sololá	713	San Lucas Tolimán	10	San Lucas Tolimán	11	Noviembre	2023-11-21T00:00:00	2024-11-08T22:00:00	1	Precipitación	0
160616	7	Sololá	713	San Lucas Tolimán	10	San Lucas Tolimán	11	Noviembre	2023-11-21T00:00:00	2024-11-08T22:00:00	8	Radiación solar	0
160617	7	Sololá	713	San Lucas Tolimán	10	San Lucas Tolimán	11	Noviembre	2023-11-21T00:00:00	2024-11-08T23:00:00	2	Temperatura media	15.8
160618	7	Sololá	713	San Lucas Tolimán	10	San Lucas Tolimán	11	Noviembre	2023-11-21T00:00:00	2024-11-08T23:00:00	4	Temperatura máxima	16.6
160619	7	Sololá	713	San Lucas Tolimán	10	San Lucas Tolimán	11	Noviembre	2023-11-21T00:00:00	2024-11-08T23:00:00	3	Temperatura mínima	15.7
160620	7	Sololá	713	San Lucas Tolimán	10	San Lucas Tolimán	11	Noviembre	2023-11-21T00:00:00	2024-11-08T23:00:00	5	Humedad	56
160621	7	Sololá	713	San Lucas Tolimán	10	San Lucas Tolimán	11	Noviembre	2023-11-21T00:00:00	2024-11-08T23:00:00	6	Velocidad del viento	0
160622	7	Sololá	713	San Lucas Tolimán	10	San Lucas Tolimán	11	Noviembre	2023-11-21T00:00:00	2024-11-08T23:00:00	7	Dirección del viento	0
160623	7	Sololá	713	San Lucas Tolimán	10	San Lucas Tolimán	11	Noviembre	2023-11-21T00:00:00	2024-11-08T23:00:00	1	Precipitación	0
160624	7	Sololá	713	San Lucas Tolimán	10	San Lucas Tolimán	11	Noviembre	2023-11-21T00:00:00	2024-11-08T23:00:00	8	Radiación solar	0
160625	7	Sololá	713	San Lucas Tolimán	10	San Lucas Tolimán	11	Noviembre	2023-11-22T00:00:00	2024-11-08T00:00:00	2	Temperatura media	16.7
160626	7	Sololá	713	San Lucas Tolimán	10	San Lucas Tolimán	11	Noviembre	2023-11-22T00:00:00	2024-11-08T00:00:00	4	Temperatura máxima	16.7
160627	7	Sololá	713	San Lucas Tolimán	10	San Lucas Tolimán	11	Noviembre	2023-11-22T00:00:00	2024-11-08T00:00:00	3	Temperatura mínima	15.8
160628	7	Sololá	713	San Lucas Tolimán	10	San Lucas Tolimán	11	Noviembre	2023-11-22T00:00:00	2024-11-08T00:00:00	5	Humedad	52
160629	7	Sololá	713	San Lucas Tolimán	10	San Lucas Tolimán	11	Noviembre	2023-11-22T00:00:00	2024-11-08T00:00:00	6	Velocidad del viento	3.2
160630	7	Sololá	713	San Lucas Tolimán	10	San Lucas Tolimán	11	Noviembre	2023-11-22T00:00:00	2024-11-08T00:00:00	7	Dirección del viento	3.22
160631	7	Sololá	713	San Lucas Tolimán	10	San Lucas Tolimán	11	Noviembre	2023-11-22T00:00:00	2024-11-08T00:00:00	1	Precipitación	0
160632	7	Sololá	713	San Lucas Tolimán	10	San Lucas Tolimán	11	Noviembre	2023-11-22T00:00:00	2024-11-08T00:00:00	8	Radiación solar	0
160633	7	Sololá	713	San Lucas Tolimán	10	San Lucas Tolimán	11	Noviembre	2023-11-22T00:00:00	2024-11-08T01:00:00	2	Temperatura media	16.2
160634	7	Sololá	713	San Lucas Tolimán	10	San Lucas Tolimán	11	Noviembre	2023-11-22T00:00:00	2024-11-08T01:00:00	4	Temperatura máxima	16.7
160635	7	Sololá	713	San Lucas Tolimán	10	San Lucas Tolimán	11	Noviembre	2023-11-22T00:00:00	2024-11-08T01:00:00	3	Temperatura mínima	15.9
160636	7	Sololá	713	San Lucas Tolimán	10	San Lucas Tolimán	11	Noviembre	2023-11-22T00:00:00	2024-11-08T01:00:00	5	Humedad	53
160637	7	Sololá	713	San Lucas Tolimán	10	San Lucas Tolimán	11	Noviembre	2023-11-22T00:00:00	2024-11-08T01:00:00	6	Velocidad del viento	1.6
160638	7	Sololá	713	San Lucas Tolimán	10	San Lucas Tolimán	11	Noviembre	2023-11-22T00:00:00	2024-11-08T01:00:00	7	Dirección del viento	1.61
160639	7	Sololá	713	San Lucas Tolimán	10	San Lucas Tolimán	11	Noviembre	2023-11-22T00:00:00	2024-11-08T01:00:00	1	Precipitación	0
160640	7	Sololá	713	San Lucas Tolimán	10	San Lucas Tolimán	11	Noviembre	2023-11-22T00:00:00	2024-11-08T01:00:00	8	Radiación solar	0
160641	7	Sololá	713	San Lucas Tolimán	10	San Lucas Tolimán	11	Noviembre	2023-11-22T00:00:00	2024-11-08T02:00:00	2	Temperatura media	16.4
160642	7	Sololá	713	San Lucas Tolimán	10	San Lucas Tolimán	11	Noviembre	2023-11-22T00:00:00	2024-11-08T02:00:00	4	Temperatura máxima	16.4
160643	7	Sololá	713	San Lucas Tolimán	10	San Lucas Tolimán	11	Noviembre	2023-11-22T00:00:00	2024-11-08T02:00:00	3	Temperatura mínima	15.9
160644	7	Sololá	713	San Lucas Tolimán	10	San Lucas Tolimán	11	Noviembre	2023-11-22T00:00:00	2024-11-08T02:00:00	5	Humedad	52
160645	7	Sololá	713	San Lucas Tolimán	10	San Lucas Tolimán	11	Noviembre	2023-11-22T00:00:00	2024-11-08T02:00:00	6	Velocidad del viento	4.8
160646	7	Sololá	713	San Lucas Tolimán	10	San Lucas Tolimán	11	Noviembre	2023-11-22T00:00:00	2024-11-08T02:00:00	7	Dirección del viento	4.83
160647	7	Sololá	713	San Lucas Tolimán	10	San Lucas Tolimán	11	Noviembre	2023-11-22T00:00:00	2024-11-08T02:00:00	1	Precipitación	0
160648	7	Sololá	713	San Lucas Tolimán	10	San Lucas Tolimán	11	Noviembre	2023-11-22T00:00:00	2024-11-08T02:00:00	8	Radiación solar	0
160649	7	Sololá	713	San Lucas Tolimán	10	San Lucas Tolimán	11	Noviembre	2023-11-22T00:00:00	2024-11-08T03:00:00	2	Temperatura media	15.9
160650	7	Sololá	713	San Lucas Tolimán	10	San Lucas Tolimán	11	Noviembre	2023-11-22T00:00:00	2024-11-08T03:00:00	4	Temperatura máxima	16.6
160651	7	Sololá	713	San Lucas Tolimán	10	San Lucas Tolimán	11	Noviembre	2023-11-22T00:00:00	2024-11-08T03:00:00	3	Temperatura mínima	15.9
160652	7	Sololá	713	San Lucas Tolimán	10	San Lucas Tolimán	11	Noviembre	2023-11-22T00:00:00	2024-11-08T03:00:00	5	Humedad	52
160653	7	Sololá	713	San Lucas Tolimán	10	San Lucas Tolimán	11	Noviembre	2023-11-22T00:00:00	2024-11-08T03:00:00	6	Velocidad del viento	1.6
160654	7	Sololá	713	San Lucas Tolimán	10	San Lucas Tolimán	11	Noviembre	2023-11-22T00:00:00	2024-11-08T03:00:00	7	Dirección del viento	1.61
160655	7	Sololá	713	San Lucas Tolimán	10	San Lucas Tolimán	11	Noviembre	2023-11-22T00:00:00	2024-11-08T03:00:00	1	Precipitación	0
160656	7	Sololá	713	San Lucas Tolimán	10	San Lucas Tolimán	11	Noviembre	2023-11-22T00:00:00	2024-11-08T03:00:00	8	Radiación solar	0
160657	7	Sololá	713	San Lucas Tolimán	10	San Lucas Tolimán	11	Noviembre	2023-11-22T00:00:00	2024-11-08T04:00:00	2	Temperatura media	17
160658	7	Sololá	713	San Lucas Tolimán	10	San Lucas Tolimán	11	Noviembre	2023-11-22T00:00:00	2024-11-08T04:00:00	4	Temperatura máxima	17.1
160659	7	Sololá	713	San Lucas Tolimán	10	San Lucas Tolimán	11	Noviembre	2023-11-22T00:00:00	2024-11-08T04:00:00	3	Temperatura mínima	15.2
160660	7	Sololá	713	San Lucas Tolimán	10	San Lucas Tolimán	11	Noviembre	2023-11-22T00:00:00	2024-11-08T04:00:00	5	Humedad	48
160661	7	Sololá	713	San Lucas Tolimán	10	San Lucas Tolimán	11	Noviembre	2023-11-22T00:00:00	2024-11-08T04:00:00	6	Velocidad del viento	1.6
160662	7	Sololá	713	San Lucas Tolimán	10	San Lucas Tolimán	11	Noviembre	2023-11-22T00:00:00	2024-11-08T04:00:00	7	Dirección del viento	1.61
160663	7	Sololá	713	San Lucas Tolimán	10	San Lucas Tolimán	11	Noviembre	2023-11-22T00:00:00	2024-11-08T04:00:00	1	Precipitación	0
160664	7	Sololá	713	San Lucas Tolimán	10	San Lucas Tolimán	11	Noviembre	2023-11-22T00:00:00	2024-11-08T04:00:00	8	Radiación solar	0
160665	7	Sololá	713	San Lucas Tolimán	10	San Lucas Tolimán	11	Noviembre	2023-11-22T00:00:00	2024-11-08T05:00:00	2	Temperatura media	17.9
160666	7	Sololá	713	San Lucas Tolimán	10	San Lucas Tolimán	11	Noviembre	2023-11-22T00:00:00	2024-11-08T05:00:00	4	Temperatura máxima	17.9
160667	7	Sololá	713	San Lucas Tolimán	10	San Lucas Tolimán	11	Noviembre	2023-11-22T00:00:00	2024-11-08T05:00:00	3	Temperatura mínima	16.9
160668	7	Sololá	713	San Lucas Tolimán	10	San Lucas Tolimán	11	Noviembre	2023-11-22T00:00:00	2024-11-08T05:00:00	5	Humedad	44
160669	7	Sololá	713	San Lucas Tolimán	10	San Lucas Tolimán	11	Noviembre	2023-11-22T00:00:00	2024-11-08T05:00:00	6	Velocidad del viento	3.2
160670	7	Sololá	713	San Lucas Tolimán	10	San Lucas Tolimán	11	Noviembre	2023-11-22T00:00:00	2024-11-08T05:00:00	7	Dirección del viento	3.22
160671	7	Sololá	713	San Lucas Tolimán	10	San Lucas Tolimán	11	Noviembre	2023-11-22T00:00:00	2024-11-08T05:00:00	1	Precipitación	0
160672	7	Sololá	713	San Lucas Tolimán	10	San Lucas Tolimán	11	Noviembre	2023-11-22T00:00:00	2024-11-08T05:00:00	8	Radiación solar	0
160673	7	Sololá	713	San Lucas Tolimán	10	San Lucas Tolimán	11	Noviembre	2023-11-22T00:00:00	2024-11-08T06:00:00	2	Temperatura media	15.7
160674	7	Sololá	713	San Lucas Tolimán	10	San Lucas Tolimán	11	Noviembre	2023-11-22T00:00:00	2024-11-08T06:00:00	4	Temperatura máxima	17.9
160675	7	Sololá	713	San Lucas Tolimán	10	San Lucas Tolimán	11	Noviembre	2023-11-22T00:00:00	2024-11-08T06:00:00	3	Temperatura mínima	15.7
160676	7	Sololá	713	San Lucas Tolimán	10	San Lucas Tolimán	11	Noviembre	2023-11-22T00:00:00	2024-11-08T06:00:00	5	Humedad	54
160677	7	Sololá	713	San Lucas Tolimán	10	San Lucas Tolimán	11	Noviembre	2023-11-22T00:00:00	2024-11-08T06:00:00	6	Velocidad del viento	1.6
160678	7	Sololá	713	San Lucas Tolimán	10	San Lucas Tolimán	11	Noviembre	2023-11-22T00:00:00	2024-11-08T06:00:00	7	Dirección del viento	1.61
160679	7	Sololá	713	San Lucas Tolimán	10	San Lucas Tolimán	11	Noviembre	2023-11-22T00:00:00	2024-11-08T06:00:00	1	Precipitación	0
160680	7	Sololá	713	San Lucas Tolimán	10	San Lucas Tolimán	11	Noviembre	2023-11-22T00:00:00	2024-11-08T06:00:00	8	Radiación solar	0
160681	7	Sololá	713	San Lucas Tolimán	10	San Lucas Tolimán	11	Noviembre	2023-11-22T00:00:00	2024-11-08T07:00:00	2	Temperatura media	16.6
160682	7	Sololá	713	San Lucas Tolimán	10	San Lucas Tolimán	11	Noviembre	2023-11-22T00:00:00	2024-11-08T07:00:00	4	Temperatura máxima	16.6
160683	7	Sololá	713	San Lucas Tolimán	10	San Lucas Tolimán	11	Noviembre	2023-11-22T00:00:00	2024-11-08T07:00:00	3	Temperatura mínima	15.1
160684	7	Sololá	713	San Lucas Tolimán	10	San Lucas Tolimán	11	Noviembre	2023-11-22T00:00:00	2024-11-08T07:00:00	5	Humedad	52
160685	7	Sololá	713	San Lucas Tolimán	10	San Lucas Tolimán	11	Noviembre	2023-11-22T00:00:00	2024-11-08T07:00:00	6	Velocidad del viento	1.6
160686	7	Sololá	713	San Lucas Tolimán	10	San Lucas Tolimán	11	Noviembre	2023-11-22T00:00:00	2024-11-08T07:00:00	7	Dirección del viento	1.61
160687	7	Sololá	713	San Lucas Tolimán	10	San Lucas Tolimán	11	Noviembre	2023-11-22T00:00:00	2024-11-08T07:00:00	1	Precipitación	0
160688	7	Sololá	713	San Lucas Tolimán	10	San Lucas Tolimán	11	Noviembre	2023-11-22T00:00:00	2024-11-08T07:00:00	8	Radiación solar	9
160689	7	Sololá	713	San Lucas Tolimán	10	San Lucas Tolimán	11	Noviembre	2023-11-22T00:00:00	2024-11-08T08:00:00	2	Temperatura media	18.3
160690	7	Sololá	713	San Lucas Tolimán	10	San Lucas Tolimán	11	Noviembre	2023-11-22T00:00:00	2024-11-08T08:00:00	4	Temperatura máxima	18.3
160691	7	Sololá	713	San Lucas Tolimán	10	San Lucas Tolimán	11	Noviembre	2023-11-22T00:00:00	2024-11-08T08:00:00	3	Temperatura mínima	16.6
160692	7	Sololá	713	San Lucas Tolimán	10	San Lucas Tolimán	11	Noviembre	2023-11-22T00:00:00	2024-11-08T08:00:00	5	Humedad	48
160693	7	Sololá	713	San Lucas Tolimán	10	San Lucas Tolimán	11	Noviembre	2023-11-22T00:00:00	2024-11-08T08:00:00	6	Velocidad del viento	0
160694	7	Sololá	713	San Lucas Tolimán	10	San Lucas Tolimán	11	Noviembre	2023-11-22T00:00:00	2024-11-08T08:00:00	7	Dirección del viento	0
160695	7	Sololá	713	San Lucas Tolimán	10	San Lucas Tolimán	11	Noviembre	2023-11-22T00:00:00	2024-11-08T08:00:00	1	Precipitación	0
160696	7	Sololá	713	San Lucas Tolimán	10	San Lucas Tolimán	11	Noviembre	2023-11-22T00:00:00	2024-11-08T08:00:00	8	Radiación solar	40
160697	7	Sololá	713	San Lucas Tolimán	10	San Lucas Tolimán	11	Noviembre	2023-11-22T00:00:00	2024-11-08T09:00:00	2	Temperatura media	22.1
160698	7	Sololá	713	San Lucas Tolimán	10	San Lucas Tolimán	11	Noviembre	2023-11-22T00:00:00	2024-11-08T09:00:00	4	Temperatura máxima	23.1
160699	7	Sololá	713	San Lucas Tolimán	10	San Lucas Tolimán	11	Noviembre	2023-11-22T00:00:00	2024-11-08T09:00:00	3	Temperatura mínima	18.3
160700	7	Sololá	713	San Lucas Tolimán	10	San Lucas Tolimán	11	Noviembre	2023-11-22T00:00:00	2024-11-08T09:00:00	5	Humedad	51
160701	7	Sololá	713	San Lucas Tolimán	10	San Lucas Tolimán	11	Noviembre	2023-11-22T00:00:00	2024-11-08T09:00:00	6	Velocidad del viento	1.6
160702	7	Sololá	713	San Lucas Tolimán	10	San Lucas Tolimán	11	Noviembre	2023-11-22T00:00:00	2024-11-08T09:00:00	7	Dirección del viento	1.61
160703	7	Sololá	713	San Lucas Tolimán	10	San Lucas Tolimán	11	Noviembre	2023-11-22T00:00:00	2024-11-08T09:00:00	1	Precipitación	0
160704	7	Sololá	713	San Lucas Tolimán	10	San Lucas Tolimán	11	Noviembre	2023-11-22T00:00:00	2024-11-08T09:00:00	8	Radiación solar	388
160705	7	Sololá	713	San Lucas Tolimán	10	San Lucas Tolimán	11	Noviembre	2023-11-22T00:00:00	2024-11-08T10:00:00	2	Temperatura media	24.3
160706	7	Sololá	713	San Lucas Tolimán	10	San Lucas Tolimán	11	Noviembre	2023-11-22T00:00:00	2024-11-08T10:00:00	4	Temperatura máxima	24.3
160707	7	Sololá	713	San Lucas Tolimán	10	San Lucas Tolimán	11	Noviembre	2023-11-22T00:00:00	2024-11-08T10:00:00	3	Temperatura mínima	21.9
160708	7	Sololá	713	San Lucas Tolimán	10	San Lucas Tolimán	11	Noviembre	2023-11-22T00:00:00	2024-11-08T10:00:00	5	Humedad	44
160709	7	Sololá	713	San Lucas Tolimán	10	San Lucas Tolimán	11	Noviembre	2023-11-22T00:00:00	2024-11-08T10:00:00	6	Velocidad del viento	3.2
160710	7	Sololá	713	San Lucas Tolimán	10	San Lucas Tolimán	11	Noviembre	2023-11-22T00:00:00	2024-11-08T10:00:00	7	Dirección del viento	3.22
160711	7	Sololá	713	San Lucas Tolimán	10	San Lucas Tolimán	11	Noviembre	2023-11-22T00:00:00	2024-11-08T10:00:00	1	Precipitación	0
160712	7	Sololá	713	San Lucas Tolimán	10	San Lucas Tolimán	11	Noviembre	2023-11-22T00:00:00	2024-11-08T10:00:00	8	Radiación solar	662
160713	7	Sololá	713	San Lucas Tolimán	10	San Lucas Tolimán	11	Noviembre	2023-11-22T00:00:00	2024-11-08T11:00:00	2	Temperatura media	23.9
160714	7	Sololá	713	San Lucas Tolimán	10	San Lucas Tolimán	11	Noviembre	2023-11-22T00:00:00	2024-11-08T11:00:00	4	Temperatura máxima	24.8
160715	7	Sololá	713	San Lucas Tolimán	10	San Lucas Tolimán	11	Noviembre	2023-11-22T00:00:00	2024-11-08T11:00:00	3	Temperatura mínima	23.9
160716	7	Sololá	713	San Lucas Tolimán	10	San Lucas Tolimán	11	Noviembre	2023-11-22T00:00:00	2024-11-08T11:00:00	5	Humedad	51
160717	7	Sololá	713	San Lucas Tolimán	10	San Lucas Tolimán	11	Noviembre	2023-11-22T00:00:00	2024-11-08T11:00:00	6	Velocidad del viento	8
160718	7	Sololá	713	San Lucas Tolimán	10	San Lucas Tolimán	11	Noviembre	2023-11-22T00:00:00	2024-11-08T11:00:00	7	Dirección del viento	8.05
160719	7	Sololá	713	San Lucas Tolimán	10	San Lucas Tolimán	11	Noviembre	2023-11-22T00:00:00	2024-11-08T11:00:00	1	Precipitación	0
160720	7	Sololá	713	San Lucas Tolimán	10	San Lucas Tolimán	11	Noviembre	2023-11-22T00:00:00	2024-11-08T11:00:00	8	Radiación solar	710
160721	7	Sololá	713	San Lucas Tolimán	10	San Lucas Tolimán	11	Noviembre	2023-11-22T00:00:00	2024-11-08T12:00:00	2	Temperatura media	22.3
160722	7	Sololá	713	San Lucas Tolimán	10	San Lucas Tolimán	11	Noviembre	2023-11-22T00:00:00	2024-11-08T12:00:00	4	Temperatura máxima	23.9
160723	7	Sololá	713	San Lucas Tolimán	10	San Lucas Tolimán	11	Noviembre	2023-11-22T00:00:00	2024-11-08T12:00:00	3	Temperatura mínima	21.8
160724	7	Sololá	713	San Lucas Tolimán	10	San Lucas Tolimán	11	Noviembre	2023-11-22T00:00:00	2024-11-08T12:00:00	5	Humedad	57
160725	7	Sololá	713	San Lucas Tolimán	10	San Lucas Tolimán	11	Noviembre	2023-11-22T00:00:00	2024-11-08T12:00:00	6	Velocidad del viento	8
160726	7	Sololá	713	San Lucas Tolimán	10	San Lucas Tolimán	11	Noviembre	2023-11-22T00:00:00	2024-11-08T12:00:00	7	Dirección del viento	8.05
160727	7	Sololá	713	San Lucas Tolimán	10	San Lucas Tolimán	11	Noviembre	2023-11-22T00:00:00	2024-11-08T12:00:00	1	Precipitación	0
160728	7	Sololá	713	San Lucas Tolimán	10	San Lucas Tolimán	11	Noviembre	2023-11-22T00:00:00	2024-11-08T12:00:00	8	Radiación solar	852
160729	7	Sololá	713	San Lucas Tolimán	10	San Lucas Tolimán	11	Noviembre	2023-11-22T00:00:00	2024-11-08T13:00:00	2	Temperatura media	21.3
160730	7	Sololá	713	San Lucas Tolimán	10	San Lucas Tolimán	11	Noviembre	2023-11-22T00:00:00	2024-11-08T13:00:00	4	Temperatura máxima	22.4
160731	7	Sololá	713	San Lucas Tolimán	10	San Lucas Tolimán	11	Noviembre	2023-11-22T00:00:00	2024-11-08T13:00:00	3	Temperatura mínima	21.3
160732	7	Sololá	713	San Lucas Tolimán	10	San Lucas Tolimán	11	Noviembre	2023-11-22T00:00:00	2024-11-08T13:00:00	5	Humedad	60
160733	7	Sololá	713	San Lucas Tolimán	10	San Lucas Tolimán	11	Noviembre	2023-11-22T00:00:00	2024-11-08T13:00:00	6	Velocidad del viento	9.7
160734	7	Sololá	713	San Lucas Tolimán	10	San Lucas Tolimán	11	Noviembre	2023-11-22T00:00:00	2024-11-08T13:00:00	7	Dirección del viento	9.66
160735	7	Sololá	713	San Lucas Tolimán	10	San Lucas Tolimán	11	Noviembre	2023-11-22T00:00:00	2024-11-08T13:00:00	1	Precipitación	0
160736	7	Sololá	713	San Lucas Tolimán	10	San Lucas Tolimán	11	Noviembre	2023-11-22T00:00:00	2024-11-08T13:00:00	8	Radiación solar	598
160737	7	Sololá	713	San Lucas Tolimán	10	San Lucas Tolimán	11	Noviembre	2023-11-22T00:00:00	2024-11-08T14:00:00	2	Temperatura media	20.3
160738	7	Sololá	713	San Lucas Tolimán	10	San Lucas Tolimán	11	Noviembre	2023-11-22T00:00:00	2024-11-08T14:00:00	4	Temperatura máxima	21.9
160739	7	Sololá	713	San Lucas Tolimán	10	San Lucas Tolimán	11	Noviembre	2023-11-22T00:00:00	2024-11-08T14:00:00	3	Temperatura mínima	20.3
160740	7	Sololá	713	San Lucas Tolimán	10	San Lucas Tolimán	11	Noviembre	2023-11-22T00:00:00	2024-11-08T14:00:00	5	Humedad	59
160741	7	Sololá	713	San Lucas Tolimán	10	San Lucas Tolimán	11	Noviembre	2023-11-22T00:00:00	2024-11-08T14:00:00	6	Velocidad del viento	9.7
160742	7	Sololá	713	San Lucas Tolimán	10	San Lucas Tolimán	11	Noviembre	2023-11-22T00:00:00	2024-11-08T14:00:00	7	Dirección del viento	9.66
160743	7	Sololá	713	San Lucas Tolimán	10	San Lucas Tolimán	11	Noviembre	2023-11-22T00:00:00	2024-11-08T14:00:00	1	Precipitación	0
160744	7	Sololá	713	San Lucas Tolimán	10	San Lucas Tolimán	11	Noviembre	2023-11-22T00:00:00	2024-11-08T14:00:00	8	Radiación solar	404
160745	7	Sololá	713	San Lucas Tolimán	10	San Lucas Tolimán	11	Noviembre	2023-11-22T00:00:00	2024-11-08T15:00:00	2	Temperatura media	20.3
160746	7	Sololá	713	San Lucas Tolimán	10	San Lucas Tolimán	11	Noviembre	2023-11-22T00:00:00	2024-11-08T15:00:00	4	Temperatura máxima	20.4
160747	7	Sololá	713	San Lucas Tolimán	10	San Lucas Tolimán	11	Noviembre	2023-11-22T00:00:00	2024-11-08T15:00:00	3	Temperatura mínima	19.6
160748	7	Sololá	713	San Lucas Tolimán	10	San Lucas Tolimán	11	Noviembre	2023-11-22T00:00:00	2024-11-08T15:00:00	5	Humedad	57
160749	7	Sololá	713	San Lucas Tolimán	10	San Lucas Tolimán	11	Noviembre	2023-11-22T00:00:00	2024-11-08T15:00:00	6	Velocidad del viento	9.7
160750	7	Sololá	713	San Lucas Tolimán	10	San Lucas Tolimán	11	Noviembre	2023-11-22T00:00:00	2024-11-08T15:00:00	7	Dirección del viento	9.66
160751	7	Sololá	713	San Lucas Tolimán	10	San Lucas Tolimán	11	Noviembre	2023-11-22T00:00:00	2024-11-08T15:00:00	1	Precipitación	0
160752	7	Sololá	713	San Lucas Tolimán	10	San Lucas Tolimán	11	Noviembre	2023-11-22T00:00:00	2024-11-08T15:00:00	8	Radiación solar	250
160753	7	Sololá	713	San Lucas Tolimán	10	San Lucas Tolimán	11	Noviembre	2023-11-22T00:00:00	2024-11-08T16:00:00	2	Temperatura media	19.8
160754	7	Sololá	713	San Lucas Tolimán	10	San Lucas Tolimán	11	Noviembre	2023-11-22T00:00:00	2024-11-08T16:00:00	4	Temperatura máxima	20.7
160755	7	Sololá	713	San Lucas Tolimán	10	San Lucas Tolimán	11	Noviembre	2023-11-22T00:00:00	2024-11-08T16:00:00	3	Temperatura mínima	19.8
160756	7	Sololá	713	San Lucas Tolimán	10	San Lucas Tolimán	11	Noviembre	2023-11-22T00:00:00	2024-11-08T16:00:00	5	Humedad	58
160757	7	Sololá	713	San Lucas Tolimán	10	San Lucas Tolimán	11	Noviembre	2023-11-22T00:00:00	2024-11-08T16:00:00	6	Velocidad del viento	8
160758	7	Sololá	713	San Lucas Tolimán	10	San Lucas Tolimán	11	Noviembre	2023-11-22T00:00:00	2024-11-08T16:00:00	7	Dirección del viento	8.05
160759	7	Sololá	713	San Lucas Tolimán	10	San Lucas Tolimán	11	Noviembre	2023-11-22T00:00:00	2024-11-08T16:00:00	1	Precipitación	0
160760	7	Sololá	713	San Lucas Tolimán	10	San Lucas Tolimán	11	Noviembre	2023-11-22T00:00:00	2024-11-08T16:00:00	8	Radiación solar	236
160761	7	Sololá	713	San Lucas Tolimán	10	San Lucas Tolimán	11	Noviembre	2023-11-22T00:00:00	2024-11-08T17:00:00	2	Temperatura media	19.2
160762	7	Sololá	713	San Lucas Tolimán	10	San Lucas Tolimán	11	Noviembre	2023-11-22T00:00:00	2024-11-08T17:00:00	4	Temperatura máxima	19.9
160763	7	Sololá	713	San Lucas Tolimán	10	San Lucas Tolimán	11	Noviembre	2023-11-22T00:00:00	2024-11-08T17:00:00	3	Temperatura mínima	19.2
160764	7	Sololá	713	San Lucas Tolimán	10	San Lucas Tolimán	11	Noviembre	2023-11-22T00:00:00	2024-11-08T17:00:00	5	Humedad	59
160765	7	Sololá	713	San Lucas Tolimán	10	San Lucas Tolimán	11	Noviembre	2023-11-22T00:00:00	2024-11-08T17:00:00	6	Velocidad del viento	6.4
160766	7	Sololá	713	San Lucas Tolimán	10	San Lucas Tolimán	11	Noviembre	2023-11-22T00:00:00	2024-11-08T17:00:00	7	Dirección del viento	6.44
160767	7	Sololá	713	San Lucas Tolimán	10	San Lucas Tolimán	11	Noviembre	2023-11-22T00:00:00	2024-11-08T17:00:00	1	Precipitación	0
160768	7	Sololá	713	San Lucas Tolimán	10	San Lucas Tolimán	11	Noviembre	2023-11-22T00:00:00	2024-11-08T17:00:00	8	Radiación solar	83
160769	7	Sololá	713	San Lucas Tolimán	10	San Lucas Tolimán	11	Noviembre	2023-11-22T00:00:00	2024-11-08T18:00:00	2	Temperatura media	18.4
160770	7	Sololá	713	San Lucas Tolimán	10	San Lucas Tolimán	11	Noviembre	2023-11-22T00:00:00	2024-11-08T18:00:00	4	Temperatura máxima	19.3
160771	7	Sololá	713	San Lucas Tolimán	10	San Lucas Tolimán	11	Noviembre	2023-11-22T00:00:00	2024-11-08T18:00:00	3	Temperatura mínima	18.4
160772	7	Sololá	713	San Lucas Tolimán	10	San Lucas Tolimán	11	Noviembre	2023-11-22T00:00:00	2024-11-08T18:00:00	5	Humedad	58
160773	7	Sololá	713	San Lucas Tolimán	10	San Lucas Tolimán	11	Noviembre	2023-11-22T00:00:00	2024-11-08T18:00:00	6	Velocidad del viento	1.6
160774	7	Sololá	713	San Lucas Tolimán	10	San Lucas Tolimán	11	Noviembre	2023-11-22T00:00:00	2024-11-08T18:00:00	7	Dirección del viento	1.61
160775	7	Sololá	713	San Lucas Tolimán	10	San Lucas Tolimán	11	Noviembre	2023-11-22T00:00:00	2024-11-08T18:00:00	1	Precipitación	0
160776	7	Sololá	713	San Lucas Tolimán	10	San Lucas Tolimán	11	Noviembre	2023-11-22T00:00:00	2024-11-08T18:00:00	8	Radiación solar	8
160777	7	Sololá	713	San Lucas Tolimán	10	San Lucas Tolimán	11	Noviembre	2023-11-22T00:00:00	2024-11-08T19:00:00	2	Temperatura media	19.1
160778	7	Sololá	713	San Lucas Tolimán	10	San Lucas Tolimán	11	Noviembre	2023-11-22T00:00:00	2024-11-08T19:00:00	4	Temperatura máxima	19.5
160779	7	Sololá	713	San Lucas Tolimán	10	San Lucas Tolimán	11	Noviembre	2023-11-22T00:00:00	2024-11-08T19:00:00	3	Temperatura mínima	18.2
160780	7	Sololá	713	San Lucas Tolimán	10	San Lucas Tolimán	11	Noviembre	2023-11-22T00:00:00	2024-11-08T19:00:00	5	Humedad	55
160781	7	Sololá	713	San Lucas Tolimán	10	San Lucas Tolimán	11	Noviembre	2023-11-22T00:00:00	2024-11-08T19:00:00	6	Velocidad del viento	8
160782	7	Sololá	713	San Lucas Tolimán	10	San Lucas Tolimán	11	Noviembre	2023-11-22T00:00:00	2024-11-08T19:00:00	7	Dirección del viento	8.05
160783	7	Sololá	713	San Lucas Tolimán	10	San Lucas Tolimán	11	Noviembre	2023-11-22T00:00:00	2024-11-08T19:00:00	1	Precipitación	0
160784	7	Sololá	713	San Lucas Tolimán	10	San Lucas Tolimán	11	Noviembre	2023-11-22T00:00:00	2024-11-08T19:00:00	8	Radiación solar	0
160785	7	Sololá	713	San Lucas Tolimán	10	San Lucas Tolimán	11	Noviembre	2023-11-22T00:00:00	2024-11-08T20:00:00	2	Temperatura media	19
160786	7	Sololá	713	San Lucas Tolimán	10	San Lucas Tolimán	11	Noviembre	2023-11-22T00:00:00	2024-11-08T20:00:00	4	Temperatura máxima	19.4
160787	7	Sololá	713	San Lucas Tolimán	10	San Lucas Tolimán	11	Noviembre	2023-11-22T00:00:00	2024-11-08T20:00:00	3	Temperatura mínima	18.8
160788	7	Sololá	713	San Lucas Tolimán	10	San Lucas Tolimán	11	Noviembre	2023-11-22T00:00:00	2024-11-08T20:00:00	5	Humedad	54
160789	7	Sololá	713	San Lucas Tolimán	10	San Lucas Tolimán	11	Noviembre	2023-11-22T00:00:00	2024-11-08T20:00:00	6	Velocidad del viento	4.8
160790	7	Sololá	713	San Lucas Tolimán	10	San Lucas Tolimán	11	Noviembre	2023-11-22T00:00:00	2024-11-08T20:00:00	7	Dirección del viento	4.83
160791	7	Sololá	713	San Lucas Tolimán	10	San Lucas Tolimán	11	Noviembre	2023-11-22T00:00:00	2024-11-08T20:00:00	1	Precipitación	0
160792	7	Sololá	713	San Lucas Tolimán	10	San Lucas Tolimán	11	Noviembre	2023-11-22T00:00:00	2024-11-08T20:00:00	8	Radiación solar	0
160793	7	Sololá	713	San Lucas Tolimán	10	San Lucas Tolimán	11	Noviembre	2023-11-22T00:00:00	2024-11-08T21:00:00	2	Temperatura media	19.2
160794	7	Sololá	713	San Lucas Tolimán	10	San Lucas Tolimán	11	Noviembre	2023-11-22T00:00:00	2024-11-08T21:00:00	4	Temperatura máxima	19.6
160795	7	Sololá	713	San Lucas Tolimán	10	San Lucas Tolimán	11	Noviembre	2023-11-22T00:00:00	2024-11-08T21:00:00	3	Temperatura mínima	19.1
160796	7	Sololá	713	San Lucas Tolimán	10	San Lucas Tolimán	11	Noviembre	2023-11-22T00:00:00	2024-11-08T21:00:00	5	Humedad	54
160797	7	Sololá	713	San Lucas Tolimán	10	San Lucas Tolimán	11	Noviembre	2023-11-22T00:00:00	2024-11-08T21:00:00	6	Velocidad del viento	9.7
160798	7	Sololá	713	San Lucas Tolimán	10	San Lucas Tolimán	11	Noviembre	2023-11-22T00:00:00	2024-11-08T21:00:00	7	Dirección del viento	9.66
160799	7	Sololá	713	San Lucas Tolimán	10	San Lucas Tolimán	11	Noviembre	2023-11-22T00:00:00	2024-11-08T21:00:00	1	Precipitación	0
160800	7	Sololá	713	San Lucas Tolimán	10	San Lucas Tolimán	11	Noviembre	2023-11-22T00:00:00	2024-11-08T21:00:00	8	Radiación solar	0
160801	7	Sololá	713	San Lucas Tolimán	10	San Lucas Tolimán	11	Noviembre	2023-11-22T00:00:00	2024-11-08T22:00:00	2	Temperatura media	16.3
160802	7	Sololá	713	San Lucas Tolimán	10	San Lucas Tolimán	11	Noviembre	2023-11-22T00:00:00	2024-11-08T22:00:00	4	Temperatura máxima	19.2
160803	7	Sololá	713	San Lucas Tolimán	10	San Lucas Tolimán	11	Noviembre	2023-11-22T00:00:00	2024-11-08T22:00:00	3	Temperatura mínima	16.3
160804	7	Sololá	713	San Lucas Tolimán	10	San Lucas Tolimán	11	Noviembre	2023-11-22T00:00:00	2024-11-08T22:00:00	5	Humedad	60
160805	7	Sololá	713	San Lucas Tolimán	10	San Lucas Tolimán	11	Noviembre	2023-11-22T00:00:00	2024-11-08T22:00:00	6	Velocidad del viento	3.2
160806	7	Sololá	713	San Lucas Tolimán	10	San Lucas Tolimán	11	Noviembre	2023-11-22T00:00:00	2024-11-08T22:00:00	7	Dirección del viento	3.22
160807	7	Sololá	713	San Lucas Tolimán	10	San Lucas Tolimán	11	Noviembre	2023-11-22T00:00:00	2024-11-08T22:00:00	1	Precipitación	0
160808	7	Sololá	713	San Lucas Tolimán	10	San Lucas Tolimán	11	Noviembre	2023-11-22T00:00:00	2024-11-08T22:00:00	8	Radiación solar	0
160809	7	Sololá	713	San Lucas Tolimán	10	San Lucas Tolimán	11	Noviembre	2023-11-22T00:00:00	2024-11-08T23:00:00	2	Temperatura media	16.2
160810	7	Sololá	713	San Lucas Tolimán	10	San Lucas Tolimán	11	Noviembre	2023-11-22T00:00:00	2024-11-08T23:00:00	4	Temperatura máxima	16.3
160811	7	Sololá	713	San Lucas Tolimán	10	San Lucas Tolimán	11	Noviembre	2023-11-22T00:00:00	2024-11-08T23:00:00	3	Temperatura mínima	16.1
160812	7	Sololá	713	San Lucas Tolimán	10	San Lucas Tolimán	11	Noviembre	2023-11-22T00:00:00	2024-11-08T23:00:00	5	Humedad	56
160813	7	Sololá	713	San Lucas Tolimán	10	San Lucas Tolimán	11	Noviembre	2023-11-22T00:00:00	2024-11-08T23:00:00	6	Velocidad del viento	1.6
160814	7	Sololá	713	San Lucas Tolimán	10	San Lucas Tolimán	11	Noviembre	2023-11-22T00:00:00	2024-11-08T23:00:00	7	Dirección del viento	1.61
160815	7	Sololá	713	San Lucas Tolimán	10	San Lucas Tolimán	11	Noviembre	2023-11-22T00:00:00	2024-11-08T23:00:00	1	Precipitación	0
160816	7	Sololá	713	San Lucas Tolimán	10	San Lucas Tolimán	11	Noviembre	2023-11-22T00:00:00	2024-11-08T23:00:00	8	Radiación solar	0
160817	7	Sololá	713	San Lucas Tolimán	10	San Lucas Tolimán	11	Noviembre	2023-11-23T00:00:00	2024-11-08T00:00:00	2	Temperatura media	16.1
160818	7	Sololá	713	San Lucas Tolimán	10	San Lucas Tolimán	11	Noviembre	2023-11-23T00:00:00	2024-11-08T00:00:00	4	Temperatura máxima	16.4
160819	7	Sololá	713	San Lucas Tolimán	10	San Lucas Tolimán	11	Noviembre	2023-11-23T00:00:00	2024-11-08T00:00:00	3	Temperatura mínima	15.9
160820	7	Sololá	713	San Lucas Tolimán	10	San Lucas Tolimán	11	Noviembre	2023-11-23T00:00:00	2024-11-08T00:00:00	5	Humedad	57
160821	7	Sololá	713	San Lucas Tolimán	10	San Lucas Tolimán	11	Noviembre	2023-11-23T00:00:00	2024-11-08T00:00:00	6	Velocidad del viento	1.6
160822	7	Sololá	713	San Lucas Tolimán	10	San Lucas Tolimán	11	Noviembre	2023-11-23T00:00:00	2024-11-08T00:00:00	7	Dirección del viento	1.61
160823	7	Sololá	713	San Lucas Tolimán	10	San Lucas Tolimán	11	Noviembre	2023-11-23T00:00:00	2024-11-08T00:00:00	1	Precipitación	0
160824	7	Sololá	713	San Lucas Tolimán	10	San Lucas Tolimán	11	Noviembre	2023-11-23T00:00:00	2024-11-08T00:00:00	8	Radiación solar	0
160825	7	Sololá	713	San Lucas Tolimán	10	San Lucas Tolimán	11	Noviembre	2023-11-23T00:00:00	2024-11-08T01:00:00	2	Temperatura media	16
160826	7	Sololá	713	San Lucas Tolimán	10	San Lucas Tolimán	11	Noviembre	2023-11-23T00:00:00	2024-11-08T01:00:00	4	Temperatura máxima	16.3
160827	7	Sololá	713	San Lucas Tolimán	10	San Lucas Tolimán	11	Noviembre	2023-11-23T00:00:00	2024-11-08T01:00:00	3	Temperatura mínima	15.9
160828	7	Sololá	713	San Lucas Tolimán	10	San Lucas Tolimán	11	Noviembre	2023-11-23T00:00:00	2024-11-08T01:00:00	5	Humedad	61
160829	7	Sololá	713	San Lucas Tolimán	10	San Lucas Tolimán	11	Noviembre	2023-11-23T00:00:00	2024-11-08T01:00:00	6	Velocidad del viento	3.2
160830	7	Sololá	713	San Lucas Tolimán	10	San Lucas Tolimán	11	Noviembre	2023-11-23T00:00:00	2024-11-08T01:00:00	7	Dirección del viento	3.22
160831	7	Sololá	713	San Lucas Tolimán	10	San Lucas Tolimán	11	Noviembre	2023-11-23T00:00:00	2024-11-08T01:00:00	1	Precipitación	0
160832	7	Sololá	713	San Lucas Tolimán	10	San Lucas Tolimán	11	Noviembre	2023-11-23T00:00:00	2024-11-08T01:00:00	8	Radiación solar	0
160833	7	Sololá	713	San Lucas Tolimán	10	San Lucas Tolimán	11	Noviembre	2023-11-23T00:00:00	2024-11-08T02:00:00	2	Temperatura media	15.3
160834	7	Sololá	713	San Lucas Tolimán	10	San Lucas Tolimán	11	Noviembre	2023-11-23T00:00:00	2024-11-08T02:00:00	4	Temperatura máxima	16.1
160835	7	Sololá	713	San Lucas Tolimán	10	San Lucas Tolimán	11	Noviembre	2023-11-23T00:00:00	2024-11-08T02:00:00	3	Temperatura mínima	15.3
160836	7	Sololá	713	San Lucas Tolimán	10	San Lucas Tolimán	11	Noviembre	2023-11-23T00:00:00	2024-11-08T02:00:00	5	Humedad	59
160837	7	Sololá	713	San Lucas Tolimán	10	San Lucas Tolimán	11	Noviembre	2023-11-23T00:00:00	2024-11-08T02:00:00	6	Velocidad del viento	1.6
160838	7	Sololá	713	San Lucas Tolimán	10	San Lucas Tolimán	11	Noviembre	2023-11-23T00:00:00	2024-11-08T02:00:00	7	Dirección del viento	1.61
160839	7	Sololá	713	San Lucas Tolimán	10	San Lucas Tolimán	11	Noviembre	2023-11-23T00:00:00	2024-11-08T02:00:00	1	Precipitación	0
160840	7	Sololá	713	San Lucas Tolimán	10	San Lucas Tolimán	11	Noviembre	2023-11-23T00:00:00	2024-11-08T02:00:00	8	Radiación solar	0
160841	7	Sololá	713	San Lucas Tolimán	10	San Lucas Tolimán	11	Noviembre	2023-11-23T00:00:00	2024-11-08T03:00:00	2	Temperatura media	15.2
160842	7	Sololá	713	San Lucas Tolimán	10	San Lucas Tolimán	11	Noviembre	2023-11-23T00:00:00	2024-11-08T03:00:00	4	Temperatura máxima	15.3
160843	7	Sololá	713	San Lucas Tolimán	10	San Lucas Tolimán	11	Noviembre	2023-11-23T00:00:00	2024-11-08T03:00:00	3	Temperatura mínima	14.8
160844	7	Sololá	713	San Lucas Tolimán	10	San Lucas Tolimán	11	Noviembre	2023-11-23T00:00:00	2024-11-08T03:00:00	5	Humedad	57
160845	7	Sololá	713	San Lucas Tolimán	10	San Lucas Tolimán	11	Noviembre	2023-11-23T00:00:00	2024-11-08T03:00:00	6	Velocidad del viento	0
160846	7	Sololá	713	San Lucas Tolimán	10	San Lucas Tolimán	11	Noviembre	2023-11-23T00:00:00	2024-11-08T03:00:00	7	Dirección del viento	0
160847	7	Sololá	713	San Lucas Tolimán	10	San Lucas Tolimán	11	Noviembre	2023-11-23T00:00:00	2024-11-08T03:00:00	1	Precipitación	0
160848	7	Sololá	713	San Lucas Tolimán	10	San Lucas Tolimán	11	Noviembre	2023-11-23T00:00:00	2024-11-08T03:00:00	8	Radiación solar	0
160849	7	Sololá	713	San Lucas Tolimán	10	San Lucas Tolimán	11	Noviembre	2023-11-23T00:00:00	2024-11-08T04:00:00	2	Temperatura media	15.9
160850	7	Sololá	713	San Lucas Tolimán	10	San Lucas Tolimán	11	Noviembre	2023-11-23T00:00:00	2024-11-08T04:00:00	4	Temperatura máxima	15.9
160851	7	Sololá	713	San Lucas Tolimán	10	San Lucas Tolimán	11	Noviembre	2023-11-23T00:00:00	2024-11-08T04:00:00	3	Temperatura mínima	15
160852	7	Sololá	713	San Lucas Tolimán	10	San Lucas Tolimán	11	Noviembre	2023-11-23T00:00:00	2024-11-08T04:00:00	5	Humedad	55
160853	7	Sololá	713	San Lucas Tolimán	10	San Lucas Tolimán	11	Noviembre	2023-11-23T00:00:00	2024-11-08T04:00:00	6	Velocidad del viento	0
160854	7	Sololá	713	San Lucas Tolimán	10	San Lucas Tolimán	11	Noviembre	2023-11-23T00:00:00	2024-11-08T04:00:00	7	Dirección del viento	0
160855	7	Sololá	713	San Lucas Tolimán	10	San Lucas Tolimán	11	Noviembre	2023-11-23T00:00:00	2024-11-08T04:00:00	1	Precipitación	0
160856	7	Sololá	713	San Lucas Tolimán	10	San Lucas Tolimán	11	Noviembre	2023-11-23T00:00:00	2024-11-08T04:00:00	8	Radiación solar	0
160857	7	Sololá	713	San Lucas Tolimán	10	San Lucas Tolimán	11	Noviembre	2023-11-23T00:00:00	2024-11-08T05:00:00	2	Temperatura media	16.4
160858	7	Sololá	713	San Lucas Tolimán	10	San Lucas Tolimán	11	Noviembre	2023-11-23T00:00:00	2024-11-08T05:00:00	4	Temperatura máxima	17.2
160859	7	Sololá	713	San Lucas Tolimán	10	San Lucas Tolimán	11	Noviembre	2023-11-23T00:00:00	2024-11-08T05:00:00	3	Temperatura mínima	15.9
160860	7	Sololá	713	San Lucas Tolimán	10	San Lucas Tolimán	11	Noviembre	2023-11-23T00:00:00	2024-11-08T05:00:00	5	Humedad	57
160861	7	Sololá	713	San Lucas Tolimán	10	San Lucas Tolimán	11	Noviembre	2023-11-23T00:00:00	2024-11-08T05:00:00	6	Velocidad del viento	1.6
160862	7	Sololá	713	San Lucas Tolimán	10	San Lucas Tolimán	11	Noviembre	2023-11-23T00:00:00	2024-11-08T05:00:00	7	Dirección del viento	1.61
160863	7	Sololá	713	San Lucas Tolimán	10	San Lucas Tolimán	11	Noviembre	2023-11-23T00:00:00	2024-11-08T05:00:00	1	Precipitación	0
160864	7	Sololá	713	San Lucas Tolimán	10	San Lucas Tolimán	11	Noviembre	2023-11-23T00:00:00	2024-11-08T05:00:00	8	Radiación solar	0
160865	7	Sololá	713	San Lucas Tolimán	10	San Lucas Tolimán	11	Noviembre	2023-11-23T00:00:00	2024-11-08T06:00:00	2	Temperatura media	15.4
160866	7	Sololá	713	San Lucas Tolimán	10	San Lucas Tolimán	11	Noviembre	2023-11-23T00:00:00	2024-11-08T06:00:00	4	Temperatura máxima	16.4
160867	7	Sololá	713	San Lucas Tolimán	10	San Lucas Tolimán	11	Noviembre	2023-11-23T00:00:00	2024-11-08T06:00:00	3	Temperatura mínima	15.4
160868	7	Sololá	713	San Lucas Tolimán	10	San Lucas Tolimán	11	Noviembre	2023-11-23T00:00:00	2024-11-08T06:00:00	5	Humedad	59
160869	7	Sololá	713	San Lucas Tolimán	10	San Lucas Tolimán	11	Noviembre	2023-11-23T00:00:00	2024-11-08T06:00:00	6	Velocidad del viento	0
160870	7	Sololá	713	San Lucas Tolimán	10	San Lucas Tolimán	11	Noviembre	2023-11-23T00:00:00	2024-11-08T06:00:00	7	Dirección del viento	0
160871	7	Sololá	713	San Lucas Tolimán	10	San Lucas Tolimán	11	Noviembre	2023-11-23T00:00:00	2024-11-08T06:00:00	1	Precipitación	0
160872	7	Sololá	713	San Lucas Tolimán	10	San Lucas Tolimán	11	Noviembre	2023-11-23T00:00:00	2024-11-08T06:00:00	8	Radiación solar	0
160873	7	Sololá	713	San Lucas Tolimán	10	San Lucas Tolimán	11	Noviembre	2023-11-23T00:00:00	2024-11-08T07:00:00	2	Temperatura media	14.8
160874	7	Sololá	713	San Lucas Tolimán	10	San Lucas Tolimán	11	Noviembre	2023-11-23T00:00:00	2024-11-08T07:00:00	4	Temperatura máxima	15.4
160875	7	Sololá	713	San Lucas Tolimán	10	San Lucas Tolimán	11	Noviembre	2023-11-23T00:00:00	2024-11-08T07:00:00	3	Temperatura mínima	14.8
160876	7	Sololá	713	San Lucas Tolimán	10	San Lucas Tolimán	11	Noviembre	2023-11-23T00:00:00	2024-11-08T07:00:00	5	Humedad	60
160877	7	Sololá	713	San Lucas Tolimán	10	San Lucas Tolimán	11	Noviembre	2023-11-23T00:00:00	2024-11-08T07:00:00	6	Velocidad del viento	1.6
160878	7	Sololá	713	San Lucas Tolimán	10	San Lucas Tolimán	11	Noviembre	2023-11-23T00:00:00	2024-11-08T07:00:00	7	Dirección del viento	1.61
160879	7	Sololá	713	San Lucas Tolimán	10	San Lucas Tolimán	11	Noviembre	2023-11-23T00:00:00	2024-11-08T07:00:00	1	Precipitación	0
160880	7	Sololá	713	San Lucas Tolimán	10	San Lucas Tolimán	11	Noviembre	2023-11-23T00:00:00	2024-11-08T07:00:00	8	Radiación solar	9
160881	7	Sololá	713	San Lucas Tolimán	10	San Lucas Tolimán	11	Noviembre	2023-11-23T00:00:00	2024-11-08T08:00:00	2	Temperatura media	16.6
160882	7	Sololá	713	San Lucas Tolimán	10	San Lucas Tolimán	11	Noviembre	2023-11-23T00:00:00	2024-11-08T08:00:00	4	Temperatura máxima	16.6
160883	7	Sololá	713	San Lucas Tolimán	10	San Lucas Tolimán	11	Noviembre	2023-11-23T00:00:00	2024-11-08T08:00:00	3	Temperatura mínima	14.7
160884	7	Sololá	713	San Lucas Tolimán	10	San Lucas Tolimán	11	Noviembre	2023-11-23T00:00:00	2024-11-08T08:00:00	5	Humedad	57
160885	7	Sololá	713	San Lucas Tolimán	10	San Lucas Tolimán	11	Noviembre	2023-11-23T00:00:00	2024-11-08T08:00:00	6	Velocidad del viento	0
160886	7	Sololá	713	San Lucas Tolimán	10	San Lucas Tolimán	11	Noviembre	2023-11-23T00:00:00	2024-11-08T08:00:00	7	Dirección del viento	0
160887	7	Sololá	713	San Lucas Tolimán	10	San Lucas Tolimán	11	Noviembre	2023-11-23T00:00:00	2024-11-08T08:00:00	1	Precipitación	0
160888	7	Sololá	713	San Lucas Tolimán	10	San Lucas Tolimán	11	Noviembre	2023-11-23T00:00:00	2024-11-08T08:00:00	8	Radiación solar	27
160889	7	Sololá	713	San Lucas Tolimán	10	San Lucas Tolimán	11	Noviembre	2023-11-23T00:00:00	2024-11-08T09:00:00	2	Temperatura media	22.8
160890	7	Sololá	713	San Lucas Tolimán	10	San Lucas Tolimán	11	Noviembre	2023-11-23T00:00:00	2024-11-08T09:00:00	4	Temperatura máxima	22.8
160891	7	Sololá	713	San Lucas Tolimán	10	San Lucas Tolimán	11	Noviembre	2023-11-23T00:00:00	2024-11-08T09:00:00	3	Temperatura mínima	16.6
160892	7	Sololá	713	San Lucas Tolimán	10	San Lucas Tolimán	11	Noviembre	2023-11-23T00:00:00	2024-11-08T09:00:00	5	Humedad	51
160893	7	Sololá	713	San Lucas Tolimán	10	San Lucas Tolimán	11	Noviembre	2023-11-23T00:00:00	2024-11-08T09:00:00	6	Velocidad del viento	0
160894	7	Sololá	713	San Lucas Tolimán	10	San Lucas Tolimán	11	Noviembre	2023-11-23T00:00:00	2024-11-08T09:00:00	7	Dirección del viento	0
160895	7	Sololá	713	San Lucas Tolimán	10	San Lucas Tolimán	11	Noviembre	2023-11-23T00:00:00	2024-11-08T09:00:00	1	Precipitación	0
160896	7	Sololá	713	San Lucas Tolimán	10	San Lucas Tolimán	11	Noviembre	2023-11-23T00:00:00	2024-11-08T09:00:00	8	Radiación solar	397
160897	7	Sololá	713	San Lucas Tolimán	10	San Lucas Tolimán	11	Noviembre	2023-11-23T00:00:00	2024-11-08T10:00:00	2	Temperatura media	22.8
160898	7	Sololá	713	San Lucas Tolimán	10	San Lucas Tolimán	11	Noviembre	2023-11-23T00:00:00	2024-11-08T10:00:00	4	Temperatura máxima	23.4
160899	7	Sololá	713	San Lucas Tolimán	10	San Lucas Tolimán	11	Noviembre	2023-11-23T00:00:00	2024-11-08T10:00:00	3	Temperatura mínima	22.7
160900	7	Sololá	713	San Lucas Tolimán	10	San Lucas Tolimán	11	Noviembre	2023-11-23T00:00:00	2024-11-08T10:00:00	5	Humedad	55
160901	7	Sololá	713	San Lucas Tolimán	10	San Lucas Tolimán	11	Noviembre	2023-11-23T00:00:00	2024-11-08T10:00:00	6	Velocidad del viento	4.8
160902	7	Sololá	713	San Lucas Tolimán	10	San Lucas Tolimán	11	Noviembre	2023-11-23T00:00:00	2024-11-08T10:00:00	7	Dirección del viento	4.83
160903	7	Sololá	713	San Lucas Tolimán	10	San Lucas Tolimán	11	Noviembre	2023-11-23T00:00:00	2024-11-08T10:00:00	1	Precipitación	0
160904	7	Sololá	713	San Lucas Tolimán	10	San Lucas Tolimán	11	Noviembre	2023-11-23T00:00:00	2024-11-08T10:00:00	8	Radiación solar	654
160905	7	Sololá	713	San Lucas Tolimán	10	San Lucas Tolimán	11	Noviembre	2023-11-23T00:00:00	2024-11-08T11:00:00	2	Temperatura media	23
160906	7	Sololá	713	San Lucas Tolimán	10	San Lucas Tolimán	11	Noviembre	2023-11-23T00:00:00	2024-11-08T11:00:00	4	Temperatura máxima	23.3
160907	7	Sololá	713	San Lucas Tolimán	10	San Lucas Tolimán	11	Noviembre	2023-11-23T00:00:00	2024-11-08T11:00:00	3	Temperatura mínima	22.2
160908	7	Sololá	713	San Lucas Tolimán	10	San Lucas Tolimán	11	Noviembre	2023-11-23T00:00:00	2024-11-08T11:00:00	5	Humedad	56
160909	7	Sololá	713	San Lucas Tolimán	10	San Lucas Tolimán	11	Noviembre	2023-11-23T00:00:00	2024-11-08T11:00:00	6	Velocidad del viento	8
160910	7	Sololá	713	San Lucas Tolimán	10	San Lucas Tolimán	11	Noviembre	2023-11-23T00:00:00	2024-11-08T11:00:00	7	Dirección del viento	8.05
160911	7	Sololá	713	San Lucas Tolimán	10	San Lucas Tolimán	11	Noviembre	2023-11-23T00:00:00	2024-11-08T11:00:00	1	Precipitación	0
160912	7	Sololá	713	San Lucas Tolimán	10	San Lucas Tolimán	11	Noviembre	2023-11-23T00:00:00	2024-11-08T11:00:00	8	Radiación solar	809
160913	7	Sololá	713	San Lucas Tolimán	10	San Lucas Tolimán	11	Noviembre	2023-11-23T00:00:00	2024-11-08T12:00:00	2	Temperatura media	22.5
160914	7	Sololá	713	San Lucas Tolimán	10	San Lucas Tolimán	11	Noviembre	2023-11-23T00:00:00	2024-11-08T12:00:00	4	Temperatura máxima	23.6
160915	7	Sololá	713	San Lucas Tolimán	10	San Lucas Tolimán	11	Noviembre	2023-11-23T00:00:00	2024-11-08T12:00:00	3	Temperatura mínima	22.4
160916	7	Sololá	713	San Lucas Tolimán	10	San Lucas Tolimán	11	Noviembre	2023-11-23T00:00:00	2024-11-08T12:00:00	5	Humedad	59
160917	7	Sololá	713	San Lucas Tolimán	10	San Lucas Tolimán	11	Noviembre	2023-11-23T00:00:00	2024-11-08T12:00:00	6	Velocidad del viento	9.7
160918	7	Sololá	713	San Lucas Tolimán	10	San Lucas Tolimán	11	Noviembre	2023-11-23T00:00:00	2024-11-08T12:00:00	7	Dirección del viento	9.66
160919	7	Sololá	713	San Lucas Tolimán	10	San Lucas Tolimán	11	Noviembre	2023-11-23T00:00:00	2024-11-08T12:00:00	1	Precipitación	0
160920	7	Sololá	713	San Lucas Tolimán	10	San Lucas Tolimán	11	Noviembre	2023-11-23T00:00:00	2024-11-08T12:00:00	8	Radiación solar	910
160921	7	Sololá	713	San Lucas Tolimán	10	San Lucas Tolimán	11	Noviembre	2023-11-23T00:00:00	2024-11-08T13:00:00	2	Temperatura media	22.4
160922	7	Sololá	713	San Lucas Tolimán	10	San Lucas Tolimán	11	Noviembre	2023-11-23T00:00:00	2024-11-08T13:00:00	4	Temperatura máxima	23.2
160923	7	Sololá	713	San Lucas Tolimán	10	San Lucas Tolimán	11	Noviembre	2023-11-23T00:00:00	2024-11-08T13:00:00	3	Temperatura mínima	22.4
160924	7	Sololá	713	San Lucas Tolimán	10	San Lucas Tolimán	11	Noviembre	2023-11-23T00:00:00	2024-11-08T13:00:00	5	Humedad	58
160925	7	Sololá	713	San Lucas Tolimán	10	San Lucas Tolimán	11	Noviembre	2023-11-23T00:00:00	2024-11-08T13:00:00	6	Velocidad del viento	9.7
160926	7	Sololá	713	San Lucas Tolimán	10	San Lucas Tolimán	11	Noviembre	2023-11-23T00:00:00	2024-11-08T13:00:00	7	Dirección del viento	9.66
160927	7	Sololá	713	San Lucas Tolimán	10	San Lucas Tolimán	11	Noviembre	2023-11-23T00:00:00	2024-11-08T13:00:00	1	Precipitación	0
160928	7	Sololá	713	San Lucas Tolimán	10	San Lucas Tolimán	11	Noviembre	2023-11-23T00:00:00	2024-11-08T13:00:00	8	Radiación solar	900
160929	7	Sololá	713	San Lucas Tolimán	10	San Lucas Tolimán	11	Noviembre	2023-11-23T00:00:00	2024-11-08T14:00:00	2	Temperatura media	21.7
160930	7	Sololá	713	San Lucas Tolimán	10	San Lucas Tolimán	11	Noviembre	2023-11-23T00:00:00	2024-11-08T14:00:00	4	Temperatura máxima	22.6
160931	7	Sololá	713	San Lucas Tolimán	10	San Lucas Tolimán	11	Noviembre	2023-11-23T00:00:00	2024-11-08T14:00:00	3	Temperatura mínima	21.3
160932	7	Sololá	713	San Lucas Tolimán	10	San Lucas Tolimán	11	Noviembre	2023-11-23T00:00:00	2024-11-08T14:00:00	5	Humedad	59
160933	7	Sololá	713	San Lucas Tolimán	10	San Lucas Tolimán	11	Noviembre	2023-11-23T00:00:00	2024-11-08T14:00:00	6	Velocidad del viento	11.3
160934	7	Sololá	713	San Lucas Tolimán	10	San Lucas Tolimán	11	Noviembre	2023-11-23T00:00:00	2024-11-08T14:00:00	7	Dirección del viento	11.27
160935	7	Sololá	713	San Lucas Tolimán	10	San Lucas Tolimán	11	Noviembre	2023-11-23T00:00:00	2024-11-08T14:00:00	1	Precipitación	0
160936	7	Sololá	713	San Lucas Tolimán	10	San Lucas Tolimán	11	Noviembre	2023-11-23T00:00:00	2024-11-08T14:00:00	8	Radiación solar	484
160937	7	Sololá	713	San Lucas Tolimán	10	San Lucas Tolimán	11	Noviembre	2023-11-23T00:00:00	2024-11-08T15:00:00	2	Temperatura media	21.9
160938	7	Sololá	713	San Lucas Tolimán	10	San Lucas Tolimán	11	Noviembre	2023-11-23T00:00:00	2024-11-08T15:00:00	4	Temperatura máxima	22.1
160939	7	Sololá	713	San Lucas Tolimán	10	San Lucas Tolimán	11	Noviembre	2023-11-23T00:00:00	2024-11-08T15:00:00	3	Temperatura mínima	21.4
160940	7	Sololá	713	San Lucas Tolimán	10	San Lucas Tolimán	11	Noviembre	2023-11-23T00:00:00	2024-11-08T15:00:00	5	Humedad	59
160941	7	Sololá	713	San Lucas Tolimán	10	San Lucas Tolimán	11	Noviembre	2023-11-23T00:00:00	2024-11-08T15:00:00	6	Velocidad del viento	11.3
160942	7	Sololá	713	San Lucas Tolimán	10	San Lucas Tolimán	11	Noviembre	2023-11-23T00:00:00	2024-11-08T15:00:00	7	Dirección del viento	11.27
160943	7	Sololá	713	San Lucas Tolimán	10	San Lucas Tolimán	11	Noviembre	2023-11-23T00:00:00	2024-11-08T15:00:00	1	Precipitación	0
160944	7	Sololá	713	San Lucas Tolimán	10	San Lucas Tolimán	11	Noviembre	2023-11-23T00:00:00	2024-11-08T15:00:00	8	Radiación solar	561
160945	7	Sololá	713	San Lucas Tolimán	10	San Lucas Tolimán	11	Noviembre	2023-11-23T00:00:00	2024-11-08T16:00:00	2	Temperatura media	21.1
160946	7	Sololá	713	San Lucas Tolimán	10	San Lucas Tolimán	11	Noviembre	2023-11-23T00:00:00	2024-11-08T16:00:00	4	Temperatura máxima	21.9
160947	7	Sololá	713	San Lucas Tolimán	10	San Lucas Tolimán	11	Noviembre	2023-11-23T00:00:00	2024-11-08T16:00:00	3	Temperatura mínima	21.1
160948	7	Sololá	713	San Lucas Tolimán	10	San Lucas Tolimán	11	Noviembre	2023-11-23T00:00:00	2024-11-08T16:00:00	5	Humedad	61
160949	7	Sololá	713	San Lucas Tolimán	10	San Lucas Tolimán	11	Noviembre	2023-11-23T00:00:00	2024-11-08T16:00:00	6	Velocidad del viento	9.7
160950	7	Sololá	713	San Lucas Tolimán	10	San Lucas Tolimán	11	Noviembre	2023-11-23T00:00:00	2024-11-08T16:00:00	7	Dirección del viento	9.66
160951	7	Sololá	713	San Lucas Tolimán	10	San Lucas Tolimán	11	Noviembre	2023-11-23T00:00:00	2024-11-08T16:00:00	1	Precipitación	0
160952	7	Sololá	713	San Lucas Tolimán	10	San Lucas Tolimán	11	Noviembre	2023-11-23T00:00:00	2024-11-08T16:00:00	8	Radiación solar	324
160953	7	Sololá	713	San Lucas Tolimán	10	San Lucas Tolimán	11	Noviembre	2023-11-23T00:00:00	2024-11-08T17:00:00	2	Temperatura media	19.6
160954	7	Sololá	713	San Lucas Tolimán	10	San Lucas Tolimán	11	Noviembre	2023-11-23T00:00:00	2024-11-08T17:00:00	4	Temperatura máxima	21.1
160955	7	Sololá	713	San Lucas Tolimán	10	San Lucas Tolimán	11	Noviembre	2023-11-23T00:00:00	2024-11-08T17:00:00	3	Temperatura mínima	19.6
160956	7	Sololá	713	San Lucas Tolimán	10	San Lucas Tolimán	11	Noviembre	2023-11-23T00:00:00	2024-11-08T17:00:00	5	Humedad	59
160957	7	Sololá	713	San Lucas Tolimán	10	San Lucas Tolimán	11	Noviembre	2023-11-23T00:00:00	2024-11-08T17:00:00	6	Velocidad del viento	9.7
160958	7	Sololá	713	San Lucas Tolimán	10	San Lucas Tolimán	11	Noviembre	2023-11-23T00:00:00	2024-11-08T17:00:00	7	Dirección del viento	9.66
160959	7	Sololá	713	San Lucas Tolimán	10	San Lucas Tolimán	11	Noviembre	2023-11-23T00:00:00	2024-11-08T17:00:00	1	Precipitación	0
160960	7	Sololá	713	San Lucas Tolimán	10	San Lucas Tolimán	11	Noviembre	2023-11-23T00:00:00	2024-11-08T17:00:00	8	Radiación solar	65
160961	7	Sololá	713	San Lucas Tolimán	10	San Lucas Tolimán	11	Noviembre	2023-11-23T00:00:00	2024-11-08T18:00:00	2	Temperatura media	18.8
160962	7	Sololá	713	San Lucas Tolimán	10	San Lucas Tolimán	11	Noviembre	2023-11-23T00:00:00	2024-11-08T18:00:00	4	Temperatura máxima	19.6
160963	7	Sololá	713	San Lucas Tolimán	10	San Lucas Tolimán	11	Noviembre	2023-11-23T00:00:00	2024-11-08T18:00:00	3	Temperatura mínima	18.7
160964	7	Sololá	713	San Lucas Tolimán	10	San Lucas Tolimán	11	Noviembre	2023-11-23T00:00:00	2024-11-08T18:00:00	5	Humedad	60
160965	7	Sololá	713	San Lucas Tolimán	10	San Lucas Tolimán	11	Noviembre	2023-11-23T00:00:00	2024-11-08T18:00:00	6	Velocidad del viento	8
160966	7	Sololá	713	San Lucas Tolimán	10	San Lucas Tolimán	11	Noviembre	2023-11-23T00:00:00	2024-11-08T18:00:00	7	Dirección del viento	8.05
160967	7	Sololá	713	San Lucas Tolimán	10	San Lucas Tolimán	11	Noviembre	2023-11-23T00:00:00	2024-11-08T18:00:00	1	Precipitación	0
160968	7	Sololá	713	San Lucas Tolimán	10	San Lucas Tolimán	11	Noviembre	2023-11-23T00:00:00	2024-11-08T18:00:00	8	Radiación solar	8
160969	7	Sololá	713	San Lucas Tolimán	10	San Lucas Tolimán	11	Noviembre	2023-11-23T00:00:00	2024-11-08T19:00:00	2	Temperatura media	18.4
160970	7	Sololá	713	San Lucas Tolimán	10	San Lucas Tolimán	11	Noviembre	2023-11-23T00:00:00	2024-11-08T19:00:00	4	Temperatura máxima	18.8
160971	7	Sololá	713	San Lucas Tolimán	10	San Lucas Tolimán	11	Noviembre	2023-11-23T00:00:00	2024-11-08T19:00:00	3	Temperatura mínima	18.4
160972	7	Sololá	713	San Lucas Tolimán	10	San Lucas Tolimán	11	Noviembre	2023-11-23T00:00:00	2024-11-08T19:00:00	5	Humedad	61
160973	7	Sololá	713	San Lucas Tolimán	10	San Lucas Tolimán	11	Noviembre	2023-11-23T00:00:00	2024-11-08T19:00:00	6	Velocidad del viento	4.8
160974	7	Sololá	713	San Lucas Tolimán	10	San Lucas Tolimán	11	Noviembre	2023-11-23T00:00:00	2024-11-08T19:00:00	7	Dirección del viento	4.83
160975	7	Sololá	713	San Lucas Tolimán	10	San Lucas Tolimán	11	Noviembre	2023-11-23T00:00:00	2024-11-08T19:00:00	1	Precipitación	0
160976	7	Sololá	713	San Lucas Tolimán	10	San Lucas Tolimán	11	Noviembre	2023-11-23T00:00:00	2024-11-08T19:00:00	8	Radiación solar	0
160977	7	Sololá	713	San Lucas Tolimán	10	San Lucas Tolimán	11	Noviembre	2023-11-23T00:00:00	2024-11-08T20:00:00	2	Temperatura media	17.8
160978	7	Sololá	713	San Lucas Tolimán	10	San Lucas Tolimán	11	Noviembre	2023-11-23T00:00:00	2024-11-08T20:00:00	4	Temperatura máxima	18.4
160979	7	Sololá	713	San Lucas Tolimán	10	San Lucas Tolimán	11	Noviembre	2023-11-23T00:00:00	2024-11-08T20:00:00	3	Temperatura mínima	17.6
160980	7	Sololá	713	San Lucas Tolimán	10	San Lucas Tolimán	11	Noviembre	2023-11-23T00:00:00	2024-11-08T20:00:00	5	Humedad	56
160981	7	Sololá	713	San Lucas Tolimán	10	San Lucas Tolimán	11	Noviembre	2023-11-23T00:00:00	2024-11-08T20:00:00	6	Velocidad del viento	1.6
160982	7	Sololá	713	San Lucas Tolimán	10	San Lucas Tolimán	11	Noviembre	2023-11-23T00:00:00	2024-11-08T20:00:00	7	Dirección del viento	1.61
160983	7	Sololá	713	San Lucas Tolimán	10	San Lucas Tolimán	11	Noviembre	2023-11-23T00:00:00	2024-11-08T20:00:00	1	Precipitación	0
160984	7	Sololá	713	San Lucas Tolimán	10	San Lucas Tolimán	11	Noviembre	2023-11-23T00:00:00	2024-11-08T20:00:00	8	Radiación solar	0
160985	7	Sololá	713	San Lucas Tolimán	10	San Lucas Tolimán	11	Noviembre	2023-11-23T00:00:00	2024-11-08T21:00:00	2	Temperatura media	17.9
160986	7	Sololá	713	San Lucas Tolimán	10	San Lucas Tolimán	11	Noviembre	2023-11-23T00:00:00	2024-11-08T21:00:00	4	Temperatura máxima	18.1
160987	7	Sololá	713	San Lucas Tolimán	10	San Lucas Tolimán	11	Noviembre	2023-11-23T00:00:00	2024-11-08T21:00:00	3	Temperatura mínima	17.7
160988	7	Sololá	713	San Lucas Tolimán	10	San Lucas Tolimán	11	Noviembre	2023-11-23T00:00:00	2024-11-08T21:00:00	5	Humedad	55
160989	7	Sololá	713	San Lucas Tolimán	10	San Lucas Tolimán	11	Noviembre	2023-11-23T00:00:00	2024-11-08T21:00:00	6	Velocidad del viento	0
160990	7	Sololá	713	San Lucas Tolimán	10	San Lucas Tolimán	11	Noviembre	2023-11-23T00:00:00	2024-11-08T21:00:00	7	Dirección del viento	0
160991	7	Sololá	713	San Lucas Tolimán	10	San Lucas Tolimán	11	Noviembre	2023-11-23T00:00:00	2024-11-08T21:00:00	1	Precipitación	0
160992	7	Sololá	713	San Lucas Tolimán	10	San Lucas Tolimán	11	Noviembre	2023-11-23T00:00:00	2024-11-08T21:00:00	8	Radiación solar	0
160993	7	Sololá	713	San Lucas Tolimán	10	San Lucas Tolimán	11	Noviembre	2023-11-23T00:00:00	2024-11-08T22:00:00	2	Temperatura media	18.2
160994	7	Sololá	713	San Lucas Tolimán	10	San Lucas Tolimán	11	Noviembre	2023-11-23T00:00:00	2024-11-08T22:00:00	4	Temperatura máxima	18.2
160995	7	Sololá	713	San Lucas Tolimán	10	San Lucas Tolimán	11	Noviembre	2023-11-23T00:00:00	2024-11-08T22:00:00	3	Temperatura mínima	17.8
160996	7	Sololá	713	San Lucas Tolimán	10	San Lucas Tolimán	11	Noviembre	2023-11-23T00:00:00	2024-11-08T22:00:00	5	Humedad	56
160997	7	Sololá	713	San Lucas Tolimán	10	San Lucas Tolimán	11	Noviembre	2023-11-23T00:00:00	2024-11-08T22:00:00	6	Velocidad del viento	1.6
160998	7	Sololá	713	San Lucas Tolimán	10	San Lucas Tolimán	11	Noviembre	2023-11-23T00:00:00	2024-11-08T22:00:00	7	Dirección del viento	1.61
160999	7	Sololá	713	San Lucas Tolimán	10	San Lucas Tolimán	11	Noviembre	2023-11-23T00:00:00	2024-11-08T22:00:00	1	Precipitación	0
161000	7	Sololá	713	San Lucas Tolimán	10	San Lucas Tolimán	11	Noviembre	2023-11-23T00:00:00	2024-11-08T22:00:00	8	Radiación solar	0
161001	7	Sololá	713	San Lucas Tolimán	10	San Lucas Tolimán	11	Noviembre	2023-11-23T00:00:00	2024-11-08T23:00:00	2	Temperatura media	17.5
161002	7	Sololá	713	San Lucas Tolimán	10	San Lucas Tolimán	11	Noviembre	2023-11-23T00:00:00	2024-11-08T23:00:00	4	Temperatura máxima	18.2
161003	7	Sololá	713	San Lucas Tolimán	10	San Lucas Tolimán	11	Noviembre	2023-11-23T00:00:00	2024-11-08T23:00:00	3	Temperatura mínima	17.5
161004	7	Sololá	713	San Lucas Tolimán	10	San Lucas Tolimán	11	Noviembre	2023-11-23T00:00:00	2024-11-08T23:00:00	5	Humedad	57
161005	7	Sololá	713	San Lucas Tolimán	10	San Lucas Tolimán	11	Noviembre	2023-11-23T00:00:00	2024-11-08T23:00:00	6	Velocidad del viento	0
161006	7	Sololá	713	San Lucas Tolimán	10	San Lucas Tolimán	11	Noviembre	2023-11-23T00:00:00	2024-11-08T23:00:00	7	Dirección del viento	0
161007	7	Sololá	713	San Lucas Tolimán	10	San Lucas Tolimán	11	Noviembre	2023-11-23T00:00:00	2024-11-08T23:00:00	1	Precipitación	0
161008	7	Sololá	713	San Lucas Tolimán	10	San Lucas Tolimán	11	Noviembre	2023-11-23T00:00:00	2024-11-08T23:00:00	8	Radiación solar	0
161009	7	Sololá	713	San Lucas Tolimán	10	San Lucas Tolimán	11	Noviembre	2023-11-24T00:00:00	2024-11-08T00:00:00	2	Temperatura media	16.5
161010	7	Sololá	713	San Lucas Tolimán	10	San Lucas Tolimán	11	Noviembre	2023-11-24T00:00:00	2024-11-08T00:00:00	4	Temperatura máxima	17.6
161011	7	Sololá	713	San Lucas Tolimán	10	San Lucas Tolimán	11	Noviembre	2023-11-24T00:00:00	2024-11-08T00:00:00	3	Temperatura mínima	16.4
161012	7	Sololá	713	San Lucas Tolimán	10	San Lucas Tolimán	11	Noviembre	2023-11-24T00:00:00	2024-11-08T00:00:00	5	Humedad	59
161013	7	Sololá	713	San Lucas Tolimán	10	San Lucas Tolimán	11	Noviembre	2023-11-24T00:00:00	2024-11-08T00:00:00	6	Velocidad del viento	0
161014	7	Sololá	713	San Lucas Tolimán	10	San Lucas Tolimán	11	Noviembre	2023-11-24T00:00:00	2024-11-08T00:00:00	7	Dirección del viento	0
161015	7	Sololá	713	San Lucas Tolimán	10	San Lucas Tolimán	11	Noviembre	2023-11-24T00:00:00	2024-11-08T00:00:00	1	Precipitación	0
161016	7	Sololá	713	San Lucas Tolimán	10	San Lucas Tolimán	11	Noviembre	2023-11-24T00:00:00	2024-11-08T00:00:00	8	Radiación solar	0
161017	7	Sololá	713	San Lucas Tolimán	10	San Lucas Tolimán	11	Noviembre	2023-11-24T00:00:00	2024-11-08T01:00:00	2	Temperatura media	16.6
161018	7	Sololá	713	San Lucas Tolimán	10	San Lucas Tolimán	11	Noviembre	2023-11-24T00:00:00	2024-11-08T01:00:00	4	Temperatura máxima	16.6
161019	7	Sololá	713	San Lucas Tolimán	10	San Lucas Tolimán	11	Noviembre	2023-11-24T00:00:00	2024-11-08T01:00:00	3	Temperatura mínima	16.2
161020	7	Sololá	713	San Lucas Tolimán	10	San Lucas Tolimán	11	Noviembre	2023-11-24T00:00:00	2024-11-08T01:00:00	5	Humedad	59
161021	7	Sololá	713	San Lucas Tolimán	10	San Lucas Tolimán	11	Noviembre	2023-11-24T00:00:00	2024-11-08T01:00:00	6	Velocidad del viento	0
161022	7	Sololá	713	San Lucas Tolimán	10	San Lucas Tolimán	11	Noviembre	2023-11-24T00:00:00	2024-11-08T01:00:00	7	Dirección del viento	0
161023	7	Sololá	713	San Lucas Tolimán	10	San Lucas Tolimán	11	Noviembre	2023-11-24T00:00:00	2024-11-08T01:00:00	1	Precipitación	0
161024	7	Sololá	713	San Lucas Tolimán	10	San Lucas Tolimán	11	Noviembre	2023-11-24T00:00:00	2024-11-08T01:00:00	8	Radiación solar	0
161025	7	Sololá	713	San Lucas Tolimán	10	San Lucas Tolimán	11	Noviembre	2023-11-24T00:00:00	2024-11-08T02:00:00	2	Temperatura media	16.2
161026	7	Sololá	713	San Lucas Tolimán	10	San Lucas Tolimán	11	Noviembre	2023-11-24T00:00:00	2024-11-08T02:00:00	4	Temperatura máxima	16.7
161027	7	Sololá	713	San Lucas Tolimán	10	San Lucas Tolimán	11	Noviembre	2023-11-24T00:00:00	2024-11-08T02:00:00	3	Temperatura mínima	16.2
161028	7	Sololá	713	San Lucas Tolimán	10	San Lucas Tolimán	11	Noviembre	2023-11-24T00:00:00	2024-11-08T02:00:00	5	Humedad	60
161029	7	Sololá	713	San Lucas Tolimán	10	San Lucas Tolimán	11	Noviembre	2023-11-24T00:00:00	2024-11-08T02:00:00	6	Velocidad del viento	1.6
161030	7	Sololá	713	San Lucas Tolimán	10	San Lucas Tolimán	11	Noviembre	2023-11-24T00:00:00	2024-11-08T02:00:00	7	Dirección del viento	1.61
161031	7	Sololá	713	San Lucas Tolimán	10	San Lucas Tolimán	11	Noviembre	2023-11-24T00:00:00	2024-11-08T02:00:00	1	Precipitación	0
161032	7	Sololá	713	San Lucas Tolimán	10	San Lucas Tolimán	11	Noviembre	2023-11-24T00:00:00	2024-11-08T02:00:00	8	Radiación solar	0
161033	7	Sololá	713	San Lucas Tolimán	10	San Lucas Tolimán	11	Noviembre	2023-11-24T00:00:00	2024-11-08T03:00:00	2	Temperatura media	14.7
161034	7	Sololá	713	San Lucas Tolimán	10	San Lucas Tolimán	11	Noviembre	2023-11-24T00:00:00	2024-11-08T03:00:00	4	Temperatura máxima	16.2
161035	7	Sololá	713	San Lucas Tolimán	10	San Lucas Tolimán	11	Noviembre	2023-11-24T00:00:00	2024-11-08T03:00:00	3	Temperatura mínima	14.7
161036	7	Sololá	713	San Lucas Tolimán	10	San Lucas Tolimán	11	Noviembre	2023-11-24T00:00:00	2024-11-08T03:00:00	5	Humedad	60
161037	7	Sololá	713	San Lucas Tolimán	10	San Lucas Tolimán	11	Noviembre	2023-11-24T00:00:00	2024-11-08T03:00:00	6	Velocidad del viento	0
161038	7	Sololá	713	San Lucas Tolimán	10	San Lucas Tolimán	11	Noviembre	2023-11-24T00:00:00	2024-11-08T03:00:00	7	Dirección del viento	0
161039	7	Sololá	713	San Lucas Tolimán	10	San Lucas Tolimán	11	Noviembre	2023-11-24T00:00:00	2024-11-08T03:00:00	1	Precipitación	0
161040	7	Sololá	713	San Lucas Tolimán	10	San Lucas Tolimán	11	Noviembre	2023-11-24T00:00:00	2024-11-08T03:00:00	8	Radiación solar	0
161041	7	Sololá	713	San Lucas Tolimán	10	San Lucas Tolimán	11	Noviembre	2023-11-24T00:00:00	2024-11-08T04:00:00	2	Temperatura media	14.6
161042	7	Sololá	713	San Lucas Tolimán	10	San Lucas Tolimán	11	Noviembre	2023-11-24T00:00:00	2024-11-08T04:00:00	4	Temperatura máxima	14.7
161043	7	Sololá	713	San Lucas Tolimán	10	San Lucas Tolimán	11	Noviembre	2023-11-24T00:00:00	2024-11-08T04:00:00	3	Temperatura mínima	14.4
161044	7	Sololá	713	San Lucas Tolimán	10	San Lucas Tolimán	11	Noviembre	2023-11-24T00:00:00	2024-11-08T04:00:00	5	Humedad	60
161045	7	Sololá	713	San Lucas Tolimán	10	San Lucas Tolimán	11	Noviembre	2023-11-24T00:00:00	2024-11-08T04:00:00	6	Velocidad del viento	0
161046	7	Sololá	713	San Lucas Tolimán	10	San Lucas Tolimán	11	Noviembre	2023-11-24T00:00:00	2024-11-08T04:00:00	7	Dirección del viento	0
161047	7	Sololá	713	San Lucas Tolimán	10	San Lucas Tolimán	11	Noviembre	2023-11-24T00:00:00	2024-11-08T04:00:00	1	Precipitación	0
161048	7	Sololá	713	San Lucas Tolimán	10	San Lucas Tolimán	11	Noviembre	2023-11-24T00:00:00	2024-11-08T04:00:00	8	Radiación solar	0
161049	7	Sololá	713	San Lucas Tolimán	10	San Lucas Tolimán	11	Noviembre	2023-11-24T00:00:00	2024-11-08T05:00:00	2	Temperatura media	14.9
161050	7	Sololá	713	San Lucas Tolimán	10	San Lucas Tolimán	11	Noviembre	2023-11-24T00:00:00	2024-11-08T05:00:00	4	Temperatura máxima	15
161051	7	Sololá	713	San Lucas Tolimán	10	San Lucas Tolimán	11	Noviembre	2023-11-24T00:00:00	2024-11-08T05:00:00	3	Temperatura mínima	14.6
161052	7	Sololá	713	San Lucas Tolimán	10	San Lucas Tolimán	11	Noviembre	2023-11-24T00:00:00	2024-11-08T05:00:00	5	Humedad	60
161053	7	Sololá	713	San Lucas Tolimán	10	San Lucas Tolimán	11	Noviembre	2023-11-24T00:00:00	2024-11-08T05:00:00	6	Velocidad del viento	0
161054	7	Sololá	713	San Lucas Tolimán	10	San Lucas Tolimán	11	Noviembre	2023-11-24T00:00:00	2024-11-08T05:00:00	7	Dirección del viento	0
161055	7	Sololá	713	San Lucas Tolimán	10	San Lucas Tolimán	11	Noviembre	2023-11-24T00:00:00	2024-11-08T05:00:00	1	Precipitación	0
161056	7	Sololá	713	San Lucas Tolimán	10	San Lucas Tolimán	11	Noviembre	2023-11-24T00:00:00	2024-11-08T05:00:00	8	Radiación solar	0
161057	7	Sololá	713	San Lucas Tolimán	10	San Lucas Tolimán	11	Noviembre	2023-11-24T00:00:00	2024-11-08T06:00:00	2	Temperatura media	15.4
161058	7	Sololá	713	San Lucas Tolimán	10	San Lucas Tolimán	11	Noviembre	2023-11-24T00:00:00	2024-11-08T06:00:00	4	Temperatura máxima	15.4
161059	7	Sololá	713	San Lucas Tolimán	10	San Lucas Tolimán	11	Noviembre	2023-11-24T00:00:00	2024-11-08T06:00:00	3	Temperatura mínima	14.9
161060	7	Sololá	713	San Lucas Tolimán	10	San Lucas Tolimán	11	Noviembre	2023-11-24T00:00:00	2024-11-08T06:00:00	5	Humedad	60
161061	7	Sololá	713	San Lucas Tolimán	10	San Lucas Tolimán	11	Noviembre	2023-11-24T00:00:00	2024-11-08T06:00:00	6	Velocidad del viento	0
161062	7	Sololá	713	San Lucas Tolimán	10	San Lucas Tolimán	11	Noviembre	2023-11-24T00:00:00	2024-11-08T06:00:00	7	Dirección del viento	0
161063	7	Sololá	713	San Lucas Tolimán	10	San Lucas Tolimán	11	Noviembre	2023-11-24T00:00:00	2024-11-08T06:00:00	1	Precipitación	0
161064	7	Sololá	713	San Lucas Tolimán	10	San Lucas Tolimán	11	Noviembre	2023-11-24T00:00:00	2024-11-08T06:00:00	8	Radiación solar	0
161065	7	Sololá	713	San Lucas Tolimán	10	San Lucas Tolimán	11	Noviembre	2023-11-24T00:00:00	2024-11-08T07:00:00	2	Temperatura media	15.7
161066	7	Sololá	713	San Lucas Tolimán	10	San Lucas Tolimán	11	Noviembre	2023-11-24T00:00:00	2024-11-08T07:00:00	4	Temperatura máxima	15.8
161067	7	Sololá	713	San Lucas Tolimán	10	San Lucas Tolimán	11	Noviembre	2023-11-24T00:00:00	2024-11-08T07:00:00	3	Temperatura mínima	15.3
161068	7	Sololá	713	San Lucas Tolimán	10	San Lucas Tolimán	11	Noviembre	2023-11-24T00:00:00	2024-11-08T07:00:00	5	Humedad	58
161069	7	Sololá	713	San Lucas Tolimán	10	San Lucas Tolimán	11	Noviembre	2023-11-24T00:00:00	2024-11-08T07:00:00	6	Velocidad del viento	0
161070	7	Sololá	713	San Lucas Tolimán	10	San Lucas Tolimán	11	Noviembre	2023-11-24T00:00:00	2024-11-08T07:00:00	7	Dirección del viento	0
161071	7	Sololá	713	San Lucas Tolimán	10	San Lucas Tolimán	11	Noviembre	2023-11-24T00:00:00	2024-11-08T07:00:00	1	Precipitación	0
161072	7	Sololá	713	San Lucas Tolimán	10	San Lucas Tolimán	11	Noviembre	2023-11-24T00:00:00	2024-11-08T07:00:00	8	Radiación solar	10
161073	7	Sololá	713	San Lucas Tolimán	10	San Lucas Tolimán	11	Noviembre	2023-11-24T00:00:00	2024-11-08T08:00:00	2	Temperatura media	16.9
161074	7	Sololá	713	San Lucas Tolimán	10	San Lucas Tolimán	11	Noviembre	2023-11-24T00:00:00	2024-11-08T08:00:00	4	Temperatura máxima	16.9
161075	7	Sololá	713	San Lucas Tolimán	10	San Lucas Tolimán	11	Noviembre	2023-11-24T00:00:00	2024-11-08T08:00:00	3	Temperatura mínima	15.6
161076	7	Sololá	713	San Lucas Tolimán	10	San Lucas Tolimán	11	Noviembre	2023-11-24T00:00:00	2024-11-08T08:00:00	5	Humedad	56
161077	7	Sololá	713	San Lucas Tolimán	10	San Lucas Tolimán	11	Noviembre	2023-11-24T00:00:00	2024-11-08T08:00:00	6	Velocidad del viento	3.2
161078	7	Sololá	713	San Lucas Tolimán	10	San Lucas Tolimán	11	Noviembre	2023-11-24T00:00:00	2024-11-08T08:00:00	7	Dirección del viento	3.22
161079	7	Sololá	713	San Lucas Tolimán	10	San Lucas Tolimán	11	Noviembre	2023-11-24T00:00:00	2024-11-08T08:00:00	1	Precipitación	0
161080	7	Sololá	713	San Lucas Tolimán	10	San Lucas Tolimán	11	Noviembre	2023-11-24T00:00:00	2024-11-08T08:00:00	8	Radiación solar	28
161081	7	Sololá	713	San Lucas Tolimán	10	San Lucas Tolimán	11	Noviembre	2023-11-24T00:00:00	2024-11-08T09:00:00	2	Temperatura media	19.8
161082	7	Sololá	713	San Lucas Tolimán	10	San Lucas Tolimán	11	Noviembre	2023-11-24T00:00:00	2024-11-08T09:00:00	4	Temperatura máxima	20.2
161083	7	Sololá	713	San Lucas Tolimán	10	San Lucas Tolimán	11	Noviembre	2023-11-24T00:00:00	2024-11-08T09:00:00	3	Temperatura mínima	16.9
161084	7	Sololá	713	San Lucas Tolimán	10	San Lucas Tolimán	11	Noviembre	2023-11-24T00:00:00	2024-11-08T09:00:00	5	Humedad	56
161085	7	Sololá	713	San Lucas Tolimán	10	San Lucas Tolimán	11	Noviembre	2023-11-24T00:00:00	2024-11-08T09:00:00	6	Velocidad del viento	4.8
161086	7	Sololá	713	San Lucas Tolimán	10	San Lucas Tolimán	11	Noviembre	2023-11-24T00:00:00	2024-11-08T09:00:00	7	Dirección del viento	4.83
161087	7	Sololá	713	San Lucas Tolimán	10	San Lucas Tolimán	11	Noviembre	2023-11-24T00:00:00	2024-11-08T09:00:00	1	Precipitación	0
161088	7	Sololá	713	San Lucas Tolimán	10	San Lucas Tolimán	11	Noviembre	2023-11-24T00:00:00	2024-11-08T09:00:00	8	Radiación solar	401
161089	7	Sololá	713	San Lucas Tolimán	10	San Lucas Tolimán	11	Noviembre	2023-11-24T00:00:00	2024-11-08T10:00:00	2	Temperatura media	20.9
161090	7	Sololá	713	San Lucas Tolimán	10	San Lucas Tolimán	11	Noviembre	2023-11-24T00:00:00	2024-11-08T10:00:00	4	Temperatura máxima	21
161091	7	Sololá	713	San Lucas Tolimán	10	San Lucas Tolimán	11	Noviembre	2023-11-24T00:00:00	2024-11-08T10:00:00	3	Temperatura mínima	19.7
161092	7	Sololá	713	San Lucas Tolimán	10	San Lucas Tolimán	11	Noviembre	2023-11-24T00:00:00	2024-11-08T10:00:00	5	Humedad	54
161093	7	Sololá	713	San Lucas Tolimán	10	San Lucas Tolimán	11	Noviembre	2023-11-24T00:00:00	2024-11-08T10:00:00	6	Velocidad del viento	6.4
161094	7	Sololá	713	San Lucas Tolimán	10	San Lucas Tolimán	11	Noviembre	2023-11-24T00:00:00	2024-11-08T10:00:00	7	Dirección del viento	6.44
161095	7	Sololá	713	San Lucas Tolimán	10	San Lucas Tolimán	11	Noviembre	2023-11-24T00:00:00	2024-11-08T10:00:00	1	Precipitación	0
161096	7	Sololá	713	San Lucas Tolimán	10	San Lucas Tolimán	11	Noviembre	2023-11-24T00:00:00	2024-11-08T10:00:00	8	Radiación solar	658
161097	7	Sololá	713	San Lucas Tolimán	10	San Lucas Tolimán	11	Noviembre	2023-11-24T00:00:00	2024-11-08T11:00:00	2	Temperatura media	24.1
161098	7	Sololá	713	San Lucas Tolimán	10	San Lucas Tolimán	11	Noviembre	2023-11-24T00:00:00	2024-11-08T11:00:00	4	Temperatura máxima	24.7
161099	7	Sololá	713	San Lucas Tolimán	10	San Lucas Tolimán	11	Noviembre	2023-11-24T00:00:00	2024-11-08T11:00:00	3	Temperatura mínima	20.8
161100	7	Sololá	713	San Lucas Tolimán	10	San Lucas Tolimán	11	Noviembre	2023-11-24T00:00:00	2024-11-08T11:00:00	5	Humedad	52
161101	7	Sololá	713	San Lucas Tolimán	10	San Lucas Tolimán	11	Noviembre	2023-11-24T00:00:00	2024-11-08T11:00:00	6	Velocidad del viento	4.8
161102	7	Sololá	713	San Lucas Tolimán	10	San Lucas Tolimán	11	Noviembre	2023-11-24T00:00:00	2024-11-08T11:00:00	7	Dirección del viento	4.83
161103	7	Sololá	713	San Lucas Tolimán	10	San Lucas Tolimán	11	Noviembre	2023-11-24T00:00:00	2024-11-08T11:00:00	1	Precipitación	0
161104	7	Sololá	713	San Lucas Tolimán	10	San Lucas Tolimán	11	Noviembre	2023-11-24T00:00:00	2024-11-08T11:00:00	8	Radiación solar	797
161105	7	Sololá	713	San Lucas Tolimán	10	San Lucas Tolimán	11	Noviembre	2023-11-24T00:00:00	2024-11-08T12:00:00	2	Temperatura media	24.7
161106	7	Sololá	713	San Lucas Tolimán	10	San Lucas Tolimán	11	Noviembre	2023-11-24T00:00:00	2024-11-08T12:00:00	4	Temperatura máxima	24.9
161107	7	Sololá	713	San Lucas Tolimán	10	San Lucas Tolimán	11	Noviembre	2023-11-24T00:00:00	2024-11-08T12:00:00	3	Temperatura mínima	24.1
161108	7	Sololá	713	San Lucas Tolimán	10	San Lucas Tolimán	11	Noviembre	2023-11-24T00:00:00	2024-11-08T12:00:00	5	Humedad	51
161109	7	Sololá	713	San Lucas Tolimán	10	San Lucas Tolimán	11	Noviembre	2023-11-24T00:00:00	2024-11-08T12:00:00	6	Velocidad del viento	9.7
161110	7	Sololá	713	San Lucas Tolimán	10	San Lucas Tolimán	11	Noviembre	2023-11-24T00:00:00	2024-11-08T12:00:00	7	Dirección del viento	9.66
161111	7	Sololá	713	San Lucas Tolimán	10	San Lucas Tolimán	11	Noviembre	2023-11-24T00:00:00	2024-11-08T12:00:00	1	Precipitación	0
161112	7	Sololá	713	San Lucas Tolimán	10	San Lucas Tolimán	11	Noviembre	2023-11-24T00:00:00	2024-11-08T12:00:00	8	Radiación solar	868
161113	7	Sololá	713	San Lucas Tolimán	10	San Lucas Tolimán	11	Noviembre	2023-11-24T00:00:00	2024-11-08T13:00:00	2	Temperatura media	22.9
161114	7	Sololá	713	San Lucas Tolimán	10	San Lucas Tolimán	11	Noviembre	2023-11-24T00:00:00	2024-11-08T13:00:00	4	Temperatura máxima	24.6
161115	7	Sololá	713	San Lucas Tolimán	10	San Lucas Tolimán	11	Noviembre	2023-11-24T00:00:00	2024-11-08T13:00:00	3	Temperatura mínima	22.9
161116	7	Sololá	713	San Lucas Tolimán	10	San Lucas Tolimán	11	Noviembre	2023-11-24T00:00:00	2024-11-08T13:00:00	5	Humedad	59
161117	7	Sololá	713	San Lucas Tolimán	10	San Lucas Tolimán	11	Noviembre	2023-11-24T00:00:00	2024-11-08T13:00:00	6	Velocidad del viento	12.9
161118	7	Sololá	713	San Lucas Tolimán	10	San Lucas Tolimán	11	Noviembre	2023-11-24T00:00:00	2024-11-08T13:00:00	7	Dirección del viento	12.87
161119	7	Sololá	713	San Lucas Tolimán	10	San Lucas Tolimán	11	Noviembre	2023-11-24T00:00:00	2024-11-08T13:00:00	1	Precipitación	0
161120	7	Sololá	713	San Lucas Tolimán	10	San Lucas Tolimán	11	Noviembre	2023-11-24T00:00:00	2024-11-08T13:00:00	8	Radiación solar	872
161121	7	Sololá	713	San Lucas Tolimán	10	San Lucas Tolimán	11	Noviembre	2023-11-24T00:00:00	2024-11-08T14:00:00	2	Temperatura media	22
161122	7	Sololá	713	San Lucas Tolimán	10	San Lucas Tolimán	11	Noviembre	2023-11-24T00:00:00	2024-11-08T14:00:00	4	Temperatura máxima	23.1
161123	7	Sololá	713	San Lucas Tolimán	10	San Lucas Tolimán	11	Noviembre	2023-11-24T00:00:00	2024-11-08T14:00:00	3	Temperatura mínima	22
161124	7	Sololá	713	San Lucas Tolimán	10	San Lucas Tolimán	11	Noviembre	2023-11-24T00:00:00	2024-11-08T14:00:00	5	Humedad	61
161125	7	Sololá	713	San Lucas Tolimán	10	San Lucas Tolimán	11	Noviembre	2023-11-24T00:00:00	2024-11-08T14:00:00	6	Velocidad del viento	11.3
161126	7	Sololá	713	San Lucas Tolimán	10	San Lucas Tolimán	11	Noviembre	2023-11-24T00:00:00	2024-11-08T14:00:00	7	Dirección del viento	11.27
161127	7	Sololá	713	San Lucas Tolimán	10	San Lucas Tolimán	11	Noviembre	2023-11-24T00:00:00	2024-11-08T14:00:00	1	Precipitación	0
161128	7	Sololá	713	San Lucas Tolimán	10	San Lucas Tolimán	11	Noviembre	2023-11-24T00:00:00	2024-11-08T14:00:00	8	Radiación solar	353
161129	7	Sololá	713	San Lucas Tolimán	10	San Lucas Tolimán	11	Noviembre	2023-11-24T00:00:00	2024-11-08T15:00:00	2	Temperatura media	21.9
161130	7	Sololá	713	San Lucas Tolimán	10	San Lucas Tolimán	11	Noviembre	2023-11-24T00:00:00	2024-11-08T15:00:00	4	Temperatura máxima	22.8
161131	7	Sololá	713	San Lucas Tolimán	10	San Lucas Tolimán	11	Noviembre	2023-11-24T00:00:00	2024-11-08T15:00:00	3	Temperatura mínima	21.8
161132	7	Sololá	713	San Lucas Tolimán	10	San Lucas Tolimán	11	Noviembre	2023-11-24T00:00:00	2024-11-08T15:00:00	5	Humedad	60
161133	7	Sololá	713	San Lucas Tolimán	10	San Lucas Tolimán	11	Noviembre	2023-11-24T00:00:00	2024-11-08T15:00:00	6	Velocidad del viento	9.7
161134	7	Sololá	713	San Lucas Tolimán	10	San Lucas Tolimán	11	Noviembre	2023-11-24T00:00:00	2024-11-08T15:00:00	7	Dirección del viento	9.66
161135	7	Sololá	713	San Lucas Tolimán	10	San Lucas Tolimán	11	Noviembre	2023-11-24T00:00:00	2024-11-08T15:00:00	1	Precipitación	0
161136	7	Sololá	713	San Lucas Tolimán	10	San Lucas Tolimán	11	Noviembre	2023-11-24T00:00:00	2024-11-08T15:00:00	8	Radiación solar	500
161137	7	Sololá	713	San Lucas Tolimán	10	San Lucas Tolimán	11	Noviembre	2023-11-24T00:00:00	2024-11-08T16:00:00	2	Temperatura media	20.1
161138	7	Sololá	713	San Lucas Tolimán	10	San Lucas Tolimán	11	Noviembre	2023-11-24T00:00:00	2024-11-08T16:00:00	4	Temperatura máxima	21.9
161139	7	Sololá	713	San Lucas Tolimán	10	San Lucas Tolimán	11	Noviembre	2023-11-24T00:00:00	2024-11-08T16:00:00	3	Temperatura mínima	20.1
161140	7	Sololá	713	San Lucas Tolimán	10	San Lucas Tolimán	11	Noviembre	2023-11-24T00:00:00	2024-11-08T16:00:00	5	Humedad	59
161141	7	Sololá	713	San Lucas Tolimán	10	San Lucas Tolimán	11	Noviembre	2023-11-24T00:00:00	2024-11-08T16:00:00	6	Velocidad del viento	8
161142	7	Sololá	713	San Lucas Tolimán	10	San Lucas Tolimán	11	Noviembre	2023-11-24T00:00:00	2024-11-08T16:00:00	7	Dirección del viento	8.05
161143	7	Sololá	713	San Lucas Tolimán	10	San Lucas Tolimán	11	Noviembre	2023-11-24T00:00:00	2024-11-08T16:00:00	1	Precipitación	0
161144	7	Sololá	713	San Lucas Tolimán	10	San Lucas Tolimán	11	Noviembre	2023-11-24T00:00:00	2024-11-08T16:00:00	8	Radiación solar	141
161145	7	Sololá	713	San Lucas Tolimán	10	San Lucas Tolimán	11	Noviembre	2023-11-24T00:00:00	2024-11-08T17:00:00	2	Temperatura media	20
161146	7	Sololá	713	San Lucas Tolimán	10	San Lucas Tolimán	11	Noviembre	2023-11-24T00:00:00	2024-11-08T17:00:00	4	Temperatura máxima	20.2
161147	7	Sololá	713	San Lucas Tolimán	10	San Lucas Tolimán	11	Noviembre	2023-11-24T00:00:00	2024-11-08T17:00:00	3	Temperatura mínima	19.9
161148	7	Sololá	713	San Lucas Tolimán	10	San Lucas Tolimán	11	Noviembre	2023-11-24T00:00:00	2024-11-08T17:00:00	5	Humedad	58
161149	7	Sololá	713	San Lucas Tolimán	10	San Lucas Tolimán	11	Noviembre	2023-11-24T00:00:00	2024-11-08T17:00:00	6	Velocidad del viento	6.4
161150	7	Sololá	713	San Lucas Tolimán	10	San Lucas Tolimán	11	Noviembre	2023-11-24T00:00:00	2024-11-08T17:00:00	7	Dirección del viento	6.44
161151	7	Sololá	713	San Lucas Tolimán	10	San Lucas Tolimán	11	Noviembre	2023-11-24T00:00:00	2024-11-08T17:00:00	1	Precipitación	0
161152	7	Sololá	713	San Lucas Tolimán	10	San Lucas Tolimán	11	Noviembre	2023-11-24T00:00:00	2024-11-08T17:00:00	8	Radiación solar	31
161153	7	Sololá	713	San Lucas Tolimán	10	San Lucas Tolimán	11	Noviembre	2023-11-24T00:00:00	2024-11-08T18:00:00	2	Temperatura media	19.7
161154	7	Sololá	713	San Lucas Tolimán	10	San Lucas Tolimán	11	Noviembre	2023-11-24T00:00:00	2024-11-08T18:00:00	4	Temperatura máxima	20
161155	7	Sololá	713	San Lucas Tolimán	10	San Lucas Tolimán	11	Noviembre	2023-11-24T00:00:00	2024-11-08T18:00:00	3	Temperatura mínima	19.6
161156	7	Sololá	713	San Lucas Tolimán	10	San Lucas Tolimán	11	Noviembre	2023-11-24T00:00:00	2024-11-08T18:00:00	5	Humedad	59
161157	7	Sololá	713	San Lucas Tolimán	10	San Lucas Tolimán	11	Noviembre	2023-11-24T00:00:00	2024-11-08T18:00:00	6	Velocidad del viento	4.8
161158	7	Sololá	713	San Lucas Tolimán	10	San Lucas Tolimán	11	Noviembre	2023-11-24T00:00:00	2024-11-08T18:00:00	7	Dirección del viento	4.83
161159	7	Sololá	713	San Lucas Tolimán	10	San Lucas Tolimán	11	Noviembre	2023-11-24T00:00:00	2024-11-08T18:00:00	1	Precipitación	0
161160	7	Sololá	713	San Lucas Tolimán	10	San Lucas Tolimán	11	Noviembre	2023-11-24T00:00:00	2024-11-08T18:00:00	8	Radiación solar	6
161161	7	Sololá	713	San Lucas Tolimán	10	San Lucas Tolimán	11	Noviembre	2023-11-24T00:00:00	2024-11-08T19:00:00	2	Temperatura media	19.2
161162	7	Sololá	713	San Lucas Tolimán	10	San Lucas Tolimán	11	Noviembre	2023-11-24T00:00:00	2024-11-08T19:00:00	4	Temperatura máxima	19.7
161163	7	Sololá	713	San Lucas Tolimán	10	San Lucas Tolimán	11	Noviembre	2023-11-24T00:00:00	2024-11-08T19:00:00	3	Temperatura mínima	19.2
161164	7	Sololá	713	San Lucas Tolimán	10	San Lucas Tolimán	11	Noviembre	2023-11-24T00:00:00	2024-11-08T19:00:00	5	Humedad	60
161165	7	Sololá	713	San Lucas Tolimán	10	San Lucas Tolimán	11	Noviembre	2023-11-24T00:00:00	2024-11-08T19:00:00	6	Velocidad del viento	3.2
161166	7	Sololá	713	San Lucas Tolimán	10	San Lucas Tolimán	11	Noviembre	2023-11-24T00:00:00	2024-11-08T19:00:00	7	Dirección del viento	3.22
161167	7	Sololá	713	San Lucas Tolimán	10	San Lucas Tolimán	11	Noviembre	2023-11-24T00:00:00	2024-11-08T19:00:00	1	Precipitación	0
161168	7	Sololá	713	San Lucas Tolimán	10	San Lucas Tolimán	11	Noviembre	2023-11-24T00:00:00	2024-11-08T19:00:00	8	Radiación solar	0
161169	7	Sololá	713	San Lucas Tolimán	10	San Lucas Tolimán	11	Noviembre	2023-11-24T00:00:00	2024-11-08T20:00:00	2	Temperatura media	19.2
161170	7	Sololá	713	San Lucas Tolimán	10	San Lucas Tolimán	11	Noviembre	2023-11-24T00:00:00	2024-11-08T20:00:00	4	Temperatura máxima	19.3
161171	7	Sololá	713	San Lucas Tolimán	10	San Lucas Tolimán	11	Noviembre	2023-11-24T00:00:00	2024-11-08T20:00:00	3	Temperatura mínima	19.1
161172	7	Sololá	713	San Lucas Tolimán	10	San Lucas Tolimán	11	Noviembre	2023-11-24T00:00:00	2024-11-08T20:00:00	5	Humedad	60
161173	7	Sololá	713	San Lucas Tolimán	10	San Lucas Tolimán	11	Noviembre	2023-11-24T00:00:00	2024-11-08T20:00:00	6	Velocidad del viento	1.6
161174	7	Sololá	713	San Lucas Tolimán	10	San Lucas Tolimán	11	Noviembre	2023-11-24T00:00:00	2024-11-08T20:00:00	7	Dirección del viento	1.61
161175	7	Sololá	713	San Lucas Tolimán	10	San Lucas Tolimán	11	Noviembre	2023-11-24T00:00:00	2024-11-08T20:00:00	1	Precipitación	0
161176	7	Sololá	713	San Lucas Tolimán	10	San Lucas Tolimán	11	Noviembre	2023-11-24T00:00:00	2024-11-08T20:00:00	8	Radiación solar	0
161177	7	Sololá	713	San Lucas Tolimán	10	San Lucas Tolimán	11	Noviembre	2023-11-24T00:00:00	2024-11-08T21:00:00	2	Temperatura media	18.8
161178	7	Sololá	713	San Lucas Tolimán	10	San Lucas Tolimán	11	Noviembre	2023-11-24T00:00:00	2024-11-08T21:00:00	4	Temperatura máxima	19.2
161179	7	Sololá	713	San Lucas Tolimán	10	San Lucas Tolimán	11	Noviembre	2023-11-24T00:00:00	2024-11-08T21:00:00	3	Temperatura mínima	18.7
161180	7	Sololá	713	San Lucas Tolimán	10	San Lucas Tolimán	11	Noviembre	2023-11-24T00:00:00	2024-11-08T21:00:00	5	Humedad	60
161181	7	Sololá	713	San Lucas Tolimán	10	San Lucas Tolimán	11	Noviembre	2023-11-24T00:00:00	2024-11-08T21:00:00	6	Velocidad del viento	3.2
161182	7	Sololá	713	San Lucas Tolimán	10	San Lucas Tolimán	11	Noviembre	2023-11-24T00:00:00	2024-11-08T21:00:00	7	Dirección del viento	3.22
161183	7	Sololá	713	San Lucas Tolimán	10	San Lucas Tolimán	11	Noviembre	2023-11-24T00:00:00	2024-11-08T21:00:00	1	Precipitación	0
161184	7	Sololá	713	San Lucas Tolimán	10	San Lucas Tolimán	11	Noviembre	2023-11-24T00:00:00	2024-11-08T21:00:00	8	Radiación solar	0
161185	7	Sololá	713	San Lucas Tolimán	10	San Lucas Tolimán	11	Noviembre	2023-11-24T00:00:00	2024-11-08T22:00:00	2	Temperatura media	18.4
161186	7	Sololá	713	San Lucas Tolimán	10	San Lucas Tolimán	11	Noviembre	2023-11-24T00:00:00	2024-11-08T22:00:00	4	Temperatura máxima	18.9
161187	7	Sololá	713	San Lucas Tolimán	10	San Lucas Tolimán	11	Noviembre	2023-11-24T00:00:00	2024-11-08T22:00:00	3	Temperatura mínima	18.3
161188	7	Sololá	713	San Lucas Tolimán	10	San Lucas Tolimán	11	Noviembre	2023-11-24T00:00:00	2024-11-08T22:00:00	5	Humedad	63
161189	7	Sololá	713	San Lucas Tolimán	10	San Lucas Tolimán	11	Noviembre	2023-11-24T00:00:00	2024-11-08T22:00:00	6	Velocidad del viento	3.2
161190	7	Sololá	713	San Lucas Tolimán	10	San Lucas Tolimán	11	Noviembre	2023-11-24T00:00:00	2024-11-08T22:00:00	7	Dirección del viento	3.22
161191	7	Sololá	713	San Lucas Tolimán	10	San Lucas Tolimán	11	Noviembre	2023-11-24T00:00:00	2024-11-08T22:00:00	1	Precipitación	0
161192	7	Sololá	713	San Lucas Tolimán	10	San Lucas Tolimán	11	Noviembre	2023-11-24T00:00:00	2024-11-08T22:00:00	8	Radiación solar	0
161193	7	Sololá	713	San Lucas Tolimán	10	San Lucas Tolimán	11	Noviembre	2023-11-24T00:00:00	2024-11-08T23:00:00	2	Temperatura media	18.6
161194	7	Sololá	713	San Lucas Tolimán	10	San Lucas Tolimán	11	Noviembre	2023-11-24T00:00:00	2024-11-08T23:00:00	4	Temperatura máxima	18.6
161195	7	Sololá	713	San Lucas Tolimán	10	San Lucas Tolimán	11	Noviembre	2023-11-24T00:00:00	2024-11-08T23:00:00	3	Temperatura mínima	18.2
161196	7	Sololá	713	San Lucas Tolimán	10	San Lucas Tolimán	11	Noviembre	2023-11-24T00:00:00	2024-11-08T23:00:00	5	Humedad	56
161197	7	Sololá	713	San Lucas Tolimán	10	San Lucas Tolimán	11	Noviembre	2023-11-24T00:00:00	2024-11-08T23:00:00	6	Velocidad del viento	1.6
161198	7	Sololá	713	San Lucas Tolimán	10	San Lucas Tolimán	11	Noviembre	2023-11-24T00:00:00	2024-11-08T23:00:00	7	Dirección del viento	1.61
161199	7	Sololá	713	San Lucas Tolimán	10	San Lucas Tolimán	11	Noviembre	2023-11-24T00:00:00	2024-11-08T23:00:00	1	Precipitación	0
161200	7	Sololá	713	San Lucas Tolimán	10	San Lucas Tolimán	11	Noviembre	2023-11-24T00:00:00	2024-11-08T23:00:00	8	Radiación solar	0
161201	7	Sololá	713	San Lucas Tolimán	10	San Lucas Tolimán	11	Noviembre	2023-11-25T00:00:00	2024-11-08T00:00:00	2	Temperatura media	18.1
161202	7	Sololá	713	San Lucas Tolimán	10	San Lucas Tolimán	11	Noviembre	2023-11-25T00:00:00	2024-11-08T00:00:00	4	Temperatura máxima	18.6
161203	7	Sololá	713	San Lucas Tolimán	10	San Lucas Tolimán	11	Noviembre	2023-11-25T00:00:00	2024-11-08T00:00:00	3	Temperatura mínima	18.1
161204	7	Sololá	713	San Lucas Tolimán	10	San Lucas Tolimán	11	Noviembre	2023-11-25T00:00:00	2024-11-08T00:00:00	5	Humedad	57
161205	7	Sololá	713	San Lucas Tolimán	10	San Lucas Tolimán	11	Noviembre	2023-11-25T00:00:00	2024-11-08T00:00:00	6	Velocidad del viento	0
161206	7	Sololá	713	San Lucas Tolimán	10	San Lucas Tolimán	11	Noviembre	2023-11-25T00:00:00	2024-11-08T00:00:00	7	Dirección del viento	0
161207	7	Sololá	713	San Lucas Tolimán	10	San Lucas Tolimán	11	Noviembre	2023-11-25T00:00:00	2024-11-08T00:00:00	1	Precipitación	0
161208	7	Sololá	713	San Lucas Tolimán	10	San Lucas Tolimán	11	Noviembre	2023-11-25T00:00:00	2024-11-08T00:00:00	8	Radiación solar	0
161209	7	Sololá	713	San Lucas Tolimán	10	San Lucas Tolimán	11	Noviembre	2023-11-25T00:00:00	2024-11-08T01:00:00	2	Temperatura media	18
161210	7	Sololá	713	San Lucas Tolimán	10	San Lucas Tolimán	11	Noviembre	2023-11-25T00:00:00	2024-11-08T01:00:00	4	Temperatura máxima	18.2
161211	7	Sololá	713	San Lucas Tolimán	10	San Lucas Tolimán	11	Noviembre	2023-11-25T00:00:00	2024-11-08T01:00:00	3	Temperatura mínima	17.9
161212	7	Sololá	713	San Lucas Tolimán	10	San Lucas Tolimán	11	Noviembre	2023-11-25T00:00:00	2024-11-08T01:00:00	5	Humedad	56
161213	7	Sololá	713	San Lucas Tolimán	10	San Lucas Tolimán	11	Noviembre	2023-11-25T00:00:00	2024-11-08T01:00:00	6	Velocidad del viento	0
161214	7	Sololá	713	San Lucas Tolimán	10	San Lucas Tolimán	11	Noviembre	2023-11-25T00:00:00	2024-11-08T01:00:00	7	Dirección del viento	0
161215	7	Sololá	713	San Lucas Tolimán	10	San Lucas Tolimán	11	Noviembre	2023-11-25T00:00:00	2024-11-08T01:00:00	1	Precipitación	0
161216	7	Sololá	713	San Lucas Tolimán	10	San Lucas Tolimán	11	Noviembre	2023-11-25T00:00:00	2024-11-08T01:00:00	8	Radiación solar	0
161217	7	Sololá	713	San Lucas Tolimán	10	San Lucas Tolimán	11	Noviembre	2023-11-25T00:00:00	2024-11-08T02:00:00	2	Temperatura media	17.6
161218	7	Sololá	713	San Lucas Tolimán	10	San Lucas Tolimán	11	Noviembre	2023-11-25T00:00:00	2024-11-08T02:00:00	4	Temperatura máxima	18.1
161219	7	Sololá	713	San Lucas Tolimán	10	San Lucas Tolimán	11	Noviembre	2023-11-25T00:00:00	2024-11-08T02:00:00	3	Temperatura mínima	17.6
161220	7	Sololá	713	San Lucas Tolimán	10	San Lucas Tolimán	11	Noviembre	2023-11-25T00:00:00	2024-11-08T02:00:00	5	Humedad	58
161221	7	Sololá	713	San Lucas Tolimán	10	San Lucas Tolimán	11	Noviembre	2023-11-25T00:00:00	2024-11-08T02:00:00	6	Velocidad del viento	0
161222	7	Sololá	713	San Lucas Tolimán	10	San Lucas Tolimán	11	Noviembre	2023-11-25T00:00:00	2024-11-08T02:00:00	7	Dirección del viento	0
161223	7	Sololá	713	San Lucas Tolimán	10	San Lucas Tolimán	11	Noviembre	2023-11-25T00:00:00	2024-11-08T02:00:00	1	Precipitación	0
161224	7	Sololá	713	San Lucas Tolimán	10	San Lucas Tolimán	11	Noviembre	2023-11-25T00:00:00	2024-11-08T02:00:00	8	Radiación solar	0
161225	7	Sololá	713	San Lucas Tolimán	10	San Lucas Tolimán	11	Noviembre	2023-11-25T00:00:00	2024-11-08T03:00:00	2	Temperatura media	18.3
161226	7	Sololá	713	San Lucas Tolimán	10	San Lucas Tolimán	11	Noviembre	2023-11-25T00:00:00	2024-11-08T03:00:00	4	Temperatura máxima	18.5
161227	7	Sololá	713	San Lucas Tolimán	10	San Lucas Tolimán	11	Noviembre	2023-11-25T00:00:00	2024-11-08T03:00:00	3	Temperatura mínima	17.6
161228	7	Sololá	713	San Lucas Tolimán	10	San Lucas Tolimán	11	Noviembre	2023-11-25T00:00:00	2024-11-08T03:00:00	5	Humedad	57
161229	7	Sololá	713	San Lucas Tolimán	10	San Lucas Tolimán	11	Noviembre	2023-11-25T00:00:00	2024-11-08T03:00:00	6	Velocidad del viento	1.6
161230	7	Sololá	713	San Lucas Tolimán	10	San Lucas Tolimán	11	Noviembre	2023-11-25T00:00:00	2024-11-08T03:00:00	7	Dirección del viento	1.61
161231	7	Sololá	713	San Lucas Tolimán	10	San Lucas Tolimán	11	Noviembre	2023-11-25T00:00:00	2024-11-08T03:00:00	1	Precipitación	0
161232	7	Sololá	713	San Lucas Tolimán	10	San Lucas Tolimán	11	Noviembre	2023-11-25T00:00:00	2024-11-08T03:00:00	8	Radiación solar	0
161233	7	Sololá	713	San Lucas Tolimán	10	San Lucas Tolimán	11	Noviembre	2023-11-25T00:00:00	2024-11-08T04:00:00	2	Temperatura media	18.8
161234	7	Sololá	713	San Lucas Tolimán	10	San Lucas Tolimán	11	Noviembre	2023-11-25T00:00:00	2024-11-08T04:00:00	4	Temperatura máxima	19.1
161235	7	Sololá	713	San Lucas Tolimán	10	San Lucas Tolimán	11	Noviembre	2023-11-25T00:00:00	2024-11-08T04:00:00	3	Temperatura mínima	18.3
161236	7	Sololá	713	San Lucas Tolimán	10	San Lucas Tolimán	11	Noviembre	2023-11-25T00:00:00	2024-11-08T04:00:00	5	Humedad	56
161237	7	Sololá	713	San Lucas Tolimán	10	San Lucas Tolimán	11	Noviembre	2023-11-25T00:00:00	2024-11-08T04:00:00	6	Velocidad del viento	1.6
161238	7	Sololá	713	San Lucas Tolimán	10	San Lucas Tolimán	11	Noviembre	2023-11-25T00:00:00	2024-11-08T04:00:00	7	Dirección del viento	1.61
161239	7	Sololá	713	San Lucas Tolimán	10	San Lucas Tolimán	11	Noviembre	2023-11-25T00:00:00	2024-11-08T04:00:00	1	Precipitación	0
161240	7	Sololá	713	San Lucas Tolimán	10	San Lucas Tolimán	11	Noviembre	2023-11-25T00:00:00	2024-11-08T04:00:00	8	Radiación solar	0
161241	7	Sololá	713	San Lucas Tolimán	10	San Lucas Tolimán	11	Noviembre	2023-11-25T00:00:00	2024-11-08T05:00:00	2	Temperatura media	17.6
161242	7	Sololá	713	San Lucas Tolimán	10	San Lucas Tolimán	11	Noviembre	2023-11-25T00:00:00	2024-11-08T05:00:00	4	Temperatura máxima	18.8
161243	7	Sololá	713	San Lucas Tolimán	10	San Lucas Tolimán	11	Noviembre	2023-11-25T00:00:00	2024-11-08T05:00:00	3	Temperatura mínima	17.6
161244	7	Sololá	713	San Lucas Tolimán	10	San Lucas Tolimán	11	Noviembre	2023-11-25T00:00:00	2024-11-08T05:00:00	5	Humedad	58
161245	7	Sololá	713	San Lucas Tolimán	10	San Lucas Tolimán	11	Noviembre	2023-11-25T00:00:00	2024-11-08T05:00:00	6	Velocidad del viento	0
161246	7	Sololá	713	San Lucas Tolimán	10	San Lucas Tolimán	11	Noviembre	2023-11-25T00:00:00	2024-11-08T05:00:00	7	Dirección del viento	0
161247	7	Sololá	713	San Lucas Tolimán	10	San Lucas Tolimán	11	Noviembre	2023-11-25T00:00:00	2024-11-08T05:00:00	1	Precipitación	0
161248	7	Sololá	713	San Lucas Tolimán	10	San Lucas Tolimán	11	Noviembre	2023-11-25T00:00:00	2024-11-08T05:00:00	8	Radiación solar	0
161249	7	Sololá	713	San Lucas Tolimán	10	San Lucas Tolimán	11	Noviembre	2023-11-25T00:00:00	2024-11-08T06:00:00	2	Temperatura media	16.3
161250	7	Sololá	713	San Lucas Tolimán	10	San Lucas Tolimán	11	Noviembre	2023-11-25T00:00:00	2024-11-08T06:00:00	4	Temperatura máxima	17.7
161251	7	Sololá	713	San Lucas Tolimán	10	San Lucas Tolimán	11	Noviembre	2023-11-25T00:00:00	2024-11-08T06:00:00	3	Temperatura mínima	16.3
161252	7	Sololá	713	San Lucas Tolimán	10	San Lucas Tolimán	11	Noviembre	2023-11-25T00:00:00	2024-11-08T06:00:00	5	Humedad	60
161253	7	Sololá	713	San Lucas Tolimán	10	San Lucas Tolimán	11	Noviembre	2023-11-25T00:00:00	2024-11-08T06:00:00	6	Velocidad del viento	1.6
161254	7	Sololá	713	San Lucas Tolimán	10	San Lucas Tolimán	11	Noviembre	2023-11-25T00:00:00	2024-11-08T06:00:00	7	Dirección del viento	1.61
161255	7	Sololá	713	San Lucas Tolimán	10	San Lucas Tolimán	11	Noviembre	2023-11-25T00:00:00	2024-11-08T06:00:00	1	Precipitación	0
161256	7	Sololá	713	San Lucas Tolimán	10	San Lucas Tolimán	11	Noviembre	2023-11-25T00:00:00	2024-11-08T06:00:00	8	Radiación solar	0
161257	7	Sololá	713	San Lucas Tolimán	10	San Lucas Tolimán	11	Noviembre	2023-11-25T00:00:00	2024-11-08T07:00:00	2	Temperatura media	17.8
161258	7	Sololá	713	San Lucas Tolimán	10	San Lucas Tolimán	11	Noviembre	2023-11-25T00:00:00	2024-11-08T07:00:00	4	Temperatura máxima	17.8
161259	7	Sololá	713	San Lucas Tolimán	10	San Lucas Tolimán	11	Noviembre	2023-11-25T00:00:00	2024-11-08T07:00:00	3	Temperatura mínima	16.4
161260	7	Sololá	713	San Lucas Tolimán	10	San Lucas Tolimán	11	Noviembre	2023-11-25T00:00:00	2024-11-08T07:00:00	5	Humedad	56
161261	7	Sololá	713	San Lucas Tolimán	10	San Lucas Tolimán	11	Noviembre	2023-11-25T00:00:00	2024-11-08T07:00:00	6	Velocidad del viento	0
161262	7	Sololá	713	San Lucas Tolimán	10	San Lucas Tolimán	11	Noviembre	2023-11-25T00:00:00	2024-11-08T07:00:00	7	Dirección del viento	0
161263	7	Sololá	713	San Lucas Tolimán	10	San Lucas Tolimán	11	Noviembre	2023-11-25T00:00:00	2024-11-08T07:00:00	1	Precipitación	0
161264	7	Sololá	713	San Lucas Tolimán	10	San Lucas Tolimán	11	Noviembre	2023-11-25T00:00:00	2024-11-08T07:00:00	8	Radiación solar	23
161265	7	Sololá	713	San Lucas Tolimán	10	San Lucas Tolimán	11	Noviembre	2023-11-25T00:00:00	2024-11-08T08:00:00	2	Temperatura media	20.3
161266	7	Sololá	713	San Lucas Tolimán	10	San Lucas Tolimán	11	Noviembre	2023-11-25T00:00:00	2024-11-08T08:00:00	4	Temperatura máxima	20.3
161267	7	Sololá	713	San Lucas Tolimán	10	San Lucas Tolimán	11	Noviembre	2023-11-25T00:00:00	2024-11-08T08:00:00	3	Temperatura mínima	17.8
161268	7	Sololá	713	San Lucas Tolimán	10	San Lucas Tolimán	11	Noviembre	2023-11-25T00:00:00	2024-11-08T08:00:00	5	Humedad	55
161269	7	Sololá	713	San Lucas Tolimán	10	San Lucas Tolimán	11	Noviembre	2023-11-25T00:00:00	2024-11-08T08:00:00	6	Velocidad del viento	1.6
161270	7	Sololá	713	San Lucas Tolimán	10	San Lucas Tolimán	11	Noviembre	2023-11-25T00:00:00	2024-11-08T08:00:00	7	Dirección del viento	1.61
161271	7	Sololá	713	San Lucas Tolimán	10	San Lucas Tolimán	11	Noviembre	2023-11-25T00:00:00	2024-11-08T08:00:00	1	Precipitación	0
161272	7	Sololá	713	San Lucas Tolimán	10	San Lucas Tolimán	11	Noviembre	2023-11-25T00:00:00	2024-11-08T08:00:00	8	Radiación solar	134
161273	7	Sololá	713	San Lucas Tolimán	10	San Lucas Tolimán	11	Noviembre	2023-11-25T00:00:00	2024-11-08T09:00:00	2	Temperatura media	22.7
161274	7	Sololá	713	San Lucas Tolimán	10	San Lucas Tolimán	11	Noviembre	2023-11-25T00:00:00	2024-11-08T09:00:00	4	Temperatura máxima	22.9
161275	7	Sololá	713	San Lucas Tolimán	10	San Lucas Tolimán	11	Noviembre	2023-11-25T00:00:00	2024-11-08T09:00:00	3	Temperatura mínima	20.3
161276	7	Sololá	713	San Lucas Tolimán	10	San Lucas Tolimán	11	Noviembre	2023-11-25T00:00:00	2024-11-08T09:00:00	5	Humedad	51
161277	7	Sololá	713	San Lucas Tolimán	10	San Lucas Tolimán	11	Noviembre	2023-11-25T00:00:00	2024-11-08T09:00:00	6	Velocidad del viento	6.4
161278	7	Sololá	713	San Lucas Tolimán	10	San Lucas Tolimán	11	Noviembre	2023-11-25T00:00:00	2024-11-08T09:00:00	7	Dirección del viento	6.44
161279	7	Sololá	713	San Lucas Tolimán	10	San Lucas Tolimán	11	Noviembre	2023-11-25T00:00:00	2024-11-08T09:00:00	1	Precipitación	0
161280	7	Sololá	713	San Lucas Tolimán	10	San Lucas Tolimán	11	Noviembre	2023-11-25T00:00:00	2024-11-08T09:00:00	8	Radiación solar	424
161281	7	Sololá	713	San Lucas Tolimán	10	San Lucas Tolimán	11	Noviembre	2023-11-25T00:00:00	2024-11-08T10:00:00	2	Temperatura media	24.7
161282	7	Sololá	713	San Lucas Tolimán	10	San Lucas Tolimán	11	Noviembre	2023-11-25T00:00:00	2024-11-08T10:00:00	4	Temperatura máxima	24.7
161283	7	Sololá	713	San Lucas Tolimán	10	San Lucas Tolimán	11	Noviembre	2023-11-25T00:00:00	2024-11-08T10:00:00	3	Temperatura mínima	22.7
161284	7	Sololá	713	San Lucas Tolimán	10	San Lucas Tolimán	11	Noviembre	2023-11-25T00:00:00	2024-11-08T10:00:00	5	Humedad	54
161285	7	Sololá	713	San Lucas Tolimán	10	San Lucas Tolimán	11	Noviembre	2023-11-25T00:00:00	2024-11-08T10:00:00	6	Velocidad del viento	8
161286	7	Sololá	713	San Lucas Tolimán	10	San Lucas Tolimán	11	Noviembre	2023-11-25T00:00:00	2024-11-08T10:00:00	7	Dirección del viento	8.05
161287	7	Sololá	713	San Lucas Tolimán	10	San Lucas Tolimán	11	Noviembre	2023-11-25T00:00:00	2024-11-08T10:00:00	1	Precipitación	0
161288	7	Sololá	713	San Lucas Tolimán	10	San Lucas Tolimán	11	Noviembre	2023-11-25T00:00:00	2024-11-08T10:00:00	8	Radiación solar	651
161289	7	Sololá	713	San Lucas Tolimán	10	San Lucas Tolimán	11	Noviembre	2023-11-25T00:00:00	2024-11-08T11:00:00	2	Temperatura media	23.8
161290	7	Sololá	713	San Lucas Tolimán	10	San Lucas Tolimán	11	Noviembre	2023-11-25T00:00:00	2024-11-08T11:00:00	4	Temperatura máxima	24.7
161291	7	Sololá	713	San Lucas Tolimán	10	San Lucas Tolimán	11	Noviembre	2023-11-25T00:00:00	2024-11-08T11:00:00	3	Temperatura mínima	23
161292	7	Sololá	713	San Lucas Tolimán	10	San Lucas Tolimán	11	Noviembre	2023-11-25T00:00:00	2024-11-08T11:00:00	5	Humedad	58
161293	7	Sololá	713	San Lucas Tolimán	10	San Lucas Tolimán	11	Noviembre	2023-11-25T00:00:00	2024-11-08T11:00:00	6	Velocidad del viento	9.7
161294	7	Sololá	713	San Lucas Tolimán	10	San Lucas Tolimán	11	Noviembre	2023-11-25T00:00:00	2024-11-08T11:00:00	7	Dirección del viento	9.66
161295	7	Sololá	713	San Lucas Tolimán	10	San Lucas Tolimán	11	Noviembre	2023-11-25T00:00:00	2024-11-08T11:00:00	1	Precipitación	0
161296	7	Sololá	713	San Lucas Tolimán	10	San Lucas Tolimán	11	Noviembre	2023-11-25T00:00:00	2024-11-08T11:00:00	8	Radiación solar	788
161297	7	Sololá	713	San Lucas Tolimán	10	San Lucas Tolimán	11	Noviembre	2023-11-25T00:00:00	2024-11-08T12:00:00	2	Temperatura media	21.6
161298	7	Sololá	713	San Lucas Tolimán	10	San Lucas Tolimán	11	Noviembre	2023-11-25T00:00:00	2024-11-08T12:00:00	4	Temperatura máxima	23.9
161299	7	Sololá	713	San Lucas Tolimán	10	San Lucas Tolimán	11	Noviembre	2023-11-25T00:00:00	2024-11-08T12:00:00	3	Temperatura mínima	21.4
161300	7	Sololá	713	San Lucas Tolimán	10	San Lucas Tolimán	11	Noviembre	2023-11-25T00:00:00	2024-11-08T12:00:00	5	Humedad	60
161301	7	Sololá	713	San Lucas Tolimán	10	San Lucas Tolimán	11	Noviembre	2023-11-25T00:00:00	2024-11-08T12:00:00	6	Velocidad del viento	12.9
161302	7	Sololá	713	San Lucas Tolimán	10	San Lucas Tolimán	11	Noviembre	2023-11-25T00:00:00	2024-11-08T12:00:00	7	Dirección del viento	12.87
161303	7	Sololá	713	San Lucas Tolimán	10	San Lucas Tolimán	11	Noviembre	2023-11-25T00:00:00	2024-11-08T12:00:00	1	Precipitación	0
161304	7	Sololá	713	San Lucas Tolimán	10	San Lucas Tolimán	11	Noviembre	2023-11-25T00:00:00	2024-11-08T12:00:00	8	Radiación solar	771
161305	7	Sololá	713	San Lucas Tolimán	10	San Lucas Tolimán	11	Noviembre	2023-11-25T00:00:00	2024-11-08T13:00:00	2	Temperatura media	22.9
161306	7	Sololá	713	San Lucas Tolimán	10	San Lucas Tolimán	11	Noviembre	2023-11-25T00:00:00	2024-11-08T13:00:00	4	Temperatura máxima	23.1
161307	7	Sololá	713	San Lucas Tolimán	10	San Lucas Tolimán	11	Noviembre	2023-11-25T00:00:00	2024-11-08T13:00:00	3	Temperatura mínima	21.7
161308	7	Sololá	713	San Lucas Tolimán	10	San Lucas Tolimán	11	Noviembre	2023-11-25T00:00:00	2024-11-08T13:00:00	5	Humedad	57
161309	7	Sololá	713	San Lucas Tolimán	10	San Lucas Tolimán	11	Noviembre	2023-11-25T00:00:00	2024-11-08T13:00:00	6	Velocidad del viento	12.9
161310	7	Sololá	713	San Lucas Tolimán	10	San Lucas Tolimán	11	Noviembre	2023-11-25T00:00:00	2024-11-08T13:00:00	7	Dirección del viento	12.87
161311	7	Sololá	713	San Lucas Tolimán	10	San Lucas Tolimán	11	Noviembre	2023-11-25T00:00:00	2024-11-08T13:00:00	1	Precipitación	0
161312	7	Sololá	713	San Lucas Tolimán	10	San Lucas Tolimán	11	Noviembre	2023-11-25T00:00:00	2024-11-08T13:00:00	8	Radiación solar	846
161313	7	Sololá	713	San Lucas Tolimán	10	San Lucas Tolimán	11	Noviembre	2023-11-25T00:00:00	2024-11-08T14:00:00	2	Temperatura media	22.6
161314	7	Sololá	713	San Lucas Tolimán	10	San Lucas Tolimán	11	Noviembre	2023-11-25T00:00:00	2024-11-08T14:00:00	4	Temperatura máxima	22.9
161315	7	Sololá	713	San Lucas Tolimán	10	San Lucas Tolimán	11	Noviembre	2023-11-25T00:00:00	2024-11-08T14:00:00	3	Temperatura mínima	22.2
161316	7	Sololá	713	San Lucas Tolimán	10	San Lucas Tolimán	11	Noviembre	2023-11-25T00:00:00	2024-11-08T14:00:00	5	Humedad	58
161317	7	Sololá	713	San Lucas Tolimán	10	San Lucas Tolimán	11	Noviembre	2023-11-25T00:00:00	2024-11-08T14:00:00	6	Velocidad del viento	12.9
161318	7	Sololá	713	San Lucas Tolimán	10	San Lucas Tolimán	11	Noviembre	2023-11-25T00:00:00	2024-11-08T14:00:00	7	Dirección del viento	12.87
161319	7	Sololá	713	San Lucas Tolimán	10	San Lucas Tolimán	11	Noviembre	2023-11-25T00:00:00	2024-11-08T14:00:00	1	Precipitación	0
161320	7	Sololá	713	San Lucas Tolimán	10	San Lucas Tolimán	11	Noviembre	2023-11-25T00:00:00	2024-11-08T14:00:00	8	Radiación solar	736
161321	7	Sololá	713	San Lucas Tolimán	10	San Lucas Tolimán	11	Noviembre	2023-11-25T00:00:00	2024-11-08T15:00:00	2	Temperatura media	21.6
161322	7	Sololá	713	San Lucas Tolimán	10	San Lucas Tolimán	11	Noviembre	2023-11-25T00:00:00	2024-11-08T15:00:00	4	Temperatura máxima	22.6
161323	7	Sololá	713	San Lucas Tolimán	10	San Lucas Tolimán	11	Noviembre	2023-11-25T00:00:00	2024-11-08T15:00:00	3	Temperatura mínima	21.2
161324	7	Sololá	713	San Lucas Tolimán	10	San Lucas Tolimán	11	Noviembre	2023-11-25T00:00:00	2024-11-08T15:00:00	5	Humedad	59
161325	7	Sololá	713	San Lucas Tolimán	10	San Lucas Tolimán	11	Noviembre	2023-11-25T00:00:00	2024-11-08T15:00:00	6	Velocidad del viento	12.9
161326	7	Sololá	713	San Lucas Tolimán	10	San Lucas Tolimán	11	Noviembre	2023-11-25T00:00:00	2024-11-08T15:00:00	7	Dirección del viento	12.87
161327	7	Sololá	713	San Lucas Tolimán	10	San Lucas Tolimán	11	Noviembre	2023-11-25T00:00:00	2024-11-08T15:00:00	1	Precipitación	0
161328	7	Sololá	713	San Lucas Tolimán	10	San Lucas Tolimán	11	Noviembre	2023-11-25T00:00:00	2024-11-08T15:00:00	8	Radiación solar	372
161329	7	Sololá	713	San Lucas Tolimán	10	San Lucas Tolimán	11	Noviembre	2023-11-25T00:00:00	2024-11-08T16:00:00	2	Temperatura media	21.1
161330	7	Sololá	713	San Lucas Tolimán	10	San Lucas Tolimán	11	Noviembre	2023-11-25T00:00:00	2024-11-08T16:00:00	4	Temperatura máxima	21.8
161331	7	Sololá	713	San Lucas Tolimán	10	San Lucas Tolimán	11	Noviembre	2023-11-25T00:00:00	2024-11-08T16:00:00	3	Temperatura mínima	20.7
161332	7	Sololá	713	San Lucas Tolimán	10	San Lucas Tolimán	11	Noviembre	2023-11-25T00:00:00	2024-11-08T16:00:00	5	Humedad	57
161333	7	Sololá	713	San Lucas Tolimán	10	San Lucas Tolimán	11	Noviembre	2023-11-25T00:00:00	2024-11-08T16:00:00	6	Velocidad del viento	11.3
161334	7	Sololá	713	San Lucas Tolimán	10	San Lucas Tolimán	11	Noviembre	2023-11-25T00:00:00	2024-11-08T16:00:00	7	Dirección del viento	11.27
161335	7	Sololá	713	San Lucas Tolimán	10	San Lucas Tolimán	11	Noviembre	2023-11-25T00:00:00	2024-11-08T16:00:00	1	Precipitación	0
161336	7	Sololá	713	San Lucas Tolimán	10	San Lucas Tolimán	11	Noviembre	2023-11-25T00:00:00	2024-11-08T16:00:00	8	Radiación solar	258
161337	7	Sololá	713	San Lucas Tolimán	10	San Lucas Tolimán	11	Noviembre	2023-11-25T00:00:00	2024-11-08T17:00:00	2	Temperatura media	20
161338	7	Sololá	713	San Lucas Tolimán	10	San Lucas Tolimán	11	Noviembre	2023-11-25T00:00:00	2024-11-08T17:00:00	4	Temperatura máxima	21.2
161339	7	Sololá	713	San Lucas Tolimán	10	San Lucas Tolimán	11	Noviembre	2023-11-25T00:00:00	2024-11-08T17:00:00	3	Temperatura mínima	20
161340	7	Sololá	713	San Lucas Tolimán	10	San Lucas Tolimán	11	Noviembre	2023-11-25T00:00:00	2024-11-08T17:00:00	5	Humedad	59
161341	7	Sololá	713	San Lucas Tolimán	10	San Lucas Tolimán	11	Noviembre	2023-11-25T00:00:00	2024-11-08T17:00:00	6	Velocidad del viento	8
161342	7	Sololá	713	San Lucas Tolimán	10	San Lucas Tolimán	11	Noviembre	2023-11-25T00:00:00	2024-11-08T17:00:00	7	Dirección del viento	8.05
161343	7	Sololá	713	San Lucas Tolimán	10	San Lucas Tolimán	11	Noviembre	2023-11-25T00:00:00	2024-11-08T17:00:00	1	Precipitación	0
161344	7	Sololá	713	San Lucas Tolimán	10	San Lucas Tolimán	11	Noviembre	2023-11-25T00:00:00	2024-11-08T17:00:00	8	Radiación solar	56
161345	7	Sololá	713	San Lucas Tolimán	10	San Lucas Tolimán	11	Noviembre	2023-11-25T00:00:00	2024-11-08T18:00:00	2	Temperatura media	19.3
161346	7	Sololá	713	San Lucas Tolimán	10	San Lucas Tolimán	11	Noviembre	2023-11-25T00:00:00	2024-11-08T18:00:00	4	Temperatura máxima	20.1
161347	7	Sololá	713	San Lucas Tolimán	10	San Lucas Tolimán	11	Noviembre	2023-11-25T00:00:00	2024-11-08T18:00:00	3	Temperatura mínima	19.3
161348	7	Sololá	713	San Lucas Tolimán	10	San Lucas Tolimán	11	Noviembre	2023-11-25T00:00:00	2024-11-08T18:00:00	5	Humedad	60
161349	7	Sololá	713	San Lucas Tolimán	10	San Lucas Tolimán	11	Noviembre	2023-11-25T00:00:00	2024-11-08T18:00:00	6	Velocidad del viento	6.4
161350	7	Sololá	713	San Lucas Tolimán	10	San Lucas Tolimán	11	Noviembre	2023-11-25T00:00:00	2024-11-08T18:00:00	7	Dirección del viento	6.44
161351	7	Sololá	713	San Lucas Tolimán	10	San Lucas Tolimán	11	Noviembre	2023-11-25T00:00:00	2024-11-08T18:00:00	1	Precipitación	0
161352	7	Sololá	713	San Lucas Tolimán	10	San Lucas Tolimán	11	Noviembre	2023-11-25T00:00:00	2024-11-08T18:00:00	8	Radiación solar	10
161353	7	Sololá	713	San Lucas Tolimán	10	San Lucas Tolimán	11	Noviembre	2023-11-25T00:00:00	2024-11-08T19:00:00	2	Temperatura media	18.8
161354	7	Sololá	713	San Lucas Tolimán	10	San Lucas Tolimán	11	Noviembre	2023-11-25T00:00:00	2024-11-08T19:00:00	4	Temperatura máxima	19.3
161355	7	Sololá	713	San Lucas Tolimán	10	San Lucas Tolimán	11	Noviembre	2023-11-25T00:00:00	2024-11-08T19:00:00	3	Temperatura mínima	18.7
161356	7	Sololá	713	San Lucas Tolimán	10	San Lucas Tolimán	11	Noviembre	2023-11-25T00:00:00	2024-11-08T19:00:00	5	Humedad	56
161357	7	Sololá	713	San Lucas Tolimán	10	San Lucas Tolimán	11	Noviembre	2023-11-25T00:00:00	2024-11-08T19:00:00	6	Velocidad del viento	3.2
161358	7	Sololá	713	San Lucas Tolimán	10	San Lucas Tolimán	11	Noviembre	2023-11-25T00:00:00	2024-11-08T19:00:00	7	Dirección del viento	3.22
161359	7	Sololá	713	San Lucas Tolimán	10	San Lucas Tolimán	11	Noviembre	2023-11-25T00:00:00	2024-11-08T19:00:00	1	Precipitación	0
161360	7	Sololá	713	San Lucas Tolimán	10	San Lucas Tolimán	11	Noviembre	2023-11-25T00:00:00	2024-11-08T19:00:00	8	Radiación solar	0
161361	7	Sololá	713	San Lucas Tolimán	10	San Lucas Tolimán	11	Noviembre	2023-11-25T00:00:00	2024-11-08T20:00:00	2	Temperatura media	19
161362	7	Sololá	713	San Lucas Tolimán	10	San Lucas Tolimán	11	Noviembre	2023-11-25T00:00:00	2024-11-08T20:00:00	4	Temperatura máxima	19.3
161363	7	Sololá	713	San Lucas Tolimán	10	San Lucas Tolimán	11	Noviembre	2023-11-25T00:00:00	2024-11-08T20:00:00	3	Temperatura mínima	18.7
161364	7	Sololá	713	San Lucas Tolimán	10	San Lucas Tolimán	11	Noviembre	2023-11-25T00:00:00	2024-11-08T20:00:00	5	Humedad	56
161365	7	Sololá	713	San Lucas Tolimán	10	San Lucas Tolimán	11	Noviembre	2023-11-25T00:00:00	2024-11-08T20:00:00	6	Velocidad del viento	1.6
161366	7	Sololá	713	San Lucas Tolimán	10	San Lucas Tolimán	11	Noviembre	2023-11-25T00:00:00	2024-11-08T20:00:00	7	Dirección del viento	1.61
161367	7	Sololá	713	San Lucas Tolimán	10	San Lucas Tolimán	11	Noviembre	2023-11-25T00:00:00	2024-11-08T20:00:00	1	Precipitación	0
161368	7	Sololá	713	San Lucas Tolimán	10	San Lucas Tolimán	11	Noviembre	2023-11-25T00:00:00	2024-11-08T20:00:00	8	Radiación solar	0
161369	7	Sololá	713	San Lucas Tolimán	10	San Lucas Tolimán	11	Noviembre	2023-11-25T00:00:00	2024-11-08T21:00:00	2	Temperatura media	19.9
161370	7	Sololá	713	San Lucas Tolimán	10	San Lucas Tolimán	11	Noviembre	2023-11-25T00:00:00	2024-11-08T21:00:00	4	Temperatura máxima	19.9
161371	7	Sololá	713	San Lucas Tolimán	10	San Lucas Tolimán	11	Noviembre	2023-11-25T00:00:00	2024-11-08T21:00:00	3	Temperatura mínima	18.8
161372	7	Sololá	713	San Lucas Tolimán	10	San Lucas Tolimán	11	Noviembre	2023-11-25T00:00:00	2024-11-08T21:00:00	5	Humedad	55
161373	7	Sololá	713	San Lucas Tolimán	10	San Lucas Tolimán	11	Noviembre	2023-11-25T00:00:00	2024-11-08T21:00:00	6	Velocidad del viento	3.2
161374	7	Sololá	713	San Lucas Tolimán	10	San Lucas Tolimán	11	Noviembre	2023-11-25T00:00:00	2024-11-08T21:00:00	7	Dirección del viento	3.22
161375	7	Sololá	713	San Lucas Tolimán	10	San Lucas Tolimán	11	Noviembre	2023-11-25T00:00:00	2024-11-08T21:00:00	1	Precipitación	0
161376	7	Sololá	713	San Lucas Tolimán	10	San Lucas Tolimán	11	Noviembre	2023-11-25T00:00:00	2024-11-08T21:00:00	8	Radiación solar	0
161377	7	Sololá	713	San Lucas Tolimán	10	San Lucas Tolimán	11	Noviembre	2023-11-25T00:00:00	2024-11-08T22:00:00	2	Temperatura media	19.3
161378	7	Sololá	713	San Lucas Tolimán	10	San Lucas Tolimán	11	Noviembre	2023-11-25T00:00:00	2024-11-08T22:00:00	4	Temperatura máxima	20.1
161379	7	Sololá	713	San Lucas Tolimán	10	San Lucas Tolimán	11	Noviembre	2023-11-25T00:00:00	2024-11-08T22:00:00	3	Temperatura mínima	19
161380	7	Sololá	713	San Lucas Tolimán	10	San Lucas Tolimán	11	Noviembre	2023-11-25T00:00:00	2024-11-08T22:00:00	5	Humedad	56
161381	7	Sololá	713	San Lucas Tolimán	10	San Lucas Tolimán	11	Noviembre	2023-11-25T00:00:00	2024-11-08T22:00:00	6	Velocidad del viento	3.2
161382	7	Sololá	713	San Lucas Tolimán	10	San Lucas Tolimán	11	Noviembre	2023-11-25T00:00:00	2024-11-08T22:00:00	7	Dirección del viento	3.22
161383	7	Sololá	713	San Lucas Tolimán	10	San Lucas Tolimán	11	Noviembre	2023-11-25T00:00:00	2024-11-08T22:00:00	1	Precipitación	0
161384	7	Sololá	713	San Lucas Tolimán	10	San Lucas Tolimán	11	Noviembre	2023-11-25T00:00:00	2024-11-08T22:00:00	8	Radiación solar	0
161385	7	Sololá	713	San Lucas Tolimán	10	San Lucas Tolimán	11	Noviembre	2023-11-25T00:00:00	2024-11-08T23:00:00	2	Temperatura media	18.5
161386	7	Sololá	713	San Lucas Tolimán	10	San Lucas Tolimán	11	Noviembre	2023-11-25T00:00:00	2024-11-08T23:00:00	4	Temperatura máxima	19.9
161387	7	Sololá	713	San Lucas Tolimán	10	San Lucas Tolimán	11	Noviembre	2023-11-25T00:00:00	2024-11-08T23:00:00	3	Temperatura mínima	18.4
161388	7	Sololá	713	San Lucas Tolimán	10	San Lucas Tolimán	11	Noviembre	2023-11-25T00:00:00	2024-11-08T23:00:00	5	Humedad	59
161389	7	Sololá	713	San Lucas Tolimán	10	San Lucas Tolimán	11	Noviembre	2023-11-25T00:00:00	2024-11-08T23:00:00	6	Velocidad del viento	3.2
161390	7	Sololá	713	San Lucas Tolimán	10	San Lucas Tolimán	11	Noviembre	2023-11-25T00:00:00	2024-11-08T23:00:00	7	Dirección del viento	3.22
161391	7	Sololá	713	San Lucas Tolimán	10	San Lucas Tolimán	11	Noviembre	2023-11-25T00:00:00	2024-11-08T23:00:00	1	Precipitación	0
161392	7	Sololá	713	San Lucas Tolimán	10	San Lucas Tolimán	11	Noviembre	2023-11-25T00:00:00	2024-11-08T23:00:00	8	Radiación solar	0
161393	7	Sololá	713	San Lucas Tolimán	10	San Lucas Tolimán	11	Noviembre	2023-11-26T00:00:00	2024-11-08T00:00:00	2	Temperatura media	17.7
161394	7	Sololá	713	San Lucas Tolimán	10	San Lucas Tolimán	11	Noviembre	2023-11-26T00:00:00	2024-11-08T00:00:00	4	Temperatura máxima	18.5
161395	7	Sololá	713	San Lucas Tolimán	10	San Lucas Tolimán	11	Noviembre	2023-11-26T00:00:00	2024-11-08T00:00:00	3	Temperatura mínima	17.7
161396	7	Sololá	713	San Lucas Tolimán	10	San Lucas Tolimán	11	Noviembre	2023-11-26T00:00:00	2024-11-08T00:00:00	5	Humedad	60
161397	7	Sololá	713	San Lucas Tolimán	10	San Lucas Tolimán	11	Noviembre	2023-11-26T00:00:00	2024-11-08T00:00:00	6	Velocidad del viento	1.6
161398	7	Sololá	713	San Lucas Tolimán	10	San Lucas Tolimán	11	Noviembre	2023-11-26T00:00:00	2024-11-08T00:00:00	7	Dirección del viento	1.61
161399	7	Sololá	713	San Lucas Tolimán	10	San Lucas Tolimán	11	Noviembre	2023-11-26T00:00:00	2024-11-08T00:00:00	1	Precipitación	0
161400	7	Sololá	713	San Lucas Tolimán	10	San Lucas Tolimán	11	Noviembre	2023-11-26T00:00:00	2024-11-08T00:00:00	8	Radiación solar	0
161401	7	Sololá	713	San Lucas Tolimán	10	San Lucas Tolimán	11	Noviembre	2023-11-26T00:00:00	2024-11-08T01:00:00	2	Temperatura media	17.1
161402	7	Sololá	713	San Lucas Tolimán	10	San Lucas Tolimán	11	Noviembre	2023-11-26T00:00:00	2024-11-08T01:00:00	4	Temperatura máxima	18.1
161403	7	Sololá	713	San Lucas Tolimán	10	San Lucas Tolimán	11	Noviembre	2023-11-26T00:00:00	2024-11-08T01:00:00	3	Temperatura mínima	17.1
161404	7	Sololá	713	San Lucas Tolimán	10	San Lucas Tolimán	11	Noviembre	2023-11-26T00:00:00	2024-11-08T01:00:00	5	Humedad	61
161405	7	Sololá	713	San Lucas Tolimán	10	San Lucas Tolimán	11	Noviembre	2023-11-26T00:00:00	2024-11-08T01:00:00	6	Velocidad del viento	1.6
161406	7	Sololá	713	San Lucas Tolimán	10	San Lucas Tolimán	11	Noviembre	2023-11-26T00:00:00	2024-11-08T01:00:00	7	Dirección del viento	1.61
161407	7	Sololá	713	San Lucas Tolimán	10	San Lucas Tolimán	11	Noviembre	2023-11-26T00:00:00	2024-11-08T01:00:00	1	Precipitación	0
161408	7	Sololá	713	San Lucas Tolimán	10	San Lucas Tolimán	11	Noviembre	2023-11-26T00:00:00	2024-11-08T01:00:00	8	Radiación solar	0
161409	7	Sololá	713	San Lucas Tolimán	10	San Lucas Tolimán	11	Noviembre	2023-11-26T00:00:00	2024-11-08T02:00:00	2	Temperatura media	17.6
161410	7	Sololá	713	San Lucas Tolimán	10	San Lucas Tolimán	11	Noviembre	2023-11-26T00:00:00	2024-11-08T02:00:00	4	Temperatura máxima	17.7
161411	7	Sololá	713	San Lucas Tolimán	10	San Lucas Tolimán	11	Noviembre	2023-11-26T00:00:00	2024-11-08T02:00:00	3	Temperatura mínima	16.5
161412	7	Sololá	713	San Lucas Tolimán	10	San Lucas Tolimán	11	Noviembre	2023-11-26T00:00:00	2024-11-08T02:00:00	5	Humedad	57
161413	7	Sololá	713	San Lucas Tolimán	10	San Lucas Tolimán	11	Noviembre	2023-11-26T00:00:00	2024-11-08T02:00:00	6	Velocidad del viento	1.6
161414	7	Sololá	713	San Lucas Tolimán	10	San Lucas Tolimán	11	Noviembre	2023-11-26T00:00:00	2024-11-08T02:00:00	7	Dirección del viento	1.61
161415	7	Sololá	713	San Lucas Tolimán	10	San Lucas Tolimán	11	Noviembre	2023-11-26T00:00:00	2024-11-08T02:00:00	1	Precipitación	0
161416	7	Sololá	713	San Lucas Tolimán	10	San Lucas Tolimán	11	Noviembre	2023-11-26T00:00:00	2024-11-08T02:00:00	8	Radiación solar	0
161417	7	Sololá	713	San Lucas Tolimán	10	San Lucas Tolimán	11	Noviembre	2023-11-26T00:00:00	2024-11-08T03:00:00	2	Temperatura media	17.5
161418	7	Sololá	713	San Lucas Tolimán	10	San Lucas Tolimán	11	Noviembre	2023-11-26T00:00:00	2024-11-08T03:00:00	4	Temperatura máxima	18.3
161419	7	Sololá	713	San Lucas Tolimán	10	San Lucas Tolimán	11	Noviembre	2023-11-26T00:00:00	2024-11-08T03:00:00	3	Temperatura mínima	17.5
161420	7	Sololá	713	San Lucas Tolimán	10	San Lucas Tolimán	11	Noviembre	2023-11-26T00:00:00	2024-11-08T03:00:00	5	Humedad	58
161421	7	Sololá	713	San Lucas Tolimán	10	San Lucas Tolimán	11	Noviembre	2023-11-26T00:00:00	2024-11-08T03:00:00	6	Velocidad del viento	1.6
161422	7	Sololá	713	San Lucas Tolimán	10	San Lucas Tolimán	11	Noviembre	2023-11-26T00:00:00	2024-11-08T03:00:00	7	Dirección del viento	1.61
161423	7	Sololá	713	San Lucas Tolimán	10	San Lucas Tolimán	11	Noviembre	2023-11-26T00:00:00	2024-11-08T03:00:00	1	Precipitación	0
161424	7	Sololá	713	San Lucas Tolimán	10	San Lucas Tolimán	11	Noviembre	2023-11-26T00:00:00	2024-11-08T03:00:00	8	Radiación solar	0
161425	7	Sololá	713	San Lucas Tolimán	10	San Lucas Tolimán	11	Noviembre	2023-11-26T00:00:00	2024-11-08T04:00:00	2	Temperatura media	16.9
161426	7	Sololá	713	San Lucas Tolimán	10	San Lucas Tolimán	11	Noviembre	2023-11-26T00:00:00	2024-11-08T04:00:00	4	Temperatura máxima	17.8
161427	7	Sololá	713	San Lucas Tolimán	10	San Lucas Tolimán	11	Noviembre	2023-11-26T00:00:00	2024-11-08T04:00:00	3	Temperatura mínima	16.9
161428	7	Sololá	713	San Lucas Tolimán	10	San Lucas Tolimán	11	Noviembre	2023-11-26T00:00:00	2024-11-08T04:00:00	5	Humedad	59
161429	7	Sololá	713	San Lucas Tolimán	10	San Lucas Tolimán	11	Noviembre	2023-11-26T00:00:00	2024-11-08T04:00:00	6	Velocidad del viento	0
161430	7	Sololá	713	San Lucas Tolimán	10	San Lucas Tolimán	11	Noviembre	2023-11-26T00:00:00	2024-11-08T04:00:00	7	Dirección del viento	0
161431	7	Sololá	713	San Lucas Tolimán	10	San Lucas Tolimán	11	Noviembre	2023-11-26T00:00:00	2024-11-08T04:00:00	1	Precipitación	0
161432	7	Sololá	713	San Lucas Tolimán	10	San Lucas Tolimán	11	Noviembre	2023-11-26T00:00:00	2024-11-08T04:00:00	8	Radiación solar	0
161433	7	Sololá	713	San Lucas Tolimán	10	San Lucas Tolimán	11	Noviembre	2023-11-26T00:00:00	2024-11-08T05:00:00	2	Temperatura media	15.6
161434	7	Sololá	713	San Lucas Tolimán	10	San Lucas Tolimán	11	Noviembre	2023-11-26T00:00:00	2024-11-08T05:00:00	4	Temperatura máxima	17.1
161435	7	Sololá	713	San Lucas Tolimán	10	San Lucas Tolimán	11	Noviembre	2023-11-26T00:00:00	2024-11-08T05:00:00	3	Temperatura mínima	15.6
161436	7	Sololá	713	San Lucas Tolimán	10	San Lucas Tolimán	11	Noviembre	2023-11-26T00:00:00	2024-11-08T05:00:00	5	Humedad	61
161437	7	Sololá	713	San Lucas Tolimán	10	San Lucas Tolimán	11	Noviembre	2023-11-26T00:00:00	2024-11-08T05:00:00	6	Velocidad del viento	0
161438	7	Sololá	713	San Lucas Tolimán	10	San Lucas Tolimán	11	Noviembre	2023-11-26T00:00:00	2024-11-08T05:00:00	7	Dirección del viento	0
161439	7	Sololá	713	San Lucas Tolimán	10	San Lucas Tolimán	11	Noviembre	2023-11-26T00:00:00	2024-11-08T05:00:00	1	Precipitación	0
161440	7	Sololá	713	San Lucas Tolimán	10	San Lucas Tolimán	11	Noviembre	2023-11-26T00:00:00	2024-11-08T05:00:00	8	Radiación solar	0
161441	7	Sololá	713	San Lucas Tolimán	10	San Lucas Tolimán	11	Noviembre	2023-11-26T00:00:00	2024-11-08T06:00:00	2	Temperatura media	16.2
161442	7	Sololá	713	San Lucas Tolimán	10	San Lucas Tolimán	11	Noviembre	2023-11-26T00:00:00	2024-11-08T06:00:00	4	Temperatura máxima	16.3
161443	7	Sololá	713	San Lucas Tolimán	10	San Lucas Tolimán	11	Noviembre	2023-11-26T00:00:00	2024-11-08T06:00:00	3	Temperatura mínima	15.3
161444	7	Sololá	713	San Lucas Tolimán	10	San Lucas Tolimán	11	Noviembre	2023-11-26T00:00:00	2024-11-08T06:00:00	5	Humedad	58
161445	7	Sololá	713	San Lucas Tolimán	10	San Lucas Tolimán	11	Noviembre	2023-11-26T00:00:00	2024-11-08T06:00:00	6	Velocidad del viento	0
161446	7	Sololá	713	San Lucas Tolimán	10	San Lucas Tolimán	11	Noviembre	2023-11-26T00:00:00	2024-11-08T06:00:00	7	Dirección del viento	0
161447	7	Sololá	713	San Lucas Tolimán	10	San Lucas Tolimán	11	Noviembre	2023-11-26T00:00:00	2024-11-08T06:00:00	1	Precipitación	0
161448	7	Sololá	713	San Lucas Tolimán	10	San Lucas Tolimán	11	Noviembre	2023-11-26T00:00:00	2024-11-08T06:00:00	8	Radiación solar	0
161449	7	Sololá	713	San Lucas Tolimán	10	San Lucas Tolimán	11	Noviembre	2023-11-26T00:00:00	2024-11-08T07:00:00	2	Temperatura media	15.6
161450	7	Sololá	713	San Lucas Tolimán	10	San Lucas Tolimán	11	Noviembre	2023-11-26T00:00:00	2024-11-08T07:00:00	4	Temperatura máxima	16.2
161451	7	Sololá	713	San Lucas Tolimán	10	San Lucas Tolimán	11	Noviembre	2023-11-26T00:00:00	2024-11-08T07:00:00	3	Temperatura mínima	15.6
161452	7	Sololá	713	San Lucas Tolimán	10	San Lucas Tolimán	11	Noviembre	2023-11-26T00:00:00	2024-11-08T07:00:00	5	Humedad	60
161453	7	Sololá	713	San Lucas Tolimán	10	San Lucas Tolimán	11	Noviembre	2023-11-26T00:00:00	2024-11-08T07:00:00	6	Velocidad del viento	0
161454	7	Sololá	713	San Lucas Tolimán	10	San Lucas Tolimán	11	Noviembre	2023-11-26T00:00:00	2024-11-08T07:00:00	7	Dirección del viento	0
161455	7	Sololá	713	San Lucas Tolimán	10	San Lucas Tolimán	11	Noviembre	2023-11-26T00:00:00	2024-11-08T07:00:00	1	Precipitación	0
161456	7	Sololá	713	San Lucas Tolimán	10	San Lucas Tolimán	11	Noviembre	2023-11-26T00:00:00	2024-11-08T07:00:00	8	Radiación solar	11
161457	7	Sololá	713	San Lucas Tolimán	10	San Lucas Tolimán	11	Noviembre	2023-11-26T00:00:00	2024-11-08T08:00:00	2	Temperatura media	17.3
161458	7	Sololá	713	San Lucas Tolimán	10	San Lucas Tolimán	11	Noviembre	2023-11-26T00:00:00	2024-11-08T08:00:00	4	Temperatura máxima	17.3
161459	7	Sololá	713	San Lucas Tolimán	10	San Lucas Tolimán	11	Noviembre	2023-11-26T00:00:00	2024-11-08T08:00:00	3	Temperatura mínima	15.6
161460	7	Sololá	713	San Lucas Tolimán	10	San Lucas Tolimán	11	Noviembre	2023-11-26T00:00:00	2024-11-08T08:00:00	5	Humedad	56
161461	7	Sololá	713	San Lucas Tolimán	10	San Lucas Tolimán	11	Noviembre	2023-11-26T00:00:00	2024-11-08T08:00:00	6	Velocidad del viento	0
161462	7	Sololá	713	San Lucas Tolimán	10	San Lucas Tolimán	11	Noviembre	2023-11-26T00:00:00	2024-11-08T08:00:00	7	Dirección del viento	0
161463	7	Sololá	713	San Lucas Tolimán	10	San Lucas Tolimán	11	Noviembre	2023-11-26T00:00:00	2024-11-08T08:00:00	1	Precipitación	0
161464	7	Sololá	713	San Lucas Tolimán	10	San Lucas Tolimán	11	Noviembre	2023-11-26T00:00:00	2024-11-08T08:00:00	8	Radiación solar	31
161465	7	Sololá	713	San Lucas Tolimán	10	San Lucas Tolimán	11	Noviembre	2023-11-26T00:00:00	2024-11-08T09:00:00	2	Temperatura media	22.4
161466	7	Sololá	713	San Lucas Tolimán	10	San Lucas Tolimán	11	Noviembre	2023-11-26T00:00:00	2024-11-08T09:00:00	4	Temperatura máxima	22.4
161467	7	Sololá	713	San Lucas Tolimán	10	San Lucas Tolimán	11	Noviembre	2023-11-26T00:00:00	2024-11-08T09:00:00	3	Temperatura mínima	17.2
161468	7	Sololá	713	San Lucas Tolimán	10	San Lucas Tolimán	11	Noviembre	2023-11-26T00:00:00	2024-11-08T09:00:00	5	Humedad	49
161469	7	Sololá	713	San Lucas Tolimán	10	San Lucas Tolimán	11	Noviembre	2023-11-26T00:00:00	2024-11-08T09:00:00	6	Velocidad del viento	1.6
161470	7	Sololá	713	San Lucas Tolimán	10	San Lucas Tolimán	11	Noviembre	2023-11-26T00:00:00	2024-11-08T09:00:00	7	Dirección del viento	1.61
161471	7	Sololá	713	San Lucas Tolimán	10	San Lucas Tolimán	11	Noviembre	2023-11-26T00:00:00	2024-11-08T09:00:00	1	Precipitación	0
161472	7	Sololá	713	San Lucas Tolimán	10	San Lucas Tolimán	11	Noviembre	2023-11-26T00:00:00	2024-11-08T09:00:00	8	Radiación solar	397
161473	7	Sololá	713	San Lucas Tolimán	10	San Lucas Tolimán	11	Noviembre	2023-11-26T00:00:00	2024-11-08T10:00:00	2	Temperatura media	23.9
161474	7	Sololá	713	San Lucas Tolimán	10	San Lucas Tolimán	11	Noviembre	2023-11-26T00:00:00	2024-11-08T10:00:00	4	Temperatura máxima	24.8
161475	7	Sololá	713	San Lucas Tolimán	10	San Lucas Tolimán	11	Noviembre	2023-11-26T00:00:00	2024-11-08T10:00:00	3	Temperatura mínima	22.4
161476	7	Sololá	713	San Lucas Tolimán	10	San Lucas Tolimán	11	Noviembre	2023-11-26T00:00:00	2024-11-08T10:00:00	5	Humedad	51
161477	7	Sololá	713	San Lucas Tolimán	10	San Lucas Tolimán	11	Noviembre	2023-11-26T00:00:00	2024-11-08T10:00:00	6	Velocidad del viento	3.2
161478	7	Sololá	713	San Lucas Tolimán	10	San Lucas Tolimán	11	Noviembre	2023-11-26T00:00:00	2024-11-08T10:00:00	7	Dirección del viento	3.22
161479	7	Sololá	713	San Lucas Tolimán	10	San Lucas Tolimán	11	Noviembre	2023-11-26T00:00:00	2024-11-08T10:00:00	1	Precipitación	0
161480	7	Sololá	713	San Lucas Tolimán	10	San Lucas Tolimán	11	Noviembre	2023-11-26T00:00:00	2024-11-08T10:00:00	8	Radiación solar	660
161481	7	Sololá	713	San Lucas Tolimán	10	San Lucas Tolimán	11	Noviembre	2023-11-26T00:00:00	2024-11-08T11:00:00	2	Temperatura media	23.5
161482	7	Sololá	713	San Lucas Tolimán	10	San Lucas Tolimán	11	Noviembre	2023-11-26T00:00:00	2024-11-08T11:00:00	4	Temperatura máxima	23.9
161483	7	Sololá	713	San Lucas Tolimán	10	San Lucas Tolimán	11	Noviembre	2023-11-26T00:00:00	2024-11-08T11:00:00	3	Temperatura mínima	23.5
161484	7	Sololá	713	San Lucas Tolimán	10	San Lucas Tolimán	11	Noviembre	2023-11-26T00:00:00	2024-11-08T11:00:00	5	Humedad	54
161485	7	Sololá	713	San Lucas Tolimán	10	San Lucas Tolimán	11	Noviembre	2023-11-26T00:00:00	2024-11-08T11:00:00	6	Velocidad del viento	6.4
161486	7	Sololá	713	San Lucas Tolimán	10	San Lucas Tolimán	11	Noviembre	2023-11-26T00:00:00	2024-11-08T11:00:00	7	Dirección del viento	6.44
161487	7	Sololá	713	San Lucas Tolimán	10	San Lucas Tolimán	11	Noviembre	2023-11-26T00:00:00	2024-11-08T11:00:00	1	Precipitación	0
161488	7	Sololá	713	San Lucas Tolimán	10	San Lucas Tolimán	11	Noviembre	2023-11-26T00:00:00	2024-11-08T11:00:00	8	Radiación solar	803
161489	7	Sololá	713	San Lucas Tolimán	10	San Lucas Tolimán	11	Noviembre	2023-11-26T00:00:00	2024-11-08T12:00:00	2	Temperatura media	24.1
161490	7	Sololá	713	San Lucas Tolimán	10	San Lucas Tolimán	11	Noviembre	2023-11-26T00:00:00	2024-11-08T12:00:00	4	Temperatura máxima	24.7
161491	7	Sololá	713	San Lucas Tolimán	10	San Lucas Tolimán	11	Noviembre	2023-11-26T00:00:00	2024-11-08T12:00:00	3	Temperatura mínima	23.5
161492	7	Sololá	713	San Lucas Tolimán	10	San Lucas Tolimán	11	Noviembre	2023-11-26T00:00:00	2024-11-08T12:00:00	5	Humedad	55
161493	7	Sololá	713	San Lucas Tolimán	10	San Lucas Tolimán	11	Noviembre	2023-11-26T00:00:00	2024-11-08T12:00:00	6	Velocidad del viento	8
161494	7	Sololá	713	San Lucas Tolimán	10	San Lucas Tolimán	11	Noviembre	2023-11-26T00:00:00	2024-11-08T12:00:00	7	Dirección del viento	8.05
161495	7	Sololá	713	San Lucas Tolimán	10	San Lucas Tolimán	11	Noviembre	2023-11-26T00:00:00	2024-11-08T12:00:00	1	Precipitación	0
161496	7	Sololá	713	San Lucas Tolimán	10	San Lucas Tolimán	11	Noviembre	2023-11-26T00:00:00	2024-11-08T12:00:00	8	Radiación solar	934
161497	7	Sololá	713	San Lucas Tolimán	10	San Lucas Tolimán	11	Noviembre	2023-11-26T00:00:00	2024-11-08T13:00:00	2	Temperatura media	23.6
161498	7	Sololá	713	San Lucas Tolimán	10	San Lucas Tolimán	11	Noviembre	2023-11-26T00:00:00	2024-11-08T13:00:00	4	Temperatura máxima	24.1
161499	7	Sololá	713	San Lucas Tolimán	10	San Lucas Tolimán	11	Noviembre	2023-11-26T00:00:00	2024-11-08T13:00:00	3	Temperatura mínima	21.8
161500	7	Sololá	713	San Lucas Tolimán	10	San Lucas Tolimán	11	Noviembre	2023-11-26T00:00:00	2024-11-08T13:00:00	5	Humedad	56
161501	7	Sololá	713	San Lucas Tolimán	10	San Lucas Tolimán	11	Noviembre	2023-11-26T00:00:00	2024-11-08T13:00:00	6	Velocidad del viento	11.3
161502	7	Sololá	713	San Lucas Tolimán	10	San Lucas Tolimán	11	Noviembre	2023-11-26T00:00:00	2024-11-08T13:00:00	7	Dirección del viento	11.27
161503	7	Sololá	713	San Lucas Tolimán	10	San Lucas Tolimán	11	Noviembre	2023-11-26T00:00:00	2024-11-08T13:00:00	1	Precipitación	0
161504	7	Sololá	713	San Lucas Tolimán	10	San Lucas Tolimán	11	Noviembre	2023-11-26T00:00:00	2024-11-08T13:00:00	8	Radiación solar	746
161505	7	Sololá	713	San Lucas Tolimán	10	San Lucas Tolimán	11	Noviembre	2023-11-26T00:00:00	2024-11-08T14:00:00	2	Temperatura media	23.6
161506	7	Sololá	713	San Lucas Tolimán	10	San Lucas Tolimán	11	Noviembre	2023-11-26T00:00:00	2024-11-08T14:00:00	4	Temperatura máxima	24.3
161507	7	Sololá	713	San Lucas Tolimán	10	San Lucas Tolimán	11	Noviembre	2023-11-26T00:00:00	2024-11-08T14:00:00	3	Temperatura mínima	23.4
161508	7	Sololá	713	San Lucas Tolimán	10	San Lucas Tolimán	11	Noviembre	2023-11-26T00:00:00	2024-11-08T14:00:00	5	Humedad	58
161509	7	Sololá	713	San Lucas Tolimán	10	San Lucas Tolimán	11	Noviembre	2023-11-26T00:00:00	2024-11-08T14:00:00	6	Velocidad del viento	11.3
161510	7	Sololá	713	San Lucas Tolimán	10	San Lucas Tolimán	11	Noviembre	2023-11-26T00:00:00	2024-11-08T14:00:00	7	Dirección del viento	11.27
161511	7	Sololá	713	San Lucas Tolimán	10	San Lucas Tolimán	11	Noviembre	2023-11-26T00:00:00	2024-11-08T14:00:00	1	Precipitación	0
161512	7	Sololá	713	San Lucas Tolimán	10	San Lucas Tolimán	11	Noviembre	2023-11-26T00:00:00	2024-11-08T14:00:00	8	Radiación solar	805
161513	7	Sololá	713	San Lucas Tolimán	10	San Lucas Tolimán	11	Noviembre	2023-11-26T00:00:00	2024-11-08T15:00:00	2	Temperatura media	22.4
161514	7	Sololá	713	San Lucas Tolimán	10	San Lucas Tolimán	11	Noviembre	2023-11-26T00:00:00	2024-11-08T15:00:00	4	Temperatura máxima	23.6
161515	7	Sololá	713	San Lucas Tolimán	10	San Lucas Tolimán	11	Noviembre	2023-11-26T00:00:00	2024-11-08T15:00:00	3	Temperatura mínima	22.3
161516	7	Sololá	713	San Lucas Tolimán	10	San Lucas Tolimán	11	Noviembre	2023-11-26T00:00:00	2024-11-08T15:00:00	5	Humedad	61
161517	7	Sololá	713	San Lucas Tolimán	10	San Lucas Tolimán	11	Noviembre	2023-11-26T00:00:00	2024-11-08T15:00:00	6	Velocidad del viento	11.3
161518	7	Sololá	713	San Lucas Tolimán	10	San Lucas Tolimán	11	Noviembre	2023-11-26T00:00:00	2024-11-08T15:00:00	7	Dirección del viento	11.27
161519	7	Sololá	713	San Lucas Tolimán	10	San Lucas Tolimán	11	Noviembre	2023-11-26T00:00:00	2024-11-08T15:00:00	1	Precipitación	0
161520	7	Sololá	713	San Lucas Tolimán	10	San Lucas Tolimán	11	Noviembre	2023-11-26T00:00:00	2024-11-08T15:00:00	8	Radiación solar	663
161521	7	Sololá	713	San Lucas Tolimán	10	San Lucas Tolimán	11	Noviembre	2023-11-26T00:00:00	2024-11-08T16:00:00	2	Temperatura media	21
161522	7	Sololá	713	San Lucas Tolimán	10	San Lucas Tolimán	11	Noviembre	2023-11-26T00:00:00	2024-11-08T16:00:00	4	Temperatura máxima	22.8
161523	7	Sololá	713	San Lucas Tolimán	10	San Lucas Tolimán	11	Noviembre	2023-11-26T00:00:00	2024-11-08T16:00:00	3	Temperatura mínima	21
161524	7	Sololá	713	San Lucas Tolimán	10	San Lucas Tolimán	11	Noviembre	2023-11-26T00:00:00	2024-11-08T16:00:00	5	Humedad	60
161525	7	Sololá	713	San Lucas Tolimán	10	San Lucas Tolimán	11	Noviembre	2023-11-26T00:00:00	2024-11-08T16:00:00	6	Velocidad del viento	11.3
161526	7	Sololá	713	San Lucas Tolimán	10	San Lucas Tolimán	11	Noviembre	2023-11-26T00:00:00	2024-11-08T16:00:00	7	Dirección del viento	11.27
161527	7	Sololá	713	San Lucas Tolimán	10	San Lucas Tolimán	11	Noviembre	2023-11-26T00:00:00	2024-11-08T16:00:00	1	Precipitación	0
161528	7	Sololá	713	San Lucas Tolimán	10	San Lucas Tolimán	11	Noviembre	2023-11-26T00:00:00	2024-11-08T16:00:00	8	Radiación solar	348
161529	7	Sololá	713	San Lucas Tolimán	10	San Lucas Tolimán	11	Noviembre	2023-11-26T00:00:00	2024-11-08T17:00:00	2	Temperatura media	20.5
161530	7	Sololá	713	San Lucas Tolimán	10	San Lucas Tolimán	11	Noviembre	2023-11-26T00:00:00	2024-11-08T17:00:00	4	Temperatura máxima	21.4
161531	7	Sololá	713	San Lucas Tolimán	10	San Lucas Tolimán	11	Noviembre	2023-11-26T00:00:00	2024-11-08T17:00:00	3	Temperatura mínima	20.5
161532	7	Sololá	713	San Lucas Tolimán	10	San Lucas Tolimán	11	Noviembre	2023-11-26T00:00:00	2024-11-08T17:00:00	5	Humedad	59
161533	7	Sololá	713	San Lucas Tolimán	10	San Lucas Tolimán	11	Noviembre	2023-11-26T00:00:00	2024-11-08T17:00:00	6	Velocidad del viento	8
161534	7	Sololá	713	San Lucas Tolimán	10	San Lucas Tolimán	11	Noviembre	2023-11-26T00:00:00	2024-11-08T17:00:00	7	Dirección del viento	8.05
161535	7	Sololá	713	San Lucas Tolimán	10	San Lucas Tolimán	11	Noviembre	2023-11-26T00:00:00	2024-11-08T17:00:00	1	Precipitación	0
161536	7	Sololá	713	San Lucas Tolimán	10	San Lucas Tolimán	11	Noviembre	2023-11-26T00:00:00	2024-11-08T17:00:00	8	Radiación solar	117
161537	7	Sololá	713	San Lucas Tolimán	10	San Lucas Tolimán	11	Noviembre	2023-11-26T00:00:00	2024-11-08T18:00:00	2	Temperatura media	19.2
161538	7	Sololá	713	San Lucas Tolimán	10	San Lucas Tolimán	11	Noviembre	2023-11-26T00:00:00	2024-11-08T18:00:00	4	Temperatura máxima	20.5
161539	7	Sololá	713	San Lucas Tolimán	10	San Lucas Tolimán	11	Noviembre	2023-11-26T00:00:00	2024-11-08T18:00:00	3	Temperatura mínima	19.2
161540	7	Sololá	713	San Lucas Tolimán	10	San Lucas Tolimán	11	Noviembre	2023-11-26T00:00:00	2024-11-08T18:00:00	5	Humedad	59
161541	7	Sololá	713	San Lucas Tolimán	10	San Lucas Tolimán	11	Noviembre	2023-11-26T00:00:00	2024-11-08T18:00:00	6	Velocidad del viento	4.8
161542	7	Sololá	713	San Lucas Tolimán	10	San Lucas Tolimán	11	Noviembre	2023-11-26T00:00:00	2024-11-08T18:00:00	7	Dirección del viento	4.83
161543	7	Sololá	713	San Lucas Tolimán	10	San Lucas Tolimán	11	Noviembre	2023-11-26T00:00:00	2024-11-08T18:00:00	1	Precipitación	0
161544	7	Sololá	713	San Lucas Tolimán	10	San Lucas Tolimán	11	Noviembre	2023-11-26T00:00:00	2024-11-08T18:00:00	8	Radiación solar	11
161545	7	Sololá	713	San Lucas Tolimán	10	San Lucas Tolimán	11	Noviembre	2023-11-26T00:00:00	2024-11-08T19:00:00	2	Temperatura media	17.9
161546	7	Sololá	713	San Lucas Tolimán	10	San Lucas Tolimán	11	Noviembre	2023-11-26T00:00:00	2024-11-08T19:00:00	4	Temperatura máxima	19.2
161547	7	Sololá	713	San Lucas Tolimán	10	San Lucas Tolimán	11	Noviembre	2023-11-26T00:00:00	2024-11-08T19:00:00	3	Temperatura mínima	17.9
161548	7	Sololá	713	San Lucas Tolimán	10	San Lucas Tolimán	11	Noviembre	2023-11-26T00:00:00	2024-11-08T19:00:00	5	Humedad	58
161549	7	Sololá	713	San Lucas Tolimán	10	San Lucas Tolimán	11	Noviembre	2023-11-26T00:00:00	2024-11-08T19:00:00	6	Velocidad del viento	3.2
161550	7	Sololá	713	San Lucas Tolimán	10	San Lucas Tolimán	11	Noviembre	2023-11-26T00:00:00	2024-11-08T19:00:00	7	Dirección del viento	3.22
161551	7	Sololá	713	San Lucas Tolimán	10	San Lucas Tolimán	11	Noviembre	2023-11-26T00:00:00	2024-11-08T19:00:00	1	Precipitación	0
161552	7	Sololá	713	San Lucas Tolimán	10	San Lucas Tolimán	11	Noviembre	2023-11-26T00:00:00	2024-11-08T19:00:00	8	Radiación solar	0
161553	7	Sololá	713	San Lucas Tolimán	10	San Lucas Tolimán	11	Noviembre	2023-11-26T00:00:00	2024-11-08T20:00:00	2	Temperatura media	17.8
161554	7	Sololá	713	San Lucas Tolimán	10	San Lucas Tolimán	11	Noviembre	2023-11-26T00:00:00	2024-11-08T20:00:00	4	Temperatura máxima	18
161555	7	Sololá	713	San Lucas Tolimán	10	San Lucas Tolimán	11	Noviembre	2023-11-26T00:00:00	2024-11-08T20:00:00	3	Temperatura mínima	17.8
161556	7	Sololá	713	San Lucas Tolimán	10	San Lucas Tolimán	11	Noviembre	2023-11-26T00:00:00	2024-11-08T20:00:00	5	Humedad	56
161557	7	Sololá	713	San Lucas Tolimán	10	San Lucas Tolimán	11	Noviembre	2023-11-26T00:00:00	2024-11-08T20:00:00	6	Velocidad del viento	0
161558	7	Sololá	713	San Lucas Tolimán	10	San Lucas Tolimán	11	Noviembre	2023-11-26T00:00:00	2024-11-08T20:00:00	7	Dirección del viento	0
161559	7	Sololá	713	San Lucas Tolimán	10	San Lucas Tolimán	11	Noviembre	2023-11-26T00:00:00	2024-11-08T20:00:00	1	Precipitación	0
161560	7	Sololá	713	San Lucas Tolimán	10	San Lucas Tolimán	11	Noviembre	2023-11-26T00:00:00	2024-11-08T20:00:00	8	Radiación solar	0
161561	7	Sololá	713	San Lucas Tolimán	10	San Lucas Tolimán	11	Noviembre	2023-11-26T00:00:00	2024-11-08T21:00:00	2	Temperatura media	19.8
161562	7	Sololá	713	San Lucas Tolimán	10	San Lucas Tolimán	11	Noviembre	2023-11-26T00:00:00	2024-11-08T21:00:00	4	Temperatura máxima	19.8
161563	7	Sololá	713	San Lucas Tolimán	10	San Lucas Tolimán	11	Noviembre	2023-11-26T00:00:00	2024-11-08T21:00:00	3	Temperatura mínima	17.8
161564	7	Sololá	713	San Lucas Tolimán	10	San Lucas Tolimán	11	Noviembre	2023-11-26T00:00:00	2024-11-08T21:00:00	5	Humedad	55
161565	7	Sololá	713	San Lucas Tolimán	10	San Lucas Tolimán	11	Noviembre	2023-11-26T00:00:00	2024-11-08T21:00:00	6	Velocidad del viento	1.6
161566	7	Sololá	713	San Lucas Tolimán	10	San Lucas Tolimán	11	Noviembre	2023-11-26T00:00:00	2024-11-08T21:00:00	7	Dirección del viento	1.61
161567	7	Sololá	713	San Lucas Tolimán	10	San Lucas Tolimán	11	Noviembre	2023-11-26T00:00:00	2024-11-08T21:00:00	1	Precipitación	0
161568	7	Sololá	713	San Lucas Tolimán	10	San Lucas Tolimán	11	Noviembre	2023-11-26T00:00:00	2024-11-08T21:00:00	8	Radiación solar	0
161569	7	Sololá	713	San Lucas Tolimán	10	San Lucas Tolimán	11	Noviembre	2023-11-26T00:00:00	2024-11-08T22:00:00	2	Temperatura media	19.8
161570	7	Sololá	713	San Lucas Tolimán	10	San Lucas Tolimán	11	Noviembre	2023-11-26T00:00:00	2024-11-08T22:00:00	4	Temperatura máxima	20.3
161571	7	Sololá	713	San Lucas Tolimán	10	San Lucas Tolimán	11	Noviembre	2023-11-26T00:00:00	2024-11-08T22:00:00	3	Temperatura mínima	19.7
161572	7	Sololá	713	San Lucas Tolimán	10	San Lucas Tolimán	11	Noviembre	2023-11-26T00:00:00	2024-11-08T22:00:00	5	Humedad	56
161573	7	Sololá	713	San Lucas Tolimán	10	San Lucas Tolimán	11	Noviembre	2023-11-26T00:00:00	2024-11-08T22:00:00	6	Velocidad del viento	3.2
161574	7	Sololá	713	San Lucas Tolimán	10	San Lucas Tolimán	11	Noviembre	2023-11-26T00:00:00	2024-11-08T22:00:00	7	Dirección del viento	3.22
161575	7	Sololá	713	San Lucas Tolimán	10	San Lucas Tolimán	11	Noviembre	2023-11-26T00:00:00	2024-11-08T22:00:00	1	Precipitación	0
161576	7	Sololá	713	San Lucas Tolimán	10	San Lucas Tolimán	11	Noviembre	2023-11-26T00:00:00	2024-11-08T22:00:00	8	Radiación solar	0
161577	7	Sololá	713	San Lucas Tolimán	10	San Lucas Tolimán	11	Noviembre	2023-11-26T00:00:00	2024-11-08T23:00:00	2	Temperatura media	20.1
161578	7	Sololá	713	San Lucas Tolimán	10	San Lucas Tolimán	11	Noviembre	2023-11-26T00:00:00	2024-11-08T23:00:00	4	Temperatura máxima	20.2
161579	7	Sololá	713	San Lucas Tolimán	10	San Lucas Tolimán	11	Noviembre	2023-11-26T00:00:00	2024-11-08T23:00:00	3	Temperatura mínima	19.7
161580	7	Sololá	713	San Lucas Tolimán	10	San Lucas Tolimán	11	Noviembre	2023-11-26T00:00:00	2024-11-08T23:00:00	5	Humedad	54
161581	7	Sololá	713	San Lucas Tolimán	10	San Lucas Tolimán	11	Noviembre	2023-11-26T00:00:00	2024-11-08T23:00:00	6	Velocidad del viento	9.7
161582	7	Sololá	713	San Lucas Tolimán	10	San Lucas Tolimán	11	Noviembre	2023-11-26T00:00:00	2024-11-08T23:00:00	7	Dirección del viento	9.66
161583	7	Sololá	713	San Lucas Tolimán	10	San Lucas Tolimán	11	Noviembre	2023-11-26T00:00:00	2024-11-08T23:00:00	1	Precipitación	0
161584	7	Sololá	713	San Lucas Tolimán	10	San Lucas Tolimán	11	Noviembre	2023-11-26T00:00:00	2024-11-08T23:00:00	8	Radiación solar	0
161585	7	Sololá	713	San Lucas Tolimán	10	San Lucas Tolimán	11	Noviembre	2023-11-27T00:00:00	2024-11-08T00:00:00	2	Temperatura media	19.7
161586	7	Sololá	713	San Lucas Tolimán	10	San Lucas Tolimán	11	Noviembre	2023-11-27T00:00:00	2024-11-08T00:00:00	4	Temperatura máxima	20.1
161587	7	Sololá	713	San Lucas Tolimán	10	San Lucas Tolimán	11	Noviembre	2023-11-27T00:00:00	2024-11-08T00:00:00	3	Temperatura mínima	19.7
161588	7	Sololá	713	San Lucas Tolimán	10	San Lucas Tolimán	11	Noviembre	2023-11-27T00:00:00	2024-11-08T00:00:00	5	Humedad	53
161589	7	Sololá	713	San Lucas Tolimán	10	San Lucas Tolimán	11	Noviembre	2023-11-27T00:00:00	2024-11-08T00:00:00	6	Velocidad del viento	11.3
161590	7	Sololá	713	San Lucas Tolimán	10	San Lucas Tolimán	11	Noviembre	2023-11-27T00:00:00	2024-11-08T00:00:00	7	Dirección del viento	11.27
161591	7	Sololá	713	San Lucas Tolimán	10	San Lucas Tolimán	11	Noviembre	2023-11-27T00:00:00	2024-11-08T00:00:00	1	Precipitación	0
161592	7	Sololá	713	San Lucas Tolimán	10	San Lucas Tolimán	11	Noviembre	2023-11-27T00:00:00	2024-11-08T00:00:00	8	Radiación solar	0
161593	7	Sololá	713	San Lucas Tolimán	10	San Lucas Tolimán	11	Noviembre	2023-11-27T00:00:00	2024-11-08T01:00:00	2	Temperatura media	19.5
161594	7	Sololá	713	San Lucas Tolimán	10	San Lucas Tolimán	11	Noviembre	2023-11-27T00:00:00	2024-11-08T01:00:00	4	Temperatura máxima	19.8
161595	7	Sololá	713	San Lucas Tolimán	10	San Lucas Tolimán	11	Noviembre	2023-11-27T00:00:00	2024-11-08T01:00:00	3	Temperatura mínima	19.2
161596	7	Sololá	713	San Lucas Tolimán	10	San Lucas Tolimán	11	Noviembre	2023-11-27T00:00:00	2024-11-08T01:00:00	5	Humedad	51
161597	7	Sololá	713	San Lucas Tolimán	10	San Lucas Tolimán	11	Noviembre	2023-11-27T00:00:00	2024-11-08T01:00:00	6	Velocidad del viento	9.7
161598	7	Sololá	713	San Lucas Tolimán	10	San Lucas Tolimán	11	Noviembre	2023-11-27T00:00:00	2024-11-08T01:00:00	7	Dirección del viento	9.66
161599	7	Sololá	713	San Lucas Tolimán	10	San Lucas Tolimán	11	Noviembre	2023-11-27T00:00:00	2024-11-08T01:00:00	1	Precipitación	0
161600	7	Sololá	713	San Lucas Tolimán	10	San Lucas Tolimán	11	Noviembre	2023-11-27T00:00:00	2024-11-08T01:00:00	8	Radiación solar	0
161601	7	Sololá	713	San Lucas Tolimán	10	San Lucas Tolimán	11	Noviembre	2023-11-27T00:00:00	2024-11-08T02:00:00	2	Temperatura media	19.2
161602	7	Sololá	713	San Lucas Tolimán	10	San Lucas Tolimán	11	Noviembre	2023-11-27T00:00:00	2024-11-08T02:00:00	4	Temperatura máxima	19.6
161603	7	Sololá	713	San Lucas Tolimán	10	San Lucas Tolimán	11	Noviembre	2023-11-27T00:00:00	2024-11-08T02:00:00	3	Temperatura mínima	19.1
161604	7	Sololá	713	San Lucas Tolimán	10	San Lucas Tolimán	11	Noviembre	2023-11-27T00:00:00	2024-11-08T02:00:00	5	Humedad	52
161605	7	Sololá	713	San Lucas Tolimán	10	San Lucas Tolimán	11	Noviembre	2023-11-27T00:00:00	2024-11-08T02:00:00	6	Velocidad del viento	9.7
161606	7	Sololá	713	San Lucas Tolimán	10	San Lucas Tolimán	11	Noviembre	2023-11-27T00:00:00	2024-11-08T02:00:00	7	Dirección del viento	9.66
161607	7	Sololá	713	San Lucas Tolimán	10	San Lucas Tolimán	11	Noviembre	2023-11-27T00:00:00	2024-11-08T02:00:00	1	Precipitación	0
161608	7	Sololá	713	San Lucas Tolimán	10	San Lucas Tolimán	11	Noviembre	2023-11-27T00:00:00	2024-11-08T02:00:00	8	Radiación solar	0
161609	7	Sololá	713	San Lucas Tolimán	10	San Lucas Tolimán	11	Noviembre	2023-11-27T00:00:00	2024-11-08T03:00:00	2	Temperatura media	18.3
161610	7	Sololá	713	San Lucas Tolimán	10	San Lucas Tolimán	11	Noviembre	2023-11-27T00:00:00	2024-11-08T03:00:00	4	Temperatura máxima	19.2
161611	7	Sololá	713	San Lucas Tolimán	10	San Lucas Tolimán	11	Noviembre	2023-11-27T00:00:00	2024-11-08T03:00:00	3	Temperatura mínima	17.9
161612	7	Sololá	713	San Lucas Tolimán	10	San Lucas Tolimán	11	Noviembre	2023-11-27T00:00:00	2024-11-08T03:00:00	5	Humedad	55
161613	7	Sololá	713	San Lucas Tolimán	10	San Lucas Tolimán	11	Noviembre	2023-11-27T00:00:00	2024-11-08T03:00:00	6	Velocidad del viento	4.8
161614	7	Sololá	713	San Lucas Tolimán	10	San Lucas Tolimán	11	Noviembre	2023-11-27T00:00:00	2024-11-08T03:00:00	7	Dirección del viento	4.83
161615	7	Sololá	713	San Lucas Tolimán	10	San Lucas Tolimán	11	Noviembre	2023-11-27T00:00:00	2024-11-08T03:00:00	1	Precipitación	0
161616	7	Sololá	713	San Lucas Tolimán	10	San Lucas Tolimán	11	Noviembre	2023-11-27T00:00:00	2024-11-08T03:00:00	8	Radiación solar	0
161617	7	Sololá	713	San Lucas Tolimán	10	San Lucas Tolimán	11	Noviembre	2023-11-27T00:00:00	2024-11-08T04:00:00	2	Temperatura media	18.3
161618	7	Sololá	713	San Lucas Tolimán	10	San Lucas Tolimán	11	Noviembre	2023-11-27T00:00:00	2024-11-08T04:00:00	4	Temperatura máxima	18.5
161619	7	Sololá	713	San Lucas Tolimán	10	San Lucas Tolimán	11	Noviembre	2023-11-27T00:00:00	2024-11-08T04:00:00	3	Temperatura mínima	18.1
161620	7	Sololá	713	San Lucas Tolimán	10	San Lucas Tolimán	11	Noviembre	2023-11-27T00:00:00	2024-11-08T04:00:00	5	Humedad	54
161621	7	Sololá	713	San Lucas Tolimán	10	San Lucas Tolimán	11	Noviembre	2023-11-27T00:00:00	2024-11-08T04:00:00	6	Velocidad del viento	4.8
161622	7	Sololá	713	San Lucas Tolimán	10	San Lucas Tolimán	11	Noviembre	2023-11-27T00:00:00	2024-11-08T04:00:00	7	Dirección del viento	4.83
161623	7	Sololá	713	San Lucas Tolimán	10	San Lucas Tolimán	11	Noviembre	2023-11-27T00:00:00	2024-11-08T04:00:00	1	Precipitación	0
161624	7	Sololá	713	San Lucas Tolimán	10	San Lucas Tolimán	11	Noviembre	2023-11-27T00:00:00	2024-11-08T04:00:00	8	Radiación solar	0
161625	7	Sololá	713	San Lucas Tolimán	10	San Lucas Tolimán	11	Noviembre	2023-11-27T00:00:00	2024-11-08T05:00:00	2	Temperatura media	18
161626	7	Sololá	713	San Lucas Tolimán	10	San Lucas Tolimán	11	Noviembre	2023-11-27T00:00:00	2024-11-08T05:00:00	4	Temperatura máxima	18.4
161627	7	Sololá	713	San Lucas Tolimán	10	San Lucas Tolimán	11	Noviembre	2023-11-27T00:00:00	2024-11-08T05:00:00	3	Temperatura mínima	18
161628	7	Sololá	713	San Lucas Tolimán	10	San Lucas Tolimán	11	Noviembre	2023-11-27T00:00:00	2024-11-08T05:00:00	5	Humedad	54
161629	7	Sololá	713	San Lucas Tolimán	10	San Lucas Tolimán	11	Noviembre	2023-11-27T00:00:00	2024-11-08T05:00:00	6	Velocidad del viento	4.8
161630	7	Sololá	713	San Lucas Tolimán	10	San Lucas Tolimán	11	Noviembre	2023-11-27T00:00:00	2024-11-08T05:00:00	7	Dirección del viento	4.83
161631	7	Sololá	713	San Lucas Tolimán	10	San Lucas Tolimán	11	Noviembre	2023-11-27T00:00:00	2024-11-08T05:00:00	1	Precipitación	0
161632	7	Sololá	713	San Lucas Tolimán	10	San Lucas Tolimán	11	Noviembre	2023-11-27T00:00:00	2024-11-08T05:00:00	8	Radiación solar	0
161633	7	Sololá	713	San Lucas Tolimán	10	San Lucas Tolimán	11	Noviembre	2023-11-27T00:00:00	2024-11-08T06:00:00	2	Temperatura media	18.8
161634	7	Sololá	713	San Lucas Tolimán	10	San Lucas Tolimán	11	Noviembre	2023-11-27T00:00:00	2024-11-08T06:00:00	4	Temperatura máxima	18.8
161635	7	Sololá	713	San Lucas Tolimán	10	San Lucas Tolimán	11	Noviembre	2023-11-27T00:00:00	2024-11-08T06:00:00	3	Temperatura mínima	17.8
161636	7	Sololá	713	San Lucas Tolimán	10	San Lucas Tolimán	11	Noviembre	2023-11-27T00:00:00	2024-11-08T06:00:00	5	Humedad	48
161637	7	Sololá	713	San Lucas Tolimán	10	San Lucas Tolimán	11	Noviembre	2023-11-27T00:00:00	2024-11-08T06:00:00	6	Velocidad del viento	8
161638	7	Sololá	713	San Lucas Tolimán	10	San Lucas Tolimán	11	Noviembre	2023-11-27T00:00:00	2024-11-08T06:00:00	7	Dirección del viento	8.05
161639	7	Sololá	713	San Lucas Tolimán	10	San Lucas Tolimán	11	Noviembre	2023-11-27T00:00:00	2024-11-08T06:00:00	1	Precipitación	0
161640	7	Sololá	713	San Lucas Tolimán	10	San Lucas Tolimán	11	Noviembre	2023-11-27T00:00:00	2024-11-08T06:00:00	8	Radiación solar	0
161641	7	Sololá	713	San Lucas Tolimán	10	San Lucas Tolimán	11	Noviembre	2023-11-27T00:00:00	2024-11-08T07:00:00	2	Temperatura media	19
161642	7	Sololá	713	San Lucas Tolimán	10	San Lucas Tolimán	11	Noviembre	2023-11-27T00:00:00	2024-11-08T07:00:00	4	Temperatura máxima	19
161643	7	Sololá	713	San Lucas Tolimán	10	San Lucas Tolimán	11	Noviembre	2023-11-27T00:00:00	2024-11-08T07:00:00	3	Temperatura mínima	18
161644	7	Sololá	713	San Lucas Tolimán	10	San Lucas Tolimán	11	Noviembre	2023-11-27T00:00:00	2024-11-08T07:00:00	5	Humedad	49
161645	7	Sololá	713	San Lucas Tolimán	10	San Lucas Tolimán	11	Noviembre	2023-11-27T00:00:00	2024-11-08T07:00:00	6	Velocidad del viento	8
161646	7	Sololá	713	San Lucas Tolimán	10	San Lucas Tolimán	11	Noviembre	2023-11-27T00:00:00	2024-11-08T07:00:00	7	Dirección del viento	8.05
161647	7	Sololá	713	San Lucas Tolimán	10	San Lucas Tolimán	11	Noviembre	2023-11-27T00:00:00	2024-11-08T07:00:00	1	Precipitación	0
161648	7	Sololá	713	San Lucas Tolimán	10	San Lucas Tolimán	11	Noviembre	2023-11-27T00:00:00	2024-11-08T07:00:00	8	Radiación solar	9
161649	7	Sololá	713	San Lucas Tolimán	10	San Lucas Tolimán	11	Noviembre	2023-11-27T00:00:00	2024-11-08T08:00:00	2	Temperatura media	19.2
161650	7	Sololá	713	San Lucas Tolimán	10	San Lucas Tolimán	11	Noviembre	2023-11-27T00:00:00	2024-11-08T08:00:00	4	Temperatura máxima	19.3
161651	7	Sololá	713	San Lucas Tolimán	10	San Lucas Tolimán	11	Noviembre	2023-11-27T00:00:00	2024-11-08T08:00:00	3	Temperatura mínima	18.8
161652	7	Sololá	713	San Lucas Tolimán	10	San Lucas Tolimán	11	Noviembre	2023-11-27T00:00:00	2024-11-08T08:00:00	5	Humedad	52
161653	7	Sololá	713	San Lucas Tolimán	10	San Lucas Tolimán	11	Noviembre	2023-11-27T00:00:00	2024-11-08T08:00:00	6	Velocidad del viento	9.7
161654	7	Sololá	713	San Lucas Tolimán	10	San Lucas Tolimán	11	Noviembre	2023-11-27T00:00:00	2024-11-08T08:00:00	7	Dirección del viento	9.66
161655	7	Sololá	713	San Lucas Tolimán	10	San Lucas Tolimán	11	Noviembre	2023-11-27T00:00:00	2024-11-08T08:00:00	1	Precipitación	0
161656	7	Sololá	713	San Lucas Tolimán	10	San Lucas Tolimán	11	Noviembre	2023-11-27T00:00:00	2024-11-08T08:00:00	8	Radiación solar	22
161657	7	Sololá	713	San Lucas Tolimán	10	San Lucas Tolimán	11	Noviembre	2023-11-27T00:00:00	2024-11-08T09:00:00	2	Temperatura media	22.2
161658	7	Sololá	713	San Lucas Tolimán	10	San Lucas Tolimán	11	Noviembre	2023-11-27T00:00:00	2024-11-08T09:00:00	4	Temperatura máxima	22.2
161659	7	Sololá	713	San Lucas Tolimán	10	San Lucas Tolimán	11	Noviembre	2023-11-27T00:00:00	2024-11-08T09:00:00	3	Temperatura mínima	19.1
161660	7	Sololá	713	San Lucas Tolimán	10	San Lucas Tolimán	11	Noviembre	2023-11-27T00:00:00	2024-11-08T09:00:00	5	Humedad	46
161661	7	Sololá	713	San Lucas Tolimán	10	San Lucas Tolimán	11	Noviembre	2023-11-27T00:00:00	2024-11-08T09:00:00	6	Velocidad del viento	8
161662	7	Sololá	713	San Lucas Tolimán	10	San Lucas Tolimán	11	Noviembre	2023-11-27T00:00:00	2024-11-08T09:00:00	7	Dirección del viento	8.05
161663	7	Sololá	713	San Lucas Tolimán	10	San Lucas Tolimán	11	Noviembre	2023-11-27T00:00:00	2024-11-08T09:00:00	1	Precipitación	0
161664	7	Sololá	713	San Lucas Tolimán	10	San Lucas Tolimán	11	Noviembre	2023-11-27T00:00:00	2024-11-08T09:00:00	8	Radiación solar	397
161665	7	Sololá	713	San Lucas Tolimán	10	San Lucas Tolimán	11	Noviembre	2023-11-27T00:00:00	2024-11-08T10:00:00	2	Temperatura media	23.2
161666	7	Sololá	713	San Lucas Tolimán	10	San Lucas Tolimán	11	Noviembre	2023-11-27T00:00:00	2024-11-08T10:00:00	4	Temperatura máxima	23.4
161667	7	Sololá	713	San Lucas Tolimán	10	San Lucas Tolimán	11	Noviembre	2023-11-27T00:00:00	2024-11-08T10:00:00	3	Temperatura mínima	22.2
161668	7	Sololá	713	San Lucas Tolimán	10	San Lucas Tolimán	11	Noviembre	2023-11-27T00:00:00	2024-11-08T10:00:00	5	Humedad	47
161669	7	Sololá	713	San Lucas Tolimán	10	San Lucas Tolimán	11	Noviembre	2023-11-27T00:00:00	2024-11-08T10:00:00	6	Velocidad del viento	6.4
161670	7	Sololá	713	San Lucas Tolimán	10	San Lucas Tolimán	11	Noviembre	2023-11-27T00:00:00	2024-11-08T10:00:00	7	Dirección del viento	6.44
161671	7	Sololá	713	San Lucas Tolimán	10	San Lucas Tolimán	11	Noviembre	2023-11-27T00:00:00	2024-11-08T10:00:00	1	Precipitación	0
161672	7	Sololá	713	San Lucas Tolimán	10	San Lucas Tolimán	11	Noviembre	2023-11-27T00:00:00	2024-11-08T10:00:00	8	Radiación solar	657
161673	7	Sololá	713	San Lucas Tolimán	10	San Lucas Tolimán	11	Noviembre	2023-11-27T00:00:00	2024-11-08T11:00:00	2	Temperatura media	23.8
161674	7	Sololá	713	San Lucas Tolimán	10	San Lucas Tolimán	11	Noviembre	2023-11-27T00:00:00	2024-11-08T11:00:00	4	Temperatura máxima	24.3
161675	7	Sololá	713	San Lucas Tolimán	10	San Lucas Tolimán	11	Noviembre	2023-11-27T00:00:00	2024-11-08T11:00:00	3	Temperatura mínima	23.2
161676	7	Sololá	713	San Lucas Tolimán	10	San Lucas Tolimán	11	Noviembre	2023-11-27T00:00:00	2024-11-08T11:00:00	5	Humedad	45
161677	7	Sololá	713	San Lucas Tolimán	10	San Lucas Tolimán	11	Noviembre	2023-11-27T00:00:00	2024-11-08T11:00:00	6	Velocidad del viento	11.3
161678	7	Sololá	713	San Lucas Tolimán	10	San Lucas Tolimán	11	Noviembre	2023-11-27T00:00:00	2024-11-08T11:00:00	7	Dirección del viento	11.27
161679	7	Sololá	713	San Lucas Tolimán	10	San Lucas Tolimán	11	Noviembre	2023-11-27T00:00:00	2024-11-08T11:00:00	1	Precipitación	0
161680	7	Sololá	713	San Lucas Tolimán	10	San Lucas Tolimán	11	Noviembre	2023-11-27T00:00:00	2024-11-08T11:00:00	8	Radiación solar	810
161681	7	Sololá	713	San Lucas Tolimán	10	San Lucas Tolimán	11	Noviembre	2023-11-27T00:00:00	2024-11-08T12:00:00	2	Temperatura media	23.4
161682	7	Sololá	713	San Lucas Tolimán	10	San Lucas Tolimán	11	Noviembre	2023-11-27T00:00:00	2024-11-08T12:00:00	4	Temperatura máxima	24.1
161683	7	Sololá	713	San Lucas Tolimán	10	San Lucas Tolimán	11	Noviembre	2023-11-27T00:00:00	2024-11-08T12:00:00	3	Temperatura mínima	23
161684	7	Sololá	713	San Lucas Tolimán	10	San Lucas Tolimán	11	Noviembre	2023-11-27T00:00:00	2024-11-08T12:00:00	5	Humedad	46
161685	7	Sololá	713	San Lucas Tolimán	10	San Lucas Tolimán	11	Noviembre	2023-11-27T00:00:00	2024-11-08T12:00:00	6	Velocidad del viento	20.9
161686	7	Sololá	713	San Lucas Tolimán	10	San Lucas Tolimán	11	Noviembre	2023-11-27T00:00:00	2024-11-08T12:00:00	7	Dirección del viento	20.92
161687	7	Sololá	713	San Lucas Tolimán	10	San Lucas Tolimán	11	Noviembre	2023-11-27T00:00:00	2024-11-08T12:00:00	1	Precipitación	0
161688	7	Sololá	713	San Lucas Tolimán	10	San Lucas Tolimán	11	Noviembre	2023-11-27T00:00:00	2024-11-08T12:00:00	8	Radiación solar	921
161689	7	Sololá	713	San Lucas Tolimán	10	San Lucas Tolimán	11	Noviembre	2023-11-27T00:00:00	2024-11-08T13:00:00	2	Temperatura media	24.3
161690	7	Sololá	713	San Lucas Tolimán	10	San Lucas Tolimán	11	Noviembre	2023-11-27T00:00:00	2024-11-08T13:00:00	4	Temperatura máxima	24.8
161691	7	Sololá	713	San Lucas Tolimán	10	San Lucas Tolimán	11	Noviembre	2023-11-27T00:00:00	2024-11-08T13:00:00	3	Temperatura mínima	23.4
161692	7	Sololá	713	San Lucas Tolimán	10	San Lucas Tolimán	11	Noviembre	2023-11-27T00:00:00	2024-11-08T13:00:00	5	Humedad	45
161693	7	Sololá	713	San Lucas Tolimán	10	San Lucas Tolimán	11	Noviembre	2023-11-27T00:00:00	2024-11-08T13:00:00	6	Velocidad del viento	16.1
161694	7	Sololá	713	San Lucas Tolimán	10	San Lucas Tolimán	11	Noviembre	2023-11-27T00:00:00	2024-11-08T13:00:00	7	Dirección del viento	16.09
161695	7	Sololá	713	San Lucas Tolimán	10	San Lucas Tolimán	11	Noviembre	2023-11-27T00:00:00	2024-11-08T13:00:00	1	Precipitación	0
161696	7	Sololá	713	San Lucas Tolimán	10	San Lucas Tolimán	11	Noviembre	2023-11-27T00:00:00	2024-11-08T13:00:00	8	Radiación solar	943
161697	7	Sololá	713	San Lucas Tolimán	10	San Lucas Tolimán	11	Noviembre	2023-11-27T00:00:00	2024-11-08T14:00:00	2	Temperatura media	24
161698	7	Sololá	713	San Lucas Tolimán	10	San Lucas Tolimán	11	Noviembre	2023-11-27T00:00:00	2024-11-08T14:00:00	4	Temperatura máxima	24.7
161699	7	Sololá	713	San Lucas Tolimán	10	San Lucas Tolimán	11	Noviembre	2023-11-27T00:00:00	2024-11-08T14:00:00	3	Temperatura mínima	23.8
161700	7	Sololá	713	San Lucas Tolimán	10	San Lucas Tolimán	11	Noviembre	2023-11-27T00:00:00	2024-11-08T14:00:00	5	Humedad	47
161701	7	Sololá	713	San Lucas Tolimán	10	San Lucas Tolimán	11	Noviembre	2023-11-27T00:00:00	2024-11-08T14:00:00	6	Velocidad del viento	8
161702	7	Sololá	713	San Lucas Tolimán	10	San Lucas Tolimán	11	Noviembre	2023-11-27T00:00:00	2024-11-08T14:00:00	7	Dirección del viento	8.05
161703	7	Sololá	713	San Lucas Tolimán	10	San Lucas Tolimán	11	Noviembre	2023-11-27T00:00:00	2024-11-08T14:00:00	1	Precipitación	0
161704	7	Sololá	713	San Lucas Tolimán	10	San Lucas Tolimán	11	Noviembre	2023-11-27T00:00:00	2024-11-08T14:00:00	8	Radiación solar	677
161705	7	Sololá	713	San Lucas Tolimán	10	San Lucas Tolimán	11	Noviembre	2023-11-27T00:00:00	2024-11-08T15:00:00	2	Temperatura media	23.1
161706	7	Sololá	713	San Lucas Tolimán	10	San Lucas Tolimán	11	Noviembre	2023-11-27T00:00:00	2024-11-08T15:00:00	4	Temperatura máxima	24
161707	7	Sololá	713	San Lucas Tolimán	10	San Lucas Tolimán	11	Noviembre	2023-11-27T00:00:00	2024-11-08T15:00:00	3	Temperatura mínima	22.9
161708	7	Sololá	713	San Lucas Tolimán	10	San Lucas Tolimán	11	Noviembre	2023-11-27T00:00:00	2024-11-08T15:00:00	5	Humedad	46
161709	7	Sololá	713	San Lucas Tolimán	10	San Lucas Tolimán	11	Noviembre	2023-11-27T00:00:00	2024-11-08T15:00:00	6	Velocidad del viento	6.4
161710	7	Sololá	713	San Lucas Tolimán	10	San Lucas Tolimán	11	Noviembre	2023-11-27T00:00:00	2024-11-08T15:00:00	7	Dirección del viento	6.44
161711	7	Sololá	713	San Lucas Tolimán	10	San Lucas Tolimán	11	Noviembre	2023-11-27T00:00:00	2024-11-08T15:00:00	1	Precipitación	0
161712	7	Sololá	713	San Lucas Tolimán	10	San Lucas Tolimán	11	Noviembre	2023-11-27T00:00:00	2024-11-08T15:00:00	8	Radiación solar	221
161713	7	Sololá	713	San Lucas Tolimán	10	San Lucas Tolimán	11	Noviembre	2023-11-27T00:00:00	2024-11-08T16:00:00	2	Temperatura media	23.7
161714	7	Sololá	713	San Lucas Tolimán	10	San Lucas Tolimán	11	Noviembre	2023-11-27T00:00:00	2024-11-08T16:00:00	4	Temperatura máxima	23.8
161715	7	Sololá	713	San Lucas Tolimán	10	San Lucas Tolimán	11	Noviembre	2023-11-27T00:00:00	2024-11-08T16:00:00	3	Temperatura mínima	23.1
161716	7	Sololá	713	San Lucas Tolimán	10	San Lucas Tolimán	11	Noviembre	2023-11-27T00:00:00	2024-11-08T16:00:00	5	Humedad	43
161717	7	Sololá	713	San Lucas Tolimán	10	San Lucas Tolimán	11	Noviembre	2023-11-27T00:00:00	2024-11-08T16:00:00	6	Velocidad del viento	11.3
161718	7	Sololá	713	San Lucas Tolimán	10	San Lucas Tolimán	11	Noviembre	2023-11-27T00:00:00	2024-11-08T16:00:00	7	Dirección del viento	11.27
161719	7	Sololá	713	San Lucas Tolimán	10	San Lucas Tolimán	11	Noviembre	2023-11-27T00:00:00	2024-11-08T16:00:00	1	Precipitación	0
161720	7	Sololá	713	San Lucas Tolimán	10	San Lucas Tolimán	11	Noviembre	2023-11-27T00:00:00	2024-11-08T16:00:00	8	Radiación solar	402
161721	7	Sololá	713	San Lucas Tolimán	10	San Lucas Tolimán	11	Noviembre	2023-11-27T00:00:00	2024-11-08T17:00:00	2	Temperatura media	22.4
161722	7	Sololá	713	San Lucas Tolimán	10	San Lucas Tolimán	11	Noviembre	2023-11-27T00:00:00	2024-11-08T17:00:00	4	Temperatura máxima	23.7
161723	7	Sololá	713	San Lucas Tolimán	10	San Lucas Tolimán	11	Noviembre	2023-11-27T00:00:00	2024-11-08T17:00:00	3	Temperatura mínima	22.4
161724	7	Sololá	713	San Lucas Tolimán	10	San Lucas Tolimán	11	Noviembre	2023-11-27T00:00:00	2024-11-08T17:00:00	5	Humedad	47
161725	7	Sololá	713	San Lucas Tolimán	10	San Lucas Tolimán	11	Noviembre	2023-11-27T00:00:00	2024-11-08T17:00:00	6	Velocidad del viento	9.7
161726	7	Sololá	713	San Lucas Tolimán	10	San Lucas Tolimán	11	Noviembre	2023-11-27T00:00:00	2024-11-08T17:00:00	7	Dirección del viento	9.66
161727	7	Sololá	713	San Lucas Tolimán	10	San Lucas Tolimán	11	Noviembre	2023-11-27T00:00:00	2024-11-08T17:00:00	1	Precipitación	0
161728	7	Sololá	713	San Lucas Tolimán	10	San Lucas Tolimán	11	Noviembre	2023-11-27T00:00:00	2024-11-08T17:00:00	8	Radiación solar	95
161729	7	Sololá	713	San Lucas Tolimán	10	San Lucas Tolimán	11	Noviembre	2023-11-27T00:00:00	2024-11-08T18:00:00	2	Temperatura media	21.2
161730	7	Sololá	713	San Lucas Tolimán	10	San Lucas Tolimán	11	Noviembre	2023-11-27T00:00:00	2024-11-08T18:00:00	4	Temperatura máxima	22.4
161731	7	Sololá	713	San Lucas Tolimán	10	San Lucas Tolimán	11	Noviembre	2023-11-27T00:00:00	2024-11-08T18:00:00	3	Temperatura mínima	21.2
161732	7	Sololá	713	San Lucas Tolimán	10	San Lucas Tolimán	11	Noviembre	2023-11-27T00:00:00	2024-11-08T18:00:00	5	Humedad	50
161733	7	Sololá	713	San Lucas Tolimán	10	San Lucas Tolimán	11	Noviembre	2023-11-27T00:00:00	2024-11-08T18:00:00	6	Velocidad del viento	11.3
161734	7	Sololá	713	San Lucas Tolimán	10	San Lucas Tolimán	11	Noviembre	2023-11-27T00:00:00	2024-11-08T18:00:00	7	Dirección del viento	11.27
161735	7	Sololá	713	San Lucas Tolimán	10	San Lucas Tolimán	11	Noviembre	2023-11-27T00:00:00	2024-11-08T18:00:00	1	Precipitación	0
161736	7	Sololá	713	San Lucas Tolimán	10	San Lucas Tolimán	11	Noviembre	2023-11-27T00:00:00	2024-11-08T18:00:00	8	Radiación solar	7
161737	7	Sololá	713	San Lucas Tolimán	10	San Lucas Tolimán	11	Noviembre	2023-11-27T00:00:00	2024-11-08T19:00:00	2	Temperatura media	19.9
161738	7	Sololá	713	San Lucas Tolimán	10	San Lucas Tolimán	11	Noviembre	2023-11-27T00:00:00	2024-11-08T19:00:00	4	Temperatura máxima	21.2
161739	7	Sololá	713	San Lucas Tolimán	10	San Lucas Tolimán	11	Noviembre	2023-11-27T00:00:00	2024-11-08T19:00:00	3	Temperatura mínima	19.9
161740	7	Sololá	713	San Lucas Tolimán	10	San Lucas Tolimán	11	Noviembre	2023-11-27T00:00:00	2024-11-08T19:00:00	5	Humedad	54
161741	7	Sololá	713	San Lucas Tolimán	10	San Lucas Tolimán	11	Noviembre	2023-11-27T00:00:00	2024-11-08T19:00:00	6	Velocidad del viento	3.2
161742	7	Sololá	713	San Lucas Tolimán	10	San Lucas Tolimán	11	Noviembre	2023-11-27T00:00:00	2024-11-08T19:00:00	7	Dirección del viento	3.22
161743	7	Sololá	713	San Lucas Tolimán	10	San Lucas Tolimán	11	Noviembre	2023-11-27T00:00:00	2024-11-08T19:00:00	1	Precipitación	0
161744	7	Sololá	713	San Lucas Tolimán	10	San Lucas Tolimán	11	Noviembre	2023-11-27T00:00:00	2024-11-08T19:00:00	8	Radiación solar	0
161745	7	Sololá	713	San Lucas Tolimán	10	San Lucas Tolimán	11	Noviembre	2023-11-27T00:00:00	2024-11-08T20:00:00	2	Temperatura media	19
161746	7	Sololá	713	San Lucas Tolimán	10	San Lucas Tolimán	11	Noviembre	2023-11-27T00:00:00	2024-11-08T20:00:00	4	Temperatura máxima	19.9
161747	7	Sololá	713	San Lucas Tolimán	10	San Lucas Tolimán	11	Noviembre	2023-11-27T00:00:00	2024-11-08T20:00:00	3	Temperatura mínima	18.8
161748	7	Sololá	713	San Lucas Tolimán	10	San Lucas Tolimán	11	Noviembre	2023-11-27T00:00:00	2024-11-08T20:00:00	5	Humedad	57
161749	7	Sololá	713	San Lucas Tolimán	10	San Lucas Tolimán	11	Noviembre	2023-11-27T00:00:00	2024-11-08T20:00:00	6	Velocidad del viento	1.6
161750	7	Sololá	713	San Lucas Tolimán	10	San Lucas Tolimán	11	Noviembre	2023-11-27T00:00:00	2024-11-08T20:00:00	7	Dirección del viento	1.61
161751	7	Sololá	713	San Lucas Tolimán	10	San Lucas Tolimán	11	Noviembre	2023-11-27T00:00:00	2024-11-08T20:00:00	1	Precipitación	0
161752	7	Sololá	713	San Lucas Tolimán	10	San Lucas Tolimán	11	Noviembre	2023-11-27T00:00:00	2024-11-08T20:00:00	8	Radiación solar	0
161753	7	Sololá	713	San Lucas Tolimán	10	San Lucas Tolimán	11	Noviembre	2023-11-27T00:00:00	2024-11-08T21:00:00	2	Temperatura media	18.9
161754	7	Sololá	713	San Lucas Tolimán	10	San Lucas Tolimán	11	Noviembre	2023-11-27T00:00:00	2024-11-08T21:00:00	4	Temperatura máxima	19.2
161755	7	Sololá	713	San Lucas Tolimán	10	San Lucas Tolimán	11	Noviembre	2023-11-27T00:00:00	2024-11-08T21:00:00	3	Temperatura mínima	18.6
161756	7	Sololá	713	San Lucas Tolimán	10	San Lucas Tolimán	11	Noviembre	2023-11-27T00:00:00	2024-11-08T21:00:00	5	Humedad	56
161757	7	Sololá	713	San Lucas Tolimán	10	San Lucas Tolimán	11	Noviembre	2023-11-27T00:00:00	2024-11-08T21:00:00	6	Velocidad del viento	1.6
161758	7	Sololá	713	San Lucas Tolimán	10	San Lucas Tolimán	11	Noviembre	2023-11-27T00:00:00	2024-11-08T21:00:00	7	Dirección del viento	1.61
161759	7	Sololá	713	San Lucas Tolimán	10	San Lucas Tolimán	11	Noviembre	2023-11-27T00:00:00	2024-11-08T21:00:00	1	Precipitación	0
161760	7	Sololá	713	San Lucas Tolimán	10	San Lucas Tolimán	11	Noviembre	2023-11-27T00:00:00	2024-11-08T21:00:00	8	Radiación solar	0
161761	7	Sololá	713	San Lucas Tolimán	10	San Lucas Tolimán	11	Noviembre	2023-11-27T00:00:00	2024-11-08T22:00:00	2	Temperatura media	18.5
161762	7	Sololá	713	San Lucas Tolimán	10	San Lucas Tolimán	11	Noviembre	2023-11-27T00:00:00	2024-11-08T22:00:00	4	Temperatura máxima	19
161763	7	Sololá	713	San Lucas Tolimán	10	San Lucas Tolimán	11	Noviembre	2023-11-27T00:00:00	2024-11-08T22:00:00	3	Temperatura mínima	18.5
161764	7	Sololá	713	San Lucas Tolimán	10	San Lucas Tolimán	11	Noviembre	2023-11-27T00:00:00	2024-11-08T22:00:00	5	Humedad	57
161765	7	Sololá	713	San Lucas Tolimán	10	San Lucas Tolimán	11	Noviembre	2023-11-27T00:00:00	2024-11-08T22:00:00	6	Velocidad del viento	0
161766	7	Sololá	713	San Lucas Tolimán	10	San Lucas Tolimán	11	Noviembre	2023-11-27T00:00:00	2024-11-08T22:00:00	7	Dirección del viento	0
161767	7	Sololá	713	San Lucas Tolimán	10	San Lucas Tolimán	11	Noviembre	2023-11-27T00:00:00	2024-11-08T22:00:00	1	Precipitación	0
161768	7	Sololá	713	San Lucas Tolimán	10	San Lucas Tolimán	11	Noviembre	2023-11-27T00:00:00	2024-11-08T22:00:00	8	Radiación solar	0
161769	7	Sololá	713	San Lucas Tolimán	10	San Lucas Tolimán	11	Noviembre	2023-11-27T00:00:00	2024-11-08T23:00:00	2	Temperatura media	17.9
161770	7	Sololá	713	San Lucas Tolimán	10	San Lucas Tolimán	11	Noviembre	2023-11-27T00:00:00	2024-11-08T23:00:00	4	Temperatura máxima	18.5
161771	7	Sololá	713	San Lucas Tolimán	10	San Lucas Tolimán	11	Noviembre	2023-11-27T00:00:00	2024-11-08T23:00:00	3	Temperatura mínima	17.6
161772	7	Sololá	713	San Lucas Tolimán	10	San Lucas Tolimán	11	Noviembre	2023-11-27T00:00:00	2024-11-08T23:00:00	5	Humedad	58
161773	7	Sololá	713	San Lucas Tolimán	10	San Lucas Tolimán	11	Noviembre	2023-11-27T00:00:00	2024-11-08T23:00:00	6	Velocidad del viento	3.2
161774	7	Sololá	713	San Lucas Tolimán	10	San Lucas Tolimán	11	Noviembre	2023-11-27T00:00:00	2024-11-08T23:00:00	7	Dirección del viento	3.22
161775	7	Sololá	713	San Lucas Tolimán	10	San Lucas Tolimán	11	Noviembre	2023-11-27T00:00:00	2024-11-08T23:00:00	1	Precipitación	0
161776	7	Sololá	713	San Lucas Tolimán	10	San Lucas Tolimán	11	Noviembre	2023-11-27T00:00:00	2024-11-08T23:00:00	8	Radiación solar	0
161777	7	Sololá	713	San Lucas Tolimán	10	San Lucas Tolimán	11	Noviembre	2023-11-28T00:00:00	2024-11-08T00:00:00	2	Temperatura media	18
161778	7	Sololá	713	San Lucas Tolimán	10	San Lucas Tolimán	11	Noviembre	2023-11-28T00:00:00	2024-11-08T00:00:00	4	Temperatura máxima	18
161779	7	Sololá	713	San Lucas Tolimán	10	San Lucas Tolimán	11	Noviembre	2023-11-28T00:00:00	2024-11-08T00:00:00	3	Temperatura mínima	17.6
161780	7	Sololá	713	San Lucas Tolimán	10	San Lucas Tolimán	11	Noviembre	2023-11-28T00:00:00	2024-11-08T00:00:00	5	Humedad	58
161781	7	Sololá	713	San Lucas Tolimán	10	San Lucas Tolimán	11	Noviembre	2023-11-28T00:00:00	2024-11-08T00:00:00	6	Velocidad del viento	1.6
161782	7	Sololá	713	San Lucas Tolimán	10	San Lucas Tolimán	11	Noviembre	2023-11-28T00:00:00	2024-11-08T00:00:00	7	Dirección del viento	1.61
161783	7	Sololá	713	San Lucas Tolimán	10	San Lucas Tolimán	11	Noviembre	2023-11-28T00:00:00	2024-11-08T00:00:00	1	Precipitación	0
161784	7	Sololá	713	San Lucas Tolimán	10	San Lucas Tolimán	11	Noviembre	2023-11-28T00:00:00	2024-11-08T00:00:00	8	Radiación solar	0
161785	7	Sololá	713	San Lucas Tolimán	10	San Lucas Tolimán	11	Noviembre	2023-11-28T00:00:00	2024-11-08T01:00:00	2	Temperatura media	18.5
161786	7	Sololá	713	San Lucas Tolimán	10	San Lucas Tolimán	11	Noviembre	2023-11-28T00:00:00	2024-11-08T01:00:00	4	Temperatura máxima	19.2
161787	7	Sololá	713	San Lucas Tolimán	10	San Lucas Tolimán	11	Noviembre	2023-11-28T00:00:00	2024-11-08T01:00:00	3	Temperatura mínima	18
161788	7	Sololá	713	San Lucas Tolimán	10	San Lucas Tolimán	11	Noviembre	2023-11-28T00:00:00	2024-11-08T01:00:00	5	Humedad	56
161789	7	Sololá	713	San Lucas Tolimán	10	San Lucas Tolimán	11	Noviembre	2023-11-28T00:00:00	2024-11-08T01:00:00	6	Velocidad del viento	3.2
161790	7	Sololá	713	San Lucas Tolimán	10	San Lucas Tolimán	11	Noviembre	2023-11-28T00:00:00	2024-11-08T01:00:00	7	Dirección del viento	3.22
161791	7	Sololá	713	San Lucas Tolimán	10	San Lucas Tolimán	11	Noviembre	2023-11-28T00:00:00	2024-11-08T01:00:00	1	Precipitación	0
161792	7	Sololá	713	San Lucas Tolimán	10	San Lucas Tolimán	11	Noviembre	2023-11-28T00:00:00	2024-11-08T01:00:00	8	Radiación solar	0
161793	7	Sololá	713	San Lucas Tolimán	10	San Lucas Tolimán	11	Noviembre	2023-11-28T00:00:00	2024-11-08T02:00:00	2	Temperatura media	18.2
161794	7	Sololá	713	San Lucas Tolimán	10	San Lucas Tolimán	11	Noviembre	2023-11-28T00:00:00	2024-11-08T02:00:00	4	Temperatura máxima	18.6
161795	7	Sololá	713	San Lucas Tolimán	10	San Lucas Tolimán	11	Noviembre	2023-11-28T00:00:00	2024-11-08T02:00:00	3	Temperatura mínima	17.7
161796	7	Sololá	713	San Lucas Tolimán	10	San Lucas Tolimán	11	Noviembre	2023-11-28T00:00:00	2024-11-08T02:00:00	5	Humedad	58
161797	7	Sololá	713	San Lucas Tolimán	10	San Lucas Tolimán	11	Noviembre	2023-11-28T00:00:00	2024-11-08T02:00:00	6	Velocidad del viento	3.2
161798	7	Sololá	713	San Lucas Tolimán	10	San Lucas Tolimán	11	Noviembre	2023-11-28T00:00:00	2024-11-08T02:00:00	7	Dirección del viento	3.22
161799	7	Sololá	713	San Lucas Tolimán	10	San Lucas Tolimán	11	Noviembre	2023-11-28T00:00:00	2024-11-08T02:00:00	1	Precipitación	0
161800	7	Sololá	713	San Lucas Tolimán	10	San Lucas Tolimán	11	Noviembre	2023-11-28T00:00:00	2024-11-08T02:00:00	8	Radiación solar	0
161801	7	Sololá	713	San Lucas Tolimán	10	San Lucas Tolimán	11	Noviembre	2023-11-28T00:00:00	2024-11-08T03:00:00	2	Temperatura media	17.3
161802	7	Sololá	713	San Lucas Tolimán	10	San Lucas Tolimán	11	Noviembre	2023-11-28T00:00:00	2024-11-08T03:00:00	4	Temperatura máxima	18.2
161803	7	Sololá	713	San Lucas Tolimán	10	San Lucas Tolimán	11	Noviembre	2023-11-28T00:00:00	2024-11-08T03:00:00	3	Temperatura mínima	17.2
161804	7	Sololá	713	San Lucas Tolimán	10	San Lucas Tolimán	11	Noviembre	2023-11-28T00:00:00	2024-11-08T03:00:00	5	Humedad	60
161805	7	Sololá	713	San Lucas Tolimán	10	San Lucas Tolimán	11	Noviembre	2023-11-28T00:00:00	2024-11-08T03:00:00	6	Velocidad del viento	0
161806	7	Sololá	713	San Lucas Tolimán	10	San Lucas Tolimán	11	Noviembre	2023-11-28T00:00:00	2024-11-08T03:00:00	7	Dirección del viento	0
161807	7	Sololá	713	San Lucas Tolimán	10	San Lucas Tolimán	11	Noviembre	2023-11-28T00:00:00	2024-11-08T03:00:00	1	Precipitación	0
161808	7	Sololá	713	San Lucas Tolimán	10	San Lucas Tolimán	11	Noviembre	2023-11-28T00:00:00	2024-11-08T03:00:00	8	Radiación solar	0
161809	7	Sololá	713	San Lucas Tolimán	10	San Lucas Tolimán	11	Noviembre	2023-11-28T00:00:00	2024-11-08T04:00:00	2	Temperatura media	17.3
161810	7	Sololá	713	San Lucas Tolimán	10	San Lucas Tolimán	11	Noviembre	2023-11-28T00:00:00	2024-11-08T04:00:00	4	Temperatura máxima	17.6
161811	7	Sololá	713	San Lucas Tolimán	10	San Lucas Tolimán	11	Noviembre	2023-11-28T00:00:00	2024-11-08T04:00:00	3	Temperatura mínima	17.1
161812	7	Sololá	713	San Lucas Tolimán	10	San Lucas Tolimán	11	Noviembre	2023-11-28T00:00:00	2024-11-08T04:00:00	5	Humedad	60
161813	7	Sololá	713	San Lucas Tolimán	10	San Lucas Tolimán	11	Noviembre	2023-11-28T00:00:00	2024-11-08T04:00:00	6	Velocidad del viento	1.6
161814	7	Sololá	713	San Lucas Tolimán	10	San Lucas Tolimán	11	Noviembre	2023-11-28T00:00:00	2024-11-08T04:00:00	7	Dirección del viento	1.61
161815	7	Sololá	713	San Lucas Tolimán	10	San Lucas Tolimán	11	Noviembre	2023-11-28T00:00:00	2024-11-08T04:00:00	1	Precipitación	0
161816	7	Sololá	713	San Lucas Tolimán	10	San Lucas Tolimán	11	Noviembre	2023-11-28T00:00:00	2024-11-08T04:00:00	8	Radiación solar	0
161817	7	Sololá	713	San Lucas Tolimán	10	San Lucas Tolimán	11	Noviembre	2023-11-28T00:00:00	2024-11-08T05:00:00	2	Temperatura media	17.6
161818	7	Sololá	713	San Lucas Tolimán	10	San Lucas Tolimán	11	Noviembre	2023-11-28T00:00:00	2024-11-08T05:00:00	4	Temperatura máxima	17.9
161819	7	Sololá	713	San Lucas Tolimán	10	San Lucas Tolimán	11	Noviembre	2023-11-28T00:00:00	2024-11-08T05:00:00	3	Temperatura mínima	17.2
161820	7	Sololá	713	San Lucas Tolimán	10	San Lucas Tolimán	11	Noviembre	2023-11-28T00:00:00	2024-11-08T05:00:00	5	Humedad	60
161821	7	Sololá	713	San Lucas Tolimán	10	San Lucas Tolimán	11	Noviembre	2023-11-28T00:00:00	2024-11-08T05:00:00	6	Velocidad del viento	1.6
161822	7	Sololá	713	San Lucas Tolimán	10	San Lucas Tolimán	11	Noviembre	2023-11-28T00:00:00	2024-11-08T05:00:00	7	Dirección del viento	1.61
161823	7	Sololá	713	San Lucas Tolimán	10	San Lucas Tolimán	11	Noviembre	2023-11-28T00:00:00	2024-11-08T05:00:00	1	Precipitación	0
161824	7	Sololá	713	San Lucas Tolimán	10	San Lucas Tolimán	11	Noviembre	2023-11-28T00:00:00	2024-11-08T05:00:00	8	Radiación solar	0
161825	7	Sololá	713	San Lucas Tolimán	10	San Lucas Tolimán	11	Noviembre	2023-11-28T00:00:00	2024-11-08T06:00:00	2	Temperatura media	18
161826	7	Sololá	713	San Lucas Tolimán	10	San Lucas Tolimán	11	Noviembre	2023-11-28T00:00:00	2024-11-08T06:00:00	4	Temperatura máxima	18
161827	7	Sololá	713	San Lucas Tolimán	10	San Lucas Tolimán	11	Noviembre	2023-11-28T00:00:00	2024-11-08T06:00:00	3	Temperatura mínima	17.4
161828	7	Sololá	713	San Lucas Tolimán	10	San Lucas Tolimán	11	Noviembre	2023-11-28T00:00:00	2024-11-08T06:00:00	5	Humedad	59
161829	7	Sololá	713	San Lucas Tolimán	10	San Lucas Tolimán	11	Noviembre	2023-11-28T00:00:00	2024-11-08T06:00:00	6	Velocidad del viento	4.8
161830	7	Sololá	713	San Lucas Tolimán	10	San Lucas Tolimán	11	Noviembre	2023-11-28T00:00:00	2024-11-08T06:00:00	7	Dirección del viento	4.83
161831	7	Sololá	713	San Lucas Tolimán	10	San Lucas Tolimán	11	Noviembre	2023-11-28T00:00:00	2024-11-08T06:00:00	1	Precipitación	0
161832	7	Sololá	713	San Lucas Tolimán	10	San Lucas Tolimán	11	Noviembre	2023-11-28T00:00:00	2024-11-08T06:00:00	8	Radiación solar	0
161833	7	Sololá	713	San Lucas Tolimán	10	San Lucas Tolimán	11	Noviembre	2023-11-28T00:00:00	2024-11-08T07:00:00	2	Temperatura media	18.4
161834	7	Sololá	713	San Lucas Tolimán	10	San Lucas Tolimán	11	Noviembre	2023-11-28T00:00:00	2024-11-08T07:00:00	4	Temperatura máxima	18.5
161835	7	Sololá	713	San Lucas Tolimán	10	San Lucas Tolimán	11	Noviembre	2023-11-28T00:00:00	2024-11-08T07:00:00	3	Temperatura mínima	17.9
161836	7	Sololá	713	San Lucas Tolimán	10	San Lucas Tolimán	11	Noviembre	2023-11-28T00:00:00	2024-11-08T07:00:00	5	Humedad	59
161837	7	Sololá	713	San Lucas Tolimán	10	San Lucas Tolimán	11	Noviembre	2023-11-28T00:00:00	2024-11-08T07:00:00	6	Velocidad del viento	1.6
161838	7	Sololá	713	San Lucas Tolimán	10	San Lucas Tolimán	11	Noviembre	2023-11-28T00:00:00	2024-11-08T07:00:00	7	Dirección del viento	1.61
161839	7	Sololá	713	San Lucas Tolimán	10	San Lucas Tolimán	11	Noviembre	2023-11-28T00:00:00	2024-11-08T07:00:00	1	Precipitación	0
161840	7	Sololá	713	San Lucas Tolimán	10	San Lucas Tolimán	11	Noviembre	2023-11-28T00:00:00	2024-11-08T07:00:00	8	Radiación solar	22
161841	7	Sololá	713	San Lucas Tolimán	10	San Lucas Tolimán	11	Noviembre	2023-11-28T00:00:00	2024-11-08T08:00:00	2	Temperatura media	19.7
161842	7	Sololá	713	San Lucas Tolimán	10	San Lucas Tolimán	11	Noviembre	2023-11-28T00:00:00	2024-11-08T08:00:00	4	Temperatura máxima	19.7
161843	7	Sololá	713	San Lucas Tolimán	10	San Lucas Tolimán	11	Noviembre	2023-11-28T00:00:00	2024-11-08T08:00:00	3	Temperatura mínima	18.4
161844	7	Sololá	713	San Lucas Tolimán	10	San Lucas Tolimán	11	Noviembre	2023-11-28T00:00:00	2024-11-08T08:00:00	5	Humedad	57
161845	7	Sololá	713	San Lucas Tolimán	10	San Lucas Tolimán	11	Noviembre	2023-11-28T00:00:00	2024-11-08T08:00:00	6	Velocidad del viento	3.2
161846	7	Sololá	713	San Lucas Tolimán	10	San Lucas Tolimán	11	Noviembre	2023-11-28T00:00:00	2024-11-08T08:00:00	7	Dirección del viento	3.22
161847	7	Sololá	713	San Lucas Tolimán	10	San Lucas Tolimán	11	Noviembre	2023-11-28T00:00:00	2024-11-08T08:00:00	1	Precipitación	0
161848	7	Sololá	713	San Lucas Tolimán	10	San Lucas Tolimán	11	Noviembre	2023-11-28T00:00:00	2024-11-08T08:00:00	8	Radiación solar	48
161849	7	Sololá	713	San Lucas Tolimán	10	San Lucas Tolimán	11	Noviembre	2023-11-28T00:00:00	2024-11-08T09:00:00	2	Temperatura media	23.1
161850	7	Sololá	713	San Lucas Tolimán	10	San Lucas Tolimán	11	Noviembre	2023-11-28T00:00:00	2024-11-08T09:00:00	4	Temperatura máxima	23.1
161851	7	Sololá	713	San Lucas Tolimán	10	San Lucas Tolimán	11	Noviembre	2023-11-28T00:00:00	2024-11-08T09:00:00	3	Temperatura mínima	19.7
161852	7	Sololá	713	San Lucas Tolimán	10	San Lucas Tolimán	11	Noviembre	2023-11-28T00:00:00	2024-11-08T09:00:00	5	Humedad	49
161853	7	Sololá	713	San Lucas Tolimán	10	San Lucas Tolimán	11	Noviembre	2023-11-28T00:00:00	2024-11-08T09:00:00	6	Velocidad del viento	9.7
161854	7	Sololá	713	San Lucas Tolimán	10	San Lucas Tolimán	11	Noviembre	2023-11-28T00:00:00	2024-11-08T09:00:00	7	Dirección del viento	9.66
161855	7	Sololá	713	San Lucas Tolimán	10	San Lucas Tolimán	11	Noviembre	2023-11-28T00:00:00	2024-11-08T09:00:00	1	Precipitación	0
161856	7	Sololá	713	San Lucas Tolimán	10	San Lucas Tolimán	11	Noviembre	2023-11-28T00:00:00	2024-11-08T09:00:00	8	Radiación solar	402
161857	7	Sololá	713	San Lucas Tolimán	10	San Lucas Tolimán	11	Noviembre	2023-11-28T00:00:00	2024-11-08T10:00:00	2	Temperatura media	24.2
161858	7	Sololá	713	San Lucas Tolimán	10	San Lucas Tolimán	11	Noviembre	2023-11-28T00:00:00	2024-11-08T10:00:00	4	Temperatura máxima	24.2
161859	7	Sololá	713	San Lucas Tolimán	10	San Lucas Tolimán	11	Noviembre	2023-11-28T00:00:00	2024-11-08T10:00:00	3	Temperatura mínima	23
161860	7	Sololá	713	San Lucas Tolimán	10	San Lucas Tolimán	11	Noviembre	2023-11-28T00:00:00	2024-11-08T10:00:00	5	Humedad	46
161861	7	Sololá	713	San Lucas Tolimán	10	San Lucas Tolimán	11	Noviembre	2023-11-28T00:00:00	2024-11-08T10:00:00	6	Velocidad del viento	8
161862	7	Sololá	713	San Lucas Tolimán	10	San Lucas Tolimán	11	Noviembre	2023-11-28T00:00:00	2024-11-08T10:00:00	7	Dirección del viento	8.05
161863	7	Sololá	713	San Lucas Tolimán	10	San Lucas Tolimán	11	Noviembre	2023-11-28T00:00:00	2024-11-08T10:00:00	1	Precipitación	0
161864	7	Sololá	713	San Lucas Tolimán	10	San Lucas Tolimán	11	Noviembre	2023-11-28T00:00:00	2024-11-08T10:00:00	8	Radiación solar	672
161865	7	Sololá	713	San Lucas Tolimán	10	San Lucas Tolimán	11	Noviembre	2023-11-28T00:00:00	2024-11-08T11:00:00	2	Temperatura media	24.6
161866	7	Sololá	713	San Lucas Tolimán	10	San Lucas Tolimán	11	Noviembre	2023-11-28T00:00:00	2024-11-08T11:00:00	4	Temperatura máxima	24.9
161867	7	Sololá	713	San Lucas Tolimán	10	San Lucas Tolimán	11	Noviembre	2023-11-28T00:00:00	2024-11-08T11:00:00	3	Temperatura mínima	23.9
161868	7	Sololá	713	San Lucas Tolimán	10	San Lucas Tolimán	11	Noviembre	2023-11-28T00:00:00	2024-11-08T11:00:00	5	Humedad	44
161869	7	Sololá	713	San Lucas Tolimán	10	San Lucas Tolimán	11	Noviembre	2023-11-28T00:00:00	2024-11-08T11:00:00	6	Velocidad del viento	9.7
161870	7	Sololá	713	San Lucas Tolimán	10	San Lucas Tolimán	11	Noviembre	2023-11-28T00:00:00	2024-11-08T11:00:00	7	Dirección del viento	9.66
161871	7	Sololá	713	San Lucas Tolimán	10	San Lucas Tolimán	11	Noviembre	2023-11-28T00:00:00	2024-11-08T11:00:00	1	Precipitación	0
161872	7	Sololá	713	San Lucas Tolimán	10	San Lucas Tolimán	11	Noviembre	2023-11-28T00:00:00	2024-11-08T11:00:00	8	Radiación solar	880
161873	7	Sololá	713	San Lucas Tolimán	10	San Lucas Tolimán	11	Noviembre	2023-11-28T00:00:00	2024-11-08T12:00:00	2	Temperatura media	22.8
161874	7	Sololá	713	San Lucas Tolimán	10	San Lucas Tolimán	11	Noviembre	2023-11-28T00:00:00	2024-11-08T12:00:00	4	Temperatura máxima	25.1
161875	7	Sololá	713	San Lucas Tolimán	10	San Lucas Tolimán	11	Noviembre	2023-11-28T00:00:00	2024-11-08T12:00:00	3	Temperatura mínima	22.8
161876	7	Sololá	713	San Lucas Tolimán	10	San Lucas Tolimán	11	Noviembre	2023-11-28T00:00:00	2024-11-08T12:00:00	5	Humedad	60
161877	7	Sololá	713	San Lucas Tolimán	10	San Lucas Tolimán	11	Noviembre	2023-11-28T00:00:00	2024-11-08T12:00:00	6	Velocidad del viento	6.4
161878	7	Sololá	713	San Lucas Tolimán	10	San Lucas Tolimán	11	Noviembre	2023-11-28T00:00:00	2024-11-08T12:00:00	7	Dirección del viento	6.44
161879	7	Sololá	713	San Lucas Tolimán	10	San Lucas Tolimán	11	Noviembre	2023-11-28T00:00:00	2024-11-08T12:00:00	1	Precipitación	0
161880	7	Sololá	713	San Lucas Tolimán	10	San Lucas Tolimán	11	Noviembre	2023-11-28T00:00:00	2024-11-08T12:00:00	8	Radiación solar	431
161881	7	Sololá	713	San Lucas Tolimán	10	San Lucas Tolimán	11	Noviembre	2023-11-28T00:00:00	2024-11-08T13:00:00	2	Temperatura media	24.2
161882	7	Sololá	713	San Lucas Tolimán	10	San Lucas Tolimán	11	Noviembre	2023-11-28T00:00:00	2024-11-08T13:00:00	4	Temperatura máxima	24.2
161883	7	Sololá	713	San Lucas Tolimán	10	San Lucas Tolimán	11	Noviembre	2023-11-28T00:00:00	2024-11-08T13:00:00	3	Temperatura mínima	22.2
161884	7	Sololá	713	San Lucas Tolimán	10	San Lucas Tolimán	11	Noviembre	2023-11-28T00:00:00	2024-11-08T13:00:00	5	Humedad	49
161885	7	Sololá	713	San Lucas Tolimán	10	San Lucas Tolimán	11	Noviembre	2023-11-28T00:00:00	2024-11-08T13:00:00	6	Velocidad del viento	6.4
161886	7	Sololá	713	San Lucas Tolimán	10	San Lucas Tolimán	11	Noviembre	2023-11-28T00:00:00	2024-11-08T13:00:00	7	Dirección del viento	6.44
161887	7	Sololá	713	San Lucas Tolimán	10	San Lucas Tolimán	11	Noviembre	2023-11-28T00:00:00	2024-11-08T13:00:00	1	Precipitación	0
161888	7	Sololá	713	San Lucas Tolimán	10	San Lucas Tolimán	11	Noviembre	2023-11-28T00:00:00	2024-11-08T13:00:00	8	Radiación solar	356
161889	7	Sololá	713	San Lucas Tolimán	10	San Lucas Tolimán	11	Noviembre	2023-11-28T00:00:00	2024-11-08T14:00:00	2	Temperatura media	23.6
161890	7	Sololá	713	San Lucas Tolimán	10	San Lucas Tolimán	11	Noviembre	2023-11-28T00:00:00	2024-11-08T14:00:00	4	Temperatura máxima	24.8
161891	7	Sololá	713	San Lucas Tolimán	10	San Lucas Tolimán	11	Noviembre	2023-11-28T00:00:00	2024-11-08T14:00:00	3	Temperatura mínima	23.6
161892	7	Sololá	713	San Lucas Tolimán	10	San Lucas Tolimán	11	Noviembre	2023-11-28T00:00:00	2024-11-08T14:00:00	5	Humedad	57
161893	7	Sololá	713	San Lucas Tolimán	10	San Lucas Tolimán	11	Noviembre	2023-11-28T00:00:00	2024-11-08T14:00:00	6	Velocidad del viento	6.4
161894	7	Sololá	713	San Lucas Tolimán	10	San Lucas Tolimán	11	Noviembre	2023-11-28T00:00:00	2024-11-08T14:00:00	7	Dirección del viento	6.44
161895	7	Sololá	713	San Lucas Tolimán	10	San Lucas Tolimán	11	Noviembre	2023-11-28T00:00:00	2024-11-08T14:00:00	1	Precipitación	0
161896	7	Sololá	713	San Lucas Tolimán	10	San Lucas Tolimán	11	Noviembre	2023-11-28T00:00:00	2024-11-08T14:00:00	8	Radiación solar	492
161897	7	Sololá	713	San Lucas Tolimán	10	San Lucas Tolimán	11	Noviembre	2023-11-28T00:00:00	2024-11-08T15:00:00	2	Temperatura media	22.3
161898	7	Sololá	713	San Lucas Tolimán	10	San Lucas Tolimán	11	Noviembre	2023-11-28T00:00:00	2024-11-08T15:00:00	4	Temperatura máxima	23.6
161899	7	Sololá	713	San Lucas Tolimán	10	San Lucas Tolimán	11	Noviembre	2023-11-28T00:00:00	2024-11-08T15:00:00	3	Temperatura mínima	22.2
161900	7	Sololá	713	San Lucas Tolimán	10	San Lucas Tolimán	11	Noviembre	2023-11-28T00:00:00	2024-11-08T15:00:00	5	Humedad	61
161901	7	Sololá	713	San Lucas Tolimán	10	San Lucas Tolimán	11	Noviembre	2023-11-28T00:00:00	2024-11-08T15:00:00	6	Velocidad del viento	6.4
161902	7	Sololá	713	San Lucas Tolimán	10	San Lucas Tolimán	11	Noviembre	2023-11-28T00:00:00	2024-11-08T15:00:00	7	Dirección del viento	6.44
161903	7	Sololá	713	San Lucas Tolimán	10	San Lucas Tolimán	11	Noviembre	2023-11-28T00:00:00	2024-11-08T15:00:00	1	Precipitación	0
161904	7	Sololá	713	San Lucas Tolimán	10	San Lucas Tolimán	11	Noviembre	2023-11-28T00:00:00	2024-11-08T15:00:00	8	Radiación solar	216
161905	7	Sololá	713	San Lucas Tolimán	10	San Lucas Tolimán	11	Noviembre	2023-11-28T00:00:00	2024-11-08T16:00:00	2	Temperatura media	23.7
161906	7	Sololá	713	San Lucas Tolimán	10	San Lucas Tolimán	11	Noviembre	2023-11-28T00:00:00	2024-11-08T16:00:00	4	Temperatura máxima	23.9
161907	7	Sololá	713	San Lucas Tolimán	10	San Lucas Tolimán	11	Noviembre	2023-11-28T00:00:00	2024-11-08T16:00:00	3	Temperatura mínima	21.8
161908	7	Sololá	713	San Lucas Tolimán	10	San Lucas Tolimán	11	Noviembre	2023-11-28T00:00:00	2024-11-08T16:00:00	5	Humedad	53
161909	7	Sololá	713	San Lucas Tolimán	10	San Lucas Tolimán	11	Noviembre	2023-11-28T00:00:00	2024-11-08T16:00:00	6	Velocidad del viento	3.2
161910	7	Sololá	713	San Lucas Tolimán	10	San Lucas Tolimán	11	Noviembre	2023-11-28T00:00:00	2024-11-08T16:00:00	7	Dirección del viento	3.22
161911	7	Sololá	713	San Lucas Tolimán	10	San Lucas Tolimán	11	Noviembre	2023-11-28T00:00:00	2024-11-08T16:00:00	1	Precipitación	0
161912	7	Sololá	713	San Lucas Tolimán	10	San Lucas Tolimán	11	Noviembre	2023-11-28T00:00:00	2024-11-08T16:00:00	8	Radiación solar	166
161913	7	Sololá	713	San Lucas Tolimán	10	San Lucas Tolimán	11	Noviembre	2023-11-28T00:00:00	2024-11-08T17:00:00	2	Temperatura media	22.2
161914	7	Sololá	713	San Lucas Tolimán	10	San Lucas Tolimán	11	Noviembre	2023-11-28T00:00:00	2024-11-08T17:00:00	4	Temperatura máxima	23.7
161915	7	Sololá	713	San Lucas Tolimán	10	San Lucas Tolimán	11	Noviembre	2023-11-28T00:00:00	2024-11-08T17:00:00	3	Temperatura mínima	22.2
161916	7	Sololá	713	San Lucas Tolimán	10	San Lucas Tolimán	11	Noviembre	2023-11-28T00:00:00	2024-11-08T17:00:00	5	Humedad	51
161917	7	Sololá	713	San Lucas Tolimán	10	San Lucas Tolimán	11	Noviembre	2023-11-28T00:00:00	2024-11-08T17:00:00	6	Velocidad del viento	11.3
161918	7	Sololá	713	San Lucas Tolimán	10	San Lucas Tolimán	11	Noviembre	2023-11-28T00:00:00	2024-11-08T17:00:00	7	Dirección del viento	11.27
161919	7	Sololá	713	San Lucas Tolimán	10	San Lucas Tolimán	11	Noviembre	2023-11-28T00:00:00	2024-11-08T17:00:00	1	Precipitación	0
161920	7	Sololá	713	San Lucas Tolimán	10	San Lucas Tolimán	11	Noviembre	2023-11-28T00:00:00	2024-11-08T17:00:00	8	Radiación solar	65
161921	7	Sololá	713	San Lucas Tolimán	10	San Lucas Tolimán	11	Noviembre	2023-11-28T00:00:00	2024-11-08T18:00:00	2	Temperatura media	21.8
161922	7	Sololá	713	San Lucas Tolimán	10	San Lucas Tolimán	11	Noviembre	2023-11-28T00:00:00	2024-11-08T18:00:00	4	Temperatura máxima	22.2
161923	7	Sololá	713	San Lucas Tolimán	10	San Lucas Tolimán	11	Noviembre	2023-11-28T00:00:00	2024-11-08T18:00:00	3	Temperatura mínima	21.8
161924	7	Sololá	713	San Lucas Tolimán	10	San Lucas Tolimán	11	Noviembre	2023-11-28T00:00:00	2024-11-08T18:00:00	5	Humedad	51
161925	7	Sololá	713	San Lucas Tolimán	10	San Lucas Tolimán	11	Noviembre	2023-11-28T00:00:00	2024-11-08T18:00:00	6	Velocidad del viento	16.1
161926	7	Sololá	713	San Lucas Tolimán	10	San Lucas Tolimán	11	Noviembre	2023-11-28T00:00:00	2024-11-08T18:00:00	7	Dirección del viento	16.09
161927	7	Sololá	713	San Lucas Tolimán	10	San Lucas Tolimán	11	Noviembre	2023-11-28T00:00:00	2024-11-08T18:00:00	1	Precipitación	0
161928	7	Sololá	713	San Lucas Tolimán	10	San Lucas Tolimán	11	Noviembre	2023-11-28T00:00:00	2024-11-08T18:00:00	8	Radiación solar	11
161929	7	Sololá	713	San Lucas Tolimán	10	San Lucas Tolimán	11	Noviembre	2023-11-28T00:00:00	2024-11-08T19:00:00	2	Temperatura media	21.4
161930	7	Sololá	713	San Lucas Tolimán	10	San Lucas Tolimán	11	Noviembre	2023-11-28T00:00:00	2024-11-08T19:00:00	4	Temperatura máxima	21.8
161931	7	Sololá	713	San Lucas Tolimán	10	San Lucas Tolimán	11	Noviembre	2023-11-28T00:00:00	2024-11-08T19:00:00	3	Temperatura mínima	21.4
161932	7	Sololá	713	San Lucas Tolimán	10	San Lucas Tolimán	11	Noviembre	2023-11-28T00:00:00	2024-11-08T19:00:00	5	Humedad	52
161933	7	Sololá	713	San Lucas Tolimán	10	San Lucas Tolimán	11	Noviembre	2023-11-28T00:00:00	2024-11-08T19:00:00	6	Velocidad del viento	12.9
161934	7	Sololá	713	San Lucas Tolimán	10	San Lucas Tolimán	11	Noviembre	2023-11-28T00:00:00	2024-11-08T19:00:00	7	Dirección del viento	12.87
161935	7	Sololá	713	San Lucas Tolimán	10	San Lucas Tolimán	11	Noviembre	2023-11-28T00:00:00	2024-11-08T19:00:00	1	Precipitación	0
161936	7	Sololá	713	San Lucas Tolimán	10	San Lucas Tolimán	11	Noviembre	2023-11-28T00:00:00	2024-11-08T19:00:00	8	Radiación solar	0
161937	7	Sololá	713	San Lucas Tolimán	10	San Lucas Tolimán	11	Noviembre	2023-11-28T00:00:00	2024-11-08T20:00:00	2	Temperatura media	21.1
161938	7	Sololá	713	San Lucas Tolimán	10	San Lucas Tolimán	11	Noviembre	2023-11-28T00:00:00	2024-11-08T20:00:00	4	Temperatura máxima	21.4
161939	7	Sololá	713	San Lucas Tolimán	10	San Lucas Tolimán	11	Noviembre	2023-11-28T00:00:00	2024-11-08T20:00:00	3	Temperatura mínima	20.7
161940	7	Sololá	713	San Lucas Tolimán	10	San Lucas Tolimán	11	Noviembre	2023-11-28T00:00:00	2024-11-08T20:00:00	5	Humedad	53
161941	7	Sololá	713	San Lucas Tolimán	10	San Lucas Tolimán	11	Noviembre	2023-11-28T00:00:00	2024-11-08T20:00:00	6	Velocidad del viento	6.4
161942	7	Sololá	713	San Lucas Tolimán	10	San Lucas Tolimán	11	Noviembre	2023-11-28T00:00:00	2024-11-08T20:00:00	7	Dirección del viento	6.44
161943	7	Sololá	713	San Lucas Tolimán	10	San Lucas Tolimán	11	Noviembre	2023-11-28T00:00:00	2024-11-08T20:00:00	1	Precipitación	0
161944	7	Sololá	713	San Lucas Tolimán	10	San Lucas Tolimán	11	Noviembre	2023-11-28T00:00:00	2024-11-08T20:00:00	8	Radiación solar	0
161945	7	Sololá	713	San Lucas Tolimán	10	San Lucas Tolimán	11	Noviembre	2023-11-28T00:00:00	2024-11-08T21:00:00	2	Temperatura media	20.8
161946	7	Sololá	713	San Lucas Tolimán	10	San Lucas Tolimán	11	Noviembre	2023-11-28T00:00:00	2024-11-08T21:00:00	4	Temperatura máxima	21.1
161947	7	Sololá	713	San Lucas Tolimán	10	San Lucas Tolimán	11	Noviembre	2023-11-28T00:00:00	2024-11-08T21:00:00	3	Temperatura mínima	20.7
161948	7	Sololá	713	San Lucas Tolimán	10	San Lucas Tolimán	11	Noviembre	2023-11-28T00:00:00	2024-11-08T21:00:00	5	Humedad	54
161949	7	Sololá	713	San Lucas Tolimán	10	San Lucas Tolimán	11	Noviembre	2023-11-28T00:00:00	2024-11-08T21:00:00	6	Velocidad del viento	14.5
161950	7	Sololá	713	San Lucas Tolimán	10	San Lucas Tolimán	11	Noviembre	2023-11-28T00:00:00	2024-11-08T21:00:00	7	Dirección del viento	14.48
161951	7	Sololá	713	San Lucas Tolimán	10	San Lucas Tolimán	11	Noviembre	2023-11-28T00:00:00	2024-11-08T21:00:00	1	Precipitación	0
161952	7	Sololá	713	San Lucas Tolimán	10	San Lucas Tolimán	11	Noviembre	2023-11-28T00:00:00	2024-11-08T21:00:00	8	Radiación solar	0
161953	7	Sololá	713	San Lucas Tolimán	10	San Lucas Tolimán	11	Noviembre	2023-11-28T00:00:00	2024-11-08T22:00:00	2	Temperatura media	20
161954	7	Sololá	713	San Lucas Tolimán	10	San Lucas Tolimán	11	Noviembre	2023-11-28T00:00:00	2024-11-08T22:00:00	4	Temperatura máxima	20.8
161955	7	Sololá	713	San Lucas Tolimán	10	San Lucas Tolimán	11	Noviembre	2023-11-28T00:00:00	2024-11-08T22:00:00	3	Temperatura mínima	19.8
161956	7	Sololá	713	San Lucas Tolimán	10	San Lucas Tolimán	11	Noviembre	2023-11-28T00:00:00	2024-11-08T22:00:00	5	Humedad	54
161957	7	Sololá	713	San Lucas Tolimán	10	San Lucas Tolimán	11	Noviembre	2023-11-28T00:00:00	2024-11-08T22:00:00	6	Velocidad del viento	4.8
161958	7	Sololá	713	San Lucas Tolimán	10	San Lucas Tolimán	11	Noviembre	2023-11-28T00:00:00	2024-11-08T22:00:00	7	Dirección del viento	4.83
161959	7	Sololá	713	San Lucas Tolimán	10	San Lucas Tolimán	11	Noviembre	2023-11-28T00:00:00	2024-11-08T22:00:00	1	Precipitación	0
161960	7	Sololá	713	San Lucas Tolimán	10	San Lucas Tolimán	11	Noviembre	2023-11-28T00:00:00	2024-11-08T22:00:00	8	Radiación solar	0
161961	7	Sololá	713	San Lucas Tolimán	10	San Lucas Tolimán	11	Noviembre	2023-11-28T00:00:00	2024-11-08T23:00:00	2	Temperatura media	18.9
161962	7	Sololá	713	San Lucas Tolimán	10	San Lucas Tolimán	11	Noviembre	2023-11-28T00:00:00	2024-11-08T23:00:00	4	Temperatura máxima	20.4
161963	7	Sololá	713	San Lucas Tolimán	10	San Lucas Tolimán	11	Noviembre	2023-11-28T00:00:00	2024-11-08T23:00:00	3	Temperatura mínima	18.9
161964	7	Sololá	713	San Lucas Tolimán	10	San Lucas Tolimán	11	Noviembre	2023-11-28T00:00:00	2024-11-08T23:00:00	5	Humedad	57
161965	7	Sololá	713	San Lucas Tolimán	10	San Lucas Tolimán	11	Noviembre	2023-11-28T00:00:00	2024-11-08T23:00:00	6	Velocidad del viento	6.4
161966	7	Sololá	713	San Lucas Tolimán	10	San Lucas Tolimán	11	Noviembre	2023-11-28T00:00:00	2024-11-08T23:00:00	7	Dirección del viento	6.44
161967	7	Sololá	713	San Lucas Tolimán	10	San Lucas Tolimán	11	Noviembre	2023-11-28T00:00:00	2024-11-08T23:00:00	1	Precipitación	0
161968	7	Sololá	713	San Lucas Tolimán	10	San Lucas Tolimán	11	Noviembre	2023-11-28T00:00:00	2024-11-08T23:00:00	8	Radiación solar	0
161969	7	Sololá	713	San Lucas Tolimán	10	San Lucas Tolimán	11	Noviembre	2023-11-29T00:00:00	2024-11-08T00:00:00	2	Temperatura media	18.7
161970	7	Sololá	713	San Lucas Tolimán	10	San Lucas Tolimán	11	Noviembre	2023-11-29T00:00:00	2024-11-08T00:00:00	4	Temperatura máxima	19.7
161971	7	Sololá	713	San Lucas Tolimán	10	San Lucas Tolimán	11	Noviembre	2023-11-29T00:00:00	2024-11-08T00:00:00	3	Temperatura mínima	18.7
161972	7	Sololá	713	San Lucas Tolimán	10	San Lucas Tolimán	11	Noviembre	2023-11-29T00:00:00	2024-11-08T00:00:00	5	Humedad	56
161973	7	Sololá	713	San Lucas Tolimán	10	San Lucas Tolimán	11	Noviembre	2023-11-29T00:00:00	2024-11-08T00:00:00	6	Velocidad del viento	6.4
161974	7	Sololá	713	San Lucas Tolimán	10	San Lucas Tolimán	11	Noviembre	2023-11-29T00:00:00	2024-11-08T00:00:00	7	Dirección del viento	6.44
161975	7	Sololá	713	San Lucas Tolimán	10	San Lucas Tolimán	11	Noviembre	2023-11-29T00:00:00	2024-11-08T00:00:00	1	Precipitación	0
161976	7	Sololá	713	San Lucas Tolimán	10	San Lucas Tolimán	11	Noviembre	2023-11-29T00:00:00	2024-11-08T00:00:00	8	Radiación solar	0
161977	7	Sololá	713	San Lucas Tolimán	10	San Lucas Tolimán	11	Noviembre	2023-11-29T00:00:00	2024-11-08T01:00:00	2	Temperatura media	17.8
161978	7	Sololá	713	San Lucas Tolimán	10	San Lucas Tolimán	11	Noviembre	2023-11-29T00:00:00	2024-11-08T01:00:00	4	Temperatura máxima	18.7
161979	7	Sololá	713	San Lucas Tolimán	10	San Lucas Tolimán	11	Noviembre	2023-11-29T00:00:00	2024-11-08T01:00:00	3	Temperatura mínima	17.8
161980	7	Sololá	713	San Lucas Tolimán	10	San Lucas Tolimán	11	Noviembre	2023-11-29T00:00:00	2024-11-08T01:00:00	5	Humedad	58
161981	7	Sololá	713	San Lucas Tolimán	10	San Lucas Tolimán	11	Noviembre	2023-11-29T00:00:00	2024-11-08T01:00:00	6	Velocidad del viento	1.6
161982	7	Sololá	713	San Lucas Tolimán	10	San Lucas Tolimán	11	Noviembre	2023-11-29T00:00:00	2024-11-08T01:00:00	7	Dirección del viento	1.61
161983	7	Sololá	713	San Lucas Tolimán	10	San Lucas Tolimán	11	Noviembre	2023-11-29T00:00:00	2024-11-08T01:00:00	1	Precipitación	0
161984	7	Sololá	713	San Lucas Tolimán	10	San Lucas Tolimán	11	Noviembre	2023-11-29T00:00:00	2024-11-08T01:00:00	8	Radiación solar	0
161985	7	Sololá	713	San Lucas Tolimán	10	San Lucas Tolimán	11	Noviembre	2023-11-29T00:00:00	2024-11-08T02:00:00	2	Temperatura media	17.9
161986	7	Sololá	713	San Lucas Tolimán	10	San Lucas Tolimán	11	Noviembre	2023-11-29T00:00:00	2024-11-08T02:00:00	4	Temperatura máxima	18.1
161987	7	Sololá	713	San Lucas Tolimán	10	San Lucas Tolimán	11	Noviembre	2023-11-29T00:00:00	2024-11-08T02:00:00	3	Temperatura mínima	17.6
161988	7	Sololá	713	San Lucas Tolimán	10	San Lucas Tolimán	11	Noviembre	2023-11-29T00:00:00	2024-11-08T02:00:00	5	Humedad	58
161989	7	Sololá	713	San Lucas Tolimán	10	San Lucas Tolimán	11	Noviembre	2023-11-29T00:00:00	2024-11-08T02:00:00	6	Velocidad del viento	3.2
161990	7	Sololá	713	San Lucas Tolimán	10	San Lucas Tolimán	11	Noviembre	2023-11-29T00:00:00	2024-11-08T02:00:00	7	Dirección del viento	3.22
161991	7	Sololá	713	San Lucas Tolimán	10	San Lucas Tolimán	11	Noviembre	2023-11-29T00:00:00	2024-11-08T02:00:00	1	Precipitación	0
161992	7	Sololá	713	San Lucas Tolimán	10	San Lucas Tolimán	11	Noviembre	2023-11-29T00:00:00	2024-11-08T02:00:00	8	Radiación solar	0
161993	7	Sololá	713	San Lucas Tolimán	10	San Lucas Tolimán	11	Noviembre	2023-11-29T00:00:00	2024-11-08T03:00:00	2	Temperatura media	17.3
161994	7	Sololá	713	San Lucas Tolimán	10	San Lucas Tolimán	11	Noviembre	2023-11-29T00:00:00	2024-11-08T03:00:00	4	Temperatura máxima	17.9
161995	7	Sololá	713	San Lucas Tolimán	10	San Lucas Tolimán	11	Noviembre	2023-11-29T00:00:00	2024-11-08T03:00:00	3	Temperatura mínima	17.2
161996	7	Sololá	713	San Lucas Tolimán	10	San Lucas Tolimán	11	Noviembre	2023-11-29T00:00:00	2024-11-08T03:00:00	5	Humedad	59
161997	7	Sololá	713	San Lucas Tolimán	10	San Lucas Tolimán	11	Noviembre	2023-11-29T00:00:00	2024-11-08T03:00:00	6	Velocidad del viento	3.2
161998	7	Sololá	713	San Lucas Tolimán	10	San Lucas Tolimán	11	Noviembre	2023-11-29T00:00:00	2024-11-08T03:00:00	7	Dirección del viento	3.22
161999	7	Sololá	713	San Lucas Tolimán	10	San Lucas Tolimán	11	Noviembre	2023-11-29T00:00:00	2024-11-08T03:00:00	1	Precipitación	0
162000	7	Sololá	713	San Lucas Tolimán	10	San Lucas Tolimán	11	Noviembre	2023-11-29T00:00:00	2024-11-08T03:00:00	8	Radiación solar	0
162001	7	Sololá	713	San Lucas Tolimán	10	San Lucas Tolimán	11	Noviembre	2023-11-29T00:00:00	2024-11-08T04:00:00	2	Temperatura media	16.6
162002	7	Sololá	713	San Lucas Tolimán	10	San Lucas Tolimán	11	Noviembre	2023-11-29T00:00:00	2024-11-08T04:00:00	4	Temperatura máxima	17.5
162003	7	Sololá	713	San Lucas Tolimán	10	San Lucas Tolimán	11	Noviembre	2023-11-29T00:00:00	2024-11-08T04:00:00	3	Temperatura mínima	16.5
162004	7	Sololá	713	San Lucas Tolimán	10	San Lucas Tolimán	11	Noviembre	2023-11-29T00:00:00	2024-11-08T04:00:00	5	Humedad	60
162005	7	Sololá	713	San Lucas Tolimán	10	San Lucas Tolimán	11	Noviembre	2023-11-29T00:00:00	2024-11-08T04:00:00	6	Velocidad del viento	1.6
162006	7	Sololá	713	San Lucas Tolimán	10	San Lucas Tolimán	11	Noviembre	2023-11-29T00:00:00	2024-11-08T04:00:00	7	Dirección del viento	1.61
162007	7	Sololá	713	San Lucas Tolimán	10	San Lucas Tolimán	11	Noviembre	2023-11-29T00:00:00	2024-11-08T04:00:00	1	Precipitación	0
162008	7	Sololá	713	San Lucas Tolimán	10	San Lucas Tolimán	11	Noviembre	2023-11-29T00:00:00	2024-11-08T04:00:00	8	Radiación solar	0
162009	7	Sololá	713	San Lucas Tolimán	10	San Lucas Tolimán	11	Noviembre	2023-11-29T00:00:00	2024-11-08T05:00:00	2	Temperatura media	15.2
162010	7	Sololá	713	San Lucas Tolimán	10	San Lucas Tolimán	11	Noviembre	2023-11-29T00:00:00	2024-11-08T05:00:00	4	Temperatura máxima	16.6
162011	7	Sololá	713	San Lucas Tolimán	10	San Lucas Tolimán	11	Noviembre	2023-11-29T00:00:00	2024-11-08T05:00:00	3	Temperatura mínima	15.1
162012	7	Sololá	713	San Lucas Tolimán	10	San Lucas Tolimán	11	Noviembre	2023-11-29T00:00:00	2024-11-08T05:00:00	5	Humedad	63
162013	7	Sololá	713	San Lucas Tolimán	10	San Lucas Tolimán	11	Noviembre	2023-11-29T00:00:00	2024-11-08T05:00:00	6	Velocidad del viento	0
162014	7	Sololá	713	San Lucas Tolimán	10	San Lucas Tolimán	11	Noviembre	2023-11-29T00:00:00	2024-11-08T05:00:00	7	Dirección del viento	0
162015	7	Sololá	713	San Lucas Tolimán	10	San Lucas Tolimán	11	Noviembre	2023-11-29T00:00:00	2024-11-08T05:00:00	1	Precipitación	0
162016	7	Sololá	713	San Lucas Tolimán	10	San Lucas Tolimán	11	Noviembre	2023-11-29T00:00:00	2024-11-08T05:00:00	8	Radiación solar	0
162017	7	Sololá	713	San Lucas Tolimán	10	San Lucas Tolimán	11	Noviembre	2023-11-29T00:00:00	2024-11-08T06:00:00	2	Temperatura media	15.4
162018	7	Sololá	713	San Lucas Tolimán	10	San Lucas Tolimán	11	Noviembre	2023-11-29T00:00:00	2024-11-08T06:00:00	4	Temperatura máxima	15.4
162019	7	Sololá	713	San Lucas Tolimán	10	San Lucas Tolimán	11	Noviembre	2023-11-29T00:00:00	2024-11-08T06:00:00	3	Temperatura mínima	14.6
162020	7	Sololá	713	San Lucas Tolimán	10	San Lucas Tolimán	11	Noviembre	2023-11-29T00:00:00	2024-11-08T06:00:00	5	Humedad	58
162021	7	Sololá	713	San Lucas Tolimán	10	San Lucas Tolimán	11	Noviembre	2023-11-29T00:00:00	2024-11-08T06:00:00	6	Velocidad del viento	1.6
162022	7	Sololá	713	San Lucas Tolimán	10	San Lucas Tolimán	11	Noviembre	2023-11-29T00:00:00	2024-11-08T06:00:00	7	Dirección del viento	1.61
162023	7	Sololá	713	San Lucas Tolimán	10	San Lucas Tolimán	11	Noviembre	2023-11-29T00:00:00	2024-11-08T06:00:00	1	Precipitación	0
162024	7	Sololá	713	San Lucas Tolimán	10	San Lucas Tolimán	11	Noviembre	2023-11-29T00:00:00	2024-11-08T06:00:00	8	Radiación solar	0
162025	7	Sololá	713	San Lucas Tolimán	10	San Lucas Tolimán	11	Noviembre	2023-11-29T00:00:00	2024-11-08T07:00:00	2	Temperatura media	15.2
162026	7	Sololá	713	San Lucas Tolimán	10	San Lucas Tolimán	11	Noviembre	2023-11-29T00:00:00	2024-11-08T07:00:00	4	Temperatura máxima	16.1
162027	7	Sololá	713	San Lucas Tolimán	10	San Lucas Tolimán	11	Noviembre	2023-11-29T00:00:00	2024-11-08T07:00:00	3	Temperatura mínima	14.7
162028	7	Sololá	713	San Lucas Tolimán	10	San Lucas Tolimán	11	Noviembre	2023-11-29T00:00:00	2024-11-08T07:00:00	5	Humedad	58
162029	7	Sololá	713	San Lucas Tolimán	10	San Lucas Tolimán	11	Noviembre	2023-11-29T00:00:00	2024-11-08T07:00:00	6	Velocidad del viento	1.6
162030	7	Sololá	713	San Lucas Tolimán	10	San Lucas Tolimán	11	Noviembre	2023-11-29T00:00:00	2024-11-08T07:00:00	7	Dirección del viento	1.61
162031	7	Sololá	713	San Lucas Tolimán	10	San Lucas Tolimán	11	Noviembre	2023-11-29T00:00:00	2024-11-08T07:00:00	1	Precipitación	0
162032	7	Sololá	713	San Lucas Tolimán	10	San Lucas Tolimán	11	Noviembre	2023-11-29T00:00:00	2024-11-08T07:00:00	8	Radiación solar	12
162033	7	Sololá	713	San Lucas Tolimán	10	San Lucas Tolimán	11	Noviembre	2023-11-29T00:00:00	2024-11-08T08:00:00	2	Temperatura media	17.1
162034	7	Sololá	713	San Lucas Tolimán	10	San Lucas Tolimán	11	Noviembre	2023-11-29T00:00:00	2024-11-08T08:00:00	4	Temperatura máxima	17.1
162035	7	Sololá	713	San Lucas Tolimán	10	San Lucas Tolimán	11	Noviembre	2023-11-29T00:00:00	2024-11-08T08:00:00	3	Temperatura mínima	15.2
162036	7	Sololá	713	San Lucas Tolimán	10	San Lucas Tolimán	11	Noviembre	2023-11-29T00:00:00	2024-11-08T08:00:00	5	Humedad	53
162037	7	Sololá	713	San Lucas Tolimán	10	San Lucas Tolimán	11	Noviembre	2023-11-29T00:00:00	2024-11-08T08:00:00	6	Velocidad del viento	0
162038	7	Sololá	713	San Lucas Tolimán	10	San Lucas Tolimán	11	Noviembre	2023-11-29T00:00:00	2024-11-08T08:00:00	7	Dirección del viento	0
162039	7	Sololá	713	San Lucas Tolimán	10	San Lucas Tolimán	11	Noviembre	2023-11-29T00:00:00	2024-11-08T08:00:00	1	Precipitación	0
162040	7	Sololá	713	San Lucas Tolimán	10	San Lucas Tolimán	11	Noviembre	2023-11-29T00:00:00	2024-11-08T08:00:00	8	Radiación solar	40
162041	7	Sololá	713	San Lucas Tolimán	10	San Lucas Tolimán	11	Noviembre	2023-11-29T00:00:00	2024-11-08T09:00:00	2	Temperatura media	21.2
162042	7	Sololá	713	San Lucas Tolimán	10	San Lucas Tolimán	11	Noviembre	2023-11-29T00:00:00	2024-11-08T09:00:00	4	Temperatura máxima	21.2
162043	7	Sololá	713	San Lucas Tolimán	10	San Lucas Tolimán	11	Noviembre	2023-11-29T00:00:00	2024-11-08T09:00:00	3	Temperatura mínima	17.1
162044	7	Sololá	713	San Lucas Tolimán	10	San Lucas Tolimán	11	Noviembre	2023-11-29T00:00:00	2024-11-08T09:00:00	5	Humedad	43
162045	7	Sololá	713	San Lucas Tolimán	10	San Lucas Tolimán	11	Noviembre	2023-11-29T00:00:00	2024-11-08T09:00:00	6	Velocidad del viento	3.2
162046	7	Sololá	713	San Lucas Tolimán	10	San Lucas Tolimán	11	Noviembre	2023-11-29T00:00:00	2024-11-08T09:00:00	7	Dirección del viento	3.22
162047	7	Sololá	713	San Lucas Tolimán	10	San Lucas Tolimán	11	Noviembre	2023-11-29T00:00:00	2024-11-08T09:00:00	1	Precipitación	0
162048	7	Sololá	713	San Lucas Tolimán	10	San Lucas Tolimán	11	Noviembre	2023-11-29T00:00:00	2024-11-08T09:00:00	8	Radiación solar	386
162049	7	Sololá	713	San Lucas Tolimán	10	San Lucas Tolimán	11	Noviembre	2023-11-29T00:00:00	2024-11-08T10:00:00	2	Temperatura media	23.2
162050	7	Sololá	713	San Lucas Tolimán	10	San Lucas Tolimán	11	Noviembre	2023-11-29T00:00:00	2024-11-08T10:00:00	4	Temperatura máxima	23.2
162051	7	Sololá	713	San Lucas Tolimán	10	San Lucas Tolimán	11	Noviembre	2023-11-29T00:00:00	2024-11-08T10:00:00	3	Temperatura mínima	21.3
162052	7	Sololá	713	San Lucas Tolimán	10	San Lucas Tolimán	11	Noviembre	2023-11-29T00:00:00	2024-11-08T10:00:00	5	Humedad	32
162053	7	Sololá	713	San Lucas Tolimán	10	San Lucas Tolimán	11	Noviembre	2023-11-29T00:00:00	2024-11-08T10:00:00	6	Velocidad del viento	4.8
162054	7	Sololá	713	San Lucas Tolimán	10	San Lucas Tolimán	11	Noviembre	2023-11-29T00:00:00	2024-11-08T10:00:00	7	Dirección del viento	4.83
162055	7	Sololá	713	San Lucas Tolimán	10	San Lucas Tolimán	11	Noviembre	2023-11-29T00:00:00	2024-11-08T10:00:00	1	Precipitación	0
162056	7	Sololá	713	San Lucas Tolimán	10	San Lucas Tolimán	11	Noviembre	2023-11-29T00:00:00	2024-11-08T10:00:00	8	Radiación solar	637
162057	7	Sololá	713	San Lucas Tolimán	10	San Lucas Tolimán	11	Noviembre	2023-11-29T00:00:00	2024-11-08T11:00:00	2	Temperatura media	24.1
162058	7	Sololá	713	San Lucas Tolimán	10	San Lucas Tolimán	11	Noviembre	2023-11-29T00:00:00	2024-11-08T11:00:00	4	Temperatura máxima	24.5
162059	7	Sololá	713	San Lucas Tolimán	10	San Lucas Tolimán	11	Noviembre	2023-11-29T00:00:00	2024-11-08T11:00:00	3	Temperatura mínima	23.2
162060	7	Sololá	713	San Lucas Tolimán	10	San Lucas Tolimán	11	Noviembre	2023-11-29T00:00:00	2024-11-08T11:00:00	5	Humedad	31
162061	7	Sololá	713	San Lucas Tolimán	10	San Lucas Tolimán	11	Noviembre	2023-11-29T00:00:00	2024-11-08T11:00:00	6	Velocidad del viento	8
162062	7	Sololá	713	San Lucas Tolimán	10	San Lucas Tolimán	11	Noviembre	2023-11-29T00:00:00	2024-11-08T11:00:00	7	Dirección del viento	8.05
162063	7	Sololá	713	San Lucas Tolimán	10	San Lucas Tolimán	11	Noviembre	2023-11-29T00:00:00	2024-11-08T11:00:00	1	Precipitación	0
162064	7	Sololá	713	San Lucas Tolimán	10	San Lucas Tolimán	11	Noviembre	2023-11-29T00:00:00	2024-11-08T11:00:00	8	Radiación solar	777
162065	7	Sololá	713	San Lucas Tolimán	10	San Lucas Tolimán	11	Noviembre	2023-11-29T00:00:00	2024-11-08T12:00:00	2	Temperatura media	24.7
162066	7	Sololá	713	San Lucas Tolimán	10	San Lucas Tolimán	11	Noviembre	2023-11-29T00:00:00	2024-11-08T12:00:00	4	Temperatura máxima	25.1
162067	7	Sololá	713	San Lucas Tolimán	10	San Lucas Tolimán	11	Noviembre	2023-11-29T00:00:00	2024-11-08T12:00:00	3	Temperatura mínima	24
162068	7	Sololá	713	San Lucas Tolimán	10	San Lucas Tolimán	11	Noviembre	2023-11-29T00:00:00	2024-11-08T12:00:00	5	Humedad	38
162069	7	Sololá	713	San Lucas Tolimán	10	San Lucas Tolimán	11	Noviembre	2023-11-29T00:00:00	2024-11-08T12:00:00	6	Velocidad del viento	9.7
162070	7	Sololá	713	San Lucas Tolimán	10	San Lucas Tolimán	11	Noviembre	2023-11-29T00:00:00	2024-11-08T12:00:00	7	Dirección del viento	9.66
162071	7	Sololá	713	San Lucas Tolimán	10	San Lucas Tolimán	11	Noviembre	2023-11-29T00:00:00	2024-11-08T12:00:00	1	Precipitación	0
162072	7	Sololá	713	San Lucas Tolimán	10	San Lucas Tolimán	11	Noviembre	2023-11-29T00:00:00	2024-11-08T12:00:00	8	Radiación solar	850
162073	7	Sololá	713	San Lucas Tolimán	10	San Lucas Tolimán	11	Noviembre	2023-11-29T00:00:00	2024-11-08T13:00:00	2	Temperatura media	24.4
162074	7	Sololá	713	San Lucas Tolimán	10	San Lucas Tolimán	11	Noviembre	2023-11-29T00:00:00	2024-11-08T13:00:00	4	Temperatura máxima	25.7
162075	7	Sololá	713	San Lucas Tolimán	10	San Lucas Tolimán	11	Noviembre	2023-11-29T00:00:00	2024-11-08T13:00:00	3	Temperatura mínima	24.4
162076	7	Sololá	713	San Lucas Tolimán	10	San Lucas Tolimán	11	Noviembre	2023-11-29T00:00:00	2024-11-08T13:00:00	5	Humedad	40
162077	7	Sololá	713	San Lucas Tolimán	10	San Lucas Tolimán	11	Noviembre	2023-11-29T00:00:00	2024-11-08T13:00:00	6	Velocidad del viento	6.4
162078	7	Sololá	713	San Lucas Tolimán	10	San Lucas Tolimán	11	Noviembre	2023-11-29T00:00:00	2024-11-08T13:00:00	7	Dirección del viento	6.44
162079	7	Sololá	713	San Lucas Tolimán	10	San Lucas Tolimán	11	Noviembre	2023-11-29T00:00:00	2024-11-08T13:00:00	1	Precipitación	0
162080	7	Sololá	713	San Lucas Tolimán	10	San Lucas Tolimán	11	Noviembre	2023-11-29T00:00:00	2024-11-08T13:00:00	8	Radiación solar	839
162081	7	Sololá	713	San Lucas Tolimán	10	San Lucas Tolimán	11	Noviembre	2023-11-29T00:00:00	2024-11-08T14:00:00	2	Temperatura media	23.4
162082	7	Sololá	713	San Lucas Tolimán	10	San Lucas Tolimán	11	Noviembre	2023-11-29T00:00:00	2024-11-08T14:00:00	4	Temperatura máxima	24.7
162083	7	Sololá	713	San Lucas Tolimán	10	San Lucas Tolimán	11	Noviembre	2023-11-29T00:00:00	2024-11-08T14:00:00	3	Temperatura mínima	22.2
162084	7	Sololá	713	San Lucas Tolimán	10	San Lucas Tolimán	11	Noviembre	2023-11-29T00:00:00	2024-11-08T14:00:00	5	Humedad	57
162085	7	Sololá	713	San Lucas Tolimán	10	San Lucas Tolimán	11	Noviembre	2023-11-29T00:00:00	2024-11-08T14:00:00	6	Velocidad del viento	9.7
162086	7	Sololá	713	San Lucas Tolimán	10	San Lucas Tolimán	11	Noviembre	2023-11-29T00:00:00	2024-11-08T14:00:00	7	Dirección del viento	9.66
162087	7	Sololá	713	San Lucas Tolimán	10	San Lucas Tolimán	11	Noviembre	2023-11-29T00:00:00	2024-11-08T14:00:00	1	Precipitación	0
162088	7	Sololá	713	San Lucas Tolimán	10	San Lucas Tolimán	11	Noviembre	2023-11-29T00:00:00	2024-11-08T14:00:00	8	Radiación solar	474
162089	7	Sololá	713	San Lucas Tolimán	10	San Lucas Tolimán	11	Noviembre	2023-11-29T00:00:00	2024-11-08T15:00:00	2	Temperatura media	24.2
162090	7	Sololá	713	San Lucas Tolimán	10	San Lucas Tolimán	11	Noviembre	2023-11-29T00:00:00	2024-11-08T15:00:00	4	Temperatura máxima	24.2
162091	7	Sololá	713	San Lucas Tolimán	10	San Lucas Tolimán	11	Noviembre	2023-11-29T00:00:00	2024-11-08T15:00:00	3	Temperatura mínima	22.8
162092	7	Sololá	713	San Lucas Tolimán	10	San Lucas Tolimán	11	Noviembre	2023-11-29T00:00:00	2024-11-08T15:00:00	5	Humedad	49
162093	7	Sololá	713	San Lucas Tolimán	10	San Lucas Tolimán	11	Noviembre	2023-11-29T00:00:00	2024-11-08T15:00:00	6	Velocidad del viento	6.4
162094	7	Sololá	713	San Lucas Tolimán	10	San Lucas Tolimán	11	Noviembre	2023-11-29T00:00:00	2024-11-08T15:00:00	7	Dirección del viento	6.44
162095	7	Sololá	713	San Lucas Tolimán	10	San Lucas Tolimán	11	Noviembre	2023-11-29T00:00:00	2024-11-08T15:00:00	1	Precipitación	0
162096	7	Sololá	713	San Lucas Tolimán	10	San Lucas Tolimán	11	Noviembre	2023-11-29T00:00:00	2024-11-08T15:00:00	8	Radiación solar	602
162097	7	Sololá	713	San Lucas Tolimán	10	San Lucas Tolimán	11	Noviembre	2023-11-29T00:00:00	2024-11-08T16:00:00	2	Temperatura media	23.2
162098	7	Sololá	713	San Lucas Tolimán	10	San Lucas Tolimán	11	Noviembre	2023-11-29T00:00:00	2024-11-08T16:00:00	4	Temperatura máxima	24.4
162099	7	Sololá	713	San Lucas Tolimán	10	San Lucas Tolimán	11	Noviembre	2023-11-29T00:00:00	2024-11-08T16:00:00	3	Temperatura mínima	23.1
162100	7	Sololá	713	San Lucas Tolimán	10	San Lucas Tolimán	11	Noviembre	2023-11-29T00:00:00	2024-11-08T16:00:00	5	Humedad	41
162101	7	Sololá	713	San Lucas Tolimán	10	San Lucas Tolimán	11	Noviembre	2023-11-29T00:00:00	2024-11-08T16:00:00	6	Velocidad del viento	9.7
162102	7	Sololá	713	San Lucas Tolimán	10	San Lucas Tolimán	11	Noviembre	2023-11-29T00:00:00	2024-11-08T16:00:00	7	Dirección del viento	9.66
162103	7	Sololá	713	San Lucas Tolimán	10	San Lucas Tolimán	11	Noviembre	2023-11-29T00:00:00	2024-11-08T16:00:00	1	Precipitación	0
162104	7	Sololá	713	San Lucas Tolimán	10	San Lucas Tolimán	11	Noviembre	2023-11-29T00:00:00	2024-11-08T16:00:00	8	Radiación solar	247
162105	7	Sololá	713	San Lucas Tolimán	10	San Lucas Tolimán	11	Noviembre	2023-11-29T00:00:00	2024-11-08T17:00:00	2	Temperatura media	22.3
162106	7	Sololá	713	San Lucas Tolimán	10	San Lucas Tolimán	11	Noviembre	2023-11-29T00:00:00	2024-11-08T17:00:00	4	Temperatura máxima	23.2
162107	7	Sololá	713	San Lucas Tolimán	10	San Lucas Tolimán	11	Noviembre	2023-11-29T00:00:00	2024-11-08T17:00:00	3	Temperatura mínima	22.3
162108	7	Sololá	713	San Lucas Tolimán	10	San Lucas Tolimán	11	Noviembre	2023-11-29T00:00:00	2024-11-08T17:00:00	5	Humedad	46
162109	7	Sololá	713	San Lucas Tolimán	10	San Lucas Tolimán	11	Noviembre	2023-11-29T00:00:00	2024-11-08T17:00:00	6	Velocidad del viento	8
162110	7	Sololá	713	San Lucas Tolimán	10	San Lucas Tolimán	11	Noviembre	2023-11-29T00:00:00	2024-11-08T17:00:00	7	Dirección del viento	8.05
162111	7	Sololá	713	San Lucas Tolimán	10	San Lucas Tolimán	11	Noviembre	2023-11-29T00:00:00	2024-11-08T17:00:00	1	Precipitación	0
162112	7	Sololá	713	San Lucas Tolimán	10	San Lucas Tolimán	11	Noviembre	2023-11-29T00:00:00	2024-11-08T17:00:00	8	Radiación solar	69
162113	7	Sololá	713	San Lucas Tolimán	10	San Lucas Tolimán	11	Noviembre	2023-11-29T00:00:00	2024-11-08T18:00:00	2	Temperatura media	20.8
162114	7	Sololá	713	San Lucas Tolimán	10	San Lucas Tolimán	11	Noviembre	2023-11-29T00:00:00	2024-11-08T18:00:00	4	Temperatura máxima	22.3
162115	7	Sololá	713	San Lucas Tolimán	10	San Lucas Tolimán	11	Noviembre	2023-11-29T00:00:00	2024-11-08T18:00:00	3	Temperatura mínima	20.7
162116	7	Sololá	713	San Lucas Tolimán	10	San Lucas Tolimán	11	Noviembre	2023-11-29T00:00:00	2024-11-08T18:00:00	5	Humedad	52
162117	7	Sololá	713	San Lucas Tolimán	10	San Lucas Tolimán	11	Noviembre	2023-11-29T00:00:00	2024-11-08T18:00:00	6	Velocidad del viento	1.6
162118	7	Sololá	713	San Lucas Tolimán	10	San Lucas Tolimán	11	Noviembre	2023-11-29T00:00:00	2024-11-08T18:00:00	7	Dirección del viento	1.61
162119	7	Sololá	713	San Lucas Tolimán	10	San Lucas Tolimán	11	Noviembre	2023-11-29T00:00:00	2024-11-08T18:00:00	1	Precipitación	0
162120	7	Sololá	713	San Lucas Tolimán	10	San Lucas Tolimán	11	Noviembre	2023-11-29T00:00:00	2024-11-08T18:00:00	8	Radiación solar	11
162121	7	Sololá	713	San Lucas Tolimán	10	San Lucas Tolimán	11	Noviembre	2023-11-29T00:00:00	2024-11-08T19:00:00	2	Temperatura media	20.1
162122	7	Sololá	713	San Lucas Tolimán	10	San Lucas Tolimán	11	Noviembre	2023-11-29T00:00:00	2024-11-08T19:00:00	4	Temperatura máxima	20.7
162123	7	Sololá	713	San Lucas Tolimán	10	San Lucas Tolimán	11	Noviembre	2023-11-29T00:00:00	2024-11-08T19:00:00	3	Temperatura mínima	19.9
162124	7	Sololá	713	San Lucas Tolimán	10	San Lucas Tolimán	11	Noviembre	2023-11-29T00:00:00	2024-11-08T19:00:00	5	Humedad	53
162125	7	Sololá	713	San Lucas Tolimán	10	San Lucas Tolimán	11	Noviembre	2023-11-29T00:00:00	2024-11-08T19:00:00	6	Velocidad del viento	3.2
162126	7	Sololá	713	San Lucas Tolimán	10	San Lucas Tolimán	11	Noviembre	2023-11-29T00:00:00	2024-11-08T19:00:00	7	Dirección del viento	3.22
162127	7	Sololá	713	San Lucas Tolimán	10	San Lucas Tolimán	11	Noviembre	2023-11-29T00:00:00	2024-11-08T19:00:00	1	Precipitación	0
162128	7	Sololá	713	San Lucas Tolimán	10	San Lucas Tolimán	11	Noviembre	2023-11-29T00:00:00	2024-11-08T19:00:00	8	Radiación solar	0
162129	7	Sololá	713	San Lucas Tolimán	10	San Lucas Tolimán	11	Noviembre	2023-11-29T00:00:00	2024-11-08T20:00:00	2	Temperatura media	18.6
162130	7	Sololá	713	San Lucas Tolimán	10	San Lucas Tolimán	11	Noviembre	2023-11-29T00:00:00	2024-11-08T20:00:00	4	Temperatura máxima	20.1
162131	7	Sololá	713	San Lucas Tolimán	10	San Lucas Tolimán	11	Noviembre	2023-11-29T00:00:00	2024-11-08T20:00:00	3	Temperatura mínima	18.6
162132	7	Sololá	713	San Lucas Tolimán	10	San Lucas Tolimán	11	Noviembre	2023-11-29T00:00:00	2024-11-08T20:00:00	5	Humedad	58
162133	7	Sololá	713	San Lucas Tolimán	10	San Lucas Tolimán	11	Noviembre	2023-11-29T00:00:00	2024-11-08T20:00:00	6	Velocidad del viento	1.6
162134	7	Sololá	713	San Lucas Tolimán	10	San Lucas Tolimán	11	Noviembre	2023-11-29T00:00:00	2024-11-08T20:00:00	7	Dirección del viento	1.61
162135	7	Sololá	713	San Lucas Tolimán	10	San Lucas Tolimán	11	Noviembre	2023-11-29T00:00:00	2024-11-08T20:00:00	1	Precipitación	0
162136	7	Sololá	713	San Lucas Tolimán	10	San Lucas Tolimán	11	Noviembre	2023-11-29T00:00:00	2024-11-08T20:00:00	8	Radiación solar	0
162137	7	Sololá	713	San Lucas Tolimán	10	San Lucas Tolimán	11	Noviembre	2023-11-29T00:00:00	2024-11-08T21:00:00	2	Temperatura media	19.9
162138	7	Sololá	713	San Lucas Tolimán	10	San Lucas Tolimán	11	Noviembre	2023-11-29T00:00:00	2024-11-08T21:00:00	4	Temperatura máxima	20.2
162139	7	Sololá	713	San Lucas Tolimán	10	San Lucas Tolimán	11	Noviembre	2023-11-29T00:00:00	2024-11-08T21:00:00	3	Temperatura mínima	17.8
162140	7	Sololá	713	San Lucas Tolimán	10	San Lucas Tolimán	11	Noviembre	2023-11-29T00:00:00	2024-11-08T21:00:00	5	Humedad	52
162141	7	Sololá	713	San Lucas Tolimán	10	San Lucas Tolimán	11	Noviembre	2023-11-29T00:00:00	2024-11-08T21:00:00	6	Velocidad del viento	4.8
162142	7	Sololá	713	San Lucas Tolimán	10	San Lucas Tolimán	11	Noviembre	2023-11-29T00:00:00	2024-11-08T21:00:00	7	Dirección del viento	4.83
162143	7	Sololá	713	San Lucas Tolimán	10	San Lucas Tolimán	11	Noviembre	2023-11-29T00:00:00	2024-11-08T21:00:00	1	Precipitación	0
162144	7	Sololá	713	San Lucas Tolimán	10	San Lucas Tolimán	11	Noviembre	2023-11-29T00:00:00	2024-11-08T21:00:00	8	Radiación solar	0
162145	7	Sololá	713	San Lucas Tolimán	10	San Lucas Tolimán	11	Noviembre	2023-11-29T00:00:00	2024-11-08T22:00:00	2	Temperatura media	19.4
162146	7	Sololá	713	San Lucas Tolimán	10	San Lucas Tolimán	11	Noviembre	2023-11-29T00:00:00	2024-11-08T22:00:00	4	Temperatura máxima	19.9
162147	7	Sololá	713	San Lucas Tolimán	10	San Lucas Tolimán	11	Noviembre	2023-11-29T00:00:00	2024-11-08T22:00:00	3	Temperatura mínima	19.1
162148	7	Sololá	713	San Lucas Tolimán	10	San Lucas Tolimán	11	Noviembre	2023-11-29T00:00:00	2024-11-08T22:00:00	5	Humedad	55
162149	7	Sololá	713	San Lucas Tolimán	10	San Lucas Tolimán	11	Noviembre	2023-11-29T00:00:00	2024-11-08T22:00:00	6	Velocidad del viento	8
162150	7	Sololá	713	San Lucas Tolimán	10	San Lucas Tolimán	11	Noviembre	2023-11-29T00:00:00	2024-11-08T22:00:00	7	Dirección del viento	8.05
162151	7	Sololá	713	San Lucas Tolimán	10	San Lucas Tolimán	11	Noviembre	2023-11-29T00:00:00	2024-11-08T22:00:00	1	Precipitación	0
162152	7	Sololá	713	San Lucas Tolimán	10	San Lucas Tolimán	11	Noviembre	2023-11-29T00:00:00	2024-11-08T22:00:00	8	Radiación solar	0
162153	7	Sololá	713	San Lucas Tolimán	10	San Lucas Tolimán	11	Noviembre	2023-11-29T00:00:00	2024-11-08T23:00:00	2	Temperatura media	19.1
162154	7	Sololá	713	San Lucas Tolimán	10	San Lucas Tolimán	11	Noviembre	2023-11-29T00:00:00	2024-11-08T23:00:00	4	Temperatura máxima	19.5
162155	7	Sololá	713	San Lucas Tolimán	10	San Lucas Tolimán	11	Noviembre	2023-11-29T00:00:00	2024-11-08T23:00:00	3	Temperatura mínima	18.7
162156	7	Sololá	713	San Lucas Tolimán	10	San Lucas Tolimán	11	Noviembre	2023-11-29T00:00:00	2024-11-08T23:00:00	5	Humedad	56
162157	7	Sololá	713	San Lucas Tolimán	10	San Lucas Tolimán	11	Noviembre	2023-11-29T00:00:00	2024-11-08T23:00:00	6	Velocidad del viento	6.4
162158	7	Sololá	713	San Lucas Tolimán	10	San Lucas Tolimán	11	Noviembre	2023-11-29T00:00:00	2024-11-08T23:00:00	7	Dirección del viento	6.44
162159	7	Sololá	713	San Lucas Tolimán	10	San Lucas Tolimán	11	Noviembre	2023-11-29T00:00:00	2024-11-08T23:00:00	1	Precipitación	0
162160	7	Sololá	713	San Lucas Tolimán	10	San Lucas Tolimán	11	Noviembre	2023-11-29T00:00:00	2024-11-08T23:00:00	8	Radiación solar	0
162161	7	Sololá	713	San Lucas Tolimán	10	San Lucas Tolimán	11	Noviembre	2023-11-30T00:00:00	2024-11-08T00:00:00	2	Temperatura media	19
162162	7	Sololá	713	San Lucas Tolimán	10	San Lucas Tolimán	11	Noviembre	2023-11-30T00:00:00	2024-11-08T00:00:00	4	Temperatura máxima	19.5
162163	7	Sololá	713	San Lucas Tolimán	10	San Lucas Tolimán	11	Noviembre	2023-11-30T00:00:00	2024-11-08T00:00:00	3	Temperatura mínima	18.4
162164	7	Sololá	713	San Lucas Tolimán	10	San Lucas Tolimán	11	Noviembre	2023-11-30T00:00:00	2024-11-08T00:00:00	5	Humedad	56
162165	7	Sololá	713	San Lucas Tolimán	10	San Lucas Tolimán	11	Noviembre	2023-11-30T00:00:00	2024-11-08T00:00:00	6	Velocidad del viento	6.4
162166	7	Sololá	713	San Lucas Tolimán	10	San Lucas Tolimán	11	Noviembre	2023-11-30T00:00:00	2024-11-08T00:00:00	7	Dirección del viento	6.44
162167	7	Sololá	713	San Lucas Tolimán	10	San Lucas Tolimán	11	Noviembre	2023-11-30T00:00:00	2024-11-08T00:00:00	1	Precipitación	0
162168	7	Sololá	713	San Lucas Tolimán	10	San Lucas Tolimán	11	Noviembre	2023-11-30T00:00:00	2024-11-08T00:00:00	8	Radiación solar	0
162169	7	Sololá	713	San Lucas Tolimán	10	San Lucas Tolimán	11	Noviembre	2023-11-30T00:00:00	2024-11-08T01:00:00	2	Temperatura media	17.6
162170	7	Sololá	713	San Lucas Tolimán	10	San Lucas Tolimán	11	Noviembre	2023-11-30T00:00:00	2024-11-08T01:00:00	4	Temperatura máxima	19
162171	7	Sololá	713	San Lucas Tolimán	10	San Lucas Tolimán	11	Noviembre	2023-11-30T00:00:00	2024-11-08T01:00:00	3	Temperatura mínima	17.6
162172	7	Sololá	713	San Lucas Tolimán	10	San Lucas Tolimán	11	Noviembre	2023-11-30T00:00:00	2024-11-08T01:00:00	5	Humedad	59
162173	7	Sololá	713	San Lucas Tolimán	10	San Lucas Tolimán	11	Noviembre	2023-11-30T00:00:00	2024-11-08T01:00:00	6	Velocidad del viento	1.6
162174	7	Sololá	713	San Lucas Tolimán	10	San Lucas Tolimán	11	Noviembre	2023-11-30T00:00:00	2024-11-08T01:00:00	7	Dirección del viento	1.61
162175	7	Sololá	713	San Lucas Tolimán	10	San Lucas Tolimán	11	Noviembre	2023-11-30T00:00:00	2024-11-08T01:00:00	1	Precipitación	0
162176	7	Sololá	713	San Lucas Tolimán	10	San Lucas Tolimán	11	Noviembre	2023-11-30T00:00:00	2024-11-08T01:00:00	8	Radiación solar	0
162177	7	Sololá	713	San Lucas Tolimán	10	San Lucas Tolimán	11	Noviembre	2023-11-30T00:00:00	2024-11-08T02:00:00	2	Temperatura media	17.4
162178	7	Sololá	713	San Lucas Tolimán	10	San Lucas Tolimán	11	Noviembre	2023-11-30T00:00:00	2024-11-08T02:00:00	4	Temperatura máxima	17.6
162179	7	Sololá	713	San Lucas Tolimán	10	San Lucas Tolimán	11	Noviembre	2023-11-30T00:00:00	2024-11-08T02:00:00	3	Temperatura mínima	17.1
162180	7	Sololá	713	San Lucas Tolimán	10	San Lucas Tolimán	11	Noviembre	2023-11-30T00:00:00	2024-11-08T02:00:00	5	Humedad	60
162181	7	Sololá	713	San Lucas Tolimán	10	San Lucas Tolimán	11	Noviembre	2023-11-30T00:00:00	2024-11-08T02:00:00	6	Velocidad del viento	1.6
162182	7	Sololá	713	San Lucas Tolimán	10	San Lucas Tolimán	11	Noviembre	2023-11-30T00:00:00	2024-11-08T02:00:00	7	Dirección del viento	1.61
162183	7	Sololá	713	San Lucas Tolimán	10	San Lucas Tolimán	11	Noviembre	2023-11-30T00:00:00	2024-11-08T02:00:00	1	Precipitación	0
162184	7	Sololá	713	San Lucas Tolimán	10	San Lucas Tolimán	11	Noviembre	2023-11-30T00:00:00	2024-11-08T02:00:00	8	Radiación solar	0
162185	7	Sololá	713	San Lucas Tolimán	10	San Lucas Tolimán	11	Noviembre	2023-11-30T00:00:00	2024-11-08T03:00:00	2	Temperatura media	17.6
162186	7	Sololá	713	San Lucas Tolimán	10	San Lucas Tolimán	11	Noviembre	2023-11-30T00:00:00	2024-11-08T03:00:00	4	Temperatura máxima	17.7
162187	7	Sololá	713	San Lucas Tolimán	10	San Lucas Tolimán	11	Noviembre	2023-11-30T00:00:00	2024-11-08T03:00:00	3	Temperatura mínima	17.1
162188	7	Sololá	713	San Lucas Tolimán	10	San Lucas Tolimán	11	Noviembre	2023-11-30T00:00:00	2024-11-08T03:00:00	5	Humedad	59
162189	7	Sololá	713	San Lucas Tolimán	10	San Lucas Tolimán	11	Noviembre	2023-11-30T00:00:00	2024-11-08T03:00:00	6	Velocidad del viento	1.6
162190	7	Sololá	713	San Lucas Tolimán	10	San Lucas Tolimán	11	Noviembre	2023-11-30T00:00:00	2024-11-08T03:00:00	7	Dirección del viento	1.61
162191	7	Sololá	713	San Lucas Tolimán	10	San Lucas Tolimán	11	Noviembre	2023-11-30T00:00:00	2024-11-08T03:00:00	1	Precipitación	0
162192	7	Sololá	713	San Lucas Tolimán	10	San Lucas Tolimán	11	Noviembre	2023-11-30T00:00:00	2024-11-08T03:00:00	8	Radiación solar	0
162193	7	Sololá	713	San Lucas Tolimán	10	San Lucas Tolimán	11	Noviembre	2023-11-30T00:00:00	2024-11-08T04:00:00	2	Temperatura media	17.3
162194	7	Sololá	713	San Lucas Tolimán	10	San Lucas Tolimán	11	Noviembre	2023-11-30T00:00:00	2024-11-08T04:00:00	4	Temperatura máxima	17.6
162195	7	Sololá	713	San Lucas Tolimán	10	San Lucas Tolimán	11	Noviembre	2023-11-30T00:00:00	2024-11-08T04:00:00	3	Temperatura mínima	16.9
162196	7	Sololá	713	San Lucas Tolimán	10	San Lucas Tolimán	11	Noviembre	2023-11-30T00:00:00	2024-11-08T04:00:00	5	Humedad	60
162197	7	Sololá	713	San Lucas Tolimán	10	San Lucas Tolimán	11	Noviembre	2023-11-30T00:00:00	2024-11-08T04:00:00	6	Velocidad del viento	3.2
162198	7	Sololá	713	San Lucas Tolimán	10	San Lucas Tolimán	11	Noviembre	2023-11-30T00:00:00	2024-11-08T04:00:00	7	Dirección del viento	3.22
162199	7	Sololá	713	San Lucas Tolimán	10	San Lucas Tolimán	11	Noviembre	2023-11-30T00:00:00	2024-11-08T04:00:00	1	Precipitación	0
162200	7	Sololá	713	San Lucas Tolimán	10	San Lucas Tolimán	11	Noviembre	2023-11-30T00:00:00	2024-11-08T04:00:00	8	Radiación solar	0
162201	7	Sololá	713	San Lucas Tolimán	10	San Lucas Tolimán	11	Noviembre	2023-11-30T00:00:00	2024-11-08T05:00:00	2	Temperatura media	16.8
162202	7	Sololá	713	San Lucas Tolimán	10	San Lucas Tolimán	11	Noviembre	2023-11-30T00:00:00	2024-11-08T05:00:00	4	Temperatura máxima	17.4
162203	7	Sololá	713	San Lucas Tolimán	10	San Lucas Tolimán	11	Noviembre	2023-11-30T00:00:00	2024-11-08T05:00:00	3	Temperatura mínima	16.8
162204	7	Sololá	713	San Lucas Tolimán	10	San Lucas Tolimán	11	Noviembre	2023-11-30T00:00:00	2024-11-08T05:00:00	5	Humedad	61
162205	7	Sololá	713	San Lucas Tolimán	10	San Lucas Tolimán	11	Noviembre	2023-11-30T00:00:00	2024-11-08T05:00:00	6	Velocidad del viento	1.6
162206	7	Sololá	713	San Lucas Tolimán	10	San Lucas Tolimán	11	Noviembre	2023-11-30T00:00:00	2024-11-08T05:00:00	7	Dirección del viento	1.61
162207	7	Sololá	713	San Lucas Tolimán	10	San Lucas Tolimán	11	Noviembre	2023-11-30T00:00:00	2024-11-08T05:00:00	1	Precipitación	0
162208	7	Sololá	713	San Lucas Tolimán	10	San Lucas Tolimán	11	Noviembre	2023-11-30T00:00:00	2024-11-08T05:00:00	8	Radiación solar	0
162209	7	Sololá	713	San Lucas Tolimán	10	San Lucas Tolimán	11	Noviembre	2023-11-30T00:00:00	2024-11-08T06:00:00	2	Temperatura media	16.8
162210	7	Sololá	713	San Lucas Tolimán	10	San Lucas Tolimán	11	Noviembre	2023-11-30T00:00:00	2024-11-08T06:00:00	4	Temperatura máxima	17
162211	7	Sololá	713	San Lucas Tolimán	10	San Lucas Tolimán	11	Noviembre	2023-11-30T00:00:00	2024-11-08T06:00:00	3	Temperatura mínima	16.6
162212	7	Sololá	713	San Lucas Tolimán	10	San Lucas Tolimán	11	Noviembre	2023-11-30T00:00:00	2024-11-08T06:00:00	5	Humedad	61
162213	7	Sololá	713	San Lucas Tolimán	10	San Lucas Tolimán	11	Noviembre	2023-11-30T00:00:00	2024-11-08T06:00:00	6	Velocidad del viento	0
162214	7	Sololá	713	San Lucas Tolimán	10	San Lucas Tolimán	11	Noviembre	2023-11-30T00:00:00	2024-11-08T06:00:00	7	Dirección del viento	0
162215	7	Sololá	713	San Lucas Tolimán	10	San Lucas Tolimán	11	Noviembre	2023-11-30T00:00:00	2024-11-08T06:00:00	1	Precipitación	0
162216	7	Sololá	713	San Lucas Tolimán	10	San Lucas Tolimán	11	Noviembre	2023-11-30T00:00:00	2024-11-08T06:00:00	8	Radiación solar	0
162217	7	Sololá	713	San Lucas Tolimán	10	San Lucas Tolimán	11	Noviembre	2023-11-30T00:00:00	2024-11-08T07:00:00	2	Temperatura media	17.6
162218	7	Sololá	713	San Lucas Tolimán	10	San Lucas Tolimán	11	Noviembre	2023-11-30T00:00:00	2024-11-08T07:00:00	4	Temperatura máxima	17.6
162219	7	Sololá	713	San Lucas Tolimán	10	San Lucas Tolimán	11	Noviembre	2023-11-30T00:00:00	2024-11-08T07:00:00	3	Temperatura mínima	16.7
162220	7	Sololá	713	San Lucas Tolimán	10	San Lucas Tolimán	11	Noviembre	2023-11-30T00:00:00	2024-11-08T07:00:00	5	Humedad	59
162221	7	Sololá	713	San Lucas Tolimán	10	San Lucas Tolimán	11	Noviembre	2023-11-30T00:00:00	2024-11-08T07:00:00	6	Velocidad del viento	3.2
162222	7	Sololá	713	San Lucas Tolimán	10	San Lucas Tolimán	11	Noviembre	2023-11-30T00:00:00	2024-11-08T07:00:00	7	Dirección del viento	3.22
162223	7	Sololá	713	San Lucas Tolimán	10	San Lucas Tolimán	11	Noviembre	2023-11-30T00:00:00	2024-11-08T07:00:00	1	Precipitación	0
162224	7	Sololá	713	San Lucas Tolimán	10	San Lucas Tolimán	11	Noviembre	2023-11-30T00:00:00	2024-11-08T07:00:00	8	Radiación solar	9
162225	7	Sololá	713	San Lucas Tolimán	10	San Lucas Tolimán	11	Noviembre	2023-11-30T00:00:00	2024-11-08T08:00:00	2	Temperatura media	18.1
162226	7	Sololá	713	San Lucas Tolimán	10	San Lucas Tolimán	11	Noviembre	2023-11-30T00:00:00	2024-11-08T08:00:00	4	Temperatura máxima	18.6
162227	7	Sololá	713	San Lucas Tolimán	10	San Lucas Tolimán	11	Noviembre	2023-11-30T00:00:00	2024-11-08T08:00:00	3	Temperatura mínima	17.6
162228	7	Sololá	713	San Lucas Tolimán	10	San Lucas Tolimán	11	Noviembre	2023-11-30T00:00:00	2024-11-08T08:00:00	5	Humedad	58
162229	7	Sololá	713	San Lucas Tolimán	10	San Lucas Tolimán	11	Noviembre	2023-11-30T00:00:00	2024-11-08T08:00:00	6	Velocidad del viento	4.8
162230	7	Sololá	713	San Lucas Tolimán	10	San Lucas Tolimán	11	Noviembre	2023-11-30T00:00:00	2024-11-08T08:00:00	7	Dirección del viento	4.83
162231	7	Sololá	713	San Lucas Tolimán	10	San Lucas Tolimán	11	Noviembre	2023-11-30T00:00:00	2024-11-08T08:00:00	1	Precipitación	0
162232	7	Sololá	713	San Lucas Tolimán	10	San Lucas Tolimán	11	Noviembre	2023-11-30T00:00:00	2024-11-08T08:00:00	8	Radiación solar	26
162233	7	Sololá	713	San Lucas Tolimán	10	San Lucas Tolimán	11	Noviembre	2023-11-30T00:00:00	2024-11-08T09:00:00	2	Temperatura media	22.9
162234	7	Sololá	713	San Lucas Tolimán	10	San Lucas Tolimán	11	Noviembre	2023-11-30T00:00:00	2024-11-08T09:00:00	4	Temperatura máxima	22.9
162235	7	Sololá	713	San Lucas Tolimán	10	San Lucas Tolimán	11	Noviembre	2023-11-30T00:00:00	2024-11-08T09:00:00	3	Temperatura mínima	18
162236	7	Sololá	713	San Lucas Tolimán	10	San Lucas Tolimán	11	Noviembre	2023-11-30T00:00:00	2024-11-08T09:00:00	5	Humedad	48
162237	7	Sololá	713	San Lucas Tolimán	10	San Lucas Tolimán	11	Noviembre	2023-11-30T00:00:00	2024-11-08T09:00:00	6	Velocidad del viento	1.6
162238	7	Sololá	713	San Lucas Tolimán	10	San Lucas Tolimán	11	Noviembre	2023-11-30T00:00:00	2024-11-08T09:00:00	7	Dirección del viento	1.61
162239	7	Sololá	713	San Lucas Tolimán	10	San Lucas Tolimán	11	Noviembre	2023-11-30T00:00:00	2024-11-08T09:00:00	1	Precipitación	0
162240	7	Sololá	713	San Lucas Tolimán	10	San Lucas Tolimán	11	Noviembre	2023-11-30T00:00:00	2024-11-08T09:00:00	8	Radiación solar	386
162241	7	Sololá	713	San Lucas Tolimán	10	San Lucas Tolimán	11	Noviembre	2023-11-30T00:00:00	2024-11-08T10:00:00	2	Temperatura media	22.6
162242	7	Sololá	713	San Lucas Tolimán	10	San Lucas Tolimán	11	Noviembre	2023-11-30T00:00:00	2024-11-08T10:00:00	4	Temperatura máxima	23.1
162243	7	Sololá	713	San Lucas Tolimán	10	San Lucas Tolimán	11	Noviembre	2023-11-30T00:00:00	2024-11-08T10:00:00	3	Temperatura mínima	22.4
162244	7	Sololá	713	San Lucas Tolimán	10	San Lucas Tolimán	11	Noviembre	2023-11-30T00:00:00	2024-11-08T10:00:00	5	Humedad	45
162245	7	Sololá	713	San Lucas Tolimán	10	San Lucas Tolimán	11	Noviembre	2023-11-30T00:00:00	2024-11-08T10:00:00	6	Velocidad del viento	4.8
162246	7	Sololá	713	San Lucas Tolimán	10	San Lucas Tolimán	11	Noviembre	2023-11-30T00:00:00	2024-11-08T10:00:00	7	Dirección del viento	4.83
162247	7	Sololá	713	San Lucas Tolimán	10	San Lucas Tolimán	11	Noviembre	2023-11-30T00:00:00	2024-11-08T10:00:00	1	Precipitación	0
162248	7	Sololá	713	San Lucas Tolimán	10	San Lucas Tolimán	11	Noviembre	2023-11-30T00:00:00	2024-11-08T10:00:00	8	Radiación solar	573
162249	7	Sololá	713	San Lucas Tolimán	10	San Lucas Tolimán	11	Noviembre	2023-11-30T00:00:00	2024-11-08T11:00:00	2	Temperatura media	23.9
162250	7	Sololá	713	San Lucas Tolimán	10	San Lucas Tolimán	11	Noviembre	2023-11-30T00:00:00	2024-11-08T11:00:00	4	Temperatura máxima	24.1
162251	7	Sololá	713	San Lucas Tolimán	10	San Lucas Tolimán	11	Noviembre	2023-11-30T00:00:00	2024-11-08T11:00:00	3	Temperatura mínima	22.4
162252	7	Sololá	713	San Lucas Tolimán	10	San Lucas Tolimán	11	Noviembre	2023-11-30T00:00:00	2024-11-08T11:00:00	5	Humedad	43
162253	7	Sololá	713	San Lucas Tolimán	10	San Lucas Tolimán	11	Noviembre	2023-11-30T00:00:00	2024-11-08T11:00:00	6	Velocidad del viento	6.4
162254	7	Sololá	713	San Lucas Tolimán	10	San Lucas Tolimán	11	Noviembre	2023-11-30T00:00:00	2024-11-08T11:00:00	7	Dirección del viento	6.44
162255	7	Sololá	713	San Lucas Tolimán	10	San Lucas Tolimán	11	Noviembre	2023-11-30T00:00:00	2024-11-08T11:00:00	1	Precipitación	0
162256	7	Sololá	713	San Lucas Tolimán	10	San Lucas Tolimán	11	Noviembre	2023-11-30T00:00:00	2024-11-08T11:00:00	8	Radiación solar	671
162257	7	Sololá	713	San Lucas Tolimán	10	San Lucas Tolimán	11	Noviembre	2023-11-30T00:00:00	2024-11-08T12:00:00	2	Temperatura media	23.4
162258	7	Sololá	713	San Lucas Tolimán	10	San Lucas Tolimán	11	Noviembre	2023-11-30T00:00:00	2024-11-08T12:00:00	4	Temperatura máxima	24.7
162259	7	Sololá	713	San Lucas Tolimán	10	San Lucas Tolimán	11	Noviembre	2023-11-30T00:00:00	2024-11-08T12:00:00	3	Temperatura mínima	23
162260	7	Sololá	713	San Lucas Tolimán	10	San Lucas Tolimán	11	Noviembre	2023-11-30T00:00:00	2024-11-08T12:00:00	5	Humedad	57
162261	7	Sololá	713	San Lucas Tolimán	10	San Lucas Tolimán	11	Noviembre	2023-11-30T00:00:00	2024-11-08T12:00:00	6	Velocidad del viento	6.4
162262	7	Sololá	713	San Lucas Tolimán	10	San Lucas Tolimán	11	Noviembre	2023-11-30T00:00:00	2024-11-08T12:00:00	7	Dirección del viento	6.44
162263	7	Sololá	713	San Lucas Tolimán	10	San Lucas Tolimán	11	Noviembre	2023-11-30T00:00:00	2024-11-08T12:00:00	1	Precipitación	0
162264	7	Sololá	713	San Lucas Tolimán	10	San Lucas Tolimán	11	Noviembre	2023-11-30T00:00:00	2024-11-08T12:00:00	8	Radiación solar	699
162265	7	Sololá	713	San Lucas Tolimán	10	San Lucas Tolimán	11	Noviembre	2023-11-30T00:00:00	2024-11-08T13:00:00	2	Temperatura media	21.9
162266	7	Sololá	713	San Lucas Tolimán	10	San Lucas Tolimán	11	Noviembre	2023-11-30T00:00:00	2024-11-08T13:00:00	4	Temperatura máxima	23.7
162267	7	Sololá	713	San Lucas Tolimán	10	San Lucas Tolimán	11	Noviembre	2023-11-30T00:00:00	2024-11-08T13:00:00	3	Temperatura mínima	21.9
162268	7	Sololá	713	San Lucas Tolimán	10	San Lucas Tolimán	11	Noviembre	2023-11-30T00:00:00	2024-11-08T13:00:00	5	Humedad	61
162269	7	Sololá	713	San Lucas Tolimán	10	San Lucas Tolimán	11	Noviembre	2023-11-30T00:00:00	2024-11-08T13:00:00	6	Velocidad del viento	9.7
162270	7	Sololá	713	San Lucas Tolimán	10	San Lucas Tolimán	11	Noviembre	2023-11-30T00:00:00	2024-11-08T13:00:00	7	Dirección del viento	9.66
162271	7	Sololá	713	San Lucas Tolimán	10	San Lucas Tolimán	11	Noviembre	2023-11-30T00:00:00	2024-11-08T13:00:00	1	Precipitación	0
162272	7	Sololá	713	San Lucas Tolimán	10	San Lucas Tolimán	11	Noviembre	2023-11-30T00:00:00	2024-11-08T13:00:00	8	Radiación solar	394
162273	7	Sololá	713	San Lucas Tolimán	10	San Lucas Tolimán	11	Noviembre	2023-11-30T00:00:00	2024-11-08T14:00:00	2	Temperatura media	22.1
162274	7	Sololá	713	San Lucas Tolimán	10	San Lucas Tolimán	11	Noviembre	2023-11-30T00:00:00	2024-11-08T14:00:00	4	Temperatura máxima	22.1
162275	7	Sololá	713	San Lucas Tolimán	10	San Lucas Tolimán	11	Noviembre	2023-11-30T00:00:00	2024-11-08T14:00:00	3	Temperatura mínima	20.8
162276	7	Sololá	713	San Lucas Tolimán	10	San Lucas Tolimán	11	Noviembre	2023-11-30T00:00:00	2024-11-08T14:00:00	5	Humedad	56
162277	7	Sololá	713	San Lucas Tolimán	10	San Lucas Tolimán	11	Noviembre	2023-11-30T00:00:00	2024-11-08T14:00:00	6	Velocidad del viento	9.7
162278	7	Sololá	713	San Lucas Tolimán	10	San Lucas Tolimán	11	Noviembre	2023-11-30T00:00:00	2024-11-08T14:00:00	7	Dirección del viento	9.66
162279	7	Sololá	713	San Lucas Tolimán	10	San Lucas Tolimán	11	Noviembre	2023-11-30T00:00:00	2024-11-08T14:00:00	1	Precipitación	0
162280	7	Sololá	713	San Lucas Tolimán	10	San Lucas Tolimán	11	Noviembre	2023-11-30T00:00:00	2024-11-08T14:00:00	8	Radiación solar	320
162281	7	Sololá	713	San Lucas Tolimán	10	San Lucas Tolimán	11	Noviembre	2023-11-30T00:00:00	2024-11-08T15:00:00	2	Temperatura media	21.7
162282	7	Sololá	713	San Lucas Tolimán	10	San Lucas Tolimán	11	Noviembre	2023-11-30T00:00:00	2024-11-08T15:00:00	4	Temperatura máxima	22.8
162283	7	Sololá	713	San Lucas Tolimán	10	San Lucas Tolimán	11	Noviembre	2023-11-30T00:00:00	2024-11-08T15:00:00	3	Temperatura mínima	21.6
162284	7	Sololá	713	San Lucas Tolimán	10	San Lucas Tolimán	11	Noviembre	2023-11-30T00:00:00	2024-11-08T15:00:00	5	Humedad	59
162285	7	Sololá	713	San Lucas Tolimán	10	San Lucas Tolimán	11	Noviembre	2023-11-30T00:00:00	2024-11-08T15:00:00	6	Velocidad del viento	11.3
162286	7	Sololá	713	San Lucas Tolimán	10	San Lucas Tolimán	11	Noviembre	2023-11-30T00:00:00	2024-11-08T15:00:00	7	Dirección del viento	11.27
162287	7	Sololá	713	San Lucas Tolimán	10	San Lucas Tolimán	11	Noviembre	2023-11-30T00:00:00	2024-11-08T15:00:00	1	Precipitación	0
162288	7	Sololá	713	San Lucas Tolimán	10	San Lucas Tolimán	11	Noviembre	2023-11-30T00:00:00	2024-11-08T15:00:00	8	Radiación solar	594
162289	7	Sololá	713	San Lucas Tolimán	10	San Lucas Tolimán	11	Noviembre	2023-11-30T00:00:00	2024-11-08T16:00:00	2	Temperatura media	21.3
162290	7	Sololá	713	San Lucas Tolimán	10	San Lucas Tolimán	11	Noviembre	2023-11-30T00:00:00	2024-11-08T16:00:00	4	Temperatura máxima	21.7
162291	7	Sololá	713	San Lucas Tolimán	10	San Lucas Tolimán	11	Noviembre	2023-11-30T00:00:00	2024-11-08T16:00:00	3	Temperatura mínima	20.9
162292	7	Sololá	713	San Lucas Tolimán	10	San Lucas Tolimán	11	Noviembre	2023-11-30T00:00:00	2024-11-08T16:00:00	5	Humedad	60
162293	7	Sololá	713	San Lucas Tolimán	10	San Lucas Tolimán	11	Noviembre	2023-11-30T00:00:00	2024-11-08T16:00:00	6	Velocidad del viento	12.9
162294	7	Sololá	713	San Lucas Tolimán	10	San Lucas Tolimán	11	Noviembre	2023-11-30T00:00:00	2024-11-08T16:00:00	7	Dirección del viento	12.87
162295	7	Sololá	713	San Lucas Tolimán	10	San Lucas Tolimán	11	Noviembre	2023-11-30T00:00:00	2024-11-08T16:00:00	1	Precipitación	0
162296	7	Sololá	713	San Lucas Tolimán	10	San Lucas Tolimán	11	Noviembre	2023-11-30T00:00:00	2024-11-08T16:00:00	8	Radiación solar	324
162297	7	Sololá	713	San Lucas Tolimán	10	San Lucas Tolimán	11	Noviembre	2023-11-30T00:00:00	2024-11-08T17:00:00	2	Temperatura media	19.8
162298	7	Sololá	713	San Lucas Tolimán	10	San Lucas Tolimán	11	Noviembre	2023-11-30T00:00:00	2024-11-08T17:00:00	4	Temperatura máxima	21.3
162299	7	Sololá	713	San Lucas Tolimán	10	San Lucas Tolimán	11	Noviembre	2023-11-30T00:00:00	2024-11-08T17:00:00	3	Temperatura mínima	19.8
162300	7	Sololá	713	San Lucas Tolimán	10	San Lucas Tolimán	11	Noviembre	2023-11-30T00:00:00	2024-11-08T17:00:00	5	Humedad	60
162301	7	Sololá	713	San Lucas Tolimán	10	San Lucas Tolimán	11	Noviembre	2023-11-30T00:00:00	2024-11-08T17:00:00	6	Velocidad del viento	9.7
162302	7	Sololá	713	San Lucas Tolimán	10	San Lucas Tolimán	11	Noviembre	2023-11-30T00:00:00	2024-11-08T17:00:00	7	Dirección del viento	9.66
162303	7	Sololá	713	San Lucas Tolimán	10	San Lucas Tolimán	11	Noviembre	2023-11-30T00:00:00	2024-11-08T17:00:00	1	Precipitación	0
162304	7	Sololá	713	San Lucas Tolimán	10	San Lucas Tolimán	11	Noviembre	2023-11-30T00:00:00	2024-11-08T17:00:00	8	Radiación solar	156
162305	7	Sololá	713	San Lucas Tolimán	10	San Lucas Tolimán	11	Noviembre	2023-11-30T00:00:00	2024-11-08T18:00:00	2	Temperatura media	19
162306	7	Sololá	713	San Lucas Tolimán	10	San Lucas Tolimán	11	Noviembre	2023-11-30T00:00:00	2024-11-08T18:00:00	4	Temperatura máxima	19.8
162307	7	Sololá	713	San Lucas Tolimán	10	San Lucas Tolimán	11	Noviembre	2023-11-30T00:00:00	2024-11-08T18:00:00	3	Temperatura mínima	18.9
162308	7	Sololá	713	San Lucas Tolimán	10	San Lucas Tolimán	11	Noviembre	2023-11-30T00:00:00	2024-11-08T18:00:00	5	Humedad	62
162309	7	Sololá	713	San Lucas Tolimán	10	San Lucas Tolimán	11	Noviembre	2023-11-30T00:00:00	2024-11-08T18:00:00	6	Velocidad del viento	8
162310	7	Sololá	713	San Lucas Tolimán	10	San Lucas Tolimán	11	Noviembre	2023-11-30T00:00:00	2024-11-08T18:00:00	7	Dirección del viento	8.05
162311	7	Sololá	713	San Lucas Tolimán	10	San Lucas Tolimán	11	Noviembre	2023-11-30T00:00:00	2024-11-08T18:00:00	1	Precipitación	0
162312	7	Sololá	713	San Lucas Tolimán	10	San Lucas Tolimán	11	Noviembre	2023-11-30T00:00:00	2024-11-08T18:00:00	8	Radiación solar	18
162313	7	Sololá	713	San Lucas Tolimán	10	San Lucas Tolimán	11	Noviembre	2023-11-30T00:00:00	2024-11-08T19:00:00	2	Temperatura media	18.8
162314	7	Sololá	713	San Lucas Tolimán	10	San Lucas Tolimán	11	Noviembre	2023-11-30T00:00:00	2024-11-08T19:00:00	4	Temperatura máxima	19.1
162315	7	Sololá	713	San Lucas Tolimán	10	San Lucas Tolimán	11	Noviembre	2023-11-30T00:00:00	2024-11-08T19:00:00	3	Temperatura mínima	18.8
162316	7	Sololá	713	San Lucas Tolimán	10	San Lucas Tolimán	11	Noviembre	2023-11-30T00:00:00	2024-11-08T19:00:00	5	Humedad	61
162317	7	Sololá	713	San Lucas Tolimán	10	San Lucas Tolimán	11	Noviembre	2023-11-30T00:00:00	2024-11-08T19:00:00	6	Velocidad del viento	3.2
162318	7	Sololá	713	San Lucas Tolimán	10	San Lucas Tolimán	11	Noviembre	2023-11-30T00:00:00	2024-11-08T19:00:00	7	Dirección del viento	3.22
162319	7	Sololá	713	San Lucas Tolimán	10	San Lucas Tolimán	11	Noviembre	2023-11-30T00:00:00	2024-11-08T19:00:00	1	Precipitación	0
162320	7	Sololá	713	San Lucas Tolimán	10	San Lucas Tolimán	11	Noviembre	2023-11-30T00:00:00	2024-11-08T19:00:00	8	Radiación solar	0
162321	7	Sololá	713	San Lucas Tolimán	10	San Lucas Tolimán	11	Noviembre	2023-11-30T00:00:00	2024-11-08T20:00:00	2	Temperatura media	18.3
162322	7	Sololá	713	San Lucas Tolimán	10	San Lucas Tolimán	11	Noviembre	2023-11-30T00:00:00	2024-11-08T20:00:00	4	Temperatura máxima	18.8
162323	7	Sololá	713	San Lucas Tolimán	10	San Lucas Tolimán	11	Noviembre	2023-11-30T00:00:00	2024-11-08T20:00:00	3	Temperatura mínima	18.1
162324	7	Sololá	713	San Lucas Tolimán	10	San Lucas Tolimán	11	Noviembre	2023-11-30T00:00:00	2024-11-08T20:00:00	5	Humedad	60
162325	7	Sololá	713	San Lucas Tolimán	10	San Lucas Tolimán	11	Noviembre	2023-11-30T00:00:00	2024-11-08T20:00:00	6	Velocidad del viento	3.2
162326	7	Sololá	713	San Lucas Tolimán	10	San Lucas Tolimán	11	Noviembre	2023-11-30T00:00:00	2024-11-08T20:00:00	7	Dirección del viento	3.22
162327	7	Sololá	713	San Lucas Tolimán	10	San Lucas Tolimán	11	Noviembre	2023-11-30T00:00:00	2024-11-08T20:00:00	1	Precipitación	0
162328	7	Sololá	713	San Lucas Tolimán	10	San Lucas Tolimán	11	Noviembre	2023-11-30T00:00:00	2024-11-08T20:00:00	8	Radiación solar	0
162329	7	Sololá	713	San Lucas Tolimán	10	San Lucas Tolimán	11	Noviembre	2023-11-30T00:00:00	2024-11-08T21:00:00	2	Temperatura media	17.4
162330	7	Sololá	713	San Lucas Tolimán	10	San Lucas Tolimán	11	Noviembre	2023-11-30T00:00:00	2024-11-08T21:00:00	4	Temperatura máxima	18.3
162331	7	Sololá	713	San Lucas Tolimán	10	San Lucas Tolimán	11	Noviembre	2023-11-30T00:00:00	2024-11-08T21:00:00	3	Temperatura mínima	17.4
162332	7	Sololá	713	San Lucas Tolimán	10	San Lucas Tolimán	11	Noviembre	2023-11-30T00:00:00	2024-11-08T21:00:00	5	Humedad	60
162333	7	Sololá	713	San Lucas Tolimán	10	San Lucas Tolimán	11	Noviembre	2023-11-30T00:00:00	2024-11-08T21:00:00	6	Velocidad del viento	3.2
162334	7	Sololá	713	San Lucas Tolimán	10	San Lucas Tolimán	11	Noviembre	2023-11-30T00:00:00	2024-11-08T21:00:00	7	Dirección del viento	3.22
162335	7	Sololá	713	San Lucas Tolimán	10	San Lucas Tolimán	11	Noviembre	2023-11-30T00:00:00	2024-11-08T21:00:00	1	Precipitación	0
162336	7	Sololá	713	San Lucas Tolimán	10	San Lucas Tolimán	11	Noviembre	2023-11-30T00:00:00	2024-11-08T21:00:00	8	Radiación solar	0
162337	7	Sololá	713	San Lucas Tolimán	10	San Lucas Tolimán	11	Noviembre	2023-11-30T00:00:00	2024-11-08T22:00:00	2	Temperatura media	16.8
162338	7	Sololá	713	San Lucas Tolimán	10	San Lucas Tolimán	11	Noviembre	2023-11-30T00:00:00	2024-11-08T22:00:00	4	Temperatura máxima	17.4
162339	7	Sololá	713	San Lucas Tolimán	10	San Lucas Tolimán	11	Noviembre	2023-11-30T00:00:00	2024-11-08T22:00:00	3	Temperatura mínima	16.8
162340	7	Sololá	713	San Lucas Tolimán	10	San Lucas Tolimán	11	Noviembre	2023-11-30T00:00:00	2024-11-08T22:00:00	5	Humedad	60
162341	7	Sololá	713	San Lucas Tolimán	10	San Lucas Tolimán	11	Noviembre	2023-11-30T00:00:00	2024-11-08T22:00:00	6	Velocidad del viento	1.6
162342	7	Sololá	713	San Lucas Tolimán	10	San Lucas Tolimán	11	Noviembre	2023-11-30T00:00:00	2024-11-08T22:00:00	7	Dirección del viento	1.61
162343	7	Sololá	713	San Lucas Tolimán	10	San Lucas Tolimán	11	Noviembre	2023-11-30T00:00:00	2024-11-08T22:00:00	1	Precipitación	0
162344	7	Sololá	713	San Lucas Tolimán	10	San Lucas Tolimán	11	Noviembre	2023-11-30T00:00:00	2024-11-08T22:00:00	8	Radiación solar	0
162345	7	Sololá	713	San Lucas Tolimán	10	San Lucas Tolimán	11	Noviembre	2023-11-30T00:00:00	2024-11-08T23:00:00	2	Temperatura media	16.7
162346	7	Sololá	713	San Lucas Tolimán	10	San Lucas Tolimán	11	Noviembre	2023-11-30T00:00:00	2024-11-08T23:00:00	4	Temperatura máxima	16.8
162347	7	Sololá	713	San Lucas Tolimán	10	San Lucas Tolimán	11	Noviembre	2023-11-30T00:00:00	2024-11-08T23:00:00	3	Temperatura mínima	16.6
162348	7	Sololá	713	San Lucas Tolimán	10	San Lucas Tolimán	11	Noviembre	2023-11-30T00:00:00	2024-11-08T23:00:00	5	Humedad	60
162349	7	Sololá	713	San Lucas Tolimán	10	San Lucas Tolimán	11	Noviembre	2023-11-30T00:00:00	2024-11-08T23:00:00	6	Velocidad del viento	0
162350	7	Sololá	713	San Lucas Tolimán	10	San Lucas Tolimán	11	Noviembre	2023-11-30T00:00:00	2024-11-08T23:00:00	7	Dirección del viento	0
162351	7	Sololá	713	San Lucas Tolimán	10	San Lucas Tolimán	11	Noviembre	2023-11-30T00:00:00	2024-11-08T23:00:00	1	Precipitación	0
162352	7	Sololá	713	San Lucas Tolimán	10	San Lucas Tolimán	11	Noviembre	2023-11-30T00:00:00	2024-11-08T23:00:00	8	Radiación solar	0
162353	7	Sololá	713	San Lucas Tolimán	10	San Lucas Tolimán	12	Diciembre	2023-01-12T00:00:00	2024-11-08T00:00:00	2	Temperatura media	16.4
162354	7	Sololá	713	San Lucas Tolimán	10	San Lucas Tolimán	12	Diciembre	2023-01-12T00:00:00	2024-11-08T00:00:00	4	Temperatura máxima	16.7
162355	7	Sololá	713	San Lucas Tolimán	10	San Lucas Tolimán	12	Diciembre	2023-01-12T00:00:00	2024-11-08T00:00:00	3	Temperatura mínima	16.3
162356	7	Sololá	713	San Lucas Tolimán	10	San Lucas Tolimán	12	Diciembre	2023-01-12T00:00:00	2024-11-08T00:00:00	5	Humedad	60
162357	7	Sololá	713	San Lucas Tolimán	10	San Lucas Tolimán	12	Diciembre	2023-01-12T00:00:00	2024-11-08T00:00:00	6	Velocidad del viento	0
162358	7	Sololá	713	San Lucas Tolimán	10	San Lucas Tolimán	12	Diciembre	2023-01-12T00:00:00	2024-11-08T00:00:00	7	Dirección del viento	0
162359	7	Sololá	713	San Lucas Tolimán	10	San Lucas Tolimán	12	Diciembre	2023-01-12T00:00:00	2024-11-08T00:00:00	1	Precipitación	0
162360	7	Sololá	713	San Lucas Tolimán	10	San Lucas Tolimán	12	Diciembre	2023-01-12T00:00:00	2024-11-08T00:00:00	8	Radiación solar	0
162361	7	Sololá	713	San Lucas Tolimán	10	San Lucas Tolimán	12	Diciembre	2023-01-12T00:00:00	2024-11-08T01:00:00	2	Temperatura media	16.3
162362	7	Sololá	713	San Lucas Tolimán	10	San Lucas Tolimán	12	Diciembre	2023-01-12T00:00:00	2024-11-08T01:00:00	4	Temperatura máxima	16.4
162363	7	Sololá	713	San Lucas Tolimán	10	San Lucas Tolimán	12	Diciembre	2023-01-12T00:00:00	2024-11-08T01:00:00	3	Temperatura mínima	16.1
162364	7	Sololá	713	San Lucas Tolimán	10	San Lucas Tolimán	12	Diciembre	2023-01-12T00:00:00	2024-11-08T01:00:00	5	Humedad	58
162365	7	Sololá	713	San Lucas Tolimán	10	San Lucas Tolimán	12	Diciembre	2023-01-12T00:00:00	2024-11-08T01:00:00	6	Velocidad del viento	0
162366	7	Sololá	713	San Lucas Tolimán	10	San Lucas Tolimán	12	Diciembre	2023-01-12T00:00:00	2024-11-08T01:00:00	7	Dirección del viento	0
162367	7	Sololá	713	San Lucas Tolimán	10	San Lucas Tolimán	12	Diciembre	2023-01-12T00:00:00	2024-11-08T01:00:00	1	Precipitación	0
162368	7	Sololá	713	San Lucas Tolimán	10	San Lucas Tolimán	12	Diciembre	2023-01-12T00:00:00	2024-11-08T01:00:00	8	Radiación solar	0
162369	7	Sololá	713	San Lucas Tolimán	10	San Lucas Tolimán	12	Diciembre	2023-01-12T00:00:00	2024-11-08T02:00:00	2	Temperatura media	16.2
162370	7	Sololá	713	San Lucas Tolimán	10	San Lucas Tolimán	12	Diciembre	2023-01-12T00:00:00	2024-11-08T02:00:00	4	Temperatura máxima	16.4
162371	7	Sololá	713	San Lucas Tolimán	10	San Lucas Tolimán	12	Diciembre	2023-01-12T00:00:00	2024-11-08T02:00:00	3	Temperatura mínima	16.1
162372	7	Sololá	713	San Lucas Tolimán	10	San Lucas Tolimán	12	Diciembre	2023-01-12T00:00:00	2024-11-08T02:00:00	5	Humedad	59
162373	7	Sololá	713	San Lucas Tolimán	10	San Lucas Tolimán	12	Diciembre	2023-01-12T00:00:00	2024-11-08T02:00:00	6	Velocidad del viento	0
162374	7	Sololá	713	San Lucas Tolimán	10	San Lucas Tolimán	12	Diciembre	2023-01-12T00:00:00	2024-11-08T02:00:00	7	Dirección del viento	0
162375	7	Sololá	713	San Lucas Tolimán	10	San Lucas Tolimán	12	Diciembre	2023-01-12T00:00:00	2024-11-08T02:00:00	1	Precipitación	0
162376	7	Sololá	713	San Lucas Tolimán	10	San Lucas Tolimán	12	Diciembre	2023-01-12T00:00:00	2024-11-08T02:00:00	8	Radiación solar	0
162377	7	Sololá	713	San Lucas Tolimán	10	San Lucas Tolimán	12	Diciembre	2023-01-12T00:00:00	2024-11-08T03:00:00	2	Temperatura media	16
162378	7	Sololá	713	San Lucas Tolimán	10	San Lucas Tolimán	12	Diciembre	2023-01-12T00:00:00	2024-11-08T03:00:00	4	Temperatura máxima	16.2
162379	7	Sololá	713	San Lucas Tolimán	10	San Lucas Tolimán	12	Diciembre	2023-01-12T00:00:00	2024-11-08T03:00:00	3	Temperatura mínima	15.7
162380	7	Sololá	713	San Lucas Tolimán	10	San Lucas Tolimán	12	Diciembre	2023-01-12T00:00:00	2024-11-08T03:00:00	5	Humedad	57
162381	7	Sololá	713	San Lucas Tolimán	10	San Lucas Tolimán	12	Diciembre	2023-01-12T00:00:00	2024-11-08T03:00:00	6	Velocidad del viento	0
162382	7	Sololá	713	San Lucas Tolimán	10	San Lucas Tolimán	12	Diciembre	2023-01-12T00:00:00	2024-11-08T03:00:00	7	Dirección del viento	0
162383	7	Sololá	713	San Lucas Tolimán	10	San Lucas Tolimán	12	Diciembre	2023-01-12T00:00:00	2024-11-08T03:00:00	1	Precipitación	0
162384	7	Sololá	713	San Lucas Tolimán	10	San Lucas Tolimán	12	Diciembre	2023-01-12T00:00:00	2024-11-08T03:00:00	8	Radiación solar	0
162385	7	Sololá	713	San Lucas Tolimán	10	San Lucas Tolimán	12	Diciembre	2023-01-12T00:00:00	2024-11-08T04:00:00	2	Temperatura media	15.5
162386	7	Sololá	713	San Lucas Tolimán	10	San Lucas Tolimán	12	Diciembre	2023-01-12T00:00:00	2024-11-08T04:00:00	4	Temperatura máxima	16
162387	7	Sololá	713	San Lucas Tolimán	10	San Lucas Tolimán	12	Diciembre	2023-01-12T00:00:00	2024-11-08T04:00:00	3	Temperatura mínima	15.4
162388	7	Sololá	713	San Lucas Tolimán	10	San Lucas Tolimán	12	Diciembre	2023-01-12T00:00:00	2024-11-08T04:00:00	5	Humedad	58
162389	7	Sololá	713	San Lucas Tolimán	10	San Lucas Tolimán	12	Diciembre	2023-01-12T00:00:00	2024-11-08T04:00:00	6	Velocidad del viento	1.6
162390	7	Sololá	713	San Lucas Tolimán	10	San Lucas Tolimán	12	Diciembre	2023-01-12T00:00:00	2024-11-08T04:00:00	7	Dirección del viento	1.61
162391	7	Sololá	713	San Lucas Tolimán	10	San Lucas Tolimán	12	Diciembre	2023-01-12T00:00:00	2024-11-08T04:00:00	1	Precipitación	0
162392	7	Sololá	713	San Lucas Tolimán	10	San Lucas Tolimán	12	Diciembre	2023-01-12T00:00:00	2024-11-08T04:00:00	8	Radiación solar	0
162393	7	Sololá	713	San Lucas Tolimán	10	San Lucas Tolimán	12	Diciembre	2023-01-12T00:00:00	2024-11-08T05:00:00	2	Temperatura media	15.6
162394	7	Sololá	713	San Lucas Tolimán	10	San Lucas Tolimán	12	Diciembre	2023-01-12T00:00:00	2024-11-08T05:00:00	4	Temperatura máxima	15.6
162395	7	Sololá	713	San Lucas Tolimán	10	San Lucas Tolimán	12	Diciembre	2023-01-12T00:00:00	2024-11-08T05:00:00	3	Temperatura mínima	15.2
162396	7	Sololá	713	San Lucas Tolimán	10	San Lucas Tolimán	12	Diciembre	2023-01-12T00:00:00	2024-11-08T05:00:00	5	Humedad	56
162397	7	Sololá	713	San Lucas Tolimán	10	San Lucas Tolimán	12	Diciembre	2023-01-12T00:00:00	2024-11-08T05:00:00	6	Velocidad del viento	0
162398	7	Sololá	713	San Lucas Tolimán	10	San Lucas Tolimán	12	Diciembre	2023-01-12T00:00:00	2024-11-08T05:00:00	7	Dirección del viento	0
162399	7	Sololá	713	San Lucas Tolimán	10	San Lucas Tolimán	12	Diciembre	2023-01-12T00:00:00	2024-11-08T05:00:00	1	Precipitación	0
162400	7	Sololá	713	San Lucas Tolimán	10	San Lucas Tolimán	12	Diciembre	2023-01-12T00:00:00	2024-11-08T05:00:00	8	Radiación solar	0
162401	7	Sololá	713	San Lucas Tolimán	10	San Lucas Tolimán	12	Diciembre	2023-01-12T00:00:00	2024-11-08T06:00:00	2	Temperatura media	14.6
162402	7	Sololá	713	San Lucas Tolimán	10	San Lucas Tolimán	12	Diciembre	2023-01-12T00:00:00	2024-11-08T06:00:00	4	Temperatura máxima	15.6
162403	7	Sololá	713	San Lucas Tolimán	10	San Lucas Tolimán	12	Diciembre	2023-01-12T00:00:00	2024-11-08T06:00:00	3	Temperatura mínima	14.6
162404	7	Sololá	713	San Lucas Tolimán	10	San Lucas Tolimán	12	Diciembre	2023-01-12T00:00:00	2024-11-08T06:00:00	5	Humedad	60
162405	7	Sololá	713	San Lucas Tolimán	10	San Lucas Tolimán	12	Diciembre	2023-01-12T00:00:00	2024-11-08T06:00:00	6	Velocidad del viento	0
162406	7	Sololá	713	San Lucas Tolimán	10	San Lucas Tolimán	12	Diciembre	2023-01-12T00:00:00	2024-11-08T06:00:00	7	Dirección del viento	0
162407	7	Sololá	713	San Lucas Tolimán	10	San Lucas Tolimán	12	Diciembre	2023-01-12T00:00:00	2024-11-08T06:00:00	1	Precipitación	0
162408	7	Sololá	713	San Lucas Tolimán	10	San Lucas Tolimán	12	Diciembre	2023-01-12T00:00:00	2024-11-08T06:00:00	8	Radiación solar	0
162409	7	Sololá	713	San Lucas Tolimán	10	San Lucas Tolimán	12	Diciembre	2023-01-12T00:00:00	2024-11-08T07:00:00	2	Temperatura media	13.8
162410	7	Sololá	713	San Lucas Tolimán	10	San Lucas Tolimán	12	Diciembre	2023-01-12T00:00:00	2024-11-08T07:00:00	4	Temperatura máxima	14.6
162411	7	Sololá	713	San Lucas Tolimán	10	San Lucas Tolimán	12	Diciembre	2023-01-12T00:00:00	2024-11-08T07:00:00	3	Temperatura mínima	13.8
162412	7	Sololá	713	San Lucas Tolimán	10	San Lucas Tolimán	12	Diciembre	2023-01-12T00:00:00	2024-11-08T07:00:00	5	Humedad	60
162413	7	Sololá	713	San Lucas Tolimán	10	San Lucas Tolimán	12	Diciembre	2023-01-12T00:00:00	2024-11-08T07:00:00	6	Velocidad del viento	0
162414	7	Sololá	713	San Lucas Tolimán	10	San Lucas Tolimán	12	Diciembre	2023-01-12T00:00:00	2024-11-08T07:00:00	7	Dirección del viento	0
162415	7	Sololá	713	San Lucas Tolimán	10	San Lucas Tolimán	12	Diciembre	2023-01-12T00:00:00	2024-11-08T07:00:00	1	Precipitación	0
162416	7	Sololá	713	San Lucas Tolimán	10	San Lucas Tolimán	12	Diciembre	2023-01-12T00:00:00	2024-11-08T07:00:00	8	Radiación solar	9
162417	7	Sololá	713	San Lucas Tolimán	10	San Lucas Tolimán	12	Diciembre	2023-01-12T00:00:00	2024-11-08T08:00:00	2	Temperatura media	15.2
162418	7	Sololá	713	San Lucas Tolimán	10	San Lucas Tolimán	12	Diciembre	2023-01-12T00:00:00	2024-11-08T08:00:00	4	Temperatura máxima	15.2
162419	7	Sololá	713	San Lucas Tolimán	10	San Lucas Tolimán	12	Diciembre	2023-01-12T00:00:00	2024-11-08T08:00:00	3	Temperatura mínima	13.8
162420	7	Sololá	713	San Lucas Tolimán	10	San Lucas Tolimán	12	Diciembre	2023-01-12T00:00:00	2024-11-08T08:00:00	5	Humedad	58
162421	7	Sololá	713	San Lucas Tolimán	10	San Lucas Tolimán	12	Diciembre	2023-01-12T00:00:00	2024-11-08T08:00:00	6	Velocidad del viento	0
162422	7	Sololá	713	San Lucas Tolimán	10	San Lucas Tolimán	12	Diciembre	2023-01-12T00:00:00	2024-11-08T08:00:00	7	Dirección del viento	0
162423	7	Sololá	713	San Lucas Tolimán	10	San Lucas Tolimán	12	Diciembre	2023-01-12T00:00:00	2024-11-08T08:00:00	1	Precipitación	0
162424	7	Sololá	713	San Lucas Tolimán	10	San Lucas Tolimán	12	Diciembre	2023-01-12T00:00:00	2024-11-08T08:00:00	8	Radiación solar	29
162425	7	Sololá	713	San Lucas Tolimán	10	San Lucas Tolimán	12	Diciembre	2023-01-12T00:00:00	2024-11-08T09:00:00	2	Temperatura media	19.2
162426	7	Sololá	713	San Lucas Tolimán	10	San Lucas Tolimán	12	Diciembre	2023-01-12T00:00:00	2024-11-08T09:00:00	4	Temperatura máxima	19.3
162427	7	Sololá	713	San Lucas Tolimán	10	San Lucas Tolimán	12	Diciembre	2023-01-12T00:00:00	2024-11-08T09:00:00	3	Temperatura mínima	15.2
162428	7	Sololá	713	San Lucas Tolimán	10	San Lucas Tolimán	12	Diciembre	2023-01-12T00:00:00	2024-11-08T09:00:00	5	Humedad	55
162429	7	Sololá	713	San Lucas Tolimán	10	San Lucas Tolimán	12	Diciembre	2023-01-12T00:00:00	2024-11-08T09:00:00	6	Velocidad del viento	3.2
162430	7	Sololá	713	San Lucas Tolimán	10	San Lucas Tolimán	12	Diciembre	2023-01-12T00:00:00	2024-11-08T09:00:00	7	Dirección del viento	3.22
162431	7	Sololá	713	San Lucas Tolimán	10	San Lucas Tolimán	12	Diciembre	2023-01-12T00:00:00	2024-11-08T09:00:00	1	Precipitación	0
162432	7	Sololá	713	San Lucas Tolimán	10	San Lucas Tolimán	12	Diciembre	2023-01-12T00:00:00	2024-11-08T09:00:00	8	Radiación solar	344
162433	7	Sololá	713	San Lucas Tolimán	10	San Lucas Tolimán	12	Diciembre	2023-01-12T00:00:00	2024-11-08T10:00:00	2	Temperatura media	23.3
162434	7	Sololá	713	San Lucas Tolimán	10	San Lucas Tolimán	12	Diciembre	2023-01-12T00:00:00	2024-11-08T10:00:00	4	Temperatura máxima	23.3
162435	7	Sololá	713	San Lucas Tolimán	10	San Lucas Tolimán	12	Diciembre	2023-01-12T00:00:00	2024-11-08T10:00:00	3	Temperatura mínima	19.3
162436	7	Sololá	713	San Lucas Tolimán	10	San Lucas Tolimán	12	Diciembre	2023-01-12T00:00:00	2024-11-08T10:00:00	5	Humedad	53
162437	7	Sololá	713	San Lucas Tolimán	10	San Lucas Tolimán	12	Diciembre	2023-01-12T00:00:00	2024-11-08T10:00:00	6	Velocidad del viento	3.2
162438	7	Sololá	713	San Lucas Tolimán	10	San Lucas Tolimán	12	Diciembre	2023-01-12T00:00:00	2024-11-08T10:00:00	7	Dirección del viento	3.22
162439	7	Sololá	713	San Lucas Tolimán	10	San Lucas Tolimán	12	Diciembre	2023-01-12T00:00:00	2024-11-08T10:00:00	1	Precipitación	0
162440	7	Sololá	713	San Lucas Tolimán	10	San Lucas Tolimán	12	Diciembre	2023-01-12T00:00:00	2024-11-08T10:00:00	8	Radiación solar	635
162441	7	Sololá	713	San Lucas Tolimán	10	San Lucas Tolimán	12	Diciembre	2023-01-12T00:00:00	2024-11-08T11:00:00	2	Temperatura media	22.4
162442	7	Sololá	713	San Lucas Tolimán	10	San Lucas Tolimán	12	Diciembre	2023-01-12T00:00:00	2024-11-08T11:00:00	4	Temperatura máxima	23.8
162443	7	Sololá	713	San Lucas Tolimán	10	San Lucas Tolimán	12	Diciembre	2023-01-12T00:00:00	2024-11-08T11:00:00	3	Temperatura mínima	22.4
162444	7	Sololá	713	San Lucas Tolimán	10	San Lucas Tolimán	12	Diciembre	2023-01-12T00:00:00	2024-11-08T11:00:00	5	Humedad	55
162445	7	Sololá	713	San Lucas Tolimán	10	San Lucas Tolimán	12	Diciembre	2023-01-12T00:00:00	2024-11-08T11:00:00	6	Velocidad del viento	6.4
162446	7	Sololá	713	San Lucas Tolimán	10	San Lucas Tolimán	12	Diciembre	2023-01-12T00:00:00	2024-11-08T11:00:00	7	Dirección del viento	6.44
162447	7	Sololá	713	San Lucas Tolimán	10	San Lucas Tolimán	12	Diciembre	2023-01-12T00:00:00	2024-11-08T11:00:00	1	Precipitación	0
162448	7	Sololá	713	San Lucas Tolimán	10	San Lucas Tolimán	12	Diciembre	2023-01-12T00:00:00	2024-11-08T11:00:00	8	Radiación solar	741
162449	7	Sololá	713	San Lucas Tolimán	10	San Lucas Tolimán	12	Diciembre	2023-01-12T00:00:00	2024-11-08T12:00:00	2	Temperatura media	22.8
162450	7	Sololá	713	San Lucas Tolimán	10	San Lucas Tolimán	12	Diciembre	2023-01-12T00:00:00	2024-11-08T12:00:00	4	Temperatura máxima	22.9
162451	7	Sololá	713	San Lucas Tolimán	10	San Lucas Tolimán	12	Diciembre	2023-01-12T00:00:00	2024-11-08T12:00:00	3	Temperatura mínima	22.4
162452	7	Sololá	713	San Lucas Tolimán	10	San Lucas Tolimán	12	Diciembre	2023-01-12T00:00:00	2024-11-08T12:00:00	5	Humedad	55
162453	7	Sololá	713	San Lucas Tolimán	10	San Lucas Tolimán	12	Diciembre	2023-01-12T00:00:00	2024-11-08T12:00:00	6	Velocidad del viento	11.3
162454	7	Sololá	713	San Lucas Tolimán	10	San Lucas Tolimán	12	Diciembre	2023-01-12T00:00:00	2024-11-08T12:00:00	7	Dirección del viento	11.27
162455	7	Sololá	713	San Lucas Tolimán	10	San Lucas Tolimán	12	Diciembre	2023-01-12T00:00:00	2024-11-08T12:00:00	1	Precipitación	0
162456	7	Sololá	713	San Lucas Tolimán	10	San Lucas Tolimán	12	Diciembre	2023-01-12T00:00:00	2024-11-08T12:00:00	8	Radiación solar	828
162457	7	Sololá	713	San Lucas Tolimán	10	San Lucas Tolimán	12	Diciembre	2023-01-12T00:00:00	2024-11-08T13:00:00	2	Temperatura media	22.6
162458	7	Sololá	713	San Lucas Tolimán	10	San Lucas Tolimán	12	Diciembre	2023-01-12T00:00:00	2024-11-08T13:00:00	4	Temperatura máxima	23.2
162459	7	Sololá	713	San Lucas Tolimán	10	San Lucas Tolimán	12	Diciembre	2023-01-12T00:00:00	2024-11-08T13:00:00	3	Temperatura mínima	22.4
162460	7	Sololá	713	San Lucas Tolimán	10	San Lucas Tolimán	12	Diciembre	2023-01-12T00:00:00	2024-11-08T13:00:00	5	Humedad	58
162461	7	Sololá	713	San Lucas Tolimán	10	San Lucas Tolimán	12	Diciembre	2023-01-12T00:00:00	2024-11-08T13:00:00	6	Velocidad del viento	11.3
162462	7	Sololá	713	San Lucas Tolimán	10	San Lucas Tolimán	12	Diciembre	2023-01-12T00:00:00	2024-11-08T13:00:00	7	Dirección del viento	11.27
162463	7	Sololá	713	San Lucas Tolimán	10	San Lucas Tolimán	12	Diciembre	2023-01-12T00:00:00	2024-11-08T13:00:00	1	Precipitación	0
162464	7	Sololá	713	San Lucas Tolimán	10	San Lucas Tolimán	12	Diciembre	2023-01-12T00:00:00	2024-11-08T13:00:00	8	Radiación solar	823
162465	7	Sololá	713	San Lucas Tolimán	10	San Lucas Tolimán	12	Diciembre	2023-01-12T00:00:00	2024-11-08T14:00:00	2	Temperatura media	21.6
162466	7	Sololá	713	San Lucas Tolimán	10	San Lucas Tolimán	12	Diciembre	2023-01-12T00:00:00	2024-11-08T14:00:00	4	Temperatura máxima	22.6
162467	7	Sololá	713	San Lucas Tolimán	10	San Lucas Tolimán	12	Diciembre	2023-01-12T00:00:00	2024-11-08T14:00:00	3	Temperatura mínima	21.6
162468	7	Sololá	713	San Lucas Tolimán	10	San Lucas Tolimán	12	Diciembre	2023-01-12T00:00:00	2024-11-08T14:00:00	5	Humedad	61
162469	7	Sololá	713	San Lucas Tolimán	10	San Lucas Tolimán	12	Diciembre	2023-01-12T00:00:00	2024-11-08T14:00:00	6	Velocidad del viento	12.9
162470	7	Sololá	713	San Lucas Tolimán	10	San Lucas Tolimán	12	Diciembre	2023-01-12T00:00:00	2024-11-08T14:00:00	7	Dirección del viento	12.87
162471	7	Sololá	713	San Lucas Tolimán	10	San Lucas Tolimán	12	Diciembre	2023-01-12T00:00:00	2024-11-08T14:00:00	1	Precipitación	0
162472	7	Sololá	713	San Lucas Tolimán	10	San Lucas Tolimán	12	Diciembre	2023-01-12T00:00:00	2024-11-08T14:00:00	8	Radiación solar	589
162473	7	Sololá	713	San Lucas Tolimán	10	San Lucas Tolimán	12	Diciembre	2023-01-12T00:00:00	2024-11-08T15:00:00	2	Temperatura media	20.9
162474	7	Sololá	713	San Lucas Tolimán	10	San Lucas Tolimán	12	Diciembre	2023-01-12T00:00:00	2024-11-08T15:00:00	4	Temperatura máxima	21.7
162475	7	Sololá	713	San Lucas Tolimán	10	San Lucas Tolimán	12	Diciembre	2023-01-12T00:00:00	2024-11-08T15:00:00	3	Temperatura mínima	20.8
162476	7	Sololá	713	San Lucas Tolimán	10	San Lucas Tolimán	12	Diciembre	2023-01-12T00:00:00	2024-11-08T15:00:00	5	Humedad	61
162477	7	Sololá	713	San Lucas Tolimán	10	San Lucas Tolimán	12	Diciembre	2023-01-12T00:00:00	2024-11-08T15:00:00	6	Velocidad del viento	9.7
162478	7	Sololá	713	San Lucas Tolimán	10	San Lucas Tolimán	12	Diciembre	2023-01-12T00:00:00	2024-11-08T15:00:00	7	Dirección del viento	9.66
162479	7	Sololá	713	San Lucas Tolimán	10	San Lucas Tolimán	12	Diciembre	2023-01-12T00:00:00	2024-11-08T15:00:00	1	Precipitación	0
162480	7	Sololá	713	San Lucas Tolimán	10	San Lucas Tolimán	12	Diciembre	2023-01-12T00:00:00	2024-11-08T15:00:00	8	Radiación solar	337
162481	7	Sololá	713	San Lucas Tolimán	10	San Lucas Tolimán	12	Diciembre	2023-01-12T00:00:00	2024-11-08T16:00:00	2	Temperatura media	20.4
162482	7	Sololá	713	San Lucas Tolimán	10	San Lucas Tolimán	12	Diciembre	2023-01-12T00:00:00	2024-11-08T16:00:00	4	Temperatura máxima	20.9
162483	7	Sololá	713	San Lucas Tolimán	10	San Lucas Tolimán	12	Diciembre	2023-01-12T00:00:00	2024-11-08T16:00:00	3	Temperatura mínima	20.3
162484	7	Sololá	713	San Lucas Tolimán	10	San Lucas Tolimán	12	Diciembre	2023-01-12T00:00:00	2024-11-08T16:00:00	5	Humedad	61
162485	7	Sololá	713	San Lucas Tolimán	10	San Lucas Tolimán	12	Diciembre	2023-01-12T00:00:00	2024-11-08T16:00:00	6	Velocidad del viento	8
162486	7	Sololá	713	San Lucas Tolimán	10	San Lucas Tolimán	12	Diciembre	2023-01-12T00:00:00	2024-11-08T16:00:00	7	Dirección del viento	8.05
162487	7	Sololá	713	San Lucas Tolimán	10	San Lucas Tolimán	12	Diciembre	2023-01-12T00:00:00	2024-11-08T16:00:00	1	Precipitación	0
162488	7	Sololá	713	San Lucas Tolimán	10	San Lucas Tolimán	12	Diciembre	2023-01-12T00:00:00	2024-11-08T16:00:00	8	Radiación solar	217
162489	7	Sololá	713	San Lucas Tolimán	10	San Lucas Tolimán	12	Diciembre	2023-01-12T00:00:00	2024-11-08T17:00:00	2	Temperatura media	19.8
162490	7	Sololá	713	San Lucas Tolimán	10	San Lucas Tolimán	12	Diciembre	2023-01-12T00:00:00	2024-11-08T17:00:00	4	Temperatura máxima	20.4
162491	7	Sololá	713	San Lucas Tolimán	10	San Lucas Tolimán	12	Diciembre	2023-01-12T00:00:00	2024-11-08T17:00:00	3	Temperatura mínima	19.8
162492	7	Sololá	713	San Lucas Tolimán	10	San Lucas Tolimán	12	Diciembre	2023-01-12T00:00:00	2024-11-08T17:00:00	5	Humedad	60
162493	7	Sololá	713	San Lucas Tolimán	10	San Lucas Tolimán	12	Diciembre	2023-01-12T00:00:00	2024-11-08T17:00:00	6	Velocidad del viento	6.4
162494	7	Sololá	713	San Lucas Tolimán	10	San Lucas Tolimán	12	Diciembre	2023-01-12T00:00:00	2024-11-08T17:00:00	7	Dirección del viento	6.44
162495	7	Sololá	713	San Lucas Tolimán	10	San Lucas Tolimán	12	Diciembre	2023-01-12T00:00:00	2024-11-08T17:00:00	1	Precipitación	0
162496	7	Sololá	713	San Lucas Tolimán	10	San Lucas Tolimán	12	Diciembre	2023-01-12T00:00:00	2024-11-08T17:00:00	8	Radiación solar	75
162497	7	Sololá	713	San Lucas Tolimán	10	San Lucas Tolimán	12	Diciembre	2023-01-12T00:00:00	2024-11-08T18:00:00	2	Temperatura media	19
162498	7	Sololá	713	San Lucas Tolimán	10	San Lucas Tolimán	12	Diciembre	2023-01-12T00:00:00	2024-11-08T18:00:00	4	Temperatura máxima	19.8
162499	7	Sololá	713	San Lucas Tolimán	10	San Lucas Tolimán	12	Diciembre	2023-01-12T00:00:00	2024-11-08T18:00:00	3	Temperatura mínima	19
162500	7	Sololá	713	San Lucas Tolimán	10	San Lucas Tolimán	12	Diciembre	2023-01-12T00:00:00	2024-11-08T18:00:00	5	Humedad	61
162501	7	Sololá	713	San Lucas Tolimán	10	San Lucas Tolimán	12	Diciembre	2023-01-12T00:00:00	2024-11-08T18:00:00	6	Velocidad del viento	6.4
162502	7	Sololá	713	San Lucas Tolimán	10	San Lucas Tolimán	12	Diciembre	2023-01-12T00:00:00	2024-11-08T18:00:00	7	Dirección del viento	6.44
162503	7	Sololá	713	San Lucas Tolimán	10	San Lucas Tolimán	12	Diciembre	2023-01-12T00:00:00	2024-11-08T18:00:00	1	Precipitación	0
162504	7	Sololá	713	San Lucas Tolimán	10	San Lucas Tolimán	12	Diciembre	2023-01-12T00:00:00	2024-11-08T18:00:00	8	Radiación solar	7
162505	7	Sololá	713	San Lucas Tolimán	10	San Lucas Tolimán	12	Diciembre	2023-01-12T00:00:00	2024-11-08T19:00:00	2	Temperatura media	18.6
162506	7	Sololá	713	San Lucas Tolimán	10	San Lucas Tolimán	12	Diciembre	2023-01-12T00:00:00	2024-11-08T19:00:00	4	Temperatura máxima	19.1
162507	7	Sololá	713	San Lucas Tolimán	10	San Lucas Tolimán	12	Diciembre	2023-01-12T00:00:00	2024-11-08T19:00:00	3	Temperatura mínima	18.6
162508	7	Sololá	713	San Lucas Tolimán	10	San Lucas Tolimán	12	Diciembre	2023-01-12T00:00:00	2024-11-08T19:00:00	5	Humedad	60
162509	7	Sololá	713	San Lucas Tolimán	10	San Lucas Tolimán	12	Diciembre	2023-01-12T00:00:00	2024-11-08T19:00:00	6	Velocidad del viento	1.6
162510	7	Sololá	713	San Lucas Tolimán	10	San Lucas Tolimán	12	Diciembre	2023-01-12T00:00:00	2024-11-08T19:00:00	7	Dirección del viento	1.61
162511	7	Sololá	713	San Lucas Tolimán	10	San Lucas Tolimán	12	Diciembre	2023-01-12T00:00:00	2024-11-08T19:00:00	1	Precipitación	0
162512	7	Sololá	713	San Lucas Tolimán	10	San Lucas Tolimán	12	Diciembre	2023-01-12T00:00:00	2024-11-08T19:00:00	8	Radiación solar	0
162513	7	Sololá	713	San Lucas Tolimán	10	San Lucas Tolimán	12	Diciembre	2023-01-12T00:00:00	2024-11-08T20:00:00	2	Temperatura media	17.4
162514	7	Sololá	713	San Lucas Tolimán	10	San Lucas Tolimán	12	Diciembre	2023-01-12T00:00:00	2024-11-08T20:00:00	4	Temperatura máxima	18.6
162515	7	Sololá	713	San Lucas Tolimán	10	San Lucas Tolimán	12	Diciembre	2023-01-12T00:00:00	2024-11-08T20:00:00	3	Temperatura mínima	17.4
162516	7	Sololá	713	San Lucas Tolimán	10	San Lucas Tolimán	12	Diciembre	2023-01-12T00:00:00	2024-11-08T20:00:00	5	Humedad	59
162517	7	Sololá	713	San Lucas Tolimán	10	San Lucas Tolimán	12	Diciembre	2023-01-12T00:00:00	2024-11-08T20:00:00	6	Velocidad del viento	3.2
162518	7	Sololá	713	San Lucas Tolimán	10	San Lucas Tolimán	12	Diciembre	2023-01-12T00:00:00	2024-11-08T20:00:00	7	Dirección del viento	3.22
162519	7	Sololá	713	San Lucas Tolimán	10	San Lucas Tolimán	12	Diciembre	2023-01-12T00:00:00	2024-11-08T20:00:00	1	Precipitación	0
162520	7	Sololá	713	San Lucas Tolimán	10	San Lucas Tolimán	12	Diciembre	2023-01-12T00:00:00	2024-11-08T20:00:00	8	Radiación solar	0
162521	7	Sololá	713	San Lucas Tolimán	10	San Lucas Tolimán	12	Diciembre	2023-01-12T00:00:00	2024-11-08T21:00:00	2	Temperatura media	17.4
162522	7	Sololá	713	San Lucas Tolimán	10	San Lucas Tolimán	12	Diciembre	2023-01-12T00:00:00	2024-11-08T21:00:00	4	Temperatura máxima	17.6
162523	7	Sololá	713	San Lucas Tolimán	10	San Lucas Tolimán	12	Diciembre	2023-01-12T00:00:00	2024-11-08T21:00:00	3	Temperatura mínima	17.4
162524	7	Sololá	713	San Lucas Tolimán	10	San Lucas Tolimán	12	Diciembre	2023-01-12T00:00:00	2024-11-08T21:00:00	5	Humedad	60
162525	7	Sololá	713	San Lucas Tolimán	10	San Lucas Tolimán	12	Diciembre	2023-01-12T00:00:00	2024-11-08T21:00:00	6	Velocidad del viento	0
162526	7	Sololá	713	San Lucas Tolimán	10	San Lucas Tolimán	12	Diciembre	2023-01-12T00:00:00	2024-11-08T21:00:00	7	Dirección del viento	0
162527	7	Sololá	713	San Lucas Tolimán	10	San Lucas Tolimán	12	Diciembre	2023-01-12T00:00:00	2024-11-08T21:00:00	1	Precipitación	0
162528	7	Sololá	713	San Lucas Tolimán	10	San Lucas Tolimán	12	Diciembre	2023-01-12T00:00:00	2024-11-08T21:00:00	8	Radiación solar	0
162529	7	Sololá	713	San Lucas Tolimán	10	San Lucas Tolimán	12	Diciembre	2023-01-12T00:00:00	2024-11-08T22:00:00	2	Temperatura media	17.2
162530	7	Sololá	713	San Lucas Tolimán	10	San Lucas Tolimán	12	Diciembre	2023-01-12T00:00:00	2024-11-08T22:00:00	4	Temperatura máxima	17.5
162531	7	Sololá	713	San Lucas Tolimán	10	San Lucas Tolimán	12	Diciembre	2023-01-12T00:00:00	2024-11-08T22:00:00	3	Temperatura mínima	17.2
162532	7	Sololá	713	San Lucas Tolimán	10	San Lucas Tolimán	12	Diciembre	2023-01-12T00:00:00	2024-11-08T22:00:00	5	Humedad	60
162533	7	Sololá	713	San Lucas Tolimán	10	San Lucas Tolimán	12	Diciembre	2023-01-12T00:00:00	2024-11-08T22:00:00	6	Velocidad del viento	0
162534	7	Sololá	713	San Lucas Tolimán	10	San Lucas Tolimán	12	Diciembre	2023-01-12T00:00:00	2024-11-08T22:00:00	7	Dirección del viento	0
162535	7	Sololá	713	San Lucas Tolimán	10	San Lucas Tolimán	12	Diciembre	2023-01-12T00:00:00	2024-11-08T22:00:00	1	Precipitación	0
162536	7	Sololá	713	San Lucas Tolimán	10	San Lucas Tolimán	12	Diciembre	2023-01-12T00:00:00	2024-11-08T22:00:00	8	Radiación solar	0
162537	7	Sololá	713	San Lucas Tolimán	10	San Lucas Tolimán	12	Diciembre	2023-01-12T00:00:00	2024-11-08T23:00:00	2	Temperatura media	17.7
162538	7	Sololá	713	San Lucas Tolimán	10	San Lucas Tolimán	12	Diciembre	2023-01-12T00:00:00	2024-11-08T23:00:00	4	Temperatura máxima	17.7
162539	7	Sololá	713	San Lucas Tolimán	10	San Lucas Tolimán	12	Diciembre	2023-01-12T00:00:00	2024-11-08T23:00:00	3	Temperatura mínima	17.2
162540	7	Sololá	713	San Lucas Tolimán	10	San Lucas Tolimán	12	Diciembre	2023-01-12T00:00:00	2024-11-08T23:00:00	5	Humedad	61
162541	7	Sololá	713	San Lucas Tolimán	10	San Lucas Tolimán	12	Diciembre	2023-01-12T00:00:00	2024-11-08T23:00:00	6	Velocidad del viento	0
162542	7	Sololá	713	San Lucas Tolimán	10	San Lucas Tolimán	12	Diciembre	2023-01-12T00:00:00	2024-11-08T23:00:00	7	Dirección del viento	0
162543	7	Sololá	713	San Lucas Tolimán	10	San Lucas Tolimán	12	Diciembre	2023-01-12T00:00:00	2024-11-08T23:00:00	1	Precipitación	0
162544	7	Sololá	713	San Lucas Tolimán	10	San Lucas Tolimán	12	Diciembre	2023-01-12T00:00:00	2024-11-08T23:00:00	8	Radiación solar	0
162545	7	Sololá	713	San Lucas Tolimán	10	San Lucas Tolimán	12	Diciembre	2023-02-12T00:00:00	2024-11-08T00:00:00	2	Temperatura media	17.7
162546	7	Sololá	713	San Lucas Tolimán	10	San Lucas Tolimán	12	Diciembre	2023-02-12T00:00:00	2024-11-08T00:00:00	4	Temperatura máxima	17.9
162547	7	Sololá	713	San Lucas Tolimán	10	San Lucas Tolimán	12	Diciembre	2023-02-12T00:00:00	2024-11-08T00:00:00	3	Temperatura mínima	17.6
162548	7	Sololá	713	San Lucas Tolimán	10	San Lucas Tolimán	12	Diciembre	2023-02-12T00:00:00	2024-11-08T00:00:00	5	Humedad	58
162549	7	Sololá	713	San Lucas Tolimán	10	San Lucas Tolimán	12	Diciembre	2023-02-12T00:00:00	2024-11-08T00:00:00	6	Velocidad del viento	0
162550	7	Sololá	713	San Lucas Tolimán	10	San Lucas Tolimán	12	Diciembre	2023-02-12T00:00:00	2024-11-08T00:00:00	7	Dirección del viento	0
162551	7	Sololá	713	San Lucas Tolimán	10	San Lucas Tolimán	12	Diciembre	2023-02-12T00:00:00	2024-11-08T00:00:00	1	Precipitación	0
162552	7	Sololá	713	San Lucas Tolimán	10	San Lucas Tolimán	12	Diciembre	2023-02-12T00:00:00	2024-11-08T00:00:00	8	Radiación solar	0
162553	7	Sololá	713	San Lucas Tolimán	10	San Lucas Tolimán	12	Diciembre	2023-02-12T00:00:00	2024-11-08T01:00:00	2	Temperatura media	17.3
162554	7	Sololá	713	San Lucas Tolimán	10	San Lucas Tolimán	12	Diciembre	2023-02-12T00:00:00	2024-11-08T01:00:00	4	Temperatura máxima	17.7
162555	7	Sololá	713	San Lucas Tolimán	10	San Lucas Tolimán	12	Diciembre	2023-02-12T00:00:00	2024-11-08T01:00:00	3	Temperatura mínima	17.3
162556	7	Sololá	713	San Lucas Tolimán	10	San Lucas Tolimán	12	Diciembre	2023-02-12T00:00:00	2024-11-08T01:00:00	5	Humedad	58
162557	7	Sololá	713	San Lucas Tolimán	10	San Lucas Tolimán	12	Diciembre	2023-02-12T00:00:00	2024-11-08T01:00:00	6	Velocidad del viento	0
162558	7	Sololá	713	San Lucas Tolimán	10	San Lucas Tolimán	12	Diciembre	2023-02-12T00:00:00	2024-11-08T01:00:00	7	Dirección del viento	0
162559	7	Sololá	713	San Lucas Tolimán	10	San Lucas Tolimán	12	Diciembre	2023-02-12T00:00:00	2024-11-08T01:00:00	1	Precipitación	0
162560	7	Sololá	713	San Lucas Tolimán	10	San Lucas Tolimán	12	Diciembre	2023-02-12T00:00:00	2024-11-08T01:00:00	8	Radiación solar	0
162561	7	Sololá	713	San Lucas Tolimán	10	San Lucas Tolimán	12	Diciembre	2023-02-12T00:00:00	2024-11-08T02:00:00	2	Temperatura media	16.6
162562	7	Sololá	713	San Lucas Tolimán	10	San Lucas Tolimán	12	Diciembre	2023-02-12T00:00:00	2024-11-08T02:00:00	4	Temperatura máxima	17.3
162563	7	Sololá	713	San Lucas Tolimán	10	San Lucas Tolimán	12	Diciembre	2023-02-12T00:00:00	2024-11-08T02:00:00	3	Temperatura mínima	16.5
162564	7	Sololá	713	San Lucas Tolimán	10	San Lucas Tolimán	12	Diciembre	2023-02-12T00:00:00	2024-11-08T02:00:00	5	Humedad	58
162565	7	Sololá	713	San Lucas Tolimán	10	San Lucas Tolimán	12	Diciembre	2023-02-12T00:00:00	2024-11-08T02:00:00	6	Velocidad del viento	0
162566	7	Sololá	713	San Lucas Tolimán	10	San Lucas Tolimán	12	Diciembre	2023-02-12T00:00:00	2024-11-08T02:00:00	7	Dirección del viento	0
162567	7	Sololá	713	San Lucas Tolimán	10	San Lucas Tolimán	12	Diciembre	2023-02-12T00:00:00	2024-11-08T02:00:00	1	Precipitación	0
162568	7	Sololá	713	San Lucas Tolimán	10	San Lucas Tolimán	12	Diciembre	2023-02-12T00:00:00	2024-11-08T02:00:00	8	Radiación solar	0
162569	7	Sololá	713	San Lucas Tolimán	10	San Lucas Tolimán	12	Diciembre	2023-02-12T00:00:00	2024-11-08T03:00:00	2	Temperatura media	16.3
162570	7	Sololá	713	San Lucas Tolimán	10	San Lucas Tolimán	12	Diciembre	2023-02-12T00:00:00	2024-11-08T03:00:00	4	Temperatura máxima	16.8
162571	7	Sololá	713	San Lucas Tolimán	10	San Lucas Tolimán	12	Diciembre	2023-02-12T00:00:00	2024-11-08T03:00:00	3	Temperatura mínima	16.3
162572	7	Sololá	713	San Lucas Tolimán	10	San Lucas Tolimán	12	Diciembre	2023-02-12T00:00:00	2024-11-08T03:00:00	5	Humedad	56
162573	7	Sololá	713	San Lucas Tolimán	10	San Lucas Tolimán	12	Diciembre	2023-02-12T00:00:00	2024-11-08T03:00:00	6	Velocidad del viento	1.6
162574	7	Sololá	713	San Lucas Tolimán	10	San Lucas Tolimán	12	Diciembre	2023-02-12T00:00:00	2024-11-08T03:00:00	7	Dirección del viento	1.61
162575	7	Sololá	713	San Lucas Tolimán	10	San Lucas Tolimán	12	Diciembre	2023-02-12T00:00:00	2024-11-08T03:00:00	1	Precipitación	0
162576	7	Sololá	713	San Lucas Tolimán	10	San Lucas Tolimán	12	Diciembre	2023-02-12T00:00:00	2024-11-08T03:00:00	8	Radiación solar	0
162577	7	Sololá	713	San Lucas Tolimán	10	San Lucas Tolimán	12	Diciembre	2023-02-12T00:00:00	2024-11-08T04:00:00	2	Temperatura media	15.3
162578	7	Sololá	713	San Lucas Tolimán	10	San Lucas Tolimán	12	Diciembre	2023-02-12T00:00:00	2024-11-08T04:00:00	4	Temperatura máxima	16.3
162579	7	Sololá	713	San Lucas Tolimán	10	San Lucas Tolimán	12	Diciembre	2023-02-12T00:00:00	2024-11-08T04:00:00	3	Temperatura mínima	15.3
162580	7	Sololá	713	San Lucas Tolimán	10	San Lucas Tolimán	12	Diciembre	2023-02-12T00:00:00	2024-11-08T04:00:00	5	Humedad	59
162581	7	Sololá	713	San Lucas Tolimán	10	San Lucas Tolimán	12	Diciembre	2023-02-12T00:00:00	2024-11-08T04:00:00	6	Velocidad del viento	0
162582	7	Sololá	713	San Lucas Tolimán	10	San Lucas Tolimán	12	Diciembre	2023-02-12T00:00:00	2024-11-08T04:00:00	7	Dirección del viento	0
162583	7	Sololá	713	San Lucas Tolimán	10	San Lucas Tolimán	12	Diciembre	2023-02-12T00:00:00	2024-11-08T04:00:00	1	Precipitación	0
162584	7	Sololá	713	San Lucas Tolimán	10	San Lucas Tolimán	12	Diciembre	2023-02-12T00:00:00	2024-11-08T04:00:00	8	Radiación solar	0
162585	7	Sololá	713	San Lucas Tolimán	10	San Lucas Tolimán	12	Diciembre	2023-02-12T00:00:00	2024-11-08T05:00:00	2	Temperatura media	15.4
162586	7	Sololá	713	San Lucas Tolimán	10	San Lucas Tolimán	12	Diciembre	2023-02-12T00:00:00	2024-11-08T05:00:00	4	Temperatura máxima	15.5
162587	7	Sololá	713	San Lucas Tolimán	10	San Lucas Tolimán	12	Diciembre	2023-02-12T00:00:00	2024-11-08T05:00:00	3	Temperatura mínima	15.3
162588	7	Sololá	713	San Lucas Tolimán	10	San Lucas Tolimán	12	Diciembre	2023-02-12T00:00:00	2024-11-08T05:00:00	5	Humedad	56
162589	7	Sololá	713	San Lucas Tolimán	10	San Lucas Tolimán	12	Diciembre	2023-02-12T00:00:00	2024-11-08T05:00:00	6	Velocidad del viento	0
162590	7	Sololá	713	San Lucas Tolimán	10	San Lucas Tolimán	12	Diciembre	2023-02-12T00:00:00	2024-11-08T05:00:00	7	Dirección del viento	0
162591	7	Sololá	713	San Lucas Tolimán	10	San Lucas Tolimán	12	Diciembre	2023-02-12T00:00:00	2024-11-08T05:00:00	1	Precipitación	0
162592	7	Sololá	713	San Lucas Tolimán	10	San Lucas Tolimán	12	Diciembre	2023-02-12T00:00:00	2024-11-08T05:00:00	8	Radiación solar	0
162593	7	Sololá	713	San Lucas Tolimán	10	San Lucas Tolimán	12	Diciembre	2023-02-12T00:00:00	2024-11-08T06:00:00	2	Temperatura media	15.2
162594	7	Sololá	713	San Lucas Tolimán	10	San Lucas Tolimán	12	Diciembre	2023-02-12T00:00:00	2024-11-08T06:00:00	4	Temperatura máxima	15.6
162595	7	Sololá	713	San Lucas Tolimán	10	San Lucas Tolimán	12	Diciembre	2023-02-12T00:00:00	2024-11-08T06:00:00	3	Temperatura mínima	15.2
162596	7	Sololá	713	San Lucas Tolimán	10	San Lucas Tolimán	12	Diciembre	2023-02-12T00:00:00	2024-11-08T06:00:00	5	Humedad	58
162597	7	Sololá	713	San Lucas Tolimán	10	San Lucas Tolimán	12	Diciembre	2023-02-12T00:00:00	2024-11-08T06:00:00	6	Velocidad del viento	0
162598	7	Sololá	713	San Lucas Tolimán	10	San Lucas Tolimán	12	Diciembre	2023-02-12T00:00:00	2024-11-08T06:00:00	7	Dirección del viento	0
162599	7	Sololá	713	San Lucas Tolimán	10	San Lucas Tolimán	12	Diciembre	2023-02-12T00:00:00	2024-11-08T06:00:00	1	Precipitación	0
162600	7	Sololá	713	San Lucas Tolimán	10	San Lucas Tolimán	12	Diciembre	2023-02-12T00:00:00	2024-11-08T06:00:00	8	Radiación solar	0
162601	7	Sololá	713	San Lucas Tolimán	10	San Lucas Tolimán	12	Diciembre	2023-02-12T00:00:00	2024-11-08T07:00:00	2	Temperatura media	13.9
162602	7	Sololá	713	San Lucas Tolimán	10	San Lucas Tolimán	12	Diciembre	2023-02-12T00:00:00	2024-11-08T07:00:00	4	Temperatura máxima	15.2
162603	7	Sololá	713	San Lucas Tolimán	10	San Lucas Tolimán	12	Diciembre	2023-02-12T00:00:00	2024-11-08T07:00:00	3	Temperatura mínima	13.9
162604	7	Sololá	713	San Lucas Tolimán	10	San Lucas Tolimán	12	Diciembre	2023-02-12T00:00:00	2024-11-08T07:00:00	5	Humedad	60
162605	7	Sololá	713	San Lucas Tolimán	10	San Lucas Tolimán	12	Diciembre	2023-02-12T00:00:00	2024-11-08T07:00:00	6	Velocidad del viento	0
162606	7	Sololá	713	San Lucas Tolimán	10	San Lucas Tolimán	12	Diciembre	2023-02-12T00:00:00	2024-11-08T07:00:00	7	Dirección del viento	0
162607	7	Sololá	713	San Lucas Tolimán	10	San Lucas Tolimán	12	Diciembre	2023-02-12T00:00:00	2024-11-08T07:00:00	1	Precipitación	0
162608	7	Sololá	713	San Lucas Tolimán	10	San Lucas Tolimán	12	Diciembre	2023-02-12T00:00:00	2024-11-08T07:00:00	8	Radiación solar	9
162609	7	Sololá	713	San Lucas Tolimán	10	San Lucas Tolimán	12	Diciembre	2023-02-12T00:00:00	2024-11-08T08:00:00	2	Temperatura media	14.8
162610	7	Sololá	713	San Lucas Tolimán	10	San Lucas Tolimán	12	Diciembre	2023-02-12T00:00:00	2024-11-08T08:00:00	4	Temperatura máxima	14.9
162611	7	Sololá	713	San Lucas Tolimán	10	San Lucas Tolimán	12	Diciembre	2023-02-12T00:00:00	2024-11-08T08:00:00	3	Temperatura mínima	13.9
162612	7	Sololá	713	San Lucas Tolimán	10	San Lucas Tolimán	12	Diciembre	2023-02-12T00:00:00	2024-11-08T08:00:00	5	Humedad	57
162613	7	Sololá	713	San Lucas Tolimán	10	San Lucas Tolimán	12	Diciembre	2023-02-12T00:00:00	2024-11-08T08:00:00	6	Velocidad del viento	0
162614	7	Sololá	713	San Lucas Tolimán	10	San Lucas Tolimán	12	Diciembre	2023-02-12T00:00:00	2024-11-08T08:00:00	7	Dirección del viento	0
162615	7	Sololá	713	San Lucas Tolimán	10	San Lucas Tolimán	12	Diciembre	2023-02-12T00:00:00	2024-11-08T08:00:00	1	Precipitación	0
162616	7	Sololá	713	San Lucas Tolimán	10	San Lucas Tolimán	12	Diciembre	2023-02-12T00:00:00	2024-11-08T08:00:00	8	Radiación solar	24
162617	7	Sololá	713	San Lucas Tolimán	10	San Lucas Tolimán	12	Diciembre	2023-02-12T00:00:00	2024-11-08T09:00:00	2	Temperatura media	19
162618	7	Sololá	713	San Lucas Tolimán	10	San Lucas Tolimán	12	Diciembre	2023-02-12T00:00:00	2024-11-08T09:00:00	4	Temperatura máxima	19
162619	7	Sololá	713	San Lucas Tolimán	10	San Lucas Tolimán	12	Diciembre	2023-02-12T00:00:00	2024-11-08T09:00:00	3	Temperatura mínima	14.8
162620	7	Sololá	713	San Lucas Tolimán	10	San Lucas Tolimán	12	Diciembre	2023-02-12T00:00:00	2024-11-08T09:00:00	5	Humedad	55
162621	7	Sololá	713	San Lucas Tolimán	10	San Lucas Tolimán	12	Diciembre	2023-02-12T00:00:00	2024-11-08T09:00:00	6	Velocidad del viento	3.2
162622	7	Sololá	713	San Lucas Tolimán	10	San Lucas Tolimán	12	Diciembre	2023-02-12T00:00:00	2024-11-08T09:00:00	7	Dirección del viento	3.22
162623	7	Sololá	713	San Lucas Tolimán	10	San Lucas Tolimán	12	Diciembre	2023-02-12T00:00:00	2024-11-08T09:00:00	1	Precipitación	0
162624	7	Sololá	713	San Lucas Tolimán	10	San Lucas Tolimán	12	Diciembre	2023-02-12T00:00:00	2024-11-08T09:00:00	8	Radiación solar	377
162625	7	Sololá	713	San Lucas Tolimán	10	San Lucas Tolimán	12	Diciembre	2023-02-12T00:00:00	2024-11-08T10:00:00	2	Temperatura media	20.7
162626	7	Sololá	713	San Lucas Tolimán	10	San Lucas Tolimán	12	Diciembre	2023-02-12T00:00:00	2024-11-08T10:00:00	4	Temperatura máxima	20.7
162627	7	Sololá	713	San Lucas Tolimán	10	San Lucas Tolimán	12	Diciembre	2023-02-12T00:00:00	2024-11-08T10:00:00	3	Temperatura mínima	19.1
162628	7	Sololá	713	San Lucas Tolimán	10	San Lucas Tolimán	12	Diciembre	2023-02-12T00:00:00	2024-11-08T10:00:00	5	Humedad	54
162629	7	Sololá	713	San Lucas Tolimán	10	San Lucas Tolimán	12	Diciembre	2023-02-12T00:00:00	2024-11-08T10:00:00	6	Velocidad del viento	4.8
162630	7	Sololá	713	San Lucas Tolimán	10	San Lucas Tolimán	12	Diciembre	2023-02-12T00:00:00	2024-11-08T10:00:00	7	Dirección del viento	4.83
162631	7	Sololá	713	San Lucas Tolimán	10	San Lucas Tolimán	12	Diciembre	2023-02-12T00:00:00	2024-11-08T10:00:00	1	Precipitación	0
162632	7	Sololá	713	San Lucas Tolimán	10	San Lucas Tolimán	12	Diciembre	2023-02-12T00:00:00	2024-11-08T10:00:00	8	Radiación solar	631
162633	7	Sololá	713	San Lucas Tolimán	10	San Lucas Tolimán	12	Diciembre	2023-02-12T00:00:00	2024-11-08T11:00:00	2	Temperatura media	21.9
162634	7	Sololá	713	San Lucas Tolimán	10	San Lucas Tolimán	12	Diciembre	2023-02-12T00:00:00	2024-11-08T11:00:00	4	Temperatura máxima	21.9
162635	7	Sololá	713	San Lucas Tolimán	10	San Lucas Tolimán	12	Diciembre	2023-02-12T00:00:00	2024-11-08T11:00:00	3	Temperatura mínima	20.7
162636	7	Sololá	713	San Lucas Tolimán	10	San Lucas Tolimán	12	Diciembre	2023-02-12T00:00:00	2024-11-08T11:00:00	5	Humedad	49
162637	7	Sololá	713	San Lucas Tolimán	10	San Lucas Tolimán	12	Diciembre	2023-02-12T00:00:00	2024-11-08T11:00:00	6	Velocidad del viento	6.4
162638	7	Sololá	713	San Lucas Tolimán	10	San Lucas Tolimán	12	Diciembre	2023-02-12T00:00:00	2024-11-08T11:00:00	7	Dirección del viento	6.44
162639	7	Sololá	713	San Lucas Tolimán	10	San Lucas Tolimán	12	Diciembre	2023-02-12T00:00:00	2024-11-08T11:00:00	1	Precipitación	0
162640	7	Sololá	713	San Lucas Tolimán	10	San Lucas Tolimán	12	Diciembre	2023-02-12T00:00:00	2024-11-08T11:00:00	8	Radiación solar	775
162641	7	Sololá	713	San Lucas Tolimán	10	San Lucas Tolimán	12	Diciembre	2023-02-12T00:00:00	2024-11-08T12:00:00	2	Temperatura media	23.6
162642	7	Sololá	713	San Lucas Tolimán	10	San Lucas Tolimán	12	Diciembre	2023-02-12T00:00:00	2024-11-08T12:00:00	4	Temperatura máxima	24
162643	7	Sololá	713	San Lucas Tolimán	10	San Lucas Tolimán	12	Diciembre	2023-02-12T00:00:00	2024-11-08T12:00:00	3	Temperatura mínima	21.9
162644	7	Sololá	713	San Lucas Tolimán	10	San Lucas Tolimán	12	Diciembre	2023-02-12T00:00:00	2024-11-08T12:00:00	5	Humedad	52
162645	7	Sololá	713	San Lucas Tolimán	10	San Lucas Tolimán	12	Diciembre	2023-02-12T00:00:00	2024-11-08T12:00:00	6	Velocidad del viento	8
162646	7	Sololá	713	San Lucas Tolimán	10	San Lucas Tolimán	12	Diciembre	2023-02-12T00:00:00	2024-11-08T12:00:00	7	Dirección del viento	8.05
162647	7	Sololá	713	San Lucas Tolimán	10	San Lucas Tolimán	12	Diciembre	2023-02-12T00:00:00	2024-11-08T12:00:00	1	Precipitación	0
162648	7	Sololá	713	San Lucas Tolimán	10	San Lucas Tolimán	12	Diciembre	2023-02-12T00:00:00	2024-11-08T12:00:00	8	Radiación solar	852
162649	7	Sololá	713	San Lucas Tolimán	10	San Lucas Tolimán	12	Diciembre	2023-02-12T00:00:00	2024-11-08T13:00:00	2	Temperatura media	23.4
162650	7	Sololá	713	San Lucas Tolimán	10	San Lucas Tolimán	12	Diciembre	2023-02-12T00:00:00	2024-11-08T13:00:00	4	Temperatura máxima	23.9
162651	7	Sololá	713	San Lucas Tolimán	10	San Lucas Tolimán	12	Diciembre	2023-02-12T00:00:00	2024-11-08T13:00:00	3	Temperatura mínima	23.3
162652	7	Sololá	713	San Lucas Tolimán	10	San Lucas Tolimán	12	Diciembre	2023-02-12T00:00:00	2024-11-08T13:00:00	5	Humedad	52
162653	7	Sololá	713	San Lucas Tolimán	10	San Lucas Tolimán	12	Diciembre	2023-02-12T00:00:00	2024-11-08T13:00:00	6	Velocidad del viento	12.9
162654	7	Sololá	713	San Lucas Tolimán	10	San Lucas Tolimán	12	Diciembre	2023-02-12T00:00:00	2024-11-08T13:00:00	7	Dirección del viento	12.87
162655	7	Sololá	713	San Lucas Tolimán	10	San Lucas Tolimán	12	Diciembre	2023-02-12T00:00:00	2024-11-08T13:00:00	1	Precipitación	0
162656	7	Sololá	713	San Lucas Tolimán	10	San Lucas Tolimán	12	Diciembre	2023-02-12T00:00:00	2024-11-08T13:00:00	8	Radiación solar	843
162657	7	Sololá	713	San Lucas Tolimán	10	San Lucas Tolimán	12	Diciembre	2023-02-12T00:00:00	2024-11-08T14:00:00	2	Temperatura media	22.4
162658	7	Sololá	713	San Lucas Tolimán	10	San Lucas Tolimán	12	Diciembre	2023-02-12T00:00:00	2024-11-08T14:00:00	4	Temperatura máxima	23.7
162659	7	Sololá	713	San Lucas Tolimán	10	San Lucas Tolimán	12	Diciembre	2023-02-12T00:00:00	2024-11-08T14:00:00	3	Temperatura mínima	22.3
162660	7	Sololá	713	San Lucas Tolimán	10	San Lucas Tolimán	12	Diciembre	2023-02-12T00:00:00	2024-11-08T14:00:00	5	Humedad	59
162661	7	Sololá	713	San Lucas Tolimán	10	San Lucas Tolimán	12	Diciembre	2023-02-12T00:00:00	2024-11-08T14:00:00	6	Velocidad del viento	12.9
162662	7	Sololá	713	San Lucas Tolimán	10	San Lucas Tolimán	12	Diciembre	2023-02-12T00:00:00	2024-11-08T14:00:00	7	Dirección del viento	12.87
162663	7	Sololá	713	San Lucas Tolimán	10	San Lucas Tolimán	12	Diciembre	2023-02-12T00:00:00	2024-11-08T14:00:00	1	Precipitación	0
162664	7	Sololá	713	San Lucas Tolimán	10	San Lucas Tolimán	12	Diciembre	2023-02-12T00:00:00	2024-11-08T14:00:00	8	Radiación solar	781
162665	7	Sololá	713	San Lucas Tolimán	10	San Lucas Tolimán	12	Diciembre	2023-02-12T00:00:00	2024-11-08T15:00:00	2	Temperatura media	22
162666	7	Sololá	713	San Lucas Tolimán	10	San Lucas Tolimán	12	Diciembre	2023-02-12T00:00:00	2024-11-08T15:00:00	4	Temperatura máxima	22.4
162667	7	Sololá	713	San Lucas Tolimán	10	San Lucas Tolimán	12	Diciembre	2023-02-12T00:00:00	2024-11-08T15:00:00	3	Temperatura mínima	21.6
162668	7	Sololá	713	San Lucas Tolimán	10	San Lucas Tolimán	12	Diciembre	2023-02-12T00:00:00	2024-11-08T15:00:00	5	Humedad	60
162669	7	Sololá	713	San Lucas Tolimán	10	San Lucas Tolimán	12	Diciembre	2023-02-12T00:00:00	2024-11-08T15:00:00	6	Velocidad del viento	11.3
162670	7	Sololá	713	San Lucas Tolimán	10	San Lucas Tolimán	12	Diciembre	2023-02-12T00:00:00	2024-11-08T15:00:00	7	Dirección del viento	11.27
162671	7	Sololá	713	San Lucas Tolimán	10	San Lucas Tolimán	12	Diciembre	2023-02-12T00:00:00	2024-11-08T15:00:00	1	Precipitación	0
162672	7	Sololá	713	San Lucas Tolimán	10	San Lucas Tolimán	12	Diciembre	2023-02-12T00:00:00	2024-11-08T15:00:00	8	Radiación solar	484
162673	7	Sololá	713	San Lucas Tolimán	10	San Lucas Tolimán	12	Diciembre	2023-02-12T00:00:00	2024-11-08T16:00:00	2	Temperatura media	21.1
162674	7	Sololá	713	San Lucas Tolimán	10	San Lucas Tolimán	12	Diciembre	2023-02-12T00:00:00	2024-11-08T16:00:00	4	Temperatura máxima	22.1
162675	7	Sololá	713	San Lucas Tolimán	10	San Lucas Tolimán	12	Diciembre	2023-02-12T00:00:00	2024-11-08T16:00:00	3	Temperatura mínima	21.1
162676	7	Sololá	713	San Lucas Tolimán	10	San Lucas Tolimán	12	Diciembre	2023-02-12T00:00:00	2024-11-08T16:00:00	5	Humedad	62
162677	7	Sololá	713	San Lucas Tolimán	10	San Lucas Tolimán	12	Diciembre	2023-02-12T00:00:00	2024-11-08T16:00:00	6	Velocidad del viento	9.7
162678	7	Sololá	713	San Lucas Tolimán	10	San Lucas Tolimán	12	Diciembre	2023-02-12T00:00:00	2024-11-08T16:00:00	7	Dirección del viento	9.66
162679	7	Sololá	713	San Lucas Tolimán	10	San Lucas Tolimán	12	Diciembre	2023-02-12T00:00:00	2024-11-08T16:00:00	1	Precipitación	0
162680	7	Sololá	713	San Lucas Tolimán	10	San Lucas Tolimán	12	Diciembre	2023-02-12T00:00:00	2024-11-08T16:00:00	8	Radiación solar	254
162681	7	Sololá	713	San Lucas Tolimán	10	San Lucas Tolimán	12	Diciembre	2023-02-12T00:00:00	2024-11-08T17:00:00	2	Temperatura media	20.1
162682	7	Sololá	713	San Lucas Tolimán	10	San Lucas Tolimán	12	Diciembre	2023-02-12T00:00:00	2024-11-08T17:00:00	4	Temperatura máxima	21
162683	7	Sololá	713	San Lucas Tolimán	10	San Lucas Tolimán	12	Diciembre	2023-02-12T00:00:00	2024-11-08T17:00:00	3	Temperatura mínima	20.1
162684	7	Sololá	713	San Lucas Tolimán	10	San Lucas Tolimán	12	Diciembre	2023-02-12T00:00:00	2024-11-08T17:00:00	5	Humedad	60
162685	7	Sololá	713	San Lucas Tolimán	10	San Lucas Tolimán	12	Diciembre	2023-02-12T00:00:00	2024-11-08T17:00:00	6	Velocidad del viento	8
162686	7	Sololá	713	San Lucas Tolimán	10	San Lucas Tolimán	12	Diciembre	2023-02-12T00:00:00	2024-11-08T17:00:00	7	Dirección del viento	8.05
162687	7	Sololá	713	San Lucas Tolimán	10	San Lucas Tolimán	12	Diciembre	2023-02-12T00:00:00	2024-11-08T17:00:00	1	Precipitación	0
162688	7	Sololá	713	San Lucas Tolimán	10	San Lucas Tolimán	12	Diciembre	2023-02-12T00:00:00	2024-11-08T17:00:00	8	Radiación solar	58
162689	7	Sololá	713	San Lucas Tolimán	10	San Lucas Tolimán	12	Diciembre	2023-02-12T00:00:00	2024-11-08T18:00:00	2	Temperatura media	19.6
162690	7	Sololá	713	San Lucas Tolimán	10	San Lucas Tolimán	12	Diciembre	2023-02-12T00:00:00	2024-11-08T18:00:00	4	Temperatura máxima	20.1
162691	7	Sololá	713	San Lucas Tolimán	10	San Lucas Tolimán	12	Diciembre	2023-02-12T00:00:00	2024-11-08T18:00:00	3	Temperatura mínima	19.6
162692	7	Sololá	713	San Lucas Tolimán	10	San Lucas Tolimán	12	Diciembre	2023-02-12T00:00:00	2024-11-08T18:00:00	5	Humedad	60
162693	7	Sololá	713	San Lucas Tolimán	10	San Lucas Tolimán	12	Diciembre	2023-02-12T00:00:00	2024-11-08T18:00:00	6	Velocidad del viento	6.4
162694	7	Sololá	713	San Lucas Tolimán	10	San Lucas Tolimán	12	Diciembre	2023-02-12T00:00:00	2024-11-08T18:00:00	7	Dirección del viento	6.44
162695	7	Sololá	713	San Lucas Tolimán	10	San Lucas Tolimán	12	Diciembre	2023-02-12T00:00:00	2024-11-08T18:00:00	1	Precipitación	0
162696	7	Sololá	713	San Lucas Tolimán	10	San Lucas Tolimán	12	Diciembre	2023-02-12T00:00:00	2024-11-08T18:00:00	8	Radiación solar	7
162697	7	Sololá	713	San Lucas Tolimán	10	San Lucas Tolimán	12	Diciembre	2023-02-12T00:00:00	2024-11-08T19:00:00	2	Temperatura media	18.9
162698	7	Sololá	713	San Lucas Tolimán	10	San Lucas Tolimán	12	Diciembre	2023-02-12T00:00:00	2024-11-08T19:00:00	4	Temperatura máxima	19.6
162699	7	Sololá	713	San Lucas Tolimán	10	San Lucas Tolimán	12	Diciembre	2023-02-12T00:00:00	2024-11-08T19:00:00	3	Temperatura mínima	18.9
162700	7	Sololá	713	San Lucas Tolimán	10	San Lucas Tolimán	12	Diciembre	2023-02-12T00:00:00	2024-11-08T19:00:00	5	Humedad	60
162701	7	Sololá	713	San Lucas Tolimán	10	San Lucas Tolimán	12	Diciembre	2023-02-12T00:00:00	2024-11-08T19:00:00	6	Velocidad del viento	4.8
162702	7	Sololá	713	San Lucas Tolimán	10	San Lucas Tolimán	12	Diciembre	2023-02-12T00:00:00	2024-11-08T19:00:00	7	Dirección del viento	4.83
162703	7	Sololá	713	San Lucas Tolimán	10	San Lucas Tolimán	12	Diciembre	2023-02-12T00:00:00	2024-11-08T19:00:00	1	Precipitación	0
162704	7	Sololá	713	San Lucas Tolimán	10	San Lucas Tolimán	12	Diciembre	2023-02-12T00:00:00	2024-11-08T19:00:00	8	Radiación solar	0
162705	7	Sololá	713	San Lucas Tolimán	10	San Lucas Tolimán	12	Diciembre	2023-02-12T00:00:00	2024-11-08T20:00:00	2	Temperatura media	18.1
162706	7	Sololá	713	San Lucas Tolimán	10	San Lucas Tolimán	12	Diciembre	2023-02-12T00:00:00	2024-11-08T20:00:00	4	Temperatura máxima	18.9
162707	7	Sololá	713	San Lucas Tolimán	10	San Lucas Tolimán	12	Diciembre	2023-02-12T00:00:00	2024-11-08T20:00:00	3	Temperatura mínima	18.1
162708	7	Sololá	713	San Lucas Tolimán	10	San Lucas Tolimán	12	Diciembre	2023-02-12T00:00:00	2024-11-08T20:00:00	5	Humedad	59
162709	7	Sololá	713	San Lucas Tolimán	10	San Lucas Tolimán	12	Diciembre	2023-02-12T00:00:00	2024-11-08T20:00:00	6	Velocidad del viento	1.6
162710	7	Sololá	713	San Lucas Tolimán	10	San Lucas Tolimán	12	Diciembre	2023-02-12T00:00:00	2024-11-08T20:00:00	7	Dirección del viento	1.61
162711	7	Sololá	713	San Lucas Tolimán	10	San Lucas Tolimán	12	Diciembre	2023-02-12T00:00:00	2024-11-08T20:00:00	1	Precipitación	0
162712	7	Sololá	713	San Lucas Tolimán	10	San Lucas Tolimán	12	Diciembre	2023-02-12T00:00:00	2024-11-08T20:00:00	8	Radiación solar	0
162713	7	Sololá	713	San Lucas Tolimán	10	San Lucas Tolimán	12	Diciembre	2023-02-12T00:00:00	2024-11-08T21:00:00	2	Temperatura media	18.1
162714	7	Sololá	713	San Lucas Tolimán	10	San Lucas Tolimán	12	Diciembre	2023-02-12T00:00:00	2024-11-08T21:00:00	4	Temperatura máxima	18.3
162715	7	Sololá	713	San Lucas Tolimán	10	San Lucas Tolimán	12	Diciembre	2023-02-12T00:00:00	2024-11-08T21:00:00	3	Temperatura mínima	18.1
162716	7	Sololá	713	San Lucas Tolimán	10	San Lucas Tolimán	12	Diciembre	2023-02-12T00:00:00	2024-11-08T21:00:00	5	Humedad	59
162717	7	Sololá	713	San Lucas Tolimán	10	San Lucas Tolimán	12	Diciembre	2023-02-12T00:00:00	2024-11-08T21:00:00	6	Velocidad del viento	0
162718	7	Sololá	713	San Lucas Tolimán	10	San Lucas Tolimán	12	Diciembre	2023-02-12T00:00:00	2024-11-08T21:00:00	7	Dirección del viento	0
162719	7	Sololá	713	San Lucas Tolimán	10	San Lucas Tolimán	12	Diciembre	2023-02-12T00:00:00	2024-11-08T21:00:00	1	Precipitación	0
162720	7	Sololá	713	San Lucas Tolimán	10	San Lucas Tolimán	12	Diciembre	2023-02-12T00:00:00	2024-11-08T21:00:00	8	Radiación solar	0
162721	7	Sololá	713	San Lucas Tolimán	10	San Lucas Tolimán	12	Diciembre	2023-02-12T00:00:00	2024-11-08T22:00:00	2	Temperatura media	17.3
162722	7	Sololá	713	San Lucas Tolimán	10	San Lucas Tolimán	12	Diciembre	2023-02-12T00:00:00	2024-11-08T22:00:00	4	Temperatura máxima	18.1
162723	7	Sololá	713	San Lucas Tolimán	10	San Lucas Tolimán	12	Diciembre	2023-02-12T00:00:00	2024-11-08T22:00:00	3	Temperatura mínima	17.3
162724	7	Sololá	713	San Lucas Tolimán	10	San Lucas Tolimán	12	Diciembre	2023-02-12T00:00:00	2024-11-08T22:00:00	5	Humedad	58
162725	7	Sololá	713	San Lucas Tolimán	10	San Lucas Tolimán	12	Diciembre	2023-02-12T00:00:00	2024-11-08T22:00:00	6	Velocidad del viento	0
162726	7	Sololá	713	San Lucas Tolimán	10	San Lucas Tolimán	12	Diciembre	2023-02-12T00:00:00	2024-11-08T22:00:00	7	Dirección del viento	0
162727	7	Sololá	713	San Lucas Tolimán	10	San Lucas Tolimán	12	Diciembre	2023-02-12T00:00:00	2024-11-08T22:00:00	1	Precipitación	0
162728	7	Sololá	713	San Lucas Tolimán	10	San Lucas Tolimán	12	Diciembre	2023-02-12T00:00:00	2024-11-08T22:00:00	8	Radiación solar	0
162729	7	Sololá	713	San Lucas Tolimán	10	San Lucas Tolimán	12	Diciembre	2023-02-12T00:00:00	2024-11-08T23:00:00	2	Temperatura media	18
162730	7	Sololá	713	San Lucas Tolimán	10	San Lucas Tolimán	12	Diciembre	2023-02-12T00:00:00	2024-11-08T23:00:00	4	Temperatura máxima	18.1
162731	7	Sololá	713	San Lucas Tolimán	10	San Lucas Tolimán	12	Diciembre	2023-02-12T00:00:00	2024-11-08T23:00:00	3	Temperatura mínima	17.1
162732	7	Sololá	713	San Lucas Tolimán	10	San Lucas Tolimán	12	Diciembre	2023-02-12T00:00:00	2024-11-08T23:00:00	5	Humedad	56
162733	7	Sololá	713	San Lucas Tolimán	10	San Lucas Tolimán	12	Diciembre	2023-02-12T00:00:00	2024-11-08T23:00:00	6	Velocidad del viento	3.2
162734	7	Sololá	713	San Lucas Tolimán	10	San Lucas Tolimán	12	Diciembre	2023-02-12T00:00:00	2024-11-08T23:00:00	7	Dirección del viento	3.22
162735	7	Sololá	713	San Lucas Tolimán	10	San Lucas Tolimán	12	Diciembre	2023-02-12T00:00:00	2024-11-08T23:00:00	1	Precipitación	0
162736	7	Sololá	713	San Lucas Tolimán	10	San Lucas Tolimán	12	Diciembre	2023-02-12T00:00:00	2024-11-08T23:00:00	8	Radiación solar	0
162737	7	Sololá	713	San Lucas Tolimán	10	San Lucas Tolimán	12	Diciembre	2023-03-12T00:00:00	2024-11-08T00:00:00	2	Temperatura media	15.8
162738	7	Sololá	713	San Lucas Tolimán	10	San Lucas Tolimán	12	Diciembre	2023-03-12T00:00:00	2024-11-08T00:00:00	4	Temperatura máxima	18.2
162739	7	Sololá	713	San Lucas Tolimán	10	San Lucas Tolimán	12	Diciembre	2023-03-12T00:00:00	2024-11-08T00:00:00	3	Temperatura mínima	15.7
162740	7	Sololá	713	San Lucas Tolimán	10	San Lucas Tolimán	12	Diciembre	2023-03-12T00:00:00	2024-11-08T00:00:00	5	Humedad	60
162741	7	Sololá	713	San Lucas Tolimán	10	San Lucas Tolimán	12	Diciembre	2023-03-12T00:00:00	2024-11-08T00:00:00	6	Velocidad del viento	1.6
162742	7	Sololá	713	San Lucas Tolimán	10	San Lucas Tolimán	12	Diciembre	2023-03-12T00:00:00	2024-11-08T00:00:00	7	Dirección del viento	1.61
162743	7	Sololá	713	San Lucas Tolimán	10	San Lucas Tolimán	12	Diciembre	2023-03-12T00:00:00	2024-11-08T00:00:00	1	Precipitación	0
162744	7	Sololá	713	San Lucas Tolimán	10	San Lucas Tolimán	12	Diciembre	2023-03-12T00:00:00	2024-11-08T00:00:00	8	Radiación solar	0
162745	7	Sololá	713	San Lucas Tolimán	10	San Lucas Tolimán	12	Diciembre	2023-03-12T00:00:00	2024-11-08T01:00:00	2	Temperatura media	17.1
162746	7	Sololá	713	San Lucas Tolimán	10	San Lucas Tolimán	12	Diciembre	2023-03-12T00:00:00	2024-11-08T01:00:00	4	Temperatura máxima	17.1
162747	7	Sololá	713	San Lucas Tolimán	10	San Lucas Tolimán	12	Diciembre	2023-03-12T00:00:00	2024-11-08T01:00:00	3	Temperatura mínima	15.8
162748	7	Sololá	713	San Lucas Tolimán	10	San Lucas Tolimán	12	Diciembre	2023-03-12T00:00:00	2024-11-08T01:00:00	5	Humedad	56
162749	7	Sololá	713	San Lucas Tolimán	10	San Lucas Tolimán	12	Diciembre	2023-03-12T00:00:00	2024-11-08T01:00:00	6	Velocidad del viento	0
162750	7	Sololá	713	San Lucas Tolimán	10	San Lucas Tolimán	12	Diciembre	2023-03-12T00:00:00	2024-11-08T01:00:00	7	Dirección del viento	0
162751	7	Sololá	713	San Lucas Tolimán	10	San Lucas Tolimán	12	Diciembre	2023-03-12T00:00:00	2024-11-08T01:00:00	1	Precipitación	0
162752	7	Sololá	713	San Lucas Tolimán	10	San Lucas Tolimán	12	Diciembre	2023-03-12T00:00:00	2024-11-08T01:00:00	8	Radiación solar	0
162753	7	Sololá	713	San Lucas Tolimán	10	San Lucas Tolimán	12	Diciembre	2023-03-12T00:00:00	2024-11-08T02:00:00	2	Temperatura media	16.9
162754	7	Sololá	713	San Lucas Tolimán	10	San Lucas Tolimán	12	Diciembre	2023-03-12T00:00:00	2024-11-08T02:00:00	4	Temperatura máxima	17.4
162755	7	Sololá	713	San Lucas Tolimán	10	San Lucas Tolimán	12	Diciembre	2023-03-12T00:00:00	2024-11-08T02:00:00	3	Temperatura mínima	16.9
162756	7	Sololá	713	San Lucas Tolimán	10	San Lucas Tolimán	12	Diciembre	2023-03-12T00:00:00	2024-11-08T02:00:00	5	Humedad	57
162757	7	Sololá	713	San Lucas Tolimán	10	San Lucas Tolimán	12	Diciembre	2023-03-12T00:00:00	2024-11-08T02:00:00	6	Velocidad del viento	1.6
162758	7	Sololá	713	San Lucas Tolimán	10	San Lucas Tolimán	12	Diciembre	2023-03-12T00:00:00	2024-11-08T02:00:00	7	Dirección del viento	1.61
162759	7	Sololá	713	San Lucas Tolimán	10	San Lucas Tolimán	12	Diciembre	2023-03-12T00:00:00	2024-11-08T02:00:00	1	Precipitación	0
162760	7	Sololá	713	San Lucas Tolimán	10	San Lucas Tolimán	12	Diciembre	2023-03-12T00:00:00	2024-11-08T02:00:00	8	Radiación solar	0
162761	7	Sololá	713	San Lucas Tolimán	10	San Lucas Tolimán	12	Diciembre	2023-03-12T00:00:00	2024-11-08T03:00:00	2	Temperatura media	16.7
162762	7	Sololá	713	San Lucas Tolimán	10	San Lucas Tolimán	12	Diciembre	2023-03-12T00:00:00	2024-11-08T03:00:00	4	Temperatura máxima	17
162763	7	Sololá	713	San Lucas Tolimán	10	San Lucas Tolimán	12	Diciembre	2023-03-12T00:00:00	2024-11-08T03:00:00	3	Temperatura mínima	16.7
162764	7	Sololá	713	San Lucas Tolimán	10	San Lucas Tolimán	12	Diciembre	2023-03-12T00:00:00	2024-11-08T03:00:00	5	Humedad	56
162765	7	Sololá	713	San Lucas Tolimán	10	San Lucas Tolimán	12	Diciembre	2023-03-12T00:00:00	2024-11-08T03:00:00	6	Velocidad del viento	3.2
162766	7	Sololá	713	San Lucas Tolimán	10	San Lucas Tolimán	12	Diciembre	2023-03-12T00:00:00	2024-11-08T03:00:00	7	Dirección del viento	3.22
162767	7	Sololá	713	San Lucas Tolimán	10	San Lucas Tolimán	12	Diciembre	2023-03-12T00:00:00	2024-11-08T03:00:00	1	Precipitación	0
162768	7	Sololá	713	San Lucas Tolimán	10	San Lucas Tolimán	12	Diciembre	2023-03-12T00:00:00	2024-11-08T03:00:00	8	Radiación solar	0
162769	7	Sololá	713	San Lucas Tolimán	10	San Lucas Tolimán	12	Diciembre	2023-03-12T00:00:00	2024-11-08T04:00:00	2	Temperatura media	15.8
162770	7	Sololá	713	San Lucas Tolimán	10	San Lucas Tolimán	12	Diciembre	2023-03-12T00:00:00	2024-11-08T04:00:00	4	Temperatura máxima	16.6
162771	7	Sololá	713	San Lucas Tolimán	10	San Lucas Tolimán	12	Diciembre	2023-03-12T00:00:00	2024-11-08T04:00:00	3	Temperatura mínima	15.8
162772	7	Sololá	713	San Lucas Tolimán	10	San Lucas Tolimán	12	Diciembre	2023-03-12T00:00:00	2024-11-08T04:00:00	5	Humedad	58
162773	7	Sololá	713	San Lucas Tolimán	10	San Lucas Tolimán	12	Diciembre	2023-03-12T00:00:00	2024-11-08T04:00:00	6	Velocidad del viento	3.2
162774	7	Sololá	713	San Lucas Tolimán	10	San Lucas Tolimán	12	Diciembre	2023-03-12T00:00:00	2024-11-08T04:00:00	7	Dirección del viento	3.22
162775	7	Sololá	713	San Lucas Tolimán	10	San Lucas Tolimán	12	Diciembre	2023-03-12T00:00:00	2024-11-08T04:00:00	1	Precipitación	0
162776	7	Sololá	713	San Lucas Tolimán	10	San Lucas Tolimán	12	Diciembre	2023-03-12T00:00:00	2024-11-08T04:00:00	8	Radiación solar	0
162777	7	Sololá	713	San Lucas Tolimán	10	San Lucas Tolimán	12	Diciembre	2023-03-12T00:00:00	2024-11-08T05:00:00	2	Temperatura media	15.1
162778	7	Sololá	713	San Lucas Tolimán	10	San Lucas Tolimán	12	Diciembre	2023-03-12T00:00:00	2024-11-08T05:00:00	4	Temperatura máxima	15.8
162779	7	Sololá	713	San Lucas Tolimán	10	San Lucas Tolimán	12	Diciembre	2023-03-12T00:00:00	2024-11-08T05:00:00	3	Temperatura mínima	15.1
162780	7	Sololá	713	San Lucas Tolimán	10	San Lucas Tolimán	12	Diciembre	2023-03-12T00:00:00	2024-11-08T05:00:00	5	Humedad	58
162781	7	Sololá	713	San Lucas Tolimán	10	San Lucas Tolimán	12	Diciembre	2023-03-12T00:00:00	2024-11-08T05:00:00	6	Velocidad del viento	1.6
162782	7	Sololá	713	San Lucas Tolimán	10	San Lucas Tolimán	12	Diciembre	2023-03-12T00:00:00	2024-11-08T05:00:00	7	Dirección del viento	1.61
162783	7	Sololá	713	San Lucas Tolimán	10	San Lucas Tolimán	12	Diciembre	2023-03-12T00:00:00	2024-11-08T05:00:00	1	Precipitación	0
162784	7	Sololá	713	San Lucas Tolimán	10	San Lucas Tolimán	12	Diciembre	2023-03-12T00:00:00	2024-11-08T05:00:00	8	Radiación solar	0
162785	7	Sololá	713	San Lucas Tolimán	10	San Lucas Tolimán	12	Diciembre	2023-03-12T00:00:00	2024-11-08T06:00:00	2	Temperatura media	14.8
162786	7	Sololá	713	San Lucas Tolimán	10	San Lucas Tolimán	12	Diciembre	2023-03-12T00:00:00	2024-11-08T06:00:00	4	Temperatura máxima	15.3
162787	7	Sololá	713	San Lucas Tolimán	10	San Lucas Tolimán	12	Diciembre	2023-03-12T00:00:00	2024-11-08T06:00:00	3	Temperatura mínima	14.8
162788	7	Sololá	713	San Lucas Tolimán	10	San Lucas Tolimán	12	Diciembre	2023-03-12T00:00:00	2024-11-08T06:00:00	5	Humedad	57
162789	7	Sololá	713	San Lucas Tolimán	10	San Lucas Tolimán	12	Diciembre	2023-03-12T00:00:00	2024-11-08T06:00:00	6	Velocidad del viento	1.6
162790	7	Sololá	713	San Lucas Tolimán	10	San Lucas Tolimán	12	Diciembre	2023-03-12T00:00:00	2024-11-08T06:00:00	7	Dirección del viento	1.61
162791	7	Sololá	713	San Lucas Tolimán	10	San Lucas Tolimán	12	Diciembre	2023-03-12T00:00:00	2024-11-08T06:00:00	1	Precipitación	0
162792	7	Sololá	713	San Lucas Tolimán	10	San Lucas Tolimán	12	Diciembre	2023-03-12T00:00:00	2024-11-08T06:00:00	8	Radiación solar	0
162793	7	Sololá	713	San Lucas Tolimán	10	San Lucas Tolimán	12	Diciembre	2023-03-12T00:00:00	2024-11-08T07:00:00	2	Temperatura media	14.9
162794	7	Sololá	713	San Lucas Tolimán	10	San Lucas Tolimán	12	Diciembre	2023-03-12T00:00:00	2024-11-08T07:00:00	4	Temperatura máxima	15.2
162795	7	Sololá	713	San Lucas Tolimán	10	San Lucas Tolimán	12	Diciembre	2023-03-12T00:00:00	2024-11-08T07:00:00	3	Temperatura mínima	14.7
162796	7	Sololá	713	San Lucas Tolimán	10	San Lucas Tolimán	12	Diciembre	2023-03-12T00:00:00	2024-11-08T07:00:00	5	Humedad	57
162797	7	Sololá	713	San Lucas Tolimán	10	San Lucas Tolimán	12	Diciembre	2023-03-12T00:00:00	2024-11-08T07:00:00	6	Velocidad del viento	1.6
162798	7	Sololá	713	San Lucas Tolimán	10	San Lucas Tolimán	12	Diciembre	2023-03-12T00:00:00	2024-11-08T07:00:00	7	Dirección del viento	1.61
162799	7	Sololá	713	San Lucas Tolimán	10	San Lucas Tolimán	12	Diciembre	2023-03-12T00:00:00	2024-11-08T07:00:00	1	Precipitación	0
162800	7	Sololá	713	San Lucas Tolimán	10	San Lucas Tolimán	12	Diciembre	2023-03-12T00:00:00	2024-11-08T07:00:00	8	Radiación solar	8
162801	7	Sololá	713	San Lucas Tolimán	10	San Lucas Tolimán	12	Diciembre	2023-03-12T00:00:00	2024-11-08T08:00:00	2	Temperatura media	16.4
162802	7	Sololá	713	San Lucas Tolimán	10	San Lucas Tolimán	12	Diciembre	2023-03-12T00:00:00	2024-11-08T08:00:00	4	Temperatura máxima	16.4
162803	7	Sololá	713	San Lucas Tolimán	10	San Lucas Tolimán	12	Diciembre	2023-03-12T00:00:00	2024-11-08T08:00:00	3	Temperatura mínima	14.9
162804	7	Sololá	713	San Lucas Tolimán	10	San Lucas Tolimán	12	Diciembre	2023-03-12T00:00:00	2024-11-08T08:00:00	5	Humedad	56
162805	7	Sololá	713	San Lucas Tolimán	10	San Lucas Tolimán	12	Diciembre	2023-03-12T00:00:00	2024-11-08T08:00:00	6	Velocidad del viento	3.2
162806	7	Sololá	713	San Lucas Tolimán	10	San Lucas Tolimán	12	Diciembre	2023-03-12T00:00:00	2024-11-08T08:00:00	7	Dirección del viento	3.22
162807	7	Sololá	713	San Lucas Tolimán	10	San Lucas Tolimán	12	Diciembre	2023-03-12T00:00:00	2024-11-08T08:00:00	1	Precipitación	0
162808	7	Sololá	713	San Lucas Tolimán	10	San Lucas Tolimán	12	Diciembre	2023-03-12T00:00:00	2024-11-08T08:00:00	8	Radiación solar	22
162809	7	Sololá	713	San Lucas Tolimán	10	San Lucas Tolimán	12	Diciembre	2023-03-12T00:00:00	2024-11-08T09:00:00	2	Temperatura media	19.7
162810	7	Sololá	713	San Lucas Tolimán	10	San Lucas Tolimán	12	Diciembre	2023-03-12T00:00:00	2024-11-08T09:00:00	4	Temperatura máxima	19.7
162811	7	Sololá	713	San Lucas Tolimán	10	San Lucas Tolimán	12	Diciembre	2023-03-12T00:00:00	2024-11-08T09:00:00	3	Temperatura mínima	16.3
162812	7	Sololá	713	San Lucas Tolimán	10	San Lucas Tolimán	12	Diciembre	2023-03-12T00:00:00	2024-11-08T09:00:00	5	Humedad	52
162813	7	Sololá	713	San Lucas Tolimán	10	San Lucas Tolimán	12	Diciembre	2023-03-12T00:00:00	2024-11-08T09:00:00	6	Velocidad del viento	4.8
162814	7	Sololá	713	San Lucas Tolimán	10	San Lucas Tolimán	12	Diciembre	2023-03-12T00:00:00	2024-11-08T09:00:00	7	Dirección del viento	4.83
162815	7	Sololá	713	San Lucas Tolimán	10	San Lucas Tolimán	12	Diciembre	2023-03-12T00:00:00	2024-11-08T09:00:00	1	Precipitación	0
162816	7	Sololá	713	San Lucas Tolimán	10	San Lucas Tolimán	12	Diciembre	2023-03-12T00:00:00	2024-11-08T09:00:00	8	Radiación solar	371
162817	7	Sololá	713	San Lucas Tolimán	10	San Lucas Tolimán	12	Diciembre	2023-03-12T00:00:00	2024-11-08T10:00:00	2	Temperatura media	21.3
162818	7	Sololá	713	San Lucas Tolimán	10	San Lucas Tolimán	12	Diciembre	2023-03-12T00:00:00	2024-11-08T10:00:00	4	Temperatura máxima	22.2
162819	7	Sololá	713	San Lucas Tolimán	10	San Lucas Tolimán	12	Diciembre	2023-03-12T00:00:00	2024-11-08T10:00:00	3	Temperatura mínima	19.7
162820	7	Sololá	713	San Lucas Tolimán	10	San Lucas Tolimán	12	Diciembre	2023-03-12T00:00:00	2024-11-08T10:00:00	5	Humedad	51
162821	7	Sololá	713	San Lucas Tolimán	10	San Lucas Tolimán	12	Diciembre	2023-03-12T00:00:00	2024-11-08T10:00:00	6	Velocidad del viento	4.8
162822	7	Sololá	713	San Lucas Tolimán	10	San Lucas Tolimán	12	Diciembre	2023-03-12T00:00:00	2024-11-08T10:00:00	7	Dirección del viento	4.83
162823	7	Sololá	713	San Lucas Tolimán	10	San Lucas Tolimán	12	Diciembre	2023-03-12T00:00:00	2024-11-08T10:00:00	1	Precipitación	0
162824	7	Sololá	713	San Lucas Tolimán	10	San Lucas Tolimán	12	Diciembre	2023-03-12T00:00:00	2024-11-08T10:00:00	8	Radiación solar	627
162825	7	Sololá	713	San Lucas Tolimán	10	San Lucas Tolimán	12	Diciembre	2023-03-12T00:00:00	2024-11-08T11:00:00	2	Temperatura media	24.4
162826	7	Sololá	713	San Lucas Tolimán	10	San Lucas Tolimán	12	Diciembre	2023-03-12T00:00:00	2024-11-08T11:00:00	4	Temperatura máxima	24.6
162827	7	Sololá	713	San Lucas Tolimán	10	San Lucas Tolimán	12	Diciembre	2023-03-12T00:00:00	2024-11-08T11:00:00	3	Temperatura mínima	21.3
162828	7	Sololá	713	San Lucas Tolimán	10	San Lucas Tolimán	12	Diciembre	2023-03-12T00:00:00	2024-11-08T11:00:00	5	Humedad	51
162829	7	Sololá	713	San Lucas Tolimán	10	San Lucas Tolimán	12	Diciembre	2023-03-12T00:00:00	2024-11-08T11:00:00	6	Velocidad del viento	6.4
162830	7	Sololá	713	San Lucas Tolimán	10	San Lucas Tolimán	12	Diciembre	2023-03-12T00:00:00	2024-11-08T11:00:00	7	Dirección del viento	6.44
162831	7	Sololá	713	San Lucas Tolimán	10	San Lucas Tolimán	12	Diciembre	2023-03-12T00:00:00	2024-11-08T11:00:00	1	Precipitación	0
162832	7	Sololá	713	San Lucas Tolimán	10	San Lucas Tolimán	12	Diciembre	2023-03-12T00:00:00	2024-11-08T11:00:00	8	Radiación solar	775
162833	7	Sololá	713	San Lucas Tolimán	10	San Lucas Tolimán	12	Diciembre	2023-03-12T00:00:00	2024-11-08T12:00:00	2	Temperatura media	23.8
162834	7	Sololá	713	San Lucas Tolimán	10	San Lucas Tolimán	12	Diciembre	2023-03-12T00:00:00	2024-11-08T12:00:00	4	Temperatura máxima	24.6
162835	7	Sololá	713	San Lucas Tolimán	10	San Lucas Tolimán	12	Diciembre	2023-03-12T00:00:00	2024-11-08T12:00:00	3	Temperatura mínima	23.7
162836	7	Sololá	713	San Lucas Tolimán	10	San Lucas Tolimán	12	Diciembre	2023-03-12T00:00:00	2024-11-08T12:00:00	5	Humedad	55
162837	7	Sololá	713	San Lucas Tolimán	10	San Lucas Tolimán	12	Diciembre	2023-03-12T00:00:00	2024-11-08T12:00:00	6	Velocidad del viento	9.7
162838	7	Sololá	713	San Lucas Tolimán	10	San Lucas Tolimán	12	Diciembre	2023-03-12T00:00:00	2024-11-08T12:00:00	7	Dirección del viento	9.66
162839	7	Sololá	713	San Lucas Tolimán	10	San Lucas Tolimán	12	Diciembre	2023-03-12T00:00:00	2024-11-08T12:00:00	1	Precipitación	0
162840	7	Sololá	713	San Lucas Tolimán	10	San Lucas Tolimán	12	Diciembre	2023-03-12T00:00:00	2024-11-08T12:00:00	8	Radiación solar	856
162841	7	Sololá	713	San Lucas Tolimán	10	San Lucas Tolimán	12	Diciembre	2023-03-12T00:00:00	2024-11-08T13:00:00	2	Temperatura media	23.6
162842	7	Sololá	713	San Lucas Tolimán	10	San Lucas Tolimán	12	Diciembre	2023-03-12T00:00:00	2024-11-08T13:00:00	4	Temperatura máxima	23.9
162843	7	Sololá	713	San Lucas Tolimán	10	San Lucas Tolimán	12	Diciembre	2023-03-12T00:00:00	2024-11-08T13:00:00	3	Temperatura mínima	23.4
162844	7	Sololá	713	San Lucas Tolimán	10	San Lucas Tolimán	12	Diciembre	2023-03-12T00:00:00	2024-11-08T13:00:00	5	Humedad	56
162845	7	Sololá	713	San Lucas Tolimán	10	San Lucas Tolimán	12	Diciembre	2023-03-12T00:00:00	2024-11-08T13:00:00	6	Velocidad del viento	11.3
162846	7	Sololá	713	San Lucas Tolimán	10	San Lucas Tolimán	12	Diciembre	2023-03-12T00:00:00	2024-11-08T13:00:00	7	Dirección del viento	11.27
162847	7	Sololá	713	San Lucas Tolimán	10	San Lucas Tolimán	12	Diciembre	2023-03-12T00:00:00	2024-11-08T13:00:00	1	Precipitación	0
162848	7	Sololá	713	San Lucas Tolimán	10	San Lucas Tolimán	12	Diciembre	2023-03-12T00:00:00	2024-11-08T13:00:00	8	Radiación solar	847
162849	7	Sololá	713	San Lucas Tolimán	10	San Lucas Tolimán	12	Diciembre	2023-03-12T00:00:00	2024-11-08T14:00:00	2	Temperatura media	23
162850	7	Sololá	713	San Lucas Tolimán	10	San Lucas Tolimán	12	Diciembre	2023-03-12T00:00:00	2024-11-08T14:00:00	4	Temperatura máxima	24.2
162851	7	Sololá	713	San Lucas Tolimán	10	San Lucas Tolimán	12	Diciembre	2023-03-12T00:00:00	2024-11-08T14:00:00	3	Temperatura mínima	23
162852	7	Sololá	713	San Lucas Tolimán	10	San Lucas Tolimán	12	Diciembre	2023-03-12T00:00:00	2024-11-08T14:00:00	5	Humedad	58
162853	7	Sololá	713	San Lucas Tolimán	10	San Lucas Tolimán	12	Diciembre	2023-03-12T00:00:00	2024-11-08T14:00:00	6	Velocidad del viento	11.3
162854	7	Sololá	713	San Lucas Tolimán	10	San Lucas Tolimán	12	Diciembre	2023-03-12T00:00:00	2024-11-08T14:00:00	7	Dirección del viento	11.27
162855	7	Sololá	713	San Lucas Tolimán	10	San Lucas Tolimán	12	Diciembre	2023-03-12T00:00:00	2024-11-08T14:00:00	1	Precipitación	0
162856	7	Sololá	713	San Lucas Tolimán	10	San Lucas Tolimán	12	Diciembre	2023-03-12T00:00:00	2024-11-08T14:00:00	8	Radiación solar	742
162857	7	Sololá	713	San Lucas Tolimán	10	San Lucas Tolimán	12	Diciembre	2023-03-12T00:00:00	2024-11-08T15:00:00	2	Temperatura media	22.6
162858	7	Sololá	713	San Lucas Tolimán	10	San Lucas Tolimán	12	Diciembre	2023-03-12T00:00:00	2024-11-08T15:00:00	4	Temperatura máxima	23.7
162859	7	Sololá	713	San Lucas Tolimán	10	San Lucas Tolimán	12	Diciembre	2023-03-12T00:00:00	2024-11-08T15:00:00	3	Temperatura mínima	22.6
162860	7	Sololá	713	San Lucas Tolimán	10	San Lucas Tolimán	12	Diciembre	2023-03-12T00:00:00	2024-11-08T15:00:00	5	Humedad	60
162861	7	Sololá	713	San Lucas Tolimán	10	San Lucas Tolimán	12	Diciembre	2023-03-12T00:00:00	2024-11-08T15:00:00	6	Velocidad del viento	9.7
162862	7	Sololá	713	San Lucas Tolimán	10	San Lucas Tolimán	12	Diciembre	2023-03-12T00:00:00	2024-11-08T15:00:00	7	Dirección del viento	9.66
162863	7	Sololá	713	San Lucas Tolimán	10	San Lucas Tolimán	12	Diciembre	2023-03-12T00:00:00	2024-11-08T15:00:00	1	Precipitación	0
162864	7	Sololá	713	San Lucas Tolimán	10	San Lucas Tolimán	12	Diciembre	2023-03-12T00:00:00	2024-11-08T15:00:00	8	Radiación solar	570
162865	7	Sololá	713	San Lucas Tolimán	10	San Lucas Tolimán	12	Diciembre	2023-03-12T00:00:00	2024-11-08T16:00:00	2	Temperatura media	22.4
162866	7	Sololá	713	San Lucas Tolimán	10	San Lucas Tolimán	12	Diciembre	2023-03-12T00:00:00	2024-11-08T16:00:00	4	Temperatura máxima	22.9
162867	7	Sololá	713	San Lucas Tolimán	10	San Lucas Tolimán	12	Diciembre	2023-03-12T00:00:00	2024-11-08T16:00:00	3	Temperatura mínima	22.2
162868	7	Sololá	713	San Lucas Tolimán	10	San Lucas Tolimán	12	Diciembre	2023-03-12T00:00:00	2024-11-08T16:00:00	5	Humedad	60
162869	7	Sololá	713	San Lucas Tolimán	10	San Lucas Tolimán	12	Diciembre	2023-03-12T00:00:00	2024-11-08T16:00:00	6	Velocidad del viento	8
162870	7	Sololá	713	San Lucas Tolimán	10	San Lucas Tolimán	12	Diciembre	2023-03-12T00:00:00	2024-11-08T16:00:00	7	Dirección del viento	8.05
162871	7	Sololá	713	San Lucas Tolimán	10	San Lucas Tolimán	12	Diciembre	2023-03-12T00:00:00	2024-11-08T16:00:00	1	Precipitación	0
162872	7	Sololá	713	San Lucas Tolimán	10	San Lucas Tolimán	12	Diciembre	2023-03-12T00:00:00	2024-11-08T16:00:00	8	Radiación solar	370
162873	7	Sololá	713	San Lucas Tolimán	10	San Lucas Tolimán	12	Diciembre	2023-03-12T00:00:00	2024-11-08T17:00:00	2	Temperatura media	20.4
162874	7	Sololá	713	San Lucas Tolimán	10	San Lucas Tolimán	12	Diciembre	2023-03-12T00:00:00	2024-11-08T17:00:00	4	Temperatura máxima	22.6
162875	7	Sololá	713	San Lucas Tolimán	10	San Lucas Tolimán	12	Diciembre	2023-03-12T00:00:00	2024-11-08T17:00:00	3	Temperatura mínima	20.4
162876	7	Sololá	713	San Lucas Tolimán	10	San Lucas Tolimán	12	Diciembre	2023-03-12T00:00:00	2024-11-08T17:00:00	5	Humedad	60
162877	7	Sololá	713	San Lucas Tolimán	10	San Lucas Tolimán	12	Diciembre	2023-03-12T00:00:00	2024-11-08T17:00:00	6	Velocidad del viento	6.4
162878	7	Sololá	713	San Lucas Tolimán	10	San Lucas Tolimán	12	Diciembre	2023-03-12T00:00:00	2024-11-08T17:00:00	7	Dirección del viento	6.44
162879	7	Sololá	713	San Lucas Tolimán	10	San Lucas Tolimán	12	Diciembre	2023-03-12T00:00:00	2024-11-08T17:00:00	1	Precipitación	0
162880	7	Sololá	713	San Lucas Tolimán	10	San Lucas Tolimán	12	Diciembre	2023-03-12T00:00:00	2024-11-08T17:00:00	8	Radiación solar	119
162881	7	Sololá	713	San Lucas Tolimán	10	San Lucas Tolimán	12	Diciembre	2023-03-12T00:00:00	2024-11-08T18:00:00	2	Temperatura media	20.6
162882	7	Sololá	713	San Lucas Tolimán	10	San Lucas Tolimán	12	Diciembre	2023-03-12T00:00:00	2024-11-08T18:00:00	4	Temperatura máxima	20.6
162883	7	Sololá	713	San Lucas Tolimán	10	San Lucas Tolimán	12	Diciembre	2023-03-12T00:00:00	2024-11-08T18:00:00	3	Temperatura mínima	19.7
162884	7	Sololá	713	San Lucas Tolimán	10	San Lucas Tolimán	12	Diciembre	2023-03-12T00:00:00	2024-11-08T18:00:00	5	Humedad	55
162885	7	Sololá	713	San Lucas Tolimán	10	San Lucas Tolimán	12	Diciembre	2023-03-12T00:00:00	2024-11-08T18:00:00	6	Velocidad del viento	4.8
162886	7	Sololá	713	San Lucas Tolimán	10	San Lucas Tolimán	12	Diciembre	2023-03-12T00:00:00	2024-11-08T18:00:00	7	Dirección del viento	4.83
162887	7	Sololá	713	San Lucas Tolimán	10	San Lucas Tolimán	12	Diciembre	2023-03-12T00:00:00	2024-11-08T18:00:00	1	Precipitación	0
162888	7	Sololá	713	San Lucas Tolimán	10	San Lucas Tolimán	12	Diciembre	2023-03-12T00:00:00	2024-11-08T18:00:00	8	Radiación solar	8
162889	7	Sololá	713	San Lucas Tolimán	10	San Lucas Tolimán	12	Diciembre	2023-03-12T00:00:00	2024-11-08T19:00:00	2	Temperatura media	21.2
162890	7	Sololá	713	San Lucas Tolimán	10	San Lucas Tolimán	12	Diciembre	2023-03-12T00:00:00	2024-11-08T19:00:00	4	Temperatura máxima	21.6
162891	7	Sololá	713	San Lucas Tolimán	10	San Lucas Tolimán	12	Diciembre	2023-03-12T00:00:00	2024-11-08T19:00:00	3	Temperatura mínima	20.6
162892	7	Sololá	713	San Lucas Tolimán	10	San Lucas Tolimán	12	Diciembre	2023-03-12T00:00:00	2024-11-08T19:00:00	5	Humedad	52
162893	7	Sololá	713	San Lucas Tolimán	10	San Lucas Tolimán	12	Diciembre	2023-03-12T00:00:00	2024-11-08T19:00:00	6	Velocidad del viento	14.5
162894	7	Sololá	713	San Lucas Tolimán	10	San Lucas Tolimán	12	Diciembre	2023-03-12T00:00:00	2024-11-08T19:00:00	7	Dirección del viento	14.48
162895	7	Sololá	713	San Lucas Tolimán	10	San Lucas Tolimán	12	Diciembre	2023-03-12T00:00:00	2024-11-08T19:00:00	1	Precipitación	0
162896	7	Sololá	713	San Lucas Tolimán	10	San Lucas Tolimán	12	Diciembre	2023-03-12T00:00:00	2024-11-08T19:00:00	8	Radiación solar	0
162897	7	Sololá	713	San Lucas Tolimán	10	San Lucas Tolimán	12	Diciembre	2023-03-12T00:00:00	2024-11-08T20:00:00	2	Temperatura media	20.8
162898	7	Sololá	713	San Lucas Tolimán	10	San Lucas Tolimán	12	Diciembre	2023-03-12T00:00:00	2024-11-08T20:00:00	4	Temperatura máxima	21.2
162899	7	Sololá	713	San Lucas Tolimán	10	San Lucas Tolimán	12	Diciembre	2023-03-12T00:00:00	2024-11-08T20:00:00	3	Temperatura mínima	20.8
162900	7	Sololá	713	San Lucas Tolimán	10	San Lucas Tolimán	12	Diciembre	2023-03-12T00:00:00	2024-11-08T20:00:00	5	Humedad	52
162901	7	Sololá	713	San Lucas Tolimán	10	San Lucas Tolimán	12	Diciembre	2023-03-12T00:00:00	2024-11-08T20:00:00	6	Velocidad del viento	19.3
162902	7	Sololá	713	San Lucas Tolimán	10	San Lucas Tolimán	12	Diciembre	2023-03-12T00:00:00	2024-11-08T20:00:00	7	Dirección del viento	19.31
162903	7	Sololá	713	San Lucas Tolimán	10	San Lucas Tolimán	12	Diciembre	2023-03-12T00:00:00	2024-11-08T20:00:00	1	Precipitación	0
162904	7	Sololá	713	San Lucas Tolimán	10	San Lucas Tolimán	12	Diciembre	2023-03-12T00:00:00	2024-11-08T20:00:00	8	Radiación solar	0
162905	7	Sololá	713	San Lucas Tolimán	10	San Lucas Tolimán	12	Diciembre	2023-03-12T00:00:00	2024-11-08T21:00:00	2	Temperatura media	20.6
162906	7	Sololá	713	San Lucas Tolimán	10	San Lucas Tolimán	12	Diciembre	2023-03-12T00:00:00	2024-11-08T21:00:00	4	Temperatura máxima	20.8
162907	7	Sololá	713	San Lucas Tolimán	10	San Lucas Tolimán	12	Diciembre	2023-03-12T00:00:00	2024-11-08T21:00:00	3	Temperatura mínima	20.4
162908	7	Sololá	713	San Lucas Tolimán	10	San Lucas Tolimán	12	Diciembre	2023-03-12T00:00:00	2024-11-08T21:00:00	5	Humedad	52
162909	7	Sololá	713	San Lucas Tolimán	10	San Lucas Tolimán	12	Diciembre	2023-03-12T00:00:00	2024-11-08T21:00:00	6	Velocidad del viento	9.7
162910	7	Sololá	713	San Lucas Tolimán	10	San Lucas Tolimán	12	Diciembre	2023-03-12T00:00:00	2024-11-08T21:00:00	7	Dirección del viento	9.66
162911	7	Sololá	713	San Lucas Tolimán	10	San Lucas Tolimán	12	Diciembre	2023-03-12T00:00:00	2024-11-08T21:00:00	1	Precipitación	0
162912	7	Sololá	713	San Lucas Tolimán	10	San Lucas Tolimán	12	Diciembre	2023-03-12T00:00:00	2024-11-08T21:00:00	8	Radiación solar	0
162913	7	Sololá	713	San Lucas Tolimán	10	San Lucas Tolimán	12	Diciembre	2023-03-12T00:00:00	2024-11-08T22:00:00	2	Temperatura media	20.6
162914	7	Sololá	713	San Lucas Tolimán	10	San Lucas Tolimán	12	Diciembre	2023-03-12T00:00:00	2024-11-08T22:00:00	4	Temperatura máxima	20.6
162915	7	Sololá	713	San Lucas Tolimán	10	San Lucas Tolimán	12	Diciembre	2023-03-12T00:00:00	2024-11-08T22:00:00	3	Temperatura mínima	20.2
162916	7	Sololá	713	San Lucas Tolimán	10	San Lucas Tolimán	12	Diciembre	2023-03-12T00:00:00	2024-11-08T22:00:00	5	Humedad	52
162917	7	Sololá	713	San Lucas Tolimán	10	San Lucas Tolimán	12	Diciembre	2023-03-12T00:00:00	2024-11-08T22:00:00	6	Velocidad del viento	16.1
162918	7	Sololá	713	San Lucas Tolimán	10	San Lucas Tolimán	12	Diciembre	2023-03-12T00:00:00	2024-11-08T22:00:00	7	Dirección del viento	16.09
162919	7	Sololá	713	San Lucas Tolimán	10	San Lucas Tolimán	12	Diciembre	2023-03-12T00:00:00	2024-11-08T22:00:00	1	Precipitación	0
162920	7	Sololá	713	San Lucas Tolimán	10	San Lucas Tolimán	12	Diciembre	2023-03-12T00:00:00	2024-11-08T22:00:00	8	Radiación solar	0
162921	7	Sololá	713	San Lucas Tolimán	10	San Lucas Tolimán	12	Diciembre	2023-03-12T00:00:00	2024-11-08T23:00:00	2	Temperatura media	20.4
162922	7	Sololá	713	San Lucas Tolimán	10	San Lucas Tolimán	12	Diciembre	2023-03-12T00:00:00	2024-11-08T23:00:00	4	Temperatura máxima	20.7
162923	7	Sololá	713	San Lucas Tolimán	10	San Lucas Tolimán	12	Diciembre	2023-03-12T00:00:00	2024-11-08T23:00:00	3	Temperatura mínima	20.2
162924	7	Sololá	713	San Lucas Tolimán	10	San Lucas Tolimán	12	Diciembre	2023-03-12T00:00:00	2024-11-08T23:00:00	5	Humedad	52
162925	7	Sololá	713	San Lucas Tolimán	10	San Lucas Tolimán	12	Diciembre	2023-03-12T00:00:00	2024-11-08T23:00:00	6	Velocidad del viento	19.3
162926	7	Sololá	713	San Lucas Tolimán	10	San Lucas Tolimán	12	Diciembre	2023-03-12T00:00:00	2024-11-08T23:00:00	7	Dirección del viento	19.31
162927	7	Sololá	713	San Lucas Tolimán	10	San Lucas Tolimán	12	Diciembre	2023-03-12T00:00:00	2024-11-08T23:00:00	1	Precipitación	0
162928	7	Sololá	713	San Lucas Tolimán	10	San Lucas Tolimán	12	Diciembre	2023-03-12T00:00:00	2024-11-08T23:00:00	8	Radiación solar	0
162929	7	Sololá	713	San Lucas Tolimán	10	San Lucas Tolimán	12	Diciembre	2023-04-12T00:00:00	2024-11-08T00:00:00	2	Temperatura media	17.6
162930	7	Sololá	713	San Lucas Tolimán	10	San Lucas Tolimán	12	Diciembre	2023-04-12T00:00:00	2024-11-08T00:00:00	4	Temperatura máxima	20.4
162931	7	Sololá	713	San Lucas Tolimán	10	San Lucas Tolimán	12	Diciembre	2023-04-12T00:00:00	2024-11-08T00:00:00	3	Temperatura mínima	17.6
162932	7	Sololá	713	San Lucas Tolimán	10	San Lucas Tolimán	12	Diciembre	2023-04-12T00:00:00	2024-11-08T00:00:00	5	Humedad	59
162933	7	Sololá	713	San Lucas Tolimán	10	San Lucas Tolimán	12	Diciembre	2023-04-12T00:00:00	2024-11-08T00:00:00	6	Velocidad del viento	3.2
162934	7	Sololá	713	San Lucas Tolimán	10	San Lucas Tolimán	12	Diciembre	2023-04-12T00:00:00	2024-11-08T00:00:00	7	Dirección del viento	3.22
162935	7	Sololá	713	San Lucas Tolimán	10	San Lucas Tolimán	12	Diciembre	2023-04-12T00:00:00	2024-11-08T00:00:00	1	Precipitación	0
162936	7	Sololá	713	San Lucas Tolimán	10	San Lucas Tolimán	12	Diciembre	2023-04-12T00:00:00	2024-11-08T00:00:00	8	Radiación solar	0
162937	7	Sololá	713	San Lucas Tolimán	10	San Lucas Tolimán	12	Diciembre	2023-04-12T00:00:00	2024-11-08T01:00:00	2	Temperatura media	16.9
162938	7	Sololá	713	San Lucas Tolimán	10	San Lucas Tolimán	12	Diciembre	2023-04-12T00:00:00	2024-11-08T01:00:00	4	Temperatura máxima	17.6
162939	7	Sololá	713	San Lucas Tolimán	10	San Lucas Tolimán	12	Diciembre	2023-04-12T00:00:00	2024-11-08T01:00:00	3	Temperatura mínima	16.8
162940	7	Sololá	713	San Lucas Tolimán	10	San Lucas Tolimán	12	Diciembre	2023-04-12T00:00:00	2024-11-08T01:00:00	5	Humedad	60
162941	7	Sololá	713	San Lucas Tolimán	10	San Lucas Tolimán	12	Diciembre	2023-04-12T00:00:00	2024-11-08T01:00:00	6	Velocidad del viento	0
162942	7	Sololá	713	San Lucas Tolimán	10	San Lucas Tolimán	12	Diciembre	2023-04-12T00:00:00	2024-11-08T01:00:00	7	Dirección del viento	0
162943	7	Sololá	713	San Lucas Tolimán	10	San Lucas Tolimán	12	Diciembre	2023-04-12T00:00:00	2024-11-08T01:00:00	1	Precipitación	0
162944	7	Sololá	713	San Lucas Tolimán	10	San Lucas Tolimán	12	Diciembre	2023-04-12T00:00:00	2024-11-08T01:00:00	8	Radiación solar	0
162945	7	Sololá	713	San Lucas Tolimán	10	San Lucas Tolimán	12	Diciembre	2023-04-12T00:00:00	2024-11-08T02:00:00	2	Temperatura media	16.5
162946	7	Sololá	713	San Lucas Tolimán	10	San Lucas Tolimán	12	Diciembre	2023-04-12T00:00:00	2024-11-08T02:00:00	4	Temperatura máxima	16.9
162947	7	Sololá	713	San Lucas Tolimán	10	San Lucas Tolimán	12	Diciembre	2023-04-12T00:00:00	2024-11-08T02:00:00	3	Temperatura mínima	16.2
162948	7	Sololá	713	San Lucas Tolimán	10	San Lucas Tolimán	12	Diciembre	2023-04-12T00:00:00	2024-11-08T02:00:00	5	Humedad	60
162949	7	Sololá	713	San Lucas Tolimán	10	San Lucas Tolimán	12	Diciembre	2023-04-12T00:00:00	2024-11-08T02:00:00	6	Velocidad del viento	0
162950	7	Sololá	713	San Lucas Tolimán	10	San Lucas Tolimán	12	Diciembre	2023-04-12T00:00:00	2024-11-08T02:00:00	7	Dirección del viento	0
162951	7	Sololá	713	San Lucas Tolimán	10	San Lucas Tolimán	12	Diciembre	2023-04-12T00:00:00	2024-11-08T02:00:00	1	Precipitación	0
162952	7	Sololá	713	San Lucas Tolimán	10	San Lucas Tolimán	12	Diciembre	2023-04-12T00:00:00	2024-11-08T02:00:00	8	Radiación solar	0
162953	7	Sololá	713	San Lucas Tolimán	10	San Lucas Tolimán	12	Diciembre	2023-04-12T00:00:00	2024-11-08T03:00:00	2	Temperatura media	17.1
162954	7	Sololá	713	San Lucas Tolimán	10	San Lucas Tolimán	12	Diciembre	2023-04-12T00:00:00	2024-11-08T03:00:00	4	Temperatura máxima	17.3
162955	7	Sololá	713	San Lucas Tolimán	10	San Lucas Tolimán	12	Diciembre	2023-04-12T00:00:00	2024-11-08T03:00:00	3	Temperatura mínima	16.5
162956	7	Sololá	713	San Lucas Tolimán	10	San Lucas Tolimán	12	Diciembre	2023-04-12T00:00:00	2024-11-08T03:00:00	5	Humedad	59
162957	7	Sololá	713	San Lucas Tolimán	10	San Lucas Tolimán	12	Diciembre	2023-04-12T00:00:00	2024-11-08T03:00:00	6	Velocidad del viento	1.6
162958	7	Sololá	713	San Lucas Tolimán	10	San Lucas Tolimán	12	Diciembre	2023-04-12T00:00:00	2024-11-08T03:00:00	7	Dirección del viento	1.61
162959	7	Sololá	713	San Lucas Tolimán	10	San Lucas Tolimán	12	Diciembre	2023-04-12T00:00:00	2024-11-08T03:00:00	1	Precipitación	0
162960	7	Sololá	713	San Lucas Tolimán	10	San Lucas Tolimán	12	Diciembre	2023-04-12T00:00:00	2024-11-08T03:00:00	8	Radiación solar	0
162961	7	Sololá	713	San Lucas Tolimán	10	San Lucas Tolimán	12	Diciembre	2023-04-12T00:00:00	2024-11-08T04:00:00	2	Temperatura media	17.3
162962	7	Sololá	713	San Lucas Tolimán	10	San Lucas Tolimán	12	Diciembre	2023-04-12T00:00:00	2024-11-08T04:00:00	4	Temperatura máxima	17.4
162963	7	Sololá	713	San Lucas Tolimán	10	San Lucas Tolimán	12	Diciembre	2023-04-12T00:00:00	2024-11-08T04:00:00	3	Temperatura mínima	16.8
162964	7	Sololá	713	San Lucas Tolimán	10	San Lucas Tolimán	12	Diciembre	2023-04-12T00:00:00	2024-11-08T04:00:00	5	Humedad	59
162965	7	Sololá	713	San Lucas Tolimán	10	San Lucas Tolimán	12	Diciembre	2023-04-12T00:00:00	2024-11-08T04:00:00	6	Velocidad del viento	1.6
162966	7	Sololá	713	San Lucas Tolimán	10	San Lucas Tolimán	12	Diciembre	2023-04-12T00:00:00	2024-11-08T04:00:00	7	Dirección del viento	1.61
162967	7	Sololá	713	San Lucas Tolimán	10	San Lucas Tolimán	12	Diciembre	2023-04-12T00:00:00	2024-11-08T04:00:00	1	Precipitación	0
162968	7	Sololá	713	San Lucas Tolimán	10	San Lucas Tolimán	12	Diciembre	2023-04-12T00:00:00	2024-11-08T04:00:00	8	Radiación solar	0
162969	7	Sololá	713	San Lucas Tolimán	10	San Lucas Tolimán	12	Diciembre	2023-04-12T00:00:00	2024-11-08T05:00:00	2	Temperatura media	17.1
162970	7	Sololá	713	San Lucas Tolimán	10	San Lucas Tolimán	12	Diciembre	2023-04-12T00:00:00	2024-11-08T05:00:00	4	Temperatura máxima	17.5
162971	7	Sololá	713	San Lucas Tolimán	10	San Lucas Tolimán	12	Diciembre	2023-04-12T00:00:00	2024-11-08T05:00:00	3	Temperatura mínima	17.1
162972	7	Sololá	713	San Lucas Tolimán	10	San Lucas Tolimán	12	Diciembre	2023-04-12T00:00:00	2024-11-08T05:00:00	5	Humedad	60
162973	7	Sololá	713	San Lucas Tolimán	10	San Lucas Tolimán	12	Diciembre	2023-04-12T00:00:00	2024-11-08T05:00:00	6	Velocidad del viento	0
162974	7	Sololá	713	San Lucas Tolimán	10	San Lucas Tolimán	12	Diciembre	2023-04-12T00:00:00	2024-11-08T05:00:00	7	Dirección del viento	0
162975	7	Sololá	713	San Lucas Tolimán	10	San Lucas Tolimán	12	Diciembre	2023-04-12T00:00:00	2024-11-08T05:00:00	1	Precipitación	0
162976	7	Sololá	713	San Lucas Tolimán	10	San Lucas Tolimán	12	Diciembre	2023-04-12T00:00:00	2024-11-08T05:00:00	8	Radiación solar	0
162977	7	Sololá	713	San Lucas Tolimán	10	San Lucas Tolimán	12	Diciembre	2023-04-12T00:00:00	2024-11-08T06:00:00	2	Temperatura media	17.9
162978	7	Sololá	713	San Lucas Tolimán	10	San Lucas Tolimán	12	Diciembre	2023-04-12T00:00:00	2024-11-08T06:00:00	4	Temperatura máxima	17.9
162979	7	Sololá	713	San Lucas Tolimán	10	San Lucas Tolimán	12	Diciembre	2023-04-12T00:00:00	2024-11-08T06:00:00	3	Temperatura mínima	16.8
162980	7	Sololá	713	San Lucas Tolimán	10	San Lucas Tolimán	12	Diciembre	2023-04-12T00:00:00	2024-11-08T06:00:00	5	Humedad	58
162981	7	Sololá	713	San Lucas Tolimán	10	San Lucas Tolimán	12	Diciembre	2023-04-12T00:00:00	2024-11-08T06:00:00	6	Velocidad del viento	1.6
162982	7	Sololá	713	San Lucas Tolimán	10	San Lucas Tolimán	12	Diciembre	2023-04-12T00:00:00	2024-11-08T06:00:00	7	Dirección del viento	1.61
162983	7	Sololá	713	San Lucas Tolimán	10	San Lucas Tolimán	12	Diciembre	2023-04-12T00:00:00	2024-11-08T06:00:00	1	Precipitación	0
162984	7	Sololá	713	San Lucas Tolimán	10	San Lucas Tolimán	12	Diciembre	2023-04-12T00:00:00	2024-11-08T06:00:00	8	Radiación solar	0
162985	7	Sololá	713	San Lucas Tolimán	10	San Lucas Tolimán	12	Diciembre	2023-04-12T00:00:00	2024-11-08T07:00:00	2	Temperatura media	18.2
162986	7	Sololá	713	San Lucas Tolimán	10	San Lucas Tolimán	12	Diciembre	2023-04-12T00:00:00	2024-11-08T07:00:00	4	Temperatura máxima	18.7
162987	7	Sololá	713	San Lucas Tolimán	10	San Lucas Tolimán	12	Diciembre	2023-04-12T00:00:00	2024-11-08T07:00:00	3	Temperatura mínima	17.6
162988	7	Sololá	713	San Lucas Tolimán	10	San Lucas Tolimán	12	Diciembre	2023-04-12T00:00:00	2024-11-08T07:00:00	5	Humedad	58
162989	7	Sololá	713	San Lucas Tolimán	10	San Lucas Tolimán	12	Diciembre	2023-04-12T00:00:00	2024-11-08T07:00:00	6	Velocidad del viento	1.6
162990	7	Sololá	713	San Lucas Tolimán	10	San Lucas Tolimán	12	Diciembre	2023-04-12T00:00:00	2024-11-08T07:00:00	7	Dirección del viento	1.61
162991	7	Sololá	713	San Lucas Tolimán	10	San Lucas Tolimán	12	Diciembre	2023-04-12T00:00:00	2024-11-08T07:00:00	1	Precipitación	0
162992	7	Sololá	713	San Lucas Tolimán	10	San Lucas Tolimán	12	Diciembre	2023-04-12T00:00:00	2024-11-08T07:00:00	8	Radiación solar	14
162993	7	Sololá	713	San Lucas Tolimán	10	San Lucas Tolimán	12	Diciembre	2023-04-12T00:00:00	2024-11-08T08:00:00	2	Temperatura media	17.8
162994	7	Sololá	713	San Lucas Tolimán	10	San Lucas Tolimán	12	Diciembre	2023-04-12T00:00:00	2024-11-08T08:00:00	4	Temperatura máxima	18.2
162995	7	Sololá	713	San Lucas Tolimán	10	San Lucas Tolimán	12	Diciembre	2023-04-12T00:00:00	2024-11-08T08:00:00	3	Temperatura mínima	17.5
162996	7	Sololá	713	San Lucas Tolimán	10	San Lucas Tolimán	12	Diciembre	2023-04-12T00:00:00	2024-11-08T08:00:00	5	Humedad	60
162997	7	Sololá	713	San Lucas Tolimán	10	San Lucas Tolimán	12	Diciembre	2023-04-12T00:00:00	2024-11-08T08:00:00	6	Velocidad del viento	1.6
162998	7	Sololá	713	San Lucas Tolimán	10	San Lucas Tolimán	12	Diciembre	2023-04-12T00:00:00	2024-11-08T08:00:00	7	Dirección del viento	1.61
162999	7	Sololá	713	San Lucas Tolimán	10	San Lucas Tolimán	12	Diciembre	2023-04-12T00:00:00	2024-11-08T08:00:00	1	Precipitación	0
163000	7	Sololá	713	San Lucas Tolimán	10	San Lucas Tolimán	12	Diciembre	2023-04-12T00:00:00	2024-11-08T08:00:00	8	Radiación solar	36
163001	7	Sololá	713	San Lucas Tolimán	10	San Lucas Tolimán	12	Diciembre	2023-04-12T00:00:00	2024-11-08T09:00:00	2	Temperatura media	22.4
163002	7	Sololá	713	San Lucas Tolimán	10	San Lucas Tolimán	12	Diciembre	2023-04-12T00:00:00	2024-11-08T09:00:00	4	Temperatura máxima	22.4
163003	7	Sololá	713	San Lucas Tolimán	10	San Lucas Tolimán	12	Diciembre	2023-04-12T00:00:00	2024-11-08T09:00:00	3	Temperatura mínima	17.8
163004	7	Sololá	713	San Lucas Tolimán	10	San Lucas Tolimán	12	Diciembre	2023-04-12T00:00:00	2024-11-08T09:00:00	5	Humedad	50
163005	7	Sololá	713	San Lucas Tolimán	10	San Lucas Tolimán	12	Diciembre	2023-04-12T00:00:00	2024-11-08T09:00:00	6	Velocidad del viento	3.2
163006	7	Sololá	713	San Lucas Tolimán	10	San Lucas Tolimán	12	Diciembre	2023-04-12T00:00:00	2024-11-08T09:00:00	7	Dirección del viento	3.22
163007	7	Sololá	713	San Lucas Tolimán	10	San Lucas Tolimán	12	Diciembre	2023-04-12T00:00:00	2024-11-08T09:00:00	1	Precipitación	0
163008	7	Sololá	713	San Lucas Tolimán	10	San Lucas Tolimán	12	Diciembre	2023-04-12T00:00:00	2024-11-08T09:00:00	8	Radiación solar	358
163009	7	Sololá	713	San Lucas Tolimán	10	San Lucas Tolimán	12	Diciembre	2023-04-12T00:00:00	2024-11-08T10:00:00	2	Temperatura media	24.1
163010	7	Sololá	713	San Lucas Tolimán	10	San Lucas Tolimán	12	Diciembre	2023-04-12T00:00:00	2024-11-08T10:00:00	4	Temperatura máxima	24.3
163011	7	Sololá	713	San Lucas Tolimán	10	San Lucas Tolimán	12	Diciembre	2023-04-12T00:00:00	2024-11-08T10:00:00	3	Temperatura mínima	22.4
163012	7	Sololá	713	San Lucas Tolimán	10	San Lucas Tolimán	12	Diciembre	2023-04-12T00:00:00	2024-11-08T10:00:00	5	Humedad	48
163013	7	Sololá	713	San Lucas Tolimán	10	San Lucas Tolimán	12	Diciembre	2023-04-12T00:00:00	2024-11-08T10:00:00	6	Velocidad del viento	4.8
163014	7	Sololá	713	San Lucas Tolimán	10	San Lucas Tolimán	12	Diciembre	2023-04-12T00:00:00	2024-11-08T10:00:00	7	Dirección del viento	4.83
163015	7	Sololá	713	San Lucas Tolimán	10	San Lucas Tolimán	12	Diciembre	2023-04-12T00:00:00	2024-11-08T10:00:00	1	Precipitación	0
163016	7	Sololá	713	San Lucas Tolimán	10	San Lucas Tolimán	12	Diciembre	2023-04-12T00:00:00	2024-11-08T10:00:00	8	Radiación solar	629
163017	7	Sololá	713	San Lucas Tolimán	10	San Lucas Tolimán	12	Diciembre	2023-04-12T00:00:00	2024-11-08T11:00:00	2	Temperatura media	25.2
163018	7	Sololá	713	San Lucas Tolimán	10	San Lucas Tolimán	12	Diciembre	2023-04-12T00:00:00	2024-11-08T11:00:00	4	Temperatura máxima	25.7
163019	7	Sololá	713	San Lucas Tolimán	10	San Lucas Tolimán	12	Diciembre	2023-04-12T00:00:00	2024-11-08T11:00:00	3	Temperatura mínima	24.1
163020	7	Sololá	713	San Lucas Tolimán	10	San Lucas Tolimán	12	Diciembre	2023-04-12T00:00:00	2024-11-08T11:00:00	5	Humedad	43
163021	7	Sololá	713	San Lucas Tolimán	10	San Lucas Tolimán	12	Diciembre	2023-04-12T00:00:00	2024-11-08T11:00:00	6	Velocidad del viento	4.8
163022	7	Sololá	713	San Lucas Tolimán	10	San Lucas Tolimán	12	Diciembre	2023-04-12T00:00:00	2024-11-08T11:00:00	7	Dirección del viento	4.83
163023	7	Sololá	713	San Lucas Tolimán	10	San Lucas Tolimán	12	Diciembre	2023-04-12T00:00:00	2024-11-08T11:00:00	1	Precipitación	0
163024	7	Sololá	713	San Lucas Tolimán	10	San Lucas Tolimán	12	Diciembre	2023-04-12T00:00:00	2024-11-08T11:00:00	8	Radiación solar	781
163025	7	Sololá	713	San Lucas Tolimán	10	San Lucas Tolimán	12	Diciembre	2023-04-12T00:00:00	2024-11-08T12:00:00	2	Temperatura media	25.2
163026	7	Sololá	713	San Lucas Tolimán	10	San Lucas Tolimán	12	Diciembre	2023-04-12T00:00:00	2024-11-08T12:00:00	4	Temperatura máxima	25.9
163027	7	Sololá	713	San Lucas Tolimán	10	San Lucas Tolimán	12	Diciembre	2023-04-12T00:00:00	2024-11-08T12:00:00	3	Temperatura mínima	25
163028	7	Sololá	713	San Lucas Tolimán	10	San Lucas Tolimán	12	Diciembre	2023-04-12T00:00:00	2024-11-08T12:00:00	5	Humedad	50
163029	7	Sololá	713	San Lucas Tolimán	10	San Lucas Tolimán	12	Diciembre	2023-04-12T00:00:00	2024-11-08T12:00:00	6	Velocidad del viento	6.4
163030	7	Sololá	713	San Lucas Tolimán	10	San Lucas Tolimán	12	Diciembre	2023-04-12T00:00:00	2024-11-08T12:00:00	7	Dirección del viento	6.44
163031	7	Sololá	713	San Lucas Tolimán	10	San Lucas Tolimán	12	Diciembre	2023-04-12T00:00:00	2024-11-08T12:00:00	1	Precipitación	0
163032	7	Sololá	713	San Lucas Tolimán	10	San Lucas Tolimán	12	Diciembre	2023-04-12T00:00:00	2024-11-08T12:00:00	8	Radiación solar	645
163033	7	Sololá	713	San Lucas Tolimán	10	San Lucas Tolimán	12	Diciembre	2023-04-12T00:00:00	2024-11-08T13:00:00	2	Temperatura media	24.9
163034	7	Sololá	713	San Lucas Tolimán	10	San Lucas Tolimán	12	Diciembre	2023-04-12T00:00:00	2024-11-08T13:00:00	4	Temperatura máxima	25.6
163035	7	Sololá	713	San Lucas Tolimán	10	San Lucas Tolimán	12	Diciembre	2023-04-12T00:00:00	2024-11-08T13:00:00	3	Temperatura mínima	24.3
163036	7	Sololá	713	San Lucas Tolimán	10	San Lucas Tolimán	12	Diciembre	2023-04-12T00:00:00	2024-11-08T13:00:00	5	Humedad	52
163037	7	Sololá	713	San Lucas Tolimán	10	San Lucas Tolimán	12	Diciembre	2023-04-12T00:00:00	2024-11-08T13:00:00	6	Velocidad del viento	8
163038	7	Sololá	713	San Lucas Tolimán	10	San Lucas Tolimán	12	Diciembre	2023-04-12T00:00:00	2024-11-08T13:00:00	7	Dirección del viento	8.05
163039	7	Sololá	713	San Lucas Tolimán	10	San Lucas Tolimán	12	Diciembre	2023-04-12T00:00:00	2024-11-08T13:00:00	1	Precipitación	0
163040	7	Sololá	713	San Lucas Tolimán	10	San Lucas Tolimán	12	Diciembre	2023-04-12T00:00:00	2024-11-08T13:00:00	8	Radiación solar	680
163041	7	Sololá	713	San Lucas Tolimán	10	San Lucas Tolimán	12	Diciembre	2023-04-12T00:00:00	2024-11-08T14:00:00	2	Temperatura media	25.3
163042	7	Sololá	713	San Lucas Tolimán	10	San Lucas Tolimán	12	Diciembre	2023-04-12T00:00:00	2024-11-08T14:00:00	4	Temperatura máxima	25.4
163043	7	Sololá	713	San Lucas Tolimán	10	San Lucas Tolimán	12	Diciembre	2023-04-12T00:00:00	2024-11-08T14:00:00	3	Temperatura mínima	23.2
163044	7	Sololá	713	San Lucas Tolimán	10	San Lucas Tolimán	12	Diciembre	2023-04-12T00:00:00	2024-11-08T14:00:00	5	Humedad	42
163045	7	Sololá	713	San Lucas Tolimán	10	San Lucas Tolimán	12	Diciembre	2023-04-12T00:00:00	2024-11-08T14:00:00	6	Velocidad del viento	9.7
163046	7	Sololá	713	San Lucas Tolimán	10	San Lucas Tolimán	12	Diciembre	2023-04-12T00:00:00	2024-11-08T14:00:00	7	Dirección del viento	9.66
163047	7	Sololá	713	San Lucas Tolimán	10	San Lucas Tolimán	12	Diciembre	2023-04-12T00:00:00	2024-11-08T14:00:00	1	Precipitación	0
163048	7	Sololá	713	San Lucas Tolimán	10	San Lucas Tolimán	12	Diciembre	2023-04-12T00:00:00	2024-11-08T14:00:00	8	Radiación solar	667
163049	7	Sololá	713	San Lucas Tolimán	10	San Lucas Tolimán	12	Diciembre	2023-04-12T00:00:00	2024-11-08T15:00:00	2	Temperatura media	24.9
163050	7	Sololá	713	San Lucas Tolimán	10	San Lucas Tolimán	12	Diciembre	2023-04-12T00:00:00	2024-11-08T15:00:00	4	Temperatura máxima	25.4
163051	7	Sololá	713	San Lucas Tolimán	10	San Lucas Tolimán	12	Diciembre	2023-04-12T00:00:00	2024-11-08T15:00:00	3	Temperatura mínima	24.4
163052	7	Sololá	713	San Lucas Tolimán	10	San Lucas Tolimán	12	Diciembre	2023-04-12T00:00:00	2024-11-08T15:00:00	5	Humedad	42
163053	7	Sololá	713	San Lucas Tolimán	10	San Lucas Tolimán	12	Diciembre	2023-04-12T00:00:00	2024-11-08T15:00:00	6	Velocidad del viento	8
163054	7	Sololá	713	San Lucas Tolimán	10	San Lucas Tolimán	12	Diciembre	2023-04-12T00:00:00	2024-11-08T15:00:00	7	Dirección del viento	8.05
163055	7	Sololá	713	San Lucas Tolimán	10	San Lucas Tolimán	12	Diciembre	2023-04-12T00:00:00	2024-11-08T15:00:00	1	Precipitación	0
163056	7	Sololá	713	San Lucas Tolimán	10	San Lucas Tolimán	12	Diciembre	2023-04-12T00:00:00	2024-11-08T15:00:00	8	Radiación solar	452
163057	7	Sololá	713	San Lucas Tolimán	10	San Lucas Tolimán	12	Diciembre	2023-04-12T00:00:00	2024-11-08T16:00:00	2	Temperatura media	22.6
163058	7	Sololá	713	San Lucas Tolimán	10	San Lucas Tolimán	12	Diciembre	2023-04-12T00:00:00	2024-11-08T16:00:00	4	Temperatura máxima	25
163059	7	Sololá	713	San Lucas Tolimán	10	San Lucas Tolimán	12	Diciembre	2023-04-12T00:00:00	2024-11-08T16:00:00	3	Temperatura mínima	22.5
163060	7	Sololá	713	San Lucas Tolimán	10	San Lucas Tolimán	12	Diciembre	2023-04-12T00:00:00	2024-11-08T16:00:00	5	Humedad	61
163061	7	Sololá	713	San Lucas Tolimán	10	San Lucas Tolimán	12	Diciembre	2023-04-12T00:00:00	2024-11-08T16:00:00	6	Velocidad del viento	6.4
163062	7	Sololá	713	San Lucas Tolimán	10	San Lucas Tolimán	12	Diciembre	2023-04-12T00:00:00	2024-11-08T16:00:00	7	Dirección del viento	6.44
163063	7	Sololá	713	San Lucas Tolimán	10	San Lucas Tolimán	12	Diciembre	2023-04-12T00:00:00	2024-11-08T16:00:00	1	Precipitación	0
163064	7	Sololá	713	San Lucas Tolimán	10	San Lucas Tolimán	12	Diciembre	2023-04-12T00:00:00	2024-11-08T16:00:00	8	Radiación solar	250
163065	7	Sololá	713	San Lucas Tolimán	10	San Lucas Tolimán	12	Diciembre	2023-04-12T00:00:00	2024-11-08T17:00:00	2	Temperatura media	21.3
163066	7	Sololá	713	San Lucas Tolimán	10	San Lucas Tolimán	12	Diciembre	2023-04-12T00:00:00	2024-11-08T17:00:00	4	Temperatura máxima	22.8
163067	7	Sololá	713	San Lucas Tolimán	10	San Lucas Tolimán	12	Diciembre	2023-04-12T00:00:00	2024-11-08T17:00:00	3	Temperatura mínima	21.3
163068	7	Sololá	713	San Lucas Tolimán	10	San Lucas Tolimán	12	Diciembre	2023-04-12T00:00:00	2024-11-08T17:00:00	5	Humedad	61
163069	7	Sololá	713	San Lucas Tolimán	10	San Lucas Tolimán	12	Diciembre	2023-04-12T00:00:00	2024-11-08T17:00:00	6	Velocidad del viento	6.4
163070	7	Sololá	713	San Lucas Tolimán	10	San Lucas Tolimán	12	Diciembre	2023-04-12T00:00:00	2024-11-08T17:00:00	7	Dirección del viento	6.44
163071	7	Sololá	713	San Lucas Tolimán	10	San Lucas Tolimán	12	Diciembre	2023-04-12T00:00:00	2024-11-08T17:00:00	1	Precipitación	0
163072	7	Sololá	713	San Lucas Tolimán	10	San Lucas Tolimán	12	Diciembre	2023-04-12T00:00:00	2024-11-08T17:00:00	8	Radiación solar	141
163073	7	Sololá	713	San Lucas Tolimán	10	San Lucas Tolimán	12	Diciembre	2023-04-12T00:00:00	2024-11-08T18:00:00	2	Temperatura media	20.7
163074	7	Sololá	713	San Lucas Tolimán	10	San Lucas Tolimán	12	Diciembre	2023-04-12T00:00:00	2024-11-08T18:00:00	4	Temperatura máxima	21.3
163075	7	Sololá	713	San Lucas Tolimán	10	San Lucas Tolimán	12	Diciembre	2023-04-12T00:00:00	2024-11-08T18:00:00	3	Temperatura mínima	20.1
163076	7	Sololá	713	San Lucas Tolimán	10	San Lucas Tolimán	12	Diciembre	2023-04-12T00:00:00	2024-11-08T18:00:00	5	Humedad	55
163077	7	Sololá	713	San Lucas Tolimán	10	San Lucas Tolimán	12	Diciembre	2023-04-12T00:00:00	2024-11-08T18:00:00	6	Velocidad del viento	3.2
163078	7	Sololá	713	San Lucas Tolimán	10	San Lucas Tolimán	12	Diciembre	2023-04-12T00:00:00	2024-11-08T18:00:00	7	Dirección del viento	3.22
163079	7	Sololá	713	San Lucas Tolimán	10	San Lucas Tolimán	12	Diciembre	2023-04-12T00:00:00	2024-11-08T18:00:00	1	Precipitación	0
163080	7	Sololá	713	San Lucas Tolimán	10	San Lucas Tolimán	12	Diciembre	2023-04-12T00:00:00	2024-11-08T18:00:00	8	Radiación solar	10
163081	7	Sololá	713	San Lucas Tolimán	10	San Lucas Tolimán	12	Diciembre	2023-04-12T00:00:00	2024-11-08T19:00:00	2	Temperatura media	21.7
163082	7	Sololá	713	San Lucas Tolimán	10	San Lucas Tolimán	12	Diciembre	2023-04-12T00:00:00	2024-11-08T19:00:00	4	Temperatura máxima	21.8
163083	7	Sololá	713	San Lucas Tolimán	10	San Lucas Tolimán	12	Diciembre	2023-04-12T00:00:00	2024-11-08T19:00:00	3	Temperatura mínima	20.6
163084	7	Sololá	713	San Lucas Tolimán	10	San Lucas Tolimán	12	Diciembre	2023-04-12T00:00:00	2024-11-08T19:00:00	5	Humedad	54
163085	7	Sololá	713	San Lucas Tolimán	10	San Lucas Tolimán	12	Diciembre	2023-04-12T00:00:00	2024-11-08T19:00:00	6	Velocidad del viento	6.4
163086	7	Sololá	713	San Lucas Tolimán	10	San Lucas Tolimán	12	Diciembre	2023-04-12T00:00:00	2024-11-08T19:00:00	7	Dirección del viento	6.44
163087	7	Sololá	713	San Lucas Tolimán	10	San Lucas Tolimán	12	Diciembre	2023-04-12T00:00:00	2024-11-08T19:00:00	1	Precipitación	0
163088	7	Sololá	713	San Lucas Tolimán	10	San Lucas Tolimán	12	Diciembre	2023-04-12T00:00:00	2024-11-08T19:00:00	8	Radiación solar	0
163089	7	Sololá	713	San Lucas Tolimán	10	San Lucas Tolimán	12	Diciembre	2023-04-12T00:00:00	2024-11-08T20:00:00	2	Temperatura media	20.8
163090	7	Sololá	713	San Lucas Tolimán	10	San Lucas Tolimán	12	Diciembre	2023-04-12T00:00:00	2024-11-08T20:00:00	4	Temperatura máxima	21.7
163091	7	Sololá	713	San Lucas Tolimán	10	San Lucas Tolimán	12	Diciembre	2023-04-12T00:00:00	2024-11-08T20:00:00	3	Temperatura mínima	20.5
163092	7	Sololá	713	San Lucas Tolimán	10	San Lucas Tolimán	12	Diciembre	2023-04-12T00:00:00	2024-11-08T20:00:00	5	Humedad	56
163093	7	Sololá	713	San Lucas Tolimán	10	San Lucas Tolimán	12	Diciembre	2023-04-12T00:00:00	2024-11-08T20:00:00	6	Velocidad del viento	4.8
163094	7	Sololá	713	San Lucas Tolimán	10	San Lucas Tolimán	12	Diciembre	2023-04-12T00:00:00	2024-11-08T20:00:00	7	Dirección del viento	4.83
163095	7	Sololá	713	San Lucas Tolimán	10	San Lucas Tolimán	12	Diciembre	2023-04-12T00:00:00	2024-11-08T20:00:00	1	Precipitación	0
163096	7	Sololá	713	San Lucas Tolimán	10	San Lucas Tolimán	12	Diciembre	2023-04-12T00:00:00	2024-11-08T20:00:00	8	Radiación solar	0
163097	7	Sololá	713	San Lucas Tolimán	10	San Lucas Tolimán	12	Diciembre	2023-04-12T00:00:00	2024-11-08T21:00:00	2	Temperatura media	21.3
163098	7	Sololá	713	San Lucas Tolimán	10	San Lucas Tolimán	12	Diciembre	2023-04-12T00:00:00	2024-11-08T21:00:00	4	Temperatura máxima	21.4
163099	7	Sololá	713	San Lucas Tolimán	10	San Lucas Tolimán	12	Diciembre	2023-04-12T00:00:00	2024-11-08T21:00:00	3	Temperatura mínima	20.8
163100	7	Sololá	713	San Lucas Tolimán	10	San Lucas Tolimán	12	Diciembre	2023-04-12T00:00:00	2024-11-08T21:00:00	5	Humedad	54
163101	7	Sololá	713	San Lucas Tolimán	10	San Lucas Tolimán	12	Diciembre	2023-04-12T00:00:00	2024-11-08T21:00:00	6	Velocidad del viento	14.5
163102	7	Sololá	713	San Lucas Tolimán	10	San Lucas Tolimán	12	Diciembre	2023-04-12T00:00:00	2024-11-08T21:00:00	7	Dirección del viento	14.48
163103	7	Sololá	713	San Lucas Tolimán	10	San Lucas Tolimán	12	Diciembre	2023-04-12T00:00:00	2024-11-08T21:00:00	1	Precipitación	0
163104	7	Sololá	713	San Lucas Tolimán	10	San Lucas Tolimán	12	Diciembre	2023-04-12T00:00:00	2024-11-08T21:00:00	8	Radiación solar	0
163105	7	Sololá	713	San Lucas Tolimán	10	San Lucas Tolimán	12	Diciembre	2023-04-12T00:00:00	2024-11-08T22:00:00	2	Temperatura media	21.4
163106	7	Sololá	713	San Lucas Tolimán	10	San Lucas Tolimán	12	Diciembre	2023-04-12T00:00:00	2024-11-08T22:00:00	4	Temperatura máxima	21.6
163107	7	Sololá	713	San Lucas Tolimán	10	San Lucas Tolimán	12	Diciembre	2023-04-12T00:00:00	2024-11-08T22:00:00	3	Temperatura mínima	21.2
163108	7	Sololá	713	San Lucas Tolimán	10	San Lucas Tolimán	12	Diciembre	2023-04-12T00:00:00	2024-11-08T22:00:00	5	Humedad	54
163109	7	Sololá	713	San Lucas Tolimán	10	San Lucas Tolimán	12	Diciembre	2023-04-12T00:00:00	2024-11-08T22:00:00	6	Velocidad del viento	12.9
163110	7	Sololá	713	San Lucas Tolimán	10	San Lucas Tolimán	12	Diciembre	2023-04-12T00:00:00	2024-11-08T22:00:00	7	Dirección del viento	12.87
163111	7	Sololá	713	San Lucas Tolimán	10	San Lucas Tolimán	12	Diciembre	2023-04-12T00:00:00	2024-11-08T22:00:00	1	Precipitación	0
163112	7	Sololá	713	San Lucas Tolimán	10	San Lucas Tolimán	12	Diciembre	2023-04-12T00:00:00	2024-11-08T22:00:00	8	Radiación solar	0
163113	7	Sololá	713	San Lucas Tolimán	10	San Lucas Tolimán	12	Diciembre	2023-04-12T00:00:00	2024-11-08T23:00:00	2	Temperatura media	20.9
163114	7	Sololá	713	San Lucas Tolimán	10	San Lucas Tolimán	12	Diciembre	2023-04-12T00:00:00	2024-11-08T23:00:00	4	Temperatura máxima	21.8
163115	7	Sololá	713	San Lucas Tolimán	10	San Lucas Tolimán	12	Diciembre	2023-04-12T00:00:00	2024-11-08T23:00:00	3	Temperatura mínima	20.9
163116	7	Sololá	713	San Lucas Tolimán	10	San Lucas Tolimán	12	Diciembre	2023-04-12T00:00:00	2024-11-08T23:00:00	5	Humedad	56
163117	7	Sololá	713	San Lucas Tolimán	10	San Lucas Tolimán	12	Diciembre	2023-04-12T00:00:00	2024-11-08T23:00:00	6	Velocidad del viento	9.7
163118	7	Sololá	713	San Lucas Tolimán	10	San Lucas Tolimán	12	Diciembre	2023-04-12T00:00:00	2024-11-08T23:00:00	7	Dirección del viento	9.66
163119	7	Sololá	713	San Lucas Tolimán	10	San Lucas Tolimán	12	Diciembre	2023-04-12T00:00:00	2024-11-08T23:00:00	1	Precipitación	0
163120	7	Sololá	713	San Lucas Tolimán	10	San Lucas Tolimán	12	Diciembre	2023-04-12T00:00:00	2024-11-08T23:00:00	8	Radiación solar	0
163121	7	Sololá	713	San Lucas Tolimán	10	San Lucas Tolimán	12	Diciembre	2023-05-12T00:00:00	2024-11-08T00:00:00	2	Temperatura media	20.9
163122	7	Sololá	713	San Lucas Tolimán	10	San Lucas Tolimán	12	Diciembre	2023-05-12T00:00:00	2024-11-08T00:00:00	4	Temperatura máxima	21.4
163123	7	Sololá	713	San Lucas Tolimán	10	San Lucas Tolimán	12	Diciembre	2023-05-12T00:00:00	2024-11-08T00:00:00	3	Temperatura mínima	20.8
163124	7	Sololá	713	San Lucas Tolimán	10	San Lucas Tolimán	12	Diciembre	2023-05-12T00:00:00	2024-11-08T00:00:00	5	Humedad	56
163125	7	Sololá	713	San Lucas Tolimán	10	San Lucas Tolimán	12	Diciembre	2023-05-12T00:00:00	2024-11-08T00:00:00	6	Velocidad del viento	8
163126	7	Sololá	713	San Lucas Tolimán	10	San Lucas Tolimán	12	Diciembre	2023-05-12T00:00:00	2024-11-08T00:00:00	7	Dirección del viento	8.05
163127	7	Sololá	713	San Lucas Tolimán	10	San Lucas Tolimán	12	Diciembre	2023-05-12T00:00:00	2024-11-08T00:00:00	1	Precipitación	0
163128	7	Sololá	713	San Lucas Tolimán	10	San Lucas Tolimán	12	Diciembre	2023-05-12T00:00:00	2024-11-08T00:00:00	8	Radiación solar	0
163129	7	Sololá	713	San Lucas Tolimán	10	San Lucas Tolimán	12	Diciembre	2023-05-12T00:00:00	2024-11-08T01:00:00	2	Temperatura media	20.2
163130	7	Sololá	713	San Lucas Tolimán	10	San Lucas Tolimán	12	Diciembre	2023-05-12T00:00:00	2024-11-08T01:00:00	4	Temperatura máxima	20.7
163131	7	Sololá	713	San Lucas Tolimán	10	San Lucas Tolimán	12	Diciembre	2023-05-12T00:00:00	2024-11-08T01:00:00	3	Temperatura mínima	20.2
163132	7	Sololá	713	San Lucas Tolimán	10	San Lucas Tolimán	12	Diciembre	2023-05-12T00:00:00	2024-11-08T01:00:00	5	Humedad	58
163133	7	Sololá	713	San Lucas Tolimán	10	San Lucas Tolimán	12	Diciembre	2023-05-12T00:00:00	2024-11-08T01:00:00	6	Velocidad del viento	1.6
163134	7	Sololá	713	San Lucas Tolimán	10	San Lucas Tolimán	12	Diciembre	2023-05-12T00:00:00	2024-11-08T01:00:00	7	Dirección del viento	1.61
163135	7	Sololá	713	San Lucas Tolimán	10	San Lucas Tolimán	12	Diciembre	2023-05-12T00:00:00	2024-11-08T01:00:00	1	Precipitación	0
163136	7	Sololá	713	San Lucas Tolimán	10	San Lucas Tolimán	12	Diciembre	2023-05-12T00:00:00	2024-11-08T01:00:00	8	Radiación solar	0
163137	7	Sololá	713	San Lucas Tolimán	10	San Lucas Tolimán	12	Diciembre	2023-05-12T00:00:00	2024-11-08T02:00:00	2	Temperatura media	20.5
163138	7	Sololá	713	San Lucas Tolimán	10	San Lucas Tolimán	12	Diciembre	2023-05-12T00:00:00	2024-11-08T02:00:00	4	Temperatura máxima	20.8
163139	7	Sololá	713	San Lucas Tolimán	10	San Lucas Tolimán	12	Diciembre	2023-05-12T00:00:00	2024-11-08T02:00:00	3	Temperatura mínima	20.1
163140	7	Sololá	713	San Lucas Tolimán	10	San Lucas Tolimán	12	Diciembre	2023-05-12T00:00:00	2024-11-08T02:00:00	5	Humedad	55
163141	7	Sololá	713	San Lucas Tolimán	10	San Lucas Tolimán	12	Diciembre	2023-05-12T00:00:00	2024-11-08T02:00:00	6	Velocidad del viento	9.7
163142	7	Sololá	713	San Lucas Tolimán	10	San Lucas Tolimán	12	Diciembre	2023-05-12T00:00:00	2024-11-08T02:00:00	7	Dirección del viento	9.66
163143	7	Sololá	713	San Lucas Tolimán	10	San Lucas Tolimán	12	Diciembre	2023-05-12T00:00:00	2024-11-08T02:00:00	1	Precipitación	0
163144	7	Sololá	713	San Lucas Tolimán	10	San Lucas Tolimán	12	Diciembre	2023-05-12T00:00:00	2024-11-08T02:00:00	8	Radiación solar	0
163145	7	Sololá	713	San Lucas Tolimán	10	San Lucas Tolimán	12	Diciembre	2023-05-12T00:00:00	2024-11-08T03:00:00	2	Temperatura media	19.8
163146	7	Sololá	713	San Lucas Tolimán	10	San Lucas Tolimán	12	Diciembre	2023-05-12T00:00:00	2024-11-08T03:00:00	4	Temperatura máxima	20.5
163147	7	Sololá	713	San Lucas Tolimán	10	San Lucas Tolimán	12	Diciembre	2023-05-12T00:00:00	2024-11-08T03:00:00	3	Temperatura mínima	19.8
163148	7	Sololá	713	San Lucas Tolimán	10	San Lucas Tolimán	12	Diciembre	2023-05-12T00:00:00	2024-11-08T03:00:00	5	Humedad	58
163149	7	Sololá	713	San Lucas Tolimán	10	San Lucas Tolimán	12	Diciembre	2023-05-12T00:00:00	2024-11-08T03:00:00	6	Velocidad del viento	9.7
163150	7	Sololá	713	San Lucas Tolimán	10	San Lucas Tolimán	12	Diciembre	2023-05-12T00:00:00	2024-11-08T03:00:00	7	Dirección del viento	9.66
163151	7	Sololá	713	San Lucas Tolimán	10	San Lucas Tolimán	12	Diciembre	2023-05-12T00:00:00	2024-11-08T03:00:00	1	Precipitación	0
163152	7	Sololá	713	San Lucas Tolimán	10	San Lucas Tolimán	12	Diciembre	2023-05-12T00:00:00	2024-11-08T03:00:00	8	Radiación solar	0
163153	7	Sololá	713	San Lucas Tolimán	10	San Lucas Tolimán	12	Diciembre	2023-05-12T00:00:00	2024-11-08T04:00:00	2	Temperatura media	19.4
163154	7	Sololá	713	San Lucas Tolimán	10	San Lucas Tolimán	12	Diciembre	2023-05-12T00:00:00	2024-11-08T04:00:00	4	Temperatura máxima	19.9
163155	7	Sololá	713	San Lucas Tolimán	10	San Lucas Tolimán	12	Diciembre	2023-05-12T00:00:00	2024-11-08T04:00:00	3	Temperatura mínima	19.3
163156	7	Sololá	713	San Lucas Tolimán	10	San Lucas Tolimán	12	Diciembre	2023-05-12T00:00:00	2024-11-08T04:00:00	5	Humedad	58
163157	7	Sololá	713	San Lucas Tolimán	10	San Lucas Tolimán	12	Diciembre	2023-05-12T00:00:00	2024-11-08T04:00:00	6	Velocidad del viento	3.2
163158	7	Sololá	713	San Lucas Tolimán	10	San Lucas Tolimán	12	Diciembre	2023-05-12T00:00:00	2024-11-08T04:00:00	7	Dirección del viento	3.22
163159	7	Sololá	713	San Lucas Tolimán	10	San Lucas Tolimán	12	Diciembre	2023-05-12T00:00:00	2024-11-08T04:00:00	1	Precipitación	0
163160	7	Sololá	713	San Lucas Tolimán	10	San Lucas Tolimán	12	Diciembre	2023-05-12T00:00:00	2024-11-08T04:00:00	8	Radiación solar	0
163161	7	Sololá	713	San Lucas Tolimán	10	San Lucas Tolimán	12	Diciembre	2023-05-12T00:00:00	2024-11-08T05:00:00	2	Temperatura media	19
163162	7	Sololá	713	San Lucas Tolimán	10	San Lucas Tolimán	12	Diciembre	2023-05-12T00:00:00	2024-11-08T05:00:00	4	Temperatura máxima	19.4
163163	7	Sololá	713	San Lucas Tolimán	10	San Lucas Tolimán	12	Diciembre	2023-05-12T00:00:00	2024-11-08T05:00:00	3	Temperatura mínima	19
163164	7	Sololá	713	San Lucas Tolimán	10	San Lucas Tolimán	12	Diciembre	2023-05-12T00:00:00	2024-11-08T05:00:00	5	Humedad	60
163165	7	Sololá	713	San Lucas Tolimán	10	San Lucas Tolimán	12	Diciembre	2023-05-12T00:00:00	2024-11-08T05:00:00	6	Velocidad del viento	4.8
163166	7	Sololá	713	San Lucas Tolimán	10	San Lucas Tolimán	12	Diciembre	2023-05-12T00:00:00	2024-11-08T05:00:00	7	Dirección del viento	4.83
163167	7	Sololá	713	San Lucas Tolimán	10	San Lucas Tolimán	12	Diciembre	2023-05-12T00:00:00	2024-11-08T05:00:00	1	Precipitación	0
163168	7	Sololá	713	San Lucas Tolimán	10	San Lucas Tolimán	12	Diciembre	2023-05-12T00:00:00	2024-11-08T05:00:00	8	Radiación solar	0
163169	7	Sololá	713	San Lucas Tolimán	10	San Lucas Tolimán	12	Diciembre	2023-05-12T00:00:00	2024-11-08T06:00:00	2	Temperatura media	18.7
163170	7	Sololá	713	San Lucas Tolimán	10	San Lucas Tolimán	12	Diciembre	2023-05-12T00:00:00	2024-11-08T06:00:00	4	Temperatura máxima	19.3
163171	7	Sololá	713	San Lucas Tolimán	10	San Lucas Tolimán	12	Diciembre	2023-05-12T00:00:00	2024-11-08T06:00:00	3	Temperatura mínima	18.7
163172	7	Sololá	713	San Lucas Tolimán	10	San Lucas Tolimán	12	Diciembre	2023-05-12T00:00:00	2024-11-08T06:00:00	5	Humedad	60
163173	7	Sololá	713	San Lucas Tolimán	10	San Lucas Tolimán	12	Diciembre	2023-05-12T00:00:00	2024-11-08T06:00:00	6	Velocidad del viento	3.2
163174	7	Sololá	713	San Lucas Tolimán	10	San Lucas Tolimán	12	Diciembre	2023-05-12T00:00:00	2024-11-08T06:00:00	7	Dirección del viento	3.22
163175	7	Sololá	713	San Lucas Tolimán	10	San Lucas Tolimán	12	Diciembre	2023-05-12T00:00:00	2024-11-08T06:00:00	1	Precipitación	0
163176	7	Sololá	713	San Lucas Tolimán	10	San Lucas Tolimán	12	Diciembre	2023-05-12T00:00:00	2024-11-08T06:00:00	8	Radiación solar	0
163177	7	Sololá	713	San Lucas Tolimán	10	San Lucas Tolimán	12	Diciembre	2023-05-12T00:00:00	2024-11-08T07:00:00	2	Temperatura media	19.9
163178	7	Sololá	713	San Lucas Tolimán	10	San Lucas Tolimán	12	Diciembre	2023-05-12T00:00:00	2024-11-08T07:00:00	4	Temperatura máxima	19.9
163179	7	Sololá	713	San Lucas Tolimán	10	San Lucas Tolimán	12	Diciembre	2023-05-12T00:00:00	2024-11-08T07:00:00	3	Temperatura mínima	18.4
163180	7	Sololá	713	San Lucas Tolimán	10	San Lucas Tolimán	12	Diciembre	2023-05-12T00:00:00	2024-11-08T07:00:00	5	Humedad	57
163181	7	Sololá	713	San Lucas Tolimán	10	San Lucas Tolimán	12	Diciembre	2023-05-12T00:00:00	2024-11-08T07:00:00	6	Velocidad del viento	3.2
163182	7	Sololá	713	San Lucas Tolimán	10	San Lucas Tolimán	12	Diciembre	2023-05-12T00:00:00	2024-11-08T07:00:00	7	Dirección del viento	3.22
163183	7	Sololá	713	San Lucas Tolimán	10	San Lucas Tolimán	12	Diciembre	2023-05-12T00:00:00	2024-11-08T07:00:00	1	Precipitación	0
163184	7	Sololá	713	San Lucas Tolimán	10	San Lucas Tolimán	12	Diciembre	2023-05-12T00:00:00	2024-11-08T07:00:00	8	Radiación solar	17
163185	7	Sololá	713	San Lucas Tolimán	10	San Lucas Tolimán	12	Diciembre	2023-05-12T00:00:00	2024-11-08T08:00:00	2	Temperatura media	20.8
163186	7	Sololá	713	San Lucas Tolimán	10	San Lucas Tolimán	12	Diciembre	2023-05-12T00:00:00	2024-11-08T08:00:00	4	Temperatura máxima	20.8
163187	7	Sololá	713	San Lucas Tolimán	10	San Lucas Tolimán	12	Diciembre	2023-05-12T00:00:00	2024-11-08T08:00:00	3	Temperatura mínima	19.9
163188	7	Sololá	713	San Lucas Tolimán	10	San Lucas Tolimán	12	Diciembre	2023-05-12T00:00:00	2024-11-08T08:00:00	5	Humedad	55
163189	7	Sololá	713	San Lucas Tolimán	10	San Lucas Tolimán	12	Diciembre	2023-05-12T00:00:00	2024-11-08T08:00:00	6	Velocidad del viento	6.4
163190	7	Sololá	713	San Lucas Tolimán	10	San Lucas Tolimán	12	Diciembre	2023-05-12T00:00:00	2024-11-08T08:00:00	7	Dirección del viento	6.44
163191	7	Sololá	713	San Lucas Tolimán	10	San Lucas Tolimán	12	Diciembre	2023-05-12T00:00:00	2024-11-08T08:00:00	1	Precipitación	0
163192	7	Sololá	713	San Lucas Tolimán	10	San Lucas Tolimán	12	Diciembre	2023-05-12T00:00:00	2024-11-08T08:00:00	8	Radiación solar	48
163193	7	Sololá	713	San Lucas Tolimán	10	San Lucas Tolimán	12	Diciembre	2023-05-12T00:00:00	2024-11-08T09:00:00	2	Temperatura media	22.8
163194	7	Sololá	713	San Lucas Tolimán	10	San Lucas Tolimán	12	Diciembre	2023-05-12T00:00:00	2024-11-08T09:00:00	4	Temperatura máxima	22.8
163195	7	Sololá	713	San Lucas Tolimán	10	San Lucas Tolimán	12	Diciembre	2023-05-12T00:00:00	2024-11-08T09:00:00	3	Temperatura mínima	20.8
163196	7	Sololá	713	San Lucas Tolimán	10	San Lucas Tolimán	12	Diciembre	2023-05-12T00:00:00	2024-11-08T09:00:00	5	Humedad	52
163197	7	Sololá	713	San Lucas Tolimán	10	San Lucas Tolimán	12	Diciembre	2023-05-12T00:00:00	2024-11-08T09:00:00	6	Velocidad del viento	11.3
163198	7	Sololá	713	San Lucas Tolimán	10	San Lucas Tolimán	12	Diciembre	2023-05-12T00:00:00	2024-11-08T09:00:00	7	Dirección del viento	11.27
163199	7	Sololá	713	San Lucas Tolimán	10	San Lucas Tolimán	12	Diciembre	2023-05-12T00:00:00	2024-11-08T09:00:00	1	Precipitación	0
163200	7	Sololá	713	San Lucas Tolimán	10	San Lucas Tolimán	12	Diciembre	2023-05-12T00:00:00	2024-11-08T09:00:00	8	Radiación solar	382
163201	7	Sololá	713	San Lucas Tolimán	10	San Lucas Tolimán	12	Diciembre	2023-05-12T00:00:00	2024-11-08T10:00:00	2	Temperatura media	22.9
163202	7	Sololá	713	San Lucas Tolimán	10	San Lucas Tolimán	12	Diciembre	2023-05-12T00:00:00	2024-11-08T10:00:00	4	Temperatura máxima	23.8
163203	7	Sololá	713	San Lucas Tolimán	10	San Lucas Tolimán	12	Diciembre	2023-05-12T00:00:00	2024-11-08T10:00:00	3	Temperatura mínima	22.8
163204	7	Sololá	713	San Lucas Tolimán	10	San Lucas Tolimán	12	Diciembre	2023-05-12T00:00:00	2024-11-08T10:00:00	5	Humedad	50
163205	7	Sololá	713	San Lucas Tolimán	10	San Lucas Tolimán	12	Diciembre	2023-05-12T00:00:00	2024-11-08T10:00:00	6	Velocidad del viento	8
163206	7	Sololá	713	San Lucas Tolimán	10	San Lucas Tolimán	12	Diciembre	2023-05-12T00:00:00	2024-11-08T10:00:00	7	Dirección del viento	8.05
163207	7	Sololá	713	San Lucas Tolimán	10	San Lucas Tolimán	12	Diciembre	2023-05-12T00:00:00	2024-11-08T10:00:00	1	Precipitación	0
163208	7	Sololá	713	San Lucas Tolimán	10	San Lucas Tolimán	12	Diciembre	2023-05-12T00:00:00	2024-11-08T10:00:00	8	Radiación solar	465
163209	7	Sololá	713	San Lucas Tolimán	10	San Lucas Tolimán	12	Diciembre	2023-05-12T00:00:00	2024-11-08T11:00:00	2	Temperatura media	24.1
163210	7	Sololá	713	San Lucas Tolimán	10	San Lucas Tolimán	12	Diciembre	2023-05-12T00:00:00	2024-11-08T11:00:00	4	Temperatura máxima	24.1
163211	7	Sololá	713	San Lucas Tolimán	10	San Lucas Tolimán	12	Diciembre	2023-05-12T00:00:00	2024-11-08T11:00:00	3	Temperatura mínima	22.9
163212	7	Sololá	713	San Lucas Tolimán	10	San Lucas Tolimán	12	Diciembre	2023-05-12T00:00:00	2024-11-08T11:00:00	5	Humedad	47
163213	7	Sololá	713	San Lucas Tolimán	10	San Lucas Tolimán	12	Diciembre	2023-05-12T00:00:00	2024-11-08T11:00:00	6	Velocidad del viento	11.3
163214	7	Sololá	713	San Lucas Tolimán	10	San Lucas Tolimán	12	Diciembre	2023-05-12T00:00:00	2024-11-08T11:00:00	7	Dirección del viento	11.27
163215	7	Sololá	713	San Lucas Tolimán	10	San Lucas Tolimán	12	Diciembre	2023-05-12T00:00:00	2024-11-08T11:00:00	1	Precipitación	0
163216	7	Sololá	713	San Lucas Tolimán	10	San Lucas Tolimán	12	Diciembre	2023-05-12T00:00:00	2024-11-08T11:00:00	8	Radiación solar	729
163217	7	Sololá	713	San Lucas Tolimán	10	San Lucas Tolimán	12	Diciembre	2023-05-12T00:00:00	2024-11-08T12:00:00	2	Temperatura media	24
163218	7	Sololá	713	San Lucas Tolimán	10	San Lucas Tolimán	12	Diciembre	2023-05-12T00:00:00	2024-11-08T12:00:00	4	Temperatura máxima	24.7
163219	7	Sololá	713	San Lucas Tolimán	10	San Lucas Tolimán	12	Diciembre	2023-05-12T00:00:00	2024-11-08T12:00:00	3	Temperatura mínima	23.8
163220	7	Sololá	713	San Lucas Tolimán	10	San Lucas Tolimán	12	Diciembre	2023-05-12T00:00:00	2024-11-08T12:00:00	5	Humedad	43
163221	7	Sololá	713	San Lucas Tolimán	10	San Lucas Tolimán	12	Diciembre	2023-05-12T00:00:00	2024-11-08T12:00:00	6	Velocidad del viento	12.9
163222	7	Sololá	713	San Lucas Tolimán	10	San Lucas Tolimán	12	Diciembre	2023-05-12T00:00:00	2024-11-08T12:00:00	7	Dirección del viento	12.87
163223	7	Sololá	713	San Lucas Tolimán	10	San Lucas Tolimán	12	Diciembre	2023-05-12T00:00:00	2024-11-08T12:00:00	1	Precipitación	0
163224	7	Sololá	713	San Lucas Tolimán	10	San Lucas Tolimán	12	Diciembre	2023-05-12T00:00:00	2024-11-08T12:00:00	8	Radiación solar	691
163225	7	Sololá	713	San Lucas Tolimán	10	San Lucas Tolimán	12	Diciembre	2023-05-12T00:00:00	2024-11-08T13:00:00	2	Temperatura media	25.1
163226	7	Sololá	713	San Lucas Tolimán	10	San Lucas Tolimán	12	Diciembre	2023-05-12T00:00:00	2024-11-08T13:00:00	4	Temperatura máxima	25.4
163227	7	Sololá	713	San Lucas Tolimán	10	San Lucas Tolimán	12	Diciembre	2023-05-12T00:00:00	2024-11-08T13:00:00	3	Temperatura mínima	24.1
163228	7	Sololá	713	San Lucas Tolimán	10	San Lucas Tolimán	12	Diciembre	2023-05-12T00:00:00	2024-11-08T13:00:00	5	Humedad	38
163229	7	Sololá	713	San Lucas Tolimán	10	San Lucas Tolimán	12	Diciembre	2023-05-12T00:00:00	2024-11-08T13:00:00	6	Velocidad del viento	11.3
163230	7	Sololá	713	San Lucas Tolimán	10	San Lucas Tolimán	12	Diciembre	2023-05-12T00:00:00	2024-11-08T13:00:00	7	Dirección del viento	11.27
163231	7	Sololá	713	San Lucas Tolimán	10	San Lucas Tolimán	12	Diciembre	2023-05-12T00:00:00	2024-11-08T13:00:00	1	Precipitación	0
163232	7	Sololá	713	San Lucas Tolimán	10	San Lucas Tolimán	12	Diciembre	2023-05-12T00:00:00	2024-11-08T13:00:00	8	Radiación solar	557
163233	7	Sololá	713	San Lucas Tolimán	10	San Lucas Tolimán	12	Diciembre	2023-05-12T00:00:00	2024-11-08T14:00:00	2	Temperatura media	25.2
163234	7	Sololá	713	San Lucas Tolimán	10	San Lucas Tolimán	12	Diciembre	2023-05-12T00:00:00	2024-11-08T14:00:00	4	Temperatura máxima	25.6
163235	7	Sololá	713	San Lucas Tolimán	10	San Lucas Tolimán	12	Diciembre	2023-05-12T00:00:00	2024-11-08T14:00:00	3	Temperatura mínima	24.7
163236	7	Sololá	713	San Lucas Tolimán	10	San Lucas Tolimán	12	Diciembre	2023-05-12T00:00:00	2024-11-08T14:00:00	5	Humedad	39
163237	7	Sololá	713	San Lucas Tolimán	10	San Lucas Tolimán	12	Diciembre	2023-05-12T00:00:00	2024-11-08T14:00:00	6	Velocidad del viento	11.3
163238	7	Sololá	713	San Lucas Tolimán	10	San Lucas Tolimán	12	Diciembre	2023-05-12T00:00:00	2024-11-08T14:00:00	7	Dirección del viento	11.27
163239	7	Sololá	713	San Lucas Tolimán	10	San Lucas Tolimán	12	Diciembre	2023-05-12T00:00:00	2024-11-08T14:00:00	1	Precipitación	0
163240	7	Sololá	713	San Lucas Tolimán	10	San Lucas Tolimán	12	Diciembre	2023-05-12T00:00:00	2024-11-08T14:00:00	8	Radiación solar	642
163241	7	Sololá	713	San Lucas Tolimán	10	San Lucas Tolimán	12	Diciembre	2023-05-12T00:00:00	2024-11-08T15:00:00	2	Temperatura media	25.6
163242	7	Sololá	713	San Lucas Tolimán	10	San Lucas Tolimán	12	Diciembre	2023-05-12T00:00:00	2024-11-08T15:00:00	4	Temperatura máxima	25.7
163243	7	Sololá	713	San Lucas Tolimán	10	San Lucas Tolimán	12	Diciembre	2023-05-12T00:00:00	2024-11-08T15:00:00	3	Temperatura mínima	25.2
163244	7	Sololá	713	San Lucas Tolimán	10	San Lucas Tolimán	12	Diciembre	2023-05-12T00:00:00	2024-11-08T15:00:00	5	Humedad	50
163245	7	Sololá	713	San Lucas Tolimán	10	San Lucas Tolimán	12	Diciembre	2023-05-12T00:00:00	2024-11-08T15:00:00	6	Velocidad del viento	9.7
163246	7	Sololá	713	San Lucas Tolimán	10	San Lucas Tolimán	12	Diciembre	2023-05-12T00:00:00	2024-11-08T15:00:00	7	Dirección del viento	9.66
163247	7	Sololá	713	San Lucas Tolimán	10	San Lucas Tolimán	12	Diciembre	2023-05-12T00:00:00	2024-11-08T15:00:00	1	Precipitación	0
163248	7	Sololá	713	San Lucas Tolimán	10	San Lucas Tolimán	12	Diciembre	2023-05-12T00:00:00	2024-11-08T15:00:00	8	Radiación solar	614
163249	7	Sololá	713	San Lucas Tolimán	10	San Lucas Tolimán	12	Diciembre	2023-05-12T00:00:00	2024-11-08T16:00:00	2	Temperatura media	24.3
163250	7	Sololá	713	San Lucas Tolimán	10	San Lucas Tolimán	12	Diciembre	2023-05-12T00:00:00	2024-11-08T16:00:00	4	Temperatura máxima	25.6
163251	7	Sololá	713	San Lucas Tolimán	10	San Lucas Tolimán	12	Diciembre	2023-05-12T00:00:00	2024-11-08T16:00:00	3	Temperatura mínima	24
163252	7	Sololá	713	San Lucas Tolimán	10	San Lucas Tolimán	12	Diciembre	2023-05-12T00:00:00	2024-11-08T16:00:00	5	Humedad	47
163253	7	Sololá	713	San Lucas Tolimán	10	San Lucas Tolimán	12	Diciembre	2023-05-12T00:00:00	2024-11-08T16:00:00	6	Velocidad del viento	4.8
163254	7	Sololá	713	San Lucas Tolimán	10	San Lucas Tolimán	12	Diciembre	2023-05-12T00:00:00	2024-11-08T16:00:00	7	Dirección del viento	4.83
163255	7	Sololá	713	San Lucas Tolimán	10	San Lucas Tolimán	12	Diciembre	2023-05-12T00:00:00	2024-11-08T16:00:00	1	Precipitación	0
163256	7	Sololá	713	San Lucas Tolimán	10	San Lucas Tolimán	12	Diciembre	2023-05-12T00:00:00	2024-11-08T16:00:00	8	Radiación solar	318
163257	7	Sololá	713	San Lucas Tolimán	10	San Lucas Tolimán	12	Diciembre	2023-05-12T00:00:00	2024-11-08T17:00:00	2	Temperatura media	23.1
163258	7	Sololá	713	San Lucas Tolimán	10	San Lucas Tolimán	12	Diciembre	2023-05-12T00:00:00	2024-11-08T17:00:00	4	Temperatura máxima	24.5
163259	7	Sololá	713	San Lucas Tolimán	10	San Lucas Tolimán	12	Diciembre	2023-05-12T00:00:00	2024-11-08T17:00:00	3	Temperatura mínima	23.1
163260	7	Sololá	713	San Lucas Tolimán	10	San Lucas Tolimán	12	Diciembre	2023-05-12T00:00:00	2024-11-08T17:00:00	5	Humedad	44
163261	7	Sololá	713	San Lucas Tolimán	10	San Lucas Tolimán	12	Diciembre	2023-05-12T00:00:00	2024-11-08T17:00:00	6	Velocidad del viento	9.7
163262	7	Sololá	713	San Lucas Tolimán	10	San Lucas Tolimán	12	Diciembre	2023-05-12T00:00:00	2024-11-08T17:00:00	7	Dirección del viento	9.66
163263	7	Sololá	713	San Lucas Tolimán	10	San Lucas Tolimán	12	Diciembre	2023-05-12T00:00:00	2024-11-08T17:00:00	1	Precipitación	0
163264	7	Sololá	713	San Lucas Tolimán	10	San Lucas Tolimán	12	Diciembre	2023-05-12T00:00:00	2024-11-08T17:00:00	8	Radiación solar	115
163265	7	Sololá	713	San Lucas Tolimán	10	San Lucas Tolimán	12	Diciembre	2023-05-12T00:00:00	2024-11-08T18:00:00	2	Temperatura media	21.7
163266	7	Sololá	713	San Lucas Tolimán	10	San Lucas Tolimán	12	Diciembre	2023-05-12T00:00:00	2024-11-08T18:00:00	4	Temperatura máxima	23.1
163267	7	Sololá	713	San Lucas Tolimán	10	San Lucas Tolimán	12	Diciembre	2023-05-12T00:00:00	2024-11-08T18:00:00	3	Temperatura mínima	21.7
163268	7	Sololá	713	San Lucas Tolimán	10	San Lucas Tolimán	12	Diciembre	2023-05-12T00:00:00	2024-11-08T18:00:00	5	Humedad	48
163269	7	Sololá	713	San Lucas Tolimán	10	San Lucas Tolimán	12	Diciembre	2023-05-12T00:00:00	2024-11-08T18:00:00	6	Velocidad del viento	12.9
163270	7	Sololá	713	San Lucas Tolimán	10	San Lucas Tolimán	12	Diciembre	2023-05-12T00:00:00	2024-11-08T18:00:00	7	Dirección del viento	12.87
163271	7	Sololá	713	San Lucas Tolimán	10	San Lucas Tolimán	12	Diciembre	2023-05-12T00:00:00	2024-11-08T18:00:00	1	Precipitación	0
163272	7	Sololá	713	San Lucas Tolimán	10	San Lucas Tolimán	12	Diciembre	2023-05-12T00:00:00	2024-11-08T18:00:00	8	Radiación solar	6
163273	7	Sololá	713	San Lucas Tolimán	10	San Lucas Tolimán	12	Diciembre	2023-05-12T00:00:00	2024-11-08T19:00:00	2	Temperatura media	20.5
163274	7	Sololá	713	San Lucas Tolimán	10	San Lucas Tolimán	12	Diciembre	2023-05-12T00:00:00	2024-11-08T19:00:00	4	Temperatura máxima	21.8
163275	7	Sololá	713	San Lucas Tolimán	10	San Lucas Tolimán	12	Diciembre	2023-05-12T00:00:00	2024-11-08T19:00:00	3	Temperatura mínima	20.5
163276	7	Sololá	713	San Lucas Tolimán	10	San Lucas Tolimán	12	Diciembre	2023-05-12T00:00:00	2024-11-08T19:00:00	5	Humedad	51
163277	7	Sololá	713	San Lucas Tolimán	10	San Lucas Tolimán	12	Diciembre	2023-05-12T00:00:00	2024-11-08T19:00:00	6	Velocidad del viento	17.7
163278	7	Sololá	713	San Lucas Tolimán	10	San Lucas Tolimán	12	Diciembre	2023-05-12T00:00:00	2024-11-08T19:00:00	7	Dirección del viento	17.7
163279	7	Sololá	713	San Lucas Tolimán	10	San Lucas Tolimán	12	Diciembre	2023-05-12T00:00:00	2024-11-08T19:00:00	1	Precipitación	0
163280	7	Sololá	713	San Lucas Tolimán	10	San Lucas Tolimán	12	Diciembre	2023-05-12T00:00:00	2024-11-08T19:00:00	8	Radiación solar	0
163281	7	Sololá	713	San Lucas Tolimán	10	San Lucas Tolimán	12	Diciembre	2023-05-12T00:00:00	2024-11-08T20:00:00	2	Temperatura media	19.4
163282	7	Sololá	713	San Lucas Tolimán	10	San Lucas Tolimán	12	Diciembre	2023-05-12T00:00:00	2024-11-08T20:00:00	4	Temperatura máxima	20.5
163283	7	Sololá	713	San Lucas Tolimán	10	San Lucas Tolimán	12	Diciembre	2023-05-12T00:00:00	2024-11-08T20:00:00	3	Temperatura mínima	19.4
163284	7	Sololá	713	San Lucas Tolimán	10	San Lucas Tolimán	12	Diciembre	2023-05-12T00:00:00	2024-11-08T20:00:00	5	Humedad	55
163285	7	Sololá	713	San Lucas Tolimán	10	San Lucas Tolimán	12	Diciembre	2023-05-12T00:00:00	2024-11-08T20:00:00	6	Velocidad del viento	4.8
163286	7	Sololá	713	San Lucas Tolimán	10	San Lucas Tolimán	12	Diciembre	2023-05-12T00:00:00	2024-11-08T20:00:00	7	Dirección del viento	4.83
163287	7	Sololá	713	San Lucas Tolimán	10	San Lucas Tolimán	12	Diciembre	2023-05-12T00:00:00	2024-11-08T20:00:00	1	Precipitación	0
163288	7	Sololá	713	San Lucas Tolimán	10	San Lucas Tolimán	12	Diciembre	2023-05-12T00:00:00	2024-11-08T20:00:00	8	Radiación solar	0
163289	7	Sololá	713	San Lucas Tolimán	10	San Lucas Tolimán	12	Diciembre	2023-05-12T00:00:00	2024-11-08T21:00:00	2	Temperatura media	20
163290	7	Sololá	713	San Lucas Tolimán	10	San Lucas Tolimán	12	Diciembre	2023-05-12T00:00:00	2024-11-08T21:00:00	4	Temperatura máxima	20.1
163291	7	Sololá	713	San Lucas Tolimán	10	San Lucas Tolimán	12	Diciembre	2023-05-12T00:00:00	2024-11-08T21:00:00	3	Temperatura mínima	19.3
163292	7	Sololá	713	San Lucas Tolimán	10	San Lucas Tolimán	12	Diciembre	2023-05-12T00:00:00	2024-11-08T21:00:00	5	Humedad	53
163293	7	Sololá	713	San Lucas Tolimán	10	San Lucas Tolimán	12	Diciembre	2023-05-12T00:00:00	2024-11-08T21:00:00	6	Velocidad del viento	9.7
163294	7	Sololá	713	San Lucas Tolimán	10	San Lucas Tolimán	12	Diciembre	2023-05-12T00:00:00	2024-11-08T21:00:00	7	Dirección del viento	9.66
163295	7	Sololá	713	San Lucas Tolimán	10	San Lucas Tolimán	12	Diciembre	2023-05-12T00:00:00	2024-11-08T21:00:00	1	Precipitación	0
163296	7	Sololá	713	San Lucas Tolimán	10	San Lucas Tolimán	12	Diciembre	2023-05-12T00:00:00	2024-11-08T21:00:00	8	Radiación solar	0
163297	7	Sololá	713	San Lucas Tolimán	10	San Lucas Tolimán	12	Diciembre	2023-05-12T00:00:00	2024-11-08T22:00:00	2	Temperatura media	19.4
163298	7	Sololá	713	San Lucas Tolimán	10	San Lucas Tolimán	12	Diciembre	2023-05-12T00:00:00	2024-11-08T22:00:00	4	Temperatura máxima	20.3
163299	7	Sololá	713	San Lucas Tolimán	10	San Lucas Tolimán	12	Diciembre	2023-05-12T00:00:00	2024-11-08T22:00:00	3	Temperatura mínima	19.3
163300	7	Sololá	713	San Lucas Tolimán	10	San Lucas Tolimán	12	Diciembre	2023-05-12T00:00:00	2024-11-08T22:00:00	5	Humedad	55
163301	7	Sololá	713	San Lucas Tolimán	10	San Lucas Tolimán	12	Diciembre	2023-05-12T00:00:00	2024-11-08T22:00:00	6	Velocidad del viento	12.9
163302	7	Sololá	713	San Lucas Tolimán	10	San Lucas Tolimán	12	Diciembre	2023-05-12T00:00:00	2024-11-08T22:00:00	7	Dirección del viento	12.87
163303	7	Sololá	713	San Lucas Tolimán	10	San Lucas Tolimán	12	Diciembre	2023-05-12T00:00:00	2024-11-08T22:00:00	1	Precipitación	0
163304	7	Sololá	713	San Lucas Tolimán	10	San Lucas Tolimán	12	Diciembre	2023-05-12T00:00:00	2024-11-08T22:00:00	8	Radiación solar	0
163305	7	Sololá	713	San Lucas Tolimán	10	San Lucas Tolimán	12	Diciembre	2023-05-12T00:00:00	2024-11-08T23:00:00	2	Temperatura media	19.1
163306	7	Sololá	713	San Lucas Tolimán	10	San Lucas Tolimán	12	Diciembre	2023-05-12T00:00:00	2024-11-08T23:00:00	4	Temperatura máxima	19.6
163307	7	Sololá	713	San Lucas Tolimán	10	San Lucas Tolimán	12	Diciembre	2023-05-12T00:00:00	2024-11-08T23:00:00	3	Temperatura mínima	19.1
163308	7	Sololá	713	San Lucas Tolimán	10	San Lucas Tolimán	12	Diciembre	2023-05-12T00:00:00	2024-11-08T23:00:00	5	Humedad	56
163309	7	Sololá	713	San Lucas Tolimán	10	San Lucas Tolimán	12	Diciembre	2023-05-12T00:00:00	2024-11-08T23:00:00	6	Velocidad del viento	6.4
163310	7	Sololá	713	San Lucas Tolimán	10	San Lucas Tolimán	12	Diciembre	2023-05-12T00:00:00	2024-11-08T23:00:00	7	Dirección del viento	6.44
163311	7	Sololá	713	San Lucas Tolimán	10	San Lucas Tolimán	12	Diciembre	2023-05-12T00:00:00	2024-11-08T23:00:00	1	Precipitación	0
163312	7	Sololá	713	San Lucas Tolimán	10	San Lucas Tolimán	12	Diciembre	2023-05-12T00:00:00	2024-11-08T23:00:00	8	Radiación solar	0
163313	7	Sololá	713	San Lucas Tolimán	10	San Lucas Tolimán	12	Diciembre	2023-06-12T00:00:00	2024-11-08T00:00:00	2	Temperatura media	18.7
163314	7	Sololá	713	San Lucas Tolimán	10	San Lucas Tolimán	12	Diciembre	2023-06-12T00:00:00	2024-11-08T00:00:00	4	Temperatura máxima	19.8
163315	7	Sololá	713	San Lucas Tolimán	10	San Lucas Tolimán	12	Diciembre	2023-06-12T00:00:00	2024-11-08T00:00:00	3	Temperatura mínima	18.6
163316	7	Sololá	713	San Lucas Tolimán	10	San Lucas Tolimán	12	Diciembre	2023-06-12T00:00:00	2024-11-08T00:00:00	5	Humedad	54
163317	7	Sololá	713	San Lucas Tolimán	10	San Lucas Tolimán	12	Diciembre	2023-06-12T00:00:00	2024-11-08T00:00:00	6	Velocidad del viento	6.4
163318	7	Sololá	713	San Lucas Tolimán	10	San Lucas Tolimán	12	Diciembre	2023-06-12T00:00:00	2024-11-08T00:00:00	7	Dirección del viento	6.44
163319	7	Sololá	713	San Lucas Tolimán	10	San Lucas Tolimán	12	Diciembre	2023-06-12T00:00:00	2024-11-08T00:00:00	1	Precipitación	0
163320	7	Sololá	713	San Lucas Tolimán	10	San Lucas Tolimán	12	Diciembre	2023-06-12T00:00:00	2024-11-08T00:00:00	8	Radiación solar	0
163321	7	Sololá	713	San Lucas Tolimán	10	San Lucas Tolimán	12	Diciembre	2023-06-12T00:00:00	2024-11-08T01:00:00	2	Temperatura media	18.4
163322	7	Sololá	713	San Lucas Tolimán	10	San Lucas Tolimán	12	Diciembre	2023-06-12T00:00:00	2024-11-08T01:00:00	4	Temperatura máxima	18.7
163323	7	Sololá	713	San Lucas Tolimán	10	San Lucas Tolimán	12	Diciembre	2023-06-12T00:00:00	2024-11-08T01:00:00	3	Temperatura mínima	18.3
163324	7	Sololá	713	San Lucas Tolimán	10	San Lucas Tolimán	12	Diciembre	2023-06-12T00:00:00	2024-11-08T01:00:00	5	Humedad	57
163325	7	Sololá	713	San Lucas Tolimán	10	San Lucas Tolimán	12	Diciembre	2023-06-12T00:00:00	2024-11-08T01:00:00	6	Velocidad del viento	3.2
163326	7	Sololá	713	San Lucas Tolimán	10	San Lucas Tolimán	12	Diciembre	2023-06-12T00:00:00	2024-11-08T01:00:00	7	Dirección del viento	3.22
163327	7	Sololá	713	San Lucas Tolimán	10	San Lucas Tolimán	12	Diciembre	2023-06-12T00:00:00	2024-11-08T01:00:00	1	Precipitación	0
163328	7	Sololá	713	San Lucas Tolimán	10	San Lucas Tolimán	12	Diciembre	2023-06-12T00:00:00	2024-11-08T01:00:00	8	Radiación solar	0
163329	7	Sololá	713	San Lucas Tolimán	10	San Lucas Tolimán	12	Diciembre	2023-06-12T00:00:00	2024-11-08T02:00:00	2	Temperatura media	19.2
163330	7	Sololá	713	San Lucas Tolimán	10	San Lucas Tolimán	12	Diciembre	2023-06-12T00:00:00	2024-11-08T02:00:00	4	Temperatura máxima	19.2
163331	7	Sololá	713	San Lucas Tolimán	10	San Lucas Tolimán	12	Diciembre	2023-06-12T00:00:00	2024-11-08T02:00:00	3	Temperatura mínima	18.4
163332	7	Sololá	713	San Lucas Tolimán	10	San Lucas Tolimán	12	Diciembre	2023-06-12T00:00:00	2024-11-08T02:00:00	5	Humedad	56
163333	7	Sololá	713	San Lucas Tolimán	10	San Lucas Tolimán	12	Diciembre	2023-06-12T00:00:00	2024-11-08T02:00:00	6	Velocidad del viento	8
163334	7	Sololá	713	San Lucas Tolimán	10	San Lucas Tolimán	12	Diciembre	2023-06-12T00:00:00	2024-11-08T02:00:00	7	Dirección del viento	8.05
163335	7	Sololá	713	San Lucas Tolimán	10	San Lucas Tolimán	12	Diciembre	2023-06-12T00:00:00	2024-11-08T02:00:00	1	Precipitación	0
163336	7	Sololá	713	San Lucas Tolimán	10	San Lucas Tolimán	12	Diciembre	2023-06-12T00:00:00	2024-11-08T02:00:00	8	Radiación solar	0
163337	7	Sololá	713	San Lucas Tolimán	10	San Lucas Tolimán	12	Diciembre	2023-06-12T00:00:00	2024-11-08T03:00:00	2	Temperatura media	18.9
163338	7	Sololá	713	San Lucas Tolimán	10	San Lucas Tolimán	12	Diciembre	2023-06-12T00:00:00	2024-11-08T03:00:00	4	Temperatura máxima	19.2
163339	7	Sololá	713	San Lucas Tolimán	10	San Lucas Tolimán	12	Diciembre	2023-06-12T00:00:00	2024-11-08T03:00:00	3	Temperatura mínima	18.8
163340	7	Sololá	713	San Lucas Tolimán	10	San Lucas Tolimán	12	Diciembre	2023-06-12T00:00:00	2024-11-08T03:00:00	5	Humedad	57
163341	7	Sololá	713	San Lucas Tolimán	10	San Lucas Tolimán	12	Diciembre	2023-06-12T00:00:00	2024-11-08T03:00:00	6	Velocidad del viento	12.9
163342	7	Sololá	713	San Lucas Tolimán	10	San Lucas Tolimán	12	Diciembre	2023-06-12T00:00:00	2024-11-08T03:00:00	7	Dirección del viento	12.87
163343	7	Sololá	713	San Lucas Tolimán	10	San Lucas Tolimán	12	Diciembre	2023-06-12T00:00:00	2024-11-08T03:00:00	1	Precipitación	0
163344	7	Sololá	713	San Lucas Tolimán	10	San Lucas Tolimán	12	Diciembre	2023-06-12T00:00:00	2024-11-08T03:00:00	8	Radiación solar	0
163345	7	Sololá	713	San Lucas Tolimán	10	San Lucas Tolimán	12	Diciembre	2023-06-12T00:00:00	2024-11-08T04:00:00	2	Temperatura media	18.2
163346	7	Sololá	713	San Lucas Tolimán	10	San Lucas Tolimán	12	Diciembre	2023-06-12T00:00:00	2024-11-08T04:00:00	4	Temperatura máxima	18.9
163347	7	Sololá	713	San Lucas Tolimán	10	San Lucas Tolimán	12	Diciembre	2023-06-12T00:00:00	2024-11-08T04:00:00	3	Temperatura mínima	18.2
163348	7	Sololá	713	San Lucas Tolimán	10	San Lucas Tolimán	12	Diciembre	2023-06-12T00:00:00	2024-11-08T04:00:00	5	Humedad	59
163349	7	Sololá	713	San Lucas Tolimán	10	San Lucas Tolimán	12	Diciembre	2023-06-12T00:00:00	2024-11-08T04:00:00	6	Velocidad del viento	8
163350	7	Sololá	713	San Lucas Tolimán	10	San Lucas Tolimán	12	Diciembre	2023-06-12T00:00:00	2024-11-08T04:00:00	7	Dirección del viento	8.05
163351	7	Sololá	713	San Lucas Tolimán	10	San Lucas Tolimán	12	Diciembre	2023-06-12T00:00:00	2024-11-08T04:00:00	1	Precipitación	0
163352	7	Sololá	713	San Lucas Tolimán	10	San Lucas Tolimán	12	Diciembre	2023-06-12T00:00:00	2024-11-08T04:00:00	8	Radiación solar	0
163353	7	Sololá	713	San Lucas Tolimán	10	San Lucas Tolimán	12	Diciembre	2023-06-12T00:00:00	2024-11-08T05:00:00	2	Temperatura media	18.7
163354	7	Sololá	713	San Lucas Tolimán	10	San Lucas Tolimán	12	Diciembre	2023-06-12T00:00:00	2024-11-08T05:00:00	4	Temperatura máxima	18.7
163355	7	Sololá	713	San Lucas Tolimán	10	San Lucas Tolimán	12	Diciembre	2023-06-12T00:00:00	2024-11-08T05:00:00	3	Temperatura mínima	18
163356	7	Sololá	713	San Lucas Tolimán	10	San Lucas Tolimán	12	Diciembre	2023-06-12T00:00:00	2024-11-08T05:00:00	5	Humedad	59
163357	7	Sololá	713	San Lucas Tolimán	10	San Lucas Tolimán	12	Diciembre	2023-06-12T00:00:00	2024-11-08T05:00:00	6	Velocidad del viento	8
163358	7	Sololá	713	San Lucas Tolimán	10	San Lucas Tolimán	12	Diciembre	2023-06-12T00:00:00	2024-11-08T05:00:00	7	Dirección del viento	8.05
163359	7	Sololá	713	San Lucas Tolimán	10	San Lucas Tolimán	12	Diciembre	2023-06-12T00:00:00	2024-11-08T05:00:00	1	Precipitación	0
163360	7	Sololá	713	San Lucas Tolimán	10	San Lucas Tolimán	12	Diciembre	2023-06-12T00:00:00	2024-11-08T05:00:00	8	Radiación solar	0
163361	7	Sololá	713	San Lucas Tolimán	10	San Lucas Tolimán	12	Diciembre	2023-06-12T00:00:00	2024-11-08T06:00:00	2	Temperatura media	18.7
163362	7	Sololá	713	San Lucas Tolimán	10	San Lucas Tolimán	12	Diciembre	2023-06-12T00:00:00	2024-11-08T06:00:00	4	Temperatura máxima	19.1
163363	7	Sololá	713	San Lucas Tolimán	10	San Lucas Tolimán	12	Diciembre	2023-06-12T00:00:00	2024-11-08T06:00:00	3	Temperatura mínima	18.4
163364	7	Sololá	713	San Lucas Tolimán	10	San Lucas Tolimán	12	Diciembre	2023-06-12T00:00:00	2024-11-08T06:00:00	5	Humedad	59
163365	7	Sololá	713	San Lucas Tolimán	10	San Lucas Tolimán	12	Diciembre	2023-06-12T00:00:00	2024-11-08T06:00:00	6	Velocidad del viento	9.7
163366	7	Sololá	713	San Lucas Tolimán	10	San Lucas Tolimán	12	Diciembre	2023-06-12T00:00:00	2024-11-08T06:00:00	7	Dirección del viento	9.66
163367	7	Sololá	713	San Lucas Tolimán	10	San Lucas Tolimán	12	Diciembre	2023-06-12T00:00:00	2024-11-08T06:00:00	1	Precipitación	0
163368	7	Sololá	713	San Lucas Tolimán	10	San Lucas Tolimán	12	Diciembre	2023-06-12T00:00:00	2024-11-08T06:00:00	8	Radiación solar	0
163369	7	Sololá	713	San Lucas Tolimán	10	San Lucas Tolimán	12	Diciembre	2023-06-12T00:00:00	2024-11-08T07:00:00	2	Temperatura media	19.1
163370	7	Sololá	713	San Lucas Tolimán	10	San Lucas Tolimán	12	Diciembre	2023-06-12T00:00:00	2024-11-08T07:00:00	4	Temperatura máxima	19.3
163371	7	Sololá	713	San Lucas Tolimán	10	San Lucas Tolimán	12	Diciembre	2023-06-12T00:00:00	2024-11-08T07:00:00	3	Temperatura mínima	18.6
163372	7	Sololá	713	San Lucas Tolimán	10	San Lucas Tolimán	12	Diciembre	2023-06-12T00:00:00	2024-11-08T07:00:00	5	Humedad	57
163373	7	Sololá	713	San Lucas Tolimán	10	San Lucas Tolimán	12	Diciembre	2023-06-12T00:00:00	2024-11-08T07:00:00	6	Velocidad del viento	9.7
163374	7	Sololá	713	San Lucas Tolimán	10	San Lucas Tolimán	12	Diciembre	2023-06-12T00:00:00	2024-11-08T07:00:00	7	Dirección del viento	9.66
163375	7	Sololá	713	San Lucas Tolimán	10	San Lucas Tolimán	12	Diciembre	2023-06-12T00:00:00	2024-11-08T07:00:00	1	Precipitación	0
163376	7	Sololá	713	San Lucas Tolimán	10	San Lucas Tolimán	12	Diciembre	2023-06-12T00:00:00	2024-11-08T07:00:00	8	Radiación solar	15
163377	7	Sololá	713	San Lucas Tolimán	10	San Lucas Tolimán	12	Diciembre	2023-06-12T00:00:00	2024-11-08T08:00:00	2	Temperatura media	20
163378	7	Sololá	713	San Lucas Tolimán	10	San Lucas Tolimán	12	Diciembre	2023-06-12T00:00:00	2024-11-08T08:00:00	4	Temperatura máxima	20
163379	7	Sololá	713	San Lucas Tolimán	10	San Lucas Tolimán	12	Diciembre	2023-06-12T00:00:00	2024-11-08T08:00:00	3	Temperatura mínima	19
163380	7	Sololá	713	San Lucas Tolimán	10	San Lucas Tolimán	12	Diciembre	2023-06-12T00:00:00	2024-11-08T08:00:00	5	Humedad	55
163381	7	Sololá	713	San Lucas Tolimán	10	San Lucas Tolimán	12	Diciembre	2023-06-12T00:00:00	2024-11-08T08:00:00	6	Velocidad del viento	12.9
163382	7	Sololá	713	San Lucas Tolimán	10	San Lucas Tolimán	12	Diciembre	2023-06-12T00:00:00	2024-11-08T08:00:00	7	Dirección del viento	12.87
163383	7	Sololá	713	San Lucas Tolimán	10	San Lucas Tolimán	12	Diciembre	2023-06-12T00:00:00	2024-11-08T08:00:00	1	Precipitación	0
163384	7	Sololá	713	San Lucas Tolimán	10	San Lucas Tolimán	12	Diciembre	2023-06-12T00:00:00	2024-11-08T08:00:00	8	Radiación solar	48
163385	7	Sololá	713	San Lucas Tolimán	10	San Lucas Tolimán	12	Diciembre	2023-06-12T00:00:00	2024-11-08T09:00:00	2	Temperatura media	20.6
163386	7	Sololá	713	San Lucas Tolimán	10	San Lucas Tolimán	12	Diciembre	2023-06-12T00:00:00	2024-11-08T09:00:00	4	Temperatura máxima	20.7
163387	7	Sololá	713	San Lucas Tolimán	10	San Lucas Tolimán	12	Diciembre	2023-06-12T00:00:00	2024-11-08T09:00:00	3	Temperatura mínima	20
163388	7	Sololá	713	San Lucas Tolimán	10	San Lucas Tolimán	12	Diciembre	2023-06-12T00:00:00	2024-11-08T09:00:00	5	Humedad	53
163389	7	Sololá	713	San Lucas Tolimán	10	San Lucas Tolimán	12	Diciembre	2023-06-12T00:00:00	2024-11-08T09:00:00	6	Velocidad del viento	12.9
163390	7	Sololá	713	San Lucas Tolimán	10	San Lucas Tolimán	12	Diciembre	2023-06-12T00:00:00	2024-11-08T09:00:00	7	Dirección del viento	12.87
163391	7	Sololá	713	San Lucas Tolimán	10	San Lucas Tolimán	12	Diciembre	2023-06-12T00:00:00	2024-11-08T09:00:00	1	Precipitación	0
163392	7	Sololá	713	San Lucas Tolimán	10	San Lucas Tolimán	12	Diciembre	2023-06-12T00:00:00	2024-11-08T09:00:00	8	Radiación solar	155
163393	7	Sololá	713	San Lucas Tolimán	10	San Lucas Tolimán	12	Diciembre	2023-06-12T00:00:00	2024-11-08T10:00:00	2	Temperatura media	22.3
163394	7	Sololá	713	San Lucas Tolimán	10	San Lucas Tolimán	12	Diciembre	2023-06-12T00:00:00	2024-11-08T10:00:00	4	Temperatura máxima	22.3
163395	7	Sololá	713	San Lucas Tolimán	10	San Lucas Tolimán	12	Diciembre	2023-06-12T00:00:00	2024-11-08T10:00:00	3	Temperatura mínima	20.6
163396	7	Sololá	713	San Lucas Tolimán	10	San Lucas Tolimán	12	Diciembre	2023-06-12T00:00:00	2024-11-08T10:00:00	5	Humedad	49
163397	7	Sololá	713	San Lucas Tolimán	10	San Lucas Tolimán	12	Diciembre	2023-06-12T00:00:00	2024-11-08T10:00:00	6	Velocidad del viento	14.5
163398	7	Sololá	713	San Lucas Tolimán	10	San Lucas Tolimán	12	Diciembre	2023-06-12T00:00:00	2024-11-08T10:00:00	7	Dirección del viento	14.48
163399	7	Sololá	713	San Lucas Tolimán	10	San Lucas Tolimán	12	Diciembre	2023-06-12T00:00:00	2024-11-08T10:00:00	1	Precipitación	0
163400	7	Sololá	713	San Lucas Tolimán	10	San Lucas Tolimán	12	Diciembre	2023-06-12T00:00:00	2024-11-08T10:00:00	8	Radiación solar	606
163401	7	Sololá	713	San Lucas Tolimán	10	San Lucas Tolimán	12	Diciembre	2023-06-12T00:00:00	2024-11-08T11:00:00	2	Temperatura media	22.6
163402	7	Sololá	713	San Lucas Tolimán	10	San Lucas Tolimán	12	Diciembre	2023-06-12T00:00:00	2024-11-08T11:00:00	4	Temperatura máxima	22.6
163403	7	Sololá	713	San Lucas Tolimán	10	San Lucas Tolimán	12	Diciembre	2023-06-12T00:00:00	2024-11-08T11:00:00	3	Temperatura mínima	21.9
163404	7	Sololá	713	San Lucas Tolimán	10	San Lucas Tolimán	12	Diciembre	2023-06-12T00:00:00	2024-11-08T11:00:00	5	Humedad	46
163405	7	Sololá	713	San Lucas Tolimán	10	San Lucas Tolimán	12	Diciembre	2023-06-12T00:00:00	2024-11-08T11:00:00	6	Velocidad del viento	14.5
163406	7	Sololá	713	San Lucas Tolimán	10	San Lucas Tolimán	12	Diciembre	2023-06-12T00:00:00	2024-11-08T11:00:00	7	Dirección del viento	14.48
163407	7	Sololá	713	San Lucas Tolimán	10	San Lucas Tolimán	12	Diciembre	2023-06-12T00:00:00	2024-11-08T11:00:00	1	Precipitación	0
163408	7	Sololá	713	San Lucas Tolimán	10	San Lucas Tolimán	12	Diciembre	2023-06-12T00:00:00	2024-11-08T11:00:00	8	Radiación solar	629
163409	7	Sololá	713	San Lucas Tolimán	10	San Lucas Tolimán	12	Diciembre	2023-06-12T00:00:00	2024-11-08T12:00:00	2	Temperatura media	23.3
163410	7	Sololá	713	San Lucas Tolimán	10	San Lucas Tolimán	12	Diciembre	2023-06-12T00:00:00	2024-11-08T12:00:00	4	Temperatura máxima	23.5
163411	7	Sololá	713	San Lucas Tolimán	10	San Lucas Tolimán	12	Diciembre	2023-06-12T00:00:00	2024-11-08T12:00:00	3	Temperatura mínima	22.2
163412	7	Sololá	713	San Lucas Tolimán	10	San Lucas Tolimán	12	Diciembre	2023-06-12T00:00:00	2024-11-08T12:00:00	5	Humedad	43
163413	7	Sololá	713	San Lucas Tolimán	10	San Lucas Tolimán	12	Diciembre	2023-06-12T00:00:00	2024-11-08T12:00:00	6	Velocidad del viento	16.1
163414	7	Sololá	713	San Lucas Tolimán	10	San Lucas Tolimán	12	Diciembre	2023-06-12T00:00:00	2024-11-08T12:00:00	7	Dirección del viento	16.09
163415	7	Sololá	713	San Lucas Tolimán	10	San Lucas Tolimán	12	Diciembre	2023-06-12T00:00:00	2024-11-08T12:00:00	1	Precipitación	0
163416	7	Sololá	713	San Lucas Tolimán	10	San Lucas Tolimán	12	Diciembre	2023-06-12T00:00:00	2024-11-08T12:00:00	8	Radiación solar	878
163417	7	Sololá	713	San Lucas Tolimán	10	San Lucas Tolimán	12	Diciembre	2023-06-12T00:00:00	2024-11-08T13:00:00	2	Temperatura media	22.9
163418	7	Sololá	713	San Lucas Tolimán	10	San Lucas Tolimán	12	Diciembre	2023-06-12T00:00:00	2024-11-08T13:00:00	4	Temperatura máxima	23.3
163419	7	Sololá	713	San Lucas Tolimán	10	San Lucas Tolimán	12	Diciembre	2023-06-12T00:00:00	2024-11-08T13:00:00	3	Temperatura mínima	22.2
163420	7	Sololá	713	San Lucas Tolimán	10	San Lucas Tolimán	12	Diciembre	2023-06-12T00:00:00	2024-11-08T13:00:00	5	Humedad	40
163421	7	Sololá	713	San Lucas Tolimán	10	San Lucas Tolimán	12	Diciembre	2023-06-12T00:00:00	2024-11-08T13:00:00	6	Velocidad del viento	17.7
163422	7	Sololá	713	San Lucas Tolimán	10	San Lucas Tolimán	12	Diciembre	2023-06-12T00:00:00	2024-11-08T13:00:00	7	Dirección del viento	17.7
163423	7	Sololá	713	San Lucas Tolimán	10	San Lucas Tolimán	12	Diciembre	2023-06-12T00:00:00	2024-11-08T13:00:00	1	Precipitación	0
163424	7	Sololá	713	San Lucas Tolimán	10	San Lucas Tolimán	12	Diciembre	2023-06-12T00:00:00	2024-11-08T13:00:00	8	Radiación solar	821
163425	7	Sololá	713	San Lucas Tolimán	10	San Lucas Tolimán	12	Diciembre	2023-06-12T00:00:00	2024-11-08T14:00:00	2	Temperatura media	22.7
163426	7	Sololá	713	San Lucas Tolimán	10	San Lucas Tolimán	12	Diciembre	2023-06-12T00:00:00	2024-11-08T14:00:00	4	Temperatura máxima	23.1
163427	7	Sololá	713	San Lucas Tolimán	10	San Lucas Tolimán	12	Diciembre	2023-06-12T00:00:00	2024-11-08T14:00:00	3	Temperatura mínima	22.6
163428	7	Sololá	713	San Lucas Tolimán	10	San Lucas Tolimán	12	Diciembre	2023-06-12T00:00:00	2024-11-08T14:00:00	5	Humedad	40
163429	7	Sololá	713	San Lucas Tolimán	10	San Lucas Tolimán	12	Diciembre	2023-06-12T00:00:00	2024-11-08T14:00:00	6	Velocidad del viento	16.1
163430	7	Sololá	713	San Lucas Tolimán	10	San Lucas Tolimán	12	Diciembre	2023-06-12T00:00:00	2024-11-08T14:00:00	7	Dirección del viento	16.09
163431	7	Sololá	713	San Lucas Tolimán	10	San Lucas Tolimán	12	Diciembre	2023-06-12T00:00:00	2024-11-08T14:00:00	1	Precipitación	0
163432	7	Sololá	713	San Lucas Tolimán	10	San Lucas Tolimán	12	Diciembre	2023-06-12T00:00:00	2024-11-08T14:00:00	8	Radiación solar	447
163433	7	Sololá	713	San Lucas Tolimán	10	San Lucas Tolimán	12	Diciembre	2023-06-12T00:00:00	2024-11-08T15:00:00	2	Temperatura media	22.6
163434	7	Sololá	713	San Lucas Tolimán	10	San Lucas Tolimán	12	Diciembre	2023-06-12T00:00:00	2024-11-08T15:00:00	4	Temperatura máxima	23.1
163435	7	Sololá	713	San Lucas Tolimán	10	San Lucas Tolimán	12	Diciembre	2023-06-12T00:00:00	2024-11-08T15:00:00	3	Temperatura mínima	21.9
163436	7	Sololá	713	San Lucas Tolimán	10	San Lucas Tolimán	12	Diciembre	2023-06-12T00:00:00	2024-11-08T15:00:00	5	Humedad	43
163437	7	Sololá	713	San Lucas Tolimán	10	San Lucas Tolimán	12	Diciembre	2023-06-12T00:00:00	2024-11-08T15:00:00	6	Velocidad del viento	14.5
163438	7	Sololá	713	San Lucas Tolimán	10	San Lucas Tolimán	12	Diciembre	2023-06-12T00:00:00	2024-11-08T15:00:00	7	Dirección del viento	14.48
163439	7	Sololá	713	San Lucas Tolimán	10	San Lucas Tolimán	12	Diciembre	2023-06-12T00:00:00	2024-11-08T15:00:00	1	Precipitación	0
163440	7	Sololá	713	San Lucas Tolimán	10	San Lucas Tolimán	12	Diciembre	2023-06-12T00:00:00	2024-11-08T15:00:00	8	Radiación solar	328
163441	7	Sololá	713	San Lucas Tolimán	10	San Lucas Tolimán	12	Diciembre	2023-06-12T00:00:00	2024-11-08T16:00:00	2	Temperatura media	22.4
163442	7	Sololá	713	San Lucas Tolimán	10	San Lucas Tolimán	12	Diciembre	2023-06-12T00:00:00	2024-11-08T16:00:00	4	Temperatura máxima	23
163443	7	Sololá	713	San Lucas Tolimán	10	San Lucas Tolimán	12	Diciembre	2023-06-12T00:00:00	2024-11-08T16:00:00	3	Temperatura mínima	22.4
163444	7	Sololá	713	San Lucas Tolimán	10	San Lucas Tolimán	12	Diciembre	2023-06-12T00:00:00	2024-11-08T16:00:00	5	Humedad	43
163445	7	Sololá	713	San Lucas Tolimán	10	San Lucas Tolimán	12	Diciembre	2023-06-12T00:00:00	2024-11-08T16:00:00	6	Velocidad del viento	11.3
163446	7	Sololá	713	San Lucas Tolimán	10	San Lucas Tolimán	12	Diciembre	2023-06-12T00:00:00	2024-11-08T16:00:00	7	Dirección del viento	11.27
163447	7	Sololá	713	San Lucas Tolimán	10	San Lucas Tolimán	12	Diciembre	2023-06-12T00:00:00	2024-11-08T16:00:00	1	Precipitación	0
163448	7	Sololá	713	San Lucas Tolimán	10	San Lucas Tolimán	12	Diciembre	2023-06-12T00:00:00	2024-11-08T16:00:00	8	Radiación solar	483
163449	7	Sololá	713	San Lucas Tolimán	10	San Lucas Tolimán	12	Diciembre	2023-06-12T00:00:00	2024-11-08T17:00:00	2	Temperatura media	21.1
163450	7	Sololá	713	San Lucas Tolimán	10	San Lucas Tolimán	12	Diciembre	2023-06-12T00:00:00	2024-11-08T17:00:00	4	Temperatura máxima	22.4
163451	7	Sololá	713	San Lucas Tolimán	10	San Lucas Tolimán	12	Diciembre	2023-06-12T00:00:00	2024-11-08T17:00:00	3	Temperatura mínima	21.1
163452	7	Sololá	713	San Lucas Tolimán	10	San Lucas Tolimán	12	Diciembre	2023-06-12T00:00:00	2024-11-08T17:00:00	5	Humedad	45
163453	7	Sololá	713	San Lucas Tolimán	10	San Lucas Tolimán	12	Diciembre	2023-06-12T00:00:00	2024-11-08T17:00:00	6	Velocidad del viento	11.3
163454	7	Sololá	713	San Lucas Tolimán	10	San Lucas Tolimán	12	Diciembre	2023-06-12T00:00:00	2024-11-08T17:00:00	7	Dirección del viento	11.27
163455	7	Sololá	713	San Lucas Tolimán	10	San Lucas Tolimán	12	Diciembre	2023-06-12T00:00:00	2024-11-08T17:00:00	1	Precipitación	0
163456	7	Sololá	713	San Lucas Tolimán	10	San Lucas Tolimán	12	Diciembre	2023-06-12T00:00:00	2024-11-08T17:00:00	8	Radiación solar	96
163457	7	Sololá	713	San Lucas Tolimán	10	San Lucas Tolimán	12	Diciembre	2023-06-12T00:00:00	2024-11-08T18:00:00	2	Temperatura media	20
163458	7	Sololá	713	San Lucas Tolimán	10	San Lucas Tolimán	12	Diciembre	2023-06-12T00:00:00	2024-11-08T18:00:00	4	Temperatura máxima	21.1
163459	7	Sololá	713	San Lucas Tolimán	10	San Lucas Tolimán	12	Diciembre	2023-06-12T00:00:00	2024-11-08T18:00:00	3	Temperatura mínima	20
163460	7	Sololá	713	San Lucas Tolimán	10	San Lucas Tolimán	12	Diciembre	2023-06-12T00:00:00	2024-11-08T18:00:00	5	Humedad	47
163461	7	Sololá	713	San Lucas Tolimán	10	San Lucas Tolimán	12	Diciembre	2023-06-12T00:00:00	2024-11-08T18:00:00	6	Velocidad del viento	11.3
163462	7	Sololá	713	San Lucas Tolimán	10	San Lucas Tolimán	12	Diciembre	2023-06-12T00:00:00	2024-11-08T18:00:00	7	Dirección del viento	11.27
163463	7	Sololá	713	San Lucas Tolimán	10	San Lucas Tolimán	12	Diciembre	2023-06-12T00:00:00	2024-11-08T18:00:00	1	Precipitación	0
163464	7	Sololá	713	San Lucas Tolimán	10	San Lucas Tolimán	12	Diciembre	2023-06-12T00:00:00	2024-11-08T18:00:00	8	Radiación solar	21
163465	7	Sololá	713	San Lucas Tolimán	10	San Lucas Tolimán	12	Diciembre	2023-06-12T00:00:00	2024-11-08T19:00:00	2	Temperatura media	19.3
163466	7	Sololá	713	San Lucas Tolimán	10	San Lucas Tolimán	12	Diciembre	2023-06-12T00:00:00	2024-11-08T19:00:00	4	Temperatura máxima	20
163467	7	Sololá	713	San Lucas Tolimán	10	San Lucas Tolimán	12	Diciembre	2023-06-12T00:00:00	2024-11-08T19:00:00	3	Temperatura mínima	19.3
163468	7	Sololá	713	San Lucas Tolimán	10	San Lucas Tolimán	12	Diciembre	2023-06-12T00:00:00	2024-11-08T19:00:00	5	Humedad	49
163469	7	Sololá	713	San Lucas Tolimán	10	San Lucas Tolimán	12	Diciembre	2023-06-12T00:00:00	2024-11-08T19:00:00	6	Velocidad del viento	9.7
163470	7	Sololá	713	San Lucas Tolimán	10	San Lucas Tolimán	12	Diciembre	2023-06-12T00:00:00	2024-11-08T19:00:00	7	Dirección del viento	9.66
163471	7	Sololá	713	San Lucas Tolimán	10	San Lucas Tolimán	12	Diciembre	2023-06-12T00:00:00	2024-11-08T19:00:00	1	Precipitación	0
163472	7	Sololá	713	San Lucas Tolimán	10	San Lucas Tolimán	12	Diciembre	2023-06-12T00:00:00	2024-11-08T19:00:00	8	Radiación solar	0
163473	7	Sololá	713	San Lucas Tolimán	10	San Lucas Tolimán	12	Diciembre	2023-06-12T00:00:00	2024-11-08T20:00:00	2	Temperatura media	18.9
163474	7	Sololá	713	San Lucas Tolimán	10	San Lucas Tolimán	12	Diciembre	2023-06-12T00:00:00	2024-11-08T20:00:00	4	Temperatura máxima	19.3
163475	7	Sololá	713	San Lucas Tolimán	10	San Lucas Tolimán	12	Diciembre	2023-06-12T00:00:00	2024-11-08T20:00:00	3	Temperatura mínima	18.9
163476	7	Sololá	713	San Lucas Tolimán	10	San Lucas Tolimán	12	Diciembre	2023-06-12T00:00:00	2024-11-08T20:00:00	5	Humedad	50
163477	7	Sololá	713	San Lucas Tolimán	10	San Lucas Tolimán	12	Diciembre	2023-06-12T00:00:00	2024-11-08T20:00:00	6	Velocidad del viento	4.8
163478	7	Sololá	713	San Lucas Tolimán	10	San Lucas Tolimán	12	Diciembre	2023-06-12T00:00:00	2024-11-08T20:00:00	7	Dirección del viento	4.83
163479	7	Sololá	713	San Lucas Tolimán	10	San Lucas Tolimán	12	Diciembre	2023-06-12T00:00:00	2024-11-08T20:00:00	1	Precipitación	0
163480	7	Sololá	713	San Lucas Tolimán	10	San Lucas Tolimán	12	Diciembre	2023-06-12T00:00:00	2024-11-08T20:00:00	8	Radiación solar	0
163481	7	Sololá	713	San Lucas Tolimán	10	San Lucas Tolimán	12	Diciembre	2023-06-12T00:00:00	2024-11-08T21:00:00	2	Temperatura media	18.9
163482	7	Sololá	713	San Lucas Tolimán	10	San Lucas Tolimán	12	Diciembre	2023-06-12T00:00:00	2024-11-08T21:00:00	4	Temperatura máxima	19.1
163483	7	Sololá	713	San Lucas Tolimán	10	San Lucas Tolimán	12	Diciembre	2023-06-12T00:00:00	2024-11-08T21:00:00	3	Temperatura mínima	18.8
163484	7	Sololá	713	San Lucas Tolimán	10	San Lucas Tolimán	12	Diciembre	2023-06-12T00:00:00	2024-11-08T21:00:00	5	Humedad	53
163485	7	Sololá	713	San Lucas Tolimán	10	San Lucas Tolimán	12	Diciembre	2023-06-12T00:00:00	2024-11-08T21:00:00	6	Velocidad del viento	4.8
163486	7	Sololá	713	San Lucas Tolimán	10	San Lucas Tolimán	12	Diciembre	2023-06-12T00:00:00	2024-11-08T21:00:00	7	Dirección del viento	4.83
163487	7	Sololá	713	San Lucas Tolimán	10	San Lucas Tolimán	12	Diciembre	2023-06-12T00:00:00	2024-11-08T21:00:00	1	Precipitación	0
163488	7	Sololá	713	San Lucas Tolimán	10	San Lucas Tolimán	12	Diciembre	2023-06-12T00:00:00	2024-11-08T21:00:00	8	Radiación solar	0
163489	7	Sololá	713	San Lucas Tolimán	10	San Lucas Tolimán	12	Diciembre	2023-06-12T00:00:00	2024-11-08T22:00:00	2	Temperatura media	19.3
163490	7	Sololá	713	San Lucas Tolimán	10	San Lucas Tolimán	12	Diciembre	2023-06-12T00:00:00	2024-11-08T22:00:00	4	Temperatura máxima	19.3
163491	7	Sololá	713	San Lucas Tolimán	10	San Lucas Tolimán	12	Diciembre	2023-06-12T00:00:00	2024-11-08T22:00:00	3	Temperatura mínima	18.7
163492	7	Sololá	713	San Lucas Tolimán	10	San Lucas Tolimán	12	Diciembre	2023-06-12T00:00:00	2024-11-08T22:00:00	5	Humedad	49
163493	7	Sololá	713	San Lucas Tolimán	10	San Lucas Tolimán	12	Diciembre	2023-06-12T00:00:00	2024-11-08T22:00:00	6	Velocidad del viento	9.7
163494	7	Sololá	713	San Lucas Tolimán	10	San Lucas Tolimán	12	Diciembre	2023-06-12T00:00:00	2024-11-08T22:00:00	7	Dirección del viento	9.66
163495	7	Sololá	713	San Lucas Tolimán	10	San Lucas Tolimán	12	Diciembre	2023-06-12T00:00:00	2024-11-08T22:00:00	1	Precipitación	0
163496	7	Sololá	713	San Lucas Tolimán	10	San Lucas Tolimán	12	Diciembre	2023-06-12T00:00:00	2024-11-08T22:00:00	8	Radiación solar	0
163497	7	Sololá	713	San Lucas Tolimán	10	San Lucas Tolimán	12	Diciembre	2023-06-12T00:00:00	2024-11-08T23:00:00	2	Temperatura media	18.8
163498	7	Sololá	713	San Lucas Tolimán	10	San Lucas Tolimán	12	Diciembre	2023-06-12T00:00:00	2024-11-08T23:00:00	4	Temperatura máxima	19.3
163499	7	Sololá	713	San Lucas Tolimán	10	San Lucas Tolimán	12	Diciembre	2023-06-12T00:00:00	2024-11-08T23:00:00	3	Temperatura mínima	18.7
163500	7	Sololá	713	San Lucas Tolimán	10	San Lucas Tolimán	12	Diciembre	2023-06-12T00:00:00	2024-11-08T23:00:00	5	Humedad	51
163501	7	Sololá	713	San Lucas Tolimán	10	San Lucas Tolimán	12	Diciembre	2023-06-12T00:00:00	2024-11-08T23:00:00	6	Velocidad del viento	8
163502	7	Sololá	713	San Lucas Tolimán	10	San Lucas Tolimán	12	Diciembre	2023-06-12T00:00:00	2024-11-08T23:00:00	7	Dirección del viento	8.05
163503	7	Sololá	713	San Lucas Tolimán	10	San Lucas Tolimán	12	Diciembre	2023-06-12T00:00:00	2024-11-08T23:00:00	1	Precipitación	0
163504	7	Sololá	713	San Lucas Tolimán	10	San Lucas Tolimán	12	Diciembre	2023-06-12T00:00:00	2024-11-08T23:00:00	8	Radiación solar	0
163505	7	Sololá	713	San Lucas Tolimán	10	San Lucas Tolimán	12	Diciembre	2023-07-12T00:00:00	2024-11-08T00:00:00	2	Temperatura media	18.8
163506	7	Sololá	713	San Lucas Tolimán	10	San Lucas Tolimán	12	Diciembre	2023-07-12T00:00:00	2024-11-08T00:00:00	4	Temperatura máxima	19.1
163507	7	Sololá	713	San Lucas Tolimán	10	San Lucas Tolimán	12	Diciembre	2023-07-12T00:00:00	2024-11-08T00:00:00	3	Temperatura mínima	18.7
163508	7	Sololá	713	San Lucas Tolimán	10	San Lucas Tolimán	12	Diciembre	2023-07-12T00:00:00	2024-11-08T00:00:00	5	Humedad	52
163509	7	Sololá	713	San Lucas Tolimán	10	San Lucas Tolimán	12	Diciembre	2023-07-12T00:00:00	2024-11-08T00:00:00	6	Velocidad del viento	9.7
163510	7	Sololá	713	San Lucas Tolimán	10	San Lucas Tolimán	12	Diciembre	2023-07-12T00:00:00	2024-11-08T00:00:00	7	Dirección del viento	9.66
163511	7	Sololá	713	San Lucas Tolimán	10	San Lucas Tolimán	12	Diciembre	2023-07-12T00:00:00	2024-11-08T00:00:00	1	Precipitación	0
163512	7	Sololá	713	San Lucas Tolimán	10	San Lucas Tolimán	12	Diciembre	2023-07-12T00:00:00	2024-11-08T00:00:00	8	Radiación solar	0
163513	7	Sololá	713	San Lucas Tolimán	10	San Lucas Tolimán	12	Diciembre	2023-07-12T00:00:00	2024-11-08T01:00:00	2	Temperatura media	19.2
163514	7	Sololá	713	San Lucas Tolimán	10	San Lucas Tolimán	12	Diciembre	2023-07-12T00:00:00	2024-11-08T01:00:00	4	Temperatura máxima	19.3
163515	7	Sololá	713	San Lucas Tolimán	10	San Lucas Tolimán	12	Diciembre	2023-07-12T00:00:00	2024-11-08T01:00:00	3	Temperatura mínima	18.6
163516	7	Sololá	713	San Lucas Tolimán	10	San Lucas Tolimán	12	Diciembre	2023-07-12T00:00:00	2024-11-08T01:00:00	5	Humedad	51
163517	7	Sololá	713	San Lucas Tolimán	10	San Lucas Tolimán	12	Diciembre	2023-07-12T00:00:00	2024-11-08T01:00:00	6	Velocidad del viento	9.7
163518	7	Sololá	713	San Lucas Tolimán	10	San Lucas Tolimán	12	Diciembre	2023-07-12T00:00:00	2024-11-08T01:00:00	7	Dirección del viento	9.66
163519	7	Sololá	713	San Lucas Tolimán	10	San Lucas Tolimán	12	Diciembre	2023-07-12T00:00:00	2024-11-08T01:00:00	1	Precipitación	0
163520	7	Sololá	713	San Lucas Tolimán	10	San Lucas Tolimán	12	Diciembre	2023-07-12T00:00:00	2024-11-08T01:00:00	8	Radiación solar	0
163521	7	Sololá	713	San Lucas Tolimán	10	San Lucas Tolimán	12	Diciembre	2023-07-12T00:00:00	2024-11-08T02:00:00	2	Temperatura media	18.7
163522	7	Sololá	713	San Lucas Tolimán	10	San Lucas Tolimán	12	Diciembre	2023-07-12T00:00:00	2024-11-08T02:00:00	4	Temperatura máxima	19.2
163523	7	Sololá	713	San Lucas Tolimán	10	San Lucas Tolimán	12	Diciembre	2023-07-12T00:00:00	2024-11-08T02:00:00	3	Temperatura mínima	18.7
163524	7	Sololá	713	San Lucas Tolimán	10	San Lucas Tolimán	12	Diciembre	2023-07-12T00:00:00	2024-11-08T02:00:00	5	Humedad	54
163525	7	Sololá	713	San Lucas Tolimán	10	San Lucas Tolimán	12	Diciembre	2023-07-12T00:00:00	2024-11-08T02:00:00	6	Velocidad del viento	3.2
163526	7	Sololá	713	San Lucas Tolimán	10	San Lucas Tolimán	12	Diciembre	2023-07-12T00:00:00	2024-11-08T02:00:00	7	Dirección del viento	3.22
163527	7	Sololá	713	San Lucas Tolimán	10	San Lucas Tolimán	12	Diciembre	2023-07-12T00:00:00	2024-11-08T02:00:00	1	Precipitación	0
163528	7	Sololá	713	San Lucas Tolimán	10	San Lucas Tolimán	12	Diciembre	2023-07-12T00:00:00	2024-11-08T02:00:00	8	Radiación solar	0
163529	7	Sololá	713	San Lucas Tolimán	10	San Lucas Tolimán	12	Diciembre	2023-07-12T00:00:00	2024-11-08T03:00:00	2	Temperatura media	18.3
163530	7	Sololá	713	San Lucas Tolimán	10	San Lucas Tolimán	12	Diciembre	2023-07-12T00:00:00	2024-11-08T03:00:00	4	Temperatura máxima	18.7
163531	7	Sololá	713	San Lucas Tolimán	10	San Lucas Tolimán	12	Diciembre	2023-07-12T00:00:00	2024-11-08T03:00:00	3	Temperatura mínima	18.2
163532	7	Sololá	713	San Lucas Tolimán	10	San Lucas Tolimán	12	Diciembre	2023-07-12T00:00:00	2024-11-08T03:00:00	5	Humedad	56
163533	7	Sololá	713	San Lucas Tolimán	10	San Lucas Tolimán	12	Diciembre	2023-07-12T00:00:00	2024-11-08T03:00:00	6	Velocidad del viento	3.2
163534	7	Sololá	713	San Lucas Tolimán	10	San Lucas Tolimán	12	Diciembre	2023-07-12T00:00:00	2024-11-08T03:00:00	7	Dirección del viento	3.22
163535	7	Sololá	713	San Lucas Tolimán	10	San Lucas Tolimán	12	Diciembre	2023-07-12T00:00:00	2024-11-08T03:00:00	1	Precipitación	0
163536	7	Sololá	713	San Lucas Tolimán	10	San Lucas Tolimán	12	Diciembre	2023-07-12T00:00:00	2024-11-08T03:00:00	8	Radiación solar	0
163537	7	Sololá	713	San Lucas Tolimán	10	San Lucas Tolimán	12	Diciembre	2023-07-12T00:00:00	2024-11-08T04:00:00	2	Temperatura media	18.6
163538	7	Sololá	713	San Lucas Tolimán	10	San Lucas Tolimán	12	Diciembre	2023-07-12T00:00:00	2024-11-08T04:00:00	4	Temperatura máxima	18.6
163539	7	Sololá	713	San Lucas Tolimán	10	San Lucas Tolimán	12	Diciembre	2023-07-12T00:00:00	2024-11-08T04:00:00	3	Temperatura mínima	17.7
163540	7	Sololá	713	San Lucas Tolimán	10	San Lucas Tolimán	12	Diciembre	2023-07-12T00:00:00	2024-11-08T04:00:00	5	Humedad	55
163541	7	Sololá	713	San Lucas Tolimán	10	San Lucas Tolimán	12	Diciembre	2023-07-12T00:00:00	2024-11-08T04:00:00	6	Velocidad del viento	3.2
163542	7	Sololá	713	San Lucas Tolimán	10	San Lucas Tolimán	12	Diciembre	2023-07-12T00:00:00	2024-11-08T04:00:00	7	Dirección del viento	3.22
163543	7	Sololá	713	San Lucas Tolimán	10	San Lucas Tolimán	12	Diciembre	2023-07-12T00:00:00	2024-11-08T04:00:00	1	Precipitación	0
163544	7	Sololá	713	San Lucas Tolimán	10	San Lucas Tolimán	12	Diciembre	2023-07-12T00:00:00	2024-11-08T04:00:00	8	Radiación solar	0
163545	7	Sololá	713	San Lucas Tolimán	10	San Lucas Tolimán	12	Diciembre	2023-07-12T00:00:00	2024-11-08T05:00:00	2	Temperatura media	18.7
163546	7	Sololá	713	San Lucas Tolimán	10	San Lucas Tolimán	12	Diciembre	2023-07-12T00:00:00	2024-11-08T05:00:00	4	Temperatura máxima	18.8
163547	7	Sololá	713	San Lucas Tolimán	10	San Lucas Tolimán	12	Diciembre	2023-07-12T00:00:00	2024-11-08T05:00:00	3	Temperatura mínima	18.3
163548	7	Sololá	713	San Lucas Tolimán	10	San Lucas Tolimán	12	Diciembre	2023-07-12T00:00:00	2024-11-08T05:00:00	5	Humedad	55
163549	7	Sololá	713	San Lucas Tolimán	10	San Lucas Tolimán	12	Diciembre	2023-07-12T00:00:00	2024-11-08T05:00:00	6	Velocidad del viento	4.8
163550	7	Sololá	713	San Lucas Tolimán	10	San Lucas Tolimán	12	Diciembre	2023-07-12T00:00:00	2024-11-08T05:00:00	7	Dirección del viento	4.83
163551	7	Sololá	713	San Lucas Tolimán	10	San Lucas Tolimán	12	Diciembre	2023-07-12T00:00:00	2024-11-08T05:00:00	1	Precipitación	0
163552	7	Sololá	713	San Lucas Tolimán	10	San Lucas Tolimán	12	Diciembre	2023-07-12T00:00:00	2024-11-08T05:00:00	8	Radiación solar	0
163553	7	Sololá	713	San Lucas Tolimán	10	San Lucas Tolimán	12	Diciembre	2023-07-12T00:00:00	2024-11-08T06:00:00	2	Temperatura media	18.1
163554	7	Sololá	713	San Lucas Tolimán	10	San Lucas Tolimán	12	Diciembre	2023-07-12T00:00:00	2024-11-08T06:00:00	4	Temperatura máxima	18.7
163555	7	Sololá	713	San Lucas Tolimán	10	San Lucas Tolimán	12	Diciembre	2023-07-12T00:00:00	2024-11-08T06:00:00	3	Temperatura mínima	18.1
163556	7	Sololá	713	San Lucas Tolimán	10	San Lucas Tolimán	12	Diciembre	2023-07-12T00:00:00	2024-11-08T06:00:00	5	Humedad	57
163557	7	Sololá	713	San Lucas Tolimán	10	San Lucas Tolimán	12	Diciembre	2023-07-12T00:00:00	2024-11-08T06:00:00	6	Velocidad del viento	4.8
163558	7	Sololá	713	San Lucas Tolimán	10	San Lucas Tolimán	12	Diciembre	2023-07-12T00:00:00	2024-11-08T06:00:00	7	Dirección del viento	4.83
163559	7	Sololá	713	San Lucas Tolimán	10	San Lucas Tolimán	12	Diciembre	2023-07-12T00:00:00	2024-11-08T06:00:00	1	Precipitación	0
163560	7	Sololá	713	San Lucas Tolimán	10	San Lucas Tolimán	12	Diciembre	2023-07-12T00:00:00	2024-11-08T06:00:00	8	Radiación solar	0
163561	7	Sololá	713	San Lucas Tolimán	10	San Lucas Tolimán	12	Diciembre	2023-07-12T00:00:00	2024-11-08T07:00:00	2	Temperatura media	18.2
163562	7	Sololá	713	San Lucas Tolimán	10	San Lucas Tolimán	12	Diciembre	2023-07-12T00:00:00	2024-11-08T07:00:00	4	Temperatura máxima	18.2
163563	7	Sololá	713	San Lucas Tolimán	10	San Lucas Tolimán	12	Diciembre	2023-07-12T00:00:00	2024-11-08T07:00:00	3	Temperatura mínima	17.8
163564	7	Sololá	713	San Lucas Tolimán	10	San Lucas Tolimán	12	Diciembre	2023-07-12T00:00:00	2024-11-08T07:00:00	5	Humedad	54
163565	7	Sololá	713	San Lucas Tolimán	10	San Lucas Tolimán	12	Diciembre	2023-07-12T00:00:00	2024-11-08T07:00:00	6	Velocidad del viento	6.4
163566	7	Sololá	713	San Lucas Tolimán	10	San Lucas Tolimán	12	Diciembre	2023-07-12T00:00:00	2024-11-08T07:00:00	7	Dirección del viento	6.44
163567	7	Sololá	713	San Lucas Tolimán	10	San Lucas Tolimán	12	Diciembre	2023-07-12T00:00:00	2024-11-08T07:00:00	1	Precipitación	0
163568	7	Sololá	713	San Lucas Tolimán	10	San Lucas Tolimán	12	Diciembre	2023-07-12T00:00:00	2024-11-08T07:00:00	8	Radiación solar	13
163569	7	Sololá	713	San Lucas Tolimán	10	San Lucas Tolimán	12	Diciembre	2023-07-12T00:00:00	2024-11-08T08:00:00	2	Temperatura media	18.3
163570	7	Sololá	713	San Lucas Tolimán	10	San Lucas Tolimán	12	Diciembre	2023-07-12T00:00:00	2024-11-08T08:00:00	4	Temperatura máxima	18.5
163571	7	Sololá	713	San Lucas Tolimán	10	San Lucas Tolimán	12	Diciembre	2023-07-12T00:00:00	2024-11-08T08:00:00	3	Temperatura mínima	17.9
163572	7	Sololá	713	San Lucas Tolimán	10	San Lucas Tolimán	12	Diciembre	2023-07-12T00:00:00	2024-11-08T08:00:00	5	Humedad	55
163573	7	Sololá	713	San Lucas Tolimán	10	San Lucas Tolimán	12	Diciembre	2023-07-12T00:00:00	2024-11-08T08:00:00	6	Velocidad del viento	4.8
163574	7	Sololá	713	San Lucas Tolimán	10	San Lucas Tolimán	12	Diciembre	2023-07-12T00:00:00	2024-11-08T08:00:00	7	Dirección del viento	4.83
163575	7	Sololá	713	San Lucas Tolimán	10	San Lucas Tolimán	12	Diciembre	2023-07-12T00:00:00	2024-11-08T08:00:00	1	Precipitación	0
163576	7	Sololá	713	San Lucas Tolimán	10	San Lucas Tolimán	12	Diciembre	2023-07-12T00:00:00	2024-11-08T08:00:00	8	Radiación solar	48
163577	7	Sololá	713	San Lucas Tolimán	10	San Lucas Tolimán	12	Diciembre	2023-07-12T00:00:00	2024-11-08T09:00:00	2	Temperatura media	20.8
163578	7	Sololá	713	San Lucas Tolimán	10	San Lucas Tolimán	12	Diciembre	2023-07-12T00:00:00	2024-11-08T09:00:00	4	Temperatura máxima	20.8
163579	7	Sololá	713	San Lucas Tolimán	10	San Lucas Tolimán	12	Diciembre	2023-07-12T00:00:00	2024-11-08T09:00:00	3	Temperatura mínima	18.2
163580	7	Sololá	713	San Lucas Tolimán	10	San Lucas Tolimán	12	Diciembre	2023-07-12T00:00:00	2024-11-08T09:00:00	5	Humedad	51
163581	7	Sololá	713	San Lucas Tolimán	10	San Lucas Tolimán	12	Diciembre	2023-07-12T00:00:00	2024-11-08T09:00:00	6	Velocidad del viento	6.4
163582	7	Sololá	713	San Lucas Tolimán	10	San Lucas Tolimán	12	Diciembre	2023-07-12T00:00:00	2024-11-08T09:00:00	7	Dirección del viento	6.44
163583	7	Sololá	713	San Lucas Tolimán	10	San Lucas Tolimán	12	Diciembre	2023-07-12T00:00:00	2024-11-08T09:00:00	1	Precipitación	0
163584	7	Sololá	713	San Lucas Tolimán	10	San Lucas Tolimán	12	Diciembre	2023-07-12T00:00:00	2024-11-08T09:00:00	8	Radiación solar	319
163585	7	Sololá	713	San Lucas Tolimán	10	San Lucas Tolimán	12	Diciembre	2023-07-12T00:00:00	2024-11-08T10:00:00	2	Temperatura media	21.8
163586	7	Sololá	713	San Lucas Tolimán	10	San Lucas Tolimán	12	Diciembre	2023-07-12T00:00:00	2024-11-08T10:00:00	4	Temperatura máxima	22.1
163587	7	Sololá	713	San Lucas Tolimán	10	San Lucas Tolimán	12	Diciembre	2023-07-12T00:00:00	2024-11-08T10:00:00	3	Temperatura mínima	20.8
163588	7	Sololá	713	San Lucas Tolimán	10	San Lucas Tolimán	12	Diciembre	2023-07-12T00:00:00	2024-11-08T10:00:00	5	Humedad	46
163589	7	Sololá	713	San Lucas Tolimán	10	San Lucas Tolimán	12	Diciembre	2023-07-12T00:00:00	2024-11-08T10:00:00	6	Velocidad del viento	11.3
163590	7	Sololá	713	San Lucas Tolimán	10	San Lucas Tolimán	12	Diciembre	2023-07-12T00:00:00	2024-11-08T10:00:00	7	Dirección del viento	11.27
163591	7	Sololá	713	San Lucas Tolimán	10	San Lucas Tolimán	12	Diciembre	2023-07-12T00:00:00	2024-11-08T10:00:00	1	Precipitación	0
163592	7	Sololá	713	San Lucas Tolimán	10	San Lucas Tolimán	12	Diciembre	2023-07-12T00:00:00	2024-11-08T10:00:00	8	Radiación solar	672
163593	7	Sololá	713	San Lucas Tolimán	10	San Lucas Tolimán	12	Diciembre	2023-07-12T00:00:00	2024-11-08T11:00:00	2	Temperatura media	22.4
163594	7	Sololá	713	San Lucas Tolimán	10	San Lucas Tolimán	12	Diciembre	2023-07-12T00:00:00	2024-11-08T11:00:00	4	Temperatura máxima	22.4
163595	7	Sololá	713	San Lucas Tolimán	10	San Lucas Tolimán	12	Diciembre	2023-07-12T00:00:00	2024-11-08T11:00:00	3	Temperatura mínima	21.7
163596	7	Sololá	713	San Lucas Tolimán	10	San Lucas Tolimán	12	Diciembre	2023-07-12T00:00:00	2024-11-08T11:00:00	5	Humedad	45
163597	7	Sololá	713	San Lucas Tolimán	10	San Lucas Tolimán	12	Diciembre	2023-07-12T00:00:00	2024-11-08T11:00:00	6	Velocidad del viento	22.5
163598	7	Sololá	713	San Lucas Tolimán	10	San Lucas Tolimán	12	Diciembre	2023-07-12T00:00:00	2024-11-08T11:00:00	7	Dirección del viento	22.53
163599	7	Sololá	713	San Lucas Tolimán	10	San Lucas Tolimán	12	Diciembre	2023-07-12T00:00:00	2024-11-08T11:00:00	1	Precipitación	0
163600	7	Sololá	713	San Lucas Tolimán	10	San Lucas Tolimán	12	Diciembre	2023-07-12T00:00:00	2024-11-08T11:00:00	8	Radiación solar	786
163601	7	Sololá	713	San Lucas Tolimán	10	San Lucas Tolimán	12	Diciembre	2023-07-12T00:00:00	2024-11-08T12:00:00	2	Temperatura media	23.1
163602	7	Sololá	713	San Lucas Tolimán	10	San Lucas Tolimán	12	Diciembre	2023-07-12T00:00:00	2024-11-08T12:00:00	4	Temperatura máxima	23.3
163603	7	Sololá	713	San Lucas Tolimán	10	San Lucas Tolimán	12	Diciembre	2023-07-12T00:00:00	2024-11-08T12:00:00	3	Temperatura mínima	21.7
163604	7	Sololá	713	San Lucas Tolimán	10	San Lucas Tolimán	12	Diciembre	2023-07-12T00:00:00	2024-11-08T12:00:00	5	Humedad	43
163605	7	Sololá	713	San Lucas Tolimán	10	San Lucas Tolimán	12	Diciembre	2023-07-12T00:00:00	2024-11-08T12:00:00	6	Velocidad del viento	20.9
163606	7	Sololá	713	San Lucas Tolimán	10	San Lucas Tolimán	12	Diciembre	2023-07-12T00:00:00	2024-11-08T12:00:00	7	Dirección del viento	20.92
163607	7	Sololá	713	San Lucas Tolimán	10	San Lucas Tolimán	12	Diciembre	2023-07-12T00:00:00	2024-11-08T12:00:00	1	Precipitación	0
163608	7	Sololá	713	San Lucas Tolimán	10	San Lucas Tolimán	12	Diciembre	2023-07-12T00:00:00	2024-11-08T12:00:00	8	Radiación solar	753
163609	7	Sololá	713	San Lucas Tolimán	10	San Lucas Tolimán	12	Diciembre	2023-07-12T00:00:00	2024-11-08T13:00:00	2	Temperatura media	24.1
163610	7	Sololá	713	San Lucas Tolimán	10	San Lucas Tolimán	12	Diciembre	2023-07-12T00:00:00	2024-11-08T13:00:00	4	Temperatura máxima	24.1
163611	7	Sololá	713	San Lucas Tolimán	10	San Lucas Tolimán	12	Diciembre	2023-07-12T00:00:00	2024-11-08T13:00:00	3	Temperatura mínima	23.1
163612	7	Sololá	713	San Lucas Tolimán	10	San Lucas Tolimán	12	Diciembre	2023-07-12T00:00:00	2024-11-08T13:00:00	5	Humedad	41
163613	7	Sololá	713	San Lucas Tolimán	10	San Lucas Tolimán	12	Diciembre	2023-07-12T00:00:00	2024-11-08T13:00:00	6	Velocidad del viento	14.5
163614	7	Sololá	713	San Lucas Tolimán	10	San Lucas Tolimán	12	Diciembre	2023-07-12T00:00:00	2024-11-08T13:00:00	7	Dirección del viento	14.48
163615	7	Sololá	713	San Lucas Tolimán	10	San Lucas Tolimán	12	Diciembre	2023-07-12T00:00:00	2024-11-08T13:00:00	1	Precipitación	0
163616	7	Sololá	713	San Lucas Tolimán	10	San Lucas Tolimán	12	Diciembre	2023-07-12T00:00:00	2024-11-08T13:00:00	8	Radiación solar	801
163617	7	Sololá	713	San Lucas Tolimán	10	San Lucas Tolimán	12	Diciembre	2023-07-12T00:00:00	2024-11-08T14:00:00	2	Temperatura media	23.9
163618	7	Sololá	713	San Lucas Tolimán	10	San Lucas Tolimán	12	Diciembre	2023-07-12T00:00:00	2024-11-08T14:00:00	4	Temperatura máxima	24.3
163619	7	Sololá	713	San Lucas Tolimán	10	San Lucas Tolimán	12	Diciembre	2023-07-12T00:00:00	2024-11-08T14:00:00	3	Temperatura mínima	23.4
163620	7	Sololá	713	San Lucas Tolimán	10	San Lucas Tolimán	12	Diciembre	2023-07-12T00:00:00	2024-11-08T14:00:00	5	Humedad	43
163621	7	Sololá	713	San Lucas Tolimán	10	San Lucas Tolimán	12	Diciembre	2023-07-12T00:00:00	2024-11-08T14:00:00	6	Velocidad del viento	14.5
163622	7	Sololá	713	San Lucas Tolimán	10	San Lucas Tolimán	12	Diciembre	2023-07-12T00:00:00	2024-11-08T14:00:00	7	Dirección del viento	14.48
163623	7	Sololá	713	San Lucas Tolimán	10	San Lucas Tolimán	12	Diciembre	2023-07-12T00:00:00	2024-11-08T14:00:00	1	Precipitación	0
163624	7	Sololá	713	San Lucas Tolimán	10	San Lucas Tolimán	12	Diciembre	2023-07-12T00:00:00	2024-11-08T14:00:00	8	Radiación solar	308
163625	7	Sololá	713	San Lucas Tolimán	10	San Lucas Tolimán	12	Diciembre	2023-07-12T00:00:00	2024-11-08T15:00:00	2	Temperatura media	23.3
163626	7	Sololá	713	San Lucas Tolimán	10	San Lucas Tolimán	12	Diciembre	2023-07-12T00:00:00	2024-11-08T15:00:00	4	Temperatura máxima	23.9
163627	7	Sololá	713	San Lucas Tolimán	10	San Lucas Tolimán	12	Diciembre	2023-07-12T00:00:00	2024-11-08T15:00:00	3	Temperatura mínima	23.1
163628	7	Sololá	713	San Lucas Tolimán	10	San Lucas Tolimán	12	Diciembre	2023-07-12T00:00:00	2024-11-08T15:00:00	5	Humedad	45
163629	7	Sololá	713	San Lucas Tolimán	10	San Lucas Tolimán	12	Diciembre	2023-07-12T00:00:00	2024-11-08T15:00:00	6	Velocidad del viento	11.3
163630	7	Sololá	713	San Lucas Tolimán	10	San Lucas Tolimán	12	Diciembre	2023-07-12T00:00:00	2024-11-08T15:00:00	7	Dirección del viento	11.27
163631	7	Sololá	713	San Lucas Tolimán	10	San Lucas Tolimán	12	Diciembre	2023-07-12T00:00:00	2024-11-08T15:00:00	1	Precipitación	0
163632	7	Sololá	713	San Lucas Tolimán	10	San Lucas Tolimán	12	Diciembre	2023-07-12T00:00:00	2024-11-08T15:00:00	8	Radiación solar	164
163633	7	Sololá	713	San Lucas Tolimán	10	San Lucas Tolimán	12	Diciembre	2023-07-12T00:00:00	2024-11-08T16:00:00	2	Temperatura media	22.1
163634	7	Sololá	713	San Lucas Tolimán	10	San Lucas Tolimán	12	Diciembre	2023-07-12T00:00:00	2024-11-08T16:00:00	4	Temperatura máxima	23.3
163635	7	Sololá	713	San Lucas Tolimán	10	San Lucas Tolimán	12	Diciembre	2023-07-12T00:00:00	2024-11-08T16:00:00	3	Temperatura mínima	21.9
163636	7	Sololá	713	San Lucas Tolimán	10	San Lucas Tolimán	12	Diciembre	2023-07-12T00:00:00	2024-11-08T16:00:00	5	Humedad	48
163637	7	Sololá	713	San Lucas Tolimán	10	San Lucas Tolimán	12	Diciembre	2023-07-12T00:00:00	2024-11-08T16:00:00	6	Velocidad del viento	12.9
163638	7	Sololá	713	San Lucas Tolimán	10	San Lucas Tolimán	12	Diciembre	2023-07-12T00:00:00	2024-11-08T16:00:00	7	Dirección del viento	12.87
163639	7	Sololá	713	San Lucas Tolimán	10	San Lucas Tolimán	12	Diciembre	2023-07-12T00:00:00	2024-11-08T16:00:00	1	Precipitación	0
163640	7	Sololá	713	San Lucas Tolimán	10	San Lucas Tolimán	12	Diciembre	2023-07-12T00:00:00	2024-11-08T16:00:00	8	Radiación solar	99
163641	7	Sololá	713	San Lucas Tolimán	10	San Lucas Tolimán	12	Diciembre	2023-07-12T00:00:00	2024-11-08T17:00:00	2	Temperatura media	21.4
163642	7	Sololá	713	San Lucas Tolimán	10	San Lucas Tolimán	12	Diciembre	2023-07-12T00:00:00	2024-11-08T17:00:00	4	Temperatura máxima	22.4
163643	7	Sololá	713	San Lucas Tolimán	10	San Lucas Tolimán	12	Diciembre	2023-07-12T00:00:00	2024-11-08T17:00:00	3	Temperatura mínima	21.4
163644	7	Sololá	713	San Lucas Tolimán	10	San Lucas Tolimán	12	Diciembre	2023-07-12T00:00:00	2024-11-08T17:00:00	5	Humedad	49
163645	7	Sololá	713	San Lucas Tolimán	10	San Lucas Tolimán	12	Diciembre	2023-07-12T00:00:00	2024-11-08T17:00:00	6	Velocidad del viento	11.3
163646	7	Sololá	713	San Lucas Tolimán	10	San Lucas Tolimán	12	Diciembre	2023-07-12T00:00:00	2024-11-08T17:00:00	7	Dirección del viento	11.27
163647	7	Sololá	713	San Lucas Tolimán	10	San Lucas Tolimán	12	Diciembre	2023-07-12T00:00:00	2024-11-08T17:00:00	1	Precipitación	0
163648	7	Sololá	713	San Lucas Tolimán	10	San Lucas Tolimán	12	Diciembre	2023-07-12T00:00:00	2024-11-08T17:00:00	8	Radiación solar	56
163649	7	Sololá	713	San Lucas Tolimán	10	San Lucas Tolimán	12	Diciembre	2023-07-12T00:00:00	2024-11-08T18:00:00	2	Temperatura media	20.3
163650	7	Sololá	713	San Lucas Tolimán	10	San Lucas Tolimán	12	Diciembre	2023-07-12T00:00:00	2024-11-08T18:00:00	4	Temperatura máxima	21.4
163651	7	Sololá	713	San Lucas Tolimán	10	San Lucas Tolimán	12	Diciembre	2023-07-12T00:00:00	2024-11-08T18:00:00	3	Temperatura mínima	20.3
163652	7	Sololá	713	San Lucas Tolimán	10	San Lucas Tolimán	12	Diciembre	2023-07-12T00:00:00	2024-11-08T18:00:00	5	Humedad	53
163653	7	Sololá	713	San Lucas Tolimán	10	San Lucas Tolimán	12	Diciembre	2023-07-12T00:00:00	2024-11-08T18:00:00	6	Velocidad del viento	6.4
163654	7	Sololá	713	San Lucas Tolimán	10	San Lucas Tolimán	12	Diciembre	2023-07-12T00:00:00	2024-11-08T18:00:00	7	Dirección del viento	6.44
163655	7	Sololá	713	San Lucas Tolimán	10	San Lucas Tolimán	12	Diciembre	2023-07-12T00:00:00	2024-11-08T18:00:00	1	Precipitación	0
163656	7	Sololá	713	San Lucas Tolimán	10	San Lucas Tolimán	12	Diciembre	2023-07-12T00:00:00	2024-11-08T18:00:00	8	Radiación solar	9
163657	7	Sololá	713	San Lucas Tolimán	10	San Lucas Tolimán	12	Diciembre	2023-07-12T00:00:00	2024-11-08T19:00:00	2	Temperatura media	20.1
163658	7	Sololá	713	San Lucas Tolimán	10	San Lucas Tolimán	12	Diciembre	2023-07-12T00:00:00	2024-11-08T19:00:00	4	Temperatura máxima	20.3
163659	7	Sololá	713	San Lucas Tolimán	10	San Lucas Tolimán	12	Diciembre	2023-07-12T00:00:00	2024-11-08T19:00:00	3	Temperatura mínima	19.9
163660	7	Sololá	713	San Lucas Tolimán	10	San Lucas Tolimán	12	Diciembre	2023-07-12T00:00:00	2024-11-08T19:00:00	5	Humedad	53
163661	7	Sololá	713	San Lucas Tolimán	10	San Lucas Tolimán	12	Diciembre	2023-07-12T00:00:00	2024-11-08T19:00:00	6	Velocidad del viento	9.7
163662	7	Sololá	713	San Lucas Tolimán	10	San Lucas Tolimán	12	Diciembre	2023-07-12T00:00:00	2024-11-08T19:00:00	7	Dirección del viento	9.66
163663	7	Sololá	713	San Lucas Tolimán	10	San Lucas Tolimán	12	Diciembre	2023-07-12T00:00:00	2024-11-08T19:00:00	1	Precipitación	0
163664	7	Sololá	713	San Lucas Tolimán	10	San Lucas Tolimán	12	Diciembre	2023-07-12T00:00:00	2024-11-08T19:00:00	8	Radiación solar	0
163665	7	Sololá	713	San Lucas Tolimán	10	San Lucas Tolimán	12	Diciembre	2023-07-12T00:00:00	2024-11-08T20:00:00	2	Temperatura media	19.6
163666	7	Sololá	713	San Lucas Tolimán	10	San Lucas Tolimán	12	Diciembre	2023-07-12T00:00:00	2024-11-08T20:00:00	4	Temperatura máxima	20.2
163667	7	Sololá	713	San Lucas Tolimán	10	San Lucas Tolimán	12	Diciembre	2023-07-12T00:00:00	2024-11-08T20:00:00	3	Temperatura mínima	19.6
163668	7	Sololá	713	San Lucas Tolimán	10	San Lucas Tolimán	12	Diciembre	2023-07-12T00:00:00	2024-11-08T20:00:00	5	Humedad	55
163669	7	Sololá	713	San Lucas Tolimán	10	San Lucas Tolimán	12	Diciembre	2023-07-12T00:00:00	2024-11-08T20:00:00	6	Velocidad del viento	9.7
163670	7	Sololá	713	San Lucas Tolimán	10	San Lucas Tolimán	12	Diciembre	2023-07-12T00:00:00	2024-11-08T20:00:00	7	Dirección del viento	9.66
163671	7	Sololá	713	San Lucas Tolimán	10	San Lucas Tolimán	12	Diciembre	2023-07-12T00:00:00	2024-11-08T20:00:00	1	Precipitación	0
163672	7	Sololá	713	San Lucas Tolimán	10	San Lucas Tolimán	12	Diciembre	2023-07-12T00:00:00	2024-11-08T20:00:00	8	Radiación solar	0
163673	7	Sololá	713	San Lucas Tolimán	10	San Lucas Tolimán	12	Diciembre	2023-07-12T00:00:00	2024-11-08T21:00:00	2	Temperatura media	19.5
163674	7	Sololá	713	San Lucas Tolimán	10	San Lucas Tolimán	12	Diciembre	2023-07-12T00:00:00	2024-11-08T21:00:00	4	Temperatura máxima	19.7
163675	7	Sololá	713	San Lucas Tolimán	10	San Lucas Tolimán	12	Diciembre	2023-07-12T00:00:00	2024-11-08T21:00:00	3	Temperatura mínima	19.4
163676	7	Sololá	713	San Lucas Tolimán	10	San Lucas Tolimán	12	Diciembre	2023-07-12T00:00:00	2024-11-08T21:00:00	5	Humedad	54
163677	7	Sololá	713	San Lucas Tolimán	10	San Lucas Tolimán	12	Diciembre	2023-07-12T00:00:00	2024-11-08T21:00:00	6	Velocidad del viento	9.7
163678	7	Sololá	713	San Lucas Tolimán	10	San Lucas Tolimán	12	Diciembre	2023-07-12T00:00:00	2024-11-08T21:00:00	7	Dirección del viento	9.66
163679	7	Sololá	713	San Lucas Tolimán	10	San Lucas Tolimán	12	Diciembre	2023-07-12T00:00:00	2024-11-08T21:00:00	1	Precipitación	0
163680	7	Sololá	713	San Lucas Tolimán	10	San Lucas Tolimán	12	Diciembre	2023-07-12T00:00:00	2024-11-08T21:00:00	8	Radiación solar	0
163681	7	Sololá	713	San Lucas Tolimán	10	San Lucas Tolimán	12	Diciembre	2023-07-12T00:00:00	2024-11-08T22:00:00	2	Temperatura media	19.6
163682	7	Sololá	713	San Lucas Tolimán	10	San Lucas Tolimán	12	Diciembre	2023-07-12T00:00:00	2024-11-08T22:00:00	4	Temperatura máxima	19.7
163683	7	Sololá	713	San Lucas Tolimán	10	San Lucas Tolimán	12	Diciembre	2023-07-12T00:00:00	2024-11-08T22:00:00	3	Temperatura mínima	19.5
163684	7	Sololá	713	San Lucas Tolimán	10	San Lucas Tolimán	12	Diciembre	2023-07-12T00:00:00	2024-11-08T22:00:00	5	Humedad	54
163685	7	Sololá	713	San Lucas Tolimán	10	San Lucas Tolimán	12	Diciembre	2023-07-12T00:00:00	2024-11-08T22:00:00	6	Velocidad del viento	12.9
163686	7	Sololá	713	San Lucas Tolimán	10	San Lucas Tolimán	12	Diciembre	2023-07-12T00:00:00	2024-11-08T22:00:00	7	Dirección del viento	12.87
163687	7	Sololá	713	San Lucas Tolimán	10	San Lucas Tolimán	12	Diciembre	2023-07-12T00:00:00	2024-11-08T22:00:00	1	Precipitación	0
163688	7	Sololá	713	San Lucas Tolimán	10	San Lucas Tolimán	12	Diciembre	2023-07-12T00:00:00	2024-11-08T22:00:00	8	Radiación solar	0
163689	7	Sololá	713	San Lucas Tolimán	10	San Lucas Tolimán	12	Diciembre	2023-07-12T00:00:00	2024-11-08T23:00:00	2	Temperatura media	19.3
163690	7	Sololá	713	San Lucas Tolimán	10	San Lucas Tolimán	12	Diciembre	2023-07-12T00:00:00	2024-11-08T23:00:00	4	Temperatura máxima	19.7
163691	7	Sololá	713	San Lucas Tolimán	10	San Lucas Tolimán	12	Diciembre	2023-07-12T00:00:00	2024-11-08T23:00:00	3	Temperatura mínima	19.3
163692	7	Sololá	713	San Lucas Tolimán	10	San Lucas Tolimán	12	Diciembre	2023-07-12T00:00:00	2024-11-08T23:00:00	5	Humedad	55
163693	7	Sololá	713	San Lucas Tolimán	10	San Lucas Tolimán	12	Diciembre	2023-07-12T00:00:00	2024-11-08T23:00:00	6	Velocidad del viento	9.7
163694	7	Sololá	713	San Lucas Tolimán	10	San Lucas Tolimán	12	Diciembre	2023-07-12T00:00:00	2024-11-08T23:00:00	7	Dirección del viento	9.66
163695	7	Sololá	713	San Lucas Tolimán	10	San Lucas Tolimán	12	Diciembre	2023-07-12T00:00:00	2024-11-08T23:00:00	1	Precipitación	0
163696	7	Sololá	713	San Lucas Tolimán	10	San Lucas Tolimán	12	Diciembre	2023-07-12T00:00:00	2024-11-08T23:00:00	8	Radiación solar	0
163697	7	Sololá	713	San Lucas Tolimán	10	San Lucas Tolimán	12	Diciembre	2023-08-12T00:00:00	2024-11-08T00:00:00	2	Temperatura media	18.6
163698	7	Sololá	713	San Lucas Tolimán	10	San Lucas Tolimán	12	Diciembre	2023-08-12T00:00:00	2024-11-08T00:00:00	4	Temperatura máxima	19.3
163699	7	Sololá	713	San Lucas Tolimán	10	San Lucas Tolimán	12	Diciembre	2023-08-12T00:00:00	2024-11-08T00:00:00	3	Temperatura mínima	18.4
163700	7	Sololá	713	San Lucas Tolimán	10	San Lucas Tolimán	12	Diciembre	2023-08-12T00:00:00	2024-11-08T00:00:00	5	Humedad	56
163701	7	Sololá	713	San Lucas Tolimán	10	San Lucas Tolimán	12	Diciembre	2023-08-12T00:00:00	2024-11-08T00:00:00	6	Velocidad del viento	3.2
163702	7	Sololá	713	San Lucas Tolimán	10	San Lucas Tolimán	12	Diciembre	2023-08-12T00:00:00	2024-11-08T00:00:00	7	Dirección del viento	3.22
163703	7	Sololá	713	San Lucas Tolimán	10	San Lucas Tolimán	12	Diciembre	2023-08-12T00:00:00	2024-11-08T00:00:00	1	Precipitación	0
163704	7	Sololá	713	San Lucas Tolimán	10	San Lucas Tolimán	12	Diciembre	2023-08-12T00:00:00	2024-11-08T00:00:00	8	Radiación solar	0
163705	7	Sololá	713	San Lucas Tolimán	10	San Lucas Tolimán	12	Diciembre	2023-08-12T00:00:00	2024-11-08T01:00:00	2	Temperatura media	19
163706	7	Sololá	713	San Lucas Tolimán	10	San Lucas Tolimán	12	Diciembre	2023-08-12T00:00:00	2024-11-08T01:00:00	4	Temperatura máxima	19.2
163707	7	Sololá	713	San Lucas Tolimán	10	San Lucas Tolimán	12	Diciembre	2023-08-12T00:00:00	2024-11-08T01:00:00	3	Temperatura mínima	18.6
163708	7	Sololá	713	San Lucas Tolimán	10	San Lucas Tolimán	12	Diciembre	2023-08-12T00:00:00	2024-11-08T01:00:00	5	Humedad	55
163709	7	Sololá	713	San Lucas Tolimán	10	San Lucas Tolimán	12	Diciembre	2023-08-12T00:00:00	2024-11-08T01:00:00	6	Velocidad del viento	6.4
163710	7	Sololá	713	San Lucas Tolimán	10	San Lucas Tolimán	12	Diciembre	2023-08-12T00:00:00	2024-11-08T01:00:00	7	Dirección del viento	6.44
163711	7	Sololá	713	San Lucas Tolimán	10	San Lucas Tolimán	12	Diciembre	2023-08-12T00:00:00	2024-11-08T01:00:00	1	Precipitación	0
163712	7	Sololá	713	San Lucas Tolimán	10	San Lucas Tolimán	12	Diciembre	2023-08-12T00:00:00	2024-11-08T01:00:00	8	Radiación solar	0
163713	7	Sololá	713	San Lucas Tolimán	10	San Lucas Tolimán	12	Diciembre	2023-08-12T00:00:00	2024-11-08T02:00:00	2	Temperatura media	17.8
163714	7	Sololá	713	San Lucas Tolimán	10	San Lucas Tolimán	12	Diciembre	2023-08-12T00:00:00	2024-11-08T02:00:00	4	Temperatura máxima	19.1
163715	7	Sololá	713	San Lucas Tolimán	10	San Lucas Tolimán	12	Diciembre	2023-08-12T00:00:00	2024-11-08T02:00:00	3	Temperatura mínima	17.7
163716	7	Sololá	713	San Lucas Tolimán	10	San Lucas Tolimán	12	Diciembre	2023-08-12T00:00:00	2024-11-08T02:00:00	5	Humedad	59
163717	7	Sololá	713	San Lucas Tolimán	10	San Lucas Tolimán	12	Diciembre	2023-08-12T00:00:00	2024-11-08T02:00:00	6	Velocidad del viento	1.6
163718	7	Sololá	713	San Lucas Tolimán	10	San Lucas Tolimán	12	Diciembre	2023-08-12T00:00:00	2024-11-08T02:00:00	7	Dirección del viento	1.61
163719	7	Sololá	713	San Lucas Tolimán	10	San Lucas Tolimán	12	Diciembre	2023-08-12T00:00:00	2024-11-08T02:00:00	1	Precipitación	0
163720	7	Sololá	713	San Lucas Tolimán	10	San Lucas Tolimán	12	Diciembre	2023-08-12T00:00:00	2024-11-08T02:00:00	8	Radiación solar	0
163721	7	Sololá	713	San Lucas Tolimán	10	San Lucas Tolimán	12	Diciembre	2023-08-12T00:00:00	2024-11-08T03:00:00	2	Temperatura media	18.8
163722	7	Sololá	713	San Lucas Tolimán	10	San Lucas Tolimán	12	Diciembre	2023-08-12T00:00:00	2024-11-08T03:00:00	4	Temperatura máxima	18.9
163723	7	Sololá	713	San Lucas Tolimán	10	San Lucas Tolimán	12	Diciembre	2023-08-12T00:00:00	2024-11-08T03:00:00	3	Temperatura mínima	17.6
163724	7	Sololá	713	San Lucas Tolimán	10	San Lucas Tolimán	12	Diciembre	2023-08-12T00:00:00	2024-11-08T03:00:00	5	Humedad	56
163725	7	Sololá	713	San Lucas Tolimán	10	San Lucas Tolimán	12	Diciembre	2023-08-12T00:00:00	2024-11-08T03:00:00	6	Velocidad del viento	8
163726	7	Sololá	713	San Lucas Tolimán	10	San Lucas Tolimán	12	Diciembre	2023-08-12T00:00:00	2024-11-08T03:00:00	7	Dirección del viento	8.05
163727	7	Sololá	713	San Lucas Tolimán	10	San Lucas Tolimán	12	Diciembre	2023-08-12T00:00:00	2024-11-08T03:00:00	1	Precipitación	0
163728	7	Sololá	713	San Lucas Tolimán	10	San Lucas Tolimán	12	Diciembre	2023-08-12T00:00:00	2024-11-08T03:00:00	8	Radiación solar	0
163729	7	Sololá	713	San Lucas Tolimán	10	San Lucas Tolimán	12	Diciembre	2023-08-12T00:00:00	2024-11-08T04:00:00	2	Temperatura media	17.8
163730	7	Sololá	713	San Lucas Tolimán	10	San Lucas Tolimán	12	Diciembre	2023-08-12T00:00:00	2024-11-08T04:00:00	4	Temperatura máxima	18.8
163731	7	Sololá	713	San Lucas Tolimán	10	San Lucas Tolimán	12	Diciembre	2023-08-12T00:00:00	2024-11-08T04:00:00	3	Temperatura mínima	17.7
163732	7	Sololá	713	San Lucas Tolimán	10	San Lucas Tolimán	12	Diciembre	2023-08-12T00:00:00	2024-11-08T04:00:00	5	Humedad	59
163733	7	Sololá	713	San Lucas Tolimán	10	San Lucas Tolimán	12	Diciembre	2023-08-12T00:00:00	2024-11-08T04:00:00	6	Velocidad del viento	3.2
163734	7	Sololá	713	San Lucas Tolimán	10	San Lucas Tolimán	12	Diciembre	2023-08-12T00:00:00	2024-11-08T04:00:00	7	Dirección del viento	3.22
163735	7	Sololá	713	San Lucas Tolimán	10	San Lucas Tolimán	12	Diciembre	2023-08-12T00:00:00	2024-11-08T04:00:00	1	Precipitación	0
163736	7	Sololá	713	San Lucas Tolimán	10	San Lucas Tolimán	12	Diciembre	2023-08-12T00:00:00	2024-11-08T04:00:00	8	Radiación solar	0
163737	7	Sololá	713	San Lucas Tolimán	10	San Lucas Tolimán	12	Diciembre	2023-08-12T00:00:00	2024-11-08T05:00:00	2	Temperatura media	18.4
163738	7	Sololá	713	San Lucas Tolimán	10	San Lucas Tolimán	12	Diciembre	2023-08-12T00:00:00	2024-11-08T05:00:00	4	Temperatura máxima	18.4
163739	7	Sololá	713	San Lucas Tolimán	10	San Lucas Tolimán	12	Diciembre	2023-08-12T00:00:00	2024-11-08T05:00:00	3	Temperatura mínima	17.4
163740	7	Sololá	713	San Lucas Tolimán	10	San Lucas Tolimán	12	Diciembre	2023-08-12T00:00:00	2024-11-08T05:00:00	5	Humedad	56
163741	7	Sololá	713	San Lucas Tolimán	10	San Lucas Tolimán	12	Diciembre	2023-08-12T00:00:00	2024-11-08T05:00:00	6	Velocidad del viento	4.8
163742	7	Sololá	713	San Lucas Tolimán	10	San Lucas Tolimán	12	Diciembre	2023-08-12T00:00:00	2024-11-08T05:00:00	7	Dirección del viento	4.83
163743	7	Sololá	713	San Lucas Tolimán	10	San Lucas Tolimán	12	Diciembre	2023-08-12T00:00:00	2024-11-08T05:00:00	1	Precipitación	0
163744	7	Sololá	713	San Lucas Tolimán	10	San Lucas Tolimán	12	Diciembre	2023-08-12T00:00:00	2024-11-08T05:00:00	8	Radiación solar	0
163745	7	Sololá	713	San Lucas Tolimán	10	San Lucas Tolimán	12	Diciembre	2023-08-12T00:00:00	2024-11-08T06:00:00	2	Temperatura media	18
163746	7	Sololá	713	San Lucas Tolimán	10	San Lucas Tolimán	12	Diciembre	2023-08-12T00:00:00	2024-11-08T06:00:00	4	Temperatura máxima	18.4
163747	7	Sololá	713	San Lucas Tolimán	10	San Lucas Tolimán	12	Diciembre	2023-08-12T00:00:00	2024-11-08T06:00:00	3	Temperatura mínima	17.4
163748	7	Sololá	713	San Lucas Tolimán	10	San Lucas Tolimán	12	Diciembre	2023-08-12T00:00:00	2024-11-08T06:00:00	5	Humedad	57
163749	7	Sololá	713	San Lucas Tolimán	10	San Lucas Tolimán	12	Diciembre	2023-08-12T00:00:00	2024-11-08T06:00:00	6	Velocidad del viento	4.8
163750	7	Sololá	713	San Lucas Tolimán	10	San Lucas Tolimán	12	Diciembre	2023-08-12T00:00:00	2024-11-08T06:00:00	7	Dirección del viento	4.83
163751	7	Sololá	713	San Lucas Tolimán	10	San Lucas Tolimán	12	Diciembre	2023-08-12T00:00:00	2024-11-08T06:00:00	1	Precipitación	0
163752	7	Sololá	713	San Lucas Tolimán	10	San Lucas Tolimán	12	Diciembre	2023-08-12T00:00:00	2024-11-08T06:00:00	8	Radiación solar	0
163753	7	Sololá	713	San Lucas Tolimán	10	San Lucas Tolimán	12	Diciembre	2023-08-12T00:00:00	2024-11-08T07:00:00	2	Temperatura media	17.1
163754	7	Sololá	713	San Lucas Tolimán	10	San Lucas Tolimán	12	Diciembre	2023-08-12T00:00:00	2024-11-08T07:00:00	4	Temperatura máxima	18.1
163755	7	Sololá	713	San Lucas Tolimán	10	San Lucas Tolimán	12	Diciembre	2023-08-12T00:00:00	2024-11-08T07:00:00	3	Temperatura mínima	16.8
163756	7	Sololá	713	San Lucas Tolimán	10	San Lucas Tolimán	12	Diciembre	2023-08-12T00:00:00	2024-11-08T07:00:00	5	Humedad	60
163757	7	Sololá	713	San Lucas Tolimán	10	San Lucas Tolimán	12	Diciembre	2023-08-12T00:00:00	2024-11-08T07:00:00	6	Velocidad del viento	3.2
163758	7	Sololá	713	San Lucas Tolimán	10	San Lucas Tolimán	12	Diciembre	2023-08-12T00:00:00	2024-11-08T07:00:00	7	Dirección del viento	3.22
163759	7	Sololá	713	San Lucas Tolimán	10	San Lucas Tolimán	12	Diciembre	2023-08-12T00:00:00	2024-11-08T07:00:00	1	Precipitación	0
163760	7	Sololá	713	San Lucas Tolimán	10	San Lucas Tolimán	12	Diciembre	2023-08-12T00:00:00	2024-11-08T07:00:00	8	Radiación solar	8
163761	7	Sololá	713	San Lucas Tolimán	10	San Lucas Tolimán	12	Diciembre	2023-08-12T00:00:00	2024-11-08T08:00:00	2	Temperatura media	19.1
163762	7	Sololá	713	San Lucas Tolimán	10	San Lucas Tolimán	12	Diciembre	2023-08-12T00:00:00	2024-11-08T08:00:00	4	Temperatura máxima	19.1
163763	7	Sololá	713	San Lucas Tolimán	10	San Lucas Tolimán	12	Diciembre	2023-08-12T00:00:00	2024-11-08T08:00:00	3	Temperatura mínima	17
163764	7	Sololá	713	San Lucas Tolimán	10	San Lucas Tolimán	12	Diciembre	2023-08-12T00:00:00	2024-11-08T08:00:00	5	Humedad	55
163765	7	Sololá	713	San Lucas Tolimán	10	San Lucas Tolimán	12	Diciembre	2023-08-12T00:00:00	2024-11-08T08:00:00	6	Velocidad del viento	3.2
163766	7	Sololá	713	San Lucas Tolimán	10	San Lucas Tolimán	12	Diciembre	2023-08-12T00:00:00	2024-11-08T08:00:00	7	Dirección del viento	3.22
163767	7	Sololá	713	San Lucas Tolimán	10	San Lucas Tolimán	12	Diciembre	2023-08-12T00:00:00	2024-11-08T08:00:00	1	Precipitación	0
163768	7	Sololá	713	San Lucas Tolimán	10	San Lucas Tolimán	12	Diciembre	2023-08-12T00:00:00	2024-11-08T08:00:00	8	Radiación solar	22
163769	7	Sololá	713	San Lucas Tolimán	10	San Lucas Tolimán	12	Diciembre	2023-08-12T00:00:00	2024-11-08T09:00:00	2	Temperatura media	21.8
163770	7	Sololá	713	San Lucas Tolimán	10	San Lucas Tolimán	12	Diciembre	2023-08-12T00:00:00	2024-11-08T09:00:00	4	Temperatura máxima	21.8
163771	7	Sololá	713	San Lucas Tolimán	10	San Lucas Tolimán	12	Diciembre	2023-08-12T00:00:00	2024-11-08T09:00:00	3	Temperatura mínima	18.8
163772	7	Sololá	713	San Lucas Tolimán	10	San Lucas Tolimán	12	Diciembre	2023-08-12T00:00:00	2024-11-08T09:00:00	5	Humedad	48
163773	7	Sololá	713	San Lucas Tolimán	10	San Lucas Tolimán	12	Diciembre	2023-08-12T00:00:00	2024-11-08T09:00:00	6	Velocidad del viento	4.8
163774	7	Sololá	713	San Lucas Tolimán	10	San Lucas Tolimán	12	Diciembre	2023-08-12T00:00:00	2024-11-08T09:00:00	7	Dirección del viento	4.83
163775	7	Sololá	713	San Lucas Tolimán	10	San Lucas Tolimán	12	Diciembre	2023-08-12T00:00:00	2024-11-08T09:00:00	1	Precipitación	0
163776	7	Sololá	713	San Lucas Tolimán	10	San Lucas Tolimán	12	Diciembre	2023-08-12T00:00:00	2024-11-08T09:00:00	8	Radiación solar	349
163777	7	Sololá	713	San Lucas Tolimán	10	San Lucas Tolimán	12	Diciembre	2023-08-12T00:00:00	2024-11-08T10:00:00	2	Temperatura media	23.5
163778	7	Sololá	713	San Lucas Tolimán	10	San Lucas Tolimán	12	Diciembre	2023-08-12T00:00:00	2024-11-08T10:00:00	4	Temperatura máxima	23.5
163779	7	Sololá	713	San Lucas Tolimán	10	San Lucas Tolimán	12	Diciembre	2023-08-12T00:00:00	2024-11-08T10:00:00	3	Temperatura mínima	21.9
163780	7	Sololá	713	San Lucas Tolimán	10	San Lucas Tolimán	12	Diciembre	2023-08-12T00:00:00	2024-11-08T10:00:00	5	Humedad	45
163781	7	Sololá	713	San Lucas Tolimán	10	San Lucas Tolimán	12	Diciembre	2023-08-12T00:00:00	2024-11-08T10:00:00	6	Velocidad del viento	4.8
163782	7	Sololá	713	San Lucas Tolimán	10	San Lucas Tolimán	12	Diciembre	2023-08-12T00:00:00	2024-11-08T10:00:00	7	Dirección del viento	4.83
163783	7	Sololá	713	San Lucas Tolimán	10	San Lucas Tolimán	12	Diciembre	2023-08-12T00:00:00	2024-11-08T10:00:00	1	Precipitación	0
163784	7	Sololá	713	San Lucas Tolimán	10	San Lucas Tolimán	12	Diciembre	2023-08-12T00:00:00	2024-11-08T10:00:00	8	Radiación solar	615
163785	7	Sololá	713	San Lucas Tolimán	10	San Lucas Tolimán	12	Diciembre	2023-08-12T00:00:00	2024-11-08T11:00:00	2	Temperatura media	22.7
163786	7	Sololá	713	San Lucas Tolimán	10	San Lucas Tolimán	12	Diciembre	2023-08-12T00:00:00	2024-11-08T11:00:00	4	Temperatura máxima	23.6
163787	7	Sololá	713	San Lucas Tolimán	10	San Lucas Tolimán	12	Diciembre	2023-08-12T00:00:00	2024-11-08T11:00:00	3	Temperatura mínima	22.7
163788	7	Sololá	713	San Lucas Tolimán	10	San Lucas Tolimán	12	Diciembre	2023-08-12T00:00:00	2024-11-08T11:00:00	5	Humedad	47
163789	7	Sololá	713	San Lucas Tolimán	10	San Lucas Tolimán	12	Diciembre	2023-08-12T00:00:00	2024-11-08T11:00:00	6	Velocidad del viento	8
163790	7	Sololá	713	San Lucas Tolimán	10	San Lucas Tolimán	12	Diciembre	2023-08-12T00:00:00	2024-11-08T11:00:00	7	Dirección del viento	8.05
163791	7	Sololá	713	San Lucas Tolimán	10	San Lucas Tolimán	12	Diciembre	2023-08-12T00:00:00	2024-11-08T11:00:00	1	Precipitación	0
163792	7	Sololá	713	San Lucas Tolimán	10	San Lucas Tolimán	12	Diciembre	2023-08-12T00:00:00	2024-11-08T11:00:00	8	Radiación solar	291
163793	7	Sololá	713	San Lucas Tolimán	10	San Lucas Tolimán	12	Diciembre	2023-08-12T00:00:00	2024-11-08T12:00:00	2	Temperatura media	23.1
163794	7	Sololá	713	San Lucas Tolimán	10	San Lucas Tolimán	12	Diciembre	2023-08-12T00:00:00	2024-11-08T12:00:00	4	Temperatura máxima	23.8
163795	7	Sololá	713	San Lucas Tolimán	10	San Lucas Tolimán	12	Diciembre	2023-08-12T00:00:00	2024-11-08T12:00:00	3	Temperatura mínima	22.7
163796	7	Sololá	713	San Lucas Tolimán	10	San Lucas Tolimán	12	Diciembre	2023-08-12T00:00:00	2024-11-08T12:00:00	5	Humedad	58
163797	7	Sololá	713	San Lucas Tolimán	10	San Lucas Tolimán	12	Diciembre	2023-08-12T00:00:00	2024-11-08T12:00:00	6	Velocidad del viento	6.4
163798	7	Sololá	713	San Lucas Tolimán	10	San Lucas Tolimán	12	Diciembre	2023-08-12T00:00:00	2024-11-08T12:00:00	7	Dirección del viento	6.44
163799	7	Sololá	713	San Lucas Tolimán	10	San Lucas Tolimán	12	Diciembre	2023-08-12T00:00:00	2024-11-08T12:00:00	1	Precipitación	0
163800	7	Sololá	713	San Lucas Tolimán	10	San Lucas Tolimán	12	Diciembre	2023-08-12T00:00:00	2024-11-08T12:00:00	8	Radiación solar	333
163801	7	Sololá	713	San Lucas Tolimán	10	San Lucas Tolimán	12	Diciembre	2023-08-12T00:00:00	2024-11-08T13:00:00	2	Temperatura media	21.9
163802	7	Sololá	713	San Lucas Tolimán	10	San Lucas Tolimán	12	Diciembre	2023-08-12T00:00:00	2024-11-08T13:00:00	4	Temperatura máxima	23.2
163803	7	Sololá	713	San Lucas Tolimán	10	San Lucas Tolimán	12	Diciembre	2023-08-12T00:00:00	2024-11-08T13:00:00	3	Temperatura mínima	21.7
163804	7	Sololá	713	San Lucas Tolimán	10	San Lucas Tolimán	12	Diciembre	2023-08-12T00:00:00	2024-11-08T13:00:00	5	Humedad	61
163805	7	Sololá	713	San Lucas Tolimán	10	San Lucas Tolimán	12	Diciembre	2023-08-12T00:00:00	2024-11-08T13:00:00	6	Velocidad del viento	8
163806	7	Sololá	713	San Lucas Tolimán	10	San Lucas Tolimán	12	Diciembre	2023-08-12T00:00:00	2024-11-08T13:00:00	7	Dirección del viento	8.05
163807	7	Sololá	713	San Lucas Tolimán	10	San Lucas Tolimán	12	Diciembre	2023-08-12T00:00:00	2024-11-08T13:00:00	1	Precipitación	0
163808	7	Sololá	713	San Lucas Tolimán	10	San Lucas Tolimán	12	Diciembre	2023-08-12T00:00:00	2024-11-08T13:00:00	8	Radiación solar	240
163809	7	Sololá	713	San Lucas Tolimán	10	San Lucas Tolimán	12	Diciembre	2023-08-12T00:00:00	2024-11-08T14:00:00	2	Temperatura media	24.1
163810	7	Sololá	713	San Lucas Tolimán	10	San Lucas Tolimán	12	Diciembre	2023-08-12T00:00:00	2024-11-08T14:00:00	4	Temperatura máxima	24.1
163811	7	Sololá	713	San Lucas Tolimán	10	San Lucas Tolimán	12	Diciembre	2023-08-12T00:00:00	2024-11-08T14:00:00	3	Temperatura mínima	22
163812	7	Sololá	713	San Lucas Tolimán	10	San Lucas Tolimán	12	Diciembre	2023-08-12T00:00:00	2024-11-08T14:00:00	5	Humedad	53
163813	7	Sololá	713	San Lucas Tolimán	10	San Lucas Tolimán	12	Diciembre	2023-08-12T00:00:00	2024-11-08T14:00:00	6	Velocidad del viento	4.8
163814	7	Sololá	713	San Lucas Tolimán	10	San Lucas Tolimán	12	Diciembre	2023-08-12T00:00:00	2024-11-08T14:00:00	7	Dirección del viento	4.83
163815	7	Sololá	713	San Lucas Tolimán	10	San Lucas Tolimán	12	Diciembre	2023-08-12T00:00:00	2024-11-08T14:00:00	1	Precipitación	0
163816	7	Sololá	713	San Lucas Tolimán	10	San Lucas Tolimán	12	Diciembre	2023-08-12T00:00:00	2024-11-08T14:00:00	8	Radiación solar	592
163817	7	Sololá	713	San Lucas Tolimán	10	San Lucas Tolimán	12	Diciembre	2023-08-12T00:00:00	2024-11-08T15:00:00	2	Temperatura media	22.7
163818	7	Sololá	713	San Lucas Tolimán	10	San Lucas Tolimán	12	Diciembre	2023-08-12T00:00:00	2024-11-08T15:00:00	4	Temperatura máxima	24.4
163819	7	Sololá	713	San Lucas Tolimán	10	San Lucas Tolimán	12	Diciembre	2023-08-12T00:00:00	2024-11-08T15:00:00	3	Temperatura mínima	22.3
163820	7	Sololá	713	San Lucas Tolimán	10	San Lucas Tolimán	12	Diciembre	2023-08-12T00:00:00	2024-11-08T15:00:00	5	Humedad	61
163821	7	Sololá	713	San Lucas Tolimán	10	San Lucas Tolimán	12	Diciembre	2023-08-12T00:00:00	2024-11-08T15:00:00	6	Velocidad del viento	9.7
163822	7	Sololá	713	San Lucas Tolimán	10	San Lucas Tolimán	12	Diciembre	2023-08-12T00:00:00	2024-11-08T15:00:00	7	Dirección del viento	9.66
163823	7	Sololá	713	San Lucas Tolimán	10	San Lucas Tolimán	12	Diciembre	2023-08-12T00:00:00	2024-11-08T15:00:00	1	Precipitación	0
163824	7	Sololá	713	San Lucas Tolimán	10	San Lucas Tolimán	12	Diciembre	2023-08-12T00:00:00	2024-11-08T15:00:00	8	Radiación solar	499
163825	7	Sololá	713	San Lucas Tolimán	10	San Lucas Tolimán	12	Diciembre	2023-08-12T00:00:00	2024-11-08T16:00:00	2	Temperatura media	22.3
163826	7	Sololá	713	San Lucas Tolimán	10	San Lucas Tolimán	12	Diciembre	2023-08-12T00:00:00	2024-11-08T16:00:00	4	Temperatura máxima	22.8
163827	7	Sololá	713	San Lucas Tolimán	10	San Lucas Tolimán	12	Diciembre	2023-08-12T00:00:00	2024-11-08T16:00:00	3	Temperatura mínima	22.1
163828	7	Sololá	713	San Lucas Tolimán	10	San Lucas Tolimán	12	Diciembre	2023-08-12T00:00:00	2024-11-08T16:00:00	5	Humedad	61
163829	7	Sololá	713	San Lucas Tolimán	10	San Lucas Tolimán	12	Diciembre	2023-08-12T00:00:00	2024-11-08T16:00:00	6	Velocidad del viento	9.7
163830	7	Sololá	713	San Lucas Tolimán	10	San Lucas Tolimán	12	Diciembre	2023-08-12T00:00:00	2024-11-08T16:00:00	7	Dirección del viento	9.66
163831	7	Sololá	713	San Lucas Tolimán	10	San Lucas Tolimán	12	Diciembre	2023-08-12T00:00:00	2024-11-08T16:00:00	1	Precipitación	0
163832	7	Sololá	713	San Lucas Tolimán	10	San Lucas Tolimán	12	Diciembre	2023-08-12T00:00:00	2024-11-08T16:00:00	8	Radiación solar	431
163833	7	Sololá	713	San Lucas Tolimán	10	San Lucas Tolimán	12	Diciembre	2023-08-12T00:00:00	2024-11-08T17:00:00	2	Temperatura media	20.3
163834	7	Sololá	713	San Lucas Tolimán	10	San Lucas Tolimán	12	Diciembre	2023-08-12T00:00:00	2024-11-08T17:00:00	4	Temperatura máxima	22.3
163835	7	Sololá	713	San Lucas Tolimán	10	San Lucas Tolimán	12	Diciembre	2023-08-12T00:00:00	2024-11-08T17:00:00	3	Temperatura mínima	20.3
163836	7	Sololá	713	San Lucas Tolimán	10	San Lucas Tolimán	12	Diciembre	2023-08-12T00:00:00	2024-11-08T17:00:00	5	Humedad	61
163837	7	Sololá	713	San Lucas Tolimán	10	San Lucas Tolimán	12	Diciembre	2023-08-12T00:00:00	2024-11-08T17:00:00	6	Velocidad del viento	6.4
163838	7	Sololá	713	San Lucas Tolimán	10	San Lucas Tolimán	12	Diciembre	2023-08-12T00:00:00	2024-11-08T17:00:00	7	Dirección del viento	6.44
163839	7	Sololá	713	San Lucas Tolimán	10	San Lucas Tolimán	12	Diciembre	2023-08-12T00:00:00	2024-11-08T17:00:00	1	Precipitación	0
163840	7	Sololá	713	San Lucas Tolimán	10	San Lucas Tolimán	12	Diciembre	2023-08-12T00:00:00	2024-11-08T17:00:00	8	Radiación solar	47
163841	7	Sololá	713	San Lucas Tolimán	10	San Lucas Tolimán	12	Diciembre	2023-08-12T00:00:00	2024-11-08T18:00:00	2	Temperatura media	19
163842	7	Sololá	713	San Lucas Tolimán	10	San Lucas Tolimán	12	Diciembre	2023-08-12T00:00:00	2024-11-08T18:00:00	4	Temperatura máxima	20.3
163843	7	Sololá	713	San Lucas Tolimán	10	San Lucas Tolimán	12	Diciembre	2023-08-12T00:00:00	2024-11-08T18:00:00	3	Temperatura mínima	19
163844	7	Sololá	713	San Lucas Tolimán	10	San Lucas Tolimán	12	Diciembre	2023-08-12T00:00:00	2024-11-08T18:00:00	5	Humedad	60
163845	7	Sololá	713	San Lucas Tolimán	10	San Lucas Tolimán	12	Diciembre	2023-08-12T00:00:00	2024-11-08T18:00:00	6	Velocidad del viento	4.8
163846	7	Sololá	713	San Lucas Tolimán	10	San Lucas Tolimán	12	Diciembre	2023-08-12T00:00:00	2024-11-08T18:00:00	7	Dirección del viento	4.83
163847	7	Sololá	713	San Lucas Tolimán	10	San Lucas Tolimán	12	Diciembre	2023-08-12T00:00:00	2024-11-08T18:00:00	1	Precipitación	0
163848	7	Sololá	713	San Lucas Tolimán	10	San Lucas Tolimán	12	Diciembre	2023-08-12T00:00:00	2024-11-08T18:00:00	8	Radiación solar	7
163849	7	Sololá	713	San Lucas Tolimán	10	San Lucas Tolimán	12	Diciembre	2023-08-12T00:00:00	2024-11-08T19:00:00	2	Temperatura media	19.9
163850	7	Sololá	713	San Lucas Tolimán	10	San Lucas Tolimán	12	Diciembre	2023-08-12T00:00:00	2024-11-08T19:00:00	4	Temperatura máxima	19.9
163851	7	Sololá	713	San Lucas Tolimán	10	San Lucas Tolimán	12	Diciembre	2023-08-12T00:00:00	2024-11-08T19:00:00	3	Temperatura mínima	18.6
163852	7	Sololá	713	San Lucas Tolimán	10	San Lucas Tolimán	12	Diciembre	2023-08-12T00:00:00	2024-11-08T19:00:00	5	Humedad	55
163853	7	Sololá	713	San Lucas Tolimán	10	San Lucas Tolimán	12	Diciembre	2023-08-12T00:00:00	2024-11-08T19:00:00	6	Velocidad del viento	3.2
163854	7	Sololá	713	San Lucas Tolimán	10	San Lucas Tolimán	12	Diciembre	2023-08-12T00:00:00	2024-11-08T19:00:00	7	Dirección del viento	3.22
163855	7	Sololá	713	San Lucas Tolimán	10	San Lucas Tolimán	12	Diciembre	2023-08-12T00:00:00	2024-11-08T19:00:00	1	Precipitación	0
163856	7	Sololá	713	San Lucas Tolimán	10	San Lucas Tolimán	12	Diciembre	2023-08-12T00:00:00	2024-11-08T19:00:00	8	Radiación solar	0
163857	7	Sololá	713	San Lucas Tolimán	10	San Lucas Tolimán	12	Diciembre	2023-08-12T00:00:00	2024-11-08T20:00:00	2	Temperatura media	19.1
163858	7	Sololá	713	San Lucas Tolimán	10	San Lucas Tolimán	12	Diciembre	2023-08-12T00:00:00	2024-11-08T20:00:00	4	Temperatura máxima	20.2
163859	7	Sololá	713	San Lucas Tolimán	10	San Lucas Tolimán	12	Diciembre	2023-08-12T00:00:00	2024-11-08T20:00:00	3	Temperatura mínima	19.1
163860	7	Sololá	713	San Lucas Tolimán	10	San Lucas Tolimán	12	Diciembre	2023-08-12T00:00:00	2024-11-08T20:00:00	5	Humedad	58
163861	7	Sololá	713	San Lucas Tolimán	10	San Lucas Tolimán	12	Diciembre	2023-08-12T00:00:00	2024-11-08T20:00:00	6	Velocidad del viento	3.2
163862	7	Sololá	713	San Lucas Tolimán	10	San Lucas Tolimán	12	Diciembre	2023-08-12T00:00:00	2024-11-08T20:00:00	7	Dirección del viento	3.22
163863	7	Sololá	713	San Lucas Tolimán	10	San Lucas Tolimán	12	Diciembre	2023-08-12T00:00:00	2024-11-08T20:00:00	1	Precipitación	0
163864	7	Sololá	713	San Lucas Tolimán	10	San Lucas Tolimán	12	Diciembre	2023-08-12T00:00:00	2024-11-08T20:00:00	8	Radiación solar	0
163865	7	Sololá	713	San Lucas Tolimán	10	San Lucas Tolimán	12	Diciembre	2023-08-12T00:00:00	2024-11-08T21:00:00	2	Temperatura media	19
163866	7	Sololá	713	San Lucas Tolimán	10	San Lucas Tolimán	12	Diciembre	2023-08-12T00:00:00	2024-11-08T21:00:00	4	Temperatura máxima	19.1
163867	7	Sololá	713	San Lucas Tolimán	10	San Lucas Tolimán	12	Diciembre	2023-08-12T00:00:00	2024-11-08T21:00:00	3	Temperatura mínima	18.7
163868	7	Sololá	713	San Lucas Tolimán	10	San Lucas Tolimán	12	Diciembre	2023-08-12T00:00:00	2024-11-08T21:00:00	5	Humedad	57
163869	7	Sololá	713	San Lucas Tolimán	10	San Lucas Tolimán	12	Diciembre	2023-08-12T00:00:00	2024-11-08T21:00:00	6	Velocidad del viento	1.6
163870	7	Sololá	713	San Lucas Tolimán	10	San Lucas Tolimán	12	Diciembre	2023-08-12T00:00:00	2024-11-08T21:00:00	7	Dirección del viento	1.61
163871	7	Sololá	713	San Lucas Tolimán	10	San Lucas Tolimán	12	Diciembre	2023-08-12T00:00:00	2024-11-08T21:00:00	1	Precipitación	0
163872	7	Sololá	713	San Lucas Tolimán	10	San Lucas Tolimán	12	Diciembre	2023-08-12T00:00:00	2024-11-08T21:00:00	8	Radiación solar	0
163873	7	Sololá	713	San Lucas Tolimán	10	San Lucas Tolimán	12	Diciembre	2023-08-12T00:00:00	2024-11-08T22:00:00	2	Temperatura media	19.2
163874	7	Sololá	713	San Lucas Tolimán	10	San Lucas Tolimán	12	Diciembre	2023-08-12T00:00:00	2024-11-08T22:00:00	4	Temperatura máxima	19.4
163875	7	Sololá	713	San Lucas Tolimán	10	San Lucas Tolimán	12	Diciembre	2023-08-12T00:00:00	2024-11-08T22:00:00	3	Temperatura mínima	18.9
163876	7	Sololá	713	San Lucas Tolimán	10	San Lucas Tolimán	12	Diciembre	2023-08-12T00:00:00	2024-11-08T22:00:00	5	Humedad	56
163877	7	Sololá	713	San Lucas Tolimán	10	San Lucas Tolimán	12	Diciembre	2023-08-12T00:00:00	2024-11-08T22:00:00	6	Velocidad del viento	3.2
163878	7	Sololá	713	San Lucas Tolimán	10	San Lucas Tolimán	12	Diciembre	2023-08-12T00:00:00	2024-11-08T22:00:00	7	Dirección del viento	3.22
163879	7	Sololá	713	San Lucas Tolimán	10	San Lucas Tolimán	12	Diciembre	2023-08-12T00:00:00	2024-11-08T22:00:00	1	Precipitación	0
163880	7	Sololá	713	San Lucas Tolimán	10	San Lucas Tolimán	12	Diciembre	2023-08-12T00:00:00	2024-11-08T22:00:00	8	Radiación solar	0
163881	7	Sololá	713	San Lucas Tolimán	10	San Lucas Tolimán	12	Diciembre	2023-08-12T00:00:00	2024-11-08T23:00:00	2	Temperatura media	19.3
163882	7	Sololá	713	San Lucas Tolimán	10	San Lucas Tolimán	12	Diciembre	2023-08-12T00:00:00	2024-11-08T23:00:00	4	Temperatura máxima	19.3
163883	7	Sololá	713	San Lucas Tolimán	10	San Lucas Tolimán	12	Diciembre	2023-08-12T00:00:00	2024-11-08T23:00:00	3	Temperatura mínima	18.8
163884	7	Sololá	713	San Lucas Tolimán	10	San Lucas Tolimán	12	Diciembre	2023-08-12T00:00:00	2024-11-08T23:00:00	5	Humedad	56
163885	7	Sololá	713	San Lucas Tolimán	10	San Lucas Tolimán	12	Diciembre	2023-08-12T00:00:00	2024-11-08T23:00:00	6	Velocidad del viento	4.8
163886	7	Sololá	713	San Lucas Tolimán	10	San Lucas Tolimán	12	Diciembre	2023-08-12T00:00:00	2024-11-08T23:00:00	7	Dirección del viento	4.83
163887	7	Sololá	713	San Lucas Tolimán	10	San Lucas Tolimán	12	Diciembre	2023-08-12T00:00:00	2024-11-08T23:00:00	1	Precipitación	0
163888	7	Sololá	713	San Lucas Tolimán	10	San Lucas Tolimán	12	Diciembre	2023-08-12T00:00:00	2024-11-08T23:00:00	8	Radiación solar	0
163889	7	Sololá	713	San Lucas Tolimán	10	San Lucas Tolimán	12	Diciembre	2023-09-12T00:00:00	2024-11-08T00:00:00	2	Temperatura media	19.3
163890	7	Sololá	713	San Lucas Tolimán	10	San Lucas Tolimán	12	Diciembre	2023-09-12T00:00:00	2024-11-08T00:00:00	4	Temperatura máxima	19.8
163891	7	Sololá	713	San Lucas Tolimán	10	San Lucas Tolimán	12	Diciembre	2023-09-12T00:00:00	2024-11-08T00:00:00	3	Temperatura mínima	18.9
163892	7	Sololá	713	San Lucas Tolimán	10	San Lucas Tolimán	12	Diciembre	2023-09-12T00:00:00	2024-11-08T00:00:00	5	Humedad	54
163893	7	Sololá	713	San Lucas Tolimán	10	San Lucas Tolimán	12	Diciembre	2023-09-12T00:00:00	2024-11-08T00:00:00	6	Velocidad del viento	3.2
163894	7	Sololá	713	San Lucas Tolimán	10	San Lucas Tolimán	12	Diciembre	2023-09-12T00:00:00	2024-11-08T00:00:00	7	Dirección del viento	3.22
163895	7	Sololá	713	San Lucas Tolimán	10	San Lucas Tolimán	12	Diciembre	2023-09-12T00:00:00	2024-11-08T00:00:00	1	Precipitación	0
163896	7	Sololá	713	San Lucas Tolimán	10	San Lucas Tolimán	12	Diciembre	2023-09-12T00:00:00	2024-11-08T00:00:00	8	Radiación solar	0
163897	7	Sololá	713	San Lucas Tolimán	10	San Lucas Tolimán	12	Diciembre	2023-09-12T00:00:00	2024-11-08T01:00:00	2	Temperatura media	19.1
163898	7	Sololá	713	San Lucas Tolimán	10	San Lucas Tolimán	12	Diciembre	2023-09-12T00:00:00	2024-11-08T01:00:00	4	Temperatura máxima	19.9
163899	7	Sololá	713	San Lucas Tolimán	10	San Lucas Tolimán	12	Diciembre	2023-09-12T00:00:00	2024-11-08T01:00:00	3	Temperatura mínima	19.1
163900	7	Sololá	713	San Lucas Tolimán	10	San Lucas Tolimán	12	Diciembre	2023-09-12T00:00:00	2024-11-08T01:00:00	5	Humedad	56
163901	7	Sololá	713	San Lucas Tolimán	10	San Lucas Tolimán	12	Diciembre	2023-09-12T00:00:00	2024-11-08T01:00:00	6	Velocidad del viento	4.8
163902	7	Sololá	713	San Lucas Tolimán	10	San Lucas Tolimán	12	Diciembre	2023-09-12T00:00:00	2024-11-08T01:00:00	7	Dirección del viento	4.83
163903	7	Sololá	713	San Lucas Tolimán	10	San Lucas Tolimán	12	Diciembre	2023-09-12T00:00:00	2024-11-08T01:00:00	1	Precipitación	0
163904	7	Sololá	713	San Lucas Tolimán	10	San Lucas Tolimán	12	Diciembre	2023-09-12T00:00:00	2024-11-08T01:00:00	8	Radiación solar	0
163905	7	Sololá	713	San Lucas Tolimán	10	San Lucas Tolimán	12	Diciembre	2023-09-12T00:00:00	2024-11-08T02:00:00	2	Temperatura media	17.9
163906	7	Sololá	713	San Lucas Tolimán	10	San Lucas Tolimán	12	Diciembre	2023-09-12T00:00:00	2024-11-08T02:00:00	4	Temperatura máxima	19.1
163907	7	Sololá	713	San Lucas Tolimán	10	San Lucas Tolimán	12	Diciembre	2023-09-12T00:00:00	2024-11-08T02:00:00	3	Temperatura mínima	17.9
163908	7	Sololá	713	San Lucas Tolimán	10	San Lucas Tolimán	12	Diciembre	2023-09-12T00:00:00	2024-11-08T02:00:00	5	Humedad	59
163909	7	Sololá	713	San Lucas Tolimán	10	San Lucas Tolimán	12	Diciembre	2023-09-12T00:00:00	2024-11-08T02:00:00	6	Velocidad del viento	3.2
163910	7	Sololá	713	San Lucas Tolimán	10	San Lucas Tolimán	12	Diciembre	2023-09-12T00:00:00	2024-11-08T02:00:00	7	Dirección del viento	3.22
163911	7	Sololá	713	San Lucas Tolimán	10	San Lucas Tolimán	12	Diciembre	2023-09-12T00:00:00	2024-11-08T02:00:00	1	Precipitación	0
163912	7	Sololá	713	San Lucas Tolimán	10	San Lucas Tolimán	12	Diciembre	2023-09-12T00:00:00	2024-11-08T02:00:00	8	Radiación solar	0
163913	7	Sololá	713	San Lucas Tolimán	10	San Lucas Tolimán	12	Diciembre	2023-09-12T00:00:00	2024-11-08T03:00:00	2	Temperatura media	17.6
163914	7	Sololá	713	San Lucas Tolimán	10	San Lucas Tolimán	12	Diciembre	2023-09-12T00:00:00	2024-11-08T03:00:00	4	Temperatura máxima	18
163915	7	Sololá	713	San Lucas Tolimán	10	San Lucas Tolimán	12	Diciembre	2023-09-12T00:00:00	2024-11-08T03:00:00	3	Temperatura mínima	17.6
163916	7	Sololá	713	San Lucas Tolimán	10	San Lucas Tolimán	12	Diciembre	2023-09-12T00:00:00	2024-11-08T03:00:00	5	Humedad	59
163917	7	Sololá	713	San Lucas Tolimán	10	San Lucas Tolimán	12	Diciembre	2023-09-12T00:00:00	2024-11-08T03:00:00	6	Velocidad del viento	1.6
163918	7	Sololá	713	San Lucas Tolimán	10	San Lucas Tolimán	12	Diciembre	2023-09-12T00:00:00	2024-11-08T03:00:00	7	Dirección del viento	1.61
163919	7	Sololá	713	San Lucas Tolimán	10	San Lucas Tolimán	12	Diciembre	2023-09-12T00:00:00	2024-11-08T03:00:00	1	Precipitación	0
163920	7	Sololá	713	San Lucas Tolimán	10	San Lucas Tolimán	12	Diciembre	2023-09-12T00:00:00	2024-11-08T03:00:00	8	Radiación solar	0
163921	7	Sololá	713	San Lucas Tolimán	10	San Lucas Tolimán	12	Diciembre	2023-09-12T00:00:00	2024-11-08T04:00:00	2	Temperatura media	16.9
163922	7	Sololá	713	San Lucas Tolimán	10	San Lucas Tolimán	12	Diciembre	2023-09-12T00:00:00	2024-11-08T04:00:00	4	Temperatura máxima	17.6
163923	7	Sololá	713	San Lucas Tolimán	10	San Lucas Tolimán	12	Diciembre	2023-09-12T00:00:00	2024-11-08T04:00:00	3	Temperatura mínima	16.9
163924	7	Sololá	713	San Lucas Tolimán	10	San Lucas Tolimán	12	Diciembre	2023-09-12T00:00:00	2024-11-08T04:00:00	5	Humedad	61
163925	7	Sololá	713	San Lucas Tolimán	10	San Lucas Tolimán	12	Diciembre	2023-09-12T00:00:00	2024-11-08T04:00:00	6	Velocidad del viento	1.6
163926	7	Sololá	713	San Lucas Tolimán	10	San Lucas Tolimán	12	Diciembre	2023-09-12T00:00:00	2024-11-08T04:00:00	7	Dirección del viento	1.61
163927	7	Sololá	713	San Lucas Tolimán	10	San Lucas Tolimán	12	Diciembre	2023-09-12T00:00:00	2024-11-08T04:00:00	1	Precipitación	0
163928	7	Sololá	713	San Lucas Tolimán	10	San Lucas Tolimán	12	Diciembre	2023-09-12T00:00:00	2024-11-08T04:00:00	8	Radiación solar	0
163929	7	Sololá	713	San Lucas Tolimán	10	San Lucas Tolimán	12	Diciembre	2023-09-12T00:00:00	2024-11-08T05:00:00	2	Temperatura media	17.1
163930	7	Sololá	713	San Lucas Tolimán	10	San Lucas Tolimán	12	Diciembre	2023-09-12T00:00:00	2024-11-08T05:00:00	4	Temperatura máxima	17.1
163931	7	Sololá	713	San Lucas Tolimán	10	San Lucas Tolimán	12	Diciembre	2023-09-12T00:00:00	2024-11-08T05:00:00	3	Temperatura mínima	16.6
163932	7	Sololá	713	San Lucas Tolimán	10	San Lucas Tolimán	12	Diciembre	2023-09-12T00:00:00	2024-11-08T05:00:00	5	Humedad	60
163933	7	Sololá	713	San Lucas Tolimán	10	San Lucas Tolimán	12	Diciembre	2023-09-12T00:00:00	2024-11-08T05:00:00	6	Velocidad del viento	1.6
163934	7	Sololá	713	San Lucas Tolimán	10	San Lucas Tolimán	12	Diciembre	2023-09-12T00:00:00	2024-11-08T05:00:00	7	Dirección del viento	1.61
163935	7	Sololá	713	San Lucas Tolimán	10	San Lucas Tolimán	12	Diciembre	2023-09-12T00:00:00	2024-11-08T05:00:00	1	Precipitación	0
163936	7	Sololá	713	San Lucas Tolimán	10	San Lucas Tolimán	12	Diciembre	2023-09-12T00:00:00	2024-11-08T05:00:00	8	Radiación solar	0
163937	7	Sololá	713	San Lucas Tolimán	10	San Lucas Tolimán	12	Diciembre	2023-09-12T00:00:00	2024-11-08T06:00:00	2	Temperatura media	16.6
163938	7	Sololá	713	San Lucas Tolimán	10	San Lucas Tolimán	12	Diciembre	2023-09-12T00:00:00	2024-11-08T06:00:00	4	Temperatura máxima	17.1
163939	7	Sololá	713	San Lucas Tolimán	10	San Lucas Tolimán	12	Diciembre	2023-09-12T00:00:00	2024-11-08T06:00:00	3	Temperatura mínima	16.1
163940	7	Sololá	713	San Lucas Tolimán	10	San Lucas Tolimán	12	Diciembre	2023-09-12T00:00:00	2024-11-08T06:00:00	5	Humedad	59
163941	7	Sololá	713	San Lucas Tolimán	10	San Lucas Tolimán	12	Diciembre	2023-09-12T00:00:00	2024-11-08T06:00:00	6	Velocidad del viento	3.2
163942	7	Sololá	713	San Lucas Tolimán	10	San Lucas Tolimán	12	Diciembre	2023-09-12T00:00:00	2024-11-08T06:00:00	7	Dirección del viento	3.22
163943	7	Sololá	713	San Lucas Tolimán	10	San Lucas Tolimán	12	Diciembre	2023-09-12T00:00:00	2024-11-08T06:00:00	1	Precipitación	0
163944	7	Sololá	713	San Lucas Tolimán	10	San Lucas Tolimán	12	Diciembre	2023-09-12T00:00:00	2024-11-08T06:00:00	8	Radiación solar	0
163945	7	Sololá	713	San Lucas Tolimán	10	San Lucas Tolimán	12	Diciembre	2023-09-12T00:00:00	2024-11-08T07:00:00	2	Temperatura media	15.8
163946	7	Sololá	713	San Lucas Tolimán	10	San Lucas Tolimán	12	Diciembre	2023-09-12T00:00:00	2024-11-08T07:00:00	4	Temperatura máxima	16.7
163947	7	Sololá	713	San Lucas Tolimán	10	San Lucas Tolimán	12	Diciembre	2023-09-12T00:00:00	2024-11-08T07:00:00	3	Temperatura mínima	15.8
163948	7	Sololá	713	San Lucas Tolimán	10	San Lucas Tolimán	12	Diciembre	2023-09-12T00:00:00	2024-11-08T07:00:00	5	Humedad	62
163949	7	Sololá	713	San Lucas Tolimán	10	San Lucas Tolimán	12	Diciembre	2023-09-12T00:00:00	2024-11-08T07:00:00	6	Velocidad del viento	3.2
163950	7	Sololá	713	San Lucas Tolimán	10	San Lucas Tolimán	12	Diciembre	2023-09-12T00:00:00	2024-11-08T07:00:00	7	Dirección del viento	3.22
163951	7	Sololá	713	San Lucas Tolimán	10	San Lucas Tolimán	12	Diciembre	2023-09-12T00:00:00	2024-11-08T07:00:00	1	Precipitación	0
163952	7	Sololá	713	San Lucas Tolimán	10	San Lucas Tolimán	12	Diciembre	2023-09-12T00:00:00	2024-11-08T07:00:00	8	Radiación solar	8
163953	7	Sololá	713	San Lucas Tolimán	10	San Lucas Tolimán	12	Diciembre	2023-09-12T00:00:00	2024-11-08T08:00:00	2	Temperatura media	17.4
163954	7	Sololá	713	San Lucas Tolimán	10	San Lucas Tolimán	12	Diciembre	2023-09-12T00:00:00	2024-11-08T08:00:00	4	Temperatura máxima	17.4
163955	7	Sololá	713	San Lucas Tolimán	10	San Lucas Tolimán	12	Diciembre	2023-09-12T00:00:00	2024-11-08T08:00:00	3	Temperatura mínima	15.8
163956	7	Sololá	713	San Lucas Tolimán	10	San Lucas Tolimán	12	Diciembre	2023-09-12T00:00:00	2024-11-08T08:00:00	5	Humedad	59
163957	7	Sololá	713	San Lucas Tolimán	10	San Lucas Tolimán	12	Diciembre	2023-09-12T00:00:00	2024-11-08T08:00:00	6	Velocidad del viento	1.6
163958	7	Sololá	713	San Lucas Tolimán	10	San Lucas Tolimán	12	Diciembre	2023-09-12T00:00:00	2024-11-08T08:00:00	7	Dirección del viento	1.61
163959	7	Sololá	713	San Lucas Tolimán	10	San Lucas Tolimán	12	Diciembre	2023-09-12T00:00:00	2024-11-08T08:00:00	1	Precipitación	0
163960	7	Sololá	713	San Lucas Tolimán	10	San Lucas Tolimán	12	Diciembre	2023-09-12T00:00:00	2024-11-08T08:00:00	8	Radiación solar	28
163961	7	Sololá	713	San Lucas Tolimán	10	San Lucas Tolimán	12	Diciembre	2023-09-12T00:00:00	2024-11-08T09:00:00	2	Temperatura media	21.2
163962	7	Sololá	713	San Lucas Tolimán	10	San Lucas Tolimán	12	Diciembre	2023-09-12T00:00:00	2024-11-08T09:00:00	4	Temperatura máxima	21.2
163963	7	Sololá	713	San Lucas Tolimán	10	San Lucas Tolimán	12	Diciembre	2023-09-12T00:00:00	2024-11-08T09:00:00	3	Temperatura mínima	17.4
163964	7	Sololá	713	San Lucas Tolimán	10	San Lucas Tolimán	12	Diciembre	2023-09-12T00:00:00	2024-11-08T09:00:00	5	Humedad	52
163965	7	Sololá	713	San Lucas Tolimán	10	San Lucas Tolimán	12	Diciembre	2023-09-12T00:00:00	2024-11-08T09:00:00	6	Velocidad del viento	1.6
163966	7	Sololá	713	San Lucas Tolimán	10	San Lucas Tolimán	12	Diciembre	2023-09-12T00:00:00	2024-11-08T09:00:00	7	Dirección del viento	1.61
163967	7	Sololá	713	San Lucas Tolimán	10	San Lucas Tolimán	12	Diciembre	2023-09-12T00:00:00	2024-11-08T09:00:00	1	Precipitación	0
163968	7	Sololá	713	San Lucas Tolimán	10	San Lucas Tolimán	12	Diciembre	2023-09-12T00:00:00	2024-11-08T09:00:00	8	Radiación solar	329
163969	7	Sololá	713	San Lucas Tolimán	10	San Lucas Tolimán	12	Diciembre	2023-09-12T00:00:00	2024-11-08T10:00:00	2	Temperatura media	23.6
163970	7	Sololá	713	San Lucas Tolimán	10	San Lucas Tolimán	12	Diciembre	2023-09-12T00:00:00	2024-11-08T10:00:00	4	Temperatura máxima	23.6
163971	7	Sololá	713	San Lucas Tolimán	10	San Lucas Tolimán	12	Diciembre	2023-09-12T00:00:00	2024-11-08T10:00:00	3	Temperatura mínima	21.2
163972	7	Sololá	713	San Lucas Tolimán	10	San Lucas Tolimán	12	Diciembre	2023-09-12T00:00:00	2024-11-08T10:00:00	5	Humedad	39
163973	7	Sololá	713	San Lucas Tolimán	10	San Lucas Tolimán	12	Diciembre	2023-09-12T00:00:00	2024-11-08T10:00:00	6	Velocidad del viento	8
163974	7	Sololá	713	San Lucas Tolimán	10	San Lucas Tolimán	12	Diciembre	2023-09-12T00:00:00	2024-11-08T10:00:00	7	Dirección del viento	8.05
163975	7	Sololá	713	San Lucas Tolimán	10	San Lucas Tolimán	12	Diciembre	2023-09-12T00:00:00	2024-11-08T10:00:00	1	Precipitación	0
163976	7	Sololá	713	San Lucas Tolimán	10	San Lucas Tolimán	12	Diciembre	2023-09-12T00:00:00	2024-11-08T10:00:00	8	Radiación solar	584
163977	7	Sololá	713	San Lucas Tolimán	10	San Lucas Tolimán	12	Diciembre	2023-09-12T00:00:00	2024-11-08T11:00:00	2	Temperatura media	26.1
163978	7	Sololá	713	San Lucas Tolimán	10	San Lucas Tolimán	12	Diciembre	2023-09-12T00:00:00	2024-11-08T11:00:00	4	Temperatura máxima	26.2
163979	7	Sololá	713	San Lucas Tolimán	10	San Lucas Tolimán	12	Diciembre	2023-09-12T00:00:00	2024-11-08T11:00:00	3	Temperatura mínima	23.6
163980	7	Sololá	713	San Lucas Tolimán	10	San Lucas Tolimán	12	Diciembre	2023-09-12T00:00:00	2024-11-08T11:00:00	5	Humedad	36
163981	7	Sololá	713	San Lucas Tolimán	10	San Lucas Tolimán	12	Diciembre	2023-09-12T00:00:00	2024-11-08T11:00:00	6	Velocidad del viento	8
163982	7	Sololá	713	San Lucas Tolimán	10	San Lucas Tolimán	12	Diciembre	2023-09-12T00:00:00	2024-11-08T11:00:00	7	Dirección del viento	8.05
163983	7	Sololá	713	San Lucas Tolimán	10	San Lucas Tolimán	12	Diciembre	2023-09-12T00:00:00	2024-11-08T11:00:00	1	Precipitación	0
163984	7	Sololá	713	San Lucas Tolimán	10	San Lucas Tolimán	12	Diciembre	2023-09-12T00:00:00	2024-11-08T11:00:00	8	Radiación solar	758
163985	7	Sololá	713	San Lucas Tolimán	10	San Lucas Tolimán	12	Diciembre	2023-09-12T00:00:00	2024-11-08T12:00:00	2	Temperatura media	24.9
163986	7	Sololá	713	San Lucas Tolimán	10	San Lucas Tolimán	12	Diciembre	2023-09-12T00:00:00	2024-11-08T12:00:00	4	Temperatura máxima	26.1
163987	7	Sololá	713	San Lucas Tolimán	10	San Lucas Tolimán	12	Diciembre	2023-09-12T00:00:00	2024-11-08T12:00:00	3	Temperatura mínima	24.8
163988	7	Sololá	713	San Lucas Tolimán	10	San Lucas Tolimán	12	Diciembre	2023-09-12T00:00:00	2024-11-08T12:00:00	5	Humedad	52
163989	7	Sololá	713	San Lucas Tolimán	10	San Lucas Tolimán	12	Diciembre	2023-09-12T00:00:00	2024-11-08T12:00:00	6	Velocidad del viento	6.4
163990	7	Sololá	713	San Lucas Tolimán	10	San Lucas Tolimán	12	Diciembre	2023-09-12T00:00:00	2024-11-08T12:00:00	7	Dirección del viento	6.44
163991	7	Sololá	713	San Lucas Tolimán	10	San Lucas Tolimán	12	Diciembre	2023-09-12T00:00:00	2024-11-08T12:00:00	1	Precipitación	0
163992	7	Sololá	713	San Lucas Tolimán	10	San Lucas Tolimán	12	Diciembre	2023-09-12T00:00:00	2024-11-08T12:00:00	8	Radiación solar	838
163993	7	Sololá	713	San Lucas Tolimán	10	San Lucas Tolimán	12	Diciembre	2023-09-12T00:00:00	2024-11-08T13:00:00	2	Temperatura media	23.4
163994	7	Sololá	713	San Lucas Tolimán	10	San Lucas Tolimán	12	Diciembre	2023-09-12T00:00:00	2024-11-08T13:00:00	4	Temperatura máxima	24.9
163995	7	Sololá	713	San Lucas Tolimán	10	San Lucas Tolimán	12	Diciembre	2023-09-12T00:00:00	2024-11-08T13:00:00	3	Temperatura mínima	23.3
163996	7	Sololá	713	San Lucas Tolimán	10	San Lucas Tolimán	12	Diciembre	2023-09-12T00:00:00	2024-11-08T13:00:00	5	Humedad	59
163997	7	Sololá	713	San Lucas Tolimán	10	San Lucas Tolimán	12	Diciembre	2023-09-12T00:00:00	2024-11-08T13:00:00	6	Velocidad del viento	11.3
163998	7	Sololá	713	San Lucas Tolimán	10	San Lucas Tolimán	12	Diciembre	2023-09-12T00:00:00	2024-11-08T13:00:00	7	Dirección del viento	11.27
163999	7	Sololá	713	San Lucas Tolimán	10	San Lucas Tolimán	12	Diciembre	2023-09-12T00:00:00	2024-11-08T13:00:00	1	Precipitación	0
164000	7	Sololá	713	San Lucas Tolimán	10	San Lucas Tolimán	12	Diciembre	2023-09-12T00:00:00	2024-11-08T13:00:00	8	Radiación solar	847
164001	7	Sololá	713	San Lucas Tolimán	10	San Lucas Tolimán	12	Diciembre	2023-09-12T00:00:00	2024-11-08T14:00:00	2	Temperatura media	23.4
164002	7	Sololá	713	San Lucas Tolimán	10	San Lucas Tolimán	12	Diciembre	2023-09-12T00:00:00	2024-11-08T14:00:00	4	Temperatura máxima	23.6
164003	7	Sololá	713	San Lucas Tolimán	10	San Lucas Tolimán	12	Diciembre	2023-09-12T00:00:00	2024-11-08T14:00:00	3	Temperatura mínima	22.9
164004	7	Sololá	713	San Lucas Tolimán	10	San Lucas Tolimán	12	Diciembre	2023-09-12T00:00:00	2024-11-08T14:00:00	5	Humedad	60
164005	7	Sololá	713	San Lucas Tolimán	10	San Lucas Tolimán	12	Diciembre	2023-09-12T00:00:00	2024-11-08T14:00:00	6	Velocidad del viento	12.9
164006	7	Sololá	713	San Lucas Tolimán	10	San Lucas Tolimán	12	Diciembre	2023-09-12T00:00:00	2024-11-08T14:00:00	7	Dirección del viento	12.87
164007	7	Sololá	713	San Lucas Tolimán	10	San Lucas Tolimán	12	Diciembre	2023-09-12T00:00:00	2024-11-08T14:00:00	1	Precipitación	0
164008	7	Sololá	713	San Lucas Tolimán	10	San Lucas Tolimán	12	Diciembre	2023-09-12T00:00:00	2024-11-08T14:00:00	8	Radiación solar	790
164009	7	Sololá	713	San Lucas Tolimán	10	San Lucas Tolimán	12	Diciembre	2023-09-12T00:00:00	2024-11-08T15:00:00	2	Temperatura media	22.8
164010	7	Sololá	713	San Lucas Tolimán	10	San Lucas Tolimán	12	Diciembre	2023-09-12T00:00:00	2024-11-08T15:00:00	4	Temperatura máxima	23.5
164011	7	Sololá	713	San Lucas Tolimán	10	San Lucas Tolimán	12	Diciembre	2023-09-12T00:00:00	2024-11-08T15:00:00	3	Temperatura mínima	22.8
164012	7	Sololá	713	San Lucas Tolimán	10	San Lucas Tolimán	12	Diciembre	2023-09-12T00:00:00	2024-11-08T15:00:00	5	Humedad	60
164013	7	Sololá	713	San Lucas Tolimán	10	San Lucas Tolimán	12	Diciembre	2023-09-12T00:00:00	2024-11-08T15:00:00	6	Velocidad del viento	11.3
164014	7	Sololá	713	San Lucas Tolimán	10	San Lucas Tolimán	12	Diciembre	2023-09-12T00:00:00	2024-11-08T15:00:00	7	Dirección del viento	11.27
164015	7	Sololá	713	San Lucas Tolimán	10	San Lucas Tolimán	12	Diciembre	2023-09-12T00:00:00	2024-11-08T15:00:00	1	Precipitación	0
164016	7	Sololá	713	San Lucas Tolimán	10	San Lucas Tolimán	12	Diciembre	2023-09-12T00:00:00	2024-11-08T15:00:00	8	Radiación solar	590
164017	7	Sololá	713	San Lucas Tolimán	10	San Lucas Tolimán	12	Diciembre	2023-09-12T00:00:00	2024-11-08T16:00:00	2	Temperatura media	21.9
164018	7	Sololá	713	San Lucas Tolimán	10	San Lucas Tolimán	12	Diciembre	2023-09-12T00:00:00	2024-11-08T16:00:00	4	Temperatura máxima	22.8
164019	7	Sololá	713	San Lucas Tolimán	10	San Lucas Tolimán	12	Diciembre	2023-09-12T00:00:00	2024-11-08T16:00:00	3	Temperatura mínima	21.7
164020	7	Sololá	713	San Lucas Tolimán	10	San Lucas Tolimán	12	Diciembre	2023-09-12T00:00:00	2024-11-08T16:00:00	5	Humedad	62
164021	7	Sololá	713	San Lucas Tolimán	10	San Lucas Tolimán	12	Diciembre	2023-09-12T00:00:00	2024-11-08T16:00:00	6	Velocidad del viento	11.3
164022	7	Sololá	713	San Lucas Tolimán	10	San Lucas Tolimán	12	Diciembre	2023-09-12T00:00:00	2024-11-08T16:00:00	7	Dirección del viento	11.27
164023	7	Sololá	713	San Lucas Tolimán	10	San Lucas Tolimán	12	Diciembre	2023-09-12T00:00:00	2024-11-08T16:00:00	1	Precipitación	0
164024	7	Sololá	713	San Lucas Tolimán	10	San Lucas Tolimán	12	Diciembre	2023-09-12T00:00:00	2024-11-08T16:00:00	8	Radiación solar	253
164025	7	Sololá	713	San Lucas Tolimán	10	San Lucas Tolimán	12	Diciembre	2023-09-12T00:00:00	2024-11-08T17:00:00	2	Temperatura media	20.6
164026	7	Sololá	713	San Lucas Tolimán	10	San Lucas Tolimán	12	Diciembre	2023-09-12T00:00:00	2024-11-08T17:00:00	4	Temperatura máxima	22.1
164027	7	Sololá	713	San Lucas Tolimán	10	San Lucas Tolimán	12	Diciembre	2023-09-12T00:00:00	2024-11-08T17:00:00	3	Temperatura mínima	20.6
164028	7	Sololá	713	San Lucas Tolimán	10	San Lucas Tolimán	12	Diciembre	2023-09-12T00:00:00	2024-11-08T17:00:00	5	Humedad	61
164029	7	Sololá	713	San Lucas Tolimán	10	San Lucas Tolimán	12	Diciembre	2023-09-12T00:00:00	2024-11-08T17:00:00	6	Velocidad del viento	9.7
164030	7	Sololá	713	San Lucas Tolimán	10	San Lucas Tolimán	12	Diciembre	2023-09-12T00:00:00	2024-11-08T17:00:00	7	Dirección del viento	9.66
164031	7	Sololá	713	San Lucas Tolimán	10	San Lucas Tolimán	12	Diciembre	2023-09-12T00:00:00	2024-11-08T17:00:00	1	Precipitación	0
164032	7	Sololá	713	San Lucas Tolimán	10	San Lucas Tolimán	12	Diciembre	2023-09-12T00:00:00	2024-11-08T17:00:00	8	Radiación solar	121
164033	7	Sololá	713	San Lucas Tolimán	10	San Lucas Tolimán	12	Diciembre	2023-09-12T00:00:00	2024-11-08T18:00:00	2	Temperatura media	18.7
164034	7	Sololá	713	San Lucas Tolimán	10	San Lucas Tolimán	12	Diciembre	2023-09-12T00:00:00	2024-11-08T18:00:00	4	Temperatura máxima	20.6
164035	7	Sololá	713	San Lucas Tolimán	10	San Lucas Tolimán	12	Diciembre	2023-09-12T00:00:00	2024-11-08T18:00:00	3	Temperatura mínima	18.7
164036	7	Sololá	713	San Lucas Tolimán	10	San Lucas Tolimán	12	Diciembre	2023-09-12T00:00:00	2024-11-08T18:00:00	5	Humedad	57
164037	7	Sololá	713	San Lucas Tolimán	10	San Lucas Tolimán	12	Diciembre	2023-09-12T00:00:00	2024-11-08T18:00:00	6	Velocidad del viento	6.4
164038	7	Sololá	713	San Lucas Tolimán	10	San Lucas Tolimán	12	Diciembre	2023-09-12T00:00:00	2024-11-08T18:00:00	7	Dirección del viento	6.44
164039	7	Sololá	713	San Lucas Tolimán	10	San Lucas Tolimán	12	Diciembre	2023-09-12T00:00:00	2024-11-08T18:00:00	1	Precipitación	0
164040	7	Sololá	713	San Lucas Tolimán	10	San Lucas Tolimán	12	Diciembre	2023-09-12T00:00:00	2024-11-08T18:00:00	8	Radiación solar	13
164041	7	Sololá	713	San Lucas Tolimán	10	San Lucas Tolimán	12	Diciembre	2023-09-12T00:00:00	2024-11-08T19:00:00	2	Temperatura media	17.9
164042	7	Sololá	713	San Lucas Tolimán	10	San Lucas Tolimán	12	Diciembre	2023-09-12T00:00:00	2024-11-08T19:00:00	4	Temperatura máxima	18.7
164043	7	Sololá	713	San Lucas Tolimán	10	San Lucas Tolimán	12	Diciembre	2023-09-12T00:00:00	2024-11-08T19:00:00	3	Temperatura mínima	17.9
164044	7	Sololá	713	San Lucas Tolimán	10	San Lucas Tolimán	12	Diciembre	2023-09-12T00:00:00	2024-11-08T19:00:00	5	Humedad	57
164045	7	Sololá	713	San Lucas Tolimán	10	San Lucas Tolimán	12	Diciembre	2023-09-12T00:00:00	2024-11-08T19:00:00	6	Velocidad del viento	1.6
164046	7	Sololá	713	San Lucas Tolimán	10	San Lucas Tolimán	12	Diciembre	2023-09-12T00:00:00	2024-11-08T19:00:00	7	Dirección del viento	1.61
164047	7	Sololá	713	San Lucas Tolimán	10	San Lucas Tolimán	12	Diciembre	2023-09-12T00:00:00	2024-11-08T19:00:00	1	Precipitación	0
164048	7	Sololá	713	San Lucas Tolimán	10	San Lucas Tolimán	12	Diciembre	2023-09-12T00:00:00	2024-11-08T19:00:00	8	Radiación solar	0
164049	7	Sololá	713	San Lucas Tolimán	10	San Lucas Tolimán	12	Diciembre	2023-09-12T00:00:00	2024-11-08T20:00:00	2	Temperatura media	19.2
164050	7	Sololá	713	San Lucas Tolimán	10	San Lucas Tolimán	12	Diciembre	2023-09-12T00:00:00	2024-11-08T20:00:00	4	Temperatura máxima	19.2
164051	7	Sololá	713	San Lucas Tolimán	10	San Lucas Tolimán	12	Diciembre	2023-09-12T00:00:00	2024-11-08T20:00:00	3	Temperatura mínima	17.9
164052	7	Sololá	713	San Lucas Tolimán	10	San Lucas Tolimán	12	Diciembre	2023-09-12T00:00:00	2024-11-08T20:00:00	5	Humedad	56
164053	7	Sololá	713	San Lucas Tolimán	10	San Lucas Tolimán	12	Diciembre	2023-09-12T00:00:00	2024-11-08T20:00:00	6	Velocidad del viento	3.2
164054	7	Sololá	713	San Lucas Tolimán	10	San Lucas Tolimán	12	Diciembre	2023-09-12T00:00:00	2024-11-08T20:00:00	7	Dirección del viento	3.22
164055	7	Sololá	713	San Lucas Tolimán	10	San Lucas Tolimán	12	Diciembre	2023-09-12T00:00:00	2024-11-08T20:00:00	1	Precipitación	0
164056	7	Sololá	713	San Lucas Tolimán	10	San Lucas Tolimán	12	Diciembre	2023-09-12T00:00:00	2024-11-08T20:00:00	8	Radiación solar	0
164057	7	Sololá	713	San Lucas Tolimán	10	San Lucas Tolimán	12	Diciembre	2023-09-12T00:00:00	2024-11-08T21:00:00	2	Temperatura media	20.4
164058	7	Sololá	713	San Lucas Tolimán	10	San Lucas Tolimán	12	Diciembre	2023-09-12T00:00:00	2024-11-08T21:00:00	4	Temperatura máxima	20.6
164059	7	Sololá	713	San Lucas Tolimán	10	San Lucas Tolimán	12	Diciembre	2023-09-12T00:00:00	2024-11-08T21:00:00	3	Temperatura mínima	19.2
164060	7	Sololá	713	San Lucas Tolimán	10	San Lucas Tolimán	12	Diciembre	2023-09-12T00:00:00	2024-11-08T21:00:00	5	Humedad	53
164061	7	Sololá	713	San Lucas Tolimán	10	San Lucas Tolimán	12	Diciembre	2023-09-12T00:00:00	2024-11-08T21:00:00	6	Velocidad del viento	12.9
164062	7	Sololá	713	San Lucas Tolimán	10	San Lucas Tolimán	12	Diciembre	2023-09-12T00:00:00	2024-11-08T21:00:00	7	Dirección del viento	12.87
164063	7	Sololá	713	San Lucas Tolimán	10	San Lucas Tolimán	12	Diciembre	2023-09-12T00:00:00	2024-11-08T21:00:00	1	Precipitación	0
164064	7	Sololá	713	San Lucas Tolimán	10	San Lucas Tolimán	12	Diciembre	2023-09-12T00:00:00	2024-11-08T21:00:00	8	Radiación solar	0
164065	7	Sololá	713	San Lucas Tolimán	10	San Lucas Tolimán	12	Diciembre	2023-09-12T00:00:00	2024-11-08T22:00:00	2	Temperatura media	19.3
164066	7	Sololá	713	San Lucas Tolimán	10	San Lucas Tolimán	12	Diciembre	2023-09-12T00:00:00	2024-11-08T22:00:00	4	Temperatura máxima	20.5
164067	7	Sololá	713	San Lucas Tolimán	10	San Lucas Tolimán	12	Diciembre	2023-09-12T00:00:00	2024-11-08T22:00:00	3	Temperatura mínima	19.2
164068	7	Sololá	713	San Lucas Tolimán	10	San Lucas Tolimán	12	Diciembre	2023-09-12T00:00:00	2024-11-08T22:00:00	5	Humedad	55
164069	7	Sololá	713	San Lucas Tolimán	10	San Lucas Tolimán	12	Diciembre	2023-09-12T00:00:00	2024-11-08T22:00:00	6	Velocidad del viento	4.8
164070	7	Sololá	713	San Lucas Tolimán	10	San Lucas Tolimán	12	Diciembre	2023-09-12T00:00:00	2024-11-08T22:00:00	7	Dirección del viento	4.83
164071	7	Sololá	713	San Lucas Tolimán	10	San Lucas Tolimán	12	Diciembre	2023-09-12T00:00:00	2024-11-08T22:00:00	1	Precipitación	0
164072	7	Sololá	713	San Lucas Tolimán	10	San Lucas Tolimán	12	Diciembre	2023-09-12T00:00:00	2024-11-08T22:00:00	8	Radiación solar	0
164073	7	Sololá	713	San Lucas Tolimán	10	San Lucas Tolimán	12	Diciembre	2023-09-12T00:00:00	2024-11-08T23:00:00	2	Temperatura media	18.2
164074	7	Sololá	713	San Lucas Tolimán	10	San Lucas Tolimán	12	Diciembre	2023-09-12T00:00:00	2024-11-08T23:00:00	4	Temperatura máxima	19.3
164075	7	Sololá	713	San Lucas Tolimán	10	San Lucas Tolimán	12	Diciembre	2023-09-12T00:00:00	2024-11-08T23:00:00	3	Temperatura mínima	18.2
164076	7	Sololá	713	San Lucas Tolimán	10	San Lucas Tolimán	12	Diciembre	2023-09-12T00:00:00	2024-11-08T23:00:00	5	Humedad	58
164077	7	Sololá	713	San Lucas Tolimán	10	San Lucas Tolimán	12	Diciembre	2023-09-12T00:00:00	2024-11-08T23:00:00	6	Velocidad del viento	3.2
164078	7	Sololá	713	San Lucas Tolimán	10	San Lucas Tolimán	12	Diciembre	2023-09-12T00:00:00	2024-11-08T23:00:00	7	Dirección del viento	3.22
164079	7	Sololá	713	San Lucas Tolimán	10	San Lucas Tolimán	12	Diciembre	2023-09-12T00:00:00	2024-11-08T23:00:00	1	Precipitación	0
164080	7	Sololá	713	San Lucas Tolimán	10	San Lucas Tolimán	12	Diciembre	2023-09-12T00:00:00	2024-11-08T23:00:00	8	Radiación solar	0
164081	7	Sololá	713	San Lucas Tolimán	10	San Lucas Tolimán	12	Diciembre	2023-10-12T00:00:00	2024-11-08T00:00:00	2	Temperatura media	17.8
164082	7	Sololá	713	San Lucas Tolimán	10	San Lucas Tolimán	12	Diciembre	2023-10-12T00:00:00	2024-11-08T00:00:00	4	Temperatura máxima	18.4
164083	7	Sololá	713	San Lucas Tolimán	10	San Lucas Tolimán	12	Diciembre	2023-10-12T00:00:00	2024-11-08T00:00:00	3	Temperatura mínima	17.8
164084	7	Sololá	713	San Lucas Tolimán	10	San Lucas Tolimán	12	Diciembre	2023-10-12T00:00:00	2024-11-08T00:00:00	5	Humedad	59
164085	7	Sololá	713	San Lucas Tolimán	10	San Lucas Tolimán	12	Diciembre	2023-10-12T00:00:00	2024-11-08T00:00:00	6	Velocidad del viento	3.2
164086	7	Sololá	713	San Lucas Tolimán	10	San Lucas Tolimán	12	Diciembre	2023-10-12T00:00:00	2024-11-08T00:00:00	7	Dirección del viento	3.22
164087	7	Sololá	713	San Lucas Tolimán	10	San Lucas Tolimán	12	Diciembre	2023-10-12T00:00:00	2024-11-08T00:00:00	1	Precipitación	0
164088	7	Sololá	713	San Lucas Tolimán	10	San Lucas Tolimán	12	Diciembre	2023-10-12T00:00:00	2024-11-08T00:00:00	8	Radiación solar	0
164089	7	Sololá	713	San Lucas Tolimán	10	San Lucas Tolimán	12	Diciembre	2023-10-12T00:00:00	2024-11-08T01:00:00	2	Temperatura media	17.6
164090	7	Sololá	713	San Lucas Tolimán	10	San Lucas Tolimán	12	Diciembre	2023-10-12T00:00:00	2024-11-08T01:00:00	4	Temperatura máxima	17.9
164091	7	Sololá	713	San Lucas Tolimán	10	San Lucas Tolimán	12	Diciembre	2023-10-12T00:00:00	2024-11-08T01:00:00	3	Temperatura mínima	17.6
164092	7	Sololá	713	San Lucas Tolimán	10	San Lucas Tolimán	12	Diciembre	2023-10-12T00:00:00	2024-11-08T01:00:00	5	Humedad	59
164093	7	Sololá	713	San Lucas Tolimán	10	San Lucas Tolimán	12	Diciembre	2023-10-12T00:00:00	2024-11-08T01:00:00	6	Velocidad del viento	3.2
164094	7	Sololá	713	San Lucas Tolimán	10	San Lucas Tolimán	12	Diciembre	2023-10-12T00:00:00	2024-11-08T01:00:00	7	Dirección del viento	3.22
164095	7	Sololá	713	San Lucas Tolimán	10	San Lucas Tolimán	12	Diciembre	2023-10-12T00:00:00	2024-11-08T01:00:00	1	Precipitación	0
164096	7	Sololá	713	San Lucas Tolimán	10	San Lucas Tolimán	12	Diciembre	2023-10-12T00:00:00	2024-11-08T01:00:00	8	Radiación solar	0
164097	7	Sololá	713	San Lucas Tolimán	10	San Lucas Tolimán	12	Diciembre	2023-10-12T00:00:00	2024-11-08T02:00:00	2	Temperatura media	17.1
164098	7	Sololá	713	San Lucas Tolimán	10	San Lucas Tolimán	12	Diciembre	2023-10-12T00:00:00	2024-11-08T02:00:00	4	Temperatura máxima	17.6
164099	7	Sololá	713	San Lucas Tolimán	10	San Lucas Tolimán	12	Diciembre	2023-10-12T00:00:00	2024-11-08T02:00:00	3	Temperatura mínima	16.9
164100	7	Sololá	713	San Lucas Tolimán	10	San Lucas Tolimán	12	Diciembre	2023-10-12T00:00:00	2024-11-08T02:00:00	5	Humedad	58
164101	7	Sololá	713	San Lucas Tolimán	10	San Lucas Tolimán	12	Diciembre	2023-10-12T00:00:00	2024-11-08T02:00:00	6	Velocidad del viento	3.2
164102	7	Sololá	713	San Lucas Tolimán	10	San Lucas Tolimán	12	Diciembre	2023-10-12T00:00:00	2024-11-08T02:00:00	7	Dirección del viento	3.22
164103	7	Sololá	713	San Lucas Tolimán	10	San Lucas Tolimán	12	Diciembre	2023-10-12T00:00:00	2024-11-08T02:00:00	1	Precipitación	0
164104	7	Sololá	713	San Lucas Tolimán	10	San Lucas Tolimán	12	Diciembre	2023-10-12T00:00:00	2024-11-08T02:00:00	8	Radiación solar	0
164105	7	Sololá	713	San Lucas Tolimán	10	San Lucas Tolimán	12	Diciembre	2023-10-12T00:00:00	2024-11-08T03:00:00	2	Temperatura media	16.8
164106	7	Sololá	713	San Lucas Tolimán	10	San Lucas Tolimán	12	Diciembre	2023-10-12T00:00:00	2024-11-08T03:00:00	4	Temperatura máxima	17.3
164107	7	Sololá	713	San Lucas Tolimán	10	San Lucas Tolimán	12	Diciembre	2023-10-12T00:00:00	2024-11-08T03:00:00	3	Temperatura mínima	16.7
164108	7	Sololá	713	San Lucas Tolimán	10	San Lucas Tolimán	12	Diciembre	2023-10-12T00:00:00	2024-11-08T03:00:00	5	Humedad	59
164109	7	Sololá	713	San Lucas Tolimán	10	San Lucas Tolimán	12	Diciembre	2023-10-12T00:00:00	2024-11-08T03:00:00	6	Velocidad del viento	3.2
164110	7	Sololá	713	San Lucas Tolimán	10	San Lucas Tolimán	12	Diciembre	2023-10-12T00:00:00	2024-11-08T03:00:00	7	Dirección del viento	3.22
164111	7	Sololá	713	San Lucas Tolimán	10	San Lucas Tolimán	12	Diciembre	2023-10-12T00:00:00	2024-11-08T03:00:00	1	Precipitación	0
164112	7	Sololá	713	San Lucas Tolimán	10	San Lucas Tolimán	12	Diciembre	2023-10-12T00:00:00	2024-11-08T03:00:00	8	Radiación solar	0
164113	7	Sololá	713	San Lucas Tolimán	10	San Lucas Tolimán	12	Diciembre	2023-10-12T00:00:00	2024-11-08T04:00:00	2	Temperatura media	16.7
164114	7	Sololá	713	San Lucas Tolimán	10	San Lucas Tolimán	12	Diciembre	2023-10-12T00:00:00	2024-11-08T04:00:00	4	Temperatura máxima	17.1
164115	7	Sololá	713	San Lucas Tolimán	10	San Lucas Tolimán	12	Diciembre	2023-10-12T00:00:00	2024-11-08T04:00:00	3	Temperatura mínima	16.4
164116	7	Sololá	713	San Lucas Tolimán	10	San Lucas Tolimán	12	Diciembre	2023-10-12T00:00:00	2024-11-08T04:00:00	5	Humedad	59
164117	7	Sololá	713	San Lucas Tolimán	10	San Lucas Tolimán	12	Diciembre	2023-10-12T00:00:00	2024-11-08T04:00:00	6	Velocidad del viento	3.2
164118	7	Sololá	713	San Lucas Tolimán	10	San Lucas Tolimán	12	Diciembre	2023-10-12T00:00:00	2024-11-08T04:00:00	7	Dirección del viento	3.22
164119	7	Sololá	713	San Lucas Tolimán	10	San Lucas Tolimán	12	Diciembre	2023-10-12T00:00:00	2024-11-08T04:00:00	1	Precipitación	0
164120	7	Sololá	713	San Lucas Tolimán	10	San Lucas Tolimán	12	Diciembre	2023-10-12T00:00:00	2024-11-08T04:00:00	8	Radiación solar	0
164121	7	Sololá	713	San Lucas Tolimán	10	San Lucas Tolimán	12	Diciembre	2023-10-12T00:00:00	2024-11-08T05:00:00	2	Temperatura media	16.6
164122	7	Sololá	713	San Lucas Tolimán	10	San Lucas Tolimán	12	Diciembre	2023-10-12T00:00:00	2024-11-08T05:00:00	4	Temperatura máxima	16.9
164123	7	Sololá	713	San Lucas Tolimán	10	San Lucas Tolimán	12	Diciembre	2023-10-12T00:00:00	2024-11-08T05:00:00	3	Temperatura mínima	16.6
164124	7	Sololá	713	San Lucas Tolimán	10	San Lucas Tolimán	12	Diciembre	2023-10-12T00:00:00	2024-11-08T05:00:00	5	Humedad	59
164125	7	Sololá	713	San Lucas Tolimán	10	San Lucas Tolimán	12	Diciembre	2023-10-12T00:00:00	2024-11-08T05:00:00	6	Velocidad del viento	1.6
164126	7	Sololá	713	San Lucas Tolimán	10	San Lucas Tolimán	12	Diciembre	2023-10-12T00:00:00	2024-11-08T05:00:00	7	Dirección del viento	1.61
164127	7	Sololá	713	San Lucas Tolimán	10	San Lucas Tolimán	12	Diciembre	2023-10-12T00:00:00	2024-11-08T05:00:00	1	Precipitación	0
164128	7	Sololá	713	San Lucas Tolimán	10	San Lucas Tolimán	12	Diciembre	2023-10-12T00:00:00	2024-11-08T05:00:00	8	Radiación solar	0
164129	7	Sololá	713	San Lucas Tolimán	10	San Lucas Tolimán	12	Diciembre	2023-10-12T00:00:00	2024-11-08T06:00:00	2	Temperatura media	16.4
164130	7	Sololá	713	San Lucas Tolimán	10	San Lucas Tolimán	12	Diciembre	2023-10-12T00:00:00	2024-11-08T06:00:00	4	Temperatura máxima	16.7
164131	7	Sololá	713	San Lucas Tolimán	10	San Lucas Tolimán	12	Diciembre	2023-10-12T00:00:00	2024-11-08T06:00:00	3	Temperatura mínima	15.8
164132	7	Sololá	713	San Lucas Tolimán	10	San Lucas Tolimán	12	Diciembre	2023-10-12T00:00:00	2024-11-08T06:00:00	5	Humedad	59
164133	7	Sololá	713	San Lucas Tolimán	10	San Lucas Tolimán	12	Diciembre	2023-10-12T00:00:00	2024-11-08T06:00:00	6	Velocidad del viento	4.8
164134	7	Sololá	713	San Lucas Tolimán	10	San Lucas Tolimán	12	Diciembre	2023-10-12T00:00:00	2024-11-08T06:00:00	7	Dirección del viento	4.83
164135	7	Sololá	713	San Lucas Tolimán	10	San Lucas Tolimán	12	Diciembre	2023-10-12T00:00:00	2024-11-08T06:00:00	1	Precipitación	0
164136	7	Sololá	713	San Lucas Tolimán	10	San Lucas Tolimán	12	Diciembre	2023-10-12T00:00:00	2024-11-08T06:00:00	8	Radiación solar	0
164137	7	Sololá	713	San Lucas Tolimán	10	San Lucas Tolimán	12	Diciembre	2023-10-12T00:00:00	2024-11-08T07:00:00	2	Temperatura media	16.1
164138	7	Sololá	713	San Lucas Tolimán	10	San Lucas Tolimán	12	Diciembre	2023-10-12T00:00:00	2024-11-08T07:00:00	4	Temperatura máxima	16.5
164139	7	Sololá	713	San Lucas Tolimán	10	San Lucas Tolimán	12	Diciembre	2023-10-12T00:00:00	2024-11-08T07:00:00	3	Temperatura mínima	16
164140	7	Sololá	713	San Lucas Tolimán	10	San Lucas Tolimán	12	Diciembre	2023-10-12T00:00:00	2024-11-08T07:00:00	5	Humedad	59
164141	7	Sololá	713	San Lucas Tolimán	10	San Lucas Tolimán	12	Diciembre	2023-10-12T00:00:00	2024-11-08T07:00:00	6	Velocidad del viento	4.8
164142	7	Sololá	713	San Lucas Tolimán	10	San Lucas Tolimán	12	Diciembre	2023-10-12T00:00:00	2024-11-08T07:00:00	7	Dirección del viento	4.83
164143	7	Sololá	713	San Lucas Tolimán	10	San Lucas Tolimán	12	Diciembre	2023-10-12T00:00:00	2024-11-08T07:00:00	1	Precipitación	0
164144	7	Sololá	713	San Lucas Tolimán	10	San Lucas Tolimán	12	Diciembre	2023-10-12T00:00:00	2024-11-08T07:00:00	8	Radiación solar	7
164145	7	Sololá	713	San Lucas Tolimán	10	San Lucas Tolimán	12	Diciembre	2023-10-12T00:00:00	2024-11-08T08:00:00	2	Temperatura media	16.9
164146	7	Sololá	713	San Lucas Tolimán	10	San Lucas Tolimán	12	Diciembre	2023-10-12T00:00:00	2024-11-08T08:00:00	4	Temperatura máxima	16.9
164147	7	Sololá	713	San Lucas Tolimán	10	San Lucas Tolimán	12	Diciembre	2023-10-12T00:00:00	2024-11-08T08:00:00	3	Temperatura mínima	15.8
164148	7	Sololá	713	San Lucas Tolimán	10	San Lucas Tolimán	12	Diciembre	2023-10-12T00:00:00	2024-11-08T08:00:00	5	Humedad	56
164149	7	Sololá	713	San Lucas Tolimán	10	San Lucas Tolimán	12	Diciembre	2023-10-12T00:00:00	2024-11-08T08:00:00	6	Velocidad del viento	3.2
164150	7	Sololá	713	San Lucas Tolimán	10	San Lucas Tolimán	12	Diciembre	2023-10-12T00:00:00	2024-11-08T08:00:00	7	Dirección del viento	3.22
164151	7	Sololá	713	San Lucas Tolimán	10	San Lucas Tolimán	12	Diciembre	2023-10-12T00:00:00	2024-11-08T08:00:00	1	Precipitación	0
164152	7	Sololá	713	San Lucas Tolimán	10	San Lucas Tolimán	12	Diciembre	2023-10-12T00:00:00	2024-11-08T08:00:00	8	Radiación solar	22
164153	7	Sololá	713	San Lucas Tolimán	10	San Lucas Tolimán	12	Diciembre	2023-10-12T00:00:00	2024-11-08T09:00:00	2	Temperatura media	19.3
164154	7	Sololá	713	San Lucas Tolimán	10	San Lucas Tolimán	12	Diciembre	2023-10-12T00:00:00	2024-11-08T09:00:00	4	Temperatura máxima	19.4
164155	7	Sololá	713	San Lucas Tolimán	10	San Lucas Tolimán	12	Diciembre	2023-10-12T00:00:00	2024-11-08T09:00:00	3	Temperatura mínima	16.9
164156	7	Sololá	713	San Lucas Tolimán	10	San Lucas Tolimán	12	Diciembre	2023-10-12T00:00:00	2024-11-08T09:00:00	5	Humedad	53
164157	7	Sololá	713	San Lucas Tolimán	10	San Lucas Tolimán	12	Diciembre	2023-10-12T00:00:00	2024-11-08T09:00:00	6	Velocidad del viento	4.8
164158	7	Sololá	713	San Lucas Tolimán	10	San Lucas Tolimán	12	Diciembre	2023-10-12T00:00:00	2024-11-08T09:00:00	7	Dirección del viento	4.83
164159	7	Sololá	713	San Lucas Tolimán	10	San Lucas Tolimán	12	Diciembre	2023-10-12T00:00:00	2024-11-08T09:00:00	1	Precipitación	0
164160	7	Sololá	713	San Lucas Tolimán	10	San Lucas Tolimán	12	Diciembre	2023-10-12T00:00:00	2024-11-08T09:00:00	8	Radiación solar	337
164161	7	Sololá	713	San Lucas Tolimán	10	San Lucas Tolimán	12	Diciembre	2023-10-12T00:00:00	2024-11-08T10:00:00	2	Temperatura media	21.2
164162	7	Sololá	713	San Lucas Tolimán	10	San Lucas Tolimán	12	Diciembre	2023-10-12T00:00:00	2024-11-08T10:00:00	4	Temperatura máxima	21.2
164163	7	Sololá	713	San Lucas Tolimán	10	San Lucas Tolimán	12	Diciembre	2023-10-12T00:00:00	2024-11-08T10:00:00	3	Temperatura mínima	19.3
164164	7	Sololá	713	San Lucas Tolimán	10	San Lucas Tolimán	12	Diciembre	2023-10-12T00:00:00	2024-11-08T10:00:00	5	Humedad	53
164165	7	Sololá	713	San Lucas Tolimán	10	San Lucas Tolimán	12	Diciembre	2023-10-12T00:00:00	2024-11-08T10:00:00	6	Velocidad del viento	6.4
164166	7	Sololá	713	San Lucas Tolimán	10	San Lucas Tolimán	12	Diciembre	2023-10-12T00:00:00	2024-11-08T10:00:00	7	Dirección del viento	6.44
164167	7	Sololá	713	San Lucas Tolimán	10	San Lucas Tolimán	12	Diciembre	2023-10-12T00:00:00	2024-11-08T10:00:00	1	Precipitación	0
164168	7	Sololá	713	San Lucas Tolimán	10	San Lucas Tolimán	12	Diciembre	2023-10-12T00:00:00	2024-11-08T10:00:00	8	Radiación solar	609
164169	7	Sololá	713	San Lucas Tolimán	10	San Lucas Tolimán	12	Diciembre	2023-10-12T00:00:00	2024-11-08T11:00:00	2	Temperatura media	21.3
164170	7	Sololá	713	San Lucas Tolimán	10	San Lucas Tolimán	12	Diciembre	2023-10-12T00:00:00	2024-11-08T11:00:00	4	Temperatura máxima	21.8
164171	7	Sololá	713	San Lucas Tolimán	10	San Lucas Tolimán	12	Diciembre	2023-10-12T00:00:00	2024-11-08T11:00:00	3	Temperatura mínima	20.8
164172	7	Sololá	713	San Lucas Tolimán	10	San Lucas Tolimán	12	Diciembre	2023-10-12T00:00:00	2024-11-08T11:00:00	5	Humedad	53
164173	7	Sololá	713	San Lucas Tolimán	10	San Lucas Tolimán	12	Diciembre	2023-10-12T00:00:00	2024-11-08T11:00:00	6	Velocidad del viento	6.4
164174	7	Sololá	713	San Lucas Tolimán	10	San Lucas Tolimán	12	Diciembre	2023-10-12T00:00:00	2024-11-08T11:00:00	7	Dirección del viento	6.44
164175	7	Sololá	713	San Lucas Tolimán	10	San Lucas Tolimán	12	Diciembre	2023-10-12T00:00:00	2024-11-08T11:00:00	1	Precipitación	0
164176	7	Sololá	713	San Lucas Tolimán	10	San Lucas Tolimán	12	Diciembre	2023-10-12T00:00:00	2024-11-08T11:00:00	8	Radiación solar	754
164177	7	Sololá	713	San Lucas Tolimán	10	San Lucas Tolimán	12	Diciembre	2023-10-12T00:00:00	2024-11-08T12:00:00	2	Temperatura media	24.1
164178	7	Sololá	713	San Lucas Tolimán	10	San Lucas Tolimán	12	Diciembre	2023-10-12T00:00:00	2024-11-08T12:00:00	4	Temperatura máxima	24.6
164179	7	Sololá	713	San Lucas Tolimán	10	San Lucas Tolimán	12	Diciembre	2023-10-12T00:00:00	2024-11-08T12:00:00	3	Temperatura mínima	21.3
164180	7	Sololá	713	San Lucas Tolimán	10	San Lucas Tolimán	12	Diciembre	2023-10-12T00:00:00	2024-11-08T12:00:00	5	Humedad	50
164181	7	Sololá	713	San Lucas Tolimán	10	San Lucas Tolimán	12	Diciembre	2023-10-12T00:00:00	2024-11-08T12:00:00	6	Velocidad del viento	8
164182	7	Sololá	713	San Lucas Tolimán	10	San Lucas Tolimán	12	Diciembre	2023-10-12T00:00:00	2024-11-08T12:00:00	7	Dirección del viento	8.05
164183	7	Sololá	713	San Lucas Tolimán	10	San Lucas Tolimán	12	Diciembre	2023-10-12T00:00:00	2024-11-08T12:00:00	1	Precipitación	0
164184	7	Sololá	713	San Lucas Tolimán	10	San Lucas Tolimán	12	Diciembre	2023-10-12T00:00:00	2024-11-08T12:00:00	8	Radiación solar	771
164185	7	Sololá	713	San Lucas Tolimán	10	San Lucas Tolimán	12	Diciembre	2023-10-12T00:00:00	2024-11-08T13:00:00	2	Temperatura media	24.1
164186	7	Sololá	713	San Lucas Tolimán	10	San Lucas Tolimán	12	Diciembre	2023-10-12T00:00:00	2024-11-08T13:00:00	4	Temperatura máxima	24.7
164187	7	Sololá	713	San Lucas Tolimán	10	San Lucas Tolimán	12	Diciembre	2023-10-12T00:00:00	2024-11-08T13:00:00	3	Temperatura mínima	24
164188	7	Sololá	713	San Lucas Tolimán	10	San Lucas Tolimán	12	Diciembre	2023-10-12T00:00:00	2024-11-08T13:00:00	5	Humedad	50
164189	7	Sololá	713	San Lucas Tolimán	10	San Lucas Tolimán	12	Diciembre	2023-10-12T00:00:00	2024-11-08T13:00:00	6	Velocidad del viento	11.3
164190	7	Sololá	713	San Lucas Tolimán	10	San Lucas Tolimán	12	Diciembre	2023-10-12T00:00:00	2024-11-08T13:00:00	7	Dirección del viento	11.27
164191	7	Sololá	713	San Lucas Tolimán	10	San Lucas Tolimán	12	Diciembre	2023-10-12T00:00:00	2024-11-08T13:00:00	1	Precipitación	0
164192	7	Sololá	713	San Lucas Tolimán	10	San Lucas Tolimán	12	Diciembre	2023-10-12T00:00:00	2024-11-08T13:00:00	8	Radiación solar	835
164193	7	Sololá	713	San Lucas Tolimán	10	San Lucas Tolimán	12	Diciembre	2023-10-12T00:00:00	2024-11-08T14:00:00	2	Temperatura media	23.7
164194	7	Sololá	713	San Lucas Tolimán	10	San Lucas Tolimán	12	Diciembre	2023-10-12T00:00:00	2024-11-08T14:00:00	4	Temperatura máxima	24.2
164195	7	Sololá	713	San Lucas Tolimán	10	San Lucas Tolimán	12	Diciembre	2023-10-12T00:00:00	2024-11-08T14:00:00	3	Temperatura mínima	23.4
164196	7	Sololá	713	San Lucas Tolimán	10	San Lucas Tolimán	12	Diciembre	2023-10-12T00:00:00	2024-11-08T14:00:00	5	Humedad	53
164197	7	Sololá	713	San Lucas Tolimán	10	San Lucas Tolimán	12	Diciembre	2023-10-12T00:00:00	2024-11-08T14:00:00	6	Velocidad del viento	11.3
164198	7	Sololá	713	San Lucas Tolimán	10	San Lucas Tolimán	12	Diciembre	2023-10-12T00:00:00	2024-11-08T14:00:00	7	Dirección del viento	11.27
164199	7	Sololá	713	San Lucas Tolimán	10	San Lucas Tolimán	12	Diciembre	2023-10-12T00:00:00	2024-11-08T14:00:00	1	Precipitación	0
164200	7	Sololá	713	San Lucas Tolimán	10	San Lucas Tolimán	12	Diciembre	2023-10-12T00:00:00	2024-11-08T14:00:00	8	Radiación solar	762
164201	7	Sololá	713	San Lucas Tolimán	10	San Lucas Tolimán	12	Diciembre	2023-10-12T00:00:00	2024-11-08T15:00:00	2	Temperatura media	23.8
164202	7	Sololá	713	San Lucas Tolimán	10	San Lucas Tolimán	12	Diciembre	2023-10-12T00:00:00	2024-11-08T15:00:00	4	Temperatura máxima	24.2
164203	7	Sololá	713	San Lucas Tolimán	10	San Lucas Tolimán	12	Diciembre	2023-10-12T00:00:00	2024-11-08T15:00:00	3	Temperatura mínima	23.3
164204	7	Sololá	713	San Lucas Tolimán	10	San Lucas Tolimán	12	Diciembre	2023-10-12T00:00:00	2024-11-08T15:00:00	5	Humedad	54
164205	7	Sololá	713	San Lucas Tolimán	10	San Lucas Tolimán	12	Diciembre	2023-10-12T00:00:00	2024-11-08T15:00:00	6	Velocidad del viento	11.3
164206	7	Sololá	713	San Lucas Tolimán	10	San Lucas Tolimán	12	Diciembre	2023-10-12T00:00:00	2024-11-08T15:00:00	7	Dirección del viento	11.27
164207	7	Sololá	713	San Lucas Tolimán	10	San Lucas Tolimán	12	Diciembre	2023-10-12T00:00:00	2024-11-08T15:00:00	1	Precipitación	0
164208	7	Sololá	713	San Lucas Tolimán	10	San Lucas Tolimán	12	Diciembre	2023-10-12T00:00:00	2024-11-08T15:00:00	8	Radiación solar	644
164209	7	Sololá	713	San Lucas Tolimán	10	San Lucas Tolimán	12	Diciembre	2023-10-12T00:00:00	2024-11-08T16:00:00	2	Temperatura media	22.4
164210	7	Sololá	713	San Lucas Tolimán	10	San Lucas Tolimán	12	Diciembre	2023-10-12T00:00:00	2024-11-08T16:00:00	4	Temperatura máxima	23.9
164211	7	Sololá	713	San Lucas Tolimán	10	San Lucas Tolimán	12	Diciembre	2023-10-12T00:00:00	2024-11-08T16:00:00	3	Temperatura mínima	22.4
164212	7	Sololá	713	San Lucas Tolimán	10	San Lucas Tolimán	12	Diciembre	2023-10-12T00:00:00	2024-11-08T16:00:00	5	Humedad	58
164213	7	Sololá	713	San Lucas Tolimán	10	San Lucas Tolimán	12	Diciembre	2023-10-12T00:00:00	2024-11-08T16:00:00	6	Velocidad del viento	11.3
164214	7	Sololá	713	San Lucas Tolimán	10	San Lucas Tolimán	12	Diciembre	2023-10-12T00:00:00	2024-11-08T16:00:00	7	Dirección del viento	11.27
164215	7	Sololá	713	San Lucas Tolimán	10	San Lucas Tolimán	12	Diciembre	2023-10-12T00:00:00	2024-11-08T16:00:00	1	Precipitación	0
164216	7	Sololá	713	San Lucas Tolimán	10	San Lucas Tolimán	12	Diciembre	2023-10-12T00:00:00	2024-11-08T16:00:00	8	Radiación solar	394
164217	7	Sololá	713	San Lucas Tolimán	10	San Lucas Tolimán	12	Diciembre	2023-10-12T00:00:00	2024-11-08T17:00:00	2	Temperatura media	20.9
164218	7	Sololá	713	San Lucas Tolimán	10	San Lucas Tolimán	12	Diciembre	2023-10-12T00:00:00	2024-11-08T17:00:00	4	Temperatura máxima	22.4
164219	7	Sololá	713	San Lucas Tolimán	10	San Lucas Tolimán	12	Diciembre	2023-10-12T00:00:00	2024-11-08T17:00:00	3	Temperatura mínima	20.9
164220	7	Sololá	713	San Lucas Tolimán	10	San Lucas Tolimán	12	Diciembre	2023-10-12T00:00:00	2024-11-08T17:00:00	5	Humedad	62
164221	7	Sololá	713	San Lucas Tolimán	10	San Lucas Tolimán	12	Diciembre	2023-10-12T00:00:00	2024-11-08T17:00:00	6	Velocidad del viento	9.7
164222	7	Sololá	713	San Lucas Tolimán	10	San Lucas Tolimán	12	Diciembre	2023-10-12T00:00:00	2024-11-08T17:00:00	7	Dirección del viento	9.66
164223	7	Sololá	713	San Lucas Tolimán	10	San Lucas Tolimán	12	Diciembre	2023-10-12T00:00:00	2024-11-08T17:00:00	1	Precipitación	0
164224	7	Sololá	713	San Lucas Tolimán	10	San Lucas Tolimán	12	Diciembre	2023-10-12T00:00:00	2024-11-08T17:00:00	8	Radiación solar	38
164225	7	Sololá	713	San Lucas Tolimán	10	San Lucas Tolimán	12	Diciembre	2023-10-12T00:00:00	2024-11-08T18:00:00	2	Temperatura media	19.6
164226	7	Sololá	713	San Lucas Tolimán	10	San Lucas Tolimán	12	Diciembre	2023-10-12T00:00:00	2024-11-08T18:00:00	4	Temperatura máxima	20.9
164227	7	Sololá	713	San Lucas Tolimán	10	San Lucas Tolimán	12	Diciembre	2023-10-12T00:00:00	2024-11-08T18:00:00	3	Temperatura mínima	19.6
164228	7	Sololá	713	San Lucas Tolimán	10	San Lucas Tolimán	12	Diciembre	2023-10-12T00:00:00	2024-11-08T18:00:00	5	Humedad	63
164229	7	Sololá	713	San Lucas Tolimán	10	San Lucas Tolimán	12	Diciembre	2023-10-12T00:00:00	2024-11-08T18:00:00	6	Velocidad del viento	4.8
164230	7	Sololá	713	San Lucas Tolimán	10	San Lucas Tolimán	12	Diciembre	2023-10-12T00:00:00	2024-11-08T18:00:00	7	Dirección del viento	4.83
164231	7	Sololá	713	San Lucas Tolimán	10	San Lucas Tolimán	12	Diciembre	2023-10-12T00:00:00	2024-11-08T18:00:00	1	Precipitación	0
164232	7	Sololá	713	San Lucas Tolimán	10	San Lucas Tolimán	12	Diciembre	2023-10-12T00:00:00	2024-11-08T18:00:00	8	Radiación solar	7
164233	7	Sololá	713	San Lucas Tolimán	10	San Lucas Tolimán	12	Diciembre	2023-10-12T00:00:00	2024-11-08T19:00:00	2	Temperatura media	20.9
164234	7	Sololá	713	San Lucas Tolimán	10	San Lucas Tolimán	12	Diciembre	2023-10-12T00:00:00	2024-11-08T19:00:00	4	Temperatura máxima	20.9
164235	7	Sololá	713	San Lucas Tolimán	10	San Lucas Tolimán	12	Diciembre	2023-10-12T00:00:00	2024-11-08T19:00:00	3	Temperatura mínima	19.3
164236	7	Sololá	713	San Lucas Tolimán	10	San Lucas Tolimán	12	Diciembre	2023-10-12T00:00:00	2024-11-08T19:00:00	5	Humedad	55
164237	7	Sololá	713	San Lucas Tolimán	10	San Lucas Tolimán	12	Diciembre	2023-10-12T00:00:00	2024-11-08T19:00:00	6	Velocidad del viento	3.2
164238	7	Sololá	713	San Lucas Tolimán	10	San Lucas Tolimán	12	Diciembre	2023-10-12T00:00:00	2024-11-08T19:00:00	7	Dirección del viento	3.22
164239	7	Sololá	713	San Lucas Tolimán	10	San Lucas Tolimán	12	Diciembre	2023-10-12T00:00:00	2024-11-08T19:00:00	1	Precipitación	0
164240	7	Sololá	713	San Lucas Tolimán	10	San Lucas Tolimán	12	Diciembre	2023-10-12T00:00:00	2024-11-08T19:00:00	8	Radiación solar	0
164241	7	Sololá	713	San Lucas Tolimán	10	San Lucas Tolimán	12	Diciembre	2023-10-12T00:00:00	2024-11-08T20:00:00	2	Temperatura media	20.7
164242	7	Sololá	713	San Lucas Tolimán	10	San Lucas Tolimán	12	Diciembre	2023-10-12T00:00:00	2024-11-08T20:00:00	4	Temperatura máxima	21.2
164243	7	Sololá	713	San Lucas Tolimán	10	San Lucas Tolimán	12	Diciembre	2023-10-12T00:00:00	2024-11-08T20:00:00	3	Temperatura mínima	20.4
164244	7	Sololá	713	San Lucas Tolimán	10	San Lucas Tolimán	12	Diciembre	2023-10-12T00:00:00	2024-11-08T20:00:00	5	Humedad	55
164245	7	Sololá	713	San Lucas Tolimán	10	San Lucas Tolimán	12	Diciembre	2023-10-12T00:00:00	2024-11-08T20:00:00	6	Velocidad del viento	9.7
164246	7	Sololá	713	San Lucas Tolimán	10	San Lucas Tolimán	12	Diciembre	2023-10-12T00:00:00	2024-11-08T20:00:00	7	Dirección del viento	9.66
164247	7	Sololá	713	San Lucas Tolimán	10	San Lucas Tolimán	12	Diciembre	2023-10-12T00:00:00	2024-11-08T20:00:00	1	Precipitación	0
164248	7	Sololá	713	San Lucas Tolimán	10	San Lucas Tolimán	12	Diciembre	2023-10-12T00:00:00	2024-11-08T20:00:00	8	Radiación solar	0
164249	7	Sololá	713	San Lucas Tolimán	10	San Lucas Tolimán	12	Diciembre	2023-10-12T00:00:00	2024-11-08T21:00:00	2	Temperatura media	20.4
164250	7	Sololá	713	San Lucas Tolimán	10	San Lucas Tolimán	12	Diciembre	2023-10-12T00:00:00	2024-11-08T21:00:00	4	Temperatura máxima	20.7
164251	7	Sololá	713	San Lucas Tolimán	10	San Lucas Tolimán	12	Diciembre	2023-10-12T00:00:00	2024-11-08T21:00:00	3	Temperatura mínima	19.9
164252	7	Sololá	713	San Lucas Tolimán	10	San Lucas Tolimán	12	Diciembre	2023-10-12T00:00:00	2024-11-08T21:00:00	5	Humedad	53
164253	7	Sololá	713	San Lucas Tolimán	10	San Lucas Tolimán	12	Diciembre	2023-10-12T00:00:00	2024-11-08T21:00:00	6	Velocidad del viento	8
164254	7	Sololá	713	San Lucas Tolimán	10	San Lucas Tolimán	12	Diciembre	2023-10-12T00:00:00	2024-11-08T21:00:00	7	Dirección del viento	8.05
164255	7	Sololá	713	San Lucas Tolimán	10	San Lucas Tolimán	12	Diciembre	2023-10-12T00:00:00	2024-11-08T21:00:00	1	Precipitación	0
164256	7	Sololá	713	San Lucas Tolimán	10	San Lucas Tolimán	12	Diciembre	2023-10-12T00:00:00	2024-11-08T21:00:00	8	Radiación solar	0
164257	7	Sololá	713	San Lucas Tolimán	10	San Lucas Tolimán	12	Diciembre	2023-10-12T00:00:00	2024-11-08T22:00:00	2	Temperatura media	19.7
164258	7	Sololá	713	San Lucas Tolimán	10	San Lucas Tolimán	12	Diciembre	2023-10-12T00:00:00	2024-11-08T22:00:00	4	Temperatura máxima	20.6
164259	7	Sololá	713	San Lucas Tolimán	10	San Lucas Tolimán	12	Diciembre	2023-10-12T00:00:00	2024-11-08T22:00:00	3	Temperatura mínima	19.4
164260	7	Sololá	713	San Lucas Tolimán	10	San Lucas Tolimán	12	Diciembre	2023-10-12T00:00:00	2024-11-08T22:00:00	5	Humedad	55
164261	7	Sololá	713	San Lucas Tolimán	10	San Lucas Tolimán	12	Diciembre	2023-10-12T00:00:00	2024-11-08T22:00:00	6	Velocidad del viento	8
164262	7	Sololá	713	San Lucas Tolimán	10	San Lucas Tolimán	12	Diciembre	2023-10-12T00:00:00	2024-11-08T22:00:00	7	Dirección del viento	8.05
164263	7	Sololá	713	San Lucas Tolimán	10	San Lucas Tolimán	12	Diciembre	2023-10-12T00:00:00	2024-11-08T22:00:00	1	Precipitación	0
164264	7	Sololá	713	San Lucas Tolimán	10	San Lucas Tolimán	12	Diciembre	2023-10-12T00:00:00	2024-11-08T22:00:00	8	Radiación solar	0
164265	7	Sololá	713	San Lucas Tolimán	10	San Lucas Tolimán	12	Diciembre	2023-10-12T00:00:00	2024-11-08T23:00:00	2	Temperatura media	19.3
164266	7	Sololá	713	San Lucas Tolimán	10	San Lucas Tolimán	12	Diciembre	2023-10-12T00:00:00	2024-11-08T23:00:00	4	Temperatura máxima	19.7
164267	7	Sololá	713	San Lucas Tolimán	10	San Lucas Tolimán	12	Diciembre	2023-10-12T00:00:00	2024-11-08T23:00:00	3	Temperatura mínima	19
164268	7	Sololá	713	San Lucas Tolimán	10	San Lucas Tolimán	12	Diciembre	2023-10-12T00:00:00	2024-11-08T23:00:00	5	Humedad	56
164269	7	Sololá	713	San Lucas Tolimán	10	San Lucas Tolimán	12	Diciembre	2023-10-12T00:00:00	2024-11-08T23:00:00	6	Velocidad del viento	3.2
164270	7	Sololá	713	San Lucas Tolimán	10	San Lucas Tolimán	12	Diciembre	2023-10-12T00:00:00	2024-11-08T23:00:00	7	Dirección del viento	3.22
164271	7	Sololá	713	San Lucas Tolimán	10	San Lucas Tolimán	12	Diciembre	2023-10-12T00:00:00	2024-11-08T23:00:00	1	Precipitación	0
164272	7	Sololá	713	San Lucas Tolimán	10	San Lucas Tolimán	12	Diciembre	2023-10-12T00:00:00	2024-11-08T23:00:00	8	Radiación solar	0
164273	7	Sololá	713	San Lucas Tolimán	10	San Lucas Tolimán	12	Diciembre	2023-11-12T00:00:00	2024-11-08T00:00:00	2	Temperatura media	20
164274	7	Sololá	713	San Lucas Tolimán	10	San Lucas Tolimán	12	Diciembre	2023-11-12T00:00:00	2024-11-08T00:00:00	4	Temperatura máxima	20.1
164275	7	Sololá	713	San Lucas Tolimán	10	San Lucas Tolimán	12	Diciembre	2023-11-12T00:00:00	2024-11-08T00:00:00	3	Temperatura mínima	19.3
164276	7	Sololá	713	San Lucas Tolimán	10	San Lucas Tolimán	12	Diciembre	2023-11-12T00:00:00	2024-11-08T00:00:00	5	Humedad	54
164277	7	Sololá	713	San Lucas Tolimán	10	San Lucas Tolimán	12	Diciembre	2023-11-12T00:00:00	2024-11-08T00:00:00	6	Velocidad del viento	8
164278	7	Sololá	713	San Lucas Tolimán	10	San Lucas Tolimán	12	Diciembre	2023-11-12T00:00:00	2024-11-08T00:00:00	7	Dirección del viento	8.05
164279	7	Sololá	713	San Lucas Tolimán	10	San Lucas Tolimán	12	Diciembre	2023-11-12T00:00:00	2024-11-08T00:00:00	1	Precipitación	0
164280	7	Sololá	713	San Lucas Tolimán	10	San Lucas Tolimán	12	Diciembre	2023-11-12T00:00:00	2024-11-08T00:00:00	8	Radiación solar	0
164281	7	Sololá	713	San Lucas Tolimán	10	San Lucas Tolimán	12	Diciembre	2023-11-12T00:00:00	2024-11-08T01:00:00	2	Temperatura media	19.7
164282	7	Sololá	713	San Lucas Tolimán	10	San Lucas Tolimán	12	Diciembre	2023-11-12T00:00:00	2024-11-08T01:00:00	4	Temperatura máxima	20.2
164283	7	Sololá	713	San Lucas Tolimán	10	San Lucas Tolimán	12	Diciembre	2023-11-12T00:00:00	2024-11-08T01:00:00	3	Temperatura mínima	19.7
164284	7	Sololá	713	San Lucas Tolimán	10	San Lucas Tolimán	12	Diciembre	2023-11-12T00:00:00	2024-11-08T01:00:00	5	Humedad	53
164285	7	Sololá	713	San Lucas Tolimán	10	San Lucas Tolimán	12	Diciembre	2023-11-12T00:00:00	2024-11-08T01:00:00	6	Velocidad del viento	12.9
164286	7	Sololá	713	San Lucas Tolimán	10	San Lucas Tolimán	12	Diciembre	2023-11-12T00:00:00	2024-11-08T01:00:00	7	Dirección del viento	12.87
164287	7	Sololá	713	San Lucas Tolimán	10	San Lucas Tolimán	12	Diciembre	2023-11-12T00:00:00	2024-11-08T01:00:00	1	Precipitación	0
164288	7	Sololá	713	San Lucas Tolimán	10	San Lucas Tolimán	12	Diciembre	2023-11-12T00:00:00	2024-11-08T01:00:00	8	Radiación solar	0
164289	7	Sololá	713	San Lucas Tolimán	10	San Lucas Tolimán	12	Diciembre	2023-11-12T00:00:00	2024-11-08T02:00:00	2	Temperatura media	19.7
164290	7	Sololá	713	San Lucas Tolimán	10	San Lucas Tolimán	12	Diciembre	2023-11-12T00:00:00	2024-11-08T02:00:00	4	Temperatura máxima	19.9
164291	7	Sololá	713	San Lucas Tolimán	10	San Lucas Tolimán	12	Diciembre	2023-11-12T00:00:00	2024-11-08T02:00:00	3	Temperatura mínima	19.6
164292	7	Sololá	713	San Lucas Tolimán	10	San Lucas Tolimán	12	Diciembre	2023-11-12T00:00:00	2024-11-08T02:00:00	5	Humedad	52
164293	7	Sololá	713	San Lucas Tolimán	10	San Lucas Tolimán	12	Diciembre	2023-11-12T00:00:00	2024-11-08T02:00:00	6	Velocidad del viento	11.3
164294	7	Sololá	713	San Lucas Tolimán	10	San Lucas Tolimán	12	Diciembre	2023-11-12T00:00:00	2024-11-08T02:00:00	7	Dirección del viento	11.27
164295	7	Sololá	713	San Lucas Tolimán	10	San Lucas Tolimán	12	Diciembre	2023-11-12T00:00:00	2024-11-08T02:00:00	1	Precipitación	0
164296	7	Sololá	713	San Lucas Tolimán	10	San Lucas Tolimán	12	Diciembre	2023-11-12T00:00:00	2024-11-08T02:00:00	8	Radiación solar	0
164297	7	Sololá	713	San Lucas Tolimán	10	San Lucas Tolimán	12	Diciembre	2023-11-12T00:00:00	2024-11-08T03:00:00	2	Temperatura media	19.8
164298	7	Sololá	713	San Lucas Tolimán	10	San Lucas Tolimán	12	Diciembre	2023-11-12T00:00:00	2024-11-08T03:00:00	4	Temperatura máxima	19.9
164299	7	Sololá	713	San Lucas Tolimán	10	San Lucas Tolimán	12	Diciembre	2023-11-12T00:00:00	2024-11-08T03:00:00	3	Temperatura mínima	19.6
164300	7	Sololá	713	San Lucas Tolimán	10	San Lucas Tolimán	12	Diciembre	2023-11-12T00:00:00	2024-11-08T03:00:00	5	Humedad	53
164301	7	Sololá	713	San Lucas Tolimán	10	San Lucas Tolimán	12	Diciembre	2023-11-12T00:00:00	2024-11-08T03:00:00	6	Velocidad del viento	12.9
164302	7	Sololá	713	San Lucas Tolimán	10	San Lucas Tolimán	12	Diciembre	2023-11-12T00:00:00	2024-11-08T03:00:00	7	Dirección del viento	12.87
164303	7	Sololá	713	San Lucas Tolimán	10	San Lucas Tolimán	12	Diciembre	2023-11-12T00:00:00	2024-11-08T03:00:00	1	Precipitación	0
164304	7	Sololá	713	San Lucas Tolimán	10	San Lucas Tolimán	12	Diciembre	2023-11-12T00:00:00	2024-11-08T03:00:00	8	Radiación solar	0
164305	7	Sololá	713	San Lucas Tolimán	10	San Lucas Tolimán	12	Diciembre	2023-11-12T00:00:00	2024-11-08T04:00:00	2	Temperatura media	20.3
164306	7	Sololá	713	San Lucas Tolimán	10	San Lucas Tolimán	12	Diciembre	2023-11-12T00:00:00	2024-11-08T04:00:00	4	Temperatura máxima	20.4
164307	7	Sololá	713	San Lucas Tolimán	10	San Lucas Tolimán	12	Diciembre	2023-11-12T00:00:00	2024-11-08T04:00:00	3	Temperatura mínima	19.8
164308	7	Sololá	713	San Lucas Tolimán	10	San Lucas Tolimán	12	Diciembre	2023-11-12T00:00:00	2024-11-08T04:00:00	5	Humedad	53
164309	7	Sololá	713	San Lucas Tolimán	10	San Lucas Tolimán	12	Diciembre	2023-11-12T00:00:00	2024-11-08T04:00:00	6	Velocidad del viento	14.5
164310	7	Sololá	713	San Lucas Tolimán	10	San Lucas Tolimán	12	Diciembre	2023-11-12T00:00:00	2024-11-08T04:00:00	7	Dirección del viento	14.48
164311	7	Sololá	713	San Lucas Tolimán	10	San Lucas Tolimán	12	Diciembre	2023-11-12T00:00:00	2024-11-08T04:00:00	1	Precipitación	0
164312	7	Sololá	713	San Lucas Tolimán	10	San Lucas Tolimán	12	Diciembre	2023-11-12T00:00:00	2024-11-08T04:00:00	8	Radiación solar	0
164313	7	Sololá	713	San Lucas Tolimán	10	San Lucas Tolimán	12	Diciembre	2023-11-12T00:00:00	2024-11-08T05:00:00	2	Temperatura media	19.9
164314	7	Sololá	713	San Lucas Tolimán	10	San Lucas Tolimán	12	Diciembre	2023-11-12T00:00:00	2024-11-08T05:00:00	4	Temperatura máxima	20.4
164315	7	Sololá	713	San Lucas Tolimán	10	San Lucas Tolimán	12	Diciembre	2023-11-12T00:00:00	2024-11-08T05:00:00	3	Temperatura mínima	19.9
164316	7	Sololá	713	San Lucas Tolimán	10	San Lucas Tolimán	12	Diciembre	2023-11-12T00:00:00	2024-11-08T05:00:00	5	Humedad	53
164317	7	Sololá	713	San Lucas Tolimán	10	San Lucas Tolimán	12	Diciembre	2023-11-12T00:00:00	2024-11-08T05:00:00	6	Velocidad del viento	17.7
164318	7	Sololá	713	San Lucas Tolimán	10	San Lucas Tolimán	12	Diciembre	2023-11-12T00:00:00	2024-11-08T05:00:00	7	Dirección del viento	17.7
164319	7	Sololá	713	San Lucas Tolimán	10	San Lucas Tolimán	12	Diciembre	2023-11-12T00:00:00	2024-11-08T05:00:00	1	Precipitación	0
164320	7	Sololá	713	San Lucas Tolimán	10	San Lucas Tolimán	12	Diciembre	2023-11-12T00:00:00	2024-11-08T05:00:00	8	Radiación solar	0
164321	7	Sololá	713	San Lucas Tolimán	10	San Lucas Tolimán	12	Diciembre	2023-11-12T00:00:00	2024-11-08T06:00:00	2	Temperatura media	19.7
164322	7	Sololá	713	San Lucas Tolimán	10	San Lucas Tolimán	12	Diciembre	2023-11-12T00:00:00	2024-11-08T06:00:00	4	Temperatura máxima	20.1
164323	7	Sololá	713	San Lucas Tolimán	10	San Lucas Tolimán	12	Diciembre	2023-11-12T00:00:00	2024-11-08T06:00:00	3	Temperatura mínima	19.6
164324	7	Sololá	713	San Lucas Tolimán	10	San Lucas Tolimán	12	Diciembre	2023-11-12T00:00:00	2024-11-08T06:00:00	5	Humedad	51
164325	7	Sololá	713	San Lucas Tolimán	10	San Lucas Tolimán	12	Diciembre	2023-11-12T00:00:00	2024-11-08T06:00:00	6	Velocidad del viento	17.7
164326	7	Sololá	713	San Lucas Tolimán	10	San Lucas Tolimán	12	Diciembre	2023-11-12T00:00:00	2024-11-08T06:00:00	7	Dirección del viento	17.7
164327	7	Sololá	713	San Lucas Tolimán	10	San Lucas Tolimán	12	Diciembre	2023-11-12T00:00:00	2024-11-08T06:00:00	1	Precipitación	0
164328	7	Sololá	713	San Lucas Tolimán	10	San Lucas Tolimán	12	Diciembre	2023-11-12T00:00:00	2024-11-08T06:00:00	8	Radiación solar	0
164329	7	Sololá	713	San Lucas Tolimán	10	San Lucas Tolimán	12	Diciembre	2023-11-12T00:00:00	2024-11-08T07:00:00	2	Temperatura media	19.1
164330	7	Sololá	713	San Lucas Tolimán	10	San Lucas Tolimán	12	Diciembre	2023-11-12T00:00:00	2024-11-08T07:00:00	4	Temperatura máxima	19.7
164331	7	Sololá	713	San Lucas Tolimán	10	San Lucas Tolimán	12	Diciembre	2023-11-12T00:00:00	2024-11-08T07:00:00	3	Temperatura mínima	19
164332	7	Sololá	713	San Lucas Tolimán	10	San Lucas Tolimán	12	Diciembre	2023-11-12T00:00:00	2024-11-08T07:00:00	5	Humedad	53
164333	7	Sololá	713	San Lucas Tolimán	10	San Lucas Tolimán	12	Diciembre	2023-11-12T00:00:00	2024-11-08T07:00:00	6	Velocidad del viento	16.1
164334	7	Sololá	713	San Lucas Tolimán	10	San Lucas Tolimán	12	Diciembre	2023-11-12T00:00:00	2024-11-08T07:00:00	7	Dirección del viento	16.09
164335	7	Sololá	713	San Lucas Tolimán	10	San Lucas Tolimán	12	Diciembre	2023-11-12T00:00:00	2024-11-08T07:00:00	1	Precipitación	0
164336	7	Sololá	713	San Lucas Tolimán	10	San Lucas Tolimán	12	Diciembre	2023-11-12T00:00:00	2024-11-08T07:00:00	8	Radiación solar	7
164337	7	Sololá	713	San Lucas Tolimán	10	San Lucas Tolimán	12	Diciembre	2023-11-12T00:00:00	2024-11-08T08:00:00	2	Temperatura media	19.7
164338	7	Sololá	713	San Lucas Tolimán	10	San Lucas Tolimán	12	Diciembre	2023-11-12T00:00:00	2024-11-08T08:00:00	4	Temperatura máxima	19.7
164339	7	Sololá	713	San Lucas Tolimán	10	San Lucas Tolimán	12	Diciembre	2023-11-12T00:00:00	2024-11-08T08:00:00	3	Temperatura mínima	19.1
164340	7	Sololá	713	San Lucas Tolimán	10	San Lucas Tolimán	12	Diciembre	2023-11-12T00:00:00	2024-11-08T08:00:00	5	Humedad	52
164341	7	Sololá	713	San Lucas Tolimán	10	San Lucas Tolimán	12	Diciembre	2023-11-12T00:00:00	2024-11-08T08:00:00	6	Velocidad del viento	16.1
164342	7	Sololá	713	San Lucas Tolimán	10	San Lucas Tolimán	12	Diciembre	2023-11-12T00:00:00	2024-11-08T08:00:00	7	Dirección del viento	16.09
164343	7	Sololá	713	San Lucas Tolimán	10	San Lucas Tolimán	12	Diciembre	2023-11-12T00:00:00	2024-11-08T08:00:00	1	Precipitación	0
164344	7	Sololá	713	San Lucas Tolimán	10	San Lucas Tolimán	12	Diciembre	2023-11-12T00:00:00	2024-11-08T08:00:00	8	Radiación solar	23
164345	7	Sololá	713	San Lucas Tolimán	10	San Lucas Tolimán	12	Diciembre	2023-11-12T00:00:00	2024-11-08T09:00:00	2	Temperatura media	21.3
164346	7	Sololá	713	San Lucas Tolimán	10	San Lucas Tolimán	12	Diciembre	2023-11-12T00:00:00	2024-11-08T09:00:00	4	Temperatura máxima	21.3
164347	7	Sololá	713	San Lucas Tolimán	10	San Lucas Tolimán	12	Diciembre	2023-11-12T00:00:00	2024-11-08T09:00:00	3	Temperatura mínima	19.7
164348	7	Sololá	713	San Lucas Tolimán	10	San Lucas Tolimán	12	Diciembre	2023-11-12T00:00:00	2024-11-08T09:00:00	5	Humedad	48
164349	7	Sololá	713	San Lucas Tolimán	10	San Lucas Tolimán	12	Diciembre	2023-11-12T00:00:00	2024-11-08T09:00:00	6	Velocidad del viento	16.1
164350	7	Sololá	713	San Lucas Tolimán	10	San Lucas Tolimán	12	Diciembre	2023-11-12T00:00:00	2024-11-08T09:00:00	7	Dirección del viento	16.09
164351	7	Sololá	713	San Lucas Tolimán	10	San Lucas Tolimán	12	Diciembre	2023-11-12T00:00:00	2024-11-08T09:00:00	1	Precipitación	0
164352	7	Sololá	713	San Lucas Tolimán	10	San Lucas Tolimán	12	Diciembre	2023-11-12T00:00:00	2024-11-08T09:00:00	8	Radiación solar	340
164353	7	Sololá	713	San Lucas Tolimán	10	San Lucas Tolimán	12	Diciembre	2023-11-12T00:00:00	2024-11-08T10:00:00	2	Temperatura media	21.8
164354	7	Sololá	713	San Lucas Tolimán	10	San Lucas Tolimán	12	Diciembre	2023-11-12T00:00:00	2024-11-08T10:00:00	4	Temperatura máxima	21.8
164355	7	Sololá	713	San Lucas Tolimán	10	San Lucas Tolimán	12	Diciembre	2023-11-12T00:00:00	2024-11-08T10:00:00	3	Temperatura mínima	21.3
164356	7	Sololá	713	San Lucas Tolimán	10	San Lucas Tolimán	12	Diciembre	2023-11-12T00:00:00	2024-11-08T10:00:00	5	Humedad	46
164357	7	Sololá	713	San Lucas Tolimán	10	San Lucas Tolimán	12	Diciembre	2023-11-12T00:00:00	2024-11-08T10:00:00	6	Velocidad del viento	17.7
164358	7	Sololá	713	San Lucas Tolimán	10	San Lucas Tolimán	12	Diciembre	2023-11-12T00:00:00	2024-11-08T10:00:00	7	Dirección del viento	17.7
164359	7	Sololá	713	San Lucas Tolimán	10	San Lucas Tolimán	12	Diciembre	2023-11-12T00:00:00	2024-11-08T10:00:00	1	Precipitación	0
164360	7	Sololá	713	San Lucas Tolimán	10	San Lucas Tolimán	12	Diciembre	2023-11-12T00:00:00	2024-11-08T10:00:00	8	Radiación solar	613
164361	7	Sololá	713	San Lucas Tolimán	10	San Lucas Tolimán	12	Diciembre	2023-11-12T00:00:00	2024-11-08T11:00:00	2	Temperatura media	21.3
164362	7	Sololá	713	San Lucas Tolimán	10	San Lucas Tolimán	12	Diciembre	2023-11-12T00:00:00	2024-11-08T11:00:00	4	Temperatura máxima	22.3
164363	7	Sololá	713	San Lucas Tolimán	10	San Lucas Tolimán	12	Diciembre	2023-11-12T00:00:00	2024-11-08T11:00:00	3	Temperatura mínima	21.3
164364	7	Sololá	713	San Lucas Tolimán	10	San Lucas Tolimán	12	Diciembre	2023-11-12T00:00:00	2024-11-08T11:00:00	5	Humedad	49
164365	7	Sololá	713	San Lucas Tolimán	10	San Lucas Tolimán	12	Diciembre	2023-11-12T00:00:00	2024-11-08T11:00:00	6	Velocidad del viento	16.1
164366	7	Sololá	713	San Lucas Tolimán	10	San Lucas Tolimán	12	Diciembre	2023-11-12T00:00:00	2024-11-08T11:00:00	7	Dirección del viento	16.09
164367	7	Sololá	713	San Lucas Tolimán	10	San Lucas Tolimán	12	Diciembre	2023-11-12T00:00:00	2024-11-08T11:00:00	1	Precipitación	0
164368	7	Sololá	713	San Lucas Tolimán	10	San Lucas Tolimán	12	Diciembre	2023-11-12T00:00:00	2024-11-08T11:00:00	8	Radiación solar	646
164369	7	Sololá	713	San Lucas Tolimán	10	San Lucas Tolimán	12	Diciembre	2023-11-12T00:00:00	2024-11-08T12:00:00	2	Temperatura media	22.1
164370	7	Sololá	713	San Lucas Tolimán	10	San Lucas Tolimán	12	Diciembre	2023-11-12T00:00:00	2024-11-08T12:00:00	4	Temperatura máxima	23
164371	7	Sololá	713	San Lucas Tolimán	10	San Lucas Tolimán	12	Diciembre	2023-11-12T00:00:00	2024-11-08T12:00:00	3	Temperatura mínima	21.3
164372	7	Sololá	713	San Lucas Tolimán	10	San Lucas Tolimán	12	Diciembre	2023-11-12T00:00:00	2024-11-08T12:00:00	5	Humedad	47
164373	7	Sololá	713	San Lucas Tolimán	10	San Lucas Tolimán	12	Diciembre	2023-11-12T00:00:00	2024-11-08T12:00:00	6	Velocidad del viento	16.1
164374	7	Sololá	713	San Lucas Tolimán	10	San Lucas Tolimán	12	Diciembre	2023-11-12T00:00:00	2024-11-08T12:00:00	7	Dirección del viento	16.09
164375	7	Sololá	713	San Lucas Tolimán	10	San Lucas Tolimán	12	Diciembre	2023-11-12T00:00:00	2024-11-08T12:00:00	1	Precipitación	0
164376	7	Sololá	713	San Lucas Tolimán	10	San Lucas Tolimán	12	Diciembre	2023-11-12T00:00:00	2024-11-08T12:00:00	8	Radiación solar	659
164377	7	Sololá	713	San Lucas Tolimán	10	San Lucas Tolimán	12	Diciembre	2023-11-12T00:00:00	2024-11-08T13:00:00	2	Temperatura media	22.8
164378	7	Sololá	713	San Lucas Tolimán	10	San Lucas Tolimán	12	Diciembre	2023-11-12T00:00:00	2024-11-08T13:00:00	4	Temperatura máxima	23.6
164379	7	Sololá	713	San Lucas Tolimán	10	San Lucas Tolimán	12	Diciembre	2023-11-12T00:00:00	2024-11-08T13:00:00	3	Temperatura mínima	22
164380	7	Sololá	713	San Lucas Tolimán	10	San Lucas Tolimán	12	Diciembre	2023-11-12T00:00:00	2024-11-08T13:00:00	5	Humedad	45
164381	7	Sololá	713	San Lucas Tolimán	10	San Lucas Tolimán	12	Diciembre	2023-11-12T00:00:00	2024-11-08T13:00:00	6	Velocidad del viento	14.5
164382	7	Sololá	713	San Lucas Tolimán	10	San Lucas Tolimán	12	Diciembre	2023-11-12T00:00:00	2024-11-08T13:00:00	7	Dirección del viento	14.48
164383	7	Sololá	713	San Lucas Tolimán	10	San Lucas Tolimán	12	Diciembre	2023-11-12T00:00:00	2024-11-08T13:00:00	1	Precipitación	0
164384	7	Sololá	713	San Lucas Tolimán	10	San Lucas Tolimán	12	Diciembre	2023-11-12T00:00:00	2024-11-08T13:00:00	8	Radiación solar	760
164385	7	Sololá	713	San Lucas Tolimán	10	San Lucas Tolimán	12	Diciembre	2023-11-12T00:00:00	2024-11-08T14:00:00	2	Temperatura media	21.5
164386	7	Sololá	713	San Lucas Tolimán	10	San Lucas Tolimán	12	Diciembre	2023-11-12T00:00:00	2024-11-08T14:00:00	4	Temperatura máxima	23.1
164387	7	Sololá	713	San Lucas Tolimán	10	San Lucas Tolimán	12	Diciembre	2023-11-12T00:00:00	2024-11-08T14:00:00	3	Temperatura mínima	21.3
164388	7	Sololá	713	San Lucas Tolimán	10	San Lucas Tolimán	12	Diciembre	2023-11-12T00:00:00	2024-11-08T14:00:00	5	Humedad	47
164389	7	Sololá	713	San Lucas Tolimán	10	San Lucas Tolimán	12	Diciembre	2023-11-12T00:00:00	2024-11-08T14:00:00	6	Velocidad del viento	19.3
164390	7	Sololá	713	San Lucas Tolimán	10	San Lucas Tolimán	12	Diciembre	2023-11-12T00:00:00	2024-11-08T14:00:00	7	Dirección del viento	19.31
164391	7	Sololá	713	San Lucas Tolimán	10	San Lucas Tolimán	12	Diciembre	2023-11-12T00:00:00	2024-11-08T14:00:00	1	Precipitación	0
164392	7	Sololá	713	San Lucas Tolimán	10	San Lucas Tolimán	12	Diciembre	2023-11-12T00:00:00	2024-11-08T14:00:00	8	Radiación solar	372
164393	7	Sololá	713	San Lucas Tolimán	10	San Lucas Tolimán	12	Diciembre	2023-11-12T00:00:00	2024-11-08T15:00:00	2	Temperatura media	21.8
164394	7	Sololá	713	San Lucas Tolimán	10	San Lucas Tolimán	12	Diciembre	2023-11-12T00:00:00	2024-11-08T15:00:00	4	Temperatura máxima	22.4
164395	7	Sololá	713	San Lucas Tolimán	10	San Lucas Tolimán	12	Diciembre	2023-11-12T00:00:00	2024-11-08T15:00:00	3	Temperatura mínima	21.4
164396	7	Sololá	713	San Lucas Tolimán	10	San Lucas Tolimán	12	Diciembre	2023-11-12T00:00:00	2024-11-08T15:00:00	5	Humedad	46
164397	7	Sololá	713	San Lucas Tolimán	10	San Lucas Tolimán	12	Diciembre	2023-11-12T00:00:00	2024-11-08T15:00:00	6	Velocidad del viento	14.5
164398	7	Sololá	713	San Lucas Tolimán	10	San Lucas Tolimán	12	Diciembre	2023-11-12T00:00:00	2024-11-08T15:00:00	7	Dirección del viento	14.48
164399	7	Sololá	713	San Lucas Tolimán	10	San Lucas Tolimán	12	Diciembre	2023-11-12T00:00:00	2024-11-08T15:00:00	1	Precipitación	0
164400	7	Sololá	713	San Lucas Tolimán	10	San Lucas Tolimán	12	Diciembre	2023-11-12T00:00:00	2024-11-08T15:00:00	8	Radiación solar	317
164401	7	Sololá	713	San Lucas Tolimán	10	San Lucas Tolimán	12	Diciembre	2023-11-12T00:00:00	2024-11-08T16:00:00	2	Temperatura media	22.1
164402	7	Sololá	713	San Lucas Tolimán	10	San Lucas Tolimán	12	Diciembre	2023-11-12T00:00:00	2024-11-08T16:00:00	4	Temperatura máxima	22.1
164403	7	Sololá	713	San Lucas Tolimán	10	San Lucas Tolimán	12	Diciembre	2023-11-12T00:00:00	2024-11-08T16:00:00	3	Temperatura mínima	21.2
164404	7	Sololá	713	San Lucas Tolimán	10	San Lucas Tolimán	12	Diciembre	2023-11-12T00:00:00	2024-11-08T16:00:00	5	Humedad	45
164405	7	Sololá	713	San Lucas Tolimán	10	San Lucas Tolimán	12	Diciembre	2023-11-12T00:00:00	2024-11-08T16:00:00	6	Velocidad del viento	12.9
164406	7	Sololá	713	San Lucas Tolimán	10	San Lucas Tolimán	12	Diciembre	2023-11-12T00:00:00	2024-11-08T16:00:00	7	Dirección del viento	12.87
164407	7	Sololá	713	San Lucas Tolimán	10	San Lucas Tolimán	12	Diciembre	2023-11-12T00:00:00	2024-11-08T16:00:00	1	Precipitación	0
164408	7	Sololá	713	San Lucas Tolimán	10	San Lucas Tolimán	12	Diciembre	2023-11-12T00:00:00	2024-11-08T16:00:00	8	Radiación solar	285
164409	7	Sololá	713	San Lucas Tolimán	10	San Lucas Tolimán	12	Diciembre	2023-11-12T00:00:00	2024-11-08T17:00:00	2	Temperatura media	20.8
164410	7	Sololá	713	San Lucas Tolimán	10	San Lucas Tolimán	12	Diciembre	2023-11-12T00:00:00	2024-11-08T17:00:00	4	Temperatura máxima	22.3
164411	7	Sololá	713	San Lucas Tolimán	10	San Lucas Tolimán	12	Diciembre	2023-11-12T00:00:00	2024-11-08T17:00:00	3	Temperatura mínima	20.8
164412	7	Sololá	713	San Lucas Tolimán	10	San Lucas Tolimán	12	Diciembre	2023-11-12T00:00:00	2024-11-08T17:00:00	5	Humedad	48
164413	7	Sololá	713	San Lucas Tolimán	10	San Lucas Tolimán	12	Diciembre	2023-11-12T00:00:00	2024-11-08T17:00:00	6	Velocidad del viento	11.3
164414	7	Sololá	713	San Lucas Tolimán	10	San Lucas Tolimán	12	Diciembre	2023-11-12T00:00:00	2024-11-08T17:00:00	7	Dirección del viento	11.27
164415	7	Sololá	713	San Lucas Tolimán	10	San Lucas Tolimán	12	Diciembre	2023-11-12T00:00:00	2024-11-08T17:00:00	1	Precipitación	0
164416	7	Sololá	713	San Lucas Tolimán	10	San Lucas Tolimán	12	Diciembre	2023-11-12T00:00:00	2024-11-08T17:00:00	8	Radiación solar	177
164417	7	Sololá	713	San Lucas Tolimán	10	San Lucas Tolimán	12	Diciembre	2023-11-12T00:00:00	2024-11-08T18:00:00	2	Temperatura media	19.6
164418	7	Sololá	713	San Lucas Tolimán	10	San Lucas Tolimán	12	Diciembre	2023-11-12T00:00:00	2024-11-08T18:00:00	4	Temperatura máxima	20.8
164419	7	Sololá	713	San Lucas Tolimán	10	San Lucas Tolimán	12	Diciembre	2023-11-12T00:00:00	2024-11-08T18:00:00	3	Temperatura mínima	19.6
164420	7	Sololá	713	San Lucas Tolimán	10	San Lucas Tolimán	12	Diciembre	2023-11-12T00:00:00	2024-11-08T18:00:00	5	Humedad	49
164421	7	Sololá	713	San Lucas Tolimán	10	San Lucas Tolimán	12	Diciembre	2023-11-12T00:00:00	2024-11-08T18:00:00	6	Velocidad del viento	11.3
164422	7	Sololá	713	San Lucas Tolimán	10	San Lucas Tolimán	12	Diciembre	2023-11-12T00:00:00	2024-11-08T18:00:00	7	Dirección del viento	11.27
164423	7	Sololá	713	San Lucas Tolimán	10	San Lucas Tolimán	12	Diciembre	2023-11-12T00:00:00	2024-11-08T18:00:00	1	Precipitación	0
164424	7	Sololá	713	San Lucas Tolimán	10	San Lucas Tolimán	12	Diciembre	2023-11-12T00:00:00	2024-11-08T18:00:00	8	Radiación solar	7
164425	7	Sololá	713	San Lucas Tolimán	10	San Lucas Tolimán	12	Diciembre	2023-11-12T00:00:00	2024-11-08T19:00:00	2	Temperatura media	18.9
164426	7	Sololá	713	San Lucas Tolimán	10	San Lucas Tolimán	12	Diciembre	2023-11-12T00:00:00	2024-11-08T19:00:00	4	Temperatura máxima	19.7
164427	7	Sololá	713	San Lucas Tolimán	10	San Lucas Tolimán	12	Diciembre	2023-11-12T00:00:00	2024-11-08T19:00:00	3	Temperatura mínima	18.9
164428	7	Sololá	713	San Lucas Tolimán	10	San Lucas Tolimán	12	Diciembre	2023-11-12T00:00:00	2024-11-08T19:00:00	5	Humedad	51
164429	7	Sololá	713	San Lucas Tolimán	10	San Lucas Tolimán	12	Diciembre	2023-11-12T00:00:00	2024-11-08T19:00:00	6	Velocidad del viento	6.4
164430	7	Sololá	713	San Lucas Tolimán	10	San Lucas Tolimán	12	Diciembre	2023-11-12T00:00:00	2024-11-08T19:00:00	7	Dirección del viento	6.44
164431	7	Sololá	713	San Lucas Tolimán	10	San Lucas Tolimán	12	Diciembre	2023-11-12T00:00:00	2024-11-08T19:00:00	1	Precipitación	0
164432	7	Sololá	713	San Lucas Tolimán	10	San Lucas Tolimán	12	Diciembre	2023-11-12T00:00:00	2024-11-08T19:00:00	8	Radiación solar	0
164433	7	Sololá	713	San Lucas Tolimán	10	San Lucas Tolimán	12	Diciembre	2023-11-12T00:00:00	2024-11-08T20:00:00	2	Temperatura media	18.7
164434	7	Sololá	713	San Lucas Tolimán	10	San Lucas Tolimán	12	Diciembre	2023-11-12T00:00:00	2024-11-08T20:00:00	4	Temperatura máxima	19.1
164435	7	Sololá	713	San Lucas Tolimán	10	San Lucas Tolimán	12	Diciembre	2023-11-12T00:00:00	2024-11-08T20:00:00	3	Temperatura mínima	18.7
164436	7	Sololá	713	San Lucas Tolimán	10	San Lucas Tolimán	12	Diciembre	2023-11-12T00:00:00	2024-11-08T20:00:00	5	Humedad	52
164437	7	Sololá	713	San Lucas Tolimán	10	San Lucas Tolimán	12	Diciembre	2023-11-12T00:00:00	2024-11-08T20:00:00	6	Velocidad del viento	4.8
164438	7	Sololá	713	San Lucas Tolimán	10	San Lucas Tolimán	12	Diciembre	2023-11-12T00:00:00	2024-11-08T20:00:00	7	Dirección del viento	4.83
164439	7	Sololá	713	San Lucas Tolimán	10	San Lucas Tolimán	12	Diciembre	2023-11-12T00:00:00	2024-11-08T20:00:00	1	Precipitación	0
164440	7	Sololá	713	San Lucas Tolimán	10	San Lucas Tolimán	12	Diciembre	2023-11-12T00:00:00	2024-11-08T20:00:00	8	Radiación solar	0
164441	7	Sololá	713	San Lucas Tolimán	10	San Lucas Tolimán	12	Diciembre	2023-11-12T00:00:00	2024-11-08T21:00:00	2	Temperatura media	18.9
164442	7	Sololá	713	San Lucas Tolimán	10	San Lucas Tolimán	12	Diciembre	2023-11-12T00:00:00	2024-11-08T21:00:00	4	Temperatura máxima	19
164443	7	Sololá	713	San Lucas Tolimán	10	San Lucas Tolimán	12	Diciembre	2023-11-12T00:00:00	2024-11-08T21:00:00	3	Temperatura mínima	18.7
164444	7	Sololá	713	San Lucas Tolimán	10	San Lucas Tolimán	12	Diciembre	2023-11-12T00:00:00	2024-11-08T21:00:00	5	Humedad	51
164445	7	Sololá	713	San Lucas Tolimán	10	San Lucas Tolimán	12	Diciembre	2023-11-12T00:00:00	2024-11-08T21:00:00	6	Velocidad del viento	8
164446	7	Sololá	713	San Lucas Tolimán	10	San Lucas Tolimán	12	Diciembre	2023-11-12T00:00:00	2024-11-08T21:00:00	7	Dirección del viento	8.05
164447	7	Sololá	713	San Lucas Tolimán	10	San Lucas Tolimán	12	Diciembre	2023-11-12T00:00:00	2024-11-08T21:00:00	1	Precipitación	0
164448	7	Sololá	713	San Lucas Tolimán	10	San Lucas Tolimán	12	Diciembre	2023-11-12T00:00:00	2024-11-08T21:00:00	8	Radiación solar	0
164449	7	Sololá	713	San Lucas Tolimán	10	San Lucas Tolimán	12	Diciembre	2023-11-12T00:00:00	2024-11-08T22:00:00	2	Temperatura media	18.4
164450	7	Sololá	713	San Lucas Tolimán	10	San Lucas Tolimán	12	Diciembre	2023-11-12T00:00:00	2024-11-08T22:00:00	4	Temperatura máxima	19.1
164451	7	Sololá	713	San Lucas Tolimán	10	San Lucas Tolimán	12	Diciembre	2023-11-12T00:00:00	2024-11-08T22:00:00	3	Temperatura mínima	18.3
164452	7	Sololá	713	San Lucas Tolimán	10	San Lucas Tolimán	12	Diciembre	2023-11-12T00:00:00	2024-11-08T22:00:00	5	Humedad	53
164453	7	Sololá	713	San Lucas Tolimán	10	San Lucas Tolimán	12	Diciembre	2023-11-12T00:00:00	2024-11-08T22:00:00	6	Velocidad del viento	9.7
164454	7	Sololá	713	San Lucas Tolimán	10	San Lucas Tolimán	12	Diciembre	2023-11-12T00:00:00	2024-11-08T22:00:00	7	Dirección del viento	9.66
164455	7	Sololá	713	San Lucas Tolimán	10	San Lucas Tolimán	12	Diciembre	2023-11-12T00:00:00	2024-11-08T22:00:00	1	Precipitación	0
164456	7	Sololá	713	San Lucas Tolimán	10	San Lucas Tolimán	12	Diciembre	2023-11-12T00:00:00	2024-11-08T22:00:00	8	Radiación solar	0
164457	7	Sololá	713	San Lucas Tolimán	10	San Lucas Tolimán	12	Diciembre	2023-11-12T00:00:00	2024-11-08T23:00:00	2	Temperatura media	19.2
164458	7	Sololá	713	San Lucas Tolimán	10	San Lucas Tolimán	12	Diciembre	2023-11-12T00:00:00	2024-11-08T23:00:00	4	Temperatura máxima	19.3
164459	7	Sololá	713	San Lucas Tolimán	10	San Lucas Tolimán	12	Diciembre	2023-11-12T00:00:00	2024-11-08T23:00:00	3	Temperatura mínima	18.3
164460	7	Sololá	713	San Lucas Tolimán	10	San Lucas Tolimán	12	Diciembre	2023-11-12T00:00:00	2024-11-08T23:00:00	5	Humedad	50
164461	7	Sololá	713	San Lucas Tolimán	10	San Lucas Tolimán	12	Diciembre	2023-11-12T00:00:00	2024-11-08T23:00:00	6	Velocidad del viento	9.7
164462	7	Sololá	713	San Lucas Tolimán	10	San Lucas Tolimán	12	Diciembre	2023-11-12T00:00:00	2024-11-08T23:00:00	7	Dirección del viento	9.66
164463	7	Sololá	713	San Lucas Tolimán	10	San Lucas Tolimán	12	Diciembre	2023-11-12T00:00:00	2024-11-08T23:00:00	1	Precipitación	0
164464	7	Sololá	713	San Lucas Tolimán	10	San Lucas Tolimán	12	Diciembre	2023-11-12T00:00:00	2024-11-08T23:00:00	8	Radiación solar	0
164465	7	Sololá	713	San Lucas Tolimán	10	San Lucas Tolimán	12	Diciembre	2023-12-12T00:00:00	2024-11-08T00:00:00	2	Temperatura media	18.3
164466	7	Sololá	713	San Lucas Tolimán	10	San Lucas Tolimán	12	Diciembre	2023-12-12T00:00:00	2024-11-08T00:00:00	4	Temperatura máxima	19.5
164467	7	Sololá	713	San Lucas Tolimán	10	San Lucas Tolimán	12	Diciembre	2023-12-12T00:00:00	2024-11-08T00:00:00	3	Temperatura mínima	18.3
164468	7	Sololá	713	San Lucas Tolimán	10	San Lucas Tolimán	12	Diciembre	2023-12-12T00:00:00	2024-11-08T00:00:00	5	Humedad	53
164469	7	Sololá	713	San Lucas Tolimán	10	San Lucas Tolimán	12	Diciembre	2023-12-12T00:00:00	2024-11-08T00:00:00	6	Velocidad del viento	11.3
164470	7	Sololá	713	San Lucas Tolimán	10	San Lucas Tolimán	12	Diciembre	2023-12-12T00:00:00	2024-11-08T00:00:00	7	Dirección del viento	11.27
164471	7	Sololá	713	San Lucas Tolimán	10	San Lucas Tolimán	12	Diciembre	2023-12-12T00:00:00	2024-11-08T00:00:00	1	Precipitación	0
164472	7	Sololá	713	San Lucas Tolimán	10	San Lucas Tolimán	12	Diciembre	2023-12-12T00:00:00	2024-11-08T00:00:00	8	Radiación solar	0
164473	7	Sololá	713	San Lucas Tolimán	10	San Lucas Tolimán	12	Diciembre	2023-12-12T00:00:00	2024-11-08T01:00:00	2	Temperatura media	18.1
164474	7	Sololá	713	San Lucas Tolimán	10	San Lucas Tolimán	12	Diciembre	2023-12-12T00:00:00	2024-11-08T01:00:00	4	Temperatura máxima	18.3
164475	7	Sololá	713	San Lucas Tolimán	10	San Lucas Tolimán	12	Diciembre	2023-12-12T00:00:00	2024-11-08T01:00:00	3	Temperatura mínima	17.9
164476	7	Sololá	713	San Lucas Tolimán	10	San Lucas Tolimán	12	Diciembre	2023-12-12T00:00:00	2024-11-08T01:00:00	5	Humedad	54
164477	7	Sololá	713	San Lucas Tolimán	10	San Lucas Tolimán	12	Diciembre	2023-12-12T00:00:00	2024-11-08T01:00:00	6	Velocidad del viento	8
164478	7	Sololá	713	San Lucas Tolimán	10	San Lucas Tolimán	12	Diciembre	2023-12-12T00:00:00	2024-11-08T01:00:00	7	Dirección del viento	8.05
164479	7	Sololá	713	San Lucas Tolimán	10	San Lucas Tolimán	12	Diciembre	2023-12-12T00:00:00	2024-11-08T01:00:00	1	Precipitación	0
164480	7	Sololá	713	San Lucas Tolimán	10	San Lucas Tolimán	12	Diciembre	2023-12-12T00:00:00	2024-11-08T01:00:00	8	Radiación solar	0
164481	7	Sololá	713	San Lucas Tolimán	10	San Lucas Tolimán	12	Diciembre	2023-12-12T00:00:00	2024-11-08T02:00:00	2	Temperatura media	17.3
164482	7	Sololá	713	San Lucas Tolimán	10	San Lucas Tolimán	12	Diciembre	2023-12-12T00:00:00	2024-11-08T02:00:00	4	Temperatura máxima	18.1
164483	7	Sololá	713	San Lucas Tolimán	10	San Lucas Tolimán	12	Diciembre	2023-12-12T00:00:00	2024-11-08T02:00:00	3	Temperatura mínima	17.3
164484	7	Sololá	713	San Lucas Tolimán	10	San Lucas Tolimán	12	Diciembre	2023-12-12T00:00:00	2024-11-08T02:00:00	5	Humedad	56
164485	7	Sololá	713	San Lucas Tolimán	10	San Lucas Tolimán	12	Diciembre	2023-12-12T00:00:00	2024-11-08T02:00:00	6	Velocidad del viento	6.4
164486	7	Sololá	713	San Lucas Tolimán	10	San Lucas Tolimán	12	Diciembre	2023-12-12T00:00:00	2024-11-08T02:00:00	7	Dirección del viento	6.44
164487	7	Sololá	713	San Lucas Tolimán	10	San Lucas Tolimán	12	Diciembre	2023-12-12T00:00:00	2024-11-08T02:00:00	1	Precipitación	0
164488	7	Sololá	713	San Lucas Tolimán	10	San Lucas Tolimán	12	Diciembre	2023-12-12T00:00:00	2024-11-08T02:00:00	8	Radiación solar	0
164489	7	Sololá	713	San Lucas Tolimán	10	San Lucas Tolimán	12	Diciembre	2023-12-12T00:00:00	2024-11-08T03:00:00	2	Temperatura media	17.4
164490	7	Sololá	713	San Lucas Tolimán	10	San Lucas Tolimán	12	Diciembre	2023-12-12T00:00:00	2024-11-08T03:00:00	4	Temperatura máxima	17.7
164491	7	Sololá	713	San Lucas Tolimán	10	San Lucas Tolimán	12	Diciembre	2023-12-12T00:00:00	2024-11-08T03:00:00	3	Temperatura mínima	17.2
164492	7	Sololá	713	San Lucas Tolimán	10	San Lucas Tolimán	12	Diciembre	2023-12-12T00:00:00	2024-11-08T03:00:00	5	Humedad	55
164493	7	Sololá	713	San Lucas Tolimán	10	San Lucas Tolimán	12	Diciembre	2023-12-12T00:00:00	2024-11-08T03:00:00	6	Velocidad del viento	6.4
164494	7	Sololá	713	San Lucas Tolimán	10	San Lucas Tolimán	12	Diciembre	2023-12-12T00:00:00	2024-11-08T03:00:00	7	Dirección del viento	6.44
164495	7	Sololá	713	San Lucas Tolimán	10	San Lucas Tolimán	12	Diciembre	2023-12-12T00:00:00	2024-11-08T03:00:00	1	Precipitación	0
164496	7	Sololá	713	San Lucas Tolimán	10	San Lucas Tolimán	12	Diciembre	2023-12-12T00:00:00	2024-11-08T03:00:00	8	Radiación solar	0
164497	7	Sololá	713	San Lucas Tolimán	10	San Lucas Tolimán	12	Diciembre	2023-12-12T00:00:00	2024-11-08T04:00:00	2	Temperatura media	17.6
164498	7	Sololá	713	San Lucas Tolimán	10	San Lucas Tolimán	12	Diciembre	2023-12-12T00:00:00	2024-11-08T04:00:00	4	Temperatura máxima	17.8
164499	7	Sololá	713	San Lucas Tolimán	10	San Lucas Tolimán	12	Diciembre	2023-12-12T00:00:00	2024-11-08T04:00:00	3	Temperatura mínima	17.3
164500	7	Sololá	713	San Lucas Tolimán	10	San Lucas Tolimán	12	Diciembre	2023-12-12T00:00:00	2024-11-08T04:00:00	5	Humedad	54
164501	7	Sololá	713	San Lucas Tolimán	10	San Lucas Tolimán	12	Diciembre	2023-12-12T00:00:00	2024-11-08T04:00:00	6	Velocidad del viento	3.2
164502	7	Sololá	713	San Lucas Tolimán	10	San Lucas Tolimán	12	Diciembre	2023-12-12T00:00:00	2024-11-08T04:00:00	7	Dirección del viento	3.22
164503	7	Sololá	713	San Lucas Tolimán	10	San Lucas Tolimán	12	Diciembre	2023-12-12T00:00:00	2024-11-08T04:00:00	1	Precipitación	0
164504	7	Sololá	713	San Lucas Tolimán	10	San Lucas Tolimán	12	Diciembre	2023-12-12T00:00:00	2024-11-08T04:00:00	8	Radiación solar	0
164505	7	Sololá	713	San Lucas Tolimán	10	San Lucas Tolimán	12	Diciembre	2023-12-12T00:00:00	2024-11-08T05:00:00	2	Temperatura media	17.2
164506	7	Sololá	713	San Lucas Tolimán	10	San Lucas Tolimán	12	Diciembre	2023-12-12T00:00:00	2024-11-08T05:00:00	4	Temperatura máxima	17.6
164507	7	Sololá	713	San Lucas Tolimán	10	San Lucas Tolimán	12	Diciembre	2023-12-12T00:00:00	2024-11-08T05:00:00	3	Temperatura mínima	17
164508	7	Sololá	713	San Lucas Tolimán	10	San Lucas Tolimán	12	Diciembre	2023-12-12T00:00:00	2024-11-08T05:00:00	5	Humedad	55
164509	7	Sololá	713	San Lucas Tolimán	10	San Lucas Tolimán	12	Diciembre	2023-12-12T00:00:00	2024-11-08T05:00:00	6	Velocidad del viento	3.2
164510	7	Sololá	713	San Lucas Tolimán	10	San Lucas Tolimán	12	Diciembre	2023-12-12T00:00:00	2024-11-08T05:00:00	7	Dirección del viento	3.22
164511	7	Sololá	713	San Lucas Tolimán	10	San Lucas Tolimán	12	Diciembre	2023-12-12T00:00:00	2024-11-08T05:00:00	1	Precipitación	0
164512	7	Sololá	713	San Lucas Tolimán	10	San Lucas Tolimán	12	Diciembre	2023-12-12T00:00:00	2024-11-08T05:00:00	8	Radiación solar	0
164513	7	Sololá	713	San Lucas Tolimán	10	San Lucas Tolimán	12	Diciembre	2023-12-12T00:00:00	2024-11-08T06:00:00	2	Temperatura media	17.9
164514	7	Sololá	713	San Lucas Tolimán	10	San Lucas Tolimán	12	Diciembre	2023-12-12T00:00:00	2024-11-08T06:00:00	4	Temperatura máxima	18.3
164515	7	Sololá	713	San Lucas Tolimán	10	San Lucas Tolimán	12	Diciembre	2023-12-12T00:00:00	2024-11-08T06:00:00	3	Temperatura mínima	16.6
164516	7	Sololá	713	San Lucas Tolimán	10	San Lucas Tolimán	12	Diciembre	2023-12-12T00:00:00	2024-11-08T06:00:00	5	Humedad	53
164517	7	Sololá	713	San Lucas Tolimán	10	San Lucas Tolimán	12	Diciembre	2023-12-12T00:00:00	2024-11-08T06:00:00	6	Velocidad del viento	6.4
164518	7	Sololá	713	San Lucas Tolimán	10	San Lucas Tolimán	12	Diciembre	2023-12-12T00:00:00	2024-11-08T06:00:00	7	Dirección del viento	6.44
164519	7	Sololá	713	San Lucas Tolimán	10	San Lucas Tolimán	12	Diciembre	2023-12-12T00:00:00	2024-11-08T06:00:00	1	Precipitación	0
164520	7	Sololá	713	San Lucas Tolimán	10	San Lucas Tolimán	12	Diciembre	2023-12-12T00:00:00	2024-11-08T06:00:00	8	Radiación solar	0
164521	7	Sololá	713	San Lucas Tolimán	10	San Lucas Tolimán	12	Diciembre	2023-12-12T00:00:00	2024-11-08T07:00:00	2	Temperatura media	18.4
164522	7	Sololá	713	San Lucas Tolimán	10	San Lucas Tolimán	12	Diciembre	2023-12-12T00:00:00	2024-11-08T07:00:00	4	Temperatura máxima	18.4
164523	7	Sololá	713	San Lucas Tolimán	10	San Lucas Tolimán	12	Diciembre	2023-12-12T00:00:00	2024-11-08T07:00:00	3	Temperatura mínima	17.7
164524	7	Sololá	713	San Lucas Tolimán	10	San Lucas Tolimán	12	Diciembre	2023-12-12T00:00:00	2024-11-08T07:00:00	5	Humedad	50
164525	7	Sololá	713	San Lucas Tolimán	10	San Lucas Tolimán	12	Diciembre	2023-12-12T00:00:00	2024-11-08T07:00:00	6	Velocidad del viento	9.7
164526	7	Sololá	713	San Lucas Tolimán	10	San Lucas Tolimán	12	Diciembre	2023-12-12T00:00:00	2024-11-08T07:00:00	7	Dirección del viento	9.66
164527	7	Sololá	713	San Lucas Tolimán	10	San Lucas Tolimán	12	Diciembre	2023-12-12T00:00:00	2024-11-08T07:00:00	1	Precipitación	0
164528	7	Sololá	713	San Lucas Tolimán	10	San Lucas Tolimán	12	Diciembre	2023-12-12T00:00:00	2024-11-08T07:00:00	8	Radiación solar	7
164529	7	Sololá	713	San Lucas Tolimán	10	San Lucas Tolimán	12	Diciembre	2023-12-12T00:00:00	2024-11-08T08:00:00	2	Temperatura media	18.3
164530	7	Sololá	713	San Lucas Tolimán	10	San Lucas Tolimán	12	Diciembre	2023-12-12T00:00:00	2024-11-08T08:00:00	4	Temperatura máxima	18.4
164531	7	Sololá	713	San Lucas Tolimán	10	San Lucas Tolimán	12	Diciembre	2023-12-12T00:00:00	2024-11-08T08:00:00	3	Temperatura mínima	18.1
164532	7	Sololá	713	San Lucas Tolimán	10	San Lucas Tolimán	12	Diciembre	2023-12-12T00:00:00	2024-11-08T08:00:00	5	Humedad	52
164533	7	Sololá	713	San Lucas Tolimán	10	San Lucas Tolimán	12	Diciembre	2023-12-12T00:00:00	2024-11-08T08:00:00	6	Velocidad del viento	11.3
164534	7	Sololá	713	San Lucas Tolimán	10	San Lucas Tolimán	12	Diciembre	2023-12-12T00:00:00	2024-11-08T08:00:00	7	Dirección del viento	11.27
164535	7	Sololá	713	San Lucas Tolimán	10	San Lucas Tolimán	12	Diciembre	2023-12-12T00:00:00	2024-11-08T08:00:00	1	Precipitación	0
164536	7	Sololá	713	San Lucas Tolimán	10	San Lucas Tolimán	12	Diciembre	2023-12-12T00:00:00	2024-11-08T08:00:00	8	Radiación solar	24
164537	7	Sololá	713	San Lucas Tolimán	10	San Lucas Tolimán	12	Diciembre	2023-12-12T00:00:00	2024-11-08T09:00:00	2	Temperatura media	21.2
164538	7	Sololá	713	San Lucas Tolimán	10	San Lucas Tolimán	12	Diciembre	2023-12-12T00:00:00	2024-11-08T09:00:00	4	Temperatura máxima	21.2
164539	7	Sololá	713	San Lucas Tolimán	10	San Lucas Tolimán	12	Diciembre	2023-12-12T00:00:00	2024-11-08T09:00:00	3	Temperatura mínima	18.3
164540	7	Sololá	713	San Lucas Tolimán	10	San Lucas Tolimán	12	Diciembre	2023-12-12T00:00:00	2024-11-08T09:00:00	5	Humedad	46
164541	7	Sololá	713	San Lucas Tolimán	10	San Lucas Tolimán	12	Diciembre	2023-12-12T00:00:00	2024-11-08T09:00:00	6	Velocidad del viento	9.7
164542	7	Sololá	713	San Lucas Tolimán	10	San Lucas Tolimán	12	Diciembre	2023-12-12T00:00:00	2024-11-08T09:00:00	7	Dirección del viento	9.66
164543	7	Sololá	713	San Lucas Tolimán	10	San Lucas Tolimán	12	Diciembre	2023-12-12T00:00:00	2024-11-08T09:00:00	1	Precipitación	0
164544	7	Sololá	713	San Lucas Tolimán	10	San Lucas Tolimán	12	Diciembre	2023-12-12T00:00:00	2024-11-08T09:00:00	8	Radiación solar	325
164545	7	Sololá	713	San Lucas Tolimán	10	San Lucas Tolimán	12	Diciembre	2023-12-12T00:00:00	2024-11-08T10:00:00	2	Temperatura media	22.1
164546	7	Sololá	713	San Lucas Tolimán	10	San Lucas Tolimán	12	Diciembre	2023-12-12T00:00:00	2024-11-08T10:00:00	4	Temperatura máxima	22.4
164547	7	Sololá	713	San Lucas Tolimán	10	San Lucas Tolimán	12	Diciembre	2023-12-12T00:00:00	2024-11-08T10:00:00	3	Temperatura mínima	21.1
164548	7	Sololá	713	San Lucas Tolimán	10	San Lucas Tolimán	12	Diciembre	2023-12-12T00:00:00	2024-11-08T10:00:00	5	Humedad	44
164549	7	Sololá	713	San Lucas Tolimán	10	San Lucas Tolimán	12	Diciembre	2023-12-12T00:00:00	2024-11-08T10:00:00	6	Velocidad del viento	14.5
164550	7	Sololá	713	San Lucas Tolimán	10	San Lucas Tolimán	12	Diciembre	2023-12-12T00:00:00	2024-11-08T10:00:00	7	Dirección del viento	14.48
164551	7	Sololá	713	San Lucas Tolimán	10	San Lucas Tolimán	12	Diciembre	2023-12-12T00:00:00	2024-11-08T10:00:00	1	Precipitación	0
164552	7	Sololá	713	San Lucas Tolimán	10	San Lucas Tolimán	12	Diciembre	2023-12-12T00:00:00	2024-11-08T10:00:00	8	Radiación solar	595
164553	7	Sololá	713	San Lucas Tolimán	10	San Lucas Tolimán	12	Diciembre	2023-12-12T00:00:00	2024-11-08T11:00:00	2	Temperatura media	22.7
164554	7	Sololá	713	San Lucas Tolimán	10	San Lucas Tolimán	12	Diciembre	2023-12-12T00:00:00	2024-11-08T11:00:00	4	Temperatura máxima	22.9
164555	7	Sololá	713	San Lucas Tolimán	10	San Lucas Tolimán	12	Diciembre	2023-12-12T00:00:00	2024-11-08T11:00:00	3	Temperatura mínima	21.9
164556	7	Sololá	713	San Lucas Tolimán	10	San Lucas Tolimán	12	Diciembre	2023-12-12T00:00:00	2024-11-08T11:00:00	5	Humedad	43
164557	7	Sololá	713	San Lucas Tolimán	10	San Lucas Tolimán	12	Diciembre	2023-12-12T00:00:00	2024-11-08T11:00:00	6	Velocidad del viento	20.9
164558	7	Sololá	713	San Lucas Tolimán	10	San Lucas Tolimán	12	Diciembre	2023-12-12T00:00:00	2024-11-08T11:00:00	7	Dirección del viento	20.92
164559	7	Sololá	713	San Lucas Tolimán	10	San Lucas Tolimán	12	Diciembre	2023-12-12T00:00:00	2024-11-08T11:00:00	1	Precipitación	0
164560	7	Sololá	713	San Lucas Tolimán	10	San Lucas Tolimán	12	Diciembre	2023-12-12T00:00:00	2024-11-08T11:00:00	8	Radiación solar	741
164561	7	Sololá	713	San Lucas Tolimán	10	San Lucas Tolimán	12	Diciembre	2023-12-12T00:00:00	2024-11-08T12:00:00	2	Temperatura media	23
164562	7	Sololá	713	San Lucas Tolimán	10	San Lucas Tolimán	12	Diciembre	2023-12-12T00:00:00	2024-11-08T12:00:00	4	Temperatura máxima	23.2
164563	7	Sololá	713	San Lucas Tolimán	10	San Lucas Tolimán	12	Diciembre	2023-12-12T00:00:00	2024-11-08T12:00:00	3	Temperatura mínima	22.7
164564	7	Sololá	713	San Lucas Tolimán	10	San Lucas Tolimán	12	Diciembre	2023-12-12T00:00:00	2024-11-08T12:00:00	5	Humedad	43
164565	7	Sololá	713	San Lucas Tolimán	10	San Lucas Tolimán	12	Diciembre	2023-12-12T00:00:00	2024-11-08T12:00:00	6	Velocidad del viento	20.9
164566	7	Sololá	713	San Lucas Tolimán	10	San Lucas Tolimán	12	Diciembre	2023-12-12T00:00:00	2024-11-08T12:00:00	7	Dirección del viento	20.92
164567	7	Sololá	713	San Lucas Tolimán	10	San Lucas Tolimán	12	Diciembre	2023-12-12T00:00:00	2024-11-08T12:00:00	1	Precipitación	0
164568	7	Sololá	713	San Lucas Tolimán	10	San Lucas Tolimán	12	Diciembre	2023-12-12T00:00:00	2024-11-08T12:00:00	8	Radiación solar	825
164569	7	Sololá	713	San Lucas Tolimán	10	San Lucas Tolimán	12	Diciembre	2023-12-12T00:00:00	2024-11-08T13:00:00	2	Temperatura media	23.4
164570	7	Sololá	713	San Lucas Tolimán	10	San Lucas Tolimán	12	Diciembre	2023-12-12T00:00:00	2024-11-08T13:00:00	4	Temperatura máxima	23.6
164571	7	Sololá	713	San Lucas Tolimán	10	San Lucas Tolimán	12	Diciembre	2023-12-12T00:00:00	2024-11-08T13:00:00	3	Temperatura mínima	22.9
164572	7	Sololá	713	San Lucas Tolimán	10	San Lucas Tolimán	12	Diciembre	2023-12-12T00:00:00	2024-11-08T13:00:00	5	Humedad	43
164573	7	Sololá	713	San Lucas Tolimán	10	San Lucas Tolimán	12	Diciembre	2023-12-12T00:00:00	2024-11-08T13:00:00	6	Velocidad del viento	19.3
164574	7	Sololá	713	San Lucas Tolimán	10	San Lucas Tolimán	12	Diciembre	2023-12-12T00:00:00	2024-11-08T13:00:00	7	Dirección del viento	19.31
164575	7	Sololá	713	San Lucas Tolimán	10	San Lucas Tolimán	12	Diciembre	2023-12-12T00:00:00	2024-11-08T13:00:00	1	Precipitación	0
164576	7	Sololá	713	San Lucas Tolimán	10	San Lucas Tolimán	12	Diciembre	2023-12-12T00:00:00	2024-11-08T13:00:00	8	Radiación solar	873
164577	7	Sololá	713	San Lucas Tolimán	10	San Lucas Tolimán	12	Diciembre	2023-12-12T00:00:00	2024-11-08T14:00:00	2	Temperatura media	23.8
164578	7	Sololá	713	San Lucas Tolimán	10	San Lucas Tolimán	12	Diciembre	2023-12-12T00:00:00	2024-11-08T14:00:00	4	Temperatura máxima	24
164579	7	Sololá	713	San Lucas Tolimán	10	San Lucas Tolimán	12	Diciembre	2023-12-12T00:00:00	2024-11-08T14:00:00	3	Temperatura mínima	23.2
164580	7	Sololá	713	San Lucas Tolimán	10	San Lucas Tolimán	12	Diciembre	2023-12-12T00:00:00	2024-11-08T14:00:00	5	Humedad	43
164581	7	Sololá	713	San Lucas Tolimán	10	San Lucas Tolimán	12	Diciembre	2023-12-12T00:00:00	2024-11-08T14:00:00	6	Velocidad del viento	14.5
164582	7	Sololá	713	San Lucas Tolimán	10	San Lucas Tolimán	12	Diciembre	2023-12-12T00:00:00	2024-11-08T14:00:00	7	Dirección del viento	14.48
164583	7	Sololá	713	San Lucas Tolimán	10	San Lucas Tolimán	12	Diciembre	2023-12-12T00:00:00	2024-11-08T14:00:00	1	Precipitación	0
164584	7	Sololá	713	San Lucas Tolimán	10	San Lucas Tolimán	12	Diciembre	2023-12-12T00:00:00	2024-11-08T14:00:00	8	Radiación solar	435
164585	7	Sololá	713	San Lucas Tolimán	10	San Lucas Tolimán	12	Diciembre	2023-12-12T00:00:00	2024-11-08T15:00:00	2	Temperatura media	22.6
164586	7	Sololá	713	San Lucas Tolimán	10	San Lucas Tolimán	12	Diciembre	2023-12-12T00:00:00	2024-11-08T15:00:00	4	Temperatura máxima	23.8
164587	7	Sololá	713	San Lucas Tolimán	10	San Lucas Tolimán	12	Diciembre	2023-12-12T00:00:00	2024-11-08T15:00:00	3	Temperatura mínima	22.6
164588	7	Sololá	713	San Lucas Tolimán	10	San Lucas Tolimán	12	Diciembre	2023-12-12T00:00:00	2024-11-08T15:00:00	5	Humedad	46
164589	7	Sololá	713	San Lucas Tolimán	10	San Lucas Tolimán	12	Diciembre	2023-12-12T00:00:00	2024-11-08T15:00:00	6	Velocidad del viento	14.5
164590	7	Sololá	713	San Lucas Tolimán	10	San Lucas Tolimán	12	Diciembre	2023-12-12T00:00:00	2024-11-08T15:00:00	7	Dirección del viento	14.48
164591	7	Sololá	713	San Lucas Tolimán	10	San Lucas Tolimán	12	Diciembre	2023-12-12T00:00:00	2024-11-08T15:00:00	1	Precipitación	0
164592	7	Sololá	713	San Lucas Tolimán	10	San Lucas Tolimán	12	Diciembre	2023-12-12T00:00:00	2024-11-08T15:00:00	8	Radiación solar	317
164593	7	Sololá	713	San Lucas Tolimán	10	San Lucas Tolimán	12	Diciembre	2023-12-12T00:00:00	2024-11-08T16:00:00	2	Temperatura media	22.6
164594	7	Sololá	713	San Lucas Tolimán	10	San Lucas Tolimán	12	Diciembre	2023-12-12T00:00:00	2024-11-08T16:00:00	4	Temperatura máxima	22.8
164595	7	Sololá	713	San Lucas Tolimán	10	San Lucas Tolimán	12	Diciembre	2023-12-12T00:00:00	2024-11-08T16:00:00	3	Temperatura mínima	22.3
164596	7	Sololá	713	San Lucas Tolimán	10	San Lucas Tolimán	12	Diciembre	2023-12-12T00:00:00	2024-11-08T16:00:00	5	Humedad	46
164597	7	Sololá	713	San Lucas Tolimán	10	San Lucas Tolimán	12	Diciembre	2023-12-12T00:00:00	2024-11-08T16:00:00	6	Velocidad del viento	9.7
164598	7	Sololá	713	San Lucas Tolimán	10	San Lucas Tolimán	12	Diciembre	2023-12-12T00:00:00	2024-11-08T16:00:00	7	Dirección del viento	9.66
164599	7	Sololá	713	San Lucas Tolimán	10	San Lucas Tolimán	12	Diciembre	2023-12-12T00:00:00	2024-11-08T16:00:00	1	Precipitación	0
164600	7	Sololá	713	San Lucas Tolimán	10	San Lucas Tolimán	12	Diciembre	2023-12-12T00:00:00	2024-11-08T16:00:00	8	Radiación solar	182
164601	7	Sololá	713	San Lucas Tolimán	10	San Lucas Tolimán	12	Diciembre	2023-12-12T00:00:00	2024-11-08T17:00:00	2	Temperatura media	21.4
164602	7	Sololá	713	San Lucas Tolimán	10	San Lucas Tolimán	12	Diciembre	2023-12-12T00:00:00	2024-11-08T17:00:00	4	Temperatura máxima	22.6
164603	7	Sololá	713	San Lucas Tolimán	10	San Lucas Tolimán	12	Diciembre	2023-12-12T00:00:00	2024-11-08T17:00:00	3	Temperatura mínima	21.3
164604	7	Sololá	713	San Lucas Tolimán	10	San Lucas Tolimán	12	Diciembre	2023-12-12T00:00:00	2024-11-08T17:00:00	5	Humedad	50
164605	7	Sololá	713	San Lucas Tolimán	10	San Lucas Tolimán	12	Diciembre	2023-12-12T00:00:00	2024-11-08T17:00:00	6	Velocidad del viento	11.3
164606	7	Sololá	713	San Lucas Tolimán	10	San Lucas Tolimán	12	Diciembre	2023-12-12T00:00:00	2024-11-08T17:00:00	7	Dirección del viento	11.27
164607	7	Sololá	713	San Lucas Tolimán	10	San Lucas Tolimán	12	Diciembre	2023-12-12T00:00:00	2024-11-08T17:00:00	1	Precipitación	0
164608	7	Sololá	713	San Lucas Tolimán	10	San Lucas Tolimán	12	Diciembre	2023-12-12T00:00:00	2024-11-08T17:00:00	8	Radiación solar	98
164609	7	Sololá	713	San Lucas Tolimán	10	San Lucas Tolimán	12	Diciembre	2023-12-12T00:00:00	2024-11-08T18:00:00	2	Temperatura media	20.5
164610	7	Sololá	713	San Lucas Tolimán	10	San Lucas Tolimán	12	Diciembre	2023-12-12T00:00:00	2024-11-08T18:00:00	4	Temperatura máxima	21.4
164611	7	Sololá	713	San Lucas Tolimán	10	San Lucas Tolimán	12	Diciembre	2023-12-12T00:00:00	2024-11-08T18:00:00	3	Temperatura mínima	20.5
164612	7	Sololá	713	San Lucas Tolimán	10	San Lucas Tolimán	12	Diciembre	2023-12-12T00:00:00	2024-11-08T18:00:00	5	Humedad	51
164613	7	Sololá	713	San Lucas Tolimán	10	San Lucas Tolimán	12	Diciembre	2023-12-12T00:00:00	2024-11-08T18:00:00	6	Velocidad del viento	9.7
164614	7	Sololá	713	San Lucas Tolimán	10	San Lucas Tolimán	12	Diciembre	2023-12-12T00:00:00	2024-11-08T18:00:00	7	Dirección del viento	9.66
164615	7	Sololá	713	San Lucas Tolimán	10	San Lucas Tolimán	12	Diciembre	2023-12-12T00:00:00	2024-11-08T18:00:00	1	Precipitación	0
164616	7	Sololá	713	San Lucas Tolimán	10	San Lucas Tolimán	12	Diciembre	2023-12-12T00:00:00	2024-11-08T18:00:00	8	Radiación solar	17
164617	7	Sololá	713	San Lucas Tolimán	10	San Lucas Tolimán	12	Diciembre	2023-12-12T00:00:00	2024-11-08T19:00:00	2	Temperatura media	19.7
164618	7	Sololá	713	San Lucas Tolimán	10	San Lucas Tolimán	12	Diciembre	2023-12-12T00:00:00	2024-11-08T19:00:00	4	Temperatura máxima	20.5
164619	7	Sololá	713	San Lucas Tolimán	10	San Lucas Tolimán	12	Diciembre	2023-12-12T00:00:00	2024-11-08T19:00:00	3	Temperatura mínima	19.7
164620	7	Sololá	713	San Lucas Tolimán	10	San Lucas Tolimán	12	Diciembre	2023-12-12T00:00:00	2024-11-08T19:00:00	5	Humedad	54
164621	7	Sololá	713	San Lucas Tolimán	10	San Lucas Tolimán	12	Diciembre	2023-12-12T00:00:00	2024-11-08T19:00:00	6	Velocidad del viento	9.7
164622	7	Sololá	713	San Lucas Tolimán	10	San Lucas Tolimán	12	Diciembre	2023-12-12T00:00:00	2024-11-08T19:00:00	7	Dirección del viento	9.66
164623	7	Sololá	713	San Lucas Tolimán	10	San Lucas Tolimán	12	Diciembre	2023-12-12T00:00:00	2024-11-08T19:00:00	1	Precipitación	0
164624	7	Sololá	713	San Lucas Tolimán	10	San Lucas Tolimán	12	Diciembre	2023-12-12T00:00:00	2024-11-08T19:00:00	8	Radiación solar	0
164625	7	Sololá	713	San Lucas Tolimán	10	San Lucas Tolimán	12	Diciembre	2023-12-12T00:00:00	2024-11-08T20:00:00	2	Temperatura media	19.7
164626	7	Sololá	713	San Lucas Tolimán	10	San Lucas Tolimán	12	Diciembre	2023-12-12T00:00:00	2024-11-08T20:00:00	4	Temperatura máxima	19.8
164627	7	Sololá	713	San Lucas Tolimán	10	San Lucas Tolimán	12	Diciembre	2023-12-12T00:00:00	2024-11-08T20:00:00	3	Temperatura mínima	19.6
164628	7	Sololá	713	San Lucas Tolimán	10	San Lucas Tolimán	12	Diciembre	2023-12-12T00:00:00	2024-11-08T20:00:00	5	Humedad	54
164629	7	Sololá	713	San Lucas Tolimán	10	San Lucas Tolimán	12	Diciembre	2023-12-12T00:00:00	2024-11-08T20:00:00	6	Velocidad del viento	11.3
164630	7	Sololá	713	San Lucas Tolimán	10	San Lucas Tolimán	12	Diciembre	2023-12-12T00:00:00	2024-11-08T20:00:00	7	Dirección del viento	11.27
164631	7	Sololá	713	San Lucas Tolimán	10	San Lucas Tolimán	12	Diciembre	2023-12-12T00:00:00	2024-11-08T20:00:00	1	Precipitación	0
164632	7	Sololá	713	San Lucas Tolimán	10	San Lucas Tolimán	12	Diciembre	2023-12-12T00:00:00	2024-11-08T20:00:00	8	Radiación solar	0
164633	7	Sololá	713	San Lucas Tolimán	10	San Lucas Tolimán	12	Diciembre	2023-12-12T00:00:00	2024-11-08T21:00:00	2	Temperatura media	19.4
164634	7	Sololá	713	San Lucas Tolimán	10	San Lucas Tolimán	12	Diciembre	2023-12-12T00:00:00	2024-11-08T21:00:00	4	Temperatura máxima	19.7
164635	7	Sololá	713	San Lucas Tolimán	10	San Lucas Tolimán	12	Diciembre	2023-12-12T00:00:00	2024-11-08T21:00:00	3	Temperatura mínima	19.4
164636	7	Sololá	713	San Lucas Tolimán	10	San Lucas Tolimán	12	Diciembre	2023-12-12T00:00:00	2024-11-08T21:00:00	5	Humedad	55
164637	7	Sololá	713	San Lucas Tolimán	10	San Lucas Tolimán	12	Diciembre	2023-12-12T00:00:00	2024-11-08T21:00:00	6	Velocidad del viento	11.3
164638	7	Sololá	713	San Lucas Tolimán	10	San Lucas Tolimán	12	Diciembre	2023-12-12T00:00:00	2024-11-08T21:00:00	7	Dirección del viento	11.27
164639	7	Sololá	713	San Lucas Tolimán	10	San Lucas Tolimán	12	Diciembre	2023-12-12T00:00:00	2024-11-08T21:00:00	1	Precipitación	0
164640	7	Sololá	713	San Lucas Tolimán	10	San Lucas Tolimán	12	Diciembre	2023-12-12T00:00:00	2024-11-08T21:00:00	8	Radiación solar	0
164641	7	Sololá	713	San Lucas Tolimán	10	San Lucas Tolimán	12	Diciembre	2023-12-12T00:00:00	2024-11-08T22:00:00	2	Temperatura media	19.4
164642	7	Sololá	713	San Lucas Tolimán	10	San Lucas Tolimán	12	Diciembre	2023-12-12T00:00:00	2024-11-08T22:00:00	4	Temperatura máxima	19.5
164643	7	Sololá	713	San Lucas Tolimán	10	San Lucas Tolimán	12	Diciembre	2023-12-12T00:00:00	2024-11-08T22:00:00	3	Temperatura mínima	19.3
164644	7	Sololá	713	San Lucas Tolimán	10	San Lucas Tolimán	12	Diciembre	2023-12-12T00:00:00	2024-11-08T22:00:00	5	Humedad	54
164645	7	Sololá	713	San Lucas Tolimán	10	San Lucas Tolimán	12	Diciembre	2023-12-12T00:00:00	2024-11-08T22:00:00	6	Velocidad del viento	12.9
164646	7	Sololá	713	San Lucas Tolimán	10	San Lucas Tolimán	12	Diciembre	2023-12-12T00:00:00	2024-11-08T22:00:00	7	Dirección del viento	12.87
164647	7	Sololá	713	San Lucas Tolimán	10	San Lucas Tolimán	12	Diciembre	2023-12-12T00:00:00	2024-11-08T22:00:00	1	Precipitación	0
164648	7	Sololá	713	San Lucas Tolimán	10	San Lucas Tolimán	12	Diciembre	2023-12-12T00:00:00	2024-11-08T22:00:00	8	Radiación solar	0
164649	7	Sololá	713	San Lucas Tolimán	10	San Lucas Tolimán	12	Diciembre	2023-12-12T00:00:00	2024-11-08T23:00:00	2	Temperatura media	19.2
164650	7	Sololá	713	San Lucas Tolimán	10	San Lucas Tolimán	12	Diciembre	2023-12-12T00:00:00	2024-11-08T23:00:00	4	Temperatura máxima	19.4
164651	7	Sololá	713	San Lucas Tolimán	10	San Lucas Tolimán	12	Diciembre	2023-12-12T00:00:00	2024-11-08T23:00:00	3	Temperatura mínima	18.8
164652	7	Sololá	713	San Lucas Tolimán	10	San Lucas Tolimán	12	Diciembre	2023-12-12T00:00:00	2024-11-08T23:00:00	5	Humedad	55
164653	7	Sololá	713	San Lucas Tolimán	10	San Lucas Tolimán	12	Diciembre	2023-12-12T00:00:00	2024-11-08T23:00:00	6	Velocidad del viento	11.3
164654	7	Sololá	713	San Lucas Tolimán	10	San Lucas Tolimán	12	Diciembre	2023-12-12T00:00:00	2024-11-08T23:00:00	7	Dirección del viento	11.27
164655	7	Sololá	713	San Lucas Tolimán	10	San Lucas Tolimán	12	Diciembre	2023-12-12T00:00:00	2024-11-08T23:00:00	1	Precipitación	0
164656	7	Sololá	713	San Lucas Tolimán	10	San Lucas Tolimán	12	Diciembre	2023-12-12T00:00:00	2024-11-08T23:00:00	8	Radiación solar	0
164657	7	Sololá	713	San Lucas Tolimán	10	San Lucas Tolimán	12	Diciembre	2023-12-13T00:00:00	2024-11-08T00:00:00	2	Temperatura media	19.8
164658	7	Sololá	713	San Lucas Tolimán	10	San Lucas Tolimán	12	Diciembre	2023-12-13T00:00:00	2024-11-08T00:00:00	4	Temperatura máxima	19.8
164659	7	Sololá	713	San Lucas Tolimán	10	San Lucas Tolimán	12	Diciembre	2023-12-13T00:00:00	2024-11-08T00:00:00	3	Temperatura mínima	19.2
164660	7	Sololá	713	San Lucas Tolimán	10	San Lucas Tolimán	12	Diciembre	2023-12-13T00:00:00	2024-11-08T00:00:00	5	Humedad	52
164661	7	Sololá	713	San Lucas Tolimán	10	San Lucas Tolimán	12	Diciembre	2023-12-13T00:00:00	2024-11-08T00:00:00	6	Velocidad del viento	12.9
164662	7	Sololá	713	San Lucas Tolimán	10	San Lucas Tolimán	12	Diciembre	2023-12-13T00:00:00	2024-11-08T00:00:00	7	Dirección del viento	12.87
164663	7	Sololá	713	San Lucas Tolimán	10	San Lucas Tolimán	12	Diciembre	2023-12-13T00:00:00	2024-11-08T00:00:00	1	Precipitación	0
164664	7	Sololá	713	San Lucas Tolimán	10	San Lucas Tolimán	12	Diciembre	2023-12-13T00:00:00	2024-11-08T00:00:00	8	Radiación solar	0
164665	7	Sololá	713	San Lucas Tolimán	10	San Lucas Tolimán	12	Diciembre	2023-12-13T00:00:00	2024-11-08T01:00:00	2	Temperatura media	19.7
164666	7	Sololá	713	San Lucas Tolimán	10	San Lucas Tolimán	12	Diciembre	2023-12-13T00:00:00	2024-11-08T01:00:00	4	Temperatura máxima	19.9
164667	7	Sololá	713	San Lucas Tolimán	10	San Lucas Tolimán	12	Diciembre	2023-12-13T00:00:00	2024-11-08T01:00:00	3	Temperatura mínima	19.7
164668	7	Sololá	713	San Lucas Tolimán	10	San Lucas Tolimán	12	Diciembre	2023-12-13T00:00:00	2024-11-08T01:00:00	5	Humedad	53
164669	7	Sololá	713	San Lucas Tolimán	10	San Lucas Tolimán	12	Diciembre	2023-12-13T00:00:00	2024-11-08T01:00:00	6	Velocidad del viento	6.4
164670	7	Sololá	713	San Lucas Tolimán	10	San Lucas Tolimán	12	Diciembre	2023-12-13T00:00:00	2024-11-08T01:00:00	7	Dirección del viento	6.44
164671	7	Sololá	713	San Lucas Tolimán	10	San Lucas Tolimán	12	Diciembre	2023-12-13T00:00:00	2024-11-08T01:00:00	1	Precipitación	0
164672	7	Sololá	713	San Lucas Tolimán	10	San Lucas Tolimán	12	Diciembre	2023-12-13T00:00:00	2024-11-08T01:00:00	8	Radiación solar	0
164673	7	Sololá	713	San Lucas Tolimán	10	San Lucas Tolimán	12	Diciembre	2023-12-13T00:00:00	2024-11-08T02:00:00	2	Temperatura media	18.8
164674	7	Sololá	713	San Lucas Tolimán	10	San Lucas Tolimán	12	Diciembre	2023-12-13T00:00:00	2024-11-08T02:00:00	4	Temperatura máxima	19.7
164675	7	Sololá	713	San Lucas Tolimán	10	San Lucas Tolimán	12	Diciembre	2023-12-13T00:00:00	2024-11-08T02:00:00	3	Temperatura mínima	18.8
164676	7	Sololá	713	San Lucas Tolimán	10	San Lucas Tolimán	12	Diciembre	2023-12-13T00:00:00	2024-11-08T02:00:00	5	Humedad	55
164677	7	Sololá	713	San Lucas Tolimán	10	San Lucas Tolimán	12	Diciembre	2023-12-13T00:00:00	2024-11-08T02:00:00	6	Velocidad del viento	8
164678	7	Sololá	713	San Lucas Tolimán	10	San Lucas Tolimán	12	Diciembre	2023-12-13T00:00:00	2024-11-08T02:00:00	7	Dirección del viento	8.05
164679	7	Sololá	713	San Lucas Tolimán	10	San Lucas Tolimán	12	Diciembre	2023-12-13T00:00:00	2024-11-08T02:00:00	1	Precipitación	0
164680	7	Sololá	713	San Lucas Tolimán	10	San Lucas Tolimán	12	Diciembre	2023-12-13T00:00:00	2024-11-08T02:00:00	8	Radiación solar	0
164681	7	Sololá	713	San Lucas Tolimán	10	San Lucas Tolimán	12	Diciembre	2023-12-13T00:00:00	2024-11-08T03:00:00	2	Temperatura media	18.4
164682	7	Sololá	713	San Lucas Tolimán	10	San Lucas Tolimán	12	Diciembre	2023-12-13T00:00:00	2024-11-08T03:00:00	4	Temperatura máxima	18.8
164683	7	Sololá	713	San Lucas Tolimán	10	San Lucas Tolimán	12	Diciembre	2023-12-13T00:00:00	2024-11-08T03:00:00	3	Temperatura mínima	18.4
164684	7	Sololá	713	San Lucas Tolimán	10	San Lucas Tolimán	12	Diciembre	2023-12-13T00:00:00	2024-11-08T03:00:00	5	Humedad	56
164685	7	Sololá	713	San Lucas Tolimán	10	San Lucas Tolimán	12	Diciembre	2023-12-13T00:00:00	2024-11-08T03:00:00	6	Velocidad del viento	6.4
164686	7	Sololá	713	San Lucas Tolimán	10	San Lucas Tolimán	12	Diciembre	2023-12-13T00:00:00	2024-11-08T03:00:00	7	Dirección del viento	6.44
164687	7	Sololá	713	San Lucas Tolimán	10	San Lucas Tolimán	12	Diciembre	2023-12-13T00:00:00	2024-11-08T03:00:00	1	Precipitación	0
164688	7	Sololá	713	San Lucas Tolimán	10	San Lucas Tolimán	12	Diciembre	2023-12-13T00:00:00	2024-11-08T03:00:00	8	Radiación solar	0
164689	7	Sololá	713	San Lucas Tolimán	10	San Lucas Tolimán	12	Diciembre	2023-12-13T00:00:00	2024-11-08T04:00:00	2	Temperatura media	18.1
164690	7	Sololá	713	San Lucas Tolimán	10	San Lucas Tolimán	12	Diciembre	2023-12-13T00:00:00	2024-11-08T04:00:00	4	Temperatura máxima	18.6
164691	7	Sololá	713	San Lucas Tolimán	10	San Lucas Tolimán	12	Diciembre	2023-12-13T00:00:00	2024-11-08T04:00:00	3	Temperatura mínima	18
164692	7	Sololá	713	San Lucas Tolimán	10	San Lucas Tolimán	12	Diciembre	2023-12-13T00:00:00	2024-11-08T04:00:00	5	Humedad	58
164693	7	Sololá	713	San Lucas Tolimán	10	San Lucas Tolimán	12	Diciembre	2023-12-13T00:00:00	2024-11-08T04:00:00	6	Velocidad del viento	6.4
164694	7	Sololá	713	San Lucas Tolimán	10	San Lucas Tolimán	12	Diciembre	2023-12-13T00:00:00	2024-11-08T04:00:00	7	Dirección del viento	6.44
164695	7	Sololá	713	San Lucas Tolimán	10	San Lucas Tolimán	12	Diciembre	2023-12-13T00:00:00	2024-11-08T04:00:00	1	Precipitación	0
164696	7	Sololá	713	San Lucas Tolimán	10	San Lucas Tolimán	12	Diciembre	2023-12-13T00:00:00	2024-11-08T04:00:00	8	Radiación solar	0
164697	7	Sololá	713	San Lucas Tolimán	10	San Lucas Tolimán	12	Diciembre	2023-12-13T00:00:00	2024-11-08T05:00:00	2	Temperatura media	18.6
164698	7	Sololá	713	San Lucas Tolimán	10	San Lucas Tolimán	12	Diciembre	2023-12-13T00:00:00	2024-11-08T05:00:00	4	Temperatura máxima	18.6
164699	7	Sololá	713	San Lucas Tolimán	10	San Lucas Tolimán	12	Diciembre	2023-12-13T00:00:00	2024-11-08T05:00:00	3	Temperatura mínima	17.9
164700	7	Sololá	713	San Lucas Tolimán	10	San Lucas Tolimán	12	Diciembre	2023-12-13T00:00:00	2024-11-08T05:00:00	5	Humedad	56
164701	7	Sololá	713	San Lucas Tolimán	10	San Lucas Tolimán	12	Diciembre	2023-12-13T00:00:00	2024-11-08T05:00:00	6	Velocidad del viento	8
164702	7	Sololá	713	San Lucas Tolimán	10	San Lucas Tolimán	12	Diciembre	2023-12-13T00:00:00	2024-11-08T05:00:00	7	Dirección del viento	8.05
164703	7	Sololá	713	San Lucas Tolimán	10	San Lucas Tolimán	12	Diciembre	2023-12-13T00:00:00	2024-11-08T05:00:00	1	Precipitación	0
164704	7	Sololá	713	San Lucas Tolimán	10	San Lucas Tolimán	12	Diciembre	2023-12-13T00:00:00	2024-11-08T05:00:00	8	Radiación solar	0
164705	7	Sololá	713	San Lucas Tolimán	10	San Lucas Tolimán	12	Diciembre	2023-12-13T00:00:00	2024-11-08T06:00:00	2	Temperatura media	18.7
164706	7	Sololá	713	San Lucas Tolimán	10	San Lucas Tolimán	12	Diciembre	2023-12-13T00:00:00	2024-11-08T06:00:00	4	Temperatura máxima	18.9
164707	7	Sololá	713	San Lucas Tolimán	10	San Lucas Tolimán	12	Diciembre	2023-12-13T00:00:00	2024-11-08T06:00:00	3	Temperatura mínima	18.6
164708	7	Sololá	713	San Lucas Tolimán	10	San Lucas Tolimán	12	Diciembre	2023-12-13T00:00:00	2024-11-08T06:00:00	5	Humedad	54
164709	7	Sololá	713	San Lucas Tolimán	10	San Lucas Tolimán	12	Diciembre	2023-12-13T00:00:00	2024-11-08T06:00:00	6	Velocidad del viento	12.9
164710	7	Sololá	713	San Lucas Tolimán	10	San Lucas Tolimán	12	Diciembre	2023-12-13T00:00:00	2024-11-08T06:00:00	7	Dirección del viento	12.87
164711	7	Sololá	713	San Lucas Tolimán	10	San Lucas Tolimán	12	Diciembre	2023-12-13T00:00:00	2024-11-08T06:00:00	1	Precipitación	0
164712	7	Sololá	713	San Lucas Tolimán	10	San Lucas Tolimán	12	Diciembre	2023-12-13T00:00:00	2024-11-08T06:00:00	8	Radiación solar	0
164713	7	Sololá	713	San Lucas Tolimán	10	San Lucas Tolimán	12	Diciembre	2023-12-13T00:00:00	2024-11-08T07:00:00	2	Temperatura media	18.1
164714	7	Sololá	713	San Lucas Tolimán	10	San Lucas Tolimán	12	Diciembre	2023-12-13T00:00:00	2024-11-08T07:00:00	4	Temperatura máxima	18.9
164715	7	Sololá	713	San Lucas Tolimán	10	San Lucas Tolimán	12	Diciembre	2023-12-13T00:00:00	2024-11-08T07:00:00	3	Temperatura mínima	18.1
164716	7	Sololá	713	San Lucas Tolimán	10	San Lucas Tolimán	12	Diciembre	2023-12-13T00:00:00	2024-11-08T07:00:00	5	Humedad	56
164717	7	Sololá	713	San Lucas Tolimán	10	San Lucas Tolimán	12	Diciembre	2023-12-13T00:00:00	2024-11-08T07:00:00	6	Velocidad del viento	9.7
164718	7	Sololá	713	San Lucas Tolimán	10	San Lucas Tolimán	12	Diciembre	2023-12-13T00:00:00	2024-11-08T07:00:00	7	Dirección del viento	9.66
164719	7	Sololá	713	San Lucas Tolimán	10	San Lucas Tolimán	12	Diciembre	2023-12-13T00:00:00	2024-11-08T07:00:00	1	Precipitación	0
164720	7	Sololá	713	San Lucas Tolimán	10	San Lucas Tolimán	12	Diciembre	2023-12-13T00:00:00	2024-11-08T07:00:00	8	Radiación solar	9
164721	7	Sololá	713	San Lucas Tolimán	10	San Lucas Tolimán	12	Diciembre	2023-12-13T00:00:00	2024-11-08T08:00:00	2	Temperatura media	19.5
164722	7	Sololá	713	San Lucas Tolimán	10	San Lucas Tolimán	12	Diciembre	2023-12-13T00:00:00	2024-11-08T08:00:00	4	Temperatura máxima	19.5
164723	7	Sololá	713	San Lucas Tolimán	10	San Lucas Tolimán	12	Diciembre	2023-12-13T00:00:00	2024-11-08T08:00:00	3	Temperatura mínima	18.1
164724	7	Sololá	713	San Lucas Tolimán	10	San Lucas Tolimán	12	Diciembre	2023-12-13T00:00:00	2024-11-08T08:00:00	5	Humedad	52
164725	7	Sololá	713	San Lucas Tolimán	10	San Lucas Tolimán	12	Diciembre	2023-12-13T00:00:00	2024-11-08T08:00:00	6	Velocidad del viento	8
164726	7	Sololá	713	San Lucas Tolimán	10	San Lucas Tolimán	12	Diciembre	2023-12-13T00:00:00	2024-11-08T08:00:00	7	Dirección del viento	8.05
164727	7	Sololá	713	San Lucas Tolimán	10	San Lucas Tolimán	12	Diciembre	2023-12-13T00:00:00	2024-11-08T08:00:00	1	Precipitación	0
164728	7	Sololá	713	San Lucas Tolimán	10	San Lucas Tolimán	12	Diciembre	2023-12-13T00:00:00	2024-11-08T08:00:00	8	Radiación solar	24
164729	7	Sololá	713	San Lucas Tolimán	10	San Lucas Tolimán	12	Diciembre	2023-12-13T00:00:00	2024-11-08T09:00:00	2	Temperatura media	20.5
164730	7	Sololá	713	San Lucas Tolimán	10	San Lucas Tolimán	12	Diciembre	2023-12-13T00:00:00	2024-11-08T09:00:00	4	Temperatura máxima	21.1
164731	7	Sololá	713	San Lucas Tolimán	10	San Lucas Tolimán	12	Diciembre	2023-12-13T00:00:00	2024-11-08T09:00:00	3	Temperatura mínima	19.5
164732	7	Sololá	713	San Lucas Tolimán	10	San Lucas Tolimán	12	Diciembre	2023-12-13T00:00:00	2024-11-08T09:00:00	5	Humedad	50
164733	7	Sololá	713	San Lucas Tolimán	10	San Lucas Tolimán	12	Diciembre	2023-12-13T00:00:00	2024-11-08T09:00:00	6	Velocidad del viento	11.3
164734	7	Sololá	713	San Lucas Tolimán	10	San Lucas Tolimán	12	Diciembre	2023-12-13T00:00:00	2024-11-08T09:00:00	7	Dirección del viento	11.27
164735	7	Sololá	713	San Lucas Tolimán	10	San Lucas Tolimán	12	Diciembre	2023-12-13T00:00:00	2024-11-08T09:00:00	1	Precipitación	0
164736	7	Sololá	713	San Lucas Tolimán	10	San Lucas Tolimán	12	Diciembre	2023-12-13T00:00:00	2024-11-08T09:00:00	8	Radiación solar	340
164737	7	Sololá	713	San Lucas Tolimán	10	San Lucas Tolimán	12	Diciembre	2023-12-13T00:00:00	2024-11-08T10:00:00	2	Temperatura media	20.6
164738	7	Sololá	713	San Lucas Tolimán	10	San Lucas Tolimán	12	Diciembre	2023-12-13T00:00:00	2024-11-08T10:00:00	4	Temperatura máxima	20.6
164739	7	Sololá	713	San Lucas Tolimán	10	San Lucas Tolimán	12	Diciembre	2023-12-13T00:00:00	2024-11-08T10:00:00	3	Temperatura mínima	20.3
164740	7	Sololá	713	San Lucas Tolimán	10	San Lucas Tolimán	12	Diciembre	2023-12-13T00:00:00	2024-11-08T10:00:00	5	Humedad	50
164741	7	Sololá	713	San Lucas Tolimán	10	San Lucas Tolimán	12	Diciembre	2023-12-13T00:00:00	2024-11-08T10:00:00	6	Velocidad del viento	27.4
164742	7	Sololá	713	San Lucas Tolimán	10	San Lucas Tolimán	12	Diciembre	2023-12-13T00:00:00	2024-11-08T10:00:00	7	Dirección del viento	27.36
164743	7	Sololá	713	San Lucas Tolimán	10	San Lucas Tolimán	12	Diciembre	2023-12-13T00:00:00	2024-11-08T10:00:00	1	Precipitación	0
164744	7	Sololá	713	San Lucas Tolimán	10	San Lucas Tolimán	12	Diciembre	2023-12-13T00:00:00	2024-11-08T10:00:00	8	Radiación solar	429
164745	7	Sololá	713	San Lucas Tolimán	10	San Lucas Tolimán	12	Diciembre	2023-12-13T00:00:00	2024-11-08T11:00:00	2	Temperatura media	22.6
164746	7	Sololá	713	San Lucas Tolimán	10	San Lucas Tolimán	12	Diciembre	2023-12-13T00:00:00	2024-11-08T11:00:00	4	Temperatura máxima	22.6
164747	7	Sololá	713	San Lucas Tolimán	10	San Lucas Tolimán	12	Diciembre	2023-12-13T00:00:00	2024-11-08T11:00:00	3	Temperatura mínima	20.6
164748	7	Sololá	713	San Lucas Tolimán	10	San Lucas Tolimán	12	Diciembre	2023-12-13T00:00:00	2024-11-08T11:00:00	5	Humedad	47
164749	7	Sololá	713	San Lucas Tolimán	10	San Lucas Tolimán	12	Diciembre	2023-12-13T00:00:00	2024-11-08T11:00:00	6	Velocidad del viento	19.3
164750	7	Sololá	713	San Lucas Tolimán	10	San Lucas Tolimán	12	Diciembre	2023-12-13T00:00:00	2024-11-08T11:00:00	7	Dirección del viento	19.31
164751	7	Sololá	713	San Lucas Tolimán	10	San Lucas Tolimán	12	Diciembre	2023-12-13T00:00:00	2024-11-08T11:00:00	1	Precipitación	0
164752	7	Sololá	713	San Lucas Tolimán	10	San Lucas Tolimán	12	Diciembre	2023-12-13T00:00:00	2024-11-08T11:00:00	8	Radiación solar	803
164753	7	Sololá	713	San Lucas Tolimán	10	San Lucas Tolimán	12	Diciembre	2023-12-13T00:00:00	2024-11-08T12:00:00	2	Temperatura media	23.1
164754	7	Sololá	713	San Lucas Tolimán	10	San Lucas Tolimán	12	Diciembre	2023-12-13T00:00:00	2024-11-08T12:00:00	4	Temperatura máxima	23.7
164755	7	Sololá	713	San Lucas Tolimán	10	San Lucas Tolimán	12	Diciembre	2023-12-13T00:00:00	2024-11-08T12:00:00	3	Temperatura mínima	22.5
164756	7	Sololá	713	San Lucas Tolimán	10	San Lucas Tolimán	12	Diciembre	2023-12-13T00:00:00	2024-11-08T12:00:00	5	Humedad	44
164757	7	Sololá	713	San Lucas Tolimán	10	San Lucas Tolimán	12	Diciembre	2023-12-13T00:00:00	2024-11-08T12:00:00	6	Velocidad del viento	11.3
164758	7	Sololá	713	San Lucas Tolimán	10	San Lucas Tolimán	12	Diciembre	2023-12-13T00:00:00	2024-11-08T12:00:00	7	Dirección del viento	11.27
164759	7	Sololá	713	San Lucas Tolimán	10	San Lucas Tolimán	12	Diciembre	2023-12-13T00:00:00	2024-11-08T12:00:00	1	Precipitación	0
164760	7	Sololá	713	San Lucas Tolimán	10	San Lucas Tolimán	12	Diciembre	2023-12-13T00:00:00	2024-11-08T12:00:00	8	Radiación solar	848
164761	7	Sololá	713	San Lucas Tolimán	10	San Lucas Tolimán	12	Diciembre	2023-12-13T00:00:00	2024-11-08T13:00:00	2	Temperatura media	22.7
164762	7	Sololá	713	San Lucas Tolimán	10	San Lucas Tolimán	12	Diciembre	2023-12-13T00:00:00	2024-11-08T13:00:00	4	Temperatura máxima	24.2
164763	7	Sololá	713	San Lucas Tolimán	10	San Lucas Tolimán	12	Diciembre	2023-12-13T00:00:00	2024-11-08T13:00:00	3	Temperatura mínima	22.6
164764	7	Sololá	713	San Lucas Tolimán	10	San Lucas Tolimán	12	Diciembre	2023-12-13T00:00:00	2024-11-08T13:00:00	5	Humedad	44
164765	7	Sololá	713	San Lucas Tolimán	10	San Lucas Tolimán	12	Diciembre	2023-12-13T00:00:00	2024-11-08T13:00:00	6	Velocidad del viento	16.1
164766	7	Sololá	713	San Lucas Tolimán	10	San Lucas Tolimán	12	Diciembre	2023-12-13T00:00:00	2024-11-08T13:00:00	7	Dirección del viento	16.09
164767	7	Sololá	713	San Lucas Tolimán	10	San Lucas Tolimán	12	Diciembre	2023-12-13T00:00:00	2024-11-08T13:00:00	1	Precipitación	0
164768	7	Sololá	713	San Lucas Tolimán	10	San Lucas Tolimán	12	Diciembre	2023-12-13T00:00:00	2024-11-08T13:00:00	8	Radiación solar	880
164769	7	Sololá	713	San Lucas Tolimán	10	San Lucas Tolimán	12	Diciembre	2023-12-13T00:00:00	2024-11-08T14:00:00	2	Temperatura media	22.9
164770	7	Sololá	713	San Lucas Tolimán	10	San Lucas Tolimán	12	Diciembre	2023-12-13T00:00:00	2024-11-08T14:00:00	4	Temperatura máxima	23.3
164771	7	Sololá	713	San Lucas Tolimán	10	San Lucas Tolimán	12	Diciembre	2023-12-13T00:00:00	2024-11-08T14:00:00	3	Temperatura mínima	22.2
164772	7	Sololá	713	San Lucas Tolimán	10	San Lucas Tolimán	12	Diciembre	2023-12-13T00:00:00	2024-11-08T14:00:00	5	Humedad	42
164773	7	Sololá	713	San Lucas Tolimán	10	San Lucas Tolimán	12	Diciembre	2023-12-13T00:00:00	2024-11-08T14:00:00	6	Velocidad del viento	16.1
164774	7	Sololá	713	San Lucas Tolimán	10	San Lucas Tolimán	12	Diciembre	2023-12-13T00:00:00	2024-11-08T14:00:00	7	Dirección del viento	16.09
164775	7	Sololá	713	San Lucas Tolimán	10	San Lucas Tolimán	12	Diciembre	2023-12-13T00:00:00	2024-11-08T14:00:00	1	Precipitación	0
164776	7	Sololá	713	San Lucas Tolimán	10	San Lucas Tolimán	12	Diciembre	2023-12-13T00:00:00	2024-11-08T14:00:00	8	Radiación solar	806
164777	7	Sololá	713	San Lucas Tolimán	10	San Lucas Tolimán	12	Diciembre	2023-12-13T00:00:00	2024-11-08T15:00:00	2	Temperatura media	22.3
164778	7	Sololá	713	San Lucas Tolimán	10	San Lucas Tolimán	12	Diciembre	2023-12-13T00:00:00	2024-11-08T15:00:00	4	Temperatura máxima	23.2
164779	7	Sololá	713	San Lucas Tolimán	10	San Lucas Tolimán	12	Diciembre	2023-12-13T00:00:00	2024-11-08T15:00:00	3	Temperatura mínima	22.2
164780	7	Sololá	713	San Lucas Tolimán	10	San Lucas Tolimán	12	Diciembre	2023-12-13T00:00:00	2024-11-08T15:00:00	5	Humedad	44
164781	7	Sololá	713	San Lucas Tolimán	10	San Lucas Tolimán	12	Diciembre	2023-12-13T00:00:00	2024-11-08T15:00:00	6	Velocidad del viento	24.1
164782	7	Sololá	713	San Lucas Tolimán	10	San Lucas Tolimán	12	Diciembre	2023-12-13T00:00:00	2024-11-08T15:00:00	7	Dirección del viento	24.14
164783	7	Sololá	713	San Lucas Tolimán	10	San Lucas Tolimán	12	Diciembre	2023-12-13T00:00:00	2024-11-08T15:00:00	1	Precipitación	0
164784	7	Sololá	713	San Lucas Tolimán	10	San Lucas Tolimán	12	Diciembre	2023-12-13T00:00:00	2024-11-08T15:00:00	8	Radiación solar	679
164785	7	Sololá	713	San Lucas Tolimán	10	San Lucas Tolimán	12	Diciembre	2023-12-13T00:00:00	2024-11-08T16:00:00	2	Temperatura media	21.9
164786	7	Sololá	713	San Lucas Tolimán	10	San Lucas Tolimán	12	Diciembre	2023-12-13T00:00:00	2024-11-08T16:00:00	4	Temperatura máxima	22.4
164787	7	Sololá	713	San Lucas Tolimán	10	San Lucas Tolimán	12	Diciembre	2023-12-13T00:00:00	2024-11-08T16:00:00	3	Temperatura mínima	21.9
164788	7	Sololá	713	San Lucas Tolimán	10	San Lucas Tolimán	12	Diciembre	2023-12-13T00:00:00	2024-11-08T16:00:00	5	Humedad	45
164789	7	Sololá	713	San Lucas Tolimán	10	San Lucas Tolimán	12	Diciembre	2023-12-13T00:00:00	2024-11-08T16:00:00	6	Velocidad del viento	20.9
164790	7	Sololá	713	San Lucas Tolimán	10	San Lucas Tolimán	12	Diciembre	2023-12-13T00:00:00	2024-11-08T16:00:00	7	Dirección del viento	20.92
164791	7	Sololá	713	San Lucas Tolimán	10	San Lucas Tolimán	12	Diciembre	2023-12-13T00:00:00	2024-11-08T16:00:00	1	Precipitación	0
164792	7	Sololá	713	San Lucas Tolimán	10	San Lucas Tolimán	12	Diciembre	2023-12-13T00:00:00	2024-11-08T16:00:00	8	Radiación solar	436
164793	7	Sololá	713	San Lucas Tolimán	10	San Lucas Tolimán	12	Diciembre	2023-12-13T00:00:00	2024-11-08T17:00:00	2	Temperatura media	21.3
164794	7	Sololá	713	San Lucas Tolimán	10	San Lucas Tolimán	12	Diciembre	2023-12-13T00:00:00	2024-11-08T17:00:00	4	Temperatura máxima	22.7
164795	7	Sololá	713	San Lucas Tolimán	10	San Lucas Tolimán	12	Diciembre	2023-12-13T00:00:00	2024-11-08T17:00:00	3	Temperatura mínima	21.3
164796	7	Sololá	713	San Lucas Tolimán	10	San Lucas Tolimán	12	Diciembre	2023-12-13T00:00:00	2024-11-08T17:00:00	5	Humedad	48
164797	7	Sololá	713	San Lucas Tolimán	10	San Lucas Tolimán	12	Diciembre	2023-12-13T00:00:00	2024-11-08T17:00:00	6	Velocidad del viento	11.3
164798	7	Sololá	713	San Lucas Tolimán	10	San Lucas Tolimán	12	Diciembre	2023-12-13T00:00:00	2024-11-08T17:00:00	7	Dirección del viento	11.27
164799	7	Sololá	713	San Lucas Tolimán	10	San Lucas Tolimán	12	Diciembre	2023-12-13T00:00:00	2024-11-08T17:00:00	1	Precipitación	0
164800	7	Sololá	713	San Lucas Tolimán	10	San Lucas Tolimán	12	Diciembre	2023-12-13T00:00:00	2024-11-08T17:00:00	8	Radiación solar	165
164801	7	Sololá	713	San Lucas Tolimán	10	San Lucas Tolimán	12	Diciembre	2023-12-13T00:00:00	2024-11-08T18:00:00	2	Temperatura media	20.5
164802	7	Sololá	713	San Lucas Tolimán	10	San Lucas Tolimán	12	Diciembre	2023-12-13T00:00:00	2024-11-08T18:00:00	4	Temperatura máxima	21.3
164803	7	Sololá	713	San Lucas Tolimán	10	San Lucas Tolimán	12	Diciembre	2023-12-13T00:00:00	2024-11-08T18:00:00	3	Temperatura mínima	20.4
164804	7	Sololá	713	San Lucas Tolimán	10	San Lucas Tolimán	12	Diciembre	2023-12-13T00:00:00	2024-11-08T18:00:00	5	Humedad	50
164805	7	Sololá	713	San Lucas Tolimán	10	San Lucas Tolimán	12	Diciembre	2023-12-13T00:00:00	2024-11-08T18:00:00	6	Velocidad del viento	9.7
164806	7	Sololá	713	San Lucas Tolimán	10	San Lucas Tolimán	12	Diciembre	2023-12-13T00:00:00	2024-11-08T18:00:00	7	Dirección del viento	9.66
164807	7	Sololá	713	San Lucas Tolimán	10	San Lucas Tolimán	12	Diciembre	2023-12-13T00:00:00	2024-11-08T18:00:00	1	Precipitación	0
164808	7	Sololá	713	San Lucas Tolimán	10	San Lucas Tolimán	12	Diciembre	2023-12-13T00:00:00	2024-11-08T18:00:00	8	Radiación solar	10
164809	7	Sololá	713	San Lucas Tolimán	10	San Lucas Tolimán	12	Diciembre	2023-12-13T00:00:00	2024-11-08T19:00:00	2	Temperatura media	19.9
164810	7	Sololá	713	San Lucas Tolimán	10	San Lucas Tolimán	12	Diciembre	2023-12-13T00:00:00	2024-11-08T19:00:00	4	Temperatura máxima	20.5
164811	7	Sololá	713	San Lucas Tolimán	10	San Lucas Tolimán	12	Diciembre	2023-12-13T00:00:00	2024-11-08T19:00:00	3	Temperatura mínima	19.9
164812	7	Sololá	713	San Lucas Tolimán	10	San Lucas Tolimán	12	Diciembre	2023-12-13T00:00:00	2024-11-08T19:00:00	5	Humedad	51
164813	7	Sololá	713	San Lucas Tolimán	10	San Lucas Tolimán	12	Diciembre	2023-12-13T00:00:00	2024-11-08T19:00:00	6	Velocidad del viento	8
164814	7	Sololá	713	San Lucas Tolimán	10	San Lucas Tolimán	12	Diciembre	2023-12-13T00:00:00	2024-11-08T19:00:00	7	Dirección del viento	8.05
164815	7	Sololá	713	San Lucas Tolimán	10	San Lucas Tolimán	12	Diciembre	2023-12-13T00:00:00	2024-11-08T19:00:00	1	Precipitación	0
164816	7	Sololá	713	San Lucas Tolimán	10	San Lucas Tolimán	12	Diciembre	2023-12-13T00:00:00	2024-11-08T19:00:00	8	Radiación solar	0
164817	7	Sololá	713	San Lucas Tolimán	10	San Lucas Tolimán	12	Diciembre	2023-12-13T00:00:00	2024-11-08T20:00:00	2	Temperatura media	19.9
164818	7	Sololá	713	San Lucas Tolimán	10	San Lucas Tolimán	12	Diciembre	2023-12-13T00:00:00	2024-11-08T20:00:00	4	Temperatura máxima	20.1
164819	7	Sololá	713	San Lucas Tolimán	10	San Lucas Tolimán	12	Diciembre	2023-12-13T00:00:00	2024-11-08T20:00:00	3	Temperatura mínima	19.7
164820	7	Sololá	713	San Lucas Tolimán	10	San Lucas Tolimán	12	Diciembre	2023-12-13T00:00:00	2024-11-08T20:00:00	5	Humedad	52
164821	7	Sololá	713	San Lucas Tolimán	10	San Lucas Tolimán	12	Diciembre	2023-12-13T00:00:00	2024-11-08T20:00:00	6	Velocidad del viento	6.4
164822	7	Sololá	713	San Lucas Tolimán	10	San Lucas Tolimán	12	Diciembre	2023-12-13T00:00:00	2024-11-08T20:00:00	7	Dirección del viento	6.44
164823	7	Sololá	713	San Lucas Tolimán	10	San Lucas Tolimán	12	Diciembre	2023-12-13T00:00:00	2024-11-08T20:00:00	1	Precipitación	0
164824	7	Sololá	713	San Lucas Tolimán	10	San Lucas Tolimán	12	Diciembre	2023-12-13T00:00:00	2024-11-08T20:00:00	8	Radiación solar	0
164825	7	Sololá	713	San Lucas Tolimán	10	San Lucas Tolimán	12	Diciembre	2023-12-13T00:00:00	2024-11-08T21:00:00	2	Temperatura media	19.8
164826	7	Sololá	713	San Lucas Tolimán	10	San Lucas Tolimán	12	Diciembre	2023-12-13T00:00:00	2024-11-08T21:00:00	4	Temperatura máxima	19.9
164827	7	Sololá	713	San Lucas Tolimán	10	San Lucas Tolimán	12	Diciembre	2023-12-13T00:00:00	2024-11-08T21:00:00	3	Temperatura mínima	19.7
164828	7	Sololá	713	San Lucas Tolimán	10	San Lucas Tolimán	12	Diciembre	2023-12-13T00:00:00	2024-11-08T21:00:00	5	Humedad	53
164829	7	Sololá	713	San Lucas Tolimán	10	San Lucas Tolimán	12	Diciembre	2023-12-13T00:00:00	2024-11-08T21:00:00	6	Velocidad del viento	6.4
164830	7	Sololá	713	San Lucas Tolimán	10	San Lucas Tolimán	12	Diciembre	2023-12-13T00:00:00	2024-11-08T21:00:00	7	Dirección del viento	6.44
164831	7	Sololá	713	San Lucas Tolimán	10	San Lucas Tolimán	12	Diciembre	2023-12-13T00:00:00	2024-11-08T21:00:00	1	Precipitación	0
164832	7	Sololá	713	San Lucas Tolimán	10	San Lucas Tolimán	12	Diciembre	2023-12-13T00:00:00	2024-11-08T21:00:00	8	Radiación solar	0
164833	7	Sololá	713	San Lucas Tolimán	10	San Lucas Tolimán	12	Diciembre	2023-12-13T00:00:00	2024-11-08T22:00:00	2	Temperatura media	19.7
164834	7	Sololá	713	San Lucas Tolimán	10	San Lucas Tolimán	12	Diciembre	2023-12-13T00:00:00	2024-11-08T22:00:00	4	Temperatura máxima	19.9
164835	7	Sololá	713	San Lucas Tolimán	10	San Lucas Tolimán	12	Diciembre	2023-12-13T00:00:00	2024-11-08T22:00:00	3	Temperatura mínima	19.6
164836	7	Sololá	713	San Lucas Tolimán	10	San Lucas Tolimán	12	Diciembre	2023-12-13T00:00:00	2024-11-08T22:00:00	5	Humedad	54
164837	7	Sololá	713	San Lucas Tolimán	10	San Lucas Tolimán	12	Diciembre	2023-12-13T00:00:00	2024-11-08T22:00:00	6	Velocidad del viento	8
164838	7	Sololá	713	San Lucas Tolimán	10	San Lucas Tolimán	12	Diciembre	2023-12-13T00:00:00	2024-11-08T22:00:00	7	Dirección del viento	8.05
164839	7	Sololá	713	San Lucas Tolimán	10	San Lucas Tolimán	12	Diciembre	2023-12-13T00:00:00	2024-11-08T22:00:00	1	Precipitación	0
164840	7	Sololá	713	San Lucas Tolimán	10	San Lucas Tolimán	12	Diciembre	2023-12-13T00:00:00	2024-11-08T22:00:00	8	Radiación solar	0
164841	7	Sololá	713	San Lucas Tolimán	10	San Lucas Tolimán	12	Diciembre	2023-12-13T00:00:00	2024-11-08T23:00:00	2	Temperatura media	19.3
164842	7	Sololá	713	San Lucas Tolimán	10	San Lucas Tolimán	12	Diciembre	2023-12-13T00:00:00	2024-11-08T23:00:00	4	Temperatura máxima	19.9
164843	7	Sololá	713	San Lucas Tolimán	10	San Lucas Tolimán	12	Diciembre	2023-12-13T00:00:00	2024-11-08T23:00:00	3	Temperatura mínima	19.3
164844	7	Sololá	713	San Lucas Tolimán	10	San Lucas Tolimán	12	Diciembre	2023-12-13T00:00:00	2024-11-08T23:00:00	5	Humedad	55
164845	7	Sololá	713	San Lucas Tolimán	10	San Lucas Tolimán	12	Diciembre	2023-12-13T00:00:00	2024-11-08T23:00:00	6	Velocidad del viento	4.8
164846	7	Sololá	713	San Lucas Tolimán	10	San Lucas Tolimán	12	Diciembre	2023-12-13T00:00:00	2024-11-08T23:00:00	7	Dirección del viento	4.83
164847	7	Sololá	713	San Lucas Tolimán	10	San Lucas Tolimán	12	Diciembre	2023-12-13T00:00:00	2024-11-08T23:00:00	1	Precipitación	0
164848	7	Sololá	713	San Lucas Tolimán	10	San Lucas Tolimán	12	Diciembre	2023-12-13T00:00:00	2024-11-08T23:00:00	8	Radiación solar	0
164849	7	Sololá	713	San Lucas Tolimán	10	San Lucas Tolimán	12	Diciembre	2023-12-14T00:00:00	2024-11-08T00:00:00	2	Temperatura media	19.3
164850	7	Sololá	713	San Lucas Tolimán	10	San Lucas Tolimán	12	Diciembre	2023-12-14T00:00:00	2024-11-08T00:00:00	4	Temperatura máxima	19.3
164851	7	Sololá	713	San Lucas Tolimán	10	San Lucas Tolimán	12	Diciembre	2023-12-14T00:00:00	2024-11-08T00:00:00	3	Temperatura mínima	18.9
164852	7	Sololá	713	San Lucas Tolimán	10	San Lucas Tolimán	12	Diciembre	2023-12-14T00:00:00	2024-11-08T00:00:00	5	Humedad	54
164853	7	Sololá	713	San Lucas Tolimán	10	San Lucas Tolimán	12	Diciembre	2023-12-14T00:00:00	2024-11-08T00:00:00	6	Velocidad del viento	6.4
164854	7	Sololá	713	San Lucas Tolimán	10	San Lucas Tolimán	12	Diciembre	2023-12-14T00:00:00	2024-11-08T00:00:00	7	Dirección del viento	6.44
164855	7	Sololá	713	San Lucas Tolimán	10	San Lucas Tolimán	12	Diciembre	2023-12-14T00:00:00	2024-11-08T00:00:00	1	Precipitación	0
164856	7	Sololá	713	San Lucas Tolimán	10	San Lucas Tolimán	12	Diciembre	2023-12-14T00:00:00	2024-11-08T00:00:00	8	Radiación solar	0
164857	7	Sololá	713	San Lucas Tolimán	10	San Lucas Tolimán	12	Diciembre	2023-12-14T00:00:00	2024-11-08T01:00:00	2	Temperatura media	19.7
164858	7	Sololá	713	San Lucas Tolimán	10	San Lucas Tolimán	12	Diciembre	2023-12-14T00:00:00	2024-11-08T01:00:00	4	Temperatura máxima	19.7
164859	7	Sololá	713	San Lucas Tolimán	10	San Lucas Tolimán	12	Diciembre	2023-12-14T00:00:00	2024-11-08T01:00:00	3	Temperatura mínima	18.8
164860	7	Sololá	713	San Lucas Tolimán	10	San Lucas Tolimán	12	Diciembre	2023-12-14T00:00:00	2024-11-08T01:00:00	5	Humedad	54
164861	7	Sololá	713	San Lucas Tolimán	10	San Lucas Tolimán	12	Diciembre	2023-12-14T00:00:00	2024-11-08T01:00:00	6	Velocidad del viento	8
164862	7	Sololá	713	San Lucas Tolimán	10	San Lucas Tolimán	12	Diciembre	2023-12-14T00:00:00	2024-11-08T01:00:00	7	Dirección del viento	8.05
164863	7	Sololá	713	San Lucas Tolimán	10	San Lucas Tolimán	12	Diciembre	2023-12-14T00:00:00	2024-11-08T01:00:00	1	Precipitación	0
164864	7	Sololá	713	San Lucas Tolimán	10	San Lucas Tolimán	12	Diciembre	2023-12-14T00:00:00	2024-11-08T01:00:00	8	Radiación solar	0
164865	7	Sololá	713	San Lucas Tolimán	10	San Lucas Tolimán	12	Diciembre	2023-12-14T00:00:00	2024-11-08T02:00:00	2	Temperatura media	19.6
164866	7	Sololá	713	San Lucas Tolimán	10	San Lucas Tolimán	12	Diciembre	2023-12-14T00:00:00	2024-11-08T02:00:00	4	Temperatura máxima	19.9
164867	7	Sololá	713	San Lucas Tolimán	10	San Lucas Tolimán	12	Diciembre	2023-12-14T00:00:00	2024-11-08T02:00:00	3	Temperatura mínima	19.5
164868	7	Sololá	713	San Lucas Tolimán	10	San Lucas Tolimán	12	Diciembre	2023-12-14T00:00:00	2024-11-08T02:00:00	5	Humedad	54
164869	7	Sololá	713	San Lucas Tolimán	10	San Lucas Tolimán	12	Diciembre	2023-12-14T00:00:00	2024-11-08T02:00:00	6	Velocidad del viento	12.9
164870	7	Sololá	713	San Lucas Tolimán	10	San Lucas Tolimán	12	Diciembre	2023-12-14T00:00:00	2024-11-08T02:00:00	7	Dirección del viento	12.87
164871	7	Sololá	713	San Lucas Tolimán	10	San Lucas Tolimán	12	Diciembre	2023-12-14T00:00:00	2024-11-08T02:00:00	1	Precipitación	0
164872	7	Sololá	713	San Lucas Tolimán	10	San Lucas Tolimán	12	Diciembre	2023-12-14T00:00:00	2024-11-08T02:00:00	8	Radiación solar	0
164873	7	Sololá	713	San Lucas Tolimán	10	San Lucas Tolimán	12	Diciembre	2023-12-14T00:00:00	2024-11-08T03:00:00	2	Temperatura media	19.4
164874	7	Sololá	713	San Lucas Tolimán	10	San Lucas Tolimán	12	Diciembre	2023-12-14T00:00:00	2024-11-08T03:00:00	4	Temperatura máxima	19.7
164875	7	Sololá	713	San Lucas Tolimán	10	San Lucas Tolimán	12	Diciembre	2023-12-14T00:00:00	2024-11-08T03:00:00	3	Temperatura mínima	19.3
164876	7	Sololá	713	San Lucas Tolimán	10	San Lucas Tolimán	12	Diciembre	2023-12-14T00:00:00	2024-11-08T03:00:00	5	Humedad	54
164877	7	Sololá	713	San Lucas Tolimán	10	San Lucas Tolimán	12	Diciembre	2023-12-14T00:00:00	2024-11-08T03:00:00	6	Velocidad del viento	9.7
164878	7	Sololá	713	San Lucas Tolimán	10	San Lucas Tolimán	12	Diciembre	2023-12-14T00:00:00	2024-11-08T03:00:00	7	Dirección del viento	9.66
164879	7	Sololá	713	San Lucas Tolimán	10	San Lucas Tolimán	12	Diciembre	2023-12-14T00:00:00	2024-11-08T03:00:00	1	Precipitación	0
164880	7	Sololá	713	San Lucas Tolimán	10	San Lucas Tolimán	12	Diciembre	2023-12-14T00:00:00	2024-11-08T03:00:00	8	Radiación solar	0
164881	7	Sololá	713	San Lucas Tolimán	10	San Lucas Tolimán	12	Diciembre	2023-12-14T00:00:00	2024-11-08T04:00:00	2	Temperatura media	19.4
164882	7	Sololá	713	San Lucas Tolimán	10	San Lucas Tolimán	12	Diciembre	2023-12-14T00:00:00	2024-11-08T04:00:00	4	Temperatura máxima	19.6
164883	7	Sololá	713	San Lucas Tolimán	10	San Lucas Tolimán	12	Diciembre	2023-12-14T00:00:00	2024-11-08T04:00:00	3	Temperatura mínima	18.9
164884	7	Sololá	713	San Lucas Tolimán	10	San Lucas Tolimán	12	Diciembre	2023-12-14T00:00:00	2024-11-08T04:00:00	5	Humedad	54
164885	7	Sololá	713	San Lucas Tolimán	10	San Lucas Tolimán	12	Diciembre	2023-12-14T00:00:00	2024-11-08T04:00:00	6	Velocidad del viento	8
164886	7	Sololá	713	San Lucas Tolimán	10	San Lucas Tolimán	12	Diciembre	2023-12-14T00:00:00	2024-11-08T04:00:00	7	Dirección del viento	8.05
164887	7	Sololá	713	San Lucas Tolimán	10	San Lucas Tolimán	12	Diciembre	2023-12-14T00:00:00	2024-11-08T04:00:00	1	Precipitación	0
164888	7	Sololá	713	San Lucas Tolimán	10	San Lucas Tolimán	12	Diciembre	2023-12-14T00:00:00	2024-11-08T04:00:00	8	Radiación solar	0
164889	7	Sololá	713	San Lucas Tolimán	10	San Lucas Tolimán	12	Diciembre	2023-12-14T00:00:00	2024-11-08T05:00:00	2	Temperatura media	19.1
164890	7	Sololá	713	San Lucas Tolimán	10	San Lucas Tolimán	12	Diciembre	2023-12-14T00:00:00	2024-11-08T05:00:00	4	Temperatura máxima	19.5
164891	7	Sololá	713	San Lucas Tolimán	10	San Lucas Tolimán	12	Diciembre	2023-12-14T00:00:00	2024-11-08T05:00:00	3	Temperatura mínima	19
164892	7	Sololá	713	San Lucas Tolimán	10	San Lucas Tolimán	12	Diciembre	2023-12-14T00:00:00	2024-11-08T05:00:00	5	Humedad	54
164893	7	Sololá	713	San Lucas Tolimán	10	San Lucas Tolimán	12	Diciembre	2023-12-14T00:00:00	2024-11-08T05:00:00	6	Velocidad del viento	8
164894	7	Sololá	713	San Lucas Tolimán	10	San Lucas Tolimán	12	Diciembre	2023-12-14T00:00:00	2024-11-08T05:00:00	7	Dirección del viento	8.05
164895	7	Sololá	713	San Lucas Tolimán	10	San Lucas Tolimán	12	Diciembre	2023-12-14T00:00:00	2024-11-08T05:00:00	1	Precipitación	0
164896	7	Sololá	713	San Lucas Tolimán	10	San Lucas Tolimán	12	Diciembre	2023-12-14T00:00:00	2024-11-08T05:00:00	8	Radiación solar	0
164897	7	Sololá	713	San Lucas Tolimán	10	San Lucas Tolimán	12	Diciembre	2023-12-14T00:00:00	2024-11-08T06:00:00	2	Temperatura media	18.8
164898	7	Sololá	713	San Lucas Tolimán	10	San Lucas Tolimán	12	Diciembre	2023-12-14T00:00:00	2024-11-08T06:00:00	4	Temperatura máxima	19.4
164899	7	Sololá	713	San Lucas Tolimán	10	San Lucas Tolimán	12	Diciembre	2023-12-14T00:00:00	2024-11-08T06:00:00	3	Temperatura mínima	18.8
164900	7	Sololá	713	San Lucas Tolimán	10	San Lucas Tolimán	12	Diciembre	2023-12-14T00:00:00	2024-11-08T06:00:00	5	Humedad	55
164901	7	Sololá	713	San Lucas Tolimán	10	San Lucas Tolimán	12	Diciembre	2023-12-14T00:00:00	2024-11-08T06:00:00	6	Velocidad del viento	6.4
164902	7	Sololá	713	San Lucas Tolimán	10	San Lucas Tolimán	12	Diciembre	2023-12-14T00:00:00	2024-11-08T06:00:00	7	Dirección del viento	6.44
164903	7	Sololá	713	San Lucas Tolimán	10	San Lucas Tolimán	12	Diciembre	2023-12-14T00:00:00	2024-11-08T06:00:00	1	Precipitación	0
164904	7	Sololá	713	San Lucas Tolimán	10	San Lucas Tolimán	12	Diciembre	2023-12-14T00:00:00	2024-11-08T06:00:00	8	Radiación solar	0
164905	7	Sololá	713	San Lucas Tolimán	10	San Lucas Tolimán	12	Diciembre	2023-12-14T00:00:00	2024-11-08T07:00:00	2	Temperatura media	18.8
164906	7	Sololá	713	San Lucas Tolimán	10	San Lucas Tolimán	12	Diciembre	2023-12-14T00:00:00	2024-11-08T07:00:00	4	Temperatura máxima	19.4
164907	7	Sololá	713	San Lucas Tolimán	10	San Lucas Tolimán	12	Diciembre	2023-12-14T00:00:00	2024-11-08T07:00:00	3	Temperatura mínima	18.8
164908	7	Sololá	713	San Lucas Tolimán	10	San Lucas Tolimán	12	Diciembre	2023-12-14T00:00:00	2024-11-08T07:00:00	5	Humedad	54
164909	7	Sololá	713	San Lucas Tolimán	10	San Lucas Tolimán	12	Diciembre	2023-12-14T00:00:00	2024-11-08T07:00:00	6	Velocidad del viento	8
164910	7	Sololá	713	San Lucas Tolimán	10	San Lucas Tolimán	12	Diciembre	2023-12-14T00:00:00	2024-11-08T07:00:00	7	Dirección del viento	8.05
164911	7	Sololá	713	San Lucas Tolimán	10	San Lucas Tolimán	12	Diciembre	2023-12-14T00:00:00	2024-11-08T07:00:00	1	Precipitación	0
164912	7	Sololá	713	San Lucas Tolimán	10	San Lucas Tolimán	12	Diciembre	2023-12-14T00:00:00	2024-11-08T07:00:00	8	Radiación solar	5
164913	7	Sololá	713	San Lucas Tolimán	10	San Lucas Tolimán	12	Diciembre	2023-12-14T00:00:00	2024-11-08T08:00:00	2	Temperatura media	20.1
164914	7	Sololá	713	San Lucas Tolimán	10	San Lucas Tolimán	12	Diciembre	2023-12-14T00:00:00	2024-11-08T08:00:00	4	Temperatura máxima	20.2
164915	7	Sololá	713	San Lucas Tolimán	10	San Lucas Tolimán	12	Diciembre	2023-12-14T00:00:00	2024-11-08T08:00:00	3	Temperatura mínima	18.8
164916	7	Sololá	713	San Lucas Tolimán	10	San Lucas Tolimán	12	Diciembre	2023-12-14T00:00:00	2024-11-08T08:00:00	5	Humedad	53
164917	7	Sololá	713	San Lucas Tolimán	10	San Lucas Tolimán	12	Diciembre	2023-12-14T00:00:00	2024-11-08T08:00:00	6	Velocidad del viento	8
164918	7	Sololá	713	San Lucas Tolimán	10	San Lucas Tolimán	12	Diciembre	2023-12-14T00:00:00	2024-11-08T08:00:00	7	Dirección del viento	8.05
164919	7	Sololá	713	San Lucas Tolimán	10	San Lucas Tolimán	12	Diciembre	2023-12-14T00:00:00	2024-11-08T08:00:00	1	Precipitación	0
164920	7	Sololá	713	San Lucas Tolimán	10	San Lucas Tolimán	12	Diciembre	2023-12-14T00:00:00	2024-11-08T08:00:00	8	Radiación solar	20
164921	7	Sololá	713	San Lucas Tolimán	10	San Lucas Tolimán	12	Diciembre	2023-12-14T00:00:00	2024-11-08T09:00:00	2	Temperatura media	22.7
164922	7	Sololá	713	San Lucas Tolimán	10	San Lucas Tolimán	12	Diciembre	2023-12-14T00:00:00	2024-11-08T09:00:00	4	Temperatura máxima	22.7
164923	7	Sololá	713	San Lucas Tolimán	10	San Lucas Tolimán	12	Diciembre	2023-12-14T00:00:00	2024-11-08T09:00:00	3	Temperatura mínima	19.6
164924	7	Sololá	713	San Lucas Tolimán	10	San Lucas Tolimán	12	Diciembre	2023-12-14T00:00:00	2024-11-08T09:00:00	5	Humedad	45
164925	7	Sololá	713	San Lucas Tolimán	10	San Lucas Tolimán	12	Diciembre	2023-12-14T00:00:00	2024-11-08T09:00:00	6	Velocidad del viento	8
164926	7	Sololá	713	San Lucas Tolimán	10	San Lucas Tolimán	12	Diciembre	2023-12-14T00:00:00	2024-11-08T09:00:00	7	Dirección del viento	8.05
164927	7	Sololá	713	San Lucas Tolimán	10	San Lucas Tolimán	12	Diciembre	2023-12-14T00:00:00	2024-11-08T09:00:00	1	Precipitación	0
164928	7	Sololá	713	San Lucas Tolimán	10	San Lucas Tolimán	12	Diciembre	2023-12-14T00:00:00	2024-11-08T09:00:00	8	Radiación solar	315
164929	7	Sololá	713	San Lucas Tolimán	10	San Lucas Tolimán	12	Diciembre	2023-12-14T00:00:00	2024-11-08T10:00:00	2	Temperatura media	24.1
164930	7	Sololá	713	San Lucas Tolimán	10	San Lucas Tolimán	12	Diciembre	2023-12-14T00:00:00	2024-11-08T10:00:00	4	Temperatura máxima	24.1
164931	7	Sololá	713	San Lucas Tolimán	10	San Lucas Tolimán	12	Diciembre	2023-12-14T00:00:00	2024-11-08T10:00:00	3	Temperatura mínima	22.7
164932	7	Sololá	713	San Lucas Tolimán	10	San Lucas Tolimán	12	Diciembre	2023-12-14T00:00:00	2024-11-08T10:00:00	5	Humedad	42
164933	7	Sololá	713	San Lucas Tolimán	10	San Lucas Tolimán	12	Diciembre	2023-12-14T00:00:00	2024-11-08T10:00:00	6	Velocidad del viento	9.7
164934	7	Sololá	713	San Lucas Tolimán	10	San Lucas Tolimán	12	Diciembre	2023-12-14T00:00:00	2024-11-08T10:00:00	7	Dirección del viento	9.66
164935	7	Sololá	713	San Lucas Tolimán	10	San Lucas Tolimán	12	Diciembre	2023-12-14T00:00:00	2024-11-08T10:00:00	1	Precipitación	0
164936	7	Sololá	713	San Lucas Tolimán	10	San Lucas Tolimán	12	Diciembre	2023-12-14T00:00:00	2024-11-08T10:00:00	8	Radiación solar	593
164937	7	Sololá	713	San Lucas Tolimán	10	San Lucas Tolimán	12	Diciembre	2023-12-14T00:00:00	2024-11-08T11:00:00	2	Temperatura media	24.6
164938	7	Sololá	713	San Lucas Tolimán	10	San Lucas Tolimán	12	Diciembre	2023-12-14T00:00:00	2024-11-08T11:00:00	4	Temperatura máxima	24.7
164939	7	Sololá	713	San Lucas Tolimán	10	San Lucas Tolimán	12	Diciembre	2023-12-14T00:00:00	2024-11-08T11:00:00	3	Temperatura mínima	24.1
164940	7	Sololá	713	San Lucas Tolimán	10	San Lucas Tolimán	12	Diciembre	2023-12-14T00:00:00	2024-11-08T11:00:00	5	Humedad	42
164941	7	Sololá	713	San Lucas Tolimán	10	San Lucas Tolimán	12	Diciembre	2023-12-14T00:00:00	2024-11-08T11:00:00	6	Velocidad del viento	11.3
164942	7	Sololá	713	San Lucas Tolimán	10	San Lucas Tolimán	12	Diciembre	2023-12-14T00:00:00	2024-11-08T11:00:00	7	Dirección del viento	11.27
164943	7	Sololá	713	San Lucas Tolimán	10	San Lucas Tolimán	12	Diciembre	2023-12-14T00:00:00	2024-11-08T11:00:00	1	Precipitación	0
164944	7	Sololá	713	San Lucas Tolimán	10	San Lucas Tolimán	12	Diciembre	2023-12-14T00:00:00	2024-11-08T11:00:00	8	Radiación solar	739
164945	7	Sololá	713	San Lucas Tolimán	10	San Lucas Tolimán	12	Diciembre	2023-12-14T00:00:00	2024-11-08T12:00:00	2	Temperatura media	25.3
164946	7	Sololá	713	San Lucas Tolimán	10	San Lucas Tolimán	12	Diciembre	2023-12-14T00:00:00	2024-11-08T12:00:00	4	Temperatura máxima	25.3
164947	7	Sololá	713	San Lucas Tolimán	10	San Lucas Tolimán	12	Diciembre	2023-12-14T00:00:00	2024-11-08T12:00:00	3	Temperatura mínima	24.4
164948	7	Sololá	713	San Lucas Tolimán	10	San Lucas Tolimán	12	Diciembre	2023-12-14T00:00:00	2024-11-08T12:00:00	5	Humedad	40
164949	7	Sololá	713	San Lucas Tolimán	10	San Lucas Tolimán	12	Diciembre	2023-12-14T00:00:00	2024-11-08T12:00:00	6	Velocidad del viento	12.9
164950	7	Sololá	713	San Lucas Tolimán	10	San Lucas Tolimán	12	Diciembre	2023-12-14T00:00:00	2024-11-08T12:00:00	7	Dirección del viento	12.87
164951	7	Sololá	713	San Lucas Tolimán	10	San Lucas Tolimán	12	Diciembre	2023-12-14T00:00:00	2024-11-08T12:00:00	1	Precipitación	0
164952	7	Sololá	713	San Lucas Tolimán	10	San Lucas Tolimán	12	Diciembre	2023-12-14T00:00:00	2024-11-08T12:00:00	8	Radiación solar	829
164953	7	Sololá	713	San Lucas Tolimán	10	San Lucas Tolimán	12	Diciembre	2023-12-14T00:00:00	2024-11-08T13:00:00	2	Temperatura media	24.7
164954	7	Sololá	713	San Lucas Tolimán	10	San Lucas Tolimán	12	Diciembre	2023-12-14T00:00:00	2024-11-08T13:00:00	4	Temperatura máxima	25.4
164955	7	Sololá	713	San Lucas Tolimán	10	San Lucas Tolimán	12	Diciembre	2023-12-14T00:00:00	2024-11-08T13:00:00	3	Temperatura mínima	24.7
164956	7	Sololá	713	San Lucas Tolimán	10	San Lucas Tolimán	12	Diciembre	2023-12-14T00:00:00	2024-11-08T13:00:00	5	Humedad	42
164957	7	Sololá	713	San Lucas Tolimán	10	San Lucas Tolimán	12	Diciembre	2023-12-14T00:00:00	2024-11-08T13:00:00	6	Velocidad del viento	9.7
164958	7	Sololá	713	San Lucas Tolimán	10	San Lucas Tolimán	12	Diciembre	2023-12-14T00:00:00	2024-11-08T13:00:00	7	Dirección del viento	9.66
164959	7	Sololá	713	San Lucas Tolimán	10	San Lucas Tolimán	12	Diciembre	2023-12-14T00:00:00	2024-11-08T13:00:00	1	Precipitación	0
164960	7	Sololá	713	San Lucas Tolimán	10	San Lucas Tolimán	12	Diciembre	2023-12-14T00:00:00	2024-11-08T13:00:00	8	Radiación solar	614
164961	7	Sololá	713	San Lucas Tolimán	10	San Lucas Tolimán	12	Diciembre	2023-12-14T00:00:00	2024-11-08T14:00:00	2	Temperatura media	24.6
164962	7	Sololá	713	San Lucas Tolimán	10	San Lucas Tolimán	12	Diciembre	2023-12-14T00:00:00	2024-11-08T14:00:00	4	Temperatura máxima	25.2
164963	7	Sololá	713	San Lucas Tolimán	10	San Lucas Tolimán	12	Diciembre	2023-12-14T00:00:00	2024-11-08T14:00:00	3	Temperatura mínima	24.6
164964	7	Sololá	713	San Lucas Tolimán	10	San Lucas Tolimán	12	Diciembre	2023-12-14T00:00:00	2024-11-08T14:00:00	5	Humedad	41
164965	7	Sololá	713	San Lucas Tolimán	10	San Lucas Tolimán	12	Diciembre	2023-12-14T00:00:00	2024-11-08T14:00:00	6	Velocidad del viento	6.4
164966	7	Sololá	713	San Lucas Tolimán	10	San Lucas Tolimán	12	Diciembre	2023-12-14T00:00:00	2024-11-08T14:00:00	7	Dirección del viento	6.44
164967	7	Sololá	713	San Lucas Tolimán	10	San Lucas Tolimán	12	Diciembre	2023-12-14T00:00:00	2024-11-08T14:00:00	1	Precipitación	0
164968	7	Sololá	713	San Lucas Tolimán	10	San Lucas Tolimán	12	Diciembre	2023-12-14T00:00:00	2024-11-08T14:00:00	8	Radiación solar	257
164969	7	Sololá	713	San Lucas Tolimán	10	San Lucas Tolimán	12	Diciembre	2023-12-14T00:00:00	2024-11-08T15:00:00	2	Temperatura media	23.9
164970	7	Sololá	713	San Lucas Tolimán	10	San Lucas Tolimán	12	Diciembre	2023-12-14T00:00:00	2024-11-08T15:00:00	4	Temperatura máxima	24.7
164971	7	Sololá	713	San Lucas Tolimán	10	San Lucas Tolimán	12	Diciembre	2023-12-14T00:00:00	2024-11-08T15:00:00	3	Temperatura mínima	23.9
164972	7	Sololá	713	San Lucas Tolimán	10	San Lucas Tolimán	12	Diciembre	2023-12-14T00:00:00	2024-11-08T15:00:00	5	Humedad	58
164973	7	Sololá	713	San Lucas Tolimán	10	San Lucas Tolimán	12	Diciembre	2023-12-14T00:00:00	2024-11-08T15:00:00	6	Velocidad del viento	8
164974	7	Sololá	713	San Lucas Tolimán	10	San Lucas Tolimán	12	Diciembre	2023-12-14T00:00:00	2024-11-08T15:00:00	7	Dirección del viento	8.05
164975	7	Sololá	713	San Lucas Tolimán	10	San Lucas Tolimán	12	Diciembre	2023-12-14T00:00:00	2024-11-08T15:00:00	1	Precipitación	0
164976	7	Sololá	713	San Lucas Tolimán	10	San Lucas Tolimán	12	Diciembre	2023-12-14T00:00:00	2024-11-08T15:00:00	8	Radiación solar	268
164977	7	Sololá	713	San Lucas Tolimán	10	San Lucas Tolimán	12	Diciembre	2023-12-14T00:00:00	2024-11-08T16:00:00	2	Temperatura media	22.3
164978	7	Sololá	713	San Lucas Tolimán	10	San Lucas Tolimán	12	Diciembre	2023-12-14T00:00:00	2024-11-08T16:00:00	4	Temperatura máxima	24
164979	7	Sololá	713	San Lucas Tolimán	10	San Lucas Tolimán	12	Diciembre	2023-12-14T00:00:00	2024-11-08T16:00:00	3	Temperatura mínima	22.3
164980	7	Sololá	713	San Lucas Tolimán	10	San Lucas Tolimán	12	Diciembre	2023-12-14T00:00:00	2024-11-08T16:00:00	5	Humedad	62
164981	7	Sololá	713	San Lucas Tolimán	10	San Lucas Tolimán	12	Diciembre	2023-12-14T00:00:00	2024-11-08T16:00:00	6	Velocidad del viento	8
164982	7	Sololá	713	San Lucas Tolimán	10	San Lucas Tolimán	12	Diciembre	2023-12-14T00:00:00	2024-11-08T16:00:00	7	Dirección del viento	8.05
164983	7	Sololá	713	San Lucas Tolimán	10	San Lucas Tolimán	12	Diciembre	2023-12-14T00:00:00	2024-11-08T16:00:00	1	Precipitación	0
164984	7	Sololá	713	San Lucas Tolimán	10	San Lucas Tolimán	12	Diciembre	2023-12-14T00:00:00	2024-11-08T16:00:00	8	Radiación solar	213
164985	7	Sololá	713	San Lucas Tolimán	10	San Lucas Tolimán	12	Diciembre	2023-12-14T00:00:00	2024-11-08T17:00:00	2	Temperatura media	21.7
164986	7	Sololá	713	San Lucas Tolimán	10	San Lucas Tolimán	12	Diciembre	2023-12-14T00:00:00	2024-11-08T17:00:00	4	Temperatura máxima	22.7
164987	7	Sololá	713	San Lucas Tolimán	10	San Lucas Tolimán	12	Diciembre	2023-12-14T00:00:00	2024-11-08T17:00:00	3	Temperatura mínima	21.6
164988	7	Sololá	713	San Lucas Tolimán	10	San Lucas Tolimán	12	Diciembre	2023-12-14T00:00:00	2024-11-08T17:00:00	5	Humedad	59
164989	7	Sololá	713	San Lucas Tolimán	10	San Lucas Tolimán	12	Diciembre	2023-12-14T00:00:00	2024-11-08T17:00:00	6	Velocidad del viento	6.4
164990	7	Sololá	713	San Lucas Tolimán	10	San Lucas Tolimán	12	Diciembre	2023-12-14T00:00:00	2024-11-08T17:00:00	7	Dirección del viento	6.44
164991	7	Sololá	713	San Lucas Tolimán	10	San Lucas Tolimán	12	Diciembre	2023-12-14T00:00:00	2024-11-08T17:00:00	1	Precipitación	0
164992	7	Sololá	713	San Lucas Tolimán	10	San Lucas Tolimán	12	Diciembre	2023-12-14T00:00:00	2024-11-08T17:00:00	8	Radiación solar	109
164993	7	Sololá	713	San Lucas Tolimán	10	San Lucas Tolimán	12	Diciembre	2023-12-14T00:00:00	2024-11-08T18:00:00	2	Temperatura media	21.1
164994	7	Sololá	713	San Lucas Tolimán	10	San Lucas Tolimán	12	Diciembre	2023-12-14T00:00:00	2024-11-08T18:00:00	4	Temperatura máxima	21.9
164995	7	Sololá	713	San Lucas Tolimán	10	San Lucas Tolimán	12	Diciembre	2023-12-14T00:00:00	2024-11-08T18:00:00	3	Temperatura mínima	21.1
164996	7	Sololá	713	San Lucas Tolimán	10	San Lucas Tolimán	12	Diciembre	2023-12-14T00:00:00	2024-11-08T18:00:00	5	Humedad	52
164997	7	Sololá	713	San Lucas Tolimán	10	San Lucas Tolimán	12	Diciembre	2023-12-14T00:00:00	2024-11-08T18:00:00	6	Velocidad del viento	9.7
164998	7	Sololá	713	San Lucas Tolimán	10	San Lucas Tolimán	12	Diciembre	2023-12-14T00:00:00	2024-11-08T18:00:00	7	Dirección del viento	9.66
164999	7	Sololá	713	San Lucas Tolimán	10	San Lucas Tolimán	12	Diciembre	2023-12-14T00:00:00	2024-11-08T18:00:00	1	Precipitación	0
165000	7	Sololá	713	San Lucas Tolimán	10	San Lucas Tolimán	12	Diciembre	2023-12-14T00:00:00	2024-11-08T18:00:00	8	Radiación solar	8
165001	7	Sololá	713	San Lucas Tolimán	10	San Lucas Tolimán	12	Diciembre	2023-12-14T00:00:00	2024-11-08T19:00:00	2	Temperatura media	20
165002	7	Sololá	713	San Lucas Tolimán	10	San Lucas Tolimán	12	Diciembre	2023-12-14T00:00:00	2024-11-08T19:00:00	4	Temperatura máxima	21.1
165003	7	Sololá	713	San Lucas Tolimán	10	San Lucas Tolimán	12	Diciembre	2023-12-14T00:00:00	2024-11-08T19:00:00	3	Temperatura mínima	20
165004	7	Sololá	713	San Lucas Tolimán	10	San Lucas Tolimán	12	Diciembre	2023-12-14T00:00:00	2024-11-08T19:00:00	5	Humedad	54
165005	7	Sololá	713	San Lucas Tolimán	10	San Lucas Tolimán	12	Diciembre	2023-12-14T00:00:00	2024-11-08T19:00:00	6	Velocidad del viento	3.2
165006	7	Sololá	713	San Lucas Tolimán	10	San Lucas Tolimán	12	Diciembre	2023-12-14T00:00:00	2024-11-08T19:00:00	7	Dirección del viento	3.22
165007	7	Sololá	713	San Lucas Tolimán	10	San Lucas Tolimán	12	Diciembre	2023-12-14T00:00:00	2024-11-08T19:00:00	1	Precipitación	0
165008	7	Sololá	713	San Lucas Tolimán	10	San Lucas Tolimán	12	Diciembre	2023-12-14T00:00:00	2024-11-08T19:00:00	8	Radiación solar	0
165009	7	Sololá	713	San Lucas Tolimán	10	San Lucas Tolimán	12	Diciembre	2023-12-14T00:00:00	2024-11-08T20:00:00	2	Temperatura media	19.4
165010	7	Sololá	713	San Lucas Tolimán	10	San Lucas Tolimán	12	Diciembre	2023-12-14T00:00:00	2024-11-08T20:00:00	4	Temperatura máxima	20.1
165011	7	Sololá	713	San Lucas Tolimán	10	San Lucas Tolimán	12	Diciembre	2023-12-14T00:00:00	2024-11-08T20:00:00	3	Temperatura mínima	19.3
165012	7	Sololá	713	San Lucas Tolimán	10	San Lucas Tolimán	12	Diciembre	2023-12-14T00:00:00	2024-11-08T20:00:00	5	Humedad	55
165013	7	Sololá	713	San Lucas Tolimán	10	San Lucas Tolimán	12	Diciembre	2023-12-14T00:00:00	2024-11-08T20:00:00	6	Velocidad del viento	1.6
165014	7	Sololá	713	San Lucas Tolimán	10	San Lucas Tolimán	12	Diciembre	2023-12-14T00:00:00	2024-11-08T20:00:00	7	Dirección del viento	1.61
165015	7	Sololá	713	San Lucas Tolimán	10	San Lucas Tolimán	12	Diciembre	2023-12-14T00:00:00	2024-11-08T20:00:00	1	Precipitación	0
165016	7	Sololá	713	San Lucas Tolimán	10	San Lucas Tolimán	12	Diciembre	2023-12-14T00:00:00	2024-11-08T20:00:00	8	Radiación solar	0
165017	7	Sololá	713	San Lucas Tolimán	10	San Lucas Tolimán	12	Diciembre	2023-12-14T00:00:00	2024-11-08T21:00:00	2	Temperatura media	19.3
165018	7	Sololá	713	San Lucas Tolimán	10	San Lucas Tolimán	12	Diciembre	2023-12-14T00:00:00	2024-11-08T21:00:00	4	Temperatura máxima	19.6
165019	7	Sololá	713	San Lucas Tolimán	10	San Lucas Tolimán	12	Diciembre	2023-12-14T00:00:00	2024-11-08T21:00:00	3	Temperatura mínima	19.2
165020	7	Sololá	713	San Lucas Tolimán	10	San Lucas Tolimán	12	Diciembre	2023-12-14T00:00:00	2024-11-08T21:00:00	5	Humedad	56
165021	7	Sololá	713	San Lucas Tolimán	10	San Lucas Tolimán	12	Diciembre	2023-12-14T00:00:00	2024-11-08T21:00:00	6	Velocidad del viento	3.2
165022	7	Sololá	713	San Lucas Tolimán	10	San Lucas Tolimán	12	Diciembre	2023-12-14T00:00:00	2024-11-08T21:00:00	7	Dirección del viento	3.22
165023	7	Sololá	713	San Lucas Tolimán	10	San Lucas Tolimán	12	Diciembre	2023-12-14T00:00:00	2024-11-08T21:00:00	1	Precipitación	0
165024	7	Sololá	713	San Lucas Tolimán	10	San Lucas Tolimán	12	Diciembre	2023-12-14T00:00:00	2024-11-08T21:00:00	8	Radiación solar	0
165025	7	Sololá	713	San Lucas Tolimán	10	San Lucas Tolimán	12	Diciembre	2023-12-14T00:00:00	2024-11-08T22:00:00	2	Temperatura media	18.7
165026	7	Sololá	713	San Lucas Tolimán	10	San Lucas Tolimán	12	Diciembre	2023-12-14T00:00:00	2024-11-08T22:00:00	4	Temperatura máxima	19.3
165027	7	Sololá	713	San Lucas Tolimán	10	San Lucas Tolimán	12	Diciembre	2023-12-14T00:00:00	2024-11-08T22:00:00	3	Temperatura mínima	18.7
165028	7	Sololá	713	San Lucas Tolimán	10	San Lucas Tolimán	12	Diciembre	2023-12-14T00:00:00	2024-11-08T22:00:00	5	Humedad	57
165029	7	Sololá	713	San Lucas Tolimán	10	San Lucas Tolimán	12	Diciembre	2023-12-14T00:00:00	2024-11-08T22:00:00	6	Velocidad del viento	4.8
165030	7	Sololá	713	San Lucas Tolimán	10	San Lucas Tolimán	12	Diciembre	2023-12-14T00:00:00	2024-11-08T22:00:00	7	Dirección del viento	4.83
165031	7	Sololá	713	San Lucas Tolimán	10	San Lucas Tolimán	12	Diciembre	2023-12-14T00:00:00	2024-11-08T22:00:00	1	Precipitación	0
165032	7	Sololá	713	San Lucas Tolimán	10	San Lucas Tolimán	12	Diciembre	2023-12-14T00:00:00	2024-11-08T22:00:00	8	Radiación solar	0
165033	7	Sololá	713	San Lucas Tolimán	10	San Lucas Tolimán	12	Diciembre	2023-12-14T00:00:00	2024-11-08T23:00:00	2	Temperatura media	17.9
165034	7	Sololá	713	San Lucas Tolimán	10	San Lucas Tolimán	12	Diciembre	2023-12-14T00:00:00	2024-11-08T23:00:00	4	Temperatura máxima	18.7
165035	7	Sololá	713	San Lucas Tolimán	10	San Lucas Tolimán	12	Diciembre	2023-12-14T00:00:00	2024-11-08T23:00:00	3	Temperatura mínima	17.9
165036	7	Sololá	713	San Lucas Tolimán	10	San Lucas Tolimán	12	Diciembre	2023-12-14T00:00:00	2024-11-08T23:00:00	5	Humedad	58
165037	7	Sololá	713	San Lucas Tolimán	10	San Lucas Tolimán	12	Diciembre	2023-12-14T00:00:00	2024-11-08T23:00:00	6	Velocidad del viento	3.2
165038	7	Sololá	713	San Lucas Tolimán	10	San Lucas Tolimán	12	Diciembre	2023-12-14T00:00:00	2024-11-08T23:00:00	7	Dirección del viento	3.22
165039	7	Sololá	713	San Lucas Tolimán	10	San Lucas Tolimán	12	Diciembre	2023-12-14T00:00:00	2024-11-08T23:00:00	1	Precipitación	0
165040	7	Sololá	713	San Lucas Tolimán	10	San Lucas Tolimán	12	Diciembre	2023-12-14T00:00:00	2024-11-08T23:00:00	8	Radiación solar	0
165041	7	Sololá	713	San Lucas Tolimán	10	San Lucas Tolimán	12	Diciembre	2023-12-15T00:00:00	2024-11-08T00:00:00	2	Temperatura media	17.3
165042	7	Sololá	713	San Lucas Tolimán	10	San Lucas Tolimán	12	Diciembre	2023-12-15T00:00:00	2024-11-08T00:00:00	4	Temperatura máxima	18
165043	7	Sololá	713	San Lucas Tolimán	10	San Lucas Tolimán	12	Diciembre	2023-12-15T00:00:00	2024-11-08T00:00:00	3	Temperatura mínima	17.3
165044	7	Sololá	713	San Lucas Tolimán	10	San Lucas Tolimán	12	Diciembre	2023-12-15T00:00:00	2024-11-08T00:00:00	5	Humedad	58
165045	7	Sololá	713	San Lucas Tolimán	10	San Lucas Tolimán	12	Diciembre	2023-12-15T00:00:00	2024-11-08T00:00:00	6	Velocidad del viento	1.6
165046	7	Sololá	713	San Lucas Tolimán	10	San Lucas Tolimán	12	Diciembre	2023-12-15T00:00:00	2024-11-08T00:00:00	7	Dirección del viento	1.61
165047	7	Sololá	713	San Lucas Tolimán	10	San Lucas Tolimán	12	Diciembre	2023-12-15T00:00:00	2024-11-08T00:00:00	1	Precipitación	0
165048	7	Sololá	713	San Lucas Tolimán	10	San Lucas Tolimán	12	Diciembre	2023-12-15T00:00:00	2024-11-08T00:00:00	8	Radiación solar	0
165049	7	Sololá	713	San Lucas Tolimán	10	San Lucas Tolimán	12	Diciembre	2023-12-15T00:00:00	2024-11-08T01:00:00	2	Temperatura media	16.7
165050	7	Sololá	713	San Lucas Tolimán	10	San Lucas Tolimán	12	Diciembre	2023-12-15T00:00:00	2024-11-08T01:00:00	4	Temperatura máxima	17.3
165051	7	Sololá	713	San Lucas Tolimán	10	San Lucas Tolimán	12	Diciembre	2023-12-15T00:00:00	2024-11-08T01:00:00	3	Temperatura mínima	16.6
165052	7	Sololá	713	San Lucas Tolimán	10	San Lucas Tolimán	12	Diciembre	2023-12-15T00:00:00	2024-11-08T01:00:00	5	Humedad	57
165053	7	Sololá	713	San Lucas Tolimán	10	San Lucas Tolimán	12	Diciembre	2023-12-15T00:00:00	2024-11-08T01:00:00	6	Velocidad del viento	1.6
165054	7	Sololá	713	San Lucas Tolimán	10	San Lucas Tolimán	12	Diciembre	2023-12-15T00:00:00	2024-11-08T01:00:00	7	Dirección del viento	1.61
165055	7	Sololá	713	San Lucas Tolimán	10	San Lucas Tolimán	12	Diciembre	2023-12-15T00:00:00	2024-11-08T01:00:00	1	Precipitación	0
165056	7	Sololá	713	San Lucas Tolimán	10	San Lucas Tolimán	12	Diciembre	2023-12-15T00:00:00	2024-11-08T01:00:00	8	Radiación solar	0
165057	7	Sololá	713	San Lucas Tolimán	10	San Lucas Tolimán	12	Diciembre	2023-12-15T00:00:00	2024-11-08T02:00:00	2	Temperatura media	17.1
165058	7	Sololá	713	San Lucas Tolimán	10	San Lucas Tolimán	12	Diciembre	2023-12-15T00:00:00	2024-11-08T02:00:00	4	Temperatura máxima	17.3
165059	7	Sololá	713	San Lucas Tolimán	10	San Lucas Tolimán	12	Diciembre	2023-12-15T00:00:00	2024-11-08T02:00:00	3	Temperatura mínima	16.4
165060	7	Sololá	713	San Lucas Tolimán	10	San Lucas Tolimán	12	Diciembre	2023-12-15T00:00:00	2024-11-08T02:00:00	5	Humedad	57
165061	7	Sololá	713	San Lucas Tolimán	10	San Lucas Tolimán	12	Diciembre	2023-12-15T00:00:00	2024-11-08T02:00:00	6	Velocidad del viento	3.2
165062	7	Sololá	713	San Lucas Tolimán	10	San Lucas Tolimán	12	Diciembre	2023-12-15T00:00:00	2024-11-08T02:00:00	7	Dirección del viento	3.22
165063	7	Sololá	713	San Lucas Tolimán	10	San Lucas Tolimán	12	Diciembre	2023-12-15T00:00:00	2024-11-08T02:00:00	1	Precipitación	0
165064	7	Sololá	713	San Lucas Tolimán	10	San Lucas Tolimán	12	Diciembre	2023-12-15T00:00:00	2024-11-08T02:00:00	8	Radiación solar	0
165065	7	Sololá	713	San Lucas Tolimán	10	San Lucas Tolimán	12	Diciembre	2023-12-15T00:00:00	2024-11-08T03:00:00	2	Temperatura media	17.1
165066	7	Sololá	713	San Lucas Tolimán	10	San Lucas Tolimán	12	Diciembre	2023-12-15T00:00:00	2024-11-08T03:00:00	4	Temperatura máxima	17.3
165067	7	Sololá	713	San Lucas Tolimán	10	San Lucas Tolimán	12	Diciembre	2023-12-15T00:00:00	2024-11-08T03:00:00	3	Temperatura mínima	16.9
165068	7	Sololá	713	San Lucas Tolimán	10	San Lucas Tolimán	12	Diciembre	2023-12-15T00:00:00	2024-11-08T03:00:00	5	Humedad	58
165069	7	Sololá	713	San Lucas Tolimán	10	San Lucas Tolimán	12	Diciembre	2023-12-15T00:00:00	2024-11-08T03:00:00	6	Velocidad del viento	3.2
165070	7	Sololá	713	San Lucas Tolimán	10	San Lucas Tolimán	12	Diciembre	2023-12-15T00:00:00	2024-11-08T03:00:00	7	Dirección del viento	3.22
165071	7	Sololá	713	San Lucas Tolimán	10	San Lucas Tolimán	12	Diciembre	2023-12-15T00:00:00	2024-11-08T03:00:00	1	Precipitación	0
165072	7	Sololá	713	San Lucas Tolimán	10	San Lucas Tolimán	12	Diciembre	2023-12-15T00:00:00	2024-11-08T03:00:00	8	Radiación solar	0
165073	7	Sololá	713	San Lucas Tolimán	10	San Lucas Tolimán	12	Diciembre	2023-12-15T00:00:00	2024-11-08T04:00:00	2	Temperatura media	16.8
165074	7	Sololá	713	San Lucas Tolimán	10	San Lucas Tolimán	12	Diciembre	2023-12-15T00:00:00	2024-11-08T04:00:00	4	Temperatura máxima	17.1
165075	7	Sololá	713	San Lucas Tolimán	10	San Lucas Tolimán	12	Diciembre	2023-12-15T00:00:00	2024-11-08T04:00:00	3	Temperatura mínima	16.4
165076	7	Sololá	713	San Lucas Tolimán	10	San Lucas Tolimán	12	Diciembre	2023-12-15T00:00:00	2024-11-08T04:00:00	5	Humedad	59
165077	7	Sololá	713	San Lucas Tolimán	10	San Lucas Tolimán	12	Diciembre	2023-12-15T00:00:00	2024-11-08T04:00:00	6	Velocidad del viento	1.6
165078	7	Sololá	713	San Lucas Tolimán	10	San Lucas Tolimán	12	Diciembre	2023-12-15T00:00:00	2024-11-08T04:00:00	7	Dirección del viento	1.61
165079	7	Sololá	713	San Lucas Tolimán	10	San Lucas Tolimán	12	Diciembre	2023-12-15T00:00:00	2024-11-08T04:00:00	1	Precipitación	0
165080	7	Sololá	713	San Lucas Tolimán	10	San Lucas Tolimán	12	Diciembre	2023-12-15T00:00:00	2024-11-08T04:00:00	8	Radiación solar	0
165081	7	Sololá	713	San Lucas Tolimán	10	San Lucas Tolimán	12	Diciembre	2023-12-15T00:00:00	2024-11-08T05:00:00	2	Temperatura media	16.3
165082	7	Sololá	713	San Lucas Tolimán	10	San Lucas Tolimán	12	Diciembre	2023-12-15T00:00:00	2024-11-08T05:00:00	4	Temperatura máxima	16.8
165083	7	Sololá	713	San Lucas Tolimán	10	San Lucas Tolimán	12	Diciembre	2023-12-15T00:00:00	2024-11-08T05:00:00	3	Temperatura mínima	16.3
165084	7	Sololá	713	San Lucas Tolimán	10	San Lucas Tolimán	12	Diciembre	2023-12-15T00:00:00	2024-11-08T05:00:00	5	Humedad	61
165085	7	Sololá	713	San Lucas Tolimán	10	San Lucas Tolimán	12	Diciembre	2023-12-15T00:00:00	2024-11-08T05:00:00	6	Velocidad del viento	3.2
165086	7	Sololá	713	San Lucas Tolimán	10	San Lucas Tolimán	12	Diciembre	2023-12-15T00:00:00	2024-11-08T05:00:00	7	Dirección del viento	3.22
165087	7	Sololá	713	San Lucas Tolimán	10	San Lucas Tolimán	12	Diciembre	2023-12-15T00:00:00	2024-11-08T05:00:00	1	Precipitación	0
165088	7	Sololá	713	San Lucas Tolimán	10	San Lucas Tolimán	12	Diciembre	2023-12-15T00:00:00	2024-11-08T05:00:00	8	Radiación solar	0
165089	7	Sololá	713	San Lucas Tolimán	10	San Lucas Tolimán	12	Diciembre	2023-12-15T00:00:00	2024-11-08T06:00:00	2	Temperatura media	17
165090	7	Sololá	713	San Lucas Tolimán	10	San Lucas Tolimán	12	Diciembre	2023-12-15T00:00:00	2024-11-08T06:00:00	4	Temperatura máxima	17.1
165091	7	Sololá	713	San Lucas Tolimán	10	San Lucas Tolimán	12	Diciembre	2023-12-15T00:00:00	2024-11-08T06:00:00	3	Temperatura mínima	16.3
165092	7	Sololá	713	San Lucas Tolimán	10	San Lucas Tolimán	12	Diciembre	2023-12-15T00:00:00	2024-11-08T06:00:00	5	Humedad	59
165093	7	Sololá	713	San Lucas Tolimán	10	San Lucas Tolimán	12	Diciembre	2023-12-15T00:00:00	2024-11-08T06:00:00	6	Velocidad del viento	3.2
165094	7	Sololá	713	San Lucas Tolimán	10	San Lucas Tolimán	12	Diciembre	2023-12-15T00:00:00	2024-11-08T06:00:00	7	Dirección del viento	3.22
165095	7	Sololá	713	San Lucas Tolimán	10	San Lucas Tolimán	12	Diciembre	2023-12-15T00:00:00	2024-11-08T06:00:00	1	Precipitación	0
165096	7	Sololá	713	San Lucas Tolimán	10	San Lucas Tolimán	12	Diciembre	2023-12-15T00:00:00	2024-11-08T06:00:00	8	Radiación solar	0
165097	7	Sololá	713	San Lucas Tolimán	10	San Lucas Tolimán	12	Diciembre	2023-12-15T00:00:00	2024-11-08T07:00:00	2	Temperatura media	17.6
165098	7	Sololá	713	San Lucas Tolimán	10	San Lucas Tolimán	12	Diciembre	2023-12-15T00:00:00	2024-11-08T07:00:00	4	Temperatura máxima	17.6
165099	7	Sololá	713	San Lucas Tolimán	10	San Lucas Tolimán	12	Diciembre	2023-12-15T00:00:00	2024-11-08T07:00:00	3	Temperatura mínima	16.9
165100	7	Sololá	713	San Lucas Tolimán	10	San Lucas Tolimán	12	Diciembre	2023-12-15T00:00:00	2024-11-08T07:00:00	5	Humedad	59
165101	7	Sololá	713	San Lucas Tolimán	10	San Lucas Tolimán	12	Diciembre	2023-12-15T00:00:00	2024-11-08T07:00:00	6	Velocidad del viento	3.2
165102	7	Sololá	713	San Lucas Tolimán	10	San Lucas Tolimán	12	Diciembre	2023-12-15T00:00:00	2024-11-08T07:00:00	7	Dirección del viento	3.22
165103	7	Sololá	713	San Lucas Tolimán	10	San Lucas Tolimán	12	Diciembre	2023-12-15T00:00:00	2024-11-08T07:00:00	1	Precipitación	0
165104	7	Sololá	713	San Lucas Tolimán	10	San Lucas Tolimán	12	Diciembre	2023-12-15T00:00:00	2024-11-08T07:00:00	8	Radiación solar	18
165105	7	Sololá	713	San Lucas Tolimán	10	San Lucas Tolimán	12	Diciembre	2023-12-15T00:00:00	2024-11-08T08:00:00	2	Temperatura media	18.2
165106	7	Sololá	713	San Lucas Tolimán	10	San Lucas Tolimán	12	Diciembre	2023-12-15T00:00:00	2024-11-08T08:00:00	4	Temperatura máxima	18.2
165107	7	Sololá	713	San Lucas Tolimán	10	San Lucas Tolimán	12	Diciembre	2023-12-15T00:00:00	2024-11-08T08:00:00	3	Temperatura mínima	17.4
165108	7	Sololá	713	San Lucas Tolimán	10	San Lucas Tolimán	12	Diciembre	2023-12-15T00:00:00	2024-11-08T08:00:00	5	Humedad	57
165109	7	Sololá	713	San Lucas Tolimán	10	San Lucas Tolimán	12	Diciembre	2023-12-15T00:00:00	2024-11-08T08:00:00	6	Velocidad del viento	3.2
165110	7	Sololá	713	San Lucas Tolimán	10	San Lucas Tolimán	12	Diciembre	2023-12-15T00:00:00	2024-11-08T08:00:00	7	Dirección del viento	3.22
165111	7	Sololá	713	San Lucas Tolimán	10	San Lucas Tolimán	12	Diciembre	2023-12-15T00:00:00	2024-11-08T08:00:00	1	Precipitación	0
165112	7	Sololá	713	San Lucas Tolimán	10	San Lucas Tolimán	12	Diciembre	2023-12-15T00:00:00	2024-11-08T08:00:00	8	Radiación solar	68
165113	7	Sololá	713	San Lucas Tolimán	10	San Lucas Tolimán	12	Diciembre	2023-12-15T00:00:00	2024-11-08T09:00:00	2	Temperatura media	21.5
165114	7	Sololá	713	San Lucas Tolimán	10	San Lucas Tolimán	12	Diciembre	2023-12-15T00:00:00	2024-11-08T09:00:00	4	Temperatura máxima	22
165115	7	Sololá	713	San Lucas Tolimán	10	San Lucas Tolimán	12	Diciembre	2023-12-15T00:00:00	2024-11-08T09:00:00	3	Temperatura mínima	18.1
165116	7	Sololá	713	San Lucas Tolimán	10	San Lucas Tolimán	12	Diciembre	2023-12-15T00:00:00	2024-11-08T09:00:00	5	Humedad	50
165117	7	Sololá	713	San Lucas Tolimán	10	San Lucas Tolimán	12	Diciembre	2023-12-15T00:00:00	2024-11-08T09:00:00	6	Velocidad del viento	1.6
165118	7	Sololá	713	San Lucas Tolimán	10	San Lucas Tolimán	12	Diciembre	2023-12-15T00:00:00	2024-11-08T09:00:00	7	Dirección del viento	1.61
165119	7	Sololá	713	San Lucas Tolimán	10	San Lucas Tolimán	12	Diciembre	2023-12-15T00:00:00	2024-11-08T09:00:00	1	Precipitación	0
165120	7	Sololá	713	San Lucas Tolimán	10	San Lucas Tolimán	12	Diciembre	2023-12-15T00:00:00	2024-11-08T09:00:00	8	Radiación solar	307
165121	7	Sololá	713	San Lucas Tolimán	10	San Lucas Tolimán	12	Diciembre	2023-12-15T00:00:00	2024-11-08T10:00:00	2	Temperatura media	23.3
165122	7	Sololá	713	San Lucas Tolimán	10	San Lucas Tolimán	12	Diciembre	2023-12-15T00:00:00	2024-11-08T10:00:00	4	Temperatura máxima	23.3
165123	7	Sololá	713	San Lucas Tolimán	10	San Lucas Tolimán	12	Diciembre	2023-12-15T00:00:00	2024-11-08T10:00:00	3	Temperatura mínima	21.5
165124	7	Sololá	713	San Lucas Tolimán	10	San Lucas Tolimán	12	Diciembre	2023-12-15T00:00:00	2024-11-08T10:00:00	5	Humedad	50
165125	7	Sololá	713	San Lucas Tolimán	10	San Lucas Tolimán	12	Diciembre	2023-12-15T00:00:00	2024-11-08T10:00:00	6	Velocidad del viento	3.2
165126	7	Sololá	713	San Lucas Tolimán	10	San Lucas Tolimán	12	Diciembre	2023-12-15T00:00:00	2024-11-08T10:00:00	7	Dirección del viento	3.22
165127	7	Sololá	713	San Lucas Tolimán	10	San Lucas Tolimán	12	Diciembre	2023-12-15T00:00:00	2024-11-08T10:00:00	1	Precipitación	0
165128	7	Sololá	713	San Lucas Tolimán	10	San Lucas Tolimán	12	Diciembre	2023-12-15T00:00:00	2024-11-08T10:00:00	8	Radiación solar	590
165129	7	Sololá	713	San Lucas Tolimán	10	San Lucas Tolimán	12	Diciembre	2023-12-15T00:00:00	2024-11-08T11:00:00	2	Temperatura media	24.8
165130	7	Sololá	713	San Lucas Tolimán	10	San Lucas Tolimán	12	Diciembre	2023-12-15T00:00:00	2024-11-08T11:00:00	4	Temperatura máxima	24.8
165131	7	Sololá	713	San Lucas Tolimán	10	San Lucas Tolimán	12	Diciembre	2023-12-15T00:00:00	2024-11-08T11:00:00	3	Temperatura mínima	23.4
165132	7	Sololá	713	San Lucas Tolimán	10	San Lucas Tolimán	12	Diciembre	2023-12-15T00:00:00	2024-11-08T11:00:00	5	Humedad	50
165133	7	Sololá	713	San Lucas Tolimán	10	San Lucas Tolimán	12	Diciembre	2023-12-15T00:00:00	2024-11-08T11:00:00	6	Velocidad del viento	4.8
165134	7	Sololá	713	San Lucas Tolimán	10	San Lucas Tolimán	12	Diciembre	2023-12-15T00:00:00	2024-11-08T11:00:00	7	Dirección del viento	4.83
165135	7	Sololá	713	San Lucas Tolimán	10	San Lucas Tolimán	12	Diciembre	2023-12-15T00:00:00	2024-11-08T11:00:00	1	Precipitación	0
165136	7	Sololá	713	San Lucas Tolimán	10	San Lucas Tolimán	12	Diciembre	2023-12-15T00:00:00	2024-11-08T11:00:00	8	Radiación solar	723
165137	7	Sololá	713	San Lucas Tolimán	10	San Lucas Tolimán	12	Diciembre	2023-12-15T00:00:00	2024-11-08T12:00:00	2	Temperatura media	23.8
165138	7	Sololá	713	San Lucas Tolimán	10	San Lucas Tolimán	12	Diciembre	2023-12-15T00:00:00	2024-11-08T12:00:00	4	Temperatura máxima	24.8
165139	7	Sololá	713	San Lucas Tolimán	10	San Lucas Tolimán	12	Diciembre	2023-12-15T00:00:00	2024-11-08T12:00:00	3	Temperatura mínima	23.8
165140	7	Sololá	713	San Lucas Tolimán	10	San Lucas Tolimán	12	Diciembre	2023-12-15T00:00:00	2024-11-08T12:00:00	5	Humedad	57
165141	7	Sololá	713	San Lucas Tolimán	10	San Lucas Tolimán	12	Diciembre	2023-12-15T00:00:00	2024-11-08T12:00:00	6	Velocidad del viento	8
165142	7	Sololá	713	San Lucas Tolimán	10	San Lucas Tolimán	12	Diciembre	2023-12-15T00:00:00	2024-11-08T12:00:00	7	Dirección del viento	8.05
165143	7	Sololá	713	San Lucas Tolimán	10	San Lucas Tolimán	12	Diciembre	2023-12-15T00:00:00	2024-11-08T12:00:00	1	Precipitación	0
165144	7	Sololá	713	San Lucas Tolimán	10	San Lucas Tolimán	12	Diciembre	2023-12-15T00:00:00	2024-11-08T12:00:00	8	Radiación solar	782
165145	7	Sololá	713	San Lucas Tolimán	10	San Lucas Tolimán	12	Diciembre	2023-12-15T00:00:00	2024-11-08T13:00:00	2	Temperatura media	22.4
165146	7	Sololá	713	San Lucas Tolimán	10	San Lucas Tolimán	12	Diciembre	2023-12-15T00:00:00	2024-11-08T13:00:00	4	Temperatura máxima	24
165147	7	Sololá	713	San Lucas Tolimán	10	San Lucas Tolimán	12	Diciembre	2023-12-15T00:00:00	2024-11-08T13:00:00	3	Temperatura mínima	22.3
165148	7	Sololá	713	San Lucas Tolimán	10	San Lucas Tolimán	12	Diciembre	2023-12-15T00:00:00	2024-11-08T13:00:00	5	Humedad	60
165149	7	Sololá	713	San Lucas Tolimán	10	San Lucas Tolimán	12	Diciembre	2023-12-15T00:00:00	2024-11-08T13:00:00	6	Velocidad del viento	11.3
165150	7	Sololá	713	San Lucas Tolimán	10	San Lucas Tolimán	12	Diciembre	2023-12-15T00:00:00	2024-11-08T13:00:00	7	Dirección del viento	11.27
165151	7	Sololá	713	San Lucas Tolimán	10	San Lucas Tolimán	12	Diciembre	2023-12-15T00:00:00	2024-11-08T13:00:00	1	Precipitación	0
165152	7	Sololá	713	San Lucas Tolimán	10	San Lucas Tolimán	12	Diciembre	2023-12-15T00:00:00	2024-11-08T13:00:00	8	Radiación solar	687
165153	7	Sololá	713	San Lucas Tolimán	10	San Lucas Tolimán	12	Diciembre	2023-12-15T00:00:00	2024-11-08T14:00:00	2	Temperatura media	22.3
165154	7	Sololá	713	San Lucas Tolimán	10	San Lucas Tolimán	12	Diciembre	2023-12-15T00:00:00	2024-11-08T14:00:00	4	Temperatura máxima	22.6
165155	7	Sololá	713	San Lucas Tolimán	10	San Lucas Tolimán	12	Diciembre	2023-12-15T00:00:00	2024-11-08T14:00:00	3	Temperatura mínima	21.8
165156	7	Sololá	713	San Lucas Tolimán	10	San Lucas Tolimán	12	Diciembre	2023-12-15T00:00:00	2024-11-08T14:00:00	5	Humedad	60
165157	7	Sololá	713	San Lucas Tolimán	10	San Lucas Tolimán	12	Diciembre	2023-12-15T00:00:00	2024-11-08T14:00:00	6	Velocidad del viento	11.3
165158	7	Sololá	713	San Lucas Tolimán	10	San Lucas Tolimán	12	Diciembre	2023-12-15T00:00:00	2024-11-08T14:00:00	7	Dirección del viento	11.27
165159	7	Sololá	713	San Lucas Tolimán	10	San Lucas Tolimán	12	Diciembre	2023-12-15T00:00:00	2024-11-08T14:00:00	1	Precipitación	0
165160	7	Sololá	713	San Lucas Tolimán	10	San Lucas Tolimán	12	Diciembre	2023-12-15T00:00:00	2024-11-08T14:00:00	8	Radiación solar	585
165161	7	Sololá	713	San Lucas Tolimán	10	San Lucas Tolimán	12	Diciembre	2023-12-15T00:00:00	2024-11-08T15:00:00	2	Temperatura media	21.8
165162	7	Sololá	713	San Lucas Tolimán	10	San Lucas Tolimán	12	Diciembre	2023-12-15T00:00:00	2024-11-08T15:00:00	4	Temperatura máxima	22.7
165163	7	Sololá	713	San Lucas Tolimán	10	San Lucas Tolimán	12	Diciembre	2023-12-15T00:00:00	2024-11-08T15:00:00	3	Temperatura mínima	21.7
165164	7	Sololá	713	San Lucas Tolimán	10	San Lucas Tolimán	12	Diciembre	2023-12-15T00:00:00	2024-11-08T15:00:00	5	Humedad	62
165165	7	Sololá	713	San Lucas Tolimán	10	San Lucas Tolimán	12	Diciembre	2023-12-15T00:00:00	2024-11-08T15:00:00	6	Velocidad del viento	12.9
165166	7	Sololá	713	San Lucas Tolimán	10	San Lucas Tolimán	12	Diciembre	2023-12-15T00:00:00	2024-11-08T15:00:00	7	Dirección del viento	12.87
165167	7	Sololá	713	San Lucas Tolimán	10	San Lucas Tolimán	12	Diciembre	2023-12-15T00:00:00	2024-11-08T15:00:00	1	Precipitación	0
165168	7	Sololá	713	San Lucas Tolimán	10	San Lucas Tolimán	12	Diciembre	2023-12-15T00:00:00	2024-11-08T15:00:00	8	Radiación solar	548
165169	7	Sololá	713	San Lucas Tolimán	10	San Lucas Tolimán	12	Diciembre	2023-12-15T00:00:00	2024-11-08T16:00:00	2	Temperatura media	20.6
165170	7	Sololá	713	San Lucas Tolimán	10	San Lucas Tolimán	12	Diciembre	2023-12-15T00:00:00	2024-11-08T16:00:00	4	Temperatura máxima	21.8
165171	7	Sololá	713	San Lucas Tolimán	10	San Lucas Tolimán	12	Diciembre	2023-12-15T00:00:00	2024-11-08T16:00:00	3	Temperatura mínima	20.6
165172	7	Sololá	713	San Lucas Tolimán	10	San Lucas Tolimán	12	Diciembre	2023-12-15T00:00:00	2024-11-08T16:00:00	5	Humedad	62
165173	7	Sololá	713	San Lucas Tolimán	10	San Lucas Tolimán	12	Diciembre	2023-12-15T00:00:00	2024-11-08T16:00:00	6	Velocidad del viento	11.3
165174	7	Sololá	713	San Lucas Tolimán	10	San Lucas Tolimán	12	Diciembre	2023-12-15T00:00:00	2024-11-08T16:00:00	7	Dirección del viento	11.27
165175	7	Sololá	713	San Lucas Tolimán	10	San Lucas Tolimán	12	Diciembre	2023-12-15T00:00:00	2024-11-08T16:00:00	1	Precipitación	0
165176	7	Sololá	713	San Lucas Tolimán	10	San Lucas Tolimán	12	Diciembre	2023-12-15T00:00:00	2024-11-08T16:00:00	8	Radiación solar	198
165177	7	Sololá	713	San Lucas Tolimán	10	San Lucas Tolimán	12	Diciembre	2023-12-15T00:00:00	2024-11-08T17:00:00	2	Temperatura media	19.7
165178	7	Sololá	713	San Lucas Tolimán	10	San Lucas Tolimán	12	Diciembre	2023-12-15T00:00:00	2024-11-08T17:00:00	4	Temperatura máxima	20.6
165179	7	Sololá	713	San Lucas Tolimán	10	San Lucas Tolimán	12	Diciembre	2023-12-15T00:00:00	2024-11-08T17:00:00	3	Temperatura mínima	19.7
165180	7	Sololá	713	San Lucas Tolimán	10	San Lucas Tolimán	12	Diciembre	2023-12-15T00:00:00	2024-11-08T17:00:00	5	Humedad	61
165181	7	Sololá	713	San Lucas Tolimán	10	San Lucas Tolimán	12	Diciembre	2023-12-15T00:00:00	2024-11-08T17:00:00	6	Velocidad del viento	8
165182	7	Sololá	713	San Lucas Tolimán	10	San Lucas Tolimán	12	Diciembre	2023-12-15T00:00:00	2024-11-08T17:00:00	7	Dirección del viento	8.05
165183	7	Sololá	713	San Lucas Tolimán	10	San Lucas Tolimán	12	Diciembre	2023-12-15T00:00:00	2024-11-08T17:00:00	1	Precipitación	0
165184	7	Sololá	713	San Lucas Tolimán	10	San Lucas Tolimán	12	Diciembre	2023-12-15T00:00:00	2024-11-08T17:00:00	8	Radiación solar	51
165185	7	Sololá	713	San Lucas Tolimán	10	San Lucas Tolimán	12	Diciembre	2023-12-15T00:00:00	2024-11-08T18:00:00	2	Temperatura media	18.8
165186	7	Sololá	713	San Lucas Tolimán	10	San Lucas Tolimán	12	Diciembre	2023-12-15T00:00:00	2024-11-08T18:00:00	4	Temperatura máxima	19.8
165187	7	Sololá	713	San Lucas Tolimán	10	San Lucas Tolimán	12	Diciembre	2023-12-15T00:00:00	2024-11-08T18:00:00	3	Temperatura mínima	18.7
165188	7	Sololá	713	San Lucas Tolimán	10	San Lucas Tolimán	12	Diciembre	2023-12-15T00:00:00	2024-11-08T18:00:00	5	Humedad	62
165189	7	Sololá	713	San Lucas Tolimán	10	San Lucas Tolimán	12	Diciembre	2023-12-15T00:00:00	2024-11-08T18:00:00	6	Velocidad del viento	4.8
165190	7	Sololá	713	San Lucas Tolimán	10	San Lucas Tolimán	12	Diciembre	2023-12-15T00:00:00	2024-11-08T18:00:00	7	Dirección del viento	4.83
165191	7	Sololá	713	San Lucas Tolimán	10	San Lucas Tolimán	12	Diciembre	2023-12-15T00:00:00	2024-11-08T18:00:00	1	Precipitación	0.2
165192	7	Sololá	713	San Lucas Tolimán	10	San Lucas Tolimán	12	Diciembre	2023-12-15T00:00:00	2024-11-08T18:00:00	8	Radiación solar	6
165193	7	Sololá	713	San Lucas Tolimán	10	San Lucas Tolimán	12	Diciembre	2023-12-15T00:00:00	2024-11-08T19:00:00	2	Temperatura media	18.4
165194	7	Sololá	713	San Lucas Tolimán	10	San Lucas Tolimán	12	Diciembre	2023-12-15T00:00:00	2024-11-08T19:00:00	4	Temperatura máxima	18.8
165195	7	Sololá	713	San Lucas Tolimán	10	San Lucas Tolimán	12	Diciembre	2023-12-15T00:00:00	2024-11-08T19:00:00	3	Temperatura mínima	18.4
165196	7	Sololá	713	San Lucas Tolimán	10	San Lucas Tolimán	12	Diciembre	2023-12-15T00:00:00	2024-11-08T19:00:00	5	Humedad	63
165197	7	Sololá	713	San Lucas Tolimán	10	San Lucas Tolimán	12	Diciembre	2023-12-15T00:00:00	2024-11-08T19:00:00	6	Velocidad del viento	3.2
165198	7	Sololá	713	San Lucas Tolimán	10	San Lucas Tolimán	12	Diciembre	2023-12-15T00:00:00	2024-11-08T19:00:00	7	Dirección del viento	3.22
165199	7	Sololá	713	San Lucas Tolimán	10	San Lucas Tolimán	12	Diciembre	2023-12-15T00:00:00	2024-11-08T19:00:00	1	Precipitación	0.6
165200	7	Sololá	713	San Lucas Tolimán	10	San Lucas Tolimán	12	Diciembre	2023-12-15T00:00:00	2024-11-08T19:00:00	8	Radiación solar	0
165201	7	Sololá	713	San Lucas Tolimán	10	San Lucas Tolimán	12	Diciembre	2023-12-15T00:00:00	2024-11-08T20:00:00	2	Temperatura media	17.9
165202	7	Sololá	713	San Lucas Tolimán	10	San Lucas Tolimán	12	Diciembre	2023-12-15T00:00:00	2024-11-08T20:00:00	4	Temperatura máxima	18.4
165203	7	Sololá	713	San Lucas Tolimán	10	San Lucas Tolimán	12	Diciembre	2023-12-15T00:00:00	2024-11-08T20:00:00	3	Temperatura mínima	17.8
165204	7	Sololá	713	San Lucas Tolimán	10	San Lucas Tolimán	12	Diciembre	2023-12-15T00:00:00	2024-11-08T20:00:00	5	Humedad	62
165205	7	Sololá	713	San Lucas Tolimán	10	San Lucas Tolimán	12	Diciembre	2023-12-15T00:00:00	2024-11-08T20:00:00	6	Velocidad del viento	8
165206	7	Sololá	713	San Lucas Tolimán	10	San Lucas Tolimán	12	Diciembre	2023-12-15T00:00:00	2024-11-08T20:00:00	7	Dirección del viento	8.05
165207	7	Sololá	713	San Lucas Tolimán	10	San Lucas Tolimán	12	Diciembre	2023-12-15T00:00:00	2024-11-08T20:00:00	1	Precipitación	1.2
165208	7	Sololá	713	San Lucas Tolimán	10	San Lucas Tolimán	12	Diciembre	2023-12-15T00:00:00	2024-11-08T20:00:00	8	Radiación solar	0
165209	7	Sololá	713	San Lucas Tolimán	10	San Lucas Tolimán	12	Diciembre	2023-12-15T00:00:00	2024-11-08T21:00:00	2	Temperatura media	17.8
165210	7	Sololá	713	San Lucas Tolimán	10	San Lucas Tolimán	12	Diciembre	2023-12-15T00:00:00	2024-11-08T21:00:00	4	Temperatura máxima	18.1
165211	7	Sololá	713	San Lucas Tolimán	10	San Lucas Tolimán	12	Diciembre	2023-12-15T00:00:00	2024-11-08T21:00:00	3	Temperatura mínima	17.8
165212	7	Sololá	713	San Lucas Tolimán	10	San Lucas Tolimán	12	Diciembre	2023-12-15T00:00:00	2024-11-08T21:00:00	5	Humedad	64
165213	7	Sololá	713	San Lucas Tolimán	10	San Lucas Tolimán	12	Diciembre	2023-12-15T00:00:00	2024-11-08T21:00:00	6	Velocidad del viento	3.2
165214	7	Sololá	713	San Lucas Tolimán	10	San Lucas Tolimán	12	Diciembre	2023-12-15T00:00:00	2024-11-08T21:00:00	7	Dirección del viento	3.22
165215	7	Sololá	713	San Lucas Tolimán	10	San Lucas Tolimán	12	Diciembre	2023-12-15T00:00:00	2024-11-08T21:00:00	1	Precipitación	0.2
165216	7	Sololá	713	San Lucas Tolimán	10	San Lucas Tolimán	12	Diciembre	2023-12-15T00:00:00	2024-11-08T21:00:00	8	Radiación solar	0
165217	7	Sololá	713	San Lucas Tolimán	10	San Lucas Tolimán	12	Diciembre	2023-12-15T00:00:00	2024-11-08T22:00:00	2	Temperatura media	17.7
165218	7	Sololá	713	San Lucas Tolimán	10	San Lucas Tolimán	12	Diciembre	2023-12-15T00:00:00	2024-11-08T22:00:00	4	Temperatura máxima	17.9
165219	7	Sololá	713	San Lucas Tolimán	10	San Lucas Tolimán	12	Diciembre	2023-12-15T00:00:00	2024-11-08T22:00:00	3	Temperatura mínima	17.6
165220	7	Sololá	713	San Lucas Tolimán	10	San Lucas Tolimán	12	Diciembre	2023-12-15T00:00:00	2024-11-08T22:00:00	5	Humedad	63
165221	7	Sololá	713	San Lucas Tolimán	10	San Lucas Tolimán	12	Diciembre	2023-12-15T00:00:00	2024-11-08T22:00:00	6	Velocidad del viento	1.6
165222	7	Sololá	713	San Lucas Tolimán	10	San Lucas Tolimán	12	Diciembre	2023-12-15T00:00:00	2024-11-08T22:00:00	7	Dirección del viento	1.61
165223	7	Sololá	713	San Lucas Tolimán	10	San Lucas Tolimán	12	Diciembre	2023-12-15T00:00:00	2024-11-08T22:00:00	1	Precipitación	0.2
165224	7	Sololá	713	San Lucas Tolimán	10	San Lucas Tolimán	12	Diciembre	2023-12-15T00:00:00	2024-11-08T22:00:00	8	Radiación solar	0
165225	7	Sololá	713	San Lucas Tolimán	10	San Lucas Tolimán	12	Diciembre	2023-12-15T00:00:00	2024-11-08T23:00:00	2	Temperatura media	17.4
165226	7	Sololá	713	San Lucas Tolimán	10	San Lucas Tolimán	12	Diciembre	2023-12-15T00:00:00	2024-11-08T23:00:00	4	Temperatura máxima	17.7
165227	7	Sololá	713	San Lucas Tolimán	10	San Lucas Tolimán	12	Diciembre	2023-12-15T00:00:00	2024-11-08T23:00:00	3	Temperatura mínima	17.4
165228	7	Sololá	713	San Lucas Tolimán	10	San Lucas Tolimán	12	Diciembre	2023-12-15T00:00:00	2024-11-08T23:00:00	5	Humedad	65
165229	7	Sololá	713	San Lucas Tolimán	10	San Lucas Tolimán	12	Diciembre	2023-12-15T00:00:00	2024-11-08T23:00:00	6	Velocidad del viento	0
165230	7	Sololá	713	San Lucas Tolimán	10	San Lucas Tolimán	12	Diciembre	2023-12-15T00:00:00	2024-11-08T23:00:00	7	Dirección del viento	0
165231	7	Sololá	713	San Lucas Tolimán	10	San Lucas Tolimán	12	Diciembre	2023-12-15T00:00:00	2024-11-08T23:00:00	1	Precipitación	0
165232	7	Sololá	713	San Lucas Tolimán	10	San Lucas Tolimán	12	Diciembre	2023-12-15T00:00:00	2024-11-08T23:00:00	8	Radiación solar	0
165233	7	Sololá	713	San Lucas Tolimán	10	San Lucas Tolimán	12	Diciembre	2023-12-16T00:00:00	2024-11-08T00:00:00	2	Temperatura media	17.5
165234	7	Sololá	713	San Lucas Tolimán	10	San Lucas Tolimán	12	Diciembre	2023-12-16T00:00:00	2024-11-08T00:00:00	4	Temperatura máxima	17.6
165235	7	Sololá	713	San Lucas Tolimán	10	San Lucas Tolimán	12	Diciembre	2023-12-16T00:00:00	2024-11-08T00:00:00	3	Temperatura mínima	17.4
165236	7	Sololá	713	San Lucas Tolimán	10	San Lucas Tolimán	12	Diciembre	2023-12-16T00:00:00	2024-11-08T00:00:00	5	Humedad	66
165237	7	Sololá	713	San Lucas Tolimán	10	San Lucas Tolimán	12	Diciembre	2023-12-16T00:00:00	2024-11-08T00:00:00	6	Velocidad del viento	0
165238	7	Sololá	713	San Lucas Tolimán	10	San Lucas Tolimán	12	Diciembre	2023-12-16T00:00:00	2024-11-08T00:00:00	7	Dirección del viento	0
165239	7	Sololá	713	San Lucas Tolimán	10	San Lucas Tolimán	12	Diciembre	2023-12-16T00:00:00	2024-11-08T00:00:00	1	Precipitación	0
165240	7	Sololá	713	San Lucas Tolimán	10	San Lucas Tolimán	12	Diciembre	2023-12-16T00:00:00	2024-11-08T00:00:00	8	Radiación solar	0
165241	7	Sololá	713	San Lucas Tolimán	10	San Lucas Tolimán	12	Diciembre	2023-12-16T00:00:00	2024-11-08T01:00:00	2	Temperatura media	17.6
165242	7	Sololá	713	San Lucas Tolimán	10	San Lucas Tolimán	12	Diciembre	2023-12-16T00:00:00	2024-11-08T01:00:00	4	Temperatura máxima	17.7
165243	7	Sololá	713	San Lucas Tolimán	10	San Lucas Tolimán	12	Diciembre	2023-12-16T00:00:00	2024-11-08T01:00:00	3	Temperatura mínima	17.5
165244	7	Sololá	713	San Lucas Tolimán	10	San Lucas Tolimán	12	Diciembre	2023-12-16T00:00:00	2024-11-08T01:00:00	5	Humedad	66
165245	7	Sololá	713	San Lucas Tolimán	10	San Lucas Tolimán	12	Diciembre	2023-12-16T00:00:00	2024-11-08T01:00:00	6	Velocidad del viento	0
165246	7	Sololá	713	San Lucas Tolimán	10	San Lucas Tolimán	12	Diciembre	2023-12-16T00:00:00	2024-11-08T01:00:00	7	Dirección del viento	0
165247	7	Sololá	713	San Lucas Tolimán	10	San Lucas Tolimán	12	Diciembre	2023-12-16T00:00:00	2024-11-08T01:00:00	1	Precipitación	0
165248	7	Sololá	713	San Lucas Tolimán	10	San Lucas Tolimán	12	Diciembre	2023-12-16T00:00:00	2024-11-08T01:00:00	8	Radiación solar	0
165249	7	Sololá	713	San Lucas Tolimán	10	San Lucas Tolimán	12	Diciembre	2023-12-16T00:00:00	2024-11-08T02:00:00	2	Temperatura media	17.2
165250	7	Sololá	713	San Lucas Tolimán	10	San Lucas Tolimán	12	Diciembre	2023-12-16T00:00:00	2024-11-08T02:00:00	4	Temperatura máxima	17.7
165251	7	Sololá	713	San Lucas Tolimán	10	San Lucas Tolimán	12	Diciembre	2023-12-16T00:00:00	2024-11-08T02:00:00	3	Temperatura mínima	17.2
165252	7	Sololá	713	San Lucas Tolimán	10	San Lucas Tolimán	12	Diciembre	2023-12-16T00:00:00	2024-11-08T02:00:00	5	Humedad	66
165253	7	Sololá	713	San Lucas Tolimán	10	San Lucas Tolimán	12	Diciembre	2023-12-16T00:00:00	2024-11-08T02:00:00	6	Velocidad del viento	0
165254	7	Sololá	713	San Lucas Tolimán	10	San Lucas Tolimán	12	Diciembre	2023-12-16T00:00:00	2024-11-08T02:00:00	7	Dirección del viento	0
165255	7	Sololá	713	San Lucas Tolimán	10	San Lucas Tolimán	12	Diciembre	2023-12-16T00:00:00	2024-11-08T02:00:00	1	Precipitación	0
165256	7	Sololá	713	San Lucas Tolimán	10	San Lucas Tolimán	12	Diciembre	2023-12-16T00:00:00	2024-11-08T02:00:00	8	Radiación solar	0
165257	7	Sololá	713	San Lucas Tolimán	10	San Lucas Tolimán	12	Diciembre	2023-12-16T00:00:00	2024-11-08T03:00:00	2	Temperatura media	16.9
165258	7	Sololá	713	San Lucas Tolimán	10	San Lucas Tolimán	12	Diciembre	2023-12-16T00:00:00	2024-11-08T03:00:00	4	Temperatura máxima	17.5
165259	7	Sololá	713	San Lucas Tolimán	10	San Lucas Tolimán	12	Diciembre	2023-12-16T00:00:00	2024-11-08T03:00:00	3	Temperatura mínima	16.8
165260	7	Sololá	713	San Lucas Tolimán	10	San Lucas Tolimán	12	Diciembre	2023-12-16T00:00:00	2024-11-08T03:00:00	5	Humedad	64
165261	7	Sololá	713	San Lucas Tolimán	10	San Lucas Tolimán	12	Diciembre	2023-12-16T00:00:00	2024-11-08T03:00:00	6	Velocidad del viento	1.6
165262	7	Sololá	713	San Lucas Tolimán	10	San Lucas Tolimán	12	Diciembre	2023-12-16T00:00:00	2024-11-08T03:00:00	7	Dirección del viento	1.61
165263	7	Sololá	713	San Lucas Tolimán	10	San Lucas Tolimán	12	Diciembre	2023-12-16T00:00:00	2024-11-08T03:00:00	1	Precipitación	0
165264	7	Sololá	713	San Lucas Tolimán	10	San Lucas Tolimán	12	Diciembre	2023-12-16T00:00:00	2024-11-08T03:00:00	8	Radiación solar	0
165265	7	Sololá	713	San Lucas Tolimán	10	San Lucas Tolimán	12	Diciembre	2023-12-16T00:00:00	2024-11-08T04:00:00	2	Temperatura media	16.4
165266	7	Sololá	713	San Lucas Tolimán	10	San Lucas Tolimán	12	Diciembre	2023-12-16T00:00:00	2024-11-08T04:00:00	4	Temperatura máxima	17
165267	7	Sololá	713	San Lucas Tolimán	10	San Lucas Tolimán	12	Diciembre	2023-12-16T00:00:00	2024-11-08T04:00:00	3	Temperatura mínima	16.4
165268	7	Sololá	713	San Lucas Tolimán	10	San Lucas Tolimán	12	Diciembre	2023-12-16T00:00:00	2024-11-08T04:00:00	5	Humedad	62
165269	7	Sololá	713	San Lucas Tolimán	10	San Lucas Tolimán	12	Diciembre	2023-12-16T00:00:00	2024-11-08T04:00:00	6	Velocidad del viento	0
165270	7	Sololá	713	San Lucas Tolimán	10	San Lucas Tolimán	12	Diciembre	2023-12-16T00:00:00	2024-11-08T04:00:00	7	Dirección del viento	0
165271	7	Sololá	713	San Lucas Tolimán	10	San Lucas Tolimán	12	Diciembre	2023-12-16T00:00:00	2024-11-08T04:00:00	1	Precipitación	0
165272	7	Sololá	713	San Lucas Tolimán	10	San Lucas Tolimán	12	Diciembre	2023-12-16T00:00:00	2024-11-08T04:00:00	8	Radiación solar	0
165273	7	Sololá	713	San Lucas Tolimán	10	San Lucas Tolimán	12	Diciembre	2023-12-16T00:00:00	2024-11-08T05:00:00	2	Temperatura media	16.2
165274	7	Sololá	713	San Lucas Tolimán	10	San Lucas Tolimán	12	Diciembre	2023-12-16T00:00:00	2024-11-08T05:00:00	4	Temperatura máxima	16.5
165275	7	Sololá	713	San Lucas Tolimán	10	San Lucas Tolimán	12	Diciembre	2023-12-16T00:00:00	2024-11-08T05:00:00	3	Temperatura mínima	16.1
165276	7	Sololá	713	San Lucas Tolimán	10	San Lucas Tolimán	12	Diciembre	2023-12-16T00:00:00	2024-11-08T05:00:00	5	Humedad	62
165277	7	Sololá	713	San Lucas Tolimán	10	San Lucas Tolimán	12	Diciembre	2023-12-16T00:00:00	2024-11-08T05:00:00	6	Velocidad del viento	1.6
165278	7	Sololá	713	San Lucas Tolimán	10	San Lucas Tolimán	12	Diciembre	2023-12-16T00:00:00	2024-11-08T05:00:00	7	Dirección del viento	1.61
165279	7	Sololá	713	San Lucas Tolimán	10	San Lucas Tolimán	12	Diciembre	2023-12-16T00:00:00	2024-11-08T05:00:00	1	Precipitación	0
165280	7	Sololá	713	San Lucas Tolimán	10	San Lucas Tolimán	12	Diciembre	2023-12-16T00:00:00	2024-11-08T05:00:00	8	Radiación solar	0
165281	7	Sololá	713	San Lucas Tolimán	10	San Lucas Tolimán	12	Diciembre	2023-12-16T00:00:00	2024-11-08T06:00:00	2	Temperatura media	15.8
165282	7	Sololá	713	San Lucas Tolimán	10	San Lucas Tolimán	12	Diciembre	2023-12-16T00:00:00	2024-11-08T06:00:00	4	Temperatura máxima	16.2
165283	7	Sololá	713	San Lucas Tolimán	10	San Lucas Tolimán	12	Diciembre	2023-12-16T00:00:00	2024-11-08T06:00:00	3	Temperatura mínima	15.7
165284	7	Sololá	713	San Lucas Tolimán	10	San Lucas Tolimán	12	Diciembre	2023-12-16T00:00:00	2024-11-08T06:00:00	5	Humedad	62
165285	7	Sololá	713	San Lucas Tolimán	10	San Lucas Tolimán	12	Diciembre	2023-12-16T00:00:00	2024-11-08T06:00:00	6	Velocidad del viento	0
165286	7	Sololá	713	San Lucas Tolimán	10	San Lucas Tolimán	12	Diciembre	2023-12-16T00:00:00	2024-11-08T06:00:00	7	Dirección del viento	0
165287	7	Sololá	713	San Lucas Tolimán	10	San Lucas Tolimán	12	Diciembre	2023-12-16T00:00:00	2024-11-08T06:00:00	1	Precipitación	0
165288	7	Sololá	713	San Lucas Tolimán	10	San Lucas Tolimán	12	Diciembre	2023-12-16T00:00:00	2024-11-08T06:00:00	8	Radiación solar	0
165289	7	Sololá	713	San Lucas Tolimán	10	San Lucas Tolimán	12	Diciembre	2023-12-16T00:00:00	2024-11-08T07:00:00	2	Temperatura media	14.7
165290	7	Sololá	713	San Lucas Tolimán	10	San Lucas Tolimán	12	Diciembre	2023-12-16T00:00:00	2024-11-08T07:00:00	4	Temperatura máxima	15.8
165291	7	Sololá	713	San Lucas Tolimán	10	San Lucas Tolimán	12	Diciembre	2023-12-16T00:00:00	2024-11-08T07:00:00	3	Temperatura mínima	14.7
165292	7	Sololá	713	San Lucas Tolimán	10	San Lucas Tolimán	12	Diciembre	2023-12-16T00:00:00	2024-11-08T07:00:00	5	Humedad	64
165293	7	Sololá	713	San Lucas Tolimán	10	San Lucas Tolimán	12	Diciembre	2023-12-16T00:00:00	2024-11-08T07:00:00	6	Velocidad del viento	0
165294	7	Sololá	713	San Lucas Tolimán	10	San Lucas Tolimán	12	Diciembre	2023-12-16T00:00:00	2024-11-08T07:00:00	7	Dirección del viento	0
165295	7	Sololá	713	San Lucas Tolimán	10	San Lucas Tolimán	12	Diciembre	2023-12-16T00:00:00	2024-11-08T07:00:00	1	Precipitación	0
165296	7	Sololá	713	San Lucas Tolimán	10	San Lucas Tolimán	12	Diciembre	2023-12-16T00:00:00	2024-11-08T07:00:00	8	Radiación solar	7
165297	7	Sololá	713	San Lucas Tolimán	10	San Lucas Tolimán	12	Diciembre	2023-12-16T00:00:00	2024-11-08T08:00:00	2	Temperatura media	16.2
165298	7	Sololá	713	San Lucas Tolimán	10	San Lucas Tolimán	12	Diciembre	2023-12-16T00:00:00	2024-11-08T08:00:00	4	Temperatura máxima	16.2
165299	7	Sololá	713	San Lucas Tolimán	10	San Lucas Tolimán	12	Diciembre	2023-12-16T00:00:00	2024-11-08T08:00:00	3	Temperatura mínima	14.6
165300	7	Sololá	713	San Lucas Tolimán	10	San Lucas Tolimán	12	Diciembre	2023-12-16T00:00:00	2024-11-08T08:00:00	5	Humedad	62
165301	7	Sololá	713	San Lucas Tolimán	10	San Lucas Tolimán	12	Diciembre	2023-12-16T00:00:00	2024-11-08T08:00:00	6	Velocidad del viento	0
165302	7	Sololá	713	San Lucas Tolimán	10	San Lucas Tolimán	12	Diciembre	2023-12-16T00:00:00	2024-11-08T08:00:00	7	Dirección del viento	0
165303	7	Sololá	713	San Lucas Tolimán	10	San Lucas Tolimán	12	Diciembre	2023-12-16T00:00:00	2024-11-08T08:00:00	1	Precipitación	0
165304	7	Sololá	713	San Lucas Tolimán	10	San Lucas Tolimán	12	Diciembre	2023-12-16T00:00:00	2024-11-08T08:00:00	8	Radiación solar	36
165305	7	Sololá	713	San Lucas Tolimán	10	San Lucas Tolimán	12	Diciembre	2023-12-16T00:00:00	2024-11-08T09:00:00	2	Temperatura media	18.3
165306	7	Sololá	713	San Lucas Tolimán	10	San Lucas Tolimán	12	Diciembre	2023-12-16T00:00:00	2024-11-08T09:00:00	4	Temperatura máxima	18.3
165307	7	Sololá	713	San Lucas Tolimán	10	San Lucas Tolimán	12	Diciembre	2023-12-16T00:00:00	2024-11-08T09:00:00	3	Temperatura mínima	16.2
165308	7	Sololá	713	San Lucas Tolimán	10	San Lucas Tolimán	12	Diciembre	2023-12-16T00:00:00	2024-11-08T09:00:00	5	Humedad	58
165309	7	Sololá	713	San Lucas Tolimán	10	San Lucas Tolimán	12	Diciembre	2023-12-16T00:00:00	2024-11-08T09:00:00	6	Velocidad del viento	3.2
165310	7	Sololá	713	San Lucas Tolimán	10	San Lucas Tolimán	12	Diciembre	2023-12-16T00:00:00	2024-11-08T09:00:00	7	Dirección del viento	3.22
165311	7	Sololá	713	San Lucas Tolimán	10	San Lucas Tolimán	12	Diciembre	2023-12-16T00:00:00	2024-11-08T09:00:00	1	Precipitación	0
165312	7	Sololá	713	San Lucas Tolimán	10	San Lucas Tolimán	12	Diciembre	2023-12-16T00:00:00	2024-11-08T09:00:00	8	Radiación solar	148
165313	7	Sololá	713	San Lucas Tolimán	10	San Lucas Tolimán	12	Diciembre	2023-12-16T00:00:00	2024-11-08T10:00:00	2	Temperatura media	22.3
165314	7	Sololá	713	San Lucas Tolimán	10	San Lucas Tolimán	12	Diciembre	2023-12-16T00:00:00	2024-11-08T10:00:00	4	Temperatura máxima	22.3
165315	7	Sololá	713	San Lucas Tolimán	10	San Lucas Tolimán	12	Diciembre	2023-12-16T00:00:00	2024-11-08T10:00:00	3	Temperatura mínima	18.3
165316	7	Sololá	713	San Lucas Tolimán	10	San Lucas Tolimán	12	Diciembre	2023-12-16T00:00:00	2024-11-08T10:00:00	5	Humedad	56
165317	7	Sololá	713	San Lucas Tolimán	10	San Lucas Tolimán	12	Diciembre	2023-12-16T00:00:00	2024-11-08T10:00:00	6	Velocidad del viento	3.2
165318	7	Sololá	713	San Lucas Tolimán	10	San Lucas Tolimán	12	Diciembre	2023-12-16T00:00:00	2024-11-08T10:00:00	7	Dirección del viento	3.22
165319	7	Sololá	713	San Lucas Tolimán	10	San Lucas Tolimán	12	Diciembre	2023-12-16T00:00:00	2024-11-08T10:00:00	1	Precipitación	0
165320	7	Sololá	713	San Lucas Tolimán	10	San Lucas Tolimán	12	Diciembre	2023-12-16T00:00:00	2024-11-08T10:00:00	8	Radiación solar	569
165321	7	Sololá	713	San Lucas Tolimán	10	San Lucas Tolimán	12	Diciembre	2023-12-16T00:00:00	2024-11-08T11:00:00	2	Temperatura media	23.3
165322	7	Sololá	713	San Lucas Tolimán	10	San Lucas Tolimán	12	Diciembre	2023-12-16T00:00:00	2024-11-08T11:00:00	4	Temperatura máxima	23.4
165323	7	Sololá	713	San Lucas Tolimán	10	San Lucas Tolimán	12	Diciembre	2023-12-16T00:00:00	2024-11-08T11:00:00	3	Temperatura mínima	22.3
165324	7	Sololá	713	San Lucas Tolimán	10	San Lucas Tolimán	12	Diciembre	2023-12-16T00:00:00	2024-11-08T11:00:00	5	Humedad	55
165325	7	Sololá	713	San Lucas Tolimán	10	San Lucas Tolimán	12	Diciembre	2023-12-16T00:00:00	2024-11-08T11:00:00	6	Velocidad del viento	6.4
165326	7	Sololá	713	San Lucas Tolimán	10	San Lucas Tolimán	12	Diciembre	2023-12-16T00:00:00	2024-11-08T11:00:00	7	Dirección del viento	6.44
165327	7	Sololá	713	San Lucas Tolimán	10	San Lucas Tolimán	12	Diciembre	2023-12-16T00:00:00	2024-11-08T11:00:00	1	Precipitación	0
165328	7	Sololá	713	San Lucas Tolimán	10	San Lucas Tolimán	12	Diciembre	2023-12-16T00:00:00	2024-11-08T11:00:00	8	Radiación solar	749
165329	7	Sololá	713	San Lucas Tolimán	10	San Lucas Tolimán	12	Diciembre	2023-12-16T00:00:00	2024-11-08T12:00:00	2	Temperatura media	22.2
165330	7	Sololá	713	San Lucas Tolimán	10	San Lucas Tolimán	12	Diciembre	2023-12-16T00:00:00	2024-11-08T12:00:00	4	Temperatura máxima	23.3
165331	7	Sololá	713	San Lucas Tolimán	10	San Lucas Tolimán	12	Diciembre	2023-12-16T00:00:00	2024-11-08T12:00:00	3	Temperatura mínima	21.3
165332	7	Sololá	713	San Lucas Tolimán	10	San Lucas Tolimán	12	Diciembre	2023-12-16T00:00:00	2024-11-08T12:00:00	5	Humedad	56
165333	7	Sololá	713	San Lucas Tolimán	10	San Lucas Tolimán	12	Diciembre	2023-12-16T00:00:00	2024-11-08T12:00:00	6	Velocidad del viento	4.8
165334	7	Sololá	713	San Lucas Tolimán	10	San Lucas Tolimán	12	Diciembre	2023-12-16T00:00:00	2024-11-08T12:00:00	7	Dirección del viento	4.83
165335	7	Sololá	713	San Lucas Tolimán	10	San Lucas Tolimán	12	Diciembre	2023-12-16T00:00:00	2024-11-08T12:00:00	1	Precipitación	0
165336	7	Sololá	713	San Lucas Tolimán	10	San Lucas Tolimán	12	Diciembre	2023-12-16T00:00:00	2024-11-08T12:00:00	8	Radiación solar	850
165337	7	Sololá	713	San Lucas Tolimán	10	San Lucas Tolimán	12	Diciembre	2023-12-16T00:00:00	2024-11-08T13:00:00	2	Temperatura media	23
165338	7	Sololá	713	San Lucas Tolimán	10	San Lucas Tolimán	12	Diciembre	2023-12-16T00:00:00	2024-11-08T13:00:00	4	Temperatura máxima	24
165339	7	Sololá	713	San Lucas Tolimán	10	San Lucas Tolimán	12	Diciembre	2023-12-16T00:00:00	2024-11-08T13:00:00	3	Temperatura mínima	22.6
165340	7	Sololá	713	San Lucas Tolimán	10	San Lucas Tolimán	12	Diciembre	2023-12-16T00:00:00	2024-11-08T13:00:00	5	Humedad	61
165341	7	Sololá	713	San Lucas Tolimán	10	San Lucas Tolimán	12	Diciembre	2023-12-16T00:00:00	2024-11-08T13:00:00	6	Velocidad del viento	9.7
165342	7	Sololá	713	San Lucas Tolimán	10	San Lucas Tolimán	12	Diciembre	2023-12-16T00:00:00	2024-11-08T13:00:00	7	Dirección del viento	9.66
165343	7	Sololá	713	San Lucas Tolimán	10	San Lucas Tolimán	12	Diciembre	2023-12-16T00:00:00	2024-11-08T13:00:00	1	Precipitación	0
165344	7	Sololá	713	San Lucas Tolimán	10	San Lucas Tolimán	12	Diciembre	2023-12-16T00:00:00	2024-11-08T13:00:00	8	Radiación solar	803
165345	7	Sololá	713	San Lucas Tolimán	10	San Lucas Tolimán	12	Diciembre	2023-12-16T00:00:00	2024-11-08T14:00:00	2	Temperatura media	21.8
165346	7	Sololá	713	San Lucas Tolimán	10	San Lucas Tolimán	12	Diciembre	2023-12-16T00:00:00	2024-11-08T14:00:00	4	Temperatura máxima	23
165347	7	Sololá	713	San Lucas Tolimán	10	San Lucas Tolimán	12	Diciembre	2023-12-16T00:00:00	2024-11-08T14:00:00	3	Temperatura mínima	21.4
165348	7	Sololá	713	San Lucas Tolimán	10	San Lucas Tolimán	12	Diciembre	2023-12-16T00:00:00	2024-11-08T14:00:00	5	Humedad	62
165349	7	Sololá	713	San Lucas Tolimán	10	San Lucas Tolimán	12	Diciembre	2023-12-16T00:00:00	2024-11-08T14:00:00	6	Velocidad del viento	11.3
165350	7	Sololá	713	San Lucas Tolimán	10	San Lucas Tolimán	12	Diciembre	2023-12-16T00:00:00	2024-11-08T14:00:00	7	Dirección del viento	11.27
165351	7	Sololá	713	San Lucas Tolimán	10	San Lucas Tolimán	12	Diciembre	2023-12-16T00:00:00	2024-11-08T14:00:00	1	Precipitación	0
165352	7	Sololá	713	San Lucas Tolimán	10	San Lucas Tolimán	12	Diciembre	2023-12-16T00:00:00	2024-11-08T14:00:00	8	Radiación solar	630
165353	7	Sololá	713	San Lucas Tolimán	10	San Lucas Tolimán	12	Diciembre	2023-12-16T00:00:00	2024-11-08T15:00:00	2	Temperatura media	21.6
165354	7	Sololá	713	San Lucas Tolimán	10	San Lucas Tolimán	12	Diciembre	2023-12-16T00:00:00	2024-11-08T15:00:00	4	Temperatura máxima	21.9
165355	7	Sololá	713	San Lucas Tolimán	10	San Lucas Tolimán	12	Diciembre	2023-12-16T00:00:00	2024-11-08T15:00:00	3	Temperatura mínima	21.2
165356	7	Sololá	713	San Lucas Tolimán	10	San Lucas Tolimán	12	Diciembre	2023-12-16T00:00:00	2024-11-08T15:00:00	5	Humedad	62
165357	7	Sololá	713	San Lucas Tolimán	10	San Lucas Tolimán	12	Diciembre	2023-12-16T00:00:00	2024-11-08T15:00:00	6	Velocidad del viento	9.7
165358	7	Sololá	713	San Lucas Tolimán	10	San Lucas Tolimán	12	Diciembre	2023-12-16T00:00:00	2024-11-08T15:00:00	7	Dirección del viento	9.66
165359	7	Sololá	713	San Lucas Tolimán	10	San Lucas Tolimán	12	Diciembre	2023-12-16T00:00:00	2024-11-08T15:00:00	1	Precipitación	0
165360	7	Sololá	713	San Lucas Tolimán	10	San Lucas Tolimán	12	Diciembre	2023-12-16T00:00:00	2024-11-08T15:00:00	8	Radiación solar	432
165361	7	Sololá	713	San Lucas Tolimán	10	San Lucas Tolimán	12	Diciembre	2023-12-16T00:00:00	2024-11-08T16:00:00	2	Temperatura media	20.2
165362	7	Sololá	713	San Lucas Tolimán	10	San Lucas Tolimán	12	Diciembre	2023-12-16T00:00:00	2024-11-08T16:00:00	4	Temperatura máxima	21.6
165363	7	Sololá	713	San Lucas Tolimán	10	San Lucas Tolimán	12	Diciembre	2023-12-16T00:00:00	2024-11-08T16:00:00	3	Temperatura mínima	20.2
165364	7	Sololá	713	San Lucas Tolimán	10	San Lucas Tolimán	12	Diciembre	2023-12-16T00:00:00	2024-11-08T16:00:00	5	Humedad	63
165365	7	Sololá	713	San Lucas Tolimán	10	San Lucas Tolimán	12	Diciembre	2023-12-16T00:00:00	2024-11-08T16:00:00	6	Velocidad del viento	11.3
165366	7	Sololá	713	San Lucas Tolimán	10	San Lucas Tolimán	12	Diciembre	2023-12-16T00:00:00	2024-11-08T16:00:00	7	Dirección del viento	11.27
165367	7	Sololá	713	San Lucas Tolimán	10	San Lucas Tolimán	12	Diciembre	2023-12-16T00:00:00	2024-11-08T16:00:00	1	Precipitación	0
165368	7	Sololá	713	San Lucas Tolimán	10	San Lucas Tolimán	12	Diciembre	2023-12-16T00:00:00	2024-11-08T16:00:00	8	Radiación solar	208
165369	7	Sololá	713	San Lucas Tolimán	10	San Lucas Tolimán	12	Diciembre	2023-12-16T00:00:00	2024-11-08T17:00:00	2	Temperatura media	19.4
165370	7	Sololá	713	San Lucas Tolimán	10	San Lucas Tolimán	12	Diciembre	2023-12-16T00:00:00	2024-11-08T17:00:00	4	Temperatura máxima	20.2
165371	7	Sololá	713	San Lucas Tolimán	10	San Lucas Tolimán	12	Diciembre	2023-12-16T00:00:00	2024-11-08T17:00:00	3	Temperatura mínima	19.4
165372	7	Sololá	713	San Lucas Tolimán	10	San Lucas Tolimán	12	Diciembre	2023-12-16T00:00:00	2024-11-08T17:00:00	5	Humedad	61
165373	7	Sololá	713	San Lucas Tolimán	10	San Lucas Tolimán	12	Diciembre	2023-12-16T00:00:00	2024-11-08T17:00:00	6	Velocidad del viento	8
165374	7	Sololá	713	San Lucas Tolimán	10	San Lucas Tolimán	12	Diciembre	2023-12-16T00:00:00	2024-11-08T17:00:00	7	Dirección del viento	8.05
165375	7	Sololá	713	San Lucas Tolimán	10	San Lucas Tolimán	12	Diciembre	2023-12-16T00:00:00	2024-11-08T17:00:00	1	Precipitación	0
165376	7	Sololá	713	San Lucas Tolimán	10	San Lucas Tolimán	12	Diciembre	2023-12-16T00:00:00	2024-11-08T17:00:00	8	Radiación solar	92
165377	7	Sololá	713	San Lucas Tolimán	10	San Lucas Tolimán	12	Diciembre	2023-12-16T00:00:00	2024-11-08T18:00:00	2	Temperatura media	18.7
165378	7	Sololá	713	San Lucas Tolimán	10	San Lucas Tolimán	12	Diciembre	2023-12-16T00:00:00	2024-11-08T18:00:00	4	Temperatura máxima	19.4
165379	7	Sololá	713	San Lucas Tolimán	10	San Lucas Tolimán	12	Diciembre	2023-12-16T00:00:00	2024-11-08T18:00:00	3	Temperatura mínima	18.7
165380	7	Sololá	713	San Lucas Tolimán	10	San Lucas Tolimán	12	Diciembre	2023-12-16T00:00:00	2024-11-08T18:00:00	5	Humedad	61
165381	7	Sololá	713	San Lucas Tolimán	10	San Lucas Tolimán	12	Diciembre	2023-12-16T00:00:00	2024-11-08T18:00:00	6	Velocidad del viento	6.4
165382	7	Sololá	713	San Lucas Tolimán	10	San Lucas Tolimán	12	Diciembre	2023-12-16T00:00:00	2024-11-08T18:00:00	7	Dirección del viento	6.44
165383	7	Sololá	713	San Lucas Tolimán	10	San Lucas Tolimán	12	Diciembre	2023-12-16T00:00:00	2024-11-08T18:00:00	1	Precipitación	0
165384	7	Sololá	713	San Lucas Tolimán	10	San Lucas Tolimán	12	Diciembre	2023-12-16T00:00:00	2024-11-08T18:00:00	8	Radiación solar	7
165385	7	Sololá	713	San Lucas Tolimán	10	San Lucas Tolimán	12	Diciembre	2023-12-16T00:00:00	2024-11-08T19:00:00	2	Temperatura media	17.9
165386	7	Sololá	713	San Lucas Tolimán	10	San Lucas Tolimán	12	Diciembre	2023-12-16T00:00:00	2024-11-08T19:00:00	4	Temperatura máxima	18.7
165387	7	Sololá	713	San Lucas Tolimán	10	San Lucas Tolimán	12	Diciembre	2023-12-16T00:00:00	2024-11-08T19:00:00	3	Temperatura mínima	17.9
165388	7	Sololá	713	San Lucas Tolimán	10	San Lucas Tolimán	12	Diciembre	2023-12-16T00:00:00	2024-11-08T19:00:00	5	Humedad	59
165389	7	Sololá	713	San Lucas Tolimán	10	San Lucas Tolimán	12	Diciembre	2023-12-16T00:00:00	2024-11-08T19:00:00	6	Velocidad del viento	3.2
165390	7	Sololá	713	San Lucas Tolimán	10	San Lucas Tolimán	12	Diciembre	2023-12-16T00:00:00	2024-11-08T19:00:00	7	Dirección del viento	3.22
165391	7	Sololá	713	San Lucas Tolimán	10	San Lucas Tolimán	12	Diciembre	2023-12-16T00:00:00	2024-11-08T19:00:00	1	Precipitación	0
165392	7	Sololá	713	San Lucas Tolimán	10	San Lucas Tolimán	12	Diciembre	2023-12-16T00:00:00	2024-11-08T19:00:00	8	Radiación solar	0
165393	7	Sololá	713	San Lucas Tolimán	10	San Lucas Tolimán	12	Diciembre	2023-12-16T00:00:00	2024-11-08T20:00:00	2	Temperatura media	17.4
165394	7	Sololá	713	San Lucas Tolimán	10	San Lucas Tolimán	12	Diciembre	2023-12-16T00:00:00	2024-11-08T20:00:00	4	Temperatura máxima	18.2
165395	7	Sololá	713	San Lucas Tolimán	10	San Lucas Tolimán	12	Diciembre	2023-12-16T00:00:00	2024-11-08T20:00:00	3	Temperatura mínima	17.4
165396	7	Sololá	713	San Lucas Tolimán	10	San Lucas Tolimán	12	Diciembre	2023-12-16T00:00:00	2024-11-08T20:00:00	5	Humedad	60
165397	7	Sololá	713	San Lucas Tolimán	10	San Lucas Tolimán	12	Diciembre	2023-12-16T00:00:00	2024-11-08T20:00:00	6	Velocidad del viento	3.2
165398	7	Sololá	713	San Lucas Tolimán	10	San Lucas Tolimán	12	Diciembre	2023-12-16T00:00:00	2024-11-08T20:00:00	7	Dirección del viento	3.22
165399	7	Sololá	713	San Lucas Tolimán	10	San Lucas Tolimán	12	Diciembre	2023-12-16T00:00:00	2024-11-08T20:00:00	1	Precipitación	0
165400	7	Sololá	713	San Lucas Tolimán	10	San Lucas Tolimán	12	Diciembre	2023-12-16T00:00:00	2024-11-08T20:00:00	8	Radiación solar	0
165401	7	Sololá	713	San Lucas Tolimán	10	San Lucas Tolimán	12	Diciembre	2023-12-16T00:00:00	2024-11-08T21:00:00	2	Temperatura media	18.2
165402	7	Sololá	713	San Lucas Tolimán	10	San Lucas Tolimán	12	Diciembre	2023-12-16T00:00:00	2024-11-08T21:00:00	4	Temperatura máxima	18.2
165403	7	Sololá	713	San Lucas Tolimán	10	San Lucas Tolimán	12	Diciembre	2023-12-16T00:00:00	2024-11-08T21:00:00	3	Temperatura mínima	17.3
165404	7	Sololá	713	San Lucas Tolimán	10	San Lucas Tolimán	12	Diciembre	2023-12-16T00:00:00	2024-11-08T21:00:00	5	Humedad	57
165405	7	Sololá	713	San Lucas Tolimán	10	San Lucas Tolimán	12	Diciembre	2023-12-16T00:00:00	2024-11-08T21:00:00	6	Velocidad del viento	1.6
165406	7	Sololá	713	San Lucas Tolimán	10	San Lucas Tolimán	12	Diciembre	2023-12-16T00:00:00	2024-11-08T21:00:00	7	Dirección del viento	1.61
165407	7	Sololá	713	San Lucas Tolimán	10	San Lucas Tolimán	12	Diciembre	2023-12-16T00:00:00	2024-11-08T21:00:00	1	Precipitación	0
165408	7	Sololá	713	San Lucas Tolimán	10	San Lucas Tolimán	12	Diciembre	2023-12-16T00:00:00	2024-11-08T21:00:00	8	Radiación solar	0
165409	7	Sololá	713	San Lucas Tolimán	10	San Lucas Tolimán	12	Diciembre	2023-12-16T00:00:00	2024-11-08T22:00:00	2	Temperatura media	18.4
165410	7	Sololá	713	San Lucas Tolimán	10	San Lucas Tolimán	12	Diciembre	2023-12-16T00:00:00	2024-11-08T22:00:00	4	Temperatura máxima	18.6
165411	7	Sololá	713	San Lucas Tolimán	10	San Lucas Tolimán	12	Diciembre	2023-12-16T00:00:00	2024-11-08T22:00:00	3	Temperatura mínima	18.1
165412	7	Sololá	713	San Lucas Tolimán	10	San Lucas Tolimán	12	Diciembre	2023-12-16T00:00:00	2024-11-08T22:00:00	5	Humedad	58
165413	7	Sololá	713	San Lucas Tolimán	10	San Lucas Tolimán	12	Diciembre	2023-12-16T00:00:00	2024-11-08T22:00:00	6	Velocidad del viento	3.2
165414	7	Sololá	713	San Lucas Tolimán	10	San Lucas Tolimán	12	Diciembre	2023-12-16T00:00:00	2024-11-08T22:00:00	7	Dirección del viento	3.22
165415	7	Sololá	713	San Lucas Tolimán	10	San Lucas Tolimán	12	Diciembre	2023-12-16T00:00:00	2024-11-08T22:00:00	1	Precipitación	0
165416	7	Sololá	713	San Lucas Tolimán	10	San Lucas Tolimán	12	Diciembre	2023-12-16T00:00:00	2024-11-08T22:00:00	8	Radiación solar	0
165417	7	Sololá	713	San Lucas Tolimán	10	San Lucas Tolimán	12	Diciembre	2023-12-16T00:00:00	2024-11-08T23:00:00	2	Temperatura media	18.4
165418	7	Sololá	713	San Lucas Tolimán	10	San Lucas Tolimán	12	Diciembre	2023-12-16T00:00:00	2024-11-08T23:00:00	4	Temperatura máxima	18.7
165419	7	Sololá	713	San Lucas Tolimán	10	San Lucas Tolimán	12	Diciembre	2023-12-16T00:00:00	2024-11-08T23:00:00	3	Temperatura mínima	18.4
165420	7	Sololá	713	San Lucas Tolimán	10	San Lucas Tolimán	12	Diciembre	2023-12-16T00:00:00	2024-11-08T23:00:00	5	Humedad	58
165421	7	Sololá	713	San Lucas Tolimán	10	San Lucas Tolimán	12	Diciembre	2023-12-16T00:00:00	2024-11-08T23:00:00	6	Velocidad del viento	3.2
165422	7	Sololá	713	San Lucas Tolimán	10	San Lucas Tolimán	12	Diciembre	2023-12-16T00:00:00	2024-11-08T23:00:00	7	Dirección del viento	3.22
165423	7	Sololá	713	San Lucas Tolimán	10	San Lucas Tolimán	12	Diciembre	2023-12-16T00:00:00	2024-11-08T23:00:00	1	Precipitación	0
165424	7	Sololá	713	San Lucas Tolimán	10	San Lucas Tolimán	12	Diciembre	2023-12-16T00:00:00	2024-11-08T23:00:00	8	Radiación solar	0
165425	7	Sololá	713	San Lucas Tolimán	10	San Lucas Tolimán	12	Diciembre	2023-12-17T00:00:00	2024-11-08T00:00:00	2	Temperatura media	17.9
165426	7	Sololá	713	San Lucas Tolimán	10	San Lucas Tolimán	12	Diciembre	2023-12-17T00:00:00	2024-11-08T00:00:00	4	Temperatura máxima	18.4
165427	7	Sololá	713	San Lucas Tolimán	10	San Lucas Tolimán	12	Diciembre	2023-12-17T00:00:00	2024-11-08T00:00:00	3	Temperatura mínima	17.8
165428	7	Sololá	713	San Lucas Tolimán	10	San Lucas Tolimán	12	Diciembre	2023-12-17T00:00:00	2024-11-08T00:00:00	5	Humedad	59
165429	7	Sololá	713	San Lucas Tolimán	10	San Lucas Tolimán	12	Diciembre	2023-12-17T00:00:00	2024-11-08T00:00:00	6	Velocidad del viento	4.8
165430	7	Sololá	713	San Lucas Tolimán	10	San Lucas Tolimán	12	Diciembre	2023-12-17T00:00:00	2024-11-08T00:00:00	7	Dirección del viento	4.83
165431	7	Sololá	713	San Lucas Tolimán	10	San Lucas Tolimán	12	Diciembre	2023-12-17T00:00:00	2024-11-08T00:00:00	1	Precipitación	0
165432	7	Sololá	713	San Lucas Tolimán	10	San Lucas Tolimán	12	Diciembre	2023-12-17T00:00:00	2024-11-08T00:00:00	8	Radiación solar	0
165433	7	Sololá	713	San Lucas Tolimán	10	San Lucas Tolimán	12	Diciembre	2023-12-17T00:00:00	2024-11-08T01:00:00	2	Temperatura media	17.6
165434	7	Sololá	713	San Lucas Tolimán	10	San Lucas Tolimán	12	Diciembre	2023-12-17T00:00:00	2024-11-08T01:00:00	4	Temperatura máxima	18.6
165435	7	Sololá	713	San Lucas Tolimán	10	San Lucas Tolimán	12	Diciembre	2023-12-17T00:00:00	2024-11-08T01:00:00	3	Temperatura mínima	17.6
165436	7	Sololá	713	San Lucas Tolimán	10	San Lucas Tolimán	12	Diciembre	2023-12-17T00:00:00	2024-11-08T01:00:00	5	Humedad	60
165437	7	Sololá	713	San Lucas Tolimán	10	San Lucas Tolimán	12	Diciembre	2023-12-17T00:00:00	2024-11-08T01:00:00	6	Velocidad del viento	6.4
165438	7	Sololá	713	San Lucas Tolimán	10	San Lucas Tolimán	12	Diciembre	2023-12-17T00:00:00	2024-11-08T01:00:00	7	Dirección del viento	6.44
165439	7	Sololá	713	San Lucas Tolimán	10	San Lucas Tolimán	12	Diciembre	2023-12-17T00:00:00	2024-11-08T01:00:00	1	Precipitación	0
165440	7	Sololá	713	San Lucas Tolimán	10	San Lucas Tolimán	12	Diciembre	2023-12-17T00:00:00	2024-11-08T01:00:00	8	Radiación solar	0
165441	7	Sololá	713	San Lucas Tolimán	10	San Lucas Tolimán	12	Diciembre	2023-12-17T00:00:00	2024-11-08T02:00:00	2	Temperatura media	17.2
165442	7	Sololá	713	San Lucas Tolimán	10	San Lucas Tolimán	12	Diciembre	2023-12-17T00:00:00	2024-11-08T02:00:00	4	Temperatura máxima	18.2
165443	7	Sololá	713	San Lucas Tolimán	10	San Lucas Tolimán	12	Diciembre	2023-12-17T00:00:00	2024-11-08T02:00:00	3	Temperatura mínima	17.2
165444	7	Sololá	713	San Lucas Tolimán	10	San Lucas Tolimán	12	Diciembre	2023-12-17T00:00:00	2024-11-08T02:00:00	5	Humedad	60
165445	7	Sololá	713	San Lucas Tolimán	10	San Lucas Tolimán	12	Diciembre	2023-12-17T00:00:00	2024-11-08T02:00:00	6	Velocidad del viento	4.8
165446	7	Sololá	713	San Lucas Tolimán	10	San Lucas Tolimán	12	Diciembre	2023-12-17T00:00:00	2024-11-08T02:00:00	7	Dirección del viento	4.83
165447	7	Sololá	713	San Lucas Tolimán	10	San Lucas Tolimán	12	Diciembre	2023-12-17T00:00:00	2024-11-08T02:00:00	1	Precipitación	0
165448	7	Sololá	713	San Lucas Tolimán	10	San Lucas Tolimán	12	Diciembre	2023-12-17T00:00:00	2024-11-08T02:00:00	8	Radiación solar	0
165449	7	Sololá	713	San Lucas Tolimán	10	San Lucas Tolimán	12	Diciembre	2023-12-17T00:00:00	2024-11-08T03:00:00	2	Temperatura media	17
165450	7	Sololá	713	San Lucas Tolimán	10	San Lucas Tolimán	12	Diciembre	2023-12-17T00:00:00	2024-11-08T03:00:00	4	Temperatura máxima	17.2
165451	7	Sololá	713	San Lucas Tolimán	10	San Lucas Tolimán	12	Diciembre	2023-12-17T00:00:00	2024-11-08T03:00:00	3	Temperatura mínima	16.6
165452	7	Sololá	713	San Lucas Tolimán	10	San Lucas Tolimán	12	Diciembre	2023-12-17T00:00:00	2024-11-08T03:00:00	5	Humedad	60
165453	7	Sololá	713	San Lucas Tolimán	10	San Lucas Tolimán	12	Diciembre	2023-12-17T00:00:00	2024-11-08T03:00:00	6	Velocidad del viento	3.2
165454	7	Sololá	713	San Lucas Tolimán	10	San Lucas Tolimán	12	Diciembre	2023-12-17T00:00:00	2024-11-08T03:00:00	7	Dirección del viento	3.22
165455	7	Sololá	713	San Lucas Tolimán	10	San Lucas Tolimán	12	Diciembre	2023-12-17T00:00:00	2024-11-08T03:00:00	1	Precipitación	0
165456	7	Sololá	713	San Lucas Tolimán	10	San Lucas Tolimán	12	Diciembre	2023-12-17T00:00:00	2024-11-08T03:00:00	8	Radiación solar	0
165457	7	Sololá	713	San Lucas Tolimán	10	San Lucas Tolimán	12	Diciembre	2023-12-17T00:00:00	2024-11-08T04:00:00	2	Temperatura media	17.1
165458	7	Sololá	713	San Lucas Tolimán	10	San Lucas Tolimán	12	Diciembre	2023-12-17T00:00:00	2024-11-08T04:00:00	4	Temperatura máxima	17.4
165459	7	Sololá	713	San Lucas Tolimán	10	San Lucas Tolimán	12	Diciembre	2023-12-17T00:00:00	2024-11-08T04:00:00	3	Temperatura mínima	17
165460	7	Sololá	713	San Lucas Tolimán	10	San Lucas Tolimán	12	Diciembre	2023-12-17T00:00:00	2024-11-08T04:00:00	5	Humedad	58
165461	7	Sololá	713	San Lucas Tolimán	10	San Lucas Tolimán	12	Diciembre	2023-12-17T00:00:00	2024-11-08T04:00:00	6	Velocidad del viento	1.6
165462	7	Sololá	713	San Lucas Tolimán	10	San Lucas Tolimán	12	Diciembre	2023-12-17T00:00:00	2024-11-08T04:00:00	7	Dirección del viento	1.61
165463	7	Sololá	713	San Lucas Tolimán	10	San Lucas Tolimán	12	Diciembre	2023-12-17T00:00:00	2024-11-08T04:00:00	1	Precipitación	0
165464	7	Sololá	713	San Lucas Tolimán	10	San Lucas Tolimán	12	Diciembre	2023-12-17T00:00:00	2024-11-08T04:00:00	8	Radiación solar	0
165465	7	Sololá	713	San Lucas Tolimán	10	San Lucas Tolimán	12	Diciembre	2023-12-17T00:00:00	2024-11-08T05:00:00	2	Temperatura media	16.8
165466	7	Sololá	713	San Lucas Tolimán	10	San Lucas Tolimán	12	Diciembre	2023-12-17T00:00:00	2024-11-08T05:00:00	4	Temperatura máxima	17.2
165467	7	Sololá	713	San Lucas Tolimán	10	San Lucas Tolimán	12	Diciembre	2023-12-17T00:00:00	2024-11-08T05:00:00	3	Temperatura mínima	16.8
165468	7	Sololá	713	San Lucas Tolimán	10	San Lucas Tolimán	12	Diciembre	2023-12-17T00:00:00	2024-11-08T05:00:00	5	Humedad	56
165469	7	Sololá	713	San Lucas Tolimán	10	San Lucas Tolimán	12	Diciembre	2023-12-17T00:00:00	2024-11-08T05:00:00	6	Velocidad del viento	1.6
165470	7	Sololá	713	San Lucas Tolimán	10	San Lucas Tolimán	12	Diciembre	2023-12-17T00:00:00	2024-11-08T05:00:00	7	Dirección del viento	1.61
165471	7	Sololá	713	San Lucas Tolimán	10	San Lucas Tolimán	12	Diciembre	2023-12-17T00:00:00	2024-11-08T05:00:00	1	Precipitación	0
165472	7	Sololá	713	San Lucas Tolimán	10	San Lucas Tolimán	12	Diciembre	2023-12-17T00:00:00	2024-11-08T05:00:00	8	Radiación solar	0
165473	7	Sololá	713	San Lucas Tolimán	10	San Lucas Tolimán	12	Diciembre	2023-12-17T00:00:00	2024-11-08T06:00:00	2	Temperatura media	16.9
165474	7	Sololá	713	San Lucas Tolimán	10	San Lucas Tolimán	12	Diciembre	2023-12-17T00:00:00	2024-11-08T06:00:00	4	Temperatura máxima	17
165475	7	Sololá	713	San Lucas Tolimán	10	San Lucas Tolimán	12	Diciembre	2023-12-17T00:00:00	2024-11-08T06:00:00	3	Temperatura mínima	16.7
165476	7	Sololá	713	San Lucas Tolimán	10	San Lucas Tolimán	12	Diciembre	2023-12-17T00:00:00	2024-11-08T06:00:00	5	Humedad	56
165477	7	Sololá	713	San Lucas Tolimán	10	San Lucas Tolimán	12	Diciembre	2023-12-17T00:00:00	2024-11-08T06:00:00	6	Velocidad del viento	3.2
165478	7	Sololá	713	San Lucas Tolimán	10	San Lucas Tolimán	12	Diciembre	2023-12-17T00:00:00	2024-11-08T06:00:00	7	Dirección del viento	3.22
165479	7	Sololá	713	San Lucas Tolimán	10	San Lucas Tolimán	12	Diciembre	2023-12-17T00:00:00	2024-11-08T06:00:00	1	Precipitación	0
165480	7	Sololá	713	San Lucas Tolimán	10	San Lucas Tolimán	12	Diciembre	2023-12-17T00:00:00	2024-11-08T06:00:00	8	Radiación solar	0
165481	7	Sololá	713	San Lucas Tolimán	10	San Lucas Tolimán	12	Diciembre	2023-12-17T00:00:00	2024-11-08T07:00:00	2	Temperatura media	16.8
165482	7	Sololá	713	San Lucas Tolimán	10	San Lucas Tolimán	12	Diciembre	2023-12-17T00:00:00	2024-11-08T07:00:00	4	Temperatura máxima	16.9
165483	7	Sololá	713	San Lucas Tolimán	10	San Lucas Tolimán	12	Diciembre	2023-12-17T00:00:00	2024-11-08T07:00:00	3	Temperatura mínima	16.6
165484	7	Sololá	713	San Lucas Tolimán	10	San Lucas Tolimán	12	Diciembre	2023-12-17T00:00:00	2024-11-08T07:00:00	5	Humedad	56
165485	7	Sololá	713	San Lucas Tolimán	10	San Lucas Tolimán	12	Diciembre	2023-12-17T00:00:00	2024-11-08T07:00:00	6	Velocidad del viento	3.2
165486	7	Sololá	713	San Lucas Tolimán	10	San Lucas Tolimán	12	Diciembre	2023-12-17T00:00:00	2024-11-08T07:00:00	7	Dirección del viento	3.22
165487	7	Sololá	713	San Lucas Tolimán	10	San Lucas Tolimán	12	Diciembre	2023-12-17T00:00:00	2024-11-08T07:00:00	1	Precipitación	0
165488	7	Sololá	713	San Lucas Tolimán	10	San Lucas Tolimán	12	Diciembre	2023-12-17T00:00:00	2024-11-08T07:00:00	8	Radiación solar	7
165489	7	Sololá	713	San Lucas Tolimán	10	San Lucas Tolimán	12	Diciembre	2023-12-17T00:00:00	2024-11-08T08:00:00	2	Temperatura media	17.5
165490	7	Sololá	713	San Lucas Tolimán	10	San Lucas Tolimán	12	Diciembre	2023-12-17T00:00:00	2024-11-08T08:00:00	4	Temperatura máxima	17.6
165491	7	Sololá	713	San Lucas Tolimán	10	San Lucas Tolimán	12	Diciembre	2023-12-17T00:00:00	2024-11-08T08:00:00	3	Temperatura mínima	16.8
165492	7	Sololá	713	San Lucas Tolimán	10	San Lucas Tolimán	12	Diciembre	2023-12-17T00:00:00	2024-11-08T08:00:00	5	Humedad	54
165493	7	Sololá	713	San Lucas Tolimán	10	San Lucas Tolimán	12	Diciembre	2023-12-17T00:00:00	2024-11-08T08:00:00	6	Velocidad del viento	3.2
165494	7	Sololá	713	San Lucas Tolimán	10	San Lucas Tolimán	12	Diciembre	2023-12-17T00:00:00	2024-11-08T08:00:00	7	Dirección del viento	3.22
165495	7	Sololá	713	San Lucas Tolimán	10	San Lucas Tolimán	12	Diciembre	2023-12-17T00:00:00	2024-11-08T08:00:00	1	Precipitación	0
165496	7	Sololá	713	San Lucas Tolimán	10	San Lucas Tolimán	12	Diciembre	2023-12-17T00:00:00	2024-11-08T08:00:00	8	Radiación solar	26
165497	7	Sololá	713	San Lucas Tolimán	10	San Lucas Tolimán	12	Diciembre	2023-12-17T00:00:00	2024-11-08T09:00:00	2	Temperatura media	20.1
165498	7	Sololá	713	San Lucas Tolimán	10	San Lucas Tolimán	12	Diciembre	2023-12-17T00:00:00	2024-11-08T09:00:00	4	Temperatura máxima	20.1
165499	7	Sololá	713	San Lucas Tolimán	10	San Lucas Tolimán	12	Diciembre	2023-12-17T00:00:00	2024-11-08T09:00:00	3	Temperatura mínima	17.5
165500	7	Sololá	713	San Lucas Tolimán	10	San Lucas Tolimán	12	Diciembre	2023-12-17T00:00:00	2024-11-08T09:00:00	5	Humedad	49
165501	7	Sololá	713	San Lucas Tolimán	10	San Lucas Tolimán	12	Diciembre	2023-12-17T00:00:00	2024-11-08T09:00:00	6	Velocidad del viento	4.8
165502	7	Sololá	713	San Lucas Tolimán	10	San Lucas Tolimán	12	Diciembre	2023-12-17T00:00:00	2024-11-08T09:00:00	7	Dirección del viento	4.83
165503	7	Sololá	713	San Lucas Tolimán	10	San Lucas Tolimán	12	Diciembre	2023-12-17T00:00:00	2024-11-08T09:00:00	1	Precipitación	0
165504	7	Sololá	713	San Lucas Tolimán	10	San Lucas Tolimán	12	Diciembre	2023-12-17T00:00:00	2024-11-08T09:00:00	8	Radiación solar	315
165505	7	Sololá	713	San Lucas Tolimán	10	San Lucas Tolimán	12	Diciembre	2023-12-17T00:00:00	2024-11-08T10:00:00	2	Temperatura media	22.3
165506	7	Sololá	713	San Lucas Tolimán	10	San Lucas Tolimán	12	Diciembre	2023-12-17T00:00:00	2024-11-08T10:00:00	4	Temperatura máxima	22.4
165507	7	Sololá	713	San Lucas Tolimán	10	San Lucas Tolimán	12	Diciembre	2023-12-17T00:00:00	2024-11-08T10:00:00	3	Temperatura mínima	20.1
165508	7	Sololá	713	San Lucas Tolimán	10	San Lucas Tolimán	12	Diciembre	2023-12-17T00:00:00	2024-11-08T10:00:00	5	Humedad	42
165509	7	Sololá	713	San Lucas Tolimán	10	San Lucas Tolimán	12	Diciembre	2023-12-17T00:00:00	2024-11-08T10:00:00	6	Velocidad del viento	4.8
165510	7	Sololá	713	San Lucas Tolimán	10	San Lucas Tolimán	12	Diciembre	2023-12-17T00:00:00	2024-11-08T10:00:00	7	Dirección del viento	4.83
165511	7	Sololá	713	San Lucas Tolimán	10	San Lucas Tolimán	12	Diciembre	2023-12-17T00:00:00	2024-11-08T10:00:00	1	Precipitación	0
165512	7	Sololá	713	San Lucas Tolimán	10	San Lucas Tolimán	12	Diciembre	2023-12-17T00:00:00	2024-11-08T10:00:00	8	Radiación solar	604
165513	7	Sololá	713	San Lucas Tolimán	10	San Lucas Tolimán	12	Diciembre	2023-12-17T00:00:00	2024-11-08T11:00:00	2	Temperatura media	23.8
165514	7	Sololá	713	San Lucas Tolimán	10	San Lucas Tolimán	12	Diciembre	2023-12-17T00:00:00	2024-11-08T11:00:00	4	Temperatura máxima	23.8
165515	7	Sololá	713	San Lucas Tolimán	10	San Lucas Tolimán	12	Diciembre	2023-12-17T00:00:00	2024-11-08T11:00:00	3	Temperatura mínima	22.2
165516	7	Sololá	713	San Lucas Tolimán	10	San Lucas Tolimán	12	Diciembre	2023-12-17T00:00:00	2024-11-08T11:00:00	5	Humedad	46
165517	7	Sololá	713	San Lucas Tolimán	10	San Lucas Tolimán	12	Diciembre	2023-12-17T00:00:00	2024-11-08T11:00:00	6	Velocidad del viento	4.8
165518	7	Sololá	713	San Lucas Tolimán	10	San Lucas Tolimán	12	Diciembre	2023-12-17T00:00:00	2024-11-08T11:00:00	7	Dirección del viento	4.83
165519	7	Sololá	713	San Lucas Tolimán	10	San Lucas Tolimán	12	Diciembre	2023-12-17T00:00:00	2024-11-08T11:00:00	1	Precipitación	0
165520	7	Sololá	713	San Lucas Tolimán	10	San Lucas Tolimán	12	Diciembre	2023-12-17T00:00:00	2024-11-08T11:00:00	8	Radiación solar	752
165521	7	Sololá	713	San Lucas Tolimán	10	San Lucas Tolimán	12	Diciembre	2023-12-17T00:00:00	2024-11-08T12:00:00	2	Temperatura media	23.4
165522	7	Sololá	713	San Lucas Tolimán	10	San Lucas Tolimán	12	Diciembre	2023-12-17T00:00:00	2024-11-08T12:00:00	4	Temperatura máxima	24.4
165523	7	Sololá	713	San Lucas Tolimán	10	San Lucas Tolimán	12	Diciembre	2023-12-17T00:00:00	2024-11-08T12:00:00	3	Temperatura mínima	23.2
165524	7	Sololá	713	San Lucas Tolimán	10	San Lucas Tolimán	12	Diciembre	2023-12-17T00:00:00	2024-11-08T12:00:00	5	Humedad	53
165525	7	Sololá	713	San Lucas Tolimán	10	San Lucas Tolimán	12	Diciembre	2023-12-17T00:00:00	2024-11-08T12:00:00	6	Velocidad del viento	4.8
165526	7	Sololá	713	San Lucas Tolimán	10	San Lucas Tolimán	12	Diciembre	2023-12-17T00:00:00	2024-11-08T12:00:00	7	Dirección del viento	4.83
165527	7	Sololá	713	San Lucas Tolimán	10	San Lucas Tolimán	12	Diciembre	2023-12-17T00:00:00	2024-11-08T12:00:00	1	Precipitación	0
165528	7	Sololá	713	San Lucas Tolimán	10	San Lucas Tolimán	12	Diciembre	2023-12-17T00:00:00	2024-11-08T12:00:00	8	Radiación solar	831
165529	7	Sololá	713	San Lucas Tolimán	10	San Lucas Tolimán	12	Diciembre	2023-12-17T00:00:00	2024-11-08T13:00:00	2	Temperatura media	21.6
165530	7	Sololá	713	San Lucas Tolimán	10	San Lucas Tolimán	12	Diciembre	2023-12-17T00:00:00	2024-11-08T13:00:00	4	Temperatura máxima	23.5
165531	7	Sololá	713	San Lucas Tolimán	10	San Lucas Tolimán	12	Diciembre	2023-12-17T00:00:00	2024-11-08T13:00:00	3	Temperatura mínima	21.6
165532	7	Sololá	713	San Lucas Tolimán	10	San Lucas Tolimán	12	Diciembre	2023-12-17T00:00:00	2024-11-08T13:00:00	5	Humedad	60
165533	7	Sololá	713	San Lucas Tolimán	10	San Lucas Tolimán	12	Diciembre	2023-12-17T00:00:00	2024-11-08T13:00:00	6	Velocidad del viento	11.3
165534	7	Sololá	713	San Lucas Tolimán	10	San Lucas Tolimán	12	Diciembre	2023-12-17T00:00:00	2024-11-08T13:00:00	7	Dirección del viento	11.27
165535	7	Sololá	713	San Lucas Tolimán	10	San Lucas Tolimán	12	Diciembre	2023-12-17T00:00:00	2024-11-08T13:00:00	1	Precipitación	0
165536	7	Sololá	713	San Lucas Tolimán	10	San Lucas Tolimán	12	Diciembre	2023-12-17T00:00:00	2024-11-08T13:00:00	8	Radiación solar	864
165537	7	Sololá	713	San Lucas Tolimán	10	San Lucas Tolimán	12	Diciembre	2023-12-17T00:00:00	2024-11-08T14:00:00	2	Temperatura media	21.1
165538	7	Sololá	713	San Lucas Tolimán	10	San Lucas Tolimán	12	Diciembre	2023-12-17T00:00:00	2024-11-08T14:00:00	4	Temperatura máxima	21.6
165539	7	Sololá	713	San Lucas Tolimán	10	San Lucas Tolimán	12	Diciembre	2023-12-17T00:00:00	2024-11-08T14:00:00	3	Temperatura mínima	20.3
165540	7	Sololá	713	San Lucas Tolimán	10	San Lucas Tolimán	12	Diciembre	2023-12-17T00:00:00	2024-11-08T14:00:00	5	Humedad	60
165541	7	Sololá	713	San Lucas Tolimán	10	San Lucas Tolimán	12	Diciembre	2023-12-17T00:00:00	2024-11-08T14:00:00	6	Velocidad del viento	9.7
165542	7	Sololá	713	San Lucas Tolimán	10	San Lucas Tolimán	12	Diciembre	2023-12-17T00:00:00	2024-11-08T14:00:00	7	Dirección del viento	9.66
165543	7	Sololá	713	San Lucas Tolimán	10	San Lucas Tolimán	12	Diciembre	2023-12-17T00:00:00	2024-11-08T14:00:00	1	Precipitación	0
165544	7	Sololá	713	San Lucas Tolimán	10	San Lucas Tolimán	12	Diciembre	2023-12-17T00:00:00	2024-11-08T14:00:00	8	Radiación solar	287
165545	7	Sololá	713	San Lucas Tolimán	10	San Lucas Tolimán	12	Diciembre	2023-12-17T00:00:00	2024-11-08T15:00:00	2	Temperatura media	19.9
165546	7	Sololá	713	San Lucas Tolimán	10	San Lucas Tolimán	12	Diciembre	2023-12-17T00:00:00	2024-11-08T15:00:00	4	Temperatura máxima	21.2
165547	7	Sololá	713	San Lucas Tolimán	10	San Lucas Tolimán	12	Diciembre	2023-12-17T00:00:00	2024-11-08T15:00:00	3	Temperatura mínima	19.9
165548	7	Sololá	713	San Lucas Tolimán	10	San Lucas Tolimán	12	Diciembre	2023-12-17T00:00:00	2024-11-08T15:00:00	5	Humedad	61
165549	7	Sololá	713	San Lucas Tolimán	10	San Lucas Tolimán	12	Diciembre	2023-12-17T00:00:00	2024-11-08T15:00:00	6	Velocidad del viento	11.3
165550	7	Sololá	713	San Lucas Tolimán	10	San Lucas Tolimán	12	Diciembre	2023-12-17T00:00:00	2024-11-08T15:00:00	7	Dirección del viento	11.27
165551	7	Sololá	713	San Lucas Tolimán	10	San Lucas Tolimán	12	Diciembre	2023-12-17T00:00:00	2024-11-08T15:00:00	1	Precipitación	0
165552	7	Sololá	713	San Lucas Tolimán	10	San Lucas Tolimán	12	Diciembre	2023-12-17T00:00:00	2024-11-08T15:00:00	8	Radiación solar	272
165553	7	Sololá	713	San Lucas Tolimán	10	San Lucas Tolimán	12	Diciembre	2023-12-17T00:00:00	2024-11-08T16:00:00	2	Temperatura media	19.1
165554	7	Sololá	713	San Lucas Tolimán	10	San Lucas Tolimán	12	Diciembre	2023-12-17T00:00:00	2024-11-08T16:00:00	4	Temperatura máxima	19.9
165555	7	Sololá	713	San Lucas Tolimán	10	San Lucas Tolimán	12	Diciembre	2023-12-17T00:00:00	2024-11-08T16:00:00	3	Temperatura mínima	19.1
165556	7	Sololá	713	San Lucas Tolimán	10	San Lucas Tolimán	12	Diciembre	2023-12-17T00:00:00	2024-11-08T16:00:00	5	Humedad	61
165557	7	Sololá	713	San Lucas Tolimán	10	San Lucas Tolimán	12	Diciembre	2023-12-17T00:00:00	2024-11-08T16:00:00	6	Velocidad del viento	9.7
165558	7	Sololá	713	San Lucas Tolimán	10	San Lucas Tolimán	12	Diciembre	2023-12-17T00:00:00	2024-11-08T16:00:00	7	Dirección del viento	9.66
165559	7	Sololá	713	San Lucas Tolimán	10	San Lucas Tolimán	12	Diciembre	2023-12-17T00:00:00	2024-11-08T16:00:00	1	Precipitación	0
165560	7	Sololá	713	San Lucas Tolimán	10	San Lucas Tolimán	12	Diciembre	2023-12-17T00:00:00	2024-11-08T16:00:00	8	Radiación solar	113
165561	7	Sololá	713	San Lucas Tolimán	10	San Lucas Tolimán	12	Diciembre	2023-12-17T00:00:00	2024-11-08T17:00:00	2	Temperatura media	19.7
165562	7	Sololá	713	San Lucas Tolimán	10	San Lucas Tolimán	12	Diciembre	2023-12-17T00:00:00	2024-11-08T17:00:00	4	Temperatura máxima	19.7
165563	7	Sololá	713	San Lucas Tolimán	10	San Lucas Tolimán	12	Diciembre	2023-12-17T00:00:00	2024-11-08T17:00:00	3	Temperatura mínima	18.8
165564	7	Sololá	713	San Lucas Tolimán	10	San Lucas Tolimán	12	Diciembre	2023-12-17T00:00:00	2024-11-08T17:00:00	5	Humedad	54
165565	7	Sololá	713	San Lucas Tolimán	10	San Lucas Tolimán	12	Diciembre	2023-12-17T00:00:00	2024-11-08T17:00:00	6	Velocidad del viento	3.2
165566	7	Sololá	713	San Lucas Tolimán	10	San Lucas Tolimán	12	Diciembre	2023-12-17T00:00:00	2024-11-08T17:00:00	7	Dirección del viento	3.22
165567	7	Sololá	713	San Lucas Tolimán	10	San Lucas Tolimán	12	Diciembre	2023-12-17T00:00:00	2024-11-08T17:00:00	1	Precipitación	0
165568	7	Sololá	713	San Lucas Tolimán	10	San Lucas Tolimán	12	Diciembre	2023-12-17T00:00:00	2024-11-08T17:00:00	8	Radiación solar	44
165569	7	Sololá	713	San Lucas Tolimán	10	San Lucas Tolimán	12	Diciembre	2023-12-17T00:00:00	2024-11-08T18:00:00	2	Temperatura media	19
165570	7	Sololá	713	San Lucas Tolimán	10	San Lucas Tolimán	12	Diciembre	2023-12-17T00:00:00	2024-11-08T18:00:00	4	Temperatura máxima	19.8
165571	7	Sololá	713	San Lucas Tolimán	10	San Lucas Tolimán	12	Diciembre	2023-12-17T00:00:00	2024-11-08T18:00:00	3	Temperatura mínima	19
165572	7	Sololá	713	San Lucas Tolimán	10	San Lucas Tolimán	12	Diciembre	2023-12-17T00:00:00	2024-11-08T18:00:00	5	Humedad	59
165573	7	Sololá	713	San Lucas Tolimán	10	San Lucas Tolimán	12	Diciembre	2023-12-17T00:00:00	2024-11-08T18:00:00	6	Velocidad del viento	3.2
165574	7	Sololá	713	San Lucas Tolimán	10	San Lucas Tolimán	12	Diciembre	2023-12-17T00:00:00	2024-11-08T18:00:00	7	Dirección del viento	3.22
165575	7	Sololá	713	San Lucas Tolimán	10	San Lucas Tolimán	12	Diciembre	2023-12-17T00:00:00	2024-11-08T18:00:00	1	Precipitación	0
165576	7	Sololá	713	San Lucas Tolimán	10	San Lucas Tolimán	12	Diciembre	2023-12-17T00:00:00	2024-11-08T18:00:00	8	Radiación solar	6
165577	7	Sololá	713	San Lucas Tolimán	10	San Lucas Tolimán	12	Diciembre	2023-12-17T00:00:00	2024-11-08T19:00:00	2	Temperatura media	17.9
165578	7	Sololá	713	San Lucas Tolimán	10	San Lucas Tolimán	12	Diciembre	2023-12-17T00:00:00	2024-11-08T19:00:00	4	Temperatura máxima	19
165579	7	Sololá	713	San Lucas Tolimán	10	San Lucas Tolimán	12	Diciembre	2023-12-17T00:00:00	2024-11-08T19:00:00	3	Temperatura mínima	17.9
165580	7	Sololá	713	San Lucas Tolimán	10	San Lucas Tolimán	12	Diciembre	2023-12-17T00:00:00	2024-11-08T19:00:00	5	Humedad	54
165581	7	Sololá	713	San Lucas Tolimán	10	San Lucas Tolimán	12	Diciembre	2023-12-17T00:00:00	2024-11-08T19:00:00	6	Velocidad del viento	1.6
165582	7	Sololá	713	San Lucas Tolimán	10	San Lucas Tolimán	12	Diciembre	2023-12-17T00:00:00	2024-11-08T19:00:00	7	Dirección del viento	1.61
165583	7	Sololá	713	San Lucas Tolimán	10	San Lucas Tolimán	12	Diciembre	2023-12-17T00:00:00	2024-11-08T19:00:00	1	Precipitación	0
165584	7	Sololá	713	San Lucas Tolimán	10	San Lucas Tolimán	12	Diciembre	2023-12-17T00:00:00	2024-11-08T19:00:00	8	Radiación solar	0
165585	7	Sololá	713	San Lucas Tolimán	10	San Lucas Tolimán	12	Diciembre	2023-12-17T00:00:00	2024-11-08T20:00:00	2	Temperatura media	17.8
165586	7	Sololá	713	San Lucas Tolimán	10	San Lucas Tolimán	12	Diciembre	2023-12-17T00:00:00	2024-11-08T20:00:00	4	Temperatura máxima	18.1
165587	7	Sololá	713	San Lucas Tolimán	10	San Lucas Tolimán	12	Diciembre	2023-12-17T00:00:00	2024-11-08T20:00:00	3	Temperatura mínima	17.2
165588	7	Sololá	713	San Lucas Tolimán	10	San Lucas Tolimán	12	Diciembre	2023-12-17T00:00:00	2024-11-08T20:00:00	5	Humedad	54
165589	7	Sololá	713	San Lucas Tolimán	10	San Lucas Tolimán	12	Diciembre	2023-12-17T00:00:00	2024-11-08T20:00:00	6	Velocidad del viento	1.6
165590	7	Sololá	713	San Lucas Tolimán	10	San Lucas Tolimán	12	Diciembre	2023-12-17T00:00:00	2024-11-08T20:00:00	7	Dirección del viento	1.61
165591	7	Sololá	713	San Lucas Tolimán	10	San Lucas Tolimán	12	Diciembre	2023-12-17T00:00:00	2024-11-08T20:00:00	1	Precipitación	0
165592	7	Sololá	713	San Lucas Tolimán	10	San Lucas Tolimán	12	Diciembre	2023-12-17T00:00:00	2024-11-08T20:00:00	8	Radiación solar	0
165593	7	Sololá	713	San Lucas Tolimán	10	San Lucas Tolimán	12	Diciembre	2023-12-17T00:00:00	2024-11-08T21:00:00	2	Temperatura media	17.8
165594	7	Sololá	713	San Lucas Tolimán	10	San Lucas Tolimán	12	Diciembre	2023-12-17T00:00:00	2024-11-08T21:00:00	4	Temperatura máxima	17.9
165595	7	Sololá	713	San Lucas Tolimán	10	San Lucas Tolimán	12	Diciembre	2023-12-17T00:00:00	2024-11-08T21:00:00	3	Temperatura mínima	17.7
165596	7	Sololá	713	San Lucas Tolimán	10	San Lucas Tolimán	12	Diciembre	2023-12-17T00:00:00	2024-11-08T21:00:00	5	Humedad	54
165597	7	Sololá	713	San Lucas Tolimán	10	San Lucas Tolimán	12	Diciembre	2023-12-17T00:00:00	2024-11-08T21:00:00	6	Velocidad del viento	3.2
165598	7	Sololá	713	San Lucas Tolimán	10	San Lucas Tolimán	12	Diciembre	2023-12-17T00:00:00	2024-11-08T21:00:00	7	Dirección del viento	3.22
165599	7	Sololá	713	San Lucas Tolimán	10	San Lucas Tolimán	12	Diciembre	2023-12-17T00:00:00	2024-11-08T21:00:00	1	Precipitación	0
165600	7	Sololá	713	San Lucas Tolimán	10	San Lucas Tolimán	12	Diciembre	2023-12-17T00:00:00	2024-11-08T21:00:00	8	Radiación solar	0
165601	7	Sololá	713	San Lucas Tolimán	10	San Lucas Tolimán	12	Diciembre	2023-12-17T00:00:00	2024-11-08T22:00:00	2	Temperatura media	17.5
165602	7	Sololá	713	San Lucas Tolimán	10	San Lucas Tolimán	12	Diciembre	2023-12-17T00:00:00	2024-11-08T22:00:00	4	Temperatura máxima	17.8
165603	7	Sololá	713	San Lucas Tolimán	10	San Lucas Tolimán	12	Diciembre	2023-12-17T00:00:00	2024-11-08T22:00:00	3	Temperatura mínima	17.3
165604	7	Sololá	713	San Lucas Tolimán	10	San Lucas Tolimán	12	Diciembre	2023-12-17T00:00:00	2024-11-08T22:00:00	5	Humedad	55
165605	7	Sololá	713	San Lucas Tolimán	10	San Lucas Tolimán	12	Diciembre	2023-12-17T00:00:00	2024-11-08T22:00:00	6	Velocidad del viento	4.8
165606	7	Sololá	713	San Lucas Tolimán	10	San Lucas Tolimán	12	Diciembre	2023-12-17T00:00:00	2024-11-08T22:00:00	7	Dirección del viento	4.83
165607	7	Sololá	713	San Lucas Tolimán	10	San Lucas Tolimán	12	Diciembre	2023-12-17T00:00:00	2024-11-08T22:00:00	1	Precipitación	0
165608	7	Sololá	713	San Lucas Tolimán	10	San Lucas Tolimán	12	Diciembre	2023-12-17T00:00:00	2024-11-08T22:00:00	8	Radiación solar	0
165609	7	Sololá	713	San Lucas Tolimán	10	San Lucas Tolimán	12	Diciembre	2023-12-17T00:00:00	2024-11-08T23:00:00	2	Temperatura media	17.2
165610	7	Sololá	713	San Lucas Tolimán	10	San Lucas Tolimán	12	Diciembre	2023-12-17T00:00:00	2024-11-08T23:00:00	4	Temperatura máxima	17.6
165611	7	Sololá	713	San Lucas Tolimán	10	San Lucas Tolimán	12	Diciembre	2023-12-17T00:00:00	2024-11-08T23:00:00	3	Temperatura mínima	17.2
165612	7	Sololá	713	San Lucas Tolimán	10	San Lucas Tolimán	12	Diciembre	2023-12-17T00:00:00	2024-11-08T23:00:00	5	Humedad	55
165613	7	Sololá	713	San Lucas Tolimán	10	San Lucas Tolimán	12	Diciembre	2023-12-17T00:00:00	2024-11-08T23:00:00	6	Velocidad del viento	4.8
165614	7	Sololá	713	San Lucas Tolimán	10	San Lucas Tolimán	12	Diciembre	2023-12-17T00:00:00	2024-11-08T23:00:00	7	Dirección del viento	4.83
165615	7	Sololá	713	San Lucas Tolimán	10	San Lucas Tolimán	12	Diciembre	2023-12-17T00:00:00	2024-11-08T23:00:00	1	Precipitación	0
165616	7	Sololá	713	San Lucas Tolimán	10	San Lucas Tolimán	12	Diciembre	2023-12-17T00:00:00	2024-11-08T23:00:00	8	Radiación solar	0
165617	7	Sololá	713	San Lucas Tolimán	10	San Lucas Tolimán	12	Diciembre	2023-12-18T00:00:00	2024-11-08T00:00:00	2	Temperatura media	16.4
165618	7	Sololá	713	San Lucas Tolimán	10	San Lucas Tolimán	12	Diciembre	2023-12-18T00:00:00	2024-11-08T00:00:00	4	Temperatura máxima	17.2
165619	7	Sololá	713	San Lucas Tolimán	10	San Lucas Tolimán	12	Diciembre	2023-12-18T00:00:00	2024-11-08T00:00:00	3	Temperatura mínima	16.4
165620	7	Sololá	713	San Lucas Tolimán	10	San Lucas Tolimán	12	Diciembre	2023-12-18T00:00:00	2024-11-08T00:00:00	5	Humedad	57
165621	7	Sololá	713	San Lucas Tolimán	10	San Lucas Tolimán	12	Diciembre	2023-12-18T00:00:00	2024-11-08T00:00:00	6	Velocidad del viento	3.2
165622	7	Sololá	713	San Lucas Tolimán	10	San Lucas Tolimán	12	Diciembre	2023-12-18T00:00:00	2024-11-08T00:00:00	7	Dirección del viento	3.22
165623	7	Sololá	713	San Lucas Tolimán	10	San Lucas Tolimán	12	Diciembre	2023-12-18T00:00:00	2024-11-08T00:00:00	1	Precipitación	0
165624	7	Sololá	713	San Lucas Tolimán	10	San Lucas Tolimán	12	Diciembre	2023-12-18T00:00:00	2024-11-08T00:00:00	8	Radiación solar	0
165625	7	Sololá	713	San Lucas Tolimán	10	San Lucas Tolimán	12	Diciembre	2023-12-18T00:00:00	2024-11-08T01:00:00	2	Temperatura media	16.3
165626	7	Sololá	713	San Lucas Tolimán	10	San Lucas Tolimán	12	Diciembre	2023-12-18T00:00:00	2024-11-08T01:00:00	4	Temperatura máxima	16.4
165627	7	Sololá	713	San Lucas Tolimán	10	San Lucas Tolimán	12	Diciembre	2023-12-18T00:00:00	2024-11-08T01:00:00	3	Temperatura mínima	16.1
165628	7	Sololá	713	San Lucas Tolimán	10	San Lucas Tolimán	12	Diciembre	2023-12-18T00:00:00	2024-11-08T01:00:00	5	Humedad	57
165629	7	Sololá	713	San Lucas Tolimán	10	San Lucas Tolimán	12	Diciembre	2023-12-18T00:00:00	2024-11-08T01:00:00	6	Velocidad del viento	3.2
165630	7	Sololá	713	San Lucas Tolimán	10	San Lucas Tolimán	12	Diciembre	2023-12-18T00:00:00	2024-11-08T01:00:00	7	Dirección del viento	3.22
165631	7	Sololá	713	San Lucas Tolimán	10	San Lucas Tolimán	12	Diciembre	2023-12-18T00:00:00	2024-11-08T01:00:00	1	Precipitación	0
165632	7	Sololá	713	San Lucas Tolimán	10	San Lucas Tolimán	12	Diciembre	2023-12-18T00:00:00	2024-11-08T01:00:00	8	Radiación solar	0
165633	7	Sololá	713	San Lucas Tolimán	10	San Lucas Tolimán	12	Diciembre	2023-12-18T00:00:00	2024-11-08T02:00:00	2	Temperatura media	15.3
165634	7	Sololá	713	San Lucas Tolimán	10	San Lucas Tolimán	12	Diciembre	2023-12-18T00:00:00	2024-11-08T02:00:00	4	Temperatura máxima	16.3
165635	7	Sololá	713	San Lucas Tolimán	10	San Lucas Tolimán	12	Diciembre	2023-12-18T00:00:00	2024-11-08T02:00:00	3	Temperatura mínima	15.3
165636	7	Sololá	713	San Lucas Tolimán	10	San Lucas Tolimán	12	Diciembre	2023-12-18T00:00:00	2024-11-08T02:00:00	5	Humedad	59
165637	7	Sololá	713	San Lucas Tolimán	10	San Lucas Tolimán	12	Diciembre	2023-12-18T00:00:00	2024-11-08T02:00:00	6	Velocidad del viento	3.2
165638	7	Sololá	713	San Lucas Tolimán	10	San Lucas Tolimán	12	Diciembre	2023-12-18T00:00:00	2024-11-08T02:00:00	7	Dirección del viento	3.22
165639	7	Sololá	713	San Lucas Tolimán	10	San Lucas Tolimán	12	Diciembre	2023-12-18T00:00:00	2024-11-08T02:00:00	1	Precipitación	0
165640	7	Sololá	713	San Lucas Tolimán	10	San Lucas Tolimán	12	Diciembre	2023-12-18T00:00:00	2024-11-08T02:00:00	8	Radiación solar	0
165641	7	Sololá	713	San Lucas Tolimán	10	San Lucas Tolimán	12	Diciembre	2023-12-18T00:00:00	2024-11-08T03:00:00	2	Temperatura media	15
165642	7	Sololá	713	San Lucas Tolimán	10	San Lucas Tolimán	12	Diciembre	2023-12-18T00:00:00	2024-11-08T03:00:00	4	Temperatura máxima	15.6
165643	7	Sololá	713	San Lucas Tolimán	10	San Lucas Tolimán	12	Diciembre	2023-12-18T00:00:00	2024-11-08T03:00:00	3	Temperatura mínima	14.9
165644	7	Sololá	713	San Lucas Tolimán	10	San Lucas Tolimán	12	Diciembre	2023-12-18T00:00:00	2024-11-08T03:00:00	5	Humedad	58
165645	7	Sololá	713	San Lucas Tolimán	10	San Lucas Tolimán	12	Diciembre	2023-12-18T00:00:00	2024-11-08T03:00:00	6	Velocidad del viento	3.2
165646	7	Sololá	713	San Lucas Tolimán	10	San Lucas Tolimán	12	Diciembre	2023-12-18T00:00:00	2024-11-08T03:00:00	7	Dirección del viento	3.22
165647	7	Sololá	713	San Lucas Tolimán	10	San Lucas Tolimán	12	Diciembre	2023-12-18T00:00:00	2024-11-08T03:00:00	1	Precipitación	0
165648	7	Sololá	713	San Lucas Tolimán	10	San Lucas Tolimán	12	Diciembre	2023-12-18T00:00:00	2024-11-08T03:00:00	8	Radiación solar	0
165649	7	Sololá	713	San Lucas Tolimán	10	San Lucas Tolimán	12	Diciembre	2023-12-18T00:00:00	2024-11-08T04:00:00	2	Temperatura media	15.3
165650	7	Sololá	713	San Lucas Tolimán	10	San Lucas Tolimán	12	Diciembre	2023-12-18T00:00:00	2024-11-08T04:00:00	4	Temperatura máxima	15.4
165651	7	Sololá	713	San Lucas Tolimán	10	San Lucas Tolimán	12	Diciembre	2023-12-18T00:00:00	2024-11-08T04:00:00	3	Temperatura mínima	14.7
165652	7	Sololá	713	San Lucas Tolimán	10	San Lucas Tolimán	12	Diciembre	2023-12-18T00:00:00	2024-11-08T04:00:00	5	Humedad	55
165653	7	Sololá	713	San Lucas Tolimán	10	San Lucas Tolimán	12	Diciembre	2023-12-18T00:00:00	2024-11-08T04:00:00	6	Velocidad del viento	3.2
165654	7	Sololá	713	San Lucas Tolimán	10	San Lucas Tolimán	12	Diciembre	2023-12-18T00:00:00	2024-11-08T04:00:00	7	Dirección del viento	3.22
165655	7	Sololá	713	San Lucas Tolimán	10	San Lucas Tolimán	12	Diciembre	2023-12-18T00:00:00	2024-11-08T04:00:00	1	Precipitación	0
165656	7	Sololá	713	San Lucas Tolimán	10	San Lucas Tolimán	12	Diciembre	2023-12-18T00:00:00	2024-11-08T04:00:00	8	Radiación solar	0
165657	7	Sololá	713	San Lucas Tolimán	10	San Lucas Tolimán	12	Diciembre	2023-12-18T00:00:00	2024-11-08T05:00:00	2	Temperatura media	14.1
165658	7	Sololá	713	San Lucas Tolimán	10	San Lucas Tolimán	12	Diciembre	2023-12-18T00:00:00	2024-11-08T05:00:00	4	Temperatura máxima	15.3
165659	7	Sololá	713	San Lucas Tolimán	10	San Lucas Tolimán	12	Diciembre	2023-12-18T00:00:00	2024-11-08T05:00:00	3	Temperatura mínima	14.1
165660	7	Sololá	713	San Lucas Tolimán	10	San Lucas Tolimán	12	Diciembre	2023-12-18T00:00:00	2024-11-08T05:00:00	5	Humedad	60
165661	7	Sololá	713	San Lucas Tolimán	10	San Lucas Tolimán	12	Diciembre	2023-12-18T00:00:00	2024-11-08T05:00:00	6	Velocidad del viento	1.6
165662	7	Sololá	713	San Lucas Tolimán	10	San Lucas Tolimán	12	Diciembre	2023-12-18T00:00:00	2024-11-08T05:00:00	7	Dirección del viento	1.61
165663	7	Sololá	713	San Lucas Tolimán	10	San Lucas Tolimán	12	Diciembre	2023-12-18T00:00:00	2024-11-08T05:00:00	1	Precipitación	0
165664	7	Sololá	713	San Lucas Tolimán	10	San Lucas Tolimán	12	Diciembre	2023-12-18T00:00:00	2024-11-08T05:00:00	8	Radiación solar	0
165665	7	Sololá	713	San Lucas Tolimán	10	San Lucas Tolimán	12	Diciembre	2023-12-18T00:00:00	2024-11-08T06:00:00	2	Temperatura media	14.6
165666	7	Sololá	713	San Lucas Tolimán	10	San Lucas Tolimán	12	Diciembre	2023-12-18T00:00:00	2024-11-08T06:00:00	4	Temperatura máxima	14.6
165667	7	Sololá	713	San Lucas Tolimán	10	San Lucas Tolimán	12	Diciembre	2023-12-18T00:00:00	2024-11-08T06:00:00	3	Temperatura mínima	14.1
165668	7	Sololá	713	San Lucas Tolimán	10	San Lucas Tolimán	12	Diciembre	2023-12-18T00:00:00	2024-11-08T06:00:00	5	Humedad	59
165669	7	Sololá	713	San Lucas Tolimán	10	San Lucas Tolimán	12	Diciembre	2023-12-18T00:00:00	2024-11-08T06:00:00	6	Velocidad del viento	3.2
165670	7	Sololá	713	San Lucas Tolimán	10	San Lucas Tolimán	12	Diciembre	2023-12-18T00:00:00	2024-11-08T06:00:00	7	Dirección del viento	3.22
165671	7	Sololá	713	San Lucas Tolimán	10	San Lucas Tolimán	12	Diciembre	2023-12-18T00:00:00	2024-11-08T06:00:00	1	Precipitación	0
165672	7	Sololá	713	San Lucas Tolimán	10	San Lucas Tolimán	12	Diciembre	2023-12-18T00:00:00	2024-11-08T06:00:00	8	Radiación solar	0
165673	7	Sololá	713	San Lucas Tolimán	10	San Lucas Tolimán	12	Diciembre	2023-12-18T00:00:00	2024-11-08T07:00:00	2	Temperatura media	15.2
165674	7	Sololá	713	San Lucas Tolimán	10	San Lucas Tolimán	12	Diciembre	2023-12-18T00:00:00	2024-11-08T07:00:00	4	Temperatura máxima	15.3
165675	7	Sololá	713	San Lucas Tolimán	10	San Lucas Tolimán	12	Diciembre	2023-12-18T00:00:00	2024-11-08T07:00:00	3	Temperatura mínima	14.5
165676	7	Sololá	713	San Lucas Tolimán	10	San Lucas Tolimán	12	Diciembre	2023-12-18T00:00:00	2024-11-08T07:00:00	5	Humedad	54
165677	7	Sololá	713	San Lucas Tolimán	10	San Lucas Tolimán	12	Diciembre	2023-12-18T00:00:00	2024-11-08T07:00:00	6	Velocidad del viento	3.2
165678	7	Sololá	713	San Lucas Tolimán	10	San Lucas Tolimán	12	Diciembre	2023-12-18T00:00:00	2024-11-08T07:00:00	7	Dirección del viento	3.22
165679	7	Sololá	713	San Lucas Tolimán	10	San Lucas Tolimán	12	Diciembre	2023-12-18T00:00:00	2024-11-08T07:00:00	1	Precipitación	0
165680	7	Sololá	713	San Lucas Tolimán	10	San Lucas Tolimán	12	Diciembre	2023-12-18T00:00:00	2024-11-08T07:00:00	8	Radiación solar	6
165681	7	Sololá	713	San Lucas Tolimán	10	San Lucas Tolimán	12	Diciembre	2023-12-18T00:00:00	2024-11-08T08:00:00	2	Temperatura media	15
165682	7	Sololá	713	San Lucas Tolimán	10	San Lucas Tolimán	12	Diciembre	2023-12-18T00:00:00	2024-11-08T08:00:00	4	Temperatura máxima	15.5
165683	7	Sololá	713	San Lucas Tolimán	10	San Lucas Tolimán	12	Diciembre	2023-12-18T00:00:00	2024-11-08T08:00:00	3	Temperatura mínima	14.9
165684	7	Sololá	713	San Lucas Tolimán	10	San Lucas Tolimán	12	Diciembre	2023-12-18T00:00:00	2024-11-08T08:00:00	5	Humedad	52
165685	7	Sololá	713	San Lucas Tolimán	10	San Lucas Tolimán	12	Diciembre	2023-12-18T00:00:00	2024-11-08T08:00:00	6	Velocidad del viento	1.6
165686	7	Sololá	713	San Lucas Tolimán	10	San Lucas Tolimán	12	Diciembre	2023-12-18T00:00:00	2024-11-08T08:00:00	7	Dirección del viento	1.61
165687	7	Sololá	713	San Lucas Tolimán	10	San Lucas Tolimán	12	Diciembre	2023-12-18T00:00:00	2024-11-08T08:00:00	1	Precipitación	0
165688	7	Sololá	713	San Lucas Tolimán	10	San Lucas Tolimán	12	Diciembre	2023-12-18T00:00:00	2024-11-08T08:00:00	8	Radiación solar	24
165689	7	Sololá	713	San Lucas Tolimán	10	San Lucas Tolimán	12	Diciembre	2023-12-18T00:00:00	2024-11-08T09:00:00	2	Temperatura media	20.5
165690	7	Sololá	713	San Lucas Tolimán	10	San Lucas Tolimán	12	Diciembre	2023-12-18T00:00:00	2024-11-08T09:00:00	4	Temperatura máxima	20.5
165691	7	Sololá	713	San Lucas Tolimán	10	San Lucas Tolimán	12	Diciembre	2023-12-18T00:00:00	2024-11-08T09:00:00	3	Temperatura mínima	15.1
165692	7	Sololá	713	San Lucas Tolimán	10	San Lucas Tolimán	12	Diciembre	2023-12-18T00:00:00	2024-11-08T09:00:00	5	Humedad	42
165693	7	Sololá	713	San Lucas Tolimán	10	San Lucas Tolimán	12	Diciembre	2023-12-18T00:00:00	2024-11-08T09:00:00	6	Velocidad del viento	1.6
165694	7	Sololá	713	San Lucas Tolimán	10	San Lucas Tolimán	12	Diciembre	2023-12-18T00:00:00	2024-11-08T09:00:00	7	Dirección del viento	1.61
165695	7	Sololá	713	San Lucas Tolimán	10	San Lucas Tolimán	12	Diciembre	2023-12-18T00:00:00	2024-11-08T09:00:00	1	Precipitación	0
165696	7	Sololá	713	San Lucas Tolimán	10	San Lucas Tolimán	12	Diciembre	2023-12-18T00:00:00	2024-11-08T09:00:00	8	Radiación solar	323
165697	7	Sololá	713	San Lucas Tolimán	10	San Lucas Tolimán	12	Diciembre	2023-12-18T00:00:00	2024-11-08T10:00:00	2	Temperatura media	21.7
165698	7	Sololá	713	San Lucas Tolimán	10	San Lucas Tolimán	12	Diciembre	2023-12-18T00:00:00	2024-11-08T10:00:00	4	Temperatura máxima	21.8
165699	7	Sololá	713	San Lucas Tolimán	10	San Lucas Tolimán	12	Diciembre	2023-12-18T00:00:00	2024-11-08T10:00:00	3	Temperatura mínima	20.5
165700	7	Sololá	713	San Lucas Tolimán	10	San Lucas Tolimán	12	Diciembre	2023-12-18T00:00:00	2024-11-08T10:00:00	5	Humedad	49
165701	7	Sololá	713	San Lucas Tolimán	10	San Lucas Tolimán	12	Diciembre	2023-12-18T00:00:00	2024-11-08T10:00:00	6	Velocidad del viento	3.2
165702	7	Sololá	713	San Lucas Tolimán	10	San Lucas Tolimán	12	Diciembre	2023-12-18T00:00:00	2024-11-08T10:00:00	7	Dirección del viento	3.22
165703	7	Sololá	713	San Lucas Tolimán	10	San Lucas Tolimán	12	Diciembre	2023-12-18T00:00:00	2024-11-08T10:00:00	1	Precipitación	0
165704	7	Sololá	713	San Lucas Tolimán	10	San Lucas Tolimán	12	Diciembre	2023-12-18T00:00:00	2024-11-08T10:00:00	8	Radiación solar	621
165705	7	Sololá	713	San Lucas Tolimán	10	San Lucas Tolimán	12	Diciembre	2023-12-18T00:00:00	2024-11-08T11:00:00	2	Temperatura media	22.3
165706	7	Sololá	713	San Lucas Tolimán	10	San Lucas Tolimán	12	Diciembre	2023-12-18T00:00:00	2024-11-08T11:00:00	4	Temperatura máxima	22.9
165707	7	Sololá	713	San Lucas Tolimán	10	San Lucas Tolimán	12	Diciembre	2023-12-18T00:00:00	2024-11-08T11:00:00	3	Temperatura mínima	21.7
165708	7	Sololá	713	San Lucas Tolimán	10	San Lucas Tolimán	12	Diciembre	2023-12-18T00:00:00	2024-11-08T11:00:00	5	Humedad	48
165709	7	Sololá	713	San Lucas Tolimán	10	San Lucas Tolimán	12	Diciembre	2023-12-18T00:00:00	2024-11-08T11:00:00	6	Velocidad del viento	8
165710	7	Sololá	713	San Lucas Tolimán	10	San Lucas Tolimán	12	Diciembre	2023-12-18T00:00:00	2024-11-08T11:00:00	7	Dirección del viento	8.05
165711	7	Sololá	713	San Lucas Tolimán	10	San Lucas Tolimán	12	Diciembre	2023-12-18T00:00:00	2024-11-08T11:00:00	1	Precipitación	0
165712	7	Sololá	713	San Lucas Tolimán	10	San Lucas Tolimán	12	Diciembre	2023-12-18T00:00:00	2024-11-08T11:00:00	8	Radiación solar	774
165713	7	Sololá	713	San Lucas Tolimán	10	San Lucas Tolimán	12	Diciembre	2023-12-18T00:00:00	2024-11-08T12:00:00	2	Temperatura media	22.1
165714	7	Sololá	713	San Lucas Tolimán	10	San Lucas Tolimán	12	Diciembre	2023-12-18T00:00:00	2024-11-08T12:00:00	4	Temperatura máxima	22.8
165715	7	Sololá	713	San Lucas Tolimán	10	San Lucas Tolimán	12	Diciembre	2023-12-18T00:00:00	2024-11-08T12:00:00	3	Temperatura mínima	22
165716	7	Sololá	713	San Lucas Tolimán	10	San Lucas Tolimán	12	Diciembre	2023-12-18T00:00:00	2024-11-08T12:00:00	5	Humedad	50
165717	7	Sololá	713	San Lucas Tolimán	10	San Lucas Tolimán	12	Diciembre	2023-12-18T00:00:00	2024-11-08T12:00:00	6	Velocidad del viento	11.3
165718	7	Sololá	713	San Lucas Tolimán	10	San Lucas Tolimán	12	Diciembre	2023-12-18T00:00:00	2024-11-08T12:00:00	7	Dirección del viento	11.27
165719	7	Sololá	713	San Lucas Tolimán	10	San Lucas Tolimán	12	Diciembre	2023-12-18T00:00:00	2024-11-08T12:00:00	1	Precipitación	0
165720	7	Sololá	713	San Lucas Tolimán	10	San Lucas Tolimán	12	Diciembre	2023-12-18T00:00:00	2024-11-08T12:00:00	8	Radiación solar	856
165721	7	Sololá	713	San Lucas Tolimán	10	San Lucas Tolimán	12	Diciembre	2023-12-18T00:00:00	2024-11-08T13:00:00	2	Temperatura media	21.8
165722	7	Sololá	713	San Lucas Tolimán	10	San Lucas Tolimán	12	Diciembre	2023-12-18T00:00:00	2024-11-08T13:00:00	4	Temperatura máxima	22.3
165723	7	Sololá	713	San Lucas Tolimán	10	San Lucas Tolimán	12	Diciembre	2023-12-18T00:00:00	2024-11-08T13:00:00	3	Temperatura mínima	21.8
165724	7	Sololá	713	San Lucas Tolimán	10	San Lucas Tolimán	12	Diciembre	2023-12-18T00:00:00	2024-11-08T13:00:00	5	Humedad	55
165725	7	Sololá	713	San Lucas Tolimán	10	San Lucas Tolimán	12	Diciembre	2023-12-18T00:00:00	2024-11-08T13:00:00	6	Velocidad del viento	11.3
165726	7	Sololá	713	San Lucas Tolimán	10	San Lucas Tolimán	12	Diciembre	2023-12-18T00:00:00	2024-11-08T13:00:00	7	Dirección del viento	11.27
165727	7	Sololá	713	San Lucas Tolimán	10	San Lucas Tolimán	12	Diciembre	2023-12-18T00:00:00	2024-11-08T13:00:00	1	Precipitación	0
165728	7	Sololá	713	San Lucas Tolimán	10	San Lucas Tolimán	12	Diciembre	2023-12-18T00:00:00	2024-11-08T13:00:00	8	Radiación solar	862
165729	7	Sololá	713	San Lucas Tolimán	10	San Lucas Tolimán	12	Diciembre	2023-12-18T00:00:00	2024-11-08T14:00:00	2	Temperatura media	22.1
165730	7	Sololá	713	San Lucas Tolimán	10	San Lucas Tolimán	12	Diciembre	2023-12-18T00:00:00	2024-11-08T14:00:00	4	Temperatura máxima	22.1
165731	7	Sololá	713	San Lucas Tolimán	10	San Lucas Tolimán	12	Diciembre	2023-12-18T00:00:00	2024-11-08T14:00:00	3	Temperatura mínima	21.4
165732	7	Sololá	713	San Lucas Tolimán	10	San Lucas Tolimán	12	Diciembre	2023-12-18T00:00:00	2024-11-08T14:00:00	5	Humedad	53
165733	7	Sololá	713	San Lucas Tolimán	10	San Lucas Tolimán	12	Diciembre	2023-12-18T00:00:00	2024-11-08T14:00:00	6	Velocidad del viento	12.9
165734	7	Sololá	713	San Lucas Tolimán	10	San Lucas Tolimán	12	Diciembre	2023-12-18T00:00:00	2024-11-08T14:00:00	7	Dirección del viento	12.87
165735	7	Sololá	713	San Lucas Tolimán	10	San Lucas Tolimán	12	Diciembre	2023-12-18T00:00:00	2024-11-08T14:00:00	1	Precipitación	0
165736	7	Sololá	713	San Lucas Tolimán	10	San Lucas Tolimán	12	Diciembre	2023-12-18T00:00:00	2024-11-08T14:00:00	8	Radiación solar	807
165737	7	Sololá	713	San Lucas Tolimán	10	San Lucas Tolimán	12	Diciembre	2023-12-18T00:00:00	2024-11-08T15:00:00	2	Temperatura media	21.2
165738	7	Sololá	713	San Lucas Tolimán	10	San Lucas Tolimán	12	Diciembre	2023-12-18T00:00:00	2024-11-08T15:00:00	4	Temperatura máxima	22.3
165739	7	Sololá	713	San Lucas Tolimán	10	San Lucas Tolimán	12	Diciembre	2023-12-18T00:00:00	2024-11-08T15:00:00	3	Temperatura mínima	21.2
165740	7	Sololá	713	San Lucas Tolimán	10	San Lucas Tolimán	12	Diciembre	2023-12-18T00:00:00	2024-11-08T15:00:00	5	Humedad	58
165741	7	Sololá	713	San Lucas Tolimán	10	San Lucas Tolimán	12	Diciembre	2023-12-18T00:00:00	2024-11-08T15:00:00	6	Velocidad del viento	12.9
165742	7	Sololá	713	San Lucas Tolimán	10	San Lucas Tolimán	12	Diciembre	2023-12-18T00:00:00	2024-11-08T15:00:00	7	Dirección del viento	12.87
165743	7	Sololá	713	San Lucas Tolimán	10	San Lucas Tolimán	12	Diciembre	2023-12-18T00:00:00	2024-11-08T15:00:00	1	Precipitación	0
165744	7	Sololá	713	San Lucas Tolimán	10	San Lucas Tolimán	12	Diciembre	2023-12-18T00:00:00	2024-11-08T15:00:00	8	Radiación solar	656
165745	7	Sololá	713	San Lucas Tolimán	10	San Lucas Tolimán	12	Diciembre	2023-12-18T00:00:00	2024-11-08T16:00:00	2	Temperatura media	21.3
165746	7	Sololá	713	San Lucas Tolimán	10	San Lucas Tolimán	12	Diciembre	2023-12-18T00:00:00	2024-11-08T16:00:00	4	Temperatura máxima	21.6
165747	7	Sololá	713	San Lucas Tolimán	10	San Lucas Tolimán	12	Diciembre	2023-12-18T00:00:00	2024-11-08T16:00:00	3	Temperatura mínima	21.1
165748	7	Sololá	713	San Lucas Tolimán	10	San Lucas Tolimán	12	Diciembre	2023-12-18T00:00:00	2024-11-08T16:00:00	5	Humedad	59
165749	7	Sololá	713	San Lucas Tolimán	10	San Lucas Tolimán	12	Diciembre	2023-12-18T00:00:00	2024-11-08T16:00:00	6	Velocidad del viento	11.3
165750	7	Sololá	713	San Lucas Tolimán	10	San Lucas Tolimán	12	Diciembre	2023-12-18T00:00:00	2024-11-08T16:00:00	7	Dirección del viento	11.27
165751	7	Sololá	713	San Lucas Tolimán	10	San Lucas Tolimán	12	Diciembre	2023-12-18T00:00:00	2024-11-08T16:00:00	1	Precipitación	0
165752	7	Sololá	713	San Lucas Tolimán	10	San Lucas Tolimán	12	Diciembre	2023-12-18T00:00:00	2024-11-08T16:00:00	8	Radiación solar	430
165753	7	Sololá	713	San Lucas Tolimán	10	San Lucas Tolimán	12	Diciembre	2023-12-18T00:00:00	2024-11-08T17:00:00	2	Temperatura media	18.9
165754	7	Sololá	713	San Lucas Tolimán	10	San Lucas Tolimán	12	Diciembre	2023-12-18T00:00:00	2024-11-08T17:00:00	4	Temperatura máxima	21.3
165755	7	Sololá	713	San Lucas Tolimán	10	San Lucas Tolimán	12	Diciembre	2023-12-18T00:00:00	2024-11-08T17:00:00	3	Temperatura mínima	18.9
165756	7	Sololá	713	San Lucas Tolimán	10	San Lucas Tolimán	12	Diciembre	2023-12-18T00:00:00	2024-11-08T17:00:00	5	Humedad	61
165757	7	Sololá	713	San Lucas Tolimán	10	San Lucas Tolimán	12	Diciembre	2023-12-18T00:00:00	2024-11-08T17:00:00	6	Velocidad del viento	11.3
165758	7	Sololá	713	San Lucas Tolimán	10	San Lucas Tolimán	12	Diciembre	2023-12-18T00:00:00	2024-11-08T17:00:00	7	Dirección del viento	11.27
165759	7	Sololá	713	San Lucas Tolimán	10	San Lucas Tolimán	12	Diciembre	2023-12-18T00:00:00	2024-11-08T17:00:00	1	Precipitación	0
165760	7	Sololá	713	San Lucas Tolimán	10	San Lucas Tolimán	12	Diciembre	2023-12-18T00:00:00	2024-11-08T17:00:00	8	Radiación solar	125
165761	7	Sololá	713	San Lucas Tolimán	10	San Lucas Tolimán	12	Diciembre	2023-12-18T00:00:00	2024-11-08T18:00:00	2	Temperatura media	17.3
165762	7	Sololá	713	San Lucas Tolimán	10	San Lucas Tolimán	12	Diciembre	2023-12-18T00:00:00	2024-11-08T18:00:00	4	Temperatura máxima	18.9
165763	7	Sololá	713	San Lucas Tolimán	10	San Lucas Tolimán	12	Diciembre	2023-12-18T00:00:00	2024-11-08T18:00:00	3	Temperatura mínima	17.3
165764	7	Sololá	713	San Lucas Tolimán	10	San Lucas Tolimán	12	Diciembre	2023-12-18T00:00:00	2024-11-08T18:00:00	5	Humedad	53
165765	7	Sololá	713	San Lucas Tolimán	10	San Lucas Tolimán	12	Diciembre	2023-12-18T00:00:00	2024-11-08T18:00:00	6	Velocidad del viento	6.4
165766	7	Sololá	713	San Lucas Tolimán	10	San Lucas Tolimán	12	Diciembre	2023-12-18T00:00:00	2024-11-08T18:00:00	7	Dirección del viento	6.44
165767	7	Sololá	713	San Lucas Tolimán	10	San Lucas Tolimán	12	Diciembre	2023-12-18T00:00:00	2024-11-08T18:00:00	1	Precipitación	0
165768	7	Sololá	713	San Lucas Tolimán	10	San Lucas Tolimán	12	Diciembre	2023-12-18T00:00:00	2024-11-08T18:00:00	8	Radiación solar	9
165769	7	Sololá	713	San Lucas Tolimán	10	San Lucas Tolimán	12	Diciembre	2023-12-18T00:00:00	2024-11-08T19:00:00	2	Temperatura media	17.4
165770	7	Sololá	713	San Lucas Tolimán	10	San Lucas Tolimán	12	Diciembre	2023-12-18T00:00:00	2024-11-08T19:00:00	4	Temperatura máxima	17.8
165771	7	Sololá	713	San Lucas Tolimán	10	San Lucas Tolimán	12	Diciembre	2023-12-18T00:00:00	2024-11-08T19:00:00	3	Temperatura mínima	17.3
165772	7	Sololá	713	San Lucas Tolimán	10	San Lucas Tolimán	12	Diciembre	2023-12-18T00:00:00	2024-11-08T19:00:00	5	Humedad	31
165773	7	Sololá	713	San Lucas Tolimán	10	San Lucas Tolimán	12	Diciembre	2023-12-18T00:00:00	2024-11-08T19:00:00	6	Velocidad del viento	6.4
165774	7	Sololá	713	San Lucas Tolimán	10	San Lucas Tolimán	12	Diciembre	2023-12-18T00:00:00	2024-11-08T19:00:00	7	Dirección del viento	6.44
165775	7	Sololá	713	San Lucas Tolimán	10	San Lucas Tolimán	12	Diciembre	2023-12-18T00:00:00	2024-11-08T19:00:00	1	Precipitación	0
165776	7	Sololá	713	San Lucas Tolimán	10	San Lucas Tolimán	12	Diciembre	2023-12-18T00:00:00	2024-11-08T19:00:00	8	Radiación solar	0
165777	7	Sololá	713	San Lucas Tolimán	10	San Lucas Tolimán	12	Diciembre	2023-12-18T00:00:00	2024-11-08T20:00:00	2	Temperatura media	16.9
165778	7	Sololá	713	San Lucas Tolimán	10	San Lucas Tolimán	12	Diciembre	2023-12-18T00:00:00	2024-11-08T20:00:00	4	Temperatura máxima	17.4
165779	7	Sololá	713	San Lucas Tolimán	10	San Lucas Tolimán	12	Diciembre	2023-12-18T00:00:00	2024-11-08T20:00:00	3	Temperatura mínima	16.7
165780	7	Sololá	713	San Lucas Tolimán	10	San Lucas Tolimán	12	Diciembre	2023-12-18T00:00:00	2024-11-08T20:00:00	5	Humedad	20
165781	7	Sololá	713	San Lucas Tolimán	10	San Lucas Tolimán	12	Diciembre	2023-12-18T00:00:00	2024-11-08T20:00:00	6	Velocidad del viento	6.4
165782	7	Sololá	713	San Lucas Tolimán	10	San Lucas Tolimán	12	Diciembre	2023-12-18T00:00:00	2024-11-08T20:00:00	7	Dirección del viento	6.44
165783	7	Sololá	713	San Lucas Tolimán	10	San Lucas Tolimán	12	Diciembre	2023-12-18T00:00:00	2024-11-08T20:00:00	1	Precipitación	0
165784	7	Sololá	713	San Lucas Tolimán	10	San Lucas Tolimán	12	Diciembre	2023-12-18T00:00:00	2024-11-08T20:00:00	8	Radiación solar	0
165785	7	Sololá	713	San Lucas Tolimán	10	San Lucas Tolimán	12	Diciembre	2023-12-18T00:00:00	2024-11-08T21:00:00	2	Temperatura media	16.1
165786	7	Sololá	713	San Lucas Tolimán	10	San Lucas Tolimán	12	Diciembre	2023-12-18T00:00:00	2024-11-08T21:00:00	4	Temperatura máxima	17.2
165787	7	Sololá	713	San Lucas Tolimán	10	San Lucas Tolimán	12	Diciembre	2023-12-18T00:00:00	2024-11-08T21:00:00	3	Temperatura mínima	16
165788	7	Sololá	713	San Lucas Tolimán	10	San Lucas Tolimán	12	Diciembre	2023-12-18T00:00:00	2024-11-08T21:00:00	5	Humedad	27
165789	7	Sololá	713	San Lucas Tolimán	10	San Lucas Tolimán	12	Diciembre	2023-12-18T00:00:00	2024-11-08T21:00:00	6	Velocidad del viento	4.8
165790	7	Sololá	713	San Lucas Tolimán	10	San Lucas Tolimán	12	Diciembre	2023-12-18T00:00:00	2024-11-08T21:00:00	7	Dirección del viento	4.83
165791	7	Sololá	713	San Lucas Tolimán	10	San Lucas Tolimán	12	Diciembre	2023-12-18T00:00:00	2024-11-08T21:00:00	1	Precipitación	0
165792	7	Sololá	713	San Lucas Tolimán	10	San Lucas Tolimán	12	Diciembre	2023-12-18T00:00:00	2024-11-08T21:00:00	8	Radiación solar	0
165793	7	Sololá	713	San Lucas Tolimán	10	San Lucas Tolimán	12	Diciembre	2023-12-18T00:00:00	2024-11-08T22:00:00	2	Temperatura media	15.2
165794	7	Sololá	713	San Lucas Tolimán	10	San Lucas Tolimán	12	Diciembre	2023-12-18T00:00:00	2024-11-08T22:00:00	4	Temperatura máxima	16.1
165795	7	Sololá	713	San Lucas Tolimán	10	San Lucas Tolimán	12	Diciembre	2023-12-18T00:00:00	2024-11-08T22:00:00	3	Temperatura mínima	15.2
165796	7	Sololá	713	San Lucas Tolimán	10	San Lucas Tolimán	12	Diciembre	2023-12-18T00:00:00	2024-11-08T22:00:00	5	Humedad	22
165797	7	Sololá	713	San Lucas Tolimán	10	San Lucas Tolimán	12	Diciembre	2023-12-18T00:00:00	2024-11-08T22:00:00	6	Velocidad del viento	4.8
165798	7	Sololá	713	San Lucas Tolimán	10	San Lucas Tolimán	12	Diciembre	2023-12-18T00:00:00	2024-11-08T22:00:00	7	Dirección del viento	4.83
165799	7	Sololá	713	San Lucas Tolimán	10	San Lucas Tolimán	12	Diciembre	2023-12-18T00:00:00	2024-11-08T22:00:00	1	Precipitación	0
165800	7	Sololá	713	San Lucas Tolimán	10	San Lucas Tolimán	12	Diciembre	2023-12-18T00:00:00	2024-11-08T22:00:00	8	Radiación solar	0
165801	7	Sololá	713	San Lucas Tolimán	10	San Lucas Tolimán	12	Diciembre	2023-12-18T00:00:00	2024-11-08T23:00:00	2	Temperatura media	15.3
165802	7	Sololá	713	San Lucas Tolimán	10	San Lucas Tolimán	12	Diciembre	2023-12-18T00:00:00	2024-11-08T23:00:00	4	Temperatura máxima	15.5
165803	7	Sololá	713	San Lucas Tolimán	10	San Lucas Tolimán	12	Diciembre	2023-12-18T00:00:00	2024-11-08T23:00:00	3	Temperatura mínima	15
165804	7	Sololá	713	San Lucas Tolimán	10	San Lucas Tolimán	12	Diciembre	2023-12-18T00:00:00	2024-11-08T23:00:00	5	Humedad	14
165805	7	Sololá	713	San Lucas Tolimán	10	San Lucas Tolimán	12	Diciembre	2023-12-18T00:00:00	2024-11-08T23:00:00	6	Velocidad del viento	6.4
165806	7	Sololá	713	San Lucas Tolimán	10	San Lucas Tolimán	12	Diciembre	2023-12-18T00:00:00	2024-11-08T23:00:00	7	Dirección del viento	6.44
165807	7	Sololá	713	San Lucas Tolimán	10	San Lucas Tolimán	12	Diciembre	2023-12-18T00:00:00	2024-11-08T23:00:00	1	Precipitación	0
165808	7	Sololá	713	San Lucas Tolimán	10	San Lucas Tolimán	12	Diciembre	2023-12-18T00:00:00	2024-11-08T23:00:00	8	Radiación solar	0
165809	7	Sololá	713	San Lucas Tolimán	10	San Lucas Tolimán	12	Diciembre	2023-12-19T00:00:00	2024-11-08T00:00:00	2	Temperatura media	15.8
165810	7	Sololá	713	San Lucas Tolimán	10	San Lucas Tolimán	12	Diciembre	2023-12-19T00:00:00	2024-11-08T00:00:00	4	Temperatura máxima	15.9
165811	7	Sololá	713	San Lucas Tolimán	10	San Lucas Tolimán	12	Diciembre	2023-12-19T00:00:00	2024-11-08T00:00:00	3	Temperatura mínima	14.9
165812	7	Sololá	713	San Lucas Tolimán	10	San Lucas Tolimán	12	Diciembre	2023-12-19T00:00:00	2024-11-08T00:00:00	5	Humedad	9
165813	7	Sololá	713	San Lucas Tolimán	10	San Lucas Tolimán	12	Diciembre	2023-12-19T00:00:00	2024-11-08T00:00:00	6	Velocidad del viento	8
165814	7	Sololá	713	San Lucas Tolimán	10	San Lucas Tolimán	12	Diciembre	2023-12-19T00:00:00	2024-11-08T00:00:00	7	Dirección del viento	8.05
165815	7	Sololá	713	San Lucas Tolimán	10	San Lucas Tolimán	12	Diciembre	2023-12-19T00:00:00	2024-11-08T00:00:00	1	Precipitación	0
165816	7	Sololá	713	San Lucas Tolimán	10	San Lucas Tolimán	12	Diciembre	2023-12-19T00:00:00	2024-11-08T00:00:00	8	Radiación solar	0
165817	7	Sololá	713	San Lucas Tolimán	10	San Lucas Tolimán	12	Diciembre	2023-12-19T00:00:00	2024-11-08T01:00:00	2	Temperatura media	14.7
165818	7	Sololá	713	San Lucas Tolimán	10	San Lucas Tolimán	12	Diciembre	2023-12-19T00:00:00	2024-11-08T01:00:00	4	Temperatura máxima	15.9
165819	7	Sololá	713	San Lucas Tolimán	10	San Lucas Tolimán	12	Diciembre	2023-12-19T00:00:00	2024-11-08T01:00:00	3	Temperatura mínima	14.4
165820	7	Sololá	713	San Lucas Tolimán	10	San Lucas Tolimán	12	Diciembre	2023-12-19T00:00:00	2024-11-08T01:00:00	5	Humedad	14
165821	7	Sololá	713	San Lucas Tolimán	10	San Lucas Tolimán	12	Diciembre	2023-12-19T00:00:00	2024-11-08T01:00:00	6	Velocidad del viento	8
165822	7	Sololá	713	San Lucas Tolimán	10	San Lucas Tolimán	12	Diciembre	2023-12-19T00:00:00	2024-11-08T01:00:00	7	Dirección del viento	8.05
165823	7	Sololá	713	San Lucas Tolimán	10	San Lucas Tolimán	12	Diciembre	2023-12-19T00:00:00	2024-11-08T01:00:00	1	Precipitación	0
165824	7	Sololá	713	San Lucas Tolimán	10	San Lucas Tolimán	12	Diciembre	2023-12-19T00:00:00	2024-11-08T01:00:00	8	Radiación solar	0
165825	7	Sololá	713	San Lucas Tolimán	10	San Lucas Tolimán	12	Diciembre	2023-12-19T00:00:00	2024-11-08T02:00:00	2	Temperatura media	14.3
165826	7	Sololá	713	San Lucas Tolimán	10	San Lucas Tolimán	12	Diciembre	2023-12-19T00:00:00	2024-11-08T02:00:00	4	Temperatura máxima	15.1
165827	7	Sololá	713	San Lucas Tolimán	10	San Lucas Tolimán	12	Diciembre	2023-12-19T00:00:00	2024-11-08T02:00:00	3	Temperatura mínima	14.3
165828	7	Sololá	713	San Lucas Tolimán	10	San Lucas Tolimán	12	Diciembre	2023-12-19T00:00:00	2024-11-08T02:00:00	5	Humedad	17
165829	7	Sololá	713	San Lucas Tolimán	10	San Lucas Tolimán	12	Diciembre	2023-12-19T00:00:00	2024-11-08T02:00:00	6	Velocidad del viento	6.4
165830	7	Sololá	713	San Lucas Tolimán	10	San Lucas Tolimán	12	Diciembre	2023-12-19T00:00:00	2024-11-08T02:00:00	7	Dirección del viento	6.44
165831	7	Sololá	713	San Lucas Tolimán	10	San Lucas Tolimán	12	Diciembre	2023-12-19T00:00:00	2024-11-08T02:00:00	1	Precipitación	0
165832	7	Sololá	713	San Lucas Tolimán	10	San Lucas Tolimán	12	Diciembre	2023-12-19T00:00:00	2024-11-08T02:00:00	8	Radiación solar	0
165833	7	Sololá	713	San Lucas Tolimán	10	San Lucas Tolimán	12	Diciembre	2023-12-19T00:00:00	2024-11-08T03:00:00	2	Temperatura media	14.1
165834	7	Sololá	713	San Lucas Tolimán	10	San Lucas Tolimán	12	Diciembre	2023-12-19T00:00:00	2024-11-08T03:00:00	4	Temperatura máxima	14.3
165835	7	Sololá	713	San Lucas Tolimán	10	San Lucas Tolimán	12	Diciembre	2023-12-19T00:00:00	2024-11-08T03:00:00	3	Temperatura mínima	13.8
165836	7	Sololá	713	San Lucas Tolimán	10	San Lucas Tolimán	12	Diciembre	2023-12-19T00:00:00	2024-11-08T03:00:00	5	Humedad	18
165837	7	Sololá	713	San Lucas Tolimán	10	San Lucas Tolimán	12	Diciembre	2023-12-19T00:00:00	2024-11-08T03:00:00	6	Velocidad del viento	4.8
165838	7	Sololá	713	San Lucas Tolimán	10	San Lucas Tolimán	12	Diciembre	2023-12-19T00:00:00	2024-11-08T03:00:00	7	Dirección del viento	4.83
165839	7	Sololá	713	San Lucas Tolimán	10	San Lucas Tolimán	12	Diciembre	2023-12-19T00:00:00	2024-11-08T03:00:00	1	Precipitación	0
165840	7	Sololá	713	San Lucas Tolimán	10	San Lucas Tolimán	12	Diciembre	2023-12-19T00:00:00	2024-11-08T03:00:00	8	Radiación solar	0
165841	7	Sololá	713	San Lucas Tolimán	10	San Lucas Tolimán	12	Diciembre	2023-12-19T00:00:00	2024-11-08T04:00:00	2	Temperatura media	13.7
165842	7	Sololá	713	San Lucas Tolimán	10	San Lucas Tolimán	12	Diciembre	2023-12-19T00:00:00	2024-11-08T04:00:00	4	Temperatura máxima	14.2
165843	7	Sololá	713	San Lucas Tolimán	10	San Lucas Tolimán	12	Diciembre	2023-12-19T00:00:00	2024-11-08T04:00:00	3	Temperatura mínima	13.2
165844	7	Sololá	713	San Lucas Tolimán	10	San Lucas Tolimán	12	Diciembre	2023-12-19T00:00:00	2024-11-08T04:00:00	5	Humedad	16
165845	7	Sololá	713	San Lucas Tolimán	10	San Lucas Tolimán	12	Diciembre	2023-12-19T00:00:00	2024-11-08T04:00:00	6	Velocidad del viento	6.4
165846	7	Sololá	713	San Lucas Tolimán	10	San Lucas Tolimán	12	Diciembre	2023-12-19T00:00:00	2024-11-08T04:00:00	7	Dirección del viento	6.44
165847	7	Sololá	713	San Lucas Tolimán	10	San Lucas Tolimán	12	Diciembre	2023-12-19T00:00:00	2024-11-08T04:00:00	1	Precipitación	0
165848	7	Sololá	713	San Lucas Tolimán	10	San Lucas Tolimán	12	Diciembre	2023-12-19T00:00:00	2024-11-08T04:00:00	8	Radiación solar	0
165849	7	Sololá	713	San Lucas Tolimán	10	San Lucas Tolimán	12	Diciembre	2023-12-19T00:00:00	2024-11-08T05:00:00	2	Temperatura media	12.9
165850	7	Sololá	713	San Lucas Tolimán	10	San Lucas Tolimán	12	Diciembre	2023-12-19T00:00:00	2024-11-08T05:00:00	4	Temperatura máxima	14.6
165851	7	Sololá	713	San Lucas Tolimán	10	San Lucas Tolimán	12	Diciembre	2023-12-19T00:00:00	2024-11-08T05:00:00	3	Temperatura mínima	12.9
165852	7	Sololá	713	San Lucas Tolimán	10	San Lucas Tolimán	12	Diciembre	2023-12-19T00:00:00	2024-11-08T05:00:00	5	Humedad	19
165853	7	Sololá	713	San Lucas Tolimán	10	San Lucas Tolimán	12	Diciembre	2023-12-19T00:00:00	2024-11-08T05:00:00	6	Velocidad del viento	6.4
165854	7	Sololá	713	San Lucas Tolimán	10	San Lucas Tolimán	12	Diciembre	2023-12-19T00:00:00	2024-11-08T05:00:00	7	Dirección del viento	6.44
165855	7	Sololá	713	San Lucas Tolimán	10	San Lucas Tolimán	12	Diciembre	2023-12-19T00:00:00	2024-11-08T05:00:00	1	Precipitación	0
165856	7	Sololá	713	San Lucas Tolimán	10	San Lucas Tolimán	12	Diciembre	2023-12-19T00:00:00	2024-11-08T05:00:00	8	Radiación solar	0
165857	7	Sololá	713	San Lucas Tolimán	10	San Lucas Tolimán	12	Diciembre	2023-12-19T00:00:00	2024-11-08T06:00:00	2	Temperatura media	12.6
165858	7	Sololá	713	San Lucas Tolimán	10	San Lucas Tolimán	12	Diciembre	2023-12-19T00:00:00	2024-11-08T06:00:00	4	Temperatura máxima	13.1
165859	7	Sololá	713	San Lucas Tolimán	10	San Lucas Tolimán	12	Diciembre	2023-12-19T00:00:00	2024-11-08T06:00:00	3	Temperatura mínima	12.3
165860	7	Sololá	713	San Lucas Tolimán	10	San Lucas Tolimán	12	Diciembre	2023-12-19T00:00:00	2024-11-08T06:00:00	5	Humedad	17
165861	7	Sololá	713	San Lucas Tolimán	10	San Lucas Tolimán	12	Diciembre	2023-12-19T00:00:00	2024-11-08T06:00:00	6	Velocidad del viento	4.8
165862	7	Sololá	713	San Lucas Tolimán	10	San Lucas Tolimán	12	Diciembre	2023-12-19T00:00:00	2024-11-08T06:00:00	7	Dirección del viento	4.83
165863	7	Sololá	713	San Lucas Tolimán	10	San Lucas Tolimán	12	Diciembre	2023-12-19T00:00:00	2024-11-08T06:00:00	1	Precipitación	0
165864	7	Sololá	713	San Lucas Tolimán	10	San Lucas Tolimán	12	Diciembre	2023-12-19T00:00:00	2024-11-08T06:00:00	8	Radiación solar	0
165865	7	Sololá	713	San Lucas Tolimán	10	San Lucas Tolimán	12	Diciembre	2023-12-19T00:00:00	2024-11-08T07:00:00	2	Temperatura media	12.3
165866	7	Sololá	713	San Lucas Tolimán	10	San Lucas Tolimán	12	Diciembre	2023-12-19T00:00:00	2024-11-08T07:00:00	4	Temperatura máxima	13.2
165867	7	Sololá	713	San Lucas Tolimán	10	San Lucas Tolimán	12	Diciembre	2023-12-19T00:00:00	2024-11-08T07:00:00	3	Temperatura mínima	12.1
165868	7	Sololá	713	San Lucas Tolimán	10	San Lucas Tolimán	12	Diciembre	2023-12-19T00:00:00	2024-11-08T07:00:00	5	Humedad	21
165869	7	Sololá	713	San Lucas Tolimán	10	San Lucas Tolimán	12	Diciembre	2023-12-19T00:00:00	2024-11-08T07:00:00	6	Velocidad del viento	4.8
165870	7	Sololá	713	San Lucas Tolimán	10	San Lucas Tolimán	12	Diciembre	2023-12-19T00:00:00	2024-11-08T07:00:00	7	Dirección del viento	4.83
165871	7	Sololá	713	San Lucas Tolimán	10	San Lucas Tolimán	12	Diciembre	2023-12-19T00:00:00	2024-11-08T07:00:00	1	Precipitación	0
165872	7	Sololá	713	San Lucas Tolimán	10	San Lucas Tolimán	12	Diciembre	2023-12-19T00:00:00	2024-11-08T07:00:00	8	Radiación solar	6
165873	7	Sololá	713	San Lucas Tolimán	10	San Lucas Tolimán	12	Diciembre	2023-12-19T00:00:00	2024-11-08T08:00:00	2	Temperatura media	14.8
165874	7	Sololá	713	San Lucas Tolimán	10	San Lucas Tolimán	12	Diciembre	2023-12-19T00:00:00	2024-11-08T08:00:00	4	Temperatura máxima	14.8
165875	7	Sololá	713	San Lucas Tolimán	10	San Lucas Tolimán	12	Diciembre	2023-12-19T00:00:00	2024-11-08T08:00:00	3	Temperatura mínima	12.1
165876	7	Sololá	713	San Lucas Tolimán	10	San Lucas Tolimán	12	Diciembre	2023-12-19T00:00:00	2024-11-08T08:00:00	5	Humedad	12
165877	7	Sololá	713	San Lucas Tolimán	10	San Lucas Tolimán	12	Diciembre	2023-12-19T00:00:00	2024-11-08T08:00:00	6	Velocidad del viento	4.8
165878	7	Sololá	713	San Lucas Tolimán	10	San Lucas Tolimán	12	Diciembre	2023-12-19T00:00:00	2024-11-08T08:00:00	7	Dirección del viento	4.83
165879	7	Sololá	713	San Lucas Tolimán	10	San Lucas Tolimán	12	Diciembre	2023-12-19T00:00:00	2024-11-08T08:00:00	1	Precipitación	0
165880	7	Sololá	713	San Lucas Tolimán	10	San Lucas Tolimán	12	Diciembre	2023-12-19T00:00:00	2024-11-08T08:00:00	8	Radiación solar	19
165881	7	Sololá	713	San Lucas Tolimán	10	San Lucas Tolimán	12	Diciembre	2023-12-19T00:00:00	2024-11-08T09:00:00	2	Temperatura media	18.2
165882	7	Sololá	713	San Lucas Tolimán	10	San Lucas Tolimán	12	Diciembre	2023-12-19T00:00:00	2024-11-08T09:00:00	4	Temperatura máxima	18.2
165883	7	Sololá	713	San Lucas Tolimán	10	San Lucas Tolimán	12	Diciembre	2023-12-19T00:00:00	2024-11-08T09:00:00	3	Temperatura mínima	14.8
165884	7	Sololá	713	San Lucas Tolimán	10	San Lucas Tolimán	12	Diciembre	2023-12-19T00:00:00	2024-11-08T09:00:00	5	Humedad	12
165885	7	Sololá	713	San Lucas Tolimán	10	San Lucas Tolimán	12	Diciembre	2023-12-19T00:00:00	2024-11-08T09:00:00	6	Velocidad del viento	4.8
165886	7	Sololá	713	San Lucas Tolimán	10	San Lucas Tolimán	12	Diciembre	2023-12-19T00:00:00	2024-11-08T09:00:00	7	Dirección del viento	4.83
165887	7	Sololá	713	San Lucas Tolimán	10	San Lucas Tolimán	12	Diciembre	2023-12-19T00:00:00	2024-11-08T09:00:00	1	Precipitación	0
165888	7	Sololá	713	San Lucas Tolimán	10	San Lucas Tolimán	12	Diciembre	2023-12-19T00:00:00	2024-11-08T09:00:00	8	Radiación solar	343
165889	7	Sololá	713	San Lucas Tolimán	10	San Lucas Tolimán	12	Diciembre	2023-12-19T00:00:00	2024-11-08T10:00:00	2	Temperatura media	21.2
165890	7	Sololá	713	San Lucas Tolimán	10	San Lucas Tolimán	12	Diciembre	2023-12-19T00:00:00	2024-11-08T10:00:00	4	Temperatura máxima	21.2
165891	7	Sololá	713	San Lucas Tolimán	10	San Lucas Tolimán	12	Diciembre	2023-12-19T00:00:00	2024-11-08T10:00:00	3	Temperatura mínima	18.2
165892	7	Sololá	713	San Lucas Tolimán	10	San Lucas Tolimán	12	Diciembre	2023-12-19T00:00:00	2024-11-08T10:00:00	5	Humedad	10
165893	7	Sololá	713	San Lucas Tolimán	10	San Lucas Tolimán	12	Diciembre	2023-12-19T00:00:00	2024-11-08T10:00:00	6	Velocidad del viento	3.2
165894	7	Sololá	713	San Lucas Tolimán	10	San Lucas Tolimán	12	Diciembre	2023-12-19T00:00:00	2024-11-08T10:00:00	7	Dirección del viento	3.22
165895	7	Sololá	713	San Lucas Tolimán	10	San Lucas Tolimán	12	Diciembre	2023-12-19T00:00:00	2024-11-08T10:00:00	1	Precipitación	0
165896	7	Sololá	713	San Lucas Tolimán	10	San Lucas Tolimán	12	Diciembre	2023-12-19T00:00:00	2024-11-08T10:00:00	8	Radiación solar	647
165897	7	Sololá	713	San Lucas Tolimán	10	San Lucas Tolimán	12	Diciembre	2023-12-19T00:00:00	2024-11-08T11:00:00	2	Temperatura media	22.9
165898	7	Sololá	713	San Lucas Tolimán	10	San Lucas Tolimán	12	Diciembre	2023-12-19T00:00:00	2024-11-08T11:00:00	4	Temperatura máxima	23.1
165899	7	Sololá	713	San Lucas Tolimán	10	San Lucas Tolimán	12	Diciembre	2023-12-19T00:00:00	2024-11-08T11:00:00	3	Temperatura mínima	21.2
165900	7	Sololá	713	San Lucas Tolimán	10	San Lucas Tolimán	12	Diciembre	2023-12-19T00:00:00	2024-11-08T11:00:00	5	Humedad	9
165901	7	Sololá	713	San Lucas Tolimán	10	San Lucas Tolimán	12	Diciembre	2023-12-19T00:00:00	2024-11-08T11:00:00	6	Velocidad del viento	3.2
165902	7	Sololá	713	San Lucas Tolimán	10	San Lucas Tolimán	12	Diciembre	2023-12-19T00:00:00	2024-11-08T11:00:00	7	Dirección del viento	3.22
165903	7	Sololá	713	San Lucas Tolimán	10	San Lucas Tolimán	12	Diciembre	2023-12-19T00:00:00	2024-11-08T11:00:00	1	Precipitación	0
165904	7	Sololá	713	San Lucas Tolimán	10	San Lucas Tolimán	12	Diciembre	2023-12-19T00:00:00	2024-11-08T11:00:00	8	Radiación solar	798
165905	7	Sololá	713	San Lucas Tolimán	10	San Lucas Tolimán	12	Diciembre	2023-12-19T00:00:00	2024-11-08T12:00:00	2	Temperatura media	23.5
165906	7	Sololá	713	San Lucas Tolimán	10	San Lucas Tolimán	12	Diciembre	2023-12-19T00:00:00	2024-11-08T12:00:00	4	Temperatura máxima	24.2
165907	7	Sololá	713	San Lucas Tolimán	10	San Lucas Tolimán	12	Diciembre	2023-12-19T00:00:00	2024-11-08T12:00:00	3	Temperatura mínima	22.7
165908	7	Sololá	713	San Lucas Tolimán	10	San Lucas Tolimán	12	Diciembre	2023-12-19T00:00:00	2024-11-08T12:00:00	5	Humedad	30
165909	7	Sololá	713	San Lucas Tolimán	10	San Lucas Tolimán	12	Diciembre	2023-12-19T00:00:00	2024-11-08T12:00:00	6	Velocidad del viento	6.4
165910	7	Sololá	713	San Lucas Tolimán	10	San Lucas Tolimán	12	Diciembre	2023-12-19T00:00:00	2024-11-08T12:00:00	7	Dirección del viento	6.44
165911	7	Sololá	713	San Lucas Tolimán	10	San Lucas Tolimán	12	Diciembre	2023-12-19T00:00:00	2024-11-08T12:00:00	1	Precipitación	0
165912	7	Sololá	713	San Lucas Tolimán	10	San Lucas Tolimán	12	Diciembre	2023-12-19T00:00:00	2024-11-08T12:00:00	8	Radiación solar	884
165913	7	Sololá	713	San Lucas Tolimán	10	San Lucas Tolimán	12	Diciembre	2023-12-19T00:00:00	2024-11-08T13:00:00	2	Temperatura media	22.5
165914	7	Sololá	713	San Lucas Tolimán	10	San Lucas Tolimán	12	Diciembre	2023-12-19T00:00:00	2024-11-08T13:00:00	4	Temperatura máxima	23.6
165915	7	Sololá	713	San Lucas Tolimán	10	San Lucas Tolimán	12	Diciembre	2023-12-19T00:00:00	2024-11-08T13:00:00	3	Temperatura mínima	22.4
165916	7	Sololá	713	San Lucas Tolimán	10	San Lucas Tolimán	12	Diciembre	2023-12-19T00:00:00	2024-11-08T13:00:00	5	Humedad	37
165917	7	Sololá	713	San Lucas Tolimán	10	San Lucas Tolimán	12	Diciembre	2023-12-19T00:00:00	2024-11-08T13:00:00	6	Velocidad del viento	9.7
165918	7	Sololá	713	San Lucas Tolimán	10	San Lucas Tolimán	12	Diciembre	2023-12-19T00:00:00	2024-11-08T13:00:00	7	Dirección del viento	9.66
165919	7	Sololá	713	San Lucas Tolimán	10	San Lucas Tolimán	12	Diciembre	2023-12-19T00:00:00	2024-11-08T13:00:00	1	Precipitación	0
165920	7	Sololá	713	San Lucas Tolimán	10	San Lucas Tolimán	12	Diciembre	2023-12-19T00:00:00	2024-11-08T13:00:00	8	Radiación solar	881
165921	7	Sololá	713	San Lucas Tolimán	10	San Lucas Tolimán	12	Diciembre	2023-12-19T00:00:00	2024-11-08T14:00:00	2	Temperatura media	22.4
165922	7	Sololá	713	San Lucas Tolimán	10	San Lucas Tolimán	12	Diciembre	2023-12-19T00:00:00	2024-11-08T14:00:00	4	Temperatura máxima	22.9
165923	7	Sololá	713	San Lucas Tolimán	10	San Lucas Tolimán	12	Diciembre	2023-12-19T00:00:00	2024-11-08T14:00:00	3	Temperatura mínima	22.3
165924	7	Sololá	713	San Lucas Tolimán	10	San Lucas Tolimán	12	Diciembre	2023-12-19T00:00:00	2024-11-08T14:00:00	5	Humedad	42
165925	7	Sololá	713	San Lucas Tolimán	10	San Lucas Tolimán	12	Diciembre	2023-12-19T00:00:00	2024-11-08T14:00:00	6	Velocidad del viento	11.3
165926	7	Sololá	713	San Lucas Tolimán	10	San Lucas Tolimán	12	Diciembre	2023-12-19T00:00:00	2024-11-08T14:00:00	7	Dirección del viento	11.27
165927	7	Sololá	713	San Lucas Tolimán	10	San Lucas Tolimán	12	Diciembre	2023-12-19T00:00:00	2024-11-08T14:00:00	1	Precipitación	0
165928	7	Sololá	713	San Lucas Tolimán	10	San Lucas Tolimán	12	Diciembre	2023-12-19T00:00:00	2024-11-08T14:00:00	8	Radiación solar	807
165929	7	Sololá	713	San Lucas Tolimán	10	San Lucas Tolimán	12	Diciembre	2023-12-19T00:00:00	2024-11-08T15:00:00	2	Temperatura media	21.3
165930	7	Sololá	713	San Lucas Tolimán	10	San Lucas Tolimán	12	Diciembre	2023-12-19T00:00:00	2024-11-08T15:00:00	4	Temperatura máxima	22.4
165931	7	Sololá	713	San Lucas Tolimán	10	San Lucas Tolimán	12	Diciembre	2023-12-19T00:00:00	2024-11-08T15:00:00	3	Temperatura mínima	21
165932	7	Sololá	713	San Lucas Tolimán	10	San Lucas Tolimán	12	Diciembre	2023-12-19T00:00:00	2024-11-08T15:00:00	5	Humedad	42
165933	7	Sololá	713	San Lucas Tolimán	10	San Lucas Tolimán	12	Diciembre	2023-12-19T00:00:00	2024-11-08T15:00:00	6	Velocidad del viento	12.9
165934	7	Sololá	713	San Lucas Tolimán	10	San Lucas Tolimán	12	Diciembre	2023-12-19T00:00:00	2024-11-08T15:00:00	7	Dirección del viento	12.87
165935	7	Sololá	713	San Lucas Tolimán	10	San Lucas Tolimán	12	Diciembre	2023-12-19T00:00:00	2024-11-08T15:00:00	1	Precipitación	0
165936	7	Sololá	713	San Lucas Tolimán	10	San Lucas Tolimán	12	Diciembre	2023-12-19T00:00:00	2024-11-08T15:00:00	8	Radiación solar	660
165937	7	Sololá	713	San Lucas Tolimán	10	San Lucas Tolimán	12	Diciembre	2023-12-19T00:00:00	2024-11-08T16:00:00	2	Temperatura media	20.2
165938	7	Sololá	713	San Lucas Tolimán	10	San Lucas Tolimán	12	Diciembre	2023-12-19T00:00:00	2024-11-08T16:00:00	4	Temperatura máxima	21.4
165939	7	Sololá	713	San Lucas Tolimán	10	San Lucas Tolimán	12	Diciembre	2023-12-19T00:00:00	2024-11-08T16:00:00	3	Temperatura mínima	20.1
165940	7	Sololá	713	San Lucas Tolimán	10	San Lucas Tolimán	12	Diciembre	2023-12-19T00:00:00	2024-11-08T16:00:00	5	Humedad	51
165941	7	Sololá	713	San Lucas Tolimán	10	San Lucas Tolimán	12	Diciembre	2023-12-19T00:00:00	2024-11-08T16:00:00	6	Velocidad del viento	12.9
165942	7	Sololá	713	San Lucas Tolimán	10	San Lucas Tolimán	12	Diciembre	2023-12-19T00:00:00	2024-11-08T16:00:00	7	Dirección del viento	12.87
165943	7	Sololá	713	San Lucas Tolimán	10	San Lucas Tolimán	12	Diciembre	2023-12-19T00:00:00	2024-11-08T16:00:00	1	Precipitación	0
165944	7	Sololá	713	San Lucas Tolimán	10	San Lucas Tolimán	12	Diciembre	2023-12-19T00:00:00	2024-11-08T16:00:00	8	Radiación solar	455
165945	7	Sololá	713	San Lucas Tolimán	10	San Lucas Tolimán	12	Diciembre	2023-12-19T00:00:00	2024-11-08T17:00:00	2	Temperatura media	17.8
165946	7	Sololá	713	San Lucas Tolimán	10	San Lucas Tolimán	12	Diciembre	2023-12-19T00:00:00	2024-11-08T17:00:00	4	Temperatura máxima	20.2
165947	7	Sololá	713	San Lucas Tolimán	10	San Lucas Tolimán	12	Diciembre	2023-12-19T00:00:00	2024-11-08T17:00:00	3	Temperatura mínima	17.8
165948	7	Sololá	713	San Lucas Tolimán	10	San Lucas Tolimán	12	Diciembre	2023-12-19T00:00:00	2024-11-08T17:00:00	5	Humedad	61
165949	7	Sololá	713	San Lucas Tolimán	10	San Lucas Tolimán	12	Diciembre	2023-12-19T00:00:00	2024-11-08T17:00:00	6	Velocidad del viento	11.3
165950	7	Sololá	713	San Lucas Tolimán	10	San Lucas Tolimán	12	Diciembre	2023-12-19T00:00:00	2024-11-08T17:00:00	7	Dirección del viento	11.27
165951	7	Sololá	713	San Lucas Tolimán	10	San Lucas Tolimán	12	Diciembre	2023-12-19T00:00:00	2024-11-08T17:00:00	1	Precipitación	0
165952	7	Sololá	713	San Lucas Tolimán	10	San Lucas Tolimán	12	Diciembre	2023-12-19T00:00:00	2024-11-08T17:00:00	8	Radiación solar	149
165953	7	Sololá	713	San Lucas Tolimán	10	San Lucas Tolimán	12	Diciembre	2023-12-19T00:00:00	2024-11-08T18:00:00	2	Temperatura media	16.7
165954	7	Sololá	713	San Lucas Tolimán	10	San Lucas Tolimán	12	Diciembre	2023-12-19T00:00:00	2024-11-08T18:00:00	4	Temperatura máxima	17.8
165955	7	Sololá	713	San Lucas Tolimán	10	San Lucas Tolimán	12	Diciembre	2023-12-19T00:00:00	2024-11-08T18:00:00	3	Temperatura mínima	16.4
165956	7	Sololá	713	San Lucas Tolimán	10	San Lucas Tolimán	12	Diciembre	2023-12-19T00:00:00	2024-11-08T18:00:00	5	Humedad	47
165957	7	Sololá	713	San Lucas Tolimán	10	San Lucas Tolimán	12	Diciembre	2023-12-19T00:00:00	2024-11-08T18:00:00	6	Velocidad del viento	4.8
165958	7	Sololá	713	San Lucas Tolimán	10	San Lucas Tolimán	12	Diciembre	2023-12-19T00:00:00	2024-11-08T18:00:00	7	Dirección del viento	4.83
165959	7	Sololá	713	San Lucas Tolimán	10	San Lucas Tolimán	12	Diciembre	2023-12-19T00:00:00	2024-11-08T18:00:00	1	Precipitación	0
165960	7	Sololá	713	San Lucas Tolimán	10	San Lucas Tolimán	12	Diciembre	2023-12-19T00:00:00	2024-11-08T18:00:00	8	Radiación solar	9
165961	7	Sololá	713	San Lucas Tolimán	10	San Lucas Tolimán	12	Diciembre	2023-12-19T00:00:00	2024-11-08T19:00:00	2	Temperatura media	15.9
165962	7	Sololá	713	San Lucas Tolimán	10	San Lucas Tolimán	12	Diciembre	2023-12-19T00:00:00	2024-11-08T19:00:00	4	Temperatura máxima	16.7
165963	7	Sololá	713	San Lucas Tolimán	10	San Lucas Tolimán	12	Diciembre	2023-12-19T00:00:00	2024-11-08T19:00:00	3	Temperatura mínima	15.9
165964	7	Sololá	713	San Lucas Tolimán	10	San Lucas Tolimán	12	Diciembre	2023-12-19T00:00:00	2024-11-08T19:00:00	5	Humedad	43
165965	7	Sololá	713	San Lucas Tolimán	10	San Lucas Tolimán	12	Diciembre	2023-12-19T00:00:00	2024-11-08T19:00:00	6	Velocidad del viento	3.2
165966	7	Sololá	713	San Lucas Tolimán	10	San Lucas Tolimán	12	Diciembre	2023-12-19T00:00:00	2024-11-08T19:00:00	7	Dirección del viento	3.22
165967	7	Sololá	713	San Lucas Tolimán	10	San Lucas Tolimán	12	Diciembre	2023-12-19T00:00:00	2024-11-08T19:00:00	1	Precipitación	0
165968	7	Sololá	713	San Lucas Tolimán	10	San Lucas Tolimán	12	Diciembre	2023-12-19T00:00:00	2024-11-08T19:00:00	8	Radiación solar	0
165969	7	Sololá	713	San Lucas Tolimán	10	San Lucas Tolimán	12	Diciembre	2023-12-19T00:00:00	2024-11-08T20:00:00	2	Temperatura media	15.3
165970	7	Sololá	713	San Lucas Tolimán	10	San Lucas Tolimán	12	Diciembre	2023-12-19T00:00:00	2024-11-08T20:00:00	4	Temperatura máxima	16
165971	7	Sololá	713	San Lucas Tolimán	10	San Lucas Tolimán	12	Diciembre	2023-12-19T00:00:00	2024-11-08T20:00:00	3	Temperatura mínima	15.3
165972	7	Sololá	713	San Lucas Tolimán	10	San Lucas Tolimán	12	Diciembre	2023-12-19T00:00:00	2024-11-08T20:00:00	5	Humedad	43
165973	7	Sololá	713	San Lucas Tolimán	10	San Lucas Tolimán	12	Diciembre	2023-12-19T00:00:00	2024-11-08T20:00:00	6	Velocidad del viento	8
165974	7	Sololá	713	San Lucas Tolimán	10	San Lucas Tolimán	12	Diciembre	2023-12-19T00:00:00	2024-11-08T20:00:00	7	Dirección del viento	8.05
165975	7	Sololá	713	San Lucas Tolimán	10	San Lucas Tolimán	12	Diciembre	2023-12-19T00:00:00	2024-11-08T20:00:00	1	Precipitación	0
165976	7	Sololá	713	San Lucas Tolimán	10	San Lucas Tolimán	12	Diciembre	2023-12-19T00:00:00	2024-11-08T20:00:00	8	Radiación solar	0
165977	7	Sololá	713	San Lucas Tolimán	10	San Lucas Tolimán	12	Diciembre	2023-12-19T00:00:00	2024-11-08T21:00:00	2	Temperatura media	14.4
165978	7	Sololá	713	San Lucas Tolimán	10	San Lucas Tolimán	12	Diciembre	2023-12-19T00:00:00	2024-11-08T21:00:00	4	Temperatura máxima	15.3
165979	7	Sololá	713	San Lucas Tolimán	10	San Lucas Tolimán	12	Diciembre	2023-12-19T00:00:00	2024-11-08T21:00:00	3	Temperatura mínima	14.4
165980	7	Sololá	713	San Lucas Tolimán	10	San Lucas Tolimán	12	Diciembre	2023-12-19T00:00:00	2024-11-08T21:00:00	5	Humedad	44
165981	7	Sololá	713	San Lucas Tolimán	10	San Lucas Tolimán	12	Diciembre	2023-12-19T00:00:00	2024-11-08T21:00:00	6	Velocidad del viento	6.4
165982	7	Sololá	713	San Lucas Tolimán	10	San Lucas Tolimán	12	Diciembre	2023-12-19T00:00:00	2024-11-08T21:00:00	7	Dirección del viento	6.44
165983	7	Sololá	713	San Lucas Tolimán	10	San Lucas Tolimán	12	Diciembre	2023-12-19T00:00:00	2024-11-08T21:00:00	1	Precipitación	0
165984	7	Sololá	713	San Lucas Tolimán	10	San Lucas Tolimán	12	Diciembre	2023-12-19T00:00:00	2024-11-08T21:00:00	8	Radiación solar	0
165985	7	Sololá	713	San Lucas Tolimán	10	San Lucas Tolimán	12	Diciembre	2023-12-19T00:00:00	2024-11-08T22:00:00	2	Temperatura media	13.7
165986	7	Sololá	713	San Lucas Tolimán	10	San Lucas Tolimán	12	Diciembre	2023-12-19T00:00:00	2024-11-08T22:00:00	4	Temperatura máxima	14.6
165987	7	Sololá	713	San Lucas Tolimán	10	San Lucas Tolimán	12	Diciembre	2023-12-19T00:00:00	2024-11-08T22:00:00	3	Temperatura mínima	13.7
165988	7	Sololá	713	San Lucas Tolimán	10	San Lucas Tolimán	12	Diciembre	2023-12-19T00:00:00	2024-11-08T22:00:00	5	Humedad	45
165989	7	Sololá	713	San Lucas Tolimán	10	San Lucas Tolimán	12	Diciembre	2023-12-19T00:00:00	2024-11-08T22:00:00	6	Velocidad del viento	4.8
165990	7	Sololá	713	San Lucas Tolimán	10	San Lucas Tolimán	12	Diciembre	2023-12-19T00:00:00	2024-11-08T22:00:00	7	Dirección del viento	4.83
165991	7	Sololá	713	San Lucas Tolimán	10	San Lucas Tolimán	12	Diciembre	2023-12-19T00:00:00	2024-11-08T22:00:00	1	Precipitación	0
165992	7	Sololá	713	San Lucas Tolimán	10	San Lucas Tolimán	12	Diciembre	2023-12-19T00:00:00	2024-11-08T22:00:00	8	Radiación solar	0
165993	7	Sololá	713	San Lucas Tolimán	10	San Lucas Tolimán	12	Diciembre	2023-12-19T00:00:00	2024-11-08T23:00:00	2	Temperatura media	12.6
165994	7	Sololá	713	San Lucas Tolimán	10	San Lucas Tolimán	12	Diciembre	2023-12-19T00:00:00	2024-11-08T23:00:00	4	Temperatura máxima	13.7
165995	7	Sololá	713	San Lucas Tolimán	10	San Lucas Tolimán	12	Diciembre	2023-12-19T00:00:00	2024-11-08T23:00:00	3	Temperatura mínima	12.6
165996	7	Sololá	713	San Lucas Tolimán	10	San Lucas Tolimán	12	Diciembre	2023-12-19T00:00:00	2024-11-08T23:00:00	5	Humedad	49
165997	7	Sololá	713	San Lucas Tolimán	10	San Lucas Tolimán	12	Diciembre	2023-12-19T00:00:00	2024-11-08T23:00:00	6	Velocidad del viento	1.6
165998	7	Sololá	713	San Lucas Tolimán	10	San Lucas Tolimán	12	Diciembre	2023-12-19T00:00:00	2024-11-08T23:00:00	7	Dirección del viento	1.61
165999	7	Sololá	713	San Lucas Tolimán	10	San Lucas Tolimán	12	Diciembre	2023-12-19T00:00:00	2024-11-08T23:00:00	1	Precipitación	0
166000	7	Sololá	713	San Lucas Tolimán	10	San Lucas Tolimán	12	Diciembre	2023-12-19T00:00:00	2024-11-08T23:00:00	8	Radiación solar	0
166001	7	Sololá	713	San Lucas Tolimán	10	San Lucas Tolimán	12	Diciembre	2023-12-20T00:00:00	2024-11-08T00:00:00	2	Temperatura media	12.3
166002	7	Sololá	713	San Lucas Tolimán	10	San Lucas Tolimán	12	Diciembre	2023-12-20T00:00:00	2024-11-08T00:00:00	4	Temperatura máxima	12.6
166003	7	Sololá	713	San Lucas Tolimán	10	San Lucas Tolimán	12	Diciembre	2023-12-20T00:00:00	2024-11-08T00:00:00	3	Temperatura mínima	12.3
166004	7	Sololá	713	San Lucas Tolimán	10	San Lucas Tolimán	12	Diciembre	2023-12-20T00:00:00	2024-11-08T00:00:00	5	Humedad	48
166005	7	Sololá	713	San Lucas Tolimán	10	San Lucas Tolimán	12	Diciembre	2023-12-20T00:00:00	2024-11-08T00:00:00	6	Velocidad del viento	1.6
166006	7	Sololá	713	San Lucas Tolimán	10	San Lucas Tolimán	12	Diciembre	2023-12-20T00:00:00	2024-11-08T00:00:00	7	Dirección del viento	1.61
166007	7	Sololá	713	San Lucas Tolimán	10	San Lucas Tolimán	12	Diciembre	2023-12-20T00:00:00	2024-11-08T00:00:00	1	Precipitación	0
166008	7	Sololá	713	San Lucas Tolimán	10	San Lucas Tolimán	12	Diciembre	2023-12-20T00:00:00	2024-11-08T00:00:00	8	Radiación solar	0
166009	7	Sololá	713	San Lucas Tolimán	10	San Lucas Tolimán	12	Diciembre	2023-12-20T00:00:00	2024-11-08T01:00:00	2	Temperatura media	11.9
166010	7	Sololá	713	San Lucas Tolimán	10	San Lucas Tolimán	12	Diciembre	2023-12-20T00:00:00	2024-11-08T01:00:00	4	Temperatura máxima	12.3
166011	7	Sololá	713	San Lucas Tolimán	10	San Lucas Tolimán	12	Diciembre	2023-12-20T00:00:00	2024-11-08T01:00:00	3	Temperatura mínima	11.8
166012	7	Sololá	713	San Lucas Tolimán	10	San Lucas Tolimán	12	Diciembre	2023-12-20T00:00:00	2024-11-08T01:00:00	5	Humedad	49
166013	7	Sololá	713	San Lucas Tolimán	10	San Lucas Tolimán	12	Diciembre	2023-12-20T00:00:00	2024-11-08T01:00:00	6	Velocidad del viento	1.6
166014	7	Sololá	713	San Lucas Tolimán	10	San Lucas Tolimán	12	Diciembre	2023-12-20T00:00:00	2024-11-08T01:00:00	7	Dirección del viento	1.61
166015	7	Sololá	713	San Lucas Tolimán	10	San Lucas Tolimán	12	Diciembre	2023-12-20T00:00:00	2024-11-08T01:00:00	1	Precipitación	0
166016	7	Sololá	713	San Lucas Tolimán	10	San Lucas Tolimán	12	Diciembre	2023-12-20T00:00:00	2024-11-08T01:00:00	8	Radiación solar	0
166017	7	Sololá	713	San Lucas Tolimán	10	San Lucas Tolimán	12	Diciembre	2023-12-20T00:00:00	2024-11-08T02:00:00	2	Temperatura media	11.9
166018	7	Sololá	713	San Lucas Tolimán	10	San Lucas Tolimán	12	Diciembre	2023-12-20T00:00:00	2024-11-08T02:00:00	4	Temperatura máxima	11.9
166019	7	Sololá	713	San Lucas Tolimán	10	San Lucas Tolimán	12	Diciembre	2023-12-20T00:00:00	2024-11-08T02:00:00	3	Temperatura mínima	11.6
166020	7	Sololá	713	San Lucas Tolimán	10	San Lucas Tolimán	12	Diciembre	2023-12-20T00:00:00	2024-11-08T02:00:00	5	Humedad	48
166021	7	Sololá	713	San Lucas Tolimán	10	San Lucas Tolimán	12	Diciembre	2023-12-20T00:00:00	2024-11-08T02:00:00	6	Velocidad del viento	3.2
166022	7	Sololá	713	San Lucas Tolimán	10	San Lucas Tolimán	12	Diciembre	2023-12-20T00:00:00	2024-11-08T02:00:00	7	Dirección del viento	3.22
166023	7	Sololá	713	San Lucas Tolimán	10	San Lucas Tolimán	12	Diciembre	2023-12-20T00:00:00	2024-11-08T02:00:00	1	Precipitación	0
166024	7	Sololá	713	San Lucas Tolimán	10	San Lucas Tolimán	12	Diciembre	2023-12-20T00:00:00	2024-11-08T02:00:00	8	Radiación solar	0
166025	7	Sololá	713	San Lucas Tolimán	10	San Lucas Tolimán	12	Diciembre	2023-12-20T00:00:00	2024-11-08T03:00:00	2	Temperatura media	11.6
166026	7	Sololá	713	San Lucas Tolimán	10	San Lucas Tolimán	12	Diciembre	2023-12-20T00:00:00	2024-11-08T03:00:00	4	Temperatura máxima	11.9
166027	7	Sololá	713	San Lucas Tolimán	10	San Lucas Tolimán	12	Diciembre	2023-12-20T00:00:00	2024-11-08T03:00:00	3	Temperatura mínima	11.6
166028	7	Sololá	713	San Lucas Tolimán	10	San Lucas Tolimán	12	Diciembre	2023-12-20T00:00:00	2024-11-08T03:00:00	5	Humedad	48
166029	7	Sololá	713	San Lucas Tolimán	10	San Lucas Tolimán	12	Diciembre	2023-12-20T00:00:00	2024-11-08T03:00:00	6	Velocidad del viento	3.2
166030	7	Sololá	713	San Lucas Tolimán	10	San Lucas Tolimán	12	Diciembre	2023-12-20T00:00:00	2024-11-08T03:00:00	7	Dirección del viento	3.22
166031	7	Sololá	713	San Lucas Tolimán	10	San Lucas Tolimán	12	Diciembre	2023-12-20T00:00:00	2024-11-08T03:00:00	1	Precipitación	0
166032	7	Sololá	713	San Lucas Tolimán	10	San Lucas Tolimán	12	Diciembre	2023-12-20T00:00:00	2024-11-08T03:00:00	8	Radiación solar	0
166033	7	Sololá	713	San Lucas Tolimán	10	San Lucas Tolimán	12	Diciembre	2023-12-20T00:00:00	2024-11-08T04:00:00	2	Temperatura media	11.8
166034	7	Sololá	713	San Lucas Tolimán	10	San Lucas Tolimán	12	Diciembre	2023-12-20T00:00:00	2024-11-08T04:00:00	4	Temperatura máxima	11.9
166035	7	Sololá	713	San Lucas Tolimán	10	San Lucas Tolimán	12	Diciembre	2023-12-20T00:00:00	2024-11-08T04:00:00	3	Temperatura mínima	11.4
166036	7	Sololá	713	San Lucas Tolimán	10	San Lucas Tolimán	12	Diciembre	2023-12-20T00:00:00	2024-11-08T04:00:00	5	Humedad	47
166037	7	Sololá	713	San Lucas Tolimán	10	San Lucas Tolimán	12	Diciembre	2023-12-20T00:00:00	2024-11-08T04:00:00	6	Velocidad del viento	3.2
166038	7	Sololá	713	San Lucas Tolimán	10	San Lucas Tolimán	12	Diciembre	2023-12-20T00:00:00	2024-11-08T04:00:00	7	Dirección del viento	3.22
166039	7	Sololá	713	San Lucas Tolimán	10	San Lucas Tolimán	12	Diciembre	2023-12-20T00:00:00	2024-11-08T04:00:00	1	Precipitación	0
166040	7	Sololá	713	San Lucas Tolimán	10	San Lucas Tolimán	12	Diciembre	2023-12-20T00:00:00	2024-11-08T04:00:00	8	Radiación solar	0
166041	7	Sololá	713	San Lucas Tolimán	10	San Lucas Tolimán	12	Diciembre	2023-12-20T00:00:00	2024-11-08T05:00:00	2	Temperatura media	11.2
166042	7	Sololá	713	San Lucas Tolimán	10	San Lucas Tolimán	12	Diciembre	2023-12-20T00:00:00	2024-11-08T05:00:00	4	Temperatura máxima	11.9
166043	7	Sololá	713	San Lucas Tolimán	10	San Lucas Tolimán	12	Diciembre	2023-12-20T00:00:00	2024-11-08T05:00:00	3	Temperatura mínima	11.2
166044	7	Sololá	713	San Lucas Tolimán	10	San Lucas Tolimán	12	Diciembre	2023-12-20T00:00:00	2024-11-08T05:00:00	5	Humedad	51
166045	7	Sololá	713	San Lucas Tolimán	10	San Lucas Tolimán	12	Diciembre	2023-12-20T00:00:00	2024-11-08T05:00:00	6	Velocidad del viento	3.2
166046	7	Sololá	713	San Lucas Tolimán	10	San Lucas Tolimán	12	Diciembre	2023-12-20T00:00:00	2024-11-08T05:00:00	7	Dirección del viento	3.22
166047	7	Sololá	713	San Lucas Tolimán	10	San Lucas Tolimán	12	Diciembre	2023-12-20T00:00:00	2024-11-08T05:00:00	1	Precipitación	0
166048	7	Sololá	713	San Lucas Tolimán	10	San Lucas Tolimán	12	Diciembre	2023-12-20T00:00:00	2024-11-08T05:00:00	8	Radiación solar	0
166049	7	Sololá	713	San Lucas Tolimán	10	San Lucas Tolimán	12	Diciembre	2023-12-20T00:00:00	2024-11-08T06:00:00	2	Temperatura media	10.9
166050	7	Sololá	713	San Lucas Tolimán	10	San Lucas Tolimán	12	Diciembre	2023-12-20T00:00:00	2024-11-08T06:00:00	4	Temperatura máxima	11.5
166051	7	Sololá	713	San Lucas Tolimán	10	San Lucas Tolimán	12	Diciembre	2023-12-20T00:00:00	2024-11-08T06:00:00	3	Temperatura mínima	10.8
166052	7	Sololá	713	San Lucas Tolimán	10	San Lucas Tolimán	12	Diciembre	2023-12-20T00:00:00	2024-11-08T06:00:00	5	Humedad	52
166053	7	Sololá	713	San Lucas Tolimán	10	San Lucas Tolimán	12	Diciembre	2023-12-20T00:00:00	2024-11-08T06:00:00	6	Velocidad del viento	3.2
166054	7	Sololá	713	San Lucas Tolimán	10	San Lucas Tolimán	12	Diciembre	2023-12-20T00:00:00	2024-11-08T06:00:00	7	Dirección del viento	3.22
166055	7	Sololá	713	San Lucas Tolimán	10	San Lucas Tolimán	12	Diciembre	2023-12-20T00:00:00	2024-11-08T06:00:00	1	Precipitación	0
166056	7	Sololá	713	San Lucas Tolimán	10	San Lucas Tolimán	12	Diciembre	2023-12-20T00:00:00	2024-11-08T06:00:00	8	Radiación solar	0
166057	7	Sololá	713	San Lucas Tolimán	10	San Lucas Tolimán	12	Diciembre	2023-12-20T00:00:00	2024-11-08T07:00:00	2	Temperatura media	11.1
166058	7	Sololá	713	San Lucas Tolimán	10	San Lucas Tolimán	12	Diciembre	2023-12-20T00:00:00	2024-11-08T07:00:00	4	Temperatura máxima	11.1
166059	7	Sololá	713	San Lucas Tolimán	10	San Lucas Tolimán	12	Diciembre	2023-12-20T00:00:00	2024-11-08T07:00:00	3	Temperatura mínima	10.6
166060	7	Sololá	713	San Lucas Tolimán	10	San Lucas Tolimán	12	Diciembre	2023-12-20T00:00:00	2024-11-08T07:00:00	5	Humedad	54
166061	7	Sololá	713	San Lucas Tolimán	10	San Lucas Tolimán	12	Diciembre	2023-12-20T00:00:00	2024-11-08T07:00:00	6	Velocidad del viento	3.2
166062	7	Sololá	713	San Lucas Tolimán	10	San Lucas Tolimán	12	Diciembre	2023-12-20T00:00:00	2024-11-08T07:00:00	7	Dirección del viento	3.22
166063	7	Sololá	713	San Lucas Tolimán	10	San Lucas Tolimán	12	Diciembre	2023-12-20T00:00:00	2024-11-08T07:00:00	1	Precipitación	0
166064	7	Sololá	713	San Lucas Tolimán	10	San Lucas Tolimán	12	Diciembre	2023-12-20T00:00:00	2024-11-08T07:00:00	8	Radiación solar	7
166065	7	Sololá	713	San Lucas Tolimán	10	San Lucas Tolimán	12	Diciembre	2023-12-20T00:00:00	2024-11-08T08:00:00	2	Temperatura media	12.2
166066	7	Sololá	713	San Lucas Tolimán	10	San Lucas Tolimán	12	Diciembre	2023-12-20T00:00:00	2024-11-08T08:00:00	4	Temperatura máxima	12.2
166067	7	Sololá	713	San Lucas Tolimán	10	San Lucas Tolimán	12	Diciembre	2023-12-20T00:00:00	2024-11-08T08:00:00	3	Temperatura mínima	11.2
166068	7	Sololá	713	San Lucas Tolimán	10	San Lucas Tolimán	12	Diciembre	2023-12-20T00:00:00	2024-11-08T08:00:00	5	Humedad	53
166069	7	Sololá	713	San Lucas Tolimán	10	San Lucas Tolimán	12	Diciembre	2023-12-20T00:00:00	2024-11-08T08:00:00	6	Velocidad del viento	4.8
166070	7	Sololá	713	San Lucas Tolimán	10	San Lucas Tolimán	12	Diciembre	2023-12-20T00:00:00	2024-11-08T08:00:00	7	Dirección del viento	4.83
166071	7	Sololá	713	San Lucas Tolimán	10	San Lucas Tolimán	12	Diciembre	2023-12-20T00:00:00	2024-11-08T08:00:00	1	Precipitación	0
166072	7	Sololá	713	San Lucas Tolimán	10	San Lucas Tolimán	12	Diciembre	2023-12-20T00:00:00	2024-11-08T08:00:00	8	Radiación solar	25
166073	7	Sololá	713	San Lucas Tolimán	10	San Lucas Tolimán	12	Diciembre	2023-12-20T00:00:00	2024-11-08T09:00:00	2	Temperatura media	15.2
166074	7	Sololá	713	San Lucas Tolimán	10	San Lucas Tolimán	12	Diciembre	2023-12-20T00:00:00	2024-11-08T09:00:00	4	Temperatura máxima	15.2
166075	7	Sololá	713	San Lucas Tolimán	10	San Lucas Tolimán	12	Diciembre	2023-12-20T00:00:00	2024-11-08T09:00:00	3	Temperatura mínima	12.2
166076	7	Sololá	713	San Lucas Tolimán	10	San Lucas Tolimán	12	Diciembre	2023-12-20T00:00:00	2024-11-08T09:00:00	5	Humedad	46
166077	7	Sololá	713	San Lucas Tolimán	10	San Lucas Tolimán	12	Diciembre	2023-12-20T00:00:00	2024-11-08T09:00:00	6	Velocidad del viento	6.4
166078	7	Sololá	713	San Lucas Tolimán	10	San Lucas Tolimán	12	Diciembre	2023-12-20T00:00:00	2024-11-08T09:00:00	7	Dirección del viento	6.44
166079	7	Sololá	713	San Lucas Tolimán	10	San Lucas Tolimán	12	Diciembre	2023-12-20T00:00:00	2024-11-08T09:00:00	1	Precipitación	0
166080	7	Sololá	713	San Lucas Tolimán	10	San Lucas Tolimán	12	Diciembre	2023-12-20T00:00:00	2024-11-08T09:00:00	8	Radiación solar	323
166081	7	Sololá	713	San Lucas Tolimán	10	San Lucas Tolimán	12	Diciembre	2023-12-20T00:00:00	2024-11-08T10:00:00	2	Temperatura media	16.6
166082	7	Sololá	713	San Lucas Tolimán	10	San Lucas Tolimán	12	Diciembre	2023-12-20T00:00:00	2024-11-08T10:00:00	4	Temperatura máxima	16.8
166083	7	Sololá	713	San Lucas Tolimán	10	San Lucas Tolimán	12	Diciembre	2023-12-20T00:00:00	2024-11-08T10:00:00	3	Temperatura mínima	15.2
166084	7	Sololá	713	San Lucas Tolimán	10	San Lucas Tolimán	12	Diciembre	2023-12-20T00:00:00	2024-11-08T10:00:00	5	Humedad	43
166085	7	Sololá	713	San Lucas Tolimán	10	San Lucas Tolimán	12	Diciembre	2023-12-20T00:00:00	2024-11-08T10:00:00	6	Velocidad del viento	8
166086	7	Sololá	713	San Lucas Tolimán	10	San Lucas Tolimán	12	Diciembre	2023-12-20T00:00:00	2024-11-08T10:00:00	7	Dirección del viento	8.05
166087	7	Sololá	713	San Lucas Tolimán	10	San Lucas Tolimán	12	Diciembre	2023-12-20T00:00:00	2024-11-08T10:00:00	1	Precipitación	0
166088	7	Sololá	713	San Lucas Tolimán	10	San Lucas Tolimán	12	Diciembre	2023-12-20T00:00:00	2024-11-08T10:00:00	8	Radiación solar	624
166089	7	Sololá	713	San Lucas Tolimán	10	San Lucas Tolimán	12	Diciembre	2023-12-20T00:00:00	2024-11-08T11:00:00	2	Temperatura media	21.1
166090	7	Sololá	713	San Lucas Tolimán	10	San Lucas Tolimán	12	Diciembre	2023-12-20T00:00:00	2024-11-08T11:00:00	4	Temperatura máxima	21.1
166091	7	Sololá	713	San Lucas Tolimán	10	San Lucas Tolimán	12	Diciembre	2023-12-20T00:00:00	2024-11-08T11:00:00	3	Temperatura mínima	16.6
166092	7	Sololá	713	San Lucas Tolimán	10	San Lucas Tolimán	12	Diciembre	2023-12-20T00:00:00	2024-11-08T11:00:00	5	Humedad	46
166093	7	Sololá	713	San Lucas Tolimán	10	San Lucas Tolimán	12	Diciembre	2023-12-20T00:00:00	2024-11-08T11:00:00	6	Velocidad del viento	4.8
166094	7	Sololá	713	San Lucas Tolimán	10	San Lucas Tolimán	12	Diciembre	2023-12-20T00:00:00	2024-11-08T11:00:00	7	Dirección del viento	4.83
166095	7	Sololá	713	San Lucas Tolimán	10	San Lucas Tolimán	12	Diciembre	2023-12-20T00:00:00	2024-11-08T11:00:00	1	Precipitación	0
166096	7	Sololá	713	San Lucas Tolimán	10	San Lucas Tolimán	12	Diciembre	2023-12-20T00:00:00	2024-11-08T11:00:00	8	Radiación solar	767
166097	7	Sololá	713	San Lucas Tolimán	10	San Lucas Tolimán	12	Diciembre	2023-12-20T00:00:00	2024-11-08T12:00:00	2	Temperatura media	21
166098	7	Sololá	713	San Lucas Tolimán	10	San Lucas Tolimán	12	Diciembre	2023-12-20T00:00:00	2024-11-08T12:00:00	4	Temperatura máxima	21.4
166099	7	Sololá	713	San Lucas Tolimán	10	San Lucas Tolimán	12	Diciembre	2023-12-20T00:00:00	2024-11-08T12:00:00	3	Temperatura mínima	20.8
166100	7	Sololá	713	San Lucas Tolimán	10	San Lucas Tolimán	12	Diciembre	2023-12-20T00:00:00	2024-11-08T12:00:00	5	Humedad	47
166101	7	Sololá	713	San Lucas Tolimán	10	San Lucas Tolimán	12	Diciembre	2023-12-20T00:00:00	2024-11-08T12:00:00	6	Velocidad del viento	9.7
166102	7	Sololá	713	San Lucas Tolimán	10	San Lucas Tolimán	12	Diciembre	2023-12-20T00:00:00	2024-11-08T12:00:00	7	Dirección del viento	9.66
166103	7	Sololá	713	San Lucas Tolimán	10	San Lucas Tolimán	12	Diciembre	2023-12-20T00:00:00	2024-11-08T12:00:00	1	Precipitación	0
166104	7	Sololá	713	San Lucas Tolimán	10	San Lucas Tolimán	12	Diciembre	2023-12-20T00:00:00	2024-11-08T12:00:00	8	Radiación solar	841
166105	7	Sololá	713	San Lucas Tolimán	10	San Lucas Tolimán	12	Diciembre	2023-12-20T00:00:00	2024-11-08T13:00:00	2	Temperatura media	21.3
166106	7	Sololá	713	San Lucas Tolimán	10	San Lucas Tolimán	12	Diciembre	2023-12-20T00:00:00	2024-11-08T13:00:00	4	Temperatura máxima	21.4
166107	7	Sololá	713	San Lucas Tolimán	10	San Lucas Tolimán	12	Diciembre	2023-12-20T00:00:00	2024-11-08T13:00:00	3	Temperatura mínima	20.9
166108	7	Sololá	713	San Lucas Tolimán	10	San Lucas Tolimán	12	Diciembre	2023-12-20T00:00:00	2024-11-08T13:00:00	5	Humedad	49
166109	7	Sololá	713	San Lucas Tolimán	10	San Lucas Tolimán	12	Diciembre	2023-12-20T00:00:00	2024-11-08T13:00:00	6	Velocidad del viento	11.3
166110	7	Sololá	713	San Lucas Tolimán	10	San Lucas Tolimán	12	Diciembre	2023-12-20T00:00:00	2024-11-08T13:00:00	7	Dirección del viento	11.27
166111	7	Sololá	713	San Lucas Tolimán	10	San Lucas Tolimán	12	Diciembre	2023-12-20T00:00:00	2024-11-08T13:00:00	1	Precipitación	0
166112	7	Sololá	713	San Lucas Tolimán	10	San Lucas Tolimán	12	Diciembre	2023-12-20T00:00:00	2024-11-08T13:00:00	8	Radiación solar	845
166113	7	Sololá	713	San Lucas Tolimán	10	San Lucas Tolimán	12	Diciembre	2023-12-20T00:00:00	2024-11-08T14:00:00	2	Temperatura media	21.3
166114	7	Sololá	713	San Lucas Tolimán	10	San Lucas Tolimán	12	Diciembre	2023-12-20T00:00:00	2024-11-08T14:00:00	4	Temperatura máxima	21.6
166115	7	Sololá	713	San Lucas Tolimán	10	San Lucas Tolimán	12	Diciembre	2023-12-20T00:00:00	2024-11-08T14:00:00	3	Temperatura mínima	20.9
166116	7	Sololá	713	San Lucas Tolimán	10	San Lucas Tolimán	12	Diciembre	2023-12-20T00:00:00	2024-11-08T14:00:00	5	Humedad	52
166117	7	Sololá	713	San Lucas Tolimán	10	San Lucas Tolimán	12	Diciembre	2023-12-20T00:00:00	2024-11-08T14:00:00	6	Velocidad del viento	11.3
166118	7	Sololá	713	San Lucas Tolimán	10	San Lucas Tolimán	12	Diciembre	2023-12-20T00:00:00	2024-11-08T14:00:00	7	Dirección del viento	11.27
166119	7	Sololá	713	San Lucas Tolimán	10	San Lucas Tolimán	12	Diciembre	2023-12-20T00:00:00	2024-11-08T14:00:00	1	Precipitación	0
166120	7	Sololá	713	San Lucas Tolimán	10	San Lucas Tolimán	12	Diciembre	2023-12-20T00:00:00	2024-11-08T14:00:00	8	Radiación solar	775
166121	7	Sololá	713	San Lucas Tolimán	10	San Lucas Tolimán	12	Diciembre	2023-12-20T00:00:00	2024-11-08T15:00:00	2	Temperatura media	20.7
166122	7	Sololá	713	San Lucas Tolimán	10	San Lucas Tolimán	12	Diciembre	2023-12-20T00:00:00	2024-11-08T15:00:00	4	Temperatura máxima	21.5
166123	7	Sololá	713	San Lucas Tolimán	10	San Lucas Tolimán	12	Diciembre	2023-12-20T00:00:00	2024-11-08T15:00:00	3	Temperatura mínima	20.7
166124	7	Sololá	713	San Lucas Tolimán	10	San Lucas Tolimán	12	Diciembre	2023-12-20T00:00:00	2024-11-08T15:00:00	5	Humedad	55
166125	7	Sololá	713	San Lucas Tolimán	10	San Lucas Tolimán	12	Diciembre	2023-12-20T00:00:00	2024-11-08T15:00:00	6	Velocidad del viento	12.9
166126	7	Sololá	713	San Lucas Tolimán	10	San Lucas Tolimán	12	Diciembre	2023-12-20T00:00:00	2024-11-08T15:00:00	7	Dirección del viento	12.87
166127	7	Sololá	713	San Lucas Tolimán	10	San Lucas Tolimán	12	Diciembre	2023-12-20T00:00:00	2024-11-08T15:00:00	1	Precipitación	0
166128	7	Sololá	713	San Lucas Tolimán	10	San Lucas Tolimán	12	Diciembre	2023-12-20T00:00:00	2024-11-08T15:00:00	8	Radiación solar	640
166129	7	Sololá	713	San Lucas Tolimán	10	San Lucas Tolimán	12	Diciembre	2023-12-20T00:00:00	2024-11-08T16:00:00	2	Temperatura media	20.3
166130	7	Sololá	713	San Lucas Tolimán	10	San Lucas Tolimán	12	Diciembre	2023-12-20T00:00:00	2024-11-08T16:00:00	4	Temperatura máxima	20.8
166131	7	Sololá	713	San Lucas Tolimán	10	San Lucas Tolimán	12	Diciembre	2023-12-20T00:00:00	2024-11-08T16:00:00	3	Temperatura mínima	20.2
166132	7	Sololá	713	San Lucas Tolimán	10	San Lucas Tolimán	12	Diciembre	2023-12-20T00:00:00	2024-11-08T16:00:00	5	Humedad	57
166133	7	Sololá	713	San Lucas Tolimán	10	San Lucas Tolimán	12	Diciembre	2023-12-20T00:00:00	2024-11-08T16:00:00	6	Velocidad del viento	11.3
166134	7	Sololá	713	San Lucas Tolimán	10	San Lucas Tolimán	12	Diciembre	2023-12-20T00:00:00	2024-11-08T16:00:00	7	Dirección del viento	11.27
166135	7	Sololá	713	San Lucas Tolimán	10	San Lucas Tolimán	12	Diciembre	2023-12-20T00:00:00	2024-11-08T16:00:00	1	Precipitación	0
166136	7	Sololá	713	San Lucas Tolimán	10	San Lucas Tolimán	12	Diciembre	2023-12-20T00:00:00	2024-11-08T16:00:00	8	Radiación solar	445
166137	7	Sololá	713	San Lucas Tolimán	10	San Lucas Tolimán	12	Diciembre	2023-12-20T00:00:00	2024-11-08T17:00:00	2	Temperatura media	18.3
166138	7	Sololá	713	San Lucas Tolimán	10	San Lucas Tolimán	12	Diciembre	2023-12-20T00:00:00	2024-11-08T17:00:00	4	Temperatura máxima	20.3
166139	7	Sololá	713	San Lucas Tolimán	10	San Lucas Tolimán	12	Diciembre	2023-12-20T00:00:00	2024-11-08T17:00:00	3	Temperatura mínima	18.3
166140	7	Sololá	713	San Lucas Tolimán	10	San Lucas Tolimán	12	Diciembre	2023-12-20T00:00:00	2024-11-08T17:00:00	5	Humedad	61
166141	7	Sololá	713	San Lucas Tolimán	10	San Lucas Tolimán	12	Diciembre	2023-12-20T00:00:00	2024-11-08T17:00:00	6	Velocidad del viento	9.7
166142	7	Sololá	713	San Lucas Tolimán	10	San Lucas Tolimán	12	Diciembre	2023-12-20T00:00:00	2024-11-08T17:00:00	7	Dirección del viento	9.66
166143	7	Sololá	713	San Lucas Tolimán	10	San Lucas Tolimán	12	Diciembre	2023-12-20T00:00:00	2024-11-08T17:00:00	1	Precipitación	0
166144	7	Sololá	713	San Lucas Tolimán	10	San Lucas Tolimán	12	Diciembre	2023-12-20T00:00:00	2024-11-08T17:00:00	8	Radiación solar	163
166145	7	Sololá	713	San Lucas Tolimán	10	San Lucas Tolimán	12	Diciembre	2023-12-20T00:00:00	2024-11-08T18:00:00	2	Temperatura media	16.4
166146	7	Sololá	713	San Lucas Tolimán	10	San Lucas Tolimán	12	Diciembre	2023-12-20T00:00:00	2024-11-08T18:00:00	4	Temperatura máxima	18.3
166147	7	Sololá	713	San Lucas Tolimán	10	San Lucas Tolimán	12	Diciembre	2023-12-20T00:00:00	2024-11-08T18:00:00	3	Temperatura mínima	16.4
166148	7	Sololá	713	San Lucas Tolimán	10	San Lucas Tolimán	12	Diciembre	2023-12-20T00:00:00	2024-11-08T18:00:00	5	Humedad	61
166149	7	Sololá	713	San Lucas Tolimán	10	San Lucas Tolimán	12	Diciembre	2023-12-20T00:00:00	2024-11-08T18:00:00	6	Velocidad del viento	8
166150	7	Sololá	713	San Lucas Tolimán	10	San Lucas Tolimán	12	Diciembre	2023-12-20T00:00:00	2024-11-08T18:00:00	7	Dirección del viento	8.05
166151	7	Sololá	713	San Lucas Tolimán	10	San Lucas Tolimán	12	Diciembre	2023-12-20T00:00:00	2024-11-08T18:00:00	1	Precipitación	0
166152	7	Sololá	713	San Lucas Tolimán	10	San Lucas Tolimán	12	Diciembre	2023-12-20T00:00:00	2024-11-08T18:00:00	8	Radiación solar	10
166153	7	Sololá	713	San Lucas Tolimán	10	San Lucas Tolimán	12	Diciembre	2023-12-20T00:00:00	2024-11-08T19:00:00	2	Temperatura media	15.2
166154	7	Sololá	713	San Lucas Tolimán	10	San Lucas Tolimán	12	Diciembre	2023-12-20T00:00:00	2024-11-08T19:00:00	4	Temperatura máxima	16.4
166155	7	Sololá	713	San Lucas Tolimán	10	San Lucas Tolimán	12	Diciembre	2023-12-20T00:00:00	2024-11-08T19:00:00	3	Temperatura mínima	15.2
166156	7	Sololá	713	San Lucas Tolimán	10	San Lucas Tolimán	12	Diciembre	2023-12-20T00:00:00	2024-11-08T19:00:00	5	Humedad	61
166157	7	Sololá	713	San Lucas Tolimán	10	San Lucas Tolimán	12	Diciembre	2023-12-20T00:00:00	2024-11-08T19:00:00	6	Velocidad del viento	3.2
166158	7	Sololá	713	San Lucas Tolimán	10	San Lucas Tolimán	12	Diciembre	2023-12-20T00:00:00	2024-11-08T19:00:00	7	Dirección del viento	3.22
166159	7	Sololá	713	San Lucas Tolimán	10	San Lucas Tolimán	12	Diciembre	2023-12-20T00:00:00	2024-11-08T19:00:00	1	Precipitación	0
166160	7	Sololá	713	San Lucas Tolimán	10	San Lucas Tolimán	12	Diciembre	2023-12-20T00:00:00	2024-11-08T19:00:00	8	Radiación solar	0
166161	7	Sololá	713	San Lucas Tolimán	10	San Lucas Tolimán	12	Diciembre	2023-12-20T00:00:00	2024-11-08T20:00:00	2	Temperatura media	14.9
166162	7	Sololá	713	San Lucas Tolimán	10	San Lucas Tolimán	12	Diciembre	2023-12-20T00:00:00	2024-11-08T20:00:00	4	Temperatura máxima	15.2
166163	7	Sololá	713	San Lucas Tolimán	10	San Lucas Tolimán	12	Diciembre	2023-12-20T00:00:00	2024-11-08T20:00:00	3	Temperatura mínima	14.3
166164	7	Sololá	713	San Lucas Tolimán	10	San Lucas Tolimán	12	Diciembre	2023-12-20T00:00:00	2024-11-08T20:00:00	5	Humedad	53
166165	7	Sololá	713	San Lucas Tolimán	10	San Lucas Tolimán	12	Diciembre	2023-12-20T00:00:00	2024-11-08T20:00:00	6	Velocidad del viento	1.6
166166	7	Sololá	713	San Lucas Tolimán	10	San Lucas Tolimán	12	Diciembre	2023-12-20T00:00:00	2024-11-08T20:00:00	7	Dirección del viento	1.61
166167	7	Sololá	713	San Lucas Tolimán	10	San Lucas Tolimán	12	Diciembre	2023-12-20T00:00:00	2024-11-08T20:00:00	1	Precipitación	0
166168	7	Sololá	713	San Lucas Tolimán	10	San Lucas Tolimán	12	Diciembre	2023-12-20T00:00:00	2024-11-08T20:00:00	8	Radiación solar	0
166169	7	Sololá	713	San Lucas Tolimán	10	San Lucas Tolimán	12	Diciembre	2023-12-20T00:00:00	2024-11-08T21:00:00	2	Temperatura media	15.7
166170	7	Sololá	713	San Lucas Tolimán	10	San Lucas Tolimán	12	Diciembre	2023-12-20T00:00:00	2024-11-08T21:00:00	4	Temperatura máxima	15.8
166171	7	Sololá	713	San Lucas Tolimán	10	San Lucas Tolimán	12	Diciembre	2023-12-20T00:00:00	2024-11-08T21:00:00	3	Temperatura mínima	14.9
166172	7	Sololá	713	San Lucas Tolimán	10	San Lucas Tolimán	12	Diciembre	2023-12-20T00:00:00	2024-11-08T21:00:00	5	Humedad	46
166173	7	Sololá	713	San Lucas Tolimán	10	San Lucas Tolimán	12	Diciembre	2023-12-20T00:00:00	2024-11-08T21:00:00	6	Velocidad del viento	6.4
166174	7	Sololá	713	San Lucas Tolimán	10	San Lucas Tolimán	12	Diciembre	2023-12-20T00:00:00	2024-11-08T21:00:00	7	Dirección del viento	6.44
166175	7	Sololá	713	San Lucas Tolimán	10	San Lucas Tolimán	12	Diciembre	2023-12-20T00:00:00	2024-11-08T21:00:00	1	Precipitación	0
166176	7	Sololá	713	San Lucas Tolimán	10	San Lucas Tolimán	12	Diciembre	2023-12-20T00:00:00	2024-11-08T21:00:00	8	Radiación solar	0
166177	7	Sololá	713	San Lucas Tolimán	10	San Lucas Tolimán	12	Diciembre	2023-12-20T00:00:00	2024-11-08T22:00:00	2	Temperatura media	15.5
166178	7	Sololá	713	San Lucas Tolimán	10	San Lucas Tolimán	12	Diciembre	2023-12-20T00:00:00	2024-11-08T22:00:00	4	Temperatura máxima	15.8
166179	7	Sololá	713	San Lucas Tolimán	10	San Lucas Tolimán	12	Diciembre	2023-12-20T00:00:00	2024-11-08T22:00:00	3	Temperatura mínima	15.4
166180	7	Sololá	713	San Lucas Tolimán	10	San Lucas Tolimán	12	Diciembre	2023-12-20T00:00:00	2024-11-08T22:00:00	5	Humedad	45
166181	7	Sololá	713	San Lucas Tolimán	10	San Lucas Tolimán	12	Diciembre	2023-12-20T00:00:00	2024-11-08T22:00:00	6	Velocidad del viento	14.5
166182	7	Sololá	713	San Lucas Tolimán	10	San Lucas Tolimán	12	Diciembre	2023-12-20T00:00:00	2024-11-08T22:00:00	7	Dirección del viento	14.48
166183	7	Sololá	713	San Lucas Tolimán	10	San Lucas Tolimán	12	Diciembre	2023-12-20T00:00:00	2024-11-08T22:00:00	1	Precipitación	0
166184	7	Sololá	713	San Lucas Tolimán	10	San Lucas Tolimán	12	Diciembre	2023-12-20T00:00:00	2024-11-08T22:00:00	8	Radiación solar	0
166185	7	Sololá	713	San Lucas Tolimán	10	San Lucas Tolimán	12	Diciembre	2023-12-20T00:00:00	2024-11-08T23:00:00	2	Temperatura media	14.9
166186	7	Sololá	713	San Lucas Tolimán	10	San Lucas Tolimán	12	Diciembre	2023-12-20T00:00:00	2024-11-08T23:00:00	4	Temperatura máxima	15.5
166187	7	Sololá	713	San Lucas Tolimán	10	San Lucas Tolimán	12	Diciembre	2023-12-20T00:00:00	2024-11-08T23:00:00	3	Temperatura mínima	14.9
166188	7	Sololá	713	San Lucas Tolimán	10	San Lucas Tolimán	12	Diciembre	2023-12-20T00:00:00	2024-11-08T23:00:00	5	Humedad	46
166189	7	Sololá	713	San Lucas Tolimán	10	San Lucas Tolimán	12	Diciembre	2023-12-20T00:00:00	2024-11-08T23:00:00	6	Velocidad del viento	12.9
166190	7	Sololá	713	San Lucas Tolimán	10	San Lucas Tolimán	12	Diciembre	2023-12-20T00:00:00	2024-11-08T23:00:00	7	Dirección del viento	12.87
166191	7	Sololá	713	San Lucas Tolimán	10	San Lucas Tolimán	12	Diciembre	2023-12-20T00:00:00	2024-11-08T23:00:00	1	Precipitación	0
166192	7	Sololá	713	San Lucas Tolimán	10	San Lucas Tolimán	12	Diciembre	2023-12-20T00:00:00	2024-11-08T23:00:00	8	Radiación solar	0
166193	7	Sololá	713	San Lucas Tolimán	10	San Lucas Tolimán	12	Diciembre	2023-12-21T00:00:00	2024-11-08T00:00:00	2	Temperatura media	13.8
166194	7	Sololá	713	San Lucas Tolimán	10	San Lucas Tolimán	12	Diciembre	2023-12-21T00:00:00	2024-11-08T00:00:00	4	Temperatura máxima	15
166195	7	Sololá	713	San Lucas Tolimán	10	San Lucas Tolimán	12	Diciembre	2023-12-21T00:00:00	2024-11-08T00:00:00	3	Temperatura mínima	13.8
166196	7	Sololá	713	San Lucas Tolimán	10	San Lucas Tolimán	12	Diciembre	2023-12-21T00:00:00	2024-11-08T00:00:00	5	Humedad	52
166197	7	Sololá	713	San Lucas Tolimán	10	San Lucas Tolimán	12	Diciembre	2023-12-21T00:00:00	2024-11-08T00:00:00	6	Velocidad del viento	9.7
166198	7	Sololá	713	San Lucas Tolimán	10	San Lucas Tolimán	12	Diciembre	2023-12-21T00:00:00	2024-11-08T00:00:00	7	Dirección del viento	9.66
166199	7	Sololá	713	San Lucas Tolimán	10	San Lucas Tolimán	12	Diciembre	2023-12-21T00:00:00	2024-11-08T00:00:00	1	Precipitación	0
166200	7	Sololá	713	San Lucas Tolimán	10	San Lucas Tolimán	12	Diciembre	2023-12-21T00:00:00	2024-11-08T00:00:00	8	Radiación solar	0
166201	7	Sololá	713	San Lucas Tolimán	10	San Lucas Tolimán	12	Diciembre	2023-12-21T00:00:00	2024-11-08T01:00:00	2	Temperatura media	13.4
166202	7	Sololá	713	San Lucas Tolimán	10	San Lucas Tolimán	12	Diciembre	2023-12-21T00:00:00	2024-11-08T01:00:00	4	Temperatura máxima	13.9
166203	7	Sololá	713	San Lucas Tolimán	10	San Lucas Tolimán	12	Diciembre	2023-12-21T00:00:00	2024-11-08T01:00:00	3	Temperatura mínima	13.3
166204	7	Sololá	713	San Lucas Tolimán	10	San Lucas Tolimán	12	Diciembre	2023-12-21T00:00:00	2024-11-08T01:00:00	5	Humedad	51
166205	7	Sololá	713	San Lucas Tolimán	10	San Lucas Tolimán	12	Diciembre	2023-12-21T00:00:00	2024-11-08T01:00:00	6	Velocidad del viento	6.4
166206	7	Sololá	713	San Lucas Tolimán	10	San Lucas Tolimán	12	Diciembre	2023-12-21T00:00:00	2024-11-08T01:00:00	7	Dirección del viento	6.44
166207	7	Sololá	713	San Lucas Tolimán	10	San Lucas Tolimán	12	Diciembre	2023-12-21T00:00:00	2024-11-08T01:00:00	1	Precipitación	0
166208	7	Sololá	713	San Lucas Tolimán	10	San Lucas Tolimán	12	Diciembre	2023-12-21T00:00:00	2024-11-08T01:00:00	8	Radiación solar	0
166209	7	Sololá	713	San Lucas Tolimán	10	San Lucas Tolimán	12	Diciembre	2023-12-21T00:00:00	2024-11-08T02:00:00	2	Temperatura media	13.1
166210	7	Sololá	713	San Lucas Tolimán	10	San Lucas Tolimán	12	Diciembre	2023-12-21T00:00:00	2024-11-08T02:00:00	4	Temperatura máxima	13.7
166211	7	Sololá	713	San Lucas Tolimán	10	San Lucas Tolimán	12	Diciembre	2023-12-21T00:00:00	2024-11-08T02:00:00	3	Temperatura mínima	13.1
166212	7	Sololá	713	San Lucas Tolimán	10	San Lucas Tolimán	12	Diciembre	2023-12-21T00:00:00	2024-11-08T02:00:00	5	Humedad	50
166213	7	Sololá	713	San Lucas Tolimán	10	San Lucas Tolimán	12	Diciembre	2023-12-21T00:00:00	2024-11-08T02:00:00	6	Velocidad del viento	9.7
166214	7	Sololá	713	San Lucas Tolimán	10	San Lucas Tolimán	12	Diciembre	2023-12-21T00:00:00	2024-11-08T02:00:00	7	Dirección del viento	9.66
166215	7	Sololá	713	San Lucas Tolimán	10	San Lucas Tolimán	12	Diciembre	2023-12-21T00:00:00	2024-11-08T02:00:00	1	Precipitación	0
166216	7	Sololá	713	San Lucas Tolimán	10	San Lucas Tolimán	12	Diciembre	2023-12-21T00:00:00	2024-11-08T02:00:00	8	Radiación solar	0
166217	7	Sololá	713	San Lucas Tolimán	10	San Lucas Tolimán	12	Diciembre	2023-12-21T00:00:00	2024-11-08T03:00:00	2	Temperatura media	12.7
166218	7	Sololá	713	San Lucas Tolimán	10	San Lucas Tolimán	12	Diciembre	2023-12-21T00:00:00	2024-11-08T03:00:00	4	Temperatura máxima	13.1
166219	7	Sololá	713	San Lucas Tolimán	10	San Lucas Tolimán	12	Diciembre	2023-12-21T00:00:00	2024-11-08T03:00:00	3	Temperatura mínima	12.6
166220	7	Sololá	713	San Lucas Tolimán	10	San Lucas Tolimán	12	Diciembre	2023-12-21T00:00:00	2024-11-08T03:00:00	5	Humedad	49
166221	7	Sololá	713	San Lucas Tolimán	10	San Lucas Tolimán	12	Diciembre	2023-12-21T00:00:00	2024-11-08T03:00:00	6	Velocidad del viento	8
166222	7	Sololá	713	San Lucas Tolimán	10	San Lucas Tolimán	12	Diciembre	2023-12-21T00:00:00	2024-11-08T03:00:00	7	Dirección del viento	8.05
166223	7	Sololá	713	San Lucas Tolimán	10	San Lucas Tolimán	12	Diciembre	2023-12-21T00:00:00	2024-11-08T03:00:00	1	Precipitación	0
166224	7	Sololá	713	San Lucas Tolimán	10	San Lucas Tolimán	12	Diciembre	2023-12-21T00:00:00	2024-11-08T03:00:00	8	Radiación solar	0
166225	7	Sololá	713	San Lucas Tolimán	10	San Lucas Tolimán	12	Diciembre	2023-12-21T00:00:00	2024-11-08T04:00:00	2	Temperatura media	13.2
166226	7	Sololá	713	San Lucas Tolimán	10	San Lucas Tolimán	12	Diciembre	2023-12-21T00:00:00	2024-11-08T04:00:00	4	Temperatura máxima	13.4
166227	7	Sololá	713	San Lucas Tolimán	10	San Lucas Tolimán	12	Diciembre	2023-12-21T00:00:00	2024-11-08T04:00:00	3	Temperatura mínima	12.7
166228	7	Sololá	713	San Lucas Tolimán	10	San Lucas Tolimán	12	Diciembre	2023-12-21T00:00:00	2024-11-08T04:00:00	5	Humedad	48
166229	7	Sololá	713	San Lucas Tolimán	10	San Lucas Tolimán	12	Diciembre	2023-12-21T00:00:00	2024-11-08T04:00:00	6	Velocidad del viento	6.4
166230	7	Sololá	713	San Lucas Tolimán	10	San Lucas Tolimán	12	Diciembre	2023-12-21T00:00:00	2024-11-08T04:00:00	7	Dirección del viento	6.44
166231	7	Sololá	713	San Lucas Tolimán	10	San Lucas Tolimán	12	Diciembre	2023-12-21T00:00:00	2024-11-08T04:00:00	1	Precipitación	0
166232	7	Sololá	713	San Lucas Tolimán	10	San Lucas Tolimán	12	Diciembre	2023-12-21T00:00:00	2024-11-08T04:00:00	8	Radiación solar	0
166233	7	Sololá	713	San Lucas Tolimán	10	San Lucas Tolimán	12	Diciembre	2023-12-21T00:00:00	2024-11-08T05:00:00	2	Temperatura media	12.9
166234	7	Sololá	713	San Lucas Tolimán	10	San Lucas Tolimán	12	Diciembre	2023-12-21T00:00:00	2024-11-08T05:00:00	4	Temperatura máxima	13.3
166235	7	Sololá	713	San Lucas Tolimán	10	San Lucas Tolimán	12	Diciembre	2023-12-21T00:00:00	2024-11-08T05:00:00	3	Temperatura mínima	12.8
166236	7	Sololá	713	San Lucas Tolimán	10	San Lucas Tolimán	12	Diciembre	2023-12-21T00:00:00	2024-11-08T05:00:00	5	Humedad	49
166237	7	Sololá	713	San Lucas Tolimán	10	San Lucas Tolimán	12	Diciembre	2023-12-21T00:00:00	2024-11-08T05:00:00	6	Velocidad del viento	6.4
166238	7	Sololá	713	San Lucas Tolimán	10	San Lucas Tolimán	12	Diciembre	2023-12-21T00:00:00	2024-11-08T05:00:00	7	Dirección del viento	6.44
166239	7	Sololá	713	San Lucas Tolimán	10	San Lucas Tolimán	12	Diciembre	2023-12-21T00:00:00	2024-11-08T05:00:00	1	Precipitación	0
166240	7	Sololá	713	San Lucas Tolimán	10	San Lucas Tolimán	12	Diciembre	2023-12-21T00:00:00	2024-11-08T05:00:00	8	Radiación solar	0
166241	7	Sololá	713	San Lucas Tolimán	10	San Lucas Tolimán	12	Diciembre	2023-12-21T00:00:00	2024-11-08T06:00:00	2	Temperatura media	12.9
166242	7	Sololá	713	San Lucas Tolimán	10	San Lucas Tolimán	12	Diciembre	2023-12-21T00:00:00	2024-11-08T06:00:00	4	Temperatura máxima	13.2
166243	7	Sololá	713	San Lucas Tolimán	10	San Lucas Tolimán	12	Diciembre	2023-12-21T00:00:00	2024-11-08T06:00:00	3	Temperatura mínima	12.8
166244	7	Sololá	713	San Lucas Tolimán	10	San Lucas Tolimán	12	Diciembre	2023-12-21T00:00:00	2024-11-08T06:00:00	5	Humedad	46
166245	7	Sololá	713	San Lucas Tolimán	10	San Lucas Tolimán	12	Diciembre	2023-12-21T00:00:00	2024-11-08T06:00:00	6	Velocidad del viento	4.8
166246	7	Sololá	713	San Lucas Tolimán	10	San Lucas Tolimán	12	Diciembre	2023-12-21T00:00:00	2024-11-08T06:00:00	7	Dirección del viento	4.83
166247	7	Sololá	713	San Lucas Tolimán	10	San Lucas Tolimán	12	Diciembre	2023-12-21T00:00:00	2024-11-08T06:00:00	1	Precipitación	0
166248	7	Sololá	713	San Lucas Tolimán	10	San Lucas Tolimán	12	Diciembre	2023-12-21T00:00:00	2024-11-08T06:00:00	8	Radiación solar	0
166249	7	Sololá	713	San Lucas Tolimán	10	San Lucas Tolimán	12	Diciembre	2023-12-21T00:00:00	2024-11-08T07:00:00	2	Temperatura media	12.9
166250	7	Sololá	713	San Lucas Tolimán	10	San Lucas Tolimán	12	Diciembre	2023-12-21T00:00:00	2024-11-08T07:00:00	4	Temperatura máxima	13
166251	7	Sololá	713	San Lucas Tolimán	10	San Lucas Tolimán	12	Diciembre	2023-12-21T00:00:00	2024-11-08T07:00:00	3	Temperatura mínima	12.8
166252	7	Sololá	713	San Lucas Tolimán	10	San Lucas Tolimán	12	Diciembre	2023-12-21T00:00:00	2024-11-08T07:00:00	5	Humedad	47
166253	7	Sololá	713	San Lucas Tolimán	10	San Lucas Tolimán	12	Diciembre	2023-12-21T00:00:00	2024-11-08T07:00:00	6	Velocidad del viento	3.2
166254	7	Sololá	713	San Lucas Tolimán	10	San Lucas Tolimán	12	Diciembre	2023-12-21T00:00:00	2024-11-08T07:00:00	7	Dirección del viento	3.22
166255	7	Sololá	713	San Lucas Tolimán	10	San Lucas Tolimán	12	Diciembre	2023-12-21T00:00:00	2024-11-08T07:00:00	1	Precipitación	0
166256	7	Sololá	713	San Lucas Tolimán	10	San Lucas Tolimán	12	Diciembre	2023-12-21T00:00:00	2024-11-08T07:00:00	8	Radiación solar	5
166257	7	Sololá	713	San Lucas Tolimán	10	San Lucas Tolimán	12	Diciembre	2023-12-21T00:00:00	2024-11-08T08:00:00	2	Temperatura media	14
166258	7	Sololá	713	San Lucas Tolimán	10	San Lucas Tolimán	12	Diciembre	2023-12-21T00:00:00	2024-11-08T08:00:00	4	Temperatura máxima	14
166259	7	Sololá	713	San Lucas Tolimán	10	San Lucas Tolimán	12	Diciembre	2023-12-21T00:00:00	2024-11-08T08:00:00	3	Temperatura mínima	12.9
166260	7	Sololá	713	San Lucas Tolimán	10	San Lucas Tolimán	12	Diciembre	2023-12-21T00:00:00	2024-11-08T08:00:00	5	Humedad	41
166261	7	Sololá	713	San Lucas Tolimán	10	San Lucas Tolimán	12	Diciembre	2023-12-21T00:00:00	2024-11-08T08:00:00	6	Velocidad del viento	3.2
166262	7	Sololá	713	San Lucas Tolimán	10	San Lucas Tolimán	12	Diciembre	2023-12-21T00:00:00	2024-11-08T08:00:00	7	Dirección del viento	3.22
166263	7	Sololá	713	San Lucas Tolimán	10	San Lucas Tolimán	12	Diciembre	2023-12-21T00:00:00	2024-11-08T08:00:00	1	Precipitación	0
166264	7	Sololá	713	San Lucas Tolimán	10	San Lucas Tolimán	12	Diciembre	2023-12-21T00:00:00	2024-11-08T08:00:00	8	Radiación solar	18
166265	7	Sololá	713	San Lucas Tolimán	10	San Lucas Tolimán	12	Diciembre	2023-12-21T00:00:00	2024-11-08T09:00:00	2	Temperatura media	17.2
166266	7	Sololá	713	San Lucas Tolimán	10	San Lucas Tolimán	12	Diciembre	2023-12-21T00:00:00	2024-11-08T09:00:00	4	Temperatura máxima	17.3
166267	7	Sololá	713	San Lucas Tolimán	10	San Lucas Tolimán	12	Diciembre	2023-12-21T00:00:00	2024-11-08T09:00:00	3	Temperatura mínima	14
166268	7	Sololá	713	San Lucas Tolimán	10	San Lucas Tolimán	12	Diciembre	2023-12-21T00:00:00	2024-11-08T09:00:00	5	Humedad	37
166269	7	Sololá	713	San Lucas Tolimán	10	San Lucas Tolimán	12	Diciembre	2023-12-21T00:00:00	2024-11-08T09:00:00	6	Velocidad del viento	4.8
166270	7	Sololá	713	San Lucas Tolimán	10	San Lucas Tolimán	12	Diciembre	2023-12-21T00:00:00	2024-11-08T09:00:00	7	Dirección del viento	4.83
166271	7	Sololá	713	San Lucas Tolimán	10	San Lucas Tolimán	12	Diciembre	2023-12-21T00:00:00	2024-11-08T09:00:00	1	Precipitación	0
166272	7	Sololá	713	San Lucas Tolimán	10	San Lucas Tolimán	12	Diciembre	2023-12-21T00:00:00	2024-11-08T09:00:00	8	Radiación solar	318
166273	7	Sololá	713	San Lucas Tolimán	10	San Lucas Tolimán	12	Diciembre	2023-12-21T00:00:00	2024-11-08T10:00:00	2	Temperatura media	20
166274	7	Sololá	713	San Lucas Tolimán	10	San Lucas Tolimán	12	Diciembre	2023-12-21T00:00:00	2024-11-08T10:00:00	4	Temperatura máxima	20.1
166275	7	Sololá	713	San Lucas Tolimán	10	San Lucas Tolimán	12	Diciembre	2023-12-21T00:00:00	2024-11-08T10:00:00	3	Temperatura mínima	17.2
166276	7	Sololá	713	San Lucas Tolimán	10	San Lucas Tolimán	12	Diciembre	2023-12-21T00:00:00	2024-11-08T10:00:00	5	Humedad	32
166277	7	Sololá	713	San Lucas Tolimán	10	San Lucas Tolimán	12	Diciembre	2023-12-21T00:00:00	2024-11-08T10:00:00	6	Velocidad del viento	4.8
166278	7	Sololá	713	San Lucas Tolimán	10	San Lucas Tolimán	12	Diciembre	2023-12-21T00:00:00	2024-11-08T10:00:00	7	Dirección del viento	4.83
166279	7	Sololá	713	San Lucas Tolimán	10	San Lucas Tolimán	12	Diciembre	2023-12-21T00:00:00	2024-11-08T10:00:00	1	Precipitación	0
166280	7	Sololá	713	San Lucas Tolimán	10	San Lucas Tolimán	12	Diciembre	2023-12-21T00:00:00	2024-11-08T10:00:00	8	Radiación solar	627
166281	7	Sololá	713	San Lucas Tolimán	10	San Lucas Tolimán	12	Diciembre	2023-12-21T00:00:00	2024-11-08T11:00:00	2	Temperatura media	21.4
166282	7	Sololá	713	San Lucas Tolimán	10	San Lucas Tolimán	12	Diciembre	2023-12-21T00:00:00	2024-11-08T11:00:00	4	Temperatura máxima	21.4
166283	7	Sololá	713	San Lucas Tolimán	10	San Lucas Tolimán	12	Diciembre	2023-12-21T00:00:00	2024-11-08T11:00:00	3	Temperatura mínima	20
166284	7	Sololá	713	San Lucas Tolimán	10	San Lucas Tolimán	12	Diciembre	2023-12-21T00:00:00	2024-11-08T11:00:00	5	Humedad	31
166285	7	Sololá	713	San Lucas Tolimán	10	San Lucas Tolimán	12	Diciembre	2023-12-21T00:00:00	2024-11-08T11:00:00	6	Velocidad del viento	12.9
166286	7	Sololá	713	San Lucas Tolimán	10	San Lucas Tolimán	12	Diciembre	2023-12-21T00:00:00	2024-11-08T11:00:00	7	Dirección del viento	12.87
166287	7	Sololá	713	San Lucas Tolimán	10	San Lucas Tolimán	12	Diciembre	2023-12-21T00:00:00	2024-11-08T11:00:00	1	Precipitación	0
166288	7	Sololá	713	San Lucas Tolimán	10	San Lucas Tolimán	12	Diciembre	2023-12-21T00:00:00	2024-11-08T11:00:00	8	Radiación solar	783
166289	7	Sololá	713	San Lucas Tolimán	10	San Lucas Tolimán	12	Diciembre	2023-12-21T00:00:00	2024-11-08T12:00:00	2	Temperatura media	22.7
166290	7	Sololá	713	San Lucas Tolimán	10	San Lucas Tolimán	12	Diciembre	2023-12-21T00:00:00	2024-11-08T12:00:00	4	Temperatura máxima	22.7
166291	7	Sololá	713	San Lucas Tolimán	10	San Lucas Tolimán	12	Diciembre	2023-12-21T00:00:00	2024-11-08T12:00:00	3	Temperatura mínima	21.4
166292	7	Sololá	713	San Lucas Tolimán	10	San Lucas Tolimán	12	Diciembre	2023-12-21T00:00:00	2024-11-08T12:00:00	5	Humedad	35
166293	7	Sololá	713	San Lucas Tolimán	10	San Lucas Tolimán	12	Diciembre	2023-12-21T00:00:00	2024-11-08T12:00:00	6	Velocidad del viento	12.9
166294	7	Sololá	713	San Lucas Tolimán	10	San Lucas Tolimán	12	Diciembre	2023-12-21T00:00:00	2024-11-08T12:00:00	7	Dirección del viento	12.87
166295	7	Sololá	713	San Lucas Tolimán	10	San Lucas Tolimán	12	Diciembre	2023-12-21T00:00:00	2024-11-08T12:00:00	1	Precipitación	0
166296	7	Sololá	713	San Lucas Tolimán	10	San Lucas Tolimán	12	Diciembre	2023-12-21T00:00:00	2024-11-08T12:00:00	8	Radiación solar	862
166297	7	Sololá	713	San Lucas Tolimán	10	San Lucas Tolimán	12	Diciembre	2023-12-21T00:00:00	2024-11-08T13:00:00	2	Temperatura media	23.1
166298	7	Sololá	713	San Lucas Tolimán	10	San Lucas Tolimán	12	Diciembre	2023-12-21T00:00:00	2024-11-08T13:00:00	4	Temperatura máxima	23.3
166299	7	Sololá	713	San Lucas Tolimán	10	San Lucas Tolimán	12	Diciembre	2023-12-21T00:00:00	2024-11-08T13:00:00	3	Temperatura mínima	22.7
166300	7	Sololá	713	San Lucas Tolimán	10	San Lucas Tolimán	12	Diciembre	2023-12-21T00:00:00	2024-11-08T13:00:00	5	Humedad	36
166301	7	Sololá	713	San Lucas Tolimán	10	San Lucas Tolimán	12	Diciembre	2023-12-21T00:00:00	2024-11-08T13:00:00	6	Velocidad del viento	8
166302	7	Sololá	713	San Lucas Tolimán	10	San Lucas Tolimán	12	Diciembre	2023-12-21T00:00:00	2024-11-08T13:00:00	7	Dirección del viento	8.05
166303	7	Sololá	713	San Lucas Tolimán	10	San Lucas Tolimán	12	Diciembre	2023-12-21T00:00:00	2024-11-08T13:00:00	1	Precipitación	0
166304	7	Sololá	713	San Lucas Tolimán	10	San Lucas Tolimán	12	Diciembre	2023-12-21T00:00:00	2024-11-08T13:00:00	8	Radiación solar	865
166305	7	Sololá	713	San Lucas Tolimán	10	San Lucas Tolimán	12	Diciembre	2023-12-21T00:00:00	2024-11-08T14:00:00	2	Temperatura media	22.2
166306	7	Sololá	713	San Lucas Tolimán	10	San Lucas Tolimán	12	Diciembre	2023-12-21T00:00:00	2024-11-08T14:00:00	4	Temperatura máxima	23.1
166307	7	Sololá	713	San Lucas Tolimán	10	San Lucas Tolimán	12	Diciembre	2023-12-21T00:00:00	2024-11-08T14:00:00	3	Temperatura mínima	22.1
166308	7	Sololá	713	San Lucas Tolimán	10	San Lucas Tolimán	12	Diciembre	2023-12-21T00:00:00	2024-11-08T14:00:00	5	Humedad	40
166309	7	Sololá	713	San Lucas Tolimán	10	San Lucas Tolimán	12	Diciembre	2023-12-21T00:00:00	2024-11-08T14:00:00	6	Velocidad del viento	11.3
166310	7	Sololá	713	San Lucas Tolimán	10	San Lucas Tolimán	12	Diciembre	2023-12-21T00:00:00	2024-11-08T14:00:00	7	Dirección del viento	11.27
166311	7	Sololá	713	San Lucas Tolimán	10	San Lucas Tolimán	12	Diciembre	2023-12-21T00:00:00	2024-11-08T14:00:00	1	Precipitación	0
166312	7	Sololá	713	San Lucas Tolimán	10	San Lucas Tolimán	12	Diciembre	2023-12-21T00:00:00	2024-11-08T14:00:00	8	Radiación solar	792
166313	7	Sololá	713	San Lucas Tolimán	10	San Lucas Tolimán	12	Diciembre	2023-12-21T00:00:00	2024-11-08T15:00:00	2	Temperatura media	21.9
166314	7	Sololá	713	San Lucas Tolimán	10	San Lucas Tolimán	12	Diciembre	2023-12-21T00:00:00	2024-11-08T15:00:00	4	Temperatura máxima	22.4
166315	7	Sololá	713	San Lucas Tolimán	10	San Lucas Tolimán	12	Diciembre	2023-12-21T00:00:00	2024-11-08T15:00:00	3	Temperatura mínima	21.7
166316	7	Sololá	713	San Lucas Tolimán	10	San Lucas Tolimán	12	Diciembre	2023-12-21T00:00:00	2024-11-08T15:00:00	5	Humedad	46
166317	7	Sololá	713	San Lucas Tolimán	10	San Lucas Tolimán	12	Diciembre	2023-12-21T00:00:00	2024-11-08T15:00:00	6	Velocidad del viento	11.3
166318	7	Sololá	713	San Lucas Tolimán	10	San Lucas Tolimán	12	Diciembre	2023-12-21T00:00:00	2024-11-08T15:00:00	7	Dirección del viento	11.27
166319	7	Sololá	713	San Lucas Tolimán	10	San Lucas Tolimán	12	Diciembre	2023-12-21T00:00:00	2024-11-08T15:00:00	1	Precipitación	0
166320	7	Sololá	713	San Lucas Tolimán	10	San Lucas Tolimán	12	Diciembre	2023-12-21T00:00:00	2024-11-08T15:00:00	8	Radiación solar	651
166321	7	Sololá	713	San Lucas Tolimán	10	San Lucas Tolimán	12	Diciembre	2023-12-21T00:00:00	2024-11-08T16:00:00	2	Temperatura media	21.2
166322	7	Sololá	713	San Lucas Tolimán	10	San Lucas Tolimán	12	Diciembre	2023-12-21T00:00:00	2024-11-08T16:00:00	4	Temperatura máxima	21.9
166323	7	Sololá	713	San Lucas Tolimán	10	San Lucas Tolimán	12	Diciembre	2023-12-21T00:00:00	2024-11-08T16:00:00	3	Temperatura mínima	21
166324	7	Sololá	713	San Lucas Tolimán	10	San Lucas Tolimán	12	Diciembre	2023-12-21T00:00:00	2024-11-08T16:00:00	5	Humedad	50
166325	7	Sololá	713	San Lucas Tolimán	10	San Lucas Tolimán	12	Diciembre	2023-12-21T00:00:00	2024-11-08T16:00:00	6	Velocidad del viento	9.7
166326	7	Sololá	713	San Lucas Tolimán	10	San Lucas Tolimán	12	Diciembre	2023-12-21T00:00:00	2024-11-08T16:00:00	7	Dirección del viento	9.66
166327	7	Sololá	713	San Lucas Tolimán	10	San Lucas Tolimán	12	Diciembre	2023-12-21T00:00:00	2024-11-08T16:00:00	1	Precipitación	0
166328	7	Sololá	713	San Lucas Tolimán	10	San Lucas Tolimán	12	Diciembre	2023-12-21T00:00:00	2024-11-08T16:00:00	8	Radiación solar	450
166329	7	Sololá	713	San Lucas Tolimán	10	San Lucas Tolimán	12	Diciembre	2023-12-21T00:00:00	2024-11-08T17:00:00	2	Temperatura media	19.3
166330	7	Sololá	713	San Lucas Tolimán	10	San Lucas Tolimán	12	Diciembre	2023-12-21T00:00:00	2024-11-08T17:00:00	4	Temperatura máxima	21.3
166331	7	Sololá	713	San Lucas Tolimán	10	San Lucas Tolimán	12	Diciembre	2023-12-21T00:00:00	2024-11-08T17:00:00	3	Temperatura mínima	19.3
166332	7	Sololá	713	San Lucas Tolimán	10	San Lucas Tolimán	12	Diciembre	2023-12-21T00:00:00	2024-11-08T17:00:00	5	Humedad	41
166333	7	Sololá	713	San Lucas Tolimán	10	San Lucas Tolimán	12	Diciembre	2023-12-21T00:00:00	2024-11-08T17:00:00	6	Velocidad del viento	6.4
166334	7	Sololá	713	San Lucas Tolimán	10	San Lucas Tolimán	12	Diciembre	2023-12-21T00:00:00	2024-11-08T17:00:00	7	Dirección del viento	6.44
166335	7	Sololá	713	San Lucas Tolimán	10	San Lucas Tolimán	12	Diciembre	2023-12-21T00:00:00	2024-11-08T17:00:00	1	Precipitación	0
166336	7	Sololá	713	San Lucas Tolimán	10	San Lucas Tolimán	12	Diciembre	2023-12-21T00:00:00	2024-11-08T17:00:00	8	Radiación solar	162
166337	7	Sololá	713	San Lucas Tolimán	10	San Lucas Tolimán	12	Diciembre	2023-12-21T00:00:00	2024-11-08T18:00:00	2	Temperatura media	17.7
166338	7	Sololá	713	San Lucas Tolimán	10	San Lucas Tolimán	12	Diciembre	2023-12-21T00:00:00	2024-11-08T18:00:00	4	Temperatura máxima	19.3
166339	7	Sololá	713	San Lucas Tolimán	10	San Lucas Tolimán	12	Diciembre	2023-12-21T00:00:00	2024-11-08T18:00:00	3	Temperatura mínima	17.7
166340	7	Sololá	713	San Lucas Tolimán	10	San Lucas Tolimán	12	Diciembre	2023-12-21T00:00:00	2024-11-08T18:00:00	5	Humedad	43
166341	7	Sololá	713	San Lucas Tolimán	10	San Lucas Tolimán	12	Diciembre	2023-12-21T00:00:00	2024-11-08T18:00:00	6	Velocidad del viento	17.7
166342	7	Sololá	713	San Lucas Tolimán	10	San Lucas Tolimán	12	Diciembre	2023-12-21T00:00:00	2024-11-08T18:00:00	7	Dirección del viento	17.7
166343	7	Sololá	713	San Lucas Tolimán	10	San Lucas Tolimán	12	Diciembre	2023-12-21T00:00:00	2024-11-08T18:00:00	1	Precipitación	0
166344	7	Sololá	713	San Lucas Tolimán	10	San Lucas Tolimán	12	Diciembre	2023-12-21T00:00:00	2024-11-08T18:00:00	8	Radiación solar	12
166345	7	Sololá	713	San Lucas Tolimán	10	San Lucas Tolimán	12	Diciembre	2023-12-21T00:00:00	2024-11-08T19:00:00	2	Temperatura media	17.2
166346	7	Sololá	713	San Lucas Tolimán	10	San Lucas Tolimán	12	Diciembre	2023-12-21T00:00:00	2024-11-08T19:00:00	4	Temperatura máxima	17.7
166347	7	Sololá	713	San Lucas Tolimán	10	San Lucas Tolimán	12	Diciembre	2023-12-21T00:00:00	2024-11-08T19:00:00	3	Temperatura mínima	17.1
166348	7	Sololá	713	San Lucas Tolimán	10	San Lucas Tolimán	12	Diciembre	2023-12-21T00:00:00	2024-11-08T19:00:00	5	Humedad	46
166349	7	Sololá	713	San Lucas Tolimán	10	San Lucas Tolimán	12	Diciembre	2023-12-21T00:00:00	2024-11-08T19:00:00	6	Velocidad del viento	11.3
166350	7	Sololá	713	San Lucas Tolimán	10	San Lucas Tolimán	12	Diciembre	2023-12-21T00:00:00	2024-11-08T19:00:00	7	Dirección del viento	11.27
166351	7	Sololá	713	San Lucas Tolimán	10	San Lucas Tolimán	12	Diciembre	2023-12-21T00:00:00	2024-11-08T19:00:00	1	Precipitación	0
166352	7	Sololá	713	San Lucas Tolimán	10	San Lucas Tolimán	12	Diciembre	2023-12-21T00:00:00	2024-11-08T19:00:00	8	Radiación solar	0
166353	7	Sololá	713	San Lucas Tolimán	10	San Lucas Tolimán	12	Diciembre	2023-12-21T00:00:00	2024-11-08T20:00:00	2	Temperatura media	17.1
166354	7	Sololá	713	San Lucas Tolimán	10	San Lucas Tolimán	12	Diciembre	2023-12-21T00:00:00	2024-11-08T20:00:00	4	Temperatura máxima	17.2
166355	7	Sololá	713	San Lucas Tolimán	10	San Lucas Tolimán	12	Diciembre	2023-12-21T00:00:00	2024-11-08T20:00:00	3	Temperatura mínima	17
166356	7	Sololá	713	San Lucas Tolimán	10	San Lucas Tolimán	12	Diciembre	2023-12-21T00:00:00	2024-11-08T20:00:00	5	Humedad	44
166357	7	Sololá	713	San Lucas Tolimán	10	San Lucas Tolimán	12	Diciembre	2023-12-21T00:00:00	2024-11-08T20:00:00	6	Velocidad del viento	11.3
166358	7	Sololá	713	San Lucas Tolimán	10	San Lucas Tolimán	12	Diciembre	2023-12-21T00:00:00	2024-11-08T20:00:00	7	Dirección del viento	11.27
166359	7	Sololá	713	San Lucas Tolimán	10	San Lucas Tolimán	12	Diciembre	2023-12-21T00:00:00	2024-11-08T20:00:00	1	Precipitación	0
166360	7	Sololá	713	San Lucas Tolimán	10	San Lucas Tolimán	12	Diciembre	2023-12-21T00:00:00	2024-11-08T20:00:00	8	Radiación solar	0
166361	7	Sololá	713	San Lucas Tolimán	10	San Lucas Tolimán	12	Diciembre	2023-12-21T00:00:00	2024-11-08T21:00:00	2	Temperatura media	17.1
166362	7	Sololá	713	San Lucas Tolimán	10	San Lucas Tolimán	12	Diciembre	2023-12-21T00:00:00	2024-11-08T21:00:00	4	Temperatura máxima	17.2
166363	7	Sololá	713	San Lucas Tolimán	10	San Lucas Tolimán	12	Diciembre	2023-12-21T00:00:00	2024-11-08T21:00:00	3	Temperatura mínima	16.8
166364	7	Sololá	713	San Lucas Tolimán	10	San Lucas Tolimán	12	Diciembre	2023-12-21T00:00:00	2024-11-08T21:00:00	5	Humedad	43
166365	7	Sololá	713	San Lucas Tolimán	10	San Lucas Tolimán	12	Diciembre	2023-12-21T00:00:00	2024-11-08T21:00:00	6	Velocidad del viento	14.5
166366	7	Sololá	713	San Lucas Tolimán	10	San Lucas Tolimán	12	Diciembre	2023-12-21T00:00:00	2024-11-08T21:00:00	7	Dirección del viento	14.48
166367	7	Sololá	713	San Lucas Tolimán	10	San Lucas Tolimán	12	Diciembre	2023-12-21T00:00:00	2024-11-08T21:00:00	1	Precipitación	0
166368	7	Sololá	713	San Lucas Tolimán	10	San Lucas Tolimán	12	Diciembre	2023-12-21T00:00:00	2024-11-08T21:00:00	8	Radiación solar	0
166369	7	Sololá	713	San Lucas Tolimán	10	San Lucas Tolimán	12	Diciembre	2023-12-21T00:00:00	2024-11-08T22:00:00	2	Temperatura media	17.2
166370	7	Sololá	713	San Lucas Tolimán	10	San Lucas Tolimán	12	Diciembre	2023-12-21T00:00:00	2024-11-08T22:00:00	4	Temperatura máxima	17.3
166371	7	Sololá	713	San Lucas Tolimán	10	San Lucas Tolimán	12	Diciembre	2023-12-21T00:00:00	2024-11-08T22:00:00	3	Temperatura mínima	16.9
166372	7	Sololá	713	San Lucas Tolimán	10	San Lucas Tolimán	12	Diciembre	2023-12-21T00:00:00	2024-11-08T22:00:00	5	Humedad	44
166373	7	Sololá	713	San Lucas Tolimán	10	San Lucas Tolimán	12	Diciembre	2023-12-21T00:00:00	2024-11-08T22:00:00	6	Velocidad del viento	14.5
166374	7	Sololá	713	San Lucas Tolimán	10	San Lucas Tolimán	12	Diciembre	2023-12-21T00:00:00	2024-11-08T22:00:00	7	Dirección del viento	14.48
166375	7	Sololá	713	San Lucas Tolimán	10	San Lucas Tolimán	12	Diciembre	2023-12-21T00:00:00	2024-11-08T22:00:00	1	Precipitación	0
166376	7	Sololá	713	San Lucas Tolimán	10	San Lucas Tolimán	12	Diciembre	2023-12-21T00:00:00	2024-11-08T22:00:00	8	Radiación solar	0
166377	7	Sololá	713	San Lucas Tolimán	10	San Lucas Tolimán	12	Diciembre	2023-12-21T00:00:00	2024-11-08T23:00:00	2	Temperatura media	16.8
166378	7	Sololá	713	San Lucas Tolimán	10	San Lucas Tolimán	12	Diciembre	2023-12-21T00:00:00	2024-11-08T23:00:00	4	Temperatura máxima	17.2
166379	7	Sololá	713	San Lucas Tolimán	10	San Lucas Tolimán	12	Diciembre	2023-12-21T00:00:00	2024-11-08T23:00:00	3	Temperatura mínima	16.8
166380	7	Sololá	713	San Lucas Tolimán	10	San Lucas Tolimán	12	Diciembre	2023-12-21T00:00:00	2024-11-08T23:00:00	5	Humedad	47
166381	7	Sololá	713	San Lucas Tolimán	10	San Lucas Tolimán	12	Diciembre	2023-12-21T00:00:00	2024-11-08T23:00:00	6	Velocidad del viento	16.1
166382	7	Sololá	713	San Lucas Tolimán	10	San Lucas Tolimán	12	Diciembre	2023-12-21T00:00:00	2024-11-08T23:00:00	7	Dirección del viento	16.09
166383	7	Sololá	713	San Lucas Tolimán	10	San Lucas Tolimán	12	Diciembre	2023-12-21T00:00:00	2024-11-08T23:00:00	1	Precipitación	0
166384	7	Sololá	713	San Lucas Tolimán	10	San Lucas Tolimán	12	Diciembre	2023-12-21T00:00:00	2024-11-08T23:00:00	8	Radiación solar	0
166385	7	Sololá	713	San Lucas Tolimán	10	San Lucas Tolimán	12	Diciembre	2023-12-22T00:00:00	2024-11-08T00:00:00	2	Temperatura media	16.8
166386	7	Sololá	713	San Lucas Tolimán	10	San Lucas Tolimán	12	Diciembre	2023-12-22T00:00:00	2024-11-08T00:00:00	4	Temperatura máxima	17
166387	7	Sololá	713	San Lucas Tolimán	10	San Lucas Tolimán	12	Diciembre	2023-12-22T00:00:00	2024-11-08T00:00:00	3	Temperatura mínima	16.6
166388	7	Sololá	713	San Lucas Tolimán	10	San Lucas Tolimán	12	Diciembre	2023-12-22T00:00:00	2024-11-08T00:00:00	5	Humedad	47
166389	7	Sololá	713	San Lucas Tolimán	10	San Lucas Tolimán	12	Diciembre	2023-12-22T00:00:00	2024-11-08T00:00:00	6	Velocidad del viento	22.5
166390	7	Sololá	713	San Lucas Tolimán	10	San Lucas Tolimán	12	Diciembre	2023-12-22T00:00:00	2024-11-08T00:00:00	7	Dirección del viento	22.53
166391	7	Sololá	713	San Lucas Tolimán	10	San Lucas Tolimán	12	Diciembre	2023-12-22T00:00:00	2024-11-08T00:00:00	1	Precipitación	0
166392	7	Sololá	713	San Lucas Tolimán	10	San Lucas Tolimán	12	Diciembre	2023-12-22T00:00:00	2024-11-08T00:00:00	8	Radiación solar	0
166393	7	Sololá	713	San Lucas Tolimán	10	San Lucas Tolimán	12	Diciembre	2023-12-22T00:00:00	2024-11-08T01:00:00	2	Temperatura media	16.4
166394	7	Sololá	713	San Lucas Tolimán	10	San Lucas Tolimán	12	Diciembre	2023-12-22T00:00:00	2024-11-08T01:00:00	4	Temperatura máxima	17.2
166395	7	Sololá	713	San Lucas Tolimán	10	San Lucas Tolimán	12	Diciembre	2023-12-22T00:00:00	2024-11-08T01:00:00	3	Temperatura mínima	16.4
166396	7	Sololá	713	San Lucas Tolimán	10	San Lucas Tolimán	12	Diciembre	2023-12-22T00:00:00	2024-11-08T01:00:00	5	Humedad	49
166397	7	Sololá	713	San Lucas Tolimán	10	San Lucas Tolimán	12	Diciembre	2023-12-22T00:00:00	2024-11-08T01:00:00	6	Velocidad del viento	25.7
166398	7	Sololá	713	San Lucas Tolimán	10	San Lucas Tolimán	12	Diciembre	2023-12-22T00:00:00	2024-11-08T01:00:00	7	Dirección del viento	25.75
166399	7	Sololá	713	San Lucas Tolimán	10	San Lucas Tolimán	12	Diciembre	2023-12-22T00:00:00	2024-11-08T01:00:00	1	Precipitación	0
166400	7	Sololá	713	San Lucas Tolimán	10	San Lucas Tolimán	12	Diciembre	2023-12-22T00:00:00	2024-11-08T01:00:00	8	Radiación solar	0
166401	7	Sololá	713	San Lucas Tolimán	10	San Lucas Tolimán	12	Diciembre	2023-12-22T00:00:00	2024-11-08T02:00:00	2	Temperatura media	16
166402	7	Sololá	713	San Lucas Tolimán	10	San Lucas Tolimán	12	Diciembre	2023-12-22T00:00:00	2024-11-08T02:00:00	4	Temperatura máxima	16.5
166403	7	Sololá	713	San Lucas Tolimán	10	San Lucas Tolimán	12	Diciembre	2023-12-22T00:00:00	2024-11-08T02:00:00	3	Temperatura mínima	15.9
166404	7	Sololá	713	San Lucas Tolimán	10	San Lucas Tolimán	12	Diciembre	2023-12-22T00:00:00	2024-11-08T02:00:00	5	Humedad	53
166405	7	Sololá	713	San Lucas Tolimán	10	San Lucas Tolimán	12	Diciembre	2023-12-22T00:00:00	2024-11-08T02:00:00	6	Velocidad del viento	14.5
166406	7	Sololá	713	San Lucas Tolimán	10	San Lucas Tolimán	12	Diciembre	2023-12-22T00:00:00	2024-11-08T02:00:00	7	Dirección del viento	14.48
166407	7	Sololá	713	San Lucas Tolimán	10	San Lucas Tolimán	12	Diciembre	2023-12-22T00:00:00	2024-11-08T02:00:00	1	Precipitación	0
166408	7	Sololá	713	San Lucas Tolimán	10	San Lucas Tolimán	12	Diciembre	2023-12-22T00:00:00	2024-11-08T02:00:00	8	Radiación solar	0
166409	7	Sololá	713	San Lucas Tolimán	10	San Lucas Tolimán	12	Diciembre	2023-12-22T00:00:00	2024-11-08T03:00:00	2	Temperatura media	15.9
166410	7	Sololá	713	San Lucas Tolimán	10	San Lucas Tolimán	12	Diciembre	2023-12-22T00:00:00	2024-11-08T03:00:00	4	Temperatura máxima	16.1
166411	7	Sololá	713	San Lucas Tolimán	10	San Lucas Tolimán	12	Diciembre	2023-12-22T00:00:00	2024-11-08T03:00:00	3	Temperatura mínima	15.7
166412	7	Sololá	713	San Lucas Tolimán	10	San Lucas Tolimán	12	Diciembre	2023-12-22T00:00:00	2024-11-08T03:00:00	5	Humedad	50
166413	7	Sololá	713	San Lucas Tolimán	10	San Lucas Tolimán	12	Diciembre	2023-12-22T00:00:00	2024-11-08T03:00:00	6	Velocidad del viento	16.1
166414	7	Sololá	713	San Lucas Tolimán	10	San Lucas Tolimán	12	Diciembre	2023-12-22T00:00:00	2024-11-08T03:00:00	7	Dirección del viento	16.09
166415	7	Sololá	713	San Lucas Tolimán	10	San Lucas Tolimán	12	Diciembre	2023-12-22T00:00:00	2024-11-08T03:00:00	1	Precipitación	0
166416	7	Sololá	713	San Lucas Tolimán	10	San Lucas Tolimán	12	Diciembre	2023-12-22T00:00:00	2024-11-08T03:00:00	8	Radiación solar	0
166417	7	Sololá	713	San Lucas Tolimán	10	San Lucas Tolimán	12	Diciembre	2023-12-22T00:00:00	2024-11-08T04:00:00	2	Temperatura media	15.2
166418	7	Sololá	713	San Lucas Tolimán	10	San Lucas Tolimán	12	Diciembre	2023-12-22T00:00:00	2024-11-08T04:00:00	4	Temperatura máxima	15.9
166419	7	Sololá	713	San Lucas Tolimán	10	San Lucas Tolimán	12	Diciembre	2023-12-22T00:00:00	2024-11-08T04:00:00	3	Temperatura mínima	14.9
166420	7	Sololá	713	San Lucas Tolimán	10	San Lucas Tolimán	12	Diciembre	2023-12-22T00:00:00	2024-11-08T04:00:00	5	Humedad	53
166421	7	Sololá	713	San Lucas Tolimán	10	San Lucas Tolimán	12	Diciembre	2023-12-22T00:00:00	2024-11-08T04:00:00	6	Velocidad del viento	9.7
166422	7	Sololá	713	San Lucas Tolimán	10	San Lucas Tolimán	12	Diciembre	2023-12-22T00:00:00	2024-11-08T04:00:00	7	Dirección del viento	9.66
166423	7	Sololá	713	San Lucas Tolimán	10	San Lucas Tolimán	12	Diciembre	2023-12-22T00:00:00	2024-11-08T04:00:00	1	Precipitación	0
166424	7	Sololá	713	San Lucas Tolimán	10	San Lucas Tolimán	12	Diciembre	2023-12-22T00:00:00	2024-11-08T04:00:00	8	Radiación solar	0
166425	7	Sololá	713	San Lucas Tolimán	10	San Lucas Tolimán	12	Diciembre	2023-12-22T00:00:00	2024-11-08T05:00:00	2	Temperatura media	14.8
166426	7	Sololá	713	San Lucas Tolimán	10	San Lucas Tolimán	12	Diciembre	2023-12-22T00:00:00	2024-11-08T05:00:00	4	Temperatura máxima	15.2
166427	7	Sololá	713	San Lucas Tolimán	10	San Lucas Tolimán	12	Diciembre	2023-12-22T00:00:00	2024-11-08T05:00:00	3	Temperatura mínima	14.7
166428	7	Sololá	713	San Lucas Tolimán	10	San Lucas Tolimán	12	Diciembre	2023-12-22T00:00:00	2024-11-08T05:00:00	5	Humedad	52
166429	7	Sololá	713	San Lucas Tolimán	10	San Lucas Tolimán	12	Diciembre	2023-12-22T00:00:00	2024-11-08T05:00:00	6	Velocidad del viento	6.4
166430	7	Sololá	713	San Lucas Tolimán	10	San Lucas Tolimán	12	Diciembre	2023-12-22T00:00:00	2024-11-08T05:00:00	7	Dirección del viento	6.44
166431	7	Sololá	713	San Lucas Tolimán	10	San Lucas Tolimán	12	Diciembre	2023-12-22T00:00:00	2024-11-08T05:00:00	1	Precipitación	0
166432	7	Sololá	713	San Lucas Tolimán	10	San Lucas Tolimán	12	Diciembre	2023-12-22T00:00:00	2024-11-08T05:00:00	8	Radiación solar	0
166433	7	Sololá	713	San Lucas Tolimán	10	San Lucas Tolimán	12	Diciembre	2023-12-22T00:00:00	2024-11-08T06:00:00	2	Temperatura media	14.6
166434	7	Sololá	713	San Lucas Tolimán	10	San Lucas Tolimán	12	Diciembre	2023-12-22T00:00:00	2024-11-08T06:00:00	4	Temperatura máxima	14.9
166435	7	Sololá	713	San Lucas Tolimán	10	San Lucas Tolimán	12	Diciembre	2023-12-22T00:00:00	2024-11-08T06:00:00	3	Temperatura mínima	14.4
166436	7	Sololá	713	San Lucas Tolimán	10	San Lucas Tolimán	12	Diciembre	2023-12-22T00:00:00	2024-11-08T06:00:00	5	Humedad	55
166437	7	Sololá	713	San Lucas Tolimán	10	San Lucas Tolimán	12	Diciembre	2023-12-22T00:00:00	2024-11-08T06:00:00	6	Velocidad del viento	4.8
166438	7	Sololá	713	San Lucas Tolimán	10	San Lucas Tolimán	12	Diciembre	2023-12-22T00:00:00	2024-11-08T06:00:00	7	Dirección del viento	4.83
166439	7	Sololá	713	San Lucas Tolimán	10	San Lucas Tolimán	12	Diciembre	2023-12-22T00:00:00	2024-11-08T06:00:00	1	Precipitación	0
166440	7	Sololá	713	San Lucas Tolimán	10	San Lucas Tolimán	12	Diciembre	2023-12-22T00:00:00	2024-11-08T06:00:00	8	Radiación solar	0
166441	7	Sololá	713	San Lucas Tolimán	10	San Lucas Tolimán	12	Diciembre	2023-12-22T00:00:00	2024-11-08T07:00:00	2	Temperatura media	15.2
166442	7	Sololá	713	San Lucas Tolimán	10	San Lucas Tolimán	12	Diciembre	2023-12-22T00:00:00	2024-11-08T07:00:00	4	Temperatura máxima	15.2
166443	7	Sololá	713	San Lucas Tolimán	10	San Lucas Tolimán	12	Diciembre	2023-12-22T00:00:00	2024-11-08T07:00:00	3	Temperatura mínima	14.2
166444	7	Sololá	713	San Lucas Tolimán	10	San Lucas Tolimán	12	Diciembre	2023-12-22T00:00:00	2024-11-08T07:00:00	5	Humedad	52
166445	7	Sololá	713	San Lucas Tolimán	10	San Lucas Tolimán	12	Diciembre	2023-12-22T00:00:00	2024-11-08T07:00:00	6	Velocidad del viento	3.2
166446	7	Sololá	713	San Lucas Tolimán	10	San Lucas Tolimán	12	Diciembre	2023-12-22T00:00:00	2024-11-08T07:00:00	7	Dirección del viento	3.22
166447	7	Sololá	713	San Lucas Tolimán	10	San Lucas Tolimán	12	Diciembre	2023-12-22T00:00:00	2024-11-08T07:00:00	1	Precipitación	0
166448	7	Sololá	713	San Lucas Tolimán	10	San Lucas Tolimán	12	Diciembre	2023-12-22T00:00:00	2024-11-08T07:00:00	8	Radiación solar	8
166449	7	Sololá	713	San Lucas Tolimán	10	San Lucas Tolimán	12	Diciembre	2023-12-22T00:00:00	2024-11-08T08:00:00	2	Temperatura media	17.3
166450	7	Sololá	713	San Lucas Tolimán	10	San Lucas Tolimán	12	Diciembre	2023-12-22T00:00:00	2024-11-08T08:00:00	4	Temperatura máxima	17.3
166451	7	Sololá	713	San Lucas Tolimán	10	San Lucas Tolimán	12	Diciembre	2023-12-22T00:00:00	2024-11-08T08:00:00	3	Temperatura mínima	15.2
166452	7	Sololá	713	San Lucas Tolimán	10	San Lucas Tolimán	12	Diciembre	2023-12-22T00:00:00	2024-11-08T08:00:00	5	Humedad	47
166453	7	Sololá	713	San Lucas Tolimán	10	San Lucas Tolimán	12	Diciembre	2023-12-22T00:00:00	2024-11-08T08:00:00	6	Velocidad del viento	6.4
166454	7	Sololá	713	San Lucas Tolimán	10	San Lucas Tolimán	12	Diciembre	2023-12-22T00:00:00	2024-11-08T08:00:00	7	Dirección del viento	6.44
166455	7	Sololá	713	San Lucas Tolimán	10	San Lucas Tolimán	12	Diciembre	2023-12-22T00:00:00	2024-11-08T08:00:00	1	Precipitación	0
166456	7	Sololá	713	San Lucas Tolimán	10	San Lucas Tolimán	12	Diciembre	2023-12-22T00:00:00	2024-11-08T08:00:00	8	Radiación solar	42
166457	7	Sololá	713	San Lucas Tolimán	10	San Lucas Tolimán	12	Diciembre	2023-12-22T00:00:00	2024-11-08T09:00:00	2	Temperatura media	20.1
166458	7	Sololá	713	San Lucas Tolimán	10	San Lucas Tolimán	12	Diciembre	2023-12-22T00:00:00	2024-11-08T09:00:00	4	Temperatura máxima	20.1
166459	7	Sololá	713	San Lucas Tolimán	10	San Lucas Tolimán	12	Diciembre	2023-12-22T00:00:00	2024-11-08T09:00:00	3	Temperatura mínima	17.3
166460	7	Sololá	713	San Lucas Tolimán	10	San Lucas Tolimán	12	Diciembre	2023-12-22T00:00:00	2024-11-08T09:00:00	5	Humedad	39
166461	7	Sololá	713	San Lucas Tolimán	10	San Lucas Tolimán	12	Diciembre	2023-12-22T00:00:00	2024-11-08T09:00:00	6	Velocidad del viento	8
166462	7	Sololá	713	San Lucas Tolimán	10	San Lucas Tolimán	12	Diciembre	2023-12-22T00:00:00	2024-11-08T09:00:00	7	Dirección del viento	8.05
166463	7	Sololá	713	San Lucas Tolimán	10	San Lucas Tolimán	12	Diciembre	2023-12-22T00:00:00	2024-11-08T09:00:00	1	Precipitación	0
166464	7	Sololá	713	San Lucas Tolimán	10	San Lucas Tolimán	12	Diciembre	2023-12-22T00:00:00	2024-11-08T09:00:00	8	Radiación solar	273
166465	7	Sololá	713	San Lucas Tolimán	10	San Lucas Tolimán	12	Diciembre	2023-12-22T00:00:00	2024-11-08T10:00:00	2	Temperatura media	21.8
166466	7	Sololá	713	San Lucas Tolimán	10	San Lucas Tolimán	12	Diciembre	2023-12-22T00:00:00	2024-11-08T10:00:00	4	Temperatura máxima	21.8
166467	7	Sololá	713	San Lucas Tolimán	10	San Lucas Tolimán	12	Diciembre	2023-12-22T00:00:00	2024-11-08T10:00:00	3	Temperatura mínima	20.1
166468	7	Sololá	713	San Lucas Tolimán	10	San Lucas Tolimán	12	Diciembre	2023-12-22T00:00:00	2024-11-08T10:00:00	5	Humedad	37
166469	7	Sololá	713	San Lucas Tolimán	10	San Lucas Tolimán	12	Diciembre	2023-12-22T00:00:00	2024-11-08T10:00:00	6	Velocidad del viento	8
166470	7	Sololá	713	San Lucas Tolimán	10	San Lucas Tolimán	12	Diciembre	2023-12-22T00:00:00	2024-11-08T10:00:00	7	Dirección del viento	8.05
166471	7	Sololá	713	San Lucas Tolimán	10	San Lucas Tolimán	12	Diciembre	2023-12-22T00:00:00	2024-11-08T10:00:00	1	Precipitación	0
166472	7	Sololá	713	San Lucas Tolimán	10	San Lucas Tolimán	12	Diciembre	2023-12-22T00:00:00	2024-11-08T10:00:00	8	Radiación solar	589
166473	7	Sololá	713	San Lucas Tolimán	10	San Lucas Tolimán	12	Diciembre	2023-12-22T00:00:00	2024-11-08T11:00:00	2	Temperatura media	22.9
166474	7	Sololá	713	San Lucas Tolimán	10	San Lucas Tolimán	12	Diciembre	2023-12-22T00:00:00	2024-11-08T11:00:00	4	Temperatura máxima	23
166475	7	Sololá	713	San Lucas Tolimán	10	San Lucas Tolimán	12	Diciembre	2023-12-22T00:00:00	2024-11-08T11:00:00	3	Temperatura mínima	21.8
166476	7	Sololá	713	San Lucas Tolimán	10	San Lucas Tolimán	12	Diciembre	2023-12-22T00:00:00	2024-11-08T11:00:00	5	Humedad	35
166477	7	Sololá	713	San Lucas Tolimán	10	San Lucas Tolimán	12	Diciembre	2023-12-22T00:00:00	2024-11-08T11:00:00	6	Velocidad del viento	11.3
166478	7	Sololá	713	San Lucas Tolimán	10	San Lucas Tolimán	12	Diciembre	2023-12-22T00:00:00	2024-11-08T11:00:00	7	Dirección del viento	11.27
166479	7	Sololá	713	San Lucas Tolimán	10	San Lucas Tolimán	12	Diciembre	2023-12-22T00:00:00	2024-11-08T11:00:00	1	Precipitación	0
166480	7	Sololá	713	San Lucas Tolimán	10	San Lucas Tolimán	12	Diciembre	2023-12-22T00:00:00	2024-11-08T11:00:00	8	Radiación solar	754
166481	7	Sololá	713	San Lucas Tolimán	10	San Lucas Tolimán	12	Diciembre	2023-12-22T00:00:00	2024-11-08T12:00:00	2	Temperatura media	24.2
166482	7	Sololá	713	San Lucas Tolimán	10	San Lucas Tolimán	12	Diciembre	2023-12-22T00:00:00	2024-11-08T12:00:00	4	Temperatura máxima	24.2
166483	7	Sololá	713	San Lucas Tolimán	10	San Lucas Tolimán	12	Diciembre	2023-12-22T00:00:00	2024-11-08T12:00:00	3	Temperatura mínima	23
166484	7	Sololá	713	San Lucas Tolimán	10	San Lucas Tolimán	12	Diciembre	2023-12-22T00:00:00	2024-11-08T12:00:00	5	Humedad	34
166485	7	Sololá	713	San Lucas Tolimán	10	San Lucas Tolimán	12	Diciembre	2023-12-22T00:00:00	2024-11-08T12:00:00	6	Velocidad del viento	9.7
166486	7	Sololá	713	San Lucas Tolimán	10	San Lucas Tolimán	12	Diciembre	2023-12-22T00:00:00	2024-11-08T12:00:00	7	Dirección del viento	9.66
166487	7	Sololá	713	San Lucas Tolimán	10	San Lucas Tolimán	12	Diciembre	2023-12-22T00:00:00	2024-11-08T12:00:00	1	Precipitación	0
166488	7	Sololá	713	San Lucas Tolimán	10	San Lucas Tolimán	12	Diciembre	2023-12-22T00:00:00	2024-11-08T12:00:00	8	Radiación solar	829
166489	7	Sololá	713	San Lucas Tolimán	10	San Lucas Tolimán	12	Diciembre	2023-12-22T00:00:00	2024-11-08T13:00:00	2	Temperatura media	24.8
166490	7	Sololá	713	San Lucas Tolimán	10	San Lucas Tolimán	12	Diciembre	2023-12-22T00:00:00	2024-11-08T13:00:00	4	Temperatura máxima	25.2
166491	7	Sololá	713	San Lucas Tolimán	10	San Lucas Tolimán	12	Diciembre	2023-12-22T00:00:00	2024-11-08T13:00:00	3	Temperatura mínima	24
166492	7	Sololá	713	San Lucas Tolimán	10	San Lucas Tolimán	12	Diciembre	2023-12-22T00:00:00	2024-11-08T13:00:00	5	Humedad	42
166493	7	Sololá	713	San Lucas Tolimán	10	San Lucas Tolimán	12	Diciembre	2023-12-22T00:00:00	2024-11-08T13:00:00	6	Velocidad del viento	8
166494	7	Sololá	713	San Lucas Tolimán	10	San Lucas Tolimán	12	Diciembre	2023-12-22T00:00:00	2024-11-08T13:00:00	7	Dirección del viento	8.05
166495	7	Sololá	713	San Lucas Tolimán	10	San Lucas Tolimán	12	Diciembre	2023-12-22T00:00:00	2024-11-08T13:00:00	1	Precipitación	0
166496	7	Sololá	713	San Lucas Tolimán	10	San Lucas Tolimán	12	Diciembre	2023-12-22T00:00:00	2024-11-08T13:00:00	8	Radiación solar	842
166497	7	Sololá	713	San Lucas Tolimán	10	San Lucas Tolimán	12	Diciembre	2023-12-22T00:00:00	2024-11-08T14:00:00	2	Temperatura media	23.6
166498	7	Sololá	713	San Lucas Tolimán	10	San Lucas Tolimán	12	Diciembre	2023-12-22T00:00:00	2024-11-08T14:00:00	4	Temperatura máxima	24.9
166499	7	Sololá	713	San Lucas Tolimán	10	San Lucas Tolimán	12	Diciembre	2023-12-22T00:00:00	2024-11-08T14:00:00	3	Temperatura mínima	23.6
166500	7	Sololá	713	San Lucas Tolimán	10	San Lucas Tolimán	12	Diciembre	2023-12-22T00:00:00	2024-11-08T14:00:00	5	Humedad	47
166501	7	Sololá	713	San Lucas Tolimán	10	San Lucas Tolimán	12	Diciembre	2023-12-22T00:00:00	2024-11-08T14:00:00	6	Velocidad del viento	9.7
166502	7	Sololá	713	San Lucas Tolimán	10	San Lucas Tolimán	12	Diciembre	2023-12-22T00:00:00	2024-11-08T14:00:00	7	Dirección del viento	9.66
166503	7	Sololá	713	San Lucas Tolimán	10	San Lucas Tolimán	12	Diciembre	2023-12-22T00:00:00	2024-11-08T14:00:00	1	Precipitación	0
166504	7	Sololá	713	San Lucas Tolimán	10	San Lucas Tolimán	12	Diciembre	2023-12-22T00:00:00	2024-11-08T14:00:00	8	Radiación solar	782
166505	7	Sololá	713	San Lucas Tolimán	10	San Lucas Tolimán	12	Diciembre	2023-12-22T00:00:00	2024-11-08T15:00:00	2	Temperatura media	23.7
166506	7	Sololá	713	San Lucas Tolimán	10	San Lucas Tolimán	12	Diciembre	2023-12-22T00:00:00	2024-11-08T15:00:00	4	Temperatura máxima	23.9
166507	7	Sololá	713	San Lucas Tolimán	10	San Lucas Tolimán	12	Diciembre	2023-12-22T00:00:00	2024-11-08T15:00:00	3	Temperatura mínima	23.1
166508	7	Sololá	713	San Lucas Tolimán	10	San Lucas Tolimán	12	Diciembre	2023-12-22T00:00:00	2024-11-08T15:00:00	5	Humedad	48
166509	7	Sololá	713	San Lucas Tolimán	10	San Lucas Tolimán	12	Diciembre	2023-12-22T00:00:00	2024-11-08T15:00:00	6	Velocidad del viento	9.7
166510	7	Sololá	713	San Lucas Tolimán	10	San Lucas Tolimán	12	Diciembre	2023-12-22T00:00:00	2024-11-08T15:00:00	7	Dirección del viento	9.66
166511	7	Sololá	713	San Lucas Tolimán	10	San Lucas Tolimán	12	Diciembre	2023-12-22T00:00:00	2024-11-08T15:00:00	1	Precipitación	0
166512	7	Sololá	713	San Lucas Tolimán	10	San Lucas Tolimán	12	Diciembre	2023-12-22T00:00:00	2024-11-08T15:00:00	8	Radiación solar	643
166513	7	Sololá	713	San Lucas Tolimán	10	San Lucas Tolimán	12	Diciembre	2023-12-22T00:00:00	2024-11-08T16:00:00	2	Temperatura media	23.4
166514	7	Sololá	713	San Lucas Tolimán	10	San Lucas Tolimán	12	Diciembre	2023-12-22T00:00:00	2024-11-08T16:00:00	4	Temperatura máxima	23.8
166515	7	Sololá	713	San Lucas Tolimán	10	San Lucas Tolimán	12	Diciembre	2023-12-22T00:00:00	2024-11-08T16:00:00	3	Temperatura mínima	23.3
166516	7	Sololá	713	San Lucas Tolimán	10	San Lucas Tolimán	12	Diciembre	2023-12-22T00:00:00	2024-11-08T16:00:00	5	Humedad	51
166517	7	Sololá	713	San Lucas Tolimán	10	San Lucas Tolimán	12	Diciembre	2023-12-22T00:00:00	2024-11-08T16:00:00	6	Velocidad del viento	6.4
166518	7	Sololá	713	San Lucas Tolimán	10	San Lucas Tolimán	12	Diciembre	2023-12-22T00:00:00	2024-11-08T16:00:00	7	Dirección del viento	6.44
166519	7	Sololá	713	San Lucas Tolimán	10	San Lucas Tolimán	12	Diciembre	2023-12-22T00:00:00	2024-11-08T16:00:00	1	Precipitación	0
166520	7	Sololá	713	San Lucas Tolimán	10	San Lucas Tolimán	12	Diciembre	2023-12-22T00:00:00	2024-11-08T16:00:00	8	Radiación solar	453
166521	7	Sololá	713	San Lucas Tolimán	10	San Lucas Tolimán	12	Diciembre	2023-12-22T00:00:00	2024-11-08T17:00:00	2	Temperatura media	21.2
166522	7	Sololá	713	San Lucas Tolimán	10	San Lucas Tolimán	12	Diciembre	2023-12-22T00:00:00	2024-11-08T17:00:00	4	Temperatura máxima	23.4
166523	7	Sololá	713	San Lucas Tolimán	10	San Lucas Tolimán	12	Diciembre	2023-12-22T00:00:00	2024-11-08T17:00:00	3	Temperatura mínima	21.2
166524	7	Sololá	713	San Lucas Tolimán	10	San Lucas Tolimán	12	Diciembre	2023-12-22T00:00:00	2024-11-08T17:00:00	5	Humedad	56
166525	7	Sololá	713	San Lucas Tolimán	10	San Lucas Tolimán	12	Diciembre	2023-12-22T00:00:00	2024-11-08T17:00:00	6	Velocidad del viento	3.2
166526	7	Sololá	713	San Lucas Tolimán	10	San Lucas Tolimán	12	Diciembre	2023-12-22T00:00:00	2024-11-08T17:00:00	7	Dirección del viento	3.22
166527	7	Sololá	713	San Lucas Tolimán	10	San Lucas Tolimán	12	Diciembre	2023-12-22T00:00:00	2024-11-08T17:00:00	1	Precipitación	0
166528	7	Sololá	713	San Lucas Tolimán	10	San Lucas Tolimán	12	Diciembre	2023-12-22T00:00:00	2024-11-08T17:00:00	8	Radiación solar	152
166529	7	Sololá	713	San Lucas Tolimán	10	San Lucas Tolimán	12	Diciembre	2023-12-22T00:00:00	2024-11-08T18:00:00	2	Temperatura media	20.3
166530	7	Sololá	713	San Lucas Tolimán	10	San Lucas Tolimán	12	Diciembre	2023-12-22T00:00:00	2024-11-08T18:00:00	4	Temperatura máxima	21.3
166531	7	Sololá	713	San Lucas Tolimán	10	San Lucas Tolimán	12	Diciembre	2023-12-22T00:00:00	2024-11-08T18:00:00	3	Temperatura mínima	20.3
166532	7	Sololá	713	San Lucas Tolimán	10	San Lucas Tolimán	12	Diciembre	2023-12-22T00:00:00	2024-11-08T18:00:00	5	Humedad	49
166533	7	Sololá	713	San Lucas Tolimán	10	San Lucas Tolimán	12	Diciembre	2023-12-22T00:00:00	2024-11-08T18:00:00	6	Velocidad del viento	12.9
166534	7	Sololá	713	San Lucas Tolimán	10	San Lucas Tolimán	12	Diciembre	2023-12-22T00:00:00	2024-11-08T18:00:00	7	Dirección del viento	12.87
166535	7	Sololá	713	San Lucas Tolimán	10	San Lucas Tolimán	12	Diciembre	2023-12-22T00:00:00	2024-11-08T18:00:00	1	Precipitación	0
166536	7	Sololá	713	San Lucas Tolimán	10	San Lucas Tolimán	12	Diciembre	2023-12-22T00:00:00	2024-11-08T18:00:00	8	Radiación solar	22
166537	7	Sololá	713	San Lucas Tolimán	10	San Lucas Tolimán	12	Diciembre	2023-12-22T00:00:00	2024-11-08T19:00:00	2	Temperatura media	19.9
166538	7	Sololá	713	San Lucas Tolimán	10	San Lucas Tolimán	12	Diciembre	2023-12-22T00:00:00	2024-11-08T19:00:00	4	Temperatura máxima	20.3
166539	7	Sololá	713	San Lucas Tolimán	10	San Lucas Tolimán	12	Diciembre	2023-12-22T00:00:00	2024-11-08T19:00:00	3	Temperatura mínima	19.9
166540	7	Sololá	713	San Lucas Tolimán	10	San Lucas Tolimán	12	Diciembre	2023-12-22T00:00:00	2024-11-08T19:00:00	5	Humedad	49
166541	7	Sololá	713	San Lucas Tolimán	10	San Lucas Tolimán	12	Diciembre	2023-12-22T00:00:00	2024-11-08T19:00:00	6	Velocidad del viento	14.5
166542	7	Sololá	713	San Lucas Tolimán	10	San Lucas Tolimán	12	Diciembre	2023-12-22T00:00:00	2024-11-08T19:00:00	7	Dirección del viento	14.48
166543	7	Sololá	713	San Lucas Tolimán	10	San Lucas Tolimán	12	Diciembre	2023-12-22T00:00:00	2024-11-08T19:00:00	1	Precipitación	0
166544	7	Sololá	713	San Lucas Tolimán	10	San Lucas Tolimán	12	Diciembre	2023-12-22T00:00:00	2024-11-08T19:00:00	8	Radiación solar	0
166545	7	Sololá	713	San Lucas Tolimán	10	San Lucas Tolimán	12	Diciembre	2023-12-22T00:00:00	2024-11-08T20:00:00	2	Temperatura media	19
166546	7	Sololá	713	San Lucas Tolimán	10	San Lucas Tolimán	12	Diciembre	2023-12-22T00:00:00	2024-11-08T20:00:00	4	Temperatura máxima	20.1
166547	7	Sololá	713	San Lucas Tolimán	10	San Lucas Tolimán	12	Diciembre	2023-12-22T00:00:00	2024-11-08T20:00:00	3	Temperatura mínima	18.9
166548	7	Sololá	713	San Lucas Tolimán	10	San Lucas Tolimán	12	Diciembre	2023-12-22T00:00:00	2024-11-08T20:00:00	5	Humedad	54
166549	7	Sololá	713	San Lucas Tolimán	10	San Lucas Tolimán	12	Diciembre	2023-12-22T00:00:00	2024-11-08T20:00:00	6	Velocidad del viento	4.8
166550	7	Sololá	713	San Lucas Tolimán	10	San Lucas Tolimán	12	Diciembre	2023-12-22T00:00:00	2024-11-08T20:00:00	7	Dirección del viento	4.83
166551	7	Sololá	713	San Lucas Tolimán	10	San Lucas Tolimán	12	Diciembre	2023-12-22T00:00:00	2024-11-08T20:00:00	1	Precipitación	0
166552	7	Sololá	713	San Lucas Tolimán	10	San Lucas Tolimán	12	Diciembre	2023-12-22T00:00:00	2024-11-08T20:00:00	8	Radiación solar	0
166553	7	Sololá	713	San Lucas Tolimán	10	San Lucas Tolimán	12	Diciembre	2023-12-22T00:00:00	2024-11-08T21:00:00	2	Temperatura media	18.8
166554	7	Sololá	713	San Lucas Tolimán	10	San Lucas Tolimán	12	Diciembre	2023-12-22T00:00:00	2024-11-08T21:00:00	4	Temperatura máxima	19
166555	7	Sololá	713	San Lucas Tolimán	10	San Lucas Tolimán	12	Diciembre	2023-12-22T00:00:00	2024-11-08T21:00:00	3	Temperatura mínima	18.1
166556	7	Sololá	713	San Lucas Tolimán	10	San Lucas Tolimán	12	Diciembre	2023-12-22T00:00:00	2024-11-08T21:00:00	5	Humedad	55
166557	7	Sololá	713	San Lucas Tolimán	10	San Lucas Tolimán	12	Diciembre	2023-12-22T00:00:00	2024-11-08T21:00:00	6	Velocidad del viento	4.8
166558	7	Sololá	713	San Lucas Tolimán	10	San Lucas Tolimán	12	Diciembre	2023-12-22T00:00:00	2024-11-08T21:00:00	7	Dirección del viento	4.83
166559	7	Sololá	713	San Lucas Tolimán	10	San Lucas Tolimán	12	Diciembre	2023-12-22T00:00:00	2024-11-08T21:00:00	1	Precipitación	0
166560	7	Sololá	713	San Lucas Tolimán	10	San Lucas Tolimán	12	Diciembre	2023-12-22T00:00:00	2024-11-08T21:00:00	8	Radiación solar	0
166561	7	Sololá	713	San Lucas Tolimán	10	San Lucas Tolimán	12	Diciembre	2023-12-22T00:00:00	2024-11-08T22:00:00	2	Temperatura media	18.6
166562	7	Sololá	713	San Lucas Tolimán	10	San Lucas Tolimán	12	Diciembre	2023-12-22T00:00:00	2024-11-08T22:00:00	4	Temperatura máxima	18.9
166563	7	Sololá	713	San Lucas Tolimán	10	San Lucas Tolimán	12	Diciembre	2023-12-22T00:00:00	2024-11-08T22:00:00	3	Temperatura mínima	18.4
166564	7	Sololá	713	San Lucas Tolimán	10	San Lucas Tolimán	12	Diciembre	2023-12-22T00:00:00	2024-11-08T22:00:00	5	Humedad	55
166565	7	Sololá	713	San Lucas Tolimán	10	San Lucas Tolimán	12	Diciembre	2023-12-22T00:00:00	2024-11-08T22:00:00	6	Velocidad del viento	8
166566	7	Sololá	713	San Lucas Tolimán	10	San Lucas Tolimán	12	Diciembre	2023-12-22T00:00:00	2024-11-08T22:00:00	7	Dirección del viento	8.05
166567	7	Sololá	713	San Lucas Tolimán	10	San Lucas Tolimán	12	Diciembre	2023-12-22T00:00:00	2024-11-08T22:00:00	1	Precipitación	0
166568	7	Sololá	713	San Lucas Tolimán	10	San Lucas Tolimán	12	Diciembre	2023-12-22T00:00:00	2024-11-08T22:00:00	8	Radiación solar	0
166569	7	Sololá	713	San Lucas Tolimán	10	San Lucas Tolimán	12	Diciembre	2023-12-22T00:00:00	2024-11-08T23:00:00	2	Temperatura media	17.9
166570	7	Sololá	713	San Lucas Tolimán	10	San Lucas Tolimán	12	Diciembre	2023-12-22T00:00:00	2024-11-08T23:00:00	4	Temperatura máxima	18.6
166571	7	Sololá	713	San Lucas Tolimán	10	San Lucas Tolimán	12	Diciembre	2023-12-22T00:00:00	2024-11-08T23:00:00	3	Temperatura mínima	17.9
166572	7	Sololá	713	San Lucas Tolimán	10	San Lucas Tolimán	12	Diciembre	2023-12-22T00:00:00	2024-11-08T23:00:00	5	Humedad	56
166573	7	Sololá	713	San Lucas Tolimán	10	San Lucas Tolimán	12	Diciembre	2023-12-22T00:00:00	2024-11-08T23:00:00	6	Velocidad del viento	4.8
166574	7	Sololá	713	San Lucas Tolimán	10	San Lucas Tolimán	12	Diciembre	2023-12-22T00:00:00	2024-11-08T23:00:00	7	Dirección del viento	4.83
166575	7	Sololá	713	San Lucas Tolimán	10	San Lucas Tolimán	12	Diciembre	2023-12-22T00:00:00	2024-11-08T23:00:00	1	Precipitación	0
166576	7	Sololá	713	San Lucas Tolimán	10	San Lucas Tolimán	12	Diciembre	2023-12-22T00:00:00	2024-11-08T23:00:00	8	Radiación solar	0
166577	7	Sololá	713	San Lucas Tolimán	10	San Lucas Tolimán	12	Diciembre	2023-12-23T00:00:00	2024-11-08T00:00:00	2	Temperatura media	17.3
166578	7	Sololá	713	San Lucas Tolimán	10	San Lucas Tolimán	12	Diciembre	2023-12-23T00:00:00	2024-11-08T00:00:00	4	Temperatura máxima	18
166579	7	Sololá	713	San Lucas Tolimán	10	San Lucas Tolimán	12	Diciembre	2023-12-23T00:00:00	2024-11-08T00:00:00	3	Temperatura mínima	17.3
166580	7	Sololá	713	San Lucas Tolimán	10	San Lucas Tolimán	12	Diciembre	2023-12-23T00:00:00	2024-11-08T00:00:00	5	Humedad	58
166581	7	Sololá	713	San Lucas Tolimán	10	San Lucas Tolimán	12	Diciembre	2023-12-23T00:00:00	2024-11-08T00:00:00	6	Velocidad del viento	1.6
166582	7	Sololá	713	San Lucas Tolimán	10	San Lucas Tolimán	12	Diciembre	2023-12-23T00:00:00	2024-11-08T00:00:00	7	Dirección del viento	1.61
166583	7	Sololá	713	San Lucas Tolimán	10	San Lucas Tolimán	12	Diciembre	2023-12-23T00:00:00	2024-11-08T00:00:00	1	Precipitación	0
166584	7	Sololá	713	San Lucas Tolimán	10	San Lucas Tolimán	12	Diciembre	2023-12-23T00:00:00	2024-11-08T00:00:00	8	Radiación solar	0
166585	7	Sololá	713	San Lucas Tolimán	10	San Lucas Tolimán	12	Diciembre	2023-12-23T00:00:00	2024-11-08T01:00:00	2	Temperatura media	17.8
166586	7	Sololá	713	San Lucas Tolimán	10	San Lucas Tolimán	12	Diciembre	2023-12-23T00:00:00	2024-11-08T01:00:00	4	Temperatura máxima	18.5
166587	7	Sololá	713	San Lucas Tolimán	10	San Lucas Tolimán	12	Diciembre	2023-12-23T00:00:00	2024-11-08T01:00:00	3	Temperatura mínima	17.2
166588	7	Sololá	713	San Lucas Tolimán	10	San Lucas Tolimán	12	Diciembre	2023-12-23T00:00:00	2024-11-08T01:00:00	5	Humedad	57
166589	7	Sololá	713	San Lucas Tolimán	10	San Lucas Tolimán	12	Diciembre	2023-12-23T00:00:00	2024-11-08T01:00:00	6	Velocidad del viento	6.4
166590	7	Sololá	713	San Lucas Tolimán	10	San Lucas Tolimán	12	Diciembre	2023-12-23T00:00:00	2024-11-08T01:00:00	7	Dirección del viento	6.44
166591	7	Sololá	713	San Lucas Tolimán	10	San Lucas Tolimán	12	Diciembre	2023-12-23T00:00:00	2024-11-08T01:00:00	1	Precipitación	0
166592	7	Sololá	713	San Lucas Tolimán	10	San Lucas Tolimán	12	Diciembre	2023-12-23T00:00:00	2024-11-08T01:00:00	8	Radiación solar	0
166593	7	Sololá	713	San Lucas Tolimán	10	San Lucas Tolimán	12	Diciembre	2023-12-23T00:00:00	2024-11-08T02:00:00	2	Temperatura media	17.8
166594	7	Sololá	713	San Lucas Tolimán	10	San Lucas Tolimán	12	Diciembre	2023-12-23T00:00:00	2024-11-08T02:00:00	4	Temperatura máxima	17.8
166595	7	Sololá	713	San Lucas Tolimán	10	San Lucas Tolimán	12	Diciembre	2023-12-23T00:00:00	2024-11-08T02:00:00	3	Temperatura mínima	17.4
166596	7	Sololá	713	San Lucas Tolimán	10	San Lucas Tolimán	12	Diciembre	2023-12-23T00:00:00	2024-11-08T02:00:00	5	Humedad	57
166597	7	Sololá	713	San Lucas Tolimán	10	San Lucas Tolimán	12	Diciembre	2023-12-23T00:00:00	2024-11-08T02:00:00	6	Velocidad del viento	4.8
166598	7	Sololá	713	San Lucas Tolimán	10	San Lucas Tolimán	12	Diciembre	2023-12-23T00:00:00	2024-11-08T02:00:00	7	Dirección del viento	4.83
166599	7	Sololá	713	San Lucas Tolimán	10	San Lucas Tolimán	12	Diciembre	2023-12-23T00:00:00	2024-11-08T02:00:00	1	Precipitación	0
166600	7	Sololá	713	San Lucas Tolimán	10	San Lucas Tolimán	12	Diciembre	2023-12-23T00:00:00	2024-11-08T02:00:00	8	Radiación solar	0
166601	7	Sololá	713	San Lucas Tolimán	10	San Lucas Tolimán	12	Diciembre	2023-12-23T00:00:00	2024-11-08T03:00:00	2	Temperatura media	17.1
166602	7	Sololá	713	San Lucas Tolimán	10	San Lucas Tolimán	12	Diciembre	2023-12-23T00:00:00	2024-11-08T03:00:00	4	Temperatura máxima	17.8
166603	7	Sololá	713	San Lucas Tolimán	10	San Lucas Tolimán	12	Diciembre	2023-12-23T00:00:00	2024-11-08T03:00:00	3	Temperatura mínima	17.1
166604	7	Sololá	713	San Lucas Tolimán	10	San Lucas Tolimán	12	Diciembre	2023-12-23T00:00:00	2024-11-08T03:00:00	5	Humedad	59
166605	7	Sololá	713	San Lucas Tolimán	10	San Lucas Tolimán	12	Diciembre	2023-12-23T00:00:00	2024-11-08T03:00:00	6	Velocidad del viento	3.2
166606	7	Sololá	713	San Lucas Tolimán	10	San Lucas Tolimán	12	Diciembre	2023-12-23T00:00:00	2024-11-08T03:00:00	7	Dirección del viento	3.22
166607	7	Sololá	713	San Lucas Tolimán	10	San Lucas Tolimán	12	Diciembre	2023-12-23T00:00:00	2024-11-08T03:00:00	1	Precipitación	0
166608	7	Sololá	713	San Lucas Tolimán	10	San Lucas Tolimán	12	Diciembre	2023-12-23T00:00:00	2024-11-08T03:00:00	8	Radiación solar	0
166609	7	Sololá	713	San Lucas Tolimán	10	San Lucas Tolimán	12	Diciembre	2023-12-23T00:00:00	2024-11-08T04:00:00	2	Temperatura media	16.6
166610	7	Sololá	713	San Lucas Tolimán	10	San Lucas Tolimán	12	Diciembre	2023-12-23T00:00:00	2024-11-08T04:00:00	4	Temperatura máxima	17.2
166611	7	Sololá	713	San Lucas Tolimán	10	San Lucas Tolimán	12	Diciembre	2023-12-23T00:00:00	2024-11-08T04:00:00	3	Temperatura mínima	16.6
166612	7	Sololá	713	San Lucas Tolimán	10	San Lucas Tolimán	12	Diciembre	2023-12-23T00:00:00	2024-11-08T04:00:00	5	Humedad	60
166613	7	Sololá	713	San Lucas Tolimán	10	San Lucas Tolimán	12	Diciembre	2023-12-23T00:00:00	2024-11-08T04:00:00	6	Velocidad del viento	3.2
166614	7	Sololá	713	San Lucas Tolimán	10	San Lucas Tolimán	12	Diciembre	2023-12-23T00:00:00	2024-11-08T04:00:00	7	Dirección del viento	3.22
166615	7	Sololá	713	San Lucas Tolimán	10	San Lucas Tolimán	12	Diciembre	2023-12-23T00:00:00	2024-11-08T04:00:00	1	Precipitación	0
166616	7	Sololá	713	San Lucas Tolimán	10	San Lucas Tolimán	12	Diciembre	2023-12-23T00:00:00	2024-11-08T04:00:00	8	Radiación solar	0
166617	7	Sololá	713	San Lucas Tolimán	10	San Lucas Tolimán	12	Diciembre	2023-12-23T00:00:00	2024-11-08T05:00:00	2	Temperatura media	17
166618	7	Sololá	713	San Lucas Tolimán	10	San Lucas Tolimán	12	Diciembre	2023-12-23T00:00:00	2024-11-08T05:00:00	4	Temperatura máxima	17.1
166619	7	Sololá	713	San Lucas Tolimán	10	San Lucas Tolimán	12	Diciembre	2023-12-23T00:00:00	2024-11-08T05:00:00	3	Temperatura mínima	16.6
166620	7	Sololá	713	San Lucas Tolimán	10	San Lucas Tolimán	12	Diciembre	2023-12-23T00:00:00	2024-11-08T05:00:00	5	Humedad	59
166621	7	Sololá	713	San Lucas Tolimán	10	San Lucas Tolimán	12	Diciembre	2023-12-23T00:00:00	2024-11-08T05:00:00	6	Velocidad del viento	4.8
166622	7	Sololá	713	San Lucas Tolimán	10	San Lucas Tolimán	12	Diciembre	2023-12-23T00:00:00	2024-11-08T05:00:00	7	Dirección del viento	4.83
166623	7	Sololá	713	San Lucas Tolimán	10	San Lucas Tolimán	12	Diciembre	2023-12-23T00:00:00	2024-11-08T05:00:00	1	Precipitación	0
166624	7	Sololá	713	San Lucas Tolimán	10	San Lucas Tolimán	12	Diciembre	2023-12-23T00:00:00	2024-11-08T05:00:00	8	Radiación solar	0
166625	7	Sololá	713	San Lucas Tolimán	10	San Lucas Tolimán	12	Diciembre	2023-12-23T00:00:00	2024-11-08T06:00:00	2	Temperatura media	16.9
166626	7	Sololá	713	San Lucas Tolimán	10	San Lucas Tolimán	12	Diciembre	2023-12-23T00:00:00	2024-11-08T06:00:00	4	Temperatura máxima	17.1
166627	7	Sololá	713	San Lucas Tolimán	10	San Lucas Tolimán	12	Diciembre	2023-12-23T00:00:00	2024-11-08T06:00:00	3	Temperatura mínima	16.7
166628	7	Sololá	713	San Lucas Tolimán	10	San Lucas Tolimán	12	Diciembre	2023-12-23T00:00:00	2024-11-08T06:00:00	5	Humedad	60
166629	7	Sololá	713	San Lucas Tolimán	10	San Lucas Tolimán	12	Diciembre	2023-12-23T00:00:00	2024-11-08T06:00:00	6	Velocidad del viento	4.8
166630	7	Sololá	713	San Lucas Tolimán	10	San Lucas Tolimán	12	Diciembre	2023-12-23T00:00:00	2024-11-08T06:00:00	7	Dirección del viento	4.83
166631	7	Sololá	713	San Lucas Tolimán	10	San Lucas Tolimán	12	Diciembre	2023-12-23T00:00:00	2024-11-08T06:00:00	1	Precipitación	0
166632	7	Sololá	713	San Lucas Tolimán	10	San Lucas Tolimán	12	Diciembre	2023-12-23T00:00:00	2024-11-08T06:00:00	8	Radiación solar	0
166633	7	Sololá	713	San Lucas Tolimán	10	San Lucas Tolimán	12	Diciembre	2023-12-23T00:00:00	2024-11-08T07:00:00	2	Temperatura media	16.2
166634	7	Sololá	713	San Lucas Tolimán	10	San Lucas Tolimán	12	Diciembre	2023-12-23T00:00:00	2024-11-08T07:00:00	4	Temperatura máxima	16.9
166635	7	Sololá	713	San Lucas Tolimán	10	San Lucas Tolimán	12	Diciembre	2023-12-23T00:00:00	2024-11-08T07:00:00	3	Temperatura mínima	16.2
166636	7	Sololá	713	San Lucas Tolimán	10	San Lucas Tolimán	12	Diciembre	2023-12-23T00:00:00	2024-11-08T07:00:00	5	Humedad	61
166637	7	Sololá	713	San Lucas Tolimán	10	San Lucas Tolimán	12	Diciembre	2023-12-23T00:00:00	2024-11-08T07:00:00	6	Velocidad del viento	3.2
166638	7	Sololá	713	San Lucas Tolimán	10	San Lucas Tolimán	12	Diciembre	2023-12-23T00:00:00	2024-11-08T07:00:00	7	Dirección del viento	3.22
166639	7	Sololá	713	San Lucas Tolimán	10	San Lucas Tolimán	12	Diciembre	2023-12-23T00:00:00	2024-11-08T07:00:00	1	Precipitación	0
166640	7	Sololá	713	San Lucas Tolimán	10	San Lucas Tolimán	12	Diciembre	2023-12-23T00:00:00	2024-11-08T07:00:00	8	Radiación solar	4
166641	7	Sololá	713	San Lucas Tolimán	10	San Lucas Tolimán	12	Diciembre	2023-12-23T00:00:00	2024-11-08T08:00:00	2	Temperatura media	17.2
166642	7	Sololá	713	San Lucas Tolimán	10	San Lucas Tolimán	12	Diciembre	2023-12-23T00:00:00	2024-11-08T08:00:00	4	Temperatura máxima	17.3
166643	7	Sololá	713	San Lucas Tolimán	10	San Lucas Tolimán	12	Diciembre	2023-12-23T00:00:00	2024-11-08T08:00:00	3	Temperatura mínima	16.2
166644	7	Sololá	713	San Lucas Tolimán	10	San Lucas Tolimán	12	Diciembre	2023-12-23T00:00:00	2024-11-08T08:00:00	5	Humedad	58
166645	7	Sololá	713	San Lucas Tolimán	10	San Lucas Tolimán	12	Diciembre	2023-12-23T00:00:00	2024-11-08T08:00:00	6	Velocidad del viento	4.8
166646	7	Sololá	713	San Lucas Tolimán	10	San Lucas Tolimán	12	Diciembre	2023-12-23T00:00:00	2024-11-08T08:00:00	7	Dirección del viento	4.83
166647	7	Sololá	713	San Lucas Tolimán	10	San Lucas Tolimán	12	Diciembre	2023-12-23T00:00:00	2024-11-08T08:00:00	1	Precipitación	0
166648	7	Sololá	713	San Lucas Tolimán	10	San Lucas Tolimán	12	Diciembre	2023-12-23T00:00:00	2024-11-08T08:00:00	8	Radiación solar	19
166649	7	Sololá	713	San Lucas Tolimán	10	San Lucas Tolimán	12	Diciembre	2023-12-23T00:00:00	2024-11-08T09:00:00	2	Temperatura media	20.4
166650	7	Sololá	713	San Lucas Tolimán	10	San Lucas Tolimán	12	Diciembre	2023-12-23T00:00:00	2024-11-08T09:00:00	4	Temperatura máxima	20.4
166651	7	Sololá	713	San Lucas Tolimán	10	San Lucas Tolimán	12	Diciembre	2023-12-23T00:00:00	2024-11-08T09:00:00	3	Temperatura mínima	17.2
166652	7	Sololá	713	San Lucas Tolimán	10	San Lucas Tolimán	12	Diciembre	2023-12-23T00:00:00	2024-11-08T09:00:00	5	Humedad	51
166653	7	Sololá	713	San Lucas Tolimán	10	San Lucas Tolimán	12	Diciembre	2023-12-23T00:00:00	2024-11-08T09:00:00	6	Velocidad del viento	4.8
166654	7	Sololá	713	San Lucas Tolimán	10	San Lucas Tolimán	12	Diciembre	2023-12-23T00:00:00	2024-11-08T09:00:00	7	Dirección del viento	4.83
166655	7	Sololá	713	San Lucas Tolimán	10	San Lucas Tolimán	12	Diciembre	2023-12-23T00:00:00	2024-11-08T09:00:00	1	Precipitación	0
166656	7	Sololá	713	San Lucas Tolimán	10	San Lucas Tolimán	12	Diciembre	2023-12-23T00:00:00	2024-11-08T09:00:00	8	Radiación solar	293
166657	7	Sololá	713	San Lucas Tolimán	10	San Lucas Tolimán	12	Diciembre	2023-12-23T00:00:00	2024-11-08T10:00:00	2	Temperatura media	22.5
166658	7	Sololá	713	San Lucas Tolimán	10	San Lucas Tolimán	12	Diciembre	2023-12-23T00:00:00	2024-11-08T10:00:00	4	Temperatura máxima	22.9
166659	7	Sololá	713	San Lucas Tolimán	10	San Lucas Tolimán	12	Diciembre	2023-12-23T00:00:00	2024-11-08T10:00:00	3	Temperatura mínima	20.4
166660	7	Sololá	713	San Lucas Tolimán	10	San Lucas Tolimán	12	Diciembre	2023-12-23T00:00:00	2024-11-08T10:00:00	5	Humedad	45
166661	7	Sololá	713	San Lucas Tolimán	10	San Lucas Tolimán	12	Diciembre	2023-12-23T00:00:00	2024-11-08T10:00:00	6	Velocidad del viento	3.2
166662	7	Sololá	713	San Lucas Tolimán	10	San Lucas Tolimán	12	Diciembre	2023-12-23T00:00:00	2024-11-08T10:00:00	7	Dirección del viento	3.22
166663	7	Sololá	713	San Lucas Tolimán	10	San Lucas Tolimán	12	Diciembre	2023-12-23T00:00:00	2024-11-08T10:00:00	1	Precipitación	0
166664	7	Sololá	713	San Lucas Tolimán	10	San Lucas Tolimán	12	Diciembre	2023-12-23T00:00:00	2024-11-08T10:00:00	8	Radiación solar	599
166665	7	Sololá	713	San Lucas Tolimán	10	San Lucas Tolimán	12	Diciembre	2023-12-23T00:00:00	2024-11-08T11:00:00	2	Temperatura media	24.4
166666	7	Sololá	713	San Lucas Tolimán	10	San Lucas Tolimán	12	Diciembre	2023-12-23T00:00:00	2024-11-08T11:00:00	4	Temperatura máxima	24.4
166667	7	Sololá	713	San Lucas Tolimán	10	San Lucas Tolimán	12	Diciembre	2023-12-23T00:00:00	2024-11-08T11:00:00	3	Temperatura mínima	22.4
166668	7	Sololá	713	San Lucas Tolimán	10	San Lucas Tolimán	12	Diciembre	2023-12-23T00:00:00	2024-11-08T11:00:00	5	Humedad	44
166669	7	Sololá	713	San Lucas Tolimán	10	San Lucas Tolimán	12	Diciembre	2023-12-23T00:00:00	2024-11-08T11:00:00	6	Velocidad del viento	3.2
166670	7	Sololá	713	San Lucas Tolimán	10	San Lucas Tolimán	12	Diciembre	2023-12-23T00:00:00	2024-11-08T11:00:00	7	Dirección del viento	3.22
166671	7	Sololá	713	San Lucas Tolimán	10	San Lucas Tolimán	12	Diciembre	2023-12-23T00:00:00	2024-11-08T11:00:00	1	Precipitación	0
166672	7	Sololá	713	San Lucas Tolimán	10	San Lucas Tolimán	12	Diciembre	2023-12-23T00:00:00	2024-11-08T11:00:00	8	Radiación solar	759
166673	7	Sololá	713	San Lucas Tolimán	10	San Lucas Tolimán	12	Diciembre	2023-12-23T00:00:00	2024-11-08T12:00:00	2	Temperatura media	23.6
166674	7	Sololá	713	San Lucas Tolimán	10	San Lucas Tolimán	12	Diciembre	2023-12-23T00:00:00	2024-11-08T12:00:00	4	Temperatura máxima	24.9
166675	7	Sololá	713	San Lucas Tolimán	10	San Lucas Tolimán	12	Diciembre	2023-12-23T00:00:00	2024-11-08T12:00:00	3	Temperatura mínima	23.6
166676	7	Sololá	713	San Lucas Tolimán	10	San Lucas Tolimán	12	Diciembre	2023-12-23T00:00:00	2024-11-08T12:00:00	5	Humedad	51
166677	7	Sololá	713	San Lucas Tolimán	10	San Lucas Tolimán	12	Diciembre	2023-12-23T00:00:00	2024-11-08T12:00:00	6	Velocidad del viento	8
166678	7	Sololá	713	San Lucas Tolimán	10	San Lucas Tolimán	12	Diciembre	2023-12-23T00:00:00	2024-11-08T12:00:00	7	Dirección del viento	8.05
166679	7	Sololá	713	San Lucas Tolimán	10	San Lucas Tolimán	12	Diciembre	2023-12-23T00:00:00	2024-11-08T12:00:00	1	Precipitación	0
166680	7	Sololá	713	San Lucas Tolimán	10	San Lucas Tolimán	12	Diciembre	2023-12-23T00:00:00	2024-11-08T12:00:00	8	Radiación solar	852
166681	7	Sololá	713	San Lucas Tolimán	10	San Lucas Tolimán	12	Diciembre	2023-12-23T00:00:00	2024-11-08T13:00:00	2	Temperatura media	23.4
166682	7	Sololá	713	San Lucas Tolimán	10	San Lucas Tolimán	12	Diciembre	2023-12-23T00:00:00	2024-11-08T13:00:00	4	Temperatura máxima	24.3
166683	7	Sololá	713	San Lucas Tolimán	10	San Lucas Tolimán	12	Diciembre	2023-12-23T00:00:00	2024-11-08T13:00:00	3	Temperatura mínima	23.4
166684	7	Sololá	713	San Lucas Tolimán	10	San Lucas Tolimán	12	Diciembre	2023-12-23T00:00:00	2024-11-08T13:00:00	5	Humedad	54
166685	7	Sololá	713	San Lucas Tolimán	10	San Lucas Tolimán	12	Diciembre	2023-12-23T00:00:00	2024-11-08T13:00:00	6	Velocidad del viento	11.3
166686	7	Sololá	713	San Lucas Tolimán	10	San Lucas Tolimán	12	Diciembre	2023-12-23T00:00:00	2024-11-08T13:00:00	7	Dirección del viento	11.27
166687	7	Sololá	713	San Lucas Tolimán	10	San Lucas Tolimán	12	Diciembre	2023-12-23T00:00:00	2024-11-08T13:00:00	1	Precipitación	0
166688	7	Sololá	713	San Lucas Tolimán	10	San Lucas Tolimán	12	Diciembre	2023-12-23T00:00:00	2024-11-08T13:00:00	8	Radiación solar	888
166689	7	Sololá	713	San Lucas Tolimán	10	San Lucas Tolimán	12	Diciembre	2023-12-23T00:00:00	2024-11-08T14:00:00	2	Temperatura media	22.9
166690	7	Sololá	713	San Lucas Tolimán	10	San Lucas Tolimán	12	Diciembre	2023-12-23T00:00:00	2024-11-08T14:00:00	4	Temperatura máxima	23.4
166691	7	Sololá	713	San Lucas Tolimán	10	San Lucas Tolimán	12	Diciembre	2023-12-23T00:00:00	2024-11-08T14:00:00	3	Temperatura mínima	22.4
166692	7	Sololá	713	San Lucas Tolimán	10	San Lucas Tolimán	12	Diciembre	2023-12-23T00:00:00	2024-11-08T14:00:00	5	Humedad	56
166693	7	Sololá	713	San Lucas Tolimán	10	San Lucas Tolimán	12	Diciembre	2023-12-23T00:00:00	2024-11-08T14:00:00	6	Velocidad del viento	12.9
166694	7	Sololá	713	San Lucas Tolimán	10	San Lucas Tolimán	12	Diciembre	2023-12-23T00:00:00	2024-11-08T14:00:00	7	Dirección del viento	12.87
166695	7	Sololá	713	San Lucas Tolimán	10	San Lucas Tolimán	12	Diciembre	2023-12-23T00:00:00	2024-11-08T14:00:00	1	Precipitación	0
166696	7	Sololá	713	San Lucas Tolimán	10	San Lucas Tolimán	12	Diciembre	2023-12-23T00:00:00	2024-11-08T14:00:00	8	Radiación solar	710
166697	7	Sololá	713	San Lucas Tolimán	10	San Lucas Tolimán	12	Diciembre	2023-12-23T00:00:00	2024-11-08T15:00:00	2	Temperatura media	22.1
166698	7	Sololá	713	San Lucas Tolimán	10	San Lucas Tolimán	12	Diciembre	2023-12-23T00:00:00	2024-11-08T15:00:00	4	Temperatura máxima	23
166699	7	Sololá	713	San Lucas Tolimán	10	San Lucas Tolimán	12	Diciembre	2023-12-23T00:00:00	2024-11-08T15:00:00	3	Temperatura mínima	22
166700	7	Sololá	713	San Lucas Tolimán	10	San Lucas Tolimán	12	Diciembre	2023-12-23T00:00:00	2024-11-08T15:00:00	5	Humedad	59
166701	7	Sololá	713	San Lucas Tolimán	10	San Lucas Tolimán	12	Diciembre	2023-12-23T00:00:00	2024-11-08T15:00:00	6	Velocidad del viento	11.3
166702	7	Sololá	713	San Lucas Tolimán	10	San Lucas Tolimán	12	Diciembre	2023-12-23T00:00:00	2024-11-08T15:00:00	7	Dirección del viento	11.27
166703	7	Sololá	713	San Lucas Tolimán	10	San Lucas Tolimán	12	Diciembre	2023-12-23T00:00:00	2024-11-08T15:00:00	1	Precipitación	0
166704	7	Sololá	713	San Lucas Tolimán	10	San Lucas Tolimán	12	Diciembre	2023-12-23T00:00:00	2024-11-08T15:00:00	8	Radiación solar	441
166705	7	Sololá	713	San Lucas Tolimán	10	San Lucas Tolimán	12	Diciembre	2023-12-23T00:00:00	2024-11-08T16:00:00	2	Temperatura media	21.1
166706	7	Sololá	713	San Lucas Tolimán	10	San Lucas Tolimán	12	Diciembre	2023-12-23T00:00:00	2024-11-08T16:00:00	4	Temperatura máxima	22.1
166707	7	Sololá	713	San Lucas Tolimán	10	San Lucas Tolimán	12	Diciembre	2023-12-23T00:00:00	2024-11-08T16:00:00	3	Temperatura mínima	21.1
166708	7	Sololá	713	San Lucas Tolimán	10	San Lucas Tolimán	12	Diciembre	2023-12-23T00:00:00	2024-11-08T16:00:00	5	Humedad	60
166709	7	Sololá	713	San Lucas Tolimán	10	San Lucas Tolimán	12	Diciembre	2023-12-23T00:00:00	2024-11-08T16:00:00	6	Velocidad del viento	9.7
166710	7	Sololá	713	San Lucas Tolimán	10	San Lucas Tolimán	12	Diciembre	2023-12-23T00:00:00	2024-11-08T16:00:00	7	Dirección del viento	9.66
166711	7	Sololá	713	San Lucas Tolimán	10	San Lucas Tolimán	12	Diciembre	2023-12-23T00:00:00	2024-11-08T16:00:00	1	Precipitación	0
166712	7	Sololá	713	San Lucas Tolimán	10	San Lucas Tolimán	12	Diciembre	2023-12-23T00:00:00	2024-11-08T16:00:00	8	Radiación solar	382
166713	7	Sololá	713	San Lucas Tolimán	10	San Lucas Tolimán	12	Diciembre	2023-12-23T00:00:00	2024-11-08T17:00:00	2	Temperatura media	19.6
166714	7	Sololá	713	San Lucas Tolimán	10	San Lucas Tolimán	12	Diciembre	2023-12-23T00:00:00	2024-11-08T17:00:00	4	Temperatura máxima	21.2
166715	7	Sololá	713	San Lucas Tolimán	10	San Lucas Tolimán	12	Diciembre	2023-12-23T00:00:00	2024-11-08T17:00:00	3	Temperatura mínima	19.5
166716	7	Sololá	713	San Lucas Tolimán	10	San Lucas Tolimán	12	Diciembre	2023-12-23T00:00:00	2024-11-08T17:00:00	5	Humedad	62
166717	7	Sololá	713	San Lucas Tolimán	10	San Lucas Tolimán	12	Diciembre	2023-12-23T00:00:00	2024-11-08T17:00:00	6	Velocidad del viento	9.7
166718	7	Sololá	713	San Lucas Tolimán	10	San Lucas Tolimán	12	Diciembre	2023-12-23T00:00:00	2024-11-08T17:00:00	7	Dirección del viento	9.66
166719	7	Sololá	713	San Lucas Tolimán	10	San Lucas Tolimán	12	Diciembre	2023-12-23T00:00:00	2024-11-08T17:00:00	1	Precipitación	0
166720	7	Sololá	713	San Lucas Tolimán	10	San Lucas Tolimán	12	Diciembre	2023-12-23T00:00:00	2024-11-08T17:00:00	8	Radiación solar	102
166721	7	Sololá	713	San Lucas Tolimán	10	San Lucas Tolimán	12	Diciembre	2023-12-23T00:00:00	2024-11-08T18:00:00	2	Temperatura media	19.1
166722	7	Sololá	713	San Lucas Tolimán	10	San Lucas Tolimán	12	Diciembre	2023-12-23T00:00:00	2024-11-08T18:00:00	4	Temperatura máxima	19.6
166723	7	Sololá	713	San Lucas Tolimán	10	San Lucas Tolimán	12	Diciembre	2023-12-23T00:00:00	2024-11-08T18:00:00	3	Temperatura mínima	19
166724	7	Sololá	713	San Lucas Tolimán	10	San Lucas Tolimán	12	Diciembre	2023-12-23T00:00:00	2024-11-08T18:00:00	5	Humedad	60
166725	7	Sololá	713	San Lucas Tolimán	10	San Lucas Tolimán	12	Diciembre	2023-12-23T00:00:00	2024-11-08T18:00:00	6	Velocidad del viento	4.8
166726	7	Sololá	713	San Lucas Tolimán	10	San Lucas Tolimán	12	Diciembre	2023-12-23T00:00:00	2024-11-08T18:00:00	7	Dirección del viento	4.83
166727	7	Sololá	713	San Lucas Tolimán	10	San Lucas Tolimán	12	Diciembre	2023-12-23T00:00:00	2024-11-08T18:00:00	1	Precipitación	0
166728	7	Sololá	713	San Lucas Tolimán	10	San Lucas Tolimán	12	Diciembre	2023-12-23T00:00:00	2024-11-08T18:00:00	8	Radiación solar	14
166729	7	Sololá	713	San Lucas Tolimán	10	San Lucas Tolimán	12	Diciembre	2023-12-23T00:00:00	2024-11-08T19:00:00	2	Temperatura media	18.8
166730	7	Sololá	713	San Lucas Tolimán	10	San Lucas Tolimán	12	Diciembre	2023-12-23T00:00:00	2024-11-08T19:00:00	4	Temperatura máxima	19.2
166731	7	Sololá	713	San Lucas Tolimán	10	San Lucas Tolimán	12	Diciembre	2023-12-23T00:00:00	2024-11-08T19:00:00	3	Temperatura mínima	18.7
166732	7	Sololá	713	San Lucas Tolimán	10	San Lucas Tolimán	12	Diciembre	2023-12-23T00:00:00	2024-11-08T19:00:00	5	Humedad	61
166733	7	Sololá	713	San Lucas Tolimán	10	San Lucas Tolimán	12	Diciembre	2023-12-23T00:00:00	2024-11-08T19:00:00	6	Velocidad del viento	3.2
166734	7	Sololá	713	San Lucas Tolimán	10	San Lucas Tolimán	12	Diciembre	2023-12-23T00:00:00	2024-11-08T19:00:00	7	Dirección del viento	3.22
166735	7	Sololá	713	San Lucas Tolimán	10	San Lucas Tolimán	12	Diciembre	2023-12-23T00:00:00	2024-11-08T19:00:00	1	Precipitación	0
166736	7	Sololá	713	San Lucas Tolimán	10	San Lucas Tolimán	12	Diciembre	2023-12-23T00:00:00	2024-11-08T19:00:00	8	Radiación solar	0
166737	7	Sololá	713	San Lucas Tolimán	10	San Lucas Tolimán	12	Diciembre	2023-12-23T00:00:00	2024-11-08T20:00:00	2	Temperatura media	19.3
166738	7	Sololá	713	San Lucas Tolimán	10	San Lucas Tolimán	12	Diciembre	2023-12-23T00:00:00	2024-11-08T20:00:00	4	Temperatura máxima	19.3
166739	7	Sololá	713	San Lucas Tolimán	10	San Lucas Tolimán	12	Diciembre	2023-12-23T00:00:00	2024-11-08T20:00:00	3	Temperatura mínima	18.4
166740	7	Sololá	713	San Lucas Tolimán	10	San Lucas Tolimán	12	Diciembre	2023-12-23T00:00:00	2024-11-08T20:00:00	5	Humedad	56
166741	7	Sololá	713	San Lucas Tolimán	10	San Lucas Tolimán	12	Diciembre	2023-12-23T00:00:00	2024-11-08T20:00:00	6	Velocidad del viento	1.6
166742	7	Sololá	713	San Lucas Tolimán	10	San Lucas Tolimán	12	Diciembre	2023-12-23T00:00:00	2024-11-08T20:00:00	7	Dirección del viento	1.61
166743	7	Sololá	713	San Lucas Tolimán	10	San Lucas Tolimán	12	Diciembre	2023-12-23T00:00:00	2024-11-08T20:00:00	1	Precipitación	0
166744	7	Sololá	713	San Lucas Tolimán	10	San Lucas Tolimán	12	Diciembre	2023-12-23T00:00:00	2024-11-08T20:00:00	8	Radiación solar	0
166745	7	Sololá	713	San Lucas Tolimán	10	San Lucas Tolimán	12	Diciembre	2023-12-23T00:00:00	2024-11-08T21:00:00	2	Temperatura media	18.4
166746	7	Sololá	713	San Lucas Tolimán	10	San Lucas Tolimán	12	Diciembre	2023-12-23T00:00:00	2024-11-08T21:00:00	4	Temperatura máxima	19.4
166747	7	Sololá	713	San Lucas Tolimán	10	San Lucas Tolimán	12	Diciembre	2023-12-23T00:00:00	2024-11-08T21:00:00	3	Temperatura mínima	18.4
166748	7	Sololá	713	San Lucas Tolimán	10	San Lucas Tolimán	12	Diciembre	2023-12-23T00:00:00	2024-11-08T21:00:00	5	Humedad	57
166749	7	Sololá	713	San Lucas Tolimán	10	San Lucas Tolimán	12	Diciembre	2023-12-23T00:00:00	2024-11-08T21:00:00	6	Velocidad del viento	1.6
166750	7	Sololá	713	San Lucas Tolimán	10	San Lucas Tolimán	12	Diciembre	2023-12-23T00:00:00	2024-11-08T21:00:00	7	Dirección del viento	1.61
166751	7	Sololá	713	San Lucas Tolimán	10	San Lucas Tolimán	12	Diciembre	2023-12-23T00:00:00	2024-11-08T21:00:00	1	Precipitación	0
166752	7	Sololá	713	San Lucas Tolimán	10	San Lucas Tolimán	12	Diciembre	2023-12-23T00:00:00	2024-11-08T21:00:00	8	Radiación solar	0
166753	7	Sololá	713	San Lucas Tolimán	10	San Lucas Tolimán	12	Diciembre	2023-12-23T00:00:00	2024-11-08T22:00:00	2	Temperatura media	17.9
166754	7	Sololá	713	San Lucas Tolimán	10	San Lucas Tolimán	12	Diciembre	2023-12-23T00:00:00	2024-11-08T22:00:00	4	Temperatura máxima	18.4
166755	7	Sololá	713	San Lucas Tolimán	10	San Lucas Tolimán	12	Diciembre	2023-12-23T00:00:00	2024-11-08T22:00:00	3	Temperatura mínima	17.9
166756	7	Sololá	713	San Lucas Tolimán	10	San Lucas Tolimán	12	Diciembre	2023-12-23T00:00:00	2024-11-08T22:00:00	5	Humedad	58
166757	7	Sololá	713	San Lucas Tolimán	10	San Lucas Tolimán	12	Diciembre	2023-12-23T00:00:00	2024-11-08T22:00:00	6	Velocidad del viento	1.6
166758	7	Sololá	713	San Lucas Tolimán	10	San Lucas Tolimán	12	Diciembre	2023-12-23T00:00:00	2024-11-08T22:00:00	7	Dirección del viento	1.61
166759	7	Sololá	713	San Lucas Tolimán	10	San Lucas Tolimán	12	Diciembre	2023-12-23T00:00:00	2024-11-08T22:00:00	1	Precipitación	0
166760	7	Sololá	713	San Lucas Tolimán	10	San Lucas Tolimán	12	Diciembre	2023-12-23T00:00:00	2024-11-08T22:00:00	8	Radiación solar	0
166761	7	Sololá	713	San Lucas Tolimán	10	San Lucas Tolimán	12	Diciembre	2023-12-23T00:00:00	2024-11-08T23:00:00	2	Temperatura media	17.8
166762	7	Sololá	713	San Lucas Tolimán	10	San Lucas Tolimán	12	Diciembre	2023-12-23T00:00:00	2024-11-08T23:00:00	4	Temperatura máxima	17.9
166763	7	Sololá	713	San Lucas Tolimán	10	San Lucas Tolimán	12	Diciembre	2023-12-23T00:00:00	2024-11-08T23:00:00	3	Temperatura mínima	17.6
166764	7	Sololá	713	San Lucas Tolimán	10	San Lucas Tolimán	12	Diciembre	2023-12-23T00:00:00	2024-11-08T23:00:00	5	Humedad	58
166765	7	Sololá	713	San Lucas Tolimán	10	San Lucas Tolimán	12	Diciembre	2023-12-23T00:00:00	2024-11-08T23:00:00	6	Velocidad del viento	3.2
166766	7	Sololá	713	San Lucas Tolimán	10	San Lucas Tolimán	12	Diciembre	2023-12-23T00:00:00	2024-11-08T23:00:00	7	Dirección del viento	3.22
166767	7	Sololá	713	San Lucas Tolimán	10	San Lucas Tolimán	12	Diciembre	2023-12-23T00:00:00	2024-11-08T23:00:00	1	Precipitación	0
166768	7	Sololá	713	San Lucas Tolimán	10	San Lucas Tolimán	12	Diciembre	2023-12-23T00:00:00	2024-11-08T23:00:00	8	Radiación solar	0
166769	7	Sololá	713	San Lucas Tolimán	10	San Lucas Tolimán	12	Diciembre	2023-12-24T00:00:00	2024-11-08T00:00:00	2	Temperatura media	17.8
166770	7	Sololá	713	San Lucas Tolimán	10	San Lucas Tolimán	12	Diciembre	2023-12-24T00:00:00	2024-11-08T00:00:00	4	Temperatura máxima	17.9
166771	7	Sololá	713	San Lucas Tolimán	10	San Lucas Tolimán	12	Diciembre	2023-12-24T00:00:00	2024-11-08T00:00:00	3	Temperatura mínima	17.6
166772	7	Sololá	713	San Lucas Tolimán	10	San Lucas Tolimán	12	Diciembre	2023-12-24T00:00:00	2024-11-08T00:00:00	5	Humedad	58
166773	7	Sololá	713	San Lucas Tolimán	10	San Lucas Tolimán	12	Diciembre	2023-12-24T00:00:00	2024-11-08T00:00:00	6	Velocidad del viento	3.2
166774	7	Sololá	713	San Lucas Tolimán	10	San Lucas Tolimán	12	Diciembre	2023-12-24T00:00:00	2024-11-08T00:00:00	7	Dirección del viento	3.22
166775	7	Sololá	713	San Lucas Tolimán	10	San Lucas Tolimán	12	Diciembre	2023-12-24T00:00:00	2024-11-08T00:00:00	1	Precipitación	0
166776	7	Sololá	713	San Lucas Tolimán	10	San Lucas Tolimán	12	Diciembre	2023-12-24T00:00:00	2024-11-08T00:00:00	8	Radiación solar	0
166777	7	Sololá	713	San Lucas Tolimán	10	San Lucas Tolimán	12	Diciembre	2023-12-24T00:00:00	2024-11-08T01:00:00	2	Temperatura media	16.5
166778	7	Sololá	713	San Lucas Tolimán	10	San Lucas Tolimán	12	Diciembre	2023-12-24T00:00:00	2024-11-08T01:00:00	4	Temperatura máxima	17.8
166779	7	Sololá	713	San Lucas Tolimán	10	San Lucas Tolimán	12	Diciembre	2023-12-24T00:00:00	2024-11-08T01:00:00	3	Temperatura mínima	16.4
166780	7	Sololá	713	San Lucas Tolimán	10	San Lucas Tolimán	12	Diciembre	2023-12-24T00:00:00	2024-11-08T01:00:00	5	Humedad	61
166781	7	Sololá	713	San Lucas Tolimán	10	San Lucas Tolimán	12	Diciembre	2023-12-24T00:00:00	2024-11-08T01:00:00	6	Velocidad del viento	1.6
166782	7	Sololá	713	San Lucas Tolimán	10	San Lucas Tolimán	12	Diciembre	2023-12-24T00:00:00	2024-11-08T01:00:00	7	Dirección del viento	1.61
166783	7	Sololá	713	San Lucas Tolimán	10	San Lucas Tolimán	12	Diciembre	2023-12-24T00:00:00	2024-11-08T01:00:00	1	Precipitación	0
166784	7	Sololá	713	San Lucas Tolimán	10	San Lucas Tolimán	12	Diciembre	2023-12-24T00:00:00	2024-11-08T01:00:00	8	Radiación solar	0
166785	7	Sololá	713	San Lucas Tolimán	10	San Lucas Tolimán	12	Diciembre	2023-12-24T00:00:00	2024-11-08T02:00:00	2	Temperatura media	16.4
166786	7	Sololá	713	San Lucas Tolimán	10	San Lucas Tolimán	12	Diciembre	2023-12-24T00:00:00	2024-11-08T02:00:00	4	Temperatura máxima	17.1
166787	7	Sololá	713	San Lucas Tolimán	10	San Lucas Tolimán	12	Diciembre	2023-12-24T00:00:00	2024-11-08T02:00:00	3	Temperatura mínima	16.4
166788	7	Sololá	713	San Lucas Tolimán	10	San Lucas Tolimán	12	Diciembre	2023-12-24T00:00:00	2024-11-08T02:00:00	5	Humedad	62
166789	7	Sololá	713	San Lucas Tolimán	10	San Lucas Tolimán	12	Diciembre	2023-12-24T00:00:00	2024-11-08T02:00:00	6	Velocidad del viento	1.6
166790	7	Sololá	713	San Lucas Tolimán	10	San Lucas Tolimán	12	Diciembre	2023-12-24T00:00:00	2024-11-08T02:00:00	7	Dirección del viento	1.61
166791	7	Sololá	713	San Lucas Tolimán	10	San Lucas Tolimán	12	Diciembre	2023-12-24T00:00:00	2024-11-08T02:00:00	1	Precipitación	0
166792	7	Sololá	713	San Lucas Tolimán	10	San Lucas Tolimán	12	Diciembre	2023-12-24T00:00:00	2024-11-08T02:00:00	8	Radiación solar	0
166793	7	Sololá	713	San Lucas Tolimán	10	San Lucas Tolimán	12	Diciembre	2023-12-24T00:00:00	2024-11-08T03:00:00	2	Temperatura media	15.7
166794	7	Sololá	713	San Lucas Tolimán	10	San Lucas Tolimán	12	Diciembre	2023-12-24T00:00:00	2024-11-08T03:00:00	4	Temperatura máxima	16.4
166795	7	Sololá	713	San Lucas Tolimán	10	San Lucas Tolimán	12	Diciembre	2023-12-24T00:00:00	2024-11-08T03:00:00	3	Temperatura mínima	15.5
166796	7	Sololá	713	San Lucas Tolimán	10	San Lucas Tolimán	12	Diciembre	2023-12-24T00:00:00	2024-11-08T03:00:00	5	Humedad	61
166797	7	Sololá	713	San Lucas Tolimán	10	San Lucas Tolimán	12	Diciembre	2023-12-24T00:00:00	2024-11-08T03:00:00	6	Velocidad del viento	1.6
166798	7	Sololá	713	San Lucas Tolimán	10	San Lucas Tolimán	12	Diciembre	2023-12-24T00:00:00	2024-11-08T03:00:00	7	Dirección del viento	1.61
166799	7	Sololá	713	San Lucas Tolimán	10	San Lucas Tolimán	12	Diciembre	2023-12-24T00:00:00	2024-11-08T03:00:00	1	Precipitación	0
166800	7	Sololá	713	San Lucas Tolimán	10	San Lucas Tolimán	12	Diciembre	2023-12-24T00:00:00	2024-11-08T03:00:00	8	Radiación solar	0
166801	7	Sololá	713	San Lucas Tolimán	10	San Lucas Tolimán	12	Diciembre	2023-12-24T00:00:00	2024-11-08T04:00:00	2	Temperatura media	15.6
166802	7	Sololá	713	San Lucas Tolimán	10	San Lucas Tolimán	12	Diciembre	2023-12-24T00:00:00	2024-11-08T04:00:00	4	Temperatura máxima	15.7
166803	7	Sololá	713	San Lucas Tolimán	10	San Lucas Tolimán	12	Diciembre	2023-12-24T00:00:00	2024-11-08T04:00:00	3	Temperatura mínima	15.5
166804	7	Sololá	713	San Lucas Tolimán	10	San Lucas Tolimán	12	Diciembre	2023-12-24T00:00:00	2024-11-08T04:00:00	5	Humedad	62
166805	7	Sololá	713	San Lucas Tolimán	10	San Lucas Tolimán	12	Diciembre	2023-12-24T00:00:00	2024-11-08T04:00:00	6	Velocidad del viento	0
166806	7	Sololá	713	San Lucas Tolimán	10	San Lucas Tolimán	12	Diciembre	2023-12-24T00:00:00	2024-11-08T04:00:00	7	Dirección del viento	0
166807	7	Sololá	713	San Lucas Tolimán	10	San Lucas Tolimán	12	Diciembre	2023-12-24T00:00:00	2024-11-08T04:00:00	1	Precipitación	0
166808	7	Sololá	713	San Lucas Tolimán	10	San Lucas Tolimán	12	Diciembre	2023-12-24T00:00:00	2024-11-08T04:00:00	8	Radiación solar	0
166809	7	Sololá	713	San Lucas Tolimán	10	San Lucas Tolimán	12	Diciembre	2023-12-24T00:00:00	2024-11-08T05:00:00	2	Temperatura media	15.4
166810	7	Sololá	713	San Lucas Tolimán	10	San Lucas Tolimán	12	Diciembre	2023-12-24T00:00:00	2024-11-08T05:00:00	4	Temperatura máxima	15.6
166811	7	Sololá	713	San Lucas Tolimán	10	San Lucas Tolimán	12	Diciembre	2023-12-24T00:00:00	2024-11-08T05:00:00	3	Temperatura mínima	15.3
166812	7	Sololá	713	San Lucas Tolimán	10	San Lucas Tolimán	12	Diciembre	2023-12-24T00:00:00	2024-11-08T05:00:00	5	Humedad	61
166813	7	Sololá	713	San Lucas Tolimán	10	San Lucas Tolimán	12	Diciembre	2023-12-24T00:00:00	2024-11-08T05:00:00	6	Velocidad del viento	0
166814	7	Sololá	713	San Lucas Tolimán	10	San Lucas Tolimán	12	Diciembre	2023-12-24T00:00:00	2024-11-08T05:00:00	7	Dirección del viento	0
166815	7	Sololá	713	San Lucas Tolimán	10	San Lucas Tolimán	12	Diciembre	2023-12-24T00:00:00	2024-11-08T05:00:00	1	Precipitación	0
166816	7	Sololá	713	San Lucas Tolimán	10	San Lucas Tolimán	12	Diciembre	2023-12-24T00:00:00	2024-11-08T05:00:00	8	Radiación solar	0
166817	7	Sololá	713	San Lucas Tolimán	10	San Lucas Tolimán	12	Diciembre	2023-12-24T00:00:00	2024-11-08T06:00:00	2	Temperatura media	15
166818	7	Sololá	713	San Lucas Tolimán	10	San Lucas Tolimán	12	Diciembre	2023-12-24T00:00:00	2024-11-08T06:00:00	4	Temperatura máxima	15.4
166819	7	Sololá	713	San Lucas Tolimán	10	San Lucas Tolimán	12	Diciembre	2023-12-24T00:00:00	2024-11-08T06:00:00	3	Temperatura mínima	15
166820	7	Sololá	713	San Lucas Tolimán	10	San Lucas Tolimán	12	Diciembre	2023-12-24T00:00:00	2024-11-08T06:00:00	5	Humedad	61
166821	7	Sololá	713	San Lucas Tolimán	10	San Lucas Tolimán	12	Diciembre	2023-12-24T00:00:00	2024-11-08T06:00:00	6	Velocidad del viento	0
166822	7	Sololá	713	San Lucas Tolimán	10	San Lucas Tolimán	12	Diciembre	2023-12-24T00:00:00	2024-11-08T06:00:00	7	Dirección del viento	0
166823	7	Sololá	713	San Lucas Tolimán	10	San Lucas Tolimán	12	Diciembre	2023-12-24T00:00:00	2024-11-08T06:00:00	1	Precipitación	0
166824	7	Sololá	713	San Lucas Tolimán	10	San Lucas Tolimán	12	Diciembre	2023-12-24T00:00:00	2024-11-08T06:00:00	8	Radiación solar	0
166825	7	Sololá	713	San Lucas Tolimán	10	San Lucas Tolimán	12	Diciembre	2023-12-24T00:00:00	2024-11-08T07:00:00	2	Temperatura media	14.6
166826	7	Sololá	713	San Lucas Tolimán	10	San Lucas Tolimán	12	Diciembre	2023-12-24T00:00:00	2024-11-08T07:00:00	4	Temperatura máxima	15.1
166827	7	Sololá	713	San Lucas Tolimán	10	San Lucas Tolimán	12	Diciembre	2023-12-24T00:00:00	2024-11-08T07:00:00	3	Temperatura mínima	14.6
166828	7	Sololá	713	San Lucas Tolimán	10	San Lucas Tolimán	12	Diciembre	2023-12-24T00:00:00	2024-11-08T07:00:00	5	Humedad	62
166829	7	Sololá	713	San Lucas Tolimán	10	San Lucas Tolimán	12	Diciembre	2023-12-24T00:00:00	2024-11-08T07:00:00	6	Velocidad del viento	0
166830	7	Sololá	713	San Lucas Tolimán	10	San Lucas Tolimán	12	Diciembre	2023-12-24T00:00:00	2024-11-08T07:00:00	7	Dirección del viento	0
166831	7	Sololá	713	San Lucas Tolimán	10	San Lucas Tolimán	12	Diciembre	2023-12-24T00:00:00	2024-11-08T07:00:00	1	Precipitación	0
166832	7	Sololá	713	San Lucas Tolimán	10	San Lucas Tolimán	12	Diciembre	2023-12-24T00:00:00	2024-11-08T07:00:00	8	Radiación solar	9
166833	7	Sololá	713	San Lucas Tolimán	10	San Lucas Tolimán	12	Diciembre	2023-12-24T00:00:00	2024-11-08T08:00:00	2	Temperatura media	16.1
166834	7	Sololá	713	San Lucas Tolimán	10	San Lucas Tolimán	12	Diciembre	2023-12-24T00:00:00	2024-11-08T08:00:00	4	Temperatura máxima	16.1
166835	7	Sololá	713	San Lucas Tolimán	10	San Lucas Tolimán	12	Diciembre	2023-12-24T00:00:00	2024-11-08T08:00:00	3	Temperatura mínima	14.6
166836	7	Sololá	713	San Lucas Tolimán	10	San Lucas Tolimán	12	Diciembre	2023-12-24T00:00:00	2024-11-08T08:00:00	5	Humedad	60
166837	7	Sololá	713	San Lucas Tolimán	10	San Lucas Tolimán	12	Diciembre	2023-12-24T00:00:00	2024-11-08T08:00:00	6	Velocidad del viento	0
166838	7	Sololá	713	San Lucas Tolimán	10	San Lucas Tolimán	12	Diciembre	2023-12-24T00:00:00	2024-11-08T08:00:00	7	Dirección del viento	0
166839	7	Sololá	713	San Lucas Tolimán	10	San Lucas Tolimán	12	Diciembre	2023-12-24T00:00:00	2024-11-08T08:00:00	1	Precipitación	0
166840	7	Sololá	713	San Lucas Tolimán	10	San Lucas Tolimán	12	Diciembre	2023-12-24T00:00:00	2024-11-08T08:00:00	8	Radiación solar	39
166841	7	Sololá	713	San Lucas Tolimán	10	San Lucas Tolimán	12	Diciembre	2023-12-24T00:00:00	2024-11-08T09:00:00	2	Temperatura media	18.8
166842	7	Sololá	713	San Lucas Tolimán	10	San Lucas Tolimán	12	Diciembre	2023-12-24T00:00:00	2024-11-08T09:00:00	4	Temperatura máxima	18.9
166843	7	Sololá	713	San Lucas Tolimán	10	San Lucas Tolimán	12	Diciembre	2023-12-24T00:00:00	2024-11-08T09:00:00	3	Temperatura mínima	16.1
166844	7	Sololá	713	San Lucas Tolimán	10	San Lucas Tolimán	12	Diciembre	2023-12-24T00:00:00	2024-11-08T09:00:00	5	Humedad	56
166845	7	Sololá	713	San Lucas Tolimán	10	San Lucas Tolimán	12	Diciembre	2023-12-24T00:00:00	2024-11-08T09:00:00	6	Velocidad del viento	3.2
166846	7	Sololá	713	San Lucas Tolimán	10	San Lucas Tolimán	12	Diciembre	2023-12-24T00:00:00	2024-11-08T09:00:00	7	Dirección del viento	3.22
166847	7	Sololá	713	San Lucas Tolimán	10	San Lucas Tolimán	12	Diciembre	2023-12-24T00:00:00	2024-11-08T09:00:00	1	Precipitación	0
166848	7	Sololá	713	San Lucas Tolimán	10	San Lucas Tolimán	12	Diciembre	2023-12-24T00:00:00	2024-11-08T09:00:00	8	Radiación solar	260
166849	7	Sololá	713	San Lucas Tolimán	10	San Lucas Tolimán	12	Diciembre	2023-12-24T00:00:00	2024-11-08T10:00:00	2	Temperatura media	21.8
166850	7	Sololá	713	San Lucas Tolimán	10	San Lucas Tolimán	12	Diciembre	2023-12-24T00:00:00	2024-11-08T10:00:00	4	Temperatura máxima	21.9
166851	7	Sololá	713	San Lucas Tolimán	10	San Lucas Tolimán	12	Diciembre	2023-12-24T00:00:00	2024-11-08T10:00:00	3	Temperatura mínima	18.1
166852	7	Sololá	713	San Lucas Tolimán	10	San Lucas Tolimán	12	Diciembre	2023-12-24T00:00:00	2024-11-08T10:00:00	5	Humedad	54
166853	7	Sololá	713	San Lucas Tolimán	10	San Lucas Tolimán	12	Diciembre	2023-12-24T00:00:00	2024-11-08T10:00:00	6	Velocidad del viento	3.2
166854	7	Sololá	713	San Lucas Tolimán	10	San Lucas Tolimán	12	Diciembre	2023-12-24T00:00:00	2024-11-08T10:00:00	7	Dirección del viento	3.22
166855	7	Sololá	713	San Lucas Tolimán	10	San Lucas Tolimán	12	Diciembre	2023-12-24T00:00:00	2024-11-08T10:00:00	1	Precipitación	0
166856	7	Sololá	713	San Lucas Tolimán	10	San Lucas Tolimán	12	Diciembre	2023-12-24T00:00:00	2024-11-08T10:00:00	8	Radiación solar	454
166857	7	Sololá	713	San Lucas Tolimán	10	San Lucas Tolimán	12	Diciembre	2023-12-24T00:00:00	2024-11-08T11:00:00	2	Temperatura media	22.2
166858	7	Sololá	713	San Lucas Tolimán	10	San Lucas Tolimán	12	Diciembre	2023-12-24T00:00:00	2024-11-08T11:00:00	4	Temperatura máxima	22.3
166859	7	Sololá	713	San Lucas Tolimán	10	San Lucas Tolimán	12	Diciembre	2023-12-24T00:00:00	2024-11-08T11:00:00	3	Temperatura mínima	21.7
166860	7	Sololá	713	San Lucas Tolimán	10	San Lucas Tolimán	12	Diciembre	2023-12-24T00:00:00	2024-11-08T11:00:00	5	Humedad	54
166861	7	Sololá	713	San Lucas Tolimán	10	San Lucas Tolimán	12	Diciembre	2023-12-24T00:00:00	2024-11-08T11:00:00	6	Velocidad del viento	8
166862	7	Sololá	713	San Lucas Tolimán	10	San Lucas Tolimán	12	Diciembre	2023-12-24T00:00:00	2024-11-08T11:00:00	7	Dirección del viento	8.05
166863	7	Sololá	713	San Lucas Tolimán	10	San Lucas Tolimán	12	Diciembre	2023-12-24T00:00:00	2024-11-08T11:00:00	1	Precipitación	0
166864	7	Sololá	713	San Lucas Tolimán	10	San Lucas Tolimán	12	Diciembre	2023-12-24T00:00:00	2024-11-08T11:00:00	8	Radiación solar	759
166865	7	Sololá	713	San Lucas Tolimán	10	San Lucas Tolimán	12	Diciembre	2023-12-24T00:00:00	2024-11-08T12:00:00	2	Temperatura media	22.4
166866	7	Sololá	713	San Lucas Tolimán	10	San Lucas Tolimán	12	Diciembre	2023-12-24T00:00:00	2024-11-08T12:00:00	4	Temperatura máxima	22.9
166867	7	Sololá	713	San Lucas Tolimán	10	San Lucas Tolimán	12	Diciembre	2023-12-24T00:00:00	2024-11-08T12:00:00	3	Temperatura mínima	22.1
166868	7	Sololá	713	San Lucas Tolimán	10	San Lucas Tolimán	12	Diciembre	2023-12-24T00:00:00	2024-11-08T12:00:00	5	Humedad	55
166869	7	Sololá	713	San Lucas Tolimán	10	San Lucas Tolimán	12	Diciembre	2023-12-24T00:00:00	2024-11-08T12:00:00	6	Velocidad del viento	9.7
166870	7	Sololá	713	San Lucas Tolimán	10	San Lucas Tolimán	12	Diciembre	2023-12-24T00:00:00	2024-11-08T12:00:00	7	Dirección del viento	9.66
166871	7	Sololá	713	San Lucas Tolimán	10	San Lucas Tolimán	12	Diciembre	2023-12-24T00:00:00	2024-11-08T12:00:00	1	Precipitación	0
166872	7	Sololá	713	San Lucas Tolimán	10	San Lucas Tolimán	12	Diciembre	2023-12-24T00:00:00	2024-11-08T12:00:00	8	Radiación solar	909
166873	7	Sololá	713	San Lucas Tolimán	10	San Lucas Tolimán	12	Diciembre	2023-12-24T00:00:00	2024-11-08T13:00:00	2	Temperatura media	21.3
166874	7	Sololá	713	San Lucas Tolimán	10	San Lucas Tolimán	12	Diciembre	2023-12-24T00:00:00	2024-11-08T13:00:00	4	Temperatura máxima	22.5
166875	7	Sololá	713	San Lucas Tolimán	10	San Lucas Tolimán	12	Diciembre	2023-12-24T00:00:00	2024-11-08T13:00:00	3	Temperatura mínima	21.3
166876	7	Sololá	713	San Lucas Tolimán	10	San Lucas Tolimán	12	Diciembre	2023-12-24T00:00:00	2024-11-08T13:00:00	5	Humedad	60
166877	7	Sololá	713	San Lucas Tolimán	10	San Lucas Tolimán	12	Diciembre	2023-12-24T00:00:00	2024-11-08T13:00:00	6	Velocidad del viento	9.7
166878	7	Sololá	713	San Lucas Tolimán	10	San Lucas Tolimán	12	Diciembre	2023-12-24T00:00:00	2024-11-08T13:00:00	7	Dirección del viento	9.66
166879	7	Sololá	713	San Lucas Tolimán	10	San Lucas Tolimán	12	Diciembre	2023-12-24T00:00:00	2024-11-08T13:00:00	1	Precipitación	0
166880	7	Sololá	713	San Lucas Tolimán	10	San Lucas Tolimán	12	Diciembre	2023-12-24T00:00:00	2024-11-08T13:00:00	8	Radiación solar	588
166881	7	Sololá	713	San Lucas Tolimán	10	San Lucas Tolimán	12	Diciembre	2023-12-24T00:00:00	2024-11-08T14:00:00	2	Temperatura media	20.6
166882	7	Sololá	713	San Lucas Tolimán	10	San Lucas Tolimán	12	Diciembre	2023-12-24T00:00:00	2024-11-08T14:00:00	4	Temperatura máxima	21.7
166883	7	Sololá	713	San Lucas Tolimán	10	San Lucas Tolimán	12	Diciembre	2023-12-24T00:00:00	2024-11-08T14:00:00	3	Temperatura mínima	20.6
166884	7	Sololá	713	San Lucas Tolimán	10	San Lucas Tolimán	12	Diciembre	2023-12-24T00:00:00	2024-11-08T14:00:00	5	Humedad	61
166885	7	Sololá	713	San Lucas Tolimán	10	San Lucas Tolimán	12	Diciembre	2023-12-24T00:00:00	2024-11-08T14:00:00	6	Velocidad del viento	8
166886	7	Sololá	713	San Lucas Tolimán	10	San Lucas Tolimán	12	Diciembre	2023-12-24T00:00:00	2024-11-08T14:00:00	7	Dirección del viento	8.05
166887	7	Sololá	713	San Lucas Tolimán	10	San Lucas Tolimán	12	Diciembre	2023-12-24T00:00:00	2024-11-08T14:00:00	1	Precipitación	0
166888	7	Sololá	713	San Lucas Tolimán	10	San Lucas Tolimán	12	Diciembre	2023-12-24T00:00:00	2024-11-08T14:00:00	8	Radiación solar	216
166889	7	Sololá	713	San Lucas Tolimán	10	San Lucas Tolimán	12	Diciembre	2023-12-24T00:00:00	2024-11-08T15:00:00	2	Temperatura media	21.2
166890	7	Sololá	713	San Lucas Tolimán	10	San Lucas Tolimán	12	Diciembre	2023-12-24T00:00:00	2024-11-08T15:00:00	4	Temperatura máxima	21.7
166891	7	Sololá	713	San Lucas Tolimán	10	San Lucas Tolimán	12	Diciembre	2023-12-24T00:00:00	2024-11-08T15:00:00	3	Temperatura mínima	20.5
166892	7	Sololá	713	San Lucas Tolimán	10	San Lucas Tolimán	12	Diciembre	2023-12-24T00:00:00	2024-11-08T15:00:00	5	Humedad	59
166893	7	Sololá	713	San Lucas Tolimán	10	San Lucas Tolimán	12	Diciembre	2023-12-24T00:00:00	2024-11-08T15:00:00	6	Velocidad del viento	8
166894	7	Sololá	713	San Lucas Tolimán	10	San Lucas Tolimán	12	Diciembre	2023-12-24T00:00:00	2024-11-08T15:00:00	7	Dirección del viento	8.05
166895	7	Sololá	713	San Lucas Tolimán	10	San Lucas Tolimán	12	Diciembre	2023-12-24T00:00:00	2024-11-08T15:00:00	1	Precipitación	0
166896	7	Sololá	713	San Lucas Tolimán	10	San Lucas Tolimán	12	Diciembre	2023-12-24T00:00:00	2024-11-08T15:00:00	8	Radiación solar	312
166897	7	Sololá	713	San Lucas Tolimán	10	San Lucas Tolimán	12	Diciembre	2023-12-24T00:00:00	2024-11-08T16:00:00	2	Temperatura media	21.7
166898	7	Sololá	713	San Lucas Tolimán	10	San Lucas Tolimán	12	Diciembre	2023-12-24T00:00:00	2024-11-08T16:00:00	4	Temperatura máxima	22.1
166899	7	Sololá	713	San Lucas Tolimán	10	San Lucas Tolimán	12	Diciembre	2023-12-24T00:00:00	2024-11-08T16:00:00	3	Temperatura mínima	21.1
166900	7	Sololá	713	San Lucas Tolimán	10	San Lucas Tolimán	12	Diciembre	2023-12-24T00:00:00	2024-11-08T16:00:00	5	Humedad	57
166901	7	Sololá	713	San Lucas Tolimán	10	San Lucas Tolimán	12	Diciembre	2023-12-24T00:00:00	2024-11-08T16:00:00	6	Velocidad del viento	9.7
166902	7	Sololá	713	San Lucas Tolimán	10	San Lucas Tolimán	12	Diciembre	2023-12-24T00:00:00	2024-11-08T16:00:00	7	Dirección del viento	9.66
166903	7	Sololá	713	San Lucas Tolimán	10	San Lucas Tolimán	12	Diciembre	2023-12-24T00:00:00	2024-11-08T16:00:00	1	Precipitación	0
166904	7	Sololá	713	San Lucas Tolimán	10	San Lucas Tolimán	12	Diciembre	2023-12-24T00:00:00	2024-11-08T16:00:00	8	Radiación solar	453
166905	7	Sololá	713	San Lucas Tolimán	10	San Lucas Tolimán	12	Diciembre	2023-12-24T00:00:00	2024-11-08T17:00:00	2	Temperatura media	19.7
166906	7	Sololá	713	San Lucas Tolimán	10	San Lucas Tolimán	12	Diciembre	2023-12-24T00:00:00	2024-11-08T17:00:00	4	Temperatura máxima	21.8
166907	7	Sololá	713	San Lucas Tolimán	10	San Lucas Tolimán	12	Diciembre	2023-12-24T00:00:00	2024-11-08T17:00:00	3	Temperatura mínima	19.7
166908	7	Sololá	713	San Lucas Tolimán	10	San Lucas Tolimán	12	Diciembre	2023-12-24T00:00:00	2024-11-08T17:00:00	5	Humedad	61
166909	7	Sololá	713	San Lucas Tolimán	10	San Lucas Tolimán	12	Diciembre	2023-12-24T00:00:00	2024-11-08T17:00:00	6	Velocidad del viento	9.7
166910	7	Sololá	713	San Lucas Tolimán	10	San Lucas Tolimán	12	Diciembre	2023-12-24T00:00:00	2024-11-08T17:00:00	7	Dirección del viento	9.66
166911	7	Sololá	713	San Lucas Tolimán	10	San Lucas Tolimán	12	Diciembre	2023-12-24T00:00:00	2024-11-08T17:00:00	1	Precipitación	0
166912	7	Sololá	713	San Lucas Tolimán	10	San Lucas Tolimán	12	Diciembre	2023-12-24T00:00:00	2024-11-08T17:00:00	8	Radiación solar	124
166913	7	Sololá	713	San Lucas Tolimán	10	San Lucas Tolimán	12	Diciembre	2023-12-24T00:00:00	2024-11-08T18:00:00	2	Temperatura media	18.6
166914	7	Sololá	713	San Lucas Tolimán	10	San Lucas Tolimán	12	Diciembre	2023-12-24T00:00:00	2024-11-08T18:00:00	4	Temperatura máxima	19.7
166915	7	Sololá	713	San Lucas Tolimán	10	San Lucas Tolimán	12	Diciembre	2023-12-24T00:00:00	2024-11-08T18:00:00	3	Temperatura mínima	18.6
166916	7	Sololá	713	San Lucas Tolimán	10	San Lucas Tolimán	12	Diciembre	2023-12-24T00:00:00	2024-11-08T18:00:00	5	Humedad	61
166917	7	Sololá	713	San Lucas Tolimán	10	San Lucas Tolimán	12	Diciembre	2023-12-24T00:00:00	2024-11-08T18:00:00	6	Velocidad del viento	6.4
166918	7	Sololá	713	San Lucas Tolimán	10	San Lucas Tolimán	12	Diciembre	2023-12-24T00:00:00	2024-11-08T18:00:00	7	Dirección del viento	6.44
166919	7	Sololá	713	San Lucas Tolimán	10	San Lucas Tolimán	12	Diciembre	2023-12-24T00:00:00	2024-11-08T18:00:00	1	Precipitación	0
166920	7	Sololá	713	San Lucas Tolimán	10	San Lucas Tolimán	12	Diciembre	2023-12-24T00:00:00	2024-11-08T18:00:00	8	Radiación solar	12
166921	7	Sololá	713	San Lucas Tolimán	10	San Lucas Tolimán	12	Diciembre	2023-12-24T00:00:00	2024-11-08T19:00:00	2	Temperatura media	17.8
166922	7	Sololá	713	San Lucas Tolimán	10	San Lucas Tolimán	12	Diciembre	2023-12-24T00:00:00	2024-11-08T19:00:00	4	Temperatura máxima	18.6
166923	7	Sololá	713	San Lucas Tolimán	10	San Lucas Tolimán	12	Diciembre	2023-12-24T00:00:00	2024-11-08T19:00:00	3	Temperatura mínima	17.7
166924	7	Sololá	713	San Lucas Tolimán	10	San Lucas Tolimán	12	Diciembre	2023-12-24T00:00:00	2024-11-08T19:00:00	5	Humedad	61
166925	7	Sololá	713	San Lucas Tolimán	10	San Lucas Tolimán	12	Diciembre	2023-12-24T00:00:00	2024-11-08T19:00:00	6	Velocidad del viento	3.2
166926	7	Sololá	713	San Lucas Tolimán	10	San Lucas Tolimán	12	Diciembre	2023-12-24T00:00:00	2024-11-08T19:00:00	7	Dirección del viento	3.22
166927	7	Sololá	713	San Lucas Tolimán	10	San Lucas Tolimán	12	Diciembre	2023-12-24T00:00:00	2024-11-08T19:00:00	1	Precipitación	0
166928	7	Sololá	713	San Lucas Tolimán	10	San Lucas Tolimán	12	Diciembre	2023-12-24T00:00:00	2024-11-08T19:00:00	8	Radiación solar	0
166929	7	Sololá	713	San Lucas Tolimán	10	San Lucas Tolimán	12	Diciembre	2023-12-24T00:00:00	2024-11-08T20:00:00	2	Temperatura media	17.3
166930	7	Sololá	713	San Lucas Tolimán	10	San Lucas Tolimán	12	Diciembre	2023-12-24T00:00:00	2024-11-08T20:00:00	4	Temperatura máxima	17.8
166931	7	Sololá	713	San Lucas Tolimán	10	San Lucas Tolimán	12	Diciembre	2023-12-24T00:00:00	2024-11-08T20:00:00	3	Temperatura mínima	16.9
166932	7	Sololá	713	San Lucas Tolimán	10	San Lucas Tolimán	12	Diciembre	2023-12-24T00:00:00	2024-11-08T20:00:00	5	Humedad	60
166933	7	Sololá	713	San Lucas Tolimán	10	San Lucas Tolimán	12	Diciembre	2023-12-24T00:00:00	2024-11-08T20:00:00	6	Velocidad del viento	3.2
166934	7	Sololá	713	San Lucas Tolimán	10	San Lucas Tolimán	12	Diciembre	2023-12-24T00:00:00	2024-11-08T20:00:00	7	Dirección del viento	3.22
166935	7	Sololá	713	San Lucas Tolimán	10	San Lucas Tolimán	12	Diciembre	2023-12-24T00:00:00	2024-11-08T20:00:00	1	Precipitación	0
166936	7	Sololá	713	San Lucas Tolimán	10	San Lucas Tolimán	12	Diciembre	2023-12-24T00:00:00	2024-11-08T20:00:00	8	Radiación solar	0
166937	7	Sololá	713	San Lucas Tolimán	10	San Lucas Tolimán	12	Diciembre	2023-12-24T00:00:00	2024-11-08T21:00:00	2	Temperatura media	16.1
166938	7	Sololá	713	San Lucas Tolimán	10	San Lucas Tolimán	12	Diciembre	2023-12-24T00:00:00	2024-11-08T21:00:00	4	Temperatura máxima	17.4
166939	7	Sololá	713	San Lucas Tolimán	10	San Lucas Tolimán	12	Diciembre	2023-12-24T00:00:00	2024-11-08T21:00:00	3	Temperatura mínima	16.1
166940	7	Sololá	713	San Lucas Tolimán	10	San Lucas Tolimán	12	Diciembre	2023-12-24T00:00:00	2024-11-08T21:00:00	5	Humedad	58
166941	7	Sololá	713	San Lucas Tolimán	10	San Lucas Tolimán	12	Diciembre	2023-12-24T00:00:00	2024-11-08T21:00:00	6	Velocidad del viento	1.6
166942	7	Sololá	713	San Lucas Tolimán	10	San Lucas Tolimán	12	Diciembre	2023-12-24T00:00:00	2024-11-08T21:00:00	7	Dirección del viento	1.61
166943	7	Sololá	713	San Lucas Tolimán	10	San Lucas Tolimán	12	Diciembre	2023-12-24T00:00:00	2024-11-08T21:00:00	1	Precipitación	0
166944	7	Sololá	713	San Lucas Tolimán	10	San Lucas Tolimán	12	Diciembre	2023-12-24T00:00:00	2024-11-08T21:00:00	8	Radiación solar	0
166945	7	Sololá	713	San Lucas Tolimán	10	San Lucas Tolimán	12	Diciembre	2023-12-24T00:00:00	2024-11-08T22:00:00	2	Temperatura media	16.8
166946	7	Sololá	713	San Lucas Tolimán	10	San Lucas Tolimán	12	Diciembre	2023-12-24T00:00:00	2024-11-08T22:00:00	4	Temperatura máxima	16.8
166947	7	Sololá	713	San Lucas Tolimán	10	San Lucas Tolimán	12	Diciembre	2023-12-24T00:00:00	2024-11-08T22:00:00	3	Temperatura mínima	16
166948	7	Sololá	713	San Lucas Tolimán	10	San Lucas Tolimán	12	Diciembre	2023-12-24T00:00:00	2024-11-08T22:00:00	5	Humedad	60
166949	7	Sololá	713	San Lucas Tolimán	10	San Lucas Tolimán	12	Diciembre	2023-12-24T00:00:00	2024-11-08T22:00:00	6	Velocidad del viento	1.6
166950	7	Sololá	713	San Lucas Tolimán	10	San Lucas Tolimán	12	Diciembre	2023-12-24T00:00:00	2024-11-08T22:00:00	7	Dirección del viento	1.61
166951	7	Sololá	713	San Lucas Tolimán	10	San Lucas Tolimán	12	Diciembre	2023-12-24T00:00:00	2024-11-08T22:00:00	1	Precipitación	0
166952	7	Sololá	713	San Lucas Tolimán	10	San Lucas Tolimán	12	Diciembre	2023-12-24T00:00:00	2024-11-08T22:00:00	8	Radiación solar	0
166953	7	Sololá	713	San Lucas Tolimán	10	San Lucas Tolimán	12	Diciembre	2023-12-24T00:00:00	2024-11-08T23:00:00	2	Temperatura media	16.2
166954	7	Sololá	713	San Lucas Tolimán	10	San Lucas Tolimán	12	Diciembre	2023-12-24T00:00:00	2024-11-08T23:00:00	4	Temperatura máxima	16.8
166955	7	Sololá	713	San Lucas Tolimán	10	San Lucas Tolimán	12	Diciembre	2023-12-24T00:00:00	2024-11-08T23:00:00	3	Temperatura mínima	16.2
166956	7	Sololá	713	San Lucas Tolimán	10	San Lucas Tolimán	12	Diciembre	2023-12-24T00:00:00	2024-11-08T23:00:00	5	Humedad	60
166957	7	Sololá	713	San Lucas Tolimán	10	San Lucas Tolimán	12	Diciembre	2023-12-24T00:00:00	2024-11-08T23:00:00	6	Velocidad del viento	0
166958	7	Sololá	713	San Lucas Tolimán	10	San Lucas Tolimán	12	Diciembre	2023-12-24T00:00:00	2024-11-08T23:00:00	7	Dirección del viento	0
166959	7	Sololá	713	San Lucas Tolimán	10	San Lucas Tolimán	12	Diciembre	2023-12-24T00:00:00	2024-11-08T23:00:00	1	Precipitación	0
166960	7	Sololá	713	San Lucas Tolimán	10	San Lucas Tolimán	12	Diciembre	2023-12-24T00:00:00	2024-11-08T23:00:00	8	Radiación solar	0
166961	7	Sololá	713	San Lucas Tolimán	10	San Lucas Tolimán	12	Diciembre	2023-12-25T00:00:00	2024-11-08T00:00:00	2	Temperatura media	15.4
166962	7	Sololá	713	San Lucas Tolimán	10	San Lucas Tolimán	12	Diciembre	2023-12-25T00:00:00	2024-11-08T00:00:00	4	Temperatura máxima	16.2
166963	7	Sololá	713	San Lucas Tolimán	10	San Lucas Tolimán	12	Diciembre	2023-12-25T00:00:00	2024-11-08T00:00:00	3	Temperatura mínima	15.4
166964	7	Sololá	713	San Lucas Tolimán	10	San Lucas Tolimán	12	Diciembre	2023-12-25T00:00:00	2024-11-08T00:00:00	5	Humedad	59
166965	7	Sololá	713	San Lucas Tolimán	10	San Lucas Tolimán	12	Diciembre	2023-12-25T00:00:00	2024-11-08T00:00:00	6	Velocidad del viento	0
166966	7	Sololá	713	San Lucas Tolimán	10	San Lucas Tolimán	12	Diciembre	2023-12-25T00:00:00	2024-11-08T00:00:00	7	Dirección del viento	0
166967	7	Sololá	713	San Lucas Tolimán	10	San Lucas Tolimán	12	Diciembre	2023-12-25T00:00:00	2024-11-08T00:00:00	1	Precipitación	0
166968	7	Sololá	713	San Lucas Tolimán	10	San Lucas Tolimán	12	Diciembre	2023-12-25T00:00:00	2024-11-08T00:00:00	8	Radiación solar	0
166969	7	Sololá	713	San Lucas Tolimán	10	San Lucas Tolimán	12	Diciembre	2023-12-25T00:00:00	2024-11-08T01:00:00	2	Temperatura media	15
166970	7	Sololá	713	San Lucas Tolimán	10	San Lucas Tolimán	12	Diciembre	2023-12-25T00:00:00	2024-11-08T01:00:00	4	Temperatura máxima	15.4
166971	7	Sololá	713	San Lucas Tolimán	10	San Lucas Tolimán	12	Diciembre	2023-12-25T00:00:00	2024-11-08T01:00:00	3	Temperatura mínima	15
166972	7	Sololá	713	San Lucas Tolimán	10	San Lucas Tolimán	12	Diciembre	2023-12-25T00:00:00	2024-11-08T01:00:00	5	Humedad	60
166973	7	Sololá	713	San Lucas Tolimán	10	San Lucas Tolimán	12	Diciembre	2023-12-25T00:00:00	2024-11-08T01:00:00	6	Velocidad del viento	0
166974	7	Sololá	713	San Lucas Tolimán	10	San Lucas Tolimán	12	Diciembre	2023-12-25T00:00:00	2024-11-08T01:00:00	7	Dirección del viento	0
166975	7	Sololá	713	San Lucas Tolimán	10	San Lucas Tolimán	12	Diciembre	2023-12-25T00:00:00	2024-11-08T01:00:00	1	Precipitación	0
166976	7	Sololá	713	San Lucas Tolimán	10	San Lucas Tolimán	12	Diciembre	2023-12-25T00:00:00	2024-11-08T01:00:00	8	Radiación solar	0
166977	7	Sololá	713	San Lucas Tolimán	10	San Lucas Tolimán	12	Diciembre	2023-12-25T00:00:00	2024-11-08T02:00:00	2	Temperatura media	14.1
166978	7	Sololá	713	San Lucas Tolimán	10	San Lucas Tolimán	12	Diciembre	2023-12-25T00:00:00	2024-11-08T02:00:00	4	Temperatura máxima	15
166979	7	Sololá	713	San Lucas Tolimán	10	San Lucas Tolimán	12	Diciembre	2023-12-25T00:00:00	2024-11-08T02:00:00	3	Temperatura mínima	14.1
166980	7	Sololá	713	San Lucas Tolimán	10	San Lucas Tolimán	12	Diciembre	2023-12-25T00:00:00	2024-11-08T02:00:00	5	Humedad	60
166981	7	Sololá	713	San Lucas Tolimán	10	San Lucas Tolimán	12	Diciembre	2023-12-25T00:00:00	2024-11-08T02:00:00	6	Velocidad del viento	0
166982	7	Sololá	713	San Lucas Tolimán	10	San Lucas Tolimán	12	Diciembre	2023-12-25T00:00:00	2024-11-08T02:00:00	7	Dirección del viento	0
166983	7	Sololá	713	San Lucas Tolimán	10	San Lucas Tolimán	12	Diciembre	2023-12-25T00:00:00	2024-11-08T02:00:00	1	Precipitación	0
166984	7	Sololá	713	San Lucas Tolimán	10	San Lucas Tolimán	12	Diciembre	2023-12-25T00:00:00	2024-11-08T02:00:00	8	Radiación solar	0
166985	7	Sololá	713	San Lucas Tolimán	10	San Lucas Tolimán	12	Diciembre	2023-12-25T00:00:00	2024-11-08T03:00:00	2	Temperatura media	13.9
166986	7	Sololá	713	San Lucas Tolimán	10	San Lucas Tolimán	12	Diciembre	2023-12-25T00:00:00	2024-11-08T03:00:00	4	Temperatura máxima	14.1
166987	7	Sololá	713	San Lucas Tolimán	10	San Lucas Tolimán	12	Diciembre	2023-12-25T00:00:00	2024-11-08T03:00:00	3	Temperatura mínima	13.4
166988	7	Sololá	713	San Lucas Tolimán	10	San Lucas Tolimán	12	Diciembre	2023-12-25T00:00:00	2024-11-08T03:00:00	5	Humedad	61
166989	7	Sololá	713	San Lucas Tolimán	10	San Lucas Tolimán	12	Diciembre	2023-12-25T00:00:00	2024-11-08T03:00:00	6	Velocidad del viento	1.6
166990	7	Sololá	713	San Lucas Tolimán	10	San Lucas Tolimán	12	Diciembre	2023-12-25T00:00:00	2024-11-08T03:00:00	7	Dirección del viento	1.61
166991	7	Sololá	713	San Lucas Tolimán	10	San Lucas Tolimán	12	Diciembre	2023-12-25T00:00:00	2024-11-08T03:00:00	1	Precipitación	0
166992	7	Sololá	713	San Lucas Tolimán	10	San Lucas Tolimán	12	Diciembre	2023-12-25T00:00:00	2024-11-08T03:00:00	8	Radiación solar	0
166993	7	Sololá	713	San Lucas Tolimán	10	San Lucas Tolimán	12	Diciembre	2023-12-25T00:00:00	2024-11-08T04:00:00	2	Temperatura media	14.7
166994	7	Sololá	713	San Lucas Tolimán	10	San Lucas Tolimán	12	Diciembre	2023-12-25T00:00:00	2024-11-08T04:00:00	4	Temperatura máxima	14.7
166995	7	Sololá	713	San Lucas Tolimán	10	San Lucas Tolimán	12	Diciembre	2023-12-25T00:00:00	2024-11-08T04:00:00	3	Temperatura mínima	13.9
166996	7	Sololá	713	San Lucas Tolimán	10	San Lucas Tolimán	12	Diciembre	2023-12-25T00:00:00	2024-11-08T04:00:00	5	Humedad	61
166997	7	Sololá	713	San Lucas Tolimán	10	San Lucas Tolimán	12	Diciembre	2023-12-25T00:00:00	2024-11-08T04:00:00	6	Velocidad del viento	0
166998	7	Sololá	713	San Lucas Tolimán	10	San Lucas Tolimán	12	Diciembre	2023-12-25T00:00:00	2024-11-08T04:00:00	7	Dirección del viento	0
166999	7	Sololá	713	San Lucas Tolimán	10	San Lucas Tolimán	12	Diciembre	2023-12-25T00:00:00	2024-11-08T04:00:00	1	Precipitación	0
167000	7	Sololá	713	San Lucas Tolimán	10	San Lucas Tolimán	12	Diciembre	2023-12-25T00:00:00	2024-11-08T04:00:00	8	Radiación solar	0
167001	7	Sololá	713	San Lucas Tolimán	10	San Lucas Tolimán	12	Diciembre	2023-12-25T00:00:00	2024-11-08T05:00:00	2	Temperatura media	15.3
167002	7	Sololá	713	San Lucas Tolimán	10	San Lucas Tolimán	12	Diciembre	2023-12-25T00:00:00	2024-11-08T05:00:00	4	Temperatura máxima	15.4
167003	7	Sololá	713	San Lucas Tolimán	10	San Lucas Tolimán	12	Diciembre	2023-12-25T00:00:00	2024-11-08T05:00:00	3	Temperatura mínima	14.7
167004	7	Sololá	713	San Lucas Tolimán	10	San Lucas Tolimán	12	Diciembre	2023-12-25T00:00:00	2024-11-08T05:00:00	5	Humedad	59
167005	7	Sololá	713	San Lucas Tolimán	10	San Lucas Tolimán	12	Diciembre	2023-12-25T00:00:00	2024-11-08T05:00:00	6	Velocidad del viento	0
167006	7	Sololá	713	San Lucas Tolimán	10	San Lucas Tolimán	12	Diciembre	2023-12-25T00:00:00	2024-11-08T05:00:00	7	Dirección del viento	0
167007	7	Sololá	713	San Lucas Tolimán	10	San Lucas Tolimán	12	Diciembre	2023-12-25T00:00:00	2024-11-08T05:00:00	1	Precipitación	0
167008	7	Sololá	713	San Lucas Tolimán	10	San Lucas Tolimán	12	Diciembre	2023-12-25T00:00:00	2024-11-08T05:00:00	8	Radiación solar	0
167009	7	Sololá	713	San Lucas Tolimán	10	San Lucas Tolimán	12	Diciembre	2023-12-25T00:00:00	2024-11-08T06:00:00	2	Temperatura media	15.7
167010	7	Sololá	713	San Lucas Tolimán	10	San Lucas Tolimán	12	Diciembre	2023-12-25T00:00:00	2024-11-08T06:00:00	4	Temperatura máxima	15.7
167011	7	Sololá	713	San Lucas Tolimán	10	San Lucas Tolimán	12	Diciembre	2023-12-25T00:00:00	2024-11-08T06:00:00	3	Temperatura mínima	15.2
167012	7	Sololá	713	San Lucas Tolimán	10	San Lucas Tolimán	12	Diciembre	2023-12-25T00:00:00	2024-11-08T06:00:00	5	Humedad	58
167013	7	Sololá	713	San Lucas Tolimán	10	San Lucas Tolimán	12	Diciembre	2023-12-25T00:00:00	2024-11-08T06:00:00	6	Velocidad del viento	0
167014	7	Sololá	713	San Lucas Tolimán	10	San Lucas Tolimán	12	Diciembre	2023-12-25T00:00:00	2024-11-08T06:00:00	7	Dirección del viento	0
167015	7	Sololá	713	San Lucas Tolimán	10	San Lucas Tolimán	12	Diciembre	2023-12-25T00:00:00	2024-11-08T06:00:00	1	Precipitación	0
167016	7	Sololá	713	San Lucas Tolimán	10	San Lucas Tolimán	12	Diciembre	2023-12-25T00:00:00	2024-11-08T06:00:00	8	Radiación solar	0
167017	7	Sololá	713	San Lucas Tolimán	10	San Lucas Tolimán	12	Diciembre	2023-12-25T00:00:00	2024-11-08T07:00:00	2	Temperatura media	15.7
167018	7	Sololá	713	San Lucas Tolimán	10	San Lucas Tolimán	12	Diciembre	2023-12-25T00:00:00	2024-11-08T07:00:00	4	Temperatura máxima	15.9
167019	7	Sololá	713	San Lucas Tolimán	10	San Lucas Tolimán	12	Diciembre	2023-12-25T00:00:00	2024-11-08T07:00:00	3	Temperatura mínima	15.6
167020	7	Sololá	713	San Lucas Tolimán	10	San Lucas Tolimán	12	Diciembre	2023-12-25T00:00:00	2024-11-08T07:00:00	5	Humedad	58
167021	7	Sololá	713	San Lucas Tolimán	10	San Lucas Tolimán	12	Diciembre	2023-12-25T00:00:00	2024-11-08T07:00:00	6	Velocidad del viento	0
167022	7	Sololá	713	San Lucas Tolimán	10	San Lucas Tolimán	12	Diciembre	2023-12-25T00:00:00	2024-11-08T07:00:00	7	Dirección del viento	0
167023	7	Sololá	713	San Lucas Tolimán	10	San Lucas Tolimán	12	Diciembre	2023-12-25T00:00:00	2024-11-08T07:00:00	1	Precipitación	0
167024	7	Sololá	713	San Lucas Tolimán	10	San Lucas Tolimán	12	Diciembre	2023-12-25T00:00:00	2024-11-08T07:00:00	8	Radiación solar	4
167025	7	Sololá	713	San Lucas Tolimán	10	San Lucas Tolimán	12	Diciembre	2023-12-25T00:00:00	2024-11-08T08:00:00	2	Temperatura media	16.2
167026	7	Sololá	713	San Lucas Tolimán	10	San Lucas Tolimán	12	Diciembre	2023-12-25T00:00:00	2024-11-08T08:00:00	4	Temperatura máxima	16.2
167027	7	Sololá	713	San Lucas Tolimán	10	San Lucas Tolimán	12	Diciembre	2023-12-25T00:00:00	2024-11-08T08:00:00	3	Temperatura mínima	15.4
167028	7	Sololá	713	San Lucas Tolimán	10	San Lucas Tolimán	12	Diciembre	2023-12-25T00:00:00	2024-11-08T08:00:00	5	Humedad	58
167029	7	Sololá	713	San Lucas Tolimán	10	San Lucas Tolimán	12	Diciembre	2023-12-25T00:00:00	2024-11-08T08:00:00	6	Velocidad del viento	0
167030	7	Sololá	713	San Lucas Tolimán	10	San Lucas Tolimán	12	Diciembre	2023-12-25T00:00:00	2024-11-08T08:00:00	7	Dirección del viento	0
167031	7	Sololá	713	San Lucas Tolimán	10	San Lucas Tolimán	12	Diciembre	2023-12-25T00:00:00	2024-11-08T08:00:00	1	Precipitación	0
167032	7	Sololá	713	San Lucas Tolimán	10	San Lucas Tolimán	12	Diciembre	2023-12-25T00:00:00	2024-11-08T08:00:00	8	Radiación solar	58
167033	7	Sololá	713	San Lucas Tolimán	10	San Lucas Tolimán	12	Diciembre	2023-12-25T00:00:00	2024-11-08T09:00:00	2	Temperatura media	16.7
167034	7	Sololá	713	San Lucas Tolimán	10	San Lucas Tolimán	12	Diciembre	2023-12-25T00:00:00	2024-11-08T09:00:00	4	Temperatura máxima	17
167035	7	Sololá	713	San Lucas Tolimán	10	San Lucas Tolimán	12	Diciembre	2023-12-25T00:00:00	2024-11-08T09:00:00	3	Temperatura mínima	16.1
167036	7	Sololá	713	San Lucas Tolimán	10	San Lucas Tolimán	12	Diciembre	2023-12-25T00:00:00	2024-11-08T09:00:00	5	Humedad	58
167037	7	Sololá	713	San Lucas Tolimán	10	San Lucas Tolimán	12	Diciembre	2023-12-25T00:00:00	2024-11-08T09:00:00	6	Velocidad del viento	0
167038	7	Sololá	713	San Lucas Tolimán	10	San Lucas Tolimán	12	Diciembre	2023-12-25T00:00:00	2024-11-08T09:00:00	7	Dirección del viento	0
167039	7	Sololá	713	San Lucas Tolimán	10	San Lucas Tolimán	12	Diciembre	2023-12-25T00:00:00	2024-11-08T09:00:00	1	Precipitación	0
167040	7	Sololá	713	San Lucas Tolimán	10	San Lucas Tolimán	12	Diciembre	2023-12-25T00:00:00	2024-11-08T09:00:00	8	Radiación solar	78
167041	7	Sololá	713	San Lucas Tolimán	10	San Lucas Tolimán	12	Diciembre	2023-12-25T00:00:00	2024-11-08T10:00:00	2	Temperatura media	17.7
167042	7	Sololá	713	San Lucas Tolimán	10	San Lucas Tolimán	12	Diciembre	2023-12-25T00:00:00	2024-11-08T10:00:00	4	Temperatura máxima	17.7
167043	7	Sololá	713	San Lucas Tolimán	10	San Lucas Tolimán	12	Diciembre	2023-12-25T00:00:00	2024-11-08T10:00:00	3	Temperatura mínima	16.7
167044	7	Sololá	713	San Lucas Tolimán	10	San Lucas Tolimán	12	Diciembre	2023-12-25T00:00:00	2024-11-08T10:00:00	5	Humedad	57
167045	7	Sololá	713	San Lucas Tolimán	10	San Lucas Tolimán	12	Diciembre	2023-12-25T00:00:00	2024-11-08T10:00:00	6	Velocidad del viento	0
167046	7	Sololá	713	San Lucas Tolimán	10	San Lucas Tolimán	12	Diciembre	2023-12-25T00:00:00	2024-11-08T10:00:00	7	Dirección del viento	0
167047	7	Sololá	713	San Lucas Tolimán	10	San Lucas Tolimán	12	Diciembre	2023-12-25T00:00:00	2024-11-08T10:00:00	1	Precipitación	0
167048	7	Sololá	713	San Lucas Tolimán	10	San Lucas Tolimán	12	Diciembre	2023-12-25T00:00:00	2024-11-08T10:00:00	8	Radiación solar	95
167049	7	Sololá	713	San Lucas Tolimán	10	San Lucas Tolimán	12	Diciembre	2023-12-25T00:00:00	2024-11-08T11:00:00	2	Temperatura media	19.8
167050	7	Sololá	713	San Lucas Tolimán	10	San Lucas Tolimán	12	Diciembre	2023-12-25T00:00:00	2024-11-08T11:00:00	4	Temperatura máxima	19.8
167051	7	Sololá	713	San Lucas Tolimán	10	San Lucas Tolimán	12	Diciembre	2023-12-25T00:00:00	2024-11-08T11:00:00	3	Temperatura mínima	17.7
167052	7	Sololá	713	San Lucas Tolimán	10	San Lucas Tolimán	12	Diciembre	2023-12-25T00:00:00	2024-11-08T11:00:00	5	Humedad	56
167053	7	Sololá	713	San Lucas Tolimán	10	San Lucas Tolimán	12	Diciembre	2023-12-25T00:00:00	2024-11-08T11:00:00	6	Velocidad del viento	4.8
167054	7	Sololá	713	San Lucas Tolimán	10	San Lucas Tolimán	12	Diciembre	2023-12-25T00:00:00	2024-11-08T11:00:00	7	Dirección del viento	4.83
167055	7	Sololá	713	San Lucas Tolimán	10	San Lucas Tolimán	12	Diciembre	2023-12-25T00:00:00	2024-11-08T11:00:00	1	Precipitación	0
167056	7	Sololá	713	San Lucas Tolimán	10	San Lucas Tolimán	12	Diciembre	2023-12-25T00:00:00	2024-11-08T11:00:00	8	Radiación solar	163
167057	7	Sololá	713	San Lucas Tolimán	10	San Lucas Tolimán	12	Diciembre	2023-12-25T00:00:00	2024-11-08T12:00:00	2	Temperatura media	20.4
167058	7	Sololá	713	San Lucas Tolimán	10	San Lucas Tolimán	12	Diciembre	2023-12-25T00:00:00	2024-11-08T12:00:00	4	Temperatura máxima	20.7
167059	7	Sololá	713	San Lucas Tolimán	10	San Lucas Tolimán	12	Diciembre	2023-12-25T00:00:00	2024-11-08T12:00:00	3	Temperatura mínima	19.8
167060	7	Sololá	713	San Lucas Tolimán	10	San Lucas Tolimán	12	Diciembre	2023-12-25T00:00:00	2024-11-08T12:00:00	5	Humedad	56
167061	7	Sololá	713	San Lucas Tolimán	10	San Lucas Tolimán	12	Diciembre	2023-12-25T00:00:00	2024-11-08T12:00:00	6	Velocidad del viento	8
167062	7	Sololá	713	San Lucas Tolimán	10	San Lucas Tolimán	12	Diciembre	2023-12-25T00:00:00	2024-11-08T12:00:00	7	Dirección del viento	8.05
167063	7	Sololá	713	San Lucas Tolimán	10	San Lucas Tolimán	12	Diciembre	2023-12-25T00:00:00	2024-11-08T12:00:00	1	Precipitación	0
167064	7	Sololá	713	San Lucas Tolimán	10	San Lucas Tolimán	12	Diciembre	2023-12-25T00:00:00	2024-11-08T12:00:00	8	Radiación solar	372
167065	7	Sololá	713	San Lucas Tolimán	10	San Lucas Tolimán	12	Diciembre	2023-12-25T00:00:00	2024-11-08T13:00:00	2	Temperatura media	22.1
167066	7	Sololá	713	San Lucas Tolimán	10	San Lucas Tolimán	12	Diciembre	2023-12-25T00:00:00	2024-11-08T13:00:00	4	Temperatura máxima	22.1
167067	7	Sololá	713	San Lucas Tolimán	10	San Lucas Tolimán	12	Diciembre	2023-12-25T00:00:00	2024-11-08T13:00:00	3	Temperatura mínima	20.4
167068	7	Sololá	713	San Lucas Tolimán	10	San Lucas Tolimán	12	Diciembre	2023-12-25T00:00:00	2024-11-08T13:00:00	5	Humedad	54
167069	7	Sololá	713	San Lucas Tolimán	10	San Lucas Tolimán	12	Diciembre	2023-12-25T00:00:00	2024-11-08T13:00:00	6	Velocidad del viento	8
167070	7	Sololá	713	San Lucas Tolimán	10	San Lucas Tolimán	12	Diciembre	2023-12-25T00:00:00	2024-11-08T13:00:00	7	Dirección del viento	8.05
167071	7	Sololá	713	San Lucas Tolimán	10	San Lucas Tolimán	12	Diciembre	2023-12-25T00:00:00	2024-11-08T13:00:00	1	Precipitación	0
167072	7	Sololá	713	San Lucas Tolimán	10	San Lucas Tolimán	12	Diciembre	2023-12-25T00:00:00	2024-11-08T13:00:00	8	Radiación solar	772
167073	7	Sololá	713	San Lucas Tolimán	10	San Lucas Tolimán	12	Diciembre	2023-12-25T00:00:00	2024-11-08T14:00:00	2	Temperatura media	21.2
167074	7	Sololá	713	San Lucas Tolimán	10	San Lucas Tolimán	12	Diciembre	2023-12-25T00:00:00	2024-11-08T14:00:00	4	Temperatura máxima	22.6
167075	7	Sololá	713	San Lucas Tolimán	10	San Lucas Tolimán	12	Diciembre	2023-12-25T00:00:00	2024-11-08T14:00:00	3	Temperatura mínima	21.2
167076	7	Sololá	713	San Lucas Tolimán	10	San Lucas Tolimán	12	Diciembre	2023-12-25T00:00:00	2024-11-08T14:00:00	5	Humedad	57
167077	7	Sololá	713	San Lucas Tolimán	10	San Lucas Tolimán	12	Diciembre	2023-12-25T00:00:00	2024-11-08T14:00:00	6	Velocidad del viento	11.3
167078	7	Sololá	713	San Lucas Tolimán	10	San Lucas Tolimán	12	Diciembre	2023-12-25T00:00:00	2024-11-08T14:00:00	7	Dirección del viento	11.27
167079	7	Sololá	713	San Lucas Tolimán	10	San Lucas Tolimán	12	Diciembre	2023-12-25T00:00:00	2024-11-08T14:00:00	1	Precipitación	0
167080	7	Sololá	713	San Lucas Tolimán	10	San Lucas Tolimán	12	Diciembre	2023-12-25T00:00:00	2024-11-08T14:00:00	8	Radiación solar	788
167081	7	Sololá	713	San Lucas Tolimán	10	San Lucas Tolimán	12	Diciembre	2023-12-25T00:00:00	2024-11-08T15:00:00	2	Temperatura media	21.7
167082	7	Sololá	713	San Lucas Tolimán	10	San Lucas Tolimán	12	Diciembre	2023-12-25T00:00:00	2024-11-08T15:00:00	4	Temperatura máxima	22.2
167083	7	Sololá	713	San Lucas Tolimán	10	San Lucas Tolimán	12	Diciembre	2023-12-25T00:00:00	2024-11-08T15:00:00	3	Temperatura mínima	21.2
167084	7	Sololá	713	San Lucas Tolimán	10	San Lucas Tolimán	12	Diciembre	2023-12-25T00:00:00	2024-11-08T15:00:00	5	Humedad	58
167085	7	Sololá	713	San Lucas Tolimán	10	San Lucas Tolimán	12	Diciembre	2023-12-25T00:00:00	2024-11-08T15:00:00	6	Velocidad del viento	9.7
167086	7	Sololá	713	San Lucas Tolimán	10	San Lucas Tolimán	12	Diciembre	2023-12-25T00:00:00	2024-11-08T15:00:00	7	Dirección del viento	9.66
167087	7	Sololá	713	San Lucas Tolimán	10	San Lucas Tolimán	12	Diciembre	2023-12-25T00:00:00	2024-11-08T15:00:00	1	Precipitación	0
167088	7	Sololá	713	San Lucas Tolimán	10	San Lucas Tolimán	12	Diciembre	2023-12-25T00:00:00	2024-11-08T15:00:00	8	Radiación solar	721
167089	7	Sololá	713	San Lucas Tolimán	10	San Lucas Tolimán	12	Diciembre	2023-12-25T00:00:00	2024-11-08T16:00:00	2	Temperatura media	20.9
167090	7	Sololá	713	San Lucas Tolimán	10	San Lucas Tolimán	12	Diciembre	2023-12-25T00:00:00	2024-11-08T16:00:00	4	Temperatura máxima	21.9
167091	7	Sololá	713	San Lucas Tolimán	10	San Lucas Tolimán	12	Diciembre	2023-12-25T00:00:00	2024-11-08T16:00:00	3	Temperatura mínima	20.7
167092	7	Sololá	713	San Lucas Tolimán	10	San Lucas Tolimán	12	Diciembre	2023-12-25T00:00:00	2024-11-08T16:00:00	5	Humedad	59
167093	7	Sololá	713	San Lucas Tolimán	10	San Lucas Tolimán	12	Diciembre	2023-12-25T00:00:00	2024-11-08T16:00:00	6	Velocidad del viento	9.7
167094	7	Sololá	713	San Lucas Tolimán	10	San Lucas Tolimán	12	Diciembre	2023-12-25T00:00:00	2024-11-08T16:00:00	7	Dirección del viento	9.66
167095	7	Sololá	713	San Lucas Tolimán	10	San Lucas Tolimán	12	Diciembre	2023-12-25T00:00:00	2024-11-08T16:00:00	1	Precipitación	0
167096	7	Sololá	713	San Lucas Tolimán	10	San Lucas Tolimán	12	Diciembre	2023-12-25T00:00:00	2024-11-08T16:00:00	8	Radiación solar	329
167097	7	Sololá	713	San Lucas Tolimán	10	San Lucas Tolimán	12	Diciembre	2023-12-25T00:00:00	2024-11-08T17:00:00	2	Temperatura media	19.7
167098	7	Sololá	713	San Lucas Tolimán	10	San Lucas Tolimán	12	Diciembre	2023-12-25T00:00:00	2024-11-08T17:00:00	4	Temperatura máxima	20.9
167099	7	Sololá	713	San Lucas Tolimán	10	San Lucas Tolimán	12	Diciembre	2023-12-25T00:00:00	2024-11-08T17:00:00	3	Temperatura mínima	19.7
167100	7	Sololá	713	San Lucas Tolimán	10	San Lucas Tolimán	12	Diciembre	2023-12-25T00:00:00	2024-11-08T17:00:00	5	Humedad	61
167101	7	Sololá	713	San Lucas Tolimán	10	San Lucas Tolimán	12	Diciembre	2023-12-25T00:00:00	2024-11-08T17:00:00	6	Velocidad del viento	8
167102	7	Sololá	713	San Lucas Tolimán	10	San Lucas Tolimán	12	Diciembre	2023-12-25T00:00:00	2024-11-08T17:00:00	7	Dirección del viento	8.05
167103	7	Sololá	713	San Lucas Tolimán	10	San Lucas Tolimán	12	Diciembre	2023-12-25T00:00:00	2024-11-08T17:00:00	1	Precipitación	0
167104	7	Sololá	713	San Lucas Tolimán	10	San Lucas Tolimán	12	Diciembre	2023-12-25T00:00:00	2024-11-08T17:00:00	8	Radiación solar	125
167105	7	Sololá	713	San Lucas Tolimán	10	San Lucas Tolimán	12	Diciembre	2023-12-25T00:00:00	2024-11-08T18:00:00	2	Temperatura media	18.2
167106	7	Sololá	713	San Lucas Tolimán	10	San Lucas Tolimán	12	Diciembre	2023-12-25T00:00:00	2024-11-08T18:00:00	4	Temperatura máxima	19.7
167107	7	Sololá	713	San Lucas Tolimán	10	San Lucas Tolimán	12	Diciembre	2023-12-25T00:00:00	2024-11-08T18:00:00	3	Temperatura mínima	18.2
167108	7	Sololá	713	San Lucas Tolimán	10	San Lucas Tolimán	12	Diciembre	2023-12-25T00:00:00	2024-11-08T18:00:00	5	Humedad	60
167109	7	Sololá	713	San Lucas Tolimán	10	San Lucas Tolimán	12	Diciembre	2023-12-25T00:00:00	2024-11-08T18:00:00	6	Velocidad del viento	8
167110	7	Sololá	713	San Lucas Tolimán	10	San Lucas Tolimán	12	Diciembre	2023-12-25T00:00:00	2024-11-08T18:00:00	7	Dirección del viento	8.05
167111	7	Sololá	713	San Lucas Tolimán	10	San Lucas Tolimán	12	Diciembre	2023-12-25T00:00:00	2024-11-08T18:00:00	1	Precipitación	0
167112	7	Sololá	713	San Lucas Tolimán	10	San Lucas Tolimán	12	Diciembre	2023-12-25T00:00:00	2024-11-08T18:00:00	8	Radiación solar	14
167113	7	Sololá	713	San Lucas Tolimán	10	San Lucas Tolimán	12	Diciembre	2023-12-25T00:00:00	2024-11-08T19:00:00	2	Temperatura media	17.7
167114	7	Sololá	713	San Lucas Tolimán	10	San Lucas Tolimán	12	Diciembre	2023-12-25T00:00:00	2024-11-08T19:00:00	4	Temperatura máxima	18.3
167115	7	Sololá	713	San Lucas Tolimán	10	San Lucas Tolimán	12	Diciembre	2023-12-25T00:00:00	2024-11-08T19:00:00	3	Temperatura mínima	17.7
167116	7	Sololá	713	San Lucas Tolimán	10	San Lucas Tolimán	12	Diciembre	2023-12-25T00:00:00	2024-11-08T19:00:00	5	Humedad	60
167117	7	Sololá	713	San Lucas Tolimán	10	San Lucas Tolimán	12	Diciembre	2023-12-25T00:00:00	2024-11-08T19:00:00	6	Velocidad del viento	4.8
167118	7	Sololá	713	San Lucas Tolimán	10	San Lucas Tolimán	12	Diciembre	2023-12-25T00:00:00	2024-11-08T19:00:00	7	Dirección del viento	4.83
167119	7	Sololá	713	San Lucas Tolimán	10	San Lucas Tolimán	12	Diciembre	2023-12-25T00:00:00	2024-11-08T19:00:00	1	Precipitación	0
167120	7	Sololá	713	San Lucas Tolimán	10	San Lucas Tolimán	12	Diciembre	2023-12-25T00:00:00	2024-11-08T19:00:00	8	Radiación solar	0
167121	7	Sololá	713	San Lucas Tolimán	10	San Lucas Tolimán	12	Diciembre	2023-12-25T00:00:00	2024-11-08T20:00:00	2	Temperatura media	16.3
167122	7	Sololá	713	San Lucas Tolimán	10	San Lucas Tolimán	12	Diciembre	2023-12-25T00:00:00	2024-11-08T20:00:00	4	Temperatura máxima	17.7
167123	7	Sololá	713	San Lucas Tolimán	10	San Lucas Tolimán	12	Diciembre	2023-12-25T00:00:00	2024-11-08T20:00:00	3	Temperatura mínima	16.3
167124	7	Sololá	713	San Lucas Tolimán	10	San Lucas Tolimán	12	Diciembre	2023-12-25T00:00:00	2024-11-08T20:00:00	5	Humedad	58
167125	7	Sololá	713	San Lucas Tolimán	10	San Lucas Tolimán	12	Diciembre	2023-12-25T00:00:00	2024-11-08T20:00:00	6	Velocidad del viento	3.2
167126	7	Sololá	713	San Lucas Tolimán	10	San Lucas Tolimán	12	Diciembre	2023-12-25T00:00:00	2024-11-08T20:00:00	7	Dirección del viento	3.22
167127	7	Sololá	713	San Lucas Tolimán	10	San Lucas Tolimán	12	Diciembre	2023-12-25T00:00:00	2024-11-08T20:00:00	1	Precipitación	0
167128	7	Sololá	713	San Lucas Tolimán	10	San Lucas Tolimán	12	Diciembre	2023-12-25T00:00:00	2024-11-08T20:00:00	8	Radiación solar	0
167129	7	Sololá	713	San Lucas Tolimán	10	San Lucas Tolimán	12	Diciembre	2023-12-25T00:00:00	2024-11-08T21:00:00	2	Temperatura media	15.9
167130	7	Sololá	713	San Lucas Tolimán	10	San Lucas Tolimán	12	Diciembre	2023-12-25T00:00:00	2024-11-08T21:00:00	4	Temperatura máxima	16.4
167131	7	Sololá	713	San Lucas Tolimán	10	San Lucas Tolimán	12	Diciembre	2023-12-25T00:00:00	2024-11-08T21:00:00	3	Temperatura mínima	15.9
167132	7	Sololá	713	San Lucas Tolimán	10	San Lucas Tolimán	12	Diciembre	2023-12-25T00:00:00	2024-11-08T21:00:00	5	Humedad	60
167133	7	Sololá	713	San Lucas Tolimán	10	San Lucas Tolimán	12	Diciembre	2023-12-25T00:00:00	2024-11-08T21:00:00	6	Velocidad del viento	1.6
167134	7	Sololá	713	San Lucas Tolimán	10	San Lucas Tolimán	12	Diciembre	2023-12-25T00:00:00	2024-11-08T21:00:00	7	Dirección del viento	1.61
167135	7	Sololá	713	San Lucas Tolimán	10	San Lucas Tolimán	12	Diciembre	2023-12-25T00:00:00	2024-11-08T21:00:00	1	Precipitación	0
167136	7	Sololá	713	San Lucas Tolimán	10	San Lucas Tolimán	12	Diciembre	2023-12-25T00:00:00	2024-11-08T21:00:00	8	Radiación solar	0
167137	7	Sololá	713	San Lucas Tolimán	10	San Lucas Tolimán	12	Diciembre	2023-12-25T00:00:00	2024-11-08T22:00:00	2	Temperatura media	16.4
167138	7	Sololá	713	San Lucas Tolimán	10	San Lucas Tolimán	12	Diciembre	2023-12-25T00:00:00	2024-11-08T22:00:00	4	Temperatura máxima	16.4
167139	7	Sololá	713	San Lucas Tolimán	10	San Lucas Tolimán	12	Diciembre	2023-12-25T00:00:00	2024-11-08T22:00:00	3	Temperatura mínima	15.7
167140	7	Sololá	713	San Lucas Tolimán	10	San Lucas Tolimán	12	Diciembre	2023-12-25T00:00:00	2024-11-08T22:00:00	5	Humedad	60
167141	7	Sololá	713	San Lucas Tolimán	10	San Lucas Tolimán	12	Diciembre	2023-12-25T00:00:00	2024-11-08T22:00:00	6	Velocidad del viento	0
167142	7	Sololá	713	San Lucas Tolimán	10	San Lucas Tolimán	12	Diciembre	2023-12-25T00:00:00	2024-11-08T22:00:00	7	Dirección del viento	0
167143	7	Sololá	713	San Lucas Tolimán	10	San Lucas Tolimán	12	Diciembre	2023-12-25T00:00:00	2024-11-08T22:00:00	1	Precipitación	0
167144	7	Sololá	713	San Lucas Tolimán	10	San Lucas Tolimán	12	Diciembre	2023-12-25T00:00:00	2024-11-08T22:00:00	8	Radiación solar	0
167145	7	Sololá	713	San Lucas Tolimán	10	San Lucas Tolimán	12	Diciembre	2023-12-25T00:00:00	2024-11-08T23:00:00	2	Temperatura media	16.7
167146	7	Sololá	713	San Lucas Tolimán	10	San Lucas Tolimán	12	Diciembre	2023-12-25T00:00:00	2024-11-08T23:00:00	4	Temperatura máxima	16.7
167147	7	Sololá	713	San Lucas Tolimán	10	San Lucas Tolimán	12	Diciembre	2023-12-25T00:00:00	2024-11-08T23:00:00	3	Temperatura mínima	16.3
167148	7	Sololá	713	San Lucas Tolimán	10	San Lucas Tolimán	12	Diciembre	2023-12-25T00:00:00	2024-11-08T23:00:00	5	Humedad	59
167149	7	Sololá	713	San Lucas Tolimán	10	San Lucas Tolimán	12	Diciembre	2023-12-25T00:00:00	2024-11-08T23:00:00	6	Velocidad del viento	0
167150	7	Sololá	713	San Lucas Tolimán	10	San Lucas Tolimán	12	Diciembre	2023-12-25T00:00:00	2024-11-08T23:00:00	7	Dirección del viento	0
167151	7	Sololá	713	San Lucas Tolimán	10	San Lucas Tolimán	12	Diciembre	2023-12-25T00:00:00	2024-11-08T23:00:00	1	Precipitación	0
167152	7	Sololá	713	San Lucas Tolimán	10	San Lucas Tolimán	12	Diciembre	2023-12-25T00:00:00	2024-11-08T23:00:00	8	Radiación solar	0
167153	7	Sololá	713	San Lucas Tolimán	10	San Lucas Tolimán	12	Diciembre	2023-12-26T00:00:00	2024-11-08T00:00:00	2	Temperatura media	15.8
167154	7	Sololá	713	San Lucas Tolimán	10	San Lucas Tolimán	12	Diciembre	2023-12-26T00:00:00	2024-11-08T00:00:00	4	Temperatura máxima	16.7
167155	7	Sololá	713	San Lucas Tolimán	10	San Lucas Tolimán	12	Diciembre	2023-12-26T00:00:00	2024-11-08T00:00:00	3	Temperatura mínima	15.7
167156	7	Sololá	713	San Lucas Tolimán	10	San Lucas Tolimán	12	Diciembre	2023-12-26T00:00:00	2024-11-08T00:00:00	5	Humedad	59
167157	7	Sololá	713	San Lucas Tolimán	10	San Lucas Tolimán	12	Diciembre	2023-12-26T00:00:00	2024-11-08T00:00:00	6	Velocidad del viento	1.6
167158	7	Sololá	713	San Lucas Tolimán	10	San Lucas Tolimán	12	Diciembre	2023-12-26T00:00:00	2024-11-08T00:00:00	7	Dirección del viento	1.61
167159	7	Sololá	713	San Lucas Tolimán	10	San Lucas Tolimán	12	Diciembre	2023-12-26T00:00:00	2024-11-08T00:00:00	1	Precipitación	0
167160	7	Sololá	713	San Lucas Tolimán	10	San Lucas Tolimán	12	Diciembre	2023-12-26T00:00:00	2024-11-08T00:00:00	8	Radiación solar	0
167161	7	Sololá	713	San Lucas Tolimán	10	San Lucas Tolimán	12	Diciembre	2023-12-26T00:00:00	2024-11-08T01:00:00	2	Temperatura media	15.6
167162	7	Sololá	713	San Lucas Tolimán	10	San Lucas Tolimán	12	Diciembre	2023-12-26T00:00:00	2024-11-08T01:00:00	4	Temperatura máxima	15.9
167163	7	Sololá	713	San Lucas Tolimán	10	San Lucas Tolimán	12	Diciembre	2023-12-26T00:00:00	2024-11-08T01:00:00	3	Temperatura mínima	15.6
167164	7	Sololá	713	San Lucas Tolimán	10	San Lucas Tolimán	12	Diciembre	2023-12-26T00:00:00	2024-11-08T01:00:00	5	Humedad	58
167165	7	Sololá	713	San Lucas Tolimán	10	San Lucas Tolimán	12	Diciembre	2023-12-26T00:00:00	2024-11-08T01:00:00	6	Velocidad del viento	0
167166	7	Sololá	713	San Lucas Tolimán	10	San Lucas Tolimán	12	Diciembre	2023-12-26T00:00:00	2024-11-08T01:00:00	7	Dirección del viento	0
167167	7	Sololá	713	San Lucas Tolimán	10	San Lucas Tolimán	12	Diciembre	2023-12-26T00:00:00	2024-11-08T01:00:00	1	Precipitación	0
167168	7	Sololá	713	San Lucas Tolimán	10	San Lucas Tolimán	12	Diciembre	2023-12-26T00:00:00	2024-11-08T01:00:00	8	Radiación solar	0
167169	7	Sololá	713	San Lucas Tolimán	10	San Lucas Tolimán	12	Diciembre	2023-12-26T00:00:00	2024-11-08T02:00:00	2	Temperatura media	15.4
167170	7	Sololá	713	San Lucas Tolimán	10	San Lucas Tolimán	12	Diciembre	2023-12-26T00:00:00	2024-11-08T02:00:00	4	Temperatura máxima	15.8
167171	7	Sololá	713	San Lucas Tolimán	10	San Lucas Tolimán	12	Diciembre	2023-12-26T00:00:00	2024-11-08T02:00:00	3	Temperatura mínima	15.4
167172	7	Sololá	713	San Lucas Tolimán	10	San Lucas Tolimán	12	Diciembre	2023-12-26T00:00:00	2024-11-08T02:00:00	5	Humedad	58
167173	7	Sololá	713	San Lucas Tolimán	10	San Lucas Tolimán	12	Diciembre	2023-12-26T00:00:00	2024-11-08T02:00:00	6	Velocidad del viento	1.6
167174	7	Sololá	713	San Lucas Tolimán	10	San Lucas Tolimán	12	Diciembre	2023-12-26T00:00:00	2024-11-08T02:00:00	7	Dirección del viento	1.61
167175	7	Sololá	713	San Lucas Tolimán	10	San Lucas Tolimán	12	Diciembre	2023-12-26T00:00:00	2024-11-08T02:00:00	1	Precipitación	0
167176	7	Sololá	713	San Lucas Tolimán	10	San Lucas Tolimán	12	Diciembre	2023-12-26T00:00:00	2024-11-08T02:00:00	8	Radiación solar	0
167177	7	Sololá	713	San Lucas Tolimán	10	San Lucas Tolimán	12	Diciembre	2023-12-26T00:00:00	2024-11-08T03:00:00	2	Temperatura media	15.4
167178	7	Sololá	713	San Lucas Tolimán	10	San Lucas Tolimán	12	Diciembre	2023-12-26T00:00:00	2024-11-08T03:00:00	4	Temperatura máxima	15.8
167179	7	Sololá	713	San Lucas Tolimán	10	San Lucas Tolimán	12	Diciembre	2023-12-26T00:00:00	2024-11-08T03:00:00	3	Temperatura mínima	15.3
167180	7	Sololá	713	San Lucas Tolimán	10	San Lucas Tolimán	12	Diciembre	2023-12-26T00:00:00	2024-11-08T03:00:00	5	Humedad	58
167181	7	Sololá	713	San Lucas Tolimán	10	San Lucas Tolimán	12	Diciembre	2023-12-26T00:00:00	2024-11-08T03:00:00	6	Velocidad del viento	3.2
167182	7	Sololá	713	San Lucas Tolimán	10	San Lucas Tolimán	12	Diciembre	2023-12-26T00:00:00	2024-11-08T03:00:00	7	Dirección del viento	3.22
167183	7	Sololá	713	San Lucas Tolimán	10	San Lucas Tolimán	12	Diciembre	2023-12-26T00:00:00	2024-11-08T03:00:00	1	Precipitación	0
167184	7	Sololá	713	San Lucas Tolimán	10	San Lucas Tolimán	12	Diciembre	2023-12-26T00:00:00	2024-11-08T03:00:00	8	Radiación solar	0
167185	7	Sololá	713	San Lucas Tolimán	10	San Lucas Tolimán	12	Diciembre	2023-12-26T00:00:00	2024-11-08T04:00:00	2	Temperatura media	15.5
167186	7	Sololá	713	San Lucas Tolimán	10	San Lucas Tolimán	12	Diciembre	2023-12-26T00:00:00	2024-11-08T04:00:00	4	Temperatura máxima	16.3
167187	7	Sololá	713	San Lucas Tolimán	10	San Lucas Tolimán	12	Diciembre	2023-12-26T00:00:00	2024-11-08T04:00:00	3	Temperatura mínima	15.4
167188	7	Sololá	713	San Lucas Tolimán	10	San Lucas Tolimán	12	Diciembre	2023-12-26T00:00:00	2024-11-08T04:00:00	5	Humedad	58
167189	7	Sololá	713	San Lucas Tolimán	10	San Lucas Tolimán	12	Diciembre	2023-12-26T00:00:00	2024-11-08T04:00:00	6	Velocidad del viento	4.8
167190	7	Sololá	713	San Lucas Tolimán	10	San Lucas Tolimán	12	Diciembre	2023-12-26T00:00:00	2024-11-08T04:00:00	7	Dirección del viento	4.83
167191	7	Sololá	713	San Lucas Tolimán	10	San Lucas Tolimán	12	Diciembre	2023-12-26T00:00:00	2024-11-08T04:00:00	1	Precipitación	0
167192	7	Sololá	713	San Lucas Tolimán	10	San Lucas Tolimán	12	Diciembre	2023-12-26T00:00:00	2024-11-08T04:00:00	8	Radiación solar	0
167193	7	Sololá	713	San Lucas Tolimán	10	San Lucas Tolimán	12	Diciembre	2023-12-26T00:00:00	2024-11-08T05:00:00	2	Temperatura media	14.9
167194	7	Sololá	713	San Lucas Tolimán	10	San Lucas Tolimán	12	Diciembre	2023-12-26T00:00:00	2024-11-08T05:00:00	4	Temperatura máxima	15.5
167195	7	Sololá	713	San Lucas Tolimán	10	San Lucas Tolimán	12	Diciembre	2023-12-26T00:00:00	2024-11-08T05:00:00	3	Temperatura mínima	14.9
167196	7	Sololá	713	San Lucas Tolimán	10	San Lucas Tolimán	12	Diciembre	2023-12-26T00:00:00	2024-11-08T05:00:00	5	Humedad	59
167197	7	Sololá	713	San Lucas Tolimán	10	San Lucas Tolimán	12	Diciembre	2023-12-26T00:00:00	2024-11-08T05:00:00	6	Velocidad del viento	1.6
167198	7	Sololá	713	San Lucas Tolimán	10	San Lucas Tolimán	12	Diciembre	2023-12-26T00:00:00	2024-11-08T05:00:00	7	Dirección del viento	1.61
167199	7	Sololá	713	San Lucas Tolimán	10	San Lucas Tolimán	12	Diciembre	2023-12-26T00:00:00	2024-11-08T05:00:00	1	Precipitación	0
167200	7	Sololá	713	San Lucas Tolimán	10	San Lucas Tolimán	12	Diciembre	2023-12-26T00:00:00	2024-11-08T05:00:00	8	Radiación solar	0
167201	7	Sololá	713	San Lucas Tolimán	10	San Lucas Tolimán	12	Diciembre	2023-12-26T00:00:00	2024-11-08T06:00:00	2	Temperatura media	15.4
167202	7	Sololá	713	San Lucas Tolimán	10	San Lucas Tolimán	12	Diciembre	2023-12-26T00:00:00	2024-11-08T06:00:00	4	Temperatura máxima	15.7
167203	7	Sololá	713	San Lucas Tolimán	10	San Lucas Tolimán	12	Diciembre	2023-12-26T00:00:00	2024-11-08T06:00:00	3	Temperatura mínima	14.8
167204	7	Sololá	713	San Lucas Tolimán	10	San Lucas Tolimán	12	Diciembre	2023-12-26T00:00:00	2024-11-08T06:00:00	5	Humedad	57
167205	7	Sololá	713	San Lucas Tolimán	10	San Lucas Tolimán	12	Diciembre	2023-12-26T00:00:00	2024-11-08T06:00:00	6	Velocidad del viento	1.6
167206	7	Sololá	713	San Lucas Tolimán	10	San Lucas Tolimán	12	Diciembre	2023-12-26T00:00:00	2024-11-08T06:00:00	7	Dirección del viento	1.61
167207	7	Sololá	713	San Lucas Tolimán	10	San Lucas Tolimán	12	Diciembre	2023-12-26T00:00:00	2024-11-08T06:00:00	1	Precipitación	0
167208	7	Sololá	713	San Lucas Tolimán	10	San Lucas Tolimán	12	Diciembre	2023-12-26T00:00:00	2024-11-08T06:00:00	8	Radiación solar	0
167209	7	Sololá	713	San Lucas Tolimán	10	San Lucas Tolimán	12	Diciembre	2023-12-26T00:00:00	2024-11-08T07:00:00	2	Temperatura media	15.3
167210	7	Sololá	713	San Lucas Tolimán	10	San Lucas Tolimán	12	Diciembre	2023-12-26T00:00:00	2024-11-08T07:00:00	4	Temperatura máxima	15.4
167211	7	Sololá	713	San Lucas Tolimán	10	San Lucas Tolimán	12	Diciembre	2023-12-26T00:00:00	2024-11-08T07:00:00	3	Temperatura mínima	14.9
167212	7	Sololá	713	San Lucas Tolimán	10	San Lucas Tolimán	12	Diciembre	2023-12-26T00:00:00	2024-11-08T07:00:00	5	Humedad	58
167213	7	Sololá	713	San Lucas Tolimán	10	San Lucas Tolimán	12	Diciembre	2023-12-26T00:00:00	2024-11-08T07:00:00	6	Velocidad del viento	3.2
167214	7	Sololá	713	San Lucas Tolimán	10	San Lucas Tolimán	12	Diciembre	2023-12-26T00:00:00	2024-11-08T07:00:00	7	Dirección del viento	3.22
167215	7	Sololá	713	San Lucas Tolimán	10	San Lucas Tolimán	12	Diciembre	2023-12-26T00:00:00	2024-11-08T07:00:00	1	Precipitación	0
167216	7	Sololá	713	San Lucas Tolimán	10	San Lucas Tolimán	12	Diciembre	2023-12-26T00:00:00	2024-11-08T07:00:00	8	Radiación solar	6
167217	7	Sololá	713	San Lucas Tolimán	10	San Lucas Tolimán	12	Diciembre	2023-12-26T00:00:00	2024-11-08T08:00:00	2	Temperatura media	15.9
167218	7	Sololá	713	San Lucas Tolimán	10	San Lucas Tolimán	12	Diciembre	2023-12-26T00:00:00	2024-11-08T08:00:00	4	Temperatura máxima	16.1
167219	7	Sololá	713	San Lucas Tolimán	10	San Lucas Tolimán	12	Diciembre	2023-12-26T00:00:00	2024-11-08T08:00:00	3	Temperatura mínima	15.3
167220	7	Sololá	713	San Lucas Tolimán	10	San Lucas Tolimán	12	Diciembre	2023-12-26T00:00:00	2024-11-08T08:00:00	5	Humedad	58
167221	7	Sololá	713	San Lucas Tolimán	10	San Lucas Tolimán	12	Diciembre	2023-12-26T00:00:00	2024-11-08T08:00:00	6	Velocidad del viento	4.8
167222	7	Sololá	713	San Lucas Tolimán	10	San Lucas Tolimán	12	Diciembre	2023-12-26T00:00:00	2024-11-08T08:00:00	7	Dirección del viento	4.83
167223	7	Sololá	713	San Lucas Tolimán	10	San Lucas Tolimán	12	Diciembre	2023-12-26T00:00:00	2024-11-08T08:00:00	1	Precipitación	0
167224	7	Sololá	713	San Lucas Tolimán	10	San Lucas Tolimán	12	Diciembre	2023-12-26T00:00:00	2024-11-08T08:00:00	8	Radiación solar	26
167225	7	Sololá	713	San Lucas Tolimán	10	San Lucas Tolimán	12	Diciembre	2023-12-26T00:00:00	2024-11-08T09:00:00	2	Temperatura media	18.3
167226	7	Sololá	713	San Lucas Tolimán	10	San Lucas Tolimán	12	Diciembre	2023-12-26T00:00:00	2024-11-08T09:00:00	4	Temperatura máxima	18.4
167227	7	Sololá	713	San Lucas Tolimán	10	San Lucas Tolimán	12	Diciembre	2023-12-26T00:00:00	2024-11-08T09:00:00	3	Temperatura mínima	15.7
167228	7	Sololá	713	San Lucas Tolimán	10	San Lucas Tolimán	12	Diciembre	2023-12-26T00:00:00	2024-11-08T09:00:00	5	Humedad	55
167229	7	Sololá	713	San Lucas Tolimán	10	San Lucas Tolimán	12	Diciembre	2023-12-26T00:00:00	2024-11-08T09:00:00	6	Velocidad del viento	4.8
167230	7	Sololá	713	San Lucas Tolimán	10	San Lucas Tolimán	12	Diciembre	2023-12-26T00:00:00	2024-11-08T09:00:00	7	Dirección del viento	4.83
167231	7	Sololá	713	San Lucas Tolimán	10	San Lucas Tolimán	12	Diciembre	2023-12-26T00:00:00	2024-11-08T09:00:00	1	Precipitación	0
167232	7	Sololá	713	San Lucas Tolimán	10	San Lucas Tolimán	12	Diciembre	2023-12-26T00:00:00	2024-11-08T09:00:00	8	Radiación solar	290
167233	7	Sololá	713	San Lucas Tolimán	10	San Lucas Tolimán	12	Diciembre	2023-12-26T00:00:00	2024-11-08T10:00:00	2	Temperatura media	20.5
167234	7	Sololá	713	San Lucas Tolimán	10	San Lucas Tolimán	12	Diciembre	2023-12-26T00:00:00	2024-11-08T10:00:00	4	Temperatura máxima	20.5
167235	7	Sololá	713	San Lucas Tolimán	10	San Lucas Tolimán	12	Diciembre	2023-12-26T00:00:00	2024-11-08T10:00:00	3	Temperatura mínima	18.3
167236	7	Sololá	713	San Lucas Tolimán	10	San Lucas Tolimán	12	Diciembre	2023-12-26T00:00:00	2024-11-08T10:00:00	5	Humedad	54
167237	7	Sololá	713	San Lucas Tolimán	10	San Lucas Tolimán	12	Diciembre	2023-12-26T00:00:00	2024-11-08T10:00:00	6	Velocidad del viento	4.8
167238	7	Sololá	713	San Lucas Tolimán	10	San Lucas Tolimán	12	Diciembre	2023-12-26T00:00:00	2024-11-08T10:00:00	7	Dirección del viento	4.83
167239	7	Sololá	713	San Lucas Tolimán	10	San Lucas Tolimán	12	Diciembre	2023-12-26T00:00:00	2024-11-08T10:00:00	1	Precipitación	0
167240	7	Sololá	713	San Lucas Tolimán	10	San Lucas Tolimán	12	Diciembre	2023-12-26T00:00:00	2024-11-08T10:00:00	8	Radiación solar	597
167241	7	Sololá	713	San Lucas Tolimán	10	San Lucas Tolimán	12	Diciembre	2023-12-26T00:00:00	2024-11-08T11:00:00	2	Temperatura media	23.2
167242	7	Sololá	713	San Lucas Tolimán	10	San Lucas Tolimán	12	Diciembre	2023-12-26T00:00:00	2024-11-08T11:00:00	4	Temperatura máxima	23.4
167243	7	Sololá	713	San Lucas Tolimán	10	San Lucas Tolimán	12	Diciembre	2023-12-26T00:00:00	2024-11-08T11:00:00	3	Temperatura mínima	20.5
167244	7	Sololá	713	San Lucas Tolimán	10	San Lucas Tolimán	12	Diciembre	2023-12-26T00:00:00	2024-11-08T11:00:00	5	Humedad	50
167245	7	Sololá	713	San Lucas Tolimán	10	San Lucas Tolimán	12	Diciembre	2023-12-26T00:00:00	2024-11-08T11:00:00	6	Velocidad del viento	4.8
167246	7	Sololá	713	San Lucas Tolimán	10	San Lucas Tolimán	12	Diciembre	2023-12-26T00:00:00	2024-11-08T11:00:00	7	Dirección del viento	4.83
167247	7	Sololá	713	San Lucas Tolimán	10	San Lucas Tolimán	12	Diciembre	2023-12-26T00:00:00	2024-11-08T11:00:00	1	Precipitación	0
167248	7	Sololá	713	San Lucas Tolimán	10	San Lucas Tolimán	12	Diciembre	2023-12-26T00:00:00	2024-11-08T11:00:00	8	Radiación solar	762
167249	7	Sololá	713	San Lucas Tolimán	10	San Lucas Tolimán	12	Diciembre	2023-12-26T00:00:00	2024-11-08T12:00:00	2	Temperatura media	22.9
167250	7	Sololá	713	San Lucas Tolimán	10	San Lucas Tolimán	12	Diciembre	2023-12-26T00:00:00	2024-11-08T12:00:00	4	Temperatura máxima	23.3
167251	7	Sololá	713	San Lucas Tolimán	10	San Lucas Tolimán	12	Diciembre	2023-12-26T00:00:00	2024-11-08T12:00:00	3	Temperatura mínima	22.6
167252	7	Sololá	713	San Lucas Tolimán	10	San Lucas Tolimán	12	Diciembre	2023-12-26T00:00:00	2024-11-08T12:00:00	5	Humedad	51
167253	7	Sololá	713	San Lucas Tolimán	10	San Lucas Tolimán	12	Diciembre	2023-12-26T00:00:00	2024-11-08T12:00:00	6	Velocidad del viento	9.7
167254	7	Sololá	713	San Lucas Tolimán	10	San Lucas Tolimán	12	Diciembre	2023-12-26T00:00:00	2024-11-08T12:00:00	7	Dirección del viento	9.66
167255	7	Sololá	713	San Lucas Tolimán	10	San Lucas Tolimán	12	Diciembre	2023-12-26T00:00:00	2024-11-08T12:00:00	1	Precipitación	0
167256	7	Sololá	713	San Lucas Tolimán	10	San Lucas Tolimán	12	Diciembre	2023-12-26T00:00:00	2024-11-08T12:00:00	8	Radiación solar	846
167257	7	Sololá	713	San Lucas Tolimán	10	San Lucas Tolimán	12	Diciembre	2023-12-26T00:00:00	2024-11-08T13:00:00	2	Temperatura media	22.6
167258	7	Sololá	713	San Lucas Tolimán	10	San Lucas Tolimán	12	Diciembre	2023-12-26T00:00:00	2024-11-08T13:00:00	4	Temperatura máxima	23.2
167259	7	Sololá	713	San Lucas Tolimán	10	San Lucas Tolimán	12	Diciembre	2023-12-26T00:00:00	2024-11-08T13:00:00	3	Temperatura mínima	22.4
167260	7	Sololá	713	San Lucas Tolimán	10	San Lucas Tolimán	12	Diciembre	2023-12-26T00:00:00	2024-11-08T13:00:00	5	Humedad	52
167261	7	Sololá	713	San Lucas Tolimán	10	San Lucas Tolimán	12	Diciembre	2023-12-26T00:00:00	2024-11-08T13:00:00	6	Velocidad del viento	9.7
167262	7	Sololá	713	San Lucas Tolimán	10	San Lucas Tolimán	12	Diciembre	2023-12-26T00:00:00	2024-11-08T13:00:00	7	Dirección del viento	9.66
167263	7	Sololá	713	San Lucas Tolimán	10	San Lucas Tolimán	12	Diciembre	2023-12-26T00:00:00	2024-11-08T13:00:00	1	Precipitación	0
167264	7	Sololá	713	San Lucas Tolimán	10	San Lucas Tolimán	12	Diciembre	2023-12-26T00:00:00	2024-11-08T13:00:00	8	Radiación solar	867
167265	7	Sololá	713	San Lucas Tolimán	10	San Lucas Tolimán	12	Diciembre	2023-12-26T00:00:00	2024-11-08T14:00:00	2	Temperatura media	21.6
167266	7	Sololá	713	San Lucas Tolimán	10	San Lucas Tolimán	12	Diciembre	2023-12-26T00:00:00	2024-11-08T14:00:00	4	Temperatura máxima	22.8
167267	7	Sololá	713	San Lucas Tolimán	10	San Lucas Tolimán	12	Diciembre	2023-12-26T00:00:00	2024-11-08T14:00:00	3	Temperatura mínima	21.6
167268	7	Sololá	713	San Lucas Tolimán	10	San Lucas Tolimán	12	Diciembre	2023-12-26T00:00:00	2024-11-08T14:00:00	5	Humedad	57
167269	7	Sololá	713	San Lucas Tolimán	10	San Lucas Tolimán	12	Diciembre	2023-12-26T00:00:00	2024-11-08T14:00:00	6	Velocidad del viento	11.3
167270	7	Sololá	713	San Lucas Tolimán	10	San Lucas Tolimán	12	Diciembre	2023-12-26T00:00:00	2024-11-08T14:00:00	7	Dirección del viento	11.27
167271	7	Sololá	713	San Lucas Tolimán	10	San Lucas Tolimán	12	Diciembre	2023-12-26T00:00:00	2024-11-08T14:00:00	1	Precipitación	0
167272	7	Sololá	713	San Lucas Tolimán	10	San Lucas Tolimán	12	Diciembre	2023-12-26T00:00:00	2024-11-08T14:00:00	8	Radiación solar	670
167273	7	Sololá	713	San Lucas Tolimán	10	San Lucas Tolimán	12	Diciembre	2023-12-26T00:00:00	2024-11-08T15:00:00	2	Temperatura media	20.5
167274	7	Sololá	713	San Lucas Tolimán	10	San Lucas Tolimán	12	Diciembre	2023-12-26T00:00:00	2024-11-08T15:00:00	4	Temperatura máxima	21.7
167275	7	Sololá	713	San Lucas Tolimán	10	San Lucas Tolimán	12	Diciembre	2023-12-26T00:00:00	2024-11-08T15:00:00	3	Temperatura mínima	20.5
167276	7	Sololá	713	San Lucas Tolimán	10	San Lucas Tolimán	12	Diciembre	2023-12-26T00:00:00	2024-11-08T15:00:00	5	Humedad	59
167277	7	Sololá	713	San Lucas Tolimán	10	San Lucas Tolimán	12	Diciembre	2023-12-26T00:00:00	2024-11-08T15:00:00	6	Velocidad del viento	11.3
167278	7	Sololá	713	San Lucas Tolimán	10	San Lucas Tolimán	12	Diciembre	2023-12-26T00:00:00	2024-11-08T15:00:00	7	Dirección del viento	11.27
167279	7	Sololá	713	San Lucas Tolimán	10	San Lucas Tolimán	12	Diciembre	2023-12-26T00:00:00	2024-11-08T15:00:00	1	Precipitación	0
167280	7	Sololá	713	San Lucas Tolimán	10	San Lucas Tolimán	12	Diciembre	2023-12-26T00:00:00	2024-11-08T15:00:00	8	Radiación solar	354
167281	7	Sololá	713	San Lucas Tolimán	10	San Lucas Tolimán	12	Diciembre	2023-12-26T00:00:00	2024-11-08T16:00:00	2	Temperatura media	20
167282	7	Sololá	713	San Lucas Tolimán	10	San Lucas Tolimán	12	Diciembre	2023-12-26T00:00:00	2024-11-08T16:00:00	4	Temperatura máxima	20.8
167283	7	Sololá	713	San Lucas Tolimán	10	San Lucas Tolimán	12	Diciembre	2023-12-26T00:00:00	2024-11-08T16:00:00	3	Temperatura mínima	20
167284	7	Sololá	713	San Lucas Tolimán	10	San Lucas Tolimán	12	Diciembre	2023-12-26T00:00:00	2024-11-08T16:00:00	5	Humedad	61
167285	7	Sololá	713	San Lucas Tolimán	10	San Lucas Tolimán	12	Diciembre	2023-12-26T00:00:00	2024-11-08T16:00:00	6	Velocidad del viento	9.7
167286	7	Sololá	713	San Lucas Tolimán	10	San Lucas Tolimán	12	Diciembre	2023-12-26T00:00:00	2024-11-08T16:00:00	7	Dirección del viento	9.66
167287	7	Sololá	713	San Lucas Tolimán	10	San Lucas Tolimán	12	Diciembre	2023-12-26T00:00:00	2024-11-08T16:00:00	1	Precipitación	0
167288	7	Sololá	713	San Lucas Tolimán	10	San Lucas Tolimán	12	Diciembre	2023-12-26T00:00:00	2024-11-08T16:00:00	8	Radiación solar	205
167289	7	Sololá	713	San Lucas Tolimán	10	San Lucas Tolimán	12	Diciembre	2023-12-26T00:00:00	2024-11-08T17:00:00	2	Temperatura media	18.8
167290	7	Sololá	713	San Lucas Tolimán	10	San Lucas Tolimán	12	Diciembre	2023-12-26T00:00:00	2024-11-08T17:00:00	4	Temperatura máxima	19.9
167291	7	Sololá	713	San Lucas Tolimán	10	San Lucas Tolimán	12	Diciembre	2023-12-26T00:00:00	2024-11-08T17:00:00	3	Temperatura mínima	18.8
167292	7	Sololá	713	San Lucas Tolimán	10	San Lucas Tolimán	12	Diciembre	2023-12-26T00:00:00	2024-11-08T17:00:00	5	Humedad	60
167293	7	Sololá	713	San Lucas Tolimán	10	San Lucas Tolimán	12	Diciembre	2023-12-26T00:00:00	2024-11-08T17:00:00	6	Velocidad del viento	8
167294	7	Sololá	713	San Lucas Tolimán	10	San Lucas Tolimán	12	Diciembre	2023-12-26T00:00:00	2024-11-08T17:00:00	7	Dirección del viento	8.05
167295	7	Sololá	713	San Lucas Tolimán	10	San Lucas Tolimán	12	Diciembre	2023-12-26T00:00:00	2024-11-08T17:00:00	1	Precipitación	0
167296	7	Sololá	713	San Lucas Tolimán	10	San Lucas Tolimán	12	Diciembre	2023-12-26T00:00:00	2024-11-08T17:00:00	8	Radiación solar	54
167297	7	Sololá	713	San Lucas Tolimán	10	San Lucas Tolimán	12	Diciembre	2023-12-26T00:00:00	2024-11-08T18:00:00	2	Temperatura media	18.4
167298	7	Sololá	713	San Lucas Tolimán	10	San Lucas Tolimán	12	Diciembre	2023-12-26T00:00:00	2024-11-08T18:00:00	4	Temperatura máxima	18.9
167299	7	Sololá	713	San Lucas Tolimán	10	San Lucas Tolimán	12	Diciembre	2023-12-26T00:00:00	2024-11-08T18:00:00	3	Temperatura mínima	18.4
167300	7	Sololá	713	San Lucas Tolimán	10	San Lucas Tolimán	12	Diciembre	2023-12-26T00:00:00	2024-11-08T18:00:00	5	Humedad	60
167301	7	Sololá	713	San Lucas Tolimán	10	San Lucas Tolimán	12	Diciembre	2023-12-26T00:00:00	2024-11-08T18:00:00	6	Velocidad del viento	6.4
167302	7	Sololá	713	San Lucas Tolimán	10	San Lucas Tolimán	12	Diciembre	2023-12-26T00:00:00	2024-11-08T18:00:00	7	Dirección del viento	6.44
167303	7	Sololá	713	San Lucas Tolimán	10	San Lucas Tolimán	12	Diciembre	2023-12-26T00:00:00	2024-11-08T18:00:00	1	Precipitación	0
167304	7	Sololá	713	San Lucas Tolimán	10	San Lucas Tolimán	12	Diciembre	2023-12-26T00:00:00	2024-11-08T18:00:00	8	Radiación solar	7
167305	7	Sololá	713	San Lucas Tolimán	10	San Lucas Tolimán	12	Diciembre	2023-12-26T00:00:00	2024-11-08T19:00:00	2	Temperatura media	17.6
167306	7	Sololá	713	San Lucas Tolimán	10	San Lucas Tolimán	12	Diciembre	2023-12-26T00:00:00	2024-11-08T19:00:00	4	Temperatura máxima	18.5
167307	7	Sololá	713	San Lucas Tolimán	10	San Lucas Tolimán	12	Diciembre	2023-12-26T00:00:00	2024-11-08T19:00:00	3	Temperatura mínima	17.6
167308	7	Sololá	713	San Lucas Tolimán	10	San Lucas Tolimán	12	Diciembre	2023-12-26T00:00:00	2024-11-08T19:00:00	5	Humedad	59
167309	7	Sololá	713	San Lucas Tolimán	10	San Lucas Tolimán	12	Diciembre	2023-12-26T00:00:00	2024-11-08T19:00:00	6	Velocidad del viento	4.8
167310	7	Sololá	713	San Lucas Tolimán	10	San Lucas Tolimán	12	Diciembre	2023-12-26T00:00:00	2024-11-08T19:00:00	7	Dirección del viento	4.83
167311	7	Sololá	713	San Lucas Tolimán	10	San Lucas Tolimán	12	Diciembre	2023-12-26T00:00:00	2024-11-08T19:00:00	1	Precipitación	0
167312	7	Sololá	713	San Lucas Tolimán	10	San Lucas Tolimán	12	Diciembre	2023-12-26T00:00:00	2024-11-08T19:00:00	8	Radiación solar	0
167313	7	Sololá	713	San Lucas Tolimán	10	San Lucas Tolimán	12	Diciembre	2023-12-26T00:00:00	2024-11-08T20:00:00	2	Temperatura media	17.1
167314	7	Sololá	713	San Lucas Tolimán	10	San Lucas Tolimán	12	Diciembre	2023-12-26T00:00:00	2024-11-08T20:00:00	4	Temperatura máxima	17.7
167315	7	Sololá	713	San Lucas Tolimán	10	San Lucas Tolimán	12	Diciembre	2023-12-26T00:00:00	2024-11-08T20:00:00	3	Temperatura mínima	17
167316	7	Sololá	713	San Lucas Tolimán	10	San Lucas Tolimán	12	Diciembre	2023-12-26T00:00:00	2024-11-08T20:00:00	5	Humedad	59
167317	7	Sololá	713	San Lucas Tolimán	10	San Lucas Tolimán	12	Diciembre	2023-12-26T00:00:00	2024-11-08T20:00:00	6	Velocidad del viento	3.2
167318	7	Sololá	713	San Lucas Tolimán	10	San Lucas Tolimán	12	Diciembre	2023-12-26T00:00:00	2024-11-08T20:00:00	7	Dirección del viento	3.22
167319	7	Sololá	713	San Lucas Tolimán	10	San Lucas Tolimán	12	Diciembre	2023-12-26T00:00:00	2024-11-08T20:00:00	1	Precipitación	0
167320	7	Sololá	713	San Lucas Tolimán	10	San Lucas Tolimán	12	Diciembre	2023-12-26T00:00:00	2024-11-08T20:00:00	8	Radiación solar	0
167321	7	Sololá	713	San Lucas Tolimán	10	San Lucas Tolimán	12	Diciembre	2023-12-26T00:00:00	2024-11-08T21:00:00	2	Temperatura media	16.6
167322	7	Sololá	713	San Lucas Tolimán	10	San Lucas Tolimán	12	Diciembre	2023-12-26T00:00:00	2024-11-08T21:00:00	4	Temperatura máxima	17.2
167323	7	Sololá	713	San Lucas Tolimán	10	San Lucas Tolimán	12	Diciembre	2023-12-26T00:00:00	2024-11-08T21:00:00	3	Temperatura mínima	16.3
167324	7	Sololá	713	San Lucas Tolimán	10	San Lucas Tolimán	12	Diciembre	2023-12-26T00:00:00	2024-11-08T21:00:00	5	Humedad	59
167325	7	Sololá	713	San Lucas Tolimán	10	San Lucas Tolimán	12	Diciembre	2023-12-26T00:00:00	2024-11-08T21:00:00	6	Velocidad del viento	3.2
167326	7	Sololá	713	San Lucas Tolimán	10	San Lucas Tolimán	12	Diciembre	2023-12-26T00:00:00	2024-11-08T21:00:00	7	Dirección del viento	3.22
167327	7	Sololá	713	San Lucas Tolimán	10	San Lucas Tolimán	12	Diciembre	2023-12-26T00:00:00	2024-11-08T21:00:00	1	Precipitación	0
167328	7	Sololá	713	San Lucas Tolimán	10	San Lucas Tolimán	12	Diciembre	2023-12-26T00:00:00	2024-11-08T21:00:00	8	Radiación solar	0
167329	7	Sololá	713	San Lucas Tolimán	10	San Lucas Tolimán	12	Diciembre	2023-12-26T00:00:00	2024-11-08T22:00:00	2	Temperatura media	16.3
167330	7	Sololá	713	San Lucas Tolimán	10	San Lucas Tolimán	12	Diciembre	2023-12-26T00:00:00	2024-11-08T22:00:00	4	Temperatura máxima	16.9
167331	7	Sololá	713	San Lucas Tolimán	10	San Lucas Tolimán	12	Diciembre	2023-12-26T00:00:00	2024-11-08T22:00:00	3	Temperatura mínima	16.2
167332	7	Sololá	713	San Lucas Tolimán	10	San Lucas Tolimán	12	Diciembre	2023-12-26T00:00:00	2024-11-08T22:00:00	5	Humedad	59
167333	7	Sololá	713	San Lucas Tolimán	10	San Lucas Tolimán	12	Diciembre	2023-12-26T00:00:00	2024-11-08T22:00:00	6	Velocidad del viento	1.6
167334	7	Sololá	713	San Lucas Tolimán	10	San Lucas Tolimán	12	Diciembre	2023-12-26T00:00:00	2024-11-08T22:00:00	7	Dirección del viento	1.61
167335	7	Sololá	713	San Lucas Tolimán	10	San Lucas Tolimán	12	Diciembre	2023-12-26T00:00:00	2024-11-08T22:00:00	1	Precipitación	0
167336	7	Sololá	713	San Lucas Tolimán	10	San Lucas Tolimán	12	Diciembre	2023-12-26T00:00:00	2024-11-08T22:00:00	8	Radiación solar	0
167337	7	Sololá	713	San Lucas Tolimán	10	San Lucas Tolimán	12	Diciembre	2023-12-26T00:00:00	2024-11-08T23:00:00	2	Temperatura media	15.6
167338	7	Sololá	713	San Lucas Tolimán	10	San Lucas Tolimán	12	Diciembre	2023-12-26T00:00:00	2024-11-08T23:00:00	4	Temperatura máxima	16.3
167339	7	Sololá	713	San Lucas Tolimán	10	San Lucas Tolimán	12	Diciembre	2023-12-26T00:00:00	2024-11-08T23:00:00	3	Temperatura mínima	15.5
167340	7	Sololá	713	San Lucas Tolimán	10	San Lucas Tolimán	12	Diciembre	2023-12-26T00:00:00	2024-11-08T23:00:00	5	Humedad	58
167341	7	Sololá	713	San Lucas Tolimán	10	San Lucas Tolimán	12	Diciembre	2023-12-26T00:00:00	2024-11-08T23:00:00	6	Velocidad del viento	1.6
167342	7	Sololá	713	San Lucas Tolimán	10	San Lucas Tolimán	12	Diciembre	2023-12-26T00:00:00	2024-11-08T23:00:00	7	Dirección del viento	1.61
167343	7	Sololá	713	San Lucas Tolimán	10	San Lucas Tolimán	12	Diciembre	2023-12-26T00:00:00	2024-11-08T23:00:00	1	Precipitación	0
167344	7	Sololá	713	San Lucas Tolimán	10	San Lucas Tolimán	12	Diciembre	2023-12-26T00:00:00	2024-11-08T23:00:00	8	Radiación solar	0
167345	7	Sololá	713	San Lucas Tolimán	10	San Lucas Tolimán	12	Diciembre	2023-12-27T00:00:00	2024-11-08T00:00:00	2	Temperatura media	14.6
167346	7	Sololá	713	San Lucas Tolimán	10	San Lucas Tolimán	12	Diciembre	2023-12-27T00:00:00	2024-11-08T00:00:00	4	Temperatura máxima	15.6
167347	7	Sololá	713	San Lucas Tolimán	10	San Lucas Tolimán	12	Diciembre	2023-12-27T00:00:00	2024-11-08T00:00:00	3	Temperatura mínima	14.6
167348	7	Sololá	713	San Lucas Tolimán	10	San Lucas Tolimán	12	Diciembre	2023-12-27T00:00:00	2024-11-08T00:00:00	5	Humedad	60
167349	7	Sololá	713	San Lucas Tolimán	10	San Lucas Tolimán	12	Diciembre	2023-12-27T00:00:00	2024-11-08T00:00:00	6	Velocidad del viento	3.2
167350	7	Sololá	713	San Lucas Tolimán	10	San Lucas Tolimán	12	Diciembre	2023-12-27T00:00:00	2024-11-08T00:00:00	7	Dirección del viento	3.22
167351	7	Sololá	713	San Lucas Tolimán	10	San Lucas Tolimán	12	Diciembre	2023-12-27T00:00:00	2024-11-08T00:00:00	1	Precipitación	0
167352	7	Sololá	713	San Lucas Tolimán	10	San Lucas Tolimán	12	Diciembre	2023-12-27T00:00:00	2024-11-08T00:00:00	8	Radiación solar	0
167353	7	Sololá	713	San Lucas Tolimán	10	San Lucas Tolimán	12	Diciembre	2023-12-27T00:00:00	2024-11-08T01:00:00	2	Temperatura media	15
167354	7	Sololá	713	San Lucas Tolimán	10	San Lucas Tolimán	12	Diciembre	2023-12-27T00:00:00	2024-11-08T01:00:00	4	Temperatura máxima	15.4
167355	7	Sololá	713	San Lucas Tolimán	10	San Lucas Tolimán	12	Diciembre	2023-12-27T00:00:00	2024-11-08T01:00:00	3	Temperatura mínima	14.6
167356	7	Sololá	713	San Lucas Tolimán	10	San Lucas Tolimán	12	Diciembre	2023-12-27T00:00:00	2024-11-08T01:00:00	5	Humedad	57
167357	7	Sololá	713	San Lucas Tolimán	10	San Lucas Tolimán	12	Diciembre	2023-12-27T00:00:00	2024-11-08T01:00:00	6	Velocidad del viento	3.2
167358	7	Sololá	713	San Lucas Tolimán	10	San Lucas Tolimán	12	Diciembre	2023-12-27T00:00:00	2024-11-08T01:00:00	7	Dirección del viento	3.22
167359	7	Sololá	713	San Lucas Tolimán	10	San Lucas Tolimán	12	Diciembre	2023-12-27T00:00:00	2024-11-08T01:00:00	1	Precipitación	0
167360	7	Sololá	713	San Lucas Tolimán	10	San Lucas Tolimán	12	Diciembre	2023-12-27T00:00:00	2024-11-08T01:00:00	8	Radiación solar	0
167361	7	Sololá	713	San Lucas Tolimán	10	San Lucas Tolimán	12	Diciembre	2023-12-27T00:00:00	2024-11-08T02:00:00	2	Temperatura media	15.2
167362	7	Sololá	713	San Lucas Tolimán	10	San Lucas Tolimán	12	Diciembre	2023-12-27T00:00:00	2024-11-08T02:00:00	4	Temperatura máxima	15.2
167363	7	Sololá	713	San Lucas Tolimán	10	San Lucas Tolimán	12	Diciembre	2023-12-27T00:00:00	2024-11-08T02:00:00	3	Temperatura mínima	14.4
167364	7	Sololá	713	San Lucas Tolimán	10	San Lucas Tolimán	12	Diciembre	2023-12-27T00:00:00	2024-11-08T02:00:00	5	Humedad	61
167365	7	Sololá	713	San Lucas Tolimán	10	San Lucas Tolimán	12	Diciembre	2023-12-27T00:00:00	2024-11-08T02:00:00	6	Velocidad del viento	1.6
167366	7	Sololá	713	San Lucas Tolimán	10	San Lucas Tolimán	12	Diciembre	2023-12-27T00:00:00	2024-11-08T02:00:00	7	Dirección del viento	1.61
167367	7	Sololá	713	San Lucas Tolimán	10	San Lucas Tolimán	12	Diciembre	2023-12-27T00:00:00	2024-11-08T02:00:00	1	Precipitación	0
167368	7	Sololá	713	San Lucas Tolimán	10	San Lucas Tolimán	12	Diciembre	2023-12-27T00:00:00	2024-11-08T02:00:00	8	Radiación solar	0
167369	7	Sololá	713	San Lucas Tolimán	10	San Lucas Tolimán	12	Diciembre	2023-12-27T00:00:00	2024-11-08T03:00:00	2	Temperatura media	15.9
167370	7	Sololá	713	San Lucas Tolimán	10	San Lucas Tolimán	12	Diciembre	2023-12-27T00:00:00	2024-11-08T03:00:00	4	Temperatura máxima	15.9
167371	7	Sololá	713	San Lucas Tolimán	10	San Lucas Tolimán	12	Diciembre	2023-12-27T00:00:00	2024-11-08T03:00:00	3	Temperatura mínima	15.1
167372	7	Sololá	713	San Lucas Tolimán	10	San Lucas Tolimán	12	Diciembre	2023-12-27T00:00:00	2024-11-08T03:00:00	5	Humedad	59
167373	7	Sololá	713	San Lucas Tolimán	10	San Lucas Tolimán	12	Diciembre	2023-12-27T00:00:00	2024-11-08T03:00:00	6	Velocidad del viento	1.6
167374	7	Sololá	713	San Lucas Tolimán	10	San Lucas Tolimán	12	Diciembre	2023-12-27T00:00:00	2024-11-08T03:00:00	7	Dirección del viento	1.61
167375	7	Sololá	713	San Lucas Tolimán	10	San Lucas Tolimán	12	Diciembre	2023-12-27T00:00:00	2024-11-08T03:00:00	1	Precipitación	0
167376	7	Sololá	713	San Lucas Tolimán	10	San Lucas Tolimán	12	Diciembre	2023-12-27T00:00:00	2024-11-08T03:00:00	8	Radiación solar	0
167377	7	Sololá	713	San Lucas Tolimán	10	San Lucas Tolimán	12	Diciembre	2023-12-27T00:00:00	2024-11-08T04:00:00	2	Temperatura media	14.3
167378	7	Sololá	713	San Lucas Tolimán	10	San Lucas Tolimán	12	Diciembre	2023-12-27T00:00:00	2024-11-08T04:00:00	4	Temperatura máxima	15.9
167379	7	Sololá	713	San Lucas Tolimán	10	San Lucas Tolimán	12	Diciembre	2023-12-27T00:00:00	2024-11-08T04:00:00	3	Temperatura mínima	14.3
167380	7	Sololá	713	San Lucas Tolimán	10	San Lucas Tolimán	12	Diciembre	2023-12-27T00:00:00	2024-11-08T04:00:00	5	Humedad	59
167381	7	Sololá	713	San Lucas Tolimán	10	San Lucas Tolimán	12	Diciembre	2023-12-27T00:00:00	2024-11-08T04:00:00	6	Velocidad del viento	0
167382	7	Sololá	713	San Lucas Tolimán	10	San Lucas Tolimán	12	Diciembre	2023-12-27T00:00:00	2024-11-08T04:00:00	7	Dirección del viento	0
167383	7	Sololá	713	San Lucas Tolimán	10	San Lucas Tolimán	12	Diciembre	2023-12-27T00:00:00	2024-11-08T04:00:00	1	Precipitación	0
167384	7	Sololá	713	San Lucas Tolimán	10	San Lucas Tolimán	12	Diciembre	2023-12-27T00:00:00	2024-11-08T04:00:00	8	Radiación solar	0
167385	7	Sololá	713	San Lucas Tolimán	10	San Lucas Tolimán	12	Diciembre	2023-12-27T00:00:00	2024-11-08T05:00:00	2	Temperatura media	13.8
167386	7	Sololá	713	San Lucas Tolimán	10	San Lucas Tolimán	12	Diciembre	2023-12-27T00:00:00	2024-11-08T05:00:00	4	Temperatura máxima	14.3
167387	7	Sololá	713	San Lucas Tolimán	10	San Lucas Tolimán	12	Diciembre	2023-12-27T00:00:00	2024-11-08T05:00:00	3	Temperatura mínima	13.8
167388	7	Sololá	713	San Lucas Tolimán	10	San Lucas Tolimán	12	Diciembre	2023-12-27T00:00:00	2024-11-08T05:00:00	5	Humedad	59
167389	7	Sololá	713	San Lucas Tolimán	10	San Lucas Tolimán	12	Diciembre	2023-12-27T00:00:00	2024-11-08T05:00:00	6	Velocidad del viento	0
167390	7	Sololá	713	San Lucas Tolimán	10	San Lucas Tolimán	12	Diciembre	2023-12-27T00:00:00	2024-11-08T05:00:00	7	Dirección del viento	0
167391	7	Sololá	713	San Lucas Tolimán	10	San Lucas Tolimán	12	Diciembre	2023-12-27T00:00:00	2024-11-08T05:00:00	1	Precipitación	0
167392	7	Sololá	713	San Lucas Tolimán	10	San Lucas Tolimán	12	Diciembre	2023-12-27T00:00:00	2024-11-08T05:00:00	8	Radiación solar	0
167393	7	Sololá	713	San Lucas Tolimán	10	San Lucas Tolimán	12	Diciembre	2023-12-27T00:00:00	2024-11-08T06:00:00	2	Temperatura media	13.7
167394	7	Sololá	713	San Lucas Tolimán	10	San Lucas Tolimán	12	Diciembre	2023-12-27T00:00:00	2024-11-08T06:00:00	4	Temperatura máxima	13.8
167395	7	Sololá	713	San Lucas Tolimán	10	San Lucas Tolimán	12	Diciembre	2023-12-27T00:00:00	2024-11-08T06:00:00	3	Temperatura mínima	13.6
167396	7	Sololá	713	San Lucas Tolimán	10	San Lucas Tolimán	12	Diciembre	2023-12-27T00:00:00	2024-11-08T06:00:00	5	Humedad	59
167397	7	Sololá	713	San Lucas Tolimán	10	San Lucas Tolimán	12	Diciembre	2023-12-27T00:00:00	2024-11-08T06:00:00	6	Velocidad del viento	0
167398	7	Sololá	713	San Lucas Tolimán	10	San Lucas Tolimán	12	Diciembre	2023-12-27T00:00:00	2024-11-08T06:00:00	7	Dirección del viento	0
167399	7	Sololá	713	San Lucas Tolimán	10	San Lucas Tolimán	12	Diciembre	2023-12-27T00:00:00	2024-11-08T06:00:00	1	Precipitación	0
167400	7	Sololá	713	San Lucas Tolimán	10	San Lucas Tolimán	12	Diciembre	2023-12-27T00:00:00	2024-11-08T06:00:00	8	Radiación solar	0
167401	7	Sololá	713	San Lucas Tolimán	10	San Lucas Tolimán	12	Diciembre	2023-12-27T00:00:00	2024-11-08T07:00:00	2	Temperatura media	14.1
167402	7	Sololá	713	San Lucas Tolimán	10	San Lucas Tolimán	12	Diciembre	2023-12-27T00:00:00	2024-11-08T07:00:00	4	Temperatura máxima	14.2
167403	7	Sololá	713	San Lucas Tolimán	10	San Lucas Tolimán	12	Diciembre	2023-12-27T00:00:00	2024-11-08T07:00:00	3	Temperatura mínima	13.4
167404	7	Sololá	713	San Lucas Tolimán	10	San Lucas Tolimán	12	Diciembre	2023-12-27T00:00:00	2024-11-08T07:00:00	5	Humedad	57
167405	7	Sololá	713	San Lucas Tolimán	10	San Lucas Tolimán	12	Diciembre	2023-12-27T00:00:00	2024-11-08T07:00:00	6	Velocidad del viento	1.6
167406	7	Sololá	713	San Lucas Tolimán	10	San Lucas Tolimán	12	Diciembre	2023-12-27T00:00:00	2024-11-08T07:00:00	7	Dirección del viento	1.61
167407	7	Sololá	713	San Lucas Tolimán	10	San Lucas Tolimán	12	Diciembre	2023-12-27T00:00:00	2024-11-08T07:00:00	1	Precipitación	0
167408	7	Sololá	713	San Lucas Tolimán	10	San Lucas Tolimán	12	Diciembre	2023-12-27T00:00:00	2024-11-08T07:00:00	8	Radiación solar	5
167409	7	Sololá	713	San Lucas Tolimán	10	San Lucas Tolimán	12	Diciembre	2023-12-27T00:00:00	2024-11-08T08:00:00	2	Temperatura media	15
167410	7	Sololá	713	San Lucas Tolimán	10	San Lucas Tolimán	12	Diciembre	2023-12-27T00:00:00	2024-11-08T08:00:00	4	Temperatura máxima	15
167411	7	Sololá	713	San Lucas Tolimán	10	San Lucas Tolimán	12	Diciembre	2023-12-27T00:00:00	2024-11-08T08:00:00	3	Temperatura mínima	13.8
167412	7	Sololá	713	San Lucas Tolimán	10	San Lucas Tolimán	12	Diciembre	2023-12-27T00:00:00	2024-11-08T08:00:00	5	Humedad	56
167413	7	Sololá	713	San Lucas Tolimán	10	San Lucas Tolimán	12	Diciembre	2023-12-27T00:00:00	2024-11-08T08:00:00	6	Velocidad del viento	3.2
167414	7	Sololá	713	San Lucas Tolimán	10	San Lucas Tolimán	12	Diciembre	2023-12-27T00:00:00	2024-11-08T08:00:00	7	Dirección del viento	3.22
167415	7	Sololá	713	San Lucas Tolimán	10	San Lucas Tolimán	12	Diciembre	2023-12-27T00:00:00	2024-11-08T08:00:00	1	Precipitación	0
167416	7	Sololá	713	San Lucas Tolimán	10	San Lucas Tolimán	12	Diciembre	2023-12-27T00:00:00	2024-11-08T08:00:00	8	Radiación solar	26
167417	7	Sololá	713	San Lucas Tolimán	10	San Lucas Tolimán	12	Diciembre	2023-12-27T00:00:00	2024-11-08T09:00:00	2	Temperatura media	17.5
167418	7	Sololá	713	San Lucas Tolimán	10	San Lucas Tolimán	12	Diciembre	2023-12-27T00:00:00	2024-11-08T09:00:00	4	Temperatura máxima	17.7
167419	7	Sololá	713	San Lucas Tolimán	10	San Lucas Tolimán	12	Diciembre	2023-12-27T00:00:00	2024-11-08T09:00:00	3	Temperatura mínima	15
167420	7	Sololá	713	San Lucas Tolimán	10	San Lucas Tolimán	12	Diciembre	2023-12-27T00:00:00	2024-11-08T09:00:00	5	Humedad	55
167421	7	Sololá	713	San Lucas Tolimán	10	San Lucas Tolimán	12	Diciembre	2023-12-27T00:00:00	2024-11-08T09:00:00	6	Velocidad del viento	3.2
167422	7	Sololá	713	San Lucas Tolimán	10	San Lucas Tolimán	12	Diciembre	2023-12-27T00:00:00	2024-11-08T09:00:00	7	Dirección del viento	3.22
167423	7	Sololá	713	San Lucas Tolimán	10	San Lucas Tolimán	12	Diciembre	2023-12-27T00:00:00	2024-11-08T09:00:00	1	Precipitación	0
167424	7	Sololá	713	San Lucas Tolimán	10	San Lucas Tolimán	12	Diciembre	2023-12-27T00:00:00	2024-11-08T09:00:00	8	Radiación solar	254
167425	7	Sololá	713	San Lucas Tolimán	10	San Lucas Tolimán	12	Diciembre	2023-12-27T00:00:00	2024-11-08T10:00:00	2	Temperatura media	19.4
167426	7	Sololá	713	San Lucas Tolimán	10	San Lucas Tolimán	12	Diciembre	2023-12-27T00:00:00	2024-11-08T10:00:00	4	Temperatura máxima	19.4
167427	7	Sololá	713	San Lucas Tolimán	10	San Lucas Tolimán	12	Diciembre	2023-12-27T00:00:00	2024-11-08T10:00:00	3	Temperatura mínima	17.5
167428	7	Sololá	713	San Lucas Tolimán	10	San Lucas Tolimán	12	Diciembre	2023-12-27T00:00:00	2024-11-08T10:00:00	5	Humedad	53
167429	7	Sololá	713	San Lucas Tolimán	10	San Lucas Tolimán	12	Diciembre	2023-12-27T00:00:00	2024-11-08T10:00:00	6	Velocidad del viento	4.8
167430	7	Sololá	713	San Lucas Tolimán	10	San Lucas Tolimán	12	Diciembre	2023-12-27T00:00:00	2024-11-08T10:00:00	7	Dirección del viento	4.83
167431	7	Sololá	713	San Lucas Tolimán	10	San Lucas Tolimán	12	Diciembre	2023-12-27T00:00:00	2024-11-08T10:00:00	1	Precipitación	0
167432	7	Sololá	713	San Lucas Tolimán	10	San Lucas Tolimán	12	Diciembre	2023-12-27T00:00:00	2024-11-08T10:00:00	8	Radiación solar	477
167433	7	Sololá	713	San Lucas Tolimán	10	San Lucas Tolimán	12	Diciembre	2023-12-27T00:00:00	2024-11-08T11:00:00	2	Temperatura media	22.2
167434	7	Sololá	713	San Lucas Tolimán	10	San Lucas Tolimán	12	Diciembre	2023-12-27T00:00:00	2024-11-08T11:00:00	4	Temperatura máxima	22.2
167435	7	Sololá	713	San Lucas Tolimán	10	San Lucas Tolimán	12	Diciembre	2023-12-27T00:00:00	2024-11-08T11:00:00	3	Temperatura mínima	19.4
167436	7	Sololá	713	San Lucas Tolimán	10	San Lucas Tolimán	12	Diciembre	2023-12-27T00:00:00	2024-11-08T11:00:00	5	Humedad	47
167437	7	Sololá	713	San Lucas Tolimán	10	San Lucas Tolimán	12	Diciembre	2023-12-27T00:00:00	2024-11-08T11:00:00	6	Velocidad del viento	4.8
167438	7	Sololá	713	San Lucas Tolimán	10	San Lucas Tolimán	12	Diciembre	2023-12-27T00:00:00	2024-11-08T11:00:00	7	Dirección del viento	4.83
167439	7	Sololá	713	San Lucas Tolimán	10	San Lucas Tolimán	12	Diciembre	2023-12-27T00:00:00	2024-11-08T11:00:00	1	Precipitación	0
167440	7	Sololá	713	San Lucas Tolimán	10	San Lucas Tolimán	12	Diciembre	2023-12-27T00:00:00	2024-11-08T11:00:00	8	Radiación solar	610
167441	7	Sololá	713	San Lucas Tolimán	10	San Lucas Tolimán	12	Diciembre	2023-12-27T00:00:00	2024-11-08T12:00:00	2	Temperatura media	22
167442	7	Sololá	713	San Lucas Tolimán	10	San Lucas Tolimán	12	Diciembre	2023-12-27T00:00:00	2024-11-08T12:00:00	4	Temperatura máxima	22.7
167443	7	Sololá	713	San Lucas Tolimán	10	San Lucas Tolimán	12	Diciembre	2023-12-27T00:00:00	2024-11-08T12:00:00	3	Temperatura mínima	21.8
167444	7	Sololá	713	San Lucas Tolimán	10	San Lucas Tolimán	12	Diciembre	2023-12-27T00:00:00	2024-11-08T12:00:00	5	Humedad	50
167445	7	Sololá	713	San Lucas Tolimán	10	San Lucas Tolimán	12	Diciembre	2023-12-27T00:00:00	2024-11-08T12:00:00	6	Velocidad del viento	6.4
167446	7	Sololá	713	San Lucas Tolimán	10	San Lucas Tolimán	12	Diciembre	2023-12-27T00:00:00	2024-11-08T12:00:00	7	Dirección del viento	6.44
167447	7	Sololá	713	San Lucas Tolimán	10	San Lucas Tolimán	12	Diciembre	2023-12-27T00:00:00	2024-11-08T12:00:00	1	Precipitación	0
167448	7	Sololá	713	San Lucas Tolimán	10	San Lucas Tolimán	12	Diciembre	2023-12-27T00:00:00	2024-11-08T12:00:00	8	Radiación solar	560
167449	7	Sololá	713	San Lucas Tolimán	10	San Lucas Tolimán	12	Diciembre	2023-12-27T00:00:00	2024-11-08T13:00:00	2	Temperatura media	22.5
167450	7	Sololá	713	San Lucas Tolimán	10	San Lucas Tolimán	12	Diciembre	2023-12-27T00:00:00	2024-11-08T13:00:00	4	Temperatura máxima	22.7
167451	7	Sololá	713	San Lucas Tolimán	10	San Lucas Tolimán	12	Diciembre	2023-12-27T00:00:00	2024-11-08T13:00:00	3	Temperatura mínima	21.7
167452	7	Sololá	713	San Lucas Tolimán	10	San Lucas Tolimán	12	Diciembre	2023-12-27T00:00:00	2024-11-08T13:00:00	5	Humedad	50
167453	7	Sololá	713	San Lucas Tolimán	10	San Lucas Tolimán	12	Diciembre	2023-12-27T00:00:00	2024-11-08T13:00:00	6	Velocidad del viento	8
167454	7	Sololá	713	San Lucas Tolimán	10	San Lucas Tolimán	12	Diciembre	2023-12-27T00:00:00	2024-11-08T13:00:00	7	Dirección del viento	8.05
167455	7	Sololá	713	San Lucas Tolimán	10	San Lucas Tolimán	12	Diciembre	2023-12-27T00:00:00	2024-11-08T13:00:00	1	Precipitación	0
167456	7	Sololá	713	San Lucas Tolimán	10	San Lucas Tolimán	12	Diciembre	2023-12-27T00:00:00	2024-11-08T13:00:00	8	Radiación solar	894
167457	7	Sololá	713	San Lucas Tolimán	10	San Lucas Tolimán	12	Diciembre	2023-12-27T00:00:00	2024-11-08T14:00:00	2	Temperatura media	22.1
167458	7	Sololá	713	San Lucas Tolimán	10	San Lucas Tolimán	12	Diciembre	2023-12-27T00:00:00	2024-11-08T14:00:00	4	Temperatura máxima	23
167459	7	Sololá	713	San Lucas Tolimán	10	San Lucas Tolimán	12	Diciembre	2023-12-27T00:00:00	2024-11-08T14:00:00	3	Temperatura mínima	22
167460	7	Sololá	713	San Lucas Tolimán	10	San Lucas Tolimán	12	Diciembre	2023-12-27T00:00:00	2024-11-08T14:00:00	5	Humedad	55
167461	7	Sololá	713	San Lucas Tolimán	10	San Lucas Tolimán	12	Diciembre	2023-12-27T00:00:00	2024-11-08T14:00:00	6	Velocidad del viento	11.3
167462	7	Sololá	713	San Lucas Tolimán	10	San Lucas Tolimán	12	Diciembre	2023-12-27T00:00:00	2024-11-08T14:00:00	7	Dirección del viento	11.27
167463	7	Sololá	713	San Lucas Tolimán	10	San Lucas Tolimán	12	Diciembre	2023-12-27T00:00:00	2024-11-08T14:00:00	1	Precipitación	0
167464	7	Sololá	713	San Lucas Tolimán	10	San Lucas Tolimán	12	Diciembre	2023-12-27T00:00:00	2024-11-08T14:00:00	8	Radiación solar	793
167465	7	Sololá	713	San Lucas Tolimán	10	San Lucas Tolimán	12	Diciembre	2023-12-27T00:00:00	2024-11-08T15:00:00	2	Temperatura media	21.6
167466	7	Sololá	713	San Lucas Tolimán	10	San Lucas Tolimán	12	Diciembre	2023-12-27T00:00:00	2024-11-08T15:00:00	4	Temperatura máxima	22.2
167467	7	Sololá	713	San Lucas Tolimán	10	San Lucas Tolimán	12	Diciembre	2023-12-27T00:00:00	2024-11-08T15:00:00	3	Temperatura mínima	21.4
167468	7	Sololá	713	San Lucas Tolimán	10	San Lucas Tolimán	12	Diciembre	2023-12-27T00:00:00	2024-11-08T15:00:00	5	Humedad	56
167469	7	Sololá	713	San Lucas Tolimán	10	San Lucas Tolimán	12	Diciembre	2023-12-27T00:00:00	2024-11-08T15:00:00	6	Velocidad del viento	11.3
167470	7	Sololá	713	San Lucas Tolimán	10	San Lucas Tolimán	12	Diciembre	2023-12-27T00:00:00	2024-11-08T15:00:00	7	Dirección del viento	11.27
167471	7	Sololá	713	San Lucas Tolimán	10	San Lucas Tolimán	12	Diciembre	2023-12-27T00:00:00	2024-11-08T15:00:00	1	Precipitación	0
167472	7	Sololá	713	San Lucas Tolimán	10	San Lucas Tolimán	12	Diciembre	2023-12-27T00:00:00	2024-11-08T15:00:00	8	Radiación solar	664
167473	7	Sololá	713	San Lucas Tolimán	10	San Lucas Tolimán	12	Diciembre	2023-12-27T00:00:00	2024-11-08T16:00:00	2	Temperatura media	21.1
167474	7	Sololá	713	San Lucas Tolimán	10	San Lucas Tolimán	12	Diciembre	2023-12-27T00:00:00	2024-11-08T16:00:00	4	Temperatura máxima	21.8
167475	7	Sololá	713	San Lucas Tolimán	10	San Lucas Tolimán	12	Diciembre	2023-12-27T00:00:00	2024-11-08T16:00:00	3	Temperatura mínima	21
167476	7	Sololá	713	San Lucas Tolimán	10	San Lucas Tolimán	12	Diciembre	2023-12-27T00:00:00	2024-11-08T16:00:00	5	Humedad	58
167477	7	Sololá	713	San Lucas Tolimán	10	San Lucas Tolimán	12	Diciembre	2023-12-27T00:00:00	2024-11-08T16:00:00	6	Velocidad del viento	11.3
167478	7	Sololá	713	San Lucas Tolimán	10	San Lucas Tolimán	12	Diciembre	2023-12-27T00:00:00	2024-11-08T16:00:00	7	Dirección del viento	11.27
167479	7	Sololá	713	San Lucas Tolimán	10	San Lucas Tolimán	12	Diciembre	2023-12-27T00:00:00	2024-11-08T16:00:00	1	Precipitación	0
167480	7	Sololá	713	San Lucas Tolimán	10	San Lucas Tolimán	12	Diciembre	2023-12-27T00:00:00	2024-11-08T16:00:00	8	Radiación solar	410
167481	7	Sololá	713	San Lucas Tolimán	10	San Lucas Tolimán	12	Diciembre	2023-12-27T00:00:00	2024-11-08T17:00:00	2	Temperatura media	19.3
167482	7	Sololá	713	San Lucas Tolimán	10	San Lucas Tolimán	12	Diciembre	2023-12-27T00:00:00	2024-11-08T17:00:00	4	Temperatura máxima	21.1
167483	7	Sololá	713	San Lucas Tolimán	10	San Lucas Tolimán	12	Diciembre	2023-12-27T00:00:00	2024-11-08T17:00:00	3	Temperatura mínima	19.3
167484	7	Sololá	713	San Lucas Tolimán	10	San Lucas Tolimán	12	Diciembre	2023-12-27T00:00:00	2024-11-08T17:00:00	5	Humedad	61
167485	7	Sololá	713	San Lucas Tolimán	10	San Lucas Tolimán	12	Diciembre	2023-12-27T00:00:00	2024-11-08T17:00:00	6	Velocidad del viento	11.3
167486	7	Sololá	713	San Lucas Tolimán	10	San Lucas Tolimán	12	Diciembre	2023-12-27T00:00:00	2024-11-08T17:00:00	7	Dirección del viento	11.27
167487	7	Sololá	713	San Lucas Tolimán	10	San Lucas Tolimán	12	Diciembre	2023-12-27T00:00:00	2024-11-08T17:00:00	1	Precipitación	0
167488	7	Sololá	713	San Lucas Tolimán	10	San Lucas Tolimán	12	Diciembre	2023-12-27T00:00:00	2024-11-08T17:00:00	8	Radiación solar	164
167489	7	Sololá	713	San Lucas Tolimán	10	San Lucas Tolimán	12	Diciembre	2023-12-27T00:00:00	2024-11-08T18:00:00	2	Temperatura media	18.4
167490	7	Sololá	713	San Lucas Tolimán	10	San Lucas Tolimán	12	Diciembre	2023-12-27T00:00:00	2024-11-08T18:00:00	4	Temperatura máxima	19.3
167491	7	Sololá	713	San Lucas Tolimán	10	San Lucas Tolimán	12	Diciembre	2023-12-27T00:00:00	2024-11-08T18:00:00	3	Temperatura mínima	18.4
167492	7	Sololá	713	San Lucas Tolimán	10	San Lucas Tolimán	12	Diciembre	2023-12-27T00:00:00	2024-11-08T18:00:00	5	Humedad	59
167493	7	Sololá	713	San Lucas Tolimán	10	San Lucas Tolimán	12	Diciembre	2023-12-27T00:00:00	2024-11-08T18:00:00	6	Velocidad del viento	6.4
167494	7	Sololá	713	San Lucas Tolimán	10	San Lucas Tolimán	12	Diciembre	2023-12-27T00:00:00	2024-11-08T18:00:00	7	Dirección del viento	6.44
167495	7	Sololá	713	San Lucas Tolimán	10	San Lucas Tolimán	12	Diciembre	2023-12-27T00:00:00	2024-11-08T18:00:00	1	Precipitación	0
167496	7	Sololá	713	San Lucas Tolimán	10	San Lucas Tolimán	12	Diciembre	2023-12-27T00:00:00	2024-11-08T18:00:00	8	Radiación solar	11
167497	7	Sololá	713	San Lucas Tolimán	10	San Lucas Tolimán	12	Diciembre	2023-12-27T00:00:00	2024-11-08T19:00:00	2	Temperatura media	17.2
167498	7	Sololá	713	San Lucas Tolimán	10	San Lucas Tolimán	12	Diciembre	2023-12-27T00:00:00	2024-11-08T19:00:00	4	Temperatura máxima	18.4
167499	7	Sololá	713	San Lucas Tolimán	10	San Lucas Tolimán	12	Diciembre	2023-12-27T00:00:00	2024-11-08T19:00:00	3	Temperatura mínima	17.2
167500	7	Sololá	713	San Lucas Tolimán	10	San Lucas Tolimán	12	Diciembre	2023-12-27T00:00:00	2024-11-08T19:00:00	5	Humedad	55
167501	7	Sololá	713	San Lucas Tolimán	10	San Lucas Tolimán	12	Diciembre	2023-12-27T00:00:00	2024-11-08T19:00:00	6	Velocidad del viento	3.2
167502	7	Sololá	713	San Lucas Tolimán	10	San Lucas Tolimán	12	Diciembre	2023-12-27T00:00:00	2024-11-08T19:00:00	7	Dirección del viento	3.22
167503	7	Sololá	713	San Lucas Tolimán	10	San Lucas Tolimán	12	Diciembre	2023-12-27T00:00:00	2024-11-08T19:00:00	1	Precipitación	0
167504	7	Sololá	713	San Lucas Tolimán	10	San Lucas Tolimán	12	Diciembre	2023-12-27T00:00:00	2024-11-08T19:00:00	8	Radiación solar	0
167505	7	Sololá	713	San Lucas Tolimán	10	San Lucas Tolimán	12	Diciembre	2023-12-27T00:00:00	2024-11-08T20:00:00	2	Temperatura media	16.1
167506	7	Sololá	713	San Lucas Tolimán	10	San Lucas Tolimán	12	Diciembre	2023-12-27T00:00:00	2024-11-08T20:00:00	4	Temperatura máxima	17.2
167507	7	Sololá	713	San Lucas Tolimán	10	San Lucas Tolimán	12	Diciembre	2023-12-27T00:00:00	2024-11-08T20:00:00	3	Temperatura mínima	16.1
167508	7	Sololá	713	San Lucas Tolimán	10	San Lucas Tolimán	12	Diciembre	2023-12-27T00:00:00	2024-11-08T20:00:00	5	Humedad	59
167509	7	Sololá	713	San Lucas Tolimán	10	San Lucas Tolimán	12	Diciembre	2023-12-27T00:00:00	2024-11-08T20:00:00	6	Velocidad del viento	3.2
167510	7	Sololá	713	San Lucas Tolimán	10	San Lucas Tolimán	12	Diciembre	2023-12-27T00:00:00	2024-11-08T20:00:00	7	Dirección del viento	3.22
167511	7	Sololá	713	San Lucas Tolimán	10	San Lucas Tolimán	12	Diciembre	2023-12-27T00:00:00	2024-11-08T20:00:00	1	Precipitación	0
167512	7	Sololá	713	San Lucas Tolimán	10	San Lucas Tolimán	12	Diciembre	2023-12-27T00:00:00	2024-11-08T20:00:00	8	Radiación solar	0
167513	7	Sololá	713	San Lucas Tolimán	10	San Lucas Tolimán	12	Diciembre	2023-12-27T00:00:00	2024-11-08T21:00:00	2	Temperatura media	15.3
167514	7	Sololá	713	San Lucas Tolimán	10	San Lucas Tolimán	12	Diciembre	2023-12-27T00:00:00	2024-11-08T21:00:00	4	Temperatura máxima	16.1
167515	7	Sololá	713	San Lucas Tolimán	10	San Lucas Tolimán	12	Diciembre	2023-12-27T00:00:00	2024-11-08T21:00:00	3	Temperatura mínima	15.3
167516	7	Sololá	713	San Lucas Tolimán	10	San Lucas Tolimán	12	Diciembre	2023-12-27T00:00:00	2024-11-08T21:00:00	5	Humedad	61
167517	7	Sololá	713	San Lucas Tolimán	10	San Lucas Tolimán	12	Diciembre	2023-12-27T00:00:00	2024-11-08T21:00:00	6	Velocidad del viento	3.2
167518	7	Sololá	713	San Lucas Tolimán	10	San Lucas Tolimán	12	Diciembre	2023-12-27T00:00:00	2024-11-08T21:00:00	7	Dirección del viento	3.22
167519	7	Sololá	713	San Lucas Tolimán	10	San Lucas Tolimán	12	Diciembre	2023-12-27T00:00:00	2024-11-08T21:00:00	1	Precipitación	0
167520	7	Sololá	713	San Lucas Tolimán	10	San Lucas Tolimán	12	Diciembre	2023-12-27T00:00:00	2024-11-08T21:00:00	8	Radiación solar	0
167521	7	Sololá	713	San Lucas Tolimán	10	San Lucas Tolimán	12	Diciembre	2023-12-27T00:00:00	2024-11-08T22:00:00	2	Temperatura media	14.7
167522	7	Sololá	713	San Lucas Tolimán	10	San Lucas Tolimán	12	Diciembre	2023-12-27T00:00:00	2024-11-08T22:00:00	4	Temperatura máxima	15.4
167523	7	Sololá	713	San Lucas Tolimán	10	San Lucas Tolimán	12	Diciembre	2023-12-27T00:00:00	2024-11-08T22:00:00	3	Temperatura mínima	14.7
167524	7	Sololá	713	San Lucas Tolimán	10	San Lucas Tolimán	12	Diciembre	2023-12-27T00:00:00	2024-11-08T22:00:00	5	Humedad	61
167525	7	Sololá	713	San Lucas Tolimán	10	San Lucas Tolimán	12	Diciembre	2023-12-27T00:00:00	2024-11-08T22:00:00	6	Velocidad del viento	1.6
167526	7	Sololá	713	San Lucas Tolimán	10	San Lucas Tolimán	12	Diciembre	2023-12-27T00:00:00	2024-11-08T22:00:00	7	Dirección del viento	1.61
167527	7	Sololá	713	San Lucas Tolimán	10	San Lucas Tolimán	12	Diciembre	2023-12-27T00:00:00	2024-11-08T22:00:00	1	Precipitación	0
167528	7	Sololá	713	San Lucas Tolimán	10	San Lucas Tolimán	12	Diciembre	2023-12-27T00:00:00	2024-11-08T22:00:00	8	Radiación solar	0
167529	7	Sololá	713	San Lucas Tolimán	10	San Lucas Tolimán	12	Diciembre	2023-12-27T00:00:00	2024-11-08T23:00:00	2	Temperatura media	14.2
167530	7	Sololá	713	San Lucas Tolimán	10	San Lucas Tolimán	12	Diciembre	2023-12-27T00:00:00	2024-11-08T23:00:00	4	Temperatura máxima	14.7
167531	7	Sololá	713	San Lucas Tolimán	10	San Lucas Tolimán	12	Diciembre	2023-12-27T00:00:00	2024-11-08T23:00:00	3	Temperatura mínima	14.2
167532	7	Sololá	713	San Lucas Tolimán	10	San Lucas Tolimán	12	Diciembre	2023-12-27T00:00:00	2024-11-08T23:00:00	5	Humedad	60
167533	7	Sololá	713	San Lucas Tolimán	10	San Lucas Tolimán	12	Diciembre	2023-12-27T00:00:00	2024-11-08T23:00:00	6	Velocidad del viento	3.2
167534	7	Sololá	713	San Lucas Tolimán	10	San Lucas Tolimán	12	Diciembre	2023-12-27T00:00:00	2024-11-08T23:00:00	7	Dirección del viento	3.22
167535	7	Sololá	713	San Lucas Tolimán	10	San Lucas Tolimán	12	Diciembre	2023-12-27T00:00:00	2024-11-08T23:00:00	1	Precipitación	0
167536	7	Sololá	713	San Lucas Tolimán	10	San Lucas Tolimán	12	Diciembre	2023-12-27T00:00:00	2024-11-08T23:00:00	8	Radiación solar	0
167537	7	Sololá	713	San Lucas Tolimán	10	San Lucas Tolimán	12	Diciembre	2023-12-28T00:00:00	2024-11-08T00:00:00	2	Temperatura media	14.1
167538	7	Sololá	713	San Lucas Tolimán	10	San Lucas Tolimán	12	Diciembre	2023-12-28T00:00:00	2024-11-08T00:00:00	4	Temperatura máxima	14.4
167539	7	Sololá	713	San Lucas Tolimán	10	San Lucas Tolimán	12	Diciembre	2023-12-28T00:00:00	2024-11-08T00:00:00	3	Temperatura mínima	14.1
167540	7	Sololá	713	San Lucas Tolimán	10	San Lucas Tolimán	12	Diciembre	2023-12-28T00:00:00	2024-11-08T00:00:00	5	Humedad	60
167541	7	Sololá	713	San Lucas Tolimán	10	San Lucas Tolimán	12	Diciembre	2023-12-28T00:00:00	2024-11-08T00:00:00	6	Velocidad del viento	0
167542	7	Sololá	713	San Lucas Tolimán	10	San Lucas Tolimán	12	Diciembre	2023-12-28T00:00:00	2024-11-08T00:00:00	7	Dirección del viento	0
167543	7	Sololá	713	San Lucas Tolimán	10	San Lucas Tolimán	12	Diciembre	2023-12-28T00:00:00	2024-11-08T00:00:00	1	Precipitación	0
167544	7	Sololá	713	San Lucas Tolimán	10	San Lucas Tolimán	12	Diciembre	2023-12-28T00:00:00	2024-11-08T00:00:00	8	Radiación solar	0
167545	7	Sololá	713	San Lucas Tolimán	10	San Lucas Tolimán	12	Diciembre	2023-12-28T00:00:00	2024-11-08T01:00:00	2	Temperatura media	14.8
167546	7	Sololá	713	San Lucas Tolimán	10	San Lucas Tolimán	12	Diciembre	2023-12-28T00:00:00	2024-11-08T01:00:00	4	Temperatura máxima	14.8
167547	7	Sololá	713	San Lucas Tolimán	10	San Lucas Tolimán	12	Diciembre	2023-12-28T00:00:00	2024-11-08T01:00:00	3	Temperatura mínima	13.9
167548	7	Sololá	713	San Lucas Tolimán	10	San Lucas Tolimán	12	Diciembre	2023-12-28T00:00:00	2024-11-08T01:00:00	5	Humedad	59
167549	7	Sololá	713	San Lucas Tolimán	10	San Lucas Tolimán	12	Diciembre	2023-12-28T00:00:00	2024-11-08T01:00:00	6	Velocidad del viento	0
167550	7	Sololá	713	San Lucas Tolimán	10	San Lucas Tolimán	12	Diciembre	2023-12-28T00:00:00	2024-11-08T01:00:00	7	Dirección del viento	0
167551	7	Sololá	713	San Lucas Tolimán	10	San Lucas Tolimán	12	Diciembre	2023-12-28T00:00:00	2024-11-08T01:00:00	1	Precipitación	0
167552	7	Sololá	713	San Lucas Tolimán	10	San Lucas Tolimán	12	Diciembre	2023-12-28T00:00:00	2024-11-08T01:00:00	8	Radiación solar	0
167553	7	Sololá	713	San Lucas Tolimán	10	San Lucas Tolimán	12	Diciembre	2023-12-28T00:00:00	2024-11-08T02:00:00	2	Temperatura media	14.2
167554	7	Sololá	713	San Lucas Tolimán	10	San Lucas Tolimán	12	Diciembre	2023-12-28T00:00:00	2024-11-08T02:00:00	4	Temperatura máxima	14.8
167555	7	Sololá	713	San Lucas Tolimán	10	San Lucas Tolimán	12	Diciembre	2023-12-28T00:00:00	2024-11-08T02:00:00	3	Temperatura mínima	14.2
167556	7	Sololá	713	San Lucas Tolimán	10	San Lucas Tolimán	12	Diciembre	2023-12-28T00:00:00	2024-11-08T02:00:00	5	Humedad	59
167557	7	Sololá	713	San Lucas Tolimán	10	San Lucas Tolimán	12	Diciembre	2023-12-28T00:00:00	2024-11-08T02:00:00	6	Velocidad del viento	0
167558	7	Sololá	713	San Lucas Tolimán	10	San Lucas Tolimán	12	Diciembre	2023-12-28T00:00:00	2024-11-08T02:00:00	7	Dirección del viento	0
167559	7	Sololá	713	San Lucas Tolimán	10	San Lucas Tolimán	12	Diciembre	2023-12-28T00:00:00	2024-11-08T02:00:00	1	Precipitación	0
167560	7	Sololá	713	San Lucas Tolimán	10	San Lucas Tolimán	12	Diciembre	2023-12-28T00:00:00	2024-11-08T02:00:00	8	Radiación solar	0
167561	7	Sololá	713	San Lucas Tolimán	10	San Lucas Tolimán	12	Diciembre	2023-12-28T00:00:00	2024-11-08T03:00:00	2	Temperatura media	14.6
167562	7	Sololá	713	San Lucas Tolimán	10	San Lucas Tolimán	12	Diciembre	2023-12-28T00:00:00	2024-11-08T03:00:00	4	Temperatura máxima	14.7
167563	7	Sololá	713	San Lucas Tolimán	10	San Lucas Tolimán	12	Diciembre	2023-12-28T00:00:00	2024-11-08T03:00:00	3	Temperatura mínima	14.2
167564	7	Sololá	713	San Lucas Tolimán	10	San Lucas Tolimán	12	Diciembre	2023-12-28T00:00:00	2024-11-08T03:00:00	5	Humedad	57
167565	7	Sololá	713	San Lucas Tolimán	10	San Lucas Tolimán	12	Diciembre	2023-12-28T00:00:00	2024-11-08T03:00:00	6	Velocidad del viento	3.2
167566	7	Sololá	713	San Lucas Tolimán	10	San Lucas Tolimán	12	Diciembre	2023-12-28T00:00:00	2024-11-08T03:00:00	7	Dirección del viento	3.22
167567	7	Sololá	713	San Lucas Tolimán	10	San Lucas Tolimán	12	Diciembre	2023-12-28T00:00:00	2024-11-08T03:00:00	1	Precipitación	0
167568	7	Sololá	713	San Lucas Tolimán	10	San Lucas Tolimán	12	Diciembre	2023-12-28T00:00:00	2024-11-08T03:00:00	8	Radiación solar	0
167569	7	Sololá	713	San Lucas Tolimán	10	San Lucas Tolimán	12	Diciembre	2023-12-28T00:00:00	2024-11-08T04:00:00	2	Temperatura media	14.1
167570	7	Sololá	713	San Lucas Tolimán	10	San Lucas Tolimán	12	Diciembre	2023-12-28T00:00:00	2024-11-08T04:00:00	4	Temperatura máxima	14.6
167571	7	Sololá	713	San Lucas Tolimán	10	San Lucas Tolimán	12	Diciembre	2023-12-28T00:00:00	2024-11-08T04:00:00	3	Temperatura mínima	14
167572	7	Sololá	713	San Lucas Tolimán	10	San Lucas Tolimán	12	Diciembre	2023-12-28T00:00:00	2024-11-08T04:00:00	5	Humedad	57
167573	7	Sololá	713	San Lucas Tolimán	10	San Lucas Tolimán	12	Diciembre	2023-12-28T00:00:00	2024-11-08T04:00:00	6	Velocidad del viento	3.2
167574	7	Sololá	713	San Lucas Tolimán	10	San Lucas Tolimán	12	Diciembre	2023-12-28T00:00:00	2024-11-08T04:00:00	7	Dirección del viento	3.22
167575	7	Sololá	713	San Lucas Tolimán	10	San Lucas Tolimán	12	Diciembre	2023-12-28T00:00:00	2024-11-08T04:00:00	1	Precipitación	0
167576	7	Sololá	713	San Lucas Tolimán	10	San Lucas Tolimán	12	Diciembre	2023-12-28T00:00:00	2024-11-08T04:00:00	8	Radiación solar	0
167577	7	Sololá	713	San Lucas Tolimán	10	San Lucas Tolimán	12	Diciembre	2023-12-28T00:00:00	2024-11-08T05:00:00	2	Temperatura media	13.4
167578	7	Sololá	713	San Lucas Tolimán	10	San Lucas Tolimán	12	Diciembre	2023-12-28T00:00:00	2024-11-08T05:00:00	4	Temperatura máxima	14.1
167579	7	Sololá	713	San Lucas Tolimán	10	San Lucas Tolimán	12	Diciembre	2023-12-28T00:00:00	2024-11-08T05:00:00	3	Temperatura mínima	13.4
167580	7	Sololá	713	San Lucas Tolimán	10	San Lucas Tolimán	12	Diciembre	2023-12-28T00:00:00	2024-11-08T05:00:00	5	Humedad	57
167581	7	Sololá	713	San Lucas Tolimán	10	San Lucas Tolimán	12	Diciembre	2023-12-28T00:00:00	2024-11-08T05:00:00	6	Velocidad del viento	3.2
167582	7	Sololá	713	San Lucas Tolimán	10	San Lucas Tolimán	12	Diciembre	2023-12-28T00:00:00	2024-11-08T05:00:00	7	Dirección del viento	3.22
167583	7	Sololá	713	San Lucas Tolimán	10	San Lucas Tolimán	12	Diciembre	2023-12-28T00:00:00	2024-11-08T05:00:00	1	Precipitación	0
167584	7	Sololá	713	San Lucas Tolimán	10	San Lucas Tolimán	12	Diciembre	2023-12-28T00:00:00	2024-11-08T05:00:00	8	Radiación solar	0
167585	7	Sololá	713	San Lucas Tolimán	10	San Lucas Tolimán	12	Diciembre	2023-12-28T00:00:00	2024-11-08T06:00:00	2	Temperatura media	13.4
167586	7	Sololá	713	San Lucas Tolimán	10	San Lucas Tolimán	12	Diciembre	2023-12-28T00:00:00	2024-11-08T06:00:00	4	Temperatura máxima	13.5
167587	7	Sololá	713	San Lucas Tolimán	10	San Lucas Tolimán	12	Diciembre	2023-12-28T00:00:00	2024-11-08T06:00:00	3	Temperatura mínima	13.1
167588	7	Sololá	713	San Lucas Tolimán	10	San Lucas Tolimán	12	Diciembre	2023-12-28T00:00:00	2024-11-08T06:00:00	5	Humedad	57
167589	7	Sololá	713	San Lucas Tolimán	10	San Lucas Tolimán	12	Diciembre	2023-12-28T00:00:00	2024-11-08T06:00:00	6	Velocidad del viento	3.2
167590	7	Sololá	713	San Lucas Tolimán	10	San Lucas Tolimán	12	Diciembre	2023-12-28T00:00:00	2024-11-08T06:00:00	7	Dirección del viento	3.22
167591	7	Sololá	713	San Lucas Tolimán	10	San Lucas Tolimán	12	Diciembre	2023-12-28T00:00:00	2024-11-08T06:00:00	1	Precipitación	0
167592	7	Sololá	713	San Lucas Tolimán	10	San Lucas Tolimán	12	Diciembre	2023-12-28T00:00:00	2024-11-08T06:00:00	8	Radiación solar	0
167593	7	Sololá	713	San Lucas Tolimán	10	San Lucas Tolimán	12	Diciembre	2023-12-28T00:00:00	2024-11-08T07:00:00	2	Temperatura media	13.2
167594	7	Sololá	713	San Lucas Tolimán	10	San Lucas Tolimán	12	Diciembre	2023-12-28T00:00:00	2024-11-08T07:00:00	4	Temperatura máxima	14.3
167595	7	Sololá	713	San Lucas Tolimán	10	San Lucas Tolimán	12	Diciembre	2023-12-28T00:00:00	2024-11-08T07:00:00	3	Temperatura mínima	13.2
167596	7	Sololá	713	San Lucas Tolimán	10	San Lucas Tolimán	12	Diciembre	2023-12-28T00:00:00	2024-11-08T07:00:00	5	Humedad	59
167597	7	Sololá	713	San Lucas Tolimán	10	San Lucas Tolimán	12	Diciembre	2023-12-28T00:00:00	2024-11-08T07:00:00	6	Velocidad del viento	3.2
167598	7	Sololá	713	San Lucas Tolimán	10	San Lucas Tolimán	12	Diciembre	2023-12-28T00:00:00	2024-11-08T07:00:00	7	Dirección del viento	3.22
167599	7	Sololá	713	San Lucas Tolimán	10	San Lucas Tolimán	12	Diciembre	2023-12-28T00:00:00	2024-11-08T07:00:00	1	Precipitación	0
167600	7	Sololá	713	San Lucas Tolimán	10	San Lucas Tolimán	12	Diciembre	2023-12-28T00:00:00	2024-11-08T07:00:00	8	Radiación solar	6
167601	7	Sololá	713	San Lucas Tolimán	10	San Lucas Tolimán	12	Diciembre	2023-12-28T00:00:00	2024-11-08T08:00:00	2	Temperatura media	14.4
167602	7	Sololá	713	San Lucas Tolimán	10	San Lucas Tolimán	12	Diciembre	2023-12-28T00:00:00	2024-11-08T08:00:00	4	Temperatura máxima	14.4
167603	7	Sololá	713	San Lucas Tolimán	10	San Lucas Tolimán	12	Diciembre	2023-12-28T00:00:00	2024-11-08T08:00:00	3	Temperatura mínima	13.2
167604	7	Sololá	713	San Lucas Tolimán	10	San Lucas Tolimán	12	Diciembre	2023-12-28T00:00:00	2024-11-08T08:00:00	5	Humedad	55
167605	7	Sololá	713	San Lucas Tolimán	10	San Lucas Tolimán	12	Diciembre	2023-12-28T00:00:00	2024-11-08T08:00:00	6	Velocidad del viento	3.2
167606	7	Sololá	713	San Lucas Tolimán	10	San Lucas Tolimán	12	Diciembre	2023-12-28T00:00:00	2024-11-08T08:00:00	7	Dirección del viento	3.22
167607	7	Sololá	713	San Lucas Tolimán	10	San Lucas Tolimán	12	Diciembre	2023-12-28T00:00:00	2024-11-08T08:00:00	1	Precipitación	0
167608	7	Sololá	713	San Lucas Tolimán	10	San Lucas Tolimán	12	Diciembre	2023-12-28T00:00:00	2024-11-08T08:00:00	8	Radiación solar	21
167609	7	Sololá	713	San Lucas Tolimán	10	San Lucas Tolimán	12	Diciembre	2023-12-28T00:00:00	2024-11-08T09:00:00	2	Temperatura media	17.3
167610	7	Sololá	713	San Lucas Tolimán	10	San Lucas Tolimán	12	Diciembre	2023-12-28T00:00:00	2024-11-08T09:00:00	4	Temperatura máxima	17.3
167611	7	Sololá	713	San Lucas Tolimán	10	San Lucas Tolimán	12	Diciembre	2023-12-28T00:00:00	2024-11-08T09:00:00	3	Temperatura mínima	14.4
167612	7	Sololá	713	San Lucas Tolimán	10	San Lucas Tolimán	12	Diciembre	2023-12-28T00:00:00	2024-11-08T09:00:00	5	Humedad	54
167613	7	Sololá	713	San Lucas Tolimán	10	San Lucas Tolimán	12	Diciembre	2023-12-28T00:00:00	2024-11-08T09:00:00	6	Velocidad del viento	6.4
167614	7	Sololá	713	San Lucas Tolimán	10	San Lucas Tolimán	12	Diciembre	2023-12-28T00:00:00	2024-11-08T09:00:00	7	Dirección del viento	6.44
167615	7	Sololá	713	San Lucas Tolimán	10	San Lucas Tolimán	12	Diciembre	2023-12-28T00:00:00	2024-11-08T09:00:00	1	Precipitación	0
167616	7	Sololá	713	San Lucas Tolimán	10	San Lucas Tolimán	12	Diciembre	2023-12-28T00:00:00	2024-11-08T09:00:00	8	Radiación solar	279
167617	7	Sololá	713	San Lucas Tolimán	10	San Lucas Tolimán	12	Diciembre	2023-12-28T00:00:00	2024-11-08T10:00:00	2	Temperatura media	20.3
167618	7	Sololá	713	San Lucas Tolimán	10	San Lucas Tolimán	12	Diciembre	2023-12-28T00:00:00	2024-11-08T10:00:00	4	Temperatura máxima	20.4
167619	7	Sololá	713	San Lucas Tolimán	10	San Lucas Tolimán	12	Diciembre	2023-12-28T00:00:00	2024-11-08T10:00:00	3	Temperatura mínima	17.4
167620	7	Sololá	713	San Lucas Tolimán	10	San Lucas Tolimán	12	Diciembre	2023-12-28T00:00:00	2024-11-08T10:00:00	5	Humedad	41
167621	7	Sololá	713	San Lucas Tolimán	10	San Lucas Tolimán	12	Diciembre	2023-12-28T00:00:00	2024-11-08T10:00:00	6	Velocidad del viento	4.8
167622	7	Sololá	713	San Lucas Tolimán	10	San Lucas Tolimán	12	Diciembre	2023-12-28T00:00:00	2024-11-08T10:00:00	7	Dirección del viento	4.83
167623	7	Sololá	713	San Lucas Tolimán	10	San Lucas Tolimán	12	Diciembre	2023-12-28T00:00:00	2024-11-08T10:00:00	1	Precipitación	0
167624	7	Sololá	713	San Lucas Tolimán	10	San Lucas Tolimán	12	Diciembre	2023-12-28T00:00:00	2024-11-08T10:00:00	8	Radiación solar	592
167625	7	Sololá	713	San Lucas Tolimán	10	San Lucas Tolimán	12	Diciembre	2023-12-28T00:00:00	2024-11-08T11:00:00	2	Temperatura media	22.1
167626	7	Sololá	713	San Lucas Tolimán	10	San Lucas Tolimán	12	Diciembre	2023-12-28T00:00:00	2024-11-08T11:00:00	4	Temperatura máxima	22.1
167627	7	Sololá	713	San Lucas Tolimán	10	San Lucas Tolimán	12	Diciembre	2023-12-28T00:00:00	2024-11-08T11:00:00	3	Temperatura mínima	19.3
167628	7	Sololá	713	San Lucas Tolimán	10	San Lucas Tolimán	12	Diciembre	2023-12-28T00:00:00	2024-11-08T11:00:00	5	Humedad	47
167629	7	Sololá	713	San Lucas Tolimán	10	San Lucas Tolimán	12	Diciembre	2023-12-28T00:00:00	2024-11-08T11:00:00	6	Velocidad del viento	6.4
167630	7	Sololá	713	San Lucas Tolimán	10	San Lucas Tolimán	12	Diciembre	2023-12-28T00:00:00	2024-11-08T11:00:00	7	Dirección del viento	6.44
167631	7	Sololá	713	San Lucas Tolimán	10	San Lucas Tolimán	12	Diciembre	2023-12-28T00:00:00	2024-11-08T11:00:00	1	Precipitación	0
167632	7	Sololá	713	San Lucas Tolimán	10	San Lucas Tolimán	12	Diciembre	2023-12-28T00:00:00	2024-11-08T11:00:00	8	Radiación solar	744
167633	7	Sololá	713	San Lucas Tolimán	10	San Lucas Tolimán	12	Diciembre	2023-12-28T00:00:00	2024-11-08T12:00:00	2	Temperatura media	22.4
167634	7	Sololá	713	San Lucas Tolimán	10	San Lucas Tolimán	12	Diciembre	2023-12-28T00:00:00	2024-11-08T12:00:00	4	Temperatura máxima	22.7
167635	7	Sololá	713	San Lucas Tolimán	10	San Lucas Tolimán	12	Diciembre	2023-12-28T00:00:00	2024-11-08T12:00:00	3	Temperatura mínima	22.1
167636	7	Sololá	713	San Lucas Tolimán	10	San Lucas Tolimán	12	Diciembre	2023-12-28T00:00:00	2024-11-08T12:00:00	5	Humedad	50
167637	7	Sololá	713	San Lucas Tolimán	10	San Lucas Tolimán	12	Diciembre	2023-12-28T00:00:00	2024-11-08T12:00:00	6	Velocidad del viento	11.3
167638	7	Sololá	713	San Lucas Tolimán	10	San Lucas Tolimán	12	Diciembre	2023-12-28T00:00:00	2024-11-08T12:00:00	7	Dirección del viento	11.27
167639	7	Sololá	713	San Lucas Tolimán	10	San Lucas Tolimán	12	Diciembre	2023-12-28T00:00:00	2024-11-08T12:00:00	1	Precipitación	0
167640	7	Sololá	713	San Lucas Tolimán	10	San Lucas Tolimán	12	Diciembre	2023-12-28T00:00:00	2024-11-08T12:00:00	8	Radiación solar	839
167641	7	Sololá	713	San Lucas Tolimán	10	San Lucas Tolimán	12	Diciembre	2023-12-28T00:00:00	2024-11-08T13:00:00	2	Temperatura media	22.8
167642	7	Sololá	713	San Lucas Tolimán	10	San Lucas Tolimán	12	Diciembre	2023-12-28T00:00:00	2024-11-08T13:00:00	4	Temperatura máxima	22.9
167643	7	Sololá	713	San Lucas Tolimán	10	San Lucas Tolimán	12	Diciembre	2023-12-28T00:00:00	2024-11-08T13:00:00	3	Temperatura mínima	22
167644	7	Sololá	713	San Lucas Tolimán	10	San Lucas Tolimán	12	Diciembre	2023-12-28T00:00:00	2024-11-08T13:00:00	5	Humedad	49
167645	7	Sololá	713	San Lucas Tolimán	10	San Lucas Tolimán	12	Diciembre	2023-12-28T00:00:00	2024-11-08T13:00:00	6	Velocidad del viento	11.3
167646	7	Sololá	713	San Lucas Tolimán	10	San Lucas Tolimán	12	Diciembre	2023-12-28T00:00:00	2024-11-08T13:00:00	7	Dirección del viento	11.27
167647	7	Sololá	713	San Lucas Tolimán	10	San Lucas Tolimán	12	Diciembre	2023-12-28T00:00:00	2024-11-08T13:00:00	1	Precipitación	0
167648	7	Sololá	713	San Lucas Tolimán	10	San Lucas Tolimán	12	Diciembre	2023-12-28T00:00:00	2024-11-08T13:00:00	8	Radiación solar	855
167649	7	Sololá	713	San Lucas Tolimán	10	San Lucas Tolimán	12	Diciembre	2023-12-28T00:00:00	2024-11-08T14:00:00	2	Temperatura media	22.2
167650	7	Sololá	713	San Lucas Tolimán	10	San Lucas Tolimán	12	Diciembre	2023-12-28T00:00:00	2024-11-08T14:00:00	4	Temperatura máxima	23.1
167651	7	Sololá	713	San Lucas Tolimán	10	San Lucas Tolimán	12	Diciembre	2023-12-28T00:00:00	2024-11-08T14:00:00	3	Temperatura mínima	22.1
167652	7	Sololá	713	San Lucas Tolimán	10	San Lucas Tolimán	12	Diciembre	2023-12-28T00:00:00	2024-11-08T14:00:00	5	Humedad	52
167653	7	Sololá	713	San Lucas Tolimán	10	San Lucas Tolimán	12	Diciembre	2023-12-28T00:00:00	2024-11-08T14:00:00	6	Velocidad del viento	11.3
167654	7	Sololá	713	San Lucas Tolimán	10	San Lucas Tolimán	12	Diciembre	2023-12-28T00:00:00	2024-11-08T14:00:00	7	Dirección del viento	11.27
167655	7	Sololá	713	San Lucas Tolimán	10	San Lucas Tolimán	12	Diciembre	2023-12-28T00:00:00	2024-11-08T14:00:00	1	Precipitación	0
167656	7	Sololá	713	San Lucas Tolimán	10	San Lucas Tolimán	12	Diciembre	2023-12-28T00:00:00	2024-11-08T14:00:00	8	Radiación solar	792
167657	7	Sololá	713	San Lucas Tolimán	10	San Lucas Tolimán	12	Diciembre	2023-12-28T00:00:00	2024-11-08T15:00:00	2	Temperatura media	21.7
167658	7	Sololá	713	San Lucas Tolimán	10	San Lucas Tolimán	12	Diciembre	2023-12-28T00:00:00	2024-11-08T15:00:00	4	Temperatura máxima	22.4
167659	7	Sololá	713	San Lucas Tolimán	10	San Lucas Tolimán	12	Diciembre	2023-12-28T00:00:00	2024-11-08T15:00:00	3	Temperatura mínima	21.6
167660	7	Sololá	713	San Lucas Tolimán	10	San Lucas Tolimán	12	Diciembre	2023-12-28T00:00:00	2024-11-08T15:00:00	5	Humedad	54
167661	7	Sololá	713	San Lucas Tolimán	10	San Lucas Tolimán	12	Diciembre	2023-12-28T00:00:00	2024-11-08T15:00:00	6	Velocidad del viento	11.3
167662	7	Sololá	713	San Lucas Tolimán	10	San Lucas Tolimán	12	Diciembre	2023-12-28T00:00:00	2024-11-08T15:00:00	7	Dirección del viento	11.27
167663	7	Sololá	713	San Lucas Tolimán	10	San Lucas Tolimán	12	Diciembre	2023-12-28T00:00:00	2024-11-08T15:00:00	1	Precipitación	0
167664	7	Sololá	713	San Lucas Tolimán	10	San Lucas Tolimán	12	Diciembre	2023-12-28T00:00:00	2024-11-08T15:00:00	8	Radiación solar	553
167665	7	Sololá	713	San Lucas Tolimán	10	San Lucas Tolimán	12	Diciembre	2023-12-28T00:00:00	2024-11-08T16:00:00	2	Temperatura media	21.1
167666	7	Sololá	713	San Lucas Tolimán	10	San Lucas Tolimán	12	Diciembre	2023-12-28T00:00:00	2024-11-08T16:00:00	4	Temperatura máxima	21.9
167667	7	Sololá	713	San Lucas Tolimán	10	San Lucas Tolimán	12	Diciembre	2023-12-28T00:00:00	2024-11-08T16:00:00	3	Temperatura mínima	20.9
167668	7	Sololá	713	San Lucas Tolimán	10	San Lucas Tolimán	12	Diciembre	2023-12-28T00:00:00	2024-11-08T16:00:00	5	Humedad	57
167669	7	Sololá	713	San Lucas Tolimán	10	San Lucas Tolimán	12	Diciembre	2023-12-28T00:00:00	2024-11-08T16:00:00	6	Velocidad del viento	11.3
167670	7	Sololá	713	San Lucas Tolimán	10	San Lucas Tolimán	12	Diciembre	2023-12-28T00:00:00	2024-11-08T16:00:00	7	Dirección del viento	11.27
167671	7	Sololá	713	San Lucas Tolimán	10	San Lucas Tolimán	12	Diciembre	2023-12-28T00:00:00	2024-11-08T16:00:00	1	Precipitación	0
167672	7	Sololá	713	San Lucas Tolimán	10	San Lucas Tolimán	12	Diciembre	2023-12-28T00:00:00	2024-11-08T16:00:00	8	Radiación solar	402
167673	7	Sololá	713	San Lucas Tolimán	10	San Lucas Tolimán	12	Diciembre	2023-12-28T00:00:00	2024-11-08T17:00:00	2	Temperatura media	19.7
167674	7	Sololá	713	San Lucas Tolimán	10	San Lucas Tolimán	12	Diciembre	2023-12-28T00:00:00	2024-11-08T17:00:00	4	Temperatura máxima	21.1
167675	7	Sololá	713	San Lucas Tolimán	10	San Lucas Tolimán	12	Diciembre	2023-12-28T00:00:00	2024-11-08T17:00:00	3	Temperatura mínima	19.6
167676	7	Sololá	713	San Lucas Tolimán	10	San Lucas Tolimán	12	Diciembre	2023-12-28T00:00:00	2024-11-08T17:00:00	5	Humedad	60
167677	7	Sololá	713	San Lucas Tolimán	10	San Lucas Tolimán	12	Diciembre	2023-12-28T00:00:00	2024-11-08T17:00:00	6	Velocidad del viento	11.3
167678	7	Sololá	713	San Lucas Tolimán	10	San Lucas Tolimán	12	Diciembre	2023-12-28T00:00:00	2024-11-08T17:00:00	7	Dirección del viento	11.27
167679	7	Sololá	713	San Lucas Tolimán	10	San Lucas Tolimán	12	Diciembre	2023-12-28T00:00:00	2024-11-08T17:00:00	1	Precipitación	0
167680	7	Sololá	713	San Lucas Tolimán	10	San Lucas Tolimán	12	Diciembre	2023-12-28T00:00:00	2024-11-08T17:00:00	8	Radiación solar	92
167681	7	Sololá	713	San Lucas Tolimán	10	San Lucas Tolimán	12	Diciembre	2023-12-28T00:00:00	2024-11-08T18:00:00	2	Temperatura media	18.6
167682	7	Sololá	713	San Lucas Tolimán	10	San Lucas Tolimán	12	Diciembre	2023-12-28T00:00:00	2024-11-08T18:00:00	4	Temperatura máxima	19.7
167683	7	Sololá	713	San Lucas Tolimán	10	San Lucas Tolimán	12	Diciembre	2023-12-28T00:00:00	2024-11-08T18:00:00	3	Temperatura mínima	18.6
167684	7	Sololá	713	San Lucas Tolimán	10	San Lucas Tolimán	12	Diciembre	2023-12-28T00:00:00	2024-11-08T18:00:00	5	Humedad	61
167685	7	Sololá	713	San Lucas Tolimán	10	San Lucas Tolimán	12	Diciembre	2023-12-28T00:00:00	2024-11-08T18:00:00	6	Velocidad del viento	6.4
167686	7	Sololá	713	San Lucas Tolimán	10	San Lucas Tolimán	12	Diciembre	2023-12-28T00:00:00	2024-11-08T18:00:00	7	Dirección del viento	6.44
167687	7	Sololá	713	San Lucas Tolimán	10	San Lucas Tolimán	12	Diciembre	2023-12-28T00:00:00	2024-11-08T18:00:00	1	Precipitación	0
167688	7	Sololá	713	San Lucas Tolimán	10	San Lucas Tolimán	12	Diciembre	2023-12-28T00:00:00	2024-11-08T18:00:00	8	Radiación solar	15
167689	7	Sololá	713	San Lucas Tolimán	10	San Lucas Tolimán	12	Diciembre	2023-12-28T00:00:00	2024-11-08T19:00:00	2	Temperatura media	17.4
167690	7	Sololá	713	San Lucas Tolimán	10	San Lucas Tolimán	12	Diciembre	2023-12-28T00:00:00	2024-11-08T19:00:00	4	Temperatura máxima	18.6
167691	7	Sololá	713	San Lucas Tolimán	10	San Lucas Tolimán	12	Diciembre	2023-12-28T00:00:00	2024-11-08T19:00:00	3	Temperatura mínima	17.4
167692	7	Sololá	713	San Lucas Tolimán	10	San Lucas Tolimán	12	Diciembre	2023-12-28T00:00:00	2024-11-08T19:00:00	5	Humedad	59
167693	7	Sololá	713	San Lucas Tolimán	10	San Lucas Tolimán	12	Diciembre	2023-12-28T00:00:00	2024-11-08T19:00:00	6	Velocidad del viento	3.2
167694	7	Sololá	713	San Lucas Tolimán	10	San Lucas Tolimán	12	Diciembre	2023-12-28T00:00:00	2024-11-08T19:00:00	7	Dirección del viento	3.22
167695	7	Sololá	713	San Lucas Tolimán	10	San Lucas Tolimán	12	Diciembre	2023-12-28T00:00:00	2024-11-08T19:00:00	1	Precipitación	0
167696	7	Sololá	713	San Lucas Tolimán	10	San Lucas Tolimán	12	Diciembre	2023-12-28T00:00:00	2024-11-08T19:00:00	8	Radiación solar	0
167697	7	Sololá	713	San Lucas Tolimán	10	San Lucas Tolimán	12	Diciembre	2023-12-28T00:00:00	2024-11-08T20:00:00	2	Temperatura media	17.1
167698	7	Sololá	713	San Lucas Tolimán	10	San Lucas Tolimán	12	Diciembre	2023-12-28T00:00:00	2024-11-08T20:00:00	4	Temperatura máxima	17.6
167699	7	Sololá	713	San Lucas Tolimán	10	San Lucas Tolimán	12	Diciembre	2023-12-28T00:00:00	2024-11-08T20:00:00	3	Temperatura mínima	17.1
167700	7	Sololá	713	San Lucas Tolimán	10	San Lucas Tolimán	12	Diciembre	2023-12-28T00:00:00	2024-11-08T20:00:00	5	Humedad	59
167701	7	Sololá	713	San Lucas Tolimán	10	San Lucas Tolimán	12	Diciembre	2023-12-28T00:00:00	2024-11-08T20:00:00	6	Velocidad del viento	3.2
167702	7	Sololá	713	San Lucas Tolimán	10	San Lucas Tolimán	12	Diciembre	2023-12-28T00:00:00	2024-11-08T20:00:00	7	Dirección del viento	3.22
167703	7	Sololá	713	San Lucas Tolimán	10	San Lucas Tolimán	12	Diciembre	2023-12-28T00:00:00	2024-11-08T20:00:00	1	Precipitación	0
167704	7	Sololá	713	San Lucas Tolimán	10	San Lucas Tolimán	12	Diciembre	2023-12-28T00:00:00	2024-11-08T20:00:00	8	Radiación solar	0
167705	7	Sololá	713	San Lucas Tolimán	10	San Lucas Tolimán	12	Diciembre	2023-12-28T00:00:00	2024-11-08T21:00:00	2	Temperatura media	16.8
167706	7	Sololá	713	San Lucas Tolimán	10	San Lucas Tolimán	12	Diciembre	2023-12-28T00:00:00	2024-11-08T21:00:00	4	Temperatura máxima	17.2
167707	7	Sololá	713	San Lucas Tolimán	10	San Lucas Tolimán	12	Diciembre	2023-12-28T00:00:00	2024-11-08T21:00:00	3	Temperatura mínima	16.7
167708	7	Sololá	713	San Lucas Tolimán	10	San Lucas Tolimán	12	Diciembre	2023-12-28T00:00:00	2024-11-08T21:00:00	5	Humedad	59
167709	7	Sololá	713	San Lucas Tolimán	10	San Lucas Tolimán	12	Diciembre	2023-12-28T00:00:00	2024-11-08T21:00:00	6	Velocidad del viento	1.6
167710	7	Sololá	713	San Lucas Tolimán	10	San Lucas Tolimán	12	Diciembre	2023-12-28T00:00:00	2024-11-08T21:00:00	7	Dirección del viento	1.61
167711	7	Sololá	713	San Lucas Tolimán	10	San Lucas Tolimán	12	Diciembre	2023-12-28T00:00:00	2024-11-08T21:00:00	1	Precipitación	0
167712	7	Sololá	713	San Lucas Tolimán	10	San Lucas Tolimán	12	Diciembre	2023-12-28T00:00:00	2024-11-08T21:00:00	8	Radiación solar	0
167713	7	Sololá	713	San Lucas Tolimán	10	San Lucas Tolimán	12	Diciembre	2023-12-28T00:00:00	2024-11-08T22:00:00	2	Temperatura media	17.2
167714	7	Sololá	713	San Lucas Tolimán	10	San Lucas Tolimán	12	Diciembre	2023-12-28T00:00:00	2024-11-08T22:00:00	4	Temperatura máxima	17.2
167715	7	Sololá	713	San Lucas Tolimán	10	San Lucas Tolimán	12	Diciembre	2023-12-28T00:00:00	2024-11-08T22:00:00	3	Temperatura mínima	16.7
167716	7	Sololá	713	San Lucas Tolimán	10	San Lucas Tolimán	12	Diciembre	2023-12-28T00:00:00	2024-11-08T22:00:00	5	Humedad	59
167717	7	Sololá	713	San Lucas Tolimán	10	San Lucas Tolimán	12	Diciembre	2023-12-28T00:00:00	2024-11-08T22:00:00	6	Velocidad del viento	1.6
167718	7	Sololá	713	San Lucas Tolimán	10	San Lucas Tolimán	12	Diciembre	2023-12-28T00:00:00	2024-11-08T22:00:00	7	Dirección del viento	1.61
167719	7	Sololá	713	San Lucas Tolimán	10	San Lucas Tolimán	12	Diciembre	2023-12-28T00:00:00	2024-11-08T22:00:00	1	Precipitación	0
167720	7	Sololá	713	San Lucas Tolimán	10	San Lucas Tolimán	12	Diciembre	2023-12-28T00:00:00	2024-11-08T22:00:00	8	Radiación solar	0
167721	7	Sololá	713	San Lucas Tolimán	10	San Lucas Tolimán	12	Diciembre	2023-12-28T00:00:00	2024-11-08T23:00:00	2	Temperatura media	17.5
167722	7	Sololá	713	San Lucas Tolimán	10	San Lucas Tolimán	12	Diciembre	2023-12-28T00:00:00	2024-11-08T23:00:00	4	Temperatura máxima	17.6
167723	7	Sololá	713	San Lucas Tolimán	10	San Lucas Tolimán	12	Diciembre	2023-12-28T00:00:00	2024-11-08T23:00:00	3	Temperatura mínima	17.2
167724	7	Sololá	713	San Lucas Tolimán	10	San Lucas Tolimán	12	Diciembre	2023-12-28T00:00:00	2024-11-08T23:00:00	5	Humedad	59
167725	7	Sololá	713	San Lucas Tolimán	10	San Lucas Tolimán	12	Diciembre	2023-12-28T00:00:00	2024-11-08T23:00:00	6	Velocidad del viento	0
167726	7	Sololá	713	San Lucas Tolimán	10	San Lucas Tolimán	12	Diciembre	2023-12-28T00:00:00	2024-11-08T23:00:00	7	Dirección del viento	0
167727	7	Sololá	713	San Lucas Tolimán	10	San Lucas Tolimán	12	Diciembre	2023-12-28T00:00:00	2024-11-08T23:00:00	1	Precipitación	0
167728	7	Sololá	713	San Lucas Tolimán	10	San Lucas Tolimán	12	Diciembre	2023-12-28T00:00:00	2024-11-08T23:00:00	8	Radiación solar	0
167729	7	Sololá	713	San Lucas Tolimán	10	San Lucas Tolimán	12	Diciembre	2023-12-29T00:00:00	2024-11-08T00:00:00	2	Temperatura media	17.5
167730	7	Sololá	713	San Lucas Tolimán	10	San Lucas Tolimán	12	Diciembre	2023-12-29T00:00:00	2024-11-08T00:00:00	4	Temperatura máxima	17.7
167731	7	Sololá	713	San Lucas Tolimán	10	San Lucas Tolimán	12	Diciembre	2023-12-29T00:00:00	2024-11-08T00:00:00	3	Temperatura mínima	17.5
167732	7	Sololá	713	San Lucas Tolimán	10	San Lucas Tolimán	12	Diciembre	2023-12-29T00:00:00	2024-11-08T00:00:00	5	Humedad	60
167733	7	Sololá	713	San Lucas Tolimán	10	San Lucas Tolimán	12	Diciembre	2023-12-29T00:00:00	2024-11-08T00:00:00	6	Velocidad del viento	1.6
167734	7	Sololá	713	San Lucas Tolimán	10	San Lucas Tolimán	12	Diciembre	2023-12-29T00:00:00	2024-11-08T00:00:00	7	Dirección del viento	1.61
167735	7	Sololá	713	San Lucas Tolimán	10	San Lucas Tolimán	12	Diciembre	2023-12-29T00:00:00	2024-11-08T00:00:00	1	Precipitación	0
167736	7	Sololá	713	San Lucas Tolimán	10	San Lucas Tolimán	12	Diciembre	2023-12-29T00:00:00	2024-11-08T00:00:00	8	Radiación solar	0
167737	7	Sololá	713	San Lucas Tolimán	10	San Lucas Tolimán	12	Diciembre	2023-12-29T00:00:00	2024-11-08T01:00:00	2	Temperatura media	16.3
167738	7	Sololá	713	San Lucas Tolimán	10	San Lucas Tolimán	12	Diciembre	2023-12-29T00:00:00	2024-11-08T01:00:00	4	Temperatura máxima	17.5
167739	7	Sololá	713	San Lucas Tolimán	10	San Lucas Tolimán	12	Diciembre	2023-12-29T00:00:00	2024-11-08T01:00:00	3	Temperatura mínima	16.3
167740	7	Sololá	713	San Lucas Tolimán	10	San Lucas Tolimán	12	Diciembre	2023-12-29T00:00:00	2024-11-08T01:00:00	5	Humedad	60
167741	7	Sololá	713	San Lucas Tolimán	10	San Lucas Tolimán	12	Diciembre	2023-12-29T00:00:00	2024-11-08T01:00:00	6	Velocidad del viento	0
167742	7	Sololá	713	San Lucas Tolimán	10	San Lucas Tolimán	12	Diciembre	2023-12-29T00:00:00	2024-11-08T01:00:00	7	Dirección del viento	0
167743	7	Sololá	713	San Lucas Tolimán	10	San Lucas Tolimán	12	Diciembre	2023-12-29T00:00:00	2024-11-08T01:00:00	1	Precipitación	0
167744	7	Sololá	713	San Lucas Tolimán	10	San Lucas Tolimán	12	Diciembre	2023-12-29T00:00:00	2024-11-08T01:00:00	8	Radiación solar	0
167745	7	Sololá	713	San Lucas Tolimán	10	San Lucas Tolimán	12	Diciembre	2023-12-29T00:00:00	2024-11-08T02:00:00	2	Temperatura media	15.2
167746	7	Sololá	713	San Lucas Tolimán	10	San Lucas Tolimán	12	Diciembre	2023-12-29T00:00:00	2024-11-08T02:00:00	4	Temperatura máxima	16.3
167747	7	Sololá	713	San Lucas Tolimán	10	San Lucas Tolimán	12	Diciembre	2023-12-29T00:00:00	2024-11-08T02:00:00	3	Temperatura mínima	15.2
167748	7	Sololá	713	San Lucas Tolimán	10	San Lucas Tolimán	12	Diciembre	2023-12-29T00:00:00	2024-11-08T02:00:00	5	Humedad	61
167749	7	Sololá	713	San Lucas Tolimán	10	San Lucas Tolimán	12	Diciembre	2023-12-29T00:00:00	2024-11-08T02:00:00	6	Velocidad del viento	1.6
167750	7	Sololá	713	San Lucas Tolimán	10	San Lucas Tolimán	12	Diciembre	2023-12-29T00:00:00	2024-11-08T02:00:00	7	Dirección del viento	1.61
167751	7	Sololá	713	San Lucas Tolimán	10	San Lucas Tolimán	12	Diciembre	2023-12-29T00:00:00	2024-11-08T02:00:00	1	Precipitación	0
167752	7	Sololá	713	San Lucas Tolimán	10	San Lucas Tolimán	12	Diciembre	2023-12-29T00:00:00	2024-11-08T02:00:00	8	Radiación solar	0
167753	7	Sololá	713	San Lucas Tolimán	10	San Lucas Tolimán	12	Diciembre	2023-12-29T00:00:00	2024-11-08T03:00:00	2	Temperatura media	15.9
167754	7	Sololá	713	San Lucas Tolimán	10	San Lucas Tolimán	12	Diciembre	2023-12-29T00:00:00	2024-11-08T03:00:00	4	Temperatura máxima	16
167755	7	Sololá	713	San Lucas Tolimán	10	San Lucas Tolimán	12	Diciembre	2023-12-29T00:00:00	2024-11-08T03:00:00	3	Temperatura mínima	15.2
167756	7	Sololá	713	San Lucas Tolimán	10	San Lucas Tolimán	12	Diciembre	2023-12-29T00:00:00	2024-11-08T03:00:00	5	Humedad	59
167757	7	Sololá	713	San Lucas Tolimán	10	San Lucas Tolimán	12	Diciembre	2023-12-29T00:00:00	2024-11-08T03:00:00	6	Velocidad del viento	0
167758	7	Sololá	713	San Lucas Tolimán	10	San Lucas Tolimán	12	Diciembre	2023-12-29T00:00:00	2024-11-08T03:00:00	7	Dirección del viento	0
167759	7	Sololá	713	San Lucas Tolimán	10	San Lucas Tolimán	12	Diciembre	2023-12-29T00:00:00	2024-11-08T03:00:00	1	Precipitación	0
167760	7	Sololá	713	San Lucas Tolimán	10	San Lucas Tolimán	12	Diciembre	2023-12-29T00:00:00	2024-11-08T03:00:00	8	Radiación solar	0
167761	7	Sololá	713	San Lucas Tolimán	10	San Lucas Tolimán	12	Diciembre	2023-12-29T00:00:00	2024-11-08T04:00:00	2	Temperatura media	16.4
167762	7	Sololá	713	San Lucas Tolimán	10	San Lucas Tolimán	12	Diciembre	2023-12-29T00:00:00	2024-11-08T04:00:00	4	Temperatura máxima	16.8
167763	7	Sololá	713	San Lucas Tolimán	10	San Lucas Tolimán	12	Diciembre	2023-12-29T00:00:00	2024-11-08T04:00:00	3	Temperatura mínima	15.9
167764	7	Sololá	713	San Lucas Tolimán	10	San Lucas Tolimán	12	Diciembre	2023-12-29T00:00:00	2024-11-08T04:00:00	5	Humedad	57
167765	7	Sololá	713	San Lucas Tolimán	10	San Lucas Tolimán	12	Diciembre	2023-12-29T00:00:00	2024-11-08T04:00:00	6	Velocidad del viento	0
167766	7	Sololá	713	San Lucas Tolimán	10	San Lucas Tolimán	12	Diciembre	2023-12-29T00:00:00	2024-11-08T04:00:00	7	Dirección del viento	0
167767	7	Sololá	713	San Lucas Tolimán	10	San Lucas Tolimán	12	Diciembre	2023-12-29T00:00:00	2024-11-08T04:00:00	1	Precipitación	0
167768	7	Sololá	713	San Lucas Tolimán	10	San Lucas Tolimán	12	Diciembre	2023-12-29T00:00:00	2024-11-08T04:00:00	8	Radiación solar	0
167769	7	Sololá	713	San Lucas Tolimán	10	San Lucas Tolimán	12	Diciembre	2023-12-29T00:00:00	2024-11-08T05:00:00	2	Temperatura media	16.2
167770	7	Sololá	713	San Lucas Tolimán	10	San Lucas Tolimán	12	Diciembre	2023-12-29T00:00:00	2024-11-08T05:00:00	4	Temperatura máxima	16.4
167771	7	Sololá	713	San Lucas Tolimán	10	San Lucas Tolimán	12	Diciembre	2023-12-29T00:00:00	2024-11-08T05:00:00	3	Temperatura mínima	16
167772	7	Sololá	713	San Lucas Tolimán	10	San Lucas Tolimán	12	Diciembre	2023-12-29T00:00:00	2024-11-08T05:00:00	5	Humedad	58
167773	7	Sololá	713	San Lucas Tolimán	10	San Lucas Tolimán	12	Diciembre	2023-12-29T00:00:00	2024-11-08T05:00:00	6	Velocidad del viento	0
167774	7	Sololá	713	San Lucas Tolimán	10	San Lucas Tolimán	12	Diciembre	2023-12-29T00:00:00	2024-11-08T05:00:00	7	Dirección del viento	0
167775	7	Sololá	713	San Lucas Tolimán	10	San Lucas Tolimán	12	Diciembre	2023-12-29T00:00:00	2024-11-08T05:00:00	1	Precipitación	0
167776	7	Sololá	713	San Lucas Tolimán	10	San Lucas Tolimán	12	Diciembre	2023-12-29T00:00:00	2024-11-08T05:00:00	8	Radiación solar	0
167777	7	Sololá	713	San Lucas Tolimán	10	San Lucas Tolimán	12	Diciembre	2023-12-29T00:00:00	2024-11-08T06:00:00	2	Temperatura media	15.9
167778	7	Sololá	713	San Lucas Tolimán	10	San Lucas Tolimán	12	Diciembre	2023-12-29T00:00:00	2024-11-08T06:00:00	4	Temperatura máxima	16.2
167779	7	Sololá	713	San Lucas Tolimán	10	San Lucas Tolimán	12	Diciembre	2023-12-29T00:00:00	2024-11-08T06:00:00	3	Temperatura mínima	15.8
167780	7	Sololá	713	San Lucas Tolimán	10	San Lucas Tolimán	12	Diciembre	2023-12-29T00:00:00	2024-11-08T06:00:00	5	Humedad	59
167781	7	Sololá	713	San Lucas Tolimán	10	San Lucas Tolimán	12	Diciembre	2023-12-29T00:00:00	2024-11-08T06:00:00	6	Velocidad del viento	0
167782	7	Sololá	713	San Lucas Tolimán	10	San Lucas Tolimán	12	Diciembre	2023-12-29T00:00:00	2024-11-08T06:00:00	7	Dirección del viento	0
167783	7	Sololá	713	San Lucas Tolimán	10	San Lucas Tolimán	12	Diciembre	2023-12-29T00:00:00	2024-11-08T06:00:00	1	Precipitación	0
167784	7	Sololá	713	San Lucas Tolimán	10	San Lucas Tolimán	12	Diciembre	2023-12-29T00:00:00	2024-11-08T06:00:00	8	Radiación solar	0
167785	7	Sololá	713	San Lucas Tolimán	10	San Lucas Tolimán	12	Diciembre	2023-12-29T00:00:00	2024-11-08T07:00:00	2	Temperatura media	15.6
167786	7	Sololá	713	San Lucas Tolimán	10	San Lucas Tolimán	12	Diciembre	2023-12-29T00:00:00	2024-11-08T07:00:00	4	Temperatura máxima	16.1
167787	7	Sololá	713	San Lucas Tolimán	10	San Lucas Tolimán	12	Diciembre	2023-12-29T00:00:00	2024-11-08T07:00:00	3	Temperatura mínima	15.6
167788	7	Sololá	713	San Lucas Tolimán	10	San Lucas Tolimán	12	Diciembre	2023-12-29T00:00:00	2024-11-08T07:00:00	5	Humedad	58
167789	7	Sololá	713	San Lucas Tolimán	10	San Lucas Tolimán	12	Diciembre	2023-12-29T00:00:00	2024-11-08T07:00:00	6	Velocidad del viento	0
167790	7	Sololá	713	San Lucas Tolimán	10	San Lucas Tolimán	12	Diciembre	2023-12-29T00:00:00	2024-11-08T07:00:00	7	Dirección del viento	0
167791	7	Sololá	713	San Lucas Tolimán	10	San Lucas Tolimán	12	Diciembre	2023-12-29T00:00:00	2024-11-08T07:00:00	1	Precipitación	0
167792	7	Sololá	713	San Lucas Tolimán	10	San Lucas Tolimán	12	Diciembre	2023-12-29T00:00:00	2024-11-08T07:00:00	8	Radiación solar	6
167793	7	Sololá	713	San Lucas Tolimán	10	San Lucas Tolimán	12	Diciembre	2023-12-29T00:00:00	2024-11-08T08:00:00	2	Temperatura media	16.7
167794	7	Sololá	713	San Lucas Tolimán	10	San Lucas Tolimán	12	Diciembre	2023-12-29T00:00:00	2024-11-08T08:00:00	4	Temperatura máxima	16.7
167795	7	Sololá	713	San Lucas Tolimán	10	San Lucas Tolimán	12	Diciembre	2023-12-29T00:00:00	2024-11-08T08:00:00	3	Temperatura mínima	15.6
167796	7	Sololá	713	San Lucas Tolimán	10	San Lucas Tolimán	12	Diciembre	2023-12-29T00:00:00	2024-11-08T08:00:00	5	Humedad	56
167797	7	Sololá	713	San Lucas Tolimán	10	San Lucas Tolimán	12	Diciembre	2023-12-29T00:00:00	2024-11-08T08:00:00	6	Velocidad del viento	0
167798	7	Sololá	713	San Lucas Tolimán	10	San Lucas Tolimán	12	Diciembre	2023-12-29T00:00:00	2024-11-08T08:00:00	7	Dirección del viento	0
167799	7	Sololá	713	San Lucas Tolimán	10	San Lucas Tolimán	12	Diciembre	2023-12-29T00:00:00	2024-11-08T08:00:00	1	Precipitación	0
167800	7	Sololá	713	San Lucas Tolimán	10	San Lucas Tolimán	12	Diciembre	2023-12-29T00:00:00	2024-11-08T08:00:00	8	Radiación solar	74
167801	7	Sololá	713	San Lucas Tolimán	10	San Lucas Tolimán	12	Diciembre	2023-12-29T00:00:00	2024-11-08T09:00:00	2	Temperatura media	18.7
167802	7	Sololá	713	San Lucas Tolimán	10	San Lucas Tolimán	12	Diciembre	2023-12-29T00:00:00	2024-11-08T09:00:00	4	Temperatura máxima	18.7
167803	7	Sololá	713	San Lucas Tolimán	10	San Lucas Tolimán	12	Diciembre	2023-12-29T00:00:00	2024-11-08T09:00:00	3	Temperatura mínima	16.6
167804	7	Sololá	713	San Lucas Tolimán	10	San Lucas Tolimán	12	Diciembre	2023-12-29T00:00:00	2024-11-08T09:00:00	5	Humedad	55
167805	7	Sololá	713	San Lucas Tolimán	10	San Lucas Tolimán	12	Diciembre	2023-12-29T00:00:00	2024-11-08T09:00:00	6	Velocidad del viento	3.2
167806	7	Sololá	713	San Lucas Tolimán	10	San Lucas Tolimán	12	Diciembre	2023-12-29T00:00:00	2024-11-08T09:00:00	7	Dirección del viento	3.22
167807	7	Sololá	713	San Lucas Tolimán	10	San Lucas Tolimán	12	Diciembre	2023-12-29T00:00:00	2024-11-08T09:00:00	1	Precipitación	0
167808	7	Sololá	713	San Lucas Tolimán	10	San Lucas Tolimán	12	Diciembre	2023-12-29T00:00:00	2024-11-08T09:00:00	8	Radiación solar	204
167809	7	Sololá	713	San Lucas Tolimán	10	San Lucas Tolimán	12	Diciembre	2023-12-29T00:00:00	2024-11-08T10:00:00	2	Temperatura media	20.1
167810	7	Sololá	713	San Lucas Tolimán	10	San Lucas Tolimán	12	Diciembre	2023-12-29T00:00:00	2024-11-08T10:00:00	4	Temperatura máxima	20.1
167811	7	Sololá	713	San Lucas Tolimán	10	San Lucas Tolimán	12	Diciembre	2023-12-29T00:00:00	2024-11-08T10:00:00	3	Temperatura mínima	18.7
167812	7	Sololá	713	San Lucas Tolimán	10	San Lucas Tolimán	12	Diciembre	2023-12-29T00:00:00	2024-11-08T10:00:00	5	Humedad	54
167813	7	Sololá	713	San Lucas Tolimán	10	San Lucas Tolimán	12	Diciembre	2023-12-29T00:00:00	2024-11-08T10:00:00	6	Velocidad del viento	3.2
167814	7	Sololá	713	San Lucas Tolimán	10	San Lucas Tolimán	12	Diciembre	2023-12-29T00:00:00	2024-11-08T10:00:00	7	Dirección del viento	3.22
167815	7	Sololá	713	San Lucas Tolimán	10	San Lucas Tolimán	12	Diciembre	2023-12-29T00:00:00	2024-11-08T10:00:00	1	Precipitación	0
167816	7	Sololá	713	San Lucas Tolimán	10	San Lucas Tolimán	12	Diciembre	2023-12-29T00:00:00	2024-11-08T10:00:00	8	Radiación solar	347
167817	7	Sololá	713	San Lucas Tolimán	10	San Lucas Tolimán	12	Diciembre	2023-12-29T00:00:00	2024-11-08T11:00:00	2	Temperatura media	20.6
167818	7	Sololá	713	San Lucas Tolimán	10	San Lucas Tolimán	12	Diciembre	2023-12-29T00:00:00	2024-11-08T11:00:00	4	Temperatura máxima	21.7
167819	7	Sololá	713	San Lucas Tolimán	10	San Lucas Tolimán	12	Diciembre	2023-12-29T00:00:00	2024-11-08T11:00:00	3	Temperatura mínima	20.2
167820	7	Sololá	713	San Lucas Tolimán	10	San Lucas Tolimán	12	Diciembre	2023-12-29T00:00:00	2024-11-08T11:00:00	5	Humedad	59
167821	7	Sololá	713	San Lucas Tolimán	10	San Lucas Tolimán	12	Diciembre	2023-12-29T00:00:00	2024-11-08T11:00:00	6	Velocidad del viento	8
167822	7	Sololá	713	San Lucas Tolimán	10	San Lucas Tolimán	12	Diciembre	2023-12-29T00:00:00	2024-11-08T11:00:00	7	Dirección del viento	8.05
167823	7	Sololá	713	San Lucas Tolimán	10	San Lucas Tolimán	12	Diciembre	2023-12-29T00:00:00	2024-11-08T11:00:00	1	Precipitación	0
167824	7	Sololá	713	San Lucas Tolimán	10	San Lucas Tolimán	12	Diciembre	2023-12-29T00:00:00	2024-11-08T11:00:00	8	Radiación solar	588
167825	7	Sololá	713	San Lucas Tolimán	10	San Lucas Tolimán	12	Diciembre	2023-12-29T00:00:00	2024-11-08T12:00:00	2	Temperatura media	21.3
167826	7	Sololá	713	San Lucas Tolimán	10	San Lucas Tolimán	12	Diciembre	2023-12-29T00:00:00	2024-11-08T12:00:00	4	Temperatura máxima	21.7
167827	7	Sololá	713	San Lucas Tolimán	10	San Lucas Tolimán	12	Diciembre	2023-12-29T00:00:00	2024-11-08T12:00:00	3	Temperatura mínima	20.6
167828	7	Sololá	713	San Lucas Tolimán	10	San Lucas Tolimán	12	Diciembre	2023-12-29T00:00:00	2024-11-08T12:00:00	5	Humedad	56
167829	7	Sololá	713	San Lucas Tolimán	10	San Lucas Tolimán	12	Diciembre	2023-12-29T00:00:00	2024-11-08T12:00:00	6	Velocidad del viento	11.3
167830	7	Sololá	713	San Lucas Tolimán	10	San Lucas Tolimán	12	Diciembre	2023-12-29T00:00:00	2024-11-08T12:00:00	7	Dirección del viento	11.27
167831	7	Sololá	713	San Lucas Tolimán	10	San Lucas Tolimán	12	Diciembre	2023-12-29T00:00:00	2024-11-08T12:00:00	1	Precipitación	0
167832	7	Sololá	713	San Lucas Tolimán	10	San Lucas Tolimán	12	Diciembre	2023-12-29T00:00:00	2024-11-08T12:00:00	8	Radiación solar	788
167833	7	Sololá	713	San Lucas Tolimán	10	San Lucas Tolimán	12	Diciembre	2023-12-29T00:00:00	2024-11-08T13:00:00	2	Temperatura media	21.4
167834	7	Sololá	713	San Lucas Tolimán	10	San Lucas Tolimán	12	Diciembre	2023-12-29T00:00:00	2024-11-08T13:00:00	4	Temperatura máxima	22.1
167835	7	Sololá	713	San Lucas Tolimán	10	San Lucas Tolimán	12	Diciembre	2023-12-29T00:00:00	2024-11-08T13:00:00	3	Temperatura mínima	21.3
167836	7	Sololá	713	San Lucas Tolimán	10	San Lucas Tolimán	12	Diciembre	2023-12-29T00:00:00	2024-11-08T13:00:00	5	Humedad	55
167837	7	Sololá	713	San Lucas Tolimán	10	San Lucas Tolimán	12	Diciembre	2023-12-29T00:00:00	2024-11-08T13:00:00	6	Velocidad del viento	9.7
167838	7	Sololá	713	San Lucas Tolimán	10	San Lucas Tolimán	12	Diciembre	2023-12-29T00:00:00	2024-11-08T13:00:00	7	Dirección del viento	9.66
167839	7	Sololá	713	San Lucas Tolimán	10	San Lucas Tolimán	12	Diciembre	2023-12-29T00:00:00	2024-11-08T13:00:00	1	Precipitación	0
167840	7	Sololá	713	San Lucas Tolimán	10	San Lucas Tolimán	12	Diciembre	2023-12-29T00:00:00	2024-11-08T13:00:00	8	Radiación solar	513
167841	7	Sololá	713	San Lucas Tolimán	10	San Lucas Tolimán	12	Diciembre	2023-12-29T00:00:00	2024-11-08T14:00:00	2	Temperatura media	21.3
167842	7	Sololá	713	San Lucas Tolimán	10	San Lucas Tolimán	12	Diciembre	2023-12-29T00:00:00	2024-11-08T14:00:00	4	Temperatura máxima	22
167843	7	Sololá	713	San Lucas Tolimán	10	San Lucas Tolimán	12	Diciembre	2023-12-29T00:00:00	2024-11-08T14:00:00	3	Temperatura mínima	21.2
167844	7	Sololá	713	San Lucas Tolimán	10	San Lucas Tolimán	12	Diciembre	2023-12-29T00:00:00	2024-11-08T14:00:00	5	Humedad	58
167845	7	Sololá	713	San Lucas Tolimán	10	San Lucas Tolimán	12	Diciembre	2023-12-29T00:00:00	2024-11-08T14:00:00	6	Velocidad del viento	9.7
167846	7	Sololá	713	San Lucas Tolimán	10	San Lucas Tolimán	12	Diciembre	2023-12-29T00:00:00	2024-11-08T14:00:00	7	Dirección del viento	9.66
167847	7	Sololá	713	San Lucas Tolimán	10	San Lucas Tolimán	12	Diciembre	2023-12-29T00:00:00	2024-11-08T14:00:00	1	Precipitación	0
167848	7	Sololá	713	San Lucas Tolimán	10	San Lucas Tolimán	12	Diciembre	2023-12-29T00:00:00	2024-11-08T14:00:00	8	Radiación solar	570
167849	7	Sololá	713	San Lucas Tolimán	10	San Lucas Tolimán	12	Diciembre	2023-12-29T00:00:00	2024-11-08T15:00:00	2	Temperatura media	21
167850	7	Sololá	713	San Lucas Tolimán	10	San Lucas Tolimán	12	Diciembre	2023-12-29T00:00:00	2024-11-08T15:00:00	4	Temperatura máxima	21.3
167851	7	Sololá	713	San Lucas Tolimán	10	San Lucas Tolimán	12	Diciembre	2023-12-29T00:00:00	2024-11-08T15:00:00	3	Temperatura mínima	20.5
167852	7	Sololá	713	San Lucas Tolimán	10	San Lucas Tolimán	12	Diciembre	2023-12-29T00:00:00	2024-11-08T15:00:00	5	Humedad	58
167853	7	Sololá	713	San Lucas Tolimán	10	San Lucas Tolimán	12	Diciembre	2023-12-29T00:00:00	2024-11-08T15:00:00	6	Velocidad del viento	8
167854	7	Sololá	713	San Lucas Tolimán	10	San Lucas Tolimán	12	Diciembre	2023-12-29T00:00:00	2024-11-08T15:00:00	7	Dirección del viento	8.05
167855	7	Sololá	713	San Lucas Tolimán	10	San Lucas Tolimán	12	Diciembre	2023-12-29T00:00:00	2024-11-08T15:00:00	1	Precipitación	0
167856	7	Sololá	713	San Lucas Tolimán	10	San Lucas Tolimán	12	Diciembre	2023-12-29T00:00:00	2024-11-08T15:00:00	8	Radiación solar	279
167857	7	Sololá	713	San Lucas Tolimán	10	San Lucas Tolimán	12	Diciembre	2023-12-29T00:00:00	2024-11-08T16:00:00	2	Temperatura media	21.6
167858	7	Sololá	713	San Lucas Tolimán	10	San Lucas Tolimán	12	Diciembre	2023-12-29T00:00:00	2024-11-08T16:00:00	4	Temperatura máxima	21.6
167859	7	Sololá	713	San Lucas Tolimán	10	San Lucas Tolimán	12	Diciembre	2023-12-29T00:00:00	2024-11-08T16:00:00	3	Temperatura mínima	20.9
167860	7	Sololá	713	San Lucas Tolimán	10	San Lucas Tolimán	12	Diciembre	2023-12-29T00:00:00	2024-11-08T16:00:00	5	Humedad	56
167861	7	Sololá	713	San Lucas Tolimán	10	San Lucas Tolimán	12	Diciembre	2023-12-29T00:00:00	2024-11-08T16:00:00	6	Velocidad del viento	11.3
167862	7	Sololá	713	San Lucas Tolimán	10	San Lucas Tolimán	12	Diciembre	2023-12-29T00:00:00	2024-11-08T16:00:00	7	Dirección del viento	11.27
167863	7	Sololá	713	San Lucas Tolimán	10	San Lucas Tolimán	12	Diciembre	2023-12-29T00:00:00	2024-11-08T16:00:00	1	Precipitación	0
167864	7	Sololá	713	San Lucas Tolimán	10	San Lucas Tolimán	12	Diciembre	2023-12-29T00:00:00	2024-11-08T16:00:00	8	Radiación solar	464
167865	7	Sololá	713	San Lucas Tolimán	10	San Lucas Tolimán	12	Diciembre	2023-12-29T00:00:00	2024-11-08T17:00:00	2	Temperatura media	19.6
167866	7	Sololá	713	San Lucas Tolimán	10	San Lucas Tolimán	12	Diciembre	2023-12-29T00:00:00	2024-11-08T17:00:00	4	Temperatura máxima	21.6
167867	7	Sololá	713	San Lucas Tolimán	10	San Lucas Tolimán	12	Diciembre	2023-12-29T00:00:00	2024-11-08T17:00:00	3	Temperatura mínima	19.5
167868	7	Sololá	713	San Lucas Tolimán	10	San Lucas Tolimán	12	Diciembre	2023-12-29T00:00:00	2024-11-08T17:00:00	5	Humedad	60
167869	7	Sololá	713	San Lucas Tolimán	10	San Lucas Tolimán	12	Diciembre	2023-12-29T00:00:00	2024-11-08T17:00:00	6	Velocidad del viento	9.7
167870	7	Sololá	713	San Lucas Tolimán	10	San Lucas Tolimán	12	Diciembre	2023-12-29T00:00:00	2024-11-08T17:00:00	7	Dirección del viento	9.66
167871	7	Sololá	713	San Lucas Tolimán	10	San Lucas Tolimán	12	Diciembre	2023-12-29T00:00:00	2024-11-08T17:00:00	1	Precipitación	0
167872	7	Sololá	713	San Lucas Tolimán	10	San Lucas Tolimán	12	Diciembre	2023-12-29T00:00:00	2024-11-08T17:00:00	8	Radiación solar	186
167873	7	Sololá	713	San Lucas Tolimán	10	San Lucas Tolimán	12	Diciembre	2023-12-29T00:00:00	2024-11-08T18:00:00	2	Temperatura media	18.3
167874	7	Sololá	713	San Lucas Tolimán	10	San Lucas Tolimán	12	Diciembre	2023-12-29T00:00:00	2024-11-08T18:00:00	4	Temperatura máxima	19.6
167875	7	Sololá	713	San Lucas Tolimán	10	San Lucas Tolimán	12	Diciembre	2023-12-29T00:00:00	2024-11-08T18:00:00	3	Temperatura mínima	18.3
167876	7	Sololá	713	San Lucas Tolimán	10	San Lucas Tolimán	12	Diciembre	2023-12-29T00:00:00	2024-11-08T18:00:00	5	Humedad	59
167877	7	Sololá	713	San Lucas Tolimán	10	San Lucas Tolimán	12	Diciembre	2023-12-29T00:00:00	2024-11-08T18:00:00	6	Velocidad del viento	6.4
167878	7	Sololá	713	San Lucas Tolimán	10	San Lucas Tolimán	12	Diciembre	2023-12-29T00:00:00	2024-11-08T18:00:00	7	Dirección del viento	6.44
167879	7	Sololá	713	San Lucas Tolimán	10	San Lucas Tolimán	12	Diciembre	2023-12-29T00:00:00	2024-11-08T18:00:00	1	Precipitación	0
167880	7	Sololá	713	San Lucas Tolimán	10	San Lucas Tolimán	12	Diciembre	2023-12-29T00:00:00	2024-11-08T18:00:00	8	Radiación solar	19
167881	7	Sololá	713	San Lucas Tolimán	10	San Lucas Tolimán	12	Diciembre	2023-12-29T00:00:00	2024-11-08T19:00:00	2	Temperatura media	16.9
167882	7	Sololá	713	San Lucas Tolimán	10	San Lucas Tolimán	12	Diciembre	2023-12-29T00:00:00	2024-11-08T19:00:00	4	Temperatura máxima	18.3
167883	7	Sololá	713	San Lucas Tolimán	10	San Lucas Tolimán	12	Diciembre	2023-12-29T00:00:00	2024-11-08T19:00:00	3	Temperatura mínima	16.9
167884	7	Sololá	713	San Lucas Tolimán	10	San Lucas Tolimán	12	Diciembre	2023-12-29T00:00:00	2024-11-08T19:00:00	5	Humedad	57
167885	7	Sololá	713	San Lucas Tolimán	10	San Lucas Tolimán	12	Diciembre	2023-12-29T00:00:00	2024-11-08T19:00:00	6	Velocidad del viento	4.8
167886	7	Sololá	713	San Lucas Tolimán	10	San Lucas Tolimán	12	Diciembre	2023-12-29T00:00:00	2024-11-08T19:00:00	7	Dirección del viento	4.83
167887	7	Sololá	713	San Lucas Tolimán	10	San Lucas Tolimán	12	Diciembre	2023-12-29T00:00:00	2024-11-08T19:00:00	1	Precipitación	0
167888	7	Sololá	713	San Lucas Tolimán	10	San Lucas Tolimán	12	Diciembre	2023-12-29T00:00:00	2024-11-08T19:00:00	8	Radiación solar	0
167889	7	Sololá	713	San Lucas Tolimán	10	San Lucas Tolimán	12	Diciembre	2023-12-29T00:00:00	2024-11-08T20:00:00	2	Temperatura media	16.3
167890	7	Sololá	713	San Lucas Tolimán	10	San Lucas Tolimán	12	Diciembre	2023-12-29T00:00:00	2024-11-08T20:00:00	4	Temperatura máxima	16.9
167891	7	Sololá	713	San Lucas Tolimán	10	San Lucas Tolimán	12	Diciembre	2023-12-29T00:00:00	2024-11-08T20:00:00	3	Temperatura mínima	16.1
167892	7	Sololá	713	San Lucas Tolimán	10	San Lucas Tolimán	12	Diciembre	2023-12-29T00:00:00	2024-11-08T20:00:00	5	Humedad	57
167893	7	Sololá	713	San Lucas Tolimán	10	San Lucas Tolimán	12	Diciembre	2023-12-29T00:00:00	2024-11-08T20:00:00	6	Velocidad del viento	6.4
167894	7	Sololá	713	San Lucas Tolimán	10	San Lucas Tolimán	12	Diciembre	2023-12-29T00:00:00	2024-11-08T20:00:00	7	Dirección del viento	6.44
167895	7	Sololá	713	San Lucas Tolimán	10	San Lucas Tolimán	12	Diciembre	2023-12-29T00:00:00	2024-11-08T20:00:00	1	Precipitación	0
167896	7	Sololá	713	San Lucas Tolimán	10	San Lucas Tolimán	12	Diciembre	2023-12-29T00:00:00	2024-11-08T20:00:00	8	Radiación solar	0
167897	7	Sololá	713	San Lucas Tolimán	10	San Lucas Tolimán	12	Diciembre	2023-12-29T00:00:00	2024-11-08T21:00:00	2	Temperatura media	15.6
167898	7	Sololá	713	San Lucas Tolimán	10	San Lucas Tolimán	12	Diciembre	2023-12-29T00:00:00	2024-11-08T21:00:00	4	Temperatura máxima	16.3
167899	7	Sololá	713	San Lucas Tolimán	10	San Lucas Tolimán	12	Diciembre	2023-12-29T00:00:00	2024-11-08T21:00:00	3	Temperatura mínima	15.5
167900	7	Sololá	713	San Lucas Tolimán	10	San Lucas Tolimán	12	Diciembre	2023-12-29T00:00:00	2024-11-08T21:00:00	5	Humedad	60
167901	7	Sololá	713	San Lucas Tolimán	10	San Lucas Tolimán	12	Diciembre	2023-12-29T00:00:00	2024-11-08T21:00:00	6	Velocidad del viento	3.2
167902	7	Sololá	713	San Lucas Tolimán	10	San Lucas Tolimán	12	Diciembre	2023-12-29T00:00:00	2024-11-08T21:00:00	7	Dirección del viento	3.22
167903	7	Sololá	713	San Lucas Tolimán	10	San Lucas Tolimán	12	Diciembre	2023-12-29T00:00:00	2024-11-08T21:00:00	1	Precipitación	0
167904	7	Sololá	713	San Lucas Tolimán	10	San Lucas Tolimán	12	Diciembre	2023-12-29T00:00:00	2024-11-08T21:00:00	8	Radiación solar	0
167905	7	Sololá	713	San Lucas Tolimán	10	San Lucas Tolimán	12	Diciembre	2023-12-29T00:00:00	2024-11-08T22:00:00	2	Temperatura media	14.8
167906	7	Sololá	713	San Lucas Tolimán	10	San Lucas Tolimán	12	Diciembre	2023-12-29T00:00:00	2024-11-08T22:00:00	4	Temperatura máxima	15.6
167907	7	Sololá	713	San Lucas Tolimán	10	San Lucas Tolimán	12	Diciembre	2023-12-29T00:00:00	2024-11-08T22:00:00	3	Temperatura mínima	14.8
167908	7	Sololá	713	San Lucas Tolimán	10	San Lucas Tolimán	12	Diciembre	2023-12-29T00:00:00	2024-11-08T22:00:00	5	Humedad	60
167909	7	Sololá	713	San Lucas Tolimán	10	San Lucas Tolimán	12	Diciembre	2023-12-29T00:00:00	2024-11-08T22:00:00	6	Velocidad del viento	1.6
167910	7	Sololá	713	San Lucas Tolimán	10	San Lucas Tolimán	12	Diciembre	2023-12-29T00:00:00	2024-11-08T22:00:00	7	Dirección del viento	1.61
167911	7	Sololá	713	San Lucas Tolimán	10	San Lucas Tolimán	12	Diciembre	2023-12-29T00:00:00	2024-11-08T22:00:00	1	Precipitación	0
167912	7	Sololá	713	San Lucas Tolimán	10	San Lucas Tolimán	12	Diciembre	2023-12-29T00:00:00	2024-11-08T22:00:00	8	Radiación solar	0
167913	7	Sololá	713	San Lucas Tolimán	10	San Lucas Tolimán	12	Diciembre	2023-12-29T00:00:00	2024-11-08T23:00:00	2	Temperatura media	14.4
167914	7	Sololá	713	San Lucas Tolimán	10	San Lucas Tolimán	12	Diciembre	2023-12-29T00:00:00	2024-11-08T23:00:00	4	Temperatura máxima	14.9
167915	7	Sololá	713	San Lucas Tolimán	10	San Lucas Tolimán	12	Diciembre	2023-12-29T00:00:00	2024-11-08T23:00:00	3	Temperatura mínima	14.4
167916	7	Sololá	713	San Lucas Tolimán	10	San Lucas Tolimán	12	Diciembre	2023-12-29T00:00:00	2024-11-08T23:00:00	5	Humedad	60
167917	7	Sololá	713	San Lucas Tolimán	10	San Lucas Tolimán	12	Diciembre	2023-12-29T00:00:00	2024-11-08T23:00:00	6	Velocidad del viento	1.6
167918	7	Sololá	713	San Lucas Tolimán	10	San Lucas Tolimán	12	Diciembre	2023-12-29T00:00:00	2024-11-08T23:00:00	7	Dirección del viento	1.61
167919	7	Sololá	713	San Lucas Tolimán	10	San Lucas Tolimán	12	Diciembre	2023-12-29T00:00:00	2024-11-08T23:00:00	1	Precipitación	0
167920	7	Sololá	713	San Lucas Tolimán	10	San Lucas Tolimán	12	Diciembre	2023-12-29T00:00:00	2024-11-08T23:00:00	8	Radiación solar	0
167921	7	Sololá	713	San Lucas Tolimán	10	San Lucas Tolimán	12	Diciembre	2023-12-30T00:00:00	2024-11-08T00:00:00	2	Temperatura media	14.6
167922	7	Sololá	713	San Lucas Tolimán	10	San Lucas Tolimán	12	Diciembre	2023-12-30T00:00:00	2024-11-08T00:00:00	4	Temperatura máxima	14.6
167923	7	Sololá	713	San Lucas Tolimán	10	San Lucas Tolimán	12	Diciembre	2023-12-30T00:00:00	2024-11-08T00:00:00	3	Temperatura mínima	14.3
167924	7	Sololá	713	San Lucas Tolimán	10	San Lucas Tolimán	12	Diciembre	2023-12-30T00:00:00	2024-11-08T00:00:00	5	Humedad	60
167925	7	Sololá	713	San Lucas Tolimán	10	San Lucas Tolimán	12	Diciembre	2023-12-30T00:00:00	2024-11-08T00:00:00	6	Velocidad del viento	0
167926	7	Sololá	713	San Lucas Tolimán	10	San Lucas Tolimán	12	Diciembre	2023-12-30T00:00:00	2024-11-08T00:00:00	7	Dirección del viento	0
167927	7	Sololá	713	San Lucas Tolimán	10	San Lucas Tolimán	12	Diciembre	2023-12-30T00:00:00	2024-11-08T00:00:00	1	Precipitación	0
167928	7	Sololá	713	San Lucas Tolimán	10	San Lucas Tolimán	12	Diciembre	2023-12-30T00:00:00	2024-11-08T00:00:00	8	Radiación solar	0
167929	7	Sololá	713	San Lucas Tolimán	10	San Lucas Tolimán	12	Diciembre	2023-12-30T00:00:00	2024-11-08T01:00:00	2	Temperatura media	15.7
167930	7	Sololá	713	San Lucas Tolimán	10	San Lucas Tolimán	12	Diciembre	2023-12-30T00:00:00	2024-11-08T01:00:00	4	Temperatura máxima	15.7
167931	7	Sololá	713	San Lucas Tolimán	10	San Lucas Tolimán	12	Diciembre	2023-12-30T00:00:00	2024-11-08T01:00:00	3	Temperatura mínima	14.5
167932	7	Sololá	713	San Lucas Tolimán	10	San Lucas Tolimán	12	Diciembre	2023-12-30T00:00:00	2024-11-08T01:00:00	5	Humedad	56
167933	7	Sololá	713	San Lucas Tolimán	10	San Lucas Tolimán	12	Diciembre	2023-12-30T00:00:00	2024-11-08T01:00:00	6	Velocidad del viento	0
167934	7	Sololá	713	San Lucas Tolimán	10	San Lucas Tolimán	12	Diciembre	2023-12-30T00:00:00	2024-11-08T01:00:00	7	Dirección del viento	0
167935	7	Sololá	713	San Lucas Tolimán	10	San Lucas Tolimán	12	Diciembre	2023-12-30T00:00:00	2024-11-08T01:00:00	1	Precipitación	0
167936	7	Sololá	713	San Lucas Tolimán	10	San Lucas Tolimán	12	Diciembre	2023-12-30T00:00:00	2024-11-08T01:00:00	8	Radiación solar	0
167937	7	Sololá	713	San Lucas Tolimán	10	San Lucas Tolimán	12	Diciembre	2023-12-30T00:00:00	2024-11-08T02:00:00	2	Temperatura media	15
167938	7	Sololá	713	San Lucas Tolimán	10	San Lucas Tolimán	12	Diciembre	2023-12-30T00:00:00	2024-11-08T02:00:00	4	Temperatura máxima	15.7
167939	7	Sololá	713	San Lucas Tolimán	10	San Lucas Tolimán	12	Diciembre	2023-12-30T00:00:00	2024-11-08T02:00:00	3	Temperatura mínima	15
167940	7	Sololá	713	San Lucas Tolimán	10	San Lucas Tolimán	12	Diciembre	2023-12-30T00:00:00	2024-11-08T02:00:00	5	Humedad	58
167941	7	Sololá	713	San Lucas Tolimán	10	San Lucas Tolimán	12	Diciembre	2023-12-30T00:00:00	2024-11-08T02:00:00	6	Velocidad del viento	1.6
167942	7	Sololá	713	San Lucas Tolimán	10	San Lucas Tolimán	12	Diciembre	2023-12-30T00:00:00	2024-11-08T02:00:00	7	Dirección del viento	1.61
167943	7	Sololá	713	San Lucas Tolimán	10	San Lucas Tolimán	12	Diciembre	2023-12-30T00:00:00	2024-11-08T02:00:00	1	Precipitación	0
167944	7	Sololá	713	San Lucas Tolimán	10	San Lucas Tolimán	12	Diciembre	2023-12-30T00:00:00	2024-11-08T02:00:00	8	Radiación solar	0
167945	7	Sololá	713	San Lucas Tolimán	10	San Lucas Tolimán	12	Diciembre	2023-12-30T00:00:00	2024-11-08T03:00:00	2	Temperatura media	15.2
167946	7	Sololá	713	San Lucas Tolimán	10	San Lucas Tolimán	12	Diciembre	2023-12-30T00:00:00	2024-11-08T03:00:00	4	Temperatura máxima	15.4
167947	7	Sololá	713	San Lucas Tolimán	10	San Lucas Tolimán	12	Diciembre	2023-12-30T00:00:00	2024-11-08T03:00:00	3	Temperatura mínima	14.9
167948	7	Sololá	713	San Lucas Tolimán	10	San Lucas Tolimán	12	Diciembre	2023-12-30T00:00:00	2024-11-08T03:00:00	5	Humedad	55
167949	7	Sololá	713	San Lucas Tolimán	10	San Lucas Tolimán	12	Diciembre	2023-12-30T00:00:00	2024-11-08T03:00:00	6	Velocidad del viento	1.6
167950	7	Sololá	713	San Lucas Tolimán	10	San Lucas Tolimán	12	Diciembre	2023-12-30T00:00:00	2024-11-08T03:00:00	7	Dirección del viento	1.61
167951	7	Sololá	713	San Lucas Tolimán	10	San Lucas Tolimán	12	Diciembre	2023-12-30T00:00:00	2024-11-08T03:00:00	1	Precipitación	0
167952	7	Sololá	713	San Lucas Tolimán	10	San Lucas Tolimán	12	Diciembre	2023-12-30T00:00:00	2024-11-08T03:00:00	8	Radiación solar	0
167953	7	Sololá	713	San Lucas Tolimán	10	San Lucas Tolimán	12	Diciembre	2023-12-30T00:00:00	2024-11-08T04:00:00	2	Temperatura media	14.8
167954	7	Sololá	713	San Lucas Tolimán	10	San Lucas Tolimán	12	Diciembre	2023-12-30T00:00:00	2024-11-08T04:00:00	4	Temperatura máxima	15.4
167955	7	Sololá	713	San Lucas Tolimán	10	San Lucas Tolimán	12	Diciembre	2023-12-30T00:00:00	2024-11-08T04:00:00	3	Temperatura mínima	14.7
167956	7	Sololá	713	San Lucas Tolimán	10	San Lucas Tolimán	12	Diciembre	2023-12-30T00:00:00	2024-11-08T04:00:00	5	Humedad	57
167957	7	Sololá	713	San Lucas Tolimán	10	San Lucas Tolimán	12	Diciembre	2023-12-30T00:00:00	2024-11-08T04:00:00	6	Velocidad del viento	1.6
167958	7	Sololá	713	San Lucas Tolimán	10	San Lucas Tolimán	12	Diciembre	2023-12-30T00:00:00	2024-11-08T04:00:00	7	Dirección del viento	1.61
167959	7	Sololá	713	San Lucas Tolimán	10	San Lucas Tolimán	12	Diciembre	2023-12-30T00:00:00	2024-11-08T04:00:00	1	Precipitación	0
167960	7	Sololá	713	San Lucas Tolimán	10	San Lucas Tolimán	12	Diciembre	2023-12-30T00:00:00	2024-11-08T04:00:00	8	Radiación solar	0
167961	7	Sololá	713	San Lucas Tolimán	10	San Lucas Tolimán	12	Diciembre	2023-12-30T00:00:00	2024-11-08T05:00:00	2	Temperatura media	15
167962	7	Sololá	713	San Lucas Tolimán	10	San Lucas Tolimán	12	Diciembre	2023-12-30T00:00:00	2024-11-08T05:00:00	4	Temperatura máxima	15.3
167963	7	Sololá	713	San Lucas Tolimán	10	San Lucas Tolimán	12	Diciembre	2023-12-30T00:00:00	2024-11-08T05:00:00	3	Temperatura mínima	14.8
167964	7	Sololá	713	San Lucas Tolimán	10	San Lucas Tolimán	12	Diciembre	2023-12-30T00:00:00	2024-11-08T05:00:00	5	Humedad	57
167965	7	Sololá	713	San Lucas Tolimán	10	San Lucas Tolimán	12	Diciembre	2023-12-30T00:00:00	2024-11-08T05:00:00	6	Velocidad del viento	3.2
167966	7	Sololá	713	San Lucas Tolimán	10	San Lucas Tolimán	12	Diciembre	2023-12-30T00:00:00	2024-11-08T05:00:00	7	Dirección del viento	3.22
167967	7	Sololá	713	San Lucas Tolimán	10	San Lucas Tolimán	12	Diciembre	2023-12-30T00:00:00	2024-11-08T05:00:00	1	Precipitación	0
167968	7	Sololá	713	San Lucas Tolimán	10	San Lucas Tolimán	12	Diciembre	2023-12-30T00:00:00	2024-11-08T05:00:00	8	Radiación solar	0
167969	7	Sololá	713	San Lucas Tolimán	10	San Lucas Tolimán	12	Diciembre	2023-12-30T00:00:00	2024-11-08T06:00:00	2	Temperatura media	14.1
167970	7	Sololá	713	San Lucas Tolimán	10	San Lucas Tolimán	12	Diciembre	2023-12-30T00:00:00	2024-11-08T06:00:00	4	Temperatura máxima	15.1
167971	7	Sololá	713	San Lucas Tolimán	10	San Lucas Tolimán	12	Diciembre	2023-12-30T00:00:00	2024-11-08T06:00:00	3	Temperatura mínima	14.1
167972	7	Sololá	713	San Lucas Tolimán	10	San Lucas Tolimán	12	Diciembre	2023-12-30T00:00:00	2024-11-08T06:00:00	5	Humedad	60
167973	7	Sololá	713	San Lucas Tolimán	10	San Lucas Tolimán	12	Diciembre	2023-12-30T00:00:00	2024-11-08T06:00:00	6	Velocidad del viento	3.2
167974	7	Sololá	713	San Lucas Tolimán	10	San Lucas Tolimán	12	Diciembre	2023-12-30T00:00:00	2024-11-08T06:00:00	7	Dirección del viento	3.22
167975	7	Sololá	713	San Lucas Tolimán	10	San Lucas Tolimán	12	Diciembre	2023-12-30T00:00:00	2024-11-08T06:00:00	1	Precipitación	0
167976	7	Sololá	713	San Lucas Tolimán	10	San Lucas Tolimán	12	Diciembre	2023-12-30T00:00:00	2024-11-08T06:00:00	8	Radiación solar	0
167977	7	Sololá	713	San Lucas Tolimán	10	San Lucas Tolimán	12	Diciembre	2023-12-30T00:00:00	2024-11-08T07:00:00	2	Temperatura media	14.9
167978	7	Sololá	713	San Lucas Tolimán	10	San Lucas Tolimán	12	Diciembre	2023-12-30T00:00:00	2024-11-08T07:00:00	4	Temperatura máxima	14.9
167979	7	Sololá	713	San Lucas Tolimán	10	San Lucas Tolimán	12	Diciembre	2023-12-30T00:00:00	2024-11-08T07:00:00	3	Temperatura mínima	13.9
167980	7	Sololá	713	San Lucas Tolimán	10	San Lucas Tolimán	12	Diciembre	2023-12-30T00:00:00	2024-11-08T07:00:00	5	Humedad	57
167981	7	Sololá	713	San Lucas Tolimán	10	San Lucas Tolimán	12	Diciembre	2023-12-30T00:00:00	2024-11-08T07:00:00	6	Velocidad del viento	3.2
167982	7	Sololá	713	San Lucas Tolimán	10	San Lucas Tolimán	12	Diciembre	2023-12-30T00:00:00	2024-11-08T07:00:00	7	Dirección del viento	3.22
167983	7	Sololá	713	San Lucas Tolimán	10	San Lucas Tolimán	12	Diciembre	2023-12-30T00:00:00	2024-11-08T07:00:00	1	Precipitación	0
167984	7	Sololá	713	San Lucas Tolimán	10	San Lucas Tolimán	12	Diciembre	2023-12-30T00:00:00	2024-11-08T07:00:00	8	Radiación solar	5
167985	7	Sololá	713	San Lucas Tolimán	10	San Lucas Tolimán	12	Diciembre	2023-12-30T00:00:00	2024-11-08T08:00:00	2	Temperatura media	15.7
167986	7	Sololá	713	San Lucas Tolimán	10	San Lucas Tolimán	12	Diciembre	2023-12-30T00:00:00	2024-11-08T08:00:00	4	Temperatura máxima	15.8
167987	7	Sololá	713	San Lucas Tolimán	10	San Lucas Tolimán	12	Diciembre	2023-12-30T00:00:00	2024-11-08T08:00:00	3	Temperatura mínima	14.9
167988	7	Sololá	713	San Lucas Tolimán	10	San Lucas Tolimán	12	Diciembre	2023-12-30T00:00:00	2024-11-08T08:00:00	5	Humedad	57
167989	7	Sololá	713	San Lucas Tolimán	10	San Lucas Tolimán	12	Diciembre	2023-12-30T00:00:00	2024-11-08T08:00:00	6	Velocidad del viento	3.2
167990	7	Sololá	713	San Lucas Tolimán	10	San Lucas Tolimán	12	Diciembre	2023-12-30T00:00:00	2024-11-08T08:00:00	7	Dirección del viento	3.22
167991	7	Sololá	713	San Lucas Tolimán	10	San Lucas Tolimán	12	Diciembre	2023-12-30T00:00:00	2024-11-08T08:00:00	1	Precipitación	0
167992	7	Sololá	713	San Lucas Tolimán	10	San Lucas Tolimán	12	Diciembre	2023-12-30T00:00:00	2024-11-08T08:00:00	8	Radiación solar	30
167993	7	Sololá	713	San Lucas Tolimán	10	San Lucas Tolimán	12	Diciembre	2023-12-30T00:00:00	2024-11-08T09:00:00	2	Temperatura media	18.5
167994	7	Sololá	713	San Lucas Tolimán	10	San Lucas Tolimán	12	Diciembre	2023-12-30T00:00:00	2024-11-08T09:00:00	4	Temperatura máxima	18.5
167995	7	Sololá	713	San Lucas Tolimán	10	San Lucas Tolimán	12	Diciembre	2023-12-30T00:00:00	2024-11-08T09:00:00	3	Temperatura mínima	15.7
167996	7	Sololá	713	San Lucas Tolimán	10	San Lucas Tolimán	12	Diciembre	2023-12-30T00:00:00	2024-11-08T09:00:00	5	Humedad	53
167997	7	Sololá	713	San Lucas Tolimán	10	San Lucas Tolimán	12	Diciembre	2023-12-30T00:00:00	2024-11-08T09:00:00	6	Velocidad del viento	4.8
167998	7	Sololá	713	San Lucas Tolimán	10	San Lucas Tolimán	12	Diciembre	2023-12-30T00:00:00	2024-11-08T09:00:00	7	Dirección del viento	4.83
167999	7	Sololá	713	San Lucas Tolimán	10	San Lucas Tolimán	12	Diciembre	2023-12-30T00:00:00	2024-11-08T09:00:00	1	Precipitación	0
168000	7	Sololá	713	San Lucas Tolimán	10	San Lucas Tolimán	12	Diciembre	2023-12-30T00:00:00	2024-11-08T09:00:00	8	Radiación solar	267
168001	7	Sololá	713	San Lucas Tolimán	10	San Lucas Tolimán	12	Diciembre	2023-12-30T00:00:00	2024-11-08T10:00:00	2	Temperatura media	21.1
168002	7	Sololá	713	San Lucas Tolimán	10	San Lucas Tolimán	12	Diciembre	2023-12-30T00:00:00	2024-11-08T10:00:00	4	Temperatura máxima	21.1
168003	7	Sololá	713	San Lucas Tolimán	10	San Lucas Tolimán	12	Diciembre	2023-12-30T00:00:00	2024-11-08T10:00:00	3	Temperatura mínima	18.5
168004	7	Sololá	713	San Lucas Tolimán	10	San Lucas Tolimán	12	Diciembre	2023-12-30T00:00:00	2024-11-08T10:00:00	5	Humedad	49
168005	7	Sololá	713	San Lucas Tolimán	10	San Lucas Tolimán	12	Diciembre	2023-12-30T00:00:00	2024-11-08T10:00:00	6	Velocidad del viento	4.8
168006	7	Sololá	713	San Lucas Tolimán	10	San Lucas Tolimán	12	Diciembre	2023-12-30T00:00:00	2024-11-08T10:00:00	7	Dirección del viento	4.83
168007	7	Sololá	713	San Lucas Tolimán	10	San Lucas Tolimán	12	Diciembre	2023-12-30T00:00:00	2024-11-08T10:00:00	1	Precipitación	0
168008	7	Sololá	713	San Lucas Tolimán	10	San Lucas Tolimán	12	Diciembre	2023-12-30T00:00:00	2024-11-08T10:00:00	8	Radiación solar	576
168009	7	Sololá	713	San Lucas Tolimán	10	San Lucas Tolimán	12	Diciembre	2023-12-30T00:00:00	2024-11-08T11:00:00	2	Temperatura media	23.2
168010	7	Sololá	713	San Lucas Tolimán	10	San Lucas Tolimán	12	Diciembre	2023-12-30T00:00:00	2024-11-08T11:00:00	4	Temperatura máxima	23.2
168011	7	Sololá	713	San Lucas Tolimán	10	San Lucas Tolimán	12	Diciembre	2023-12-30T00:00:00	2024-11-08T11:00:00	3	Temperatura mínima	21.1
168012	7	Sololá	713	San Lucas Tolimán	10	San Lucas Tolimán	12	Diciembre	2023-12-30T00:00:00	2024-11-08T11:00:00	5	Humedad	54
168013	7	Sololá	713	San Lucas Tolimán	10	San Lucas Tolimán	12	Diciembre	2023-12-30T00:00:00	2024-11-08T11:00:00	6	Velocidad del viento	3.2
168014	7	Sololá	713	San Lucas Tolimán	10	San Lucas Tolimán	12	Diciembre	2023-12-30T00:00:00	2024-11-08T11:00:00	7	Dirección del viento	3.22
168015	7	Sololá	713	San Lucas Tolimán	10	San Lucas Tolimán	12	Diciembre	2023-12-30T00:00:00	2024-11-08T11:00:00	1	Precipitación	0
168016	7	Sololá	713	San Lucas Tolimán	10	San Lucas Tolimán	12	Diciembre	2023-12-30T00:00:00	2024-11-08T11:00:00	8	Radiación solar	652
168017	7	Sololá	713	San Lucas Tolimán	10	San Lucas Tolimán	12	Diciembre	2023-12-30T00:00:00	2024-11-08T12:00:00	2	Temperatura media	22.4
168018	7	Sololá	713	San Lucas Tolimán	10	San Lucas Tolimán	12	Diciembre	2023-12-30T00:00:00	2024-11-08T12:00:00	4	Temperatura máxima	23.4
168019	7	Sololá	713	San Lucas Tolimán	10	San Lucas Tolimán	12	Diciembre	2023-12-30T00:00:00	2024-11-08T12:00:00	3	Temperatura mínima	22.4
168020	7	Sololá	713	San Lucas Tolimán	10	San Lucas Tolimán	12	Diciembre	2023-12-30T00:00:00	2024-11-08T12:00:00	5	Humedad	57
168021	7	Sololá	713	San Lucas Tolimán	10	San Lucas Tolimán	12	Diciembre	2023-12-30T00:00:00	2024-11-08T12:00:00	6	Velocidad del viento	9.7
168022	7	Sololá	713	San Lucas Tolimán	10	San Lucas Tolimán	12	Diciembre	2023-12-30T00:00:00	2024-11-08T12:00:00	7	Dirección del viento	9.66
168023	7	Sololá	713	San Lucas Tolimán	10	San Lucas Tolimán	12	Diciembre	2023-12-30T00:00:00	2024-11-08T12:00:00	1	Precipitación	0
168024	7	Sololá	713	San Lucas Tolimán	10	San Lucas Tolimán	12	Diciembre	2023-12-30T00:00:00	2024-11-08T12:00:00	8	Radiación solar	841
168025	7	Sololá	713	San Lucas Tolimán	10	San Lucas Tolimán	12	Diciembre	2023-12-30T00:00:00	2024-11-08T13:00:00	2	Temperatura media	22.3
168026	7	Sololá	713	San Lucas Tolimán	10	San Lucas Tolimán	12	Diciembre	2023-12-30T00:00:00	2024-11-08T13:00:00	4	Temperatura máxima	22.7
168027	7	Sololá	713	San Lucas Tolimán	10	San Lucas Tolimán	12	Diciembre	2023-12-30T00:00:00	2024-11-08T13:00:00	3	Temperatura mínima	21.9
168028	7	Sololá	713	San Lucas Tolimán	10	San Lucas Tolimán	12	Diciembre	2023-12-30T00:00:00	2024-11-08T13:00:00	5	Humedad	57
168029	7	Sololá	713	San Lucas Tolimán	10	San Lucas Tolimán	12	Diciembre	2023-12-30T00:00:00	2024-11-08T13:00:00	6	Velocidad del viento	12.9
168030	7	Sololá	713	San Lucas Tolimán	10	San Lucas Tolimán	12	Diciembre	2023-12-30T00:00:00	2024-11-08T13:00:00	7	Dirección del viento	12.87
168031	7	Sololá	713	San Lucas Tolimán	10	San Lucas Tolimán	12	Diciembre	2023-12-30T00:00:00	2024-11-08T13:00:00	1	Precipitación	0
168032	7	Sololá	713	San Lucas Tolimán	10	San Lucas Tolimán	12	Diciembre	2023-12-30T00:00:00	2024-11-08T13:00:00	8	Radiación solar	858
168033	7	Sololá	713	San Lucas Tolimán	10	San Lucas Tolimán	12	Diciembre	2023-12-30T00:00:00	2024-11-08T14:00:00	2	Temperatura media	21.7
168034	7	Sololá	713	San Lucas Tolimán	10	San Lucas Tolimán	12	Diciembre	2023-12-30T00:00:00	2024-11-08T14:00:00	4	Temperatura máxima	22.3
168035	7	Sololá	713	San Lucas Tolimán	10	San Lucas Tolimán	12	Diciembre	2023-12-30T00:00:00	2024-11-08T14:00:00	3	Temperatura mínima	21.4
168036	7	Sololá	713	San Lucas Tolimán	10	San Lucas Tolimán	12	Diciembre	2023-12-30T00:00:00	2024-11-08T14:00:00	5	Humedad	59
168037	7	Sololá	713	San Lucas Tolimán	10	San Lucas Tolimán	12	Diciembre	2023-12-30T00:00:00	2024-11-08T14:00:00	6	Velocidad del viento	14.5
168038	7	Sololá	713	San Lucas Tolimán	10	San Lucas Tolimán	12	Diciembre	2023-12-30T00:00:00	2024-11-08T14:00:00	7	Dirección del viento	14.48
168039	7	Sololá	713	San Lucas Tolimán	10	San Lucas Tolimán	12	Diciembre	2023-12-30T00:00:00	2024-11-08T14:00:00	1	Precipitación	0
168040	7	Sololá	713	San Lucas Tolimán	10	San Lucas Tolimán	12	Diciembre	2023-12-30T00:00:00	2024-11-08T14:00:00	8	Radiación solar	691
168041	7	Sololá	713	San Lucas Tolimán	10	San Lucas Tolimán	12	Diciembre	2023-12-30T00:00:00	2024-11-08T15:00:00	2	Temperatura media	21.8
168042	7	Sololá	713	San Lucas Tolimán	10	San Lucas Tolimán	12	Diciembre	2023-12-30T00:00:00	2024-11-08T15:00:00	4	Temperatura máxima	21.9
168043	7	Sololá	713	San Lucas Tolimán	10	San Lucas Tolimán	12	Diciembre	2023-12-30T00:00:00	2024-11-08T15:00:00	3	Temperatura mínima	21.2
168044	7	Sololá	713	San Lucas Tolimán	10	San Lucas Tolimán	12	Diciembre	2023-12-30T00:00:00	2024-11-08T15:00:00	5	Humedad	58
168045	7	Sololá	713	San Lucas Tolimán	10	San Lucas Tolimán	12	Diciembre	2023-12-30T00:00:00	2024-11-08T15:00:00	6	Velocidad del viento	11.3
168046	7	Sololá	713	San Lucas Tolimán	10	San Lucas Tolimán	12	Diciembre	2023-12-30T00:00:00	2024-11-08T15:00:00	7	Dirección del viento	11.27
168047	7	Sololá	713	San Lucas Tolimán	10	San Lucas Tolimán	12	Diciembre	2023-12-30T00:00:00	2024-11-08T15:00:00	1	Precipitación	0
168048	7	Sololá	713	San Lucas Tolimán	10	San Lucas Tolimán	12	Diciembre	2023-12-30T00:00:00	2024-11-08T15:00:00	8	Radiación solar	445
168049	7	Sololá	713	San Lucas Tolimán	10	San Lucas Tolimán	12	Diciembre	2023-12-30T00:00:00	2024-11-08T16:00:00	2	Temperatura media	21.3
168050	7	Sololá	713	San Lucas Tolimán	10	San Lucas Tolimán	12	Diciembre	2023-12-30T00:00:00	2024-11-08T16:00:00	4	Temperatura máxima	22
168051	7	Sololá	713	San Lucas Tolimán	10	San Lucas Tolimán	12	Diciembre	2023-12-30T00:00:00	2024-11-08T16:00:00	3	Temperatura mínima	21.2
168052	7	Sololá	713	San Lucas Tolimán	10	San Lucas Tolimán	12	Diciembre	2023-12-30T00:00:00	2024-11-08T16:00:00	5	Humedad	60
168053	7	Sololá	713	San Lucas Tolimán	10	San Lucas Tolimán	12	Diciembre	2023-12-30T00:00:00	2024-11-08T16:00:00	6	Velocidad del viento	11.3
168054	7	Sololá	713	San Lucas Tolimán	10	San Lucas Tolimán	12	Diciembre	2023-12-30T00:00:00	2024-11-08T16:00:00	7	Dirección del viento	11.27
168055	7	Sololá	713	San Lucas Tolimán	10	San Lucas Tolimán	12	Diciembre	2023-12-30T00:00:00	2024-11-08T16:00:00	1	Precipitación	0
168056	7	Sololá	713	San Lucas Tolimán	10	San Lucas Tolimán	12	Diciembre	2023-12-30T00:00:00	2024-11-08T16:00:00	8	Radiación solar	363
168057	7	Sololá	713	San Lucas Tolimán	10	San Lucas Tolimán	12	Diciembre	2023-12-30T00:00:00	2024-11-08T17:00:00	2	Temperatura media	19.7
168058	7	Sololá	713	San Lucas Tolimán	10	San Lucas Tolimán	12	Diciembre	2023-12-30T00:00:00	2024-11-08T17:00:00	4	Temperatura máxima	21.3
168059	7	Sololá	713	San Lucas Tolimán	10	San Lucas Tolimán	12	Diciembre	2023-12-30T00:00:00	2024-11-08T17:00:00	3	Temperatura mínima	19.7
168060	7	Sololá	713	San Lucas Tolimán	10	San Lucas Tolimán	12	Diciembre	2023-12-30T00:00:00	2024-11-08T17:00:00	5	Humedad	60
168061	7	Sololá	713	San Lucas Tolimán	10	San Lucas Tolimán	12	Diciembre	2023-12-30T00:00:00	2024-11-08T17:00:00	6	Velocidad del viento	9.7
168062	7	Sololá	713	San Lucas Tolimán	10	San Lucas Tolimán	12	Diciembre	2023-12-30T00:00:00	2024-11-08T17:00:00	7	Dirección del viento	9.66
168063	7	Sololá	713	San Lucas Tolimán	10	San Lucas Tolimán	12	Diciembre	2023-12-30T00:00:00	2024-11-08T17:00:00	1	Precipitación	0
168064	7	Sololá	713	San Lucas Tolimán	10	San Lucas Tolimán	12	Diciembre	2023-12-30T00:00:00	2024-11-08T17:00:00	8	Radiación solar	119
168065	7	Sololá	713	San Lucas Tolimán	10	San Lucas Tolimán	12	Diciembre	2023-12-30T00:00:00	2024-11-08T18:00:00	2	Temperatura media	18.8
168066	7	Sololá	713	San Lucas Tolimán	10	San Lucas Tolimán	12	Diciembre	2023-12-30T00:00:00	2024-11-08T18:00:00	4	Temperatura máxima	19.7
168067	7	Sololá	713	San Lucas Tolimán	10	San Lucas Tolimán	12	Diciembre	2023-12-30T00:00:00	2024-11-08T18:00:00	3	Temperatura mínima	18.8
168068	7	Sololá	713	San Lucas Tolimán	10	San Lucas Tolimán	12	Diciembre	2023-12-30T00:00:00	2024-11-08T18:00:00	5	Humedad	60
168069	7	Sololá	713	San Lucas Tolimán	10	San Lucas Tolimán	12	Diciembre	2023-12-30T00:00:00	2024-11-08T18:00:00	6	Velocidad del viento	6.4
168070	7	Sololá	713	San Lucas Tolimán	10	San Lucas Tolimán	12	Diciembre	2023-12-30T00:00:00	2024-11-08T18:00:00	7	Dirección del viento	6.44
168071	7	Sololá	713	San Lucas Tolimán	10	San Lucas Tolimán	12	Diciembre	2023-12-30T00:00:00	2024-11-08T18:00:00	1	Precipitación	0
168072	7	Sololá	713	San Lucas Tolimán	10	San Lucas Tolimán	12	Diciembre	2023-12-30T00:00:00	2024-11-08T18:00:00	8	Radiación solar	15
168073	7	Sololá	713	San Lucas Tolimán	10	San Lucas Tolimán	12	Diciembre	2023-12-30T00:00:00	2024-11-08T19:00:00	2	Temperatura media	17.9
168074	7	Sololá	713	San Lucas Tolimán	10	San Lucas Tolimán	12	Diciembre	2023-12-30T00:00:00	2024-11-08T19:00:00	4	Temperatura máxima	18.8
168075	7	Sololá	713	San Lucas Tolimán	10	San Lucas Tolimán	12	Diciembre	2023-12-30T00:00:00	2024-11-08T19:00:00	3	Temperatura mínima	17.9
168076	7	Sololá	713	San Lucas Tolimán	10	San Lucas Tolimán	12	Diciembre	2023-12-30T00:00:00	2024-11-08T19:00:00	5	Humedad	59
168077	7	Sololá	713	San Lucas Tolimán	10	San Lucas Tolimán	12	Diciembre	2023-12-30T00:00:00	2024-11-08T19:00:00	6	Velocidad del viento	1.6
168078	7	Sololá	713	San Lucas Tolimán	10	San Lucas Tolimán	12	Diciembre	2023-12-30T00:00:00	2024-11-08T19:00:00	7	Dirección del viento	1.61
168079	7	Sololá	713	San Lucas Tolimán	10	San Lucas Tolimán	12	Diciembre	2023-12-30T00:00:00	2024-11-08T19:00:00	1	Precipitación	0
168080	7	Sololá	713	San Lucas Tolimán	10	San Lucas Tolimán	12	Diciembre	2023-12-30T00:00:00	2024-11-08T19:00:00	8	Radiación solar	0
168081	7	Sololá	713	San Lucas Tolimán	10	San Lucas Tolimán	12	Diciembre	2023-12-30T00:00:00	2024-11-08T20:00:00	2	Temperatura media	17.6
168082	7	Sololá	713	San Lucas Tolimán	10	San Lucas Tolimán	12	Diciembre	2023-12-30T00:00:00	2024-11-08T20:00:00	4	Temperatura máxima	17.9
168083	7	Sololá	713	San Lucas Tolimán	10	San Lucas Tolimán	12	Diciembre	2023-12-30T00:00:00	2024-11-08T20:00:00	3	Temperatura mínima	17.6
168084	7	Sololá	713	San Lucas Tolimán	10	San Lucas Tolimán	12	Diciembre	2023-12-30T00:00:00	2024-11-08T20:00:00	5	Humedad	55
168085	7	Sololá	713	San Lucas Tolimán	10	San Lucas Tolimán	12	Diciembre	2023-12-30T00:00:00	2024-11-08T20:00:00	6	Velocidad del viento	3.2
168086	7	Sololá	713	San Lucas Tolimán	10	San Lucas Tolimán	12	Diciembre	2023-12-30T00:00:00	2024-11-08T20:00:00	7	Dirección del viento	3.22
168087	7	Sololá	713	San Lucas Tolimán	10	San Lucas Tolimán	12	Diciembre	2023-12-30T00:00:00	2024-11-08T20:00:00	1	Precipitación	0
168088	7	Sololá	713	San Lucas Tolimán	10	San Lucas Tolimán	12	Diciembre	2023-12-30T00:00:00	2024-11-08T20:00:00	8	Radiación solar	0
168089	7	Sololá	713	San Lucas Tolimán	10	San Lucas Tolimán	12	Diciembre	2023-12-30T00:00:00	2024-11-08T21:00:00	2	Temperatura media	18.7
168090	7	Sololá	713	San Lucas Tolimán	10	San Lucas Tolimán	12	Diciembre	2023-12-30T00:00:00	2024-11-08T21:00:00	4	Temperatura máxima	18.8
168091	7	Sololá	713	San Lucas Tolimán	10	San Lucas Tolimán	12	Diciembre	2023-12-30T00:00:00	2024-11-08T21:00:00	3	Temperatura mínima	17.6
168092	7	Sololá	713	San Lucas Tolimán	10	San Lucas Tolimán	12	Diciembre	2023-12-30T00:00:00	2024-11-08T21:00:00	5	Humedad	53
168093	7	Sololá	713	San Lucas Tolimán	10	San Lucas Tolimán	12	Diciembre	2023-12-30T00:00:00	2024-11-08T21:00:00	6	Velocidad del viento	6.4
168094	7	Sololá	713	San Lucas Tolimán	10	San Lucas Tolimán	12	Diciembre	2023-12-30T00:00:00	2024-11-08T21:00:00	7	Dirección del viento	6.44
168095	7	Sololá	713	San Lucas Tolimán	10	San Lucas Tolimán	12	Diciembre	2023-12-30T00:00:00	2024-11-08T21:00:00	1	Precipitación	0
168096	7	Sololá	713	San Lucas Tolimán	10	San Lucas Tolimán	12	Diciembre	2023-12-30T00:00:00	2024-11-08T21:00:00	8	Radiación solar	0
168097	7	Sololá	713	San Lucas Tolimán	10	San Lucas Tolimán	12	Diciembre	2023-12-30T00:00:00	2024-11-08T22:00:00	2	Temperatura media	18.4
168098	7	Sololá	713	San Lucas Tolimán	10	San Lucas Tolimán	12	Diciembre	2023-12-30T00:00:00	2024-11-08T22:00:00	4	Temperatura máxima	19.2
168099	7	Sololá	713	San Lucas Tolimán	10	San Lucas Tolimán	12	Diciembre	2023-12-30T00:00:00	2024-11-08T22:00:00	3	Temperatura mínima	18.4
168100	7	Sololá	713	San Lucas Tolimán	10	San Lucas Tolimán	12	Diciembre	2023-12-30T00:00:00	2024-11-08T22:00:00	5	Humedad	53
168101	7	Sololá	713	San Lucas Tolimán	10	San Lucas Tolimán	12	Diciembre	2023-12-30T00:00:00	2024-11-08T22:00:00	6	Velocidad del viento	9.7
168102	7	Sololá	713	San Lucas Tolimán	10	San Lucas Tolimán	12	Diciembre	2023-12-30T00:00:00	2024-11-08T22:00:00	7	Dirección del viento	9.66
168103	7	Sololá	713	San Lucas Tolimán	10	San Lucas Tolimán	12	Diciembre	2023-12-30T00:00:00	2024-11-08T22:00:00	1	Precipitación	0
168104	7	Sololá	713	San Lucas Tolimán	10	San Lucas Tolimán	12	Diciembre	2023-12-30T00:00:00	2024-11-08T22:00:00	8	Radiación solar	0
168105	7	Sololá	713	San Lucas Tolimán	10	San Lucas Tolimán	12	Diciembre	2023-12-30T00:00:00	2024-11-08T23:00:00	2	Temperatura media	18.5
168106	7	Sololá	713	San Lucas Tolimán	10	San Lucas Tolimán	12	Diciembre	2023-12-30T00:00:00	2024-11-08T23:00:00	4	Temperatura máxima	18.8
168107	7	Sololá	713	San Lucas Tolimán	10	San Lucas Tolimán	12	Diciembre	2023-12-30T00:00:00	2024-11-08T23:00:00	3	Temperatura mínima	18.3
168108	7	Sololá	713	San Lucas Tolimán	10	San Lucas Tolimán	12	Diciembre	2023-12-30T00:00:00	2024-11-08T23:00:00	5	Humedad	52
168109	7	Sololá	713	San Lucas Tolimán	10	San Lucas Tolimán	12	Diciembre	2023-12-30T00:00:00	2024-11-08T23:00:00	6	Velocidad del viento	12.9
168110	7	Sololá	713	San Lucas Tolimán	10	San Lucas Tolimán	12	Diciembre	2023-12-30T00:00:00	2024-11-08T23:00:00	7	Dirección del viento	12.87
168111	7	Sololá	713	San Lucas Tolimán	10	San Lucas Tolimán	12	Diciembre	2023-12-30T00:00:00	2024-11-08T23:00:00	1	Precipitación	0
168112	7	Sololá	713	San Lucas Tolimán	10	San Lucas Tolimán	12	Diciembre	2023-12-30T00:00:00	2024-11-08T23:00:00	8	Radiación solar	0
168113	7	Sololá	713	San Lucas Tolimán	10	San Lucas Tolimán	12	Diciembre	2023-12-31T00:00:00	2024-11-08T00:00:00	2	Temperatura media	18
168114	7	Sololá	713	San Lucas Tolimán	10	San Lucas Tolimán	12	Diciembre	2023-12-31T00:00:00	2024-11-08T00:00:00	4	Temperatura máxima	18.5
168115	7	Sololá	713	San Lucas Tolimán	10	San Lucas Tolimán	12	Diciembre	2023-12-31T00:00:00	2024-11-08T00:00:00	3	Temperatura mínima	18
168116	7	Sololá	713	San Lucas Tolimán	10	San Lucas Tolimán	12	Diciembre	2023-12-31T00:00:00	2024-11-08T00:00:00	5	Humedad	52
168117	7	Sololá	713	San Lucas Tolimán	10	San Lucas Tolimán	12	Diciembre	2023-12-31T00:00:00	2024-11-08T00:00:00	6	Velocidad del viento	11.3
168118	7	Sololá	713	San Lucas Tolimán	10	San Lucas Tolimán	12	Diciembre	2023-12-31T00:00:00	2024-11-08T00:00:00	7	Dirección del viento	11.27
168119	7	Sololá	713	San Lucas Tolimán	10	San Lucas Tolimán	12	Diciembre	2023-12-31T00:00:00	2024-11-08T00:00:00	1	Precipitación	0
168120	7	Sololá	713	San Lucas Tolimán	10	San Lucas Tolimán	12	Diciembre	2023-12-31T00:00:00	2024-11-08T00:00:00	8	Radiación solar	0
168121	7	Sololá	713	San Lucas Tolimán	10	San Lucas Tolimán	12	Diciembre	2023-12-31T00:00:00	2024-11-08T01:00:00	2	Temperatura media	17.7
168122	7	Sololá	713	San Lucas Tolimán	10	San Lucas Tolimán	12	Diciembre	2023-12-31T00:00:00	2024-11-08T01:00:00	4	Temperatura máxima	18.1
168123	7	Sololá	713	San Lucas Tolimán	10	San Lucas Tolimán	12	Diciembre	2023-12-31T00:00:00	2024-11-08T01:00:00	3	Temperatura mínima	17.7
168124	7	Sololá	713	San Lucas Tolimán	10	San Lucas Tolimán	12	Diciembre	2023-12-31T00:00:00	2024-11-08T01:00:00	5	Humedad	52
168125	7	Sololá	713	San Lucas Tolimán	10	San Lucas Tolimán	12	Diciembre	2023-12-31T00:00:00	2024-11-08T01:00:00	6	Velocidad del viento	12.9
168126	7	Sololá	713	San Lucas Tolimán	10	San Lucas Tolimán	12	Diciembre	2023-12-31T00:00:00	2024-11-08T01:00:00	7	Dirección del viento	12.87
168127	7	Sololá	713	San Lucas Tolimán	10	San Lucas Tolimán	12	Diciembre	2023-12-31T00:00:00	2024-11-08T01:00:00	1	Precipitación	0
168128	7	Sololá	713	San Lucas Tolimán	10	San Lucas Tolimán	12	Diciembre	2023-12-31T00:00:00	2024-11-08T01:00:00	8	Radiación solar	0
168129	7	Sololá	713	San Lucas Tolimán	10	San Lucas Tolimán	12	Diciembre	2023-12-31T00:00:00	2024-11-08T02:00:00	2	Temperatura media	17.3
168130	7	Sololá	713	San Lucas Tolimán	10	San Lucas Tolimán	12	Diciembre	2023-12-31T00:00:00	2024-11-08T02:00:00	4	Temperatura máxima	18.1
168131	7	Sololá	713	San Lucas Tolimán	10	San Lucas Tolimán	12	Diciembre	2023-12-31T00:00:00	2024-11-08T02:00:00	3	Temperatura mínima	17.3
168132	7	Sololá	713	San Lucas Tolimán	10	San Lucas Tolimán	12	Diciembre	2023-12-31T00:00:00	2024-11-08T02:00:00	5	Humedad	53
168133	7	Sololá	713	San Lucas Tolimán	10	San Lucas Tolimán	12	Diciembre	2023-12-31T00:00:00	2024-11-08T02:00:00	6	Velocidad del viento	9.7
168134	7	Sololá	713	San Lucas Tolimán	10	San Lucas Tolimán	12	Diciembre	2023-12-31T00:00:00	2024-11-08T02:00:00	7	Dirección del viento	9.66
168135	7	Sololá	713	San Lucas Tolimán	10	San Lucas Tolimán	12	Diciembre	2023-12-31T00:00:00	2024-11-08T02:00:00	1	Precipitación	0
168136	7	Sololá	713	San Lucas Tolimán	10	San Lucas Tolimán	12	Diciembre	2023-12-31T00:00:00	2024-11-08T02:00:00	8	Radiación solar	0
168137	7	Sololá	713	San Lucas Tolimán	10	San Lucas Tolimán	12	Diciembre	2023-12-31T00:00:00	2024-11-08T03:00:00	2	Temperatura media	16.2
168138	7	Sololá	713	San Lucas Tolimán	10	San Lucas Tolimán	12	Diciembre	2023-12-31T00:00:00	2024-11-08T03:00:00	4	Temperatura máxima	17.3
168139	7	Sololá	713	San Lucas Tolimán	10	San Lucas Tolimán	12	Diciembre	2023-12-31T00:00:00	2024-11-08T03:00:00	3	Temperatura mínima	16.2
168140	7	Sololá	713	San Lucas Tolimán	10	San Lucas Tolimán	12	Diciembre	2023-12-31T00:00:00	2024-11-08T03:00:00	5	Humedad	57
168141	7	Sololá	713	San Lucas Tolimán	10	San Lucas Tolimán	12	Diciembre	2023-12-31T00:00:00	2024-11-08T03:00:00	6	Velocidad del viento	6.4
168142	7	Sololá	713	San Lucas Tolimán	10	San Lucas Tolimán	12	Diciembre	2023-12-31T00:00:00	2024-11-08T03:00:00	7	Dirección del viento	6.44
168143	7	Sololá	713	San Lucas Tolimán	10	San Lucas Tolimán	12	Diciembre	2023-12-31T00:00:00	2024-11-08T03:00:00	1	Precipitación	0
168144	7	Sololá	713	San Lucas Tolimán	10	San Lucas Tolimán	12	Diciembre	2023-12-31T00:00:00	2024-11-08T03:00:00	8	Radiación solar	0
168145	7	Sololá	713	San Lucas Tolimán	10	San Lucas Tolimán	12	Diciembre	2023-12-31T00:00:00	2024-11-08T04:00:00	2	Temperatura media	15.3
168146	7	Sololá	713	San Lucas Tolimán	10	San Lucas Tolimán	12	Diciembre	2023-12-31T00:00:00	2024-11-08T04:00:00	4	Temperatura máxima	16.2
168147	7	Sololá	713	San Lucas Tolimán	10	San Lucas Tolimán	12	Diciembre	2023-12-31T00:00:00	2024-11-08T04:00:00	3	Temperatura mínima	15.3
168148	7	Sololá	713	San Lucas Tolimán	10	San Lucas Tolimán	12	Diciembre	2023-12-31T00:00:00	2024-11-08T04:00:00	5	Humedad	59
168149	7	Sololá	713	San Lucas Tolimán	10	San Lucas Tolimán	12	Diciembre	2023-12-31T00:00:00	2024-11-08T04:00:00	6	Velocidad del viento	4.8
168150	7	Sololá	713	San Lucas Tolimán	10	San Lucas Tolimán	12	Diciembre	2023-12-31T00:00:00	2024-11-08T04:00:00	7	Dirección del viento	4.83
168151	7	Sololá	713	San Lucas Tolimán	10	San Lucas Tolimán	12	Diciembre	2023-12-31T00:00:00	2024-11-08T04:00:00	1	Precipitación	0
168152	7	Sololá	713	San Lucas Tolimán	10	San Lucas Tolimán	12	Diciembre	2023-12-31T00:00:00	2024-11-08T04:00:00	8	Radiación solar	0
168153	7	Sololá	713	San Lucas Tolimán	10	San Lucas Tolimán	12	Diciembre	2023-12-31T00:00:00	2024-11-08T05:00:00	2	Temperatura media	15.2
168154	7	Sololá	713	San Lucas Tolimán	10	San Lucas Tolimán	12	Diciembre	2023-12-31T00:00:00	2024-11-08T05:00:00	4	Temperatura máxima	15.3
168155	7	Sololá	713	San Lucas Tolimán	10	San Lucas Tolimán	12	Diciembre	2023-12-31T00:00:00	2024-11-08T05:00:00	3	Temperatura mínima	14.9
168156	7	Sololá	713	San Lucas Tolimán	10	San Lucas Tolimán	12	Diciembre	2023-12-31T00:00:00	2024-11-08T05:00:00	5	Humedad	59
168157	7	Sololá	713	San Lucas Tolimán	10	San Lucas Tolimán	12	Diciembre	2023-12-31T00:00:00	2024-11-08T05:00:00	6	Velocidad del viento	3.2
168158	7	Sololá	713	San Lucas Tolimán	10	San Lucas Tolimán	12	Diciembre	2023-12-31T00:00:00	2024-11-08T05:00:00	7	Dirección del viento	3.22
168159	7	Sololá	713	San Lucas Tolimán	10	San Lucas Tolimán	12	Diciembre	2023-12-31T00:00:00	2024-11-08T05:00:00	1	Precipitación	0
168160	7	Sololá	713	San Lucas Tolimán	10	San Lucas Tolimán	12	Diciembre	2023-12-31T00:00:00	2024-11-08T05:00:00	8	Radiación solar	0
168161	7	Sololá	713	San Lucas Tolimán	10	San Lucas Tolimán	12	Diciembre	2023-12-31T00:00:00	2024-11-08T06:00:00	2	Temperatura media	15.6
168162	7	Sololá	713	San Lucas Tolimán	10	San Lucas Tolimán	12	Diciembre	2023-12-31T00:00:00	2024-11-08T06:00:00	4	Temperatura máxima	15.6
168163	7	Sololá	713	San Lucas Tolimán	10	San Lucas Tolimán	12	Diciembre	2023-12-31T00:00:00	2024-11-08T06:00:00	3	Temperatura mínima	14.9
168164	7	Sololá	713	San Lucas Tolimán	10	San Lucas Tolimán	12	Diciembre	2023-12-31T00:00:00	2024-11-08T06:00:00	5	Humedad	58
168165	7	Sololá	713	San Lucas Tolimán	10	San Lucas Tolimán	12	Diciembre	2023-12-31T00:00:00	2024-11-08T06:00:00	6	Velocidad del viento	4.8
168166	7	Sololá	713	San Lucas Tolimán	10	San Lucas Tolimán	12	Diciembre	2023-12-31T00:00:00	2024-11-08T06:00:00	7	Dirección del viento	4.83
168167	7	Sololá	713	San Lucas Tolimán	10	San Lucas Tolimán	12	Diciembre	2023-12-31T00:00:00	2024-11-08T06:00:00	1	Precipitación	0
168168	7	Sololá	713	San Lucas Tolimán	10	San Lucas Tolimán	12	Diciembre	2023-12-31T00:00:00	2024-11-08T06:00:00	8	Radiación solar	0
168169	7	Sololá	713	San Lucas Tolimán	10	San Lucas Tolimán	12	Diciembre	2023-12-31T00:00:00	2024-11-08T07:00:00	2	Temperatura media	15.1
168170	7	Sololá	713	San Lucas Tolimán	10	San Lucas Tolimán	12	Diciembre	2023-12-31T00:00:00	2024-11-08T07:00:00	4	Temperatura máxima	15.6
168171	7	Sololá	713	San Lucas Tolimán	10	San Lucas Tolimán	12	Diciembre	2023-12-31T00:00:00	2024-11-08T07:00:00	3	Temperatura mínima	15
168172	7	Sololá	713	San Lucas Tolimán	10	San Lucas Tolimán	12	Diciembre	2023-12-31T00:00:00	2024-11-08T07:00:00	5	Humedad	60
168173	7	Sololá	713	San Lucas Tolimán	10	San Lucas Tolimán	12	Diciembre	2023-12-31T00:00:00	2024-11-08T07:00:00	6	Velocidad del viento	6.4
168174	7	Sololá	713	San Lucas Tolimán	10	San Lucas Tolimán	12	Diciembre	2023-12-31T00:00:00	2024-11-08T07:00:00	7	Dirección del viento	6.44
168175	7	Sololá	713	San Lucas Tolimán	10	San Lucas Tolimán	12	Diciembre	2023-12-31T00:00:00	2024-11-08T07:00:00	1	Precipitación	0
168176	7	Sololá	713	San Lucas Tolimán	10	San Lucas Tolimán	12	Diciembre	2023-12-31T00:00:00	2024-11-08T07:00:00	8	Radiación solar	5
168177	7	Sololá	713	San Lucas Tolimán	10	San Lucas Tolimán	12	Diciembre	2023-12-31T00:00:00	2024-11-08T08:00:00	2	Temperatura media	16.3
168178	7	Sololá	713	San Lucas Tolimán	10	San Lucas Tolimán	12	Diciembre	2023-12-31T00:00:00	2024-11-08T08:00:00	4	Temperatura máxima	16.3
168179	7	Sololá	713	San Lucas Tolimán	10	San Lucas Tolimán	12	Diciembre	2023-12-31T00:00:00	2024-11-08T08:00:00	3	Temperatura mínima	15.1
168180	7	Sololá	713	San Lucas Tolimán	10	San Lucas Tolimán	12	Diciembre	2023-12-31T00:00:00	2024-11-08T08:00:00	5	Humedad	57
168181	7	Sololá	713	San Lucas Tolimán	10	San Lucas Tolimán	12	Diciembre	2023-12-31T00:00:00	2024-11-08T08:00:00	6	Velocidad del viento	4.8
168182	7	Sololá	713	San Lucas Tolimán	10	San Lucas Tolimán	12	Diciembre	2023-12-31T00:00:00	2024-11-08T08:00:00	7	Dirección del viento	4.83
168183	7	Sololá	713	San Lucas Tolimán	10	San Lucas Tolimán	12	Diciembre	2023-12-31T00:00:00	2024-11-08T08:00:00	1	Precipitación	0
168184	7	Sololá	713	San Lucas Tolimán	10	San Lucas Tolimán	12	Diciembre	2023-12-31T00:00:00	2024-11-08T08:00:00	8	Radiación solar	22
168185	7	Sololá	713	San Lucas Tolimán	10	San Lucas Tolimán	12	Diciembre	2023-12-31T00:00:00	2024-11-08T09:00:00	2	Temperatura media	18.6
168186	7	Sololá	713	San Lucas Tolimán	10	San Lucas Tolimán	12	Diciembre	2023-12-31T00:00:00	2024-11-08T09:00:00	4	Temperatura máxima	18.6
168187	7	Sololá	713	San Lucas Tolimán	10	San Lucas Tolimán	12	Diciembre	2023-12-31T00:00:00	2024-11-08T09:00:00	3	Temperatura mínima	16.3
168188	7	Sololá	713	San Lucas Tolimán	10	San Lucas Tolimán	12	Diciembre	2023-12-31T00:00:00	2024-11-08T09:00:00	5	Humedad	51
168189	7	Sololá	713	San Lucas Tolimán	10	San Lucas Tolimán	12	Diciembre	2023-12-31T00:00:00	2024-11-08T09:00:00	6	Velocidad del viento	3.2
168190	7	Sololá	713	San Lucas Tolimán	10	San Lucas Tolimán	12	Diciembre	2023-12-31T00:00:00	2024-11-08T09:00:00	7	Dirección del viento	3.22
168191	7	Sololá	713	San Lucas Tolimán	10	San Lucas Tolimán	12	Diciembre	2023-12-31T00:00:00	2024-11-08T09:00:00	1	Precipitación	0
168192	7	Sololá	713	San Lucas Tolimán	10	San Lucas Tolimán	12	Diciembre	2023-12-31T00:00:00	2024-11-08T09:00:00	8	Radiación solar	269
168193	7	Sololá	713	San Lucas Tolimán	10	San Lucas Tolimán	12	Diciembre	2023-12-31T00:00:00	2024-11-08T10:00:00	2	Temperatura media	20.8
168194	7	Sololá	713	San Lucas Tolimán	10	San Lucas Tolimán	12	Diciembre	2023-12-31T00:00:00	2024-11-08T10:00:00	4	Temperatura máxima	20.8
168195	7	Sololá	713	San Lucas Tolimán	10	San Lucas Tolimán	12	Diciembre	2023-12-31T00:00:00	2024-11-08T10:00:00	3	Temperatura mínima	18.6
168196	7	Sololá	713	San Lucas Tolimán	10	San Lucas Tolimán	12	Diciembre	2023-12-31T00:00:00	2024-11-08T10:00:00	5	Humedad	45
168197	7	Sololá	713	San Lucas Tolimán	10	San Lucas Tolimán	12	Diciembre	2023-12-31T00:00:00	2024-11-08T10:00:00	6	Velocidad del viento	4.8
168198	7	Sololá	713	San Lucas Tolimán	10	San Lucas Tolimán	12	Diciembre	2023-12-31T00:00:00	2024-11-08T10:00:00	7	Dirección del viento	4.83
168199	7	Sololá	713	San Lucas Tolimán	10	San Lucas Tolimán	12	Diciembre	2023-12-31T00:00:00	2024-11-08T10:00:00	1	Precipitación	0
168200	7	Sololá	713	San Lucas Tolimán	10	San Lucas Tolimán	12	Diciembre	2023-12-31T00:00:00	2024-11-08T10:00:00	8	Radiación solar	593
168201	7	Sololá	713	San Lucas Tolimán	10	San Lucas Tolimán	12	Diciembre	2023-12-31T00:00:00	2024-11-08T11:00:00	2	Temperatura media	23.4
168202	7	Sololá	713	San Lucas Tolimán	10	San Lucas Tolimán	12	Diciembre	2023-12-31T00:00:00	2024-11-08T11:00:00	4	Temperatura máxima	23.4
168203	7	Sololá	713	San Lucas Tolimán	10	San Lucas Tolimán	12	Diciembre	2023-12-31T00:00:00	2024-11-08T11:00:00	3	Temperatura mínima	20.8
168204	7	Sololá	713	San Lucas Tolimán	10	San Lucas Tolimán	12	Diciembre	2023-12-31T00:00:00	2024-11-08T11:00:00	5	Humedad	43
168205	7	Sololá	713	San Lucas Tolimán	10	San Lucas Tolimán	12	Diciembre	2023-12-31T00:00:00	2024-11-08T11:00:00	6	Velocidad del viento	4.8
168206	7	Sololá	713	San Lucas Tolimán	10	San Lucas Tolimán	12	Diciembre	2023-12-31T00:00:00	2024-11-08T11:00:00	7	Dirección del viento	4.83
168207	7	Sololá	713	San Lucas Tolimán	10	San Lucas Tolimán	12	Diciembre	2023-12-31T00:00:00	2024-11-08T11:00:00	1	Precipitación	0
168208	7	Sololá	713	San Lucas Tolimán	10	San Lucas Tolimán	12	Diciembre	2023-12-31T00:00:00	2024-11-08T11:00:00	8	Radiación solar	748
168209	7	Sololá	713	San Lucas Tolimán	10	San Lucas Tolimán	12	Diciembre	2023-12-31T00:00:00	2024-11-08T12:00:00	2	Temperatura media	23.1
168210	7	Sololá	713	San Lucas Tolimán	10	San Lucas Tolimán	12	Diciembre	2023-12-31T00:00:00	2024-11-08T12:00:00	4	Temperatura máxima	23.9
168211	7	Sololá	713	San Lucas Tolimán	10	San Lucas Tolimán	12	Diciembre	2023-12-31T00:00:00	2024-11-08T12:00:00	3	Temperatura mínima	22.9
168212	7	Sololá	713	San Lucas Tolimán	10	San Lucas Tolimán	12	Diciembre	2023-12-31T00:00:00	2024-11-08T12:00:00	5	Humedad	48
168213	7	Sololá	713	San Lucas Tolimán	10	San Lucas Tolimán	12	Diciembre	2023-12-31T00:00:00	2024-11-08T12:00:00	6	Velocidad del viento	9.7
168214	7	Sololá	713	San Lucas Tolimán	10	San Lucas Tolimán	12	Diciembre	2023-12-31T00:00:00	2024-11-08T12:00:00	7	Dirección del viento	9.66
168215	7	Sololá	713	San Lucas Tolimán	10	San Lucas Tolimán	12	Diciembre	2023-12-31T00:00:00	2024-11-08T12:00:00	1	Precipitación	0
168216	7	Sololá	713	San Lucas Tolimán	10	San Lucas Tolimán	12	Diciembre	2023-12-31T00:00:00	2024-11-08T12:00:00	8	Radiación solar	836
168217	7	Sololá	713	San Lucas Tolimán	10	San Lucas Tolimán	12	Diciembre	2023-12-31T00:00:00	2024-11-08T13:00:00	2	Temperatura media	22.4
168218	7	Sololá	713	San Lucas Tolimán	10	San Lucas Tolimán	12	Diciembre	2023-12-31T00:00:00	2024-11-08T13:00:00	4	Temperatura máxima	23.1
168219	7	Sololá	713	San Lucas Tolimán	10	San Lucas Tolimán	12	Diciembre	2023-12-31T00:00:00	2024-11-08T13:00:00	3	Temperatura mínima	22.1
168220	7	Sololá	713	San Lucas Tolimán	10	San Lucas Tolimán	12	Diciembre	2023-12-31T00:00:00	2024-11-08T13:00:00	5	Humedad	51
168221	7	Sololá	713	San Lucas Tolimán	10	San Lucas Tolimán	12	Diciembre	2023-12-31T00:00:00	2024-11-08T13:00:00	6	Velocidad del viento	12.9
168222	7	Sololá	713	San Lucas Tolimán	10	San Lucas Tolimán	12	Diciembre	2023-12-31T00:00:00	2024-11-08T13:00:00	7	Dirección del viento	12.87
168223	7	Sololá	713	San Lucas Tolimán	10	San Lucas Tolimán	12	Diciembre	2023-12-31T00:00:00	2024-11-08T13:00:00	1	Precipitación	0
168224	7	Sololá	713	San Lucas Tolimán	10	San Lucas Tolimán	12	Diciembre	2023-12-31T00:00:00	2024-11-08T13:00:00	8	Radiación solar	858
168225	7	Sololá	713	San Lucas Tolimán	10	San Lucas Tolimán	12	Diciembre	2023-12-31T00:00:00	2024-11-08T14:00:00	2	Temperatura media	22.6
168226	7	Sololá	713	San Lucas Tolimán	10	San Lucas Tolimán	12	Diciembre	2023-12-31T00:00:00	2024-11-08T14:00:00	4	Temperatura máxima	22.7
168227	7	Sololá	713	San Lucas Tolimán	10	San Lucas Tolimán	12	Diciembre	2023-12-31T00:00:00	2024-11-08T14:00:00	3	Temperatura mínima	22.1
168228	7	Sololá	713	San Lucas Tolimán	10	San Lucas Tolimán	12	Diciembre	2023-12-31T00:00:00	2024-11-08T14:00:00	5	Humedad	54
168229	7	Sololá	713	San Lucas Tolimán	10	San Lucas Tolimán	12	Diciembre	2023-12-31T00:00:00	2024-11-08T14:00:00	6	Velocidad del viento	11.3
168230	7	Sololá	713	San Lucas Tolimán	10	San Lucas Tolimán	12	Diciembre	2023-12-31T00:00:00	2024-11-08T14:00:00	7	Dirección del viento	11.27
168231	7	Sololá	713	San Lucas Tolimán	10	San Lucas Tolimán	12	Diciembre	2023-12-31T00:00:00	2024-11-08T14:00:00	1	Precipitación	0
168232	7	Sololá	713	San Lucas Tolimán	10	San Lucas Tolimán	12	Diciembre	2023-12-31T00:00:00	2024-11-08T14:00:00	8	Radiación solar	781
168233	7	Sololá	713	San Lucas Tolimán	10	San Lucas Tolimán	12	Diciembre	2023-12-31T00:00:00	2024-11-08T15:00:00	2	Temperatura media	21.5
168234	7	Sololá	713	San Lucas Tolimán	10	San Lucas Tolimán	12	Diciembre	2023-12-31T00:00:00	2024-11-08T15:00:00	4	Temperatura máxima	22.6
168235	7	Sololá	713	San Lucas Tolimán	10	San Lucas Tolimán	12	Diciembre	2023-12-31T00:00:00	2024-11-08T15:00:00	3	Temperatura mínima	21.5
168236	7	Sololá	713	San Lucas Tolimán	10	San Lucas Tolimán	12	Diciembre	2023-12-31T00:00:00	2024-11-08T15:00:00	5	Humedad	57
168237	7	Sololá	713	San Lucas Tolimán	10	San Lucas Tolimán	12	Diciembre	2023-12-31T00:00:00	2024-11-08T15:00:00	6	Velocidad del viento	11.3
168238	7	Sololá	713	San Lucas Tolimán	10	San Lucas Tolimán	12	Diciembre	2023-12-31T00:00:00	2024-11-08T15:00:00	7	Dirección del viento	11.27
168239	7	Sololá	713	San Lucas Tolimán	10	San Lucas Tolimán	12	Diciembre	2023-12-31T00:00:00	2024-11-08T15:00:00	1	Precipitación	0
168240	7	Sololá	713	San Lucas Tolimán	10	San Lucas Tolimán	12	Diciembre	2023-12-31T00:00:00	2024-11-08T15:00:00	8	Radiación solar	537
168241	7	Sololá	713	San Lucas Tolimán	10	San Lucas Tolimán	12	Diciembre	2023-12-31T00:00:00	2024-11-08T16:00:00	2	Temperatura media	21.4
168242	7	Sololá	713	San Lucas Tolimán	10	San Lucas Tolimán	12	Diciembre	2023-12-31T00:00:00	2024-11-08T16:00:00	4	Temperatura máxima	21.6
168243	7	Sololá	713	San Lucas Tolimán	10	San Lucas Tolimán	12	Diciembre	2023-12-31T00:00:00	2024-11-08T16:00:00	3	Temperatura mínima	20.9
168244	7	Sololá	713	San Lucas Tolimán	10	San Lucas Tolimán	12	Diciembre	2023-12-31T00:00:00	2024-11-08T16:00:00	5	Humedad	58
168245	7	Sololá	713	San Lucas Tolimán	10	San Lucas Tolimán	12	Diciembre	2023-12-31T00:00:00	2024-11-08T16:00:00	6	Velocidad del viento	11.3
168246	7	Sololá	713	San Lucas Tolimán	10	San Lucas Tolimán	12	Diciembre	2023-12-31T00:00:00	2024-11-08T16:00:00	7	Dirección del viento	11.27
168247	7	Sololá	713	San Lucas Tolimán	10	San Lucas Tolimán	12	Diciembre	2023-12-31T00:00:00	2024-11-08T16:00:00	1	Precipitación	0
168248	7	Sololá	713	San Lucas Tolimán	10	San Lucas Tolimán	12	Diciembre	2023-12-31T00:00:00	2024-11-08T16:00:00	8	Radiación solar	369
168249	7	Sololá	713	San Lucas Tolimán	10	San Lucas Tolimán	12	Diciembre	2023-12-31T00:00:00	2024-11-08T17:00:00	2	Temperatura media	20
168250	7	Sololá	713	San Lucas Tolimán	10	San Lucas Tolimán	12	Diciembre	2023-12-31T00:00:00	2024-11-08T17:00:00	4	Temperatura máxima	21.4
168251	7	Sololá	713	San Lucas Tolimán	10	San Lucas Tolimán	12	Diciembre	2023-12-31T00:00:00	2024-11-08T17:00:00	3	Temperatura mínima	20
168252	7	Sololá	713	San Lucas Tolimán	10	San Lucas Tolimán	12	Diciembre	2023-12-31T00:00:00	2024-11-08T17:00:00	5	Humedad	61
168253	7	Sololá	713	San Lucas Tolimán	10	San Lucas Tolimán	12	Diciembre	2023-12-31T00:00:00	2024-11-08T17:00:00	6	Velocidad del viento	8
168254	7	Sololá	713	San Lucas Tolimán	10	San Lucas Tolimán	12	Diciembre	2023-12-31T00:00:00	2024-11-08T17:00:00	7	Dirección del viento	8.05
168255	7	Sololá	713	San Lucas Tolimán	10	San Lucas Tolimán	12	Diciembre	2023-12-31T00:00:00	2024-11-08T17:00:00	1	Precipitación	0
168256	7	Sololá	713	San Lucas Tolimán	10	San Lucas Tolimán	12	Diciembre	2023-12-31T00:00:00	2024-11-08T17:00:00	8	Radiación solar	131
168257	7	Sololá	713	San Lucas Tolimán	10	San Lucas Tolimán	12	Diciembre	2023-12-31T00:00:00	2024-11-08T18:00:00	2	Temperatura media	18.6
168258	7	Sololá	713	San Lucas Tolimán	10	San Lucas Tolimán	12	Diciembre	2023-12-31T00:00:00	2024-11-08T18:00:00	4	Temperatura máxima	20
168259	7	Sololá	713	San Lucas Tolimán	10	San Lucas Tolimán	12	Diciembre	2023-12-31T00:00:00	2024-11-08T18:00:00	3	Temperatura mínima	18.6
168260	7	Sololá	713	San Lucas Tolimán	10	San Lucas Tolimán	12	Diciembre	2023-12-31T00:00:00	2024-11-08T18:00:00	5	Humedad	60
168261	7	Sololá	713	San Lucas Tolimán	10	San Lucas Tolimán	12	Diciembre	2023-12-31T00:00:00	2024-11-08T18:00:00	6	Velocidad del viento	6.4
168262	7	Sololá	713	San Lucas Tolimán	10	San Lucas Tolimán	12	Diciembre	2023-12-31T00:00:00	2024-11-08T18:00:00	7	Dirección del viento	6.44
168263	7	Sololá	713	San Lucas Tolimán	10	San Lucas Tolimán	12	Diciembre	2023-12-31T00:00:00	2024-11-08T18:00:00	1	Precipitación	0
168264	7	Sololá	713	San Lucas Tolimán	10	San Lucas Tolimán	12	Diciembre	2023-12-31T00:00:00	2024-11-08T18:00:00	8	Radiación solar	23
168265	7	Sololá	713	San Lucas Tolimán	10	San Lucas Tolimán	12	Diciembre	2023-12-31T00:00:00	2024-11-08T19:00:00	2	Temperatura media	18.2
168266	7	Sololá	713	San Lucas Tolimán	10	San Lucas Tolimán	12	Diciembre	2023-12-31T00:00:00	2024-11-08T19:00:00	4	Temperatura máxima	18.6
168267	7	Sololá	713	San Lucas Tolimán	10	San Lucas Tolimán	12	Diciembre	2023-12-31T00:00:00	2024-11-08T19:00:00	3	Temperatura mínima	17.8
168268	7	Sololá	713	San Lucas Tolimán	10	San Lucas Tolimán	12	Diciembre	2023-12-31T00:00:00	2024-11-08T19:00:00	5	Humedad	57
168269	7	Sololá	713	San Lucas Tolimán	10	San Lucas Tolimán	12	Diciembre	2023-12-31T00:00:00	2024-11-08T19:00:00	6	Velocidad del viento	3.2
168270	7	Sololá	713	San Lucas Tolimán	10	San Lucas Tolimán	12	Diciembre	2023-12-31T00:00:00	2024-11-08T19:00:00	7	Dirección del viento	3.22
168271	7	Sololá	713	San Lucas Tolimán	10	San Lucas Tolimán	12	Diciembre	2023-12-31T00:00:00	2024-11-08T19:00:00	1	Precipitación	0
168272	7	Sololá	713	San Lucas Tolimán	10	San Lucas Tolimán	12	Diciembre	2023-12-31T00:00:00	2024-11-08T19:00:00	8	Radiación solar	0
168273	7	Sololá	713	San Lucas Tolimán	10	San Lucas Tolimán	12	Diciembre	2023-12-31T00:00:00	2024-11-08T20:00:00	2	Temperatura media	18.4
168274	7	Sololá	713	San Lucas Tolimán	10	San Lucas Tolimán	12	Diciembre	2023-12-31T00:00:00	2024-11-08T20:00:00	4	Temperatura máxima	18.5
168275	7	Sololá	713	San Lucas Tolimán	10	San Lucas Tolimán	12	Diciembre	2023-12-31T00:00:00	2024-11-08T20:00:00	3	Temperatura mínima	18
168276	7	Sololá	713	San Lucas Tolimán	10	San Lucas Tolimán	12	Diciembre	2023-12-31T00:00:00	2024-11-08T20:00:00	5	Humedad	52
168277	7	Sololá	713	San Lucas Tolimán	10	San Lucas Tolimán	12	Diciembre	2023-12-31T00:00:00	2024-11-08T20:00:00	6	Velocidad del viento	6.4
168278	7	Sololá	713	San Lucas Tolimán	10	San Lucas Tolimán	12	Diciembre	2023-12-31T00:00:00	2024-11-08T20:00:00	7	Dirección del viento	6.44
168279	7	Sololá	713	San Lucas Tolimán	10	San Lucas Tolimán	12	Diciembre	2023-12-31T00:00:00	2024-11-08T20:00:00	1	Precipitación	0
168280	7	Sololá	713	San Lucas Tolimán	10	San Lucas Tolimán	12	Diciembre	2023-12-31T00:00:00	2024-11-08T20:00:00	8	Radiación solar	0
168281	7	Sololá	713	San Lucas Tolimán	10	San Lucas Tolimán	12	Diciembre	2023-12-31T00:00:00	2024-11-08T21:00:00	2	Temperatura media	18.1
168282	7	Sololá	713	San Lucas Tolimán	10	San Lucas Tolimán	12	Diciembre	2023-12-31T00:00:00	2024-11-08T21:00:00	4	Temperatura máxima	18.4
168283	7	Sololá	713	San Lucas Tolimán	10	San Lucas Tolimán	12	Diciembre	2023-12-31T00:00:00	2024-11-08T21:00:00	3	Temperatura mínima	17.7
168284	7	Sololá	713	San Lucas Tolimán	10	San Lucas Tolimán	12	Diciembre	2023-12-31T00:00:00	2024-11-08T21:00:00	5	Humedad	53
168285	7	Sololá	713	San Lucas Tolimán	10	San Lucas Tolimán	12	Diciembre	2023-12-31T00:00:00	2024-11-08T21:00:00	6	Velocidad del viento	4.8
168286	7	Sololá	713	San Lucas Tolimán	10	San Lucas Tolimán	12	Diciembre	2023-12-31T00:00:00	2024-11-08T21:00:00	7	Dirección del viento	4.83
168287	7	Sololá	713	San Lucas Tolimán	10	San Lucas Tolimán	12	Diciembre	2023-12-31T00:00:00	2024-11-08T21:00:00	1	Precipitación	0
168288	7	Sololá	713	San Lucas Tolimán	10	San Lucas Tolimán	12	Diciembre	2023-12-31T00:00:00	2024-11-08T21:00:00	8	Radiación solar	0
168289	7	Sololá	713	San Lucas Tolimán	10	San Lucas Tolimán	12	Diciembre	2023-12-31T00:00:00	2024-11-08T22:00:00	2	Temperatura media	17.2
168290	7	Sololá	713	San Lucas Tolimán	10	San Lucas Tolimán	12	Diciembre	2023-12-31T00:00:00	2024-11-08T22:00:00	4	Temperatura máxima	18.1
168291	7	Sololá	713	San Lucas Tolimán	10	San Lucas Tolimán	12	Diciembre	2023-12-31T00:00:00	2024-11-08T22:00:00	3	Temperatura mínima	17.2
168292	7	Sololá	713	San Lucas Tolimán	10	San Lucas Tolimán	12	Diciembre	2023-12-31T00:00:00	2024-11-08T22:00:00	5	Humedad	55
168293	7	Sololá	713	San Lucas Tolimán	10	San Lucas Tolimán	12	Diciembre	2023-12-31T00:00:00	2024-11-08T22:00:00	6	Velocidad del viento	4.8
168294	7	Sololá	713	San Lucas Tolimán	10	San Lucas Tolimán	12	Diciembre	2023-12-31T00:00:00	2024-11-08T22:00:00	7	Dirección del viento	4.83
168295	7	Sololá	713	San Lucas Tolimán	10	San Lucas Tolimán	12	Diciembre	2023-12-31T00:00:00	2024-11-08T22:00:00	1	Precipitación	0
168296	7	Sololá	713	San Lucas Tolimán	10	San Lucas Tolimán	12	Diciembre	2023-12-31T00:00:00	2024-11-08T22:00:00	8	Radiación solar	0
168297	7	Sololá	713	San Lucas Tolimán	10	San Lucas Tolimán	12	Diciembre	2023-12-31T00:00:00	2024-11-08T23:00:00	2	Temperatura media	16.9
168298	7	Sololá	713	San Lucas Tolimán	10	San Lucas Tolimán	12	Diciembre	2023-12-31T00:00:00	2024-11-08T23:00:00	4	Temperatura máxima	17.3
168299	7	Sololá	713	San Lucas Tolimán	10	San Lucas Tolimán	12	Diciembre	2023-12-31T00:00:00	2024-11-08T23:00:00	3	Temperatura mínima	16.8
168300	7	Sololá	713	San Lucas Tolimán	10	San Lucas Tolimán	12	Diciembre	2023-12-31T00:00:00	2024-11-08T23:00:00	5	Humedad	55
168301	7	Sololá	713	San Lucas Tolimán	10	San Lucas Tolimán	12	Diciembre	2023-12-31T00:00:00	2024-11-08T23:00:00	6	Velocidad del viento	4.8
168302	7	Sololá	713	San Lucas Tolimán	10	San Lucas Tolimán	12	Diciembre	2023-12-31T00:00:00	2024-11-08T23:00:00	7	Dirección del viento	4.83
168303	7	Sololá	713	San Lucas Tolimán	10	San Lucas Tolimán	12	Diciembre	2023-12-31T00:00:00	2024-11-08T23:00:00	1	Precipitación	0
168304	7	Sololá	713	San Lucas Tolimán	10	San Lucas Tolimán	12	Diciembre	2023-12-31T00:00:00	2024-11-08T23:00:00	8	Radiación solar	0
168305	7	Sololá	716	San Marcos la Laguna 	11	San Marcos la laguna 	1	Enero	2023-01-01T00:00:00	2024-11-08T00:00:00	2	Temperatura media	16.2
168306	7	Sololá	716	San Marcos la Laguna 	11	San Marcos la laguna 	1	Enero	2023-01-01T00:00:00	2024-11-08T00:00:00	4	Temperatura máxima	16.4
168307	7	Sololá	716	San Marcos la Laguna 	11	San Marcos la laguna 	1	Enero	2023-01-01T00:00:00	2024-11-08T00:00:00	3	Temperatura mínima	16.1
168308	7	Sololá	716	San Marcos la Laguna 	11	San Marcos la laguna 	1	Enero	2023-01-01T00:00:00	2024-11-08T00:00:00	5	Humedad	85
168309	7	Sololá	716	San Marcos la Laguna 	11	San Marcos la laguna 	1	Enero	2023-01-01T00:00:00	2024-11-08T00:00:00	6	Velocidad del viento	6.4
168310	7	Sololá	716	San Marcos la Laguna 	11	San Marcos la laguna 	1	Enero	2023-01-01T00:00:00	2024-11-08T00:00:00	7	Dirección del viento	6.44
168311	7	Sololá	716	San Marcos la Laguna 	11	San Marcos la laguna 	1	Enero	2023-01-01T00:00:00	2024-11-08T00:00:00	1	Precipitación	0
168312	7	Sololá	716	San Marcos la Laguna 	11	San Marcos la laguna 	1	Enero	2023-01-01T00:00:00	2024-11-08T00:00:00	8	Radiación solar	0
168313	7	Sololá	716	San Marcos la Laguna 	11	San Marcos la laguna 	1	Enero	2023-01-01T00:00:00	2024-11-08T01:00:00	2	Temperatura media	15.6
168314	7	Sololá	716	San Marcos la Laguna 	11	San Marcos la laguna 	1	Enero	2023-01-01T00:00:00	2024-11-08T01:00:00	4	Temperatura máxima	16.7
168315	7	Sololá	716	San Marcos la Laguna 	11	San Marcos la laguna 	1	Enero	2023-01-01T00:00:00	2024-11-08T01:00:00	3	Temperatura mínima	15.5
168316	7	Sololá	716	San Marcos la Laguna 	11	San Marcos la laguna 	1	Enero	2023-01-01T00:00:00	2024-11-08T01:00:00	5	Humedad	84
168317	7	Sololá	716	San Marcos la Laguna 	11	San Marcos la laguna 	1	Enero	2023-01-01T00:00:00	2024-11-08T01:00:00	6	Velocidad del viento	6.4
168318	7	Sololá	716	San Marcos la Laguna 	11	San Marcos la laguna 	1	Enero	2023-01-01T00:00:00	2024-11-08T01:00:00	7	Dirección del viento	6.44
168319	7	Sololá	716	San Marcos la Laguna 	11	San Marcos la laguna 	1	Enero	2023-01-01T00:00:00	2024-11-08T01:00:00	1	Precipitación	0
168320	7	Sololá	716	San Marcos la Laguna 	11	San Marcos la laguna 	1	Enero	2023-01-01T00:00:00	2024-11-08T01:00:00	8	Radiación solar	0
168321	7	Sololá	716	San Marcos la Laguna 	11	San Marcos la laguna 	1	Enero	2023-01-01T00:00:00	2024-11-08T02:00:00	2	Temperatura media	15.5
168322	7	Sololá	716	San Marcos la Laguna 	11	San Marcos la laguna 	1	Enero	2023-01-01T00:00:00	2024-11-08T02:00:00	4	Temperatura máxima	15.6
168323	7	Sololá	716	San Marcos la Laguna 	11	San Marcos la laguna 	1	Enero	2023-01-01T00:00:00	2024-11-08T02:00:00	3	Temperatura mínima	15.2
168324	7	Sololá	716	San Marcos la Laguna 	11	San Marcos la laguna 	1	Enero	2023-01-01T00:00:00	2024-11-08T02:00:00	5	Humedad	84
168325	7	Sololá	716	San Marcos la Laguna 	11	San Marcos la laguna 	1	Enero	2023-01-01T00:00:00	2024-11-08T02:00:00	6	Velocidad del viento	6.4
168326	7	Sololá	716	San Marcos la Laguna 	11	San Marcos la laguna 	1	Enero	2023-01-01T00:00:00	2024-11-08T02:00:00	7	Dirección del viento	6.44
168327	7	Sololá	716	San Marcos la Laguna 	11	San Marcos la laguna 	1	Enero	2023-01-01T00:00:00	2024-11-08T02:00:00	1	Precipitación	0
168328	7	Sololá	716	San Marcos la Laguna 	11	San Marcos la laguna 	1	Enero	2023-01-01T00:00:00	2024-11-08T02:00:00	8	Radiación solar	0
168329	7	Sololá	716	San Marcos la Laguna 	11	San Marcos la laguna 	1	Enero	2023-01-01T00:00:00	2024-11-08T03:00:00	2	Temperatura media	15.1
168330	7	Sololá	716	San Marcos la Laguna 	11	San Marcos la laguna 	1	Enero	2023-01-01T00:00:00	2024-11-08T03:00:00	4	Temperatura máxima	15.5
168331	7	Sololá	716	San Marcos la Laguna 	11	San Marcos la laguna 	1	Enero	2023-01-01T00:00:00	2024-11-08T03:00:00	3	Temperatura mínima	15
168332	7	Sololá	716	San Marcos la Laguna 	11	San Marcos la laguna 	1	Enero	2023-01-01T00:00:00	2024-11-08T03:00:00	5	Humedad	86
168333	7	Sololá	716	San Marcos la Laguna 	11	San Marcos la laguna 	1	Enero	2023-01-01T00:00:00	2024-11-08T03:00:00	6	Velocidad del viento	6.4
168334	7	Sololá	716	San Marcos la Laguna 	11	San Marcos la laguna 	1	Enero	2023-01-01T00:00:00	2024-11-08T03:00:00	7	Dirección del viento	6.44
168335	7	Sololá	716	San Marcos la Laguna 	11	San Marcos la laguna 	1	Enero	2023-01-01T00:00:00	2024-11-08T03:00:00	1	Precipitación	0
168336	7	Sololá	716	San Marcos la Laguna 	11	San Marcos la laguna 	1	Enero	2023-01-01T00:00:00	2024-11-08T03:00:00	8	Radiación solar	0
168337	7	Sololá	716	San Marcos la Laguna 	11	San Marcos la laguna 	1	Enero	2023-01-01T00:00:00	2024-11-08T04:00:00	2	Temperatura media	15.1
168338	7	Sololá	716	San Marcos la Laguna 	11	San Marcos la laguna 	1	Enero	2023-01-01T00:00:00	2024-11-08T04:00:00	4	Temperatura máxima	15.6
168339	7	Sololá	716	San Marcos la Laguna 	11	San Marcos la laguna 	1	Enero	2023-01-01T00:00:00	2024-11-08T04:00:00	3	Temperatura mínima	14.9
168340	7	Sololá	716	San Marcos la Laguna 	11	San Marcos la laguna 	1	Enero	2023-01-01T00:00:00	2024-11-08T04:00:00	5	Humedad	85
168341	7	Sololá	716	San Marcos la Laguna 	11	San Marcos la laguna 	1	Enero	2023-01-01T00:00:00	2024-11-08T04:00:00	6	Velocidad del viento	6.4
168342	7	Sololá	716	San Marcos la Laguna 	11	San Marcos la laguna 	1	Enero	2023-01-01T00:00:00	2024-11-08T04:00:00	7	Dirección del viento	6.44
168343	7	Sololá	716	San Marcos la Laguna 	11	San Marcos la laguna 	1	Enero	2023-01-01T00:00:00	2024-11-08T04:00:00	1	Precipitación	0
168344	7	Sololá	716	San Marcos la Laguna 	11	San Marcos la laguna 	1	Enero	2023-01-01T00:00:00	2024-11-08T04:00:00	8	Radiación solar	0
168345	7	Sololá	716	San Marcos la Laguna 	11	San Marcos la laguna 	1	Enero	2023-01-01T00:00:00	2024-11-08T05:00:00	2	Temperatura media	14.8
168346	7	Sololá	716	San Marcos la Laguna 	11	San Marcos la laguna 	1	Enero	2023-01-01T00:00:00	2024-11-08T05:00:00	4	Temperatura máxima	15.2
168347	7	Sololá	716	San Marcos la Laguna 	11	San Marcos la laguna 	1	Enero	2023-01-01T00:00:00	2024-11-08T05:00:00	3	Temperatura mínima	14.8
168348	7	Sololá	716	San Marcos la Laguna 	11	San Marcos la laguna 	1	Enero	2023-01-01T00:00:00	2024-11-08T05:00:00	5	Humedad	85
168349	7	Sololá	716	San Marcos la Laguna 	11	San Marcos la laguna 	1	Enero	2023-01-01T00:00:00	2024-11-08T05:00:00	6	Velocidad del viento	4.8
168350	7	Sololá	716	San Marcos la Laguna 	11	San Marcos la laguna 	1	Enero	2023-01-01T00:00:00	2024-11-08T05:00:00	7	Dirección del viento	4.83
168351	7	Sololá	716	San Marcos la Laguna 	11	San Marcos la laguna 	1	Enero	2023-01-01T00:00:00	2024-11-08T05:00:00	1	Precipitación	0
168352	7	Sololá	716	San Marcos la Laguna 	11	San Marcos la laguna 	1	Enero	2023-01-01T00:00:00	2024-11-08T05:00:00	8	Radiación solar	0
168353	7	Sololá	716	San Marcos la Laguna 	11	San Marcos la laguna 	1	Enero	2023-01-01T00:00:00	2024-11-08T06:00:00	2	Temperatura media	14.2
168354	7	Sololá	716	San Marcos la Laguna 	11	San Marcos la laguna 	1	Enero	2023-01-01T00:00:00	2024-11-08T06:00:00	4	Temperatura máxima	14.9
168355	7	Sololá	716	San Marcos la Laguna 	11	San Marcos la laguna 	1	Enero	2023-01-01T00:00:00	2024-11-08T06:00:00	3	Temperatura mínima	14.2
168356	7	Sololá	716	San Marcos la Laguna 	11	San Marcos la laguna 	1	Enero	2023-01-01T00:00:00	2024-11-08T06:00:00	5	Humedad	86
168357	7	Sololá	716	San Marcos la Laguna 	11	San Marcos la laguna 	1	Enero	2023-01-01T00:00:00	2024-11-08T06:00:00	6	Velocidad del viento	6.4
168358	7	Sololá	716	San Marcos la Laguna 	11	San Marcos la laguna 	1	Enero	2023-01-01T00:00:00	2024-11-08T06:00:00	7	Dirección del viento	6.44
168359	7	Sololá	716	San Marcos la Laguna 	11	San Marcos la laguna 	1	Enero	2023-01-01T00:00:00	2024-11-08T06:00:00	1	Precipitación	0
168360	7	Sololá	716	San Marcos la Laguna 	11	San Marcos la laguna 	1	Enero	2023-01-01T00:00:00	2024-11-08T06:00:00	8	Radiación solar	0
168361	7	Sololá	716	San Marcos la Laguna 	11	San Marcos la laguna 	1	Enero	2023-01-01T00:00:00	2024-11-08T07:00:00	2	Temperatura media	14.3
168362	7	Sololá	716	San Marcos la Laguna 	11	San Marcos la laguna 	1	Enero	2023-01-01T00:00:00	2024-11-08T07:00:00	4	Temperatura máxima	14.6
168363	7	Sololá	716	San Marcos la Laguna 	11	San Marcos la laguna 	1	Enero	2023-01-01T00:00:00	2024-11-08T07:00:00	3	Temperatura mínima	14.1
168364	7	Sololá	716	San Marcos la Laguna 	11	San Marcos la laguna 	1	Enero	2023-01-01T00:00:00	2024-11-08T07:00:00	5	Humedad	87
168365	7	Sololá	716	San Marcos la Laguna 	11	San Marcos la laguna 	1	Enero	2023-01-01T00:00:00	2024-11-08T07:00:00	6	Velocidad del viento	6.4
168366	7	Sololá	716	San Marcos la Laguna 	11	San Marcos la laguna 	1	Enero	2023-01-01T00:00:00	2024-11-08T07:00:00	7	Dirección del viento	6.44
168367	7	Sololá	716	San Marcos la Laguna 	11	San Marcos la laguna 	1	Enero	2023-01-01T00:00:00	2024-11-08T07:00:00	1	Precipitación	0
168368	7	Sololá	716	San Marcos la Laguna 	11	San Marcos la laguna 	1	Enero	2023-01-01T00:00:00	2024-11-08T07:00:00	8	Radiación solar	6
168369	7	Sololá	716	San Marcos la Laguna 	11	San Marcos la laguna 	1	Enero	2023-01-01T00:00:00	2024-11-08T08:00:00	2	Temperatura media	17.4
168370	7	Sololá	716	San Marcos la Laguna 	11	San Marcos la laguna 	1	Enero	2023-01-01T00:00:00	2024-11-08T08:00:00	4	Temperatura máxima	17.4
168371	7	Sololá	716	San Marcos la Laguna 	11	San Marcos la laguna 	1	Enero	2023-01-01T00:00:00	2024-11-08T08:00:00	3	Temperatura mínima	14.3
168372	7	Sololá	716	San Marcos la Laguna 	11	San Marcos la laguna 	1	Enero	2023-01-01T00:00:00	2024-11-08T08:00:00	5	Humedad	79
168373	7	Sololá	716	San Marcos la Laguna 	11	San Marcos la laguna 	1	Enero	2023-01-01T00:00:00	2024-11-08T08:00:00	6	Velocidad del viento	3.2
168374	7	Sololá	716	San Marcos la Laguna 	11	San Marcos la laguna 	1	Enero	2023-01-01T00:00:00	2024-11-08T08:00:00	7	Dirección del viento	3.22
168375	7	Sololá	716	San Marcos la Laguna 	11	San Marcos la laguna 	1	Enero	2023-01-01T00:00:00	2024-11-08T08:00:00	1	Precipitación	0
168376	7	Sololá	716	San Marcos la Laguna 	11	San Marcos la laguna 	1	Enero	2023-01-01T00:00:00	2024-11-08T08:00:00	8	Radiación solar	106
168377	7	Sololá	716	San Marcos la Laguna 	11	San Marcos la laguna 	1	Enero	2023-01-01T00:00:00	2024-11-08T09:00:00	2	Temperatura media	19.9
168378	7	Sololá	716	San Marcos la Laguna 	11	San Marcos la laguna 	1	Enero	2023-01-01T00:00:00	2024-11-08T09:00:00	4	Temperatura máxima	19.9
168379	7	Sololá	716	San Marcos la Laguna 	11	San Marcos la laguna 	1	Enero	2023-01-01T00:00:00	2024-11-08T09:00:00	3	Temperatura mínima	17.4
168380	7	Sololá	716	San Marcos la Laguna 	11	San Marcos la laguna 	1	Enero	2023-01-01T00:00:00	2024-11-08T09:00:00	5	Humedad	74
168381	7	Sololá	716	San Marcos la Laguna 	11	San Marcos la laguna 	1	Enero	2023-01-01T00:00:00	2024-11-08T09:00:00	6	Velocidad del viento	1.6
168382	7	Sololá	716	San Marcos la Laguna 	11	San Marcos la laguna 	1	Enero	2023-01-01T00:00:00	2024-11-08T09:00:00	7	Dirección del viento	1.61
168383	7	Sololá	716	San Marcos la Laguna 	11	San Marcos la laguna 	1	Enero	2023-01-01T00:00:00	2024-11-08T09:00:00	1	Precipitación	0
168384	7	Sololá	716	San Marcos la Laguna 	11	San Marcos la laguna 	1	Enero	2023-01-01T00:00:00	2024-11-08T09:00:00	8	Radiación solar	308
168385	7	Sololá	716	San Marcos la Laguna 	11	San Marcos la laguna 	1	Enero	2023-01-01T00:00:00	2024-11-08T10:00:00	2	Temperatura media	20.5
168386	7	Sololá	716	San Marcos la Laguna 	11	San Marcos la laguna 	1	Enero	2023-01-01T00:00:00	2024-11-08T10:00:00	4	Temperatura máxima	20.5
168387	7	Sololá	716	San Marcos la Laguna 	11	San Marcos la laguna 	1	Enero	2023-01-01T00:00:00	2024-11-08T10:00:00	3	Temperatura mínima	19.9
168388	7	Sololá	716	San Marcos la Laguna 	11	San Marcos la laguna 	1	Enero	2023-01-01T00:00:00	2024-11-08T10:00:00	5	Humedad	72
168389	7	Sololá	716	San Marcos la Laguna 	11	San Marcos la laguna 	1	Enero	2023-01-01T00:00:00	2024-11-08T10:00:00	6	Velocidad del viento	4.8
168390	7	Sololá	716	San Marcos la Laguna 	11	San Marcos la laguna 	1	Enero	2023-01-01T00:00:00	2024-11-08T10:00:00	7	Dirección del viento	4.83
168391	7	Sololá	716	San Marcos la Laguna 	11	San Marcos la laguna 	1	Enero	2023-01-01T00:00:00	2024-11-08T10:00:00	1	Precipitación	0
168392	7	Sololá	716	San Marcos la Laguna 	11	San Marcos la laguna 	1	Enero	2023-01-01T00:00:00	2024-11-08T10:00:00	8	Radiación solar	501
168393	7	Sololá	716	San Marcos la Laguna 	11	San Marcos la laguna 	1	Enero	2023-01-01T00:00:00	2024-11-08T11:00:00	2	Temperatura media	21.7
168394	7	Sololá	716	San Marcos la Laguna 	11	San Marcos la laguna 	1	Enero	2023-01-01T00:00:00	2024-11-08T11:00:00	4	Temperatura máxima	21.7
168395	7	Sololá	716	San Marcos la Laguna 	11	San Marcos la laguna 	1	Enero	2023-01-01T00:00:00	2024-11-08T11:00:00	3	Temperatura mínima	20.4
168396	7	Sololá	716	San Marcos la Laguna 	11	San Marcos la laguna 	1	Enero	2023-01-01T00:00:00	2024-11-08T11:00:00	5	Humedad	66
168397	7	Sololá	716	San Marcos la Laguna 	11	San Marcos la laguna 	1	Enero	2023-01-01T00:00:00	2024-11-08T11:00:00	6	Velocidad del viento	4.8
168398	7	Sololá	716	San Marcos la Laguna 	11	San Marcos la laguna 	1	Enero	2023-01-01T00:00:00	2024-11-08T11:00:00	7	Dirección del viento	4.83
168399	7	Sololá	716	San Marcos la Laguna 	11	San Marcos la laguna 	1	Enero	2023-01-01T00:00:00	2024-11-08T11:00:00	1	Precipitación	0
168400	7	Sololá	716	San Marcos la Laguna 	11	San Marcos la laguna 	1	Enero	2023-01-01T00:00:00	2024-11-08T11:00:00	8	Radiación solar	531
168401	7	Sololá	716	San Marcos la Laguna 	11	San Marcos la laguna 	1	Enero	2023-01-01T00:00:00	2024-11-08T12:00:00	2	Temperatura media	21.4
168402	7	Sololá	716	San Marcos la Laguna 	11	San Marcos la laguna 	1	Enero	2023-01-01T00:00:00	2024-11-08T12:00:00	4	Temperatura máxima	22
168403	7	Sololá	716	San Marcos la Laguna 	11	San Marcos la laguna 	1	Enero	2023-01-01T00:00:00	2024-11-08T12:00:00	3	Temperatura mínima	21
168404	7	Sololá	716	San Marcos la Laguna 	11	San Marcos la laguna 	1	Enero	2023-01-01T00:00:00	2024-11-08T12:00:00	5	Humedad	72
168405	7	Sololá	716	San Marcos la Laguna 	11	San Marcos la laguna 	1	Enero	2023-01-01T00:00:00	2024-11-08T12:00:00	6	Velocidad del viento	9.7
168406	7	Sololá	716	San Marcos la Laguna 	11	San Marcos la laguna 	1	Enero	2023-01-01T00:00:00	2024-11-08T12:00:00	7	Dirección del viento	9.66
168407	7	Sololá	716	San Marcos la Laguna 	11	San Marcos la laguna 	1	Enero	2023-01-01T00:00:00	2024-11-08T12:00:00	1	Precipitación	0
168408	7	Sololá	716	San Marcos la Laguna 	11	San Marcos la laguna 	1	Enero	2023-01-01T00:00:00	2024-11-08T12:00:00	8	Radiación solar	692
168409	7	Sololá	716	San Marcos la Laguna 	11	San Marcos la laguna 	1	Enero	2023-01-01T00:00:00	2024-11-08T13:00:00	2	Temperatura media	21.9
168410	7	Sololá	716	San Marcos la Laguna 	11	San Marcos la laguna 	1	Enero	2023-01-01T00:00:00	2024-11-08T13:00:00	4	Temperatura máxima	22.2
168411	7	Sololá	716	San Marcos la Laguna 	11	San Marcos la laguna 	1	Enero	2023-01-01T00:00:00	2024-11-08T13:00:00	3	Temperatura mínima	21.4
168412	7	Sololá	716	San Marcos la Laguna 	11	San Marcos la laguna 	1	Enero	2023-01-01T00:00:00	2024-11-08T13:00:00	5	Humedad	77
168413	7	Sololá	716	San Marcos la Laguna 	11	San Marcos la laguna 	1	Enero	2023-01-01T00:00:00	2024-11-08T13:00:00	6	Velocidad del viento	11.3
168414	7	Sololá	716	San Marcos la Laguna 	11	San Marcos la laguna 	1	Enero	2023-01-01T00:00:00	2024-11-08T13:00:00	7	Dirección del viento	11.27
168415	7	Sololá	716	San Marcos la Laguna 	11	San Marcos la laguna 	1	Enero	2023-01-01T00:00:00	2024-11-08T13:00:00	1	Precipitación	0
168416	7	Sololá	716	San Marcos la Laguna 	11	San Marcos la laguna 	1	Enero	2023-01-01T00:00:00	2024-11-08T13:00:00	8	Radiación solar	707
168417	7	Sololá	716	San Marcos la Laguna 	11	San Marcos la laguna 	1	Enero	2023-01-01T00:00:00	2024-11-08T14:00:00	2	Temperatura media	21.7
168418	7	Sololá	716	San Marcos la Laguna 	11	San Marcos la laguna 	1	Enero	2023-01-01T00:00:00	2024-11-08T14:00:00	4	Temperatura máxima	21.9
168419	7	Sololá	716	San Marcos la Laguna 	11	San Marcos la laguna 	1	Enero	2023-01-01T00:00:00	2024-11-08T14:00:00	3	Temperatura mínima	21.4
168420	7	Sololá	716	San Marcos la Laguna 	11	San Marcos la laguna 	1	Enero	2023-01-01T00:00:00	2024-11-08T14:00:00	5	Humedad	76
168421	7	Sololá	716	San Marcos la Laguna 	11	San Marcos la laguna 	1	Enero	2023-01-01T00:00:00	2024-11-08T14:00:00	6	Velocidad del viento	12.9
168422	7	Sololá	716	San Marcos la Laguna 	11	San Marcos la laguna 	1	Enero	2023-01-01T00:00:00	2024-11-08T14:00:00	7	Dirección del viento	12.87
168423	7	Sololá	716	San Marcos la Laguna 	11	San Marcos la laguna 	1	Enero	2023-01-01T00:00:00	2024-11-08T14:00:00	1	Precipitación	0
168424	7	Sololá	716	San Marcos la Laguna 	11	San Marcos la laguna 	1	Enero	2023-01-01T00:00:00	2024-11-08T14:00:00	8	Radiación solar	667
168425	7	Sololá	716	San Marcos la Laguna 	11	San Marcos la laguna 	1	Enero	2023-01-01T00:00:00	2024-11-08T15:00:00	2	Temperatura media	21.7
168426	7	Sololá	716	San Marcos la Laguna 	11	San Marcos la laguna 	1	Enero	2023-01-01T00:00:00	2024-11-08T15:00:00	4	Temperatura máxima	22.1
168427	7	Sololá	716	San Marcos la Laguna 	11	San Marcos la laguna 	1	Enero	2023-01-01T00:00:00	2024-11-08T15:00:00	3	Temperatura mínima	21.6
168428	7	Sololá	716	San Marcos la Laguna 	11	San Marcos la laguna 	1	Enero	2023-01-01T00:00:00	2024-11-08T15:00:00	5	Humedad	76
168429	7	Sololá	716	San Marcos la Laguna 	11	San Marcos la laguna 	1	Enero	2023-01-01T00:00:00	2024-11-08T15:00:00	6	Velocidad del viento	12.9
168430	7	Sololá	716	San Marcos la Laguna 	11	San Marcos la laguna 	1	Enero	2023-01-01T00:00:00	2024-11-08T15:00:00	7	Dirección del viento	12.87
168431	7	Sololá	716	San Marcos la Laguna 	11	San Marcos la laguna 	1	Enero	2023-01-01T00:00:00	2024-11-08T15:00:00	1	Precipitación	0
168432	7	Sololá	716	San Marcos la Laguna 	11	San Marcos la laguna 	1	Enero	2023-01-01T00:00:00	2024-11-08T15:00:00	8	Radiación solar	598
168433	7	Sololá	716	San Marcos la Laguna 	11	San Marcos la laguna 	1	Enero	2023-01-01T00:00:00	2024-11-08T16:00:00	2	Temperatura media	21.3
168434	7	Sololá	716	San Marcos la Laguna 	11	San Marcos la laguna 	1	Enero	2023-01-01T00:00:00	2024-11-08T16:00:00	4	Temperatura máxima	21.8
168435	7	Sololá	716	San Marcos la Laguna 	11	San Marcos la laguna 	1	Enero	2023-01-01T00:00:00	2024-11-08T16:00:00	3	Temperatura mínima	21.1
168436	7	Sololá	716	San Marcos la Laguna 	11	San Marcos la laguna 	1	Enero	2023-01-01T00:00:00	2024-11-08T16:00:00	5	Humedad	79
168437	7	Sololá	716	San Marcos la Laguna 	11	San Marcos la laguna 	1	Enero	2023-01-01T00:00:00	2024-11-08T16:00:00	6	Velocidad del viento	9.7
168438	7	Sololá	716	San Marcos la Laguna 	11	San Marcos la laguna 	1	Enero	2023-01-01T00:00:00	2024-11-08T16:00:00	7	Dirección del viento	9.66
168439	7	Sololá	716	San Marcos la Laguna 	11	San Marcos la laguna 	1	Enero	2023-01-01T00:00:00	2024-11-08T16:00:00	1	Precipitación	0
168440	7	Sololá	716	San Marcos la Laguna 	11	San Marcos la laguna 	1	Enero	2023-01-01T00:00:00	2024-11-08T16:00:00	8	Radiación solar	355
168441	7	Sololá	716	San Marcos la Laguna 	11	San Marcos la laguna 	1	Enero	2023-01-01T00:00:00	2024-11-08T17:00:00	2	Temperatura media	20.7
168442	7	Sololá	716	San Marcos la Laguna 	11	San Marcos la laguna 	1	Enero	2023-01-01T00:00:00	2024-11-08T17:00:00	4	Temperatura máxima	21.7
168443	7	Sololá	716	San Marcos la Laguna 	11	San Marcos la laguna 	1	Enero	2023-01-01T00:00:00	2024-11-08T17:00:00	3	Temperatura mínima	20.7
168444	7	Sololá	716	San Marcos la Laguna 	11	San Marcos la laguna 	1	Enero	2023-01-01T00:00:00	2024-11-08T17:00:00	5	Humedad	82
168445	7	Sololá	716	San Marcos la Laguna 	11	San Marcos la laguna 	1	Enero	2023-01-01T00:00:00	2024-11-08T17:00:00	6	Velocidad del viento	4.8
168446	7	Sololá	716	San Marcos la Laguna 	11	San Marcos la laguna 	1	Enero	2023-01-01T00:00:00	2024-11-08T17:00:00	7	Dirección del viento	4.83
168447	7	Sololá	716	San Marcos la Laguna 	11	San Marcos la laguna 	1	Enero	2023-01-01T00:00:00	2024-11-08T17:00:00	1	Precipitación	0
168448	7	Sololá	716	San Marcos la Laguna 	11	San Marcos la laguna 	1	Enero	2023-01-01T00:00:00	2024-11-08T17:00:00	8	Radiación solar	107
168449	7	Sololá	716	San Marcos la Laguna 	11	San Marcos la laguna 	1	Enero	2023-01-01T00:00:00	2024-11-08T18:00:00	2	Temperatura media	20.1
168450	7	Sololá	716	San Marcos la Laguna 	11	San Marcos la laguna 	1	Enero	2023-01-01T00:00:00	2024-11-08T18:00:00	4	Temperatura máxima	20.7
168451	7	Sololá	716	San Marcos la Laguna 	11	San Marcos la laguna 	1	Enero	2023-01-01T00:00:00	2024-11-08T18:00:00	3	Temperatura mínima	20.1
168452	7	Sololá	716	San Marcos la Laguna 	11	San Marcos la laguna 	1	Enero	2023-01-01T00:00:00	2024-11-08T18:00:00	5	Humedad	84
168453	7	Sololá	716	San Marcos la Laguna 	11	San Marcos la laguna 	1	Enero	2023-01-01T00:00:00	2024-11-08T18:00:00	6	Velocidad del viento	4.8
168454	7	Sololá	716	San Marcos la Laguna 	11	San Marcos la laguna 	1	Enero	2023-01-01T00:00:00	2024-11-08T18:00:00	7	Dirección del viento	4.83
168455	7	Sololá	716	San Marcos la Laguna 	11	San Marcos la laguna 	1	Enero	2023-01-01T00:00:00	2024-11-08T18:00:00	1	Precipitación	0
168456	7	Sololá	716	San Marcos la Laguna 	11	San Marcos la laguna 	1	Enero	2023-01-01T00:00:00	2024-11-08T18:00:00	8	Radiación solar	21
168457	7	Sololá	716	San Marcos la Laguna 	11	San Marcos la laguna 	1	Enero	2023-01-01T00:00:00	2024-11-08T19:00:00	2	Temperatura media	19.3
168458	7	Sololá	716	San Marcos la Laguna 	11	San Marcos la laguna 	1	Enero	2023-01-01T00:00:00	2024-11-08T19:00:00	4	Temperatura máxima	20.1
168459	7	Sololá	716	San Marcos la Laguna 	11	San Marcos la laguna 	1	Enero	2023-01-01T00:00:00	2024-11-08T19:00:00	3	Temperatura mínima	19.3
168460	7	Sololá	716	San Marcos la Laguna 	11	San Marcos la laguna 	1	Enero	2023-01-01T00:00:00	2024-11-08T19:00:00	5	Humedad	86
168461	7	Sololá	716	San Marcos la Laguna 	11	San Marcos la laguna 	1	Enero	2023-01-01T00:00:00	2024-11-08T19:00:00	6	Velocidad del viento	3.2
168462	7	Sololá	716	San Marcos la Laguna 	11	San Marcos la laguna 	1	Enero	2023-01-01T00:00:00	2024-11-08T19:00:00	7	Dirección del viento	3.22
168463	7	Sololá	716	San Marcos la Laguna 	11	San Marcos la laguna 	1	Enero	2023-01-01T00:00:00	2024-11-08T19:00:00	1	Precipitación	0
168464	7	Sololá	716	San Marcos la Laguna 	11	San Marcos la laguna 	1	Enero	2023-01-01T00:00:00	2024-11-08T19:00:00	8	Radiación solar	0
168465	7	Sololá	716	San Marcos la Laguna 	11	San Marcos la laguna 	1	Enero	2023-01-01T00:00:00	2024-11-08T20:00:00	2	Temperatura media	18.1
168466	7	Sololá	716	San Marcos la Laguna 	11	San Marcos la laguna 	1	Enero	2023-01-01T00:00:00	2024-11-08T20:00:00	4	Temperatura máxima	19.3
168467	7	Sololá	716	San Marcos la Laguna 	11	San Marcos la laguna 	1	Enero	2023-01-01T00:00:00	2024-11-08T20:00:00	3	Temperatura mínima	18.1
168468	7	Sololá	716	San Marcos la Laguna 	11	San Marcos la laguna 	1	Enero	2023-01-01T00:00:00	2024-11-08T20:00:00	5	Humedad	87
168469	7	Sololá	716	San Marcos la Laguna 	11	San Marcos la laguna 	1	Enero	2023-01-01T00:00:00	2024-11-08T20:00:00	6	Velocidad del viento	1.6
168470	7	Sololá	716	San Marcos la Laguna 	11	San Marcos la laguna 	1	Enero	2023-01-01T00:00:00	2024-11-08T20:00:00	7	Dirección del viento	1.61
168471	7	Sololá	716	San Marcos la Laguna 	11	San Marcos la laguna 	1	Enero	2023-01-01T00:00:00	2024-11-08T20:00:00	1	Precipitación	0
168472	7	Sololá	716	San Marcos la Laguna 	11	San Marcos la laguna 	1	Enero	2023-01-01T00:00:00	2024-11-08T20:00:00	8	Radiación solar	0
168473	7	Sololá	716	San Marcos la Laguna 	11	San Marcos la laguna 	1	Enero	2023-01-01T00:00:00	2024-11-08T21:00:00	2	Temperatura media	17.8
168474	7	Sololá	716	San Marcos la Laguna 	11	San Marcos la laguna 	1	Enero	2023-01-01T00:00:00	2024-11-08T21:00:00	4	Temperatura máxima	18.1
168475	7	Sololá	716	San Marcos la Laguna 	11	San Marcos la laguna 	1	Enero	2023-01-01T00:00:00	2024-11-08T21:00:00	3	Temperatura mínima	17.2
168476	7	Sololá	716	San Marcos la Laguna 	11	San Marcos la laguna 	1	Enero	2023-01-01T00:00:00	2024-11-08T21:00:00	5	Humedad	86
168477	7	Sololá	716	San Marcos la Laguna 	11	San Marcos la laguna 	1	Enero	2023-01-01T00:00:00	2024-11-08T21:00:00	6	Velocidad del viento	6.4
168478	7	Sololá	716	San Marcos la Laguna 	11	San Marcos la laguna 	1	Enero	2023-01-01T00:00:00	2024-11-08T21:00:00	7	Dirección del viento	6.44
168479	7	Sololá	716	San Marcos la Laguna 	11	San Marcos la laguna 	1	Enero	2023-01-01T00:00:00	2024-11-08T21:00:00	1	Precipitación	0
168480	7	Sololá	716	San Marcos la Laguna 	11	San Marcos la laguna 	1	Enero	2023-01-01T00:00:00	2024-11-08T21:00:00	8	Radiación solar	0
168481	7	Sololá	716	San Marcos la Laguna 	11	San Marcos la laguna 	1	Enero	2023-01-01T00:00:00	2024-11-08T22:00:00	2	Temperatura media	17.6
168482	7	Sololá	716	San Marcos la Laguna 	11	San Marcos la laguna 	1	Enero	2023-01-01T00:00:00	2024-11-08T22:00:00	4	Temperatura máxima	17.9
168483	7	Sololá	716	San Marcos la Laguna 	11	San Marcos la laguna 	1	Enero	2023-01-01T00:00:00	2024-11-08T22:00:00	3	Temperatura mínima	17.2
168484	7	Sololá	716	San Marcos la Laguna 	11	San Marcos la laguna 	1	Enero	2023-01-01T00:00:00	2024-11-08T22:00:00	5	Humedad	84
168485	7	Sololá	716	San Marcos la Laguna 	11	San Marcos la laguna 	1	Enero	2023-01-01T00:00:00	2024-11-08T22:00:00	6	Velocidad del viento	6.4
168486	7	Sololá	716	San Marcos la Laguna 	11	San Marcos la laguna 	1	Enero	2023-01-01T00:00:00	2024-11-08T22:00:00	7	Dirección del viento	6.44
168487	7	Sololá	716	San Marcos la Laguna 	11	San Marcos la laguna 	1	Enero	2023-01-01T00:00:00	2024-11-08T22:00:00	1	Precipitación	0
168488	7	Sololá	716	San Marcos la Laguna 	11	San Marcos la laguna 	1	Enero	2023-01-01T00:00:00	2024-11-08T22:00:00	8	Radiación solar	0
168489	7	Sololá	716	San Marcos la Laguna 	11	San Marcos la laguna 	1	Enero	2023-01-01T00:00:00	2024-11-08T23:00:00	2	Temperatura media	17.6
168490	7	Sololá	716	San Marcos la Laguna 	11	San Marcos la laguna 	1	Enero	2023-01-01T00:00:00	2024-11-08T23:00:00	4	Temperatura máxima	17.9
168491	7	Sololá	716	San Marcos la Laguna 	11	San Marcos la laguna 	1	Enero	2023-01-01T00:00:00	2024-11-08T23:00:00	3	Temperatura mínima	17.6
168492	7	Sololá	716	San Marcos la Laguna 	11	San Marcos la laguna 	1	Enero	2023-01-01T00:00:00	2024-11-08T23:00:00	5	Humedad	84
168493	7	Sololá	716	San Marcos la Laguna 	11	San Marcos la laguna 	1	Enero	2023-01-01T00:00:00	2024-11-08T23:00:00	6	Velocidad del viento	3.2
168494	7	Sololá	716	San Marcos la Laguna 	11	San Marcos la laguna 	1	Enero	2023-01-01T00:00:00	2024-11-08T23:00:00	7	Dirección del viento	3.22
168495	7	Sololá	716	San Marcos la Laguna 	11	San Marcos la laguna 	1	Enero	2023-01-01T00:00:00	2024-11-08T23:00:00	1	Precipitación	0
168496	7	Sololá	716	San Marcos la Laguna 	11	San Marcos la laguna 	1	Enero	2023-01-01T00:00:00	2024-11-08T23:00:00	8	Radiación solar	0
168497	7	Sololá	716	San Marcos la Laguna 	11	San Marcos la laguna 	1	Enero	2023-02-01T00:00:00	2024-11-08T00:00:00	2	Temperatura media	17.7
168498	7	Sololá	716	San Marcos la Laguna 	11	San Marcos la laguna 	1	Enero	2023-02-01T00:00:00	2024-11-08T00:00:00	4	Temperatura máxima	17.9
168499	7	Sololá	716	San Marcos la Laguna 	11	San Marcos la laguna 	1	Enero	2023-02-01T00:00:00	2024-11-08T00:00:00	3	Temperatura mínima	17.4
168500	7	Sololá	716	San Marcos la Laguna 	11	San Marcos la laguna 	1	Enero	2023-02-01T00:00:00	2024-11-08T00:00:00	5	Humedad	86
168501	7	Sololá	716	San Marcos la Laguna 	11	San Marcos la laguna 	1	Enero	2023-02-01T00:00:00	2024-11-08T00:00:00	6	Velocidad del viento	3.2
168502	7	Sololá	716	San Marcos la Laguna 	11	San Marcos la laguna 	1	Enero	2023-02-01T00:00:00	2024-11-08T00:00:00	7	Dirección del viento	3.22
168503	7	Sololá	716	San Marcos la Laguna 	11	San Marcos la laguna 	1	Enero	2023-02-01T00:00:00	2024-11-08T00:00:00	1	Precipitación	0
168504	7	Sololá	716	San Marcos la Laguna 	11	San Marcos la laguna 	1	Enero	2023-02-01T00:00:00	2024-11-08T00:00:00	8	Radiación solar	0
168505	7	Sololá	716	San Marcos la Laguna 	11	San Marcos la laguna 	1	Enero	2023-02-01T00:00:00	2024-11-08T01:00:00	2	Temperatura media	16.8
168506	7	Sololá	716	San Marcos la Laguna 	11	San Marcos la laguna 	1	Enero	2023-02-01T00:00:00	2024-11-08T01:00:00	4	Temperatura máxima	17.7
168507	7	Sololá	716	San Marcos la Laguna 	11	San Marcos la laguna 	1	Enero	2023-02-01T00:00:00	2024-11-08T01:00:00	3	Temperatura mínima	16.5
168508	7	Sololá	716	San Marcos la Laguna 	11	San Marcos la laguna 	1	Enero	2023-02-01T00:00:00	2024-11-08T01:00:00	5	Humedad	83
168509	7	Sololá	716	San Marcos la Laguna 	11	San Marcos la laguna 	1	Enero	2023-02-01T00:00:00	2024-11-08T01:00:00	6	Velocidad del viento	6.4
168510	7	Sololá	716	San Marcos la Laguna 	11	San Marcos la laguna 	1	Enero	2023-02-01T00:00:00	2024-11-08T01:00:00	7	Dirección del viento	6.44
168511	7	Sololá	716	San Marcos la Laguna 	11	San Marcos la laguna 	1	Enero	2023-02-01T00:00:00	2024-11-08T01:00:00	1	Precipitación	0
168512	7	Sololá	716	San Marcos la Laguna 	11	San Marcos la laguna 	1	Enero	2023-02-01T00:00:00	2024-11-08T01:00:00	8	Radiación solar	0
168513	7	Sololá	716	San Marcos la Laguna 	11	San Marcos la laguna 	1	Enero	2023-02-01T00:00:00	2024-11-08T02:00:00	2	Temperatura media	15.8
168514	7	Sololá	716	San Marcos la Laguna 	11	San Marcos la laguna 	1	Enero	2023-02-01T00:00:00	2024-11-08T02:00:00	4	Temperatura máxima	16.8
168515	7	Sololá	716	San Marcos la Laguna 	11	San Marcos la laguna 	1	Enero	2023-02-01T00:00:00	2024-11-08T02:00:00	3	Temperatura mínima	15.8
168516	7	Sololá	716	San Marcos la Laguna 	11	San Marcos la laguna 	1	Enero	2023-02-01T00:00:00	2024-11-08T02:00:00	5	Humedad	84
168517	7	Sololá	716	San Marcos la Laguna 	11	San Marcos la laguna 	1	Enero	2023-02-01T00:00:00	2024-11-08T02:00:00	6	Velocidad del viento	6.4
168518	7	Sololá	716	San Marcos la Laguna 	11	San Marcos la laguna 	1	Enero	2023-02-01T00:00:00	2024-11-08T02:00:00	7	Dirección del viento	6.44
168519	7	Sololá	716	San Marcos la Laguna 	11	San Marcos la laguna 	1	Enero	2023-02-01T00:00:00	2024-11-08T02:00:00	1	Precipitación	0
168520	7	Sololá	716	San Marcos la Laguna 	11	San Marcos la laguna 	1	Enero	2023-02-01T00:00:00	2024-11-08T02:00:00	8	Radiación solar	0
168521	7	Sololá	716	San Marcos la Laguna 	11	San Marcos la laguna 	1	Enero	2023-02-01T00:00:00	2024-11-08T03:00:00	2	Temperatura media	14.9
168522	7	Sololá	716	San Marcos la Laguna 	11	San Marcos la laguna 	1	Enero	2023-02-01T00:00:00	2024-11-08T03:00:00	4	Temperatura máxima	15.8
168523	7	Sololá	716	San Marcos la Laguna 	11	San Marcos la laguna 	1	Enero	2023-02-01T00:00:00	2024-11-08T03:00:00	3	Temperatura mínima	14.9
168524	7	Sololá	716	San Marcos la Laguna 	11	San Marcos la laguna 	1	Enero	2023-02-01T00:00:00	2024-11-08T03:00:00	5	Humedad	88
168525	7	Sololá	716	San Marcos la Laguna 	11	San Marcos la laguna 	1	Enero	2023-02-01T00:00:00	2024-11-08T03:00:00	6	Velocidad del viento	6.4
168526	7	Sololá	716	San Marcos la Laguna 	11	San Marcos la laguna 	1	Enero	2023-02-01T00:00:00	2024-11-08T03:00:00	7	Dirección del viento	6.44
168527	7	Sololá	716	San Marcos la Laguna 	11	San Marcos la laguna 	1	Enero	2023-02-01T00:00:00	2024-11-08T03:00:00	1	Precipitación	0
168528	7	Sololá	716	San Marcos la Laguna 	11	San Marcos la laguna 	1	Enero	2023-02-01T00:00:00	2024-11-08T03:00:00	8	Radiación solar	0
168529	7	Sololá	716	San Marcos la Laguna 	11	San Marcos la laguna 	1	Enero	2023-02-01T00:00:00	2024-11-08T04:00:00	2	Temperatura media	15.2
168530	7	Sololá	716	San Marcos la Laguna 	11	San Marcos la laguna 	1	Enero	2023-02-01T00:00:00	2024-11-08T04:00:00	4	Temperatura máxima	15.3
168531	7	Sololá	716	San Marcos la Laguna 	11	San Marcos la laguna 	1	Enero	2023-02-01T00:00:00	2024-11-08T04:00:00	3	Temperatura mínima	14.8
168532	7	Sololá	716	San Marcos la Laguna 	11	San Marcos la laguna 	1	Enero	2023-02-01T00:00:00	2024-11-08T04:00:00	5	Humedad	87
168533	7	Sololá	716	San Marcos la Laguna 	11	San Marcos la laguna 	1	Enero	2023-02-01T00:00:00	2024-11-08T04:00:00	6	Velocidad del viento	6.4
168534	7	Sololá	716	San Marcos la Laguna 	11	San Marcos la laguna 	1	Enero	2023-02-01T00:00:00	2024-11-08T04:00:00	7	Dirección del viento	6.44
168535	7	Sololá	716	San Marcos la Laguna 	11	San Marcos la laguna 	1	Enero	2023-02-01T00:00:00	2024-11-08T04:00:00	1	Precipitación	0
168536	7	Sololá	716	San Marcos la Laguna 	11	San Marcos la laguna 	1	Enero	2023-02-01T00:00:00	2024-11-08T04:00:00	8	Radiación solar	0
168537	7	Sololá	716	San Marcos la Laguna 	11	San Marcos la laguna 	1	Enero	2023-02-01T00:00:00	2024-11-08T05:00:00	2	Temperatura media	14.9
168538	7	Sololá	716	San Marcos la Laguna 	11	San Marcos la laguna 	1	Enero	2023-02-01T00:00:00	2024-11-08T05:00:00	4	Temperatura máxima	15.2
168539	7	Sololá	716	San Marcos la Laguna 	11	San Marcos la laguna 	1	Enero	2023-02-01T00:00:00	2024-11-08T05:00:00	3	Temperatura mínima	14.8
168540	7	Sololá	716	San Marcos la Laguna 	11	San Marcos la laguna 	1	Enero	2023-02-01T00:00:00	2024-11-08T05:00:00	5	Humedad	86
168541	7	Sololá	716	San Marcos la Laguna 	11	San Marcos la laguna 	1	Enero	2023-02-01T00:00:00	2024-11-08T05:00:00	6	Velocidad del viento	6.4
168542	7	Sololá	716	San Marcos la Laguna 	11	San Marcos la laguna 	1	Enero	2023-02-01T00:00:00	2024-11-08T05:00:00	7	Dirección del viento	6.44
168543	7	Sololá	716	San Marcos la Laguna 	11	San Marcos la laguna 	1	Enero	2023-02-01T00:00:00	2024-11-08T05:00:00	1	Precipitación	0
168544	7	Sololá	716	San Marcos la Laguna 	11	San Marcos la laguna 	1	Enero	2023-02-01T00:00:00	2024-11-08T05:00:00	8	Radiación solar	0
168545	7	Sololá	716	San Marcos la Laguna 	11	San Marcos la laguna 	1	Enero	2023-02-01T00:00:00	2024-11-08T06:00:00	2	Temperatura media	14.2
168546	7	Sololá	716	San Marcos la Laguna 	11	San Marcos la laguna 	1	Enero	2023-02-01T00:00:00	2024-11-08T06:00:00	4	Temperatura máxima	14.9
168547	7	Sololá	716	San Marcos la Laguna 	11	San Marcos la laguna 	1	Enero	2023-02-01T00:00:00	2024-11-08T06:00:00	3	Temperatura mínima	14.2
168548	7	Sololá	716	San Marcos la Laguna 	11	San Marcos la laguna 	1	Enero	2023-02-01T00:00:00	2024-11-08T06:00:00	5	Humedad	89
168549	7	Sololá	716	San Marcos la Laguna 	11	San Marcos la laguna 	1	Enero	2023-02-01T00:00:00	2024-11-08T06:00:00	6	Velocidad del viento	6.4
168550	7	Sololá	716	San Marcos la Laguna 	11	San Marcos la laguna 	1	Enero	2023-02-01T00:00:00	2024-11-08T06:00:00	7	Dirección del viento	6.44
168551	7	Sololá	716	San Marcos la Laguna 	11	San Marcos la laguna 	1	Enero	2023-02-01T00:00:00	2024-11-08T06:00:00	1	Precipitación	0
168552	7	Sololá	716	San Marcos la Laguna 	11	San Marcos la laguna 	1	Enero	2023-02-01T00:00:00	2024-11-08T06:00:00	8	Radiación solar	0
168553	7	Sololá	716	San Marcos la Laguna 	11	San Marcos la laguna 	1	Enero	2023-02-01T00:00:00	2024-11-08T07:00:00	2	Temperatura media	13.8
168554	7	Sololá	716	San Marcos la Laguna 	11	San Marcos la laguna 	1	Enero	2023-02-01T00:00:00	2024-11-08T07:00:00	4	Temperatura máxima	14.3
168555	7	Sololá	716	San Marcos la Laguna 	11	San Marcos la laguna 	1	Enero	2023-02-01T00:00:00	2024-11-08T07:00:00	3	Temperatura mínima	13.7
168556	7	Sololá	716	San Marcos la Laguna 	11	San Marcos la laguna 	1	Enero	2023-02-01T00:00:00	2024-11-08T07:00:00	5	Humedad	87
168557	7	Sololá	716	San Marcos la Laguna 	11	San Marcos la laguna 	1	Enero	2023-02-01T00:00:00	2024-11-08T07:00:00	6	Velocidad del viento	8
168558	7	Sololá	716	San Marcos la Laguna 	11	San Marcos la laguna 	1	Enero	2023-02-01T00:00:00	2024-11-08T07:00:00	7	Dirección del viento	8.05
168559	7	Sololá	716	San Marcos la Laguna 	11	San Marcos la laguna 	1	Enero	2023-02-01T00:00:00	2024-11-08T07:00:00	1	Precipitación	0
168560	7	Sololá	716	San Marcos la Laguna 	11	San Marcos la laguna 	1	Enero	2023-02-01T00:00:00	2024-11-08T07:00:00	8	Radiación solar	6
168561	7	Sololá	716	San Marcos la Laguna 	11	San Marcos la laguna 	1	Enero	2023-02-01T00:00:00	2024-11-08T08:00:00	2	Temperatura media	17.1
168562	7	Sololá	716	San Marcos la Laguna 	11	San Marcos la laguna 	1	Enero	2023-02-01T00:00:00	2024-11-08T08:00:00	4	Temperatura máxima	17.1
168563	7	Sololá	716	San Marcos la Laguna 	11	San Marcos la laguna 	1	Enero	2023-02-01T00:00:00	2024-11-08T08:00:00	3	Temperatura mínima	13.8
168564	7	Sololá	716	San Marcos la Laguna 	11	San Marcos la laguna 	1	Enero	2023-02-01T00:00:00	2024-11-08T08:00:00	5	Humedad	83
168565	7	Sololá	716	San Marcos la Laguna 	11	San Marcos la laguna 	1	Enero	2023-02-01T00:00:00	2024-11-08T08:00:00	6	Velocidad del viento	3.2
168566	7	Sololá	716	San Marcos la Laguna 	11	San Marcos la laguna 	1	Enero	2023-02-01T00:00:00	2024-11-08T08:00:00	7	Dirección del viento	3.22
168567	7	Sololá	716	San Marcos la Laguna 	11	San Marcos la laguna 	1	Enero	2023-02-01T00:00:00	2024-11-08T08:00:00	1	Precipitación	0
168568	7	Sololá	716	San Marcos la Laguna 	11	San Marcos la laguna 	1	Enero	2023-02-01T00:00:00	2024-11-08T08:00:00	8	Radiación solar	116
168569	7	Sololá	716	San Marcos la Laguna 	11	San Marcos la laguna 	1	Enero	2023-02-01T00:00:00	2024-11-08T09:00:00	2	Temperatura media	18.9
168570	7	Sololá	716	San Marcos la Laguna 	11	San Marcos la laguna 	1	Enero	2023-02-01T00:00:00	2024-11-08T09:00:00	4	Temperatura máxima	19
168571	7	Sololá	716	San Marcos la Laguna 	11	San Marcos la laguna 	1	Enero	2023-02-01T00:00:00	2024-11-08T09:00:00	3	Temperatura mínima	17.1
168572	7	Sololá	716	San Marcos la Laguna 	11	San Marcos la laguna 	1	Enero	2023-02-01T00:00:00	2024-11-08T09:00:00	5	Humedad	79
168573	7	Sololá	716	San Marcos la Laguna 	11	San Marcos la laguna 	1	Enero	2023-02-01T00:00:00	2024-11-08T09:00:00	6	Velocidad del viento	3.2
168574	7	Sololá	716	San Marcos la Laguna 	11	San Marcos la laguna 	1	Enero	2023-02-01T00:00:00	2024-11-08T09:00:00	7	Dirección del viento	3.22
168575	7	Sololá	716	San Marcos la Laguna 	11	San Marcos la laguna 	1	Enero	2023-02-01T00:00:00	2024-11-08T09:00:00	1	Precipitación	0
168576	7	Sololá	716	San Marcos la Laguna 	11	San Marcos la laguna 	1	Enero	2023-02-01T00:00:00	2024-11-08T09:00:00	8	Radiación solar	372
168577	7	Sololá	716	San Marcos la Laguna 	11	San Marcos la laguna 	1	Enero	2023-02-01T00:00:00	2024-11-08T10:00:00	2	Temperatura media	19.4
168578	7	Sololá	716	San Marcos la Laguna 	11	San Marcos la laguna 	1	Enero	2023-02-01T00:00:00	2024-11-08T10:00:00	4	Temperatura máxima	19.7
168579	7	Sololá	716	San Marcos la Laguna 	11	San Marcos la laguna 	1	Enero	2023-02-01T00:00:00	2024-11-08T10:00:00	3	Temperatura mínima	18.9
168580	7	Sololá	716	San Marcos la Laguna 	11	San Marcos la laguna 	1	Enero	2023-02-01T00:00:00	2024-11-08T10:00:00	5	Humedad	75
168581	7	Sololá	716	San Marcos la Laguna 	11	San Marcos la laguna 	1	Enero	2023-02-01T00:00:00	2024-11-08T10:00:00	6	Velocidad del viento	3.2
168582	7	Sololá	716	San Marcos la Laguna 	11	San Marcos la laguna 	1	Enero	2023-02-01T00:00:00	2024-11-08T10:00:00	7	Dirección del viento	3.22
168583	7	Sololá	716	San Marcos la Laguna 	11	San Marcos la laguna 	1	Enero	2023-02-01T00:00:00	2024-11-08T10:00:00	1	Precipitación	0
168584	7	Sololá	716	San Marcos la Laguna 	11	San Marcos la laguna 	1	Enero	2023-02-01T00:00:00	2024-11-08T10:00:00	8	Radiación solar	429
168585	7	Sololá	716	San Marcos la Laguna 	11	San Marcos la laguna 	1	Enero	2023-02-01T00:00:00	2024-11-08T11:00:00	2	Temperatura media	19.8
168586	7	Sololá	716	San Marcos la Laguna 	11	San Marcos la laguna 	1	Enero	2023-02-01T00:00:00	2024-11-08T11:00:00	4	Temperatura máxima	19.8
168587	7	Sololá	716	San Marcos la Laguna 	11	San Marcos la laguna 	1	Enero	2023-02-01T00:00:00	2024-11-08T11:00:00	3	Temperatura mínima	19.3
168588	7	Sololá	716	San Marcos la Laguna 	11	San Marcos la laguna 	1	Enero	2023-02-01T00:00:00	2024-11-08T11:00:00	5	Humedad	71
168589	7	Sololá	716	San Marcos la Laguna 	11	San Marcos la laguna 	1	Enero	2023-02-01T00:00:00	2024-11-08T11:00:00	6	Velocidad del viento	4.8
168590	7	Sololá	716	San Marcos la Laguna 	11	San Marcos la laguna 	1	Enero	2023-02-01T00:00:00	2024-11-08T11:00:00	7	Dirección del viento	4.83
168591	7	Sololá	716	San Marcos la Laguna 	11	San Marcos la laguna 	1	Enero	2023-02-01T00:00:00	2024-11-08T11:00:00	1	Precipitación	0
168592	7	Sololá	716	San Marcos la Laguna 	11	San Marcos la laguna 	1	Enero	2023-02-01T00:00:00	2024-11-08T11:00:00	8	Radiación solar	452
168593	7	Sololá	716	San Marcos la Laguna 	11	San Marcos la laguna 	1	Enero	2023-02-01T00:00:00	2024-11-08T12:00:00	2	Temperatura media	20.6
168594	7	Sololá	716	San Marcos la Laguna 	11	San Marcos la laguna 	1	Enero	2023-02-01T00:00:00	2024-11-08T12:00:00	4	Temperatura máxima	20.6
168595	7	Sololá	716	San Marcos la Laguna 	11	San Marcos la laguna 	1	Enero	2023-02-01T00:00:00	2024-11-08T12:00:00	3	Temperatura mínima	19.8
168596	7	Sololá	716	San Marcos la Laguna 	11	San Marcos la laguna 	1	Enero	2023-02-01T00:00:00	2024-11-08T12:00:00	5	Humedad	69
168597	7	Sololá	716	San Marcos la Laguna 	11	San Marcos la laguna 	1	Enero	2023-02-01T00:00:00	2024-11-08T12:00:00	6	Velocidad del viento	6.4
168598	7	Sololá	716	San Marcos la Laguna 	11	San Marcos la laguna 	1	Enero	2023-02-01T00:00:00	2024-11-08T12:00:00	7	Dirección del viento	6.44
168599	7	Sololá	716	San Marcos la Laguna 	11	San Marcos la laguna 	1	Enero	2023-02-01T00:00:00	2024-11-08T12:00:00	1	Precipitación	0
168600	7	Sololá	716	San Marcos la Laguna 	11	San Marcos la laguna 	1	Enero	2023-02-01T00:00:00	2024-11-08T12:00:00	8	Radiación solar	723
168601	7	Sololá	716	San Marcos la Laguna 	11	San Marcos la laguna 	1	Enero	2023-02-01T00:00:00	2024-11-08T13:00:00	2	Temperatura media	20.9
168602	7	Sololá	716	San Marcos la Laguna 	11	San Marcos la laguna 	1	Enero	2023-02-01T00:00:00	2024-11-08T13:00:00	4	Temperatura máxima	21
168603	7	Sololá	716	San Marcos la Laguna 	11	San Marcos la laguna 	1	Enero	2023-02-01T00:00:00	2024-11-08T13:00:00	3	Temperatura mínima	20.3
168604	7	Sololá	716	San Marcos la Laguna 	11	San Marcos la laguna 	1	Enero	2023-02-01T00:00:00	2024-11-08T13:00:00	5	Humedad	73
168605	7	Sololá	716	San Marcos la Laguna 	11	San Marcos la laguna 	1	Enero	2023-02-01T00:00:00	2024-11-08T13:00:00	6	Velocidad del viento	9.7
168606	7	Sololá	716	San Marcos la Laguna 	11	San Marcos la laguna 	1	Enero	2023-02-01T00:00:00	2024-11-08T13:00:00	7	Dirección del viento	9.66
168607	7	Sololá	716	San Marcos la Laguna 	11	San Marcos la laguna 	1	Enero	2023-02-01T00:00:00	2024-11-08T13:00:00	1	Precipitación	0
168608	7	Sololá	716	San Marcos la Laguna 	11	San Marcos la laguna 	1	Enero	2023-02-01T00:00:00	2024-11-08T13:00:00	8	Radiación solar	635
168609	7	Sololá	716	San Marcos la Laguna 	11	San Marcos la laguna 	1	Enero	2023-02-01T00:00:00	2024-11-08T14:00:00	2	Temperatura media	20.8
168610	7	Sololá	716	San Marcos la Laguna 	11	San Marcos la laguna 	1	Enero	2023-02-01T00:00:00	2024-11-08T14:00:00	4	Temperatura máxima	21.1
168611	7	Sololá	716	San Marcos la Laguna 	11	San Marcos la laguna 	1	Enero	2023-02-01T00:00:00	2024-11-08T14:00:00	3	Temperatura mínima	20.7
168612	7	Sololá	716	San Marcos la Laguna 	11	San Marcos la laguna 	1	Enero	2023-02-01T00:00:00	2024-11-08T14:00:00	5	Humedad	74
168613	7	Sololá	716	San Marcos la Laguna 	11	San Marcos la laguna 	1	Enero	2023-02-01T00:00:00	2024-11-08T14:00:00	6	Velocidad del viento	12.9
168614	7	Sololá	716	San Marcos la Laguna 	11	San Marcos la laguna 	1	Enero	2023-02-01T00:00:00	2024-11-08T14:00:00	7	Dirección del viento	12.87
168615	7	Sololá	716	San Marcos la Laguna 	11	San Marcos la laguna 	1	Enero	2023-02-01T00:00:00	2024-11-08T14:00:00	1	Precipitación	0
168616	7	Sololá	716	San Marcos la Laguna 	11	San Marcos la laguna 	1	Enero	2023-02-01T00:00:00	2024-11-08T14:00:00	8	Radiación solar	675
168617	7	Sololá	716	San Marcos la Laguna 	11	San Marcos la laguna 	1	Enero	2023-02-01T00:00:00	2024-11-08T15:00:00	2	Temperatura media	20.9
168618	7	Sololá	716	San Marcos la Laguna 	11	San Marcos la laguna 	1	Enero	2023-02-01T00:00:00	2024-11-08T15:00:00	4	Temperatura máxima	21.2
168619	7	Sololá	716	San Marcos la Laguna 	11	San Marcos la laguna 	1	Enero	2023-02-01T00:00:00	2024-11-08T15:00:00	3	Temperatura mínima	20.7
168620	7	Sololá	716	San Marcos la Laguna 	11	San Marcos la laguna 	1	Enero	2023-02-01T00:00:00	2024-11-08T15:00:00	5	Humedad	75
168621	7	Sololá	716	San Marcos la Laguna 	11	San Marcos la laguna 	1	Enero	2023-02-01T00:00:00	2024-11-08T15:00:00	6	Velocidad del viento	11.3
168622	7	Sololá	716	San Marcos la Laguna 	11	San Marcos la laguna 	1	Enero	2023-02-01T00:00:00	2024-11-08T15:00:00	7	Dirección del viento	11.27
168623	7	Sololá	716	San Marcos la Laguna 	11	San Marcos la laguna 	1	Enero	2023-02-01T00:00:00	2024-11-08T15:00:00	1	Precipitación	0
168624	7	Sololá	716	San Marcos la Laguna 	11	San Marcos la laguna 	1	Enero	2023-02-01T00:00:00	2024-11-08T15:00:00	8	Radiación solar	555
168625	7	Sololá	716	San Marcos la Laguna 	11	San Marcos la laguna 	1	Enero	2023-02-01T00:00:00	2024-11-08T16:00:00	2	Temperatura media	20.9
168626	7	Sololá	716	San Marcos la Laguna 	11	San Marcos la laguna 	1	Enero	2023-02-01T00:00:00	2024-11-08T16:00:00	4	Temperatura máxima	21.1
168627	7	Sololá	716	San Marcos la Laguna 	11	San Marcos la laguna 	1	Enero	2023-02-01T00:00:00	2024-11-08T16:00:00	3	Temperatura mínima	20.7
168628	7	Sololá	716	San Marcos la Laguna 	11	San Marcos la laguna 	1	Enero	2023-02-01T00:00:00	2024-11-08T16:00:00	5	Humedad	75
168629	7	Sololá	716	San Marcos la Laguna 	11	San Marcos la laguna 	1	Enero	2023-02-01T00:00:00	2024-11-08T16:00:00	6	Velocidad del viento	9.7
168630	7	Sololá	716	San Marcos la Laguna 	11	San Marcos la laguna 	1	Enero	2023-02-01T00:00:00	2024-11-08T16:00:00	7	Dirección del viento	9.66
168631	7	Sololá	716	San Marcos la Laguna 	11	San Marcos la laguna 	1	Enero	2023-02-01T00:00:00	2024-11-08T16:00:00	1	Precipitación	0
168632	7	Sololá	716	San Marcos la Laguna 	11	San Marcos la laguna 	1	Enero	2023-02-01T00:00:00	2024-11-08T16:00:00	8	Radiación solar	382
168633	7	Sololá	716	San Marcos la Laguna 	11	San Marcos la laguna 	1	Enero	2023-02-01T00:00:00	2024-11-08T17:00:00	2	Temperatura media	20.2
168634	7	Sololá	716	San Marcos la Laguna 	11	San Marcos la laguna 	1	Enero	2023-02-01T00:00:00	2024-11-08T17:00:00	4	Temperatura máxima	20.9
168635	7	Sololá	716	San Marcos la Laguna 	11	San Marcos la laguna 	1	Enero	2023-02-01T00:00:00	2024-11-08T17:00:00	3	Temperatura mínima	20.2
168636	7	Sololá	716	San Marcos la Laguna 	11	San Marcos la laguna 	1	Enero	2023-02-01T00:00:00	2024-11-08T17:00:00	5	Humedad	78
168637	7	Sololá	716	San Marcos la Laguna 	11	San Marcos la laguna 	1	Enero	2023-02-01T00:00:00	2024-11-08T17:00:00	6	Velocidad del viento	8
168638	7	Sololá	716	San Marcos la Laguna 	11	San Marcos la laguna 	1	Enero	2023-02-01T00:00:00	2024-11-08T17:00:00	7	Dirección del viento	8.05
168639	7	Sololá	716	San Marcos la Laguna 	11	San Marcos la laguna 	1	Enero	2023-02-01T00:00:00	2024-11-08T17:00:00	1	Precipitación	0
168640	7	Sololá	716	San Marcos la Laguna 	11	San Marcos la laguna 	1	Enero	2023-02-01T00:00:00	2024-11-08T17:00:00	8	Radiación solar	141
168641	7	Sololá	716	San Marcos la Laguna 	11	San Marcos la laguna 	1	Enero	2023-02-01T00:00:00	2024-11-08T18:00:00	2	Temperatura media	19.5
168642	7	Sololá	716	San Marcos la Laguna 	11	San Marcos la laguna 	1	Enero	2023-02-01T00:00:00	2024-11-08T18:00:00	4	Temperatura máxima	20.3
168643	7	Sololá	716	San Marcos la Laguna 	11	San Marcos la laguna 	1	Enero	2023-02-01T00:00:00	2024-11-08T18:00:00	3	Temperatura mínima	19.5
168644	7	Sololá	716	San Marcos la Laguna 	11	San Marcos la laguna 	1	Enero	2023-02-01T00:00:00	2024-11-08T18:00:00	5	Humedad	84
168645	7	Sololá	716	San Marcos la Laguna 	11	San Marcos la laguna 	1	Enero	2023-02-01T00:00:00	2024-11-08T18:00:00	6	Velocidad del viento	3.2
168646	7	Sololá	716	San Marcos la Laguna 	11	San Marcos la laguna 	1	Enero	2023-02-01T00:00:00	2024-11-08T18:00:00	7	Dirección del viento	3.22
168647	7	Sololá	716	San Marcos la Laguna 	11	San Marcos la laguna 	1	Enero	2023-02-01T00:00:00	2024-11-08T18:00:00	1	Precipitación	0
168648	7	Sololá	716	San Marcos la Laguna 	11	San Marcos la laguna 	1	Enero	2023-02-01T00:00:00	2024-11-08T18:00:00	8	Radiación solar	16
168649	7	Sololá	716	San Marcos la Laguna 	11	San Marcos la laguna 	1	Enero	2023-02-01T00:00:00	2024-11-08T19:00:00	2	Temperatura media	18.4
168650	7	Sololá	716	San Marcos la Laguna 	11	San Marcos la laguna 	1	Enero	2023-02-01T00:00:00	2024-11-08T19:00:00	4	Temperatura máxima	19.5
168651	7	Sololá	716	San Marcos la Laguna 	11	San Marcos la laguna 	1	Enero	2023-02-01T00:00:00	2024-11-08T19:00:00	3	Temperatura mínima	18.4
168652	7	Sololá	716	San Marcos la Laguna 	11	San Marcos la laguna 	1	Enero	2023-02-01T00:00:00	2024-11-08T19:00:00	5	Humedad	82
168653	7	Sololá	716	San Marcos la Laguna 	11	San Marcos la laguna 	1	Enero	2023-02-01T00:00:00	2024-11-08T19:00:00	6	Velocidad del viento	3.2
168654	7	Sololá	716	San Marcos la Laguna 	11	San Marcos la laguna 	1	Enero	2023-02-01T00:00:00	2024-11-08T19:00:00	7	Dirección del viento	3.22
168655	7	Sololá	716	San Marcos la Laguna 	11	San Marcos la laguna 	1	Enero	2023-02-01T00:00:00	2024-11-08T19:00:00	1	Precipitación	0
168656	7	Sololá	716	San Marcos la Laguna 	11	San Marcos la laguna 	1	Enero	2023-02-01T00:00:00	2024-11-08T19:00:00	8	Radiación solar	0
168657	7	Sololá	716	San Marcos la Laguna 	11	San Marcos la laguna 	1	Enero	2023-02-01T00:00:00	2024-11-08T20:00:00	2	Temperatura media	17.9
168658	7	Sololá	716	San Marcos la Laguna 	11	San Marcos la laguna 	1	Enero	2023-02-01T00:00:00	2024-11-08T20:00:00	4	Temperatura máxima	18.5
168659	7	Sololá	716	San Marcos la Laguna 	11	San Marcos la laguna 	1	Enero	2023-02-01T00:00:00	2024-11-08T20:00:00	3	Temperatura mínima	17.9
168660	7	Sololá	716	San Marcos la Laguna 	11	San Marcos la laguna 	1	Enero	2023-02-01T00:00:00	2024-11-08T20:00:00	5	Humedad	82
168661	7	Sololá	716	San Marcos la Laguna 	11	San Marcos la laguna 	1	Enero	2023-02-01T00:00:00	2024-11-08T20:00:00	6	Velocidad del viento	4.8
168662	7	Sololá	716	San Marcos la Laguna 	11	San Marcos la laguna 	1	Enero	2023-02-01T00:00:00	2024-11-08T20:00:00	7	Dirección del viento	4.83
168663	7	Sololá	716	San Marcos la Laguna 	11	San Marcos la laguna 	1	Enero	2023-02-01T00:00:00	2024-11-08T20:00:00	1	Precipitación	0
168664	7	Sololá	716	San Marcos la Laguna 	11	San Marcos la laguna 	1	Enero	2023-02-01T00:00:00	2024-11-08T20:00:00	8	Radiación solar	0
168665	7	Sololá	716	San Marcos la Laguna 	11	San Marcos la laguna 	1	Enero	2023-02-01T00:00:00	2024-11-08T21:00:00	2	Temperatura media	17.9
168666	7	Sololá	716	San Marcos la Laguna 	11	San Marcos la laguna 	1	Enero	2023-02-01T00:00:00	2024-11-08T21:00:00	4	Temperatura máxima	18.1
168667	7	Sololá	716	San Marcos la Laguna 	11	San Marcos la laguna 	1	Enero	2023-02-01T00:00:00	2024-11-08T21:00:00	3	Temperatura mínima	17.7
168668	7	Sololá	716	San Marcos la Laguna 	11	San Marcos la laguna 	1	Enero	2023-02-01T00:00:00	2024-11-08T21:00:00	5	Humedad	82
168669	7	Sololá	716	San Marcos la Laguna 	11	San Marcos la laguna 	1	Enero	2023-02-01T00:00:00	2024-11-08T21:00:00	6	Velocidad del viento	3.2
168670	7	Sololá	716	San Marcos la Laguna 	11	San Marcos la laguna 	1	Enero	2023-02-01T00:00:00	2024-11-08T21:00:00	7	Dirección del viento	3.22
168671	7	Sololá	716	San Marcos la Laguna 	11	San Marcos la laguna 	1	Enero	2023-02-01T00:00:00	2024-11-08T21:00:00	1	Precipitación	0
168672	7	Sololá	716	San Marcos la Laguna 	11	San Marcos la laguna 	1	Enero	2023-02-01T00:00:00	2024-11-08T21:00:00	8	Radiación solar	0
168673	7	Sololá	716	San Marcos la Laguna 	11	San Marcos la laguna 	1	Enero	2023-02-01T00:00:00	2024-11-08T22:00:00	2	Temperatura media	16.9
168674	7	Sololá	716	San Marcos la Laguna 	11	San Marcos la laguna 	1	Enero	2023-02-01T00:00:00	2024-11-08T22:00:00	4	Temperatura máxima	18
168675	7	Sololá	716	San Marcos la Laguna 	11	San Marcos la laguna 	1	Enero	2023-02-01T00:00:00	2024-11-08T22:00:00	3	Temperatura mínima	16.9
168676	7	Sololá	716	San Marcos la Laguna 	11	San Marcos la laguna 	1	Enero	2023-02-01T00:00:00	2024-11-08T22:00:00	5	Humedad	80
168677	7	Sololá	716	San Marcos la Laguna 	11	San Marcos la laguna 	1	Enero	2023-02-01T00:00:00	2024-11-08T22:00:00	6	Velocidad del viento	4.8
168678	7	Sololá	716	San Marcos la Laguna 	11	San Marcos la laguna 	1	Enero	2023-02-01T00:00:00	2024-11-08T22:00:00	7	Dirección del viento	4.83
168679	7	Sololá	716	San Marcos la Laguna 	11	San Marcos la laguna 	1	Enero	2023-02-01T00:00:00	2024-11-08T22:00:00	1	Precipitación	0
168680	7	Sololá	716	San Marcos la Laguna 	11	San Marcos la laguna 	1	Enero	2023-02-01T00:00:00	2024-11-08T22:00:00	8	Radiación solar	0
168681	7	Sololá	716	San Marcos la Laguna 	11	San Marcos la laguna 	1	Enero	2023-02-01T00:00:00	2024-11-08T23:00:00	2	Temperatura media	17.3
168682	7	Sololá	716	San Marcos la Laguna 	11	San Marcos la laguna 	1	Enero	2023-02-01T00:00:00	2024-11-08T23:00:00	4	Temperatura máxima	17.4
168683	7	Sololá	716	San Marcos la Laguna 	11	San Marcos la laguna 	1	Enero	2023-02-01T00:00:00	2024-11-08T23:00:00	3	Temperatura mínima	16.7
168684	7	Sololá	716	San Marcos la Laguna 	11	San Marcos la laguna 	1	Enero	2023-02-01T00:00:00	2024-11-08T23:00:00	5	Humedad	77
168685	7	Sololá	716	San Marcos la Laguna 	11	San Marcos la laguna 	1	Enero	2023-02-01T00:00:00	2024-11-08T23:00:00	6	Velocidad del viento	6.4
168686	7	Sololá	716	San Marcos la Laguna 	11	San Marcos la laguna 	1	Enero	2023-02-01T00:00:00	2024-11-08T23:00:00	7	Dirección del viento	6.44
168687	7	Sololá	716	San Marcos la Laguna 	11	San Marcos la laguna 	1	Enero	2023-02-01T00:00:00	2024-11-08T23:00:00	1	Precipitación	0
168688	7	Sololá	716	San Marcos la Laguna 	11	San Marcos la laguna 	1	Enero	2023-02-01T00:00:00	2024-11-08T23:00:00	8	Radiación solar	0
168689	7	Sololá	716	San Marcos la Laguna 	11	San Marcos la laguna 	1	Enero	2023-03-01T00:00:00	2024-11-08T00:00:00	2	Temperatura media	16.2
168690	7	Sololá	716	San Marcos la Laguna 	11	San Marcos la laguna 	1	Enero	2023-03-01T00:00:00	2024-11-08T00:00:00	4	Temperatura máxima	17.3
168691	7	Sololá	716	San Marcos la Laguna 	11	San Marcos la laguna 	1	Enero	2023-03-01T00:00:00	2024-11-08T00:00:00	3	Temperatura mínima	16.1
168692	7	Sololá	716	San Marcos la Laguna 	11	San Marcos la laguna 	1	Enero	2023-03-01T00:00:00	2024-11-08T00:00:00	5	Humedad	80
168693	7	Sololá	716	San Marcos la Laguna 	11	San Marcos la laguna 	1	Enero	2023-03-01T00:00:00	2024-11-08T00:00:00	6	Velocidad del viento	4.8
168694	7	Sololá	716	San Marcos la Laguna 	11	San Marcos la laguna 	1	Enero	2023-03-01T00:00:00	2024-11-08T00:00:00	7	Dirección del viento	4.83
168695	7	Sololá	716	San Marcos la Laguna 	11	San Marcos la laguna 	1	Enero	2023-03-01T00:00:00	2024-11-08T00:00:00	1	Precipitación	0
168696	7	Sololá	716	San Marcos la Laguna 	11	San Marcos la laguna 	1	Enero	2023-03-01T00:00:00	2024-11-08T00:00:00	8	Radiación solar	0
168697	7	Sololá	716	San Marcos la Laguna 	11	San Marcos la laguna 	1	Enero	2023-03-01T00:00:00	2024-11-08T01:00:00	2	Temperatura media	15.3
168698	7	Sololá	716	San Marcos la Laguna 	11	San Marcos la laguna 	1	Enero	2023-03-01T00:00:00	2024-11-08T01:00:00	4	Temperatura máxima	16.6
168699	7	Sololá	716	San Marcos la Laguna 	11	San Marcos la laguna 	1	Enero	2023-03-01T00:00:00	2024-11-08T01:00:00	3	Temperatura mínima	15.3
168700	7	Sololá	716	San Marcos la Laguna 	11	San Marcos la laguna 	1	Enero	2023-03-01T00:00:00	2024-11-08T01:00:00	5	Humedad	80
168701	7	Sololá	716	San Marcos la Laguna 	11	San Marcos la laguna 	1	Enero	2023-03-01T00:00:00	2024-11-08T01:00:00	6	Velocidad del viento	6.4
168702	7	Sololá	716	San Marcos la Laguna 	11	San Marcos la laguna 	1	Enero	2023-03-01T00:00:00	2024-11-08T01:00:00	7	Dirección del viento	6.44
168703	7	Sololá	716	San Marcos la Laguna 	11	San Marcos la laguna 	1	Enero	2023-03-01T00:00:00	2024-11-08T01:00:00	1	Precipitación	0
168704	7	Sololá	716	San Marcos la Laguna 	11	San Marcos la laguna 	1	Enero	2023-03-01T00:00:00	2024-11-08T01:00:00	8	Radiación solar	0
168705	7	Sololá	716	San Marcos la Laguna 	11	San Marcos la laguna 	1	Enero	2023-03-01T00:00:00	2024-11-08T02:00:00	2	Temperatura media	14.9
168706	7	Sololá	716	San Marcos la Laguna 	11	San Marcos la laguna 	1	Enero	2023-03-01T00:00:00	2024-11-08T02:00:00	4	Temperatura máxima	15.8
168707	7	Sololá	716	San Marcos la Laguna 	11	San Marcos la laguna 	1	Enero	2023-03-01T00:00:00	2024-11-08T02:00:00	3	Temperatura mínima	14.9
168708	7	Sololá	716	San Marcos la Laguna 	11	San Marcos la laguna 	1	Enero	2023-03-01T00:00:00	2024-11-08T02:00:00	5	Humedad	82
168709	7	Sololá	716	San Marcos la Laguna 	11	San Marcos la laguna 	1	Enero	2023-03-01T00:00:00	2024-11-08T02:00:00	6	Velocidad del viento	8
168710	7	Sololá	716	San Marcos la Laguna 	11	San Marcos la laguna 	1	Enero	2023-03-01T00:00:00	2024-11-08T02:00:00	7	Dirección del viento	8.05
168711	7	Sololá	716	San Marcos la Laguna 	11	San Marcos la laguna 	1	Enero	2023-03-01T00:00:00	2024-11-08T02:00:00	1	Precipitación	0
168712	7	Sololá	716	San Marcos la Laguna 	11	San Marcos la laguna 	1	Enero	2023-03-01T00:00:00	2024-11-08T02:00:00	8	Radiación solar	0
168713	7	Sololá	716	San Marcos la Laguna 	11	San Marcos la laguna 	1	Enero	2023-03-01T00:00:00	2024-11-08T03:00:00	2	Temperatura media	14.3
168714	7	Sololá	716	San Marcos la Laguna 	11	San Marcos la laguna 	1	Enero	2023-03-01T00:00:00	2024-11-08T03:00:00	4	Temperatura máxima	15
168715	7	Sololá	716	San Marcos la Laguna 	11	San Marcos la laguna 	1	Enero	2023-03-01T00:00:00	2024-11-08T03:00:00	3	Temperatura mínima	14.3
168716	7	Sololá	716	San Marcos la Laguna 	11	San Marcos la laguna 	1	Enero	2023-03-01T00:00:00	2024-11-08T03:00:00	5	Humedad	85
168717	7	Sololá	716	San Marcos la Laguna 	11	San Marcos la laguna 	1	Enero	2023-03-01T00:00:00	2024-11-08T03:00:00	6	Velocidad del viento	6.4
168718	7	Sololá	716	San Marcos la Laguna 	11	San Marcos la laguna 	1	Enero	2023-03-01T00:00:00	2024-11-08T03:00:00	7	Dirección del viento	6.44
168719	7	Sololá	716	San Marcos la Laguna 	11	San Marcos la laguna 	1	Enero	2023-03-01T00:00:00	2024-11-08T03:00:00	1	Precipitación	0
168720	7	Sololá	716	San Marcos la Laguna 	11	San Marcos la laguna 	1	Enero	2023-03-01T00:00:00	2024-11-08T03:00:00	8	Radiación solar	0
168721	7	Sololá	716	San Marcos la Laguna 	11	San Marcos la laguna 	1	Enero	2023-03-01T00:00:00	2024-11-08T04:00:00	2	Temperatura media	13.9
168722	7	Sololá	716	San Marcos la Laguna 	11	San Marcos la laguna 	1	Enero	2023-03-01T00:00:00	2024-11-08T04:00:00	4	Temperatura máxima	14.3
168723	7	Sololá	716	San Marcos la Laguna 	11	San Marcos la laguna 	1	Enero	2023-03-01T00:00:00	2024-11-08T04:00:00	3	Temperatura mínima	13.8
168724	7	Sololá	716	San Marcos la Laguna 	11	San Marcos la laguna 	1	Enero	2023-03-01T00:00:00	2024-11-08T04:00:00	5	Humedad	87
168725	7	Sololá	716	San Marcos la Laguna 	11	San Marcos la laguna 	1	Enero	2023-03-01T00:00:00	2024-11-08T04:00:00	6	Velocidad del viento	6.4
168726	7	Sololá	716	San Marcos la Laguna 	11	San Marcos la laguna 	1	Enero	2023-03-01T00:00:00	2024-11-08T04:00:00	7	Dirección del viento	6.44
168727	7	Sololá	716	San Marcos la Laguna 	11	San Marcos la laguna 	1	Enero	2023-03-01T00:00:00	2024-11-08T04:00:00	1	Precipitación	0
168728	7	Sololá	716	San Marcos la Laguna 	11	San Marcos la laguna 	1	Enero	2023-03-01T00:00:00	2024-11-08T04:00:00	8	Radiación solar	0
168729	7	Sololá	716	San Marcos la Laguna 	11	San Marcos la laguna 	1	Enero	2023-03-01T00:00:00	2024-11-08T05:00:00	2	Temperatura media	13.6
168730	7	Sololá	716	San Marcos la Laguna 	11	San Marcos la laguna 	1	Enero	2023-03-01T00:00:00	2024-11-08T05:00:00	4	Temperatura máxima	13.9
168731	7	Sololá	716	San Marcos la Laguna 	11	San Marcos la laguna 	1	Enero	2023-03-01T00:00:00	2024-11-08T05:00:00	3	Temperatura mínima	13.4
168732	7	Sololá	716	San Marcos la Laguna 	11	San Marcos la laguna 	1	Enero	2023-03-01T00:00:00	2024-11-08T05:00:00	5	Humedad	88
168733	7	Sololá	716	San Marcos la Laguna 	11	San Marcos la laguna 	1	Enero	2023-03-01T00:00:00	2024-11-08T05:00:00	6	Velocidad del viento	6.4
168734	7	Sololá	716	San Marcos la Laguna 	11	San Marcos la laguna 	1	Enero	2023-03-01T00:00:00	2024-11-08T05:00:00	7	Dirección del viento	6.44
168735	7	Sololá	716	San Marcos la Laguna 	11	San Marcos la laguna 	1	Enero	2023-03-01T00:00:00	2024-11-08T05:00:00	1	Precipitación	0
168736	7	Sololá	716	San Marcos la Laguna 	11	San Marcos la laguna 	1	Enero	2023-03-01T00:00:00	2024-11-08T05:00:00	8	Radiación solar	0
168737	7	Sololá	716	San Marcos la Laguna 	11	San Marcos la laguna 	1	Enero	2023-03-01T00:00:00	2024-11-08T06:00:00	2	Temperatura media	13.1
168738	7	Sololá	716	San Marcos la Laguna 	11	San Marcos la laguna 	1	Enero	2023-03-01T00:00:00	2024-11-08T06:00:00	4	Temperatura máxima	13.6
168739	7	Sololá	716	San Marcos la Laguna 	11	San Marcos la laguna 	1	Enero	2023-03-01T00:00:00	2024-11-08T06:00:00	3	Temperatura mínima	13.1
168740	7	Sololá	716	San Marcos la Laguna 	11	San Marcos la laguna 	1	Enero	2023-03-01T00:00:00	2024-11-08T06:00:00	5	Humedad	87
168741	7	Sololá	716	San Marcos la Laguna 	11	San Marcos la laguna 	1	Enero	2023-03-01T00:00:00	2024-11-08T06:00:00	6	Velocidad del viento	6.4
168742	7	Sololá	716	San Marcos la Laguna 	11	San Marcos la laguna 	1	Enero	2023-03-01T00:00:00	2024-11-08T06:00:00	7	Dirección del viento	6.44
168743	7	Sololá	716	San Marcos la Laguna 	11	San Marcos la laguna 	1	Enero	2023-03-01T00:00:00	2024-11-08T06:00:00	1	Precipitación	0
168744	7	Sololá	716	San Marcos la Laguna 	11	San Marcos la laguna 	1	Enero	2023-03-01T00:00:00	2024-11-08T06:00:00	8	Radiación solar	0
168745	7	Sololá	716	San Marcos la Laguna 	11	San Marcos la laguna 	1	Enero	2023-03-01T00:00:00	2024-11-08T07:00:00	2	Temperatura media	12.9
168746	7	Sololá	716	San Marcos la Laguna 	11	San Marcos la laguna 	1	Enero	2023-03-01T00:00:00	2024-11-08T07:00:00	4	Temperatura máxima	13.1
168747	7	Sololá	716	San Marcos la Laguna 	11	San Marcos la laguna 	1	Enero	2023-03-01T00:00:00	2024-11-08T07:00:00	3	Temperatura mínima	12.7
168748	7	Sololá	716	San Marcos la Laguna 	11	San Marcos la laguna 	1	Enero	2023-03-01T00:00:00	2024-11-08T07:00:00	5	Humedad	86
168749	7	Sololá	716	San Marcos la Laguna 	11	San Marcos la laguna 	1	Enero	2023-03-01T00:00:00	2024-11-08T07:00:00	6	Velocidad del viento	6.4
168750	7	Sololá	716	San Marcos la Laguna 	11	San Marcos la laguna 	1	Enero	2023-03-01T00:00:00	2024-11-08T07:00:00	7	Dirección del viento	6.44
168751	7	Sololá	716	San Marcos la Laguna 	11	San Marcos la laguna 	1	Enero	2023-03-01T00:00:00	2024-11-08T07:00:00	1	Precipitación	0
168752	7	Sololá	716	San Marcos la Laguna 	11	San Marcos la laguna 	1	Enero	2023-03-01T00:00:00	2024-11-08T07:00:00	8	Radiación solar	6
168753	7	Sololá	716	San Marcos la Laguna 	11	San Marcos la laguna 	1	Enero	2023-03-01T00:00:00	2024-11-08T08:00:00	2	Temperatura media	15.9
168754	7	Sololá	716	San Marcos la Laguna 	11	San Marcos la laguna 	1	Enero	2023-03-01T00:00:00	2024-11-08T08:00:00	4	Temperatura máxima	15.9
168755	7	Sololá	716	San Marcos la Laguna 	11	San Marcos la laguna 	1	Enero	2023-03-01T00:00:00	2024-11-08T08:00:00	3	Temperatura mínima	12.9
168756	7	Sololá	716	San Marcos la Laguna 	11	San Marcos la laguna 	1	Enero	2023-03-01T00:00:00	2024-11-08T08:00:00	5	Humedad	78
168757	7	Sololá	716	San Marcos la Laguna 	11	San Marcos la laguna 	1	Enero	2023-03-01T00:00:00	2024-11-08T08:00:00	6	Velocidad del viento	4.8
168758	7	Sololá	716	San Marcos la Laguna 	11	San Marcos la laguna 	1	Enero	2023-03-01T00:00:00	2024-11-08T08:00:00	7	Dirección del viento	4.83
168759	7	Sololá	716	San Marcos la Laguna 	11	San Marcos la laguna 	1	Enero	2023-03-01T00:00:00	2024-11-08T08:00:00	1	Precipitación	0
168760	7	Sololá	716	San Marcos la Laguna 	11	San Marcos la laguna 	1	Enero	2023-03-01T00:00:00	2024-11-08T08:00:00	8	Radiación solar	95
168761	7	Sololá	716	San Marcos la Laguna 	11	San Marcos la laguna 	1	Enero	2023-03-01T00:00:00	2024-11-08T09:00:00	2	Temperatura media	17.9
168762	7	Sololá	716	San Marcos la Laguna 	11	San Marcos la laguna 	1	Enero	2023-03-01T00:00:00	2024-11-08T09:00:00	4	Temperatura máxima	17.9
168763	7	Sololá	716	San Marcos la Laguna 	11	San Marcos la laguna 	1	Enero	2023-03-01T00:00:00	2024-11-08T09:00:00	3	Temperatura mínima	15.9
168764	7	Sololá	716	San Marcos la Laguna 	11	San Marcos la laguna 	1	Enero	2023-03-01T00:00:00	2024-11-08T09:00:00	5	Humedad	79
168765	7	Sololá	716	San Marcos la Laguna 	11	San Marcos la laguna 	1	Enero	2023-03-01T00:00:00	2024-11-08T09:00:00	6	Velocidad del viento	1.6
168766	7	Sololá	716	San Marcos la Laguna 	11	San Marcos la laguna 	1	Enero	2023-03-01T00:00:00	2024-11-08T09:00:00	7	Dirección del viento	1.61
168767	7	Sololá	716	San Marcos la Laguna 	11	San Marcos la laguna 	1	Enero	2023-03-01T00:00:00	2024-11-08T09:00:00	1	Precipitación	0
168768	7	Sololá	716	San Marcos la Laguna 	11	San Marcos la laguna 	1	Enero	2023-03-01T00:00:00	2024-11-08T09:00:00	8	Radiación solar	213
168769	7	Sololá	716	San Marcos la Laguna 	11	San Marcos la laguna 	1	Enero	2023-03-01T00:00:00	2024-11-08T10:00:00	2	Temperatura media	19.1
168770	7	Sololá	716	San Marcos la Laguna 	11	San Marcos la laguna 	1	Enero	2023-03-01T00:00:00	2024-11-08T10:00:00	4	Temperatura máxima	19.1
168771	7	Sololá	716	San Marcos la Laguna 	11	San Marcos la laguna 	1	Enero	2023-03-01T00:00:00	2024-11-08T10:00:00	3	Temperatura mínima	17.9
168772	7	Sololá	716	San Marcos la Laguna 	11	San Marcos la laguna 	1	Enero	2023-03-01T00:00:00	2024-11-08T10:00:00	5	Humedad	76
168773	7	Sololá	716	San Marcos la Laguna 	11	San Marcos la laguna 	1	Enero	2023-03-01T00:00:00	2024-11-08T10:00:00	6	Velocidad del viento	3.2
168774	7	Sololá	716	San Marcos la Laguna 	11	San Marcos la laguna 	1	Enero	2023-03-01T00:00:00	2024-11-08T10:00:00	7	Dirección del viento	3.22
168775	7	Sololá	716	San Marcos la Laguna 	11	San Marcos la laguna 	1	Enero	2023-03-01T00:00:00	2024-11-08T10:00:00	1	Precipitación	0
168776	7	Sololá	716	San Marcos la Laguna 	11	San Marcos la laguna 	1	Enero	2023-03-01T00:00:00	2024-11-08T10:00:00	8	Radiación solar	431
168777	7	Sololá	716	San Marcos la Laguna 	11	San Marcos la laguna 	1	Enero	2023-03-01T00:00:00	2024-11-08T11:00:00	2	Temperatura media	19.7
168778	7	Sololá	716	San Marcos la Laguna 	11	San Marcos la laguna 	1	Enero	2023-03-01T00:00:00	2024-11-08T11:00:00	4	Temperatura máxima	19.7
168779	7	Sololá	716	San Marcos la Laguna 	11	San Marcos la laguna 	1	Enero	2023-03-01T00:00:00	2024-11-08T11:00:00	3	Temperatura mínima	19.1
168780	7	Sololá	716	San Marcos la Laguna 	11	San Marcos la laguna 	1	Enero	2023-03-01T00:00:00	2024-11-08T11:00:00	5	Humedad	75
168781	7	Sololá	716	San Marcos la Laguna 	11	San Marcos la laguna 	1	Enero	2023-03-01T00:00:00	2024-11-08T11:00:00	6	Velocidad del viento	3.2
168782	7	Sololá	716	San Marcos la Laguna 	11	San Marcos la laguna 	1	Enero	2023-03-01T00:00:00	2024-11-08T11:00:00	7	Dirección del viento	3.22
168783	7	Sololá	716	San Marcos la Laguna 	11	San Marcos la laguna 	1	Enero	2023-03-01T00:00:00	2024-11-08T11:00:00	1	Precipitación	0
168784	7	Sololá	716	San Marcos la Laguna 	11	San Marcos la laguna 	1	Enero	2023-03-01T00:00:00	2024-11-08T11:00:00	8	Radiación solar	503
168785	7	Sololá	716	San Marcos la Laguna 	11	San Marcos la laguna 	1	Enero	2023-03-01T00:00:00	2024-11-08T12:00:00	2	Temperatura media	20
168786	7	Sololá	716	San Marcos la Laguna 	11	San Marcos la laguna 	1	Enero	2023-03-01T00:00:00	2024-11-08T12:00:00	4	Temperatura máxima	20.1
168787	7	Sololá	716	San Marcos la Laguna 	11	San Marcos la laguna 	1	Enero	2023-03-01T00:00:00	2024-11-08T12:00:00	3	Temperatura mínima	19.4
168788	7	Sololá	716	San Marcos la Laguna 	11	San Marcos la laguna 	1	Enero	2023-03-01T00:00:00	2024-11-08T12:00:00	5	Humedad	70
168789	7	Sololá	716	San Marcos la Laguna 	11	San Marcos la laguna 	1	Enero	2023-03-01T00:00:00	2024-11-08T12:00:00	6	Velocidad del viento	3.2
168790	7	Sololá	716	San Marcos la Laguna 	11	San Marcos la laguna 	1	Enero	2023-03-01T00:00:00	2024-11-08T12:00:00	7	Dirección del viento	3.22
168791	7	Sololá	716	San Marcos la Laguna 	11	San Marcos la laguna 	1	Enero	2023-03-01T00:00:00	2024-11-08T12:00:00	1	Precipitación	0
168792	7	Sololá	716	San Marcos la Laguna 	11	San Marcos la laguna 	1	Enero	2023-03-01T00:00:00	2024-11-08T12:00:00	8	Radiación solar	362
168793	7	Sololá	716	San Marcos la Laguna 	11	San Marcos la laguna 	1	Enero	2023-03-01T00:00:00	2024-11-08T13:00:00	2	Temperatura media	20.6
168794	7	Sololá	716	San Marcos la Laguna 	11	San Marcos la laguna 	1	Enero	2023-03-01T00:00:00	2024-11-08T13:00:00	4	Temperatura máxima	21.1
168795	7	Sololá	716	San Marcos la Laguna 	11	San Marcos la laguna 	1	Enero	2023-03-01T00:00:00	2024-11-08T13:00:00	3	Temperatura mínima	19.9
168796	7	Sololá	716	San Marcos la Laguna 	11	San Marcos la laguna 	1	Enero	2023-03-01T00:00:00	2024-11-08T13:00:00	5	Humedad	72
168797	7	Sololá	716	San Marcos la Laguna 	11	San Marcos la laguna 	1	Enero	2023-03-01T00:00:00	2024-11-08T13:00:00	6	Velocidad del viento	8
168798	7	Sololá	716	San Marcos la Laguna 	11	San Marcos la laguna 	1	Enero	2023-03-01T00:00:00	2024-11-08T13:00:00	7	Dirección del viento	8.05
168799	7	Sololá	716	San Marcos la Laguna 	11	San Marcos la laguna 	1	Enero	2023-03-01T00:00:00	2024-11-08T13:00:00	1	Precipitación	0
168800	7	Sololá	716	San Marcos la Laguna 	11	San Marcos la laguna 	1	Enero	2023-03-01T00:00:00	2024-11-08T13:00:00	8	Radiación solar	595
168801	7	Sololá	716	San Marcos la Laguna 	11	San Marcos la laguna 	1	Enero	2023-03-01T00:00:00	2024-11-08T14:00:00	2	Temperatura media	21.1
168802	7	Sololá	716	San Marcos la Laguna 	11	San Marcos la laguna 	1	Enero	2023-03-01T00:00:00	2024-11-08T14:00:00	4	Temperatura máxima	21.5
168803	7	Sololá	716	San Marcos la Laguna 	11	San Marcos la laguna 	1	Enero	2023-03-01T00:00:00	2024-11-08T14:00:00	3	Temperatura mínima	20.6
168804	7	Sololá	716	San Marcos la Laguna 	11	San Marcos la laguna 	1	Enero	2023-03-01T00:00:00	2024-11-08T14:00:00	5	Humedad	72
168805	7	Sololá	716	San Marcos la Laguna 	11	San Marcos la laguna 	1	Enero	2023-03-01T00:00:00	2024-11-08T14:00:00	6	Velocidad del viento	8
168806	7	Sololá	716	San Marcos la Laguna 	11	San Marcos la laguna 	1	Enero	2023-03-01T00:00:00	2024-11-08T14:00:00	7	Dirección del viento	8.05
168807	7	Sololá	716	San Marcos la Laguna 	11	San Marcos la laguna 	1	Enero	2023-03-01T00:00:00	2024-11-08T14:00:00	1	Precipitación	0
168808	7	Sololá	716	San Marcos la Laguna 	11	San Marcos la laguna 	1	Enero	2023-03-01T00:00:00	2024-11-08T14:00:00	8	Radiación solar	681
168809	7	Sololá	716	San Marcos la Laguna 	11	San Marcos la laguna 	1	Enero	2023-03-01T00:00:00	2024-11-08T15:00:00	2	Temperatura media	21.7
168810	7	Sololá	716	San Marcos la Laguna 	11	San Marcos la laguna 	1	Enero	2023-03-01T00:00:00	2024-11-08T15:00:00	4	Temperatura máxima	21.9
168811	7	Sololá	716	San Marcos la Laguna 	11	San Marcos la laguna 	1	Enero	2023-03-01T00:00:00	2024-11-08T15:00:00	3	Temperatura mínima	20.8
168812	7	Sololá	716	San Marcos la Laguna 	11	San Marcos la laguna 	1	Enero	2023-03-01T00:00:00	2024-11-08T15:00:00	5	Humedad	70
168813	7	Sololá	716	San Marcos la Laguna 	11	San Marcos la laguna 	1	Enero	2023-03-01T00:00:00	2024-11-08T15:00:00	6	Velocidad del viento	9.7
168814	7	Sololá	716	San Marcos la Laguna 	11	San Marcos la laguna 	1	Enero	2023-03-01T00:00:00	2024-11-08T15:00:00	7	Dirección del viento	9.66
168815	7	Sololá	716	San Marcos la Laguna 	11	San Marcos la laguna 	1	Enero	2023-03-01T00:00:00	2024-11-08T15:00:00	1	Precipitación	0
168816	7	Sololá	716	San Marcos la Laguna 	11	San Marcos la laguna 	1	Enero	2023-03-01T00:00:00	2024-11-08T15:00:00	8	Radiación solar	571
168817	7	Sololá	716	San Marcos la Laguna 	11	San Marcos la laguna 	1	Enero	2023-03-01T00:00:00	2024-11-08T16:00:00	2	Temperatura media	21.6
168818	7	Sololá	716	San Marcos la Laguna 	11	San Marcos la laguna 	1	Enero	2023-03-01T00:00:00	2024-11-08T16:00:00	4	Temperatura máxima	21.7
168819	7	Sololá	716	San Marcos la Laguna 	11	San Marcos la laguna 	1	Enero	2023-03-01T00:00:00	2024-11-08T16:00:00	3	Temperatura mínima	21.2
168820	7	Sololá	716	San Marcos la Laguna 	11	San Marcos la laguna 	1	Enero	2023-03-01T00:00:00	2024-11-08T16:00:00	5	Humedad	73
168821	7	Sololá	716	San Marcos la Laguna 	11	San Marcos la laguna 	1	Enero	2023-03-01T00:00:00	2024-11-08T16:00:00	6	Velocidad del viento	11.3
168822	7	Sololá	716	San Marcos la Laguna 	11	San Marcos la laguna 	1	Enero	2023-03-01T00:00:00	2024-11-08T16:00:00	7	Dirección del viento	11.27
168823	7	Sololá	716	San Marcos la Laguna 	11	San Marcos la laguna 	1	Enero	2023-03-01T00:00:00	2024-11-08T16:00:00	1	Precipitación	0
168824	7	Sololá	716	San Marcos la Laguna 	11	San Marcos la laguna 	1	Enero	2023-03-01T00:00:00	2024-11-08T16:00:00	8	Radiación solar	399
168825	7	Sololá	716	San Marcos la Laguna 	11	San Marcos la laguna 	1	Enero	2023-03-01T00:00:00	2024-11-08T17:00:00	2	Temperatura media	20.4
168826	7	Sololá	716	San Marcos la Laguna 	11	San Marcos la laguna 	1	Enero	2023-03-01T00:00:00	2024-11-08T17:00:00	4	Temperatura máxima	21.9
168827	7	Sololá	716	San Marcos la Laguna 	11	San Marcos la laguna 	1	Enero	2023-03-01T00:00:00	2024-11-08T17:00:00	3	Temperatura mínima	20.4
168828	7	Sololá	716	San Marcos la Laguna 	11	San Marcos la laguna 	1	Enero	2023-03-01T00:00:00	2024-11-08T17:00:00	5	Humedad	81
168829	7	Sololá	716	San Marcos la Laguna 	11	San Marcos la laguna 	1	Enero	2023-03-01T00:00:00	2024-11-08T17:00:00	6	Velocidad del viento	8
168830	7	Sololá	716	San Marcos la Laguna 	11	San Marcos la laguna 	1	Enero	2023-03-01T00:00:00	2024-11-08T17:00:00	7	Dirección del viento	8.05
168831	7	Sololá	716	San Marcos la Laguna 	11	San Marcos la laguna 	1	Enero	2023-03-01T00:00:00	2024-11-08T17:00:00	1	Precipitación	0
168832	7	Sololá	716	San Marcos la Laguna 	11	San Marcos la laguna 	1	Enero	2023-03-01T00:00:00	2024-11-08T17:00:00	8	Radiación solar	160
168833	7	Sololá	716	San Marcos la Laguna 	11	San Marcos la laguna 	1	Enero	2023-03-01T00:00:00	2024-11-08T18:00:00	2	Temperatura media	19.4
168834	7	Sololá	716	San Marcos la Laguna 	11	San Marcos la laguna 	1	Enero	2023-03-01T00:00:00	2024-11-08T18:00:00	4	Temperatura máxima	20.4
168835	7	Sololá	716	San Marcos la Laguna 	11	San Marcos la laguna 	1	Enero	2023-03-01T00:00:00	2024-11-08T18:00:00	3	Temperatura mínima	19.4
168836	7	Sololá	716	San Marcos la Laguna 	11	San Marcos la laguna 	1	Enero	2023-03-01T00:00:00	2024-11-08T18:00:00	5	Humedad	86
168837	7	Sololá	716	San Marcos la Laguna 	11	San Marcos la laguna 	1	Enero	2023-03-01T00:00:00	2024-11-08T18:00:00	6	Velocidad del viento	6.4
168838	7	Sololá	716	San Marcos la Laguna 	11	San Marcos la laguna 	1	Enero	2023-03-01T00:00:00	2024-11-08T18:00:00	7	Dirección del viento	6.44
168839	7	Sololá	716	San Marcos la Laguna 	11	San Marcos la laguna 	1	Enero	2023-03-01T00:00:00	2024-11-08T18:00:00	1	Precipitación	0
168840	7	Sololá	716	San Marcos la Laguna 	11	San Marcos la laguna 	1	Enero	2023-03-01T00:00:00	2024-11-08T18:00:00	8	Radiación solar	16
168841	7	Sololá	716	San Marcos la Laguna 	11	San Marcos la laguna 	1	Enero	2023-03-01T00:00:00	2024-11-08T19:00:00	2	Temperatura media	18.4
168842	7	Sololá	716	San Marcos la Laguna 	11	San Marcos la laguna 	1	Enero	2023-03-01T00:00:00	2024-11-08T19:00:00	4	Temperatura máxima	19.4
168843	7	Sololá	716	San Marcos la Laguna 	11	San Marcos la laguna 	1	Enero	2023-03-01T00:00:00	2024-11-08T19:00:00	3	Temperatura mínima	18.4
168844	7	Sololá	716	San Marcos la Laguna 	11	San Marcos la laguna 	1	Enero	2023-03-01T00:00:00	2024-11-08T19:00:00	5	Humedad	87
168845	7	Sololá	716	San Marcos la Laguna 	11	San Marcos la laguna 	1	Enero	2023-03-01T00:00:00	2024-11-08T19:00:00	6	Velocidad del viento	1.6
168846	7	Sololá	716	San Marcos la Laguna 	11	San Marcos la laguna 	1	Enero	2023-03-01T00:00:00	2024-11-08T19:00:00	7	Dirección del viento	1.61
168847	7	Sololá	716	San Marcos la Laguna 	11	San Marcos la laguna 	1	Enero	2023-03-01T00:00:00	2024-11-08T19:00:00	1	Precipitación	0
168848	7	Sololá	716	San Marcos la Laguna 	11	San Marcos la laguna 	1	Enero	2023-03-01T00:00:00	2024-11-08T19:00:00	8	Radiación solar	0
168849	7	Sololá	716	San Marcos la Laguna 	11	San Marcos la laguna 	1	Enero	2023-03-01T00:00:00	2024-11-08T20:00:00	2	Temperatura media	18.1
168850	7	Sololá	716	San Marcos la Laguna 	11	San Marcos la laguna 	1	Enero	2023-03-01T00:00:00	2024-11-08T20:00:00	4	Temperatura máxima	18.4
168851	7	Sololá	716	San Marcos la Laguna 	11	San Marcos la laguna 	1	Enero	2023-03-01T00:00:00	2024-11-08T20:00:00	3	Temperatura mínima	17.7
168852	7	Sololá	716	San Marcos la Laguna 	11	San Marcos la laguna 	1	Enero	2023-03-01T00:00:00	2024-11-08T20:00:00	5	Humedad	86
168853	7	Sololá	716	San Marcos la Laguna 	11	San Marcos la laguna 	1	Enero	2023-03-01T00:00:00	2024-11-08T20:00:00	6	Velocidad del viento	3.2
168854	7	Sololá	716	San Marcos la Laguna 	11	San Marcos la laguna 	1	Enero	2023-03-01T00:00:00	2024-11-08T20:00:00	7	Dirección del viento	3.22
168855	7	Sololá	716	San Marcos la Laguna 	11	San Marcos la laguna 	1	Enero	2023-03-01T00:00:00	2024-11-08T20:00:00	1	Precipitación	0
168856	7	Sololá	716	San Marcos la Laguna 	11	San Marcos la laguna 	1	Enero	2023-03-01T00:00:00	2024-11-08T20:00:00	8	Radiación solar	0
168857	7	Sololá	716	San Marcos la Laguna 	11	San Marcos la laguna 	1	Enero	2023-03-01T00:00:00	2024-11-08T21:00:00	2	Temperatura media	17.3
168858	7	Sololá	716	San Marcos la Laguna 	11	San Marcos la laguna 	1	Enero	2023-03-01T00:00:00	2024-11-08T21:00:00	4	Temperatura máxima	18.1
168859	7	Sololá	716	San Marcos la Laguna 	11	San Marcos la laguna 	1	Enero	2023-03-01T00:00:00	2024-11-08T21:00:00	3	Temperatura mínima	17.3
168860	7	Sololá	716	San Marcos la Laguna 	11	San Marcos la laguna 	1	Enero	2023-03-01T00:00:00	2024-11-08T21:00:00	5	Humedad	87
168861	7	Sololá	716	San Marcos la Laguna 	11	San Marcos la laguna 	1	Enero	2023-03-01T00:00:00	2024-11-08T21:00:00	6	Velocidad del viento	3.2
168862	7	Sololá	716	San Marcos la Laguna 	11	San Marcos la laguna 	1	Enero	2023-03-01T00:00:00	2024-11-08T21:00:00	7	Dirección del viento	3.22
168863	7	Sololá	716	San Marcos la Laguna 	11	San Marcos la laguna 	1	Enero	2023-03-01T00:00:00	2024-11-08T21:00:00	1	Precipitación	0
168864	7	Sololá	716	San Marcos la Laguna 	11	San Marcos la laguna 	1	Enero	2023-03-01T00:00:00	2024-11-08T21:00:00	8	Radiación solar	0
168865	7	Sololá	716	San Marcos la Laguna 	11	San Marcos la laguna 	1	Enero	2023-03-01T00:00:00	2024-11-08T22:00:00	2	Temperatura media	17.6
168866	7	Sololá	716	San Marcos la Laguna 	11	San Marcos la laguna 	1	Enero	2023-03-01T00:00:00	2024-11-08T22:00:00	4	Temperatura máxima	17.7
168867	7	Sololá	716	San Marcos la Laguna 	11	San Marcos la laguna 	1	Enero	2023-03-01T00:00:00	2024-11-08T22:00:00	3	Temperatura mínima	17.1
168868	7	Sololá	716	San Marcos la Laguna 	11	San Marcos la laguna 	1	Enero	2023-03-01T00:00:00	2024-11-08T22:00:00	5	Humedad	85
168869	7	Sololá	716	San Marcos la Laguna 	11	San Marcos la laguna 	1	Enero	2023-03-01T00:00:00	2024-11-08T22:00:00	6	Velocidad del viento	4.8
168870	7	Sololá	716	San Marcos la Laguna 	11	San Marcos la laguna 	1	Enero	2023-03-01T00:00:00	2024-11-08T22:00:00	7	Dirección del viento	4.83
168871	7	Sololá	716	San Marcos la Laguna 	11	San Marcos la laguna 	1	Enero	2023-03-01T00:00:00	2024-11-08T22:00:00	1	Precipitación	0
168872	7	Sololá	716	San Marcos la Laguna 	11	San Marcos la laguna 	1	Enero	2023-03-01T00:00:00	2024-11-08T22:00:00	8	Radiación solar	0
168873	7	Sololá	716	San Marcos la Laguna 	11	San Marcos la laguna 	1	Enero	2023-03-01T00:00:00	2024-11-08T23:00:00	2	Temperatura media	16.5
168874	7	Sololá	716	San Marcos la Laguna 	11	San Marcos la laguna 	1	Enero	2023-03-01T00:00:00	2024-11-08T23:00:00	4	Temperatura máxima	17.6
168875	7	Sololá	716	San Marcos la Laguna 	11	San Marcos la laguna 	1	Enero	2023-03-01T00:00:00	2024-11-08T23:00:00	3	Temperatura mínima	16.5
168876	7	Sololá	716	San Marcos la Laguna 	11	San Marcos la laguna 	1	Enero	2023-03-01T00:00:00	2024-11-08T23:00:00	5	Humedad	87
168877	7	Sololá	716	San Marcos la Laguna 	11	San Marcos la laguna 	1	Enero	2023-03-01T00:00:00	2024-11-08T23:00:00	6	Velocidad del viento	4.8
168878	7	Sololá	716	San Marcos la Laguna 	11	San Marcos la laguna 	1	Enero	2023-03-01T00:00:00	2024-11-08T23:00:00	7	Dirección del viento	4.83
168879	7	Sololá	716	San Marcos la Laguna 	11	San Marcos la laguna 	1	Enero	2023-03-01T00:00:00	2024-11-08T23:00:00	1	Precipitación	0
168880	7	Sololá	716	San Marcos la Laguna 	11	San Marcos la laguna 	1	Enero	2023-03-01T00:00:00	2024-11-08T23:00:00	8	Radiación solar	0
168881	7	Sololá	716	San Marcos la Laguna 	11	San Marcos la laguna 	1	Enero	2023-04-01T00:00:00	2024-11-08T00:00:00	2	Temperatura media	16.6
168882	7	Sololá	716	San Marcos la Laguna 	11	San Marcos la laguna 	1	Enero	2023-04-01T00:00:00	2024-11-08T00:00:00	4	Temperatura máxima	16.8
168883	7	Sololá	716	San Marcos la Laguna 	11	San Marcos la laguna 	1	Enero	2023-04-01T00:00:00	2024-11-08T00:00:00	3	Temperatura mínima	16.4
168884	7	Sololá	716	San Marcos la Laguna 	11	San Marcos la laguna 	1	Enero	2023-04-01T00:00:00	2024-11-08T00:00:00	5	Humedad	89
168885	7	Sololá	716	San Marcos la Laguna 	11	San Marcos la laguna 	1	Enero	2023-04-01T00:00:00	2024-11-08T00:00:00	6	Velocidad del viento	4.8
168886	7	Sololá	716	San Marcos la Laguna 	11	San Marcos la laguna 	1	Enero	2023-04-01T00:00:00	2024-11-08T00:00:00	7	Dirección del viento	4.83
168887	7	Sololá	716	San Marcos la Laguna 	11	San Marcos la laguna 	1	Enero	2023-04-01T00:00:00	2024-11-08T00:00:00	1	Precipitación	0
168888	7	Sololá	716	San Marcos la Laguna 	11	San Marcos la laguna 	1	Enero	2023-04-01T00:00:00	2024-11-08T00:00:00	8	Radiación solar	0
168889	7	Sololá	716	San Marcos la Laguna 	11	San Marcos la laguna 	1	Enero	2023-04-01T00:00:00	2024-11-08T01:00:00	2	Temperatura media	16.8
168890	7	Sololá	716	San Marcos la Laguna 	11	San Marcos la laguna 	1	Enero	2023-04-01T00:00:00	2024-11-08T01:00:00	4	Temperatura máxima	16.9
168891	7	Sololá	716	San Marcos la Laguna 	11	San Marcos la laguna 	1	Enero	2023-04-01T00:00:00	2024-11-08T01:00:00	3	Temperatura mínima	16.1
168892	7	Sololá	716	San Marcos la Laguna 	11	San Marcos la laguna 	1	Enero	2023-04-01T00:00:00	2024-11-08T01:00:00	5	Humedad	84
168893	7	Sololá	716	San Marcos la Laguna 	11	San Marcos la laguna 	1	Enero	2023-04-01T00:00:00	2024-11-08T01:00:00	6	Velocidad del viento	6.4
168894	7	Sololá	716	San Marcos la Laguna 	11	San Marcos la laguna 	1	Enero	2023-04-01T00:00:00	2024-11-08T01:00:00	7	Dirección del viento	6.44
168895	7	Sololá	716	San Marcos la Laguna 	11	San Marcos la laguna 	1	Enero	2023-04-01T00:00:00	2024-11-08T01:00:00	1	Precipitación	0
168896	7	Sololá	716	San Marcos la Laguna 	11	San Marcos la laguna 	1	Enero	2023-04-01T00:00:00	2024-11-08T01:00:00	8	Radiación solar	0
168897	7	Sololá	716	San Marcos la Laguna 	11	San Marcos la laguna 	1	Enero	2023-04-01T00:00:00	2024-11-08T02:00:00	2	Temperatura media	15.4
168898	7	Sololá	716	San Marcos la Laguna 	11	San Marcos la laguna 	1	Enero	2023-04-01T00:00:00	2024-11-08T02:00:00	4	Temperatura máxima	16.9
168899	7	Sololá	716	San Marcos la Laguna 	11	San Marcos la laguna 	1	Enero	2023-04-01T00:00:00	2024-11-08T02:00:00	3	Temperatura mínima	15.4
168900	7	Sololá	716	San Marcos la Laguna 	11	San Marcos la laguna 	1	Enero	2023-04-01T00:00:00	2024-11-08T02:00:00	5	Humedad	88
168901	7	Sololá	716	San Marcos la Laguna 	11	San Marcos la laguna 	1	Enero	2023-04-01T00:00:00	2024-11-08T02:00:00	6	Velocidad del viento	4.8
168902	7	Sololá	716	San Marcos la Laguna 	11	San Marcos la laguna 	1	Enero	2023-04-01T00:00:00	2024-11-08T02:00:00	7	Dirección del viento	4.83
168903	7	Sololá	716	San Marcos la Laguna 	11	San Marcos la laguna 	1	Enero	2023-04-01T00:00:00	2024-11-08T02:00:00	1	Precipitación	0
168904	7	Sololá	716	San Marcos la Laguna 	11	San Marcos la laguna 	1	Enero	2023-04-01T00:00:00	2024-11-08T02:00:00	8	Radiación solar	0
168905	7	Sololá	716	San Marcos la Laguna 	11	San Marcos la laguna 	1	Enero	2023-04-01T00:00:00	2024-11-08T03:00:00	2	Temperatura media	15.1
168906	7	Sololá	716	San Marcos la Laguna 	11	San Marcos la laguna 	1	Enero	2023-04-01T00:00:00	2024-11-08T03:00:00	4	Temperatura máxima	15.5
168907	7	Sololá	716	San Marcos la Laguna 	11	San Marcos la laguna 	1	Enero	2023-04-01T00:00:00	2024-11-08T03:00:00	3	Temperatura mínima	15
168908	7	Sololá	716	San Marcos la Laguna 	11	San Marcos la laguna 	1	Enero	2023-04-01T00:00:00	2024-11-08T03:00:00	5	Humedad	87
168909	7	Sololá	716	San Marcos la Laguna 	11	San Marcos la laguna 	1	Enero	2023-04-01T00:00:00	2024-11-08T03:00:00	6	Velocidad del viento	6.4
168910	7	Sololá	716	San Marcos la Laguna 	11	San Marcos la laguna 	1	Enero	2023-04-01T00:00:00	2024-11-08T03:00:00	7	Dirección del viento	6.44
168911	7	Sololá	716	San Marcos la Laguna 	11	San Marcos la laguna 	1	Enero	2023-04-01T00:00:00	2024-11-08T03:00:00	1	Precipitación	0
168912	7	Sololá	716	San Marcos la Laguna 	11	San Marcos la laguna 	1	Enero	2023-04-01T00:00:00	2024-11-08T03:00:00	8	Radiación solar	0
168913	7	Sololá	716	San Marcos la Laguna 	11	San Marcos la laguna 	1	Enero	2023-04-01T00:00:00	2024-11-08T04:00:00	2	Temperatura media	15
168914	7	Sololá	716	San Marcos la Laguna 	11	San Marcos la laguna 	1	Enero	2023-04-01T00:00:00	2024-11-08T04:00:00	4	Temperatura máxima	15.6
168915	7	Sololá	716	San Marcos la Laguna 	11	San Marcos la laguna 	1	Enero	2023-04-01T00:00:00	2024-11-08T04:00:00	3	Temperatura mínima	14.7
168916	7	Sololá	716	San Marcos la Laguna 	11	San Marcos la laguna 	1	Enero	2023-04-01T00:00:00	2024-11-08T04:00:00	5	Humedad	87
168917	7	Sololá	716	San Marcos la Laguna 	11	San Marcos la laguna 	1	Enero	2023-04-01T00:00:00	2024-11-08T04:00:00	6	Velocidad del viento	6.4
168918	7	Sololá	716	San Marcos la Laguna 	11	San Marcos la laguna 	1	Enero	2023-04-01T00:00:00	2024-11-08T04:00:00	7	Dirección del viento	6.44
168919	7	Sololá	716	San Marcos la Laguna 	11	San Marcos la laguna 	1	Enero	2023-04-01T00:00:00	2024-11-08T04:00:00	1	Precipitación	0
168920	7	Sololá	716	San Marcos la Laguna 	11	San Marcos la laguna 	1	Enero	2023-04-01T00:00:00	2024-11-08T04:00:00	8	Radiación solar	0
168921	7	Sololá	716	San Marcos la Laguna 	11	San Marcos la laguna 	1	Enero	2023-04-01T00:00:00	2024-11-08T05:00:00	2	Temperatura media	14.1
168922	7	Sololá	716	San Marcos la Laguna 	11	San Marcos la laguna 	1	Enero	2023-04-01T00:00:00	2024-11-08T05:00:00	4	Temperatura máxima	15.2
168923	7	Sololá	716	San Marcos la Laguna 	11	San Marcos la laguna 	1	Enero	2023-04-01T00:00:00	2024-11-08T05:00:00	3	Temperatura mínima	14.1
168924	7	Sololá	716	San Marcos la Laguna 	11	San Marcos la laguna 	1	Enero	2023-04-01T00:00:00	2024-11-08T05:00:00	5	Humedad	87
168925	7	Sololá	716	San Marcos la Laguna 	11	San Marcos la laguna 	1	Enero	2023-04-01T00:00:00	2024-11-08T05:00:00	6	Velocidad del viento	6.4
168926	7	Sololá	716	San Marcos la Laguna 	11	San Marcos la laguna 	1	Enero	2023-04-01T00:00:00	2024-11-08T05:00:00	7	Dirección del viento	6.44
168927	7	Sololá	716	San Marcos la Laguna 	11	San Marcos la laguna 	1	Enero	2023-04-01T00:00:00	2024-11-08T05:00:00	1	Precipitación	0
168928	7	Sololá	716	San Marcos la Laguna 	11	San Marcos la laguna 	1	Enero	2023-04-01T00:00:00	2024-11-08T05:00:00	8	Radiación solar	0
168929	7	Sololá	716	San Marcos la Laguna 	11	San Marcos la laguna 	1	Enero	2023-04-01T00:00:00	2024-11-08T06:00:00	2	Temperatura media	13.7
168930	7	Sololá	716	San Marcos la Laguna 	11	San Marcos la laguna 	1	Enero	2023-04-01T00:00:00	2024-11-08T06:00:00	4	Temperatura máxima	14.3
168931	7	Sololá	716	San Marcos la Laguna 	11	San Marcos la laguna 	1	Enero	2023-04-01T00:00:00	2024-11-08T06:00:00	3	Temperatura mínima	13.7
168932	7	Sololá	716	San Marcos la Laguna 	11	San Marcos la laguna 	1	Enero	2023-04-01T00:00:00	2024-11-08T06:00:00	5	Humedad	90
168933	7	Sololá	716	San Marcos la Laguna 	11	San Marcos la laguna 	1	Enero	2023-04-01T00:00:00	2024-11-08T06:00:00	6	Velocidad del viento	6.4
168934	7	Sololá	716	San Marcos la Laguna 	11	San Marcos la laguna 	1	Enero	2023-04-01T00:00:00	2024-11-08T06:00:00	7	Dirección del viento	6.44
168935	7	Sololá	716	San Marcos la Laguna 	11	San Marcos la laguna 	1	Enero	2023-04-01T00:00:00	2024-11-08T06:00:00	1	Precipitación	0
168936	7	Sololá	716	San Marcos la Laguna 	11	San Marcos la laguna 	1	Enero	2023-04-01T00:00:00	2024-11-08T06:00:00	8	Radiación solar	0
168937	7	Sololá	716	San Marcos la Laguna 	11	San Marcos la laguna 	1	Enero	2023-04-01T00:00:00	2024-11-08T07:00:00	2	Temperatura media	13.9
168938	7	Sololá	716	San Marcos la Laguna 	11	San Marcos la laguna 	1	Enero	2023-04-01T00:00:00	2024-11-08T07:00:00	4	Temperatura máxima	13.9
168939	7	Sololá	716	San Marcos la Laguna 	11	San Marcos la laguna 	1	Enero	2023-04-01T00:00:00	2024-11-08T07:00:00	3	Temperatura mínima	13.4
168940	7	Sololá	716	San Marcos la Laguna 	11	San Marcos la laguna 	1	Enero	2023-04-01T00:00:00	2024-11-08T07:00:00	5	Humedad	90
168941	7	Sololá	716	San Marcos la Laguna 	11	San Marcos la laguna 	1	Enero	2023-04-01T00:00:00	2024-11-08T07:00:00	6	Velocidad del viento	6.4
168942	7	Sololá	716	San Marcos la Laguna 	11	San Marcos la laguna 	1	Enero	2023-04-01T00:00:00	2024-11-08T07:00:00	7	Dirección del viento	6.44
168943	7	Sololá	716	San Marcos la Laguna 	11	San Marcos la laguna 	1	Enero	2023-04-01T00:00:00	2024-11-08T07:00:00	1	Precipitación	0
168944	7	Sololá	716	San Marcos la Laguna 	11	San Marcos la laguna 	1	Enero	2023-04-01T00:00:00	2024-11-08T07:00:00	8	Radiación solar	5
168945	7	Sololá	716	San Marcos la Laguna 	11	San Marcos la laguna 	1	Enero	2023-04-01T00:00:00	2024-11-08T08:00:00	2	Temperatura media	17
168946	7	Sololá	716	San Marcos la Laguna 	11	San Marcos la laguna 	1	Enero	2023-04-01T00:00:00	2024-11-08T08:00:00	4	Temperatura máxima	17
168947	7	Sololá	716	San Marcos la Laguna 	11	San Marcos la laguna 	1	Enero	2023-04-01T00:00:00	2024-11-08T08:00:00	3	Temperatura mínima	13.9
168948	7	Sololá	716	San Marcos la Laguna 	11	San Marcos la laguna 	1	Enero	2023-04-01T00:00:00	2024-11-08T08:00:00	5	Humedad	85
168949	7	Sololá	716	San Marcos la Laguna 	11	San Marcos la laguna 	1	Enero	2023-04-01T00:00:00	2024-11-08T08:00:00	6	Velocidad del viento	3.2
168950	7	Sololá	716	San Marcos la Laguna 	11	San Marcos la laguna 	1	Enero	2023-04-01T00:00:00	2024-11-08T08:00:00	7	Dirección del viento	3.22
168951	7	Sololá	716	San Marcos la Laguna 	11	San Marcos la laguna 	1	Enero	2023-04-01T00:00:00	2024-11-08T08:00:00	1	Precipitación	0
168952	7	Sololá	716	San Marcos la Laguna 	11	San Marcos la laguna 	1	Enero	2023-04-01T00:00:00	2024-11-08T08:00:00	8	Radiación solar	99
168953	7	Sololá	716	San Marcos la Laguna 	11	San Marcos la laguna 	1	Enero	2023-04-01T00:00:00	2024-11-08T09:00:00	2	Temperatura media	19.1
168954	7	Sololá	716	San Marcos la Laguna 	11	San Marcos la laguna 	1	Enero	2023-04-01T00:00:00	2024-11-08T09:00:00	4	Temperatura máxima	19.1
168955	7	Sololá	716	San Marcos la Laguna 	11	San Marcos la laguna 	1	Enero	2023-04-01T00:00:00	2024-11-08T09:00:00	3	Temperatura mínima	17
168956	7	Sololá	716	San Marcos la Laguna 	11	San Marcos la laguna 	1	Enero	2023-04-01T00:00:00	2024-11-08T09:00:00	5	Humedad	79
168957	7	Sololá	716	San Marcos la Laguna 	11	San Marcos la laguna 	1	Enero	2023-04-01T00:00:00	2024-11-08T09:00:00	6	Velocidad del viento	1.6
168958	7	Sololá	716	San Marcos la Laguna 	11	San Marcos la laguna 	1	Enero	2023-04-01T00:00:00	2024-11-08T09:00:00	7	Dirección del viento	1.61
168959	7	Sololá	716	San Marcos la Laguna 	11	San Marcos la laguna 	1	Enero	2023-04-01T00:00:00	2024-11-08T09:00:00	1	Precipitación	0
168960	7	Sololá	716	San Marcos la Laguna 	11	San Marcos la laguna 	1	Enero	2023-04-01T00:00:00	2024-11-08T09:00:00	8	Radiación solar	318
168961	7	Sololá	716	San Marcos la Laguna 	11	San Marcos la laguna 	1	Enero	2023-04-01T00:00:00	2024-11-08T10:00:00	2	Temperatura media	19.6
168962	7	Sololá	716	San Marcos la Laguna 	11	San Marcos la laguna 	1	Enero	2023-04-01T00:00:00	2024-11-08T10:00:00	4	Temperatura máxima	19.6
168963	7	Sololá	716	San Marcos la Laguna 	11	San Marcos la laguna 	1	Enero	2023-04-01T00:00:00	2024-11-08T10:00:00	3	Temperatura mínima	19
168964	7	Sololá	716	San Marcos la Laguna 	11	San Marcos la laguna 	1	Enero	2023-04-01T00:00:00	2024-11-08T10:00:00	5	Humedad	77
168965	7	Sololá	716	San Marcos la Laguna 	11	San Marcos la laguna 	1	Enero	2023-04-01T00:00:00	2024-11-08T10:00:00	6	Velocidad del viento	4.8
168966	7	Sololá	716	San Marcos la Laguna 	11	San Marcos la laguna 	1	Enero	2023-04-01T00:00:00	2024-11-08T10:00:00	7	Dirección del viento	4.83
168967	7	Sololá	716	San Marcos la Laguna 	11	San Marcos la laguna 	1	Enero	2023-04-01T00:00:00	2024-11-08T10:00:00	1	Precipitación	0
168968	7	Sololá	716	San Marcos la Laguna 	11	San Marcos la laguna 	1	Enero	2023-04-01T00:00:00	2024-11-08T10:00:00	8	Radiación solar	498
168969	7	Sololá	716	San Marcos la Laguna 	11	San Marcos la laguna 	1	Enero	2023-04-01T00:00:00	2024-11-08T11:00:00	2	Temperatura media	21.5
168970	7	Sololá	716	San Marcos la Laguna 	11	San Marcos la laguna 	1	Enero	2023-04-01T00:00:00	2024-11-08T11:00:00	4	Temperatura máxima	21.5
168971	7	Sololá	716	San Marcos la Laguna 	11	San Marcos la laguna 	1	Enero	2023-04-01T00:00:00	2024-11-08T11:00:00	3	Temperatura mínima	19.6
168972	7	Sololá	716	San Marcos la Laguna 	11	San Marcos la laguna 	1	Enero	2023-04-01T00:00:00	2024-11-08T11:00:00	5	Humedad	62
168973	7	Sololá	716	San Marcos la Laguna 	11	San Marcos la laguna 	1	Enero	2023-04-01T00:00:00	2024-11-08T11:00:00	6	Velocidad del viento	3.2
168974	7	Sololá	716	San Marcos la Laguna 	11	San Marcos la laguna 	1	Enero	2023-04-01T00:00:00	2024-11-08T11:00:00	7	Dirección del viento	3.22
168975	7	Sololá	716	San Marcos la Laguna 	11	San Marcos la laguna 	1	Enero	2023-04-01T00:00:00	2024-11-08T11:00:00	1	Precipitación	0
168976	7	Sololá	716	San Marcos la Laguna 	11	San Marcos la laguna 	1	Enero	2023-04-01T00:00:00	2024-11-08T11:00:00	8	Radiación solar	531
168977	7	Sololá	716	San Marcos la Laguna 	11	San Marcos la laguna 	1	Enero	2023-04-01T00:00:00	2024-11-08T12:00:00	2	Temperatura media	21.3
168978	7	Sololá	716	San Marcos la Laguna 	11	San Marcos la laguna 	1	Enero	2023-04-01T00:00:00	2024-11-08T12:00:00	4	Temperatura máxima	21.9
168979	7	Sololá	716	San Marcos la Laguna 	11	San Marcos la laguna 	1	Enero	2023-04-01T00:00:00	2024-11-08T12:00:00	3	Temperatura mínima	21.2
168980	7	Sololá	716	San Marcos la Laguna 	11	San Marcos la laguna 	1	Enero	2023-04-01T00:00:00	2024-11-08T12:00:00	5	Humedad	69
168981	7	Sololá	716	San Marcos la Laguna 	11	San Marcos la laguna 	1	Enero	2023-04-01T00:00:00	2024-11-08T12:00:00	6	Velocidad del viento	6.4
168982	7	Sololá	716	San Marcos la Laguna 	11	San Marcos la laguna 	1	Enero	2023-04-01T00:00:00	2024-11-08T12:00:00	7	Dirección del viento	6.44
168983	7	Sololá	716	San Marcos la Laguna 	11	San Marcos la laguna 	1	Enero	2023-04-01T00:00:00	2024-11-08T12:00:00	1	Precipitación	0
168984	7	Sololá	716	San Marcos la Laguna 	11	San Marcos la laguna 	1	Enero	2023-04-01T00:00:00	2024-11-08T12:00:00	8	Radiación solar	714
168985	7	Sololá	716	San Marcos la Laguna 	11	San Marcos la laguna 	1	Enero	2023-04-01T00:00:00	2024-11-08T13:00:00	2	Temperatura media	21.3
168986	7	Sololá	716	San Marcos la Laguna 	11	San Marcos la laguna 	1	Enero	2023-04-01T00:00:00	2024-11-08T13:00:00	4	Temperatura máxima	21.6
168987	7	Sololá	716	San Marcos la Laguna 	11	San Marcos la laguna 	1	Enero	2023-04-01T00:00:00	2024-11-08T13:00:00	3	Temperatura mínima	21.3
168988	7	Sololá	716	San Marcos la Laguna 	11	San Marcos la laguna 	1	Enero	2023-04-01T00:00:00	2024-11-08T13:00:00	5	Humedad	72
168989	7	Sololá	716	San Marcos la Laguna 	11	San Marcos la laguna 	1	Enero	2023-04-01T00:00:00	2024-11-08T13:00:00	6	Velocidad del viento	14.5
168990	7	Sololá	716	San Marcos la Laguna 	11	San Marcos la laguna 	1	Enero	2023-04-01T00:00:00	2024-11-08T13:00:00	7	Dirección del viento	14.48
168991	7	Sololá	716	San Marcos la Laguna 	11	San Marcos la laguna 	1	Enero	2023-04-01T00:00:00	2024-11-08T13:00:00	1	Precipitación	0
168992	7	Sololá	716	San Marcos la Laguna 	11	San Marcos la laguna 	1	Enero	2023-04-01T00:00:00	2024-11-08T13:00:00	8	Radiación solar	728
168993	7	Sololá	716	San Marcos la Laguna 	11	San Marcos la laguna 	1	Enero	2023-04-01T00:00:00	2024-11-08T14:00:00	2	Temperatura media	21.2
168994	7	Sololá	716	San Marcos la Laguna 	11	San Marcos la laguna 	1	Enero	2023-04-01T00:00:00	2024-11-08T14:00:00	4	Temperatura máxima	21.8
168995	7	Sololá	716	San Marcos la Laguna 	11	San Marcos la laguna 	1	Enero	2023-04-01T00:00:00	2024-11-08T14:00:00	3	Temperatura mínima	21.2
168996	7	Sololá	716	San Marcos la Laguna 	11	San Marcos la laguna 	1	Enero	2023-04-01T00:00:00	2024-11-08T14:00:00	5	Humedad	76
168997	7	Sololá	716	San Marcos la Laguna 	11	San Marcos la laguna 	1	Enero	2023-04-01T00:00:00	2024-11-08T14:00:00	6	Velocidad del viento	14.5
168998	7	Sololá	716	San Marcos la Laguna 	11	San Marcos la laguna 	1	Enero	2023-04-01T00:00:00	2024-11-08T14:00:00	7	Dirección del viento	14.48
168999	7	Sololá	716	San Marcos la Laguna 	11	San Marcos la laguna 	1	Enero	2023-04-01T00:00:00	2024-11-08T14:00:00	1	Precipitación	0
169000	7	Sololá	716	San Marcos la Laguna 	11	San Marcos la laguna 	1	Enero	2023-04-01T00:00:00	2024-11-08T14:00:00	8	Radiación solar	672
169001	7	Sololá	716	San Marcos la Laguna 	11	San Marcos la laguna 	1	Enero	2023-04-01T00:00:00	2024-11-08T15:00:00	2	Temperatura media	21.3
169002	7	Sololá	716	San Marcos la Laguna 	11	San Marcos la laguna 	1	Enero	2023-04-01T00:00:00	2024-11-08T15:00:00	4	Temperatura máxima	21.4
169003	7	Sololá	716	San Marcos la Laguna 	11	San Marcos la laguna 	1	Enero	2023-04-01T00:00:00	2024-11-08T15:00:00	3	Temperatura mínima	20.9
169004	7	Sololá	716	San Marcos la Laguna 	11	San Marcos la laguna 	1	Enero	2023-04-01T00:00:00	2024-11-08T15:00:00	5	Humedad	76
169005	7	Sololá	716	San Marcos la Laguna 	11	San Marcos la laguna 	1	Enero	2023-04-01T00:00:00	2024-11-08T15:00:00	6	Velocidad del viento	12.9
169006	7	Sololá	716	San Marcos la Laguna 	11	San Marcos la laguna 	1	Enero	2023-04-01T00:00:00	2024-11-08T15:00:00	7	Dirección del viento	12.87
169007	7	Sololá	716	San Marcos la Laguna 	11	San Marcos la laguna 	1	Enero	2023-04-01T00:00:00	2024-11-08T15:00:00	1	Precipitación	0
169008	7	Sololá	716	San Marcos la Laguna 	11	San Marcos la laguna 	1	Enero	2023-04-01T00:00:00	2024-11-08T15:00:00	8	Radiación solar	556
169009	7	Sololá	716	San Marcos la Laguna 	11	San Marcos la laguna 	1	Enero	2023-04-01T00:00:00	2024-11-08T16:00:00	2	Temperatura media	20.7
169010	7	Sololá	716	San Marcos la Laguna 	11	San Marcos la laguna 	1	Enero	2023-04-01T00:00:00	2024-11-08T16:00:00	4	Temperatura máxima	21.3
169011	7	Sololá	716	San Marcos la Laguna 	11	San Marcos la laguna 	1	Enero	2023-04-01T00:00:00	2024-11-08T16:00:00	3	Temperatura mínima	20.7
169012	7	Sololá	716	San Marcos la Laguna 	11	San Marcos la laguna 	1	Enero	2023-04-01T00:00:00	2024-11-08T16:00:00	5	Humedad	80
169013	7	Sololá	716	San Marcos la Laguna 	11	San Marcos la laguna 	1	Enero	2023-04-01T00:00:00	2024-11-08T16:00:00	6	Velocidad del viento	12.9
169014	7	Sololá	716	San Marcos la Laguna 	11	San Marcos la laguna 	1	Enero	2023-04-01T00:00:00	2024-11-08T16:00:00	7	Dirección del viento	12.87
169015	7	Sololá	716	San Marcos la Laguna 	11	San Marcos la laguna 	1	Enero	2023-04-01T00:00:00	2024-11-08T16:00:00	1	Precipitación	0
169016	7	Sololá	716	San Marcos la Laguna 	11	San Marcos la laguna 	1	Enero	2023-04-01T00:00:00	2024-11-08T16:00:00	8	Radiación solar	395
169017	7	Sololá	716	San Marcos la Laguna 	11	San Marcos la laguna 	1	Enero	2023-04-01T00:00:00	2024-11-08T17:00:00	2	Temperatura media	19.9
169018	7	Sololá	716	San Marcos la Laguna 	11	San Marcos la laguna 	1	Enero	2023-04-01T00:00:00	2024-11-08T17:00:00	4	Temperatura máxima	20.7
169019	7	Sololá	716	San Marcos la Laguna 	11	San Marcos la laguna 	1	Enero	2023-04-01T00:00:00	2024-11-08T17:00:00	3	Temperatura mínima	19.9
169020	7	Sololá	716	San Marcos la Laguna 	11	San Marcos la laguna 	1	Enero	2023-04-01T00:00:00	2024-11-08T17:00:00	5	Humedad	83
169021	7	Sololá	716	San Marcos la Laguna 	11	San Marcos la laguna 	1	Enero	2023-04-01T00:00:00	2024-11-08T17:00:00	6	Velocidad del viento	12.9
169022	7	Sololá	716	San Marcos la Laguna 	11	San Marcos la laguna 	1	Enero	2023-04-01T00:00:00	2024-11-08T17:00:00	7	Dirección del viento	12.87
169023	7	Sololá	716	San Marcos la Laguna 	11	San Marcos la laguna 	1	Enero	2023-04-01T00:00:00	2024-11-08T17:00:00	1	Precipitación	0
169024	7	Sololá	716	San Marcos la Laguna 	11	San Marcos la laguna 	1	Enero	2023-04-01T00:00:00	2024-11-08T17:00:00	8	Radiación solar	184
169025	7	Sololá	716	San Marcos la Laguna 	11	San Marcos la laguna 	1	Enero	2023-04-01T00:00:00	2024-11-08T18:00:00	2	Temperatura media	19.3
169026	7	Sololá	716	San Marcos la Laguna 	11	San Marcos la laguna 	1	Enero	2023-04-01T00:00:00	2024-11-08T18:00:00	4	Temperatura máxima	19.9
169027	7	Sololá	716	San Marcos la Laguna 	11	San Marcos la laguna 	1	Enero	2023-04-01T00:00:00	2024-11-08T18:00:00	3	Temperatura mínima	19.3
169028	7	Sololá	716	San Marcos la Laguna 	11	San Marcos la laguna 	1	Enero	2023-04-01T00:00:00	2024-11-08T18:00:00	5	Humedad	86
169029	7	Sololá	716	San Marcos la Laguna 	11	San Marcos la laguna 	1	Enero	2023-04-01T00:00:00	2024-11-08T18:00:00	6	Velocidad del viento	6.4
169030	7	Sololá	716	San Marcos la Laguna 	11	San Marcos la laguna 	1	Enero	2023-04-01T00:00:00	2024-11-08T18:00:00	7	Dirección del viento	6.44
169031	7	Sololá	716	San Marcos la Laguna 	11	San Marcos la laguna 	1	Enero	2023-04-01T00:00:00	2024-11-08T18:00:00	1	Precipitación	0
169032	7	Sololá	716	San Marcos la Laguna 	11	San Marcos la laguna 	1	Enero	2023-04-01T00:00:00	2024-11-08T18:00:00	8	Radiación solar	16
169033	7	Sololá	716	San Marcos la Laguna 	11	San Marcos la laguna 	1	Enero	2023-04-01T00:00:00	2024-11-08T19:00:00	2	Temperatura media	18.3
169034	7	Sololá	716	San Marcos la Laguna 	11	San Marcos la laguna 	1	Enero	2023-04-01T00:00:00	2024-11-08T19:00:00	4	Temperatura máxima	19.3
169035	7	Sololá	716	San Marcos la Laguna 	11	San Marcos la laguna 	1	Enero	2023-04-01T00:00:00	2024-11-08T19:00:00	3	Temperatura mínima	18.3
169036	7	Sololá	716	San Marcos la Laguna 	11	San Marcos la laguna 	1	Enero	2023-04-01T00:00:00	2024-11-08T19:00:00	5	Humedad	79
169037	7	Sololá	716	San Marcos la Laguna 	11	San Marcos la laguna 	1	Enero	2023-04-01T00:00:00	2024-11-08T19:00:00	6	Velocidad del viento	3.2
169038	7	Sololá	716	San Marcos la Laguna 	11	San Marcos la laguna 	1	Enero	2023-04-01T00:00:00	2024-11-08T19:00:00	7	Dirección del viento	3.22
169039	7	Sololá	716	San Marcos la Laguna 	11	San Marcos la laguna 	1	Enero	2023-04-01T00:00:00	2024-11-08T19:00:00	1	Precipitación	0
169040	7	Sololá	716	San Marcos la Laguna 	11	San Marcos la laguna 	1	Enero	2023-04-01T00:00:00	2024-11-08T19:00:00	8	Radiación solar	0
169041	7	Sololá	716	San Marcos la Laguna 	11	San Marcos la laguna 	1	Enero	2023-04-01T00:00:00	2024-11-08T20:00:00	2	Temperatura media	17.7
169042	7	Sololá	716	San Marcos la Laguna 	11	San Marcos la laguna 	1	Enero	2023-04-01T00:00:00	2024-11-08T20:00:00	4	Temperatura máxima	18.3
169043	7	Sololá	716	San Marcos la Laguna 	11	San Marcos la laguna 	1	Enero	2023-04-01T00:00:00	2024-11-08T20:00:00	3	Temperatura mínima	17.7
169044	7	Sololá	716	San Marcos la Laguna 	11	San Marcos la laguna 	1	Enero	2023-04-01T00:00:00	2024-11-08T20:00:00	5	Humedad	72
169045	7	Sololá	716	San Marcos la Laguna 	11	San Marcos la laguna 	1	Enero	2023-04-01T00:00:00	2024-11-08T20:00:00	6	Velocidad del viento	6.4
169046	7	Sololá	716	San Marcos la Laguna 	11	San Marcos la laguna 	1	Enero	2023-04-01T00:00:00	2024-11-08T20:00:00	7	Dirección del viento	6.44
169047	7	Sololá	716	San Marcos la Laguna 	11	San Marcos la laguna 	1	Enero	2023-04-01T00:00:00	2024-11-08T20:00:00	1	Precipitación	0
169048	7	Sololá	716	San Marcos la Laguna 	11	San Marcos la laguna 	1	Enero	2023-04-01T00:00:00	2024-11-08T20:00:00	8	Radiación solar	0
169049	7	Sololá	716	San Marcos la Laguna 	11	San Marcos la laguna 	1	Enero	2023-04-01T00:00:00	2024-11-08T21:00:00	2	Temperatura media	17.2
169050	7	Sololá	716	San Marcos la Laguna 	11	San Marcos la laguna 	1	Enero	2023-04-01T00:00:00	2024-11-08T21:00:00	4	Temperatura máxima	17.9
169051	7	Sololá	716	San Marcos la Laguna 	11	San Marcos la laguna 	1	Enero	2023-04-01T00:00:00	2024-11-08T21:00:00	3	Temperatura mínima	17.1
169052	7	Sololá	716	San Marcos la Laguna 	11	San Marcos la laguna 	1	Enero	2023-04-01T00:00:00	2024-11-08T21:00:00	5	Humedad	64
169053	7	Sololá	716	San Marcos la Laguna 	11	San Marcos la laguna 	1	Enero	2023-04-01T00:00:00	2024-11-08T21:00:00	6	Velocidad del viento	8
169054	7	Sololá	716	San Marcos la Laguna 	11	San Marcos la laguna 	1	Enero	2023-04-01T00:00:00	2024-11-08T21:00:00	7	Dirección del viento	8.05
169055	7	Sololá	716	San Marcos la Laguna 	11	San Marcos la laguna 	1	Enero	2023-04-01T00:00:00	2024-11-08T21:00:00	1	Precipitación	0
169056	7	Sololá	716	San Marcos la Laguna 	11	San Marcos la laguna 	1	Enero	2023-04-01T00:00:00	2024-11-08T21:00:00	8	Radiación solar	0
169057	7	Sololá	716	San Marcos la Laguna 	11	San Marcos la laguna 	1	Enero	2023-04-01T00:00:00	2024-11-08T22:00:00	2	Temperatura media	16.2
169058	7	Sololá	716	San Marcos la Laguna 	11	San Marcos la laguna 	1	Enero	2023-04-01T00:00:00	2024-11-08T22:00:00	4	Temperatura máxima	17.2
169059	7	Sololá	716	San Marcos la Laguna 	11	San Marcos la laguna 	1	Enero	2023-04-01T00:00:00	2024-11-08T22:00:00	3	Temperatura mínima	16.2
169060	7	Sololá	716	San Marcos la Laguna 	11	San Marcos la laguna 	1	Enero	2023-04-01T00:00:00	2024-11-08T22:00:00	5	Humedad	65
169061	7	Sololá	716	San Marcos la Laguna 	11	San Marcos la laguna 	1	Enero	2023-04-01T00:00:00	2024-11-08T22:00:00	6	Velocidad del viento	8
169062	7	Sololá	716	San Marcos la Laguna 	11	San Marcos la laguna 	1	Enero	2023-04-01T00:00:00	2024-11-08T22:00:00	7	Dirección del viento	8.05
169063	7	Sololá	716	San Marcos la Laguna 	11	San Marcos la laguna 	1	Enero	2023-04-01T00:00:00	2024-11-08T22:00:00	1	Precipitación	0
169064	7	Sololá	716	San Marcos la Laguna 	11	San Marcos la laguna 	1	Enero	2023-04-01T00:00:00	2024-11-08T22:00:00	8	Radiación solar	0
169065	7	Sololá	716	San Marcos la Laguna 	11	San Marcos la laguna 	1	Enero	2023-04-01T00:00:00	2024-11-08T23:00:00	2	Temperatura media	15.1
169066	7	Sololá	716	San Marcos la Laguna 	11	San Marcos la laguna 	1	Enero	2023-04-01T00:00:00	2024-11-08T23:00:00	4	Temperatura máxima	16.2
169067	7	Sololá	716	San Marcos la Laguna 	11	San Marcos la laguna 	1	Enero	2023-04-01T00:00:00	2024-11-08T23:00:00	3	Temperatura mínima	15.1
169068	7	Sololá	716	San Marcos la Laguna 	11	San Marcos la laguna 	1	Enero	2023-04-01T00:00:00	2024-11-08T23:00:00	5	Humedad	70
169069	7	Sololá	716	San Marcos la Laguna 	11	San Marcos la laguna 	1	Enero	2023-04-01T00:00:00	2024-11-08T23:00:00	6	Velocidad del viento	9.7
169070	7	Sololá	716	San Marcos la Laguna 	11	San Marcos la laguna 	1	Enero	2023-04-01T00:00:00	2024-11-08T23:00:00	7	Dirección del viento	9.66
169071	7	Sololá	716	San Marcos la Laguna 	11	San Marcos la laguna 	1	Enero	2023-04-01T00:00:00	2024-11-08T23:00:00	1	Precipitación	0
169072	7	Sololá	716	San Marcos la Laguna 	11	San Marcos la laguna 	1	Enero	2023-04-01T00:00:00	2024-11-08T23:00:00	8	Radiación solar	0
169073	7	Sololá	716	San Marcos la Laguna 	11	San Marcos la laguna 	1	Enero	2023-05-01T00:00:00	2024-11-08T00:00:00	2	Temperatura media	15.3
169074	7	Sololá	716	San Marcos la Laguna 	11	San Marcos la laguna 	1	Enero	2023-05-01T00:00:00	2024-11-08T00:00:00	4	Temperatura máxima	15.8
169075	7	Sololá	716	San Marcos la Laguna 	11	San Marcos la laguna 	1	Enero	2023-05-01T00:00:00	2024-11-08T00:00:00	3	Temperatura mínima	14.9
169076	7	Sololá	716	San Marcos la Laguna 	11	San Marcos la laguna 	1	Enero	2023-05-01T00:00:00	2024-11-08T00:00:00	5	Humedad	65
169077	7	Sololá	716	San Marcos la Laguna 	11	San Marcos la laguna 	1	Enero	2023-05-01T00:00:00	2024-11-08T00:00:00	6	Velocidad del viento	9.7
169078	7	Sololá	716	San Marcos la Laguna 	11	San Marcos la laguna 	1	Enero	2023-05-01T00:00:00	2024-11-08T00:00:00	7	Dirección del viento	9.66
169079	7	Sololá	716	San Marcos la Laguna 	11	San Marcos la laguna 	1	Enero	2023-05-01T00:00:00	2024-11-08T00:00:00	1	Precipitación	0
169080	7	Sololá	716	San Marcos la Laguna 	11	San Marcos la laguna 	1	Enero	2023-05-01T00:00:00	2024-11-08T00:00:00	8	Radiación solar	0
169081	7	Sololá	716	San Marcos la Laguna 	11	San Marcos la laguna 	1	Enero	2023-05-01T00:00:00	2024-11-08T01:00:00	2	Temperatura media	14.3
169082	7	Sololá	716	San Marcos la Laguna 	11	San Marcos la laguna 	1	Enero	2023-05-01T00:00:00	2024-11-08T01:00:00	4	Temperatura máxima	15.2
169083	7	Sololá	716	San Marcos la Laguna 	11	San Marcos la laguna 	1	Enero	2023-05-01T00:00:00	2024-11-08T01:00:00	3	Temperatura mínima	14.3
169084	7	Sololá	716	San Marcos la Laguna 	11	San Marcos la laguna 	1	Enero	2023-05-01T00:00:00	2024-11-08T01:00:00	5	Humedad	67
169085	7	Sololá	716	San Marcos la Laguna 	11	San Marcos la laguna 	1	Enero	2023-05-01T00:00:00	2024-11-08T01:00:00	6	Velocidad del viento	8
169086	7	Sololá	716	San Marcos la Laguna 	11	San Marcos la laguna 	1	Enero	2023-05-01T00:00:00	2024-11-08T01:00:00	7	Dirección del viento	8.05
169087	7	Sololá	716	San Marcos la Laguna 	11	San Marcos la laguna 	1	Enero	2023-05-01T00:00:00	2024-11-08T01:00:00	1	Precipitación	0
169088	7	Sololá	716	San Marcos la Laguna 	11	San Marcos la laguna 	1	Enero	2023-05-01T00:00:00	2024-11-08T01:00:00	8	Radiación solar	0
169089	7	Sololá	716	San Marcos la Laguna 	11	San Marcos la laguna 	1	Enero	2023-05-01T00:00:00	2024-11-08T02:00:00	2	Temperatura media	13.9
169090	7	Sololá	716	San Marcos la Laguna 	11	San Marcos la laguna 	1	Enero	2023-05-01T00:00:00	2024-11-08T02:00:00	4	Temperatura máxima	14.8
169091	7	Sololá	716	San Marcos la Laguna 	11	San Marcos la laguna 	1	Enero	2023-05-01T00:00:00	2024-11-08T02:00:00	3	Temperatura mínima	13.7
169092	7	Sololá	716	San Marcos la Laguna 	11	San Marcos la laguna 	1	Enero	2023-05-01T00:00:00	2024-11-08T02:00:00	5	Humedad	70
169093	7	Sololá	716	San Marcos la Laguna 	11	San Marcos la laguna 	1	Enero	2023-05-01T00:00:00	2024-11-08T02:00:00	6	Velocidad del viento	8
169094	7	Sololá	716	San Marcos la Laguna 	11	San Marcos la laguna 	1	Enero	2023-05-01T00:00:00	2024-11-08T02:00:00	7	Dirección del viento	8.05
169095	7	Sololá	716	San Marcos la Laguna 	11	San Marcos la laguna 	1	Enero	2023-05-01T00:00:00	2024-11-08T02:00:00	1	Precipitación	0
169096	7	Sololá	716	San Marcos la Laguna 	11	San Marcos la laguna 	1	Enero	2023-05-01T00:00:00	2024-11-08T02:00:00	8	Radiación solar	0
169097	7	Sololá	716	San Marcos la Laguna 	11	San Marcos la laguna 	1	Enero	2023-05-01T00:00:00	2024-11-08T03:00:00	2	Temperatura media	14.4
169098	7	Sololá	716	San Marcos la Laguna 	11	San Marcos la laguna 	1	Enero	2023-05-01T00:00:00	2024-11-08T03:00:00	4	Temperatura máxima	15.5
169099	7	Sololá	716	San Marcos la Laguna 	11	San Marcos la laguna 	1	Enero	2023-05-01T00:00:00	2024-11-08T03:00:00	3	Temperatura mínima	13.9
169100	7	Sololá	716	San Marcos la Laguna 	11	San Marcos la laguna 	1	Enero	2023-05-01T00:00:00	2024-11-08T03:00:00	5	Humedad	67
169101	7	Sololá	716	San Marcos la Laguna 	11	San Marcos la laguna 	1	Enero	2023-05-01T00:00:00	2024-11-08T03:00:00	6	Velocidad del viento	9.7
169102	7	Sololá	716	San Marcos la Laguna 	11	San Marcos la laguna 	1	Enero	2023-05-01T00:00:00	2024-11-08T03:00:00	7	Dirección del viento	9.66
169103	7	Sololá	716	San Marcos la Laguna 	11	San Marcos la laguna 	1	Enero	2023-05-01T00:00:00	2024-11-08T03:00:00	1	Precipitación	0
169104	7	Sololá	716	San Marcos la Laguna 	11	San Marcos la laguna 	1	Enero	2023-05-01T00:00:00	2024-11-08T03:00:00	8	Radiación solar	0
169105	7	Sololá	716	San Marcos la Laguna 	11	San Marcos la laguna 	1	Enero	2023-05-01T00:00:00	2024-11-08T04:00:00	2	Temperatura media	14.8
169106	7	Sololá	716	San Marcos la Laguna 	11	San Marcos la laguna 	1	Enero	2023-05-01T00:00:00	2024-11-08T04:00:00	4	Temperatura máxima	15.7
169107	7	Sololá	716	San Marcos la Laguna 	11	San Marcos la laguna 	1	Enero	2023-05-01T00:00:00	2024-11-08T04:00:00	3	Temperatura mínima	14.4
169108	7	Sololá	716	San Marcos la Laguna 	11	San Marcos la laguna 	1	Enero	2023-05-01T00:00:00	2024-11-08T04:00:00	5	Humedad	69
169109	7	Sololá	716	San Marcos la Laguna 	11	San Marcos la laguna 	1	Enero	2023-05-01T00:00:00	2024-11-08T04:00:00	6	Velocidad del viento	6.4
169110	7	Sololá	716	San Marcos la Laguna 	11	San Marcos la laguna 	1	Enero	2023-05-01T00:00:00	2024-11-08T04:00:00	7	Dirección del viento	6.44
169111	7	Sololá	716	San Marcos la Laguna 	11	San Marcos la laguna 	1	Enero	2023-05-01T00:00:00	2024-11-08T04:00:00	1	Precipitación	0
169112	7	Sololá	716	San Marcos la Laguna 	11	San Marcos la laguna 	1	Enero	2023-05-01T00:00:00	2024-11-08T04:00:00	8	Radiación solar	0
169113	7	Sololá	716	San Marcos la Laguna 	11	San Marcos la laguna 	1	Enero	2023-05-01T00:00:00	2024-11-08T05:00:00	2	Temperatura media	14.9
169114	7	Sololá	716	San Marcos la Laguna 	11	San Marcos la laguna 	1	Enero	2023-05-01T00:00:00	2024-11-08T05:00:00	4	Temperatura máxima	15.2
169115	7	Sololá	716	San Marcos la Laguna 	11	San Marcos la laguna 	1	Enero	2023-05-01T00:00:00	2024-11-08T05:00:00	3	Temperatura mínima	14.6
169116	7	Sololá	716	San Marcos la Laguna 	11	San Marcos la laguna 	1	Enero	2023-05-01T00:00:00	2024-11-08T05:00:00	5	Humedad	71
169117	7	Sololá	716	San Marcos la Laguna 	11	San Marcos la laguna 	1	Enero	2023-05-01T00:00:00	2024-11-08T05:00:00	6	Velocidad del viento	6.4
169118	7	Sololá	716	San Marcos la Laguna 	11	San Marcos la laguna 	1	Enero	2023-05-01T00:00:00	2024-11-08T05:00:00	7	Dirección del viento	6.44
169119	7	Sololá	716	San Marcos la Laguna 	11	San Marcos la laguna 	1	Enero	2023-05-01T00:00:00	2024-11-08T05:00:00	1	Precipitación	0
169120	7	Sololá	716	San Marcos la Laguna 	11	San Marcos la laguna 	1	Enero	2023-05-01T00:00:00	2024-11-08T05:00:00	8	Radiación solar	0
169121	7	Sololá	716	San Marcos la Laguna 	11	San Marcos la laguna 	1	Enero	2023-05-01T00:00:00	2024-11-08T06:00:00	2	Temperatura media	14.8
169122	7	Sololá	716	San Marcos la Laguna 	11	San Marcos la laguna 	1	Enero	2023-05-01T00:00:00	2024-11-08T06:00:00	4	Temperatura máxima	15.4
169123	7	Sololá	716	San Marcos la Laguna 	11	San Marcos la laguna 	1	Enero	2023-05-01T00:00:00	2024-11-08T06:00:00	3	Temperatura mínima	14.8
169124	7	Sololá	716	San Marcos la Laguna 	11	San Marcos la laguna 	1	Enero	2023-05-01T00:00:00	2024-11-08T06:00:00	5	Humedad	72
169125	7	Sololá	716	San Marcos la Laguna 	11	San Marcos la laguna 	1	Enero	2023-05-01T00:00:00	2024-11-08T06:00:00	6	Velocidad del viento	6.4
169126	7	Sololá	716	San Marcos la Laguna 	11	San Marcos la laguna 	1	Enero	2023-05-01T00:00:00	2024-11-08T06:00:00	7	Dirección del viento	6.44
169127	7	Sololá	716	San Marcos la Laguna 	11	San Marcos la laguna 	1	Enero	2023-05-01T00:00:00	2024-11-08T06:00:00	1	Precipitación	0
169128	7	Sololá	716	San Marcos la Laguna 	11	San Marcos la laguna 	1	Enero	2023-05-01T00:00:00	2024-11-08T06:00:00	8	Radiación solar	0
169129	7	Sololá	716	San Marcos la Laguna 	11	San Marcos la laguna 	1	Enero	2023-05-01T00:00:00	2024-11-08T07:00:00	2	Temperatura media	15.1
169130	7	Sololá	716	San Marcos la Laguna 	11	San Marcos la laguna 	1	Enero	2023-05-01T00:00:00	2024-11-08T07:00:00	4	Temperatura máxima	15.2
169131	7	Sololá	716	San Marcos la Laguna 	11	San Marcos la laguna 	1	Enero	2023-05-01T00:00:00	2024-11-08T07:00:00	3	Temperatura mínima	14.6
169132	7	Sololá	716	San Marcos la Laguna 	11	San Marcos la laguna 	1	Enero	2023-05-01T00:00:00	2024-11-08T07:00:00	5	Humedad	72
169133	7	Sololá	716	San Marcos la Laguna 	11	San Marcos la laguna 	1	Enero	2023-05-01T00:00:00	2024-11-08T07:00:00	6	Velocidad del viento	6.4
169134	7	Sololá	716	San Marcos la Laguna 	11	San Marcos la laguna 	1	Enero	2023-05-01T00:00:00	2024-11-08T07:00:00	7	Dirección del viento	6.44
169135	7	Sololá	716	San Marcos la Laguna 	11	San Marcos la laguna 	1	Enero	2023-05-01T00:00:00	2024-11-08T07:00:00	1	Precipitación	0
169136	7	Sololá	716	San Marcos la Laguna 	11	San Marcos la laguna 	1	Enero	2023-05-01T00:00:00	2024-11-08T07:00:00	8	Radiación solar	7
169137	7	Sololá	716	San Marcos la Laguna 	11	San Marcos la laguna 	1	Enero	2023-05-01T00:00:00	2024-11-08T08:00:00	2	Temperatura media	16.6
169138	7	Sololá	716	San Marcos la Laguna 	11	San Marcos la laguna 	1	Enero	2023-05-01T00:00:00	2024-11-08T08:00:00	4	Temperatura máxima	16.6
169139	7	Sololá	716	San Marcos la Laguna 	11	San Marcos la laguna 	1	Enero	2023-05-01T00:00:00	2024-11-08T08:00:00	3	Temperatura mínima	15
169140	7	Sololá	716	San Marcos la Laguna 	11	San Marcos la laguna 	1	Enero	2023-05-01T00:00:00	2024-11-08T08:00:00	5	Humedad	71
169141	7	Sololá	716	San Marcos la Laguna 	11	San Marcos la laguna 	1	Enero	2023-05-01T00:00:00	2024-11-08T08:00:00	6	Velocidad del viento	4.8
169142	7	Sololá	716	San Marcos la Laguna 	11	San Marcos la laguna 	1	Enero	2023-05-01T00:00:00	2024-11-08T08:00:00	7	Dirección del viento	4.83
169143	7	Sololá	716	San Marcos la Laguna 	11	San Marcos la laguna 	1	Enero	2023-05-01T00:00:00	2024-11-08T08:00:00	1	Precipitación	0
169144	7	Sololá	716	San Marcos la Laguna 	11	San Marcos la laguna 	1	Enero	2023-05-01T00:00:00	2024-11-08T08:00:00	8	Radiación solar	68
169145	7	Sololá	716	San Marcos la Laguna 	11	San Marcos la laguna 	1	Enero	2023-05-01T00:00:00	2024-11-08T09:00:00	2	Temperatura media	19.1
169146	7	Sololá	716	San Marcos la Laguna 	11	San Marcos la laguna 	1	Enero	2023-05-01T00:00:00	2024-11-08T09:00:00	4	Temperatura máxima	19.1
169147	7	Sololá	716	San Marcos la Laguna 	11	San Marcos la laguna 	1	Enero	2023-05-01T00:00:00	2024-11-08T09:00:00	3	Temperatura mínima	16.6
169148	7	Sololá	716	San Marcos la Laguna 	11	San Marcos la laguna 	1	Enero	2023-05-01T00:00:00	2024-11-08T09:00:00	5	Humedad	70
169149	7	Sololá	716	San Marcos la Laguna 	11	San Marcos la laguna 	1	Enero	2023-05-01T00:00:00	2024-11-08T09:00:00	6	Velocidad del viento	1.6
169150	7	Sololá	716	San Marcos la Laguna 	11	San Marcos la laguna 	1	Enero	2023-05-01T00:00:00	2024-11-08T09:00:00	7	Dirección del viento	1.61
169151	7	Sololá	716	San Marcos la Laguna 	11	San Marcos la laguna 	1	Enero	2023-05-01T00:00:00	2024-11-08T09:00:00	1	Precipitación	0
169152	7	Sololá	716	San Marcos la Laguna 	11	San Marcos la laguna 	1	Enero	2023-05-01T00:00:00	2024-11-08T09:00:00	8	Radiación solar	139
169153	7	Sololá	716	San Marcos la Laguna 	11	San Marcos la laguna 	1	Enero	2023-05-01T00:00:00	2024-11-08T10:00:00	2	Temperatura media	21
169154	7	Sololá	716	San Marcos la Laguna 	11	San Marcos la laguna 	1	Enero	2023-05-01T00:00:00	2024-11-08T10:00:00	4	Temperatura máxima	21.1
169155	7	Sololá	716	San Marcos la Laguna 	11	San Marcos la laguna 	1	Enero	2023-05-01T00:00:00	2024-11-08T10:00:00	3	Temperatura mínima	19.1
169156	7	Sololá	716	San Marcos la Laguna 	11	San Marcos la laguna 	1	Enero	2023-05-01T00:00:00	2024-11-08T10:00:00	5	Humedad	61
169157	7	Sololá	716	San Marcos la Laguna 	11	San Marcos la laguna 	1	Enero	2023-05-01T00:00:00	2024-11-08T10:00:00	6	Velocidad del viento	3.2
169158	7	Sololá	716	San Marcos la Laguna 	11	San Marcos la laguna 	1	Enero	2023-05-01T00:00:00	2024-11-08T10:00:00	7	Dirección del viento	3.22
169159	7	Sololá	716	San Marcos la Laguna 	11	San Marcos la laguna 	1	Enero	2023-05-01T00:00:00	2024-11-08T10:00:00	1	Precipitación	0
169160	7	Sololá	716	San Marcos la Laguna 	11	San Marcos la laguna 	1	Enero	2023-05-01T00:00:00	2024-11-08T10:00:00	8	Radiación solar	524
169161	7	Sololá	716	San Marcos la Laguna 	11	San Marcos la laguna 	1	Enero	2023-05-01T00:00:00	2024-11-08T11:00:00	2	Temperatura media	21.4
169162	7	Sololá	716	San Marcos la Laguna 	11	San Marcos la laguna 	1	Enero	2023-05-01T00:00:00	2024-11-08T11:00:00	4	Temperatura máxima	21.9
169163	7	Sololá	716	San Marcos la Laguna 	11	San Marcos la laguna 	1	Enero	2023-05-01T00:00:00	2024-11-08T11:00:00	3	Temperatura mínima	21
169164	7	Sololá	716	San Marcos la Laguna 	11	San Marcos la laguna 	1	Enero	2023-05-01T00:00:00	2024-11-08T11:00:00	5	Humedad	56
169165	7	Sololá	716	San Marcos la Laguna 	11	San Marcos la laguna 	1	Enero	2023-05-01T00:00:00	2024-11-08T11:00:00	6	Velocidad del viento	19.3
169166	7	Sololá	716	San Marcos la Laguna 	11	San Marcos la laguna 	1	Enero	2023-05-01T00:00:00	2024-11-08T11:00:00	7	Dirección del viento	19.31
169167	7	Sololá	716	San Marcos la Laguna 	11	San Marcos la laguna 	1	Enero	2023-05-01T00:00:00	2024-11-08T11:00:00	1	Precipitación	0
169168	7	Sololá	716	San Marcos la Laguna 	11	San Marcos la laguna 	1	Enero	2023-05-01T00:00:00	2024-11-08T11:00:00	8	Radiación solar	539
169169	7	Sololá	716	San Marcos la Laguna 	11	San Marcos la laguna 	1	Enero	2023-05-01T00:00:00	2024-11-08T12:00:00	2	Temperatura media	21.9
169170	7	Sololá	716	San Marcos la Laguna 	11	San Marcos la laguna 	1	Enero	2023-05-01T00:00:00	2024-11-08T12:00:00	4	Temperatura máxima	21.9
169171	7	Sololá	716	San Marcos la Laguna 	11	San Marcos la laguna 	1	Enero	2023-05-01T00:00:00	2024-11-08T12:00:00	3	Temperatura mínima	21.1
169172	7	Sololá	716	San Marcos la Laguna 	11	San Marcos la laguna 	1	Enero	2023-05-01T00:00:00	2024-11-08T12:00:00	5	Humedad	49
169173	7	Sololá	716	San Marcos la Laguna 	11	San Marcos la laguna 	1	Enero	2023-05-01T00:00:00	2024-11-08T12:00:00	6	Velocidad del viento	30.6
169174	7	Sololá	716	San Marcos la Laguna 	11	San Marcos la laguna 	1	Enero	2023-05-01T00:00:00	2024-11-08T12:00:00	7	Dirección del viento	30.58
169175	7	Sololá	716	San Marcos la Laguna 	11	San Marcos la laguna 	1	Enero	2023-05-01T00:00:00	2024-11-08T12:00:00	1	Precipitación	0
169176	7	Sololá	716	San Marcos la Laguna 	11	San Marcos la laguna 	1	Enero	2023-05-01T00:00:00	2024-11-08T12:00:00	8	Radiación solar	720
169177	7	Sololá	716	San Marcos la Laguna 	11	San Marcos la laguna 	1	Enero	2023-05-01T00:00:00	2024-11-08T13:00:00	2	Temperatura media	20.9
169178	7	Sololá	716	San Marcos la Laguna 	11	San Marcos la laguna 	1	Enero	2023-05-01T00:00:00	2024-11-08T13:00:00	4	Temperatura máxima	22.1
169179	7	Sololá	716	San Marcos la Laguna 	11	San Marcos la laguna 	1	Enero	2023-05-01T00:00:00	2024-11-08T13:00:00	3	Temperatura mínima	20.8
169180	7	Sololá	716	San Marcos la Laguna 	11	San Marcos la laguna 	1	Enero	2023-05-01T00:00:00	2024-11-08T13:00:00	5	Humedad	63
169181	7	Sololá	716	San Marcos la Laguna 	11	San Marcos la laguna 	1	Enero	2023-05-01T00:00:00	2024-11-08T13:00:00	6	Velocidad del viento	22.5
169182	7	Sololá	716	San Marcos la Laguna 	11	San Marcos la laguna 	1	Enero	2023-05-01T00:00:00	2024-11-08T13:00:00	7	Dirección del viento	22.53
169183	7	Sololá	716	San Marcos la Laguna 	11	San Marcos la laguna 	1	Enero	2023-05-01T00:00:00	2024-11-08T13:00:00	1	Precipitación	0
169184	7	Sololá	716	San Marcos la Laguna 	11	San Marcos la laguna 	1	Enero	2023-05-01T00:00:00	2024-11-08T13:00:00	8	Radiación solar	658
169185	7	Sololá	716	San Marcos la Laguna 	11	San Marcos la laguna 	1	Enero	2023-05-01T00:00:00	2024-11-08T14:00:00	2	Temperatura media	21.1
169186	7	Sololá	716	San Marcos la Laguna 	11	San Marcos la laguna 	1	Enero	2023-05-01T00:00:00	2024-11-08T14:00:00	4	Temperatura máxima	21.1
169187	7	Sololá	716	San Marcos la Laguna 	11	San Marcos la laguna 	1	Enero	2023-05-01T00:00:00	2024-11-08T14:00:00	3	Temperatura mínima	20.7
169188	7	Sololá	716	San Marcos la Laguna 	11	San Marcos la laguna 	1	Enero	2023-05-01T00:00:00	2024-11-08T14:00:00	5	Humedad	57
169189	7	Sololá	716	San Marcos la Laguna 	11	San Marcos la laguna 	1	Enero	2023-05-01T00:00:00	2024-11-08T14:00:00	6	Velocidad del viento	17.7
169190	7	Sololá	716	San Marcos la Laguna 	11	San Marcos la laguna 	1	Enero	2023-05-01T00:00:00	2024-11-08T14:00:00	7	Dirección del viento	17.7
169191	7	Sololá	716	San Marcos la Laguna 	11	San Marcos la laguna 	1	Enero	2023-05-01T00:00:00	2024-11-08T14:00:00	1	Precipitación	0
169192	7	Sololá	716	San Marcos la Laguna 	11	San Marcos la laguna 	1	Enero	2023-05-01T00:00:00	2024-11-08T14:00:00	8	Radiación solar	228
169193	7	Sololá	716	San Marcos la Laguna 	11	San Marcos la laguna 	1	Enero	2023-05-01T00:00:00	2024-11-08T15:00:00	2	Temperatura media	20.6
169194	7	Sololá	716	San Marcos la Laguna 	11	San Marcos la laguna 	1	Enero	2023-05-01T00:00:00	2024-11-08T15:00:00	4	Temperatura máxima	21.1
169195	7	Sololá	716	San Marcos la Laguna 	11	San Marcos la laguna 	1	Enero	2023-05-01T00:00:00	2024-11-08T15:00:00	3	Temperatura mínima	20.4
169196	7	Sololá	716	San Marcos la Laguna 	11	San Marcos la laguna 	1	Enero	2023-05-01T00:00:00	2024-11-08T15:00:00	5	Humedad	61
169197	7	Sololá	716	San Marcos la Laguna 	11	San Marcos la laguna 	1	Enero	2023-05-01T00:00:00	2024-11-08T15:00:00	6	Velocidad del viento	11.3
169198	7	Sololá	716	San Marcos la Laguna 	11	San Marcos la laguna 	1	Enero	2023-05-01T00:00:00	2024-11-08T15:00:00	7	Dirección del viento	11.27
169199	7	Sololá	716	San Marcos la Laguna 	11	San Marcos la laguna 	1	Enero	2023-05-01T00:00:00	2024-11-08T15:00:00	1	Precipitación	0
169200	7	Sololá	716	San Marcos la Laguna 	11	San Marcos la laguna 	1	Enero	2023-05-01T00:00:00	2024-11-08T15:00:00	8	Radiación solar	150
169201	7	Sololá	716	San Marcos la Laguna 	11	San Marcos la laguna 	1	Enero	2023-05-01T00:00:00	2024-11-08T16:00:00	2	Temperatura media	20.6
169202	7	Sololá	716	San Marcos la Laguna 	11	San Marcos la laguna 	1	Enero	2023-05-01T00:00:00	2024-11-08T16:00:00	4	Temperatura máxima	21.3
169203	7	Sololá	716	San Marcos la Laguna 	11	San Marcos la laguna 	1	Enero	2023-05-01T00:00:00	2024-11-08T16:00:00	3	Temperatura mínima	20.5
169204	7	Sololá	716	San Marcos la Laguna 	11	San Marcos la laguna 	1	Enero	2023-05-01T00:00:00	2024-11-08T16:00:00	5	Humedad	59
169205	7	Sololá	716	San Marcos la Laguna 	11	San Marcos la laguna 	1	Enero	2023-05-01T00:00:00	2024-11-08T16:00:00	6	Velocidad del viento	8
169206	7	Sololá	716	San Marcos la Laguna 	11	San Marcos la laguna 	1	Enero	2023-05-01T00:00:00	2024-11-08T16:00:00	7	Dirección del viento	8.05
169207	7	Sololá	716	San Marcos la Laguna 	11	San Marcos la laguna 	1	Enero	2023-05-01T00:00:00	2024-11-08T16:00:00	1	Precipitación	0
169208	7	Sololá	716	San Marcos la Laguna 	11	San Marcos la laguna 	1	Enero	2023-05-01T00:00:00	2024-11-08T16:00:00	8	Radiación solar	151
169209	7	Sololá	716	San Marcos la Laguna 	11	San Marcos la laguna 	1	Enero	2023-05-01T00:00:00	2024-11-08T17:00:00	2	Temperatura media	19.6
169210	7	Sololá	716	San Marcos la Laguna 	11	San Marcos la laguna 	1	Enero	2023-05-01T00:00:00	2024-11-08T17:00:00	4	Temperatura máxima	20.6
169211	7	Sololá	716	San Marcos la Laguna 	11	San Marcos la laguna 	1	Enero	2023-05-01T00:00:00	2024-11-08T17:00:00	3	Temperatura mínima	19.6
169212	7	Sololá	716	San Marcos la Laguna 	11	San Marcos la laguna 	1	Enero	2023-05-01T00:00:00	2024-11-08T17:00:00	5	Humedad	64
169213	7	Sololá	716	San Marcos la Laguna 	11	San Marcos la laguna 	1	Enero	2023-05-01T00:00:00	2024-11-08T17:00:00	6	Velocidad del viento	11.3
169214	7	Sololá	716	San Marcos la Laguna 	11	San Marcos la laguna 	1	Enero	2023-05-01T00:00:00	2024-11-08T17:00:00	7	Dirección del viento	11.27
169215	7	Sololá	716	San Marcos la Laguna 	11	San Marcos la laguna 	1	Enero	2023-05-01T00:00:00	2024-11-08T17:00:00	1	Precipitación	0
169216	7	Sololá	716	San Marcos la Laguna 	11	San Marcos la laguna 	1	Enero	2023-05-01T00:00:00	2024-11-08T17:00:00	8	Radiación solar	64
169217	7	Sololá	716	San Marcos la Laguna 	11	San Marcos la laguna 	1	Enero	2023-05-01T00:00:00	2024-11-08T18:00:00	2	Temperatura media	19.5
169218	7	Sololá	716	San Marcos la Laguna 	11	San Marcos la laguna 	1	Enero	2023-05-01T00:00:00	2024-11-08T18:00:00	4	Temperatura máxima	19.6
169219	7	Sololá	716	San Marcos la Laguna 	11	San Marcos la laguna 	1	Enero	2023-05-01T00:00:00	2024-11-08T18:00:00	3	Temperatura mínima	19
169220	7	Sololá	716	San Marcos la Laguna 	11	San Marcos la laguna 	1	Enero	2023-05-01T00:00:00	2024-11-08T18:00:00	5	Humedad	56
169221	7	Sololá	716	San Marcos la Laguna 	11	San Marcos la laguna 	1	Enero	2023-05-01T00:00:00	2024-11-08T18:00:00	6	Velocidad del viento	14.5
169222	7	Sololá	716	San Marcos la Laguna 	11	San Marcos la laguna 	1	Enero	2023-05-01T00:00:00	2024-11-08T18:00:00	7	Dirección del viento	14.48
169223	7	Sololá	716	San Marcos la Laguna 	11	San Marcos la laguna 	1	Enero	2023-05-01T00:00:00	2024-11-08T18:00:00	1	Precipitación	0
169224	7	Sololá	716	San Marcos la Laguna 	11	San Marcos la laguna 	1	Enero	2023-05-01T00:00:00	2024-11-08T18:00:00	8	Radiación solar	11
169225	7	Sololá	716	San Marcos la Laguna 	11	San Marcos la laguna 	1	Enero	2023-05-01T00:00:00	2024-11-08T19:00:00	2	Temperatura media	18.4
169226	7	Sololá	716	San Marcos la Laguna 	11	San Marcos la laguna 	1	Enero	2023-05-01T00:00:00	2024-11-08T19:00:00	4	Temperatura máxima	19.5
169227	7	Sololá	716	San Marcos la Laguna 	11	San Marcos la laguna 	1	Enero	2023-05-01T00:00:00	2024-11-08T19:00:00	3	Temperatura mínima	18.4
169228	7	Sololá	716	San Marcos la Laguna 	11	San Marcos la laguna 	1	Enero	2023-05-01T00:00:00	2024-11-08T19:00:00	5	Humedad	65
169229	7	Sololá	716	San Marcos la Laguna 	11	San Marcos la laguna 	1	Enero	2023-05-01T00:00:00	2024-11-08T19:00:00	6	Velocidad del viento	16.1
169230	7	Sololá	716	San Marcos la Laguna 	11	San Marcos la laguna 	1	Enero	2023-05-01T00:00:00	2024-11-08T19:00:00	7	Dirección del viento	16.09
169231	7	Sololá	716	San Marcos la Laguna 	11	San Marcos la laguna 	1	Enero	2023-05-01T00:00:00	2024-11-08T19:00:00	1	Precipitación	0
169232	7	Sololá	716	San Marcos la Laguna 	11	San Marcos la laguna 	1	Enero	2023-05-01T00:00:00	2024-11-08T19:00:00	8	Radiación solar	0
169233	7	Sololá	716	San Marcos la Laguna 	11	San Marcos la laguna 	1	Enero	2023-05-01T00:00:00	2024-11-08T20:00:00	2	Temperatura media	18.5
169234	7	Sololá	716	San Marcos la Laguna 	11	San Marcos la laguna 	1	Enero	2023-05-01T00:00:00	2024-11-08T20:00:00	4	Temperatura máxima	18.6
169235	7	Sololá	716	San Marcos la Laguna 	11	San Marcos la laguna 	1	Enero	2023-05-01T00:00:00	2024-11-08T20:00:00	3	Temperatura mínima	18.3
169236	7	Sololá	716	San Marcos la Laguna 	11	San Marcos la laguna 	1	Enero	2023-05-01T00:00:00	2024-11-08T20:00:00	5	Humedad	63
169237	7	Sololá	716	San Marcos la Laguna 	11	San Marcos la laguna 	1	Enero	2023-05-01T00:00:00	2024-11-08T20:00:00	6	Velocidad del viento	14.5
169238	7	Sololá	716	San Marcos la Laguna 	11	San Marcos la laguna 	1	Enero	2023-05-01T00:00:00	2024-11-08T20:00:00	7	Dirección del viento	14.48
169239	7	Sololá	716	San Marcos la Laguna 	11	San Marcos la laguna 	1	Enero	2023-05-01T00:00:00	2024-11-08T20:00:00	1	Precipitación	0
169240	7	Sololá	716	San Marcos la Laguna 	11	San Marcos la laguna 	1	Enero	2023-05-01T00:00:00	2024-11-08T20:00:00	8	Radiación solar	0
169241	7	Sololá	716	San Marcos la Laguna 	11	San Marcos la laguna 	1	Enero	2023-05-01T00:00:00	2024-11-08T21:00:00	2	Temperatura media	18.2
169242	7	Sololá	716	San Marcos la Laguna 	11	San Marcos la laguna 	1	Enero	2023-05-01T00:00:00	2024-11-08T21:00:00	4	Temperatura máxima	18.5
169243	7	Sololá	716	San Marcos la Laguna 	11	San Marcos la laguna 	1	Enero	2023-05-01T00:00:00	2024-11-08T21:00:00	3	Temperatura mínima	18.2
169244	7	Sololá	716	San Marcos la Laguna 	11	San Marcos la laguna 	1	Enero	2023-05-01T00:00:00	2024-11-08T21:00:00	5	Humedad	61
169245	7	Sololá	716	San Marcos la Laguna 	11	San Marcos la laguna 	1	Enero	2023-05-01T00:00:00	2024-11-08T21:00:00	6	Velocidad del viento	17.7
169246	7	Sololá	716	San Marcos la Laguna 	11	San Marcos la laguna 	1	Enero	2023-05-01T00:00:00	2024-11-08T21:00:00	7	Dirección del viento	17.7
169247	7	Sololá	716	San Marcos la Laguna 	11	San Marcos la laguna 	1	Enero	2023-05-01T00:00:00	2024-11-08T21:00:00	1	Precipitación	0
169248	7	Sololá	716	San Marcos la Laguna 	11	San Marcos la laguna 	1	Enero	2023-05-01T00:00:00	2024-11-08T21:00:00	8	Radiación solar	0
169249	7	Sololá	716	San Marcos la Laguna 	11	San Marcos la laguna 	1	Enero	2023-05-01T00:00:00	2024-11-08T22:00:00	2	Temperatura media	17.9
169250	7	Sololá	716	San Marcos la Laguna 	11	San Marcos la laguna 	1	Enero	2023-05-01T00:00:00	2024-11-08T22:00:00	4	Temperatura máxima	18.3
169251	7	Sololá	716	San Marcos la Laguna 	11	San Marcos la laguna 	1	Enero	2023-05-01T00:00:00	2024-11-08T22:00:00	3	Temperatura mínima	17.9
169252	7	Sololá	716	San Marcos la Laguna 	11	San Marcos la laguna 	1	Enero	2023-05-01T00:00:00	2024-11-08T22:00:00	5	Humedad	61
169253	7	Sololá	716	San Marcos la Laguna 	11	San Marcos la laguna 	1	Enero	2023-05-01T00:00:00	2024-11-08T22:00:00	6	Velocidad del viento	20.9
169254	7	Sololá	716	San Marcos la Laguna 	11	San Marcos la laguna 	1	Enero	2023-05-01T00:00:00	2024-11-08T22:00:00	7	Dirección del viento	20.92
169255	7	Sololá	716	San Marcos la Laguna 	11	San Marcos la laguna 	1	Enero	2023-05-01T00:00:00	2024-11-08T22:00:00	1	Precipitación	0
169256	7	Sololá	716	San Marcos la Laguna 	11	San Marcos la laguna 	1	Enero	2023-05-01T00:00:00	2024-11-08T22:00:00	8	Radiación solar	0
169257	7	Sololá	716	San Marcos la Laguna 	11	San Marcos la laguna 	1	Enero	2023-05-01T00:00:00	2024-11-08T23:00:00	2	Temperatura media	17
169258	7	Sololá	716	San Marcos la Laguna 	11	San Marcos la laguna 	1	Enero	2023-05-01T00:00:00	2024-11-08T23:00:00	4	Temperatura máxima	18.2
169259	7	Sololá	716	San Marcos la Laguna 	11	San Marcos la laguna 	1	Enero	2023-05-01T00:00:00	2024-11-08T23:00:00	3	Temperatura mínima	16.3
169260	7	Sololá	716	San Marcos la Laguna 	11	San Marcos la laguna 	1	Enero	2023-05-01T00:00:00	2024-11-08T23:00:00	5	Humedad	57
169261	7	Sololá	716	San Marcos la Laguna 	11	San Marcos la laguna 	1	Enero	2023-05-01T00:00:00	2024-11-08T23:00:00	6	Velocidad del viento	11.3
169262	7	Sololá	716	San Marcos la Laguna 	11	San Marcos la laguna 	1	Enero	2023-05-01T00:00:00	2024-11-08T23:00:00	7	Dirección del viento	11.27
169263	7	Sololá	716	San Marcos la Laguna 	11	San Marcos la laguna 	1	Enero	2023-05-01T00:00:00	2024-11-08T23:00:00	1	Precipitación	0
169264	7	Sololá	716	San Marcos la Laguna 	11	San Marcos la laguna 	1	Enero	2023-05-01T00:00:00	2024-11-08T23:00:00	8	Radiación solar	0
169265	7	Sololá	716	San Marcos la Laguna 	11	San Marcos la laguna 	1	Enero	2023-06-01T00:00:00	2024-11-08T00:00:00	2	Temperatura media	14.9
169266	7	Sololá	716	San Marcos la Laguna 	11	San Marcos la laguna 	1	Enero	2023-06-01T00:00:00	2024-11-08T00:00:00	4	Temperatura máxima	17.9
169267	7	Sololá	716	San Marcos la Laguna 	11	San Marcos la laguna 	1	Enero	2023-06-01T00:00:00	2024-11-08T00:00:00	3	Temperatura mínima	14.9
169268	7	Sololá	716	San Marcos la Laguna 	11	San Marcos la laguna 	1	Enero	2023-06-01T00:00:00	2024-11-08T00:00:00	5	Humedad	63
169269	7	Sololá	716	San Marcos la Laguna 	11	San Marcos la laguna 	1	Enero	2023-06-01T00:00:00	2024-11-08T00:00:00	6	Velocidad del viento	9.7
169270	7	Sololá	716	San Marcos la Laguna 	11	San Marcos la laguna 	1	Enero	2023-06-01T00:00:00	2024-11-08T00:00:00	7	Dirección del viento	9.66
169271	7	Sololá	716	San Marcos la Laguna 	11	San Marcos la laguna 	1	Enero	2023-06-01T00:00:00	2024-11-08T00:00:00	1	Precipitación	0
169272	7	Sololá	716	San Marcos la Laguna 	11	San Marcos la laguna 	1	Enero	2023-06-01T00:00:00	2024-11-08T00:00:00	8	Radiación solar	0
169273	7	Sololá	716	San Marcos la Laguna 	11	San Marcos la laguna 	1	Enero	2023-06-01T00:00:00	2024-11-08T01:00:00	2	Temperatura media	18.2
169274	7	Sololá	716	San Marcos la Laguna 	11	San Marcos la laguna 	1	Enero	2023-06-01T00:00:00	2024-11-08T01:00:00	4	Temperatura máxima	18.2
169275	7	Sololá	716	San Marcos la Laguna 	11	San Marcos la laguna 	1	Enero	2023-06-01T00:00:00	2024-11-08T01:00:00	3	Temperatura mínima	14.6
169276	7	Sololá	716	San Marcos la Laguna 	11	San Marcos la laguna 	1	Enero	2023-06-01T00:00:00	2024-11-08T01:00:00	5	Humedad	55
169277	7	Sololá	716	San Marcos la Laguna 	11	San Marcos la laguna 	1	Enero	2023-06-01T00:00:00	2024-11-08T01:00:00	6	Velocidad del viento	14.5
169278	7	Sololá	716	San Marcos la Laguna 	11	San Marcos la laguna 	1	Enero	2023-06-01T00:00:00	2024-11-08T01:00:00	7	Dirección del viento	14.48
169279	7	Sololá	716	San Marcos la Laguna 	11	San Marcos la laguna 	1	Enero	2023-06-01T00:00:00	2024-11-08T01:00:00	1	Precipitación	0
169280	7	Sololá	716	San Marcos la Laguna 	11	San Marcos la laguna 	1	Enero	2023-06-01T00:00:00	2024-11-08T01:00:00	8	Radiación solar	0
169281	7	Sololá	716	San Marcos la Laguna 	11	San Marcos la laguna 	1	Enero	2023-06-01T00:00:00	2024-11-08T02:00:00	2	Temperatura media	17.8
169282	7	Sololá	716	San Marcos la Laguna 	11	San Marcos la laguna 	1	Enero	2023-06-01T00:00:00	2024-11-08T02:00:00	4	Temperatura máxima	18.8
169283	7	Sololá	716	San Marcos la Laguna 	11	San Marcos la laguna 	1	Enero	2023-06-01T00:00:00	2024-11-08T02:00:00	3	Temperatura mínima	17.7
169284	7	Sololá	716	San Marcos la Laguna 	11	San Marcos la laguna 	1	Enero	2023-06-01T00:00:00	2024-11-08T02:00:00	5	Humedad	42
169285	7	Sololá	716	San Marcos la Laguna 	11	San Marcos la laguna 	1	Enero	2023-06-01T00:00:00	2024-11-08T02:00:00	6	Velocidad del viento	17.7
169286	7	Sololá	716	San Marcos la Laguna 	11	San Marcos la laguna 	1	Enero	2023-06-01T00:00:00	2024-11-08T02:00:00	7	Dirección del viento	17.7
169287	7	Sololá	716	San Marcos la Laguna 	11	San Marcos la laguna 	1	Enero	2023-06-01T00:00:00	2024-11-08T02:00:00	1	Precipitación	0
169288	7	Sololá	716	San Marcos la Laguna 	11	San Marcos la laguna 	1	Enero	2023-06-01T00:00:00	2024-11-08T02:00:00	8	Radiación solar	0
169289	7	Sololá	716	San Marcos la Laguna 	11	San Marcos la laguna 	1	Enero	2023-06-01T00:00:00	2024-11-08T03:00:00	2	Temperatura media	18.7
169290	7	Sololá	716	San Marcos la Laguna 	11	San Marcos la laguna 	1	Enero	2023-06-01T00:00:00	2024-11-08T03:00:00	4	Temperatura máxima	18.7
169291	7	Sololá	716	San Marcos la Laguna 	11	San Marcos la laguna 	1	Enero	2023-06-01T00:00:00	2024-11-08T03:00:00	3	Temperatura mínima	17.8
169292	7	Sololá	716	San Marcos la Laguna 	11	San Marcos la laguna 	1	Enero	2023-06-01T00:00:00	2024-11-08T03:00:00	5	Humedad	43
169293	7	Sololá	716	San Marcos la Laguna 	11	San Marcos la laguna 	1	Enero	2023-06-01T00:00:00	2024-11-08T03:00:00	6	Velocidad del viento	8
169294	7	Sololá	716	San Marcos la Laguna 	11	San Marcos la laguna 	1	Enero	2023-06-01T00:00:00	2024-11-08T03:00:00	7	Dirección del viento	8.05
169295	7	Sololá	716	San Marcos la Laguna 	11	San Marcos la laguna 	1	Enero	2023-06-01T00:00:00	2024-11-08T03:00:00	1	Precipitación	0
169296	7	Sololá	716	San Marcos la Laguna 	11	San Marcos la laguna 	1	Enero	2023-06-01T00:00:00	2024-11-08T03:00:00	8	Radiación solar	0
169297	7	Sololá	716	San Marcos la Laguna 	11	San Marcos la laguna 	1	Enero	2023-06-01T00:00:00	2024-11-08T04:00:00	2	Temperatura media	17.6
169298	7	Sololá	716	San Marcos la Laguna 	11	San Marcos la laguna 	1	Enero	2023-06-01T00:00:00	2024-11-08T04:00:00	4	Temperatura máxima	18.8
169299	7	Sololá	716	San Marcos la Laguna 	11	San Marcos la laguna 	1	Enero	2023-06-01T00:00:00	2024-11-08T04:00:00	3	Temperatura mínima	17.6
169300	7	Sololá	716	San Marcos la Laguna 	11	San Marcos la laguna 	1	Enero	2023-06-01T00:00:00	2024-11-08T04:00:00	5	Humedad	47
169301	7	Sololá	716	San Marcos la Laguna 	11	San Marcos la laguna 	1	Enero	2023-06-01T00:00:00	2024-11-08T04:00:00	6	Velocidad del viento	24.1
169302	7	Sololá	716	San Marcos la Laguna 	11	San Marcos la laguna 	1	Enero	2023-06-01T00:00:00	2024-11-08T04:00:00	7	Dirección del viento	24.14
169303	7	Sololá	716	San Marcos la Laguna 	11	San Marcos la laguna 	1	Enero	2023-06-01T00:00:00	2024-11-08T04:00:00	1	Precipitación	0
169304	7	Sololá	716	San Marcos la Laguna 	11	San Marcos la laguna 	1	Enero	2023-06-01T00:00:00	2024-11-08T04:00:00	8	Radiación solar	0
169305	7	Sololá	716	San Marcos la Laguna 	11	San Marcos la laguna 	1	Enero	2023-06-01T00:00:00	2024-11-08T05:00:00	2	Temperatura media	18.7
169306	7	Sololá	716	San Marcos la Laguna 	11	San Marcos la laguna 	1	Enero	2023-06-01T00:00:00	2024-11-08T05:00:00	4	Temperatura máxima	18.8
169307	7	Sololá	716	San Marcos la Laguna 	11	San Marcos la laguna 	1	Enero	2023-06-01T00:00:00	2024-11-08T05:00:00	3	Temperatura mínima	17.4
169308	7	Sololá	716	San Marcos la Laguna 	11	San Marcos la laguna 	1	Enero	2023-06-01T00:00:00	2024-11-08T05:00:00	5	Humedad	39
169309	7	Sololá	716	San Marcos la Laguna 	11	San Marcos la laguna 	1	Enero	2023-06-01T00:00:00	2024-11-08T05:00:00	6	Velocidad del viento	19.3
169310	7	Sololá	716	San Marcos la Laguna 	11	San Marcos la laguna 	1	Enero	2023-06-01T00:00:00	2024-11-08T05:00:00	7	Dirección del viento	19.31
169311	7	Sololá	716	San Marcos la Laguna 	11	San Marcos la laguna 	1	Enero	2023-06-01T00:00:00	2024-11-08T05:00:00	1	Precipitación	0
169312	7	Sololá	716	San Marcos la Laguna 	11	San Marcos la laguna 	1	Enero	2023-06-01T00:00:00	2024-11-08T05:00:00	8	Radiación solar	0
169313	7	Sololá	716	San Marcos la Laguna 	11	San Marcos la laguna 	1	Enero	2023-06-01T00:00:00	2024-11-08T06:00:00	2	Temperatura media	15.4
169314	7	Sololá	716	San Marcos la Laguna 	11	San Marcos la laguna 	1	Enero	2023-06-01T00:00:00	2024-11-08T06:00:00	4	Temperatura máxima	18.7
169315	7	Sololá	716	San Marcos la Laguna 	11	San Marcos la laguna 	1	Enero	2023-06-01T00:00:00	2024-11-08T06:00:00	3	Temperatura mínima	15.4
169316	7	Sololá	716	San Marcos la Laguna 	11	San Marcos la laguna 	1	Enero	2023-06-01T00:00:00	2024-11-08T06:00:00	5	Humedad	54
169317	7	Sololá	716	San Marcos la Laguna 	11	San Marcos la laguna 	1	Enero	2023-06-01T00:00:00	2024-11-08T06:00:00	6	Velocidad del viento	6.4
169318	7	Sololá	716	San Marcos la Laguna 	11	San Marcos la laguna 	1	Enero	2023-06-01T00:00:00	2024-11-08T06:00:00	7	Dirección del viento	6.44
169319	7	Sololá	716	San Marcos la Laguna 	11	San Marcos la laguna 	1	Enero	2023-06-01T00:00:00	2024-11-08T06:00:00	1	Precipitación	0
169320	7	Sololá	716	San Marcos la Laguna 	11	San Marcos la laguna 	1	Enero	2023-06-01T00:00:00	2024-11-08T06:00:00	8	Radiación solar	0
169321	7	Sololá	716	San Marcos la Laguna 	11	San Marcos la laguna 	1	Enero	2023-06-01T00:00:00	2024-11-08T07:00:00	2	Temperatura media	14.8
169322	7	Sololá	716	San Marcos la Laguna 	11	San Marcos la laguna 	1	Enero	2023-06-01T00:00:00	2024-11-08T07:00:00	4	Temperatura máxima	15.4
169323	7	Sololá	716	San Marcos la Laguna 	11	San Marcos la laguna 	1	Enero	2023-06-01T00:00:00	2024-11-08T07:00:00	3	Temperatura mínima	13.9
169324	7	Sololá	716	San Marcos la Laguna 	11	San Marcos la laguna 	1	Enero	2023-06-01T00:00:00	2024-11-08T07:00:00	5	Humedad	56
169325	7	Sololá	716	San Marcos la Laguna 	11	San Marcos la laguna 	1	Enero	2023-06-01T00:00:00	2024-11-08T07:00:00	6	Velocidad del viento	3.2
169326	7	Sololá	716	San Marcos la Laguna 	11	San Marcos la laguna 	1	Enero	2023-06-01T00:00:00	2024-11-08T07:00:00	7	Dirección del viento	3.22
169327	7	Sololá	716	San Marcos la Laguna 	11	San Marcos la laguna 	1	Enero	2023-06-01T00:00:00	2024-11-08T07:00:00	1	Precipitación	0
169328	7	Sololá	716	San Marcos la Laguna 	11	San Marcos la laguna 	1	Enero	2023-06-01T00:00:00	2024-11-08T07:00:00	8	Radiación solar	5
169329	7	Sololá	716	San Marcos la Laguna 	11	San Marcos la laguna 	1	Enero	2023-06-01T00:00:00	2024-11-08T08:00:00	2	Temperatura media	18.4
169330	7	Sololá	716	San Marcos la Laguna 	11	San Marcos la laguna 	1	Enero	2023-06-01T00:00:00	2024-11-08T08:00:00	4	Temperatura máxima	18.4
169331	7	Sololá	716	San Marcos la Laguna 	11	San Marcos la laguna 	1	Enero	2023-06-01T00:00:00	2024-11-08T08:00:00	3	Temperatura mínima	14.8
169332	7	Sololá	716	San Marcos la Laguna 	11	San Marcos la laguna 	1	Enero	2023-06-01T00:00:00	2024-11-08T08:00:00	5	Humedad	49
169333	7	Sololá	716	San Marcos la Laguna 	11	San Marcos la laguna 	1	Enero	2023-06-01T00:00:00	2024-11-08T08:00:00	6	Velocidad del viento	4.8
169334	7	Sololá	716	San Marcos la Laguna 	11	San Marcos la laguna 	1	Enero	2023-06-01T00:00:00	2024-11-08T08:00:00	7	Dirección del viento	4.83
169335	7	Sololá	716	San Marcos la Laguna 	11	San Marcos la laguna 	1	Enero	2023-06-01T00:00:00	2024-11-08T08:00:00	1	Precipitación	0
169336	7	Sololá	716	San Marcos la Laguna 	11	San Marcos la laguna 	1	Enero	2023-06-01T00:00:00	2024-11-08T08:00:00	8	Radiación solar	118
169337	7	Sololá	716	San Marcos la Laguna 	11	San Marcos la laguna 	1	Enero	2023-06-01T00:00:00	2024-11-08T09:00:00	2	Temperatura media	19.7
169338	7	Sololá	716	San Marcos la Laguna 	11	San Marcos la laguna 	1	Enero	2023-06-01T00:00:00	2024-11-08T09:00:00	4	Temperatura máxima	19.7
169339	7	Sololá	716	San Marcos la Laguna 	11	San Marcos la laguna 	1	Enero	2023-06-01T00:00:00	2024-11-08T09:00:00	3	Temperatura mínima	18.4
169340	7	Sololá	716	San Marcos la Laguna 	11	San Marcos la laguna 	1	Enero	2023-06-01T00:00:00	2024-11-08T09:00:00	5	Humedad	41
169341	7	Sololá	716	San Marcos la Laguna 	11	San Marcos la laguna 	1	Enero	2023-06-01T00:00:00	2024-11-08T09:00:00	6	Velocidad del viento	27.4
169342	7	Sololá	716	San Marcos la Laguna 	11	San Marcos la laguna 	1	Enero	2023-06-01T00:00:00	2024-11-08T09:00:00	7	Dirección del viento	27.36
169343	7	Sololá	716	San Marcos la Laguna 	11	San Marcos la laguna 	1	Enero	2023-06-01T00:00:00	2024-11-08T09:00:00	1	Precipitación	0
169344	7	Sololá	716	San Marcos la Laguna 	11	San Marcos la laguna 	1	Enero	2023-06-01T00:00:00	2024-11-08T09:00:00	8	Radiación solar	331
169345	7	Sololá	716	San Marcos la Laguna 	11	San Marcos la laguna 	1	Enero	2023-06-01T00:00:00	2024-11-08T10:00:00	2	Temperatura media	20.8
169346	7	Sololá	716	San Marcos la Laguna 	11	San Marcos la laguna 	1	Enero	2023-06-01T00:00:00	2024-11-08T10:00:00	4	Temperatura máxima	21.2
169347	7	Sololá	716	San Marcos la Laguna 	11	San Marcos la laguna 	1	Enero	2023-06-01T00:00:00	2024-11-08T10:00:00	3	Temperatura mínima	19.6
169348	7	Sololá	716	San Marcos la Laguna 	11	San Marcos la laguna 	1	Enero	2023-06-01T00:00:00	2024-11-08T10:00:00	5	Humedad	47
169349	7	Sololá	716	San Marcos la Laguna 	11	San Marcos la laguna 	1	Enero	2023-06-01T00:00:00	2024-11-08T10:00:00	6	Velocidad del viento	25.7
169350	7	Sololá	716	San Marcos la Laguna 	11	San Marcos la laguna 	1	Enero	2023-06-01T00:00:00	2024-11-08T10:00:00	7	Dirección del viento	25.75
169351	7	Sololá	716	San Marcos la Laguna 	11	San Marcos la laguna 	1	Enero	2023-06-01T00:00:00	2024-11-08T10:00:00	1	Precipitación	0
169352	7	Sololá	716	San Marcos la Laguna 	11	San Marcos la laguna 	1	Enero	2023-06-01T00:00:00	2024-11-08T10:00:00	8	Radiación solar	514
169353	7	Sololá	716	San Marcos la Laguna 	11	San Marcos la laguna 	1	Enero	2023-06-01T00:00:00	2024-11-08T11:00:00	2	Temperatura media	22.1
169354	7	Sololá	716	San Marcos la Laguna 	11	San Marcos la laguna 	1	Enero	2023-06-01T00:00:00	2024-11-08T11:00:00	4	Temperatura máxima	22.4
169355	7	Sololá	716	San Marcos la Laguna 	11	San Marcos la laguna 	1	Enero	2023-06-01T00:00:00	2024-11-08T11:00:00	3	Temperatura mínima	20.3
169356	7	Sololá	716	San Marcos la Laguna 	11	San Marcos la laguna 	1	Enero	2023-06-01T00:00:00	2024-11-08T11:00:00	5	Humedad	49
169357	7	Sololá	716	San Marcos la Laguna 	11	San Marcos la laguna 	1	Enero	2023-06-01T00:00:00	2024-11-08T11:00:00	6	Velocidad del viento	25.7
169358	7	Sololá	716	San Marcos la Laguna 	11	San Marcos la laguna 	1	Enero	2023-06-01T00:00:00	2024-11-08T11:00:00	7	Dirección del viento	25.75
169359	7	Sololá	716	San Marcos la Laguna 	11	San Marcos la laguna 	1	Enero	2023-06-01T00:00:00	2024-11-08T11:00:00	1	Precipitación	0
169360	7	Sololá	716	San Marcos la Laguna 	11	San Marcos la laguna 	1	Enero	2023-06-01T00:00:00	2024-11-08T11:00:00	8	Radiación solar	541
169361	7	Sololá	716	San Marcos la Laguna 	11	San Marcos la laguna 	1	Enero	2023-06-01T00:00:00	2024-11-08T12:00:00	2	Temperatura media	21.8
169362	7	Sololá	716	San Marcos la Laguna 	11	San Marcos la laguna 	1	Enero	2023-06-01T00:00:00	2024-11-08T12:00:00	4	Temperatura máxima	22.4
169363	7	Sololá	716	San Marcos la Laguna 	11	San Marcos la laguna 	1	Enero	2023-06-01T00:00:00	2024-11-08T12:00:00	3	Temperatura mínima	21.6
169364	7	Sololá	716	San Marcos la Laguna 	11	San Marcos la laguna 	1	Enero	2023-06-01T00:00:00	2024-11-08T12:00:00	5	Humedad	49
169365	7	Sololá	716	San Marcos la Laguna 	11	San Marcos la laguna 	1	Enero	2023-06-01T00:00:00	2024-11-08T12:00:00	6	Velocidad del viento	20.9
169366	7	Sololá	716	San Marcos la Laguna 	11	San Marcos la laguna 	1	Enero	2023-06-01T00:00:00	2024-11-08T12:00:00	7	Dirección del viento	20.92
169367	7	Sololá	716	San Marcos la Laguna 	11	San Marcos la laguna 	1	Enero	2023-06-01T00:00:00	2024-11-08T12:00:00	1	Precipitación	0
169368	7	Sololá	716	San Marcos la Laguna 	11	San Marcos la laguna 	1	Enero	2023-06-01T00:00:00	2024-11-08T12:00:00	8	Radiación solar	716
169369	7	Sololá	716	San Marcos la Laguna 	11	San Marcos la laguna 	1	Enero	2023-06-01T00:00:00	2024-11-08T13:00:00	2	Temperatura media	21.9
169370	7	Sololá	716	San Marcos la Laguna 	11	San Marcos la laguna 	1	Enero	2023-06-01T00:00:00	2024-11-08T13:00:00	4	Temperatura máxima	22
169371	7	Sololá	716	San Marcos la Laguna 	11	San Marcos la laguna 	1	Enero	2023-06-01T00:00:00	2024-11-08T13:00:00	3	Temperatura mínima	21.6
169372	7	Sololá	716	San Marcos la Laguna 	11	San Marcos la laguna 	1	Enero	2023-06-01T00:00:00	2024-11-08T13:00:00	5	Humedad	47
169373	7	Sololá	716	San Marcos la Laguna 	11	San Marcos la laguna 	1	Enero	2023-06-01T00:00:00	2024-11-08T13:00:00	6	Velocidad del viento	22.5
169374	7	Sololá	716	San Marcos la Laguna 	11	San Marcos la laguna 	1	Enero	2023-06-01T00:00:00	2024-11-08T13:00:00	7	Dirección del viento	22.53
169375	7	Sololá	716	San Marcos la Laguna 	11	San Marcos la laguna 	1	Enero	2023-06-01T00:00:00	2024-11-08T13:00:00	1	Precipitación	0
169376	7	Sololá	716	San Marcos la Laguna 	11	San Marcos la laguna 	1	Enero	2023-06-01T00:00:00	2024-11-08T13:00:00	8	Radiación solar	743
169377	7	Sololá	716	San Marcos la Laguna 	11	San Marcos la laguna 	1	Enero	2023-06-01T00:00:00	2024-11-08T14:00:00	2	Temperatura media	22.3
169378	7	Sololá	716	San Marcos la Laguna 	11	San Marcos la laguna 	1	Enero	2023-06-01T00:00:00	2024-11-08T14:00:00	4	Temperatura máxima	22.4
169379	7	Sololá	716	San Marcos la Laguna 	11	San Marcos la laguna 	1	Enero	2023-06-01T00:00:00	2024-11-08T14:00:00	3	Temperatura mínima	21.8
169380	7	Sololá	716	San Marcos la Laguna 	11	San Marcos la laguna 	1	Enero	2023-06-01T00:00:00	2024-11-08T14:00:00	5	Humedad	45
169381	7	Sololá	716	San Marcos la Laguna 	11	San Marcos la laguna 	1	Enero	2023-06-01T00:00:00	2024-11-08T14:00:00	6	Velocidad del viento	22.5
169382	7	Sololá	716	San Marcos la Laguna 	11	San Marcos la laguna 	1	Enero	2023-06-01T00:00:00	2024-11-08T14:00:00	7	Dirección del viento	22.53
169383	7	Sololá	716	San Marcos la Laguna 	11	San Marcos la laguna 	1	Enero	2023-06-01T00:00:00	2024-11-08T14:00:00	1	Precipitación	0
169384	7	Sololá	716	San Marcos la Laguna 	11	San Marcos la laguna 	1	Enero	2023-06-01T00:00:00	2024-11-08T14:00:00	8	Radiación solar	691
169385	7	Sololá	716	San Marcos la Laguna 	11	San Marcos la laguna 	1	Enero	2023-06-01T00:00:00	2024-11-08T15:00:00	2	Temperatura media	22.7
169386	7	Sololá	716	San Marcos la Laguna 	11	San Marcos la laguna 	1	Enero	2023-06-01T00:00:00	2024-11-08T15:00:00	4	Temperatura máxima	22.7
169387	7	Sololá	716	San Marcos la Laguna 	11	San Marcos la laguna 	1	Enero	2023-06-01T00:00:00	2024-11-08T15:00:00	3	Temperatura mínima	22.3
169388	7	Sololá	716	San Marcos la Laguna 	11	San Marcos la laguna 	1	Enero	2023-06-01T00:00:00	2024-11-08T15:00:00	5	Humedad	47
169389	7	Sololá	716	San Marcos la Laguna 	11	San Marcos la laguna 	1	Enero	2023-06-01T00:00:00	2024-11-08T15:00:00	6	Velocidad del viento	17.7
169390	7	Sololá	716	San Marcos la Laguna 	11	San Marcos la laguna 	1	Enero	2023-06-01T00:00:00	2024-11-08T15:00:00	7	Dirección del viento	17.7
169391	7	Sololá	716	San Marcos la Laguna 	11	San Marcos la laguna 	1	Enero	2023-06-01T00:00:00	2024-11-08T15:00:00	1	Precipitación	0
169392	7	Sololá	716	San Marcos la Laguna 	11	San Marcos la laguna 	1	Enero	2023-06-01T00:00:00	2024-11-08T15:00:00	8	Radiación solar	587
169393	7	Sololá	716	San Marcos la Laguna 	11	San Marcos la laguna 	1	Enero	2023-06-01T00:00:00	2024-11-08T16:00:00	2	Temperatura media	22.3
169394	7	Sololá	716	San Marcos la Laguna 	11	San Marcos la laguna 	1	Enero	2023-06-01T00:00:00	2024-11-08T16:00:00	4	Temperatura máxima	22.9
169395	7	Sololá	716	San Marcos la Laguna 	11	San Marcos la laguna 	1	Enero	2023-06-01T00:00:00	2024-11-08T16:00:00	3	Temperatura mínima	22.2
169396	7	Sololá	716	San Marcos la Laguna 	11	San Marcos la laguna 	1	Enero	2023-06-01T00:00:00	2024-11-08T16:00:00	5	Humedad	48
169397	7	Sololá	716	San Marcos la Laguna 	11	San Marcos la laguna 	1	Enero	2023-06-01T00:00:00	2024-11-08T16:00:00	6	Velocidad del viento	16.1
169398	7	Sololá	716	San Marcos la Laguna 	11	San Marcos la laguna 	1	Enero	2023-06-01T00:00:00	2024-11-08T16:00:00	7	Dirección del viento	16.09
169399	7	Sololá	716	San Marcos la Laguna 	11	San Marcos la laguna 	1	Enero	2023-06-01T00:00:00	2024-11-08T16:00:00	1	Precipitación	0
169400	7	Sololá	716	San Marcos la Laguna 	11	San Marcos la laguna 	1	Enero	2023-06-01T00:00:00	2024-11-08T16:00:00	8	Radiación solar	448
169401	7	Sololá	716	San Marcos la Laguna 	11	San Marcos la laguna 	1	Enero	2023-06-01T00:00:00	2024-11-08T17:00:00	2	Temperatura media	20.8
169402	7	Sololá	716	San Marcos la Laguna 	11	San Marcos la laguna 	1	Enero	2023-06-01T00:00:00	2024-11-08T17:00:00	4	Temperatura máxima	22.4
169403	7	Sololá	716	San Marcos la Laguna 	11	San Marcos la laguna 	1	Enero	2023-06-01T00:00:00	2024-11-08T17:00:00	3	Temperatura mínima	20.8
169404	7	Sololá	716	San Marcos la Laguna 	11	San Marcos la laguna 	1	Enero	2023-06-01T00:00:00	2024-11-08T17:00:00	5	Humedad	52
169405	7	Sololá	716	San Marcos la Laguna 	11	San Marcos la laguna 	1	Enero	2023-06-01T00:00:00	2024-11-08T17:00:00	6	Velocidad del viento	17.7
169406	7	Sololá	716	San Marcos la Laguna 	11	San Marcos la laguna 	1	Enero	2023-06-01T00:00:00	2024-11-08T17:00:00	7	Dirección del viento	17.7
169407	7	Sololá	716	San Marcos la Laguna 	11	San Marcos la laguna 	1	Enero	2023-06-01T00:00:00	2024-11-08T17:00:00	1	Precipitación	0
169408	7	Sololá	716	San Marcos la Laguna 	11	San Marcos la laguna 	1	Enero	2023-06-01T00:00:00	2024-11-08T17:00:00	8	Radiación solar	108
169409	7	Sololá	716	San Marcos la Laguna 	11	San Marcos la laguna 	1	Enero	2023-06-01T00:00:00	2024-11-08T18:00:00	2	Temperatura media	19.9
169410	7	Sololá	716	San Marcos la Laguna 	11	San Marcos la laguna 	1	Enero	2023-06-01T00:00:00	2024-11-08T18:00:00	4	Temperatura máxima	20.9
169411	7	Sololá	716	San Marcos la Laguna 	11	San Marcos la laguna 	1	Enero	2023-06-01T00:00:00	2024-11-08T18:00:00	3	Temperatura mínima	19.9
169412	7	Sololá	716	San Marcos la Laguna 	11	San Marcos la laguna 	1	Enero	2023-06-01T00:00:00	2024-11-08T18:00:00	5	Humedad	53
169413	7	Sololá	716	San Marcos la Laguna 	11	San Marcos la laguna 	1	Enero	2023-06-01T00:00:00	2024-11-08T18:00:00	6	Velocidad del viento	8
169414	7	Sololá	716	San Marcos la Laguna 	11	San Marcos la laguna 	1	Enero	2023-06-01T00:00:00	2024-11-08T18:00:00	7	Dirección del viento	8.05
169415	7	Sololá	716	San Marcos la Laguna 	11	San Marcos la laguna 	1	Enero	2023-06-01T00:00:00	2024-11-08T18:00:00	1	Precipitación	0
169416	7	Sololá	716	San Marcos la Laguna 	11	San Marcos la laguna 	1	Enero	2023-06-01T00:00:00	2024-11-08T18:00:00	8	Radiación solar	18
169417	7	Sololá	716	San Marcos la Laguna 	11	San Marcos la laguna 	1	Enero	2023-06-01T00:00:00	2024-11-08T19:00:00	2	Temperatura media	19.7
169418	7	Sololá	716	San Marcos la Laguna 	11	San Marcos la laguna 	1	Enero	2023-06-01T00:00:00	2024-11-08T19:00:00	4	Temperatura máxima	20
169419	7	Sololá	716	San Marcos la Laguna 	11	San Marcos la laguna 	1	Enero	2023-06-01T00:00:00	2024-11-08T19:00:00	3	Temperatura mínima	19.6
169420	7	Sololá	716	San Marcos la Laguna 	11	San Marcos la laguna 	1	Enero	2023-06-01T00:00:00	2024-11-08T19:00:00	5	Humedad	51
169421	7	Sololá	716	San Marcos la Laguna 	11	San Marcos la laguna 	1	Enero	2023-06-01T00:00:00	2024-11-08T19:00:00	6	Velocidad del viento	9.7
169422	7	Sololá	716	San Marcos la Laguna 	11	San Marcos la laguna 	1	Enero	2023-06-01T00:00:00	2024-11-08T19:00:00	7	Dirección del viento	9.66
169423	7	Sololá	716	San Marcos la Laguna 	11	San Marcos la laguna 	1	Enero	2023-06-01T00:00:00	2024-11-08T19:00:00	1	Precipitación	0
169424	7	Sololá	716	San Marcos la Laguna 	11	San Marcos la laguna 	1	Enero	2023-06-01T00:00:00	2024-11-08T19:00:00	8	Radiación solar	0
169425	7	Sololá	716	San Marcos la Laguna 	11	San Marcos la laguna 	1	Enero	2023-06-01T00:00:00	2024-11-08T20:00:00	2	Temperatura media	19.2
169426	7	Sololá	716	San Marcos la Laguna 	11	San Marcos la laguna 	1	Enero	2023-06-01T00:00:00	2024-11-08T20:00:00	4	Temperatura máxima	19.7
169427	7	Sololá	716	San Marcos la Laguna 	11	San Marcos la laguna 	1	Enero	2023-06-01T00:00:00	2024-11-08T20:00:00	3	Temperatura mínima	19.1
169428	7	Sololá	716	San Marcos la Laguna 	11	San Marcos la laguna 	1	Enero	2023-06-01T00:00:00	2024-11-08T20:00:00	5	Humedad	59
169429	7	Sololá	716	San Marcos la Laguna 	11	San Marcos la laguna 	1	Enero	2023-06-01T00:00:00	2024-11-08T20:00:00	6	Velocidad del viento	14.5
169430	7	Sololá	716	San Marcos la Laguna 	11	San Marcos la laguna 	1	Enero	2023-06-01T00:00:00	2024-11-08T20:00:00	7	Dirección del viento	14.48
169431	7	Sololá	716	San Marcos la Laguna 	11	San Marcos la laguna 	1	Enero	2023-06-01T00:00:00	2024-11-08T20:00:00	1	Precipitación	0
169432	7	Sololá	716	San Marcos la Laguna 	11	San Marcos la laguna 	1	Enero	2023-06-01T00:00:00	2024-11-08T20:00:00	8	Radiación solar	0
169433	7	Sololá	716	San Marcos la Laguna 	11	San Marcos la laguna 	1	Enero	2023-06-01T00:00:00	2024-11-08T21:00:00	2	Temperatura media	19.3
169434	7	Sololá	716	San Marcos la Laguna 	11	San Marcos la laguna 	1	Enero	2023-06-01T00:00:00	2024-11-08T21:00:00	4	Temperatura máxima	19.8
169435	7	Sololá	716	San Marcos la Laguna 	11	San Marcos la laguna 	1	Enero	2023-06-01T00:00:00	2024-11-08T21:00:00	3	Temperatura mínima	19.2
169436	7	Sololá	716	San Marcos la Laguna 	11	San Marcos la laguna 	1	Enero	2023-06-01T00:00:00	2024-11-08T21:00:00	5	Humedad	55
169437	7	Sololá	716	San Marcos la Laguna 	11	San Marcos la laguna 	1	Enero	2023-06-01T00:00:00	2024-11-08T21:00:00	6	Velocidad del viento	17.7
169438	7	Sololá	716	San Marcos la Laguna 	11	San Marcos la laguna 	1	Enero	2023-06-01T00:00:00	2024-11-08T21:00:00	7	Dirección del viento	17.7
169439	7	Sololá	716	San Marcos la Laguna 	11	San Marcos la laguna 	1	Enero	2023-06-01T00:00:00	2024-11-08T21:00:00	1	Precipitación	0
169440	7	Sololá	716	San Marcos la Laguna 	11	San Marcos la laguna 	1	Enero	2023-06-01T00:00:00	2024-11-08T21:00:00	8	Radiación solar	0
169441	7	Sololá	716	San Marcos la Laguna 	11	San Marcos la laguna 	1	Enero	2023-06-01T00:00:00	2024-11-08T22:00:00	2	Temperatura media	18.5
169442	7	Sololá	716	San Marcos la Laguna 	11	San Marcos la laguna 	1	Enero	2023-06-01T00:00:00	2024-11-08T22:00:00	4	Temperatura máxima	19.3
169443	7	Sololá	716	San Marcos la Laguna 	11	San Marcos la laguna 	1	Enero	2023-06-01T00:00:00	2024-11-08T22:00:00	3	Temperatura mínima	18.4
169444	7	Sololá	716	San Marcos la Laguna 	11	San Marcos la laguna 	1	Enero	2023-06-01T00:00:00	2024-11-08T22:00:00	5	Humedad	64
169445	7	Sololá	716	San Marcos la Laguna 	11	San Marcos la laguna 	1	Enero	2023-06-01T00:00:00	2024-11-08T22:00:00	6	Velocidad del viento	20.9
169446	7	Sololá	716	San Marcos la Laguna 	11	San Marcos la laguna 	1	Enero	2023-06-01T00:00:00	2024-11-08T22:00:00	7	Dirección del viento	20.92
169447	7	Sololá	716	San Marcos la Laguna 	11	San Marcos la laguna 	1	Enero	2023-06-01T00:00:00	2024-11-08T22:00:00	1	Precipitación	0
169448	7	Sololá	716	San Marcos la Laguna 	11	San Marcos la laguna 	1	Enero	2023-06-01T00:00:00	2024-11-08T22:00:00	8	Radiación solar	0
169449	7	Sololá	716	San Marcos la Laguna 	11	San Marcos la laguna 	1	Enero	2023-06-01T00:00:00	2024-11-08T23:00:00	2	Temperatura media	17.4
169450	7	Sololá	716	San Marcos la Laguna 	11	San Marcos la laguna 	1	Enero	2023-06-01T00:00:00	2024-11-08T23:00:00	4	Temperatura máxima	18.7
169451	7	Sololá	716	San Marcos la Laguna 	11	San Marcos la laguna 	1	Enero	2023-06-01T00:00:00	2024-11-08T23:00:00	3	Temperatura mínima	17.3
169452	7	Sololá	716	San Marcos la Laguna 	11	San Marcos la laguna 	1	Enero	2023-06-01T00:00:00	2024-11-08T23:00:00	5	Humedad	65
169453	7	Sololá	716	San Marcos la Laguna 	11	San Marcos la laguna 	1	Enero	2023-06-01T00:00:00	2024-11-08T23:00:00	6	Velocidad del viento	12.9
169454	7	Sololá	716	San Marcos la Laguna 	11	San Marcos la laguna 	1	Enero	2023-06-01T00:00:00	2024-11-08T23:00:00	7	Dirección del viento	12.87
169455	7	Sololá	716	San Marcos la Laguna 	11	San Marcos la laguna 	1	Enero	2023-06-01T00:00:00	2024-11-08T23:00:00	1	Precipitación	0
169456	7	Sololá	716	San Marcos la Laguna 	11	San Marcos la laguna 	1	Enero	2023-06-01T00:00:00	2024-11-08T23:00:00	8	Radiación solar	0
169457	7	Sololá	716	San Marcos la Laguna 	11	San Marcos la laguna 	1	Enero	2023-07-01T00:00:00	2024-11-08T00:00:00	2	Temperatura media	17.9
169458	7	Sololá	716	San Marcos la Laguna 	11	San Marcos la laguna 	1	Enero	2023-07-01T00:00:00	2024-11-08T00:00:00	4	Temperatura máxima	18.2
169459	7	Sololá	716	San Marcos la Laguna 	11	San Marcos la laguna 	1	Enero	2023-07-01T00:00:00	2024-11-08T00:00:00	3	Temperatura mínima	16.3
169460	7	Sololá	716	San Marcos la Laguna 	11	San Marcos la laguna 	1	Enero	2023-07-01T00:00:00	2024-11-08T00:00:00	5	Humedad	66
169461	7	Sololá	716	San Marcos la Laguna 	11	San Marcos la laguna 	1	Enero	2023-07-01T00:00:00	2024-11-08T00:00:00	6	Velocidad del viento	9.7
169462	7	Sololá	716	San Marcos la Laguna 	11	San Marcos la laguna 	1	Enero	2023-07-01T00:00:00	2024-11-08T00:00:00	7	Dirección del viento	9.66
169463	7	Sololá	716	San Marcos la Laguna 	11	San Marcos la laguna 	1	Enero	2023-07-01T00:00:00	2024-11-08T00:00:00	1	Precipitación	0
169464	7	Sololá	716	San Marcos la Laguna 	11	San Marcos la laguna 	1	Enero	2023-07-01T00:00:00	2024-11-08T00:00:00	8	Radiación solar	0
169465	7	Sololá	716	San Marcos la Laguna 	11	San Marcos la laguna 	1	Enero	2023-07-01T00:00:00	2024-11-08T01:00:00	2	Temperatura media	15.1
169466	7	Sololá	716	San Marcos la Laguna 	11	San Marcos la laguna 	1	Enero	2023-07-01T00:00:00	2024-11-08T01:00:00	4	Temperatura máxima	18.4
169467	7	Sololá	716	San Marcos la Laguna 	11	San Marcos la laguna 	1	Enero	2023-07-01T00:00:00	2024-11-08T01:00:00	3	Temperatura mínima	15.1
169468	7	Sololá	716	San Marcos la Laguna 	11	San Marcos la laguna 	1	Enero	2023-07-01T00:00:00	2024-11-08T01:00:00	5	Humedad	74
169469	7	Sololá	716	San Marcos la Laguna 	11	San Marcos la laguna 	1	Enero	2023-07-01T00:00:00	2024-11-08T01:00:00	6	Velocidad del viento	6.4
169470	7	Sololá	716	San Marcos la Laguna 	11	San Marcos la laguna 	1	Enero	2023-07-01T00:00:00	2024-11-08T01:00:00	7	Dirección del viento	6.44
169471	7	Sololá	716	San Marcos la Laguna 	11	San Marcos la laguna 	1	Enero	2023-07-01T00:00:00	2024-11-08T01:00:00	1	Precipitación	0
169472	7	Sololá	716	San Marcos la Laguna 	11	San Marcos la laguna 	1	Enero	2023-07-01T00:00:00	2024-11-08T01:00:00	8	Radiación solar	0
169473	7	Sololá	716	San Marcos la Laguna 	11	San Marcos la laguna 	1	Enero	2023-07-01T00:00:00	2024-11-08T02:00:00	2	Temperatura media	14.8
169474	7	Sololá	716	San Marcos la Laguna 	11	San Marcos la laguna 	1	Enero	2023-07-01T00:00:00	2024-11-08T02:00:00	4	Temperatura máxima	15.1
169475	7	Sololá	716	San Marcos la Laguna 	11	San Marcos la laguna 	1	Enero	2023-07-01T00:00:00	2024-11-08T02:00:00	3	Temperatura mínima	14.7
169476	7	Sololá	716	San Marcos la Laguna 	11	San Marcos la laguna 	1	Enero	2023-07-01T00:00:00	2024-11-08T02:00:00	5	Humedad	75
169477	7	Sololá	716	San Marcos la Laguna 	11	San Marcos la laguna 	1	Enero	2023-07-01T00:00:00	2024-11-08T02:00:00	6	Velocidad del viento	3.2
169478	7	Sololá	716	San Marcos la Laguna 	11	San Marcos la laguna 	1	Enero	2023-07-01T00:00:00	2024-11-08T02:00:00	7	Dirección del viento	3.22
169479	7	Sololá	716	San Marcos la Laguna 	11	San Marcos la laguna 	1	Enero	2023-07-01T00:00:00	2024-11-08T02:00:00	1	Precipitación	0
169480	7	Sololá	716	San Marcos la Laguna 	11	San Marcos la laguna 	1	Enero	2023-07-01T00:00:00	2024-11-08T02:00:00	8	Radiación solar	0
169481	7	Sololá	716	San Marcos la Laguna 	11	San Marcos la laguna 	1	Enero	2023-07-01T00:00:00	2024-11-08T03:00:00	2	Temperatura media	14.7
169482	7	Sololá	716	San Marcos la Laguna 	11	San Marcos la laguna 	1	Enero	2023-07-01T00:00:00	2024-11-08T03:00:00	4	Temperatura máxima	15.4
169483	7	Sololá	716	San Marcos la Laguna 	11	San Marcos la laguna 	1	Enero	2023-07-01T00:00:00	2024-11-08T03:00:00	3	Temperatura mínima	14.6
169484	7	Sololá	716	San Marcos la Laguna 	11	San Marcos la laguna 	1	Enero	2023-07-01T00:00:00	2024-11-08T03:00:00	5	Humedad	77
169485	7	Sololá	716	San Marcos la Laguna 	11	San Marcos la laguna 	1	Enero	2023-07-01T00:00:00	2024-11-08T03:00:00	6	Velocidad del viento	4.8
169486	7	Sololá	716	San Marcos la Laguna 	11	San Marcos la laguna 	1	Enero	2023-07-01T00:00:00	2024-11-08T03:00:00	7	Dirección del viento	4.83
169487	7	Sololá	716	San Marcos la Laguna 	11	San Marcos la laguna 	1	Enero	2023-07-01T00:00:00	2024-11-08T03:00:00	1	Precipitación	0
169488	7	Sololá	716	San Marcos la Laguna 	11	San Marcos la laguna 	1	Enero	2023-07-01T00:00:00	2024-11-08T03:00:00	8	Radiación solar	0
169489	7	Sololá	716	San Marcos la Laguna 	11	San Marcos la laguna 	1	Enero	2023-07-01T00:00:00	2024-11-08T04:00:00	2	Temperatura media	14.4
169490	7	Sololá	716	San Marcos la Laguna 	11	San Marcos la laguna 	1	Enero	2023-07-01T00:00:00	2024-11-08T04:00:00	4	Temperatura máxima	15.4
169491	7	Sololá	716	San Marcos la Laguna 	11	San Marcos la laguna 	1	Enero	2023-07-01T00:00:00	2024-11-08T04:00:00	3	Temperatura mínima	14.3
169492	7	Sololá	716	San Marcos la Laguna 	11	San Marcos la laguna 	1	Enero	2023-07-01T00:00:00	2024-11-08T04:00:00	5	Humedad	78
169493	7	Sololá	716	San Marcos la Laguna 	11	San Marcos la laguna 	1	Enero	2023-07-01T00:00:00	2024-11-08T04:00:00	6	Velocidad del viento	4.8
169494	7	Sololá	716	San Marcos la Laguna 	11	San Marcos la laguna 	1	Enero	2023-07-01T00:00:00	2024-11-08T04:00:00	7	Dirección del viento	4.83
169495	7	Sololá	716	San Marcos la Laguna 	11	San Marcos la laguna 	1	Enero	2023-07-01T00:00:00	2024-11-08T04:00:00	1	Precipitación	0
169496	7	Sololá	716	San Marcos la Laguna 	11	San Marcos la laguna 	1	Enero	2023-07-01T00:00:00	2024-11-08T04:00:00	8	Radiación solar	0
169497	7	Sololá	716	San Marcos la Laguna 	11	San Marcos la laguna 	1	Enero	2023-07-01T00:00:00	2024-11-08T05:00:00	2	Temperatura media	14.8
169498	7	Sololá	716	San Marcos la Laguna 	11	San Marcos la laguna 	1	Enero	2023-07-01T00:00:00	2024-11-08T05:00:00	4	Temperatura máxima	15.1
169499	7	Sololá	716	San Marcos la Laguna 	11	San Marcos la laguna 	1	Enero	2023-07-01T00:00:00	2024-11-08T05:00:00	3	Temperatura mínima	14.3
169500	7	Sololá	716	San Marcos la Laguna 	11	San Marcos la laguna 	1	Enero	2023-07-01T00:00:00	2024-11-08T05:00:00	5	Humedad	78
169501	7	Sololá	716	San Marcos la Laguna 	11	San Marcos la laguna 	1	Enero	2023-07-01T00:00:00	2024-11-08T05:00:00	6	Velocidad del viento	6.4
169502	7	Sololá	716	San Marcos la Laguna 	11	San Marcos la laguna 	1	Enero	2023-07-01T00:00:00	2024-11-08T05:00:00	7	Dirección del viento	6.44
169503	7	Sololá	716	San Marcos la Laguna 	11	San Marcos la laguna 	1	Enero	2023-07-01T00:00:00	2024-11-08T05:00:00	1	Precipitación	0
169504	7	Sololá	716	San Marcos la Laguna 	11	San Marcos la laguna 	1	Enero	2023-07-01T00:00:00	2024-11-08T05:00:00	8	Radiación solar	0
169505	7	Sololá	716	San Marcos la Laguna 	11	San Marcos la laguna 	1	Enero	2023-07-01T00:00:00	2024-11-08T06:00:00	2	Temperatura media	14.4
169506	7	Sololá	716	San Marcos la Laguna 	11	San Marcos la laguna 	1	Enero	2023-07-01T00:00:00	2024-11-08T06:00:00	4	Temperatura máxima	15.2
169507	7	Sololá	716	San Marcos la Laguna 	11	San Marcos la laguna 	1	Enero	2023-07-01T00:00:00	2024-11-08T06:00:00	3	Temperatura mínima	14
169508	7	Sololá	716	San Marcos la Laguna 	11	San Marcos la laguna 	1	Enero	2023-07-01T00:00:00	2024-11-08T06:00:00	5	Humedad	80
169509	7	Sololá	716	San Marcos la Laguna 	11	San Marcos la laguna 	1	Enero	2023-07-01T00:00:00	2024-11-08T06:00:00	6	Velocidad del viento	6.4
169510	7	Sololá	716	San Marcos la Laguna 	11	San Marcos la laguna 	1	Enero	2023-07-01T00:00:00	2024-11-08T06:00:00	7	Dirección del viento	6.44
169511	7	Sololá	716	San Marcos la Laguna 	11	San Marcos la laguna 	1	Enero	2023-07-01T00:00:00	2024-11-08T06:00:00	1	Precipitación	0
169512	7	Sololá	716	San Marcos la Laguna 	11	San Marcos la laguna 	1	Enero	2023-07-01T00:00:00	2024-11-08T06:00:00	8	Radiación solar	0
169513	7	Sololá	716	San Marcos la Laguna 	11	San Marcos la laguna 	1	Enero	2023-07-01T00:00:00	2024-11-08T07:00:00	2	Temperatura media	14.6
169514	7	Sololá	716	San Marcos la Laguna 	11	San Marcos la laguna 	1	Enero	2023-07-01T00:00:00	2024-11-08T07:00:00	4	Temperatura máxima	15
169515	7	Sololá	716	San Marcos la Laguna 	11	San Marcos la laguna 	1	Enero	2023-07-01T00:00:00	2024-11-08T07:00:00	3	Temperatura mínima	13.7
169516	7	Sololá	716	San Marcos la Laguna 	11	San Marcos la laguna 	1	Enero	2023-07-01T00:00:00	2024-11-08T07:00:00	5	Humedad	80
169517	7	Sololá	716	San Marcos la Laguna 	11	San Marcos la laguna 	1	Enero	2023-07-01T00:00:00	2024-11-08T07:00:00	6	Velocidad del viento	8
169518	7	Sololá	716	San Marcos la Laguna 	11	San Marcos la laguna 	1	Enero	2023-07-01T00:00:00	2024-11-08T07:00:00	7	Dirección del viento	8.05
169519	7	Sololá	716	San Marcos la Laguna 	11	San Marcos la laguna 	1	Enero	2023-07-01T00:00:00	2024-11-08T07:00:00	1	Precipitación	0
169520	7	Sololá	716	San Marcos la Laguna 	11	San Marcos la laguna 	1	Enero	2023-07-01T00:00:00	2024-11-08T07:00:00	8	Radiación solar	6
169521	7	Sololá	716	San Marcos la Laguna 	11	San Marcos la laguna 	1	Enero	2023-07-01T00:00:00	2024-11-08T08:00:00	2	Temperatura media	17.7
169522	7	Sololá	716	San Marcos la Laguna 	11	San Marcos la laguna 	1	Enero	2023-07-01T00:00:00	2024-11-08T08:00:00	4	Temperatura máxima	17.7
169523	7	Sololá	716	San Marcos la Laguna 	11	San Marcos la laguna 	1	Enero	2023-07-01T00:00:00	2024-11-08T08:00:00	3	Temperatura mínima	14.7
169524	7	Sololá	716	San Marcos la Laguna 	11	San Marcos la laguna 	1	Enero	2023-07-01T00:00:00	2024-11-08T08:00:00	5	Humedad	71
169525	7	Sololá	716	San Marcos la Laguna 	11	San Marcos la laguna 	1	Enero	2023-07-01T00:00:00	2024-11-08T08:00:00	6	Velocidad del viento	6.4
169526	7	Sololá	716	San Marcos la Laguna 	11	San Marcos la laguna 	1	Enero	2023-07-01T00:00:00	2024-11-08T08:00:00	7	Dirección del viento	6.44
169527	7	Sololá	716	San Marcos la Laguna 	11	San Marcos la laguna 	1	Enero	2023-07-01T00:00:00	2024-11-08T08:00:00	1	Precipitación	0
169528	7	Sololá	716	San Marcos la Laguna 	11	San Marcos la laguna 	1	Enero	2023-07-01T00:00:00	2024-11-08T08:00:00	8	Radiación solar	86
169529	7	Sololá	716	San Marcos la Laguna 	11	San Marcos la laguna 	1	Enero	2023-07-01T00:00:00	2024-11-08T09:00:00	2	Temperatura media	19.6
169530	7	Sololá	716	San Marcos la Laguna 	11	San Marcos la laguna 	1	Enero	2023-07-01T00:00:00	2024-11-08T09:00:00	4	Temperatura máxima	19.6
169531	7	Sololá	716	San Marcos la Laguna 	11	San Marcos la laguna 	1	Enero	2023-07-01T00:00:00	2024-11-08T09:00:00	3	Temperatura mínima	17.7
169532	7	Sololá	716	San Marcos la Laguna 	11	San Marcos la laguna 	1	Enero	2023-07-01T00:00:00	2024-11-08T09:00:00	5	Humedad	64
169533	7	Sololá	716	San Marcos la Laguna 	11	San Marcos la laguna 	1	Enero	2023-07-01T00:00:00	2024-11-08T09:00:00	6	Velocidad del viento	4.8
169534	7	Sololá	716	San Marcos la Laguna 	11	San Marcos la laguna 	1	Enero	2023-07-01T00:00:00	2024-11-08T09:00:00	7	Dirección del viento	4.83
169535	7	Sololá	716	San Marcos la Laguna 	11	San Marcos la laguna 	1	Enero	2023-07-01T00:00:00	2024-11-08T09:00:00	1	Precipitación	0
169536	7	Sololá	716	San Marcos la Laguna 	11	San Marcos la laguna 	1	Enero	2023-07-01T00:00:00	2024-11-08T09:00:00	8	Radiación solar	218
169537	7	Sololá	716	San Marcos la Laguna 	11	San Marcos la laguna 	1	Enero	2023-07-01T00:00:00	2024-11-08T10:00:00	2	Temperatura media	21.6
169538	7	Sololá	716	San Marcos la Laguna 	11	San Marcos la laguna 	1	Enero	2023-07-01T00:00:00	2024-11-08T10:00:00	4	Temperatura máxima	21.6
169539	7	Sololá	716	San Marcos la Laguna 	11	San Marcos la laguna 	1	Enero	2023-07-01T00:00:00	2024-11-08T10:00:00	3	Temperatura mínima	19.6
169540	7	Sololá	716	San Marcos la Laguna 	11	San Marcos la laguna 	1	Enero	2023-07-01T00:00:00	2024-11-08T10:00:00	5	Humedad	58
169541	7	Sololá	716	San Marcos la Laguna 	11	San Marcos la laguna 	1	Enero	2023-07-01T00:00:00	2024-11-08T10:00:00	6	Velocidad del viento	3.2
169542	7	Sololá	716	San Marcos la Laguna 	11	San Marcos la laguna 	1	Enero	2023-07-01T00:00:00	2024-11-08T10:00:00	7	Dirección del viento	3.22
169543	7	Sololá	716	San Marcos la Laguna 	11	San Marcos la laguna 	1	Enero	2023-07-01T00:00:00	2024-11-08T10:00:00	1	Precipitación	0
169544	7	Sololá	716	San Marcos la Laguna 	11	San Marcos la laguna 	1	Enero	2023-07-01T00:00:00	2024-11-08T10:00:00	8	Radiación solar	528
169545	7	Sololá	716	San Marcos la Laguna 	11	San Marcos la laguna 	1	Enero	2023-07-01T00:00:00	2024-11-08T11:00:00	2	Temperatura media	21.2
169546	7	Sololá	716	San Marcos la Laguna 	11	San Marcos la laguna 	1	Enero	2023-07-01T00:00:00	2024-11-08T11:00:00	4	Temperatura máxima	22
169547	7	Sololá	716	San Marcos la Laguna 	11	San Marcos la laguna 	1	Enero	2023-07-01T00:00:00	2024-11-08T11:00:00	3	Temperatura mínima	20.9
169548	7	Sololá	716	San Marcos la Laguna 	11	San Marcos la laguna 	1	Enero	2023-07-01T00:00:00	2024-11-08T11:00:00	5	Humedad	58
169549	7	Sololá	716	San Marcos la Laguna 	11	San Marcos la laguna 	1	Enero	2023-07-01T00:00:00	2024-11-08T11:00:00	6	Velocidad del viento	14.5
169550	7	Sololá	716	San Marcos la Laguna 	11	San Marcos la laguna 	1	Enero	2023-07-01T00:00:00	2024-11-08T11:00:00	7	Dirección del viento	14.48
169551	7	Sololá	716	San Marcos la Laguna 	11	San Marcos la laguna 	1	Enero	2023-07-01T00:00:00	2024-11-08T11:00:00	1	Precipitación	0
169552	7	Sololá	716	San Marcos la Laguna 	11	San Marcos la laguna 	1	Enero	2023-07-01T00:00:00	2024-11-08T11:00:00	8	Radiación solar	448
169553	7	Sololá	716	San Marcos la Laguna 	11	San Marcos la laguna 	1	Enero	2023-07-01T00:00:00	2024-11-08T12:00:00	2	Temperatura media	21.7
169554	7	Sololá	716	San Marcos la Laguna 	11	San Marcos la laguna 	1	Enero	2023-07-01T00:00:00	2024-11-08T12:00:00	4	Temperatura máxima	21.9
169555	7	Sololá	716	San Marcos la Laguna 	11	San Marcos la laguna 	1	Enero	2023-07-01T00:00:00	2024-11-08T12:00:00	3	Temperatura mínima	21.2
169556	7	Sololá	716	San Marcos la Laguna 	11	San Marcos la laguna 	1	Enero	2023-07-01T00:00:00	2024-11-08T12:00:00	5	Humedad	55
169557	7	Sololá	716	San Marcos la Laguna 	11	San Marcos la laguna 	1	Enero	2023-07-01T00:00:00	2024-11-08T12:00:00	6	Velocidad del viento	24.1
169558	7	Sololá	716	San Marcos la Laguna 	11	San Marcos la laguna 	1	Enero	2023-07-01T00:00:00	2024-11-08T12:00:00	7	Dirección del viento	24.14
169559	7	Sololá	716	San Marcos la Laguna 	11	San Marcos la laguna 	1	Enero	2023-07-01T00:00:00	2024-11-08T12:00:00	1	Precipitación	0
169560	7	Sololá	716	San Marcos la Laguna 	11	San Marcos la laguna 	1	Enero	2023-07-01T00:00:00	2024-11-08T12:00:00	8	Radiación solar	486
169561	7	Sololá	716	San Marcos la Laguna 	11	San Marcos la laguna 	1	Enero	2023-07-01T00:00:00	2024-11-08T13:00:00	2	Temperatura media	23.4
169562	7	Sololá	716	San Marcos la Laguna 	11	San Marcos la laguna 	1	Enero	2023-07-01T00:00:00	2024-11-08T13:00:00	4	Temperatura máxima	23.4
169563	7	Sololá	716	San Marcos la Laguna 	11	San Marcos la laguna 	1	Enero	2023-07-01T00:00:00	2024-11-08T13:00:00	3	Temperatura mínima	21.7
169564	7	Sololá	716	San Marcos la Laguna 	11	San Marcos la laguna 	1	Enero	2023-07-01T00:00:00	2024-11-08T13:00:00	5	Humedad	52
169565	7	Sololá	716	San Marcos la Laguna 	11	San Marcos la laguna 	1	Enero	2023-07-01T00:00:00	2024-11-08T13:00:00	6	Velocidad del viento	14.5
169566	7	Sololá	716	San Marcos la Laguna 	11	San Marcos la laguna 	1	Enero	2023-07-01T00:00:00	2024-11-08T13:00:00	7	Dirección del viento	14.48
169567	7	Sololá	716	San Marcos la Laguna 	11	San Marcos la laguna 	1	Enero	2023-07-01T00:00:00	2024-11-08T13:00:00	1	Precipitación	0
169568	7	Sololá	716	San Marcos la Laguna 	11	San Marcos la laguna 	1	Enero	2023-07-01T00:00:00	2024-11-08T13:00:00	8	Radiación solar	849
169569	7	Sololá	716	San Marcos la Laguna 	11	San Marcos la laguna 	1	Enero	2023-07-01T00:00:00	2024-11-08T14:00:00	2	Temperatura media	22.1
169570	7	Sololá	716	San Marcos la Laguna 	11	San Marcos la laguna 	1	Enero	2023-07-01T00:00:00	2024-11-08T14:00:00	4	Temperatura máxima	23.4
169571	7	Sololá	716	San Marcos la Laguna 	11	San Marcos la laguna 	1	Enero	2023-07-01T00:00:00	2024-11-08T14:00:00	3	Temperatura mínima	21.9
169572	7	Sololá	716	San Marcos la Laguna 	11	San Marcos la laguna 	1	Enero	2023-07-01T00:00:00	2024-11-08T14:00:00	5	Humedad	53
169573	7	Sololá	716	San Marcos la Laguna 	11	San Marcos la laguna 	1	Enero	2023-07-01T00:00:00	2024-11-08T14:00:00	6	Velocidad del viento	17.7
169574	7	Sololá	716	San Marcos la Laguna 	11	San Marcos la laguna 	1	Enero	2023-07-01T00:00:00	2024-11-08T14:00:00	7	Dirección del viento	17.7
169575	7	Sololá	716	San Marcos la Laguna 	11	San Marcos la laguna 	1	Enero	2023-07-01T00:00:00	2024-11-08T14:00:00	1	Precipitación	0
169576	7	Sololá	716	San Marcos la Laguna 	11	San Marcos la laguna 	1	Enero	2023-07-01T00:00:00	2024-11-08T14:00:00	8	Radiación solar	278
169577	7	Sololá	716	San Marcos la Laguna 	11	San Marcos la laguna 	1	Enero	2023-07-01T00:00:00	2024-11-08T15:00:00	2	Temperatura media	21.5
169578	7	Sololá	716	San Marcos la Laguna 	11	San Marcos la laguna 	1	Enero	2023-07-01T00:00:00	2024-11-08T15:00:00	4	Temperatura máxima	22.1
169579	7	Sololá	716	San Marcos la Laguna 	11	San Marcos la laguna 	1	Enero	2023-07-01T00:00:00	2024-11-08T15:00:00	3	Temperatura mínima	21.4
169580	7	Sololá	716	San Marcos la Laguna 	11	San Marcos la laguna 	1	Enero	2023-07-01T00:00:00	2024-11-08T15:00:00	5	Humedad	57
169581	7	Sololá	716	San Marcos la Laguna 	11	San Marcos la laguna 	1	Enero	2023-07-01T00:00:00	2024-11-08T15:00:00	6	Velocidad del viento	14.5
169582	7	Sololá	716	San Marcos la Laguna 	11	San Marcos la laguna 	1	Enero	2023-07-01T00:00:00	2024-11-08T15:00:00	7	Dirección del viento	14.48
169583	7	Sololá	716	San Marcos la Laguna 	11	San Marcos la laguna 	1	Enero	2023-07-01T00:00:00	2024-11-08T15:00:00	1	Precipitación	0
169584	7	Sololá	716	San Marcos la Laguna 	11	San Marcos la laguna 	1	Enero	2023-07-01T00:00:00	2024-11-08T15:00:00	8	Radiación solar	257
169585	7	Sololá	716	San Marcos la Laguna 	11	San Marcos la laguna 	1	Enero	2023-07-01T00:00:00	2024-11-08T16:00:00	2	Temperatura media	21.3
169586	7	Sololá	716	San Marcos la Laguna 	11	San Marcos la laguna 	1	Enero	2023-07-01T00:00:00	2024-11-08T16:00:00	4	Temperatura máxima	21.7
169587	7	Sololá	716	San Marcos la Laguna 	11	San Marcos la laguna 	1	Enero	2023-07-01T00:00:00	2024-11-08T16:00:00	3	Temperatura mínima	21
169588	7	Sololá	716	San Marcos la Laguna 	11	San Marcos la laguna 	1	Enero	2023-07-01T00:00:00	2024-11-08T16:00:00	5	Humedad	55
169589	7	Sololá	716	San Marcos la Laguna 	11	San Marcos la laguna 	1	Enero	2023-07-01T00:00:00	2024-11-08T16:00:00	6	Velocidad del viento	17.7
169590	7	Sololá	716	San Marcos la Laguna 	11	San Marcos la laguna 	1	Enero	2023-07-01T00:00:00	2024-11-08T16:00:00	7	Dirección del viento	17.7
169591	7	Sololá	716	San Marcos la Laguna 	11	San Marcos la laguna 	1	Enero	2023-07-01T00:00:00	2024-11-08T16:00:00	1	Precipitación	0
169592	7	Sololá	716	San Marcos la Laguna 	11	San Marcos la laguna 	1	Enero	2023-07-01T00:00:00	2024-11-08T16:00:00	8	Radiación solar	157
169593	7	Sololá	716	San Marcos la Laguna 	11	San Marcos la laguna 	1	Enero	2023-07-01T00:00:00	2024-11-08T17:00:00	2	Temperatura media	21.2
169594	7	Sololá	716	San Marcos la Laguna 	11	San Marcos la laguna 	1	Enero	2023-07-01T00:00:00	2024-11-08T17:00:00	4	Temperatura máxima	21.3
169595	7	Sololá	716	San Marcos la Laguna 	11	San Marcos la laguna 	1	Enero	2023-07-01T00:00:00	2024-11-08T17:00:00	3	Temperatura mínima	20.7
169596	7	Sololá	716	San Marcos la Laguna 	11	San Marcos la laguna 	1	Enero	2023-07-01T00:00:00	2024-11-08T17:00:00	5	Humedad	53
169597	7	Sololá	716	San Marcos la Laguna 	11	San Marcos la laguna 	1	Enero	2023-07-01T00:00:00	2024-11-08T17:00:00	6	Velocidad del viento	16.1
169598	7	Sololá	716	San Marcos la Laguna 	11	San Marcos la laguna 	1	Enero	2023-07-01T00:00:00	2024-11-08T17:00:00	7	Dirección del viento	16.09
169599	7	Sololá	716	San Marcos la Laguna 	11	San Marcos la laguna 	1	Enero	2023-07-01T00:00:00	2024-11-08T17:00:00	1	Precipitación	0
169600	7	Sololá	716	San Marcos la Laguna 	11	San Marcos la laguna 	1	Enero	2023-07-01T00:00:00	2024-11-08T17:00:00	8	Radiación solar	73
169601	7	Sololá	716	San Marcos la Laguna 	11	San Marcos la laguna 	1	Enero	2023-07-01T00:00:00	2024-11-08T18:00:00	2	Temperatura media	20.1
169602	7	Sololá	716	San Marcos la Laguna 	11	San Marcos la laguna 	1	Enero	2023-07-01T00:00:00	2024-11-08T18:00:00	4	Temperatura máxima	21.2
169603	7	Sololá	716	San Marcos la Laguna 	11	San Marcos la laguna 	1	Enero	2023-07-01T00:00:00	2024-11-08T18:00:00	3	Temperatura mínima	20.1
169604	7	Sololá	716	San Marcos la Laguna 	11	San Marcos la laguna 	1	Enero	2023-07-01T00:00:00	2024-11-08T18:00:00	5	Humedad	57
169605	7	Sololá	716	San Marcos la Laguna 	11	San Marcos la laguna 	1	Enero	2023-07-01T00:00:00	2024-11-08T18:00:00	6	Velocidad del viento	9.7
169606	7	Sololá	716	San Marcos la Laguna 	11	San Marcos la laguna 	1	Enero	2023-07-01T00:00:00	2024-11-08T18:00:00	7	Dirección del viento	9.66
169607	7	Sololá	716	San Marcos la Laguna 	11	San Marcos la laguna 	1	Enero	2023-07-01T00:00:00	2024-11-08T18:00:00	1	Precipitación	0
169608	7	Sololá	716	San Marcos la Laguna 	11	San Marcos la laguna 	1	Enero	2023-07-01T00:00:00	2024-11-08T18:00:00	8	Radiación solar	34
169609	7	Sololá	716	San Marcos la Laguna 	11	San Marcos la laguna 	1	Enero	2023-07-01T00:00:00	2024-11-08T19:00:00	2	Temperatura media	18.2
169610	7	Sololá	716	San Marcos la Laguna 	11	San Marcos la laguna 	1	Enero	2023-07-01T00:00:00	2024-11-08T19:00:00	4	Temperatura máxima	20.2
169611	7	Sololá	716	San Marcos la Laguna 	11	San Marcos la laguna 	1	Enero	2023-07-01T00:00:00	2024-11-08T19:00:00	3	Temperatura mínima	18.2
169612	7	Sololá	716	San Marcos la Laguna 	11	San Marcos la laguna 	1	Enero	2023-07-01T00:00:00	2024-11-08T19:00:00	5	Humedad	67
169613	7	Sololá	716	San Marcos la Laguna 	11	San Marcos la laguna 	1	Enero	2023-07-01T00:00:00	2024-11-08T19:00:00	6	Velocidad del viento	4.8
169614	7	Sololá	716	San Marcos la Laguna 	11	San Marcos la laguna 	1	Enero	2023-07-01T00:00:00	2024-11-08T19:00:00	7	Dirección del viento	4.83
169615	7	Sololá	716	San Marcos la Laguna 	11	San Marcos la laguna 	1	Enero	2023-07-01T00:00:00	2024-11-08T19:00:00	1	Precipitación	0
169616	7	Sololá	716	San Marcos la Laguna 	11	San Marcos la laguna 	1	Enero	2023-07-01T00:00:00	2024-11-08T19:00:00	8	Radiación solar	0
169617	7	Sololá	716	San Marcos la Laguna 	11	San Marcos la laguna 	1	Enero	2023-07-01T00:00:00	2024-11-08T20:00:00	2	Temperatura media	17.9
169618	7	Sololá	716	San Marcos la Laguna 	11	San Marcos la laguna 	1	Enero	2023-07-01T00:00:00	2024-11-08T20:00:00	4	Temperatura máxima	19.2
169619	7	Sololá	716	San Marcos la Laguna 	11	San Marcos la laguna 	1	Enero	2023-07-01T00:00:00	2024-11-08T20:00:00	3	Temperatura mínima	17.6
169620	7	Sololá	716	San Marcos la Laguna 	11	San Marcos la laguna 	1	Enero	2023-07-01T00:00:00	2024-11-08T20:00:00	5	Humedad	66
169621	7	Sololá	716	San Marcos la Laguna 	11	San Marcos la laguna 	1	Enero	2023-07-01T00:00:00	2024-11-08T20:00:00	6	Velocidad del viento	6.4
169622	7	Sololá	716	San Marcos la Laguna 	11	San Marcos la laguna 	1	Enero	2023-07-01T00:00:00	2024-11-08T20:00:00	7	Dirección del viento	6.44
169623	7	Sololá	716	San Marcos la Laguna 	11	San Marcos la laguna 	1	Enero	2023-07-01T00:00:00	2024-11-08T20:00:00	1	Precipitación	0
169624	7	Sololá	716	San Marcos la Laguna 	11	San Marcos la laguna 	1	Enero	2023-07-01T00:00:00	2024-11-08T20:00:00	8	Radiación solar	0
169625	7	Sololá	716	San Marcos la Laguna 	11	San Marcos la laguna 	1	Enero	2023-07-01T00:00:00	2024-11-08T21:00:00	2	Temperatura media	16.2
169626	7	Sololá	716	San Marcos la Laguna 	11	San Marcos la laguna 	1	Enero	2023-07-01T00:00:00	2024-11-08T21:00:00	4	Temperatura máxima	17.9
169627	7	Sololá	716	San Marcos la Laguna 	11	San Marcos la laguna 	1	Enero	2023-07-01T00:00:00	2024-11-08T21:00:00	3	Temperatura mínima	15.9
169628	7	Sololá	716	San Marcos la Laguna 	11	San Marcos la laguna 	1	Enero	2023-07-01T00:00:00	2024-11-08T21:00:00	5	Humedad	73
169629	7	Sololá	716	San Marcos la Laguna 	11	San Marcos la laguna 	1	Enero	2023-07-01T00:00:00	2024-11-08T21:00:00	6	Velocidad del viento	4.8
169630	7	Sololá	716	San Marcos la Laguna 	11	San Marcos la laguna 	1	Enero	2023-07-01T00:00:00	2024-11-08T21:00:00	7	Dirección del viento	4.83
169631	7	Sololá	716	San Marcos la Laguna 	11	San Marcos la laguna 	1	Enero	2023-07-01T00:00:00	2024-11-08T21:00:00	1	Precipitación	0
169632	7	Sololá	716	San Marcos la Laguna 	11	San Marcos la laguna 	1	Enero	2023-07-01T00:00:00	2024-11-08T21:00:00	8	Radiación solar	0
169633	7	Sololá	716	San Marcos la Laguna 	11	San Marcos la laguna 	1	Enero	2023-07-01T00:00:00	2024-11-08T22:00:00	2	Temperatura media	18.6
169634	7	Sololá	716	San Marcos la Laguna 	11	San Marcos la laguna 	1	Enero	2023-07-01T00:00:00	2024-11-08T22:00:00	4	Temperatura máxima	18.6
169635	7	Sololá	716	San Marcos la Laguna 	11	San Marcos la laguna 	1	Enero	2023-07-01T00:00:00	2024-11-08T22:00:00	3	Temperatura mínima	16.2
169636	7	Sololá	716	San Marcos la Laguna 	11	San Marcos la laguna 	1	Enero	2023-07-01T00:00:00	2024-11-08T22:00:00	5	Humedad	58
169637	7	Sololá	716	San Marcos la Laguna 	11	San Marcos la laguna 	1	Enero	2023-07-01T00:00:00	2024-11-08T22:00:00	6	Velocidad del viento	4.8
169638	7	Sololá	716	San Marcos la Laguna 	11	San Marcos la laguna 	1	Enero	2023-07-01T00:00:00	2024-11-08T22:00:00	7	Dirección del viento	4.83
169639	7	Sololá	716	San Marcos la Laguna 	11	San Marcos la laguna 	1	Enero	2023-07-01T00:00:00	2024-11-08T22:00:00	1	Precipitación	0
169640	7	Sololá	716	San Marcos la Laguna 	11	San Marcos la laguna 	1	Enero	2023-07-01T00:00:00	2024-11-08T22:00:00	8	Radiación solar	0
169641	7	Sololá	716	San Marcos la Laguna 	11	San Marcos la laguna 	1	Enero	2023-07-01T00:00:00	2024-11-08T23:00:00	2	Temperatura media	19.3
169642	7	Sololá	716	San Marcos la Laguna 	11	San Marcos la laguna 	1	Enero	2023-07-01T00:00:00	2024-11-08T23:00:00	4	Temperatura máxima	19.3
169643	7	Sololá	716	San Marcos la Laguna 	11	San Marcos la laguna 	1	Enero	2023-07-01T00:00:00	2024-11-08T23:00:00	3	Temperatura mínima	18.4
169644	7	Sololá	716	San Marcos la Laguna 	11	San Marcos la laguna 	1	Enero	2023-07-01T00:00:00	2024-11-08T23:00:00	5	Humedad	56
169645	7	Sololá	716	San Marcos la Laguna 	11	San Marcos la laguna 	1	Enero	2023-07-01T00:00:00	2024-11-08T23:00:00	6	Velocidad del viento	4.8
169646	7	Sololá	716	San Marcos la Laguna 	11	San Marcos la laguna 	1	Enero	2023-07-01T00:00:00	2024-11-08T23:00:00	7	Dirección del viento	4.83
169647	7	Sololá	716	San Marcos la Laguna 	11	San Marcos la laguna 	1	Enero	2023-07-01T00:00:00	2024-11-08T23:00:00	1	Precipitación	0
169648	7	Sololá	716	San Marcos la Laguna 	11	San Marcos la laguna 	1	Enero	2023-07-01T00:00:00	2024-11-08T23:00:00	8	Radiación solar	0
169649	7	Sololá	716	San Marcos la Laguna 	11	San Marcos la laguna 	1	Enero	2023-08-01T00:00:00	2024-11-08T00:00:00	2	Temperatura media	19.8
169650	7	Sololá	716	San Marcos la Laguna 	11	San Marcos la laguna 	1	Enero	2023-08-01T00:00:00	2024-11-08T00:00:00	4	Temperatura máxima	19.8
169651	7	Sololá	716	San Marcos la Laguna 	11	San Marcos la laguna 	1	Enero	2023-08-01T00:00:00	2024-11-08T00:00:00	3	Temperatura mínima	19.3
169652	7	Sololá	716	San Marcos la Laguna 	11	San Marcos la laguna 	1	Enero	2023-08-01T00:00:00	2024-11-08T00:00:00	5	Humedad	57
169653	7	Sololá	716	San Marcos la Laguna 	11	San Marcos la laguna 	1	Enero	2023-08-01T00:00:00	2024-11-08T00:00:00	6	Velocidad del viento	4.8
169654	7	Sololá	716	San Marcos la Laguna 	11	San Marcos la laguna 	1	Enero	2023-08-01T00:00:00	2024-11-08T00:00:00	7	Dirección del viento	4.83
169655	7	Sololá	716	San Marcos la Laguna 	11	San Marcos la laguna 	1	Enero	2023-08-01T00:00:00	2024-11-08T00:00:00	1	Precipitación	0
169656	7	Sololá	716	San Marcos la Laguna 	11	San Marcos la laguna 	1	Enero	2023-08-01T00:00:00	2024-11-08T00:00:00	8	Radiación solar	0
169657	7	Sololá	716	San Marcos la Laguna 	11	San Marcos la laguna 	1	Enero	2023-08-01T00:00:00	2024-11-08T01:00:00	2	Temperatura media	19.1
169658	7	Sololá	716	San Marcos la Laguna 	11	San Marcos la laguna 	1	Enero	2023-08-01T00:00:00	2024-11-08T01:00:00	4	Temperatura máxima	20
169659	7	Sololá	716	San Marcos la Laguna 	11	San Marcos la laguna 	1	Enero	2023-08-01T00:00:00	2024-11-08T01:00:00	3	Temperatura mínima	19.1
169660	7	Sololá	716	San Marcos la Laguna 	11	San Marcos la laguna 	1	Enero	2023-08-01T00:00:00	2024-11-08T01:00:00	5	Humedad	59
169661	7	Sololá	716	San Marcos la Laguna 	11	San Marcos la laguna 	1	Enero	2023-08-01T00:00:00	2024-11-08T01:00:00	6	Velocidad del viento	6.4
169662	7	Sololá	716	San Marcos la Laguna 	11	San Marcos la laguna 	1	Enero	2023-08-01T00:00:00	2024-11-08T01:00:00	7	Dirección del viento	6.44
169663	7	Sololá	716	San Marcos la Laguna 	11	San Marcos la laguna 	1	Enero	2023-08-01T00:00:00	2024-11-08T01:00:00	1	Precipitación	0
169664	7	Sololá	716	San Marcos la Laguna 	11	San Marcos la laguna 	1	Enero	2023-08-01T00:00:00	2024-11-08T01:00:00	8	Radiación solar	0
169665	7	Sololá	716	San Marcos la Laguna 	11	San Marcos la laguna 	1	Enero	2023-08-01T00:00:00	2024-11-08T02:00:00	2	Temperatura media	16.8
169666	7	Sololá	716	San Marcos la Laguna 	11	San Marcos la laguna 	1	Enero	2023-08-01T00:00:00	2024-11-08T02:00:00	4	Temperatura máxima	19.1
169667	7	Sololá	716	San Marcos la Laguna 	11	San Marcos la laguna 	1	Enero	2023-08-01T00:00:00	2024-11-08T02:00:00	3	Temperatura mínima	16.4
169668	7	Sololá	716	San Marcos la Laguna 	11	San Marcos la laguna 	1	Enero	2023-08-01T00:00:00	2024-11-08T02:00:00	5	Humedad	71
169669	7	Sololá	716	San Marcos la Laguna 	11	San Marcos la laguna 	1	Enero	2023-08-01T00:00:00	2024-11-08T02:00:00	6	Velocidad del viento	4.8
169670	7	Sololá	716	San Marcos la Laguna 	11	San Marcos la laguna 	1	Enero	2023-08-01T00:00:00	2024-11-08T02:00:00	7	Dirección del viento	4.83
169671	7	Sololá	716	San Marcos la Laguna 	11	San Marcos la laguna 	1	Enero	2023-08-01T00:00:00	2024-11-08T02:00:00	1	Precipitación	0
169672	7	Sololá	716	San Marcos la Laguna 	11	San Marcos la laguna 	1	Enero	2023-08-01T00:00:00	2024-11-08T02:00:00	8	Radiación solar	0
169673	7	Sololá	716	San Marcos la Laguna 	11	San Marcos la laguna 	1	Enero	2023-08-01T00:00:00	2024-11-08T03:00:00	2	Temperatura media	15.7
169674	7	Sololá	716	San Marcos la Laguna 	11	San Marcos la laguna 	1	Enero	2023-08-01T00:00:00	2024-11-08T03:00:00	4	Temperatura máxima	16.9
169675	7	Sololá	716	San Marcos la Laguna 	11	San Marcos la laguna 	1	Enero	2023-08-01T00:00:00	2024-11-08T03:00:00	3	Temperatura mínima	15.3
169676	7	Sololá	716	San Marcos la Laguna 	11	San Marcos la laguna 	1	Enero	2023-08-01T00:00:00	2024-11-08T03:00:00	5	Humedad	74
169677	7	Sololá	716	San Marcos la Laguna 	11	San Marcos la laguna 	1	Enero	2023-08-01T00:00:00	2024-11-08T03:00:00	6	Velocidad del viento	4.8
169678	7	Sololá	716	San Marcos la Laguna 	11	San Marcos la laguna 	1	Enero	2023-08-01T00:00:00	2024-11-08T03:00:00	7	Dirección del viento	4.83
169679	7	Sololá	716	San Marcos la Laguna 	11	San Marcos la laguna 	1	Enero	2023-08-01T00:00:00	2024-11-08T03:00:00	1	Precipitación	0
169680	7	Sololá	716	San Marcos la Laguna 	11	San Marcos la laguna 	1	Enero	2023-08-01T00:00:00	2024-11-08T03:00:00	8	Radiación solar	0
169681	7	Sololá	716	San Marcos la Laguna 	11	San Marcos la laguna 	1	Enero	2023-08-01T00:00:00	2024-11-08T04:00:00	2	Temperatura media	14.9
169682	7	Sololá	716	San Marcos la Laguna 	11	San Marcos la laguna 	1	Enero	2023-08-01T00:00:00	2024-11-08T04:00:00	4	Temperatura máxima	15.7
169683	7	Sololá	716	San Marcos la Laguna 	11	San Marcos la laguna 	1	Enero	2023-08-01T00:00:00	2024-11-08T04:00:00	3	Temperatura mínima	14.6
169684	7	Sololá	716	San Marcos la Laguna 	11	San Marcos la laguna 	1	Enero	2023-08-01T00:00:00	2024-11-08T04:00:00	5	Humedad	78
169685	7	Sololá	716	San Marcos la Laguna 	11	San Marcos la laguna 	1	Enero	2023-08-01T00:00:00	2024-11-08T04:00:00	6	Velocidad del viento	8
169686	7	Sololá	716	San Marcos la Laguna 	11	San Marcos la laguna 	1	Enero	2023-08-01T00:00:00	2024-11-08T04:00:00	7	Dirección del viento	8.05
169687	7	Sololá	716	San Marcos la Laguna 	11	San Marcos la laguna 	1	Enero	2023-08-01T00:00:00	2024-11-08T04:00:00	1	Precipitación	0
169688	7	Sololá	716	San Marcos la Laguna 	11	San Marcos la laguna 	1	Enero	2023-08-01T00:00:00	2024-11-08T04:00:00	8	Radiación solar	0
169689	7	Sololá	716	San Marcos la Laguna 	11	San Marcos la laguna 	1	Enero	2023-08-01T00:00:00	2024-11-08T05:00:00	2	Temperatura media	14.7
169690	7	Sololá	716	San Marcos la Laguna 	11	San Marcos la laguna 	1	Enero	2023-08-01T00:00:00	2024-11-08T05:00:00	4	Temperatura máxima	15
169691	7	Sololá	716	San Marcos la Laguna 	11	San Marcos la laguna 	1	Enero	2023-08-01T00:00:00	2024-11-08T05:00:00	3	Temperatura mínima	14.3
169692	7	Sololá	716	San Marcos la Laguna 	11	San Marcos la laguna 	1	Enero	2023-08-01T00:00:00	2024-11-08T05:00:00	5	Humedad	79
169693	7	Sololá	716	San Marcos la Laguna 	11	San Marcos la laguna 	1	Enero	2023-08-01T00:00:00	2024-11-08T05:00:00	6	Velocidad del viento	6.4
169694	7	Sololá	716	San Marcos la Laguna 	11	San Marcos la laguna 	1	Enero	2023-08-01T00:00:00	2024-11-08T05:00:00	7	Dirección del viento	6.44
169695	7	Sololá	716	San Marcos la Laguna 	11	San Marcos la laguna 	1	Enero	2023-08-01T00:00:00	2024-11-08T05:00:00	1	Precipitación	0
169696	7	Sololá	716	San Marcos la Laguna 	11	San Marcos la laguna 	1	Enero	2023-08-01T00:00:00	2024-11-08T05:00:00	8	Radiación solar	0
169697	7	Sololá	716	San Marcos la Laguna 	11	San Marcos la laguna 	1	Enero	2023-08-01T00:00:00	2024-11-08T06:00:00	2	Temperatura media	14.7
169698	7	Sololá	716	San Marcos la Laguna 	11	San Marcos la laguna 	1	Enero	2023-08-01T00:00:00	2024-11-08T06:00:00	4	Temperatura máxima	15.3
169699	7	Sololá	716	San Marcos la Laguna 	11	San Marcos la laguna 	1	Enero	2023-08-01T00:00:00	2024-11-08T06:00:00	3	Temperatura mínima	14.1
169700	7	Sololá	716	San Marcos la Laguna 	11	San Marcos la laguna 	1	Enero	2023-08-01T00:00:00	2024-11-08T06:00:00	5	Humedad	80
169701	7	Sololá	716	San Marcos la Laguna 	11	San Marcos la laguna 	1	Enero	2023-08-01T00:00:00	2024-11-08T06:00:00	6	Velocidad del viento	8
169702	7	Sololá	716	San Marcos la Laguna 	11	San Marcos la laguna 	1	Enero	2023-08-01T00:00:00	2024-11-08T06:00:00	7	Dirección del viento	8.05
169703	7	Sololá	716	San Marcos la Laguna 	11	San Marcos la laguna 	1	Enero	2023-08-01T00:00:00	2024-11-08T06:00:00	1	Precipitación	0
169704	7	Sololá	716	San Marcos la Laguna 	11	San Marcos la laguna 	1	Enero	2023-08-01T00:00:00	2024-11-08T06:00:00	8	Radiación solar	0
169705	7	Sololá	716	San Marcos la Laguna 	11	San Marcos la laguna 	1	Enero	2023-08-01T00:00:00	2024-11-08T07:00:00	2	Temperatura media	14.4
169706	7	Sololá	716	San Marcos la Laguna 	11	San Marcos la laguna 	1	Enero	2023-08-01T00:00:00	2024-11-08T07:00:00	4	Temperatura máxima	14.7
169707	7	Sololá	716	San Marcos la Laguna 	11	San Marcos la laguna 	1	Enero	2023-08-01T00:00:00	2024-11-08T07:00:00	3	Temperatura mínima	14.1
169708	7	Sololá	716	San Marcos la Laguna 	11	San Marcos la laguna 	1	Enero	2023-08-01T00:00:00	2024-11-08T07:00:00	5	Humedad	81
169709	7	Sololá	716	San Marcos la Laguna 	11	San Marcos la laguna 	1	Enero	2023-08-01T00:00:00	2024-11-08T07:00:00	6	Velocidad del viento	8
169710	7	Sololá	716	San Marcos la Laguna 	11	San Marcos la laguna 	1	Enero	2023-08-01T00:00:00	2024-11-08T07:00:00	7	Dirección del viento	8.05
169711	7	Sololá	716	San Marcos la Laguna 	11	San Marcos la laguna 	1	Enero	2023-08-01T00:00:00	2024-11-08T07:00:00	1	Precipitación	0
169712	7	Sololá	716	San Marcos la Laguna 	11	San Marcos la laguna 	1	Enero	2023-08-01T00:00:00	2024-11-08T07:00:00	8	Radiación solar	5
169713	7	Sololá	716	San Marcos la Laguna 	11	San Marcos la laguna 	1	Enero	2023-08-01T00:00:00	2024-11-08T08:00:00	2	Temperatura media	18
169714	7	Sololá	716	San Marcos la Laguna 	11	San Marcos la laguna 	1	Enero	2023-08-01T00:00:00	2024-11-08T08:00:00	4	Temperatura máxima	18
169715	7	Sololá	716	San Marcos la Laguna 	11	San Marcos la laguna 	1	Enero	2023-08-01T00:00:00	2024-11-08T08:00:00	3	Temperatura mínima	14.4
169716	7	Sololá	716	San Marcos la Laguna 	11	San Marcos la laguna 	1	Enero	2023-08-01T00:00:00	2024-11-08T08:00:00	5	Humedad	76
169717	7	Sololá	716	San Marcos la Laguna 	11	San Marcos la laguna 	1	Enero	2023-08-01T00:00:00	2024-11-08T08:00:00	6	Velocidad del viento	4.8
169718	7	Sololá	716	San Marcos la Laguna 	11	San Marcos la laguna 	1	Enero	2023-08-01T00:00:00	2024-11-08T08:00:00	7	Dirección del viento	4.83
169719	7	Sololá	716	San Marcos la Laguna 	11	San Marcos la laguna 	1	Enero	2023-08-01T00:00:00	2024-11-08T08:00:00	1	Precipitación	0
169720	7	Sololá	716	San Marcos la Laguna 	11	San Marcos la laguna 	1	Enero	2023-08-01T00:00:00	2024-11-08T08:00:00	8	Radiación solar	113
169721	7	Sololá	716	San Marcos la Laguna 	11	San Marcos la laguna 	1	Enero	2023-08-01T00:00:00	2024-11-08T09:00:00	2	Temperatura media	20
169722	7	Sololá	716	San Marcos la Laguna 	11	San Marcos la laguna 	1	Enero	2023-08-01T00:00:00	2024-11-08T09:00:00	4	Temperatura máxima	20.1
169723	7	Sololá	716	San Marcos la Laguna 	11	San Marcos la laguna 	1	Enero	2023-08-01T00:00:00	2024-11-08T09:00:00	3	Temperatura mínima	18
169724	7	Sololá	716	San Marcos la Laguna 	11	San Marcos la laguna 	1	Enero	2023-08-01T00:00:00	2024-11-08T09:00:00	5	Humedad	67
169725	7	Sololá	716	San Marcos la Laguna 	11	San Marcos la laguna 	1	Enero	2023-08-01T00:00:00	2024-11-08T09:00:00	6	Velocidad del viento	1.6
169726	7	Sololá	716	San Marcos la Laguna 	11	San Marcos la laguna 	1	Enero	2023-08-01T00:00:00	2024-11-08T09:00:00	7	Dirección del viento	1.61
169727	7	Sololá	716	San Marcos la Laguna 	11	San Marcos la laguna 	1	Enero	2023-08-01T00:00:00	2024-11-08T09:00:00	1	Precipitación	0
169728	7	Sololá	716	San Marcos la Laguna 	11	San Marcos la laguna 	1	Enero	2023-08-01T00:00:00	2024-11-08T09:00:00	8	Radiación solar	319
169729	7	Sololá	716	San Marcos la Laguna 	11	San Marcos la laguna 	1	Enero	2023-08-01T00:00:00	2024-11-08T10:00:00	2	Temperatura media	21.1
169730	7	Sololá	716	San Marcos la Laguna 	11	San Marcos la laguna 	1	Enero	2023-08-01T00:00:00	2024-11-08T10:00:00	4	Temperatura máxima	21.1
169731	7	Sololá	716	San Marcos la Laguna 	11	San Marcos la laguna 	1	Enero	2023-08-01T00:00:00	2024-11-08T10:00:00	3	Temperatura mínima	20
169732	7	Sololá	716	San Marcos la Laguna 	11	San Marcos la laguna 	1	Enero	2023-08-01T00:00:00	2024-11-08T10:00:00	5	Humedad	63
169733	7	Sololá	716	San Marcos la Laguna 	11	San Marcos la laguna 	1	Enero	2023-08-01T00:00:00	2024-11-08T10:00:00	6	Velocidad del viento	3.2
169734	7	Sololá	716	San Marcos la Laguna 	11	San Marcos la laguna 	1	Enero	2023-08-01T00:00:00	2024-11-08T10:00:00	7	Dirección del viento	3.22
169735	7	Sololá	716	San Marcos la Laguna 	11	San Marcos la laguna 	1	Enero	2023-08-01T00:00:00	2024-11-08T10:00:00	1	Precipitación	0
169736	7	Sololá	716	San Marcos la Laguna 	11	San Marcos la laguna 	1	Enero	2023-08-01T00:00:00	2024-11-08T10:00:00	8	Radiación solar	504
169737	7	Sololá	716	San Marcos la Laguna 	11	San Marcos la laguna 	1	Enero	2023-08-01T00:00:00	2024-11-08T11:00:00	2	Temperatura media	22.8
169738	7	Sololá	716	San Marcos la Laguna 	11	San Marcos la laguna 	1	Enero	2023-08-01T00:00:00	2024-11-08T11:00:00	4	Temperatura máxima	22.9
169739	7	Sololá	716	San Marcos la Laguna 	11	San Marcos la laguna 	1	Enero	2023-08-01T00:00:00	2024-11-08T11:00:00	3	Temperatura mínima	21.1
169740	7	Sololá	716	San Marcos la Laguna 	11	San Marcos la laguna 	1	Enero	2023-08-01T00:00:00	2024-11-08T11:00:00	5	Humedad	58
169741	7	Sololá	716	San Marcos la Laguna 	11	San Marcos la laguna 	1	Enero	2023-08-01T00:00:00	2024-11-08T11:00:00	6	Velocidad del viento	3.2
169742	7	Sololá	716	San Marcos la Laguna 	11	San Marcos la laguna 	1	Enero	2023-08-01T00:00:00	2024-11-08T11:00:00	7	Dirección del viento	3.22
169743	7	Sololá	716	San Marcos la Laguna 	11	San Marcos la laguna 	1	Enero	2023-08-01T00:00:00	2024-11-08T11:00:00	1	Precipitación	0
169744	7	Sololá	716	San Marcos la Laguna 	11	San Marcos la laguna 	1	Enero	2023-08-01T00:00:00	2024-11-08T11:00:00	8	Radiación solar	545
169745	7	Sololá	716	San Marcos la Laguna 	11	San Marcos la laguna 	1	Enero	2023-08-01T00:00:00	2024-11-08T12:00:00	2	Temperatura media	23.3
169746	7	Sololá	716	San Marcos la Laguna 	11	San Marcos la laguna 	1	Enero	2023-08-01T00:00:00	2024-11-08T12:00:00	4	Temperatura máxima	23.6
169747	7	Sololá	716	San Marcos la Laguna 	11	San Marcos la laguna 	1	Enero	2023-08-01T00:00:00	2024-11-08T12:00:00	3	Temperatura mínima	22.8
169748	7	Sololá	716	San Marcos la Laguna 	11	San Marcos la laguna 	1	Enero	2023-08-01T00:00:00	2024-11-08T12:00:00	5	Humedad	55
169749	7	Sololá	716	San Marcos la Laguna 	11	San Marcos la laguna 	1	Enero	2023-08-01T00:00:00	2024-11-08T12:00:00	6	Velocidad del viento	3.2
169750	7	Sololá	716	San Marcos la Laguna 	11	San Marcos la laguna 	1	Enero	2023-08-01T00:00:00	2024-11-08T12:00:00	7	Dirección del viento	3.22
169751	7	Sololá	716	San Marcos la Laguna 	11	San Marcos la laguna 	1	Enero	2023-08-01T00:00:00	2024-11-08T12:00:00	1	Precipitación	0
169752	7	Sololá	716	San Marcos la Laguna 	11	San Marcos la laguna 	1	Enero	2023-08-01T00:00:00	2024-11-08T12:00:00	8	Radiación solar	726
169753	7	Sololá	716	San Marcos la Laguna 	11	San Marcos la laguna 	1	Enero	2023-08-01T00:00:00	2024-11-08T13:00:00	2	Temperatura media	22.9
169754	7	Sololá	716	San Marcos la Laguna 	11	San Marcos la laguna 	1	Enero	2023-08-01T00:00:00	2024-11-08T13:00:00	4	Temperatura máxima	24
169755	7	Sololá	716	San Marcos la Laguna 	11	San Marcos la laguna 	1	Enero	2023-08-01T00:00:00	2024-11-08T13:00:00	3	Temperatura mínima	22.9
169756	7	Sololá	716	San Marcos la Laguna 	11	San Marcos la laguna 	1	Enero	2023-08-01T00:00:00	2024-11-08T13:00:00	5	Humedad	66
169757	7	Sololá	716	San Marcos la Laguna 	11	San Marcos la laguna 	1	Enero	2023-08-01T00:00:00	2024-11-08T13:00:00	6	Velocidad del viento	4.8
169758	7	Sololá	716	San Marcos la Laguna 	11	San Marcos la laguna 	1	Enero	2023-08-01T00:00:00	2024-11-08T13:00:00	7	Dirección del viento	4.83
169759	7	Sololá	716	San Marcos la Laguna 	11	San Marcos la laguna 	1	Enero	2023-08-01T00:00:00	2024-11-08T13:00:00	1	Precipitación	0
169760	7	Sololá	716	San Marcos la Laguna 	11	San Marcos la laguna 	1	Enero	2023-08-01T00:00:00	2024-11-08T13:00:00	8	Radiación solar	765
169761	7	Sololá	716	San Marcos la Laguna 	11	San Marcos la laguna 	1	Enero	2023-08-01T00:00:00	2024-11-08T14:00:00	2	Temperatura media	23
169762	7	Sololá	716	San Marcos la Laguna 	11	San Marcos la laguna 	1	Enero	2023-08-01T00:00:00	2024-11-08T14:00:00	4	Temperatura máxima	23.4
169763	7	Sololá	716	San Marcos la Laguna 	11	San Marcos la laguna 	1	Enero	2023-08-01T00:00:00	2024-11-08T14:00:00	3	Temperatura mínima	22.8
169764	7	Sololá	716	San Marcos la Laguna 	11	San Marcos la laguna 	1	Enero	2023-08-01T00:00:00	2024-11-08T14:00:00	5	Humedad	68
169765	7	Sololá	716	San Marcos la Laguna 	11	San Marcos la laguna 	1	Enero	2023-08-01T00:00:00	2024-11-08T14:00:00	6	Velocidad del viento	8
169766	7	Sololá	716	San Marcos la Laguna 	11	San Marcos la laguna 	1	Enero	2023-08-01T00:00:00	2024-11-08T14:00:00	7	Dirección del viento	8.05
169767	7	Sololá	716	San Marcos la Laguna 	11	San Marcos la laguna 	1	Enero	2023-08-01T00:00:00	2024-11-08T14:00:00	1	Precipitación	0
169768	7	Sololá	716	San Marcos la Laguna 	11	San Marcos la laguna 	1	Enero	2023-08-01T00:00:00	2024-11-08T14:00:00	8	Radiación solar	736
169769	7	Sololá	716	San Marcos la Laguna 	11	San Marcos la laguna 	1	Enero	2023-08-01T00:00:00	2024-11-08T15:00:00	2	Temperatura media	21.9
169770	7	Sololá	716	San Marcos la Laguna 	11	San Marcos la laguna 	1	Enero	2023-08-01T00:00:00	2024-11-08T15:00:00	4	Temperatura máxima	23
169771	7	Sololá	716	San Marcos la Laguna 	11	San Marcos la laguna 	1	Enero	2023-08-01T00:00:00	2024-11-08T15:00:00	3	Temperatura mínima	21.6
169772	7	Sololá	716	San Marcos la Laguna 	11	San Marcos la laguna 	1	Enero	2023-08-01T00:00:00	2024-11-08T15:00:00	5	Humedad	71
169773	7	Sololá	716	San Marcos la Laguna 	11	San Marcos la laguna 	1	Enero	2023-08-01T00:00:00	2024-11-08T15:00:00	6	Velocidad del viento	11.3
169774	7	Sololá	716	San Marcos la Laguna 	11	San Marcos la laguna 	1	Enero	2023-08-01T00:00:00	2024-11-08T15:00:00	7	Dirección del viento	11.27
169775	7	Sololá	716	San Marcos la Laguna 	11	San Marcos la laguna 	1	Enero	2023-08-01T00:00:00	2024-11-08T15:00:00	1	Precipitación	0
169776	7	Sololá	716	San Marcos la Laguna 	11	San Marcos la laguna 	1	Enero	2023-08-01T00:00:00	2024-11-08T15:00:00	8	Radiación solar	465
169777	7	Sololá	716	San Marcos la Laguna 	11	San Marcos la laguna 	1	Enero	2023-08-01T00:00:00	2024-11-08T16:00:00	2	Temperatura media	20.4
169778	7	Sololá	716	San Marcos la Laguna 	11	San Marcos la laguna 	1	Enero	2023-08-01T00:00:00	2024-11-08T16:00:00	4	Temperatura máxima	22.7
169779	7	Sololá	716	San Marcos la Laguna 	11	San Marcos la laguna 	1	Enero	2023-08-01T00:00:00	2024-11-08T16:00:00	3	Temperatura mínima	20.4
169780	7	Sololá	716	San Marcos la Laguna 	11	San Marcos la laguna 	1	Enero	2023-08-01T00:00:00	2024-11-08T16:00:00	5	Humedad	78
169781	7	Sololá	716	San Marcos la Laguna 	11	San Marcos la laguna 	1	Enero	2023-08-01T00:00:00	2024-11-08T16:00:00	6	Velocidad del viento	8
169782	7	Sololá	716	San Marcos la Laguna 	11	San Marcos la laguna 	1	Enero	2023-08-01T00:00:00	2024-11-08T16:00:00	7	Dirección del viento	8.05
169783	7	Sololá	716	San Marcos la Laguna 	11	San Marcos la laguna 	1	Enero	2023-08-01T00:00:00	2024-11-08T16:00:00	1	Precipitación	0
169784	7	Sololá	716	San Marcos la Laguna 	11	San Marcos la laguna 	1	Enero	2023-08-01T00:00:00	2024-11-08T16:00:00	8	Radiación solar	261
169785	7	Sololá	716	San Marcos la Laguna 	11	San Marcos la laguna 	1	Enero	2023-08-01T00:00:00	2024-11-08T17:00:00	2	Temperatura media	19.3
169786	7	Sololá	716	San Marcos la Laguna 	11	San Marcos la laguna 	1	Enero	2023-08-01T00:00:00	2024-11-08T17:00:00	4	Temperatura máxima	20.4
169787	7	Sololá	716	San Marcos la Laguna 	11	San Marcos la laguna 	1	Enero	2023-08-01T00:00:00	2024-11-08T17:00:00	3	Temperatura mínima	19.3
169788	7	Sololá	716	San Marcos la Laguna 	11	San Marcos la laguna 	1	Enero	2023-08-01T00:00:00	2024-11-08T17:00:00	5	Humedad	85
169789	7	Sololá	716	San Marcos la Laguna 	11	San Marcos la laguna 	1	Enero	2023-08-01T00:00:00	2024-11-08T17:00:00	6	Velocidad del viento	4.8
169790	7	Sololá	716	San Marcos la Laguna 	11	San Marcos la laguna 	1	Enero	2023-08-01T00:00:00	2024-11-08T17:00:00	7	Dirección del viento	4.83
169791	7	Sololá	716	San Marcos la Laguna 	11	San Marcos la laguna 	1	Enero	2023-08-01T00:00:00	2024-11-08T17:00:00	1	Precipitación	1.6
169792	7	Sololá	716	San Marcos la Laguna 	11	San Marcos la laguna 	1	Enero	2023-08-01T00:00:00	2024-11-08T17:00:00	8	Radiación solar	24
169793	7	Sololá	716	San Marcos la Laguna 	11	San Marcos la laguna 	1	Enero	2023-08-01T00:00:00	2024-11-08T18:00:00	2	Temperatura media	18.1
169794	7	Sololá	716	San Marcos la Laguna 	11	San Marcos la laguna 	1	Enero	2023-08-01T00:00:00	2024-11-08T18:00:00	4	Temperatura máxima	19.3
169795	7	Sololá	716	San Marcos la Laguna 	11	San Marcos la laguna 	1	Enero	2023-08-01T00:00:00	2024-11-08T18:00:00	3	Temperatura mínima	18.1
169796	7	Sololá	716	San Marcos la Laguna 	11	San Marcos la laguna 	1	Enero	2023-08-01T00:00:00	2024-11-08T18:00:00	5	Humedad	93
169797	7	Sololá	716	San Marcos la Laguna 	11	San Marcos la laguna 	1	Enero	2023-08-01T00:00:00	2024-11-08T18:00:00	6	Velocidad del viento	1.6
169798	7	Sololá	716	San Marcos la Laguna 	11	San Marcos la laguna 	1	Enero	2023-08-01T00:00:00	2024-11-08T18:00:00	7	Dirección del viento	1.61
169799	7	Sololá	716	San Marcos la Laguna 	11	San Marcos la laguna 	1	Enero	2023-08-01T00:00:00	2024-11-08T18:00:00	1	Precipitación	3.6
169800	7	Sololá	716	San Marcos la Laguna 	11	San Marcos la laguna 	1	Enero	2023-08-01T00:00:00	2024-11-08T18:00:00	8	Radiación solar	4
169801	7	Sololá	716	San Marcos la Laguna 	11	San Marcos la laguna 	1	Enero	2023-08-01T00:00:00	2024-11-08T19:00:00	2	Temperatura media	17.6
169802	7	Sololá	716	San Marcos la Laguna 	11	San Marcos la laguna 	1	Enero	2023-08-01T00:00:00	2024-11-08T19:00:00	4	Temperatura máxima	18.1
169803	7	Sololá	716	San Marcos la Laguna 	11	San Marcos la laguna 	1	Enero	2023-08-01T00:00:00	2024-11-08T19:00:00	3	Temperatura mínima	17.6
169804	7	Sololá	716	San Marcos la Laguna 	11	San Marcos la laguna 	1	Enero	2023-08-01T00:00:00	2024-11-08T19:00:00	5	Humedad	93
169805	7	Sololá	716	San Marcos la Laguna 	11	San Marcos la laguna 	1	Enero	2023-08-01T00:00:00	2024-11-08T19:00:00	6	Velocidad del viento	3.2
169806	7	Sololá	716	San Marcos la Laguna 	11	San Marcos la laguna 	1	Enero	2023-08-01T00:00:00	2024-11-08T19:00:00	7	Dirección del viento	3.22
169807	7	Sololá	716	San Marcos la Laguna 	11	San Marcos la laguna 	1	Enero	2023-08-01T00:00:00	2024-11-08T19:00:00	1	Precipitación	0.2
169808	7	Sololá	716	San Marcos la Laguna 	11	San Marcos la laguna 	1	Enero	2023-08-01T00:00:00	2024-11-08T19:00:00	8	Radiación solar	0
169809	7	Sololá	716	San Marcos la Laguna 	11	San Marcos la laguna 	1	Enero	2023-08-01T00:00:00	2024-11-08T20:00:00	2	Temperatura media	16.9
169810	7	Sololá	716	San Marcos la Laguna 	11	San Marcos la laguna 	1	Enero	2023-08-01T00:00:00	2024-11-08T20:00:00	4	Temperatura máxima	17.7
169811	7	Sololá	716	San Marcos la Laguna 	11	San Marcos la laguna 	1	Enero	2023-08-01T00:00:00	2024-11-08T20:00:00	3	Temperatura mínima	16.8
169812	7	Sololá	716	San Marcos la Laguna 	11	San Marcos la laguna 	1	Enero	2023-08-01T00:00:00	2024-11-08T20:00:00	5	Humedad	92
169813	7	Sololá	716	San Marcos la Laguna 	11	San Marcos la laguna 	1	Enero	2023-08-01T00:00:00	2024-11-08T20:00:00	6	Velocidad del viento	3.2
169814	7	Sololá	716	San Marcos la Laguna 	11	San Marcos la laguna 	1	Enero	2023-08-01T00:00:00	2024-11-08T20:00:00	7	Dirección del viento	3.22
169815	7	Sololá	716	San Marcos la Laguna 	11	San Marcos la laguna 	1	Enero	2023-08-01T00:00:00	2024-11-08T20:00:00	1	Precipitación	0
169816	7	Sololá	716	San Marcos la Laguna 	11	San Marcos la laguna 	1	Enero	2023-08-01T00:00:00	2024-11-08T20:00:00	8	Radiación solar	0
169817	7	Sololá	716	San Marcos la Laguna 	11	San Marcos la laguna 	1	Enero	2023-08-01T00:00:00	2024-11-08T21:00:00	2	Temperatura media	16.2
169818	7	Sololá	716	San Marcos la Laguna 	11	San Marcos la laguna 	1	Enero	2023-08-01T00:00:00	2024-11-08T21:00:00	4	Temperatura máxima	16.9
169819	7	Sololá	716	San Marcos la Laguna 	11	San Marcos la laguna 	1	Enero	2023-08-01T00:00:00	2024-11-08T21:00:00	3	Temperatura mínima	16.2
169820	7	Sololá	716	San Marcos la Laguna 	11	San Marcos la laguna 	1	Enero	2023-08-01T00:00:00	2024-11-08T21:00:00	5	Humedad	91
169821	7	Sololá	716	San Marcos la Laguna 	11	San Marcos la laguna 	1	Enero	2023-08-01T00:00:00	2024-11-08T21:00:00	6	Velocidad del viento	6.4
169822	7	Sololá	716	San Marcos la Laguna 	11	San Marcos la laguna 	1	Enero	2023-08-01T00:00:00	2024-11-08T21:00:00	7	Dirección del viento	6.44
169823	7	Sololá	716	San Marcos la Laguna 	11	San Marcos la laguna 	1	Enero	2023-08-01T00:00:00	2024-11-08T21:00:00	1	Precipitación	0
169824	7	Sololá	716	San Marcos la Laguna 	11	San Marcos la laguna 	1	Enero	2023-08-01T00:00:00	2024-11-08T21:00:00	8	Radiación solar	0
169825	7	Sololá	716	San Marcos la Laguna 	11	San Marcos la laguna 	1	Enero	2023-08-01T00:00:00	2024-11-08T22:00:00	2	Temperatura media	15.3
169826	7	Sololá	716	San Marcos la Laguna 	11	San Marcos la laguna 	1	Enero	2023-08-01T00:00:00	2024-11-08T22:00:00	4	Temperatura máxima	16.2
169827	7	Sololá	716	San Marcos la Laguna 	11	San Marcos la laguna 	1	Enero	2023-08-01T00:00:00	2024-11-08T22:00:00	3	Temperatura mínima	15.3
169828	7	Sololá	716	San Marcos la Laguna 	11	San Marcos la laguna 	1	Enero	2023-08-01T00:00:00	2024-11-08T22:00:00	5	Humedad	92
169829	7	Sololá	716	San Marcos la Laguna 	11	San Marcos la laguna 	1	Enero	2023-08-01T00:00:00	2024-11-08T22:00:00	6	Velocidad del viento	6.4
169830	7	Sololá	716	San Marcos la Laguna 	11	San Marcos la laguna 	1	Enero	2023-08-01T00:00:00	2024-11-08T22:00:00	7	Dirección del viento	6.44
169831	7	Sololá	716	San Marcos la Laguna 	11	San Marcos la laguna 	1	Enero	2023-08-01T00:00:00	2024-11-08T22:00:00	1	Precipitación	0
169832	7	Sololá	716	San Marcos la Laguna 	11	San Marcos la laguna 	1	Enero	2023-08-01T00:00:00	2024-11-08T22:00:00	8	Radiación solar	0
169833	7	Sololá	716	San Marcos la Laguna 	11	San Marcos la laguna 	1	Enero	2023-08-01T00:00:00	2024-11-08T23:00:00	2	Temperatura media	16.1
169834	7	Sololá	716	San Marcos la Laguna 	11	San Marcos la laguna 	1	Enero	2023-08-01T00:00:00	2024-11-08T23:00:00	4	Temperatura máxima	16.3
169835	7	Sololá	716	San Marcos la Laguna 	11	San Marcos la laguna 	1	Enero	2023-08-01T00:00:00	2024-11-08T23:00:00	3	Temperatura mínima	15.3
169836	7	Sololá	716	San Marcos la Laguna 	11	San Marcos la laguna 	1	Enero	2023-08-01T00:00:00	2024-11-08T23:00:00	5	Humedad	84
169837	7	Sololá	716	San Marcos la Laguna 	11	San Marcos la laguna 	1	Enero	2023-08-01T00:00:00	2024-11-08T23:00:00	6	Velocidad del viento	8
169838	7	Sololá	716	San Marcos la Laguna 	11	San Marcos la laguna 	1	Enero	2023-08-01T00:00:00	2024-11-08T23:00:00	7	Dirección del viento	8.05
169839	7	Sololá	716	San Marcos la Laguna 	11	San Marcos la laguna 	1	Enero	2023-08-01T00:00:00	2024-11-08T23:00:00	1	Precipitación	0
169840	7	Sololá	716	San Marcos la Laguna 	11	San Marcos la laguna 	1	Enero	2023-08-01T00:00:00	2024-11-08T23:00:00	8	Radiación solar	0
169841	7	Sololá	716	San Marcos la Laguna 	11	San Marcos la laguna 	1	Enero	2023-09-01T00:00:00	2024-11-08T00:00:00	2	Temperatura media	15.9
169842	7	Sololá	716	San Marcos la Laguna 	11	San Marcos la laguna 	1	Enero	2023-09-01T00:00:00	2024-11-08T00:00:00	4	Temperatura máxima	16.2
169843	7	Sololá	716	San Marcos la Laguna 	11	San Marcos la laguna 	1	Enero	2023-09-01T00:00:00	2024-11-08T00:00:00	3	Temperatura mínima	15.9
169844	7	Sololá	716	San Marcos la Laguna 	11	San Marcos la laguna 	1	Enero	2023-09-01T00:00:00	2024-11-08T00:00:00	5	Humedad	84
169845	7	Sololá	716	San Marcos la Laguna 	11	San Marcos la laguna 	1	Enero	2023-09-01T00:00:00	2024-11-08T00:00:00	6	Velocidad del viento	8
169846	7	Sololá	716	San Marcos la Laguna 	11	San Marcos la laguna 	1	Enero	2023-09-01T00:00:00	2024-11-08T00:00:00	7	Dirección del viento	8.05
169847	7	Sololá	716	San Marcos la Laguna 	11	San Marcos la laguna 	1	Enero	2023-09-01T00:00:00	2024-11-08T00:00:00	1	Precipitación	0
169848	7	Sololá	716	San Marcos la Laguna 	11	San Marcos la laguna 	1	Enero	2023-09-01T00:00:00	2024-11-08T00:00:00	8	Radiación solar	0
169849	7	Sololá	716	San Marcos la Laguna 	11	San Marcos la laguna 	1	Enero	2023-09-01T00:00:00	2024-11-08T01:00:00	2	Temperatura media	15.6
169850	7	Sololá	716	San Marcos la Laguna 	11	San Marcos la laguna 	1	Enero	2023-09-01T00:00:00	2024-11-08T01:00:00	4	Temperatura máxima	16.1
169851	7	Sololá	716	San Marcos la Laguna 	11	San Marcos la laguna 	1	Enero	2023-09-01T00:00:00	2024-11-08T01:00:00	3	Temperatura mínima	15.4
169852	7	Sololá	716	San Marcos la Laguna 	11	San Marcos la laguna 	1	Enero	2023-09-01T00:00:00	2024-11-08T01:00:00	5	Humedad	84
169853	7	Sololá	716	San Marcos la Laguna 	11	San Marcos la laguna 	1	Enero	2023-09-01T00:00:00	2024-11-08T01:00:00	6	Velocidad del viento	8
169854	7	Sololá	716	San Marcos la Laguna 	11	San Marcos la laguna 	1	Enero	2023-09-01T00:00:00	2024-11-08T01:00:00	7	Dirección del viento	8.05
169855	7	Sololá	716	San Marcos la Laguna 	11	San Marcos la laguna 	1	Enero	2023-09-01T00:00:00	2024-11-08T01:00:00	1	Precipitación	0
169856	7	Sololá	716	San Marcos la Laguna 	11	San Marcos la laguna 	1	Enero	2023-09-01T00:00:00	2024-11-08T01:00:00	8	Radiación solar	0
169857	7	Sololá	716	San Marcos la Laguna 	11	San Marcos la laguna 	1	Enero	2023-09-01T00:00:00	2024-11-08T02:00:00	2	Temperatura media	14.9
169858	7	Sololá	716	San Marcos la Laguna 	11	San Marcos la laguna 	1	Enero	2023-09-01T00:00:00	2024-11-08T02:00:00	4	Temperatura máxima	15.8
169859	7	Sololá	716	San Marcos la Laguna 	11	San Marcos la laguna 	1	Enero	2023-09-01T00:00:00	2024-11-08T02:00:00	3	Temperatura mínima	14.9
169860	7	Sololá	716	San Marcos la Laguna 	11	San Marcos la laguna 	1	Enero	2023-09-01T00:00:00	2024-11-08T02:00:00	5	Humedad	85
169861	7	Sololá	716	San Marcos la Laguna 	11	San Marcos la laguna 	1	Enero	2023-09-01T00:00:00	2024-11-08T02:00:00	6	Velocidad del viento	8
169862	7	Sololá	716	San Marcos la Laguna 	11	San Marcos la laguna 	1	Enero	2023-09-01T00:00:00	2024-11-08T02:00:00	7	Dirección del viento	8.05
169863	7	Sololá	716	San Marcos la Laguna 	11	San Marcos la laguna 	1	Enero	2023-09-01T00:00:00	2024-11-08T02:00:00	1	Precipitación	0
169864	7	Sololá	716	San Marcos la Laguna 	11	San Marcos la laguna 	1	Enero	2023-09-01T00:00:00	2024-11-08T02:00:00	8	Radiación solar	0
169865	7	Sololá	716	San Marcos la Laguna 	11	San Marcos la laguna 	1	Enero	2023-09-01T00:00:00	2024-11-08T03:00:00	2	Temperatura media	15.2
169866	7	Sololá	716	San Marcos la Laguna 	11	San Marcos la laguna 	1	Enero	2023-09-01T00:00:00	2024-11-08T03:00:00	4	Temperatura máxima	15.4
169867	7	Sololá	716	San Marcos la Laguna 	11	San Marcos la laguna 	1	Enero	2023-09-01T00:00:00	2024-11-08T03:00:00	3	Temperatura mínima	14.7
169868	7	Sololá	716	San Marcos la Laguna 	11	San Marcos la laguna 	1	Enero	2023-09-01T00:00:00	2024-11-08T03:00:00	5	Humedad	83
169869	7	Sololá	716	San Marcos la Laguna 	11	San Marcos la laguna 	1	Enero	2023-09-01T00:00:00	2024-11-08T03:00:00	6	Velocidad del viento	8
169870	7	Sololá	716	San Marcos la Laguna 	11	San Marcos la laguna 	1	Enero	2023-09-01T00:00:00	2024-11-08T03:00:00	7	Dirección del viento	8.05
169871	7	Sololá	716	San Marcos la Laguna 	11	San Marcos la laguna 	1	Enero	2023-09-01T00:00:00	2024-11-08T03:00:00	1	Precipitación	0
169872	7	Sololá	716	San Marcos la Laguna 	11	San Marcos la laguna 	1	Enero	2023-09-01T00:00:00	2024-11-08T03:00:00	8	Radiación solar	0
169873	7	Sololá	716	San Marcos la Laguna 	11	San Marcos la laguna 	1	Enero	2023-09-01T00:00:00	2024-11-08T04:00:00	2	Temperatura media	14.6
169874	7	Sololá	716	San Marcos la Laguna 	11	San Marcos la laguna 	1	Enero	2023-09-01T00:00:00	2024-11-08T04:00:00	4	Temperatura máxima	15.3
169875	7	Sololá	716	San Marcos la Laguna 	11	San Marcos la laguna 	1	Enero	2023-09-01T00:00:00	2024-11-08T04:00:00	3	Temperatura mínima	14.5
169876	7	Sololá	716	San Marcos la Laguna 	11	San Marcos la laguna 	1	Enero	2023-09-01T00:00:00	2024-11-08T04:00:00	5	Humedad	84
169877	7	Sololá	716	San Marcos la Laguna 	11	San Marcos la laguna 	1	Enero	2023-09-01T00:00:00	2024-11-08T04:00:00	6	Velocidad del viento	8
169878	7	Sololá	716	San Marcos la Laguna 	11	San Marcos la laguna 	1	Enero	2023-09-01T00:00:00	2024-11-08T04:00:00	7	Dirección del viento	8.05
169879	7	Sololá	716	San Marcos la Laguna 	11	San Marcos la laguna 	1	Enero	2023-09-01T00:00:00	2024-11-08T04:00:00	1	Precipitación	0
169880	7	Sololá	716	San Marcos la Laguna 	11	San Marcos la laguna 	1	Enero	2023-09-01T00:00:00	2024-11-08T04:00:00	8	Radiación solar	0
169881	7	Sololá	716	San Marcos la Laguna 	11	San Marcos la laguna 	1	Enero	2023-09-01T00:00:00	2024-11-08T05:00:00	2	Temperatura media	14.4
169882	7	Sololá	716	San Marcos la Laguna 	11	San Marcos la laguna 	1	Enero	2023-09-01T00:00:00	2024-11-08T05:00:00	4	Temperatura máxima	15.2
169883	7	Sololá	716	San Marcos la Laguna 	11	San Marcos la laguna 	1	Enero	2023-09-01T00:00:00	2024-11-08T05:00:00	3	Temperatura mínima	14.4
169884	7	Sololá	716	San Marcos la Laguna 	11	San Marcos la laguna 	1	Enero	2023-09-01T00:00:00	2024-11-08T05:00:00	5	Humedad	84
169885	7	Sololá	716	San Marcos la Laguna 	11	San Marcos la laguna 	1	Enero	2023-09-01T00:00:00	2024-11-08T05:00:00	6	Velocidad del viento	8
169886	7	Sololá	716	San Marcos la Laguna 	11	San Marcos la laguna 	1	Enero	2023-09-01T00:00:00	2024-11-08T05:00:00	7	Dirección del viento	8.05
169887	7	Sololá	716	San Marcos la Laguna 	11	San Marcos la laguna 	1	Enero	2023-09-01T00:00:00	2024-11-08T05:00:00	1	Precipitación	0
169888	7	Sololá	716	San Marcos la Laguna 	11	San Marcos la laguna 	1	Enero	2023-09-01T00:00:00	2024-11-08T05:00:00	8	Radiación solar	0
169889	7	Sololá	716	San Marcos la Laguna 	11	San Marcos la laguna 	1	Enero	2023-09-01T00:00:00	2024-11-08T06:00:00	2	Temperatura media	13.5
169890	7	Sololá	716	San Marcos la Laguna 	11	San Marcos la laguna 	1	Enero	2023-09-01T00:00:00	2024-11-08T06:00:00	4	Temperatura máxima	14.4
169891	7	Sololá	716	San Marcos la Laguna 	11	San Marcos la laguna 	1	Enero	2023-09-01T00:00:00	2024-11-08T06:00:00	3	Temperatura mínima	13.4
169892	7	Sololá	716	San Marcos la Laguna 	11	San Marcos la laguna 	1	Enero	2023-09-01T00:00:00	2024-11-08T06:00:00	5	Humedad	87
169893	7	Sololá	716	San Marcos la Laguna 	11	San Marcos la laguna 	1	Enero	2023-09-01T00:00:00	2024-11-08T06:00:00	6	Velocidad del viento	8
169894	7	Sololá	716	San Marcos la Laguna 	11	San Marcos la laguna 	1	Enero	2023-09-01T00:00:00	2024-11-08T06:00:00	7	Dirección del viento	8.05
169895	7	Sololá	716	San Marcos la Laguna 	11	San Marcos la laguna 	1	Enero	2023-09-01T00:00:00	2024-11-08T06:00:00	1	Precipitación	0
169896	7	Sololá	716	San Marcos la Laguna 	11	San Marcos la laguna 	1	Enero	2023-09-01T00:00:00	2024-11-08T06:00:00	8	Radiación solar	0
169897	7	Sololá	716	San Marcos la Laguna 	11	San Marcos la laguna 	1	Enero	2023-09-01T00:00:00	2024-11-08T07:00:00	2	Temperatura media	14.3
169898	7	Sololá	716	San Marcos la Laguna 	11	San Marcos la laguna 	1	Enero	2023-09-01T00:00:00	2024-11-08T07:00:00	4	Temperatura máxima	14.3
169899	7	Sololá	716	San Marcos la Laguna 	11	San Marcos la laguna 	1	Enero	2023-09-01T00:00:00	2024-11-08T07:00:00	3	Temperatura mínima	13.3
169900	7	Sololá	716	San Marcos la Laguna 	11	San Marcos la laguna 	1	Enero	2023-09-01T00:00:00	2024-11-08T07:00:00	5	Humedad	85
169901	7	Sololá	716	San Marcos la Laguna 	11	San Marcos la laguna 	1	Enero	2023-09-01T00:00:00	2024-11-08T07:00:00	6	Velocidad del viento	8
169902	7	Sololá	716	San Marcos la Laguna 	11	San Marcos la laguna 	1	Enero	2023-09-01T00:00:00	2024-11-08T07:00:00	7	Dirección del viento	8.05
169903	7	Sololá	716	San Marcos la Laguna 	11	San Marcos la laguna 	1	Enero	2023-09-01T00:00:00	2024-11-08T07:00:00	1	Precipitación	0
169904	7	Sololá	716	San Marcos la Laguna 	11	San Marcos la laguna 	1	Enero	2023-09-01T00:00:00	2024-11-08T07:00:00	8	Radiación solar	4
169905	7	Sololá	716	San Marcos la Laguna 	11	San Marcos la laguna 	1	Enero	2023-09-01T00:00:00	2024-11-08T08:00:00	2	Temperatura media	16.4
169906	7	Sololá	716	San Marcos la Laguna 	11	San Marcos la laguna 	1	Enero	2023-09-01T00:00:00	2024-11-08T08:00:00	4	Temperatura máxima	16.4
169907	7	Sololá	716	San Marcos la Laguna 	11	San Marcos la laguna 	1	Enero	2023-09-01T00:00:00	2024-11-08T08:00:00	3	Temperatura mínima	14.3
169908	7	Sololá	716	San Marcos la Laguna 	11	San Marcos la laguna 	1	Enero	2023-09-01T00:00:00	2024-11-08T08:00:00	5	Humedad	81
169909	7	Sololá	716	San Marcos la Laguna 	11	San Marcos la laguna 	1	Enero	2023-09-01T00:00:00	2024-11-08T08:00:00	6	Velocidad del viento	4.8
169910	7	Sololá	716	San Marcos la Laguna 	11	San Marcos la laguna 	1	Enero	2023-09-01T00:00:00	2024-11-08T08:00:00	7	Dirección del viento	4.83
169911	7	Sololá	716	San Marcos la Laguna 	11	San Marcos la laguna 	1	Enero	2023-09-01T00:00:00	2024-11-08T08:00:00	1	Precipitación	0
169912	7	Sololá	716	San Marcos la Laguna 	11	San Marcos la laguna 	1	Enero	2023-09-01T00:00:00	2024-11-08T08:00:00	8	Radiación solar	116
169913	7	Sololá	716	San Marcos la Laguna 	11	San Marcos la laguna 	1	Enero	2023-09-01T00:00:00	2024-11-08T09:00:00	2	Temperatura media	19.1
169914	7	Sololá	716	San Marcos la Laguna 	11	San Marcos la laguna 	1	Enero	2023-09-01T00:00:00	2024-11-08T09:00:00	4	Temperatura máxima	19.1
169915	7	Sololá	716	San Marcos la Laguna 	11	San Marcos la laguna 	1	Enero	2023-09-01T00:00:00	2024-11-08T09:00:00	3	Temperatura mínima	16.4
169916	7	Sololá	716	San Marcos la Laguna 	11	San Marcos la laguna 	1	Enero	2023-09-01T00:00:00	2024-11-08T09:00:00	5	Humedad	72
169917	7	Sololá	716	San Marcos la Laguna 	11	San Marcos la laguna 	1	Enero	2023-09-01T00:00:00	2024-11-08T09:00:00	6	Velocidad del viento	1.6
169918	7	Sololá	716	San Marcos la Laguna 	11	San Marcos la laguna 	1	Enero	2023-09-01T00:00:00	2024-11-08T09:00:00	7	Dirección del viento	1.61
169919	7	Sololá	716	San Marcos la Laguna 	11	San Marcos la laguna 	1	Enero	2023-09-01T00:00:00	2024-11-08T09:00:00	1	Precipitación	0
169920	7	Sololá	716	San Marcos la Laguna 	11	San Marcos la laguna 	1	Enero	2023-09-01T00:00:00	2024-11-08T09:00:00	8	Radiación solar	323
169921	7	Sololá	716	San Marcos la Laguna 	11	San Marcos la laguna 	1	Enero	2023-09-01T00:00:00	2024-11-08T10:00:00	2	Temperatura media	19.9
169922	7	Sololá	716	San Marcos la Laguna 	11	San Marcos la laguna 	1	Enero	2023-09-01T00:00:00	2024-11-08T10:00:00	4	Temperatura máxima	19.9
169923	7	Sololá	716	San Marcos la Laguna 	11	San Marcos la laguna 	1	Enero	2023-09-01T00:00:00	2024-11-08T10:00:00	3	Temperatura mínima	19.1
169924	7	Sololá	716	San Marcos la Laguna 	11	San Marcos la laguna 	1	Enero	2023-09-01T00:00:00	2024-11-08T10:00:00	5	Humedad	68
169925	7	Sololá	716	San Marcos la Laguna 	11	San Marcos la laguna 	1	Enero	2023-09-01T00:00:00	2024-11-08T10:00:00	6	Velocidad del viento	3.2
169926	7	Sololá	716	San Marcos la Laguna 	11	San Marcos la laguna 	1	Enero	2023-09-01T00:00:00	2024-11-08T10:00:00	7	Dirección del viento	3.22
169927	7	Sololá	716	San Marcos la Laguna 	11	San Marcos la laguna 	1	Enero	2023-09-01T00:00:00	2024-11-08T10:00:00	1	Precipitación	0
169928	7	Sololá	716	San Marcos la Laguna 	11	San Marcos la laguna 	1	Enero	2023-09-01T00:00:00	2024-11-08T10:00:00	8	Radiación solar	512
169929	7	Sololá	716	San Marcos la Laguna 	11	San Marcos la laguna 	1	Enero	2023-09-01T00:00:00	2024-11-08T11:00:00	2	Temperatura media	21.7
169930	7	Sololá	716	San Marcos la Laguna 	11	San Marcos la laguna 	1	Enero	2023-09-01T00:00:00	2024-11-08T11:00:00	4	Temperatura máxima	21.7
169931	7	Sololá	716	San Marcos la Laguna 	11	San Marcos la laguna 	1	Enero	2023-09-01T00:00:00	2024-11-08T11:00:00	3	Temperatura mínima	19.9
169932	7	Sololá	716	San Marcos la Laguna 	11	San Marcos la laguna 	1	Enero	2023-09-01T00:00:00	2024-11-08T11:00:00	5	Humedad	61
169933	7	Sololá	716	San Marcos la Laguna 	11	San Marcos la laguna 	1	Enero	2023-09-01T00:00:00	2024-11-08T11:00:00	6	Velocidad del viento	3.2
169934	7	Sololá	716	San Marcos la Laguna 	11	San Marcos la laguna 	1	Enero	2023-09-01T00:00:00	2024-11-08T11:00:00	7	Dirección del viento	3.22
169935	7	Sololá	716	San Marcos la Laguna 	11	San Marcos la laguna 	1	Enero	2023-09-01T00:00:00	2024-11-08T11:00:00	1	Precipitación	0
169936	7	Sololá	716	San Marcos la Laguna 	11	San Marcos la laguna 	1	Enero	2023-09-01T00:00:00	2024-11-08T11:00:00	8	Radiación solar	545
169937	7	Sololá	716	San Marcos la Laguna 	11	San Marcos la laguna 	1	Enero	2023-09-01T00:00:00	2024-11-08T12:00:00	2	Temperatura media	22.6
169938	7	Sololá	716	San Marcos la Laguna 	11	San Marcos la laguna 	1	Enero	2023-09-01T00:00:00	2024-11-08T12:00:00	4	Temperatura máxima	22.6
169939	7	Sololá	716	San Marcos la Laguna 	11	San Marcos la laguna 	1	Enero	2023-09-01T00:00:00	2024-11-08T12:00:00	3	Temperatura mínima	21.6
169940	7	Sololá	716	San Marcos la Laguna 	11	San Marcos la laguna 	1	Enero	2023-09-01T00:00:00	2024-11-08T12:00:00	5	Humedad	60
169941	7	Sololá	716	San Marcos la Laguna 	11	San Marcos la laguna 	1	Enero	2023-09-01T00:00:00	2024-11-08T12:00:00	6	Velocidad del viento	3.2
169942	7	Sololá	716	San Marcos la Laguna 	11	San Marcos la laguna 	1	Enero	2023-09-01T00:00:00	2024-11-08T12:00:00	7	Dirección del viento	3.22
169943	7	Sololá	716	San Marcos la Laguna 	11	San Marcos la laguna 	1	Enero	2023-09-01T00:00:00	2024-11-08T12:00:00	1	Precipitación	0
169944	7	Sololá	716	San Marcos la Laguna 	11	San Marcos la laguna 	1	Enero	2023-09-01T00:00:00	2024-11-08T12:00:00	8	Radiación solar	728
169945	7	Sololá	716	San Marcos la Laguna 	11	San Marcos la laguna 	1	Enero	2023-09-01T00:00:00	2024-11-08T13:00:00	2	Temperatura media	21.5
169946	7	Sololá	716	San Marcos la Laguna 	11	San Marcos la laguna 	1	Enero	2023-09-01T00:00:00	2024-11-08T13:00:00	4	Temperatura máxima	23
169947	7	Sololá	716	San Marcos la Laguna 	11	San Marcos la laguna 	1	Enero	2023-09-01T00:00:00	2024-11-08T13:00:00	3	Temperatura mínima	21.4
169948	7	Sololá	716	San Marcos la Laguna 	11	San Marcos la laguna 	1	Enero	2023-09-01T00:00:00	2024-11-08T13:00:00	5	Humedad	72
169949	7	Sololá	716	San Marcos la Laguna 	11	San Marcos la laguna 	1	Enero	2023-09-01T00:00:00	2024-11-08T13:00:00	6	Velocidad del viento	8
169950	7	Sololá	716	San Marcos la Laguna 	11	San Marcos la laguna 	1	Enero	2023-09-01T00:00:00	2024-11-08T13:00:00	7	Dirección del viento	8.05
169951	7	Sololá	716	San Marcos la Laguna 	11	San Marcos la laguna 	1	Enero	2023-09-01T00:00:00	2024-11-08T13:00:00	1	Precipitación	0
169952	7	Sololá	716	San Marcos la Laguna 	11	San Marcos la laguna 	1	Enero	2023-09-01T00:00:00	2024-11-08T13:00:00	8	Radiación solar	768
169953	7	Sololá	716	San Marcos la Laguna 	11	San Marcos la laguna 	1	Enero	2023-09-01T00:00:00	2024-11-08T14:00:00	2	Temperatura media	21.4
169954	7	Sololá	716	San Marcos la Laguna 	11	San Marcos la laguna 	1	Enero	2023-09-01T00:00:00	2024-11-08T14:00:00	4	Temperatura máxima	21.9
169955	7	Sololá	716	San Marcos la Laguna 	11	San Marcos la laguna 	1	Enero	2023-09-01T00:00:00	2024-11-08T14:00:00	3	Temperatura mínima	21.4
169956	7	Sololá	716	San Marcos la Laguna 	11	San Marcos la laguna 	1	Enero	2023-09-01T00:00:00	2024-11-08T14:00:00	5	Humedad	75
169957	7	Sololá	716	San Marcos la Laguna 	11	San Marcos la laguna 	1	Enero	2023-09-01T00:00:00	2024-11-08T14:00:00	6	Velocidad del viento	9.7
169958	7	Sololá	716	San Marcos la Laguna 	11	San Marcos la laguna 	1	Enero	2023-09-01T00:00:00	2024-11-08T14:00:00	7	Dirección del viento	9.66
169959	7	Sololá	716	San Marcos la Laguna 	11	San Marcos la laguna 	1	Enero	2023-09-01T00:00:00	2024-11-08T14:00:00	1	Precipitación	0
169960	7	Sololá	716	San Marcos la Laguna 	11	San Marcos la laguna 	1	Enero	2023-09-01T00:00:00	2024-11-08T14:00:00	8	Radiación solar	753
169961	7	Sololá	716	San Marcos la Laguna 	11	San Marcos la laguna 	1	Enero	2023-09-01T00:00:00	2024-11-08T15:00:00	2	Temperatura media	21.9
169962	7	Sololá	716	San Marcos la Laguna 	11	San Marcos la laguna 	1	Enero	2023-09-01T00:00:00	2024-11-08T15:00:00	4	Temperatura máxima	22.3
169963	7	Sololá	716	San Marcos la Laguna 	11	San Marcos la laguna 	1	Enero	2023-09-01T00:00:00	2024-11-08T15:00:00	3	Temperatura mínima	21.2
169964	7	Sololá	716	San Marcos la Laguna 	11	San Marcos la laguna 	1	Enero	2023-09-01T00:00:00	2024-11-08T15:00:00	5	Humedad	70
169965	7	Sololá	716	San Marcos la Laguna 	11	San Marcos la laguna 	1	Enero	2023-09-01T00:00:00	2024-11-08T15:00:00	6	Velocidad del viento	6.4
169966	7	Sololá	716	San Marcos la Laguna 	11	San Marcos la laguna 	1	Enero	2023-09-01T00:00:00	2024-11-08T15:00:00	7	Dirección del viento	6.44
169967	7	Sololá	716	San Marcos la Laguna 	11	San Marcos la laguna 	1	Enero	2023-09-01T00:00:00	2024-11-08T15:00:00	1	Precipitación	0
169968	7	Sololá	716	San Marcos la Laguna 	11	San Marcos la laguna 	1	Enero	2023-09-01T00:00:00	2024-11-08T15:00:00	8	Radiación solar	608
169969	7	Sololá	716	San Marcos la Laguna 	11	San Marcos la laguna 	1	Enero	2023-09-01T00:00:00	2024-11-08T16:00:00	2	Temperatura media	21
169970	7	Sololá	716	San Marcos la Laguna 	11	San Marcos la laguna 	1	Enero	2023-09-01T00:00:00	2024-11-08T16:00:00	4	Temperatura máxima	22.1
169971	7	Sololá	716	San Marcos la Laguna 	11	San Marcos la laguna 	1	Enero	2023-09-01T00:00:00	2024-11-08T16:00:00	3	Temperatura mínima	20.5
169972	7	Sololá	716	San Marcos la Laguna 	11	San Marcos la laguna 	1	Enero	2023-09-01T00:00:00	2024-11-08T16:00:00	5	Humedad	77
169973	7	Sololá	716	San Marcos la Laguna 	11	San Marcos la laguna 	1	Enero	2023-09-01T00:00:00	2024-11-08T16:00:00	6	Velocidad del viento	9.7
169974	7	Sololá	716	San Marcos la Laguna 	11	San Marcos la laguna 	1	Enero	2023-09-01T00:00:00	2024-11-08T16:00:00	7	Dirección del viento	9.66
169975	7	Sololá	716	San Marcos la Laguna 	11	San Marcos la laguna 	1	Enero	2023-09-01T00:00:00	2024-11-08T16:00:00	1	Precipitación	0
169976	7	Sololá	716	San Marcos la Laguna 	11	San Marcos la laguna 	1	Enero	2023-09-01T00:00:00	2024-11-08T16:00:00	8	Radiación solar	455
169977	7	Sololá	716	San Marcos la Laguna 	11	San Marcos la laguna 	1	Enero	2023-09-01T00:00:00	2024-11-08T17:00:00	2	Temperatura media	19.7
169978	7	Sololá	716	San Marcos la Laguna 	11	San Marcos la laguna 	1	Enero	2023-09-01T00:00:00	2024-11-08T17:00:00	4	Temperatura máxima	21
169979	7	Sololá	716	San Marcos la Laguna 	11	San Marcos la laguna 	1	Enero	2023-09-01T00:00:00	2024-11-08T17:00:00	3	Temperatura mínima	19.7
169980	7	Sololá	716	San Marcos la Laguna 	11	San Marcos la laguna 	1	Enero	2023-09-01T00:00:00	2024-11-08T17:00:00	5	Humedad	80
169981	7	Sololá	716	San Marcos la Laguna 	11	San Marcos la laguna 	1	Enero	2023-09-01T00:00:00	2024-11-08T17:00:00	6	Velocidad del viento	8
169982	7	Sololá	716	San Marcos la Laguna 	11	San Marcos la laguna 	1	Enero	2023-09-01T00:00:00	2024-11-08T17:00:00	7	Dirección del viento	8.05
169983	7	Sololá	716	San Marcos la Laguna 	11	San Marcos la laguna 	1	Enero	2023-09-01T00:00:00	2024-11-08T17:00:00	1	Precipitación	0
169984	7	Sololá	716	San Marcos la Laguna 	11	San Marcos la laguna 	1	Enero	2023-09-01T00:00:00	2024-11-08T17:00:00	8	Radiación solar	160
169985	7	Sololá	716	San Marcos la Laguna 	11	San Marcos la laguna 	1	Enero	2023-09-01T00:00:00	2024-11-08T18:00:00	2	Temperatura media	19.1
169986	7	Sololá	716	San Marcos la Laguna 	11	San Marcos la laguna 	1	Enero	2023-09-01T00:00:00	2024-11-08T18:00:00	4	Temperatura máxima	19.7
169987	7	Sololá	716	San Marcos la Laguna 	11	San Marcos la laguna 	1	Enero	2023-09-01T00:00:00	2024-11-08T18:00:00	3	Temperatura mínima	19.1
169988	7	Sololá	716	San Marcos la Laguna 	11	San Marcos la laguna 	1	Enero	2023-09-01T00:00:00	2024-11-08T18:00:00	5	Humedad	84
169989	7	Sololá	716	San Marcos la Laguna 	11	San Marcos la laguna 	1	Enero	2023-09-01T00:00:00	2024-11-08T18:00:00	6	Velocidad del viento	9.7
169990	7	Sololá	716	San Marcos la Laguna 	11	San Marcos la laguna 	1	Enero	2023-09-01T00:00:00	2024-11-08T18:00:00	7	Dirección del viento	9.66
169991	7	Sololá	716	San Marcos la Laguna 	11	San Marcos la laguna 	1	Enero	2023-09-01T00:00:00	2024-11-08T18:00:00	1	Precipitación	0
169992	7	Sololá	716	San Marcos la Laguna 	11	San Marcos la laguna 	1	Enero	2023-09-01T00:00:00	2024-11-08T18:00:00	8	Radiación solar	23
169993	7	Sololá	716	San Marcos la Laguna 	11	San Marcos la laguna 	1	Enero	2023-09-01T00:00:00	2024-11-08T19:00:00	2	Temperatura media	18
169994	7	Sololá	716	San Marcos la Laguna 	11	San Marcos la laguna 	1	Enero	2023-09-01T00:00:00	2024-11-08T19:00:00	4	Temperatura máxima	19.1
169995	7	Sololá	716	San Marcos la Laguna 	11	San Marcos la laguna 	1	Enero	2023-09-01T00:00:00	2024-11-08T19:00:00	3	Temperatura mínima	18
169996	7	Sololá	716	San Marcos la Laguna 	11	San Marcos la laguna 	1	Enero	2023-09-01T00:00:00	2024-11-08T19:00:00	5	Humedad	86
169997	7	Sololá	716	San Marcos la Laguna 	11	San Marcos la laguna 	1	Enero	2023-09-01T00:00:00	2024-11-08T19:00:00	6	Velocidad del viento	3.2
169998	7	Sololá	716	San Marcos la Laguna 	11	San Marcos la laguna 	1	Enero	2023-09-01T00:00:00	2024-11-08T19:00:00	7	Dirección del viento	3.22
169999	7	Sololá	716	San Marcos la Laguna 	11	San Marcos la laguna 	1	Enero	2023-09-01T00:00:00	2024-11-08T19:00:00	1	Precipitación	0
170000	7	Sololá	716	San Marcos la Laguna 	11	San Marcos la laguna 	1	Enero	2023-09-01T00:00:00	2024-11-08T19:00:00	8	Radiación solar	0
170001	7	Sololá	716	San Marcos la Laguna 	11	San Marcos la laguna 	1	Enero	2023-09-01T00:00:00	2024-11-08T20:00:00	2	Temperatura media	16.9
170002	7	Sololá	716	San Marcos la Laguna 	11	San Marcos la laguna 	1	Enero	2023-09-01T00:00:00	2024-11-08T20:00:00	4	Temperatura máxima	18.1
170003	7	Sololá	716	San Marcos la Laguna 	11	San Marcos la laguna 	1	Enero	2023-09-01T00:00:00	2024-11-08T20:00:00	3	Temperatura mínima	16.7
170004	7	Sololá	716	San Marcos la Laguna 	11	San Marcos la laguna 	1	Enero	2023-09-01T00:00:00	2024-11-08T20:00:00	5	Humedad	87
170005	7	Sololá	716	San Marcos la Laguna 	11	San Marcos la laguna 	1	Enero	2023-09-01T00:00:00	2024-11-08T20:00:00	6	Velocidad del viento	4.8
170006	7	Sololá	716	San Marcos la Laguna 	11	San Marcos la laguna 	1	Enero	2023-09-01T00:00:00	2024-11-08T20:00:00	7	Dirección del viento	4.83
170007	7	Sololá	716	San Marcos la Laguna 	11	San Marcos la laguna 	1	Enero	2023-09-01T00:00:00	2024-11-08T20:00:00	1	Precipitación	0
170008	7	Sololá	716	San Marcos la Laguna 	11	San Marcos la laguna 	1	Enero	2023-09-01T00:00:00	2024-11-08T20:00:00	8	Radiación solar	0
170009	7	Sololá	716	San Marcos la Laguna 	11	San Marcos la laguna 	1	Enero	2023-09-01T00:00:00	2024-11-08T21:00:00	2	Temperatura media	16.7
170010	7	Sololá	716	San Marcos la Laguna 	11	San Marcos la laguna 	1	Enero	2023-09-01T00:00:00	2024-11-08T21:00:00	4	Temperatura máxima	17.1
170011	7	Sololá	716	San Marcos la Laguna 	11	San Marcos la laguna 	1	Enero	2023-09-01T00:00:00	2024-11-08T21:00:00	3	Temperatura mínima	16.6
170012	7	Sololá	716	San Marcos la Laguna 	11	San Marcos la laguna 	1	Enero	2023-09-01T00:00:00	2024-11-08T21:00:00	5	Humedad	87
170013	7	Sololá	716	San Marcos la Laguna 	11	San Marcos la laguna 	1	Enero	2023-09-01T00:00:00	2024-11-08T21:00:00	6	Velocidad del viento	6.4
170014	7	Sololá	716	San Marcos la Laguna 	11	San Marcos la laguna 	1	Enero	2023-09-01T00:00:00	2024-11-08T21:00:00	7	Dirección del viento	6.44
170015	7	Sololá	716	San Marcos la Laguna 	11	San Marcos la laguna 	1	Enero	2023-09-01T00:00:00	2024-11-08T21:00:00	1	Precipitación	0
170016	7	Sololá	716	San Marcos la Laguna 	11	San Marcos la laguna 	1	Enero	2023-09-01T00:00:00	2024-11-08T21:00:00	8	Radiación solar	0
170017	7	Sololá	716	San Marcos la Laguna 	11	San Marcos la laguna 	1	Enero	2023-09-01T00:00:00	2024-11-08T22:00:00	2	Temperatura media	16.8
170018	7	Sololá	716	San Marcos la Laguna 	11	San Marcos la laguna 	1	Enero	2023-09-01T00:00:00	2024-11-08T22:00:00	4	Temperatura máxima	17.2
170019	7	Sololá	716	San Marcos la Laguna 	11	San Marcos la laguna 	1	Enero	2023-09-01T00:00:00	2024-11-08T22:00:00	3	Temperatura mínima	16.7
170020	7	Sololá	716	San Marcos la Laguna 	11	San Marcos la laguna 	1	Enero	2023-09-01T00:00:00	2024-11-08T22:00:00	5	Humedad	82
170021	7	Sololá	716	San Marcos la Laguna 	11	San Marcos la laguna 	1	Enero	2023-09-01T00:00:00	2024-11-08T22:00:00	6	Velocidad del viento	8
170022	7	Sololá	716	San Marcos la Laguna 	11	San Marcos la laguna 	1	Enero	2023-09-01T00:00:00	2024-11-08T22:00:00	7	Dirección del viento	8.05
170023	7	Sololá	716	San Marcos la Laguna 	11	San Marcos la laguna 	1	Enero	2023-09-01T00:00:00	2024-11-08T22:00:00	1	Precipitación	0
170024	7	Sololá	716	San Marcos la Laguna 	11	San Marcos la laguna 	1	Enero	2023-09-01T00:00:00	2024-11-08T22:00:00	8	Radiación solar	0
170025	7	Sololá	716	San Marcos la Laguna 	11	San Marcos la laguna 	1	Enero	2023-09-01T00:00:00	2024-11-08T23:00:00	2	Temperatura media	16.5
170026	7	Sololá	716	San Marcos la Laguna 	11	San Marcos la laguna 	1	Enero	2023-09-01T00:00:00	2024-11-08T23:00:00	4	Temperatura máxima	16.8
170027	7	Sololá	716	San Marcos la Laguna 	11	San Marcos la laguna 	1	Enero	2023-09-01T00:00:00	2024-11-08T23:00:00	3	Temperatura mínima	16
170028	7	Sololá	716	San Marcos la Laguna 	11	San Marcos la laguna 	1	Enero	2023-09-01T00:00:00	2024-11-08T23:00:00	5	Humedad	82
170029	7	Sololá	716	San Marcos la Laguna 	11	San Marcos la laguna 	1	Enero	2023-09-01T00:00:00	2024-11-08T23:00:00	6	Velocidad del viento	6.4
170030	7	Sololá	716	San Marcos la Laguna 	11	San Marcos la laguna 	1	Enero	2023-09-01T00:00:00	2024-11-08T23:00:00	7	Dirección del viento	6.44
170031	7	Sololá	716	San Marcos la Laguna 	11	San Marcos la laguna 	1	Enero	2023-09-01T00:00:00	2024-11-08T23:00:00	1	Precipitación	0
170032	7	Sololá	716	San Marcos la Laguna 	11	San Marcos la laguna 	1	Enero	2023-09-01T00:00:00	2024-11-08T23:00:00	8	Radiación solar	0
170033	7	Sololá	716	San Marcos la Laguna 	11	San Marcos la laguna 	1	Enero	2023-10-01T00:00:00	2024-11-08T00:00:00	2	Temperatura media	15.6
170034	7	Sololá	716	San Marcos la Laguna 	11	San Marcos la laguna 	1	Enero	2023-10-01T00:00:00	2024-11-08T00:00:00	4	Temperatura máxima	16.5
170035	7	Sololá	716	San Marcos la Laguna 	11	San Marcos la laguna 	1	Enero	2023-10-01T00:00:00	2024-11-08T00:00:00	3	Temperatura mínima	15.4
170036	7	Sololá	716	San Marcos la Laguna 	11	San Marcos la laguna 	1	Enero	2023-10-01T00:00:00	2024-11-08T00:00:00	5	Humedad	85
170037	7	Sololá	716	San Marcos la Laguna 	11	San Marcos la laguna 	1	Enero	2023-10-01T00:00:00	2024-11-08T00:00:00	6	Velocidad del viento	6.4
170038	7	Sololá	716	San Marcos la Laguna 	11	San Marcos la laguna 	1	Enero	2023-10-01T00:00:00	2024-11-08T00:00:00	7	Dirección del viento	6.44
170039	7	Sololá	716	San Marcos la Laguna 	11	San Marcos la laguna 	1	Enero	2023-10-01T00:00:00	2024-11-08T00:00:00	1	Precipitación	0
170040	7	Sololá	716	San Marcos la Laguna 	11	San Marcos la laguna 	1	Enero	2023-10-01T00:00:00	2024-11-08T00:00:00	8	Radiación solar	0
170041	7	Sololá	716	San Marcos la Laguna 	11	San Marcos la laguna 	1	Enero	2023-10-01T00:00:00	2024-11-08T01:00:00	2	Temperatura media	15.7
170042	7	Sololá	716	San Marcos la Laguna 	11	San Marcos la laguna 	1	Enero	2023-10-01T00:00:00	2024-11-08T01:00:00	4	Temperatura máxima	16.1
170043	7	Sololá	716	San Marcos la Laguna 	11	San Marcos la laguna 	1	Enero	2023-10-01T00:00:00	2024-11-08T01:00:00	3	Temperatura mínima	15.3
170044	7	Sololá	716	San Marcos la Laguna 	11	San Marcos la laguna 	1	Enero	2023-10-01T00:00:00	2024-11-08T01:00:00	5	Humedad	83
170045	7	Sololá	716	San Marcos la Laguna 	11	San Marcos la laguna 	1	Enero	2023-10-01T00:00:00	2024-11-08T01:00:00	6	Velocidad del viento	6.4
170046	7	Sololá	716	San Marcos la Laguna 	11	San Marcos la laguna 	1	Enero	2023-10-01T00:00:00	2024-11-08T01:00:00	7	Dirección del viento	6.44
170047	7	Sololá	716	San Marcos la Laguna 	11	San Marcos la laguna 	1	Enero	2023-10-01T00:00:00	2024-11-08T01:00:00	1	Precipitación	0
170048	7	Sololá	716	San Marcos la Laguna 	11	San Marcos la laguna 	1	Enero	2023-10-01T00:00:00	2024-11-08T01:00:00	8	Radiación solar	0
170049	7	Sololá	716	San Marcos la Laguna 	11	San Marcos la laguna 	1	Enero	2023-10-01T00:00:00	2024-11-08T02:00:00	2	Temperatura media	15.4
170050	7	Sololá	716	San Marcos la Laguna 	11	San Marcos la laguna 	1	Enero	2023-10-01T00:00:00	2024-11-08T02:00:00	4	Temperatura máxima	15.8
170051	7	Sololá	716	San Marcos la Laguna 	11	San Marcos la laguna 	1	Enero	2023-10-01T00:00:00	2024-11-08T02:00:00	3	Temperatura mínima	15.2
170052	7	Sololá	716	San Marcos la Laguna 	11	San Marcos la laguna 	1	Enero	2023-10-01T00:00:00	2024-11-08T02:00:00	5	Humedad	82
170053	7	Sololá	716	San Marcos la Laguna 	11	San Marcos la laguna 	1	Enero	2023-10-01T00:00:00	2024-11-08T02:00:00	6	Velocidad del viento	6.4
170054	7	Sololá	716	San Marcos la Laguna 	11	San Marcos la laguna 	1	Enero	2023-10-01T00:00:00	2024-11-08T02:00:00	7	Dirección del viento	6.44
170055	7	Sololá	716	San Marcos la Laguna 	11	San Marcos la laguna 	1	Enero	2023-10-01T00:00:00	2024-11-08T02:00:00	1	Precipitación	0
170056	7	Sololá	716	San Marcos la Laguna 	11	San Marcos la laguna 	1	Enero	2023-10-01T00:00:00	2024-11-08T02:00:00	8	Radiación solar	0
170057	7	Sololá	716	San Marcos la Laguna 	11	San Marcos la laguna 	1	Enero	2023-10-01T00:00:00	2024-11-08T03:00:00	2	Temperatura media	15
170058	7	Sololá	716	San Marcos la Laguna 	11	San Marcos la laguna 	1	Enero	2023-10-01T00:00:00	2024-11-08T03:00:00	4	Temperatura máxima	15.4
170059	7	Sololá	716	San Marcos la Laguna 	11	San Marcos la laguna 	1	Enero	2023-10-01T00:00:00	2024-11-08T03:00:00	3	Temperatura mínima	14.6
170060	7	Sololá	716	San Marcos la Laguna 	11	San Marcos la laguna 	1	Enero	2023-10-01T00:00:00	2024-11-08T03:00:00	5	Humedad	84
170061	7	Sololá	716	San Marcos la Laguna 	11	San Marcos la laguna 	1	Enero	2023-10-01T00:00:00	2024-11-08T03:00:00	6	Velocidad del viento	6.4
170062	7	Sololá	716	San Marcos la Laguna 	11	San Marcos la laguna 	1	Enero	2023-10-01T00:00:00	2024-11-08T03:00:00	7	Dirección del viento	6.44
170063	7	Sololá	716	San Marcos la Laguna 	11	San Marcos la laguna 	1	Enero	2023-10-01T00:00:00	2024-11-08T03:00:00	1	Precipitación	0
170064	7	Sololá	716	San Marcos la Laguna 	11	San Marcos la laguna 	1	Enero	2023-10-01T00:00:00	2024-11-08T03:00:00	8	Radiación solar	0
170065	7	Sololá	716	San Marcos la Laguna 	11	San Marcos la laguna 	1	Enero	2023-10-01T00:00:00	2024-11-08T04:00:00	2	Temperatura media	15
170066	7	Sololá	716	San Marcos la Laguna 	11	San Marcos la laguna 	1	Enero	2023-10-01T00:00:00	2024-11-08T04:00:00	4	Temperatura máxima	15.1
170067	7	Sololá	716	San Marcos la Laguna 	11	San Marcos la laguna 	1	Enero	2023-10-01T00:00:00	2024-11-08T04:00:00	3	Temperatura mínima	14.7
170068	7	Sololá	716	San Marcos la Laguna 	11	San Marcos la laguna 	1	Enero	2023-10-01T00:00:00	2024-11-08T04:00:00	5	Humedad	83
170069	7	Sololá	716	San Marcos la Laguna 	11	San Marcos la laguna 	1	Enero	2023-10-01T00:00:00	2024-11-08T04:00:00	6	Velocidad del viento	8
170070	7	Sololá	716	San Marcos la Laguna 	11	San Marcos la laguna 	1	Enero	2023-10-01T00:00:00	2024-11-08T04:00:00	7	Dirección del viento	8.05
170071	7	Sololá	716	San Marcos la Laguna 	11	San Marcos la laguna 	1	Enero	2023-10-01T00:00:00	2024-11-08T04:00:00	1	Precipitación	0
170072	7	Sololá	716	San Marcos la Laguna 	11	San Marcos la laguna 	1	Enero	2023-10-01T00:00:00	2024-11-08T04:00:00	8	Radiación solar	0
170073	7	Sololá	716	San Marcos la Laguna 	11	San Marcos la laguna 	1	Enero	2023-10-01T00:00:00	2024-11-08T05:00:00	2	Temperatura media	14.2
170074	7	Sololá	716	San Marcos la Laguna 	11	San Marcos la laguna 	1	Enero	2023-10-01T00:00:00	2024-11-08T05:00:00	4	Temperatura máxima	15.1
170075	7	Sololá	716	San Marcos la Laguna 	11	San Marcos la laguna 	1	Enero	2023-10-01T00:00:00	2024-11-08T05:00:00	3	Temperatura mínima	14.1
170076	7	Sololá	716	San Marcos la Laguna 	11	San Marcos la laguna 	1	Enero	2023-10-01T00:00:00	2024-11-08T05:00:00	5	Humedad	84
170077	7	Sololá	716	San Marcos la Laguna 	11	San Marcos la laguna 	1	Enero	2023-10-01T00:00:00	2024-11-08T05:00:00	6	Velocidad del viento	6.4
170078	7	Sololá	716	San Marcos la Laguna 	11	San Marcos la laguna 	1	Enero	2023-10-01T00:00:00	2024-11-08T05:00:00	7	Dirección del viento	6.44
170079	7	Sololá	716	San Marcos la Laguna 	11	San Marcos la laguna 	1	Enero	2023-10-01T00:00:00	2024-11-08T05:00:00	1	Precipitación	0
170080	7	Sololá	716	San Marcos la Laguna 	11	San Marcos la laguna 	1	Enero	2023-10-01T00:00:00	2024-11-08T05:00:00	8	Radiación solar	0
170081	7	Sololá	716	San Marcos la Laguna 	11	San Marcos la laguna 	1	Enero	2023-10-01T00:00:00	2024-11-08T06:00:00	2	Temperatura media	13.7
170082	7	Sololá	716	San Marcos la Laguna 	11	San Marcos la laguna 	1	Enero	2023-10-01T00:00:00	2024-11-08T06:00:00	4	Temperatura máxima	14.2
170083	7	Sololá	716	San Marcos la Laguna 	11	San Marcos la laguna 	1	Enero	2023-10-01T00:00:00	2024-11-08T06:00:00	3	Temperatura mínima	13.7
170084	7	Sololá	716	San Marcos la Laguna 	11	San Marcos la laguna 	1	Enero	2023-10-01T00:00:00	2024-11-08T06:00:00	5	Humedad	87
170085	7	Sololá	716	San Marcos la Laguna 	11	San Marcos la laguna 	1	Enero	2023-10-01T00:00:00	2024-11-08T06:00:00	6	Velocidad del viento	6.4
170086	7	Sololá	716	San Marcos la Laguna 	11	San Marcos la laguna 	1	Enero	2023-10-01T00:00:00	2024-11-08T06:00:00	7	Dirección del viento	6.44
170087	7	Sololá	716	San Marcos la Laguna 	11	San Marcos la laguna 	1	Enero	2023-10-01T00:00:00	2024-11-08T06:00:00	1	Precipitación	0
170088	7	Sololá	716	San Marcos la Laguna 	11	San Marcos la laguna 	1	Enero	2023-10-01T00:00:00	2024-11-08T06:00:00	8	Radiación solar	0
170089	7	Sololá	716	San Marcos la Laguna 	11	San Marcos la laguna 	1	Enero	2023-10-01T00:00:00	2024-11-08T07:00:00	2	Temperatura media	13.7
170090	7	Sololá	716	San Marcos la Laguna 	11	San Marcos la laguna 	1	Enero	2023-10-01T00:00:00	2024-11-08T07:00:00	4	Temperatura máxima	13.8
170091	7	Sololá	716	San Marcos la Laguna 	11	San Marcos la laguna 	1	Enero	2023-10-01T00:00:00	2024-11-08T07:00:00	3	Temperatura mínima	13.6
170092	7	Sololá	716	San Marcos la Laguna 	11	San Marcos la laguna 	1	Enero	2023-10-01T00:00:00	2024-11-08T07:00:00	5	Humedad	87
170093	7	Sololá	716	San Marcos la Laguna 	11	San Marcos la laguna 	1	Enero	2023-10-01T00:00:00	2024-11-08T07:00:00	6	Velocidad del viento	6.4
170094	7	Sololá	716	San Marcos la Laguna 	11	San Marcos la laguna 	1	Enero	2023-10-01T00:00:00	2024-11-08T07:00:00	7	Dirección del viento	6.44
170095	7	Sololá	716	San Marcos la Laguna 	11	San Marcos la laguna 	1	Enero	2023-10-01T00:00:00	2024-11-08T07:00:00	1	Precipitación	0
170096	7	Sololá	716	San Marcos la Laguna 	11	San Marcos la laguna 	1	Enero	2023-10-01T00:00:00	2024-11-08T07:00:00	8	Radiación solar	4
170097	7	Sololá	716	San Marcos la Laguna 	11	San Marcos la laguna 	1	Enero	2023-10-01T00:00:00	2024-11-08T08:00:00	2	Temperatura media	17.9
170098	7	Sololá	716	San Marcos la Laguna 	11	San Marcos la laguna 	1	Enero	2023-10-01T00:00:00	2024-11-08T08:00:00	4	Temperatura máxima	17.9
170099	7	Sololá	716	San Marcos la Laguna 	11	San Marcos la laguna 	1	Enero	2023-10-01T00:00:00	2024-11-08T08:00:00	3	Temperatura mínima	13.6
170100	7	Sololá	716	San Marcos la Laguna 	11	San Marcos la laguna 	1	Enero	2023-10-01T00:00:00	2024-11-08T08:00:00	5	Humedad	78
170101	7	Sololá	716	San Marcos la Laguna 	11	San Marcos la laguna 	1	Enero	2023-10-01T00:00:00	2024-11-08T08:00:00	6	Velocidad del viento	3.2
170102	7	Sololá	716	San Marcos la Laguna 	11	San Marcos la laguna 	1	Enero	2023-10-01T00:00:00	2024-11-08T08:00:00	7	Dirección del viento	3.22
170103	7	Sololá	716	San Marcos la Laguna 	11	San Marcos la laguna 	1	Enero	2023-10-01T00:00:00	2024-11-08T08:00:00	1	Precipitación	0
170104	7	Sololá	716	San Marcos la Laguna 	11	San Marcos la laguna 	1	Enero	2023-10-01T00:00:00	2024-11-08T08:00:00	8	Radiación solar	115
170105	7	Sololá	716	San Marcos la Laguna 	11	San Marcos la laguna 	1	Enero	2023-10-01T00:00:00	2024-11-08T09:00:00	2	Temperatura media	19.1
170106	7	Sololá	716	San Marcos la Laguna 	11	San Marcos la laguna 	1	Enero	2023-10-01T00:00:00	2024-11-08T09:00:00	4	Temperatura máxima	19.3
170107	7	Sololá	716	San Marcos la Laguna 	11	San Marcos la laguna 	1	Enero	2023-10-01T00:00:00	2024-11-08T09:00:00	3	Temperatura mínima	17.9
170108	7	Sololá	716	San Marcos la Laguna 	11	San Marcos la laguna 	1	Enero	2023-10-01T00:00:00	2024-11-08T09:00:00	5	Humedad	74
170109	7	Sololá	716	San Marcos la Laguna 	11	San Marcos la laguna 	1	Enero	2023-10-01T00:00:00	2024-11-08T09:00:00	6	Velocidad del viento	3.2
170110	7	Sololá	716	San Marcos la Laguna 	11	San Marcos la laguna 	1	Enero	2023-10-01T00:00:00	2024-11-08T09:00:00	7	Dirección del viento	3.22
170111	7	Sololá	716	San Marcos la Laguna 	11	San Marcos la laguna 	1	Enero	2023-10-01T00:00:00	2024-11-08T09:00:00	1	Precipitación	0
170112	7	Sololá	716	San Marcos la Laguna 	11	San Marcos la laguna 	1	Enero	2023-10-01T00:00:00	2024-11-08T09:00:00	8	Radiación solar	322
170113	7	Sololá	716	San Marcos la Laguna 	11	San Marcos la laguna 	1	Enero	2023-10-01T00:00:00	2024-11-08T10:00:00	2	Temperatura media	20.3
170114	7	Sololá	716	San Marcos la Laguna 	11	San Marcos la laguna 	1	Enero	2023-10-01T00:00:00	2024-11-08T10:00:00	4	Temperatura máxima	20.3
170115	7	Sololá	716	San Marcos la Laguna 	11	San Marcos la laguna 	1	Enero	2023-10-01T00:00:00	2024-11-08T10:00:00	3	Temperatura mínima	19.1
170116	7	Sololá	716	San Marcos la Laguna 	11	San Marcos la laguna 	1	Enero	2023-10-01T00:00:00	2024-11-08T10:00:00	5	Humedad	65
170117	7	Sololá	716	San Marcos la Laguna 	11	San Marcos la laguna 	1	Enero	2023-10-01T00:00:00	2024-11-08T10:00:00	6	Velocidad del viento	3.2
170118	7	Sololá	716	San Marcos la Laguna 	11	San Marcos la laguna 	1	Enero	2023-10-01T00:00:00	2024-11-08T10:00:00	7	Dirección del viento	3.22
170119	7	Sololá	716	San Marcos la Laguna 	11	San Marcos la laguna 	1	Enero	2023-10-01T00:00:00	2024-11-08T10:00:00	1	Precipitación	0
170120	7	Sololá	716	San Marcos la Laguna 	11	San Marcos la laguna 	1	Enero	2023-10-01T00:00:00	2024-11-08T10:00:00	8	Radiación solar	507
170121	7	Sololá	716	San Marcos la Laguna 	11	San Marcos la laguna 	1	Enero	2023-10-01T00:00:00	2024-11-08T11:00:00	2	Temperatura media	21.5
170122	7	Sololá	716	San Marcos la Laguna 	11	San Marcos la laguna 	1	Enero	2023-10-01T00:00:00	2024-11-08T11:00:00	4	Temperatura máxima	21.6
170123	7	Sololá	716	San Marcos la Laguna 	11	San Marcos la laguna 	1	Enero	2023-10-01T00:00:00	2024-11-08T11:00:00	3	Temperatura mínima	20.3
170124	7	Sololá	716	San Marcos la Laguna 	11	San Marcos la laguna 	1	Enero	2023-10-01T00:00:00	2024-11-08T11:00:00	5	Humedad	62
170125	7	Sololá	716	San Marcos la Laguna 	11	San Marcos la laguna 	1	Enero	2023-10-01T00:00:00	2024-11-08T11:00:00	6	Velocidad del viento	3.2
170126	7	Sololá	716	San Marcos la Laguna 	11	San Marcos la laguna 	1	Enero	2023-10-01T00:00:00	2024-11-08T11:00:00	7	Dirección del viento	3.22
170127	7	Sololá	716	San Marcos la Laguna 	11	San Marcos la laguna 	1	Enero	2023-10-01T00:00:00	2024-11-08T11:00:00	1	Precipitación	0
170128	7	Sololá	716	San Marcos la Laguna 	11	San Marcos la laguna 	1	Enero	2023-10-01T00:00:00	2024-11-08T11:00:00	8	Radiación solar	541
170129	7	Sololá	716	San Marcos la Laguna 	11	San Marcos la laguna 	1	Enero	2023-10-01T00:00:00	2024-11-08T12:00:00	2	Temperatura media	21.7
170130	7	Sololá	716	San Marcos la Laguna 	11	San Marcos la laguna 	1	Enero	2023-10-01T00:00:00	2024-11-08T12:00:00	4	Temperatura máxima	22.1
170131	7	Sololá	716	San Marcos la Laguna 	11	San Marcos la laguna 	1	Enero	2023-10-01T00:00:00	2024-11-08T12:00:00	3	Temperatura mínima	21.3
170132	7	Sololá	716	San Marcos la Laguna 	11	San Marcos la laguna 	1	Enero	2023-10-01T00:00:00	2024-11-08T12:00:00	5	Humedad	67
170133	7	Sololá	716	San Marcos la Laguna 	11	San Marcos la laguna 	1	Enero	2023-10-01T00:00:00	2024-11-08T12:00:00	6	Velocidad del viento	8
170134	7	Sololá	716	San Marcos la Laguna 	11	San Marcos la laguna 	1	Enero	2023-10-01T00:00:00	2024-11-08T12:00:00	7	Dirección del viento	8.05
170135	7	Sololá	716	San Marcos la Laguna 	11	San Marcos la laguna 	1	Enero	2023-10-01T00:00:00	2024-11-08T12:00:00	1	Precipitación	0
170136	7	Sololá	716	San Marcos la Laguna 	11	San Marcos la laguna 	1	Enero	2023-10-01T00:00:00	2024-11-08T12:00:00	8	Radiación solar	716
170137	7	Sololá	716	San Marcos la Laguna 	11	San Marcos la laguna 	1	Enero	2023-10-01T00:00:00	2024-11-08T13:00:00	2	Temperatura media	21.9
170138	7	Sololá	716	San Marcos la Laguna 	11	San Marcos la laguna 	1	Enero	2023-10-01T00:00:00	2024-11-08T13:00:00	4	Temperatura máxima	22.3
170139	7	Sololá	716	San Marcos la Laguna 	11	San Marcos la laguna 	1	Enero	2023-10-01T00:00:00	2024-11-08T13:00:00	3	Temperatura mínima	21.7
170140	7	Sololá	716	San Marcos la Laguna 	11	San Marcos la laguna 	1	Enero	2023-10-01T00:00:00	2024-11-08T13:00:00	5	Humedad	66
170141	7	Sololá	716	San Marcos la Laguna 	11	San Marcos la laguna 	1	Enero	2023-10-01T00:00:00	2024-11-08T13:00:00	6	Velocidad del viento	11.3
170142	7	Sololá	716	San Marcos la Laguna 	11	San Marcos la laguna 	1	Enero	2023-10-01T00:00:00	2024-11-08T13:00:00	7	Dirección del viento	11.27
170143	7	Sololá	716	San Marcos la Laguna 	11	San Marcos la laguna 	1	Enero	2023-10-01T00:00:00	2024-11-08T13:00:00	1	Precipitación	0
170144	7	Sololá	716	San Marcos la Laguna 	11	San Marcos la laguna 	1	Enero	2023-10-01T00:00:00	2024-11-08T13:00:00	8	Radiación solar	762
170145	7	Sololá	716	San Marcos la Laguna 	11	San Marcos la laguna 	1	Enero	2023-10-01T00:00:00	2024-11-08T14:00:00	2	Temperatura media	21.8
170146	7	Sololá	716	San Marcos la Laguna 	11	San Marcos la laguna 	1	Enero	2023-10-01T00:00:00	2024-11-08T14:00:00	4	Temperatura máxima	22.1
170147	7	Sololá	716	San Marcos la Laguna 	11	San Marcos la laguna 	1	Enero	2023-10-01T00:00:00	2024-11-08T14:00:00	3	Temperatura mínima	21.6
170148	7	Sololá	716	San Marcos la Laguna 	11	San Marcos la laguna 	1	Enero	2023-10-01T00:00:00	2024-11-08T14:00:00	5	Humedad	71
170149	7	Sololá	716	San Marcos la Laguna 	11	San Marcos la laguna 	1	Enero	2023-10-01T00:00:00	2024-11-08T14:00:00	6	Velocidad del viento	12.9
170150	7	Sololá	716	San Marcos la Laguna 	11	San Marcos la laguna 	1	Enero	2023-10-01T00:00:00	2024-11-08T14:00:00	7	Dirección del viento	12.87
170151	7	Sololá	716	San Marcos la Laguna 	11	San Marcos la laguna 	1	Enero	2023-10-01T00:00:00	2024-11-08T14:00:00	1	Precipitación	0
170152	7	Sololá	716	San Marcos la Laguna 	11	San Marcos la laguna 	1	Enero	2023-10-01T00:00:00	2024-11-08T14:00:00	8	Radiación solar	759
170153	7	Sololá	716	San Marcos la Laguna 	11	San Marcos la laguna 	1	Enero	2023-10-01T00:00:00	2024-11-08T15:00:00	2	Temperatura media	21
170154	7	Sololá	716	San Marcos la Laguna 	11	San Marcos la laguna 	1	Enero	2023-10-01T00:00:00	2024-11-08T15:00:00	4	Temperatura máxima	21.9
170155	7	Sololá	716	San Marcos la Laguna 	11	San Marcos la laguna 	1	Enero	2023-10-01T00:00:00	2024-11-08T15:00:00	3	Temperatura mínima	20.9
170156	7	Sololá	716	San Marcos la Laguna 	11	San Marcos la laguna 	1	Enero	2023-10-01T00:00:00	2024-11-08T15:00:00	5	Humedad	78
170157	7	Sololá	716	San Marcos la Laguna 	11	San Marcos la laguna 	1	Enero	2023-10-01T00:00:00	2024-11-08T15:00:00	6	Velocidad del viento	11.3
170158	7	Sololá	716	San Marcos la Laguna 	11	San Marcos la laguna 	1	Enero	2023-10-01T00:00:00	2024-11-08T15:00:00	7	Dirección del viento	11.27
170159	7	Sololá	716	San Marcos la Laguna 	11	San Marcos la laguna 	1	Enero	2023-10-01T00:00:00	2024-11-08T15:00:00	1	Precipitación	0
170160	7	Sololá	716	San Marcos la Laguna 	11	San Marcos la laguna 	1	Enero	2023-10-01T00:00:00	2024-11-08T15:00:00	8	Radiación solar	602
170161	7	Sololá	716	San Marcos la Laguna 	11	San Marcos la laguna 	1	Enero	2023-10-01T00:00:00	2024-11-08T16:00:00	2	Temperatura media	20.1
170162	7	Sololá	716	San Marcos la Laguna 	11	San Marcos la laguna 	1	Enero	2023-10-01T00:00:00	2024-11-08T16:00:00	4	Temperatura máxima	21.1
170163	7	Sololá	716	San Marcos la Laguna 	11	San Marcos la laguna 	1	Enero	2023-10-01T00:00:00	2024-11-08T16:00:00	3	Temperatura mínima	20
170164	7	Sololá	716	San Marcos la Laguna 	11	San Marcos la laguna 	1	Enero	2023-10-01T00:00:00	2024-11-08T16:00:00	5	Humedad	82
170165	7	Sololá	716	San Marcos la Laguna 	11	San Marcos la laguna 	1	Enero	2023-10-01T00:00:00	2024-11-08T16:00:00	6	Velocidad del viento	9.7
170166	7	Sololá	716	San Marcos la Laguna 	11	San Marcos la laguna 	1	Enero	2023-10-01T00:00:00	2024-11-08T16:00:00	7	Dirección del viento	9.66
170167	7	Sololá	716	San Marcos la Laguna 	11	San Marcos la laguna 	1	Enero	2023-10-01T00:00:00	2024-11-08T16:00:00	1	Precipitación	0
170168	7	Sololá	716	San Marcos la Laguna 	11	San Marcos la laguna 	1	Enero	2023-10-01T00:00:00	2024-11-08T16:00:00	8	Radiación solar	179
170169	7	Sololá	716	San Marcos la Laguna 	11	San Marcos la laguna 	1	Enero	2023-10-01T00:00:00	2024-11-08T17:00:00	2	Temperatura media	19.5
170170	7	Sololá	716	San Marcos la Laguna 	11	San Marcos la laguna 	1	Enero	2023-10-01T00:00:00	2024-11-08T17:00:00	4	Temperatura máxima	20.1
170171	7	Sololá	716	San Marcos la Laguna 	11	San Marcos la laguna 	1	Enero	2023-10-01T00:00:00	2024-11-08T17:00:00	3	Temperatura mínima	19.4
170172	7	Sololá	716	San Marcos la Laguna 	11	San Marcos la laguna 	1	Enero	2023-10-01T00:00:00	2024-11-08T17:00:00	5	Humedad	85
170173	7	Sololá	716	San Marcos la Laguna 	11	San Marcos la laguna 	1	Enero	2023-10-01T00:00:00	2024-11-08T17:00:00	6	Velocidad del viento	8
170174	7	Sololá	716	San Marcos la Laguna 	11	San Marcos la laguna 	1	Enero	2023-10-01T00:00:00	2024-11-08T17:00:00	7	Dirección del viento	8.05
170175	7	Sololá	716	San Marcos la Laguna 	11	San Marcos la laguna 	1	Enero	2023-10-01T00:00:00	2024-11-08T17:00:00	1	Precipitación	0
170176	7	Sololá	716	San Marcos la Laguna 	11	San Marcos la laguna 	1	Enero	2023-10-01T00:00:00	2024-11-08T17:00:00	8	Radiación solar	74
170177	7	Sololá	716	San Marcos la Laguna 	11	San Marcos la laguna 	1	Enero	2023-10-01T00:00:00	2024-11-08T18:00:00	2	Temperatura media	19.2
170178	7	Sololá	716	San Marcos la Laguna 	11	San Marcos la laguna 	1	Enero	2023-10-01T00:00:00	2024-11-08T18:00:00	4	Temperatura máxima	19.6
170179	7	Sololá	716	San Marcos la Laguna 	11	San Marcos la laguna 	1	Enero	2023-10-01T00:00:00	2024-11-08T18:00:00	3	Temperatura mínima	19.2
170180	7	Sololá	716	San Marcos la Laguna 	11	San Marcos la laguna 	1	Enero	2023-10-01T00:00:00	2024-11-08T18:00:00	5	Humedad	84
170181	7	Sololá	716	San Marcos la Laguna 	11	San Marcos la laguna 	1	Enero	2023-10-01T00:00:00	2024-11-08T18:00:00	6	Velocidad del viento	3.2
170182	7	Sololá	716	San Marcos la Laguna 	11	San Marcos la laguna 	1	Enero	2023-10-01T00:00:00	2024-11-08T18:00:00	7	Dirección del viento	3.22
170183	7	Sololá	716	San Marcos la Laguna 	11	San Marcos la laguna 	1	Enero	2023-10-01T00:00:00	2024-11-08T18:00:00	1	Precipitación	0
170184	7	Sololá	716	San Marcos la Laguna 	11	San Marcos la laguna 	1	Enero	2023-10-01T00:00:00	2024-11-08T18:00:00	8	Radiación solar	11
170185	7	Sololá	716	San Marcos la Laguna 	11	San Marcos la laguna 	1	Enero	2023-10-01T00:00:00	2024-11-08T19:00:00	2	Temperatura media	19.9
170186	7	Sololá	716	San Marcos la Laguna 	11	San Marcos la laguna 	1	Enero	2023-10-01T00:00:00	2024-11-08T19:00:00	4	Temperatura máxima	20.1
170187	7	Sololá	716	San Marcos la Laguna 	11	San Marcos la laguna 	1	Enero	2023-10-01T00:00:00	2024-11-08T19:00:00	3	Temperatura mínima	18.4
170188	7	Sololá	716	San Marcos la Laguna 	11	San Marcos la laguna 	1	Enero	2023-10-01T00:00:00	2024-11-08T19:00:00	5	Humedad	67
170189	7	Sololá	716	San Marcos la Laguna 	11	San Marcos la laguna 	1	Enero	2023-10-01T00:00:00	2024-11-08T19:00:00	6	Velocidad del viento	6.4
170190	7	Sololá	716	San Marcos la Laguna 	11	San Marcos la laguna 	1	Enero	2023-10-01T00:00:00	2024-11-08T19:00:00	7	Dirección del viento	6.44
170191	7	Sololá	716	San Marcos la Laguna 	11	San Marcos la laguna 	1	Enero	2023-10-01T00:00:00	2024-11-08T19:00:00	1	Precipitación	0
170192	7	Sololá	716	San Marcos la Laguna 	11	San Marcos la laguna 	1	Enero	2023-10-01T00:00:00	2024-11-08T19:00:00	8	Radiación solar	0
170193	7	Sololá	716	San Marcos la Laguna 	11	San Marcos la laguna 	1	Enero	2023-10-01T00:00:00	2024-11-08T20:00:00	2	Temperatura media	19.6
170194	7	Sololá	716	San Marcos la Laguna 	11	San Marcos la laguna 	1	Enero	2023-10-01T00:00:00	2024-11-08T20:00:00	4	Temperatura máxima	20.2
170195	7	Sololá	716	San Marcos la Laguna 	11	San Marcos la laguna 	1	Enero	2023-10-01T00:00:00	2024-11-08T20:00:00	3	Temperatura mínima	19.6
170196	7	Sololá	716	San Marcos la Laguna 	11	San Marcos la laguna 	1	Enero	2023-10-01T00:00:00	2024-11-08T20:00:00	5	Humedad	66
170197	7	Sololá	716	San Marcos la Laguna 	11	San Marcos la laguna 	1	Enero	2023-10-01T00:00:00	2024-11-08T20:00:00	6	Velocidad del viento	6.4
170198	7	Sololá	716	San Marcos la Laguna 	11	San Marcos la laguna 	1	Enero	2023-10-01T00:00:00	2024-11-08T20:00:00	7	Dirección del viento	6.44
170199	7	Sololá	716	San Marcos la Laguna 	11	San Marcos la laguna 	1	Enero	2023-10-01T00:00:00	2024-11-08T20:00:00	1	Precipitación	0
170200	7	Sololá	716	San Marcos la Laguna 	11	San Marcos la laguna 	1	Enero	2023-10-01T00:00:00	2024-11-08T20:00:00	8	Radiación solar	0
170201	7	Sololá	716	San Marcos la Laguna 	11	San Marcos la laguna 	1	Enero	2023-10-01T00:00:00	2024-11-08T21:00:00	2	Temperatura media	17.2
170202	7	Sololá	716	San Marcos la Laguna 	11	San Marcos la laguna 	1	Enero	2023-10-01T00:00:00	2024-11-08T21:00:00	4	Temperatura máxima	19.7
170203	7	Sololá	716	San Marcos la Laguna 	11	San Marcos la laguna 	1	Enero	2023-10-01T00:00:00	2024-11-08T21:00:00	3	Temperatura mínima	17.2
170204	7	Sololá	716	San Marcos la Laguna 	11	San Marcos la laguna 	1	Enero	2023-10-01T00:00:00	2024-11-08T21:00:00	5	Humedad	75
170205	7	Sololá	716	San Marcos la Laguna 	11	San Marcos la laguna 	1	Enero	2023-10-01T00:00:00	2024-11-08T21:00:00	6	Velocidad del viento	4.8
170206	7	Sololá	716	San Marcos la Laguna 	11	San Marcos la laguna 	1	Enero	2023-10-01T00:00:00	2024-11-08T21:00:00	7	Dirección del viento	4.83
170207	7	Sololá	716	San Marcos la Laguna 	11	San Marcos la laguna 	1	Enero	2023-10-01T00:00:00	2024-11-08T21:00:00	1	Precipitación	0
170208	7	Sololá	716	San Marcos la Laguna 	11	San Marcos la laguna 	1	Enero	2023-10-01T00:00:00	2024-11-08T21:00:00	8	Radiación solar	0
170209	7	Sololá	716	San Marcos la Laguna 	11	San Marcos la laguna 	1	Enero	2023-10-01T00:00:00	2024-11-08T22:00:00	2	Temperatura media	16.3
170210	7	Sololá	716	San Marcos la Laguna 	11	San Marcos la laguna 	1	Enero	2023-10-01T00:00:00	2024-11-08T22:00:00	4	Temperatura máxima	17.3
170211	7	Sololá	716	San Marcos la Laguna 	11	San Marcos la laguna 	1	Enero	2023-10-01T00:00:00	2024-11-08T22:00:00	3	Temperatura mínima	15.9
170212	7	Sololá	716	San Marcos la Laguna 	11	San Marcos la laguna 	1	Enero	2023-10-01T00:00:00	2024-11-08T22:00:00	5	Humedad	78
170213	7	Sololá	716	San Marcos la Laguna 	11	San Marcos la laguna 	1	Enero	2023-10-01T00:00:00	2024-11-08T22:00:00	6	Velocidad del viento	4.8
170214	7	Sololá	716	San Marcos la Laguna 	11	San Marcos la laguna 	1	Enero	2023-10-01T00:00:00	2024-11-08T22:00:00	7	Dirección del viento	4.83
170215	7	Sololá	716	San Marcos la Laguna 	11	San Marcos la laguna 	1	Enero	2023-10-01T00:00:00	2024-11-08T22:00:00	1	Precipitación	0
170216	7	Sololá	716	San Marcos la Laguna 	11	San Marcos la laguna 	1	Enero	2023-10-01T00:00:00	2024-11-08T22:00:00	8	Radiación solar	0
170217	7	Sololá	716	San Marcos la Laguna 	11	San Marcos la laguna 	1	Enero	2023-10-01T00:00:00	2024-11-08T23:00:00	2	Temperatura media	15.8
170218	7	Sololá	716	San Marcos la Laguna 	11	San Marcos la laguna 	1	Enero	2023-10-01T00:00:00	2024-11-08T23:00:00	4	Temperatura máxima	16.6
170219	7	Sololá	716	San Marcos la Laguna 	11	San Marcos la laguna 	1	Enero	2023-10-01T00:00:00	2024-11-08T23:00:00	3	Temperatura mínima	15.7
170220	7	Sololá	716	San Marcos la Laguna 	11	San Marcos la laguna 	1	Enero	2023-10-01T00:00:00	2024-11-08T23:00:00	5	Humedad	79
170221	7	Sololá	716	San Marcos la Laguna 	11	San Marcos la laguna 	1	Enero	2023-10-01T00:00:00	2024-11-08T23:00:00	6	Velocidad del viento	6.4
170222	7	Sololá	716	San Marcos la Laguna 	11	San Marcos la laguna 	1	Enero	2023-10-01T00:00:00	2024-11-08T23:00:00	7	Dirección del viento	6.44
170223	7	Sololá	716	San Marcos la Laguna 	11	San Marcos la laguna 	1	Enero	2023-10-01T00:00:00	2024-11-08T23:00:00	1	Precipitación	0
170224	7	Sololá	716	San Marcos la Laguna 	11	San Marcos la laguna 	1	Enero	2023-10-01T00:00:00	2024-11-08T23:00:00	8	Radiación solar	0
170225	7	Sololá	716	San Marcos la Laguna 	11	San Marcos la laguna 	1	Enero	2023-11-01T00:00:00	2024-11-08T00:00:00	2	Temperatura media	16.3
170226	7	Sololá	716	San Marcos la Laguna 	11	San Marcos la laguna 	1	Enero	2023-11-01T00:00:00	2024-11-08T00:00:00	4	Temperatura máxima	16.3
170227	7	Sololá	716	San Marcos la Laguna 	11	San Marcos la laguna 	1	Enero	2023-11-01T00:00:00	2024-11-08T00:00:00	3	Temperatura mínima	15.6
170228	7	Sololá	716	San Marcos la Laguna 	11	San Marcos la laguna 	1	Enero	2023-11-01T00:00:00	2024-11-08T00:00:00	5	Humedad	76
170229	7	Sololá	716	San Marcos la Laguna 	11	San Marcos la laguna 	1	Enero	2023-11-01T00:00:00	2024-11-08T00:00:00	6	Velocidad del viento	8
170230	7	Sololá	716	San Marcos la Laguna 	11	San Marcos la laguna 	1	Enero	2023-11-01T00:00:00	2024-11-08T00:00:00	7	Dirección del viento	8.05
170231	7	Sololá	716	San Marcos la Laguna 	11	San Marcos la laguna 	1	Enero	2023-11-01T00:00:00	2024-11-08T00:00:00	1	Precipitación	0
170232	7	Sololá	716	San Marcos la Laguna 	11	San Marcos la laguna 	1	Enero	2023-11-01T00:00:00	2024-11-08T00:00:00	8	Radiación solar	0
170233	7	Sololá	716	San Marcos la Laguna 	11	San Marcos la laguna 	1	Enero	2023-11-01T00:00:00	2024-11-08T01:00:00	2	Temperatura media	16.7
170234	7	Sololá	716	San Marcos la Laguna 	11	San Marcos la laguna 	1	Enero	2023-11-01T00:00:00	2024-11-08T01:00:00	4	Temperatura máxima	16.7
170235	7	Sololá	716	San Marcos la Laguna 	11	San Marcos la laguna 	1	Enero	2023-11-01T00:00:00	2024-11-08T01:00:00	3	Temperatura mínima	15.5
170236	7	Sololá	716	San Marcos la Laguna 	11	San Marcos la laguna 	1	Enero	2023-11-01T00:00:00	2024-11-08T01:00:00	5	Humedad	74
170237	7	Sololá	716	San Marcos la Laguna 	11	San Marcos la laguna 	1	Enero	2023-11-01T00:00:00	2024-11-08T01:00:00	6	Velocidad del viento	8
170238	7	Sololá	716	San Marcos la Laguna 	11	San Marcos la laguna 	1	Enero	2023-11-01T00:00:00	2024-11-08T01:00:00	7	Dirección del viento	8.05
170239	7	Sololá	716	San Marcos la Laguna 	11	San Marcos la laguna 	1	Enero	2023-11-01T00:00:00	2024-11-08T01:00:00	1	Precipitación	0
170240	7	Sololá	716	San Marcos la Laguna 	11	San Marcos la laguna 	1	Enero	2023-11-01T00:00:00	2024-11-08T01:00:00	8	Radiación solar	0
170241	7	Sololá	716	San Marcos la Laguna 	11	San Marcos la laguna 	1	Enero	2023-11-01T00:00:00	2024-11-08T02:00:00	2	Temperatura media	15.5
170242	7	Sololá	716	San Marcos la Laguna 	11	San Marcos la laguna 	1	Enero	2023-11-01T00:00:00	2024-11-08T02:00:00	4	Temperatura máxima	16.7
170243	7	Sololá	716	San Marcos la Laguna 	11	San Marcos la laguna 	1	Enero	2023-11-01T00:00:00	2024-11-08T02:00:00	3	Temperatura mínima	15.1
170244	7	Sololá	716	San Marcos la Laguna 	11	San Marcos la laguna 	1	Enero	2023-11-01T00:00:00	2024-11-08T02:00:00	5	Humedad	79
170245	7	Sololá	716	San Marcos la Laguna 	11	San Marcos la laguna 	1	Enero	2023-11-01T00:00:00	2024-11-08T02:00:00	6	Velocidad del viento	8
170246	7	Sololá	716	San Marcos la Laguna 	11	San Marcos la laguna 	1	Enero	2023-11-01T00:00:00	2024-11-08T02:00:00	7	Dirección del viento	8.05
170247	7	Sololá	716	San Marcos la Laguna 	11	San Marcos la laguna 	1	Enero	2023-11-01T00:00:00	2024-11-08T02:00:00	1	Precipitación	0
170248	7	Sololá	716	San Marcos la Laguna 	11	San Marcos la laguna 	1	Enero	2023-11-01T00:00:00	2024-11-08T02:00:00	8	Radiación solar	0
170249	7	Sololá	716	San Marcos la Laguna 	11	San Marcos la laguna 	1	Enero	2023-11-01T00:00:00	2024-11-08T03:00:00	2	Temperatura media	15.8
170250	7	Sololá	716	San Marcos la Laguna 	11	San Marcos la laguna 	1	Enero	2023-11-01T00:00:00	2024-11-08T03:00:00	4	Temperatura máxima	16.1
170251	7	Sololá	716	San Marcos la Laguna 	11	San Marcos la laguna 	1	Enero	2023-11-01T00:00:00	2024-11-08T03:00:00	3	Temperatura mínima	15.4
170252	7	Sololá	716	San Marcos la Laguna 	11	San Marcos la laguna 	1	Enero	2023-11-01T00:00:00	2024-11-08T03:00:00	5	Humedad	77
170253	7	Sololá	716	San Marcos la Laguna 	11	San Marcos la laguna 	1	Enero	2023-11-01T00:00:00	2024-11-08T03:00:00	6	Velocidad del viento	8
170254	7	Sololá	716	San Marcos la Laguna 	11	San Marcos la laguna 	1	Enero	2023-11-01T00:00:00	2024-11-08T03:00:00	7	Dirección del viento	8.05
170255	7	Sololá	716	San Marcos la Laguna 	11	San Marcos la laguna 	1	Enero	2023-11-01T00:00:00	2024-11-08T03:00:00	1	Precipitación	0
170256	7	Sololá	716	San Marcos la Laguna 	11	San Marcos la laguna 	1	Enero	2023-11-01T00:00:00	2024-11-08T03:00:00	8	Radiación solar	0
170257	7	Sololá	716	San Marcos la Laguna 	11	San Marcos la laguna 	1	Enero	2023-11-01T00:00:00	2024-11-08T04:00:00	2	Temperatura media	15.5
170258	7	Sololá	716	San Marcos la Laguna 	11	San Marcos la laguna 	1	Enero	2023-11-01T00:00:00	2024-11-08T04:00:00	4	Temperatura máxima	15.9
170259	7	Sololá	716	San Marcos la Laguna 	11	San Marcos la laguna 	1	Enero	2023-11-01T00:00:00	2024-11-08T04:00:00	3	Temperatura mínima	15.4
170260	7	Sololá	716	San Marcos la Laguna 	11	San Marcos la laguna 	1	Enero	2023-11-01T00:00:00	2024-11-08T04:00:00	5	Humedad	80
170261	7	Sololá	716	San Marcos la Laguna 	11	San Marcos la laguna 	1	Enero	2023-11-01T00:00:00	2024-11-08T04:00:00	6	Velocidad del viento	8
170262	7	Sololá	716	San Marcos la Laguna 	11	San Marcos la laguna 	1	Enero	2023-11-01T00:00:00	2024-11-08T04:00:00	7	Dirección del viento	8.05
170263	7	Sololá	716	San Marcos la Laguna 	11	San Marcos la laguna 	1	Enero	2023-11-01T00:00:00	2024-11-08T04:00:00	1	Precipitación	0
170264	7	Sololá	716	San Marcos la Laguna 	11	San Marcos la laguna 	1	Enero	2023-11-01T00:00:00	2024-11-08T04:00:00	8	Radiación solar	0
170265	7	Sololá	716	San Marcos la Laguna 	11	San Marcos la laguna 	1	Enero	2023-11-01T00:00:00	2024-11-08T05:00:00	2	Temperatura media	15.8
170266	7	Sololá	716	San Marcos la Laguna 	11	San Marcos la laguna 	1	Enero	2023-11-01T00:00:00	2024-11-08T05:00:00	4	Temperatura máxima	16
170267	7	Sololá	716	San Marcos la Laguna 	11	San Marcos la laguna 	1	Enero	2023-11-01T00:00:00	2024-11-08T05:00:00	3	Temperatura mínima	15.3
170268	7	Sololá	716	San Marcos la Laguna 	11	San Marcos la laguna 	1	Enero	2023-11-01T00:00:00	2024-11-08T05:00:00	5	Humedad	79
170269	7	Sololá	716	San Marcos la Laguna 	11	San Marcos la laguna 	1	Enero	2023-11-01T00:00:00	2024-11-08T05:00:00	6	Velocidad del viento	8
170270	7	Sololá	716	San Marcos la Laguna 	11	San Marcos la laguna 	1	Enero	2023-11-01T00:00:00	2024-11-08T05:00:00	7	Dirección del viento	8.05
170271	7	Sololá	716	San Marcos la Laguna 	11	San Marcos la laguna 	1	Enero	2023-11-01T00:00:00	2024-11-08T05:00:00	1	Precipitación	0
170272	7	Sololá	716	San Marcos la Laguna 	11	San Marcos la laguna 	1	Enero	2023-11-01T00:00:00	2024-11-08T05:00:00	8	Radiación solar	0
170273	7	Sololá	716	San Marcos la Laguna 	11	San Marcos la laguna 	1	Enero	2023-11-01T00:00:00	2024-11-08T06:00:00	2	Temperatura media	15.1
170274	7	Sololá	716	San Marcos la Laguna 	11	San Marcos la laguna 	1	Enero	2023-11-01T00:00:00	2024-11-08T06:00:00	4	Temperatura máxima	16.1
170275	7	Sololá	716	San Marcos la Laguna 	11	San Marcos la laguna 	1	Enero	2023-11-01T00:00:00	2024-11-08T06:00:00	3	Temperatura mínima	15.1
170276	7	Sololá	716	San Marcos la Laguna 	11	San Marcos la laguna 	1	Enero	2023-11-01T00:00:00	2024-11-08T06:00:00	5	Humedad	83
170277	7	Sololá	716	San Marcos la Laguna 	11	San Marcos la laguna 	1	Enero	2023-11-01T00:00:00	2024-11-08T06:00:00	6	Velocidad del viento	6.4
170278	7	Sololá	716	San Marcos la Laguna 	11	San Marcos la laguna 	1	Enero	2023-11-01T00:00:00	2024-11-08T06:00:00	7	Dirección del viento	6.44
170279	7	Sololá	716	San Marcos la Laguna 	11	San Marcos la laguna 	1	Enero	2023-11-01T00:00:00	2024-11-08T06:00:00	1	Precipitación	0
170280	7	Sololá	716	San Marcos la Laguna 	11	San Marcos la laguna 	1	Enero	2023-11-01T00:00:00	2024-11-08T06:00:00	8	Radiación solar	0
170281	7	Sololá	716	San Marcos la Laguna 	11	San Marcos la laguna 	1	Enero	2023-11-01T00:00:00	2024-11-08T07:00:00	2	Temperatura media	15.6
170282	7	Sololá	716	San Marcos la Laguna 	11	San Marcos la laguna 	1	Enero	2023-11-01T00:00:00	2024-11-08T07:00:00	4	Temperatura máxima	15.8
170283	7	Sololá	716	San Marcos la Laguna 	11	San Marcos la laguna 	1	Enero	2023-11-01T00:00:00	2024-11-08T07:00:00	3	Temperatura mínima	14.8
170284	7	Sololá	716	San Marcos la Laguna 	11	San Marcos la laguna 	1	Enero	2023-11-01T00:00:00	2024-11-08T07:00:00	5	Humedad	80
170285	7	Sololá	716	San Marcos la Laguna 	11	San Marcos la laguna 	1	Enero	2023-11-01T00:00:00	2024-11-08T07:00:00	6	Velocidad del viento	6.4
170286	7	Sololá	716	San Marcos la Laguna 	11	San Marcos la laguna 	1	Enero	2023-11-01T00:00:00	2024-11-08T07:00:00	7	Dirección del viento	6.44
170287	7	Sololá	716	San Marcos la Laguna 	11	San Marcos la laguna 	1	Enero	2023-11-01T00:00:00	2024-11-08T07:00:00	1	Precipitación	0
170288	7	Sololá	716	San Marcos la Laguna 	11	San Marcos la laguna 	1	Enero	2023-11-01T00:00:00	2024-11-08T07:00:00	8	Radiación solar	4
170289	7	Sololá	716	San Marcos la Laguna 	11	San Marcos la laguna 	1	Enero	2023-11-01T00:00:00	2024-11-08T08:00:00	2	Temperatura media	18.2
170290	7	Sololá	716	San Marcos la Laguna 	11	San Marcos la laguna 	1	Enero	2023-11-01T00:00:00	2024-11-08T08:00:00	4	Temperatura máxima	18.2
170291	7	Sololá	716	San Marcos la Laguna 	11	San Marcos la laguna 	1	Enero	2023-11-01T00:00:00	2024-11-08T08:00:00	3	Temperatura mínima	15.2
170292	7	Sololá	716	San Marcos la Laguna 	11	San Marcos la laguna 	1	Enero	2023-11-01T00:00:00	2024-11-08T08:00:00	5	Humedad	73
170293	7	Sololá	716	San Marcos la Laguna 	11	San Marcos la laguna 	1	Enero	2023-11-01T00:00:00	2024-11-08T08:00:00	6	Velocidad del viento	4.8
170294	7	Sololá	716	San Marcos la Laguna 	11	San Marcos la laguna 	1	Enero	2023-11-01T00:00:00	2024-11-08T08:00:00	7	Dirección del viento	4.83
170295	7	Sololá	716	San Marcos la Laguna 	11	San Marcos la laguna 	1	Enero	2023-11-01T00:00:00	2024-11-08T08:00:00	1	Precipitación	0
170296	7	Sololá	716	San Marcos la Laguna 	11	San Marcos la laguna 	1	Enero	2023-11-01T00:00:00	2024-11-08T08:00:00	8	Radiación solar	118
170297	7	Sololá	716	San Marcos la Laguna 	11	San Marcos la laguna 	1	Enero	2023-11-01T00:00:00	2024-11-08T09:00:00	2	Temperatura media	20.7
170298	7	Sololá	716	San Marcos la Laguna 	11	San Marcos la laguna 	1	Enero	2023-11-01T00:00:00	2024-11-08T09:00:00	4	Temperatura máxima	20.7
170299	7	Sololá	716	San Marcos la Laguna 	11	San Marcos la laguna 	1	Enero	2023-11-01T00:00:00	2024-11-08T09:00:00	3	Temperatura mínima	18.2
170300	7	Sololá	716	San Marcos la Laguna 	11	San Marcos la laguna 	1	Enero	2023-11-01T00:00:00	2024-11-08T09:00:00	5	Humedad	68
170301	7	Sololá	716	San Marcos la Laguna 	11	San Marcos la laguna 	1	Enero	2023-11-01T00:00:00	2024-11-08T09:00:00	6	Velocidad del viento	9.7
170302	7	Sololá	716	San Marcos la Laguna 	11	San Marcos la laguna 	1	Enero	2023-11-01T00:00:00	2024-11-08T09:00:00	7	Dirección del viento	9.66
170303	7	Sololá	716	San Marcos la Laguna 	11	San Marcos la laguna 	1	Enero	2023-11-01T00:00:00	2024-11-08T09:00:00	1	Precipitación	0
170304	7	Sololá	716	San Marcos la Laguna 	11	San Marcos la laguna 	1	Enero	2023-11-01T00:00:00	2024-11-08T09:00:00	8	Radiación solar	325
170305	7	Sololá	716	San Marcos la Laguna 	11	San Marcos la laguna 	1	Enero	2023-11-01T00:00:00	2024-11-08T10:00:00	2	Temperatura media	21.4
170306	7	Sololá	716	San Marcos la Laguna 	11	San Marcos la laguna 	1	Enero	2023-11-01T00:00:00	2024-11-08T10:00:00	4	Temperatura máxima	21.4
170307	7	Sololá	716	San Marcos la Laguna 	11	San Marcos la laguna 	1	Enero	2023-11-01T00:00:00	2024-11-08T10:00:00	3	Temperatura mínima	20.7
170308	7	Sololá	716	San Marcos la Laguna 	11	San Marcos la laguna 	1	Enero	2023-11-01T00:00:00	2024-11-08T10:00:00	5	Humedad	62
170309	7	Sololá	716	San Marcos la Laguna 	11	San Marcos la laguna 	1	Enero	2023-11-01T00:00:00	2024-11-08T10:00:00	6	Velocidad del viento	9.7
170310	7	Sololá	716	San Marcos la Laguna 	11	San Marcos la laguna 	1	Enero	2023-11-01T00:00:00	2024-11-08T10:00:00	7	Dirección del viento	9.66
170311	7	Sololá	716	San Marcos la Laguna 	11	San Marcos la laguna 	1	Enero	2023-11-01T00:00:00	2024-11-08T10:00:00	1	Precipitación	0
170312	7	Sololá	716	San Marcos la Laguna 	11	San Marcos la laguna 	1	Enero	2023-11-01T00:00:00	2024-11-08T10:00:00	8	Radiación solar	514
170313	7	Sololá	716	San Marcos la Laguna 	11	San Marcos la laguna 	1	Enero	2023-11-01T00:00:00	2024-11-08T11:00:00	2	Temperatura media	22.6
170314	7	Sololá	716	San Marcos la Laguna 	11	San Marcos la laguna 	1	Enero	2023-11-01T00:00:00	2024-11-08T11:00:00	4	Temperatura máxima	22.6
170315	7	Sololá	716	San Marcos la Laguna 	11	San Marcos la laguna 	1	Enero	2023-11-01T00:00:00	2024-11-08T11:00:00	3	Temperatura mínima	21.3
170316	7	Sololá	716	San Marcos la Laguna 	11	San Marcos la laguna 	1	Enero	2023-11-01T00:00:00	2024-11-08T11:00:00	5	Humedad	60
170317	7	Sololá	716	San Marcos la Laguna 	11	San Marcos la laguna 	1	Enero	2023-11-01T00:00:00	2024-11-08T11:00:00	6	Velocidad del viento	8
170318	7	Sololá	716	San Marcos la Laguna 	11	San Marcos la laguna 	1	Enero	2023-11-01T00:00:00	2024-11-08T11:00:00	7	Dirección del viento	8.05
170319	7	Sololá	716	San Marcos la Laguna 	11	San Marcos la laguna 	1	Enero	2023-11-01T00:00:00	2024-11-08T11:00:00	1	Precipitación	0
170320	7	Sololá	716	San Marcos la Laguna 	11	San Marcos la laguna 	1	Enero	2023-11-01T00:00:00	2024-11-08T11:00:00	8	Radiación solar	550
170321	7	Sololá	716	San Marcos la Laguna 	11	San Marcos la laguna 	1	Enero	2023-11-01T00:00:00	2024-11-08T12:00:00	2	Temperatura media	23.4
170322	7	Sololá	716	San Marcos la Laguna 	11	San Marcos la laguna 	1	Enero	2023-11-01T00:00:00	2024-11-08T12:00:00	4	Temperatura máxima	23.4
170323	7	Sololá	716	San Marcos la Laguna 	11	San Marcos la laguna 	1	Enero	2023-11-01T00:00:00	2024-11-08T12:00:00	3	Temperatura mínima	22.5
170324	7	Sololá	716	San Marcos la Laguna 	11	San Marcos la laguna 	1	Enero	2023-11-01T00:00:00	2024-11-08T12:00:00	5	Humedad	58
170325	7	Sololá	716	San Marcos la Laguna 	11	San Marcos la laguna 	1	Enero	2023-11-01T00:00:00	2024-11-08T12:00:00	6	Velocidad del viento	6.4
170326	7	Sololá	716	San Marcos la Laguna 	11	San Marcos la laguna 	1	Enero	2023-11-01T00:00:00	2024-11-08T12:00:00	7	Dirección del viento	6.44
170327	7	Sololá	716	San Marcos la Laguna 	11	San Marcos la laguna 	1	Enero	2023-11-01T00:00:00	2024-11-08T12:00:00	1	Precipitación	0
170328	7	Sololá	716	San Marcos la Laguna 	11	San Marcos la laguna 	1	Enero	2023-11-01T00:00:00	2024-11-08T12:00:00	8	Radiación solar	748
170329	7	Sololá	716	San Marcos la Laguna 	11	San Marcos la laguna 	1	Enero	2023-11-01T00:00:00	2024-11-08T13:00:00	2	Temperatura media	23.9
170330	7	Sololá	716	San Marcos la Laguna 	11	San Marcos la laguna 	1	Enero	2023-11-01T00:00:00	2024-11-08T13:00:00	4	Temperatura máxima	24.3
170331	7	Sololá	716	San Marcos la Laguna 	11	San Marcos la laguna 	1	Enero	2023-11-01T00:00:00	2024-11-08T13:00:00	3	Temperatura mínima	23.4
170332	7	Sololá	716	San Marcos la Laguna 	11	San Marcos la laguna 	1	Enero	2023-11-01T00:00:00	2024-11-08T13:00:00	5	Humedad	64
170333	7	Sololá	716	San Marcos la Laguna 	11	San Marcos la laguna 	1	Enero	2023-11-01T00:00:00	2024-11-08T13:00:00	6	Velocidad del viento	6.4
170334	7	Sololá	716	San Marcos la Laguna 	11	San Marcos la laguna 	1	Enero	2023-11-01T00:00:00	2024-11-08T13:00:00	7	Dirección del viento	6.44
170335	7	Sololá	716	San Marcos la Laguna 	11	San Marcos la laguna 	1	Enero	2023-11-01T00:00:00	2024-11-08T13:00:00	1	Precipitación	0
170336	7	Sololá	716	San Marcos la Laguna 	11	San Marcos la laguna 	1	Enero	2023-11-01T00:00:00	2024-11-08T13:00:00	8	Radiación solar	819
170337	7	Sololá	716	San Marcos la Laguna 	11	San Marcos la laguna 	1	Enero	2023-11-01T00:00:00	2024-11-08T14:00:00	2	Temperatura media	22.3
170338	7	Sololá	716	San Marcos la Laguna 	11	San Marcos la laguna 	1	Enero	2023-11-01T00:00:00	2024-11-08T14:00:00	4	Temperatura máxima	23.9
170339	7	Sololá	716	San Marcos la Laguna 	11	San Marcos la laguna 	1	Enero	2023-11-01T00:00:00	2024-11-08T14:00:00	3	Temperatura mínima	22.2
170340	7	Sololá	716	San Marcos la Laguna 	11	San Marcos la laguna 	1	Enero	2023-11-01T00:00:00	2024-11-08T14:00:00	5	Humedad	74
170341	7	Sololá	716	San Marcos la Laguna 	11	San Marcos la laguna 	1	Enero	2023-11-01T00:00:00	2024-11-08T14:00:00	6	Velocidad del viento	9.7
170342	7	Sololá	716	San Marcos la Laguna 	11	San Marcos la laguna 	1	Enero	2023-11-01T00:00:00	2024-11-08T14:00:00	7	Dirección del viento	9.66
170343	7	Sololá	716	San Marcos la Laguna 	11	San Marcos la laguna 	1	Enero	2023-11-01T00:00:00	2024-11-08T14:00:00	1	Precipitación	0
170344	7	Sololá	716	San Marcos la Laguna 	11	San Marcos la laguna 	1	Enero	2023-11-01T00:00:00	2024-11-08T14:00:00	8	Radiación solar	782
170345	7	Sololá	716	San Marcos la Laguna 	11	San Marcos la laguna 	1	Enero	2023-11-01T00:00:00	2024-11-08T15:00:00	2	Temperatura media	21.4
170346	7	Sololá	716	San Marcos la Laguna 	11	San Marcos la laguna 	1	Enero	2023-11-01T00:00:00	2024-11-08T15:00:00	4	Temperatura máxima	22.3
170347	7	Sololá	716	San Marcos la Laguna 	11	San Marcos la laguna 	1	Enero	2023-11-01T00:00:00	2024-11-08T15:00:00	3	Temperatura mínima	21.3
170348	7	Sololá	716	San Marcos la Laguna 	11	San Marcos la laguna 	1	Enero	2023-11-01T00:00:00	2024-11-08T15:00:00	5	Humedad	76
170349	7	Sololá	716	San Marcos la Laguna 	11	San Marcos la laguna 	1	Enero	2023-11-01T00:00:00	2024-11-08T15:00:00	6	Velocidad del viento	12.9
170350	7	Sololá	716	San Marcos la Laguna 	11	San Marcos la laguna 	1	Enero	2023-11-01T00:00:00	2024-11-08T15:00:00	7	Dirección del viento	12.87
170351	7	Sololá	716	San Marcos la Laguna 	11	San Marcos la laguna 	1	Enero	2023-11-01T00:00:00	2024-11-08T15:00:00	1	Precipitación	0
170352	7	Sololá	716	San Marcos la Laguna 	11	San Marcos la laguna 	1	Enero	2023-11-01T00:00:00	2024-11-08T15:00:00	8	Radiación solar	634
170353	7	Sololá	716	San Marcos la Laguna 	11	San Marcos la laguna 	1	Enero	2023-11-01T00:00:00	2024-11-08T16:00:00	2	Temperatura media	20.8
170354	7	Sololá	716	San Marcos la Laguna 	11	San Marcos la laguna 	1	Enero	2023-11-01T00:00:00	2024-11-08T16:00:00	4	Temperatura máxima	22
170355	7	Sololá	716	San Marcos la Laguna 	11	San Marcos la laguna 	1	Enero	2023-11-01T00:00:00	2024-11-08T16:00:00	3	Temperatura mínima	20.8
170356	7	Sololá	716	San Marcos la Laguna 	11	San Marcos la laguna 	1	Enero	2023-11-01T00:00:00	2024-11-08T16:00:00	5	Humedad	75
170357	7	Sololá	716	San Marcos la Laguna 	11	San Marcos la laguna 	1	Enero	2023-11-01T00:00:00	2024-11-08T16:00:00	6	Velocidad del viento	9.7
170358	7	Sololá	716	San Marcos la Laguna 	11	San Marcos la laguna 	1	Enero	2023-11-01T00:00:00	2024-11-08T16:00:00	7	Dirección del viento	9.66
170359	7	Sololá	716	San Marcos la Laguna 	11	San Marcos la laguna 	1	Enero	2023-11-01T00:00:00	2024-11-08T16:00:00	1	Precipitación	0
170360	7	Sololá	716	San Marcos la Laguna 	11	San Marcos la laguna 	1	Enero	2023-11-01T00:00:00	2024-11-08T16:00:00	8	Radiación solar	339
170361	7	Sololá	716	San Marcos la Laguna 	11	San Marcos la laguna 	1	Enero	2023-11-01T00:00:00	2024-11-08T17:00:00	2	Temperatura media	20.7
170362	7	Sololá	716	San Marcos la Laguna 	11	San Marcos la laguna 	1	Enero	2023-11-01T00:00:00	2024-11-08T17:00:00	4	Temperatura máxima	20.9
170363	7	Sololá	716	San Marcos la Laguna 	11	San Marcos la laguna 	1	Enero	2023-11-01T00:00:00	2024-11-08T17:00:00	3	Temperatura mínima	20.4
170364	7	Sololá	716	San Marcos la Laguna 	11	San Marcos la laguna 	1	Enero	2023-11-01T00:00:00	2024-11-08T17:00:00	5	Humedad	75
170365	7	Sololá	716	San Marcos la Laguna 	11	San Marcos la laguna 	1	Enero	2023-11-01T00:00:00	2024-11-08T17:00:00	6	Velocidad del viento	6.4
170366	7	Sololá	716	San Marcos la Laguna 	11	San Marcos la laguna 	1	Enero	2023-11-01T00:00:00	2024-11-08T17:00:00	7	Dirección del viento	6.44
170367	7	Sololá	716	San Marcos la Laguna 	11	San Marcos la laguna 	1	Enero	2023-11-01T00:00:00	2024-11-08T17:00:00	1	Precipitación	0
170368	7	Sololá	716	San Marcos la Laguna 	11	San Marcos la laguna 	1	Enero	2023-11-01T00:00:00	2024-11-08T17:00:00	8	Radiación solar	90
170369	7	Sololá	716	San Marcos la Laguna 	11	San Marcos la laguna 	1	Enero	2023-11-01T00:00:00	2024-11-08T18:00:00	2	Temperatura media	20.1
170370	7	Sololá	716	San Marcos la Laguna 	11	San Marcos la laguna 	1	Enero	2023-11-01T00:00:00	2024-11-08T18:00:00	4	Temperatura máxima	20.8
170371	7	Sololá	716	San Marcos la Laguna 	11	San Marcos la laguna 	1	Enero	2023-11-01T00:00:00	2024-11-08T18:00:00	3	Temperatura mínima	20.1
170372	7	Sololá	716	San Marcos la Laguna 	11	San Marcos la laguna 	1	Enero	2023-11-01T00:00:00	2024-11-08T18:00:00	5	Humedad	78
170373	7	Sololá	716	San Marcos la Laguna 	11	San Marcos la laguna 	1	Enero	2023-11-01T00:00:00	2024-11-08T18:00:00	6	Velocidad del viento	3.2
170374	7	Sololá	716	San Marcos la Laguna 	11	San Marcos la laguna 	1	Enero	2023-11-01T00:00:00	2024-11-08T18:00:00	7	Dirección del viento	3.22
170375	7	Sololá	716	San Marcos la Laguna 	11	San Marcos la laguna 	1	Enero	2023-11-01T00:00:00	2024-11-08T18:00:00	1	Precipitación	0
170376	7	Sololá	716	San Marcos la Laguna 	11	San Marcos la laguna 	1	Enero	2023-11-01T00:00:00	2024-11-08T18:00:00	8	Radiación solar	27
170377	7	Sololá	716	San Marcos la Laguna 	11	San Marcos la laguna 	1	Enero	2023-11-01T00:00:00	2024-11-08T19:00:00	2	Temperatura media	20.1
170378	7	Sololá	716	San Marcos la Laguna 	11	San Marcos la laguna 	1	Enero	2023-11-01T00:00:00	2024-11-08T19:00:00	4	Temperatura máxima	20.2
170379	7	Sololá	716	San Marcos la Laguna 	11	San Marcos la laguna 	1	Enero	2023-11-01T00:00:00	2024-11-08T19:00:00	3	Temperatura mínima	19.9
170380	7	Sololá	716	San Marcos la Laguna 	11	San Marcos la laguna 	1	Enero	2023-11-01T00:00:00	2024-11-08T19:00:00	5	Humedad	61
170381	7	Sololá	716	San Marcos la Laguna 	11	San Marcos la laguna 	1	Enero	2023-11-01T00:00:00	2024-11-08T19:00:00	6	Velocidad del viento	3.2
170382	7	Sololá	716	San Marcos la Laguna 	11	San Marcos la laguna 	1	Enero	2023-11-01T00:00:00	2024-11-08T19:00:00	7	Dirección del viento	3.22
170383	7	Sololá	716	San Marcos la Laguna 	11	San Marcos la laguna 	1	Enero	2023-11-01T00:00:00	2024-11-08T19:00:00	1	Precipitación	0
170384	7	Sololá	716	San Marcos la Laguna 	11	San Marcos la laguna 	1	Enero	2023-11-01T00:00:00	2024-11-08T19:00:00	8	Radiación solar	0
170385	7	Sololá	716	San Marcos la Laguna 	11	San Marcos la laguna 	1	Enero	2023-11-01T00:00:00	2024-11-08T20:00:00	2	Temperatura media	19.7
170386	7	Sololá	716	San Marcos la Laguna 	11	San Marcos la laguna 	1	Enero	2023-11-01T00:00:00	2024-11-08T20:00:00	4	Temperatura máxima	20.3
170387	7	Sololá	716	San Marcos la Laguna 	11	San Marcos la laguna 	1	Enero	2023-11-01T00:00:00	2024-11-08T20:00:00	3	Temperatura mínima	19.3
170388	7	Sololá	716	San Marcos la Laguna 	11	San Marcos la laguna 	1	Enero	2023-11-01T00:00:00	2024-11-08T20:00:00	5	Humedad	63
170389	7	Sololá	716	San Marcos la Laguna 	11	San Marcos la laguna 	1	Enero	2023-11-01T00:00:00	2024-11-08T20:00:00	6	Velocidad del viento	3.2
170390	7	Sololá	716	San Marcos la Laguna 	11	San Marcos la laguna 	1	Enero	2023-11-01T00:00:00	2024-11-08T20:00:00	7	Dirección del viento	3.22
170391	7	Sololá	716	San Marcos la Laguna 	11	San Marcos la laguna 	1	Enero	2023-11-01T00:00:00	2024-11-08T20:00:00	1	Precipitación	0
170392	7	Sololá	716	San Marcos la Laguna 	11	San Marcos la laguna 	1	Enero	2023-11-01T00:00:00	2024-11-08T20:00:00	8	Radiación solar	0
170393	7	Sololá	716	San Marcos la Laguna 	11	San Marcos la laguna 	1	Enero	2023-11-01T00:00:00	2024-11-08T21:00:00	2	Temperatura media	18.4
170394	7	Sololá	716	San Marcos la Laguna 	11	San Marcos la laguna 	1	Enero	2023-11-01T00:00:00	2024-11-08T21:00:00	4	Temperatura máxima	19.9
170395	7	Sololá	716	San Marcos la Laguna 	11	San Marcos la laguna 	1	Enero	2023-11-01T00:00:00	2024-11-08T21:00:00	3	Temperatura mínima	18.2
170396	7	Sololá	716	San Marcos la Laguna 	11	San Marcos la laguna 	1	Enero	2023-11-01T00:00:00	2024-11-08T21:00:00	5	Humedad	70
170397	7	Sololá	716	San Marcos la Laguna 	11	San Marcos la laguna 	1	Enero	2023-11-01T00:00:00	2024-11-08T21:00:00	6	Velocidad del viento	4.8
170398	7	Sololá	716	San Marcos la Laguna 	11	San Marcos la laguna 	1	Enero	2023-11-01T00:00:00	2024-11-08T21:00:00	7	Dirección del viento	4.83
170399	7	Sololá	716	San Marcos la Laguna 	11	San Marcos la laguna 	1	Enero	2023-11-01T00:00:00	2024-11-08T21:00:00	1	Precipitación	0
170400	7	Sololá	716	San Marcos la Laguna 	11	San Marcos la laguna 	1	Enero	2023-11-01T00:00:00	2024-11-08T21:00:00	8	Radiación solar	0
170401	7	Sololá	716	San Marcos la Laguna 	11	San Marcos la laguna 	1	Enero	2023-11-01T00:00:00	2024-11-08T22:00:00	2	Temperatura media	17.3
170402	7	Sololá	716	San Marcos la Laguna 	11	San Marcos la laguna 	1	Enero	2023-11-01T00:00:00	2024-11-08T22:00:00	4	Temperatura máxima	18.4
170403	7	Sololá	716	San Marcos la Laguna 	11	San Marcos la laguna 	1	Enero	2023-11-01T00:00:00	2024-11-08T22:00:00	3	Temperatura mínima	17.3
170404	7	Sololá	716	San Marcos la Laguna 	11	San Marcos la laguna 	1	Enero	2023-11-01T00:00:00	2024-11-08T22:00:00	5	Humedad	75
170405	7	Sololá	716	San Marcos la Laguna 	11	San Marcos la laguna 	1	Enero	2023-11-01T00:00:00	2024-11-08T22:00:00	6	Velocidad del viento	6.4
170406	7	Sololá	716	San Marcos la Laguna 	11	San Marcos la laguna 	1	Enero	2023-11-01T00:00:00	2024-11-08T22:00:00	7	Dirección del viento	6.44
170407	7	Sololá	716	San Marcos la Laguna 	11	San Marcos la laguna 	1	Enero	2023-11-01T00:00:00	2024-11-08T22:00:00	1	Precipitación	0
170408	7	Sololá	716	San Marcos la Laguna 	11	San Marcos la laguna 	1	Enero	2023-11-01T00:00:00	2024-11-08T22:00:00	8	Radiación solar	0
170409	7	Sololá	716	San Marcos la Laguna 	11	San Marcos la laguna 	1	Enero	2023-11-01T00:00:00	2024-11-08T23:00:00	2	Temperatura media	16.4
170410	7	Sololá	716	San Marcos la Laguna 	11	San Marcos la laguna 	1	Enero	2023-11-01T00:00:00	2024-11-08T23:00:00	4	Temperatura máxima	17.3
170411	7	Sololá	716	San Marcos la Laguna 	11	San Marcos la laguna 	1	Enero	2023-11-01T00:00:00	2024-11-08T23:00:00	3	Temperatura mínima	16.4
170412	7	Sololá	716	San Marcos la Laguna 	11	San Marcos la laguna 	1	Enero	2023-11-01T00:00:00	2024-11-08T23:00:00	5	Humedad	78
170413	7	Sololá	716	San Marcos la Laguna 	11	San Marcos la laguna 	1	Enero	2023-11-01T00:00:00	2024-11-08T23:00:00	6	Velocidad del viento	4.8
170414	7	Sololá	716	San Marcos la Laguna 	11	San Marcos la laguna 	1	Enero	2023-11-01T00:00:00	2024-11-08T23:00:00	7	Dirección del viento	4.83
170415	7	Sololá	716	San Marcos la Laguna 	11	San Marcos la laguna 	1	Enero	2023-11-01T00:00:00	2024-11-08T23:00:00	1	Precipitación	0
170416	7	Sololá	716	San Marcos la Laguna 	11	San Marcos la laguna 	1	Enero	2023-11-01T00:00:00	2024-11-08T23:00:00	8	Radiación solar	0
170417	7	Sololá	716	San Marcos la Laguna 	11	San Marcos la laguna 	1	Enero	2023-12-01T00:00:00	2024-11-08T00:00:00	2	Temperatura media	16.1
170418	7	Sololá	716	San Marcos la Laguna 	11	San Marcos la laguna 	1	Enero	2023-12-01T00:00:00	2024-11-08T00:00:00	4	Temperatura máxima	16.4
170419	7	Sololá	716	San Marcos la Laguna 	11	San Marcos la laguna 	1	Enero	2023-12-01T00:00:00	2024-11-08T00:00:00	3	Temperatura mínima	15.9
170420	7	Sololá	716	San Marcos la Laguna 	11	San Marcos la laguna 	1	Enero	2023-12-01T00:00:00	2024-11-08T00:00:00	5	Humedad	79
170421	7	Sololá	716	San Marcos la Laguna 	11	San Marcos la laguna 	1	Enero	2023-12-01T00:00:00	2024-11-08T00:00:00	6	Velocidad del viento	6.4
170422	7	Sololá	716	San Marcos la Laguna 	11	San Marcos la laguna 	1	Enero	2023-12-01T00:00:00	2024-11-08T00:00:00	7	Dirección del viento	6.44
170423	7	Sololá	716	San Marcos la Laguna 	11	San Marcos la laguna 	1	Enero	2023-12-01T00:00:00	2024-11-08T00:00:00	1	Precipitación	0
170424	7	Sololá	716	San Marcos la Laguna 	11	San Marcos la laguna 	1	Enero	2023-12-01T00:00:00	2024-11-08T00:00:00	8	Radiación solar	0
170425	7	Sololá	716	San Marcos la Laguna 	11	San Marcos la laguna 	1	Enero	2023-12-01T00:00:00	2024-11-08T01:00:00	2	Temperatura media	15.8
170426	7	Sololá	716	San Marcos la Laguna 	11	San Marcos la laguna 	1	Enero	2023-12-01T00:00:00	2024-11-08T01:00:00	4	Temperatura máxima	16.5
170427	7	Sololá	716	San Marcos la Laguna 	11	San Marcos la laguna 	1	Enero	2023-12-01T00:00:00	2024-11-08T01:00:00	3	Temperatura mínima	15.3
170428	7	Sololá	716	San Marcos la Laguna 	11	San Marcos la laguna 	1	Enero	2023-12-01T00:00:00	2024-11-08T01:00:00	5	Humedad	79
170429	7	Sololá	716	San Marcos la Laguna 	11	San Marcos la laguna 	1	Enero	2023-12-01T00:00:00	2024-11-08T01:00:00	6	Velocidad del viento	6.4
170430	7	Sololá	716	San Marcos la Laguna 	11	San Marcos la laguna 	1	Enero	2023-12-01T00:00:00	2024-11-08T01:00:00	7	Dirección del viento	6.44
170431	7	Sololá	716	San Marcos la Laguna 	11	San Marcos la laguna 	1	Enero	2023-12-01T00:00:00	2024-11-08T01:00:00	1	Precipitación	0
170432	7	Sololá	716	San Marcos la Laguna 	11	San Marcos la laguna 	1	Enero	2023-12-01T00:00:00	2024-11-08T01:00:00	8	Radiación solar	0
170433	7	Sololá	716	San Marcos la Laguna 	11	San Marcos la laguna 	1	Enero	2023-12-01T00:00:00	2024-11-08T02:00:00	2	Temperatura media	15.7
170434	7	Sololá	716	San Marcos la Laguna 	11	San Marcos la laguna 	1	Enero	2023-12-01T00:00:00	2024-11-08T02:00:00	4	Temperatura máxima	16.2
170435	7	Sololá	716	San Marcos la Laguna 	11	San Marcos la laguna 	1	Enero	2023-12-01T00:00:00	2024-11-08T02:00:00	3	Temperatura mínima	15.6
170436	7	Sololá	716	San Marcos la Laguna 	11	San Marcos la laguna 	1	Enero	2023-12-01T00:00:00	2024-11-08T02:00:00	5	Humedad	80
170437	7	Sololá	716	San Marcos la Laguna 	11	San Marcos la laguna 	1	Enero	2023-12-01T00:00:00	2024-11-08T02:00:00	6	Velocidad del viento	8
170438	7	Sololá	716	San Marcos la Laguna 	11	San Marcos la laguna 	1	Enero	2023-12-01T00:00:00	2024-11-08T02:00:00	7	Dirección del viento	8.05
170439	7	Sololá	716	San Marcos la Laguna 	11	San Marcos la laguna 	1	Enero	2023-12-01T00:00:00	2024-11-08T02:00:00	1	Precipitación	0
170440	7	Sololá	716	San Marcos la Laguna 	11	San Marcos la laguna 	1	Enero	2023-12-01T00:00:00	2024-11-08T02:00:00	8	Radiación solar	0
170441	7	Sololá	716	San Marcos la Laguna 	11	San Marcos la laguna 	1	Enero	2023-12-01T00:00:00	2024-11-08T03:00:00	2	Temperatura media	15.3
170442	7	Sololá	716	San Marcos la Laguna 	11	San Marcos la laguna 	1	Enero	2023-12-01T00:00:00	2024-11-08T03:00:00	4	Temperatura máxima	15.9
170443	7	Sololá	716	San Marcos la Laguna 	11	San Marcos la laguna 	1	Enero	2023-12-01T00:00:00	2024-11-08T03:00:00	3	Temperatura mínima	15.3
170444	7	Sololá	716	San Marcos la Laguna 	11	San Marcos la laguna 	1	Enero	2023-12-01T00:00:00	2024-11-08T03:00:00	5	Humedad	77
170445	7	Sololá	716	San Marcos la Laguna 	11	San Marcos la laguna 	1	Enero	2023-12-01T00:00:00	2024-11-08T03:00:00	6	Velocidad del viento	8
170446	7	Sololá	716	San Marcos la Laguna 	11	San Marcos la laguna 	1	Enero	2023-12-01T00:00:00	2024-11-08T03:00:00	7	Dirección del viento	8.05
170447	7	Sololá	716	San Marcos la Laguna 	11	San Marcos la laguna 	1	Enero	2023-12-01T00:00:00	2024-11-08T03:00:00	1	Precipitación	0
170448	7	Sololá	716	San Marcos la Laguna 	11	San Marcos la laguna 	1	Enero	2023-12-01T00:00:00	2024-11-08T03:00:00	8	Radiación solar	0
170449	7	Sololá	716	San Marcos la Laguna 	11	San Marcos la laguna 	1	Enero	2023-12-01T00:00:00	2024-11-08T04:00:00	2	Temperatura media	14.7
170450	7	Sololá	716	San Marcos la Laguna 	11	San Marcos la laguna 	1	Enero	2023-12-01T00:00:00	2024-11-08T04:00:00	4	Temperatura máxima	15.3
170451	7	Sololá	716	San Marcos la Laguna 	11	San Marcos la laguna 	1	Enero	2023-12-01T00:00:00	2024-11-08T04:00:00	3	Temperatura mínima	14.5
170452	7	Sololá	716	San Marcos la Laguna 	11	San Marcos la laguna 	1	Enero	2023-12-01T00:00:00	2024-11-08T04:00:00	5	Humedad	78
170453	7	Sololá	716	San Marcos la Laguna 	11	San Marcos la laguna 	1	Enero	2023-12-01T00:00:00	2024-11-08T04:00:00	6	Velocidad del viento	8
170454	7	Sololá	716	San Marcos la Laguna 	11	San Marcos la laguna 	1	Enero	2023-12-01T00:00:00	2024-11-08T04:00:00	7	Dirección del viento	8.05
170455	7	Sololá	716	San Marcos la Laguna 	11	San Marcos la laguna 	1	Enero	2023-12-01T00:00:00	2024-11-08T04:00:00	1	Precipitación	0
170456	7	Sololá	716	San Marcos la Laguna 	11	San Marcos la laguna 	1	Enero	2023-12-01T00:00:00	2024-11-08T04:00:00	8	Radiación solar	0
170457	7	Sololá	716	San Marcos la Laguna 	11	San Marcos la laguna 	1	Enero	2023-12-01T00:00:00	2024-11-08T05:00:00	2	Temperatura media	14.5
170458	7	Sololá	716	San Marcos la Laguna 	11	San Marcos la laguna 	1	Enero	2023-12-01T00:00:00	2024-11-08T05:00:00	4	Temperatura máxima	14.9
170459	7	Sololá	716	San Marcos la Laguna 	11	San Marcos la laguna 	1	Enero	2023-12-01T00:00:00	2024-11-08T05:00:00	3	Temperatura mínima	14.5
170460	7	Sololá	716	San Marcos la Laguna 	11	San Marcos la laguna 	1	Enero	2023-12-01T00:00:00	2024-11-08T05:00:00	5	Humedad	79
170461	7	Sololá	716	San Marcos la Laguna 	11	San Marcos la laguna 	1	Enero	2023-12-01T00:00:00	2024-11-08T05:00:00	6	Velocidad del viento	8
170462	7	Sololá	716	San Marcos la Laguna 	11	San Marcos la laguna 	1	Enero	2023-12-01T00:00:00	2024-11-08T05:00:00	7	Dirección del viento	8.05
170463	7	Sololá	716	San Marcos la Laguna 	11	San Marcos la laguna 	1	Enero	2023-12-01T00:00:00	2024-11-08T05:00:00	1	Precipitación	0
170464	7	Sololá	716	San Marcos la Laguna 	11	San Marcos la laguna 	1	Enero	2023-12-01T00:00:00	2024-11-08T05:00:00	8	Radiación solar	0
170465	7	Sololá	716	San Marcos la Laguna 	11	San Marcos la laguna 	1	Enero	2023-12-01T00:00:00	2024-11-08T06:00:00	2	Temperatura media	14.1
170466	7	Sololá	716	San Marcos la Laguna 	11	San Marcos la laguna 	1	Enero	2023-12-01T00:00:00	2024-11-08T06:00:00	4	Temperatura máxima	14.5
170467	7	Sololá	716	San Marcos la Laguna 	11	San Marcos la laguna 	1	Enero	2023-12-01T00:00:00	2024-11-08T06:00:00	3	Temperatura mínima	13.9
170468	7	Sololá	716	San Marcos la Laguna 	11	San Marcos la laguna 	1	Enero	2023-12-01T00:00:00	2024-11-08T06:00:00	5	Humedad	81
170469	7	Sololá	716	San Marcos la Laguna 	11	San Marcos la laguna 	1	Enero	2023-12-01T00:00:00	2024-11-08T06:00:00	6	Velocidad del viento	8
170470	7	Sololá	716	San Marcos la Laguna 	11	San Marcos la laguna 	1	Enero	2023-12-01T00:00:00	2024-11-08T06:00:00	7	Dirección del viento	8.05
170471	7	Sololá	716	San Marcos la Laguna 	11	San Marcos la laguna 	1	Enero	2023-12-01T00:00:00	2024-11-08T06:00:00	1	Precipitación	0
170472	7	Sololá	716	San Marcos la Laguna 	11	San Marcos la laguna 	1	Enero	2023-12-01T00:00:00	2024-11-08T06:00:00	8	Radiación solar	0
170473	7	Sololá	716	San Marcos la Laguna 	11	San Marcos la laguna 	1	Enero	2023-12-01T00:00:00	2024-11-08T07:00:00	2	Temperatura media	14.1
170474	7	Sololá	716	San Marcos la Laguna 	11	San Marcos la laguna 	1	Enero	2023-12-01T00:00:00	2024-11-08T07:00:00	4	Temperatura máxima	14.2
170475	7	Sololá	716	San Marcos la Laguna 	11	San Marcos la laguna 	1	Enero	2023-12-01T00:00:00	2024-11-08T07:00:00	3	Temperatura mínima	13.4
170476	7	Sololá	716	San Marcos la Laguna 	11	San Marcos la laguna 	1	Enero	2023-12-01T00:00:00	2024-11-08T07:00:00	5	Humedad	82
170477	7	Sololá	716	San Marcos la Laguna 	11	San Marcos la laguna 	1	Enero	2023-12-01T00:00:00	2024-11-08T07:00:00	6	Velocidad del viento	6.4
170478	7	Sololá	716	San Marcos la Laguna 	11	San Marcos la laguna 	1	Enero	2023-12-01T00:00:00	2024-11-08T07:00:00	7	Dirección del viento	6.44
170479	7	Sololá	716	San Marcos la Laguna 	11	San Marcos la laguna 	1	Enero	2023-12-01T00:00:00	2024-11-08T07:00:00	1	Precipitación	0
170480	7	Sololá	716	San Marcos la Laguna 	11	San Marcos la laguna 	1	Enero	2023-12-01T00:00:00	2024-11-08T07:00:00	8	Radiación solar	4
170481	7	Sololá	716	San Marcos la Laguna 	11	San Marcos la laguna 	1	Enero	2023-12-01T00:00:00	2024-11-08T08:00:00	2	Temperatura media	17.5
170482	7	Sololá	716	San Marcos la Laguna 	11	San Marcos la laguna 	1	Enero	2023-12-01T00:00:00	2024-11-08T08:00:00	4	Temperatura máxima	17.5
170483	7	Sololá	716	San Marcos la Laguna 	11	San Marcos la laguna 	1	Enero	2023-12-01T00:00:00	2024-11-08T08:00:00	3	Temperatura mínima	14.1
170484	7	Sololá	716	San Marcos la Laguna 	11	San Marcos la laguna 	1	Enero	2023-12-01T00:00:00	2024-11-08T08:00:00	5	Humedad	74
170485	7	Sololá	716	San Marcos la Laguna 	11	San Marcos la laguna 	1	Enero	2023-12-01T00:00:00	2024-11-08T08:00:00	6	Velocidad del viento	3.2
170486	7	Sololá	716	San Marcos la Laguna 	11	San Marcos la laguna 	1	Enero	2023-12-01T00:00:00	2024-11-08T08:00:00	7	Dirección del viento	3.22
170487	7	Sololá	716	San Marcos la Laguna 	11	San Marcos la laguna 	1	Enero	2023-12-01T00:00:00	2024-11-08T08:00:00	1	Precipitación	0
170488	7	Sololá	716	San Marcos la Laguna 	11	San Marcos la laguna 	1	Enero	2023-12-01T00:00:00	2024-11-08T08:00:00	8	Radiación solar	118
170489	7	Sololá	716	San Marcos la Laguna 	11	San Marcos la laguna 	1	Enero	2023-12-01T00:00:00	2024-11-08T09:00:00	2	Temperatura media	19.2
170490	7	Sololá	716	San Marcos la Laguna 	11	San Marcos la laguna 	1	Enero	2023-12-01T00:00:00	2024-11-08T09:00:00	4	Temperatura máxima	19.3
170491	7	Sololá	716	San Marcos la Laguna 	11	San Marcos la laguna 	1	Enero	2023-12-01T00:00:00	2024-11-08T09:00:00	3	Temperatura mínima	17.6
170492	7	Sololá	716	San Marcos la Laguna 	11	San Marcos la laguna 	1	Enero	2023-12-01T00:00:00	2024-11-08T09:00:00	5	Humedad	73
170493	7	Sololá	716	San Marcos la Laguna 	11	San Marcos la laguna 	1	Enero	2023-12-01T00:00:00	2024-11-08T09:00:00	6	Velocidad del viento	3.2
170494	7	Sololá	716	San Marcos la Laguna 	11	San Marcos la laguna 	1	Enero	2023-12-01T00:00:00	2024-11-08T09:00:00	7	Dirección del viento	3.22
170495	7	Sololá	716	San Marcos la Laguna 	11	San Marcos la laguna 	1	Enero	2023-12-01T00:00:00	2024-11-08T09:00:00	1	Precipitación	0
170496	7	Sololá	716	San Marcos la Laguna 	11	San Marcos la laguna 	1	Enero	2023-12-01T00:00:00	2024-11-08T09:00:00	8	Radiación solar	322
170497	7	Sololá	716	San Marcos la Laguna 	11	San Marcos la laguna 	1	Enero	2023-12-01T00:00:00	2024-11-08T10:00:00	2	Temperatura media	19.7
170498	7	Sololá	716	San Marcos la Laguna 	11	San Marcos la laguna 	1	Enero	2023-12-01T00:00:00	2024-11-08T10:00:00	4	Temperatura máxima	19.8
170499	7	Sololá	716	San Marcos la Laguna 	11	San Marcos la laguna 	1	Enero	2023-12-01T00:00:00	2024-11-08T10:00:00	3	Temperatura mínima	19.2
170500	7	Sololá	716	San Marcos la Laguna 	11	San Marcos la laguna 	1	Enero	2023-12-01T00:00:00	2024-11-08T10:00:00	5	Humedad	69
170501	7	Sololá	716	San Marcos la Laguna 	11	San Marcos la laguna 	1	Enero	2023-12-01T00:00:00	2024-11-08T10:00:00	6	Velocidad del viento	4.8
170502	7	Sololá	716	San Marcos la Laguna 	11	San Marcos la laguna 	1	Enero	2023-12-01T00:00:00	2024-11-08T10:00:00	7	Dirección del viento	4.83
170503	7	Sololá	716	San Marcos la Laguna 	11	San Marcos la laguna 	1	Enero	2023-12-01T00:00:00	2024-11-08T10:00:00	1	Precipitación	0
170504	7	Sololá	716	San Marcos la Laguna 	11	San Marcos la laguna 	1	Enero	2023-12-01T00:00:00	2024-11-08T10:00:00	8	Radiación solar	514
170505	7	Sololá	716	San Marcos la Laguna 	11	San Marcos la laguna 	1	Enero	2023-12-01T00:00:00	2024-11-08T11:00:00	2	Temperatura media	21.9
170506	7	Sololá	716	San Marcos la Laguna 	11	San Marcos la laguna 	1	Enero	2023-12-01T00:00:00	2024-11-08T11:00:00	4	Temperatura máxima	21.9
170507	7	Sololá	716	San Marcos la Laguna 	11	San Marcos la laguna 	1	Enero	2023-12-01T00:00:00	2024-11-08T11:00:00	3	Temperatura mínima	19.7
170508	7	Sololá	716	San Marcos la Laguna 	11	San Marcos la laguna 	1	Enero	2023-12-01T00:00:00	2024-11-08T11:00:00	5	Humedad	61
170509	7	Sololá	716	San Marcos la Laguna 	11	San Marcos la laguna 	1	Enero	2023-12-01T00:00:00	2024-11-08T11:00:00	6	Velocidad del viento	3.2
170510	7	Sololá	716	San Marcos la Laguna 	11	San Marcos la laguna 	1	Enero	2023-12-01T00:00:00	2024-11-08T11:00:00	7	Dirección del viento	3.22
170511	7	Sololá	716	San Marcos la Laguna 	11	San Marcos la laguna 	1	Enero	2023-12-01T00:00:00	2024-11-08T11:00:00	1	Precipitación	0
170512	7	Sololá	716	San Marcos la Laguna 	11	San Marcos la laguna 	1	Enero	2023-12-01T00:00:00	2024-11-08T11:00:00	8	Radiación solar	547
170513	7	Sololá	716	San Marcos la Laguna 	11	San Marcos la laguna 	1	Enero	2023-12-01T00:00:00	2024-11-08T12:00:00	2	Temperatura media	20.8
170514	7	Sololá	716	San Marcos la Laguna 	11	San Marcos la laguna 	1	Enero	2023-12-01T00:00:00	2024-11-08T12:00:00	4	Temperatura máxima	21.9
170515	7	Sololá	716	San Marcos la Laguna 	11	San Marcos la laguna 	1	Enero	2023-12-01T00:00:00	2024-11-08T12:00:00	3	Temperatura mínima	20.6
170516	7	Sololá	716	San Marcos la Laguna 	11	San Marcos la laguna 	1	Enero	2023-12-01T00:00:00	2024-11-08T12:00:00	5	Humedad	70
170517	7	Sololá	716	San Marcos la Laguna 	11	San Marcos la laguna 	1	Enero	2023-12-01T00:00:00	2024-11-08T12:00:00	6	Velocidad del viento	9.7
170518	7	Sololá	716	San Marcos la Laguna 	11	San Marcos la laguna 	1	Enero	2023-12-01T00:00:00	2024-11-08T12:00:00	7	Dirección del viento	9.66
170519	7	Sololá	716	San Marcos la Laguna 	11	San Marcos la laguna 	1	Enero	2023-12-01T00:00:00	2024-11-08T12:00:00	1	Precipitación	0
170520	7	Sololá	716	San Marcos la Laguna 	11	San Marcos la laguna 	1	Enero	2023-12-01T00:00:00	2024-11-08T12:00:00	8	Radiación solar	712
170521	7	Sololá	716	San Marcos la Laguna 	11	San Marcos la laguna 	1	Enero	2023-12-01T00:00:00	2024-11-08T13:00:00	2	Temperatura media	20.8
170522	7	Sololá	716	San Marcos la Laguna 	11	San Marcos la laguna 	1	Enero	2023-12-01T00:00:00	2024-11-08T13:00:00	4	Temperatura máxima	21.5
170523	7	Sololá	716	San Marcos la Laguna 	11	San Marcos la laguna 	1	Enero	2023-12-01T00:00:00	2024-11-08T13:00:00	3	Temperatura mínima	20.8
170524	7	Sololá	716	San Marcos la Laguna 	11	San Marcos la laguna 	1	Enero	2023-12-01T00:00:00	2024-11-08T13:00:00	5	Humedad	73
170525	7	Sololá	716	San Marcos la Laguna 	11	San Marcos la laguna 	1	Enero	2023-12-01T00:00:00	2024-11-08T13:00:00	6	Velocidad del viento	12.9
170526	7	Sololá	716	San Marcos la Laguna 	11	San Marcos la laguna 	1	Enero	2023-12-01T00:00:00	2024-11-08T13:00:00	7	Dirección del viento	12.87
170527	7	Sololá	716	San Marcos la Laguna 	11	San Marcos la laguna 	1	Enero	2023-12-01T00:00:00	2024-11-08T13:00:00	1	Precipitación	0
170528	7	Sololá	716	San Marcos la Laguna 	11	San Marcos la laguna 	1	Enero	2023-12-01T00:00:00	2024-11-08T13:00:00	8	Radiación solar	749
170529	7	Sololá	716	San Marcos la Laguna 	11	San Marcos la laguna 	1	Enero	2023-12-01T00:00:00	2024-11-08T14:00:00	2	Temperatura media	21.6
170530	7	Sololá	716	San Marcos la Laguna 	11	San Marcos la laguna 	1	Enero	2023-12-01T00:00:00	2024-11-08T14:00:00	4	Temperatura máxima	21.8
170531	7	Sololá	716	San Marcos la Laguna 	11	San Marcos la laguna 	1	Enero	2023-12-01T00:00:00	2024-11-08T14:00:00	3	Temperatura mínima	20.8
170532	7	Sololá	716	San Marcos la Laguna 	11	San Marcos la laguna 	1	Enero	2023-12-01T00:00:00	2024-11-08T14:00:00	5	Humedad	72
170533	7	Sololá	716	San Marcos la Laguna 	11	San Marcos la laguna 	1	Enero	2023-12-01T00:00:00	2024-11-08T14:00:00	6	Velocidad del viento	11.3
170534	7	Sololá	716	San Marcos la Laguna 	11	San Marcos la laguna 	1	Enero	2023-12-01T00:00:00	2024-11-08T14:00:00	7	Dirección del viento	11.27
170535	7	Sololá	716	San Marcos la Laguna 	11	San Marcos la laguna 	1	Enero	2023-12-01T00:00:00	2024-11-08T14:00:00	1	Precipitación	0
170536	7	Sololá	716	San Marcos la Laguna 	11	San Marcos la laguna 	1	Enero	2023-12-01T00:00:00	2024-11-08T14:00:00	8	Radiación solar	715
170537	7	Sololá	716	San Marcos la Laguna 	11	San Marcos la laguna 	1	Enero	2023-12-01T00:00:00	2024-11-08T15:00:00	2	Temperatura media	21.5
170538	7	Sololá	716	San Marcos la Laguna 	11	San Marcos la laguna 	1	Enero	2023-12-01T00:00:00	2024-11-08T15:00:00	4	Temperatura máxima	23
170539	7	Sololá	716	San Marcos la Laguna 	11	San Marcos la laguna 	1	Enero	2023-12-01T00:00:00	2024-11-08T15:00:00	3	Temperatura mínima	21.4
170540	7	Sololá	716	San Marcos la Laguna 	11	San Marcos la laguna 	1	Enero	2023-12-01T00:00:00	2024-11-08T15:00:00	5	Humedad	75
170541	7	Sololá	716	San Marcos la Laguna 	11	San Marcos la laguna 	1	Enero	2023-12-01T00:00:00	2024-11-08T15:00:00	6	Velocidad del viento	8
170542	7	Sololá	716	San Marcos la Laguna 	11	San Marcos la laguna 	1	Enero	2023-12-01T00:00:00	2024-11-08T15:00:00	7	Dirección del viento	8.05
170543	7	Sololá	716	San Marcos la Laguna 	11	San Marcos la laguna 	1	Enero	2023-12-01T00:00:00	2024-11-08T15:00:00	1	Precipitación	0
170544	7	Sololá	716	San Marcos la Laguna 	11	San Marcos la laguna 	1	Enero	2023-12-01T00:00:00	2024-11-08T15:00:00	8	Radiación solar	625
170545	7	Sololá	716	San Marcos la Laguna 	11	San Marcos la laguna 	1	Enero	2023-12-01T00:00:00	2024-11-08T16:00:00	2	Temperatura media	20.2
170546	7	Sololá	716	San Marcos la Laguna 	11	San Marcos la laguna 	1	Enero	2023-12-01T00:00:00	2024-11-08T16:00:00	4	Temperatura máxima	21.5
170547	7	Sololá	716	San Marcos la Laguna 	11	San Marcos la laguna 	1	Enero	2023-12-01T00:00:00	2024-11-08T16:00:00	3	Temperatura mínima	20.1
170548	7	Sololá	716	San Marcos la Laguna 	11	San Marcos la laguna 	1	Enero	2023-12-01T00:00:00	2024-11-08T16:00:00	5	Humedad	79
170549	7	Sololá	716	San Marcos la Laguna 	11	San Marcos la laguna 	1	Enero	2023-12-01T00:00:00	2024-11-08T16:00:00	6	Velocidad del viento	11.3
170550	7	Sololá	716	San Marcos la Laguna 	11	San Marcos la laguna 	1	Enero	2023-12-01T00:00:00	2024-11-08T16:00:00	7	Dirección del viento	11.27
170551	7	Sololá	716	San Marcos la Laguna 	11	San Marcos la laguna 	1	Enero	2023-12-01T00:00:00	2024-11-08T16:00:00	1	Precipitación	0
170552	7	Sololá	716	San Marcos la Laguna 	11	San Marcos la laguna 	1	Enero	2023-12-01T00:00:00	2024-11-08T16:00:00	8	Radiación solar	382
170553	7	Sololá	716	San Marcos la Laguna 	11	San Marcos la laguna 	1	Enero	2023-12-01T00:00:00	2024-11-08T17:00:00	2	Temperatura media	19.9
170554	7	Sololá	716	San Marcos la Laguna 	11	San Marcos la laguna 	1	Enero	2023-12-01T00:00:00	2024-11-08T17:00:00	4	Temperatura máxima	20.3
170555	7	Sololá	716	San Marcos la Laguna 	11	San Marcos la laguna 	1	Enero	2023-12-01T00:00:00	2024-11-08T17:00:00	3	Temperatura mínima	19.9
170556	7	Sololá	716	San Marcos la Laguna 	11	San Marcos la laguna 	1	Enero	2023-12-01T00:00:00	2024-11-08T17:00:00	5	Humedad	80
170557	7	Sololá	716	San Marcos la Laguna 	11	San Marcos la laguna 	1	Enero	2023-12-01T00:00:00	2024-11-08T17:00:00	6	Velocidad del viento	9.7
170558	7	Sololá	716	San Marcos la Laguna 	11	San Marcos la laguna 	1	Enero	2023-12-01T00:00:00	2024-11-08T17:00:00	7	Dirección del viento	9.66
170559	7	Sololá	716	San Marcos la Laguna 	11	San Marcos la laguna 	1	Enero	2023-12-01T00:00:00	2024-11-08T17:00:00	1	Precipitación	0
170560	7	Sololá	716	San Marcos la Laguna 	11	San Marcos la laguna 	1	Enero	2023-12-01T00:00:00	2024-11-08T17:00:00	8	Radiación solar	123
170561	7	Sololá	716	San Marcos la Laguna 	11	San Marcos la laguna 	1	Enero	2023-12-01T00:00:00	2024-11-08T18:00:00	2	Temperatura media	19.6
170562	7	Sololá	716	San Marcos la Laguna 	11	San Marcos la laguna 	1	Enero	2023-12-01T00:00:00	2024-11-08T18:00:00	4	Temperatura máxima	20.1
170563	7	Sololá	716	San Marcos la Laguna 	11	San Marcos la laguna 	1	Enero	2023-12-01T00:00:00	2024-11-08T18:00:00	3	Temperatura mínima	19.6
170564	7	Sololá	716	San Marcos la Laguna 	11	San Marcos la laguna 	1	Enero	2023-12-01T00:00:00	2024-11-08T18:00:00	5	Humedad	83
170565	7	Sololá	716	San Marcos la Laguna 	11	San Marcos la laguna 	1	Enero	2023-12-01T00:00:00	2024-11-08T18:00:00	6	Velocidad del viento	4.8
170566	7	Sololá	716	San Marcos la Laguna 	11	San Marcos la laguna 	1	Enero	2023-12-01T00:00:00	2024-11-08T18:00:00	7	Dirección del viento	4.83
170567	7	Sololá	716	San Marcos la Laguna 	11	San Marcos la laguna 	1	Enero	2023-12-01T00:00:00	2024-11-08T18:00:00	1	Precipitación	0
170568	7	Sololá	716	San Marcos la Laguna 	11	San Marcos la laguna 	1	Enero	2023-12-01T00:00:00	2024-11-08T18:00:00	8	Radiación solar	27
170569	7	Sololá	716	San Marcos la Laguna 	11	San Marcos la laguna 	1	Enero	2023-12-01T00:00:00	2024-11-08T19:00:00	2	Temperatura media	19.3
170570	7	Sololá	716	San Marcos la Laguna 	11	San Marcos la laguna 	1	Enero	2023-12-01T00:00:00	2024-11-08T19:00:00	4	Temperatura máxima	19.7
170571	7	Sololá	716	San Marcos la Laguna 	11	San Marcos la laguna 	1	Enero	2023-12-01T00:00:00	2024-11-08T19:00:00	3	Temperatura mínima	19.2
170572	7	Sololá	716	San Marcos la Laguna 	11	San Marcos la laguna 	1	Enero	2023-12-01T00:00:00	2024-11-08T19:00:00	5	Humedad	84
170573	7	Sololá	716	San Marcos la Laguna 	11	San Marcos la laguna 	1	Enero	2023-12-01T00:00:00	2024-11-08T19:00:00	6	Velocidad del viento	4.8
170574	7	Sololá	716	San Marcos la Laguna 	11	San Marcos la laguna 	1	Enero	2023-12-01T00:00:00	2024-11-08T19:00:00	7	Dirección del viento	4.83
170575	7	Sololá	716	San Marcos la Laguna 	11	San Marcos la laguna 	1	Enero	2023-12-01T00:00:00	2024-11-08T19:00:00	1	Precipitación	0
170576	7	Sololá	716	San Marcos la Laguna 	11	San Marcos la laguna 	1	Enero	2023-12-01T00:00:00	2024-11-08T19:00:00	8	Radiación solar	0
170577	7	Sololá	716	San Marcos la Laguna 	11	San Marcos la laguna 	1	Enero	2023-12-01T00:00:00	2024-11-08T20:00:00	2	Temperatura media	18.5
170578	7	Sololá	716	San Marcos la Laguna 	11	San Marcos la laguna 	1	Enero	2023-12-01T00:00:00	2024-11-08T20:00:00	4	Temperatura máxima	19.3
170579	7	Sololá	716	San Marcos la Laguna 	11	San Marcos la laguna 	1	Enero	2023-12-01T00:00:00	2024-11-08T20:00:00	3	Temperatura mínima	18.4
170580	7	Sololá	716	San Marcos la Laguna 	11	San Marcos la laguna 	1	Enero	2023-12-01T00:00:00	2024-11-08T20:00:00	5	Humedad	86
170581	7	Sololá	716	San Marcos la Laguna 	11	San Marcos la laguna 	1	Enero	2023-12-01T00:00:00	2024-11-08T20:00:00	6	Velocidad del viento	4.8
170582	7	Sololá	716	San Marcos la Laguna 	11	San Marcos la laguna 	1	Enero	2023-12-01T00:00:00	2024-11-08T20:00:00	7	Dirección del viento	4.83
170583	7	Sololá	716	San Marcos la Laguna 	11	San Marcos la laguna 	1	Enero	2023-12-01T00:00:00	2024-11-08T20:00:00	1	Precipitación	0
170584	7	Sololá	716	San Marcos la Laguna 	11	San Marcos la laguna 	1	Enero	2023-12-01T00:00:00	2024-11-08T20:00:00	8	Radiación solar	0
170585	7	Sololá	716	San Marcos la Laguna 	11	San Marcos la laguna 	1	Enero	2023-12-01T00:00:00	2024-11-08T21:00:00	2	Temperatura media	18.3
170586	7	Sololá	716	San Marcos la Laguna 	11	San Marcos la laguna 	1	Enero	2023-12-01T00:00:00	2024-11-08T21:00:00	4	Temperatura máxima	18.7
170587	7	Sololá	716	San Marcos la Laguna 	11	San Marcos la laguna 	1	Enero	2023-12-01T00:00:00	2024-11-08T21:00:00	3	Temperatura mínima	18.3
170588	7	Sololá	716	San Marcos la Laguna 	11	San Marcos la laguna 	1	Enero	2023-12-01T00:00:00	2024-11-08T21:00:00	5	Humedad	83
170589	7	Sololá	716	San Marcos la Laguna 	11	San Marcos la laguna 	1	Enero	2023-12-01T00:00:00	2024-11-08T21:00:00	6	Velocidad del viento	4.8
170590	7	Sololá	716	San Marcos la Laguna 	11	San Marcos la laguna 	1	Enero	2023-12-01T00:00:00	2024-11-08T21:00:00	7	Dirección del viento	4.83
170591	7	Sololá	716	San Marcos la Laguna 	11	San Marcos la laguna 	1	Enero	2023-12-01T00:00:00	2024-11-08T21:00:00	1	Precipitación	0
170592	7	Sololá	716	San Marcos la Laguna 	11	San Marcos la laguna 	1	Enero	2023-12-01T00:00:00	2024-11-08T21:00:00	8	Radiación solar	0
170593	7	Sololá	716	San Marcos la Laguna 	11	San Marcos la laguna 	1	Enero	2023-12-01T00:00:00	2024-11-08T22:00:00	2	Temperatura media	17.1
170594	7	Sololá	716	San Marcos la Laguna 	11	San Marcos la laguna 	1	Enero	2023-12-01T00:00:00	2024-11-08T22:00:00	4	Temperatura máxima	18.3
170595	7	Sololá	716	San Marcos la Laguna 	11	San Marcos la laguna 	1	Enero	2023-12-01T00:00:00	2024-11-08T22:00:00	3	Temperatura mínima	17.1
170596	7	Sololá	716	San Marcos la Laguna 	11	San Marcos la laguna 	1	Enero	2023-12-01T00:00:00	2024-11-08T22:00:00	5	Humedad	84
170597	7	Sololá	716	San Marcos la Laguna 	11	San Marcos la laguna 	1	Enero	2023-12-01T00:00:00	2024-11-08T22:00:00	6	Velocidad del viento	6.4
170598	7	Sololá	716	San Marcos la Laguna 	11	San Marcos la laguna 	1	Enero	2023-12-01T00:00:00	2024-11-08T22:00:00	7	Dirección del viento	6.44
170599	7	Sololá	716	San Marcos la Laguna 	11	San Marcos la laguna 	1	Enero	2023-12-01T00:00:00	2024-11-08T22:00:00	1	Precipitación	0
170600	7	Sololá	716	San Marcos la Laguna 	11	San Marcos la laguna 	1	Enero	2023-12-01T00:00:00	2024-11-08T22:00:00	8	Radiación solar	0
170601	7	Sololá	716	San Marcos la Laguna 	11	San Marcos la laguna 	1	Enero	2023-12-01T00:00:00	2024-11-08T23:00:00	2	Temperatura media	16.8
170602	7	Sololá	716	San Marcos la Laguna 	11	San Marcos la laguna 	1	Enero	2023-12-01T00:00:00	2024-11-08T23:00:00	4	Temperatura máxima	17.3
170603	7	Sololá	716	San Marcos la Laguna 	11	San Marcos la laguna 	1	Enero	2023-12-01T00:00:00	2024-11-08T23:00:00	3	Temperatura mínima	16.7
170604	7	Sololá	716	San Marcos la Laguna 	11	San Marcos la laguna 	1	Enero	2023-12-01T00:00:00	2024-11-08T23:00:00	5	Humedad	81
170605	7	Sololá	716	San Marcos la Laguna 	11	San Marcos la laguna 	1	Enero	2023-12-01T00:00:00	2024-11-08T23:00:00	6	Velocidad del viento	6.4
170606	7	Sololá	716	San Marcos la Laguna 	11	San Marcos la laguna 	1	Enero	2023-12-01T00:00:00	2024-11-08T23:00:00	7	Dirección del viento	6.44
170607	7	Sololá	716	San Marcos la Laguna 	11	San Marcos la laguna 	1	Enero	2023-12-01T00:00:00	2024-11-08T23:00:00	1	Precipitación	0
170608	7	Sololá	716	San Marcos la Laguna 	11	San Marcos la laguna 	1	Enero	2023-12-01T00:00:00	2024-11-08T23:00:00	8	Radiación solar	0
170609	7	Sololá	716	San Marcos la Laguna 	11	San Marcos la laguna 	1	Enero	2023-01-13T00:00:00	2024-11-08T00:00:00	2	Temperatura media	16.8
170610	7	Sololá	716	San Marcos la Laguna 	11	San Marcos la laguna 	1	Enero	2023-01-13T00:00:00	2024-11-08T00:00:00	4	Temperatura máxima	16.9
170611	7	Sololá	716	San Marcos la Laguna 	11	San Marcos la laguna 	1	Enero	2023-01-13T00:00:00	2024-11-08T00:00:00	3	Temperatura mínima	16.4
170612	7	Sololá	716	San Marcos la Laguna 	11	San Marcos la laguna 	1	Enero	2023-01-13T00:00:00	2024-11-08T00:00:00	5	Humedad	77
170613	7	Sololá	716	San Marcos la Laguna 	11	San Marcos la laguna 	1	Enero	2023-01-13T00:00:00	2024-11-08T00:00:00	6	Velocidad del viento	8
170614	7	Sololá	716	San Marcos la Laguna 	11	San Marcos la laguna 	1	Enero	2023-01-13T00:00:00	2024-11-08T00:00:00	7	Dirección del viento	8.05
170615	7	Sololá	716	San Marcos la Laguna 	11	San Marcos la laguna 	1	Enero	2023-01-13T00:00:00	2024-11-08T00:00:00	1	Precipitación	0
170616	7	Sololá	716	San Marcos la Laguna 	11	San Marcos la laguna 	1	Enero	2023-01-13T00:00:00	2024-11-08T00:00:00	8	Radiación solar	0
170617	7	Sololá	716	San Marcos la Laguna 	11	San Marcos la laguna 	1	Enero	2023-01-13T00:00:00	2024-11-08T01:00:00	2	Temperatura media	16.5
170618	7	Sololá	716	San Marcos la Laguna 	11	San Marcos la laguna 	1	Enero	2023-01-13T00:00:00	2024-11-08T01:00:00	4	Temperatura máxima	16.8
170619	7	Sololá	716	San Marcos la Laguna 	11	San Marcos la laguna 	1	Enero	2023-01-13T00:00:00	2024-11-08T01:00:00	3	Temperatura mínima	16.2
170620	7	Sololá	716	San Marcos la Laguna 	11	San Marcos la laguna 	1	Enero	2023-01-13T00:00:00	2024-11-08T01:00:00	5	Humedad	76
170621	7	Sololá	716	San Marcos la Laguna 	11	San Marcos la laguna 	1	Enero	2023-01-13T00:00:00	2024-11-08T01:00:00	6	Velocidad del viento	8
170622	7	Sololá	716	San Marcos la Laguna 	11	San Marcos la laguna 	1	Enero	2023-01-13T00:00:00	2024-11-08T01:00:00	7	Dirección del viento	8.05
170623	7	Sololá	716	San Marcos la Laguna 	11	San Marcos la laguna 	1	Enero	2023-01-13T00:00:00	2024-11-08T01:00:00	1	Precipitación	0
170624	7	Sololá	716	San Marcos la Laguna 	11	San Marcos la laguna 	1	Enero	2023-01-13T00:00:00	2024-11-08T01:00:00	8	Radiación solar	0
170625	7	Sololá	716	San Marcos la Laguna 	11	San Marcos la laguna 	1	Enero	2023-01-13T00:00:00	2024-11-08T02:00:00	2	Temperatura media	15.8
170626	7	Sololá	716	San Marcos la Laguna 	11	San Marcos la laguna 	1	Enero	2023-01-13T00:00:00	2024-11-08T02:00:00	4	Temperatura máxima	16.5
170627	7	Sololá	716	San Marcos la Laguna 	11	San Marcos la laguna 	1	Enero	2023-01-13T00:00:00	2024-11-08T02:00:00	3	Temperatura mínima	15.6
170628	7	Sololá	716	San Marcos la Laguna 	11	San Marcos la laguna 	1	Enero	2023-01-13T00:00:00	2024-11-08T02:00:00	5	Humedad	77
170629	7	Sololá	716	San Marcos la Laguna 	11	San Marcos la laguna 	1	Enero	2023-01-13T00:00:00	2024-11-08T02:00:00	6	Velocidad del viento	8
170630	7	Sololá	716	San Marcos la Laguna 	11	San Marcos la laguna 	1	Enero	2023-01-13T00:00:00	2024-11-08T02:00:00	7	Dirección del viento	8.05
170631	7	Sololá	716	San Marcos la Laguna 	11	San Marcos la laguna 	1	Enero	2023-01-13T00:00:00	2024-11-08T02:00:00	1	Precipitación	0
170632	7	Sololá	716	San Marcos la Laguna 	11	San Marcos la laguna 	1	Enero	2023-01-13T00:00:00	2024-11-08T02:00:00	8	Radiación solar	0
170633	7	Sololá	716	San Marcos la Laguna 	11	San Marcos la laguna 	1	Enero	2023-01-13T00:00:00	2024-11-08T03:00:00	2	Temperatura media	15.1
170634	7	Sololá	716	San Marcos la Laguna 	11	San Marcos la laguna 	1	Enero	2023-01-13T00:00:00	2024-11-08T03:00:00	4	Temperatura máxima	16.3
170635	7	Sololá	716	San Marcos la Laguna 	11	San Marcos la laguna 	1	Enero	2023-01-13T00:00:00	2024-11-08T03:00:00	3	Temperatura mínima	15.1
170636	7	Sololá	716	San Marcos la Laguna 	11	San Marcos la laguna 	1	Enero	2023-01-13T00:00:00	2024-11-08T03:00:00	5	Humedad	79
170637	7	Sololá	716	San Marcos la Laguna 	11	San Marcos la laguna 	1	Enero	2023-01-13T00:00:00	2024-11-08T03:00:00	6	Velocidad del viento	8
170638	7	Sololá	716	San Marcos la Laguna 	11	San Marcos la laguna 	1	Enero	2023-01-13T00:00:00	2024-11-08T03:00:00	7	Dirección del viento	8.05
170639	7	Sololá	716	San Marcos la Laguna 	11	San Marcos la laguna 	1	Enero	2023-01-13T00:00:00	2024-11-08T03:00:00	1	Precipitación	0
170640	7	Sololá	716	San Marcos la Laguna 	11	San Marcos la laguna 	1	Enero	2023-01-13T00:00:00	2024-11-08T03:00:00	8	Radiación solar	0
170641	7	Sololá	716	San Marcos la Laguna 	11	San Marcos la laguna 	1	Enero	2023-01-13T00:00:00	2024-11-08T04:00:00	2	Temperatura media	15.7
170642	7	Sololá	716	San Marcos la Laguna 	11	San Marcos la laguna 	1	Enero	2023-01-13T00:00:00	2024-11-08T04:00:00	4	Temperatura máxima	16.2
170643	7	Sololá	716	San Marcos la Laguna 	11	San Marcos la laguna 	1	Enero	2023-01-13T00:00:00	2024-11-08T04:00:00	3	Temperatura mínima	15.2
170644	7	Sololá	716	San Marcos la Laguna 	11	San Marcos la laguna 	1	Enero	2023-01-13T00:00:00	2024-11-08T04:00:00	5	Humedad	74
170645	7	Sololá	716	San Marcos la Laguna 	11	San Marcos la laguna 	1	Enero	2023-01-13T00:00:00	2024-11-08T04:00:00	6	Velocidad del viento	8
170646	7	Sololá	716	San Marcos la Laguna 	11	San Marcos la laguna 	1	Enero	2023-01-13T00:00:00	2024-11-08T04:00:00	7	Dirección del viento	8.05
170647	7	Sololá	716	San Marcos la Laguna 	11	San Marcos la laguna 	1	Enero	2023-01-13T00:00:00	2024-11-08T04:00:00	1	Precipitación	0
170648	7	Sololá	716	San Marcos la Laguna 	11	San Marcos la laguna 	1	Enero	2023-01-13T00:00:00	2024-11-08T04:00:00	8	Radiación solar	0
170649	7	Sololá	716	San Marcos la Laguna 	11	San Marcos la laguna 	1	Enero	2023-01-13T00:00:00	2024-11-08T05:00:00	2	Temperatura media	15.6
170650	7	Sololá	716	San Marcos la Laguna 	11	San Marcos la laguna 	1	Enero	2023-01-13T00:00:00	2024-11-08T05:00:00	4	Temperatura máxima	15.8
170651	7	Sololá	716	San Marcos la Laguna 	11	San Marcos la laguna 	1	Enero	2023-01-13T00:00:00	2024-11-08T05:00:00	3	Temperatura mínima	15.4
170652	7	Sololá	716	San Marcos la Laguna 	11	San Marcos la laguna 	1	Enero	2023-01-13T00:00:00	2024-11-08T05:00:00	5	Humedad	75
170653	7	Sololá	716	San Marcos la Laguna 	11	San Marcos la laguna 	1	Enero	2023-01-13T00:00:00	2024-11-08T05:00:00	6	Velocidad del viento	8
170654	7	Sololá	716	San Marcos la Laguna 	11	San Marcos la laguna 	1	Enero	2023-01-13T00:00:00	2024-11-08T05:00:00	7	Dirección del viento	8.05
170655	7	Sololá	716	San Marcos la Laguna 	11	San Marcos la laguna 	1	Enero	2023-01-13T00:00:00	2024-11-08T05:00:00	1	Precipitación	0
170656	7	Sololá	716	San Marcos la Laguna 	11	San Marcos la laguna 	1	Enero	2023-01-13T00:00:00	2024-11-08T05:00:00	8	Radiación solar	0
170657	7	Sololá	716	San Marcos la Laguna 	11	San Marcos la laguna 	1	Enero	2023-01-13T00:00:00	2024-11-08T06:00:00	2	Temperatura media	14.6
170658	7	Sololá	716	San Marcos la Laguna 	11	San Marcos la laguna 	1	Enero	2023-01-13T00:00:00	2024-11-08T06:00:00	4	Temperatura máxima	15.6
170659	7	Sololá	716	San Marcos la Laguna 	11	San Marcos la laguna 	1	Enero	2023-01-13T00:00:00	2024-11-08T06:00:00	3	Temperatura mínima	14.5
170660	7	Sololá	716	San Marcos la Laguna 	11	San Marcos la laguna 	1	Enero	2023-01-13T00:00:00	2024-11-08T06:00:00	5	Humedad	77
170661	7	Sololá	716	San Marcos la Laguna 	11	San Marcos la laguna 	1	Enero	2023-01-13T00:00:00	2024-11-08T06:00:00	6	Velocidad del viento	9.7
170662	7	Sololá	716	San Marcos la Laguna 	11	San Marcos la laguna 	1	Enero	2023-01-13T00:00:00	2024-11-08T06:00:00	7	Dirección del viento	9.66
170663	7	Sololá	716	San Marcos la Laguna 	11	San Marcos la laguna 	1	Enero	2023-01-13T00:00:00	2024-11-08T06:00:00	1	Precipitación	0
170664	7	Sololá	716	San Marcos la Laguna 	11	San Marcos la laguna 	1	Enero	2023-01-13T00:00:00	2024-11-08T06:00:00	8	Radiación solar	0
170665	7	Sololá	716	San Marcos la Laguna 	11	San Marcos la laguna 	1	Enero	2023-01-13T00:00:00	2024-11-08T07:00:00	2	Temperatura media	14.2
170666	7	Sololá	716	San Marcos la Laguna 	11	San Marcos la laguna 	1	Enero	2023-01-13T00:00:00	2024-11-08T07:00:00	4	Temperatura máxima	15.4
170667	7	Sololá	716	San Marcos la Laguna 	11	San Marcos la laguna 	1	Enero	2023-01-13T00:00:00	2024-11-08T07:00:00	3	Temperatura mínima	14.1
170668	7	Sololá	716	San Marcos la Laguna 	11	San Marcos la laguna 	1	Enero	2023-01-13T00:00:00	2024-11-08T07:00:00	5	Humedad	80
170669	7	Sololá	716	San Marcos la Laguna 	11	San Marcos la laguna 	1	Enero	2023-01-13T00:00:00	2024-11-08T07:00:00	6	Velocidad del viento	8
170670	7	Sololá	716	San Marcos la Laguna 	11	San Marcos la laguna 	1	Enero	2023-01-13T00:00:00	2024-11-08T07:00:00	7	Dirección del viento	8.05
170671	7	Sololá	716	San Marcos la Laguna 	11	San Marcos la laguna 	1	Enero	2023-01-13T00:00:00	2024-11-08T07:00:00	1	Precipitación	0
170672	7	Sololá	716	San Marcos la Laguna 	11	San Marcos la laguna 	1	Enero	2023-01-13T00:00:00	2024-11-08T07:00:00	8	Radiación solar	4
170673	7	Sololá	716	San Marcos la Laguna 	11	San Marcos la laguna 	1	Enero	2023-01-13T00:00:00	2024-11-08T08:00:00	2	Temperatura media	17.6
170674	7	Sololá	716	San Marcos la Laguna 	11	San Marcos la laguna 	1	Enero	2023-01-13T00:00:00	2024-11-08T08:00:00	4	Temperatura máxima	17.6
170675	7	Sololá	716	San Marcos la Laguna 	11	San Marcos la laguna 	1	Enero	2023-01-13T00:00:00	2024-11-08T08:00:00	3	Temperatura mínima	14.2
170676	7	Sololá	716	San Marcos la Laguna 	11	San Marcos la laguna 	1	Enero	2023-01-13T00:00:00	2024-11-08T08:00:00	5	Humedad	73
170677	7	Sololá	716	San Marcos la Laguna 	11	San Marcos la laguna 	1	Enero	2023-01-13T00:00:00	2024-11-08T08:00:00	6	Velocidad del viento	4.8
170678	7	Sololá	716	San Marcos la Laguna 	11	San Marcos la laguna 	1	Enero	2023-01-13T00:00:00	2024-11-08T08:00:00	7	Dirección del viento	4.83
170679	7	Sololá	716	San Marcos la Laguna 	11	San Marcos la laguna 	1	Enero	2023-01-13T00:00:00	2024-11-08T08:00:00	1	Precipitación	0
170680	7	Sololá	716	San Marcos la Laguna 	11	San Marcos la laguna 	1	Enero	2023-01-13T00:00:00	2024-11-08T08:00:00	8	Radiación solar	120
170681	7	Sololá	716	San Marcos la Laguna 	11	San Marcos la laguna 	1	Enero	2023-01-13T00:00:00	2024-11-08T09:00:00	2	Temperatura media	20.8
170682	7	Sololá	716	San Marcos la Laguna 	11	San Marcos la laguna 	1	Enero	2023-01-13T00:00:00	2024-11-08T09:00:00	4	Temperatura máxima	20.8
170683	7	Sololá	716	San Marcos la Laguna 	11	San Marcos la laguna 	1	Enero	2023-01-13T00:00:00	2024-11-08T09:00:00	3	Temperatura mínima	17.6
170684	7	Sololá	716	San Marcos la Laguna 	11	San Marcos la laguna 	1	Enero	2023-01-13T00:00:00	2024-11-08T09:00:00	5	Humedad	61
170685	7	Sololá	716	San Marcos la Laguna 	11	San Marcos la laguna 	1	Enero	2023-01-13T00:00:00	2024-11-08T09:00:00	6	Velocidad del viento	3.2
170686	7	Sololá	716	San Marcos la Laguna 	11	San Marcos la laguna 	1	Enero	2023-01-13T00:00:00	2024-11-08T09:00:00	7	Dirección del viento	3.22
170687	7	Sololá	716	San Marcos la Laguna 	11	San Marcos la laguna 	1	Enero	2023-01-13T00:00:00	2024-11-08T09:00:00	1	Precipitación	0
170688	7	Sololá	716	San Marcos la Laguna 	11	San Marcos la laguna 	1	Enero	2023-01-13T00:00:00	2024-11-08T09:00:00	8	Radiación solar	322
170689	7	Sololá	716	San Marcos la Laguna 	11	San Marcos la laguna 	1	Enero	2023-01-13T00:00:00	2024-11-08T10:00:00	2	Temperatura media	22
170690	7	Sololá	716	San Marcos la Laguna 	11	San Marcos la laguna 	1	Enero	2023-01-13T00:00:00	2024-11-08T10:00:00	4	Temperatura máxima	22.2
170691	7	Sololá	716	San Marcos la Laguna 	11	San Marcos la laguna 	1	Enero	2023-01-13T00:00:00	2024-11-08T10:00:00	3	Temperatura mínima	20.8
170692	7	Sololá	716	San Marcos la Laguna 	11	San Marcos la laguna 	1	Enero	2023-01-13T00:00:00	2024-11-08T10:00:00	5	Humedad	54
170693	7	Sololá	716	San Marcos la Laguna 	11	San Marcos la laguna 	1	Enero	2023-01-13T00:00:00	2024-11-08T10:00:00	6	Velocidad del viento	8
170694	7	Sololá	716	San Marcos la Laguna 	11	San Marcos la laguna 	1	Enero	2023-01-13T00:00:00	2024-11-08T10:00:00	7	Dirección del viento	8.05
170695	7	Sololá	716	San Marcos la Laguna 	11	San Marcos la laguna 	1	Enero	2023-01-13T00:00:00	2024-11-08T10:00:00	1	Precipitación	0
170696	7	Sololá	716	San Marcos la Laguna 	11	San Marcos la laguna 	1	Enero	2023-01-13T00:00:00	2024-11-08T10:00:00	8	Radiación solar	517
170697	7	Sololá	716	San Marcos la Laguna 	11	San Marcos la laguna 	1	Enero	2023-01-13T00:00:00	2024-11-08T11:00:00	2	Temperatura media	22.2
170698	7	Sololá	716	San Marcos la Laguna 	11	San Marcos la laguna 	1	Enero	2023-01-13T00:00:00	2024-11-08T11:00:00	4	Temperatura máxima	22.5
170699	7	Sololá	716	San Marcos la Laguna 	11	San Marcos la laguna 	1	Enero	2023-01-13T00:00:00	2024-11-08T11:00:00	3	Temperatura mínima	21.7
170700	7	Sololá	716	San Marcos la Laguna 	11	San Marcos la laguna 	1	Enero	2023-01-13T00:00:00	2024-11-08T11:00:00	5	Humedad	55
170701	7	Sololá	716	San Marcos la Laguna 	11	San Marcos la laguna 	1	Enero	2023-01-13T00:00:00	2024-11-08T11:00:00	6	Velocidad del viento	22.5
170702	7	Sololá	716	San Marcos la Laguna 	11	San Marcos la laguna 	1	Enero	2023-01-13T00:00:00	2024-11-08T11:00:00	7	Dirección del viento	22.53
170703	7	Sololá	716	San Marcos la Laguna 	11	San Marcos la laguna 	1	Enero	2023-01-13T00:00:00	2024-11-08T11:00:00	1	Precipitación	0
170704	7	Sololá	716	San Marcos la Laguna 	11	San Marcos la laguna 	1	Enero	2023-01-13T00:00:00	2024-11-08T11:00:00	8	Radiación solar	550
170705	7	Sololá	716	San Marcos la Laguna 	11	San Marcos la laguna 	1	Enero	2023-01-13T00:00:00	2024-11-08T12:00:00	2	Temperatura media	23
170706	7	Sololá	716	San Marcos la Laguna 	11	San Marcos la laguna 	1	Enero	2023-01-13T00:00:00	2024-11-08T12:00:00	4	Temperatura máxima	23.5
170707	7	Sololá	716	San Marcos la Laguna 	11	San Marcos la laguna 	1	Enero	2023-01-13T00:00:00	2024-11-08T12:00:00	3	Temperatura mínima	21.8
170708	7	Sololá	716	San Marcos la Laguna 	11	San Marcos la laguna 	1	Enero	2023-01-13T00:00:00	2024-11-08T12:00:00	5	Humedad	49
170709	7	Sololá	716	San Marcos la Laguna 	11	San Marcos la laguna 	1	Enero	2023-01-13T00:00:00	2024-11-08T12:00:00	6	Velocidad del viento	14.5
170710	7	Sololá	716	San Marcos la Laguna 	11	San Marcos la laguna 	1	Enero	2023-01-13T00:00:00	2024-11-08T12:00:00	7	Dirección del viento	14.48
170711	7	Sololá	716	San Marcos la Laguna 	11	San Marcos la laguna 	1	Enero	2023-01-13T00:00:00	2024-11-08T12:00:00	1	Precipitación	0
170712	7	Sololá	716	San Marcos la Laguna 	11	San Marcos la laguna 	1	Enero	2023-01-13T00:00:00	2024-11-08T12:00:00	8	Radiación solar	752
170713	7	Sololá	716	San Marcos la Laguna 	11	San Marcos la laguna 	1	Enero	2023-01-13T00:00:00	2024-11-08T13:00:00	2	Temperatura media	24.1
170714	7	Sololá	716	San Marcos la Laguna 	11	San Marcos la laguna 	1	Enero	2023-01-13T00:00:00	2024-11-08T13:00:00	4	Temperatura máxima	24.3
170715	7	Sololá	716	San Marcos la Laguna 	11	San Marcos la laguna 	1	Enero	2023-01-13T00:00:00	2024-11-08T13:00:00	3	Temperatura mínima	22.9
170716	7	Sololá	716	San Marcos la Laguna 	11	San Marcos la laguna 	1	Enero	2023-01-13T00:00:00	2024-11-08T13:00:00	5	Humedad	48
170717	7	Sololá	716	San Marcos la Laguna 	11	San Marcos la laguna 	1	Enero	2023-01-13T00:00:00	2024-11-08T13:00:00	6	Velocidad del viento	9.7
170718	7	Sololá	716	San Marcos la Laguna 	11	San Marcos la laguna 	1	Enero	2023-01-13T00:00:00	2024-11-08T13:00:00	7	Dirección del viento	9.66
170719	7	Sololá	716	San Marcos la Laguna 	11	San Marcos la laguna 	1	Enero	2023-01-13T00:00:00	2024-11-08T13:00:00	1	Precipitación	0
170720	7	Sololá	716	San Marcos la Laguna 	11	San Marcos la laguna 	1	Enero	2023-01-13T00:00:00	2024-11-08T13:00:00	8	Radiación solar	792
170721	7	Sololá	716	San Marcos la Laguna 	11	San Marcos la laguna 	1	Enero	2023-01-13T00:00:00	2024-11-08T14:00:00	2	Temperatura media	24.2
170722	7	Sololá	716	San Marcos la Laguna 	11	San Marcos la laguna 	1	Enero	2023-01-13T00:00:00	2024-11-08T14:00:00	4	Temperatura máxima	25.3
170723	7	Sololá	716	San Marcos la Laguna 	11	San Marcos la laguna 	1	Enero	2023-01-13T00:00:00	2024-11-08T14:00:00	3	Temperatura mínima	23.7
170724	7	Sololá	716	San Marcos la Laguna 	11	San Marcos la laguna 	1	Enero	2023-01-13T00:00:00	2024-11-08T14:00:00	5	Humedad	46
170725	7	Sololá	716	San Marcos la Laguna 	11	San Marcos la laguna 	1	Enero	2023-01-13T00:00:00	2024-11-08T14:00:00	6	Velocidad del viento	8
170726	7	Sololá	716	San Marcos la Laguna 	11	San Marcos la laguna 	1	Enero	2023-01-13T00:00:00	2024-11-08T14:00:00	7	Dirección del viento	8.05
170727	7	Sololá	716	San Marcos la Laguna 	11	San Marcos la laguna 	1	Enero	2023-01-13T00:00:00	2024-11-08T14:00:00	1	Precipitación	0
170728	7	Sololá	716	San Marcos la Laguna 	11	San Marcos la laguna 	1	Enero	2023-01-13T00:00:00	2024-11-08T14:00:00	8	Radiación solar	756
170729	7	Sololá	716	San Marcos la Laguna 	11	San Marcos la laguna 	1	Enero	2023-01-13T00:00:00	2024-11-08T15:00:00	2	Temperatura media	23.4
170730	7	Sololá	716	San Marcos la Laguna 	11	San Marcos la laguna 	1	Enero	2023-01-13T00:00:00	2024-11-08T15:00:00	4	Temperatura máxima	24.2
170731	7	Sololá	716	San Marcos la Laguna 	11	San Marcos la laguna 	1	Enero	2023-01-13T00:00:00	2024-11-08T15:00:00	3	Temperatura mínima	22.7
170732	7	Sololá	716	San Marcos la Laguna 	11	San Marcos la laguna 	1	Enero	2023-01-13T00:00:00	2024-11-08T15:00:00	5	Humedad	46
170733	7	Sololá	716	San Marcos la Laguna 	11	San Marcos la laguna 	1	Enero	2023-01-13T00:00:00	2024-11-08T15:00:00	6	Velocidad del viento	8
170734	7	Sololá	716	San Marcos la Laguna 	11	San Marcos la laguna 	1	Enero	2023-01-13T00:00:00	2024-11-08T15:00:00	7	Dirección del viento	8.05
170735	7	Sololá	716	San Marcos la Laguna 	11	San Marcos la laguna 	1	Enero	2023-01-13T00:00:00	2024-11-08T15:00:00	1	Precipitación	0
170736	7	Sololá	716	San Marcos la Laguna 	11	San Marcos la laguna 	1	Enero	2023-01-13T00:00:00	2024-11-08T15:00:00	8	Radiación solar	190
170737	7	Sololá	716	San Marcos la Laguna 	11	San Marcos la laguna 	1	Enero	2023-01-13T00:00:00	2024-11-08T16:00:00	2	Temperatura media	22.2
170738	7	Sololá	716	San Marcos la Laguna 	11	San Marcos la laguna 	1	Enero	2023-01-13T00:00:00	2024-11-08T16:00:00	4	Temperatura máxima	23.9
170739	7	Sololá	716	San Marcos la Laguna 	11	San Marcos la laguna 	1	Enero	2023-01-13T00:00:00	2024-11-08T16:00:00	3	Temperatura mínima	22.2
170740	7	Sololá	716	San Marcos la Laguna 	11	San Marcos la laguna 	1	Enero	2023-01-13T00:00:00	2024-11-08T16:00:00	5	Humedad	48
170741	7	Sololá	716	San Marcos la Laguna 	11	San Marcos la laguna 	1	Enero	2023-01-13T00:00:00	2024-11-08T16:00:00	6	Velocidad del viento	12.9
170742	7	Sololá	716	San Marcos la Laguna 	11	San Marcos la laguna 	1	Enero	2023-01-13T00:00:00	2024-11-08T16:00:00	7	Dirección del viento	12.87
170743	7	Sololá	716	San Marcos la Laguna 	11	San Marcos la laguna 	1	Enero	2023-01-13T00:00:00	2024-11-08T16:00:00	1	Precipitación	0
170744	7	Sololá	716	San Marcos la Laguna 	11	San Marcos la laguna 	1	Enero	2023-01-13T00:00:00	2024-11-08T16:00:00	8	Radiación solar	258
170745	7	Sololá	716	San Marcos la Laguna 	11	San Marcos la laguna 	1	Enero	2023-01-13T00:00:00	2024-11-08T17:00:00	2	Temperatura media	19.9
170746	7	Sololá	716	San Marcos la Laguna 	11	San Marcos la laguna 	1	Enero	2023-01-13T00:00:00	2024-11-08T17:00:00	4	Temperatura máxima	22.2
170747	7	Sololá	716	San Marcos la Laguna 	11	San Marcos la laguna 	1	Enero	2023-01-13T00:00:00	2024-11-08T17:00:00	3	Temperatura mínima	19.9
170748	7	Sololá	716	San Marcos la Laguna 	11	San Marcos la laguna 	1	Enero	2023-01-13T00:00:00	2024-11-08T17:00:00	5	Humedad	62
170749	7	Sololá	716	San Marcos la Laguna 	11	San Marcos la laguna 	1	Enero	2023-01-13T00:00:00	2024-11-08T17:00:00	6	Velocidad del viento	22.5
170750	7	Sololá	716	San Marcos la Laguna 	11	San Marcos la laguna 	1	Enero	2023-01-13T00:00:00	2024-11-08T17:00:00	7	Dirección del viento	22.53
170751	7	Sololá	716	San Marcos la Laguna 	11	San Marcos la laguna 	1	Enero	2023-01-13T00:00:00	2024-11-08T17:00:00	1	Precipitación	0
170752	7	Sololá	716	San Marcos la Laguna 	11	San Marcos la laguna 	1	Enero	2023-01-13T00:00:00	2024-11-08T17:00:00	8	Radiación solar	71
170753	7	Sololá	716	San Marcos la Laguna 	11	San Marcos la laguna 	1	Enero	2023-01-13T00:00:00	2024-11-08T18:00:00	2	Temperatura media	19.1
170754	7	Sololá	716	San Marcos la Laguna 	11	San Marcos la laguna 	1	Enero	2023-01-13T00:00:00	2024-11-08T18:00:00	4	Temperatura máxima	19.9
170755	7	Sololá	716	San Marcos la Laguna 	11	San Marcos la laguna 	1	Enero	2023-01-13T00:00:00	2024-11-08T18:00:00	3	Temperatura mínima	19.1
170756	7	Sololá	716	San Marcos la Laguna 	11	San Marcos la laguna 	1	Enero	2023-01-13T00:00:00	2024-11-08T18:00:00	5	Humedad	64
170757	7	Sololá	716	San Marcos la Laguna 	11	San Marcos la laguna 	1	Enero	2023-01-13T00:00:00	2024-11-08T18:00:00	6	Velocidad del viento	16.1
170758	7	Sololá	716	San Marcos la Laguna 	11	San Marcos la laguna 	1	Enero	2023-01-13T00:00:00	2024-11-08T18:00:00	7	Dirección del viento	16.09
170759	7	Sololá	716	San Marcos la Laguna 	11	San Marcos la laguna 	1	Enero	2023-01-13T00:00:00	2024-11-08T18:00:00	1	Precipitación	0
170760	7	Sololá	716	San Marcos la Laguna 	11	San Marcos la laguna 	1	Enero	2023-01-13T00:00:00	2024-11-08T18:00:00	8	Radiación solar	21
170761	7	Sololá	716	San Marcos la Laguna 	11	San Marcos la laguna 	1	Enero	2023-01-13T00:00:00	2024-11-08T19:00:00	2	Temperatura media	18.2
170762	7	Sololá	716	San Marcos la Laguna 	11	San Marcos la laguna 	1	Enero	2023-01-13T00:00:00	2024-11-08T19:00:00	4	Temperatura máxima	19.1
170763	7	Sololá	716	San Marcos la Laguna 	11	San Marcos la laguna 	1	Enero	2023-01-13T00:00:00	2024-11-08T19:00:00	3	Temperatura mínima	18.2
170764	7	Sololá	716	San Marcos la Laguna 	11	San Marcos la laguna 	1	Enero	2023-01-13T00:00:00	2024-11-08T19:00:00	5	Humedad	67
170765	7	Sololá	716	San Marcos la Laguna 	11	San Marcos la laguna 	1	Enero	2023-01-13T00:00:00	2024-11-08T19:00:00	6	Velocidad del viento	9.7
170766	7	Sololá	716	San Marcos la Laguna 	11	San Marcos la laguna 	1	Enero	2023-01-13T00:00:00	2024-11-08T19:00:00	7	Dirección del viento	9.66
170767	7	Sololá	716	San Marcos la Laguna 	11	San Marcos la laguna 	1	Enero	2023-01-13T00:00:00	2024-11-08T19:00:00	1	Precipitación	0
170768	7	Sololá	716	San Marcos la Laguna 	11	San Marcos la laguna 	1	Enero	2023-01-13T00:00:00	2024-11-08T19:00:00	8	Radiación solar	0
170769	7	Sololá	716	San Marcos la Laguna 	11	San Marcos la laguna 	1	Enero	2023-01-13T00:00:00	2024-11-08T20:00:00	2	Temperatura media	16.7
170770	7	Sololá	716	San Marcos la Laguna 	11	San Marcos la laguna 	1	Enero	2023-01-13T00:00:00	2024-11-08T20:00:00	4	Temperatura máxima	18.2
170771	7	Sololá	716	San Marcos la Laguna 	11	San Marcos la laguna 	1	Enero	2023-01-13T00:00:00	2024-11-08T20:00:00	3	Temperatura mínima	16.4
170772	7	Sololá	716	San Marcos la Laguna 	11	San Marcos la laguna 	1	Enero	2023-01-13T00:00:00	2024-11-08T20:00:00	5	Humedad	71
170773	7	Sololá	716	San Marcos la Laguna 	11	San Marcos la laguna 	1	Enero	2023-01-13T00:00:00	2024-11-08T20:00:00	6	Velocidad del viento	4.8
170774	7	Sololá	716	San Marcos la Laguna 	11	San Marcos la laguna 	1	Enero	2023-01-13T00:00:00	2024-11-08T20:00:00	7	Dirección del viento	4.83
170775	7	Sololá	716	San Marcos la Laguna 	11	San Marcos la laguna 	1	Enero	2023-01-13T00:00:00	2024-11-08T20:00:00	1	Precipitación	0
170776	7	Sololá	716	San Marcos la Laguna 	11	San Marcos la laguna 	1	Enero	2023-01-13T00:00:00	2024-11-08T20:00:00	8	Radiación solar	0
170777	7	Sololá	716	San Marcos la Laguna 	11	San Marcos la laguna 	1	Enero	2023-01-13T00:00:00	2024-11-08T21:00:00	2	Temperatura media	16.2
170778	7	Sololá	716	San Marcos la Laguna 	11	San Marcos la laguna 	1	Enero	2023-01-13T00:00:00	2024-11-08T21:00:00	4	Temperatura máxima	16.9
170779	7	Sololá	716	San Marcos la Laguna 	11	San Marcos la laguna 	1	Enero	2023-01-13T00:00:00	2024-11-08T21:00:00	3	Temperatura mínima	16.2
170780	7	Sololá	716	San Marcos la Laguna 	11	San Marcos la laguna 	1	Enero	2023-01-13T00:00:00	2024-11-08T21:00:00	5	Humedad	73
170781	7	Sololá	716	San Marcos la Laguna 	11	San Marcos la laguna 	1	Enero	2023-01-13T00:00:00	2024-11-08T21:00:00	6	Velocidad del viento	4.8
170782	7	Sololá	716	San Marcos la Laguna 	11	San Marcos la laguna 	1	Enero	2023-01-13T00:00:00	2024-11-08T21:00:00	7	Dirección del viento	4.83
170783	7	Sololá	716	San Marcos la Laguna 	11	San Marcos la laguna 	1	Enero	2023-01-13T00:00:00	2024-11-08T21:00:00	1	Precipitación	0
170784	7	Sololá	716	San Marcos la Laguna 	11	San Marcos la laguna 	1	Enero	2023-01-13T00:00:00	2024-11-08T21:00:00	8	Radiación solar	0
170785	7	Sololá	716	San Marcos la Laguna 	11	San Marcos la laguna 	1	Enero	2023-01-13T00:00:00	2024-11-08T22:00:00	2	Temperatura media	16.1
170786	7	Sololá	716	San Marcos la Laguna 	11	San Marcos la laguna 	1	Enero	2023-01-13T00:00:00	2024-11-08T22:00:00	4	Temperatura máxima	16.7
170787	7	Sololá	716	San Marcos la Laguna 	11	San Marcos la laguna 	1	Enero	2023-01-13T00:00:00	2024-11-08T22:00:00	3	Temperatura mínima	15.9
170788	7	Sololá	716	San Marcos la Laguna 	11	San Marcos la laguna 	1	Enero	2023-01-13T00:00:00	2024-11-08T22:00:00	5	Humedad	73
170789	7	Sololá	716	San Marcos la Laguna 	11	San Marcos la laguna 	1	Enero	2023-01-13T00:00:00	2024-11-08T22:00:00	6	Velocidad del viento	4.8
170790	7	Sololá	716	San Marcos la Laguna 	11	San Marcos la laguna 	1	Enero	2023-01-13T00:00:00	2024-11-08T22:00:00	7	Dirección del viento	4.83
170791	7	Sololá	716	San Marcos la Laguna 	11	San Marcos la laguna 	1	Enero	2023-01-13T00:00:00	2024-11-08T22:00:00	1	Precipitación	0
170792	7	Sololá	716	San Marcos la Laguna 	11	San Marcos la laguna 	1	Enero	2023-01-13T00:00:00	2024-11-08T22:00:00	8	Radiación solar	0
170793	7	Sololá	716	San Marcos la Laguna 	11	San Marcos la laguna 	1	Enero	2023-01-13T00:00:00	2024-11-08T23:00:00	2	Temperatura media	16.1
170794	7	Sololá	716	San Marcos la Laguna 	11	San Marcos la laguna 	1	Enero	2023-01-13T00:00:00	2024-11-08T23:00:00	4	Temperatura máxima	16.5
170795	7	Sololá	716	San Marcos la Laguna 	11	San Marcos la laguna 	1	Enero	2023-01-13T00:00:00	2024-11-08T23:00:00	3	Temperatura mínima	15.7
170796	7	Sololá	716	San Marcos la Laguna 	11	San Marcos la laguna 	1	Enero	2023-01-13T00:00:00	2024-11-08T23:00:00	5	Humedad	69
170797	7	Sololá	716	San Marcos la Laguna 	11	San Marcos la laguna 	1	Enero	2023-01-13T00:00:00	2024-11-08T23:00:00	6	Velocidad del viento	3.2
170798	7	Sololá	716	San Marcos la Laguna 	11	San Marcos la laguna 	1	Enero	2023-01-13T00:00:00	2024-11-08T23:00:00	7	Dirección del viento	3.22
170799	7	Sololá	716	San Marcos la Laguna 	11	San Marcos la laguna 	1	Enero	2023-01-13T00:00:00	2024-11-08T23:00:00	1	Precipitación	0
170800	7	Sololá	716	San Marcos la Laguna 	11	San Marcos la laguna 	1	Enero	2023-01-13T00:00:00	2024-11-08T23:00:00	8	Radiación solar	0
170801	7	Sololá	716	San Marcos la Laguna 	11	San Marcos la laguna 	1	Enero	2023-01-14T00:00:00	2024-11-08T00:00:00	2	Temperatura media	16.3
170802	7	Sololá	716	San Marcos la Laguna 	11	San Marcos la laguna 	1	Enero	2023-01-14T00:00:00	2024-11-08T00:00:00	4	Temperatura máxima	16.8
170803	7	Sololá	716	San Marcos la Laguna 	11	San Marcos la laguna 	1	Enero	2023-01-14T00:00:00	2024-11-08T00:00:00	3	Temperatura mínima	16.1
170804	7	Sololá	716	San Marcos la Laguna 	11	San Marcos la laguna 	1	Enero	2023-01-14T00:00:00	2024-11-08T00:00:00	5	Humedad	69
170805	7	Sololá	716	San Marcos la Laguna 	11	San Marcos la laguna 	1	Enero	2023-01-14T00:00:00	2024-11-08T00:00:00	6	Velocidad del viento	6.4
170806	7	Sololá	716	San Marcos la Laguna 	11	San Marcos la laguna 	1	Enero	2023-01-14T00:00:00	2024-11-08T00:00:00	7	Dirección del viento	6.44
170807	7	Sololá	716	San Marcos la Laguna 	11	San Marcos la laguna 	1	Enero	2023-01-14T00:00:00	2024-11-08T00:00:00	1	Precipitación	0
170808	7	Sololá	716	San Marcos la Laguna 	11	San Marcos la laguna 	1	Enero	2023-01-14T00:00:00	2024-11-08T00:00:00	8	Radiación solar	0
170809	7	Sololá	716	San Marcos la Laguna 	11	San Marcos la laguna 	1	Enero	2023-01-14T00:00:00	2024-11-08T01:00:00	2	Temperatura media	15.6
170810	7	Sololá	716	San Marcos la Laguna 	11	San Marcos la laguna 	1	Enero	2023-01-14T00:00:00	2024-11-08T01:00:00	4	Temperatura máxima	16.8
170811	7	Sololá	716	San Marcos la Laguna 	11	San Marcos la laguna 	1	Enero	2023-01-14T00:00:00	2024-11-08T01:00:00	3	Temperatura mínima	15.5
170812	7	Sololá	716	San Marcos la Laguna 	11	San Marcos la laguna 	1	Enero	2023-01-14T00:00:00	2024-11-08T01:00:00	5	Humedad	71
170813	7	Sololá	716	San Marcos la Laguna 	11	San Marcos la laguna 	1	Enero	2023-01-14T00:00:00	2024-11-08T01:00:00	6	Velocidad del viento	8
170814	7	Sololá	716	San Marcos la Laguna 	11	San Marcos la laguna 	1	Enero	2023-01-14T00:00:00	2024-11-08T01:00:00	7	Dirección del viento	8.05
170815	7	Sololá	716	San Marcos la Laguna 	11	San Marcos la laguna 	1	Enero	2023-01-14T00:00:00	2024-11-08T01:00:00	1	Precipitación	0
170816	7	Sololá	716	San Marcos la Laguna 	11	San Marcos la laguna 	1	Enero	2023-01-14T00:00:00	2024-11-08T01:00:00	8	Radiación solar	0
170817	7	Sololá	716	San Marcos la Laguna 	11	San Marcos la laguna 	1	Enero	2023-01-14T00:00:00	2024-11-08T02:00:00	2	Temperatura media	14.2
170818	7	Sololá	716	San Marcos la Laguna 	11	San Marcos la laguna 	1	Enero	2023-01-14T00:00:00	2024-11-08T02:00:00	4	Temperatura máxima	15.6
170819	7	Sololá	716	San Marcos la Laguna 	11	San Marcos la laguna 	1	Enero	2023-01-14T00:00:00	2024-11-08T02:00:00	3	Temperatura mínima	14.2
170820	7	Sololá	716	San Marcos la Laguna 	11	San Marcos la laguna 	1	Enero	2023-01-14T00:00:00	2024-11-08T02:00:00	5	Humedad	76
170821	7	Sololá	716	San Marcos la Laguna 	11	San Marcos la laguna 	1	Enero	2023-01-14T00:00:00	2024-11-08T02:00:00	6	Velocidad del viento	8
170822	7	Sololá	716	San Marcos la Laguna 	11	San Marcos la laguna 	1	Enero	2023-01-14T00:00:00	2024-11-08T02:00:00	7	Dirección del viento	8.05
170823	7	Sololá	716	San Marcos la Laguna 	11	San Marcos la laguna 	1	Enero	2023-01-14T00:00:00	2024-11-08T02:00:00	1	Precipitación	0
170824	7	Sololá	716	San Marcos la Laguna 	11	San Marcos la laguna 	1	Enero	2023-01-14T00:00:00	2024-11-08T02:00:00	8	Radiación solar	0
170825	7	Sololá	716	San Marcos la Laguna 	11	San Marcos la laguna 	1	Enero	2023-01-14T00:00:00	2024-11-08T03:00:00	2	Temperatura media	14.4
170826	7	Sololá	716	San Marcos la Laguna 	11	San Marcos la laguna 	1	Enero	2023-01-14T00:00:00	2024-11-08T03:00:00	4	Temperatura máxima	14.4
170827	7	Sololá	716	San Marcos la Laguna 	11	San Marcos la laguna 	1	Enero	2023-01-14T00:00:00	2024-11-08T03:00:00	3	Temperatura mínima	13.6
170828	7	Sololá	716	San Marcos la Laguna 	11	San Marcos la laguna 	1	Enero	2023-01-14T00:00:00	2024-11-08T03:00:00	5	Humedad	76
170829	7	Sololá	716	San Marcos la Laguna 	11	San Marcos la laguna 	1	Enero	2023-01-14T00:00:00	2024-11-08T03:00:00	6	Velocidad del viento	6.4
170830	7	Sololá	716	San Marcos la Laguna 	11	San Marcos la laguna 	1	Enero	2023-01-14T00:00:00	2024-11-08T03:00:00	7	Dirección del viento	6.44
170831	7	Sololá	716	San Marcos la Laguna 	11	San Marcos la laguna 	1	Enero	2023-01-14T00:00:00	2024-11-08T03:00:00	1	Precipitación	0
170832	7	Sololá	716	San Marcos la Laguna 	11	San Marcos la laguna 	1	Enero	2023-01-14T00:00:00	2024-11-08T03:00:00	8	Radiación solar	0
170833	7	Sololá	716	San Marcos la Laguna 	11	San Marcos la laguna 	1	Enero	2023-01-14T00:00:00	2024-11-08T04:00:00	2	Temperatura media	13.4
170834	7	Sololá	716	San Marcos la Laguna 	11	San Marcos la laguna 	1	Enero	2023-01-14T00:00:00	2024-11-08T04:00:00	4	Temperatura máxima	14.7
170835	7	Sololá	716	San Marcos la Laguna 	11	San Marcos la laguna 	1	Enero	2023-01-14T00:00:00	2024-11-08T04:00:00	3	Temperatura mínima	13.4
170836	7	Sololá	716	San Marcos la Laguna 	11	San Marcos la laguna 	1	Enero	2023-01-14T00:00:00	2024-11-08T04:00:00	5	Humedad	78
170837	7	Sololá	716	San Marcos la Laguna 	11	San Marcos la laguna 	1	Enero	2023-01-14T00:00:00	2024-11-08T04:00:00	6	Velocidad del viento	6.4
170838	7	Sololá	716	San Marcos la Laguna 	11	San Marcos la laguna 	1	Enero	2023-01-14T00:00:00	2024-11-08T04:00:00	7	Dirección del viento	6.44
170839	7	Sololá	716	San Marcos la Laguna 	11	San Marcos la laguna 	1	Enero	2023-01-14T00:00:00	2024-11-08T04:00:00	1	Precipitación	0
170840	7	Sololá	716	San Marcos la Laguna 	11	San Marcos la laguna 	1	Enero	2023-01-14T00:00:00	2024-11-08T04:00:00	8	Radiación solar	0
170841	7	Sololá	716	San Marcos la Laguna 	11	San Marcos la laguna 	1	Enero	2023-01-14T00:00:00	2024-11-08T05:00:00	2	Temperatura media	13.3
170842	7	Sololá	716	San Marcos la Laguna 	11	San Marcos la laguna 	1	Enero	2023-01-14T00:00:00	2024-11-08T05:00:00	4	Temperatura máxima	13.8
170843	7	Sololá	716	San Marcos la Laguna 	11	San Marcos la laguna 	1	Enero	2023-01-14T00:00:00	2024-11-08T05:00:00	3	Temperatura mínima	13.2
170844	7	Sololá	716	San Marcos la Laguna 	11	San Marcos la laguna 	1	Enero	2023-01-14T00:00:00	2024-11-08T05:00:00	5	Humedad	78
170845	7	Sololá	716	San Marcos la Laguna 	11	San Marcos la laguna 	1	Enero	2023-01-14T00:00:00	2024-11-08T05:00:00	6	Velocidad del viento	6.4
170846	7	Sololá	716	San Marcos la Laguna 	11	San Marcos la laguna 	1	Enero	2023-01-14T00:00:00	2024-11-08T05:00:00	7	Dirección del viento	6.44
170847	7	Sololá	716	San Marcos la Laguna 	11	San Marcos la laguna 	1	Enero	2023-01-14T00:00:00	2024-11-08T05:00:00	1	Precipitación	0
170848	7	Sololá	716	San Marcos la Laguna 	11	San Marcos la laguna 	1	Enero	2023-01-14T00:00:00	2024-11-08T05:00:00	8	Radiación solar	0
170849	7	Sololá	716	San Marcos la Laguna 	11	San Marcos la laguna 	1	Enero	2023-01-14T00:00:00	2024-11-08T06:00:00	2	Temperatura media	12.9
170850	7	Sololá	716	San Marcos la Laguna 	11	San Marcos la laguna 	1	Enero	2023-01-14T00:00:00	2024-11-08T06:00:00	4	Temperatura máxima	13.3
170851	7	Sololá	716	San Marcos la Laguna 	11	San Marcos la laguna 	1	Enero	2023-01-14T00:00:00	2024-11-08T06:00:00	3	Temperatura mínima	12.9
170852	7	Sololá	716	San Marcos la Laguna 	11	San Marcos la laguna 	1	Enero	2023-01-14T00:00:00	2024-11-08T06:00:00	5	Humedad	79
170853	7	Sololá	716	San Marcos la Laguna 	11	San Marcos la laguna 	1	Enero	2023-01-14T00:00:00	2024-11-08T06:00:00	6	Velocidad del viento	6.4
170854	7	Sololá	716	San Marcos la Laguna 	11	San Marcos la laguna 	1	Enero	2023-01-14T00:00:00	2024-11-08T06:00:00	7	Dirección del viento	6.44
170855	7	Sololá	716	San Marcos la Laguna 	11	San Marcos la laguna 	1	Enero	2023-01-14T00:00:00	2024-11-08T06:00:00	1	Precipitación	0
170856	7	Sololá	716	San Marcos la Laguna 	11	San Marcos la laguna 	1	Enero	2023-01-14T00:00:00	2024-11-08T06:00:00	8	Radiación solar	0
170857	7	Sololá	716	San Marcos la Laguna 	11	San Marcos la laguna 	1	Enero	2023-01-14T00:00:00	2024-11-08T07:00:00	2	Temperatura media	13.4
170858	7	Sololá	716	San Marcos la Laguna 	11	San Marcos la laguna 	1	Enero	2023-01-14T00:00:00	2024-11-08T07:00:00	4	Temperatura máxima	13.7
170859	7	Sololá	716	San Marcos la Laguna 	11	San Marcos la laguna 	1	Enero	2023-01-14T00:00:00	2024-11-08T07:00:00	3	Temperatura mínima	12.9
170860	7	Sololá	716	San Marcos la Laguna 	11	San Marcos la laguna 	1	Enero	2023-01-14T00:00:00	2024-11-08T07:00:00	5	Humedad	77
170861	7	Sololá	716	San Marcos la Laguna 	11	San Marcos la laguna 	1	Enero	2023-01-14T00:00:00	2024-11-08T07:00:00	6	Velocidad del viento	8
170862	7	Sololá	716	San Marcos la Laguna 	11	San Marcos la laguna 	1	Enero	2023-01-14T00:00:00	2024-11-08T07:00:00	7	Dirección del viento	8.05
170863	7	Sololá	716	San Marcos la Laguna 	11	San Marcos la laguna 	1	Enero	2023-01-14T00:00:00	2024-11-08T07:00:00	1	Precipitación	0
170864	7	Sololá	716	San Marcos la Laguna 	11	San Marcos la laguna 	1	Enero	2023-01-14T00:00:00	2024-11-08T07:00:00	8	Radiación solar	4
170865	7	Sololá	716	San Marcos la Laguna 	11	San Marcos la laguna 	1	Enero	2023-01-14T00:00:00	2024-11-08T08:00:00	2	Temperatura media	18.4
170866	7	Sololá	716	San Marcos la Laguna 	11	San Marcos la laguna 	1	Enero	2023-01-14T00:00:00	2024-11-08T08:00:00	4	Temperatura máxima	18.4
170867	7	Sololá	716	San Marcos la Laguna 	11	San Marcos la laguna 	1	Enero	2023-01-14T00:00:00	2024-11-08T08:00:00	3	Temperatura mínima	13.4
170868	7	Sololá	716	San Marcos la Laguna 	11	San Marcos la laguna 	1	Enero	2023-01-14T00:00:00	2024-11-08T08:00:00	5	Humedad	63
170869	7	Sololá	716	San Marcos la Laguna 	11	San Marcos la laguna 	1	Enero	2023-01-14T00:00:00	2024-11-08T08:00:00	6	Velocidad del viento	4.8
170870	7	Sololá	716	San Marcos la Laguna 	11	San Marcos la laguna 	1	Enero	2023-01-14T00:00:00	2024-11-08T08:00:00	7	Dirección del viento	4.83
170871	7	Sololá	716	San Marcos la Laguna 	11	San Marcos la laguna 	1	Enero	2023-01-14T00:00:00	2024-11-08T08:00:00	1	Precipitación	0
170872	7	Sololá	716	San Marcos la Laguna 	11	San Marcos la laguna 	1	Enero	2023-01-14T00:00:00	2024-11-08T08:00:00	8	Radiación solar	123
170873	7	Sololá	716	San Marcos la Laguna 	11	San Marcos la laguna 	1	Enero	2023-01-14T00:00:00	2024-11-08T09:00:00	2	Temperatura media	20.1
170874	7	Sololá	716	San Marcos la Laguna 	11	San Marcos la laguna 	1	Enero	2023-01-14T00:00:00	2024-11-08T09:00:00	4	Temperatura máxima	20.1
170875	7	Sololá	716	San Marcos la Laguna 	11	San Marcos la laguna 	1	Enero	2023-01-14T00:00:00	2024-11-08T09:00:00	3	Temperatura mínima	18.4
170876	7	Sololá	716	San Marcos la Laguna 	11	San Marcos la laguna 	1	Enero	2023-01-14T00:00:00	2024-11-08T09:00:00	5	Humedad	58
170877	7	Sololá	716	San Marcos la Laguna 	11	San Marcos la laguna 	1	Enero	2023-01-14T00:00:00	2024-11-08T09:00:00	6	Velocidad del viento	3.2
170878	7	Sololá	716	San Marcos la Laguna 	11	San Marcos la laguna 	1	Enero	2023-01-14T00:00:00	2024-11-08T09:00:00	7	Dirección del viento	3.22
170879	7	Sololá	716	San Marcos la Laguna 	11	San Marcos la laguna 	1	Enero	2023-01-14T00:00:00	2024-11-08T09:00:00	1	Precipitación	0
170880	7	Sololá	716	San Marcos la Laguna 	11	San Marcos la laguna 	1	Enero	2023-01-14T00:00:00	2024-11-08T09:00:00	8	Radiación solar	327
170881	7	Sololá	716	San Marcos la Laguna 	11	San Marcos la laguna 	1	Enero	2023-01-14T00:00:00	2024-11-08T10:00:00	2	Temperatura media	21.4
170882	7	Sololá	716	San Marcos la Laguna 	11	San Marcos la laguna 	1	Enero	2023-01-14T00:00:00	2024-11-08T10:00:00	4	Temperatura máxima	21.4
170883	7	Sololá	716	San Marcos la Laguna 	11	San Marcos la laguna 	1	Enero	2023-01-14T00:00:00	2024-11-08T10:00:00	3	Temperatura mínima	20.1
170884	7	Sololá	716	San Marcos la Laguna 	11	San Marcos la laguna 	1	Enero	2023-01-14T00:00:00	2024-11-08T10:00:00	5	Humedad	57
170885	7	Sololá	716	San Marcos la Laguna 	11	San Marcos la laguna 	1	Enero	2023-01-14T00:00:00	2024-11-08T10:00:00	6	Velocidad del viento	3.2
170886	7	Sololá	716	San Marcos la Laguna 	11	San Marcos la laguna 	1	Enero	2023-01-14T00:00:00	2024-11-08T10:00:00	7	Dirección del viento	3.22
170887	7	Sololá	716	San Marcos la Laguna 	11	San Marcos la laguna 	1	Enero	2023-01-14T00:00:00	2024-11-08T10:00:00	1	Precipitación	0
170888	7	Sololá	716	San Marcos la Laguna 	11	San Marcos la laguna 	1	Enero	2023-01-14T00:00:00	2024-11-08T10:00:00	8	Radiación solar	521
170889	7	Sololá	716	San Marcos la Laguna 	11	San Marcos la laguna 	1	Enero	2023-01-14T00:00:00	2024-11-08T11:00:00	2	Temperatura media	22.2
170890	7	Sololá	716	San Marcos la Laguna 	11	San Marcos la laguna 	1	Enero	2023-01-14T00:00:00	2024-11-08T11:00:00	4	Temperatura máxima	22.2
170891	7	Sololá	716	San Marcos la Laguna 	11	San Marcos la laguna 	1	Enero	2023-01-14T00:00:00	2024-11-08T11:00:00	3	Temperatura mínima	21.3
170892	7	Sololá	716	San Marcos la Laguna 	11	San Marcos la laguna 	1	Enero	2023-01-14T00:00:00	2024-11-08T11:00:00	5	Humedad	50
170893	7	Sololá	716	San Marcos la Laguna 	11	San Marcos la laguna 	1	Enero	2023-01-14T00:00:00	2024-11-08T11:00:00	6	Velocidad del viento	3.2
170894	7	Sololá	716	San Marcos la Laguna 	11	San Marcos la laguna 	1	Enero	2023-01-14T00:00:00	2024-11-08T11:00:00	7	Dirección del viento	3.22
170895	7	Sololá	716	San Marcos la Laguna 	11	San Marcos la laguna 	1	Enero	2023-01-14T00:00:00	2024-11-08T11:00:00	1	Precipitación	0
170896	7	Sololá	716	San Marcos la Laguna 	11	San Marcos la laguna 	1	Enero	2023-01-14T00:00:00	2024-11-08T11:00:00	8	Radiación solar	560
170897	7	Sololá	716	San Marcos la Laguna 	11	San Marcos la laguna 	1	Enero	2023-01-14T00:00:00	2024-11-08T12:00:00	2	Temperatura media	21.6
170898	7	Sololá	716	San Marcos la Laguna 	11	San Marcos la laguna 	1	Enero	2023-01-14T00:00:00	2024-11-08T12:00:00	4	Temperatura máxima	22.7
170899	7	Sololá	716	San Marcos la Laguna 	11	San Marcos la laguna 	1	Enero	2023-01-14T00:00:00	2024-11-08T12:00:00	3	Temperatura mínima	21.4
170900	7	Sololá	716	San Marcos la Laguna 	11	San Marcos la laguna 	1	Enero	2023-01-14T00:00:00	2024-11-08T12:00:00	5	Humedad	50
170901	7	Sololá	716	San Marcos la Laguna 	11	San Marcos la laguna 	1	Enero	2023-01-14T00:00:00	2024-11-08T12:00:00	6	Velocidad del viento	17.7
170902	7	Sololá	716	San Marcos la Laguna 	11	San Marcos la laguna 	1	Enero	2023-01-14T00:00:00	2024-11-08T12:00:00	7	Dirección del viento	17.7
170903	7	Sololá	716	San Marcos la Laguna 	11	San Marcos la laguna 	1	Enero	2023-01-14T00:00:00	2024-11-08T12:00:00	1	Precipitación	0
170904	7	Sololá	716	San Marcos la Laguna 	11	San Marcos la laguna 	1	Enero	2023-01-14T00:00:00	2024-11-08T12:00:00	8	Radiación solar	723
170905	7	Sololá	716	San Marcos la Laguna 	11	San Marcos la laguna 	1	Enero	2023-01-14T00:00:00	2024-11-08T13:00:00	2	Temperatura media	22.7
170906	7	Sololá	716	San Marcos la Laguna 	11	San Marcos la laguna 	1	Enero	2023-01-14T00:00:00	2024-11-08T13:00:00	4	Temperatura máxima	22.7
170907	7	Sololá	716	San Marcos la Laguna 	11	San Marcos la laguna 	1	Enero	2023-01-14T00:00:00	2024-11-08T13:00:00	3	Temperatura mínima	21.6
170908	7	Sololá	716	San Marcos la Laguna 	11	San Marcos la laguna 	1	Enero	2023-01-14T00:00:00	2024-11-08T13:00:00	5	Humedad	38
170909	7	Sololá	716	San Marcos la Laguna 	11	San Marcos la laguna 	1	Enero	2023-01-14T00:00:00	2024-11-08T13:00:00	6	Velocidad del viento	25.7
170910	7	Sololá	716	San Marcos la Laguna 	11	San Marcos la laguna 	1	Enero	2023-01-14T00:00:00	2024-11-08T13:00:00	7	Dirección del viento	25.75
170911	7	Sololá	716	San Marcos la Laguna 	11	San Marcos la laguna 	1	Enero	2023-01-14T00:00:00	2024-11-08T13:00:00	1	Precipitación	0
170912	7	Sololá	716	San Marcos la Laguna 	11	San Marcos la laguna 	1	Enero	2023-01-14T00:00:00	2024-11-08T13:00:00	8	Radiación solar	768
170913	7	Sololá	716	San Marcos la Laguna 	11	San Marcos la laguna 	1	Enero	2023-01-14T00:00:00	2024-11-08T14:00:00	2	Temperatura media	22.9
170914	7	Sololá	716	San Marcos la Laguna 	11	San Marcos la laguna 	1	Enero	2023-01-14T00:00:00	2024-11-08T14:00:00	4	Temperatura máxima	23.1
170915	7	Sololá	716	San Marcos la Laguna 	11	San Marcos la laguna 	1	Enero	2023-01-14T00:00:00	2024-11-08T14:00:00	3	Temperatura mínima	22.6
170916	7	Sololá	716	San Marcos la Laguna 	11	San Marcos la laguna 	1	Enero	2023-01-14T00:00:00	2024-11-08T14:00:00	5	Humedad	46
170917	7	Sololá	716	San Marcos la Laguna 	11	San Marcos la laguna 	1	Enero	2023-01-14T00:00:00	2024-11-08T14:00:00	6	Velocidad del viento	20.9
170918	7	Sololá	716	San Marcos la Laguna 	11	San Marcos la laguna 	1	Enero	2023-01-14T00:00:00	2024-11-08T14:00:00	7	Dirección del viento	20.92
170919	7	Sololá	716	San Marcos la Laguna 	11	San Marcos la laguna 	1	Enero	2023-01-14T00:00:00	2024-11-08T14:00:00	1	Precipitación	0
170920	7	Sololá	716	San Marcos la Laguna 	11	San Marcos la laguna 	1	Enero	2023-01-14T00:00:00	2024-11-08T14:00:00	8	Radiación solar	720
170921	7	Sololá	716	San Marcos la Laguna 	11	San Marcos la laguna 	1	Enero	2023-01-14T00:00:00	2024-11-08T15:00:00	2	Temperatura media	22.4
170922	7	Sololá	716	San Marcos la Laguna 	11	San Marcos la laguna 	1	Enero	2023-01-14T00:00:00	2024-11-08T15:00:00	4	Temperatura máxima	22.9
170923	7	Sololá	716	San Marcos la Laguna 	11	San Marcos la laguna 	1	Enero	2023-01-14T00:00:00	2024-11-08T15:00:00	3	Temperatura mínima	22.1
170924	7	Sololá	716	San Marcos la Laguna 	11	San Marcos la laguna 	1	Enero	2023-01-14T00:00:00	2024-11-08T15:00:00	5	Humedad	67
170925	7	Sololá	716	San Marcos la Laguna 	11	San Marcos la laguna 	1	Enero	2023-01-14T00:00:00	2024-11-08T15:00:00	6	Velocidad del viento	11.3
170926	7	Sololá	716	San Marcos la Laguna 	11	San Marcos la laguna 	1	Enero	2023-01-14T00:00:00	2024-11-08T15:00:00	7	Dirección del viento	11.27
170927	7	Sololá	716	San Marcos la Laguna 	11	San Marcos la laguna 	1	Enero	2023-01-14T00:00:00	2024-11-08T15:00:00	1	Precipitación	0
170928	7	Sololá	716	San Marcos la Laguna 	11	San Marcos la laguna 	1	Enero	2023-01-14T00:00:00	2024-11-08T15:00:00	8	Radiación solar	605
170929	7	Sololá	716	San Marcos la Laguna 	11	San Marcos la laguna 	1	Enero	2023-01-14T00:00:00	2024-11-08T16:00:00	2	Temperatura media	21.6
170930	7	Sololá	716	San Marcos la Laguna 	11	San Marcos la laguna 	1	Enero	2023-01-14T00:00:00	2024-11-08T16:00:00	4	Temperatura máxima	22.4
170931	7	Sololá	716	San Marcos la Laguna 	11	San Marcos la laguna 	1	Enero	2023-01-14T00:00:00	2024-11-08T16:00:00	3	Temperatura mínima	21.6
170932	7	Sololá	716	San Marcos la Laguna 	11	San Marcos la laguna 	1	Enero	2023-01-14T00:00:00	2024-11-08T16:00:00	5	Humedad	67
170933	7	Sololá	716	San Marcos la Laguna 	11	San Marcos la laguna 	1	Enero	2023-01-14T00:00:00	2024-11-08T16:00:00	6	Velocidad del viento	8
170934	7	Sololá	716	San Marcos la Laguna 	11	San Marcos la laguna 	1	Enero	2023-01-14T00:00:00	2024-11-08T16:00:00	7	Dirección del viento	8.05
170935	7	Sololá	716	San Marcos la Laguna 	11	San Marcos la laguna 	1	Enero	2023-01-14T00:00:00	2024-11-08T16:00:00	1	Precipitación	0
170936	7	Sololá	716	San Marcos la Laguna 	11	San Marcos la laguna 	1	Enero	2023-01-14T00:00:00	2024-11-08T16:00:00	8	Radiación solar	452
170937	7	Sololá	716	San Marcos la Laguna 	11	San Marcos la laguna 	1	Enero	2023-01-14T00:00:00	2024-11-08T17:00:00	2	Temperatura media	20.7
170938	7	Sololá	716	San Marcos la Laguna 	11	San Marcos la laguna 	1	Enero	2023-01-14T00:00:00	2024-11-08T17:00:00	4	Temperatura máxima	21.6
170939	7	Sololá	716	San Marcos la Laguna 	11	San Marcos la laguna 	1	Enero	2023-01-14T00:00:00	2024-11-08T17:00:00	3	Temperatura mínima	20.7
170940	7	Sololá	716	San Marcos la Laguna 	11	San Marcos la laguna 	1	Enero	2023-01-14T00:00:00	2024-11-08T17:00:00	5	Humedad	72
170941	7	Sololá	716	San Marcos la Laguna 	11	San Marcos la laguna 	1	Enero	2023-01-14T00:00:00	2024-11-08T17:00:00	6	Velocidad del viento	8
170942	7	Sololá	716	San Marcos la Laguna 	11	San Marcos la laguna 	1	Enero	2023-01-14T00:00:00	2024-11-08T17:00:00	7	Dirección del viento	8.05
170943	7	Sololá	716	San Marcos la Laguna 	11	San Marcos la laguna 	1	Enero	2023-01-14T00:00:00	2024-11-08T17:00:00	1	Precipitación	0
170944	7	Sololá	716	San Marcos la Laguna 	11	San Marcos la laguna 	1	Enero	2023-01-14T00:00:00	2024-11-08T17:00:00	8	Radiación solar	233
170945	7	Sololá	716	San Marcos la Laguna 	11	San Marcos la laguna 	1	Enero	2023-01-14T00:00:00	2024-11-08T18:00:00	2	Temperatura media	19.8
170946	7	Sololá	716	San Marcos la Laguna 	11	San Marcos la laguna 	1	Enero	2023-01-14T00:00:00	2024-11-08T18:00:00	4	Temperatura máxima	20.7
170947	7	Sololá	716	San Marcos la Laguna 	11	San Marcos la laguna 	1	Enero	2023-01-14T00:00:00	2024-11-08T18:00:00	3	Temperatura mínima	19.7
170948	7	Sololá	716	San Marcos la Laguna 	11	San Marcos la laguna 	1	Enero	2023-01-14T00:00:00	2024-11-08T18:00:00	5	Humedad	76
170949	7	Sololá	716	San Marcos la Laguna 	11	San Marcos la laguna 	1	Enero	2023-01-14T00:00:00	2024-11-08T18:00:00	6	Velocidad del viento	6.4
170950	7	Sololá	716	San Marcos la Laguna 	11	San Marcos la laguna 	1	Enero	2023-01-14T00:00:00	2024-11-08T18:00:00	7	Dirección del viento	6.44
170951	7	Sololá	716	San Marcos la Laguna 	11	San Marcos la laguna 	1	Enero	2023-01-14T00:00:00	2024-11-08T18:00:00	1	Precipitación	0
170952	7	Sololá	716	San Marcos la Laguna 	11	San Marcos la laguna 	1	Enero	2023-01-14T00:00:00	2024-11-08T18:00:00	8	Radiación solar	36
170953	7	Sololá	716	San Marcos la Laguna 	11	San Marcos la laguna 	1	Enero	2023-01-14T00:00:00	2024-11-08T19:00:00	2	Temperatura media	18.1
170954	7	Sololá	716	San Marcos la Laguna 	11	San Marcos la laguna 	1	Enero	2023-01-14T00:00:00	2024-11-08T19:00:00	4	Temperatura máxima	19.7
170955	7	Sololá	716	San Marcos la Laguna 	11	San Marcos la laguna 	1	Enero	2023-01-14T00:00:00	2024-11-08T19:00:00	3	Temperatura mínima	17.9
170956	7	Sololá	716	San Marcos la Laguna 	11	San Marcos la laguna 	1	Enero	2023-01-14T00:00:00	2024-11-08T19:00:00	5	Humedad	58
170957	7	Sololá	716	San Marcos la Laguna 	11	San Marcos la laguna 	1	Enero	2023-01-14T00:00:00	2024-11-08T19:00:00	6	Velocidad del viento	6.4
170958	7	Sololá	716	San Marcos la Laguna 	11	San Marcos la laguna 	1	Enero	2023-01-14T00:00:00	2024-11-08T19:00:00	7	Dirección del viento	6.44
170959	7	Sololá	716	San Marcos la Laguna 	11	San Marcos la laguna 	1	Enero	2023-01-14T00:00:00	2024-11-08T19:00:00	1	Precipitación	0
170960	7	Sololá	716	San Marcos la Laguna 	11	San Marcos la laguna 	1	Enero	2023-01-14T00:00:00	2024-11-08T19:00:00	8	Radiación solar	0
170961	7	Sololá	716	San Marcos la Laguna 	11	San Marcos la laguna 	1	Enero	2023-01-14T00:00:00	2024-11-08T20:00:00	2	Temperatura media	16.6
170962	7	Sololá	716	San Marcos la Laguna 	11	San Marcos la laguna 	1	Enero	2023-01-14T00:00:00	2024-11-08T20:00:00	4	Temperatura máxima	18.2
170963	7	Sololá	716	San Marcos la Laguna 	11	San Marcos la laguna 	1	Enero	2023-01-14T00:00:00	2024-11-08T20:00:00	3	Temperatura mínima	16.6
170964	7	Sololá	716	San Marcos la Laguna 	11	San Marcos la laguna 	1	Enero	2023-01-14T00:00:00	2024-11-08T20:00:00	5	Humedad	59
170965	7	Sololá	716	San Marcos la Laguna 	11	San Marcos la laguna 	1	Enero	2023-01-14T00:00:00	2024-11-08T20:00:00	6	Velocidad del viento	8
170966	7	Sololá	716	San Marcos la Laguna 	11	San Marcos la laguna 	1	Enero	2023-01-14T00:00:00	2024-11-08T20:00:00	7	Dirección del viento	8.05
170967	7	Sololá	716	San Marcos la Laguna 	11	San Marcos la laguna 	1	Enero	2023-01-14T00:00:00	2024-11-08T20:00:00	1	Precipitación	0
170968	7	Sololá	716	San Marcos la Laguna 	11	San Marcos la laguna 	1	Enero	2023-01-14T00:00:00	2024-11-08T20:00:00	8	Radiación solar	0
170969	7	Sololá	716	San Marcos la Laguna 	11	San Marcos la laguna 	1	Enero	2023-01-14T00:00:00	2024-11-08T21:00:00	2	Temperatura media	14.8
170970	7	Sololá	716	San Marcos la Laguna 	11	San Marcos la laguna 	1	Enero	2023-01-14T00:00:00	2024-11-08T21:00:00	4	Temperatura máxima	17.1
170971	7	Sololá	716	San Marcos la Laguna 	11	San Marcos la laguna 	1	Enero	2023-01-14T00:00:00	2024-11-08T21:00:00	3	Temperatura mínima	14.8
170972	7	Sololá	716	San Marcos la Laguna 	11	San Marcos la laguna 	1	Enero	2023-01-14T00:00:00	2024-11-08T21:00:00	5	Humedad	63
170973	7	Sololá	716	San Marcos la Laguna 	11	San Marcos la laguna 	1	Enero	2023-01-14T00:00:00	2024-11-08T21:00:00	6	Velocidad del viento	8
170974	7	Sololá	716	San Marcos la Laguna 	11	San Marcos la laguna 	1	Enero	2023-01-14T00:00:00	2024-11-08T21:00:00	7	Dirección del viento	8.05
170975	7	Sololá	716	San Marcos la Laguna 	11	San Marcos la laguna 	1	Enero	2023-01-14T00:00:00	2024-11-08T21:00:00	1	Precipitación	0
170976	7	Sololá	716	San Marcos la Laguna 	11	San Marcos la laguna 	1	Enero	2023-01-14T00:00:00	2024-11-08T21:00:00	8	Radiación solar	0
170977	7	Sololá	716	San Marcos la Laguna 	11	San Marcos la laguna 	1	Enero	2023-01-14T00:00:00	2024-11-08T22:00:00	2	Temperatura media	14.4
170978	7	Sololá	716	San Marcos la Laguna 	11	San Marcos la laguna 	1	Enero	2023-01-14T00:00:00	2024-11-08T22:00:00	4	Temperatura máxima	15.1
170979	7	Sololá	716	San Marcos la Laguna 	11	San Marcos la laguna 	1	Enero	2023-01-14T00:00:00	2024-11-08T22:00:00	3	Temperatura mínima	14.4
170980	7	Sololá	716	San Marcos la Laguna 	11	San Marcos la laguna 	1	Enero	2023-01-14T00:00:00	2024-11-08T22:00:00	5	Humedad	67
170981	7	Sololá	716	San Marcos la Laguna 	11	San Marcos la laguna 	1	Enero	2023-01-14T00:00:00	2024-11-08T22:00:00	6	Velocidad del viento	8
170982	7	Sololá	716	San Marcos la Laguna 	11	San Marcos la laguna 	1	Enero	2023-01-14T00:00:00	2024-11-08T22:00:00	7	Dirección del viento	8.05
170983	7	Sololá	716	San Marcos la Laguna 	11	San Marcos la laguna 	1	Enero	2023-01-14T00:00:00	2024-11-08T22:00:00	1	Precipitación	0
170984	7	Sololá	716	San Marcos la Laguna 	11	San Marcos la laguna 	1	Enero	2023-01-14T00:00:00	2024-11-08T22:00:00	8	Radiación solar	0
170985	7	Sololá	716	San Marcos la Laguna 	11	San Marcos la laguna 	1	Enero	2023-01-14T00:00:00	2024-11-08T23:00:00	2	Temperatura media	13.1
170986	7	Sololá	716	San Marcos la Laguna 	11	San Marcos la laguna 	1	Enero	2023-01-14T00:00:00	2024-11-08T23:00:00	4	Temperatura máxima	14.6
170987	7	Sololá	716	San Marcos la Laguna 	11	San Marcos la laguna 	1	Enero	2023-01-14T00:00:00	2024-11-08T23:00:00	3	Temperatura mínima	13.1
170988	7	Sololá	716	San Marcos la Laguna 	11	San Marcos la laguna 	1	Enero	2023-01-14T00:00:00	2024-11-08T23:00:00	5	Humedad	72
170989	7	Sololá	716	San Marcos la Laguna 	11	San Marcos la laguna 	1	Enero	2023-01-14T00:00:00	2024-11-08T23:00:00	6	Velocidad del viento	8
170990	7	Sololá	716	San Marcos la Laguna 	11	San Marcos la laguna 	1	Enero	2023-01-14T00:00:00	2024-11-08T23:00:00	7	Dirección del viento	8.05
170991	7	Sololá	716	San Marcos la Laguna 	11	San Marcos la laguna 	1	Enero	2023-01-14T00:00:00	2024-11-08T23:00:00	1	Precipitación	0
170992	7	Sololá	716	San Marcos la Laguna 	11	San Marcos la laguna 	1	Enero	2023-01-14T00:00:00	2024-11-08T23:00:00	8	Radiación solar	0
170993	7	Sololá	716	San Marcos la Laguna 	11	San Marcos la laguna 	1	Enero	2023-01-15T00:00:00	2024-11-08T00:00:00	2	Temperatura media	12.4
170994	7	Sololá	716	San Marcos la Laguna 	11	San Marcos la laguna 	1	Enero	2023-01-15T00:00:00	2024-11-08T00:00:00	4	Temperatura máxima	13.5
170995	7	Sololá	716	San Marcos la Laguna 	11	San Marcos la laguna 	1	Enero	2023-01-15T00:00:00	2024-11-08T00:00:00	3	Temperatura mínima	12.4
170996	7	Sololá	716	San Marcos la Laguna 	11	San Marcos la laguna 	1	Enero	2023-01-15T00:00:00	2024-11-08T00:00:00	5	Humedad	69
170997	7	Sololá	716	San Marcos la Laguna 	11	San Marcos la laguna 	1	Enero	2023-01-15T00:00:00	2024-11-08T00:00:00	6	Velocidad del viento	8
170998	7	Sololá	716	San Marcos la Laguna 	11	San Marcos la laguna 	1	Enero	2023-01-15T00:00:00	2024-11-08T00:00:00	7	Dirección del viento	8.05
170999	7	Sololá	716	San Marcos la Laguna 	11	San Marcos la laguna 	1	Enero	2023-01-15T00:00:00	2024-11-08T00:00:00	1	Precipitación	0
171000	7	Sololá	716	San Marcos la Laguna 	11	San Marcos la laguna 	1	Enero	2023-01-15T00:00:00	2024-11-08T00:00:00	8	Radiación solar	0
171001	7	Sololá	716	San Marcos la Laguna 	11	San Marcos la laguna 	1	Enero	2023-01-15T00:00:00	2024-11-08T01:00:00	2	Temperatura media	11.7
171002	7	Sololá	716	San Marcos la Laguna 	11	San Marcos la laguna 	1	Enero	2023-01-15T00:00:00	2024-11-08T01:00:00	4	Temperatura máxima	12.4
171003	7	Sololá	716	San Marcos la Laguna 	11	San Marcos la laguna 	1	Enero	2023-01-15T00:00:00	2024-11-08T01:00:00	3	Temperatura mínima	11.7
171004	7	Sololá	716	San Marcos la Laguna 	11	San Marcos la laguna 	1	Enero	2023-01-15T00:00:00	2024-11-08T01:00:00	5	Humedad	68
171005	7	Sololá	716	San Marcos la Laguna 	11	San Marcos la laguna 	1	Enero	2023-01-15T00:00:00	2024-11-08T01:00:00	6	Velocidad del viento	8
171006	7	Sololá	716	San Marcos la Laguna 	11	San Marcos la laguna 	1	Enero	2023-01-15T00:00:00	2024-11-08T01:00:00	7	Dirección del viento	8.05
171007	7	Sololá	716	San Marcos la Laguna 	11	San Marcos la laguna 	1	Enero	2023-01-15T00:00:00	2024-11-08T01:00:00	1	Precipitación	0
171008	7	Sololá	716	San Marcos la Laguna 	11	San Marcos la laguna 	1	Enero	2023-01-15T00:00:00	2024-11-08T01:00:00	8	Radiación solar	0
171009	7	Sololá	716	San Marcos la Laguna 	11	San Marcos la laguna 	1	Enero	2023-01-15T00:00:00	2024-11-08T02:00:00	2	Temperatura media	11.3
171010	7	Sololá	716	San Marcos la Laguna 	11	San Marcos la laguna 	1	Enero	2023-01-15T00:00:00	2024-11-08T02:00:00	4	Temperatura máxima	11.7
171011	7	Sololá	716	San Marcos la Laguna 	11	San Marcos la laguna 	1	Enero	2023-01-15T00:00:00	2024-11-08T02:00:00	3	Temperatura mínima	11.3
171012	7	Sololá	716	San Marcos la Laguna 	11	San Marcos la laguna 	1	Enero	2023-01-15T00:00:00	2024-11-08T02:00:00	5	Humedad	70
171013	7	Sololá	716	San Marcos la Laguna 	11	San Marcos la laguna 	1	Enero	2023-01-15T00:00:00	2024-11-08T02:00:00	6	Velocidad del viento	6.4
171014	7	Sololá	716	San Marcos la Laguna 	11	San Marcos la laguna 	1	Enero	2023-01-15T00:00:00	2024-11-08T02:00:00	7	Dirección del viento	6.44
171015	7	Sololá	716	San Marcos la Laguna 	11	San Marcos la laguna 	1	Enero	2023-01-15T00:00:00	2024-11-08T02:00:00	1	Precipitación	0
171016	7	Sololá	716	San Marcos la Laguna 	11	San Marcos la laguna 	1	Enero	2023-01-15T00:00:00	2024-11-08T02:00:00	8	Radiación solar	0
171017	7	Sololá	716	San Marcos la Laguna 	11	San Marcos la laguna 	1	Enero	2023-01-15T00:00:00	2024-11-08T03:00:00	2	Temperatura media	11.2
171018	7	Sololá	716	San Marcos la Laguna 	11	San Marcos la laguna 	1	Enero	2023-01-15T00:00:00	2024-11-08T03:00:00	4	Temperatura máxima	11.5
171019	7	Sololá	716	San Marcos la Laguna 	11	San Marcos la laguna 	1	Enero	2023-01-15T00:00:00	2024-11-08T03:00:00	3	Temperatura mínima	11
171020	7	Sololá	716	San Marcos la Laguna 	11	San Marcos la laguna 	1	Enero	2023-01-15T00:00:00	2024-11-08T03:00:00	5	Humedad	72
171021	7	Sololá	716	San Marcos la Laguna 	11	San Marcos la laguna 	1	Enero	2023-01-15T00:00:00	2024-11-08T03:00:00	6	Velocidad del viento	8
171022	7	Sololá	716	San Marcos la Laguna 	11	San Marcos la laguna 	1	Enero	2023-01-15T00:00:00	2024-11-08T03:00:00	7	Dirección del viento	8.05
171023	7	Sololá	716	San Marcos la Laguna 	11	San Marcos la laguna 	1	Enero	2023-01-15T00:00:00	2024-11-08T03:00:00	1	Precipitación	0
171024	7	Sololá	716	San Marcos la Laguna 	11	San Marcos la laguna 	1	Enero	2023-01-15T00:00:00	2024-11-08T03:00:00	8	Radiación solar	0
171025	7	Sololá	716	San Marcos la Laguna 	11	San Marcos la laguna 	1	Enero	2023-01-15T00:00:00	2024-11-08T04:00:00	2	Temperatura media	11
171026	7	Sololá	716	San Marcos la Laguna 	11	San Marcos la laguna 	1	Enero	2023-01-15T00:00:00	2024-11-08T04:00:00	4	Temperatura máxima	11.3
171027	7	Sololá	716	San Marcos la Laguna 	11	San Marcos la laguna 	1	Enero	2023-01-15T00:00:00	2024-11-08T04:00:00	3	Temperatura mínima	10.8
171028	7	Sololá	716	San Marcos la Laguna 	11	San Marcos la laguna 	1	Enero	2023-01-15T00:00:00	2024-11-08T04:00:00	5	Humedad	70
171029	7	Sololá	716	San Marcos la Laguna 	11	San Marcos la laguna 	1	Enero	2023-01-15T00:00:00	2024-11-08T04:00:00	6	Velocidad del viento	8
171030	7	Sololá	716	San Marcos la Laguna 	11	San Marcos la laguna 	1	Enero	2023-01-15T00:00:00	2024-11-08T04:00:00	7	Dirección del viento	8.05
171031	7	Sololá	716	San Marcos la Laguna 	11	San Marcos la laguna 	1	Enero	2023-01-15T00:00:00	2024-11-08T04:00:00	1	Precipitación	0
171032	7	Sololá	716	San Marcos la Laguna 	11	San Marcos la laguna 	1	Enero	2023-01-15T00:00:00	2024-11-08T04:00:00	8	Radiación solar	0
171033	7	Sololá	716	San Marcos la Laguna 	11	San Marcos la laguna 	1	Enero	2023-01-15T00:00:00	2024-11-08T05:00:00	2	Temperatura media	10.3
171034	7	Sololá	716	San Marcos la Laguna 	11	San Marcos la laguna 	1	Enero	2023-01-15T00:00:00	2024-11-08T05:00:00	4	Temperatura máxima	11.1
171035	7	Sololá	716	San Marcos la Laguna 	11	San Marcos la laguna 	1	Enero	2023-01-15T00:00:00	2024-11-08T05:00:00	3	Temperatura mínima	10.3
171036	7	Sololá	716	San Marcos la Laguna 	11	San Marcos la laguna 	1	Enero	2023-01-15T00:00:00	2024-11-08T05:00:00	5	Humedad	70
171037	7	Sololá	716	San Marcos la Laguna 	11	San Marcos la laguna 	1	Enero	2023-01-15T00:00:00	2024-11-08T05:00:00	6	Velocidad del viento	8
171038	7	Sololá	716	San Marcos la Laguna 	11	San Marcos la laguna 	1	Enero	2023-01-15T00:00:00	2024-11-08T05:00:00	7	Dirección del viento	8.05
171039	7	Sololá	716	San Marcos la Laguna 	11	San Marcos la laguna 	1	Enero	2023-01-15T00:00:00	2024-11-08T05:00:00	1	Precipitación	0
171040	7	Sololá	716	San Marcos la Laguna 	11	San Marcos la laguna 	1	Enero	2023-01-15T00:00:00	2024-11-08T05:00:00	8	Radiación solar	0
171041	7	Sololá	716	San Marcos la Laguna 	11	San Marcos la laguna 	1	Enero	2023-01-15T00:00:00	2024-11-08T06:00:00	2	Temperatura media	10.8
171042	7	Sololá	716	San Marcos la Laguna 	11	San Marcos la laguna 	1	Enero	2023-01-15T00:00:00	2024-11-08T06:00:00	4	Temperatura máxima	11.1
171043	7	Sololá	716	San Marcos la Laguna 	11	San Marcos la laguna 	1	Enero	2023-01-15T00:00:00	2024-11-08T06:00:00	3	Temperatura mínima	10.3
171044	7	Sololá	716	San Marcos la Laguna 	11	San Marcos la laguna 	1	Enero	2023-01-15T00:00:00	2024-11-08T06:00:00	5	Humedad	68
171045	7	Sololá	716	San Marcos la Laguna 	11	San Marcos la laguna 	1	Enero	2023-01-15T00:00:00	2024-11-08T06:00:00	6	Velocidad del viento	6.4
171046	7	Sololá	716	San Marcos la Laguna 	11	San Marcos la laguna 	1	Enero	2023-01-15T00:00:00	2024-11-08T06:00:00	7	Dirección del viento	6.44
171047	7	Sololá	716	San Marcos la Laguna 	11	San Marcos la laguna 	1	Enero	2023-01-15T00:00:00	2024-11-08T06:00:00	1	Precipitación	0
171048	7	Sololá	716	San Marcos la Laguna 	11	San Marcos la laguna 	1	Enero	2023-01-15T00:00:00	2024-11-08T06:00:00	8	Radiación solar	0
171049	7	Sololá	716	San Marcos la Laguna 	11	San Marcos la laguna 	1	Enero	2023-01-15T00:00:00	2024-11-08T07:00:00	2	Temperatura media	10.4
171050	7	Sololá	716	San Marcos la Laguna 	11	San Marcos la laguna 	1	Enero	2023-01-15T00:00:00	2024-11-08T07:00:00	4	Temperatura máxima	10.8
171051	7	Sololá	716	San Marcos la Laguna 	11	San Marcos la laguna 	1	Enero	2023-01-15T00:00:00	2024-11-08T07:00:00	3	Temperatura mínima	9.9
171052	7	Sololá	716	San Marcos la Laguna 	11	San Marcos la laguna 	1	Enero	2023-01-15T00:00:00	2024-11-08T07:00:00	5	Humedad	69
171053	7	Sololá	716	San Marcos la Laguna 	11	San Marcos la laguna 	1	Enero	2023-01-15T00:00:00	2024-11-08T07:00:00	6	Velocidad del viento	6.4
171054	7	Sololá	716	San Marcos la Laguna 	11	San Marcos la laguna 	1	Enero	2023-01-15T00:00:00	2024-11-08T07:00:00	7	Dirección del viento	6.44
171055	7	Sololá	716	San Marcos la Laguna 	11	San Marcos la laguna 	1	Enero	2023-01-15T00:00:00	2024-11-08T07:00:00	1	Precipitación	0
171056	7	Sololá	716	San Marcos la Laguna 	11	San Marcos la laguna 	1	Enero	2023-01-15T00:00:00	2024-11-08T07:00:00	8	Radiación solar	4
171057	7	Sololá	716	San Marcos la Laguna 	11	San Marcos la laguna 	1	Enero	2023-01-15T00:00:00	2024-11-08T08:00:00	2	Temperatura media	14.3
171058	7	Sololá	716	San Marcos la Laguna 	11	San Marcos la laguna 	1	Enero	2023-01-15T00:00:00	2024-11-08T08:00:00	4	Temperatura máxima	14.3
171059	7	Sololá	716	San Marcos la Laguna 	11	San Marcos la laguna 	1	Enero	2023-01-15T00:00:00	2024-11-08T08:00:00	3	Temperatura mínima	10.4
171060	7	Sololá	716	San Marcos la Laguna 	11	San Marcos la laguna 	1	Enero	2023-01-15T00:00:00	2024-11-08T08:00:00	5	Humedad	66
171061	7	Sololá	716	San Marcos la Laguna 	11	San Marcos la laguna 	1	Enero	2023-01-15T00:00:00	2024-11-08T08:00:00	6	Velocidad del viento	3.2
171062	7	Sololá	716	San Marcos la Laguna 	11	San Marcos la laguna 	1	Enero	2023-01-15T00:00:00	2024-11-08T08:00:00	7	Dirección del viento	3.22
171063	7	Sololá	716	San Marcos la Laguna 	11	San Marcos la laguna 	1	Enero	2023-01-15T00:00:00	2024-11-08T08:00:00	1	Precipitación	0
171064	7	Sololá	716	San Marcos la Laguna 	11	San Marcos la laguna 	1	Enero	2023-01-15T00:00:00	2024-11-08T08:00:00	8	Radiación solar	122
171065	7	Sololá	716	San Marcos la Laguna 	11	San Marcos la laguna 	1	Enero	2023-01-15T00:00:00	2024-11-08T09:00:00	2	Temperatura media	17.2
171066	7	Sololá	716	San Marcos la Laguna 	11	San Marcos la laguna 	1	Enero	2023-01-15T00:00:00	2024-11-08T09:00:00	4	Temperatura máxima	17.2
171067	7	Sololá	716	San Marcos la Laguna 	11	San Marcos la laguna 	1	Enero	2023-01-15T00:00:00	2024-11-08T09:00:00	3	Temperatura mínima	14.3
171068	7	Sololá	716	San Marcos la Laguna 	11	San Marcos la laguna 	1	Enero	2023-01-15T00:00:00	2024-11-08T09:00:00	5	Humedad	60
171069	7	Sololá	716	San Marcos la Laguna 	11	San Marcos la laguna 	1	Enero	2023-01-15T00:00:00	2024-11-08T09:00:00	6	Velocidad del viento	3.2
171070	7	Sololá	716	San Marcos la Laguna 	11	San Marcos la laguna 	1	Enero	2023-01-15T00:00:00	2024-11-08T09:00:00	7	Dirección del viento	3.22
171071	7	Sololá	716	San Marcos la Laguna 	11	San Marcos la laguna 	1	Enero	2023-01-15T00:00:00	2024-11-08T09:00:00	1	Precipitación	0
171072	7	Sololá	716	San Marcos la Laguna 	11	San Marcos la laguna 	1	Enero	2023-01-15T00:00:00	2024-11-08T09:00:00	8	Radiación solar	332
171073	7	Sololá	716	San Marcos la Laguna 	11	San Marcos la laguna 	1	Enero	2023-01-15T00:00:00	2024-11-08T10:00:00	2	Temperatura media	18.1
171074	7	Sololá	716	San Marcos la Laguna 	11	San Marcos la laguna 	1	Enero	2023-01-15T00:00:00	2024-11-08T10:00:00	4	Temperatura máxima	18.1
171075	7	Sololá	716	San Marcos la Laguna 	11	San Marcos la laguna 	1	Enero	2023-01-15T00:00:00	2024-11-08T10:00:00	3	Temperatura mínima	17.2
171076	7	Sololá	716	San Marcos la Laguna 	11	San Marcos la laguna 	1	Enero	2023-01-15T00:00:00	2024-11-08T10:00:00	5	Humedad	62
171077	7	Sololá	716	San Marcos la Laguna 	11	San Marcos la laguna 	1	Enero	2023-01-15T00:00:00	2024-11-08T10:00:00	6	Velocidad del viento	4.8
171078	7	Sololá	716	San Marcos la Laguna 	11	San Marcos la laguna 	1	Enero	2023-01-15T00:00:00	2024-11-08T10:00:00	7	Dirección del viento	4.83
171079	7	Sololá	716	San Marcos la Laguna 	11	San Marcos la laguna 	1	Enero	2023-01-15T00:00:00	2024-11-08T10:00:00	1	Precipitación	0
171080	7	Sololá	716	San Marcos la Laguna 	11	San Marcos la laguna 	1	Enero	2023-01-15T00:00:00	2024-11-08T10:00:00	8	Radiación solar	527
171081	7	Sololá	716	San Marcos la Laguna 	11	San Marcos la laguna 	1	Enero	2023-01-15T00:00:00	2024-11-08T11:00:00	2	Temperatura media	19.2
171082	7	Sololá	716	San Marcos la Laguna 	11	San Marcos la laguna 	1	Enero	2023-01-15T00:00:00	2024-11-08T11:00:00	4	Temperatura máxima	19.2
171083	7	Sololá	716	San Marcos la Laguna 	11	San Marcos la laguna 	1	Enero	2023-01-15T00:00:00	2024-11-08T11:00:00	3	Temperatura mínima	18.1
171084	7	Sololá	716	San Marcos la Laguna 	11	San Marcos la laguna 	1	Enero	2023-01-15T00:00:00	2024-11-08T11:00:00	5	Humedad	59
171085	7	Sololá	716	San Marcos la Laguna 	11	San Marcos la laguna 	1	Enero	2023-01-15T00:00:00	2024-11-08T11:00:00	6	Velocidad del viento	4.8
171086	7	Sololá	716	San Marcos la Laguna 	11	San Marcos la laguna 	1	Enero	2023-01-15T00:00:00	2024-11-08T11:00:00	7	Dirección del viento	4.83
171087	7	Sololá	716	San Marcos la Laguna 	11	San Marcos la laguna 	1	Enero	2023-01-15T00:00:00	2024-11-08T11:00:00	1	Precipitación	0
171088	7	Sololá	716	San Marcos la Laguna 	11	San Marcos la laguna 	1	Enero	2023-01-15T00:00:00	2024-11-08T11:00:00	8	Radiación solar	566
171089	7	Sololá	716	San Marcos la Laguna 	11	San Marcos la laguna 	1	Enero	2023-01-15T00:00:00	2024-11-08T12:00:00	2	Temperatura media	20.4
171090	7	Sololá	716	San Marcos la Laguna 	11	San Marcos la laguna 	1	Enero	2023-01-15T00:00:00	2024-11-08T12:00:00	4	Temperatura máxima	20.4
171091	7	Sololá	716	San Marcos la Laguna 	11	San Marcos la laguna 	1	Enero	2023-01-15T00:00:00	2024-11-08T12:00:00	3	Temperatura mínima	18.8
171092	7	Sololá	716	San Marcos la Laguna 	11	San Marcos la laguna 	1	Enero	2023-01-15T00:00:00	2024-11-08T12:00:00	5	Humedad	55
171093	7	Sololá	716	San Marcos la Laguna 	11	San Marcos la laguna 	1	Enero	2023-01-15T00:00:00	2024-11-08T12:00:00	6	Velocidad del viento	8
171094	7	Sololá	716	San Marcos la Laguna 	11	San Marcos la laguna 	1	Enero	2023-01-15T00:00:00	2024-11-08T12:00:00	7	Dirección del viento	8.05
171095	7	Sololá	716	San Marcos la Laguna 	11	San Marcos la laguna 	1	Enero	2023-01-15T00:00:00	2024-11-08T12:00:00	1	Precipitación	0
171096	7	Sololá	716	San Marcos la Laguna 	11	San Marcos la laguna 	1	Enero	2023-01-15T00:00:00	2024-11-08T12:00:00	8	Radiación solar	729
171097	7	Sololá	716	San Marcos la Laguna 	11	San Marcos la laguna 	1	Enero	2023-01-15T00:00:00	2024-11-08T13:00:00	2	Temperatura media	21.2
171098	7	Sololá	716	San Marcos la Laguna 	11	San Marcos la laguna 	1	Enero	2023-01-15T00:00:00	2024-11-08T13:00:00	4	Temperatura máxima	21.3
171099	7	Sololá	716	San Marcos la Laguna 	11	San Marcos la laguna 	1	Enero	2023-01-15T00:00:00	2024-11-08T13:00:00	3	Temperatura mínima	20.5
171100	7	Sololá	716	San Marcos la Laguna 	11	San Marcos la laguna 	1	Enero	2023-01-15T00:00:00	2024-11-08T13:00:00	5	Humedad	63
171101	7	Sololá	716	San Marcos la Laguna 	11	San Marcos la laguna 	1	Enero	2023-01-15T00:00:00	2024-11-08T13:00:00	6	Velocidad del viento	12.9
171102	7	Sololá	716	San Marcos la Laguna 	11	San Marcos la laguna 	1	Enero	2023-01-15T00:00:00	2024-11-08T13:00:00	7	Dirección del viento	12.87
171103	7	Sololá	716	San Marcos la Laguna 	11	San Marcos la laguna 	1	Enero	2023-01-15T00:00:00	2024-11-08T13:00:00	1	Precipitación	0
171104	7	Sololá	716	San Marcos la Laguna 	11	San Marcos la laguna 	1	Enero	2023-01-15T00:00:00	2024-11-08T13:00:00	8	Radiación solar	762
171105	7	Sololá	716	San Marcos la Laguna 	11	San Marcos la laguna 	1	Enero	2023-01-15T00:00:00	2024-11-08T14:00:00	2	Temperatura media	21.1
171106	7	Sololá	716	San Marcos la Laguna 	11	San Marcos la laguna 	1	Enero	2023-01-15T00:00:00	2024-11-08T14:00:00	4	Temperatura máxima	21.7
171107	7	Sololá	716	San Marcos la Laguna 	11	San Marcos la laguna 	1	Enero	2023-01-15T00:00:00	2024-11-08T14:00:00	3	Temperatura mínima	20.7
171108	7	Sololá	716	San Marcos la Laguna 	11	San Marcos la laguna 	1	Enero	2023-01-15T00:00:00	2024-11-08T14:00:00	5	Humedad	68
171109	7	Sololá	716	San Marcos la Laguna 	11	San Marcos la laguna 	1	Enero	2023-01-15T00:00:00	2024-11-08T14:00:00	6	Velocidad del viento	11.3
171110	7	Sololá	716	San Marcos la Laguna 	11	San Marcos la laguna 	1	Enero	2023-01-15T00:00:00	2024-11-08T14:00:00	7	Dirección del viento	11.27
171111	7	Sololá	716	San Marcos la Laguna 	11	San Marcos la laguna 	1	Enero	2023-01-15T00:00:00	2024-11-08T14:00:00	1	Precipitación	0
171112	7	Sololá	716	San Marcos la Laguna 	11	San Marcos la laguna 	1	Enero	2023-01-15T00:00:00	2024-11-08T14:00:00	8	Radiación solar	725
171113	7	Sololá	716	San Marcos la Laguna 	11	San Marcos la laguna 	1	Enero	2023-01-15T00:00:00	2024-11-08T15:00:00	2	Temperatura media	21.8
171114	7	Sololá	716	San Marcos la Laguna 	11	San Marcos la laguna 	1	Enero	2023-01-15T00:00:00	2024-11-08T15:00:00	4	Temperatura máxima	22.4
171115	7	Sololá	716	San Marcos la Laguna 	11	San Marcos la laguna 	1	Enero	2023-01-15T00:00:00	2024-11-08T15:00:00	3	Temperatura mínima	20.8
171116	7	Sololá	716	San Marcos la Laguna 	11	San Marcos la laguna 	1	Enero	2023-01-15T00:00:00	2024-11-08T15:00:00	5	Humedad	68
171117	7	Sololá	716	San Marcos la Laguna 	11	San Marcos la laguna 	1	Enero	2023-01-15T00:00:00	2024-11-08T15:00:00	6	Velocidad del viento	8
171118	7	Sololá	716	San Marcos la Laguna 	11	San Marcos la laguna 	1	Enero	2023-01-15T00:00:00	2024-11-08T15:00:00	7	Dirección del viento	8.05
171119	7	Sololá	716	San Marcos la Laguna 	11	San Marcos la laguna 	1	Enero	2023-01-15T00:00:00	2024-11-08T15:00:00	1	Precipitación	0
171120	7	Sololá	716	San Marcos la Laguna 	11	San Marcos la laguna 	1	Enero	2023-01-15T00:00:00	2024-11-08T15:00:00	8	Radiación solar	671
171121	7	Sololá	716	San Marcos la Laguna 	11	San Marcos la laguna 	1	Enero	2023-01-15T00:00:00	2024-11-08T16:00:00	2	Temperatura media	21.1
171122	7	Sololá	716	San Marcos la Laguna 	11	San Marcos la laguna 	1	Enero	2023-01-15T00:00:00	2024-11-08T16:00:00	4	Temperatura máxima	22.2
171123	7	Sololá	716	San Marcos la Laguna 	11	San Marcos la laguna 	1	Enero	2023-01-15T00:00:00	2024-11-08T16:00:00	3	Temperatura mínima	20.9
171124	7	Sololá	716	San Marcos la Laguna 	11	San Marcos la laguna 	1	Enero	2023-01-15T00:00:00	2024-11-08T16:00:00	5	Humedad	71
171125	7	Sololá	716	San Marcos la Laguna 	11	San Marcos la laguna 	1	Enero	2023-01-15T00:00:00	2024-11-08T16:00:00	6	Velocidad del viento	6.4
171126	7	Sololá	716	San Marcos la Laguna 	11	San Marcos la laguna 	1	Enero	2023-01-15T00:00:00	2024-11-08T16:00:00	7	Dirección del viento	6.44
171127	7	Sololá	716	San Marcos la Laguna 	11	San Marcos la laguna 	1	Enero	2023-01-15T00:00:00	2024-11-08T16:00:00	1	Precipitación	0
171128	7	Sololá	716	San Marcos la Laguna 	11	San Marcos la laguna 	1	Enero	2023-01-15T00:00:00	2024-11-08T16:00:00	8	Radiación solar	383
171129	7	Sololá	716	San Marcos la Laguna 	11	San Marcos la laguna 	1	Enero	2023-01-15T00:00:00	2024-11-08T17:00:00	2	Temperatura media	20.4
171130	7	Sololá	716	San Marcos la Laguna 	11	San Marcos la laguna 	1	Enero	2023-01-15T00:00:00	2024-11-08T17:00:00	4	Temperatura máxima	21.4
171131	7	Sololá	716	San Marcos la Laguna 	11	San Marcos la laguna 	1	Enero	2023-01-15T00:00:00	2024-11-08T17:00:00	3	Temperatura mínima	20.1
171132	7	Sololá	716	San Marcos la Laguna 	11	San Marcos la laguna 	1	Enero	2023-01-15T00:00:00	2024-11-08T17:00:00	5	Humedad	73
171133	7	Sololá	716	San Marcos la Laguna 	11	San Marcos la laguna 	1	Enero	2023-01-15T00:00:00	2024-11-08T17:00:00	6	Velocidad del viento	4.8
171134	7	Sololá	716	San Marcos la Laguna 	11	San Marcos la laguna 	1	Enero	2023-01-15T00:00:00	2024-11-08T17:00:00	7	Dirección del viento	4.83
171135	7	Sololá	716	San Marcos la Laguna 	11	San Marcos la laguna 	1	Enero	2023-01-15T00:00:00	2024-11-08T17:00:00	1	Precipitación	0
171136	7	Sololá	716	San Marcos la Laguna 	11	San Marcos la laguna 	1	Enero	2023-01-15T00:00:00	2024-11-08T17:00:00	8	Radiación solar	212
171137	7	Sololá	716	San Marcos la Laguna 	11	San Marcos la laguna 	1	Enero	2023-01-15T00:00:00	2024-11-08T18:00:00	2	Temperatura media	18.8
171138	7	Sololá	716	San Marcos la Laguna 	11	San Marcos la laguna 	1	Enero	2023-01-15T00:00:00	2024-11-08T18:00:00	4	Temperatura máxima	20.5
171139	7	Sololá	716	San Marcos la Laguna 	11	San Marcos la laguna 	1	Enero	2023-01-15T00:00:00	2024-11-08T18:00:00	3	Temperatura mínima	18.8
171140	7	Sololá	716	San Marcos la Laguna 	11	San Marcos la laguna 	1	Enero	2023-01-15T00:00:00	2024-11-08T18:00:00	5	Humedad	80
171141	7	Sololá	716	San Marcos la Laguna 	11	San Marcos la laguna 	1	Enero	2023-01-15T00:00:00	2024-11-08T18:00:00	6	Velocidad del viento	3.2
171142	7	Sololá	716	San Marcos la Laguna 	11	San Marcos la laguna 	1	Enero	2023-01-15T00:00:00	2024-11-08T18:00:00	7	Dirección del viento	3.22
171143	7	Sololá	716	San Marcos la Laguna 	11	San Marcos la laguna 	1	Enero	2023-01-15T00:00:00	2024-11-08T18:00:00	1	Precipitación	0
171144	7	Sololá	716	San Marcos la Laguna 	11	San Marcos la laguna 	1	Enero	2023-01-15T00:00:00	2024-11-08T18:00:00	8	Radiación solar	30
171145	7	Sololá	716	San Marcos la Laguna 	11	San Marcos la laguna 	1	Enero	2023-01-15T00:00:00	2024-11-08T19:00:00	2	Temperatura media	18.1
171146	7	Sololá	716	San Marcos la Laguna 	11	San Marcos la laguna 	1	Enero	2023-01-15T00:00:00	2024-11-08T19:00:00	4	Temperatura máxima	18.8
171147	7	Sololá	716	San Marcos la Laguna 	11	San Marcos la laguna 	1	Enero	2023-01-15T00:00:00	2024-11-08T19:00:00	3	Temperatura mínima	18.1
171148	7	Sololá	716	San Marcos la Laguna 	11	San Marcos la laguna 	1	Enero	2023-01-15T00:00:00	2024-11-08T19:00:00	5	Humedad	83
171149	7	Sololá	716	San Marcos la Laguna 	11	San Marcos la laguna 	1	Enero	2023-01-15T00:00:00	2024-11-08T19:00:00	6	Velocidad del viento	1.6
171150	7	Sololá	716	San Marcos la Laguna 	11	San Marcos la laguna 	1	Enero	2023-01-15T00:00:00	2024-11-08T19:00:00	7	Dirección del viento	1.61
171151	7	Sololá	716	San Marcos la Laguna 	11	San Marcos la laguna 	1	Enero	2023-01-15T00:00:00	2024-11-08T19:00:00	1	Precipitación	0
171152	7	Sololá	716	San Marcos la Laguna 	11	San Marcos la laguna 	1	Enero	2023-01-15T00:00:00	2024-11-08T19:00:00	8	Radiación solar	0
171153	7	Sololá	716	San Marcos la Laguna 	11	San Marcos la laguna 	1	Enero	2023-01-15T00:00:00	2024-11-08T20:00:00	2	Temperatura media	17.8
171154	7	Sololá	716	San Marcos la Laguna 	11	San Marcos la laguna 	1	Enero	2023-01-15T00:00:00	2024-11-08T20:00:00	4	Temperatura máxima	18.2
171155	7	Sololá	716	San Marcos la Laguna 	11	San Marcos la laguna 	1	Enero	2023-01-15T00:00:00	2024-11-08T20:00:00	3	Temperatura mínima	17.8
171156	7	Sololá	716	San Marcos la Laguna 	11	San Marcos la laguna 	1	Enero	2023-01-15T00:00:00	2024-11-08T20:00:00	5	Humedad	84
171157	7	Sololá	716	San Marcos la Laguna 	11	San Marcos la laguna 	1	Enero	2023-01-15T00:00:00	2024-11-08T20:00:00	6	Velocidad del viento	3.2
171158	7	Sololá	716	San Marcos la Laguna 	11	San Marcos la laguna 	1	Enero	2023-01-15T00:00:00	2024-11-08T20:00:00	7	Dirección del viento	3.22
171159	7	Sololá	716	San Marcos la Laguna 	11	San Marcos la laguna 	1	Enero	2023-01-15T00:00:00	2024-11-08T20:00:00	1	Precipitación	0
171160	7	Sololá	716	San Marcos la Laguna 	11	San Marcos la laguna 	1	Enero	2023-01-15T00:00:00	2024-11-08T20:00:00	8	Radiación solar	0
171161	7	Sololá	716	San Marcos la Laguna 	11	San Marcos la laguna 	1	Enero	2023-01-15T00:00:00	2024-11-08T21:00:00	2	Temperatura media	17
171162	7	Sololá	716	San Marcos la Laguna 	11	San Marcos la laguna 	1	Enero	2023-01-15T00:00:00	2024-11-08T21:00:00	4	Temperatura máxima	17.9
171163	7	Sololá	716	San Marcos la Laguna 	11	San Marcos la laguna 	1	Enero	2023-01-15T00:00:00	2024-11-08T21:00:00	3	Temperatura mínima	17
171164	7	Sololá	716	San Marcos la Laguna 	11	San Marcos la laguna 	1	Enero	2023-01-15T00:00:00	2024-11-08T21:00:00	5	Humedad	81
171165	7	Sololá	716	San Marcos la Laguna 	11	San Marcos la laguna 	1	Enero	2023-01-15T00:00:00	2024-11-08T21:00:00	6	Velocidad del viento	3.2
171166	7	Sololá	716	San Marcos la Laguna 	11	San Marcos la laguna 	1	Enero	2023-01-15T00:00:00	2024-11-08T21:00:00	7	Dirección del viento	3.22
171167	7	Sololá	716	San Marcos la Laguna 	11	San Marcos la laguna 	1	Enero	2023-01-15T00:00:00	2024-11-08T21:00:00	1	Precipitación	0
171168	7	Sololá	716	San Marcos la Laguna 	11	San Marcos la laguna 	1	Enero	2023-01-15T00:00:00	2024-11-08T21:00:00	8	Radiación solar	0
171169	7	Sololá	716	San Marcos la Laguna 	11	San Marcos la laguna 	1	Enero	2023-01-15T00:00:00	2024-11-08T22:00:00	2	Temperatura media	17.2
171170	7	Sololá	716	San Marcos la Laguna 	11	San Marcos la laguna 	1	Enero	2023-01-15T00:00:00	2024-11-08T22:00:00	4	Temperatura máxima	17.4
171171	7	Sololá	716	San Marcos la Laguna 	11	San Marcos la laguna 	1	Enero	2023-01-15T00:00:00	2024-11-08T22:00:00	3	Temperatura mínima	16.8
171172	7	Sololá	716	San Marcos la Laguna 	11	San Marcos la laguna 	1	Enero	2023-01-15T00:00:00	2024-11-08T22:00:00	5	Humedad	80
171173	7	Sololá	716	San Marcos la Laguna 	11	San Marcos la laguna 	1	Enero	2023-01-15T00:00:00	2024-11-08T22:00:00	6	Velocidad del viento	6.4
171174	7	Sololá	716	San Marcos la Laguna 	11	San Marcos la laguna 	1	Enero	2023-01-15T00:00:00	2024-11-08T22:00:00	7	Dirección del viento	6.44
171175	7	Sololá	716	San Marcos la Laguna 	11	San Marcos la laguna 	1	Enero	2023-01-15T00:00:00	2024-11-08T22:00:00	1	Precipitación	0
171176	7	Sololá	716	San Marcos la Laguna 	11	San Marcos la laguna 	1	Enero	2023-01-15T00:00:00	2024-11-08T22:00:00	8	Radiación solar	0
171177	7	Sololá	716	San Marcos la Laguna 	11	San Marcos la laguna 	1	Enero	2023-01-15T00:00:00	2024-11-08T23:00:00	2	Temperatura media	17.3
171178	7	Sololá	716	San Marcos la Laguna 	11	San Marcos la laguna 	1	Enero	2023-01-15T00:00:00	2024-11-08T23:00:00	4	Temperatura máxima	17.6
171179	7	Sololá	716	San Marcos la Laguna 	11	San Marcos la laguna 	1	Enero	2023-01-15T00:00:00	2024-11-08T23:00:00	3	Temperatura mínima	17.2
171180	7	Sololá	716	San Marcos la Laguna 	11	San Marcos la laguna 	1	Enero	2023-01-15T00:00:00	2024-11-08T23:00:00	5	Humedad	83
171181	7	Sololá	716	San Marcos la Laguna 	11	San Marcos la laguna 	1	Enero	2023-01-15T00:00:00	2024-11-08T23:00:00	6	Velocidad del viento	3.2
171182	7	Sololá	716	San Marcos la Laguna 	11	San Marcos la laguna 	1	Enero	2023-01-15T00:00:00	2024-11-08T23:00:00	7	Dirección del viento	3.22
171183	7	Sololá	716	San Marcos la Laguna 	11	San Marcos la laguna 	1	Enero	2023-01-15T00:00:00	2024-11-08T23:00:00	1	Precipitación	0
171184	7	Sololá	716	San Marcos la Laguna 	11	San Marcos la laguna 	1	Enero	2023-01-15T00:00:00	2024-11-08T23:00:00	8	Radiación solar	0
171185	7	Sololá	716	San Marcos la Laguna 	11	San Marcos la laguna 	1	Enero	2023-01-16T00:00:00	2024-11-08T00:00:00	2	Temperatura media	17.6
171186	7	Sololá	716	San Marcos la Laguna 	11	San Marcos la laguna 	1	Enero	2023-01-16T00:00:00	2024-11-08T00:00:00	4	Temperatura máxima	17.8
171187	7	Sololá	716	San Marcos la Laguna 	11	San Marcos la laguna 	1	Enero	2023-01-16T00:00:00	2024-11-08T00:00:00	3	Temperatura mínima	17.3
171188	7	Sololá	716	San Marcos la Laguna 	11	San Marcos la laguna 	1	Enero	2023-01-16T00:00:00	2024-11-08T00:00:00	5	Humedad	85
171189	7	Sololá	716	San Marcos la Laguna 	11	San Marcos la laguna 	1	Enero	2023-01-16T00:00:00	2024-11-08T00:00:00	6	Velocidad del viento	1.6
171190	7	Sololá	716	San Marcos la Laguna 	11	San Marcos la laguna 	1	Enero	2023-01-16T00:00:00	2024-11-08T00:00:00	7	Dirección del viento	1.61
171191	7	Sololá	716	San Marcos la Laguna 	11	San Marcos la laguna 	1	Enero	2023-01-16T00:00:00	2024-11-08T00:00:00	1	Precipitación	0
171192	7	Sololá	716	San Marcos la Laguna 	11	San Marcos la laguna 	1	Enero	2023-01-16T00:00:00	2024-11-08T00:00:00	8	Radiación solar	0
171193	7	Sololá	716	San Marcos la Laguna 	11	San Marcos la laguna 	1	Enero	2023-01-16T00:00:00	2024-11-08T01:00:00	2	Temperatura media	15.6
171194	7	Sololá	716	San Marcos la Laguna 	11	San Marcos la laguna 	1	Enero	2023-01-16T00:00:00	2024-11-08T01:00:00	4	Temperatura máxima	17.6
171195	7	Sololá	716	San Marcos la Laguna 	11	San Marcos la laguna 	1	Enero	2023-01-16T00:00:00	2024-11-08T01:00:00	3	Temperatura mínima	15.6
171196	7	Sololá	716	San Marcos la Laguna 	11	San Marcos la laguna 	1	Enero	2023-01-16T00:00:00	2024-11-08T01:00:00	5	Humedad	89
171197	7	Sololá	716	San Marcos la Laguna 	11	San Marcos la laguna 	1	Enero	2023-01-16T00:00:00	2024-11-08T01:00:00	6	Velocidad del viento	3.2
171198	7	Sololá	716	San Marcos la Laguna 	11	San Marcos la laguna 	1	Enero	2023-01-16T00:00:00	2024-11-08T01:00:00	7	Dirección del viento	3.22
171199	7	Sololá	716	San Marcos la Laguna 	11	San Marcos la laguna 	1	Enero	2023-01-16T00:00:00	2024-11-08T01:00:00	1	Precipitación	0
171200	7	Sololá	716	San Marcos la Laguna 	11	San Marcos la laguna 	1	Enero	2023-01-16T00:00:00	2024-11-08T01:00:00	8	Radiación solar	0
171201	7	Sololá	716	San Marcos la Laguna 	11	San Marcos la laguna 	1	Enero	2023-01-16T00:00:00	2024-11-08T02:00:00	2	Temperatura media	15.4
171202	7	Sololá	716	San Marcos la Laguna 	11	San Marcos la laguna 	1	Enero	2023-01-16T00:00:00	2024-11-08T02:00:00	4	Temperatura máxima	15.8
171203	7	Sololá	716	San Marcos la Laguna 	11	San Marcos la laguna 	1	Enero	2023-01-16T00:00:00	2024-11-08T02:00:00	3	Temperatura mínima	15.3
171204	7	Sololá	716	San Marcos la Laguna 	11	San Marcos la laguna 	1	Enero	2023-01-16T00:00:00	2024-11-08T02:00:00	5	Humedad	82
171205	7	Sololá	716	San Marcos la Laguna 	11	San Marcos la laguna 	1	Enero	2023-01-16T00:00:00	2024-11-08T02:00:00	6	Velocidad del viento	4.8
171206	7	Sololá	716	San Marcos la Laguna 	11	San Marcos la laguna 	1	Enero	2023-01-16T00:00:00	2024-11-08T02:00:00	7	Dirección del viento	4.83
171207	7	Sololá	716	San Marcos la Laguna 	11	San Marcos la laguna 	1	Enero	2023-01-16T00:00:00	2024-11-08T02:00:00	1	Precipitación	0
171208	7	Sololá	716	San Marcos la Laguna 	11	San Marcos la laguna 	1	Enero	2023-01-16T00:00:00	2024-11-08T02:00:00	8	Radiación solar	0
171209	7	Sololá	716	San Marcos la Laguna 	11	San Marcos la laguna 	1	Enero	2023-01-16T00:00:00	2024-11-08T03:00:00	2	Temperatura media	14.9
171210	7	Sololá	716	San Marcos la Laguna 	11	San Marcos la laguna 	1	Enero	2023-01-16T00:00:00	2024-11-08T03:00:00	4	Temperatura máxima	15.4
171211	7	Sololá	716	San Marcos la Laguna 	11	San Marcos la laguna 	1	Enero	2023-01-16T00:00:00	2024-11-08T03:00:00	3	Temperatura mínima	14.8
171212	7	Sololá	716	San Marcos la Laguna 	11	San Marcos la laguna 	1	Enero	2023-01-16T00:00:00	2024-11-08T03:00:00	5	Humedad	85
171213	7	Sololá	716	San Marcos la Laguna 	11	San Marcos la laguna 	1	Enero	2023-01-16T00:00:00	2024-11-08T03:00:00	6	Velocidad del viento	6.4
171214	7	Sololá	716	San Marcos la Laguna 	11	San Marcos la laguna 	1	Enero	2023-01-16T00:00:00	2024-11-08T03:00:00	7	Dirección del viento	6.44
171215	7	Sololá	716	San Marcos la Laguna 	11	San Marcos la laguna 	1	Enero	2023-01-16T00:00:00	2024-11-08T03:00:00	1	Precipitación	0
171216	7	Sololá	716	San Marcos la Laguna 	11	San Marcos la laguna 	1	Enero	2023-01-16T00:00:00	2024-11-08T03:00:00	8	Radiación solar	0
171217	7	Sololá	716	San Marcos la Laguna 	11	San Marcos la laguna 	1	Enero	2023-01-16T00:00:00	2024-11-08T04:00:00	2	Temperatura media	13.7
171218	7	Sololá	716	San Marcos la Laguna 	11	San Marcos la laguna 	1	Enero	2023-01-16T00:00:00	2024-11-08T04:00:00	4	Temperatura máxima	14.9
171219	7	Sololá	716	San Marcos la Laguna 	11	San Marcos la laguna 	1	Enero	2023-01-16T00:00:00	2024-11-08T04:00:00	3	Temperatura mínima	13.7
171220	7	Sololá	716	San Marcos la Laguna 	11	San Marcos la laguna 	1	Enero	2023-01-16T00:00:00	2024-11-08T04:00:00	5	Humedad	83
171221	7	Sololá	716	San Marcos la Laguna 	11	San Marcos la laguna 	1	Enero	2023-01-16T00:00:00	2024-11-08T04:00:00	6	Velocidad del viento	6.4
171222	7	Sololá	716	San Marcos la Laguna 	11	San Marcos la laguna 	1	Enero	2023-01-16T00:00:00	2024-11-08T04:00:00	7	Dirección del viento	6.44
171223	7	Sololá	716	San Marcos la Laguna 	11	San Marcos la laguna 	1	Enero	2023-01-16T00:00:00	2024-11-08T04:00:00	1	Precipitación	0
171224	7	Sololá	716	San Marcos la Laguna 	11	San Marcos la laguna 	1	Enero	2023-01-16T00:00:00	2024-11-08T04:00:00	8	Radiación solar	0
171225	7	Sololá	716	San Marcos la Laguna 	11	San Marcos la laguna 	1	Enero	2023-01-16T00:00:00	2024-11-08T05:00:00	2	Temperatura media	13.2
171226	7	Sololá	716	San Marcos la Laguna 	11	San Marcos la laguna 	1	Enero	2023-01-16T00:00:00	2024-11-08T05:00:00	4	Temperatura máxima	13.7
171227	7	Sololá	716	San Marcos la Laguna 	11	San Marcos la laguna 	1	Enero	2023-01-16T00:00:00	2024-11-08T05:00:00	3	Temperatura mínima	13.1
171228	7	Sololá	716	San Marcos la Laguna 	11	San Marcos la laguna 	1	Enero	2023-01-16T00:00:00	2024-11-08T05:00:00	5	Humedad	87
171229	7	Sololá	716	San Marcos la Laguna 	11	San Marcos la laguna 	1	Enero	2023-01-16T00:00:00	2024-11-08T05:00:00	6	Velocidad del viento	6.4
171230	7	Sololá	716	San Marcos la Laguna 	11	San Marcos la laguna 	1	Enero	2023-01-16T00:00:00	2024-11-08T05:00:00	7	Dirección del viento	6.44
171231	7	Sololá	716	San Marcos la Laguna 	11	San Marcos la laguna 	1	Enero	2023-01-16T00:00:00	2024-11-08T05:00:00	1	Precipitación	0
171232	7	Sololá	716	San Marcos la Laguna 	11	San Marcos la laguna 	1	Enero	2023-01-16T00:00:00	2024-11-08T05:00:00	8	Radiación solar	0
171233	7	Sololá	716	San Marcos la Laguna 	11	San Marcos la laguna 	1	Enero	2023-01-16T00:00:00	2024-11-08T06:00:00	2	Temperatura media	12.8
171234	7	Sololá	716	San Marcos la Laguna 	11	San Marcos la laguna 	1	Enero	2023-01-16T00:00:00	2024-11-08T06:00:00	4	Temperatura máxima	13.2
171235	7	Sololá	716	San Marcos la Laguna 	11	San Marcos la laguna 	1	Enero	2023-01-16T00:00:00	2024-11-08T06:00:00	3	Temperatura mínima	12.7
171236	7	Sololá	716	San Marcos la Laguna 	11	San Marcos la laguna 	1	Enero	2023-01-16T00:00:00	2024-11-08T06:00:00	5	Humedad	85
171237	7	Sololá	716	San Marcos la Laguna 	11	San Marcos la laguna 	1	Enero	2023-01-16T00:00:00	2024-11-08T06:00:00	6	Velocidad del viento	8
171238	7	Sololá	716	San Marcos la Laguna 	11	San Marcos la laguna 	1	Enero	2023-01-16T00:00:00	2024-11-08T06:00:00	7	Dirección del viento	8.05
171239	7	Sololá	716	San Marcos la Laguna 	11	San Marcos la laguna 	1	Enero	2023-01-16T00:00:00	2024-11-08T06:00:00	1	Precipitación	0
171240	7	Sololá	716	San Marcos la Laguna 	11	San Marcos la laguna 	1	Enero	2023-01-16T00:00:00	2024-11-08T06:00:00	8	Radiación solar	0
171241	7	Sololá	716	San Marcos la Laguna 	11	San Marcos la laguna 	1	Enero	2023-01-16T00:00:00	2024-11-08T07:00:00	2	Temperatura media	12.9
171242	7	Sololá	716	San Marcos la Laguna 	11	San Marcos la laguna 	1	Enero	2023-01-16T00:00:00	2024-11-08T07:00:00	4	Temperatura máxima	13.5
171243	7	Sololá	716	San Marcos la Laguna 	11	San Marcos la laguna 	1	Enero	2023-01-16T00:00:00	2024-11-08T07:00:00	3	Temperatura mínima	12.5
171244	7	Sololá	716	San Marcos la Laguna 	11	San Marcos la laguna 	1	Enero	2023-01-16T00:00:00	2024-11-08T07:00:00	5	Humedad	83
171245	7	Sololá	716	San Marcos la Laguna 	11	San Marcos la laguna 	1	Enero	2023-01-16T00:00:00	2024-11-08T07:00:00	6	Velocidad del viento	6.4
171246	7	Sololá	716	San Marcos la Laguna 	11	San Marcos la laguna 	1	Enero	2023-01-16T00:00:00	2024-11-08T07:00:00	7	Dirección del viento	6.44
171247	7	Sololá	716	San Marcos la Laguna 	11	San Marcos la laguna 	1	Enero	2023-01-16T00:00:00	2024-11-08T07:00:00	1	Precipitación	0
171248	7	Sololá	716	San Marcos la Laguna 	11	San Marcos la laguna 	1	Enero	2023-01-16T00:00:00	2024-11-08T07:00:00	8	Radiación solar	7
171249	7	Sololá	716	San Marcos la Laguna 	11	San Marcos la laguna 	1	Enero	2023-01-16T00:00:00	2024-11-08T08:00:00	2	Temperatura media	17
171250	7	Sololá	716	San Marcos la Laguna 	11	San Marcos la laguna 	1	Enero	2023-01-16T00:00:00	2024-11-08T08:00:00	4	Temperatura máxima	17
171251	7	Sololá	716	San Marcos la Laguna 	11	San Marcos la laguna 	1	Enero	2023-01-16T00:00:00	2024-11-08T08:00:00	3	Temperatura mínima	12.9
171252	7	Sololá	716	San Marcos la Laguna 	11	San Marcos la laguna 	1	Enero	2023-01-16T00:00:00	2024-11-08T08:00:00	5	Humedad	77
171253	7	Sololá	716	San Marcos la Laguna 	11	San Marcos la laguna 	1	Enero	2023-01-16T00:00:00	2024-11-08T08:00:00	6	Velocidad del viento	3.2
171254	7	Sololá	716	San Marcos la Laguna 	11	San Marcos la laguna 	1	Enero	2023-01-16T00:00:00	2024-11-08T08:00:00	7	Dirección del viento	3.22
171255	7	Sololá	716	San Marcos la Laguna 	11	San Marcos la laguna 	1	Enero	2023-01-16T00:00:00	2024-11-08T08:00:00	1	Precipitación	0
171256	7	Sololá	716	San Marcos la Laguna 	11	San Marcos la laguna 	1	Enero	2023-01-16T00:00:00	2024-11-08T08:00:00	8	Radiación solar	120
171257	7	Sololá	716	San Marcos la Laguna 	11	San Marcos la laguna 	1	Enero	2023-01-16T00:00:00	2024-11-08T09:00:00	2	Temperatura media	18.3
171258	7	Sololá	716	San Marcos la Laguna 	11	San Marcos la laguna 	1	Enero	2023-01-16T00:00:00	2024-11-08T09:00:00	4	Temperatura máxima	18.4
171259	7	Sololá	716	San Marcos la Laguna 	11	San Marcos la laguna 	1	Enero	2023-01-16T00:00:00	2024-11-08T09:00:00	3	Temperatura mínima	17.1
171260	7	Sololá	716	San Marcos la Laguna 	11	San Marcos la laguna 	1	Enero	2023-01-16T00:00:00	2024-11-08T09:00:00	5	Humedad	74
171261	7	Sololá	716	San Marcos la Laguna 	11	San Marcos la laguna 	1	Enero	2023-01-16T00:00:00	2024-11-08T09:00:00	6	Velocidad del viento	3.2
171262	7	Sololá	716	San Marcos la Laguna 	11	San Marcos la laguna 	1	Enero	2023-01-16T00:00:00	2024-11-08T09:00:00	7	Dirección del viento	3.22
171263	7	Sololá	716	San Marcos la Laguna 	11	San Marcos la laguna 	1	Enero	2023-01-16T00:00:00	2024-11-08T09:00:00	1	Precipitación	0
171264	7	Sololá	716	San Marcos la Laguna 	11	San Marcos la laguna 	1	Enero	2023-01-16T00:00:00	2024-11-08T09:00:00	8	Radiación solar	320
171265	7	Sololá	716	San Marcos la Laguna 	11	San Marcos la laguna 	1	Enero	2023-01-16T00:00:00	2024-11-08T10:00:00	2	Temperatura media	18.6
171266	7	Sololá	716	San Marcos la Laguna 	11	San Marcos la laguna 	1	Enero	2023-01-16T00:00:00	2024-11-08T10:00:00	4	Temperatura máxima	18.7
171267	7	Sololá	716	San Marcos la Laguna 	11	San Marcos la laguna 	1	Enero	2023-01-16T00:00:00	2024-11-08T10:00:00	3	Temperatura mínima	18.2
171268	7	Sololá	716	San Marcos la Laguna 	11	San Marcos la laguna 	1	Enero	2023-01-16T00:00:00	2024-11-08T10:00:00	5	Humedad	74
171269	7	Sololá	716	San Marcos la Laguna 	11	San Marcos la laguna 	1	Enero	2023-01-16T00:00:00	2024-11-08T10:00:00	6	Velocidad del viento	4.8
171270	7	Sololá	716	San Marcos la Laguna 	11	San Marcos la laguna 	1	Enero	2023-01-16T00:00:00	2024-11-08T10:00:00	7	Dirección del viento	4.83
171271	7	Sololá	716	San Marcos la Laguna 	11	San Marcos la laguna 	1	Enero	2023-01-16T00:00:00	2024-11-08T10:00:00	1	Precipitación	0
171272	7	Sololá	716	San Marcos la Laguna 	11	San Marcos la laguna 	1	Enero	2023-01-16T00:00:00	2024-11-08T10:00:00	8	Radiación solar	515
171273	7	Sololá	716	San Marcos la Laguna 	11	San Marcos la laguna 	1	Enero	2023-01-16T00:00:00	2024-11-08T11:00:00	2	Temperatura media	20.1
171274	7	Sololá	716	San Marcos la Laguna 	11	San Marcos la laguna 	1	Enero	2023-01-16T00:00:00	2024-11-08T11:00:00	4	Temperatura máxima	20.1
171275	7	Sololá	716	San Marcos la Laguna 	11	San Marcos la laguna 	1	Enero	2023-01-16T00:00:00	2024-11-08T11:00:00	3	Temperatura mínima	18.4
171276	7	Sololá	716	San Marcos la Laguna 	11	San Marcos la laguna 	1	Enero	2023-01-16T00:00:00	2024-11-08T11:00:00	5	Humedad	62
171277	7	Sololá	716	San Marcos la Laguna 	11	San Marcos la laguna 	1	Enero	2023-01-16T00:00:00	2024-11-08T11:00:00	6	Velocidad del viento	6.4
171278	7	Sololá	716	San Marcos la Laguna 	11	San Marcos la laguna 	1	Enero	2023-01-16T00:00:00	2024-11-08T11:00:00	7	Dirección del viento	6.44
171279	7	Sololá	716	San Marcos la Laguna 	11	San Marcos la laguna 	1	Enero	2023-01-16T00:00:00	2024-11-08T11:00:00	1	Precipitación	0
171280	7	Sololá	716	San Marcos la Laguna 	11	San Marcos la laguna 	1	Enero	2023-01-16T00:00:00	2024-11-08T11:00:00	8	Radiación solar	557
171281	7	Sololá	716	San Marcos la Laguna 	11	San Marcos la laguna 	1	Enero	2023-01-16T00:00:00	2024-11-08T12:00:00	2	Temperatura media	20.3
171282	7	Sololá	716	San Marcos la Laguna 	11	San Marcos la laguna 	1	Enero	2023-01-16T00:00:00	2024-11-08T12:00:00	4	Temperatura máxima	20.9
171283	7	Sololá	716	San Marcos la Laguna 	11	San Marcos la laguna 	1	Enero	2023-01-16T00:00:00	2024-11-08T12:00:00	3	Temperatura mínima	20.1
171284	7	Sololá	716	San Marcos la Laguna 	11	San Marcos la laguna 	1	Enero	2023-01-16T00:00:00	2024-11-08T12:00:00	5	Humedad	65
171285	7	Sololá	716	San Marcos la Laguna 	11	San Marcos la laguna 	1	Enero	2023-01-16T00:00:00	2024-11-08T12:00:00	6	Velocidad del viento	6.4
171286	7	Sololá	716	San Marcos la Laguna 	11	San Marcos la laguna 	1	Enero	2023-01-16T00:00:00	2024-11-08T12:00:00	7	Dirección del viento	6.44
171287	7	Sololá	716	San Marcos la Laguna 	11	San Marcos la laguna 	1	Enero	2023-01-16T00:00:00	2024-11-08T12:00:00	1	Precipitación	0
171288	7	Sololá	716	San Marcos la Laguna 	11	San Marcos la laguna 	1	Enero	2023-01-16T00:00:00	2024-11-08T12:00:00	8	Radiación solar	712
171289	7	Sololá	716	San Marcos la Laguna 	11	San Marcos la laguna 	1	Enero	2023-01-16T00:00:00	2024-11-08T13:00:00	2	Temperatura media	20.9
171290	7	Sololá	716	San Marcos la Laguna 	11	San Marcos la laguna 	1	Enero	2023-01-16T00:00:00	2024-11-08T13:00:00	4	Temperatura máxima	21.1
171291	7	Sololá	716	San Marcos la Laguna 	11	San Marcos la laguna 	1	Enero	2023-01-16T00:00:00	2024-11-08T13:00:00	3	Temperatura mínima	20.1
171292	7	Sololá	716	San Marcos la Laguna 	11	San Marcos la laguna 	1	Enero	2023-01-16T00:00:00	2024-11-08T13:00:00	5	Humedad	67
171293	7	Sololá	716	San Marcos la Laguna 	11	San Marcos la laguna 	1	Enero	2023-01-16T00:00:00	2024-11-08T13:00:00	6	Velocidad del viento	11.3
171294	7	Sololá	716	San Marcos la Laguna 	11	San Marcos la laguna 	1	Enero	2023-01-16T00:00:00	2024-11-08T13:00:00	7	Dirección del viento	11.27
171295	7	Sololá	716	San Marcos la Laguna 	11	San Marcos la laguna 	1	Enero	2023-01-16T00:00:00	2024-11-08T13:00:00	1	Precipitación	0
171296	7	Sololá	716	San Marcos la Laguna 	11	San Marcos la laguna 	1	Enero	2023-01-16T00:00:00	2024-11-08T13:00:00	8	Radiación solar	745
171297	7	Sololá	716	San Marcos la Laguna 	11	San Marcos la laguna 	1	Enero	2023-01-16T00:00:00	2024-11-08T14:00:00	2	Temperatura media	20.7
171298	7	Sololá	716	San Marcos la Laguna 	11	San Marcos la laguna 	1	Enero	2023-01-16T00:00:00	2024-11-08T14:00:00	4	Temperatura máxima	21.1
171299	7	Sololá	716	San Marcos la Laguna 	11	San Marcos la laguna 	1	Enero	2023-01-16T00:00:00	2024-11-08T14:00:00	3	Temperatura mínima	20.7
171300	7	Sololá	716	San Marcos la Laguna 	11	San Marcos la laguna 	1	Enero	2023-01-16T00:00:00	2024-11-08T14:00:00	5	Humedad	70
171301	7	Sololá	716	San Marcos la Laguna 	11	San Marcos la laguna 	1	Enero	2023-01-16T00:00:00	2024-11-08T14:00:00	6	Velocidad del viento	12.9
171302	7	Sololá	716	San Marcos la Laguna 	11	San Marcos la laguna 	1	Enero	2023-01-16T00:00:00	2024-11-08T14:00:00	7	Dirección del viento	12.87
171303	7	Sololá	716	San Marcos la Laguna 	11	San Marcos la laguna 	1	Enero	2023-01-16T00:00:00	2024-11-08T14:00:00	1	Precipitación	0
171304	7	Sololá	716	San Marcos la Laguna 	11	San Marcos la laguna 	1	Enero	2023-01-16T00:00:00	2024-11-08T14:00:00	8	Radiación solar	689
171305	7	Sololá	716	San Marcos la Laguna 	11	San Marcos la laguna 	1	Enero	2023-01-16T00:00:00	2024-11-08T15:00:00	2	Temperatura media	20.3
171306	7	Sololá	716	San Marcos la Laguna 	11	San Marcos la laguna 	1	Enero	2023-01-16T00:00:00	2024-11-08T15:00:00	4	Temperatura máxima	20.9
171307	7	Sololá	716	San Marcos la Laguna 	11	San Marcos la laguna 	1	Enero	2023-01-16T00:00:00	2024-11-08T15:00:00	3	Temperatura mínima	20.3
171308	7	Sololá	716	San Marcos la Laguna 	11	San Marcos la laguna 	1	Enero	2023-01-16T00:00:00	2024-11-08T15:00:00	5	Humedad	78
171309	7	Sololá	716	San Marcos la Laguna 	11	San Marcos la laguna 	1	Enero	2023-01-16T00:00:00	2024-11-08T15:00:00	6	Velocidad del viento	11.3
171310	7	Sololá	716	San Marcos la Laguna 	11	San Marcos la laguna 	1	Enero	2023-01-16T00:00:00	2024-11-08T15:00:00	7	Dirección del viento	11.27
171311	7	Sololá	716	San Marcos la Laguna 	11	San Marcos la laguna 	1	Enero	2023-01-16T00:00:00	2024-11-08T15:00:00	1	Precipitación	0
171312	7	Sololá	716	San Marcos la Laguna 	11	San Marcos la laguna 	1	Enero	2023-01-16T00:00:00	2024-11-08T15:00:00	8	Radiación solar	499
171313	7	Sololá	716	San Marcos la Laguna 	11	San Marcos la laguna 	1	Enero	2023-01-16T00:00:00	2024-11-08T16:00:00	2	Temperatura media	19.9
171314	7	Sololá	716	San Marcos la Laguna 	11	San Marcos la laguna 	1	Enero	2023-01-16T00:00:00	2024-11-08T16:00:00	4	Temperatura máxima	20.4
171315	7	Sololá	716	San Marcos la Laguna 	11	San Marcos la laguna 	1	Enero	2023-01-16T00:00:00	2024-11-08T16:00:00	3	Temperatura mínima	19.8
171316	7	Sololá	716	San Marcos la Laguna 	11	San Marcos la laguna 	1	Enero	2023-01-16T00:00:00	2024-11-08T16:00:00	5	Humedad	78
171317	7	Sololá	716	San Marcos la Laguna 	11	San Marcos la laguna 	1	Enero	2023-01-16T00:00:00	2024-11-08T16:00:00	6	Velocidad del viento	9.7
171318	7	Sololá	716	San Marcos la Laguna 	11	San Marcos la laguna 	1	Enero	2023-01-16T00:00:00	2024-11-08T16:00:00	7	Dirección del viento	9.66
171319	7	Sololá	716	San Marcos la Laguna 	11	San Marcos la laguna 	1	Enero	2023-01-16T00:00:00	2024-11-08T16:00:00	1	Precipitación	0
171320	7	Sololá	716	San Marcos la Laguna 	11	San Marcos la laguna 	1	Enero	2023-01-16T00:00:00	2024-11-08T16:00:00	8	Radiación solar	211
171321	7	Sololá	716	San Marcos la Laguna 	11	San Marcos la laguna 	1	Enero	2023-01-16T00:00:00	2024-11-08T17:00:00	2	Temperatura media	19.4
171322	7	Sololá	716	San Marcos la Laguna 	11	San Marcos la laguna 	1	Enero	2023-01-16T00:00:00	2024-11-08T17:00:00	4	Temperatura máxima	19.9
171323	7	Sololá	716	San Marcos la Laguna 	11	San Marcos la laguna 	1	Enero	2023-01-16T00:00:00	2024-11-08T17:00:00	3	Temperatura mínima	19.3
171324	7	Sololá	716	San Marcos la Laguna 	11	San Marcos la laguna 	1	Enero	2023-01-16T00:00:00	2024-11-08T17:00:00	5	Humedad	80
171325	7	Sololá	716	San Marcos la Laguna 	11	San Marcos la laguna 	1	Enero	2023-01-16T00:00:00	2024-11-08T17:00:00	6	Velocidad del viento	9.7
171326	7	Sololá	716	San Marcos la Laguna 	11	San Marcos la laguna 	1	Enero	2023-01-16T00:00:00	2024-11-08T17:00:00	7	Dirección del viento	9.66
171327	7	Sololá	716	San Marcos la Laguna 	11	San Marcos la laguna 	1	Enero	2023-01-16T00:00:00	2024-11-08T17:00:00	1	Precipitación	0
171328	7	Sololá	716	San Marcos la Laguna 	11	San Marcos la laguna 	1	Enero	2023-01-16T00:00:00	2024-11-08T17:00:00	8	Radiación solar	98
171329	7	Sololá	716	San Marcos la Laguna 	11	San Marcos la laguna 	1	Enero	2023-01-16T00:00:00	2024-11-08T18:00:00	2	Temperatura media	19.2
171330	7	Sololá	716	San Marcos la Laguna 	11	San Marcos la laguna 	1	Enero	2023-01-16T00:00:00	2024-11-08T18:00:00	4	Temperatura máxima	19.4
171331	7	Sololá	716	San Marcos la Laguna 	11	San Marcos la laguna 	1	Enero	2023-01-16T00:00:00	2024-11-08T18:00:00	3	Temperatura mínima	19.2
171332	7	Sololá	716	San Marcos la Laguna 	11	San Marcos la laguna 	1	Enero	2023-01-16T00:00:00	2024-11-08T18:00:00	5	Humedad	82
171333	7	Sololá	716	San Marcos la Laguna 	11	San Marcos la laguna 	1	Enero	2023-01-16T00:00:00	2024-11-08T18:00:00	6	Velocidad del viento	4.8
171334	7	Sololá	716	San Marcos la Laguna 	11	San Marcos la laguna 	1	Enero	2023-01-16T00:00:00	2024-11-08T18:00:00	7	Dirección del viento	4.83
171335	7	Sololá	716	San Marcos la Laguna 	11	San Marcos la laguna 	1	Enero	2023-01-16T00:00:00	2024-11-08T18:00:00	1	Precipitación	0
171336	7	Sololá	716	San Marcos la Laguna 	11	San Marcos la laguna 	1	Enero	2023-01-16T00:00:00	2024-11-08T18:00:00	8	Radiación solar	9
171337	7	Sololá	716	San Marcos la Laguna 	11	San Marcos la laguna 	1	Enero	2023-01-16T00:00:00	2024-11-08T19:00:00	2	Temperatura media	18.7
171338	7	Sololá	716	San Marcos la Laguna 	11	San Marcos la laguna 	1	Enero	2023-01-16T00:00:00	2024-11-08T19:00:00	4	Temperatura máxima	19.2
171339	7	Sololá	716	San Marcos la Laguna 	11	San Marcos la laguna 	1	Enero	2023-01-16T00:00:00	2024-11-08T19:00:00	3	Temperatura mínima	18.7
171340	7	Sololá	716	San Marcos la Laguna 	11	San Marcos la laguna 	1	Enero	2023-01-16T00:00:00	2024-11-08T19:00:00	5	Humedad	83
171341	7	Sololá	716	San Marcos la Laguna 	11	San Marcos la laguna 	1	Enero	2023-01-16T00:00:00	2024-11-08T19:00:00	6	Velocidad del viento	4.8
171342	7	Sololá	716	San Marcos la Laguna 	11	San Marcos la laguna 	1	Enero	2023-01-16T00:00:00	2024-11-08T19:00:00	7	Dirección del viento	4.83
171343	7	Sololá	716	San Marcos la Laguna 	11	San Marcos la laguna 	1	Enero	2023-01-16T00:00:00	2024-11-08T19:00:00	1	Precipitación	0
171344	7	Sololá	716	San Marcos la Laguna 	11	San Marcos la laguna 	1	Enero	2023-01-16T00:00:00	2024-11-08T19:00:00	8	Radiación solar	0
171345	7	Sololá	716	San Marcos la Laguna 	11	San Marcos la laguna 	1	Enero	2023-01-16T00:00:00	2024-11-08T20:00:00	2	Temperatura media	18.6
171346	7	Sololá	716	San Marcos la Laguna 	11	San Marcos la laguna 	1	Enero	2023-01-16T00:00:00	2024-11-08T20:00:00	4	Temperatura máxima	18.8
171347	7	Sololá	716	San Marcos la Laguna 	11	San Marcos la laguna 	1	Enero	2023-01-16T00:00:00	2024-11-08T20:00:00	3	Temperatura mínima	18.6
171348	7	Sololá	716	San Marcos la Laguna 	11	San Marcos la laguna 	1	Enero	2023-01-16T00:00:00	2024-11-08T20:00:00	5	Humedad	85
171349	7	Sololá	716	San Marcos la Laguna 	11	San Marcos la laguna 	1	Enero	2023-01-16T00:00:00	2024-11-08T20:00:00	6	Velocidad del viento	4.8
171350	7	Sololá	716	San Marcos la Laguna 	11	San Marcos la laguna 	1	Enero	2023-01-16T00:00:00	2024-11-08T20:00:00	7	Dirección del viento	4.83
171351	7	Sololá	716	San Marcos la Laguna 	11	San Marcos la laguna 	1	Enero	2023-01-16T00:00:00	2024-11-08T20:00:00	1	Precipitación	0
171352	7	Sololá	716	San Marcos la Laguna 	11	San Marcos la laguna 	1	Enero	2023-01-16T00:00:00	2024-11-08T20:00:00	8	Radiación solar	0
171353	7	Sololá	716	San Marcos la Laguna 	11	San Marcos la laguna 	1	Enero	2023-01-16T00:00:00	2024-11-08T21:00:00	2	Temperatura media	17.5
171354	7	Sololá	716	San Marcos la Laguna 	11	San Marcos la laguna 	1	Enero	2023-01-16T00:00:00	2024-11-08T21:00:00	4	Temperatura máxima	18.7
171355	7	Sololá	716	San Marcos la Laguna 	11	San Marcos la laguna 	1	Enero	2023-01-16T00:00:00	2024-11-08T21:00:00	3	Temperatura mínima	17.5
171356	7	Sololá	716	San Marcos la Laguna 	11	San Marcos la laguna 	1	Enero	2023-01-16T00:00:00	2024-11-08T21:00:00	5	Humedad	86
171357	7	Sololá	716	San Marcos la Laguna 	11	San Marcos la laguna 	1	Enero	2023-01-16T00:00:00	2024-11-08T21:00:00	6	Velocidad del viento	3.2
171358	7	Sololá	716	San Marcos la Laguna 	11	San Marcos la laguna 	1	Enero	2023-01-16T00:00:00	2024-11-08T21:00:00	7	Dirección del viento	3.22
171359	7	Sololá	716	San Marcos la Laguna 	11	San Marcos la laguna 	1	Enero	2023-01-16T00:00:00	2024-11-08T21:00:00	1	Precipitación	0
171360	7	Sololá	716	San Marcos la Laguna 	11	San Marcos la laguna 	1	Enero	2023-01-16T00:00:00	2024-11-08T21:00:00	8	Radiación solar	0
171361	7	Sololá	716	San Marcos la Laguna 	11	San Marcos la laguna 	1	Enero	2023-01-16T00:00:00	2024-11-08T22:00:00	2	Temperatura media	16.7
171362	7	Sololá	716	San Marcos la Laguna 	11	San Marcos la laguna 	1	Enero	2023-01-16T00:00:00	2024-11-08T22:00:00	4	Temperatura máxima	17.7
171363	7	Sololá	716	San Marcos la Laguna 	11	San Marcos la laguna 	1	Enero	2023-01-16T00:00:00	2024-11-08T22:00:00	3	Temperatura mínima	16.6
171364	7	Sololá	716	San Marcos la Laguna 	11	San Marcos la laguna 	1	Enero	2023-01-16T00:00:00	2024-11-08T22:00:00	5	Humedad	86
171365	7	Sololá	716	San Marcos la Laguna 	11	San Marcos la laguna 	1	Enero	2023-01-16T00:00:00	2024-11-08T22:00:00	6	Velocidad del viento	6.4
171366	7	Sololá	716	San Marcos la Laguna 	11	San Marcos la laguna 	1	Enero	2023-01-16T00:00:00	2024-11-08T22:00:00	7	Dirección del viento	6.44
171367	7	Sololá	716	San Marcos la Laguna 	11	San Marcos la laguna 	1	Enero	2023-01-16T00:00:00	2024-11-08T22:00:00	1	Precipitación	0
171368	7	Sololá	716	San Marcos la Laguna 	11	San Marcos la laguna 	1	Enero	2023-01-16T00:00:00	2024-11-08T22:00:00	8	Radiación solar	0
171369	7	Sololá	716	San Marcos la Laguna 	11	San Marcos la laguna 	1	Enero	2023-01-16T00:00:00	2024-11-08T23:00:00	2	Temperatura media	17.4
171370	7	Sololá	716	San Marcos la Laguna 	11	San Marcos la laguna 	1	Enero	2023-01-16T00:00:00	2024-11-08T23:00:00	4	Temperatura máxima	17.6
171371	7	Sololá	716	San Marcos la Laguna 	11	San Marcos la laguna 	1	Enero	2023-01-16T00:00:00	2024-11-08T23:00:00	3	Temperatura mínima	16.7
171372	7	Sololá	716	San Marcos la Laguna 	11	San Marcos la laguna 	1	Enero	2023-01-16T00:00:00	2024-11-08T23:00:00	5	Humedad	81
171373	7	Sololá	716	San Marcos la Laguna 	11	San Marcos la laguna 	1	Enero	2023-01-16T00:00:00	2024-11-08T23:00:00	6	Velocidad del viento	6.4
171374	7	Sololá	716	San Marcos la Laguna 	11	San Marcos la laguna 	1	Enero	2023-01-16T00:00:00	2024-11-08T23:00:00	7	Dirección del viento	6.44
171375	7	Sololá	716	San Marcos la Laguna 	11	San Marcos la laguna 	1	Enero	2023-01-16T00:00:00	2024-11-08T23:00:00	1	Precipitación	0
171376	7	Sololá	716	San Marcos la Laguna 	11	San Marcos la laguna 	1	Enero	2023-01-16T00:00:00	2024-11-08T23:00:00	8	Radiación solar	0
171377	7	Sololá	716	San Marcos la Laguna 	11	San Marcos la laguna 	1	Enero	2023-01-17T00:00:00	2024-11-08T00:00:00	2	Temperatura media	17.4
171378	7	Sololá	716	San Marcos la Laguna 	11	San Marcos la laguna 	1	Enero	2023-01-17T00:00:00	2024-11-08T00:00:00	4	Temperatura máxima	17.8
171379	7	Sololá	716	San Marcos la Laguna 	11	San Marcos la laguna 	1	Enero	2023-01-17T00:00:00	2024-11-08T00:00:00	3	Temperatura mínima	17.3
171380	7	Sololá	716	San Marcos la Laguna 	11	San Marcos la laguna 	1	Enero	2023-01-17T00:00:00	2024-11-08T00:00:00	5	Humedad	85
171381	7	Sololá	716	San Marcos la Laguna 	11	San Marcos la laguna 	1	Enero	2023-01-17T00:00:00	2024-11-08T00:00:00	6	Velocidad del viento	3.2
171382	7	Sololá	716	San Marcos la Laguna 	11	San Marcos la laguna 	1	Enero	2023-01-17T00:00:00	2024-11-08T00:00:00	7	Dirección del viento	3.22
171383	7	Sololá	716	San Marcos la Laguna 	11	San Marcos la laguna 	1	Enero	2023-01-17T00:00:00	2024-11-08T00:00:00	1	Precipitación	0
171384	7	Sololá	716	San Marcos la Laguna 	11	San Marcos la laguna 	1	Enero	2023-01-17T00:00:00	2024-11-08T00:00:00	8	Radiación solar	0
171385	7	Sololá	716	San Marcos la Laguna 	11	San Marcos la laguna 	1	Enero	2023-01-17T00:00:00	2024-11-08T01:00:00	2	Temperatura media	17.7
171386	7	Sololá	716	San Marcos la Laguna 	11	San Marcos la laguna 	1	Enero	2023-01-17T00:00:00	2024-11-08T01:00:00	4	Temperatura máxima	17.8
171387	7	Sololá	716	San Marcos la Laguna 	11	San Marcos la laguna 	1	Enero	2023-01-17T00:00:00	2024-11-08T01:00:00	3	Temperatura mínima	17.4
171388	7	Sololá	716	San Marcos la Laguna 	11	San Marcos la laguna 	1	Enero	2023-01-17T00:00:00	2024-11-08T01:00:00	5	Humedad	88
171389	7	Sololá	716	San Marcos la Laguna 	11	San Marcos la laguna 	1	Enero	2023-01-17T00:00:00	2024-11-08T01:00:00	6	Velocidad del viento	8
171390	7	Sololá	716	San Marcos la Laguna 	11	San Marcos la laguna 	1	Enero	2023-01-17T00:00:00	2024-11-08T01:00:00	7	Dirección del viento	8.05
171391	7	Sololá	716	San Marcos la Laguna 	11	San Marcos la laguna 	1	Enero	2023-01-17T00:00:00	2024-11-08T01:00:00	1	Precipitación	0
171392	7	Sololá	716	San Marcos la Laguna 	11	San Marcos la laguna 	1	Enero	2023-01-17T00:00:00	2024-11-08T01:00:00	8	Radiación solar	0
171393	7	Sololá	716	San Marcos la Laguna 	11	San Marcos la laguna 	1	Enero	2023-01-17T00:00:00	2024-11-08T02:00:00	2	Temperatura media	17.4
171394	7	Sololá	716	San Marcos la Laguna 	11	San Marcos la laguna 	1	Enero	2023-01-17T00:00:00	2024-11-08T02:00:00	4	Temperatura máxima	17.7
171395	7	Sololá	716	San Marcos la Laguna 	11	San Marcos la laguna 	1	Enero	2023-01-17T00:00:00	2024-11-08T02:00:00	3	Temperatura mínima	17.3
171396	7	Sololá	716	San Marcos la Laguna 	11	San Marcos la laguna 	1	Enero	2023-01-17T00:00:00	2024-11-08T02:00:00	5	Humedad	85
171397	7	Sololá	716	San Marcos la Laguna 	11	San Marcos la laguna 	1	Enero	2023-01-17T00:00:00	2024-11-08T02:00:00	6	Velocidad del viento	1.6
171398	7	Sololá	716	San Marcos la Laguna 	11	San Marcos la laguna 	1	Enero	2023-01-17T00:00:00	2024-11-08T02:00:00	7	Dirección del viento	1.61
171399	7	Sololá	716	San Marcos la Laguna 	11	San Marcos la laguna 	1	Enero	2023-01-17T00:00:00	2024-11-08T02:00:00	1	Precipitación	0
171400	7	Sololá	716	San Marcos la Laguna 	11	San Marcos la laguna 	1	Enero	2023-01-17T00:00:00	2024-11-08T02:00:00	8	Radiación solar	0
171401	7	Sololá	716	San Marcos la Laguna 	11	San Marcos la laguna 	1	Enero	2023-01-17T00:00:00	2024-11-08T03:00:00	2	Temperatura media	16.4
171402	7	Sololá	716	San Marcos la Laguna 	11	San Marcos la laguna 	1	Enero	2023-01-17T00:00:00	2024-11-08T03:00:00	4	Temperatura máxima	17.4
171403	7	Sololá	716	San Marcos la Laguna 	11	San Marcos la laguna 	1	Enero	2023-01-17T00:00:00	2024-11-08T03:00:00	3	Temperatura mínima	16.4
171404	7	Sololá	716	San Marcos la Laguna 	11	San Marcos la laguna 	1	Enero	2023-01-17T00:00:00	2024-11-08T03:00:00	5	Humedad	85
171405	7	Sololá	716	San Marcos la Laguna 	11	San Marcos la laguna 	1	Enero	2023-01-17T00:00:00	2024-11-08T03:00:00	6	Velocidad del viento	3.2
171406	7	Sololá	716	San Marcos la Laguna 	11	San Marcos la laguna 	1	Enero	2023-01-17T00:00:00	2024-11-08T03:00:00	7	Dirección del viento	3.22
171407	7	Sololá	716	San Marcos la Laguna 	11	San Marcos la laguna 	1	Enero	2023-01-17T00:00:00	2024-11-08T03:00:00	1	Precipitación	0
171408	7	Sololá	716	San Marcos la Laguna 	11	San Marcos la laguna 	1	Enero	2023-01-17T00:00:00	2024-11-08T03:00:00	8	Radiación solar	0
171409	7	Sololá	716	San Marcos la Laguna 	11	San Marcos la laguna 	1	Enero	2023-01-17T00:00:00	2024-11-08T04:00:00	2	Temperatura media	15.4
171410	7	Sololá	716	San Marcos la Laguna 	11	San Marcos la laguna 	1	Enero	2023-01-17T00:00:00	2024-11-08T04:00:00	4	Temperatura máxima	16.4
171411	7	Sololá	716	San Marcos la Laguna 	11	San Marcos la laguna 	1	Enero	2023-01-17T00:00:00	2024-11-08T04:00:00	3	Temperatura mínima	15.4
171412	7	Sololá	716	San Marcos la Laguna 	11	San Marcos la laguna 	1	Enero	2023-01-17T00:00:00	2024-11-08T04:00:00	5	Humedad	82
171413	7	Sololá	716	San Marcos la Laguna 	11	San Marcos la laguna 	1	Enero	2023-01-17T00:00:00	2024-11-08T04:00:00	6	Velocidad del viento	6.4
171414	7	Sololá	716	San Marcos la Laguna 	11	San Marcos la laguna 	1	Enero	2023-01-17T00:00:00	2024-11-08T04:00:00	7	Dirección del viento	6.44
171415	7	Sololá	716	San Marcos la Laguna 	11	San Marcos la laguna 	1	Enero	2023-01-17T00:00:00	2024-11-08T04:00:00	1	Precipitación	0
171416	7	Sololá	716	San Marcos la Laguna 	11	San Marcos la laguna 	1	Enero	2023-01-17T00:00:00	2024-11-08T04:00:00	8	Radiación solar	0
171417	7	Sololá	716	San Marcos la Laguna 	11	San Marcos la laguna 	1	Enero	2023-01-17T00:00:00	2024-11-08T05:00:00	2	Temperatura media	14.6
171418	7	Sololá	716	San Marcos la Laguna 	11	San Marcos la laguna 	1	Enero	2023-01-17T00:00:00	2024-11-08T05:00:00	4	Temperatura máxima	15.4
171419	7	Sololá	716	San Marcos la Laguna 	11	San Marcos la laguna 	1	Enero	2023-01-17T00:00:00	2024-11-08T05:00:00	3	Temperatura mínima	14.6
171420	7	Sololá	716	San Marcos la Laguna 	11	San Marcos la laguna 	1	Enero	2023-01-17T00:00:00	2024-11-08T05:00:00	5	Humedad	83
171421	7	Sololá	716	San Marcos la Laguna 	11	San Marcos la laguna 	1	Enero	2023-01-17T00:00:00	2024-11-08T05:00:00	6	Velocidad del viento	6.4
171422	7	Sololá	716	San Marcos la Laguna 	11	San Marcos la laguna 	1	Enero	2023-01-17T00:00:00	2024-11-08T05:00:00	7	Dirección del viento	6.44
171423	7	Sololá	716	San Marcos la Laguna 	11	San Marcos la laguna 	1	Enero	2023-01-17T00:00:00	2024-11-08T05:00:00	1	Precipitación	0
171424	7	Sololá	716	San Marcos la Laguna 	11	San Marcos la laguna 	1	Enero	2023-01-17T00:00:00	2024-11-08T05:00:00	8	Radiación solar	0
171425	7	Sololá	716	San Marcos la Laguna 	11	San Marcos la laguna 	1	Enero	2023-01-17T00:00:00	2024-11-08T06:00:00	2	Temperatura media	14.4
171426	7	Sololá	716	San Marcos la Laguna 	11	San Marcos la laguna 	1	Enero	2023-01-17T00:00:00	2024-11-08T06:00:00	4	Temperatura máxima	14.8
171427	7	Sololá	716	San Marcos la Laguna 	11	San Marcos la laguna 	1	Enero	2023-01-17T00:00:00	2024-11-08T06:00:00	3	Temperatura mínima	14.2
171428	7	Sololá	716	San Marcos la Laguna 	11	San Marcos la laguna 	1	Enero	2023-01-17T00:00:00	2024-11-08T06:00:00	5	Humedad	85
171429	7	Sololá	716	San Marcos la Laguna 	11	San Marcos la laguna 	1	Enero	2023-01-17T00:00:00	2024-11-08T06:00:00	6	Velocidad del viento	6.4
171430	7	Sololá	716	San Marcos la Laguna 	11	San Marcos la laguna 	1	Enero	2023-01-17T00:00:00	2024-11-08T06:00:00	7	Dirección del viento	6.44
171431	7	Sololá	716	San Marcos la Laguna 	11	San Marcos la laguna 	1	Enero	2023-01-17T00:00:00	2024-11-08T06:00:00	1	Precipitación	0
171432	7	Sololá	716	San Marcos la Laguna 	11	San Marcos la laguna 	1	Enero	2023-01-17T00:00:00	2024-11-08T06:00:00	8	Radiación solar	0
171433	7	Sololá	716	San Marcos la Laguna 	11	San Marcos la laguna 	1	Enero	2023-01-17T00:00:00	2024-11-08T07:00:00	2	Temperatura media	14.8
171434	7	Sololá	716	San Marcos la Laguna 	11	San Marcos la laguna 	1	Enero	2023-01-17T00:00:00	2024-11-08T07:00:00	4	Temperatura máxima	14.8
171435	7	Sololá	716	San Marcos la Laguna 	11	San Marcos la laguna 	1	Enero	2023-01-17T00:00:00	2024-11-08T07:00:00	3	Temperatura mínima	13.8
171436	7	Sololá	716	San Marcos la Laguna 	11	San Marcos la laguna 	1	Enero	2023-01-17T00:00:00	2024-11-08T07:00:00	5	Humedad	84
171437	7	Sololá	716	San Marcos la Laguna 	11	San Marcos la laguna 	1	Enero	2023-01-17T00:00:00	2024-11-08T07:00:00	6	Velocidad del viento	6.4
171438	7	Sololá	716	San Marcos la Laguna 	11	San Marcos la laguna 	1	Enero	2023-01-17T00:00:00	2024-11-08T07:00:00	7	Dirección del viento	6.44
171439	7	Sololá	716	San Marcos la Laguna 	11	San Marcos la laguna 	1	Enero	2023-01-17T00:00:00	2024-11-08T07:00:00	1	Precipitación	0
171440	7	Sololá	716	San Marcos la Laguna 	11	San Marcos la laguna 	1	Enero	2023-01-17T00:00:00	2024-11-08T07:00:00	8	Radiación solar	5
171441	7	Sololá	716	San Marcos la Laguna 	11	San Marcos la laguna 	1	Enero	2023-01-17T00:00:00	2024-11-08T08:00:00	2	Temperatura media	16.4
171442	7	Sololá	716	San Marcos la Laguna 	11	San Marcos la laguna 	1	Enero	2023-01-17T00:00:00	2024-11-08T08:00:00	4	Temperatura máxima	16.4
171443	7	Sololá	716	San Marcos la Laguna 	11	San Marcos la laguna 	1	Enero	2023-01-17T00:00:00	2024-11-08T08:00:00	3	Temperatura mínima	14.7
171444	7	Sololá	716	San Marcos la Laguna 	11	San Marcos la laguna 	1	Enero	2023-01-17T00:00:00	2024-11-08T08:00:00	5	Humedad	84
171445	7	Sololá	716	San Marcos la Laguna 	11	San Marcos la laguna 	1	Enero	2023-01-17T00:00:00	2024-11-08T08:00:00	6	Velocidad del viento	3.2
171446	7	Sololá	716	San Marcos la Laguna 	11	San Marcos la laguna 	1	Enero	2023-01-17T00:00:00	2024-11-08T08:00:00	7	Dirección del viento	3.22
171447	7	Sololá	716	San Marcos la Laguna 	11	San Marcos la laguna 	1	Enero	2023-01-17T00:00:00	2024-11-08T08:00:00	1	Precipitación	0
171448	7	Sololá	716	San Marcos la Laguna 	11	San Marcos la laguna 	1	Enero	2023-01-17T00:00:00	2024-11-08T08:00:00	8	Radiación solar	87
171449	7	Sololá	716	San Marcos la Laguna 	11	San Marcos la laguna 	1	Enero	2023-01-17T00:00:00	2024-11-08T09:00:00	2	Temperatura media	18.5
171450	7	Sololá	716	San Marcos la Laguna 	11	San Marcos la laguna 	1	Enero	2023-01-17T00:00:00	2024-11-08T09:00:00	4	Temperatura máxima	18.6
171451	7	Sololá	716	San Marcos la Laguna 	11	San Marcos la laguna 	1	Enero	2023-01-17T00:00:00	2024-11-08T09:00:00	3	Temperatura mínima	16.5
171452	7	Sololá	716	San Marcos la Laguna 	11	San Marcos la laguna 	1	Enero	2023-01-17T00:00:00	2024-11-08T09:00:00	5	Humedad	77
171453	7	Sololá	716	San Marcos la Laguna 	11	San Marcos la laguna 	1	Enero	2023-01-17T00:00:00	2024-11-08T09:00:00	6	Velocidad del viento	3.2
171454	7	Sololá	716	San Marcos la Laguna 	11	San Marcos la laguna 	1	Enero	2023-01-17T00:00:00	2024-11-08T09:00:00	7	Dirección del viento	3.22
171455	7	Sololá	716	San Marcos la Laguna 	11	San Marcos la laguna 	1	Enero	2023-01-17T00:00:00	2024-11-08T09:00:00	1	Precipitación	0
171456	7	Sololá	716	San Marcos la Laguna 	11	San Marcos la laguna 	1	Enero	2023-01-17T00:00:00	2024-11-08T09:00:00	8	Radiación solar	297
171457	7	Sololá	716	San Marcos la Laguna 	11	San Marcos la laguna 	1	Enero	2023-01-17T00:00:00	2024-11-08T10:00:00	2	Temperatura media	18.9
171458	7	Sololá	716	San Marcos la Laguna 	11	San Marcos la laguna 	1	Enero	2023-01-17T00:00:00	2024-11-08T10:00:00	4	Temperatura máxima	18.9
171459	7	Sololá	716	San Marcos la Laguna 	11	San Marcos la laguna 	1	Enero	2023-01-17T00:00:00	2024-11-08T10:00:00	3	Temperatura mínima	18.4
171460	7	Sololá	716	San Marcos la Laguna 	11	San Marcos la laguna 	1	Enero	2023-01-17T00:00:00	2024-11-08T10:00:00	5	Humedad	78
171461	7	Sololá	716	San Marcos la Laguna 	11	San Marcos la laguna 	1	Enero	2023-01-17T00:00:00	2024-11-08T10:00:00	6	Velocidad del viento	4.8
171462	7	Sololá	716	San Marcos la Laguna 	11	San Marcos la laguna 	1	Enero	2023-01-17T00:00:00	2024-11-08T10:00:00	7	Dirección del viento	4.83
171463	7	Sololá	716	San Marcos la Laguna 	11	San Marcos la laguna 	1	Enero	2023-01-17T00:00:00	2024-11-08T10:00:00	1	Precipitación	0
171464	7	Sololá	716	San Marcos la Laguna 	11	San Marcos la laguna 	1	Enero	2023-01-17T00:00:00	2024-11-08T10:00:00	8	Radiación solar	489
171465	7	Sololá	716	San Marcos la Laguna 	11	San Marcos la laguna 	1	Enero	2023-01-17T00:00:00	2024-11-08T11:00:00	2	Temperatura media	19.3
171466	7	Sololá	716	San Marcos la Laguna 	11	San Marcos la laguna 	1	Enero	2023-01-17T00:00:00	2024-11-08T11:00:00	4	Temperatura máxima	19.6
171467	7	Sololá	716	San Marcos la Laguna 	11	San Marcos la laguna 	1	Enero	2023-01-17T00:00:00	2024-11-08T11:00:00	3	Temperatura mínima	18.8
171468	7	Sololá	716	San Marcos la Laguna 	11	San Marcos la laguna 	1	Enero	2023-01-17T00:00:00	2024-11-08T11:00:00	5	Humedad	75
171469	7	Sololá	716	San Marcos la Laguna 	11	San Marcos la laguna 	1	Enero	2023-01-17T00:00:00	2024-11-08T11:00:00	6	Velocidad del viento	6.4
171470	7	Sololá	716	San Marcos la Laguna 	11	San Marcos la laguna 	1	Enero	2023-01-17T00:00:00	2024-11-08T11:00:00	7	Dirección del viento	6.44
171471	7	Sololá	716	San Marcos la Laguna 	11	San Marcos la laguna 	1	Enero	2023-01-17T00:00:00	2024-11-08T11:00:00	1	Precipitación	0
171472	7	Sololá	716	San Marcos la Laguna 	11	San Marcos la laguna 	1	Enero	2023-01-17T00:00:00	2024-11-08T11:00:00	8	Radiación solar	550
171473	7	Sololá	716	San Marcos la Laguna 	11	San Marcos la laguna 	1	Enero	2023-01-17T00:00:00	2024-11-08T12:00:00	2	Temperatura media	20.5
171474	7	Sololá	716	San Marcos la Laguna 	11	San Marcos la laguna 	1	Enero	2023-01-17T00:00:00	2024-11-08T12:00:00	4	Temperatura máxima	20.5
171475	7	Sololá	716	San Marcos la Laguna 	11	San Marcos la laguna 	1	Enero	2023-01-17T00:00:00	2024-11-08T12:00:00	3	Temperatura mínima	19.3
171476	7	Sololá	716	San Marcos la Laguna 	11	San Marcos la laguna 	1	Enero	2023-01-17T00:00:00	2024-11-08T12:00:00	5	Humedad	69
171477	7	Sololá	716	San Marcos la Laguna 	11	San Marcos la laguna 	1	Enero	2023-01-17T00:00:00	2024-11-08T12:00:00	6	Velocidad del viento	9.7
171478	7	Sololá	716	San Marcos la Laguna 	11	San Marcos la laguna 	1	Enero	2023-01-17T00:00:00	2024-11-08T12:00:00	7	Dirección del viento	9.66
171479	7	Sololá	716	San Marcos la Laguna 	11	San Marcos la laguna 	1	Enero	2023-01-17T00:00:00	2024-11-08T12:00:00	1	Precipitación	0
171480	7	Sololá	716	San Marcos la Laguna 	11	San Marcos la laguna 	1	Enero	2023-01-17T00:00:00	2024-11-08T12:00:00	8	Radiación solar	702
171481	7	Sololá	716	San Marcos la Laguna 	11	San Marcos la laguna 	1	Enero	2023-01-17T00:00:00	2024-11-08T13:00:00	2	Temperatura media	20.8
171482	7	Sololá	716	San Marcos la Laguna 	11	San Marcos la laguna 	1	Enero	2023-01-17T00:00:00	2024-11-08T13:00:00	4	Temperatura máxima	20.8
171483	7	Sololá	716	San Marcos la Laguna 	11	San Marcos la laguna 	1	Enero	2023-01-17T00:00:00	2024-11-08T13:00:00	3	Temperatura mínima	20.4
171484	7	Sololá	716	San Marcos la Laguna 	11	San Marcos la laguna 	1	Enero	2023-01-17T00:00:00	2024-11-08T13:00:00	5	Humedad	72
171485	7	Sololá	716	San Marcos la Laguna 	11	San Marcos la laguna 	1	Enero	2023-01-17T00:00:00	2024-11-08T13:00:00	6	Velocidad del viento	12.9
171486	7	Sololá	716	San Marcos la Laguna 	11	San Marcos la laguna 	1	Enero	2023-01-17T00:00:00	2024-11-08T13:00:00	7	Dirección del viento	12.87
171487	7	Sololá	716	San Marcos la Laguna 	11	San Marcos la laguna 	1	Enero	2023-01-17T00:00:00	2024-11-08T13:00:00	1	Precipitación	0
171488	7	Sololá	716	San Marcos la Laguna 	11	San Marcos la laguna 	1	Enero	2023-01-17T00:00:00	2024-11-08T13:00:00	8	Radiación solar	746
171489	7	Sololá	716	San Marcos la Laguna 	11	San Marcos la laguna 	1	Enero	2023-01-17T00:00:00	2024-11-08T14:00:00	2	Temperatura media	20.4
171490	7	Sololá	716	San Marcos la Laguna 	11	San Marcos la laguna 	1	Enero	2023-01-17T00:00:00	2024-11-08T14:00:00	4	Temperatura máxima	22.2
171491	7	Sololá	716	San Marcos la Laguna 	11	San Marcos la laguna 	1	Enero	2023-01-17T00:00:00	2024-11-08T14:00:00	3	Temperatura mínima	20.4
171492	7	Sololá	716	San Marcos la Laguna 	11	San Marcos la laguna 	1	Enero	2023-01-17T00:00:00	2024-11-08T14:00:00	5	Humedad	72
171493	7	Sololá	716	San Marcos la Laguna 	11	San Marcos la laguna 	1	Enero	2023-01-17T00:00:00	2024-11-08T14:00:00	6	Velocidad del viento	6.4
171494	7	Sololá	716	San Marcos la Laguna 	11	San Marcos la laguna 	1	Enero	2023-01-17T00:00:00	2024-11-08T14:00:00	7	Dirección del viento	6.44
171495	7	Sololá	716	San Marcos la Laguna 	11	San Marcos la laguna 	1	Enero	2023-01-17T00:00:00	2024-11-08T14:00:00	1	Precipitación	0
171496	7	Sololá	716	San Marcos la Laguna 	11	San Marcos la laguna 	1	Enero	2023-01-17T00:00:00	2024-11-08T14:00:00	8	Radiación solar	485
171497	7	Sololá	716	San Marcos la Laguna 	11	San Marcos la laguna 	1	Enero	2023-01-17T00:00:00	2024-11-08T15:00:00	2	Temperatura media	20.4
171498	7	Sololá	716	San Marcos la Laguna 	11	San Marcos la laguna 	1	Enero	2023-01-17T00:00:00	2024-11-08T15:00:00	4	Temperatura máxima	20.7
171499	7	Sololá	716	San Marcos la Laguna 	11	San Marcos la laguna 	1	Enero	2023-01-17T00:00:00	2024-11-08T15:00:00	3	Temperatura mínima	19.9
171500	7	Sololá	716	San Marcos la Laguna 	11	San Marcos la laguna 	1	Enero	2023-01-17T00:00:00	2024-11-08T15:00:00	5	Humedad	74
171501	7	Sololá	716	San Marcos la Laguna 	11	San Marcos la laguna 	1	Enero	2023-01-17T00:00:00	2024-11-08T15:00:00	6	Velocidad del viento	6.4
171502	7	Sololá	716	San Marcos la Laguna 	11	San Marcos la laguna 	1	Enero	2023-01-17T00:00:00	2024-11-08T15:00:00	7	Dirección del viento	6.44
171503	7	Sololá	716	San Marcos la Laguna 	11	San Marcos la laguna 	1	Enero	2023-01-17T00:00:00	2024-11-08T15:00:00	1	Precipitación	0
171504	7	Sololá	716	San Marcos la Laguna 	11	San Marcos la laguna 	1	Enero	2023-01-17T00:00:00	2024-11-08T15:00:00	8	Radiación solar	165
171505	7	Sololá	716	San Marcos la Laguna 	11	San Marcos la laguna 	1	Enero	2023-01-17T00:00:00	2024-11-08T16:00:00	2	Temperatura media	20
171506	7	Sololá	716	San Marcos la Laguna 	11	San Marcos la laguna 	1	Enero	2023-01-17T00:00:00	2024-11-08T16:00:00	4	Temperatura máxima	20.4
171507	7	Sololá	716	San Marcos la Laguna 	11	San Marcos la laguna 	1	Enero	2023-01-17T00:00:00	2024-11-08T16:00:00	3	Temperatura mínima	20
171508	7	Sololá	716	San Marcos la Laguna 	11	San Marcos la laguna 	1	Enero	2023-01-17T00:00:00	2024-11-08T16:00:00	5	Humedad	80
171509	7	Sololá	716	San Marcos la Laguna 	11	San Marcos la laguna 	1	Enero	2023-01-17T00:00:00	2024-11-08T16:00:00	6	Velocidad del viento	4.8
171510	7	Sololá	716	San Marcos la Laguna 	11	San Marcos la laguna 	1	Enero	2023-01-17T00:00:00	2024-11-08T16:00:00	7	Dirección del viento	4.83
171511	7	Sololá	716	San Marcos la Laguna 	11	San Marcos la laguna 	1	Enero	2023-01-17T00:00:00	2024-11-08T16:00:00	1	Precipitación	0
171512	7	Sololá	716	San Marcos la Laguna 	11	San Marcos la laguna 	1	Enero	2023-01-17T00:00:00	2024-11-08T16:00:00	8	Radiación solar	122
171513	7	Sololá	716	San Marcos la Laguna 	11	San Marcos la laguna 	1	Enero	2023-01-17T00:00:00	2024-11-08T17:00:00	2	Temperatura media	19.4
171514	7	Sololá	716	San Marcos la Laguna 	11	San Marcos la laguna 	1	Enero	2023-01-17T00:00:00	2024-11-08T17:00:00	4	Temperatura máxima	20.2
171515	7	Sololá	716	San Marcos la Laguna 	11	San Marcos la laguna 	1	Enero	2023-01-17T00:00:00	2024-11-08T17:00:00	3	Temperatura mínima	19.4
171516	7	Sololá	716	San Marcos la Laguna 	11	San Marcos la laguna 	1	Enero	2023-01-17T00:00:00	2024-11-08T17:00:00	5	Humedad	81
171517	7	Sololá	716	San Marcos la Laguna 	11	San Marcos la laguna 	1	Enero	2023-01-17T00:00:00	2024-11-08T17:00:00	6	Velocidad del viento	4.8
171518	7	Sololá	716	San Marcos la Laguna 	11	San Marcos la laguna 	1	Enero	2023-01-17T00:00:00	2024-11-08T17:00:00	7	Dirección del viento	4.83
171519	7	Sololá	716	San Marcos la Laguna 	11	San Marcos la laguna 	1	Enero	2023-01-17T00:00:00	2024-11-08T17:00:00	1	Precipitación	0
171520	7	Sololá	716	San Marcos la Laguna 	11	San Marcos la laguna 	1	Enero	2023-01-17T00:00:00	2024-11-08T17:00:00	8	Radiación solar	105
171521	7	Sololá	716	San Marcos la Laguna 	11	San Marcos la laguna 	1	Enero	2023-01-17T00:00:00	2024-11-08T18:00:00	2	Temperatura media	18.9
171522	7	Sololá	716	San Marcos la Laguna 	11	San Marcos la laguna 	1	Enero	2023-01-17T00:00:00	2024-11-08T18:00:00	4	Temperatura máxima	19.4
171523	7	Sololá	716	San Marcos la Laguna 	11	San Marcos la laguna 	1	Enero	2023-01-17T00:00:00	2024-11-08T18:00:00	3	Temperatura mínima	18.8
171524	7	Sololá	716	San Marcos la Laguna 	11	San Marcos la laguna 	1	Enero	2023-01-17T00:00:00	2024-11-08T18:00:00	5	Humedad	83
171525	7	Sololá	716	San Marcos la Laguna 	11	San Marcos la laguna 	1	Enero	2023-01-17T00:00:00	2024-11-08T18:00:00	6	Velocidad del viento	4.8
171526	7	Sololá	716	San Marcos la Laguna 	11	San Marcos la laguna 	1	Enero	2023-01-17T00:00:00	2024-11-08T18:00:00	7	Dirección del viento	4.83
171527	7	Sololá	716	San Marcos la Laguna 	11	San Marcos la laguna 	1	Enero	2023-01-17T00:00:00	2024-11-08T18:00:00	1	Precipitación	0
171528	7	Sololá	716	San Marcos la Laguna 	11	San Marcos la laguna 	1	Enero	2023-01-17T00:00:00	2024-11-08T18:00:00	8	Radiación solar	8
171529	7	Sololá	716	San Marcos la Laguna 	11	San Marcos la laguna 	1	Enero	2023-01-17T00:00:00	2024-11-08T19:00:00	2	Temperatura media	18.4
171530	7	Sololá	716	San Marcos la Laguna 	11	San Marcos la laguna 	1	Enero	2023-01-17T00:00:00	2024-11-08T19:00:00	4	Temperatura máxima	18.9
171531	7	Sololá	716	San Marcos la Laguna 	11	San Marcos la laguna 	1	Enero	2023-01-17T00:00:00	2024-11-08T19:00:00	3	Temperatura mínima	18.4
171532	7	Sololá	716	San Marcos la Laguna 	11	San Marcos la laguna 	1	Enero	2023-01-17T00:00:00	2024-11-08T19:00:00	5	Humedad	84
171533	7	Sololá	716	San Marcos la Laguna 	11	San Marcos la laguna 	1	Enero	2023-01-17T00:00:00	2024-11-08T19:00:00	6	Velocidad del viento	6.4
171534	7	Sololá	716	San Marcos la Laguna 	11	San Marcos la laguna 	1	Enero	2023-01-17T00:00:00	2024-11-08T19:00:00	7	Dirección del viento	6.44
171535	7	Sololá	716	San Marcos la Laguna 	11	San Marcos la laguna 	1	Enero	2023-01-17T00:00:00	2024-11-08T19:00:00	1	Precipitación	0
171536	7	Sololá	716	San Marcos la Laguna 	11	San Marcos la laguna 	1	Enero	2023-01-17T00:00:00	2024-11-08T19:00:00	8	Radiación solar	0
171537	7	Sololá	716	San Marcos la Laguna 	11	San Marcos la laguna 	1	Enero	2023-01-17T00:00:00	2024-11-08T20:00:00	2	Temperatura media	17.7
171538	7	Sololá	716	San Marcos la Laguna 	11	San Marcos la laguna 	1	Enero	2023-01-17T00:00:00	2024-11-08T20:00:00	4	Temperatura máxima	18.4
171539	7	Sololá	716	San Marcos la Laguna 	11	San Marcos la laguna 	1	Enero	2023-01-17T00:00:00	2024-11-08T20:00:00	3	Temperatura mínima	17.4
171540	7	Sololá	716	San Marcos la Laguna 	11	San Marcos la laguna 	1	Enero	2023-01-17T00:00:00	2024-11-08T20:00:00	5	Humedad	86
171541	7	Sololá	716	San Marcos la Laguna 	11	San Marcos la laguna 	1	Enero	2023-01-17T00:00:00	2024-11-08T20:00:00	6	Velocidad del viento	1.6
171542	7	Sololá	716	San Marcos la Laguna 	11	San Marcos la laguna 	1	Enero	2023-01-17T00:00:00	2024-11-08T20:00:00	7	Dirección del viento	1.61
171543	7	Sololá	716	San Marcos la Laguna 	11	San Marcos la laguna 	1	Enero	2023-01-17T00:00:00	2024-11-08T20:00:00	1	Precipitación	0
171544	7	Sololá	716	San Marcos la Laguna 	11	San Marcos la laguna 	1	Enero	2023-01-17T00:00:00	2024-11-08T20:00:00	8	Radiación solar	0
171545	7	Sololá	716	San Marcos la Laguna 	11	San Marcos la laguna 	1	Enero	2023-01-17T00:00:00	2024-11-08T21:00:00	2	Temperatura media	17.2
171546	7	Sololá	716	San Marcos la Laguna 	11	San Marcos la laguna 	1	Enero	2023-01-17T00:00:00	2024-11-08T21:00:00	4	Temperatura máxima	18
171547	7	Sololá	716	San Marcos la Laguna 	11	San Marcos la laguna 	1	Enero	2023-01-17T00:00:00	2024-11-08T21:00:00	3	Temperatura mínima	17.2
171548	7	Sololá	716	San Marcos la Laguna 	11	San Marcos la laguna 	1	Enero	2023-01-17T00:00:00	2024-11-08T21:00:00	5	Humedad	82
171549	7	Sololá	716	San Marcos la Laguna 	11	San Marcos la laguna 	1	Enero	2023-01-17T00:00:00	2024-11-08T21:00:00	6	Velocidad del viento	1.6
171550	7	Sololá	716	San Marcos la Laguna 	11	San Marcos la laguna 	1	Enero	2023-01-17T00:00:00	2024-11-08T21:00:00	7	Dirección del viento	1.61
171551	7	Sololá	716	San Marcos la Laguna 	11	San Marcos la laguna 	1	Enero	2023-01-17T00:00:00	2024-11-08T21:00:00	1	Precipitación	0
171552	7	Sololá	716	San Marcos la Laguna 	11	San Marcos la laguna 	1	Enero	2023-01-17T00:00:00	2024-11-08T21:00:00	8	Radiación solar	0
171553	7	Sololá	716	San Marcos la Laguna 	11	San Marcos la laguna 	1	Enero	2023-01-17T00:00:00	2024-11-08T22:00:00	2	Temperatura media	17.6
171554	7	Sololá	716	San Marcos la Laguna 	11	San Marcos la laguna 	1	Enero	2023-01-17T00:00:00	2024-11-08T22:00:00	4	Temperatura máxima	17.6
171555	7	Sololá	716	San Marcos la Laguna 	11	San Marcos la laguna 	1	Enero	2023-01-17T00:00:00	2024-11-08T22:00:00	3	Temperatura mínima	16.7
171556	7	Sololá	716	San Marcos la Laguna 	11	San Marcos la laguna 	1	Enero	2023-01-17T00:00:00	2024-11-08T22:00:00	5	Humedad	81
171557	7	Sololá	716	San Marcos la Laguna 	11	San Marcos la laguna 	1	Enero	2023-01-17T00:00:00	2024-11-08T22:00:00	6	Velocidad del viento	3.2
171558	7	Sololá	716	San Marcos la Laguna 	11	San Marcos la laguna 	1	Enero	2023-01-17T00:00:00	2024-11-08T22:00:00	7	Dirección del viento	3.22
171559	7	Sololá	716	San Marcos la Laguna 	11	San Marcos la laguna 	1	Enero	2023-01-17T00:00:00	2024-11-08T22:00:00	1	Precipitación	0
171560	7	Sololá	716	San Marcos la Laguna 	11	San Marcos la laguna 	1	Enero	2023-01-17T00:00:00	2024-11-08T22:00:00	8	Radiación solar	0
171561	7	Sololá	716	San Marcos la Laguna 	11	San Marcos la laguna 	1	Enero	2023-01-17T00:00:00	2024-11-08T23:00:00	2	Temperatura media	17.7
171562	7	Sololá	716	San Marcos la Laguna 	11	San Marcos la laguna 	1	Enero	2023-01-17T00:00:00	2024-11-08T23:00:00	4	Temperatura máxima	17.8
171563	7	Sololá	716	San Marcos la Laguna 	11	San Marcos la laguna 	1	Enero	2023-01-17T00:00:00	2024-11-08T23:00:00	3	Temperatura mínima	17.6
171564	7	Sololá	716	San Marcos la Laguna 	11	San Marcos la laguna 	1	Enero	2023-01-17T00:00:00	2024-11-08T23:00:00	5	Humedad	86
171565	7	Sololá	716	San Marcos la Laguna 	11	San Marcos la laguna 	1	Enero	2023-01-17T00:00:00	2024-11-08T23:00:00	6	Velocidad del viento	3.2
171566	7	Sololá	716	San Marcos la Laguna 	11	San Marcos la laguna 	1	Enero	2023-01-17T00:00:00	2024-11-08T23:00:00	7	Dirección del viento	3.22
171567	7	Sololá	716	San Marcos la Laguna 	11	San Marcos la laguna 	1	Enero	2023-01-17T00:00:00	2024-11-08T23:00:00	1	Precipitación	0
171568	7	Sololá	716	San Marcos la Laguna 	11	San Marcos la laguna 	1	Enero	2023-01-17T00:00:00	2024-11-08T23:00:00	8	Radiación solar	0
171569	7	Sololá	716	San Marcos la Laguna 	11	San Marcos la laguna 	1	Enero	2023-01-18T00:00:00	2024-11-08T00:00:00	2	Temperatura media	17.6
171570	7	Sololá	716	San Marcos la Laguna 	11	San Marcos la laguna 	1	Enero	2023-01-18T00:00:00	2024-11-08T00:00:00	4	Temperatura máxima	17.8
171571	7	Sololá	716	San Marcos la Laguna 	11	San Marcos la laguna 	1	Enero	2023-01-18T00:00:00	2024-11-08T00:00:00	3	Temperatura mínima	17.6
171572	7	Sololá	716	San Marcos la Laguna 	11	San Marcos la laguna 	1	Enero	2023-01-18T00:00:00	2024-11-08T00:00:00	5	Humedad	87
171573	7	Sololá	716	San Marcos la Laguna 	11	San Marcos la laguna 	1	Enero	2023-01-18T00:00:00	2024-11-08T00:00:00	6	Velocidad del viento	3.2
171574	7	Sololá	716	San Marcos la Laguna 	11	San Marcos la laguna 	1	Enero	2023-01-18T00:00:00	2024-11-08T00:00:00	7	Dirección del viento	3.22
171575	7	Sololá	716	San Marcos la Laguna 	11	San Marcos la laguna 	1	Enero	2023-01-18T00:00:00	2024-11-08T00:00:00	1	Precipitación	0
171576	7	Sololá	716	San Marcos la Laguna 	11	San Marcos la laguna 	1	Enero	2023-01-18T00:00:00	2024-11-08T00:00:00	8	Radiación solar	0
171577	7	Sololá	716	San Marcos la Laguna 	11	San Marcos la laguna 	1	Enero	2023-01-18T00:00:00	2024-11-08T01:00:00	2	Temperatura media	16.9
171578	7	Sololá	716	San Marcos la Laguna 	11	San Marcos la laguna 	1	Enero	2023-01-18T00:00:00	2024-11-08T01:00:00	4	Temperatura máxima	17.6
171579	7	Sololá	716	San Marcos la Laguna 	11	San Marcos la laguna 	1	Enero	2023-01-18T00:00:00	2024-11-08T01:00:00	3	Temperatura mínima	16.9
171580	7	Sololá	716	San Marcos la Laguna 	11	San Marcos la laguna 	1	Enero	2023-01-18T00:00:00	2024-11-08T01:00:00	5	Humedad	87
171581	7	Sololá	716	San Marcos la Laguna 	11	San Marcos la laguna 	1	Enero	2023-01-18T00:00:00	2024-11-08T01:00:00	6	Velocidad del viento	3.2
171582	7	Sololá	716	San Marcos la Laguna 	11	San Marcos la laguna 	1	Enero	2023-01-18T00:00:00	2024-11-08T01:00:00	7	Dirección del viento	3.22
171583	7	Sololá	716	San Marcos la Laguna 	11	San Marcos la laguna 	1	Enero	2023-01-18T00:00:00	2024-11-08T01:00:00	1	Precipitación	0
171584	7	Sololá	716	San Marcos la Laguna 	11	San Marcos la laguna 	1	Enero	2023-01-18T00:00:00	2024-11-08T01:00:00	8	Radiación solar	0
171585	7	Sololá	716	San Marcos la Laguna 	11	San Marcos la laguna 	1	Enero	2023-01-18T00:00:00	2024-11-08T02:00:00	2	Temperatura media	15.3
171586	7	Sololá	716	San Marcos la Laguna 	11	San Marcos la laguna 	1	Enero	2023-01-18T00:00:00	2024-11-08T02:00:00	4	Temperatura máxima	17
171587	7	Sololá	716	San Marcos la Laguna 	11	San Marcos la laguna 	1	Enero	2023-01-18T00:00:00	2024-11-08T02:00:00	3	Temperatura mínima	15.3
171588	7	Sololá	716	San Marcos la Laguna 	11	San Marcos la laguna 	1	Enero	2023-01-18T00:00:00	2024-11-08T02:00:00	5	Humedad	88
171589	7	Sololá	716	San Marcos la Laguna 	11	San Marcos la laguna 	1	Enero	2023-01-18T00:00:00	2024-11-08T02:00:00	6	Velocidad del viento	4.8
171590	7	Sololá	716	San Marcos la Laguna 	11	San Marcos la laguna 	1	Enero	2023-01-18T00:00:00	2024-11-08T02:00:00	7	Dirección del viento	4.83
171591	7	Sololá	716	San Marcos la Laguna 	11	San Marcos la laguna 	1	Enero	2023-01-18T00:00:00	2024-11-08T02:00:00	1	Precipitación	0
171592	7	Sololá	716	San Marcos la Laguna 	11	San Marcos la laguna 	1	Enero	2023-01-18T00:00:00	2024-11-08T02:00:00	8	Radiación solar	0
171593	7	Sololá	716	San Marcos la Laguna 	11	San Marcos la laguna 	1	Enero	2023-01-18T00:00:00	2024-11-08T03:00:00	2	Temperatura media	14.8
171594	7	Sololá	716	San Marcos la Laguna 	11	San Marcos la laguna 	1	Enero	2023-01-18T00:00:00	2024-11-08T03:00:00	4	Temperatura máxima	15.4
171595	7	Sololá	716	San Marcos la Laguna 	11	San Marcos la laguna 	1	Enero	2023-01-18T00:00:00	2024-11-08T03:00:00	3	Temperatura mínima	14.8
171596	7	Sololá	716	San Marcos la Laguna 	11	San Marcos la laguna 	1	Enero	2023-01-18T00:00:00	2024-11-08T03:00:00	5	Humedad	87
171597	7	Sololá	716	San Marcos la Laguna 	11	San Marcos la laguna 	1	Enero	2023-01-18T00:00:00	2024-11-08T03:00:00	6	Velocidad del viento	6.4
171598	7	Sololá	716	San Marcos la Laguna 	11	San Marcos la laguna 	1	Enero	2023-01-18T00:00:00	2024-11-08T03:00:00	7	Dirección del viento	6.44
171599	7	Sololá	716	San Marcos la Laguna 	11	San Marcos la laguna 	1	Enero	2023-01-18T00:00:00	2024-11-08T03:00:00	1	Precipitación	0
171600	7	Sololá	716	San Marcos la Laguna 	11	San Marcos la laguna 	1	Enero	2023-01-18T00:00:00	2024-11-08T03:00:00	8	Radiación solar	0
171601	7	Sololá	716	San Marcos la Laguna 	11	San Marcos la laguna 	1	Enero	2023-01-18T00:00:00	2024-11-08T04:00:00	2	Temperatura media	15.4
171602	7	Sololá	716	San Marcos la Laguna 	11	San Marcos la laguna 	1	Enero	2023-01-18T00:00:00	2024-11-08T04:00:00	4	Temperatura máxima	15.4
171603	7	Sololá	716	San Marcos la Laguna 	11	San Marcos la laguna 	1	Enero	2023-01-18T00:00:00	2024-11-08T04:00:00	3	Temperatura mínima	14.7
171604	7	Sololá	716	San Marcos la Laguna 	11	San Marcos la laguna 	1	Enero	2023-01-18T00:00:00	2024-11-08T04:00:00	5	Humedad	82
171605	7	Sololá	716	San Marcos la Laguna 	11	San Marcos la laguna 	1	Enero	2023-01-18T00:00:00	2024-11-08T04:00:00	6	Velocidad del viento	6.4
171606	7	Sololá	716	San Marcos la Laguna 	11	San Marcos la laguna 	1	Enero	2023-01-18T00:00:00	2024-11-08T04:00:00	7	Dirección del viento	6.44
171607	7	Sololá	716	San Marcos la Laguna 	11	San Marcos la laguna 	1	Enero	2023-01-18T00:00:00	2024-11-08T04:00:00	1	Precipitación	0
171608	7	Sololá	716	San Marcos la Laguna 	11	San Marcos la laguna 	1	Enero	2023-01-18T00:00:00	2024-11-08T04:00:00	8	Radiación solar	0
171609	7	Sololá	716	San Marcos la Laguna 	11	San Marcos la laguna 	1	Enero	2023-01-18T00:00:00	2024-11-08T05:00:00	2	Temperatura media	15.4
171610	7	Sololá	716	San Marcos la Laguna 	11	San Marcos la laguna 	1	Enero	2023-01-18T00:00:00	2024-11-08T05:00:00	4	Temperatura máxima	15.6
171611	7	Sololá	716	San Marcos la Laguna 	11	San Marcos la laguna 	1	Enero	2023-01-18T00:00:00	2024-11-08T05:00:00	3	Temperatura mínima	15.4
171612	7	Sololá	716	San Marcos la Laguna 	11	San Marcos la laguna 	1	Enero	2023-01-18T00:00:00	2024-11-08T05:00:00	5	Humedad	82
171613	7	Sololá	716	San Marcos la Laguna 	11	San Marcos la laguna 	1	Enero	2023-01-18T00:00:00	2024-11-08T05:00:00	6	Velocidad del viento	4.8
171614	7	Sololá	716	San Marcos la Laguna 	11	San Marcos la laguna 	1	Enero	2023-01-18T00:00:00	2024-11-08T05:00:00	7	Dirección del viento	4.83
171615	7	Sololá	716	San Marcos la Laguna 	11	San Marcos la laguna 	1	Enero	2023-01-18T00:00:00	2024-11-08T05:00:00	1	Precipitación	0
171616	7	Sololá	716	San Marcos la Laguna 	11	San Marcos la laguna 	1	Enero	2023-01-18T00:00:00	2024-11-08T05:00:00	8	Radiación solar	0
171617	7	Sololá	716	San Marcos la Laguna 	11	San Marcos la laguna 	1	Enero	2023-01-18T00:00:00	2024-11-08T06:00:00	2	Temperatura media	14.7
171618	7	Sololá	716	San Marcos la Laguna 	11	San Marcos la laguna 	1	Enero	2023-01-18T00:00:00	2024-11-08T06:00:00	4	Temperatura máxima	15.6
171619	7	Sololá	716	San Marcos la Laguna 	11	San Marcos la laguna 	1	Enero	2023-01-18T00:00:00	2024-11-08T06:00:00	3	Temperatura mínima	14.7
171620	7	Sololá	716	San Marcos la Laguna 	11	San Marcos la laguna 	1	Enero	2023-01-18T00:00:00	2024-11-08T06:00:00	5	Humedad	77
171621	7	Sololá	716	San Marcos la Laguna 	11	San Marcos la laguna 	1	Enero	2023-01-18T00:00:00	2024-11-08T06:00:00	6	Velocidad del viento	8
171622	7	Sololá	716	San Marcos la Laguna 	11	San Marcos la laguna 	1	Enero	2023-01-18T00:00:00	2024-11-08T06:00:00	7	Dirección del viento	8.05
171623	7	Sololá	716	San Marcos la Laguna 	11	San Marcos la laguna 	1	Enero	2023-01-18T00:00:00	2024-11-08T06:00:00	1	Precipitación	0
171624	7	Sololá	716	San Marcos la Laguna 	11	San Marcos la laguna 	1	Enero	2023-01-18T00:00:00	2024-11-08T06:00:00	8	Radiación solar	0
171625	7	Sololá	716	San Marcos la Laguna 	11	San Marcos la laguna 	1	Enero	2023-01-18T00:00:00	2024-11-08T07:00:00	2	Temperatura media	13.8
171626	7	Sololá	716	San Marcos la Laguna 	11	San Marcos la laguna 	1	Enero	2023-01-18T00:00:00	2024-11-08T07:00:00	4	Temperatura máxima	14.7
171627	7	Sololá	716	San Marcos la Laguna 	11	San Marcos la laguna 	1	Enero	2023-01-18T00:00:00	2024-11-08T07:00:00	3	Temperatura mínima	13.7
171628	7	Sololá	716	San Marcos la Laguna 	11	San Marcos la laguna 	1	Enero	2023-01-18T00:00:00	2024-11-08T07:00:00	5	Humedad	80
171629	7	Sololá	716	San Marcos la Laguna 	11	San Marcos la laguna 	1	Enero	2023-01-18T00:00:00	2024-11-08T07:00:00	6	Velocidad del viento	8
171630	7	Sololá	716	San Marcos la Laguna 	11	San Marcos la laguna 	1	Enero	2023-01-18T00:00:00	2024-11-08T07:00:00	7	Dirección del viento	8.05
171631	7	Sololá	716	San Marcos la Laguna 	11	San Marcos la laguna 	1	Enero	2023-01-18T00:00:00	2024-11-08T07:00:00	1	Precipitación	0
171632	7	Sololá	716	San Marcos la Laguna 	11	San Marcos la laguna 	1	Enero	2023-01-18T00:00:00	2024-11-08T07:00:00	8	Radiación solar	5
171633	7	Sololá	716	San Marcos la Laguna 	11	San Marcos la laguna 	1	Enero	2023-01-18T00:00:00	2024-11-08T08:00:00	2	Temperatura media	16.2
171634	7	Sololá	716	San Marcos la Laguna 	11	San Marcos la laguna 	1	Enero	2023-01-18T00:00:00	2024-11-08T08:00:00	4	Temperatura máxima	16.2
171635	7	Sololá	716	San Marcos la Laguna 	11	San Marcos la laguna 	1	Enero	2023-01-18T00:00:00	2024-11-08T08:00:00	3	Temperatura mínima	13.8
171636	7	Sololá	716	San Marcos la Laguna 	11	San Marcos la laguna 	1	Enero	2023-01-18T00:00:00	2024-11-08T08:00:00	5	Humedad	83
171637	7	Sololá	716	San Marcos la Laguna 	11	San Marcos la laguna 	1	Enero	2023-01-18T00:00:00	2024-11-08T08:00:00	6	Velocidad del viento	4.8
171638	7	Sololá	716	San Marcos la Laguna 	11	San Marcos la laguna 	1	Enero	2023-01-18T00:00:00	2024-11-08T08:00:00	7	Dirección del viento	4.83
171639	7	Sololá	716	San Marcos la Laguna 	11	San Marcos la laguna 	1	Enero	2023-01-18T00:00:00	2024-11-08T08:00:00	1	Precipitación	0
171640	7	Sololá	716	San Marcos la Laguna 	11	San Marcos la laguna 	1	Enero	2023-01-18T00:00:00	2024-11-08T08:00:00	8	Radiación solar	103
171641	7	Sololá	716	San Marcos la Laguna 	11	San Marcos la laguna 	1	Enero	2023-01-18T00:00:00	2024-11-08T09:00:00	2	Temperatura media	18.2
171642	7	Sololá	716	San Marcos la Laguna 	11	San Marcos la laguna 	1	Enero	2023-01-18T00:00:00	2024-11-08T09:00:00	4	Temperatura máxima	18.2
171643	7	Sololá	716	San Marcos la Laguna 	11	San Marcos la laguna 	1	Enero	2023-01-18T00:00:00	2024-11-08T09:00:00	3	Temperatura mínima	16.3
171644	7	Sololá	716	San Marcos la Laguna 	11	San Marcos la laguna 	1	Enero	2023-01-18T00:00:00	2024-11-08T09:00:00	5	Humedad	77
171645	7	Sololá	716	San Marcos la Laguna 	11	San Marcos la laguna 	1	Enero	2023-01-18T00:00:00	2024-11-08T09:00:00	6	Velocidad del viento	3.2
171646	7	Sololá	716	San Marcos la Laguna 	11	San Marcos la laguna 	1	Enero	2023-01-18T00:00:00	2024-11-08T09:00:00	7	Dirección del viento	3.22
171647	7	Sololá	716	San Marcos la Laguna 	11	San Marcos la laguna 	1	Enero	2023-01-18T00:00:00	2024-11-08T09:00:00	1	Precipitación	0
171648	7	Sololá	716	San Marcos la Laguna 	11	San Marcos la laguna 	1	Enero	2023-01-18T00:00:00	2024-11-08T09:00:00	8	Radiación solar	307
171649	7	Sololá	716	San Marcos la Laguna 	11	San Marcos la laguna 	1	Enero	2023-01-18T00:00:00	2024-11-08T10:00:00	2	Temperatura media	18.4
171650	7	Sololá	716	San Marcos la Laguna 	11	San Marcos la laguna 	1	Enero	2023-01-18T00:00:00	2024-11-08T10:00:00	4	Temperatura máxima	18.5
171651	7	Sololá	716	San Marcos la Laguna 	11	San Marcos la laguna 	1	Enero	2023-01-18T00:00:00	2024-11-08T10:00:00	3	Temperatura mínima	18.1
171652	7	Sololá	716	San Marcos la Laguna 	11	San Marcos la laguna 	1	Enero	2023-01-18T00:00:00	2024-11-08T10:00:00	5	Humedad	77
171653	7	Sololá	716	San Marcos la Laguna 	11	San Marcos la laguna 	1	Enero	2023-01-18T00:00:00	2024-11-08T10:00:00	6	Velocidad del viento	4.8
171654	7	Sololá	716	San Marcos la Laguna 	11	San Marcos la laguna 	1	Enero	2023-01-18T00:00:00	2024-11-08T10:00:00	7	Dirección del viento	4.83
171655	7	Sololá	716	San Marcos la Laguna 	11	San Marcos la laguna 	1	Enero	2023-01-18T00:00:00	2024-11-08T10:00:00	1	Precipitación	0
171656	7	Sololá	716	San Marcos la Laguna 	11	San Marcos la laguna 	1	Enero	2023-01-18T00:00:00	2024-11-08T10:00:00	8	Radiación solar	498
171657	7	Sololá	716	San Marcos la Laguna 	11	San Marcos la laguna 	1	Enero	2023-01-18T00:00:00	2024-11-08T11:00:00	2	Temperatura media	19.5
171658	7	Sololá	716	San Marcos la Laguna 	11	San Marcos la laguna 	1	Enero	2023-01-18T00:00:00	2024-11-08T11:00:00	4	Temperatura máxima	19.6
171659	7	Sololá	716	San Marcos la Laguna 	11	San Marcos la laguna 	1	Enero	2023-01-18T00:00:00	2024-11-08T11:00:00	3	Temperatura mínima	18.4
171660	7	Sololá	716	San Marcos la Laguna 	11	San Marcos la laguna 	1	Enero	2023-01-18T00:00:00	2024-11-08T11:00:00	5	Humedad	71
171661	7	Sololá	716	San Marcos la Laguna 	11	San Marcos la laguna 	1	Enero	2023-01-18T00:00:00	2024-11-08T11:00:00	6	Velocidad del viento	6.4
171662	7	Sololá	716	San Marcos la Laguna 	11	San Marcos la laguna 	1	Enero	2023-01-18T00:00:00	2024-11-08T11:00:00	7	Dirección del viento	6.44
171663	7	Sololá	716	San Marcos la Laguna 	11	San Marcos la laguna 	1	Enero	2023-01-18T00:00:00	2024-11-08T11:00:00	1	Precipitación	0
171664	7	Sololá	716	San Marcos la Laguna 	11	San Marcos la laguna 	1	Enero	2023-01-18T00:00:00	2024-11-08T11:00:00	8	Radiación solar	561
171665	7	Sololá	716	San Marcos la Laguna 	11	San Marcos la laguna 	1	Enero	2023-01-18T00:00:00	2024-11-08T12:00:00	2	Temperatura media	20.3
171666	7	Sololá	716	San Marcos la Laguna 	11	San Marcos la laguna 	1	Enero	2023-01-18T00:00:00	2024-11-08T12:00:00	4	Temperatura máxima	20.4
171667	7	Sololá	716	San Marcos la Laguna 	11	San Marcos la laguna 	1	Enero	2023-01-18T00:00:00	2024-11-08T12:00:00	3	Temperatura mínima	19.4
171668	7	Sololá	716	San Marcos la Laguna 	11	San Marcos la laguna 	1	Enero	2023-01-18T00:00:00	2024-11-08T12:00:00	5	Humedad	71
171669	7	Sololá	716	San Marcos la Laguna 	11	San Marcos la laguna 	1	Enero	2023-01-18T00:00:00	2024-11-08T12:00:00	6	Velocidad del viento	8
171670	7	Sololá	716	San Marcos la Laguna 	11	San Marcos la laguna 	1	Enero	2023-01-18T00:00:00	2024-11-08T12:00:00	7	Dirección del viento	8.05
171671	7	Sololá	716	San Marcos la Laguna 	11	San Marcos la laguna 	1	Enero	2023-01-18T00:00:00	2024-11-08T12:00:00	1	Precipitación	0
171672	7	Sololá	716	San Marcos la Laguna 	11	San Marcos la laguna 	1	Enero	2023-01-18T00:00:00	2024-11-08T12:00:00	8	Radiación solar	713
171673	7	Sololá	716	San Marcos la Laguna 	11	San Marcos la laguna 	1	Enero	2023-01-18T00:00:00	2024-11-08T13:00:00	2	Temperatura media	20.8
171674	7	Sololá	716	San Marcos la Laguna 	11	San Marcos la laguna 	1	Enero	2023-01-18T00:00:00	2024-11-08T13:00:00	4	Temperatura máxima	20.8
171675	7	Sololá	716	San Marcos la Laguna 	11	San Marcos la laguna 	1	Enero	2023-01-18T00:00:00	2024-11-08T13:00:00	3	Temperatura mínima	20.3
171676	7	Sololá	716	San Marcos la Laguna 	11	San Marcos la laguna 	1	Enero	2023-01-18T00:00:00	2024-11-08T13:00:00	5	Humedad	74
171677	7	Sololá	716	San Marcos la Laguna 	11	San Marcos la laguna 	1	Enero	2023-01-18T00:00:00	2024-11-08T13:00:00	6	Velocidad del viento	11.3
171678	7	Sololá	716	San Marcos la Laguna 	11	San Marcos la laguna 	1	Enero	2023-01-18T00:00:00	2024-11-08T13:00:00	7	Dirección del viento	11.27
171679	7	Sololá	716	San Marcos la Laguna 	11	San Marcos la laguna 	1	Enero	2023-01-18T00:00:00	2024-11-08T13:00:00	1	Precipitación	0
171680	7	Sololá	716	San Marcos la Laguna 	11	San Marcos la laguna 	1	Enero	2023-01-18T00:00:00	2024-11-08T13:00:00	8	Radiación solar	814
171681	7	Sololá	716	San Marcos la Laguna 	11	San Marcos la laguna 	1	Enero	2023-01-18T00:00:00	2024-11-08T14:00:00	2	Temperatura media	20.9
171682	7	Sololá	716	San Marcos la Laguna 	11	San Marcos la laguna 	1	Enero	2023-01-18T00:00:00	2024-11-08T14:00:00	4	Temperatura máxima	21.1
171683	7	Sololá	716	San Marcos la Laguna 	11	San Marcos la laguna 	1	Enero	2023-01-18T00:00:00	2024-11-08T14:00:00	3	Temperatura mínima	20.2
171684	7	Sololá	716	San Marcos la Laguna 	11	San Marcos la laguna 	1	Enero	2023-01-18T00:00:00	2024-11-08T14:00:00	5	Humedad	71
171685	7	Sololá	716	San Marcos la Laguna 	11	San Marcos la laguna 	1	Enero	2023-01-18T00:00:00	2024-11-08T14:00:00	6	Velocidad del viento	11.3
171686	7	Sololá	716	San Marcos la Laguna 	11	San Marcos la laguna 	1	Enero	2023-01-18T00:00:00	2024-11-08T14:00:00	7	Dirección del viento	11.27
171687	7	Sololá	716	San Marcos la Laguna 	11	San Marcos la laguna 	1	Enero	2023-01-18T00:00:00	2024-11-08T14:00:00	1	Precipitación	0
171688	7	Sololá	716	San Marcos la Laguna 	11	San Marcos la laguna 	1	Enero	2023-01-18T00:00:00	2024-11-08T14:00:00	8	Radiación solar	711
171689	7	Sololá	716	San Marcos la Laguna 	11	San Marcos la laguna 	1	Enero	2023-01-18T00:00:00	2024-11-08T15:00:00	2	Temperatura media	20.3
171690	7	Sololá	716	San Marcos la Laguna 	11	San Marcos la laguna 	1	Enero	2023-01-18T00:00:00	2024-11-08T15:00:00	4	Temperatura máxima	20.9
171691	7	Sololá	716	San Marcos la Laguna 	11	San Marcos la laguna 	1	Enero	2023-01-18T00:00:00	2024-11-08T15:00:00	3	Temperatura mínima	19.9
171692	7	Sololá	716	San Marcos la Laguna 	11	San Marcos la laguna 	1	Enero	2023-01-18T00:00:00	2024-11-08T15:00:00	5	Humedad	73
171693	7	Sololá	716	San Marcos la Laguna 	11	San Marcos la laguna 	1	Enero	2023-01-18T00:00:00	2024-11-08T15:00:00	6	Velocidad del viento	11.3
171694	7	Sololá	716	San Marcos la Laguna 	11	San Marcos la laguna 	1	Enero	2023-01-18T00:00:00	2024-11-08T15:00:00	7	Dirección del viento	11.27
171695	7	Sololá	716	San Marcos la Laguna 	11	San Marcos la laguna 	1	Enero	2023-01-18T00:00:00	2024-11-08T15:00:00	1	Precipitación	0
171696	7	Sololá	716	San Marcos la Laguna 	11	San Marcos la laguna 	1	Enero	2023-01-18T00:00:00	2024-11-08T15:00:00	8	Radiación solar	453
171697	7	Sololá	716	San Marcos la Laguna 	11	San Marcos la laguna 	1	Enero	2023-01-18T00:00:00	2024-11-08T16:00:00	2	Temperatura media	20.5
171698	7	Sololá	716	San Marcos la Laguna 	11	San Marcos la laguna 	1	Enero	2023-01-18T00:00:00	2024-11-08T16:00:00	4	Temperatura máxima	21.6
171699	7	Sololá	716	San Marcos la Laguna 	11	San Marcos la laguna 	1	Enero	2023-01-18T00:00:00	2024-11-08T16:00:00	3	Temperatura mínima	20.3
171700	7	Sololá	716	San Marcos la Laguna 	11	San Marcos la laguna 	1	Enero	2023-01-18T00:00:00	2024-11-08T16:00:00	5	Humedad	76
171701	7	Sololá	716	San Marcos la Laguna 	11	San Marcos la laguna 	1	Enero	2023-01-18T00:00:00	2024-11-08T16:00:00	6	Velocidad del viento	6.4
171702	7	Sololá	716	San Marcos la Laguna 	11	San Marcos la laguna 	1	Enero	2023-01-18T00:00:00	2024-11-08T16:00:00	7	Dirección del viento	6.44
171703	7	Sololá	716	San Marcos la Laguna 	11	San Marcos la laguna 	1	Enero	2023-01-18T00:00:00	2024-11-08T16:00:00	1	Precipitación	0
171704	7	Sololá	716	San Marcos la Laguna 	11	San Marcos la laguna 	1	Enero	2023-01-18T00:00:00	2024-11-08T16:00:00	8	Radiación solar	343
171705	7	Sololá	716	San Marcos la Laguna 	11	San Marcos la laguna 	1	Enero	2023-01-18T00:00:00	2024-11-08T17:00:00	2	Temperatura media	19.4
171706	7	Sololá	716	San Marcos la Laguna 	11	San Marcos la laguna 	1	Enero	2023-01-18T00:00:00	2024-11-08T17:00:00	4	Temperatura máxima	20.6
171707	7	Sololá	716	San Marcos la Laguna 	11	San Marcos la laguna 	1	Enero	2023-01-18T00:00:00	2024-11-08T17:00:00	3	Temperatura mínima	19.4
171708	7	Sololá	716	San Marcos la Laguna 	11	San Marcos la laguna 	1	Enero	2023-01-18T00:00:00	2024-11-08T17:00:00	5	Humedad	78
171709	7	Sololá	716	San Marcos la Laguna 	11	San Marcos la laguna 	1	Enero	2023-01-18T00:00:00	2024-11-08T17:00:00	6	Velocidad del viento	11.3
171710	7	Sololá	716	San Marcos la Laguna 	11	San Marcos la laguna 	1	Enero	2023-01-18T00:00:00	2024-11-08T17:00:00	7	Dirección del viento	11.27
171711	7	Sololá	716	San Marcos la Laguna 	11	San Marcos la laguna 	1	Enero	2023-01-18T00:00:00	2024-11-08T17:00:00	1	Precipitación	0
171712	7	Sololá	716	San Marcos la Laguna 	11	San Marcos la laguna 	1	Enero	2023-01-18T00:00:00	2024-11-08T17:00:00	8	Radiación solar	137
171713	7	Sololá	716	San Marcos la Laguna 	11	San Marcos la laguna 	1	Enero	2023-01-18T00:00:00	2024-11-08T18:00:00	2	Temperatura media	18.9
171714	7	Sololá	716	San Marcos la Laguna 	11	San Marcos la laguna 	1	Enero	2023-01-18T00:00:00	2024-11-08T18:00:00	4	Temperatura máxima	19.4
171715	7	Sololá	716	San Marcos la Laguna 	11	San Marcos la laguna 	1	Enero	2023-01-18T00:00:00	2024-11-08T18:00:00	3	Temperatura mínima	18.9
171716	7	Sololá	716	San Marcos la Laguna 	11	San Marcos la laguna 	1	Enero	2023-01-18T00:00:00	2024-11-08T18:00:00	5	Humedad	81
171717	7	Sololá	716	San Marcos la Laguna 	11	San Marcos la laguna 	1	Enero	2023-01-18T00:00:00	2024-11-08T18:00:00	6	Velocidad del viento	6.4
171718	7	Sololá	716	San Marcos la Laguna 	11	San Marcos la laguna 	1	Enero	2023-01-18T00:00:00	2024-11-08T18:00:00	7	Dirección del viento	6.44
171719	7	Sololá	716	San Marcos la Laguna 	11	San Marcos la laguna 	1	Enero	2023-01-18T00:00:00	2024-11-08T18:00:00	1	Precipitación	0
171720	7	Sololá	716	San Marcos la Laguna 	11	San Marcos la laguna 	1	Enero	2023-01-18T00:00:00	2024-11-08T18:00:00	8	Radiación solar	12
171721	7	Sololá	716	San Marcos la Laguna 	11	San Marcos la laguna 	1	Enero	2023-01-18T00:00:00	2024-11-08T19:00:00	2	Temperatura media	18.7
171722	7	Sololá	716	San Marcos la Laguna 	11	San Marcos la laguna 	1	Enero	2023-01-18T00:00:00	2024-11-08T19:00:00	4	Temperatura máxima	18.9
171723	7	Sololá	716	San Marcos la Laguna 	11	San Marcos la laguna 	1	Enero	2023-01-18T00:00:00	2024-11-08T19:00:00	3	Temperatura mínima	18.7
171724	7	Sololá	716	San Marcos la Laguna 	11	San Marcos la laguna 	1	Enero	2023-01-18T00:00:00	2024-11-08T19:00:00	5	Humedad	82
171725	7	Sololá	716	San Marcos la Laguna 	11	San Marcos la laguna 	1	Enero	2023-01-18T00:00:00	2024-11-08T19:00:00	6	Velocidad del viento	4.8
171726	7	Sololá	716	San Marcos la Laguna 	11	San Marcos la laguna 	1	Enero	2023-01-18T00:00:00	2024-11-08T19:00:00	7	Dirección del viento	4.83
171727	7	Sololá	716	San Marcos la Laguna 	11	San Marcos la laguna 	1	Enero	2023-01-18T00:00:00	2024-11-08T19:00:00	1	Precipitación	0
171728	7	Sololá	716	San Marcos la Laguna 	11	San Marcos la laguna 	1	Enero	2023-01-18T00:00:00	2024-11-08T19:00:00	8	Radiación solar	0
171729	7	Sololá	716	San Marcos la Laguna 	11	San Marcos la laguna 	1	Enero	2023-01-18T00:00:00	2024-11-08T20:00:00	2	Temperatura media	18.3
171730	7	Sololá	716	San Marcos la Laguna 	11	San Marcos la laguna 	1	Enero	2023-01-18T00:00:00	2024-11-08T20:00:00	4	Temperatura máxima	18.7
171731	7	Sololá	716	San Marcos la Laguna 	11	San Marcos la laguna 	1	Enero	2023-01-18T00:00:00	2024-11-08T20:00:00	3	Temperatura mínima	18.3
171732	7	Sololá	716	San Marcos la Laguna 	11	San Marcos la laguna 	1	Enero	2023-01-18T00:00:00	2024-11-08T20:00:00	5	Humedad	83
171733	7	Sololá	716	San Marcos la Laguna 	11	San Marcos la laguna 	1	Enero	2023-01-18T00:00:00	2024-11-08T20:00:00	6	Velocidad del viento	6.4
171734	7	Sololá	716	San Marcos la Laguna 	11	San Marcos la laguna 	1	Enero	2023-01-18T00:00:00	2024-11-08T20:00:00	7	Dirección del viento	6.44
171735	7	Sololá	716	San Marcos la Laguna 	11	San Marcos la laguna 	1	Enero	2023-01-18T00:00:00	2024-11-08T20:00:00	1	Precipitación	0
171736	7	Sololá	716	San Marcos la Laguna 	11	San Marcos la laguna 	1	Enero	2023-01-18T00:00:00	2024-11-08T20:00:00	8	Radiación solar	0
171737	7	Sololá	716	San Marcos la Laguna 	11	San Marcos la laguna 	1	Enero	2023-01-18T00:00:00	2024-11-08T21:00:00	2	Temperatura media	17.6
171738	7	Sololá	716	San Marcos la Laguna 	11	San Marcos la laguna 	1	Enero	2023-01-18T00:00:00	2024-11-08T21:00:00	4	Temperatura máxima	18.3
171739	7	Sololá	716	San Marcos la Laguna 	11	San Marcos la laguna 	1	Enero	2023-01-18T00:00:00	2024-11-08T21:00:00	3	Temperatura mínima	17.4
171740	7	Sololá	716	San Marcos la Laguna 	11	San Marcos la laguna 	1	Enero	2023-01-18T00:00:00	2024-11-08T21:00:00	5	Humedad	88
171741	7	Sololá	716	San Marcos la Laguna 	11	San Marcos la laguna 	1	Enero	2023-01-18T00:00:00	2024-11-08T21:00:00	6	Velocidad del viento	11.3
171742	7	Sololá	716	San Marcos la Laguna 	11	San Marcos la laguna 	1	Enero	2023-01-18T00:00:00	2024-11-08T21:00:00	7	Dirección del viento	11.27
171743	7	Sololá	716	San Marcos la Laguna 	11	San Marcos la laguna 	1	Enero	2023-01-18T00:00:00	2024-11-08T21:00:00	1	Precipitación	0
171744	7	Sololá	716	San Marcos la Laguna 	11	San Marcos la laguna 	1	Enero	2023-01-18T00:00:00	2024-11-08T21:00:00	8	Radiación solar	0
171745	7	Sololá	716	San Marcos la Laguna 	11	San Marcos la laguna 	1	Enero	2023-01-18T00:00:00	2024-11-08T22:00:00	2	Temperatura media	17.5
171746	7	Sololá	716	San Marcos la Laguna 	11	San Marcos la laguna 	1	Enero	2023-01-18T00:00:00	2024-11-08T22:00:00	4	Temperatura máxima	17.7
171747	7	Sololá	716	San Marcos la Laguna 	11	San Marcos la laguna 	1	Enero	2023-01-18T00:00:00	2024-11-08T22:00:00	3	Temperatura mínima	17.4
171748	7	Sololá	716	San Marcos la Laguna 	11	San Marcos la laguna 	1	Enero	2023-01-18T00:00:00	2024-11-08T22:00:00	5	Humedad	87
171749	7	Sololá	716	San Marcos la Laguna 	11	San Marcos la laguna 	1	Enero	2023-01-18T00:00:00	2024-11-08T22:00:00	6	Velocidad del viento	3.2
171750	7	Sololá	716	San Marcos la Laguna 	11	San Marcos la laguna 	1	Enero	2023-01-18T00:00:00	2024-11-08T22:00:00	7	Dirección del viento	3.22
171751	7	Sololá	716	San Marcos la Laguna 	11	San Marcos la laguna 	1	Enero	2023-01-18T00:00:00	2024-11-08T22:00:00	1	Precipitación	0
171752	7	Sololá	716	San Marcos la Laguna 	11	San Marcos la laguna 	1	Enero	2023-01-18T00:00:00	2024-11-08T22:00:00	8	Radiación solar	0
171753	7	Sololá	716	San Marcos la Laguna 	11	San Marcos la laguna 	1	Enero	2023-01-18T00:00:00	2024-11-08T23:00:00	2	Temperatura media	16.8
171754	7	Sololá	716	San Marcos la Laguna 	11	San Marcos la laguna 	1	Enero	2023-01-18T00:00:00	2024-11-08T23:00:00	4	Temperatura máxima	17.5
171755	7	Sololá	716	San Marcos la Laguna 	11	San Marcos la laguna 	1	Enero	2023-01-18T00:00:00	2024-11-08T23:00:00	3	Temperatura mínima	16.8
171756	7	Sololá	716	San Marcos la Laguna 	11	San Marcos la laguna 	1	Enero	2023-01-18T00:00:00	2024-11-08T23:00:00	5	Humedad	81
171757	7	Sololá	716	San Marcos la Laguna 	11	San Marcos la laguna 	1	Enero	2023-01-18T00:00:00	2024-11-08T23:00:00	6	Velocidad del viento	3.2
171758	7	Sololá	716	San Marcos la Laguna 	11	San Marcos la laguna 	1	Enero	2023-01-18T00:00:00	2024-11-08T23:00:00	7	Dirección del viento	3.22
171759	7	Sololá	716	San Marcos la Laguna 	11	San Marcos la laguna 	1	Enero	2023-01-18T00:00:00	2024-11-08T23:00:00	1	Precipitación	0
171760	7	Sololá	716	San Marcos la Laguna 	11	San Marcos la laguna 	1	Enero	2023-01-18T00:00:00	2024-11-08T23:00:00	8	Radiación solar	0
171761	7	Sololá	716	San Marcos la Laguna 	11	San Marcos la laguna 	1	Enero	2023-01-19T00:00:00	2024-11-08T00:00:00	2	Temperatura media	15.9
171762	7	Sololá	716	San Marcos la Laguna 	11	San Marcos la laguna 	1	Enero	2023-01-19T00:00:00	2024-11-08T00:00:00	4	Temperatura máxima	16.8
171763	7	Sololá	716	San Marcos la Laguna 	11	San Marcos la laguna 	1	Enero	2023-01-19T00:00:00	2024-11-08T00:00:00	3	Temperatura mínima	15.8
171764	7	Sololá	716	San Marcos la Laguna 	11	San Marcos la laguna 	1	Enero	2023-01-19T00:00:00	2024-11-08T00:00:00	5	Humedad	84
171765	7	Sololá	716	San Marcos la Laguna 	11	San Marcos la laguna 	1	Enero	2023-01-19T00:00:00	2024-11-08T00:00:00	6	Velocidad del viento	3.2
171766	7	Sololá	716	San Marcos la Laguna 	11	San Marcos la laguna 	1	Enero	2023-01-19T00:00:00	2024-11-08T00:00:00	7	Dirección del viento	3.22
171767	7	Sololá	716	San Marcos la Laguna 	11	San Marcos la laguna 	1	Enero	2023-01-19T00:00:00	2024-11-08T00:00:00	1	Precipitación	0
171768	7	Sololá	716	San Marcos la Laguna 	11	San Marcos la laguna 	1	Enero	2023-01-19T00:00:00	2024-11-08T00:00:00	8	Radiación solar	0
171769	7	Sololá	716	San Marcos la Laguna 	11	San Marcos la laguna 	1	Enero	2023-01-19T00:00:00	2024-11-08T01:00:00	2	Temperatura media	15.9
171770	7	Sololá	716	San Marcos la Laguna 	11	San Marcos la laguna 	1	Enero	2023-01-19T00:00:00	2024-11-08T01:00:00	4	Temperatura máxima	16.1
171771	7	Sololá	716	San Marcos la Laguna 	11	San Marcos la laguna 	1	Enero	2023-01-19T00:00:00	2024-11-08T01:00:00	3	Temperatura mínima	15.7
171772	7	Sololá	716	San Marcos la Laguna 	11	San Marcos la laguna 	1	Enero	2023-01-19T00:00:00	2024-11-08T01:00:00	5	Humedad	80
171773	7	Sololá	716	San Marcos la Laguna 	11	San Marcos la laguna 	1	Enero	2023-01-19T00:00:00	2024-11-08T01:00:00	6	Velocidad del viento	4.8
171774	7	Sololá	716	San Marcos la Laguna 	11	San Marcos la laguna 	1	Enero	2023-01-19T00:00:00	2024-11-08T01:00:00	7	Dirección del viento	4.83
171775	7	Sololá	716	San Marcos la Laguna 	11	San Marcos la laguna 	1	Enero	2023-01-19T00:00:00	2024-11-08T01:00:00	1	Precipitación	0
171776	7	Sololá	716	San Marcos la Laguna 	11	San Marcos la laguna 	1	Enero	2023-01-19T00:00:00	2024-11-08T01:00:00	8	Radiación solar	0
171777	7	Sololá	716	San Marcos la Laguna 	11	San Marcos la laguna 	1	Enero	2023-01-19T00:00:00	2024-11-08T02:00:00	2	Temperatura media	15.9
171778	7	Sololá	716	San Marcos la Laguna 	11	San Marcos la laguna 	1	Enero	2023-01-19T00:00:00	2024-11-08T02:00:00	4	Temperatura máxima	16.2
171779	7	Sololá	716	San Marcos la Laguna 	11	San Marcos la laguna 	1	Enero	2023-01-19T00:00:00	2024-11-08T02:00:00	3	Temperatura mínima	15.9
171780	7	Sololá	716	San Marcos la Laguna 	11	San Marcos la laguna 	1	Enero	2023-01-19T00:00:00	2024-11-08T02:00:00	5	Humedad	75
171781	7	Sololá	716	San Marcos la Laguna 	11	San Marcos la laguna 	1	Enero	2023-01-19T00:00:00	2024-11-08T02:00:00	6	Velocidad del viento	3.2
171782	7	Sololá	716	San Marcos la Laguna 	11	San Marcos la laguna 	1	Enero	2023-01-19T00:00:00	2024-11-08T02:00:00	7	Dirección del viento	3.22
171783	7	Sololá	716	San Marcos la Laguna 	11	San Marcos la laguna 	1	Enero	2023-01-19T00:00:00	2024-11-08T02:00:00	1	Precipitación	0
171784	7	Sololá	716	San Marcos la Laguna 	11	San Marcos la laguna 	1	Enero	2023-01-19T00:00:00	2024-11-08T02:00:00	8	Radiación solar	0
171785	7	Sololá	716	San Marcos la Laguna 	11	San Marcos la laguna 	1	Enero	2023-01-19T00:00:00	2024-11-08T03:00:00	2	Temperatura media	15.2
171786	7	Sololá	716	San Marcos la Laguna 	11	San Marcos la laguna 	1	Enero	2023-01-19T00:00:00	2024-11-08T03:00:00	4	Temperatura máxima	15.9
171787	7	Sololá	716	San Marcos la Laguna 	11	San Marcos la laguna 	1	Enero	2023-01-19T00:00:00	2024-11-08T03:00:00	3	Temperatura mínima	15.1
171788	7	Sololá	716	San Marcos la Laguna 	11	San Marcos la laguna 	1	Enero	2023-01-19T00:00:00	2024-11-08T03:00:00	5	Humedad	76
171789	7	Sololá	716	San Marcos la Laguna 	11	San Marcos la laguna 	1	Enero	2023-01-19T00:00:00	2024-11-08T03:00:00	6	Velocidad del viento	8
171790	7	Sololá	716	San Marcos la Laguna 	11	San Marcos la laguna 	1	Enero	2023-01-19T00:00:00	2024-11-08T03:00:00	7	Dirección del viento	8.05
171791	7	Sololá	716	San Marcos la Laguna 	11	San Marcos la laguna 	1	Enero	2023-01-19T00:00:00	2024-11-08T03:00:00	1	Precipitación	0
171792	7	Sololá	716	San Marcos la Laguna 	11	San Marcos la laguna 	1	Enero	2023-01-19T00:00:00	2024-11-08T03:00:00	8	Radiación solar	0
171793	7	Sololá	716	San Marcos la Laguna 	11	San Marcos la laguna 	1	Enero	2023-01-19T00:00:00	2024-11-08T04:00:00	2	Temperatura media	14.4
171794	7	Sololá	716	San Marcos la Laguna 	11	San Marcos la laguna 	1	Enero	2023-01-19T00:00:00	2024-11-08T04:00:00	4	Temperatura máxima	15.3
171795	7	Sololá	716	San Marcos la Laguna 	11	San Marcos la laguna 	1	Enero	2023-01-19T00:00:00	2024-11-08T04:00:00	3	Temperatura mínima	14.4
171796	7	Sololá	716	San Marcos la Laguna 	11	San Marcos la laguna 	1	Enero	2023-01-19T00:00:00	2024-11-08T04:00:00	5	Humedad	75
171797	7	Sololá	716	San Marcos la Laguna 	11	San Marcos la laguna 	1	Enero	2023-01-19T00:00:00	2024-11-08T04:00:00	6	Velocidad del viento	8
171798	7	Sololá	716	San Marcos la Laguna 	11	San Marcos la laguna 	1	Enero	2023-01-19T00:00:00	2024-11-08T04:00:00	7	Dirección del viento	8.05
171799	7	Sololá	716	San Marcos la Laguna 	11	San Marcos la laguna 	1	Enero	2023-01-19T00:00:00	2024-11-08T04:00:00	1	Precipitación	0
171800	7	Sololá	716	San Marcos la Laguna 	11	San Marcos la laguna 	1	Enero	2023-01-19T00:00:00	2024-11-08T04:00:00	8	Radiación solar	0
171801	7	Sololá	716	San Marcos la Laguna 	11	San Marcos la laguna 	1	Enero	2023-01-19T00:00:00	2024-11-08T05:00:00	2	Temperatura media	13.1
171802	7	Sololá	716	San Marcos la Laguna 	11	San Marcos la laguna 	1	Enero	2023-01-19T00:00:00	2024-11-08T05:00:00	4	Temperatura máxima	14.6
171803	7	Sololá	716	San Marcos la Laguna 	11	San Marcos la laguna 	1	Enero	2023-01-19T00:00:00	2024-11-08T05:00:00	3	Temperatura mínima	13.1
171804	7	Sololá	716	San Marcos la Laguna 	11	San Marcos la laguna 	1	Enero	2023-01-19T00:00:00	2024-11-08T05:00:00	5	Humedad	76
171805	7	Sololá	716	San Marcos la Laguna 	11	San Marcos la laguna 	1	Enero	2023-01-19T00:00:00	2024-11-08T05:00:00	6	Velocidad del viento	9.7
171806	7	Sololá	716	San Marcos la Laguna 	11	San Marcos la laguna 	1	Enero	2023-01-19T00:00:00	2024-11-08T05:00:00	7	Dirección del viento	9.66
171807	7	Sololá	716	San Marcos la Laguna 	11	San Marcos la laguna 	1	Enero	2023-01-19T00:00:00	2024-11-08T05:00:00	1	Precipitación	0
171808	7	Sololá	716	San Marcos la Laguna 	11	San Marcos la laguna 	1	Enero	2023-01-19T00:00:00	2024-11-08T05:00:00	8	Radiación solar	0
171809	7	Sololá	716	San Marcos la Laguna 	11	San Marcos la laguna 	1	Enero	2023-01-19T00:00:00	2024-11-08T06:00:00	2	Temperatura media	12
171810	7	Sololá	716	San Marcos la Laguna 	11	San Marcos la laguna 	1	Enero	2023-01-19T00:00:00	2024-11-08T06:00:00	4	Temperatura máxima	13.1
171811	7	Sololá	716	San Marcos la Laguna 	11	San Marcos la laguna 	1	Enero	2023-01-19T00:00:00	2024-11-08T06:00:00	3	Temperatura mínima	12
171812	7	Sololá	716	San Marcos la Laguna 	11	San Marcos la laguna 	1	Enero	2023-01-19T00:00:00	2024-11-08T06:00:00	5	Humedad	72
171813	7	Sololá	716	San Marcos la Laguna 	11	San Marcos la laguna 	1	Enero	2023-01-19T00:00:00	2024-11-08T06:00:00	6	Velocidad del viento	8
171814	7	Sololá	716	San Marcos la Laguna 	11	San Marcos la laguna 	1	Enero	2023-01-19T00:00:00	2024-11-08T06:00:00	7	Dirección del viento	8.05
171815	7	Sololá	716	San Marcos la Laguna 	11	San Marcos la laguna 	1	Enero	2023-01-19T00:00:00	2024-11-08T06:00:00	1	Precipitación	0
171816	7	Sololá	716	San Marcos la Laguna 	11	San Marcos la laguna 	1	Enero	2023-01-19T00:00:00	2024-11-08T06:00:00	8	Radiación solar	0
171817	7	Sololá	716	San Marcos la Laguna 	11	San Marcos la laguna 	1	Enero	2023-01-19T00:00:00	2024-11-08T07:00:00	2	Temperatura media	12.3
171818	7	Sololá	716	San Marcos la Laguna 	11	San Marcos la laguna 	1	Enero	2023-01-19T00:00:00	2024-11-08T07:00:00	4	Temperatura máxima	12.3
171819	7	Sololá	716	San Marcos la Laguna 	11	San Marcos la laguna 	1	Enero	2023-01-19T00:00:00	2024-11-08T07:00:00	3	Temperatura mínima	11.6
171820	7	Sololá	716	San Marcos la Laguna 	11	San Marcos la laguna 	1	Enero	2023-01-19T00:00:00	2024-11-08T07:00:00	5	Humedad	74
171821	7	Sololá	716	San Marcos la Laguna 	11	San Marcos la laguna 	1	Enero	2023-01-19T00:00:00	2024-11-08T07:00:00	6	Velocidad del viento	8
171822	7	Sololá	716	San Marcos la Laguna 	11	San Marcos la laguna 	1	Enero	2023-01-19T00:00:00	2024-11-08T07:00:00	7	Dirección del viento	8.05
171823	7	Sololá	716	San Marcos la Laguna 	11	San Marcos la laguna 	1	Enero	2023-01-19T00:00:00	2024-11-08T07:00:00	1	Precipitación	0
171824	7	Sololá	716	San Marcos la Laguna 	11	San Marcos la laguna 	1	Enero	2023-01-19T00:00:00	2024-11-08T07:00:00	8	Radiación solar	6
171825	7	Sololá	716	San Marcos la Laguna 	11	San Marcos la laguna 	1	Enero	2023-01-19T00:00:00	2024-11-08T08:00:00	2	Temperatura media	14.6
171826	7	Sololá	716	San Marcos la Laguna 	11	San Marcos la laguna 	1	Enero	2023-01-19T00:00:00	2024-11-08T08:00:00	4	Temperatura máxima	14.6
171827	7	Sololá	716	San Marcos la Laguna 	11	San Marcos la laguna 	1	Enero	2023-01-19T00:00:00	2024-11-08T08:00:00	3	Temperatura mínima	12.3
171828	7	Sololá	716	San Marcos la Laguna 	11	San Marcos la laguna 	1	Enero	2023-01-19T00:00:00	2024-11-08T08:00:00	5	Humedad	81
171829	7	Sololá	716	San Marcos la Laguna 	11	San Marcos la laguna 	1	Enero	2023-01-19T00:00:00	2024-11-08T08:00:00	6	Velocidad del viento	6.4
171830	7	Sololá	716	San Marcos la Laguna 	11	San Marcos la laguna 	1	Enero	2023-01-19T00:00:00	2024-11-08T08:00:00	7	Dirección del viento	6.44
171831	7	Sololá	716	San Marcos la Laguna 	11	San Marcos la laguna 	1	Enero	2023-01-19T00:00:00	2024-11-08T08:00:00	1	Precipitación	0
171832	7	Sololá	716	San Marcos la Laguna 	11	San Marcos la laguna 	1	Enero	2023-01-19T00:00:00	2024-11-08T08:00:00	8	Radiación solar	120
171833	7	Sololá	716	San Marcos la Laguna 	11	San Marcos la laguna 	1	Enero	2023-01-19T00:00:00	2024-11-08T09:00:00	2	Temperatura media	17.8
171834	7	Sololá	716	San Marcos la Laguna 	11	San Marcos la laguna 	1	Enero	2023-01-19T00:00:00	2024-11-08T09:00:00	4	Temperatura máxima	17.8
171835	7	Sololá	716	San Marcos la Laguna 	11	San Marcos la laguna 	1	Enero	2023-01-19T00:00:00	2024-11-08T09:00:00	3	Temperatura mínima	14.6
171836	7	Sololá	716	San Marcos la Laguna 	11	San Marcos la laguna 	1	Enero	2023-01-19T00:00:00	2024-11-08T09:00:00	5	Humedad	71
171837	7	Sololá	716	San Marcos la Laguna 	11	San Marcos la laguna 	1	Enero	2023-01-19T00:00:00	2024-11-08T09:00:00	6	Velocidad del viento	3.2
171838	7	Sololá	716	San Marcos la Laguna 	11	San Marcos la laguna 	1	Enero	2023-01-19T00:00:00	2024-11-08T09:00:00	7	Dirección del viento	3.22
171839	7	Sololá	716	San Marcos la Laguna 	11	San Marcos la laguna 	1	Enero	2023-01-19T00:00:00	2024-11-08T09:00:00	1	Precipitación	0
171840	7	Sololá	716	San Marcos la Laguna 	11	San Marcos la laguna 	1	Enero	2023-01-19T00:00:00	2024-11-08T09:00:00	8	Radiación solar	339
171841	7	Sololá	716	San Marcos la Laguna 	11	San Marcos la laguna 	1	Enero	2023-01-19T00:00:00	2024-11-08T10:00:00	2	Temperatura media	18.1
171842	7	Sololá	716	San Marcos la Laguna 	11	San Marcos la laguna 	1	Enero	2023-01-19T00:00:00	2024-11-08T10:00:00	4	Temperatura máxima	18.1
171843	7	Sololá	716	San Marcos la Laguna 	11	San Marcos la laguna 	1	Enero	2023-01-19T00:00:00	2024-11-08T10:00:00	3	Temperatura mínima	17.4
171844	7	Sololá	716	San Marcos la Laguna 	11	San Marcos la laguna 	1	Enero	2023-01-19T00:00:00	2024-11-08T10:00:00	5	Humedad	63
171845	7	Sololá	716	San Marcos la Laguna 	11	San Marcos la laguna 	1	Enero	2023-01-19T00:00:00	2024-11-08T10:00:00	6	Velocidad del viento	6.4
171846	7	Sololá	716	San Marcos la Laguna 	11	San Marcos la laguna 	1	Enero	2023-01-19T00:00:00	2024-11-08T10:00:00	7	Dirección del viento	6.44
171847	7	Sololá	716	San Marcos la Laguna 	11	San Marcos la laguna 	1	Enero	2023-01-19T00:00:00	2024-11-08T10:00:00	1	Precipitación	0
171848	7	Sololá	716	San Marcos la Laguna 	11	San Marcos la laguna 	1	Enero	2023-01-19T00:00:00	2024-11-08T10:00:00	8	Radiación solar	526
171849	7	Sololá	716	San Marcos la Laguna 	11	San Marcos la laguna 	1	Enero	2023-01-19T00:00:00	2024-11-08T11:00:00	2	Temperatura media	18.8
171850	7	Sololá	716	San Marcos la Laguna 	11	San Marcos la laguna 	1	Enero	2023-01-19T00:00:00	2024-11-08T11:00:00	4	Temperatura máxima	18.8
171851	7	Sololá	716	San Marcos la Laguna 	11	San Marcos la laguna 	1	Enero	2023-01-19T00:00:00	2024-11-08T11:00:00	3	Temperatura mínima	18.1
171852	7	Sololá	716	San Marcos la Laguna 	11	San Marcos la laguna 	1	Enero	2023-01-19T00:00:00	2024-11-08T11:00:00	5	Humedad	61
171853	7	Sololá	716	San Marcos la Laguna 	11	San Marcos la laguna 	1	Enero	2023-01-19T00:00:00	2024-11-08T11:00:00	6	Velocidad del viento	8
171854	7	Sololá	716	San Marcos la Laguna 	11	San Marcos la laguna 	1	Enero	2023-01-19T00:00:00	2024-11-08T11:00:00	7	Dirección del viento	8.05
171855	7	Sololá	716	San Marcos la Laguna 	11	San Marcos la laguna 	1	Enero	2023-01-19T00:00:00	2024-11-08T11:00:00	1	Precipitación	0
171856	7	Sololá	716	San Marcos la Laguna 	11	San Marcos la laguna 	1	Enero	2023-01-19T00:00:00	2024-11-08T11:00:00	8	Radiación solar	576
171857	7	Sololá	716	San Marcos la Laguna 	11	San Marcos la laguna 	1	Enero	2023-01-19T00:00:00	2024-11-08T12:00:00	2	Temperatura media	19.3
171858	7	Sololá	716	San Marcos la Laguna 	11	San Marcos la laguna 	1	Enero	2023-01-19T00:00:00	2024-11-08T12:00:00	4	Temperatura máxima	19.5
171859	7	Sololá	716	San Marcos la Laguna 	11	San Marcos la laguna 	1	Enero	2023-01-19T00:00:00	2024-11-08T12:00:00	3	Temperatura mínima	18.8
171860	7	Sololá	716	San Marcos la Laguna 	11	San Marcos la laguna 	1	Enero	2023-01-19T00:00:00	2024-11-08T12:00:00	5	Humedad	59
171861	7	Sololá	716	San Marcos la Laguna 	11	San Marcos la laguna 	1	Enero	2023-01-19T00:00:00	2024-11-08T12:00:00	6	Velocidad del viento	9.7
171862	7	Sololá	716	San Marcos la Laguna 	11	San Marcos la laguna 	1	Enero	2023-01-19T00:00:00	2024-11-08T12:00:00	7	Dirección del viento	9.66
171863	7	Sololá	716	San Marcos la Laguna 	11	San Marcos la laguna 	1	Enero	2023-01-19T00:00:00	2024-11-08T12:00:00	1	Precipitación	0
171864	7	Sololá	716	San Marcos la Laguna 	11	San Marcos la laguna 	1	Enero	2023-01-19T00:00:00	2024-11-08T12:00:00	8	Radiación solar	730
171865	7	Sololá	716	San Marcos la Laguna 	11	San Marcos la laguna 	1	Enero	2023-01-19T00:00:00	2024-11-08T13:00:00	2	Temperatura media	20
171866	7	Sololá	716	San Marcos la Laguna 	11	San Marcos la laguna 	1	Enero	2023-01-19T00:00:00	2024-11-08T13:00:00	4	Temperatura máxima	20.2
171867	7	Sololá	716	San Marcos la Laguna 	11	San Marcos la laguna 	1	Enero	2023-01-19T00:00:00	2024-11-08T13:00:00	3	Temperatura mínima	19.1
171868	7	Sololá	716	San Marcos la Laguna 	11	San Marcos la laguna 	1	Enero	2023-01-19T00:00:00	2024-11-08T13:00:00	5	Humedad	60
171869	7	Sololá	716	San Marcos la Laguna 	11	San Marcos la laguna 	1	Enero	2023-01-19T00:00:00	2024-11-08T13:00:00	6	Velocidad del viento	11.3
171870	7	Sololá	716	San Marcos la Laguna 	11	San Marcos la laguna 	1	Enero	2023-01-19T00:00:00	2024-11-08T13:00:00	7	Dirección del viento	11.27
171871	7	Sololá	716	San Marcos la Laguna 	11	San Marcos la laguna 	1	Enero	2023-01-19T00:00:00	2024-11-08T13:00:00	1	Precipitación	0
171872	7	Sololá	716	San Marcos la Laguna 	11	San Marcos la laguna 	1	Enero	2023-01-19T00:00:00	2024-11-08T13:00:00	8	Radiación solar	782
171873	7	Sololá	716	San Marcos la Laguna 	11	San Marcos la laguna 	1	Enero	2023-01-19T00:00:00	2024-11-08T14:00:00	2	Temperatura media	20.2
171874	7	Sololá	716	San Marcos la Laguna 	11	San Marcos la laguna 	1	Enero	2023-01-19T00:00:00	2024-11-08T14:00:00	4	Temperatura máxima	20.7
171875	7	Sololá	716	San Marcos la Laguna 	11	San Marcos la laguna 	1	Enero	2023-01-19T00:00:00	2024-11-08T14:00:00	3	Temperatura mínima	19.9
171876	7	Sololá	716	San Marcos la Laguna 	11	San Marcos la laguna 	1	Enero	2023-01-19T00:00:00	2024-11-08T14:00:00	5	Humedad	65
171877	7	Sololá	716	San Marcos la Laguna 	11	San Marcos la laguna 	1	Enero	2023-01-19T00:00:00	2024-11-08T14:00:00	6	Velocidad del viento	11.3
171878	7	Sololá	716	San Marcos la Laguna 	11	San Marcos la laguna 	1	Enero	2023-01-19T00:00:00	2024-11-08T14:00:00	7	Dirección del viento	11.27
171879	7	Sololá	716	San Marcos la Laguna 	11	San Marcos la laguna 	1	Enero	2023-01-19T00:00:00	2024-11-08T14:00:00	1	Precipitación	0
171880	7	Sololá	716	San Marcos la Laguna 	11	San Marcos la laguna 	1	Enero	2023-01-19T00:00:00	2024-11-08T14:00:00	8	Radiación solar	724
171881	7	Sololá	716	San Marcos la Laguna 	11	San Marcos la laguna 	1	Enero	2023-01-19T00:00:00	2024-11-08T15:00:00	2	Temperatura media	20.1
171882	7	Sololá	716	San Marcos la Laguna 	11	San Marcos la laguna 	1	Enero	2023-01-19T00:00:00	2024-11-08T15:00:00	4	Temperatura máxima	20.6
171883	7	Sololá	716	San Marcos la Laguna 	11	San Marcos la laguna 	1	Enero	2023-01-19T00:00:00	2024-11-08T15:00:00	3	Temperatura mínima	19.9
171884	7	Sololá	716	San Marcos la Laguna 	11	San Marcos la laguna 	1	Enero	2023-01-19T00:00:00	2024-11-08T15:00:00	5	Humedad	68
171885	7	Sololá	716	San Marcos la Laguna 	11	San Marcos la laguna 	1	Enero	2023-01-19T00:00:00	2024-11-08T15:00:00	6	Velocidad del viento	11.3
171886	7	Sololá	716	San Marcos la Laguna 	11	San Marcos la laguna 	1	Enero	2023-01-19T00:00:00	2024-11-08T15:00:00	7	Dirección del viento	11.27
171887	7	Sololá	716	San Marcos la Laguna 	11	San Marcos la laguna 	1	Enero	2023-01-19T00:00:00	2024-11-08T15:00:00	1	Precipitación	0
171888	7	Sololá	716	San Marcos la Laguna 	11	San Marcos la laguna 	1	Enero	2023-01-19T00:00:00	2024-11-08T15:00:00	8	Radiación solar	602
171889	7	Sololá	716	San Marcos la Laguna 	11	San Marcos la laguna 	1	Enero	2023-01-19T00:00:00	2024-11-08T16:00:00	2	Temperatura media	19.6
171890	7	Sololá	716	San Marcos la Laguna 	11	San Marcos la laguna 	1	Enero	2023-01-19T00:00:00	2024-11-08T16:00:00	4	Temperatura máxima	20.2
171891	7	Sololá	716	San Marcos la Laguna 	11	San Marcos la laguna 	1	Enero	2023-01-19T00:00:00	2024-11-08T16:00:00	3	Temperatura mínima	19.6
171892	7	Sololá	716	San Marcos la Laguna 	11	San Marcos la laguna 	1	Enero	2023-01-19T00:00:00	2024-11-08T16:00:00	5	Humedad	70
171893	7	Sololá	716	San Marcos la Laguna 	11	San Marcos la laguna 	1	Enero	2023-01-19T00:00:00	2024-11-08T16:00:00	6	Velocidad del viento	11.3
171894	7	Sololá	716	San Marcos la Laguna 	11	San Marcos la laguna 	1	Enero	2023-01-19T00:00:00	2024-11-08T16:00:00	7	Dirección del viento	11.27
171895	7	Sololá	716	San Marcos la Laguna 	11	San Marcos la laguna 	1	Enero	2023-01-19T00:00:00	2024-11-08T16:00:00	1	Precipitación	0
171896	7	Sololá	716	San Marcos la Laguna 	11	San Marcos la laguna 	1	Enero	2023-01-19T00:00:00	2024-11-08T16:00:00	8	Radiación solar	455
171897	7	Sololá	716	San Marcos la Laguna 	11	San Marcos la laguna 	1	Enero	2023-01-19T00:00:00	2024-11-08T17:00:00	2	Temperatura media	18.8
171898	7	Sololá	716	San Marcos la Laguna 	11	San Marcos la laguna 	1	Enero	2023-01-19T00:00:00	2024-11-08T17:00:00	4	Temperatura máxima	19.7
171899	7	Sololá	716	San Marcos la Laguna 	11	San Marcos la laguna 	1	Enero	2023-01-19T00:00:00	2024-11-08T17:00:00	3	Temperatura mínima	18.8
171900	7	Sololá	716	San Marcos la Laguna 	11	San Marcos la laguna 	1	Enero	2023-01-19T00:00:00	2024-11-08T17:00:00	5	Humedad	74
171901	7	Sololá	716	San Marcos la Laguna 	11	San Marcos la laguna 	1	Enero	2023-01-19T00:00:00	2024-11-08T17:00:00	6	Velocidad del viento	8
171902	7	Sololá	716	San Marcos la Laguna 	11	San Marcos la laguna 	1	Enero	2023-01-19T00:00:00	2024-11-08T17:00:00	7	Dirección del viento	8.05
171903	7	Sololá	716	San Marcos la Laguna 	11	San Marcos la laguna 	1	Enero	2023-01-19T00:00:00	2024-11-08T17:00:00	1	Precipitación	0
171904	7	Sololá	716	San Marcos la Laguna 	11	San Marcos la laguna 	1	Enero	2023-01-19T00:00:00	2024-11-08T17:00:00	8	Radiación solar	204
171905	7	Sololá	716	San Marcos la Laguna 	11	San Marcos la laguna 	1	Enero	2023-01-19T00:00:00	2024-11-08T18:00:00	2	Temperatura media	18.2
171906	7	Sololá	716	San Marcos la Laguna 	11	San Marcos la laguna 	1	Enero	2023-01-19T00:00:00	2024-11-08T18:00:00	4	Temperatura máxima	18.9
171907	7	Sololá	716	San Marcos la Laguna 	11	San Marcos la laguna 	1	Enero	2023-01-19T00:00:00	2024-11-08T18:00:00	3	Temperatura mínima	18.2
171908	7	Sololá	716	San Marcos la Laguna 	11	San Marcos la laguna 	1	Enero	2023-01-19T00:00:00	2024-11-08T18:00:00	5	Humedad	79
171909	7	Sololá	716	San Marcos la Laguna 	11	San Marcos la laguna 	1	Enero	2023-01-19T00:00:00	2024-11-08T18:00:00	6	Velocidad del viento	6.4
171910	7	Sololá	716	San Marcos la Laguna 	11	San Marcos la laguna 	1	Enero	2023-01-19T00:00:00	2024-11-08T18:00:00	7	Dirección del viento	6.44
171911	7	Sololá	716	San Marcos la Laguna 	11	San Marcos la laguna 	1	Enero	2023-01-19T00:00:00	2024-11-08T18:00:00	1	Precipitación	0
171912	7	Sololá	716	San Marcos la Laguna 	11	San Marcos la laguna 	1	Enero	2023-01-19T00:00:00	2024-11-08T18:00:00	8	Radiación solar	21
171913	7	Sololá	716	San Marcos la Laguna 	11	San Marcos la laguna 	1	Enero	2023-01-19T00:00:00	2024-11-08T19:00:00	2	Temperatura media	16.8
171914	7	Sololá	716	San Marcos la Laguna 	11	San Marcos la laguna 	1	Enero	2023-01-19T00:00:00	2024-11-08T19:00:00	4	Temperatura máxima	18.3
171915	7	Sololá	716	San Marcos la Laguna 	11	San Marcos la laguna 	1	Enero	2023-01-19T00:00:00	2024-11-08T19:00:00	3	Temperatura mínima	16.8
171916	7	Sololá	716	San Marcos la Laguna 	11	San Marcos la laguna 	1	Enero	2023-01-19T00:00:00	2024-11-08T19:00:00	5	Humedad	76
171917	7	Sololá	716	San Marcos la Laguna 	11	San Marcos la laguna 	1	Enero	2023-01-19T00:00:00	2024-11-08T19:00:00	6	Velocidad del viento	3.2
171918	7	Sololá	716	San Marcos la Laguna 	11	San Marcos la laguna 	1	Enero	2023-01-19T00:00:00	2024-11-08T19:00:00	7	Dirección del viento	3.22
171919	7	Sololá	716	San Marcos la Laguna 	11	San Marcos la laguna 	1	Enero	2023-01-19T00:00:00	2024-11-08T19:00:00	1	Precipitación	0
171920	7	Sololá	716	San Marcos la Laguna 	11	San Marcos la laguna 	1	Enero	2023-01-19T00:00:00	2024-11-08T19:00:00	8	Radiación solar	0
171921	7	Sololá	716	San Marcos la Laguna 	11	San Marcos la laguna 	1	Enero	2023-01-19T00:00:00	2024-11-08T20:00:00	2	Temperatura media	15.9
171922	7	Sololá	716	San Marcos la Laguna 	11	San Marcos la laguna 	1	Enero	2023-01-19T00:00:00	2024-11-08T20:00:00	4	Temperatura máxima	16.8
171923	7	Sololá	716	San Marcos la Laguna 	11	San Marcos la laguna 	1	Enero	2023-01-19T00:00:00	2024-11-08T20:00:00	3	Temperatura mínima	15.9
171924	7	Sololá	716	San Marcos la Laguna 	11	San Marcos la laguna 	1	Enero	2023-01-19T00:00:00	2024-11-08T20:00:00	5	Humedad	79
171925	7	Sololá	716	San Marcos la Laguna 	11	San Marcos la laguna 	1	Enero	2023-01-19T00:00:00	2024-11-08T20:00:00	6	Velocidad del viento	6.4
171926	7	Sololá	716	San Marcos la Laguna 	11	San Marcos la laguna 	1	Enero	2023-01-19T00:00:00	2024-11-08T20:00:00	7	Dirección del viento	6.44
171927	7	Sololá	716	San Marcos la Laguna 	11	San Marcos la laguna 	1	Enero	2023-01-19T00:00:00	2024-11-08T20:00:00	1	Precipitación	0
171928	7	Sololá	716	San Marcos la Laguna 	11	San Marcos la laguna 	1	Enero	2023-01-19T00:00:00	2024-11-08T20:00:00	8	Radiación solar	0
171929	7	Sololá	716	San Marcos la Laguna 	11	San Marcos la laguna 	1	Enero	2023-01-19T00:00:00	2024-11-08T21:00:00	2	Temperatura media	14.8
171930	7	Sololá	716	San Marcos la Laguna 	11	San Marcos la laguna 	1	Enero	2023-01-19T00:00:00	2024-11-08T21:00:00	4	Temperatura máxima	15.9
171931	7	Sololá	716	San Marcos la Laguna 	11	San Marcos la laguna 	1	Enero	2023-01-19T00:00:00	2024-11-08T21:00:00	3	Temperatura mínima	14.6
171932	7	Sololá	716	San Marcos la Laguna 	11	San Marcos la laguna 	1	Enero	2023-01-19T00:00:00	2024-11-08T21:00:00	5	Humedad	84
171933	7	Sololá	716	San Marcos la Laguna 	11	San Marcos la laguna 	1	Enero	2023-01-19T00:00:00	2024-11-08T21:00:00	6	Velocidad del viento	4.8
171934	7	Sololá	716	San Marcos la Laguna 	11	San Marcos la laguna 	1	Enero	2023-01-19T00:00:00	2024-11-08T21:00:00	7	Dirección del viento	4.83
171935	7	Sololá	716	San Marcos la Laguna 	11	San Marcos la laguna 	1	Enero	2023-01-19T00:00:00	2024-11-08T21:00:00	1	Precipitación	0
171936	7	Sololá	716	San Marcos la Laguna 	11	San Marcos la laguna 	1	Enero	2023-01-19T00:00:00	2024-11-08T21:00:00	8	Radiación solar	0
171937	7	Sololá	716	San Marcos la Laguna 	11	San Marcos la laguna 	1	Enero	2023-01-19T00:00:00	2024-11-08T22:00:00	2	Temperatura media	15.2
171938	7	Sololá	716	San Marcos la Laguna 	11	San Marcos la laguna 	1	Enero	2023-01-19T00:00:00	2024-11-08T22:00:00	4	Temperatura máxima	15.3
171939	7	Sololá	716	San Marcos la Laguna 	11	San Marcos la laguna 	1	Enero	2023-01-19T00:00:00	2024-11-08T22:00:00	3	Temperatura mínima	14.5
171940	7	Sololá	716	San Marcos la Laguna 	11	San Marcos la laguna 	1	Enero	2023-01-19T00:00:00	2024-11-08T22:00:00	5	Humedad	82
171941	7	Sololá	716	San Marcos la Laguna 	11	San Marcos la laguna 	1	Enero	2023-01-19T00:00:00	2024-11-08T22:00:00	6	Velocidad del viento	6.4
171942	7	Sololá	716	San Marcos la Laguna 	11	San Marcos la laguna 	1	Enero	2023-01-19T00:00:00	2024-11-08T22:00:00	7	Dirección del viento	6.44
171943	7	Sololá	716	San Marcos la Laguna 	11	San Marcos la laguna 	1	Enero	2023-01-19T00:00:00	2024-11-08T22:00:00	1	Precipitación	0
171944	7	Sololá	716	San Marcos la Laguna 	11	San Marcos la laguna 	1	Enero	2023-01-19T00:00:00	2024-11-08T22:00:00	8	Radiación solar	0
171945	7	Sololá	716	San Marcos la Laguna 	11	San Marcos la laguna 	1	Enero	2023-01-19T00:00:00	2024-11-08T23:00:00	2	Temperatura media	15.2
171946	7	Sololá	716	San Marcos la Laguna 	11	San Marcos la laguna 	1	Enero	2023-01-19T00:00:00	2024-11-08T23:00:00	4	Temperatura máxima	15.8
171947	7	Sololá	716	San Marcos la Laguna 	11	San Marcos la laguna 	1	Enero	2023-01-19T00:00:00	2024-11-08T23:00:00	3	Temperatura mínima	14.9
171948	7	Sololá	716	San Marcos la Laguna 	11	San Marcos la laguna 	1	Enero	2023-01-19T00:00:00	2024-11-08T23:00:00	5	Humedad	73
171949	7	Sololá	716	San Marcos la Laguna 	11	San Marcos la laguna 	1	Enero	2023-01-19T00:00:00	2024-11-08T23:00:00	6	Velocidad del viento	6.4
171950	7	Sololá	716	San Marcos la Laguna 	11	San Marcos la laguna 	1	Enero	2023-01-19T00:00:00	2024-11-08T23:00:00	7	Dirección del viento	6.44
171951	7	Sololá	716	San Marcos la Laguna 	11	San Marcos la laguna 	1	Enero	2023-01-19T00:00:00	2024-11-08T23:00:00	1	Precipitación	0
171952	7	Sololá	716	San Marcos la Laguna 	11	San Marcos la laguna 	1	Enero	2023-01-19T00:00:00	2024-11-08T23:00:00	8	Radiación solar	0
171953	7	Sololá	716	San Marcos la Laguna 	11	San Marcos la laguna 	1	Enero	2023-01-20T00:00:00	2024-11-08T00:00:00	2	Temperatura media	14
171954	7	Sololá	716	San Marcos la Laguna 	11	San Marcos la laguna 	1	Enero	2023-01-20T00:00:00	2024-11-08T00:00:00	4	Temperatura máxima	15.3
171955	7	Sololá	716	San Marcos la Laguna 	11	San Marcos la laguna 	1	Enero	2023-01-20T00:00:00	2024-11-08T00:00:00	3	Temperatura mínima	14
171956	7	Sololá	716	San Marcos la Laguna 	11	San Marcos la laguna 	1	Enero	2023-01-20T00:00:00	2024-11-08T00:00:00	5	Humedad	76
171957	7	Sololá	716	San Marcos la Laguna 	11	San Marcos la laguna 	1	Enero	2023-01-20T00:00:00	2024-11-08T00:00:00	6	Velocidad del viento	6.4
171958	7	Sololá	716	San Marcos la Laguna 	11	San Marcos la laguna 	1	Enero	2023-01-20T00:00:00	2024-11-08T00:00:00	7	Dirección del viento	6.44
171959	7	Sololá	716	San Marcos la Laguna 	11	San Marcos la laguna 	1	Enero	2023-01-20T00:00:00	2024-11-08T00:00:00	1	Precipitación	0
171960	7	Sololá	716	San Marcos la Laguna 	11	San Marcos la laguna 	1	Enero	2023-01-20T00:00:00	2024-11-08T00:00:00	8	Radiación solar	0
171961	7	Sololá	716	San Marcos la Laguna 	11	San Marcos la laguna 	1	Enero	2023-01-20T00:00:00	2024-11-08T01:00:00	2	Temperatura media	13.6
171962	7	Sololá	716	San Marcos la Laguna 	11	San Marcos la laguna 	1	Enero	2023-01-20T00:00:00	2024-11-08T01:00:00	4	Temperatura máxima	14.1
171963	7	Sololá	716	San Marcos la Laguna 	11	San Marcos la laguna 	1	Enero	2023-01-20T00:00:00	2024-11-08T01:00:00	3	Temperatura mínima	13.6
171964	7	Sololá	716	San Marcos la Laguna 	11	San Marcos la laguna 	1	Enero	2023-01-20T00:00:00	2024-11-08T01:00:00	5	Humedad	80
171965	7	Sololá	716	San Marcos la Laguna 	11	San Marcos la laguna 	1	Enero	2023-01-20T00:00:00	2024-11-08T01:00:00	6	Velocidad del viento	8
171966	7	Sololá	716	San Marcos la Laguna 	11	San Marcos la laguna 	1	Enero	2023-01-20T00:00:00	2024-11-08T01:00:00	7	Dirección del viento	8.05
171967	7	Sololá	716	San Marcos la Laguna 	11	San Marcos la laguna 	1	Enero	2023-01-20T00:00:00	2024-11-08T01:00:00	1	Precipitación	0
171968	7	Sololá	716	San Marcos la Laguna 	11	San Marcos la laguna 	1	Enero	2023-01-20T00:00:00	2024-11-08T01:00:00	8	Radiación solar	0
171969	7	Sololá	716	San Marcos la Laguna 	11	San Marcos la laguna 	1	Enero	2023-01-20T00:00:00	2024-11-08T02:00:00	2	Temperatura media	13.4
171970	7	Sololá	716	San Marcos la Laguna 	11	San Marcos la laguna 	1	Enero	2023-01-20T00:00:00	2024-11-08T02:00:00	4	Temperatura máxima	13.6
171971	7	Sololá	716	San Marcos la Laguna 	11	San Marcos la laguna 	1	Enero	2023-01-20T00:00:00	2024-11-08T02:00:00	3	Temperatura mínima	13.3
171972	7	Sololá	716	San Marcos la Laguna 	11	San Marcos la laguna 	1	Enero	2023-01-20T00:00:00	2024-11-08T02:00:00	5	Humedad	81
171973	7	Sololá	716	San Marcos la Laguna 	11	San Marcos la laguna 	1	Enero	2023-01-20T00:00:00	2024-11-08T02:00:00	6	Velocidad del viento	8
171974	7	Sololá	716	San Marcos la Laguna 	11	San Marcos la laguna 	1	Enero	2023-01-20T00:00:00	2024-11-08T02:00:00	7	Dirección del viento	8.05
171975	7	Sololá	716	San Marcos la Laguna 	11	San Marcos la laguna 	1	Enero	2023-01-20T00:00:00	2024-11-08T02:00:00	1	Precipitación	0
171976	7	Sololá	716	San Marcos la Laguna 	11	San Marcos la laguna 	1	Enero	2023-01-20T00:00:00	2024-11-08T02:00:00	8	Radiación solar	0
171977	7	Sololá	716	San Marcos la Laguna 	11	San Marcos la laguna 	1	Enero	2023-01-20T00:00:00	2024-11-08T03:00:00	2	Temperatura media	13.4
171978	7	Sololá	716	San Marcos la Laguna 	11	San Marcos la laguna 	1	Enero	2023-01-20T00:00:00	2024-11-08T03:00:00	4	Temperatura máxima	14
171979	7	Sololá	716	San Marcos la Laguna 	11	San Marcos la laguna 	1	Enero	2023-01-20T00:00:00	2024-11-08T03:00:00	3	Temperatura mínima	13.3
171980	7	Sololá	716	San Marcos la Laguna 	11	San Marcos la laguna 	1	Enero	2023-01-20T00:00:00	2024-11-08T03:00:00	5	Humedad	80
171981	7	Sololá	716	San Marcos la Laguna 	11	San Marcos la laguna 	1	Enero	2023-01-20T00:00:00	2024-11-08T03:00:00	6	Velocidad del viento	8
171982	7	Sololá	716	San Marcos la Laguna 	11	San Marcos la laguna 	1	Enero	2023-01-20T00:00:00	2024-11-08T03:00:00	7	Dirección del viento	8.05
171983	7	Sololá	716	San Marcos la Laguna 	11	San Marcos la laguna 	1	Enero	2023-01-20T00:00:00	2024-11-08T03:00:00	1	Precipitación	0
171984	7	Sololá	716	San Marcos la Laguna 	11	San Marcos la laguna 	1	Enero	2023-01-20T00:00:00	2024-11-08T03:00:00	8	Radiación solar	0
171985	7	Sololá	716	San Marcos la Laguna 	11	San Marcos la laguna 	1	Enero	2023-01-20T00:00:00	2024-11-08T04:00:00	2	Temperatura media	12.8
171986	7	Sololá	716	San Marcos la Laguna 	11	San Marcos la laguna 	1	Enero	2023-01-20T00:00:00	2024-11-08T04:00:00	4	Temperatura máxima	13.7
171987	7	Sololá	716	San Marcos la Laguna 	11	San Marcos la laguna 	1	Enero	2023-01-20T00:00:00	2024-11-08T04:00:00	3	Temperatura mínima	12.8
171988	7	Sololá	716	San Marcos la Laguna 	11	San Marcos la laguna 	1	Enero	2023-01-20T00:00:00	2024-11-08T04:00:00	5	Humedad	79
171989	7	Sololá	716	San Marcos la Laguna 	11	San Marcos la laguna 	1	Enero	2023-01-20T00:00:00	2024-11-08T04:00:00	6	Velocidad del viento	8
171990	7	Sololá	716	San Marcos la Laguna 	11	San Marcos la laguna 	1	Enero	2023-01-20T00:00:00	2024-11-08T04:00:00	7	Dirección del viento	8.05
171991	7	Sololá	716	San Marcos la Laguna 	11	San Marcos la laguna 	1	Enero	2023-01-20T00:00:00	2024-11-08T04:00:00	1	Precipitación	0
171992	7	Sololá	716	San Marcos la Laguna 	11	San Marcos la laguna 	1	Enero	2023-01-20T00:00:00	2024-11-08T04:00:00	8	Radiación solar	0
171993	7	Sololá	716	San Marcos la Laguna 	11	San Marcos la laguna 	1	Enero	2023-01-20T00:00:00	2024-11-08T05:00:00	2	Temperatura media	12.5
171994	7	Sololá	716	San Marcos la Laguna 	11	San Marcos la laguna 	1	Enero	2023-01-20T00:00:00	2024-11-08T05:00:00	4	Temperatura máxima	12.8
171995	7	Sololá	716	San Marcos la Laguna 	11	San Marcos la laguna 	1	Enero	2023-01-20T00:00:00	2024-11-08T05:00:00	3	Temperatura mínima	12.5
171996	7	Sololá	716	San Marcos la Laguna 	11	San Marcos la laguna 	1	Enero	2023-01-20T00:00:00	2024-11-08T05:00:00	5	Humedad	79
171997	7	Sololá	716	San Marcos la Laguna 	11	San Marcos la laguna 	1	Enero	2023-01-20T00:00:00	2024-11-08T05:00:00	6	Velocidad del viento	8
171998	7	Sololá	716	San Marcos la Laguna 	11	San Marcos la laguna 	1	Enero	2023-01-20T00:00:00	2024-11-08T05:00:00	7	Dirección del viento	8.05
171999	7	Sololá	716	San Marcos la Laguna 	11	San Marcos la laguna 	1	Enero	2023-01-20T00:00:00	2024-11-08T05:00:00	1	Precipitación	0
172000	7	Sololá	716	San Marcos la Laguna 	11	San Marcos la laguna 	1	Enero	2023-01-20T00:00:00	2024-11-08T05:00:00	8	Radiación solar	0
172001	7	Sololá	716	San Marcos la Laguna 	11	San Marcos la laguna 	1	Enero	2023-01-20T00:00:00	2024-11-08T06:00:00	2	Temperatura media	12.4
172002	7	Sololá	716	San Marcos la Laguna 	11	San Marcos la laguna 	1	Enero	2023-01-20T00:00:00	2024-11-08T06:00:00	4	Temperatura máxima	12.7
172003	7	Sololá	716	San Marcos la Laguna 	11	San Marcos la laguna 	1	Enero	2023-01-20T00:00:00	2024-11-08T06:00:00	3	Temperatura mínima	12.2
172004	7	Sololá	716	San Marcos la Laguna 	11	San Marcos la laguna 	1	Enero	2023-01-20T00:00:00	2024-11-08T06:00:00	5	Humedad	84
172005	7	Sololá	716	San Marcos la Laguna 	11	San Marcos la laguna 	1	Enero	2023-01-20T00:00:00	2024-11-08T06:00:00	6	Velocidad del viento	6.4
172006	7	Sololá	716	San Marcos la Laguna 	11	San Marcos la laguna 	1	Enero	2023-01-20T00:00:00	2024-11-08T06:00:00	7	Dirección del viento	6.44
172007	7	Sololá	716	San Marcos la Laguna 	11	San Marcos la laguna 	1	Enero	2023-01-20T00:00:00	2024-11-08T06:00:00	1	Precipitación	0
172008	7	Sololá	716	San Marcos la Laguna 	11	San Marcos la laguna 	1	Enero	2023-01-20T00:00:00	2024-11-08T06:00:00	8	Radiación solar	0
172009	7	Sololá	716	San Marcos la Laguna 	11	San Marcos la laguna 	1	Enero	2023-01-20T00:00:00	2024-11-08T07:00:00	2	Temperatura media	12.4
172010	7	Sololá	716	San Marcos la Laguna 	11	San Marcos la laguna 	1	Enero	2023-01-20T00:00:00	2024-11-08T07:00:00	4	Temperatura máxima	12.4
172011	7	Sololá	716	San Marcos la Laguna 	11	San Marcos la laguna 	1	Enero	2023-01-20T00:00:00	2024-11-08T07:00:00	3	Temperatura mínima	12
172012	7	Sololá	716	San Marcos la Laguna 	11	San Marcos la laguna 	1	Enero	2023-01-20T00:00:00	2024-11-08T07:00:00	5	Humedad	77
172013	7	Sololá	716	San Marcos la Laguna 	11	San Marcos la laguna 	1	Enero	2023-01-20T00:00:00	2024-11-08T07:00:00	6	Velocidad del viento	6.4
172014	7	Sololá	716	San Marcos la Laguna 	11	San Marcos la laguna 	1	Enero	2023-01-20T00:00:00	2024-11-08T07:00:00	7	Dirección del viento	6.44
172015	7	Sololá	716	San Marcos la Laguna 	11	San Marcos la laguna 	1	Enero	2023-01-20T00:00:00	2024-11-08T07:00:00	1	Precipitación	0
172016	7	Sololá	716	San Marcos la Laguna 	11	San Marcos la laguna 	1	Enero	2023-01-20T00:00:00	2024-11-08T07:00:00	8	Radiación solar	4
172017	7	Sololá	716	San Marcos la Laguna 	11	San Marcos la laguna 	1	Enero	2023-01-20T00:00:00	2024-11-08T08:00:00	2	Temperatura media	15.8
172018	7	Sololá	716	San Marcos la Laguna 	11	San Marcos la laguna 	1	Enero	2023-01-20T00:00:00	2024-11-08T08:00:00	4	Temperatura máxima	15.8
172019	7	Sololá	716	San Marcos la Laguna 	11	San Marcos la laguna 	1	Enero	2023-01-20T00:00:00	2024-11-08T08:00:00	3	Temperatura mínima	12.4
172020	7	Sololá	716	San Marcos la Laguna 	11	San Marcos la laguna 	1	Enero	2023-01-20T00:00:00	2024-11-08T08:00:00	5	Humedad	75
172021	7	Sololá	716	San Marcos la Laguna 	11	San Marcos la laguna 	1	Enero	2023-01-20T00:00:00	2024-11-08T08:00:00	6	Velocidad del viento	4.8
172022	7	Sololá	716	San Marcos la Laguna 	11	San Marcos la laguna 	1	Enero	2023-01-20T00:00:00	2024-11-08T08:00:00	7	Dirección del viento	4.83
172023	7	Sololá	716	San Marcos la Laguna 	11	San Marcos la laguna 	1	Enero	2023-01-20T00:00:00	2024-11-08T08:00:00	1	Precipitación	0
172024	7	Sololá	716	San Marcos la Laguna 	11	San Marcos la laguna 	1	Enero	2023-01-20T00:00:00	2024-11-08T08:00:00	8	Radiación solar	118
172025	7	Sololá	716	San Marcos la Laguna 	11	San Marcos la laguna 	1	Enero	2023-01-20T00:00:00	2024-11-08T09:00:00	2	Temperatura media	19.1
172026	7	Sololá	716	San Marcos la Laguna 	11	San Marcos la laguna 	1	Enero	2023-01-20T00:00:00	2024-11-08T09:00:00	4	Temperatura máxima	19.1
172027	7	Sololá	716	San Marcos la Laguna 	11	San Marcos la laguna 	1	Enero	2023-01-20T00:00:00	2024-11-08T09:00:00	3	Temperatura mínima	15.8
172028	7	Sololá	716	San Marcos la Laguna 	11	San Marcos la laguna 	1	Enero	2023-01-20T00:00:00	2024-11-08T09:00:00	5	Humedad	67
172029	7	Sololá	716	San Marcos la Laguna 	11	San Marcos la laguna 	1	Enero	2023-01-20T00:00:00	2024-11-08T09:00:00	6	Velocidad del viento	1.6
172030	7	Sololá	716	San Marcos la Laguna 	11	San Marcos la laguna 	1	Enero	2023-01-20T00:00:00	2024-11-08T09:00:00	7	Dirección del viento	1.61
172031	7	Sololá	716	San Marcos la Laguna 	11	San Marcos la laguna 	1	Enero	2023-01-20T00:00:00	2024-11-08T09:00:00	1	Precipitación	0
172032	7	Sololá	716	San Marcos la Laguna 	11	San Marcos la laguna 	1	Enero	2023-01-20T00:00:00	2024-11-08T09:00:00	8	Radiación solar	332
172033	7	Sololá	716	San Marcos la Laguna 	11	San Marcos la laguna 	1	Enero	2023-01-20T00:00:00	2024-11-08T10:00:00	2	Temperatura media	20.6
172034	7	Sololá	716	San Marcos la Laguna 	11	San Marcos la laguna 	1	Enero	2023-01-20T00:00:00	2024-11-08T10:00:00	4	Temperatura máxima	20.6
172035	7	Sololá	716	San Marcos la Laguna 	11	San Marcos la laguna 	1	Enero	2023-01-20T00:00:00	2024-11-08T10:00:00	3	Temperatura mínima	19.1
172036	7	Sololá	716	San Marcos la Laguna 	11	San Marcos la laguna 	1	Enero	2023-01-20T00:00:00	2024-11-08T10:00:00	5	Humedad	61
172037	7	Sololá	716	San Marcos la Laguna 	11	San Marcos la laguna 	1	Enero	2023-01-20T00:00:00	2024-11-08T10:00:00	6	Velocidad del viento	3.2
172038	7	Sololá	716	San Marcos la Laguna 	11	San Marcos la laguna 	1	Enero	2023-01-20T00:00:00	2024-11-08T10:00:00	7	Dirección del viento	3.22
172039	7	Sololá	716	San Marcos la Laguna 	11	San Marcos la laguna 	1	Enero	2023-01-20T00:00:00	2024-11-08T10:00:00	1	Precipitación	0
172040	7	Sololá	716	San Marcos la Laguna 	11	San Marcos la laguna 	1	Enero	2023-01-20T00:00:00	2024-11-08T10:00:00	8	Radiación solar	521
172041	7	Sololá	716	San Marcos la Laguna 	11	San Marcos la laguna 	1	Enero	2023-01-20T00:00:00	2024-11-08T11:00:00	2	Temperatura media	22.7
172042	7	Sololá	716	San Marcos la Laguna 	11	San Marcos la laguna 	1	Enero	2023-01-20T00:00:00	2024-11-08T11:00:00	4	Temperatura máxima	22.7
172043	7	Sololá	716	San Marcos la Laguna 	11	San Marcos la laguna 	1	Enero	2023-01-20T00:00:00	2024-11-08T11:00:00	3	Temperatura mínima	20.6
172044	7	Sololá	716	San Marcos la Laguna 	11	San Marcos la laguna 	1	Enero	2023-01-20T00:00:00	2024-11-08T11:00:00	5	Humedad	51
172045	7	Sololá	716	San Marcos la Laguna 	11	San Marcos la laguna 	1	Enero	2023-01-20T00:00:00	2024-11-08T11:00:00	6	Velocidad del viento	3.2
172046	7	Sololá	716	San Marcos la Laguna 	11	San Marcos la laguna 	1	Enero	2023-01-20T00:00:00	2024-11-08T11:00:00	7	Dirección del viento	3.22
172047	7	Sololá	716	San Marcos la Laguna 	11	San Marcos la laguna 	1	Enero	2023-01-20T00:00:00	2024-11-08T11:00:00	1	Precipitación	0
172048	7	Sololá	716	San Marcos la Laguna 	11	San Marcos la laguna 	1	Enero	2023-01-20T00:00:00	2024-11-08T11:00:00	8	Radiación solar	576
172049	7	Sololá	716	San Marcos la Laguna 	11	San Marcos la laguna 	1	Enero	2023-01-20T00:00:00	2024-11-08T12:00:00	2	Temperatura media	23.8
172050	7	Sololá	716	San Marcos la Laguna 	11	San Marcos la laguna 	1	Enero	2023-01-20T00:00:00	2024-11-08T12:00:00	4	Temperatura máxima	23.8
172051	7	Sololá	716	San Marcos la Laguna 	11	San Marcos la laguna 	1	Enero	2023-01-20T00:00:00	2024-11-08T12:00:00	3	Temperatura mínima	22.4
172052	7	Sololá	716	San Marcos la Laguna 	11	San Marcos la laguna 	1	Enero	2023-01-20T00:00:00	2024-11-08T12:00:00	5	Humedad	46
172053	7	Sololá	716	San Marcos la Laguna 	11	San Marcos la laguna 	1	Enero	2023-01-20T00:00:00	2024-11-08T12:00:00	6	Velocidad del viento	6.4
172054	7	Sololá	716	San Marcos la Laguna 	11	San Marcos la laguna 	1	Enero	2023-01-20T00:00:00	2024-11-08T12:00:00	7	Dirección del viento	6.44
172055	7	Sololá	716	San Marcos la Laguna 	11	San Marcos la laguna 	1	Enero	2023-01-20T00:00:00	2024-11-08T12:00:00	1	Precipitación	0
172056	7	Sololá	716	San Marcos la Laguna 	11	San Marcos la laguna 	1	Enero	2023-01-20T00:00:00	2024-11-08T12:00:00	8	Radiación solar	721
172057	7	Sololá	716	San Marcos la Laguna 	11	San Marcos la laguna 	1	Enero	2023-01-20T00:00:00	2024-11-08T13:00:00	2	Temperatura media	23.4
172058	7	Sololá	716	San Marcos la Laguna 	11	San Marcos la laguna 	1	Enero	2023-01-20T00:00:00	2024-11-08T13:00:00	4	Temperatura máxima	23.9
172059	7	Sololá	716	San Marcos la Laguna 	11	San Marcos la laguna 	1	Enero	2023-01-20T00:00:00	2024-11-08T13:00:00	3	Temperatura mínima	23.1
172060	7	Sololá	716	San Marcos la Laguna 	11	San Marcos la laguna 	1	Enero	2023-01-20T00:00:00	2024-11-08T13:00:00	5	Humedad	62
172061	7	Sololá	716	San Marcos la Laguna 	11	San Marcos la laguna 	1	Enero	2023-01-20T00:00:00	2024-11-08T13:00:00	6	Velocidad del viento	12.9
172062	7	Sololá	716	San Marcos la Laguna 	11	San Marcos la laguna 	1	Enero	2023-01-20T00:00:00	2024-11-08T13:00:00	7	Dirección del viento	12.87
172063	7	Sololá	716	San Marcos la Laguna 	11	San Marcos la laguna 	1	Enero	2023-01-20T00:00:00	2024-11-08T13:00:00	1	Precipitación	0
172064	7	Sololá	716	San Marcos la Laguna 	11	San Marcos la laguna 	1	Enero	2023-01-20T00:00:00	2024-11-08T13:00:00	8	Radiación solar	773
172065	7	Sololá	716	San Marcos la Laguna 	11	San Marcos la laguna 	1	Enero	2023-01-20T00:00:00	2024-11-08T14:00:00	2	Temperatura media	21.9
172066	7	Sololá	716	San Marcos la Laguna 	11	San Marcos la laguna 	1	Enero	2023-01-20T00:00:00	2024-11-08T14:00:00	4	Temperatura máxima	23.4
172067	7	Sololá	716	San Marcos la Laguna 	11	San Marcos la laguna 	1	Enero	2023-01-20T00:00:00	2024-11-08T14:00:00	3	Temperatura mínima	21.9
172068	7	Sololá	716	San Marcos la Laguna 	11	San Marcos la laguna 	1	Enero	2023-01-20T00:00:00	2024-11-08T14:00:00	5	Humedad	70
172069	7	Sololá	716	San Marcos la Laguna 	11	San Marcos la laguna 	1	Enero	2023-01-20T00:00:00	2024-11-08T14:00:00	6	Velocidad del viento	9.7
172070	7	Sololá	716	San Marcos la Laguna 	11	San Marcos la laguna 	1	Enero	2023-01-20T00:00:00	2024-11-08T14:00:00	7	Dirección del viento	9.66
172071	7	Sololá	716	San Marcos la Laguna 	11	San Marcos la laguna 	1	Enero	2023-01-20T00:00:00	2024-11-08T14:00:00	1	Precipitación	0
172072	7	Sololá	716	San Marcos la Laguna 	11	San Marcos la laguna 	1	Enero	2023-01-20T00:00:00	2024-11-08T14:00:00	8	Radiación solar	717
172073	7	Sololá	716	San Marcos la Laguna 	11	San Marcos la laguna 	1	Enero	2023-01-20T00:00:00	2024-11-08T15:00:00	2	Temperatura media	21.1
172074	7	Sololá	716	San Marcos la Laguna 	11	San Marcos la laguna 	1	Enero	2023-01-20T00:00:00	2024-11-08T15:00:00	4	Temperatura máxima	22.2
172075	7	Sololá	716	San Marcos la Laguna 	11	San Marcos la laguna 	1	Enero	2023-01-20T00:00:00	2024-11-08T15:00:00	3	Temperatura mínima	21.1
172076	7	Sololá	716	San Marcos la Laguna 	11	San Marcos la laguna 	1	Enero	2023-01-20T00:00:00	2024-11-08T15:00:00	5	Humedad	69
172077	7	Sololá	716	San Marcos la Laguna 	11	San Marcos la laguna 	1	Enero	2023-01-20T00:00:00	2024-11-08T15:00:00	6	Velocidad del viento	12.9
172078	7	Sololá	716	San Marcos la Laguna 	11	San Marcos la laguna 	1	Enero	2023-01-20T00:00:00	2024-11-08T15:00:00	7	Dirección del viento	12.87
172079	7	Sololá	716	San Marcos la Laguna 	11	San Marcos la laguna 	1	Enero	2023-01-20T00:00:00	2024-11-08T15:00:00	1	Precipitación	0
172080	7	Sololá	716	San Marcos la Laguna 	11	San Marcos la laguna 	1	Enero	2023-01-20T00:00:00	2024-11-08T15:00:00	8	Radiación solar	596
172081	7	Sololá	716	San Marcos la Laguna 	11	San Marcos la laguna 	1	Enero	2023-01-20T00:00:00	2024-11-08T16:00:00	2	Temperatura media	20.9
172082	7	Sololá	716	San Marcos la Laguna 	11	San Marcos la laguna 	1	Enero	2023-01-20T00:00:00	2024-11-08T16:00:00	4	Temperatura máxima	21.3
172083	7	Sololá	716	San Marcos la Laguna 	11	San Marcos la laguna 	1	Enero	2023-01-20T00:00:00	2024-11-08T16:00:00	3	Temperatura mínima	20.6
172084	7	Sololá	716	San Marcos la Laguna 	11	San Marcos la laguna 	1	Enero	2023-01-20T00:00:00	2024-11-08T16:00:00	5	Humedad	70
172085	7	Sololá	716	San Marcos la Laguna 	11	San Marcos la laguna 	1	Enero	2023-01-20T00:00:00	2024-11-08T16:00:00	6	Velocidad del viento	11.3
172086	7	Sololá	716	San Marcos la Laguna 	11	San Marcos la laguna 	1	Enero	2023-01-20T00:00:00	2024-11-08T16:00:00	7	Dirección del viento	11.27
172087	7	Sololá	716	San Marcos la Laguna 	11	San Marcos la laguna 	1	Enero	2023-01-20T00:00:00	2024-11-08T16:00:00	1	Precipitación	0
172088	7	Sololá	716	San Marcos la Laguna 	11	San Marcos la laguna 	1	Enero	2023-01-20T00:00:00	2024-11-08T16:00:00	8	Radiación solar	420
172089	7	Sololá	716	San Marcos la Laguna 	11	San Marcos la laguna 	1	Enero	2023-01-20T00:00:00	2024-11-08T17:00:00	2	Temperatura media	19.7
172090	7	Sololá	716	San Marcos la Laguna 	11	San Marcos la laguna 	1	Enero	2023-01-20T00:00:00	2024-11-08T17:00:00	4	Temperatura máxima	21
172091	7	Sololá	716	San Marcos la Laguna 	11	San Marcos la laguna 	1	Enero	2023-01-20T00:00:00	2024-11-08T17:00:00	3	Temperatura mínima	19.6
172092	7	Sololá	716	San Marcos la Laguna 	11	San Marcos la laguna 	1	Enero	2023-01-20T00:00:00	2024-11-08T17:00:00	5	Humedad	77
172093	7	Sololá	716	San Marcos la Laguna 	11	San Marcos la laguna 	1	Enero	2023-01-20T00:00:00	2024-11-08T17:00:00	6	Velocidad del viento	8
172094	7	Sololá	716	San Marcos la Laguna 	11	San Marcos la laguna 	1	Enero	2023-01-20T00:00:00	2024-11-08T17:00:00	7	Dirección del viento	8.05
172095	7	Sololá	716	San Marcos la Laguna 	11	San Marcos la laguna 	1	Enero	2023-01-20T00:00:00	2024-11-08T17:00:00	1	Precipitación	0
172096	7	Sololá	716	San Marcos la Laguna 	11	San Marcos la laguna 	1	Enero	2023-01-20T00:00:00	2024-11-08T17:00:00	8	Radiación solar	179
172097	7	Sololá	716	San Marcos la Laguna 	11	San Marcos la laguna 	1	Enero	2023-01-20T00:00:00	2024-11-08T18:00:00	2	Temperatura media	19.1
172098	7	Sololá	716	San Marcos la Laguna 	11	San Marcos la laguna 	1	Enero	2023-01-20T00:00:00	2024-11-08T18:00:00	4	Temperatura máxima	19.9
172099	7	Sololá	716	San Marcos la Laguna 	11	San Marcos la laguna 	1	Enero	2023-01-20T00:00:00	2024-11-08T18:00:00	3	Temperatura mínima	19.1
172100	7	Sololá	716	San Marcos la Laguna 	11	San Marcos la laguna 	1	Enero	2023-01-20T00:00:00	2024-11-08T18:00:00	5	Humedad	81
172101	7	Sololá	716	San Marcos la Laguna 	11	San Marcos la laguna 	1	Enero	2023-01-20T00:00:00	2024-11-08T18:00:00	6	Velocidad del viento	4.8
172102	7	Sololá	716	San Marcos la Laguna 	11	San Marcos la laguna 	1	Enero	2023-01-20T00:00:00	2024-11-08T18:00:00	7	Dirección del viento	4.83
172103	7	Sololá	716	San Marcos la Laguna 	11	San Marcos la laguna 	1	Enero	2023-01-20T00:00:00	2024-11-08T18:00:00	1	Precipitación	0
172104	7	Sololá	716	San Marcos la Laguna 	11	San Marcos la laguna 	1	Enero	2023-01-20T00:00:00	2024-11-08T18:00:00	8	Radiación solar	32
172105	7	Sololá	716	San Marcos la Laguna 	11	San Marcos la laguna 	1	Enero	2023-01-20T00:00:00	2024-11-08T19:00:00	2	Temperatura media	17.3
172106	7	Sololá	716	San Marcos la Laguna 	11	San Marcos la laguna 	1	Enero	2023-01-20T00:00:00	2024-11-08T19:00:00	4	Temperatura máxima	19.1
172107	7	Sololá	716	San Marcos la Laguna 	11	San Marcos la laguna 	1	Enero	2023-01-20T00:00:00	2024-11-08T19:00:00	3	Temperatura mínima	17.3
172108	7	Sololá	716	San Marcos la Laguna 	11	San Marcos la laguna 	1	Enero	2023-01-20T00:00:00	2024-11-08T19:00:00	5	Humedad	85
172109	7	Sololá	716	San Marcos la Laguna 	11	San Marcos la laguna 	1	Enero	2023-01-20T00:00:00	2024-11-08T19:00:00	6	Velocidad del viento	1.6
172110	7	Sololá	716	San Marcos la Laguna 	11	San Marcos la laguna 	1	Enero	2023-01-20T00:00:00	2024-11-08T19:00:00	7	Dirección del viento	1.61
172111	7	Sololá	716	San Marcos la Laguna 	11	San Marcos la laguna 	1	Enero	2023-01-20T00:00:00	2024-11-08T19:00:00	1	Precipitación	0
172112	7	Sololá	716	San Marcos la Laguna 	11	San Marcos la laguna 	1	Enero	2023-01-20T00:00:00	2024-11-08T19:00:00	8	Radiación solar	0
172113	7	Sololá	716	San Marcos la Laguna 	11	San Marcos la laguna 	1	Enero	2023-01-20T00:00:00	2024-11-08T20:00:00	2	Temperatura media	16.7
172114	7	Sololá	716	San Marcos la Laguna 	11	San Marcos la laguna 	1	Enero	2023-01-20T00:00:00	2024-11-08T20:00:00	4	Temperatura máxima	17.3
172115	7	Sololá	716	San Marcos la Laguna 	11	San Marcos la laguna 	1	Enero	2023-01-20T00:00:00	2024-11-08T20:00:00	3	Temperatura mínima	16.7
172116	7	Sololá	716	San Marcos la Laguna 	11	San Marcos la laguna 	1	Enero	2023-01-20T00:00:00	2024-11-08T20:00:00	5	Humedad	86
172117	7	Sololá	716	San Marcos la Laguna 	11	San Marcos la laguna 	1	Enero	2023-01-20T00:00:00	2024-11-08T20:00:00	6	Velocidad del viento	4.8
172118	7	Sololá	716	San Marcos la Laguna 	11	San Marcos la laguna 	1	Enero	2023-01-20T00:00:00	2024-11-08T20:00:00	7	Dirección del viento	4.83
172119	7	Sololá	716	San Marcos la Laguna 	11	San Marcos la laguna 	1	Enero	2023-01-20T00:00:00	2024-11-08T20:00:00	1	Precipitación	0
172120	7	Sololá	716	San Marcos la Laguna 	11	San Marcos la laguna 	1	Enero	2023-01-20T00:00:00	2024-11-08T20:00:00	8	Radiación solar	0
172121	7	Sololá	716	San Marcos la Laguna 	11	San Marcos la laguna 	1	Enero	2023-01-20T00:00:00	2024-11-08T21:00:00	2	Temperatura media	16.4
172122	7	Sololá	716	San Marcos la Laguna 	11	San Marcos la laguna 	1	Enero	2023-01-20T00:00:00	2024-11-08T21:00:00	4	Temperatura máxima	16.7
172123	7	Sololá	716	San Marcos la Laguna 	11	San Marcos la laguna 	1	Enero	2023-01-20T00:00:00	2024-11-08T21:00:00	3	Temperatura mínima	16.1
172124	7	Sololá	716	San Marcos la Laguna 	11	San Marcos la laguna 	1	Enero	2023-01-20T00:00:00	2024-11-08T21:00:00	5	Humedad	85
172125	7	Sololá	716	San Marcos la Laguna 	11	San Marcos la laguna 	1	Enero	2023-01-20T00:00:00	2024-11-08T21:00:00	6	Velocidad del viento	6.4
172126	7	Sololá	716	San Marcos la Laguna 	11	San Marcos la laguna 	1	Enero	2023-01-20T00:00:00	2024-11-08T21:00:00	7	Dirección del viento	6.44
172127	7	Sololá	716	San Marcos la Laguna 	11	San Marcos la laguna 	1	Enero	2023-01-20T00:00:00	2024-11-08T21:00:00	1	Precipitación	0
172128	7	Sololá	716	San Marcos la Laguna 	11	San Marcos la laguna 	1	Enero	2023-01-20T00:00:00	2024-11-08T21:00:00	8	Radiación solar	0
172129	7	Sololá	716	San Marcos la Laguna 	11	San Marcos la laguna 	1	Enero	2023-01-20T00:00:00	2024-11-08T22:00:00	2	Temperatura media	15.8
172130	7	Sololá	716	San Marcos la Laguna 	11	San Marcos la laguna 	1	Enero	2023-01-20T00:00:00	2024-11-08T22:00:00	4	Temperatura máxima	16.4
172131	7	Sololá	716	San Marcos la Laguna 	11	San Marcos la laguna 	1	Enero	2023-01-20T00:00:00	2024-11-08T22:00:00	3	Temperatura mínima	15.8
172132	7	Sololá	716	San Marcos la Laguna 	11	San Marcos la laguna 	1	Enero	2023-01-20T00:00:00	2024-11-08T22:00:00	5	Humedad	84
172133	7	Sololá	716	San Marcos la Laguna 	11	San Marcos la laguna 	1	Enero	2023-01-20T00:00:00	2024-11-08T22:00:00	6	Velocidad del viento	6.4
172134	7	Sololá	716	San Marcos la Laguna 	11	San Marcos la laguna 	1	Enero	2023-01-20T00:00:00	2024-11-08T22:00:00	7	Dirección del viento	6.44
172135	7	Sololá	716	San Marcos la Laguna 	11	San Marcos la laguna 	1	Enero	2023-01-20T00:00:00	2024-11-08T22:00:00	1	Precipitación	0
172136	7	Sololá	716	San Marcos la Laguna 	11	San Marcos la laguna 	1	Enero	2023-01-20T00:00:00	2024-11-08T22:00:00	8	Radiación solar	0
172137	7	Sololá	716	San Marcos la Laguna 	11	San Marcos la laguna 	1	Enero	2023-01-20T00:00:00	2024-11-08T23:00:00	2	Temperatura media	15.9
172138	7	Sololá	716	San Marcos la Laguna 	11	San Marcos la laguna 	1	Enero	2023-01-20T00:00:00	2024-11-08T23:00:00	4	Temperatura máxima	16.2
172139	7	Sololá	716	San Marcos la Laguna 	11	San Marcos la laguna 	1	Enero	2023-01-20T00:00:00	2024-11-08T23:00:00	3	Temperatura mínima	15.7
172140	7	Sololá	716	San Marcos la Laguna 	11	San Marcos la laguna 	1	Enero	2023-01-20T00:00:00	2024-11-08T23:00:00	5	Humedad	83
172141	7	Sololá	716	San Marcos la Laguna 	11	San Marcos la laguna 	1	Enero	2023-01-20T00:00:00	2024-11-08T23:00:00	6	Velocidad del viento	8
172142	7	Sololá	716	San Marcos la Laguna 	11	San Marcos la laguna 	1	Enero	2023-01-20T00:00:00	2024-11-08T23:00:00	7	Dirección del viento	8.05
172143	7	Sololá	716	San Marcos la Laguna 	11	San Marcos la laguna 	1	Enero	2023-01-20T00:00:00	2024-11-08T23:00:00	1	Precipitación	0
172144	7	Sololá	716	San Marcos la Laguna 	11	San Marcos la laguna 	1	Enero	2023-01-20T00:00:00	2024-11-08T23:00:00	8	Radiación solar	0
172145	7	Sololá	716	San Marcos la Laguna 	11	San Marcos la laguna 	1	Enero	2023-01-21T00:00:00	2024-11-08T00:00:00	2	Temperatura media	15.6
172146	7	Sololá	716	San Marcos la Laguna 	11	San Marcos la laguna 	1	Enero	2023-01-21T00:00:00	2024-11-08T00:00:00	4	Temperatura máxima	16.4
172147	7	Sololá	716	San Marcos la Laguna 	11	San Marcos la laguna 	1	Enero	2023-01-21T00:00:00	2024-11-08T00:00:00	3	Temperatura mínima	15.5
172148	7	Sololá	716	San Marcos la Laguna 	11	San Marcos la laguna 	1	Enero	2023-01-21T00:00:00	2024-11-08T00:00:00	5	Humedad	82
172149	7	Sololá	716	San Marcos la Laguna 	11	San Marcos la laguna 	1	Enero	2023-01-21T00:00:00	2024-11-08T00:00:00	6	Velocidad del viento	6.4
172150	7	Sololá	716	San Marcos la Laguna 	11	San Marcos la laguna 	1	Enero	2023-01-21T00:00:00	2024-11-08T00:00:00	7	Dirección del viento	6.44
172151	7	Sololá	716	San Marcos la Laguna 	11	San Marcos la laguna 	1	Enero	2023-01-21T00:00:00	2024-11-08T00:00:00	1	Precipitación	0
172152	7	Sololá	716	San Marcos la Laguna 	11	San Marcos la laguna 	1	Enero	2023-01-21T00:00:00	2024-11-08T00:00:00	8	Radiación solar	0
172153	7	Sololá	716	San Marcos la Laguna 	11	San Marcos la laguna 	1	Enero	2023-01-21T00:00:00	2024-11-08T01:00:00	2	Temperatura media	15.6
172154	7	Sololá	716	San Marcos la Laguna 	11	San Marcos la laguna 	1	Enero	2023-01-21T00:00:00	2024-11-08T01:00:00	4	Temperatura máxima	16.2
172155	7	Sololá	716	San Marcos la Laguna 	11	San Marcos la laguna 	1	Enero	2023-01-21T00:00:00	2024-11-08T01:00:00	3	Temperatura mínima	15.4
172156	7	Sololá	716	San Marcos la Laguna 	11	San Marcos la laguna 	1	Enero	2023-01-21T00:00:00	2024-11-08T01:00:00	5	Humedad	83
172157	7	Sololá	716	San Marcos la Laguna 	11	San Marcos la laguna 	1	Enero	2023-01-21T00:00:00	2024-11-08T01:00:00	6	Velocidad del viento	8
172158	7	Sololá	716	San Marcos la Laguna 	11	San Marcos la laguna 	1	Enero	2023-01-21T00:00:00	2024-11-08T01:00:00	7	Dirección del viento	8.05
172159	7	Sololá	716	San Marcos la Laguna 	11	San Marcos la laguna 	1	Enero	2023-01-21T00:00:00	2024-11-08T01:00:00	1	Precipitación	0
172160	7	Sololá	716	San Marcos la Laguna 	11	San Marcos la laguna 	1	Enero	2023-01-21T00:00:00	2024-11-08T01:00:00	8	Radiación solar	0
172161	7	Sololá	716	San Marcos la Laguna 	11	San Marcos la laguna 	1	Enero	2023-01-21T00:00:00	2024-11-08T02:00:00	2	Temperatura media	15.1
172162	7	Sololá	716	San Marcos la Laguna 	11	San Marcos la laguna 	1	Enero	2023-01-21T00:00:00	2024-11-08T02:00:00	4	Temperatura máxima	15.7
172163	7	Sololá	716	San Marcos la Laguna 	11	San Marcos la laguna 	1	Enero	2023-01-21T00:00:00	2024-11-08T02:00:00	3	Temperatura mínima	15.1
172164	7	Sololá	716	San Marcos la Laguna 	11	San Marcos la laguna 	1	Enero	2023-01-21T00:00:00	2024-11-08T02:00:00	5	Humedad	85
172165	7	Sololá	716	San Marcos la Laguna 	11	San Marcos la laguna 	1	Enero	2023-01-21T00:00:00	2024-11-08T02:00:00	6	Velocidad del viento	8
172166	7	Sololá	716	San Marcos la Laguna 	11	San Marcos la laguna 	1	Enero	2023-01-21T00:00:00	2024-11-08T02:00:00	7	Dirección del viento	8.05
172167	7	Sololá	716	San Marcos la Laguna 	11	San Marcos la laguna 	1	Enero	2023-01-21T00:00:00	2024-11-08T02:00:00	1	Precipitación	0
172168	7	Sololá	716	San Marcos la Laguna 	11	San Marcos la laguna 	1	Enero	2023-01-21T00:00:00	2024-11-08T02:00:00	8	Radiación solar	0
172169	7	Sololá	716	San Marcos la Laguna 	11	San Marcos la laguna 	1	Enero	2023-01-21T00:00:00	2024-11-08T03:00:00	2	Temperatura media	14.7
172170	7	Sololá	716	San Marcos la Laguna 	11	San Marcos la laguna 	1	Enero	2023-01-21T00:00:00	2024-11-08T03:00:00	4	Temperatura máxima	15.2
172171	7	Sololá	716	San Marcos la Laguna 	11	San Marcos la laguna 	1	Enero	2023-01-21T00:00:00	2024-11-08T03:00:00	3	Temperatura mínima	14.6
172172	7	Sololá	716	San Marcos la Laguna 	11	San Marcos la laguna 	1	Enero	2023-01-21T00:00:00	2024-11-08T03:00:00	5	Humedad	85
172173	7	Sololá	716	San Marcos la Laguna 	11	San Marcos la laguna 	1	Enero	2023-01-21T00:00:00	2024-11-08T03:00:00	6	Velocidad del viento	8
172174	7	Sololá	716	San Marcos la Laguna 	11	San Marcos la laguna 	1	Enero	2023-01-21T00:00:00	2024-11-08T03:00:00	7	Dirección del viento	8.05
172175	7	Sololá	716	San Marcos la Laguna 	11	San Marcos la laguna 	1	Enero	2023-01-21T00:00:00	2024-11-08T03:00:00	1	Precipitación	0
172176	7	Sololá	716	San Marcos la Laguna 	11	San Marcos la laguna 	1	Enero	2023-01-21T00:00:00	2024-11-08T03:00:00	8	Radiación solar	0
172177	7	Sololá	716	San Marcos la Laguna 	11	San Marcos la laguna 	1	Enero	2023-01-21T00:00:00	2024-11-08T04:00:00	2	Temperatura media	14.3
172178	7	Sololá	716	San Marcos la Laguna 	11	San Marcos la laguna 	1	Enero	2023-01-21T00:00:00	2024-11-08T04:00:00	4	Temperatura máxima	14.9
172179	7	Sololá	716	San Marcos la Laguna 	11	San Marcos la laguna 	1	Enero	2023-01-21T00:00:00	2024-11-08T04:00:00	3	Temperatura mínima	14.3
172180	7	Sololá	716	San Marcos la Laguna 	11	San Marcos la laguna 	1	Enero	2023-01-21T00:00:00	2024-11-08T04:00:00	5	Humedad	86
172181	7	Sololá	716	San Marcos la Laguna 	11	San Marcos la laguna 	1	Enero	2023-01-21T00:00:00	2024-11-08T04:00:00	6	Velocidad del viento	8
172182	7	Sololá	716	San Marcos la Laguna 	11	San Marcos la laguna 	1	Enero	2023-01-21T00:00:00	2024-11-08T04:00:00	7	Dirección del viento	8.05
172183	7	Sololá	716	San Marcos la Laguna 	11	San Marcos la laguna 	1	Enero	2023-01-21T00:00:00	2024-11-08T04:00:00	1	Precipitación	0
172184	7	Sololá	716	San Marcos la Laguna 	11	San Marcos la laguna 	1	Enero	2023-01-21T00:00:00	2024-11-08T04:00:00	8	Radiación solar	0
172185	7	Sololá	716	San Marcos la Laguna 	11	San Marcos la laguna 	1	Enero	2023-01-21T00:00:00	2024-11-08T05:00:00	2	Temperatura media	13.9
172186	7	Sololá	716	San Marcos la Laguna 	11	San Marcos la laguna 	1	Enero	2023-01-21T00:00:00	2024-11-08T05:00:00	4	Temperatura máxima	14.7
172187	7	Sololá	716	San Marcos la Laguna 	11	San Marcos la laguna 	1	Enero	2023-01-21T00:00:00	2024-11-08T05:00:00	3	Temperatura mínima	13.9
172188	7	Sololá	716	San Marcos la Laguna 	11	San Marcos la laguna 	1	Enero	2023-01-21T00:00:00	2024-11-08T05:00:00	5	Humedad	87
172189	7	Sololá	716	San Marcos la Laguna 	11	San Marcos la laguna 	1	Enero	2023-01-21T00:00:00	2024-11-08T05:00:00	6	Velocidad del viento	6.4
172190	7	Sololá	716	San Marcos la Laguna 	11	San Marcos la laguna 	1	Enero	2023-01-21T00:00:00	2024-11-08T05:00:00	7	Dirección del viento	6.44
172191	7	Sololá	716	San Marcos la Laguna 	11	San Marcos la laguna 	1	Enero	2023-01-21T00:00:00	2024-11-08T05:00:00	1	Precipitación	0
172192	7	Sololá	716	San Marcos la Laguna 	11	San Marcos la laguna 	1	Enero	2023-01-21T00:00:00	2024-11-08T05:00:00	8	Radiación solar	0
172193	7	Sololá	716	San Marcos la Laguna 	11	San Marcos la laguna 	1	Enero	2023-01-21T00:00:00	2024-11-08T06:00:00	2	Temperatura media	13.8
172194	7	Sololá	716	San Marcos la Laguna 	11	San Marcos la laguna 	1	Enero	2023-01-21T00:00:00	2024-11-08T06:00:00	4	Temperatura máxima	14.3
172195	7	Sololá	716	San Marcos la Laguna 	11	San Marcos la laguna 	1	Enero	2023-01-21T00:00:00	2024-11-08T06:00:00	3	Temperatura mínima	13.7
172196	7	Sololá	716	San Marcos la Laguna 	11	San Marcos la laguna 	1	Enero	2023-01-21T00:00:00	2024-11-08T06:00:00	5	Humedad	87
172197	7	Sololá	716	San Marcos la Laguna 	11	San Marcos la laguna 	1	Enero	2023-01-21T00:00:00	2024-11-08T06:00:00	6	Velocidad del viento	8
172198	7	Sololá	716	San Marcos la Laguna 	11	San Marcos la laguna 	1	Enero	2023-01-21T00:00:00	2024-11-08T06:00:00	7	Dirección del viento	8.05
172199	7	Sololá	716	San Marcos la Laguna 	11	San Marcos la laguna 	1	Enero	2023-01-21T00:00:00	2024-11-08T06:00:00	1	Precipitación	0
172200	7	Sololá	716	San Marcos la Laguna 	11	San Marcos la laguna 	1	Enero	2023-01-21T00:00:00	2024-11-08T06:00:00	8	Radiación solar	0
172201	7	Sololá	716	San Marcos la Laguna 	11	San Marcos la laguna 	1	Enero	2023-01-21T00:00:00	2024-11-08T07:00:00	2	Temperatura media	13.7
172202	7	Sololá	716	San Marcos la Laguna 	11	San Marcos la laguna 	1	Enero	2023-01-21T00:00:00	2024-11-08T07:00:00	4	Temperatura máxima	14.2
172203	7	Sololá	716	San Marcos la Laguna 	11	San Marcos la laguna 	1	Enero	2023-01-21T00:00:00	2024-11-08T07:00:00	3	Temperatura mínima	13.6
172204	7	Sololá	716	San Marcos la Laguna 	11	San Marcos la laguna 	1	Enero	2023-01-21T00:00:00	2024-11-08T07:00:00	5	Humedad	88
172205	7	Sololá	716	San Marcos la Laguna 	11	San Marcos la laguna 	1	Enero	2023-01-21T00:00:00	2024-11-08T07:00:00	6	Velocidad del viento	6.4
172206	7	Sololá	716	San Marcos la Laguna 	11	San Marcos la laguna 	1	Enero	2023-01-21T00:00:00	2024-11-08T07:00:00	7	Dirección del viento	6.44
172207	7	Sololá	716	San Marcos la Laguna 	11	San Marcos la laguna 	1	Enero	2023-01-21T00:00:00	2024-11-08T07:00:00	1	Precipitación	0
172208	7	Sololá	716	San Marcos la Laguna 	11	San Marcos la laguna 	1	Enero	2023-01-21T00:00:00	2024-11-08T07:00:00	8	Radiación solar	4
172209	7	Sololá	716	San Marcos la Laguna 	11	San Marcos la laguna 	1	Enero	2023-01-21T00:00:00	2024-11-08T08:00:00	2	Temperatura media	17.2
172210	7	Sololá	716	San Marcos la Laguna 	11	San Marcos la laguna 	1	Enero	2023-01-21T00:00:00	2024-11-08T08:00:00	4	Temperatura máxima	17.2
172211	7	Sololá	716	San Marcos la Laguna 	11	San Marcos la laguna 	1	Enero	2023-01-21T00:00:00	2024-11-08T08:00:00	3	Temperatura mínima	13.7
172212	7	Sololá	716	San Marcos la Laguna 	11	San Marcos la laguna 	1	Enero	2023-01-21T00:00:00	2024-11-08T08:00:00	5	Humedad	80
172213	7	Sololá	716	San Marcos la Laguna 	11	San Marcos la laguna 	1	Enero	2023-01-21T00:00:00	2024-11-08T08:00:00	6	Velocidad del viento	3.2
172214	7	Sololá	716	San Marcos la Laguna 	11	San Marcos la laguna 	1	Enero	2023-01-21T00:00:00	2024-11-08T08:00:00	7	Dirección del viento	3.22
172215	7	Sololá	716	San Marcos la Laguna 	11	San Marcos la laguna 	1	Enero	2023-01-21T00:00:00	2024-11-08T08:00:00	1	Precipitación	0
172216	7	Sololá	716	San Marcos la Laguna 	11	San Marcos la laguna 	1	Enero	2023-01-21T00:00:00	2024-11-08T08:00:00	8	Radiación solar	119
172217	7	Sololá	716	San Marcos la Laguna 	11	San Marcos la laguna 	1	Enero	2023-01-21T00:00:00	2024-11-08T09:00:00	2	Temperatura media	18.8
172218	7	Sololá	716	San Marcos la Laguna 	11	San Marcos la laguna 	1	Enero	2023-01-21T00:00:00	2024-11-08T09:00:00	4	Temperatura máxima	18.8
172219	7	Sololá	716	San Marcos la Laguna 	11	San Marcos la laguna 	1	Enero	2023-01-21T00:00:00	2024-11-08T09:00:00	3	Temperatura mínima	17.2
172220	7	Sololá	716	San Marcos la Laguna 	11	San Marcos la laguna 	1	Enero	2023-01-21T00:00:00	2024-11-08T09:00:00	5	Humedad	74
172221	7	Sololá	716	San Marcos la Laguna 	11	San Marcos la laguna 	1	Enero	2023-01-21T00:00:00	2024-11-08T09:00:00	6	Velocidad del viento	3.2
172222	7	Sololá	716	San Marcos la Laguna 	11	San Marcos la laguna 	1	Enero	2023-01-21T00:00:00	2024-11-08T09:00:00	7	Dirección del viento	3.22
172223	7	Sololá	716	San Marcos la Laguna 	11	San Marcos la laguna 	1	Enero	2023-01-21T00:00:00	2024-11-08T09:00:00	1	Precipitación	0
172224	7	Sololá	716	San Marcos la Laguna 	11	San Marcos la laguna 	1	Enero	2023-01-21T00:00:00	2024-11-08T09:00:00	8	Radiación solar	332
172225	7	Sololá	716	San Marcos la Laguna 	11	San Marcos la laguna 	1	Enero	2023-01-21T00:00:00	2024-11-08T10:00:00	2	Temperatura media	19.8
172226	7	Sololá	716	San Marcos la Laguna 	11	San Marcos la laguna 	1	Enero	2023-01-21T00:00:00	2024-11-08T10:00:00	4	Temperatura máxima	19.8
172227	7	Sololá	716	San Marcos la Laguna 	11	San Marcos la laguna 	1	Enero	2023-01-21T00:00:00	2024-11-08T10:00:00	3	Temperatura mínima	18.8
172228	7	Sololá	716	San Marcos la Laguna 	11	San Marcos la laguna 	1	Enero	2023-01-21T00:00:00	2024-11-08T10:00:00	5	Humedad	70
172229	7	Sololá	716	San Marcos la Laguna 	11	San Marcos la laguna 	1	Enero	2023-01-21T00:00:00	2024-11-08T10:00:00	6	Velocidad del viento	4.8
172230	7	Sololá	716	San Marcos la Laguna 	11	San Marcos la laguna 	1	Enero	2023-01-21T00:00:00	2024-11-08T10:00:00	7	Dirección del viento	4.83
172231	7	Sololá	716	San Marcos la Laguna 	11	San Marcos la laguna 	1	Enero	2023-01-21T00:00:00	2024-11-08T10:00:00	1	Precipitación	0
172232	7	Sololá	716	San Marcos la Laguna 	11	San Marcos la laguna 	1	Enero	2023-01-21T00:00:00	2024-11-08T10:00:00	8	Radiación solar	512
172233	7	Sololá	716	San Marcos la Laguna 	11	San Marcos la laguna 	1	Enero	2023-01-21T00:00:00	2024-11-08T11:00:00	2	Temperatura media	21.2
172234	7	Sololá	716	San Marcos la Laguna 	11	San Marcos la laguna 	1	Enero	2023-01-21T00:00:00	2024-11-08T11:00:00	4	Temperatura máxima	21.2
172235	7	Sololá	716	San Marcos la Laguna 	11	San Marcos la laguna 	1	Enero	2023-01-21T00:00:00	2024-11-08T11:00:00	3	Temperatura mínima	19.8
172236	7	Sololá	716	San Marcos la Laguna 	11	San Marcos la laguna 	1	Enero	2023-01-21T00:00:00	2024-11-08T11:00:00	5	Humedad	61
172237	7	Sololá	716	San Marcos la Laguna 	11	San Marcos la laguna 	1	Enero	2023-01-21T00:00:00	2024-11-08T11:00:00	6	Velocidad del viento	3.2
172238	7	Sololá	716	San Marcos la Laguna 	11	San Marcos la laguna 	1	Enero	2023-01-21T00:00:00	2024-11-08T11:00:00	7	Dirección del viento	3.22
172239	7	Sololá	716	San Marcos la Laguna 	11	San Marcos la laguna 	1	Enero	2023-01-21T00:00:00	2024-11-08T11:00:00	1	Precipitación	0
172240	7	Sololá	716	San Marcos la Laguna 	11	San Marcos la laguna 	1	Enero	2023-01-21T00:00:00	2024-11-08T11:00:00	8	Radiación solar	573
172241	7	Sololá	716	San Marcos la Laguna 	11	San Marcos la laguna 	1	Enero	2023-01-21T00:00:00	2024-11-08T12:00:00	2	Temperatura media	20.8
172242	7	Sololá	716	San Marcos la Laguna 	11	San Marcos la laguna 	1	Enero	2023-01-21T00:00:00	2024-11-08T12:00:00	4	Temperatura máxima	22.1
172243	7	Sololá	716	San Marcos la Laguna 	11	San Marcos la laguna 	1	Enero	2023-01-21T00:00:00	2024-11-08T12:00:00	3	Temperatura mínima	20.4
172244	7	Sololá	716	San Marcos la Laguna 	11	San Marcos la laguna 	1	Enero	2023-01-21T00:00:00	2024-11-08T12:00:00	5	Humedad	68
172245	7	Sololá	716	San Marcos la Laguna 	11	San Marcos la laguna 	1	Enero	2023-01-21T00:00:00	2024-11-08T12:00:00	6	Velocidad del viento	9.7
172246	7	Sololá	716	San Marcos la Laguna 	11	San Marcos la laguna 	1	Enero	2023-01-21T00:00:00	2024-11-08T12:00:00	7	Dirección del viento	9.66
172247	7	Sololá	716	San Marcos la Laguna 	11	San Marcos la laguna 	1	Enero	2023-01-21T00:00:00	2024-11-08T12:00:00	1	Precipitación	0
172248	7	Sololá	716	San Marcos la Laguna 	11	San Marcos la laguna 	1	Enero	2023-01-21T00:00:00	2024-11-08T12:00:00	8	Radiación solar	716
172249	7	Sololá	716	San Marcos la Laguna 	11	San Marcos la laguna 	1	Enero	2023-01-21T00:00:00	2024-11-08T13:00:00	2	Temperatura media	20.6
172250	7	Sololá	716	San Marcos la Laguna 	11	San Marcos la laguna 	1	Enero	2023-01-21T00:00:00	2024-11-08T13:00:00	4	Temperatura máxima	20.9
172251	7	Sololá	716	San Marcos la Laguna 	11	San Marcos la laguna 	1	Enero	2023-01-21T00:00:00	2024-11-08T13:00:00	3	Temperatura mínima	20.3
172252	7	Sololá	716	San Marcos la Laguna 	11	San Marcos la laguna 	1	Enero	2023-01-21T00:00:00	2024-11-08T13:00:00	5	Humedad	75
172253	7	Sololá	716	San Marcos la Laguna 	11	San Marcos la laguna 	1	Enero	2023-01-21T00:00:00	2024-11-08T13:00:00	6	Velocidad del viento	14.5
172254	7	Sololá	716	San Marcos la Laguna 	11	San Marcos la laguna 	1	Enero	2023-01-21T00:00:00	2024-11-08T13:00:00	7	Dirección del viento	14.48
172255	7	Sololá	716	San Marcos la Laguna 	11	San Marcos la laguna 	1	Enero	2023-01-21T00:00:00	2024-11-08T13:00:00	1	Precipitación	0
172256	7	Sololá	716	San Marcos la Laguna 	11	San Marcos la laguna 	1	Enero	2023-01-21T00:00:00	2024-11-08T13:00:00	8	Radiación solar	767
172257	7	Sololá	716	San Marcos la Laguna 	11	San Marcos la laguna 	1	Enero	2023-01-21T00:00:00	2024-11-08T14:00:00	2	Temperatura media	21.4
172258	7	Sololá	716	San Marcos la Laguna 	11	San Marcos la laguna 	1	Enero	2023-01-21T00:00:00	2024-11-08T14:00:00	4	Temperatura máxima	21.5
172259	7	Sololá	716	San Marcos la Laguna 	11	San Marcos la laguna 	1	Enero	2023-01-21T00:00:00	2024-11-08T14:00:00	3	Temperatura mínima	20.6
172260	7	Sololá	716	San Marcos la Laguna 	11	San Marcos la laguna 	1	Enero	2023-01-21T00:00:00	2024-11-08T14:00:00	5	Humedad	71
172261	7	Sololá	716	San Marcos la Laguna 	11	San Marcos la laguna 	1	Enero	2023-01-21T00:00:00	2024-11-08T14:00:00	6	Velocidad del viento	12.9
172262	7	Sololá	716	San Marcos la Laguna 	11	San Marcos la laguna 	1	Enero	2023-01-21T00:00:00	2024-11-08T14:00:00	7	Dirección del viento	12.87
172263	7	Sololá	716	San Marcos la Laguna 	11	San Marcos la laguna 	1	Enero	2023-01-21T00:00:00	2024-11-08T14:00:00	1	Precipitación	0
172264	7	Sololá	716	San Marcos la Laguna 	11	San Marcos la laguna 	1	Enero	2023-01-21T00:00:00	2024-11-08T14:00:00	8	Radiación solar	722
172265	7	Sololá	716	San Marcos la Laguna 	11	San Marcos la laguna 	1	Enero	2023-01-21T00:00:00	2024-11-08T15:00:00	2	Temperatura media	22.1
172266	7	Sololá	716	San Marcos la Laguna 	11	San Marcos la laguna 	1	Enero	2023-01-21T00:00:00	2024-11-08T15:00:00	4	Temperatura máxima	22.4
172267	7	Sololá	716	San Marcos la Laguna 	11	San Marcos la laguna 	1	Enero	2023-01-21T00:00:00	2024-11-08T15:00:00	3	Temperatura mínima	21.3
172268	7	Sololá	716	San Marcos la Laguna 	11	San Marcos la laguna 	1	Enero	2023-01-21T00:00:00	2024-11-08T15:00:00	5	Humedad	71
172269	7	Sololá	716	San Marcos la Laguna 	11	San Marcos la laguna 	1	Enero	2023-01-21T00:00:00	2024-11-08T15:00:00	6	Velocidad del viento	8
172270	7	Sololá	716	San Marcos la Laguna 	11	San Marcos la laguna 	1	Enero	2023-01-21T00:00:00	2024-11-08T15:00:00	7	Dirección del viento	8.05
172271	7	Sololá	716	San Marcos la Laguna 	11	San Marcos la laguna 	1	Enero	2023-01-21T00:00:00	2024-11-08T15:00:00	1	Precipitación	0
172272	7	Sololá	716	San Marcos la Laguna 	11	San Marcos la laguna 	1	Enero	2023-01-21T00:00:00	2024-11-08T15:00:00	8	Radiación solar	567
172273	7	Sololá	716	San Marcos la Laguna 	11	San Marcos la laguna 	1	Enero	2023-01-21T00:00:00	2024-11-08T16:00:00	2	Temperatura media	21.9
172274	7	Sololá	716	San Marcos la Laguna 	11	San Marcos la laguna 	1	Enero	2023-01-21T00:00:00	2024-11-08T16:00:00	4	Temperatura máxima	22.5
172275	7	Sololá	716	San Marcos la Laguna 	11	San Marcos la laguna 	1	Enero	2023-01-21T00:00:00	2024-11-08T16:00:00	3	Temperatura mínima	21.8
172276	7	Sololá	716	San Marcos la Laguna 	11	San Marcos la laguna 	1	Enero	2023-01-21T00:00:00	2024-11-08T16:00:00	5	Humedad	71
172277	7	Sololá	716	San Marcos la Laguna 	11	San Marcos la laguna 	1	Enero	2023-01-21T00:00:00	2024-11-08T16:00:00	6	Velocidad del viento	4.8
172278	7	Sololá	716	San Marcos la Laguna 	11	San Marcos la laguna 	1	Enero	2023-01-21T00:00:00	2024-11-08T16:00:00	7	Dirección del viento	4.83
172279	7	Sololá	716	San Marcos la Laguna 	11	San Marcos la laguna 	1	Enero	2023-01-21T00:00:00	2024-11-08T16:00:00	1	Precipitación	0
172280	7	Sololá	716	San Marcos la Laguna 	11	San Marcos la laguna 	1	Enero	2023-01-21T00:00:00	2024-11-08T16:00:00	8	Radiación solar	467
172281	7	Sololá	716	San Marcos la Laguna 	11	San Marcos la laguna 	1	Enero	2023-01-21T00:00:00	2024-11-08T17:00:00	2	Temperatura media	19.6
172282	7	Sololá	716	San Marcos la Laguna 	11	San Marcos la laguna 	1	Enero	2023-01-21T00:00:00	2024-11-08T17:00:00	4	Temperatura máxima	21.9
172283	7	Sololá	716	San Marcos la Laguna 	11	San Marcos la laguna 	1	Enero	2023-01-21T00:00:00	2024-11-08T17:00:00	3	Temperatura mínima	19.6
172284	7	Sololá	716	San Marcos la Laguna 	11	San Marcos la laguna 	1	Enero	2023-01-21T00:00:00	2024-11-08T17:00:00	5	Humedad	79
172285	7	Sololá	716	San Marcos la Laguna 	11	San Marcos la laguna 	1	Enero	2023-01-21T00:00:00	2024-11-08T17:00:00	6	Velocidad del viento	6.4
172286	7	Sololá	716	San Marcos la Laguna 	11	San Marcos la laguna 	1	Enero	2023-01-21T00:00:00	2024-11-08T17:00:00	7	Dirección del viento	6.44
172287	7	Sololá	716	San Marcos la Laguna 	11	San Marcos la laguna 	1	Enero	2023-01-21T00:00:00	2024-11-08T17:00:00	1	Precipitación	0
172288	7	Sololá	716	San Marcos la Laguna 	11	San Marcos la laguna 	1	Enero	2023-01-21T00:00:00	2024-11-08T17:00:00	8	Radiación solar	147
172289	7	Sololá	716	San Marcos la Laguna 	11	San Marcos la laguna 	1	Enero	2023-01-21T00:00:00	2024-11-08T18:00:00	2	Temperatura media	19.3
172290	7	Sololá	716	San Marcos la Laguna 	11	San Marcos la laguna 	1	Enero	2023-01-21T00:00:00	2024-11-08T18:00:00	4	Temperatura máxima	19.7
172291	7	Sololá	716	San Marcos la Laguna 	11	San Marcos la laguna 	1	Enero	2023-01-21T00:00:00	2024-11-08T18:00:00	3	Temperatura mínima	19.3
172292	7	Sololá	716	San Marcos la Laguna 	11	San Marcos la laguna 	1	Enero	2023-01-21T00:00:00	2024-11-08T18:00:00	5	Humedad	79
172293	7	Sololá	716	San Marcos la Laguna 	11	San Marcos la laguna 	1	Enero	2023-01-21T00:00:00	2024-11-08T18:00:00	6	Velocidad del viento	4.8
172294	7	Sololá	716	San Marcos la Laguna 	11	San Marcos la laguna 	1	Enero	2023-01-21T00:00:00	2024-11-08T18:00:00	7	Dirección del viento	4.83
172295	7	Sololá	716	San Marcos la Laguna 	11	San Marcos la laguna 	1	Enero	2023-01-21T00:00:00	2024-11-08T18:00:00	1	Precipitación	0
172296	7	Sololá	716	San Marcos la Laguna 	11	San Marcos la laguna 	1	Enero	2023-01-21T00:00:00	2024-11-08T18:00:00	8	Radiación solar	25
172297	7	Sololá	716	San Marcos la Laguna 	11	San Marcos la laguna 	1	Enero	2023-01-21T00:00:00	2024-11-08T19:00:00	2	Temperatura media	18.7
172298	7	Sololá	716	San Marcos la Laguna 	11	San Marcos la laguna 	1	Enero	2023-01-21T00:00:00	2024-11-08T19:00:00	4	Temperatura máxima	19.3
172299	7	Sololá	716	San Marcos la Laguna 	11	San Marcos la laguna 	1	Enero	2023-01-21T00:00:00	2024-11-08T19:00:00	3	Temperatura mínima	18.7
172300	7	Sololá	716	San Marcos la Laguna 	11	San Marcos la laguna 	1	Enero	2023-01-21T00:00:00	2024-11-08T19:00:00	5	Humedad	87
172301	7	Sololá	716	San Marcos la Laguna 	11	San Marcos la laguna 	1	Enero	2023-01-21T00:00:00	2024-11-08T19:00:00	6	Velocidad del viento	4.8
172302	7	Sololá	716	San Marcos la Laguna 	11	San Marcos la laguna 	1	Enero	2023-01-21T00:00:00	2024-11-08T19:00:00	7	Dirección del viento	4.83
172303	7	Sololá	716	San Marcos la Laguna 	11	San Marcos la laguna 	1	Enero	2023-01-21T00:00:00	2024-11-08T19:00:00	1	Precipitación	0
172304	7	Sololá	716	San Marcos la Laguna 	11	San Marcos la laguna 	1	Enero	2023-01-21T00:00:00	2024-11-08T19:00:00	8	Radiación solar	0
172305	7	Sololá	716	San Marcos la Laguna 	11	San Marcos la laguna 	1	Enero	2023-01-21T00:00:00	2024-11-08T20:00:00	2	Temperatura media	18.2
172306	7	Sololá	716	San Marcos la Laguna 	11	San Marcos la laguna 	1	Enero	2023-01-21T00:00:00	2024-11-08T20:00:00	4	Temperatura máxima	18.7
172307	7	Sololá	716	San Marcos la Laguna 	11	San Marcos la laguna 	1	Enero	2023-01-21T00:00:00	2024-11-08T20:00:00	3	Temperatura mínima	18.1
172308	7	Sololá	716	San Marcos la Laguna 	11	San Marcos la laguna 	1	Enero	2023-01-21T00:00:00	2024-11-08T20:00:00	5	Humedad	86
172309	7	Sololá	716	San Marcos la Laguna 	11	San Marcos la laguna 	1	Enero	2023-01-21T00:00:00	2024-11-08T20:00:00	6	Velocidad del viento	3.2
172310	7	Sololá	716	San Marcos la Laguna 	11	San Marcos la laguna 	1	Enero	2023-01-21T00:00:00	2024-11-08T20:00:00	7	Dirección del viento	3.22
172311	7	Sololá	716	San Marcos la Laguna 	11	San Marcos la laguna 	1	Enero	2023-01-21T00:00:00	2024-11-08T20:00:00	1	Precipitación	0
172312	7	Sololá	716	San Marcos la Laguna 	11	San Marcos la laguna 	1	Enero	2023-01-21T00:00:00	2024-11-08T20:00:00	8	Radiación solar	0
172313	7	Sololá	716	San Marcos la Laguna 	11	San Marcos la laguna 	1	Enero	2023-01-21T00:00:00	2024-11-08T21:00:00	2	Temperatura media	17.9
172314	7	Sololá	716	San Marcos la Laguna 	11	San Marcos la laguna 	1	Enero	2023-01-21T00:00:00	2024-11-08T21:00:00	4	Temperatura máxima	18.2
172315	7	Sololá	716	San Marcos la Laguna 	11	San Marcos la laguna 	1	Enero	2023-01-21T00:00:00	2024-11-08T21:00:00	3	Temperatura mínima	17.8
172316	7	Sololá	716	San Marcos la Laguna 	11	San Marcos la laguna 	1	Enero	2023-01-21T00:00:00	2024-11-08T21:00:00	5	Humedad	85
172317	7	Sololá	716	San Marcos la Laguna 	11	San Marcos la laguna 	1	Enero	2023-01-21T00:00:00	2024-11-08T21:00:00	6	Velocidad del viento	3.2
172318	7	Sololá	716	San Marcos la Laguna 	11	San Marcos la laguna 	1	Enero	2023-01-21T00:00:00	2024-11-08T21:00:00	7	Dirección del viento	3.22
172319	7	Sololá	716	San Marcos la Laguna 	11	San Marcos la laguna 	1	Enero	2023-01-21T00:00:00	2024-11-08T21:00:00	1	Precipitación	0
172320	7	Sololá	716	San Marcos la Laguna 	11	San Marcos la laguna 	1	Enero	2023-01-21T00:00:00	2024-11-08T21:00:00	8	Radiación solar	0
172321	7	Sololá	716	San Marcos la Laguna 	11	San Marcos la laguna 	1	Enero	2023-01-21T00:00:00	2024-11-08T22:00:00	2	Temperatura media	16.1
172322	7	Sololá	716	San Marcos la Laguna 	11	San Marcos la laguna 	1	Enero	2023-01-21T00:00:00	2024-11-08T22:00:00	4	Temperatura máxima	17.9
172323	7	Sololá	716	San Marcos la Laguna 	11	San Marcos la laguna 	1	Enero	2023-01-21T00:00:00	2024-11-08T22:00:00	3	Temperatura mínima	16.1
172324	7	Sololá	716	San Marcos la Laguna 	11	San Marcos la laguna 	1	Enero	2023-01-21T00:00:00	2024-11-08T22:00:00	5	Humedad	86
172325	7	Sololá	716	San Marcos la Laguna 	11	San Marcos la laguna 	1	Enero	2023-01-21T00:00:00	2024-11-08T22:00:00	6	Velocidad del viento	6.4
172326	7	Sololá	716	San Marcos la Laguna 	11	San Marcos la laguna 	1	Enero	2023-01-21T00:00:00	2024-11-08T22:00:00	7	Dirección del viento	6.44
172327	7	Sololá	716	San Marcos la Laguna 	11	San Marcos la laguna 	1	Enero	2023-01-21T00:00:00	2024-11-08T22:00:00	1	Precipitación	0
172328	7	Sololá	716	San Marcos la Laguna 	11	San Marcos la laguna 	1	Enero	2023-01-21T00:00:00	2024-11-08T22:00:00	8	Radiación solar	0
172329	7	Sololá	716	San Marcos la Laguna 	11	San Marcos la laguna 	1	Enero	2023-01-21T00:00:00	2024-11-08T23:00:00	2	Temperatura media	15.1
172330	7	Sololá	716	San Marcos la Laguna 	11	San Marcos la laguna 	1	Enero	2023-01-21T00:00:00	2024-11-08T23:00:00	4	Temperatura máxima	16.1
172331	7	Sololá	716	San Marcos la Laguna 	11	San Marcos la laguna 	1	Enero	2023-01-21T00:00:00	2024-11-08T23:00:00	3	Temperatura mínima	15.1
172332	7	Sololá	716	San Marcos la Laguna 	11	San Marcos la laguna 	1	Enero	2023-01-21T00:00:00	2024-11-08T23:00:00	5	Humedad	84
172333	7	Sololá	716	San Marcos la Laguna 	11	San Marcos la laguna 	1	Enero	2023-01-21T00:00:00	2024-11-08T23:00:00	6	Velocidad del viento	6.4
172334	7	Sololá	716	San Marcos la Laguna 	11	San Marcos la laguna 	1	Enero	2023-01-21T00:00:00	2024-11-08T23:00:00	7	Dirección del viento	6.44
172335	7	Sololá	716	San Marcos la Laguna 	11	San Marcos la laguna 	1	Enero	2023-01-21T00:00:00	2024-11-08T23:00:00	1	Precipitación	0
172336	7	Sololá	716	San Marcos la Laguna 	11	San Marcos la laguna 	1	Enero	2023-01-21T00:00:00	2024-11-08T23:00:00	8	Radiación solar	0
172337	7	Sololá	716	San Marcos la Laguna 	11	San Marcos la laguna 	1	Enero	2023-01-22T00:00:00	2024-11-08T00:00:00	2	Temperatura media	14.8
172338	7	Sololá	716	San Marcos la Laguna 	11	San Marcos la laguna 	1	Enero	2023-01-22T00:00:00	2024-11-08T00:00:00	4	Temperatura máxima	15.2
172339	7	Sololá	716	San Marcos la Laguna 	11	San Marcos la laguna 	1	Enero	2023-01-22T00:00:00	2024-11-08T00:00:00	3	Temperatura mínima	14.8
172340	7	Sololá	716	San Marcos la Laguna 	11	San Marcos la laguna 	1	Enero	2023-01-22T00:00:00	2024-11-08T00:00:00	5	Humedad	81
172341	7	Sololá	716	San Marcos la Laguna 	11	San Marcos la laguna 	1	Enero	2023-01-22T00:00:00	2024-11-08T00:00:00	6	Velocidad del viento	6.4
172342	7	Sololá	716	San Marcos la Laguna 	11	San Marcos la laguna 	1	Enero	2023-01-22T00:00:00	2024-11-08T00:00:00	7	Dirección del viento	6.44
172343	7	Sololá	716	San Marcos la Laguna 	11	San Marcos la laguna 	1	Enero	2023-01-22T00:00:00	2024-11-08T00:00:00	1	Precipitación	0
172344	7	Sololá	716	San Marcos la Laguna 	11	San Marcos la laguna 	1	Enero	2023-01-22T00:00:00	2024-11-08T00:00:00	8	Radiación solar	0
172345	7	Sololá	716	San Marcos la Laguna 	11	San Marcos la laguna 	1	Enero	2023-01-22T00:00:00	2024-11-08T01:00:00	2	Temperatura media	14.1
172346	7	Sololá	716	San Marcos la Laguna 	11	San Marcos la laguna 	1	Enero	2023-01-22T00:00:00	2024-11-08T01:00:00	4	Temperatura máxima	14.8
172347	7	Sololá	716	San Marcos la Laguna 	11	San Marcos la laguna 	1	Enero	2023-01-22T00:00:00	2024-11-08T01:00:00	3	Temperatura mínima	14.1
172348	7	Sololá	716	San Marcos la Laguna 	11	San Marcos la laguna 	1	Enero	2023-01-22T00:00:00	2024-11-08T01:00:00	5	Humedad	84
172349	7	Sololá	716	San Marcos la Laguna 	11	San Marcos la laguna 	1	Enero	2023-01-22T00:00:00	2024-11-08T01:00:00	6	Velocidad del viento	4.8
172350	7	Sololá	716	San Marcos la Laguna 	11	San Marcos la laguna 	1	Enero	2023-01-22T00:00:00	2024-11-08T01:00:00	7	Dirección del viento	4.83
172351	7	Sololá	716	San Marcos la Laguna 	11	San Marcos la laguna 	1	Enero	2023-01-22T00:00:00	2024-11-08T01:00:00	1	Precipitación	0
172352	7	Sololá	716	San Marcos la Laguna 	11	San Marcos la laguna 	1	Enero	2023-01-22T00:00:00	2024-11-08T01:00:00	8	Radiación solar	0
172353	7	Sololá	716	San Marcos la Laguna 	11	San Marcos la laguna 	1	Enero	2023-01-22T00:00:00	2024-11-08T02:00:00	2	Temperatura media	14
172354	7	Sololá	716	San Marcos la Laguna 	11	San Marcos la laguna 	1	Enero	2023-01-22T00:00:00	2024-11-08T02:00:00	4	Temperatura máxima	14.2
172355	7	Sololá	716	San Marcos la Laguna 	11	San Marcos la laguna 	1	Enero	2023-01-22T00:00:00	2024-11-08T02:00:00	3	Temperatura mínima	13.8
172356	7	Sololá	716	San Marcos la Laguna 	11	San Marcos la laguna 	1	Enero	2023-01-22T00:00:00	2024-11-08T02:00:00	5	Humedad	86
172357	7	Sololá	716	San Marcos la Laguna 	11	San Marcos la laguna 	1	Enero	2023-01-22T00:00:00	2024-11-08T02:00:00	6	Velocidad del viento	6.4
172358	7	Sololá	716	San Marcos la Laguna 	11	San Marcos la laguna 	1	Enero	2023-01-22T00:00:00	2024-11-08T02:00:00	7	Dirección del viento	6.44
172359	7	Sololá	716	San Marcos la Laguna 	11	San Marcos la laguna 	1	Enero	2023-01-22T00:00:00	2024-11-08T02:00:00	1	Precipitación	0
172360	7	Sololá	716	San Marcos la Laguna 	11	San Marcos la laguna 	1	Enero	2023-01-22T00:00:00	2024-11-08T02:00:00	8	Radiación solar	0
172361	7	Sololá	716	San Marcos la Laguna 	11	San Marcos la laguna 	1	Enero	2023-01-22T00:00:00	2024-11-08T03:00:00	2	Temperatura media	13.8
172362	7	Sololá	716	San Marcos la Laguna 	11	San Marcos la laguna 	1	Enero	2023-01-22T00:00:00	2024-11-08T03:00:00	4	Temperatura máxima	14.4
172363	7	Sololá	716	San Marcos la Laguna 	11	San Marcos la laguna 	1	Enero	2023-01-22T00:00:00	2024-11-08T03:00:00	3	Temperatura mínima	13.7
172364	7	Sololá	716	San Marcos la Laguna 	11	San Marcos la laguna 	1	Enero	2023-01-22T00:00:00	2024-11-08T03:00:00	5	Humedad	85
172365	7	Sololá	716	San Marcos la Laguna 	11	San Marcos la laguna 	1	Enero	2023-01-22T00:00:00	2024-11-08T03:00:00	6	Velocidad del viento	6.4
172366	7	Sololá	716	San Marcos la Laguna 	11	San Marcos la laguna 	1	Enero	2023-01-22T00:00:00	2024-11-08T03:00:00	7	Dirección del viento	6.44
172367	7	Sololá	716	San Marcos la Laguna 	11	San Marcos la laguna 	1	Enero	2023-01-22T00:00:00	2024-11-08T03:00:00	1	Precipitación	0
172368	7	Sololá	716	San Marcos la Laguna 	11	San Marcos la laguna 	1	Enero	2023-01-22T00:00:00	2024-11-08T03:00:00	8	Radiación solar	0
172369	7	Sololá	716	San Marcos la Laguna 	11	San Marcos la laguna 	1	Enero	2023-01-22T00:00:00	2024-11-08T04:00:00	2	Temperatura media	13.4
172370	7	Sololá	716	San Marcos la Laguna 	11	San Marcos la laguna 	1	Enero	2023-01-22T00:00:00	2024-11-08T04:00:00	4	Temperatura máxima	13.8
172371	7	Sololá	716	San Marcos la Laguna 	11	San Marcos la laguna 	1	Enero	2023-01-22T00:00:00	2024-11-08T04:00:00	3	Temperatura mínima	13
172372	7	Sololá	716	San Marcos la Laguna 	11	San Marcos la laguna 	1	Enero	2023-01-22T00:00:00	2024-11-08T04:00:00	5	Humedad	85
172373	7	Sololá	716	San Marcos la Laguna 	11	San Marcos la laguna 	1	Enero	2023-01-22T00:00:00	2024-11-08T04:00:00	6	Velocidad del viento	6.4
172374	7	Sololá	716	San Marcos la Laguna 	11	San Marcos la laguna 	1	Enero	2023-01-22T00:00:00	2024-11-08T04:00:00	7	Dirección del viento	6.44
172375	7	Sololá	716	San Marcos la Laguna 	11	San Marcos la laguna 	1	Enero	2023-01-22T00:00:00	2024-11-08T04:00:00	1	Precipitación	0
172376	7	Sololá	716	San Marcos la Laguna 	11	San Marcos la laguna 	1	Enero	2023-01-22T00:00:00	2024-11-08T04:00:00	8	Radiación solar	0
172377	7	Sololá	716	San Marcos la Laguna 	11	San Marcos la laguna 	1	Enero	2023-01-22T00:00:00	2024-11-08T05:00:00	2	Temperatura media	12.6
172378	7	Sololá	716	San Marcos la Laguna 	11	San Marcos la laguna 	1	Enero	2023-01-22T00:00:00	2024-11-08T05:00:00	4	Temperatura máxima	13.4
172379	7	Sololá	716	San Marcos la Laguna 	11	San Marcos la laguna 	1	Enero	2023-01-22T00:00:00	2024-11-08T05:00:00	3	Temperatura mínima	12.6
172380	7	Sololá	716	San Marcos la Laguna 	11	San Marcos la laguna 	1	Enero	2023-01-22T00:00:00	2024-11-08T05:00:00	5	Humedad	88
172381	7	Sololá	716	San Marcos la Laguna 	11	San Marcos la laguna 	1	Enero	2023-01-22T00:00:00	2024-11-08T05:00:00	6	Velocidad del viento	6.4
172382	7	Sololá	716	San Marcos la Laguna 	11	San Marcos la laguna 	1	Enero	2023-01-22T00:00:00	2024-11-08T05:00:00	7	Dirección del viento	6.44
172383	7	Sololá	716	San Marcos la Laguna 	11	San Marcos la laguna 	1	Enero	2023-01-22T00:00:00	2024-11-08T05:00:00	1	Precipitación	0
172384	7	Sololá	716	San Marcos la Laguna 	11	San Marcos la laguna 	1	Enero	2023-01-22T00:00:00	2024-11-08T05:00:00	8	Radiación solar	0
172385	7	Sololá	716	San Marcos la Laguna 	11	San Marcos la laguna 	1	Enero	2023-01-22T00:00:00	2024-11-08T06:00:00	2	Temperatura media	13.2
172386	7	Sololá	716	San Marcos la Laguna 	11	San Marcos la laguna 	1	Enero	2023-01-22T00:00:00	2024-11-08T06:00:00	4	Temperatura máxima	13.2
172387	7	Sololá	716	San Marcos la Laguna 	11	San Marcos la laguna 	1	Enero	2023-01-22T00:00:00	2024-11-08T06:00:00	3	Temperatura mínima	12.5
172388	7	Sololá	716	San Marcos la Laguna 	11	San Marcos la laguna 	1	Enero	2023-01-22T00:00:00	2024-11-08T06:00:00	5	Humedad	85
172389	7	Sololá	716	San Marcos la Laguna 	11	San Marcos la laguna 	1	Enero	2023-01-22T00:00:00	2024-11-08T06:00:00	6	Velocidad del viento	6.4
172390	7	Sololá	716	San Marcos la Laguna 	11	San Marcos la laguna 	1	Enero	2023-01-22T00:00:00	2024-11-08T06:00:00	7	Dirección del viento	6.44
172391	7	Sololá	716	San Marcos la Laguna 	11	San Marcos la laguna 	1	Enero	2023-01-22T00:00:00	2024-11-08T06:00:00	1	Precipitación	0
172392	7	Sololá	716	San Marcos la Laguna 	11	San Marcos la laguna 	1	Enero	2023-01-22T00:00:00	2024-11-08T06:00:00	8	Radiación solar	0
172393	7	Sololá	716	San Marcos la Laguna 	11	San Marcos la laguna 	1	Enero	2023-01-22T00:00:00	2024-11-08T07:00:00	2	Temperatura media	13.9
172394	7	Sololá	716	San Marcos la Laguna 	11	San Marcos la laguna 	1	Enero	2023-01-22T00:00:00	2024-11-08T07:00:00	4	Temperatura máxima	14
172395	7	Sololá	716	San Marcos la Laguna 	11	San Marcos la laguna 	1	Enero	2023-01-22T00:00:00	2024-11-08T07:00:00	3	Temperatura mínima	13.2
172396	7	Sololá	716	San Marcos la Laguna 	11	San Marcos la laguna 	1	Enero	2023-01-22T00:00:00	2024-11-08T07:00:00	5	Humedad	77
172397	7	Sololá	716	San Marcos la Laguna 	11	San Marcos la laguna 	1	Enero	2023-01-22T00:00:00	2024-11-08T07:00:00	6	Velocidad del viento	6.4
172398	7	Sololá	716	San Marcos la Laguna 	11	San Marcos la laguna 	1	Enero	2023-01-22T00:00:00	2024-11-08T07:00:00	7	Dirección del viento	6.44
172399	7	Sololá	716	San Marcos la Laguna 	11	San Marcos la laguna 	1	Enero	2023-01-22T00:00:00	2024-11-08T07:00:00	1	Precipitación	0
172400	7	Sololá	716	San Marcos la Laguna 	11	San Marcos la laguna 	1	Enero	2023-01-22T00:00:00	2024-11-08T07:00:00	8	Radiación solar	5
172401	7	Sololá	716	San Marcos la Laguna 	11	San Marcos la laguna 	1	Enero	2023-01-22T00:00:00	2024-11-08T08:00:00	2	Temperatura media	16.3
172402	7	Sololá	716	San Marcos la Laguna 	11	San Marcos la laguna 	1	Enero	2023-01-22T00:00:00	2024-11-08T08:00:00	4	Temperatura máxima	16.3
172403	7	Sololá	716	San Marcos la Laguna 	11	San Marcos la laguna 	1	Enero	2023-01-22T00:00:00	2024-11-08T08:00:00	3	Temperatura mínima	13.9
172404	7	Sololá	716	San Marcos la Laguna 	11	San Marcos la laguna 	1	Enero	2023-01-22T00:00:00	2024-11-08T08:00:00	5	Humedad	79
172405	7	Sololá	716	San Marcos la Laguna 	11	San Marcos la laguna 	1	Enero	2023-01-22T00:00:00	2024-11-08T08:00:00	6	Velocidad del viento	4.8
172406	7	Sololá	716	San Marcos la Laguna 	11	San Marcos la laguna 	1	Enero	2023-01-22T00:00:00	2024-11-08T08:00:00	7	Dirección del viento	4.83
172407	7	Sololá	716	San Marcos la Laguna 	11	San Marcos la laguna 	1	Enero	2023-01-22T00:00:00	2024-11-08T08:00:00	1	Precipitación	0
172408	7	Sololá	716	San Marcos la Laguna 	11	San Marcos la laguna 	1	Enero	2023-01-22T00:00:00	2024-11-08T08:00:00	8	Radiación solar	118
172409	7	Sololá	716	San Marcos la Laguna 	11	San Marcos la laguna 	1	Enero	2023-01-22T00:00:00	2024-11-08T09:00:00	2	Temperatura media	17.4
172410	7	Sololá	716	San Marcos la Laguna 	11	San Marcos la laguna 	1	Enero	2023-01-22T00:00:00	2024-11-08T09:00:00	4	Temperatura máxima	17.5
172411	7	Sololá	716	San Marcos la Laguna 	11	San Marcos la laguna 	1	Enero	2023-01-22T00:00:00	2024-11-08T09:00:00	3	Temperatura mínima	16.4
172412	7	Sololá	716	San Marcos la Laguna 	11	San Marcos la laguna 	1	Enero	2023-01-22T00:00:00	2024-11-08T09:00:00	5	Humedad	78
172413	7	Sololá	716	San Marcos la Laguna 	11	San Marcos la laguna 	1	Enero	2023-01-22T00:00:00	2024-11-08T09:00:00	6	Velocidad del viento	4.8
172414	7	Sololá	716	San Marcos la Laguna 	11	San Marcos la laguna 	1	Enero	2023-01-22T00:00:00	2024-11-08T09:00:00	7	Dirección del viento	4.83
172415	7	Sololá	716	San Marcos la Laguna 	11	San Marcos la laguna 	1	Enero	2023-01-22T00:00:00	2024-11-08T09:00:00	1	Precipitación	0
172416	7	Sololá	716	San Marcos la Laguna 	11	San Marcos la laguna 	1	Enero	2023-01-22T00:00:00	2024-11-08T09:00:00	8	Radiación solar	334
172417	7	Sololá	716	San Marcos la Laguna 	11	San Marcos la laguna 	1	Enero	2023-01-22T00:00:00	2024-11-08T10:00:00	2	Temperatura media	18.7
172418	7	Sololá	716	San Marcos la Laguna 	11	San Marcos la laguna 	1	Enero	2023-01-22T00:00:00	2024-11-08T10:00:00	4	Temperatura máxima	18.7
172419	7	Sololá	716	San Marcos la Laguna 	11	San Marcos la laguna 	1	Enero	2023-01-22T00:00:00	2024-11-08T10:00:00	3	Temperatura mínima	17.4
172420	7	Sololá	716	San Marcos la Laguna 	11	San Marcos la laguna 	1	Enero	2023-01-22T00:00:00	2024-11-08T10:00:00	5	Humedad	72
172421	7	Sololá	716	San Marcos la Laguna 	11	San Marcos la laguna 	1	Enero	2023-01-22T00:00:00	2024-11-08T10:00:00	6	Velocidad del viento	4.8
172422	7	Sololá	716	San Marcos la Laguna 	11	San Marcos la laguna 	1	Enero	2023-01-22T00:00:00	2024-11-08T10:00:00	7	Dirección del viento	4.83
172423	7	Sololá	716	San Marcos la Laguna 	11	San Marcos la laguna 	1	Enero	2023-01-22T00:00:00	2024-11-08T10:00:00	1	Precipitación	0
172424	7	Sololá	716	San Marcos la Laguna 	11	San Marcos la laguna 	1	Enero	2023-01-22T00:00:00	2024-11-08T10:00:00	8	Radiación solar	527
172425	7	Sololá	716	San Marcos la Laguna 	11	San Marcos la laguna 	1	Enero	2023-01-22T00:00:00	2024-11-08T11:00:00	2	Temperatura media	19.3
172426	7	Sololá	716	San Marcos la Laguna 	11	San Marcos la laguna 	1	Enero	2023-01-22T00:00:00	2024-11-08T11:00:00	4	Temperatura máxima	19.3
172427	7	Sololá	716	San Marcos la Laguna 	11	San Marcos la laguna 	1	Enero	2023-01-22T00:00:00	2024-11-08T11:00:00	3	Temperatura mínima	18.6
172428	7	Sololá	716	San Marcos la Laguna 	11	San Marcos la laguna 	1	Enero	2023-01-22T00:00:00	2024-11-08T11:00:00	5	Humedad	70
172429	7	Sololá	716	San Marcos la Laguna 	11	San Marcos la laguna 	1	Enero	2023-01-22T00:00:00	2024-11-08T11:00:00	6	Velocidad del viento	6.4
172430	7	Sololá	716	San Marcos la Laguna 	11	San Marcos la laguna 	1	Enero	2023-01-22T00:00:00	2024-11-08T11:00:00	7	Dirección del viento	6.44
172431	7	Sololá	716	San Marcos la Laguna 	11	San Marcos la laguna 	1	Enero	2023-01-22T00:00:00	2024-11-08T11:00:00	1	Precipitación	0
172432	7	Sololá	716	San Marcos la Laguna 	11	San Marcos la laguna 	1	Enero	2023-01-22T00:00:00	2024-11-08T11:00:00	8	Radiación solar	587
172433	7	Sololá	716	San Marcos la Laguna 	11	San Marcos la laguna 	1	Enero	2023-01-22T00:00:00	2024-11-08T12:00:00	2	Temperatura media	20.6
172434	7	Sololá	716	San Marcos la Laguna 	11	San Marcos la laguna 	1	Enero	2023-01-22T00:00:00	2024-11-08T12:00:00	4	Temperatura máxima	20.6
172435	7	Sololá	716	San Marcos la Laguna 	11	San Marcos la laguna 	1	Enero	2023-01-22T00:00:00	2024-11-08T12:00:00	3	Temperatura mínima	19.2
172436	7	Sololá	716	San Marcos la Laguna 	11	San Marcos la laguna 	1	Enero	2023-01-22T00:00:00	2024-11-08T12:00:00	5	Humedad	57
172437	7	Sololá	716	San Marcos la Laguna 	11	San Marcos la laguna 	1	Enero	2023-01-22T00:00:00	2024-11-08T12:00:00	6	Velocidad del viento	6.4
172438	7	Sololá	716	San Marcos la Laguna 	11	San Marcos la laguna 	1	Enero	2023-01-22T00:00:00	2024-11-08T12:00:00	7	Dirección del viento	6.44
172439	7	Sololá	716	San Marcos la Laguna 	11	San Marcos la laguna 	1	Enero	2023-01-22T00:00:00	2024-11-08T12:00:00	1	Precipitación	0
172440	7	Sololá	716	San Marcos la Laguna 	11	San Marcos la laguna 	1	Enero	2023-01-22T00:00:00	2024-11-08T12:00:00	8	Radiación solar	733
172441	7	Sololá	716	San Marcos la Laguna 	11	San Marcos la laguna 	1	Enero	2023-01-22T00:00:00	2024-11-08T13:00:00	2	Temperatura media	21.3
172442	7	Sololá	716	San Marcos la Laguna 	11	San Marcos la laguna 	1	Enero	2023-01-22T00:00:00	2024-11-08T13:00:00	4	Temperatura máxima	21.4
172443	7	Sololá	716	San Marcos la Laguna 	11	San Marcos la laguna 	1	Enero	2023-01-22T00:00:00	2024-11-08T13:00:00	3	Temperatura mínima	20.6
172444	7	Sololá	716	San Marcos la Laguna 	11	San Marcos la laguna 	1	Enero	2023-01-22T00:00:00	2024-11-08T13:00:00	5	Humedad	61
172445	7	Sololá	716	San Marcos la Laguna 	11	San Marcos la laguna 	1	Enero	2023-01-22T00:00:00	2024-11-08T13:00:00	6	Velocidad del viento	8
172446	7	Sololá	716	San Marcos la Laguna 	11	San Marcos la laguna 	1	Enero	2023-01-22T00:00:00	2024-11-08T13:00:00	7	Dirección del viento	8.05
172447	7	Sololá	716	San Marcos la Laguna 	11	San Marcos la laguna 	1	Enero	2023-01-22T00:00:00	2024-11-08T13:00:00	1	Precipitación	0
172448	7	Sololá	716	San Marcos la Laguna 	11	San Marcos la laguna 	1	Enero	2023-01-22T00:00:00	2024-11-08T13:00:00	8	Radiación solar	793
172449	7	Sololá	716	San Marcos la Laguna 	11	San Marcos la laguna 	1	Enero	2023-01-22T00:00:00	2024-11-08T14:00:00	2	Temperatura media	21.2
172450	7	Sololá	716	San Marcos la Laguna 	11	San Marcos la laguna 	1	Enero	2023-01-22T00:00:00	2024-11-08T14:00:00	4	Temperatura máxima	21.9
172451	7	Sololá	716	San Marcos la Laguna 	11	San Marcos la laguna 	1	Enero	2023-01-22T00:00:00	2024-11-08T14:00:00	3	Temperatura mínima	21.1
172452	7	Sololá	716	San Marcos la Laguna 	11	San Marcos la laguna 	1	Enero	2023-01-22T00:00:00	2024-11-08T14:00:00	5	Humedad	69
172453	7	Sololá	716	San Marcos la Laguna 	11	San Marcos la laguna 	1	Enero	2023-01-22T00:00:00	2024-11-08T14:00:00	6	Velocidad del viento	11.3
172454	7	Sololá	716	San Marcos la Laguna 	11	San Marcos la laguna 	1	Enero	2023-01-22T00:00:00	2024-11-08T14:00:00	7	Dirección del viento	11.27
172455	7	Sololá	716	San Marcos la Laguna 	11	San Marcos la laguna 	1	Enero	2023-01-22T00:00:00	2024-11-08T14:00:00	1	Precipitación	0
172456	7	Sololá	716	San Marcos la Laguna 	11	San Marcos la laguna 	1	Enero	2023-01-22T00:00:00	2024-11-08T14:00:00	8	Radiación solar	744
172457	7	Sololá	716	San Marcos la Laguna 	11	San Marcos la laguna 	1	Enero	2023-01-22T00:00:00	2024-11-08T15:00:00	2	Temperatura media	20.7
172458	7	Sololá	716	San Marcos la Laguna 	11	San Marcos la laguna 	1	Enero	2023-01-22T00:00:00	2024-11-08T15:00:00	4	Temperatura máxima	21.7
172459	7	Sololá	716	San Marcos la Laguna 	11	San Marcos la laguna 	1	Enero	2023-01-22T00:00:00	2024-11-08T15:00:00	3	Temperatura mínima	20.7
172460	7	Sololá	716	San Marcos la Laguna 	11	San Marcos la laguna 	1	Enero	2023-01-22T00:00:00	2024-11-08T15:00:00	5	Humedad	68
172461	7	Sololá	716	San Marcos la Laguna 	11	San Marcos la laguna 	1	Enero	2023-01-22T00:00:00	2024-11-08T15:00:00	6	Velocidad del viento	11.3
172462	7	Sololá	716	San Marcos la Laguna 	11	San Marcos la laguna 	1	Enero	2023-01-22T00:00:00	2024-11-08T15:00:00	7	Dirección del viento	11.27
172463	7	Sololá	716	San Marcos la Laguna 	11	San Marcos la laguna 	1	Enero	2023-01-22T00:00:00	2024-11-08T15:00:00	1	Precipitación	0
172464	7	Sololá	716	San Marcos la Laguna 	11	San Marcos la laguna 	1	Enero	2023-01-22T00:00:00	2024-11-08T15:00:00	8	Radiación solar	627
172465	7	Sololá	716	San Marcos la Laguna 	11	San Marcos la laguna 	1	Enero	2023-01-22T00:00:00	2024-11-08T16:00:00	2	Temperatura media	20.2
172466	7	Sololá	716	San Marcos la Laguna 	11	San Marcos la laguna 	1	Enero	2023-01-22T00:00:00	2024-11-08T16:00:00	4	Temperatura máxima	20.8
172467	7	Sololá	716	San Marcos la Laguna 	11	San Marcos la laguna 	1	Enero	2023-01-22T00:00:00	2024-11-08T16:00:00	3	Temperatura mínima	20.1
172468	7	Sololá	716	San Marcos la Laguna 	11	San Marcos la laguna 	1	Enero	2023-01-22T00:00:00	2024-11-08T16:00:00	5	Humedad	71
172469	7	Sololá	716	San Marcos la Laguna 	11	San Marcos la laguna 	1	Enero	2023-01-22T00:00:00	2024-11-08T16:00:00	6	Velocidad del viento	11.3
172470	7	Sololá	716	San Marcos la Laguna 	11	San Marcos la laguna 	1	Enero	2023-01-22T00:00:00	2024-11-08T16:00:00	7	Dirección del viento	11.27
172471	7	Sololá	716	San Marcos la Laguna 	11	San Marcos la laguna 	1	Enero	2023-01-22T00:00:00	2024-11-08T16:00:00	1	Precipitación	0
172472	7	Sololá	716	San Marcos la Laguna 	11	San Marcos la laguna 	1	Enero	2023-01-22T00:00:00	2024-11-08T16:00:00	8	Radiación solar	177
172473	7	Sololá	716	San Marcos la Laguna 	11	San Marcos la laguna 	1	Enero	2023-01-22T00:00:00	2024-11-08T17:00:00	2	Temperatura media	19.9
172474	7	Sololá	716	San Marcos la Laguna 	11	San Marcos la laguna 	1	Enero	2023-01-22T00:00:00	2024-11-08T17:00:00	4	Temperatura máxima	20.6
172475	7	Sololá	716	San Marcos la Laguna 	11	San Marcos la laguna 	1	Enero	2023-01-22T00:00:00	2024-11-08T17:00:00	3	Temperatura mínima	19.8
172476	7	Sololá	716	San Marcos la Laguna 	11	San Marcos la laguna 	1	Enero	2023-01-22T00:00:00	2024-11-08T17:00:00	5	Humedad	74
172477	7	Sololá	716	San Marcos la Laguna 	11	San Marcos la laguna 	1	Enero	2023-01-22T00:00:00	2024-11-08T17:00:00	6	Velocidad del viento	6.4
172478	7	Sololá	716	San Marcos la Laguna 	11	San Marcos la laguna 	1	Enero	2023-01-22T00:00:00	2024-11-08T17:00:00	7	Dirección del viento	6.44
172479	7	Sololá	716	San Marcos la Laguna 	11	San Marcos la laguna 	1	Enero	2023-01-22T00:00:00	2024-11-08T17:00:00	1	Precipitación	0
172480	7	Sololá	716	San Marcos la Laguna 	11	San Marcos la laguna 	1	Enero	2023-01-22T00:00:00	2024-11-08T17:00:00	8	Radiación solar	122
172481	7	Sololá	716	San Marcos la Laguna 	11	San Marcos la laguna 	1	Enero	2023-01-22T00:00:00	2024-11-08T18:00:00	2	Temperatura media	19.2
172482	7	Sololá	716	San Marcos la Laguna 	11	San Marcos la laguna 	1	Enero	2023-01-22T00:00:00	2024-11-08T18:00:00	4	Temperatura máxima	19.9
172483	7	Sololá	716	San Marcos la Laguna 	11	San Marcos la laguna 	1	Enero	2023-01-22T00:00:00	2024-11-08T18:00:00	3	Temperatura mínima	19.2
172484	7	Sololá	716	San Marcos la Laguna 	11	San Marcos la laguna 	1	Enero	2023-01-22T00:00:00	2024-11-08T18:00:00	5	Humedad	79
172485	7	Sololá	716	San Marcos la Laguna 	11	San Marcos la laguna 	1	Enero	2023-01-22T00:00:00	2024-11-08T18:00:00	6	Velocidad del viento	3.2
172486	7	Sololá	716	San Marcos la Laguna 	11	San Marcos la laguna 	1	Enero	2023-01-22T00:00:00	2024-11-08T18:00:00	7	Dirección del viento	3.22
172487	7	Sololá	716	San Marcos la Laguna 	11	San Marcos la laguna 	1	Enero	2023-01-22T00:00:00	2024-11-08T18:00:00	1	Precipitación	0
172488	7	Sololá	716	San Marcos la Laguna 	11	San Marcos la laguna 	1	Enero	2023-01-22T00:00:00	2024-11-08T18:00:00	8	Radiación solar	29
172489	7	Sololá	716	San Marcos la Laguna 	11	San Marcos la laguna 	1	Enero	2023-01-22T00:00:00	2024-11-08T19:00:00	2	Temperatura media	18.5
172490	7	Sololá	716	San Marcos la Laguna 	11	San Marcos la laguna 	1	Enero	2023-01-22T00:00:00	2024-11-08T19:00:00	4	Temperatura máxima	19.2
172491	7	Sololá	716	San Marcos la Laguna 	11	San Marcos la laguna 	1	Enero	2023-01-22T00:00:00	2024-11-08T19:00:00	3	Temperatura mínima	18.4
172492	7	Sololá	716	San Marcos la Laguna 	11	San Marcos la laguna 	1	Enero	2023-01-22T00:00:00	2024-11-08T19:00:00	5	Humedad	82
172493	7	Sololá	716	San Marcos la Laguna 	11	San Marcos la laguna 	1	Enero	2023-01-22T00:00:00	2024-11-08T19:00:00	6	Velocidad del viento	3.2
172494	7	Sololá	716	San Marcos la Laguna 	11	San Marcos la laguna 	1	Enero	2023-01-22T00:00:00	2024-11-08T19:00:00	7	Dirección del viento	3.22
172495	7	Sololá	716	San Marcos la Laguna 	11	San Marcos la laguna 	1	Enero	2023-01-22T00:00:00	2024-11-08T19:00:00	1	Precipitación	0
172496	7	Sololá	716	San Marcos la Laguna 	11	San Marcos la laguna 	1	Enero	2023-01-22T00:00:00	2024-11-08T19:00:00	8	Radiación solar	0
172497	7	Sololá	716	San Marcos la Laguna 	11	San Marcos la laguna 	1	Enero	2023-01-22T00:00:00	2024-11-08T20:00:00	2	Temperatura media	17.6
172498	7	Sololá	716	San Marcos la Laguna 	11	San Marcos la laguna 	1	Enero	2023-01-22T00:00:00	2024-11-08T20:00:00	4	Temperatura máxima	18.5
172499	7	Sololá	716	San Marcos la Laguna 	11	San Marcos la laguna 	1	Enero	2023-01-22T00:00:00	2024-11-08T20:00:00	3	Temperatura mínima	17.4
172500	7	Sololá	716	San Marcos la Laguna 	11	San Marcos la laguna 	1	Enero	2023-01-22T00:00:00	2024-11-08T20:00:00	5	Humedad	80
172501	7	Sololá	716	San Marcos la Laguna 	11	San Marcos la laguna 	1	Enero	2023-01-22T00:00:00	2024-11-08T20:00:00	6	Velocidad del viento	3.2
172502	7	Sololá	716	San Marcos la Laguna 	11	San Marcos la laguna 	1	Enero	2023-01-22T00:00:00	2024-11-08T20:00:00	7	Dirección del viento	3.22
172503	7	Sololá	716	San Marcos la Laguna 	11	San Marcos la laguna 	1	Enero	2023-01-22T00:00:00	2024-11-08T20:00:00	1	Precipitación	0
172504	7	Sololá	716	San Marcos la Laguna 	11	San Marcos la laguna 	1	Enero	2023-01-22T00:00:00	2024-11-08T20:00:00	8	Radiación solar	0
172505	7	Sololá	716	San Marcos la Laguna 	11	San Marcos la laguna 	1	Enero	2023-01-22T00:00:00	2024-11-08T21:00:00	2	Temperatura media	16.9
172506	7	Sololá	716	San Marcos la Laguna 	11	San Marcos la laguna 	1	Enero	2023-01-22T00:00:00	2024-11-08T21:00:00	4	Temperatura máxima	17.6
172507	7	Sololá	716	San Marcos la Laguna 	11	San Marcos la laguna 	1	Enero	2023-01-22T00:00:00	2024-11-08T21:00:00	3	Temperatura mínima	16.9
172508	7	Sololá	716	San Marcos la Laguna 	11	San Marcos la laguna 	1	Enero	2023-01-22T00:00:00	2024-11-08T21:00:00	5	Humedad	82
172509	7	Sololá	716	San Marcos la Laguna 	11	San Marcos la laguna 	1	Enero	2023-01-22T00:00:00	2024-11-08T21:00:00	6	Velocidad del viento	6.4
172510	7	Sololá	716	San Marcos la Laguna 	11	San Marcos la laguna 	1	Enero	2023-01-22T00:00:00	2024-11-08T21:00:00	7	Dirección del viento	6.44
172511	7	Sololá	716	San Marcos la Laguna 	11	San Marcos la laguna 	1	Enero	2023-01-22T00:00:00	2024-11-08T21:00:00	1	Precipitación	0
172512	7	Sololá	716	San Marcos la Laguna 	11	San Marcos la laguna 	1	Enero	2023-01-22T00:00:00	2024-11-08T21:00:00	8	Radiación solar	0
172513	7	Sololá	716	San Marcos la Laguna 	11	San Marcos la laguna 	1	Enero	2023-01-22T00:00:00	2024-11-08T22:00:00	2	Temperatura media	15.6
172514	7	Sololá	716	San Marcos la Laguna 	11	San Marcos la laguna 	1	Enero	2023-01-22T00:00:00	2024-11-08T22:00:00	4	Temperatura máxima	16.9
172515	7	Sololá	716	San Marcos la Laguna 	11	San Marcos la laguna 	1	Enero	2023-01-22T00:00:00	2024-11-08T22:00:00	3	Temperatura mínima	15.6
172516	7	Sololá	716	San Marcos la Laguna 	11	San Marcos la laguna 	1	Enero	2023-01-22T00:00:00	2024-11-08T22:00:00	5	Humedad	88
172517	7	Sololá	716	San Marcos la Laguna 	11	San Marcos la laguna 	1	Enero	2023-01-22T00:00:00	2024-11-08T22:00:00	6	Velocidad del viento	4.8
172518	7	Sololá	716	San Marcos la Laguna 	11	San Marcos la laguna 	1	Enero	2023-01-22T00:00:00	2024-11-08T22:00:00	7	Dirección del viento	4.83
172519	7	Sololá	716	San Marcos la Laguna 	11	San Marcos la laguna 	1	Enero	2023-01-22T00:00:00	2024-11-08T22:00:00	1	Precipitación	0
172520	7	Sololá	716	San Marcos la Laguna 	11	San Marcos la laguna 	1	Enero	2023-01-22T00:00:00	2024-11-08T22:00:00	8	Radiación solar	0
172521	7	Sololá	716	San Marcos la Laguna 	11	San Marcos la laguna 	1	Enero	2023-01-22T00:00:00	2024-11-08T23:00:00	2	Temperatura media	15.1
172522	7	Sololá	716	San Marcos la Laguna 	11	San Marcos la laguna 	1	Enero	2023-01-22T00:00:00	2024-11-08T23:00:00	4	Temperatura máxima	15.6
172523	7	Sololá	716	San Marcos la Laguna 	11	San Marcos la laguna 	1	Enero	2023-01-22T00:00:00	2024-11-08T23:00:00	3	Temperatura mínima	15.1
172524	7	Sololá	716	San Marcos la Laguna 	11	San Marcos la laguna 	1	Enero	2023-01-22T00:00:00	2024-11-08T23:00:00	5	Humedad	89
172525	7	Sololá	716	San Marcos la Laguna 	11	San Marcos la laguna 	1	Enero	2023-01-22T00:00:00	2024-11-08T23:00:00	6	Velocidad del viento	4.8
172526	7	Sololá	716	San Marcos la Laguna 	11	San Marcos la laguna 	1	Enero	2023-01-22T00:00:00	2024-11-08T23:00:00	7	Dirección del viento	4.83
172527	7	Sololá	716	San Marcos la Laguna 	11	San Marcos la laguna 	1	Enero	2023-01-22T00:00:00	2024-11-08T23:00:00	1	Precipitación	0
172528	7	Sololá	716	San Marcos la Laguna 	11	San Marcos la laguna 	1	Enero	2023-01-22T00:00:00	2024-11-08T23:00:00	8	Radiación solar	0
172529	7	Sololá	716	San Marcos la Laguna 	11	San Marcos la laguna 	1	Enero	2023-01-23T00:00:00	2024-11-08T00:00:00	2	Temperatura media	14.7
172530	7	Sololá	716	San Marcos la Laguna 	11	San Marcos la laguna 	1	Enero	2023-01-23T00:00:00	2024-11-08T00:00:00	4	Temperatura máxima	15.2
172531	7	Sololá	716	San Marcos la Laguna 	11	San Marcos la laguna 	1	Enero	2023-01-23T00:00:00	2024-11-08T00:00:00	3	Temperatura mínima	14.6
172532	7	Sololá	716	San Marcos la Laguna 	11	San Marcos la laguna 	1	Enero	2023-01-23T00:00:00	2024-11-08T00:00:00	5	Humedad	82
172533	7	Sololá	716	San Marcos la Laguna 	11	San Marcos la laguna 	1	Enero	2023-01-23T00:00:00	2024-11-08T00:00:00	6	Velocidad del viento	4.8
172534	7	Sololá	716	San Marcos la Laguna 	11	San Marcos la laguna 	1	Enero	2023-01-23T00:00:00	2024-11-08T00:00:00	7	Dirección del viento	4.83
172535	7	Sololá	716	San Marcos la Laguna 	11	San Marcos la laguna 	1	Enero	2023-01-23T00:00:00	2024-11-08T00:00:00	1	Precipitación	0
172536	7	Sololá	716	San Marcos la Laguna 	11	San Marcos la laguna 	1	Enero	2023-01-23T00:00:00	2024-11-08T00:00:00	8	Radiación solar	0
172537	7	Sololá	716	San Marcos la Laguna 	11	San Marcos la laguna 	1	Enero	2023-01-23T00:00:00	2024-11-08T01:00:00	2	Temperatura media	14.5
172538	7	Sololá	716	San Marcos la Laguna 	11	San Marcos la laguna 	1	Enero	2023-01-23T00:00:00	2024-11-08T01:00:00	4	Temperatura máxima	15.1
172539	7	Sololá	716	San Marcos la Laguna 	11	San Marcos la laguna 	1	Enero	2023-01-23T00:00:00	2024-11-08T01:00:00	3	Temperatura mínima	14.2
172540	7	Sololá	716	San Marcos la Laguna 	11	San Marcos la laguna 	1	Enero	2023-01-23T00:00:00	2024-11-08T01:00:00	5	Humedad	79
172541	7	Sololá	716	San Marcos la Laguna 	11	San Marcos la laguna 	1	Enero	2023-01-23T00:00:00	2024-11-08T01:00:00	6	Velocidad del viento	6.4
172542	7	Sololá	716	San Marcos la Laguna 	11	San Marcos la laguna 	1	Enero	2023-01-23T00:00:00	2024-11-08T01:00:00	7	Dirección del viento	6.44
172543	7	Sololá	716	San Marcos la Laguna 	11	San Marcos la laguna 	1	Enero	2023-01-23T00:00:00	2024-11-08T01:00:00	1	Precipitación	0
172544	7	Sololá	716	San Marcos la Laguna 	11	San Marcos la laguna 	1	Enero	2023-01-23T00:00:00	2024-11-08T01:00:00	8	Radiación solar	0
172545	7	Sololá	716	San Marcos la Laguna 	11	San Marcos la laguna 	1	Enero	2023-01-23T00:00:00	2024-11-08T02:00:00	2	Temperatura media	15.3
172546	7	Sololá	716	San Marcos la Laguna 	11	San Marcos la laguna 	1	Enero	2023-01-23T00:00:00	2024-11-08T02:00:00	4	Temperatura máxima	15.3
172547	7	Sololá	716	San Marcos la Laguna 	11	San Marcos la laguna 	1	Enero	2023-01-23T00:00:00	2024-11-08T02:00:00	3	Temperatura mínima	14.4
172548	7	Sololá	716	San Marcos la Laguna 	11	San Marcos la laguna 	1	Enero	2023-01-23T00:00:00	2024-11-08T02:00:00	5	Humedad	73
172549	7	Sololá	716	San Marcos la Laguna 	11	San Marcos la laguna 	1	Enero	2023-01-23T00:00:00	2024-11-08T02:00:00	6	Velocidad del viento	8
172550	7	Sololá	716	San Marcos la Laguna 	11	San Marcos la laguna 	1	Enero	2023-01-23T00:00:00	2024-11-08T02:00:00	7	Dirección del viento	8.05
172551	7	Sololá	716	San Marcos la Laguna 	11	San Marcos la laguna 	1	Enero	2023-01-23T00:00:00	2024-11-08T02:00:00	1	Precipitación	0
172552	7	Sololá	716	San Marcos la Laguna 	11	San Marcos la laguna 	1	Enero	2023-01-23T00:00:00	2024-11-08T02:00:00	8	Radiación solar	0
172553	7	Sololá	716	San Marcos la Laguna 	11	San Marcos la laguna 	1	Enero	2023-01-23T00:00:00	2024-11-08T03:00:00	2	Temperatura media	14.8
172554	7	Sololá	716	San Marcos la Laguna 	11	San Marcos la laguna 	1	Enero	2023-01-23T00:00:00	2024-11-08T03:00:00	4	Temperatura máxima	15.3
172555	7	Sololá	716	San Marcos la Laguna 	11	San Marcos la laguna 	1	Enero	2023-01-23T00:00:00	2024-11-08T03:00:00	3	Temperatura mínima	14.5
172556	7	Sololá	716	San Marcos la Laguna 	11	San Marcos la laguna 	1	Enero	2023-01-23T00:00:00	2024-11-08T03:00:00	5	Humedad	75
172557	7	Sololá	716	San Marcos la Laguna 	11	San Marcos la laguna 	1	Enero	2023-01-23T00:00:00	2024-11-08T03:00:00	6	Velocidad del viento	8
172558	7	Sololá	716	San Marcos la Laguna 	11	San Marcos la laguna 	1	Enero	2023-01-23T00:00:00	2024-11-08T03:00:00	7	Dirección del viento	8.05
172559	7	Sololá	716	San Marcos la Laguna 	11	San Marcos la laguna 	1	Enero	2023-01-23T00:00:00	2024-11-08T03:00:00	1	Precipitación	0
172560	7	Sololá	716	San Marcos la Laguna 	11	San Marcos la laguna 	1	Enero	2023-01-23T00:00:00	2024-11-08T03:00:00	8	Radiación solar	0
172561	7	Sololá	716	San Marcos la Laguna 	11	San Marcos la laguna 	1	Enero	2023-01-23T00:00:00	2024-11-08T04:00:00	2	Temperatura media	14.8
172562	7	Sololá	716	San Marcos la Laguna 	11	San Marcos la laguna 	1	Enero	2023-01-23T00:00:00	2024-11-08T04:00:00	4	Temperatura máxima	14.9
172563	7	Sololá	716	San Marcos la Laguna 	11	San Marcos la laguna 	1	Enero	2023-01-23T00:00:00	2024-11-08T04:00:00	3	Temperatura mínima	14.3
172564	7	Sololá	716	San Marcos la Laguna 	11	San Marcos la laguna 	1	Enero	2023-01-23T00:00:00	2024-11-08T04:00:00	5	Humedad	74
172565	7	Sololá	716	San Marcos la Laguna 	11	San Marcos la laguna 	1	Enero	2023-01-23T00:00:00	2024-11-08T04:00:00	6	Velocidad del viento	8
172566	7	Sololá	716	San Marcos la Laguna 	11	San Marcos la laguna 	1	Enero	2023-01-23T00:00:00	2024-11-08T04:00:00	7	Dirección del viento	8.05
172567	7	Sololá	716	San Marcos la Laguna 	11	San Marcos la laguna 	1	Enero	2023-01-23T00:00:00	2024-11-08T04:00:00	1	Precipitación	0
172568	7	Sololá	716	San Marcos la Laguna 	11	San Marcos la laguna 	1	Enero	2023-01-23T00:00:00	2024-11-08T04:00:00	8	Radiación solar	0
172569	7	Sololá	716	San Marcos la Laguna 	11	San Marcos la laguna 	1	Enero	2023-01-23T00:00:00	2024-11-08T05:00:00	2	Temperatura media	14.6
172570	7	Sololá	716	San Marcos la Laguna 	11	San Marcos la laguna 	1	Enero	2023-01-23T00:00:00	2024-11-08T05:00:00	4	Temperatura máxima	15
172571	7	Sololá	716	San Marcos la Laguna 	11	San Marcos la laguna 	1	Enero	2023-01-23T00:00:00	2024-11-08T05:00:00	3	Temperatura mínima	14.5
172572	7	Sololá	716	San Marcos la Laguna 	11	San Marcos la laguna 	1	Enero	2023-01-23T00:00:00	2024-11-08T05:00:00	5	Humedad	74
172573	7	Sololá	716	San Marcos la Laguna 	11	San Marcos la laguna 	1	Enero	2023-01-23T00:00:00	2024-11-08T05:00:00	6	Velocidad del viento	9.7
172574	7	Sololá	716	San Marcos la Laguna 	11	San Marcos la laguna 	1	Enero	2023-01-23T00:00:00	2024-11-08T05:00:00	7	Dirección del viento	9.66
172575	7	Sololá	716	San Marcos la Laguna 	11	San Marcos la laguna 	1	Enero	2023-01-23T00:00:00	2024-11-08T05:00:00	1	Precipitación	0
172576	7	Sololá	716	San Marcos la Laguna 	11	San Marcos la laguna 	1	Enero	2023-01-23T00:00:00	2024-11-08T05:00:00	8	Radiación solar	0
172577	7	Sololá	716	San Marcos la Laguna 	11	San Marcos la laguna 	1	Enero	2023-01-23T00:00:00	2024-11-08T06:00:00	2	Temperatura media	13.8
172578	7	Sololá	716	San Marcos la Laguna 	11	San Marcos la laguna 	1	Enero	2023-01-23T00:00:00	2024-11-08T06:00:00	4	Temperatura máxima	14.5
172579	7	Sololá	716	San Marcos la Laguna 	11	San Marcos la laguna 	1	Enero	2023-01-23T00:00:00	2024-11-08T06:00:00	3	Temperatura mínima	13.6
172580	7	Sololá	716	San Marcos la Laguna 	11	San Marcos la laguna 	1	Enero	2023-01-23T00:00:00	2024-11-08T06:00:00	5	Humedad	76
172581	7	Sololá	716	San Marcos la Laguna 	11	San Marcos la laguna 	1	Enero	2023-01-23T00:00:00	2024-11-08T06:00:00	6	Velocidad del viento	8
172582	7	Sololá	716	San Marcos la Laguna 	11	San Marcos la laguna 	1	Enero	2023-01-23T00:00:00	2024-11-08T06:00:00	7	Dirección del viento	8.05
172583	7	Sololá	716	San Marcos la Laguna 	11	San Marcos la laguna 	1	Enero	2023-01-23T00:00:00	2024-11-08T06:00:00	1	Precipitación	0
172584	7	Sololá	716	San Marcos la Laguna 	11	San Marcos la laguna 	1	Enero	2023-01-23T00:00:00	2024-11-08T06:00:00	8	Radiación solar	0
172585	7	Sololá	716	San Marcos la Laguna 	11	San Marcos la laguna 	1	Enero	2023-01-23T00:00:00	2024-11-08T07:00:00	2	Temperatura media	14.1
172586	7	Sololá	716	San Marcos la Laguna 	11	San Marcos la laguna 	1	Enero	2023-01-23T00:00:00	2024-11-08T07:00:00	4	Temperatura máxima	14.2
172587	7	Sololá	716	San Marcos la Laguna 	11	San Marcos la laguna 	1	Enero	2023-01-23T00:00:00	2024-11-08T07:00:00	3	Temperatura mínima	13.7
172588	7	Sololá	716	San Marcos la Laguna 	11	San Marcos la laguna 	1	Enero	2023-01-23T00:00:00	2024-11-08T07:00:00	5	Humedad	77
172589	7	Sololá	716	San Marcos la Laguna 	11	San Marcos la laguna 	1	Enero	2023-01-23T00:00:00	2024-11-08T07:00:00	6	Velocidad del viento	8
172590	7	Sololá	716	San Marcos la Laguna 	11	San Marcos la laguna 	1	Enero	2023-01-23T00:00:00	2024-11-08T07:00:00	7	Dirección del viento	8.05
172591	7	Sololá	716	San Marcos la Laguna 	11	San Marcos la laguna 	1	Enero	2023-01-23T00:00:00	2024-11-08T07:00:00	1	Precipitación	0
172592	7	Sololá	716	San Marcos la Laguna 	11	San Marcos la laguna 	1	Enero	2023-01-23T00:00:00	2024-11-08T07:00:00	8	Radiación solar	4
172593	7	Sololá	716	San Marcos la Laguna 	11	San Marcos la laguna 	1	Enero	2023-01-23T00:00:00	2024-11-08T08:00:00	2	Temperatura media	16
172594	7	Sololá	716	San Marcos la Laguna 	11	San Marcos la laguna 	1	Enero	2023-01-23T00:00:00	2024-11-08T08:00:00	4	Temperatura máxima	16
172595	7	Sololá	716	San Marcos la Laguna 	11	San Marcos la laguna 	1	Enero	2023-01-23T00:00:00	2024-11-08T08:00:00	3	Temperatura mínima	14.1
172596	7	Sololá	716	San Marcos la Laguna 	11	San Marcos la laguna 	1	Enero	2023-01-23T00:00:00	2024-11-08T08:00:00	5	Humedad	76
172597	7	Sololá	716	San Marcos la Laguna 	11	San Marcos la laguna 	1	Enero	2023-01-23T00:00:00	2024-11-08T08:00:00	6	Velocidad del viento	6.4
172598	7	Sololá	716	San Marcos la Laguna 	11	San Marcos la laguna 	1	Enero	2023-01-23T00:00:00	2024-11-08T08:00:00	7	Dirección del viento	6.44
172599	7	Sololá	716	San Marcos la Laguna 	11	San Marcos la laguna 	1	Enero	2023-01-23T00:00:00	2024-11-08T08:00:00	1	Precipitación	0
172600	7	Sololá	716	San Marcos la Laguna 	11	San Marcos la laguna 	1	Enero	2023-01-23T00:00:00	2024-11-08T08:00:00	8	Radiación solar	121
172601	7	Sololá	716	San Marcos la Laguna 	11	San Marcos la laguna 	1	Enero	2023-01-23T00:00:00	2024-11-08T09:00:00	2	Temperatura media	19.4
172602	7	Sololá	716	San Marcos la Laguna 	11	San Marcos la laguna 	1	Enero	2023-01-23T00:00:00	2024-11-08T09:00:00	4	Temperatura máxima	19.4
172603	7	Sololá	716	San Marcos la Laguna 	11	San Marcos la laguna 	1	Enero	2023-01-23T00:00:00	2024-11-08T09:00:00	3	Temperatura mínima	16.1
172604	7	Sololá	716	San Marcos la Laguna 	11	San Marcos la laguna 	1	Enero	2023-01-23T00:00:00	2024-11-08T09:00:00	5	Humedad	63
172605	7	Sololá	716	San Marcos la Laguna 	11	San Marcos la laguna 	1	Enero	2023-01-23T00:00:00	2024-11-08T09:00:00	6	Velocidad del viento	1.6
172606	7	Sololá	716	San Marcos la Laguna 	11	San Marcos la laguna 	1	Enero	2023-01-23T00:00:00	2024-11-08T09:00:00	7	Dirección del viento	1.61
172607	7	Sololá	716	San Marcos la Laguna 	11	San Marcos la laguna 	1	Enero	2023-01-23T00:00:00	2024-11-08T09:00:00	1	Precipitación	0
172608	7	Sololá	716	San Marcos la Laguna 	11	San Marcos la laguna 	1	Enero	2023-01-23T00:00:00	2024-11-08T09:00:00	8	Radiación solar	339
172609	7	Sololá	716	San Marcos la Laguna 	11	San Marcos la laguna 	1	Enero	2023-01-23T00:00:00	2024-11-08T10:00:00	2	Temperatura media	21
172610	7	Sololá	716	San Marcos la Laguna 	11	San Marcos la laguna 	1	Enero	2023-01-23T00:00:00	2024-11-08T10:00:00	4	Temperatura máxima	21
172611	7	Sololá	716	San Marcos la Laguna 	11	San Marcos la laguna 	1	Enero	2023-01-23T00:00:00	2024-11-08T10:00:00	3	Temperatura mínima	19.4
172612	7	Sololá	716	San Marcos la Laguna 	11	San Marcos la laguna 	1	Enero	2023-01-23T00:00:00	2024-11-08T10:00:00	5	Humedad	61
172613	7	Sololá	716	San Marcos la Laguna 	11	San Marcos la laguna 	1	Enero	2023-01-23T00:00:00	2024-11-08T10:00:00	6	Velocidad del viento	3.2
172614	7	Sololá	716	San Marcos la Laguna 	11	San Marcos la laguna 	1	Enero	2023-01-23T00:00:00	2024-11-08T10:00:00	7	Dirección del viento	3.22
172615	7	Sololá	716	San Marcos la Laguna 	11	San Marcos la laguna 	1	Enero	2023-01-23T00:00:00	2024-11-08T10:00:00	1	Precipitación	0
172616	7	Sololá	716	San Marcos la Laguna 	11	San Marcos la laguna 	1	Enero	2023-01-23T00:00:00	2024-11-08T10:00:00	8	Radiación solar	526
172617	7	Sololá	716	San Marcos la Laguna 	11	San Marcos la laguna 	1	Enero	2023-01-23T00:00:00	2024-11-08T11:00:00	2	Temperatura media	22
172618	7	Sololá	716	San Marcos la Laguna 	11	San Marcos la laguna 	1	Enero	2023-01-23T00:00:00	2024-11-08T11:00:00	4	Temperatura máxima	22
172619	7	Sololá	716	San Marcos la Laguna 	11	San Marcos la laguna 	1	Enero	2023-01-23T00:00:00	2024-11-08T11:00:00	3	Temperatura mínima	20.9
172620	7	Sololá	716	San Marcos la Laguna 	11	San Marcos la laguna 	1	Enero	2023-01-23T00:00:00	2024-11-08T11:00:00	5	Humedad	55
172621	7	Sololá	716	San Marcos la Laguna 	11	San Marcos la laguna 	1	Enero	2023-01-23T00:00:00	2024-11-08T11:00:00	6	Velocidad del viento	3.2
172622	7	Sololá	716	San Marcos la Laguna 	11	San Marcos la laguna 	1	Enero	2023-01-23T00:00:00	2024-11-08T11:00:00	7	Dirección del viento	3.22
172623	7	Sololá	716	San Marcos la Laguna 	11	San Marcos la laguna 	1	Enero	2023-01-23T00:00:00	2024-11-08T11:00:00	1	Precipitación	0
172624	7	Sololá	716	San Marcos la Laguna 	11	San Marcos la laguna 	1	Enero	2023-01-23T00:00:00	2024-11-08T11:00:00	8	Radiación solar	590
172625	7	Sololá	716	San Marcos la Laguna 	11	San Marcos la laguna 	1	Enero	2023-01-23T00:00:00	2024-11-08T12:00:00	2	Temperatura media	23.7
172626	7	Sololá	716	San Marcos la Laguna 	11	San Marcos la laguna 	1	Enero	2023-01-23T00:00:00	2024-11-08T12:00:00	4	Temperatura máxima	23.7
172627	7	Sololá	716	San Marcos la Laguna 	11	San Marcos la laguna 	1	Enero	2023-01-23T00:00:00	2024-11-08T12:00:00	3	Temperatura mínima	22
172628	7	Sololá	716	San Marcos la Laguna 	11	San Marcos la laguna 	1	Enero	2023-01-23T00:00:00	2024-11-08T12:00:00	5	Humedad	46
172629	7	Sololá	716	San Marcos la Laguna 	11	San Marcos la laguna 	1	Enero	2023-01-23T00:00:00	2024-11-08T12:00:00	6	Velocidad del viento	3.2
172630	7	Sololá	716	San Marcos la Laguna 	11	San Marcos la laguna 	1	Enero	2023-01-23T00:00:00	2024-11-08T12:00:00	7	Dirección del viento	3.22
172631	7	Sololá	716	San Marcos la Laguna 	11	San Marcos la laguna 	1	Enero	2023-01-23T00:00:00	2024-11-08T12:00:00	1	Precipitación	0
172632	7	Sololá	716	San Marcos la Laguna 	11	San Marcos la laguna 	1	Enero	2023-01-23T00:00:00	2024-11-08T12:00:00	8	Radiación solar	715
172633	7	Sololá	716	San Marcos la Laguna 	11	San Marcos la laguna 	1	Enero	2023-01-23T00:00:00	2024-11-08T13:00:00	2	Temperatura media	23.6
172634	7	Sololá	716	San Marcos la Laguna 	11	San Marcos la laguna 	1	Enero	2023-01-23T00:00:00	2024-11-08T13:00:00	4	Temperatura máxima	24.2
172635	7	Sololá	716	San Marcos la Laguna 	11	San Marcos la laguna 	1	Enero	2023-01-23T00:00:00	2024-11-08T13:00:00	3	Temperatura mínima	23.6
172636	7	Sololá	716	San Marcos la Laguna 	11	San Marcos la laguna 	1	Enero	2023-01-23T00:00:00	2024-11-08T13:00:00	5	Humedad	59
172637	7	Sololá	716	San Marcos la Laguna 	11	San Marcos la laguna 	1	Enero	2023-01-23T00:00:00	2024-11-08T13:00:00	6	Velocidad del viento	6.4
172638	7	Sololá	716	San Marcos la Laguna 	11	San Marcos la laguna 	1	Enero	2023-01-23T00:00:00	2024-11-08T13:00:00	7	Dirección del viento	6.44
172639	7	Sololá	716	San Marcos la Laguna 	11	San Marcos la laguna 	1	Enero	2023-01-23T00:00:00	2024-11-08T13:00:00	1	Precipitación	0
172640	7	Sololá	716	San Marcos la Laguna 	11	San Marcos la laguna 	1	Enero	2023-01-23T00:00:00	2024-11-08T13:00:00	8	Radiación solar	780
172641	7	Sololá	716	San Marcos la Laguna 	11	San Marcos la laguna 	1	Enero	2023-01-23T00:00:00	2024-11-08T14:00:00	2	Temperatura media	22.4
172642	7	Sololá	716	San Marcos la Laguna 	11	San Marcos la laguna 	1	Enero	2023-01-23T00:00:00	2024-11-08T14:00:00	4	Temperatura máxima	23.6
172643	7	Sololá	716	San Marcos la Laguna 	11	San Marcos la laguna 	1	Enero	2023-01-23T00:00:00	2024-11-08T14:00:00	3	Temperatura mínima	22.4
172644	7	Sololá	716	San Marcos la Laguna 	11	San Marcos la laguna 	1	Enero	2023-01-23T00:00:00	2024-11-08T14:00:00	5	Humedad	69
172645	7	Sololá	716	San Marcos la Laguna 	11	San Marcos la laguna 	1	Enero	2023-01-23T00:00:00	2024-11-08T14:00:00	6	Velocidad del viento	8
172646	7	Sololá	716	San Marcos la Laguna 	11	San Marcos la laguna 	1	Enero	2023-01-23T00:00:00	2024-11-08T14:00:00	7	Dirección del viento	8.05
172647	7	Sololá	716	San Marcos la Laguna 	11	San Marcos la laguna 	1	Enero	2023-01-23T00:00:00	2024-11-08T14:00:00	1	Precipitación	0
172648	7	Sololá	716	San Marcos la Laguna 	11	San Marcos la laguna 	1	Enero	2023-01-23T00:00:00	2024-11-08T14:00:00	8	Radiación solar	734
172649	7	Sololá	716	San Marcos la Laguna 	11	San Marcos la laguna 	1	Enero	2023-01-23T00:00:00	2024-11-08T15:00:00	2	Temperatura media	22.2
172650	7	Sololá	716	San Marcos la Laguna 	11	San Marcos la laguna 	1	Enero	2023-01-23T00:00:00	2024-11-08T15:00:00	4	Temperatura máxima	22.7
172651	7	Sololá	716	San Marcos la Laguna 	11	San Marcos la laguna 	1	Enero	2023-01-23T00:00:00	2024-11-08T15:00:00	3	Temperatura mínima	22
172652	7	Sololá	716	San Marcos la Laguna 	11	San Marcos la laguna 	1	Enero	2023-01-23T00:00:00	2024-11-08T15:00:00	5	Humedad	69
172653	7	Sololá	716	San Marcos la Laguna 	11	San Marcos la laguna 	1	Enero	2023-01-23T00:00:00	2024-11-08T15:00:00	6	Velocidad del viento	9.7
172654	7	Sololá	716	San Marcos la Laguna 	11	San Marcos la laguna 	1	Enero	2023-01-23T00:00:00	2024-11-08T15:00:00	7	Dirección del viento	9.66
172655	7	Sololá	716	San Marcos la Laguna 	11	San Marcos la laguna 	1	Enero	2023-01-23T00:00:00	2024-11-08T15:00:00	1	Precipitación	0
172656	7	Sololá	716	San Marcos la Laguna 	11	San Marcos la laguna 	1	Enero	2023-01-23T00:00:00	2024-11-08T15:00:00	8	Radiación solar	631
172657	7	Sololá	716	San Marcos la Laguna 	11	San Marcos la laguna 	1	Enero	2023-01-23T00:00:00	2024-11-08T16:00:00	2	Temperatura media	22.1
172658	7	Sololá	716	San Marcos la Laguna 	11	San Marcos la laguna 	1	Enero	2023-01-23T00:00:00	2024-11-08T16:00:00	4	Temperatura máxima	22.4
172659	7	Sololá	716	San Marcos la Laguna 	11	San Marcos la laguna 	1	Enero	2023-01-23T00:00:00	2024-11-08T16:00:00	3	Temperatura mínima	21.8
172660	7	Sololá	716	San Marcos la Laguna 	11	San Marcos la laguna 	1	Enero	2023-01-23T00:00:00	2024-11-08T16:00:00	5	Humedad	63
172661	7	Sololá	716	San Marcos la Laguna 	11	San Marcos la laguna 	1	Enero	2023-01-23T00:00:00	2024-11-08T16:00:00	6	Velocidad del viento	8
172662	7	Sololá	716	San Marcos la Laguna 	11	San Marcos la laguna 	1	Enero	2023-01-23T00:00:00	2024-11-08T16:00:00	7	Dirección del viento	8.05
172663	7	Sololá	716	San Marcos la Laguna 	11	San Marcos la laguna 	1	Enero	2023-01-23T00:00:00	2024-11-08T16:00:00	1	Precipitación	0
172664	7	Sololá	716	San Marcos la Laguna 	11	San Marcos la laguna 	1	Enero	2023-01-23T00:00:00	2024-11-08T16:00:00	8	Radiación solar	449
172665	7	Sololá	716	San Marcos la Laguna 	11	San Marcos la laguna 	1	Enero	2023-01-23T00:00:00	2024-11-08T17:00:00	2	Temperatura media	21.2
172666	7	Sololá	716	San Marcos la Laguna 	11	San Marcos la laguna 	1	Enero	2023-01-23T00:00:00	2024-11-08T17:00:00	4	Temperatura máxima	22.1
172667	7	Sololá	716	San Marcos la Laguna 	11	San Marcos la laguna 	1	Enero	2023-01-23T00:00:00	2024-11-08T17:00:00	3	Temperatura mínima	21.2
172668	7	Sololá	716	San Marcos la Laguna 	11	San Marcos la laguna 	1	Enero	2023-01-23T00:00:00	2024-11-08T17:00:00	5	Humedad	75
172669	7	Sololá	716	San Marcos la Laguna 	11	San Marcos la laguna 	1	Enero	2023-01-23T00:00:00	2024-11-08T17:00:00	6	Velocidad del viento	8
172670	7	Sololá	716	San Marcos la Laguna 	11	San Marcos la laguna 	1	Enero	2023-01-23T00:00:00	2024-11-08T17:00:00	7	Dirección del viento	8.05
172671	7	Sololá	716	San Marcos la Laguna 	11	San Marcos la laguna 	1	Enero	2023-01-23T00:00:00	2024-11-08T17:00:00	1	Precipitación	0
172672	7	Sololá	716	San Marcos la Laguna 	11	San Marcos la laguna 	1	Enero	2023-01-23T00:00:00	2024-11-08T17:00:00	8	Radiación solar	226
172673	7	Sololá	716	San Marcos la Laguna 	11	San Marcos la laguna 	1	Enero	2023-01-23T00:00:00	2024-11-08T18:00:00	2	Temperatura media	20.6
172674	7	Sololá	716	San Marcos la Laguna 	11	San Marcos la laguna 	1	Enero	2023-01-23T00:00:00	2024-11-08T18:00:00	4	Temperatura máxima	21.2
172675	7	Sololá	716	San Marcos la Laguna 	11	San Marcos la laguna 	1	Enero	2023-01-23T00:00:00	2024-11-08T18:00:00	3	Temperatura mínima	20.5
172676	7	Sololá	716	San Marcos la Laguna 	11	San Marcos la laguna 	1	Enero	2023-01-23T00:00:00	2024-11-08T18:00:00	5	Humedad	71
172677	7	Sololá	716	San Marcos la Laguna 	11	San Marcos la laguna 	1	Enero	2023-01-23T00:00:00	2024-11-08T18:00:00	6	Velocidad del viento	4.8
172678	7	Sololá	716	San Marcos la Laguna 	11	San Marcos la laguna 	1	Enero	2023-01-23T00:00:00	2024-11-08T18:00:00	7	Dirección del viento	4.83
172679	7	Sololá	716	San Marcos la Laguna 	11	San Marcos la laguna 	1	Enero	2023-01-23T00:00:00	2024-11-08T18:00:00	1	Precipitación	0
172680	7	Sololá	716	San Marcos la Laguna 	11	San Marcos la laguna 	1	Enero	2023-01-23T00:00:00	2024-11-08T18:00:00	8	Radiación solar	49
172681	7	Sololá	716	San Marcos la Laguna 	11	San Marcos la laguna 	1	Enero	2023-01-23T00:00:00	2024-11-08T19:00:00	2	Temperatura media	20.3
172682	7	Sololá	716	San Marcos la Laguna 	11	San Marcos la laguna 	1	Enero	2023-01-23T00:00:00	2024-11-08T19:00:00	4	Temperatura máxima	21.2
172683	7	Sololá	716	San Marcos la Laguna 	11	San Marcos la laguna 	1	Enero	2023-01-23T00:00:00	2024-11-08T19:00:00	3	Temperatura mínima	20.1
172684	7	Sololá	716	San Marcos la Laguna 	11	San Marcos la laguna 	1	Enero	2023-01-23T00:00:00	2024-11-08T19:00:00	5	Humedad	60
172685	7	Sololá	716	San Marcos la Laguna 	11	San Marcos la laguna 	1	Enero	2023-01-23T00:00:00	2024-11-08T19:00:00	6	Velocidad del viento	8
172686	7	Sololá	716	San Marcos la Laguna 	11	San Marcos la laguna 	1	Enero	2023-01-23T00:00:00	2024-11-08T19:00:00	7	Dirección del viento	8.05
172687	7	Sololá	716	San Marcos la Laguna 	11	San Marcos la laguna 	1	Enero	2023-01-23T00:00:00	2024-11-08T19:00:00	1	Precipitación	0
172688	7	Sololá	716	San Marcos la Laguna 	11	San Marcos la laguna 	1	Enero	2023-01-23T00:00:00	2024-11-08T19:00:00	8	Radiación solar	0
172689	7	Sololá	716	San Marcos la Laguna 	11	San Marcos la laguna 	1	Enero	2023-01-23T00:00:00	2024-11-08T20:00:00	2	Temperatura media	20.3
172690	7	Sololá	716	San Marcos la Laguna 	11	San Marcos la laguna 	1	Enero	2023-01-23T00:00:00	2024-11-08T20:00:00	4	Temperatura máxima	20.7
172691	7	Sololá	716	San Marcos la Laguna 	11	San Marcos la laguna 	1	Enero	2023-01-23T00:00:00	2024-11-08T20:00:00	3	Temperatura mínima	20.3
172692	7	Sololá	716	San Marcos la Laguna 	11	San Marcos la laguna 	1	Enero	2023-01-23T00:00:00	2024-11-08T20:00:00	5	Humedad	57
172693	7	Sololá	716	San Marcos la Laguna 	11	San Marcos la laguna 	1	Enero	2023-01-23T00:00:00	2024-11-08T20:00:00	6	Velocidad del viento	12.9
172694	7	Sololá	716	San Marcos la Laguna 	11	San Marcos la laguna 	1	Enero	2023-01-23T00:00:00	2024-11-08T20:00:00	7	Dirección del viento	12.87
172695	7	Sololá	716	San Marcos la Laguna 	11	San Marcos la laguna 	1	Enero	2023-01-23T00:00:00	2024-11-08T20:00:00	1	Precipitación	0
172696	7	Sololá	716	San Marcos la Laguna 	11	San Marcos la laguna 	1	Enero	2023-01-23T00:00:00	2024-11-08T20:00:00	8	Radiación solar	0
172697	7	Sololá	716	San Marcos la Laguna 	11	San Marcos la laguna 	1	Enero	2023-01-23T00:00:00	2024-11-08T21:00:00	2	Temperatura media	19.4
172698	7	Sololá	716	San Marcos la Laguna 	11	San Marcos la laguna 	1	Enero	2023-01-23T00:00:00	2024-11-08T21:00:00	4	Temperatura máxima	20.3
172699	7	Sololá	716	San Marcos la Laguna 	11	San Marcos la laguna 	1	Enero	2023-01-23T00:00:00	2024-11-08T21:00:00	3	Temperatura mínima	19.4
172700	7	Sololá	716	San Marcos la Laguna 	11	San Marcos la laguna 	1	Enero	2023-01-23T00:00:00	2024-11-08T21:00:00	5	Humedad	57
172701	7	Sololá	716	San Marcos la Laguna 	11	San Marcos la laguna 	1	Enero	2023-01-23T00:00:00	2024-11-08T21:00:00	6	Velocidad del viento	17.7
172702	7	Sololá	716	San Marcos la Laguna 	11	San Marcos la laguna 	1	Enero	2023-01-23T00:00:00	2024-11-08T21:00:00	7	Dirección del viento	17.7
172703	7	Sololá	716	San Marcos la Laguna 	11	San Marcos la laguna 	1	Enero	2023-01-23T00:00:00	2024-11-08T21:00:00	1	Precipitación	0
172704	7	Sololá	716	San Marcos la Laguna 	11	San Marcos la laguna 	1	Enero	2023-01-23T00:00:00	2024-11-08T21:00:00	8	Radiación solar	0
172705	7	Sololá	716	San Marcos la Laguna 	11	San Marcos la laguna 	1	Enero	2023-01-23T00:00:00	2024-11-08T22:00:00	2	Temperatura media	15.9
172706	7	Sololá	716	San Marcos la Laguna 	11	San Marcos la laguna 	1	Enero	2023-01-23T00:00:00	2024-11-08T22:00:00	4	Temperatura máxima	19.4
172707	7	Sololá	716	San Marcos la Laguna 	11	San Marcos la laguna 	1	Enero	2023-01-23T00:00:00	2024-11-08T22:00:00	3	Temperatura mínima	15.9
172708	7	Sololá	716	San Marcos la Laguna 	11	San Marcos la laguna 	1	Enero	2023-01-23T00:00:00	2024-11-08T22:00:00	5	Humedad	71
172709	7	Sololá	716	San Marcos la Laguna 	11	San Marcos la laguna 	1	Enero	2023-01-23T00:00:00	2024-11-08T22:00:00	6	Velocidad del viento	4.8
172710	7	Sololá	716	San Marcos la Laguna 	11	San Marcos la laguna 	1	Enero	2023-01-23T00:00:00	2024-11-08T22:00:00	7	Dirección del viento	4.83
172711	7	Sololá	716	San Marcos la Laguna 	11	San Marcos la laguna 	1	Enero	2023-01-23T00:00:00	2024-11-08T22:00:00	1	Precipitación	0
172712	7	Sololá	716	San Marcos la Laguna 	11	San Marcos la laguna 	1	Enero	2023-01-23T00:00:00	2024-11-08T22:00:00	8	Radiación solar	0
172713	7	Sololá	716	San Marcos la Laguna 	11	San Marcos la laguna 	1	Enero	2023-01-23T00:00:00	2024-11-08T23:00:00	2	Temperatura media	16.2
172714	7	Sololá	716	San Marcos la Laguna 	11	San Marcos la laguna 	1	Enero	2023-01-23T00:00:00	2024-11-08T23:00:00	4	Temperatura máxima	16.2
172715	7	Sololá	716	San Marcos la Laguna 	11	San Marcos la laguna 	1	Enero	2023-01-23T00:00:00	2024-11-08T23:00:00	3	Temperatura mínima	15.4
172716	7	Sololá	716	San Marcos la Laguna 	11	San Marcos la laguna 	1	Enero	2023-01-23T00:00:00	2024-11-08T23:00:00	5	Humedad	68
172717	7	Sololá	716	San Marcos la Laguna 	11	San Marcos la laguna 	1	Enero	2023-01-23T00:00:00	2024-11-08T23:00:00	6	Velocidad del viento	6.4
172718	7	Sololá	716	San Marcos la Laguna 	11	San Marcos la laguna 	1	Enero	2023-01-23T00:00:00	2024-11-08T23:00:00	7	Dirección del viento	6.44
172719	7	Sololá	716	San Marcos la Laguna 	11	San Marcos la laguna 	1	Enero	2023-01-23T00:00:00	2024-11-08T23:00:00	1	Precipitación	0
172720	7	Sololá	716	San Marcos la Laguna 	11	San Marcos la laguna 	1	Enero	2023-01-23T00:00:00	2024-11-08T23:00:00	8	Radiación solar	0
172721	7	Sololá	716	San Marcos la Laguna 	11	San Marcos la laguna 	1	Enero	2023-01-24T00:00:00	2024-11-08T00:00:00	2	Temperatura media	16.6
172722	7	Sololá	716	San Marcos la Laguna 	11	San Marcos la laguna 	1	Enero	2023-01-24T00:00:00	2024-11-08T00:00:00	4	Temperatura máxima	16.6
172723	7	Sololá	716	San Marcos la Laguna 	11	San Marcos la laguna 	1	Enero	2023-01-24T00:00:00	2024-11-08T00:00:00	3	Temperatura mínima	15.9
172724	7	Sololá	716	San Marcos la Laguna 	11	San Marcos la laguna 	1	Enero	2023-01-24T00:00:00	2024-11-08T00:00:00	5	Humedad	70
172725	7	Sololá	716	San Marcos la Laguna 	11	San Marcos la laguna 	1	Enero	2023-01-24T00:00:00	2024-11-08T00:00:00	6	Velocidad del viento	4.8
172726	7	Sololá	716	San Marcos la Laguna 	11	San Marcos la laguna 	1	Enero	2023-01-24T00:00:00	2024-11-08T00:00:00	7	Dirección del viento	4.83
172727	7	Sololá	716	San Marcos la Laguna 	11	San Marcos la laguna 	1	Enero	2023-01-24T00:00:00	2024-11-08T00:00:00	1	Precipitación	0
172728	7	Sololá	716	San Marcos la Laguna 	11	San Marcos la laguna 	1	Enero	2023-01-24T00:00:00	2024-11-08T00:00:00	8	Radiación solar	0
172729	7	Sololá	716	San Marcos la Laguna 	11	San Marcos la laguna 	1	Enero	2023-01-24T00:00:00	2024-11-08T01:00:00	2	Temperatura media	15.3
172730	7	Sololá	716	San Marcos la Laguna 	11	San Marcos la laguna 	1	Enero	2023-01-24T00:00:00	2024-11-08T01:00:00	4	Temperatura máxima	16.6
172731	7	Sololá	716	San Marcos la Laguna 	11	San Marcos la laguna 	1	Enero	2023-01-24T00:00:00	2024-11-08T01:00:00	3	Temperatura mínima	14.9
172732	7	Sololá	716	San Marcos la Laguna 	11	San Marcos la laguna 	1	Enero	2023-01-24T00:00:00	2024-11-08T01:00:00	5	Humedad	67
172733	7	Sololá	716	San Marcos la Laguna 	11	San Marcos la laguna 	1	Enero	2023-01-24T00:00:00	2024-11-08T01:00:00	6	Velocidad del viento	6.4
172734	7	Sololá	716	San Marcos la Laguna 	11	San Marcos la laguna 	1	Enero	2023-01-24T00:00:00	2024-11-08T01:00:00	7	Dirección del viento	6.44
172735	7	Sololá	716	San Marcos la Laguna 	11	San Marcos la laguna 	1	Enero	2023-01-24T00:00:00	2024-11-08T01:00:00	1	Precipitación	0
172736	7	Sololá	716	San Marcos la Laguna 	11	San Marcos la laguna 	1	Enero	2023-01-24T00:00:00	2024-11-08T01:00:00	8	Radiación solar	0
172737	7	Sololá	716	San Marcos la Laguna 	11	San Marcos la laguna 	1	Enero	2023-01-24T00:00:00	2024-11-08T02:00:00	2	Temperatura media	15
172738	7	Sololá	716	San Marcos la Laguna 	11	San Marcos la laguna 	1	Enero	2023-01-24T00:00:00	2024-11-08T02:00:00	4	Temperatura máxima	15.3
172739	7	Sololá	716	San Marcos la Laguna 	11	San Marcos la laguna 	1	Enero	2023-01-24T00:00:00	2024-11-08T02:00:00	3	Temperatura mínima	14.7
172740	7	Sololá	716	San Marcos la Laguna 	11	San Marcos la laguna 	1	Enero	2023-01-24T00:00:00	2024-11-08T02:00:00	5	Humedad	63
172741	7	Sololá	716	San Marcos la Laguna 	11	San Marcos la laguna 	1	Enero	2023-01-24T00:00:00	2024-11-08T02:00:00	6	Velocidad del viento	8
172742	7	Sololá	716	San Marcos la Laguna 	11	San Marcos la laguna 	1	Enero	2023-01-24T00:00:00	2024-11-08T02:00:00	7	Dirección del viento	8.05
172743	7	Sololá	716	San Marcos la Laguna 	11	San Marcos la laguna 	1	Enero	2023-01-24T00:00:00	2024-11-08T02:00:00	1	Precipitación	0
172744	7	Sololá	716	San Marcos la Laguna 	11	San Marcos la laguna 	1	Enero	2023-01-24T00:00:00	2024-11-08T02:00:00	8	Radiación solar	0
172745	7	Sololá	716	San Marcos la Laguna 	11	San Marcos la laguna 	1	Enero	2023-01-24T00:00:00	2024-11-08T03:00:00	2	Temperatura media	14.3
172746	7	Sololá	716	San Marcos la Laguna 	11	San Marcos la laguna 	1	Enero	2023-01-24T00:00:00	2024-11-08T03:00:00	4	Temperatura máxima	15.3
172747	7	Sololá	716	San Marcos la Laguna 	11	San Marcos la laguna 	1	Enero	2023-01-24T00:00:00	2024-11-08T03:00:00	3	Temperatura mínima	14.3
172748	7	Sololá	716	San Marcos la Laguna 	11	San Marcos la laguna 	1	Enero	2023-01-24T00:00:00	2024-11-08T03:00:00	5	Humedad	61
172749	7	Sololá	716	San Marcos la Laguna 	11	San Marcos la laguna 	1	Enero	2023-01-24T00:00:00	2024-11-08T03:00:00	6	Velocidad del viento	8
172750	7	Sololá	716	San Marcos la Laguna 	11	San Marcos la laguna 	1	Enero	2023-01-24T00:00:00	2024-11-08T03:00:00	7	Dirección del viento	8.05
172751	7	Sololá	716	San Marcos la Laguna 	11	San Marcos la laguna 	1	Enero	2023-01-24T00:00:00	2024-11-08T03:00:00	1	Precipitación	0
172752	7	Sololá	716	San Marcos la Laguna 	11	San Marcos la laguna 	1	Enero	2023-01-24T00:00:00	2024-11-08T03:00:00	8	Radiación solar	0
172753	7	Sololá	716	San Marcos la Laguna 	11	San Marcos la laguna 	1	Enero	2023-01-24T00:00:00	2024-11-08T04:00:00	2	Temperatura media	13.4
172754	7	Sololá	716	San Marcos la Laguna 	11	San Marcos la laguna 	1	Enero	2023-01-24T00:00:00	2024-11-08T04:00:00	4	Temperatura máxima	14.6
172755	7	Sololá	716	San Marcos la Laguna 	11	San Marcos la laguna 	1	Enero	2023-01-24T00:00:00	2024-11-08T04:00:00	3	Temperatura mínima	13.2
172756	7	Sololá	716	San Marcos la Laguna 	11	San Marcos la laguna 	1	Enero	2023-01-24T00:00:00	2024-11-08T04:00:00	5	Humedad	59
172757	7	Sololá	716	San Marcos la Laguna 	11	San Marcos la laguna 	1	Enero	2023-01-24T00:00:00	2024-11-08T04:00:00	6	Velocidad del viento	9.7
172758	7	Sololá	716	San Marcos la Laguna 	11	San Marcos la laguna 	1	Enero	2023-01-24T00:00:00	2024-11-08T04:00:00	7	Dirección del viento	9.66
172759	7	Sololá	716	San Marcos la Laguna 	11	San Marcos la laguna 	1	Enero	2023-01-24T00:00:00	2024-11-08T04:00:00	1	Precipitación	0
172760	7	Sololá	716	San Marcos la Laguna 	11	San Marcos la laguna 	1	Enero	2023-01-24T00:00:00	2024-11-08T04:00:00	8	Radiación solar	0
172761	7	Sololá	716	San Marcos la Laguna 	11	San Marcos la laguna 	1	Enero	2023-01-24T00:00:00	2024-11-08T05:00:00	2	Temperatura media	13.1
172762	7	Sololá	716	San Marcos la Laguna 	11	San Marcos la laguna 	1	Enero	2023-01-24T00:00:00	2024-11-08T05:00:00	4	Temperatura máxima	13.9
172763	7	Sololá	716	San Marcos la Laguna 	11	San Marcos la laguna 	1	Enero	2023-01-24T00:00:00	2024-11-08T05:00:00	3	Temperatura mínima	13
172764	7	Sololá	716	San Marcos la Laguna 	11	San Marcos la laguna 	1	Enero	2023-01-24T00:00:00	2024-11-08T05:00:00	5	Humedad	60
172765	7	Sololá	716	San Marcos la Laguna 	11	San Marcos la laguna 	1	Enero	2023-01-24T00:00:00	2024-11-08T05:00:00	6	Velocidad del viento	9.7
172766	7	Sololá	716	San Marcos la Laguna 	11	San Marcos la laguna 	1	Enero	2023-01-24T00:00:00	2024-11-08T05:00:00	7	Dirección del viento	9.66
172767	7	Sololá	716	San Marcos la Laguna 	11	San Marcos la laguna 	1	Enero	2023-01-24T00:00:00	2024-11-08T05:00:00	1	Precipitación	0
172768	7	Sololá	716	San Marcos la Laguna 	11	San Marcos la laguna 	1	Enero	2023-01-24T00:00:00	2024-11-08T05:00:00	8	Radiación solar	0
172769	7	Sololá	716	San Marcos la Laguna 	11	San Marcos la laguna 	1	Enero	2023-01-24T00:00:00	2024-11-08T06:00:00	2	Temperatura media	12
172770	7	Sololá	716	San Marcos la Laguna 	11	San Marcos la laguna 	1	Enero	2023-01-24T00:00:00	2024-11-08T06:00:00	4	Temperatura máxima	13
172771	7	Sololá	716	San Marcos la Laguna 	11	San Marcos la laguna 	1	Enero	2023-01-24T00:00:00	2024-11-08T06:00:00	3	Temperatura mínima	11.9
172772	7	Sololá	716	San Marcos la Laguna 	11	San Marcos la laguna 	1	Enero	2023-01-24T00:00:00	2024-11-08T06:00:00	5	Humedad	68
172773	7	Sololá	716	San Marcos la Laguna 	11	San Marcos la laguna 	1	Enero	2023-01-24T00:00:00	2024-11-08T06:00:00	6	Velocidad del viento	9.7
172774	7	Sololá	716	San Marcos la Laguna 	11	San Marcos la laguna 	1	Enero	2023-01-24T00:00:00	2024-11-08T06:00:00	7	Dirección del viento	9.66
172775	7	Sololá	716	San Marcos la Laguna 	11	San Marcos la laguna 	1	Enero	2023-01-24T00:00:00	2024-11-08T06:00:00	1	Precipitación	0
172776	7	Sololá	716	San Marcos la Laguna 	11	San Marcos la laguna 	1	Enero	2023-01-24T00:00:00	2024-11-08T06:00:00	8	Radiación solar	0
172777	7	Sololá	716	San Marcos la Laguna 	11	San Marcos la laguna 	1	Enero	2023-01-24T00:00:00	2024-11-08T07:00:00	2	Temperatura media	12.9
172778	7	Sololá	716	San Marcos la Laguna 	11	San Marcos la laguna 	1	Enero	2023-01-24T00:00:00	2024-11-08T07:00:00	4	Temperatura máxima	12.9
172779	7	Sololá	716	San Marcos la Laguna 	11	San Marcos la laguna 	1	Enero	2023-01-24T00:00:00	2024-11-08T07:00:00	3	Temperatura mínima	12
172780	7	Sololá	716	San Marcos la Laguna 	11	San Marcos la laguna 	1	Enero	2023-01-24T00:00:00	2024-11-08T07:00:00	5	Humedad	63
172781	7	Sololá	716	San Marcos la Laguna 	11	San Marcos la laguna 	1	Enero	2023-01-24T00:00:00	2024-11-08T07:00:00	6	Velocidad del viento	8
172782	7	Sololá	716	San Marcos la Laguna 	11	San Marcos la laguna 	1	Enero	2023-01-24T00:00:00	2024-11-08T07:00:00	7	Dirección del viento	8.05
172783	7	Sololá	716	San Marcos la Laguna 	11	San Marcos la laguna 	1	Enero	2023-01-24T00:00:00	2024-11-08T07:00:00	1	Precipitación	0
172784	7	Sololá	716	San Marcos la Laguna 	11	San Marcos la laguna 	1	Enero	2023-01-24T00:00:00	2024-11-08T07:00:00	8	Radiación solar	4
172785	7	Sololá	716	San Marcos la Laguna 	11	San Marcos la laguna 	1	Enero	2023-01-24T00:00:00	2024-11-08T08:00:00	2	Temperatura media	15.2
172786	7	Sololá	716	San Marcos la Laguna 	11	San Marcos la laguna 	1	Enero	2023-01-24T00:00:00	2024-11-08T08:00:00	4	Temperatura máxima	15.2
172787	7	Sololá	716	San Marcos la Laguna 	11	San Marcos la laguna 	1	Enero	2023-01-24T00:00:00	2024-11-08T08:00:00	3	Temperatura mínima	12.9
172788	7	Sololá	716	San Marcos la Laguna 	11	San Marcos la laguna 	1	Enero	2023-01-24T00:00:00	2024-11-08T08:00:00	5	Humedad	61
172789	7	Sololá	716	San Marcos la Laguna 	11	San Marcos la laguna 	1	Enero	2023-01-24T00:00:00	2024-11-08T08:00:00	6	Velocidad del viento	6.4
172790	7	Sololá	716	San Marcos la Laguna 	11	San Marcos la laguna 	1	Enero	2023-01-24T00:00:00	2024-11-08T08:00:00	7	Dirección del viento	6.44
172791	7	Sololá	716	San Marcos la Laguna 	11	San Marcos la laguna 	1	Enero	2023-01-24T00:00:00	2024-11-08T08:00:00	1	Precipitación	0
172792	7	Sololá	716	San Marcos la Laguna 	11	San Marcos la laguna 	1	Enero	2023-01-24T00:00:00	2024-11-08T08:00:00	8	Radiación solar	127
172793	7	Sololá	716	San Marcos la Laguna 	11	San Marcos la laguna 	1	Enero	2023-01-24T00:00:00	2024-11-08T09:00:00	2	Temperatura media	19.8
172794	7	Sololá	716	San Marcos la Laguna 	11	San Marcos la laguna 	1	Enero	2023-01-24T00:00:00	2024-11-08T09:00:00	4	Temperatura máxima	19.8
172795	7	Sololá	716	San Marcos la Laguna 	11	San Marcos la laguna 	1	Enero	2023-01-24T00:00:00	2024-11-08T09:00:00	3	Temperatura mínima	15.3
172796	7	Sololá	716	San Marcos la Laguna 	11	San Marcos la laguna 	1	Enero	2023-01-24T00:00:00	2024-11-08T09:00:00	5	Humedad	48
172797	7	Sololá	716	San Marcos la Laguna 	11	San Marcos la laguna 	1	Enero	2023-01-24T00:00:00	2024-11-08T09:00:00	6	Velocidad del viento	1.6
172798	7	Sololá	716	San Marcos la Laguna 	11	San Marcos la laguna 	1	Enero	2023-01-24T00:00:00	2024-11-08T09:00:00	7	Dirección del viento	1.61
172799	7	Sololá	716	San Marcos la Laguna 	11	San Marcos la laguna 	1	Enero	2023-01-24T00:00:00	2024-11-08T09:00:00	1	Precipitación	0
172800	7	Sololá	716	San Marcos la Laguna 	11	San Marcos la laguna 	1	Enero	2023-01-24T00:00:00	2024-11-08T09:00:00	8	Radiación solar	352
172801	7	Sololá	716	San Marcos la Laguna 	11	San Marcos la laguna 	1	Enero	2023-01-24T00:00:00	2024-11-08T10:00:00	2	Temperatura media	21.4
172802	7	Sololá	716	San Marcos la Laguna 	11	San Marcos la laguna 	1	Enero	2023-01-24T00:00:00	2024-11-08T10:00:00	4	Temperatura máxima	21.4
172803	7	Sololá	716	San Marcos la Laguna 	11	San Marcos la laguna 	1	Enero	2023-01-24T00:00:00	2024-11-08T10:00:00	3	Temperatura mínima	19.8
172804	7	Sololá	716	San Marcos la Laguna 	11	San Marcos la laguna 	1	Enero	2023-01-24T00:00:00	2024-11-08T10:00:00	5	Humedad	43
172805	7	Sololá	716	San Marcos la Laguna 	11	San Marcos la laguna 	1	Enero	2023-01-24T00:00:00	2024-11-08T10:00:00	6	Velocidad del viento	3.2
172806	7	Sololá	716	San Marcos la Laguna 	11	San Marcos la laguna 	1	Enero	2023-01-24T00:00:00	2024-11-08T10:00:00	7	Dirección del viento	3.22
172807	7	Sololá	716	San Marcos la Laguna 	11	San Marcos la laguna 	1	Enero	2023-01-24T00:00:00	2024-11-08T10:00:00	1	Precipitación	0
172808	7	Sololá	716	San Marcos la Laguna 	11	San Marcos la laguna 	1	Enero	2023-01-24T00:00:00	2024-11-08T10:00:00	8	Radiación solar	543
172809	7	Sololá	716	San Marcos la Laguna 	11	San Marcos la laguna 	1	Enero	2023-01-24T00:00:00	2024-11-08T11:00:00	2	Temperatura media	23.4
172810	7	Sololá	716	San Marcos la Laguna 	11	San Marcos la laguna 	1	Enero	2023-01-24T00:00:00	2024-11-08T11:00:00	4	Temperatura máxima	23.4
172811	7	Sololá	716	San Marcos la Laguna 	11	San Marcos la laguna 	1	Enero	2023-01-24T00:00:00	2024-11-08T11:00:00	3	Temperatura mínima	21.4
172812	7	Sololá	716	San Marcos la Laguna 	11	San Marcos la laguna 	1	Enero	2023-01-24T00:00:00	2024-11-08T11:00:00	5	Humedad	37
172813	7	Sololá	716	San Marcos la Laguna 	11	San Marcos la laguna 	1	Enero	2023-01-24T00:00:00	2024-11-08T11:00:00	6	Velocidad del viento	3.2
172814	7	Sololá	716	San Marcos la Laguna 	11	San Marcos la laguna 	1	Enero	2023-01-24T00:00:00	2024-11-08T11:00:00	7	Dirección del viento	3.22
172815	7	Sololá	716	San Marcos la Laguna 	11	San Marcos la laguna 	1	Enero	2023-01-24T00:00:00	2024-11-08T11:00:00	1	Precipitación	0
172816	7	Sololá	716	San Marcos la Laguna 	11	San Marcos la laguna 	1	Enero	2023-01-24T00:00:00	2024-11-08T11:00:00	8	Radiación solar	608
172817	7	Sololá	716	San Marcos la Laguna 	11	San Marcos la laguna 	1	Enero	2023-01-24T00:00:00	2024-11-08T12:00:00	2	Temperatura media	23.4
172818	7	Sololá	716	San Marcos la Laguna 	11	San Marcos la laguna 	1	Enero	2023-01-24T00:00:00	2024-11-08T12:00:00	4	Temperatura máxima	23.9
172819	7	Sololá	716	San Marcos la Laguna 	11	San Marcos la laguna 	1	Enero	2023-01-24T00:00:00	2024-11-08T12:00:00	3	Temperatura mínima	23.3
172820	7	Sololá	716	San Marcos la Laguna 	11	San Marcos la laguna 	1	Enero	2023-01-24T00:00:00	2024-11-08T12:00:00	5	Humedad	37
172821	7	Sololá	716	San Marcos la Laguna 	11	San Marcos la laguna 	1	Enero	2023-01-24T00:00:00	2024-11-08T12:00:00	6	Velocidad del viento	3.2
172822	7	Sololá	716	San Marcos la Laguna 	11	San Marcos la laguna 	1	Enero	2023-01-24T00:00:00	2024-11-08T12:00:00	7	Dirección del viento	3.22
172823	7	Sololá	716	San Marcos la Laguna 	11	San Marcos la laguna 	1	Enero	2023-01-24T00:00:00	2024-11-08T12:00:00	1	Precipitación	0
172824	7	Sololá	716	San Marcos la Laguna 	11	San Marcos la laguna 	1	Enero	2023-01-24T00:00:00	2024-11-08T12:00:00	8	Radiación solar	736
172825	7	Sololá	716	San Marcos la Laguna 	11	San Marcos la laguna 	1	Enero	2023-01-24T00:00:00	2024-11-08T13:00:00	2	Temperatura media	22.8
172826	7	Sololá	716	San Marcos la Laguna 	11	San Marcos la laguna 	1	Enero	2023-01-24T00:00:00	2024-11-08T13:00:00	4	Temperatura máxima	23.4
172827	7	Sololá	716	San Marcos la Laguna 	11	San Marcos la laguna 	1	Enero	2023-01-24T00:00:00	2024-11-08T13:00:00	3	Temperatura mínima	22.5
172828	7	Sololá	716	San Marcos la Laguna 	11	San Marcos la laguna 	1	Enero	2023-01-24T00:00:00	2024-11-08T13:00:00	5	Humedad	54
172829	7	Sololá	716	San Marcos la Laguna 	11	San Marcos la laguna 	1	Enero	2023-01-24T00:00:00	2024-11-08T13:00:00	6	Velocidad del viento	8
172830	7	Sololá	716	San Marcos la Laguna 	11	San Marcos la laguna 	1	Enero	2023-01-24T00:00:00	2024-11-08T13:00:00	7	Dirección del viento	8.05
172831	7	Sololá	716	San Marcos la Laguna 	11	San Marcos la laguna 	1	Enero	2023-01-24T00:00:00	2024-11-08T13:00:00	1	Precipitación	0
172832	7	Sololá	716	San Marcos la Laguna 	11	San Marcos la laguna 	1	Enero	2023-01-24T00:00:00	2024-11-08T13:00:00	8	Radiación solar	798
172833	7	Sololá	716	San Marcos la Laguna 	11	San Marcos la laguna 	1	Enero	2023-01-24T00:00:00	2024-11-08T14:00:00	2	Temperatura media	22.7
172834	7	Sololá	716	San Marcos la Laguna 	11	San Marcos la laguna 	1	Enero	2023-01-24T00:00:00	2024-11-08T14:00:00	4	Temperatura máxima	22.9
172835	7	Sololá	716	San Marcos la Laguna 	11	San Marcos la laguna 	1	Enero	2023-01-24T00:00:00	2024-11-08T14:00:00	3	Temperatura mínima	22.3
172836	7	Sololá	716	San Marcos la Laguna 	11	San Marcos la laguna 	1	Enero	2023-01-24T00:00:00	2024-11-08T14:00:00	5	Humedad	60
172837	7	Sololá	716	San Marcos la Laguna 	11	San Marcos la laguna 	1	Enero	2023-01-24T00:00:00	2024-11-08T14:00:00	6	Velocidad del viento	11.3
172838	7	Sololá	716	San Marcos la Laguna 	11	San Marcos la laguna 	1	Enero	2023-01-24T00:00:00	2024-11-08T14:00:00	7	Dirección del viento	11.27
172839	7	Sololá	716	San Marcos la Laguna 	11	San Marcos la laguna 	1	Enero	2023-01-24T00:00:00	2024-11-08T14:00:00	1	Precipitación	0
172840	7	Sololá	716	San Marcos la Laguna 	11	San Marcos la laguna 	1	Enero	2023-01-24T00:00:00	2024-11-08T14:00:00	8	Radiación solar	740
172841	7	Sololá	716	San Marcos la Laguna 	11	San Marcos la laguna 	1	Enero	2023-01-24T00:00:00	2024-11-08T15:00:00	2	Temperatura media	22.8
172842	7	Sololá	716	San Marcos la Laguna 	11	San Marcos la laguna 	1	Enero	2023-01-24T00:00:00	2024-11-08T15:00:00	4	Temperatura máxima	23.2
172843	7	Sololá	716	San Marcos la Laguna 	11	San Marcos la laguna 	1	Enero	2023-01-24T00:00:00	2024-11-08T15:00:00	3	Temperatura mínima	22.4
172844	7	Sololá	716	San Marcos la Laguna 	11	San Marcos la laguna 	1	Enero	2023-01-24T00:00:00	2024-11-08T15:00:00	5	Humedad	63
172845	7	Sololá	716	San Marcos la Laguna 	11	San Marcos la laguna 	1	Enero	2023-01-24T00:00:00	2024-11-08T15:00:00	6	Velocidad del viento	8
172846	7	Sololá	716	San Marcos la Laguna 	11	San Marcos la laguna 	1	Enero	2023-01-24T00:00:00	2024-11-08T15:00:00	7	Dirección del viento	8.05
172847	7	Sololá	716	San Marcos la Laguna 	11	San Marcos la laguna 	1	Enero	2023-01-24T00:00:00	2024-11-08T15:00:00	1	Precipitación	0
172848	7	Sololá	716	San Marcos la Laguna 	11	San Marcos la laguna 	1	Enero	2023-01-24T00:00:00	2024-11-08T15:00:00	8	Radiación solar	607
172849	7	Sololá	716	San Marcos la Laguna 	11	San Marcos la laguna 	1	Enero	2023-01-24T00:00:00	2024-11-08T16:00:00	2	Temperatura media	21.8
172850	7	Sololá	716	San Marcos la Laguna 	11	San Marcos la laguna 	1	Enero	2023-01-24T00:00:00	2024-11-08T16:00:00	4	Temperatura máxima	22.9
172851	7	Sololá	716	San Marcos la Laguna 	11	San Marcos la laguna 	1	Enero	2023-01-24T00:00:00	2024-11-08T16:00:00	3	Temperatura mínima	21.8
172852	7	Sololá	716	San Marcos la Laguna 	11	San Marcos la laguna 	1	Enero	2023-01-24T00:00:00	2024-11-08T16:00:00	5	Humedad	66
172853	7	Sololá	716	San Marcos la Laguna 	11	San Marcos la laguna 	1	Enero	2023-01-24T00:00:00	2024-11-08T16:00:00	6	Velocidad del viento	9.7
172854	7	Sololá	716	San Marcos la Laguna 	11	San Marcos la laguna 	1	Enero	2023-01-24T00:00:00	2024-11-08T16:00:00	7	Dirección del viento	9.66
172855	7	Sololá	716	San Marcos la Laguna 	11	San Marcos la laguna 	1	Enero	2023-01-24T00:00:00	2024-11-08T16:00:00	1	Precipitación	0
172856	7	Sololá	716	San Marcos la Laguna 	11	San Marcos la laguna 	1	Enero	2023-01-24T00:00:00	2024-11-08T16:00:00	8	Radiación solar	483
172857	7	Sololá	716	San Marcos la Laguna 	11	San Marcos la laguna 	1	Enero	2023-01-24T00:00:00	2024-11-08T17:00:00	2	Temperatura media	20.8
172858	7	Sololá	716	San Marcos la Laguna 	11	San Marcos la laguna 	1	Enero	2023-01-24T00:00:00	2024-11-08T17:00:00	4	Temperatura máxima	21.8
172859	7	Sololá	716	San Marcos la Laguna 	11	San Marcos la laguna 	1	Enero	2023-01-24T00:00:00	2024-11-08T17:00:00	3	Temperatura mínima	20.7
172860	7	Sololá	716	San Marcos la Laguna 	11	San Marcos la laguna 	1	Enero	2023-01-24T00:00:00	2024-11-08T17:00:00	5	Humedad	73
172861	7	Sololá	716	San Marcos la Laguna 	11	San Marcos la laguna 	1	Enero	2023-01-24T00:00:00	2024-11-08T17:00:00	6	Velocidad del viento	8
172862	7	Sololá	716	San Marcos la Laguna 	11	San Marcos la laguna 	1	Enero	2023-01-24T00:00:00	2024-11-08T17:00:00	7	Dirección del viento	8.05
172863	7	Sololá	716	San Marcos la Laguna 	11	San Marcos la laguna 	1	Enero	2023-01-24T00:00:00	2024-11-08T17:00:00	1	Precipitación	0
172864	7	Sololá	716	San Marcos la Laguna 	11	San Marcos la laguna 	1	Enero	2023-01-24T00:00:00	2024-11-08T17:00:00	8	Radiación solar	251
172865	7	Sololá	716	San Marcos la Laguna 	11	San Marcos la laguna 	1	Enero	2023-01-24T00:00:00	2024-11-08T18:00:00	2	Temperatura media	19.5
172866	7	Sololá	716	San Marcos la Laguna 	11	San Marcos la laguna 	1	Enero	2023-01-24T00:00:00	2024-11-08T18:00:00	4	Temperatura máxima	20.8
172867	7	Sololá	716	San Marcos la Laguna 	11	San Marcos la laguna 	1	Enero	2023-01-24T00:00:00	2024-11-08T18:00:00	3	Temperatura mínima	19.5
172868	7	Sololá	716	San Marcos la Laguna 	11	San Marcos la laguna 	1	Enero	2023-01-24T00:00:00	2024-11-08T18:00:00	5	Humedad	77
172869	7	Sololá	716	San Marcos la Laguna 	11	San Marcos la laguna 	1	Enero	2023-01-24T00:00:00	2024-11-08T18:00:00	6	Velocidad del viento	4.8
172870	7	Sololá	716	San Marcos la Laguna 	11	San Marcos la laguna 	1	Enero	2023-01-24T00:00:00	2024-11-08T18:00:00	7	Dirección del viento	4.83
172871	7	Sololá	716	San Marcos la Laguna 	11	San Marcos la laguna 	1	Enero	2023-01-24T00:00:00	2024-11-08T18:00:00	1	Precipitación	0
172872	7	Sololá	716	San Marcos la Laguna 	11	San Marcos la laguna 	1	Enero	2023-01-24T00:00:00	2024-11-08T18:00:00	8	Radiación solar	57
172873	7	Sololá	716	San Marcos la Laguna 	11	San Marcos la laguna 	1	Enero	2023-01-24T00:00:00	2024-11-08T19:00:00	2	Temperatura media	18.4
172874	7	Sololá	716	San Marcos la Laguna 	11	San Marcos la laguna 	1	Enero	2023-01-24T00:00:00	2024-11-08T19:00:00	4	Temperatura máxima	19.5
172875	7	Sololá	716	San Marcos la Laguna 	11	San Marcos la laguna 	1	Enero	2023-01-24T00:00:00	2024-11-08T19:00:00	3	Temperatura mínima	18.3
172876	7	Sololá	716	San Marcos la Laguna 	11	San Marcos la laguna 	1	Enero	2023-01-24T00:00:00	2024-11-08T19:00:00	5	Humedad	82
172877	7	Sololá	716	San Marcos la Laguna 	11	San Marcos la laguna 	1	Enero	2023-01-24T00:00:00	2024-11-08T19:00:00	6	Velocidad del viento	3.2
172878	7	Sololá	716	San Marcos la Laguna 	11	San Marcos la laguna 	1	Enero	2023-01-24T00:00:00	2024-11-08T19:00:00	7	Dirección del viento	3.22
172879	7	Sololá	716	San Marcos la Laguna 	11	San Marcos la laguna 	1	Enero	2023-01-24T00:00:00	2024-11-08T19:00:00	1	Precipitación	0
172880	7	Sololá	716	San Marcos la Laguna 	11	San Marcos la laguna 	1	Enero	2023-01-24T00:00:00	2024-11-08T19:00:00	8	Radiación solar	0
172881	7	Sololá	716	San Marcos la Laguna 	11	San Marcos la laguna 	1	Enero	2023-01-24T00:00:00	2024-11-08T20:00:00	2	Temperatura media	17.8
172882	7	Sololá	716	San Marcos la Laguna 	11	San Marcos la laguna 	1	Enero	2023-01-24T00:00:00	2024-11-08T20:00:00	4	Temperatura máxima	18.4
172883	7	Sololá	716	San Marcos la Laguna 	11	San Marcos la laguna 	1	Enero	2023-01-24T00:00:00	2024-11-08T20:00:00	3	Temperatura mínima	17.7
172884	7	Sololá	716	San Marcos la Laguna 	11	San Marcos la laguna 	1	Enero	2023-01-24T00:00:00	2024-11-08T20:00:00	5	Humedad	73
172885	7	Sololá	716	San Marcos la Laguna 	11	San Marcos la laguna 	1	Enero	2023-01-24T00:00:00	2024-11-08T20:00:00	6	Velocidad del viento	3.2
172886	7	Sololá	716	San Marcos la Laguna 	11	San Marcos la laguna 	1	Enero	2023-01-24T00:00:00	2024-11-08T20:00:00	7	Dirección del viento	3.22
172887	7	Sololá	716	San Marcos la Laguna 	11	San Marcos la laguna 	1	Enero	2023-01-24T00:00:00	2024-11-08T20:00:00	1	Precipitación	0
172888	7	Sololá	716	San Marcos la Laguna 	11	San Marcos la laguna 	1	Enero	2023-01-24T00:00:00	2024-11-08T20:00:00	8	Radiación solar	0
172889	7	Sololá	716	San Marcos la Laguna 	11	San Marcos la laguna 	1	Enero	2023-01-24T00:00:00	2024-11-08T21:00:00	2	Temperatura media	16.4
172890	7	Sololá	716	San Marcos la Laguna 	11	San Marcos la laguna 	1	Enero	2023-01-24T00:00:00	2024-11-08T21:00:00	4	Temperatura máxima	17.8
172891	7	Sololá	716	San Marcos la Laguna 	11	San Marcos la laguna 	1	Enero	2023-01-24T00:00:00	2024-11-08T21:00:00	3	Temperatura mínima	16.4
172892	7	Sololá	716	San Marcos la Laguna 	11	San Marcos la laguna 	1	Enero	2023-01-24T00:00:00	2024-11-08T21:00:00	5	Humedad	72
172893	7	Sololá	716	San Marcos la Laguna 	11	San Marcos la laguna 	1	Enero	2023-01-24T00:00:00	2024-11-08T21:00:00	6	Velocidad del viento	6.4
172894	7	Sololá	716	San Marcos la Laguna 	11	San Marcos la laguna 	1	Enero	2023-01-24T00:00:00	2024-11-08T21:00:00	7	Dirección del viento	6.44
172895	7	Sololá	716	San Marcos la Laguna 	11	San Marcos la laguna 	1	Enero	2023-01-24T00:00:00	2024-11-08T21:00:00	1	Precipitación	0
172896	7	Sololá	716	San Marcos la Laguna 	11	San Marcos la laguna 	1	Enero	2023-01-24T00:00:00	2024-11-08T21:00:00	8	Radiación solar	0
172897	7	Sololá	716	San Marcos la Laguna 	11	San Marcos la laguna 	1	Enero	2023-01-24T00:00:00	2024-11-08T22:00:00	2	Temperatura media	16
172898	7	Sololá	716	San Marcos la Laguna 	11	San Marcos la laguna 	1	Enero	2023-01-24T00:00:00	2024-11-08T22:00:00	4	Temperatura máxima	16.7
172899	7	Sololá	716	San Marcos la Laguna 	11	San Marcos la laguna 	1	Enero	2023-01-24T00:00:00	2024-11-08T22:00:00	3	Temperatura mínima	15.7
172900	7	Sololá	716	San Marcos la Laguna 	11	San Marcos la laguna 	1	Enero	2023-01-24T00:00:00	2024-11-08T22:00:00	5	Humedad	73
172901	7	Sololá	716	San Marcos la Laguna 	11	San Marcos la laguna 	1	Enero	2023-01-24T00:00:00	2024-11-08T22:00:00	6	Velocidad del viento	6.4
172902	7	Sololá	716	San Marcos la Laguna 	11	San Marcos la laguna 	1	Enero	2023-01-24T00:00:00	2024-11-08T22:00:00	7	Dirección del viento	6.44
172903	7	Sololá	716	San Marcos la Laguna 	11	San Marcos la laguna 	1	Enero	2023-01-24T00:00:00	2024-11-08T22:00:00	1	Precipitación	0
172904	7	Sololá	716	San Marcos la Laguna 	11	San Marcos la laguna 	1	Enero	2023-01-24T00:00:00	2024-11-08T22:00:00	8	Radiación solar	0
172905	7	Sololá	716	San Marcos la Laguna 	11	San Marcos la laguna 	1	Enero	2023-01-24T00:00:00	2024-11-08T23:00:00	2	Temperatura media	15.1
172906	7	Sololá	716	San Marcos la Laguna 	11	San Marcos la laguna 	1	Enero	2023-01-24T00:00:00	2024-11-08T23:00:00	4	Temperatura máxima	16.1
172907	7	Sololá	716	San Marcos la Laguna 	11	San Marcos la laguna 	1	Enero	2023-01-24T00:00:00	2024-11-08T23:00:00	3	Temperatura mínima	15.1
172908	7	Sololá	716	San Marcos la Laguna 	11	San Marcos la laguna 	1	Enero	2023-01-24T00:00:00	2024-11-08T23:00:00	5	Humedad	76
172909	7	Sololá	716	San Marcos la Laguna 	11	San Marcos la laguna 	1	Enero	2023-01-24T00:00:00	2024-11-08T23:00:00	6	Velocidad del viento	6.4
172910	7	Sololá	716	San Marcos la Laguna 	11	San Marcos la laguna 	1	Enero	2023-01-24T00:00:00	2024-11-08T23:00:00	7	Dirección del viento	6.44
172911	7	Sololá	716	San Marcos la Laguna 	11	San Marcos la laguna 	1	Enero	2023-01-24T00:00:00	2024-11-08T23:00:00	1	Precipitación	0
172912	7	Sololá	716	San Marcos la Laguna 	11	San Marcos la laguna 	1	Enero	2023-01-24T00:00:00	2024-11-08T23:00:00	8	Radiación solar	0
172913	7	Sololá	716	San Marcos la Laguna 	11	San Marcos la laguna 	1	Enero	2023-01-25T00:00:00	2024-11-08T00:00:00	2	Temperatura media	14.4
172914	7	Sololá	716	San Marcos la Laguna 	11	San Marcos la laguna 	1	Enero	2023-01-25T00:00:00	2024-11-08T00:00:00	4	Temperatura máxima	15.2
172915	7	Sololá	716	San Marcos la Laguna 	11	San Marcos la laguna 	1	Enero	2023-01-25T00:00:00	2024-11-08T00:00:00	3	Temperatura mínima	14.4
172916	7	Sololá	716	San Marcos la Laguna 	11	San Marcos la laguna 	1	Enero	2023-01-25T00:00:00	2024-11-08T00:00:00	5	Humedad	81
172917	7	Sololá	716	San Marcos la Laguna 	11	San Marcos la laguna 	1	Enero	2023-01-25T00:00:00	2024-11-08T00:00:00	6	Velocidad del viento	6.4
172918	7	Sololá	716	San Marcos la Laguna 	11	San Marcos la laguna 	1	Enero	2023-01-25T00:00:00	2024-11-08T00:00:00	7	Dirección del viento	6.44
172919	7	Sololá	716	San Marcos la Laguna 	11	San Marcos la laguna 	1	Enero	2023-01-25T00:00:00	2024-11-08T00:00:00	1	Precipitación	0
172920	7	Sololá	716	San Marcos la Laguna 	11	San Marcos la laguna 	1	Enero	2023-01-25T00:00:00	2024-11-08T00:00:00	8	Radiación solar	0
172921	7	Sololá	716	San Marcos la Laguna 	11	San Marcos la laguna 	1	Enero	2023-01-25T00:00:00	2024-11-08T01:00:00	2	Temperatura media	13.8
172922	7	Sololá	716	San Marcos la Laguna 	11	San Marcos la laguna 	1	Enero	2023-01-25T00:00:00	2024-11-08T01:00:00	4	Temperatura máxima	14.4
172923	7	Sololá	716	San Marcos la Laguna 	11	San Marcos la laguna 	1	Enero	2023-01-25T00:00:00	2024-11-08T01:00:00	3	Temperatura mínima	13.7
172924	7	Sololá	716	San Marcos la Laguna 	11	San Marcos la laguna 	1	Enero	2023-01-25T00:00:00	2024-11-08T01:00:00	5	Humedad	84
172925	7	Sololá	716	San Marcos la Laguna 	11	San Marcos la laguna 	1	Enero	2023-01-25T00:00:00	2024-11-08T01:00:00	6	Velocidad del viento	6.4
172926	7	Sololá	716	San Marcos la Laguna 	11	San Marcos la laguna 	1	Enero	2023-01-25T00:00:00	2024-11-08T01:00:00	7	Dirección del viento	6.44
172927	7	Sololá	716	San Marcos la Laguna 	11	San Marcos la laguna 	1	Enero	2023-01-25T00:00:00	2024-11-08T01:00:00	1	Precipitación	0
172928	7	Sololá	716	San Marcos la Laguna 	11	San Marcos la laguna 	1	Enero	2023-01-25T00:00:00	2024-11-08T01:00:00	8	Radiación solar	0
172929	7	Sololá	716	San Marcos la Laguna 	11	San Marcos la laguna 	1	Enero	2023-01-25T00:00:00	2024-11-08T02:00:00	2	Temperatura media	13.7
172930	7	Sololá	716	San Marcos la Laguna 	11	San Marcos la laguna 	1	Enero	2023-01-25T00:00:00	2024-11-08T02:00:00	4	Temperatura máxima	14.1
172931	7	Sololá	716	San Marcos la Laguna 	11	San Marcos la laguna 	1	Enero	2023-01-25T00:00:00	2024-11-08T02:00:00	3	Temperatura mínima	13.6
172932	7	Sololá	716	San Marcos la Laguna 	11	San Marcos la laguna 	1	Enero	2023-01-25T00:00:00	2024-11-08T02:00:00	5	Humedad	80
172933	7	Sololá	716	San Marcos la Laguna 	11	San Marcos la laguna 	1	Enero	2023-01-25T00:00:00	2024-11-08T02:00:00	6	Velocidad del viento	6.4
172934	7	Sololá	716	San Marcos la Laguna 	11	San Marcos la laguna 	1	Enero	2023-01-25T00:00:00	2024-11-08T02:00:00	7	Dirección del viento	6.44
172935	7	Sololá	716	San Marcos la Laguna 	11	San Marcos la laguna 	1	Enero	2023-01-25T00:00:00	2024-11-08T02:00:00	1	Precipitación	0
172936	7	Sololá	716	San Marcos la Laguna 	11	San Marcos la laguna 	1	Enero	2023-01-25T00:00:00	2024-11-08T02:00:00	8	Radiación solar	0
172937	7	Sololá	716	San Marcos la Laguna 	11	San Marcos la laguna 	1	Enero	2023-01-25T00:00:00	2024-11-08T03:00:00	2	Temperatura media	13.3
172938	7	Sololá	716	San Marcos la Laguna 	11	San Marcos la laguna 	1	Enero	2023-01-25T00:00:00	2024-11-08T03:00:00	4	Temperatura máxima	13.7
172939	7	Sololá	716	San Marcos la Laguna 	11	San Marcos la laguna 	1	Enero	2023-01-25T00:00:00	2024-11-08T03:00:00	3	Temperatura mínima	13.2
172940	7	Sololá	716	San Marcos la Laguna 	11	San Marcos la laguna 	1	Enero	2023-01-25T00:00:00	2024-11-08T03:00:00	5	Humedad	80
172941	7	Sololá	716	San Marcos la Laguna 	11	San Marcos la laguna 	1	Enero	2023-01-25T00:00:00	2024-11-08T03:00:00	6	Velocidad del viento	4.8
172942	7	Sololá	716	San Marcos la Laguna 	11	San Marcos la laguna 	1	Enero	2023-01-25T00:00:00	2024-11-08T03:00:00	7	Dirección del viento	4.83
172943	7	Sololá	716	San Marcos la Laguna 	11	San Marcos la laguna 	1	Enero	2023-01-25T00:00:00	2024-11-08T03:00:00	1	Precipitación	0
172944	7	Sololá	716	San Marcos la Laguna 	11	San Marcos la laguna 	1	Enero	2023-01-25T00:00:00	2024-11-08T03:00:00	8	Radiación solar	0
172945	7	Sololá	716	San Marcos la Laguna 	11	San Marcos la laguna 	1	Enero	2023-01-25T00:00:00	2024-11-08T04:00:00	2	Temperatura media	13.1
172946	7	Sololá	716	San Marcos la Laguna 	11	San Marcos la laguna 	1	Enero	2023-01-25T00:00:00	2024-11-08T04:00:00	4	Temperatura máxima	13.3
172947	7	Sololá	716	San Marcos la Laguna 	11	San Marcos la laguna 	1	Enero	2023-01-25T00:00:00	2024-11-08T04:00:00	3	Temperatura mínima	12.8
172948	7	Sololá	716	San Marcos la Laguna 	11	San Marcos la laguna 	1	Enero	2023-01-25T00:00:00	2024-11-08T04:00:00	5	Humedad	81
172949	7	Sololá	716	San Marcos la Laguna 	11	San Marcos la laguna 	1	Enero	2023-01-25T00:00:00	2024-11-08T04:00:00	6	Velocidad del viento	4.8
172950	7	Sololá	716	San Marcos la Laguna 	11	San Marcos la laguna 	1	Enero	2023-01-25T00:00:00	2024-11-08T04:00:00	7	Dirección del viento	4.83
172951	7	Sololá	716	San Marcos la Laguna 	11	San Marcos la laguna 	1	Enero	2023-01-25T00:00:00	2024-11-08T04:00:00	1	Precipitación	0
172952	7	Sololá	716	San Marcos la Laguna 	11	San Marcos la laguna 	1	Enero	2023-01-25T00:00:00	2024-11-08T04:00:00	8	Radiación solar	0
172953	7	Sololá	716	San Marcos la Laguna 	11	San Marcos la laguna 	1	Enero	2023-01-25T00:00:00	2024-11-08T05:00:00	2	Temperatura media	12.6
172954	7	Sololá	716	San Marcos la Laguna 	11	San Marcos la laguna 	1	Enero	2023-01-25T00:00:00	2024-11-08T05:00:00	4	Temperatura máxima	13.2
172955	7	Sololá	716	San Marcos la Laguna 	11	San Marcos la laguna 	1	Enero	2023-01-25T00:00:00	2024-11-08T05:00:00	3	Temperatura mínima	12.6
172956	7	Sololá	716	San Marcos la Laguna 	11	San Marcos la laguna 	1	Enero	2023-01-25T00:00:00	2024-11-08T05:00:00	5	Humedad	85
172957	7	Sololá	716	San Marcos la Laguna 	11	San Marcos la laguna 	1	Enero	2023-01-25T00:00:00	2024-11-08T05:00:00	6	Velocidad del viento	4.8
172958	7	Sololá	716	San Marcos la Laguna 	11	San Marcos la laguna 	1	Enero	2023-01-25T00:00:00	2024-11-08T05:00:00	7	Dirección del viento	4.83
172959	7	Sololá	716	San Marcos la Laguna 	11	San Marcos la laguna 	1	Enero	2023-01-25T00:00:00	2024-11-08T05:00:00	1	Precipitación	0
172960	7	Sololá	716	San Marcos la Laguna 	11	San Marcos la laguna 	1	Enero	2023-01-25T00:00:00	2024-11-08T05:00:00	8	Radiación solar	0
172961	7	Sololá	716	San Marcos la Laguna 	11	San Marcos la laguna 	1	Enero	2023-01-25T00:00:00	2024-11-08T06:00:00	2	Temperatura media	12.4
172962	7	Sololá	716	San Marcos la Laguna 	11	San Marcos la laguna 	1	Enero	2023-01-25T00:00:00	2024-11-08T06:00:00	4	Temperatura máxima	12.6
172963	7	Sololá	716	San Marcos la Laguna 	11	San Marcos la laguna 	1	Enero	2023-01-25T00:00:00	2024-11-08T06:00:00	3	Temperatura mínima	12.4
172964	7	Sololá	716	San Marcos la Laguna 	11	San Marcos la laguna 	1	Enero	2023-01-25T00:00:00	2024-11-08T06:00:00	5	Humedad	88
172965	7	Sololá	716	San Marcos la Laguna 	11	San Marcos la laguna 	1	Enero	2023-01-25T00:00:00	2024-11-08T06:00:00	6	Velocidad del viento	6.4
172966	7	Sololá	716	San Marcos la Laguna 	11	San Marcos la laguna 	1	Enero	2023-01-25T00:00:00	2024-11-08T06:00:00	7	Dirección del viento	6.44
172967	7	Sololá	716	San Marcos la Laguna 	11	San Marcos la laguna 	1	Enero	2023-01-25T00:00:00	2024-11-08T06:00:00	1	Precipitación	0
172968	7	Sololá	716	San Marcos la Laguna 	11	San Marcos la laguna 	1	Enero	2023-01-25T00:00:00	2024-11-08T06:00:00	8	Radiación solar	0
172969	7	Sololá	716	San Marcos la Laguna 	11	San Marcos la laguna 	1	Enero	2023-01-25T00:00:00	2024-11-08T07:00:00	2	Temperatura media	12.6
172970	7	Sololá	716	San Marcos la Laguna 	11	San Marcos la laguna 	1	Enero	2023-01-25T00:00:00	2024-11-08T07:00:00	4	Temperatura máxima	12.7
172971	7	Sololá	716	San Marcos la Laguna 	11	San Marcos la laguna 	1	Enero	2023-01-25T00:00:00	2024-11-08T07:00:00	3	Temperatura mínima	12.3
172972	7	Sololá	716	San Marcos la Laguna 	11	San Marcos la laguna 	1	Enero	2023-01-25T00:00:00	2024-11-08T07:00:00	5	Humedad	86
172973	7	Sololá	716	San Marcos la Laguna 	11	San Marcos la laguna 	1	Enero	2023-01-25T00:00:00	2024-11-08T07:00:00	6	Velocidad del viento	6.4
172974	7	Sololá	716	San Marcos la Laguna 	11	San Marcos la laguna 	1	Enero	2023-01-25T00:00:00	2024-11-08T07:00:00	7	Dirección del viento	6.44
172975	7	Sololá	716	San Marcos la Laguna 	11	San Marcos la laguna 	1	Enero	2023-01-25T00:00:00	2024-11-08T07:00:00	1	Precipitación	0
172976	7	Sololá	716	San Marcos la Laguna 	11	San Marcos la laguna 	1	Enero	2023-01-25T00:00:00	2024-11-08T07:00:00	8	Radiación solar	4
172977	7	Sololá	716	San Marcos la Laguna 	11	San Marcos la laguna 	1	Enero	2023-01-25T00:00:00	2024-11-08T08:00:00	2	Temperatura media	16.2
172978	7	Sololá	716	San Marcos la Laguna 	11	San Marcos la laguna 	1	Enero	2023-01-25T00:00:00	2024-11-08T08:00:00	4	Temperatura máxima	16.2
172979	7	Sololá	716	San Marcos la Laguna 	11	San Marcos la laguna 	1	Enero	2023-01-25T00:00:00	2024-11-08T08:00:00	3	Temperatura mínima	12.6
172980	7	Sololá	716	San Marcos la Laguna 	11	San Marcos la laguna 	1	Enero	2023-01-25T00:00:00	2024-11-08T08:00:00	5	Humedad	82
172981	7	Sololá	716	San Marcos la Laguna 	11	San Marcos la laguna 	1	Enero	2023-01-25T00:00:00	2024-11-08T08:00:00	6	Velocidad del viento	3.2
172982	7	Sololá	716	San Marcos la Laguna 	11	San Marcos la laguna 	1	Enero	2023-01-25T00:00:00	2024-11-08T08:00:00	7	Dirección del viento	3.22
172983	7	Sololá	716	San Marcos la Laguna 	11	San Marcos la laguna 	1	Enero	2023-01-25T00:00:00	2024-11-08T08:00:00	1	Precipitación	0
172984	7	Sololá	716	San Marcos la Laguna 	11	San Marcos la laguna 	1	Enero	2023-01-25T00:00:00	2024-11-08T08:00:00	8	Radiación solar	120
172985	7	Sololá	716	San Marcos la Laguna 	11	San Marcos la laguna 	1	Enero	2023-01-25T00:00:00	2024-11-08T09:00:00	2	Temperatura media	18.3
172986	7	Sololá	716	San Marcos la Laguna 	11	San Marcos la laguna 	1	Enero	2023-01-25T00:00:00	2024-11-08T09:00:00	4	Temperatura máxima	18.3
172987	7	Sololá	716	San Marcos la Laguna 	11	San Marcos la laguna 	1	Enero	2023-01-25T00:00:00	2024-11-08T09:00:00	3	Temperatura mínima	16.2
172988	7	Sololá	716	San Marcos la Laguna 	11	San Marcos la laguna 	1	Enero	2023-01-25T00:00:00	2024-11-08T09:00:00	5	Humedad	75
172989	7	Sololá	716	San Marcos la Laguna 	11	San Marcos la laguna 	1	Enero	2023-01-25T00:00:00	2024-11-08T09:00:00	6	Velocidad del viento	3.2
172990	7	Sololá	716	San Marcos la Laguna 	11	San Marcos la laguna 	1	Enero	2023-01-25T00:00:00	2024-11-08T09:00:00	7	Dirección del viento	3.22
172991	7	Sololá	716	San Marcos la Laguna 	11	San Marcos la laguna 	1	Enero	2023-01-25T00:00:00	2024-11-08T09:00:00	1	Precipitación	0
172992	7	Sololá	716	San Marcos la Laguna 	11	San Marcos la laguna 	1	Enero	2023-01-25T00:00:00	2024-11-08T09:00:00	8	Radiación solar	336
172993	7	Sololá	716	San Marcos la Laguna 	11	San Marcos la laguna 	1	Enero	2023-01-25T00:00:00	2024-11-08T10:00:00	2	Temperatura media	19.5
172994	7	Sololá	716	San Marcos la Laguna 	11	San Marcos la laguna 	1	Enero	2023-01-25T00:00:00	2024-11-08T10:00:00	4	Temperatura máxima	19.5
172995	7	Sololá	716	San Marcos la Laguna 	11	San Marcos la laguna 	1	Enero	2023-01-25T00:00:00	2024-11-08T10:00:00	3	Temperatura mínima	18.2
172996	7	Sololá	716	San Marcos la Laguna 	11	San Marcos la laguna 	1	Enero	2023-01-25T00:00:00	2024-11-08T10:00:00	5	Humedad	69
172997	7	Sololá	716	San Marcos la Laguna 	11	San Marcos la laguna 	1	Enero	2023-01-25T00:00:00	2024-11-08T10:00:00	6	Velocidad del viento	3.2
172998	7	Sololá	716	San Marcos la Laguna 	11	San Marcos la laguna 	1	Enero	2023-01-25T00:00:00	2024-11-08T10:00:00	7	Dirección del viento	3.22
172999	7	Sololá	716	San Marcos la Laguna 	11	San Marcos la laguna 	1	Enero	2023-01-25T00:00:00	2024-11-08T10:00:00	1	Precipitación	0
173000	7	Sololá	716	San Marcos la Laguna 	11	San Marcos la laguna 	1	Enero	2023-01-25T00:00:00	2024-11-08T10:00:00	8	Radiación solar	529
173001	7	Sololá	716	San Marcos la Laguna 	11	San Marcos la laguna 	1	Enero	2023-01-25T00:00:00	2024-11-08T11:00:00	2	Temperatura media	20.3
173002	7	Sololá	716	San Marcos la Laguna 	11	San Marcos la laguna 	1	Enero	2023-01-25T00:00:00	2024-11-08T11:00:00	4	Temperatura máxima	20.3
173003	7	Sololá	716	San Marcos la Laguna 	11	San Marcos la laguna 	1	Enero	2023-01-25T00:00:00	2024-11-08T11:00:00	3	Temperatura mínima	19.5
173004	7	Sololá	716	San Marcos la Laguna 	11	San Marcos la laguna 	1	Enero	2023-01-25T00:00:00	2024-11-08T11:00:00	5	Humedad	69
173005	7	Sololá	716	San Marcos la Laguna 	11	San Marcos la laguna 	1	Enero	2023-01-25T00:00:00	2024-11-08T11:00:00	6	Velocidad del viento	4.8
173006	7	Sololá	716	San Marcos la Laguna 	11	San Marcos la laguna 	1	Enero	2023-01-25T00:00:00	2024-11-08T11:00:00	7	Dirección del viento	4.83
173007	7	Sololá	716	San Marcos la Laguna 	11	San Marcos la laguna 	1	Enero	2023-01-25T00:00:00	2024-11-08T11:00:00	1	Precipitación	0
173008	7	Sololá	716	San Marcos la Laguna 	11	San Marcos la laguna 	1	Enero	2023-01-25T00:00:00	2024-11-08T11:00:00	8	Radiación solar	595
173009	7	Sololá	716	San Marcos la Laguna 	11	San Marcos la laguna 	1	Enero	2023-01-25T00:00:00	2024-11-08T12:00:00	2	Temperatura media	21.6
173010	7	Sololá	716	San Marcos la Laguna 	11	San Marcos la laguna 	1	Enero	2023-01-25T00:00:00	2024-11-08T12:00:00	4	Temperatura máxima	22.1
173011	7	Sololá	716	San Marcos la Laguna 	11	San Marcos la laguna 	1	Enero	2023-01-25T00:00:00	2024-11-08T12:00:00	3	Temperatura mínima	20.3
173012	7	Sololá	716	San Marcos la Laguna 	11	San Marcos la laguna 	1	Enero	2023-01-25T00:00:00	2024-11-08T12:00:00	5	Humedad	58
173013	7	Sololá	716	San Marcos la Laguna 	11	San Marcos la laguna 	1	Enero	2023-01-25T00:00:00	2024-11-08T12:00:00	6	Velocidad del viento	6.4
173014	7	Sololá	716	San Marcos la Laguna 	11	San Marcos la laguna 	1	Enero	2023-01-25T00:00:00	2024-11-08T12:00:00	7	Dirección del viento	6.44
173015	7	Sololá	716	San Marcos la Laguna 	11	San Marcos la laguna 	1	Enero	2023-01-25T00:00:00	2024-11-08T12:00:00	1	Precipitación	0
173016	7	Sololá	716	San Marcos la Laguna 	11	San Marcos la laguna 	1	Enero	2023-01-25T00:00:00	2024-11-08T12:00:00	8	Radiación solar	719
173017	7	Sololá	716	San Marcos la Laguna 	11	San Marcos la laguna 	1	Enero	2023-01-25T00:00:00	2024-11-08T13:00:00	2	Temperatura media	22
173018	7	Sololá	716	San Marcos la Laguna 	11	San Marcos la laguna 	1	Enero	2023-01-25T00:00:00	2024-11-08T13:00:00	4	Temperatura máxima	22
173019	7	Sololá	716	San Marcos la Laguna 	11	San Marcos la laguna 	1	Enero	2023-01-25T00:00:00	2024-11-08T13:00:00	3	Temperatura mínima	21.5
173020	7	Sololá	716	San Marcos la Laguna 	11	San Marcos la laguna 	1	Enero	2023-01-25T00:00:00	2024-11-08T13:00:00	5	Humedad	67
173021	7	Sololá	716	San Marcos la Laguna 	11	San Marcos la laguna 	1	Enero	2023-01-25T00:00:00	2024-11-08T13:00:00	6	Velocidad del viento	11.3
173022	7	Sololá	716	San Marcos la Laguna 	11	San Marcos la laguna 	1	Enero	2023-01-25T00:00:00	2024-11-08T13:00:00	7	Dirección del viento	11.27
173023	7	Sololá	716	San Marcos la Laguna 	11	San Marcos la laguna 	1	Enero	2023-01-25T00:00:00	2024-11-08T13:00:00	1	Precipitación	0
173024	7	Sololá	716	San Marcos la Laguna 	11	San Marcos la laguna 	1	Enero	2023-01-25T00:00:00	2024-11-08T13:00:00	8	Radiación solar	779
173025	7	Sololá	716	San Marcos la Laguna 	11	San Marcos la laguna 	1	Enero	2023-01-25T00:00:00	2024-11-08T14:00:00	2	Temperatura media	22.1
173026	7	Sololá	716	San Marcos la Laguna 	11	San Marcos la laguna 	1	Enero	2023-01-25T00:00:00	2024-11-08T14:00:00	4	Temperatura máxima	22.4
173027	7	Sololá	716	San Marcos la Laguna 	11	San Marcos la laguna 	1	Enero	2023-01-25T00:00:00	2024-11-08T14:00:00	3	Temperatura mínima	21.9
173028	7	Sololá	716	San Marcos la Laguna 	11	San Marcos la laguna 	1	Enero	2023-01-25T00:00:00	2024-11-08T14:00:00	5	Humedad	68
173029	7	Sololá	716	San Marcos la Laguna 	11	San Marcos la laguna 	1	Enero	2023-01-25T00:00:00	2024-11-08T14:00:00	6	Velocidad del viento	12.9
173030	7	Sololá	716	San Marcos la Laguna 	11	San Marcos la laguna 	1	Enero	2023-01-25T00:00:00	2024-11-08T14:00:00	7	Dirección del viento	12.87
173031	7	Sololá	716	San Marcos la Laguna 	11	San Marcos la laguna 	1	Enero	2023-01-25T00:00:00	2024-11-08T14:00:00	1	Precipitación	0
173032	7	Sololá	716	San Marcos la Laguna 	11	San Marcos la laguna 	1	Enero	2023-01-25T00:00:00	2024-11-08T14:00:00	8	Radiación solar	723
173033	7	Sololá	716	San Marcos la Laguna 	11	San Marcos la laguna 	1	Enero	2023-01-25T00:00:00	2024-11-08T15:00:00	2	Temperatura media	22.5
173034	7	Sololá	716	San Marcos la Laguna 	11	San Marcos la laguna 	1	Enero	2023-01-25T00:00:00	2024-11-08T15:00:00	4	Temperatura máxima	22.5
173035	7	Sololá	716	San Marcos la Laguna 	11	San Marcos la laguna 	1	Enero	2023-01-25T00:00:00	2024-11-08T15:00:00	3	Temperatura mínima	21.9
173036	7	Sololá	716	San Marcos la Laguna 	11	San Marcos la laguna 	1	Enero	2023-01-25T00:00:00	2024-11-08T15:00:00	5	Humedad	70
173037	7	Sololá	716	San Marcos la Laguna 	11	San Marcos la laguna 	1	Enero	2023-01-25T00:00:00	2024-11-08T15:00:00	6	Velocidad del viento	11.3
173038	7	Sololá	716	San Marcos la Laguna 	11	San Marcos la laguna 	1	Enero	2023-01-25T00:00:00	2024-11-08T15:00:00	7	Dirección del viento	11.27
173039	7	Sololá	716	San Marcos la Laguna 	11	San Marcos la laguna 	1	Enero	2023-01-25T00:00:00	2024-11-08T15:00:00	1	Precipitación	0
173040	7	Sololá	716	San Marcos la Laguna 	11	San Marcos la laguna 	1	Enero	2023-01-25T00:00:00	2024-11-08T15:00:00	8	Radiación solar	611
173041	7	Sololá	716	San Marcos la Laguna 	11	San Marcos la laguna 	1	Enero	2023-01-25T00:00:00	2024-11-08T16:00:00	2	Temperatura media	21.6
173042	7	Sololá	716	San Marcos la Laguna 	11	San Marcos la laguna 	1	Enero	2023-01-25T00:00:00	2024-11-08T16:00:00	4	Temperatura máxima	22.6
173043	7	Sololá	716	San Marcos la Laguna 	11	San Marcos la laguna 	1	Enero	2023-01-25T00:00:00	2024-11-08T16:00:00	3	Temperatura mínima	21.3
173044	7	Sololá	716	San Marcos la Laguna 	11	San Marcos la laguna 	1	Enero	2023-01-25T00:00:00	2024-11-08T16:00:00	5	Humedad	74
173045	7	Sololá	716	San Marcos la Laguna 	11	San Marcos la laguna 	1	Enero	2023-01-25T00:00:00	2024-11-08T16:00:00	6	Velocidad del viento	9.7
173046	7	Sololá	716	San Marcos la Laguna 	11	San Marcos la laguna 	1	Enero	2023-01-25T00:00:00	2024-11-08T16:00:00	7	Dirección del viento	9.66
173047	7	Sololá	716	San Marcos la Laguna 	11	San Marcos la laguna 	1	Enero	2023-01-25T00:00:00	2024-11-08T16:00:00	1	Precipitación	0
173048	7	Sololá	716	San Marcos la Laguna 	11	San Marcos la laguna 	1	Enero	2023-01-25T00:00:00	2024-11-08T16:00:00	8	Radiación solar	282
173049	7	Sololá	716	San Marcos la Laguna 	11	San Marcos la laguna 	1	Enero	2023-01-25T00:00:00	2024-11-08T17:00:00	2	Temperatura media	21.8
173050	7	Sololá	716	San Marcos la Laguna 	11	San Marcos la laguna 	1	Enero	2023-01-25T00:00:00	2024-11-08T17:00:00	4	Temperatura máxima	22.4
173051	7	Sololá	716	San Marcos la Laguna 	11	San Marcos la laguna 	1	Enero	2023-01-25T00:00:00	2024-11-08T17:00:00	3	Temperatura mínima	21.6
173052	7	Sololá	716	San Marcos la Laguna 	11	San Marcos la laguna 	1	Enero	2023-01-25T00:00:00	2024-11-08T17:00:00	5	Humedad	74
173053	7	Sololá	716	San Marcos la Laguna 	11	San Marcos la laguna 	1	Enero	2023-01-25T00:00:00	2024-11-08T17:00:00	6	Velocidad del viento	6.4
173054	7	Sololá	716	San Marcos la Laguna 	11	San Marcos la laguna 	1	Enero	2023-01-25T00:00:00	2024-11-08T17:00:00	7	Dirección del viento	6.44
173055	7	Sololá	716	San Marcos la Laguna 	11	San Marcos la laguna 	1	Enero	2023-01-25T00:00:00	2024-11-08T17:00:00	1	Precipitación	0
173056	7	Sololá	716	San Marcos la Laguna 	11	San Marcos la laguna 	1	Enero	2023-01-25T00:00:00	2024-11-08T17:00:00	8	Radiación solar	228
173057	7	Sololá	716	San Marcos la Laguna 	11	San Marcos la laguna 	1	Enero	2023-01-25T00:00:00	2024-11-08T18:00:00	2	Temperatura media	20.3
173058	7	Sololá	716	San Marcos la Laguna 	11	San Marcos la laguna 	1	Enero	2023-01-25T00:00:00	2024-11-08T18:00:00	4	Temperatura máxima	21.8
173059	7	Sololá	716	San Marcos la Laguna 	11	San Marcos la laguna 	1	Enero	2023-01-25T00:00:00	2024-11-08T18:00:00	3	Temperatura mínima	20.3
173060	7	Sololá	716	San Marcos la Laguna 	11	San Marcos la laguna 	1	Enero	2023-01-25T00:00:00	2024-11-08T18:00:00	5	Humedad	78
173061	7	Sololá	716	San Marcos la Laguna 	11	San Marcos la laguna 	1	Enero	2023-01-25T00:00:00	2024-11-08T18:00:00	6	Velocidad del viento	4.8
173062	7	Sololá	716	San Marcos la Laguna 	11	San Marcos la laguna 	1	Enero	2023-01-25T00:00:00	2024-11-08T18:00:00	7	Dirección del viento	4.83
173063	7	Sololá	716	San Marcos la Laguna 	11	San Marcos la laguna 	1	Enero	2023-01-25T00:00:00	2024-11-08T18:00:00	1	Precipitación	0
173064	7	Sololá	716	San Marcos la Laguna 	11	San Marcos la laguna 	1	Enero	2023-01-25T00:00:00	2024-11-08T18:00:00	8	Radiación solar	48
173065	7	Sololá	716	San Marcos la Laguna 	11	San Marcos la laguna 	1	Enero	2023-01-25T00:00:00	2024-11-08T19:00:00	2	Temperatura media	18.9
173066	7	Sololá	716	San Marcos la Laguna 	11	San Marcos la laguna 	1	Enero	2023-01-25T00:00:00	2024-11-08T19:00:00	4	Temperatura máxima	20.3
173067	7	Sololá	716	San Marcos la Laguna 	11	San Marcos la laguna 	1	Enero	2023-01-25T00:00:00	2024-11-08T19:00:00	3	Temperatura mínima	18.9
173068	7	Sololá	716	San Marcos la Laguna 	11	San Marcos la laguna 	1	Enero	2023-01-25T00:00:00	2024-11-08T19:00:00	5	Humedad	85
173069	7	Sololá	716	San Marcos la Laguna 	11	San Marcos la laguna 	1	Enero	2023-01-25T00:00:00	2024-11-08T19:00:00	6	Velocidad del viento	3.2
173070	7	Sololá	716	San Marcos la Laguna 	11	San Marcos la laguna 	1	Enero	2023-01-25T00:00:00	2024-11-08T19:00:00	7	Dirección del viento	3.22
173071	7	Sololá	716	San Marcos la Laguna 	11	San Marcos la laguna 	1	Enero	2023-01-25T00:00:00	2024-11-08T19:00:00	1	Precipitación	0
173072	7	Sololá	716	San Marcos la Laguna 	11	San Marcos la laguna 	1	Enero	2023-01-25T00:00:00	2024-11-08T19:00:00	8	Radiación solar	0
173073	7	Sololá	716	San Marcos la Laguna 	11	San Marcos la laguna 	1	Enero	2023-01-25T00:00:00	2024-11-08T20:00:00	2	Temperatura media	17.1
173074	7	Sololá	716	San Marcos la Laguna 	11	San Marcos la laguna 	1	Enero	2023-01-25T00:00:00	2024-11-08T20:00:00	4	Temperatura máxima	18.9
173075	7	Sololá	716	San Marcos la Laguna 	11	San Marcos la laguna 	1	Enero	2023-01-25T00:00:00	2024-11-08T20:00:00	3	Temperatura mínima	17.1
173076	7	Sololá	716	San Marcos la Laguna 	11	San Marcos la laguna 	1	Enero	2023-01-25T00:00:00	2024-11-08T20:00:00	5	Humedad	80
173077	7	Sololá	716	San Marcos la Laguna 	11	San Marcos la laguna 	1	Enero	2023-01-25T00:00:00	2024-11-08T20:00:00	6	Velocidad del viento	3.2
173078	7	Sololá	716	San Marcos la Laguna 	11	San Marcos la laguna 	1	Enero	2023-01-25T00:00:00	2024-11-08T20:00:00	7	Dirección del viento	3.22
173079	7	Sololá	716	San Marcos la Laguna 	11	San Marcos la laguna 	1	Enero	2023-01-25T00:00:00	2024-11-08T20:00:00	1	Precipitación	0
173080	7	Sololá	716	San Marcos la Laguna 	11	San Marcos la laguna 	1	Enero	2023-01-25T00:00:00	2024-11-08T20:00:00	8	Radiación solar	0
173081	7	Sololá	716	San Marcos la Laguna 	11	San Marcos la laguna 	1	Enero	2023-01-25T00:00:00	2024-11-08T21:00:00	2	Temperatura media	16.4
173082	7	Sololá	716	San Marcos la Laguna 	11	San Marcos la laguna 	1	Enero	2023-01-25T00:00:00	2024-11-08T21:00:00	4	Temperatura máxima	17.1
173083	7	Sololá	716	San Marcos la Laguna 	11	San Marcos la laguna 	1	Enero	2023-01-25T00:00:00	2024-11-08T21:00:00	3	Temperatura mínima	16.2
173084	7	Sololá	716	San Marcos la Laguna 	11	San Marcos la laguna 	1	Enero	2023-01-25T00:00:00	2024-11-08T21:00:00	5	Humedad	77
173085	7	Sololá	716	San Marcos la Laguna 	11	San Marcos la laguna 	1	Enero	2023-01-25T00:00:00	2024-11-08T21:00:00	6	Velocidad del viento	8
173086	7	Sololá	716	San Marcos la Laguna 	11	San Marcos la laguna 	1	Enero	2023-01-25T00:00:00	2024-11-08T21:00:00	7	Dirección del viento	8.05
173087	7	Sololá	716	San Marcos la Laguna 	11	San Marcos la laguna 	1	Enero	2023-01-25T00:00:00	2024-11-08T21:00:00	1	Precipitación	0
173088	7	Sololá	716	San Marcos la Laguna 	11	San Marcos la laguna 	1	Enero	2023-01-25T00:00:00	2024-11-08T21:00:00	8	Radiación solar	0
173089	7	Sololá	716	San Marcos la Laguna 	11	San Marcos la laguna 	1	Enero	2023-01-25T00:00:00	2024-11-08T22:00:00	2	Temperatura media	15.8
173090	7	Sololá	716	San Marcos la Laguna 	11	San Marcos la laguna 	1	Enero	2023-01-25T00:00:00	2024-11-08T22:00:00	4	Temperatura máxima	16.5
173091	7	Sololá	716	San Marcos la Laguna 	11	San Marcos la laguna 	1	Enero	2023-01-25T00:00:00	2024-11-08T22:00:00	3	Temperatura mínima	15.7
173092	7	Sololá	716	San Marcos la Laguna 	11	San Marcos la laguna 	1	Enero	2023-01-25T00:00:00	2024-11-08T22:00:00	5	Humedad	71
173093	7	Sololá	716	San Marcos la Laguna 	11	San Marcos la laguna 	1	Enero	2023-01-25T00:00:00	2024-11-08T22:00:00	6	Velocidad del viento	6.4
173094	7	Sololá	716	San Marcos la Laguna 	11	San Marcos la laguna 	1	Enero	2023-01-25T00:00:00	2024-11-08T22:00:00	7	Dirección del viento	6.44
173095	7	Sololá	716	San Marcos la Laguna 	11	San Marcos la laguna 	1	Enero	2023-01-25T00:00:00	2024-11-08T22:00:00	1	Precipitación	0
173096	7	Sololá	716	San Marcos la Laguna 	11	San Marcos la laguna 	1	Enero	2023-01-25T00:00:00	2024-11-08T22:00:00	8	Radiación solar	0
173097	7	Sololá	716	San Marcos la Laguna 	11	San Marcos la laguna 	1	Enero	2023-01-25T00:00:00	2024-11-08T23:00:00	2	Temperatura media	15.6
173098	7	Sololá	716	San Marcos la Laguna 	11	San Marcos la laguna 	1	Enero	2023-01-25T00:00:00	2024-11-08T23:00:00	4	Temperatura máxima	16.4
173099	7	Sololá	716	San Marcos la Laguna 	11	San Marcos la laguna 	1	Enero	2023-01-25T00:00:00	2024-11-08T23:00:00	3	Temperatura mínima	15.6
173100	7	Sololá	716	San Marcos la Laguna 	11	San Marcos la laguna 	1	Enero	2023-01-25T00:00:00	2024-11-08T23:00:00	5	Humedad	66
173101	7	Sololá	716	San Marcos la Laguna 	11	San Marcos la laguna 	1	Enero	2023-01-25T00:00:00	2024-11-08T23:00:00	6	Velocidad del viento	8
173102	7	Sololá	716	San Marcos la Laguna 	11	San Marcos la laguna 	1	Enero	2023-01-25T00:00:00	2024-11-08T23:00:00	7	Dirección del viento	8.05
173103	7	Sololá	716	San Marcos la Laguna 	11	San Marcos la laguna 	1	Enero	2023-01-25T00:00:00	2024-11-08T23:00:00	1	Precipitación	0
173104	7	Sololá	716	San Marcos la Laguna 	11	San Marcos la laguna 	1	Enero	2023-01-25T00:00:00	2024-11-08T23:00:00	8	Radiación solar	0
173105	7	Sololá	716	San Marcos la Laguna 	11	San Marcos la laguna 	1	Enero	2023-01-26T00:00:00	2024-11-08T00:00:00	2	Temperatura media	15.3
173106	7	Sololá	716	San Marcos la Laguna 	11	San Marcos la laguna 	1	Enero	2023-01-26T00:00:00	2024-11-08T00:00:00	4	Temperatura máxima	15.9
173107	7	Sololá	716	San Marcos la Laguna 	11	San Marcos la laguna 	1	Enero	2023-01-26T00:00:00	2024-11-08T00:00:00	3	Temperatura mínima	15.3
173108	7	Sololá	716	San Marcos la Laguna 	11	San Marcos la laguna 	1	Enero	2023-01-26T00:00:00	2024-11-08T00:00:00	5	Humedad	67
173109	7	Sololá	716	San Marcos la Laguna 	11	San Marcos la laguna 	1	Enero	2023-01-26T00:00:00	2024-11-08T00:00:00	6	Velocidad del viento	8
173110	7	Sololá	716	San Marcos la Laguna 	11	San Marcos la laguna 	1	Enero	2023-01-26T00:00:00	2024-11-08T00:00:00	7	Dirección del viento	8.05
173111	7	Sololá	716	San Marcos la Laguna 	11	San Marcos la laguna 	1	Enero	2023-01-26T00:00:00	2024-11-08T00:00:00	1	Precipitación	0
173112	7	Sololá	716	San Marcos la Laguna 	11	San Marcos la laguna 	1	Enero	2023-01-26T00:00:00	2024-11-08T00:00:00	8	Radiación solar	0
173113	7	Sololá	716	San Marcos la Laguna 	11	San Marcos la laguna 	1	Enero	2023-01-26T00:00:00	2024-11-08T01:00:00	2	Temperatura media	14.5
173114	7	Sololá	716	San Marcos la Laguna 	11	San Marcos la laguna 	1	Enero	2023-01-26T00:00:00	2024-11-08T01:00:00	4	Temperatura máxima	15.6
173115	7	Sololá	716	San Marcos la Laguna 	11	San Marcos la laguna 	1	Enero	2023-01-26T00:00:00	2024-11-08T01:00:00	3	Temperatura mínima	14.4
173116	7	Sololá	716	San Marcos la Laguna 	11	San Marcos la laguna 	1	Enero	2023-01-26T00:00:00	2024-11-08T01:00:00	5	Humedad	74
173117	7	Sololá	716	San Marcos la Laguna 	11	San Marcos la laguna 	1	Enero	2023-01-26T00:00:00	2024-11-08T01:00:00	6	Velocidad del viento	6.4
173118	7	Sololá	716	San Marcos la Laguna 	11	San Marcos la laguna 	1	Enero	2023-01-26T00:00:00	2024-11-08T01:00:00	7	Dirección del viento	6.44
173119	7	Sololá	716	San Marcos la Laguna 	11	San Marcos la laguna 	1	Enero	2023-01-26T00:00:00	2024-11-08T01:00:00	1	Precipitación	0
173120	7	Sololá	716	San Marcos la Laguna 	11	San Marcos la laguna 	1	Enero	2023-01-26T00:00:00	2024-11-08T01:00:00	8	Radiación solar	0
173121	7	Sololá	716	San Marcos la Laguna 	11	San Marcos la laguna 	1	Enero	2023-01-26T00:00:00	2024-11-08T02:00:00	2	Temperatura media	14.8
173122	7	Sololá	716	San Marcos la Laguna 	11	San Marcos la laguna 	1	Enero	2023-01-26T00:00:00	2024-11-08T02:00:00	4	Temperatura máxima	15.6
173123	7	Sololá	716	San Marcos la Laguna 	11	San Marcos la laguna 	1	Enero	2023-01-26T00:00:00	2024-11-08T02:00:00	3	Temperatura mínima	14.4
173124	7	Sololá	716	San Marcos la Laguna 	11	San Marcos la laguna 	1	Enero	2023-01-26T00:00:00	2024-11-08T02:00:00	5	Humedad	70
173125	7	Sololá	716	San Marcos la Laguna 	11	San Marcos la laguna 	1	Enero	2023-01-26T00:00:00	2024-11-08T02:00:00	6	Velocidad del viento	6.4
173126	7	Sololá	716	San Marcos la Laguna 	11	San Marcos la laguna 	1	Enero	2023-01-26T00:00:00	2024-11-08T02:00:00	7	Dirección del viento	6.44
173127	7	Sololá	716	San Marcos la Laguna 	11	San Marcos la laguna 	1	Enero	2023-01-26T00:00:00	2024-11-08T02:00:00	1	Precipitación	0
173128	7	Sololá	716	San Marcos la Laguna 	11	San Marcos la laguna 	1	Enero	2023-01-26T00:00:00	2024-11-08T02:00:00	8	Radiación solar	0
173129	7	Sololá	716	San Marcos la Laguna 	11	San Marcos la laguna 	1	Enero	2023-01-26T00:00:00	2024-11-08T03:00:00	2	Temperatura media	14.3
173130	7	Sololá	716	San Marcos la Laguna 	11	San Marcos la laguna 	1	Enero	2023-01-26T00:00:00	2024-11-08T03:00:00	4	Temperatura máxima	14.8
173131	7	Sololá	716	San Marcos la Laguna 	11	San Marcos la laguna 	1	Enero	2023-01-26T00:00:00	2024-11-08T03:00:00	3	Temperatura mínima	14.2
173132	7	Sololá	716	San Marcos la Laguna 	11	San Marcos la laguna 	1	Enero	2023-01-26T00:00:00	2024-11-08T03:00:00	5	Humedad	75
173133	7	Sololá	716	San Marcos la Laguna 	11	San Marcos la laguna 	1	Enero	2023-01-26T00:00:00	2024-11-08T03:00:00	6	Velocidad del viento	8
173134	7	Sololá	716	San Marcos la Laguna 	11	San Marcos la laguna 	1	Enero	2023-01-26T00:00:00	2024-11-08T03:00:00	7	Dirección del viento	8.05
173135	7	Sololá	716	San Marcos la Laguna 	11	San Marcos la laguna 	1	Enero	2023-01-26T00:00:00	2024-11-08T03:00:00	1	Precipitación	0
173136	7	Sololá	716	San Marcos la Laguna 	11	San Marcos la laguna 	1	Enero	2023-01-26T00:00:00	2024-11-08T03:00:00	8	Radiación solar	0
173137	7	Sololá	716	San Marcos la Laguna 	11	San Marcos la laguna 	1	Enero	2023-01-26T00:00:00	2024-11-08T04:00:00	2	Temperatura media	14.1
173138	7	Sololá	716	San Marcos la Laguna 	11	San Marcos la laguna 	1	Enero	2023-01-26T00:00:00	2024-11-08T04:00:00	4	Temperatura máxima	14.6
173139	7	Sololá	716	San Marcos la Laguna 	11	San Marcos la laguna 	1	Enero	2023-01-26T00:00:00	2024-11-08T04:00:00	3	Temperatura mínima	14
173140	7	Sololá	716	San Marcos la Laguna 	11	San Marcos la laguna 	1	Enero	2023-01-26T00:00:00	2024-11-08T04:00:00	5	Humedad	79
173141	7	Sololá	716	San Marcos la Laguna 	11	San Marcos la laguna 	1	Enero	2023-01-26T00:00:00	2024-11-08T04:00:00	6	Velocidad del viento	6.4
173142	7	Sololá	716	San Marcos la Laguna 	11	San Marcos la laguna 	1	Enero	2023-01-26T00:00:00	2024-11-08T04:00:00	7	Dirección del viento	6.44
173143	7	Sololá	716	San Marcos la Laguna 	11	San Marcos la laguna 	1	Enero	2023-01-26T00:00:00	2024-11-08T04:00:00	1	Precipitación	0
173144	7	Sololá	716	San Marcos la Laguna 	11	San Marcos la laguna 	1	Enero	2023-01-26T00:00:00	2024-11-08T04:00:00	8	Radiación solar	0
173145	7	Sololá	716	San Marcos la Laguna 	11	San Marcos la laguna 	1	Enero	2023-01-26T00:00:00	2024-11-08T05:00:00	2	Temperatura media	15
173146	7	Sololá	716	San Marcos la Laguna 	11	San Marcos la laguna 	1	Enero	2023-01-26T00:00:00	2024-11-08T05:00:00	4	Temperatura máxima	15.3
173147	7	Sololá	716	San Marcos la Laguna 	11	San Marcos la laguna 	1	Enero	2023-01-26T00:00:00	2024-11-08T05:00:00	3	Temperatura mínima	14.1
173148	7	Sololá	716	San Marcos la Laguna 	11	San Marcos la laguna 	1	Enero	2023-01-26T00:00:00	2024-11-08T05:00:00	5	Humedad	75
173149	7	Sololá	716	San Marcos la Laguna 	11	San Marcos la laguna 	1	Enero	2023-01-26T00:00:00	2024-11-08T05:00:00	6	Velocidad del viento	6.4
173150	7	Sololá	716	San Marcos la Laguna 	11	San Marcos la laguna 	1	Enero	2023-01-26T00:00:00	2024-11-08T05:00:00	7	Dirección del viento	6.44
173151	7	Sololá	716	San Marcos la Laguna 	11	San Marcos la laguna 	1	Enero	2023-01-26T00:00:00	2024-11-08T05:00:00	1	Precipitación	0
173152	7	Sololá	716	San Marcos la Laguna 	11	San Marcos la laguna 	1	Enero	2023-01-26T00:00:00	2024-11-08T05:00:00	8	Radiación solar	0
173153	7	Sololá	716	San Marcos la Laguna 	11	San Marcos la laguna 	1	Enero	2023-01-26T00:00:00	2024-11-08T06:00:00	2	Temperatura media	15.6
173154	7	Sololá	716	San Marcos la Laguna 	11	San Marcos la laguna 	1	Enero	2023-01-26T00:00:00	2024-11-08T06:00:00	4	Temperatura máxima	15.9
173155	7	Sololá	716	San Marcos la Laguna 	11	San Marcos la laguna 	1	Enero	2023-01-26T00:00:00	2024-11-08T06:00:00	3	Temperatura mínima	14.6
173156	7	Sololá	716	San Marcos la Laguna 	11	San Marcos la laguna 	1	Enero	2023-01-26T00:00:00	2024-11-08T06:00:00	5	Humedad	74
173157	7	Sololá	716	San Marcos la Laguna 	11	San Marcos la laguna 	1	Enero	2023-01-26T00:00:00	2024-11-08T06:00:00	6	Velocidad del viento	6.4
173158	7	Sololá	716	San Marcos la Laguna 	11	San Marcos la laguna 	1	Enero	2023-01-26T00:00:00	2024-11-08T06:00:00	7	Dirección del viento	6.44
173159	7	Sololá	716	San Marcos la Laguna 	11	San Marcos la laguna 	1	Enero	2023-01-26T00:00:00	2024-11-08T06:00:00	1	Precipitación	0
173160	7	Sololá	716	San Marcos la Laguna 	11	San Marcos la laguna 	1	Enero	2023-01-26T00:00:00	2024-11-08T06:00:00	8	Radiación solar	0
173161	7	Sololá	716	San Marcos la Laguna 	11	San Marcos la laguna 	1	Enero	2023-01-26T00:00:00	2024-11-08T07:00:00	2	Temperatura media	15.8
173162	7	Sololá	716	San Marcos la Laguna 	11	San Marcos la laguna 	1	Enero	2023-01-26T00:00:00	2024-11-08T07:00:00	4	Temperatura máxima	16.2
173163	7	Sololá	716	San Marcos la Laguna 	11	San Marcos la laguna 	1	Enero	2023-01-26T00:00:00	2024-11-08T07:00:00	3	Temperatura mínima	15.4
173164	7	Sololá	716	San Marcos la Laguna 	11	San Marcos la laguna 	1	Enero	2023-01-26T00:00:00	2024-11-08T07:00:00	5	Humedad	70
173165	7	Sololá	716	San Marcos la Laguna 	11	San Marcos la laguna 	1	Enero	2023-01-26T00:00:00	2024-11-08T07:00:00	6	Velocidad del viento	9.7
173166	7	Sololá	716	San Marcos la Laguna 	11	San Marcos la laguna 	1	Enero	2023-01-26T00:00:00	2024-11-08T07:00:00	7	Dirección del viento	9.66
173167	7	Sololá	716	San Marcos la Laguna 	11	San Marcos la laguna 	1	Enero	2023-01-26T00:00:00	2024-11-08T07:00:00	1	Precipitación	0
173168	7	Sololá	716	San Marcos la Laguna 	11	San Marcos la laguna 	1	Enero	2023-01-26T00:00:00	2024-11-08T07:00:00	8	Radiación solar	4
173169	7	Sololá	716	San Marcos la Laguna 	11	San Marcos la laguna 	1	Enero	2023-01-26T00:00:00	2024-11-08T08:00:00	2	Temperatura media	17.9
173170	7	Sololá	716	San Marcos la Laguna 	11	San Marcos la laguna 	1	Enero	2023-01-26T00:00:00	2024-11-08T08:00:00	4	Temperatura máxima	17.9
173171	7	Sololá	716	San Marcos la Laguna 	11	San Marcos la laguna 	1	Enero	2023-01-26T00:00:00	2024-11-08T08:00:00	3	Temperatura mínima	15.7
173172	7	Sololá	716	San Marcos la Laguna 	11	San Marcos la laguna 	1	Enero	2023-01-26T00:00:00	2024-11-08T08:00:00	5	Humedad	68
173173	7	Sololá	716	San Marcos la Laguna 	11	San Marcos la laguna 	1	Enero	2023-01-26T00:00:00	2024-11-08T08:00:00	6	Velocidad del viento	6.4
173174	7	Sololá	716	San Marcos la Laguna 	11	San Marcos la laguna 	1	Enero	2023-01-26T00:00:00	2024-11-08T08:00:00	7	Dirección del viento	6.44
173175	7	Sololá	716	San Marcos la Laguna 	11	San Marcos la laguna 	1	Enero	2023-01-26T00:00:00	2024-11-08T08:00:00	1	Precipitación	0
173176	7	Sololá	716	San Marcos la Laguna 	11	San Marcos la laguna 	1	Enero	2023-01-26T00:00:00	2024-11-08T08:00:00	8	Radiación solar	118
173177	7	Sololá	716	San Marcos la Laguna 	11	San Marcos la laguna 	1	Enero	2023-01-26T00:00:00	2024-11-08T09:00:00	2	Temperatura media	22.4
173178	7	Sololá	716	San Marcos la Laguna 	11	San Marcos la laguna 	1	Enero	2023-01-26T00:00:00	2024-11-08T09:00:00	4	Temperatura máxima	22.4
173179	7	Sololá	716	San Marcos la Laguna 	11	San Marcos la laguna 	1	Enero	2023-01-26T00:00:00	2024-11-08T09:00:00	3	Temperatura mínima	17.9
173180	7	Sololá	716	San Marcos la Laguna 	11	San Marcos la laguna 	1	Enero	2023-01-26T00:00:00	2024-11-08T09:00:00	5	Humedad	57
173181	7	Sololá	716	San Marcos la Laguna 	11	San Marcos la laguna 	1	Enero	2023-01-26T00:00:00	2024-11-08T09:00:00	6	Velocidad del viento	1.6
173182	7	Sololá	716	San Marcos la Laguna 	11	San Marcos la laguna 	1	Enero	2023-01-26T00:00:00	2024-11-08T09:00:00	7	Dirección del viento	1.61
173183	7	Sololá	716	San Marcos la Laguna 	11	San Marcos la laguna 	1	Enero	2023-01-26T00:00:00	2024-11-08T09:00:00	1	Precipitación	0
173184	7	Sololá	716	San Marcos la Laguna 	11	San Marcos la laguna 	1	Enero	2023-01-26T00:00:00	2024-11-08T09:00:00	8	Radiación solar	337
173185	7	Sololá	716	San Marcos la Laguna 	11	San Marcos la laguna 	1	Enero	2023-01-26T00:00:00	2024-11-08T10:00:00	2	Temperatura media	23.4
173186	7	Sololá	716	San Marcos la Laguna 	11	San Marcos la laguna 	1	Enero	2023-01-26T00:00:00	2024-11-08T10:00:00	4	Temperatura máxima	23.4
173187	7	Sololá	716	San Marcos la Laguna 	11	San Marcos la laguna 	1	Enero	2023-01-26T00:00:00	2024-11-08T10:00:00	3	Temperatura mínima	22.3
173188	7	Sololá	716	San Marcos la Laguna 	11	San Marcos la laguna 	1	Enero	2023-01-26T00:00:00	2024-11-08T10:00:00	5	Humedad	53
173189	7	Sololá	716	San Marcos la Laguna 	11	San Marcos la laguna 	1	Enero	2023-01-26T00:00:00	2024-11-08T10:00:00	6	Velocidad del viento	3.2
173190	7	Sololá	716	San Marcos la Laguna 	11	San Marcos la laguna 	1	Enero	2023-01-26T00:00:00	2024-11-08T10:00:00	7	Dirección del viento	3.22
173191	7	Sololá	716	San Marcos la Laguna 	11	San Marcos la laguna 	1	Enero	2023-01-26T00:00:00	2024-11-08T10:00:00	1	Precipitación	0
173192	7	Sololá	716	San Marcos la Laguna 	11	San Marcos la laguna 	1	Enero	2023-01-26T00:00:00	2024-11-08T10:00:00	8	Radiación solar	526
173193	7	Sololá	716	San Marcos la Laguna 	11	San Marcos la laguna 	1	Enero	2023-01-26T00:00:00	2024-11-08T11:00:00	2	Temperatura media	24.7
173194	7	Sololá	716	San Marcos la Laguna 	11	San Marcos la laguna 	1	Enero	2023-01-26T00:00:00	2024-11-08T11:00:00	4	Temperatura máxima	24.7
173195	7	Sololá	716	San Marcos la Laguna 	11	San Marcos la laguna 	1	Enero	2023-01-26T00:00:00	2024-11-08T11:00:00	3	Temperatura mínima	23.4
173196	7	Sololá	716	San Marcos la Laguna 	11	San Marcos la laguna 	1	Enero	2023-01-26T00:00:00	2024-11-08T11:00:00	5	Humedad	49
173197	7	Sololá	716	San Marcos la Laguna 	11	San Marcos la laguna 	1	Enero	2023-01-26T00:00:00	2024-11-08T11:00:00	6	Velocidad del viento	3.2
173198	7	Sololá	716	San Marcos la Laguna 	11	San Marcos la laguna 	1	Enero	2023-01-26T00:00:00	2024-11-08T11:00:00	7	Dirección del viento	3.22
173199	7	Sololá	716	San Marcos la Laguna 	11	San Marcos la laguna 	1	Enero	2023-01-26T00:00:00	2024-11-08T11:00:00	1	Precipitación	0
173200	7	Sololá	716	San Marcos la Laguna 	11	San Marcos la laguna 	1	Enero	2023-01-26T00:00:00	2024-11-08T11:00:00	8	Radiación solar	601
173201	7	Sololá	716	San Marcos la Laguna 	11	San Marcos la laguna 	1	Enero	2023-01-26T00:00:00	2024-11-08T12:00:00	2	Temperatura media	23.6
173202	7	Sololá	716	San Marcos la Laguna 	11	San Marcos la laguna 	1	Enero	2023-01-26T00:00:00	2024-11-08T12:00:00	4	Temperatura máxima	25.1
173203	7	Sololá	716	San Marcos la Laguna 	11	San Marcos la laguna 	1	Enero	2023-01-26T00:00:00	2024-11-08T12:00:00	3	Temperatura mínima	23.4
173204	7	Sololá	716	San Marcos la Laguna 	11	San Marcos la laguna 	1	Enero	2023-01-26T00:00:00	2024-11-08T12:00:00	5	Humedad	47
173205	7	Sololá	716	San Marcos la Laguna 	11	San Marcos la laguna 	1	Enero	2023-01-26T00:00:00	2024-11-08T12:00:00	6	Velocidad del viento	19.3
173206	7	Sololá	716	San Marcos la Laguna 	11	San Marcos la laguna 	1	Enero	2023-01-26T00:00:00	2024-11-08T12:00:00	7	Dirección del viento	19.31
173207	7	Sololá	716	San Marcos la Laguna 	11	San Marcos la laguna 	1	Enero	2023-01-26T00:00:00	2024-11-08T12:00:00	1	Precipitación	0
173208	7	Sololá	716	San Marcos la Laguna 	11	San Marcos la laguna 	1	Enero	2023-01-26T00:00:00	2024-11-08T12:00:00	8	Radiación solar	708
173209	7	Sololá	716	San Marcos la Laguna 	11	San Marcos la laguna 	1	Enero	2023-01-26T00:00:00	2024-11-08T13:00:00	2	Temperatura media	24.2
173210	7	Sololá	716	San Marcos la Laguna 	11	San Marcos la laguna 	1	Enero	2023-01-26T00:00:00	2024-11-08T13:00:00	4	Temperatura máxima	24.4
173211	7	Sololá	716	San Marcos la Laguna 	11	San Marcos la laguna 	1	Enero	2023-01-26T00:00:00	2024-11-08T13:00:00	3	Temperatura mínima	23.4
173212	7	Sololá	716	San Marcos la Laguna 	11	San Marcos la laguna 	1	Enero	2023-01-26T00:00:00	2024-11-08T13:00:00	5	Humedad	46
173213	7	Sololá	716	San Marcos la Laguna 	11	San Marcos la laguna 	1	Enero	2023-01-26T00:00:00	2024-11-08T13:00:00	6	Velocidad del viento	19.3
173214	7	Sololá	716	San Marcos la Laguna 	11	San Marcos la laguna 	1	Enero	2023-01-26T00:00:00	2024-11-08T13:00:00	7	Dirección del viento	19.31
173215	7	Sololá	716	San Marcos la Laguna 	11	San Marcos la laguna 	1	Enero	2023-01-26T00:00:00	2024-11-08T13:00:00	1	Precipitación	0
173216	7	Sololá	716	San Marcos la Laguna 	11	San Marcos la laguna 	1	Enero	2023-01-26T00:00:00	2024-11-08T13:00:00	8	Radiación solar	774
173217	7	Sololá	716	San Marcos la Laguna 	11	San Marcos la laguna 	1	Enero	2023-01-26T00:00:00	2024-11-08T14:00:00	2	Temperatura media	24
173218	7	Sololá	716	San Marcos la Laguna 	11	San Marcos la laguna 	1	Enero	2023-01-26T00:00:00	2024-11-08T14:00:00	4	Temperatura máxima	24.2
173219	7	Sololá	716	San Marcos la Laguna 	11	San Marcos la laguna 	1	Enero	2023-01-26T00:00:00	2024-11-08T14:00:00	3	Temperatura mínima	23.7
173220	7	Sololá	716	San Marcos la Laguna 	11	San Marcos la laguna 	1	Enero	2023-01-26T00:00:00	2024-11-08T14:00:00	5	Humedad	46
173221	7	Sololá	716	San Marcos la Laguna 	11	San Marcos la laguna 	1	Enero	2023-01-26T00:00:00	2024-11-08T14:00:00	6	Velocidad del viento	20.9
173222	7	Sololá	716	San Marcos la Laguna 	11	San Marcos la laguna 	1	Enero	2023-01-26T00:00:00	2024-11-08T14:00:00	7	Dirección del viento	20.92
173223	7	Sololá	716	San Marcos la Laguna 	11	San Marcos la laguna 	1	Enero	2023-01-26T00:00:00	2024-11-08T14:00:00	1	Precipitación	0
173224	7	Sololá	716	San Marcos la Laguna 	11	San Marcos la laguna 	1	Enero	2023-01-26T00:00:00	2024-11-08T14:00:00	8	Radiación solar	725
173225	7	Sololá	716	San Marcos la Laguna 	11	San Marcos la laguna 	1	Enero	2023-01-26T00:00:00	2024-11-08T15:00:00	2	Temperatura media	23.8
173226	7	Sololá	716	San Marcos la Laguna 	11	San Marcos la laguna 	1	Enero	2023-01-26T00:00:00	2024-11-08T15:00:00	4	Temperatura máxima	24.6
173227	7	Sololá	716	San Marcos la Laguna 	11	San Marcos la laguna 	1	Enero	2023-01-26T00:00:00	2024-11-08T15:00:00	3	Temperatura mínima	23.8
173228	7	Sololá	716	San Marcos la Laguna 	11	San Marcos la laguna 	1	Enero	2023-01-26T00:00:00	2024-11-08T15:00:00	5	Humedad	42
173229	7	Sololá	716	San Marcos la Laguna 	11	San Marcos la laguna 	1	Enero	2023-01-26T00:00:00	2024-11-08T15:00:00	6	Velocidad del viento	20.9
173230	7	Sololá	716	San Marcos la Laguna 	11	San Marcos la laguna 	1	Enero	2023-01-26T00:00:00	2024-11-08T15:00:00	7	Dirección del viento	20.92
173231	7	Sololá	716	San Marcos la Laguna 	11	San Marcos la laguna 	1	Enero	2023-01-26T00:00:00	2024-11-08T15:00:00	1	Precipitación	0
173232	7	Sololá	716	San Marcos la Laguna 	11	San Marcos la laguna 	1	Enero	2023-01-26T00:00:00	2024-11-08T15:00:00	8	Radiación solar	509
173233	7	Sololá	716	San Marcos la Laguna 	11	San Marcos la laguna 	1	Enero	2023-01-26T00:00:00	2024-11-08T16:00:00	2	Temperatura media	23.5
173234	7	Sololá	716	San Marcos la Laguna 	11	San Marcos la laguna 	1	Enero	2023-01-26T00:00:00	2024-11-08T16:00:00	4	Temperatura máxima	24.2
173235	7	Sololá	716	San Marcos la Laguna 	11	San Marcos la laguna 	1	Enero	2023-01-26T00:00:00	2024-11-08T16:00:00	3	Temperatura mínima	23.5
173236	7	Sololá	716	San Marcos la Laguna 	11	San Marcos la laguna 	1	Enero	2023-01-26T00:00:00	2024-11-08T16:00:00	5	Humedad	48
173237	7	Sololá	716	San Marcos la Laguna 	11	San Marcos la laguna 	1	Enero	2023-01-26T00:00:00	2024-11-08T16:00:00	6	Velocidad del viento	16.1
173238	7	Sololá	716	San Marcos la Laguna 	11	San Marcos la laguna 	1	Enero	2023-01-26T00:00:00	2024-11-08T16:00:00	7	Dirección del viento	16.09
173239	7	Sololá	716	San Marcos la Laguna 	11	San Marcos la laguna 	1	Enero	2023-01-26T00:00:00	2024-11-08T16:00:00	1	Precipitación	0
173240	7	Sololá	716	San Marcos la Laguna 	11	San Marcos la laguna 	1	Enero	2023-01-26T00:00:00	2024-11-08T16:00:00	8	Radiación solar	329
173241	7	Sololá	716	San Marcos la Laguna 	11	San Marcos la laguna 	1	Enero	2023-01-26T00:00:00	2024-11-08T17:00:00	2	Temperatura media	22
173242	7	Sololá	716	San Marcos la Laguna 	11	San Marcos la laguna 	1	Enero	2023-01-26T00:00:00	2024-11-08T17:00:00	4	Temperatura máxima	23.4
173243	7	Sololá	716	San Marcos la Laguna 	11	San Marcos la laguna 	1	Enero	2023-01-26T00:00:00	2024-11-08T17:00:00	3	Temperatura mínima	21.9
173244	7	Sololá	716	San Marcos la Laguna 	11	San Marcos la laguna 	1	Enero	2023-01-26T00:00:00	2024-11-08T17:00:00	5	Humedad	52
173245	7	Sololá	716	San Marcos la Laguna 	11	San Marcos la laguna 	1	Enero	2023-01-26T00:00:00	2024-11-08T17:00:00	6	Velocidad del viento	16.1
173246	7	Sololá	716	San Marcos la Laguna 	11	San Marcos la laguna 	1	Enero	2023-01-26T00:00:00	2024-11-08T17:00:00	7	Dirección del viento	16.09
173247	7	Sololá	716	San Marcos la Laguna 	11	San Marcos la laguna 	1	Enero	2023-01-26T00:00:00	2024-11-08T17:00:00	1	Precipitación	0
173248	7	Sololá	716	San Marcos la Laguna 	11	San Marcos la laguna 	1	Enero	2023-01-26T00:00:00	2024-11-08T17:00:00	8	Radiación solar	199
173249	7	Sololá	716	San Marcos la Laguna 	11	San Marcos la laguna 	1	Enero	2023-01-26T00:00:00	2024-11-08T18:00:00	2	Temperatura media	21.2
173250	7	Sololá	716	San Marcos la Laguna 	11	San Marcos la laguna 	1	Enero	2023-01-26T00:00:00	2024-11-08T18:00:00	4	Temperatura máxima	22
173251	7	Sololá	716	San Marcos la Laguna 	11	San Marcos la laguna 	1	Enero	2023-01-26T00:00:00	2024-11-08T18:00:00	3	Temperatura mínima	21.1
173252	7	Sololá	716	San Marcos la Laguna 	11	San Marcos la laguna 	1	Enero	2023-01-26T00:00:00	2024-11-08T18:00:00	5	Humedad	49
173253	7	Sololá	716	San Marcos la Laguna 	11	San Marcos la laguna 	1	Enero	2023-01-26T00:00:00	2024-11-08T18:00:00	6	Velocidad del viento	11.3
173254	7	Sololá	716	San Marcos la Laguna 	11	San Marcos la laguna 	1	Enero	2023-01-26T00:00:00	2024-11-08T18:00:00	7	Dirección del viento	11.27
173255	7	Sololá	716	San Marcos la Laguna 	11	San Marcos la laguna 	1	Enero	2023-01-26T00:00:00	2024-11-08T18:00:00	1	Precipitación	0
173256	7	Sololá	716	San Marcos la Laguna 	11	San Marcos la laguna 	1	Enero	2023-01-26T00:00:00	2024-11-08T18:00:00	8	Radiación solar	19
173257	7	Sololá	716	San Marcos la Laguna 	11	San Marcos la laguna 	1	Enero	2023-01-26T00:00:00	2024-11-08T19:00:00	2	Temperatura media	20.9
173258	7	Sololá	716	San Marcos la Laguna 	11	San Marcos la laguna 	1	Enero	2023-01-26T00:00:00	2024-11-08T19:00:00	4	Temperatura máxima	21.1
173259	7	Sololá	716	San Marcos la Laguna 	11	San Marcos la laguna 	1	Enero	2023-01-26T00:00:00	2024-11-08T19:00:00	3	Temperatura mínima	20.9
173260	7	Sololá	716	San Marcos la Laguna 	11	San Marcos la laguna 	1	Enero	2023-01-26T00:00:00	2024-11-08T19:00:00	5	Humedad	46
173261	7	Sololá	716	San Marcos la Laguna 	11	San Marcos la laguna 	1	Enero	2023-01-26T00:00:00	2024-11-08T19:00:00	6	Velocidad del viento	14.5
173262	7	Sololá	716	San Marcos la Laguna 	11	San Marcos la laguna 	1	Enero	2023-01-26T00:00:00	2024-11-08T19:00:00	7	Dirección del viento	14.48
173263	7	Sololá	716	San Marcos la Laguna 	11	San Marcos la laguna 	1	Enero	2023-01-26T00:00:00	2024-11-08T19:00:00	1	Precipitación	0
173264	7	Sololá	716	San Marcos la Laguna 	11	San Marcos la laguna 	1	Enero	2023-01-26T00:00:00	2024-11-08T19:00:00	8	Radiación solar	0
173265	7	Sololá	716	San Marcos la Laguna 	11	San Marcos la laguna 	1	Enero	2023-01-26T00:00:00	2024-11-08T20:00:00	2	Temperatura media	18.8
173266	7	Sololá	716	San Marcos la Laguna 	11	San Marcos la laguna 	1	Enero	2023-01-26T00:00:00	2024-11-08T20:00:00	4	Temperatura máxima	21.1
173267	7	Sololá	716	San Marcos la Laguna 	11	San Marcos la laguna 	1	Enero	2023-01-26T00:00:00	2024-11-08T20:00:00	3	Temperatura mínima	18.8
173268	7	Sololá	716	San Marcos la Laguna 	11	San Marcos la laguna 	1	Enero	2023-01-26T00:00:00	2024-11-08T20:00:00	5	Humedad	55
173269	7	Sololá	716	San Marcos la Laguna 	11	San Marcos la laguna 	1	Enero	2023-01-26T00:00:00	2024-11-08T20:00:00	6	Velocidad del viento	4.8
173270	7	Sololá	716	San Marcos la Laguna 	11	San Marcos la laguna 	1	Enero	2023-01-26T00:00:00	2024-11-08T20:00:00	7	Dirección del viento	4.83
173271	7	Sololá	716	San Marcos la Laguna 	11	San Marcos la laguna 	1	Enero	2023-01-26T00:00:00	2024-11-08T20:00:00	1	Precipitación	0
173272	7	Sololá	716	San Marcos la Laguna 	11	San Marcos la laguna 	1	Enero	2023-01-26T00:00:00	2024-11-08T20:00:00	8	Radiación solar	0
173273	7	Sololá	716	San Marcos la Laguna 	11	San Marcos la laguna 	1	Enero	2023-01-26T00:00:00	2024-11-08T21:00:00	2	Temperatura media	20.2
173274	7	Sololá	716	San Marcos la Laguna 	11	San Marcos la laguna 	1	Enero	2023-01-26T00:00:00	2024-11-08T21:00:00	4	Temperatura máxima	20.2
173275	7	Sololá	716	San Marcos la Laguna 	11	San Marcos la laguna 	1	Enero	2023-01-26T00:00:00	2024-11-08T21:00:00	3	Temperatura mínima	18.3
173276	7	Sololá	716	San Marcos la Laguna 	11	San Marcos la laguna 	1	Enero	2023-01-26T00:00:00	2024-11-08T21:00:00	5	Humedad	56
173277	7	Sololá	716	San Marcos la Laguna 	11	San Marcos la laguna 	1	Enero	2023-01-26T00:00:00	2024-11-08T21:00:00	6	Velocidad del viento	9.7
173278	7	Sololá	716	San Marcos la Laguna 	11	San Marcos la laguna 	1	Enero	2023-01-26T00:00:00	2024-11-08T21:00:00	7	Dirección del viento	9.66
173279	7	Sololá	716	San Marcos la Laguna 	11	San Marcos la laguna 	1	Enero	2023-01-26T00:00:00	2024-11-08T21:00:00	1	Precipitación	0
173280	7	Sololá	716	San Marcos la Laguna 	11	San Marcos la laguna 	1	Enero	2023-01-26T00:00:00	2024-11-08T21:00:00	8	Radiación solar	0
173281	7	Sololá	716	San Marcos la Laguna 	11	San Marcos la laguna 	1	Enero	2023-01-26T00:00:00	2024-11-08T22:00:00	2	Temperatura media	19
173282	7	Sololá	716	San Marcos la Laguna 	11	San Marcos la laguna 	1	Enero	2023-01-26T00:00:00	2024-11-08T22:00:00	4	Temperatura máxima	20.2
173283	7	Sololá	716	San Marcos la Laguna 	11	San Marcos la laguna 	1	Enero	2023-01-26T00:00:00	2024-11-08T22:00:00	3	Temperatura mínima	19
173284	7	Sololá	716	San Marcos la Laguna 	11	San Marcos la laguna 	1	Enero	2023-01-26T00:00:00	2024-11-08T22:00:00	5	Humedad	57
173285	7	Sololá	716	San Marcos la Laguna 	11	San Marcos la laguna 	1	Enero	2023-01-26T00:00:00	2024-11-08T22:00:00	6	Velocidad del viento	20.9
173286	7	Sololá	716	San Marcos la Laguna 	11	San Marcos la laguna 	1	Enero	2023-01-26T00:00:00	2024-11-08T22:00:00	7	Dirección del viento	20.92
173287	7	Sololá	716	San Marcos la Laguna 	11	San Marcos la laguna 	1	Enero	2023-01-26T00:00:00	2024-11-08T22:00:00	1	Precipitación	0
173288	7	Sololá	716	San Marcos la Laguna 	11	San Marcos la laguna 	1	Enero	2023-01-26T00:00:00	2024-11-08T22:00:00	8	Radiación solar	0
173289	7	Sololá	716	San Marcos la Laguna 	11	San Marcos la laguna 	1	Enero	2023-01-26T00:00:00	2024-11-08T23:00:00	2	Temperatura media	19.5
173290	7	Sololá	716	San Marcos la Laguna 	11	San Marcos la laguna 	1	Enero	2023-01-26T00:00:00	2024-11-08T23:00:00	4	Temperatura máxima	19.6
173291	7	Sololá	716	San Marcos la Laguna 	11	San Marcos la laguna 	1	Enero	2023-01-26T00:00:00	2024-11-08T23:00:00	3	Temperatura mínima	18.4
173292	7	Sololá	716	San Marcos la Laguna 	11	San Marcos la laguna 	1	Enero	2023-01-26T00:00:00	2024-11-08T23:00:00	5	Humedad	63
173293	7	Sololá	716	San Marcos la Laguna 	11	San Marcos la laguna 	1	Enero	2023-01-26T00:00:00	2024-11-08T23:00:00	6	Velocidad del viento	9.7
173294	7	Sololá	716	San Marcos la Laguna 	11	San Marcos la laguna 	1	Enero	2023-01-26T00:00:00	2024-11-08T23:00:00	7	Dirección del viento	9.66
173295	7	Sololá	716	San Marcos la Laguna 	11	San Marcos la laguna 	1	Enero	2023-01-26T00:00:00	2024-11-08T23:00:00	1	Precipitación	0
173296	7	Sololá	716	San Marcos la Laguna 	11	San Marcos la laguna 	1	Enero	2023-01-26T00:00:00	2024-11-08T23:00:00	8	Radiación solar	0
173297	7	Sololá	716	San Marcos la Laguna 	11	San Marcos la laguna 	1	Enero	2023-01-27T00:00:00	2024-11-08T00:00:00	2	Temperatura media	19.3
173298	7	Sololá	716	San Marcos la Laguna 	11	San Marcos la laguna 	1	Enero	2023-01-27T00:00:00	2024-11-08T00:00:00	4	Temperatura máxima	20.1
173299	7	Sololá	716	San Marcos la Laguna 	11	San Marcos la laguna 	1	Enero	2023-01-27T00:00:00	2024-11-08T00:00:00	3	Temperatura mínima	19.3
173300	7	Sololá	716	San Marcos la Laguna 	11	San Marcos la laguna 	1	Enero	2023-01-27T00:00:00	2024-11-08T00:00:00	5	Humedad	60
173301	7	Sololá	716	San Marcos la Laguna 	11	San Marcos la laguna 	1	Enero	2023-01-27T00:00:00	2024-11-08T00:00:00	6	Velocidad del viento	22.5
173302	7	Sololá	716	San Marcos la Laguna 	11	San Marcos la laguna 	1	Enero	2023-01-27T00:00:00	2024-11-08T00:00:00	7	Dirección del viento	22.53
173303	7	Sololá	716	San Marcos la Laguna 	11	San Marcos la laguna 	1	Enero	2023-01-27T00:00:00	2024-11-08T00:00:00	1	Precipitación	0
173304	7	Sololá	716	San Marcos la Laguna 	11	San Marcos la laguna 	1	Enero	2023-01-27T00:00:00	2024-11-08T00:00:00	8	Radiación solar	0
173305	7	Sololá	716	San Marcos la Laguna 	11	San Marcos la laguna 	1	Enero	2023-01-27T00:00:00	2024-11-08T01:00:00	2	Temperatura media	18.3
173306	7	Sololá	716	San Marcos la Laguna 	11	San Marcos la laguna 	1	Enero	2023-01-27T00:00:00	2024-11-08T01:00:00	4	Temperatura máxima	19.6
173307	7	Sololá	716	San Marcos la Laguna 	11	San Marcos la laguna 	1	Enero	2023-01-27T00:00:00	2024-11-08T01:00:00	3	Temperatura mínima	18.3
173308	7	Sololá	716	San Marcos la Laguna 	11	San Marcos la laguna 	1	Enero	2023-01-27T00:00:00	2024-11-08T01:00:00	5	Humedad	63
173309	7	Sololá	716	San Marcos la Laguna 	11	San Marcos la laguna 	1	Enero	2023-01-27T00:00:00	2024-11-08T01:00:00	6	Velocidad del viento	9.7
173310	7	Sololá	716	San Marcos la Laguna 	11	San Marcos la laguna 	1	Enero	2023-01-27T00:00:00	2024-11-08T01:00:00	7	Dirección del viento	9.66
173311	7	Sololá	716	San Marcos la Laguna 	11	San Marcos la laguna 	1	Enero	2023-01-27T00:00:00	2024-11-08T01:00:00	1	Precipitación	0
173312	7	Sololá	716	San Marcos la Laguna 	11	San Marcos la laguna 	1	Enero	2023-01-27T00:00:00	2024-11-08T01:00:00	8	Radiación solar	0
173313	7	Sololá	716	San Marcos la Laguna 	11	San Marcos la laguna 	1	Enero	2023-01-27T00:00:00	2024-11-08T02:00:00	2	Temperatura media	17.8
173314	7	Sololá	716	San Marcos la Laguna 	11	San Marcos la laguna 	1	Enero	2023-01-27T00:00:00	2024-11-08T02:00:00	4	Temperatura máxima	18.4
173315	7	Sololá	716	San Marcos la Laguna 	11	San Marcos la laguna 	1	Enero	2023-01-27T00:00:00	2024-11-08T02:00:00	3	Temperatura mínima	17.8
173316	7	Sololá	716	San Marcos la Laguna 	11	San Marcos la laguna 	1	Enero	2023-01-27T00:00:00	2024-11-08T02:00:00	5	Humedad	66
173317	7	Sololá	716	San Marcos la Laguna 	11	San Marcos la laguna 	1	Enero	2023-01-27T00:00:00	2024-11-08T02:00:00	6	Velocidad del viento	3.2
173318	7	Sololá	716	San Marcos la Laguna 	11	San Marcos la laguna 	1	Enero	2023-01-27T00:00:00	2024-11-08T02:00:00	7	Dirección del viento	3.22
173319	7	Sololá	716	San Marcos la Laguna 	11	San Marcos la laguna 	1	Enero	2023-01-27T00:00:00	2024-11-08T02:00:00	1	Precipitación	0
173320	7	Sololá	716	San Marcos la Laguna 	11	San Marcos la laguna 	1	Enero	2023-01-27T00:00:00	2024-11-08T02:00:00	8	Radiación solar	0
173321	7	Sololá	716	San Marcos la Laguna 	11	San Marcos la laguna 	1	Enero	2023-01-27T00:00:00	2024-11-08T03:00:00	2	Temperatura media	17.3
173322	7	Sololá	716	San Marcos la Laguna 	11	San Marcos la laguna 	1	Enero	2023-01-27T00:00:00	2024-11-08T03:00:00	4	Temperatura máxima	17.9
173323	7	Sololá	716	San Marcos la Laguna 	11	San Marcos la laguna 	1	Enero	2023-01-27T00:00:00	2024-11-08T03:00:00	3	Temperatura mínima	17.3
173324	7	Sololá	716	San Marcos la Laguna 	11	San Marcos la laguna 	1	Enero	2023-01-27T00:00:00	2024-11-08T03:00:00	5	Humedad	70
173325	7	Sololá	716	San Marcos la Laguna 	11	San Marcos la laguna 	1	Enero	2023-01-27T00:00:00	2024-11-08T03:00:00	6	Velocidad del viento	4.8
173326	7	Sololá	716	San Marcos la Laguna 	11	San Marcos la laguna 	1	Enero	2023-01-27T00:00:00	2024-11-08T03:00:00	7	Dirección del viento	4.83
173327	7	Sololá	716	San Marcos la Laguna 	11	San Marcos la laguna 	1	Enero	2023-01-27T00:00:00	2024-11-08T03:00:00	1	Precipitación	0
173328	7	Sololá	716	San Marcos la Laguna 	11	San Marcos la laguna 	1	Enero	2023-01-27T00:00:00	2024-11-08T03:00:00	8	Radiación solar	0
173329	7	Sololá	716	San Marcos la Laguna 	11	San Marcos la laguna 	1	Enero	2023-01-27T00:00:00	2024-11-08T04:00:00	2	Temperatura media	16.8
173330	7	Sololá	716	San Marcos la Laguna 	11	San Marcos la laguna 	1	Enero	2023-01-27T00:00:00	2024-11-08T04:00:00	4	Temperatura máxima	17.8
173331	7	Sololá	716	San Marcos la Laguna 	11	San Marcos la laguna 	1	Enero	2023-01-27T00:00:00	2024-11-08T04:00:00	3	Temperatura mínima	16.8
173332	7	Sololá	716	San Marcos la Laguna 	11	San Marcos la laguna 	1	Enero	2023-01-27T00:00:00	2024-11-08T04:00:00	5	Humedad	73
173333	7	Sololá	716	San Marcos la Laguna 	11	San Marcos la laguna 	1	Enero	2023-01-27T00:00:00	2024-11-08T04:00:00	6	Velocidad del viento	4.8
173334	7	Sololá	716	San Marcos la Laguna 	11	San Marcos la laguna 	1	Enero	2023-01-27T00:00:00	2024-11-08T04:00:00	7	Dirección del viento	4.83
173335	7	Sololá	716	San Marcos la Laguna 	11	San Marcos la laguna 	1	Enero	2023-01-27T00:00:00	2024-11-08T04:00:00	1	Precipitación	0
173336	7	Sololá	716	San Marcos la Laguna 	11	San Marcos la laguna 	1	Enero	2023-01-27T00:00:00	2024-11-08T04:00:00	8	Radiación solar	0
173337	7	Sololá	716	San Marcos la Laguna 	11	San Marcos la laguna 	1	Enero	2023-01-27T00:00:00	2024-11-08T05:00:00	2	Temperatura media	16.9
173338	7	Sololá	716	San Marcos la Laguna 	11	San Marcos la laguna 	1	Enero	2023-01-27T00:00:00	2024-11-08T05:00:00	4	Temperatura máxima	16.9
173339	7	Sololá	716	San Marcos la Laguna 	11	San Marcos la laguna 	1	Enero	2023-01-27T00:00:00	2024-11-08T05:00:00	3	Temperatura mínima	16.5
173340	7	Sololá	716	San Marcos la Laguna 	11	San Marcos la laguna 	1	Enero	2023-01-27T00:00:00	2024-11-08T05:00:00	5	Humedad	72
173341	7	Sololá	716	San Marcos la Laguna 	11	San Marcos la laguna 	1	Enero	2023-01-27T00:00:00	2024-11-08T05:00:00	6	Velocidad del viento	4.8
173342	7	Sololá	716	San Marcos la Laguna 	11	San Marcos la laguna 	1	Enero	2023-01-27T00:00:00	2024-11-08T05:00:00	7	Dirección del viento	4.83
173343	7	Sololá	716	San Marcos la Laguna 	11	San Marcos la laguna 	1	Enero	2023-01-27T00:00:00	2024-11-08T05:00:00	1	Precipitación	0
173344	7	Sololá	716	San Marcos la Laguna 	11	San Marcos la laguna 	1	Enero	2023-01-27T00:00:00	2024-11-08T05:00:00	8	Radiación solar	0
173345	7	Sololá	716	San Marcos la Laguna 	11	San Marcos la laguna 	1	Enero	2023-01-27T00:00:00	2024-11-08T06:00:00	2	Temperatura media	16.4
173346	7	Sololá	716	San Marcos la Laguna 	11	San Marcos la laguna 	1	Enero	2023-01-27T00:00:00	2024-11-08T06:00:00	4	Temperatura máxima	17.1
173347	7	Sololá	716	San Marcos la Laguna 	11	San Marcos la laguna 	1	Enero	2023-01-27T00:00:00	2024-11-08T06:00:00	3	Temperatura mínima	15.8
173348	7	Sololá	716	San Marcos la Laguna 	11	San Marcos la laguna 	1	Enero	2023-01-27T00:00:00	2024-11-08T06:00:00	5	Humedad	74
173349	7	Sololá	716	San Marcos la Laguna 	11	San Marcos la laguna 	1	Enero	2023-01-27T00:00:00	2024-11-08T06:00:00	6	Velocidad del viento	4.8
173350	7	Sololá	716	San Marcos la Laguna 	11	San Marcos la laguna 	1	Enero	2023-01-27T00:00:00	2024-11-08T06:00:00	7	Dirección del viento	4.83
173351	7	Sololá	716	San Marcos la Laguna 	11	San Marcos la laguna 	1	Enero	2023-01-27T00:00:00	2024-11-08T06:00:00	1	Precipitación	0
173352	7	Sololá	716	San Marcos la Laguna 	11	San Marcos la laguna 	1	Enero	2023-01-27T00:00:00	2024-11-08T06:00:00	8	Radiación solar	0
173353	7	Sololá	716	San Marcos la Laguna 	11	San Marcos la laguna 	1	Enero	2023-01-27T00:00:00	2024-11-08T07:00:00	2	Temperatura media	16.6
173354	7	Sololá	716	San Marcos la Laguna 	11	San Marcos la laguna 	1	Enero	2023-01-27T00:00:00	2024-11-08T07:00:00	4	Temperatura máxima	18.1
173355	7	Sololá	716	San Marcos la Laguna 	11	San Marcos la laguna 	1	Enero	2023-01-27T00:00:00	2024-11-08T07:00:00	3	Temperatura mínima	16
173356	7	Sololá	716	San Marcos la Laguna 	11	San Marcos la laguna 	1	Enero	2023-01-27T00:00:00	2024-11-08T07:00:00	5	Humedad	73
173357	7	Sololá	716	San Marcos la Laguna 	11	San Marcos la laguna 	1	Enero	2023-01-27T00:00:00	2024-11-08T07:00:00	6	Velocidad del viento	6.4
173358	7	Sololá	716	San Marcos la Laguna 	11	San Marcos la laguna 	1	Enero	2023-01-27T00:00:00	2024-11-08T07:00:00	7	Dirección del viento	6.44
173359	7	Sololá	716	San Marcos la Laguna 	11	San Marcos la laguna 	1	Enero	2023-01-27T00:00:00	2024-11-08T07:00:00	1	Precipitación	0
173360	7	Sololá	716	San Marcos la Laguna 	11	San Marcos la laguna 	1	Enero	2023-01-27T00:00:00	2024-11-08T07:00:00	8	Radiación solar	5
173361	7	Sololá	716	San Marcos la Laguna 	11	San Marcos la laguna 	1	Enero	2023-01-27T00:00:00	2024-11-08T08:00:00	2	Temperatura media	20.1
173362	7	Sololá	716	San Marcos la Laguna 	11	San Marcos la laguna 	1	Enero	2023-01-27T00:00:00	2024-11-08T08:00:00	4	Temperatura máxima	20.2
173363	7	Sololá	716	San Marcos la Laguna 	11	San Marcos la laguna 	1	Enero	2023-01-27T00:00:00	2024-11-08T08:00:00	3	Temperatura mínima	16.6
173364	7	Sololá	716	San Marcos la Laguna 	11	San Marcos la laguna 	1	Enero	2023-01-27T00:00:00	2024-11-08T08:00:00	5	Humedad	61
173365	7	Sololá	716	San Marcos la Laguna 	11	San Marcos la laguna 	1	Enero	2023-01-27T00:00:00	2024-11-08T08:00:00	6	Velocidad del viento	9.7
173366	7	Sololá	716	San Marcos la Laguna 	11	San Marcos la laguna 	1	Enero	2023-01-27T00:00:00	2024-11-08T08:00:00	7	Dirección del viento	9.66
173367	7	Sololá	716	San Marcos la Laguna 	11	San Marcos la laguna 	1	Enero	2023-01-27T00:00:00	2024-11-08T08:00:00	1	Precipitación	0
173368	7	Sololá	716	San Marcos la Laguna 	11	San Marcos la laguna 	1	Enero	2023-01-27T00:00:00	2024-11-08T08:00:00	8	Radiación solar	126
173369	7	Sololá	716	San Marcos la Laguna 	11	San Marcos la laguna 	1	Enero	2023-01-27T00:00:00	2024-11-08T09:00:00	2	Temperatura media	21.2
173370	7	Sololá	716	San Marcos la Laguna 	11	San Marcos la laguna 	1	Enero	2023-01-27T00:00:00	2024-11-08T09:00:00	4	Temperatura máxima	21.2
173371	7	Sololá	716	San Marcos la Laguna 	11	San Marcos la laguna 	1	Enero	2023-01-27T00:00:00	2024-11-08T09:00:00	3	Temperatura mínima	20.1
173372	7	Sololá	716	San Marcos la Laguna 	11	San Marcos la laguna 	1	Enero	2023-01-27T00:00:00	2024-11-08T09:00:00	5	Humedad	57
173373	7	Sololá	716	San Marcos la Laguna 	11	San Marcos la laguna 	1	Enero	2023-01-27T00:00:00	2024-11-08T09:00:00	6	Velocidad del viento	17.7
173374	7	Sololá	716	San Marcos la Laguna 	11	San Marcos la laguna 	1	Enero	2023-01-27T00:00:00	2024-11-08T09:00:00	7	Dirección del viento	17.7
173375	7	Sololá	716	San Marcos la Laguna 	11	San Marcos la laguna 	1	Enero	2023-01-27T00:00:00	2024-11-08T09:00:00	1	Precipitación	0
173376	7	Sololá	716	San Marcos la Laguna 	11	San Marcos la laguna 	1	Enero	2023-01-27T00:00:00	2024-11-08T09:00:00	8	Radiación solar	333
173377	7	Sololá	716	San Marcos la Laguna 	11	San Marcos la laguna 	1	Enero	2023-01-27T00:00:00	2024-11-08T10:00:00	2	Temperatura media	21.6
173378	7	Sololá	716	San Marcos la Laguna 	11	San Marcos la laguna 	1	Enero	2023-01-27T00:00:00	2024-11-08T10:00:00	4	Temperatura máxima	21.8
173379	7	Sololá	716	San Marcos la Laguna 	11	San Marcos la laguna 	1	Enero	2023-01-27T00:00:00	2024-11-08T10:00:00	3	Temperatura mínima	21.2
173380	7	Sololá	716	San Marcos la Laguna 	11	San Marcos la laguna 	1	Enero	2023-01-27T00:00:00	2024-11-08T10:00:00	5	Humedad	58
173381	7	Sololá	716	San Marcos la Laguna 	11	San Marcos la laguna 	1	Enero	2023-01-27T00:00:00	2024-11-08T10:00:00	6	Velocidad del viento	20.9
173382	7	Sololá	716	San Marcos la Laguna 	11	San Marcos la laguna 	1	Enero	2023-01-27T00:00:00	2024-11-08T10:00:00	7	Dirección del viento	20.92
173383	7	Sololá	716	San Marcos la Laguna 	11	San Marcos la laguna 	1	Enero	2023-01-27T00:00:00	2024-11-08T10:00:00	1	Precipitación	0
173384	7	Sololá	716	San Marcos la Laguna 	11	San Marcos la laguna 	1	Enero	2023-01-27T00:00:00	2024-11-08T10:00:00	8	Radiación solar	525
173385	7	Sololá	716	San Marcos la Laguna 	11	San Marcos la laguna 	1	Enero	2023-01-27T00:00:00	2024-11-08T11:00:00	2	Temperatura media	21.6
173386	7	Sololá	716	San Marcos la Laguna 	11	San Marcos la laguna 	1	Enero	2023-01-27T00:00:00	2024-11-08T11:00:00	4	Temperatura máxima	21.9
173387	7	Sololá	716	San Marcos la Laguna 	11	San Marcos la laguna 	1	Enero	2023-01-27T00:00:00	2024-11-08T11:00:00	3	Temperatura mínima	21
173388	7	Sololá	716	San Marcos la Laguna 	11	San Marcos la laguna 	1	Enero	2023-01-27T00:00:00	2024-11-08T11:00:00	5	Humedad	57
173389	7	Sololá	716	San Marcos la Laguna 	11	San Marcos la laguna 	1	Enero	2023-01-27T00:00:00	2024-11-08T11:00:00	6	Velocidad del viento	29
173390	7	Sololá	716	San Marcos la Laguna 	11	San Marcos la laguna 	1	Enero	2023-01-27T00:00:00	2024-11-08T11:00:00	7	Dirección del viento	28.97
173391	7	Sololá	716	San Marcos la Laguna 	11	San Marcos la laguna 	1	Enero	2023-01-27T00:00:00	2024-11-08T11:00:00	1	Precipitación	0
173392	7	Sololá	716	San Marcos la Laguna 	11	San Marcos la laguna 	1	Enero	2023-01-27T00:00:00	2024-11-08T11:00:00	8	Radiación solar	602
173393	7	Sololá	716	San Marcos la Laguna 	11	San Marcos la laguna 	1	Enero	2023-01-27T00:00:00	2024-11-08T12:00:00	2	Temperatura media	22.1
173394	7	Sololá	716	San Marcos la Laguna 	11	San Marcos la laguna 	1	Enero	2023-01-27T00:00:00	2024-11-08T12:00:00	4	Temperatura máxima	22.1
173395	7	Sololá	716	San Marcos la Laguna 	11	San Marcos la laguna 	1	Enero	2023-01-27T00:00:00	2024-11-08T12:00:00	3	Temperatura mínima	21.2
173396	7	Sololá	716	San Marcos la Laguna 	11	San Marcos la laguna 	1	Enero	2023-01-27T00:00:00	2024-11-08T12:00:00	5	Humedad	56
173397	7	Sololá	716	San Marcos la Laguna 	11	San Marcos la laguna 	1	Enero	2023-01-27T00:00:00	2024-11-08T12:00:00	6	Velocidad del viento	29
173398	7	Sololá	716	San Marcos la Laguna 	11	San Marcos la laguna 	1	Enero	2023-01-27T00:00:00	2024-11-08T12:00:00	7	Dirección del viento	28.97
173399	7	Sololá	716	San Marcos la Laguna 	11	San Marcos la laguna 	1	Enero	2023-01-27T00:00:00	2024-11-08T12:00:00	1	Precipitación	0
173400	7	Sololá	716	San Marcos la Laguna 	11	San Marcos la laguna 	1	Enero	2023-01-27T00:00:00	2024-11-08T12:00:00	8	Radiación solar	696
173401	7	Sololá	716	San Marcos la Laguna 	11	San Marcos la laguna 	1	Enero	2023-01-27T00:00:00	2024-11-08T13:00:00	2	Temperatura media	21.6
173402	7	Sololá	716	San Marcos la Laguna 	11	San Marcos la laguna 	1	Enero	2023-01-27T00:00:00	2024-11-08T13:00:00	4	Temperatura máxima	22.2
173403	7	Sololá	716	San Marcos la Laguna 	11	San Marcos la laguna 	1	Enero	2023-01-27T00:00:00	2024-11-08T13:00:00	3	Temperatura mínima	21.4
173404	7	Sololá	716	San Marcos la Laguna 	11	San Marcos la laguna 	1	Enero	2023-01-27T00:00:00	2024-11-08T13:00:00	5	Humedad	58
173405	7	Sololá	716	San Marcos la Laguna 	11	San Marcos la laguna 	1	Enero	2023-01-27T00:00:00	2024-11-08T13:00:00	6	Velocidad del viento	29
173406	7	Sololá	716	San Marcos la Laguna 	11	San Marcos la laguna 	1	Enero	2023-01-27T00:00:00	2024-11-08T13:00:00	7	Dirección del viento	28.97
173407	7	Sololá	716	San Marcos la Laguna 	11	San Marcos la laguna 	1	Enero	2023-01-27T00:00:00	2024-11-08T13:00:00	1	Precipitación	0
173408	7	Sololá	716	San Marcos la Laguna 	11	San Marcos la laguna 	1	Enero	2023-01-27T00:00:00	2024-11-08T13:00:00	8	Radiación solar	669
173409	7	Sololá	716	San Marcos la Laguna 	11	San Marcos la laguna 	1	Enero	2023-01-27T00:00:00	2024-11-08T14:00:00	2	Temperatura media	21.2
173410	7	Sololá	716	San Marcos la Laguna 	11	San Marcos la laguna 	1	Enero	2023-01-27T00:00:00	2024-11-08T14:00:00	4	Temperatura máxima	21.9
173411	7	Sololá	716	San Marcos la Laguna 	11	San Marcos la laguna 	1	Enero	2023-01-27T00:00:00	2024-11-08T14:00:00	3	Temperatura mínima	21.1
173412	7	Sololá	716	San Marcos la Laguna 	11	San Marcos la laguna 	1	Enero	2023-01-27T00:00:00	2024-11-08T14:00:00	5	Humedad	62
173413	7	Sololá	716	San Marcos la Laguna 	11	San Marcos la laguna 	1	Enero	2023-01-27T00:00:00	2024-11-08T14:00:00	6	Velocidad del viento	27.4
173414	7	Sololá	716	San Marcos la Laguna 	11	San Marcos la laguna 	1	Enero	2023-01-27T00:00:00	2024-11-08T14:00:00	7	Dirección del viento	27.36
173415	7	Sololá	716	San Marcos la Laguna 	11	San Marcos la laguna 	1	Enero	2023-01-27T00:00:00	2024-11-08T14:00:00	1	Precipitación	0
173416	7	Sololá	716	San Marcos la Laguna 	11	San Marcos la laguna 	1	Enero	2023-01-27T00:00:00	2024-11-08T14:00:00	8	Radiación solar	330
173417	7	Sololá	716	San Marcos la Laguna 	11	San Marcos la laguna 	1	Enero	2023-01-27T00:00:00	2024-11-08T15:00:00	2	Temperatura media	20.9
173418	7	Sololá	716	San Marcos la Laguna 	11	San Marcos la laguna 	1	Enero	2023-01-27T00:00:00	2024-11-08T15:00:00	4	Temperatura máxima	21.6
173419	7	Sololá	716	San Marcos la Laguna 	11	San Marcos la laguna 	1	Enero	2023-01-27T00:00:00	2024-11-08T15:00:00	3	Temperatura mínima	20.8
173420	7	Sololá	716	San Marcos la Laguna 	11	San Marcos la laguna 	1	Enero	2023-01-27T00:00:00	2024-11-08T15:00:00	5	Humedad	65
173421	7	Sololá	716	San Marcos la Laguna 	11	San Marcos la laguna 	1	Enero	2023-01-27T00:00:00	2024-11-08T15:00:00	6	Velocidad del viento	27.4
173422	7	Sololá	716	San Marcos la Laguna 	11	San Marcos la laguna 	1	Enero	2023-01-27T00:00:00	2024-11-08T15:00:00	7	Dirección del viento	27.36
173423	7	Sololá	716	San Marcos la Laguna 	11	San Marcos la laguna 	1	Enero	2023-01-27T00:00:00	2024-11-08T15:00:00	1	Precipitación	0
173424	7	Sololá	716	San Marcos la Laguna 	11	San Marcos la laguna 	1	Enero	2023-01-27T00:00:00	2024-11-08T15:00:00	8	Radiación solar	440
173425	7	Sololá	716	San Marcos la Laguna 	11	San Marcos la laguna 	1	Enero	2023-01-27T00:00:00	2024-11-08T16:00:00	2	Temperatura media	21.1
173426	7	Sololá	716	San Marcos la Laguna 	11	San Marcos la laguna 	1	Enero	2023-01-27T00:00:00	2024-11-08T16:00:00	4	Temperatura máxima	21.6
173427	7	Sololá	716	San Marcos la Laguna 	11	San Marcos la laguna 	1	Enero	2023-01-27T00:00:00	2024-11-08T16:00:00	3	Temperatura mínima	20.9
173428	7	Sololá	716	San Marcos la Laguna 	11	San Marcos la laguna 	1	Enero	2023-01-27T00:00:00	2024-11-08T16:00:00	5	Humedad	61
173429	7	Sololá	716	San Marcos la Laguna 	11	San Marcos la laguna 	1	Enero	2023-01-27T00:00:00	2024-11-08T16:00:00	6	Velocidad del viento	27.4
173430	7	Sololá	716	San Marcos la Laguna 	11	San Marcos la laguna 	1	Enero	2023-01-27T00:00:00	2024-11-08T16:00:00	7	Dirección del viento	27.36
173431	7	Sololá	716	San Marcos la Laguna 	11	San Marcos la laguna 	1	Enero	2023-01-27T00:00:00	2024-11-08T16:00:00	1	Precipitación	0
173432	7	Sololá	716	San Marcos la Laguna 	11	San Marcos la laguna 	1	Enero	2023-01-27T00:00:00	2024-11-08T16:00:00	8	Radiación solar	409
173433	7	Sololá	716	San Marcos la Laguna 	11	San Marcos la laguna 	1	Enero	2023-01-27T00:00:00	2024-11-08T17:00:00	2	Temperatura media	20.8
173434	7	Sololá	716	San Marcos la Laguna 	11	San Marcos la laguna 	1	Enero	2023-01-27T00:00:00	2024-11-08T17:00:00	4	Temperatura máxima	21.1
173435	7	Sololá	716	San Marcos la Laguna 	11	San Marcos la laguna 	1	Enero	2023-01-27T00:00:00	2024-11-08T17:00:00	3	Temperatura mínima	20.7
173436	7	Sololá	716	San Marcos la Laguna 	11	San Marcos la laguna 	1	Enero	2023-01-27T00:00:00	2024-11-08T17:00:00	5	Humedad	62
173437	7	Sololá	716	San Marcos la Laguna 	11	San Marcos la laguna 	1	Enero	2023-01-27T00:00:00	2024-11-08T17:00:00	6	Velocidad del viento	24.1
173438	7	Sololá	716	San Marcos la Laguna 	11	San Marcos la laguna 	1	Enero	2023-01-27T00:00:00	2024-11-08T17:00:00	7	Dirección del viento	24.14
173439	7	Sololá	716	San Marcos la Laguna 	11	San Marcos la laguna 	1	Enero	2023-01-27T00:00:00	2024-11-08T17:00:00	1	Precipitación	0
173440	7	Sololá	716	San Marcos la Laguna 	11	San Marcos la laguna 	1	Enero	2023-01-27T00:00:00	2024-11-08T17:00:00	8	Radiación solar	79
173441	7	Sololá	716	San Marcos la Laguna 	11	San Marcos la laguna 	1	Enero	2023-01-27T00:00:00	2024-11-08T18:00:00	2	Temperatura media	20.6
173442	7	Sololá	716	San Marcos la Laguna 	11	San Marcos la laguna 	1	Enero	2023-01-27T00:00:00	2024-11-08T18:00:00	4	Temperatura máxima	20.9
173443	7	Sololá	716	San Marcos la Laguna 	11	San Marcos la laguna 	1	Enero	2023-01-27T00:00:00	2024-11-08T18:00:00	3	Temperatura mínima	20.4
173444	7	Sololá	716	San Marcos la Laguna 	11	San Marcos la laguna 	1	Enero	2023-01-27T00:00:00	2024-11-08T18:00:00	5	Humedad	65
173445	7	Sololá	716	San Marcos la Laguna 	11	San Marcos la laguna 	1	Enero	2023-01-27T00:00:00	2024-11-08T18:00:00	6	Velocidad del viento	22.5
173446	7	Sololá	716	San Marcos la Laguna 	11	San Marcos la laguna 	1	Enero	2023-01-27T00:00:00	2024-11-08T18:00:00	7	Dirección del viento	22.53
173447	7	Sololá	716	San Marcos la Laguna 	11	San Marcos la laguna 	1	Enero	2023-01-27T00:00:00	2024-11-08T18:00:00	1	Precipitación	0
173448	7	Sololá	716	San Marcos la Laguna 	11	San Marcos la laguna 	1	Enero	2023-01-27T00:00:00	2024-11-08T18:00:00	8	Radiación solar	32
173449	7	Sololá	716	San Marcos la Laguna 	11	San Marcos la laguna 	1	Enero	2023-01-27T00:00:00	2024-11-08T19:00:00	2	Temperatura media	20.1
173450	7	Sololá	716	San Marcos la Laguna 	11	San Marcos la laguna 	1	Enero	2023-01-27T00:00:00	2024-11-08T19:00:00	4	Temperatura máxima	20.7
173451	7	Sololá	716	San Marcos la Laguna 	11	San Marcos la laguna 	1	Enero	2023-01-27T00:00:00	2024-11-08T19:00:00	3	Temperatura mínima	20.1
173452	7	Sololá	716	San Marcos la Laguna 	11	San Marcos la laguna 	1	Enero	2023-01-27T00:00:00	2024-11-08T19:00:00	5	Humedad	63
173453	7	Sololá	716	San Marcos la Laguna 	11	San Marcos la laguna 	1	Enero	2023-01-27T00:00:00	2024-11-08T19:00:00	6	Velocidad del viento	16.1
173454	7	Sololá	716	San Marcos la Laguna 	11	San Marcos la laguna 	1	Enero	2023-01-27T00:00:00	2024-11-08T19:00:00	7	Dirección del viento	16.09
173455	7	Sololá	716	San Marcos la Laguna 	11	San Marcos la laguna 	1	Enero	2023-01-27T00:00:00	2024-11-08T19:00:00	1	Precipitación	0
173456	7	Sololá	716	San Marcos la Laguna 	11	San Marcos la laguna 	1	Enero	2023-01-27T00:00:00	2024-11-08T19:00:00	8	Radiación solar	0
173457	7	Sololá	716	San Marcos la Laguna 	11	San Marcos la laguna 	1	Enero	2023-01-27T00:00:00	2024-11-08T20:00:00	2	Temperatura media	19.4
173458	7	Sololá	716	San Marcos la Laguna 	11	San Marcos la laguna 	1	Enero	2023-01-27T00:00:00	2024-11-08T20:00:00	4	Temperatura máxima	20.1
173459	7	Sololá	716	San Marcos la Laguna 	11	San Marcos la laguna 	1	Enero	2023-01-27T00:00:00	2024-11-08T20:00:00	3	Temperatura mínima	19.2
173460	7	Sololá	716	San Marcos la Laguna 	11	San Marcos la laguna 	1	Enero	2023-01-27T00:00:00	2024-11-08T20:00:00	5	Humedad	66
173461	7	Sololá	716	San Marcos la Laguna 	11	San Marcos la laguna 	1	Enero	2023-01-27T00:00:00	2024-11-08T20:00:00	6	Velocidad del viento	27.4
173462	7	Sololá	716	San Marcos la Laguna 	11	San Marcos la laguna 	1	Enero	2023-01-27T00:00:00	2024-11-08T20:00:00	7	Dirección del viento	27.36
173463	7	Sololá	716	San Marcos la Laguna 	11	San Marcos la laguna 	1	Enero	2023-01-27T00:00:00	2024-11-08T20:00:00	1	Precipitación	0
173464	7	Sololá	716	San Marcos la Laguna 	11	San Marcos la laguna 	1	Enero	2023-01-27T00:00:00	2024-11-08T20:00:00	8	Radiación solar	0
173465	7	Sololá	716	San Marcos la Laguna 	11	San Marcos la laguna 	1	Enero	2023-01-27T00:00:00	2024-11-08T21:00:00	2	Temperatura media	19
173466	7	Sololá	716	San Marcos la Laguna 	11	San Marcos la laguna 	1	Enero	2023-01-27T00:00:00	2024-11-08T21:00:00	4	Temperatura máxima	19.6
173467	7	Sololá	716	San Marcos la Laguna 	11	San Marcos la laguna 	1	Enero	2023-01-27T00:00:00	2024-11-08T21:00:00	3	Temperatura mínima	19
173468	7	Sololá	716	San Marcos la Laguna 	11	San Marcos la laguna 	1	Enero	2023-01-27T00:00:00	2024-11-08T21:00:00	5	Humedad	69
173469	7	Sololá	716	San Marcos la Laguna 	11	San Marcos la laguna 	1	Enero	2023-01-27T00:00:00	2024-11-08T21:00:00	6	Velocidad del viento	25.7
173470	7	Sololá	716	San Marcos la Laguna 	11	San Marcos la laguna 	1	Enero	2023-01-27T00:00:00	2024-11-08T21:00:00	7	Dirección del viento	25.75
173471	7	Sololá	716	San Marcos la Laguna 	11	San Marcos la laguna 	1	Enero	2023-01-27T00:00:00	2024-11-08T21:00:00	1	Precipitación	0
173472	7	Sololá	716	San Marcos la Laguna 	11	San Marcos la laguna 	1	Enero	2023-01-27T00:00:00	2024-11-08T21:00:00	8	Radiación solar	0
173473	7	Sololá	716	San Marcos la Laguna 	11	San Marcos la laguna 	1	Enero	2023-01-27T00:00:00	2024-11-08T22:00:00	2	Temperatura media	19.3
173474	7	Sololá	716	San Marcos la Laguna 	11	San Marcos la laguna 	1	Enero	2023-01-27T00:00:00	2024-11-08T22:00:00	4	Temperatura máxima	19.3
173475	7	Sololá	716	San Marcos la Laguna 	11	San Marcos la laguna 	1	Enero	2023-01-27T00:00:00	2024-11-08T22:00:00	3	Temperatura mínima	18.9
173476	7	Sololá	716	San Marcos la Laguna 	11	San Marcos la laguna 	1	Enero	2023-01-27T00:00:00	2024-11-08T22:00:00	5	Humedad	62
173477	7	Sololá	716	San Marcos la Laguna 	11	San Marcos la laguna 	1	Enero	2023-01-27T00:00:00	2024-11-08T22:00:00	6	Velocidad del viento	25.7
173478	7	Sololá	716	San Marcos la Laguna 	11	San Marcos la laguna 	1	Enero	2023-01-27T00:00:00	2024-11-08T22:00:00	7	Dirección del viento	25.75
173479	7	Sololá	716	San Marcos la Laguna 	11	San Marcos la laguna 	1	Enero	2023-01-27T00:00:00	2024-11-08T22:00:00	1	Precipitación	0
173480	7	Sololá	716	San Marcos la Laguna 	11	San Marcos la laguna 	1	Enero	2023-01-27T00:00:00	2024-11-08T22:00:00	8	Radiación solar	0
173481	7	Sololá	716	San Marcos la Laguna 	11	San Marcos la laguna 	1	Enero	2023-01-27T00:00:00	2024-11-08T23:00:00	2	Temperatura media	20.4
173482	7	Sololá	716	San Marcos la Laguna 	11	San Marcos la laguna 	1	Enero	2023-01-27T00:00:00	2024-11-08T23:00:00	4	Temperatura máxima	20.4
173483	7	Sololá	716	San Marcos la Laguna 	11	San Marcos la laguna 	1	Enero	2023-01-27T00:00:00	2024-11-08T23:00:00	3	Temperatura mínima	19.3
173484	7	Sololá	716	San Marcos la Laguna 	11	San Marcos la laguna 	1	Enero	2023-01-27T00:00:00	2024-11-08T23:00:00	5	Humedad	44
173485	7	Sololá	716	San Marcos la Laguna 	11	San Marcos la laguna 	1	Enero	2023-01-27T00:00:00	2024-11-08T23:00:00	6	Velocidad del viento	17.7
173486	7	Sololá	716	San Marcos la Laguna 	11	San Marcos la laguna 	1	Enero	2023-01-27T00:00:00	2024-11-08T23:00:00	7	Dirección del viento	17.7
173487	7	Sololá	716	San Marcos la Laguna 	11	San Marcos la laguna 	1	Enero	2023-01-27T00:00:00	2024-11-08T23:00:00	1	Precipitación	0
173488	7	Sololá	716	San Marcos la Laguna 	11	San Marcos la laguna 	1	Enero	2023-01-27T00:00:00	2024-11-08T23:00:00	8	Radiación solar	0
173489	7	Sololá	716	San Marcos la Laguna 	11	San Marcos la laguna 	1	Enero	2023-01-28T00:00:00	2024-11-08T00:00:00	2	Temperatura media	17.9
173490	7	Sololá	716	San Marcos la Laguna 	11	San Marcos la laguna 	1	Enero	2023-01-28T00:00:00	2024-11-08T00:00:00	4	Temperatura máxima	20.6
173491	7	Sololá	716	San Marcos la Laguna 	11	San Marcos la laguna 	1	Enero	2023-01-28T00:00:00	2024-11-08T00:00:00	3	Temperatura mínima	17.9
173492	7	Sololá	716	San Marcos la Laguna 	11	San Marcos la laguna 	1	Enero	2023-01-28T00:00:00	2024-11-08T00:00:00	5	Humedad	60
173493	7	Sololá	716	San Marcos la Laguna 	11	San Marcos la laguna 	1	Enero	2023-01-28T00:00:00	2024-11-08T00:00:00	6	Velocidad del viento	32.2
173494	7	Sololá	716	San Marcos la Laguna 	11	San Marcos la laguna 	1	Enero	2023-01-28T00:00:00	2024-11-08T00:00:00	7	Dirección del viento	32.19
173495	7	Sololá	716	San Marcos la Laguna 	11	San Marcos la laguna 	1	Enero	2023-01-28T00:00:00	2024-11-08T00:00:00	1	Precipitación	0
173496	7	Sololá	716	San Marcos la Laguna 	11	San Marcos la laguna 	1	Enero	2023-01-28T00:00:00	2024-11-08T00:00:00	8	Radiación solar	0
173497	7	Sololá	716	San Marcos la Laguna 	11	San Marcos la laguna 	1	Enero	2023-01-28T00:00:00	2024-11-08T01:00:00	2	Temperatura media	18.7
173498	7	Sololá	716	San Marcos la Laguna 	11	San Marcos la laguna 	1	Enero	2023-01-28T00:00:00	2024-11-08T01:00:00	4	Temperatura máxima	18.8
173499	7	Sololá	716	San Marcos la Laguna 	11	San Marcos la laguna 	1	Enero	2023-01-28T00:00:00	2024-11-08T01:00:00	3	Temperatura mínima	17.8
173500	7	Sololá	716	San Marcos la Laguna 	11	San Marcos la laguna 	1	Enero	2023-01-28T00:00:00	2024-11-08T01:00:00	5	Humedad	37
173501	7	Sololá	716	San Marcos la Laguna 	11	San Marcos la laguna 	1	Enero	2023-01-28T00:00:00	2024-11-08T01:00:00	6	Velocidad del viento	24.1
173502	7	Sololá	716	San Marcos la Laguna 	11	San Marcos la laguna 	1	Enero	2023-01-28T00:00:00	2024-11-08T01:00:00	7	Dirección del viento	24.14
173503	7	Sololá	716	San Marcos la Laguna 	11	San Marcos la laguna 	1	Enero	2023-01-28T00:00:00	2024-11-08T01:00:00	1	Precipitación	0
173504	7	Sololá	716	San Marcos la Laguna 	11	San Marcos la laguna 	1	Enero	2023-01-28T00:00:00	2024-11-08T01:00:00	8	Radiación solar	0
173505	7	Sololá	716	San Marcos la Laguna 	11	San Marcos la laguna 	1	Enero	2023-01-28T00:00:00	2024-11-08T02:00:00	2	Temperatura media	19.1
173506	7	Sololá	716	San Marcos la Laguna 	11	San Marcos la laguna 	1	Enero	2023-01-28T00:00:00	2024-11-08T02:00:00	4	Temperatura máxima	19.5
173507	7	Sololá	716	San Marcos la Laguna 	11	San Marcos la laguna 	1	Enero	2023-01-28T00:00:00	2024-11-08T02:00:00	3	Temperatura mínima	15.4
173508	7	Sololá	716	San Marcos la Laguna 	11	San Marcos la laguna 	1	Enero	2023-01-28T00:00:00	2024-11-08T02:00:00	5	Humedad	35
173509	7	Sololá	716	San Marcos la Laguna 	11	San Marcos la laguna 	1	Enero	2023-01-28T00:00:00	2024-11-08T02:00:00	6	Velocidad del viento	8
173510	7	Sololá	716	San Marcos la Laguna 	11	San Marcos la laguna 	1	Enero	2023-01-28T00:00:00	2024-11-08T02:00:00	7	Dirección del viento	8.05
173511	7	Sololá	716	San Marcos la Laguna 	11	San Marcos la laguna 	1	Enero	2023-01-28T00:00:00	2024-11-08T02:00:00	1	Precipitación	0
173512	7	Sololá	716	San Marcos la Laguna 	11	San Marcos la laguna 	1	Enero	2023-01-28T00:00:00	2024-11-08T02:00:00	8	Radiación solar	0
173513	7	Sololá	716	San Marcos la Laguna 	11	San Marcos la laguna 	1	Enero	2023-01-28T00:00:00	2024-11-08T03:00:00	2	Temperatura media	15.3
173514	7	Sololá	716	San Marcos la Laguna 	11	San Marcos la laguna 	1	Enero	2023-01-28T00:00:00	2024-11-08T03:00:00	4	Temperatura máxima	19.2
173515	7	Sololá	716	San Marcos la Laguna 	11	San Marcos la laguna 	1	Enero	2023-01-28T00:00:00	2024-11-08T03:00:00	3	Temperatura mínima	15.3
173516	7	Sololá	716	San Marcos la Laguna 	11	San Marcos la laguna 	1	Enero	2023-01-28T00:00:00	2024-11-08T03:00:00	5	Humedad	48
173517	7	Sololá	716	San Marcos la Laguna 	11	San Marcos la laguna 	1	Enero	2023-01-28T00:00:00	2024-11-08T03:00:00	6	Velocidad del viento	8
173518	7	Sololá	716	San Marcos la Laguna 	11	San Marcos la laguna 	1	Enero	2023-01-28T00:00:00	2024-11-08T03:00:00	7	Dirección del viento	8.05
173519	7	Sololá	716	San Marcos la Laguna 	11	San Marcos la laguna 	1	Enero	2023-01-28T00:00:00	2024-11-08T03:00:00	1	Precipitación	0
173520	7	Sololá	716	San Marcos la Laguna 	11	San Marcos la laguna 	1	Enero	2023-01-28T00:00:00	2024-11-08T03:00:00	8	Radiación solar	0
173521	7	Sololá	716	San Marcos la Laguna 	11	San Marcos la laguna 	1	Enero	2023-01-28T00:00:00	2024-11-08T04:00:00	2	Temperatura media	15.5
173522	7	Sololá	716	San Marcos la Laguna 	11	San Marcos la laguna 	1	Enero	2023-01-28T00:00:00	2024-11-08T04:00:00	4	Temperatura máxima	17.9
173523	7	Sololá	716	San Marcos la Laguna 	11	San Marcos la laguna 	1	Enero	2023-01-28T00:00:00	2024-11-08T04:00:00	3	Temperatura mínima	14.2
173524	7	Sololá	716	San Marcos la Laguna 	11	San Marcos la laguna 	1	Enero	2023-01-28T00:00:00	2024-11-08T04:00:00	5	Humedad	52
173525	7	Sololá	716	San Marcos la Laguna 	11	San Marcos la laguna 	1	Enero	2023-01-28T00:00:00	2024-11-08T04:00:00	6	Velocidad del viento	6.4
173526	7	Sololá	716	San Marcos la Laguna 	11	San Marcos la laguna 	1	Enero	2023-01-28T00:00:00	2024-11-08T04:00:00	7	Dirección del viento	6.44
173527	7	Sololá	716	San Marcos la Laguna 	11	San Marcos la laguna 	1	Enero	2023-01-28T00:00:00	2024-11-08T04:00:00	1	Precipitación	0
173528	7	Sololá	716	San Marcos la Laguna 	11	San Marcos la laguna 	1	Enero	2023-01-28T00:00:00	2024-11-08T04:00:00	8	Radiación solar	0
173529	7	Sololá	716	San Marcos la Laguna 	11	San Marcos la laguna 	1	Enero	2023-01-28T00:00:00	2024-11-08T05:00:00	2	Temperatura media	18.4
173530	7	Sololá	716	San Marcos la Laguna 	11	San Marcos la laguna 	1	Enero	2023-01-28T00:00:00	2024-11-08T05:00:00	4	Temperatura máxima	19.3
173531	7	Sololá	716	San Marcos la Laguna 	11	San Marcos la laguna 	1	Enero	2023-01-28T00:00:00	2024-11-08T05:00:00	3	Temperatura mínima	15.4
173532	7	Sololá	716	San Marcos la Laguna 	11	San Marcos la laguna 	1	Enero	2023-01-28T00:00:00	2024-11-08T05:00:00	5	Humedad	64
173533	7	Sololá	716	San Marcos la Laguna 	11	San Marcos la laguna 	1	Enero	2023-01-28T00:00:00	2024-11-08T05:00:00	6	Velocidad del viento	22.5
173534	7	Sololá	716	San Marcos la Laguna 	11	San Marcos la laguna 	1	Enero	2023-01-28T00:00:00	2024-11-08T05:00:00	7	Dirección del viento	22.53
173535	7	Sololá	716	San Marcos la Laguna 	11	San Marcos la laguna 	1	Enero	2023-01-28T00:00:00	2024-11-08T05:00:00	1	Precipitación	0
173536	7	Sololá	716	San Marcos la Laguna 	11	San Marcos la laguna 	1	Enero	2023-01-28T00:00:00	2024-11-08T05:00:00	8	Radiación solar	0
173537	7	Sololá	716	San Marcos la Laguna 	11	San Marcos la laguna 	1	Enero	2023-01-28T00:00:00	2024-11-08T06:00:00	2	Temperatura media	18.7
173538	7	Sololá	716	San Marcos la Laguna 	11	San Marcos la laguna 	1	Enero	2023-01-28T00:00:00	2024-11-08T06:00:00	4	Temperatura máxima	18.9
173539	7	Sololá	716	San Marcos la Laguna 	11	San Marcos la laguna 	1	Enero	2023-01-28T00:00:00	2024-11-08T06:00:00	3	Temperatura mínima	18.4
173540	7	Sololá	716	San Marcos la Laguna 	11	San Marcos la laguna 	1	Enero	2023-01-28T00:00:00	2024-11-08T06:00:00	5	Humedad	62
173541	7	Sololá	716	San Marcos la Laguna 	11	San Marcos la laguna 	1	Enero	2023-01-28T00:00:00	2024-11-08T06:00:00	6	Velocidad del viento	27.4
173542	7	Sololá	716	San Marcos la Laguna 	11	San Marcos la laguna 	1	Enero	2023-01-28T00:00:00	2024-11-08T06:00:00	7	Dirección del viento	27.36
173543	7	Sololá	716	San Marcos la Laguna 	11	San Marcos la laguna 	1	Enero	2023-01-28T00:00:00	2024-11-08T06:00:00	1	Precipitación	0
173544	7	Sololá	716	San Marcos la Laguna 	11	San Marcos la laguna 	1	Enero	2023-01-28T00:00:00	2024-11-08T06:00:00	8	Radiación solar	0
173545	7	Sololá	716	San Marcos la Laguna 	11	San Marcos la laguna 	1	Enero	2023-01-28T00:00:00	2024-11-08T07:00:00	2	Temperatura media	19.1
173546	7	Sololá	716	San Marcos la Laguna 	11	San Marcos la laguna 	1	Enero	2023-01-28T00:00:00	2024-11-08T07:00:00	4	Temperatura máxima	19.1
173547	7	Sololá	716	San Marcos la Laguna 	11	San Marcos la laguna 	1	Enero	2023-01-28T00:00:00	2024-11-08T07:00:00	3	Temperatura mínima	18.7
173548	7	Sololá	716	San Marcos la Laguna 	11	San Marcos la laguna 	1	Enero	2023-01-28T00:00:00	2024-11-08T07:00:00	5	Humedad	59
173549	7	Sololá	716	San Marcos la Laguna 	11	San Marcos la laguna 	1	Enero	2023-01-28T00:00:00	2024-11-08T07:00:00	6	Velocidad del viento	30.6
173550	7	Sololá	716	San Marcos la Laguna 	11	San Marcos la laguna 	1	Enero	2023-01-28T00:00:00	2024-11-08T07:00:00	7	Dirección del viento	30.58
173551	7	Sololá	716	San Marcos la Laguna 	11	San Marcos la laguna 	1	Enero	2023-01-28T00:00:00	2024-11-08T07:00:00	1	Precipitación	0
173552	7	Sololá	716	San Marcos la Laguna 	11	San Marcos la laguna 	1	Enero	2023-01-28T00:00:00	2024-11-08T07:00:00	8	Radiación solar	3
173553	7	Sololá	716	San Marcos la Laguna 	11	San Marcos la laguna 	1	Enero	2023-01-28T00:00:00	2024-11-08T08:00:00	2	Temperatura media	19.8
173554	7	Sololá	716	San Marcos la Laguna 	11	San Marcos la laguna 	1	Enero	2023-01-28T00:00:00	2024-11-08T08:00:00	4	Temperatura máxima	20.1
173555	7	Sololá	716	San Marcos la Laguna 	11	San Marcos la laguna 	1	Enero	2023-01-28T00:00:00	2024-11-08T08:00:00	3	Temperatura mínima	18.9
173556	7	Sololá	716	San Marcos la Laguna 	11	San Marcos la laguna 	1	Enero	2023-01-28T00:00:00	2024-11-08T08:00:00	5	Humedad	65
173557	7	Sololá	716	San Marcos la Laguna 	11	San Marcos la laguna 	1	Enero	2023-01-28T00:00:00	2024-11-08T08:00:00	6	Velocidad del viento	24.1
173558	7	Sololá	716	San Marcos la Laguna 	11	San Marcos la laguna 	1	Enero	2023-01-28T00:00:00	2024-11-08T08:00:00	7	Dirección del viento	24.14
173559	7	Sololá	716	San Marcos la Laguna 	11	San Marcos la laguna 	1	Enero	2023-01-28T00:00:00	2024-11-08T08:00:00	1	Precipitación	0
173560	7	Sololá	716	San Marcos la Laguna 	11	San Marcos la laguna 	1	Enero	2023-01-28T00:00:00	2024-11-08T08:00:00	8	Radiación solar	116
173561	7	Sololá	716	San Marcos la Laguna 	11	San Marcos la laguna 	1	Enero	2023-01-28T00:00:00	2024-11-08T09:00:00	2	Temperatura media	21.4
173562	7	Sololá	716	San Marcos la Laguna 	11	San Marcos la laguna 	1	Enero	2023-01-28T00:00:00	2024-11-08T09:00:00	4	Temperatura máxima	21.4
173563	7	Sololá	716	San Marcos la Laguna 	11	San Marcos la laguna 	1	Enero	2023-01-28T00:00:00	2024-11-08T09:00:00	3	Temperatura mínima	19.8
173564	7	Sololá	716	San Marcos la Laguna 	11	San Marcos la laguna 	1	Enero	2023-01-28T00:00:00	2024-11-08T09:00:00	5	Humedad	49
173565	7	Sololá	716	San Marcos la Laguna 	11	San Marcos la laguna 	1	Enero	2023-01-28T00:00:00	2024-11-08T09:00:00	6	Velocidad del viento	29
173566	7	Sololá	716	San Marcos la Laguna 	11	San Marcos la laguna 	1	Enero	2023-01-28T00:00:00	2024-11-08T09:00:00	7	Dirección del viento	28.97
173567	7	Sololá	716	San Marcos la Laguna 	11	San Marcos la laguna 	1	Enero	2023-01-28T00:00:00	2024-11-08T09:00:00	1	Precipitación	0
173568	7	Sololá	716	San Marcos la Laguna 	11	San Marcos la laguna 	1	Enero	2023-01-28T00:00:00	2024-11-08T09:00:00	8	Radiación solar	349
173569	7	Sololá	716	San Marcos la Laguna 	11	San Marcos la laguna 	1	Enero	2023-01-28T00:00:00	2024-11-08T10:00:00	2	Temperatura media	22.4
173570	7	Sololá	716	San Marcos la Laguna 	11	San Marcos la laguna 	1	Enero	2023-01-28T00:00:00	2024-11-08T10:00:00	4	Temperatura máxima	22.6
173571	7	Sololá	716	San Marcos la Laguna 	11	San Marcos la laguna 	1	Enero	2023-01-28T00:00:00	2024-11-08T10:00:00	3	Temperatura mínima	21.4
173572	7	Sololá	716	San Marcos la Laguna 	11	San Marcos la laguna 	1	Enero	2023-01-28T00:00:00	2024-11-08T10:00:00	5	Humedad	32
173573	7	Sololá	716	San Marcos la Laguna 	11	San Marcos la laguna 	1	Enero	2023-01-28T00:00:00	2024-11-08T10:00:00	6	Velocidad del viento	24.1
173574	7	Sololá	716	San Marcos la Laguna 	11	San Marcos la laguna 	1	Enero	2023-01-28T00:00:00	2024-11-08T10:00:00	7	Dirección del viento	24.14
173575	7	Sololá	716	San Marcos la Laguna 	11	San Marcos la laguna 	1	Enero	2023-01-28T00:00:00	2024-11-08T10:00:00	1	Precipitación	0
173576	7	Sololá	716	San Marcos la Laguna 	11	San Marcos la laguna 	1	Enero	2023-01-28T00:00:00	2024-11-08T10:00:00	8	Radiación solar	548
173577	7	Sololá	716	San Marcos la Laguna 	11	San Marcos la laguna 	1	Enero	2023-01-28T00:00:00	2024-11-08T11:00:00	2	Temperatura media	22.6
173578	7	Sololá	716	San Marcos la Laguna 	11	San Marcos la laguna 	1	Enero	2023-01-28T00:00:00	2024-11-08T11:00:00	4	Temperatura máxima	23.3
173579	7	Sololá	716	San Marcos la Laguna 	11	San Marcos la laguna 	1	Enero	2023-01-28T00:00:00	2024-11-08T11:00:00	3	Temperatura mínima	22.4
173580	7	Sololá	716	San Marcos la Laguna 	11	San Marcos la laguna 	1	Enero	2023-01-28T00:00:00	2024-11-08T11:00:00	5	Humedad	35
173581	7	Sololá	716	San Marcos la Laguna 	11	San Marcos la laguna 	1	Enero	2023-01-28T00:00:00	2024-11-08T11:00:00	6	Velocidad del viento	19.3
173582	7	Sololá	716	San Marcos la Laguna 	11	San Marcos la laguna 	1	Enero	2023-01-28T00:00:00	2024-11-08T11:00:00	7	Dirección del viento	19.31
173583	7	Sololá	716	San Marcos la Laguna 	11	San Marcos la laguna 	1	Enero	2023-01-28T00:00:00	2024-11-08T11:00:00	1	Precipitación	0
173584	7	Sololá	716	San Marcos la Laguna 	11	San Marcos la laguna 	1	Enero	2023-01-28T00:00:00	2024-11-08T11:00:00	8	Radiación solar	624
173585	7	Sololá	716	San Marcos la Laguna 	11	San Marcos la laguna 	1	Enero	2023-01-28T00:00:00	2024-11-08T12:00:00	2	Temperatura media	23.6
173586	7	Sololá	716	San Marcos la Laguna 	11	San Marcos la laguna 	1	Enero	2023-01-28T00:00:00	2024-11-08T12:00:00	4	Temperatura máxima	23.6
173587	7	Sololá	716	San Marcos la Laguna 	11	San Marcos la laguna 	1	Enero	2023-01-28T00:00:00	2024-11-08T12:00:00	3	Temperatura mínima	22.6
173588	7	Sololá	716	San Marcos la Laguna 	11	San Marcos la laguna 	1	Enero	2023-01-28T00:00:00	2024-11-08T12:00:00	5	Humedad	42
173589	7	Sololá	716	San Marcos la Laguna 	11	San Marcos la laguna 	1	Enero	2023-01-28T00:00:00	2024-11-08T12:00:00	6	Velocidad del viento	8
173590	7	Sololá	716	San Marcos la Laguna 	11	San Marcos la laguna 	1	Enero	2023-01-28T00:00:00	2024-11-08T12:00:00	7	Dirección del viento	8.05
173591	7	Sololá	716	San Marcos la Laguna 	11	San Marcos la laguna 	1	Enero	2023-01-28T00:00:00	2024-11-08T12:00:00	1	Precipitación	0
173592	7	Sololá	716	San Marcos la Laguna 	11	San Marcos la laguna 	1	Enero	2023-01-28T00:00:00	2024-11-08T12:00:00	8	Radiación solar	729
173593	7	Sololá	716	San Marcos la Laguna 	11	San Marcos la laguna 	1	Enero	2023-01-28T00:00:00	2024-11-08T13:00:00	2	Temperatura media	23.4
173594	7	Sololá	716	San Marcos la Laguna 	11	San Marcos la laguna 	1	Enero	2023-01-28T00:00:00	2024-11-08T13:00:00	4	Temperatura máxima	24.1
173595	7	Sololá	716	San Marcos la Laguna 	11	San Marcos la laguna 	1	Enero	2023-01-28T00:00:00	2024-11-08T13:00:00	3	Temperatura mínima	23.3
173596	7	Sololá	716	San Marcos la Laguna 	11	San Marcos la laguna 	1	Enero	2023-01-28T00:00:00	2024-11-08T13:00:00	5	Humedad	31
173597	7	Sololá	716	San Marcos la Laguna 	11	San Marcos la laguna 	1	Enero	2023-01-28T00:00:00	2024-11-08T13:00:00	6	Velocidad del viento	12.9
173598	7	Sololá	716	San Marcos la Laguna 	11	San Marcos la laguna 	1	Enero	2023-01-28T00:00:00	2024-11-08T13:00:00	7	Dirección del viento	12.87
173599	7	Sololá	716	San Marcos la Laguna 	11	San Marcos la laguna 	1	Enero	2023-01-28T00:00:00	2024-11-08T13:00:00	1	Precipitación	0
173600	7	Sololá	716	San Marcos la Laguna 	11	San Marcos la laguna 	1	Enero	2023-01-28T00:00:00	2024-11-08T13:00:00	8	Radiación solar	806
173601	7	Sololá	716	San Marcos la Laguna 	11	San Marcos la laguna 	1	Enero	2023-01-28T00:00:00	2024-11-08T14:00:00	2	Temperatura media	23.5
173602	7	Sololá	716	San Marcos la Laguna 	11	San Marcos la laguna 	1	Enero	2023-01-28T00:00:00	2024-11-08T14:00:00	4	Temperatura máxima	23.7
173603	7	Sololá	716	San Marcos la Laguna 	11	San Marcos la laguna 	1	Enero	2023-01-28T00:00:00	2024-11-08T14:00:00	3	Temperatura mínima	23.3
173604	7	Sololá	716	San Marcos la Laguna 	11	San Marcos la laguna 	1	Enero	2023-01-28T00:00:00	2024-11-08T14:00:00	5	Humedad	43
173605	7	Sololá	716	San Marcos la Laguna 	11	San Marcos la laguna 	1	Enero	2023-01-28T00:00:00	2024-11-08T14:00:00	6	Velocidad del viento	19.3
173606	7	Sololá	716	San Marcos la Laguna 	11	San Marcos la laguna 	1	Enero	2023-01-28T00:00:00	2024-11-08T14:00:00	7	Dirección del viento	19.31
173607	7	Sololá	716	San Marcos la Laguna 	11	San Marcos la laguna 	1	Enero	2023-01-28T00:00:00	2024-11-08T14:00:00	1	Precipitación	0
173608	7	Sololá	716	San Marcos la Laguna 	11	San Marcos la laguna 	1	Enero	2023-01-28T00:00:00	2024-11-08T14:00:00	8	Radiación solar	758
173609	7	Sololá	716	San Marcos la Laguna 	11	San Marcos la laguna 	1	Enero	2023-01-28T00:00:00	2024-11-08T15:00:00	2	Temperatura media	23.5
173610	7	Sololá	716	San Marcos la Laguna 	11	San Marcos la laguna 	1	Enero	2023-01-28T00:00:00	2024-11-08T15:00:00	4	Temperatura máxima	23.7
173611	7	Sololá	716	San Marcos la Laguna 	11	San Marcos la laguna 	1	Enero	2023-01-28T00:00:00	2024-11-08T15:00:00	3	Temperatura mínima	23.2
173612	7	Sololá	716	San Marcos la Laguna 	11	San Marcos la laguna 	1	Enero	2023-01-28T00:00:00	2024-11-08T15:00:00	5	Humedad	39
173613	7	Sololá	716	San Marcos la Laguna 	11	San Marcos la laguna 	1	Enero	2023-01-28T00:00:00	2024-11-08T15:00:00	6	Velocidad del viento	16.1
173614	7	Sololá	716	San Marcos la Laguna 	11	San Marcos la laguna 	1	Enero	2023-01-28T00:00:00	2024-11-08T15:00:00	7	Dirección del viento	16.09
173615	7	Sololá	716	San Marcos la Laguna 	11	San Marcos la laguna 	1	Enero	2023-01-28T00:00:00	2024-11-08T15:00:00	1	Precipitación	0
173616	7	Sololá	716	San Marcos la Laguna 	11	San Marcos la laguna 	1	Enero	2023-01-28T00:00:00	2024-11-08T15:00:00	8	Radiación solar	646
173617	7	Sololá	716	San Marcos la Laguna 	11	San Marcos la laguna 	1	Enero	2023-01-28T00:00:00	2024-11-08T16:00:00	2	Temperatura media	23.3
173618	7	Sololá	716	San Marcos la Laguna 	11	San Marcos la laguna 	1	Enero	2023-01-28T00:00:00	2024-11-08T16:00:00	4	Temperatura máxima	23.7
173619	7	Sololá	716	San Marcos la Laguna 	11	San Marcos la laguna 	1	Enero	2023-01-28T00:00:00	2024-11-08T16:00:00	3	Temperatura mínima	23.2
173620	7	Sololá	716	San Marcos la Laguna 	11	San Marcos la laguna 	1	Enero	2023-01-28T00:00:00	2024-11-08T16:00:00	5	Humedad	45
173621	7	Sololá	716	San Marcos la Laguna 	11	San Marcos la laguna 	1	Enero	2023-01-28T00:00:00	2024-11-08T16:00:00	6	Velocidad del viento	17.7
173622	7	Sololá	716	San Marcos la Laguna 	11	San Marcos la laguna 	1	Enero	2023-01-28T00:00:00	2024-11-08T16:00:00	7	Dirección del viento	17.7
173623	7	Sololá	716	San Marcos la Laguna 	11	San Marcos la laguna 	1	Enero	2023-01-28T00:00:00	2024-11-08T16:00:00	1	Precipitación	0
173624	7	Sololá	716	San Marcos la Laguna 	11	San Marcos la laguna 	1	Enero	2023-01-28T00:00:00	2024-11-08T16:00:00	8	Radiación solar	477
173625	7	Sololá	716	San Marcos la Laguna 	11	San Marcos la laguna 	1	Enero	2023-01-28T00:00:00	2024-11-08T17:00:00	2	Temperatura media	23.8
173626	7	Sololá	716	San Marcos la Laguna 	11	San Marcos la laguna 	1	Enero	2023-01-28T00:00:00	2024-11-08T17:00:00	4	Temperatura máxima	24.1
173627	7	Sololá	716	San Marcos la Laguna 	11	San Marcos la laguna 	1	Enero	2023-01-28T00:00:00	2024-11-08T17:00:00	3	Temperatura mínima	23
173628	7	Sololá	716	San Marcos la Laguna 	11	San Marcos la laguna 	1	Enero	2023-01-28T00:00:00	2024-11-08T17:00:00	5	Humedad	34
173629	7	Sololá	716	San Marcos la Laguna 	11	San Marcos la laguna 	1	Enero	2023-01-28T00:00:00	2024-11-08T17:00:00	6	Velocidad del viento	20.9
173630	7	Sololá	716	San Marcos la Laguna 	11	San Marcos la laguna 	1	Enero	2023-01-28T00:00:00	2024-11-08T17:00:00	7	Dirección del viento	20.92
173631	7	Sololá	716	San Marcos la Laguna 	11	San Marcos la laguna 	1	Enero	2023-01-28T00:00:00	2024-11-08T17:00:00	1	Precipitación	0
173632	7	Sololá	716	San Marcos la Laguna 	11	San Marcos la laguna 	1	Enero	2023-01-28T00:00:00	2024-11-08T17:00:00	8	Radiación solar	273
173633	7	Sololá	716	San Marcos la Laguna 	11	San Marcos la laguna 	1	Enero	2023-01-28T00:00:00	2024-11-08T18:00:00	2	Temperatura media	22
173634	7	Sololá	716	San Marcos la Laguna 	11	San Marcos la laguna 	1	Enero	2023-01-28T00:00:00	2024-11-08T18:00:00	4	Temperatura máxima	23.8
173635	7	Sololá	716	San Marcos la Laguna 	11	San Marcos la laguna 	1	Enero	2023-01-28T00:00:00	2024-11-08T18:00:00	3	Temperatura mínima	22
173636	7	Sololá	716	San Marcos la Laguna 	11	San Marcos la laguna 	1	Enero	2023-01-28T00:00:00	2024-11-08T18:00:00	5	Humedad	34
173637	7	Sololá	716	San Marcos la Laguna 	11	San Marcos la laguna 	1	Enero	2023-01-28T00:00:00	2024-11-08T18:00:00	6	Velocidad del viento	9.7
173638	7	Sololá	716	San Marcos la Laguna 	11	San Marcos la laguna 	1	Enero	2023-01-28T00:00:00	2024-11-08T18:00:00	7	Dirección del viento	9.66
173639	7	Sololá	716	San Marcos la Laguna 	11	San Marcos la laguna 	1	Enero	2023-01-28T00:00:00	2024-11-08T18:00:00	1	Precipitación	0
173640	7	Sololá	716	San Marcos la Laguna 	11	San Marcos la laguna 	1	Enero	2023-01-28T00:00:00	2024-11-08T18:00:00	8	Radiación solar	51
173641	7	Sololá	716	San Marcos la Laguna 	11	San Marcos la laguna 	1	Enero	2023-01-28T00:00:00	2024-11-08T19:00:00	2	Temperatura media	20.7
173642	7	Sololá	716	San Marcos la Laguna 	11	San Marcos la laguna 	1	Enero	2023-01-28T00:00:00	2024-11-08T19:00:00	4	Temperatura máxima	22
173643	7	Sololá	716	San Marcos la Laguna 	11	San Marcos la laguna 	1	Enero	2023-01-28T00:00:00	2024-11-08T19:00:00	3	Temperatura mínima	20.7
173644	7	Sololá	716	San Marcos la Laguna 	11	San Marcos la laguna 	1	Enero	2023-01-28T00:00:00	2024-11-08T19:00:00	5	Humedad	40
173645	7	Sololá	716	San Marcos la Laguna 	11	San Marcos la laguna 	1	Enero	2023-01-28T00:00:00	2024-11-08T19:00:00	6	Velocidad del viento	17.7
173646	7	Sololá	716	San Marcos la Laguna 	11	San Marcos la laguna 	1	Enero	2023-01-28T00:00:00	2024-11-08T19:00:00	7	Dirección del viento	17.7
173647	7	Sololá	716	San Marcos la Laguna 	11	San Marcos la laguna 	1	Enero	2023-01-28T00:00:00	2024-11-08T19:00:00	1	Precipitación	0
173648	7	Sololá	716	San Marcos la Laguna 	11	San Marcos la laguna 	1	Enero	2023-01-28T00:00:00	2024-11-08T19:00:00	8	Radiación solar	0
173649	7	Sololá	716	San Marcos la Laguna 	11	San Marcos la laguna 	1	Enero	2023-01-28T00:00:00	2024-11-08T20:00:00	2	Temperatura media	16.7
173650	7	Sololá	716	San Marcos la Laguna 	11	San Marcos la laguna 	1	Enero	2023-01-28T00:00:00	2024-11-08T20:00:00	4	Temperatura máxima	20.7
173651	7	Sololá	716	San Marcos la Laguna 	11	San Marcos la laguna 	1	Enero	2023-01-28T00:00:00	2024-11-08T20:00:00	3	Temperatura mínima	16.6
173652	7	Sololá	716	San Marcos la Laguna 	11	San Marcos la laguna 	1	Enero	2023-01-28T00:00:00	2024-11-08T20:00:00	5	Humedad	50
173653	7	Sololá	716	San Marcos la Laguna 	11	San Marcos la laguna 	1	Enero	2023-01-28T00:00:00	2024-11-08T20:00:00	6	Velocidad del viento	6.4
173654	7	Sololá	716	San Marcos la Laguna 	11	San Marcos la laguna 	1	Enero	2023-01-28T00:00:00	2024-11-08T20:00:00	7	Dirección del viento	6.44
173655	7	Sololá	716	San Marcos la Laguna 	11	San Marcos la laguna 	1	Enero	2023-01-28T00:00:00	2024-11-08T20:00:00	1	Precipitación	0
173656	7	Sololá	716	San Marcos la Laguna 	11	San Marcos la laguna 	1	Enero	2023-01-28T00:00:00	2024-11-08T20:00:00	8	Radiación solar	0
173657	7	Sololá	716	San Marcos la Laguna 	11	San Marcos la laguna 	1	Enero	2023-01-28T00:00:00	2024-11-08T21:00:00	2	Temperatura media	16.1
173658	7	Sololá	716	San Marcos la Laguna 	11	San Marcos la laguna 	1	Enero	2023-01-28T00:00:00	2024-11-08T21:00:00	4	Temperatura máxima	17.3
173659	7	Sololá	716	San Marcos la Laguna 	11	San Marcos la laguna 	1	Enero	2023-01-28T00:00:00	2024-11-08T21:00:00	3	Temperatura mínima	16.1
173660	7	Sololá	716	San Marcos la Laguna 	11	San Marcos la laguna 	1	Enero	2023-01-28T00:00:00	2024-11-08T21:00:00	5	Humedad	55
173661	7	Sololá	716	San Marcos la Laguna 	11	San Marcos la laguna 	1	Enero	2023-01-28T00:00:00	2024-11-08T21:00:00	6	Velocidad del viento	8
173662	7	Sololá	716	San Marcos la Laguna 	11	San Marcos la laguna 	1	Enero	2023-01-28T00:00:00	2024-11-08T21:00:00	7	Dirección del viento	8.05
173663	7	Sololá	716	San Marcos la Laguna 	11	San Marcos la laguna 	1	Enero	2023-01-28T00:00:00	2024-11-08T21:00:00	1	Precipitación	0
173664	7	Sololá	716	San Marcos la Laguna 	11	San Marcos la laguna 	1	Enero	2023-01-28T00:00:00	2024-11-08T21:00:00	8	Radiación solar	0
173665	7	Sololá	716	San Marcos la Laguna 	11	San Marcos la laguna 	1	Enero	2023-01-28T00:00:00	2024-11-08T22:00:00	2	Temperatura media	15.7
173666	7	Sololá	716	San Marcos la Laguna 	11	San Marcos la laguna 	1	Enero	2023-01-28T00:00:00	2024-11-08T22:00:00	4	Temperatura máxima	17.3
173667	7	Sololá	716	San Marcos la Laguna 	11	San Marcos la laguna 	1	Enero	2023-01-28T00:00:00	2024-11-08T22:00:00	3	Temperatura mínima	15.7
173668	7	Sololá	716	San Marcos la Laguna 	11	San Marcos la laguna 	1	Enero	2023-01-28T00:00:00	2024-11-08T22:00:00	5	Humedad	60
173669	7	Sololá	716	San Marcos la Laguna 	11	San Marcos la laguna 	1	Enero	2023-01-28T00:00:00	2024-11-08T22:00:00	6	Velocidad del viento	4.8
173670	7	Sololá	716	San Marcos la Laguna 	11	San Marcos la laguna 	1	Enero	2023-01-28T00:00:00	2024-11-08T22:00:00	7	Dirección del viento	4.83
173671	7	Sololá	716	San Marcos la Laguna 	11	San Marcos la laguna 	1	Enero	2023-01-28T00:00:00	2024-11-08T22:00:00	1	Precipitación	0
173672	7	Sololá	716	San Marcos la Laguna 	11	San Marcos la laguna 	1	Enero	2023-01-28T00:00:00	2024-11-08T22:00:00	8	Radiación solar	0
173673	7	Sololá	716	San Marcos la Laguna 	11	San Marcos la laguna 	1	Enero	2023-01-28T00:00:00	2024-11-08T23:00:00	2	Temperatura media	16.1
173674	7	Sololá	716	San Marcos la Laguna 	11	San Marcos la laguna 	1	Enero	2023-01-28T00:00:00	2024-11-08T23:00:00	4	Temperatura máxima	16.7
173675	7	Sololá	716	San Marcos la Laguna 	11	San Marcos la laguna 	1	Enero	2023-01-28T00:00:00	2024-11-08T23:00:00	3	Temperatura mínima	15.3
173676	7	Sololá	716	San Marcos la Laguna 	11	San Marcos la laguna 	1	Enero	2023-01-28T00:00:00	2024-11-08T23:00:00	5	Humedad	60
173677	7	Sololá	716	San Marcos la Laguna 	11	San Marcos la laguna 	1	Enero	2023-01-28T00:00:00	2024-11-08T23:00:00	6	Velocidad del viento	8
173678	7	Sololá	716	San Marcos la Laguna 	11	San Marcos la laguna 	1	Enero	2023-01-28T00:00:00	2024-11-08T23:00:00	7	Dirección del viento	8.05
173679	7	Sololá	716	San Marcos la Laguna 	11	San Marcos la laguna 	1	Enero	2023-01-28T00:00:00	2024-11-08T23:00:00	1	Precipitación	0
173680	7	Sololá	716	San Marcos la Laguna 	11	San Marcos la laguna 	1	Enero	2023-01-28T00:00:00	2024-11-08T23:00:00	8	Radiación solar	0
173681	7	Sololá	716	San Marcos la Laguna 	11	San Marcos la laguna 	1	Enero	2023-01-29T00:00:00	2024-11-08T00:00:00	2	Temperatura media	14.7
173682	7	Sololá	716	San Marcos la Laguna 	11	San Marcos la laguna 	1	Enero	2023-01-29T00:00:00	2024-11-08T00:00:00	4	Temperatura máxima	16
173683	7	Sololá	716	San Marcos la Laguna 	11	San Marcos la laguna 	1	Enero	2023-01-29T00:00:00	2024-11-08T00:00:00	3	Temperatura mínima	14.6
173684	7	Sololá	716	San Marcos la Laguna 	11	San Marcos la laguna 	1	Enero	2023-01-29T00:00:00	2024-11-08T00:00:00	5	Humedad	60
173685	7	Sololá	716	San Marcos la Laguna 	11	San Marcos la laguna 	1	Enero	2023-01-29T00:00:00	2024-11-08T00:00:00	6	Velocidad del viento	8
173686	7	Sololá	716	San Marcos la Laguna 	11	San Marcos la laguna 	1	Enero	2023-01-29T00:00:00	2024-11-08T00:00:00	7	Dirección del viento	8.05
173687	7	Sololá	716	San Marcos la Laguna 	11	San Marcos la laguna 	1	Enero	2023-01-29T00:00:00	2024-11-08T00:00:00	1	Precipitación	0
173688	7	Sololá	716	San Marcos la Laguna 	11	San Marcos la laguna 	1	Enero	2023-01-29T00:00:00	2024-11-08T00:00:00	8	Radiación solar	0
173689	7	Sololá	716	San Marcos la Laguna 	11	San Marcos la laguna 	1	Enero	2023-01-29T00:00:00	2024-11-08T01:00:00	2	Temperatura media	14.5
173690	7	Sololá	716	San Marcos la Laguna 	11	San Marcos la laguna 	1	Enero	2023-01-29T00:00:00	2024-11-08T01:00:00	4	Temperatura máxima	15.3
173691	7	Sololá	716	San Marcos la Laguna 	11	San Marcos la laguna 	1	Enero	2023-01-29T00:00:00	2024-11-08T01:00:00	3	Temperatura mínima	13.9
173692	7	Sololá	716	San Marcos la Laguna 	11	San Marcos la laguna 	1	Enero	2023-01-29T00:00:00	2024-11-08T01:00:00	5	Humedad	49
173693	7	Sololá	716	San Marcos la Laguna 	11	San Marcos la laguna 	1	Enero	2023-01-29T00:00:00	2024-11-08T01:00:00	6	Velocidad del viento	9.7
173694	7	Sololá	716	San Marcos la Laguna 	11	San Marcos la laguna 	1	Enero	2023-01-29T00:00:00	2024-11-08T01:00:00	7	Dirección del viento	9.66
173695	7	Sololá	716	San Marcos la Laguna 	11	San Marcos la laguna 	1	Enero	2023-01-29T00:00:00	2024-11-08T01:00:00	1	Precipitación	0
173696	7	Sololá	716	San Marcos la Laguna 	11	San Marcos la laguna 	1	Enero	2023-01-29T00:00:00	2024-11-08T01:00:00	8	Radiación solar	0
173697	7	Sololá	716	San Marcos la Laguna 	11	San Marcos la laguna 	1	Enero	2023-01-29T00:00:00	2024-11-08T02:00:00	2	Temperatura media	13.4
173698	7	Sololá	716	San Marcos la Laguna 	11	San Marcos la laguna 	1	Enero	2023-01-29T00:00:00	2024-11-08T02:00:00	4	Temperatura máxima	14.5
173699	7	Sololá	716	San Marcos la Laguna 	11	San Marcos la laguna 	1	Enero	2023-01-29T00:00:00	2024-11-08T02:00:00	3	Temperatura mínima	13.3
173700	7	Sololá	716	San Marcos la Laguna 	11	San Marcos la laguna 	1	Enero	2023-01-29T00:00:00	2024-11-08T02:00:00	5	Humedad	51
173701	7	Sololá	716	San Marcos la Laguna 	11	San Marcos la laguna 	1	Enero	2023-01-29T00:00:00	2024-11-08T02:00:00	6	Velocidad del viento	9.7
173702	7	Sololá	716	San Marcos la Laguna 	11	San Marcos la laguna 	1	Enero	2023-01-29T00:00:00	2024-11-08T02:00:00	7	Dirección del viento	9.66
173703	7	Sololá	716	San Marcos la Laguna 	11	San Marcos la laguna 	1	Enero	2023-01-29T00:00:00	2024-11-08T02:00:00	1	Precipitación	0
173704	7	Sololá	716	San Marcos la Laguna 	11	San Marcos la laguna 	1	Enero	2023-01-29T00:00:00	2024-11-08T02:00:00	8	Radiación solar	0
173705	7	Sololá	716	San Marcos la Laguna 	11	San Marcos la laguna 	1	Enero	2023-01-29T00:00:00	2024-11-08T03:00:00	2	Temperatura media	13.1
173706	7	Sololá	716	San Marcos la Laguna 	11	San Marcos la laguna 	1	Enero	2023-01-29T00:00:00	2024-11-08T03:00:00	4	Temperatura máxima	13.4
173707	7	Sololá	716	San Marcos la Laguna 	11	San Marcos la laguna 	1	Enero	2023-01-29T00:00:00	2024-11-08T03:00:00	3	Temperatura mínima	12.7
173708	7	Sololá	716	San Marcos la Laguna 	11	San Marcos la laguna 	1	Enero	2023-01-29T00:00:00	2024-11-08T03:00:00	5	Humedad	53
173709	7	Sololá	716	San Marcos la Laguna 	11	San Marcos la laguna 	1	Enero	2023-01-29T00:00:00	2024-11-08T03:00:00	6	Velocidad del viento	9.7
173710	7	Sololá	716	San Marcos la Laguna 	11	San Marcos la laguna 	1	Enero	2023-01-29T00:00:00	2024-11-08T03:00:00	7	Dirección del viento	9.66
173711	7	Sololá	716	San Marcos la Laguna 	11	San Marcos la laguna 	1	Enero	2023-01-29T00:00:00	2024-11-08T03:00:00	1	Precipitación	0
173712	7	Sololá	716	San Marcos la Laguna 	11	San Marcos la laguna 	1	Enero	2023-01-29T00:00:00	2024-11-08T03:00:00	8	Radiación solar	0
173713	7	Sololá	716	San Marcos la Laguna 	11	San Marcos la laguna 	1	Enero	2023-01-29T00:00:00	2024-11-08T04:00:00	2	Temperatura media	12.8
173714	7	Sololá	716	San Marcos la Laguna 	11	San Marcos la laguna 	1	Enero	2023-01-29T00:00:00	2024-11-08T04:00:00	4	Temperatura máxima	13.1
173715	7	Sololá	716	San Marcos la Laguna 	11	San Marcos la laguna 	1	Enero	2023-01-29T00:00:00	2024-11-08T04:00:00	3	Temperatura mínima	12.5
173716	7	Sololá	716	San Marcos la Laguna 	11	San Marcos la laguna 	1	Enero	2023-01-29T00:00:00	2024-11-08T04:00:00	5	Humedad	53
173717	7	Sololá	716	San Marcos la Laguna 	11	San Marcos la laguna 	1	Enero	2023-01-29T00:00:00	2024-11-08T04:00:00	6	Velocidad del viento	11.3
173718	7	Sololá	716	San Marcos la Laguna 	11	San Marcos la laguna 	1	Enero	2023-01-29T00:00:00	2024-11-08T04:00:00	7	Dirección del viento	11.27
173719	7	Sololá	716	San Marcos la Laguna 	11	San Marcos la laguna 	1	Enero	2023-01-29T00:00:00	2024-11-08T04:00:00	1	Precipitación	0
173720	7	Sololá	716	San Marcos la Laguna 	11	San Marcos la laguna 	1	Enero	2023-01-29T00:00:00	2024-11-08T04:00:00	8	Radiación solar	0
173721	7	Sololá	716	San Marcos la Laguna 	11	San Marcos la laguna 	1	Enero	2023-01-29T00:00:00	2024-11-08T05:00:00	2	Temperatura media	12.3
173722	7	Sololá	716	San Marcos la Laguna 	11	San Marcos la laguna 	1	Enero	2023-01-29T00:00:00	2024-11-08T05:00:00	4	Temperatura máxima	12.9
173723	7	Sololá	716	San Marcos la Laguna 	11	San Marcos la laguna 	1	Enero	2023-01-29T00:00:00	2024-11-08T05:00:00	3	Temperatura mínima	11.9
173724	7	Sololá	716	San Marcos la Laguna 	11	San Marcos la laguna 	1	Enero	2023-01-29T00:00:00	2024-11-08T05:00:00	5	Humedad	54
173725	7	Sololá	716	San Marcos la Laguna 	11	San Marcos la laguna 	1	Enero	2023-01-29T00:00:00	2024-11-08T05:00:00	6	Velocidad del viento	11.3
173726	7	Sololá	716	San Marcos la Laguna 	11	San Marcos la laguna 	1	Enero	2023-01-29T00:00:00	2024-11-08T05:00:00	7	Dirección del viento	11.27
173727	7	Sololá	716	San Marcos la Laguna 	11	San Marcos la laguna 	1	Enero	2023-01-29T00:00:00	2024-11-08T05:00:00	1	Precipitación	0
173728	7	Sololá	716	San Marcos la Laguna 	11	San Marcos la laguna 	1	Enero	2023-01-29T00:00:00	2024-11-08T05:00:00	8	Radiación solar	0
173729	7	Sololá	716	San Marcos la Laguna 	11	San Marcos la laguna 	1	Enero	2023-01-29T00:00:00	2024-11-08T06:00:00	2	Temperatura media	12.1
173730	7	Sololá	716	San Marcos la Laguna 	11	San Marcos la laguna 	1	Enero	2023-01-29T00:00:00	2024-11-08T06:00:00	4	Temperatura máxima	12.6
173731	7	Sololá	716	San Marcos la Laguna 	11	San Marcos la laguna 	1	Enero	2023-01-29T00:00:00	2024-11-08T06:00:00	3	Temperatura mínima	11.8
173732	7	Sololá	716	San Marcos la Laguna 	11	San Marcos la laguna 	1	Enero	2023-01-29T00:00:00	2024-11-08T06:00:00	5	Humedad	55
173733	7	Sololá	716	San Marcos la Laguna 	11	San Marcos la laguna 	1	Enero	2023-01-29T00:00:00	2024-11-08T06:00:00	6	Velocidad del viento	9.7
173734	7	Sololá	716	San Marcos la Laguna 	11	San Marcos la laguna 	1	Enero	2023-01-29T00:00:00	2024-11-08T06:00:00	7	Dirección del viento	9.66
173735	7	Sololá	716	San Marcos la Laguna 	11	San Marcos la laguna 	1	Enero	2023-01-29T00:00:00	2024-11-08T06:00:00	1	Precipitación	0
173736	7	Sololá	716	San Marcos la Laguna 	11	San Marcos la laguna 	1	Enero	2023-01-29T00:00:00	2024-11-08T06:00:00	8	Radiación solar	0
173737	7	Sololá	716	San Marcos la Laguna 	11	San Marcos la laguna 	1	Enero	2023-01-29T00:00:00	2024-11-08T07:00:00	2	Temperatura media	12
173738	7	Sololá	716	San Marcos la Laguna 	11	San Marcos la laguna 	1	Enero	2023-01-29T00:00:00	2024-11-08T07:00:00	4	Temperatura máxima	12.1
173739	7	Sololá	716	San Marcos la Laguna 	11	San Marcos la laguna 	1	Enero	2023-01-29T00:00:00	2024-11-08T07:00:00	3	Temperatura mínima	11.6
173740	7	Sololá	716	San Marcos la Laguna 	11	San Marcos la laguna 	1	Enero	2023-01-29T00:00:00	2024-11-08T07:00:00	5	Humedad	57
173741	7	Sololá	716	San Marcos la Laguna 	11	San Marcos la laguna 	1	Enero	2023-01-29T00:00:00	2024-11-08T07:00:00	6	Velocidad del viento	9.7
173742	7	Sololá	716	San Marcos la Laguna 	11	San Marcos la laguna 	1	Enero	2023-01-29T00:00:00	2024-11-08T07:00:00	7	Dirección del viento	9.66
173743	7	Sololá	716	San Marcos la Laguna 	11	San Marcos la laguna 	1	Enero	2023-01-29T00:00:00	2024-11-08T07:00:00	1	Precipitación	0
173744	7	Sololá	716	San Marcos la Laguna 	11	San Marcos la laguna 	1	Enero	2023-01-29T00:00:00	2024-11-08T07:00:00	8	Radiación solar	4
173745	7	Sololá	716	San Marcos la Laguna 	11	San Marcos la laguna 	1	Enero	2023-01-29T00:00:00	2024-11-08T08:00:00	2	Temperatura media	15.4
173746	7	Sololá	716	San Marcos la Laguna 	11	San Marcos la laguna 	1	Enero	2023-01-29T00:00:00	2024-11-08T08:00:00	4	Temperatura máxima	15.4
173747	7	Sololá	716	San Marcos la Laguna 	11	San Marcos la laguna 	1	Enero	2023-01-29T00:00:00	2024-11-08T08:00:00	3	Temperatura mínima	12
173748	7	Sololá	716	San Marcos la Laguna 	11	San Marcos la laguna 	1	Enero	2023-01-29T00:00:00	2024-11-08T08:00:00	5	Humedad	54
173749	7	Sololá	716	San Marcos la Laguna 	11	San Marcos la laguna 	1	Enero	2023-01-29T00:00:00	2024-11-08T08:00:00	6	Velocidad del viento	6.4
173750	7	Sololá	716	San Marcos la Laguna 	11	San Marcos la laguna 	1	Enero	2023-01-29T00:00:00	2024-11-08T08:00:00	7	Dirección del viento	6.44
173751	7	Sololá	716	San Marcos la Laguna 	11	San Marcos la laguna 	1	Enero	2023-01-29T00:00:00	2024-11-08T08:00:00	1	Precipitación	0
173752	7	Sololá	716	San Marcos la Laguna 	11	San Marcos la laguna 	1	Enero	2023-01-29T00:00:00	2024-11-08T08:00:00	8	Radiación solar	134
173753	7	Sololá	716	San Marcos la Laguna 	11	San Marcos la laguna 	1	Enero	2023-01-29T00:00:00	2024-11-08T09:00:00	2	Temperatura media	19.6
173754	7	Sololá	716	San Marcos la Laguna 	11	San Marcos la laguna 	1	Enero	2023-01-29T00:00:00	2024-11-08T09:00:00	4	Temperatura máxima	19.6
173755	7	Sololá	716	San Marcos la Laguna 	11	San Marcos la laguna 	1	Enero	2023-01-29T00:00:00	2024-11-08T09:00:00	3	Temperatura mínima	15.4
173756	7	Sololá	716	San Marcos la Laguna 	11	San Marcos la laguna 	1	Enero	2023-01-29T00:00:00	2024-11-08T09:00:00	5	Humedad	39
173757	7	Sololá	716	San Marcos la Laguna 	11	San Marcos la laguna 	1	Enero	2023-01-29T00:00:00	2024-11-08T09:00:00	6	Velocidad del viento	1.6
173758	7	Sololá	716	San Marcos la Laguna 	11	San Marcos la laguna 	1	Enero	2023-01-29T00:00:00	2024-11-08T09:00:00	7	Dirección del viento	1.61
173759	7	Sololá	716	San Marcos la Laguna 	11	San Marcos la laguna 	1	Enero	2023-01-29T00:00:00	2024-11-08T09:00:00	1	Precipitación	0
173760	7	Sololá	716	San Marcos la Laguna 	11	San Marcos la laguna 	1	Enero	2023-01-29T00:00:00	2024-11-08T09:00:00	8	Radiación solar	362
173761	7	Sololá	716	San Marcos la Laguna 	11	San Marcos la laguna 	1	Enero	2023-01-29T00:00:00	2024-11-08T10:00:00	2	Temperatura media	21.2
173762	7	Sololá	716	San Marcos la Laguna 	11	San Marcos la laguna 	1	Enero	2023-01-29T00:00:00	2024-11-08T10:00:00	4	Temperatura máxima	21.2
173763	7	Sololá	716	San Marcos la Laguna 	11	San Marcos la laguna 	1	Enero	2023-01-29T00:00:00	2024-11-08T10:00:00	3	Temperatura mínima	19.6
173764	7	Sololá	716	San Marcos la Laguna 	11	San Marcos la laguna 	1	Enero	2023-01-29T00:00:00	2024-11-08T10:00:00	5	Humedad	35
173765	7	Sololá	716	San Marcos la Laguna 	11	San Marcos la laguna 	1	Enero	2023-01-29T00:00:00	2024-11-08T10:00:00	6	Velocidad del viento	3.2
173766	7	Sololá	716	San Marcos la Laguna 	11	San Marcos la laguna 	1	Enero	2023-01-29T00:00:00	2024-11-08T10:00:00	7	Dirección del viento	3.22
173767	7	Sololá	716	San Marcos la Laguna 	11	San Marcos la laguna 	1	Enero	2023-01-29T00:00:00	2024-11-08T10:00:00	1	Precipitación	0
173768	7	Sololá	716	San Marcos la Laguna 	11	San Marcos la laguna 	1	Enero	2023-01-29T00:00:00	2024-11-08T10:00:00	8	Radiación solar	553
173769	7	Sololá	716	San Marcos la Laguna 	11	San Marcos la laguna 	1	Enero	2023-01-29T00:00:00	2024-11-08T11:00:00	2	Temperatura media	22.4
173770	7	Sololá	716	San Marcos la Laguna 	11	San Marcos la laguna 	1	Enero	2023-01-29T00:00:00	2024-11-08T11:00:00	4	Temperatura máxima	22.4
173771	7	Sololá	716	San Marcos la Laguna 	11	San Marcos la laguna 	1	Enero	2023-01-29T00:00:00	2024-11-08T11:00:00	3	Temperatura mínima	21.1
173772	7	Sololá	716	San Marcos la Laguna 	11	San Marcos la laguna 	1	Enero	2023-01-29T00:00:00	2024-11-08T11:00:00	5	Humedad	39
173773	7	Sololá	716	San Marcos la Laguna 	11	San Marcos la laguna 	1	Enero	2023-01-29T00:00:00	2024-11-08T11:00:00	6	Velocidad del viento	4.8
173774	7	Sololá	716	San Marcos la Laguna 	11	San Marcos la laguna 	1	Enero	2023-01-29T00:00:00	2024-11-08T11:00:00	7	Dirección del viento	4.83
173775	7	Sololá	716	San Marcos la Laguna 	11	San Marcos la laguna 	1	Enero	2023-01-29T00:00:00	2024-11-08T11:00:00	1	Precipitación	0
173776	7	Sololá	716	San Marcos la Laguna 	11	San Marcos la laguna 	1	Enero	2023-01-29T00:00:00	2024-11-08T11:00:00	8	Radiación solar	628
173777	7	Sololá	716	San Marcos la Laguna 	11	San Marcos la laguna 	1	Enero	2023-01-29T00:00:00	2024-11-08T12:00:00	2	Temperatura media	24.1
173778	7	Sololá	716	San Marcos la Laguna 	11	San Marcos la laguna 	1	Enero	2023-01-29T00:00:00	2024-11-08T12:00:00	4	Temperatura máxima	24.1
173779	7	Sololá	716	San Marcos la Laguna 	11	San Marcos la laguna 	1	Enero	2023-01-29T00:00:00	2024-11-08T12:00:00	3	Temperatura mínima	22.4
173780	7	Sololá	716	San Marcos la Laguna 	11	San Marcos la laguna 	1	Enero	2023-01-29T00:00:00	2024-11-08T12:00:00	5	Humedad	30
173781	7	Sololá	716	San Marcos la Laguna 	11	San Marcos la laguna 	1	Enero	2023-01-29T00:00:00	2024-11-08T12:00:00	6	Velocidad del viento	3.2
173782	7	Sololá	716	San Marcos la Laguna 	11	San Marcos la laguna 	1	Enero	2023-01-29T00:00:00	2024-11-08T12:00:00	7	Dirección del viento	3.22
173783	7	Sololá	716	San Marcos la Laguna 	11	San Marcos la laguna 	1	Enero	2023-01-29T00:00:00	2024-11-08T12:00:00	1	Precipitación	0
173784	7	Sololá	716	San Marcos la Laguna 	11	San Marcos la laguna 	1	Enero	2023-01-29T00:00:00	2024-11-08T12:00:00	8	Radiación solar	734
173785	7	Sololá	716	San Marcos la Laguna 	11	San Marcos la laguna 	1	Enero	2023-01-29T00:00:00	2024-11-08T13:00:00	2	Temperatura media	25.3
173786	7	Sololá	716	San Marcos la Laguna 	11	San Marcos la laguna 	1	Enero	2023-01-29T00:00:00	2024-11-08T13:00:00	4	Temperatura máxima	25.5
173787	7	Sololá	716	San Marcos la Laguna 	11	San Marcos la laguna 	1	Enero	2023-01-29T00:00:00	2024-11-08T13:00:00	3	Temperatura mínima	23.9
173788	7	Sololá	716	San Marcos la Laguna 	11	San Marcos la laguna 	1	Enero	2023-01-29T00:00:00	2024-11-08T13:00:00	5	Humedad	29
173789	7	Sololá	716	San Marcos la Laguna 	11	San Marcos la laguna 	1	Enero	2023-01-29T00:00:00	2024-11-08T13:00:00	6	Velocidad del viento	4.8
173790	7	Sololá	716	San Marcos la Laguna 	11	San Marcos la laguna 	1	Enero	2023-01-29T00:00:00	2024-11-08T13:00:00	7	Dirección del viento	4.83
173791	7	Sololá	716	San Marcos la Laguna 	11	San Marcos la laguna 	1	Enero	2023-01-29T00:00:00	2024-11-08T13:00:00	1	Precipitación	0
173792	7	Sololá	716	San Marcos la Laguna 	11	San Marcos la laguna 	1	Enero	2023-01-29T00:00:00	2024-11-08T13:00:00	8	Radiación solar	815
173793	7	Sololá	716	San Marcos la Laguna 	11	San Marcos la laguna 	1	Enero	2023-01-29T00:00:00	2024-11-08T14:00:00	2	Temperatura media	23.9
173794	7	Sololá	716	San Marcos la Laguna 	11	San Marcos la laguna 	1	Enero	2023-01-29T00:00:00	2024-11-08T14:00:00	4	Temperatura máxima	25.6
173795	7	Sololá	716	San Marcos la Laguna 	11	San Marcos la laguna 	1	Enero	2023-01-29T00:00:00	2024-11-08T14:00:00	3	Temperatura mínima	23.9
173796	7	Sololá	716	San Marcos la Laguna 	11	San Marcos la laguna 	1	Enero	2023-01-29T00:00:00	2024-11-08T14:00:00	5	Humedad	56
173797	7	Sololá	716	San Marcos la Laguna 	11	San Marcos la laguna 	1	Enero	2023-01-29T00:00:00	2024-11-08T14:00:00	6	Velocidad del viento	6.4
173798	7	Sololá	716	San Marcos la Laguna 	11	San Marcos la laguna 	1	Enero	2023-01-29T00:00:00	2024-11-08T14:00:00	7	Dirección del viento	6.44
173799	7	Sololá	716	San Marcos la Laguna 	11	San Marcos la laguna 	1	Enero	2023-01-29T00:00:00	2024-11-08T14:00:00	1	Precipitación	0
173800	7	Sololá	716	San Marcos la Laguna 	11	San Marcos la laguna 	1	Enero	2023-01-29T00:00:00	2024-11-08T14:00:00	8	Radiación solar	766
173801	7	Sololá	716	San Marcos la Laguna 	11	San Marcos la laguna 	1	Enero	2023-01-29T00:00:00	2024-11-08T15:00:00	2	Temperatura media	24.2
173802	7	Sololá	716	San Marcos la Laguna 	11	San Marcos la laguna 	1	Enero	2023-01-29T00:00:00	2024-11-08T15:00:00	4	Temperatura máxima	24.3
173803	7	Sololá	716	San Marcos la Laguna 	11	San Marcos la laguna 	1	Enero	2023-01-29T00:00:00	2024-11-08T15:00:00	3	Temperatura mínima	23
173804	7	Sololá	716	San Marcos la Laguna 	11	San Marcos la laguna 	1	Enero	2023-01-29T00:00:00	2024-11-08T15:00:00	5	Humedad	54
173805	7	Sololá	716	San Marcos la Laguna 	11	San Marcos la laguna 	1	Enero	2023-01-29T00:00:00	2024-11-08T15:00:00	6	Velocidad del viento	8
173806	7	Sololá	716	San Marcos la Laguna 	11	San Marcos la laguna 	1	Enero	2023-01-29T00:00:00	2024-11-08T15:00:00	7	Dirección del viento	8.05
173807	7	Sololá	716	San Marcos la Laguna 	11	San Marcos la laguna 	1	Enero	2023-01-29T00:00:00	2024-11-08T15:00:00	1	Precipitación	0
173808	7	Sololá	716	San Marcos la Laguna 	11	San Marcos la laguna 	1	Enero	2023-01-29T00:00:00	2024-11-08T15:00:00	8	Radiación solar	630
173809	7	Sololá	716	San Marcos la Laguna 	11	San Marcos la laguna 	1	Enero	2023-01-29T00:00:00	2024-11-08T16:00:00	2	Temperatura media	23.2
173810	7	Sololá	716	San Marcos la Laguna 	11	San Marcos la laguna 	1	Enero	2023-01-29T00:00:00	2024-11-08T16:00:00	4	Temperatura máxima	24.2
173811	7	Sololá	716	San Marcos la Laguna 	11	San Marcos la laguna 	1	Enero	2023-01-29T00:00:00	2024-11-08T16:00:00	3	Temperatura mínima	22.9
173812	7	Sololá	716	San Marcos la Laguna 	11	San Marcos la laguna 	1	Enero	2023-01-29T00:00:00	2024-11-08T16:00:00	5	Humedad	57
173813	7	Sololá	716	San Marcos la Laguna 	11	San Marcos la laguna 	1	Enero	2023-01-29T00:00:00	2024-11-08T16:00:00	6	Velocidad del viento	6.4
173814	7	Sololá	716	San Marcos la Laguna 	11	San Marcos la laguna 	1	Enero	2023-01-29T00:00:00	2024-11-08T16:00:00	7	Dirección del viento	6.44
173815	7	Sololá	716	San Marcos la Laguna 	11	San Marcos la laguna 	1	Enero	2023-01-29T00:00:00	2024-11-08T16:00:00	1	Precipitación	0
173816	7	Sololá	716	San Marcos la Laguna 	11	San Marcos la laguna 	1	Enero	2023-01-29T00:00:00	2024-11-08T16:00:00	8	Radiación solar	457
173817	7	Sololá	716	San Marcos la Laguna 	11	San Marcos la laguna 	1	Enero	2023-01-29T00:00:00	2024-11-08T17:00:00	2	Temperatura media	22.6
173818	7	Sololá	716	San Marcos la Laguna 	11	San Marcos la laguna 	1	Enero	2023-01-29T00:00:00	2024-11-08T17:00:00	4	Temperatura máxima	23.2
173819	7	Sololá	716	San Marcos la Laguna 	11	San Marcos la laguna 	1	Enero	2023-01-29T00:00:00	2024-11-08T17:00:00	3	Temperatura mínima	22.6
173820	7	Sololá	716	San Marcos la Laguna 	11	San Marcos la laguna 	1	Enero	2023-01-29T00:00:00	2024-11-08T17:00:00	5	Humedad	60
173821	7	Sololá	716	San Marcos la Laguna 	11	San Marcos la laguna 	1	Enero	2023-01-29T00:00:00	2024-11-08T17:00:00	6	Velocidad del viento	4.8
173822	7	Sololá	716	San Marcos la Laguna 	11	San Marcos la laguna 	1	Enero	2023-01-29T00:00:00	2024-11-08T17:00:00	7	Dirección del viento	4.83
173823	7	Sololá	716	San Marcos la Laguna 	11	San Marcos la laguna 	1	Enero	2023-01-29T00:00:00	2024-11-08T17:00:00	1	Precipitación	0
173824	7	Sololá	716	San Marcos la Laguna 	11	San Marcos la laguna 	1	Enero	2023-01-29T00:00:00	2024-11-08T17:00:00	8	Radiación solar	255
173825	7	Sololá	716	San Marcos la Laguna 	11	San Marcos la laguna 	1	Enero	2023-01-29T00:00:00	2024-11-08T18:00:00	2	Temperatura media	20
173826	7	Sololá	716	San Marcos la Laguna 	11	San Marcos la laguna 	1	Enero	2023-01-29T00:00:00	2024-11-08T18:00:00	4	Temperatura máxima	22.6
173827	7	Sololá	716	San Marcos la Laguna 	11	San Marcos la laguna 	1	Enero	2023-01-29T00:00:00	2024-11-08T18:00:00	3	Temperatura mínima	20
173828	7	Sololá	716	San Marcos la Laguna 	11	San Marcos la laguna 	1	Enero	2023-01-29T00:00:00	2024-11-08T18:00:00	5	Humedad	64
173829	7	Sololá	716	San Marcos la Laguna 	11	San Marcos la laguna 	1	Enero	2023-01-29T00:00:00	2024-11-08T18:00:00	6	Velocidad del viento	4.8
173830	7	Sololá	716	San Marcos la Laguna 	11	San Marcos la laguna 	1	Enero	2023-01-29T00:00:00	2024-11-08T18:00:00	7	Dirección del viento	4.83
173831	7	Sololá	716	San Marcos la Laguna 	11	San Marcos la laguna 	1	Enero	2023-01-29T00:00:00	2024-11-08T18:00:00	1	Precipitación	0
173832	7	Sololá	716	San Marcos la Laguna 	11	San Marcos la laguna 	1	Enero	2023-01-29T00:00:00	2024-11-08T18:00:00	8	Radiación solar	52
173833	7	Sololá	716	San Marcos la Laguna 	11	San Marcos la laguna 	1	Enero	2023-01-29T00:00:00	2024-11-08T19:00:00	2	Temperatura media	18
173834	7	Sololá	716	San Marcos la Laguna 	11	San Marcos la laguna 	1	Enero	2023-01-29T00:00:00	2024-11-08T19:00:00	4	Temperatura máxima	20
173835	7	Sololá	716	San Marcos la Laguna 	11	San Marcos la laguna 	1	Enero	2023-01-29T00:00:00	2024-11-08T19:00:00	3	Temperatura mínima	18
173836	7	Sololá	716	San Marcos la Laguna 	11	San Marcos la laguna 	1	Enero	2023-01-29T00:00:00	2024-11-08T19:00:00	5	Humedad	69
173837	7	Sololá	716	San Marcos la Laguna 	11	San Marcos la laguna 	1	Enero	2023-01-29T00:00:00	2024-11-08T19:00:00	6	Velocidad del viento	4.8
173838	7	Sololá	716	San Marcos la Laguna 	11	San Marcos la laguna 	1	Enero	2023-01-29T00:00:00	2024-11-08T19:00:00	7	Dirección del viento	4.83
173839	7	Sololá	716	San Marcos la Laguna 	11	San Marcos la laguna 	1	Enero	2023-01-29T00:00:00	2024-11-08T19:00:00	1	Precipitación	0
173840	7	Sololá	716	San Marcos la Laguna 	11	San Marcos la laguna 	1	Enero	2023-01-29T00:00:00	2024-11-08T19:00:00	8	Radiación solar	0
173841	7	Sololá	716	San Marcos la Laguna 	11	San Marcos la laguna 	1	Enero	2023-01-29T00:00:00	2024-11-08T20:00:00	2	Temperatura media	17.7
173842	7	Sololá	716	San Marcos la Laguna 	11	San Marcos la laguna 	1	Enero	2023-01-29T00:00:00	2024-11-08T20:00:00	4	Temperatura máxima	18
173843	7	Sololá	716	San Marcos la Laguna 	11	San Marcos la laguna 	1	Enero	2023-01-29T00:00:00	2024-11-08T20:00:00	3	Temperatura mínima	17.6
173844	7	Sololá	716	San Marcos la Laguna 	11	San Marcos la laguna 	1	Enero	2023-01-29T00:00:00	2024-11-08T20:00:00	5	Humedad	62
173845	7	Sololá	716	San Marcos la Laguna 	11	San Marcos la laguna 	1	Enero	2023-01-29T00:00:00	2024-11-08T20:00:00	6	Velocidad del viento	6.4
173846	7	Sololá	716	San Marcos la Laguna 	11	San Marcos la laguna 	1	Enero	2023-01-29T00:00:00	2024-11-08T20:00:00	7	Dirección del viento	6.44
173847	7	Sololá	716	San Marcos la Laguna 	11	San Marcos la laguna 	1	Enero	2023-01-29T00:00:00	2024-11-08T20:00:00	1	Precipitación	0
173848	7	Sololá	716	San Marcos la Laguna 	11	San Marcos la laguna 	1	Enero	2023-01-29T00:00:00	2024-11-08T20:00:00	8	Radiación solar	0
173849	7	Sololá	716	San Marcos la Laguna 	11	San Marcos la laguna 	1	Enero	2023-01-29T00:00:00	2024-11-08T21:00:00	2	Temperatura media	17
173850	7	Sololá	716	San Marcos la Laguna 	11	San Marcos la laguna 	1	Enero	2023-01-29T00:00:00	2024-11-08T21:00:00	4	Temperatura máxima	17.9
173851	7	Sololá	716	San Marcos la Laguna 	11	San Marcos la laguna 	1	Enero	2023-01-29T00:00:00	2024-11-08T21:00:00	3	Temperatura mínima	17
173852	7	Sololá	716	San Marcos la Laguna 	11	San Marcos la laguna 	1	Enero	2023-01-29T00:00:00	2024-11-08T21:00:00	5	Humedad	63
173853	7	Sololá	716	San Marcos la Laguna 	11	San Marcos la laguna 	1	Enero	2023-01-29T00:00:00	2024-11-08T21:00:00	6	Velocidad del viento	8
173854	7	Sololá	716	San Marcos la Laguna 	11	San Marcos la laguna 	1	Enero	2023-01-29T00:00:00	2024-11-08T21:00:00	7	Dirección del viento	8.05
173855	7	Sololá	716	San Marcos la Laguna 	11	San Marcos la laguna 	1	Enero	2023-01-29T00:00:00	2024-11-08T21:00:00	1	Precipitación	0
173856	7	Sololá	716	San Marcos la Laguna 	11	San Marcos la laguna 	1	Enero	2023-01-29T00:00:00	2024-11-08T21:00:00	8	Radiación solar	0
173857	7	Sololá	716	San Marcos la Laguna 	11	San Marcos la laguna 	1	Enero	2023-01-29T00:00:00	2024-11-08T22:00:00	2	Temperatura media	16.3
173858	7	Sololá	716	San Marcos la Laguna 	11	San Marcos la laguna 	1	Enero	2023-01-29T00:00:00	2024-11-08T22:00:00	4	Temperatura máxima	17.2
173859	7	Sololá	716	San Marcos la Laguna 	11	San Marcos la laguna 	1	Enero	2023-01-29T00:00:00	2024-11-08T22:00:00	3	Temperatura mínima	16.3
173860	7	Sololá	716	San Marcos la Laguna 	11	San Marcos la laguna 	1	Enero	2023-01-29T00:00:00	2024-11-08T22:00:00	5	Humedad	68
173861	7	Sololá	716	San Marcos la Laguna 	11	San Marcos la laguna 	1	Enero	2023-01-29T00:00:00	2024-11-08T22:00:00	6	Velocidad del viento	6.4
173862	7	Sololá	716	San Marcos la Laguna 	11	San Marcos la laguna 	1	Enero	2023-01-29T00:00:00	2024-11-08T22:00:00	7	Dirección del viento	6.44
173863	7	Sololá	716	San Marcos la Laguna 	11	San Marcos la laguna 	1	Enero	2023-01-29T00:00:00	2024-11-08T22:00:00	1	Precipitación	0
173864	7	Sololá	716	San Marcos la Laguna 	11	San Marcos la laguna 	1	Enero	2023-01-29T00:00:00	2024-11-08T22:00:00	8	Radiación solar	0
173865	7	Sololá	716	San Marcos la Laguna 	11	San Marcos la laguna 	1	Enero	2023-01-29T00:00:00	2024-11-08T23:00:00	2	Temperatura media	15.6
173866	7	Sololá	716	San Marcos la Laguna 	11	San Marcos la laguna 	1	Enero	2023-01-29T00:00:00	2024-11-08T23:00:00	4	Temperatura máxima	16.3
173867	7	Sololá	716	San Marcos la Laguna 	11	San Marcos la laguna 	1	Enero	2023-01-29T00:00:00	2024-11-08T23:00:00	3	Temperatura mínima	15.5
173868	7	Sololá	716	San Marcos la Laguna 	11	San Marcos la laguna 	1	Enero	2023-01-29T00:00:00	2024-11-08T23:00:00	5	Humedad	69
173869	7	Sololá	716	San Marcos la Laguna 	11	San Marcos la laguna 	1	Enero	2023-01-29T00:00:00	2024-11-08T23:00:00	6	Velocidad del viento	8
173870	7	Sololá	716	San Marcos la Laguna 	11	San Marcos la laguna 	1	Enero	2023-01-29T00:00:00	2024-11-08T23:00:00	7	Dirección del viento	8.05
173871	7	Sololá	716	San Marcos la Laguna 	11	San Marcos la laguna 	1	Enero	2023-01-29T00:00:00	2024-11-08T23:00:00	1	Precipitación	0
173872	7	Sololá	716	San Marcos la Laguna 	11	San Marcos la laguna 	1	Enero	2023-01-29T00:00:00	2024-11-08T23:00:00	8	Radiación solar	0
173873	7	Sololá	716	San Marcos la Laguna 	11	San Marcos la laguna 	1	Enero	2023-01-30T00:00:00	2024-11-08T00:00:00	2	Temperatura media	14.6
173874	7	Sololá	716	San Marcos la Laguna 	11	San Marcos la laguna 	1	Enero	2023-01-30T00:00:00	2024-11-08T00:00:00	4	Temperatura máxima	15.6
173875	7	Sololá	716	San Marcos la Laguna 	11	San Marcos la laguna 	1	Enero	2023-01-30T00:00:00	2024-11-08T00:00:00	3	Temperatura mínima	14.5
173876	7	Sololá	716	San Marcos la Laguna 	11	San Marcos la laguna 	1	Enero	2023-01-30T00:00:00	2024-11-08T00:00:00	5	Humedad	71
173877	7	Sololá	716	San Marcos la Laguna 	11	San Marcos la laguna 	1	Enero	2023-01-30T00:00:00	2024-11-08T00:00:00	6	Velocidad del viento	8
173878	7	Sololá	716	San Marcos la Laguna 	11	San Marcos la laguna 	1	Enero	2023-01-30T00:00:00	2024-11-08T00:00:00	7	Dirección del viento	8.05
173879	7	Sololá	716	San Marcos la Laguna 	11	San Marcos la laguna 	1	Enero	2023-01-30T00:00:00	2024-11-08T00:00:00	1	Precipitación	0
173880	7	Sololá	716	San Marcos la Laguna 	11	San Marcos la laguna 	1	Enero	2023-01-30T00:00:00	2024-11-08T00:00:00	8	Radiación solar	0
173881	7	Sololá	716	San Marcos la Laguna 	11	San Marcos la laguna 	1	Enero	2023-01-30T00:00:00	2024-11-08T01:00:00	2	Temperatura media	13.6
173882	7	Sololá	716	San Marcos la Laguna 	11	San Marcos la laguna 	1	Enero	2023-01-30T00:00:00	2024-11-08T01:00:00	4	Temperatura máxima	14.6
173883	7	Sololá	716	San Marcos la Laguna 	11	San Marcos la laguna 	1	Enero	2023-01-30T00:00:00	2024-11-08T01:00:00	3	Temperatura mínima	13.6
173884	7	Sololá	716	San Marcos la Laguna 	11	San Marcos la laguna 	1	Enero	2023-01-30T00:00:00	2024-11-08T01:00:00	5	Humedad	76
173885	7	Sololá	716	San Marcos la Laguna 	11	San Marcos la laguna 	1	Enero	2023-01-30T00:00:00	2024-11-08T01:00:00	6	Velocidad del viento	8
173886	7	Sololá	716	San Marcos la Laguna 	11	San Marcos la laguna 	1	Enero	2023-01-30T00:00:00	2024-11-08T01:00:00	7	Dirección del viento	8.05
173887	7	Sololá	716	San Marcos la Laguna 	11	San Marcos la laguna 	1	Enero	2023-01-30T00:00:00	2024-11-08T01:00:00	1	Precipitación	0
173888	7	Sololá	716	San Marcos la Laguna 	11	San Marcos la laguna 	1	Enero	2023-01-30T00:00:00	2024-11-08T01:00:00	8	Radiación solar	0
173889	7	Sololá	716	San Marcos la Laguna 	11	San Marcos la laguna 	1	Enero	2023-01-30T00:00:00	2024-11-08T02:00:00	2	Temperatura media	13.3
173890	7	Sololá	716	San Marcos la Laguna 	11	San Marcos la laguna 	1	Enero	2023-01-30T00:00:00	2024-11-08T02:00:00	4	Temperatura máxima	13.7
173891	7	Sololá	716	San Marcos la Laguna 	11	San Marcos la laguna 	1	Enero	2023-01-30T00:00:00	2024-11-08T02:00:00	3	Temperatura mínima	13.1
173892	7	Sololá	716	San Marcos la Laguna 	11	San Marcos la laguna 	1	Enero	2023-01-30T00:00:00	2024-11-08T02:00:00	5	Humedad	77
173893	7	Sololá	716	San Marcos la Laguna 	11	San Marcos la laguna 	1	Enero	2023-01-30T00:00:00	2024-11-08T02:00:00	6	Velocidad del viento	8
173894	7	Sololá	716	San Marcos la Laguna 	11	San Marcos la laguna 	1	Enero	2023-01-30T00:00:00	2024-11-08T02:00:00	7	Dirección del viento	8.05
173895	7	Sololá	716	San Marcos la Laguna 	11	San Marcos la laguna 	1	Enero	2023-01-30T00:00:00	2024-11-08T02:00:00	1	Precipitación	0
173896	7	Sololá	716	San Marcos la Laguna 	11	San Marcos la laguna 	1	Enero	2023-01-30T00:00:00	2024-11-08T02:00:00	8	Radiación solar	0
173897	7	Sololá	716	San Marcos la Laguna 	11	San Marcos la laguna 	1	Enero	2023-01-30T00:00:00	2024-11-08T03:00:00	2	Temperatura media	12.6
173898	7	Sololá	716	San Marcos la Laguna 	11	San Marcos la laguna 	1	Enero	2023-01-30T00:00:00	2024-11-08T03:00:00	4	Temperatura máxima	13.4
173899	7	Sololá	716	San Marcos la Laguna 	11	San Marcos la laguna 	1	Enero	2023-01-30T00:00:00	2024-11-08T03:00:00	3	Temperatura mínima	12.6
173900	7	Sololá	716	San Marcos la Laguna 	11	San Marcos la laguna 	1	Enero	2023-01-30T00:00:00	2024-11-08T03:00:00	5	Humedad	76
173901	7	Sololá	716	San Marcos la Laguna 	11	San Marcos la laguna 	1	Enero	2023-01-30T00:00:00	2024-11-08T03:00:00	6	Velocidad del viento	6.4
173902	7	Sololá	716	San Marcos la Laguna 	11	San Marcos la laguna 	1	Enero	2023-01-30T00:00:00	2024-11-08T03:00:00	7	Dirección del viento	6.44
173903	7	Sololá	716	San Marcos la Laguna 	11	San Marcos la laguna 	1	Enero	2023-01-30T00:00:00	2024-11-08T03:00:00	1	Precipitación	0
173904	7	Sololá	716	San Marcos la Laguna 	11	San Marcos la laguna 	1	Enero	2023-01-30T00:00:00	2024-11-08T03:00:00	8	Radiación solar	0
173905	7	Sololá	716	San Marcos la Laguna 	11	San Marcos la laguna 	1	Enero	2023-01-30T00:00:00	2024-11-08T04:00:00	2	Temperatura media	12.3
173906	7	Sololá	716	San Marcos la Laguna 	11	San Marcos la laguna 	1	Enero	2023-01-30T00:00:00	2024-11-08T04:00:00	4	Temperatura máxima	12.8
173907	7	Sololá	716	San Marcos la Laguna 	11	San Marcos la laguna 	1	Enero	2023-01-30T00:00:00	2024-11-08T04:00:00	3	Temperatura mínima	12.3
173908	7	Sololá	716	San Marcos la Laguna 	11	San Marcos la laguna 	1	Enero	2023-01-30T00:00:00	2024-11-08T04:00:00	5	Humedad	77
173909	7	Sololá	716	San Marcos la Laguna 	11	San Marcos la laguna 	1	Enero	2023-01-30T00:00:00	2024-11-08T04:00:00	6	Velocidad del viento	6.4
173910	7	Sololá	716	San Marcos la Laguna 	11	San Marcos la laguna 	1	Enero	2023-01-30T00:00:00	2024-11-08T04:00:00	7	Dirección del viento	6.44
173911	7	Sololá	716	San Marcos la Laguna 	11	San Marcos la laguna 	1	Enero	2023-01-30T00:00:00	2024-11-08T04:00:00	1	Precipitación	0
173912	7	Sololá	716	San Marcos la Laguna 	11	San Marcos la laguna 	1	Enero	2023-01-30T00:00:00	2024-11-08T04:00:00	8	Radiación solar	0
173913	7	Sololá	716	San Marcos la Laguna 	11	San Marcos la laguna 	1	Enero	2023-01-30T00:00:00	2024-11-08T05:00:00	2	Temperatura media	12.2
173914	7	Sololá	716	San Marcos la Laguna 	11	San Marcos la laguna 	1	Enero	2023-01-30T00:00:00	2024-11-08T05:00:00	4	Temperatura máxima	12.3
173915	7	Sololá	716	San Marcos la Laguna 	11	San Marcos la laguna 	1	Enero	2023-01-30T00:00:00	2024-11-08T05:00:00	3	Temperatura mínima	11.9
173916	7	Sololá	716	San Marcos la Laguna 	11	San Marcos la laguna 	1	Enero	2023-01-30T00:00:00	2024-11-08T05:00:00	5	Humedad	79
173917	7	Sololá	716	San Marcos la Laguna 	11	San Marcos la laguna 	1	Enero	2023-01-30T00:00:00	2024-11-08T05:00:00	6	Velocidad del viento	6.4
173918	7	Sololá	716	San Marcos la Laguna 	11	San Marcos la laguna 	1	Enero	2023-01-30T00:00:00	2024-11-08T05:00:00	7	Dirección del viento	6.44
173919	7	Sololá	716	San Marcos la Laguna 	11	San Marcos la laguna 	1	Enero	2023-01-30T00:00:00	2024-11-08T05:00:00	1	Precipitación	0
173920	7	Sololá	716	San Marcos la Laguna 	11	San Marcos la laguna 	1	Enero	2023-01-30T00:00:00	2024-11-08T05:00:00	8	Radiación solar	0
173921	7	Sololá	716	San Marcos la Laguna 	11	San Marcos la laguna 	1	Enero	2023-01-30T00:00:00	2024-11-08T06:00:00	2	Temperatura media	11.7
173922	7	Sololá	716	San Marcos la Laguna 	11	San Marcos la laguna 	1	Enero	2023-01-30T00:00:00	2024-11-08T06:00:00	4	Temperatura máxima	12.2
173923	7	Sololá	716	San Marcos la Laguna 	11	San Marcos la laguna 	1	Enero	2023-01-30T00:00:00	2024-11-08T06:00:00	3	Temperatura mínima	11.7
173924	7	Sololá	716	San Marcos la Laguna 	11	San Marcos la laguna 	1	Enero	2023-01-30T00:00:00	2024-11-08T06:00:00	5	Humedad	78
173925	7	Sololá	716	San Marcos la Laguna 	11	San Marcos la laguna 	1	Enero	2023-01-30T00:00:00	2024-11-08T06:00:00	6	Velocidad del viento	6.4
173926	7	Sololá	716	San Marcos la Laguna 	11	San Marcos la laguna 	1	Enero	2023-01-30T00:00:00	2024-11-08T06:00:00	7	Dirección del viento	6.44
173927	7	Sololá	716	San Marcos la Laguna 	11	San Marcos la laguna 	1	Enero	2023-01-30T00:00:00	2024-11-08T06:00:00	1	Precipitación	0
173928	7	Sololá	716	San Marcos la Laguna 	11	San Marcos la laguna 	1	Enero	2023-01-30T00:00:00	2024-11-08T06:00:00	8	Radiación solar	0
173929	7	Sololá	716	San Marcos la Laguna 	11	San Marcos la laguna 	1	Enero	2023-01-30T00:00:00	2024-11-08T07:00:00	2	Temperatura media	11.9
173930	7	Sololá	716	San Marcos la Laguna 	11	San Marcos la laguna 	1	Enero	2023-01-30T00:00:00	2024-11-08T07:00:00	4	Temperatura máxima	11.9
173931	7	Sololá	716	San Marcos la Laguna 	11	San Marcos la laguna 	1	Enero	2023-01-30T00:00:00	2024-11-08T07:00:00	3	Temperatura mínima	11.6
173932	7	Sololá	716	San Marcos la Laguna 	11	San Marcos la laguna 	1	Enero	2023-01-30T00:00:00	2024-11-08T07:00:00	5	Humedad	79
173933	7	Sololá	716	San Marcos la Laguna 	11	San Marcos la laguna 	1	Enero	2023-01-30T00:00:00	2024-11-08T07:00:00	6	Velocidad del viento	6.4
173934	7	Sololá	716	San Marcos la Laguna 	11	San Marcos la laguna 	1	Enero	2023-01-30T00:00:00	2024-11-08T07:00:00	7	Dirección del viento	6.44
173935	7	Sololá	716	San Marcos la Laguna 	11	San Marcos la laguna 	1	Enero	2023-01-30T00:00:00	2024-11-08T07:00:00	1	Precipitación	0
173936	7	Sololá	716	San Marcos la Laguna 	11	San Marcos la laguna 	1	Enero	2023-01-30T00:00:00	2024-11-08T07:00:00	8	Radiación solar	4
173937	7	Sololá	716	San Marcos la Laguna 	11	San Marcos la laguna 	1	Enero	2023-01-30T00:00:00	2024-11-08T08:00:00	2	Temperatura media	15.6
173938	7	Sololá	716	San Marcos la Laguna 	11	San Marcos la laguna 	1	Enero	2023-01-30T00:00:00	2024-11-08T08:00:00	4	Temperatura máxima	15.6
173939	7	Sololá	716	San Marcos la Laguna 	11	San Marcos la laguna 	1	Enero	2023-01-30T00:00:00	2024-11-08T08:00:00	3	Temperatura mínima	11.9
173940	7	Sololá	716	San Marcos la Laguna 	11	San Marcos la laguna 	1	Enero	2023-01-30T00:00:00	2024-11-08T08:00:00	5	Humedad	73
173941	7	Sololá	716	San Marcos la Laguna 	11	San Marcos la laguna 	1	Enero	2023-01-30T00:00:00	2024-11-08T08:00:00	6	Velocidad del viento	3.2
173942	7	Sololá	716	San Marcos la Laguna 	11	San Marcos la laguna 	1	Enero	2023-01-30T00:00:00	2024-11-08T08:00:00	7	Dirección del viento	3.22
173943	7	Sololá	716	San Marcos la Laguna 	11	San Marcos la laguna 	1	Enero	2023-01-30T00:00:00	2024-11-08T08:00:00	1	Precipitación	0
173944	7	Sololá	716	San Marcos la Laguna 	11	San Marcos la laguna 	1	Enero	2023-01-30T00:00:00	2024-11-08T08:00:00	8	Radiación solar	127
173945	7	Sololá	716	San Marcos la Laguna 	11	San Marcos la laguna 	1	Enero	2023-01-30T00:00:00	2024-11-08T09:00:00	2	Temperatura media	17.8
173946	7	Sololá	716	San Marcos la Laguna 	11	San Marcos la laguna 	1	Enero	2023-01-30T00:00:00	2024-11-08T09:00:00	4	Temperatura máxima	18
173947	7	Sololá	716	San Marcos la Laguna 	11	San Marcos la laguna 	1	Enero	2023-01-30T00:00:00	2024-11-08T09:00:00	3	Temperatura mínima	15.6
173948	7	Sololá	716	San Marcos la Laguna 	11	San Marcos la laguna 	1	Enero	2023-01-30T00:00:00	2024-11-08T09:00:00	5	Humedad	71
173949	7	Sololá	716	San Marcos la Laguna 	11	San Marcos la laguna 	1	Enero	2023-01-30T00:00:00	2024-11-08T09:00:00	6	Velocidad del viento	3.2
173950	7	Sololá	716	San Marcos la Laguna 	11	San Marcos la laguna 	1	Enero	2023-01-30T00:00:00	2024-11-08T09:00:00	7	Dirección del viento	3.22
173951	7	Sololá	716	San Marcos la Laguna 	11	San Marcos la laguna 	1	Enero	2023-01-30T00:00:00	2024-11-08T09:00:00	1	Precipitación	0
173952	7	Sololá	716	San Marcos la Laguna 	11	San Marcos la laguna 	1	Enero	2023-01-30T00:00:00	2024-11-08T09:00:00	8	Radiación solar	347
173953	7	Sololá	716	San Marcos la Laguna 	11	San Marcos la laguna 	1	Enero	2023-01-30T00:00:00	2024-11-08T10:00:00	2	Temperatura media	19
173954	7	Sololá	716	San Marcos la Laguna 	11	San Marcos la laguna 	1	Enero	2023-01-30T00:00:00	2024-11-08T10:00:00	4	Temperatura máxima	19
173955	7	Sololá	716	San Marcos la Laguna 	11	San Marcos la laguna 	1	Enero	2023-01-30T00:00:00	2024-11-08T10:00:00	3	Temperatura mínima	17.8
173956	7	Sololá	716	San Marcos la Laguna 	11	San Marcos la laguna 	1	Enero	2023-01-30T00:00:00	2024-11-08T10:00:00	5	Humedad	64
173957	7	Sololá	716	San Marcos la Laguna 	11	San Marcos la laguna 	1	Enero	2023-01-30T00:00:00	2024-11-08T10:00:00	6	Velocidad del viento	3.2
173958	7	Sololá	716	San Marcos la Laguna 	11	San Marcos la laguna 	1	Enero	2023-01-30T00:00:00	2024-11-08T10:00:00	7	Dirección del viento	3.22
173959	7	Sololá	716	San Marcos la Laguna 	11	San Marcos la laguna 	1	Enero	2023-01-30T00:00:00	2024-11-08T10:00:00	1	Precipitación	0
173960	7	Sololá	716	San Marcos la Laguna 	11	San Marcos la laguna 	1	Enero	2023-01-30T00:00:00	2024-11-08T10:00:00	8	Radiación solar	537
173961	7	Sololá	716	San Marcos la Laguna 	11	San Marcos la laguna 	1	Enero	2023-01-30T00:00:00	2024-11-08T11:00:00	2	Temperatura media	20.6
173962	7	Sololá	716	San Marcos la Laguna 	11	San Marcos la laguna 	1	Enero	2023-01-30T00:00:00	2024-11-08T11:00:00	4	Temperatura máxima	20.6
173963	7	Sololá	716	San Marcos la Laguna 	11	San Marcos la laguna 	1	Enero	2023-01-30T00:00:00	2024-11-08T11:00:00	3	Temperatura mínima	18.7
173964	7	Sololá	716	San Marcos la Laguna 	11	San Marcos la laguna 	1	Enero	2023-01-30T00:00:00	2024-11-08T11:00:00	5	Humedad	58
173965	7	Sololá	716	San Marcos la Laguna 	11	San Marcos la laguna 	1	Enero	2023-01-30T00:00:00	2024-11-08T11:00:00	6	Velocidad del viento	4.8
173966	7	Sololá	716	San Marcos la Laguna 	11	San Marcos la laguna 	1	Enero	2023-01-30T00:00:00	2024-11-08T11:00:00	7	Dirección del viento	4.83
173967	7	Sololá	716	San Marcos la Laguna 	11	San Marcos la laguna 	1	Enero	2023-01-30T00:00:00	2024-11-08T11:00:00	1	Precipitación	0
173968	7	Sololá	716	San Marcos la Laguna 	11	San Marcos la laguna 	1	Enero	2023-01-30T00:00:00	2024-11-08T11:00:00	8	Radiación solar	616
173969	7	Sololá	716	San Marcos la Laguna 	11	San Marcos la laguna 	1	Enero	2023-01-30T00:00:00	2024-11-08T12:00:00	2	Temperatura media	21
173970	7	Sololá	716	San Marcos la Laguna 	11	San Marcos la laguna 	1	Enero	2023-01-30T00:00:00	2024-11-08T12:00:00	4	Temperatura máxima	22.2
173971	7	Sololá	716	San Marcos la Laguna 	11	San Marcos la laguna 	1	Enero	2023-01-30T00:00:00	2024-11-08T12:00:00	3	Temperatura mínima	20.6
173972	7	Sololá	716	San Marcos la Laguna 	11	San Marcos la laguna 	1	Enero	2023-01-30T00:00:00	2024-11-08T12:00:00	5	Humedad	59
173973	7	Sololá	716	San Marcos la Laguna 	11	San Marcos la laguna 	1	Enero	2023-01-30T00:00:00	2024-11-08T12:00:00	6	Velocidad del viento	4.8
173974	7	Sololá	716	San Marcos la Laguna 	11	San Marcos la laguna 	1	Enero	2023-01-30T00:00:00	2024-11-08T12:00:00	7	Dirección del viento	4.83
173975	7	Sololá	716	San Marcos la Laguna 	11	San Marcos la laguna 	1	Enero	2023-01-30T00:00:00	2024-11-08T12:00:00	1	Precipitación	0
173976	7	Sololá	716	San Marcos la Laguna 	11	San Marcos la laguna 	1	Enero	2023-01-30T00:00:00	2024-11-08T12:00:00	8	Radiación solar	717
173977	7	Sololá	716	San Marcos la Laguna 	11	San Marcos la laguna 	1	Enero	2023-01-30T00:00:00	2024-11-08T13:00:00	2	Temperatura media	21.9
173978	7	Sololá	716	San Marcos la Laguna 	11	San Marcos la laguna 	1	Enero	2023-01-30T00:00:00	2024-11-08T13:00:00	4	Temperatura máxima	21.9
173979	7	Sololá	716	San Marcos la Laguna 	11	San Marcos la laguna 	1	Enero	2023-01-30T00:00:00	2024-11-08T13:00:00	3	Temperatura mínima	20.2
173980	7	Sololá	716	San Marcos la Laguna 	11	San Marcos la laguna 	1	Enero	2023-01-30T00:00:00	2024-11-08T13:00:00	5	Humedad	56
173981	7	Sololá	716	San Marcos la Laguna 	11	San Marcos la laguna 	1	Enero	2023-01-30T00:00:00	2024-11-08T13:00:00	6	Velocidad del viento	11.3
173982	7	Sololá	716	San Marcos la Laguna 	11	San Marcos la laguna 	1	Enero	2023-01-30T00:00:00	2024-11-08T13:00:00	7	Dirección del viento	11.27
173983	7	Sololá	716	San Marcos la Laguna 	11	San Marcos la laguna 	1	Enero	2023-01-30T00:00:00	2024-11-08T13:00:00	1	Precipitación	0
173984	7	Sololá	716	San Marcos la Laguna 	11	San Marcos la laguna 	1	Enero	2023-01-30T00:00:00	2024-11-08T13:00:00	8	Radiación solar	794
173985	7	Sololá	716	San Marcos la Laguna 	11	San Marcos la laguna 	1	Enero	2023-01-30T00:00:00	2024-11-08T14:00:00	2	Temperatura media	22
173986	7	Sololá	716	San Marcos la Laguna 	11	San Marcos la laguna 	1	Enero	2023-01-30T00:00:00	2024-11-08T14:00:00	4	Temperatura máxima	22.3
173987	7	Sololá	716	San Marcos la Laguna 	11	San Marcos la laguna 	1	Enero	2023-01-30T00:00:00	2024-11-08T14:00:00	3	Temperatura mínima	21.7
173988	7	Sololá	716	San Marcos la Laguna 	11	San Marcos la laguna 	1	Enero	2023-01-30T00:00:00	2024-11-08T14:00:00	5	Humedad	62
173989	7	Sololá	716	San Marcos la Laguna 	11	San Marcos la laguna 	1	Enero	2023-01-30T00:00:00	2024-11-08T14:00:00	6	Velocidad del viento	12.9
173990	7	Sololá	716	San Marcos la Laguna 	11	San Marcos la laguna 	1	Enero	2023-01-30T00:00:00	2024-11-08T14:00:00	7	Dirección del viento	12.87
173991	7	Sololá	716	San Marcos la Laguna 	11	San Marcos la laguna 	1	Enero	2023-01-30T00:00:00	2024-11-08T14:00:00	1	Precipitación	0
173992	7	Sololá	716	San Marcos la Laguna 	11	San Marcos la laguna 	1	Enero	2023-01-30T00:00:00	2024-11-08T14:00:00	8	Radiación solar	743
173993	7	Sololá	716	San Marcos la Laguna 	11	San Marcos la laguna 	1	Enero	2023-01-30T00:00:00	2024-11-08T15:00:00	2	Temperatura media	22.4
173994	7	Sololá	716	San Marcos la Laguna 	11	San Marcos la laguna 	1	Enero	2023-01-30T00:00:00	2024-11-08T15:00:00	4	Temperatura máxima	22.4
173995	7	Sololá	716	San Marcos la Laguna 	11	San Marcos la laguna 	1	Enero	2023-01-30T00:00:00	2024-11-08T15:00:00	3	Temperatura mínima	22
173996	7	Sololá	716	San Marcos la Laguna 	11	San Marcos la laguna 	1	Enero	2023-01-30T00:00:00	2024-11-08T15:00:00	5	Humedad	60
173997	7	Sololá	716	San Marcos la Laguna 	11	San Marcos la laguna 	1	Enero	2023-01-30T00:00:00	2024-11-08T15:00:00	6	Velocidad del viento	11.3
173998	7	Sololá	716	San Marcos la Laguna 	11	San Marcos la laguna 	1	Enero	2023-01-30T00:00:00	2024-11-08T15:00:00	7	Dirección del viento	11.27
173999	7	Sololá	716	San Marcos la Laguna 	11	San Marcos la laguna 	1	Enero	2023-01-30T00:00:00	2024-11-08T15:00:00	1	Precipitación	0
174000	7	Sololá	716	San Marcos la Laguna 	11	San Marcos la laguna 	1	Enero	2023-01-30T00:00:00	2024-11-08T15:00:00	8	Radiación solar	626
174001	7	Sololá	716	San Marcos la Laguna 	11	San Marcos la laguna 	1	Enero	2023-01-30T00:00:00	2024-11-08T16:00:00	2	Temperatura media	23.1
174002	7	Sololá	716	San Marcos la Laguna 	11	San Marcos la laguna 	1	Enero	2023-01-30T00:00:00	2024-11-08T16:00:00	4	Temperatura máxima	23.1
174003	7	Sololá	716	San Marcos la Laguna 	11	San Marcos la laguna 	1	Enero	2023-01-30T00:00:00	2024-11-08T16:00:00	3	Temperatura mínima	22.2
174004	7	Sololá	716	San Marcos la Laguna 	11	San Marcos la laguna 	1	Enero	2023-01-30T00:00:00	2024-11-08T16:00:00	5	Humedad	61
174005	7	Sololá	716	San Marcos la Laguna 	11	San Marcos la laguna 	1	Enero	2023-01-30T00:00:00	2024-11-08T16:00:00	6	Velocidad del viento	8
174006	7	Sololá	716	San Marcos la Laguna 	11	San Marcos la laguna 	1	Enero	2023-01-30T00:00:00	2024-11-08T16:00:00	7	Dirección del viento	8.05
174007	7	Sololá	716	San Marcos la Laguna 	11	San Marcos la laguna 	1	Enero	2023-01-30T00:00:00	2024-11-08T16:00:00	1	Precipitación	0
174008	7	Sololá	716	San Marcos la Laguna 	11	San Marcos la laguna 	1	Enero	2023-01-30T00:00:00	2024-11-08T16:00:00	8	Radiación solar	454
174009	7	Sololá	716	San Marcos la Laguna 	11	San Marcos la laguna 	1	Enero	2023-01-30T00:00:00	2024-11-08T17:00:00	2	Temperatura media	21.9
174010	7	Sololá	716	San Marcos la Laguna 	11	San Marcos la laguna 	1	Enero	2023-01-30T00:00:00	2024-11-08T17:00:00	4	Temperatura máxima	23.1
174011	7	Sololá	716	San Marcos la Laguna 	11	San Marcos la laguna 	1	Enero	2023-01-30T00:00:00	2024-11-08T17:00:00	3	Temperatura mínima	21.9
174012	7	Sololá	716	San Marcos la Laguna 	11	San Marcos la laguna 	1	Enero	2023-01-30T00:00:00	2024-11-08T17:00:00	5	Humedad	65
174013	7	Sololá	716	San Marcos la Laguna 	11	San Marcos la laguna 	1	Enero	2023-01-30T00:00:00	2024-11-08T17:00:00	6	Velocidad del viento	6.4
174014	7	Sololá	716	San Marcos la Laguna 	11	San Marcos la laguna 	1	Enero	2023-01-30T00:00:00	2024-11-08T17:00:00	7	Dirección del viento	6.44
174015	7	Sololá	716	San Marcos la Laguna 	11	San Marcos la laguna 	1	Enero	2023-01-30T00:00:00	2024-11-08T17:00:00	1	Precipitación	0
174016	7	Sololá	716	San Marcos la Laguna 	11	San Marcos la laguna 	1	Enero	2023-01-30T00:00:00	2024-11-08T17:00:00	8	Radiación solar	254
174017	7	Sololá	716	San Marcos la Laguna 	11	San Marcos la laguna 	1	Enero	2023-01-30T00:00:00	2024-11-08T18:00:00	2	Temperatura media	20.1
174018	7	Sololá	716	San Marcos la Laguna 	11	San Marcos la laguna 	1	Enero	2023-01-30T00:00:00	2024-11-08T18:00:00	4	Temperatura máxima	21.9
174019	7	Sololá	716	San Marcos la Laguna 	11	San Marcos la laguna 	1	Enero	2023-01-30T00:00:00	2024-11-08T18:00:00	3	Temperatura mínima	20.1
174020	7	Sololá	716	San Marcos la Laguna 	11	San Marcos la laguna 	1	Enero	2023-01-30T00:00:00	2024-11-08T18:00:00	5	Humedad	73
174021	7	Sololá	716	San Marcos la Laguna 	11	San Marcos la laguna 	1	Enero	2023-01-30T00:00:00	2024-11-08T18:00:00	6	Velocidad del viento	4.8
174022	7	Sololá	716	San Marcos la Laguna 	11	San Marcos la laguna 	1	Enero	2023-01-30T00:00:00	2024-11-08T18:00:00	7	Dirección del viento	4.83
174023	7	Sololá	716	San Marcos la Laguna 	11	San Marcos la laguna 	1	Enero	2023-01-30T00:00:00	2024-11-08T18:00:00	1	Precipitación	0
174024	7	Sololá	716	San Marcos la Laguna 	11	San Marcos la laguna 	1	Enero	2023-01-30T00:00:00	2024-11-08T18:00:00	8	Radiación solar	47
174025	7	Sololá	716	San Marcos la Laguna 	11	San Marcos la laguna 	1	Enero	2023-01-30T00:00:00	2024-11-08T19:00:00	2	Temperatura media	17.8
174026	7	Sololá	716	San Marcos la Laguna 	11	San Marcos la laguna 	1	Enero	2023-01-30T00:00:00	2024-11-08T19:00:00	4	Temperatura máxima	20.1
174027	7	Sololá	716	San Marcos la Laguna 	11	San Marcos la laguna 	1	Enero	2023-01-30T00:00:00	2024-11-08T19:00:00	3	Temperatura mínima	17.8
174028	7	Sololá	716	San Marcos la Laguna 	11	San Marcos la laguna 	1	Enero	2023-01-30T00:00:00	2024-11-08T19:00:00	5	Humedad	77
174029	7	Sololá	716	San Marcos la Laguna 	11	San Marcos la laguna 	1	Enero	2023-01-30T00:00:00	2024-11-08T19:00:00	6	Velocidad del viento	4.8
174030	7	Sololá	716	San Marcos la Laguna 	11	San Marcos la laguna 	1	Enero	2023-01-30T00:00:00	2024-11-08T19:00:00	7	Dirección del viento	4.83
174031	7	Sololá	716	San Marcos la Laguna 	11	San Marcos la laguna 	1	Enero	2023-01-30T00:00:00	2024-11-08T19:00:00	1	Precipitación	0
174032	7	Sololá	716	San Marcos la Laguna 	11	San Marcos la laguna 	1	Enero	2023-01-30T00:00:00	2024-11-08T19:00:00	8	Radiación solar	0
174033	7	Sololá	716	San Marcos la Laguna 	11	San Marcos la laguna 	1	Enero	2023-01-30T00:00:00	2024-11-08T20:00:00	2	Temperatura media	17.2
174034	7	Sololá	716	San Marcos la Laguna 	11	San Marcos la laguna 	1	Enero	2023-01-30T00:00:00	2024-11-08T20:00:00	4	Temperatura máxima	17.9
174035	7	Sololá	716	San Marcos la Laguna 	11	San Marcos la laguna 	1	Enero	2023-01-30T00:00:00	2024-11-08T20:00:00	3	Temperatura mínima	17.2
174036	7	Sololá	716	San Marcos la Laguna 	11	San Marcos la laguna 	1	Enero	2023-01-30T00:00:00	2024-11-08T20:00:00	5	Humedad	77
174037	7	Sololá	716	San Marcos la Laguna 	11	San Marcos la laguna 	1	Enero	2023-01-30T00:00:00	2024-11-08T20:00:00	6	Velocidad del viento	6.4
174038	7	Sololá	716	San Marcos la Laguna 	11	San Marcos la laguna 	1	Enero	2023-01-30T00:00:00	2024-11-08T20:00:00	7	Dirección del viento	6.44
174039	7	Sololá	716	San Marcos la Laguna 	11	San Marcos la laguna 	1	Enero	2023-01-30T00:00:00	2024-11-08T20:00:00	1	Precipitación	0
174040	7	Sololá	716	San Marcos la Laguna 	11	San Marcos la laguna 	1	Enero	2023-01-30T00:00:00	2024-11-08T20:00:00	8	Radiación solar	0
174041	7	Sololá	716	San Marcos la Laguna 	11	San Marcos la laguna 	1	Enero	2023-01-30T00:00:00	2024-11-08T21:00:00	2	Temperatura media	16.3
174042	7	Sololá	716	San Marcos la Laguna 	11	San Marcos la laguna 	1	Enero	2023-01-30T00:00:00	2024-11-08T21:00:00	4	Temperatura máxima	17.2
174043	7	Sololá	716	San Marcos la Laguna 	11	San Marcos la laguna 	1	Enero	2023-01-30T00:00:00	2024-11-08T21:00:00	3	Temperatura mínima	16.2
174044	7	Sololá	716	San Marcos la Laguna 	11	San Marcos la laguna 	1	Enero	2023-01-30T00:00:00	2024-11-08T21:00:00	5	Humedad	80
174045	7	Sololá	716	San Marcos la Laguna 	11	San Marcos la laguna 	1	Enero	2023-01-30T00:00:00	2024-11-08T21:00:00	6	Velocidad del viento	4.8
174046	7	Sololá	716	San Marcos la Laguna 	11	San Marcos la laguna 	1	Enero	2023-01-30T00:00:00	2024-11-08T21:00:00	7	Dirección del viento	4.83
174047	7	Sololá	716	San Marcos la Laguna 	11	San Marcos la laguna 	1	Enero	2023-01-30T00:00:00	2024-11-08T21:00:00	1	Precipitación	0
174048	7	Sololá	716	San Marcos la Laguna 	11	San Marcos la laguna 	1	Enero	2023-01-30T00:00:00	2024-11-08T21:00:00	8	Radiación solar	0
174049	7	Sololá	716	San Marcos la Laguna 	11	San Marcos la laguna 	1	Enero	2023-01-30T00:00:00	2024-11-08T22:00:00	2	Temperatura media	17.2
174050	7	Sololá	716	San Marcos la Laguna 	11	San Marcos la laguna 	1	Enero	2023-01-30T00:00:00	2024-11-08T22:00:00	4	Temperatura máxima	17.3
174051	7	Sololá	716	San Marcos la Laguna 	11	San Marcos la laguna 	1	Enero	2023-01-30T00:00:00	2024-11-08T22:00:00	3	Temperatura mínima	16.2
174052	7	Sololá	716	San Marcos la Laguna 	11	San Marcos la laguna 	1	Enero	2023-01-30T00:00:00	2024-11-08T22:00:00	5	Humedad	69
174053	7	Sololá	716	San Marcos la Laguna 	11	San Marcos la laguna 	1	Enero	2023-01-30T00:00:00	2024-11-08T22:00:00	6	Velocidad del viento	8
174054	7	Sololá	716	San Marcos la Laguna 	11	San Marcos la laguna 	1	Enero	2023-01-30T00:00:00	2024-11-08T22:00:00	7	Dirección del viento	8.05
174055	7	Sololá	716	San Marcos la Laguna 	11	San Marcos la laguna 	1	Enero	2023-01-30T00:00:00	2024-11-08T22:00:00	1	Precipitación	0
174056	7	Sololá	716	San Marcos la Laguna 	11	San Marcos la laguna 	1	Enero	2023-01-30T00:00:00	2024-11-08T22:00:00	8	Radiación solar	0
174057	7	Sololá	716	San Marcos la Laguna 	11	San Marcos la laguna 	1	Enero	2023-01-30T00:00:00	2024-11-08T23:00:00	2	Temperatura media	16.9
174058	7	Sololá	716	San Marcos la Laguna 	11	San Marcos la laguna 	1	Enero	2023-01-30T00:00:00	2024-11-08T23:00:00	4	Temperatura máxima	17.3
174059	7	Sololá	716	San Marcos la Laguna 	11	San Marcos la laguna 	1	Enero	2023-01-30T00:00:00	2024-11-08T23:00:00	3	Temperatura mínima	16.8
174060	7	Sololá	716	San Marcos la Laguna 	11	San Marcos la laguna 	1	Enero	2023-01-30T00:00:00	2024-11-08T23:00:00	5	Humedad	68
174061	7	Sololá	716	San Marcos la Laguna 	11	San Marcos la laguna 	1	Enero	2023-01-30T00:00:00	2024-11-08T23:00:00	6	Velocidad del viento	8
174062	7	Sololá	716	San Marcos la Laguna 	11	San Marcos la laguna 	1	Enero	2023-01-30T00:00:00	2024-11-08T23:00:00	7	Dirección del viento	8.05
174063	7	Sololá	716	San Marcos la Laguna 	11	San Marcos la laguna 	1	Enero	2023-01-30T00:00:00	2024-11-08T23:00:00	1	Precipitación	0
174064	7	Sololá	716	San Marcos la Laguna 	11	San Marcos la laguna 	1	Enero	2023-01-30T00:00:00	2024-11-08T23:00:00	8	Radiación solar	0
174065	7	Sololá	716	San Marcos la Laguna 	11	San Marcos la laguna 	1	Enero	2023-01-31T00:00:00	2024-11-08T00:00:00	2	Temperatura media	15.9
174066	7	Sololá	716	San Marcos la Laguna 	11	San Marcos la laguna 	1	Enero	2023-01-31T00:00:00	2024-11-08T00:00:00	4	Temperatura máxima	16.9
174067	7	Sololá	716	San Marcos la Laguna 	11	San Marcos la laguna 	1	Enero	2023-01-31T00:00:00	2024-11-08T00:00:00	3	Temperatura mínima	15.9
174068	7	Sololá	716	San Marcos la Laguna 	11	San Marcos la laguna 	1	Enero	2023-01-31T00:00:00	2024-11-08T00:00:00	5	Humedad	72
174069	7	Sololá	716	San Marcos la Laguna 	11	San Marcos la laguna 	1	Enero	2023-01-31T00:00:00	2024-11-08T00:00:00	6	Velocidad del viento	8
174070	7	Sololá	716	San Marcos la Laguna 	11	San Marcos la laguna 	1	Enero	2023-01-31T00:00:00	2024-11-08T00:00:00	7	Dirección del viento	8.05
174071	7	Sololá	716	San Marcos la Laguna 	11	San Marcos la laguna 	1	Enero	2023-01-31T00:00:00	2024-11-08T00:00:00	1	Precipitación	0
174072	7	Sololá	716	San Marcos la Laguna 	11	San Marcos la laguna 	1	Enero	2023-01-31T00:00:00	2024-11-08T00:00:00	8	Radiación solar	0
174073	7	Sololá	716	San Marcos la Laguna 	11	San Marcos la laguna 	1	Enero	2023-01-31T00:00:00	2024-11-08T01:00:00	2	Temperatura media	16.1
174074	7	Sololá	716	San Marcos la Laguna 	11	San Marcos la laguna 	1	Enero	2023-01-31T00:00:00	2024-11-08T01:00:00	4	Temperatura máxima	16.2
174075	7	Sololá	716	San Marcos la Laguna 	11	San Marcos la laguna 	1	Enero	2023-01-31T00:00:00	2024-11-08T01:00:00	3	Temperatura mínima	15.7
174076	7	Sololá	716	San Marcos la Laguna 	11	San Marcos la laguna 	1	Enero	2023-01-31T00:00:00	2024-11-08T01:00:00	5	Humedad	69
174077	7	Sololá	716	San Marcos la Laguna 	11	San Marcos la laguna 	1	Enero	2023-01-31T00:00:00	2024-11-08T01:00:00	6	Velocidad del viento	6.4
174078	7	Sololá	716	San Marcos la Laguna 	11	San Marcos la laguna 	1	Enero	2023-01-31T00:00:00	2024-11-08T01:00:00	7	Dirección del viento	6.44
174079	7	Sololá	716	San Marcos la Laguna 	11	San Marcos la laguna 	1	Enero	2023-01-31T00:00:00	2024-11-08T01:00:00	1	Precipitación	0
174080	7	Sololá	716	San Marcos la Laguna 	11	San Marcos la laguna 	1	Enero	2023-01-31T00:00:00	2024-11-08T01:00:00	8	Radiación solar	0
174081	7	Sololá	716	San Marcos la Laguna 	11	San Marcos la laguna 	1	Enero	2023-01-31T00:00:00	2024-11-08T02:00:00	2	Temperatura media	14.6
174082	7	Sololá	716	San Marcos la Laguna 	11	San Marcos la laguna 	1	Enero	2023-01-31T00:00:00	2024-11-08T02:00:00	4	Temperatura máxima	16.1
174083	7	Sololá	716	San Marcos la Laguna 	11	San Marcos la laguna 	1	Enero	2023-01-31T00:00:00	2024-11-08T02:00:00	3	Temperatura mínima	14.4
174084	7	Sololá	716	San Marcos la Laguna 	11	San Marcos la laguna 	1	Enero	2023-01-31T00:00:00	2024-11-08T02:00:00	5	Humedad	74
174085	7	Sololá	716	San Marcos la Laguna 	11	San Marcos la laguna 	1	Enero	2023-01-31T00:00:00	2024-11-08T02:00:00	6	Velocidad del viento	6.4
174086	7	Sololá	716	San Marcos la Laguna 	11	San Marcos la laguna 	1	Enero	2023-01-31T00:00:00	2024-11-08T02:00:00	7	Dirección del viento	6.44
174087	7	Sololá	716	San Marcos la Laguna 	11	San Marcos la laguna 	1	Enero	2023-01-31T00:00:00	2024-11-08T02:00:00	1	Precipitación	0
174088	7	Sololá	716	San Marcos la Laguna 	11	San Marcos la laguna 	1	Enero	2023-01-31T00:00:00	2024-11-08T02:00:00	8	Radiación solar	0
174089	7	Sololá	716	San Marcos la Laguna 	11	San Marcos la laguna 	1	Enero	2023-01-31T00:00:00	2024-11-08T03:00:00	2	Temperatura media	13.6
174090	7	Sololá	716	San Marcos la Laguna 	11	San Marcos la laguna 	1	Enero	2023-01-31T00:00:00	2024-11-08T03:00:00	4	Temperatura máxima	14.7
174091	7	Sololá	716	San Marcos la Laguna 	11	San Marcos la laguna 	1	Enero	2023-01-31T00:00:00	2024-11-08T03:00:00	3	Temperatura mínima	13.6
174092	7	Sololá	716	San Marcos la Laguna 	11	San Marcos la laguna 	1	Enero	2023-01-31T00:00:00	2024-11-08T03:00:00	5	Humedad	77
174093	7	Sololá	716	San Marcos la Laguna 	11	San Marcos la laguna 	1	Enero	2023-01-31T00:00:00	2024-11-08T03:00:00	6	Velocidad del viento	8
174094	7	Sololá	716	San Marcos la Laguna 	11	San Marcos la laguna 	1	Enero	2023-01-31T00:00:00	2024-11-08T03:00:00	7	Dirección del viento	8.05
174095	7	Sololá	716	San Marcos la Laguna 	11	San Marcos la laguna 	1	Enero	2023-01-31T00:00:00	2024-11-08T03:00:00	1	Precipitación	0
174096	7	Sololá	716	San Marcos la Laguna 	11	San Marcos la laguna 	1	Enero	2023-01-31T00:00:00	2024-11-08T03:00:00	8	Radiación solar	0
174097	7	Sololá	716	San Marcos la Laguna 	11	San Marcos la laguna 	1	Enero	2023-01-31T00:00:00	2024-11-08T04:00:00	2	Temperatura media	13.4
174098	7	Sololá	716	San Marcos la Laguna 	11	San Marcos la laguna 	1	Enero	2023-01-31T00:00:00	2024-11-08T04:00:00	4	Temperatura máxima	13.9
174099	7	Sololá	716	San Marcos la Laguna 	11	San Marcos la laguna 	1	Enero	2023-01-31T00:00:00	2024-11-08T04:00:00	3	Temperatura mínima	13.3
174100	7	Sololá	716	San Marcos la Laguna 	11	San Marcos la laguna 	1	Enero	2023-01-31T00:00:00	2024-11-08T04:00:00	5	Humedad	78
174101	7	Sololá	716	San Marcos la Laguna 	11	San Marcos la laguna 	1	Enero	2023-01-31T00:00:00	2024-11-08T04:00:00	6	Velocidad del viento	8
174102	7	Sololá	716	San Marcos la Laguna 	11	San Marcos la laguna 	1	Enero	2023-01-31T00:00:00	2024-11-08T04:00:00	7	Dirección del viento	8.05
174103	7	Sololá	716	San Marcos la Laguna 	11	San Marcos la laguna 	1	Enero	2023-01-31T00:00:00	2024-11-08T04:00:00	1	Precipitación	0
174104	7	Sololá	716	San Marcos la Laguna 	11	San Marcos la laguna 	1	Enero	2023-01-31T00:00:00	2024-11-08T04:00:00	8	Radiación solar	0
174105	7	Sololá	716	San Marcos la Laguna 	11	San Marcos la laguna 	1	Enero	2023-01-31T00:00:00	2024-11-08T05:00:00	2	Temperatura media	13.2
174106	7	Sololá	716	San Marcos la Laguna 	11	San Marcos la laguna 	1	Enero	2023-01-31T00:00:00	2024-11-08T05:00:00	4	Temperatura máxima	13.5
174107	7	Sololá	716	San Marcos la Laguna 	11	San Marcos la laguna 	1	Enero	2023-01-31T00:00:00	2024-11-08T05:00:00	3	Temperatura mínima	13.2
174108	7	Sololá	716	San Marcos la Laguna 	11	San Marcos la laguna 	1	Enero	2023-01-31T00:00:00	2024-11-08T05:00:00	5	Humedad	79
174109	7	Sololá	716	San Marcos la Laguna 	11	San Marcos la laguna 	1	Enero	2023-01-31T00:00:00	2024-11-08T05:00:00	6	Velocidad del viento	8
174110	7	Sololá	716	San Marcos la Laguna 	11	San Marcos la laguna 	1	Enero	2023-01-31T00:00:00	2024-11-08T05:00:00	7	Dirección del viento	8.05
174111	7	Sololá	716	San Marcos la Laguna 	11	San Marcos la laguna 	1	Enero	2023-01-31T00:00:00	2024-11-08T05:00:00	1	Precipitación	0
174112	7	Sololá	716	San Marcos la Laguna 	11	San Marcos la laguna 	1	Enero	2023-01-31T00:00:00	2024-11-08T05:00:00	8	Radiación solar	0
174113	7	Sololá	716	San Marcos la Laguna 	11	San Marcos la laguna 	1	Enero	2023-01-31T00:00:00	2024-11-08T06:00:00	2	Temperatura media	12.7
174114	7	Sololá	716	San Marcos la Laguna 	11	San Marcos la laguna 	1	Enero	2023-01-31T00:00:00	2024-11-08T06:00:00	4	Temperatura máxima	13.2
174115	7	Sololá	716	San Marcos la Laguna 	11	San Marcos la laguna 	1	Enero	2023-01-31T00:00:00	2024-11-08T06:00:00	3	Temperatura mínima	12.6
174116	7	Sololá	716	San Marcos la Laguna 	11	San Marcos la laguna 	1	Enero	2023-01-31T00:00:00	2024-11-08T06:00:00	5	Humedad	82
174117	7	Sololá	716	San Marcos la Laguna 	11	San Marcos la laguna 	1	Enero	2023-01-31T00:00:00	2024-11-08T06:00:00	6	Velocidad del viento	8
174118	7	Sololá	716	San Marcos la Laguna 	11	San Marcos la laguna 	1	Enero	2023-01-31T00:00:00	2024-11-08T06:00:00	7	Dirección del viento	8.05
174119	7	Sololá	716	San Marcos la Laguna 	11	San Marcos la laguna 	1	Enero	2023-01-31T00:00:00	2024-11-08T06:00:00	1	Precipitación	0
174120	7	Sololá	716	San Marcos la Laguna 	11	San Marcos la laguna 	1	Enero	2023-01-31T00:00:00	2024-11-08T06:00:00	8	Radiación solar	0
174121	7	Sololá	716	San Marcos la Laguna 	11	San Marcos la laguna 	1	Enero	2023-01-31T00:00:00	2024-11-08T07:00:00	2	Temperatura media	12.9
174122	7	Sololá	716	San Marcos la Laguna 	11	San Marcos la laguna 	1	Enero	2023-01-31T00:00:00	2024-11-08T07:00:00	4	Temperatura máxima	13
174123	7	Sololá	716	San Marcos la Laguna 	11	San Marcos la laguna 	1	Enero	2023-01-31T00:00:00	2024-11-08T07:00:00	3	Temperatura mínima	12.7
174124	7	Sololá	716	San Marcos la Laguna 	11	San Marcos la laguna 	1	Enero	2023-01-31T00:00:00	2024-11-08T07:00:00	5	Humedad	80
174125	7	Sololá	716	San Marcos la Laguna 	11	San Marcos la laguna 	1	Enero	2023-01-31T00:00:00	2024-11-08T07:00:00	6	Velocidad del viento	8
174126	7	Sololá	716	San Marcos la Laguna 	11	San Marcos la laguna 	1	Enero	2023-01-31T00:00:00	2024-11-08T07:00:00	7	Dirección del viento	8.05
174127	7	Sololá	716	San Marcos la Laguna 	11	San Marcos la laguna 	1	Enero	2023-01-31T00:00:00	2024-11-08T07:00:00	1	Precipitación	0
174128	7	Sololá	716	San Marcos la Laguna 	11	San Marcos la laguna 	1	Enero	2023-01-31T00:00:00	2024-11-08T07:00:00	8	Radiación solar	5
174129	7	Sololá	716	San Marcos la Laguna 	11	San Marcos la laguna 	1	Enero	2023-01-31T00:00:00	2024-11-08T08:00:00	2	Temperatura media	15.9
174130	7	Sololá	716	San Marcos la Laguna 	11	San Marcos la laguna 	1	Enero	2023-01-31T00:00:00	2024-11-08T08:00:00	4	Temperatura máxima	16
174131	7	Sololá	716	San Marcos la Laguna 	11	San Marcos la laguna 	1	Enero	2023-01-31T00:00:00	2024-11-08T08:00:00	3	Temperatura mínima	12.9
174132	7	Sololá	716	San Marcos la Laguna 	11	San Marcos la laguna 	1	Enero	2023-01-31T00:00:00	2024-11-08T08:00:00	5	Humedad	72
174133	7	Sololá	716	San Marcos la Laguna 	11	San Marcos la laguna 	1	Enero	2023-01-31T00:00:00	2024-11-08T08:00:00	6	Velocidad del viento	4.8
174134	7	Sololá	716	San Marcos la Laguna 	11	San Marcos la laguna 	1	Enero	2023-01-31T00:00:00	2024-11-08T08:00:00	7	Dirección del viento	4.83
174135	7	Sololá	716	San Marcos la Laguna 	11	San Marcos la laguna 	1	Enero	2023-01-31T00:00:00	2024-11-08T08:00:00	1	Precipitación	0
174136	7	Sololá	716	San Marcos la Laguna 	11	San Marcos la laguna 	1	Enero	2023-01-31T00:00:00	2024-11-08T08:00:00	8	Radiación solar	129
174137	7	Sololá	716	San Marcos la Laguna 	11	San Marcos la laguna 	1	Enero	2023-01-31T00:00:00	2024-11-08T09:00:00	2	Temperatura media	19.5
174138	7	Sololá	716	San Marcos la Laguna 	11	San Marcos la laguna 	1	Enero	2023-01-31T00:00:00	2024-11-08T09:00:00	4	Temperatura máxima	19.5
174139	7	Sololá	716	San Marcos la Laguna 	11	San Marcos la laguna 	1	Enero	2023-01-31T00:00:00	2024-11-08T09:00:00	3	Temperatura mínima	16
174140	7	Sololá	716	San Marcos la Laguna 	11	San Marcos la laguna 	1	Enero	2023-01-31T00:00:00	2024-11-08T09:00:00	5	Humedad	65
174141	7	Sololá	716	San Marcos la Laguna 	11	San Marcos la laguna 	1	Enero	2023-01-31T00:00:00	2024-11-08T09:00:00	6	Velocidad del viento	1.6
174142	7	Sololá	716	San Marcos la Laguna 	11	San Marcos la laguna 	1	Enero	2023-01-31T00:00:00	2024-11-08T09:00:00	7	Dirección del viento	1.61
174143	7	Sololá	716	San Marcos la Laguna 	11	San Marcos la laguna 	1	Enero	2023-01-31T00:00:00	2024-11-08T09:00:00	1	Precipitación	0
174144	7	Sololá	716	San Marcos la Laguna 	11	San Marcos la laguna 	1	Enero	2023-01-31T00:00:00	2024-11-08T09:00:00	8	Radiación solar	350
174145	7	Sololá	716	San Marcos la Laguna 	11	San Marcos la laguna 	1	Enero	2023-01-31T00:00:00	2024-11-08T10:00:00	2	Temperatura media	19.8
174146	7	Sololá	716	San Marcos la Laguna 	11	San Marcos la laguna 	1	Enero	2023-01-31T00:00:00	2024-11-08T10:00:00	4	Temperatura máxima	19.8
174147	7	Sololá	716	San Marcos la Laguna 	11	San Marcos la laguna 	1	Enero	2023-01-31T00:00:00	2024-11-08T10:00:00	3	Temperatura mínima	19.5
174148	7	Sololá	716	San Marcos la Laguna 	11	San Marcos la laguna 	1	Enero	2023-01-31T00:00:00	2024-11-08T10:00:00	5	Humedad	58
174149	7	Sololá	716	San Marcos la Laguna 	11	San Marcos la laguna 	1	Enero	2023-01-31T00:00:00	2024-11-08T10:00:00	6	Velocidad del viento	4.8
174150	7	Sololá	716	San Marcos la Laguna 	11	San Marcos la laguna 	1	Enero	2023-01-31T00:00:00	2024-11-08T10:00:00	7	Dirección del viento	4.83
174151	7	Sololá	716	San Marcos la Laguna 	11	San Marcos la laguna 	1	Enero	2023-01-31T00:00:00	2024-11-08T10:00:00	1	Precipitación	0
174152	7	Sololá	716	San Marcos la Laguna 	11	San Marcos la laguna 	1	Enero	2023-01-31T00:00:00	2024-11-08T10:00:00	8	Radiación solar	543
174153	7	Sololá	716	San Marcos la Laguna 	11	San Marcos la laguna 	1	Enero	2023-01-31T00:00:00	2024-11-08T11:00:00	2	Temperatura media	21.8
174154	7	Sololá	716	San Marcos la Laguna 	11	San Marcos la laguna 	1	Enero	2023-01-31T00:00:00	2024-11-08T11:00:00	4	Temperatura máxima	21.8
174155	7	Sololá	716	San Marcos la Laguna 	11	San Marcos la laguna 	1	Enero	2023-01-31T00:00:00	2024-11-08T11:00:00	3	Temperatura mínima	19.8
174156	7	Sololá	716	San Marcos la Laguna 	11	San Marcos la laguna 	1	Enero	2023-01-31T00:00:00	2024-11-08T11:00:00	5	Humedad	50
174157	7	Sololá	716	San Marcos la Laguna 	11	San Marcos la laguna 	1	Enero	2023-01-31T00:00:00	2024-11-08T11:00:00	6	Velocidad del viento	3.2
174158	7	Sololá	716	San Marcos la Laguna 	11	San Marcos la laguna 	1	Enero	2023-01-31T00:00:00	2024-11-08T11:00:00	7	Dirección del viento	3.22
174159	7	Sololá	716	San Marcos la Laguna 	11	San Marcos la laguna 	1	Enero	2023-01-31T00:00:00	2024-11-08T11:00:00	1	Precipitación	0
174160	7	Sololá	716	San Marcos la Laguna 	11	San Marcos la laguna 	1	Enero	2023-01-31T00:00:00	2024-11-08T11:00:00	8	Radiación solar	633
174161	7	Sololá	716	San Marcos la Laguna 	11	San Marcos la laguna 	1	Enero	2023-01-31T00:00:00	2024-11-08T12:00:00	2	Temperatura media	23.4
174162	7	Sololá	716	San Marcos la Laguna 	11	San Marcos la laguna 	1	Enero	2023-01-31T00:00:00	2024-11-08T12:00:00	4	Temperatura máxima	23.4
174163	7	Sololá	716	San Marcos la Laguna 	11	San Marcos la laguna 	1	Enero	2023-01-31T00:00:00	2024-11-08T12:00:00	3	Temperatura mínima	21.8
174164	7	Sololá	716	San Marcos la Laguna 	11	San Marcos la laguna 	1	Enero	2023-01-31T00:00:00	2024-11-08T12:00:00	5	Humedad	44
174165	7	Sololá	716	San Marcos la Laguna 	11	San Marcos la laguna 	1	Enero	2023-01-31T00:00:00	2024-11-08T12:00:00	6	Velocidad del viento	3.2
174166	7	Sololá	716	San Marcos la Laguna 	11	San Marcos la laguna 	1	Enero	2023-01-31T00:00:00	2024-11-08T12:00:00	7	Dirección del viento	3.22
174167	7	Sololá	716	San Marcos la Laguna 	11	San Marcos la laguna 	1	Enero	2023-01-31T00:00:00	2024-11-08T12:00:00	1	Precipitación	0
174168	7	Sololá	716	San Marcos la Laguna 	11	San Marcos la laguna 	1	Enero	2023-01-31T00:00:00	2024-11-08T12:00:00	8	Radiación solar	728
174169	7	Sololá	716	San Marcos la Laguna 	11	San Marcos la laguna 	1	Enero	2023-01-31T00:00:00	2024-11-08T13:00:00	2	Temperatura media	25.2
174170	7	Sololá	716	San Marcos la Laguna 	11	San Marcos la laguna 	1	Enero	2023-01-31T00:00:00	2024-11-08T13:00:00	4	Temperatura máxima	25.2
174171	7	Sololá	716	San Marcos la Laguna 	11	San Marcos la laguna 	1	Enero	2023-01-31T00:00:00	2024-11-08T13:00:00	3	Temperatura mínima	23.4
174172	7	Sololá	716	San Marcos la Laguna 	11	San Marcos la laguna 	1	Enero	2023-01-31T00:00:00	2024-11-08T13:00:00	5	Humedad	39
174173	7	Sololá	716	San Marcos la Laguna 	11	San Marcos la laguna 	1	Enero	2023-01-31T00:00:00	2024-11-08T13:00:00	6	Velocidad del viento	3.2
174174	7	Sololá	716	San Marcos la Laguna 	11	San Marcos la laguna 	1	Enero	2023-01-31T00:00:00	2024-11-08T13:00:00	7	Dirección del viento	3.22
174175	7	Sololá	716	San Marcos la Laguna 	11	San Marcos la laguna 	1	Enero	2023-01-31T00:00:00	2024-11-08T13:00:00	1	Precipitación	0
174176	7	Sololá	716	San Marcos la Laguna 	11	San Marcos la laguna 	1	Enero	2023-01-31T00:00:00	2024-11-08T13:00:00	8	Radiación solar	819
174177	7	Sololá	716	San Marcos la Laguna 	11	San Marcos la laguna 	1	Enero	2023-01-31T00:00:00	2024-11-08T14:00:00	2	Temperatura media	25.4
174178	7	Sololá	716	San Marcos la Laguna 	11	San Marcos la laguna 	1	Enero	2023-01-31T00:00:00	2024-11-08T14:00:00	4	Temperatura máxima	25.4
174179	7	Sololá	716	San Marcos la Laguna 	11	San Marcos la laguna 	1	Enero	2023-01-31T00:00:00	2024-11-08T14:00:00	3	Temperatura mínima	24.4
174180	7	Sololá	716	San Marcos la Laguna 	11	San Marcos la laguna 	1	Enero	2023-01-31T00:00:00	2024-11-08T14:00:00	5	Humedad	41
174181	7	Sololá	716	San Marcos la Laguna 	11	San Marcos la laguna 	1	Enero	2023-01-31T00:00:00	2024-11-08T14:00:00	6	Velocidad del viento	4.8
174182	7	Sololá	716	San Marcos la Laguna 	11	San Marcos la laguna 	1	Enero	2023-01-31T00:00:00	2024-11-08T14:00:00	7	Dirección del viento	4.83
174183	7	Sololá	716	San Marcos la Laguna 	11	San Marcos la laguna 	1	Enero	2023-01-31T00:00:00	2024-11-08T14:00:00	1	Precipitación	0
174184	7	Sololá	716	San Marcos la Laguna 	11	San Marcos la laguna 	1	Enero	2023-01-31T00:00:00	2024-11-08T14:00:00	8	Radiación solar	768
174185	7	Sololá	716	San Marcos la Laguna 	11	San Marcos la laguna 	1	Enero	2023-01-31T00:00:00	2024-11-08T15:00:00	2	Temperatura media	23.4
174186	7	Sololá	716	San Marcos la Laguna 	11	San Marcos la laguna 	1	Enero	2023-01-31T00:00:00	2024-11-08T15:00:00	4	Temperatura máxima	25.5
174187	7	Sololá	716	San Marcos la Laguna 	11	San Marcos la laguna 	1	Enero	2023-01-31T00:00:00	2024-11-08T15:00:00	3	Temperatura mínima	23.4
174188	7	Sololá	716	San Marcos la Laguna 	11	San Marcos la laguna 	1	Enero	2023-01-31T00:00:00	2024-11-08T15:00:00	5	Humedad	60
174189	7	Sololá	716	San Marcos la Laguna 	11	San Marcos la laguna 	1	Enero	2023-01-31T00:00:00	2024-11-08T15:00:00	6	Velocidad del viento	8
174190	7	Sololá	716	San Marcos la Laguna 	11	San Marcos la laguna 	1	Enero	2023-01-31T00:00:00	2024-11-08T15:00:00	7	Dirección del viento	8.05
174191	7	Sololá	716	San Marcos la Laguna 	11	San Marcos la laguna 	1	Enero	2023-01-31T00:00:00	2024-11-08T15:00:00	1	Precipitación	0
174192	7	Sololá	716	San Marcos la Laguna 	11	San Marcos la laguna 	1	Enero	2023-01-31T00:00:00	2024-11-08T15:00:00	8	Radiación solar	648
174193	7	Sololá	716	San Marcos la Laguna 	11	San Marcos la laguna 	1	Enero	2023-01-31T00:00:00	2024-11-08T16:00:00	2	Temperatura media	22.3
174194	7	Sololá	716	San Marcos la Laguna 	11	San Marcos la laguna 	1	Enero	2023-01-31T00:00:00	2024-11-08T16:00:00	4	Temperatura máxima	23.4
174195	7	Sololá	716	San Marcos la Laguna 	11	San Marcos la laguna 	1	Enero	2023-01-31T00:00:00	2024-11-08T16:00:00	3	Temperatura mínima	22.3
174196	7	Sololá	716	San Marcos la Laguna 	11	San Marcos la laguna 	1	Enero	2023-01-31T00:00:00	2024-11-08T16:00:00	5	Humedad	69
174197	7	Sololá	716	San Marcos la Laguna 	11	San Marcos la laguna 	1	Enero	2023-01-31T00:00:00	2024-11-08T16:00:00	6	Velocidad del viento	9.7
174198	7	Sololá	716	San Marcos la Laguna 	11	San Marcos la laguna 	1	Enero	2023-01-31T00:00:00	2024-11-08T16:00:00	7	Dirección del viento	9.66
174199	7	Sololá	716	San Marcos la Laguna 	11	San Marcos la laguna 	1	Enero	2023-01-31T00:00:00	2024-11-08T16:00:00	1	Precipitación	0
174200	7	Sololá	716	San Marcos la Laguna 	11	San Marcos la laguna 	1	Enero	2023-01-31T00:00:00	2024-11-08T16:00:00	8	Radiación solar	471
174201	7	Sololá	716	San Marcos la Laguna 	11	San Marcos la laguna 	1	Enero	2023-01-31T00:00:00	2024-11-08T17:00:00	2	Temperatura media	22.7
174202	7	Sololá	716	San Marcos la Laguna 	11	San Marcos la laguna 	1	Enero	2023-01-31T00:00:00	2024-11-08T17:00:00	4	Temperatura máxima	22.9
174203	7	Sololá	716	San Marcos la Laguna 	11	San Marcos la laguna 	1	Enero	2023-01-31T00:00:00	2024-11-08T17:00:00	3	Temperatura mínima	21.9
174204	7	Sololá	716	San Marcos la Laguna 	11	San Marcos la laguna 	1	Enero	2023-01-31T00:00:00	2024-11-08T17:00:00	5	Humedad	66
174205	7	Sololá	716	San Marcos la Laguna 	11	San Marcos la laguna 	1	Enero	2023-01-31T00:00:00	2024-11-08T17:00:00	6	Velocidad del viento	6.4
174206	7	Sololá	716	San Marcos la Laguna 	11	San Marcos la laguna 	1	Enero	2023-01-31T00:00:00	2024-11-08T17:00:00	7	Dirección del viento	6.44
174207	7	Sololá	716	San Marcos la Laguna 	11	San Marcos la laguna 	1	Enero	2023-01-31T00:00:00	2024-11-08T17:00:00	1	Precipitación	0
174208	7	Sololá	716	San Marcos la Laguna 	11	San Marcos la laguna 	1	Enero	2023-01-31T00:00:00	2024-11-08T17:00:00	8	Radiación solar	257
174209	7	Sololá	716	San Marcos la Laguna 	11	San Marcos la laguna 	1	Enero	2023-01-31T00:00:00	2024-11-08T18:00:00	2	Temperatura media	20.3
174210	7	Sololá	716	San Marcos la Laguna 	11	San Marcos la laguna 	1	Enero	2023-01-31T00:00:00	2024-11-08T18:00:00	4	Temperatura máxima	22.7
174211	7	Sololá	716	San Marcos la Laguna 	11	San Marcos la laguna 	1	Enero	2023-01-31T00:00:00	2024-11-08T18:00:00	3	Temperatura mínima	20.3
174212	7	Sololá	716	San Marcos la Laguna 	11	San Marcos la laguna 	1	Enero	2023-01-31T00:00:00	2024-11-08T18:00:00	5	Humedad	73
174213	7	Sololá	716	San Marcos la Laguna 	11	San Marcos la laguna 	1	Enero	2023-01-31T00:00:00	2024-11-08T18:00:00	6	Velocidad del viento	4.8
174214	7	Sololá	716	San Marcos la Laguna 	11	San Marcos la laguna 	1	Enero	2023-01-31T00:00:00	2024-11-08T18:00:00	7	Dirección del viento	4.83
174215	7	Sololá	716	San Marcos la Laguna 	11	San Marcos la laguna 	1	Enero	2023-01-31T00:00:00	2024-11-08T18:00:00	1	Precipitación	0
174216	7	Sololá	716	San Marcos la Laguna 	11	San Marcos la laguna 	1	Enero	2023-01-31T00:00:00	2024-11-08T18:00:00	8	Radiación solar	52
174217	7	Sololá	716	San Marcos la Laguna 	11	San Marcos la laguna 	1	Enero	2023-01-31T00:00:00	2024-11-08T19:00:00	2	Temperatura media	18
174218	7	Sololá	716	San Marcos la Laguna 	11	San Marcos la laguna 	1	Enero	2023-01-31T00:00:00	2024-11-08T19:00:00	4	Temperatura máxima	20.3
174219	7	Sololá	716	San Marcos la Laguna 	11	San Marcos la laguna 	1	Enero	2023-01-31T00:00:00	2024-11-08T19:00:00	3	Temperatura mínima	18
174220	7	Sololá	716	San Marcos la Laguna 	11	San Marcos la laguna 	1	Enero	2023-01-31T00:00:00	2024-11-08T19:00:00	5	Humedad	72
174221	7	Sololá	716	San Marcos la Laguna 	11	San Marcos la laguna 	1	Enero	2023-01-31T00:00:00	2024-11-08T19:00:00	6	Velocidad del viento	3.2
174222	7	Sololá	716	San Marcos la Laguna 	11	San Marcos la laguna 	1	Enero	2023-01-31T00:00:00	2024-11-08T19:00:00	7	Dirección del viento	3.22
174223	7	Sololá	716	San Marcos la Laguna 	11	San Marcos la laguna 	1	Enero	2023-01-31T00:00:00	2024-11-08T19:00:00	1	Precipitación	0
174224	7	Sololá	716	San Marcos la Laguna 	11	San Marcos la laguna 	1	Enero	2023-01-31T00:00:00	2024-11-08T19:00:00	8	Radiación solar	0
174225	7	Sololá	716	San Marcos la Laguna 	11	San Marcos la laguna 	1	Enero	2023-01-31T00:00:00	2024-11-08T20:00:00	2	Temperatura media	16.9
174226	7	Sololá	716	San Marcos la Laguna 	11	San Marcos la laguna 	1	Enero	2023-01-31T00:00:00	2024-11-08T20:00:00	4	Temperatura máxima	18
174227	7	Sololá	716	San Marcos la Laguna 	11	San Marcos la laguna 	1	Enero	2023-01-31T00:00:00	2024-11-08T20:00:00	3	Temperatura mínima	16.9
174228	7	Sololá	716	San Marcos la Laguna 	11	San Marcos la laguna 	1	Enero	2023-01-31T00:00:00	2024-11-08T20:00:00	5	Humedad	66
174229	7	Sololá	716	San Marcos la Laguna 	11	San Marcos la laguna 	1	Enero	2023-01-31T00:00:00	2024-11-08T20:00:00	6	Velocidad del viento	6.4
174230	7	Sololá	716	San Marcos la Laguna 	11	San Marcos la laguna 	1	Enero	2023-01-31T00:00:00	2024-11-08T20:00:00	7	Dirección del viento	6.44
174231	7	Sololá	716	San Marcos la Laguna 	11	San Marcos la laguna 	1	Enero	2023-01-31T00:00:00	2024-11-08T20:00:00	1	Precipitación	0
174232	7	Sololá	716	San Marcos la Laguna 	11	San Marcos la laguna 	1	Enero	2023-01-31T00:00:00	2024-11-08T20:00:00	8	Radiación solar	0
174233	7	Sololá	716	San Marcos la Laguna 	11	San Marcos la laguna 	1	Enero	2023-01-31T00:00:00	2024-11-08T21:00:00	2	Temperatura media	16.7
174234	7	Sololá	716	San Marcos la Laguna 	11	San Marcos la laguna 	1	Enero	2023-01-31T00:00:00	2024-11-08T21:00:00	4	Temperatura máxima	17.2
174235	7	Sololá	716	San Marcos la Laguna 	11	San Marcos la laguna 	1	Enero	2023-01-31T00:00:00	2024-11-08T21:00:00	3	Temperatura mínima	16.7
174236	7	Sololá	716	San Marcos la Laguna 	11	San Marcos la laguna 	1	Enero	2023-01-31T00:00:00	2024-11-08T21:00:00	5	Humedad	69
174237	7	Sololá	716	San Marcos la Laguna 	11	San Marcos la laguna 	1	Enero	2023-01-31T00:00:00	2024-11-08T21:00:00	6	Velocidad del viento	8
174238	7	Sololá	716	San Marcos la Laguna 	11	San Marcos la laguna 	1	Enero	2023-01-31T00:00:00	2024-11-08T21:00:00	7	Dirección del viento	8.05
174239	7	Sololá	716	San Marcos la Laguna 	11	San Marcos la laguna 	1	Enero	2023-01-31T00:00:00	2024-11-08T21:00:00	1	Precipitación	0
174240	7	Sololá	716	San Marcos la Laguna 	11	San Marcos la laguna 	1	Enero	2023-01-31T00:00:00	2024-11-08T21:00:00	8	Radiación solar	0
174241	7	Sololá	716	San Marcos la Laguna 	11	San Marcos la laguna 	1	Enero	2023-01-31T00:00:00	2024-11-08T22:00:00	2	Temperatura media	16.1
174242	7	Sololá	716	San Marcos la Laguna 	11	San Marcos la laguna 	1	Enero	2023-01-31T00:00:00	2024-11-08T22:00:00	4	Temperatura máxima	17.1
174243	7	Sololá	716	San Marcos la Laguna 	11	San Marcos la laguna 	1	Enero	2023-01-31T00:00:00	2024-11-08T22:00:00	3	Temperatura mínima	16.1
174244	7	Sololá	716	San Marcos la Laguna 	11	San Marcos la laguna 	1	Enero	2023-01-31T00:00:00	2024-11-08T22:00:00	5	Humedad	75
174245	7	Sololá	716	San Marcos la Laguna 	11	San Marcos la laguna 	1	Enero	2023-01-31T00:00:00	2024-11-08T22:00:00	6	Velocidad del viento	8
174246	7	Sololá	716	San Marcos la Laguna 	11	San Marcos la laguna 	1	Enero	2023-01-31T00:00:00	2024-11-08T22:00:00	7	Dirección del viento	8.05
174247	7	Sololá	716	San Marcos la Laguna 	11	San Marcos la laguna 	1	Enero	2023-01-31T00:00:00	2024-11-08T22:00:00	1	Precipitación	0
174248	7	Sololá	716	San Marcos la Laguna 	11	San Marcos la laguna 	1	Enero	2023-01-31T00:00:00	2024-11-08T22:00:00	8	Radiación solar	0
174249	7	Sololá	716	San Marcos la Laguna 	11	San Marcos la laguna 	1	Enero	2023-01-31T00:00:00	2024-11-08T23:00:00	2	Temperatura media	16.1
174250	7	Sololá	716	San Marcos la Laguna 	11	San Marcos la laguna 	1	Enero	2023-01-31T00:00:00	2024-11-08T23:00:00	4	Temperatura máxima	16.4
174251	7	Sololá	716	San Marcos la Laguna 	11	San Marcos la laguna 	1	Enero	2023-01-31T00:00:00	2024-11-08T23:00:00	3	Temperatura mínima	15.8
174252	7	Sololá	716	San Marcos la Laguna 	11	San Marcos la laguna 	1	Enero	2023-01-31T00:00:00	2024-11-08T23:00:00	5	Humedad	74
174253	7	Sololá	716	San Marcos la Laguna 	11	San Marcos la laguna 	1	Enero	2023-01-31T00:00:00	2024-11-08T23:00:00	6	Velocidad del viento	8
174254	7	Sololá	716	San Marcos la Laguna 	11	San Marcos la laguna 	1	Enero	2023-01-31T00:00:00	2024-11-08T23:00:00	7	Dirección del viento	8.05
174255	7	Sololá	716	San Marcos la Laguna 	11	San Marcos la laguna 	1	Enero	2023-01-31T00:00:00	2024-11-08T23:00:00	1	Precipitación	0
174256	7	Sololá	716	San Marcos la Laguna 	11	San Marcos la laguna 	1	Enero	2023-01-31T00:00:00	2024-11-08T23:00:00	8	Radiación solar	0
174257	7	Sololá	716	San Marcos la Laguna 	11	San Marcos la laguna 	2	Febrero	2023-01-02T00:00:00	2024-11-08T00:00:00	2	Temperatura media	15.6
174258	7	Sololá	716	San Marcos la Laguna 	11	San Marcos la laguna 	2	Febrero	2023-01-02T00:00:00	2024-11-08T00:00:00	4	Temperatura máxima	16.4
174259	7	Sololá	716	San Marcos la Laguna 	11	San Marcos la laguna 	2	Febrero	2023-01-02T00:00:00	2024-11-08T00:00:00	3	Temperatura mínima	15.2
174260	7	Sololá	716	San Marcos la Laguna 	11	San Marcos la laguna 	2	Febrero	2023-01-02T00:00:00	2024-11-08T00:00:00	5	Humedad	74
174261	7	Sololá	716	San Marcos la Laguna 	11	San Marcos la laguna 	2	Febrero	2023-01-02T00:00:00	2024-11-08T00:00:00	6	Velocidad del viento	9.7
174262	7	Sololá	716	San Marcos la Laguna 	11	San Marcos la laguna 	2	Febrero	2023-01-02T00:00:00	2024-11-08T00:00:00	7	Dirección del viento	9.66
174263	7	Sololá	716	San Marcos la Laguna 	11	San Marcos la laguna 	2	Febrero	2023-01-02T00:00:00	2024-11-08T00:00:00	1	Precipitación	0
174264	7	Sololá	716	San Marcos la Laguna 	11	San Marcos la laguna 	2	Febrero	2023-01-02T00:00:00	2024-11-08T00:00:00	8	Radiación solar	0
174265	7	Sololá	716	San Marcos la Laguna 	11	San Marcos la laguna 	2	Febrero	2023-01-02T00:00:00	2024-11-08T01:00:00	2	Temperatura media	14.6
174266	7	Sololá	716	San Marcos la Laguna 	11	San Marcos la laguna 	2	Febrero	2023-01-02T00:00:00	2024-11-08T01:00:00	4	Temperatura máxima	15.6
174267	7	Sololá	716	San Marcos la Laguna 	11	San Marcos la laguna 	2	Febrero	2023-01-02T00:00:00	2024-11-08T01:00:00	3	Temperatura mínima	14.6
174268	7	Sololá	716	San Marcos la Laguna 	11	San Marcos la laguna 	2	Febrero	2023-01-02T00:00:00	2024-11-08T01:00:00	5	Humedad	73
174269	7	Sololá	716	San Marcos la Laguna 	11	San Marcos la laguna 	2	Febrero	2023-01-02T00:00:00	2024-11-08T01:00:00	6	Velocidad del viento	9.7
174270	7	Sololá	716	San Marcos la Laguna 	11	San Marcos la laguna 	2	Febrero	2023-01-02T00:00:00	2024-11-08T01:00:00	7	Dirección del viento	9.66
174271	7	Sololá	716	San Marcos la Laguna 	11	San Marcos la laguna 	2	Febrero	2023-01-02T00:00:00	2024-11-08T01:00:00	1	Precipitación	0
174272	7	Sololá	716	San Marcos la Laguna 	11	San Marcos la laguna 	2	Febrero	2023-01-02T00:00:00	2024-11-08T01:00:00	8	Radiación solar	0
174273	7	Sololá	716	San Marcos la Laguna 	11	San Marcos la laguna 	2	Febrero	2023-01-02T00:00:00	2024-11-08T02:00:00	2	Temperatura media	14.3
174274	7	Sololá	716	San Marcos la Laguna 	11	San Marcos la laguna 	2	Febrero	2023-01-02T00:00:00	2024-11-08T02:00:00	4	Temperatura máxima	14.6
174275	7	Sololá	716	San Marcos la Laguna 	11	San Marcos la laguna 	2	Febrero	2023-01-02T00:00:00	2024-11-08T02:00:00	3	Temperatura mínima	14.1
174276	7	Sololá	716	San Marcos la Laguna 	11	San Marcos la laguna 	2	Febrero	2023-01-02T00:00:00	2024-11-08T02:00:00	5	Humedad	69
174277	7	Sololá	716	San Marcos la Laguna 	11	San Marcos la laguna 	2	Febrero	2023-01-02T00:00:00	2024-11-08T02:00:00	6	Velocidad del viento	9.7
174278	7	Sololá	716	San Marcos la Laguna 	11	San Marcos la laguna 	2	Febrero	2023-01-02T00:00:00	2024-11-08T02:00:00	7	Dirección del viento	9.66
174279	7	Sololá	716	San Marcos la Laguna 	11	San Marcos la laguna 	2	Febrero	2023-01-02T00:00:00	2024-11-08T02:00:00	1	Precipitación	0
174280	7	Sololá	716	San Marcos la Laguna 	11	San Marcos la laguna 	2	Febrero	2023-01-02T00:00:00	2024-11-08T02:00:00	8	Radiación solar	0
174281	7	Sololá	716	San Marcos la Laguna 	11	San Marcos la laguna 	2	Febrero	2023-01-02T00:00:00	2024-11-08T03:00:00	2	Temperatura media	14.7
174282	7	Sololá	716	San Marcos la Laguna 	11	San Marcos la laguna 	2	Febrero	2023-01-02T00:00:00	2024-11-08T03:00:00	4	Temperatura máxima	14.9
174283	7	Sololá	716	San Marcos la Laguna 	11	San Marcos la laguna 	2	Febrero	2023-01-02T00:00:00	2024-11-08T03:00:00	3	Temperatura mínima	14.2
174284	7	Sololá	716	San Marcos la Laguna 	11	San Marcos la laguna 	2	Febrero	2023-01-02T00:00:00	2024-11-08T03:00:00	5	Humedad	66
174285	7	Sololá	716	San Marcos la Laguna 	11	San Marcos la laguna 	2	Febrero	2023-01-02T00:00:00	2024-11-08T03:00:00	6	Velocidad del viento	9.7
174286	7	Sololá	716	San Marcos la Laguna 	11	San Marcos la laguna 	2	Febrero	2023-01-02T00:00:00	2024-11-08T03:00:00	7	Dirección del viento	9.66
174287	7	Sololá	716	San Marcos la Laguna 	11	San Marcos la laguna 	2	Febrero	2023-01-02T00:00:00	2024-11-08T03:00:00	1	Precipitación	0
174288	7	Sololá	716	San Marcos la Laguna 	11	San Marcos la laguna 	2	Febrero	2023-01-02T00:00:00	2024-11-08T03:00:00	8	Radiación solar	0
174289	7	Sololá	716	San Marcos la Laguna 	11	San Marcos la laguna 	2	Febrero	2023-01-02T00:00:00	2024-11-08T04:00:00	2	Temperatura media	14.3
174290	7	Sololá	716	San Marcos la Laguna 	11	San Marcos la laguna 	2	Febrero	2023-01-02T00:00:00	2024-11-08T04:00:00	4	Temperatura máxima	14.7
174291	7	Sololá	716	San Marcos la Laguna 	11	San Marcos la laguna 	2	Febrero	2023-01-02T00:00:00	2024-11-08T04:00:00	3	Temperatura mínima	13.7
174292	7	Sololá	716	San Marcos la Laguna 	11	San Marcos la laguna 	2	Febrero	2023-01-02T00:00:00	2024-11-08T04:00:00	5	Humedad	68
174293	7	Sololá	716	San Marcos la Laguna 	11	San Marcos la laguna 	2	Febrero	2023-01-02T00:00:00	2024-11-08T04:00:00	6	Velocidad del viento	8
174294	7	Sololá	716	San Marcos la Laguna 	11	San Marcos la laguna 	2	Febrero	2023-01-02T00:00:00	2024-11-08T04:00:00	7	Dirección del viento	8.05
174295	7	Sololá	716	San Marcos la Laguna 	11	San Marcos la laguna 	2	Febrero	2023-01-02T00:00:00	2024-11-08T04:00:00	1	Precipitación	0
174296	7	Sololá	716	San Marcos la Laguna 	11	San Marcos la laguna 	2	Febrero	2023-01-02T00:00:00	2024-11-08T04:00:00	8	Radiación solar	0
174297	7	Sololá	716	San Marcos la Laguna 	11	San Marcos la laguna 	2	Febrero	2023-01-02T00:00:00	2024-11-08T05:00:00	2	Temperatura media	13.8
174298	7	Sololá	716	San Marcos la Laguna 	11	San Marcos la laguna 	2	Febrero	2023-01-02T00:00:00	2024-11-08T05:00:00	4	Temperatura máxima	14.3
174299	7	Sololá	716	San Marcos la Laguna 	11	San Marcos la laguna 	2	Febrero	2023-01-02T00:00:00	2024-11-08T05:00:00	3	Temperatura mínima	13.5
174300	7	Sololá	716	San Marcos la Laguna 	11	San Marcos la laguna 	2	Febrero	2023-01-02T00:00:00	2024-11-08T05:00:00	5	Humedad	70
174301	7	Sololá	716	San Marcos la Laguna 	11	San Marcos la laguna 	2	Febrero	2023-01-02T00:00:00	2024-11-08T05:00:00	6	Velocidad del viento	9.7
174302	7	Sololá	716	San Marcos la Laguna 	11	San Marcos la laguna 	2	Febrero	2023-01-02T00:00:00	2024-11-08T05:00:00	7	Dirección del viento	9.66
174303	7	Sololá	716	San Marcos la Laguna 	11	San Marcos la laguna 	2	Febrero	2023-01-02T00:00:00	2024-11-08T05:00:00	1	Precipitación	0
174304	7	Sololá	716	San Marcos la Laguna 	11	San Marcos la laguna 	2	Febrero	2023-01-02T00:00:00	2024-11-08T05:00:00	8	Radiación solar	0
174305	7	Sololá	716	San Marcos la Laguna 	11	San Marcos la laguna 	2	Febrero	2023-01-02T00:00:00	2024-11-08T06:00:00	2	Temperatura media	13.2
174306	7	Sololá	716	San Marcos la Laguna 	11	San Marcos la laguna 	2	Febrero	2023-01-02T00:00:00	2024-11-08T06:00:00	4	Temperatura máxima	14.2
174307	7	Sololá	716	San Marcos la Laguna 	11	San Marcos la laguna 	2	Febrero	2023-01-02T00:00:00	2024-11-08T06:00:00	3	Temperatura mínima	13.2
174308	7	Sololá	716	San Marcos la Laguna 	11	San Marcos la laguna 	2	Febrero	2023-01-02T00:00:00	2024-11-08T06:00:00	5	Humedad	74
174309	7	Sololá	716	San Marcos la Laguna 	11	San Marcos la laguna 	2	Febrero	2023-01-02T00:00:00	2024-11-08T06:00:00	6	Velocidad del viento	8
174310	7	Sololá	716	San Marcos la Laguna 	11	San Marcos la laguna 	2	Febrero	2023-01-02T00:00:00	2024-11-08T06:00:00	7	Dirección del viento	8.05
174311	7	Sololá	716	San Marcos la Laguna 	11	San Marcos la laguna 	2	Febrero	2023-01-02T00:00:00	2024-11-08T06:00:00	1	Precipitación	0
174312	7	Sololá	716	San Marcos la Laguna 	11	San Marcos la laguna 	2	Febrero	2023-01-02T00:00:00	2024-11-08T06:00:00	8	Radiación solar	0
174313	7	Sololá	716	San Marcos la Laguna 	11	San Marcos la laguna 	2	Febrero	2023-01-02T00:00:00	2024-11-08T07:00:00	2	Temperatura media	13.8
174314	7	Sololá	716	San Marcos la Laguna 	11	San Marcos la laguna 	2	Febrero	2023-01-02T00:00:00	2024-11-08T07:00:00	4	Temperatura máxima	13.8
174315	7	Sololá	716	San Marcos la Laguna 	11	San Marcos la laguna 	2	Febrero	2023-01-02T00:00:00	2024-11-08T07:00:00	3	Temperatura mínima	12.9
174316	7	Sololá	716	San Marcos la Laguna 	11	San Marcos la laguna 	2	Febrero	2023-01-02T00:00:00	2024-11-08T07:00:00	5	Humedad	74
174317	7	Sololá	716	San Marcos la Laguna 	11	San Marcos la laguna 	2	Febrero	2023-01-02T00:00:00	2024-11-08T07:00:00	6	Velocidad del viento	9.7
174318	7	Sololá	716	San Marcos la Laguna 	11	San Marcos la laguna 	2	Febrero	2023-01-02T00:00:00	2024-11-08T07:00:00	7	Dirección del viento	9.66
174319	7	Sololá	716	San Marcos la Laguna 	11	San Marcos la laguna 	2	Febrero	2023-01-02T00:00:00	2024-11-08T07:00:00	1	Precipitación	0
174320	7	Sololá	716	San Marcos la Laguna 	11	San Marcos la laguna 	2	Febrero	2023-01-02T00:00:00	2024-11-08T07:00:00	8	Radiación solar	4
174321	7	Sololá	716	San Marcos la Laguna 	11	San Marcos la laguna 	2	Febrero	2023-01-02T00:00:00	2024-11-08T08:00:00	2	Temperatura media	16.3
174322	7	Sololá	716	San Marcos la Laguna 	11	San Marcos la laguna 	2	Febrero	2023-01-02T00:00:00	2024-11-08T08:00:00	4	Temperatura máxima	16.3
174323	7	Sololá	716	San Marcos la Laguna 	11	San Marcos la laguna 	2	Febrero	2023-01-02T00:00:00	2024-11-08T08:00:00	3	Temperatura mínima	13.6
174324	7	Sololá	716	San Marcos la Laguna 	11	San Marcos la laguna 	2	Febrero	2023-01-02T00:00:00	2024-11-08T08:00:00	5	Humedad	70
174325	7	Sololá	716	San Marcos la Laguna 	11	San Marcos la laguna 	2	Febrero	2023-01-02T00:00:00	2024-11-08T08:00:00	6	Velocidad del viento	6.4
174326	7	Sololá	716	San Marcos la Laguna 	11	San Marcos la laguna 	2	Febrero	2023-01-02T00:00:00	2024-11-08T08:00:00	7	Dirección del viento	6.44
174327	7	Sololá	716	San Marcos la Laguna 	11	San Marcos la laguna 	2	Febrero	2023-01-02T00:00:00	2024-11-08T08:00:00	1	Precipitación	0
174328	7	Sololá	716	San Marcos la Laguna 	11	San Marcos la laguna 	2	Febrero	2023-01-02T00:00:00	2024-11-08T08:00:00	8	Radiación solar	129
174329	7	Sololá	716	San Marcos la Laguna 	11	San Marcos la laguna 	2	Febrero	2023-01-02T00:00:00	2024-11-08T09:00:00	2	Temperatura media	19.8
174330	7	Sololá	716	San Marcos la Laguna 	11	San Marcos la laguna 	2	Febrero	2023-01-02T00:00:00	2024-11-08T09:00:00	4	Temperatura máxima	19.8
174331	7	Sololá	716	San Marcos la Laguna 	11	San Marcos la laguna 	2	Febrero	2023-01-02T00:00:00	2024-11-08T09:00:00	3	Temperatura mínima	16.3
174332	7	Sololá	716	San Marcos la Laguna 	11	San Marcos la laguna 	2	Febrero	2023-01-02T00:00:00	2024-11-08T09:00:00	5	Humedad	62
174333	7	Sololá	716	San Marcos la Laguna 	11	San Marcos la laguna 	2	Febrero	2023-01-02T00:00:00	2024-11-08T09:00:00	6	Velocidad del viento	1.6
174334	7	Sololá	716	San Marcos la Laguna 	11	San Marcos la laguna 	2	Febrero	2023-01-02T00:00:00	2024-11-08T09:00:00	7	Dirección del viento	1.61
174335	7	Sololá	716	San Marcos la Laguna 	11	San Marcos la laguna 	2	Febrero	2023-01-02T00:00:00	2024-11-08T09:00:00	1	Precipitación	0
174336	7	Sololá	716	San Marcos la Laguna 	11	San Marcos la laguna 	2	Febrero	2023-01-02T00:00:00	2024-11-08T09:00:00	8	Radiación solar	352
174337	7	Sololá	716	San Marcos la Laguna 	11	San Marcos la laguna 	2	Febrero	2023-01-02T00:00:00	2024-11-08T10:00:00	2	Temperatura media	20.8
174338	7	Sololá	716	San Marcos la Laguna 	11	San Marcos la laguna 	2	Febrero	2023-01-02T00:00:00	2024-11-08T10:00:00	4	Temperatura máxima	20.8
174339	7	Sololá	716	San Marcos la Laguna 	11	San Marcos la laguna 	2	Febrero	2023-01-02T00:00:00	2024-11-08T10:00:00	3	Temperatura mínima	19.8
174340	7	Sololá	716	San Marcos la Laguna 	11	San Marcos la laguna 	2	Febrero	2023-01-02T00:00:00	2024-11-08T10:00:00	5	Humedad	59
174341	7	Sololá	716	San Marcos la Laguna 	11	San Marcos la laguna 	2	Febrero	2023-01-02T00:00:00	2024-11-08T10:00:00	6	Velocidad del viento	3.2
174342	7	Sololá	716	San Marcos la Laguna 	11	San Marcos la laguna 	2	Febrero	2023-01-02T00:00:00	2024-11-08T10:00:00	7	Dirección del viento	3.22
174343	7	Sololá	716	San Marcos la Laguna 	11	San Marcos la laguna 	2	Febrero	2023-01-02T00:00:00	2024-11-08T10:00:00	1	Precipitación	0
174344	7	Sololá	716	San Marcos la Laguna 	11	San Marcos la laguna 	2	Febrero	2023-01-02T00:00:00	2024-11-08T10:00:00	8	Radiación solar	544
174345	7	Sololá	716	San Marcos la Laguna 	11	San Marcos la laguna 	2	Febrero	2023-01-02T00:00:00	2024-11-08T11:00:00	2	Temperatura media	22.7
174346	7	Sololá	716	San Marcos la Laguna 	11	San Marcos la laguna 	2	Febrero	2023-01-02T00:00:00	2024-11-08T11:00:00	4	Temperatura máxima	22.7
174347	7	Sololá	716	San Marcos la Laguna 	11	San Marcos la laguna 	2	Febrero	2023-01-02T00:00:00	2024-11-08T11:00:00	3	Temperatura mínima	20.7
174348	7	Sololá	716	San Marcos la Laguna 	11	San Marcos la laguna 	2	Febrero	2023-01-02T00:00:00	2024-11-08T11:00:00	5	Humedad	48
174349	7	Sololá	716	San Marcos la Laguna 	11	San Marcos la laguna 	2	Febrero	2023-01-02T00:00:00	2024-11-08T11:00:00	6	Velocidad del viento	3.2
174350	7	Sololá	716	San Marcos la Laguna 	11	San Marcos la laguna 	2	Febrero	2023-01-02T00:00:00	2024-11-08T11:00:00	7	Dirección del viento	3.22
174351	7	Sololá	716	San Marcos la Laguna 	11	San Marcos la laguna 	2	Febrero	2023-01-02T00:00:00	2024-11-08T11:00:00	1	Precipitación	0
174352	7	Sololá	716	San Marcos la Laguna 	11	San Marcos la laguna 	2	Febrero	2023-01-02T00:00:00	2024-11-08T11:00:00	8	Radiación solar	632
174353	7	Sololá	716	San Marcos la Laguna 	11	San Marcos la laguna 	2	Febrero	2023-01-02T00:00:00	2024-11-08T12:00:00	2	Temperatura media	24.6
174354	7	Sololá	716	San Marcos la Laguna 	11	San Marcos la laguna 	2	Febrero	2023-01-02T00:00:00	2024-11-08T12:00:00	4	Temperatura máxima	24.6
174355	7	Sololá	716	San Marcos la Laguna 	11	San Marcos la laguna 	2	Febrero	2023-01-02T00:00:00	2024-11-08T12:00:00	3	Temperatura mínima	22.6
174356	7	Sololá	716	San Marcos la Laguna 	11	San Marcos la laguna 	2	Febrero	2023-01-02T00:00:00	2024-11-08T12:00:00	5	Humedad	44
174357	7	Sololá	716	San Marcos la Laguna 	11	San Marcos la laguna 	2	Febrero	2023-01-02T00:00:00	2024-11-08T12:00:00	6	Velocidad del viento	3.2
174358	7	Sololá	716	San Marcos la Laguna 	11	San Marcos la laguna 	2	Febrero	2023-01-02T00:00:00	2024-11-08T12:00:00	7	Dirección del viento	3.22
174359	7	Sololá	716	San Marcos la Laguna 	11	San Marcos la laguna 	2	Febrero	2023-01-02T00:00:00	2024-11-08T12:00:00	1	Precipitación	0
174360	7	Sololá	716	San Marcos la Laguna 	11	San Marcos la laguna 	2	Febrero	2023-01-02T00:00:00	2024-11-08T12:00:00	8	Radiación solar	715
174361	7	Sololá	716	San Marcos la Laguna 	11	San Marcos la laguna 	2	Febrero	2023-01-02T00:00:00	2024-11-08T13:00:00	2	Temperatura media	25.8
174362	7	Sololá	716	San Marcos la Laguna 	11	San Marcos la laguna 	2	Febrero	2023-01-02T00:00:00	2024-11-08T13:00:00	4	Temperatura máxima	25.8
174363	7	Sololá	716	San Marcos la Laguna 	11	San Marcos la laguna 	2	Febrero	2023-01-02T00:00:00	2024-11-08T13:00:00	3	Temperatura mínima	24.3
174364	7	Sololá	716	San Marcos la Laguna 	11	San Marcos la laguna 	2	Febrero	2023-01-02T00:00:00	2024-11-08T13:00:00	5	Humedad	40
174365	7	Sololá	716	San Marcos la Laguna 	11	San Marcos la laguna 	2	Febrero	2023-01-02T00:00:00	2024-11-08T13:00:00	6	Velocidad del viento	3.2
174366	7	Sololá	716	San Marcos la Laguna 	11	San Marcos la laguna 	2	Febrero	2023-01-02T00:00:00	2024-11-08T13:00:00	7	Dirección del viento	3.22
174367	7	Sololá	716	San Marcos la Laguna 	11	San Marcos la laguna 	2	Febrero	2023-01-02T00:00:00	2024-11-08T13:00:00	1	Precipitación	0
174368	7	Sololá	716	San Marcos la Laguna 	11	San Marcos la laguna 	2	Febrero	2023-01-02T00:00:00	2024-11-08T13:00:00	8	Radiación solar	804
174369	7	Sololá	716	San Marcos la Laguna 	11	San Marcos la laguna 	2	Febrero	2023-01-02T00:00:00	2024-11-08T14:00:00	2	Temperatura media	23.7
174370	7	Sololá	716	San Marcos la Laguna 	11	San Marcos la laguna 	2	Febrero	2023-01-02T00:00:00	2024-11-08T14:00:00	4	Temperatura máxima	25.8
174371	7	Sololá	716	San Marcos la Laguna 	11	San Marcos la laguna 	2	Febrero	2023-01-02T00:00:00	2024-11-08T14:00:00	3	Temperatura mínima	23.7
174372	7	Sololá	716	San Marcos la Laguna 	11	San Marcos la laguna 	2	Febrero	2023-01-02T00:00:00	2024-11-08T14:00:00	5	Humedad	62
174373	7	Sololá	716	San Marcos la Laguna 	11	San Marcos la laguna 	2	Febrero	2023-01-02T00:00:00	2024-11-08T14:00:00	6	Velocidad del viento	9.7
174374	7	Sololá	716	San Marcos la Laguna 	11	San Marcos la laguna 	2	Febrero	2023-01-02T00:00:00	2024-11-08T14:00:00	7	Dirección del viento	9.66
174375	7	Sololá	716	San Marcos la Laguna 	11	San Marcos la laguna 	2	Febrero	2023-01-02T00:00:00	2024-11-08T14:00:00	1	Precipitación	0
174376	7	Sololá	716	San Marcos la Laguna 	11	San Marcos la laguna 	2	Febrero	2023-01-02T00:00:00	2024-11-08T14:00:00	8	Radiación solar	750
174377	7	Sololá	716	San Marcos la Laguna 	11	San Marcos la laguna 	2	Febrero	2023-01-02T00:00:00	2024-11-08T15:00:00	2	Temperatura media	23
174378	7	Sololá	716	San Marcos la Laguna 	11	San Marcos la laguna 	2	Febrero	2023-01-02T00:00:00	2024-11-08T15:00:00	4	Temperatura máxima	23.7
174379	7	Sololá	716	San Marcos la Laguna 	11	San Marcos la laguna 	2	Febrero	2023-01-02T00:00:00	2024-11-08T15:00:00	3	Temperatura mínima	22.7
174380	7	Sololá	716	San Marcos la Laguna 	11	San Marcos la laguna 	2	Febrero	2023-01-02T00:00:00	2024-11-08T15:00:00	5	Humedad	61
174381	7	Sololá	716	San Marcos la Laguna 	11	San Marcos la laguna 	2	Febrero	2023-01-02T00:00:00	2024-11-08T15:00:00	6	Velocidad del viento	11.3
174382	7	Sololá	716	San Marcos la Laguna 	11	San Marcos la laguna 	2	Febrero	2023-01-02T00:00:00	2024-11-08T15:00:00	7	Dirección del viento	11.27
174383	7	Sololá	716	San Marcos la Laguna 	11	San Marcos la laguna 	2	Febrero	2023-01-02T00:00:00	2024-11-08T15:00:00	1	Precipitación	0
174384	7	Sololá	716	San Marcos la Laguna 	11	San Marcos la laguna 	2	Febrero	2023-01-02T00:00:00	2024-11-08T15:00:00	8	Radiación solar	638
174385	7	Sololá	716	San Marcos la Laguna 	11	San Marcos la laguna 	2	Febrero	2023-01-02T00:00:00	2024-11-08T16:00:00	2	Temperatura media	22.6
174386	7	Sololá	716	San Marcos la Laguna 	11	San Marcos la laguna 	2	Febrero	2023-01-02T00:00:00	2024-11-08T16:00:00	4	Temperatura máxima	23.3
174387	7	Sololá	716	San Marcos la Laguna 	11	San Marcos la laguna 	2	Febrero	2023-01-02T00:00:00	2024-11-08T16:00:00	3	Temperatura mínima	22.5
174388	7	Sololá	716	San Marcos la Laguna 	11	San Marcos la laguna 	2	Febrero	2023-01-02T00:00:00	2024-11-08T16:00:00	5	Humedad	70
174389	7	Sololá	716	San Marcos la Laguna 	11	San Marcos la laguna 	2	Febrero	2023-01-02T00:00:00	2024-11-08T16:00:00	6	Velocidad del viento	9.7
174390	7	Sololá	716	San Marcos la Laguna 	11	San Marcos la laguna 	2	Febrero	2023-01-02T00:00:00	2024-11-08T16:00:00	7	Dirección del viento	9.66
174391	7	Sololá	716	San Marcos la Laguna 	11	San Marcos la laguna 	2	Febrero	2023-01-02T00:00:00	2024-11-08T16:00:00	1	Precipitación	0
174392	7	Sololá	716	San Marcos la Laguna 	11	San Marcos la laguna 	2	Febrero	2023-01-02T00:00:00	2024-11-08T16:00:00	8	Radiación solar	461
174393	7	Sololá	716	San Marcos la Laguna 	11	San Marcos la laguna 	2	Febrero	2023-01-02T00:00:00	2024-11-08T17:00:00	2	Temperatura media	21.4
174394	7	Sololá	716	San Marcos la Laguna 	11	San Marcos la laguna 	2	Febrero	2023-01-02T00:00:00	2024-11-08T17:00:00	4	Temperatura máxima	22.5
174395	7	Sololá	716	San Marcos la Laguna 	11	San Marcos la laguna 	2	Febrero	2023-01-02T00:00:00	2024-11-08T17:00:00	3	Temperatura mínima	21.4
174396	7	Sololá	716	San Marcos la Laguna 	11	San Marcos la laguna 	2	Febrero	2023-01-02T00:00:00	2024-11-08T17:00:00	5	Humedad	72
174397	7	Sololá	716	San Marcos la Laguna 	11	San Marcos la laguna 	2	Febrero	2023-01-02T00:00:00	2024-11-08T17:00:00	6	Velocidad del viento	8
174398	7	Sololá	716	San Marcos la Laguna 	11	San Marcos la laguna 	2	Febrero	2023-01-02T00:00:00	2024-11-08T17:00:00	7	Dirección del viento	8.05
174399	7	Sololá	716	San Marcos la Laguna 	11	San Marcos la laguna 	2	Febrero	2023-01-02T00:00:00	2024-11-08T17:00:00	1	Precipitación	0
174400	7	Sololá	716	San Marcos la Laguna 	11	San Marcos la laguna 	2	Febrero	2023-01-02T00:00:00	2024-11-08T17:00:00	8	Radiación solar	251
174401	7	Sololá	716	San Marcos la Laguna 	11	San Marcos la laguna 	2	Febrero	2023-01-02T00:00:00	2024-11-08T18:00:00	2	Temperatura media	20.1
174402	7	Sololá	716	San Marcos la Laguna 	11	San Marcos la laguna 	2	Febrero	2023-01-02T00:00:00	2024-11-08T18:00:00	4	Temperatura máxima	21.4
174403	7	Sololá	716	San Marcos la Laguna 	11	San Marcos la laguna 	2	Febrero	2023-01-02T00:00:00	2024-11-08T18:00:00	3	Temperatura mínima	20.1
174404	7	Sololá	716	San Marcos la Laguna 	11	San Marcos la laguna 	2	Febrero	2023-01-02T00:00:00	2024-11-08T18:00:00	5	Humedad	77
174405	7	Sololá	716	San Marcos la Laguna 	11	San Marcos la laguna 	2	Febrero	2023-01-02T00:00:00	2024-11-08T18:00:00	6	Velocidad del viento	8
174406	7	Sololá	716	San Marcos la Laguna 	11	San Marcos la laguna 	2	Febrero	2023-01-02T00:00:00	2024-11-08T18:00:00	7	Dirección del viento	8.05
174407	7	Sololá	716	San Marcos la Laguna 	11	San Marcos la laguna 	2	Febrero	2023-01-02T00:00:00	2024-11-08T18:00:00	1	Precipitación	0
174408	7	Sololá	716	San Marcos la Laguna 	11	San Marcos la laguna 	2	Febrero	2023-01-02T00:00:00	2024-11-08T18:00:00	8	Radiación solar	32
174409	7	Sololá	716	San Marcos la Laguna 	11	San Marcos la laguna 	2	Febrero	2023-01-02T00:00:00	2024-11-08T19:00:00	2	Temperatura media	18.4
174410	7	Sololá	716	San Marcos la Laguna 	11	San Marcos la laguna 	2	Febrero	2023-01-02T00:00:00	2024-11-08T19:00:00	4	Temperatura máxima	20.1
174411	7	Sololá	716	San Marcos la Laguna 	11	San Marcos la laguna 	2	Febrero	2023-01-02T00:00:00	2024-11-08T19:00:00	3	Temperatura mínima	18.4
174412	7	Sololá	716	San Marcos la Laguna 	11	San Marcos la laguna 	2	Febrero	2023-01-02T00:00:00	2024-11-08T19:00:00	5	Humedad	82
174413	7	Sololá	716	San Marcos la Laguna 	11	San Marcos la laguna 	2	Febrero	2023-01-02T00:00:00	2024-11-08T19:00:00	6	Velocidad del viento	3.2
174414	7	Sololá	716	San Marcos la Laguna 	11	San Marcos la laguna 	2	Febrero	2023-01-02T00:00:00	2024-11-08T19:00:00	7	Dirección del viento	3.22
174415	7	Sololá	716	San Marcos la Laguna 	11	San Marcos la laguna 	2	Febrero	2023-01-02T00:00:00	2024-11-08T19:00:00	1	Precipitación	0
174416	7	Sololá	716	San Marcos la Laguna 	11	San Marcos la laguna 	2	Febrero	2023-01-02T00:00:00	2024-11-08T19:00:00	8	Radiación solar	0
174417	7	Sololá	716	San Marcos la Laguna 	11	San Marcos la laguna 	2	Febrero	2023-01-02T00:00:00	2024-11-08T20:00:00	2	Temperatura media	18.4
174418	7	Sololá	716	San Marcos la Laguna 	11	San Marcos la laguna 	2	Febrero	2023-01-02T00:00:00	2024-11-08T20:00:00	4	Temperatura máxima	18.6
174419	7	Sololá	716	San Marcos la Laguna 	11	San Marcos la laguna 	2	Febrero	2023-01-02T00:00:00	2024-11-08T20:00:00	3	Temperatura mínima	18.3
174420	7	Sololá	716	San Marcos la Laguna 	11	San Marcos la laguna 	2	Febrero	2023-01-02T00:00:00	2024-11-08T20:00:00	5	Humedad	71
174421	7	Sololá	716	San Marcos la Laguna 	11	San Marcos la laguna 	2	Febrero	2023-01-02T00:00:00	2024-11-08T20:00:00	6	Velocidad del viento	1.6
174422	7	Sololá	716	San Marcos la Laguna 	11	San Marcos la laguna 	2	Febrero	2023-01-02T00:00:00	2024-11-08T20:00:00	7	Dirección del viento	1.61
174423	7	Sololá	716	San Marcos la Laguna 	11	San Marcos la laguna 	2	Febrero	2023-01-02T00:00:00	2024-11-08T20:00:00	1	Precipitación	0
174424	7	Sololá	716	San Marcos la Laguna 	11	San Marcos la laguna 	2	Febrero	2023-01-02T00:00:00	2024-11-08T20:00:00	8	Radiación solar	0
174425	7	Sololá	716	San Marcos la Laguna 	11	San Marcos la laguna 	2	Febrero	2023-01-02T00:00:00	2024-11-08T21:00:00	2	Temperatura media	16.8
174426	7	Sololá	716	San Marcos la Laguna 	11	San Marcos la laguna 	2	Febrero	2023-01-02T00:00:00	2024-11-08T21:00:00	4	Temperatura máxima	18.8
174427	7	Sololá	716	San Marcos la Laguna 	11	San Marcos la laguna 	2	Febrero	2023-01-02T00:00:00	2024-11-08T21:00:00	3	Temperatura mínima	16.8
174428	7	Sololá	716	San Marcos la Laguna 	11	San Marcos la laguna 	2	Febrero	2023-01-02T00:00:00	2024-11-08T21:00:00	5	Humedad	71
174429	7	Sololá	716	San Marcos la Laguna 	11	San Marcos la laguna 	2	Febrero	2023-01-02T00:00:00	2024-11-08T21:00:00	6	Velocidad del viento	4.8
174430	7	Sololá	716	San Marcos la Laguna 	11	San Marcos la laguna 	2	Febrero	2023-01-02T00:00:00	2024-11-08T21:00:00	7	Dirección del viento	4.83
174431	7	Sololá	716	San Marcos la Laguna 	11	San Marcos la laguna 	2	Febrero	2023-01-02T00:00:00	2024-11-08T21:00:00	1	Precipitación	0
174432	7	Sololá	716	San Marcos la Laguna 	11	San Marcos la laguna 	2	Febrero	2023-01-02T00:00:00	2024-11-08T21:00:00	8	Radiación solar	0
174433	7	Sololá	716	San Marcos la Laguna 	11	San Marcos la laguna 	2	Febrero	2023-01-02T00:00:00	2024-11-08T22:00:00	2	Temperatura media	17.3
174434	7	Sololá	716	San Marcos la Laguna 	11	San Marcos la laguna 	2	Febrero	2023-01-02T00:00:00	2024-11-08T22:00:00	4	Temperatura máxima	17.7
174435	7	Sololá	716	San Marcos la Laguna 	11	San Marcos la laguna 	2	Febrero	2023-01-02T00:00:00	2024-11-08T22:00:00	3	Temperatura mínima	16.7
174436	7	Sololá	716	San Marcos la Laguna 	11	San Marcos la laguna 	2	Febrero	2023-01-02T00:00:00	2024-11-08T22:00:00	5	Humedad	68
174437	7	Sololá	716	San Marcos la Laguna 	11	San Marcos la laguna 	2	Febrero	2023-01-02T00:00:00	2024-11-08T22:00:00	6	Velocidad del viento	4.8
174438	7	Sololá	716	San Marcos la Laguna 	11	San Marcos la laguna 	2	Febrero	2023-01-02T00:00:00	2024-11-08T22:00:00	7	Dirección del viento	4.83
174439	7	Sololá	716	San Marcos la Laguna 	11	San Marcos la laguna 	2	Febrero	2023-01-02T00:00:00	2024-11-08T22:00:00	1	Precipitación	0
174440	7	Sololá	716	San Marcos la Laguna 	11	San Marcos la laguna 	2	Febrero	2023-01-02T00:00:00	2024-11-08T22:00:00	8	Radiación solar	0
174441	7	Sololá	716	San Marcos la Laguna 	11	San Marcos la laguna 	2	Febrero	2023-01-02T00:00:00	2024-11-08T23:00:00	2	Temperatura media	16.4
174442	7	Sololá	716	San Marcos la Laguna 	11	San Marcos la laguna 	2	Febrero	2023-01-02T00:00:00	2024-11-08T23:00:00	4	Temperatura máxima	17.8
174443	7	Sololá	716	San Marcos la Laguna 	11	San Marcos la laguna 	2	Febrero	2023-01-02T00:00:00	2024-11-08T23:00:00	3	Temperatura mínima	16.4
174444	7	Sololá	716	San Marcos la Laguna 	11	San Marcos la laguna 	2	Febrero	2023-01-02T00:00:00	2024-11-08T23:00:00	5	Humedad	69
174445	7	Sololá	716	San Marcos la Laguna 	11	San Marcos la laguna 	2	Febrero	2023-01-02T00:00:00	2024-11-08T23:00:00	6	Velocidad del viento	9.7
174446	7	Sololá	716	San Marcos la Laguna 	11	San Marcos la laguna 	2	Febrero	2023-01-02T00:00:00	2024-11-08T23:00:00	7	Dirección del viento	9.66
174447	7	Sololá	716	San Marcos la Laguna 	11	San Marcos la laguna 	2	Febrero	2023-01-02T00:00:00	2024-11-08T23:00:00	1	Precipitación	0
174448	7	Sololá	716	San Marcos la Laguna 	11	San Marcos la laguna 	2	Febrero	2023-01-02T00:00:00	2024-11-08T23:00:00	8	Radiación solar	0
174449	7	Sololá	716	San Marcos la Laguna 	11	San Marcos la laguna 	2	Febrero	2023-02-02T00:00:00	2024-11-08T00:00:00	2	Temperatura media	16.4
174450	7	Sololá	716	San Marcos la Laguna 	11	San Marcos la laguna 	2	Febrero	2023-02-02T00:00:00	2024-11-08T00:00:00	4	Temperatura máxima	17.1
174451	7	Sololá	716	San Marcos la Laguna 	11	San Marcos la laguna 	2	Febrero	2023-02-02T00:00:00	2024-11-08T00:00:00	3	Temperatura mínima	16.1
174452	7	Sololá	716	San Marcos la Laguna 	11	San Marcos la laguna 	2	Febrero	2023-02-02T00:00:00	2024-11-08T00:00:00	5	Humedad	69
174453	7	Sololá	716	San Marcos la Laguna 	11	San Marcos la laguna 	2	Febrero	2023-02-02T00:00:00	2024-11-08T00:00:00	6	Velocidad del viento	6.4
174454	7	Sololá	716	San Marcos la Laguna 	11	San Marcos la laguna 	2	Febrero	2023-02-02T00:00:00	2024-11-08T00:00:00	7	Dirección del viento	6.44
174455	7	Sololá	716	San Marcos la Laguna 	11	San Marcos la laguna 	2	Febrero	2023-02-02T00:00:00	2024-11-08T00:00:00	1	Precipitación	0
174456	7	Sololá	716	San Marcos la Laguna 	11	San Marcos la laguna 	2	Febrero	2023-02-02T00:00:00	2024-11-08T00:00:00	8	Radiación solar	0
174457	7	Sololá	716	San Marcos la Laguna 	11	San Marcos la laguna 	2	Febrero	2023-02-02T00:00:00	2024-11-08T01:00:00	2	Temperatura media	15.5
174458	7	Sololá	716	San Marcos la Laguna 	11	San Marcos la laguna 	2	Febrero	2023-02-02T00:00:00	2024-11-08T01:00:00	4	Temperatura máxima	16.4
174459	7	Sololá	716	San Marcos la Laguna 	11	San Marcos la laguna 	2	Febrero	2023-02-02T00:00:00	2024-11-08T01:00:00	3	Temperatura mínima	15.2
174460	7	Sololá	716	San Marcos la Laguna 	11	San Marcos la laguna 	2	Febrero	2023-02-02T00:00:00	2024-11-08T01:00:00	5	Humedad	70
174461	7	Sololá	716	San Marcos la Laguna 	11	San Marcos la laguna 	2	Febrero	2023-02-02T00:00:00	2024-11-08T01:00:00	6	Velocidad del viento	8
174462	7	Sololá	716	San Marcos la Laguna 	11	San Marcos la laguna 	2	Febrero	2023-02-02T00:00:00	2024-11-08T01:00:00	7	Dirección del viento	8.05
174463	7	Sololá	716	San Marcos la Laguna 	11	San Marcos la laguna 	2	Febrero	2023-02-02T00:00:00	2024-11-08T01:00:00	1	Precipitación	0
174464	7	Sololá	716	San Marcos la Laguna 	11	San Marcos la laguna 	2	Febrero	2023-02-02T00:00:00	2024-11-08T01:00:00	8	Radiación solar	0
174465	7	Sololá	716	San Marcos la Laguna 	11	San Marcos la laguna 	2	Febrero	2023-02-02T00:00:00	2024-11-08T02:00:00	2	Temperatura media	15.2
174466	7	Sololá	716	San Marcos la Laguna 	11	San Marcos la laguna 	2	Febrero	2023-02-02T00:00:00	2024-11-08T02:00:00	4	Temperatura máxima	15.8
174467	7	Sololá	716	San Marcos la Laguna 	11	San Marcos la laguna 	2	Febrero	2023-02-02T00:00:00	2024-11-08T02:00:00	3	Temperatura mínima	15.1
174468	7	Sololá	716	San Marcos la Laguna 	11	San Marcos la laguna 	2	Febrero	2023-02-02T00:00:00	2024-11-08T02:00:00	5	Humedad	67
174469	7	Sololá	716	San Marcos la Laguna 	11	San Marcos la laguna 	2	Febrero	2023-02-02T00:00:00	2024-11-08T02:00:00	6	Velocidad del viento	8
174470	7	Sololá	716	San Marcos la Laguna 	11	San Marcos la laguna 	2	Febrero	2023-02-02T00:00:00	2024-11-08T02:00:00	7	Dirección del viento	8.05
174471	7	Sololá	716	San Marcos la Laguna 	11	San Marcos la laguna 	2	Febrero	2023-02-02T00:00:00	2024-11-08T02:00:00	1	Precipitación	0
174472	7	Sololá	716	San Marcos la Laguna 	11	San Marcos la laguna 	2	Febrero	2023-02-02T00:00:00	2024-11-08T02:00:00	8	Radiación solar	0
174473	7	Sololá	716	San Marcos la Laguna 	11	San Marcos la laguna 	2	Febrero	2023-02-02T00:00:00	2024-11-08T03:00:00	2	Temperatura media	15.3
174474	7	Sololá	716	San Marcos la Laguna 	11	San Marcos la laguna 	2	Febrero	2023-02-02T00:00:00	2024-11-08T03:00:00	4	Temperatura máxima	15.3
174475	7	Sololá	716	San Marcos la Laguna 	11	San Marcos la laguna 	2	Febrero	2023-02-02T00:00:00	2024-11-08T03:00:00	3	Temperatura mínima	14.4
174476	7	Sololá	716	San Marcos la Laguna 	11	San Marcos la laguna 	2	Febrero	2023-02-02T00:00:00	2024-11-08T03:00:00	5	Humedad	65
174477	7	Sololá	716	San Marcos la Laguna 	11	San Marcos la laguna 	2	Febrero	2023-02-02T00:00:00	2024-11-08T03:00:00	6	Velocidad del viento	8
174478	7	Sololá	716	San Marcos la Laguna 	11	San Marcos la laguna 	2	Febrero	2023-02-02T00:00:00	2024-11-08T03:00:00	7	Dirección del viento	8.05
174479	7	Sololá	716	San Marcos la Laguna 	11	San Marcos la laguna 	2	Febrero	2023-02-02T00:00:00	2024-11-08T03:00:00	1	Precipitación	0
174480	7	Sololá	716	San Marcos la Laguna 	11	San Marcos la laguna 	2	Febrero	2023-02-02T00:00:00	2024-11-08T03:00:00	8	Radiación solar	0
174481	7	Sololá	716	San Marcos la Laguna 	11	San Marcos la laguna 	2	Febrero	2023-02-02T00:00:00	2024-11-08T04:00:00	2	Temperatura media	14.3
174482	7	Sololá	716	San Marcos la Laguna 	11	San Marcos la laguna 	2	Febrero	2023-02-02T00:00:00	2024-11-08T04:00:00	4	Temperatura máxima	15.3
174483	7	Sololá	716	San Marcos la Laguna 	11	San Marcos la laguna 	2	Febrero	2023-02-02T00:00:00	2024-11-08T04:00:00	3	Temperatura mínima	13.9
174484	7	Sololá	716	San Marcos la Laguna 	11	San Marcos la laguna 	2	Febrero	2023-02-02T00:00:00	2024-11-08T04:00:00	5	Humedad	68
174485	7	Sololá	716	San Marcos la Laguna 	11	San Marcos la laguna 	2	Febrero	2023-02-02T00:00:00	2024-11-08T04:00:00	6	Velocidad del viento	8
174486	7	Sololá	716	San Marcos la Laguna 	11	San Marcos la laguna 	2	Febrero	2023-02-02T00:00:00	2024-11-08T04:00:00	7	Dirección del viento	8.05
174487	7	Sololá	716	San Marcos la Laguna 	11	San Marcos la laguna 	2	Febrero	2023-02-02T00:00:00	2024-11-08T04:00:00	1	Precipitación	0
174488	7	Sololá	716	San Marcos la Laguna 	11	San Marcos la laguna 	2	Febrero	2023-02-02T00:00:00	2024-11-08T04:00:00	8	Radiación solar	0
174489	7	Sololá	716	San Marcos la Laguna 	11	San Marcos la laguna 	2	Febrero	2023-02-02T00:00:00	2024-11-08T05:00:00	2	Temperatura media	13.9
174490	7	Sololá	716	San Marcos la Laguna 	11	San Marcos la laguna 	2	Febrero	2023-02-02T00:00:00	2024-11-08T05:00:00	4	Temperatura máxima	14.3
174491	7	Sololá	716	San Marcos la Laguna 	11	San Marcos la laguna 	2	Febrero	2023-02-02T00:00:00	2024-11-08T05:00:00	3	Temperatura mínima	13.4
174492	7	Sololá	716	San Marcos la Laguna 	11	San Marcos la laguna 	2	Febrero	2023-02-02T00:00:00	2024-11-08T05:00:00	5	Humedad	70
174493	7	Sololá	716	San Marcos la Laguna 	11	San Marcos la laguna 	2	Febrero	2023-02-02T00:00:00	2024-11-08T05:00:00	6	Velocidad del viento	9.7
174494	7	Sololá	716	San Marcos la Laguna 	11	San Marcos la laguna 	2	Febrero	2023-02-02T00:00:00	2024-11-08T05:00:00	7	Dirección del viento	9.66
174495	7	Sololá	716	San Marcos la Laguna 	11	San Marcos la laguna 	2	Febrero	2023-02-02T00:00:00	2024-11-08T05:00:00	1	Precipitación	0
174496	7	Sololá	716	San Marcos la Laguna 	11	San Marcos la laguna 	2	Febrero	2023-02-02T00:00:00	2024-11-08T05:00:00	8	Radiación solar	0
174497	7	Sololá	716	San Marcos la Laguna 	11	San Marcos la laguna 	2	Febrero	2023-02-02T00:00:00	2024-11-08T06:00:00	2	Temperatura media	13.8
174498	7	Sololá	716	San Marcos la Laguna 	11	San Marcos la laguna 	2	Febrero	2023-02-02T00:00:00	2024-11-08T06:00:00	4	Temperatura máxima	14.2
174499	7	Sololá	716	San Marcos la Laguna 	11	San Marcos la laguna 	2	Febrero	2023-02-02T00:00:00	2024-11-08T06:00:00	3	Temperatura mínima	13.4
174500	7	Sololá	716	San Marcos la Laguna 	11	San Marcos la laguna 	2	Febrero	2023-02-02T00:00:00	2024-11-08T06:00:00	5	Humedad	65
174501	7	Sololá	716	San Marcos la Laguna 	11	San Marcos la laguna 	2	Febrero	2023-02-02T00:00:00	2024-11-08T06:00:00	6	Velocidad del viento	9.7
174502	7	Sololá	716	San Marcos la Laguna 	11	San Marcos la laguna 	2	Febrero	2023-02-02T00:00:00	2024-11-08T06:00:00	7	Dirección del viento	9.66
174503	7	Sololá	716	San Marcos la Laguna 	11	San Marcos la laguna 	2	Febrero	2023-02-02T00:00:00	2024-11-08T06:00:00	1	Precipitación	0
174504	7	Sololá	716	San Marcos la Laguna 	11	San Marcos la laguna 	2	Febrero	2023-02-02T00:00:00	2024-11-08T06:00:00	8	Radiación solar	0
174505	7	Sololá	716	San Marcos la Laguna 	11	San Marcos la laguna 	2	Febrero	2023-02-02T00:00:00	2024-11-08T07:00:00	2	Temperatura media	13.3
174506	7	Sololá	716	San Marcos la Laguna 	11	San Marcos la laguna 	2	Febrero	2023-02-02T00:00:00	2024-11-08T07:00:00	4	Temperatura máxima	13.8
174507	7	Sololá	716	San Marcos la Laguna 	11	San Marcos la laguna 	2	Febrero	2023-02-02T00:00:00	2024-11-08T07:00:00	3	Temperatura mínima	13
174508	7	Sololá	716	San Marcos la Laguna 	11	San Marcos la laguna 	2	Febrero	2023-02-02T00:00:00	2024-11-08T07:00:00	5	Humedad	71
174509	7	Sololá	716	San Marcos la Laguna 	11	San Marcos la laguna 	2	Febrero	2023-02-02T00:00:00	2024-11-08T07:00:00	6	Velocidad del viento	9.7
174510	7	Sololá	716	San Marcos la Laguna 	11	San Marcos la laguna 	2	Febrero	2023-02-02T00:00:00	2024-11-08T07:00:00	7	Dirección del viento	9.66
174511	7	Sololá	716	San Marcos la Laguna 	11	San Marcos la laguna 	2	Febrero	2023-02-02T00:00:00	2024-11-08T07:00:00	1	Precipitación	0
174512	7	Sololá	716	San Marcos la Laguna 	11	San Marcos la laguna 	2	Febrero	2023-02-02T00:00:00	2024-11-08T07:00:00	8	Radiación solar	4
174513	7	Sololá	716	San Marcos la Laguna 	11	San Marcos la laguna 	2	Febrero	2023-02-02T00:00:00	2024-11-08T08:00:00	2	Temperatura media	15.7
174514	7	Sololá	716	San Marcos la Laguna 	11	San Marcos la laguna 	2	Febrero	2023-02-02T00:00:00	2024-11-08T08:00:00	4	Temperatura máxima	15.7
174515	7	Sololá	716	San Marcos la Laguna 	11	San Marcos la laguna 	2	Febrero	2023-02-02T00:00:00	2024-11-08T08:00:00	3	Temperatura mínima	13.3
174516	7	Sololá	716	San Marcos la Laguna 	11	San Marcos la laguna 	2	Febrero	2023-02-02T00:00:00	2024-11-08T08:00:00	5	Humedad	71
174517	7	Sololá	716	San Marcos la Laguna 	11	San Marcos la laguna 	2	Febrero	2023-02-02T00:00:00	2024-11-08T08:00:00	6	Velocidad del viento	6.4
174518	7	Sololá	716	San Marcos la Laguna 	11	San Marcos la laguna 	2	Febrero	2023-02-02T00:00:00	2024-11-08T08:00:00	7	Dirección del viento	6.44
174519	7	Sololá	716	San Marcos la Laguna 	11	San Marcos la laguna 	2	Febrero	2023-02-02T00:00:00	2024-11-08T08:00:00	1	Precipitación	0
174520	7	Sololá	716	San Marcos la Laguna 	11	San Marcos la laguna 	2	Febrero	2023-02-02T00:00:00	2024-11-08T08:00:00	8	Radiación solar	132
174521	7	Sololá	716	San Marcos la Laguna 	11	San Marcos la laguna 	2	Febrero	2023-02-02T00:00:00	2024-11-08T09:00:00	2	Temperatura media	19.1
174522	7	Sololá	716	San Marcos la Laguna 	11	San Marcos la laguna 	2	Febrero	2023-02-02T00:00:00	2024-11-08T09:00:00	4	Temperatura máxima	19.1
174523	7	Sololá	716	San Marcos la Laguna 	11	San Marcos la laguna 	2	Febrero	2023-02-02T00:00:00	2024-11-08T09:00:00	3	Temperatura mínima	15.6
174524	7	Sololá	716	San Marcos la Laguna 	11	San Marcos la laguna 	2	Febrero	2023-02-02T00:00:00	2024-11-08T09:00:00	5	Humedad	58
174525	7	Sololá	716	San Marcos la Laguna 	11	San Marcos la laguna 	2	Febrero	2023-02-02T00:00:00	2024-11-08T09:00:00	6	Velocidad del viento	1.6
174526	7	Sololá	716	San Marcos la Laguna 	11	San Marcos la laguna 	2	Febrero	2023-02-02T00:00:00	2024-11-08T09:00:00	7	Dirección del viento	1.61
174527	7	Sololá	716	San Marcos la Laguna 	11	San Marcos la laguna 	2	Febrero	2023-02-02T00:00:00	2024-11-08T09:00:00	1	Precipitación	0
174528	7	Sololá	716	San Marcos la Laguna 	11	San Marcos la laguna 	2	Febrero	2023-02-02T00:00:00	2024-11-08T09:00:00	8	Radiación solar	361
174529	7	Sololá	716	San Marcos la Laguna 	11	San Marcos la laguna 	2	Febrero	2023-02-02T00:00:00	2024-11-08T10:00:00	2	Temperatura media	20.2
174530	7	Sololá	716	San Marcos la Laguna 	11	San Marcos la laguna 	2	Febrero	2023-02-02T00:00:00	2024-11-08T10:00:00	4	Temperatura máxima	20.2
174531	7	Sololá	716	San Marcos la Laguna 	11	San Marcos la laguna 	2	Febrero	2023-02-02T00:00:00	2024-11-08T10:00:00	3	Temperatura mínima	19.1
174532	7	Sololá	716	San Marcos la Laguna 	11	San Marcos la laguna 	2	Febrero	2023-02-02T00:00:00	2024-11-08T10:00:00	5	Humedad	51
174533	7	Sololá	716	San Marcos la Laguna 	11	San Marcos la laguna 	2	Febrero	2023-02-02T00:00:00	2024-11-08T10:00:00	6	Velocidad del viento	3.2
174534	7	Sololá	716	San Marcos la Laguna 	11	San Marcos la laguna 	2	Febrero	2023-02-02T00:00:00	2024-11-08T10:00:00	7	Dirección del viento	3.22
174535	7	Sololá	716	San Marcos la Laguna 	11	San Marcos la laguna 	2	Febrero	2023-02-02T00:00:00	2024-11-08T10:00:00	1	Precipitación	0
174536	7	Sololá	716	San Marcos la Laguna 	11	San Marcos la laguna 	2	Febrero	2023-02-02T00:00:00	2024-11-08T10:00:00	8	Radiación solar	551
174537	7	Sololá	716	San Marcos la Laguna 	11	San Marcos la laguna 	2	Febrero	2023-02-02T00:00:00	2024-11-08T11:00:00	2	Temperatura media	21.9
174538	7	Sololá	716	San Marcos la Laguna 	11	San Marcos la laguna 	2	Febrero	2023-02-02T00:00:00	2024-11-08T11:00:00	4	Temperatura máxima	21.9
174539	7	Sololá	716	San Marcos la Laguna 	11	San Marcos la laguna 	2	Febrero	2023-02-02T00:00:00	2024-11-08T11:00:00	3	Temperatura mínima	20.2
174540	7	Sololá	716	San Marcos la Laguna 	11	San Marcos la laguna 	2	Febrero	2023-02-02T00:00:00	2024-11-08T11:00:00	5	Humedad	45
174541	7	Sololá	716	San Marcos la Laguna 	11	San Marcos la laguna 	2	Febrero	2023-02-02T00:00:00	2024-11-08T11:00:00	6	Velocidad del viento	3.2
174542	7	Sololá	716	San Marcos la Laguna 	11	San Marcos la laguna 	2	Febrero	2023-02-02T00:00:00	2024-11-08T11:00:00	7	Dirección del viento	3.22
174543	7	Sololá	716	San Marcos la Laguna 	11	San Marcos la laguna 	2	Febrero	2023-02-02T00:00:00	2024-11-08T11:00:00	1	Precipitación	0
174544	7	Sololá	716	San Marcos la Laguna 	11	San Marcos la laguna 	2	Febrero	2023-02-02T00:00:00	2024-11-08T11:00:00	8	Radiación solar	647
174545	7	Sololá	716	San Marcos la Laguna 	11	San Marcos la laguna 	2	Febrero	2023-02-02T00:00:00	2024-11-08T12:00:00	2	Temperatura media	24.3
174546	7	Sololá	716	San Marcos la Laguna 	11	San Marcos la laguna 	2	Febrero	2023-02-02T00:00:00	2024-11-08T12:00:00	4	Temperatura máxima	24.3
174547	7	Sololá	716	San Marcos la Laguna 	11	San Marcos la laguna 	2	Febrero	2023-02-02T00:00:00	2024-11-08T12:00:00	3	Temperatura mínima	21.9
174548	7	Sololá	716	San Marcos la Laguna 	11	San Marcos la laguna 	2	Febrero	2023-02-02T00:00:00	2024-11-08T12:00:00	5	Humedad	34
174549	7	Sololá	716	San Marcos la Laguna 	11	San Marcos la laguna 	2	Febrero	2023-02-02T00:00:00	2024-11-08T12:00:00	6	Velocidad del viento	3.2
174550	7	Sololá	716	San Marcos la Laguna 	11	San Marcos la laguna 	2	Febrero	2023-02-02T00:00:00	2024-11-08T12:00:00	7	Dirección del viento	3.22
174551	7	Sololá	716	San Marcos la Laguna 	11	San Marcos la laguna 	2	Febrero	2023-02-02T00:00:00	2024-11-08T12:00:00	1	Precipitación	0
174552	7	Sololá	716	San Marcos la Laguna 	11	San Marcos la laguna 	2	Febrero	2023-02-02T00:00:00	2024-11-08T12:00:00	8	Radiación solar	725
174553	7	Sololá	716	San Marcos la Laguna 	11	San Marcos la laguna 	2	Febrero	2023-02-02T00:00:00	2024-11-08T13:00:00	2	Temperatura media	24.9
174554	7	Sololá	716	San Marcos la Laguna 	11	San Marcos la laguna 	2	Febrero	2023-02-02T00:00:00	2024-11-08T13:00:00	4	Temperatura máxima	25.3
174555	7	Sololá	716	San Marcos la Laguna 	11	San Marcos la laguna 	2	Febrero	2023-02-02T00:00:00	2024-11-08T13:00:00	3	Temperatura mínima	24.1
174556	7	Sololá	716	San Marcos la Laguna 	11	San Marcos la laguna 	2	Febrero	2023-02-02T00:00:00	2024-11-08T13:00:00	5	Humedad	35
174557	7	Sololá	716	San Marcos la Laguna 	11	San Marcos la laguna 	2	Febrero	2023-02-02T00:00:00	2024-11-08T13:00:00	6	Velocidad del viento	3.2
174558	7	Sololá	716	San Marcos la Laguna 	11	San Marcos la laguna 	2	Febrero	2023-02-02T00:00:00	2024-11-08T13:00:00	7	Dirección del viento	3.22
174559	7	Sololá	716	San Marcos la Laguna 	11	San Marcos la laguna 	2	Febrero	2023-02-02T00:00:00	2024-11-08T13:00:00	1	Precipitación	0
174560	7	Sololá	716	San Marcos la Laguna 	11	San Marcos la laguna 	2	Febrero	2023-02-02T00:00:00	2024-11-08T13:00:00	8	Radiación solar	813
174561	7	Sololá	716	San Marcos la Laguna 	11	San Marcos la laguna 	2	Febrero	2023-02-02T00:00:00	2024-11-08T14:00:00	2	Temperatura media	23.2
174562	7	Sololá	716	San Marcos la Laguna 	11	San Marcos la laguna 	2	Febrero	2023-02-02T00:00:00	2024-11-08T14:00:00	4	Temperatura máxima	24.9
174563	7	Sololá	716	San Marcos la Laguna 	11	San Marcos la laguna 	2	Febrero	2023-02-02T00:00:00	2024-11-08T14:00:00	3	Temperatura mínima	23.2
174564	7	Sololá	716	San Marcos la Laguna 	11	San Marcos la laguna 	2	Febrero	2023-02-02T00:00:00	2024-11-08T14:00:00	5	Humedad	59
174565	7	Sololá	716	San Marcos la Laguna 	11	San Marcos la laguna 	2	Febrero	2023-02-02T00:00:00	2024-11-08T14:00:00	6	Velocidad del viento	6.4
174566	7	Sololá	716	San Marcos la Laguna 	11	San Marcos la laguna 	2	Febrero	2023-02-02T00:00:00	2024-11-08T14:00:00	7	Dirección del viento	6.44
174567	7	Sololá	716	San Marcos la Laguna 	11	San Marcos la laguna 	2	Febrero	2023-02-02T00:00:00	2024-11-08T14:00:00	1	Precipitación	0
174568	7	Sololá	716	San Marcos la Laguna 	11	San Marcos la laguna 	2	Febrero	2023-02-02T00:00:00	2024-11-08T14:00:00	8	Radiación solar	764
174569	7	Sololá	716	San Marcos la Laguna 	11	San Marcos la laguna 	2	Febrero	2023-02-02T00:00:00	2024-11-08T15:00:00	2	Temperatura media	23.9
174570	7	Sololá	716	San Marcos la Laguna 	11	San Marcos la laguna 	2	Febrero	2023-02-02T00:00:00	2024-11-08T15:00:00	4	Temperatura máxima	24
174571	7	Sololá	716	San Marcos la Laguna 	11	San Marcos la laguna 	2	Febrero	2023-02-02T00:00:00	2024-11-08T15:00:00	3	Temperatura mínima	23.2
174572	7	Sololá	716	San Marcos la Laguna 	11	San Marcos la laguna 	2	Febrero	2023-02-02T00:00:00	2024-11-08T15:00:00	5	Humedad	57
174573	7	Sololá	716	San Marcos la Laguna 	11	San Marcos la laguna 	2	Febrero	2023-02-02T00:00:00	2024-11-08T15:00:00	6	Velocidad del viento	8
174574	7	Sololá	716	San Marcos la Laguna 	11	San Marcos la laguna 	2	Febrero	2023-02-02T00:00:00	2024-11-08T15:00:00	7	Dirección del viento	8.05
174575	7	Sololá	716	San Marcos la Laguna 	11	San Marcos la laguna 	2	Febrero	2023-02-02T00:00:00	2024-11-08T15:00:00	1	Precipitación	0
174576	7	Sololá	716	San Marcos la Laguna 	11	San Marcos la laguna 	2	Febrero	2023-02-02T00:00:00	2024-11-08T15:00:00	8	Radiación solar	643
174577	7	Sololá	716	San Marcos la Laguna 	11	San Marcos la laguna 	2	Febrero	2023-02-02T00:00:00	2024-11-08T16:00:00	2	Temperatura media	22.5
174578	7	Sololá	716	San Marcos la Laguna 	11	San Marcos la laguna 	2	Febrero	2023-02-02T00:00:00	2024-11-08T16:00:00	4	Temperatura máxima	24
174579	7	Sololá	716	San Marcos la Laguna 	11	San Marcos la laguna 	2	Febrero	2023-02-02T00:00:00	2024-11-08T16:00:00	3	Temperatura mínima	22.4
174580	7	Sololá	716	San Marcos la Laguna 	11	San Marcos la laguna 	2	Febrero	2023-02-02T00:00:00	2024-11-08T16:00:00	5	Humedad	66
174581	7	Sololá	716	San Marcos la Laguna 	11	San Marcos la laguna 	2	Febrero	2023-02-02T00:00:00	2024-11-08T16:00:00	6	Velocidad del viento	8
174582	7	Sololá	716	San Marcos la Laguna 	11	San Marcos la laguna 	2	Febrero	2023-02-02T00:00:00	2024-11-08T16:00:00	7	Dirección del viento	8.05
174583	7	Sololá	716	San Marcos la Laguna 	11	San Marcos la laguna 	2	Febrero	2023-02-02T00:00:00	2024-11-08T16:00:00	1	Precipitación	0
174584	7	Sololá	716	San Marcos la Laguna 	11	San Marcos la laguna 	2	Febrero	2023-02-02T00:00:00	2024-11-08T16:00:00	8	Radiación solar	448
174585	7	Sololá	716	San Marcos la Laguna 	11	San Marcos la laguna 	2	Febrero	2023-02-02T00:00:00	2024-11-08T17:00:00	2	Temperatura media	21.8
174586	7	Sololá	716	San Marcos la Laguna 	11	San Marcos la laguna 	2	Febrero	2023-02-02T00:00:00	2024-11-08T17:00:00	4	Temperatura máxima	22.6
174587	7	Sololá	716	San Marcos la Laguna 	11	San Marcos la laguna 	2	Febrero	2023-02-02T00:00:00	2024-11-08T17:00:00	3	Temperatura mínima	21.7
174588	7	Sololá	716	San Marcos la Laguna 	11	San Marcos la laguna 	2	Febrero	2023-02-02T00:00:00	2024-11-08T17:00:00	5	Humedad	70
174589	7	Sololá	716	San Marcos la Laguna 	11	San Marcos la laguna 	2	Febrero	2023-02-02T00:00:00	2024-11-08T17:00:00	6	Velocidad del viento	6.4
174590	7	Sololá	716	San Marcos la Laguna 	11	San Marcos la laguna 	2	Febrero	2023-02-02T00:00:00	2024-11-08T17:00:00	7	Dirección del viento	6.44
174591	7	Sololá	716	San Marcos la Laguna 	11	San Marcos la laguna 	2	Febrero	2023-02-02T00:00:00	2024-11-08T17:00:00	1	Precipitación	0
174592	7	Sololá	716	San Marcos la Laguna 	11	San Marcos la laguna 	2	Febrero	2023-02-02T00:00:00	2024-11-08T17:00:00	8	Radiación solar	253
174593	7	Sololá	716	San Marcos la Laguna 	11	San Marcos la laguna 	2	Febrero	2023-02-02T00:00:00	2024-11-08T18:00:00	2	Temperatura media	20
174594	7	Sololá	716	San Marcos la Laguna 	11	San Marcos la laguna 	2	Febrero	2023-02-02T00:00:00	2024-11-08T18:00:00	4	Temperatura máxima	21.8
174595	7	Sololá	716	San Marcos la Laguna 	11	San Marcos la laguna 	2	Febrero	2023-02-02T00:00:00	2024-11-08T18:00:00	3	Temperatura mínima	20
174596	7	Sololá	716	San Marcos la Laguna 	11	San Marcos la laguna 	2	Febrero	2023-02-02T00:00:00	2024-11-08T18:00:00	5	Humedad	80
174597	7	Sololá	716	San Marcos la Laguna 	11	San Marcos la laguna 	2	Febrero	2023-02-02T00:00:00	2024-11-08T18:00:00	6	Velocidad del viento	6.4
174598	7	Sololá	716	San Marcos la Laguna 	11	San Marcos la laguna 	2	Febrero	2023-02-02T00:00:00	2024-11-08T18:00:00	7	Dirección del viento	6.44
174599	7	Sololá	716	San Marcos la Laguna 	11	San Marcos la laguna 	2	Febrero	2023-02-02T00:00:00	2024-11-08T18:00:00	1	Precipitación	0
174600	7	Sololá	716	San Marcos la Laguna 	11	San Marcos la laguna 	2	Febrero	2023-02-02T00:00:00	2024-11-08T18:00:00	8	Radiación solar	51
174601	7	Sololá	716	San Marcos la Laguna 	11	San Marcos la laguna 	2	Febrero	2023-02-02T00:00:00	2024-11-08T19:00:00	2	Temperatura media	18.1
174602	7	Sololá	716	San Marcos la Laguna 	11	San Marcos la laguna 	2	Febrero	2023-02-02T00:00:00	2024-11-08T19:00:00	4	Temperatura máxima	20
174603	7	Sololá	716	San Marcos la Laguna 	11	San Marcos la laguna 	2	Febrero	2023-02-02T00:00:00	2024-11-08T19:00:00	3	Temperatura mínima	18.1
174604	7	Sololá	716	San Marcos la Laguna 	11	San Marcos la laguna 	2	Febrero	2023-02-02T00:00:00	2024-11-08T19:00:00	5	Humedad	71
174605	7	Sololá	716	San Marcos la Laguna 	11	San Marcos la laguna 	2	Febrero	2023-02-02T00:00:00	2024-11-08T19:00:00	6	Velocidad del viento	3.2
174606	7	Sololá	716	San Marcos la Laguna 	11	San Marcos la laguna 	2	Febrero	2023-02-02T00:00:00	2024-11-08T19:00:00	7	Dirección del viento	3.22
174607	7	Sololá	716	San Marcos la Laguna 	11	San Marcos la laguna 	2	Febrero	2023-02-02T00:00:00	2024-11-08T19:00:00	1	Precipitación	0
174608	7	Sololá	716	San Marcos la Laguna 	11	San Marcos la laguna 	2	Febrero	2023-02-02T00:00:00	2024-11-08T19:00:00	8	Radiación solar	0
174609	7	Sololá	716	San Marcos la Laguna 	11	San Marcos la laguna 	2	Febrero	2023-02-02T00:00:00	2024-11-08T20:00:00	2	Temperatura media	17.1
174610	7	Sololá	716	San Marcos la Laguna 	11	San Marcos la laguna 	2	Febrero	2023-02-02T00:00:00	2024-11-08T20:00:00	4	Temperatura máxima	18.1
174611	7	Sololá	716	San Marcos la Laguna 	11	San Marcos la laguna 	2	Febrero	2023-02-02T00:00:00	2024-11-08T20:00:00	3	Temperatura mínima	17.1
174612	7	Sololá	716	San Marcos la Laguna 	11	San Marcos la laguna 	2	Febrero	2023-02-02T00:00:00	2024-11-08T20:00:00	5	Humedad	72
174613	7	Sololá	716	San Marcos la Laguna 	11	San Marcos la laguna 	2	Febrero	2023-02-02T00:00:00	2024-11-08T20:00:00	6	Velocidad del viento	4.8
174614	7	Sololá	716	San Marcos la Laguna 	11	San Marcos la laguna 	2	Febrero	2023-02-02T00:00:00	2024-11-08T20:00:00	7	Dirección del viento	4.83
174615	7	Sololá	716	San Marcos la Laguna 	11	San Marcos la laguna 	2	Febrero	2023-02-02T00:00:00	2024-11-08T20:00:00	1	Precipitación	0
174616	7	Sololá	716	San Marcos la Laguna 	11	San Marcos la laguna 	2	Febrero	2023-02-02T00:00:00	2024-11-08T20:00:00	8	Radiación solar	0
174617	7	Sololá	716	San Marcos la Laguna 	11	San Marcos la laguna 	2	Febrero	2023-02-02T00:00:00	2024-11-08T21:00:00	2	Temperatura media	17.2
174618	7	Sololá	716	San Marcos la Laguna 	11	San Marcos la laguna 	2	Febrero	2023-02-02T00:00:00	2024-11-08T21:00:00	4	Temperatura máxima	17.3
174619	7	Sololá	716	San Marcos la Laguna 	11	San Marcos la laguna 	2	Febrero	2023-02-02T00:00:00	2024-11-08T21:00:00	3	Temperatura mínima	16.8
174620	7	Sololá	716	San Marcos la Laguna 	11	San Marcos la laguna 	2	Febrero	2023-02-02T00:00:00	2024-11-08T21:00:00	5	Humedad	73
174621	7	Sololá	716	San Marcos la Laguna 	11	San Marcos la laguna 	2	Febrero	2023-02-02T00:00:00	2024-11-08T21:00:00	6	Velocidad del viento	6.4
174622	7	Sololá	716	San Marcos la Laguna 	11	San Marcos la laguna 	2	Febrero	2023-02-02T00:00:00	2024-11-08T21:00:00	7	Dirección del viento	6.44
174623	7	Sololá	716	San Marcos la Laguna 	11	San Marcos la laguna 	2	Febrero	2023-02-02T00:00:00	2024-11-08T21:00:00	1	Precipitación	0
174624	7	Sololá	716	San Marcos la Laguna 	11	San Marcos la laguna 	2	Febrero	2023-02-02T00:00:00	2024-11-08T21:00:00	8	Radiación solar	0
174625	7	Sololá	716	San Marcos la Laguna 	11	San Marcos la laguna 	2	Febrero	2023-02-02T00:00:00	2024-11-08T22:00:00	2	Temperatura media	16.9
174626	7	Sololá	716	San Marcos la Laguna 	11	San Marcos la laguna 	2	Febrero	2023-02-02T00:00:00	2024-11-08T22:00:00	4	Temperatura máxima	17.2
174627	7	Sololá	716	San Marcos la Laguna 	11	San Marcos la laguna 	2	Febrero	2023-02-02T00:00:00	2024-11-08T22:00:00	3	Temperatura mínima	16.7
174628	7	Sololá	716	San Marcos la Laguna 	11	San Marcos la laguna 	2	Febrero	2023-02-02T00:00:00	2024-11-08T22:00:00	5	Humedad	74
174629	7	Sololá	716	San Marcos la Laguna 	11	San Marcos la laguna 	2	Febrero	2023-02-02T00:00:00	2024-11-08T22:00:00	6	Velocidad del viento	8
174630	7	Sololá	716	San Marcos la Laguna 	11	San Marcos la laguna 	2	Febrero	2023-02-02T00:00:00	2024-11-08T22:00:00	7	Dirección del viento	8.05
174631	7	Sololá	716	San Marcos la Laguna 	11	San Marcos la laguna 	2	Febrero	2023-02-02T00:00:00	2024-11-08T22:00:00	1	Precipitación	0
174632	7	Sololá	716	San Marcos la Laguna 	11	San Marcos la laguna 	2	Febrero	2023-02-02T00:00:00	2024-11-08T22:00:00	8	Radiación solar	0
174633	7	Sololá	716	San Marcos la Laguna 	11	San Marcos la laguna 	2	Febrero	2023-02-02T00:00:00	2024-11-08T23:00:00	2	Temperatura media	16.3
174634	7	Sololá	716	San Marcos la Laguna 	11	San Marcos la laguna 	2	Febrero	2023-02-02T00:00:00	2024-11-08T23:00:00	4	Temperatura máxima	16.9
174635	7	Sololá	716	San Marcos la Laguna 	11	San Marcos la laguna 	2	Febrero	2023-02-02T00:00:00	2024-11-08T23:00:00	3	Temperatura mínima	16.2
174636	7	Sololá	716	San Marcos la Laguna 	11	San Marcos la laguna 	2	Febrero	2023-02-02T00:00:00	2024-11-08T23:00:00	5	Humedad	72
174637	7	Sololá	716	San Marcos la Laguna 	11	San Marcos la laguna 	2	Febrero	2023-02-02T00:00:00	2024-11-08T23:00:00	6	Velocidad del viento	8
174638	7	Sololá	716	San Marcos la Laguna 	11	San Marcos la laguna 	2	Febrero	2023-02-02T00:00:00	2024-11-08T23:00:00	7	Dirección del viento	8.05
174639	7	Sololá	716	San Marcos la Laguna 	11	San Marcos la laguna 	2	Febrero	2023-02-02T00:00:00	2024-11-08T23:00:00	1	Precipitación	0
174640	7	Sololá	716	San Marcos la Laguna 	11	San Marcos la laguna 	2	Febrero	2023-02-02T00:00:00	2024-11-08T23:00:00	8	Radiación solar	0
174641	7	Sololá	716	San Marcos la Laguna 	11	San Marcos la laguna 	2	Febrero	2023-03-02T00:00:00	2024-11-08T00:00:00	2	Temperatura media	15.9
174642	7	Sololá	716	San Marcos la Laguna 	11	San Marcos la laguna 	2	Febrero	2023-03-02T00:00:00	2024-11-08T00:00:00	4	Temperatura máxima	16.4
174643	7	Sololá	716	San Marcos la Laguna 	11	San Marcos la laguna 	2	Febrero	2023-03-02T00:00:00	2024-11-08T00:00:00	3	Temperatura mínima	15.6
174644	7	Sololá	716	San Marcos la Laguna 	11	San Marcos la laguna 	2	Febrero	2023-03-02T00:00:00	2024-11-08T00:00:00	5	Humedad	71
174645	7	Sololá	716	San Marcos la Laguna 	11	San Marcos la laguna 	2	Febrero	2023-03-02T00:00:00	2024-11-08T00:00:00	6	Velocidad del viento	8
174646	7	Sololá	716	San Marcos la Laguna 	11	San Marcos la laguna 	2	Febrero	2023-03-02T00:00:00	2024-11-08T00:00:00	7	Dirección del viento	8.05
174647	7	Sololá	716	San Marcos la Laguna 	11	San Marcos la laguna 	2	Febrero	2023-03-02T00:00:00	2024-11-08T00:00:00	1	Precipitación	0
174648	7	Sololá	716	San Marcos la Laguna 	11	San Marcos la laguna 	2	Febrero	2023-03-02T00:00:00	2024-11-08T00:00:00	8	Radiación solar	0
174649	7	Sololá	716	San Marcos la Laguna 	11	San Marcos la laguna 	2	Febrero	2023-03-02T00:00:00	2024-11-08T01:00:00	2	Temperatura media	14.9
174650	7	Sololá	716	San Marcos la Laguna 	11	San Marcos la laguna 	2	Febrero	2023-03-02T00:00:00	2024-11-08T01:00:00	4	Temperatura máxima	16
174651	7	Sololá	716	San Marcos la Laguna 	11	San Marcos la laguna 	2	Febrero	2023-03-02T00:00:00	2024-11-08T01:00:00	3	Temperatura mínima	14.9
174652	7	Sololá	716	San Marcos la Laguna 	11	San Marcos la laguna 	2	Febrero	2023-03-02T00:00:00	2024-11-08T01:00:00	5	Humedad	73
174653	7	Sololá	716	San Marcos la Laguna 	11	San Marcos la laguna 	2	Febrero	2023-03-02T00:00:00	2024-11-08T01:00:00	6	Velocidad del viento	8
174654	7	Sololá	716	San Marcos la Laguna 	11	San Marcos la laguna 	2	Febrero	2023-03-02T00:00:00	2024-11-08T01:00:00	7	Dirección del viento	8.05
174655	7	Sololá	716	San Marcos la Laguna 	11	San Marcos la laguna 	2	Febrero	2023-03-02T00:00:00	2024-11-08T01:00:00	1	Precipitación	0
174656	7	Sololá	716	San Marcos la Laguna 	11	San Marcos la laguna 	2	Febrero	2023-03-02T00:00:00	2024-11-08T01:00:00	8	Radiación solar	0
174657	7	Sololá	716	San Marcos la Laguna 	11	San Marcos la laguna 	2	Febrero	2023-03-02T00:00:00	2024-11-08T02:00:00	2	Temperatura media	14.6
174658	7	Sololá	716	San Marcos la Laguna 	11	San Marcos la laguna 	2	Febrero	2023-03-02T00:00:00	2024-11-08T02:00:00	4	Temperatura máxima	15.3
174659	7	Sololá	716	San Marcos la Laguna 	11	San Marcos la laguna 	2	Febrero	2023-03-02T00:00:00	2024-11-08T02:00:00	3	Temperatura mínima	14.3
174660	7	Sololá	716	San Marcos la Laguna 	11	San Marcos la laguna 	2	Febrero	2023-03-02T00:00:00	2024-11-08T02:00:00	5	Humedad	74
174661	7	Sololá	716	San Marcos la Laguna 	11	San Marcos la laguna 	2	Febrero	2023-03-02T00:00:00	2024-11-08T02:00:00	6	Velocidad del viento	8
174662	7	Sololá	716	San Marcos la Laguna 	11	San Marcos la laguna 	2	Febrero	2023-03-02T00:00:00	2024-11-08T02:00:00	7	Dirección del viento	8.05
174663	7	Sololá	716	San Marcos la Laguna 	11	San Marcos la laguna 	2	Febrero	2023-03-02T00:00:00	2024-11-08T02:00:00	1	Precipitación	0
174664	7	Sololá	716	San Marcos la Laguna 	11	San Marcos la laguna 	2	Febrero	2023-03-02T00:00:00	2024-11-08T02:00:00	8	Radiación solar	0
174665	7	Sololá	716	San Marcos la Laguna 	11	San Marcos la laguna 	2	Febrero	2023-03-02T00:00:00	2024-11-08T03:00:00	2	Temperatura media	14.1
174666	7	Sololá	716	San Marcos la Laguna 	11	San Marcos la laguna 	2	Febrero	2023-03-02T00:00:00	2024-11-08T03:00:00	4	Temperatura máxima	14.9
174667	7	Sololá	716	San Marcos la Laguna 	11	San Marcos la laguna 	2	Febrero	2023-03-02T00:00:00	2024-11-08T03:00:00	3	Temperatura mínima	14.1
174668	7	Sololá	716	San Marcos la Laguna 	11	San Marcos la laguna 	2	Febrero	2023-03-02T00:00:00	2024-11-08T03:00:00	5	Humedad	72
174669	7	Sololá	716	San Marcos la Laguna 	11	San Marcos la laguna 	2	Febrero	2023-03-02T00:00:00	2024-11-08T03:00:00	6	Velocidad del viento	8
174670	7	Sololá	716	San Marcos la Laguna 	11	San Marcos la laguna 	2	Febrero	2023-03-02T00:00:00	2024-11-08T03:00:00	7	Dirección del viento	8.05
174671	7	Sololá	716	San Marcos la Laguna 	11	San Marcos la laguna 	2	Febrero	2023-03-02T00:00:00	2024-11-08T03:00:00	1	Precipitación	0
174672	7	Sololá	716	San Marcos la Laguna 	11	San Marcos la laguna 	2	Febrero	2023-03-02T00:00:00	2024-11-08T03:00:00	8	Radiación solar	0
174673	7	Sololá	716	San Marcos la Laguna 	11	San Marcos la laguna 	2	Febrero	2023-03-02T00:00:00	2024-11-08T04:00:00	2	Temperatura media	14.3
174674	7	Sololá	716	San Marcos la Laguna 	11	San Marcos la laguna 	2	Febrero	2023-03-02T00:00:00	2024-11-08T04:00:00	4	Temperatura máxima	14.3
174675	7	Sololá	716	San Marcos la Laguna 	11	San Marcos la laguna 	2	Febrero	2023-03-02T00:00:00	2024-11-08T04:00:00	3	Temperatura mínima	13.7
174676	7	Sololá	716	San Marcos la Laguna 	11	San Marcos la laguna 	2	Febrero	2023-03-02T00:00:00	2024-11-08T04:00:00	5	Humedad	72
174677	7	Sololá	716	San Marcos la Laguna 	11	San Marcos la laguna 	2	Febrero	2023-03-02T00:00:00	2024-11-08T04:00:00	6	Velocidad del viento	8
174678	7	Sololá	716	San Marcos la Laguna 	11	San Marcos la laguna 	2	Febrero	2023-03-02T00:00:00	2024-11-08T04:00:00	7	Dirección del viento	8.05
174679	7	Sololá	716	San Marcos la Laguna 	11	San Marcos la laguna 	2	Febrero	2023-03-02T00:00:00	2024-11-08T04:00:00	1	Precipitación	0
174680	7	Sololá	716	San Marcos la Laguna 	11	San Marcos la laguna 	2	Febrero	2023-03-02T00:00:00	2024-11-08T04:00:00	8	Radiación solar	0
174681	7	Sololá	716	San Marcos la Laguna 	11	San Marcos la laguna 	2	Febrero	2023-03-02T00:00:00	2024-11-08T05:00:00	2	Temperatura media	14.2
174682	7	Sololá	716	San Marcos la Laguna 	11	San Marcos la laguna 	2	Febrero	2023-03-02T00:00:00	2024-11-08T05:00:00	4	Temperatura máxima	14.6
174683	7	Sololá	716	San Marcos la Laguna 	11	San Marcos la laguna 	2	Febrero	2023-03-02T00:00:00	2024-11-08T05:00:00	3	Temperatura mínima	13.9
174684	7	Sololá	716	San Marcos la Laguna 	11	San Marcos la laguna 	2	Febrero	2023-03-02T00:00:00	2024-11-08T05:00:00	5	Humedad	70
174685	7	Sololá	716	San Marcos la Laguna 	11	San Marcos la laguna 	2	Febrero	2023-03-02T00:00:00	2024-11-08T05:00:00	6	Velocidad del viento	8
174686	7	Sololá	716	San Marcos la Laguna 	11	San Marcos la laguna 	2	Febrero	2023-03-02T00:00:00	2024-11-08T05:00:00	7	Dirección del viento	8.05
174687	7	Sololá	716	San Marcos la Laguna 	11	San Marcos la laguna 	2	Febrero	2023-03-02T00:00:00	2024-11-08T05:00:00	1	Precipitación	0
174688	7	Sololá	716	San Marcos la Laguna 	11	San Marcos la laguna 	2	Febrero	2023-03-02T00:00:00	2024-11-08T05:00:00	8	Radiación solar	0
174689	7	Sololá	716	San Marcos la Laguna 	11	San Marcos la laguna 	2	Febrero	2023-03-02T00:00:00	2024-11-08T06:00:00	2	Temperatura media	14.2
174690	7	Sololá	716	San Marcos la Laguna 	11	San Marcos la laguna 	2	Febrero	2023-03-02T00:00:00	2024-11-08T06:00:00	4	Temperatura máxima	14.4
174691	7	Sololá	716	San Marcos la Laguna 	11	San Marcos la laguna 	2	Febrero	2023-03-02T00:00:00	2024-11-08T06:00:00	3	Temperatura mínima	13.3
174692	7	Sololá	716	San Marcos la Laguna 	11	San Marcos la laguna 	2	Febrero	2023-03-02T00:00:00	2024-11-08T06:00:00	5	Humedad	66
174693	7	Sololá	716	San Marcos la Laguna 	11	San Marcos la laguna 	2	Febrero	2023-03-02T00:00:00	2024-11-08T06:00:00	6	Velocidad del viento	8
174694	7	Sololá	716	San Marcos la Laguna 	11	San Marcos la laguna 	2	Febrero	2023-03-02T00:00:00	2024-11-08T06:00:00	7	Dirección del viento	8.05
174695	7	Sololá	716	San Marcos la Laguna 	11	San Marcos la laguna 	2	Febrero	2023-03-02T00:00:00	2024-11-08T06:00:00	1	Precipitación	0
174696	7	Sololá	716	San Marcos la Laguna 	11	San Marcos la laguna 	2	Febrero	2023-03-02T00:00:00	2024-11-08T06:00:00	8	Radiación solar	0
174697	7	Sololá	716	San Marcos la Laguna 	11	San Marcos la laguna 	2	Febrero	2023-03-02T00:00:00	2024-11-08T07:00:00	2	Temperatura media	15.2
174698	7	Sololá	716	San Marcos la Laguna 	11	San Marcos la laguna 	2	Febrero	2023-03-02T00:00:00	2024-11-08T07:00:00	4	Temperatura máxima	15.3
174699	7	Sololá	716	San Marcos la Laguna 	11	San Marcos la laguna 	2	Febrero	2023-03-02T00:00:00	2024-11-08T07:00:00	3	Temperatura mínima	13.5
174700	7	Sololá	716	San Marcos la Laguna 	11	San Marcos la laguna 	2	Febrero	2023-03-02T00:00:00	2024-11-08T07:00:00	5	Humedad	61
174701	7	Sololá	716	San Marcos la Laguna 	11	San Marcos la laguna 	2	Febrero	2023-03-02T00:00:00	2024-11-08T07:00:00	6	Velocidad del viento	6.4
174702	7	Sololá	716	San Marcos la Laguna 	11	San Marcos la laguna 	2	Febrero	2023-03-02T00:00:00	2024-11-08T07:00:00	7	Dirección del viento	6.44
174703	7	Sololá	716	San Marcos la Laguna 	11	San Marcos la laguna 	2	Febrero	2023-03-02T00:00:00	2024-11-08T07:00:00	1	Precipitación	0
174704	7	Sololá	716	San Marcos la Laguna 	11	San Marcos la laguna 	2	Febrero	2023-03-02T00:00:00	2024-11-08T07:00:00	8	Radiación solar	4
174705	7	Sololá	716	San Marcos la Laguna 	11	San Marcos la laguna 	2	Febrero	2023-03-02T00:00:00	2024-11-08T08:00:00	2	Temperatura media	17.8
174706	7	Sololá	716	San Marcos la Laguna 	11	San Marcos la laguna 	2	Febrero	2023-03-02T00:00:00	2024-11-08T08:00:00	4	Temperatura máxima	17.9
174707	7	Sololá	716	San Marcos la Laguna 	11	San Marcos la laguna 	2	Febrero	2023-03-02T00:00:00	2024-11-08T08:00:00	3	Temperatura mínima	15.2
174708	7	Sololá	716	San Marcos la Laguna 	11	San Marcos la laguna 	2	Febrero	2023-03-02T00:00:00	2024-11-08T08:00:00	5	Humedad	60
174709	7	Sololá	716	San Marcos la Laguna 	11	San Marcos la laguna 	2	Febrero	2023-03-02T00:00:00	2024-11-08T08:00:00	6	Velocidad del viento	4.8
174710	7	Sololá	716	San Marcos la Laguna 	11	San Marcos la laguna 	2	Febrero	2023-03-02T00:00:00	2024-11-08T08:00:00	7	Dirección del viento	4.83
174711	7	Sololá	716	San Marcos la Laguna 	11	San Marcos la laguna 	2	Febrero	2023-03-02T00:00:00	2024-11-08T08:00:00	1	Precipitación	0
174712	7	Sololá	716	San Marcos la Laguna 	11	San Marcos la laguna 	2	Febrero	2023-03-02T00:00:00	2024-11-08T08:00:00	8	Radiación solar	132
174713	7	Sololá	716	San Marcos la Laguna 	11	San Marcos la laguna 	2	Febrero	2023-03-02T00:00:00	2024-11-08T09:00:00	2	Temperatura media	21.1
174714	7	Sololá	716	San Marcos la Laguna 	11	San Marcos la laguna 	2	Febrero	2023-03-02T00:00:00	2024-11-08T09:00:00	4	Temperatura máxima	21.1
174715	7	Sololá	716	San Marcos la Laguna 	11	San Marcos la laguna 	2	Febrero	2023-03-02T00:00:00	2024-11-08T09:00:00	3	Temperatura mínima	17.8
174716	7	Sololá	716	San Marcos la Laguna 	11	San Marcos la laguna 	2	Febrero	2023-03-02T00:00:00	2024-11-08T09:00:00	5	Humedad	54
174717	7	Sololá	716	San Marcos la Laguna 	11	San Marcos la laguna 	2	Febrero	2023-03-02T00:00:00	2024-11-08T09:00:00	6	Velocidad del viento	8
174718	7	Sololá	716	San Marcos la Laguna 	11	San Marcos la laguna 	2	Febrero	2023-03-02T00:00:00	2024-11-08T09:00:00	7	Dirección del viento	8.05
174719	7	Sololá	716	San Marcos la Laguna 	11	San Marcos la laguna 	2	Febrero	2023-03-02T00:00:00	2024-11-08T09:00:00	1	Precipitación	0
174720	7	Sololá	716	San Marcos la Laguna 	11	San Marcos la laguna 	2	Febrero	2023-03-02T00:00:00	2024-11-08T09:00:00	8	Radiación solar	354
174721	7	Sololá	716	San Marcos la Laguna 	11	San Marcos la laguna 	2	Febrero	2023-03-02T00:00:00	2024-11-08T10:00:00	2	Temperatura media	22.3
174722	7	Sololá	716	San Marcos la Laguna 	11	San Marcos la laguna 	2	Febrero	2023-03-02T00:00:00	2024-11-08T10:00:00	4	Temperatura máxima	22.3
174723	7	Sololá	716	San Marcos la Laguna 	11	San Marcos la laguna 	2	Febrero	2023-03-02T00:00:00	2024-11-08T10:00:00	3	Temperatura mínima	21
174724	7	Sololá	716	San Marcos la Laguna 	11	San Marcos la laguna 	2	Febrero	2023-03-02T00:00:00	2024-11-08T10:00:00	5	Humedad	48
174725	7	Sololá	716	San Marcos la Laguna 	11	San Marcos la laguna 	2	Febrero	2023-03-02T00:00:00	2024-11-08T10:00:00	6	Velocidad del viento	17.7
174726	7	Sololá	716	San Marcos la Laguna 	11	San Marcos la laguna 	2	Febrero	2023-03-02T00:00:00	2024-11-08T10:00:00	7	Dirección del viento	17.7
174727	7	Sololá	716	San Marcos la Laguna 	11	San Marcos la laguna 	2	Febrero	2023-03-02T00:00:00	2024-11-08T10:00:00	1	Precipitación	0
174728	7	Sololá	716	San Marcos la Laguna 	11	San Marcos la laguna 	2	Febrero	2023-03-02T00:00:00	2024-11-08T10:00:00	8	Radiación solar	546
174729	7	Sololá	716	San Marcos la Laguna 	11	San Marcos la laguna 	2	Febrero	2023-03-02T00:00:00	2024-11-08T11:00:00	2	Temperatura media	23.7
174730	7	Sololá	716	San Marcos la Laguna 	11	San Marcos la laguna 	2	Febrero	2023-03-02T00:00:00	2024-11-08T11:00:00	4	Temperatura máxima	23.7
174731	7	Sololá	716	San Marcos la Laguna 	11	San Marcos la laguna 	2	Febrero	2023-03-02T00:00:00	2024-11-08T11:00:00	3	Temperatura mínima	22
174732	7	Sololá	716	San Marcos la Laguna 	11	San Marcos la laguna 	2	Febrero	2023-03-02T00:00:00	2024-11-08T11:00:00	5	Humedad	46
174733	7	Sololá	716	San Marcos la Laguna 	11	San Marcos la laguna 	2	Febrero	2023-03-02T00:00:00	2024-11-08T11:00:00	6	Velocidad del viento	8
174734	7	Sololá	716	San Marcos la Laguna 	11	San Marcos la laguna 	2	Febrero	2023-03-02T00:00:00	2024-11-08T11:00:00	7	Dirección del viento	8.05
174735	7	Sololá	716	San Marcos la Laguna 	11	San Marcos la laguna 	2	Febrero	2023-03-02T00:00:00	2024-11-08T11:00:00	1	Precipitación	0
174736	7	Sololá	716	San Marcos la Laguna 	11	San Marcos la laguna 	2	Febrero	2023-03-02T00:00:00	2024-11-08T11:00:00	8	Radiación solar	649
174737	7	Sololá	716	San Marcos la Laguna 	11	San Marcos la laguna 	2	Febrero	2023-03-02T00:00:00	2024-11-08T12:00:00	2	Temperatura media	22.1
174738	7	Sololá	716	San Marcos la Laguna 	11	San Marcos la laguna 	2	Febrero	2023-03-02T00:00:00	2024-11-08T12:00:00	4	Temperatura máxima	24
174739	7	Sololá	716	San Marcos la Laguna 	11	San Marcos la laguna 	2	Febrero	2023-03-02T00:00:00	2024-11-08T12:00:00	3	Temperatura mínima	22.1
174740	7	Sololá	716	San Marcos la Laguna 	11	San Marcos la laguna 	2	Febrero	2023-03-02T00:00:00	2024-11-08T12:00:00	5	Humedad	55
174741	7	Sololá	716	San Marcos la Laguna 	11	San Marcos la laguna 	2	Febrero	2023-03-02T00:00:00	2024-11-08T12:00:00	6	Velocidad del viento	16.1
174742	7	Sololá	716	San Marcos la Laguna 	11	San Marcos la laguna 	2	Febrero	2023-03-02T00:00:00	2024-11-08T12:00:00	7	Dirección del viento	16.09
174743	7	Sololá	716	San Marcos la Laguna 	11	San Marcos la laguna 	2	Febrero	2023-03-02T00:00:00	2024-11-08T12:00:00	1	Precipitación	0
174744	7	Sololá	716	San Marcos la Laguna 	11	San Marcos la laguna 	2	Febrero	2023-03-02T00:00:00	2024-11-08T12:00:00	8	Radiación solar	660
174745	7	Sololá	716	San Marcos la Laguna 	11	San Marcos la laguna 	2	Febrero	2023-03-02T00:00:00	2024-11-08T13:00:00	2	Temperatura media	21.7
174746	7	Sololá	716	San Marcos la Laguna 	11	San Marcos la laguna 	2	Febrero	2023-03-02T00:00:00	2024-11-08T13:00:00	4	Temperatura máxima	22.8
174747	7	Sololá	716	San Marcos la Laguna 	11	San Marcos la laguna 	2	Febrero	2023-03-02T00:00:00	2024-11-08T13:00:00	3	Temperatura mínima	20.8
174748	7	Sololá	716	San Marcos la Laguna 	11	San Marcos la laguna 	2	Febrero	2023-03-02T00:00:00	2024-11-08T13:00:00	5	Humedad	55
174749	7	Sololá	716	San Marcos la Laguna 	11	San Marcos la laguna 	2	Febrero	2023-03-02T00:00:00	2024-11-08T13:00:00	6	Velocidad del viento	29
174750	7	Sololá	716	San Marcos la Laguna 	11	San Marcos la laguna 	2	Febrero	2023-03-02T00:00:00	2024-11-08T13:00:00	7	Dirección del viento	28.97
174751	7	Sololá	716	San Marcos la Laguna 	11	San Marcos la laguna 	2	Febrero	2023-03-02T00:00:00	2024-11-08T13:00:00	1	Precipitación	0
174752	7	Sololá	716	San Marcos la Laguna 	11	San Marcos la laguna 	2	Febrero	2023-03-02T00:00:00	2024-11-08T13:00:00	8	Radiación solar	731
174753	7	Sololá	716	San Marcos la Laguna 	11	San Marcos la laguna 	2	Febrero	2023-03-02T00:00:00	2024-11-08T14:00:00	2	Temperatura media	20.6
174754	7	Sololá	716	San Marcos la Laguna 	11	San Marcos la laguna 	2	Febrero	2023-03-02T00:00:00	2024-11-08T14:00:00	4	Temperatura máxima	22.4
174755	7	Sololá	716	San Marcos la Laguna 	11	San Marcos la laguna 	2	Febrero	2023-03-02T00:00:00	2024-11-08T14:00:00	3	Temperatura mínima	20.1
174756	7	Sololá	716	San Marcos la Laguna 	11	San Marcos la laguna 	2	Febrero	2023-03-02T00:00:00	2024-11-08T14:00:00	5	Humedad	59
174757	7	Sololá	716	San Marcos la Laguna 	11	San Marcos la laguna 	2	Febrero	2023-03-02T00:00:00	2024-11-08T14:00:00	6	Velocidad del viento	29
174758	7	Sololá	716	San Marcos la Laguna 	11	San Marcos la laguna 	2	Febrero	2023-03-02T00:00:00	2024-11-08T14:00:00	7	Dirección del viento	28.97
174759	7	Sololá	716	San Marcos la Laguna 	11	San Marcos la laguna 	2	Febrero	2023-03-02T00:00:00	2024-11-08T14:00:00	1	Precipitación	0
174760	7	Sololá	716	San Marcos la Laguna 	11	San Marcos la laguna 	2	Febrero	2023-03-02T00:00:00	2024-11-08T14:00:00	8	Radiación solar	811
174761	7	Sololá	716	San Marcos la Laguna 	11	San Marcos la laguna 	2	Febrero	2023-03-02T00:00:00	2024-11-08T15:00:00	2	Temperatura media	18.9
174762	7	Sololá	716	San Marcos la Laguna 	11	San Marcos la laguna 	2	Febrero	2023-03-02T00:00:00	2024-11-08T15:00:00	4	Temperatura máxima	20.7
174763	7	Sololá	716	San Marcos la Laguna 	11	San Marcos la laguna 	2	Febrero	2023-03-02T00:00:00	2024-11-08T15:00:00	3	Temperatura mínima	18.8
174764	7	Sololá	716	San Marcos la Laguna 	11	San Marcos la laguna 	2	Febrero	2023-03-02T00:00:00	2024-11-08T15:00:00	5	Humedad	63
174765	7	Sololá	716	San Marcos la Laguna 	11	San Marcos la laguna 	2	Febrero	2023-03-02T00:00:00	2024-11-08T15:00:00	6	Velocidad del viento	32.2
174766	7	Sololá	716	San Marcos la Laguna 	11	San Marcos la laguna 	2	Febrero	2023-03-02T00:00:00	2024-11-08T15:00:00	7	Dirección del viento	32.19
174767	7	Sololá	716	San Marcos la Laguna 	11	San Marcos la laguna 	2	Febrero	2023-03-02T00:00:00	2024-11-08T15:00:00	1	Precipitación	0
174768	7	Sololá	716	San Marcos la Laguna 	11	San Marcos la laguna 	2	Febrero	2023-03-02T00:00:00	2024-11-08T15:00:00	8	Radiación solar	725
174769	7	Sololá	716	San Marcos la Laguna 	11	San Marcos la laguna 	2	Febrero	2023-03-02T00:00:00	2024-11-08T16:00:00	2	Temperatura media	18.6
174770	7	Sololá	716	San Marcos la Laguna 	11	San Marcos la laguna 	2	Febrero	2023-03-02T00:00:00	2024-11-08T16:00:00	4	Temperatura máxima	19.1
174771	7	Sololá	716	San Marcos la Laguna 	11	San Marcos la laguna 	2	Febrero	2023-03-02T00:00:00	2024-11-08T16:00:00	3	Temperatura mínima	18.6
174772	7	Sololá	716	San Marcos la Laguna 	11	San Marcos la laguna 	2	Febrero	2023-03-02T00:00:00	2024-11-08T16:00:00	5	Humedad	62
174773	7	Sololá	716	San Marcos la Laguna 	11	San Marcos la laguna 	2	Febrero	2023-03-02T00:00:00	2024-11-08T16:00:00	6	Velocidad del viento	17.7
174774	7	Sololá	716	San Marcos la Laguna 	11	San Marcos la laguna 	2	Febrero	2023-03-02T00:00:00	2024-11-08T16:00:00	7	Dirección del viento	17.7
174775	7	Sololá	716	San Marcos la Laguna 	11	San Marcos la laguna 	2	Febrero	2023-03-02T00:00:00	2024-11-08T16:00:00	1	Precipitación	0
174776	7	Sololá	716	San Marcos la Laguna 	11	San Marcos la laguna 	2	Febrero	2023-03-02T00:00:00	2024-11-08T16:00:00	8	Radiación solar	207
174777	7	Sololá	716	San Marcos la Laguna 	11	San Marcos la laguna 	2	Febrero	2023-03-02T00:00:00	2024-11-08T17:00:00	2	Temperatura media	19.3
174778	7	Sololá	716	San Marcos la Laguna 	11	San Marcos la laguna 	2	Febrero	2023-03-02T00:00:00	2024-11-08T17:00:00	4	Temperatura máxima	19.3
174779	7	Sololá	716	San Marcos la Laguna 	11	San Marcos la laguna 	2	Febrero	2023-03-02T00:00:00	2024-11-08T17:00:00	3	Temperatura mínima	18.5
174780	7	Sololá	716	San Marcos la Laguna 	11	San Marcos la laguna 	2	Febrero	2023-03-02T00:00:00	2024-11-08T17:00:00	5	Humedad	58
174781	7	Sololá	716	San Marcos la Laguna 	11	San Marcos la laguna 	2	Febrero	2023-03-02T00:00:00	2024-11-08T17:00:00	6	Velocidad del viento	22.5
174782	7	Sololá	716	San Marcos la Laguna 	11	San Marcos la laguna 	2	Febrero	2023-03-02T00:00:00	2024-11-08T17:00:00	7	Dirección del viento	22.53
174783	7	Sololá	716	San Marcos la Laguna 	11	San Marcos la laguna 	2	Febrero	2023-03-02T00:00:00	2024-11-08T17:00:00	1	Precipitación	0
174784	7	Sololá	716	San Marcos la Laguna 	11	San Marcos la laguna 	2	Febrero	2023-03-02T00:00:00	2024-11-08T17:00:00	8	Radiación solar	137
174785	7	Sololá	716	San Marcos la Laguna 	11	San Marcos la laguna 	2	Febrero	2023-03-02T00:00:00	2024-11-08T18:00:00	2	Temperatura media	18.4
174786	7	Sololá	716	San Marcos la Laguna 	11	San Marcos la laguna 	2	Febrero	2023-03-02T00:00:00	2024-11-08T18:00:00	4	Temperatura máxima	19.4
174787	7	Sololá	716	San Marcos la Laguna 	11	San Marcos la laguna 	2	Febrero	2023-03-02T00:00:00	2024-11-08T18:00:00	3	Temperatura mínima	18.4
174788	7	Sololá	716	San Marcos la Laguna 	11	San Marcos la laguna 	2	Febrero	2023-03-02T00:00:00	2024-11-08T18:00:00	5	Humedad	66
174789	7	Sololá	716	San Marcos la Laguna 	11	San Marcos la laguna 	2	Febrero	2023-03-02T00:00:00	2024-11-08T18:00:00	6	Velocidad del viento	27.4
174790	7	Sololá	716	San Marcos la Laguna 	11	San Marcos la laguna 	2	Febrero	2023-03-02T00:00:00	2024-11-08T18:00:00	7	Dirección del viento	27.36
174791	7	Sololá	716	San Marcos la Laguna 	11	San Marcos la laguna 	2	Febrero	2023-03-02T00:00:00	2024-11-08T18:00:00	1	Precipitación	0
174792	7	Sololá	716	San Marcos la Laguna 	11	San Marcos la laguna 	2	Febrero	2023-03-02T00:00:00	2024-11-08T18:00:00	8	Radiación solar	77
174793	7	Sololá	716	San Marcos la Laguna 	11	San Marcos la laguna 	2	Febrero	2023-03-02T00:00:00	2024-11-08T19:00:00	2	Temperatura media	18.3
174794	7	Sololá	716	San Marcos la Laguna 	11	San Marcos la laguna 	2	Febrero	2023-03-02T00:00:00	2024-11-08T19:00:00	4	Temperatura máxima	18.6
174795	7	Sololá	716	San Marcos la Laguna 	11	San Marcos la laguna 	2	Febrero	2023-03-02T00:00:00	2024-11-08T19:00:00	3	Temperatura mínima	18.3
174796	7	Sololá	716	San Marcos la Laguna 	11	San Marcos la laguna 	2	Febrero	2023-03-02T00:00:00	2024-11-08T19:00:00	5	Humedad	62
174797	7	Sololá	716	San Marcos la Laguna 	11	San Marcos la laguna 	2	Febrero	2023-03-02T00:00:00	2024-11-08T19:00:00	6	Velocidad del viento	19.3
174798	7	Sololá	716	San Marcos la Laguna 	11	San Marcos la laguna 	2	Febrero	2023-03-02T00:00:00	2024-11-08T19:00:00	7	Dirección del viento	19.31
174799	7	Sololá	716	San Marcos la Laguna 	11	San Marcos la laguna 	2	Febrero	2023-03-02T00:00:00	2024-11-08T19:00:00	1	Precipitación	0
174800	7	Sololá	716	San Marcos la Laguna 	11	San Marcos la laguna 	2	Febrero	2023-03-02T00:00:00	2024-11-08T19:00:00	8	Radiación solar	0
174801	7	Sololá	716	San Marcos la Laguna 	11	San Marcos la laguna 	2	Febrero	2023-03-02T00:00:00	2024-11-08T20:00:00	2	Temperatura media	18.6
174802	7	Sololá	716	San Marcos la Laguna 	11	San Marcos la laguna 	2	Febrero	2023-03-02T00:00:00	2024-11-08T20:00:00	4	Temperatura máxima	18.7
174803	7	Sololá	716	San Marcos la Laguna 	11	San Marcos la laguna 	2	Febrero	2023-03-02T00:00:00	2024-11-08T20:00:00	3	Temperatura mínima	18.3
174804	7	Sololá	716	San Marcos la Laguna 	11	San Marcos la laguna 	2	Febrero	2023-03-02T00:00:00	2024-11-08T20:00:00	5	Humedad	63
174805	7	Sololá	716	San Marcos la Laguna 	11	San Marcos la laguna 	2	Febrero	2023-03-02T00:00:00	2024-11-08T20:00:00	6	Velocidad del viento	17.7
174806	7	Sololá	716	San Marcos la Laguna 	11	San Marcos la laguna 	2	Febrero	2023-03-02T00:00:00	2024-11-08T20:00:00	7	Dirección del viento	17.7
174807	7	Sololá	716	San Marcos la Laguna 	11	San Marcos la laguna 	2	Febrero	2023-03-02T00:00:00	2024-11-08T20:00:00	1	Precipitación	0
174808	7	Sololá	716	San Marcos la Laguna 	11	San Marcos la laguna 	2	Febrero	2023-03-02T00:00:00	2024-11-08T20:00:00	8	Radiación solar	0
174809	7	Sololá	716	San Marcos la Laguna 	11	San Marcos la laguna 	2	Febrero	2023-03-02T00:00:00	2024-11-08T21:00:00	2	Temperatura media	18.5
174810	7	Sololá	716	San Marcos la Laguna 	11	San Marcos la laguna 	2	Febrero	2023-03-02T00:00:00	2024-11-08T21:00:00	4	Temperatura máxima	18.6
174811	7	Sololá	716	San Marcos la Laguna 	11	San Marcos la laguna 	2	Febrero	2023-03-02T00:00:00	2024-11-08T21:00:00	3	Temperatura mínima	18.1
174812	7	Sololá	716	San Marcos la Laguna 	11	San Marcos la laguna 	2	Febrero	2023-03-02T00:00:00	2024-11-08T21:00:00	5	Humedad	60
174813	7	Sololá	716	San Marcos la Laguna 	11	San Marcos la laguna 	2	Febrero	2023-03-02T00:00:00	2024-11-08T21:00:00	6	Velocidad del viento	17.7
174814	7	Sololá	716	San Marcos la Laguna 	11	San Marcos la laguna 	2	Febrero	2023-03-02T00:00:00	2024-11-08T21:00:00	7	Dirección del viento	17.7
174815	7	Sololá	716	San Marcos la Laguna 	11	San Marcos la laguna 	2	Febrero	2023-03-02T00:00:00	2024-11-08T21:00:00	1	Precipitación	0
174816	7	Sololá	716	San Marcos la Laguna 	11	San Marcos la laguna 	2	Febrero	2023-03-02T00:00:00	2024-11-08T21:00:00	8	Radiación solar	0
174817	7	Sololá	716	San Marcos la Laguna 	11	San Marcos la laguna 	2	Febrero	2023-03-02T00:00:00	2024-11-08T22:00:00	2	Temperatura media	18.2
174818	7	Sololá	716	San Marcos la Laguna 	11	San Marcos la laguna 	2	Febrero	2023-03-02T00:00:00	2024-11-08T22:00:00	4	Temperatura máxima	18.6
174819	7	Sololá	716	San Marcos la Laguna 	11	San Marcos la laguna 	2	Febrero	2023-03-02T00:00:00	2024-11-08T22:00:00	3	Temperatura mínima	18.2
174820	7	Sololá	716	San Marcos la Laguna 	11	San Marcos la laguna 	2	Febrero	2023-03-02T00:00:00	2024-11-08T22:00:00	5	Humedad	69
174821	7	Sololá	716	San Marcos la Laguna 	11	San Marcos la laguna 	2	Febrero	2023-03-02T00:00:00	2024-11-08T22:00:00	6	Velocidad del viento	16.1
174822	7	Sololá	716	San Marcos la Laguna 	11	San Marcos la laguna 	2	Febrero	2023-03-02T00:00:00	2024-11-08T22:00:00	7	Dirección del viento	16.09
174823	7	Sololá	716	San Marcos la Laguna 	11	San Marcos la laguna 	2	Febrero	2023-03-02T00:00:00	2024-11-08T22:00:00	1	Precipitación	0
174824	7	Sololá	716	San Marcos la Laguna 	11	San Marcos la laguna 	2	Febrero	2023-03-02T00:00:00	2024-11-08T22:00:00	8	Radiación solar	0
174825	7	Sololá	716	San Marcos la Laguna 	11	San Marcos la laguna 	2	Febrero	2023-03-02T00:00:00	2024-11-08T23:00:00	2	Temperatura media	17.8
174826	7	Sololá	716	San Marcos la Laguna 	11	San Marcos la laguna 	2	Febrero	2023-03-02T00:00:00	2024-11-08T23:00:00	4	Temperatura máxima	18.2
174827	7	Sololá	716	San Marcos la Laguna 	11	San Marcos la laguna 	2	Febrero	2023-03-02T00:00:00	2024-11-08T23:00:00	3	Temperatura mínima	17.8
174828	7	Sololá	716	San Marcos la Laguna 	11	San Marcos la laguna 	2	Febrero	2023-03-02T00:00:00	2024-11-08T23:00:00	5	Humedad	71
174829	7	Sololá	716	San Marcos la Laguna 	11	San Marcos la laguna 	2	Febrero	2023-03-02T00:00:00	2024-11-08T23:00:00	6	Velocidad del viento	25.7
174830	7	Sololá	716	San Marcos la Laguna 	11	San Marcos la laguna 	2	Febrero	2023-03-02T00:00:00	2024-11-08T23:00:00	7	Dirección del viento	25.75
174831	7	Sololá	716	San Marcos la Laguna 	11	San Marcos la laguna 	2	Febrero	2023-03-02T00:00:00	2024-11-08T23:00:00	1	Precipitación	0
174832	7	Sololá	716	San Marcos la Laguna 	11	San Marcos la laguna 	2	Febrero	2023-03-02T00:00:00	2024-11-08T23:00:00	8	Radiación solar	0
174833	7	Sololá	716	San Marcos la Laguna 	11	San Marcos la laguna 	2	Febrero	2023-04-02T00:00:00	2024-11-08T00:00:00	2	Temperatura media	17.9
174834	7	Sololá	716	San Marcos la Laguna 	11	San Marcos la laguna 	2	Febrero	2023-04-02T00:00:00	2024-11-08T00:00:00	4	Temperatura máxima	17.9
174835	7	Sololá	716	San Marcos la Laguna 	11	San Marcos la laguna 	2	Febrero	2023-04-02T00:00:00	2024-11-08T00:00:00	3	Temperatura mínima	17.7
174836	7	Sololá	716	San Marcos la Laguna 	11	San Marcos la laguna 	2	Febrero	2023-04-02T00:00:00	2024-11-08T00:00:00	5	Humedad	70
174837	7	Sololá	716	San Marcos la Laguna 	11	San Marcos la laguna 	2	Febrero	2023-04-02T00:00:00	2024-11-08T00:00:00	6	Velocidad del viento	19.3
174838	7	Sololá	716	San Marcos la Laguna 	11	San Marcos la laguna 	2	Febrero	2023-04-02T00:00:00	2024-11-08T00:00:00	7	Dirección del viento	19.31
174839	7	Sololá	716	San Marcos la Laguna 	11	San Marcos la laguna 	2	Febrero	2023-04-02T00:00:00	2024-11-08T00:00:00	1	Precipitación	0
174840	7	Sololá	716	San Marcos la Laguna 	11	San Marcos la laguna 	2	Febrero	2023-04-02T00:00:00	2024-11-08T00:00:00	8	Radiación solar	0
174841	7	Sololá	716	San Marcos la Laguna 	11	San Marcos la laguna 	2	Febrero	2023-04-02T00:00:00	2024-11-08T01:00:00	2	Temperatura media	18.1
174842	7	Sololá	716	San Marcos la Laguna 	11	San Marcos la laguna 	2	Febrero	2023-04-02T00:00:00	2024-11-08T01:00:00	4	Temperatura máxima	18.6
174843	7	Sololá	716	San Marcos la Laguna 	11	San Marcos la laguna 	2	Febrero	2023-04-02T00:00:00	2024-11-08T01:00:00	3	Temperatura mínima	17.9
174844	7	Sololá	716	San Marcos la Laguna 	11	San Marcos la laguna 	2	Febrero	2023-04-02T00:00:00	2024-11-08T01:00:00	5	Humedad	69
174845	7	Sololá	716	San Marcos la Laguna 	11	San Marcos la laguna 	2	Febrero	2023-04-02T00:00:00	2024-11-08T01:00:00	6	Velocidad del viento	16.1
174846	7	Sololá	716	San Marcos la Laguna 	11	San Marcos la laguna 	2	Febrero	2023-04-02T00:00:00	2024-11-08T01:00:00	7	Dirección del viento	16.09
174847	7	Sololá	716	San Marcos la Laguna 	11	San Marcos la laguna 	2	Febrero	2023-04-02T00:00:00	2024-11-08T01:00:00	1	Precipitación	0
174848	7	Sololá	716	San Marcos la Laguna 	11	San Marcos la laguna 	2	Febrero	2023-04-02T00:00:00	2024-11-08T01:00:00	8	Radiación solar	0
174849	7	Sololá	716	San Marcos la Laguna 	11	San Marcos la laguna 	2	Febrero	2023-04-02T00:00:00	2024-11-08T02:00:00	2	Temperatura media	18
174850	7	Sololá	716	San Marcos la Laguna 	11	San Marcos la laguna 	2	Febrero	2023-04-02T00:00:00	2024-11-08T02:00:00	4	Temperatura máxima	18.2
174851	7	Sololá	716	San Marcos la Laguna 	11	San Marcos la laguna 	2	Febrero	2023-04-02T00:00:00	2024-11-08T02:00:00	3	Temperatura mínima	18
174852	7	Sololá	716	San Marcos la Laguna 	11	San Marcos la laguna 	2	Febrero	2023-04-02T00:00:00	2024-11-08T02:00:00	5	Humedad	69
174853	7	Sololá	716	San Marcos la Laguna 	11	San Marcos la laguna 	2	Febrero	2023-04-02T00:00:00	2024-11-08T02:00:00	6	Velocidad del viento	11.3
174854	7	Sololá	716	San Marcos la Laguna 	11	San Marcos la laguna 	2	Febrero	2023-04-02T00:00:00	2024-11-08T02:00:00	7	Dirección del viento	11.27
174855	7	Sololá	716	San Marcos la Laguna 	11	San Marcos la laguna 	2	Febrero	2023-04-02T00:00:00	2024-11-08T02:00:00	1	Precipitación	0
174856	7	Sololá	716	San Marcos la Laguna 	11	San Marcos la laguna 	2	Febrero	2023-04-02T00:00:00	2024-11-08T02:00:00	8	Radiación solar	0
174857	7	Sololá	716	San Marcos la Laguna 	11	San Marcos la laguna 	2	Febrero	2023-04-02T00:00:00	2024-11-08T03:00:00	2	Temperatura media	15.9
174858	7	Sololá	716	San Marcos la Laguna 	11	San Marcos la laguna 	2	Febrero	2023-04-02T00:00:00	2024-11-08T03:00:00	4	Temperatura máxima	18
174859	7	Sololá	716	San Marcos la Laguna 	11	San Marcos la laguna 	2	Febrero	2023-04-02T00:00:00	2024-11-08T03:00:00	3	Temperatura mínima	15.8
174860	7	Sololá	716	San Marcos la Laguna 	11	San Marcos la laguna 	2	Febrero	2023-04-02T00:00:00	2024-11-08T03:00:00	5	Humedad	75
174861	7	Sololá	716	San Marcos la Laguna 	11	San Marcos la laguna 	2	Febrero	2023-04-02T00:00:00	2024-11-08T03:00:00	6	Velocidad del viento	4.8
174862	7	Sololá	716	San Marcos la Laguna 	11	San Marcos la laguna 	2	Febrero	2023-04-02T00:00:00	2024-11-08T03:00:00	7	Dirección del viento	4.83
174863	7	Sololá	716	San Marcos la Laguna 	11	San Marcos la laguna 	2	Febrero	2023-04-02T00:00:00	2024-11-08T03:00:00	1	Precipitación	0
174864	7	Sololá	716	San Marcos la Laguna 	11	San Marcos la laguna 	2	Febrero	2023-04-02T00:00:00	2024-11-08T03:00:00	8	Radiación solar	0
174865	7	Sololá	716	San Marcos la Laguna 	11	San Marcos la laguna 	2	Febrero	2023-04-02T00:00:00	2024-11-08T04:00:00	2	Temperatura media	18.3
174866	7	Sololá	716	San Marcos la Laguna 	11	San Marcos la laguna 	2	Febrero	2023-04-02T00:00:00	2024-11-08T04:00:00	4	Temperatura máxima	18.3
174867	7	Sololá	716	San Marcos la Laguna 	11	San Marcos la laguna 	2	Febrero	2023-04-02T00:00:00	2024-11-08T04:00:00	3	Temperatura mínima	15.8
174868	7	Sololá	716	San Marcos la Laguna 	11	San Marcos la laguna 	2	Febrero	2023-04-02T00:00:00	2024-11-08T04:00:00	5	Humedad	67
174869	7	Sololá	716	San Marcos la Laguna 	11	San Marcos la laguna 	2	Febrero	2023-04-02T00:00:00	2024-11-08T04:00:00	6	Velocidad del viento	8
174870	7	Sololá	716	San Marcos la Laguna 	11	San Marcos la laguna 	2	Febrero	2023-04-02T00:00:00	2024-11-08T04:00:00	7	Dirección del viento	8.05
174871	7	Sololá	716	San Marcos la Laguna 	11	San Marcos la laguna 	2	Febrero	2023-04-02T00:00:00	2024-11-08T04:00:00	1	Precipitación	0
174872	7	Sololá	716	San Marcos la Laguna 	11	San Marcos la laguna 	2	Febrero	2023-04-02T00:00:00	2024-11-08T04:00:00	8	Radiación solar	0
174873	7	Sololá	716	San Marcos la Laguna 	11	San Marcos la laguna 	2	Febrero	2023-04-02T00:00:00	2024-11-08T05:00:00	2	Temperatura media	18
174874	7	Sololá	716	San Marcos la Laguna 	11	San Marcos la laguna 	2	Febrero	2023-04-02T00:00:00	2024-11-08T05:00:00	4	Temperatura máxima	18.3
174875	7	Sololá	716	San Marcos la Laguna 	11	San Marcos la laguna 	2	Febrero	2023-04-02T00:00:00	2024-11-08T05:00:00	3	Temperatura mínima	17.7
174876	7	Sololá	716	San Marcos la Laguna 	11	San Marcos la laguna 	2	Febrero	2023-04-02T00:00:00	2024-11-08T05:00:00	5	Humedad	68
174877	7	Sololá	716	San Marcos la Laguna 	11	San Marcos la laguna 	2	Febrero	2023-04-02T00:00:00	2024-11-08T05:00:00	6	Velocidad del viento	16.1
174878	7	Sololá	716	San Marcos la Laguna 	11	San Marcos la laguna 	2	Febrero	2023-04-02T00:00:00	2024-11-08T05:00:00	7	Dirección del viento	16.09
174879	7	Sololá	716	San Marcos la Laguna 	11	San Marcos la laguna 	2	Febrero	2023-04-02T00:00:00	2024-11-08T05:00:00	1	Precipitación	0
174880	7	Sololá	716	San Marcos la Laguna 	11	San Marcos la laguna 	2	Febrero	2023-04-02T00:00:00	2024-11-08T05:00:00	8	Radiación solar	0
174881	7	Sololá	716	San Marcos la Laguna 	11	San Marcos la laguna 	2	Febrero	2023-04-02T00:00:00	2024-11-08T06:00:00	2	Temperatura media	17.7
174882	7	Sololá	716	San Marcos la Laguna 	11	San Marcos la laguna 	2	Febrero	2023-04-02T00:00:00	2024-11-08T06:00:00	4	Temperatura máxima	18.1
174883	7	Sololá	716	San Marcos la Laguna 	11	San Marcos la laguna 	2	Febrero	2023-04-02T00:00:00	2024-11-08T06:00:00	3	Temperatura mínima	17.7
174884	7	Sololá	716	San Marcos la Laguna 	11	San Marcos la laguna 	2	Febrero	2023-04-02T00:00:00	2024-11-08T06:00:00	5	Humedad	72
174885	7	Sololá	716	San Marcos la Laguna 	11	San Marcos la laguna 	2	Febrero	2023-04-02T00:00:00	2024-11-08T06:00:00	6	Velocidad del viento	20.9
174886	7	Sololá	716	San Marcos la Laguna 	11	San Marcos la laguna 	2	Febrero	2023-04-02T00:00:00	2024-11-08T06:00:00	7	Dirección del viento	20.92
174887	7	Sololá	716	San Marcos la Laguna 	11	San Marcos la laguna 	2	Febrero	2023-04-02T00:00:00	2024-11-08T06:00:00	1	Precipitación	0
174888	7	Sololá	716	San Marcos la Laguna 	11	San Marcos la laguna 	2	Febrero	2023-04-02T00:00:00	2024-11-08T06:00:00	8	Radiación solar	0
174889	7	Sololá	716	San Marcos la Laguna 	11	San Marcos la laguna 	2	Febrero	2023-04-02T00:00:00	2024-11-08T07:00:00	2	Temperatura media	18
174890	7	Sololá	716	San Marcos la Laguna 	11	San Marcos la laguna 	2	Febrero	2023-04-02T00:00:00	2024-11-08T07:00:00	4	Temperatura máxima	18
174891	7	Sololá	716	San Marcos la Laguna 	11	San Marcos la laguna 	2	Febrero	2023-04-02T00:00:00	2024-11-08T07:00:00	3	Temperatura mínima	17.6
174892	7	Sololá	716	San Marcos la Laguna 	11	San Marcos la laguna 	2	Febrero	2023-04-02T00:00:00	2024-11-08T07:00:00	5	Humedad	70
174893	7	Sololá	716	San Marcos la Laguna 	11	San Marcos la laguna 	2	Febrero	2023-04-02T00:00:00	2024-11-08T07:00:00	6	Velocidad del viento	22.5
174894	7	Sololá	716	San Marcos la Laguna 	11	San Marcos la laguna 	2	Febrero	2023-04-02T00:00:00	2024-11-08T07:00:00	7	Dirección del viento	22.53
174895	7	Sololá	716	San Marcos la Laguna 	11	San Marcos la laguna 	2	Febrero	2023-04-02T00:00:00	2024-11-08T07:00:00	1	Precipitación	0
174896	7	Sololá	716	San Marcos la Laguna 	11	San Marcos la laguna 	2	Febrero	2023-04-02T00:00:00	2024-11-08T07:00:00	8	Radiación solar	7
174897	7	Sololá	716	San Marcos la Laguna 	11	San Marcos la laguna 	2	Febrero	2023-04-02T00:00:00	2024-11-08T08:00:00	2	Temperatura media	18.7
174898	7	Sololá	716	San Marcos la Laguna 	11	San Marcos la laguna 	2	Febrero	2023-04-02T00:00:00	2024-11-08T08:00:00	4	Temperatura máxima	18.7
174899	7	Sololá	716	San Marcos la Laguna 	11	San Marcos la laguna 	2	Febrero	2023-04-02T00:00:00	2024-11-08T08:00:00	3	Temperatura mínima	17.8
174900	7	Sololá	716	San Marcos la Laguna 	11	San Marcos la laguna 	2	Febrero	2023-04-02T00:00:00	2024-11-08T08:00:00	5	Humedad	62
174901	7	Sololá	716	San Marcos la Laguna 	11	San Marcos la laguna 	2	Febrero	2023-04-02T00:00:00	2024-11-08T08:00:00	6	Velocidad del viento	24.1
174902	7	Sololá	716	San Marcos la Laguna 	11	San Marcos la laguna 	2	Febrero	2023-04-02T00:00:00	2024-11-08T08:00:00	7	Dirección del viento	24.14
174903	7	Sololá	716	San Marcos la Laguna 	11	San Marcos la laguna 	2	Febrero	2023-04-02T00:00:00	2024-11-08T08:00:00	1	Precipitación	0
174904	7	Sololá	716	San Marcos la Laguna 	11	San Marcos la laguna 	2	Febrero	2023-04-02T00:00:00	2024-11-08T08:00:00	8	Radiación solar	108
174905	7	Sololá	716	San Marcos la Laguna 	11	San Marcos la laguna 	2	Febrero	2023-04-02T00:00:00	2024-11-08T09:00:00	2	Temperatura media	19.6
174906	7	Sololá	716	San Marcos la Laguna 	11	San Marcos la laguna 	2	Febrero	2023-04-02T00:00:00	2024-11-08T09:00:00	4	Temperatura máxima	19.6
174907	7	Sololá	716	San Marcos la Laguna 	11	San Marcos la laguna 	2	Febrero	2023-04-02T00:00:00	2024-11-08T09:00:00	3	Temperatura mínima	18.7
174908	7	Sololá	716	San Marcos la Laguna 	11	San Marcos la laguna 	2	Febrero	2023-04-02T00:00:00	2024-11-08T09:00:00	5	Humedad	53
174909	7	Sololá	716	San Marcos la Laguna 	11	San Marcos la laguna 	2	Febrero	2023-04-02T00:00:00	2024-11-08T09:00:00	6	Velocidad del viento	22.5
174910	7	Sololá	716	San Marcos la Laguna 	11	San Marcos la laguna 	2	Febrero	2023-04-02T00:00:00	2024-11-08T09:00:00	7	Dirección del viento	22.53
174911	7	Sololá	716	San Marcos la Laguna 	11	San Marcos la laguna 	2	Febrero	2023-04-02T00:00:00	2024-11-08T09:00:00	1	Precipitación	0
174912	7	Sololá	716	San Marcos la Laguna 	11	San Marcos la laguna 	2	Febrero	2023-04-02T00:00:00	2024-11-08T09:00:00	8	Radiación solar	353
174913	7	Sololá	716	San Marcos la Laguna 	11	San Marcos la laguna 	2	Febrero	2023-04-02T00:00:00	2024-11-08T10:00:00	2	Temperatura media	20.4
174914	7	Sololá	716	San Marcos la Laguna 	11	San Marcos la laguna 	2	Febrero	2023-04-02T00:00:00	2024-11-08T10:00:00	4	Temperatura máxima	20.4
174915	7	Sololá	716	San Marcos la Laguna 	11	San Marcos la laguna 	2	Febrero	2023-04-02T00:00:00	2024-11-08T10:00:00	3	Temperatura mínima	19.6
174916	7	Sololá	716	San Marcos la Laguna 	11	San Marcos la laguna 	2	Febrero	2023-04-02T00:00:00	2024-11-08T10:00:00	5	Humedad	50
174917	7	Sololá	716	San Marcos la Laguna 	11	San Marcos la laguna 	2	Febrero	2023-04-02T00:00:00	2024-11-08T10:00:00	6	Velocidad del viento	35.4
174918	7	Sololá	716	San Marcos la Laguna 	11	San Marcos la laguna 	2	Febrero	2023-04-02T00:00:00	2024-11-08T10:00:00	7	Dirección del viento	35.41
174919	7	Sololá	716	San Marcos la Laguna 	11	San Marcos la laguna 	2	Febrero	2023-04-02T00:00:00	2024-11-08T10:00:00	1	Precipitación	0
174920	7	Sololá	716	San Marcos la Laguna 	11	San Marcos la laguna 	2	Febrero	2023-04-02T00:00:00	2024-11-08T10:00:00	8	Radiación solar	540
174921	7	Sololá	716	San Marcos la Laguna 	11	San Marcos la laguna 	2	Febrero	2023-04-02T00:00:00	2024-11-08T11:00:00	2	Temperatura media	21
174922	7	Sololá	716	San Marcos la Laguna 	11	San Marcos la laguna 	2	Febrero	2023-04-02T00:00:00	2024-11-08T11:00:00	4	Temperatura máxima	21.1
174923	7	Sololá	716	San Marcos la Laguna 	11	San Marcos la laguna 	2	Febrero	2023-04-02T00:00:00	2024-11-08T11:00:00	3	Temperatura mínima	20.3
174924	7	Sololá	716	San Marcos la Laguna 	11	San Marcos la laguna 	2	Febrero	2023-04-02T00:00:00	2024-11-08T11:00:00	5	Humedad	52
174925	7	Sololá	716	San Marcos la Laguna 	11	San Marcos la laguna 	2	Febrero	2023-04-02T00:00:00	2024-11-08T11:00:00	6	Velocidad del viento	32.2
174926	7	Sololá	716	San Marcos la Laguna 	11	San Marcos la laguna 	2	Febrero	2023-04-02T00:00:00	2024-11-08T11:00:00	7	Dirección del viento	32.19
174927	7	Sololá	716	San Marcos la Laguna 	11	San Marcos la laguna 	2	Febrero	2023-04-02T00:00:00	2024-11-08T11:00:00	1	Precipitación	0
174928	7	Sololá	716	San Marcos la Laguna 	11	San Marcos la laguna 	2	Febrero	2023-04-02T00:00:00	2024-11-08T11:00:00	8	Radiación solar	654
174929	7	Sololá	716	San Marcos la Laguna 	11	San Marcos la laguna 	2	Febrero	2023-04-02T00:00:00	2024-11-08T12:00:00	2	Temperatura media	21.4
174930	7	Sololá	716	San Marcos la Laguna 	11	San Marcos la laguna 	2	Febrero	2023-04-02T00:00:00	2024-11-08T12:00:00	4	Temperatura máxima	21.6
174931	7	Sololá	716	San Marcos la Laguna 	11	San Marcos la laguna 	2	Febrero	2023-04-02T00:00:00	2024-11-08T12:00:00	3	Temperatura mínima	20.9
174932	7	Sololá	716	San Marcos la Laguna 	11	San Marcos la laguna 	2	Febrero	2023-04-02T00:00:00	2024-11-08T12:00:00	5	Humedad	51
174933	7	Sololá	716	San Marcos la Laguna 	11	San Marcos la laguna 	2	Febrero	2023-04-02T00:00:00	2024-11-08T12:00:00	6	Velocidad del viento	20.9
174934	7	Sololá	716	San Marcos la Laguna 	11	San Marcos la laguna 	2	Febrero	2023-04-02T00:00:00	2024-11-08T12:00:00	7	Dirección del viento	20.92
174935	7	Sololá	716	San Marcos la Laguna 	11	San Marcos la laguna 	2	Febrero	2023-04-02T00:00:00	2024-11-08T12:00:00	1	Precipitación	0
174936	7	Sololá	716	San Marcos la Laguna 	11	San Marcos la laguna 	2	Febrero	2023-04-02T00:00:00	2024-11-08T12:00:00	8	Radiación solar	560
174937	7	Sololá	716	San Marcos la Laguna 	11	San Marcos la laguna 	2	Febrero	2023-04-02T00:00:00	2024-11-08T13:00:00	2	Temperatura media	21.7
174938	7	Sololá	716	San Marcos la Laguna 	11	San Marcos la laguna 	2	Febrero	2023-04-02T00:00:00	2024-11-08T13:00:00	4	Temperatura máxima	21.8
174939	7	Sololá	716	San Marcos la Laguna 	11	San Marcos la laguna 	2	Febrero	2023-04-02T00:00:00	2024-11-08T13:00:00	3	Temperatura mínima	21.1
174940	7	Sololá	716	San Marcos la Laguna 	11	San Marcos la laguna 	2	Febrero	2023-04-02T00:00:00	2024-11-08T13:00:00	5	Humedad	57
174941	7	Sololá	716	San Marcos la Laguna 	11	San Marcos la laguna 	2	Febrero	2023-04-02T00:00:00	2024-11-08T13:00:00	6	Velocidad del viento	19.3
174942	7	Sololá	716	San Marcos la Laguna 	11	San Marcos la laguna 	2	Febrero	2023-04-02T00:00:00	2024-11-08T13:00:00	7	Dirección del viento	19.31
174943	7	Sololá	716	San Marcos la Laguna 	11	San Marcos la laguna 	2	Febrero	2023-04-02T00:00:00	2024-11-08T13:00:00	1	Precipitación	0
174944	7	Sololá	716	San Marcos la Laguna 	11	San Marcos la laguna 	2	Febrero	2023-04-02T00:00:00	2024-11-08T13:00:00	8	Radiación solar	645
174945	7	Sololá	716	San Marcos la Laguna 	11	San Marcos la laguna 	2	Febrero	2023-04-02T00:00:00	2024-11-08T14:00:00	2	Temperatura media	22.3
174946	7	Sololá	716	San Marcos la Laguna 	11	San Marcos la laguna 	2	Febrero	2023-04-02T00:00:00	2024-11-08T14:00:00	4	Temperatura máxima	22.6
174947	7	Sololá	716	San Marcos la Laguna 	11	San Marcos la laguna 	2	Febrero	2023-04-02T00:00:00	2024-11-08T14:00:00	3	Temperatura mínima	21.6
174948	7	Sololá	716	San Marcos la Laguna 	11	San Marcos la laguna 	2	Febrero	2023-04-02T00:00:00	2024-11-08T14:00:00	5	Humedad	56
174949	7	Sololá	716	San Marcos la Laguna 	11	San Marcos la laguna 	2	Febrero	2023-04-02T00:00:00	2024-11-08T14:00:00	6	Velocidad del viento	19.3
174950	7	Sololá	716	San Marcos la Laguna 	11	San Marcos la laguna 	2	Febrero	2023-04-02T00:00:00	2024-11-08T14:00:00	7	Dirección del viento	19.31
174951	7	Sololá	716	San Marcos la Laguna 	11	San Marcos la laguna 	2	Febrero	2023-04-02T00:00:00	2024-11-08T14:00:00	1	Precipitación	0
174952	7	Sololá	716	San Marcos la Laguna 	11	San Marcos la laguna 	2	Febrero	2023-04-02T00:00:00	2024-11-08T14:00:00	8	Radiación solar	720
174953	7	Sololá	716	San Marcos la Laguna 	11	San Marcos la laguna 	2	Febrero	2023-04-02T00:00:00	2024-11-08T15:00:00	2	Temperatura media	22.8
174954	7	Sololá	716	San Marcos la Laguna 	11	San Marcos la laguna 	2	Febrero	2023-04-02T00:00:00	2024-11-08T15:00:00	4	Temperatura máxima	23.2
174955	7	Sololá	716	San Marcos la Laguna 	11	San Marcos la laguna 	2	Febrero	2023-04-02T00:00:00	2024-11-08T15:00:00	3	Temperatura mínima	22.3
174956	7	Sololá	716	San Marcos la Laguna 	11	San Marcos la laguna 	2	Febrero	2023-04-02T00:00:00	2024-11-08T15:00:00	5	Humedad	49
174957	7	Sololá	716	San Marcos la Laguna 	11	San Marcos la laguna 	2	Febrero	2023-04-02T00:00:00	2024-11-08T15:00:00	6	Velocidad del viento	22.5
174958	7	Sololá	716	San Marcos la Laguna 	11	San Marcos la laguna 	2	Febrero	2023-04-02T00:00:00	2024-11-08T15:00:00	7	Dirección del viento	22.53
174959	7	Sololá	716	San Marcos la Laguna 	11	San Marcos la laguna 	2	Febrero	2023-04-02T00:00:00	2024-11-08T15:00:00	1	Precipitación	0
174960	7	Sololá	716	San Marcos la Laguna 	11	San Marcos la laguna 	2	Febrero	2023-04-02T00:00:00	2024-11-08T15:00:00	8	Radiación solar	666
174961	7	Sololá	716	San Marcos la Laguna 	11	San Marcos la laguna 	2	Febrero	2023-04-02T00:00:00	2024-11-08T16:00:00	2	Temperatura media	22.7
174962	7	Sololá	716	San Marcos la Laguna 	11	San Marcos la laguna 	2	Febrero	2023-04-02T00:00:00	2024-11-08T16:00:00	4	Temperatura máxima	23.1
174963	7	Sololá	716	San Marcos la Laguna 	11	San Marcos la laguna 	2	Febrero	2023-04-02T00:00:00	2024-11-08T16:00:00	3	Temperatura mínima	22.4
174964	7	Sololá	716	San Marcos la Laguna 	11	San Marcos la laguna 	2	Febrero	2023-04-02T00:00:00	2024-11-08T16:00:00	5	Humedad	50
174965	7	Sololá	716	San Marcos la Laguna 	11	San Marcos la laguna 	2	Febrero	2023-04-02T00:00:00	2024-11-08T16:00:00	6	Velocidad del viento	25.7
174966	7	Sololá	716	San Marcos la Laguna 	11	San Marcos la laguna 	2	Febrero	2023-04-02T00:00:00	2024-11-08T16:00:00	7	Dirección del viento	25.75
174967	7	Sololá	716	San Marcos la Laguna 	11	San Marcos la laguna 	2	Febrero	2023-04-02T00:00:00	2024-11-08T16:00:00	1	Precipitación	0
174968	7	Sololá	716	San Marcos la Laguna 	11	San Marcos la laguna 	2	Febrero	2023-04-02T00:00:00	2024-11-08T16:00:00	8	Radiación solar	496
174969	7	Sololá	716	San Marcos la Laguna 	11	San Marcos la laguna 	2	Febrero	2023-04-02T00:00:00	2024-11-08T17:00:00	2	Temperatura media	22.1
174970	7	Sololá	716	San Marcos la Laguna 	11	San Marcos la laguna 	2	Febrero	2023-04-02T00:00:00	2024-11-08T17:00:00	4	Temperatura máxima	22.8
174971	7	Sololá	716	San Marcos la Laguna 	11	San Marcos la laguna 	2	Febrero	2023-04-02T00:00:00	2024-11-08T17:00:00	3	Temperatura mínima	22.1
174972	7	Sololá	716	San Marcos la Laguna 	11	San Marcos la laguna 	2	Febrero	2023-04-02T00:00:00	2024-11-08T17:00:00	5	Humedad	55
174973	7	Sololá	716	San Marcos la Laguna 	11	San Marcos la laguna 	2	Febrero	2023-04-02T00:00:00	2024-11-08T17:00:00	6	Velocidad del viento	27.4
174974	7	Sololá	716	San Marcos la Laguna 	11	San Marcos la laguna 	2	Febrero	2023-04-02T00:00:00	2024-11-08T17:00:00	7	Dirección del viento	27.36
174975	7	Sololá	716	San Marcos la Laguna 	11	San Marcos la laguna 	2	Febrero	2023-04-02T00:00:00	2024-11-08T17:00:00	1	Precipitación	0
174976	7	Sololá	716	San Marcos la Laguna 	11	San Marcos la laguna 	2	Febrero	2023-04-02T00:00:00	2024-11-08T17:00:00	8	Radiación solar	292
174977	7	Sololá	716	San Marcos la Laguna 	11	San Marcos la laguna 	2	Febrero	2023-04-02T00:00:00	2024-11-08T18:00:00	2	Temperatura media	20.9
174978	7	Sololá	716	San Marcos la Laguna 	11	San Marcos la laguna 	2	Febrero	2023-04-02T00:00:00	2024-11-08T18:00:00	4	Temperatura máxima	22
174979	7	Sololá	716	San Marcos la Laguna 	11	San Marcos la laguna 	2	Febrero	2023-04-02T00:00:00	2024-11-08T18:00:00	3	Temperatura mínima	20.9
174980	7	Sololá	716	San Marcos la Laguna 	11	San Marcos la laguna 	2	Febrero	2023-04-02T00:00:00	2024-11-08T18:00:00	5	Humedad	56
174981	7	Sololá	716	San Marcos la Laguna 	11	San Marcos la laguna 	2	Febrero	2023-04-02T00:00:00	2024-11-08T18:00:00	6	Velocidad del viento	20.9
174982	7	Sololá	716	San Marcos la Laguna 	11	San Marcos la laguna 	2	Febrero	2023-04-02T00:00:00	2024-11-08T18:00:00	7	Dirección del viento	20.92
174983	7	Sololá	716	San Marcos la Laguna 	11	San Marcos la laguna 	2	Febrero	2023-04-02T00:00:00	2024-11-08T18:00:00	1	Precipitación	0
174984	7	Sololá	716	San Marcos la Laguna 	11	San Marcos la laguna 	2	Febrero	2023-04-02T00:00:00	2024-11-08T18:00:00	8	Radiación solar	52
174985	7	Sololá	716	San Marcos la Laguna 	11	San Marcos la laguna 	2	Febrero	2023-04-02T00:00:00	2024-11-08T19:00:00	2	Temperatura media	20.1
174986	7	Sololá	716	San Marcos la Laguna 	11	San Marcos la laguna 	2	Febrero	2023-04-02T00:00:00	2024-11-08T19:00:00	4	Temperatura máxima	20.9
174987	7	Sololá	716	San Marcos la Laguna 	11	San Marcos la laguna 	2	Febrero	2023-04-02T00:00:00	2024-11-08T19:00:00	3	Temperatura mínima	19.9
174988	7	Sololá	716	San Marcos la Laguna 	11	San Marcos la laguna 	2	Febrero	2023-04-02T00:00:00	2024-11-08T19:00:00	5	Humedad	62
174989	7	Sololá	716	San Marcos la Laguna 	11	San Marcos la laguna 	2	Febrero	2023-04-02T00:00:00	2024-11-08T19:00:00	6	Velocidad del viento	14.5
174990	7	Sololá	716	San Marcos la Laguna 	11	San Marcos la laguna 	2	Febrero	2023-04-02T00:00:00	2024-11-08T19:00:00	7	Dirección del viento	14.48
174991	7	Sololá	716	San Marcos la Laguna 	11	San Marcos la laguna 	2	Febrero	2023-04-02T00:00:00	2024-11-08T19:00:00	1	Precipitación	0
174992	7	Sololá	716	San Marcos la Laguna 	11	San Marcos la laguna 	2	Febrero	2023-04-02T00:00:00	2024-11-08T19:00:00	8	Radiación solar	0
174993	7	Sololá	716	San Marcos la Laguna 	11	San Marcos la laguna 	2	Febrero	2023-04-02T00:00:00	2024-11-08T20:00:00	2	Temperatura media	19.8
174994	7	Sololá	716	San Marcos la Laguna 	11	San Marcos la laguna 	2	Febrero	2023-04-02T00:00:00	2024-11-08T20:00:00	4	Temperatura máxima	20.1
174995	7	Sololá	716	San Marcos la Laguna 	11	San Marcos la laguna 	2	Febrero	2023-04-02T00:00:00	2024-11-08T20:00:00	3	Temperatura mínima	19.6
174996	7	Sololá	716	San Marcos la Laguna 	11	San Marcos la laguna 	2	Febrero	2023-04-02T00:00:00	2024-11-08T20:00:00	5	Humedad	58
174997	7	Sololá	716	San Marcos la Laguna 	11	San Marcos la laguna 	2	Febrero	2023-04-02T00:00:00	2024-11-08T20:00:00	6	Velocidad del viento	12.9
174998	7	Sololá	716	San Marcos la Laguna 	11	San Marcos la laguna 	2	Febrero	2023-04-02T00:00:00	2024-11-08T20:00:00	7	Dirección del viento	12.87
174999	7	Sololá	716	San Marcos la Laguna 	11	San Marcos la laguna 	2	Febrero	2023-04-02T00:00:00	2024-11-08T20:00:00	1	Precipitación	0
175000	7	Sololá	716	San Marcos la Laguna 	11	San Marcos la laguna 	2	Febrero	2023-04-02T00:00:00	2024-11-08T20:00:00	8	Radiación solar	0
175001	7	Sololá	716	San Marcos la Laguna 	11	San Marcos la laguna 	2	Febrero	2023-04-02T00:00:00	2024-11-08T21:00:00	2	Temperatura media	19.6
175002	7	Sololá	716	San Marcos la Laguna 	11	San Marcos la laguna 	2	Febrero	2023-04-02T00:00:00	2024-11-08T21:00:00	4	Temperatura máxima	20
175003	7	Sololá	716	San Marcos la Laguna 	11	San Marcos la laguna 	2	Febrero	2023-04-02T00:00:00	2024-11-08T21:00:00	3	Temperatura mínima	19.4
175004	7	Sololá	716	San Marcos la Laguna 	11	San Marcos la laguna 	2	Febrero	2023-04-02T00:00:00	2024-11-08T21:00:00	5	Humedad	58
175005	7	Sololá	716	San Marcos la Laguna 	11	San Marcos la laguna 	2	Febrero	2023-04-02T00:00:00	2024-11-08T21:00:00	6	Velocidad del viento	9.7
175006	7	Sololá	716	San Marcos la Laguna 	11	San Marcos la laguna 	2	Febrero	2023-04-02T00:00:00	2024-11-08T21:00:00	7	Dirección del viento	9.66
175007	7	Sololá	716	San Marcos la Laguna 	11	San Marcos la laguna 	2	Febrero	2023-04-02T00:00:00	2024-11-08T21:00:00	1	Precipitación	0
175008	7	Sololá	716	San Marcos la Laguna 	11	San Marcos la laguna 	2	Febrero	2023-04-02T00:00:00	2024-11-08T21:00:00	8	Radiación solar	0
175009	7	Sololá	716	San Marcos la Laguna 	11	San Marcos la laguna 	2	Febrero	2023-04-02T00:00:00	2024-11-08T22:00:00	2	Temperatura media	19.7
175010	7	Sololá	716	San Marcos la Laguna 	11	San Marcos la laguna 	2	Febrero	2023-04-02T00:00:00	2024-11-08T22:00:00	4	Temperatura máxima	19.9
175011	7	Sololá	716	San Marcos la Laguna 	11	San Marcos la laguna 	2	Febrero	2023-04-02T00:00:00	2024-11-08T22:00:00	3	Temperatura mínima	19.6
175012	7	Sololá	716	San Marcos la Laguna 	11	San Marcos la laguna 	2	Febrero	2023-04-02T00:00:00	2024-11-08T22:00:00	5	Humedad	52
175013	7	Sololá	716	San Marcos la Laguna 	11	San Marcos la laguna 	2	Febrero	2023-04-02T00:00:00	2024-11-08T22:00:00	6	Velocidad del viento	8
175014	7	Sololá	716	San Marcos la Laguna 	11	San Marcos la laguna 	2	Febrero	2023-04-02T00:00:00	2024-11-08T22:00:00	7	Dirección del viento	8.05
175015	7	Sololá	716	San Marcos la Laguna 	11	San Marcos la laguna 	2	Febrero	2023-04-02T00:00:00	2024-11-08T22:00:00	1	Precipitación	0
175016	7	Sololá	716	San Marcos la Laguna 	11	San Marcos la laguna 	2	Febrero	2023-04-02T00:00:00	2024-11-08T22:00:00	8	Radiación solar	0
175017	7	Sololá	716	San Marcos la Laguna 	11	San Marcos la laguna 	2	Febrero	2023-04-02T00:00:00	2024-11-08T23:00:00	2	Temperatura media	19.7
175018	7	Sololá	716	San Marcos la Laguna 	11	San Marcos la laguna 	2	Febrero	2023-04-02T00:00:00	2024-11-08T23:00:00	4	Temperatura máxima	20.1
175019	7	Sololá	716	San Marcos la Laguna 	11	San Marcos la laguna 	2	Febrero	2023-04-02T00:00:00	2024-11-08T23:00:00	3	Temperatura mínima	19.7
175020	7	Sololá	716	San Marcos la Laguna 	11	San Marcos la laguna 	2	Febrero	2023-04-02T00:00:00	2024-11-08T23:00:00	5	Humedad	54
175021	7	Sololá	716	San Marcos la Laguna 	11	San Marcos la laguna 	2	Febrero	2023-04-02T00:00:00	2024-11-08T23:00:00	6	Velocidad del viento	16.1
175022	7	Sololá	716	San Marcos la Laguna 	11	San Marcos la laguna 	2	Febrero	2023-04-02T00:00:00	2024-11-08T23:00:00	7	Dirección del viento	16.09
175023	7	Sololá	716	San Marcos la Laguna 	11	San Marcos la laguna 	2	Febrero	2023-04-02T00:00:00	2024-11-08T23:00:00	1	Precipitación	0
175024	7	Sololá	716	San Marcos la Laguna 	11	San Marcos la laguna 	2	Febrero	2023-04-02T00:00:00	2024-11-08T23:00:00	8	Radiación solar	0
175025	7	Sololá	716	San Marcos la Laguna 	11	San Marcos la laguna 	2	Febrero	2023-05-02T00:00:00	2024-11-08T00:00:00	2	Temperatura media	19.1
175026	7	Sololá	716	San Marcos la Laguna 	11	San Marcos la laguna 	2	Febrero	2023-05-02T00:00:00	2024-11-08T00:00:00	4	Temperatura máxima	19.8
175027	7	Sololá	716	San Marcos la Laguna 	11	San Marcos la laguna 	2	Febrero	2023-05-02T00:00:00	2024-11-08T00:00:00	3	Temperatura mínima	19.1
175028	7	Sololá	716	San Marcos la Laguna 	11	San Marcos la laguna 	2	Febrero	2023-05-02T00:00:00	2024-11-08T00:00:00	5	Humedad	66
175029	7	Sololá	716	San Marcos la Laguna 	11	San Marcos la laguna 	2	Febrero	2023-05-02T00:00:00	2024-11-08T00:00:00	6	Velocidad del viento	19.3
175030	7	Sololá	716	San Marcos la Laguna 	11	San Marcos la laguna 	2	Febrero	2023-05-02T00:00:00	2024-11-08T00:00:00	7	Dirección del viento	19.31
175031	7	Sololá	716	San Marcos la Laguna 	11	San Marcos la laguna 	2	Febrero	2023-05-02T00:00:00	2024-11-08T00:00:00	1	Precipitación	0
175032	7	Sololá	716	San Marcos la Laguna 	11	San Marcos la laguna 	2	Febrero	2023-05-02T00:00:00	2024-11-08T00:00:00	8	Radiación solar	0
175033	7	Sololá	716	San Marcos la Laguna 	11	San Marcos la laguna 	2	Febrero	2023-05-02T00:00:00	2024-11-08T01:00:00	2	Temperatura media	17.7
175034	7	Sololá	716	San Marcos la Laguna 	11	San Marcos la laguna 	2	Febrero	2023-05-02T00:00:00	2024-11-08T01:00:00	4	Temperatura máxima	19.3
175035	7	Sololá	716	San Marcos la Laguna 	11	San Marcos la laguna 	2	Febrero	2023-05-02T00:00:00	2024-11-08T01:00:00	3	Temperatura mínima	17.1
175036	7	Sololá	716	San Marcos la Laguna 	11	San Marcos la laguna 	2	Febrero	2023-05-02T00:00:00	2024-11-08T01:00:00	5	Humedad	66
175037	7	Sololá	716	San Marcos la Laguna 	11	San Marcos la laguna 	2	Febrero	2023-05-02T00:00:00	2024-11-08T01:00:00	6	Velocidad del viento	8
175038	7	Sololá	716	San Marcos la Laguna 	11	San Marcos la laguna 	2	Febrero	2023-05-02T00:00:00	2024-11-08T01:00:00	7	Dirección del viento	8.05
175039	7	Sololá	716	San Marcos la Laguna 	11	San Marcos la laguna 	2	Febrero	2023-05-02T00:00:00	2024-11-08T01:00:00	1	Precipitación	0
175040	7	Sololá	716	San Marcos la Laguna 	11	San Marcos la laguna 	2	Febrero	2023-05-02T00:00:00	2024-11-08T01:00:00	8	Radiación solar	0
175041	7	Sololá	716	San Marcos la Laguna 	11	San Marcos la laguna 	2	Febrero	2023-05-02T00:00:00	2024-11-08T02:00:00	2	Temperatura media	16.1
175042	7	Sololá	716	San Marcos la Laguna 	11	San Marcos la laguna 	2	Febrero	2023-05-02T00:00:00	2024-11-08T02:00:00	4	Temperatura máxima	17.7
175043	7	Sololá	716	San Marcos la Laguna 	11	San Marcos la laguna 	2	Febrero	2023-05-02T00:00:00	2024-11-08T02:00:00	3	Temperatura mínima	16.1
175044	7	Sololá	716	San Marcos la Laguna 	11	San Marcos la laguna 	2	Febrero	2023-05-02T00:00:00	2024-11-08T02:00:00	5	Humedad	67
175045	7	Sololá	716	San Marcos la Laguna 	11	San Marcos la laguna 	2	Febrero	2023-05-02T00:00:00	2024-11-08T02:00:00	6	Velocidad del viento	6.4
175046	7	Sololá	716	San Marcos la Laguna 	11	San Marcos la laguna 	2	Febrero	2023-05-02T00:00:00	2024-11-08T02:00:00	7	Dirección del viento	6.44
175047	7	Sololá	716	San Marcos la Laguna 	11	San Marcos la laguna 	2	Febrero	2023-05-02T00:00:00	2024-11-08T02:00:00	1	Precipitación	0
175048	7	Sololá	716	San Marcos la Laguna 	11	San Marcos la laguna 	2	Febrero	2023-05-02T00:00:00	2024-11-08T02:00:00	8	Radiación solar	0
175049	7	Sololá	716	San Marcos la Laguna 	11	San Marcos la laguna 	2	Febrero	2023-05-02T00:00:00	2024-11-08T03:00:00	2	Temperatura media	16.4
175050	7	Sololá	716	San Marcos la Laguna 	11	San Marcos la laguna 	2	Febrero	2023-05-02T00:00:00	2024-11-08T03:00:00	4	Temperatura máxima	16.4
175051	7	Sololá	716	San Marcos la Laguna 	11	San Marcos la laguna 	2	Febrero	2023-05-02T00:00:00	2024-11-08T03:00:00	3	Temperatura mínima	15.6
175052	7	Sololá	716	San Marcos la Laguna 	11	San Marcos la laguna 	2	Febrero	2023-05-02T00:00:00	2024-11-08T03:00:00	5	Humedad	67
175053	7	Sololá	716	San Marcos la Laguna 	11	San Marcos la laguna 	2	Febrero	2023-05-02T00:00:00	2024-11-08T03:00:00	6	Velocidad del viento	6.4
175054	7	Sololá	716	San Marcos la Laguna 	11	San Marcos la laguna 	2	Febrero	2023-05-02T00:00:00	2024-11-08T03:00:00	7	Dirección del viento	6.44
175055	7	Sololá	716	San Marcos la Laguna 	11	San Marcos la laguna 	2	Febrero	2023-05-02T00:00:00	2024-11-08T03:00:00	1	Precipitación	0
175056	7	Sololá	716	San Marcos la Laguna 	11	San Marcos la laguna 	2	Febrero	2023-05-02T00:00:00	2024-11-08T03:00:00	8	Radiación solar	0
175057	7	Sololá	716	San Marcos la Laguna 	11	San Marcos la laguna 	2	Febrero	2023-05-02T00:00:00	2024-11-08T04:00:00	2	Temperatura media	15.3
175058	7	Sololá	716	San Marcos la Laguna 	11	San Marcos la laguna 	2	Febrero	2023-05-02T00:00:00	2024-11-08T04:00:00	4	Temperatura máxima	16.5
175059	7	Sololá	716	San Marcos la Laguna 	11	San Marcos la laguna 	2	Febrero	2023-05-02T00:00:00	2024-11-08T04:00:00	3	Temperatura mínima	14.7
175060	7	Sololá	716	San Marcos la Laguna 	11	San Marcos la laguna 	2	Febrero	2023-05-02T00:00:00	2024-11-08T04:00:00	5	Humedad	74
175061	7	Sololá	716	San Marcos la Laguna 	11	San Marcos la laguna 	2	Febrero	2023-05-02T00:00:00	2024-11-08T04:00:00	6	Velocidad del viento	6.4
175062	7	Sololá	716	San Marcos la Laguna 	11	San Marcos la laguna 	2	Febrero	2023-05-02T00:00:00	2024-11-08T04:00:00	7	Dirección del viento	6.44
175063	7	Sololá	716	San Marcos la Laguna 	11	San Marcos la laguna 	2	Febrero	2023-05-02T00:00:00	2024-11-08T04:00:00	1	Precipitación	0
175064	7	Sololá	716	San Marcos la Laguna 	11	San Marcos la laguna 	2	Febrero	2023-05-02T00:00:00	2024-11-08T04:00:00	8	Radiación solar	0
175065	7	Sololá	716	San Marcos la Laguna 	11	San Marcos la laguna 	2	Febrero	2023-05-02T00:00:00	2024-11-08T05:00:00	2	Temperatura media	14.7
175066	7	Sololá	716	San Marcos la Laguna 	11	San Marcos la laguna 	2	Febrero	2023-05-02T00:00:00	2024-11-08T05:00:00	4	Temperatura máxima	15.2
175067	7	Sololá	716	San Marcos la Laguna 	11	San Marcos la laguna 	2	Febrero	2023-05-02T00:00:00	2024-11-08T05:00:00	3	Temperatura mínima	14.6
175068	7	Sololá	716	San Marcos la Laguna 	11	San Marcos la laguna 	2	Febrero	2023-05-02T00:00:00	2024-11-08T05:00:00	5	Humedad	78
175069	7	Sololá	716	San Marcos la Laguna 	11	San Marcos la laguna 	2	Febrero	2023-05-02T00:00:00	2024-11-08T05:00:00	6	Velocidad del viento	9.7
175070	7	Sololá	716	San Marcos la Laguna 	11	San Marcos la laguna 	2	Febrero	2023-05-02T00:00:00	2024-11-08T05:00:00	7	Dirección del viento	9.66
175071	7	Sololá	716	San Marcos la Laguna 	11	San Marcos la laguna 	2	Febrero	2023-05-02T00:00:00	2024-11-08T05:00:00	1	Precipitación	0
175072	7	Sololá	716	San Marcos la Laguna 	11	San Marcos la laguna 	2	Febrero	2023-05-02T00:00:00	2024-11-08T05:00:00	8	Radiación solar	0
175073	7	Sololá	716	San Marcos la Laguna 	11	San Marcos la laguna 	2	Febrero	2023-05-02T00:00:00	2024-11-08T06:00:00	2	Temperatura media	15.2
175074	7	Sololá	716	San Marcos la Laguna 	11	San Marcos la laguna 	2	Febrero	2023-05-02T00:00:00	2024-11-08T06:00:00	4	Temperatura máxima	15.9
175075	7	Sololá	716	San Marcos la Laguna 	11	San Marcos la laguna 	2	Febrero	2023-05-02T00:00:00	2024-11-08T06:00:00	3	Temperatura mínima	14.7
175076	7	Sololá	716	San Marcos la Laguna 	11	San Marcos la laguna 	2	Febrero	2023-05-02T00:00:00	2024-11-08T06:00:00	5	Humedad	76
175077	7	Sololá	716	San Marcos la Laguna 	11	San Marcos la laguna 	2	Febrero	2023-05-02T00:00:00	2024-11-08T06:00:00	6	Velocidad del viento	8
175078	7	Sololá	716	San Marcos la Laguna 	11	San Marcos la laguna 	2	Febrero	2023-05-02T00:00:00	2024-11-08T06:00:00	7	Dirección del viento	8.05
175079	7	Sololá	716	San Marcos la Laguna 	11	San Marcos la laguna 	2	Febrero	2023-05-02T00:00:00	2024-11-08T06:00:00	1	Precipitación	0
175080	7	Sololá	716	San Marcos la Laguna 	11	San Marcos la laguna 	2	Febrero	2023-05-02T00:00:00	2024-11-08T06:00:00	8	Radiación solar	0
175081	7	Sololá	716	San Marcos la Laguna 	11	San Marcos la laguna 	2	Febrero	2023-05-02T00:00:00	2024-11-08T07:00:00	2	Temperatura media	15.2
175082	7	Sololá	716	San Marcos la Laguna 	11	San Marcos la laguna 	2	Febrero	2023-05-02T00:00:00	2024-11-08T07:00:00	4	Temperatura máxima	15.2
175083	7	Sololá	716	San Marcos la Laguna 	11	San Marcos la laguna 	2	Febrero	2023-05-02T00:00:00	2024-11-08T07:00:00	3	Temperatura mínima	14.3
175084	7	Sololá	716	San Marcos la Laguna 	11	San Marcos la laguna 	2	Febrero	2023-05-02T00:00:00	2024-11-08T07:00:00	5	Humedad	77
175085	7	Sololá	716	San Marcos la Laguna 	11	San Marcos la laguna 	2	Febrero	2023-05-02T00:00:00	2024-11-08T07:00:00	6	Velocidad del viento	6.4
175086	7	Sololá	716	San Marcos la Laguna 	11	San Marcos la laguna 	2	Febrero	2023-05-02T00:00:00	2024-11-08T07:00:00	7	Dirección del viento	6.44
175087	7	Sololá	716	San Marcos la Laguna 	11	San Marcos la laguna 	2	Febrero	2023-05-02T00:00:00	2024-11-08T07:00:00	1	Precipitación	0
175088	7	Sololá	716	San Marcos la Laguna 	11	San Marcos la laguna 	2	Febrero	2023-05-02T00:00:00	2024-11-08T07:00:00	8	Radiación solar	4
175089	7	Sololá	716	San Marcos la Laguna 	11	San Marcos la laguna 	2	Febrero	2023-05-02T00:00:00	2024-11-08T08:00:00	2	Temperatura media	18.1
175090	7	Sololá	716	San Marcos la Laguna 	11	San Marcos la laguna 	2	Febrero	2023-05-02T00:00:00	2024-11-08T08:00:00	4	Temperatura máxima	18.1
175091	7	Sololá	716	San Marcos la Laguna 	11	San Marcos la laguna 	2	Febrero	2023-05-02T00:00:00	2024-11-08T08:00:00	3	Temperatura mínima	15.1
175092	7	Sololá	716	San Marcos la Laguna 	11	San Marcos la laguna 	2	Febrero	2023-05-02T00:00:00	2024-11-08T08:00:00	5	Humedad	70
175093	7	Sololá	716	San Marcos la Laguna 	11	San Marcos la laguna 	2	Febrero	2023-05-02T00:00:00	2024-11-08T08:00:00	6	Velocidad del viento	3.2
175094	7	Sololá	716	San Marcos la Laguna 	11	San Marcos la laguna 	2	Febrero	2023-05-02T00:00:00	2024-11-08T08:00:00	7	Dirección del viento	3.22
175095	7	Sololá	716	San Marcos la Laguna 	11	San Marcos la laguna 	2	Febrero	2023-05-02T00:00:00	2024-11-08T08:00:00	1	Precipitación	0
175096	7	Sololá	716	San Marcos la Laguna 	11	San Marcos la laguna 	2	Febrero	2023-05-02T00:00:00	2024-11-08T08:00:00	8	Radiación solar	130
175097	7	Sololá	716	San Marcos la Laguna 	11	San Marcos la laguna 	2	Febrero	2023-05-02T00:00:00	2024-11-08T09:00:00	2	Temperatura media	21.1
175098	7	Sololá	716	San Marcos la Laguna 	11	San Marcos la laguna 	2	Febrero	2023-05-02T00:00:00	2024-11-08T09:00:00	4	Temperatura máxima	21.2
175099	7	Sololá	716	San Marcos la Laguna 	11	San Marcos la laguna 	2	Febrero	2023-05-02T00:00:00	2024-11-08T09:00:00	3	Temperatura mínima	18.2
175100	7	Sololá	716	San Marcos la Laguna 	11	San Marcos la laguna 	2	Febrero	2023-05-02T00:00:00	2024-11-08T09:00:00	5	Humedad	58
175101	7	Sololá	716	San Marcos la Laguna 	11	San Marcos la laguna 	2	Febrero	2023-05-02T00:00:00	2024-11-08T09:00:00	6	Velocidad del viento	1.6
175102	7	Sololá	716	San Marcos la Laguna 	11	San Marcos la laguna 	2	Febrero	2023-05-02T00:00:00	2024-11-08T09:00:00	7	Dirección del viento	1.61
175103	7	Sololá	716	San Marcos la Laguna 	11	San Marcos la laguna 	2	Febrero	2023-05-02T00:00:00	2024-11-08T09:00:00	1	Precipitación	0
175104	7	Sololá	716	San Marcos la Laguna 	11	San Marcos la laguna 	2	Febrero	2023-05-02T00:00:00	2024-11-08T09:00:00	8	Radiación solar	361
175105	7	Sololá	716	San Marcos la Laguna 	11	San Marcos la laguna 	2	Febrero	2023-05-02T00:00:00	2024-11-08T10:00:00	2	Temperatura media	21.9
175106	7	Sololá	716	San Marcos la Laguna 	11	San Marcos la laguna 	2	Febrero	2023-05-02T00:00:00	2024-11-08T10:00:00	4	Temperatura máxima	21.9
175107	7	Sololá	716	San Marcos la Laguna 	11	San Marcos la laguna 	2	Febrero	2023-05-02T00:00:00	2024-11-08T10:00:00	3	Temperatura mínima	21
175108	7	Sololá	716	San Marcos la Laguna 	11	San Marcos la laguna 	2	Febrero	2023-05-02T00:00:00	2024-11-08T10:00:00	5	Humedad	55
175109	7	Sololá	716	San Marcos la Laguna 	11	San Marcos la laguna 	2	Febrero	2023-05-02T00:00:00	2024-11-08T10:00:00	6	Velocidad del viento	3.2
175110	7	Sololá	716	San Marcos la Laguna 	11	San Marcos la laguna 	2	Febrero	2023-05-02T00:00:00	2024-11-08T10:00:00	7	Dirección del viento	3.22
175111	7	Sololá	716	San Marcos la Laguna 	11	San Marcos la laguna 	2	Febrero	2023-05-02T00:00:00	2024-11-08T10:00:00	1	Precipitación	0
175112	7	Sololá	716	San Marcos la Laguna 	11	San Marcos la laguna 	2	Febrero	2023-05-02T00:00:00	2024-11-08T10:00:00	8	Radiación solar	551
175113	7	Sololá	716	San Marcos la Laguna 	11	San Marcos la laguna 	2	Febrero	2023-05-02T00:00:00	2024-11-08T11:00:00	2	Temperatura media	22.3
175114	7	Sololá	716	San Marcos la Laguna 	11	San Marcos la laguna 	2	Febrero	2023-05-02T00:00:00	2024-11-08T11:00:00	4	Temperatura máxima	22.9
175115	7	Sololá	716	San Marcos la Laguna 	11	San Marcos la laguna 	2	Febrero	2023-05-02T00:00:00	2024-11-08T11:00:00	3	Temperatura mínima	21.8
175116	7	Sololá	716	San Marcos la Laguna 	11	San Marcos la laguna 	2	Febrero	2023-05-02T00:00:00	2024-11-08T11:00:00	5	Humedad	48
175117	7	Sololá	716	San Marcos la Laguna 	11	San Marcos la laguna 	2	Febrero	2023-05-02T00:00:00	2024-11-08T11:00:00	6	Velocidad del viento	8
175118	7	Sololá	716	San Marcos la Laguna 	11	San Marcos la laguna 	2	Febrero	2023-05-02T00:00:00	2024-11-08T11:00:00	7	Dirección del viento	8.05
175119	7	Sololá	716	San Marcos la Laguna 	11	San Marcos la laguna 	2	Febrero	2023-05-02T00:00:00	2024-11-08T11:00:00	1	Precipitación	0
175120	7	Sololá	716	San Marcos la Laguna 	11	San Marcos la laguna 	2	Febrero	2023-05-02T00:00:00	2024-11-08T11:00:00	8	Radiación solar	656
175121	7	Sololá	716	San Marcos la Laguna 	11	San Marcos la laguna 	2	Febrero	2023-05-02T00:00:00	2024-11-08T12:00:00	2	Temperatura media	23.1
175122	7	Sololá	716	San Marcos la Laguna 	11	San Marcos la laguna 	2	Febrero	2023-05-02T00:00:00	2024-11-08T12:00:00	4	Temperatura máxima	23.2
175123	7	Sololá	716	San Marcos la Laguna 	11	San Marcos la laguna 	2	Febrero	2023-05-02T00:00:00	2024-11-08T12:00:00	3	Temperatura mínima	22.1
175124	7	Sololá	716	San Marcos la Laguna 	11	San Marcos la laguna 	2	Febrero	2023-05-02T00:00:00	2024-11-08T12:00:00	5	Humedad	39
175125	7	Sololá	716	San Marcos la Laguna 	11	San Marcos la laguna 	2	Febrero	2023-05-02T00:00:00	2024-11-08T12:00:00	6	Velocidad del viento	24.1
175126	7	Sololá	716	San Marcos la Laguna 	11	San Marcos la laguna 	2	Febrero	2023-05-02T00:00:00	2024-11-08T12:00:00	7	Dirección del viento	24.14
175127	7	Sololá	716	San Marcos la Laguna 	11	San Marcos la laguna 	2	Febrero	2023-05-02T00:00:00	2024-11-08T12:00:00	1	Precipitación	0
175128	7	Sololá	716	San Marcos la Laguna 	11	San Marcos la laguna 	2	Febrero	2023-05-02T00:00:00	2024-11-08T12:00:00	8	Radiación solar	720
175129	7	Sololá	716	San Marcos la Laguna 	11	San Marcos la laguna 	2	Febrero	2023-05-02T00:00:00	2024-11-08T13:00:00	2	Temperatura media	23.7
175130	7	Sololá	716	San Marcos la Laguna 	11	San Marcos la laguna 	2	Febrero	2023-05-02T00:00:00	2024-11-08T13:00:00	4	Temperatura máxima	23.8
175131	7	Sololá	716	San Marcos la Laguna 	11	San Marcos la laguna 	2	Febrero	2023-05-02T00:00:00	2024-11-08T13:00:00	3	Temperatura mínima	22.9
175132	7	Sololá	716	San Marcos la Laguna 	11	San Marcos la laguna 	2	Febrero	2023-05-02T00:00:00	2024-11-08T13:00:00	5	Humedad	43
175133	7	Sololá	716	San Marcos la Laguna 	11	San Marcos la laguna 	2	Febrero	2023-05-02T00:00:00	2024-11-08T13:00:00	6	Velocidad del viento	22.5
175134	7	Sololá	716	San Marcos la Laguna 	11	San Marcos la laguna 	2	Febrero	2023-05-02T00:00:00	2024-11-08T13:00:00	7	Dirección del viento	22.53
175135	7	Sololá	716	San Marcos la Laguna 	11	San Marcos la laguna 	2	Febrero	2023-05-02T00:00:00	2024-11-08T13:00:00	1	Precipitación	0
175136	7	Sololá	716	San Marcos la Laguna 	11	San Marcos la laguna 	2	Febrero	2023-05-02T00:00:00	2024-11-08T13:00:00	8	Radiación solar	821
175137	7	Sololá	716	San Marcos la Laguna 	11	San Marcos la laguna 	2	Febrero	2023-05-02T00:00:00	2024-11-08T14:00:00	2	Temperatura media	23.4
175138	7	Sololá	716	San Marcos la Laguna 	11	San Marcos la laguna 	2	Febrero	2023-05-02T00:00:00	2024-11-08T14:00:00	4	Temperatura máxima	23.8
175139	7	Sololá	716	San Marcos la Laguna 	11	San Marcos la laguna 	2	Febrero	2023-05-02T00:00:00	2024-11-08T14:00:00	3	Temperatura mínima	23.1
175140	7	Sololá	716	San Marcos la Laguna 	11	San Marcos la laguna 	2	Febrero	2023-05-02T00:00:00	2024-11-08T14:00:00	5	Humedad	61
175141	7	Sololá	716	San Marcos la Laguna 	11	San Marcos la laguna 	2	Febrero	2023-05-02T00:00:00	2024-11-08T14:00:00	6	Velocidad del viento	8
175142	7	Sololá	716	San Marcos la Laguna 	11	San Marcos la laguna 	2	Febrero	2023-05-02T00:00:00	2024-11-08T14:00:00	7	Dirección del viento	8.05
175143	7	Sololá	716	San Marcos la Laguna 	11	San Marcos la laguna 	2	Febrero	2023-05-02T00:00:00	2024-11-08T14:00:00	1	Precipitación	0
175144	7	Sololá	716	San Marcos la Laguna 	11	San Marcos la laguna 	2	Febrero	2023-05-02T00:00:00	2024-11-08T14:00:00	8	Radiación solar	765
175145	7	Sololá	716	San Marcos la Laguna 	11	San Marcos la laguna 	2	Febrero	2023-05-02T00:00:00	2024-11-08T15:00:00	2	Temperatura media	23
175146	7	Sololá	716	San Marcos la Laguna 	11	San Marcos la laguna 	2	Febrero	2023-05-02T00:00:00	2024-11-08T15:00:00	4	Temperatura máxima	23.7
175147	7	Sololá	716	San Marcos la Laguna 	11	San Marcos la laguna 	2	Febrero	2023-05-02T00:00:00	2024-11-08T15:00:00	3	Temperatura mínima	22.9
175148	7	Sololá	716	San Marcos la Laguna 	11	San Marcos la laguna 	2	Febrero	2023-05-02T00:00:00	2024-11-08T15:00:00	5	Humedad	60
175149	7	Sololá	716	San Marcos la Laguna 	11	San Marcos la laguna 	2	Febrero	2023-05-02T00:00:00	2024-11-08T15:00:00	6	Velocidad del viento	8
175150	7	Sololá	716	San Marcos la Laguna 	11	San Marcos la laguna 	2	Febrero	2023-05-02T00:00:00	2024-11-08T15:00:00	7	Dirección del viento	8.05
175151	7	Sololá	716	San Marcos la Laguna 	11	San Marcos la laguna 	2	Febrero	2023-05-02T00:00:00	2024-11-08T15:00:00	1	Precipitación	0
175152	7	Sololá	716	San Marcos la Laguna 	11	San Marcos la laguna 	2	Febrero	2023-05-02T00:00:00	2024-11-08T15:00:00	8	Radiación solar	665
175153	7	Sololá	716	San Marcos la Laguna 	11	San Marcos la laguna 	2	Febrero	2023-05-02T00:00:00	2024-11-08T16:00:00	2	Temperatura media	22.3
175154	7	Sololá	716	San Marcos la Laguna 	11	San Marcos la laguna 	2	Febrero	2023-05-02T00:00:00	2024-11-08T16:00:00	4	Temperatura máxima	23
175155	7	Sololá	716	San Marcos la Laguna 	11	San Marcos la laguna 	2	Febrero	2023-05-02T00:00:00	2024-11-08T16:00:00	3	Temperatura mínima	22.3
175156	7	Sololá	716	San Marcos la Laguna 	11	San Marcos la laguna 	2	Febrero	2023-05-02T00:00:00	2024-11-08T16:00:00	5	Humedad	64
175157	7	Sololá	716	San Marcos la Laguna 	11	San Marcos la laguna 	2	Febrero	2023-05-02T00:00:00	2024-11-08T16:00:00	6	Velocidad del viento	9.7
175158	7	Sololá	716	San Marcos la Laguna 	11	San Marcos la laguna 	2	Febrero	2023-05-02T00:00:00	2024-11-08T16:00:00	7	Dirección del viento	9.66
175159	7	Sololá	716	San Marcos la Laguna 	11	San Marcos la laguna 	2	Febrero	2023-05-02T00:00:00	2024-11-08T16:00:00	1	Precipitación	0
175160	7	Sololá	716	San Marcos la Laguna 	11	San Marcos la laguna 	2	Febrero	2023-05-02T00:00:00	2024-11-08T16:00:00	8	Radiación solar	494
175161	7	Sololá	716	San Marcos la Laguna 	11	San Marcos la laguna 	2	Febrero	2023-05-02T00:00:00	2024-11-08T17:00:00	2	Temperatura media	23.1
175162	7	Sololá	716	San Marcos la Laguna 	11	San Marcos la laguna 	2	Febrero	2023-05-02T00:00:00	2024-11-08T17:00:00	4	Temperatura máxima	23.3
175163	7	Sololá	716	San Marcos la Laguna 	11	San Marcos la laguna 	2	Febrero	2023-05-02T00:00:00	2024-11-08T17:00:00	3	Temperatura mínima	22.3
175164	7	Sololá	716	San Marcos la Laguna 	11	San Marcos la laguna 	2	Febrero	2023-05-02T00:00:00	2024-11-08T17:00:00	5	Humedad	42
175165	7	Sololá	716	San Marcos la Laguna 	11	San Marcos la laguna 	2	Febrero	2023-05-02T00:00:00	2024-11-08T17:00:00	6	Velocidad del viento	11.3
175166	7	Sololá	716	San Marcos la Laguna 	11	San Marcos la laguna 	2	Febrero	2023-05-02T00:00:00	2024-11-08T17:00:00	7	Dirección del viento	11.27
175167	7	Sololá	716	San Marcos la Laguna 	11	San Marcos la laguna 	2	Febrero	2023-05-02T00:00:00	2024-11-08T17:00:00	1	Precipitación	0
175168	7	Sololá	716	San Marcos la Laguna 	11	San Marcos la laguna 	2	Febrero	2023-05-02T00:00:00	2024-11-08T17:00:00	8	Radiación solar	288
175169	7	Sololá	716	San Marcos la Laguna 	11	San Marcos la laguna 	2	Febrero	2023-05-02T00:00:00	2024-11-08T18:00:00	2	Temperatura media	21.3
175170	7	Sololá	716	San Marcos la Laguna 	11	San Marcos la laguna 	2	Febrero	2023-05-02T00:00:00	2024-11-08T18:00:00	4	Temperatura máxima	23.1
175171	7	Sololá	716	San Marcos la Laguna 	11	San Marcos la laguna 	2	Febrero	2023-05-02T00:00:00	2024-11-08T18:00:00	3	Temperatura mínima	21.3
175172	7	Sololá	716	San Marcos la Laguna 	11	San Marcos la laguna 	2	Febrero	2023-05-02T00:00:00	2024-11-08T18:00:00	5	Humedad	51
175173	7	Sololá	716	San Marcos la Laguna 	11	San Marcos la laguna 	2	Febrero	2023-05-02T00:00:00	2024-11-08T18:00:00	6	Velocidad del viento	12.9
175174	7	Sololá	716	San Marcos la Laguna 	11	San Marcos la laguna 	2	Febrero	2023-05-02T00:00:00	2024-11-08T18:00:00	7	Dirección del viento	12.87
175175	7	Sololá	716	San Marcos la Laguna 	11	San Marcos la laguna 	2	Febrero	2023-05-02T00:00:00	2024-11-08T18:00:00	1	Precipitación	0
175176	7	Sololá	716	San Marcos la Laguna 	11	San Marcos la laguna 	2	Febrero	2023-05-02T00:00:00	2024-11-08T18:00:00	8	Radiación solar	62
175177	7	Sololá	716	San Marcos la Laguna 	11	San Marcos la laguna 	2	Febrero	2023-05-02T00:00:00	2024-11-08T19:00:00	2	Temperatura media	19.9
175178	7	Sololá	716	San Marcos la Laguna 	11	San Marcos la laguna 	2	Febrero	2023-05-02T00:00:00	2024-11-08T19:00:00	4	Temperatura máxima	21.3
175179	7	Sololá	716	San Marcos la Laguna 	11	San Marcos la laguna 	2	Febrero	2023-05-02T00:00:00	2024-11-08T19:00:00	3	Temperatura mínima	19.9
175180	7	Sololá	716	San Marcos la Laguna 	11	San Marcos la laguna 	2	Febrero	2023-05-02T00:00:00	2024-11-08T19:00:00	5	Humedad	57
175181	7	Sololá	716	San Marcos la Laguna 	11	San Marcos la laguna 	2	Febrero	2023-05-02T00:00:00	2024-11-08T19:00:00	6	Velocidad del viento	8
175182	7	Sololá	716	San Marcos la Laguna 	11	San Marcos la laguna 	2	Febrero	2023-05-02T00:00:00	2024-11-08T19:00:00	7	Dirección del viento	8.05
175183	7	Sololá	716	San Marcos la Laguna 	11	San Marcos la laguna 	2	Febrero	2023-05-02T00:00:00	2024-11-08T19:00:00	1	Precipitación	0
175184	7	Sololá	716	San Marcos la Laguna 	11	San Marcos la laguna 	2	Febrero	2023-05-02T00:00:00	2024-11-08T19:00:00	8	Radiación solar	0
175185	7	Sololá	716	San Marcos la Laguna 	11	San Marcos la laguna 	2	Febrero	2023-05-02T00:00:00	2024-11-08T20:00:00	2	Temperatura media	18.7
175186	7	Sololá	716	San Marcos la Laguna 	11	San Marcos la laguna 	2	Febrero	2023-05-02T00:00:00	2024-11-08T20:00:00	4	Temperatura máxima	19.9
175187	7	Sololá	716	San Marcos la Laguna 	11	San Marcos la laguna 	2	Febrero	2023-05-02T00:00:00	2024-11-08T20:00:00	3	Temperatura mínima	18.7
175188	7	Sololá	716	San Marcos la Laguna 	11	San Marcos la laguna 	2	Febrero	2023-05-02T00:00:00	2024-11-08T20:00:00	5	Humedad	57
175189	7	Sololá	716	San Marcos la Laguna 	11	San Marcos la laguna 	2	Febrero	2023-05-02T00:00:00	2024-11-08T20:00:00	6	Velocidad del viento	6.4
175190	7	Sololá	716	San Marcos la Laguna 	11	San Marcos la laguna 	2	Febrero	2023-05-02T00:00:00	2024-11-08T20:00:00	7	Dirección del viento	6.44
175191	7	Sololá	716	San Marcos la Laguna 	11	San Marcos la laguna 	2	Febrero	2023-05-02T00:00:00	2024-11-08T20:00:00	1	Precipitación	0
175192	7	Sololá	716	San Marcos la Laguna 	11	San Marcos la laguna 	2	Febrero	2023-05-02T00:00:00	2024-11-08T20:00:00	8	Radiación solar	0
175193	7	Sololá	716	San Marcos la Laguna 	11	San Marcos la laguna 	2	Febrero	2023-05-02T00:00:00	2024-11-08T21:00:00	2	Temperatura media	18.1
175194	7	Sololá	716	San Marcos la Laguna 	11	San Marcos la laguna 	2	Febrero	2023-05-02T00:00:00	2024-11-08T21:00:00	4	Temperatura máxima	19.1
175195	7	Sololá	716	San Marcos la Laguna 	11	San Marcos la laguna 	2	Febrero	2023-05-02T00:00:00	2024-11-08T21:00:00	3	Temperatura mínima	17.7
175196	7	Sololá	716	San Marcos la Laguna 	11	San Marcos la laguna 	2	Febrero	2023-05-02T00:00:00	2024-11-08T21:00:00	5	Humedad	57
175197	7	Sololá	716	San Marcos la Laguna 	11	San Marcos la laguna 	2	Febrero	2023-05-02T00:00:00	2024-11-08T21:00:00	6	Velocidad del viento	4.8
175198	7	Sololá	716	San Marcos la Laguna 	11	San Marcos la laguna 	2	Febrero	2023-05-02T00:00:00	2024-11-08T21:00:00	7	Dirección del viento	4.83
175199	7	Sololá	716	San Marcos la Laguna 	11	San Marcos la laguna 	2	Febrero	2023-05-02T00:00:00	2024-11-08T21:00:00	1	Precipitación	0
175200	7	Sololá	716	San Marcos la Laguna 	11	San Marcos la laguna 	2	Febrero	2023-05-02T00:00:00	2024-11-08T21:00:00	8	Radiación solar	0
175201	7	Sololá	716	San Marcos la Laguna 	11	San Marcos la laguna 	2	Febrero	2023-05-02T00:00:00	2024-11-08T22:00:00	2	Temperatura media	15.7
175202	7	Sololá	716	San Marcos la Laguna 	11	San Marcos la laguna 	2	Febrero	2023-05-02T00:00:00	2024-11-08T22:00:00	4	Temperatura máxima	18.3
175203	7	Sololá	716	San Marcos la Laguna 	11	San Marcos la laguna 	2	Febrero	2023-05-02T00:00:00	2024-11-08T22:00:00	3	Temperatura mínima	15.7
175204	7	Sololá	716	San Marcos la Laguna 	11	San Marcos la laguna 	2	Febrero	2023-05-02T00:00:00	2024-11-08T22:00:00	5	Humedad	63
175205	7	Sololá	716	San Marcos la Laguna 	11	San Marcos la laguna 	2	Febrero	2023-05-02T00:00:00	2024-11-08T22:00:00	6	Velocidad del viento	4.8
175206	7	Sololá	716	San Marcos la Laguna 	11	San Marcos la laguna 	2	Febrero	2023-05-02T00:00:00	2024-11-08T22:00:00	7	Dirección del viento	4.83
175207	7	Sololá	716	San Marcos la Laguna 	11	San Marcos la laguna 	2	Febrero	2023-05-02T00:00:00	2024-11-08T22:00:00	1	Precipitación	0
175208	7	Sololá	716	San Marcos la Laguna 	11	San Marcos la laguna 	2	Febrero	2023-05-02T00:00:00	2024-11-08T22:00:00	8	Radiación solar	0
175209	7	Sololá	716	San Marcos la Laguna 	11	San Marcos la laguna 	2	Febrero	2023-05-02T00:00:00	2024-11-08T23:00:00	2	Temperatura media	15.1
175210	7	Sololá	716	San Marcos la Laguna 	11	San Marcos la laguna 	2	Febrero	2023-05-02T00:00:00	2024-11-08T23:00:00	4	Temperatura máxima	16.7
175211	7	Sololá	716	San Marcos la Laguna 	11	San Marcos la laguna 	2	Febrero	2023-05-02T00:00:00	2024-11-08T23:00:00	3	Temperatura mínima	15.1
175212	7	Sololá	716	San Marcos la Laguna 	11	San Marcos la laguna 	2	Febrero	2023-05-02T00:00:00	2024-11-08T23:00:00	5	Humedad	64
175213	7	Sololá	716	San Marcos la Laguna 	11	San Marcos la laguna 	2	Febrero	2023-05-02T00:00:00	2024-11-08T23:00:00	6	Velocidad del viento	4.8
175214	7	Sololá	716	San Marcos la Laguna 	11	San Marcos la laguna 	2	Febrero	2023-05-02T00:00:00	2024-11-08T23:00:00	7	Dirección del viento	4.83
175215	7	Sololá	716	San Marcos la Laguna 	11	San Marcos la laguna 	2	Febrero	2023-05-02T00:00:00	2024-11-08T23:00:00	1	Precipitación	0
175216	7	Sololá	716	San Marcos la Laguna 	11	San Marcos la laguna 	2	Febrero	2023-05-02T00:00:00	2024-11-08T23:00:00	8	Radiación solar	0
175217	7	Sololá	716	San Marcos la Laguna 	11	San Marcos la laguna 	2	Febrero	2023-06-02T00:00:00	2024-11-08T00:00:00	2	Temperatura media	14.7
175218	7	Sololá	716	San Marcos la Laguna 	11	San Marcos la laguna 	2	Febrero	2023-06-02T00:00:00	2024-11-08T00:00:00	4	Temperatura máxima	15.3
175219	7	Sololá	716	San Marcos la Laguna 	11	San Marcos la laguna 	2	Febrero	2023-06-02T00:00:00	2024-11-08T00:00:00	3	Temperatura mínima	14.6
175220	7	Sololá	716	San Marcos la Laguna 	11	San Marcos la laguna 	2	Febrero	2023-06-02T00:00:00	2024-11-08T00:00:00	5	Humedad	64
175221	7	Sololá	716	San Marcos la Laguna 	11	San Marcos la laguna 	2	Febrero	2023-06-02T00:00:00	2024-11-08T00:00:00	6	Velocidad del viento	6.4
175222	7	Sololá	716	San Marcos la Laguna 	11	San Marcos la laguna 	2	Febrero	2023-06-02T00:00:00	2024-11-08T00:00:00	7	Dirección del viento	6.44
175223	7	Sololá	716	San Marcos la Laguna 	11	San Marcos la laguna 	2	Febrero	2023-06-02T00:00:00	2024-11-08T00:00:00	1	Precipitación	0
175224	7	Sololá	716	San Marcos la Laguna 	11	San Marcos la laguna 	2	Febrero	2023-06-02T00:00:00	2024-11-08T00:00:00	8	Radiación solar	0
175225	7	Sololá	716	San Marcos la Laguna 	11	San Marcos la laguna 	2	Febrero	2023-06-02T00:00:00	2024-11-08T01:00:00	2	Temperatura media	14.9
175226	7	Sololá	716	San Marcos la Laguna 	11	San Marcos la laguna 	2	Febrero	2023-06-02T00:00:00	2024-11-08T01:00:00	4	Temperatura máxima	14.9
175227	7	Sololá	716	San Marcos la Laguna 	11	San Marcos la laguna 	2	Febrero	2023-06-02T00:00:00	2024-11-08T01:00:00	3	Temperatura mínima	14.4
175228	7	Sololá	716	San Marcos la Laguna 	11	San Marcos la laguna 	2	Febrero	2023-06-02T00:00:00	2024-11-08T01:00:00	5	Humedad	64
175229	7	Sololá	716	San Marcos la Laguna 	11	San Marcos la laguna 	2	Febrero	2023-06-02T00:00:00	2024-11-08T01:00:00	6	Velocidad del viento	6.4
175230	7	Sololá	716	San Marcos la Laguna 	11	San Marcos la laguna 	2	Febrero	2023-06-02T00:00:00	2024-11-08T01:00:00	7	Dirección del viento	6.44
175231	7	Sololá	716	San Marcos la Laguna 	11	San Marcos la laguna 	2	Febrero	2023-06-02T00:00:00	2024-11-08T01:00:00	1	Precipitación	0
175232	7	Sololá	716	San Marcos la Laguna 	11	San Marcos la laguna 	2	Febrero	2023-06-02T00:00:00	2024-11-08T01:00:00	8	Radiación solar	0
175233	7	Sololá	716	San Marcos la Laguna 	11	San Marcos la laguna 	2	Febrero	2023-06-02T00:00:00	2024-11-08T02:00:00	2	Temperatura media	14.4
175234	7	Sololá	716	San Marcos la Laguna 	11	San Marcos la laguna 	2	Febrero	2023-06-02T00:00:00	2024-11-08T02:00:00	4	Temperatura máxima	15.1
175235	7	Sololá	716	San Marcos la Laguna 	11	San Marcos la laguna 	2	Febrero	2023-06-02T00:00:00	2024-11-08T02:00:00	3	Temperatura mínima	14.3
175236	7	Sololá	716	San Marcos la Laguna 	11	San Marcos la laguna 	2	Febrero	2023-06-02T00:00:00	2024-11-08T02:00:00	5	Humedad	66
175237	7	Sololá	716	San Marcos la Laguna 	11	San Marcos la laguna 	2	Febrero	2023-06-02T00:00:00	2024-11-08T02:00:00	6	Velocidad del viento	6.4
175238	7	Sololá	716	San Marcos la Laguna 	11	San Marcos la laguna 	2	Febrero	2023-06-02T00:00:00	2024-11-08T02:00:00	7	Dirección del viento	6.44
175239	7	Sololá	716	San Marcos la Laguna 	11	San Marcos la laguna 	2	Febrero	2023-06-02T00:00:00	2024-11-08T02:00:00	1	Precipitación	0
175240	7	Sololá	716	San Marcos la Laguna 	11	San Marcos la laguna 	2	Febrero	2023-06-02T00:00:00	2024-11-08T02:00:00	8	Radiación solar	0
175241	7	Sololá	716	San Marcos la Laguna 	11	San Marcos la laguna 	2	Febrero	2023-06-02T00:00:00	2024-11-08T03:00:00	2	Temperatura media	14.8
175242	7	Sololá	716	San Marcos la Laguna 	11	San Marcos la laguna 	2	Febrero	2023-06-02T00:00:00	2024-11-08T03:00:00	4	Temperatura máxima	15
175243	7	Sololá	716	San Marcos la Laguna 	11	San Marcos la laguna 	2	Febrero	2023-06-02T00:00:00	2024-11-08T03:00:00	3	Temperatura mínima	14.3
175244	7	Sololá	716	San Marcos la Laguna 	11	San Marcos la laguna 	2	Febrero	2023-06-02T00:00:00	2024-11-08T03:00:00	5	Humedad	64
175245	7	Sololá	716	San Marcos la Laguna 	11	San Marcos la laguna 	2	Febrero	2023-06-02T00:00:00	2024-11-08T03:00:00	6	Velocidad del viento	6.4
175246	7	Sololá	716	San Marcos la Laguna 	11	San Marcos la laguna 	2	Febrero	2023-06-02T00:00:00	2024-11-08T03:00:00	7	Dirección del viento	6.44
175247	7	Sololá	716	San Marcos la Laguna 	11	San Marcos la laguna 	2	Febrero	2023-06-02T00:00:00	2024-11-08T03:00:00	1	Precipitación	0
175248	7	Sololá	716	San Marcos la Laguna 	11	San Marcos la laguna 	2	Febrero	2023-06-02T00:00:00	2024-11-08T03:00:00	8	Radiación solar	0
175249	7	Sololá	716	San Marcos la Laguna 	11	San Marcos la laguna 	2	Febrero	2023-06-02T00:00:00	2024-11-08T04:00:00	2	Temperatura media	13.7
175250	7	Sololá	716	San Marcos la Laguna 	11	San Marcos la laguna 	2	Febrero	2023-06-02T00:00:00	2024-11-08T04:00:00	4	Temperatura máxima	14.8
175251	7	Sololá	716	San Marcos la Laguna 	11	San Marcos la laguna 	2	Febrero	2023-06-02T00:00:00	2024-11-08T04:00:00	3	Temperatura mínima	13.7
175252	7	Sololá	716	San Marcos la Laguna 	11	San Marcos la laguna 	2	Febrero	2023-06-02T00:00:00	2024-11-08T04:00:00	5	Humedad	69
175253	7	Sololá	716	San Marcos la Laguna 	11	San Marcos la laguna 	2	Febrero	2023-06-02T00:00:00	2024-11-08T04:00:00	6	Velocidad del viento	6.4
175254	7	Sololá	716	San Marcos la Laguna 	11	San Marcos la laguna 	2	Febrero	2023-06-02T00:00:00	2024-11-08T04:00:00	7	Dirección del viento	6.44
175255	7	Sololá	716	San Marcos la Laguna 	11	San Marcos la laguna 	2	Febrero	2023-06-02T00:00:00	2024-11-08T04:00:00	1	Precipitación	0
175256	7	Sololá	716	San Marcos la Laguna 	11	San Marcos la laguna 	2	Febrero	2023-06-02T00:00:00	2024-11-08T04:00:00	8	Radiación solar	0
175257	7	Sololá	716	San Marcos la Laguna 	11	San Marcos la laguna 	2	Febrero	2023-06-02T00:00:00	2024-11-08T05:00:00	2	Temperatura media	14.4
175258	7	Sololá	716	San Marcos la Laguna 	11	San Marcos la laguna 	2	Febrero	2023-06-02T00:00:00	2024-11-08T05:00:00	4	Temperatura máxima	14.7
175259	7	Sololá	716	San Marcos la Laguna 	11	San Marcos la laguna 	2	Febrero	2023-06-02T00:00:00	2024-11-08T05:00:00	3	Temperatura mínima	13.2
175260	7	Sololá	716	San Marcos la Laguna 	11	San Marcos la laguna 	2	Febrero	2023-06-02T00:00:00	2024-11-08T05:00:00	5	Humedad	66
175261	7	Sololá	716	San Marcos la Laguna 	11	San Marcos la laguna 	2	Febrero	2023-06-02T00:00:00	2024-11-08T05:00:00	6	Velocidad del viento	8
175262	7	Sololá	716	San Marcos la Laguna 	11	San Marcos la laguna 	2	Febrero	2023-06-02T00:00:00	2024-11-08T05:00:00	7	Dirección del viento	8.05
175263	7	Sololá	716	San Marcos la Laguna 	11	San Marcos la laguna 	2	Febrero	2023-06-02T00:00:00	2024-11-08T05:00:00	1	Precipitación	0
175264	7	Sololá	716	San Marcos la Laguna 	11	San Marcos la laguna 	2	Febrero	2023-06-02T00:00:00	2024-11-08T05:00:00	8	Radiación solar	0
175265	7	Sololá	716	San Marcos la Laguna 	11	San Marcos la laguna 	2	Febrero	2023-06-02T00:00:00	2024-11-08T06:00:00	2	Temperatura media	13.2
175266	7	Sololá	716	San Marcos la Laguna 	11	San Marcos la laguna 	2	Febrero	2023-06-02T00:00:00	2024-11-08T06:00:00	4	Temperatura máxima	14.6
175267	7	Sololá	716	San Marcos la Laguna 	11	San Marcos la laguna 	2	Febrero	2023-06-02T00:00:00	2024-11-08T06:00:00	3	Temperatura mínima	13.2
175268	7	Sololá	716	San Marcos la Laguna 	11	San Marcos la laguna 	2	Febrero	2023-06-02T00:00:00	2024-11-08T06:00:00	5	Humedad	70
175269	7	Sololá	716	San Marcos la Laguna 	11	San Marcos la laguna 	2	Febrero	2023-06-02T00:00:00	2024-11-08T06:00:00	6	Velocidad del viento	8
175270	7	Sololá	716	San Marcos la Laguna 	11	San Marcos la laguna 	2	Febrero	2023-06-02T00:00:00	2024-11-08T06:00:00	7	Dirección del viento	8.05
175271	7	Sololá	716	San Marcos la Laguna 	11	San Marcos la laguna 	2	Febrero	2023-06-02T00:00:00	2024-11-08T06:00:00	1	Precipitación	0
175272	7	Sololá	716	San Marcos la Laguna 	11	San Marcos la laguna 	2	Febrero	2023-06-02T00:00:00	2024-11-08T06:00:00	8	Radiación solar	0
175273	7	Sololá	716	San Marcos la Laguna 	11	San Marcos la laguna 	2	Febrero	2023-06-02T00:00:00	2024-11-08T07:00:00	2	Temperatura media	14.5
175274	7	Sololá	716	San Marcos la Laguna 	11	San Marcos la laguna 	2	Febrero	2023-06-02T00:00:00	2024-11-08T07:00:00	4	Temperatura máxima	14.5
175275	7	Sololá	716	San Marcos la Laguna 	11	San Marcos la laguna 	2	Febrero	2023-06-02T00:00:00	2024-11-08T07:00:00	3	Temperatura mínima	13.3
175276	7	Sololá	716	San Marcos la Laguna 	11	San Marcos la laguna 	2	Febrero	2023-06-02T00:00:00	2024-11-08T07:00:00	5	Humedad	66
175277	7	Sololá	716	San Marcos la Laguna 	11	San Marcos la laguna 	2	Febrero	2023-06-02T00:00:00	2024-11-08T07:00:00	6	Velocidad del viento	6.4
175278	7	Sololá	716	San Marcos la Laguna 	11	San Marcos la laguna 	2	Febrero	2023-06-02T00:00:00	2024-11-08T07:00:00	7	Dirección del viento	6.44
175279	7	Sololá	716	San Marcos la Laguna 	11	San Marcos la laguna 	2	Febrero	2023-06-02T00:00:00	2024-11-08T07:00:00	1	Precipitación	0
175280	7	Sololá	716	San Marcos la Laguna 	11	San Marcos la laguna 	2	Febrero	2023-06-02T00:00:00	2024-11-08T07:00:00	8	Radiación solar	4
175281	7	Sololá	716	San Marcos la Laguna 	11	San Marcos la laguna 	2	Febrero	2023-06-02T00:00:00	2024-11-08T08:00:00	2	Temperatura media	16.6
175282	7	Sololá	716	San Marcos la Laguna 	11	San Marcos la laguna 	2	Febrero	2023-06-02T00:00:00	2024-11-08T08:00:00	4	Temperatura máxima	16.6
175283	7	Sololá	716	San Marcos la Laguna 	11	San Marcos la laguna 	2	Febrero	2023-06-02T00:00:00	2024-11-08T08:00:00	3	Temperatura mínima	14.2
175284	7	Sololá	716	San Marcos la Laguna 	11	San Marcos la laguna 	2	Febrero	2023-06-02T00:00:00	2024-11-08T08:00:00	5	Humedad	58
175285	7	Sololá	716	San Marcos la Laguna 	11	San Marcos la laguna 	2	Febrero	2023-06-02T00:00:00	2024-11-08T08:00:00	6	Velocidad del viento	4.8
175286	7	Sololá	716	San Marcos la Laguna 	11	San Marcos la laguna 	2	Febrero	2023-06-02T00:00:00	2024-11-08T08:00:00	7	Dirección del viento	4.83
175287	7	Sololá	716	San Marcos la Laguna 	11	San Marcos la laguna 	2	Febrero	2023-06-02T00:00:00	2024-11-08T08:00:00	1	Precipitación	0
175288	7	Sololá	716	San Marcos la Laguna 	11	San Marcos la laguna 	2	Febrero	2023-06-02T00:00:00	2024-11-08T08:00:00	8	Radiación solar	132
175289	7	Sololá	716	San Marcos la Laguna 	11	San Marcos la laguna 	2	Febrero	2023-06-02T00:00:00	2024-11-08T09:00:00	2	Temperatura media	20.6
175290	7	Sololá	716	San Marcos la Laguna 	11	San Marcos la laguna 	2	Febrero	2023-06-02T00:00:00	2024-11-08T09:00:00	4	Temperatura máxima	20.8
175291	7	Sololá	716	San Marcos la Laguna 	11	San Marcos la laguna 	2	Febrero	2023-06-02T00:00:00	2024-11-08T09:00:00	3	Temperatura mínima	16.5
175292	7	Sololá	716	San Marcos la Laguna 	11	San Marcos la laguna 	2	Febrero	2023-06-02T00:00:00	2024-11-08T09:00:00	5	Humedad	50
175293	7	Sololá	716	San Marcos la Laguna 	11	San Marcos la laguna 	2	Febrero	2023-06-02T00:00:00	2024-11-08T09:00:00	6	Velocidad del viento	3.2
175294	7	Sololá	716	San Marcos la Laguna 	11	San Marcos la laguna 	2	Febrero	2023-06-02T00:00:00	2024-11-08T09:00:00	7	Dirección del viento	3.22
175295	7	Sololá	716	San Marcos la Laguna 	11	San Marcos la laguna 	2	Febrero	2023-06-02T00:00:00	2024-11-08T09:00:00	1	Precipitación	0
175296	7	Sololá	716	San Marcos la Laguna 	11	San Marcos la laguna 	2	Febrero	2023-06-02T00:00:00	2024-11-08T09:00:00	8	Radiación solar	362
175297	7	Sololá	716	San Marcos la Laguna 	11	San Marcos la laguna 	2	Febrero	2023-06-02T00:00:00	2024-11-08T10:00:00	2	Temperatura media	20.5
175298	7	Sololá	716	San Marcos la Laguna 	11	San Marcos la laguna 	2	Febrero	2023-06-02T00:00:00	2024-11-08T10:00:00	4	Temperatura máxima	20.8
175299	7	Sololá	716	San Marcos la Laguna 	11	San Marcos la laguna 	2	Febrero	2023-06-02T00:00:00	2024-11-08T10:00:00	3	Temperatura mínima	19.9
175300	7	Sololá	716	San Marcos la Laguna 	11	San Marcos la laguna 	2	Febrero	2023-06-02T00:00:00	2024-11-08T10:00:00	5	Humedad	58
175301	7	Sololá	716	San Marcos la Laguna 	11	San Marcos la laguna 	2	Febrero	2023-06-02T00:00:00	2024-11-08T10:00:00	6	Velocidad del viento	17.7
175302	7	Sololá	716	San Marcos la Laguna 	11	San Marcos la laguna 	2	Febrero	2023-06-02T00:00:00	2024-11-08T10:00:00	7	Dirección del viento	17.7
175303	7	Sololá	716	San Marcos la Laguna 	11	San Marcos la laguna 	2	Febrero	2023-06-02T00:00:00	2024-11-08T10:00:00	1	Precipitación	0
175304	7	Sololá	716	San Marcos la Laguna 	11	San Marcos la laguna 	2	Febrero	2023-06-02T00:00:00	2024-11-08T10:00:00	8	Radiación solar	555
175305	7	Sololá	716	San Marcos la Laguna 	11	San Marcos la laguna 	2	Febrero	2023-06-02T00:00:00	2024-11-08T11:00:00	2	Temperatura media	21.7
175306	7	Sololá	716	San Marcos la Laguna 	11	San Marcos la laguna 	2	Febrero	2023-06-02T00:00:00	2024-11-08T11:00:00	4	Temperatura máxima	21.9
175307	7	Sololá	716	San Marcos la Laguna 	11	San Marcos la laguna 	2	Febrero	2023-06-02T00:00:00	2024-11-08T11:00:00	3	Temperatura mínima	20.5
175308	7	Sololá	716	San Marcos la Laguna 	11	San Marcos la laguna 	2	Febrero	2023-06-02T00:00:00	2024-11-08T11:00:00	5	Humedad	49
175309	7	Sololá	716	San Marcos la Laguna 	11	San Marcos la laguna 	2	Febrero	2023-06-02T00:00:00	2024-11-08T11:00:00	6	Velocidad del viento	24.1
175310	7	Sololá	716	San Marcos la Laguna 	11	San Marcos la laguna 	2	Febrero	2023-06-02T00:00:00	2024-11-08T11:00:00	7	Dirección del viento	24.14
175311	7	Sololá	716	San Marcos la Laguna 	11	San Marcos la laguna 	2	Febrero	2023-06-02T00:00:00	2024-11-08T11:00:00	1	Precipitación	0
175312	7	Sololá	716	San Marcos la Laguna 	11	San Marcos la laguna 	2	Febrero	2023-06-02T00:00:00	2024-11-08T11:00:00	8	Radiación solar	660
175313	7	Sololá	716	San Marcos la Laguna 	11	San Marcos la laguna 	2	Febrero	2023-06-02T00:00:00	2024-11-08T12:00:00	2	Temperatura media	22.6
175314	7	Sololá	716	San Marcos la Laguna 	11	San Marcos la laguna 	2	Febrero	2023-06-02T00:00:00	2024-11-08T12:00:00	4	Temperatura máxima	22.6
175315	7	Sololá	716	San Marcos la Laguna 	11	San Marcos la laguna 	2	Febrero	2023-06-02T00:00:00	2024-11-08T12:00:00	3	Temperatura mínima	21.6
175316	7	Sololá	716	San Marcos la Laguna 	11	San Marcos la laguna 	2	Febrero	2023-06-02T00:00:00	2024-11-08T12:00:00	5	Humedad	55
175317	7	Sololá	716	San Marcos la Laguna 	11	San Marcos la laguna 	2	Febrero	2023-06-02T00:00:00	2024-11-08T12:00:00	6	Velocidad del viento	16.1
175318	7	Sololá	716	San Marcos la Laguna 	11	San Marcos la laguna 	2	Febrero	2023-06-02T00:00:00	2024-11-08T12:00:00	7	Dirección del viento	16.09
175319	7	Sololá	716	San Marcos la Laguna 	11	San Marcos la laguna 	2	Febrero	2023-06-02T00:00:00	2024-11-08T12:00:00	1	Precipitación	0
175320	7	Sololá	716	San Marcos la Laguna 	11	San Marcos la laguna 	2	Febrero	2023-06-02T00:00:00	2024-11-08T12:00:00	8	Radiación solar	718
175321	7	Sololá	716	San Marcos la Laguna 	11	San Marcos la laguna 	2	Febrero	2023-06-02T00:00:00	2024-11-08T13:00:00	2	Temperatura media	21.9
175322	7	Sololá	716	San Marcos la Laguna 	11	San Marcos la laguna 	2	Febrero	2023-06-02T00:00:00	2024-11-08T13:00:00	4	Temperatura máxima	22.9
175323	7	Sololá	716	San Marcos la Laguna 	11	San Marcos la laguna 	2	Febrero	2023-06-02T00:00:00	2024-11-08T13:00:00	3	Temperatura mínima	21.8
175324	7	Sololá	716	San Marcos la Laguna 	11	San Marcos la laguna 	2	Febrero	2023-06-02T00:00:00	2024-11-08T13:00:00	5	Humedad	58
175325	7	Sololá	716	San Marcos la Laguna 	11	San Marcos la laguna 	2	Febrero	2023-06-02T00:00:00	2024-11-08T13:00:00	6	Velocidad del viento	14.5
175326	7	Sololá	716	San Marcos la Laguna 	11	San Marcos la laguna 	2	Febrero	2023-06-02T00:00:00	2024-11-08T13:00:00	7	Dirección del viento	14.48
175327	7	Sololá	716	San Marcos la Laguna 	11	San Marcos la laguna 	2	Febrero	2023-06-02T00:00:00	2024-11-08T13:00:00	1	Precipitación	0
175328	7	Sololá	716	San Marcos la Laguna 	11	San Marcos la laguna 	2	Febrero	2023-06-02T00:00:00	2024-11-08T13:00:00	8	Radiación solar	816
175329	7	Sololá	716	San Marcos la Laguna 	11	San Marcos la laguna 	2	Febrero	2023-06-02T00:00:00	2024-11-08T14:00:00	2	Temperatura media	22.8
175330	7	Sololá	716	San Marcos la Laguna 	11	San Marcos la laguna 	2	Febrero	2023-06-02T00:00:00	2024-11-08T14:00:00	4	Temperatura máxima	22.8
175331	7	Sololá	716	San Marcos la Laguna 	11	San Marcos la laguna 	2	Febrero	2023-06-02T00:00:00	2024-11-08T14:00:00	3	Temperatura mínima	21.9
175332	7	Sololá	716	San Marcos la Laguna 	11	San Marcos la laguna 	2	Febrero	2023-06-02T00:00:00	2024-11-08T14:00:00	5	Humedad	61
175333	7	Sololá	716	San Marcos la Laguna 	11	San Marcos la laguna 	2	Febrero	2023-06-02T00:00:00	2024-11-08T14:00:00	6	Velocidad del viento	16.1
175334	7	Sololá	716	San Marcos la Laguna 	11	San Marcos la laguna 	2	Febrero	2023-06-02T00:00:00	2024-11-08T14:00:00	7	Dirección del viento	16.09
175335	7	Sololá	716	San Marcos la Laguna 	11	San Marcos la laguna 	2	Febrero	2023-06-02T00:00:00	2024-11-08T14:00:00	1	Precipitación	0
175336	7	Sololá	716	San Marcos la Laguna 	11	San Marcos la laguna 	2	Febrero	2023-06-02T00:00:00	2024-11-08T14:00:00	8	Radiación solar	770
175337	7	Sololá	716	San Marcos la Laguna 	11	San Marcos la laguna 	2	Febrero	2023-06-02T00:00:00	2024-11-08T15:00:00	2	Temperatura media	22.6
175338	7	Sololá	716	San Marcos la Laguna 	11	San Marcos la laguna 	2	Febrero	2023-06-02T00:00:00	2024-11-08T15:00:00	4	Temperatura máxima	23.1
175339	7	Sololá	716	San Marcos la Laguna 	11	San Marcos la laguna 	2	Febrero	2023-06-02T00:00:00	2024-11-08T15:00:00	3	Temperatura mínima	22.5
175340	7	Sololá	716	San Marcos la Laguna 	11	San Marcos la laguna 	2	Febrero	2023-06-02T00:00:00	2024-11-08T15:00:00	5	Humedad	66
175341	7	Sololá	716	San Marcos la Laguna 	11	San Marcos la laguna 	2	Febrero	2023-06-02T00:00:00	2024-11-08T15:00:00	6	Velocidad del viento	6.4
175342	7	Sololá	716	San Marcos la Laguna 	11	San Marcos la laguna 	2	Febrero	2023-06-02T00:00:00	2024-11-08T15:00:00	7	Dirección del viento	6.44
175343	7	Sololá	716	San Marcos la Laguna 	11	San Marcos la laguna 	2	Febrero	2023-06-02T00:00:00	2024-11-08T15:00:00	1	Precipitación	0
175344	7	Sololá	716	San Marcos la Laguna 	11	San Marcos la laguna 	2	Febrero	2023-06-02T00:00:00	2024-11-08T15:00:00	8	Radiación solar	654
175345	7	Sololá	716	San Marcos la Laguna 	11	San Marcos la laguna 	2	Febrero	2023-06-02T00:00:00	2024-11-08T16:00:00	2	Temperatura media	22.2
175346	7	Sololá	716	San Marcos la Laguna 	11	San Marcos la laguna 	2	Febrero	2023-06-02T00:00:00	2024-11-08T16:00:00	4	Temperatura máxima	22.8
175347	7	Sololá	716	San Marcos la Laguna 	11	San Marcos la laguna 	2	Febrero	2023-06-02T00:00:00	2024-11-08T16:00:00	3	Temperatura mínima	22.2
175348	7	Sololá	716	San Marcos la Laguna 	11	San Marcos la laguna 	2	Febrero	2023-06-02T00:00:00	2024-11-08T16:00:00	5	Humedad	67
175349	7	Sololá	716	San Marcos la Laguna 	11	San Marcos la laguna 	2	Febrero	2023-06-02T00:00:00	2024-11-08T16:00:00	6	Velocidad del viento	6.4
175350	7	Sololá	716	San Marcos la Laguna 	11	San Marcos la laguna 	2	Febrero	2023-06-02T00:00:00	2024-11-08T16:00:00	7	Dirección del viento	6.44
175351	7	Sololá	716	San Marcos la Laguna 	11	San Marcos la laguna 	2	Febrero	2023-06-02T00:00:00	2024-11-08T16:00:00	1	Precipitación	0
175352	7	Sololá	716	San Marcos la Laguna 	11	San Marcos la laguna 	2	Febrero	2023-06-02T00:00:00	2024-11-08T16:00:00	8	Radiación solar	489
175353	7	Sololá	716	San Marcos la Laguna 	11	San Marcos la laguna 	2	Febrero	2023-06-02T00:00:00	2024-11-08T17:00:00	2	Temperatura media	21.4
175354	7	Sololá	716	San Marcos la Laguna 	11	San Marcos la laguna 	2	Febrero	2023-06-02T00:00:00	2024-11-08T17:00:00	4	Temperatura máxima	22.3
175355	7	Sololá	716	San Marcos la Laguna 	11	San Marcos la laguna 	2	Febrero	2023-06-02T00:00:00	2024-11-08T17:00:00	3	Temperatura mínima	21.4
175356	7	Sololá	716	San Marcos la Laguna 	11	San Marcos la laguna 	2	Febrero	2023-06-02T00:00:00	2024-11-08T17:00:00	5	Humedad	70
175357	7	Sololá	716	San Marcos la Laguna 	11	San Marcos la laguna 	2	Febrero	2023-06-02T00:00:00	2024-11-08T17:00:00	6	Velocidad del viento	6.4
175358	7	Sololá	716	San Marcos la Laguna 	11	San Marcos la laguna 	2	Febrero	2023-06-02T00:00:00	2024-11-08T17:00:00	7	Dirección del viento	6.44
175359	7	Sololá	716	San Marcos la Laguna 	11	San Marcos la laguna 	2	Febrero	2023-06-02T00:00:00	2024-11-08T17:00:00	1	Precipitación	0
175360	7	Sololá	716	San Marcos la Laguna 	11	San Marcos la laguna 	2	Febrero	2023-06-02T00:00:00	2024-11-08T17:00:00	8	Radiación solar	289
175361	7	Sololá	716	San Marcos la Laguna 	11	San Marcos la laguna 	2	Febrero	2023-06-02T00:00:00	2024-11-08T18:00:00	2	Temperatura media	21
175362	7	Sololá	716	San Marcos la Laguna 	11	San Marcos la laguna 	2	Febrero	2023-06-02T00:00:00	2024-11-08T18:00:00	4	Temperatura máxima	21.4
175363	7	Sololá	716	San Marcos la Laguna 	11	San Marcos la laguna 	2	Febrero	2023-06-02T00:00:00	2024-11-08T18:00:00	3	Temperatura mínima	20.9
175364	7	Sololá	716	San Marcos la Laguna 	11	San Marcos la laguna 	2	Febrero	2023-06-02T00:00:00	2024-11-08T18:00:00	5	Humedad	54
175365	7	Sololá	716	San Marcos la Laguna 	11	San Marcos la laguna 	2	Febrero	2023-06-02T00:00:00	2024-11-08T18:00:00	6	Velocidad del viento	4.8
175366	7	Sololá	716	San Marcos la Laguna 	11	San Marcos la laguna 	2	Febrero	2023-06-02T00:00:00	2024-11-08T18:00:00	7	Dirección del viento	4.83
175367	7	Sololá	716	San Marcos la Laguna 	11	San Marcos la laguna 	2	Febrero	2023-06-02T00:00:00	2024-11-08T18:00:00	1	Precipitación	0
175368	7	Sololá	716	San Marcos la Laguna 	11	San Marcos la laguna 	2	Febrero	2023-06-02T00:00:00	2024-11-08T18:00:00	8	Radiación solar	71
175369	7	Sololá	716	San Marcos la Laguna 	11	San Marcos la laguna 	2	Febrero	2023-06-02T00:00:00	2024-11-08T19:00:00	2	Temperatura media	19.3
175370	7	Sololá	716	San Marcos la Laguna 	11	San Marcos la laguna 	2	Febrero	2023-06-02T00:00:00	2024-11-08T19:00:00	4	Temperatura máxima	21
175371	7	Sololá	716	San Marcos la Laguna 	11	San Marcos la laguna 	2	Febrero	2023-06-02T00:00:00	2024-11-08T19:00:00	3	Temperatura mínima	19.3
175372	7	Sololá	716	San Marcos la Laguna 	11	San Marcos la laguna 	2	Febrero	2023-06-02T00:00:00	2024-11-08T19:00:00	5	Humedad	55
175373	7	Sololá	716	San Marcos la Laguna 	11	San Marcos la laguna 	2	Febrero	2023-06-02T00:00:00	2024-11-08T19:00:00	6	Velocidad del viento	9.7
175374	7	Sololá	716	San Marcos la Laguna 	11	San Marcos la laguna 	2	Febrero	2023-06-02T00:00:00	2024-11-08T19:00:00	7	Dirección del viento	9.66
175375	7	Sololá	716	San Marcos la Laguna 	11	San Marcos la laguna 	2	Febrero	2023-06-02T00:00:00	2024-11-08T19:00:00	1	Precipitación	0
175376	7	Sololá	716	San Marcos la Laguna 	11	San Marcos la laguna 	2	Febrero	2023-06-02T00:00:00	2024-11-08T19:00:00	8	Radiación solar	0
175377	7	Sololá	716	San Marcos la Laguna 	11	San Marcos la laguna 	2	Febrero	2023-06-02T00:00:00	2024-11-08T20:00:00	2	Temperatura media	17.6
175378	7	Sololá	716	San Marcos la Laguna 	11	San Marcos la laguna 	2	Febrero	2023-06-02T00:00:00	2024-11-08T20:00:00	4	Temperatura máxima	19.3
175379	7	Sololá	716	San Marcos la Laguna 	11	San Marcos la laguna 	2	Febrero	2023-06-02T00:00:00	2024-11-08T20:00:00	3	Temperatura mínima	17.6
175380	7	Sololá	716	San Marcos la Laguna 	11	San Marcos la laguna 	2	Febrero	2023-06-02T00:00:00	2024-11-08T20:00:00	5	Humedad	60
175381	7	Sololá	716	San Marcos la Laguna 	11	San Marcos la laguna 	2	Febrero	2023-06-02T00:00:00	2024-11-08T20:00:00	6	Velocidad del viento	8
175382	7	Sololá	716	San Marcos la Laguna 	11	San Marcos la laguna 	2	Febrero	2023-06-02T00:00:00	2024-11-08T20:00:00	7	Dirección del viento	8.05
175383	7	Sololá	716	San Marcos la Laguna 	11	San Marcos la laguna 	2	Febrero	2023-06-02T00:00:00	2024-11-08T20:00:00	1	Precipitación	0
175384	7	Sololá	716	San Marcos la Laguna 	11	San Marcos la laguna 	2	Febrero	2023-06-02T00:00:00	2024-11-08T20:00:00	8	Radiación solar	0
175385	7	Sololá	716	San Marcos la Laguna 	11	San Marcos la laguna 	2	Febrero	2023-06-02T00:00:00	2024-11-08T21:00:00	2	Temperatura media	16.3
175386	7	Sololá	716	San Marcos la Laguna 	11	San Marcos la laguna 	2	Febrero	2023-06-02T00:00:00	2024-11-08T21:00:00	4	Temperatura máxima	17.8
175387	7	Sololá	716	San Marcos la Laguna 	11	San Marcos la laguna 	2	Febrero	2023-06-02T00:00:00	2024-11-08T21:00:00	3	Temperatura mínima	15.9
175388	7	Sololá	716	San Marcos la Laguna 	11	San Marcos la laguna 	2	Febrero	2023-06-02T00:00:00	2024-11-08T21:00:00	5	Humedad	64
175389	7	Sololá	716	San Marcos la Laguna 	11	San Marcos la laguna 	2	Febrero	2023-06-02T00:00:00	2024-11-08T21:00:00	6	Velocidad del viento	6.4
175390	7	Sololá	716	San Marcos la Laguna 	11	San Marcos la laguna 	2	Febrero	2023-06-02T00:00:00	2024-11-08T21:00:00	7	Dirección del viento	6.44
175391	7	Sololá	716	San Marcos la Laguna 	11	San Marcos la laguna 	2	Febrero	2023-06-02T00:00:00	2024-11-08T21:00:00	1	Precipitación	0
175392	7	Sololá	716	San Marcos la Laguna 	11	San Marcos la laguna 	2	Febrero	2023-06-02T00:00:00	2024-11-08T21:00:00	8	Radiación solar	0
175393	7	Sololá	716	San Marcos la Laguna 	11	San Marcos la laguna 	2	Febrero	2023-06-02T00:00:00	2024-11-08T22:00:00	2	Temperatura media	16.6
175394	7	Sololá	716	San Marcos la Laguna 	11	San Marcos la laguna 	2	Febrero	2023-06-02T00:00:00	2024-11-08T22:00:00	4	Temperatura máxima	16.6
175395	7	Sololá	716	San Marcos la Laguna 	11	San Marcos la laguna 	2	Febrero	2023-06-02T00:00:00	2024-11-08T22:00:00	3	Temperatura mínima	16.1
175396	7	Sololá	716	San Marcos la Laguna 	11	San Marcos la laguna 	2	Febrero	2023-06-02T00:00:00	2024-11-08T22:00:00	5	Humedad	66
175397	7	Sololá	716	San Marcos la Laguna 	11	San Marcos la laguna 	2	Febrero	2023-06-02T00:00:00	2024-11-08T22:00:00	6	Velocidad del viento	6.4
175398	7	Sololá	716	San Marcos la Laguna 	11	San Marcos la laguna 	2	Febrero	2023-06-02T00:00:00	2024-11-08T22:00:00	7	Dirección del viento	6.44
175399	7	Sololá	716	San Marcos la Laguna 	11	San Marcos la laguna 	2	Febrero	2023-06-02T00:00:00	2024-11-08T22:00:00	1	Precipitación	0
175400	7	Sololá	716	San Marcos la Laguna 	11	San Marcos la laguna 	2	Febrero	2023-06-02T00:00:00	2024-11-08T22:00:00	8	Radiación solar	0
175401	7	Sololá	716	San Marcos la Laguna 	11	San Marcos la laguna 	2	Febrero	2023-06-02T00:00:00	2024-11-08T23:00:00	2	Temperatura media	15.6
175402	7	Sololá	716	San Marcos la Laguna 	11	San Marcos la laguna 	2	Febrero	2023-06-02T00:00:00	2024-11-08T23:00:00	4	Temperatura máxima	16.6
175403	7	Sololá	716	San Marcos la Laguna 	11	San Marcos la laguna 	2	Febrero	2023-06-02T00:00:00	2024-11-08T23:00:00	3	Temperatura mínima	15.3
175404	7	Sololá	716	San Marcos la Laguna 	11	San Marcos la laguna 	2	Febrero	2023-06-02T00:00:00	2024-11-08T23:00:00	5	Humedad	68
175405	7	Sololá	716	San Marcos la Laguna 	11	San Marcos la laguna 	2	Febrero	2023-06-02T00:00:00	2024-11-08T23:00:00	6	Velocidad del viento	6.4
175406	7	Sololá	716	San Marcos la Laguna 	11	San Marcos la laguna 	2	Febrero	2023-06-02T00:00:00	2024-11-08T23:00:00	7	Dirección del viento	6.44
175407	7	Sololá	716	San Marcos la Laguna 	11	San Marcos la laguna 	2	Febrero	2023-06-02T00:00:00	2024-11-08T23:00:00	1	Precipitación	0
175408	7	Sololá	716	San Marcos la Laguna 	11	San Marcos la laguna 	2	Febrero	2023-06-02T00:00:00	2024-11-08T23:00:00	8	Radiación solar	0
175409	7	Sololá	716	San Marcos la Laguna 	11	San Marcos la laguna 	2	Febrero	2023-07-02T00:00:00	2024-11-08T00:00:00	2	Temperatura media	14.6
175410	7	Sololá	716	San Marcos la Laguna 	11	San Marcos la laguna 	2	Febrero	2023-07-02T00:00:00	2024-11-08T00:00:00	4	Temperatura máxima	15.6
175411	7	Sololá	716	San Marcos la Laguna 	11	San Marcos la laguna 	2	Febrero	2023-07-02T00:00:00	2024-11-08T00:00:00	3	Temperatura mínima	14.6
175412	7	Sololá	716	San Marcos la Laguna 	11	San Marcos la laguna 	2	Febrero	2023-07-02T00:00:00	2024-11-08T00:00:00	5	Humedad	67
175413	7	Sololá	716	San Marcos la Laguna 	11	San Marcos la laguna 	2	Febrero	2023-07-02T00:00:00	2024-11-08T00:00:00	6	Velocidad del viento	6.4
175414	7	Sololá	716	San Marcos la Laguna 	11	San Marcos la laguna 	2	Febrero	2023-07-02T00:00:00	2024-11-08T00:00:00	7	Dirección del viento	6.44
175415	7	Sololá	716	San Marcos la Laguna 	11	San Marcos la laguna 	2	Febrero	2023-07-02T00:00:00	2024-11-08T00:00:00	1	Precipitación	0
175416	7	Sololá	716	San Marcos la Laguna 	11	San Marcos la laguna 	2	Febrero	2023-07-02T00:00:00	2024-11-08T00:00:00	8	Radiación solar	0
175417	7	Sololá	716	San Marcos la Laguna 	11	San Marcos la laguna 	2	Febrero	2023-07-02T00:00:00	2024-11-08T01:00:00	2	Temperatura media	14.7
175418	7	Sololá	716	San Marcos la Laguna 	11	San Marcos la laguna 	2	Febrero	2023-07-02T00:00:00	2024-11-08T01:00:00	4	Temperatura máxima	14.9
175419	7	Sololá	716	San Marcos la Laguna 	11	San Marcos la laguna 	2	Febrero	2023-07-02T00:00:00	2024-11-08T01:00:00	3	Temperatura mínima	14.3
175420	7	Sololá	716	San Marcos la Laguna 	11	San Marcos la laguna 	2	Febrero	2023-07-02T00:00:00	2024-11-08T01:00:00	5	Humedad	68
175421	7	Sololá	716	San Marcos la Laguna 	11	San Marcos la laguna 	2	Febrero	2023-07-02T00:00:00	2024-11-08T01:00:00	6	Velocidad del viento	6.4
175422	7	Sololá	716	San Marcos la Laguna 	11	San Marcos la laguna 	2	Febrero	2023-07-02T00:00:00	2024-11-08T01:00:00	7	Dirección del viento	6.44
175423	7	Sololá	716	San Marcos la Laguna 	11	San Marcos la laguna 	2	Febrero	2023-07-02T00:00:00	2024-11-08T01:00:00	1	Precipitación	0
175424	7	Sololá	716	San Marcos la Laguna 	11	San Marcos la laguna 	2	Febrero	2023-07-02T00:00:00	2024-11-08T01:00:00	8	Radiación solar	0
175425	7	Sololá	716	San Marcos la Laguna 	11	San Marcos la laguna 	2	Febrero	2023-07-02T00:00:00	2024-11-08T02:00:00	2	Temperatura media	14.2
175426	7	Sololá	716	San Marcos la Laguna 	11	San Marcos la laguna 	2	Febrero	2023-07-02T00:00:00	2024-11-08T02:00:00	4	Temperatura máxima	14.7
175427	7	Sololá	716	San Marcos la Laguna 	11	San Marcos la laguna 	2	Febrero	2023-07-02T00:00:00	2024-11-08T02:00:00	3	Temperatura mínima	13.7
175428	7	Sololá	716	San Marcos la Laguna 	11	San Marcos la laguna 	2	Febrero	2023-07-02T00:00:00	2024-11-08T02:00:00	5	Humedad	66
175429	7	Sololá	716	San Marcos la Laguna 	11	San Marcos la laguna 	2	Febrero	2023-07-02T00:00:00	2024-11-08T02:00:00	6	Velocidad del viento	8
175430	7	Sololá	716	San Marcos la Laguna 	11	San Marcos la laguna 	2	Febrero	2023-07-02T00:00:00	2024-11-08T02:00:00	7	Dirección del viento	8.05
175431	7	Sololá	716	San Marcos la Laguna 	11	San Marcos la laguna 	2	Febrero	2023-07-02T00:00:00	2024-11-08T02:00:00	1	Precipitación	0
175432	7	Sololá	716	San Marcos la Laguna 	11	San Marcos la laguna 	2	Febrero	2023-07-02T00:00:00	2024-11-08T02:00:00	8	Radiación solar	0
175433	7	Sololá	716	San Marcos la Laguna 	11	San Marcos la laguna 	2	Febrero	2023-07-02T00:00:00	2024-11-08T03:00:00	2	Temperatura media	13.2
175434	7	Sololá	716	San Marcos la Laguna 	11	San Marcos la laguna 	2	Febrero	2023-07-02T00:00:00	2024-11-08T03:00:00	4	Temperatura máxima	14.3
175435	7	Sololá	716	San Marcos la Laguna 	11	San Marcos la laguna 	2	Febrero	2023-07-02T00:00:00	2024-11-08T03:00:00	3	Temperatura mínima	13.2
175436	7	Sololá	716	San Marcos la Laguna 	11	San Marcos la laguna 	2	Febrero	2023-07-02T00:00:00	2024-11-08T03:00:00	5	Humedad	69
175437	7	Sololá	716	San Marcos la Laguna 	11	San Marcos la laguna 	2	Febrero	2023-07-02T00:00:00	2024-11-08T03:00:00	6	Velocidad del viento	8
175438	7	Sololá	716	San Marcos la Laguna 	11	San Marcos la laguna 	2	Febrero	2023-07-02T00:00:00	2024-11-08T03:00:00	7	Dirección del viento	8.05
175439	7	Sololá	716	San Marcos la Laguna 	11	San Marcos la laguna 	2	Febrero	2023-07-02T00:00:00	2024-11-08T03:00:00	1	Precipitación	0
175440	7	Sololá	716	San Marcos la Laguna 	11	San Marcos la laguna 	2	Febrero	2023-07-02T00:00:00	2024-11-08T03:00:00	8	Radiación solar	0
175441	7	Sololá	716	San Marcos la Laguna 	11	San Marcos la laguna 	2	Febrero	2023-07-02T00:00:00	2024-11-08T04:00:00	2	Temperatura media	13.1
175442	7	Sololá	716	San Marcos la Laguna 	11	San Marcos la laguna 	2	Febrero	2023-07-02T00:00:00	2024-11-08T04:00:00	4	Temperatura máxima	13.4
175443	7	Sololá	716	San Marcos la Laguna 	11	San Marcos la laguna 	2	Febrero	2023-07-02T00:00:00	2024-11-08T04:00:00	3	Temperatura mínima	12.6
175444	7	Sololá	716	San Marcos la Laguna 	11	San Marcos la laguna 	2	Febrero	2023-07-02T00:00:00	2024-11-08T04:00:00	5	Humedad	69
175445	7	Sololá	716	San Marcos la Laguna 	11	San Marcos la laguna 	2	Febrero	2023-07-02T00:00:00	2024-11-08T04:00:00	6	Velocidad del viento	8
175446	7	Sololá	716	San Marcos la Laguna 	11	San Marcos la laguna 	2	Febrero	2023-07-02T00:00:00	2024-11-08T04:00:00	7	Dirección del viento	8.05
175447	7	Sololá	716	San Marcos la Laguna 	11	San Marcos la laguna 	2	Febrero	2023-07-02T00:00:00	2024-11-08T04:00:00	1	Precipitación	0
175448	7	Sololá	716	San Marcos la Laguna 	11	San Marcos la laguna 	2	Febrero	2023-07-02T00:00:00	2024-11-08T04:00:00	8	Radiación solar	0
175449	7	Sololá	716	San Marcos la Laguna 	11	San Marcos la laguna 	2	Febrero	2023-07-02T00:00:00	2024-11-08T05:00:00	2	Temperatura media	13.1
175450	7	Sololá	716	San Marcos la Laguna 	11	San Marcos la laguna 	2	Febrero	2023-07-02T00:00:00	2024-11-08T05:00:00	4	Temperatura máxima	13.3
175451	7	Sololá	716	San Marcos la Laguna 	11	San Marcos la laguna 	2	Febrero	2023-07-02T00:00:00	2024-11-08T05:00:00	3	Temperatura mínima	12.4
175452	7	Sololá	716	San Marcos la Laguna 	11	San Marcos la laguna 	2	Febrero	2023-07-02T00:00:00	2024-11-08T05:00:00	5	Humedad	70
175453	7	Sololá	716	San Marcos la Laguna 	11	San Marcos la laguna 	2	Febrero	2023-07-02T00:00:00	2024-11-08T05:00:00	6	Velocidad del viento	9.7
175454	7	Sololá	716	San Marcos la Laguna 	11	San Marcos la laguna 	2	Febrero	2023-07-02T00:00:00	2024-11-08T05:00:00	7	Dirección del viento	9.66
175455	7	Sololá	716	San Marcos la Laguna 	11	San Marcos la laguna 	2	Febrero	2023-07-02T00:00:00	2024-11-08T05:00:00	1	Precipitación	0
175456	7	Sololá	716	San Marcos la Laguna 	11	San Marcos la laguna 	2	Febrero	2023-07-02T00:00:00	2024-11-08T05:00:00	8	Radiación solar	0
175457	7	Sololá	716	San Marcos la Laguna 	11	San Marcos la laguna 	2	Febrero	2023-07-02T00:00:00	2024-11-08T06:00:00	2	Temperatura media	11.8
175458	7	Sololá	716	San Marcos la Laguna 	11	San Marcos la laguna 	2	Febrero	2023-07-02T00:00:00	2024-11-08T06:00:00	4	Temperatura máxima	13.3
175459	7	Sololá	716	San Marcos la Laguna 	11	San Marcos la laguna 	2	Febrero	2023-07-02T00:00:00	2024-11-08T06:00:00	3	Temperatura mínima	11.8
175460	7	Sololá	716	San Marcos la Laguna 	11	San Marcos la laguna 	2	Febrero	2023-07-02T00:00:00	2024-11-08T06:00:00	5	Humedad	73
175461	7	Sololá	716	San Marcos la Laguna 	11	San Marcos la laguna 	2	Febrero	2023-07-02T00:00:00	2024-11-08T06:00:00	6	Velocidad del viento	6.4
175462	7	Sololá	716	San Marcos la Laguna 	11	San Marcos la laguna 	2	Febrero	2023-07-02T00:00:00	2024-11-08T06:00:00	7	Dirección del viento	6.44
175463	7	Sololá	716	San Marcos la Laguna 	11	San Marcos la laguna 	2	Febrero	2023-07-02T00:00:00	2024-11-08T06:00:00	1	Precipitación	0
175464	7	Sololá	716	San Marcos la Laguna 	11	San Marcos la laguna 	2	Febrero	2023-07-02T00:00:00	2024-11-08T06:00:00	8	Radiación solar	0
175465	7	Sololá	716	San Marcos la Laguna 	11	San Marcos la laguna 	2	Febrero	2023-07-02T00:00:00	2024-11-08T07:00:00	2	Temperatura media	11.8
175466	7	Sololá	716	San Marcos la Laguna 	11	San Marcos la laguna 	2	Febrero	2023-07-02T00:00:00	2024-11-08T07:00:00	4	Temperatura máxima	12.3
175467	7	Sololá	716	San Marcos la Laguna 	11	San Marcos la laguna 	2	Febrero	2023-07-02T00:00:00	2024-11-08T07:00:00	3	Temperatura mínima	11.6
175468	7	Sololá	716	San Marcos la Laguna 	11	San Marcos la laguna 	2	Febrero	2023-07-02T00:00:00	2024-11-08T07:00:00	5	Humedad	70
175469	7	Sololá	716	San Marcos la Laguna 	11	San Marcos la laguna 	2	Febrero	2023-07-02T00:00:00	2024-11-08T07:00:00	6	Velocidad del viento	8
175470	7	Sololá	716	San Marcos la Laguna 	11	San Marcos la laguna 	2	Febrero	2023-07-02T00:00:00	2024-11-08T07:00:00	7	Dirección del viento	8.05
175471	7	Sololá	716	San Marcos la Laguna 	11	San Marcos la laguna 	2	Febrero	2023-07-02T00:00:00	2024-11-08T07:00:00	1	Precipitación	0
175472	7	Sololá	716	San Marcos la Laguna 	11	San Marcos la laguna 	2	Febrero	2023-07-02T00:00:00	2024-11-08T07:00:00	8	Radiación solar	5
175473	7	Sololá	716	San Marcos la Laguna 	11	San Marcos la laguna 	2	Febrero	2023-07-02T00:00:00	2024-11-08T08:00:00	2	Temperatura media	14.9
175474	7	Sololá	716	San Marcos la Laguna 	11	San Marcos la laguna 	2	Febrero	2023-07-02T00:00:00	2024-11-08T08:00:00	4	Temperatura máxima	14.9
175475	7	Sololá	716	San Marcos la Laguna 	11	San Marcos la laguna 	2	Febrero	2023-07-02T00:00:00	2024-11-08T08:00:00	3	Temperatura mínima	11.8
175476	7	Sololá	716	San Marcos la Laguna 	11	San Marcos la laguna 	2	Febrero	2023-07-02T00:00:00	2024-11-08T08:00:00	5	Humedad	68
175477	7	Sololá	716	San Marcos la Laguna 	11	San Marcos la laguna 	2	Febrero	2023-07-02T00:00:00	2024-11-08T08:00:00	6	Velocidad del viento	6.4
175478	7	Sololá	716	San Marcos la Laguna 	11	San Marcos la laguna 	2	Febrero	2023-07-02T00:00:00	2024-11-08T08:00:00	7	Dirección del viento	6.44
175479	7	Sololá	716	San Marcos la Laguna 	11	San Marcos la laguna 	2	Febrero	2023-07-02T00:00:00	2024-11-08T08:00:00	1	Precipitación	0
175480	7	Sololá	716	San Marcos la Laguna 	11	San Marcos la laguna 	2	Febrero	2023-07-02T00:00:00	2024-11-08T08:00:00	8	Radiación solar	131
175481	7	Sololá	716	San Marcos la Laguna 	11	San Marcos la laguna 	2	Febrero	2023-07-02T00:00:00	2024-11-08T09:00:00	2	Temperatura media	18.9
175482	7	Sololá	716	San Marcos la Laguna 	11	San Marcos la laguna 	2	Febrero	2023-07-02T00:00:00	2024-11-08T09:00:00	4	Temperatura máxima	18.9
175483	7	Sololá	716	San Marcos la Laguna 	11	San Marcos la laguna 	2	Febrero	2023-07-02T00:00:00	2024-11-08T09:00:00	3	Temperatura mínima	15
175484	7	Sololá	716	San Marcos la Laguna 	11	San Marcos la laguna 	2	Febrero	2023-07-02T00:00:00	2024-11-08T09:00:00	5	Humedad	54
175485	7	Sololá	716	San Marcos la Laguna 	11	San Marcos la laguna 	2	Febrero	2023-07-02T00:00:00	2024-11-08T09:00:00	6	Velocidad del viento	1.6
175486	7	Sololá	716	San Marcos la Laguna 	11	San Marcos la laguna 	2	Febrero	2023-07-02T00:00:00	2024-11-08T09:00:00	7	Dirección del viento	1.61
175487	7	Sololá	716	San Marcos la Laguna 	11	San Marcos la laguna 	2	Febrero	2023-07-02T00:00:00	2024-11-08T09:00:00	1	Precipitación	0
175488	7	Sololá	716	San Marcos la Laguna 	11	San Marcos la laguna 	2	Febrero	2023-07-02T00:00:00	2024-11-08T09:00:00	8	Radiación solar	363
175489	7	Sololá	716	San Marcos la Laguna 	11	San Marcos la laguna 	2	Febrero	2023-07-02T00:00:00	2024-11-08T10:00:00	2	Temperatura media	20.4
175490	7	Sololá	716	San Marcos la Laguna 	11	San Marcos la laguna 	2	Febrero	2023-07-02T00:00:00	2024-11-08T10:00:00	4	Temperatura máxima	20.4
175491	7	Sololá	716	San Marcos la Laguna 	11	San Marcos la laguna 	2	Febrero	2023-07-02T00:00:00	2024-11-08T10:00:00	3	Temperatura mínima	18.9
175492	7	Sololá	716	San Marcos la Laguna 	11	San Marcos la laguna 	2	Febrero	2023-07-02T00:00:00	2024-11-08T10:00:00	5	Humedad	51
175493	7	Sololá	716	San Marcos la Laguna 	11	San Marcos la laguna 	2	Febrero	2023-07-02T00:00:00	2024-11-08T10:00:00	6	Velocidad del viento	3.2
175494	7	Sololá	716	San Marcos la Laguna 	11	San Marcos la laguna 	2	Febrero	2023-07-02T00:00:00	2024-11-08T10:00:00	7	Dirección del viento	3.22
175495	7	Sololá	716	San Marcos la Laguna 	11	San Marcos la laguna 	2	Febrero	2023-07-02T00:00:00	2024-11-08T10:00:00	1	Precipitación	0
175496	7	Sololá	716	San Marcos la Laguna 	11	San Marcos la laguna 	2	Febrero	2023-07-02T00:00:00	2024-11-08T10:00:00	8	Radiación solar	555
175497	7	Sololá	716	San Marcos la Laguna 	11	San Marcos la laguna 	2	Febrero	2023-07-02T00:00:00	2024-11-08T11:00:00	2	Temperatura media	22
175498	7	Sololá	716	San Marcos la Laguna 	11	San Marcos la laguna 	2	Febrero	2023-07-02T00:00:00	2024-11-08T11:00:00	4	Temperatura máxima	22
175499	7	Sololá	716	San Marcos la Laguna 	11	San Marcos la laguna 	2	Febrero	2023-07-02T00:00:00	2024-11-08T11:00:00	3	Temperatura mínima	20.4
175500	7	Sololá	716	San Marcos la Laguna 	11	San Marcos la laguna 	2	Febrero	2023-07-02T00:00:00	2024-11-08T11:00:00	5	Humedad	46
175501	7	Sololá	716	San Marcos la Laguna 	11	San Marcos la laguna 	2	Febrero	2023-07-02T00:00:00	2024-11-08T11:00:00	6	Velocidad del viento	3.2
175502	7	Sololá	716	San Marcos la Laguna 	11	San Marcos la laguna 	2	Febrero	2023-07-02T00:00:00	2024-11-08T11:00:00	7	Dirección del viento	3.22
175503	7	Sololá	716	San Marcos la Laguna 	11	San Marcos la laguna 	2	Febrero	2023-07-02T00:00:00	2024-11-08T11:00:00	1	Precipitación	0
175504	7	Sololá	716	San Marcos la Laguna 	11	San Marcos la laguna 	2	Febrero	2023-07-02T00:00:00	2024-11-08T11:00:00	8	Radiación solar	665
175505	7	Sololá	716	San Marcos la Laguna 	11	San Marcos la laguna 	2	Febrero	2023-07-02T00:00:00	2024-11-08T12:00:00	2	Temperatura media	23.3
175506	7	Sololá	716	San Marcos la Laguna 	11	San Marcos la laguna 	2	Febrero	2023-07-02T00:00:00	2024-11-08T12:00:00	4	Temperatura máxima	23.6
175507	7	Sololá	716	San Marcos la Laguna 	11	San Marcos la laguna 	2	Febrero	2023-07-02T00:00:00	2024-11-08T12:00:00	3	Temperatura mínima	22
175508	7	Sololá	716	San Marcos la Laguna 	11	San Marcos la laguna 	2	Febrero	2023-07-02T00:00:00	2024-11-08T12:00:00	5	Humedad	44
175509	7	Sololá	716	San Marcos la Laguna 	11	San Marcos la laguna 	2	Febrero	2023-07-02T00:00:00	2024-11-08T12:00:00	6	Velocidad del viento	3.2
175510	7	Sololá	716	San Marcos la Laguna 	11	San Marcos la laguna 	2	Febrero	2023-07-02T00:00:00	2024-11-08T12:00:00	7	Dirección del viento	3.22
175511	7	Sololá	716	San Marcos la Laguna 	11	San Marcos la laguna 	2	Febrero	2023-07-02T00:00:00	2024-11-08T12:00:00	1	Precipitación	0
175512	7	Sololá	716	San Marcos la Laguna 	11	San Marcos la laguna 	2	Febrero	2023-07-02T00:00:00	2024-11-08T12:00:00	8	Radiación solar	725
175513	7	Sololá	716	San Marcos la Laguna 	11	San Marcos la laguna 	2	Febrero	2023-07-02T00:00:00	2024-11-08T13:00:00	2	Temperatura media	23.1
175514	7	Sololá	716	San Marcos la Laguna 	11	San Marcos la laguna 	2	Febrero	2023-07-02T00:00:00	2024-11-08T13:00:00	4	Temperatura máxima	23.3
175515	7	Sololá	716	San Marcos la Laguna 	11	San Marcos la laguna 	2	Febrero	2023-07-02T00:00:00	2024-11-08T13:00:00	3	Temperatura mínima	22.9
175516	7	Sololá	716	San Marcos la Laguna 	11	San Marcos la laguna 	2	Febrero	2023-07-02T00:00:00	2024-11-08T13:00:00	5	Humedad	46
175517	7	Sololá	716	San Marcos la Laguna 	11	San Marcos la laguna 	2	Febrero	2023-07-02T00:00:00	2024-11-08T13:00:00	6	Velocidad del viento	6.4
175518	7	Sololá	716	San Marcos la Laguna 	11	San Marcos la laguna 	2	Febrero	2023-07-02T00:00:00	2024-11-08T13:00:00	7	Dirección del viento	6.44
175519	7	Sololá	716	San Marcos la Laguna 	11	San Marcos la laguna 	2	Febrero	2023-07-02T00:00:00	2024-11-08T13:00:00	1	Precipitación	0
175520	7	Sololá	716	San Marcos la Laguna 	11	San Marcos la laguna 	2	Febrero	2023-07-02T00:00:00	2024-11-08T13:00:00	8	Radiación solar	831
175521	7	Sololá	716	San Marcos la Laguna 	11	San Marcos la laguna 	2	Febrero	2023-07-02T00:00:00	2024-11-08T14:00:00	2	Temperatura media	23.3
175522	7	Sololá	716	San Marcos la Laguna 	11	San Marcos la laguna 	2	Febrero	2023-07-02T00:00:00	2024-11-08T14:00:00	4	Temperatura máxima	23.4
175523	7	Sololá	716	San Marcos la Laguna 	11	San Marcos la laguna 	2	Febrero	2023-07-02T00:00:00	2024-11-08T14:00:00	3	Temperatura mínima	22.8
175524	7	Sololá	716	San Marcos la Laguna 	11	San Marcos la laguna 	2	Febrero	2023-07-02T00:00:00	2024-11-08T14:00:00	5	Humedad	57
175525	7	Sololá	716	San Marcos la Laguna 	11	San Marcos la laguna 	2	Febrero	2023-07-02T00:00:00	2024-11-08T14:00:00	6	Velocidad del viento	11.3
175526	7	Sololá	716	San Marcos la Laguna 	11	San Marcos la laguna 	2	Febrero	2023-07-02T00:00:00	2024-11-08T14:00:00	7	Dirección del viento	11.27
175527	7	Sololá	716	San Marcos la Laguna 	11	San Marcos la laguna 	2	Febrero	2023-07-02T00:00:00	2024-11-08T14:00:00	1	Precipitación	0
175528	7	Sololá	716	San Marcos la Laguna 	11	San Marcos la laguna 	2	Febrero	2023-07-02T00:00:00	2024-11-08T14:00:00	8	Radiación solar	776
175529	7	Sololá	716	San Marcos la Laguna 	11	San Marcos la laguna 	2	Febrero	2023-07-02T00:00:00	2024-11-08T15:00:00	2	Temperatura media	23.3
175530	7	Sololá	716	San Marcos la Laguna 	11	San Marcos la laguna 	2	Febrero	2023-07-02T00:00:00	2024-11-08T15:00:00	4	Temperatura máxima	23.8
175531	7	Sololá	716	San Marcos la Laguna 	11	San Marcos la laguna 	2	Febrero	2023-07-02T00:00:00	2024-11-08T15:00:00	3	Temperatura mínima	23.2
175532	7	Sololá	716	San Marcos la Laguna 	11	San Marcos la laguna 	2	Febrero	2023-07-02T00:00:00	2024-11-08T15:00:00	5	Humedad	56
175533	7	Sololá	716	San Marcos la Laguna 	11	San Marcos la laguna 	2	Febrero	2023-07-02T00:00:00	2024-11-08T15:00:00	6	Velocidad del viento	9.7
175534	7	Sololá	716	San Marcos la Laguna 	11	San Marcos la laguna 	2	Febrero	2023-07-02T00:00:00	2024-11-08T15:00:00	7	Dirección del viento	9.66
175535	7	Sololá	716	San Marcos la Laguna 	11	San Marcos la laguna 	2	Febrero	2023-07-02T00:00:00	2024-11-08T15:00:00	1	Precipitación	0
175536	7	Sololá	716	San Marcos la Laguna 	11	San Marcos la laguna 	2	Febrero	2023-07-02T00:00:00	2024-11-08T15:00:00	8	Radiación solar	644
175537	7	Sololá	716	San Marcos la Laguna 	11	San Marcos la laguna 	2	Febrero	2023-07-02T00:00:00	2024-11-08T16:00:00	2	Temperatura media	22.6
175538	7	Sololá	716	San Marcos la Laguna 	11	San Marcos la laguna 	2	Febrero	2023-07-02T00:00:00	2024-11-08T16:00:00	4	Temperatura máxima	23.4
175539	7	Sololá	716	San Marcos la Laguna 	11	San Marcos la laguna 	2	Febrero	2023-07-02T00:00:00	2024-11-08T16:00:00	3	Temperatura mínima	22.5
175540	7	Sololá	716	San Marcos la Laguna 	11	San Marcos la laguna 	2	Febrero	2023-07-02T00:00:00	2024-11-08T16:00:00	5	Humedad	57
175541	7	Sololá	716	San Marcos la Laguna 	11	San Marcos la laguna 	2	Febrero	2023-07-02T00:00:00	2024-11-08T16:00:00	6	Velocidad del viento	9.7
175542	7	Sololá	716	San Marcos la Laguna 	11	San Marcos la laguna 	2	Febrero	2023-07-02T00:00:00	2024-11-08T16:00:00	7	Dirección del viento	9.66
175543	7	Sololá	716	San Marcos la Laguna 	11	San Marcos la laguna 	2	Febrero	2023-07-02T00:00:00	2024-11-08T16:00:00	1	Precipitación	0
175544	7	Sololá	716	San Marcos la Laguna 	11	San Marcos la laguna 	2	Febrero	2023-07-02T00:00:00	2024-11-08T16:00:00	8	Radiación solar	478
175545	7	Sololá	716	San Marcos la Laguna 	11	San Marcos la laguna 	2	Febrero	2023-07-02T00:00:00	2024-11-08T17:00:00	2	Temperatura media	22.1
175546	7	Sololá	716	San Marcos la Laguna 	11	San Marcos la laguna 	2	Febrero	2023-07-02T00:00:00	2024-11-08T17:00:00	4	Temperatura máxima	22.7
175547	7	Sololá	716	San Marcos la Laguna 	11	San Marcos la laguna 	2	Febrero	2023-07-02T00:00:00	2024-11-08T17:00:00	3	Temperatura mínima	22
175548	7	Sololá	716	San Marcos la Laguna 	11	San Marcos la laguna 	2	Febrero	2023-07-02T00:00:00	2024-11-08T17:00:00	5	Humedad	60
175549	7	Sololá	716	San Marcos la Laguna 	11	San Marcos la laguna 	2	Febrero	2023-07-02T00:00:00	2024-11-08T17:00:00	6	Velocidad del viento	8
175550	7	Sololá	716	San Marcos la Laguna 	11	San Marcos la laguna 	2	Febrero	2023-07-02T00:00:00	2024-11-08T17:00:00	7	Dirección del viento	8.05
175551	7	Sololá	716	San Marcos la Laguna 	11	San Marcos la laguna 	2	Febrero	2023-07-02T00:00:00	2024-11-08T17:00:00	1	Precipitación	0
175552	7	Sololá	716	San Marcos la Laguna 	11	San Marcos la laguna 	2	Febrero	2023-07-02T00:00:00	2024-11-08T17:00:00	8	Radiación solar	269
175553	7	Sololá	716	San Marcos la Laguna 	11	San Marcos la laguna 	2	Febrero	2023-07-02T00:00:00	2024-11-08T18:00:00	2	Temperatura media	19.8
175554	7	Sololá	716	San Marcos la Laguna 	11	San Marcos la laguna 	2	Febrero	2023-07-02T00:00:00	2024-11-08T18:00:00	4	Temperatura máxima	22.1
175555	7	Sololá	716	San Marcos la Laguna 	11	San Marcos la laguna 	2	Febrero	2023-07-02T00:00:00	2024-11-08T18:00:00	3	Temperatura mínima	19.8
175556	7	Sololá	716	San Marcos la Laguna 	11	San Marcos la laguna 	2	Febrero	2023-07-02T00:00:00	2024-11-08T18:00:00	5	Humedad	75
175557	7	Sololá	716	San Marcos la Laguna 	11	San Marcos la laguna 	2	Febrero	2023-07-02T00:00:00	2024-11-08T18:00:00	6	Velocidad del viento	4.8
175558	7	Sololá	716	San Marcos la Laguna 	11	San Marcos la laguna 	2	Febrero	2023-07-02T00:00:00	2024-11-08T18:00:00	7	Dirección del viento	4.83
175559	7	Sololá	716	San Marcos la Laguna 	11	San Marcos la laguna 	2	Febrero	2023-07-02T00:00:00	2024-11-08T18:00:00	1	Precipitación	0
175560	7	Sololá	716	San Marcos la Laguna 	11	San Marcos la laguna 	2	Febrero	2023-07-02T00:00:00	2024-11-08T18:00:00	8	Radiación solar	55
175561	7	Sololá	716	San Marcos la Laguna 	11	San Marcos la laguna 	2	Febrero	2023-07-02T00:00:00	2024-11-08T19:00:00	2	Temperatura media	18.7
175562	7	Sololá	716	San Marcos la Laguna 	11	San Marcos la laguna 	2	Febrero	2023-07-02T00:00:00	2024-11-08T19:00:00	4	Temperatura máxima	19.8
175563	7	Sololá	716	San Marcos la Laguna 	11	San Marcos la laguna 	2	Febrero	2023-07-02T00:00:00	2024-11-08T19:00:00	3	Temperatura mínima	18.7
175564	7	Sololá	716	San Marcos la Laguna 	11	San Marcos la laguna 	2	Febrero	2023-07-02T00:00:00	2024-11-08T19:00:00	5	Humedad	72
175565	7	Sololá	716	San Marcos la Laguna 	11	San Marcos la laguna 	2	Febrero	2023-07-02T00:00:00	2024-11-08T19:00:00	6	Velocidad del viento	3.2
175566	7	Sololá	716	San Marcos la Laguna 	11	San Marcos la laguna 	2	Febrero	2023-07-02T00:00:00	2024-11-08T19:00:00	7	Dirección del viento	3.22
175567	7	Sololá	716	San Marcos la Laguna 	11	San Marcos la laguna 	2	Febrero	2023-07-02T00:00:00	2024-11-08T19:00:00	1	Precipitación	0
175568	7	Sololá	716	San Marcos la Laguna 	11	San Marcos la laguna 	2	Febrero	2023-07-02T00:00:00	2024-11-08T19:00:00	8	Radiación solar	0
175569	7	Sololá	716	San Marcos la Laguna 	11	San Marcos la laguna 	2	Febrero	2023-07-02T00:00:00	2024-11-08T20:00:00	2	Temperatura media	17.4
175570	7	Sololá	716	San Marcos la Laguna 	11	San Marcos la laguna 	2	Febrero	2023-07-02T00:00:00	2024-11-08T20:00:00	4	Temperatura máxima	18.7
175571	7	Sololá	716	San Marcos la Laguna 	11	San Marcos la laguna 	2	Febrero	2023-07-02T00:00:00	2024-11-08T20:00:00	3	Temperatura mínima	17.2
175572	7	Sololá	716	San Marcos la Laguna 	11	San Marcos la laguna 	2	Febrero	2023-07-02T00:00:00	2024-11-08T20:00:00	5	Humedad	74
175573	7	Sololá	716	San Marcos la Laguna 	11	San Marcos la laguna 	2	Febrero	2023-07-02T00:00:00	2024-11-08T20:00:00	6	Velocidad del viento	4.8
175574	7	Sololá	716	San Marcos la Laguna 	11	San Marcos la laguna 	2	Febrero	2023-07-02T00:00:00	2024-11-08T20:00:00	7	Dirección del viento	4.83
175575	7	Sololá	716	San Marcos la Laguna 	11	San Marcos la laguna 	2	Febrero	2023-07-02T00:00:00	2024-11-08T20:00:00	1	Precipitación	0
175576	7	Sololá	716	San Marcos la Laguna 	11	San Marcos la laguna 	2	Febrero	2023-07-02T00:00:00	2024-11-08T20:00:00	8	Radiación solar	0
175577	7	Sololá	716	San Marcos la Laguna 	11	San Marcos la laguna 	2	Febrero	2023-07-02T00:00:00	2024-11-08T21:00:00	2	Temperatura media	16.6
175578	7	Sololá	716	San Marcos la Laguna 	11	San Marcos la laguna 	2	Febrero	2023-07-02T00:00:00	2024-11-08T21:00:00	4	Temperatura máxima	17.4
175579	7	Sololá	716	San Marcos la Laguna 	11	San Marcos la laguna 	2	Febrero	2023-07-02T00:00:00	2024-11-08T21:00:00	3	Temperatura mínima	16.6
175580	7	Sololá	716	San Marcos la Laguna 	11	San Marcos la laguna 	2	Febrero	2023-07-02T00:00:00	2024-11-08T21:00:00	5	Humedad	77
175581	7	Sololá	716	San Marcos la Laguna 	11	San Marcos la laguna 	2	Febrero	2023-07-02T00:00:00	2024-11-08T21:00:00	6	Velocidad del viento	6.4
175582	7	Sololá	716	San Marcos la Laguna 	11	San Marcos la laguna 	2	Febrero	2023-07-02T00:00:00	2024-11-08T21:00:00	7	Dirección del viento	6.44
175583	7	Sololá	716	San Marcos la Laguna 	11	San Marcos la laguna 	2	Febrero	2023-07-02T00:00:00	2024-11-08T21:00:00	1	Precipitación	0
175584	7	Sololá	716	San Marcos la Laguna 	11	San Marcos la laguna 	2	Febrero	2023-07-02T00:00:00	2024-11-08T21:00:00	8	Radiación solar	0
175585	7	Sololá	716	San Marcos la Laguna 	11	San Marcos la laguna 	2	Febrero	2023-07-02T00:00:00	2024-11-08T22:00:00	2	Temperatura media	16.2
175586	7	Sololá	716	San Marcos la Laguna 	11	San Marcos la laguna 	2	Febrero	2023-07-02T00:00:00	2024-11-08T22:00:00	4	Temperatura máxima	16.7
175587	7	Sololá	716	San Marcos la Laguna 	11	San Marcos la laguna 	2	Febrero	2023-07-02T00:00:00	2024-11-08T22:00:00	3	Temperatura mínima	16.2
175588	7	Sololá	716	San Marcos la Laguna 	11	San Marcos la laguna 	2	Febrero	2023-07-02T00:00:00	2024-11-08T22:00:00	5	Humedad	77
175589	7	Sololá	716	San Marcos la Laguna 	11	San Marcos la laguna 	2	Febrero	2023-07-02T00:00:00	2024-11-08T22:00:00	6	Velocidad del viento	4.8
175590	7	Sololá	716	San Marcos la Laguna 	11	San Marcos la laguna 	2	Febrero	2023-07-02T00:00:00	2024-11-08T22:00:00	7	Dirección del viento	4.83
175591	7	Sololá	716	San Marcos la Laguna 	11	San Marcos la laguna 	2	Febrero	2023-07-02T00:00:00	2024-11-08T22:00:00	1	Precipitación	0
175592	7	Sololá	716	San Marcos la Laguna 	11	San Marcos la laguna 	2	Febrero	2023-07-02T00:00:00	2024-11-08T22:00:00	8	Radiación solar	0
175593	7	Sololá	716	San Marcos la Laguna 	11	San Marcos la laguna 	2	Febrero	2023-07-02T00:00:00	2024-11-08T23:00:00	2	Temperatura media	15.8
175594	7	Sololá	716	San Marcos la Laguna 	11	San Marcos la laguna 	2	Febrero	2023-07-02T00:00:00	2024-11-08T23:00:00	4	Temperatura máxima	16.3
175595	7	Sololá	716	San Marcos la Laguna 	11	San Marcos la laguna 	2	Febrero	2023-07-02T00:00:00	2024-11-08T23:00:00	3	Temperatura mínima	15.8
175596	7	Sololá	716	San Marcos la Laguna 	11	San Marcos la laguna 	2	Febrero	2023-07-02T00:00:00	2024-11-08T23:00:00	5	Humedad	77
175597	7	Sololá	716	San Marcos la Laguna 	11	San Marcos la laguna 	2	Febrero	2023-07-02T00:00:00	2024-11-08T23:00:00	6	Velocidad del viento	6.4
175598	7	Sololá	716	San Marcos la Laguna 	11	San Marcos la laguna 	2	Febrero	2023-07-02T00:00:00	2024-11-08T23:00:00	7	Dirección del viento	6.44
175599	7	Sololá	716	San Marcos la Laguna 	11	San Marcos la laguna 	2	Febrero	2023-07-02T00:00:00	2024-11-08T23:00:00	1	Precipitación	0
175600	7	Sololá	716	San Marcos la Laguna 	11	San Marcos la laguna 	2	Febrero	2023-07-02T00:00:00	2024-11-08T23:00:00	8	Radiación solar	0
175601	7	Sololá	716	San Marcos la Laguna 	11	San Marcos la laguna 	2	Febrero	2023-08-02T00:00:00	2024-11-08T00:00:00	2	Temperatura media	15.6
175602	7	Sololá	716	San Marcos la Laguna 	11	San Marcos la laguna 	2	Febrero	2023-08-02T00:00:00	2024-11-08T00:00:00	4	Temperatura máxima	16.2
175603	7	Sololá	716	San Marcos la Laguna 	11	San Marcos la laguna 	2	Febrero	2023-08-02T00:00:00	2024-11-08T00:00:00	3	Temperatura mínima	15.6
175604	7	Sololá	716	San Marcos la Laguna 	11	San Marcos la laguna 	2	Febrero	2023-08-02T00:00:00	2024-11-08T00:00:00	5	Humedad	75
175605	7	Sololá	716	San Marcos la Laguna 	11	San Marcos la laguna 	2	Febrero	2023-08-02T00:00:00	2024-11-08T00:00:00	6	Velocidad del viento	8
175606	7	Sololá	716	San Marcos la Laguna 	11	San Marcos la laguna 	2	Febrero	2023-08-02T00:00:00	2024-11-08T00:00:00	7	Dirección del viento	8.05
175607	7	Sololá	716	San Marcos la Laguna 	11	San Marcos la laguna 	2	Febrero	2023-08-02T00:00:00	2024-11-08T00:00:00	1	Precipitación	0
175608	7	Sololá	716	San Marcos la Laguna 	11	San Marcos la laguna 	2	Febrero	2023-08-02T00:00:00	2024-11-08T00:00:00	8	Radiación solar	0
175609	7	Sololá	716	San Marcos la Laguna 	11	San Marcos la laguna 	2	Febrero	2023-08-02T00:00:00	2024-11-08T01:00:00	2	Temperatura media	15.6
175610	7	Sololá	716	San Marcos la Laguna 	11	San Marcos la laguna 	2	Febrero	2023-08-02T00:00:00	2024-11-08T01:00:00	4	Temperatura máxima	15.8
175611	7	Sololá	716	San Marcos la Laguna 	11	San Marcos la laguna 	2	Febrero	2023-08-02T00:00:00	2024-11-08T01:00:00	3	Temperatura mínima	15.4
175612	7	Sololá	716	San Marcos la Laguna 	11	San Marcos la laguna 	2	Febrero	2023-08-02T00:00:00	2024-11-08T01:00:00	5	Humedad	74
175613	7	Sololá	716	San Marcos la Laguna 	11	San Marcos la laguna 	2	Febrero	2023-08-02T00:00:00	2024-11-08T01:00:00	6	Velocidad del viento	8
175614	7	Sololá	716	San Marcos la Laguna 	11	San Marcos la laguna 	2	Febrero	2023-08-02T00:00:00	2024-11-08T01:00:00	7	Dirección del viento	8.05
175615	7	Sololá	716	San Marcos la Laguna 	11	San Marcos la laguna 	2	Febrero	2023-08-02T00:00:00	2024-11-08T01:00:00	1	Precipitación	0
175616	7	Sololá	716	San Marcos la Laguna 	11	San Marcos la laguna 	2	Febrero	2023-08-02T00:00:00	2024-11-08T01:00:00	8	Radiación solar	0
175617	7	Sololá	716	San Marcos la Laguna 	11	San Marcos la laguna 	2	Febrero	2023-08-02T00:00:00	2024-11-08T02:00:00	2	Temperatura media	15
175618	7	Sololá	716	San Marcos la Laguna 	11	San Marcos la laguna 	2	Febrero	2023-08-02T00:00:00	2024-11-08T02:00:00	4	Temperatura máxima	15.8
175619	7	Sololá	716	San Marcos la Laguna 	11	San Marcos la laguna 	2	Febrero	2023-08-02T00:00:00	2024-11-08T02:00:00	3	Temperatura mínima	14.9
175620	7	Sololá	716	San Marcos la Laguna 	11	San Marcos la laguna 	2	Febrero	2023-08-02T00:00:00	2024-11-08T02:00:00	5	Humedad	76
175621	7	Sololá	716	San Marcos la Laguna 	11	San Marcos la laguna 	2	Febrero	2023-08-02T00:00:00	2024-11-08T02:00:00	6	Velocidad del viento	8
175622	7	Sololá	716	San Marcos la Laguna 	11	San Marcos la laguna 	2	Febrero	2023-08-02T00:00:00	2024-11-08T02:00:00	7	Dirección del viento	8.05
175623	7	Sololá	716	San Marcos la Laguna 	11	San Marcos la laguna 	2	Febrero	2023-08-02T00:00:00	2024-11-08T02:00:00	1	Precipitación	0
175624	7	Sololá	716	San Marcos la Laguna 	11	San Marcos la laguna 	2	Febrero	2023-08-02T00:00:00	2024-11-08T02:00:00	8	Radiación solar	0
175625	7	Sololá	716	San Marcos la Laguna 	11	San Marcos la laguna 	2	Febrero	2023-08-02T00:00:00	2024-11-08T03:00:00	2	Temperatura media	15.1
175626	7	Sololá	716	San Marcos la Laguna 	11	San Marcos la laguna 	2	Febrero	2023-08-02T00:00:00	2024-11-08T03:00:00	4	Temperatura máxima	15.1
175627	7	Sololá	716	San Marcos la Laguna 	11	San Marcos la laguna 	2	Febrero	2023-08-02T00:00:00	2024-11-08T03:00:00	3	Temperatura mínima	14.5
175628	7	Sololá	716	San Marcos la Laguna 	11	San Marcos la laguna 	2	Febrero	2023-08-02T00:00:00	2024-11-08T03:00:00	5	Humedad	77
175629	7	Sololá	716	San Marcos la Laguna 	11	San Marcos la laguna 	2	Febrero	2023-08-02T00:00:00	2024-11-08T03:00:00	6	Velocidad del viento	8
175630	7	Sololá	716	San Marcos la Laguna 	11	San Marcos la laguna 	2	Febrero	2023-08-02T00:00:00	2024-11-08T03:00:00	7	Dirección del viento	8.05
175631	7	Sololá	716	San Marcos la Laguna 	11	San Marcos la laguna 	2	Febrero	2023-08-02T00:00:00	2024-11-08T03:00:00	1	Precipitación	0
175632	7	Sololá	716	San Marcos la Laguna 	11	San Marcos la laguna 	2	Febrero	2023-08-02T00:00:00	2024-11-08T03:00:00	8	Radiación solar	0
175633	7	Sololá	716	San Marcos la Laguna 	11	San Marcos la laguna 	2	Febrero	2023-08-02T00:00:00	2024-11-08T04:00:00	2	Temperatura media	14.6
175634	7	Sololá	716	San Marcos la Laguna 	11	San Marcos la laguna 	2	Febrero	2023-08-02T00:00:00	2024-11-08T04:00:00	4	Temperatura máxima	15.1
175635	7	Sololá	716	San Marcos la Laguna 	11	San Marcos la laguna 	2	Febrero	2023-08-02T00:00:00	2024-11-08T04:00:00	3	Temperatura mínima	14.3
175636	7	Sololá	716	San Marcos la Laguna 	11	San Marcos la laguna 	2	Febrero	2023-08-02T00:00:00	2024-11-08T04:00:00	5	Humedad	76
175637	7	Sololá	716	San Marcos la Laguna 	11	San Marcos la laguna 	2	Febrero	2023-08-02T00:00:00	2024-11-08T04:00:00	6	Velocidad del viento	6.4
175638	7	Sololá	716	San Marcos la Laguna 	11	San Marcos la laguna 	2	Febrero	2023-08-02T00:00:00	2024-11-08T04:00:00	7	Dirección del viento	6.44
175639	7	Sololá	716	San Marcos la Laguna 	11	San Marcos la laguna 	2	Febrero	2023-08-02T00:00:00	2024-11-08T04:00:00	1	Precipitación	0
175640	7	Sololá	716	San Marcos la Laguna 	11	San Marcos la laguna 	2	Febrero	2023-08-02T00:00:00	2024-11-08T04:00:00	8	Radiación solar	0
175641	7	Sololá	716	San Marcos la Laguna 	11	San Marcos la laguna 	2	Febrero	2023-08-02T00:00:00	2024-11-08T05:00:00	2	Temperatura media	13.3
175642	7	Sololá	716	San Marcos la Laguna 	11	San Marcos la laguna 	2	Febrero	2023-08-02T00:00:00	2024-11-08T05:00:00	4	Temperatura máxima	14.6
175643	7	Sololá	716	San Marcos la Laguna 	11	San Marcos la laguna 	2	Febrero	2023-08-02T00:00:00	2024-11-08T05:00:00	3	Temperatura mínima	13.3
175644	7	Sololá	716	San Marcos la Laguna 	11	San Marcos la laguna 	2	Febrero	2023-08-02T00:00:00	2024-11-08T05:00:00	5	Humedad	80
175645	7	Sololá	716	San Marcos la Laguna 	11	San Marcos la laguna 	2	Febrero	2023-08-02T00:00:00	2024-11-08T05:00:00	6	Velocidad del viento	6.4
175646	7	Sololá	716	San Marcos la Laguna 	11	San Marcos la laguna 	2	Febrero	2023-08-02T00:00:00	2024-11-08T05:00:00	7	Dirección del viento	6.44
175647	7	Sololá	716	San Marcos la Laguna 	11	San Marcos la laguna 	2	Febrero	2023-08-02T00:00:00	2024-11-08T05:00:00	1	Precipitación	0
175648	7	Sololá	716	San Marcos la Laguna 	11	San Marcos la laguna 	2	Febrero	2023-08-02T00:00:00	2024-11-08T05:00:00	8	Radiación solar	0
175649	7	Sololá	716	San Marcos la Laguna 	11	San Marcos la laguna 	2	Febrero	2023-08-02T00:00:00	2024-11-08T06:00:00	2	Temperatura media	13.3
175650	7	Sololá	716	San Marcos la Laguna 	11	San Marcos la laguna 	2	Febrero	2023-08-02T00:00:00	2024-11-08T06:00:00	4	Temperatura máxima	13.5
175651	7	Sololá	716	San Marcos la Laguna 	11	San Marcos la laguna 	2	Febrero	2023-08-02T00:00:00	2024-11-08T06:00:00	3	Temperatura mínima	12.9
175652	7	Sololá	716	San Marcos la Laguna 	11	San Marcos la laguna 	2	Febrero	2023-08-02T00:00:00	2024-11-08T06:00:00	5	Humedad	78
175653	7	Sololá	716	San Marcos la Laguna 	11	San Marcos la laguna 	2	Febrero	2023-08-02T00:00:00	2024-11-08T06:00:00	6	Velocidad del viento	6.4
175654	7	Sololá	716	San Marcos la Laguna 	11	San Marcos la laguna 	2	Febrero	2023-08-02T00:00:00	2024-11-08T06:00:00	7	Dirección del viento	6.44
175655	7	Sololá	716	San Marcos la Laguna 	11	San Marcos la laguna 	2	Febrero	2023-08-02T00:00:00	2024-11-08T06:00:00	1	Precipitación	0
175656	7	Sololá	716	San Marcos la Laguna 	11	San Marcos la laguna 	2	Febrero	2023-08-02T00:00:00	2024-11-08T06:00:00	8	Radiación solar	0
175657	7	Sololá	716	San Marcos la Laguna 	11	San Marcos la laguna 	2	Febrero	2023-08-02T00:00:00	2024-11-08T07:00:00	2	Temperatura media	13.3
175658	7	Sololá	716	San Marcos la Laguna 	11	San Marcos la laguna 	2	Febrero	2023-08-02T00:00:00	2024-11-08T07:00:00	4	Temperatura máxima	13.3
175659	7	Sololá	716	San Marcos la Laguna 	11	San Marcos la laguna 	2	Febrero	2023-08-02T00:00:00	2024-11-08T07:00:00	3	Temperatura mínima	12.8
175660	7	Sololá	716	San Marcos la Laguna 	11	San Marcos la laguna 	2	Febrero	2023-08-02T00:00:00	2024-11-08T07:00:00	5	Humedad	76
175661	7	Sololá	716	San Marcos la Laguna 	11	San Marcos la laguna 	2	Febrero	2023-08-02T00:00:00	2024-11-08T07:00:00	6	Velocidad del viento	6.4
175662	7	Sololá	716	San Marcos la Laguna 	11	San Marcos la laguna 	2	Febrero	2023-08-02T00:00:00	2024-11-08T07:00:00	7	Dirección del viento	6.44
175663	7	Sololá	716	San Marcos la Laguna 	11	San Marcos la laguna 	2	Febrero	2023-08-02T00:00:00	2024-11-08T07:00:00	1	Precipitación	0
175664	7	Sololá	716	San Marcos la Laguna 	11	San Marcos la laguna 	2	Febrero	2023-08-02T00:00:00	2024-11-08T07:00:00	8	Radiación solar	5
175665	7	Sololá	716	San Marcos la Laguna 	11	San Marcos la laguna 	2	Febrero	2023-08-02T00:00:00	2024-11-08T08:00:00	2	Temperatura media	17.1
175666	7	Sololá	716	San Marcos la Laguna 	11	San Marcos la laguna 	2	Febrero	2023-08-02T00:00:00	2024-11-08T08:00:00	4	Temperatura máxima	17.1
175667	7	Sololá	716	San Marcos la Laguna 	11	San Marcos la laguna 	2	Febrero	2023-08-02T00:00:00	2024-11-08T08:00:00	3	Temperatura mínima	13.3
175668	7	Sololá	716	San Marcos la Laguna 	11	San Marcos la laguna 	2	Febrero	2023-08-02T00:00:00	2024-11-08T08:00:00	5	Humedad	75
175669	7	Sololá	716	San Marcos la Laguna 	11	San Marcos la laguna 	2	Febrero	2023-08-02T00:00:00	2024-11-08T08:00:00	6	Velocidad del viento	4.8
175670	7	Sololá	716	San Marcos la Laguna 	11	San Marcos la laguna 	2	Febrero	2023-08-02T00:00:00	2024-11-08T08:00:00	7	Dirección del viento	4.83
175671	7	Sololá	716	San Marcos la Laguna 	11	San Marcos la laguna 	2	Febrero	2023-08-02T00:00:00	2024-11-08T08:00:00	1	Precipitación	0
175672	7	Sololá	716	San Marcos la Laguna 	11	San Marcos la laguna 	2	Febrero	2023-08-02T00:00:00	2024-11-08T08:00:00	8	Radiación solar	125
175673	7	Sololá	716	San Marcos la Laguna 	11	San Marcos la laguna 	2	Febrero	2023-08-02T00:00:00	2024-11-08T09:00:00	2	Temperatura media	19
175674	7	Sololá	716	San Marcos la Laguna 	11	San Marcos la laguna 	2	Febrero	2023-08-02T00:00:00	2024-11-08T09:00:00	4	Temperatura máxima	19.1
175675	7	Sololá	716	San Marcos la Laguna 	11	San Marcos la laguna 	2	Febrero	2023-08-02T00:00:00	2024-11-08T09:00:00	3	Temperatura mínima	17.2
175676	7	Sololá	716	San Marcos la Laguna 	11	San Marcos la laguna 	2	Febrero	2023-08-02T00:00:00	2024-11-08T09:00:00	5	Humedad	72
175677	7	Sololá	716	San Marcos la Laguna 	11	San Marcos la laguna 	2	Febrero	2023-08-02T00:00:00	2024-11-08T09:00:00	6	Velocidad del viento	3.2
175678	7	Sololá	716	San Marcos la Laguna 	11	San Marcos la laguna 	2	Febrero	2023-08-02T00:00:00	2024-11-08T09:00:00	7	Dirección del viento	3.22
175679	7	Sololá	716	San Marcos la Laguna 	11	San Marcos la laguna 	2	Febrero	2023-08-02T00:00:00	2024-11-08T09:00:00	1	Precipitación	0
175680	7	Sololá	716	San Marcos la Laguna 	11	San Marcos la laguna 	2	Febrero	2023-08-02T00:00:00	2024-11-08T09:00:00	8	Radiación solar	353
175681	7	Sololá	716	San Marcos la Laguna 	11	San Marcos la laguna 	2	Febrero	2023-08-02T00:00:00	2024-11-08T10:00:00	2	Temperatura media	20.3
175682	7	Sololá	716	San Marcos la Laguna 	11	San Marcos la laguna 	2	Febrero	2023-08-02T00:00:00	2024-11-08T10:00:00	4	Temperatura máxima	20.3
175683	7	Sololá	716	San Marcos la Laguna 	11	San Marcos la laguna 	2	Febrero	2023-08-02T00:00:00	2024-11-08T10:00:00	3	Temperatura mínima	19
175684	7	Sololá	716	San Marcos la Laguna 	11	San Marcos la laguna 	2	Febrero	2023-08-02T00:00:00	2024-11-08T10:00:00	5	Humedad	63
175685	7	Sololá	716	San Marcos la Laguna 	11	San Marcos la laguna 	2	Febrero	2023-08-02T00:00:00	2024-11-08T10:00:00	6	Velocidad del viento	3.2
175686	7	Sololá	716	San Marcos la Laguna 	11	San Marcos la laguna 	2	Febrero	2023-08-02T00:00:00	2024-11-08T10:00:00	7	Dirección del viento	3.22
175687	7	Sololá	716	San Marcos la Laguna 	11	San Marcos la laguna 	2	Febrero	2023-08-02T00:00:00	2024-11-08T10:00:00	1	Precipitación	0
175688	7	Sololá	716	San Marcos la Laguna 	11	San Marcos la laguna 	2	Febrero	2023-08-02T00:00:00	2024-11-08T10:00:00	8	Radiación solar	549
175689	7	Sololá	716	San Marcos la Laguna 	11	San Marcos la laguna 	2	Febrero	2023-08-02T00:00:00	2024-11-08T11:00:00	2	Temperatura media	21.1
175690	7	Sololá	716	San Marcos la Laguna 	11	San Marcos la laguna 	2	Febrero	2023-08-02T00:00:00	2024-11-08T11:00:00	4	Temperatura máxima	21.6
175691	7	Sololá	716	San Marcos la Laguna 	11	San Marcos la laguna 	2	Febrero	2023-08-02T00:00:00	2024-11-08T11:00:00	3	Temperatura mínima	20.3
175692	7	Sololá	716	San Marcos la Laguna 	11	San Marcos la laguna 	2	Febrero	2023-08-02T00:00:00	2024-11-08T11:00:00	5	Humedad	53
175693	7	Sololá	716	San Marcos la Laguna 	11	San Marcos la laguna 	2	Febrero	2023-08-02T00:00:00	2024-11-08T11:00:00	6	Velocidad del viento	4.8
175694	7	Sololá	716	San Marcos la Laguna 	11	San Marcos la laguna 	2	Febrero	2023-08-02T00:00:00	2024-11-08T11:00:00	7	Dirección del viento	4.83
175695	7	Sololá	716	San Marcos la Laguna 	11	San Marcos la laguna 	2	Febrero	2023-08-02T00:00:00	2024-11-08T11:00:00	1	Precipitación	0
175696	7	Sololá	716	San Marcos la Laguna 	11	San Marcos la laguna 	2	Febrero	2023-08-02T00:00:00	2024-11-08T11:00:00	8	Radiación solar	665
175697	7	Sololá	716	San Marcos la Laguna 	11	San Marcos la laguna 	2	Febrero	2023-08-02T00:00:00	2024-11-08T12:00:00	2	Temperatura media	21.7
175698	7	Sololá	716	San Marcos la Laguna 	11	San Marcos la laguna 	2	Febrero	2023-08-02T00:00:00	2024-11-08T12:00:00	4	Temperatura máxima	21.7
175699	7	Sololá	716	San Marcos la Laguna 	11	San Marcos la laguna 	2	Febrero	2023-08-02T00:00:00	2024-11-08T12:00:00	3	Temperatura mínima	20.9
175700	7	Sololá	716	San Marcos la Laguna 	11	San Marcos la laguna 	2	Febrero	2023-08-02T00:00:00	2024-11-08T12:00:00	5	Humedad	67
175701	7	Sololá	716	San Marcos la Laguna 	11	San Marcos la laguna 	2	Febrero	2023-08-02T00:00:00	2024-11-08T12:00:00	6	Velocidad del viento	11.3
175702	7	Sololá	716	San Marcos la Laguna 	11	San Marcos la laguna 	2	Febrero	2023-08-02T00:00:00	2024-11-08T12:00:00	7	Dirección del viento	11.27
175703	7	Sololá	716	San Marcos la Laguna 	11	San Marcos la laguna 	2	Febrero	2023-08-02T00:00:00	2024-11-08T12:00:00	1	Precipitación	0
175704	7	Sololá	716	San Marcos la Laguna 	11	San Marcos la laguna 	2	Febrero	2023-08-02T00:00:00	2024-11-08T12:00:00	8	Radiación solar	709
175705	7	Sololá	716	San Marcos la Laguna 	11	San Marcos la laguna 	2	Febrero	2023-08-02T00:00:00	2024-11-08T13:00:00	2	Temperatura media	21.3
175706	7	Sololá	716	San Marcos la Laguna 	11	San Marcos la laguna 	2	Febrero	2023-08-02T00:00:00	2024-11-08T13:00:00	4	Temperatura máxima	21.8
175707	7	Sololá	716	San Marcos la Laguna 	11	San Marcos la laguna 	2	Febrero	2023-08-02T00:00:00	2024-11-08T13:00:00	3	Temperatura mínima	21.3
175708	7	Sololá	716	San Marcos la Laguna 	11	San Marcos la laguna 	2	Febrero	2023-08-02T00:00:00	2024-11-08T13:00:00	5	Humedad	65
175709	7	Sololá	716	San Marcos la Laguna 	11	San Marcos la laguna 	2	Febrero	2023-08-02T00:00:00	2024-11-08T13:00:00	6	Velocidad del viento	12.9
175710	7	Sololá	716	San Marcos la Laguna 	11	San Marcos la laguna 	2	Febrero	2023-08-02T00:00:00	2024-11-08T13:00:00	7	Dirección del viento	12.87
175711	7	Sololá	716	San Marcos la Laguna 	11	San Marcos la laguna 	2	Febrero	2023-08-02T00:00:00	2024-11-08T13:00:00	1	Precipitación	0
175712	7	Sololá	716	San Marcos la Laguna 	11	San Marcos la laguna 	2	Febrero	2023-08-02T00:00:00	2024-11-08T13:00:00	8	Radiación solar	804
175713	7	Sololá	716	San Marcos la Laguna 	11	San Marcos la laguna 	2	Febrero	2023-08-02T00:00:00	2024-11-08T14:00:00	2	Temperatura media	22.1
175714	7	Sololá	716	San Marcos la Laguna 	11	San Marcos la laguna 	2	Febrero	2023-08-02T00:00:00	2024-11-08T14:00:00	4	Temperatura máxima	22.6
175715	7	Sololá	716	San Marcos la Laguna 	11	San Marcos la laguna 	2	Febrero	2023-08-02T00:00:00	2024-11-08T14:00:00	3	Temperatura mínima	21.3
175716	7	Sololá	716	San Marcos la Laguna 	11	San Marcos la laguna 	2	Febrero	2023-08-02T00:00:00	2024-11-08T14:00:00	5	Humedad	65
175717	7	Sololá	716	San Marcos la Laguna 	11	San Marcos la laguna 	2	Febrero	2023-08-02T00:00:00	2024-11-08T14:00:00	6	Velocidad del viento	11.3
175718	7	Sololá	716	San Marcos la Laguna 	11	San Marcos la laguna 	2	Febrero	2023-08-02T00:00:00	2024-11-08T14:00:00	7	Dirección del viento	11.27
175719	7	Sololá	716	San Marcos la Laguna 	11	San Marcos la laguna 	2	Febrero	2023-08-02T00:00:00	2024-11-08T14:00:00	1	Precipitación	0
175720	7	Sololá	716	San Marcos la Laguna 	11	San Marcos la laguna 	2	Febrero	2023-08-02T00:00:00	2024-11-08T14:00:00	8	Radiación solar	752
175721	7	Sololá	716	San Marcos la Laguna 	11	San Marcos la laguna 	2	Febrero	2023-08-02T00:00:00	2024-11-08T15:00:00	2	Temperatura media	22.3
175722	7	Sololá	716	San Marcos la Laguna 	11	San Marcos la laguna 	2	Febrero	2023-08-02T00:00:00	2024-11-08T15:00:00	4	Temperatura máxima	22.5
175723	7	Sololá	716	San Marcos la Laguna 	11	San Marcos la laguna 	2	Febrero	2023-08-02T00:00:00	2024-11-08T15:00:00	3	Temperatura mínima	22
175724	7	Sololá	716	San Marcos la Laguna 	11	San Marcos la laguna 	2	Febrero	2023-08-02T00:00:00	2024-11-08T15:00:00	5	Humedad	66
175725	7	Sololá	716	San Marcos la Laguna 	11	San Marcos la laguna 	2	Febrero	2023-08-02T00:00:00	2024-11-08T15:00:00	6	Velocidad del viento	11.3
175726	7	Sololá	716	San Marcos la Laguna 	11	San Marcos la laguna 	2	Febrero	2023-08-02T00:00:00	2024-11-08T15:00:00	7	Dirección del viento	11.27
175727	7	Sololá	716	San Marcos la Laguna 	11	San Marcos la laguna 	2	Febrero	2023-08-02T00:00:00	2024-11-08T15:00:00	1	Precipitación	0
175728	7	Sololá	716	San Marcos la Laguna 	11	San Marcos la laguna 	2	Febrero	2023-08-02T00:00:00	2024-11-08T15:00:00	8	Radiación solar	629
175729	7	Sololá	716	San Marcos la Laguna 	11	San Marcos la laguna 	2	Febrero	2023-08-02T00:00:00	2024-11-08T16:00:00	2	Temperatura media	22.9
175730	7	Sololá	716	San Marcos la Laguna 	11	San Marcos la laguna 	2	Febrero	2023-08-02T00:00:00	2024-11-08T16:00:00	4	Temperatura máxima	23.7
175731	7	Sololá	716	San Marcos la Laguna 	11	San Marcos la laguna 	2	Febrero	2023-08-02T00:00:00	2024-11-08T16:00:00	3	Temperatura mínima	22.2
175732	7	Sololá	716	San Marcos la Laguna 	11	San Marcos la laguna 	2	Febrero	2023-08-02T00:00:00	2024-11-08T16:00:00	5	Humedad	66
175733	7	Sololá	716	San Marcos la Laguna 	11	San Marcos la laguna 	2	Febrero	2023-08-02T00:00:00	2024-11-08T16:00:00	6	Velocidad del viento	6.4
175734	7	Sololá	716	San Marcos la Laguna 	11	San Marcos la laguna 	2	Febrero	2023-08-02T00:00:00	2024-11-08T16:00:00	7	Dirección del viento	6.44
175735	7	Sololá	716	San Marcos la Laguna 	11	San Marcos la laguna 	2	Febrero	2023-08-02T00:00:00	2024-11-08T16:00:00	1	Precipitación	0
175736	7	Sololá	716	San Marcos la Laguna 	11	San Marcos la laguna 	2	Febrero	2023-08-02T00:00:00	2024-11-08T16:00:00	8	Radiación solar	487
175737	7	Sololá	716	San Marcos la Laguna 	11	San Marcos la laguna 	2	Febrero	2023-08-02T00:00:00	2024-11-08T17:00:00	2	Temperatura media	21.4
175738	7	Sololá	716	San Marcos la Laguna 	11	San Marcos la laguna 	2	Febrero	2023-08-02T00:00:00	2024-11-08T17:00:00	4	Temperatura máxima	22.9
175739	7	Sololá	716	San Marcos la Laguna 	11	San Marcos la laguna 	2	Febrero	2023-08-02T00:00:00	2024-11-08T17:00:00	3	Temperatura mínima	21.3
175740	7	Sololá	716	San Marcos la Laguna 	11	San Marcos la laguna 	2	Febrero	2023-08-02T00:00:00	2024-11-08T17:00:00	5	Humedad	72
175741	7	Sololá	716	San Marcos la Laguna 	11	San Marcos la laguna 	2	Febrero	2023-08-02T00:00:00	2024-11-08T17:00:00	6	Velocidad del viento	6.4
175742	7	Sololá	716	San Marcos la Laguna 	11	San Marcos la laguna 	2	Febrero	2023-08-02T00:00:00	2024-11-08T17:00:00	7	Dirección del viento	6.44
175743	7	Sololá	716	San Marcos la Laguna 	11	San Marcos la laguna 	2	Febrero	2023-08-02T00:00:00	2024-11-08T17:00:00	1	Precipitación	0
175744	7	Sololá	716	San Marcos la Laguna 	11	San Marcos la laguna 	2	Febrero	2023-08-02T00:00:00	2024-11-08T17:00:00	8	Radiación solar	204
175745	7	Sololá	716	San Marcos la Laguna 	11	San Marcos la laguna 	2	Febrero	2023-08-02T00:00:00	2024-11-08T18:00:00	2	Temperatura media	20.8
175746	7	Sololá	716	San Marcos la Laguna 	11	San Marcos la laguna 	2	Febrero	2023-08-02T00:00:00	2024-11-08T18:00:00	4	Temperatura máxima	21.4
175747	7	Sololá	716	San Marcos la Laguna 	11	San Marcos la laguna 	2	Febrero	2023-08-02T00:00:00	2024-11-08T18:00:00	3	Temperatura mínima	20.8
175748	7	Sololá	716	San Marcos la Laguna 	11	San Marcos la laguna 	2	Febrero	2023-08-02T00:00:00	2024-11-08T18:00:00	5	Humedad	74
175749	7	Sololá	716	San Marcos la Laguna 	11	San Marcos la laguna 	2	Febrero	2023-08-02T00:00:00	2024-11-08T18:00:00	6	Velocidad del viento	3.2
175750	7	Sololá	716	San Marcos la Laguna 	11	San Marcos la laguna 	2	Febrero	2023-08-02T00:00:00	2024-11-08T18:00:00	7	Dirección del viento	3.22
175751	7	Sololá	716	San Marcos la Laguna 	11	San Marcos la laguna 	2	Febrero	2023-08-02T00:00:00	2024-11-08T18:00:00	1	Precipitación	0
175752	7	Sololá	716	San Marcos la Laguna 	11	San Marcos la laguna 	2	Febrero	2023-08-02T00:00:00	2024-11-08T18:00:00	8	Radiación solar	72
175753	7	Sololá	716	San Marcos la Laguna 	11	San Marcos la laguna 	2	Febrero	2023-08-02T00:00:00	2024-11-08T19:00:00	2	Temperatura media	19.7
175754	7	Sololá	716	San Marcos la Laguna 	11	San Marcos la laguna 	2	Febrero	2023-08-02T00:00:00	2024-11-08T19:00:00	4	Temperatura máxima	20.8
175755	7	Sololá	716	San Marcos la Laguna 	11	San Marcos la laguna 	2	Febrero	2023-08-02T00:00:00	2024-11-08T19:00:00	3	Temperatura mínima	19.7
175756	7	Sololá	716	San Marcos la Laguna 	11	San Marcos la laguna 	2	Febrero	2023-08-02T00:00:00	2024-11-08T19:00:00	5	Humedad	76
175757	7	Sololá	716	San Marcos la Laguna 	11	San Marcos la laguna 	2	Febrero	2023-08-02T00:00:00	2024-11-08T19:00:00	6	Velocidad del viento	1.6
175758	7	Sololá	716	San Marcos la Laguna 	11	San Marcos la laguna 	2	Febrero	2023-08-02T00:00:00	2024-11-08T19:00:00	7	Dirección del viento	1.61
175759	7	Sololá	716	San Marcos la Laguna 	11	San Marcos la laguna 	2	Febrero	2023-08-02T00:00:00	2024-11-08T19:00:00	1	Precipitación	0
175760	7	Sololá	716	San Marcos la Laguna 	11	San Marcos la laguna 	2	Febrero	2023-08-02T00:00:00	2024-11-08T19:00:00	8	Radiación solar	0
175761	7	Sololá	716	San Marcos la Laguna 	11	San Marcos la laguna 	2	Febrero	2023-08-02T00:00:00	2024-11-08T20:00:00	2	Temperatura media	18.2
175762	7	Sololá	716	San Marcos la Laguna 	11	San Marcos la laguna 	2	Febrero	2023-08-02T00:00:00	2024-11-08T20:00:00	4	Temperatura máxima	19.7
175763	7	Sololá	716	San Marcos la Laguna 	11	San Marcos la laguna 	2	Febrero	2023-08-02T00:00:00	2024-11-08T20:00:00	3	Temperatura mínima	18.2
175764	7	Sololá	716	San Marcos la Laguna 	11	San Marcos la laguna 	2	Febrero	2023-08-02T00:00:00	2024-11-08T20:00:00	5	Humedad	78
175765	7	Sololá	716	San Marcos la Laguna 	11	San Marcos la laguna 	2	Febrero	2023-08-02T00:00:00	2024-11-08T20:00:00	6	Velocidad del viento	3.2
175766	7	Sololá	716	San Marcos la Laguna 	11	San Marcos la laguna 	2	Febrero	2023-08-02T00:00:00	2024-11-08T20:00:00	7	Dirección del viento	3.22
175767	7	Sololá	716	San Marcos la Laguna 	11	San Marcos la laguna 	2	Febrero	2023-08-02T00:00:00	2024-11-08T20:00:00	1	Precipitación	0
175768	7	Sololá	716	San Marcos la Laguna 	11	San Marcos la laguna 	2	Febrero	2023-08-02T00:00:00	2024-11-08T20:00:00	8	Radiación solar	0
175769	7	Sololá	716	San Marcos la Laguna 	11	San Marcos la laguna 	2	Febrero	2023-08-02T00:00:00	2024-11-08T21:00:00	2	Temperatura media	17.9
175770	7	Sololá	716	San Marcos la Laguna 	11	San Marcos la laguna 	2	Febrero	2023-08-02T00:00:00	2024-11-08T21:00:00	4	Temperatura máxima	18.4
175771	7	Sololá	716	San Marcos la Laguna 	11	San Marcos la laguna 	2	Febrero	2023-08-02T00:00:00	2024-11-08T21:00:00	3	Temperatura mínima	17.7
175772	7	Sololá	716	San Marcos la Laguna 	11	San Marcos la laguna 	2	Febrero	2023-08-02T00:00:00	2024-11-08T21:00:00	5	Humedad	78
175773	7	Sololá	716	San Marcos la Laguna 	11	San Marcos la laguna 	2	Febrero	2023-08-02T00:00:00	2024-11-08T21:00:00	6	Velocidad del viento	6.4
175774	7	Sololá	716	San Marcos la Laguna 	11	San Marcos la laguna 	2	Febrero	2023-08-02T00:00:00	2024-11-08T21:00:00	7	Dirección del viento	6.44
175775	7	Sololá	716	San Marcos la Laguna 	11	San Marcos la laguna 	2	Febrero	2023-08-02T00:00:00	2024-11-08T21:00:00	1	Precipitación	0
175776	7	Sololá	716	San Marcos la Laguna 	11	San Marcos la laguna 	2	Febrero	2023-08-02T00:00:00	2024-11-08T21:00:00	8	Radiación solar	0
175777	7	Sololá	716	San Marcos la Laguna 	11	San Marcos la laguna 	2	Febrero	2023-08-02T00:00:00	2024-11-08T22:00:00	2	Temperatura media	17.9
175778	7	Sololá	716	San Marcos la Laguna 	11	San Marcos la laguna 	2	Febrero	2023-08-02T00:00:00	2024-11-08T22:00:00	4	Temperatura máxima	17.9
175779	7	Sololá	716	San Marcos la Laguna 	11	San Marcos la laguna 	2	Febrero	2023-08-02T00:00:00	2024-11-08T22:00:00	3	Temperatura mínima	17.7
175780	7	Sololá	716	San Marcos la Laguna 	11	San Marcos la laguna 	2	Febrero	2023-08-02T00:00:00	2024-11-08T22:00:00	5	Humedad	80
175781	7	Sololá	716	San Marcos la Laguna 	11	San Marcos la laguna 	2	Febrero	2023-08-02T00:00:00	2024-11-08T22:00:00	6	Velocidad del viento	4.8
175782	7	Sololá	716	San Marcos la Laguna 	11	San Marcos la laguna 	2	Febrero	2023-08-02T00:00:00	2024-11-08T22:00:00	7	Dirección del viento	4.83
175783	7	Sololá	716	San Marcos la Laguna 	11	San Marcos la laguna 	2	Febrero	2023-08-02T00:00:00	2024-11-08T22:00:00	1	Precipitación	0
175784	7	Sololá	716	San Marcos la Laguna 	11	San Marcos la laguna 	2	Febrero	2023-08-02T00:00:00	2024-11-08T22:00:00	8	Radiación solar	0
175785	7	Sololá	716	San Marcos la Laguna 	11	San Marcos la laguna 	2	Febrero	2023-08-02T00:00:00	2024-11-08T23:00:00	2	Temperatura media	18.3
175786	7	Sololá	716	San Marcos la Laguna 	11	San Marcos la laguna 	2	Febrero	2023-08-02T00:00:00	2024-11-08T23:00:00	4	Temperatura máxima	18.3
175787	7	Sololá	716	San Marcos la Laguna 	11	San Marcos la laguna 	2	Febrero	2023-08-02T00:00:00	2024-11-08T23:00:00	3	Temperatura mínima	17.8
175788	7	Sololá	716	San Marcos la Laguna 	11	San Marcos la laguna 	2	Febrero	2023-08-02T00:00:00	2024-11-08T23:00:00	5	Humedad	80
175789	7	Sololá	716	San Marcos la Laguna 	11	San Marcos la laguna 	2	Febrero	2023-08-02T00:00:00	2024-11-08T23:00:00	6	Velocidad del viento	4.8
175790	7	Sololá	716	San Marcos la Laguna 	11	San Marcos la laguna 	2	Febrero	2023-08-02T00:00:00	2024-11-08T23:00:00	7	Dirección del viento	4.83
175791	7	Sololá	716	San Marcos la Laguna 	11	San Marcos la laguna 	2	Febrero	2023-08-02T00:00:00	2024-11-08T23:00:00	1	Precipitación	0
175792	7	Sololá	716	San Marcos la Laguna 	11	San Marcos la laguna 	2	Febrero	2023-08-02T00:00:00	2024-11-08T23:00:00	8	Radiación solar	0
175793	7	Sololá	716	San Marcos la Laguna 	11	San Marcos la laguna 	2	Febrero	2023-09-02T00:00:00	2024-11-08T00:00:00	2	Temperatura media	18
175794	7	Sololá	716	San Marcos la Laguna 	11	San Marcos la laguna 	2	Febrero	2023-09-02T00:00:00	2024-11-08T00:00:00	4	Temperatura máxima	18.3
175795	7	Sololá	716	San Marcos la Laguna 	11	San Marcos la laguna 	2	Febrero	2023-09-02T00:00:00	2024-11-08T00:00:00	3	Temperatura mínima	17.8
175796	7	Sololá	716	San Marcos la Laguna 	11	San Marcos la laguna 	2	Febrero	2023-09-02T00:00:00	2024-11-08T00:00:00	5	Humedad	79
175797	7	Sololá	716	San Marcos la Laguna 	11	San Marcos la laguna 	2	Febrero	2023-09-02T00:00:00	2024-11-08T00:00:00	6	Velocidad del viento	6.4
175798	7	Sololá	716	San Marcos la Laguna 	11	San Marcos la laguna 	2	Febrero	2023-09-02T00:00:00	2024-11-08T00:00:00	7	Dirección del viento	6.44
175799	7	Sololá	716	San Marcos la Laguna 	11	San Marcos la laguna 	2	Febrero	2023-09-02T00:00:00	2024-11-08T00:00:00	1	Precipitación	0
175800	7	Sololá	716	San Marcos la Laguna 	11	San Marcos la laguna 	2	Febrero	2023-09-02T00:00:00	2024-11-08T00:00:00	8	Radiación solar	0
175801	7	Sololá	716	San Marcos la Laguna 	11	San Marcos la laguna 	2	Febrero	2023-09-02T00:00:00	2024-11-08T01:00:00	2	Temperatura media	16.8
175802	7	Sololá	716	San Marcos la Laguna 	11	San Marcos la laguna 	2	Febrero	2023-09-02T00:00:00	2024-11-08T01:00:00	4	Temperatura máxima	18.1
175803	7	Sololá	716	San Marcos la Laguna 	11	San Marcos la laguna 	2	Febrero	2023-09-02T00:00:00	2024-11-08T01:00:00	3	Temperatura mínima	16.8
175804	7	Sololá	716	San Marcos la Laguna 	11	San Marcos la laguna 	2	Febrero	2023-09-02T00:00:00	2024-11-08T01:00:00	5	Humedad	80
175805	7	Sololá	716	San Marcos la Laguna 	11	San Marcos la laguna 	2	Febrero	2023-09-02T00:00:00	2024-11-08T01:00:00	6	Velocidad del viento	8
175806	7	Sololá	716	San Marcos la Laguna 	11	San Marcos la laguna 	2	Febrero	2023-09-02T00:00:00	2024-11-08T01:00:00	7	Dirección del viento	8.05
175807	7	Sololá	716	San Marcos la Laguna 	11	San Marcos la laguna 	2	Febrero	2023-09-02T00:00:00	2024-11-08T01:00:00	1	Precipitación	0
175808	7	Sololá	716	San Marcos la Laguna 	11	San Marcos la laguna 	2	Febrero	2023-09-02T00:00:00	2024-11-08T01:00:00	8	Radiación solar	0
175809	7	Sololá	716	San Marcos la Laguna 	11	San Marcos la laguna 	2	Febrero	2023-09-02T00:00:00	2024-11-08T02:00:00	2	Temperatura media	15.9
175810	7	Sololá	716	San Marcos la Laguna 	11	San Marcos la laguna 	2	Febrero	2023-09-02T00:00:00	2024-11-08T02:00:00	4	Temperatura máxima	17
175811	7	Sololá	716	San Marcos la Laguna 	11	San Marcos la laguna 	2	Febrero	2023-09-02T00:00:00	2024-11-08T02:00:00	3	Temperatura mínima	15.9
175812	7	Sololá	716	San Marcos la Laguna 	11	San Marcos la laguna 	2	Febrero	2023-09-02T00:00:00	2024-11-08T02:00:00	5	Humedad	79
175813	7	Sololá	716	San Marcos la Laguna 	11	San Marcos la laguna 	2	Febrero	2023-09-02T00:00:00	2024-11-08T02:00:00	6	Velocidad del viento	8
175814	7	Sololá	716	San Marcos la Laguna 	11	San Marcos la laguna 	2	Febrero	2023-09-02T00:00:00	2024-11-08T02:00:00	7	Dirección del viento	8.05
175815	7	Sololá	716	San Marcos la Laguna 	11	San Marcos la laguna 	2	Febrero	2023-09-02T00:00:00	2024-11-08T02:00:00	1	Precipitación	0
175816	7	Sololá	716	San Marcos la Laguna 	11	San Marcos la laguna 	2	Febrero	2023-09-02T00:00:00	2024-11-08T02:00:00	8	Radiación solar	0
175817	7	Sololá	716	San Marcos la Laguna 	11	San Marcos la laguna 	2	Febrero	2023-09-02T00:00:00	2024-11-08T03:00:00	2	Temperatura media	15.3
175818	7	Sololá	716	San Marcos la Laguna 	11	San Marcos la laguna 	2	Febrero	2023-09-02T00:00:00	2024-11-08T03:00:00	4	Temperatura máxima	16.3
175819	7	Sololá	716	San Marcos la Laguna 	11	San Marcos la laguna 	2	Febrero	2023-09-02T00:00:00	2024-11-08T03:00:00	3	Temperatura mínima	15.3
175820	7	Sololá	716	San Marcos la Laguna 	11	San Marcos la laguna 	2	Febrero	2023-09-02T00:00:00	2024-11-08T03:00:00	5	Humedad	82
175821	7	Sololá	716	San Marcos la Laguna 	11	San Marcos la laguna 	2	Febrero	2023-09-02T00:00:00	2024-11-08T03:00:00	6	Velocidad del viento	6.4
175822	7	Sololá	716	San Marcos la Laguna 	11	San Marcos la laguna 	2	Febrero	2023-09-02T00:00:00	2024-11-08T03:00:00	7	Dirección del viento	6.44
175823	7	Sololá	716	San Marcos la Laguna 	11	San Marcos la laguna 	2	Febrero	2023-09-02T00:00:00	2024-11-08T03:00:00	1	Precipitación	0
175824	7	Sololá	716	San Marcos la Laguna 	11	San Marcos la laguna 	2	Febrero	2023-09-02T00:00:00	2024-11-08T03:00:00	8	Radiación solar	0
175825	7	Sololá	716	San Marcos la Laguna 	11	San Marcos la laguna 	2	Febrero	2023-09-02T00:00:00	2024-11-08T04:00:00	2	Temperatura media	14.8
175826	7	Sololá	716	San Marcos la Laguna 	11	San Marcos la laguna 	2	Febrero	2023-09-02T00:00:00	2024-11-08T04:00:00	4	Temperatura máxima	15.3
175827	7	Sololá	716	San Marcos la Laguna 	11	San Marcos la laguna 	2	Febrero	2023-09-02T00:00:00	2024-11-08T04:00:00	3	Temperatura mínima	14.8
175828	7	Sololá	716	San Marcos la Laguna 	11	San Marcos la laguna 	2	Febrero	2023-09-02T00:00:00	2024-11-08T04:00:00	5	Humedad	83
175829	7	Sololá	716	San Marcos la Laguna 	11	San Marcos la laguna 	2	Febrero	2023-09-02T00:00:00	2024-11-08T04:00:00	6	Velocidad del viento	8
175830	7	Sololá	716	San Marcos la Laguna 	11	San Marcos la laguna 	2	Febrero	2023-09-02T00:00:00	2024-11-08T04:00:00	7	Dirección del viento	8.05
175831	7	Sololá	716	San Marcos la Laguna 	11	San Marcos la laguna 	2	Febrero	2023-09-02T00:00:00	2024-11-08T04:00:00	1	Precipitación	0
175832	7	Sololá	716	San Marcos la Laguna 	11	San Marcos la laguna 	2	Febrero	2023-09-02T00:00:00	2024-11-08T04:00:00	8	Radiación solar	0
175833	7	Sololá	716	San Marcos la Laguna 	11	San Marcos la laguna 	2	Febrero	2023-09-02T00:00:00	2024-11-08T05:00:00	2	Temperatura media	14.4
175834	7	Sololá	716	San Marcos la Laguna 	11	San Marcos la laguna 	2	Febrero	2023-09-02T00:00:00	2024-11-08T05:00:00	4	Temperatura máxima	14.9
175835	7	Sololá	716	San Marcos la Laguna 	11	San Marcos la laguna 	2	Febrero	2023-09-02T00:00:00	2024-11-08T05:00:00	3	Temperatura mínima	14.4
175836	7	Sololá	716	San Marcos la Laguna 	11	San Marcos la laguna 	2	Febrero	2023-09-02T00:00:00	2024-11-08T05:00:00	5	Humedad	83
175837	7	Sololá	716	San Marcos la Laguna 	11	San Marcos la laguna 	2	Febrero	2023-09-02T00:00:00	2024-11-08T05:00:00	6	Velocidad del viento	6.4
175838	7	Sololá	716	San Marcos la Laguna 	11	San Marcos la laguna 	2	Febrero	2023-09-02T00:00:00	2024-11-08T05:00:00	7	Dirección del viento	6.44
175839	7	Sololá	716	San Marcos la Laguna 	11	San Marcos la laguna 	2	Febrero	2023-09-02T00:00:00	2024-11-08T05:00:00	1	Precipitación	0
175840	7	Sololá	716	San Marcos la Laguna 	11	San Marcos la laguna 	2	Febrero	2023-09-02T00:00:00	2024-11-08T05:00:00	8	Radiación solar	0
175841	7	Sololá	716	San Marcos la Laguna 	11	San Marcos la laguna 	2	Febrero	2023-09-02T00:00:00	2024-11-08T06:00:00	2	Temperatura media	14.1
175842	7	Sololá	716	San Marcos la Laguna 	11	San Marcos la laguna 	2	Febrero	2023-09-02T00:00:00	2024-11-08T06:00:00	4	Temperatura máxima	14.4
175843	7	Sololá	716	San Marcos la Laguna 	11	San Marcos la laguna 	2	Febrero	2023-09-02T00:00:00	2024-11-08T06:00:00	3	Temperatura mínima	14.1
175844	7	Sololá	716	San Marcos la Laguna 	11	San Marcos la laguna 	2	Febrero	2023-09-02T00:00:00	2024-11-08T06:00:00	5	Humedad	85
175845	7	Sololá	716	San Marcos la Laguna 	11	San Marcos la laguna 	2	Febrero	2023-09-02T00:00:00	2024-11-08T06:00:00	6	Velocidad del viento	6.4
175846	7	Sololá	716	San Marcos la Laguna 	11	San Marcos la laguna 	2	Febrero	2023-09-02T00:00:00	2024-11-08T06:00:00	7	Dirección del viento	6.44
175847	7	Sololá	716	San Marcos la Laguna 	11	San Marcos la laguna 	2	Febrero	2023-09-02T00:00:00	2024-11-08T06:00:00	1	Precipitación	0
175848	7	Sololá	716	San Marcos la Laguna 	11	San Marcos la laguna 	2	Febrero	2023-09-02T00:00:00	2024-11-08T06:00:00	8	Radiación solar	0
175849	7	Sololá	716	San Marcos la Laguna 	11	San Marcos la laguna 	2	Febrero	2023-09-02T00:00:00	2024-11-08T07:00:00	2	Temperatura media	14.2
175850	7	Sololá	716	San Marcos la Laguna 	11	San Marcos la laguna 	2	Febrero	2023-09-02T00:00:00	2024-11-08T07:00:00	4	Temperatura máxima	14.2
175851	7	Sololá	716	San Marcos la Laguna 	11	San Marcos la laguna 	2	Febrero	2023-09-02T00:00:00	2024-11-08T07:00:00	3	Temperatura mínima	13.9
175852	7	Sololá	716	San Marcos la Laguna 	11	San Marcos la laguna 	2	Febrero	2023-09-02T00:00:00	2024-11-08T07:00:00	5	Humedad	86
175853	7	Sololá	716	San Marcos la Laguna 	11	San Marcos la laguna 	2	Febrero	2023-09-02T00:00:00	2024-11-08T07:00:00	6	Velocidad del viento	6.4
175854	7	Sololá	716	San Marcos la Laguna 	11	San Marcos la laguna 	2	Febrero	2023-09-02T00:00:00	2024-11-08T07:00:00	7	Dirección del viento	6.44
175855	7	Sololá	716	San Marcos la Laguna 	11	San Marcos la laguna 	2	Febrero	2023-09-02T00:00:00	2024-11-08T07:00:00	1	Precipitación	0
175856	7	Sololá	716	San Marcos la Laguna 	11	San Marcos la laguna 	2	Febrero	2023-09-02T00:00:00	2024-11-08T07:00:00	8	Radiación solar	6
175857	7	Sololá	716	San Marcos la Laguna 	11	San Marcos la laguna 	2	Febrero	2023-09-02T00:00:00	2024-11-08T08:00:00	2	Temperatura media	17.6
175858	7	Sololá	716	San Marcos la Laguna 	11	San Marcos la laguna 	2	Febrero	2023-09-02T00:00:00	2024-11-08T08:00:00	4	Temperatura máxima	17.6
175859	7	Sololá	716	San Marcos la Laguna 	11	San Marcos la laguna 	2	Febrero	2023-09-02T00:00:00	2024-11-08T08:00:00	3	Temperatura mínima	14.2
175860	7	Sololá	716	San Marcos la Laguna 	11	San Marcos la laguna 	2	Febrero	2023-09-02T00:00:00	2024-11-08T08:00:00	5	Humedad	78
175861	7	Sololá	716	San Marcos la Laguna 	11	San Marcos la laguna 	2	Febrero	2023-09-02T00:00:00	2024-11-08T08:00:00	6	Velocidad del viento	4.8
175862	7	Sololá	716	San Marcos la Laguna 	11	San Marcos la laguna 	2	Febrero	2023-09-02T00:00:00	2024-11-08T08:00:00	7	Dirección del viento	4.83
175863	7	Sololá	716	San Marcos la Laguna 	11	San Marcos la laguna 	2	Febrero	2023-09-02T00:00:00	2024-11-08T08:00:00	1	Precipitación	0
175864	7	Sololá	716	San Marcos la Laguna 	11	San Marcos la laguna 	2	Febrero	2023-09-02T00:00:00	2024-11-08T08:00:00	8	Radiación solar	123
175865	7	Sololá	716	San Marcos la Laguna 	11	San Marcos la laguna 	2	Febrero	2023-09-02T00:00:00	2024-11-08T09:00:00	2	Temperatura media	19.2
175866	7	Sololá	716	San Marcos la Laguna 	11	San Marcos la laguna 	2	Febrero	2023-09-02T00:00:00	2024-11-08T09:00:00	4	Temperatura máxima	19.2
175867	7	Sololá	716	San Marcos la Laguna 	11	San Marcos la laguna 	2	Febrero	2023-09-02T00:00:00	2024-11-08T09:00:00	3	Temperatura mínima	17.6
175868	7	Sololá	716	San Marcos la Laguna 	11	San Marcos la laguna 	2	Febrero	2023-09-02T00:00:00	2024-11-08T09:00:00	5	Humedad	75
175869	7	Sololá	716	San Marcos la Laguna 	11	San Marcos la laguna 	2	Febrero	2023-09-02T00:00:00	2024-11-08T09:00:00	6	Velocidad del viento	3.2
175870	7	Sololá	716	San Marcos la Laguna 	11	San Marcos la laguna 	2	Febrero	2023-09-02T00:00:00	2024-11-08T09:00:00	7	Dirección del viento	3.22
175871	7	Sololá	716	San Marcos la Laguna 	11	San Marcos la laguna 	2	Febrero	2023-09-02T00:00:00	2024-11-08T09:00:00	1	Precipitación	0
175872	7	Sololá	716	San Marcos la Laguna 	11	San Marcos la laguna 	2	Febrero	2023-09-02T00:00:00	2024-11-08T09:00:00	8	Radiación solar	349
175873	7	Sololá	716	San Marcos la Laguna 	11	San Marcos la laguna 	2	Febrero	2023-09-02T00:00:00	2024-11-08T10:00:00	2	Temperatura media	19.7
175874	7	Sololá	716	San Marcos la Laguna 	11	San Marcos la laguna 	2	Febrero	2023-09-02T00:00:00	2024-11-08T10:00:00	4	Temperatura máxima	19.8
175875	7	Sololá	716	San Marcos la Laguna 	11	San Marcos la laguna 	2	Febrero	2023-09-02T00:00:00	2024-11-08T10:00:00	3	Temperatura mínima	19.2
175876	7	Sololá	716	San Marcos la Laguna 	11	San Marcos la laguna 	2	Febrero	2023-09-02T00:00:00	2024-11-08T10:00:00	5	Humedad	74
175877	7	Sololá	716	San Marcos la Laguna 	11	San Marcos la laguna 	2	Febrero	2023-09-02T00:00:00	2024-11-08T10:00:00	6	Velocidad del viento	4.8
175878	7	Sololá	716	San Marcos la Laguna 	11	San Marcos la laguna 	2	Febrero	2023-09-02T00:00:00	2024-11-08T10:00:00	7	Dirección del viento	4.83
175879	7	Sololá	716	San Marcos la Laguna 	11	San Marcos la laguna 	2	Febrero	2023-09-02T00:00:00	2024-11-08T10:00:00	1	Precipitación	0
175880	7	Sololá	716	San Marcos la Laguna 	11	San Marcos la laguna 	2	Febrero	2023-09-02T00:00:00	2024-11-08T10:00:00	8	Radiación solar	543
175881	7	Sololá	716	San Marcos la Laguna 	11	San Marcos la laguna 	2	Febrero	2023-09-02T00:00:00	2024-11-08T11:00:00	2	Temperatura media	21.2
175882	7	Sololá	716	San Marcos la Laguna 	11	San Marcos la laguna 	2	Febrero	2023-09-02T00:00:00	2024-11-08T11:00:00	4	Temperatura máxima	21.3
175883	7	Sololá	716	San Marcos la Laguna 	11	San Marcos la laguna 	2	Febrero	2023-09-02T00:00:00	2024-11-08T11:00:00	3	Temperatura mínima	19.7
175884	7	Sololá	716	San Marcos la Laguna 	11	San Marcos la laguna 	2	Febrero	2023-09-02T00:00:00	2024-11-08T11:00:00	5	Humedad	63
175885	7	Sololá	716	San Marcos la Laguna 	11	San Marcos la laguna 	2	Febrero	2023-09-02T00:00:00	2024-11-08T11:00:00	6	Velocidad del viento	4.8
175886	7	Sololá	716	San Marcos la Laguna 	11	San Marcos la laguna 	2	Febrero	2023-09-02T00:00:00	2024-11-08T11:00:00	7	Dirección del viento	4.83
175887	7	Sololá	716	San Marcos la Laguna 	11	San Marcos la laguna 	2	Febrero	2023-09-02T00:00:00	2024-11-08T11:00:00	1	Precipitación	0
175888	7	Sololá	716	San Marcos la Laguna 	11	San Marcos la laguna 	2	Febrero	2023-09-02T00:00:00	2024-11-08T11:00:00	8	Radiación solar	664
175889	7	Sololá	716	San Marcos la Laguna 	11	San Marcos la laguna 	2	Febrero	2023-09-02T00:00:00	2024-11-08T12:00:00	2	Temperatura media	23.6
175890	7	Sololá	716	San Marcos la Laguna 	11	San Marcos la laguna 	2	Febrero	2023-09-02T00:00:00	2024-11-08T12:00:00	4	Temperatura máxima	31
175891	7	Sololá	716	San Marcos la Laguna 	11	San Marcos la laguna 	2	Febrero	2023-09-02T00:00:00	2024-11-08T12:00:00	3	Temperatura mínima	21.2
175892	7	Sololá	716	San Marcos la Laguna 	11	San Marcos la laguna 	2	Febrero	2023-09-02T00:00:00	2024-11-08T12:00:00	5	Humedad	54
175893	7	Sololá	716	San Marcos la Laguna 	11	San Marcos la laguna 	2	Febrero	2023-09-02T00:00:00	2024-11-08T12:00:00	6	Velocidad del viento	1.6
175894	7	Sololá	716	San Marcos la Laguna 	11	San Marcos la laguna 	2	Febrero	2023-09-02T00:00:00	2024-11-08T12:00:00	7	Dirección del viento	1.61
175895	7	Sololá	716	San Marcos la Laguna 	11	San Marcos la laguna 	2	Febrero	2023-09-02T00:00:00	2024-11-08T12:00:00	1	Precipitación	0
175896	7	Sololá	716	San Marcos la Laguna 	11	San Marcos la laguna 	2	Febrero	2023-09-02T00:00:00	2024-11-08T12:00:00	8	Radiación solar	596
175897	7	Sololá	716	San Marcos la Laguna 	11	San Marcos la laguna 	2	Febrero	2023-09-02T00:00:00	2024-11-08T13:00:00	2	Temperatura media	23
175898	7	Sololá	716	San Marcos la Laguna 	11	San Marcos la laguna 	2	Febrero	2023-09-02T00:00:00	2024-11-08T13:00:00	4	Temperatura máxima	24.1
175899	7	Sololá	716	San Marcos la Laguna 	11	San Marcos la laguna 	2	Febrero	2023-09-02T00:00:00	2024-11-08T13:00:00	3	Temperatura mínima	22.6
175900	7	Sololá	716	San Marcos la Laguna 	11	San Marcos la laguna 	2	Febrero	2023-09-02T00:00:00	2024-11-08T13:00:00	5	Humedad	63
175901	7	Sololá	716	San Marcos la Laguna 	11	San Marcos la laguna 	2	Febrero	2023-09-02T00:00:00	2024-11-08T13:00:00	6	Velocidad del viento	8
175902	7	Sololá	716	San Marcos la Laguna 	11	San Marcos la laguna 	2	Febrero	2023-09-02T00:00:00	2024-11-08T13:00:00	7	Dirección del viento	8.05
175903	7	Sololá	716	San Marcos la Laguna 	11	San Marcos la laguna 	2	Febrero	2023-09-02T00:00:00	2024-11-08T13:00:00	1	Precipitación	0
175904	7	Sololá	716	San Marcos la Laguna 	11	San Marcos la laguna 	2	Febrero	2023-09-02T00:00:00	2024-11-08T13:00:00	8	Radiación solar	346
175905	7	Sololá	716	San Marcos la Laguna 	11	San Marcos la laguna 	2	Febrero	2023-09-02T00:00:00	2024-11-08T14:00:00	2	Temperatura media	23.1
175906	7	Sololá	716	San Marcos la Laguna 	11	San Marcos la laguna 	2	Febrero	2023-09-02T00:00:00	2024-11-08T14:00:00	4	Temperatura máxima	23.2
175907	7	Sololá	716	San Marcos la Laguna 	11	San Marcos la laguna 	2	Febrero	2023-09-02T00:00:00	2024-11-08T14:00:00	3	Temperatura mínima	22.7
175908	7	Sololá	716	San Marcos la Laguna 	11	San Marcos la laguna 	2	Febrero	2023-09-02T00:00:00	2024-11-08T14:00:00	5	Humedad	66
175909	7	Sololá	716	San Marcos la Laguna 	11	San Marcos la laguna 	2	Febrero	2023-09-02T00:00:00	2024-11-08T14:00:00	6	Velocidad del viento	11.3
175910	7	Sololá	716	San Marcos la Laguna 	11	San Marcos la laguna 	2	Febrero	2023-09-02T00:00:00	2024-11-08T14:00:00	7	Dirección del viento	11.27
175911	7	Sololá	716	San Marcos la Laguna 	11	San Marcos la laguna 	2	Febrero	2023-09-02T00:00:00	2024-11-08T14:00:00	1	Precipitación	0
175912	7	Sololá	716	San Marcos la Laguna 	11	San Marcos la laguna 	2	Febrero	2023-09-02T00:00:00	2024-11-08T14:00:00	8	Radiación solar	513
175913	7	Sololá	716	San Marcos la Laguna 	11	San Marcos la laguna 	2	Febrero	2023-09-02T00:00:00	2024-11-08T15:00:00	2	Temperatura media	22
175914	7	Sololá	716	San Marcos la Laguna 	11	San Marcos la laguna 	2	Febrero	2023-09-02T00:00:00	2024-11-08T15:00:00	4	Temperatura máxima	23.1
175915	7	Sololá	716	San Marcos la Laguna 	11	San Marcos la laguna 	2	Febrero	2023-09-02T00:00:00	2024-11-08T15:00:00	3	Temperatura mínima	21.8
175916	7	Sololá	716	San Marcos la Laguna 	11	San Marcos la laguna 	2	Febrero	2023-09-02T00:00:00	2024-11-08T15:00:00	5	Humedad	71
175917	7	Sololá	716	San Marcos la Laguna 	11	San Marcos la laguna 	2	Febrero	2023-09-02T00:00:00	2024-11-08T15:00:00	6	Velocidad del viento	12.9
175918	7	Sololá	716	San Marcos la Laguna 	11	San Marcos la laguna 	2	Febrero	2023-09-02T00:00:00	2024-11-08T15:00:00	7	Dirección del viento	12.87
175919	7	Sololá	716	San Marcos la Laguna 	11	San Marcos la laguna 	2	Febrero	2023-09-02T00:00:00	2024-11-08T15:00:00	1	Precipitación	0
175920	7	Sololá	716	San Marcos la Laguna 	11	San Marcos la laguna 	2	Febrero	2023-09-02T00:00:00	2024-11-08T15:00:00	8	Radiación solar	262
175921	7	Sololá	716	San Marcos la Laguna 	11	San Marcos la laguna 	2	Febrero	2023-09-02T00:00:00	2024-11-08T16:00:00	2	Temperatura media	21.8
175922	7	Sololá	716	San Marcos la Laguna 	11	San Marcos la laguna 	2	Febrero	2023-09-02T00:00:00	2024-11-08T16:00:00	4	Temperatura máxima	22.2
175923	7	Sololá	716	San Marcos la Laguna 	11	San Marcos la laguna 	2	Febrero	2023-09-02T00:00:00	2024-11-08T16:00:00	3	Temperatura mínima	21.8
175924	7	Sololá	716	San Marcos la Laguna 	11	San Marcos la laguna 	2	Febrero	2023-09-02T00:00:00	2024-11-08T16:00:00	5	Humedad	73
175925	7	Sololá	716	San Marcos la Laguna 	11	San Marcos la laguna 	2	Febrero	2023-09-02T00:00:00	2024-11-08T16:00:00	6	Velocidad del viento	9.7
175926	7	Sololá	716	San Marcos la Laguna 	11	San Marcos la laguna 	2	Febrero	2023-09-02T00:00:00	2024-11-08T16:00:00	7	Dirección del viento	9.66
175927	7	Sololá	716	San Marcos la Laguna 	11	San Marcos la laguna 	2	Febrero	2023-09-02T00:00:00	2024-11-08T16:00:00	1	Precipitación	0
175928	7	Sololá	716	San Marcos la Laguna 	11	San Marcos la laguna 	2	Febrero	2023-09-02T00:00:00	2024-11-08T16:00:00	8	Radiación solar	166
175929	7	Sololá	716	San Marcos la Laguna 	11	San Marcos la laguna 	2	Febrero	2023-09-02T00:00:00	2024-11-08T17:00:00	2	Temperatura media	21.5
175930	7	Sololá	716	San Marcos la Laguna 	11	San Marcos la laguna 	2	Febrero	2023-09-02T00:00:00	2024-11-08T17:00:00	4	Temperatura máxima	21.8
175931	7	Sololá	716	San Marcos la Laguna 	11	San Marcos la laguna 	2	Febrero	2023-09-02T00:00:00	2024-11-08T17:00:00	3	Temperatura mínima	21.2
175932	7	Sololá	716	San Marcos la Laguna 	11	San Marcos la laguna 	2	Febrero	2023-09-02T00:00:00	2024-11-08T17:00:00	5	Humedad	76
175933	7	Sololá	716	San Marcos la Laguna 	11	San Marcos la laguna 	2	Febrero	2023-09-02T00:00:00	2024-11-08T17:00:00	6	Velocidad del viento	8
175934	7	Sololá	716	San Marcos la Laguna 	11	San Marcos la laguna 	2	Febrero	2023-09-02T00:00:00	2024-11-08T17:00:00	7	Dirección del viento	8.05
175935	7	Sololá	716	San Marcos la Laguna 	11	San Marcos la laguna 	2	Febrero	2023-09-02T00:00:00	2024-11-08T17:00:00	1	Precipitación	0
175936	7	Sololá	716	San Marcos la Laguna 	11	San Marcos la laguna 	2	Febrero	2023-09-02T00:00:00	2024-11-08T17:00:00	8	Radiación solar	38
175937	7	Sololá	716	San Marcos la Laguna 	11	San Marcos la laguna 	2	Febrero	2023-09-02T00:00:00	2024-11-08T18:00:00	2	Temperatura media	20.4
175938	7	Sololá	716	San Marcos la Laguna 	11	San Marcos la laguna 	2	Febrero	2023-09-02T00:00:00	2024-11-08T18:00:00	4	Temperatura máxima	21.4
175939	7	Sololá	716	San Marcos la Laguna 	11	San Marcos la laguna 	2	Febrero	2023-09-02T00:00:00	2024-11-08T18:00:00	3	Temperatura mínima	20.4
175940	7	Sololá	716	San Marcos la Laguna 	11	San Marcos la laguna 	2	Febrero	2023-09-02T00:00:00	2024-11-08T18:00:00	5	Humedad	80
175941	7	Sololá	716	San Marcos la Laguna 	11	San Marcos la laguna 	2	Febrero	2023-09-02T00:00:00	2024-11-08T18:00:00	6	Velocidad del viento	4.8
175942	7	Sololá	716	San Marcos la Laguna 	11	San Marcos la laguna 	2	Febrero	2023-09-02T00:00:00	2024-11-08T18:00:00	7	Dirección del viento	4.83
175943	7	Sololá	716	San Marcos la Laguna 	11	San Marcos la laguna 	2	Febrero	2023-09-02T00:00:00	2024-11-08T18:00:00	1	Precipitación	0
175944	7	Sololá	716	San Marcos la Laguna 	11	San Marcos la laguna 	2	Febrero	2023-09-02T00:00:00	2024-11-08T18:00:00	8	Radiación solar	0
175945	7	Sololá	716	San Marcos la Laguna 	11	San Marcos la laguna 	2	Febrero	2023-09-02T00:00:00	2024-11-08T19:00:00	2	Temperatura media	18.9
175946	7	Sololá	716	San Marcos la Laguna 	11	San Marcos la laguna 	2	Febrero	2023-09-02T00:00:00	2024-11-08T19:00:00	4	Temperatura máxima	20.4
175947	7	Sololá	716	San Marcos la Laguna 	11	San Marcos la laguna 	2	Febrero	2023-09-02T00:00:00	2024-11-08T19:00:00	3	Temperatura mínima	18.9
175948	7	Sololá	716	San Marcos la Laguna 	11	San Marcos la laguna 	2	Febrero	2023-09-02T00:00:00	2024-11-08T19:00:00	5	Humedad	67
175949	7	Sololá	716	San Marcos la Laguna 	11	San Marcos la laguna 	2	Febrero	2023-09-02T00:00:00	2024-11-08T19:00:00	6	Velocidad del viento	3.2
175950	7	Sololá	716	San Marcos la Laguna 	11	San Marcos la laguna 	2	Febrero	2023-09-02T00:00:00	2024-11-08T19:00:00	7	Dirección del viento	3.22
175951	7	Sololá	716	San Marcos la Laguna 	11	San Marcos la laguna 	2	Febrero	2023-09-02T00:00:00	2024-11-08T19:00:00	1	Precipitación	0
175952	7	Sololá	716	San Marcos la Laguna 	11	San Marcos la laguna 	2	Febrero	2023-09-02T00:00:00	2024-11-08T19:00:00	8	Radiación solar	0
175953	7	Sololá	716	San Marcos la Laguna 	11	San Marcos la laguna 	2	Febrero	2023-09-02T00:00:00	2024-11-08T20:00:00	2	Temperatura media	17.7
175954	7	Sololá	716	San Marcos la Laguna 	11	San Marcos la laguna 	2	Febrero	2023-09-02T00:00:00	2024-11-08T20:00:00	4	Temperatura máxima	18.9
175955	7	Sololá	716	San Marcos la Laguna 	11	San Marcos la laguna 	2	Febrero	2023-09-02T00:00:00	2024-11-08T20:00:00	3	Temperatura mínima	17.6
175956	7	Sololá	716	San Marcos la Laguna 	11	San Marcos la laguna 	2	Febrero	2023-09-02T00:00:00	2024-11-08T20:00:00	5	Humedad	60
175957	7	Sololá	716	San Marcos la Laguna 	11	San Marcos la laguna 	2	Febrero	2023-09-02T00:00:00	2024-11-08T20:00:00	6	Velocidad del viento	4.8
175958	7	Sololá	716	San Marcos la Laguna 	11	San Marcos la laguna 	2	Febrero	2023-09-02T00:00:00	2024-11-08T20:00:00	7	Dirección del viento	4.83
175959	7	Sololá	716	San Marcos la Laguna 	11	San Marcos la laguna 	2	Febrero	2023-09-02T00:00:00	2024-11-08T20:00:00	1	Precipitación	0
175960	7	Sololá	716	San Marcos la Laguna 	11	San Marcos la laguna 	2	Febrero	2023-09-02T00:00:00	2024-11-08T20:00:00	8	Radiación solar	0
175961	7	Sololá	716	San Marcos la Laguna 	11	San Marcos la laguna 	2	Febrero	2023-09-02T00:00:00	2024-11-08T21:00:00	2	Temperatura media	18.6
175962	7	Sololá	716	San Marcos la Laguna 	11	San Marcos la laguna 	2	Febrero	2023-09-02T00:00:00	2024-11-08T21:00:00	4	Temperatura máxima	19.2
175963	7	Sololá	716	San Marcos la Laguna 	11	San Marcos la laguna 	2	Febrero	2023-09-02T00:00:00	2024-11-08T21:00:00	3	Temperatura mínima	17.7
175964	7	Sololá	716	San Marcos la Laguna 	11	San Marcos la laguna 	2	Febrero	2023-09-02T00:00:00	2024-11-08T21:00:00	5	Humedad	59
175965	7	Sololá	716	San Marcos la Laguna 	11	San Marcos la laguna 	2	Febrero	2023-09-02T00:00:00	2024-11-08T21:00:00	6	Velocidad del viento	4.8
175966	7	Sololá	716	San Marcos la Laguna 	11	San Marcos la laguna 	2	Febrero	2023-09-02T00:00:00	2024-11-08T21:00:00	7	Dirección del viento	4.83
175967	7	Sololá	716	San Marcos la Laguna 	11	San Marcos la laguna 	2	Febrero	2023-09-02T00:00:00	2024-11-08T21:00:00	1	Precipitación	0
175968	7	Sololá	716	San Marcos la Laguna 	11	San Marcos la laguna 	2	Febrero	2023-09-02T00:00:00	2024-11-08T21:00:00	8	Radiación solar	0
175969	7	Sololá	716	San Marcos la Laguna 	11	San Marcos la laguna 	2	Febrero	2023-09-02T00:00:00	2024-11-08T22:00:00	2	Temperatura media	16.8
175970	7	Sololá	716	San Marcos la Laguna 	11	San Marcos la laguna 	2	Febrero	2023-09-02T00:00:00	2024-11-08T22:00:00	4	Temperatura máxima	18.6
175971	7	Sololá	716	San Marcos la Laguna 	11	San Marcos la laguna 	2	Febrero	2023-09-02T00:00:00	2024-11-08T22:00:00	3	Temperatura mínima	16.6
175972	7	Sololá	716	San Marcos la Laguna 	11	San Marcos la laguna 	2	Febrero	2023-09-02T00:00:00	2024-11-08T22:00:00	5	Humedad	63
175973	7	Sololá	716	San Marcos la Laguna 	11	San Marcos la laguna 	2	Febrero	2023-09-02T00:00:00	2024-11-08T22:00:00	6	Velocidad del viento	6.4
175974	7	Sololá	716	San Marcos la Laguna 	11	San Marcos la laguna 	2	Febrero	2023-09-02T00:00:00	2024-11-08T22:00:00	7	Dirección del viento	6.44
175975	7	Sololá	716	San Marcos la Laguna 	11	San Marcos la laguna 	2	Febrero	2023-09-02T00:00:00	2024-11-08T22:00:00	1	Precipitación	0
175976	7	Sololá	716	San Marcos la Laguna 	11	San Marcos la laguna 	2	Febrero	2023-09-02T00:00:00	2024-11-08T22:00:00	8	Radiación solar	0
175977	7	Sololá	716	San Marcos la Laguna 	11	San Marcos la laguna 	2	Febrero	2023-09-02T00:00:00	2024-11-08T23:00:00	2	Temperatura media	16
175978	7	Sololá	716	San Marcos la Laguna 	11	San Marcos la laguna 	2	Febrero	2023-09-02T00:00:00	2024-11-08T23:00:00	4	Temperatura máxima	17.3
175979	7	Sololá	716	San Marcos la Laguna 	11	San Marcos la laguna 	2	Febrero	2023-09-02T00:00:00	2024-11-08T23:00:00	3	Temperatura mínima	15.8
175980	7	Sololá	716	San Marcos la Laguna 	11	San Marcos la laguna 	2	Febrero	2023-09-02T00:00:00	2024-11-08T23:00:00	5	Humedad	67
175981	7	Sololá	716	San Marcos la Laguna 	11	San Marcos la laguna 	2	Febrero	2023-09-02T00:00:00	2024-11-08T23:00:00	6	Velocidad del viento	8
175982	7	Sololá	716	San Marcos la Laguna 	11	San Marcos la laguna 	2	Febrero	2023-09-02T00:00:00	2024-11-08T23:00:00	7	Dirección del viento	8.05
175983	7	Sololá	716	San Marcos la Laguna 	11	San Marcos la laguna 	2	Febrero	2023-09-02T00:00:00	2024-11-08T23:00:00	1	Precipitación	0
175984	7	Sololá	716	San Marcos la Laguna 	11	San Marcos la laguna 	2	Febrero	2023-09-02T00:00:00	2024-11-08T23:00:00	8	Radiación solar	0
175985	7	Sololá	716	San Marcos la Laguna 	11	San Marcos la laguna 	2	Febrero	2023-10-02T00:00:00	2024-11-08T00:00:00	2	Temperatura media	16.1
175986	7	Sololá	716	San Marcos la Laguna 	11	San Marcos la laguna 	2	Febrero	2023-10-02T00:00:00	2024-11-08T00:00:00	4	Temperatura máxima	17.3
175987	7	Sololá	716	San Marcos la Laguna 	11	San Marcos la laguna 	2	Febrero	2023-10-02T00:00:00	2024-11-08T00:00:00	3	Temperatura mínima	15.9
175988	7	Sololá	716	San Marcos la Laguna 	11	San Marcos la laguna 	2	Febrero	2023-10-02T00:00:00	2024-11-08T00:00:00	5	Humedad	70
175989	7	Sololá	716	San Marcos la Laguna 	11	San Marcos la laguna 	2	Febrero	2023-10-02T00:00:00	2024-11-08T00:00:00	6	Velocidad del viento	6.4
175990	7	Sololá	716	San Marcos la Laguna 	11	San Marcos la laguna 	2	Febrero	2023-10-02T00:00:00	2024-11-08T00:00:00	7	Dirección del viento	6.44
175991	7	Sololá	716	San Marcos la Laguna 	11	San Marcos la laguna 	2	Febrero	2023-10-02T00:00:00	2024-11-08T00:00:00	1	Precipitación	0
175992	7	Sololá	716	San Marcos la Laguna 	11	San Marcos la laguna 	2	Febrero	2023-10-02T00:00:00	2024-11-08T00:00:00	8	Radiación solar	0
175993	7	Sololá	716	San Marcos la Laguna 	11	San Marcos la laguna 	2	Febrero	2023-10-02T00:00:00	2024-11-08T01:00:00	2	Temperatura media	16.6
175994	7	Sololá	716	San Marcos la Laguna 	11	San Marcos la laguna 	2	Febrero	2023-10-02T00:00:00	2024-11-08T01:00:00	4	Temperatura máxima	16.6
175995	7	Sololá	716	San Marcos la Laguna 	11	San Marcos la laguna 	2	Febrero	2023-10-02T00:00:00	2024-11-08T01:00:00	3	Temperatura mínima	15.9
175996	7	Sololá	716	San Marcos la Laguna 	11	San Marcos la laguna 	2	Febrero	2023-10-02T00:00:00	2024-11-08T01:00:00	5	Humedad	68
175997	7	Sololá	716	San Marcos la Laguna 	11	San Marcos la laguna 	2	Febrero	2023-10-02T00:00:00	2024-11-08T01:00:00	6	Velocidad del viento	6.4
175998	7	Sololá	716	San Marcos la Laguna 	11	San Marcos la laguna 	2	Febrero	2023-10-02T00:00:00	2024-11-08T01:00:00	7	Dirección del viento	6.44
175999	7	Sololá	716	San Marcos la Laguna 	11	San Marcos la laguna 	2	Febrero	2023-10-02T00:00:00	2024-11-08T01:00:00	1	Precipitación	0
176000	7	Sololá	716	San Marcos la Laguna 	11	San Marcos la laguna 	2	Febrero	2023-10-02T00:00:00	2024-11-08T01:00:00	8	Radiación solar	0
176001	7	Sololá	716	San Marcos la Laguna 	11	San Marcos la laguna 	2	Febrero	2023-10-02T00:00:00	2024-11-08T02:00:00	2	Temperatura media	15.3
176002	7	Sololá	716	San Marcos la Laguna 	11	San Marcos la laguna 	2	Febrero	2023-10-02T00:00:00	2024-11-08T02:00:00	4	Temperatura máxima	16.6
176003	7	Sololá	716	San Marcos la Laguna 	11	San Marcos la laguna 	2	Febrero	2023-10-02T00:00:00	2024-11-08T02:00:00	3	Temperatura mínima	15.3
176004	7	Sololá	716	San Marcos la Laguna 	11	San Marcos la laguna 	2	Febrero	2023-10-02T00:00:00	2024-11-08T02:00:00	5	Humedad	72
176005	7	Sololá	716	San Marcos la Laguna 	11	San Marcos la laguna 	2	Febrero	2023-10-02T00:00:00	2024-11-08T02:00:00	6	Velocidad del viento	8
176006	7	Sololá	716	San Marcos la Laguna 	11	San Marcos la laguna 	2	Febrero	2023-10-02T00:00:00	2024-11-08T02:00:00	7	Dirección del viento	8.05
176007	7	Sololá	716	San Marcos la Laguna 	11	San Marcos la laguna 	2	Febrero	2023-10-02T00:00:00	2024-11-08T02:00:00	1	Precipitación	0
176008	7	Sololá	716	San Marcos la Laguna 	11	San Marcos la laguna 	2	Febrero	2023-10-02T00:00:00	2024-11-08T02:00:00	8	Radiación solar	0
176009	7	Sololá	716	San Marcos la Laguna 	11	San Marcos la laguna 	2	Febrero	2023-10-02T00:00:00	2024-11-08T03:00:00	2	Temperatura media	15.8
176010	7	Sololá	716	San Marcos la Laguna 	11	San Marcos la laguna 	2	Febrero	2023-10-02T00:00:00	2024-11-08T03:00:00	4	Temperatura máxima	16.3
176011	7	Sololá	716	San Marcos la Laguna 	11	San Marcos la laguna 	2	Febrero	2023-10-02T00:00:00	2024-11-08T03:00:00	3	Temperatura mínima	15
176012	7	Sololá	716	San Marcos la Laguna 	11	San Marcos la laguna 	2	Febrero	2023-10-02T00:00:00	2024-11-08T03:00:00	5	Humedad	69
176013	7	Sololá	716	San Marcos la Laguna 	11	San Marcos la laguna 	2	Febrero	2023-10-02T00:00:00	2024-11-08T03:00:00	6	Velocidad del viento	8
176014	7	Sololá	716	San Marcos la Laguna 	11	San Marcos la laguna 	2	Febrero	2023-10-02T00:00:00	2024-11-08T03:00:00	7	Dirección del viento	8.05
176015	7	Sololá	716	San Marcos la Laguna 	11	San Marcos la laguna 	2	Febrero	2023-10-02T00:00:00	2024-11-08T03:00:00	1	Precipitación	0
176016	7	Sololá	716	San Marcos la Laguna 	11	San Marcos la laguna 	2	Febrero	2023-10-02T00:00:00	2024-11-08T03:00:00	8	Radiación solar	0
176017	7	Sololá	716	San Marcos la Laguna 	11	San Marcos la laguna 	2	Febrero	2023-10-02T00:00:00	2024-11-08T04:00:00	2	Temperatura media	14.7
176018	7	Sololá	716	San Marcos la Laguna 	11	San Marcos la laguna 	2	Febrero	2023-10-02T00:00:00	2024-11-08T04:00:00	4	Temperatura máxima	15.8
176019	7	Sololá	716	San Marcos la Laguna 	11	San Marcos la laguna 	2	Febrero	2023-10-02T00:00:00	2024-11-08T04:00:00	3	Temperatura mínima	14.7
176020	7	Sololá	716	San Marcos la Laguna 	11	San Marcos la laguna 	2	Febrero	2023-10-02T00:00:00	2024-11-08T04:00:00	5	Humedad	73
176021	7	Sololá	716	San Marcos la Laguna 	11	San Marcos la laguna 	2	Febrero	2023-10-02T00:00:00	2024-11-08T04:00:00	6	Velocidad del viento	8
176022	7	Sololá	716	San Marcos la Laguna 	11	San Marcos la laguna 	2	Febrero	2023-10-02T00:00:00	2024-11-08T04:00:00	7	Dirección del viento	8.05
176023	7	Sololá	716	San Marcos la Laguna 	11	San Marcos la laguna 	2	Febrero	2023-10-02T00:00:00	2024-11-08T04:00:00	1	Precipitación	0
176024	7	Sololá	716	San Marcos la Laguna 	11	San Marcos la laguna 	2	Febrero	2023-10-02T00:00:00	2024-11-08T04:00:00	8	Radiación solar	0
176025	7	Sololá	716	San Marcos la Laguna 	11	San Marcos la laguna 	2	Febrero	2023-10-02T00:00:00	2024-11-08T05:00:00	2	Temperatura media	14.6
176026	7	Sololá	716	San Marcos la Laguna 	11	San Marcos la laguna 	2	Febrero	2023-10-02T00:00:00	2024-11-08T05:00:00	4	Temperatura máxima	15.7
176027	7	Sololá	716	San Marcos la Laguna 	11	San Marcos la laguna 	2	Febrero	2023-10-02T00:00:00	2024-11-08T05:00:00	3	Temperatura mínima	14.4
176028	7	Sololá	716	San Marcos la Laguna 	11	San Marcos la laguna 	2	Febrero	2023-10-02T00:00:00	2024-11-08T05:00:00	5	Humedad	74
176029	7	Sololá	716	San Marcos la Laguna 	11	San Marcos la laguna 	2	Febrero	2023-10-02T00:00:00	2024-11-08T05:00:00	6	Velocidad del viento	8
176030	7	Sololá	716	San Marcos la Laguna 	11	San Marcos la laguna 	2	Febrero	2023-10-02T00:00:00	2024-11-08T05:00:00	7	Dirección del viento	8.05
176031	7	Sololá	716	San Marcos la Laguna 	11	San Marcos la laguna 	2	Febrero	2023-10-02T00:00:00	2024-11-08T05:00:00	1	Precipitación	0
176032	7	Sololá	716	San Marcos la Laguna 	11	San Marcos la laguna 	2	Febrero	2023-10-02T00:00:00	2024-11-08T05:00:00	8	Radiación solar	0
176033	7	Sololá	716	San Marcos la Laguna 	11	San Marcos la laguna 	2	Febrero	2023-10-02T00:00:00	2024-11-08T06:00:00	2	Temperatura media	14.2
176034	7	Sololá	716	San Marcos la Laguna 	11	San Marcos la laguna 	2	Febrero	2023-10-02T00:00:00	2024-11-08T06:00:00	4	Temperatura máxima	15.2
176035	7	Sololá	716	San Marcos la Laguna 	11	San Marcos la laguna 	2	Febrero	2023-10-02T00:00:00	2024-11-08T06:00:00	3	Temperatura mínima	14.2
176036	7	Sololá	716	San Marcos la Laguna 	11	San Marcos la laguna 	2	Febrero	2023-10-02T00:00:00	2024-11-08T06:00:00	5	Humedad	74
176037	7	Sololá	716	San Marcos la Laguna 	11	San Marcos la laguna 	2	Febrero	2023-10-02T00:00:00	2024-11-08T06:00:00	6	Velocidad del viento	8
176038	7	Sololá	716	San Marcos la Laguna 	11	San Marcos la laguna 	2	Febrero	2023-10-02T00:00:00	2024-11-08T06:00:00	7	Dirección del viento	8.05
176039	7	Sololá	716	San Marcos la Laguna 	11	San Marcos la laguna 	2	Febrero	2023-10-02T00:00:00	2024-11-08T06:00:00	1	Precipitación	0
176040	7	Sololá	716	San Marcos la Laguna 	11	San Marcos la laguna 	2	Febrero	2023-10-02T00:00:00	2024-11-08T06:00:00	8	Radiación solar	7
176041	7	Sololá	716	San Marcos la Laguna 	11	San Marcos la laguna 	2	Febrero	2023-10-02T00:00:00	2024-11-08T07:00:00	2	Temperatura media	14.6
176042	7	Sololá	716	San Marcos la Laguna 	11	San Marcos la laguna 	2	Febrero	2023-10-02T00:00:00	2024-11-08T07:00:00	4	Temperatura máxima	14.6
176043	7	Sololá	716	San Marcos la Laguna 	11	San Marcos la laguna 	2	Febrero	2023-10-02T00:00:00	2024-11-08T07:00:00	3	Temperatura mínima	13.5
176044	7	Sololá	716	San Marcos la Laguna 	11	San Marcos la laguna 	2	Febrero	2023-10-02T00:00:00	2024-11-08T07:00:00	5	Humedad	75
176045	7	Sololá	716	San Marcos la Laguna 	11	San Marcos la laguna 	2	Febrero	2023-10-02T00:00:00	2024-11-08T07:00:00	6	Velocidad del viento	8
176046	7	Sololá	716	San Marcos la Laguna 	11	San Marcos la laguna 	2	Febrero	2023-10-02T00:00:00	2024-11-08T07:00:00	7	Dirección del viento	8.05
176047	7	Sololá	716	San Marcos la Laguna 	11	San Marcos la laguna 	2	Febrero	2023-10-02T00:00:00	2024-11-08T07:00:00	1	Precipitación	0
176048	7	Sololá	716	San Marcos la Laguna 	11	San Marcos la laguna 	2	Febrero	2023-10-02T00:00:00	2024-11-08T07:00:00	8	Radiación solar	120
176049	7	Sololá	716	San Marcos la Laguna 	11	San Marcos la laguna 	2	Febrero	2023-10-02T00:00:00	2024-11-08T08:00:00	2	Temperatura media	17.1
176050	7	Sololá	716	San Marcos la Laguna 	11	San Marcos la laguna 	2	Febrero	2023-10-02T00:00:00	2024-11-08T08:00:00	4	Temperatura máxima	17.1
176051	7	Sololá	716	San Marcos la Laguna 	11	San Marcos la laguna 	2	Febrero	2023-10-02T00:00:00	2024-11-08T08:00:00	3	Temperatura mínima	14.5
176052	7	Sololá	716	San Marcos la Laguna 	11	San Marcos la laguna 	2	Febrero	2023-10-02T00:00:00	2024-11-08T08:00:00	5	Humedad	72
176053	7	Sololá	716	San Marcos la Laguna 	11	San Marcos la laguna 	2	Febrero	2023-10-02T00:00:00	2024-11-08T08:00:00	6	Velocidad del viento	3.2
176054	7	Sololá	716	San Marcos la Laguna 	11	San Marcos la laguna 	2	Febrero	2023-10-02T00:00:00	2024-11-08T08:00:00	7	Dirección del viento	3.22
176055	7	Sololá	716	San Marcos la Laguna 	11	San Marcos la laguna 	2	Febrero	2023-10-02T00:00:00	2024-11-08T08:00:00	1	Precipitación	0
176056	7	Sololá	716	San Marcos la Laguna 	11	San Marcos la laguna 	2	Febrero	2023-10-02T00:00:00	2024-11-08T08:00:00	8	Radiación solar	349
176057	7	Sololá	716	San Marcos la Laguna 	11	San Marcos la laguna 	2	Febrero	2023-10-02T00:00:00	2024-11-08T09:00:00	2	Temperatura media	19.3
176058	7	Sololá	716	San Marcos la Laguna 	11	San Marcos la laguna 	2	Febrero	2023-10-02T00:00:00	2024-11-08T09:00:00	4	Temperatura máxima	19.4
176059	7	Sololá	716	San Marcos la Laguna 	11	San Marcos la laguna 	2	Febrero	2023-10-02T00:00:00	2024-11-08T09:00:00	3	Temperatura mínima	17.1
176060	7	Sololá	716	San Marcos la Laguna 	11	San Marcos la laguna 	2	Febrero	2023-10-02T00:00:00	2024-11-08T09:00:00	5	Humedad	66
176061	7	Sololá	716	San Marcos la Laguna 	11	San Marcos la laguna 	2	Febrero	2023-10-02T00:00:00	2024-11-08T09:00:00	6	Velocidad del viento	3.2
176062	7	Sololá	716	San Marcos la Laguna 	11	San Marcos la laguna 	2	Febrero	2023-10-02T00:00:00	2024-11-08T09:00:00	7	Dirección del viento	3.22
176063	7	Sololá	716	San Marcos la Laguna 	11	San Marcos la laguna 	2	Febrero	2023-10-02T00:00:00	2024-11-08T09:00:00	1	Precipitación	0
176064	7	Sololá	716	San Marcos la Laguna 	11	San Marcos la laguna 	2	Febrero	2023-10-02T00:00:00	2024-11-08T09:00:00	8	Radiación solar	560
176065	7	Sololá	716	San Marcos la Laguna 	11	San Marcos la laguna 	2	Febrero	2023-10-02T00:00:00	2024-11-08T10:00:00	2	Temperatura media	20.7
176066	7	Sololá	716	San Marcos la Laguna 	11	San Marcos la laguna 	2	Febrero	2023-10-02T00:00:00	2024-11-08T10:00:00	4	Temperatura máxima	20.7
176067	7	Sololá	716	San Marcos la Laguna 	11	San Marcos la laguna 	2	Febrero	2023-10-02T00:00:00	2024-11-08T10:00:00	3	Temperatura mínima	19.3
176068	7	Sololá	716	San Marcos la Laguna 	11	San Marcos la laguna 	2	Febrero	2023-10-02T00:00:00	2024-11-08T10:00:00	5	Humedad	63
176069	7	Sololá	716	San Marcos la Laguna 	11	San Marcos la laguna 	2	Febrero	2023-10-02T00:00:00	2024-11-08T10:00:00	6	Velocidad del viento	3.2
176070	7	Sololá	716	San Marcos la Laguna 	11	San Marcos la laguna 	2	Febrero	2023-10-02T00:00:00	2024-11-08T10:00:00	7	Dirección del viento	3.22
176071	7	Sololá	716	San Marcos la Laguna 	11	San Marcos la laguna 	2	Febrero	2023-10-02T00:00:00	2024-11-08T10:00:00	1	Precipitación	0
176072	7	Sololá	716	San Marcos la Laguna 	11	San Marcos la laguna 	2	Febrero	2023-10-02T00:00:00	2024-11-08T10:00:00	8	Radiación solar	706
176073	7	Sololá	716	San Marcos la Laguna 	11	San Marcos la laguna 	2	Febrero	2023-10-02T00:00:00	2024-11-08T11:00:00	2	Temperatura media	22.1
176074	7	Sololá	716	San Marcos la Laguna 	11	San Marcos la laguna 	2	Febrero	2023-10-02T00:00:00	2024-11-08T11:00:00	4	Temperatura máxima	22.2
176075	7	Sololá	716	San Marcos la Laguna 	11	San Marcos la laguna 	2	Febrero	2023-10-02T00:00:00	2024-11-08T11:00:00	3	Temperatura mínima	20.7
176076	7	Sololá	716	San Marcos la Laguna 	11	San Marcos la laguna 	2	Febrero	2023-10-02T00:00:00	2024-11-08T11:00:00	5	Humedad	48
176077	7	Sololá	716	San Marcos la Laguna 	11	San Marcos la laguna 	2	Febrero	2023-10-02T00:00:00	2024-11-08T11:00:00	6	Velocidad del viento	3.2
176078	7	Sololá	716	San Marcos la Laguna 	11	San Marcos la laguna 	2	Febrero	2023-10-02T00:00:00	2024-11-08T11:00:00	7	Dirección del viento	3.22
176079	7	Sololá	716	San Marcos la Laguna 	11	San Marcos la laguna 	2	Febrero	2023-10-02T00:00:00	2024-11-08T11:00:00	1	Precipitación	0
176080	7	Sololá	716	San Marcos la Laguna 	11	San Marcos la laguna 	2	Febrero	2023-10-02T00:00:00	2024-11-08T11:00:00	8	Radiación solar	710
176081	7	Sololá	716	San Marcos la Laguna 	11	San Marcos la laguna 	2	Febrero	2023-10-02T00:00:00	2024-11-08T12:00:00	2	Temperatura media	24.6
176082	7	Sololá	716	San Marcos la Laguna 	11	San Marcos la laguna 	2	Febrero	2023-10-02T00:00:00	2024-11-08T12:00:00	4	Temperatura máxima	24.6
176083	7	Sololá	716	San Marcos la Laguna 	11	San Marcos la laguna 	2	Febrero	2023-10-02T00:00:00	2024-11-08T12:00:00	3	Temperatura mínima	22.1
176084	7	Sololá	716	San Marcos la Laguna 	11	San Marcos la laguna 	2	Febrero	2023-10-02T00:00:00	2024-11-08T12:00:00	5	Humedad	39
176085	7	Sololá	716	San Marcos la Laguna 	11	San Marcos la laguna 	2	Febrero	2023-10-02T00:00:00	2024-11-08T12:00:00	6	Velocidad del viento	3.2
176086	7	Sololá	716	San Marcos la Laguna 	11	San Marcos la laguna 	2	Febrero	2023-10-02T00:00:00	2024-11-08T12:00:00	7	Dirección del viento	3.22
176087	7	Sololá	716	San Marcos la Laguna 	11	San Marcos la laguna 	2	Febrero	2023-10-02T00:00:00	2024-11-08T12:00:00	1	Precipitación	0
176088	7	Sololá	716	San Marcos la Laguna 	11	San Marcos la laguna 	2	Febrero	2023-10-02T00:00:00	2024-11-08T12:00:00	8	Radiación solar	853
176089	7	Sololá	716	San Marcos la Laguna 	11	San Marcos la laguna 	2	Febrero	2023-10-02T00:00:00	2024-11-08T13:00:00	2	Temperatura media	22.6
176090	7	Sololá	716	San Marcos la Laguna 	11	San Marcos la laguna 	2	Febrero	2023-10-02T00:00:00	2024-11-08T13:00:00	4	Temperatura máxima	24.6
176091	7	Sololá	716	San Marcos la Laguna 	11	San Marcos la laguna 	2	Febrero	2023-10-02T00:00:00	2024-11-08T13:00:00	3	Temperatura mínima	22.6
176092	7	Sololá	716	San Marcos la Laguna 	11	San Marcos la laguna 	2	Febrero	2023-10-02T00:00:00	2024-11-08T13:00:00	5	Humedad	64
176093	7	Sololá	716	San Marcos la Laguna 	11	San Marcos la laguna 	2	Febrero	2023-10-02T00:00:00	2024-11-08T13:00:00	6	Velocidad del viento	8
176094	7	Sololá	716	San Marcos la Laguna 	11	San Marcos la laguna 	2	Febrero	2023-10-02T00:00:00	2024-11-08T13:00:00	7	Dirección del viento	8.05
176095	7	Sololá	716	San Marcos la Laguna 	11	San Marcos la laguna 	2	Febrero	2023-10-02T00:00:00	2024-11-08T13:00:00	1	Precipitación	0
176096	7	Sololá	716	San Marcos la Laguna 	11	San Marcos la laguna 	2	Febrero	2023-10-02T00:00:00	2024-11-08T13:00:00	8	Radiación solar	798
176097	7	Sololá	716	San Marcos la Laguna 	11	San Marcos la laguna 	2	Febrero	2023-10-02T00:00:00	2024-11-08T14:00:00	2	Temperatura media	23.4
176098	7	Sololá	716	San Marcos la Laguna 	11	San Marcos la laguna 	2	Febrero	2023-10-02T00:00:00	2024-11-08T14:00:00	4	Temperatura máxima	23.6
176099	7	Sololá	716	San Marcos la Laguna 	11	San Marcos la laguna 	2	Febrero	2023-10-02T00:00:00	2024-11-08T14:00:00	3	Temperatura mínima	22.5
176100	7	Sololá	716	San Marcos la Laguna 	11	San Marcos la laguna 	2	Febrero	2023-10-02T00:00:00	2024-11-08T14:00:00	5	Humedad	64
176101	7	Sololá	716	San Marcos la Laguna 	11	San Marcos la laguna 	2	Febrero	2023-10-02T00:00:00	2024-11-08T14:00:00	6	Velocidad del viento	8
176102	7	Sololá	716	San Marcos la Laguna 	11	San Marcos la laguna 	2	Febrero	2023-10-02T00:00:00	2024-11-08T14:00:00	7	Dirección del viento	8.05
176103	7	Sololá	716	San Marcos la Laguna 	11	San Marcos la laguna 	2	Febrero	2023-10-02T00:00:00	2024-11-08T14:00:00	1	Precipitación	0
176104	7	Sololá	716	San Marcos la Laguna 	11	San Marcos la laguna 	2	Febrero	2023-10-02T00:00:00	2024-11-08T14:00:00	8	Radiación solar	663
176105	7	Sololá	716	San Marcos la Laguna 	11	San Marcos la laguna 	2	Febrero	2023-10-02T00:00:00	2024-11-08T15:00:00	2	Temperatura media	22.7
176106	7	Sololá	716	San Marcos la Laguna 	11	San Marcos la laguna 	2	Febrero	2023-10-02T00:00:00	2024-11-08T15:00:00	4	Temperatura máxima	24
176107	7	Sololá	716	San Marcos la Laguna 	11	San Marcos la laguna 	2	Febrero	2023-10-02T00:00:00	2024-11-08T15:00:00	3	Temperatura mínima	22.6
176108	7	Sololá	716	San Marcos la Laguna 	11	San Marcos la laguna 	2	Febrero	2023-10-02T00:00:00	2024-11-08T15:00:00	5	Humedad	68
176109	7	Sololá	716	San Marcos la Laguna 	11	San Marcos la laguna 	2	Febrero	2023-10-02T00:00:00	2024-11-08T15:00:00	6	Velocidad del viento	6.4
176110	7	Sololá	716	San Marcos la Laguna 	11	San Marcos la laguna 	2	Febrero	2023-10-02T00:00:00	2024-11-08T15:00:00	7	Dirección del viento	6.44
176111	7	Sololá	716	San Marcos la Laguna 	11	San Marcos la laguna 	2	Febrero	2023-10-02T00:00:00	2024-11-08T15:00:00	1	Precipitación	0
176112	7	Sololá	716	San Marcos la Laguna 	11	San Marcos la laguna 	2	Febrero	2023-10-02T00:00:00	2024-11-08T15:00:00	8	Radiación solar	239
176113	7	Sololá	716	San Marcos la Laguna 	11	San Marcos la laguna 	2	Febrero	2023-10-02T00:00:00	2024-11-08T16:00:00	2	Temperatura media	21.8
176114	7	Sololá	716	San Marcos la Laguna 	11	San Marcos la laguna 	2	Febrero	2023-10-02T00:00:00	2024-11-08T16:00:00	4	Temperatura máxima	23.1
176115	7	Sololá	716	San Marcos la Laguna 	11	San Marcos la laguna 	2	Febrero	2023-10-02T00:00:00	2024-11-08T16:00:00	3	Temperatura mínima	21.8
176116	7	Sololá	716	San Marcos la Laguna 	11	San Marcos la laguna 	2	Febrero	2023-10-02T00:00:00	2024-11-08T16:00:00	5	Humedad	71
176117	7	Sololá	716	San Marcos la Laguna 	11	San Marcos la laguna 	2	Febrero	2023-10-02T00:00:00	2024-11-08T16:00:00	6	Velocidad del viento	8
176118	7	Sololá	716	San Marcos la Laguna 	11	San Marcos la laguna 	2	Febrero	2023-10-02T00:00:00	2024-11-08T16:00:00	7	Dirección del viento	8.05
176119	7	Sololá	716	San Marcos la Laguna 	11	San Marcos la laguna 	2	Febrero	2023-10-02T00:00:00	2024-11-08T16:00:00	1	Precipitación	0
176120	7	Sololá	716	San Marcos la Laguna 	11	San Marcos la laguna 	2	Febrero	2023-10-02T00:00:00	2024-11-08T16:00:00	8	Radiación solar	198
176121	7	Sololá	716	San Marcos la Laguna 	11	San Marcos la laguna 	2	Febrero	2023-10-02T00:00:00	2024-11-08T17:00:00	2	Temperatura media	21.2
176122	7	Sololá	716	San Marcos la Laguna 	11	San Marcos la laguna 	2	Febrero	2023-10-02T00:00:00	2024-11-08T17:00:00	4	Temperatura máxima	21.9
176123	7	Sololá	716	San Marcos la Laguna 	11	San Marcos la laguna 	2	Febrero	2023-10-02T00:00:00	2024-11-08T17:00:00	3	Temperatura mínima	21.2
176124	7	Sololá	716	San Marcos la Laguna 	11	San Marcos la laguna 	2	Febrero	2023-10-02T00:00:00	2024-11-08T17:00:00	5	Humedad	77
176125	7	Sololá	716	San Marcos la Laguna 	11	San Marcos la laguna 	2	Febrero	2023-10-02T00:00:00	2024-11-08T17:00:00	6	Velocidad del viento	8
176126	7	Sololá	716	San Marcos la Laguna 	11	San Marcos la laguna 	2	Febrero	2023-10-02T00:00:00	2024-11-08T17:00:00	7	Dirección del viento	8.05
176127	7	Sololá	716	San Marcos la Laguna 	11	San Marcos la laguna 	2	Febrero	2023-10-02T00:00:00	2024-11-08T17:00:00	1	Precipitación	0
176128	7	Sololá	716	San Marcos la Laguna 	11	San Marcos la laguna 	2	Febrero	2023-10-02T00:00:00	2024-11-08T17:00:00	8	Radiación solar	43
176129	7	Sololá	716	San Marcos la Laguna 	11	San Marcos la laguna 	2	Febrero	2023-10-02T00:00:00	2024-11-08T18:00:00	2	Temperatura media	19.9
176130	7	Sololá	716	San Marcos la Laguna 	11	San Marcos la laguna 	2	Febrero	2023-10-02T00:00:00	2024-11-08T18:00:00	4	Temperatura máxima	21.2
176131	7	Sololá	716	San Marcos la Laguna 	11	San Marcos la laguna 	2	Febrero	2023-10-02T00:00:00	2024-11-08T18:00:00	3	Temperatura mínima	19.9
176132	7	Sololá	716	San Marcos la Laguna 	11	San Marcos la laguna 	2	Febrero	2023-10-02T00:00:00	2024-11-08T18:00:00	5	Humedad	81
176133	7	Sololá	716	San Marcos la Laguna 	11	San Marcos la laguna 	2	Febrero	2023-10-02T00:00:00	2024-11-08T18:00:00	6	Velocidad del viento	6.4
176134	7	Sololá	716	San Marcos la Laguna 	11	San Marcos la laguna 	2	Febrero	2023-10-02T00:00:00	2024-11-08T18:00:00	7	Dirección del viento	6.44
176135	7	Sololá	716	San Marcos la Laguna 	11	San Marcos la laguna 	2	Febrero	2023-10-02T00:00:00	2024-11-08T18:00:00	1	Precipitación	0
176136	7	Sololá	716	San Marcos la Laguna 	11	San Marcos la laguna 	2	Febrero	2023-10-02T00:00:00	2024-11-08T18:00:00	8	Radiación solar	0
176137	7	Sololá	716	San Marcos la Laguna 	11	San Marcos la laguna 	2	Febrero	2023-10-02T00:00:00	2024-11-08T19:00:00	2	Temperatura media	19.3
176138	7	Sololá	716	San Marcos la Laguna 	11	San Marcos la laguna 	2	Febrero	2023-10-02T00:00:00	2024-11-08T19:00:00	4	Temperatura máxima	19.9
176139	7	Sololá	716	San Marcos la Laguna 	11	San Marcos la laguna 	2	Febrero	2023-10-02T00:00:00	2024-11-08T19:00:00	3	Temperatura mínima	19.3
176140	7	Sololá	716	San Marcos la Laguna 	11	San Marcos la laguna 	2	Febrero	2023-10-02T00:00:00	2024-11-08T19:00:00	5	Humedad	84
176141	7	Sololá	716	San Marcos la Laguna 	11	San Marcos la laguna 	2	Febrero	2023-10-02T00:00:00	2024-11-08T19:00:00	6	Velocidad del viento	4.8
176142	7	Sololá	716	San Marcos la Laguna 	11	San Marcos la laguna 	2	Febrero	2023-10-02T00:00:00	2024-11-08T19:00:00	7	Dirección del viento	4.83
176143	7	Sololá	716	San Marcos la Laguna 	11	San Marcos la laguna 	2	Febrero	2023-10-02T00:00:00	2024-11-08T19:00:00	1	Precipitación	0
176144	7	Sololá	716	San Marcos la Laguna 	11	San Marcos la laguna 	2	Febrero	2023-10-02T00:00:00	2024-11-08T19:00:00	8	Radiación solar	0
176145	7	Sololá	716	San Marcos la Laguna 	11	San Marcos la laguna 	2	Febrero	2023-10-02T00:00:00	2024-11-08T20:00:00	2	Temperatura media	17.9
176146	7	Sololá	716	San Marcos la Laguna 	11	San Marcos la laguna 	2	Febrero	2023-10-02T00:00:00	2024-11-08T20:00:00	4	Temperatura máxima	19.3
176147	7	Sololá	716	San Marcos la Laguna 	11	San Marcos la laguna 	2	Febrero	2023-10-02T00:00:00	2024-11-08T20:00:00	3	Temperatura mínima	17.9
176148	7	Sololá	716	San Marcos la Laguna 	11	San Marcos la laguna 	2	Febrero	2023-10-02T00:00:00	2024-11-08T20:00:00	5	Humedad	84
176149	7	Sololá	716	San Marcos la Laguna 	11	San Marcos la laguna 	2	Febrero	2023-10-02T00:00:00	2024-11-08T20:00:00	6	Velocidad del viento	3.2
176150	7	Sololá	716	San Marcos la Laguna 	11	San Marcos la laguna 	2	Febrero	2023-10-02T00:00:00	2024-11-08T20:00:00	7	Dirección del viento	3.22
176151	7	Sololá	716	San Marcos la Laguna 	11	San Marcos la laguna 	2	Febrero	2023-10-02T00:00:00	2024-11-08T20:00:00	1	Precipitación	0
176152	7	Sololá	716	San Marcos la Laguna 	11	San Marcos la laguna 	2	Febrero	2023-10-02T00:00:00	2024-11-08T20:00:00	8	Radiación solar	0
176153	7	Sololá	716	San Marcos la Laguna 	11	San Marcos la laguna 	2	Febrero	2023-10-02T00:00:00	2024-11-08T21:00:00	2	Temperatura media	17.3
176154	7	Sololá	716	San Marcos la Laguna 	11	San Marcos la laguna 	2	Febrero	2023-10-02T00:00:00	2024-11-08T21:00:00	4	Temperatura máxima	17.9
176155	7	Sololá	716	San Marcos la Laguna 	11	San Marcos la laguna 	2	Febrero	2023-10-02T00:00:00	2024-11-08T21:00:00	3	Temperatura mínima	17.3
176156	7	Sololá	716	San Marcos la Laguna 	11	San Marcos la laguna 	2	Febrero	2023-10-02T00:00:00	2024-11-08T21:00:00	5	Humedad	78
176157	7	Sololá	716	San Marcos la Laguna 	11	San Marcos la laguna 	2	Febrero	2023-10-02T00:00:00	2024-11-08T21:00:00	6	Velocidad del viento	6.4
176158	7	Sololá	716	San Marcos la Laguna 	11	San Marcos la laguna 	2	Febrero	2023-10-02T00:00:00	2024-11-08T21:00:00	7	Dirección del viento	6.44
176159	7	Sololá	716	San Marcos la Laguna 	11	San Marcos la laguna 	2	Febrero	2023-10-02T00:00:00	2024-11-08T21:00:00	1	Precipitación	0
176160	7	Sololá	716	San Marcos la Laguna 	11	San Marcos la laguna 	2	Febrero	2023-10-02T00:00:00	2024-11-08T21:00:00	8	Radiación solar	0
176161	7	Sololá	716	San Marcos la Laguna 	11	San Marcos la laguna 	2	Febrero	2023-10-02T00:00:00	2024-11-08T22:00:00	2	Temperatura media	17.8
176162	7	Sololá	716	San Marcos la Laguna 	11	San Marcos la laguna 	2	Febrero	2023-10-02T00:00:00	2024-11-08T22:00:00	4	Temperatura máxima	17.8
176163	7	Sololá	716	San Marcos la Laguna 	11	San Marcos la laguna 	2	Febrero	2023-10-02T00:00:00	2024-11-08T22:00:00	3	Temperatura mínima	17.4
176164	7	Sololá	716	San Marcos la Laguna 	11	San Marcos la laguna 	2	Febrero	2023-10-02T00:00:00	2024-11-08T22:00:00	5	Humedad	74
176165	7	Sololá	716	San Marcos la Laguna 	11	San Marcos la laguna 	2	Febrero	2023-10-02T00:00:00	2024-11-08T22:00:00	6	Velocidad del viento	6.4
176166	7	Sololá	716	San Marcos la Laguna 	11	San Marcos la laguna 	2	Febrero	2023-10-02T00:00:00	2024-11-08T22:00:00	7	Dirección del viento	6.44
176167	7	Sololá	716	San Marcos la Laguna 	11	San Marcos la laguna 	2	Febrero	2023-10-02T00:00:00	2024-11-08T22:00:00	1	Precipitación	0
176168	7	Sololá	716	San Marcos la Laguna 	11	San Marcos la laguna 	2	Febrero	2023-10-02T00:00:00	2024-11-08T22:00:00	8	Radiación solar	0
176169	7	Sololá	716	San Marcos la Laguna 	11	San Marcos la laguna 	2	Febrero	2023-10-02T00:00:00	2024-11-08T23:00:00	2	Temperatura media	17
176170	7	Sololá	716	San Marcos la Laguna 	11	San Marcos la laguna 	2	Febrero	2023-10-02T00:00:00	2024-11-08T23:00:00	4	Temperatura máxima	17.8
176171	7	Sololá	716	San Marcos la Laguna 	11	San Marcos la laguna 	2	Febrero	2023-10-02T00:00:00	2024-11-08T23:00:00	3	Temperatura mínima	17
176172	7	Sololá	716	San Marcos la Laguna 	11	San Marcos la laguna 	2	Febrero	2023-10-02T00:00:00	2024-11-08T23:00:00	5	Humedad	74
176173	7	Sololá	716	San Marcos la Laguna 	11	San Marcos la laguna 	2	Febrero	2023-10-02T00:00:00	2024-11-08T23:00:00	6	Velocidad del viento	6.4
176174	7	Sololá	716	San Marcos la Laguna 	11	San Marcos la laguna 	2	Febrero	2023-10-02T00:00:00	2024-11-08T23:00:00	7	Dirección del viento	6.44
176175	7	Sololá	716	San Marcos la Laguna 	11	San Marcos la laguna 	2	Febrero	2023-10-02T00:00:00	2024-11-08T23:00:00	1	Precipitación	0
176176	7	Sololá	716	San Marcos la Laguna 	11	San Marcos la laguna 	2	Febrero	2023-10-02T00:00:00	2024-11-08T23:00:00	8	Radiación solar	0
176177	7	Sololá	716	San Marcos la Laguna 	11	San Marcos la laguna 	2	Febrero	2023-11-02T00:00:00	2024-11-08T00:00:00	2	Temperatura media	16.6
176178	7	Sololá	716	San Marcos la Laguna 	11	San Marcos la laguna 	2	Febrero	2023-11-02T00:00:00	2024-11-08T00:00:00	4	Temperatura máxima	17.1
176179	7	Sololá	716	San Marcos la Laguna 	11	San Marcos la laguna 	2	Febrero	2023-11-02T00:00:00	2024-11-08T00:00:00	3	Temperatura mínima	16.6
176180	7	Sololá	716	San Marcos la Laguna 	11	San Marcos la laguna 	2	Febrero	2023-11-02T00:00:00	2024-11-08T00:00:00	5	Humedad	71
176181	7	Sololá	716	San Marcos la Laguna 	11	San Marcos la laguna 	2	Febrero	2023-11-02T00:00:00	2024-11-08T00:00:00	6	Velocidad del viento	6.4
176182	7	Sololá	716	San Marcos la Laguna 	11	San Marcos la laguna 	2	Febrero	2023-11-02T00:00:00	2024-11-08T00:00:00	7	Dirección del viento	6.44
176183	7	Sololá	716	San Marcos la Laguna 	11	San Marcos la laguna 	2	Febrero	2023-11-02T00:00:00	2024-11-08T00:00:00	1	Precipitación	0
176184	7	Sololá	716	San Marcos la Laguna 	11	San Marcos la laguna 	2	Febrero	2023-11-02T00:00:00	2024-11-08T00:00:00	8	Radiación solar	0
176185	7	Sololá	716	San Marcos la Laguna 	11	San Marcos la laguna 	2	Febrero	2023-11-02T00:00:00	2024-11-08T01:00:00	2	Temperatura media	16.1
176186	7	Sololá	716	San Marcos la Laguna 	11	San Marcos la laguna 	2	Febrero	2023-11-02T00:00:00	2024-11-08T01:00:00	4	Temperatura máxima	16.6
176187	7	Sololá	716	San Marcos la Laguna 	11	San Marcos la laguna 	2	Febrero	2023-11-02T00:00:00	2024-11-08T01:00:00	3	Temperatura mínima	15.6
176188	7	Sololá	716	San Marcos la Laguna 	11	San Marcos la laguna 	2	Febrero	2023-11-02T00:00:00	2024-11-08T01:00:00	5	Humedad	74
176189	7	Sololá	716	San Marcos la Laguna 	11	San Marcos la laguna 	2	Febrero	2023-11-02T00:00:00	2024-11-08T01:00:00	6	Velocidad del viento	8
176190	7	Sololá	716	San Marcos la Laguna 	11	San Marcos la laguna 	2	Febrero	2023-11-02T00:00:00	2024-11-08T01:00:00	7	Dirección del viento	8.05
176191	7	Sololá	716	San Marcos la Laguna 	11	San Marcos la laguna 	2	Febrero	2023-11-02T00:00:00	2024-11-08T01:00:00	1	Precipitación	0
176192	7	Sololá	716	San Marcos la Laguna 	11	San Marcos la laguna 	2	Febrero	2023-11-02T00:00:00	2024-11-08T01:00:00	8	Radiación solar	0
176193	7	Sololá	716	San Marcos la Laguna 	11	San Marcos la laguna 	2	Febrero	2023-11-02T00:00:00	2024-11-08T02:00:00	2	Temperatura media	15.3
176194	7	Sololá	716	San Marcos la Laguna 	11	San Marcos la laguna 	2	Febrero	2023-11-02T00:00:00	2024-11-08T02:00:00	4	Temperatura máxima	16.1
176195	7	Sololá	716	San Marcos la Laguna 	11	San Marcos la laguna 	2	Febrero	2023-11-02T00:00:00	2024-11-08T02:00:00	3	Temperatura mínima	15.3
176196	7	Sololá	716	San Marcos la Laguna 	11	San Marcos la laguna 	2	Febrero	2023-11-02T00:00:00	2024-11-08T02:00:00	5	Humedad	76
176197	7	Sololá	716	San Marcos la Laguna 	11	San Marcos la laguna 	2	Febrero	2023-11-02T00:00:00	2024-11-08T02:00:00	6	Velocidad del viento	6.4
176198	7	Sololá	716	San Marcos la Laguna 	11	San Marcos la laguna 	2	Febrero	2023-11-02T00:00:00	2024-11-08T02:00:00	7	Dirección del viento	6.44
176199	7	Sololá	716	San Marcos la Laguna 	11	San Marcos la laguna 	2	Febrero	2023-11-02T00:00:00	2024-11-08T02:00:00	1	Precipitación	0
176200	7	Sololá	716	San Marcos la Laguna 	11	San Marcos la laguna 	2	Febrero	2023-11-02T00:00:00	2024-11-08T02:00:00	8	Radiación solar	0
176201	7	Sololá	716	San Marcos la Laguna 	11	San Marcos la laguna 	2	Febrero	2023-11-02T00:00:00	2024-11-08T03:00:00	2	Temperatura media	14.8
176202	7	Sololá	716	San Marcos la Laguna 	11	San Marcos la laguna 	2	Febrero	2023-11-02T00:00:00	2024-11-08T03:00:00	4	Temperatura máxima	15.9
176203	7	Sololá	716	San Marcos la Laguna 	11	San Marcos la laguna 	2	Febrero	2023-11-02T00:00:00	2024-11-08T03:00:00	3	Temperatura mínima	14.8
176204	7	Sololá	716	San Marcos la Laguna 	11	San Marcos la laguna 	2	Febrero	2023-11-02T00:00:00	2024-11-08T03:00:00	5	Humedad	74
176205	7	Sololá	716	San Marcos la Laguna 	11	San Marcos la laguna 	2	Febrero	2023-11-02T00:00:00	2024-11-08T03:00:00	6	Velocidad del viento	8
176206	7	Sololá	716	San Marcos la Laguna 	11	San Marcos la laguna 	2	Febrero	2023-11-02T00:00:00	2024-11-08T03:00:00	7	Dirección del viento	8.05
176207	7	Sololá	716	San Marcos la Laguna 	11	San Marcos la laguna 	2	Febrero	2023-11-02T00:00:00	2024-11-08T03:00:00	1	Precipitación	0
176208	7	Sololá	716	San Marcos la Laguna 	11	San Marcos la laguna 	2	Febrero	2023-11-02T00:00:00	2024-11-08T03:00:00	8	Radiación solar	0
176209	7	Sololá	716	San Marcos la Laguna 	11	San Marcos la laguna 	2	Febrero	2023-11-02T00:00:00	2024-11-08T04:00:00	2	Temperatura media	14
176210	7	Sololá	716	San Marcos la Laguna 	11	San Marcos la laguna 	2	Febrero	2023-11-02T00:00:00	2024-11-08T04:00:00	4	Temperatura máxima	15
176211	7	Sololá	716	San Marcos la Laguna 	11	San Marcos la laguna 	2	Febrero	2023-11-02T00:00:00	2024-11-08T04:00:00	3	Temperatura mínima	13.9
176212	7	Sololá	716	San Marcos la Laguna 	11	San Marcos la laguna 	2	Febrero	2023-11-02T00:00:00	2024-11-08T04:00:00	5	Humedad	76
176213	7	Sololá	716	San Marcos la Laguna 	11	San Marcos la laguna 	2	Febrero	2023-11-02T00:00:00	2024-11-08T04:00:00	6	Velocidad del viento	8
176214	7	Sololá	716	San Marcos la Laguna 	11	San Marcos la laguna 	2	Febrero	2023-11-02T00:00:00	2024-11-08T04:00:00	7	Dirección del viento	8.05
176215	7	Sololá	716	San Marcos la Laguna 	11	San Marcos la laguna 	2	Febrero	2023-11-02T00:00:00	2024-11-08T04:00:00	1	Precipitación	0
176216	7	Sololá	716	San Marcos la Laguna 	11	San Marcos la laguna 	2	Febrero	2023-11-02T00:00:00	2024-11-08T04:00:00	8	Radiación solar	0
176217	7	Sololá	716	San Marcos la Laguna 	11	San Marcos la laguna 	2	Febrero	2023-11-02T00:00:00	2024-11-08T05:00:00	2	Temperatura media	14.4
176218	7	Sololá	716	San Marcos la Laguna 	11	San Marcos la laguna 	2	Febrero	2023-11-02T00:00:00	2024-11-08T05:00:00	4	Temperatura máxima	14.4
176219	7	Sololá	716	San Marcos la Laguna 	11	San Marcos la laguna 	2	Febrero	2023-11-02T00:00:00	2024-11-08T05:00:00	3	Temperatura mínima	13.8
176220	7	Sololá	716	San Marcos la Laguna 	11	San Marcos la laguna 	2	Febrero	2023-11-02T00:00:00	2024-11-08T05:00:00	5	Humedad	72
176221	7	Sololá	716	San Marcos la Laguna 	11	San Marcos la laguna 	2	Febrero	2023-11-02T00:00:00	2024-11-08T05:00:00	6	Velocidad del viento	8
176222	7	Sololá	716	San Marcos la Laguna 	11	San Marcos la laguna 	2	Febrero	2023-11-02T00:00:00	2024-11-08T05:00:00	7	Dirección del viento	8.05
176223	7	Sololá	716	San Marcos la Laguna 	11	San Marcos la laguna 	2	Febrero	2023-11-02T00:00:00	2024-11-08T05:00:00	1	Precipitación	0
176224	7	Sololá	716	San Marcos la Laguna 	11	San Marcos la laguna 	2	Febrero	2023-11-02T00:00:00	2024-11-08T05:00:00	8	Radiación solar	0
176225	7	Sololá	716	San Marcos la Laguna 	11	San Marcos la laguna 	2	Febrero	2023-11-02T00:00:00	2024-11-08T06:00:00	2	Temperatura media	14.3
176226	7	Sololá	716	San Marcos la Laguna 	11	San Marcos la laguna 	2	Febrero	2023-11-02T00:00:00	2024-11-08T06:00:00	4	Temperatura máxima	14.8
176227	7	Sololá	716	San Marcos la Laguna 	11	San Marcos la laguna 	2	Febrero	2023-11-02T00:00:00	2024-11-08T06:00:00	3	Temperatura mínima	13.8
176228	7	Sololá	716	San Marcos la Laguna 	11	San Marcos la laguna 	2	Febrero	2023-11-02T00:00:00	2024-11-08T06:00:00	5	Humedad	72
176229	7	Sololá	716	San Marcos la Laguna 	11	San Marcos la laguna 	2	Febrero	2023-11-02T00:00:00	2024-11-08T06:00:00	6	Velocidad del viento	8
176230	7	Sololá	716	San Marcos la Laguna 	11	San Marcos la laguna 	2	Febrero	2023-11-02T00:00:00	2024-11-08T06:00:00	7	Dirección del viento	8.05
176231	7	Sololá	716	San Marcos la Laguna 	11	San Marcos la laguna 	2	Febrero	2023-11-02T00:00:00	2024-11-08T06:00:00	1	Precipitación	0
176232	7	Sololá	716	San Marcos la Laguna 	11	San Marcos la laguna 	2	Febrero	2023-11-02T00:00:00	2024-11-08T06:00:00	8	Radiación solar	5
176233	7	Sololá	716	San Marcos la Laguna 	11	San Marcos la laguna 	2	Febrero	2023-11-02T00:00:00	2024-11-08T07:00:00	2	Temperatura media	14.6
176234	7	Sololá	716	San Marcos la Laguna 	11	San Marcos la laguna 	2	Febrero	2023-11-02T00:00:00	2024-11-08T07:00:00	4	Temperatura máxima	14.7
176235	7	Sololá	716	San Marcos la Laguna 	11	San Marcos la laguna 	2	Febrero	2023-11-02T00:00:00	2024-11-08T07:00:00	3	Temperatura mínima	13.5
176236	7	Sololá	716	San Marcos la Laguna 	11	San Marcos la laguna 	2	Febrero	2023-11-02T00:00:00	2024-11-08T07:00:00	5	Humedad	70
176237	7	Sololá	716	San Marcos la Laguna 	11	San Marcos la laguna 	2	Febrero	2023-11-02T00:00:00	2024-11-08T07:00:00	6	Velocidad del viento	8
176238	7	Sololá	716	San Marcos la Laguna 	11	San Marcos la laguna 	2	Febrero	2023-11-02T00:00:00	2024-11-08T07:00:00	7	Dirección del viento	8.05
176239	7	Sololá	716	San Marcos la Laguna 	11	San Marcos la laguna 	2	Febrero	2023-11-02T00:00:00	2024-11-08T07:00:00	1	Precipitación	0
176240	7	Sololá	716	San Marcos la Laguna 	11	San Marcos la laguna 	2	Febrero	2023-11-02T00:00:00	2024-11-08T07:00:00	8	Radiación solar	121
176241	7	Sololá	716	San Marcos la Laguna 	11	San Marcos la laguna 	2	Febrero	2023-11-02T00:00:00	2024-11-08T08:00:00	2	Temperatura media	17.2
176242	7	Sololá	716	San Marcos la Laguna 	11	San Marcos la laguna 	2	Febrero	2023-11-02T00:00:00	2024-11-08T08:00:00	4	Temperatura máxima	17.2
176243	7	Sololá	716	San Marcos la Laguna 	11	San Marcos la laguna 	2	Febrero	2023-11-02T00:00:00	2024-11-08T08:00:00	3	Temperatura mínima	14.4
176244	7	Sololá	716	San Marcos la Laguna 	11	San Marcos la laguna 	2	Febrero	2023-11-02T00:00:00	2024-11-08T08:00:00	5	Humedad	67
176245	7	Sololá	716	San Marcos la Laguna 	11	San Marcos la laguna 	2	Febrero	2023-11-02T00:00:00	2024-11-08T08:00:00	6	Velocidad del viento	4.8
176246	7	Sololá	716	San Marcos la Laguna 	11	San Marcos la laguna 	2	Febrero	2023-11-02T00:00:00	2024-11-08T08:00:00	7	Dirección del viento	4.83
176247	7	Sololá	716	San Marcos la Laguna 	11	San Marcos la laguna 	2	Febrero	2023-11-02T00:00:00	2024-11-08T08:00:00	1	Precipitación	0
176248	7	Sololá	716	San Marcos la Laguna 	11	San Marcos la laguna 	2	Febrero	2023-11-02T00:00:00	2024-11-08T08:00:00	8	Radiación solar	357
176249	7	Sololá	716	San Marcos la Laguna 	11	San Marcos la laguna 	2	Febrero	2023-11-02T00:00:00	2024-11-08T09:00:00	2	Temperatura media	21.4
176250	7	Sololá	716	San Marcos la Laguna 	11	San Marcos la laguna 	2	Febrero	2023-11-02T00:00:00	2024-11-08T09:00:00	4	Temperatura máxima	21.6
176251	7	Sololá	716	San Marcos la Laguna 	11	San Marcos la laguna 	2	Febrero	2023-11-02T00:00:00	2024-11-08T09:00:00	3	Temperatura mínima	17.3
176252	7	Sololá	716	San Marcos la Laguna 	11	San Marcos la laguna 	2	Febrero	2023-11-02T00:00:00	2024-11-08T09:00:00	5	Humedad	50
176253	7	Sololá	716	San Marcos la Laguna 	11	San Marcos la laguna 	2	Febrero	2023-11-02T00:00:00	2024-11-08T09:00:00	6	Velocidad del viento	1.6
176254	7	Sololá	716	San Marcos la Laguna 	11	San Marcos la laguna 	2	Febrero	2023-11-02T00:00:00	2024-11-08T09:00:00	7	Dirección del viento	1.61
176255	7	Sololá	716	San Marcos la Laguna 	11	San Marcos la laguna 	2	Febrero	2023-11-02T00:00:00	2024-11-08T09:00:00	1	Precipitación	0
176256	7	Sololá	716	San Marcos la Laguna 	11	San Marcos la laguna 	2	Febrero	2023-11-02T00:00:00	2024-11-08T09:00:00	8	Radiación solar	575
176257	7	Sololá	716	San Marcos la Laguna 	11	San Marcos la laguna 	2	Febrero	2023-11-02T00:00:00	2024-11-08T10:00:00	2	Temperatura media	22.6
176258	7	Sololá	716	San Marcos la Laguna 	11	San Marcos la laguna 	2	Febrero	2023-11-02T00:00:00	2024-11-08T10:00:00	4	Temperatura máxima	22.7
176259	7	Sololá	716	San Marcos la Laguna 	11	San Marcos la laguna 	2	Febrero	2023-11-02T00:00:00	2024-11-08T10:00:00	3	Temperatura mínima	21.2
176260	7	Sololá	716	San Marcos la Laguna 	11	San Marcos la laguna 	2	Febrero	2023-11-02T00:00:00	2024-11-08T10:00:00	5	Humedad	47
176261	7	Sololá	716	San Marcos la Laguna 	11	San Marcos la laguna 	2	Febrero	2023-11-02T00:00:00	2024-11-08T10:00:00	6	Velocidad del viento	3.2
176262	7	Sololá	716	San Marcos la Laguna 	11	San Marcos la laguna 	2	Febrero	2023-11-02T00:00:00	2024-11-08T10:00:00	7	Dirección del viento	3.22
176263	7	Sololá	716	San Marcos la Laguna 	11	San Marcos la laguna 	2	Febrero	2023-11-02T00:00:00	2024-11-08T10:00:00	1	Precipitación	0
176264	7	Sololá	716	San Marcos la Laguna 	11	San Marcos la laguna 	2	Febrero	2023-11-02T00:00:00	2024-11-08T10:00:00	8	Radiación solar	732
176265	7	Sololá	716	San Marcos la Laguna 	11	San Marcos la laguna 	2	Febrero	2023-11-02T00:00:00	2024-11-08T11:00:00	2	Temperatura media	22.9
176266	7	Sololá	716	San Marcos la Laguna 	11	San Marcos la laguna 	2	Febrero	2023-11-02T00:00:00	2024-11-08T11:00:00	4	Temperatura máxima	23.8
176267	7	Sololá	716	San Marcos la Laguna 	11	San Marcos la laguna 	2	Febrero	2023-11-02T00:00:00	2024-11-08T11:00:00	3	Temperatura mínima	22.5
176268	7	Sololá	716	San Marcos la Laguna 	11	San Marcos la laguna 	2	Febrero	2023-11-02T00:00:00	2024-11-08T11:00:00	5	Humedad	36
176269	7	Sololá	716	San Marcos la Laguna 	11	San Marcos la laguna 	2	Febrero	2023-11-02T00:00:00	2024-11-08T11:00:00	6	Velocidad del viento	19.3
176270	7	Sololá	716	San Marcos la Laguna 	11	San Marcos la laguna 	2	Febrero	2023-11-02T00:00:00	2024-11-08T11:00:00	7	Dirección del viento	19.31
176271	7	Sololá	716	San Marcos la Laguna 	11	San Marcos la laguna 	2	Febrero	2023-11-02T00:00:00	2024-11-08T11:00:00	1	Precipitación	0
176272	7	Sololá	716	San Marcos la Laguna 	11	San Marcos la laguna 	2	Febrero	2023-11-02T00:00:00	2024-11-08T11:00:00	8	Radiación solar	740
176273	7	Sololá	716	San Marcos la Laguna 	11	San Marcos la laguna 	2	Febrero	2023-11-02T00:00:00	2024-11-08T12:00:00	2	Temperatura media	23.7
176274	7	Sololá	716	San Marcos la Laguna 	11	San Marcos la laguna 	2	Febrero	2023-11-02T00:00:00	2024-11-08T12:00:00	4	Temperatura máxima	23.7
176275	7	Sololá	716	San Marcos la Laguna 	11	San Marcos la laguna 	2	Febrero	2023-11-02T00:00:00	2024-11-08T12:00:00	3	Temperatura mínima	22.9
176276	7	Sololá	716	San Marcos la Laguna 	11	San Marcos la laguna 	2	Febrero	2023-11-02T00:00:00	2024-11-08T12:00:00	5	Humedad	37
176277	7	Sololá	716	San Marcos la Laguna 	11	San Marcos la laguna 	2	Febrero	2023-11-02T00:00:00	2024-11-08T12:00:00	6	Velocidad del viento	32.2
176278	7	Sololá	716	San Marcos la Laguna 	11	San Marcos la laguna 	2	Febrero	2023-11-02T00:00:00	2024-11-08T12:00:00	7	Dirección del viento	32.19
176279	7	Sololá	716	San Marcos la Laguna 	11	San Marcos la laguna 	2	Febrero	2023-11-02T00:00:00	2024-11-08T12:00:00	1	Precipitación	0
176280	7	Sololá	716	San Marcos la Laguna 	11	San Marcos la laguna 	2	Febrero	2023-11-02T00:00:00	2024-11-08T12:00:00	8	Radiación solar	879
176281	7	Sololá	716	San Marcos la Laguna 	11	San Marcos la laguna 	2	Febrero	2023-11-02T00:00:00	2024-11-08T13:00:00	2	Temperatura media	24.2
176282	7	Sololá	716	San Marcos la Laguna 	11	San Marcos la laguna 	2	Febrero	2023-11-02T00:00:00	2024-11-08T13:00:00	4	Temperatura máxima	24.2
176283	7	Sololá	716	San Marcos la Laguna 	11	San Marcos la laguna 	2	Febrero	2023-11-02T00:00:00	2024-11-08T13:00:00	3	Temperatura mínima	23.3
176284	7	Sololá	716	San Marcos la Laguna 	11	San Marcos la laguna 	2	Febrero	2023-11-02T00:00:00	2024-11-08T13:00:00	5	Humedad	34
176285	7	Sololá	716	San Marcos la Laguna 	11	San Marcos la laguna 	2	Febrero	2023-11-02T00:00:00	2024-11-08T13:00:00	6	Velocidad del viento	32.2
176286	7	Sololá	716	San Marcos la Laguna 	11	San Marcos la laguna 	2	Febrero	2023-11-02T00:00:00	2024-11-08T13:00:00	7	Dirección del viento	32.19
176287	7	Sololá	716	San Marcos la Laguna 	11	San Marcos la laguna 	2	Febrero	2023-11-02T00:00:00	2024-11-08T13:00:00	1	Precipitación	0
176288	7	Sololá	716	San Marcos la Laguna 	11	San Marcos la laguna 	2	Febrero	2023-11-02T00:00:00	2024-11-08T13:00:00	8	Radiación solar	834
176289	7	Sololá	716	San Marcos la Laguna 	11	San Marcos la laguna 	2	Febrero	2023-11-02T00:00:00	2024-11-08T14:00:00	2	Temperatura media	24
176290	7	Sololá	716	San Marcos la Laguna 	11	San Marcos la laguna 	2	Febrero	2023-11-02T00:00:00	2024-11-08T14:00:00	4	Temperatura máxima	24.3
176291	7	Sololá	716	San Marcos la Laguna 	11	San Marcos la laguna 	2	Febrero	2023-11-02T00:00:00	2024-11-08T14:00:00	3	Temperatura mínima	23.6
176292	7	Sololá	716	San Marcos la Laguna 	11	San Marcos la laguna 	2	Febrero	2023-11-02T00:00:00	2024-11-08T14:00:00	5	Humedad	37
176293	7	Sololá	716	San Marcos la Laguna 	11	San Marcos la laguna 	2	Febrero	2023-11-02T00:00:00	2024-11-08T14:00:00	6	Velocidad del viento	35.4
176294	7	Sololá	716	San Marcos la Laguna 	11	San Marcos la laguna 	2	Febrero	2023-11-02T00:00:00	2024-11-08T14:00:00	7	Dirección del viento	35.41
176295	7	Sololá	716	San Marcos la Laguna 	11	San Marcos la laguna 	2	Febrero	2023-11-02T00:00:00	2024-11-08T14:00:00	1	Precipitación	0
176296	7	Sololá	716	San Marcos la Laguna 	11	San Marcos la laguna 	2	Febrero	2023-11-02T00:00:00	2024-11-08T14:00:00	8	Radiación solar	652
176297	7	Sololá	716	San Marcos la Laguna 	11	San Marcos la laguna 	2	Febrero	2023-11-02T00:00:00	2024-11-08T15:00:00	2	Temperatura media	23.7
176298	7	Sololá	716	San Marcos la Laguna 	11	San Marcos la laguna 	2	Febrero	2023-11-02T00:00:00	2024-11-08T15:00:00	4	Temperatura máxima	24.1
176299	7	Sololá	716	San Marcos la Laguna 	11	San Marcos la laguna 	2	Febrero	2023-11-02T00:00:00	2024-11-08T15:00:00	3	Temperatura mínima	23.6
176300	7	Sololá	716	San Marcos la Laguna 	11	San Marcos la laguna 	2	Febrero	2023-11-02T00:00:00	2024-11-08T15:00:00	5	Humedad	45
176301	7	Sololá	716	San Marcos la Laguna 	11	San Marcos la laguna 	2	Febrero	2023-11-02T00:00:00	2024-11-08T15:00:00	6	Velocidad del viento	32.2
176302	7	Sololá	716	San Marcos la Laguna 	11	San Marcos la laguna 	2	Febrero	2023-11-02T00:00:00	2024-11-08T15:00:00	7	Dirección del viento	32.19
176303	7	Sololá	716	San Marcos la Laguna 	11	San Marcos la laguna 	2	Febrero	2023-11-02T00:00:00	2024-11-08T15:00:00	1	Precipitación	0
176304	7	Sololá	716	San Marcos la Laguna 	11	San Marcos la laguna 	2	Febrero	2023-11-02T00:00:00	2024-11-08T15:00:00	8	Radiación solar	716
176305	7	Sololá	716	San Marcos la Laguna 	11	San Marcos la laguna 	2	Febrero	2023-11-02T00:00:00	2024-11-08T16:00:00	2	Temperatura media	23.3
176306	7	Sololá	716	San Marcos la Laguna 	11	San Marcos la laguna 	2	Febrero	2023-11-02T00:00:00	2024-11-08T16:00:00	4	Temperatura máxima	23.7
176307	7	Sololá	716	San Marcos la Laguna 	11	San Marcos la laguna 	2	Febrero	2023-11-02T00:00:00	2024-11-08T16:00:00	3	Temperatura mínima	23.2
176308	7	Sololá	716	San Marcos la Laguna 	11	San Marcos la laguna 	2	Febrero	2023-11-02T00:00:00	2024-11-08T16:00:00	5	Humedad	41
176309	7	Sololá	716	San Marcos la Laguna 	11	San Marcos la laguna 	2	Febrero	2023-11-02T00:00:00	2024-11-08T16:00:00	6	Velocidad del viento	30.6
176310	7	Sololá	716	San Marcos la Laguna 	11	San Marcos la laguna 	2	Febrero	2023-11-02T00:00:00	2024-11-08T16:00:00	7	Dirección del viento	30.58
176311	7	Sololá	716	San Marcos la Laguna 	11	San Marcos la laguna 	2	Febrero	2023-11-02T00:00:00	2024-11-08T16:00:00	1	Precipitación	0
176312	7	Sololá	716	San Marcos la Laguna 	11	San Marcos la laguna 	2	Febrero	2023-11-02T00:00:00	2024-11-08T16:00:00	8	Radiación solar	179
176313	7	Sololá	716	San Marcos la Laguna 	11	San Marcos la laguna 	2	Febrero	2023-11-02T00:00:00	2024-11-08T17:00:00	2	Temperatura media	22.4
176314	7	Sololá	716	San Marcos la Laguna 	11	San Marcos la laguna 	2	Febrero	2023-11-02T00:00:00	2024-11-08T17:00:00	4	Temperatura máxima	23.3
176315	7	Sololá	716	San Marcos la Laguna 	11	San Marcos la laguna 	2	Febrero	2023-11-02T00:00:00	2024-11-08T17:00:00	3	Temperatura mínima	22.4
176316	7	Sololá	716	San Marcos la Laguna 	11	San Marcos la laguna 	2	Febrero	2023-11-02T00:00:00	2024-11-08T17:00:00	5	Humedad	49
176317	7	Sololá	716	San Marcos la Laguna 	11	San Marcos la laguna 	2	Febrero	2023-11-02T00:00:00	2024-11-08T17:00:00	6	Velocidad del viento	27.4
176318	7	Sololá	716	San Marcos la Laguna 	11	San Marcos la laguna 	2	Febrero	2023-11-02T00:00:00	2024-11-08T17:00:00	7	Dirección del viento	27.36
176319	7	Sololá	716	San Marcos la Laguna 	11	San Marcos la laguna 	2	Febrero	2023-11-02T00:00:00	2024-11-08T17:00:00	1	Precipitación	0
176320	7	Sololá	716	San Marcos la Laguna 	11	San Marcos la laguna 	2	Febrero	2023-11-02T00:00:00	2024-11-08T17:00:00	8	Radiación solar	66
176321	7	Sololá	716	San Marcos la Laguna 	11	San Marcos la laguna 	2	Febrero	2023-11-02T00:00:00	2024-11-08T18:00:00	2	Temperatura media	21.4
176322	7	Sololá	716	San Marcos la Laguna 	11	San Marcos la laguna 	2	Febrero	2023-11-02T00:00:00	2024-11-08T18:00:00	4	Temperatura máxima	22.6
176323	7	Sololá	716	San Marcos la Laguna 	11	San Marcos la laguna 	2	Febrero	2023-11-02T00:00:00	2024-11-08T18:00:00	3	Temperatura mínima	21.3
176324	7	Sololá	716	San Marcos la Laguna 	11	San Marcos la laguna 	2	Febrero	2023-11-02T00:00:00	2024-11-08T18:00:00	5	Humedad	52
176325	7	Sololá	716	San Marcos la Laguna 	11	San Marcos la laguna 	2	Febrero	2023-11-02T00:00:00	2024-11-08T18:00:00	6	Velocidad del viento	20.9
176326	7	Sololá	716	San Marcos la Laguna 	11	San Marcos la laguna 	2	Febrero	2023-11-02T00:00:00	2024-11-08T18:00:00	7	Dirección del viento	20.92
176327	7	Sololá	716	San Marcos la Laguna 	11	San Marcos la laguna 	2	Febrero	2023-11-02T00:00:00	2024-11-08T18:00:00	1	Precipitación	0
176328	7	Sololá	716	San Marcos la Laguna 	11	San Marcos la laguna 	2	Febrero	2023-11-02T00:00:00	2024-11-08T18:00:00	8	Radiación solar	23
176329	7	Sololá	716	San Marcos la Laguna 	11	San Marcos la laguna 	2	Febrero	2023-11-02T00:00:00	2024-11-08T19:00:00	2	Temperatura media	20.3
176330	7	Sololá	716	San Marcos la Laguna 	11	San Marcos la laguna 	2	Febrero	2023-11-02T00:00:00	2024-11-08T19:00:00	4	Temperatura máxima	21.4
176331	7	Sololá	716	San Marcos la Laguna 	11	San Marcos la laguna 	2	Febrero	2023-11-02T00:00:00	2024-11-08T19:00:00	3	Temperatura mínima	20.2
176332	7	Sololá	716	San Marcos la Laguna 	11	San Marcos la laguna 	2	Febrero	2023-11-02T00:00:00	2024-11-08T19:00:00	5	Humedad	59
176333	7	Sololá	716	San Marcos la Laguna 	11	San Marcos la laguna 	2	Febrero	2023-11-02T00:00:00	2024-11-08T19:00:00	6	Velocidad del viento	22.5
176334	7	Sololá	716	San Marcos la Laguna 	11	San Marcos la laguna 	2	Febrero	2023-11-02T00:00:00	2024-11-08T19:00:00	7	Dirección del viento	22.53
176335	7	Sololá	716	San Marcos la Laguna 	11	San Marcos la laguna 	2	Febrero	2023-11-02T00:00:00	2024-11-08T19:00:00	1	Precipitación	0
176336	7	Sololá	716	San Marcos la Laguna 	11	San Marcos la laguna 	2	Febrero	2023-11-02T00:00:00	2024-11-08T19:00:00	8	Radiación solar	0
176337	7	Sololá	716	San Marcos la Laguna 	11	San Marcos la laguna 	2	Febrero	2023-11-02T00:00:00	2024-11-08T20:00:00	2	Temperatura media	19.5
176338	7	Sololá	716	San Marcos la Laguna 	11	San Marcos la laguna 	2	Febrero	2023-11-02T00:00:00	2024-11-08T20:00:00	4	Temperatura máxima	20.3
176339	7	Sololá	716	San Marcos la Laguna 	11	San Marcos la laguna 	2	Febrero	2023-11-02T00:00:00	2024-11-08T20:00:00	3	Temperatura mínima	19.4
176340	7	Sololá	716	San Marcos la Laguna 	11	San Marcos la laguna 	2	Febrero	2023-11-02T00:00:00	2024-11-08T20:00:00	5	Humedad	67
176341	7	Sololá	716	San Marcos la Laguna 	11	San Marcos la laguna 	2	Febrero	2023-11-02T00:00:00	2024-11-08T20:00:00	6	Velocidad del viento	25.7
176342	7	Sololá	716	San Marcos la Laguna 	11	San Marcos la laguna 	2	Febrero	2023-11-02T00:00:00	2024-11-08T20:00:00	7	Dirección del viento	25.75
176343	7	Sololá	716	San Marcos la Laguna 	11	San Marcos la laguna 	2	Febrero	2023-11-02T00:00:00	2024-11-08T20:00:00	1	Precipitación	0
176344	7	Sololá	716	San Marcos la Laguna 	11	San Marcos la laguna 	2	Febrero	2023-11-02T00:00:00	2024-11-08T20:00:00	8	Radiación solar	0
176345	7	Sololá	716	San Marcos la Laguna 	11	San Marcos la laguna 	2	Febrero	2023-11-02T00:00:00	2024-11-08T21:00:00	2	Temperatura media	19.3
176346	7	Sololá	716	San Marcos la Laguna 	11	San Marcos la laguna 	2	Febrero	2023-11-02T00:00:00	2024-11-08T21:00:00	4	Temperatura máxima	19.7
176347	7	Sololá	716	San Marcos la Laguna 	11	San Marcos la laguna 	2	Febrero	2023-11-02T00:00:00	2024-11-08T21:00:00	3	Temperatura mínima	19.3
176348	7	Sololá	716	San Marcos la Laguna 	11	San Marcos la laguna 	2	Febrero	2023-11-02T00:00:00	2024-11-08T21:00:00	5	Humedad	68
176349	7	Sololá	716	San Marcos la Laguna 	11	San Marcos la laguna 	2	Febrero	2023-11-02T00:00:00	2024-11-08T21:00:00	6	Velocidad del viento	20.9
176350	7	Sololá	716	San Marcos la Laguna 	11	San Marcos la laguna 	2	Febrero	2023-11-02T00:00:00	2024-11-08T21:00:00	7	Dirección del viento	20.92
176351	7	Sololá	716	San Marcos la Laguna 	11	San Marcos la laguna 	2	Febrero	2023-11-02T00:00:00	2024-11-08T21:00:00	1	Precipitación	0
176352	7	Sololá	716	San Marcos la Laguna 	11	San Marcos la laguna 	2	Febrero	2023-11-02T00:00:00	2024-11-08T21:00:00	8	Radiación solar	0
176353	7	Sololá	716	San Marcos la Laguna 	11	San Marcos la laguna 	2	Febrero	2023-11-02T00:00:00	2024-11-08T22:00:00	2	Temperatura media	19.4
176354	7	Sololá	716	San Marcos la Laguna 	11	San Marcos la laguna 	2	Febrero	2023-11-02T00:00:00	2024-11-08T22:00:00	4	Temperatura máxima	19.7
176355	7	Sololá	716	San Marcos la Laguna 	11	San Marcos la laguna 	2	Febrero	2023-11-02T00:00:00	2024-11-08T22:00:00	3	Temperatura mínima	19.3
176356	7	Sololá	716	San Marcos la Laguna 	11	San Marcos la laguna 	2	Febrero	2023-11-02T00:00:00	2024-11-08T22:00:00	5	Humedad	68
176357	7	Sololá	716	San Marcos la Laguna 	11	San Marcos la laguna 	2	Febrero	2023-11-02T00:00:00	2024-11-08T22:00:00	6	Velocidad del viento	27.4
176358	7	Sololá	716	San Marcos la Laguna 	11	San Marcos la laguna 	2	Febrero	2023-11-02T00:00:00	2024-11-08T22:00:00	7	Dirección del viento	27.36
176359	7	Sololá	716	San Marcos la Laguna 	11	San Marcos la laguna 	2	Febrero	2023-11-02T00:00:00	2024-11-08T22:00:00	1	Precipitación	0
176360	7	Sololá	716	San Marcos la Laguna 	11	San Marcos la laguna 	2	Febrero	2023-11-02T00:00:00	2024-11-08T22:00:00	8	Radiación solar	0
176361	7	Sololá	716	San Marcos la Laguna 	11	San Marcos la laguna 	2	Febrero	2023-11-02T00:00:00	2024-11-08T23:00:00	2	Temperatura media	18.9
176362	7	Sololá	716	San Marcos la Laguna 	11	San Marcos la laguna 	2	Febrero	2023-11-02T00:00:00	2024-11-08T23:00:00	4	Temperatura máxima	19.7
176363	7	Sololá	716	San Marcos la Laguna 	11	San Marcos la laguna 	2	Febrero	2023-11-02T00:00:00	2024-11-08T23:00:00	3	Temperatura mínima	18.9
176364	7	Sololá	716	San Marcos la Laguna 	11	San Marcos la laguna 	2	Febrero	2023-11-02T00:00:00	2024-11-08T23:00:00	5	Humedad	69
176365	7	Sololá	716	San Marcos la Laguna 	11	San Marcos la laguna 	2	Febrero	2023-11-02T00:00:00	2024-11-08T23:00:00	6	Velocidad del viento	20.9
176366	7	Sololá	716	San Marcos la Laguna 	11	San Marcos la laguna 	2	Febrero	2023-11-02T00:00:00	2024-11-08T23:00:00	7	Dirección del viento	20.92
176367	7	Sololá	716	San Marcos la Laguna 	11	San Marcos la laguna 	2	Febrero	2023-11-02T00:00:00	2024-11-08T23:00:00	1	Precipitación	0
176368	7	Sololá	716	San Marcos la Laguna 	11	San Marcos la laguna 	2	Febrero	2023-11-02T00:00:00	2024-11-08T23:00:00	8	Radiación solar	0
176369	7	Sololá	716	San Marcos la Laguna 	11	San Marcos la laguna 	2	Febrero	2023-12-02T00:00:00	2024-11-08T00:00:00	2	Temperatura media	18.7
176370	7	Sololá	716	San Marcos la Laguna 	11	San Marcos la laguna 	2	Febrero	2023-12-02T00:00:00	2024-11-08T00:00:00	4	Temperatura máxima	18.9
176371	7	Sololá	716	San Marcos la Laguna 	11	San Marcos la laguna 	2	Febrero	2023-12-02T00:00:00	2024-11-08T00:00:00	3	Temperatura mínima	17.7
176372	7	Sololá	716	San Marcos la Laguna 	11	San Marcos la laguna 	2	Febrero	2023-12-02T00:00:00	2024-11-08T00:00:00	5	Humedad	67
176373	7	Sololá	716	San Marcos la Laguna 	11	San Marcos la laguna 	2	Febrero	2023-12-02T00:00:00	2024-11-08T00:00:00	6	Velocidad del viento	8
176374	7	Sololá	716	San Marcos la Laguna 	11	San Marcos la laguna 	2	Febrero	2023-12-02T00:00:00	2024-11-08T00:00:00	7	Dirección del viento	8.05
176375	7	Sololá	716	San Marcos la Laguna 	11	San Marcos la laguna 	2	Febrero	2023-12-02T00:00:00	2024-11-08T00:00:00	1	Precipitación	0
176376	7	Sololá	716	San Marcos la Laguna 	11	San Marcos la laguna 	2	Febrero	2023-12-02T00:00:00	2024-11-08T00:00:00	8	Radiación solar	0
176377	7	Sololá	716	San Marcos la Laguna 	11	San Marcos la laguna 	2	Febrero	2023-12-02T00:00:00	2024-11-08T01:00:00	2	Temperatura media	18.2
176378	7	Sololá	716	San Marcos la Laguna 	11	San Marcos la laguna 	2	Febrero	2023-12-02T00:00:00	2024-11-08T01:00:00	4	Temperatura máxima	19.1
176379	7	Sololá	716	San Marcos la Laguna 	11	San Marcos la laguna 	2	Febrero	2023-12-02T00:00:00	2024-11-08T01:00:00	3	Temperatura mínima	17.9
176380	7	Sololá	716	San Marcos la Laguna 	11	San Marcos la laguna 	2	Febrero	2023-12-02T00:00:00	2024-11-08T01:00:00	5	Humedad	70
176381	7	Sololá	716	San Marcos la Laguna 	11	San Marcos la laguna 	2	Febrero	2023-12-02T00:00:00	2024-11-08T01:00:00	6	Velocidad del viento	9.7
176382	7	Sololá	716	San Marcos la Laguna 	11	San Marcos la laguna 	2	Febrero	2023-12-02T00:00:00	2024-11-08T01:00:00	7	Dirección del viento	9.66
176383	7	Sololá	716	San Marcos la Laguna 	11	San Marcos la laguna 	2	Febrero	2023-12-02T00:00:00	2024-11-08T01:00:00	1	Precipitación	0
176384	7	Sololá	716	San Marcos la Laguna 	11	San Marcos la laguna 	2	Febrero	2023-12-02T00:00:00	2024-11-08T01:00:00	8	Radiación solar	0
176385	7	Sololá	716	San Marcos la Laguna 	11	San Marcos la laguna 	2	Febrero	2023-12-02T00:00:00	2024-11-08T02:00:00	2	Temperatura media	17.3
176386	7	Sololá	716	San Marcos la Laguna 	11	San Marcos la laguna 	2	Febrero	2023-12-02T00:00:00	2024-11-08T02:00:00	4	Temperatura máxima	18.3
176387	7	Sololá	716	San Marcos la Laguna 	11	San Marcos la laguna 	2	Febrero	2023-12-02T00:00:00	2024-11-08T02:00:00	3	Temperatura mínima	16.8
176388	7	Sololá	716	San Marcos la Laguna 	11	San Marcos la laguna 	2	Febrero	2023-12-02T00:00:00	2024-11-08T02:00:00	5	Humedad	69
176389	7	Sololá	716	San Marcos la Laguna 	11	San Marcos la laguna 	2	Febrero	2023-12-02T00:00:00	2024-11-08T02:00:00	6	Velocidad del viento	6.4
176390	7	Sololá	716	San Marcos la Laguna 	11	San Marcos la laguna 	2	Febrero	2023-12-02T00:00:00	2024-11-08T02:00:00	7	Dirección del viento	6.44
176391	7	Sololá	716	San Marcos la Laguna 	11	San Marcos la laguna 	2	Febrero	2023-12-02T00:00:00	2024-11-08T02:00:00	1	Precipitación	0
176392	7	Sololá	716	San Marcos la Laguna 	11	San Marcos la laguna 	2	Febrero	2023-12-02T00:00:00	2024-11-08T02:00:00	8	Radiación solar	0
176393	7	Sololá	716	San Marcos la Laguna 	11	San Marcos la laguna 	2	Febrero	2023-12-02T00:00:00	2024-11-08T03:00:00	2	Temperatura media	15.1
176394	7	Sololá	716	San Marcos la Laguna 	11	San Marcos la laguna 	2	Febrero	2023-12-02T00:00:00	2024-11-08T03:00:00	4	Temperatura máxima	17.3
176395	7	Sololá	716	San Marcos la Laguna 	11	San Marcos la laguna 	2	Febrero	2023-12-02T00:00:00	2024-11-08T03:00:00	3	Temperatura mínima	15.1
176396	7	Sololá	716	San Marcos la Laguna 	11	San Marcos la laguna 	2	Febrero	2023-12-02T00:00:00	2024-11-08T03:00:00	5	Humedad	77
176397	7	Sololá	716	San Marcos la Laguna 	11	San Marcos la laguna 	2	Febrero	2023-12-02T00:00:00	2024-11-08T03:00:00	6	Velocidad del viento	4.8
176398	7	Sololá	716	San Marcos la Laguna 	11	San Marcos la laguna 	2	Febrero	2023-12-02T00:00:00	2024-11-08T03:00:00	7	Dirección del viento	4.83
176399	7	Sololá	716	San Marcos la Laguna 	11	San Marcos la laguna 	2	Febrero	2023-12-02T00:00:00	2024-11-08T03:00:00	1	Precipitación	0
176400	7	Sololá	716	San Marcos la Laguna 	11	San Marcos la laguna 	2	Febrero	2023-12-02T00:00:00	2024-11-08T03:00:00	8	Radiación solar	0
176401	7	Sololá	716	San Marcos la Laguna 	11	San Marcos la laguna 	2	Febrero	2023-12-02T00:00:00	2024-11-08T04:00:00	2	Temperatura media	14.8
176402	7	Sololá	716	San Marcos la Laguna 	11	San Marcos la laguna 	2	Febrero	2023-12-02T00:00:00	2024-11-08T04:00:00	4	Temperatura máxima	15.6
176403	7	Sololá	716	San Marcos la Laguna 	11	San Marcos la laguna 	2	Febrero	2023-12-02T00:00:00	2024-11-08T04:00:00	3	Temperatura mínima	14.6
176404	7	Sololá	716	San Marcos la Laguna 	11	San Marcos la laguna 	2	Febrero	2023-12-02T00:00:00	2024-11-08T04:00:00	5	Humedad	78
176405	7	Sololá	716	San Marcos la Laguna 	11	San Marcos la laguna 	2	Febrero	2023-12-02T00:00:00	2024-11-08T04:00:00	6	Velocidad del viento	4.8
176406	7	Sololá	716	San Marcos la Laguna 	11	San Marcos la laguna 	2	Febrero	2023-12-02T00:00:00	2024-11-08T04:00:00	7	Dirección del viento	4.83
176407	7	Sololá	716	San Marcos la Laguna 	11	San Marcos la laguna 	2	Febrero	2023-12-02T00:00:00	2024-11-08T04:00:00	1	Precipitación	0
176408	7	Sololá	716	San Marcos la Laguna 	11	San Marcos la laguna 	2	Febrero	2023-12-02T00:00:00	2024-11-08T04:00:00	8	Radiación solar	0
176409	7	Sololá	716	San Marcos la Laguna 	11	San Marcos la laguna 	2	Febrero	2023-12-02T00:00:00	2024-11-08T05:00:00	2	Temperatura media	15.1
176410	7	Sololá	716	San Marcos la Laguna 	11	San Marcos la laguna 	2	Febrero	2023-12-02T00:00:00	2024-11-08T05:00:00	4	Temperatura máxima	15.1
176411	7	Sololá	716	San Marcos la Laguna 	11	San Marcos la laguna 	2	Febrero	2023-12-02T00:00:00	2024-11-08T05:00:00	3	Temperatura mínima	14.4
176412	7	Sololá	716	San Marcos la Laguna 	11	San Marcos la laguna 	2	Febrero	2023-12-02T00:00:00	2024-11-08T05:00:00	5	Humedad	74
176413	7	Sololá	716	San Marcos la Laguna 	11	San Marcos la laguna 	2	Febrero	2023-12-02T00:00:00	2024-11-08T05:00:00	6	Velocidad del viento	6.4
176414	7	Sololá	716	San Marcos la Laguna 	11	San Marcos la laguna 	2	Febrero	2023-12-02T00:00:00	2024-11-08T05:00:00	7	Dirección del viento	6.44
176415	7	Sololá	716	San Marcos la Laguna 	11	San Marcos la laguna 	2	Febrero	2023-12-02T00:00:00	2024-11-08T05:00:00	1	Precipitación	0
176416	7	Sololá	716	San Marcos la Laguna 	11	San Marcos la laguna 	2	Febrero	2023-12-02T00:00:00	2024-11-08T05:00:00	8	Radiación solar	0
176417	7	Sololá	716	San Marcos la Laguna 	11	San Marcos la laguna 	2	Febrero	2023-12-02T00:00:00	2024-11-08T06:00:00	2	Temperatura media	15.4
176418	7	Sololá	716	San Marcos la Laguna 	11	San Marcos la laguna 	2	Febrero	2023-12-02T00:00:00	2024-11-08T06:00:00	4	Temperatura máxima	15.8
176419	7	Sololá	716	San Marcos la Laguna 	11	San Marcos la laguna 	2	Febrero	2023-12-02T00:00:00	2024-11-08T06:00:00	3	Temperatura mínima	14.7
176420	7	Sololá	716	San Marcos la Laguna 	11	San Marcos la laguna 	2	Febrero	2023-12-02T00:00:00	2024-11-08T06:00:00	5	Humedad	71
176421	7	Sololá	716	San Marcos la Laguna 	11	San Marcos la laguna 	2	Febrero	2023-12-02T00:00:00	2024-11-08T06:00:00	6	Velocidad del viento	8
176422	7	Sololá	716	San Marcos la Laguna 	11	San Marcos la laguna 	2	Febrero	2023-12-02T00:00:00	2024-11-08T06:00:00	7	Dirección del viento	8.05
176423	7	Sololá	716	San Marcos la Laguna 	11	San Marcos la laguna 	2	Febrero	2023-12-02T00:00:00	2024-11-08T06:00:00	1	Precipitación	0
176424	7	Sololá	716	San Marcos la Laguna 	11	San Marcos la laguna 	2	Febrero	2023-12-02T00:00:00	2024-11-08T06:00:00	8	Radiación solar	0
176425	7	Sololá	716	San Marcos la Laguna 	11	San Marcos la laguna 	2	Febrero	2023-12-02T00:00:00	2024-11-08T07:00:00	2	Temperatura media	17.2
176426	7	Sololá	716	San Marcos la Laguna 	11	San Marcos la laguna 	2	Febrero	2023-12-02T00:00:00	2024-11-08T07:00:00	4	Temperatura máxima	17.2
176427	7	Sololá	716	San Marcos la Laguna 	11	San Marcos la laguna 	2	Febrero	2023-12-02T00:00:00	2024-11-08T07:00:00	3	Temperatura mínima	15.2
176428	7	Sololá	716	San Marcos la Laguna 	11	San Marcos la laguna 	2	Febrero	2023-12-02T00:00:00	2024-11-08T07:00:00	5	Humedad	66
176429	7	Sololá	716	San Marcos la Laguna 	11	San Marcos la laguna 	2	Febrero	2023-12-02T00:00:00	2024-11-08T07:00:00	6	Velocidad del viento	6.4
176430	7	Sololá	716	San Marcos la Laguna 	11	San Marcos la laguna 	2	Febrero	2023-12-02T00:00:00	2024-11-08T07:00:00	7	Dirección del viento	6.44
176431	7	Sololá	716	San Marcos la Laguna 	11	San Marcos la laguna 	2	Febrero	2023-12-02T00:00:00	2024-11-08T07:00:00	1	Precipitación	0
176432	7	Sololá	716	San Marcos la Laguna 	11	San Marcos la laguna 	2	Febrero	2023-12-02T00:00:00	2024-11-08T07:00:00	8	Radiación solar	6
176433	7	Sololá	716	San Marcos la Laguna 	11	San Marcos la laguna 	2	Febrero	2023-12-02T00:00:00	2024-11-08T08:00:00	2	Temperatura media	19.7
176434	7	Sololá	716	San Marcos la Laguna 	11	San Marcos la laguna 	2	Febrero	2023-12-02T00:00:00	2024-11-08T08:00:00	4	Temperatura máxima	19.7
176435	7	Sololá	716	San Marcos la Laguna 	11	San Marcos la laguna 	2	Febrero	2023-12-02T00:00:00	2024-11-08T08:00:00	3	Temperatura mínima	17.2
176436	7	Sololá	716	San Marcos la Laguna 	11	San Marcos la laguna 	2	Febrero	2023-12-02T00:00:00	2024-11-08T08:00:00	5	Humedad	57
176437	7	Sololá	716	San Marcos la Laguna 	11	San Marcos la laguna 	2	Febrero	2023-12-02T00:00:00	2024-11-08T08:00:00	6	Velocidad del viento	4.8
176438	7	Sololá	716	San Marcos la Laguna 	11	San Marcos la laguna 	2	Febrero	2023-12-02T00:00:00	2024-11-08T08:00:00	7	Dirección del viento	4.83
176439	7	Sololá	716	San Marcos la Laguna 	11	San Marcos la laguna 	2	Febrero	2023-12-02T00:00:00	2024-11-08T08:00:00	1	Precipitación	0
176440	7	Sololá	716	San Marcos la Laguna 	11	San Marcos la laguna 	2	Febrero	2023-12-02T00:00:00	2024-11-08T08:00:00	8	Radiación solar	27
176441	7	Sololá	716	San Marcos la Laguna 	11	San Marcos la laguna 	2	Febrero	2023-12-02T00:00:00	2024-11-08T09:00:00	2	Temperatura media	22.7
176442	7	Sololá	716	San Marcos la Laguna 	11	San Marcos la laguna 	2	Febrero	2023-12-02T00:00:00	2024-11-08T09:00:00	4	Temperatura máxima	22.7
176443	7	Sololá	716	San Marcos la Laguna 	11	San Marcos la laguna 	2	Febrero	2023-12-02T00:00:00	2024-11-08T09:00:00	3	Temperatura mínima	19.7
176444	7	Sololá	716	San Marcos la Laguna 	11	San Marcos la laguna 	2	Febrero	2023-12-02T00:00:00	2024-11-08T09:00:00	5	Humedad	49
176445	7	Sololá	716	San Marcos la Laguna 	11	San Marcos la laguna 	2	Febrero	2023-12-02T00:00:00	2024-11-08T09:00:00	6	Velocidad del viento	1.6
176446	7	Sololá	716	San Marcos la Laguna 	11	San Marcos la laguna 	2	Febrero	2023-12-02T00:00:00	2024-11-08T09:00:00	7	Dirección del viento	1.61
176447	7	Sololá	716	San Marcos la Laguna 	11	San Marcos la laguna 	2	Febrero	2023-12-02T00:00:00	2024-11-08T09:00:00	1	Precipitación	0
176448	7	Sololá	716	San Marcos la Laguna 	11	San Marcos la laguna 	2	Febrero	2023-12-02T00:00:00	2024-11-08T09:00:00	8	Radiación solar	221
176449	7	Sololá	716	San Marcos la Laguna 	11	San Marcos la laguna 	2	Febrero	2023-12-02T00:00:00	2024-11-08T10:00:00	2	Temperatura media	22.6
176450	7	Sololá	716	San Marcos la Laguna 	11	San Marcos la laguna 	2	Febrero	2023-12-02T00:00:00	2024-11-08T10:00:00	4	Temperatura máxima	22.7
176451	7	Sololá	716	San Marcos la Laguna 	11	San Marcos la laguna 	2	Febrero	2023-12-02T00:00:00	2024-11-08T10:00:00	3	Temperatura mínima	21.5
176452	7	Sololá	716	San Marcos la Laguna 	11	San Marcos la laguna 	2	Febrero	2023-12-02T00:00:00	2024-11-08T10:00:00	5	Humedad	47
176453	7	Sololá	716	San Marcos la Laguna 	11	San Marcos la laguna 	2	Febrero	2023-12-02T00:00:00	2024-11-08T10:00:00	6	Velocidad del viento	14.5
176454	7	Sololá	716	San Marcos la Laguna 	11	San Marcos la laguna 	2	Febrero	2023-12-02T00:00:00	2024-11-08T10:00:00	7	Dirección del viento	14.48
176455	7	Sololá	716	San Marcos la Laguna 	11	San Marcos la laguna 	2	Febrero	2023-12-02T00:00:00	2024-11-08T10:00:00	1	Precipitación	0
176456	7	Sololá	716	San Marcos la Laguna 	11	San Marcos la laguna 	2	Febrero	2023-12-02T00:00:00	2024-11-08T10:00:00	8	Radiación solar	576
176457	7	Sololá	716	San Marcos la Laguna 	11	San Marcos la laguna 	2	Febrero	2023-12-02T00:00:00	2024-11-08T11:00:00	2	Temperatura media	22.3
176458	7	Sololá	716	San Marcos la Laguna 	11	San Marcos la laguna 	2	Febrero	2023-12-02T00:00:00	2024-11-08T11:00:00	4	Temperatura máxima	22.9
176459	7	Sololá	716	San Marcos la Laguna 	11	San Marcos la laguna 	2	Febrero	2023-12-02T00:00:00	2024-11-08T11:00:00	3	Temperatura mínima	21.8
176460	7	Sololá	716	San Marcos la Laguna 	11	San Marcos la laguna 	2	Febrero	2023-12-02T00:00:00	2024-11-08T11:00:00	5	Humedad	51
176461	7	Sololá	716	San Marcos la Laguna 	11	San Marcos la laguna 	2	Febrero	2023-12-02T00:00:00	2024-11-08T11:00:00	6	Velocidad del viento	27.4
176462	7	Sololá	716	San Marcos la Laguna 	11	San Marcos la laguna 	2	Febrero	2023-12-02T00:00:00	2024-11-08T11:00:00	7	Dirección del viento	27.36
176463	7	Sololá	716	San Marcos la Laguna 	11	San Marcos la laguna 	2	Febrero	2023-12-02T00:00:00	2024-11-08T11:00:00	1	Precipitación	0
176464	7	Sololá	716	San Marcos la Laguna 	11	San Marcos la laguna 	2	Febrero	2023-12-02T00:00:00	2024-11-08T11:00:00	8	Radiación solar	526
176465	7	Sololá	716	San Marcos la Laguna 	11	San Marcos la laguna 	2	Febrero	2023-12-02T00:00:00	2024-11-08T12:00:00	2	Temperatura media	21.8
176466	7	Sololá	716	San Marcos la Laguna 	11	San Marcos la laguna 	2	Febrero	2023-12-02T00:00:00	2024-11-08T12:00:00	4	Temperatura máxima	23.6
176467	7	Sololá	716	San Marcos la Laguna 	11	San Marcos la laguna 	2	Febrero	2023-12-02T00:00:00	2024-11-08T12:00:00	3	Temperatura mínima	21.8
176468	7	Sololá	716	San Marcos la Laguna 	11	San Marcos la laguna 	2	Febrero	2023-12-02T00:00:00	2024-11-08T12:00:00	5	Humedad	59
176469	7	Sololá	716	San Marcos la Laguna 	11	San Marcos la laguna 	2	Febrero	2023-12-02T00:00:00	2024-11-08T12:00:00	6	Velocidad del viento	33.8
176470	7	Sololá	716	San Marcos la Laguna 	11	San Marcos la laguna 	2	Febrero	2023-12-02T00:00:00	2024-11-08T12:00:00	7	Dirección del viento	33.8
176471	7	Sololá	716	San Marcos la Laguna 	11	San Marcos la laguna 	2	Febrero	2023-12-02T00:00:00	2024-11-08T12:00:00	1	Precipitación	0
176472	7	Sololá	716	San Marcos la Laguna 	11	San Marcos la laguna 	2	Febrero	2023-12-02T00:00:00	2024-11-08T12:00:00	8	Radiación solar	391
176473	7	Sololá	716	San Marcos la Laguna 	11	San Marcos la laguna 	2	Febrero	2023-12-02T00:00:00	2024-11-08T13:00:00	2	Temperatura media	22.6
176474	7	Sololá	716	San Marcos la Laguna 	11	San Marcos la laguna 	2	Febrero	2023-12-02T00:00:00	2024-11-08T13:00:00	4	Temperatura máxima	22.8
176475	7	Sololá	716	San Marcos la Laguna 	11	San Marcos la laguna 	2	Febrero	2023-12-02T00:00:00	2024-11-08T13:00:00	3	Temperatura mínima	21.6
176476	7	Sololá	716	San Marcos la Laguna 	11	San Marcos la laguna 	2	Febrero	2023-12-02T00:00:00	2024-11-08T13:00:00	5	Humedad	59
176477	7	Sololá	716	San Marcos la Laguna 	11	San Marcos la laguna 	2	Febrero	2023-12-02T00:00:00	2024-11-08T13:00:00	6	Velocidad del viento	32.2
176478	7	Sololá	716	San Marcos la Laguna 	11	San Marcos la laguna 	2	Febrero	2023-12-02T00:00:00	2024-11-08T13:00:00	7	Dirección del viento	32.19
176479	7	Sololá	716	San Marcos la Laguna 	11	San Marcos la laguna 	2	Febrero	2023-12-02T00:00:00	2024-11-08T13:00:00	1	Precipitación	0
176480	7	Sololá	716	San Marcos la Laguna 	11	San Marcos la laguna 	2	Febrero	2023-12-02T00:00:00	2024-11-08T13:00:00	8	Radiación solar	499
176481	7	Sololá	716	San Marcos la Laguna 	11	San Marcos la laguna 	2	Febrero	2023-12-02T00:00:00	2024-11-08T14:00:00	2	Temperatura media	23
176482	7	Sololá	716	San Marcos la Laguna 	11	San Marcos la laguna 	2	Febrero	2023-12-02T00:00:00	2024-11-08T14:00:00	4	Temperatura máxima	23.3
176483	7	Sololá	716	San Marcos la Laguna 	11	San Marcos la laguna 	2	Febrero	2023-12-02T00:00:00	2024-11-08T14:00:00	3	Temperatura mínima	22.6
176484	7	Sololá	716	San Marcos la Laguna 	11	San Marcos la laguna 	2	Febrero	2023-12-02T00:00:00	2024-11-08T14:00:00	5	Humedad	54
176485	7	Sololá	716	San Marcos la Laguna 	11	San Marcos la laguna 	2	Febrero	2023-12-02T00:00:00	2024-11-08T14:00:00	6	Velocidad del viento	32.2
176486	7	Sololá	716	San Marcos la Laguna 	11	San Marcos la laguna 	2	Febrero	2023-12-02T00:00:00	2024-11-08T14:00:00	7	Dirección del viento	32.19
176487	7	Sololá	716	San Marcos la Laguna 	11	San Marcos la laguna 	2	Febrero	2023-12-02T00:00:00	2024-11-08T14:00:00	1	Precipitación	0
176488	7	Sololá	716	San Marcos la Laguna 	11	San Marcos la laguna 	2	Febrero	2023-12-02T00:00:00	2024-11-08T14:00:00	8	Radiación solar	241
176489	7	Sololá	716	San Marcos la Laguna 	11	San Marcos la laguna 	2	Febrero	2023-12-02T00:00:00	2024-11-08T15:00:00	2	Temperatura media	24.6
176490	7	Sololá	716	San Marcos la Laguna 	11	San Marcos la laguna 	2	Febrero	2023-12-02T00:00:00	2024-11-08T15:00:00	4	Temperatura máxima	24.6
176491	7	Sololá	716	San Marcos la Laguna 	11	San Marcos la laguna 	2	Febrero	2023-12-02T00:00:00	2024-11-08T15:00:00	3	Temperatura mínima	23
176492	7	Sololá	716	San Marcos la Laguna 	11	San Marcos la laguna 	2	Febrero	2023-12-02T00:00:00	2024-11-08T15:00:00	5	Humedad	42
176493	7	Sololá	716	San Marcos la Laguna 	11	San Marcos la laguna 	2	Febrero	2023-12-02T00:00:00	2024-11-08T15:00:00	6	Velocidad del viento	29
176494	7	Sololá	716	San Marcos la Laguna 	11	San Marcos la laguna 	2	Febrero	2023-12-02T00:00:00	2024-11-08T15:00:00	7	Dirección del viento	28.97
176495	7	Sololá	716	San Marcos la Laguna 	11	San Marcos la laguna 	2	Febrero	2023-12-02T00:00:00	2024-11-08T15:00:00	1	Precipitación	0
176496	7	Sololá	716	San Marcos la Laguna 	11	San Marcos la laguna 	2	Febrero	2023-12-02T00:00:00	2024-11-08T15:00:00	8	Radiación solar	299
176497	7	Sololá	716	San Marcos la Laguna 	11	San Marcos la laguna 	2	Febrero	2023-12-02T00:00:00	2024-11-08T16:00:00	2	Temperatura media	23.6
176498	7	Sololá	716	San Marcos la Laguna 	11	San Marcos la laguna 	2	Febrero	2023-12-02T00:00:00	2024-11-08T16:00:00	4	Temperatura máxima	24.6
176499	7	Sololá	716	San Marcos la Laguna 	11	San Marcos la laguna 	2	Febrero	2023-12-02T00:00:00	2024-11-08T16:00:00	3	Temperatura mínima	23.5
176500	7	Sololá	716	San Marcos la Laguna 	11	San Marcos la laguna 	2	Febrero	2023-12-02T00:00:00	2024-11-08T16:00:00	5	Humedad	46
176501	7	Sololá	716	San Marcos la Laguna 	11	San Marcos la laguna 	2	Febrero	2023-12-02T00:00:00	2024-11-08T16:00:00	6	Velocidad del viento	25.7
176502	7	Sololá	716	San Marcos la Laguna 	11	San Marcos la laguna 	2	Febrero	2023-12-02T00:00:00	2024-11-08T16:00:00	7	Dirección del viento	25.75
176503	7	Sololá	716	San Marcos la Laguna 	11	San Marcos la laguna 	2	Febrero	2023-12-02T00:00:00	2024-11-08T16:00:00	1	Precipitación	0
176504	7	Sololá	716	San Marcos la Laguna 	11	San Marcos la laguna 	2	Febrero	2023-12-02T00:00:00	2024-11-08T16:00:00	8	Radiación solar	400
176505	7	Sololá	716	San Marcos la Laguna 	11	San Marcos la laguna 	2	Febrero	2023-12-02T00:00:00	2024-11-08T17:00:00	2	Temperatura media	23.2
176506	7	Sololá	716	San Marcos la Laguna 	11	San Marcos la laguna 	2	Febrero	2023-12-02T00:00:00	2024-11-08T17:00:00	4	Temperatura máxima	23.8
176507	7	Sololá	716	San Marcos la Laguna 	11	San Marcos la laguna 	2	Febrero	2023-12-02T00:00:00	2024-11-08T17:00:00	3	Temperatura mínima	23.1
176508	7	Sololá	716	San Marcos la Laguna 	11	San Marcos la laguna 	2	Febrero	2023-12-02T00:00:00	2024-11-08T17:00:00	5	Humedad	46
176509	7	Sololá	716	San Marcos la Laguna 	11	San Marcos la laguna 	2	Febrero	2023-12-02T00:00:00	2024-11-08T17:00:00	6	Velocidad del viento	22.5
176510	7	Sololá	716	San Marcos la Laguna 	11	San Marcos la laguna 	2	Febrero	2023-12-02T00:00:00	2024-11-08T17:00:00	7	Dirección del viento	22.53
176511	7	Sololá	716	San Marcos la Laguna 	11	San Marcos la laguna 	2	Febrero	2023-12-02T00:00:00	2024-11-08T17:00:00	1	Precipitación	0
176512	7	Sololá	716	San Marcos la Laguna 	11	San Marcos la laguna 	2	Febrero	2023-12-02T00:00:00	2024-11-08T17:00:00	8	Radiación solar	189
176513	7	Sololá	716	San Marcos la Laguna 	11	San Marcos la laguna 	2	Febrero	2023-12-02T00:00:00	2024-11-08T18:00:00	2	Temperatura media	21.7
176514	7	Sololá	716	San Marcos la Laguna 	11	San Marcos la laguna 	2	Febrero	2023-12-02T00:00:00	2024-11-08T18:00:00	4	Temperatura máxima	23.2
176515	7	Sololá	716	San Marcos la Laguna 	11	San Marcos la laguna 	2	Febrero	2023-12-02T00:00:00	2024-11-08T18:00:00	3	Temperatura mínima	21.7
176516	7	Sololá	716	San Marcos la Laguna 	11	San Marcos la laguna 	2	Febrero	2023-12-02T00:00:00	2024-11-08T18:00:00	5	Humedad	51
176517	7	Sololá	716	San Marcos la Laguna 	11	San Marcos la laguna 	2	Febrero	2023-12-02T00:00:00	2024-11-08T18:00:00	6	Velocidad del viento	20.9
176518	7	Sololá	716	San Marcos la Laguna 	11	San Marcos la laguna 	2	Febrero	2023-12-02T00:00:00	2024-11-08T18:00:00	7	Dirección del viento	20.92
176519	7	Sololá	716	San Marcos la Laguna 	11	San Marcos la laguna 	2	Febrero	2023-12-02T00:00:00	2024-11-08T18:00:00	1	Precipitación	0
176520	7	Sololá	716	San Marcos la Laguna 	11	San Marcos la laguna 	2	Febrero	2023-12-02T00:00:00	2024-11-08T18:00:00	8	Radiación solar	50
176521	7	Sololá	716	San Marcos la Laguna 	11	San Marcos la laguna 	2	Febrero	2023-12-02T00:00:00	2024-11-08T19:00:00	2	Temperatura media	20.4
176522	7	Sololá	716	San Marcos la Laguna 	11	San Marcos la laguna 	2	Febrero	2023-12-02T00:00:00	2024-11-08T19:00:00	4	Temperatura máxima	21.8
176523	7	Sololá	716	San Marcos la Laguna 	11	San Marcos la laguna 	2	Febrero	2023-12-02T00:00:00	2024-11-08T19:00:00	3	Temperatura mínima	20.4
176524	7	Sololá	716	San Marcos la Laguna 	11	San Marcos la laguna 	2	Febrero	2023-12-02T00:00:00	2024-11-08T19:00:00	5	Humedad	57
176525	7	Sololá	716	San Marcos la Laguna 	11	San Marcos la laguna 	2	Febrero	2023-12-02T00:00:00	2024-11-08T19:00:00	6	Velocidad del viento	20.9
176526	7	Sololá	716	San Marcos la Laguna 	11	San Marcos la laguna 	2	Febrero	2023-12-02T00:00:00	2024-11-08T19:00:00	7	Dirección del viento	20.92
176527	7	Sololá	716	San Marcos la Laguna 	11	San Marcos la laguna 	2	Febrero	2023-12-02T00:00:00	2024-11-08T19:00:00	1	Precipitación	0
176528	7	Sololá	716	San Marcos la Laguna 	11	San Marcos la laguna 	2	Febrero	2023-12-02T00:00:00	2024-11-08T19:00:00	8	Radiación solar	0
176529	7	Sololá	716	San Marcos la Laguna 	11	San Marcos la laguna 	2	Febrero	2023-12-02T00:00:00	2024-11-08T20:00:00	2	Temperatura media	19.6
176530	7	Sololá	716	San Marcos la Laguna 	11	San Marcos la laguna 	2	Febrero	2023-12-02T00:00:00	2024-11-08T20:00:00	4	Temperatura máxima	20.4
176531	7	Sololá	716	San Marcos la Laguna 	11	San Marcos la laguna 	2	Febrero	2023-12-02T00:00:00	2024-11-08T20:00:00	3	Temperatura mínima	19.6
176532	7	Sololá	716	San Marcos la Laguna 	11	San Marcos la laguna 	2	Febrero	2023-12-02T00:00:00	2024-11-08T20:00:00	5	Humedad	58
176533	7	Sololá	716	San Marcos la Laguna 	11	San Marcos la laguna 	2	Febrero	2023-12-02T00:00:00	2024-11-08T20:00:00	6	Velocidad del viento	20.9
176534	7	Sololá	716	San Marcos la Laguna 	11	San Marcos la laguna 	2	Febrero	2023-12-02T00:00:00	2024-11-08T20:00:00	7	Dirección del viento	20.92
176535	7	Sololá	716	San Marcos la Laguna 	11	San Marcos la laguna 	2	Febrero	2023-12-02T00:00:00	2024-11-08T20:00:00	1	Precipitación	0
176536	7	Sololá	716	San Marcos la Laguna 	11	San Marcos la laguna 	2	Febrero	2023-12-02T00:00:00	2024-11-08T20:00:00	8	Radiación solar	0
176537	7	Sololá	716	San Marcos la Laguna 	11	San Marcos la laguna 	2	Febrero	2023-12-02T00:00:00	2024-11-08T21:00:00	2	Temperatura media	17.7
176538	7	Sololá	716	San Marcos la Laguna 	11	San Marcos la laguna 	2	Febrero	2023-12-02T00:00:00	2024-11-08T21:00:00	4	Temperatura máxima	19.6
176539	7	Sololá	716	San Marcos la Laguna 	11	San Marcos la laguna 	2	Febrero	2023-12-02T00:00:00	2024-11-08T21:00:00	3	Temperatura mínima	17.6
176540	7	Sololá	716	San Marcos la Laguna 	11	San Marcos la laguna 	2	Febrero	2023-12-02T00:00:00	2024-11-08T21:00:00	5	Humedad	63
176541	7	Sololá	716	San Marcos la Laguna 	11	San Marcos la laguna 	2	Febrero	2023-12-02T00:00:00	2024-11-08T21:00:00	6	Velocidad del viento	3.2
176542	7	Sololá	716	San Marcos la Laguna 	11	San Marcos la laguna 	2	Febrero	2023-12-02T00:00:00	2024-11-08T21:00:00	7	Dirección del viento	3.22
176543	7	Sololá	716	San Marcos la Laguna 	11	San Marcos la laguna 	2	Febrero	2023-12-02T00:00:00	2024-11-08T21:00:00	1	Precipitación	0
176544	7	Sololá	716	San Marcos la Laguna 	11	San Marcos la laguna 	2	Febrero	2023-12-02T00:00:00	2024-11-08T21:00:00	8	Radiación solar	0
176545	7	Sololá	716	San Marcos la Laguna 	11	San Marcos la laguna 	2	Febrero	2023-12-02T00:00:00	2024-11-08T22:00:00	2	Temperatura media	16.6
176546	7	Sololá	716	San Marcos la Laguna 	11	San Marcos la laguna 	2	Febrero	2023-12-02T00:00:00	2024-11-08T22:00:00	4	Temperatura máxima	17.7
176547	7	Sololá	716	San Marcos la Laguna 	11	San Marcos la laguna 	2	Febrero	2023-12-02T00:00:00	2024-11-08T22:00:00	3	Temperatura mínima	16.6
176548	7	Sololá	716	San Marcos la Laguna 	11	San Marcos la laguna 	2	Febrero	2023-12-02T00:00:00	2024-11-08T22:00:00	5	Humedad	67
176549	7	Sololá	716	San Marcos la Laguna 	11	San Marcos la laguna 	2	Febrero	2023-12-02T00:00:00	2024-11-08T22:00:00	6	Velocidad del viento	3.2
176550	7	Sololá	716	San Marcos la Laguna 	11	San Marcos la laguna 	2	Febrero	2023-12-02T00:00:00	2024-11-08T22:00:00	7	Dirección del viento	3.22
176551	7	Sololá	716	San Marcos la Laguna 	11	San Marcos la laguna 	2	Febrero	2023-12-02T00:00:00	2024-11-08T22:00:00	1	Precipitación	0
176552	7	Sololá	716	San Marcos la Laguna 	11	San Marcos la laguna 	2	Febrero	2023-12-02T00:00:00	2024-11-08T22:00:00	8	Radiación solar	0
176553	7	Sololá	716	San Marcos la Laguna 	11	San Marcos la laguna 	2	Febrero	2023-12-02T00:00:00	2024-11-08T23:00:00	2	Temperatura media	15.9
176554	7	Sololá	716	San Marcos la Laguna 	11	San Marcos la laguna 	2	Febrero	2023-12-02T00:00:00	2024-11-08T23:00:00	4	Temperatura máxima	16.7
176555	7	Sololá	716	San Marcos la Laguna 	11	San Marcos la laguna 	2	Febrero	2023-12-02T00:00:00	2024-11-08T23:00:00	3	Temperatura mínima	15.8
176556	7	Sololá	716	San Marcos la Laguna 	11	San Marcos la laguna 	2	Febrero	2023-12-02T00:00:00	2024-11-08T23:00:00	5	Humedad	69
176557	7	Sololá	716	San Marcos la Laguna 	11	San Marcos la laguna 	2	Febrero	2023-12-02T00:00:00	2024-11-08T23:00:00	6	Velocidad del viento	4.8
176558	7	Sololá	716	San Marcos la Laguna 	11	San Marcos la laguna 	2	Febrero	2023-12-02T00:00:00	2024-11-08T23:00:00	7	Dirección del viento	4.83
176559	7	Sololá	716	San Marcos la Laguna 	11	San Marcos la laguna 	2	Febrero	2023-12-02T00:00:00	2024-11-08T23:00:00	1	Precipitación	0
176560	7	Sololá	716	San Marcos la Laguna 	11	San Marcos la laguna 	2	Febrero	2023-12-02T00:00:00	2024-11-08T23:00:00	8	Radiación solar	0
176561	7	Sololá	716	San Marcos la Laguna 	11	San Marcos la laguna 	2	Febrero	2023-02-13T00:00:00	2024-11-08T00:00:00	2	Temperatura media	15.4
176562	7	Sololá	716	San Marcos la Laguna 	11	San Marcos la laguna 	2	Febrero	2023-02-13T00:00:00	2024-11-08T00:00:00	4	Temperatura máxima	17
176563	7	Sololá	716	San Marcos la Laguna 	11	San Marcos la laguna 	2	Febrero	2023-02-13T00:00:00	2024-11-08T00:00:00	3	Temperatura mínima	15.2
176564	7	Sololá	716	San Marcos la Laguna 	11	San Marcos la laguna 	2	Febrero	2023-02-13T00:00:00	2024-11-08T00:00:00	5	Humedad	71
176565	7	Sololá	716	San Marcos la Laguna 	11	San Marcos la laguna 	2	Febrero	2023-02-13T00:00:00	2024-11-08T00:00:00	6	Velocidad del viento	4.8
176566	7	Sololá	716	San Marcos la Laguna 	11	San Marcos la laguna 	2	Febrero	2023-02-13T00:00:00	2024-11-08T00:00:00	7	Dirección del viento	4.83
176567	7	Sololá	716	San Marcos la Laguna 	11	San Marcos la laguna 	2	Febrero	2023-02-13T00:00:00	2024-11-08T00:00:00	1	Precipitación	0
176568	7	Sololá	716	San Marcos la Laguna 	11	San Marcos la laguna 	2	Febrero	2023-02-13T00:00:00	2024-11-08T00:00:00	8	Radiación solar	0
176569	7	Sololá	716	San Marcos la Laguna 	11	San Marcos la laguna 	2	Febrero	2023-02-13T00:00:00	2024-11-08T01:00:00	2	Temperatura media	14.4
176570	7	Sololá	716	San Marcos la Laguna 	11	San Marcos la laguna 	2	Febrero	2023-02-13T00:00:00	2024-11-08T01:00:00	4	Temperatura máxima	15.4
176571	7	Sololá	716	San Marcos la Laguna 	11	San Marcos la laguna 	2	Febrero	2023-02-13T00:00:00	2024-11-08T01:00:00	3	Temperatura mínima	14.4
176572	7	Sololá	716	San Marcos la Laguna 	11	San Marcos la laguna 	2	Febrero	2023-02-13T00:00:00	2024-11-08T01:00:00	5	Humedad	74
176573	7	Sololá	716	San Marcos la Laguna 	11	San Marcos la laguna 	2	Febrero	2023-02-13T00:00:00	2024-11-08T01:00:00	6	Velocidad del viento	6.4
176574	7	Sololá	716	San Marcos la Laguna 	11	San Marcos la laguna 	2	Febrero	2023-02-13T00:00:00	2024-11-08T01:00:00	7	Dirección del viento	6.44
176575	7	Sololá	716	San Marcos la Laguna 	11	San Marcos la laguna 	2	Febrero	2023-02-13T00:00:00	2024-11-08T01:00:00	1	Precipitación	0
176576	7	Sololá	716	San Marcos la Laguna 	11	San Marcos la laguna 	2	Febrero	2023-02-13T00:00:00	2024-11-08T01:00:00	8	Radiación solar	0
176577	7	Sololá	716	San Marcos la Laguna 	11	San Marcos la laguna 	2	Febrero	2023-02-13T00:00:00	2024-11-08T02:00:00	2	Temperatura media	14.2
176578	7	Sololá	716	San Marcos la Laguna 	11	San Marcos la laguna 	2	Febrero	2023-02-13T00:00:00	2024-11-08T02:00:00	4	Temperatura máxima	14.6
176579	7	Sololá	716	San Marcos la Laguna 	11	San Marcos la laguna 	2	Febrero	2023-02-13T00:00:00	2024-11-08T02:00:00	3	Temperatura mínima	14.2
176580	7	Sololá	716	San Marcos la Laguna 	11	San Marcos la laguna 	2	Febrero	2023-02-13T00:00:00	2024-11-08T02:00:00	5	Humedad	75
176581	7	Sololá	716	San Marcos la Laguna 	11	San Marcos la laguna 	2	Febrero	2023-02-13T00:00:00	2024-11-08T02:00:00	6	Velocidad del viento	6.4
176582	7	Sololá	716	San Marcos la Laguna 	11	San Marcos la laguna 	2	Febrero	2023-02-13T00:00:00	2024-11-08T02:00:00	7	Dirección del viento	6.44
176583	7	Sololá	716	San Marcos la Laguna 	11	San Marcos la laguna 	2	Febrero	2023-02-13T00:00:00	2024-11-08T02:00:00	1	Precipitación	0
176584	7	Sololá	716	San Marcos la Laguna 	11	San Marcos la laguna 	2	Febrero	2023-02-13T00:00:00	2024-11-08T02:00:00	8	Radiación solar	0
176585	7	Sololá	716	San Marcos la Laguna 	11	San Marcos la laguna 	2	Febrero	2023-02-13T00:00:00	2024-11-08T03:00:00	2	Temperatura media	14.1
176586	7	Sololá	716	San Marcos la Laguna 	11	San Marcos la laguna 	2	Febrero	2023-02-13T00:00:00	2024-11-08T03:00:00	4	Temperatura máxima	14.7
176587	7	Sololá	716	San Marcos la Laguna 	11	San Marcos la laguna 	2	Febrero	2023-02-13T00:00:00	2024-11-08T03:00:00	3	Temperatura mínima	14.1
176588	7	Sololá	716	San Marcos la Laguna 	11	San Marcos la laguna 	2	Febrero	2023-02-13T00:00:00	2024-11-08T03:00:00	5	Humedad	75
176589	7	Sololá	716	San Marcos la Laguna 	11	San Marcos la laguna 	2	Febrero	2023-02-13T00:00:00	2024-11-08T03:00:00	6	Velocidad del viento	6.4
176590	7	Sololá	716	San Marcos la Laguna 	11	San Marcos la laguna 	2	Febrero	2023-02-13T00:00:00	2024-11-08T03:00:00	7	Dirección del viento	6.44
176591	7	Sololá	716	San Marcos la Laguna 	11	San Marcos la laguna 	2	Febrero	2023-02-13T00:00:00	2024-11-08T03:00:00	1	Precipitación	0
176592	7	Sololá	716	San Marcos la Laguna 	11	San Marcos la laguna 	2	Febrero	2023-02-13T00:00:00	2024-11-08T03:00:00	8	Radiación solar	0
176593	7	Sololá	716	San Marcos la Laguna 	11	San Marcos la laguna 	2	Febrero	2023-02-13T00:00:00	2024-11-08T04:00:00	2	Temperatura media	14.2
176594	7	Sololá	716	San Marcos la Laguna 	11	San Marcos la laguna 	2	Febrero	2023-02-13T00:00:00	2024-11-08T04:00:00	4	Temperatura máxima	14.3
176595	7	Sololá	716	San Marcos la Laguna 	11	San Marcos la laguna 	2	Febrero	2023-02-13T00:00:00	2024-11-08T04:00:00	3	Temperatura mínima	13.7
176596	7	Sololá	716	San Marcos la Laguna 	11	San Marcos la laguna 	2	Febrero	2023-02-13T00:00:00	2024-11-08T04:00:00	5	Humedad	75
176597	7	Sololá	716	San Marcos la Laguna 	11	San Marcos la laguna 	2	Febrero	2023-02-13T00:00:00	2024-11-08T04:00:00	6	Velocidad del viento	6.4
176598	7	Sololá	716	San Marcos la Laguna 	11	San Marcos la laguna 	2	Febrero	2023-02-13T00:00:00	2024-11-08T04:00:00	7	Dirección del viento	6.44
176599	7	Sololá	716	San Marcos la Laguna 	11	San Marcos la laguna 	2	Febrero	2023-02-13T00:00:00	2024-11-08T04:00:00	1	Precipitación	0
176600	7	Sololá	716	San Marcos la Laguna 	11	San Marcos la laguna 	2	Febrero	2023-02-13T00:00:00	2024-11-08T04:00:00	8	Radiación solar	0
176601	7	Sololá	716	San Marcos la Laguna 	11	San Marcos la laguna 	2	Febrero	2023-02-13T00:00:00	2024-11-08T05:00:00	2	Temperatura media	13.9
176602	7	Sololá	716	San Marcos la Laguna 	11	San Marcos la laguna 	2	Febrero	2023-02-13T00:00:00	2024-11-08T05:00:00	4	Temperatura máxima	14.3
176603	7	Sololá	716	San Marcos la Laguna 	11	San Marcos la laguna 	2	Febrero	2023-02-13T00:00:00	2024-11-08T05:00:00	3	Temperatura mínima	13.8
176604	7	Sololá	716	San Marcos la Laguna 	11	San Marcos la laguna 	2	Febrero	2023-02-13T00:00:00	2024-11-08T05:00:00	5	Humedad	77
176605	7	Sololá	716	San Marcos la Laguna 	11	San Marcos la laguna 	2	Febrero	2023-02-13T00:00:00	2024-11-08T05:00:00	6	Velocidad del viento	6.4
176606	7	Sololá	716	San Marcos la Laguna 	11	San Marcos la laguna 	2	Febrero	2023-02-13T00:00:00	2024-11-08T05:00:00	7	Dirección del viento	6.44
176607	7	Sololá	716	San Marcos la Laguna 	11	San Marcos la laguna 	2	Febrero	2023-02-13T00:00:00	2024-11-08T05:00:00	1	Precipitación	0
176608	7	Sololá	716	San Marcos la Laguna 	11	San Marcos la laguna 	2	Febrero	2023-02-13T00:00:00	2024-11-08T05:00:00	8	Radiación solar	0
176609	7	Sololá	716	San Marcos la Laguna 	11	San Marcos la laguna 	2	Febrero	2023-02-13T00:00:00	2024-11-08T06:00:00	2	Temperatura media	13.8
176610	7	Sololá	716	San Marcos la Laguna 	11	San Marcos la laguna 	2	Febrero	2023-02-13T00:00:00	2024-11-08T06:00:00	4	Temperatura máxima	14.2
176611	7	Sololá	716	San Marcos la Laguna 	11	San Marcos la laguna 	2	Febrero	2023-02-13T00:00:00	2024-11-08T06:00:00	3	Temperatura mínima	13.7
176612	7	Sololá	716	San Marcos la Laguna 	11	San Marcos la laguna 	2	Febrero	2023-02-13T00:00:00	2024-11-08T06:00:00	5	Humedad	80
176613	7	Sololá	716	San Marcos la Laguna 	11	San Marcos la laguna 	2	Febrero	2023-02-13T00:00:00	2024-11-08T06:00:00	6	Velocidad del viento	6.4
176614	7	Sololá	716	San Marcos la Laguna 	11	San Marcos la laguna 	2	Febrero	2023-02-13T00:00:00	2024-11-08T06:00:00	7	Dirección del viento	6.44
176615	7	Sololá	716	San Marcos la Laguna 	11	San Marcos la laguna 	2	Febrero	2023-02-13T00:00:00	2024-11-08T06:00:00	1	Precipitación	0
176616	7	Sololá	716	San Marcos la Laguna 	11	San Marcos la laguna 	2	Febrero	2023-02-13T00:00:00	2024-11-08T06:00:00	8	Radiación solar	0
176617	7	Sololá	716	San Marcos la Laguna 	11	San Marcos la laguna 	2	Febrero	2023-02-13T00:00:00	2024-11-08T07:00:00	2	Temperatura media	14.2
176618	7	Sololá	716	San Marcos la Laguna 	11	San Marcos la laguna 	2	Febrero	2023-02-13T00:00:00	2024-11-08T07:00:00	4	Temperatura máxima	14.2
176619	7	Sololá	716	San Marcos la Laguna 	11	San Marcos la laguna 	2	Febrero	2023-02-13T00:00:00	2024-11-08T07:00:00	3	Temperatura mínima	13.6
176620	7	Sololá	716	San Marcos la Laguna 	11	San Marcos la laguna 	2	Febrero	2023-02-13T00:00:00	2024-11-08T07:00:00	5	Humedad	78
176621	7	Sololá	716	San Marcos la Laguna 	11	San Marcos la laguna 	2	Febrero	2023-02-13T00:00:00	2024-11-08T07:00:00	6	Velocidad del viento	6.4
176622	7	Sololá	716	San Marcos la Laguna 	11	San Marcos la laguna 	2	Febrero	2023-02-13T00:00:00	2024-11-08T07:00:00	7	Dirección del viento	6.44
176623	7	Sololá	716	San Marcos la Laguna 	11	San Marcos la laguna 	2	Febrero	2023-02-13T00:00:00	2024-11-08T07:00:00	1	Precipitación	0
176624	7	Sololá	716	San Marcos la Laguna 	11	San Marcos la laguna 	2	Febrero	2023-02-13T00:00:00	2024-11-08T07:00:00	8	Radiación solar	4
176625	7	Sololá	716	San Marcos la Laguna 	11	San Marcos la laguna 	2	Febrero	2023-02-13T00:00:00	2024-11-08T08:00:00	2	Temperatura media	19.4
176626	7	Sololá	716	San Marcos la Laguna 	11	San Marcos la laguna 	2	Febrero	2023-02-13T00:00:00	2024-11-08T08:00:00	4	Temperatura máxima	19.4
176627	7	Sololá	716	San Marcos la Laguna 	11	San Marcos la laguna 	2	Febrero	2023-02-13T00:00:00	2024-11-08T08:00:00	3	Temperatura mínima	14.2
176628	7	Sololá	716	San Marcos la Laguna 	11	San Marcos la laguna 	2	Febrero	2023-02-13T00:00:00	2024-11-08T08:00:00	5	Humedad	61
176629	7	Sololá	716	San Marcos la Laguna 	11	San Marcos la laguna 	2	Febrero	2023-02-13T00:00:00	2024-11-08T08:00:00	6	Velocidad del viento	4.8
176630	7	Sololá	716	San Marcos la Laguna 	11	San Marcos la laguna 	2	Febrero	2023-02-13T00:00:00	2024-11-08T08:00:00	7	Dirección del viento	4.83
176631	7	Sololá	716	San Marcos la Laguna 	11	San Marcos la laguna 	2	Febrero	2023-02-13T00:00:00	2024-11-08T08:00:00	1	Precipitación	0
176632	7	Sololá	716	San Marcos la Laguna 	11	San Marcos la laguna 	2	Febrero	2023-02-13T00:00:00	2024-11-08T08:00:00	8	Radiación solar	122
176633	7	Sololá	716	San Marcos la Laguna 	11	San Marcos la laguna 	2	Febrero	2023-02-13T00:00:00	2024-11-08T09:00:00	2	Temperatura media	20.8
176634	7	Sololá	716	San Marcos la Laguna 	11	San Marcos la laguna 	2	Febrero	2023-02-13T00:00:00	2024-11-08T09:00:00	4	Temperatura máxima	20.8
176635	7	Sololá	716	San Marcos la Laguna 	11	San Marcos la laguna 	2	Febrero	2023-02-13T00:00:00	2024-11-08T09:00:00	3	Temperatura mínima	19.4
176636	7	Sololá	716	San Marcos la Laguna 	11	San Marcos la laguna 	2	Febrero	2023-02-13T00:00:00	2024-11-08T09:00:00	5	Humedad	53
176637	7	Sololá	716	San Marcos la Laguna 	11	San Marcos la laguna 	2	Febrero	2023-02-13T00:00:00	2024-11-08T09:00:00	6	Velocidad del viento	14.5
176638	7	Sololá	716	San Marcos la Laguna 	11	San Marcos la laguna 	2	Febrero	2023-02-13T00:00:00	2024-11-08T09:00:00	7	Dirección del viento	14.48
176639	7	Sololá	716	San Marcos la Laguna 	11	San Marcos la laguna 	2	Febrero	2023-02-13T00:00:00	2024-11-08T09:00:00	1	Precipitación	0
176640	7	Sololá	716	San Marcos la Laguna 	11	San Marcos la laguna 	2	Febrero	2023-02-13T00:00:00	2024-11-08T09:00:00	8	Radiación solar	365
176641	7	Sololá	716	San Marcos la Laguna 	11	San Marcos la laguna 	2	Febrero	2023-02-13T00:00:00	2024-11-08T10:00:00	2	Temperatura media	21.3
176642	7	Sololá	716	San Marcos la Laguna 	11	San Marcos la laguna 	2	Febrero	2023-02-13T00:00:00	2024-11-08T10:00:00	4	Temperatura máxima	21.3
176643	7	Sololá	716	San Marcos la Laguna 	11	San Marcos la laguna 	2	Febrero	2023-02-13T00:00:00	2024-11-08T10:00:00	3	Temperatura mínima	20.5
176644	7	Sololá	716	San Marcos la Laguna 	11	San Marcos la laguna 	2	Febrero	2023-02-13T00:00:00	2024-11-08T10:00:00	5	Humedad	52
176645	7	Sololá	716	San Marcos la Laguna 	11	San Marcos la laguna 	2	Febrero	2023-02-13T00:00:00	2024-11-08T10:00:00	6	Velocidad del viento	19.3
176646	7	Sololá	716	San Marcos la Laguna 	11	San Marcos la laguna 	2	Febrero	2023-02-13T00:00:00	2024-11-08T10:00:00	7	Dirección del viento	19.31
176647	7	Sololá	716	San Marcos la Laguna 	11	San Marcos la laguna 	2	Febrero	2023-02-13T00:00:00	2024-11-08T10:00:00	1	Precipitación	0
176648	7	Sololá	716	San Marcos la Laguna 	11	San Marcos la laguna 	2	Febrero	2023-02-13T00:00:00	2024-11-08T10:00:00	8	Radiación solar	561
176649	7	Sololá	716	San Marcos la Laguna 	11	San Marcos la laguna 	2	Febrero	2023-02-13T00:00:00	2024-11-08T11:00:00	2	Temperatura media	22.3
176650	7	Sololá	716	San Marcos la Laguna 	11	San Marcos la laguna 	2	Febrero	2023-02-13T00:00:00	2024-11-08T11:00:00	4	Temperatura máxima	22.3
176651	7	Sololá	716	San Marcos la Laguna 	11	San Marcos la laguna 	2	Febrero	2023-02-13T00:00:00	2024-11-08T11:00:00	3	Temperatura mínima	21.3
176652	7	Sololá	716	San Marcos la Laguna 	11	San Marcos la laguna 	2	Febrero	2023-02-13T00:00:00	2024-11-08T11:00:00	5	Humedad	54
176653	7	Sololá	716	San Marcos la Laguna 	11	San Marcos la laguna 	2	Febrero	2023-02-13T00:00:00	2024-11-08T11:00:00	6	Velocidad del viento	17.7
176654	7	Sololá	716	San Marcos la Laguna 	11	San Marcos la laguna 	2	Febrero	2023-02-13T00:00:00	2024-11-08T11:00:00	7	Dirección del viento	17.7
176655	7	Sololá	716	San Marcos la Laguna 	11	San Marcos la laguna 	2	Febrero	2023-02-13T00:00:00	2024-11-08T11:00:00	1	Precipitación	0
176656	7	Sololá	716	San Marcos la Laguna 	11	San Marcos la laguna 	2	Febrero	2023-02-13T00:00:00	2024-11-08T11:00:00	8	Radiación solar	709
176657	7	Sololá	716	San Marcos la Laguna 	11	San Marcos la laguna 	2	Febrero	2023-02-13T00:00:00	2024-11-08T12:00:00	2	Temperatura media	23.5
176658	7	Sololá	716	San Marcos la Laguna 	11	San Marcos la laguna 	2	Febrero	2023-02-13T00:00:00	2024-11-08T12:00:00	4	Temperatura máxima	23.5
176659	7	Sololá	716	San Marcos la Laguna 	11	San Marcos la laguna 	2	Febrero	2023-02-13T00:00:00	2024-11-08T12:00:00	3	Temperatura mínima	22.3
176660	7	Sololá	716	San Marcos la Laguna 	11	San Marcos la laguna 	2	Febrero	2023-02-13T00:00:00	2024-11-08T12:00:00	5	Humedad	55
176661	7	Sololá	716	San Marcos la Laguna 	11	San Marcos la laguna 	2	Febrero	2023-02-13T00:00:00	2024-11-08T12:00:00	6	Velocidad del viento	8
176662	7	Sololá	716	San Marcos la Laguna 	11	San Marcos la laguna 	2	Febrero	2023-02-13T00:00:00	2024-11-08T12:00:00	7	Dirección del viento	8.05
176663	7	Sololá	716	San Marcos la Laguna 	11	San Marcos la laguna 	2	Febrero	2023-02-13T00:00:00	2024-11-08T12:00:00	1	Precipitación	0
176664	7	Sololá	716	San Marcos la Laguna 	11	San Marcos la laguna 	2	Febrero	2023-02-13T00:00:00	2024-11-08T12:00:00	8	Radiación solar	704
176665	7	Sololá	716	San Marcos la Laguna 	11	San Marcos la laguna 	2	Febrero	2023-02-13T00:00:00	2024-11-08T13:00:00	2	Temperatura media	22.8
176666	7	Sololá	716	San Marcos la Laguna 	11	San Marcos la laguna 	2	Febrero	2023-02-13T00:00:00	2024-11-08T13:00:00	4	Temperatura máxima	23.7
176667	7	Sololá	716	San Marcos la Laguna 	11	San Marcos la laguna 	2	Febrero	2023-02-13T00:00:00	2024-11-08T13:00:00	3	Temperatura mínima	22.8
176668	7	Sololá	716	San Marcos la Laguna 	11	San Marcos la laguna 	2	Febrero	2023-02-13T00:00:00	2024-11-08T13:00:00	5	Humedad	58
176669	7	Sololá	716	San Marcos la Laguna 	11	San Marcos la laguna 	2	Febrero	2023-02-13T00:00:00	2024-11-08T13:00:00	6	Velocidad del viento	14.5
176670	7	Sololá	716	San Marcos la Laguna 	11	San Marcos la laguna 	2	Febrero	2023-02-13T00:00:00	2024-11-08T13:00:00	7	Dirección del viento	14.48
176671	7	Sololá	716	San Marcos la Laguna 	11	San Marcos la laguna 	2	Febrero	2023-02-13T00:00:00	2024-11-08T13:00:00	1	Precipitación	0
176672	7	Sololá	716	San Marcos la Laguna 	11	San Marcos la laguna 	2	Febrero	2023-02-13T00:00:00	2024-11-08T13:00:00	8	Radiación solar	840
176673	7	Sololá	716	San Marcos la Laguna 	11	San Marcos la laguna 	2	Febrero	2023-02-13T00:00:00	2024-11-08T14:00:00	2	Temperatura media	24
176674	7	Sololá	716	San Marcos la Laguna 	11	San Marcos la laguna 	2	Febrero	2023-02-13T00:00:00	2024-11-08T14:00:00	4	Temperatura máxima	24.2
176675	7	Sololá	716	San Marcos la Laguna 	11	San Marcos la laguna 	2	Febrero	2023-02-13T00:00:00	2024-11-08T14:00:00	3	Temperatura mínima	22.7
176676	7	Sololá	716	San Marcos la Laguna 	11	San Marcos la laguna 	2	Febrero	2023-02-13T00:00:00	2024-11-08T14:00:00	5	Humedad	50
176677	7	Sololá	716	San Marcos la Laguna 	11	San Marcos la laguna 	2	Febrero	2023-02-13T00:00:00	2024-11-08T14:00:00	6	Velocidad del viento	12.9
176678	7	Sololá	716	San Marcos la Laguna 	11	San Marcos la laguna 	2	Febrero	2023-02-13T00:00:00	2024-11-08T14:00:00	7	Dirección del viento	12.87
176679	7	Sololá	716	San Marcos la Laguna 	11	San Marcos la laguna 	2	Febrero	2023-02-13T00:00:00	2024-11-08T14:00:00	1	Precipitación	0
176680	7	Sololá	716	San Marcos la Laguna 	11	San Marcos la laguna 	2	Febrero	2023-02-13T00:00:00	2024-11-08T14:00:00	8	Radiación solar	859
176681	7	Sololá	716	San Marcos la Laguna 	11	San Marcos la laguna 	2	Febrero	2023-02-13T00:00:00	2024-11-08T15:00:00	2	Temperatura media	23.5
176682	7	Sololá	716	San Marcos la Laguna 	11	San Marcos la laguna 	2	Febrero	2023-02-13T00:00:00	2024-11-08T15:00:00	4	Temperatura máxima	24.1
176683	7	Sololá	716	San Marcos la Laguna 	11	San Marcos la laguna 	2	Febrero	2023-02-13T00:00:00	2024-11-08T15:00:00	3	Temperatura mínima	23.1
176684	7	Sololá	716	San Marcos la Laguna 	11	San Marcos la laguna 	2	Febrero	2023-02-13T00:00:00	2024-11-08T15:00:00	5	Humedad	55
176685	7	Sololá	716	San Marcos la Laguna 	11	San Marcos la laguna 	2	Febrero	2023-02-13T00:00:00	2024-11-08T15:00:00	6	Velocidad del viento	16.1
176686	7	Sololá	716	San Marcos la Laguna 	11	San Marcos la laguna 	2	Febrero	2023-02-13T00:00:00	2024-11-08T15:00:00	7	Dirección del viento	16.09
176687	7	Sololá	716	San Marcos la Laguna 	11	San Marcos la laguna 	2	Febrero	2023-02-13T00:00:00	2024-11-08T15:00:00	1	Precipitación	0
176688	7	Sololá	716	San Marcos la Laguna 	11	San Marcos la laguna 	2	Febrero	2023-02-13T00:00:00	2024-11-08T15:00:00	8	Radiación solar	484
176689	7	Sololá	716	San Marcos la Laguna 	11	San Marcos la laguna 	2	Febrero	2023-02-13T00:00:00	2024-11-08T16:00:00	2	Temperatura media	23.1
176690	7	Sololá	716	San Marcos la Laguna 	11	San Marcos la laguna 	2	Febrero	2023-02-13T00:00:00	2024-11-08T16:00:00	4	Temperatura máxima	23.5
176691	7	Sololá	716	San Marcos la Laguna 	11	San Marcos la laguna 	2	Febrero	2023-02-13T00:00:00	2024-11-08T16:00:00	3	Temperatura mínima	23.1
176692	7	Sololá	716	San Marcos la Laguna 	11	San Marcos la laguna 	2	Febrero	2023-02-13T00:00:00	2024-11-08T16:00:00	5	Humedad	60
176693	7	Sololá	716	San Marcos la Laguna 	11	San Marcos la laguna 	2	Febrero	2023-02-13T00:00:00	2024-11-08T16:00:00	6	Velocidad del viento	19.3
176694	7	Sololá	716	San Marcos la Laguna 	11	San Marcos la laguna 	2	Febrero	2023-02-13T00:00:00	2024-11-08T16:00:00	7	Dirección del viento	19.31
176695	7	Sololá	716	San Marcos la Laguna 	11	San Marcos la laguna 	2	Febrero	2023-02-13T00:00:00	2024-11-08T16:00:00	1	Precipitación	0
176696	7	Sololá	716	San Marcos la Laguna 	11	San Marcos la laguna 	2	Febrero	2023-02-13T00:00:00	2024-11-08T16:00:00	8	Radiación solar	325
176697	7	Sololá	716	San Marcos la Laguna 	11	San Marcos la laguna 	2	Febrero	2023-02-13T00:00:00	2024-11-08T17:00:00	2	Temperatura media	22.6
176698	7	Sololá	716	San Marcos la Laguna 	11	San Marcos la laguna 	2	Febrero	2023-02-13T00:00:00	2024-11-08T17:00:00	4	Temperatura máxima	23.2
176699	7	Sololá	716	San Marcos la Laguna 	11	San Marcos la laguna 	2	Febrero	2023-02-13T00:00:00	2024-11-08T17:00:00	3	Temperatura mínima	22.3
176700	7	Sololá	716	San Marcos la Laguna 	11	San Marcos la laguna 	2	Febrero	2023-02-13T00:00:00	2024-11-08T17:00:00	5	Humedad	64
176701	7	Sololá	716	San Marcos la Laguna 	11	San Marcos la laguna 	2	Febrero	2023-02-13T00:00:00	2024-11-08T17:00:00	6	Velocidad del viento	11.3
176702	7	Sololá	716	San Marcos la Laguna 	11	San Marcos la laguna 	2	Febrero	2023-02-13T00:00:00	2024-11-08T17:00:00	7	Dirección del viento	11.27
176703	7	Sololá	716	San Marcos la Laguna 	11	San Marcos la laguna 	2	Febrero	2023-02-13T00:00:00	2024-11-08T17:00:00	1	Precipitación	0
176704	7	Sololá	716	San Marcos la Laguna 	11	San Marcos la laguna 	2	Febrero	2023-02-13T00:00:00	2024-11-08T17:00:00	8	Radiación solar	120
176705	7	Sololá	716	San Marcos la Laguna 	11	San Marcos la laguna 	2	Febrero	2023-02-13T00:00:00	2024-11-08T18:00:00	2	Temperatura media	22.3
176706	7	Sololá	716	San Marcos la Laguna 	11	San Marcos la laguna 	2	Febrero	2023-02-13T00:00:00	2024-11-08T18:00:00	4	Temperatura máxima	22.6
176707	7	Sololá	716	San Marcos la Laguna 	11	San Marcos la laguna 	2	Febrero	2023-02-13T00:00:00	2024-11-08T18:00:00	3	Temperatura mínima	21.8
176708	7	Sololá	716	San Marcos la Laguna 	11	San Marcos la laguna 	2	Febrero	2023-02-13T00:00:00	2024-11-08T18:00:00	5	Humedad	46
176709	7	Sololá	716	San Marcos la Laguna 	11	San Marcos la laguna 	2	Febrero	2023-02-13T00:00:00	2024-11-08T18:00:00	6	Velocidad del viento	14.5
176710	7	Sololá	716	San Marcos la Laguna 	11	San Marcos la laguna 	2	Febrero	2023-02-13T00:00:00	2024-11-08T18:00:00	7	Dirección del viento	14.48
176711	7	Sololá	716	San Marcos la Laguna 	11	San Marcos la laguna 	2	Febrero	2023-02-13T00:00:00	2024-11-08T18:00:00	1	Precipitación	0
176712	7	Sololá	716	San Marcos la Laguna 	11	San Marcos la laguna 	2	Febrero	2023-02-13T00:00:00	2024-11-08T18:00:00	8	Radiación solar	28
176713	7	Sololá	716	San Marcos la Laguna 	11	San Marcos la laguna 	2	Febrero	2023-02-13T00:00:00	2024-11-08T19:00:00	2	Temperatura media	21.1
176714	7	Sololá	716	San Marcos la Laguna 	11	San Marcos la laguna 	2	Febrero	2023-02-13T00:00:00	2024-11-08T19:00:00	4	Temperatura máxima	22.4
176715	7	Sololá	716	San Marcos la Laguna 	11	San Marcos la laguna 	2	Febrero	2023-02-13T00:00:00	2024-11-08T19:00:00	3	Temperatura mínima	21.1
176716	7	Sololá	716	San Marcos la Laguna 	11	San Marcos la laguna 	2	Febrero	2023-02-13T00:00:00	2024-11-08T19:00:00	5	Humedad	51
176717	7	Sololá	716	San Marcos la Laguna 	11	San Marcos la laguna 	2	Febrero	2023-02-13T00:00:00	2024-11-08T19:00:00	6	Velocidad del viento	9.7
176718	7	Sololá	716	San Marcos la Laguna 	11	San Marcos la laguna 	2	Febrero	2023-02-13T00:00:00	2024-11-08T19:00:00	7	Dirección del viento	9.66
176719	7	Sololá	716	San Marcos la Laguna 	11	San Marcos la laguna 	2	Febrero	2023-02-13T00:00:00	2024-11-08T19:00:00	1	Precipitación	0
176720	7	Sololá	716	San Marcos la Laguna 	11	San Marcos la laguna 	2	Febrero	2023-02-13T00:00:00	2024-11-08T19:00:00	8	Radiación solar	0
176721	7	Sololá	716	San Marcos la Laguna 	11	San Marcos la laguna 	2	Febrero	2023-02-13T00:00:00	2024-11-08T20:00:00	2	Temperatura media	18.1
176722	7	Sololá	716	San Marcos la Laguna 	11	San Marcos la laguna 	2	Febrero	2023-02-13T00:00:00	2024-11-08T20:00:00	4	Temperatura máxima	21.1
176723	7	Sololá	716	San Marcos la Laguna 	11	San Marcos la laguna 	2	Febrero	2023-02-13T00:00:00	2024-11-08T20:00:00	3	Temperatura mínima	18
176724	7	Sololá	716	San Marcos la Laguna 	11	San Marcos la laguna 	2	Febrero	2023-02-13T00:00:00	2024-11-08T20:00:00	5	Humedad	63
176725	7	Sololá	716	San Marcos la Laguna 	11	San Marcos la laguna 	2	Febrero	2023-02-13T00:00:00	2024-11-08T20:00:00	6	Velocidad del viento	4.8
176726	7	Sololá	716	San Marcos la Laguna 	11	San Marcos la laguna 	2	Febrero	2023-02-13T00:00:00	2024-11-08T20:00:00	7	Dirección del viento	4.83
176727	7	Sololá	716	San Marcos la Laguna 	11	San Marcos la laguna 	2	Febrero	2023-02-13T00:00:00	2024-11-08T20:00:00	1	Precipitación	0
176728	7	Sololá	716	San Marcos la Laguna 	11	San Marcos la laguna 	2	Febrero	2023-02-13T00:00:00	2024-11-08T20:00:00	8	Radiación solar	0
176729	7	Sololá	716	San Marcos la Laguna 	11	San Marcos la laguna 	2	Febrero	2023-02-13T00:00:00	2024-11-08T21:00:00	2	Temperatura media	17.7
176730	7	Sololá	716	San Marcos la Laguna 	11	San Marcos la laguna 	2	Febrero	2023-02-13T00:00:00	2024-11-08T21:00:00	4	Temperatura máxima	19.2
176731	7	Sololá	716	San Marcos la Laguna 	11	San Marcos la laguna 	2	Febrero	2023-02-13T00:00:00	2024-11-08T21:00:00	3	Temperatura mínima	17.1
176732	7	Sololá	716	San Marcos la Laguna 	11	San Marcos la laguna 	2	Febrero	2023-02-13T00:00:00	2024-11-08T21:00:00	5	Humedad	63
176733	7	Sololá	716	San Marcos la Laguna 	11	San Marcos la laguna 	2	Febrero	2023-02-13T00:00:00	2024-11-08T21:00:00	6	Velocidad del viento	3.2
176734	7	Sololá	716	San Marcos la Laguna 	11	San Marcos la laguna 	2	Febrero	2023-02-13T00:00:00	2024-11-08T21:00:00	7	Dirección del viento	3.22
176735	7	Sololá	716	San Marcos la Laguna 	11	San Marcos la laguna 	2	Febrero	2023-02-13T00:00:00	2024-11-08T21:00:00	1	Precipitación	0
176736	7	Sololá	716	San Marcos la Laguna 	11	San Marcos la laguna 	2	Febrero	2023-02-13T00:00:00	2024-11-08T21:00:00	8	Radiación solar	0
176737	7	Sololá	716	San Marcos la Laguna 	11	San Marcos la laguna 	2	Febrero	2023-02-13T00:00:00	2024-11-08T22:00:00	2	Temperatura media	16.6
176738	7	Sololá	716	San Marcos la Laguna 	11	San Marcos la laguna 	2	Febrero	2023-02-13T00:00:00	2024-11-08T22:00:00	4	Temperatura máxima	18.1
176739	7	Sololá	716	San Marcos la Laguna 	11	San Marcos la laguna 	2	Febrero	2023-02-13T00:00:00	2024-11-08T22:00:00	3	Temperatura mínima	16.4
176740	7	Sololá	716	San Marcos la Laguna 	11	San Marcos la laguna 	2	Febrero	2023-02-13T00:00:00	2024-11-08T22:00:00	5	Humedad	65
176741	7	Sololá	716	San Marcos la Laguna 	11	San Marcos la laguna 	2	Febrero	2023-02-13T00:00:00	2024-11-08T22:00:00	6	Velocidad del viento	4.8
176742	7	Sololá	716	San Marcos la Laguna 	11	San Marcos la laguna 	2	Febrero	2023-02-13T00:00:00	2024-11-08T22:00:00	7	Dirección del viento	4.83
176743	7	Sololá	716	San Marcos la Laguna 	11	San Marcos la laguna 	2	Febrero	2023-02-13T00:00:00	2024-11-08T22:00:00	1	Precipitación	0
176744	7	Sololá	716	San Marcos la Laguna 	11	San Marcos la laguna 	2	Febrero	2023-02-13T00:00:00	2024-11-08T22:00:00	8	Radiación solar	0
176745	7	Sololá	716	San Marcos la Laguna 	11	San Marcos la laguna 	2	Febrero	2023-02-13T00:00:00	2024-11-08T23:00:00	2	Temperatura media	16.1
176746	7	Sololá	716	San Marcos la Laguna 	11	San Marcos la laguna 	2	Febrero	2023-02-13T00:00:00	2024-11-08T23:00:00	4	Temperatura máxima	16.9
176747	7	Sololá	716	San Marcos la Laguna 	11	San Marcos la laguna 	2	Febrero	2023-02-13T00:00:00	2024-11-08T23:00:00	3	Temperatura mínima	15.8
176748	7	Sololá	716	San Marcos la Laguna 	11	San Marcos la laguna 	2	Febrero	2023-02-13T00:00:00	2024-11-08T23:00:00	5	Humedad	65
176749	7	Sololá	716	San Marcos la Laguna 	11	San Marcos la laguna 	2	Febrero	2023-02-13T00:00:00	2024-11-08T23:00:00	6	Velocidad del viento	6.4
176750	7	Sololá	716	San Marcos la Laguna 	11	San Marcos la laguna 	2	Febrero	2023-02-13T00:00:00	2024-11-08T23:00:00	7	Dirección del viento	6.44
176751	7	Sololá	716	San Marcos la Laguna 	11	San Marcos la laguna 	2	Febrero	2023-02-13T00:00:00	2024-11-08T23:00:00	1	Precipitación	0
176752	7	Sololá	716	San Marcos la Laguna 	11	San Marcos la laguna 	2	Febrero	2023-02-13T00:00:00	2024-11-08T23:00:00	8	Radiación solar	0
176753	7	Sololá	716	San Marcos la Laguna 	11	San Marcos la laguna 	2	Febrero	2023-02-14T00:00:00	2024-11-08T00:00:00	2	Temperatura media	16.3
176754	7	Sololá	716	San Marcos la Laguna 	11	San Marcos la laguna 	2	Febrero	2023-02-14T00:00:00	2024-11-08T00:00:00	4	Temperatura máxima	16.4
176755	7	Sololá	716	San Marcos la Laguna 	11	San Marcos la laguna 	2	Febrero	2023-02-14T00:00:00	2024-11-08T00:00:00	3	Temperatura mínima	15.5
176756	7	Sololá	716	San Marcos la Laguna 	11	San Marcos la laguna 	2	Febrero	2023-02-14T00:00:00	2024-11-08T00:00:00	5	Humedad	59
176757	7	Sololá	716	San Marcos la Laguna 	11	San Marcos la laguna 	2	Febrero	2023-02-14T00:00:00	2024-11-08T00:00:00	6	Velocidad del viento	8
176758	7	Sololá	716	San Marcos la Laguna 	11	San Marcos la laguna 	2	Febrero	2023-02-14T00:00:00	2024-11-08T00:00:00	7	Dirección del viento	8.05
176759	7	Sololá	716	San Marcos la Laguna 	11	San Marcos la laguna 	2	Febrero	2023-02-14T00:00:00	2024-11-08T00:00:00	1	Precipitación	0
176760	7	Sololá	716	San Marcos la Laguna 	11	San Marcos la laguna 	2	Febrero	2023-02-14T00:00:00	2024-11-08T00:00:00	8	Radiación solar	0
176761	7	Sololá	716	San Marcos la Laguna 	11	San Marcos la laguna 	2	Febrero	2023-02-14T00:00:00	2024-11-08T01:00:00	2	Temperatura media	15.2
176762	7	Sololá	716	San Marcos la Laguna 	11	San Marcos la laguna 	2	Febrero	2023-02-14T00:00:00	2024-11-08T01:00:00	4	Temperatura máxima	16.4
176763	7	Sololá	716	San Marcos la Laguna 	11	San Marcos la laguna 	2	Febrero	2023-02-14T00:00:00	2024-11-08T01:00:00	3	Temperatura mínima	15.2
176764	7	Sololá	716	San Marcos la Laguna 	11	San Marcos la laguna 	2	Febrero	2023-02-14T00:00:00	2024-11-08T01:00:00	5	Humedad	64
176765	7	Sololá	716	San Marcos la Laguna 	11	San Marcos la laguna 	2	Febrero	2023-02-14T00:00:00	2024-11-08T01:00:00	6	Velocidad del viento	8
176766	7	Sololá	716	San Marcos la Laguna 	11	San Marcos la laguna 	2	Febrero	2023-02-14T00:00:00	2024-11-08T01:00:00	7	Dirección del viento	8.05
176767	7	Sololá	716	San Marcos la Laguna 	11	San Marcos la laguna 	2	Febrero	2023-02-14T00:00:00	2024-11-08T01:00:00	1	Precipitación	0
176768	7	Sololá	716	San Marcos la Laguna 	11	San Marcos la laguna 	2	Febrero	2023-02-14T00:00:00	2024-11-08T01:00:00	8	Radiación solar	0
176769	7	Sololá	716	San Marcos la Laguna 	11	San Marcos la laguna 	2	Febrero	2023-02-14T00:00:00	2024-11-08T02:00:00	2	Temperatura media	14.7
176770	7	Sololá	716	San Marcos la Laguna 	11	San Marcos la laguna 	2	Febrero	2023-02-14T00:00:00	2024-11-08T02:00:00	4	Temperatura máxima	15.2
176771	7	Sololá	716	San Marcos la Laguna 	11	San Marcos la laguna 	2	Febrero	2023-02-14T00:00:00	2024-11-08T02:00:00	3	Temperatura mínima	14.7
176772	7	Sololá	716	San Marcos la Laguna 	11	San Marcos la laguna 	2	Febrero	2023-02-14T00:00:00	2024-11-08T02:00:00	5	Humedad	67
176773	7	Sololá	716	San Marcos la Laguna 	11	San Marcos la laguna 	2	Febrero	2023-02-14T00:00:00	2024-11-08T02:00:00	6	Velocidad del viento	8
176774	7	Sololá	716	San Marcos la Laguna 	11	San Marcos la laguna 	2	Febrero	2023-02-14T00:00:00	2024-11-08T02:00:00	7	Dirección del viento	8.05
176775	7	Sololá	716	San Marcos la Laguna 	11	San Marcos la laguna 	2	Febrero	2023-02-14T00:00:00	2024-11-08T02:00:00	1	Precipitación	0
176776	7	Sololá	716	San Marcos la Laguna 	11	San Marcos la laguna 	2	Febrero	2023-02-14T00:00:00	2024-11-08T02:00:00	8	Radiación solar	0
176777	7	Sololá	716	San Marcos la Laguna 	11	San Marcos la laguna 	2	Febrero	2023-02-14T00:00:00	2024-11-08T03:00:00	2	Temperatura media	14.4
176778	7	Sololá	716	San Marcos la Laguna 	11	San Marcos la laguna 	2	Febrero	2023-02-14T00:00:00	2024-11-08T03:00:00	4	Temperatura máxima	14.7
176779	7	Sololá	716	San Marcos la Laguna 	11	San Marcos la laguna 	2	Febrero	2023-02-14T00:00:00	2024-11-08T03:00:00	3	Temperatura mínima	14.1
176780	7	Sololá	716	San Marcos la Laguna 	11	San Marcos la laguna 	2	Febrero	2023-02-14T00:00:00	2024-11-08T03:00:00	5	Humedad	70
176781	7	Sololá	716	San Marcos la Laguna 	11	San Marcos la laguna 	2	Febrero	2023-02-14T00:00:00	2024-11-08T03:00:00	6	Velocidad del viento	8
176782	7	Sololá	716	San Marcos la Laguna 	11	San Marcos la laguna 	2	Febrero	2023-02-14T00:00:00	2024-11-08T03:00:00	7	Dirección del viento	8.05
176783	7	Sololá	716	San Marcos la Laguna 	11	San Marcos la laguna 	2	Febrero	2023-02-14T00:00:00	2024-11-08T03:00:00	1	Precipitación	0
176784	7	Sololá	716	San Marcos la Laguna 	11	San Marcos la laguna 	2	Febrero	2023-02-14T00:00:00	2024-11-08T03:00:00	8	Radiación solar	0
176785	7	Sololá	716	San Marcos la Laguna 	11	San Marcos la laguna 	2	Febrero	2023-02-14T00:00:00	2024-11-08T04:00:00	2	Temperatura media	13.4
176786	7	Sololá	716	San Marcos la Laguna 	11	San Marcos la laguna 	2	Febrero	2023-02-14T00:00:00	2024-11-08T04:00:00	4	Temperatura máxima	14.4
176787	7	Sololá	716	San Marcos la Laguna 	11	San Marcos la laguna 	2	Febrero	2023-02-14T00:00:00	2024-11-08T04:00:00	3	Temperatura mínima	13.3
176788	7	Sololá	716	San Marcos la Laguna 	11	San Marcos la laguna 	2	Febrero	2023-02-14T00:00:00	2024-11-08T04:00:00	5	Humedad	74
176789	7	Sololá	716	San Marcos la Laguna 	11	San Marcos la laguna 	2	Febrero	2023-02-14T00:00:00	2024-11-08T04:00:00	6	Velocidad del viento	4.8
176790	7	Sololá	716	San Marcos la Laguna 	11	San Marcos la laguna 	2	Febrero	2023-02-14T00:00:00	2024-11-08T04:00:00	7	Dirección del viento	4.83
176791	7	Sololá	716	San Marcos la Laguna 	11	San Marcos la laguna 	2	Febrero	2023-02-14T00:00:00	2024-11-08T04:00:00	1	Precipitación	0
176792	7	Sololá	716	San Marcos la Laguna 	11	San Marcos la laguna 	2	Febrero	2023-02-14T00:00:00	2024-11-08T04:00:00	8	Radiación solar	0
176793	7	Sololá	716	San Marcos la Laguna 	11	San Marcos la laguna 	2	Febrero	2023-02-14T00:00:00	2024-11-08T05:00:00	2	Temperatura media	12.7
176794	7	Sololá	716	San Marcos la Laguna 	11	San Marcos la laguna 	2	Febrero	2023-02-14T00:00:00	2024-11-08T05:00:00	4	Temperatura máxima	13.4
176795	7	Sololá	716	San Marcos la Laguna 	11	San Marcos la laguna 	2	Febrero	2023-02-14T00:00:00	2024-11-08T05:00:00	3	Temperatura mínima	12.7
176796	7	Sololá	716	San Marcos la Laguna 	11	San Marcos la laguna 	2	Febrero	2023-02-14T00:00:00	2024-11-08T05:00:00	5	Humedad	76
176797	7	Sololá	716	San Marcos la Laguna 	11	San Marcos la laguna 	2	Febrero	2023-02-14T00:00:00	2024-11-08T05:00:00	6	Velocidad del viento	4.8
176798	7	Sololá	716	San Marcos la Laguna 	11	San Marcos la laguna 	2	Febrero	2023-02-14T00:00:00	2024-11-08T05:00:00	7	Dirección del viento	4.83
176799	7	Sololá	716	San Marcos la Laguna 	11	San Marcos la laguna 	2	Febrero	2023-02-14T00:00:00	2024-11-08T05:00:00	1	Precipitación	0
176800	7	Sololá	716	San Marcos la Laguna 	11	San Marcos la laguna 	2	Febrero	2023-02-14T00:00:00	2024-11-08T05:00:00	8	Radiación solar	0
176801	7	Sololá	716	San Marcos la Laguna 	11	San Marcos la laguna 	2	Febrero	2023-02-14T00:00:00	2024-11-08T06:00:00	2	Temperatura media	12.7
176802	7	Sololá	716	San Marcos la Laguna 	11	San Marcos la laguna 	2	Febrero	2023-02-14T00:00:00	2024-11-08T06:00:00	4	Temperatura máxima	12.8
176803	7	Sololá	716	San Marcos la Laguna 	11	San Marcos la laguna 	2	Febrero	2023-02-14T00:00:00	2024-11-08T06:00:00	3	Temperatura mínima	12.6
176804	7	Sololá	716	San Marcos la Laguna 	11	San Marcos la laguna 	2	Febrero	2023-02-14T00:00:00	2024-11-08T06:00:00	5	Humedad	77
176805	7	Sololá	716	San Marcos la Laguna 	11	San Marcos la laguna 	2	Febrero	2023-02-14T00:00:00	2024-11-08T06:00:00	6	Velocidad del viento	6.4
176806	7	Sololá	716	San Marcos la Laguna 	11	San Marcos la laguna 	2	Febrero	2023-02-14T00:00:00	2024-11-08T06:00:00	7	Dirección del viento	6.44
176807	7	Sololá	716	San Marcos la Laguna 	11	San Marcos la laguna 	2	Febrero	2023-02-14T00:00:00	2024-11-08T06:00:00	1	Precipitación	0
176808	7	Sololá	716	San Marcos la Laguna 	11	San Marcos la laguna 	2	Febrero	2023-02-14T00:00:00	2024-11-08T06:00:00	8	Radiación solar	0
176809	7	Sololá	716	San Marcos la Laguna 	11	San Marcos la laguna 	2	Febrero	2023-02-14T00:00:00	2024-11-08T07:00:00	2	Temperatura media	13.1
176810	7	Sololá	716	San Marcos la Laguna 	11	San Marcos la laguna 	2	Febrero	2023-02-14T00:00:00	2024-11-08T07:00:00	4	Temperatura máxima	13.1
176811	7	Sololá	716	San Marcos la Laguna 	11	San Marcos la laguna 	2	Febrero	2023-02-14T00:00:00	2024-11-08T07:00:00	3	Temperatura mínima	12.5
176812	7	Sololá	716	San Marcos la Laguna 	11	San Marcos la laguna 	2	Febrero	2023-02-14T00:00:00	2024-11-08T07:00:00	5	Humedad	77
176813	7	Sololá	716	San Marcos la Laguna 	11	San Marcos la laguna 	2	Febrero	2023-02-14T00:00:00	2024-11-08T07:00:00	6	Velocidad del viento	4.8
176814	7	Sololá	716	San Marcos la Laguna 	11	San Marcos la laguna 	2	Febrero	2023-02-14T00:00:00	2024-11-08T07:00:00	7	Dirección del viento	4.83
176815	7	Sololá	716	San Marcos la Laguna 	11	San Marcos la laguna 	2	Febrero	2023-02-14T00:00:00	2024-11-08T07:00:00	1	Precipitación	0
176816	7	Sololá	716	San Marcos la Laguna 	11	San Marcos la laguna 	2	Febrero	2023-02-14T00:00:00	2024-11-08T07:00:00	8	Radiación solar	4
176817	7	Sololá	716	San Marcos la Laguna 	11	San Marcos la laguna 	2	Febrero	2023-02-14T00:00:00	2024-11-08T08:00:00	2	Temperatura media	17.6
176818	7	Sololá	716	San Marcos la Laguna 	11	San Marcos la laguna 	2	Febrero	2023-02-14T00:00:00	2024-11-08T08:00:00	4	Temperatura máxima	17.6
176819	7	Sololá	716	San Marcos la Laguna 	11	San Marcos la laguna 	2	Febrero	2023-02-14T00:00:00	2024-11-08T08:00:00	3	Temperatura mínima	13.1
176820	7	Sololá	716	San Marcos la Laguna 	11	San Marcos la laguna 	2	Febrero	2023-02-14T00:00:00	2024-11-08T08:00:00	5	Humedad	68
176821	7	Sololá	716	San Marcos la Laguna 	11	San Marcos la laguna 	2	Febrero	2023-02-14T00:00:00	2024-11-08T08:00:00	6	Velocidad del viento	3.2
176822	7	Sololá	716	San Marcos la Laguna 	11	San Marcos la laguna 	2	Febrero	2023-02-14T00:00:00	2024-11-08T08:00:00	7	Dirección del viento	3.22
176823	7	Sololá	716	San Marcos la Laguna 	11	San Marcos la laguna 	2	Febrero	2023-02-14T00:00:00	2024-11-08T08:00:00	1	Precipitación	0
176824	7	Sololá	716	San Marcos la Laguna 	11	San Marcos la laguna 	2	Febrero	2023-02-14T00:00:00	2024-11-08T08:00:00	8	Radiación solar	130
176825	7	Sololá	716	San Marcos la Laguna 	11	San Marcos la laguna 	2	Febrero	2023-02-14T00:00:00	2024-11-08T09:00:00	2	Temperatura media	18.8
176826	7	Sololá	716	San Marcos la Laguna 	11	San Marcos la laguna 	2	Febrero	2023-02-14T00:00:00	2024-11-08T09:00:00	4	Temperatura máxima	18.8
176827	7	Sololá	716	San Marcos la Laguna 	11	San Marcos la laguna 	2	Febrero	2023-02-14T00:00:00	2024-11-08T09:00:00	3	Temperatura mínima	17.7
176828	7	Sololá	716	San Marcos la Laguna 	11	San Marcos la laguna 	2	Febrero	2023-02-14T00:00:00	2024-11-08T09:00:00	5	Humedad	71
176829	7	Sololá	716	San Marcos la Laguna 	11	San Marcos la laguna 	2	Febrero	2023-02-14T00:00:00	2024-11-08T09:00:00	6	Velocidad del viento	3.2
176830	7	Sololá	716	San Marcos la Laguna 	11	San Marcos la laguna 	2	Febrero	2023-02-14T00:00:00	2024-11-08T09:00:00	7	Dirección del viento	3.22
176831	7	Sololá	716	San Marcos la Laguna 	11	San Marcos la laguna 	2	Febrero	2023-02-14T00:00:00	2024-11-08T09:00:00	1	Precipitación	0
176832	7	Sololá	716	San Marcos la Laguna 	11	San Marcos la laguna 	2	Febrero	2023-02-14T00:00:00	2024-11-08T09:00:00	8	Radiación solar	366
176833	7	Sololá	716	San Marcos la Laguna 	11	San Marcos la laguna 	2	Febrero	2023-02-14T00:00:00	2024-11-08T10:00:00	2	Temperatura media	20.1
176834	7	Sololá	716	San Marcos la Laguna 	11	San Marcos la laguna 	2	Febrero	2023-02-14T00:00:00	2024-11-08T10:00:00	4	Temperatura máxima	20.1
176835	7	Sololá	716	San Marcos la Laguna 	11	San Marcos la laguna 	2	Febrero	2023-02-14T00:00:00	2024-11-08T10:00:00	3	Temperatura mínima	18.6
176836	7	Sololá	716	San Marcos la Laguna 	11	San Marcos la laguna 	2	Febrero	2023-02-14T00:00:00	2024-11-08T10:00:00	5	Humedad	64
176837	7	Sololá	716	San Marcos la Laguna 	11	San Marcos la laguna 	2	Febrero	2023-02-14T00:00:00	2024-11-08T10:00:00	6	Velocidad del viento	4.8
176838	7	Sololá	716	San Marcos la Laguna 	11	San Marcos la laguna 	2	Febrero	2023-02-14T00:00:00	2024-11-08T10:00:00	7	Dirección del viento	4.83
176839	7	Sololá	716	San Marcos la Laguna 	11	San Marcos la laguna 	2	Febrero	2023-02-14T00:00:00	2024-11-08T10:00:00	1	Precipitación	0
176840	7	Sololá	716	San Marcos la Laguna 	11	San Marcos la laguna 	2	Febrero	2023-02-14T00:00:00	2024-11-08T10:00:00	8	Radiación solar	564
176841	7	Sololá	716	San Marcos la Laguna 	11	San Marcos la laguna 	2	Febrero	2023-02-14T00:00:00	2024-11-08T11:00:00	2	Temperatura media	21.3
176842	7	Sololá	716	San Marcos la Laguna 	11	San Marcos la laguna 	2	Febrero	2023-02-14T00:00:00	2024-11-08T11:00:00	4	Temperatura máxima	21.3
176843	7	Sololá	716	San Marcos la Laguna 	11	San Marcos la laguna 	2	Febrero	2023-02-14T00:00:00	2024-11-08T11:00:00	3	Temperatura mínima	20
176844	7	Sololá	716	San Marcos la Laguna 	11	San Marcos la laguna 	2	Febrero	2023-02-14T00:00:00	2024-11-08T11:00:00	5	Humedad	54
176845	7	Sololá	716	San Marcos la Laguna 	11	San Marcos la laguna 	2	Febrero	2023-02-14T00:00:00	2024-11-08T11:00:00	6	Velocidad del viento	4.8
176846	7	Sololá	716	San Marcos la Laguna 	11	San Marcos la laguna 	2	Febrero	2023-02-14T00:00:00	2024-11-08T11:00:00	7	Dirección del viento	4.83
176847	7	Sololá	716	San Marcos la Laguna 	11	San Marcos la laguna 	2	Febrero	2023-02-14T00:00:00	2024-11-08T11:00:00	1	Precipitación	0
176848	7	Sololá	716	San Marcos la Laguna 	11	San Marcos la laguna 	2	Febrero	2023-02-14T00:00:00	2024-11-08T11:00:00	8	Radiación solar	719
176849	7	Sololá	716	San Marcos la Laguna 	11	San Marcos la laguna 	2	Febrero	2023-02-14T00:00:00	2024-11-08T12:00:00	2	Temperatura media	21.9
176850	7	Sololá	716	San Marcos la Laguna 	11	San Marcos la laguna 	2	Febrero	2023-02-14T00:00:00	2024-11-08T12:00:00	4	Temperatura máxima	21.9
176851	7	Sololá	716	San Marcos la Laguna 	11	San Marcos la laguna 	2	Febrero	2023-02-14T00:00:00	2024-11-08T12:00:00	3	Temperatura mínima	21.2
176852	7	Sololá	716	San Marcos la Laguna 	11	San Marcos la laguna 	2	Febrero	2023-02-14T00:00:00	2024-11-08T12:00:00	5	Humedad	62
176853	7	Sololá	716	San Marcos la Laguna 	11	San Marcos la laguna 	2	Febrero	2023-02-14T00:00:00	2024-11-08T12:00:00	6	Velocidad del viento	6.4
176854	7	Sololá	716	San Marcos la Laguna 	11	San Marcos la laguna 	2	Febrero	2023-02-14T00:00:00	2024-11-08T12:00:00	7	Dirección del viento	6.44
176855	7	Sololá	716	San Marcos la Laguna 	11	San Marcos la laguna 	2	Febrero	2023-02-14T00:00:00	2024-11-08T12:00:00	1	Precipitación	0
176856	7	Sololá	716	San Marcos la Laguna 	11	San Marcos la laguna 	2	Febrero	2023-02-14T00:00:00	2024-11-08T12:00:00	8	Radiación solar	715
176857	7	Sololá	716	San Marcos la Laguna 	11	San Marcos la laguna 	2	Febrero	2023-02-14T00:00:00	2024-11-08T13:00:00	2	Temperatura media	21.8
176858	7	Sololá	716	San Marcos la Laguna 	11	San Marcos la laguna 	2	Febrero	2023-02-14T00:00:00	2024-11-08T13:00:00	4	Temperatura máxima	22.5
176859	7	Sololá	716	San Marcos la Laguna 	11	San Marcos la laguna 	2	Febrero	2023-02-14T00:00:00	2024-11-08T13:00:00	3	Temperatura mínima	21.7
176860	7	Sololá	716	San Marcos la Laguna 	11	San Marcos la laguna 	2	Febrero	2023-02-14T00:00:00	2024-11-08T13:00:00	5	Humedad	63
176861	7	Sololá	716	San Marcos la Laguna 	11	San Marcos la laguna 	2	Febrero	2023-02-14T00:00:00	2024-11-08T13:00:00	6	Velocidad del viento	11.3
176862	7	Sololá	716	San Marcos la Laguna 	11	San Marcos la laguna 	2	Febrero	2023-02-14T00:00:00	2024-11-08T13:00:00	7	Dirección del viento	11.27
176863	7	Sololá	716	San Marcos la Laguna 	11	San Marcos la laguna 	2	Febrero	2023-02-14T00:00:00	2024-11-08T13:00:00	1	Precipitación	0
176864	7	Sololá	716	San Marcos la Laguna 	11	San Marcos la laguna 	2	Febrero	2023-02-14T00:00:00	2024-11-08T13:00:00	8	Radiación solar	859
176865	7	Sololá	716	San Marcos la Laguna 	11	San Marcos la laguna 	2	Febrero	2023-02-14T00:00:00	2024-11-08T14:00:00	2	Temperatura media	21.8
176866	7	Sololá	716	San Marcos la Laguna 	11	San Marcos la laguna 	2	Febrero	2023-02-14T00:00:00	2024-11-08T14:00:00	4	Temperatura máxima	21.9
176867	7	Sololá	716	San Marcos la Laguna 	11	San Marcos la laguna 	2	Febrero	2023-02-14T00:00:00	2024-11-08T14:00:00	3	Temperatura mínima	21.4
176868	7	Sololá	716	San Marcos la Laguna 	11	San Marcos la laguna 	2	Febrero	2023-02-14T00:00:00	2024-11-08T14:00:00	5	Humedad	70
176869	7	Sololá	716	San Marcos la Laguna 	11	San Marcos la laguna 	2	Febrero	2023-02-14T00:00:00	2024-11-08T14:00:00	6	Velocidad del viento	12.9
176870	7	Sololá	716	San Marcos la Laguna 	11	San Marcos la laguna 	2	Febrero	2023-02-14T00:00:00	2024-11-08T14:00:00	7	Dirección del viento	12.87
176871	7	Sololá	716	San Marcos la Laguna 	11	San Marcos la laguna 	2	Febrero	2023-02-14T00:00:00	2024-11-08T14:00:00	1	Precipitación	0
176872	7	Sololá	716	San Marcos la Laguna 	11	San Marcos la laguna 	2	Febrero	2023-02-14T00:00:00	2024-11-08T14:00:00	8	Radiación solar	798
176873	7	Sololá	716	San Marcos la Laguna 	11	San Marcos la laguna 	2	Febrero	2023-02-14T00:00:00	2024-11-08T15:00:00	2	Temperatura media	22.6
176874	7	Sololá	716	San Marcos la Laguna 	11	San Marcos la laguna 	2	Febrero	2023-02-14T00:00:00	2024-11-08T15:00:00	4	Temperatura máxima	22.8
176875	7	Sololá	716	San Marcos la Laguna 	11	San Marcos la laguna 	2	Febrero	2023-02-14T00:00:00	2024-11-08T15:00:00	3	Temperatura mínima	21.7
176876	7	Sololá	716	San Marcos la Laguna 	11	San Marcos la laguna 	2	Febrero	2023-02-14T00:00:00	2024-11-08T15:00:00	5	Humedad	68
176877	7	Sololá	716	San Marcos la Laguna 	11	San Marcos la laguna 	2	Febrero	2023-02-14T00:00:00	2024-11-08T15:00:00	6	Velocidad del viento	9.7
176878	7	Sololá	716	San Marcos la Laguna 	11	San Marcos la laguna 	2	Febrero	2023-02-14T00:00:00	2024-11-08T15:00:00	7	Dirección del viento	9.66
176879	7	Sololá	716	San Marcos la Laguna 	11	San Marcos la laguna 	2	Febrero	2023-02-14T00:00:00	2024-11-08T15:00:00	1	Precipitación	0
176880	7	Sololá	716	San Marcos la Laguna 	11	San Marcos la laguna 	2	Febrero	2023-02-14T00:00:00	2024-11-08T15:00:00	8	Radiación solar	482
176881	7	Sololá	716	San Marcos la Laguna 	11	San Marcos la laguna 	2	Febrero	2023-02-14T00:00:00	2024-11-08T16:00:00	2	Temperatura media	21.1
176882	7	Sololá	716	San Marcos la Laguna 	11	San Marcos la laguna 	2	Febrero	2023-02-14T00:00:00	2024-11-08T16:00:00	4	Temperatura máxima	22.7
176883	7	Sololá	716	San Marcos la Laguna 	11	San Marcos la laguna 	2	Febrero	2023-02-14T00:00:00	2024-11-08T16:00:00	3	Temperatura mínima	21.1
176884	7	Sololá	716	San Marcos la Laguna 	11	San Marcos la laguna 	2	Febrero	2023-02-14T00:00:00	2024-11-08T16:00:00	5	Humedad	73
176885	7	Sololá	716	San Marcos la Laguna 	11	San Marcos la laguna 	2	Febrero	2023-02-14T00:00:00	2024-11-08T16:00:00	6	Velocidad del viento	9.7
176886	7	Sololá	716	San Marcos la Laguna 	11	San Marcos la laguna 	2	Febrero	2023-02-14T00:00:00	2024-11-08T16:00:00	7	Dirección del viento	9.66
176887	7	Sololá	716	San Marcos la Laguna 	11	San Marcos la laguna 	2	Febrero	2023-02-14T00:00:00	2024-11-08T16:00:00	1	Precipitación	0
176888	7	Sololá	716	San Marcos la Laguna 	11	San Marcos la laguna 	2	Febrero	2023-02-14T00:00:00	2024-11-08T16:00:00	8	Radiación solar	248
176889	7	Sololá	716	San Marcos la Laguna 	11	San Marcos la laguna 	2	Febrero	2023-02-14T00:00:00	2024-11-08T17:00:00	2	Temperatura media	21
176890	7	Sololá	716	San Marcos la Laguna 	11	San Marcos la laguna 	2	Febrero	2023-02-14T00:00:00	2024-11-08T17:00:00	4	Temperatura máxima	21.3
176891	7	Sololá	716	San Marcos la Laguna 	11	San Marcos la laguna 	2	Febrero	2023-02-14T00:00:00	2024-11-08T17:00:00	3	Temperatura mínima	20.6
176892	7	Sololá	716	San Marcos la Laguna 	11	San Marcos la laguna 	2	Febrero	2023-02-14T00:00:00	2024-11-08T17:00:00	5	Humedad	76
176893	7	Sololá	716	San Marcos la Laguna 	11	San Marcos la laguna 	2	Febrero	2023-02-14T00:00:00	2024-11-08T17:00:00	6	Velocidad del viento	8
176894	7	Sololá	716	San Marcos la Laguna 	11	San Marcos la laguna 	2	Febrero	2023-02-14T00:00:00	2024-11-08T17:00:00	7	Dirección del viento	8.05
176895	7	Sololá	716	San Marcos la Laguna 	11	San Marcos la laguna 	2	Febrero	2023-02-14T00:00:00	2024-11-08T17:00:00	1	Precipitación	0
176896	7	Sololá	716	San Marcos la Laguna 	11	San Marcos la laguna 	2	Febrero	2023-02-14T00:00:00	2024-11-08T17:00:00	8	Radiación solar	111
176897	7	Sololá	716	San Marcos la Laguna 	11	San Marcos la laguna 	2	Febrero	2023-02-14T00:00:00	2024-11-08T18:00:00	2	Temperatura media	19.9
176898	7	Sololá	716	San Marcos la Laguna 	11	San Marcos la laguna 	2	Febrero	2023-02-14T00:00:00	2024-11-08T18:00:00	4	Temperatura máxima	21
176899	7	Sololá	716	San Marcos la Laguna 	11	San Marcos la laguna 	2	Febrero	2023-02-14T00:00:00	2024-11-08T18:00:00	3	Temperatura mínima	19.9
176900	7	Sololá	716	San Marcos la Laguna 	11	San Marcos la laguna 	2	Febrero	2023-02-14T00:00:00	2024-11-08T18:00:00	5	Humedad	80
176901	7	Sololá	716	San Marcos la Laguna 	11	San Marcos la laguna 	2	Febrero	2023-02-14T00:00:00	2024-11-08T18:00:00	6	Velocidad del viento	4.8
176902	7	Sololá	716	San Marcos la Laguna 	11	San Marcos la laguna 	2	Febrero	2023-02-14T00:00:00	2024-11-08T18:00:00	7	Dirección del viento	4.83
176903	7	Sololá	716	San Marcos la Laguna 	11	San Marcos la laguna 	2	Febrero	2023-02-14T00:00:00	2024-11-08T18:00:00	1	Precipitación	0
176904	7	Sololá	716	San Marcos la Laguna 	11	San Marcos la laguna 	2	Febrero	2023-02-14T00:00:00	2024-11-08T18:00:00	8	Radiación solar	26
176905	7	Sololá	716	San Marcos la Laguna 	11	San Marcos la laguna 	2	Febrero	2023-02-14T00:00:00	2024-11-08T19:00:00	2	Temperatura media	18.8
176906	7	Sololá	716	San Marcos la Laguna 	11	San Marcos la laguna 	2	Febrero	2023-02-14T00:00:00	2024-11-08T19:00:00	4	Temperatura máxima	19.9
176907	7	Sololá	716	San Marcos la Laguna 	11	San Marcos la laguna 	2	Febrero	2023-02-14T00:00:00	2024-11-08T19:00:00	3	Temperatura mínima	18.8
176908	7	Sololá	716	San Marcos la Laguna 	11	San Marcos la laguna 	2	Febrero	2023-02-14T00:00:00	2024-11-08T19:00:00	5	Humedad	81
176909	7	Sololá	716	San Marcos la Laguna 	11	San Marcos la laguna 	2	Febrero	2023-02-14T00:00:00	2024-11-08T19:00:00	6	Velocidad del viento	1.6
176910	7	Sololá	716	San Marcos la Laguna 	11	San Marcos la laguna 	2	Febrero	2023-02-14T00:00:00	2024-11-08T19:00:00	7	Dirección del viento	1.61
176911	7	Sololá	716	San Marcos la Laguna 	11	San Marcos la laguna 	2	Febrero	2023-02-14T00:00:00	2024-11-08T19:00:00	1	Precipitación	0
176912	7	Sololá	716	San Marcos la Laguna 	11	San Marcos la laguna 	2	Febrero	2023-02-14T00:00:00	2024-11-08T19:00:00	8	Radiación solar	0
176913	7	Sololá	716	San Marcos la Laguna 	11	San Marcos la laguna 	2	Febrero	2023-02-14T00:00:00	2024-11-08T20:00:00	2	Temperatura media	17.6
176914	7	Sololá	716	San Marcos la Laguna 	11	San Marcos la laguna 	2	Febrero	2023-02-14T00:00:00	2024-11-08T20:00:00	4	Temperatura máxima	18.8
176915	7	Sololá	716	San Marcos la Laguna 	11	San Marcos la laguna 	2	Febrero	2023-02-14T00:00:00	2024-11-08T20:00:00	3	Temperatura mínima	17.6
176916	7	Sololá	716	San Marcos la Laguna 	11	San Marcos la laguna 	2	Febrero	2023-02-14T00:00:00	2024-11-08T20:00:00	5	Humedad	81
176917	7	Sololá	716	San Marcos la Laguna 	11	San Marcos la laguna 	2	Febrero	2023-02-14T00:00:00	2024-11-08T20:00:00	6	Velocidad del viento	4.8
176918	7	Sololá	716	San Marcos la Laguna 	11	San Marcos la laguna 	2	Febrero	2023-02-14T00:00:00	2024-11-08T20:00:00	7	Dirección del viento	4.83
176919	7	Sololá	716	San Marcos la Laguna 	11	San Marcos la laguna 	2	Febrero	2023-02-14T00:00:00	2024-11-08T20:00:00	1	Precipitación	0
176920	7	Sololá	716	San Marcos la Laguna 	11	San Marcos la laguna 	2	Febrero	2023-02-14T00:00:00	2024-11-08T20:00:00	8	Radiación solar	0
176921	7	Sololá	716	San Marcos la Laguna 	11	San Marcos la laguna 	2	Febrero	2023-02-14T00:00:00	2024-11-08T21:00:00	2	Temperatura media	16.9
176922	7	Sololá	716	San Marcos la Laguna 	11	San Marcos la laguna 	2	Febrero	2023-02-14T00:00:00	2024-11-08T21:00:00	4	Temperatura máxima	17.7
176923	7	Sololá	716	San Marcos la Laguna 	11	San Marcos la laguna 	2	Febrero	2023-02-14T00:00:00	2024-11-08T21:00:00	3	Temperatura mínima	16.9
176924	7	Sololá	716	San Marcos la Laguna 	11	San Marcos la laguna 	2	Febrero	2023-02-14T00:00:00	2024-11-08T21:00:00	5	Humedad	82
176925	7	Sololá	716	San Marcos la Laguna 	11	San Marcos la laguna 	2	Febrero	2023-02-14T00:00:00	2024-11-08T21:00:00	6	Velocidad del viento	6.4
176926	7	Sololá	716	San Marcos la Laguna 	11	San Marcos la laguna 	2	Febrero	2023-02-14T00:00:00	2024-11-08T21:00:00	7	Dirección del viento	6.44
176927	7	Sololá	716	San Marcos la Laguna 	11	San Marcos la laguna 	2	Febrero	2023-02-14T00:00:00	2024-11-08T21:00:00	1	Precipitación	0
176928	7	Sololá	716	San Marcos la Laguna 	11	San Marcos la laguna 	2	Febrero	2023-02-14T00:00:00	2024-11-08T21:00:00	8	Radiación solar	0
176929	7	Sololá	716	San Marcos la Laguna 	11	San Marcos la laguna 	2	Febrero	2023-02-14T00:00:00	2024-11-08T22:00:00	2	Temperatura media	16.3
176930	7	Sololá	716	San Marcos la Laguna 	11	San Marcos la laguna 	2	Febrero	2023-02-14T00:00:00	2024-11-08T22:00:00	4	Temperatura máxima	17.4
176931	7	Sololá	716	San Marcos la Laguna 	11	San Marcos la laguna 	2	Febrero	2023-02-14T00:00:00	2024-11-08T22:00:00	3	Temperatura mínima	16.2
176932	7	Sololá	716	San Marcos la Laguna 	11	San Marcos la laguna 	2	Febrero	2023-02-14T00:00:00	2024-11-08T22:00:00	5	Humedad	81
176933	7	Sololá	716	San Marcos la Laguna 	11	San Marcos la laguna 	2	Febrero	2023-02-14T00:00:00	2024-11-08T22:00:00	6	Velocidad del viento	6.4
176934	7	Sololá	716	San Marcos la Laguna 	11	San Marcos la laguna 	2	Febrero	2023-02-14T00:00:00	2024-11-08T22:00:00	7	Dirección del viento	6.44
176935	7	Sololá	716	San Marcos la Laguna 	11	San Marcos la laguna 	2	Febrero	2023-02-14T00:00:00	2024-11-08T22:00:00	1	Precipitación	0
176936	7	Sololá	716	San Marcos la Laguna 	11	San Marcos la laguna 	2	Febrero	2023-02-14T00:00:00	2024-11-08T22:00:00	8	Radiación solar	0
176937	7	Sololá	716	San Marcos la Laguna 	11	San Marcos la laguna 	2	Febrero	2023-02-14T00:00:00	2024-11-08T23:00:00	2	Temperatura media	15.9
176938	7	Sololá	716	San Marcos la Laguna 	11	San Marcos la laguna 	2	Febrero	2023-02-14T00:00:00	2024-11-08T23:00:00	4	Temperatura máxima	16.3
176939	7	Sololá	716	San Marcos la Laguna 	11	San Marcos la laguna 	2	Febrero	2023-02-14T00:00:00	2024-11-08T23:00:00	3	Temperatura mínima	15.8
176940	7	Sololá	716	San Marcos la Laguna 	11	San Marcos la laguna 	2	Febrero	2023-02-14T00:00:00	2024-11-08T23:00:00	5	Humedad	81
176941	7	Sololá	716	San Marcos la Laguna 	11	San Marcos la laguna 	2	Febrero	2023-02-14T00:00:00	2024-11-08T23:00:00	6	Velocidad del viento	6.4
176942	7	Sololá	716	San Marcos la Laguna 	11	San Marcos la laguna 	2	Febrero	2023-02-14T00:00:00	2024-11-08T23:00:00	7	Dirección del viento	6.44
176943	7	Sololá	716	San Marcos la Laguna 	11	San Marcos la laguna 	2	Febrero	2023-02-14T00:00:00	2024-11-08T23:00:00	1	Precipitación	0
176944	7	Sololá	716	San Marcos la Laguna 	11	San Marcos la laguna 	2	Febrero	2023-02-14T00:00:00	2024-11-08T23:00:00	8	Radiación solar	0
176945	7	Sololá	716	San Marcos la Laguna 	11	San Marcos la laguna 	2	Febrero	2023-02-15T00:00:00	2024-11-08T00:00:00	2	Temperatura media	15.6
176946	7	Sololá	716	San Marcos la Laguna 	11	San Marcos la laguna 	2	Febrero	2023-02-15T00:00:00	2024-11-08T00:00:00	4	Temperatura máxima	16.1
176947	7	Sololá	716	San Marcos la Laguna 	11	San Marcos la laguna 	2	Febrero	2023-02-15T00:00:00	2024-11-08T00:00:00	3	Temperatura mínima	15.6
176948	7	Sololá	716	San Marcos la Laguna 	11	San Marcos la laguna 	2	Febrero	2023-02-15T00:00:00	2024-11-08T00:00:00	5	Humedad	84
176949	7	Sololá	716	San Marcos la Laguna 	11	San Marcos la laguna 	2	Febrero	2023-02-15T00:00:00	2024-11-08T00:00:00	6	Velocidad del viento	4.8
176950	7	Sololá	716	San Marcos la Laguna 	11	San Marcos la laguna 	2	Febrero	2023-02-15T00:00:00	2024-11-08T00:00:00	7	Dirección del viento	4.83
176951	7	Sololá	716	San Marcos la Laguna 	11	San Marcos la laguna 	2	Febrero	2023-02-15T00:00:00	2024-11-08T00:00:00	1	Precipitación	0
176952	7	Sololá	716	San Marcos la Laguna 	11	San Marcos la laguna 	2	Febrero	2023-02-15T00:00:00	2024-11-08T00:00:00	8	Radiación solar	0
176953	7	Sololá	716	San Marcos la Laguna 	11	San Marcos la laguna 	2	Febrero	2023-02-15T00:00:00	2024-11-08T01:00:00	2	Temperatura media	15.1
176954	7	Sololá	716	San Marcos la Laguna 	11	San Marcos la laguna 	2	Febrero	2023-02-15T00:00:00	2024-11-08T01:00:00	4	Temperatura máxima	15.6
176955	7	Sololá	716	San Marcos la Laguna 	11	San Marcos la laguna 	2	Febrero	2023-02-15T00:00:00	2024-11-08T01:00:00	3	Temperatura mínima	14.9
176956	7	Sololá	716	San Marcos la Laguna 	11	San Marcos la laguna 	2	Febrero	2023-02-15T00:00:00	2024-11-08T01:00:00	5	Humedad	87
176957	7	Sololá	716	San Marcos la Laguna 	11	San Marcos la laguna 	2	Febrero	2023-02-15T00:00:00	2024-11-08T01:00:00	6	Velocidad del viento	4.8
176958	7	Sololá	716	San Marcos la Laguna 	11	San Marcos la laguna 	2	Febrero	2023-02-15T00:00:00	2024-11-08T01:00:00	7	Dirección del viento	4.83
176959	7	Sololá	716	San Marcos la Laguna 	11	San Marcos la laguna 	2	Febrero	2023-02-15T00:00:00	2024-11-08T01:00:00	1	Precipitación	0
176960	7	Sololá	716	San Marcos la Laguna 	11	San Marcos la laguna 	2	Febrero	2023-02-15T00:00:00	2024-11-08T01:00:00	8	Radiación solar	0
176961	7	Sololá	716	San Marcos la Laguna 	11	San Marcos la laguna 	2	Febrero	2023-02-15T00:00:00	2024-11-08T02:00:00	2	Temperatura media	14.4
176962	7	Sololá	716	San Marcos la Laguna 	11	San Marcos la laguna 	2	Febrero	2023-02-15T00:00:00	2024-11-08T02:00:00	4	Temperatura máxima	15.1
176963	7	Sololá	716	San Marcos la Laguna 	11	San Marcos la laguna 	2	Febrero	2023-02-15T00:00:00	2024-11-08T02:00:00	3	Temperatura mínima	14.4
176964	7	Sololá	716	San Marcos la Laguna 	11	San Marcos la laguna 	2	Febrero	2023-02-15T00:00:00	2024-11-08T02:00:00	5	Humedad	83
176965	7	Sololá	716	San Marcos la Laguna 	11	San Marcos la laguna 	2	Febrero	2023-02-15T00:00:00	2024-11-08T02:00:00	6	Velocidad del viento	6.4
176966	7	Sololá	716	San Marcos la Laguna 	11	San Marcos la laguna 	2	Febrero	2023-02-15T00:00:00	2024-11-08T02:00:00	7	Dirección del viento	6.44
176967	7	Sololá	716	San Marcos la Laguna 	11	San Marcos la laguna 	2	Febrero	2023-02-15T00:00:00	2024-11-08T02:00:00	1	Precipitación	0
176968	7	Sololá	716	San Marcos la Laguna 	11	San Marcos la laguna 	2	Febrero	2023-02-15T00:00:00	2024-11-08T02:00:00	8	Radiación solar	0
176969	7	Sololá	716	San Marcos la Laguna 	11	San Marcos la laguna 	2	Febrero	2023-02-15T00:00:00	2024-11-08T03:00:00	2	Temperatura media	14
176970	7	Sololá	716	San Marcos la Laguna 	11	San Marcos la laguna 	2	Febrero	2023-02-15T00:00:00	2024-11-08T03:00:00	4	Temperatura máxima	14.4
176971	7	Sololá	716	San Marcos la Laguna 	11	San Marcos la laguna 	2	Febrero	2023-02-15T00:00:00	2024-11-08T03:00:00	3	Temperatura mínima	13.8
176972	7	Sololá	716	San Marcos la Laguna 	11	San Marcos la laguna 	2	Febrero	2023-02-15T00:00:00	2024-11-08T03:00:00	5	Humedad	85
176973	7	Sololá	716	San Marcos la Laguna 	11	San Marcos la laguna 	2	Febrero	2023-02-15T00:00:00	2024-11-08T03:00:00	6	Velocidad del viento	6.4
176974	7	Sololá	716	San Marcos la Laguna 	11	San Marcos la laguna 	2	Febrero	2023-02-15T00:00:00	2024-11-08T03:00:00	7	Dirección del viento	6.44
176975	7	Sololá	716	San Marcos la Laguna 	11	San Marcos la laguna 	2	Febrero	2023-02-15T00:00:00	2024-11-08T03:00:00	1	Precipitación	0
176976	7	Sololá	716	San Marcos la Laguna 	11	San Marcos la laguna 	2	Febrero	2023-02-15T00:00:00	2024-11-08T03:00:00	8	Radiación solar	0
176977	7	Sololá	716	San Marcos la Laguna 	11	San Marcos la laguna 	2	Febrero	2023-02-15T00:00:00	2024-11-08T04:00:00	2	Temperatura media	13.4
176978	7	Sololá	716	San Marcos la Laguna 	11	San Marcos la laguna 	2	Febrero	2023-02-15T00:00:00	2024-11-08T04:00:00	4	Temperatura máxima	14
176979	7	Sololá	716	San Marcos la Laguna 	11	San Marcos la laguna 	2	Febrero	2023-02-15T00:00:00	2024-11-08T04:00:00	3	Temperatura mínima	13.3
176980	7	Sololá	716	San Marcos la Laguna 	11	San Marcos la laguna 	2	Febrero	2023-02-15T00:00:00	2024-11-08T04:00:00	5	Humedad	84
176981	7	Sololá	716	San Marcos la Laguna 	11	San Marcos la laguna 	2	Febrero	2023-02-15T00:00:00	2024-11-08T04:00:00	6	Velocidad del viento	6.4
176982	7	Sololá	716	San Marcos la Laguna 	11	San Marcos la laguna 	2	Febrero	2023-02-15T00:00:00	2024-11-08T04:00:00	7	Dirección del viento	6.44
176983	7	Sololá	716	San Marcos la Laguna 	11	San Marcos la laguna 	2	Febrero	2023-02-15T00:00:00	2024-11-08T04:00:00	1	Precipitación	0
176984	7	Sololá	716	San Marcos la Laguna 	11	San Marcos la laguna 	2	Febrero	2023-02-15T00:00:00	2024-11-08T04:00:00	8	Radiación solar	0
176985	7	Sololá	716	San Marcos la Laguna 	11	San Marcos la laguna 	2	Febrero	2023-02-15T00:00:00	2024-11-08T05:00:00	2	Temperatura media	13.3
176986	7	Sololá	716	San Marcos la Laguna 	11	San Marcos la laguna 	2	Febrero	2023-02-15T00:00:00	2024-11-08T05:00:00	4	Temperatura máxima	13.7
176987	7	Sololá	716	San Marcos la Laguna 	11	San Marcos la laguna 	2	Febrero	2023-02-15T00:00:00	2024-11-08T05:00:00	3	Temperatura mínima	13.2
176988	7	Sololá	716	San Marcos la Laguna 	11	San Marcos la laguna 	2	Febrero	2023-02-15T00:00:00	2024-11-08T05:00:00	5	Humedad	82
176989	7	Sololá	716	San Marcos la Laguna 	11	San Marcos la laguna 	2	Febrero	2023-02-15T00:00:00	2024-11-08T05:00:00	6	Velocidad del viento	6.4
176990	7	Sololá	716	San Marcos la Laguna 	11	San Marcos la laguna 	2	Febrero	2023-02-15T00:00:00	2024-11-08T05:00:00	7	Dirección del viento	6.44
176991	7	Sololá	716	San Marcos la Laguna 	11	San Marcos la laguna 	2	Febrero	2023-02-15T00:00:00	2024-11-08T05:00:00	1	Precipitación	0
176992	7	Sololá	716	San Marcos la Laguna 	11	San Marcos la laguna 	2	Febrero	2023-02-15T00:00:00	2024-11-08T05:00:00	8	Radiación solar	0
176993	7	Sololá	716	San Marcos la Laguna 	11	San Marcos la laguna 	2	Febrero	2023-02-15T00:00:00	2024-11-08T06:00:00	2	Temperatura media	13
176994	7	Sololá	716	San Marcos la Laguna 	11	San Marcos la laguna 	2	Febrero	2023-02-15T00:00:00	2024-11-08T06:00:00	4	Temperatura máxima	13.4
176995	7	Sololá	716	San Marcos la Laguna 	11	San Marcos la laguna 	2	Febrero	2023-02-15T00:00:00	2024-11-08T06:00:00	3	Temperatura mínima	12.9
176996	7	Sololá	716	San Marcos la Laguna 	11	San Marcos la laguna 	2	Febrero	2023-02-15T00:00:00	2024-11-08T06:00:00	5	Humedad	81
176997	7	Sololá	716	San Marcos la Laguna 	11	San Marcos la laguna 	2	Febrero	2023-02-15T00:00:00	2024-11-08T06:00:00	6	Velocidad del viento	6.4
176998	7	Sololá	716	San Marcos la Laguna 	11	San Marcos la laguna 	2	Febrero	2023-02-15T00:00:00	2024-11-08T06:00:00	7	Dirección del viento	6.44
176999	7	Sololá	716	San Marcos la Laguna 	11	San Marcos la laguna 	2	Febrero	2023-02-15T00:00:00	2024-11-08T06:00:00	1	Precipitación	0
177000	7	Sololá	716	San Marcos la Laguna 	11	San Marcos la laguna 	2	Febrero	2023-02-15T00:00:00	2024-11-08T06:00:00	8	Radiación solar	0
177001	7	Sololá	716	San Marcos la Laguna 	11	San Marcos la laguna 	2	Febrero	2023-02-15T00:00:00	2024-11-08T07:00:00	2	Temperatura media	13
177002	7	Sololá	716	San Marcos la Laguna 	11	San Marcos la laguna 	2	Febrero	2023-02-15T00:00:00	2024-11-08T07:00:00	4	Temperatura máxima	13.1
177003	7	Sololá	716	San Marcos la Laguna 	11	San Marcos la laguna 	2	Febrero	2023-02-15T00:00:00	2024-11-08T07:00:00	3	Temperatura mínima	12.7
177004	7	Sololá	716	San Marcos la Laguna 	11	San Marcos la laguna 	2	Febrero	2023-02-15T00:00:00	2024-11-08T07:00:00	5	Humedad	83
177005	7	Sololá	716	San Marcos la Laguna 	11	San Marcos la laguna 	2	Febrero	2023-02-15T00:00:00	2024-11-08T07:00:00	6	Velocidad del viento	6.4
177006	7	Sololá	716	San Marcos la Laguna 	11	San Marcos la laguna 	2	Febrero	2023-02-15T00:00:00	2024-11-08T07:00:00	7	Dirección del viento	6.44
177007	7	Sololá	716	San Marcos la Laguna 	11	San Marcos la laguna 	2	Febrero	2023-02-15T00:00:00	2024-11-08T07:00:00	1	Precipitación	0
177008	7	Sololá	716	San Marcos la Laguna 	11	San Marcos la laguna 	2	Febrero	2023-02-15T00:00:00	2024-11-08T07:00:00	8	Radiación solar	4
177009	7	Sololá	716	San Marcos la Laguna 	11	San Marcos la laguna 	2	Febrero	2023-02-15T00:00:00	2024-11-08T08:00:00	2	Temperatura media	17.1
177010	7	Sololá	716	San Marcos la Laguna 	11	San Marcos la laguna 	2	Febrero	2023-02-15T00:00:00	2024-11-08T08:00:00	4	Temperatura máxima	17.1
177011	7	Sololá	716	San Marcos la Laguna 	11	San Marcos la laguna 	2	Febrero	2023-02-15T00:00:00	2024-11-08T08:00:00	3	Temperatura mínima	13
177012	7	Sololá	716	San Marcos la Laguna 	11	San Marcos la laguna 	2	Febrero	2023-02-15T00:00:00	2024-11-08T08:00:00	5	Humedad	78
177013	7	Sololá	716	San Marcos la Laguna 	11	San Marcos la laguna 	2	Febrero	2023-02-15T00:00:00	2024-11-08T08:00:00	6	Velocidad del viento	3.2
177014	7	Sololá	716	San Marcos la Laguna 	11	San Marcos la laguna 	2	Febrero	2023-02-15T00:00:00	2024-11-08T08:00:00	7	Dirección del viento	3.22
177015	7	Sololá	716	San Marcos la Laguna 	11	San Marcos la laguna 	2	Febrero	2023-02-15T00:00:00	2024-11-08T08:00:00	1	Precipitación	0
177016	7	Sololá	716	San Marcos la Laguna 	11	San Marcos la laguna 	2	Febrero	2023-02-15T00:00:00	2024-11-08T08:00:00	8	Radiación solar	128
177017	7	Sololá	716	San Marcos la Laguna 	11	San Marcos la laguna 	2	Febrero	2023-02-15T00:00:00	2024-11-08T09:00:00	2	Temperatura media	18.2
177018	7	Sololá	716	San Marcos la Laguna 	11	San Marcos la laguna 	2	Febrero	2023-02-15T00:00:00	2024-11-08T09:00:00	4	Temperatura máxima	18.6
177019	7	Sololá	716	San Marcos la Laguna 	11	San Marcos la laguna 	2	Febrero	2023-02-15T00:00:00	2024-11-08T09:00:00	3	Temperatura mínima	17.1
177020	7	Sololá	716	San Marcos la Laguna 	11	San Marcos la laguna 	2	Febrero	2023-02-15T00:00:00	2024-11-08T09:00:00	5	Humedad	77
177021	7	Sololá	716	San Marcos la Laguna 	11	San Marcos la laguna 	2	Febrero	2023-02-15T00:00:00	2024-11-08T09:00:00	6	Velocidad del viento	3.2
177022	7	Sololá	716	San Marcos la Laguna 	11	San Marcos la laguna 	2	Febrero	2023-02-15T00:00:00	2024-11-08T09:00:00	7	Dirección del viento	3.22
177023	7	Sololá	716	San Marcos la Laguna 	11	San Marcos la laguna 	2	Febrero	2023-02-15T00:00:00	2024-11-08T09:00:00	1	Precipitación	0
177024	7	Sololá	716	San Marcos la Laguna 	11	San Marcos la laguna 	2	Febrero	2023-02-15T00:00:00	2024-11-08T09:00:00	8	Radiación solar	361
177025	7	Sololá	716	San Marcos la Laguna 	11	San Marcos la laguna 	2	Febrero	2023-02-15T00:00:00	2024-11-08T10:00:00	2	Temperatura media	19.6
177026	7	Sololá	716	San Marcos la Laguna 	11	San Marcos la laguna 	2	Febrero	2023-02-15T00:00:00	2024-11-08T10:00:00	4	Temperatura máxima	19.6
177027	7	Sololá	716	San Marcos la Laguna 	11	San Marcos la laguna 	2	Febrero	2023-02-15T00:00:00	2024-11-08T10:00:00	3	Temperatura mínima	18.2
177028	7	Sololá	716	San Marcos la Laguna 	11	San Marcos la laguna 	2	Febrero	2023-02-15T00:00:00	2024-11-08T10:00:00	5	Humedad	76
177029	7	Sololá	716	San Marcos la Laguna 	11	San Marcos la laguna 	2	Febrero	2023-02-15T00:00:00	2024-11-08T10:00:00	6	Velocidad del viento	4.8
177030	7	Sololá	716	San Marcos la Laguna 	11	San Marcos la laguna 	2	Febrero	2023-02-15T00:00:00	2024-11-08T10:00:00	7	Dirección del viento	4.83
177031	7	Sololá	716	San Marcos la Laguna 	11	San Marcos la laguna 	2	Febrero	2023-02-15T00:00:00	2024-11-08T10:00:00	1	Precipitación	0
177032	7	Sololá	716	San Marcos la Laguna 	11	San Marcos la laguna 	2	Febrero	2023-02-15T00:00:00	2024-11-08T10:00:00	8	Radiación solar	562
177033	7	Sololá	716	San Marcos la Laguna 	11	San Marcos la laguna 	2	Febrero	2023-02-15T00:00:00	2024-11-08T11:00:00	2	Temperatura media	20.6
177034	7	Sololá	716	San Marcos la Laguna 	11	San Marcos la laguna 	2	Febrero	2023-02-15T00:00:00	2024-11-08T11:00:00	4	Temperatura máxima	20.8
177035	7	Sololá	716	San Marcos la Laguna 	11	San Marcos la laguna 	2	Febrero	2023-02-15T00:00:00	2024-11-08T11:00:00	3	Temperatura mínima	19.6
177036	7	Sololá	716	San Marcos la Laguna 	11	San Marcos la laguna 	2	Febrero	2023-02-15T00:00:00	2024-11-08T11:00:00	5	Humedad	68
177037	7	Sololá	716	San Marcos la Laguna 	11	San Marcos la laguna 	2	Febrero	2023-02-15T00:00:00	2024-11-08T11:00:00	6	Velocidad del viento	4.8
177038	7	Sololá	716	San Marcos la Laguna 	11	San Marcos la laguna 	2	Febrero	2023-02-15T00:00:00	2024-11-08T11:00:00	7	Dirección del viento	4.83
177039	7	Sololá	716	San Marcos la Laguna 	11	San Marcos la laguna 	2	Febrero	2023-02-15T00:00:00	2024-11-08T11:00:00	1	Precipitación	0
177040	7	Sololá	716	San Marcos la Laguna 	11	San Marcos la laguna 	2	Febrero	2023-02-15T00:00:00	2024-11-08T11:00:00	8	Radiación solar	494
177041	7	Sololá	716	San Marcos la Laguna 	11	San Marcos la laguna 	2	Febrero	2023-02-15T00:00:00	2024-11-08T12:00:00	2	Temperatura media	21.1
177042	7	Sololá	716	San Marcos la Laguna 	11	San Marcos la laguna 	2	Febrero	2023-02-15T00:00:00	2024-11-08T12:00:00	4	Temperatura máxima	21.3
177043	7	Sololá	716	San Marcos la Laguna 	11	San Marcos la laguna 	2	Febrero	2023-02-15T00:00:00	2024-11-08T12:00:00	3	Temperatura mínima	20.6
177044	7	Sololá	716	San Marcos la Laguna 	11	San Marcos la laguna 	2	Febrero	2023-02-15T00:00:00	2024-11-08T12:00:00	5	Humedad	69
177045	7	Sololá	716	San Marcos la Laguna 	11	San Marcos la laguna 	2	Febrero	2023-02-15T00:00:00	2024-11-08T12:00:00	6	Velocidad del viento	8
177046	7	Sololá	716	San Marcos la Laguna 	11	San Marcos la laguna 	2	Febrero	2023-02-15T00:00:00	2024-11-08T12:00:00	7	Dirección del viento	8.05
177047	7	Sololá	716	San Marcos la Laguna 	11	San Marcos la laguna 	2	Febrero	2023-02-15T00:00:00	2024-11-08T12:00:00	1	Precipitación	0
177048	7	Sololá	716	San Marcos la Laguna 	11	San Marcos la laguna 	2	Febrero	2023-02-15T00:00:00	2024-11-08T12:00:00	8	Radiación solar	634
177049	7	Sololá	716	San Marcos la Laguna 	11	San Marcos la laguna 	2	Febrero	2023-02-15T00:00:00	2024-11-08T13:00:00	2	Temperatura media	21.3
177050	7	Sololá	716	San Marcos la Laguna 	11	San Marcos la laguna 	2	Febrero	2023-02-15T00:00:00	2024-11-08T13:00:00	4	Temperatura máxima	21.5
177051	7	Sololá	716	San Marcos la Laguna 	11	San Marcos la laguna 	2	Febrero	2023-02-15T00:00:00	2024-11-08T13:00:00	3	Temperatura mínima	20.9
177052	7	Sololá	716	San Marcos la Laguna 	11	San Marcos la laguna 	2	Febrero	2023-02-15T00:00:00	2024-11-08T13:00:00	5	Humedad	71
177053	7	Sololá	716	San Marcos la Laguna 	11	San Marcos la laguna 	2	Febrero	2023-02-15T00:00:00	2024-11-08T13:00:00	6	Velocidad del viento	12.9
177054	7	Sololá	716	San Marcos la Laguna 	11	San Marcos la laguna 	2	Febrero	2023-02-15T00:00:00	2024-11-08T13:00:00	7	Dirección del viento	12.87
177055	7	Sololá	716	San Marcos la Laguna 	11	San Marcos la laguna 	2	Febrero	2023-02-15T00:00:00	2024-11-08T13:00:00	1	Precipitación	0
177056	7	Sololá	716	San Marcos la Laguna 	11	San Marcos la laguna 	2	Febrero	2023-02-15T00:00:00	2024-11-08T13:00:00	8	Radiación solar	411
177057	7	Sololá	716	San Marcos la Laguna 	11	San Marcos la laguna 	2	Febrero	2023-02-15T00:00:00	2024-11-08T14:00:00	2	Temperatura media	22.3
177058	7	Sololá	716	San Marcos la Laguna 	11	San Marcos la laguna 	2	Febrero	2023-02-15T00:00:00	2024-11-08T14:00:00	4	Temperatura máxima	22.3
177059	7	Sololá	716	San Marcos la Laguna 	11	San Marcos la laguna 	2	Febrero	2023-02-15T00:00:00	2024-11-08T14:00:00	3	Temperatura mínima	21.2
177060	7	Sololá	716	San Marcos la Laguna 	11	San Marcos la laguna 	2	Febrero	2023-02-15T00:00:00	2024-11-08T14:00:00	5	Humedad	70
177061	7	Sololá	716	San Marcos la Laguna 	11	San Marcos la laguna 	2	Febrero	2023-02-15T00:00:00	2024-11-08T14:00:00	6	Velocidad del viento	9.7
177062	7	Sololá	716	San Marcos la Laguna 	11	San Marcos la laguna 	2	Febrero	2023-02-15T00:00:00	2024-11-08T14:00:00	7	Dirección del viento	9.66
177063	7	Sololá	716	San Marcos la Laguna 	11	San Marcos la laguna 	2	Febrero	2023-02-15T00:00:00	2024-11-08T14:00:00	1	Precipitación	0
177064	7	Sololá	716	San Marcos la Laguna 	11	San Marcos la laguna 	2	Febrero	2023-02-15T00:00:00	2024-11-08T14:00:00	8	Radiación solar	209
177065	7	Sololá	716	San Marcos la Laguna 	11	San Marcos la laguna 	2	Febrero	2023-02-15T00:00:00	2024-11-08T15:00:00	2	Temperatura media	20.8
177066	7	Sololá	716	San Marcos la Laguna 	11	San Marcos la laguna 	2	Febrero	2023-02-15T00:00:00	2024-11-08T15:00:00	4	Temperatura máxima	22.5
177067	7	Sololá	716	San Marcos la Laguna 	11	San Marcos la laguna 	2	Febrero	2023-02-15T00:00:00	2024-11-08T15:00:00	3	Temperatura mínima	20.6
177068	7	Sololá	716	San Marcos la Laguna 	11	San Marcos la laguna 	2	Febrero	2023-02-15T00:00:00	2024-11-08T15:00:00	5	Humedad	77
177069	7	Sololá	716	San Marcos la Laguna 	11	San Marcos la laguna 	2	Febrero	2023-02-15T00:00:00	2024-11-08T15:00:00	6	Velocidad del viento	8
177070	7	Sololá	716	San Marcos la Laguna 	11	San Marcos la laguna 	2	Febrero	2023-02-15T00:00:00	2024-11-08T15:00:00	7	Dirección del viento	8.05
177071	7	Sololá	716	San Marcos la Laguna 	11	San Marcos la laguna 	2	Febrero	2023-02-15T00:00:00	2024-11-08T15:00:00	1	Precipitación	0
177072	7	Sololá	716	San Marcos la Laguna 	11	San Marcos la laguna 	2	Febrero	2023-02-15T00:00:00	2024-11-08T15:00:00	8	Radiación solar	192
177073	7	Sololá	716	San Marcos la Laguna 	11	San Marcos la laguna 	2	Febrero	2023-02-15T00:00:00	2024-11-08T16:00:00	2	Temperatura media	20.6
177074	7	Sololá	716	San Marcos la Laguna 	11	San Marcos la laguna 	2	Febrero	2023-02-15T00:00:00	2024-11-08T16:00:00	4	Temperatura máxima	20.9
177075	7	Sololá	716	San Marcos la Laguna 	11	San Marcos la laguna 	2	Febrero	2023-02-15T00:00:00	2024-11-08T16:00:00	3	Temperatura mínima	20.6
177076	7	Sololá	716	San Marcos la Laguna 	11	San Marcos la laguna 	2	Febrero	2023-02-15T00:00:00	2024-11-08T16:00:00	5	Humedad	78
177077	7	Sololá	716	San Marcos la Laguna 	11	San Marcos la laguna 	2	Febrero	2023-02-15T00:00:00	2024-11-08T16:00:00	6	Velocidad del viento	9.7
177078	7	Sololá	716	San Marcos la Laguna 	11	San Marcos la laguna 	2	Febrero	2023-02-15T00:00:00	2024-11-08T16:00:00	7	Dirección del viento	9.66
177079	7	Sololá	716	San Marcos la Laguna 	11	San Marcos la laguna 	2	Febrero	2023-02-15T00:00:00	2024-11-08T16:00:00	1	Precipitación	0
177080	7	Sololá	716	San Marcos la Laguna 	11	San Marcos la laguna 	2	Febrero	2023-02-15T00:00:00	2024-11-08T16:00:00	8	Radiación solar	80
177081	7	Sololá	716	San Marcos la Laguna 	11	San Marcos la laguna 	2	Febrero	2023-02-15T00:00:00	2024-11-08T17:00:00	2	Temperatura media	20.3
177082	7	Sololá	716	San Marcos la Laguna 	11	San Marcos la laguna 	2	Febrero	2023-02-15T00:00:00	2024-11-08T17:00:00	4	Temperatura máxima	20.6
177083	7	Sololá	716	San Marcos la Laguna 	11	San Marcos la laguna 	2	Febrero	2023-02-15T00:00:00	2024-11-08T17:00:00	3	Temperatura mínima	20.3
177084	7	Sololá	716	San Marcos la Laguna 	11	San Marcos la laguna 	2	Febrero	2023-02-15T00:00:00	2024-11-08T17:00:00	5	Humedad	78
177085	7	Sololá	716	San Marcos la Laguna 	11	San Marcos la laguna 	2	Febrero	2023-02-15T00:00:00	2024-11-08T17:00:00	6	Velocidad del viento	6.4
177086	7	Sololá	716	San Marcos la Laguna 	11	San Marcos la laguna 	2	Febrero	2023-02-15T00:00:00	2024-11-08T17:00:00	7	Dirección del viento	6.44
177087	7	Sololá	716	San Marcos la Laguna 	11	San Marcos la laguna 	2	Febrero	2023-02-15T00:00:00	2024-11-08T17:00:00	1	Precipitación	0
177088	7	Sololá	716	San Marcos la Laguna 	11	San Marcos la laguna 	2	Febrero	2023-02-15T00:00:00	2024-11-08T17:00:00	8	Radiación solar	95
177089	7	Sololá	716	San Marcos la Laguna 	11	San Marcos la laguna 	2	Febrero	2023-02-15T00:00:00	2024-11-08T18:00:00	2	Temperatura media	20.1
177090	7	Sololá	716	San Marcos la Laguna 	11	San Marcos la laguna 	2	Febrero	2023-02-15T00:00:00	2024-11-08T18:00:00	4	Temperatura máxima	20.5
177091	7	Sololá	716	San Marcos la Laguna 	11	San Marcos la laguna 	2	Febrero	2023-02-15T00:00:00	2024-11-08T18:00:00	3	Temperatura mínima	20.1
177092	7	Sololá	716	San Marcos la Laguna 	11	San Marcos la laguna 	2	Febrero	2023-02-15T00:00:00	2024-11-08T18:00:00	5	Humedad	80
177093	7	Sololá	716	San Marcos la Laguna 	11	San Marcos la laguna 	2	Febrero	2023-02-15T00:00:00	2024-11-08T18:00:00	6	Velocidad del viento	4.8
177094	7	Sololá	716	San Marcos la Laguna 	11	San Marcos la laguna 	2	Febrero	2023-02-15T00:00:00	2024-11-08T18:00:00	7	Dirección del viento	4.83
177095	7	Sololá	716	San Marcos la Laguna 	11	San Marcos la laguna 	2	Febrero	2023-02-15T00:00:00	2024-11-08T18:00:00	1	Precipitación	0
177096	7	Sololá	716	San Marcos la Laguna 	11	San Marcos la laguna 	2	Febrero	2023-02-15T00:00:00	2024-11-08T18:00:00	8	Radiación solar	26
177097	7	Sololá	716	San Marcos la Laguna 	11	San Marcos la laguna 	2	Febrero	2023-02-15T00:00:00	2024-11-08T19:00:00	2	Temperatura media	19.5
177098	7	Sololá	716	San Marcos la Laguna 	11	San Marcos la laguna 	2	Febrero	2023-02-15T00:00:00	2024-11-08T19:00:00	4	Temperatura máxima	20.1
177099	7	Sololá	716	San Marcos la Laguna 	11	San Marcos la laguna 	2	Febrero	2023-02-15T00:00:00	2024-11-08T19:00:00	3	Temperatura mínima	19.5
177100	7	Sololá	716	San Marcos la Laguna 	11	San Marcos la laguna 	2	Febrero	2023-02-15T00:00:00	2024-11-08T19:00:00	5	Humedad	83
177101	7	Sololá	716	San Marcos la Laguna 	11	San Marcos la laguna 	2	Febrero	2023-02-15T00:00:00	2024-11-08T19:00:00	6	Velocidad del viento	8
177102	7	Sololá	716	San Marcos la Laguna 	11	San Marcos la laguna 	2	Febrero	2023-02-15T00:00:00	2024-11-08T19:00:00	7	Dirección del viento	8.05
177103	7	Sololá	716	San Marcos la Laguna 	11	San Marcos la laguna 	2	Febrero	2023-02-15T00:00:00	2024-11-08T19:00:00	1	Precipitación	0
177104	7	Sololá	716	San Marcos la Laguna 	11	San Marcos la laguna 	2	Febrero	2023-02-15T00:00:00	2024-11-08T19:00:00	8	Radiación solar	0
177105	7	Sololá	716	San Marcos la Laguna 	11	San Marcos la laguna 	2	Febrero	2023-02-15T00:00:00	2024-11-08T20:00:00	2	Temperatura media	19.3
177106	7	Sololá	716	San Marcos la Laguna 	11	San Marcos la laguna 	2	Febrero	2023-02-15T00:00:00	2024-11-08T20:00:00	4	Temperatura máxima	19.6
177107	7	Sololá	716	San Marcos la Laguna 	11	San Marcos la laguna 	2	Febrero	2023-02-15T00:00:00	2024-11-08T20:00:00	3	Temperatura mínima	19.2
177108	7	Sololá	716	San Marcos la Laguna 	11	San Marcos la laguna 	2	Febrero	2023-02-15T00:00:00	2024-11-08T20:00:00	5	Humedad	85
177109	7	Sololá	716	San Marcos la Laguna 	11	San Marcos la laguna 	2	Febrero	2023-02-15T00:00:00	2024-11-08T20:00:00	6	Velocidad del viento	6.4
177110	7	Sololá	716	San Marcos la Laguna 	11	San Marcos la laguna 	2	Febrero	2023-02-15T00:00:00	2024-11-08T20:00:00	7	Dirección del viento	6.44
177111	7	Sololá	716	San Marcos la Laguna 	11	San Marcos la laguna 	2	Febrero	2023-02-15T00:00:00	2024-11-08T20:00:00	1	Precipitación	0
177112	7	Sololá	716	San Marcos la Laguna 	11	San Marcos la laguna 	2	Febrero	2023-02-15T00:00:00	2024-11-08T20:00:00	8	Radiación solar	0
177113	7	Sololá	716	San Marcos la Laguna 	11	San Marcos la laguna 	2	Febrero	2023-02-15T00:00:00	2024-11-08T21:00:00	2	Temperatura media	18.1
177114	7	Sololá	716	San Marcos la Laguna 	11	San Marcos la laguna 	2	Febrero	2023-02-15T00:00:00	2024-11-08T21:00:00	4	Temperatura máxima	19.3
177115	7	Sololá	716	San Marcos la Laguna 	11	San Marcos la laguna 	2	Febrero	2023-02-15T00:00:00	2024-11-08T21:00:00	3	Temperatura mínima	18.1
177116	7	Sololá	716	San Marcos la Laguna 	11	San Marcos la laguna 	2	Febrero	2023-02-15T00:00:00	2024-11-08T21:00:00	5	Humedad	85
177117	7	Sololá	716	San Marcos la Laguna 	11	San Marcos la laguna 	2	Febrero	2023-02-15T00:00:00	2024-11-08T21:00:00	6	Velocidad del viento	3.2
177118	7	Sololá	716	San Marcos la Laguna 	11	San Marcos la laguna 	2	Febrero	2023-02-15T00:00:00	2024-11-08T21:00:00	7	Dirección del viento	3.22
177119	7	Sololá	716	San Marcos la Laguna 	11	San Marcos la laguna 	2	Febrero	2023-02-15T00:00:00	2024-11-08T21:00:00	1	Precipitación	0
177120	7	Sololá	716	San Marcos la Laguna 	11	San Marcos la laguna 	2	Febrero	2023-02-15T00:00:00	2024-11-08T21:00:00	8	Radiación solar	0
177121	7	Sololá	716	San Marcos la Laguna 	11	San Marcos la laguna 	2	Febrero	2023-02-15T00:00:00	2024-11-08T22:00:00	2	Temperatura media	17.4
177122	7	Sololá	716	San Marcos la Laguna 	11	San Marcos la laguna 	2	Febrero	2023-02-15T00:00:00	2024-11-08T22:00:00	4	Temperatura máxima	18.1
177123	7	Sololá	716	San Marcos la Laguna 	11	San Marcos la laguna 	2	Febrero	2023-02-15T00:00:00	2024-11-08T22:00:00	3	Temperatura mínima	17.3
177124	7	Sololá	716	San Marcos la Laguna 	11	San Marcos la laguna 	2	Febrero	2023-02-15T00:00:00	2024-11-08T22:00:00	5	Humedad	74
177125	7	Sololá	716	San Marcos la Laguna 	11	San Marcos la laguna 	2	Febrero	2023-02-15T00:00:00	2024-11-08T22:00:00	6	Velocidad del viento	6.4
177126	7	Sololá	716	San Marcos la Laguna 	11	San Marcos la laguna 	2	Febrero	2023-02-15T00:00:00	2024-11-08T22:00:00	7	Dirección del viento	6.44
177127	7	Sololá	716	San Marcos la Laguna 	11	San Marcos la laguna 	2	Febrero	2023-02-15T00:00:00	2024-11-08T22:00:00	1	Precipitación	0
177128	7	Sololá	716	San Marcos la Laguna 	11	San Marcos la laguna 	2	Febrero	2023-02-15T00:00:00	2024-11-08T22:00:00	8	Radiación solar	0
177129	7	Sololá	716	San Marcos la Laguna 	11	San Marcos la laguna 	2	Febrero	2023-02-15T00:00:00	2024-11-08T23:00:00	2	Temperatura media	16.4
177130	7	Sololá	716	San Marcos la Laguna 	11	San Marcos la laguna 	2	Febrero	2023-02-15T00:00:00	2024-11-08T23:00:00	4	Temperatura máxima	17.3
177131	7	Sololá	716	San Marcos la Laguna 	11	San Marcos la laguna 	2	Febrero	2023-02-15T00:00:00	2024-11-08T23:00:00	3	Temperatura mínima	16.4
177132	7	Sololá	716	San Marcos la Laguna 	11	San Marcos la laguna 	2	Febrero	2023-02-15T00:00:00	2024-11-08T23:00:00	5	Humedad	74
177133	7	Sololá	716	San Marcos la Laguna 	11	San Marcos la laguna 	2	Febrero	2023-02-15T00:00:00	2024-11-08T23:00:00	6	Velocidad del viento	6.4
177134	7	Sololá	716	San Marcos la Laguna 	11	San Marcos la laguna 	2	Febrero	2023-02-15T00:00:00	2024-11-08T23:00:00	7	Dirección del viento	6.44
177135	7	Sololá	716	San Marcos la Laguna 	11	San Marcos la laguna 	2	Febrero	2023-02-15T00:00:00	2024-11-08T23:00:00	1	Precipitación	0
177136	7	Sololá	716	San Marcos la Laguna 	11	San Marcos la laguna 	2	Febrero	2023-02-15T00:00:00	2024-11-08T23:00:00	8	Radiación solar	0
177137	7	Sololá	716	San Marcos la Laguna 	11	San Marcos la laguna 	2	Febrero	2023-02-16T00:00:00	2024-11-08T00:00:00	2	Temperatura media	15.4
177138	7	Sololá	716	San Marcos la Laguna 	11	San Marcos la laguna 	2	Febrero	2023-02-16T00:00:00	2024-11-08T00:00:00	4	Temperatura máxima	16.4
177139	7	Sololá	716	San Marcos la Laguna 	11	San Marcos la laguna 	2	Febrero	2023-02-16T00:00:00	2024-11-08T00:00:00	3	Temperatura mínima	15.4
177140	7	Sololá	716	San Marcos la Laguna 	11	San Marcos la laguna 	2	Febrero	2023-02-16T00:00:00	2024-11-08T00:00:00	5	Humedad	73
177141	7	Sololá	716	San Marcos la Laguna 	11	San Marcos la laguna 	2	Febrero	2023-02-16T00:00:00	2024-11-08T00:00:00	6	Velocidad del viento	6.4
177142	7	Sololá	716	San Marcos la Laguna 	11	San Marcos la laguna 	2	Febrero	2023-02-16T00:00:00	2024-11-08T00:00:00	7	Dirección del viento	6.44
177143	7	Sololá	716	San Marcos la Laguna 	11	San Marcos la laguna 	2	Febrero	2023-02-16T00:00:00	2024-11-08T00:00:00	1	Precipitación	0
177144	7	Sololá	716	San Marcos la Laguna 	11	San Marcos la laguna 	2	Febrero	2023-02-16T00:00:00	2024-11-08T00:00:00	8	Radiación solar	0
177145	7	Sololá	716	San Marcos la Laguna 	11	San Marcos la laguna 	2	Febrero	2023-02-16T00:00:00	2024-11-08T01:00:00	2	Temperatura media	14.9
177146	7	Sololá	716	San Marcos la Laguna 	11	San Marcos la laguna 	2	Febrero	2023-02-16T00:00:00	2024-11-08T01:00:00	4	Temperatura máxima	15.7
177147	7	Sololá	716	San Marcos la Laguna 	11	San Marcos la laguna 	2	Febrero	2023-02-16T00:00:00	2024-11-08T01:00:00	3	Temperatura mínima	14.9
177148	7	Sololá	716	San Marcos la Laguna 	11	San Marcos la laguna 	2	Febrero	2023-02-16T00:00:00	2024-11-08T01:00:00	5	Humedad	78
177149	7	Sololá	716	San Marcos la Laguna 	11	San Marcos la laguna 	2	Febrero	2023-02-16T00:00:00	2024-11-08T01:00:00	6	Velocidad del viento	6.4
177150	7	Sololá	716	San Marcos la Laguna 	11	San Marcos la laguna 	2	Febrero	2023-02-16T00:00:00	2024-11-08T01:00:00	7	Dirección del viento	6.44
177151	7	Sololá	716	San Marcos la Laguna 	11	San Marcos la laguna 	2	Febrero	2023-02-16T00:00:00	2024-11-08T01:00:00	1	Precipitación	0
177152	7	Sololá	716	San Marcos la Laguna 	11	San Marcos la laguna 	2	Febrero	2023-02-16T00:00:00	2024-11-08T01:00:00	8	Radiación solar	0
177153	7	Sololá	716	San Marcos la Laguna 	11	San Marcos la laguna 	2	Febrero	2023-02-16T00:00:00	2024-11-08T02:00:00	2	Temperatura media	15.8
177154	7	Sololá	716	San Marcos la Laguna 	11	San Marcos la laguna 	2	Febrero	2023-02-16T00:00:00	2024-11-08T02:00:00	4	Temperatura máxima	15.8
177155	7	Sololá	716	San Marcos la Laguna 	11	San Marcos la laguna 	2	Febrero	2023-02-16T00:00:00	2024-11-08T02:00:00	3	Temperatura mínima	14.7
177156	7	Sololá	716	San Marcos la Laguna 	11	San Marcos la laguna 	2	Febrero	2023-02-16T00:00:00	2024-11-08T02:00:00	5	Humedad	70
177157	7	Sololá	716	San Marcos la Laguna 	11	San Marcos la laguna 	2	Febrero	2023-02-16T00:00:00	2024-11-08T02:00:00	6	Velocidad del viento	6.4
177158	7	Sololá	716	San Marcos la Laguna 	11	San Marcos la laguna 	2	Febrero	2023-02-16T00:00:00	2024-11-08T02:00:00	7	Dirección del viento	6.44
177159	7	Sololá	716	San Marcos la Laguna 	11	San Marcos la laguna 	2	Febrero	2023-02-16T00:00:00	2024-11-08T02:00:00	1	Precipitación	0
177160	7	Sololá	716	San Marcos la Laguna 	11	San Marcos la laguna 	2	Febrero	2023-02-16T00:00:00	2024-11-08T02:00:00	8	Radiación solar	0
177161	7	Sololá	716	San Marcos la Laguna 	11	San Marcos la laguna 	2	Febrero	2023-02-16T00:00:00	2024-11-08T03:00:00	2	Temperatura media	15.9
177162	7	Sololá	716	San Marcos la Laguna 	11	San Marcos la laguna 	2	Febrero	2023-02-16T00:00:00	2024-11-08T03:00:00	4	Temperatura máxima	16.1
177163	7	Sololá	716	San Marcos la Laguna 	11	San Marcos la laguna 	2	Febrero	2023-02-16T00:00:00	2024-11-08T03:00:00	3	Temperatura mínima	15.8
177164	7	Sololá	716	San Marcos la Laguna 	11	San Marcos la laguna 	2	Febrero	2023-02-16T00:00:00	2024-11-08T03:00:00	5	Humedad	70
177165	7	Sololá	716	San Marcos la Laguna 	11	San Marcos la laguna 	2	Febrero	2023-02-16T00:00:00	2024-11-08T03:00:00	6	Velocidad del viento	6.4
177166	7	Sololá	716	San Marcos la Laguna 	11	San Marcos la laguna 	2	Febrero	2023-02-16T00:00:00	2024-11-08T03:00:00	7	Dirección del viento	6.44
177167	7	Sololá	716	San Marcos la Laguna 	11	San Marcos la laguna 	2	Febrero	2023-02-16T00:00:00	2024-11-08T03:00:00	1	Precipitación	0
177168	7	Sololá	716	San Marcos la Laguna 	11	San Marcos la laguna 	2	Febrero	2023-02-16T00:00:00	2024-11-08T03:00:00	8	Radiación solar	0
177169	7	Sololá	716	San Marcos la Laguna 	11	San Marcos la laguna 	2	Febrero	2023-02-16T00:00:00	2024-11-08T04:00:00	2	Temperatura media	15.2
177170	7	Sololá	716	San Marcos la Laguna 	11	San Marcos la laguna 	2	Febrero	2023-02-16T00:00:00	2024-11-08T04:00:00	4	Temperatura máxima	16
177171	7	Sololá	716	San Marcos la Laguna 	11	San Marcos la laguna 	2	Febrero	2023-02-16T00:00:00	2024-11-08T04:00:00	3	Temperatura mínima	15.2
177172	7	Sololá	716	San Marcos la Laguna 	11	San Marcos la laguna 	2	Febrero	2023-02-16T00:00:00	2024-11-08T04:00:00	5	Humedad	73
177173	7	Sololá	716	San Marcos la Laguna 	11	San Marcos la laguna 	2	Febrero	2023-02-16T00:00:00	2024-11-08T04:00:00	6	Velocidad del viento	8
177174	7	Sololá	716	San Marcos la Laguna 	11	San Marcos la laguna 	2	Febrero	2023-02-16T00:00:00	2024-11-08T04:00:00	7	Dirección del viento	8.05
177175	7	Sololá	716	San Marcos la Laguna 	11	San Marcos la laguna 	2	Febrero	2023-02-16T00:00:00	2024-11-08T04:00:00	1	Precipitación	0
177176	7	Sololá	716	San Marcos la Laguna 	11	San Marcos la laguna 	2	Febrero	2023-02-16T00:00:00	2024-11-08T04:00:00	8	Radiación solar	0
177177	7	Sololá	716	San Marcos la Laguna 	11	San Marcos la laguna 	2	Febrero	2023-02-16T00:00:00	2024-11-08T05:00:00	2	Temperatura media	14.7
177178	7	Sololá	716	San Marcos la Laguna 	11	San Marcos la laguna 	2	Febrero	2023-02-16T00:00:00	2024-11-08T05:00:00	4	Temperatura máxima	15.2
177179	7	Sololá	716	San Marcos la Laguna 	11	San Marcos la laguna 	2	Febrero	2023-02-16T00:00:00	2024-11-08T05:00:00	3	Temperatura mínima	14.3
177180	7	Sololá	716	San Marcos la Laguna 	11	San Marcos la laguna 	2	Febrero	2023-02-16T00:00:00	2024-11-08T05:00:00	5	Humedad	74
177181	7	Sololá	716	San Marcos la Laguna 	11	San Marcos la laguna 	2	Febrero	2023-02-16T00:00:00	2024-11-08T05:00:00	6	Velocidad del viento	8
177182	7	Sololá	716	San Marcos la Laguna 	11	San Marcos la laguna 	2	Febrero	2023-02-16T00:00:00	2024-11-08T05:00:00	7	Dirección del viento	8.05
177183	7	Sololá	716	San Marcos la Laguna 	11	San Marcos la laguna 	2	Febrero	2023-02-16T00:00:00	2024-11-08T05:00:00	1	Precipitación	0
177184	7	Sololá	716	San Marcos la Laguna 	11	San Marcos la laguna 	2	Febrero	2023-02-16T00:00:00	2024-11-08T05:00:00	8	Radiación solar	0
177185	7	Sololá	716	San Marcos la Laguna 	11	San Marcos la laguna 	2	Febrero	2023-02-16T00:00:00	2024-11-08T06:00:00	2	Temperatura media	14.1
177186	7	Sololá	716	San Marcos la Laguna 	11	San Marcos la laguna 	2	Febrero	2023-02-16T00:00:00	2024-11-08T06:00:00	4	Temperatura máxima	14.7
177187	7	Sololá	716	San Marcos la Laguna 	11	San Marcos la laguna 	2	Febrero	2023-02-16T00:00:00	2024-11-08T06:00:00	3	Temperatura mínima	13.9
177188	7	Sololá	716	San Marcos la Laguna 	11	San Marcos la laguna 	2	Febrero	2023-02-16T00:00:00	2024-11-08T06:00:00	5	Humedad	74
177189	7	Sololá	716	San Marcos la Laguna 	11	San Marcos la laguna 	2	Febrero	2023-02-16T00:00:00	2024-11-08T06:00:00	6	Velocidad del viento	8
177190	7	Sololá	716	San Marcos la Laguna 	11	San Marcos la laguna 	2	Febrero	2023-02-16T00:00:00	2024-11-08T06:00:00	7	Dirección del viento	8.05
177191	7	Sololá	716	San Marcos la Laguna 	11	San Marcos la laguna 	2	Febrero	2023-02-16T00:00:00	2024-11-08T06:00:00	1	Precipitación	0
177192	7	Sololá	716	San Marcos la Laguna 	11	San Marcos la laguna 	2	Febrero	2023-02-16T00:00:00	2024-11-08T06:00:00	8	Radiación solar	0
177193	7	Sololá	716	San Marcos la Laguna 	11	San Marcos la laguna 	2	Febrero	2023-02-16T00:00:00	2024-11-08T07:00:00	2	Temperatura media	13.5
177194	7	Sololá	716	San Marcos la Laguna 	11	San Marcos la laguna 	2	Febrero	2023-02-16T00:00:00	2024-11-08T07:00:00	4	Temperatura máxima	14.1
177195	7	Sololá	716	San Marcos la Laguna 	11	San Marcos la laguna 	2	Febrero	2023-02-16T00:00:00	2024-11-08T07:00:00	3	Temperatura mínima	12.9
177196	7	Sololá	716	San Marcos la Laguna 	11	San Marcos la laguna 	2	Febrero	2023-02-16T00:00:00	2024-11-08T07:00:00	5	Humedad	80
177197	7	Sololá	716	San Marcos la Laguna 	11	San Marcos la laguna 	2	Febrero	2023-02-16T00:00:00	2024-11-08T07:00:00	6	Velocidad del viento	6.4
177198	7	Sololá	716	San Marcos la Laguna 	11	San Marcos la laguna 	2	Febrero	2023-02-16T00:00:00	2024-11-08T07:00:00	7	Dirección del viento	6.44
177199	7	Sololá	716	San Marcos la Laguna 	11	San Marcos la laguna 	2	Febrero	2023-02-16T00:00:00	2024-11-08T07:00:00	1	Precipitación	0
177200	7	Sololá	716	San Marcos la Laguna 	11	San Marcos la laguna 	2	Febrero	2023-02-16T00:00:00	2024-11-08T07:00:00	8	Radiación solar	5
177201	7	Sololá	716	San Marcos la Laguna 	11	San Marcos la laguna 	2	Febrero	2023-02-16T00:00:00	2024-11-08T08:00:00	2	Temperatura media	17.3
177202	7	Sololá	716	San Marcos la Laguna 	11	San Marcos la laguna 	2	Febrero	2023-02-16T00:00:00	2024-11-08T08:00:00	4	Temperatura máxima	17.3
177203	7	Sololá	716	San Marcos la Laguna 	11	San Marcos la laguna 	2	Febrero	2023-02-16T00:00:00	2024-11-08T08:00:00	3	Temperatura mínima	13.5
177204	7	Sololá	716	San Marcos la Laguna 	11	San Marcos la laguna 	2	Febrero	2023-02-16T00:00:00	2024-11-08T08:00:00	5	Humedad	76
177205	7	Sololá	716	San Marcos la Laguna 	11	San Marcos la laguna 	2	Febrero	2023-02-16T00:00:00	2024-11-08T08:00:00	6	Velocidad del viento	3.2
177206	7	Sololá	716	San Marcos la Laguna 	11	San Marcos la laguna 	2	Febrero	2023-02-16T00:00:00	2024-11-08T08:00:00	7	Dirección del viento	3.22
177207	7	Sololá	716	San Marcos la Laguna 	11	San Marcos la laguna 	2	Febrero	2023-02-16T00:00:00	2024-11-08T08:00:00	1	Precipitación	0
177208	7	Sololá	716	San Marcos la Laguna 	11	San Marcos la laguna 	2	Febrero	2023-02-16T00:00:00	2024-11-08T08:00:00	8	Radiación solar	150
177209	7	Sololá	716	San Marcos la Laguna 	11	San Marcos la laguna 	2	Febrero	2023-02-16T00:00:00	2024-11-08T09:00:00	2	Temperatura media	18.2
177210	7	Sololá	716	San Marcos la Laguna 	11	San Marcos la laguna 	2	Febrero	2023-02-16T00:00:00	2024-11-08T09:00:00	4	Temperatura máxima	18.3
177211	7	Sololá	716	San Marcos la Laguna 	11	San Marcos la laguna 	2	Febrero	2023-02-16T00:00:00	2024-11-08T09:00:00	3	Temperatura mínima	17.3
177212	7	Sololá	716	San Marcos la Laguna 	11	San Marcos la laguna 	2	Febrero	2023-02-16T00:00:00	2024-11-08T09:00:00	5	Humedad	72
177213	7	Sololá	716	San Marcos la Laguna 	11	San Marcos la laguna 	2	Febrero	2023-02-16T00:00:00	2024-11-08T09:00:00	6	Velocidad del viento	4.8
177214	7	Sololá	716	San Marcos la Laguna 	11	San Marcos la laguna 	2	Febrero	2023-02-16T00:00:00	2024-11-08T09:00:00	7	Dirección del viento	4.83
177215	7	Sololá	716	San Marcos la Laguna 	11	San Marcos la laguna 	2	Febrero	2023-02-16T00:00:00	2024-11-08T09:00:00	1	Precipitación	0
177216	7	Sololá	716	San Marcos la Laguna 	11	San Marcos la laguna 	2	Febrero	2023-02-16T00:00:00	2024-11-08T09:00:00	8	Radiación solar	356
177217	7	Sololá	716	San Marcos la Laguna 	11	San Marcos la laguna 	2	Febrero	2023-02-16T00:00:00	2024-11-08T10:00:00	2	Temperatura media	19.1
177218	7	Sololá	716	San Marcos la Laguna 	11	San Marcos la laguna 	2	Febrero	2023-02-16T00:00:00	2024-11-08T10:00:00	4	Temperatura máxima	19.2
177219	7	Sololá	716	San Marcos la Laguna 	11	San Marcos la laguna 	2	Febrero	2023-02-16T00:00:00	2024-11-08T10:00:00	3	Temperatura mínima	18.2
177220	7	Sololá	716	San Marcos la Laguna 	11	San Marcos la laguna 	2	Febrero	2023-02-16T00:00:00	2024-11-08T10:00:00	5	Humedad	70
177221	7	Sololá	716	San Marcos la Laguna 	11	San Marcos la laguna 	2	Febrero	2023-02-16T00:00:00	2024-11-08T10:00:00	6	Velocidad del viento	6.4
177222	7	Sololá	716	San Marcos la Laguna 	11	San Marcos la laguna 	2	Febrero	2023-02-16T00:00:00	2024-11-08T10:00:00	7	Dirección del viento	6.44
177223	7	Sololá	716	San Marcos la Laguna 	11	San Marcos la laguna 	2	Febrero	2023-02-16T00:00:00	2024-11-08T10:00:00	1	Precipitación	0
177224	7	Sololá	716	San Marcos la Laguna 	11	San Marcos la laguna 	2	Febrero	2023-02-16T00:00:00	2024-11-08T10:00:00	8	Radiación solar	564
177225	7	Sololá	716	San Marcos la Laguna 	11	San Marcos la laguna 	2	Febrero	2023-02-16T00:00:00	2024-11-08T11:00:00	2	Temperatura media	19.6
177226	7	Sololá	716	San Marcos la Laguna 	11	San Marcos la laguna 	2	Febrero	2023-02-16T00:00:00	2024-11-08T11:00:00	4	Temperatura máxima	19.7
177227	7	Sololá	716	San Marcos la Laguna 	11	San Marcos la laguna 	2	Febrero	2023-02-16T00:00:00	2024-11-08T11:00:00	3	Temperatura mínima	18.8
177228	7	Sololá	716	San Marcos la Laguna 	11	San Marcos la laguna 	2	Febrero	2023-02-16T00:00:00	2024-11-08T11:00:00	5	Humedad	70
177229	7	Sololá	716	San Marcos la Laguna 	11	San Marcos la laguna 	2	Febrero	2023-02-16T00:00:00	2024-11-08T11:00:00	6	Velocidad del viento	8
177230	7	Sololá	716	San Marcos la Laguna 	11	San Marcos la laguna 	2	Febrero	2023-02-16T00:00:00	2024-11-08T11:00:00	7	Dirección del viento	8.05
177231	7	Sololá	716	San Marcos la Laguna 	11	San Marcos la laguna 	2	Febrero	2023-02-16T00:00:00	2024-11-08T11:00:00	1	Precipitación	0
177232	7	Sololá	716	San Marcos la Laguna 	11	San Marcos la laguna 	2	Febrero	2023-02-16T00:00:00	2024-11-08T11:00:00	8	Radiación solar	740
177233	7	Sololá	716	San Marcos la Laguna 	11	San Marcos la laguna 	2	Febrero	2023-02-16T00:00:00	2024-11-08T12:00:00	2	Temperatura media	20.1
177234	7	Sololá	716	San Marcos la Laguna 	11	San Marcos la laguna 	2	Febrero	2023-02-16T00:00:00	2024-11-08T12:00:00	4	Temperatura máxima	20.1
177235	7	Sololá	716	San Marcos la Laguna 	11	San Marcos la laguna 	2	Febrero	2023-02-16T00:00:00	2024-11-08T12:00:00	3	Temperatura mínima	19.5
177236	7	Sololá	716	San Marcos la Laguna 	11	San Marcos la laguna 	2	Febrero	2023-02-16T00:00:00	2024-11-08T12:00:00	5	Humedad	73
177237	7	Sololá	716	San Marcos la Laguna 	11	San Marcos la laguna 	2	Febrero	2023-02-16T00:00:00	2024-11-08T12:00:00	6	Velocidad del viento	11.3
177238	7	Sololá	716	San Marcos la Laguna 	11	San Marcos la laguna 	2	Febrero	2023-02-16T00:00:00	2024-11-08T12:00:00	7	Dirección del viento	11.27
177239	7	Sololá	716	San Marcos la Laguna 	11	San Marcos la laguna 	2	Febrero	2023-02-16T00:00:00	2024-11-08T12:00:00	1	Precipitación	0
177240	7	Sololá	716	San Marcos la Laguna 	11	San Marcos la laguna 	2	Febrero	2023-02-16T00:00:00	2024-11-08T12:00:00	8	Radiación solar	738
177241	7	Sololá	716	San Marcos la Laguna 	11	San Marcos la laguna 	2	Febrero	2023-02-16T00:00:00	2024-11-08T13:00:00	2	Temperatura media	20.7
177242	7	Sololá	716	San Marcos la Laguna 	11	San Marcos la laguna 	2	Febrero	2023-02-16T00:00:00	2024-11-08T13:00:00	4	Temperatura máxima	20.7
177243	7	Sololá	716	San Marcos la Laguna 	11	San Marcos la laguna 	2	Febrero	2023-02-16T00:00:00	2024-11-08T13:00:00	3	Temperatura mínima	19.9
177244	7	Sololá	716	San Marcos la Laguna 	11	San Marcos la laguna 	2	Febrero	2023-02-16T00:00:00	2024-11-08T13:00:00	5	Humedad	74
177245	7	Sololá	716	San Marcos la Laguna 	11	San Marcos la laguna 	2	Febrero	2023-02-16T00:00:00	2024-11-08T13:00:00	6	Velocidad del viento	12.9
177246	7	Sololá	716	San Marcos la Laguna 	11	San Marcos la laguna 	2	Febrero	2023-02-16T00:00:00	2024-11-08T13:00:00	7	Dirección del viento	12.87
177247	7	Sololá	716	San Marcos la Laguna 	11	San Marcos la laguna 	2	Febrero	2023-02-16T00:00:00	2024-11-08T13:00:00	1	Precipitación	0
177248	7	Sololá	716	San Marcos la Laguna 	11	San Marcos la laguna 	2	Febrero	2023-02-16T00:00:00	2024-11-08T13:00:00	8	Radiación solar	661
177249	7	Sololá	716	San Marcos la Laguna 	11	San Marcos la laguna 	2	Febrero	2023-02-16T00:00:00	2024-11-08T14:00:00	2	Temperatura media	20.2
177250	7	Sololá	716	San Marcos la Laguna 	11	San Marcos la laguna 	2	Febrero	2023-02-16T00:00:00	2024-11-08T14:00:00	4	Temperatura máxima	20.8
177251	7	Sololá	716	San Marcos la Laguna 	11	San Marcos la laguna 	2	Febrero	2023-02-16T00:00:00	2024-11-08T14:00:00	3	Temperatura mínima	20
177252	7	Sololá	716	San Marcos la Laguna 	11	San Marcos la laguna 	2	Febrero	2023-02-16T00:00:00	2024-11-08T14:00:00	5	Humedad	74
177253	7	Sololá	716	San Marcos la Laguna 	11	San Marcos la laguna 	2	Febrero	2023-02-16T00:00:00	2024-11-08T14:00:00	6	Velocidad del viento	14.5
177254	7	Sololá	716	San Marcos la Laguna 	11	San Marcos la laguna 	2	Febrero	2023-02-16T00:00:00	2024-11-08T14:00:00	7	Dirección del viento	14.48
177255	7	Sololá	716	San Marcos la Laguna 	11	San Marcos la laguna 	2	Febrero	2023-02-16T00:00:00	2024-11-08T14:00:00	1	Precipitación	0
177256	7	Sololá	716	San Marcos la Laguna 	11	San Marcos la laguna 	2	Febrero	2023-02-16T00:00:00	2024-11-08T14:00:00	8	Radiación solar	279
177257	7	Sololá	716	San Marcos la Laguna 	11	San Marcos la laguna 	2	Febrero	2023-02-16T00:00:00	2024-11-08T15:00:00	2	Temperatura media	20.1
177258	7	Sololá	716	San Marcos la Laguna 	11	San Marcos la laguna 	2	Febrero	2023-02-16T00:00:00	2024-11-08T15:00:00	4	Temperatura máxima	20.6
177259	7	Sololá	716	San Marcos la Laguna 	11	San Marcos la laguna 	2	Febrero	2023-02-16T00:00:00	2024-11-08T15:00:00	3	Temperatura mínima	19.9
177260	7	Sololá	716	San Marcos la Laguna 	11	San Marcos la laguna 	2	Febrero	2023-02-16T00:00:00	2024-11-08T15:00:00	5	Humedad	78
177261	7	Sololá	716	San Marcos la Laguna 	11	San Marcos la laguna 	2	Febrero	2023-02-16T00:00:00	2024-11-08T15:00:00	6	Velocidad del viento	12.9
177262	7	Sololá	716	San Marcos la Laguna 	11	San Marcos la laguna 	2	Febrero	2023-02-16T00:00:00	2024-11-08T15:00:00	7	Dirección del viento	12.87
177263	7	Sololá	716	San Marcos la Laguna 	11	San Marcos la laguna 	2	Febrero	2023-02-16T00:00:00	2024-11-08T15:00:00	1	Precipitación	0
177264	7	Sololá	716	San Marcos la Laguna 	11	San Marcos la laguna 	2	Febrero	2023-02-16T00:00:00	2024-11-08T15:00:00	8	Radiación solar	230
177265	7	Sololá	716	San Marcos la Laguna 	11	San Marcos la laguna 	2	Febrero	2023-02-16T00:00:00	2024-11-08T16:00:00	2	Temperatura media	19.9
177266	7	Sololá	716	San Marcos la Laguna 	11	San Marcos la laguna 	2	Febrero	2023-02-16T00:00:00	2024-11-08T16:00:00	4	Temperatura máxima	20.2
177267	7	Sololá	716	San Marcos la Laguna 	11	San Marcos la laguna 	2	Febrero	2023-02-16T00:00:00	2024-11-08T16:00:00	3	Temperatura mínima	19.8
177268	7	Sololá	716	San Marcos la Laguna 	11	San Marcos la laguna 	2	Febrero	2023-02-16T00:00:00	2024-11-08T16:00:00	5	Humedad	77
177269	7	Sololá	716	San Marcos la Laguna 	11	San Marcos la laguna 	2	Febrero	2023-02-16T00:00:00	2024-11-08T16:00:00	6	Velocidad del viento	9.7
177270	7	Sololá	716	San Marcos la Laguna 	11	San Marcos la laguna 	2	Febrero	2023-02-16T00:00:00	2024-11-08T16:00:00	7	Dirección del viento	9.66
177271	7	Sololá	716	San Marcos la Laguna 	11	San Marcos la laguna 	2	Febrero	2023-02-16T00:00:00	2024-11-08T16:00:00	1	Precipitación	0
177272	7	Sololá	716	San Marcos la Laguna 	11	San Marcos la laguna 	2	Febrero	2023-02-16T00:00:00	2024-11-08T16:00:00	8	Radiación solar	352
177273	7	Sololá	716	San Marcos la Laguna 	11	San Marcos la laguna 	2	Febrero	2023-02-16T00:00:00	2024-11-08T17:00:00	2	Temperatura media	19.9
177274	7	Sololá	716	San Marcos la Laguna 	11	San Marcos la laguna 	2	Febrero	2023-02-16T00:00:00	2024-11-08T17:00:00	4	Temperatura máxima	19.9
177275	7	Sololá	716	San Marcos la Laguna 	11	San Marcos la laguna 	2	Febrero	2023-02-16T00:00:00	2024-11-08T17:00:00	3	Temperatura mínima	19.7
177276	7	Sololá	716	San Marcos la Laguna 	11	San Marcos la laguna 	2	Febrero	2023-02-16T00:00:00	2024-11-08T17:00:00	5	Humedad	77
177277	7	Sololá	716	San Marcos la Laguna 	11	San Marcos la laguna 	2	Febrero	2023-02-16T00:00:00	2024-11-08T17:00:00	6	Velocidad del viento	6.4
177278	7	Sololá	716	San Marcos la Laguna 	11	San Marcos la laguna 	2	Febrero	2023-02-16T00:00:00	2024-11-08T17:00:00	7	Dirección del viento	6.44
177279	7	Sololá	716	San Marcos la Laguna 	11	San Marcos la laguna 	2	Febrero	2023-02-16T00:00:00	2024-11-08T17:00:00	1	Precipitación	0
177280	7	Sololá	716	San Marcos la Laguna 	11	San Marcos la laguna 	2	Febrero	2023-02-16T00:00:00	2024-11-08T17:00:00	8	Radiación solar	38
177281	7	Sololá	716	San Marcos la Laguna 	11	San Marcos la laguna 	2	Febrero	2023-02-16T00:00:00	2024-11-08T18:00:00	2	Temperatura media	19.1
177282	7	Sololá	716	San Marcos la Laguna 	11	San Marcos la laguna 	2	Febrero	2023-02-16T00:00:00	2024-11-08T18:00:00	4	Temperatura máxima	19.9
177283	7	Sololá	716	San Marcos la Laguna 	11	San Marcos la laguna 	2	Febrero	2023-02-16T00:00:00	2024-11-08T18:00:00	3	Temperatura mínima	19.1
177284	7	Sololá	716	San Marcos la Laguna 	11	San Marcos la laguna 	2	Febrero	2023-02-16T00:00:00	2024-11-08T18:00:00	5	Humedad	83
177285	7	Sololá	716	San Marcos la Laguna 	11	San Marcos la laguna 	2	Febrero	2023-02-16T00:00:00	2024-11-08T18:00:00	6	Velocidad del viento	6.4
177286	7	Sololá	716	San Marcos la Laguna 	11	San Marcos la laguna 	2	Febrero	2023-02-16T00:00:00	2024-11-08T18:00:00	7	Dirección del viento	6.44
177287	7	Sololá	716	San Marcos la Laguna 	11	San Marcos la laguna 	2	Febrero	2023-02-16T00:00:00	2024-11-08T18:00:00	1	Precipitación	0
177288	7	Sololá	716	San Marcos la Laguna 	11	San Marcos la laguna 	2	Febrero	2023-02-16T00:00:00	2024-11-08T18:00:00	8	Radiación solar	2
177289	7	Sololá	716	San Marcos la Laguna 	11	San Marcos la laguna 	2	Febrero	2023-02-16T00:00:00	2024-11-08T19:00:00	2	Temperatura media	18.9
177290	7	Sololá	716	San Marcos la Laguna 	11	San Marcos la laguna 	2	Febrero	2023-02-16T00:00:00	2024-11-08T19:00:00	4	Temperatura máxima	19.2
177291	7	Sololá	716	San Marcos la Laguna 	11	San Marcos la laguna 	2	Febrero	2023-02-16T00:00:00	2024-11-08T19:00:00	3	Temperatura mínima	18.8
177292	7	Sololá	716	San Marcos la Laguna 	11	San Marcos la laguna 	2	Febrero	2023-02-16T00:00:00	2024-11-08T19:00:00	5	Humedad	83
177293	7	Sololá	716	San Marcos la Laguna 	11	San Marcos la laguna 	2	Febrero	2023-02-16T00:00:00	2024-11-08T19:00:00	6	Velocidad del viento	6.4
177294	7	Sololá	716	San Marcos la Laguna 	11	San Marcos la laguna 	2	Febrero	2023-02-16T00:00:00	2024-11-08T19:00:00	7	Dirección del viento	6.44
177295	7	Sololá	716	San Marcos la Laguna 	11	San Marcos la laguna 	2	Febrero	2023-02-16T00:00:00	2024-11-08T19:00:00	1	Precipitación	0
177296	7	Sololá	716	San Marcos la Laguna 	11	San Marcos la laguna 	2	Febrero	2023-02-16T00:00:00	2024-11-08T19:00:00	8	Radiación solar	0
177297	7	Sololá	716	San Marcos la Laguna 	11	San Marcos la laguna 	2	Febrero	2023-02-16T00:00:00	2024-11-08T20:00:00	2	Temperatura media	17.9
177298	7	Sololá	716	San Marcos la Laguna 	11	San Marcos la laguna 	2	Febrero	2023-02-16T00:00:00	2024-11-08T20:00:00	4	Temperatura máxima	18.9
177299	7	Sololá	716	San Marcos la Laguna 	11	San Marcos la laguna 	2	Febrero	2023-02-16T00:00:00	2024-11-08T20:00:00	3	Temperatura mínima	17.9
177300	7	Sololá	716	San Marcos la Laguna 	11	San Marcos la laguna 	2	Febrero	2023-02-16T00:00:00	2024-11-08T20:00:00	5	Humedad	78
177301	7	Sololá	716	San Marcos la Laguna 	11	San Marcos la laguna 	2	Febrero	2023-02-16T00:00:00	2024-11-08T20:00:00	6	Velocidad del viento	4.8
177302	7	Sololá	716	San Marcos la Laguna 	11	San Marcos la laguna 	2	Febrero	2023-02-16T00:00:00	2024-11-08T20:00:00	7	Dirección del viento	4.83
177303	7	Sololá	716	San Marcos la Laguna 	11	San Marcos la laguna 	2	Febrero	2023-02-16T00:00:00	2024-11-08T20:00:00	1	Precipitación	0
177304	7	Sololá	716	San Marcos la Laguna 	11	San Marcos la laguna 	2	Febrero	2023-02-16T00:00:00	2024-11-08T20:00:00	8	Radiación solar	0
177305	7	Sololá	716	San Marcos la Laguna 	11	San Marcos la laguna 	2	Febrero	2023-02-16T00:00:00	2024-11-08T21:00:00	2	Temperatura media	16.8
177306	7	Sololá	716	San Marcos la Laguna 	11	San Marcos la laguna 	2	Febrero	2023-02-16T00:00:00	2024-11-08T21:00:00	4	Temperatura máxima	17.9
177307	7	Sololá	716	San Marcos la Laguna 	11	San Marcos la laguna 	2	Febrero	2023-02-16T00:00:00	2024-11-08T21:00:00	3	Temperatura mínima	16.8
177308	7	Sololá	716	San Marcos la Laguna 	11	San Marcos la laguna 	2	Febrero	2023-02-16T00:00:00	2024-11-08T21:00:00	5	Humedad	82
177309	7	Sololá	716	San Marcos la Laguna 	11	San Marcos la laguna 	2	Febrero	2023-02-16T00:00:00	2024-11-08T21:00:00	6	Velocidad del viento	8
177310	7	Sololá	716	San Marcos la Laguna 	11	San Marcos la laguna 	2	Febrero	2023-02-16T00:00:00	2024-11-08T21:00:00	7	Dirección del viento	8.05
177311	7	Sololá	716	San Marcos la Laguna 	11	San Marcos la laguna 	2	Febrero	2023-02-16T00:00:00	2024-11-08T21:00:00	1	Precipitación	0
177312	7	Sololá	716	San Marcos la Laguna 	11	San Marcos la laguna 	2	Febrero	2023-02-16T00:00:00	2024-11-08T21:00:00	8	Radiación solar	0
177313	7	Sololá	716	San Marcos la Laguna 	11	San Marcos la laguna 	2	Febrero	2023-02-16T00:00:00	2024-11-08T22:00:00	2	Temperatura media	16.1
177314	7	Sololá	716	San Marcos la Laguna 	11	San Marcos la laguna 	2	Febrero	2023-02-16T00:00:00	2024-11-08T22:00:00	4	Temperatura máxima	16.8
177315	7	Sololá	716	San Marcos la Laguna 	11	San Marcos la laguna 	2	Febrero	2023-02-16T00:00:00	2024-11-08T22:00:00	3	Temperatura mínima	16.1
177316	7	Sololá	716	San Marcos la Laguna 	11	San Marcos la laguna 	2	Febrero	2023-02-16T00:00:00	2024-11-08T22:00:00	5	Humedad	85
177317	7	Sololá	716	San Marcos la Laguna 	11	San Marcos la laguna 	2	Febrero	2023-02-16T00:00:00	2024-11-08T22:00:00	6	Velocidad del viento	6.4
177318	7	Sololá	716	San Marcos la Laguna 	11	San Marcos la laguna 	2	Febrero	2023-02-16T00:00:00	2024-11-08T22:00:00	7	Dirección del viento	6.44
177319	7	Sololá	716	San Marcos la Laguna 	11	San Marcos la laguna 	2	Febrero	2023-02-16T00:00:00	2024-11-08T22:00:00	1	Precipitación	0
177320	7	Sololá	716	San Marcos la Laguna 	11	San Marcos la laguna 	2	Febrero	2023-02-16T00:00:00	2024-11-08T22:00:00	8	Radiación solar	0
177321	7	Sololá	716	San Marcos la Laguna 	11	San Marcos la laguna 	2	Febrero	2023-02-16T00:00:00	2024-11-08T23:00:00	2	Temperatura media	15.2
177322	7	Sololá	716	San Marcos la Laguna 	11	San Marcos la laguna 	2	Febrero	2023-02-16T00:00:00	2024-11-08T23:00:00	4	Temperatura máxima	16.1
177323	7	Sololá	716	San Marcos la Laguna 	11	San Marcos la laguna 	2	Febrero	2023-02-16T00:00:00	2024-11-08T23:00:00	3	Temperatura mínima	15.2
177324	7	Sololá	716	San Marcos la Laguna 	11	San Marcos la laguna 	2	Febrero	2023-02-16T00:00:00	2024-11-08T23:00:00	5	Humedad	87
177325	7	Sololá	716	San Marcos la Laguna 	11	San Marcos la laguna 	2	Febrero	2023-02-16T00:00:00	2024-11-08T23:00:00	6	Velocidad del viento	4.8
177326	7	Sololá	716	San Marcos la Laguna 	11	San Marcos la laguna 	2	Febrero	2023-02-16T00:00:00	2024-11-08T23:00:00	7	Dirección del viento	4.83
177327	7	Sololá	716	San Marcos la Laguna 	11	San Marcos la laguna 	2	Febrero	2023-02-16T00:00:00	2024-11-08T23:00:00	1	Precipitación	0
177328	7	Sololá	716	San Marcos la Laguna 	11	San Marcos la laguna 	2	Febrero	2023-02-16T00:00:00	2024-11-08T23:00:00	8	Radiación solar	0
177329	7	Sololá	716	San Marcos la Laguna 	11	San Marcos la laguna 	2	Febrero	2023-02-17T00:00:00	2024-11-08T00:00:00	2	Temperatura media	14.9
177330	7	Sololá	716	San Marcos la Laguna 	11	San Marcos la laguna 	2	Febrero	2023-02-17T00:00:00	2024-11-08T00:00:00	4	Temperatura máxima	15.3
177331	7	Sololá	716	San Marcos la Laguna 	11	San Marcos la laguna 	2	Febrero	2023-02-17T00:00:00	2024-11-08T00:00:00	3	Temperatura mínima	14.8
177332	7	Sololá	716	San Marcos la Laguna 	11	San Marcos la laguna 	2	Febrero	2023-02-17T00:00:00	2024-11-08T00:00:00	5	Humedad	85
177333	7	Sololá	716	San Marcos la Laguna 	11	San Marcos la laguna 	2	Febrero	2023-02-17T00:00:00	2024-11-08T00:00:00	6	Velocidad del viento	6.4
177334	7	Sololá	716	San Marcos la Laguna 	11	San Marcos la laguna 	2	Febrero	2023-02-17T00:00:00	2024-11-08T00:00:00	7	Dirección del viento	6.44
177335	7	Sololá	716	San Marcos la Laguna 	11	San Marcos la laguna 	2	Febrero	2023-02-17T00:00:00	2024-11-08T00:00:00	1	Precipitación	0
177336	7	Sololá	716	San Marcos la Laguna 	11	San Marcos la laguna 	2	Febrero	2023-02-17T00:00:00	2024-11-08T00:00:00	8	Radiación solar	0
177337	7	Sololá	716	San Marcos la Laguna 	11	San Marcos la laguna 	2	Febrero	2023-02-17T00:00:00	2024-11-08T01:00:00	2	Temperatura media	14.4
177338	7	Sololá	716	San Marcos la Laguna 	11	San Marcos la laguna 	2	Febrero	2023-02-17T00:00:00	2024-11-08T01:00:00	4	Temperatura máxima	14.8
177339	7	Sololá	716	San Marcos la Laguna 	11	San Marcos la laguna 	2	Febrero	2023-02-17T00:00:00	2024-11-08T01:00:00	3	Temperatura mínima	14.4
177340	7	Sololá	716	San Marcos la Laguna 	11	San Marcos la laguna 	2	Febrero	2023-02-17T00:00:00	2024-11-08T01:00:00	5	Humedad	85
177341	7	Sololá	716	San Marcos la Laguna 	11	San Marcos la laguna 	2	Febrero	2023-02-17T00:00:00	2024-11-08T01:00:00	6	Velocidad del viento	6.4
177342	7	Sololá	716	San Marcos la Laguna 	11	San Marcos la laguna 	2	Febrero	2023-02-17T00:00:00	2024-11-08T01:00:00	7	Dirección del viento	6.44
177343	7	Sololá	716	San Marcos la Laguna 	11	San Marcos la laguna 	2	Febrero	2023-02-17T00:00:00	2024-11-08T01:00:00	1	Precipitación	0
177344	7	Sololá	716	San Marcos la Laguna 	11	San Marcos la laguna 	2	Febrero	2023-02-17T00:00:00	2024-11-08T01:00:00	8	Radiación solar	0
177345	7	Sololá	716	San Marcos la Laguna 	11	San Marcos la laguna 	2	Febrero	2023-02-17T00:00:00	2024-11-08T02:00:00	2	Temperatura media	15.9
177346	7	Sololá	716	San Marcos la Laguna 	11	San Marcos la laguna 	2	Febrero	2023-02-17T00:00:00	2024-11-08T02:00:00	4	Temperatura máxima	15.9
177347	7	Sololá	716	San Marcos la Laguna 	11	San Marcos la laguna 	2	Febrero	2023-02-17T00:00:00	2024-11-08T02:00:00	3	Temperatura mínima	14.4
177348	7	Sololá	716	San Marcos la Laguna 	11	San Marcos la laguna 	2	Febrero	2023-02-17T00:00:00	2024-11-08T02:00:00	5	Humedad	76
177349	7	Sololá	716	San Marcos la Laguna 	11	San Marcos la laguna 	2	Febrero	2023-02-17T00:00:00	2024-11-08T02:00:00	6	Velocidad del viento	6.4
177350	7	Sololá	716	San Marcos la Laguna 	11	San Marcos la laguna 	2	Febrero	2023-02-17T00:00:00	2024-11-08T02:00:00	7	Dirección del viento	6.44
177351	7	Sololá	716	San Marcos la Laguna 	11	San Marcos la laguna 	2	Febrero	2023-02-17T00:00:00	2024-11-08T02:00:00	1	Precipitación	0
177352	7	Sololá	716	San Marcos la Laguna 	11	San Marcos la laguna 	2	Febrero	2023-02-17T00:00:00	2024-11-08T02:00:00	8	Radiación solar	0
177353	7	Sololá	716	San Marcos la Laguna 	11	San Marcos la laguna 	2	Febrero	2023-02-17T00:00:00	2024-11-08T03:00:00	2	Temperatura media	16.3
177354	7	Sololá	716	San Marcos la Laguna 	11	San Marcos la laguna 	2	Febrero	2023-02-17T00:00:00	2024-11-08T03:00:00	4	Temperatura máxima	16.3
177355	7	Sololá	716	San Marcos la Laguna 	11	San Marcos la laguna 	2	Febrero	2023-02-17T00:00:00	2024-11-08T03:00:00	3	Temperatura mínima	15.8
177356	7	Sololá	716	San Marcos la Laguna 	11	San Marcos la laguna 	2	Febrero	2023-02-17T00:00:00	2024-11-08T03:00:00	5	Humedad	73
177357	7	Sololá	716	San Marcos la Laguna 	11	San Marcos la laguna 	2	Febrero	2023-02-17T00:00:00	2024-11-08T03:00:00	6	Velocidad del viento	8
177358	7	Sololá	716	San Marcos la Laguna 	11	San Marcos la laguna 	2	Febrero	2023-02-17T00:00:00	2024-11-08T03:00:00	7	Dirección del viento	8.05
177359	7	Sololá	716	San Marcos la Laguna 	11	San Marcos la laguna 	2	Febrero	2023-02-17T00:00:00	2024-11-08T03:00:00	1	Precipitación	0
177360	7	Sololá	716	San Marcos la Laguna 	11	San Marcos la laguna 	2	Febrero	2023-02-17T00:00:00	2024-11-08T03:00:00	8	Radiación solar	0
177361	7	Sololá	716	San Marcos la Laguna 	11	San Marcos la laguna 	2	Febrero	2023-02-17T00:00:00	2024-11-08T04:00:00	2	Temperatura media	15.7
177362	7	Sololá	716	San Marcos la Laguna 	11	San Marcos la laguna 	2	Febrero	2023-02-17T00:00:00	2024-11-08T04:00:00	4	Temperatura máxima	16.4
177363	7	Sololá	716	San Marcos la Laguna 	11	San Marcos la laguna 	2	Febrero	2023-02-17T00:00:00	2024-11-08T04:00:00	3	Temperatura mínima	15.7
177364	7	Sololá	716	San Marcos la Laguna 	11	San Marcos la laguna 	2	Febrero	2023-02-17T00:00:00	2024-11-08T04:00:00	5	Humedad	73
177365	7	Sololá	716	San Marcos la Laguna 	11	San Marcos la laguna 	2	Febrero	2023-02-17T00:00:00	2024-11-08T04:00:00	6	Velocidad del viento	6.4
177366	7	Sololá	716	San Marcos la Laguna 	11	San Marcos la laguna 	2	Febrero	2023-02-17T00:00:00	2024-11-08T04:00:00	7	Dirección del viento	6.44
177367	7	Sololá	716	San Marcos la Laguna 	11	San Marcos la laguna 	2	Febrero	2023-02-17T00:00:00	2024-11-08T04:00:00	1	Precipitación	0
177368	7	Sololá	716	San Marcos la Laguna 	11	San Marcos la laguna 	2	Febrero	2023-02-17T00:00:00	2024-11-08T04:00:00	8	Radiación solar	0
177369	7	Sololá	716	San Marcos la Laguna 	11	San Marcos la laguna 	2	Febrero	2023-02-17T00:00:00	2024-11-08T05:00:00	2	Temperatura media	14.8
177370	7	Sololá	716	San Marcos la Laguna 	11	San Marcos la laguna 	2	Febrero	2023-02-17T00:00:00	2024-11-08T05:00:00	4	Temperatura máxima	15.7
177371	7	Sololá	716	San Marcos la Laguna 	11	San Marcos la laguna 	2	Febrero	2023-02-17T00:00:00	2024-11-08T05:00:00	3	Temperatura mínima	14.8
177372	7	Sololá	716	San Marcos la Laguna 	11	San Marcos la laguna 	2	Febrero	2023-02-17T00:00:00	2024-11-08T05:00:00	5	Humedad	74
177373	7	Sololá	716	San Marcos la Laguna 	11	San Marcos la laguna 	2	Febrero	2023-02-17T00:00:00	2024-11-08T05:00:00	6	Velocidad del viento	6.4
177374	7	Sololá	716	San Marcos la Laguna 	11	San Marcos la laguna 	2	Febrero	2023-02-17T00:00:00	2024-11-08T05:00:00	7	Dirección del viento	6.44
177375	7	Sololá	716	San Marcos la Laguna 	11	San Marcos la laguna 	2	Febrero	2023-02-17T00:00:00	2024-11-08T05:00:00	1	Precipitación	0
177376	7	Sololá	716	San Marcos la Laguna 	11	San Marcos la laguna 	2	Febrero	2023-02-17T00:00:00	2024-11-08T05:00:00	8	Radiación solar	0
177377	7	Sololá	716	San Marcos la Laguna 	11	San Marcos la laguna 	2	Febrero	2023-02-17T00:00:00	2024-11-08T06:00:00	2	Temperatura media	14.4
177378	7	Sololá	716	San Marcos la Laguna 	11	San Marcos la laguna 	2	Febrero	2023-02-17T00:00:00	2024-11-08T06:00:00	4	Temperatura máxima	15.1
177379	7	Sololá	716	San Marcos la Laguna 	11	San Marcos la laguna 	2	Febrero	2023-02-17T00:00:00	2024-11-08T06:00:00	3	Temperatura mínima	14.4
177380	7	Sololá	716	San Marcos la Laguna 	11	San Marcos la laguna 	2	Febrero	2023-02-17T00:00:00	2024-11-08T06:00:00	5	Humedad	77
177381	7	Sololá	716	San Marcos la Laguna 	11	San Marcos la laguna 	2	Febrero	2023-02-17T00:00:00	2024-11-08T06:00:00	6	Velocidad del viento	8
177382	7	Sololá	716	San Marcos la Laguna 	11	San Marcos la laguna 	2	Febrero	2023-02-17T00:00:00	2024-11-08T06:00:00	7	Dirección del viento	8.05
177383	7	Sololá	716	San Marcos la Laguna 	11	San Marcos la laguna 	2	Febrero	2023-02-17T00:00:00	2024-11-08T06:00:00	1	Precipitación	0
177384	7	Sololá	716	San Marcos la Laguna 	11	San Marcos la laguna 	2	Febrero	2023-02-17T00:00:00	2024-11-08T06:00:00	8	Radiación solar	0
177385	7	Sololá	716	San Marcos la Laguna 	11	San Marcos la laguna 	2	Febrero	2023-02-17T00:00:00	2024-11-08T07:00:00	2	Temperatura media	13.5
177386	7	Sololá	716	San Marcos la Laguna 	11	San Marcos la laguna 	2	Febrero	2023-02-17T00:00:00	2024-11-08T07:00:00	4	Temperatura máxima	14.6
177387	7	Sololá	716	San Marcos la Laguna 	11	San Marcos la laguna 	2	Febrero	2023-02-17T00:00:00	2024-11-08T07:00:00	3	Temperatura mínima	13.4
177388	7	Sololá	716	San Marcos la Laguna 	11	San Marcos la laguna 	2	Febrero	2023-02-17T00:00:00	2024-11-08T07:00:00	5	Humedad	81
177389	7	Sololá	716	San Marcos la Laguna 	11	San Marcos la laguna 	2	Febrero	2023-02-17T00:00:00	2024-11-08T07:00:00	6	Velocidad del viento	8
177390	7	Sololá	716	San Marcos la Laguna 	11	San Marcos la laguna 	2	Febrero	2023-02-17T00:00:00	2024-11-08T07:00:00	7	Dirección del viento	8.05
177391	7	Sololá	716	San Marcos la Laguna 	11	San Marcos la laguna 	2	Febrero	2023-02-17T00:00:00	2024-11-08T07:00:00	1	Precipitación	0
177392	7	Sololá	716	San Marcos la Laguna 	11	San Marcos la laguna 	2	Febrero	2023-02-17T00:00:00	2024-11-08T07:00:00	8	Radiación solar	6
177393	7	Sololá	716	San Marcos la Laguna 	11	San Marcos la laguna 	2	Febrero	2023-02-17T00:00:00	2024-11-08T08:00:00	2	Temperatura media	16.5
177394	7	Sololá	716	San Marcos la Laguna 	11	San Marcos la laguna 	2	Febrero	2023-02-17T00:00:00	2024-11-08T08:00:00	4	Temperatura máxima	16.5
177395	7	Sololá	716	San Marcos la Laguna 	11	San Marcos la laguna 	2	Febrero	2023-02-17T00:00:00	2024-11-08T08:00:00	3	Temperatura mínima	13.5
177396	7	Sololá	716	San Marcos la Laguna 	11	San Marcos la laguna 	2	Febrero	2023-02-17T00:00:00	2024-11-08T08:00:00	5	Humedad	81
177397	7	Sololá	716	San Marcos la Laguna 	11	San Marcos la laguna 	2	Febrero	2023-02-17T00:00:00	2024-11-08T08:00:00	6	Velocidad del viento	4.8
177398	7	Sololá	716	San Marcos la Laguna 	11	San Marcos la laguna 	2	Febrero	2023-02-17T00:00:00	2024-11-08T08:00:00	7	Dirección del viento	4.83
177399	7	Sololá	716	San Marcos la Laguna 	11	San Marcos la laguna 	2	Febrero	2023-02-17T00:00:00	2024-11-08T08:00:00	1	Precipitación	0
177400	7	Sololá	716	San Marcos la Laguna 	11	San Marcos la laguna 	2	Febrero	2023-02-17T00:00:00	2024-11-08T08:00:00	8	Radiación solar	146
177401	7	Sololá	716	San Marcos la Laguna 	11	San Marcos la laguna 	2	Febrero	2023-02-17T00:00:00	2024-11-08T09:00:00	2	Temperatura media	19.1
177402	7	Sololá	716	San Marcos la Laguna 	11	San Marcos la laguna 	2	Febrero	2023-02-17T00:00:00	2024-11-08T09:00:00	4	Temperatura máxima	19.1
177403	7	Sololá	716	San Marcos la Laguna 	11	San Marcos la laguna 	2	Febrero	2023-02-17T00:00:00	2024-11-08T09:00:00	3	Temperatura mínima	16.5
177404	7	Sololá	716	San Marcos la Laguna 	11	San Marcos la laguna 	2	Febrero	2023-02-17T00:00:00	2024-11-08T09:00:00	5	Humedad	75
177405	7	Sololá	716	San Marcos la Laguna 	11	San Marcos la laguna 	2	Febrero	2023-02-17T00:00:00	2024-11-08T09:00:00	6	Velocidad del viento	3.2
177406	7	Sololá	716	San Marcos la Laguna 	11	San Marcos la laguna 	2	Febrero	2023-02-17T00:00:00	2024-11-08T09:00:00	7	Dirección del viento	3.22
177407	7	Sololá	716	San Marcos la Laguna 	11	San Marcos la laguna 	2	Febrero	2023-02-17T00:00:00	2024-11-08T09:00:00	1	Precipitación	0
177408	7	Sololá	716	San Marcos la Laguna 	11	San Marcos la laguna 	2	Febrero	2023-02-17T00:00:00	2024-11-08T09:00:00	8	Radiación solar	365
177409	7	Sololá	716	San Marcos la Laguna 	11	San Marcos la laguna 	2	Febrero	2023-02-17T00:00:00	2024-11-08T10:00:00	2	Temperatura media	20.7
177410	7	Sololá	716	San Marcos la Laguna 	11	San Marcos la laguna 	2	Febrero	2023-02-17T00:00:00	2024-11-08T10:00:00	4	Temperatura máxima	20.7
177411	7	Sololá	716	San Marcos la Laguna 	11	San Marcos la laguna 	2	Febrero	2023-02-17T00:00:00	2024-11-08T10:00:00	3	Temperatura mínima	19.1
177412	7	Sololá	716	San Marcos la Laguna 	11	San Marcos la laguna 	2	Febrero	2023-02-17T00:00:00	2024-11-08T10:00:00	5	Humedad	63
177413	7	Sololá	716	San Marcos la Laguna 	11	San Marcos la laguna 	2	Febrero	2023-02-17T00:00:00	2024-11-08T10:00:00	6	Velocidad del viento	3.2
177414	7	Sololá	716	San Marcos la Laguna 	11	San Marcos la laguna 	2	Febrero	2023-02-17T00:00:00	2024-11-08T10:00:00	7	Dirección del viento	3.22
177415	7	Sololá	716	San Marcos la Laguna 	11	San Marcos la laguna 	2	Febrero	2023-02-17T00:00:00	2024-11-08T10:00:00	1	Precipitación	0
177416	7	Sololá	716	San Marcos la Laguna 	11	San Marcos la laguna 	2	Febrero	2023-02-17T00:00:00	2024-11-08T10:00:00	8	Radiación solar	569
177417	7	Sololá	716	San Marcos la Laguna 	11	San Marcos la laguna 	2	Febrero	2023-02-17T00:00:00	2024-11-08T11:00:00	2	Temperatura media	21.1
177418	7	Sololá	716	San Marcos la Laguna 	11	San Marcos la laguna 	2	Febrero	2023-02-17T00:00:00	2024-11-08T11:00:00	4	Temperatura máxima	21.2
177419	7	Sololá	716	San Marcos la Laguna 	11	San Marcos la laguna 	2	Febrero	2023-02-17T00:00:00	2024-11-08T11:00:00	3	Temperatura mínima	20.7
177420	7	Sololá	716	San Marcos la Laguna 	11	San Marcos la laguna 	2	Febrero	2023-02-17T00:00:00	2024-11-08T11:00:00	5	Humedad	61
177421	7	Sololá	716	San Marcos la Laguna 	11	San Marcos la laguna 	2	Febrero	2023-02-17T00:00:00	2024-11-08T11:00:00	6	Velocidad del viento	3.2
177422	7	Sololá	716	San Marcos la Laguna 	11	San Marcos la laguna 	2	Febrero	2023-02-17T00:00:00	2024-11-08T11:00:00	7	Dirección del viento	3.22
177423	7	Sololá	716	San Marcos la Laguna 	11	San Marcos la laguna 	2	Febrero	2023-02-17T00:00:00	2024-11-08T11:00:00	1	Precipitación	0
177424	7	Sololá	716	San Marcos la Laguna 	11	San Marcos la laguna 	2	Febrero	2023-02-17T00:00:00	2024-11-08T11:00:00	8	Radiación solar	746
177425	7	Sololá	716	San Marcos la Laguna 	11	San Marcos la laguna 	2	Febrero	2023-02-17T00:00:00	2024-11-08T12:00:00	2	Temperatura media	23
177426	7	Sololá	716	San Marcos la Laguna 	11	San Marcos la laguna 	2	Febrero	2023-02-17T00:00:00	2024-11-08T12:00:00	4	Temperatura máxima	23
177427	7	Sololá	716	San Marcos la Laguna 	11	San Marcos la laguna 	2	Febrero	2023-02-17T00:00:00	2024-11-08T12:00:00	3	Temperatura mínima	21.1
177428	7	Sololá	716	San Marcos la Laguna 	11	San Marcos la laguna 	2	Febrero	2023-02-17T00:00:00	2024-11-08T12:00:00	5	Humedad	55
177429	7	Sololá	716	San Marcos la Laguna 	11	San Marcos la laguna 	2	Febrero	2023-02-17T00:00:00	2024-11-08T12:00:00	6	Velocidad del viento	3.2
177430	7	Sololá	716	San Marcos la Laguna 	11	San Marcos la laguna 	2	Febrero	2023-02-17T00:00:00	2024-11-08T12:00:00	7	Dirección del viento	3.22
177431	7	Sololá	716	San Marcos la Laguna 	11	San Marcos la laguna 	2	Febrero	2023-02-17T00:00:00	2024-11-08T12:00:00	1	Precipitación	0
177432	7	Sololá	716	San Marcos la Laguna 	11	San Marcos la laguna 	2	Febrero	2023-02-17T00:00:00	2024-11-08T12:00:00	8	Radiación solar	771
177433	7	Sololá	716	San Marcos la Laguna 	11	San Marcos la laguna 	2	Febrero	2023-02-17T00:00:00	2024-11-08T13:00:00	2	Temperatura media	24.6
177434	7	Sololá	716	San Marcos la Laguna 	11	San Marcos la laguna 	2	Febrero	2023-02-17T00:00:00	2024-11-08T13:00:00	4	Temperatura máxima	25
177435	7	Sololá	716	San Marcos la Laguna 	11	San Marcos la laguna 	2	Febrero	2023-02-17T00:00:00	2024-11-08T13:00:00	3	Temperatura mínima	23
177436	7	Sololá	716	San Marcos la Laguna 	11	San Marcos la laguna 	2	Febrero	2023-02-17T00:00:00	2024-11-08T13:00:00	5	Humedad	42
177437	7	Sololá	716	San Marcos la Laguna 	11	San Marcos la laguna 	2	Febrero	2023-02-17T00:00:00	2024-11-08T13:00:00	6	Velocidad del viento	16.1
177438	7	Sololá	716	San Marcos la Laguna 	11	San Marcos la laguna 	2	Febrero	2023-02-17T00:00:00	2024-11-08T13:00:00	7	Dirección del viento	16.09
177439	7	Sololá	716	San Marcos la Laguna 	11	San Marcos la laguna 	2	Febrero	2023-02-17T00:00:00	2024-11-08T13:00:00	1	Precipitación	0
177440	7	Sololá	716	San Marcos la Laguna 	11	San Marcos la laguna 	2	Febrero	2023-02-17T00:00:00	2024-11-08T13:00:00	8	Radiación solar	673
177441	7	Sololá	716	San Marcos la Laguna 	11	San Marcos la laguna 	2	Febrero	2023-02-17T00:00:00	2024-11-08T14:00:00	2	Temperatura media	24.4
177442	7	Sololá	716	San Marcos la Laguna 	11	San Marcos la laguna 	2	Febrero	2023-02-17T00:00:00	2024-11-08T14:00:00	4	Temperatura máxima	25.2
177443	7	Sololá	716	San Marcos la Laguna 	11	San Marcos la laguna 	2	Febrero	2023-02-17T00:00:00	2024-11-08T14:00:00	3	Temperatura mínima	24.3
177444	7	Sololá	716	San Marcos la Laguna 	11	San Marcos la laguna 	2	Febrero	2023-02-17T00:00:00	2024-11-08T14:00:00	5	Humedad	42
177445	7	Sololá	716	San Marcos la Laguna 	11	San Marcos la laguna 	2	Febrero	2023-02-17T00:00:00	2024-11-08T14:00:00	6	Velocidad del viento	32.2
177446	7	Sololá	716	San Marcos la Laguna 	11	San Marcos la laguna 	2	Febrero	2023-02-17T00:00:00	2024-11-08T14:00:00	7	Dirección del viento	32.19
177447	7	Sololá	716	San Marcos la Laguna 	11	San Marcos la laguna 	2	Febrero	2023-02-17T00:00:00	2024-11-08T14:00:00	1	Precipitación	0
177448	7	Sololá	716	San Marcos la Laguna 	11	San Marcos la laguna 	2	Febrero	2023-02-17T00:00:00	2024-11-08T14:00:00	8	Radiación solar	472
177449	7	Sololá	716	San Marcos la Laguna 	11	San Marcos la laguna 	2	Febrero	2023-02-17T00:00:00	2024-11-08T15:00:00	2	Temperatura media	23.9
177450	7	Sololá	716	San Marcos la Laguna 	11	San Marcos la laguna 	2	Febrero	2023-02-17T00:00:00	2024-11-08T15:00:00	4	Temperatura máxima	24.4
177451	7	Sololá	716	San Marcos la Laguna 	11	San Marcos la laguna 	2	Febrero	2023-02-17T00:00:00	2024-11-08T15:00:00	3	Temperatura mínima	23.8
177452	7	Sololá	716	San Marcos la Laguna 	11	San Marcos la laguna 	2	Febrero	2023-02-17T00:00:00	2024-11-08T15:00:00	5	Humedad	39
177453	7	Sololá	716	San Marcos la Laguna 	11	San Marcos la laguna 	2	Febrero	2023-02-17T00:00:00	2024-11-08T15:00:00	6	Velocidad del viento	32.2
177454	7	Sololá	716	San Marcos la Laguna 	11	San Marcos la laguna 	2	Febrero	2023-02-17T00:00:00	2024-11-08T15:00:00	7	Dirección del viento	32.19
177455	7	Sololá	716	San Marcos la Laguna 	11	San Marcos la laguna 	2	Febrero	2023-02-17T00:00:00	2024-11-08T15:00:00	1	Precipitación	0
177456	7	Sololá	716	San Marcos la Laguna 	11	San Marcos la laguna 	2	Febrero	2023-02-17T00:00:00	2024-11-08T15:00:00	8	Radiación solar	682
177457	7	Sololá	716	San Marcos la Laguna 	11	San Marcos la laguna 	2	Febrero	2023-02-17T00:00:00	2024-11-08T16:00:00	2	Temperatura media	23.4
177458	7	Sololá	716	San Marcos la Laguna 	11	San Marcos la laguna 	2	Febrero	2023-02-17T00:00:00	2024-11-08T16:00:00	4	Temperatura máxima	24
177459	7	Sololá	716	San Marcos la Laguna 	11	San Marcos la laguna 	2	Febrero	2023-02-17T00:00:00	2024-11-08T16:00:00	3	Temperatura mínima	23.4
177460	7	Sololá	716	San Marcos la Laguna 	11	San Marcos la laguna 	2	Febrero	2023-02-17T00:00:00	2024-11-08T16:00:00	5	Humedad	44
177461	7	Sololá	716	San Marcos la Laguna 	11	San Marcos la laguna 	2	Febrero	2023-02-17T00:00:00	2024-11-08T16:00:00	6	Velocidad del viento	27.4
177462	7	Sololá	716	San Marcos la Laguna 	11	San Marcos la laguna 	2	Febrero	2023-02-17T00:00:00	2024-11-08T16:00:00	7	Dirección del viento	27.36
177463	7	Sololá	716	San Marcos la Laguna 	11	San Marcos la laguna 	2	Febrero	2023-02-17T00:00:00	2024-11-08T16:00:00	1	Precipitación	0
177464	7	Sololá	716	San Marcos la Laguna 	11	San Marcos la laguna 	2	Febrero	2023-02-17T00:00:00	2024-11-08T16:00:00	8	Radiación solar	505
177465	7	Sololá	716	San Marcos la Laguna 	11	San Marcos la laguna 	2	Febrero	2023-02-17T00:00:00	2024-11-08T17:00:00	2	Temperatura media	22.5
177466	7	Sololá	716	San Marcos la Laguna 	11	San Marcos la laguna 	2	Febrero	2023-02-17T00:00:00	2024-11-08T17:00:00	4	Temperatura máxima	23.6
177467	7	Sololá	716	San Marcos la Laguna 	11	San Marcos la laguna 	2	Febrero	2023-02-17T00:00:00	2024-11-08T17:00:00	3	Temperatura mínima	22.5
177468	7	Sololá	716	San Marcos la Laguna 	11	San Marcos la laguna 	2	Febrero	2023-02-17T00:00:00	2024-11-08T17:00:00	5	Humedad	46
177469	7	Sololá	716	San Marcos la Laguna 	11	San Marcos la laguna 	2	Febrero	2023-02-17T00:00:00	2024-11-08T17:00:00	6	Velocidad del viento	25.7
177470	7	Sololá	716	San Marcos la Laguna 	11	San Marcos la laguna 	2	Febrero	2023-02-17T00:00:00	2024-11-08T17:00:00	7	Dirección del viento	25.75
177471	7	Sololá	716	San Marcos la Laguna 	11	San Marcos la laguna 	2	Febrero	2023-02-17T00:00:00	2024-11-08T17:00:00	1	Precipitación	0
177472	7	Sololá	716	San Marcos la Laguna 	11	San Marcos la laguna 	2	Febrero	2023-02-17T00:00:00	2024-11-08T17:00:00	8	Radiación solar	313
177473	7	Sololá	716	San Marcos la Laguna 	11	San Marcos la laguna 	2	Febrero	2023-02-17T00:00:00	2024-11-08T18:00:00	2	Temperatura media	21
177474	7	Sololá	716	San Marcos la Laguna 	11	San Marcos la laguna 	2	Febrero	2023-02-17T00:00:00	2024-11-08T18:00:00	4	Temperatura máxima	22.5
177475	7	Sololá	716	San Marcos la Laguna 	11	San Marcos la laguna 	2	Febrero	2023-02-17T00:00:00	2024-11-08T18:00:00	3	Temperatura mínima	21
177476	7	Sololá	716	San Marcos la Laguna 	11	San Marcos la laguna 	2	Febrero	2023-02-17T00:00:00	2024-11-08T18:00:00	5	Humedad	53
177477	7	Sololá	716	San Marcos la Laguna 	11	San Marcos la laguna 	2	Febrero	2023-02-17T00:00:00	2024-11-08T18:00:00	6	Velocidad del viento	29
177478	7	Sololá	716	San Marcos la Laguna 	11	San Marcos la laguna 	2	Febrero	2023-02-17T00:00:00	2024-11-08T18:00:00	7	Dirección del viento	28.97
177479	7	Sololá	716	San Marcos la Laguna 	11	San Marcos la laguna 	2	Febrero	2023-02-17T00:00:00	2024-11-08T18:00:00	1	Precipitación	0
177480	7	Sololá	716	San Marcos la Laguna 	11	San Marcos la laguna 	2	Febrero	2023-02-17T00:00:00	2024-11-08T18:00:00	8	Radiación solar	49
177481	7	Sololá	716	San Marcos la Laguna 	11	San Marcos la laguna 	2	Febrero	2023-02-17T00:00:00	2024-11-08T19:00:00	2	Temperatura media	20.2
177482	7	Sololá	716	San Marcos la Laguna 	11	San Marcos la laguna 	2	Febrero	2023-02-17T00:00:00	2024-11-08T19:00:00	4	Temperatura máxima	20.9
177483	7	Sololá	716	San Marcos la Laguna 	11	San Marcos la laguna 	2	Febrero	2023-02-17T00:00:00	2024-11-08T19:00:00	3	Temperatura mínima	20.2
177484	7	Sololá	716	San Marcos la Laguna 	11	San Marcos la laguna 	2	Febrero	2023-02-17T00:00:00	2024-11-08T19:00:00	5	Humedad	56
177485	7	Sololá	716	San Marcos la Laguna 	11	San Marcos la laguna 	2	Febrero	2023-02-17T00:00:00	2024-11-08T19:00:00	6	Velocidad del viento	24.1
177486	7	Sololá	716	San Marcos la Laguna 	11	San Marcos la laguna 	2	Febrero	2023-02-17T00:00:00	2024-11-08T19:00:00	7	Dirección del viento	24.14
177487	7	Sololá	716	San Marcos la Laguna 	11	San Marcos la laguna 	2	Febrero	2023-02-17T00:00:00	2024-11-08T19:00:00	1	Precipitación	0
177488	7	Sololá	716	San Marcos la Laguna 	11	San Marcos la laguna 	2	Febrero	2023-02-17T00:00:00	2024-11-08T19:00:00	8	Radiación solar	0
177489	7	Sololá	716	San Marcos la Laguna 	11	San Marcos la laguna 	2	Febrero	2023-02-17T00:00:00	2024-11-08T20:00:00	2	Temperatura media	19.7
177490	7	Sololá	716	San Marcos la Laguna 	11	San Marcos la laguna 	2	Febrero	2023-02-17T00:00:00	2024-11-08T20:00:00	4	Temperatura máxima	20.4
177491	7	Sololá	716	San Marcos la Laguna 	11	San Marcos la laguna 	2	Febrero	2023-02-17T00:00:00	2024-11-08T20:00:00	3	Temperatura mínima	19.6
177492	7	Sololá	716	San Marcos la Laguna 	11	San Marcos la laguna 	2	Febrero	2023-02-17T00:00:00	2024-11-08T20:00:00	5	Humedad	58
177493	7	Sololá	716	San Marcos la Laguna 	11	San Marcos la laguna 	2	Febrero	2023-02-17T00:00:00	2024-11-08T20:00:00	6	Velocidad del viento	25.7
177494	7	Sololá	716	San Marcos la Laguna 	11	San Marcos la laguna 	2	Febrero	2023-02-17T00:00:00	2024-11-08T20:00:00	7	Dirección del viento	25.75
177495	7	Sololá	716	San Marcos la Laguna 	11	San Marcos la laguna 	2	Febrero	2023-02-17T00:00:00	2024-11-08T20:00:00	1	Precipitación	0
177496	7	Sololá	716	San Marcos la Laguna 	11	San Marcos la laguna 	2	Febrero	2023-02-17T00:00:00	2024-11-08T20:00:00	8	Radiación solar	0
177497	7	Sololá	716	San Marcos la Laguna 	11	San Marcos la laguna 	2	Febrero	2023-02-17T00:00:00	2024-11-08T21:00:00	2	Temperatura media	20.2
177498	7	Sololá	716	San Marcos la Laguna 	11	San Marcos la laguna 	2	Febrero	2023-02-17T00:00:00	2024-11-08T21:00:00	4	Temperatura máxima	20.2
177499	7	Sololá	716	San Marcos la Laguna 	11	San Marcos la laguna 	2	Febrero	2023-02-17T00:00:00	2024-11-08T21:00:00	3	Temperatura mínima	19.6
177500	7	Sololá	716	San Marcos la Laguna 	11	San Marcos la laguna 	2	Febrero	2023-02-17T00:00:00	2024-11-08T21:00:00	5	Humedad	52
177501	7	Sololá	716	San Marcos la Laguna 	11	San Marcos la laguna 	2	Febrero	2023-02-17T00:00:00	2024-11-08T21:00:00	6	Velocidad del viento	24.1
177502	7	Sololá	716	San Marcos la Laguna 	11	San Marcos la laguna 	2	Febrero	2023-02-17T00:00:00	2024-11-08T21:00:00	7	Dirección del viento	24.14
177503	7	Sololá	716	San Marcos la Laguna 	11	San Marcos la laguna 	2	Febrero	2023-02-17T00:00:00	2024-11-08T21:00:00	1	Precipitación	0
177504	7	Sololá	716	San Marcos la Laguna 	11	San Marcos la laguna 	2	Febrero	2023-02-17T00:00:00	2024-11-08T21:00:00	8	Radiación solar	0
177505	7	Sololá	716	San Marcos la Laguna 	11	San Marcos la laguna 	2	Febrero	2023-02-17T00:00:00	2024-11-08T22:00:00	2	Temperatura media	20.2
177506	7	Sololá	716	San Marcos la Laguna 	11	San Marcos la laguna 	2	Febrero	2023-02-17T00:00:00	2024-11-08T22:00:00	4	Temperatura máxima	20.4
177507	7	Sololá	716	San Marcos la Laguna 	11	San Marcos la laguna 	2	Febrero	2023-02-17T00:00:00	2024-11-08T22:00:00	3	Temperatura mínima	20.1
177508	7	Sololá	716	San Marcos la Laguna 	11	San Marcos la laguna 	2	Febrero	2023-02-17T00:00:00	2024-11-08T22:00:00	5	Humedad	58
177509	7	Sololá	716	San Marcos la Laguna 	11	San Marcos la laguna 	2	Febrero	2023-02-17T00:00:00	2024-11-08T22:00:00	6	Velocidad del viento	24.1
177510	7	Sololá	716	San Marcos la Laguna 	11	San Marcos la laguna 	2	Febrero	2023-02-17T00:00:00	2024-11-08T22:00:00	7	Dirección del viento	24.14
177511	7	Sololá	716	San Marcos la Laguna 	11	San Marcos la laguna 	2	Febrero	2023-02-17T00:00:00	2024-11-08T22:00:00	1	Precipitación	0
177512	7	Sololá	716	San Marcos la Laguna 	11	San Marcos la laguna 	2	Febrero	2023-02-17T00:00:00	2024-11-08T22:00:00	8	Radiación solar	0
177513	7	Sololá	716	San Marcos la Laguna 	11	San Marcos la laguna 	2	Febrero	2023-02-17T00:00:00	2024-11-08T23:00:00	2	Temperatura media	20.2
177514	7	Sololá	716	San Marcos la Laguna 	11	San Marcos la laguna 	2	Febrero	2023-02-17T00:00:00	2024-11-08T23:00:00	4	Temperatura máxima	20.3
177515	7	Sololá	716	San Marcos la Laguna 	11	San Marcos la laguna 	2	Febrero	2023-02-17T00:00:00	2024-11-08T23:00:00	3	Temperatura mínima	19.9
177516	7	Sololá	716	San Marcos la Laguna 	11	San Marcos la laguna 	2	Febrero	2023-02-17T00:00:00	2024-11-08T23:00:00	5	Humedad	63
177517	7	Sololá	716	San Marcos la Laguna 	11	San Marcos la laguna 	2	Febrero	2023-02-17T00:00:00	2024-11-08T23:00:00	6	Velocidad del viento	17.7
177518	7	Sololá	716	San Marcos la Laguna 	11	San Marcos la laguna 	2	Febrero	2023-02-17T00:00:00	2024-11-08T23:00:00	7	Dirección del viento	17.7
177519	7	Sololá	716	San Marcos la Laguna 	11	San Marcos la laguna 	2	Febrero	2023-02-17T00:00:00	2024-11-08T23:00:00	1	Precipitación	0
177520	7	Sololá	716	San Marcos la Laguna 	11	San Marcos la laguna 	2	Febrero	2023-02-17T00:00:00	2024-11-08T23:00:00	8	Radiación solar	0
177521	7	Sololá	716	San Marcos la Laguna 	11	San Marcos la laguna 	2	Febrero	2023-02-18T00:00:00	2024-11-08T00:00:00	2	Temperatura media	20.1
177522	7	Sololá	716	San Marcos la Laguna 	11	San Marcos la laguna 	2	Febrero	2023-02-18T00:00:00	2024-11-08T00:00:00	4	Temperatura máxima	20.3
177523	7	Sololá	716	San Marcos la Laguna 	11	San Marcos la laguna 	2	Febrero	2023-02-18T00:00:00	2024-11-08T00:00:00	3	Temperatura mínima	19.8
177524	7	Sololá	716	San Marcos la Laguna 	11	San Marcos la laguna 	2	Febrero	2023-02-18T00:00:00	2024-11-08T00:00:00	5	Humedad	61
177525	7	Sololá	716	San Marcos la Laguna 	11	San Marcos la laguna 	2	Febrero	2023-02-18T00:00:00	2024-11-08T00:00:00	6	Velocidad del viento	20.9
177526	7	Sololá	716	San Marcos la Laguna 	11	San Marcos la laguna 	2	Febrero	2023-02-18T00:00:00	2024-11-08T00:00:00	7	Dirección del viento	20.92
177527	7	Sololá	716	San Marcos la Laguna 	11	San Marcos la laguna 	2	Febrero	2023-02-18T00:00:00	2024-11-08T00:00:00	1	Precipitación	0
177528	7	Sololá	716	San Marcos la Laguna 	11	San Marcos la laguna 	2	Febrero	2023-02-18T00:00:00	2024-11-08T00:00:00	8	Radiación solar	0
177529	7	Sololá	716	San Marcos la Laguna 	11	San Marcos la laguna 	2	Febrero	2023-02-18T00:00:00	2024-11-08T01:00:00	2	Temperatura media	20.3
177530	7	Sololá	716	San Marcos la Laguna 	11	San Marcos la laguna 	2	Febrero	2023-02-18T00:00:00	2024-11-08T01:00:00	4	Temperatura máxima	20.3
177531	7	Sololá	716	San Marcos la Laguna 	11	San Marcos la laguna 	2	Febrero	2023-02-18T00:00:00	2024-11-08T01:00:00	3	Temperatura mínima	19.9
177532	7	Sololá	716	San Marcos la Laguna 	11	San Marcos la laguna 	2	Febrero	2023-02-18T00:00:00	2024-11-08T01:00:00	5	Humedad	63
177533	7	Sololá	716	San Marcos la Laguna 	11	San Marcos la laguna 	2	Febrero	2023-02-18T00:00:00	2024-11-08T01:00:00	6	Velocidad del viento	20.9
177534	7	Sololá	716	San Marcos la Laguna 	11	San Marcos la laguna 	2	Febrero	2023-02-18T00:00:00	2024-11-08T01:00:00	7	Dirección del viento	20.92
177535	7	Sololá	716	San Marcos la Laguna 	11	San Marcos la laguna 	2	Febrero	2023-02-18T00:00:00	2024-11-08T01:00:00	1	Precipitación	0
177536	7	Sololá	716	San Marcos la Laguna 	11	San Marcos la laguna 	2	Febrero	2023-02-18T00:00:00	2024-11-08T01:00:00	8	Radiación solar	0
177537	7	Sololá	716	San Marcos la Laguna 	11	San Marcos la laguna 	2	Febrero	2023-02-18T00:00:00	2024-11-08T02:00:00	2	Temperatura media	20.1
177538	7	Sololá	716	San Marcos la Laguna 	11	San Marcos la laguna 	2	Febrero	2023-02-18T00:00:00	2024-11-08T02:00:00	4	Temperatura máxima	20.2
177539	7	Sololá	716	San Marcos la Laguna 	11	San Marcos la laguna 	2	Febrero	2023-02-18T00:00:00	2024-11-08T02:00:00	3	Temperatura mínima	19.9
177540	7	Sololá	716	San Marcos la Laguna 	11	San Marcos la laguna 	2	Febrero	2023-02-18T00:00:00	2024-11-08T02:00:00	5	Humedad	62
177541	7	Sololá	716	San Marcos la Laguna 	11	San Marcos la laguna 	2	Febrero	2023-02-18T00:00:00	2024-11-08T02:00:00	6	Velocidad del viento	19.3
177542	7	Sololá	716	San Marcos la Laguna 	11	San Marcos la laguna 	2	Febrero	2023-02-18T00:00:00	2024-11-08T02:00:00	7	Dirección del viento	19.31
177543	7	Sololá	716	San Marcos la Laguna 	11	San Marcos la laguna 	2	Febrero	2023-02-18T00:00:00	2024-11-08T02:00:00	1	Precipitación	0
177544	7	Sololá	716	San Marcos la Laguna 	11	San Marcos la laguna 	2	Febrero	2023-02-18T00:00:00	2024-11-08T02:00:00	8	Radiación solar	0
177545	7	Sololá	716	San Marcos la Laguna 	11	San Marcos la laguna 	2	Febrero	2023-02-18T00:00:00	2024-11-08T03:00:00	2	Temperatura media	19.1
177546	7	Sololá	716	San Marcos la Laguna 	11	San Marcos la laguna 	2	Febrero	2023-02-18T00:00:00	2024-11-08T03:00:00	4	Temperatura máxima	20.3
177547	7	Sololá	716	San Marcos la Laguna 	11	San Marcos la laguna 	2	Febrero	2023-02-18T00:00:00	2024-11-08T03:00:00	3	Temperatura mínima	18.6
177548	7	Sololá	716	San Marcos la Laguna 	11	San Marcos la laguna 	2	Febrero	2023-02-18T00:00:00	2024-11-08T03:00:00	5	Humedad	65
177549	7	Sololá	716	San Marcos la Laguna 	11	San Marcos la laguna 	2	Febrero	2023-02-18T00:00:00	2024-11-08T03:00:00	6	Velocidad del viento	33.8
177550	7	Sololá	716	San Marcos la Laguna 	11	San Marcos la laguna 	2	Febrero	2023-02-18T00:00:00	2024-11-08T03:00:00	7	Dirección del viento	33.8
177551	7	Sololá	716	San Marcos la Laguna 	11	San Marcos la laguna 	2	Febrero	2023-02-18T00:00:00	2024-11-08T03:00:00	1	Precipitación	0
177552	7	Sololá	716	San Marcos la Laguna 	11	San Marcos la laguna 	2	Febrero	2023-02-18T00:00:00	2024-11-08T03:00:00	8	Radiación solar	0
177553	7	Sololá	716	San Marcos la Laguna 	11	San Marcos la laguna 	2	Febrero	2023-02-18T00:00:00	2024-11-08T04:00:00	2	Temperatura media	18.3
177554	7	Sololá	716	San Marcos la Laguna 	11	San Marcos la laguna 	2	Febrero	2023-02-18T00:00:00	2024-11-08T04:00:00	4	Temperatura máxima	19.2
177555	7	Sololá	716	San Marcos la Laguna 	11	San Marcos la laguna 	2	Febrero	2023-02-18T00:00:00	2024-11-08T04:00:00	3	Temperatura mínima	18.3
177556	7	Sololá	716	San Marcos la Laguna 	11	San Marcos la laguna 	2	Febrero	2023-02-18T00:00:00	2024-11-08T04:00:00	5	Humedad	61
177557	7	Sololá	716	San Marcos la Laguna 	11	San Marcos la laguna 	2	Febrero	2023-02-18T00:00:00	2024-11-08T04:00:00	6	Velocidad del viento	25.7
177558	7	Sololá	716	San Marcos la Laguna 	11	San Marcos la laguna 	2	Febrero	2023-02-18T00:00:00	2024-11-08T04:00:00	7	Dirección del viento	25.75
177559	7	Sololá	716	San Marcos la Laguna 	11	San Marcos la laguna 	2	Febrero	2023-02-18T00:00:00	2024-11-08T04:00:00	1	Precipitación	0
177560	7	Sololá	716	San Marcos la Laguna 	11	San Marcos la laguna 	2	Febrero	2023-02-18T00:00:00	2024-11-08T04:00:00	8	Radiación solar	0
177561	7	Sololá	716	San Marcos la Laguna 	11	San Marcos la laguna 	2	Febrero	2023-02-18T00:00:00	2024-11-08T05:00:00	2	Temperatura media	17.8
177562	7	Sololá	716	San Marcos la Laguna 	11	San Marcos la laguna 	2	Febrero	2023-02-18T00:00:00	2024-11-08T05:00:00	4	Temperatura máxima	18.3
177563	7	Sololá	716	San Marcos la Laguna 	11	San Marcos la laguna 	2	Febrero	2023-02-18T00:00:00	2024-11-08T05:00:00	3	Temperatura mínima	17.7
177564	7	Sololá	716	San Marcos la Laguna 	11	San Marcos la laguna 	2	Febrero	2023-02-18T00:00:00	2024-11-08T05:00:00	5	Humedad	59
177565	7	Sololá	716	San Marcos la Laguna 	11	San Marcos la laguna 	2	Febrero	2023-02-18T00:00:00	2024-11-08T05:00:00	6	Velocidad del viento	8
177566	7	Sololá	716	San Marcos la Laguna 	11	San Marcos la laguna 	2	Febrero	2023-02-18T00:00:00	2024-11-08T05:00:00	7	Dirección del viento	8.05
177567	7	Sololá	716	San Marcos la Laguna 	11	San Marcos la laguna 	2	Febrero	2023-02-18T00:00:00	2024-11-08T05:00:00	1	Precipitación	0
177568	7	Sololá	716	San Marcos la Laguna 	11	San Marcos la laguna 	2	Febrero	2023-02-18T00:00:00	2024-11-08T05:00:00	8	Radiación solar	0
177569	7	Sololá	716	San Marcos la Laguna 	11	San Marcos la laguna 	2	Febrero	2023-02-18T00:00:00	2024-11-08T06:00:00	2	Temperatura media	17.8
177570	7	Sololá	716	San Marcos la Laguna 	11	San Marcos la laguna 	2	Febrero	2023-02-18T00:00:00	2024-11-08T06:00:00	4	Temperatura máxima	18.6
177571	7	Sololá	716	San Marcos la Laguna 	11	San Marcos la laguna 	2	Febrero	2023-02-18T00:00:00	2024-11-08T06:00:00	3	Temperatura mínima	17.8
177572	7	Sololá	716	San Marcos la Laguna 	11	San Marcos la laguna 	2	Febrero	2023-02-18T00:00:00	2024-11-08T06:00:00	5	Humedad	58
177573	7	Sololá	716	San Marcos la Laguna 	11	San Marcos la laguna 	2	Febrero	2023-02-18T00:00:00	2024-11-08T06:00:00	6	Velocidad del viento	14.5
177574	7	Sololá	716	San Marcos la Laguna 	11	San Marcos la laguna 	2	Febrero	2023-02-18T00:00:00	2024-11-08T06:00:00	7	Dirección del viento	14.48
177575	7	Sololá	716	San Marcos la Laguna 	11	San Marcos la laguna 	2	Febrero	2023-02-18T00:00:00	2024-11-08T06:00:00	1	Precipitación	0
177576	7	Sololá	716	San Marcos la Laguna 	11	San Marcos la laguna 	2	Febrero	2023-02-18T00:00:00	2024-11-08T06:00:00	8	Radiación solar	0
177577	7	Sololá	716	San Marcos la Laguna 	11	San Marcos la laguna 	2	Febrero	2023-02-18T00:00:00	2024-11-08T07:00:00	2	Temperatura media	16.6
177578	7	Sololá	716	San Marcos la Laguna 	11	San Marcos la laguna 	2	Febrero	2023-02-18T00:00:00	2024-11-08T07:00:00	4	Temperatura máxima	17.9
177579	7	Sololá	716	San Marcos la Laguna 	11	San Marcos la laguna 	2	Febrero	2023-02-18T00:00:00	2024-11-08T07:00:00	3	Temperatura mínima	16.6
177580	7	Sololá	716	San Marcos la Laguna 	11	San Marcos la laguna 	2	Febrero	2023-02-18T00:00:00	2024-11-08T07:00:00	5	Humedad	62
177581	7	Sololá	716	San Marcos la Laguna 	11	San Marcos la laguna 	2	Febrero	2023-02-18T00:00:00	2024-11-08T07:00:00	6	Velocidad del viento	8
177582	7	Sololá	716	San Marcos la Laguna 	11	San Marcos la laguna 	2	Febrero	2023-02-18T00:00:00	2024-11-08T07:00:00	7	Dirección del viento	8.05
177583	7	Sololá	716	San Marcos la Laguna 	11	San Marcos la laguna 	2	Febrero	2023-02-18T00:00:00	2024-11-08T07:00:00	1	Precipitación	0
177584	7	Sololá	716	San Marcos la Laguna 	11	San Marcos la laguna 	2	Febrero	2023-02-18T00:00:00	2024-11-08T07:00:00	8	Radiación solar	5
177585	7	Sololá	716	San Marcos la Laguna 	11	San Marcos la laguna 	2	Febrero	2023-02-18T00:00:00	2024-11-08T08:00:00	2	Temperatura media	19.6
177586	7	Sololá	716	San Marcos la Laguna 	11	San Marcos la laguna 	2	Febrero	2023-02-18T00:00:00	2024-11-08T08:00:00	4	Temperatura máxima	19.7
177587	7	Sololá	716	San Marcos la Laguna 	11	San Marcos la laguna 	2	Febrero	2023-02-18T00:00:00	2024-11-08T08:00:00	3	Temperatura mínima	16.5
177588	7	Sololá	716	San Marcos la Laguna 	11	San Marcos la laguna 	2	Febrero	2023-02-18T00:00:00	2024-11-08T08:00:00	5	Humedad	57
177589	7	Sololá	716	San Marcos la Laguna 	11	San Marcos la laguna 	2	Febrero	2023-02-18T00:00:00	2024-11-08T08:00:00	6	Velocidad del viento	12.9
177590	7	Sololá	716	San Marcos la Laguna 	11	San Marcos la laguna 	2	Febrero	2023-02-18T00:00:00	2024-11-08T08:00:00	7	Dirección del viento	12.87
177591	7	Sololá	716	San Marcos la Laguna 	11	San Marcos la laguna 	2	Febrero	2023-02-18T00:00:00	2024-11-08T08:00:00	1	Precipitación	0
177592	7	Sololá	716	San Marcos la Laguna 	11	San Marcos la laguna 	2	Febrero	2023-02-18T00:00:00	2024-11-08T08:00:00	8	Radiación solar	130
177593	7	Sololá	716	San Marcos la Laguna 	11	San Marcos la laguna 	2	Febrero	2023-02-18T00:00:00	2024-11-08T09:00:00	2	Temperatura media	21
177594	7	Sololá	716	San Marcos la Laguna 	11	San Marcos la laguna 	2	Febrero	2023-02-18T00:00:00	2024-11-08T09:00:00	4	Temperatura máxima	21
177595	7	Sololá	716	San Marcos la Laguna 	11	San Marcos la laguna 	2	Febrero	2023-02-18T00:00:00	2024-11-08T09:00:00	3	Temperatura mínima	19.6
177596	7	Sololá	716	San Marcos la Laguna 	11	San Marcos la laguna 	2	Febrero	2023-02-18T00:00:00	2024-11-08T09:00:00	5	Humedad	53
177597	7	Sololá	716	San Marcos la Laguna 	11	San Marcos la laguna 	2	Febrero	2023-02-18T00:00:00	2024-11-08T09:00:00	6	Velocidad del viento	19.3
177598	7	Sololá	716	San Marcos la Laguna 	11	San Marcos la laguna 	2	Febrero	2023-02-18T00:00:00	2024-11-08T09:00:00	7	Dirección del viento	19.31
177599	7	Sololá	716	San Marcos la Laguna 	11	San Marcos la laguna 	2	Febrero	2023-02-18T00:00:00	2024-11-08T09:00:00	1	Precipitación	0
177600	7	Sololá	716	San Marcos la Laguna 	11	San Marcos la laguna 	2	Febrero	2023-02-18T00:00:00	2024-11-08T09:00:00	8	Radiación solar	365
177601	7	Sololá	716	San Marcos la Laguna 	11	San Marcos la laguna 	2	Febrero	2023-02-18T00:00:00	2024-11-08T10:00:00	2	Temperatura media	21.3
177602	7	Sololá	716	San Marcos la Laguna 	11	San Marcos la laguna 	2	Febrero	2023-02-18T00:00:00	2024-11-08T10:00:00	4	Temperatura máxima	21.7
177603	7	Sololá	716	San Marcos la Laguna 	11	San Marcos la laguna 	2	Febrero	2023-02-18T00:00:00	2024-11-08T10:00:00	3	Temperatura mínima	20.6
177604	7	Sololá	716	San Marcos la Laguna 	11	San Marcos la laguna 	2	Febrero	2023-02-18T00:00:00	2024-11-08T10:00:00	5	Humedad	55
177605	7	Sololá	716	San Marcos la Laguna 	11	San Marcos la laguna 	2	Febrero	2023-02-18T00:00:00	2024-11-08T10:00:00	6	Velocidad del viento	35.4
177606	7	Sololá	716	San Marcos la Laguna 	11	San Marcos la laguna 	2	Febrero	2023-02-18T00:00:00	2024-11-08T10:00:00	7	Dirección del viento	35.41
177607	7	Sololá	716	San Marcos la Laguna 	11	San Marcos la laguna 	2	Febrero	2023-02-18T00:00:00	2024-11-08T10:00:00	1	Precipitación	0
177608	7	Sololá	716	San Marcos la Laguna 	11	San Marcos la laguna 	2	Febrero	2023-02-18T00:00:00	2024-11-08T10:00:00	8	Radiación solar	569
177609	7	Sololá	716	San Marcos la Laguna 	11	San Marcos la laguna 	2	Febrero	2023-02-18T00:00:00	2024-11-08T11:00:00	2	Temperatura media	23.1
177610	7	Sololá	716	San Marcos la Laguna 	11	San Marcos la laguna 	2	Febrero	2023-02-18T00:00:00	2024-11-08T11:00:00	4	Temperatura máxima	23.3
177611	7	Sololá	716	San Marcos la Laguna 	11	San Marcos la laguna 	2	Febrero	2023-02-18T00:00:00	2024-11-08T11:00:00	3	Temperatura mínima	21.2
177612	7	Sololá	716	San Marcos la Laguna 	11	San Marcos la laguna 	2	Febrero	2023-02-18T00:00:00	2024-11-08T11:00:00	5	Humedad	47
177613	7	Sololá	716	San Marcos la Laguna 	11	San Marcos la laguna 	2	Febrero	2023-02-18T00:00:00	2024-11-08T11:00:00	6	Velocidad del viento	37
177614	7	Sololá	716	San Marcos la Laguna 	11	San Marcos la laguna 	2	Febrero	2023-02-18T00:00:00	2024-11-08T11:00:00	7	Dirección del viento	37.01
177615	7	Sololá	716	San Marcos la Laguna 	11	San Marcos la laguna 	2	Febrero	2023-02-18T00:00:00	2024-11-08T11:00:00	1	Precipitación	0
177616	7	Sololá	716	San Marcos la Laguna 	11	San Marcos la laguna 	2	Febrero	2023-02-18T00:00:00	2024-11-08T11:00:00	8	Radiación solar	725
177617	7	Sololá	716	San Marcos la Laguna 	11	San Marcos la laguna 	2	Febrero	2023-02-18T00:00:00	2024-11-08T12:00:00	2	Temperatura media	21.8
177618	7	Sololá	716	San Marcos la Laguna 	11	San Marcos la laguna 	2	Febrero	2023-02-18T00:00:00	2024-11-08T12:00:00	4	Temperatura máxima	23.4
177619	7	Sololá	716	San Marcos la Laguna 	11	San Marcos la laguna 	2	Febrero	2023-02-18T00:00:00	2024-11-08T12:00:00	3	Temperatura mínima	21.4
177620	7	Sololá	716	San Marcos la Laguna 	11	San Marcos la laguna 	2	Febrero	2023-02-18T00:00:00	2024-11-08T12:00:00	5	Humedad	57
177621	7	Sololá	716	San Marcos la Laguna 	11	San Marcos la laguna 	2	Febrero	2023-02-18T00:00:00	2024-11-08T12:00:00	6	Velocidad del viento	38.6
177622	7	Sololá	716	San Marcos la Laguna 	11	San Marcos la laguna 	2	Febrero	2023-02-18T00:00:00	2024-11-08T12:00:00	7	Dirección del viento	38.62
177623	7	Sololá	716	San Marcos la Laguna 	11	San Marcos la laguna 	2	Febrero	2023-02-18T00:00:00	2024-11-08T12:00:00	1	Precipitación	0
177624	7	Sololá	716	San Marcos la Laguna 	11	San Marcos la laguna 	2	Febrero	2023-02-18T00:00:00	2024-11-08T12:00:00	8	Radiación solar	747
177625	7	Sololá	716	San Marcos la Laguna 	11	San Marcos la laguna 	2	Febrero	2023-02-18T00:00:00	2024-11-08T13:00:00	2	Temperatura media	21.6
177626	7	Sololá	716	San Marcos la Laguna 	11	San Marcos la laguna 	2	Febrero	2023-02-18T00:00:00	2024-11-08T13:00:00	4	Temperatura máxima	22.2
177627	7	Sololá	716	San Marcos la Laguna 	11	San Marcos la laguna 	2	Febrero	2023-02-18T00:00:00	2024-11-08T13:00:00	3	Temperatura mínima	21.4
177628	7	Sololá	716	San Marcos la Laguna 	11	San Marcos la laguna 	2	Febrero	2023-02-18T00:00:00	2024-11-08T13:00:00	5	Humedad	54
177629	7	Sololá	716	San Marcos la Laguna 	11	San Marcos la laguna 	2	Febrero	2023-02-18T00:00:00	2024-11-08T13:00:00	6	Velocidad del viento	32.2
177630	7	Sololá	716	San Marcos la Laguna 	11	San Marcos la laguna 	2	Febrero	2023-02-18T00:00:00	2024-11-08T13:00:00	7	Dirección del viento	32.19
177631	7	Sololá	716	San Marcos la Laguna 	11	San Marcos la laguna 	2	Febrero	2023-02-18T00:00:00	2024-11-08T13:00:00	1	Precipitación	0
177632	7	Sololá	716	San Marcos la Laguna 	11	San Marcos la laguna 	2	Febrero	2023-02-18T00:00:00	2024-11-08T13:00:00	8	Radiación solar	905
177633	7	Sololá	716	San Marcos la Laguna 	11	San Marcos la laguna 	2	Febrero	2023-02-18T00:00:00	2024-11-08T14:00:00	2	Temperatura media	21.4
177634	7	Sololá	716	San Marcos la Laguna 	11	San Marcos la laguna 	2	Febrero	2023-02-18T00:00:00	2024-11-08T14:00:00	4	Temperatura máxima	21.9
177635	7	Sololá	716	San Marcos la Laguna 	11	San Marcos la laguna 	2	Febrero	2023-02-18T00:00:00	2024-11-08T14:00:00	3	Temperatura mínima	21.1
177636	7	Sololá	716	San Marcos la Laguna 	11	San Marcos la laguna 	2	Febrero	2023-02-18T00:00:00	2024-11-08T14:00:00	5	Humedad	57
177637	7	Sololá	716	San Marcos la Laguna 	11	San Marcos la laguna 	2	Febrero	2023-02-18T00:00:00	2024-11-08T14:00:00	6	Velocidad del viento	27.4
177638	7	Sololá	716	San Marcos la Laguna 	11	San Marcos la laguna 	2	Febrero	2023-02-18T00:00:00	2024-11-08T14:00:00	7	Dirección del viento	27.36
177639	7	Sololá	716	San Marcos la Laguna 	11	San Marcos la laguna 	2	Febrero	2023-02-18T00:00:00	2024-11-08T14:00:00	1	Precipitación	0
177640	7	Sololá	716	San Marcos la Laguna 	11	San Marcos la laguna 	2	Febrero	2023-02-18T00:00:00	2024-11-08T14:00:00	8	Radiación solar	878
177641	7	Sololá	716	San Marcos la Laguna 	11	San Marcos la laguna 	2	Febrero	2023-02-18T00:00:00	2024-11-08T15:00:00	2	Temperatura media	21.1
177642	7	Sololá	716	San Marcos la Laguna 	11	San Marcos la laguna 	2	Febrero	2023-02-18T00:00:00	2024-11-08T15:00:00	4	Temperatura máxima	21.5
177643	7	Sololá	716	San Marcos la Laguna 	11	San Marcos la laguna 	2	Febrero	2023-02-18T00:00:00	2024-11-08T15:00:00	3	Temperatura mínima	20.8
177644	7	Sololá	716	San Marcos la Laguna 	11	San Marcos la laguna 	2	Febrero	2023-02-18T00:00:00	2024-11-08T15:00:00	5	Humedad	61
177645	7	Sololá	716	San Marcos la Laguna 	11	San Marcos la laguna 	2	Febrero	2023-02-18T00:00:00	2024-11-08T15:00:00	6	Velocidad del viento	30.6
177646	7	Sololá	716	San Marcos la Laguna 	11	San Marcos la laguna 	2	Febrero	2023-02-18T00:00:00	2024-11-08T15:00:00	7	Dirección del viento	30.58
177647	7	Sololá	716	San Marcos la Laguna 	11	San Marcos la laguna 	2	Febrero	2023-02-18T00:00:00	2024-11-08T15:00:00	1	Precipitación	0
177648	7	Sololá	716	San Marcos la Laguna 	11	San Marcos la laguna 	2	Febrero	2023-02-18T00:00:00	2024-11-08T15:00:00	8	Radiación solar	600
177649	7	Sololá	716	San Marcos la Laguna 	11	San Marcos la laguna 	2	Febrero	2023-02-18T00:00:00	2024-11-08T16:00:00	2	Temperatura media	20.8
177650	7	Sololá	716	San Marcos la Laguna 	11	San Marcos la laguna 	2	Febrero	2023-02-18T00:00:00	2024-11-08T16:00:00	4	Temperatura máxima	21.2
177651	7	Sololá	716	San Marcos la Laguna 	11	San Marcos la laguna 	2	Febrero	2023-02-18T00:00:00	2024-11-08T16:00:00	3	Temperatura mínima	20.7
177652	7	Sololá	716	San Marcos la Laguna 	11	San Marcos la laguna 	2	Febrero	2023-02-18T00:00:00	2024-11-08T16:00:00	5	Humedad	57
177653	7	Sololá	716	San Marcos la Laguna 	11	San Marcos la laguna 	2	Febrero	2023-02-18T00:00:00	2024-11-08T16:00:00	6	Velocidad del viento	32.2
177654	7	Sololá	716	San Marcos la Laguna 	11	San Marcos la laguna 	2	Febrero	2023-02-18T00:00:00	2024-11-08T16:00:00	7	Dirección del viento	32.19
177655	7	Sololá	716	San Marcos la Laguna 	11	San Marcos la laguna 	2	Febrero	2023-02-18T00:00:00	2024-11-08T16:00:00	1	Precipitación	0
177656	7	Sololá	716	San Marcos la Laguna 	11	San Marcos la laguna 	2	Febrero	2023-02-18T00:00:00	2024-11-08T16:00:00	8	Radiación solar	467
177657	7	Sololá	716	San Marcos la Laguna 	11	San Marcos la laguna 	2	Febrero	2023-02-18T00:00:00	2024-11-08T17:00:00	2	Temperatura media	20
177658	7	Sololá	716	San Marcos la Laguna 	11	San Marcos la laguna 	2	Febrero	2023-02-18T00:00:00	2024-11-08T17:00:00	4	Temperatura máxima	21
177659	7	Sololá	716	San Marcos la Laguna 	11	San Marcos la laguna 	2	Febrero	2023-02-18T00:00:00	2024-11-08T17:00:00	3	Temperatura mínima	19.9
177660	7	Sololá	716	San Marcos la Laguna 	11	San Marcos la laguna 	2	Febrero	2023-02-18T00:00:00	2024-11-08T17:00:00	5	Humedad	58
177661	7	Sololá	716	San Marcos la Laguna 	11	San Marcos la laguna 	2	Febrero	2023-02-18T00:00:00	2024-11-08T17:00:00	6	Velocidad del viento	25.7
177662	7	Sololá	716	San Marcos la Laguna 	11	San Marcos la laguna 	2	Febrero	2023-02-18T00:00:00	2024-11-08T17:00:00	7	Dirección del viento	25.75
177663	7	Sololá	716	San Marcos la Laguna 	11	San Marcos la laguna 	2	Febrero	2023-02-18T00:00:00	2024-11-08T17:00:00	1	Precipitación	0
177664	7	Sololá	716	San Marcos la Laguna 	11	San Marcos la laguna 	2	Febrero	2023-02-18T00:00:00	2024-11-08T17:00:00	8	Radiación solar	163
177665	7	Sololá	716	San Marcos la Laguna 	11	San Marcos la laguna 	2	Febrero	2023-02-18T00:00:00	2024-11-08T18:00:00	2	Temperatura media	19.7
177666	7	Sololá	716	San Marcos la Laguna 	11	San Marcos la laguna 	2	Febrero	2023-02-18T00:00:00	2024-11-08T18:00:00	4	Temperatura máxima	20.7
177667	7	Sololá	716	San Marcos la Laguna 	11	San Marcos la laguna 	2	Febrero	2023-02-18T00:00:00	2024-11-08T18:00:00	3	Temperatura mínima	19.7
177668	7	Sololá	716	San Marcos la Laguna 	11	San Marcos la laguna 	2	Febrero	2023-02-18T00:00:00	2024-11-08T18:00:00	5	Humedad	53
177669	7	Sololá	716	San Marcos la Laguna 	11	San Marcos la laguna 	2	Febrero	2023-02-18T00:00:00	2024-11-08T18:00:00	6	Velocidad del viento	19.3
177670	7	Sololá	716	San Marcos la Laguna 	11	San Marcos la laguna 	2	Febrero	2023-02-18T00:00:00	2024-11-08T18:00:00	7	Dirección del viento	19.31
177671	7	Sololá	716	San Marcos la Laguna 	11	San Marcos la laguna 	2	Febrero	2023-02-18T00:00:00	2024-11-08T18:00:00	1	Precipitación	0
177672	7	Sololá	716	San Marcos la Laguna 	11	San Marcos la laguna 	2	Febrero	2023-02-18T00:00:00	2024-11-08T18:00:00	8	Radiación solar	22
177673	7	Sololá	716	San Marcos la Laguna 	11	San Marcos la laguna 	2	Febrero	2023-02-18T00:00:00	2024-11-08T19:00:00	2	Temperatura media	19.9
177674	7	Sololá	716	San Marcos la Laguna 	11	San Marcos la laguna 	2	Febrero	2023-02-18T00:00:00	2024-11-08T19:00:00	4	Temperatura máxima	20.1
177675	7	Sololá	716	San Marcos la Laguna 	11	San Marcos la laguna 	2	Febrero	2023-02-18T00:00:00	2024-11-08T19:00:00	3	Temperatura mínima	19.6
177676	7	Sololá	716	San Marcos la Laguna 	11	San Marcos la laguna 	2	Febrero	2023-02-18T00:00:00	2024-11-08T19:00:00	5	Humedad	48
177677	7	Sololá	716	San Marcos la Laguna 	11	San Marcos la laguna 	2	Febrero	2023-02-18T00:00:00	2024-11-08T19:00:00	6	Velocidad del viento	24.1
177678	7	Sololá	716	San Marcos la Laguna 	11	San Marcos la laguna 	2	Febrero	2023-02-18T00:00:00	2024-11-08T19:00:00	7	Dirección del viento	24.14
177679	7	Sololá	716	San Marcos la Laguna 	11	San Marcos la laguna 	2	Febrero	2023-02-18T00:00:00	2024-11-08T19:00:00	1	Precipitación	0
177680	7	Sololá	716	San Marcos la Laguna 	11	San Marcos la laguna 	2	Febrero	2023-02-18T00:00:00	2024-11-08T19:00:00	8	Radiación solar	0
177681	7	Sololá	716	San Marcos la Laguna 	11	San Marcos la laguna 	2	Febrero	2023-02-18T00:00:00	2024-11-08T20:00:00	2	Temperatura media	19.2
177682	7	Sololá	716	San Marcos la Laguna 	11	San Marcos la laguna 	2	Febrero	2023-02-18T00:00:00	2024-11-08T20:00:00	4	Temperatura máxima	19.9
177683	7	Sololá	716	San Marcos la Laguna 	11	San Marcos la laguna 	2	Febrero	2023-02-18T00:00:00	2024-11-08T20:00:00	3	Temperatura mínima	19.1
177684	7	Sololá	716	San Marcos la Laguna 	11	San Marcos la laguna 	2	Febrero	2023-02-18T00:00:00	2024-11-08T20:00:00	5	Humedad	54
177685	7	Sololá	716	San Marcos la Laguna 	11	San Marcos la laguna 	2	Febrero	2023-02-18T00:00:00	2024-11-08T20:00:00	6	Velocidad del viento	22.5
177686	7	Sololá	716	San Marcos la Laguna 	11	San Marcos la laguna 	2	Febrero	2023-02-18T00:00:00	2024-11-08T20:00:00	7	Dirección del viento	22.53
177687	7	Sololá	716	San Marcos la Laguna 	11	San Marcos la laguna 	2	Febrero	2023-02-18T00:00:00	2024-11-08T20:00:00	1	Precipitación	0
177688	7	Sololá	716	San Marcos la Laguna 	11	San Marcos la laguna 	2	Febrero	2023-02-18T00:00:00	2024-11-08T20:00:00	8	Radiación solar	0
177689	7	Sololá	716	San Marcos la Laguna 	11	San Marcos la laguna 	2	Febrero	2023-02-18T00:00:00	2024-11-08T21:00:00	2	Temperatura media	19.7
177690	7	Sololá	716	San Marcos la Laguna 	11	San Marcos la laguna 	2	Febrero	2023-02-18T00:00:00	2024-11-08T21:00:00	4	Temperatura máxima	20.2
177691	7	Sololá	716	San Marcos la Laguna 	11	San Marcos la laguna 	2	Febrero	2023-02-18T00:00:00	2024-11-08T21:00:00	3	Temperatura mínima	19.2
177692	7	Sololá	716	San Marcos la Laguna 	11	San Marcos la laguna 	2	Febrero	2023-02-18T00:00:00	2024-11-08T21:00:00	5	Humedad	53
177693	7	Sololá	716	San Marcos la Laguna 	11	San Marcos la laguna 	2	Febrero	2023-02-18T00:00:00	2024-11-08T21:00:00	6	Velocidad del viento	22.5
177694	7	Sololá	716	San Marcos la Laguna 	11	San Marcos la laguna 	2	Febrero	2023-02-18T00:00:00	2024-11-08T21:00:00	7	Dirección del viento	22.53
177695	7	Sololá	716	San Marcos la Laguna 	11	San Marcos la laguna 	2	Febrero	2023-02-18T00:00:00	2024-11-08T21:00:00	1	Precipitación	0
177696	7	Sololá	716	San Marcos la Laguna 	11	San Marcos la laguna 	2	Febrero	2023-02-18T00:00:00	2024-11-08T21:00:00	8	Radiación solar	0
177697	7	Sololá	716	San Marcos la Laguna 	11	San Marcos la laguna 	2	Febrero	2023-02-18T00:00:00	2024-11-08T22:00:00	2	Temperatura media	19.3
177698	7	Sololá	716	San Marcos la Laguna 	11	San Marcos la laguna 	2	Febrero	2023-02-18T00:00:00	2024-11-08T22:00:00	4	Temperatura máxima	19.9
177699	7	Sololá	716	San Marcos la Laguna 	11	San Marcos la laguna 	2	Febrero	2023-02-18T00:00:00	2024-11-08T22:00:00	3	Temperatura mínima	19.3
177700	7	Sololá	716	San Marcos la Laguna 	11	San Marcos la laguna 	2	Febrero	2023-02-18T00:00:00	2024-11-08T22:00:00	5	Humedad	63
177701	7	Sololá	716	San Marcos la Laguna 	11	San Marcos la laguna 	2	Febrero	2023-02-18T00:00:00	2024-11-08T22:00:00	6	Velocidad del viento	19.3
177702	7	Sololá	716	San Marcos la Laguna 	11	San Marcos la laguna 	2	Febrero	2023-02-18T00:00:00	2024-11-08T22:00:00	7	Dirección del viento	19.31
177703	7	Sololá	716	San Marcos la Laguna 	11	San Marcos la laguna 	2	Febrero	2023-02-18T00:00:00	2024-11-08T22:00:00	1	Precipitación	0
177704	7	Sololá	716	San Marcos la Laguna 	11	San Marcos la laguna 	2	Febrero	2023-02-18T00:00:00	2024-11-08T22:00:00	8	Radiación solar	0
177705	7	Sololá	716	San Marcos la Laguna 	11	San Marcos la laguna 	2	Febrero	2023-02-18T00:00:00	2024-11-08T23:00:00	2	Temperatura media	18.7
177706	7	Sololá	716	San Marcos la Laguna 	11	San Marcos la laguna 	2	Febrero	2023-02-18T00:00:00	2024-11-08T23:00:00	4	Temperatura máxima	19.3
177707	7	Sololá	716	San Marcos la Laguna 	11	San Marcos la laguna 	2	Febrero	2023-02-18T00:00:00	2024-11-08T23:00:00	3	Temperatura mínima	18.4
177708	7	Sololá	716	San Marcos la Laguna 	11	San Marcos la laguna 	2	Febrero	2023-02-18T00:00:00	2024-11-08T23:00:00	5	Humedad	61
177709	7	Sololá	716	San Marcos la Laguna 	11	San Marcos la laguna 	2	Febrero	2023-02-18T00:00:00	2024-11-08T23:00:00	6	Velocidad del viento	25.7
177710	7	Sololá	716	San Marcos la Laguna 	11	San Marcos la laguna 	2	Febrero	2023-02-18T00:00:00	2024-11-08T23:00:00	7	Dirección del viento	25.75
177711	7	Sololá	716	San Marcos la Laguna 	11	San Marcos la laguna 	2	Febrero	2023-02-18T00:00:00	2024-11-08T23:00:00	1	Precipitación	0
177712	7	Sololá	716	San Marcos la Laguna 	11	San Marcos la laguna 	2	Febrero	2023-02-18T00:00:00	2024-11-08T23:00:00	8	Radiación solar	0
177713	7	Sololá	716	San Marcos la Laguna 	11	San Marcos la laguna 	2	Febrero	2023-02-19T00:00:00	2024-11-08T00:00:00	2	Temperatura media	18.9
177714	7	Sololá	716	San Marcos la Laguna 	11	San Marcos la laguna 	2	Febrero	2023-02-19T00:00:00	2024-11-08T00:00:00	4	Temperatura máxima	19.1
177715	7	Sololá	716	San Marcos la Laguna 	11	San Marcos la laguna 	2	Febrero	2023-02-19T00:00:00	2024-11-08T00:00:00	3	Temperatura mínima	18.5
177716	7	Sololá	716	San Marcos la Laguna 	11	San Marcos la laguna 	2	Febrero	2023-02-19T00:00:00	2024-11-08T00:00:00	5	Humedad	59
177717	7	Sololá	716	San Marcos la Laguna 	11	San Marcos la laguna 	2	Febrero	2023-02-19T00:00:00	2024-11-08T00:00:00	6	Velocidad del viento	22.5
177718	7	Sololá	716	San Marcos la Laguna 	11	San Marcos la laguna 	2	Febrero	2023-02-19T00:00:00	2024-11-08T00:00:00	7	Dirección del viento	22.53
177719	7	Sololá	716	San Marcos la Laguna 	11	San Marcos la laguna 	2	Febrero	2023-02-19T00:00:00	2024-11-08T00:00:00	1	Precipitación	0
177720	7	Sololá	716	San Marcos la Laguna 	11	San Marcos la laguna 	2	Febrero	2023-02-19T00:00:00	2024-11-08T00:00:00	8	Radiación solar	0
177721	7	Sololá	716	San Marcos la Laguna 	11	San Marcos la laguna 	2	Febrero	2023-02-19T00:00:00	2024-11-08T01:00:00	2	Temperatura media	19.1
177722	7	Sololá	716	San Marcos la Laguna 	11	San Marcos la laguna 	2	Febrero	2023-02-19T00:00:00	2024-11-08T01:00:00	4	Temperatura máxima	19.4
177723	7	Sololá	716	San Marcos la Laguna 	11	San Marcos la laguna 	2	Febrero	2023-02-19T00:00:00	2024-11-08T01:00:00	3	Temperatura mínima	18.8
177724	7	Sololá	716	San Marcos la Laguna 	11	San Marcos la laguna 	2	Febrero	2023-02-19T00:00:00	2024-11-08T01:00:00	5	Humedad	61
177725	7	Sololá	716	San Marcos la Laguna 	11	San Marcos la laguna 	2	Febrero	2023-02-19T00:00:00	2024-11-08T01:00:00	6	Velocidad del viento	9.7
177726	7	Sololá	716	San Marcos la Laguna 	11	San Marcos la laguna 	2	Febrero	2023-02-19T00:00:00	2024-11-08T01:00:00	7	Dirección del viento	9.66
177727	7	Sololá	716	San Marcos la Laguna 	11	San Marcos la laguna 	2	Febrero	2023-02-19T00:00:00	2024-11-08T01:00:00	1	Precipitación	0
177728	7	Sololá	716	San Marcos la Laguna 	11	San Marcos la laguna 	2	Febrero	2023-02-19T00:00:00	2024-11-08T01:00:00	8	Radiación solar	0
177729	7	Sololá	716	San Marcos la Laguna 	11	San Marcos la laguna 	2	Febrero	2023-02-19T00:00:00	2024-11-08T02:00:00	2	Temperatura media	19.3
177730	7	Sololá	716	San Marcos la Laguna 	11	San Marcos la laguna 	2	Febrero	2023-02-19T00:00:00	2024-11-08T02:00:00	4	Temperatura máxima	19.3
177731	7	Sololá	716	San Marcos la Laguna 	11	San Marcos la laguna 	2	Febrero	2023-02-19T00:00:00	2024-11-08T02:00:00	3	Temperatura mínima	18.8
177732	7	Sololá	716	San Marcos la Laguna 	11	San Marcos la laguna 	2	Febrero	2023-02-19T00:00:00	2024-11-08T02:00:00	5	Humedad	59
177733	7	Sololá	716	San Marcos la Laguna 	11	San Marcos la laguna 	2	Febrero	2023-02-19T00:00:00	2024-11-08T02:00:00	6	Velocidad del viento	9.7
177734	7	Sololá	716	San Marcos la Laguna 	11	San Marcos la laguna 	2	Febrero	2023-02-19T00:00:00	2024-11-08T02:00:00	7	Dirección del viento	9.66
177735	7	Sololá	716	San Marcos la Laguna 	11	San Marcos la laguna 	2	Febrero	2023-02-19T00:00:00	2024-11-08T02:00:00	1	Precipitación	0
177736	7	Sololá	716	San Marcos la Laguna 	11	San Marcos la laguna 	2	Febrero	2023-02-19T00:00:00	2024-11-08T02:00:00	8	Radiación solar	0
177737	7	Sololá	716	San Marcos la Laguna 	11	San Marcos la laguna 	2	Febrero	2023-02-19T00:00:00	2024-11-08T03:00:00	2	Temperatura media	19.1
177738	7	Sololá	716	San Marcos la Laguna 	11	San Marcos la laguna 	2	Febrero	2023-02-19T00:00:00	2024-11-08T03:00:00	4	Temperatura máxima	19.6
177739	7	Sololá	716	San Marcos la Laguna 	11	San Marcos la laguna 	2	Febrero	2023-02-19T00:00:00	2024-11-08T03:00:00	3	Temperatura mínima	19.1
177740	7	Sololá	716	San Marcos la Laguna 	11	San Marcos la laguna 	2	Febrero	2023-02-19T00:00:00	2024-11-08T03:00:00	5	Humedad	58
177741	7	Sololá	716	San Marcos la Laguna 	11	San Marcos la laguna 	2	Febrero	2023-02-19T00:00:00	2024-11-08T03:00:00	6	Velocidad del viento	16.1
177742	7	Sololá	716	San Marcos la Laguna 	11	San Marcos la laguna 	2	Febrero	2023-02-19T00:00:00	2024-11-08T03:00:00	7	Dirección del viento	16.09
177743	7	Sololá	716	San Marcos la Laguna 	11	San Marcos la laguna 	2	Febrero	2023-02-19T00:00:00	2024-11-08T03:00:00	1	Precipitación	0
177744	7	Sololá	716	San Marcos la Laguna 	11	San Marcos la laguna 	2	Febrero	2023-02-19T00:00:00	2024-11-08T03:00:00	8	Radiación solar	0
177745	7	Sololá	716	San Marcos la Laguna 	11	San Marcos la laguna 	2	Febrero	2023-02-19T00:00:00	2024-11-08T04:00:00	2	Temperatura media	18.9
177746	7	Sololá	716	San Marcos la Laguna 	11	San Marcos la laguna 	2	Febrero	2023-02-19T00:00:00	2024-11-08T04:00:00	4	Temperatura máxima	19.2
177747	7	Sololá	716	San Marcos la Laguna 	11	San Marcos la laguna 	2	Febrero	2023-02-19T00:00:00	2024-11-08T04:00:00	3	Temperatura mínima	18.6
177748	7	Sololá	716	San Marcos la Laguna 	11	San Marcos la laguna 	2	Febrero	2023-02-19T00:00:00	2024-11-08T04:00:00	5	Humedad	57
177749	7	Sololá	716	San Marcos la Laguna 	11	San Marcos la laguna 	2	Febrero	2023-02-19T00:00:00	2024-11-08T04:00:00	6	Velocidad del viento	20.9
177750	7	Sololá	716	San Marcos la Laguna 	11	San Marcos la laguna 	2	Febrero	2023-02-19T00:00:00	2024-11-08T04:00:00	7	Dirección del viento	20.92
177751	7	Sololá	716	San Marcos la Laguna 	11	San Marcos la laguna 	2	Febrero	2023-02-19T00:00:00	2024-11-08T04:00:00	1	Precipitación	0
177752	7	Sololá	716	San Marcos la Laguna 	11	San Marcos la laguna 	2	Febrero	2023-02-19T00:00:00	2024-11-08T04:00:00	8	Radiación solar	0
177753	7	Sololá	716	San Marcos la Laguna 	11	San Marcos la laguna 	2	Febrero	2023-02-19T00:00:00	2024-11-08T05:00:00	2	Temperatura media	18.7
177754	7	Sololá	716	San Marcos la Laguna 	11	San Marcos la laguna 	2	Febrero	2023-02-19T00:00:00	2024-11-08T05:00:00	4	Temperatura máxima	18.9
177755	7	Sololá	716	San Marcos la Laguna 	11	San Marcos la laguna 	2	Febrero	2023-02-19T00:00:00	2024-11-08T05:00:00	3	Temperatura mínima	18.6
177756	7	Sololá	716	San Marcos la Laguna 	11	San Marcos la laguna 	2	Febrero	2023-02-19T00:00:00	2024-11-08T05:00:00	5	Humedad	61
177757	7	Sololá	716	San Marcos la Laguna 	11	San Marcos la laguna 	2	Febrero	2023-02-19T00:00:00	2024-11-08T05:00:00	6	Velocidad del viento	9.7
177758	7	Sololá	716	San Marcos la Laguna 	11	San Marcos la laguna 	2	Febrero	2023-02-19T00:00:00	2024-11-08T05:00:00	7	Dirección del viento	9.66
177759	7	Sololá	716	San Marcos la Laguna 	11	San Marcos la laguna 	2	Febrero	2023-02-19T00:00:00	2024-11-08T05:00:00	1	Precipitación	0
177760	7	Sololá	716	San Marcos la Laguna 	11	San Marcos la laguna 	2	Febrero	2023-02-19T00:00:00	2024-11-08T05:00:00	8	Radiación solar	0
177761	7	Sololá	716	San Marcos la Laguna 	11	San Marcos la laguna 	2	Febrero	2023-02-19T00:00:00	2024-11-08T06:00:00	2	Temperatura media	18.2
177762	7	Sololá	716	San Marcos la Laguna 	11	San Marcos la laguna 	2	Febrero	2023-02-19T00:00:00	2024-11-08T06:00:00	4	Temperatura máxima	18.7
177763	7	Sololá	716	San Marcos la Laguna 	11	San Marcos la laguna 	2	Febrero	2023-02-19T00:00:00	2024-11-08T06:00:00	3	Temperatura mínima	18.2
177764	7	Sololá	716	San Marcos la Laguna 	11	San Marcos la laguna 	2	Febrero	2023-02-19T00:00:00	2024-11-08T06:00:00	5	Humedad	62
177765	7	Sololá	716	San Marcos la Laguna 	11	San Marcos la laguna 	2	Febrero	2023-02-19T00:00:00	2024-11-08T06:00:00	6	Velocidad del viento	11.3
177766	7	Sololá	716	San Marcos la Laguna 	11	San Marcos la laguna 	2	Febrero	2023-02-19T00:00:00	2024-11-08T06:00:00	7	Dirección del viento	11.27
177767	7	Sololá	716	San Marcos la Laguna 	11	San Marcos la laguna 	2	Febrero	2023-02-19T00:00:00	2024-11-08T06:00:00	1	Precipitación	0
177768	7	Sololá	716	San Marcos la Laguna 	11	San Marcos la laguna 	2	Febrero	2023-02-19T00:00:00	2024-11-08T06:00:00	8	Radiación solar	0
177769	7	Sololá	716	San Marcos la Laguna 	11	San Marcos la laguna 	2	Febrero	2023-02-19T00:00:00	2024-11-08T07:00:00	2	Temperatura media	19.1
177770	7	Sololá	716	San Marcos la Laguna 	11	San Marcos la laguna 	2	Febrero	2023-02-19T00:00:00	2024-11-08T07:00:00	4	Temperatura máxima	19.1
177771	7	Sololá	716	San Marcos la Laguna 	11	San Marcos la laguna 	2	Febrero	2023-02-19T00:00:00	2024-11-08T07:00:00	3	Temperatura mínima	18.2
177772	7	Sololá	716	San Marcos la Laguna 	11	San Marcos la laguna 	2	Febrero	2023-02-19T00:00:00	2024-11-08T07:00:00	5	Humedad	54
177773	7	Sololá	716	San Marcos la Laguna 	11	San Marcos la laguna 	2	Febrero	2023-02-19T00:00:00	2024-11-08T07:00:00	6	Velocidad del viento	9.7
177774	7	Sololá	716	San Marcos la Laguna 	11	San Marcos la laguna 	2	Febrero	2023-02-19T00:00:00	2024-11-08T07:00:00	7	Dirección del viento	9.66
177775	7	Sololá	716	San Marcos la Laguna 	11	San Marcos la laguna 	2	Febrero	2023-02-19T00:00:00	2024-11-08T07:00:00	1	Precipitación	0
177776	7	Sololá	716	San Marcos la Laguna 	11	San Marcos la laguna 	2	Febrero	2023-02-19T00:00:00	2024-11-08T07:00:00	8	Radiación solar	6
177777	7	Sololá	716	San Marcos la Laguna 	11	San Marcos la laguna 	2	Febrero	2023-02-19T00:00:00	2024-11-08T08:00:00	2	Temperatura media	20.6
177778	7	Sololá	716	San Marcos la Laguna 	11	San Marcos la laguna 	2	Febrero	2023-02-19T00:00:00	2024-11-08T08:00:00	4	Temperatura máxima	20.6
177779	7	Sololá	716	San Marcos la Laguna 	11	San Marcos la laguna 	2	Febrero	2023-02-19T00:00:00	2024-11-08T08:00:00	3	Temperatura mínima	19.1
177780	7	Sololá	716	San Marcos la Laguna 	11	San Marcos la laguna 	2	Febrero	2023-02-19T00:00:00	2024-11-08T08:00:00	5	Humedad	48
177781	7	Sololá	716	San Marcos la Laguna 	11	San Marcos la laguna 	2	Febrero	2023-02-19T00:00:00	2024-11-08T08:00:00	6	Velocidad del viento	11.3
177782	7	Sololá	716	San Marcos la Laguna 	11	San Marcos la laguna 	2	Febrero	2023-02-19T00:00:00	2024-11-08T08:00:00	7	Dirección del viento	11.27
177783	7	Sololá	716	San Marcos la Laguna 	11	San Marcos la laguna 	2	Febrero	2023-02-19T00:00:00	2024-11-08T08:00:00	1	Precipitación	0
177784	7	Sololá	716	San Marcos la Laguna 	11	San Marcos la laguna 	2	Febrero	2023-02-19T00:00:00	2024-11-08T08:00:00	8	Radiación solar	93
177785	7	Sololá	716	San Marcos la Laguna 	11	San Marcos la laguna 	2	Febrero	2023-02-19T00:00:00	2024-11-08T09:00:00	2	Temperatura media	21.3
177786	7	Sololá	716	San Marcos la Laguna 	11	San Marcos la laguna 	2	Febrero	2023-02-19T00:00:00	2024-11-08T09:00:00	4	Temperatura máxima	21.4
177787	7	Sololá	716	San Marcos la Laguna 	11	San Marcos la laguna 	2	Febrero	2023-02-19T00:00:00	2024-11-08T09:00:00	3	Temperatura mínima	20.6
177788	7	Sololá	716	San Marcos la Laguna 	11	San Marcos la laguna 	2	Febrero	2023-02-19T00:00:00	2024-11-08T09:00:00	5	Humedad	51
177789	7	Sololá	716	San Marcos la Laguna 	11	San Marcos la laguna 	2	Febrero	2023-02-19T00:00:00	2024-11-08T09:00:00	6	Velocidad del viento	12.9
177790	7	Sololá	716	San Marcos la Laguna 	11	San Marcos la laguna 	2	Febrero	2023-02-19T00:00:00	2024-11-08T09:00:00	7	Dirección del viento	12.87
177791	7	Sololá	716	San Marcos la Laguna 	11	San Marcos la laguna 	2	Febrero	2023-02-19T00:00:00	2024-11-08T09:00:00	1	Precipitación	0
177792	7	Sololá	716	San Marcos la Laguna 	11	San Marcos la laguna 	2	Febrero	2023-02-19T00:00:00	2024-11-08T09:00:00	8	Radiación solar	355
177793	7	Sololá	716	San Marcos la Laguna 	11	San Marcos la laguna 	2	Febrero	2023-02-19T00:00:00	2024-11-08T10:00:00	2	Temperatura media	22.6
177794	7	Sololá	716	San Marcos la Laguna 	11	San Marcos la laguna 	2	Febrero	2023-02-19T00:00:00	2024-11-08T10:00:00	4	Temperatura máxima	22.6
177795	7	Sololá	716	San Marcos la Laguna 	11	San Marcos la laguna 	2	Febrero	2023-02-19T00:00:00	2024-11-08T10:00:00	3	Temperatura mínima	21.2
177796	7	Sololá	716	San Marcos la Laguna 	11	San Marcos la laguna 	2	Febrero	2023-02-19T00:00:00	2024-11-08T10:00:00	5	Humedad	49
177797	7	Sololá	716	San Marcos la Laguna 	11	San Marcos la laguna 	2	Febrero	2023-02-19T00:00:00	2024-11-08T10:00:00	6	Velocidad del viento	22.5
177798	7	Sololá	716	San Marcos la Laguna 	11	San Marcos la laguna 	2	Febrero	2023-02-19T00:00:00	2024-11-08T10:00:00	7	Dirección del viento	22.53
177799	7	Sololá	716	San Marcos la Laguna 	11	San Marcos la laguna 	2	Febrero	2023-02-19T00:00:00	2024-11-08T10:00:00	1	Precipitación	0
177800	7	Sololá	716	San Marcos la Laguna 	11	San Marcos la laguna 	2	Febrero	2023-02-19T00:00:00	2024-11-08T10:00:00	8	Radiación solar	577
177801	7	Sololá	716	San Marcos la Laguna 	11	San Marcos la laguna 	2	Febrero	2023-02-19T00:00:00	2024-11-08T11:00:00	2	Temperatura media	23.4
177802	7	Sololá	716	San Marcos la Laguna 	11	San Marcos la laguna 	2	Febrero	2023-02-19T00:00:00	2024-11-08T11:00:00	4	Temperatura máxima	23.5
177803	7	Sololá	716	San Marcos la Laguna 	11	San Marcos la laguna 	2	Febrero	2023-02-19T00:00:00	2024-11-08T11:00:00	3	Temperatura mínima	22.4
177804	7	Sololá	716	San Marcos la Laguna 	11	San Marcos la laguna 	2	Febrero	2023-02-19T00:00:00	2024-11-08T11:00:00	5	Humedad	48
177805	7	Sololá	716	San Marcos la Laguna 	11	San Marcos la laguna 	2	Febrero	2023-02-19T00:00:00	2024-11-08T11:00:00	6	Velocidad del viento	16.1
177806	7	Sololá	716	San Marcos la Laguna 	11	San Marcos la laguna 	2	Febrero	2023-02-19T00:00:00	2024-11-08T11:00:00	7	Dirección del viento	16.09
177807	7	Sololá	716	San Marcos la Laguna 	11	San Marcos la laguna 	2	Febrero	2023-02-19T00:00:00	2024-11-08T11:00:00	1	Precipitación	0
177808	7	Sololá	716	San Marcos la Laguna 	11	San Marcos la laguna 	2	Febrero	2023-02-19T00:00:00	2024-11-08T11:00:00	8	Radiación solar	710
177809	7	Sololá	716	San Marcos la Laguna 	11	San Marcos la laguna 	2	Febrero	2023-02-19T00:00:00	2024-11-08T12:00:00	2	Temperatura media	23
177810	7	Sololá	716	San Marcos la Laguna 	11	San Marcos la laguna 	2	Febrero	2023-02-19T00:00:00	2024-11-08T12:00:00	4	Temperatura máxima	23.6
177811	7	Sololá	716	San Marcos la Laguna 	11	San Marcos la laguna 	2	Febrero	2023-02-19T00:00:00	2024-11-08T12:00:00	3	Temperatura mínima	22.6
177812	7	Sololá	716	San Marcos la Laguna 	11	San Marcos la laguna 	2	Febrero	2023-02-19T00:00:00	2024-11-08T12:00:00	5	Humedad	48
177813	7	Sololá	716	San Marcos la Laguna 	11	San Marcos la laguna 	2	Febrero	2023-02-19T00:00:00	2024-11-08T12:00:00	6	Velocidad del viento	24.1
177814	7	Sololá	716	San Marcos la Laguna 	11	San Marcos la laguna 	2	Febrero	2023-02-19T00:00:00	2024-11-08T12:00:00	7	Dirección del viento	24.14
177815	7	Sololá	716	San Marcos la Laguna 	11	San Marcos la laguna 	2	Febrero	2023-02-19T00:00:00	2024-11-08T12:00:00	1	Precipitación	0
177816	7	Sololá	716	San Marcos la Laguna 	11	San Marcos la laguna 	2	Febrero	2023-02-19T00:00:00	2024-11-08T12:00:00	8	Radiación solar	705
177817	7	Sololá	716	San Marcos la Laguna 	11	San Marcos la laguna 	2	Febrero	2023-02-19T00:00:00	2024-11-08T13:00:00	2	Temperatura media	22.4
177818	7	Sololá	716	San Marcos la Laguna 	11	San Marcos la laguna 	2	Febrero	2023-02-19T00:00:00	2024-11-08T13:00:00	4	Temperatura máxima	23.2
177819	7	Sololá	716	San Marcos la Laguna 	11	San Marcos la laguna 	2	Febrero	2023-02-19T00:00:00	2024-11-08T13:00:00	3	Temperatura mínima	22.2
177820	7	Sololá	716	San Marcos la Laguna 	11	San Marcos la laguna 	2	Febrero	2023-02-19T00:00:00	2024-11-08T13:00:00	5	Humedad	52
177821	7	Sololá	716	San Marcos la Laguna 	11	San Marcos la laguna 	2	Febrero	2023-02-19T00:00:00	2024-11-08T13:00:00	6	Velocidad del viento	24.1
177822	7	Sololá	716	San Marcos la Laguna 	11	San Marcos la laguna 	2	Febrero	2023-02-19T00:00:00	2024-11-08T13:00:00	7	Dirección del viento	24.14
177823	7	Sololá	716	San Marcos la Laguna 	11	San Marcos la laguna 	2	Febrero	2023-02-19T00:00:00	2024-11-08T13:00:00	1	Precipitación	0
177824	7	Sololá	716	San Marcos la Laguna 	11	San Marcos la laguna 	2	Febrero	2023-02-19T00:00:00	2024-11-08T13:00:00	8	Radiación solar	826
177825	7	Sololá	716	San Marcos la Laguna 	11	San Marcos la laguna 	2	Febrero	2023-02-19T00:00:00	2024-11-08T14:00:00	2	Temperatura media	23.2
177826	7	Sololá	716	San Marcos la Laguna 	11	San Marcos la laguna 	2	Febrero	2023-02-19T00:00:00	2024-11-08T14:00:00	4	Temperatura máxima	23.7
177827	7	Sololá	716	San Marcos la Laguna 	11	San Marcos la laguna 	2	Febrero	2023-02-19T00:00:00	2024-11-08T14:00:00	3	Temperatura mínima	22.3
177828	7	Sololá	716	San Marcos la Laguna 	11	San Marcos la laguna 	2	Febrero	2023-02-19T00:00:00	2024-11-08T14:00:00	5	Humedad	47
177829	7	Sololá	716	San Marcos la Laguna 	11	San Marcos la laguna 	2	Febrero	2023-02-19T00:00:00	2024-11-08T14:00:00	6	Velocidad del viento	20.9
177830	7	Sololá	716	San Marcos la Laguna 	11	San Marcos la laguna 	2	Febrero	2023-02-19T00:00:00	2024-11-08T14:00:00	7	Dirección del viento	20.92
177831	7	Sololá	716	San Marcos la Laguna 	11	San Marcos la laguna 	2	Febrero	2023-02-19T00:00:00	2024-11-08T14:00:00	1	Precipitación	0
177832	7	Sololá	716	San Marcos la Laguna 	11	San Marcos la laguna 	2	Febrero	2023-02-19T00:00:00	2024-11-08T14:00:00	8	Radiación solar	751
177833	7	Sololá	716	San Marcos la Laguna 	11	San Marcos la laguna 	2	Febrero	2023-02-19T00:00:00	2024-11-08T15:00:00	2	Temperatura media	22.8
177834	7	Sololá	716	San Marcos la Laguna 	11	San Marcos la laguna 	2	Febrero	2023-02-19T00:00:00	2024-11-08T15:00:00	4	Temperatura máxima	23.6
177835	7	Sololá	716	San Marcos la Laguna 	11	San Marcos la laguna 	2	Febrero	2023-02-19T00:00:00	2024-11-08T15:00:00	3	Temperatura mínima	22.7
177836	7	Sololá	716	San Marcos la Laguna 	11	San Marcos la laguna 	2	Febrero	2023-02-19T00:00:00	2024-11-08T15:00:00	5	Humedad	53
177837	7	Sololá	716	San Marcos la Laguna 	11	San Marcos la laguna 	2	Febrero	2023-02-19T00:00:00	2024-11-08T15:00:00	6	Velocidad del viento	24.1
177838	7	Sololá	716	San Marcos la Laguna 	11	San Marcos la laguna 	2	Febrero	2023-02-19T00:00:00	2024-11-08T15:00:00	7	Dirección del viento	24.14
177839	7	Sololá	716	San Marcos la Laguna 	11	San Marcos la laguna 	2	Febrero	2023-02-19T00:00:00	2024-11-08T15:00:00	1	Precipitación	0
177840	7	Sololá	716	San Marcos la Laguna 	11	San Marcos la laguna 	2	Febrero	2023-02-19T00:00:00	2024-11-08T15:00:00	8	Radiación solar	334
177841	7	Sololá	716	San Marcos la Laguna 	11	San Marcos la laguna 	2	Febrero	2023-02-19T00:00:00	2024-11-08T16:00:00	2	Temperatura media	22.2
177842	7	Sololá	716	San Marcos la Laguna 	11	San Marcos la laguna 	2	Febrero	2023-02-19T00:00:00	2024-11-08T16:00:00	4	Temperatura máxima	23.2
177843	7	Sololá	716	San Marcos la Laguna 	11	San Marcos la laguna 	2	Febrero	2023-02-19T00:00:00	2024-11-08T16:00:00	3	Temperatura mínima	21.8
177844	7	Sololá	716	San Marcos la Laguna 	11	San Marcos la laguna 	2	Febrero	2023-02-19T00:00:00	2024-11-08T16:00:00	5	Humedad	54
177845	7	Sololá	716	San Marcos la Laguna 	11	San Marcos la laguna 	2	Febrero	2023-02-19T00:00:00	2024-11-08T16:00:00	6	Velocidad del viento	20.9
177846	7	Sololá	716	San Marcos la Laguna 	11	San Marcos la laguna 	2	Febrero	2023-02-19T00:00:00	2024-11-08T16:00:00	7	Dirección del viento	20.92
177847	7	Sololá	716	San Marcos la Laguna 	11	San Marcos la laguna 	2	Febrero	2023-02-19T00:00:00	2024-11-08T16:00:00	1	Precipitación	0
177848	7	Sololá	716	San Marcos la Laguna 	11	San Marcos la laguna 	2	Febrero	2023-02-19T00:00:00	2024-11-08T16:00:00	8	Radiación solar	243
177849	7	Sololá	716	San Marcos la Laguna 	11	San Marcos la laguna 	2	Febrero	2023-02-19T00:00:00	2024-11-08T17:00:00	2	Temperatura media	21.7
177850	7	Sololá	716	San Marcos la Laguna 	11	San Marcos la laguna 	2	Febrero	2023-02-19T00:00:00	2024-11-08T17:00:00	4	Temperatura máxima	22.2
177851	7	Sololá	716	San Marcos la Laguna 	11	San Marcos la laguna 	2	Febrero	2023-02-19T00:00:00	2024-11-08T17:00:00	3	Temperatura mínima	21.7
177852	7	Sololá	716	San Marcos la Laguna 	11	San Marcos la laguna 	2	Febrero	2023-02-19T00:00:00	2024-11-08T17:00:00	5	Humedad	56
177853	7	Sololá	716	San Marcos la Laguna 	11	San Marcos la laguna 	2	Febrero	2023-02-19T00:00:00	2024-11-08T17:00:00	6	Velocidad del viento	25.7
177854	7	Sololá	716	San Marcos la Laguna 	11	San Marcos la laguna 	2	Febrero	2023-02-19T00:00:00	2024-11-08T17:00:00	7	Dirección del viento	25.75
177855	7	Sololá	716	San Marcos la Laguna 	11	San Marcos la laguna 	2	Febrero	2023-02-19T00:00:00	2024-11-08T17:00:00	1	Precipitación	0
177856	7	Sololá	716	San Marcos la Laguna 	11	San Marcos la laguna 	2	Febrero	2023-02-19T00:00:00	2024-11-08T17:00:00	8	Radiación solar	126
177857	7	Sololá	716	San Marcos la Laguna 	11	San Marcos la laguna 	2	Febrero	2023-02-19T00:00:00	2024-11-08T18:00:00	2	Temperatura media	20.3
177858	7	Sololá	716	San Marcos la Laguna 	11	San Marcos la laguna 	2	Febrero	2023-02-19T00:00:00	2024-11-08T18:00:00	4	Temperatura máxima	21.7
177859	7	Sololá	716	San Marcos la Laguna 	11	San Marcos la laguna 	2	Febrero	2023-02-19T00:00:00	2024-11-08T18:00:00	3	Temperatura mínima	20.3
177860	7	Sololá	716	San Marcos la Laguna 	11	San Marcos la laguna 	2	Febrero	2023-02-19T00:00:00	2024-11-08T18:00:00	5	Humedad	57
177861	7	Sololá	716	San Marcos la Laguna 	11	San Marcos la laguna 	2	Febrero	2023-02-19T00:00:00	2024-11-08T18:00:00	6	Velocidad del viento	19.3
177862	7	Sololá	716	San Marcos la Laguna 	11	San Marcos la laguna 	2	Febrero	2023-02-19T00:00:00	2024-11-08T18:00:00	7	Dirección del viento	19.31
177863	7	Sololá	716	San Marcos la Laguna 	11	San Marcos la laguna 	2	Febrero	2023-02-19T00:00:00	2024-11-08T18:00:00	1	Precipitación	0
177864	7	Sololá	716	San Marcos la Laguna 	11	San Marcos la laguna 	2	Febrero	2023-02-19T00:00:00	2024-11-08T18:00:00	8	Radiación solar	44
177865	7	Sololá	716	San Marcos la Laguna 	11	San Marcos la laguna 	2	Febrero	2023-02-19T00:00:00	2024-11-08T19:00:00	2	Temperatura media	19.2
177866	7	Sololá	716	San Marcos la Laguna 	11	San Marcos la laguna 	2	Febrero	2023-02-19T00:00:00	2024-11-08T19:00:00	4	Temperatura máxima	20.3
177867	7	Sololá	716	San Marcos la Laguna 	11	San Marcos la laguna 	2	Febrero	2023-02-19T00:00:00	2024-11-08T19:00:00	3	Temperatura mínima	19.2
177868	7	Sololá	716	San Marcos la Laguna 	11	San Marcos la laguna 	2	Febrero	2023-02-19T00:00:00	2024-11-08T19:00:00	5	Humedad	62
177869	7	Sololá	716	San Marcos la Laguna 	11	San Marcos la laguna 	2	Febrero	2023-02-19T00:00:00	2024-11-08T19:00:00	6	Velocidad del viento	19.3
177870	7	Sololá	716	San Marcos la Laguna 	11	San Marcos la laguna 	2	Febrero	2023-02-19T00:00:00	2024-11-08T19:00:00	7	Dirección del viento	19.31
177871	7	Sololá	716	San Marcos la Laguna 	11	San Marcos la laguna 	2	Febrero	2023-02-19T00:00:00	2024-11-08T19:00:00	1	Precipitación	0
177872	7	Sololá	716	San Marcos la Laguna 	11	San Marcos la laguna 	2	Febrero	2023-02-19T00:00:00	2024-11-08T19:00:00	8	Radiación solar	0
177873	7	Sololá	716	San Marcos la Laguna 	11	San Marcos la laguna 	2	Febrero	2023-02-19T00:00:00	2024-11-08T20:00:00	2	Temperatura media	19.1
177874	7	Sololá	716	San Marcos la Laguna 	11	San Marcos la laguna 	2	Febrero	2023-02-19T00:00:00	2024-11-08T20:00:00	4	Temperatura máxima	19.3
177875	7	Sololá	716	San Marcos la Laguna 	11	San Marcos la laguna 	2	Febrero	2023-02-19T00:00:00	2024-11-08T20:00:00	3	Temperatura mínima	19.1
177876	7	Sololá	716	San Marcos la Laguna 	11	San Marcos la laguna 	2	Febrero	2023-02-19T00:00:00	2024-11-08T20:00:00	5	Humedad	61
177877	7	Sololá	716	San Marcos la Laguna 	11	San Marcos la laguna 	2	Febrero	2023-02-19T00:00:00	2024-11-08T20:00:00	6	Velocidad del viento	20.9
177878	7	Sololá	716	San Marcos la Laguna 	11	San Marcos la laguna 	2	Febrero	2023-02-19T00:00:00	2024-11-08T20:00:00	7	Dirección del viento	20.92
177879	7	Sololá	716	San Marcos la Laguna 	11	San Marcos la laguna 	2	Febrero	2023-02-19T00:00:00	2024-11-08T20:00:00	1	Precipitación	0
177880	7	Sololá	716	San Marcos la Laguna 	11	San Marcos la laguna 	2	Febrero	2023-02-19T00:00:00	2024-11-08T20:00:00	8	Radiación solar	0
177881	7	Sololá	716	San Marcos la Laguna 	11	San Marcos la laguna 	2	Febrero	2023-02-19T00:00:00	2024-11-08T21:00:00	2	Temperatura media	18.7
177882	7	Sololá	716	San Marcos la Laguna 	11	San Marcos la laguna 	2	Febrero	2023-02-19T00:00:00	2024-11-08T21:00:00	4	Temperatura máxima	19.1
177883	7	Sololá	716	San Marcos la Laguna 	11	San Marcos la laguna 	2	Febrero	2023-02-19T00:00:00	2024-11-08T21:00:00	3	Temperatura mínima	18.6
177884	7	Sololá	716	San Marcos la Laguna 	11	San Marcos la laguna 	2	Febrero	2023-02-19T00:00:00	2024-11-08T21:00:00	5	Humedad	63
177885	7	Sololá	716	San Marcos la Laguna 	11	San Marcos la laguna 	2	Febrero	2023-02-19T00:00:00	2024-11-08T21:00:00	6	Velocidad del viento	20.9
177886	7	Sololá	716	San Marcos la Laguna 	11	San Marcos la laguna 	2	Febrero	2023-02-19T00:00:00	2024-11-08T21:00:00	7	Dirección del viento	20.92
177887	7	Sololá	716	San Marcos la Laguna 	11	San Marcos la laguna 	2	Febrero	2023-02-19T00:00:00	2024-11-08T21:00:00	1	Precipitación	0
177888	7	Sololá	716	San Marcos la Laguna 	11	San Marcos la laguna 	2	Febrero	2023-02-19T00:00:00	2024-11-08T21:00:00	8	Radiación solar	0
177889	7	Sololá	716	San Marcos la Laguna 	11	San Marcos la laguna 	2	Febrero	2023-02-19T00:00:00	2024-11-08T22:00:00	2	Temperatura media	18.6
177890	7	Sololá	716	San Marcos la Laguna 	11	San Marcos la laguna 	2	Febrero	2023-02-19T00:00:00	2024-11-08T22:00:00	4	Temperatura máxima	18.8
177891	7	Sololá	716	San Marcos la Laguna 	11	San Marcos la laguna 	2	Febrero	2023-02-19T00:00:00	2024-11-08T22:00:00	3	Temperatura mínima	18.4
177892	7	Sololá	716	San Marcos la Laguna 	11	San Marcos la laguna 	2	Febrero	2023-02-19T00:00:00	2024-11-08T22:00:00	5	Humedad	59
177893	7	Sololá	716	San Marcos la Laguna 	11	San Marcos la laguna 	2	Febrero	2023-02-19T00:00:00	2024-11-08T22:00:00	6	Velocidad del viento	24.1
177894	7	Sololá	716	San Marcos la Laguna 	11	San Marcos la laguna 	2	Febrero	2023-02-19T00:00:00	2024-11-08T22:00:00	7	Dirección del viento	24.14
177895	7	Sololá	716	San Marcos la Laguna 	11	San Marcos la laguna 	2	Febrero	2023-02-19T00:00:00	2024-11-08T22:00:00	1	Precipitación	0
177896	7	Sololá	716	San Marcos la Laguna 	11	San Marcos la laguna 	2	Febrero	2023-02-19T00:00:00	2024-11-08T22:00:00	8	Radiación solar	0
177897	7	Sololá	716	San Marcos la Laguna 	11	San Marcos la laguna 	2	Febrero	2023-02-19T00:00:00	2024-11-08T23:00:00	2	Temperatura media	18.5
177898	7	Sololá	716	San Marcos la Laguna 	11	San Marcos la laguna 	2	Febrero	2023-02-19T00:00:00	2024-11-08T23:00:00	4	Temperatura máxima	18.9
177899	7	Sololá	716	San Marcos la Laguna 	11	San Marcos la laguna 	2	Febrero	2023-02-19T00:00:00	2024-11-08T23:00:00	3	Temperatura mínima	18.4
177900	7	Sololá	716	San Marcos la Laguna 	11	San Marcos la laguna 	2	Febrero	2023-02-19T00:00:00	2024-11-08T23:00:00	5	Humedad	60
177901	7	Sololá	716	San Marcos la Laguna 	11	San Marcos la laguna 	2	Febrero	2023-02-19T00:00:00	2024-11-08T23:00:00	6	Velocidad del viento	22.5
177902	7	Sololá	716	San Marcos la Laguna 	11	San Marcos la laguna 	2	Febrero	2023-02-19T00:00:00	2024-11-08T23:00:00	7	Dirección del viento	22.53
177903	7	Sololá	716	San Marcos la Laguna 	11	San Marcos la laguna 	2	Febrero	2023-02-19T00:00:00	2024-11-08T23:00:00	1	Precipitación	0
177904	7	Sololá	716	San Marcos la Laguna 	11	San Marcos la laguna 	2	Febrero	2023-02-19T00:00:00	2024-11-08T23:00:00	8	Radiación solar	0
177905	7	Sololá	716	San Marcos la Laguna 	11	San Marcos la laguna 	2	Febrero	2023-02-20T00:00:00	2024-11-08T00:00:00	2	Temperatura media	17.2
177906	7	Sololá	716	San Marcos la Laguna 	11	San Marcos la laguna 	2	Febrero	2023-02-20T00:00:00	2024-11-08T00:00:00	4	Temperatura máxima	19
177907	7	Sololá	716	San Marcos la Laguna 	11	San Marcos la laguna 	2	Febrero	2023-02-20T00:00:00	2024-11-08T00:00:00	3	Temperatura mínima	17.2
177908	7	Sololá	716	San Marcos la Laguna 	11	San Marcos la laguna 	2	Febrero	2023-02-20T00:00:00	2024-11-08T00:00:00	5	Humedad	60
177909	7	Sololá	716	San Marcos la Laguna 	11	San Marcos la laguna 	2	Febrero	2023-02-20T00:00:00	2024-11-08T00:00:00	6	Velocidad del viento	14.5
177910	7	Sololá	716	San Marcos la Laguna 	11	San Marcos la laguna 	2	Febrero	2023-02-20T00:00:00	2024-11-08T00:00:00	7	Dirección del viento	14.48
177911	7	Sololá	716	San Marcos la Laguna 	11	San Marcos la laguna 	2	Febrero	2023-02-20T00:00:00	2024-11-08T00:00:00	1	Precipitación	0
177912	7	Sololá	716	San Marcos la Laguna 	11	San Marcos la laguna 	2	Febrero	2023-02-20T00:00:00	2024-11-08T00:00:00	8	Radiación solar	0
177913	7	Sololá	716	San Marcos la Laguna 	11	San Marcos la laguna 	2	Febrero	2023-02-20T00:00:00	2024-11-08T01:00:00	2	Temperatura media	15.1
177914	7	Sololá	716	San Marcos la Laguna 	11	San Marcos la laguna 	2	Febrero	2023-02-20T00:00:00	2024-11-08T01:00:00	4	Temperatura máxima	17.2
177915	7	Sololá	716	San Marcos la Laguna 	11	San Marcos la laguna 	2	Febrero	2023-02-20T00:00:00	2024-11-08T01:00:00	3	Temperatura mínima	15.1
177916	7	Sololá	716	San Marcos la Laguna 	11	San Marcos la laguna 	2	Febrero	2023-02-20T00:00:00	2024-11-08T01:00:00	5	Humedad	65
177917	7	Sololá	716	San Marcos la Laguna 	11	San Marcos la laguna 	2	Febrero	2023-02-20T00:00:00	2024-11-08T01:00:00	6	Velocidad del viento	4.8
177918	7	Sololá	716	San Marcos la Laguna 	11	San Marcos la laguna 	2	Febrero	2023-02-20T00:00:00	2024-11-08T01:00:00	7	Dirección del viento	4.83
177919	7	Sololá	716	San Marcos la Laguna 	11	San Marcos la laguna 	2	Febrero	2023-02-20T00:00:00	2024-11-08T01:00:00	1	Precipitación	0
177920	7	Sololá	716	San Marcos la Laguna 	11	San Marcos la laguna 	2	Febrero	2023-02-20T00:00:00	2024-11-08T01:00:00	8	Radiación solar	0
177921	7	Sololá	716	San Marcos la Laguna 	11	San Marcos la laguna 	2	Febrero	2023-02-20T00:00:00	2024-11-08T02:00:00	2	Temperatura media	15.6
177922	7	Sololá	716	San Marcos la Laguna 	11	San Marcos la laguna 	2	Febrero	2023-02-20T00:00:00	2024-11-08T02:00:00	4	Temperatura máxima	16.2
177923	7	Sololá	716	San Marcos la Laguna 	11	San Marcos la laguna 	2	Febrero	2023-02-20T00:00:00	2024-11-08T02:00:00	3	Temperatura mínima	14.7
177924	7	Sololá	716	San Marcos la Laguna 	11	San Marcos la laguna 	2	Febrero	2023-02-20T00:00:00	2024-11-08T02:00:00	5	Humedad	60
177925	7	Sololá	716	San Marcos la Laguna 	11	San Marcos la laguna 	2	Febrero	2023-02-20T00:00:00	2024-11-08T02:00:00	6	Velocidad del viento	4.8
177926	7	Sololá	716	San Marcos la Laguna 	11	San Marcos la laguna 	2	Febrero	2023-02-20T00:00:00	2024-11-08T02:00:00	7	Dirección del viento	4.83
177927	7	Sololá	716	San Marcos la Laguna 	11	San Marcos la laguna 	2	Febrero	2023-02-20T00:00:00	2024-11-08T02:00:00	1	Precipitación	0
177928	7	Sololá	716	San Marcos la Laguna 	11	San Marcos la laguna 	2	Febrero	2023-02-20T00:00:00	2024-11-08T02:00:00	8	Radiación solar	0
177929	7	Sololá	716	San Marcos la Laguna 	11	San Marcos la laguna 	2	Febrero	2023-02-20T00:00:00	2024-11-08T03:00:00	2	Temperatura media	15.2
177930	7	Sololá	716	San Marcos la Laguna 	11	San Marcos la laguna 	2	Febrero	2023-02-20T00:00:00	2024-11-08T03:00:00	4	Temperatura máxima	16.4
177931	7	Sololá	716	San Marcos la Laguna 	11	San Marcos la laguna 	2	Febrero	2023-02-20T00:00:00	2024-11-08T03:00:00	3	Temperatura mínima	14.9
177932	7	Sololá	716	San Marcos la Laguna 	11	San Marcos la laguna 	2	Febrero	2023-02-20T00:00:00	2024-11-08T03:00:00	5	Humedad	59
177933	7	Sololá	716	San Marcos la Laguna 	11	San Marcos la laguna 	2	Febrero	2023-02-20T00:00:00	2024-11-08T03:00:00	6	Velocidad del viento	4.8
177934	7	Sololá	716	San Marcos la Laguna 	11	San Marcos la laguna 	2	Febrero	2023-02-20T00:00:00	2024-11-08T03:00:00	7	Dirección del viento	4.83
177935	7	Sololá	716	San Marcos la Laguna 	11	San Marcos la laguna 	2	Febrero	2023-02-20T00:00:00	2024-11-08T03:00:00	1	Precipitación	0
177936	7	Sololá	716	San Marcos la Laguna 	11	San Marcos la laguna 	2	Febrero	2023-02-20T00:00:00	2024-11-08T03:00:00	8	Radiación solar	0
177937	7	Sololá	716	San Marcos la Laguna 	11	San Marcos la laguna 	2	Febrero	2023-02-20T00:00:00	2024-11-08T04:00:00	2	Temperatura media	14.7
177938	7	Sololá	716	San Marcos la Laguna 	11	San Marcos la laguna 	2	Febrero	2023-02-20T00:00:00	2024-11-08T04:00:00	4	Temperatura máxima	15.6
177939	7	Sololá	716	San Marcos la Laguna 	11	San Marcos la laguna 	2	Febrero	2023-02-20T00:00:00	2024-11-08T04:00:00	3	Temperatura mínima	14.7
177940	7	Sololá	716	San Marcos la Laguna 	11	San Marcos la laguna 	2	Febrero	2023-02-20T00:00:00	2024-11-08T04:00:00	5	Humedad	62
177941	7	Sololá	716	San Marcos la Laguna 	11	San Marcos la laguna 	2	Febrero	2023-02-20T00:00:00	2024-11-08T04:00:00	6	Velocidad del viento	4.8
177942	7	Sololá	716	San Marcos la Laguna 	11	San Marcos la laguna 	2	Febrero	2023-02-20T00:00:00	2024-11-08T04:00:00	7	Dirección del viento	4.83
177943	7	Sololá	716	San Marcos la Laguna 	11	San Marcos la laguna 	2	Febrero	2023-02-20T00:00:00	2024-11-08T04:00:00	1	Precipitación	0
177944	7	Sololá	716	San Marcos la Laguna 	11	San Marcos la laguna 	2	Febrero	2023-02-20T00:00:00	2024-11-08T04:00:00	8	Radiación solar	0
177945	7	Sololá	716	San Marcos la Laguna 	11	San Marcos la laguna 	2	Febrero	2023-02-20T00:00:00	2024-11-08T05:00:00	2	Temperatura media	16.3
177946	7	Sololá	716	San Marcos la Laguna 	11	San Marcos la laguna 	2	Febrero	2023-02-20T00:00:00	2024-11-08T05:00:00	4	Temperatura máxima	16.4
177947	7	Sololá	716	San Marcos la Laguna 	11	San Marcos la laguna 	2	Febrero	2023-02-20T00:00:00	2024-11-08T05:00:00	3	Temperatura mínima	14.3
177948	7	Sololá	716	San Marcos la Laguna 	11	San Marcos la laguna 	2	Febrero	2023-02-20T00:00:00	2024-11-08T05:00:00	5	Humedad	59
177949	7	Sololá	716	San Marcos la Laguna 	11	San Marcos la laguna 	2	Febrero	2023-02-20T00:00:00	2024-11-08T05:00:00	6	Velocidad del viento	4.8
177950	7	Sololá	716	San Marcos la Laguna 	11	San Marcos la laguna 	2	Febrero	2023-02-20T00:00:00	2024-11-08T05:00:00	7	Dirección del viento	4.83
177951	7	Sololá	716	San Marcos la Laguna 	11	San Marcos la laguna 	2	Febrero	2023-02-20T00:00:00	2024-11-08T05:00:00	1	Precipitación	0
177952	7	Sololá	716	San Marcos la Laguna 	11	San Marcos la laguna 	2	Febrero	2023-02-20T00:00:00	2024-11-08T05:00:00	8	Radiación solar	0
177953	7	Sololá	716	San Marcos la Laguna 	11	San Marcos la laguna 	2	Febrero	2023-02-20T00:00:00	2024-11-08T06:00:00	2	Temperatura media	17.1
177954	7	Sololá	716	San Marcos la Laguna 	11	San Marcos la laguna 	2	Febrero	2023-02-20T00:00:00	2024-11-08T06:00:00	4	Temperatura máxima	17.1
177955	7	Sololá	716	San Marcos la Laguna 	11	San Marcos la laguna 	2	Febrero	2023-02-20T00:00:00	2024-11-08T06:00:00	3	Temperatura mínima	14.7
177956	7	Sololá	716	San Marcos la Laguna 	11	San Marcos la laguna 	2	Febrero	2023-02-20T00:00:00	2024-11-08T06:00:00	5	Humedad	49
177957	7	Sololá	716	San Marcos la Laguna 	11	San Marcos la laguna 	2	Febrero	2023-02-20T00:00:00	2024-11-08T06:00:00	6	Velocidad del viento	6.4
177958	7	Sololá	716	San Marcos la Laguna 	11	San Marcos la laguna 	2	Febrero	2023-02-20T00:00:00	2024-11-08T06:00:00	7	Dirección del viento	6.44
177959	7	Sololá	716	San Marcos la Laguna 	11	San Marcos la laguna 	2	Febrero	2023-02-20T00:00:00	2024-11-08T06:00:00	1	Precipitación	0
177960	7	Sololá	716	San Marcos la Laguna 	11	San Marcos la laguna 	2	Febrero	2023-02-20T00:00:00	2024-11-08T06:00:00	8	Radiación solar	0
177961	7	Sololá	716	San Marcos la Laguna 	11	San Marcos la laguna 	2	Febrero	2023-02-20T00:00:00	2024-11-08T07:00:00	2	Temperatura media	19.3
177962	7	Sololá	716	San Marcos la Laguna 	11	San Marcos la laguna 	2	Febrero	2023-02-20T00:00:00	2024-11-08T07:00:00	4	Temperatura máxima	19.6
177963	7	Sololá	716	San Marcos la Laguna 	11	San Marcos la laguna 	2	Febrero	2023-02-20T00:00:00	2024-11-08T07:00:00	3	Temperatura mínima	17.1
177964	7	Sololá	716	San Marcos la Laguna 	11	San Marcos la laguna 	2	Febrero	2023-02-20T00:00:00	2024-11-08T07:00:00	5	Humedad	41
177965	7	Sololá	716	San Marcos la Laguna 	11	San Marcos la laguna 	2	Febrero	2023-02-20T00:00:00	2024-11-08T07:00:00	6	Velocidad del viento	9.7
177966	7	Sololá	716	San Marcos la Laguna 	11	San Marcos la laguna 	2	Febrero	2023-02-20T00:00:00	2024-11-08T07:00:00	7	Dirección del viento	9.66
177967	7	Sololá	716	San Marcos la Laguna 	11	San Marcos la laguna 	2	Febrero	2023-02-20T00:00:00	2024-11-08T07:00:00	1	Precipitación	0
177968	7	Sololá	716	San Marcos la Laguna 	11	San Marcos la laguna 	2	Febrero	2023-02-20T00:00:00	2024-11-08T07:00:00	8	Radiación solar	6
177969	7	Sololá	716	San Marcos la Laguna 	11	San Marcos la laguna 	2	Febrero	2023-02-20T00:00:00	2024-11-08T08:00:00	2	Temperatura media	20.7
177970	7	Sololá	716	San Marcos la Laguna 	11	San Marcos la laguna 	2	Febrero	2023-02-20T00:00:00	2024-11-08T08:00:00	4	Temperatura máxima	20.8
177971	7	Sololá	716	San Marcos la Laguna 	11	San Marcos la laguna 	2	Febrero	2023-02-20T00:00:00	2024-11-08T08:00:00	3	Temperatura mínima	19.3
177972	7	Sololá	716	San Marcos la Laguna 	11	San Marcos la laguna 	2	Febrero	2023-02-20T00:00:00	2024-11-08T08:00:00	5	Humedad	38
177973	7	Sololá	716	San Marcos la Laguna 	11	San Marcos la laguna 	2	Febrero	2023-02-20T00:00:00	2024-11-08T08:00:00	6	Velocidad del viento	8
177974	7	Sololá	716	San Marcos la Laguna 	11	San Marcos la laguna 	2	Febrero	2023-02-20T00:00:00	2024-11-08T08:00:00	7	Dirección del viento	8.05
177975	7	Sololá	716	San Marcos la Laguna 	11	San Marcos la laguna 	2	Febrero	2023-02-20T00:00:00	2024-11-08T08:00:00	1	Precipitación	0
177976	7	Sololá	716	San Marcos la Laguna 	11	San Marcos la laguna 	2	Febrero	2023-02-20T00:00:00	2024-11-08T08:00:00	8	Radiación solar	130
177977	7	Sololá	716	San Marcos la Laguna 	11	San Marcos la laguna 	2	Febrero	2023-02-20T00:00:00	2024-11-08T09:00:00	2	Temperatura media	21.2
177978	7	Sololá	716	San Marcos la Laguna 	11	San Marcos la laguna 	2	Febrero	2023-02-20T00:00:00	2024-11-08T09:00:00	4	Temperatura máxima	21.6
177979	7	Sololá	716	San Marcos la Laguna 	11	San Marcos la laguna 	2	Febrero	2023-02-20T00:00:00	2024-11-08T09:00:00	3	Temperatura mínima	20.7
177980	7	Sololá	716	San Marcos la Laguna 	11	San Marcos la laguna 	2	Febrero	2023-02-20T00:00:00	2024-11-08T09:00:00	5	Humedad	45
177981	7	Sololá	716	San Marcos la Laguna 	11	San Marcos la laguna 	2	Febrero	2023-02-20T00:00:00	2024-11-08T09:00:00	6	Velocidad del viento	9.7
177982	7	Sololá	716	San Marcos la Laguna 	11	San Marcos la laguna 	2	Febrero	2023-02-20T00:00:00	2024-11-08T09:00:00	7	Dirección del viento	9.66
177983	7	Sololá	716	San Marcos la Laguna 	11	San Marcos la laguna 	2	Febrero	2023-02-20T00:00:00	2024-11-08T09:00:00	1	Precipitación	0
177984	7	Sololá	716	San Marcos la Laguna 	11	San Marcos la laguna 	2	Febrero	2023-02-20T00:00:00	2024-11-08T09:00:00	8	Radiación solar	355
177985	7	Sololá	716	San Marcos la Laguna 	11	San Marcos la laguna 	2	Febrero	2023-02-20T00:00:00	2024-11-08T10:00:00	2	Temperatura media	21.8
177986	7	Sololá	716	San Marcos la Laguna 	11	San Marcos la laguna 	2	Febrero	2023-02-20T00:00:00	2024-11-08T10:00:00	4	Temperatura máxima	21.9
177987	7	Sololá	716	San Marcos la Laguna 	11	San Marcos la laguna 	2	Febrero	2023-02-20T00:00:00	2024-11-08T10:00:00	3	Temperatura mínima	20.9
177988	7	Sololá	716	San Marcos la Laguna 	11	San Marcos la laguna 	2	Febrero	2023-02-20T00:00:00	2024-11-08T10:00:00	5	Humedad	45
177989	7	Sololá	716	San Marcos la Laguna 	11	San Marcos la laguna 	2	Febrero	2023-02-20T00:00:00	2024-11-08T10:00:00	6	Velocidad del viento	16.1
177990	7	Sololá	716	San Marcos la Laguna 	11	San Marcos la laguna 	2	Febrero	2023-02-20T00:00:00	2024-11-08T10:00:00	7	Dirección del viento	16.09
177991	7	Sololá	716	San Marcos la Laguna 	11	San Marcos la laguna 	2	Febrero	2023-02-20T00:00:00	2024-11-08T10:00:00	1	Precipitación	0
177992	7	Sololá	716	San Marcos la Laguna 	11	San Marcos la laguna 	2	Febrero	2023-02-20T00:00:00	2024-11-08T10:00:00	8	Radiación solar	556
177993	7	Sololá	716	San Marcos la Laguna 	11	San Marcos la laguna 	2	Febrero	2023-02-20T00:00:00	2024-11-08T11:00:00	2	Temperatura media	23.1
177994	7	Sololá	716	San Marcos la Laguna 	11	San Marcos la laguna 	2	Febrero	2023-02-20T00:00:00	2024-11-08T11:00:00	4	Temperatura máxima	23.6
177995	7	Sololá	716	San Marcos la Laguna 	11	San Marcos la laguna 	2	Febrero	2023-02-20T00:00:00	2024-11-08T11:00:00	3	Temperatura mínima	21.8
177996	7	Sololá	716	San Marcos la Laguna 	11	San Marcos la laguna 	2	Febrero	2023-02-20T00:00:00	2024-11-08T11:00:00	5	Humedad	47
177997	7	Sololá	716	San Marcos la Laguna 	11	San Marcos la laguna 	2	Febrero	2023-02-20T00:00:00	2024-11-08T11:00:00	6	Velocidad del viento	6.4
177998	7	Sololá	716	San Marcos la Laguna 	11	San Marcos la laguna 	2	Febrero	2023-02-20T00:00:00	2024-11-08T11:00:00	7	Dirección del viento	6.44
177999	7	Sololá	716	San Marcos la Laguna 	11	San Marcos la laguna 	2	Febrero	2023-02-20T00:00:00	2024-11-08T11:00:00	1	Precipitación	0
178000	7	Sololá	716	San Marcos la Laguna 	11	San Marcos la laguna 	2	Febrero	2023-02-20T00:00:00	2024-11-08T11:00:00	8	Radiación solar	717
178001	7	Sololá	716	San Marcos la Laguna 	11	San Marcos la laguna 	2	Febrero	2023-02-20T00:00:00	2024-11-08T12:00:00	2	Temperatura media	24.2
178002	7	Sololá	716	San Marcos la Laguna 	11	San Marcos la laguna 	2	Febrero	2023-02-20T00:00:00	2024-11-08T12:00:00	4	Temperatura máxima	24.2
178003	7	Sololá	716	San Marcos la Laguna 	11	San Marcos la laguna 	2	Febrero	2023-02-20T00:00:00	2024-11-08T12:00:00	3	Temperatura mínima	22.8
178004	7	Sololá	716	San Marcos la Laguna 	11	San Marcos la laguna 	2	Febrero	2023-02-20T00:00:00	2024-11-08T12:00:00	5	Humedad	46
178005	7	Sololá	716	San Marcos la Laguna 	11	San Marcos la laguna 	2	Febrero	2023-02-20T00:00:00	2024-11-08T12:00:00	6	Velocidad del viento	8
178006	7	Sololá	716	San Marcos la Laguna 	11	San Marcos la laguna 	2	Febrero	2023-02-20T00:00:00	2024-11-08T12:00:00	7	Dirección del viento	8.05
178007	7	Sololá	716	San Marcos la Laguna 	11	San Marcos la laguna 	2	Febrero	2023-02-20T00:00:00	2024-11-08T12:00:00	1	Precipitación	0
178008	7	Sololá	716	San Marcos la Laguna 	11	San Marcos la laguna 	2	Febrero	2023-02-20T00:00:00	2024-11-08T12:00:00	8	Radiación solar	705
178009	7	Sololá	716	San Marcos la Laguna 	11	San Marcos la laguna 	2	Febrero	2023-02-20T00:00:00	2024-11-08T13:00:00	2	Temperatura media	23.1
178010	7	Sololá	716	San Marcos la Laguna 	11	San Marcos la laguna 	2	Febrero	2023-02-20T00:00:00	2024-11-08T13:00:00	4	Temperatura máxima	24.2
178011	7	Sololá	716	San Marcos la Laguna 	11	San Marcos la laguna 	2	Febrero	2023-02-20T00:00:00	2024-11-08T13:00:00	3	Temperatura mínima	22.8
178012	7	Sololá	716	San Marcos la Laguna 	11	San Marcos la laguna 	2	Febrero	2023-02-20T00:00:00	2024-11-08T13:00:00	5	Humedad	47
178013	7	Sololá	716	San Marcos la Laguna 	11	San Marcos la laguna 	2	Febrero	2023-02-20T00:00:00	2024-11-08T13:00:00	6	Velocidad del viento	16.1
178014	7	Sololá	716	San Marcos la Laguna 	11	San Marcos la laguna 	2	Febrero	2023-02-20T00:00:00	2024-11-08T13:00:00	7	Dirección del viento	16.09
178015	7	Sololá	716	San Marcos la Laguna 	11	San Marcos la laguna 	2	Febrero	2023-02-20T00:00:00	2024-11-08T13:00:00	1	Precipitación	0
178016	7	Sololá	716	San Marcos la Laguna 	11	San Marcos la laguna 	2	Febrero	2023-02-20T00:00:00	2024-11-08T13:00:00	8	Radiación solar	815
178017	7	Sololá	716	San Marcos la Laguna 	11	San Marcos la laguna 	2	Febrero	2023-02-20T00:00:00	2024-11-08T14:00:00	2	Temperatura media	23.4
178018	7	Sololá	716	San Marcos la Laguna 	11	San Marcos la laguna 	2	Febrero	2023-02-20T00:00:00	2024-11-08T14:00:00	4	Temperatura máxima	23.8
178019	7	Sololá	716	San Marcos la Laguna 	11	San Marcos la laguna 	2	Febrero	2023-02-20T00:00:00	2024-11-08T14:00:00	3	Temperatura mínima	22.9
178020	7	Sololá	716	San Marcos la Laguna 	11	San Marcos la laguna 	2	Febrero	2023-02-20T00:00:00	2024-11-08T14:00:00	5	Humedad	45
178021	7	Sololá	716	San Marcos la Laguna 	11	San Marcos la laguna 	2	Febrero	2023-02-20T00:00:00	2024-11-08T14:00:00	6	Velocidad del viento	17.7
178022	7	Sololá	716	San Marcos la Laguna 	11	San Marcos la laguna 	2	Febrero	2023-02-20T00:00:00	2024-11-08T14:00:00	7	Dirección del viento	17.7
178023	7	Sololá	716	San Marcos la Laguna 	11	San Marcos la laguna 	2	Febrero	2023-02-20T00:00:00	2024-11-08T14:00:00	1	Precipitación	0
178024	7	Sololá	716	San Marcos la Laguna 	11	San Marcos la laguna 	2	Febrero	2023-02-20T00:00:00	2024-11-08T14:00:00	8	Radiación solar	786
178025	7	Sololá	716	San Marcos la Laguna 	11	San Marcos la laguna 	2	Febrero	2023-02-20T00:00:00	2024-11-08T15:00:00	2	Temperatura media	23.9
178026	7	Sololá	716	San Marcos la Laguna 	11	San Marcos la laguna 	2	Febrero	2023-02-20T00:00:00	2024-11-08T15:00:00	4	Temperatura máxima	24
178027	7	Sololá	716	San Marcos la Laguna 	11	San Marcos la laguna 	2	Febrero	2023-02-20T00:00:00	2024-11-08T15:00:00	3	Temperatura mínima	23.4
178028	7	Sololá	716	San Marcos la Laguna 	11	San Marcos la laguna 	2	Febrero	2023-02-20T00:00:00	2024-11-08T15:00:00	5	Humedad	39
178029	7	Sololá	716	San Marcos la Laguna 	11	San Marcos la laguna 	2	Febrero	2023-02-20T00:00:00	2024-11-08T15:00:00	6	Velocidad del viento	19.3
178030	7	Sololá	716	San Marcos la Laguna 	11	San Marcos la laguna 	2	Febrero	2023-02-20T00:00:00	2024-11-08T15:00:00	7	Dirección del viento	19.31
178031	7	Sololá	716	San Marcos la Laguna 	11	San Marcos la laguna 	2	Febrero	2023-02-20T00:00:00	2024-11-08T15:00:00	1	Precipitación	0
178032	7	Sololá	716	San Marcos la Laguna 	11	San Marcos la laguna 	2	Febrero	2023-02-20T00:00:00	2024-11-08T15:00:00	8	Radiación solar	508
178033	7	Sololá	716	San Marcos la Laguna 	11	San Marcos la laguna 	2	Febrero	2023-02-20T00:00:00	2024-11-08T16:00:00	2	Temperatura media	23.3
178034	7	Sololá	716	San Marcos la Laguna 	11	San Marcos la laguna 	2	Febrero	2023-02-20T00:00:00	2024-11-08T16:00:00	4	Temperatura máxima	24.3
178035	7	Sololá	716	San Marcos la Laguna 	11	San Marcos la laguna 	2	Febrero	2023-02-20T00:00:00	2024-11-08T16:00:00	3	Temperatura mínima	23.3
178036	7	Sololá	716	San Marcos la Laguna 	11	San Marcos la laguna 	2	Febrero	2023-02-20T00:00:00	2024-11-08T16:00:00	5	Humedad	43
178037	7	Sololá	716	San Marcos la Laguna 	11	San Marcos la laguna 	2	Febrero	2023-02-20T00:00:00	2024-11-08T16:00:00	6	Velocidad del viento	16.1
178038	7	Sololá	716	San Marcos la Laguna 	11	San Marcos la laguna 	2	Febrero	2023-02-20T00:00:00	2024-11-08T16:00:00	7	Dirección del viento	16.09
178039	7	Sololá	716	San Marcos la Laguna 	11	San Marcos la laguna 	2	Febrero	2023-02-20T00:00:00	2024-11-08T16:00:00	1	Precipitación	0
178040	7	Sololá	716	San Marcos la Laguna 	11	San Marcos la laguna 	2	Febrero	2023-02-20T00:00:00	2024-11-08T16:00:00	8	Radiación solar	339
178041	7	Sololá	716	San Marcos la Laguna 	11	San Marcos la laguna 	2	Febrero	2023-02-20T00:00:00	2024-11-08T17:00:00	2	Temperatura media	23.2
178042	7	Sololá	716	San Marcos la Laguna 	11	San Marcos la laguna 	2	Febrero	2023-02-20T00:00:00	2024-11-08T17:00:00	4	Temperatura máxima	24.6
178043	7	Sololá	716	San Marcos la Laguna 	11	San Marcos la laguna 	2	Febrero	2023-02-20T00:00:00	2024-11-08T17:00:00	3	Temperatura mínima	23.2
178044	7	Sololá	716	San Marcos la Laguna 	11	San Marcos la laguna 	2	Febrero	2023-02-20T00:00:00	2024-11-08T17:00:00	5	Humedad	40
178045	7	Sololá	716	San Marcos la Laguna 	11	San Marcos la laguna 	2	Febrero	2023-02-20T00:00:00	2024-11-08T17:00:00	6	Velocidad del viento	14.5
178046	7	Sololá	716	San Marcos la Laguna 	11	San Marcos la laguna 	2	Febrero	2023-02-20T00:00:00	2024-11-08T17:00:00	7	Dirección del viento	14.48
178047	7	Sololá	716	San Marcos la Laguna 	11	San Marcos la laguna 	2	Febrero	2023-02-20T00:00:00	2024-11-08T17:00:00	1	Precipitación	0
178048	7	Sololá	716	San Marcos la Laguna 	11	San Marcos la laguna 	2	Febrero	2023-02-20T00:00:00	2024-11-08T17:00:00	8	Radiación solar	251
178049	7	Sololá	716	San Marcos la Laguna 	11	San Marcos la laguna 	2	Febrero	2023-02-20T00:00:00	2024-11-08T18:00:00	2	Temperatura media	21.6
178050	7	Sololá	716	San Marcos la Laguna 	11	San Marcos la laguna 	2	Febrero	2023-02-20T00:00:00	2024-11-08T18:00:00	4	Temperatura máxima	23.4
178051	7	Sololá	716	San Marcos la Laguna 	11	San Marcos la laguna 	2	Febrero	2023-02-20T00:00:00	2024-11-08T18:00:00	3	Temperatura mínima	21.6
178052	7	Sololá	716	San Marcos la Laguna 	11	San Marcos la laguna 	2	Febrero	2023-02-20T00:00:00	2024-11-08T18:00:00	5	Humedad	44
178053	7	Sololá	716	San Marcos la Laguna 	11	San Marcos la laguna 	2	Febrero	2023-02-20T00:00:00	2024-11-08T18:00:00	6	Velocidad del viento	8
178054	7	Sololá	716	San Marcos la Laguna 	11	San Marcos la laguna 	2	Febrero	2023-02-20T00:00:00	2024-11-08T18:00:00	7	Dirección del viento	8.05
178055	7	Sololá	716	San Marcos la Laguna 	11	San Marcos la laguna 	2	Febrero	2023-02-20T00:00:00	2024-11-08T18:00:00	1	Precipitación	0
178056	7	Sololá	716	San Marcos la Laguna 	11	San Marcos la laguna 	2	Febrero	2023-02-20T00:00:00	2024-11-08T18:00:00	8	Radiación solar	55
178057	7	Sololá	716	San Marcos la Laguna 	11	San Marcos la laguna 	2	Febrero	2023-02-20T00:00:00	2024-11-08T19:00:00	2	Temperatura media	20.3
178058	7	Sololá	716	San Marcos la Laguna 	11	San Marcos la laguna 	2	Febrero	2023-02-20T00:00:00	2024-11-08T19:00:00	4	Temperatura máxima	21.6
178059	7	Sololá	716	San Marcos la Laguna 	11	San Marcos la laguna 	2	Febrero	2023-02-20T00:00:00	2024-11-08T19:00:00	3	Temperatura mínima	20.3
178060	7	Sololá	716	San Marcos la Laguna 	11	San Marcos la laguna 	2	Febrero	2023-02-20T00:00:00	2024-11-08T19:00:00	5	Humedad	48
178061	7	Sololá	716	San Marcos la Laguna 	11	San Marcos la laguna 	2	Febrero	2023-02-20T00:00:00	2024-11-08T19:00:00	6	Velocidad del viento	12.9
178062	7	Sololá	716	San Marcos la Laguna 	11	San Marcos la laguna 	2	Febrero	2023-02-20T00:00:00	2024-11-08T19:00:00	7	Dirección del viento	12.87
178063	7	Sololá	716	San Marcos la Laguna 	11	San Marcos la laguna 	2	Febrero	2023-02-20T00:00:00	2024-11-08T19:00:00	1	Precipitación	0
178064	7	Sololá	716	San Marcos la Laguna 	11	San Marcos la laguna 	2	Febrero	2023-02-20T00:00:00	2024-11-08T19:00:00	8	Radiación solar	0
178065	7	Sololá	716	San Marcos la Laguna 	11	San Marcos la laguna 	2	Febrero	2023-02-20T00:00:00	2024-11-08T20:00:00	2	Temperatura media	19.8
178066	7	Sololá	716	San Marcos la Laguna 	11	San Marcos la laguna 	2	Febrero	2023-02-20T00:00:00	2024-11-08T20:00:00	4	Temperatura máxima	20.3
178067	7	Sololá	716	San Marcos la Laguna 	11	San Marcos la laguna 	2	Febrero	2023-02-20T00:00:00	2024-11-08T20:00:00	3	Temperatura mínima	19.8
178068	7	Sololá	716	San Marcos la Laguna 	11	San Marcos la laguna 	2	Febrero	2023-02-20T00:00:00	2024-11-08T20:00:00	5	Humedad	48
178069	7	Sololá	716	San Marcos la Laguna 	11	San Marcos la laguna 	2	Febrero	2023-02-20T00:00:00	2024-11-08T20:00:00	6	Velocidad del viento	4.8
178070	7	Sololá	716	San Marcos la Laguna 	11	San Marcos la laguna 	2	Febrero	2023-02-20T00:00:00	2024-11-08T20:00:00	7	Dirección del viento	4.83
178071	7	Sololá	716	San Marcos la Laguna 	11	San Marcos la laguna 	2	Febrero	2023-02-20T00:00:00	2024-11-08T20:00:00	1	Precipitación	0
178072	7	Sololá	716	San Marcos la Laguna 	11	San Marcos la laguna 	2	Febrero	2023-02-20T00:00:00	2024-11-08T20:00:00	8	Radiación solar	0
178073	7	Sololá	716	San Marcos la Laguna 	11	San Marcos la laguna 	2	Febrero	2023-02-20T00:00:00	2024-11-08T21:00:00	2	Temperatura media	17
178074	7	Sololá	716	San Marcos la Laguna 	11	San Marcos la laguna 	2	Febrero	2023-02-20T00:00:00	2024-11-08T21:00:00	4	Temperatura máxima	19.8
178075	7	Sololá	716	San Marcos la Laguna 	11	San Marcos la laguna 	2	Febrero	2023-02-20T00:00:00	2024-11-08T21:00:00	3	Temperatura mínima	17
178076	7	Sololá	716	San Marcos la Laguna 	11	San Marcos la laguna 	2	Febrero	2023-02-20T00:00:00	2024-11-08T21:00:00	5	Humedad	54
178077	7	Sololá	716	San Marcos la Laguna 	11	San Marcos la laguna 	2	Febrero	2023-02-20T00:00:00	2024-11-08T21:00:00	6	Velocidad del viento	8
178078	7	Sololá	716	San Marcos la Laguna 	11	San Marcos la laguna 	2	Febrero	2023-02-20T00:00:00	2024-11-08T21:00:00	7	Dirección del viento	8.05
178079	7	Sololá	716	San Marcos la Laguna 	11	San Marcos la laguna 	2	Febrero	2023-02-20T00:00:00	2024-11-08T21:00:00	1	Precipitación	0
178080	7	Sololá	716	San Marcos la Laguna 	11	San Marcos la laguna 	2	Febrero	2023-02-20T00:00:00	2024-11-08T21:00:00	8	Radiación solar	0
178081	7	Sololá	716	San Marcos la Laguna 	11	San Marcos la laguna 	2	Febrero	2023-02-20T00:00:00	2024-11-08T22:00:00	2	Temperatura media	16.3
178082	7	Sololá	716	San Marcos la Laguna 	11	San Marcos la laguna 	2	Febrero	2023-02-20T00:00:00	2024-11-08T22:00:00	4	Temperatura máxima	17.1
178083	7	Sololá	716	San Marcos la Laguna 	11	San Marcos la laguna 	2	Febrero	2023-02-20T00:00:00	2024-11-08T22:00:00	3	Temperatura mínima	16.2
178084	7	Sololá	716	San Marcos la Laguna 	11	San Marcos la laguna 	2	Febrero	2023-02-20T00:00:00	2024-11-08T22:00:00	5	Humedad	60
178085	7	Sololá	716	San Marcos la Laguna 	11	San Marcos la laguna 	2	Febrero	2023-02-20T00:00:00	2024-11-08T22:00:00	6	Velocidad del viento	6.4
178086	7	Sololá	716	San Marcos la Laguna 	11	San Marcos la laguna 	2	Febrero	2023-02-20T00:00:00	2024-11-08T22:00:00	7	Dirección del viento	6.44
178087	7	Sololá	716	San Marcos la Laguna 	11	San Marcos la laguna 	2	Febrero	2023-02-20T00:00:00	2024-11-08T22:00:00	1	Precipitación	0
178088	7	Sololá	716	San Marcos la Laguna 	11	San Marcos la laguna 	2	Febrero	2023-02-20T00:00:00	2024-11-08T22:00:00	8	Radiación solar	0
178089	7	Sololá	716	San Marcos la Laguna 	11	San Marcos la laguna 	2	Febrero	2023-02-20T00:00:00	2024-11-08T23:00:00	2	Temperatura media	16.3
178090	7	Sololá	716	San Marcos la Laguna 	11	San Marcos la laguna 	2	Febrero	2023-02-20T00:00:00	2024-11-08T23:00:00	4	Temperatura máxima	17.1
178091	7	Sololá	716	San Marcos la Laguna 	11	San Marcos la laguna 	2	Febrero	2023-02-20T00:00:00	2024-11-08T23:00:00	3	Temperatura mínima	15.7
178092	7	Sololá	716	San Marcos la Laguna 	11	San Marcos la laguna 	2	Febrero	2023-02-20T00:00:00	2024-11-08T23:00:00	5	Humedad	62
178093	7	Sololá	716	San Marcos la Laguna 	11	San Marcos la laguna 	2	Febrero	2023-02-20T00:00:00	2024-11-08T23:00:00	6	Velocidad del viento	8
178094	7	Sololá	716	San Marcos la Laguna 	11	San Marcos la laguna 	2	Febrero	2023-02-20T00:00:00	2024-11-08T23:00:00	7	Dirección del viento	8.05
178095	7	Sololá	716	San Marcos la Laguna 	11	San Marcos la laguna 	2	Febrero	2023-02-20T00:00:00	2024-11-08T23:00:00	1	Precipitación	0
178096	7	Sololá	716	San Marcos la Laguna 	11	San Marcos la laguna 	2	Febrero	2023-02-20T00:00:00	2024-11-08T23:00:00	8	Radiación solar	0
178097	7	Sololá	716	San Marcos la Laguna 	11	San Marcos la laguna 	2	Febrero	2023-02-21T00:00:00	2024-11-08T00:00:00	2	Temperatura media	15.6
178098	7	Sololá	716	San Marcos la Laguna 	11	San Marcos la laguna 	2	Febrero	2023-02-21T00:00:00	2024-11-08T00:00:00	4	Temperatura máxima	16.6
178099	7	Sololá	716	San Marcos la Laguna 	11	San Marcos la laguna 	2	Febrero	2023-02-21T00:00:00	2024-11-08T00:00:00	3	Temperatura mínima	15.5
178100	7	Sololá	716	San Marcos la Laguna 	11	San Marcos la laguna 	2	Febrero	2023-02-21T00:00:00	2024-11-08T00:00:00	5	Humedad	64
178101	7	Sololá	716	San Marcos la Laguna 	11	San Marcos la laguna 	2	Febrero	2023-02-21T00:00:00	2024-11-08T00:00:00	6	Velocidad del viento	8
178102	7	Sololá	716	San Marcos la Laguna 	11	San Marcos la laguna 	2	Febrero	2023-02-21T00:00:00	2024-11-08T00:00:00	7	Dirección del viento	8.05
178103	7	Sololá	716	San Marcos la Laguna 	11	San Marcos la laguna 	2	Febrero	2023-02-21T00:00:00	2024-11-08T00:00:00	1	Precipitación	0
178104	7	Sololá	716	San Marcos la Laguna 	11	San Marcos la laguna 	2	Febrero	2023-02-21T00:00:00	2024-11-08T00:00:00	8	Radiación solar	0
178105	7	Sololá	716	San Marcos la Laguna 	11	San Marcos la laguna 	2	Febrero	2023-02-21T00:00:00	2024-11-08T01:00:00	2	Temperatura media	14.7
178106	7	Sololá	716	San Marcos la Laguna 	11	San Marcos la laguna 	2	Febrero	2023-02-21T00:00:00	2024-11-08T01:00:00	4	Temperatura máxima	15.6
178107	7	Sololá	716	San Marcos la Laguna 	11	San Marcos la laguna 	2	Febrero	2023-02-21T00:00:00	2024-11-08T01:00:00	3	Temperatura mínima	14.7
178108	7	Sololá	716	San Marcos la Laguna 	11	San Marcos la laguna 	2	Febrero	2023-02-21T00:00:00	2024-11-08T01:00:00	5	Humedad	69
178109	7	Sololá	716	San Marcos la Laguna 	11	San Marcos la laguna 	2	Febrero	2023-02-21T00:00:00	2024-11-08T01:00:00	6	Velocidad del viento	8
178110	7	Sololá	716	San Marcos la Laguna 	11	San Marcos la laguna 	2	Febrero	2023-02-21T00:00:00	2024-11-08T01:00:00	7	Dirección del viento	8.05
178111	7	Sololá	716	San Marcos la Laguna 	11	San Marcos la laguna 	2	Febrero	2023-02-21T00:00:00	2024-11-08T01:00:00	1	Precipitación	0
178112	7	Sololá	716	San Marcos la Laguna 	11	San Marcos la laguna 	2	Febrero	2023-02-21T00:00:00	2024-11-08T01:00:00	8	Radiación solar	0
178113	7	Sololá	716	San Marcos la Laguna 	11	San Marcos la laguna 	2	Febrero	2023-02-21T00:00:00	2024-11-08T02:00:00	2	Temperatura media	14.3
178114	7	Sololá	716	San Marcos la Laguna 	11	San Marcos la laguna 	2	Febrero	2023-02-21T00:00:00	2024-11-08T02:00:00	4	Temperatura máxima	14.9
178115	7	Sololá	716	San Marcos la Laguna 	11	San Marcos la laguna 	2	Febrero	2023-02-21T00:00:00	2024-11-08T02:00:00	3	Temperatura mínima	14.2
178116	7	Sololá	716	San Marcos la Laguna 	11	San Marcos la laguna 	2	Febrero	2023-02-21T00:00:00	2024-11-08T02:00:00	5	Humedad	70
178117	7	Sololá	716	San Marcos la Laguna 	11	San Marcos la laguna 	2	Febrero	2023-02-21T00:00:00	2024-11-08T02:00:00	6	Velocidad del viento	8
178118	7	Sololá	716	San Marcos la Laguna 	11	San Marcos la laguna 	2	Febrero	2023-02-21T00:00:00	2024-11-08T02:00:00	7	Dirección del viento	8.05
178119	7	Sololá	716	San Marcos la Laguna 	11	San Marcos la laguna 	2	Febrero	2023-02-21T00:00:00	2024-11-08T02:00:00	1	Precipitación	0
178120	7	Sololá	716	San Marcos la Laguna 	11	San Marcos la laguna 	2	Febrero	2023-02-21T00:00:00	2024-11-08T02:00:00	8	Radiación solar	0
178121	7	Sololá	716	San Marcos la Laguna 	11	San Marcos la laguna 	2	Febrero	2023-02-21T00:00:00	2024-11-08T03:00:00	2	Temperatura media	14.2
178122	7	Sololá	716	San Marcos la Laguna 	11	San Marcos la laguna 	2	Febrero	2023-02-21T00:00:00	2024-11-08T03:00:00	4	Temperatura máxima	14.7
178123	7	Sololá	716	San Marcos la Laguna 	11	San Marcos la laguna 	2	Febrero	2023-02-21T00:00:00	2024-11-08T03:00:00	3	Temperatura mínima	14.2
178124	7	Sololá	716	San Marcos la Laguna 	11	San Marcos la laguna 	2	Febrero	2023-02-21T00:00:00	2024-11-08T03:00:00	5	Humedad	73
178125	7	Sololá	716	San Marcos la Laguna 	11	San Marcos la laguna 	2	Febrero	2023-02-21T00:00:00	2024-11-08T03:00:00	6	Velocidad del viento	6.4
178126	7	Sololá	716	San Marcos la Laguna 	11	San Marcos la laguna 	2	Febrero	2023-02-21T00:00:00	2024-11-08T03:00:00	7	Dirección del viento	6.44
178127	7	Sololá	716	San Marcos la Laguna 	11	San Marcos la laguna 	2	Febrero	2023-02-21T00:00:00	2024-11-08T03:00:00	1	Precipitación	0
178128	7	Sololá	716	San Marcos la Laguna 	11	San Marcos la laguna 	2	Febrero	2023-02-21T00:00:00	2024-11-08T03:00:00	8	Radiación solar	0
178129	7	Sololá	716	San Marcos la Laguna 	11	San Marcos la laguna 	2	Febrero	2023-02-21T00:00:00	2024-11-08T04:00:00	2	Temperatura media	13.7
178130	7	Sololá	716	San Marcos la Laguna 	11	San Marcos la laguna 	2	Febrero	2023-02-21T00:00:00	2024-11-08T04:00:00	4	Temperatura máxima	14.3
178131	7	Sololá	716	San Marcos la Laguna 	11	San Marcos la laguna 	2	Febrero	2023-02-21T00:00:00	2024-11-08T04:00:00	3	Temperatura mínima	13.7
178132	7	Sololá	716	San Marcos la Laguna 	11	San Marcos la laguna 	2	Febrero	2023-02-21T00:00:00	2024-11-08T04:00:00	5	Humedad	74
178133	7	Sololá	716	San Marcos la Laguna 	11	San Marcos la laguna 	2	Febrero	2023-02-21T00:00:00	2024-11-08T04:00:00	6	Velocidad del viento	6.4
178134	7	Sololá	716	San Marcos la Laguna 	11	San Marcos la laguna 	2	Febrero	2023-02-21T00:00:00	2024-11-08T04:00:00	7	Dirección del viento	6.44
178135	7	Sololá	716	San Marcos la Laguna 	11	San Marcos la laguna 	2	Febrero	2023-02-21T00:00:00	2024-11-08T04:00:00	1	Precipitación	0
178136	7	Sololá	716	San Marcos la Laguna 	11	San Marcos la laguna 	2	Febrero	2023-02-21T00:00:00	2024-11-08T04:00:00	8	Radiación solar	0
178137	7	Sololá	716	San Marcos la Laguna 	11	San Marcos la laguna 	2	Febrero	2023-02-21T00:00:00	2024-11-08T05:00:00	2	Temperatura media	13.3
178138	7	Sololá	716	San Marcos la Laguna 	11	San Marcos la laguna 	2	Febrero	2023-02-21T00:00:00	2024-11-08T05:00:00	4	Temperatura máxima	13.8
178139	7	Sololá	716	San Marcos la Laguna 	11	San Marcos la laguna 	2	Febrero	2023-02-21T00:00:00	2024-11-08T05:00:00	3	Temperatura mínima	13.3
178140	7	Sololá	716	San Marcos la Laguna 	11	San Marcos la laguna 	2	Febrero	2023-02-21T00:00:00	2024-11-08T05:00:00	5	Humedad	75
178141	7	Sololá	716	San Marcos la Laguna 	11	San Marcos la laguna 	2	Febrero	2023-02-21T00:00:00	2024-11-08T05:00:00	6	Velocidad del viento	6.4
178142	7	Sololá	716	San Marcos la Laguna 	11	San Marcos la laguna 	2	Febrero	2023-02-21T00:00:00	2024-11-08T05:00:00	7	Dirección del viento	6.44
178143	7	Sololá	716	San Marcos la Laguna 	11	San Marcos la laguna 	2	Febrero	2023-02-21T00:00:00	2024-11-08T05:00:00	1	Precipitación	0
178144	7	Sololá	716	San Marcos la Laguna 	11	San Marcos la laguna 	2	Febrero	2023-02-21T00:00:00	2024-11-08T05:00:00	8	Radiación solar	0
178145	7	Sololá	716	San Marcos la Laguna 	11	San Marcos la laguna 	2	Febrero	2023-02-21T00:00:00	2024-11-08T06:00:00	2	Temperatura media	13.2
178146	7	Sololá	716	San Marcos la Laguna 	11	San Marcos la laguna 	2	Febrero	2023-02-21T00:00:00	2024-11-08T06:00:00	4	Temperatura máxima	13.5
178147	7	Sololá	716	San Marcos la Laguna 	11	San Marcos la laguna 	2	Febrero	2023-02-21T00:00:00	2024-11-08T06:00:00	3	Temperatura mínima	13.1
178148	7	Sololá	716	San Marcos la Laguna 	11	San Marcos la laguna 	2	Febrero	2023-02-21T00:00:00	2024-11-08T06:00:00	5	Humedad	77
178149	7	Sololá	716	San Marcos la Laguna 	11	San Marcos la laguna 	2	Febrero	2023-02-21T00:00:00	2024-11-08T06:00:00	6	Velocidad del viento	6.4
178150	7	Sololá	716	San Marcos la Laguna 	11	San Marcos la laguna 	2	Febrero	2023-02-21T00:00:00	2024-11-08T06:00:00	7	Dirección del viento	6.44
178151	7	Sololá	716	San Marcos la Laguna 	11	San Marcos la laguna 	2	Febrero	2023-02-21T00:00:00	2024-11-08T06:00:00	1	Precipitación	0
178152	7	Sololá	716	San Marcos la Laguna 	11	San Marcos la laguna 	2	Febrero	2023-02-21T00:00:00	2024-11-08T06:00:00	8	Radiación solar	0
178153	7	Sololá	716	San Marcos la Laguna 	11	San Marcos la laguna 	2	Febrero	2023-02-21T00:00:00	2024-11-08T07:00:00	2	Temperatura media	14
178154	7	Sololá	716	San Marcos la Laguna 	11	San Marcos la laguna 	2	Febrero	2023-02-21T00:00:00	2024-11-08T07:00:00	4	Temperatura máxima	14
178155	7	Sololá	716	San Marcos la Laguna 	11	San Marcos la laguna 	2	Febrero	2023-02-21T00:00:00	2024-11-08T07:00:00	3	Temperatura mínima	13
178156	7	Sololá	716	San Marcos la Laguna 	11	San Marcos la laguna 	2	Febrero	2023-02-21T00:00:00	2024-11-08T07:00:00	5	Humedad	76
178157	7	Sololá	716	San Marcos la Laguna 	11	San Marcos la laguna 	2	Febrero	2023-02-21T00:00:00	2024-11-08T07:00:00	6	Velocidad del viento	6.4
178158	7	Sololá	716	San Marcos la Laguna 	11	San Marcos la laguna 	2	Febrero	2023-02-21T00:00:00	2024-11-08T07:00:00	7	Dirección del viento	6.44
178159	7	Sololá	716	San Marcos la Laguna 	11	San Marcos la laguna 	2	Febrero	2023-02-21T00:00:00	2024-11-08T07:00:00	1	Precipitación	0
178160	7	Sololá	716	San Marcos la Laguna 	11	San Marcos la laguna 	2	Febrero	2023-02-21T00:00:00	2024-11-08T07:00:00	8	Radiación solar	6
178161	7	Sololá	716	San Marcos la Laguna 	11	San Marcos la laguna 	2	Febrero	2023-02-21T00:00:00	2024-11-08T08:00:00	2	Temperatura media	16.8
178162	7	Sololá	716	San Marcos la Laguna 	11	San Marcos la laguna 	2	Febrero	2023-02-21T00:00:00	2024-11-08T08:00:00	4	Temperatura máxima	16.8
178163	7	Sololá	716	San Marcos la Laguna 	11	San Marcos la laguna 	2	Febrero	2023-02-21T00:00:00	2024-11-08T08:00:00	3	Temperatura mínima	14
178164	7	Sololá	716	San Marcos la Laguna 	11	San Marcos la laguna 	2	Febrero	2023-02-21T00:00:00	2024-11-08T08:00:00	5	Humedad	73
178165	7	Sololá	716	San Marcos la Laguna 	11	San Marcos la laguna 	2	Febrero	2023-02-21T00:00:00	2024-11-08T08:00:00	6	Velocidad del viento	3.2
178166	7	Sololá	716	San Marcos la Laguna 	11	San Marcos la laguna 	2	Febrero	2023-02-21T00:00:00	2024-11-08T08:00:00	7	Dirección del viento	3.22
178167	7	Sololá	716	San Marcos la Laguna 	11	San Marcos la laguna 	2	Febrero	2023-02-21T00:00:00	2024-11-08T08:00:00	1	Precipitación	0
178168	7	Sololá	716	San Marcos la Laguna 	11	San Marcos la laguna 	2	Febrero	2023-02-21T00:00:00	2024-11-08T08:00:00	8	Radiación solar	135
178169	7	Sololá	716	San Marcos la Laguna 	11	San Marcos la laguna 	2	Febrero	2023-02-21T00:00:00	2024-11-08T09:00:00	2	Temperatura media	19.3
178170	7	Sololá	716	San Marcos la Laguna 	11	San Marcos la laguna 	2	Febrero	2023-02-21T00:00:00	2024-11-08T09:00:00	4	Temperatura máxima	19.3
178171	7	Sololá	716	San Marcos la Laguna 	11	San Marcos la laguna 	2	Febrero	2023-02-21T00:00:00	2024-11-08T09:00:00	3	Temperatura mínima	16.8
178172	7	Sololá	716	San Marcos la Laguna 	11	San Marcos la laguna 	2	Febrero	2023-02-21T00:00:00	2024-11-08T09:00:00	5	Humedad	67
178173	7	Sololá	716	San Marcos la Laguna 	11	San Marcos la laguna 	2	Febrero	2023-02-21T00:00:00	2024-11-08T09:00:00	6	Velocidad del viento	1.6
178174	7	Sololá	716	San Marcos la Laguna 	11	San Marcos la laguna 	2	Febrero	2023-02-21T00:00:00	2024-11-08T09:00:00	7	Dirección del viento	1.61
178175	7	Sololá	716	San Marcos la Laguna 	11	San Marcos la laguna 	2	Febrero	2023-02-21T00:00:00	2024-11-08T09:00:00	1	Precipitación	0
178176	7	Sololá	716	San Marcos la Laguna 	11	San Marcos la laguna 	2	Febrero	2023-02-21T00:00:00	2024-11-08T09:00:00	8	Radiación solar	366
178177	7	Sololá	716	San Marcos la Laguna 	11	San Marcos la laguna 	2	Febrero	2023-02-21T00:00:00	2024-11-08T10:00:00	2	Temperatura media	20.7
178178	7	Sololá	716	San Marcos la Laguna 	11	San Marcos la laguna 	2	Febrero	2023-02-21T00:00:00	2024-11-08T10:00:00	4	Temperatura máxima	20.7
178179	7	Sololá	716	San Marcos la Laguna 	11	San Marcos la laguna 	2	Febrero	2023-02-21T00:00:00	2024-11-08T10:00:00	3	Temperatura mínima	19.3
178180	7	Sololá	716	San Marcos la Laguna 	11	San Marcos la laguna 	2	Febrero	2023-02-21T00:00:00	2024-11-08T10:00:00	5	Humedad	61
178181	7	Sololá	716	San Marcos la Laguna 	11	San Marcos la laguna 	2	Febrero	2023-02-21T00:00:00	2024-11-08T10:00:00	6	Velocidad del viento	1.6
178182	7	Sololá	716	San Marcos la Laguna 	11	San Marcos la laguna 	2	Febrero	2023-02-21T00:00:00	2024-11-08T10:00:00	7	Dirección del viento	1.61
178183	7	Sololá	716	San Marcos la Laguna 	11	San Marcos la laguna 	2	Febrero	2023-02-21T00:00:00	2024-11-08T10:00:00	1	Precipitación	0
178184	7	Sololá	716	San Marcos la Laguna 	11	San Marcos la laguna 	2	Febrero	2023-02-21T00:00:00	2024-11-08T10:00:00	8	Radiación solar	566
178185	7	Sololá	716	San Marcos la Laguna 	11	San Marcos la laguna 	2	Febrero	2023-02-21T00:00:00	2024-11-08T11:00:00	2	Temperatura media	22.4
178186	7	Sololá	716	San Marcos la Laguna 	11	San Marcos la laguna 	2	Febrero	2023-02-21T00:00:00	2024-11-08T11:00:00	4	Temperatura máxima	22.4
178187	7	Sololá	716	San Marcos la Laguna 	11	San Marcos la laguna 	2	Febrero	2023-02-21T00:00:00	2024-11-08T11:00:00	3	Temperatura mínima	20.7
178188	7	Sololá	716	San Marcos la Laguna 	11	San Marcos la laguna 	2	Febrero	2023-02-21T00:00:00	2024-11-08T11:00:00	5	Humedad	55
178189	7	Sololá	716	San Marcos la Laguna 	11	San Marcos la laguna 	2	Febrero	2023-02-21T00:00:00	2024-11-08T11:00:00	6	Velocidad del viento	3.2
178190	7	Sololá	716	San Marcos la Laguna 	11	San Marcos la laguna 	2	Febrero	2023-02-21T00:00:00	2024-11-08T11:00:00	7	Dirección del viento	3.22
178191	7	Sololá	716	San Marcos la Laguna 	11	San Marcos la laguna 	2	Febrero	2023-02-21T00:00:00	2024-11-08T11:00:00	1	Precipitación	0
178192	7	Sololá	716	San Marcos la Laguna 	11	San Marcos la laguna 	2	Febrero	2023-02-21T00:00:00	2024-11-08T11:00:00	8	Radiación solar	739
178193	7	Sololá	716	San Marcos la Laguna 	11	San Marcos la laguna 	2	Febrero	2023-02-21T00:00:00	2024-11-08T12:00:00	2	Temperatura media	21.9
178194	7	Sololá	716	San Marcos la Laguna 	11	San Marcos la laguna 	2	Febrero	2023-02-21T00:00:00	2024-11-08T12:00:00	4	Temperatura máxima	22.9
178195	7	Sololá	716	San Marcos la Laguna 	11	San Marcos la laguna 	2	Febrero	2023-02-21T00:00:00	2024-11-08T12:00:00	3	Temperatura mínima	21.6
178196	7	Sololá	716	San Marcos la Laguna 	11	San Marcos la laguna 	2	Febrero	2023-02-21T00:00:00	2024-11-08T12:00:00	5	Humedad	58
178197	7	Sololá	716	San Marcos la Laguna 	11	San Marcos la laguna 	2	Febrero	2023-02-21T00:00:00	2024-11-08T12:00:00	6	Velocidad del viento	6.4
178198	7	Sololá	716	San Marcos la Laguna 	11	San Marcos la laguna 	2	Febrero	2023-02-21T00:00:00	2024-11-08T12:00:00	7	Dirección del viento	6.44
178199	7	Sololá	716	San Marcos la Laguna 	11	San Marcos la laguna 	2	Febrero	2023-02-21T00:00:00	2024-11-08T12:00:00	1	Precipitación	0
178200	7	Sololá	716	San Marcos la Laguna 	11	San Marcos la laguna 	2	Febrero	2023-02-21T00:00:00	2024-11-08T12:00:00	8	Radiación solar	709
178201	7	Sololá	716	San Marcos la Laguna 	11	San Marcos la laguna 	2	Febrero	2023-02-21T00:00:00	2024-11-08T13:00:00	2	Temperatura media	23.1
178202	7	Sololá	716	San Marcos la Laguna 	11	San Marcos la laguna 	2	Febrero	2023-02-21T00:00:00	2024-11-08T13:00:00	4	Temperatura máxima	23.3
178203	7	Sololá	716	San Marcos la Laguna 	11	San Marcos la laguna 	2	Febrero	2023-02-21T00:00:00	2024-11-08T13:00:00	3	Temperatura mínima	21.9
178204	7	Sololá	716	San Marcos la Laguna 	11	San Marcos la laguna 	2	Febrero	2023-02-21T00:00:00	2024-11-08T13:00:00	5	Humedad	55
178205	7	Sololá	716	San Marcos la Laguna 	11	San Marcos la laguna 	2	Febrero	2023-02-21T00:00:00	2024-11-08T13:00:00	6	Velocidad del viento	6.4
178206	7	Sololá	716	San Marcos la Laguna 	11	San Marcos la laguna 	2	Febrero	2023-02-21T00:00:00	2024-11-08T13:00:00	7	Dirección del viento	6.44
178207	7	Sololá	716	San Marcos la Laguna 	11	San Marcos la laguna 	2	Febrero	2023-02-21T00:00:00	2024-11-08T13:00:00	1	Precipitación	0
178208	7	Sololá	716	San Marcos la Laguna 	11	San Marcos la laguna 	2	Febrero	2023-02-21T00:00:00	2024-11-08T13:00:00	8	Radiación solar	828
178209	7	Sololá	716	San Marcos la Laguna 	11	San Marcos la laguna 	2	Febrero	2023-02-21T00:00:00	2024-11-08T14:00:00	2	Temperatura media	23.4
178210	7	Sololá	716	San Marcos la Laguna 	11	San Marcos la laguna 	2	Febrero	2023-02-21T00:00:00	2024-11-08T14:00:00	4	Temperatura máxima	24
178211	7	Sololá	716	San Marcos la Laguna 	11	San Marcos la laguna 	2	Febrero	2023-02-21T00:00:00	2024-11-08T14:00:00	3	Temperatura mínima	23.1
178212	7	Sololá	716	San Marcos la Laguna 	11	San Marcos la laguna 	2	Febrero	2023-02-21T00:00:00	2024-11-08T14:00:00	5	Humedad	59
178213	7	Sololá	716	San Marcos la Laguna 	11	San Marcos la laguna 	2	Febrero	2023-02-21T00:00:00	2024-11-08T14:00:00	6	Velocidad del viento	9.7
178214	7	Sololá	716	San Marcos la Laguna 	11	San Marcos la laguna 	2	Febrero	2023-02-21T00:00:00	2024-11-08T14:00:00	7	Dirección del viento	9.66
178215	7	Sololá	716	San Marcos la Laguna 	11	San Marcos la laguna 	2	Febrero	2023-02-21T00:00:00	2024-11-08T14:00:00	1	Precipitación	0
178216	7	Sololá	716	San Marcos la Laguna 	11	San Marcos la laguna 	2	Febrero	2023-02-21T00:00:00	2024-11-08T14:00:00	8	Radiación solar	817
178217	7	Sololá	716	San Marcos la Laguna 	11	San Marcos la laguna 	2	Febrero	2023-02-21T00:00:00	2024-11-08T15:00:00	2	Temperatura media	23.9
178218	7	Sololá	716	San Marcos la Laguna 	11	San Marcos la laguna 	2	Febrero	2023-02-21T00:00:00	2024-11-08T15:00:00	4	Temperatura máxima	24.3
178219	7	Sololá	716	San Marcos la Laguna 	11	San Marcos la laguna 	2	Febrero	2023-02-21T00:00:00	2024-11-08T15:00:00	3	Temperatura mínima	23.3
178220	7	Sololá	716	San Marcos la Laguna 	11	San Marcos la laguna 	2	Febrero	2023-02-21T00:00:00	2024-11-08T15:00:00	5	Humedad	60
178221	7	Sololá	716	San Marcos la Laguna 	11	San Marcos la laguna 	2	Febrero	2023-02-21T00:00:00	2024-11-08T15:00:00	6	Velocidad del viento	6.4
178222	7	Sololá	716	San Marcos la Laguna 	11	San Marcos la laguna 	2	Febrero	2023-02-21T00:00:00	2024-11-08T15:00:00	7	Dirección del viento	6.44
178223	7	Sololá	716	San Marcos la Laguna 	11	San Marcos la laguna 	2	Febrero	2023-02-21T00:00:00	2024-11-08T15:00:00	1	Precipitación	0
178224	7	Sololá	716	San Marcos la Laguna 	11	San Marcos la laguna 	2	Febrero	2023-02-21T00:00:00	2024-11-08T15:00:00	8	Radiación solar	656
178225	7	Sololá	716	San Marcos la Laguna 	11	San Marcos la laguna 	2	Febrero	2023-02-21T00:00:00	2024-11-08T16:00:00	2	Temperatura media	22.8
178226	7	Sololá	716	San Marcos la Laguna 	11	San Marcos la laguna 	2	Febrero	2023-02-21T00:00:00	2024-11-08T16:00:00	4	Temperatura máxima	24
178227	7	Sololá	716	San Marcos la Laguna 	11	San Marcos la laguna 	2	Febrero	2023-02-21T00:00:00	2024-11-08T16:00:00	3	Temperatura mínima	22.8
178228	7	Sololá	716	San Marcos la Laguna 	11	San Marcos la laguna 	2	Febrero	2023-02-21T00:00:00	2024-11-08T16:00:00	5	Humedad	59
178229	7	Sololá	716	San Marcos la Laguna 	11	San Marcos la laguna 	2	Febrero	2023-02-21T00:00:00	2024-11-08T16:00:00	6	Velocidad del viento	9.7
178230	7	Sololá	716	San Marcos la Laguna 	11	San Marcos la laguna 	2	Febrero	2023-02-21T00:00:00	2024-11-08T16:00:00	7	Dirección del viento	9.66
178231	7	Sololá	716	San Marcos la Laguna 	11	San Marcos la laguna 	2	Febrero	2023-02-21T00:00:00	2024-11-08T16:00:00	1	Precipitación	0
178232	7	Sololá	716	San Marcos la Laguna 	11	San Marcos la laguna 	2	Febrero	2023-02-21T00:00:00	2024-11-08T16:00:00	8	Radiación solar	243
178233	7	Sololá	716	San Marcos la Laguna 	11	San Marcos la laguna 	2	Febrero	2023-02-21T00:00:00	2024-11-08T17:00:00	2	Temperatura media	23.2
178234	7	Sololá	716	San Marcos la Laguna 	11	San Marcos la laguna 	2	Febrero	2023-02-21T00:00:00	2024-11-08T17:00:00	4	Temperatura máxima	23.3
178235	7	Sololá	716	San Marcos la Laguna 	11	San Marcos la laguna 	2	Febrero	2023-02-21T00:00:00	2024-11-08T17:00:00	3	Temperatura mínima	22.5
178236	7	Sololá	716	San Marcos la Laguna 	11	San Marcos la laguna 	2	Febrero	2023-02-21T00:00:00	2024-11-08T17:00:00	5	Humedad	65
178237	7	Sololá	716	San Marcos la Laguna 	11	San Marcos la laguna 	2	Febrero	2023-02-21T00:00:00	2024-11-08T17:00:00	6	Velocidad del viento	6.4
178238	7	Sololá	716	San Marcos la Laguna 	11	San Marcos la laguna 	2	Febrero	2023-02-21T00:00:00	2024-11-08T17:00:00	7	Dirección del viento	6.44
178239	7	Sololá	716	San Marcos la Laguna 	11	San Marcos la laguna 	2	Febrero	2023-02-21T00:00:00	2024-11-08T17:00:00	1	Precipitación	0
178240	7	Sololá	716	San Marcos la Laguna 	11	San Marcos la laguna 	2	Febrero	2023-02-21T00:00:00	2024-11-08T17:00:00	8	Radiación solar	257
178241	7	Sololá	716	San Marcos la Laguna 	11	San Marcos la laguna 	2	Febrero	2023-02-21T00:00:00	2024-11-08T18:00:00	2	Temperatura media	20
178242	7	Sololá	716	San Marcos la Laguna 	11	San Marcos la laguna 	2	Febrero	2023-02-21T00:00:00	2024-11-08T18:00:00	4	Temperatura máxima	23.2
178243	7	Sololá	716	San Marcos la Laguna 	11	San Marcos la laguna 	2	Febrero	2023-02-21T00:00:00	2024-11-08T18:00:00	3	Temperatura mínima	20
178244	7	Sololá	716	San Marcos la Laguna 	11	San Marcos la laguna 	2	Febrero	2023-02-21T00:00:00	2024-11-08T18:00:00	5	Humedad	80
178245	7	Sololá	716	San Marcos la Laguna 	11	San Marcos la laguna 	2	Febrero	2023-02-21T00:00:00	2024-11-08T18:00:00	6	Velocidad del viento	6.4
178246	7	Sololá	716	San Marcos la Laguna 	11	San Marcos la laguna 	2	Febrero	2023-02-21T00:00:00	2024-11-08T18:00:00	7	Dirección del viento	6.44
178247	7	Sololá	716	San Marcos la Laguna 	11	San Marcos la laguna 	2	Febrero	2023-02-21T00:00:00	2024-11-08T18:00:00	1	Precipitación	0
178248	7	Sololá	716	San Marcos la Laguna 	11	San Marcos la laguna 	2	Febrero	2023-02-21T00:00:00	2024-11-08T18:00:00	8	Radiación solar	79
178249	7	Sololá	716	San Marcos la Laguna 	11	San Marcos la laguna 	2	Febrero	2023-02-21T00:00:00	2024-11-08T19:00:00	2	Temperatura media	19.3
178250	7	Sololá	716	San Marcos la Laguna 	11	San Marcos la laguna 	2	Febrero	2023-02-21T00:00:00	2024-11-08T19:00:00	4	Temperatura máxima	20
178251	7	Sololá	716	San Marcos la Laguna 	11	San Marcos la laguna 	2	Febrero	2023-02-21T00:00:00	2024-11-08T19:00:00	3	Temperatura mínima	19.3
178252	7	Sololá	716	San Marcos la Laguna 	11	San Marcos la laguna 	2	Febrero	2023-02-21T00:00:00	2024-11-08T19:00:00	5	Humedad	83
178253	7	Sololá	716	San Marcos la Laguna 	11	San Marcos la laguna 	2	Febrero	2023-02-21T00:00:00	2024-11-08T19:00:00	6	Velocidad del viento	4.8
178254	7	Sololá	716	San Marcos la Laguna 	11	San Marcos la laguna 	2	Febrero	2023-02-21T00:00:00	2024-11-08T19:00:00	7	Dirección del viento	4.83
178255	7	Sololá	716	San Marcos la Laguna 	11	San Marcos la laguna 	2	Febrero	2023-02-21T00:00:00	2024-11-08T19:00:00	1	Precipitación	0
178256	7	Sololá	716	San Marcos la Laguna 	11	San Marcos la laguna 	2	Febrero	2023-02-21T00:00:00	2024-11-08T19:00:00	8	Radiación solar	0
178257	7	Sololá	716	San Marcos la Laguna 	11	San Marcos la laguna 	2	Febrero	2023-02-21T00:00:00	2024-11-08T20:00:00	2	Temperatura media	18.4
178258	7	Sololá	716	San Marcos la Laguna 	11	San Marcos la laguna 	2	Febrero	2023-02-21T00:00:00	2024-11-08T20:00:00	4	Temperatura máxima	19.3
178259	7	Sololá	716	San Marcos la Laguna 	11	San Marcos la laguna 	2	Febrero	2023-02-21T00:00:00	2024-11-08T20:00:00	3	Temperatura mínima	18.4
178260	7	Sololá	716	San Marcos la Laguna 	11	San Marcos la laguna 	2	Febrero	2023-02-21T00:00:00	2024-11-08T20:00:00	5	Humedad	84
178261	7	Sololá	716	San Marcos la Laguna 	11	San Marcos la laguna 	2	Febrero	2023-02-21T00:00:00	2024-11-08T20:00:00	6	Velocidad del viento	1.6
178262	7	Sololá	716	San Marcos la Laguna 	11	San Marcos la laguna 	2	Febrero	2023-02-21T00:00:00	2024-11-08T20:00:00	7	Dirección del viento	1.61
178263	7	Sololá	716	San Marcos la Laguna 	11	San Marcos la laguna 	2	Febrero	2023-02-21T00:00:00	2024-11-08T20:00:00	1	Precipitación	0
178264	7	Sololá	716	San Marcos la Laguna 	11	San Marcos la laguna 	2	Febrero	2023-02-21T00:00:00	2024-11-08T20:00:00	8	Radiación solar	0
178265	7	Sololá	716	San Marcos la Laguna 	11	San Marcos la laguna 	2	Febrero	2023-02-21T00:00:00	2024-11-08T21:00:00	2	Temperatura media	18.4
178266	7	Sololá	716	San Marcos la Laguna 	11	San Marcos la laguna 	2	Febrero	2023-02-21T00:00:00	2024-11-08T21:00:00	4	Temperatura máxima	18.8
178267	7	Sololá	716	San Marcos la Laguna 	11	San Marcos la laguna 	2	Febrero	2023-02-21T00:00:00	2024-11-08T21:00:00	3	Temperatura mínima	18.4
178268	7	Sololá	716	San Marcos la Laguna 	11	San Marcos la laguna 	2	Febrero	2023-02-21T00:00:00	2024-11-08T21:00:00	5	Humedad	78
178269	7	Sololá	716	San Marcos la Laguna 	11	San Marcos la laguna 	2	Febrero	2023-02-21T00:00:00	2024-11-08T21:00:00	6	Velocidad del viento	3.2
178270	7	Sololá	716	San Marcos la Laguna 	11	San Marcos la laguna 	2	Febrero	2023-02-21T00:00:00	2024-11-08T21:00:00	7	Dirección del viento	3.22
178271	7	Sololá	716	San Marcos la Laguna 	11	San Marcos la laguna 	2	Febrero	2023-02-21T00:00:00	2024-11-08T21:00:00	1	Precipitación	0
178272	7	Sololá	716	San Marcos la Laguna 	11	San Marcos la laguna 	2	Febrero	2023-02-21T00:00:00	2024-11-08T21:00:00	8	Radiación solar	0
178273	7	Sololá	716	San Marcos la Laguna 	11	San Marcos la laguna 	2	Febrero	2023-02-21T00:00:00	2024-11-08T22:00:00	2	Temperatura media	17.2
178274	7	Sololá	716	San Marcos la Laguna 	11	San Marcos la laguna 	2	Febrero	2023-02-21T00:00:00	2024-11-08T22:00:00	4	Temperatura máxima	18.4
178275	7	Sololá	716	San Marcos la Laguna 	11	San Marcos la laguna 	2	Febrero	2023-02-21T00:00:00	2024-11-08T22:00:00	3	Temperatura mínima	17.2
178276	7	Sololá	716	San Marcos la Laguna 	11	San Marcos la laguna 	2	Febrero	2023-02-21T00:00:00	2024-11-08T22:00:00	5	Humedad	83
178277	7	Sololá	716	San Marcos la Laguna 	11	San Marcos la laguna 	2	Febrero	2023-02-21T00:00:00	2024-11-08T22:00:00	6	Velocidad del viento	4.8
178278	7	Sololá	716	San Marcos la Laguna 	11	San Marcos la laguna 	2	Febrero	2023-02-21T00:00:00	2024-11-08T22:00:00	7	Dirección del viento	4.83
178279	7	Sololá	716	San Marcos la Laguna 	11	San Marcos la laguna 	2	Febrero	2023-02-21T00:00:00	2024-11-08T22:00:00	1	Precipitación	0
178280	7	Sololá	716	San Marcos la Laguna 	11	San Marcos la laguna 	2	Febrero	2023-02-21T00:00:00	2024-11-08T22:00:00	8	Radiación solar	0
178281	7	Sololá	716	San Marcos la Laguna 	11	San Marcos la laguna 	2	Febrero	2023-02-21T00:00:00	2024-11-08T23:00:00	2	Temperatura media	16.7
178282	7	Sololá	716	San Marcos la Laguna 	11	San Marcos la laguna 	2	Febrero	2023-02-21T00:00:00	2024-11-08T23:00:00	4	Temperatura máxima	17.2
178283	7	Sololá	716	San Marcos la Laguna 	11	San Marcos la laguna 	2	Febrero	2023-02-21T00:00:00	2024-11-08T23:00:00	3	Temperatura mínima	16.6
178284	7	Sololá	716	San Marcos la Laguna 	11	San Marcos la laguna 	2	Febrero	2023-02-21T00:00:00	2024-11-08T23:00:00	5	Humedad	86
178285	7	Sololá	716	San Marcos la Laguna 	11	San Marcos la laguna 	2	Febrero	2023-02-21T00:00:00	2024-11-08T23:00:00	6	Velocidad del viento	4.8
178286	7	Sololá	716	San Marcos la Laguna 	11	San Marcos la laguna 	2	Febrero	2023-02-21T00:00:00	2024-11-08T23:00:00	7	Dirección del viento	4.83
178287	7	Sololá	716	San Marcos la Laguna 	11	San Marcos la laguna 	2	Febrero	2023-02-21T00:00:00	2024-11-08T23:00:00	1	Precipitación	0
178288	7	Sololá	716	San Marcos la Laguna 	11	San Marcos la laguna 	2	Febrero	2023-02-21T00:00:00	2024-11-08T23:00:00	8	Radiación solar	0
178289	7	Sololá	716	San Marcos la Laguna 	11	San Marcos la laguna 	2	Febrero	2023-02-22T00:00:00	2024-11-08T00:00:00	2	Temperatura media	16.6
178290	7	Sololá	716	San Marcos la Laguna 	11	San Marcos la laguna 	2	Febrero	2023-02-22T00:00:00	2024-11-08T00:00:00	4	Temperatura máxima	16.7
178291	7	Sololá	716	San Marcos la Laguna 	11	San Marcos la laguna 	2	Febrero	2023-02-22T00:00:00	2024-11-08T00:00:00	3	Temperatura mínima	16.2
178292	7	Sololá	716	San Marcos la Laguna 	11	San Marcos la laguna 	2	Febrero	2023-02-22T00:00:00	2024-11-08T00:00:00	5	Humedad	88
178293	7	Sololá	716	San Marcos la Laguna 	11	San Marcos la laguna 	2	Febrero	2023-02-22T00:00:00	2024-11-08T00:00:00	6	Velocidad del viento	4.8
178294	7	Sololá	716	San Marcos la Laguna 	11	San Marcos la laguna 	2	Febrero	2023-02-22T00:00:00	2024-11-08T00:00:00	7	Dirección del viento	4.83
178295	7	Sololá	716	San Marcos la Laguna 	11	San Marcos la laguna 	2	Febrero	2023-02-22T00:00:00	2024-11-08T00:00:00	1	Precipitación	0
178296	7	Sololá	716	San Marcos la Laguna 	11	San Marcos la laguna 	2	Febrero	2023-02-22T00:00:00	2024-11-08T00:00:00	8	Radiación solar	0
178297	7	Sololá	716	San Marcos la Laguna 	11	San Marcos la laguna 	2	Febrero	2023-02-22T00:00:00	2024-11-08T01:00:00	2	Temperatura media	15.8
178298	7	Sololá	716	San Marcos la Laguna 	11	San Marcos la laguna 	2	Febrero	2023-02-22T00:00:00	2024-11-08T01:00:00	4	Temperatura máxima	16.9
178299	7	Sololá	716	San Marcos la Laguna 	11	San Marcos la laguna 	2	Febrero	2023-02-22T00:00:00	2024-11-08T01:00:00	3	Temperatura mínima	15.8
178300	7	Sololá	716	San Marcos la Laguna 	11	San Marcos la laguna 	2	Febrero	2023-02-22T00:00:00	2024-11-08T01:00:00	5	Humedad	87
178301	7	Sololá	716	San Marcos la Laguna 	11	San Marcos la laguna 	2	Febrero	2023-02-22T00:00:00	2024-11-08T01:00:00	6	Velocidad del viento	4.8
178302	7	Sololá	716	San Marcos la Laguna 	11	San Marcos la laguna 	2	Febrero	2023-02-22T00:00:00	2024-11-08T01:00:00	7	Dirección del viento	4.83
178303	7	Sololá	716	San Marcos la Laguna 	11	San Marcos la laguna 	2	Febrero	2023-02-22T00:00:00	2024-11-08T01:00:00	1	Precipitación	0
178304	7	Sololá	716	San Marcos la Laguna 	11	San Marcos la laguna 	2	Febrero	2023-02-22T00:00:00	2024-11-08T01:00:00	8	Radiación solar	0
178305	7	Sololá	716	San Marcos la Laguna 	11	San Marcos la laguna 	2	Febrero	2023-02-22T00:00:00	2024-11-08T02:00:00	2	Temperatura media	16.3
178306	7	Sololá	716	San Marcos la Laguna 	11	San Marcos la laguna 	2	Febrero	2023-02-22T00:00:00	2024-11-08T02:00:00	4	Temperatura máxima	16.4
178307	7	Sololá	716	San Marcos la Laguna 	11	San Marcos la laguna 	2	Febrero	2023-02-22T00:00:00	2024-11-08T02:00:00	3	Temperatura mínima	15.8
178308	7	Sololá	716	San Marcos la Laguna 	11	San Marcos la laguna 	2	Febrero	2023-02-22T00:00:00	2024-11-08T02:00:00	5	Humedad	86
178309	7	Sololá	716	San Marcos la Laguna 	11	San Marcos la laguna 	2	Febrero	2023-02-22T00:00:00	2024-11-08T02:00:00	6	Velocidad del viento	4.8
178310	7	Sololá	716	San Marcos la Laguna 	11	San Marcos la laguna 	2	Febrero	2023-02-22T00:00:00	2024-11-08T02:00:00	7	Dirección del viento	4.83
178311	7	Sololá	716	San Marcos la Laguna 	11	San Marcos la laguna 	2	Febrero	2023-02-22T00:00:00	2024-11-08T02:00:00	1	Precipitación	0
178312	7	Sololá	716	San Marcos la Laguna 	11	San Marcos la laguna 	2	Febrero	2023-02-22T00:00:00	2024-11-08T02:00:00	8	Radiación solar	0
178313	7	Sololá	716	San Marcos la Laguna 	11	San Marcos la laguna 	2	Febrero	2023-02-22T00:00:00	2024-11-08T03:00:00	2	Temperatura media	16.9
178314	7	Sololá	716	San Marcos la Laguna 	11	San Marcos la laguna 	2	Febrero	2023-02-22T00:00:00	2024-11-08T03:00:00	4	Temperatura máxima	16.9
178315	7	Sololá	716	San Marcos la Laguna 	11	San Marcos la laguna 	2	Febrero	2023-02-22T00:00:00	2024-11-08T03:00:00	3	Temperatura mínima	16.3
178316	7	Sololá	716	San Marcos la Laguna 	11	San Marcos la laguna 	2	Febrero	2023-02-22T00:00:00	2024-11-08T03:00:00	5	Humedad	86
178317	7	Sololá	716	San Marcos la Laguna 	11	San Marcos la laguna 	2	Febrero	2023-02-22T00:00:00	2024-11-08T03:00:00	6	Velocidad del viento	3.2
178318	7	Sololá	716	San Marcos la Laguna 	11	San Marcos la laguna 	2	Febrero	2023-02-22T00:00:00	2024-11-08T03:00:00	7	Dirección del viento	3.22
178319	7	Sololá	716	San Marcos la Laguna 	11	San Marcos la laguna 	2	Febrero	2023-02-22T00:00:00	2024-11-08T03:00:00	1	Precipitación	0
178320	7	Sololá	716	San Marcos la Laguna 	11	San Marcos la laguna 	2	Febrero	2023-02-22T00:00:00	2024-11-08T03:00:00	8	Radiación solar	0
178321	7	Sololá	716	San Marcos la Laguna 	11	San Marcos la laguna 	2	Febrero	2023-02-22T00:00:00	2024-11-08T04:00:00	2	Temperatura media	16.7
178322	7	Sololá	716	San Marcos la Laguna 	11	San Marcos la laguna 	2	Febrero	2023-02-22T00:00:00	2024-11-08T04:00:00	4	Temperatura máxima	16.9
178323	7	Sololá	716	San Marcos la Laguna 	11	San Marcos la laguna 	2	Febrero	2023-02-22T00:00:00	2024-11-08T04:00:00	3	Temperatura mínima	16.4
178324	7	Sololá	716	San Marcos la Laguna 	11	San Marcos la laguna 	2	Febrero	2023-02-22T00:00:00	2024-11-08T04:00:00	5	Humedad	85
178325	7	Sololá	716	San Marcos la Laguna 	11	San Marcos la laguna 	2	Febrero	2023-02-22T00:00:00	2024-11-08T04:00:00	6	Velocidad del viento	4.8
178326	7	Sololá	716	San Marcos la Laguna 	11	San Marcos la laguna 	2	Febrero	2023-02-22T00:00:00	2024-11-08T04:00:00	7	Dirección del viento	4.83
178327	7	Sololá	716	San Marcos la Laguna 	11	San Marcos la laguna 	2	Febrero	2023-02-22T00:00:00	2024-11-08T04:00:00	1	Precipitación	0
178328	7	Sololá	716	San Marcos la Laguna 	11	San Marcos la laguna 	2	Febrero	2023-02-22T00:00:00	2024-11-08T04:00:00	8	Radiación solar	0
178329	7	Sololá	716	San Marcos la Laguna 	11	San Marcos la laguna 	2	Febrero	2023-02-22T00:00:00	2024-11-08T05:00:00	2	Temperatura media	15.9
178330	7	Sololá	716	San Marcos la Laguna 	11	San Marcos la laguna 	2	Febrero	2023-02-22T00:00:00	2024-11-08T05:00:00	4	Temperatura máxima	16.7
178331	7	Sololá	716	San Marcos la Laguna 	11	San Marcos la laguna 	2	Febrero	2023-02-22T00:00:00	2024-11-08T05:00:00	3	Temperatura mínima	15.9
178332	7	Sololá	716	San Marcos la Laguna 	11	San Marcos la laguna 	2	Febrero	2023-02-22T00:00:00	2024-11-08T05:00:00	5	Humedad	86
178333	7	Sololá	716	San Marcos la Laguna 	11	San Marcos la laguna 	2	Febrero	2023-02-22T00:00:00	2024-11-08T05:00:00	6	Velocidad del viento	3.2
178334	7	Sololá	716	San Marcos la Laguna 	11	San Marcos la laguna 	2	Febrero	2023-02-22T00:00:00	2024-11-08T05:00:00	7	Dirección del viento	3.22
178335	7	Sololá	716	San Marcos la Laguna 	11	San Marcos la laguna 	2	Febrero	2023-02-22T00:00:00	2024-11-08T05:00:00	1	Precipitación	0
178336	7	Sololá	716	San Marcos la Laguna 	11	San Marcos la laguna 	2	Febrero	2023-02-22T00:00:00	2024-11-08T05:00:00	8	Radiación solar	0
178337	7	Sololá	716	San Marcos la Laguna 	11	San Marcos la laguna 	2	Febrero	2023-02-22T00:00:00	2024-11-08T06:00:00	2	Temperatura media	16.2
178338	7	Sololá	716	San Marcos la Laguna 	11	San Marcos la laguna 	2	Febrero	2023-02-22T00:00:00	2024-11-08T06:00:00	4	Temperatura máxima	16.4
178339	7	Sololá	716	San Marcos la Laguna 	11	San Marcos la laguna 	2	Febrero	2023-02-22T00:00:00	2024-11-08T06:00:00	3	Temperatura mínima	15.9
178340	7	Sololá	716	San Marcos la Laguna 	11	San Marcos la laguna 	2	Febrero	2023-02-22T00:00:00	2024-11-08T06:00:00	5	Humedad	86
178341	7	Sololá	716	San Marcos la Laguna 	11	San Marcos la laguna 	2	Febrero	2023-02-22T00:00:00	2024-11-08T06:00:00	6	Velocidad del viento	3.2
178342	7	Sololá	716	San Marcos la Laguna 	11	San Marcos la laguna 	2	Febrero	2023-02-22T00:00:00	2024-11-08T06:00:00	7	Dirección del viento	3.22
178343	7	Sololá	716	San Marcos la Laguna 	11	San Marcos la laguna 	2	Febrero	2023-02-22T00:00:00	2024-11-08T06:00:00	1	Precipitación	0
178344	7	Sololá	716	San Marcos la Laguna 	11	San Marcos la laguna 	2	Febrero	2023-02-22T00:00:00	2024-11-08T06:00:00	8	Radiación solar	0
178345	7	Sololá	716	San Marcos la Laguna 	11	San Marcos la laguna 	2	Febrero	2023-02-22T00:00:00	2024-11-08T07:00:00	2	Temperatura media	15.9
178346	7	Sololá	716	San Marcos la Laguna 	11	San Marcos la laguna 	2	Febrero	2023-02-22T00:00:00	2024-11-08T07:00:00	4	Temperatura máxima	16.1
178347	7	Sololá	716	San Marcos la Laguna 	11	San Marcos la laguna 	2	Febrero	2023-02-22T00:00:00	2024-11-08T07:00:00	3	Temperatura mínima	15.5
178348	7	Sololá	716	San Marcos la Laguna 	11	San Marcos la laguna 	2	Febrero	2023-02-22T00:00:00	2024-11-08T07:00:00	5	Humedad	87
178349	7	Sololá	716	San Marcos la Laguna 	11	San Marcos la laguna 	2	Febrero	2023-02-22T00:00:00	2024-11-08T07:00:00	6	Velocidad del viento	4.8
178350	7	Sololá	716	San Marcos la Laguna 	11	San Marcos la laguna 	2	Febrero	2023-02-22T00:00:00	2024-11-08T07:00:00	7	Dirección del viento	4.83
178351	7	Sololá	716	San Marcos la Laguna 	11	San Marcos la laguna 	2	Febrero	2023-02-22T00:00:00	2024-11-08T07:00:00	1	Precipitación	0
178352	7	Sololá	716	San Marcos la Laguna 	11	San Marcos la laguna 	2	Febrero	2023-02-22T00:00:00	2024-11-08T07:00:00	8	Radiación solar	5
178353	7	Sololá	716	San Marcos la Laguna 	11	San Marcos la laguna 	2	Febrero	2023-02-22T00:00:00	2024-11-08T08:00:00	2	Temperatura media	19
178354	7	Sololá	716	San Marcos la Laguna 	11	San Marcos la laguna 	2	Febrero	2023-02-22T00:00:00	2024-11-08T08:00:00	4	Temperatura máxima	19.1
178355	7	Sololá	716	San Marcos la Laguna 	11	San Marcos la laguna 	2	Febrero	2023-02-22T00:00:00	2024-11-08T08:00:00	3	Temperatura mínima	15.9
178356	7	Sololá	716	San Marcos la Laguna 	11	San Marcos la laguna 	2	Febrero	2023-02-22T00:00:00	2024-11-08T08:00:00	5	Humedad	81
178357	7	Sololá	716	San Marcos la Laguna 	11	San Marcos la laguna 	2	Febrero	2023-02-22T00:00:00	2024-11-08T08:00:00	6	Velocidad del viento	1.6
178358	7	Sololá	716	San Marcos la Laguna 	11	San Marcos la laguna 	2	Febrero	2023-02-22T00:00:00	2024-11-08T08:00:00	7	Dirección del viento	1.61
178359	7	Sololá	716	San Marcos la Laguna 	11	San Marcos la laguna 	2	Febrero	2023-02-22T00:00:00	2024-11-08T08:00:00	1	Precipitación	0
178360	7	Sololá	716	San Marcos la Laguna 	11	San Marcos la laguna 	2	Febrero	2023-02-22T00:00:00	2024-11-08T08:00:00	8	Radiación solar	93
178361	7	Sololá	716	San Marcos la Laguna 	11	San Marcos la laguna 	2	Febrero	2023-02-22T00:00:00	2024-11-08T09:00:00	2	Temperatura media	19.8
178362	7	Sololá	716	San Marcos la Laguna 	11	San Marcos la laguna 	2	Febrero	2023-02-22T00:00:00	2024-11-08T09:00:00	4	Temperatura máxima	19.8
178363	7	Sololá	716	San Marcos la Laguna 	11	San Marcos la laguna 	2	Febrero	2023-02-22T00:00:00	2024-11-08T09:00:00	3	Temperatura mínima	18.8
178364	7	Sololá	716	San Marcos la Laguna 	11	San Marcos la laguna 	2	Febrero	2023-02-22T00:00:00	2024-11-08T09:00:00	5	Humedad	79
178365	7	Sololá	716	San Marcos la Laguna 	11	San Marcos la laguna 	2	Febrero	2023-02-22T00:00:00	2024-11-08T09:00:00	6	Velocidad del viento	1.6
178366	7	Sololá	716	San Marcos la Laguna 	11	San Marcos la laguna 	2	Febrero	2023-02-22T00:00:00	2024-11-08T09:00:00	7	Dirección del viento	1.61
178367	7	Sololá	716	San Marcos la Laguna 	11	San Marcos la laguna 	2	Febrero	2023-02-22T00:00:00	2024-11-08T09:00:00	1	Precipitación	0
178368	7	Sololá	716	San Marcos la Laguna 	11	San Marcos la laguna 	2	Febrero	2023-02-22T00:00:00	2024-11-08T09:00:00	8	Radiación solar	186
178369	7	Sololá	716	San Marcos la Laguna 	11	San Marcos la laguna 	2	Febrero	2023-02-22T00:00:00	2024-11-08T10:00:00	2	Temperatura media	20
178370	7	Sololá	716	San Marcos la Laguna 	11	San Marcos la laguna 	2	Febrero	2023-02-22T00:00:00	2024-11-08T10:00:00	4	Temperatura máxima	20.6
178371	7	Sololá	716	San Marcos la Laguna 	11	San Marcos la laguna 	2	Febrero	2023-02-22T00:00:00	2024-11-08T10:00:00	3	Temperatura mínima	19.8
178372	7	Sololá	716	San Marcos la Laguna 	11	San Marcos la laguna 	2	Febrero	2023-02-22T00:00:00	2024-11-08T10:00:00	5	Humedad	76
178373	7	Sololá	716	San Marcos la Laguna 	11	San Marcos la laguna 	2	Febrero	2023-02-22T00:00:00	2024-11-08T10:00:00	6	Velocidad del viento	8
178374	7	Sololá	716	San Marcos la Laguna 	11	San Marcos la laguna 	2	Febrero	2023-02-22T00:00:00	2024-11-08T10:00:00	7	Dirección del viento	8.05
178375	7	Sololá	716	San Marcos la Laguna 	11	San Marcos la laguna 	2	Febrero	2023-02-22T00:00:00	2024-11-08T10:00:00	1	Precipitación	0
178376	7	Sololá	716	San Marcos la Laguna 	11	San Marcos la laguna 	2	Febrero	2023-02-22T00:00:00	2024-11-08T10:00:00	8	Radiación solar	559
178377	7	Sololá	716	San Marcos la Laguna 	11	San Marcos la laguna 	2	Febrero	2023-02-22T00:00:00	2024-11-08T11:00:00	2	Temperatura media	20.8
178378	7	Sololá	716	San Marcos la Laguna 	11	San Marcos la laguna 	2	Febrero	2023-02-22T00:00:00	2024-11-08T11:00:00	4	Temperatura máxima	20.8
178379	7	Sololá	716	San Marcos la Laguna 	11	San Marcos la laguna 	2	Febrero	2023-02-22T00:00:00	2024-11-08T11:00:00	3	Temperatura mínima	19.9
178380	7	Sololá	716	San Marcos la Laguna 	11	San Marcos la laguna 	2	Febrero	2023-02-22T00:00:00	2024-11-08T11:00:00	5	Humedad	74
178381	7	Sololá	716	San Marcos la Laguna 	11	San Marcos la laguna 	2	Febrero	2023-02-22T00:00:00	2024-11-08T11:00:00	6	Velocidad del viento	11.3
178382	7	Sololá	716	San Marcos la Laguna 	11	San Marcos la laguna 	2	Febrero	2023-02-22T00:00:00	2024-11-08T11:00:00	7	Dirección del viento	11.27
178383	7	Sololá	716	San Marcos la Laguna 	11	San Marcos la laguna 	2	Febrero	2023-02-22T00:00:00	2024-11-08T11:00:00	1	Precipitación	0
178384	7	Sololá	716	San Marcos la Laguna 	11	San Marcos la laguna 	2	Febrero	2023-02-22T00:00:00	2024-11-08T11:00:00	8	Radiación solar	726
178385	7	Sololá	716	San Marcos la Laguna 	11	San Marcos la laguna 	2	Febrero	2023-02-22T00:00:00	2024-11-08T12:00:00	2	Temperatura media	21.8
178386	7	Sololá	716	San Marcos la Laguna 	11	San Marcos la laguna 	2	Febrero	2023-02-22T00:00:00	2024-11-08T12:00:00	4	Temperatura máxima	21.8
178387	7	Sololá	716	San Marcos la Laguna 	11	San Marcos la laguna 	2	Febrero	2023-02-22T00:00:00	2024-11-08T12:00:00	3	Temperatura mínima	20.6
178388	7	Sololá	716	San Marcos la Laguna 	11	San Marcos la laguna 	2	Febrero	2023-02-22T00:00:00	2024-11-08T12:00:00	5	Humedad	67
178389	7	Sololá	716	San Marcos la Laguna 	11	San Marcos la laguna 	2	Febrero	2023-02-22T00:00:00	2024-11-08T12:00:00	6	Velocidad del viento	11.3
178390	7	Sololá	716	San Marcos la Laguna 	11	San Marcos la laguna 	2	Febrero	2023-02-22T00:00:00	2024-11-08T12:00:00	7	Dirección del viento	11.27
178391	7	Sololá	716	San Marcos la Laguna 	11	San Marcos la laguna 	2	Febrero	2023-02-22T00:00:00	2024-11-08T12:00:00	1	Precipitación	0
178392	7	Sololá	716	San Marcos la Laguna 	11	San Marcos la laguna 	2	Febrero	2023-02-22T00:00:00	2024-11-08T12:00:00	8	Radiación solar	722
178393	7	Sololá	716	San Marcos la Laguna 	11	San Marcos la laguna 	2	Febrero	2023-02-22T00:00:00	2024-11-08T13:00:00	2	Temperatura media	22.9
178394	7	Sololá	716	San Marcos la Laguna 	11	San Marcos la laguna 	2	Febrero	2023-02-22T00:00:00	2024-11-08T13:00:00	4	Temperatura máxima	22.9
178395	7	Sololá	716	San Marcos la Laguna 	11	San Marcos la laguna 	2	Febrero	2023-02-22T00:00:00	2024-11-08T13:00:00	3	Temperatura mínima	21.8
178396	7	Sololá	716	San Marcos la Laguna 	11	San Marcos la laguna 	2	Febrero	2023-02-22T00:00:00	2024-11-08T13:00:00	5	Humedad	67
178397	7	Sololá	716	San Marcos la Laguna 	11	San Marcos la laguna 	2	Febrero	2023-02-22T00:00:00	2024-11-08T13:00:00	6	Velocidad del viento	9.7
178398	7	Sololá	716	San Marcos la Laguna 	11	San Marcos la laguna 	2	Febrero	2023-02-22T00:00:00	2024-11-08T13:00:00	7	Dirección del viento	9.66
178399	7	Sololá	716	San Marcos la Laguna 	11	San Marcos la laguna 	2	Febrero	2023-02-22T00:00:00	2024-11-08T13:00:00	1	Precipitación	0
178400	7	Sololá	716	San Marcos la Laguna 	11	San Marcos la laguna 	2	Febrero	2023-02-22T00:00:00	2024-11-08T13:00:00	8	Radiación solar	850
178401	7	Sololá	716	San Marcos la Laguna 	11	San Marcos la laguna 	2	Febrero	2023-02-22T00:00:00	2024-11-08T14:00:00	2	Temperatura media	22.1
178402	7	Sololá	716	San Marcos la Laguna 	11	San Marcos la laguna 	2	Febrero	2023-02-22T00:00:00	2024-11-08T14:00:00	4	Temperatura máxima	22.9
178403	7	Sololá	716	San Marcos la Laguna 	11	San Marcos la laguna 	2	Febrero	2023-02-22T00:00:00	2024-11-08T14:00:00	3	Temperatura mínima	21.9
178404	7	Sololá	716	San Marcos la Laguna 	11	San Marcos la laguna 	2	Febrero	2023-02-22T00:00:00	2024-11-08T14:00:00	5	Humedad	66
178405	7	Sololá	716	San Marcos la Laguna 	11	San Marcos la laguna 	2	Febrero	2023-02-22T00:00:00	2024-11-08T14:00:00	6	Velocidad del viento	11.3
178406	7	Sololá	716	San Marcos la Laguna 	11	San Marcos la laguna 	2	Febrero	2023-02-22T00:00:00	2024-11-08T14:00:00	7	Dirección del viento	11.27
178407	7	Sololá	716	San Marcos la Laguna 	11	San Marcos la laguna 	2	Febrero	2023-02-22T00:00:00	2024-11-08T14:00:00	1	Precipitación	0
178408	7	Sololá	716	San Marcos la Laguna 	11	San Marcos la laguna 	2	Febrero	2023-02-22T00:00:00	2024-11-08T14:00:00	8	Radiación solar	815
178409	7	Sololá	716	San Marcos la Laguna 	11	San Marcos la laguna 	2	Febrero	2023-02-22T00:00:00	2024-11-08T15:00:00	2	Temperatura media	22.7
178410	7	Sololá	716	San Marcos la Laguna 	11	San Marcos la laguna 	2	Febrero	2023-02-22T00:00:00	2024-11-08T15:00:00	4	Temperatura máxima	22.8
178411	7	Sololá	716	San Marcos la Laguna 	11	San Marcos la laguna 	2	Febrero	2023-02-22T00:00:00	2024-11-08T15:00:00	3	Temperatura mínima	21.9
178412	7	Sololá	716	San Marcos la Laguna 	11	San Marcos la laguna 	2	Febrero	2023-02-22T00:00:00	2024-11-08T15:00:00	5	Humedad	68
178413	7	Sololá	716	San Marcos la Laguna 	11	San Marcos la laguna 	2	Febrero	2023-02-22T00:00:00	2024-11-08T15:00:00	6	Velocidad del viento	8
178414	7	Sololá	716	San Marcos la Laguna 	11	San Marcos la laguna 	2	Febrero	2023-02-22T00:00:00	2024-11-08T15:00:00	7	Dirección del viento	8.05
178415	7	Sololá	716	San Marcos la Laguna 	11	San Marcos la laguna 	2	Febrero	2023-02-22T00:00:00	2024-11-08T15:00:00	1	Precipitación	0
178416	7	Sololá	716	San Marcos la Laguna 	11	San Marcos la laguna 	2	Febrero	2023-02-22T00:00:00	2024-11-08T15:00:00	8	Radiación solar	706
178417	7	Sololá	716	San Marcos la Laguna 	11	San Marcos la laguna 	2	Febrero	2023-02-22T00:00:00	2024-11-08T16:00:00	2	Temperatura media	21.6
178418	7	Sololá	716	San Marcos la Laguna 	11	San Marcos la laguna 	2	Febrero	2023-02-22T00:00:00	2024-11-08T16:00:00	4	Temperatura máxima	22.7
178419	7	Sololá	716	San Marcos la Laguna 	11	San Marcos la laguna 	2	Febrero	2023-02-22T00:00:00	2024-11-08T16:00:00	3	Temperatura mínima	21.3
178420	7	Sololá	716	San Marcos la Laguna 	11	San Marcos la laguna 	2	Febrero	2023-02-22T00:00:00	2024-11-08T16:00:00	5	Humedad	69
178421	7	Sololá	716	San Marcos la Laguna 	11	San Marcos la laguna 	2	Febrero	2023-02-22T00:00:00	2024-11-08T16:00:00	6	Velocidad del viento	6.4
178422	7	Sololá	716	San Marcos la Laguna 	11	San Marcos la laguna 	2	Febrero	2023-02-22T00:00:00	2024-11-08T16:00:00	7	Dirección del viento	6.44
178423	7	Sololá	716	San Marcos la Laguna 	11	San Marcos la laguna 	2	Febrero	2023-02-22T00:00:00	2024-11-08T16:00:00	1	Precipitación	0
178424	7	Sololá	716	San Marcos la Laguna 	11	San Marcos la laguna 	2	Febrero	2023-02-22T00:00:00	2024-11-08T16:00:00	8	Radiación solar	356
178425	7	Sololá	716	San Marcos la Laguna 	11	San Marcos la laguna 	2	Febrero	2023-02-22T00:00:00	2024-11-08T17:00:00	2	Temperatura media	22.4
178426	7	Sololá	716	San Marcos la Laguna 	11	San Marcos la laguna 	2	Febrero	2023-02-22T00:00:00	2024-11-08T17:00:00	4	Temperatura máxima	22.4
178427	7	Sololá	716	San Marcos la Laguna 	11	San Marcos la laguna 	2	Febrero	2023-02-22T00:00:00	2024-11-08T17:00:00	3	Temperatura mínima	21.2
178428	7	Sololá	716	San Marcos la Laguna 	11	San Marcos la laguna 	2	Febrero	2023-02-22T00:00:00	2024-11-08T17:00:00	5	Humedad	67
178429	7	Sololá	716	San Marcos la Laguna 	11	San Marcos la laguna 	2	Febrero	2023-02-22T00:00:00	2024-11-08T17:00:00	6	Velocidad del viento	3.2
178430	7	Sololá	716	San Marcos la Laguna 	11	San Marcos la laguna 	2	Febrero	2023-02-22T00:00:00	2024-11-08T17:00:00	7	Dirección del viento	3.22
178431	7	Sololá	716	San Marcos la Laguna 	11	San Marcos la laguna 	2	Febrero	2023-02-22T00:00:00	2024-11-08T17:00:00	1	Precipitación	0
178432	7	Sololá	716	San Marcos la Laguna 	11	San Marcos la laguna 	2	Febrero	2023-02-22T00:00:00	2024-11-08T17:00:00	8	Radiación solar	324
178433	7	Sololá	716	San Marcos la Laguna 	11	San Marcos la laguna 	2	Febrero	2023-02-22T00:00:00	2024-11-08T18:00:00	2	Temperatura media	19.9
178434	7	Sololá	716	San Marcos la Laguna 	11	San Marcos la laguna 	2	Febrero	2023-02-22T00:00:00	2024-11-08T18:00:00	4	Temperatura máxima	22.4
178435	7	Sololá	716	San Marcos la Laguna 	11	San Marcos la laguna 	2	Febrero	2023-02-22T00:00:00	2024-11-08T18:00:00	3	Temperatura mínima	19.9
178436	7	Sololá	716	San Marcos la Laguna 	11	San Marcos la laguna 	2	Febrero	2023-02-22T00:00:00	2024-11-08T18:00:00	5	Humedad	78
178437	7	Sololá	716	San Marcos la Laguna 	11	San Marcos la laguna 	2	Febrero	2023-02-22T00:00:00	2024-11-08T18:00:00	6	Velocidad del viento	6.4
178438	7	Sololá	716	San Marcos la Laguna 	11	San Marcos la laguna 	2	Febrero	2023-02-22T00:00:00	2024-11-08T18:00:00	7	Dirección del viento	6.44
178439	7	Sololá	716	San Marcos la Laguna 	11	San Marcos la laguna 	2	Febrero	2023-02-22T00:00:00	2024-11-08T18:00:00	1	Precipitación	0
178440	7	Sololá	716	San Marcos la Laguna 	11	San Marcos la laguna 	2	Febrero	2023-02-22T00:00:00	2024-11-08T18:00:00	8	Radiación solar	64
178441	7	Sololá	716	San Marcos la Laguna 	11	San Marcos la laguna 	2	Febrero	2023-02-22T00:00:00	2024-11-08T19:00:00	2	Temperatura media	19.3
178442	7	Sololá	716	San Marcos la Laguna 	11	San Marcos la laguna 	2	Febrero	2023-02-22T00:00:00	2024-11-08T19:00:00	4	Temperatura máxima	19.9
178443	7	Sololá	716	San Marcos la Laguna 	11	San Marcos la laguna 	2	Febrero	2023-02-22T00:00:00	2024-11-08T19:00:00	3	Temperatura mínima	19.2
178444	7	Sololá	716	San Marcos la Laguna 	11	San Marcos la laguna 	2	Febrero	2023-02-22T00:00:00	2024-11-08T19:00:00	5	Humedad	81
178445	7	Sololá	716	San Marcos la Laguna 	11	San Marcos la laguna 	2	Febrero	2023-02-22T00:00:00	2024-11-08T19:00:00	6	Velocidad del viento	3.2
178446	7	Sololá	716	San Marcos la Laguna 	11	San Marcos la laguna 	2	Febrero	2023-02-22T00:00:00	2024-11-08T19:00:00	7	Dirección del viento	3.22
178447	7	Sololá	716	San Marcos la Laguna 	11	San Marcos la laguna 	2	Febrero	2023-02-22T00:00:00	2024-11-08T19:00:00	1	Precipitación	0
178448	7	Sololá	716	San Marcos la Laguna 	11	San Marcos la laguna 	2	Febrero	2023-02-22T00:00:00	2024-11-08T19:00:00	8	Radiación solar	0
178449	7	Sololá	716	San Marcos la Laguna 	11	San Marcos la laguna 	2	Febrero	2023-02-22T00:00:00	2024-11-08T20:00:00	2	Temperatura media	19.3
178450	7	Sololá	716	San Marcos la Laguna 	11	San Marcos la laguna 	2	Febrero	2023-02-22T00:00:00	2024-11-08T20:00:00	4	Temperatura máxima	19.3
178451	7	Sololá	716	San Marcos la Laguna 	11	San Marcos la laguna 	2	Febrero	2023-02-22T00:00:00	2024-11-08T20:00:00	3	Temperatura mínima	18.8
178452	7	Sololá	716	San Marcos la Laguna 	11	San Marcos la laguna 	2	Febrero	2023-02-22T00:00:00	2024-11-08T20:00:00	5	Humedad	79
178453	7	Sololá	716	San Marcos la Laguna 	11	San Marcos la laguna 	2	Febrero	2023-02-22T00:00:00	2024-11-08T20:00:00	6	Velocidad del viento	1.6
178454	7	Sololá	716	San Marcos la Laguna 	11	San Marcos la laguna 	2	Febrero	2023-02-22T00:00:00	2024-11-08T20:00:00	7	Dirección del viento	1.61
178455	7	Sololá	716	San Marcos la Laguna 	11	San Marcos la laguna 	2	Febrero	2023-02-22T00:00:00	2024-11-08T20:00:00	1	Precipitación	0
178456	7	Sololá	716	San Marcos la Laguna 	11	San Marcos la laguna 	2	Febrero	2023-02-22T00:00:00	2024-11-08T20:00:00	8	Radiación solar	0
178457	7	Sololá	716	San Marcos la Laguna 	11	San Marcos la laguna 	2	Febrero	2023-02-22T00:00:00	2024-11-08T21:00:00	2	Temperatura media	18.8
178458	7	Sololá	716	San Marcos la Laguna 	11	San Marcos la laguna 	2	Febrero	2023-02-22T00:00:00	2024-11-08T21:00:00	4	Temperatura máxima	19.4
178459	7	Sololá	716	San Marcos la Laguna 	11	San Marcos la laguna 	2	Febrero	2023-02-22T00:00:00	2024-11-08T21:00:00	3	Temperatura mínima	18.8
178460	7	Sololá	716	San Marcos la Laguna 	11	San Marcos la laguna 	2	Febrero	2023-02-22T00:00:00	2024-11-08T21:00:00	5	Humedad	83
178461	7	Sololá	716	San Marcos la Laguna 	11	San Marcos la laguna 	2	Febrero	2023-02-22T00:00:00	2024-11-08T21:00:00	6	Velocidad del viento	1.6
178462	7	Sololá	716	San Marcos la Laguna 	11	San Marcos la laguna 	2	Febrero	2023-02-22T00:00:00	2024-11-08T21:00:00	7	Dirección del viento	1.61
178463	7	Sololá	716	San Marcos la Laguna 	11	San Marcos la laguna 	2	Febrero	2023-02-22T00:00:00	2024-11-08T21:00:00	1	Precipitación	0
178464	7	Sololá	716	San Marcos la Laguna 	11	San Marcos la laguna 	2	Febrero	2023-02-22T00:00:00	2024-11-08T21:00:00	8	Radiación solar	0
178465	7	Sololá	716	San Marcos la Laguna 	11	San Marcos la laguna 	2	Febrero	2023-02-22T00:00:00	2024-11-08T22:00:00	2	Temperatura media	18.3
178466	7	Sololá	716	San Marcos la Laguna 	11	San Marcos la laguna 	2	Febrero	2023-02-22T00:00:00	2024-11-08T22:00:00	4	Temperatura máxima	18.8
178467	7	Sololá	716	San Marcos la Laguna 	11	San Marcos la laguna 	2	Febrero	2023-02-22T00:00:00	2024-11-08T22:00:00	3	Temperatura mínima	18.3
178468	7	Sololá	716	San Marcos la Laguna 	11	San Marcos la laguna 	2	Febrero	2023-02-22T00:00:00	2024-11-08T22:00:00	5	Humedad	83
178469	7	Sololá	716	San Marcos la Laguna 	11	San Marcos la laguna 	2	Febrero	2023-02-22T00:00:00	2024-11-08T22:00:00	6	Velocidad del viento	1.6
178470	7	Sololá	716	San Marcos la Laguna 	11	San Marcos la laguna 	2	Febrero	2023-02-22T00:00:00	2024-11-08T22:00:00	7	Dirección del viento	1.61
178471	7	Sololá	716	San Marcos la Laguna 	11	San Marcos la laguna 	2	Febrero	2023-02-22T00:00:00	2024-11-08T22:00:00	1	Precipitación	0
178472	7	Sololá	716	San Marcos la Laguna 	11	San Marcos la laguna 	2	Febrero	2023-02-22T00:00:00	2024-11-08T22:00:00	8	Radiación solar	0
178473	7	Sololá	716	San Marcos la Laguna 	11	San Marcos la laguna 	2	Febrero	2023-02-22T00:00:00	2024-11-08T23:00:00	2	Temperatura media	18.1
178474	7	Sololá	716	San Marcos la Laguna 	11	San Marcos la laguna 	2	Febrero	2023-02-22T00:00:00	2024-11-08T23:00:00	4	Temperatura máxima	18.4
178475	7	Sololá	716	San Marcos la Laguna 	11	San Marcos la laguna 	2	Febrero	2023-02-22T00:00:00	2024-11-08T23:00:00	3	Temperatura mínima	18.1
178476	7	Sololá	716	San Marcos la Laguna 	11	San Marcos la laguna 	2	Febrero	2023-02-22T00:00:00	2024-11-08T23:00:00	5	Humedad	86
178477	7	Sololá	716	San Marcos la Laguna 	11	San Marcos la laguna 	2	Febrero	2023-02-22T00:00:00	2024-11-08T23:00:00	6	Velocidad del viento	3.2
178478	7	Sololá	716	San Marcos la Laguna 	11	San Marcos la laguna 	2	Febrero	2023-02-22T00:00:00	2024-11-08T23:00:00	7	Dirección del viento	3.22
178479	7	Sololá	716	San Marcos la Laguna 	11	San Marcos la laguna 	2	Febrero	2023-02-22T00:00:00	2024-11-08T23:00:00	1	Precipitación	0
178480	7	Sololá	716	San Marcos la Laguna 	11	San Marcos la laguna 	2	Febrero	2023-02-22T00:00:00	2024-11-08T23:00:00	8	Radiación solar	0
178481	7	Sololá	716	San Marcos la Laguna 	11	San Marcos la laguna 	2	Febrero	2023-02-23T00:00:00	2024-11-08T00:00:00	2	Temperatura media	17.9
178482	7	Sololá	716	San Marcos la Laguna 	11	San Marcos la laguna 	2	Febrero	2023-02-23T00:00:00	2024-11-08T00:00:00	4	Temperatura máxima	18.1
178483	7	Sololá	716	San Marcos la Laguna 	11	San Marcos la laguna 	2	Febrero	2023-02-23T00:00:00	2024-11-08T00:00:00	3	Temperatura mínima	17.8
178484	7	Sololá	716	San Marcos la Laguna 	11	San Marcos la laguna 	2	Febrero	2023-02-23T00:00:00	2024-11-08T00:00:00	5	Humedad	82
178485	7	Sololá	716	San Marcos la Laguna 	11	San Marcos la laguna 	2	Febrero	2023-02-23T00:00:00	2024-11-08T00:00:00	6	Velocidad del viento	1.6
178486	7	Sololá	716	San Marcos la Laguna 	11	San Marcos la laguna 	2	Febrero	2023-02-23T00:00:00	2024-11-08T00:00:00	7	Dirección del viento	1.61
178487	7	Sololá	716	San Marcos la Laguna 	11	San Marcos la laguna 	2	Febrero	2023-02-23T00:00:00	2024-11-08T00:00:00	1	Precipitación	0
178488	7	Sololá	716	San Marcos la Laguna 	11	San Marcos la laguna 	2	Febrero	2023-02-23T00:00:00	2024-11-08T00:00:00	8	Radiación solar	0
178489	7	Sololá	716	San Marcos la Laguna 	11	San Marcos la laguna 	2	Febrero	2023-02-23T00:00:00	2024-11-08T01:00:00	2	Temperatura media	17.2
178490	7	Sololá	716	San Marcos la Laguna 	11	San Marcos la laguna 	2	Febrero	2023-02-23T00:00:00	2024-11-08T01:00:00	4	Temperatura máxima	17.9
178491	7	Sololá	716	San Marcos la Laguna 	11	San Marcos la laguna 	2	Febrero	2023-02-23T00:00:00	2024-11-08T01:00:00	3	Temperatura mínima	17
178492	7	Sololá	716	San Marcos la Laguna 	11	San Marcos la laguna 	2	Febrero	2023-02-23T00:00:00	2024-11-08T01:00:00	5	Humedad	84
178493	7	Sololá	716	San Marcos la Laguna 	11	San Marcos la laguna 	2	Febrero	2023-02-23T00:00:00	2024-11-08T01:00:00	6	Velocidad del viento	1.6
178494	7	Sololá	716	San Marcos la Laguna 	11	San Marcos la laguna 	2	Febrero	2023-02-23T00:00:00	2024-11-08T01:00:00	7	Dirección del viento	1.61
178495	7	Sololá	716	San Marcos la Laguna 	11	San Marcos la laguna 	2	Febrero	2023-02-23T00:00:00	2024-11-08T01:00:00	1	Precipitación	0
178496	7	Sololá	716	San Marcos la Laguna 	11	San Marcos la laguna 	2	Febrero	2023-02-23T00:00:00	2024-11-08T01:00:00	8	Radiación solar	0
178497	7	Sololá	716	San Marcos la Laguna 	11	San Marcos la laguna 	2	Febrero	2023-02-23T00:00:00	2024-11-08T02:00:00	2	Temperatura media	17.1
178498	7	Sololá	716	San Marcos la Laguna 	11	San Marcos la laguna 	2	Febrero	2023-02-23T00:00:00	2024-11-08T02:00:00	4	Temperatura máxima	17.6
178499	7	Sololá	716	San Marcos la Laguna 	11	San Marcos la laguna 	2	Febrero	2023-02-23T00:00:00	2024-11-08T02:00:00	3	Temperatura mínima	17.1
178500	7	Sololá	716	San Marcos la Laguna 	11	San Marcos la laguna 	2	Febrero	2023-02-23T00:00:00	2024-11-08T02:00:00	5	Humedad	85
178501	7	Sololá	716	San Marcos la Laguna 	11	San Marcos la laguna 	2	Febrero	2023-02-23T00:00:00	2024-11-08T02:00:00	6	Velocidad del viento	3.2
178502	7	Sololá	716	San Marcos la Laguna 	11	San Marcos la laguna 	2	Febrero	2023-02-23T00:00:00	2024-11-08T02:00:00	7	Dirección del viento	3.22
178503	7	Sololá	716	San Marcos la Laguna 	11	San Marcos la laguna 	2	Febrero	2023-02-23T00:00:00	2024-11-08T02:00:00	1	Precipitación	0
178504	7	Sololá	716	San Marcos la Laguna 	11	San Marcos la laguna 	2	Febrero	2023-02-23T00:00:00	2024-11-08T02:00:00	8	Radiación solar	0
178505	7	Sololá	716	San Marcos la Laguna 	11	San Marcos la laguna 	2	Febrero	2023-02-23T00:00:00	2024-11-08T03:00:00	2	Temperatura media	17.7
178506	7	Sololá	716	San Marcos la Laguna 	11	San Marcos la laguna 	2	Febrero	2023-02-23T00:00:00	2024-11-08T03:00:00	4	Temperatura máxima	17.7
178507	7	Sololá	716	San Marcos la Laguna 	11	San Marcos la laguna 	2	Febrero	2023-02-23T00:00:00	2024-11-08T03:00:00	3	Temperatura mínima	16.8
178508	7	Sololá	716	San Marcos la Laguna 	11	San Marcos la laguna 	2	Febrero	2023-02-23T00:00:00	2024-11-08T03:00:00	5	Humedad	84
178509	7	Sololá	716	San Marcos la Laguna 	11	San Marcos la laguna 	2	Febrero	2023-02-23T00:00:00	2024-11-08T03:00:00	6	Velocidad del viento	3.2
178510	7	Sololá	716	San Marcos la Laguna 	11	San Marcos la laguna 	2	Febrero	2023-02-23T00:00:00	2024-11-08T03:00:00	7	Dirección del viento	3.22
178511	7	Sololá	716	San Marcos la Laguna 	11	San Marcos la laguna 	2	Febrero	2023-02-23T00:00:00	2024-11-08T03:00:00	1	Precipitación	0
178512	7	Sololá	716	San Marcos la Laguna 	11	San Marcos la laguna 	2	Febrero	2023-02-23T00:00:00	2024-11-08T03:00:00	8	Radiación solar	0
178513	7	Sololá	716	San Marcos la Laguna 	11	San Marcos la laguna 	2	Febrero	2023-02-23T00:00:00	2024-11-08T04:00:00	2	Temperatura media	17.1
178514	7	Sololá	716	San Marcos la Laguna 	11	San Marcos la laguna 	2	Febrero	2023-02-23T00:00:00	2024-11-08T04:00:00	4	Temperatura máxima	17.8
178515	7	Sololá	716	San Marcos la Laguna 	11	San Marcos la laguna 	2	Febrero	2023-02-23T00:00:00	2024-11-08T04:00:00	3	Temperatura mínima	17.1
178516	7	Sololá	716	San Marcos la Laguna 	11	San Marcos la laguna 	2	Febrero	2023-02-23T00:00:00	2024-11-08T04:00:00	5	Humedad	85
178517	7	Sololá	716	San Marcos la Laguna 	11	San Marcos la laguna 	2	Febrero	2023-02-23T00:00:00	2024-11-08T04:00:00	6	Velocidad del viento	6.4
178518	7	Sololá	716	San Marcos la Laguna 	11	San Marcos la laguna 	2	Febrero	2023-02-23T00:00:00	2024-11-08T04:00:00	7	Dirección del viento	6.44
178519	7	Sololá	716	San Marcos la Laguna 	11	San Marcos la laguna 	2	Febrero	2023-02-23T00:00:00	2024-11-08T04:00:00	1	Precipitación	0
178520	7	Sololá	716	San Marcos la Laguna 	11	San Marcos la laguna 	2	Febrero	2023-02-23T00:00:00	2024-11-08T04:00:00	8	Radiación solar	0
178521	7	Sololá	716	San Marcos la Laguna 	11	San Marcos la laguna 	2	Febrero	2023-02-23T00:00:00	2024-11-08T05:00:00	2	Temperatura media	16.7
178522	7	Sololá	716	San Marcos la Laguna 	11	San Marcos la laguna 	2	Febrero	2023-02-23T00:00:00	2024-11-08T05:00:00	4	Temperatura máxima	17.1
178523	7	Sololá	716	San Marcos la Laguna 	11	San Marcos la laguna 	2	Febrero	2023-02-23T00:00:00	2024-11-08T05:00:00	3	Temperatura mínima	16.7
178524	7	Sololá	716	San Marcos la Laguna 	11	San Marcos la laguna 	2	Febrero	2023-02-23T00:00:00	2024-11-08T05:00:00	5	Humedad	85
178525	7	Sololá	716	San Marcos la Laguna 	11	San Marcos la laguna 	2	Febrero	2023-02-23T00:00:00	2024-11-08T05:00:00	6	Velocidad del viento	4.8
178526	7	Sololá	716	San Marcos la Laguna 	11	San Marcos la laguna 	2	Febrero	2023-02-23T00:00:00	2024-11-08T05:00:00	7	Dirección del viento	4.83
178527	7	Sololá	716	San Marcos la Laguna 	11	San Marcos la laguna 	2	Febrero	2023-02-23T00:00:00	2024-11-08T05:00:00	1	Precipitación	0
178528	7	Sololá	716	San Marcos la Laguna 	11	San Marcos la laguna 	2	Febrero	2023-02-23T00:00:00	2024-11-08T05:00:00	8	Radiación solar	0
178529	7	Sololá	716	San Marcos la Laguna 	11	San Marcos la laguna 	2	Febrero	2023-02-23T00:00:00	2024-11-08T06:00:00	2	Temperatura media	16.2
178530	7	Sololá	716	San Marcos la Laguna 	11	San Marcos la laguna 	2	Febrero	2023-02-23T00:00:00	2024-11-08T06:00:00	4	Temperatura máxima	17.2
178531	7	Sololá	716	San Marcos la Laguna 	11	San Marcos la laguna 	2	Febrero	2023-02-23T00:00:00	2024-11-08T06:00:00	3	Temperatura mínima	16.2
178532	7	Sololá	716	San Marcos la Laguna 	11	San Marcos la laguna 	2	Febrero	2023-02-23T00:00:00	2024-11-08T06:00:00	5	Humedad	82
178533	7	Sololá	716	San Marcos la Laguna 	11	San Marcos la laguna 	2	Febrero	2023-02-23T00:00:00	2024-11-08T06:00:00	6	Velocidad del viento	3.2
178534	7	Sololá	716	San Marcos la Laguna 	11	San Marcos la laguna 	2	Febrero	2023-02-23T00:00:00	2024-11-08T06:00:00	7	Dirección del viento	3.22
178535	7	Sololá	716	San Marcos la Laguna 	11	San Marcos la laguna 	2	Febrero	2023-02-23T00:00:00	2024-11-08T06:00:00	1	Precipitación	0
178536	7	Sololá	716	San Marcos la Laguna 	11	San Marcos la laguna 	2	Febrero	2023-02-23T00:00:00	2024-11-08T06:00:00	8	Radiación solar	0
178537	7	Sololá	716	San Marcos la Laguna 	11	San Marcos la laguna 	2	Febrero	2023-02-23T00:00:00	2024-11-08T07:00:00	2	Temperatura media	15.6
178538	7	Sololá	716	San Marcos la Laguna 	11	San Marcos la laguna 	2	Febrero	2023-02-23T00:00:00	2024-11-08T07:00:00	4	Temperatura máxima	16.2
178539	7	Sololá	716	San Marcos la Laguna 	11	San Marcos la laguna 	2	Febrero	2023-02-23T00:00:00	2024-11-08T07:00:00	3	Temperatura mínima	15.4
178540	7	Sololá	716	San Marcos la Laguna 	11	San Marcos la laguna 	2	Febrero	2023-02-23T00:00:00	2024-11-08T07:00:00	5	Humedad	80
178541	7	Sololá	716	San Marcos la Laguna 	11	San Marcos la laguna 	2	Febrero	2023-02-23T00:00:00	2024-11-08T07:00:00	6	Velocidad del viento	3.2
178542	7	Sololá	716	San Marcos la Laguna 	11	San Marcos la laguna 	2	Febrero	2023-02-23T00:00:00	2024-11-08T07:00:00	7	Dirección del viento	3.22
178543	7	Sololá	716	San Marcos la Laguna 	11	San Marcos la laguna 	2	Febrero	2023-02-23T00:00:00	2024-11-08T07:00:00	1	Precipitación	0
178544	7	Sololá	716	San Marcos la Laguna 	11	San Marcos la laguna 	2	Febrero	2023-02-23T00:00:00	2024-11-08T07:00:00	8	Radiación solar	5
178545	7	Sololá	716	San Marcos la Laguna 	11	San Marcos la laguna 	2	Febrero	2023-02-23T00:00:00	2024-11-08T08:00:00	2	Temperatura media	17.6
178546	7	Sololá	716	San Marcos la Laguna 	11	San Marcos la laguna 	2	Febrero	2023-02-23T00:00:00	2024-11-08T08:00:00	4	Temperatura máxima	17.8
178547	7	Sololá	716	San Marcos la Laguna 	11	San Marcos la laguna 	2	Febrero	2023-02-23T00:00:00	2024-11-08T08:00:00	3	Temperatura mínima	15.5
178548	7	Sololá	716	San Marcos la Laguna 	11	San Marcos la laguna 	2	Febrero	2023-02-23T00:00:00	2024-11-08T08:00:00	5	Humedad	71
178549	7	Sololá	716	San Marcos la Laguna 	11	San Marcos la laguna 	2	Febrero	2023-02-23T00:00:00	2024-11-08T08:00:00	6	Velocidad del viento	8
178550	7	Sololá	716	San Marcos la Laguna 	11	San Marcos la laguna 	2	Febrero	2023-02-23T00:00:00	2024-11-08T08:00:00	7	Dirección del viento	8.05
178551	7	Sololá	716	San Marcos la Laguna 	11	San Marcos la laguna 	2	Febrero	2023-02-23T00:00:00	2024-11-08T08:00:00	1	Precipitación	0
178552	7	Sololá	716	San Marcos la Laguna 	11	San Marcos la laguna 	2	Febrero	2023-02-23T00:00:00	2024-11-08T08:00:00	8	Radiación solar	131
178553	7	Sololá	716	San Marcos la Laguna 	11	San Marcos la laguna 	2	Febrero	2023-02-23T00:00:00	2024-11-08T09:00:00	2	Temperatura media	18.2
178554	7	Sololá	716	San Marcos la Laguna 	11	San Marcos la laguna 	2	Febrero	2023-02-23T00:00:00	2024-11-08T09:00:00	4	Temperatura máxima	18.3
178555	7	Sololá	716	San Marcos la Laguna 	11	San Marcos la laguna 	2	Febrero	2023-02-23T00:00:00	2024-11-08T09:00:00	3	Temperatura mínima	17.5
178556	7	Sololá	716	San Marcos la Laguna 	11	San Marcos la laguna 	2	Febrero	2023-02-23T00:00:00	2024-11-08T09:00:00	5	Humedad	70
178557	7	Sololá	716	San Marcos la Laguna 	11	San Marcos la laguna 	2	Febrero	2023-02-23T00:00:00	2024-11-08T09:00:00	6	Velocidad del viento	12.9
178558	7	Sololá	716	San Marcos la Laguna 	11	San Marcos la laguna 	2	Febrero	2023-02-23T00:00:00	2024-11-08T09:00:00	7	Dirección del viento	12.87
178559	7	Sololá	716	San Marcos la Laguna 	11	San Marcos la laguna 	2	Febrero	2023-02-23T00:00:00	2024-11-08T09:00:00	1	Precipitación	0
178560	7	Sololá	716	San Marcos la Laguna 	11	San Marcos la laguna 	2	Febrero	2023-02-23T00:00:00	2024-11-08T09:00:00	8	Radiación solar	373
178561	7	Sololá	716	San Marcos la Laguna 	11	San Marcos la laguna 	2	Febrero	2023-02-23T00:00:00	2024-11-08T10:00:00	2	Temperatura media	19.4
178562	7	Sololá	716	San Marcos la Laguna 	11	San Marcos la laguna 	2	Febrero	2023-02-23T00:00:00	2024-11-08T10:00:00	4	Temperatura máxima	19.4
178563	7	Sololá	716	San Marcos la Laguna 	11	San Marcos la laguna 	2	Febrero	2023-02-23T00:00:00	2024-11-08T10:00:00	3	Temperatura mínima	18.2
178564	7	Sololá	716	San Marcos la Laguna 	11	San Marcos la laguna 	2	Febrero	2023-02-23T00:00:00	2024-11-08T10:00:00	5	Humedad	66
178565	7	Sololá	716	San Marcos la Laguna 	11	San Marcos la laguna 	2	Febrero	2023-02-23T00:00:00	2024-11-08T10:00:00	6	Velocidad del viento	8
178566	7	Sololá	716	San Marcos la Laguna 	11	San Marcos la laguna 	2	Febrero	2023-02-23T00:00:00	2024-11-08T10:00:00	7	Dirección del viento	8.05
178567	7	Sololá	716	San Marcos la Laguna 	11	San Marcos la laguna 	2	Febrero	2023-02-23T00:00:00	2024-11-08T10:00:00	1	Precipitación	0
178568	7	Sololá	716	San Marcos la Laguna 	11	San Marcos la laguna 	2	Febrero	2023-02-23T00:00:00	2024-11-08T10:00:00	8	Radiación solar	572
178569	7	Sololá	716	San Marcos la Laguna 	11	San Marcos la laguna 	2	Febrero	2023-02-23T00:00:00	2024-11-08T11:00:00	2	Temperatura media	21.6
178570	7	Sololá	716	San Marcos la Laguna 	11	San Marcos la laguna 	2	Febrero	2023-02-23T00:00:00	2024-11-08T11:00:00	4	Temperatura máxima	21.6
178571	7	Sololá	716	San Marcos la Laguna 	11	San Marcos la laguna 	2	Febrero	2023-02-23T00:00:00	2024-11-08T11:00:00	3	Temperatura mínima	19.4
178572	7	Sololá	716	San Marcos la Laguna 	11	San Marcos la laguna 	2	Febrero	2023-02-23T00:00:00	2024-11-08T11:00:00	5	Humedad	58
178573	7	Sololá	716	San Marcos la Laguna 	11	San Marcos la laguna 	2	Febrero	2023-02-23T00:00:00	2024-11-08T11:00:00	6	Velocidad del viento	4.8
178574	7	Sololá	716	San Marcos la Laguna 	11	San Marcos la laguna 	2	Febrero	2023-02-23T00:00:00	2024-11-08T11:00:00	7	Dirección del viento	4.83
178575	7	Sololá	716	San Marcos la Laguna 	11	San Marcos la laguna 	2	Febrero	2023-02-23T00:00:00	2024-11-08T11:00:00	1	Precipitación	0
178576	7	Sololá	716	San Marcos la Laguna 	11	San Marcos la laguna 	2	Febrero	2023-02-23T00:00:00	2024-11-08T11:00:00	8	Radiación solar	736
178577	7	Sololá	716	San Marcos la Laguna 	11	San Marcos la laguna 	2	Febrero	2023-02-23T00:00:00	2024-11-08T12:00:00	2	Temperatura media	21.7
178578	7	Sololá	716	San Marcos la Laguna 	11	San Marcos la laguna 	2	Febrero	2023-02-23T00:00:00	2024-11-08T12:00:00	4	Temperatura máxima	22.7
178579	7	Sololá	716	San Marcos la Laguna 	11	San Marcos la laguna 	2	Febrero	2023-02-23T00:00:00	2024-11-08T12:00:00	3	Temperatura mínima	21.5
178580	7	Sololá	716	San Marcos la Laguna 	11	San Marcos la laguna 	2	Febrero	2023-02-23T00:00:00	2024-11-08T12:00:00	5	Humedad	61
178581	7	Sololá	716	San Marcos la Laguna 	11	San Marcos la laguna 	2	Febrero	2023-02-23T00:00:00	2024-11-08T12:00:00	6	Velocidad del viento	4.8
178582	7	Sololá	716	San Marcos la Laguna 	11	San Marcos la laguna 	2	Febrero	2023-02-23T00:00:00	2024-11-08T12:00:00	7	Dirección del viento	4.83
178583	7	Sololá	716	San Marcos la Laguna 	11	San Marcos la laguna 	2	Febrero	2023-02-23T00:00:00	2024-11-08T12:00:00	1	Precipitación	0
178584	7	Sololá	716	San Marcos la Laguna 	11	San Marcos la laguna 	2	Febrero	2023-02-23T00:00:00	2024-11-08T12:00:00	8	Radiación solar	772
178585	7	Sololá	716	San Marcos la Laguna 	11	San Marcos la laguna 	2	Febrero	2023-02-23T00:00:00	2024-11-08T13:00:00	2	Temperatura media	20.8
178586	7	Sololá	716	San Marcos la Laguna 	11	San Marcos la laguna 	2	Febrero	2023-02-23T00:00:00	2024-11-08T13:00:00	4	Temperatura máxima	21.7
178587	7	Sololá	716	San Marcos la Laguna 	11	San Marcos la laguna 	2	Febrero	2023-02-23T00:00:00	2024-11-08T13:00:00	3	Temperatura mínima	20.8
178588	7	Sololá	716	San Marcos la Laguna 	11	San Marcos la laguna 	2	Febrero	2023-02-23T00:00:00	2024-11-08T13:00:00	5	Humedad	68
178589	7	Sololá	716	San Marcos la Laguna 	11	San Marcos la laguna 	2	Febrero	2023-02-23T00:00:00	2024-11-08T13:00:00	6	Velocidad del viento	14.5
178590	7	Sololá	716	San Marcos la Laguna 	11	San Marcos la laguna 	2	Febrero	2023-02-23T00:00:00	2024-11-08T13:00:00	7	Dirección del viento	14.48
178591	7	Sololá	716	San Marcos la Laguna 	11	San Marcos la laguna 	2	Febrero	2023-02-23T00:00:00	2024-11-08T13:00:00	1	Precipitación	0
178592	7	Sololá	716	San Marcos la Laguna 	11	San Marcos la laguna 	2	Febrero	2023-02-23T00:00:00	2024-11-08T13:00:00	8	Radiación solar	895
178593	7	Sololá	716	San Marcos la Laguna 	11	San Marcos la laguna 	2	Febrero	2023-02-23T00:00:00	2024-11-08T14:00:00	2	Temperatura media	21.2
178594	7	Sololá	716	San Marcos la Laguna 	11	San Marcos la laguna 	2	Febrero	2023-02-23T00:00:00	2024-11-08T14:00:00	4	Temperatura máxima	21.3
178595	7	Sololá	716	San Marcos la Laguna 	11	San Marcos la laguna 	2	Febrero	2023-02-23T00:00:00	2024-11-08T14:00:00	3	Temperatura mínima	20.8
178596	7	Sololá	716	San Marcos la Laguna 	11	San Marcos la laguna 	2	Febrero	2023-02-23T00:00:00	2024-11-08T14:00:00	5	Humedad	70
178597	7	Sololá	716	San Marcos la Laguna 	11	San Marcos la laguna 	2	Febrero	2023-02-23T00:00:00	2024-11-08T14:00:00	6	Velocidad del viento	12.9
178598	7	Sololá	716	San Marcos la Laguna 	11	San Marcos la laguna 	2	Febrero	2023-02-23T00:00:00	2024-11-08T14:00:00	7	Dirección del viento	12.87
178599	7	Sololá	716	San Marcos la Laguna 	11	San Marcos la laguna 	2	Febrero	2023-02-23T00:00:00	2024-11-08T14:00:00	1	Precipitación	0
178600	7	Sololá	716	San Marcos la Laguna 	11	San Marcos la laguna 	2	Febrero	2023-02-23T00:00:00	2024-11-08T14:00:00	8	Radiación solar	819
178601	7	Sololá	716	San Marcos la Laguna 	11	San Marcos la laguna 	2	Febrero	2023-02-23T00:00:00	2024-11-08T15:00:00	2	Temperatura media	21.1
178602	7	Sololá	716	San Marcos la Laguna 	11	San Marcos la laguna 	2	Febrero	2023-02-23T00:00:00	2024-11-08T15:00:00	4	Temperatura máxima	21.2
178603	7	Sololá	716	San Marcos la Laguna 	11	San Marcos la laguna 	2	Febrero	2023-02-23T00:00:00	2024-11-08T15:00:00	3	Temperatura mínima	20.7
178604	7	Sololá	716	San Marcos la Laguna 	11	San Marcos la laguna 	2	Febrero	2023-02-23T00:00:00	2024-11-08T15:00:00	5	Humedad	71
178605	7	Sololá	716	San Marcos la Laguna 	11	San Marcos la laguna 	2	Febrero	2023-02-23T00:00:00	2024-11-08T15:00:00	6	Velocidad del viento	12.9
178606	7	Sololá	716	San Marcos la Laguna 	11	San Marcos la laguna 	2	Febrero	2023-02-23T00:00:00	2024-11-08T15:00:00	7	Dirección del viento	12.87
178607	7	Sololá	716	San Marcos la Laguna 	11	San Marcos la laguna 	2	Febrero	2023-02-23T00:00:00	2024-11-08T15:00:00	1	Precipitación	0
178608	7	Sololá	716	San Marcos la Laguna 	11	San Marcos la laguna 	2	Febrero	2023-02-23T00:00:00	2024-11-08T15:00:00	8	Radiación solar	659
178609	7	Sololá	716	San Marcos la Laguna 	11	San Marcos la laguna 	2	Febrero	2023-02-23T00:00:00	2024-11-08T16:00:00	2	Temperatura media	20.2
178610	7	Sololá	716	San Marcos la Laguna 	11	San Marcos la laguna 	2	Febrero	2023-02-23T00:00:00	2024-11-08T16:00:00	4	Temperatura máxima	21.2
178611	7	Sololá	716	San Marcos la Laguna 	11	San Marcos la laguna 	2	Febrero	2023-02-23T00:00:00	2024-11-08T16:00:00	3	Temperatura mínima	20.2
178612	7	Sololá	716	San Marcos la Laguna 	11	San Marcos la laguna 	2	Febrero	2023-02-23T00:00:00	2024-11-08T16:00:00	5	Humedad	78
178613	7	Sololá	716	San Marcos la Laguna 	11	San Marcos la laguna 	2	Febrero	2023-02-23T00:00:00	2024-11-08T16:00:00	6	Velocidad del viento	12.9
178614	7	Sololá	716	San Marcos la Laguna 	11	San Marcos la laguna 	2	Febrero	2023-02-23T00:00:00	2024-11-08T16:00:00	7	Dirección del viento	12.87
178615	7	Sololá	716	San Marcos la Laguna 	11	San Marcos la laguna 	2	Febrero	2023-02-23T00:00:00	2024-11-08T16:00:00	1	Precipitación	0
178616	7	Sololá	716	San Marcos la Laguna 	11	San Marcos la laguna 	2	Febrero	2023-02-23T00:00:00	2024-11-08T16:00:00	8	Radiación solar	506
178617	7	Sololá	716	San Marcos la Laguna 	11	San Marcos la laguna 	2	Febrero	2023-02-23T00:00:00	2024-11-08T17:00:00	2	Temperatura media	19.8
178618	7	Sololá	716	San Marcos la Laguna 	11	San Marcos la laguna 	2	Febrero	2023-02-23T00:00:00	2024-11-08T17:00:00	4	Temperatura máxima	21.1
178619	7	Sololá	716	San Marcos la Laguna 	11	San Marcos la laguna 	2	Febrero	2023-02-23T00:00:00	2024-11-08T17:00:00	3	Temperatura mínima	19.7
178620	7	Sololá	716	San Marcos la Laguna 	11	San Marcos la laguna 	2	Febrero	2023-02-23T00:00:00	2024-11-08T17:00:00	5	Humedad	79
178621	7	Sololá	716	San Marcos la Laguna 	11	San Marcos la laguna 	2	Febrero	2023-02-23T00:00:00	2024-11-08T17:00:00	6	Velocidad del viento	8
178622	7	Sololá	716	San Marcos la Laguna 	11	San Marcos la laguna 	2	Febrero	2023-02-23T00:00:00	2024-11-08T17:00:00	7	Dirección del viento	8.05
178623	7	Sololá	716	San Marcos la Laguna 	11	San Marcos la laguna 	2	Febrero	2023-02-23T00:00:00	2024-11-08T17:00:00	1	Precipitación	0
178624	7	Sololá	716	San Marcos la Laguna 	11	San Marcos la laguna 	2	Febrero	2023-02-23T00:00:00	2024-11-08T17:00:00	8	Radiación solar	353
178625	7	Sololá	716	San Marcos la Laguna 	11	San Marcos la laguna 	2	Febrero	2023-02-23T00:00:00	2024-11-08T18:00:00	2	Temperatura media	19.4
178626	7	Sololá	716	San Marcos la Laguna 	11	San Marcos la laguna 	2	Febrero	2023-02-23T00:00:00	2024-11-08T18:00:00	4	Temperatura máxima	19.9
178627	7	Sololá	716	San Marcos la Laguna 	11	San Marcos la laguna 	2	Febrero	2023-02-23T00:00:00	2024-11-08T18:00:00	3	Temperatura mínima	19.4
178628	7	Sololá	716	San Marcos la Laguna 	11	San Marcos la laguna 	2	Febrero	2023-02-23T00:00:00	2024-11-08T18:00:00	5	Humedad	79
178629	7	Sololá	716	San Marcos la Laguna 	11	San Marcos la laguna 	2	Febrero	2023-02-23T00:00:00	2024-11-08T18:00:00	6	Velocidad del viento	4.8
178630	7	Sololá	716	San Marcos la Laguna 	11	San Marcos la laguna 	2	Febrero	2023-02-23T00:00:00	2024-11-08T18:00:00	7	Dirección del viento	4.83
178631	7	Sololá	716	San Marcos la Laguna 	11	San Marcos la laguna 	2	Febrero	2023-02-23T00:00:00	2024-11-08T18:00:00	1	Precipitación	0
178632	7	Sololá	716	San Marcos la Laguna 	11	San Marcos la laguna 	2	Febrero	2023-02-23T00:00:00	2024-11-08T18:00:00	8	Radiación solar	83
178633	7	Sololá	716	San Marcos la Laguna 	11	San Marcos la laguna 	2	Febrero	2023-02-23T00:00:00	2024-11-08T19:00:00	2	Temperatura media	18.8
178634	7	Sololá	716	San Marcos la Laguna 	11	San Marcos la laguna 	2	Febrero	2023-02-23T00:00:00	2024-11-08T19:00:00	4	Temperatura máxima	19.4
178635	7	Sololá	716	San Marcos la Laguna 	11	San Marcos la laguna 	2	Febrero	2023-02-23T00:00:00	2024-11-08T19:00:00	3	Temperatura mínima	18.8
178636	7	Sololá	716	San Marcos la Laguna 	11	San Marcos la laguna 	2	Febrero	2023-02-23T00:00:00	2024-11-08T19:00:00	5	Humedad	84
178637	7	Sololá	716	San Marcos la Laguna 	11	San Marcos la laguna 	2	Febrero	2023-02-23T00:00:00	2024-11-08T19:00:00	6	Velocidad del viento	3.2
178638	7	Sololá	716	San Marcos la Laguna 	11	San Marcos la laguna 	2	Febrero	2023-02-23T00:00:00	2024-11-08T19:00:00	7	Dirección del viento	3.22
178639	7	Sololá	716	San Marcos la Laguna 	11	San Marcos la laguna 	2	Febrero	2023-02-23T00:00:00	2024-11-08T19:00:00	1	Precipitación	0
178640	7	Sololá	716	San Marcos la Laguna 	11	San Marcos la laguna 	2	Febrero	2023-02-23T00:00:00	2024-11-08T19:00:00	8	Radiación solar	0
178641	7	Sololá	716	San Marcos la Laguna 	11	San Marcos la laguna 	2	Febrero	2023-02-23T00:00:00	2024-11-08T20:00:00	2	Temperatura media	18.4
178642	7	Sololá	716	San Marcos la Laguna 	11	San Marcos la laguna 	2	Febrero	2023-02-23T00:00:00	2024-11-08T20:00:00	4	Temperatura máxima	18.8
178643	7	Sololá	716	San Marcos la Laguna 	11	San Marcos la laguna 	2	Febrero	2023-02-23T00:00:00	2024-11-08T20:00:00	3	Temperatura mínima	18.3
178644	7	Sololá	716	San Marcos la Laguna 	11	San Marcos la laguna 	2	Febrero	2023-02-23T00:00:00	2024-11-08T20:00:00	5	Humedad	87
178645	7	Sololá	716	San Marcos la Laguna 	11	San Marcos la laguna 	2	Febrero	2023-02-23T00:00:00	2024-11-08T20:00:00	6	Velocidad del viento	3.2
178646	7	Sololá	716	San Marcos la Laguna 	11	San Marcos la laguna 	2	Febrero	2023-02-23T00:00:00	2024-11-08T20:00:00	7	Dirección del viento	3.22
178647	7	Sololá	716	San Marcos la Laguna 	11	San Marcos la laguna 	2	Febrero	2023-02-23T00:00:00	2024-11-08T20:00:00	1	Precipitación	0
178648	7	Sololá	716	San Marcos la Laguna 	11	San Marcos la laguna 	2	Febrero	2023-02-23T00:00:00	2024-11-08T20:00:00	8	Radiación solar	0
178649	7	Sololá	716	San Marcos la Laguna 	11	San Marcos la laguna 	2	Febrero	2023-02-23T00:00:00	2024-11-08T21:00:00	2	Temperatura media	17.7
178650	7	Sololá	716	San Marcos la Laguna 	11	San Marcos la laguna 	2	Febrero	2023-02-23T00:00:00	2024-11-08T21:00:00	4	Temperatura máxima	18.4
178651	7	Sololá	716	San Marcos la Laguna 	11	San Marcos la laguna 	2	Febrero	2023-02-23T00:00:00	2024-11-08T21:00:00	3	Temperatura mínima	17.7
178652	7	Sololá	716	San Marcos la Laguna 	11	San Marcos la laguna 	2	Febrero	2023-02-23T00:00:00	2024-11-08T21:00:00	5	Humedad	79
178653	7	Sololá	716	San Marcos la Laguna 	11	San Marcos la laguna 	2	Febrero	2023-02-23T00:00:00	2024-11-08T21:00:00	6	Velocidad del viento	1.6
178654	7	Sololá	716	San Marcos la Laguna 	11	San Marcos la laguna 	2	Febrero	2023-02-23T00:00:00	2024-11-08T21:00:00	7	Dirección del viento	1.61
178655	7	Sololá	716	San Marcos la Laguna 	11	San Marcos la laguna 	2	Febrero	2023-02-23T00:00:00	2024-11-08T21:00:00	1	Precipitación	0
178656	7	Sololá	716	San Marcos la Laguna 	11	San Marcos la laguna 	2	Febrero	2023-02-23T00:00:00	2024-11-08T21:00:00	8	Radiación solar	0
178657	7	Sololá	716	San Marcos la Laguna 	11	San Marcos la laguna 	2	Febrero	2023-02-23T00:00:00	2024-11-08T22:00:00	2	Temperatura media	16.3
178658	7	Sololá	716	San Marcos la Laguna 	11	San Marcos la laguna 	2	Febrero	2023-02-23T00:00:00	2024-11-08T22:00:00	4	Temperatura máxima	17.7
178659	7	Sololá	716	San Marcos la Laguna 	11	San Marcos la laguna 	2	Febrero	2023-02-23T00:00:00	2024-11-08T22:00:00	3	Temperatura mínima	16.2
178660	7	Sololá	716	San Marcos la Laguna 	11	San Marcos la laguna 	2	Febrero	2023-02-23T00:00:00	2024-11-08T22:00:00	5	Humedad	81
178661	7	Sololá	716	San Marcos la Laguna 	11	San Marcos la laguna 	2	Febrero	2023-02-23T00:00:00	2024-11-08T22:00:00	6	Velocidad del viento	4.8
178662	7	Sololá	716	San Marcos la Laguna 	11	San Marcos la laguna 	2	Febrero	2023-02-23T00:00:00	2024-11-08T22:00:00	7	Dirección del viento	4.83
178663	7	Sololá	716	San Marcos la Laguna 	11	San Marcos la laguna 	2	Febrero	2023-02-23T00:00:00	2024-11-08T22:00:00	1	Precipitación	0
178664	7	Sololá	716	San Marcos la Laguna 	11	San Marcos la laguna 	2	Febrero	2023-02-23T00:00:00	2024-11-08T22:00:00	8	Radiación solar	0
178665	7	Sololá	716	San Marcos la Laguna 	11	San Marcos la laguna 	2	Febrero	2023-02-23T00:00:00	2024-11-08T23:00:00	2	Temperatura media	16.6
178666	7	Sololá	716	San Marcos la Laguna 	11	San Marcos la laguna 	2	Febrero	2023-02-23T00:00:00	2024-11-08T23:00:00	4	Temperatura máxima	16.7
178667	7	Sololá	716	San Marcos la Laguna 	11	San Marcos la laguna 	2	Febrero	2023-02-23T00:00:00	2024-11-08T23:00:00	3	Temperatura mínima	16.2
178668	7	Sololá	716	San Marcos la Laguna 	11	San Marcos la laguna 	2	Febrero	2023-02-23T00:00:00	2024-11-08T23:00:00	5	Humedad	82
178669	7	Sololá	716	San Marcos la Laguna 	11	San Marcos la laguna 	2	Febrero	2023-02-23T00:00:00	2024-11-08T23:00:00	6	Velocidad del viento	6.4
178670	7	Sololá	716	San Marcos la Laguna 	11	San Marcos la laguna 	2	Febrero	2023-02-23T00:00:00	2024-11-08T23:00:00	7	Dirección del viento	6.44
178671	7	Sololá	716	San Marcos la Laguna 	11	San Marcos la laguna 	2	Febrero	2023-02-23T00:00:00	2024-11-08T23:00:00	1	Precipitación	0
178672	7	Sololá	716	San Marcos la Laguna 	11	San Marcos la laguna 	2	Febrero	2023-02-23T00:00:00	2024-11-08T23:00:00	8	Radiación solar	0
178673	7	Sololá	716	San Marcos la Laguna 	11	San Marcos la laguna 	2	Febrero	2023-02-24T00:00:00	2024-11-08T00:00:00	2	Temperatura media	16.5
178674	7	Sololá	716	San Marcos la Laguna 	11	San Marcos la laguna 	2	Febrero	2023-02-24T00:00:00	2024-11-08T00:00:00	4	Temperatura máxima	16.8
178675	7	Sololá	716	San Marcos la Laguna 	11	San Marcos la laguna 	2	Febrero	2023-02-24T00:00:00	2024-11-08T00:00:00	3	Temperatura mínima	16.5
178676	7	Sololá	716	San Marcos la Laguna 	11	San Marcos la laguna 	2	Febrero	2023-02-24T00:00:00	2024-11-08T00:00:00	5	Humedad	81
178677	7	Sololá	716	San Marcos la Laguna 	11	San Marcos la laguna 	2	Febrero	2023-02-24T00:00:00	2024-11-08T00:00:00	6	Velocidad del viento	6.4
178678	7	Sololá	716	San Marcos la Laguna 	11	San Marcos la laguna 	2	Febrero	2023-02-24T00:00:00	2024-11-08T00:00:00	7	Dirección del viento	6.44
178679	7	Sololá	716	San Marcos la Laguna 	11	San Marcos la laguna 	2	Febrero	2023-02-24T00:00:00	2024-11-08T00:00:00	1	Precipitación	0
178680	7	Sololá	716	San Marcos la Laguna 	11	San Marcos la laguna 	2	Febrero	2023-02-24T00:00:00	2024-11-08T00:00:00	8	Radiación solar	0
178681	7	Sololá	716	San Marcos la Laguna 	11	San Marcos la laguna 	2	Febrero	2023-02-24T00:00:00	2024-11-08T01:00:00	2	Temperatura media	15.4
178682	7	Sololá	716	San Marcos la Laguna 	11	San Marcos la laguna 	2	Febrero	2023-02-24T00:00:00	2024-11-08T01:00:00	4	Temperatura máxima	16.6
178683	7	Sololá	716	San Marcos la Laguna 	11	San Marcos la laguna 	2	Febrero	2023-02-24T00:00:00	2024-11-08T01:00:00	3	Temperatura mínima	15.2
178684	7	Sololá	716	San Marcos la Laguna 	11	San Marcos la laguna 	2	Febrero	2023-02-24T00:00:00	2024-11-08T01:00:00	5	Humedad	79
178685	7	Sololá	716	San Marcos la Laguna 	11	San Marcos la laguna 	2	Febrero	2023-02-24T00:00:00	2024-11-08T01:00:00	6	Velocidad del viento	4.8
178686	7	Sololá	716	San Marcos la Laguna 	11	San Marcos la laguna 	2	Febrero	2023-02-24T00:00:00	2024-11-08T01:00:00	7	Dirección del viento	4.83
178687	7	Sololá	716	San Marcos la Laguna 	11	San Marcos la laguna 	2	Febrero	2023-02-24T00:00:00	2024-11-08T01:00:00	1	Precipitación	0
178688	7	Sololá	716	San Marcos la Laguna 	11	San Marcos la laguna 	2	Febrero	2023-02-24T00:00:00	2024-11-08T01:00:00	8	Radiación solar	0
178689	7	Sololá	716	San Marcos la Laguna 	11	San Marcos la laguna 	2	Febrero	2023-02-24T00:00:00	2024-11-08T02:00:00	2	Temperatura media	14.8
178690	7	Sololá	716	San Marcos la Laguna 	11	San Marcos la laguna 	2	Febrero	2023-02-24T00:00:00	2024-11-08T02:00:00	4	Temperatura máxima	15.4
178691	7	Sololá	716	San Marcos la Laguna 	11	San Marcos la laguna 	2	Febrero	2023-02-24T00:00:00	2024-11-08T02:00:00	3	Temperatura mínima	14.7
178692	7	Sololá	716	San Marcos la Laguna 	11	San Marcos la laguna 	2	Febrero	2023-02-24T00:00:00	2024-11-08T02:00:00	5	Humedad	78
178693	7	Sololá	716	San Marcos la Laguna 	11	San Marcos la laguna 	2	Febrero	2023-02-24T00:00:00	2024-11-08T02:00:00	6	Velocidad del viento	6.4
178694	7	Sololá	716	San Marcos la Laguna 	11	San Marcos la laguna 	2	Febrero	2023-02-24T00:00:00	2024-11-08T02:00:00	7	Dirección del viento	6.44
178695	7	Sololá	716	San Marcos la Laguna 	11	San Marcos la laguna 	2	Febrero	2023-02-24T00:00:00	2024-11-08T02:00:00	1	Precipitación	0
178696	7	Sololá	716	San Marcos la Laguna 	11	San Marcos la laguna 	2	Febrero	2023-02-24T00:00:00	2024-11-08T02:00:00	8	Radiación solar	0
178697	7	Sololá	716	San Marcos la Laguna 	11	San Marcos la laguna 	2	Febrero	2023-02-24T00:00:00	2024-11-08T03:00:00	2	Temperatura media	14.3
178698	7	Sololá	716	San Marcos la Laguna 	11	San Marcos la laguna 	2	Febrero	2023-02-24T00:00:00	2024-11-08T03:00:00	4	Temperatura máxima	14.8
178699	7	Sololá	716	San Marcos la Laguna 	11	San Marcos la laguna 	2	Febrero	2023-02-24T00:00:00	2024-11-08T03:00:00	3	Temperatura mínima	14.1
178700	7	Sololá	716	San Marcos la Laguna 	11	San Marcos la laguna 	2	Febrero	2023-02-24T00:00:00	2024-11-08T03:00:00	5	Humedad	79
178701	7	Sololá	716	San Marcos la Laguna 	11	San Marcos la laguna 	2	Febrero	2023-02-24T00:00:00	2024-11-08T03:00:00	6	Velocidad del viento	6.4
178702	7	Sololá	716	San Marcos la Laguna 	11	San Marcos la laguna 	2	Febrero	2023-02-24T00:00:00	2024-11-08T03:00:00	7	Dirección del viento	6.44
178703	7	Sololá	716	San Marcos la Laguna 	11	San Marcos la laguna 	2	Febrero	2023-02-24T00:00:00	2024-11-08T03:00:00	1	Precipitación	0
178704	7	Sololá	716	San Marcos la Laguna 	11	San Marcos la laguna 	2	Febrero	2023-02-24T00:00:00	2024-11-08T03:00:00	8	Radiación solar	0
178705	7	Sololá	716	San Marcos la Laguna 	11	San Marcos la laguna 	2	Febrero	2023-02-24T00:00:00	2024-11-08T04:00:00	2	Temperatura media	14.1
178706	7	Sololá	716	San Marcos la Laguna 	11	San Marcos la laguna 	2	Febrero	2023-02-24T00:00:00	2024-11-08T04:00:00	4	Temperatura máxima	14.3
178707	7	Sololá	716	San Marcos la Laguna 	11	San Marcos la laguna 	2	Febrero	2023-02-24T00:00:00	2024-11-08T04:00:00	3	Temperatura mínima	13.9
178708	7	Sololá	716	San Marcos la Laguna 	11	San Marcos la laguna 	2	Febrero	2023-02-24T00:00:00	2024-11-08T04:00:00	5	Humedad	76
178709	7	Sololá	716	San Marcos la Laguna 	11	San Marcos la laguna 	2	Febrero	2023-02-24T00:00:00	2024-11-08T04:00:00	6	Velocidad del viento	6.4
178710	7	Sololá	716	San Marcos la Laguna 	11	San Marcos la laguna 	2	Febrero	2023-02-24T00:00:00	2024-11-08T04:00:00	7	Dirección del viento	6.44
178711	7	Sololá	716	San Marcos la Laguna 	11	San Marcos la laguna 	2	Febrero	2023-02-24T00:00:00	2024-11-08T04:00:00	1	Precipitación	0
178712	7	Sololá	716	San Marcos la Laguna 	11	San Marcos la laguna 	2	Febrero	2023-02-24T00:00:00	2024-11-08T04:00:00	8	Radiación solar	0
178713	7	Sololá	716	San Marcos la Laguna 	11	San Marcos la laguna 	2	Febrero	2023-02-24T00:00:00	2024-11-08T05:00:00	2	Temperatura media	14.9
178714	7	Sololá	716	San Marcos la Laguna 	11	San Marcos la laguna 	2	Febrero	2023-02-24T00:00:00	2024-11-08T05:00:00	4	Temperatura máxima	14.9
178715	7	Sololá	716	San Marcos la Laguna 	11	San Marcos la laguna 	2	Febrero	2023-02-24T00:00:00	2024-11-08T05:00:00	3	Temperatura mínima	13.9
178716	7	Sololá	716	San Marcos la Laguna 	11	San Marcos la laguna 	2	Febrero	2023-02-24T00:00:00	2024-11-08T05:00:00	5	Humedad	72
178717	7	Sololá	716	San Marcos la Laguna 	11	San Marcos la laguna 	2	Febrero	2023-02-24T00:00:00	2024-11-08T05:00:00	6	Velocidad del viento	9.7
178718	7	Sololá	716	San Marcos la Laguna 	11	San Marcos la laguna 	2	Febrero	2023-02-24T00:00:00	2024-11-08T05:00:00	7	Dirección del viento	9.66
178719	7	Sololá	716	San Marcos la Laguna 	11	San Marcos la laguna 	2	Febrero	2023-02-24T00:00:00	2024-11-08T05:00:00	1	Precipitación	0
178720	7	Sololá	716	San Marcos la Laguna 	11	San Marcos la laguna 	2	Febrero	2023-02-24T00:00:00	2024-11-08T05:00:00	8	Radiación solar	0
178721	7	Sololá	716	San Marcos la Laguna 	11	San Marcos la laguna 	2	Febrero	2023-02-24T00:00:00	2024-11-08T06:00:00	2	Temperatura media	13.7
178722	7	Sololá	716	San Marcos la Laguna 	11	San Marcos la laguna 	2	Febrero	2023-02-24T00:00:00	2024-11-08T06:00:00	4	Temperatura máxima	14.9
178723	7	Sololá	716	San Marcos la Laguna 	11	San Marcos la laguna 	2	Febrero	2023-02-24T00:00:00	2024-11-08T06:00:00	3	Temperatura mínima	13.7
178724	7	Sololá	716	San Marcos la Laguna 	11	San Marcos la laguna 	2	Febrero	2023-02-24T00:00:00	2024-11-08T06:00:00	5	Humedad	75
178725	7	Sololá	716	San Marcos la Laguna 	11	San Marcos la laguna 	2	Febrero	2023-02-24T00:00:00	2024-11-08T06:00:00	6	Velocidad del viento	9.7
178726	7	Sololá	716	San Marcos la Laguna 	11	San Marcos la laguna 	2	Febrero	2023-02-24T00:00:00	2024-11-08T06:00:00	7	Dirección del viento	9.66
178727	7	Sololá	716	San Marcos la Laguna 	11	San Marcos la laguna 	2	Febrero	2023-02-24T00:00:00	2024-11-08T06:00:00	1	Precipitación	0
178728	7	Sololá	716	San Marcos la Laguna 	11	San Marcos la laguna 	2	Febrero	2023-02-24T00:00:00	2024-11-08T06:00:00	8	Radiación solar	0
178729	7	Sololá	716	San Marcos la Laguna 	11	San Marcos la laguna 	2	Febrero	2023-02-24T00:00:00	2024-11-08T07:00:00	2	Temperatura media	13.4
178730	7	Sololá	716	San Marcos la Laguna 	11	San Marcos la laguna 	2	Febrero	2023-02-24T00:00:00	2024-11-08T07:00:00	4	Temperatura máxima	14
178731	7	Sololá	716	San Marcos la Laguna 	11	San Marcos la laguna 	2	Febrero	2023-02-24T00:00:00	2024-11-08T07:00:00	3	Temperatura mínima	13.2
178732	7	Sololá	716	San Marcos la Laguna 	11	San Marcos la laguna 	2	Febrero	2023-02-24T00:00:00	2024-11-08T07:00:00	5	Humedad	74
178733	7	Sololá	716	San Marcos la Laguna 	11	San Marcos la laguna 	2	Febrero	2023-02-24T00:00:00	2024-11-08T07:00:00	6	Velocidad del viento	8
178734	7	Sololá	716	San Marcos la Laguna 	11	San Marcos la laguna 	2	Febrero	2023-02-24T00:00:00	2024-11-08T07:00:00	7	Dirección del viento	8.05
178735	7	Sololá	716	San Marcos la Laguna 	11	San Marcos la laguna 	2	Febrero	2023-02-24T00:00:00	2024-11-08T07:00:00	1	Precipitación	0
178736	7	Sololá	716	San Marcos la Laguna 	11	San Marcos la laguna 	2	Febrero	2023-02-24T00:00:00	2024-11-08T07:00:00	8	Radiación solar	5
178737	7	Sololá	716	San Marcos la Laguna 	11	San Marcos la laguna 	2	Febrero	2023-02-24T00:00:00	2024-11-08T08:00:00	2	Temperatura media	17.4
178738	7	Sololá	716	San Marcos la Laguna 	11	San Marcos la laguna 	2	Febrero	2023-02-24T00:00:00	2024-11-08T08:00:00	4	Temperatura máxima	17.4
178739	7	Sololá	716	San Marcos la Laguna 	11	San Marcos la laguna 	2	Febrero	2023-02-24T00:00:00	2024-11-08T08:00:00	3	Temperatura mínima	13.4
178740	7	Sololá	716	San Marcos la Laguna 	11	San Marcos la laguna 	2	Febrero	2023-02-24T00:00:00	2024-11-08T08:00:00	5	Humedad	68
178741	7	Sololá	716	San Marcos la Laguna 	11	San Marcos la laguna 	2	Febrero	2023-02-24T00:00:00	2024-11-08T08:00:00	6	Velocidad del viento	4.8
178742	7	Sololá	716	San Marcos la Laguna 	11	San Marcos la laguna 	2	Febrero	2023-02-24T00:00:00	2024-11-08T08:00:00	7	Dirección del viento	4.83
178743	7	Sololá	716	San Marcos la Laguna 	11	San Marcos la laguna 	2	Febrero	2023-02-24T00:00:00	2024-11-08T08:00:00	1	Precipitación	0
178744	7	Sololá	716	San Marcos la Laguna 	11	San Marcos la laguna 	2	Febrero	2023-02-24T00:00:00	2024-11-08T08:00:00	8	Radiación solar	141
178745	7	Sololá	716	San Marcos la Laguna 	11	San Marcos la laguna 	2	Febrero	2023-02-24T00:00:00	2024-11-08T09:00:00	2	Temperatura media	20.7
178746	7	Sololá	716	San Marcos la Laguna 	11	San Marcos la laguna 	2	Febrero	2023-02-24T00:00:00	2024-11-08T09:00:00	4	Temperatura máxima	20.7
178747	7	Sololá	716	San Marcos la Laguna 	11	San Marcos la laguna 	2	Febrero	2023-02-24T00:00:00	2024-11-08T09:00:00	3	Temperatura mínima	17.4
178748	7	Sololá	716	San Marcos la Laguna 	11	San Marcos la laguna 	2	Febrero	2023-02-24T00:00:00	2024-11-08T09:00:00	5	Humedad	60
178749	7	Sololá	716	San Marcos la Laguna 	11	San Marcos la laguna 	2	Febrero	2023-02-24T00:00:00	2024-11-08T09:00:00	6	Velocidad del viento	1.6
178750	7	Sololá	716	San Marcos la Laguna 	11	San Marcos la laguna 	2	Febrero	2023-02-24T00:00:00	2024-11-08T09:00:00	7	Dirección del viento	1.61
178751	7	Sololá	716	San Marcos la Laguna 	11	San Marcos la laguna 	2	Febrero	2023-02-24T00:00:00	2024-11-08T09:00:00	1	Precipitación	0
178752	7	Sololá	716	San Marcos la Laguna 	11	San Marcos la laguna 	2	Febrero	2023-02-24T00:00:00	2024-11-08T09:00:00	8	Radiación solar	386
178753	7	Sololá	716	San Marcos la Laguna 	11	San Marcos la laguna 	2	Febrero	2023-02-24T00:00:00	2024-11-08T10:00:00	2	Temperatura media	22.6
178754	7	Sololá	716	San Marcos la Laguna 	11	San Marcos la laguna 	2	Febrero	2023-02-24T00:00:00	2024-11-08T10:00:00	4	Temperatura máxima	22.6
178755	7	Sololá	716	San Marcos la Laguna 	11	San Marcos la laguna 	2	Febrero	2023-02-24T00:00:00	2024-11-08T10:00:00	3	Temperatura mínima	20.7
178756	7	Sololá	716	San Marcos la Laguna 	11	San Marcos la laguna 	2	Febrero	2023-02-24T00:00:00	2024-11-08T10:00:00	5	Humedad	37
178757	7	Sololá	716	San Marcos la Laguna 	11	San Marcos la laguna 	2	Febrero	2023-02-24T00:00:00	2024-11-08T10:00:00	6	Velocidad del viento	3.2
178758	7	Sololá	716	San Marcos la Laguna 	11	San Marcos la laguna 	2	Febrero	2023-02-24T00:00:00	2024-11-08T10:00:00	7	Dirección del viento	3.22
178759	7	Sololá	716	San Marcos la Laguna 	11	San Marcos la laguna 	2	Febrero	2023-02-24T00:00:00	2024-11-08T10:00:00	1	Precipitación	0
178760	7	Sololá	716	San Marcos la Laguna 	11	San Marcos la laguna 	2	Febrero	2023-02-24T00:00:00	2024-11-08T10:00:00	8	Radiación solar	585
178761	7	Sololá	716	San Marcos la Laguna 	11	San Marcos la laguna 	2	Febrero	2023-02-24T00:00:00	2024-11-08T11:00:00	2	Temperatura media	23.9
178762	7	Sololá	716	San Marcos la Laguna 	11	San Marcos la laguna 	2	Febrero	2023-02-24T00:00:00	2024-11-08T11:00:00	4	Temperatura máxima	23.9
178763	7	Sololá	716	San Marcos la Laguna 	11	San Marcos la laguna 	2	Febrero	2023-02-24T00:00:00	2024-11-08T11:00:00	3	Temperatura mínima	22.6
178764	7	Sololá	716	San Marcos la Laguna 	11	San Marcos la laguna 	2	Febrero	2023-02-24T00:00:00	2024-11-08T11:00:00	5	Humedad	41
178765	7	Sololá	716	San Marcos la Laguna 	11	San Marcos la laguna 	2	Febrero	2023-02-24T00:00:00	2024-11-08T11:00:00	6	Velocidad del viento	3.2
178766	7	Sololá	716	San Marcos la Laguna 	11	San Marcos la laguna 	2	Febrero	2023-02-24T00:00:00	2024-11-08T11:00:00	7	Dirección del viento	3.22
178767	7	Sololá	716	San Marcos la Laguna 	11	San Marcos la laguna 	2	Febrero	2023-02-24T00:00:00	2024-11-08T11:00:00	1	Precipitación	0
178768	7	Sololá	716	San Marcos la Laguna 	11	San Marcos la laguna 	2	Febrero	2023-02-24T00:00:00	2024-11-08T11:00:00	8	Radiación solar	737
178769	7	Sololá	716	San Marcos la Laguna 	11	San Marcos la laguna 	2	Febrero	2023-02-24T00:00:00	2024-11-08T12:00:00	2	Temperatura media	23.2
178770	7	Sololá	716	San Marcos la Laguna 	11	San Marcos la laguna 	2	Febrero	2023-02-24T00:00:00	2024-11-08T12:00:00	4	Temperatura máxima	24.6
178771	7	Sololá	716	San Marcos la Laguna 	11	San Marcos la laguna 	2	Febrero	2023-02-24T00:00:00	2024-11-08T12:00:00	3	Temperatura mínima	23.2
178772	7	Sololá	716	San Marcos la Laguna 	11	San Marcos la laguna 	2	Febrero	2023-02-24T00:00:00	2024-11-08T12:00:00	5	Humedad	45
178773	7	Sololá	716	San Marcos la Laguna 	11	San Marcos la laguna 	2	Febrero	2023-02-24T00:00:00	2024-11-08T12:00:00	6	Velocidad del viento	4.8
178774	7	Sololá	716	San Marcos la Laguna 	11	San Marcos la laguna 	2	Febrero	2023-02-24T00:00:00	2024-11-08T12:00:00	7	Dirección del viento	4.83
178775	7	Sololá	716	San Marcos la Laguna 	11	San Marcos la laguna 	2	Febrero	2023-02-24T00:00:00	2024-11-08T12:00:00	1	Precipitación	0
178776	7	Sololá	716	San Marcos la Laguna 	11	San Marcos la laguna 	2	Febrero	2023-02-24T00:00:00	2024-11-08T12:00:00	8	Radiación solar	738
178777	7	Sololá	716	San Marcos la Laguna 	11	San Marcos la laguna 	2	Febrero	2023-02-24T00:00:00	2024-11-08T13:00:00	2	Temperatura media	22.4
178778	7	Sololá	716	San Marcos la Laguna 	11	San Marcos la laguna 	2	Febrero	2023-02-24T00:00:00	2024-11-08T13:00:00	4	Temperatura máxima	23.3
178779	7	Sololá	716	San Marcos la Laguna 	11	San Marcos la laguna 	2	Febrero	2023-02-24T00:00:00	2024-11-08T13:00:00	3	Temperatura mínima	22.4
178780	7	Sololá	716	San Marcos la Laguna 	11	San Marcos la laguna 	2	Febrero	2023-02-24T00:00:00	2024-11-08T13:00:00	5	Humedad	61
178781	7	Sololá	716	San Marcos la Laguna 	11	San Marcos la laguna 	2	Febrero	2023-02-24T00:00:00	2024-11-08T13:00:00	6	Velocidad del viento	11.3
178782	7	Sololá	716	San Marcos la Laguna 	11	San Marcos la laguna 	2	Febrero	2023-02-24T00:00:00	2024-11-08T13:00:00	7	Dirección del viento	11.27
178783	7	Sololá	716	San Marcos la Laguna 	11	San Marcos la laguna 	2	Febrero	2023-02-24T00:00:00	2024-11-08T13:00:00	1	Precipitación	0
178784	7	Sololá	716	San Marcos la Laguna 	11	San Marcos la laguna 	2	Febrero	2023-02-24T00:00:00	2024-11-08T13:00:00	8	Radiación solar	876
178785	7	Sololá	716	San Marcos la Laguna 	11	San Marcos la laguna 	2	Febrero	2023-02-24T00:00:00	2024-11-08T14:00:00	2	Temperatura media	21.9
178786	7	Sololá	716	San Marcos la Laguna 	11	San Marcos la laguna 	2	Febrero	2023-02-24T00:00:00	2024-11-08T14:00:00	4	Temperatura máxima	22.9
178787	7	Sololá	716	San Marcos la Laguna 	11	San Marcos la laguna 	2	Febrero	2023-02-24T00:00:00	2024-11-08T14:00:00	3	Temperatura mínima	21.9
178788	7	Sololá	716	San Marcos la Laguna 	11	San Marcos la laguna 	2	Febrero	2023-02-24T00:00:00	2024-11-08T14:00:00	5	Humedad	62
178789	7	Sololá	716	San Marcos la Laguna 	11	San Marcos la laguna 	2	Febrero	2023-02-24T00:00:00	2024-11-08T14:00:00	6	Velocidad del viento	12.9
178790	7	Sololá	716	San Marcos la Laguna 	11	San Marcos la laguna 	2	Febrero	2023-02-24T00:00:00	2024-11-08T14:00:00	7	Dirección del viento	12.87
178791	7	Sololá	716	San Marcos la Laguna 	11	San Marcos la laguna 	2	Febrero	2023-02-24T00:00:00	2024-11-08T14:00:00	1	Precipitación	0
178792	7	Sololá	716	San Marcos la Laguna 	11	San Marcos la laguna 	2	Febrero	2023-02-24T00:00:00	2024-11-08T14:00:00	8	Radiación solar	829
178793	7	Sololá	716	San Marcos la Laguna 	11	San Marcos la laguna 	2	Febrero	2023-02-24T00:00:00	2024-11-08T15:00:00	2	Temperatura media	22
178794	7	Sololá	716	San Marcos la Laguna 	11	San Marcos la laguna 	2	Febrero	2023-02-24T00:00:00	2024-11-08T15:00:00	4	Temperatura máxima	22.2
178795	7	Sololá	716	San Marcos la Laguna 	11	San Marcos la laguna 	2	Febrero	2023-02-24T00:00:00	2024-11-08T15:00:00	3	Temperatura mínima	21.6
178796	7	Sololá	716	San Marcos la Laguna 	11	San Marcos la laguna 	2	Febrero	2023-02-24T00:00:00	2024-11-08T15:00:00	5	Humedad	67
178797	7	Sololá	716	San Marcos la Laguna 	11	San Marcos la laguna 	2	Febrero	2023-02-24T00:00:00	2024-11-08T15:00:00	6	Velocidad del viento	14.5
178798	7	Sololá	716	San Marcos la Laguna 	11	San Marcos la laguna 	2	Febrero	2023-02-24T00:00:00	2024-11-08T15:00:00	7	Dirección del viento	14.48
178799	7	Sololá	716	San Marcos la Laguna 	11	San Marcos la laguna 	2	Febrero	2023-02-24T00:00:00	2024-11-08T15:00:00	1	Precipitación	0
178800	7	Sololá	716	San Marcos la Laguna 	11	San Marcos la laguna 	2	Febrero	2023-02-24T00:00:00	2024-11-08T15:00:00	8	Radiación solar	714
178801	7	Sololá	716	San Marcos la Laguna 	11	San Marcos la laguna 	2	Febrero	2023-02-24T00:00:00	2024-11-08T16:00:00	2	Temperatura media	21.6
178802	7	Sololá	716	San Marcos la Laguna 	11	San Marcos la laguna 	2	Febrero	2023-02-24T00:00:00	2024-11-08T16:00:00	4	Temperatura máxima	22.2
178803	7	Sololá	716	San Marcos la Laguna 	11	San Marcos la laguna 	2	Febrero	2023-02-24T00:00:00	2024-11-08T16:00:00	3	Temperatura mínima	21.4
178804	7	Sololá	716	San Marcos la Laguna 	11	San Marcos la laguna 	2	Febrero	2023-02-24T00:00:00	2024-11-08T16:00:00	5	Humedad	72
178805	7	Sololá	716	San Marcos la Laguna 	11	San Marcos la laguna 	2	Febrero	2023-02-24T00:00:00	2024-11-08T16:00:00	6	Velocidad del viento	9.7
178806	7	Sololá	716	San Marcos la Laguna 	11	San Marcos la laguna 	2	Febrero	2023-02-24T00:00:00	2024-11-08T16:00:00	7	Dirección del viento	9.66
178807	7	Sololá	716	San Marcos la Laguna 	11	San Marcos la laguna 	2	Febrero	2023-02-24T00:00:00	2024-11-08T16:00:00	1	Precipitación	0
178808	7	Sololá	716	San Marcos la Laguna 	11	San Marcos la laguna 	2	Febrero	2023-02-24T00:00:00	2024-11-08T16:00:00	8	Radiación solar	522
178809	7	Sololá	716	San Marcos la Laguna 	11	San Marcos la laguna 	2	Febrero	2023-02-24T00:00:00	2024-11-08T17:00:00	2	Temperatura media	21.1
178810	7	Sololá	716	San Marcos la Laguna 	11	San Marcos la laguna 	2	Febrero	2023-02-24T00:00:00	2024-11-08T17:00:00	4	Temperatura máxima	21.6
178811	7	Sololá	716	San Marcos la Laguna 	11	San Marcos la laguna 	2	Febrero	2023-02-24T00:00:00	2024-11-08T17:00:00	3	Temperatura mínima	20.8
178812	7	Sololá	716	San Marcos la Laguna 	11	San Marcos la laguna 	2	Febrero	2023-02-24T00:00:00	2024-11-08T17:00:00	5	Humedad	73
178813	7	Sololá	716	San Marcos la Laguna 	11	San Marcos la laguna 	2	Febrero	2023-02-24T00:00:00	2024-11-08T17:00:00	6	Velocidad del viento	8
178814	7	Sololá	716	San Marcos la Laguna 	11	San Marcos la laguna 	2	Febrero	2023-02-24T00:00:00	2024-11-08T17:00:00	7	Dirección del viento	8.05
178815	7	Sololá	716	San Marcos la Laguna 	11	San Marcos la laguna 	2	Febrero	2023-02-24T00:00:00	2024-11-08T17:00:00	1	Precipitación	0
178816	7	Sololá	716	San Marcos la Laguna 	11	San Marcos la laguna 	2	Febrero	2023-02-24T00:00:00	2024-11-08T17:00:00	8	Radiación solar	124
178817	7	Sololá	716	San Marcos la Laguna 	11	San Marcos la laguna 	2	Febrero	2023-02-24T00:00:00	2024-11-08T18:00:00	2	Temperatura media	20.4
178818	7	Sololá	716	San Marcos la Laguna 	11	San Marcos la laguna 	2	Febrero	2023-02-24T00:00:00	2024-11-08T18:00:00	4	Temperatura máxima	21.1
178819	7	Sololá	716	San Marcos la Laguna 	11	San Marcos la laguna 	2	Febrero	2023-02-24T00:00:00	2024-11-08T18:00:00	3	Temperatura mínima	20.3
178820	7	Sololá	716	San Marcos la Laguna 	11	San Marcos la laguna 	2	Febrero	2023-02-24T00:00:00	2024-11-08T18:00:00	5	Humedad	74
178821	7	Sololá	716	San Marcos la Laguna 	11	San Marcos la laguna 	2	Febrero	2023-02-24T00:00:00	2024-11-08T18:00:00	6	Velocidad del viento	3.2
178822	7	Sololá	716	San Marcos la Laguna 	11	San Marcos la laguna 	2	Febrero	2023-02-24T00:00:00	2024-11-08T18:00:00	7	Dirección del viento	3.22
178823	7	Sololá	716	San Marcos la Laguna 	11	San Marcos la laguna 	2	Febrero	2023-02-24T00:00:00	2024-11-08T18:00:00	1	Precipitación	0
178824	7	Sololá	716	San Marcos la Laguna 	11	San Marcos la laguna 	2	Febrero	2023-02-24T00:00:00	2024-11-08T18:00:00	8	Radiación solar	33
178825	7	Sololá	716	San Marcos la Laguna 	11	San Marcos la laguna 	2	Febrero	2023-02-24T00:00:00	2024-11-08T19:00:00	2	Temperatura media	18.7
178826	7	Sololá	716	San Marcos la Laguna 	11	San Marcos la laguna 	2	Febrero	2023-02-24T00:00:00	2024-11-08T19:00:00	4	Temperatura máxima	20.4
178827	7	Sololá	716	San Marcos la Laguna 	11	San Marcos la laguna 	2	Febrero	2023-02-24T00:00:00	2024-11-08T19:00:00	3	Temperatura mínima	18.7
178828	7	Sololá	716	San Marcos la Laguna 	11	San Marcos la laguna 	2	Febrero	2023-02-24T00:00:00	2024-11-08T19:00:00	5	Humedad	78
178829	7	Sololá	716	San Marcos la Laguna 	11	San Marcos la laguna 	2	Febrero	2023-02-24T00:00:00	2024-11-08T19:00:00	6	Velocidad del viento	3.2
178830	7	Sololá	716	San Marcos la Laguna 	11	San Marcos la laguna 	2	Febrero	2023-02-24T00:00:00	2024-11-08T19:00:00	7	Dirección del viento	3.22
178831	7	Sololá	716	San Marcos la Laguna 	11	San Marcos la laguna 	2	Febrero	2023-02-24T00:00:00	2024-11-08T19:00:00	1	Precipitación	0
178832	7	Sololá	716	San Marcos la Laguna 	11	San Marcos la laguna 	2	Febrero	2023-02-24T00:00:00	2024-11-08T19:00:00	8	Radiación solar	0
178833	7	Sololá	716	San Marcos la Laguna 	11	San Marcos la laguna 	2	Febrero	2023-02-24T00:00:00	2024-11-08T20:00:00	2	Temperatura media	18.1
178834	7	Sololá	716	San Marcos la Laguna 	11	San Marcos la laguna 	2	Febrero	2023-02-24T00:00:00	2024-11-08T20:00:00	4	Temperatura máxima	18.7
178835	7	Sololá	716	San Marcos la Laguna 	11	San Marcos la laguna 	2	Febrero	2023-02-24T00:00:00	2024-11-08T20:00:00	3	Temperatura mínima	18.1
178836	7	Sololá	716	San Marcos la Laguna 	11	San Marcos la laguna 	2	Febrero	2023-02-24T00:00:00	2024-11-08T20:00:00	5	Humedad	78
178837	7	Sololá	716	San Marcos la Laguna 	11	San Marcos la laguna 	2	Febrero	2023-02-24T00:00:00	2024-11-08T20:00:00	6	Velocidad del viento	4.8
178838	7	Sololá	716	San Marcos la Laguna 	11	San Marcos la laguna 	2	Febrero	2023-02-24T00:00:00	2024-11-08T20:00:00	7	Dirección del viento	4.83
178839	7	Sololá	716	San Marcos la Laguna 	11	San Marcos la laguna 	2	Febrero	2023-02-24T00:00:00	2024-11-08T20:00:00	1	Precipitación	0
178840	7	Sololá	716	San Marcos la Laguna 	11	San Marcos la laguna 	2	Febrero	2023-02-24T00:00:00	2024-11-08T20:00:00	8	Radiación solar	0
178841	7	Sololá	716	San Marcos la Laguna 	11	San Marcos la laguna 	2	Febrero	2023-02-24T00:00:00	2024-11-08T21:00:00	2	Temperatura media	17.3
178842	7	Sololá	716	San Marcos la Laguna 	11	San Marcos la laguna 	2	Febrero	2023-02-24T00:00:00	2024-11-08T21:00:00	4	Temperatura máxima	18.1
178843	7	Sololá	716	San Marcos la Laguna 	11	San Marcos la laguna 	2	Febrero	2023-02-24T00:00:00	2024-11-08T21:00:00	3	Temperatura mínima	17.1
178844	7	Sololá	716	San Marcos la Laguna 	11	San Marcos la laguna 	2	Febrero	2023-02-24T00:00:00	2024-11-08T21:00:00	5	Humedad	78
178845	7	Sololá	716	San Marcos la Laguna 	11	San Marcos la laguna 	2	Febrero	2023-02-24T00:00:00	2024-11-08T21:00:00	6	Velocidad del viento	4.8
178846	7	Sololá	716	San Marcos la Laguna 	11	San Marcos la laguna 	2	Febrero	2023-02-24T00:00:00	2024-11-08T21:00:00	7	Dirección del viento	4.83
178847	7	Sololá	716	San Marcos la Laguna 	11	San Marcos la laguna 	2	Febrero	2023-02-24T00:00:00	2024-11-08T21:00:00	1	Precipitación	0
178848	7	Sololá	716	San Marcos la Laguna 	11	San Marcos la laguna 	2	Febrero	2023-02-24T00:00:00	2024-11-08T21:00:00	8	Radiación solar	0
178849	7	Sololá	716	San Marcos la Laguna 	11	San Marcos la laguna 	2	Febrero	2023-02-24T00:00:00	2024-11-08T22:00:00	2	Temperatura media	17.7
178850	7	Sololá	716	San Marcos la Laguna 	11	San Marcos la laguna 	2	Febrero	2023-02-24T00:00:00	2024-11-08T22:00:00	4	Temperatura máxima	17.9
178851	7	Sololá	716	San Marcos la Laguna 	11	San Marcos la laguna 	2	Febrero	2023-02-24T00:00:00	2024-11-08T22:00:00	3	Temperatura mínima	17.2
178852	7	Sololá	716	San Marcos la Laguna 	11	San Marcos la laguna 	2	Febrero	2023-02-24T00:00:00	2024-11-08T22:00:00	5	Humedad	73
178853	7	Sololá	716	San Marcos la Laguna 	11	San Marcos la laguna 	2	Febrero	2023-02-24T00:00:00	2024-11-08T22:00:00	6	Velocidad del viento	8
178854	7	Sololá	716	San Marcos la Laguna 	11	San Marcos la laguna 	2	Febrero	2023-02-24T00:00:00	2024-11-08T22:00:00	7	Dirección del viento	8.05
178855	7	Sololá	716	San Marcos la Laguna 	11	San Marcos la laguna 	2	Febrero	2023-02-24T00:00:00	2024-11-08T22:00:00	1	Precipitación	0
178856	7	Sololá	716	San Marcos la Laguna 	11	San Marcos la laguna 	2	Febrero	2023-02-24T00:00:00	2024-11-08T22:00:00	8	Radiación solar	0
178857	7	Sololá	716	San Marcos la Laguna 	11	San Marcos la laguna 	2	Febrero	2023-02-24T00:00:00	2024-11-08T23:00:00	2	Temperatura media	17.3
178858	7	Sololá	716	San Marcos la Laguna 	11	San Marcos la laguna 	2	Febrero	2023-02-24T00:00:00	2024-11-08T23:00:00	4	Temperatura máxima	17.9
178859	7	Sololá	716	San Marcos la Laguna 	11	San Marcos la laguna 	2	Febrero	2023-02-24T00:00:00	2024-11-08T23:00:00	3	Temperatura mínima	17.3
178860	7	Sololá	716	San Marcos la Laguna 	11	San Marcos la laguna 	2	Febrero	2023-02-24T00:00:00	2024-11-08T23:00:00	5	Humedad	72
178861	7	Sololá	716	San Marcos la Laguna 	11	San Marcos la laguna 	2	Febrero	2023-02-24T00:00:00	2024-11-08T23:00:00	6	Velocidad del viento	8
178862	7	Sololá	716	San Marcos la Laguna 	11	San Marcos la laguna 	2	Febrero	2023-02-24T00:00:00	2024-11-08T23:00:00	7	Dirección del viento	8.05
178863	7	Sololá	716	San Marcos la Laguna 	11	San Marcos la laguna 	2	Febrero	2023-02-24T00:00:00	2024-11-08T23:00:00	1	Precipitación	0
178864	7	Sololá	716	San Marcos la Laguna 	11	San Marcos la laguna 	2	Febrero	2023-02-24T00:00:00	2024-11-08T23:00:00	8	Radiación solar	0
178865	7	Sololá	716	San Marcos la Laguna 	11	San Marcos la laguna 	2	Febrero	2023-02-25T00:00:00	2024-11-08T00:00:00	2	Temperatura media	16.4
178866	7	Sololá	716	San Marcos la Laguna 	11	San Marcos la laguna 	2	Febrero	2023-02-25T00:00:00	2024-11-08T00:00:00	4	Temperatura máxima	17.6
178867	7	Sololá	716	San Marcos la Laguna 	11	San Marcos la laguna 	2	Febrero	2023-02-25T00:00:00	2024-11-08T00:00:00	3	Temperatura mínima	16.4
178868	7	Sololá	716	San Marcos la Laguna 	11	San Marcos la laguna 	2	Febrero	2023-02-25T00:00:00	2024-11-08T00:00:00	5	Humedad	70
178869	7	Sololá	716	San Marcos la Laguna 	11	San Marcos la laguna 	2	Febrero	2023-02-25T00:00:00	2024-11-08T00:00:00	6	Velocidad del viento	8
178870	7	Sololá	716	San Marcos la Laguna 	11	San Marcos la laguna 	2	Febrero	2023-02-25T00:00:00	2024-11-08T00:00:00	7	Dirección del viento	8.05
178871	7	Sololá	716	San Marcos la Laguna 	11	San Marcos la laguna 	2	Febrero	2023-02-25T00:00:00	2024-11-08T00:00:00	1	Precipitación	0
178872	7	Sololá	716	San Marcos la Laguna 	11	San Marcos la laguna 	2	Febrero	2023-02-25T00:00:00	2024-11-08T00:00:00	8	Radiación solar	0
178873	7	Sololá	716	San Marcos la Laguna 	11	San Marcos la laguna 	2	Febrero	2023-02-25T00:00:00	2024-11-08T01:00:00	2	Temperatura media	16.3
178874	7	Sololá	716	San Marcos la Laguna 	11	San Marcos la laguna 	2	Febrero	2023-02-25T00:00:00	2024-11-08T01:00:00	4	Temperatura máxima	16.9
178875	7	Sololá	716	San Marcos la Laguna 	11	San Marcos la laguna 	2	Febrero	2023-02-25T00:00:00	2024-11-08T01:00:00	3	Temperatura mínima	15.8
178876	7	Sololá	716	San Marcos la Laguna 	11	San Marcos la laguna 	2	Febrero	2023-02-25T00:00:00	2024-11-08T01:00:00	5	Humedad	74
178877	7	Sololá	716	San Marcos la Laguna 	11	San Marcos la laguna 	2	Febrero	2023-02-25T00:00:00	2024-11-08T01:00:00	6	Velocidad del viento	6.4
178878	7	Sololá	716	San Marcos la Laguna 	11	San Marcos la laguna 	2	Febrero	2023-02-25T00:00:00	2024-11-08T01:00:00	7	Dirección del viento	6.44
178879	7	Sololá	716	San Marcos la Laguna 	11	San Marcos la laguna 	2	Febrero	2023-02-25T00:00:00	2024-11-08T01:00:00	1	Precipitación	0
178880	7	Sololá	716	San Marcos la Laguna 	11	San Marcos la laguna 	2	Febrero	2023-02-25T00:00:00	2024-11-08T01:00:00	8	Radiación solar	0
178881	7	Sololá	716	San Marcos la Laguna 	11	San Marcos la laguna 	2	Febrero	2023-02-25T00:00:00	2024-11-08T02:00:00	2	Temperatura media	15.4
178882	7	Sololá	716	San Marcos la Laguna 	11	San Marcos la laguna 	2	Febrero	2023-02-25T00:00:00	2024-11-08T02:00:00	4	Temperatura máxima	16.4
178883	7	Sololá	716	San Marcos la Laguna 	11	San Marcos la laguna 	2	Febrero	2023-02-25T00:00:00	2024-11-08T02:00:00	3	Temperatura mínima	15.4
178884	7	Sololá	716	San Marcos la Laguna 	11	San Marcos la laguna 	2	Febrero	2023-02-25T00:00:00	2024-11-08T02:00:00	5	Humedad	77
178885	7	Sololá	716	San Marcos la Laguna 	11	San Marcos la laguna 	2	Febrero	2023-02-25T00:00:00	2024-11-08T02:00:00	6	Velocidad del viento	9.7
178886	7	Sololá	716	San Marcos la Laguna 	11	San Marcos la laguna 	2	Febrero	2023-02-25T00:00:00	2024-11-08T02:00:00	7	Dirección del viento	9.66
178887	7	Sololá	716	San Marcos la Laguna 	11	San Marcos la laguna 	2	Febrero	2023-02-25T00:00:00	2024-11-08T02:00:00	1	Precipitación	0
178888	7	Sololá	716	San Marcos la Laguna 	11	San Marcos la laguna 	2	Febrero	2023-02-25T00:00:00	2024-11-08T02:00:00	8	Radiación solar	0
178889	7	Sololá	716	San Marcos la Laguna 	11	San Marcos la laguna 	2	Febrero	2023-02-25T00:00:00	2024-11-08T03:00:00	2	Temperatura media	14.6
178890	7	Sololá	716	San Marcos la Laguna 	11	San Marcos la laguna 	2	Febrero	2023-02-25T00:00:00	2024-11-08T03:00:00	4	Temperatura máxima	15.7
178891	7	Sololá	716	San Marcos la Laguna 	11	San Marcos la laguna 	2	Febrero	2023-02-25T00:00:00	2024-11-08T03:00:00	3	Temperatura mínima	14.6
178892	7	Sololá	716	San Marcos la Laguna 	11	San Marcos la laguna 	2	Febrero	2023-02-25T00:00:00	2024-11-08T03:00:00	5	Humedad	75
178893	7	Sololá	716	San Marcos la Laguna 	11	San Marcos la laguna 	2	Febrero	2023-02-25T00:00:00	2024-11-08T03:00:00	6	Velocidad del viento	8
178894	7	Sololá	716	San Marcos la Laguna 	11	San Marcos la laguna 	2	Febrero	2023-02-25T00:00:00	2024-11-08T03:00:00	7	Dirección del viento	8.05
178895	7	Sololá	716	San Marcos la Laguna 	11	San Marcos la laguna 	2	Febrero	2023-02-25T00:00:00	2024-11-08T03:00:00	1	Precipitación	0
178896	7	Sololá	716	San Marcos la Laguna 	11	San Marcos la laguna 	2	Febrero	2023-02-25T00:00:00	2024-11-08T03:00:00	8	Radiación solar	0
178897	7	Sololá	716	San Marcos la Laguna 	11	San Marcos la laguna 	2	Febrero	2023-02-25T00:00:00	2024-11-08T04:00:00	2	Temperatura media	14.9
178898	7	Sololá	716	San Marcos la Laguna 	11	San Marcos la laguna 	2	Febrero	2023-02-25T00:00:00	2024-11-08T04:00:00	4	Temperatura máxima	14.9
178899	7	Sololá	716	San Marcos la Laguna 	11	San Marcos la laguna 	2	Febrero	2023-02-25T00:00:00	2024-11-08T04:00:00	3	Temperatura mínima	14.1
178900	7	Sololá	716	San Marcos la Laguna 	11	San Marcos la laguna 	2	Febrero	2023-02-25T00:00:00	2024-11-08T04:00:00	5	Humedad	74
178901	7	Sololá	716	San Marcos la Laguna 	11	San Marcos la laguna 	2	Febrero	2023-02-25T00:00:00	2024-11-08T04:00:00	6	Velocidad del viento	8
178902	7	Sololá	716	San Marcos la Laguna 	11	San Marcos la laguna 	2	Febrero	2023-02-25T00:00:00	2024-11-08T04:00:00	7	Dirección del viento	8.05
178903	7	Sololá	716	San Marcos la Laguna 	11	San Marcos la laguna 	2	Febrero	2023-02-25T00:00:00	2024-11-08T04:00:00	1	Precipitación	0
178904	7	Sololá	716	San Marcos la Laguna 	11	San Marcos la laguna 	2	Febrero	2023-02-25T00:00:00	2024-11-08T04:00:00	8	Radiación solar	0
178905	7	Sololá	716	San Marcos la Laguna 	11	San Marcos la laguna 	2	Febrero	2023-02-25T00:00:00	2024-11-08T05:00:00	2	Temperatura media	14.1
178906	7	Sololá	716	San Marcos la Laguna 	11	San Marcos la laguna 	2	Febrero	2023-02-25T00:00:00	2024-11-08T05:00:00	4	Temperatura máxima	14.8
178907	7	Sololá	716	San Marcos la Laguna 	11	San Marcos la laguna 	2	Febrero	2023-02-25T00:00:00	2024-11-08T05:00:00	3	Temperatura mínima	13.8
178908	7	Sololá	716	San Marcos la Laguna 	11	San Marcos la laguna 	2	Febrero	2023-02-25T00:00:00	2024-11-08T05:00:00	5	Humedad	77
178909	7	Sololá	716	San Marcos la Laguna 	11	San Marcos la laguna 	2	Febrero	2023-02-25T00:00:00	2024-11-08T05:00:00	6	Velocidad del viento	9.7
178910	7	Sololá	716	San Marcos la Laguna 	11	San Marcos la laguna 	2	Febrero	2023-02-25T00:00:00	2024-11-08T05:00:00	7	Dirección del viento	9.66
178911	7	Sololá	716	San Marcos la Laguna 	11	San Marcos la laguna 	2	Febrero	2023-02-25T00:00:00	2024-11-08T05:00:00	1	Precipitación	0
178912	7	Sololá	716	San Marcos la Laguna 	11	San Marcos la laguna 	2	Febrero	2023-02-25T00:00:00	2024-11-08T05:00:00	8	Radiación solar	0
178913	7	Sololá	716	San Marcos la Laguna 	11	San Marcos la laguna 	2	Febrero	2023-02-25T00:00:00	2024-11-08T06:00:00	2	Temperatura media	13.8
178914	7	Sololá	716	San Marcos la Laguna 	11	San Marcos la laguna 	2	Febrero	2023-02-25T00:00:00	2024-11-08T06:00:00	4	Temperatura máxima	14.6
178915	7	Sololá	716	San Marcos la Laguna 	11	San Marcos la laguna 	2	Febrero	2023-02-25T00:00:00	2024-11-08T06:00:00	3	Temperatura mínima	13.7
178916	7	Sololá	716	San Marcos la Laguna 	11	San Marcos la laguna 	2	Febrero	2023-02-25T00:00:00	2024-11-08T06:00:00	5	Humedad	77
178917	7	Sololá	716	San Marcos la Laguna 	11	San Marcos la laguna 	2	Febrero	2023-02-25T00:00:00	2024-11-08T06:00:00	6	Velocidad del viento	9.7
178918	7	Sololá	716	San Marcos la Laguna 	11	San Marcos la laguna 	2	Febrero	2023-02-25T00:00:00	2024-11-08T06:00:00	7	Dirección del viento	9.66
178919	7	Sololá	716	San Marcos la Laguna 	11	San Marcos la laguna 	2	Febrero	2023-02-25T00:00:00	2024-11-08T06:00:00	1	Precipitación	0
178920	7	Sololá	716	San Marcos la Laguna 	11	San Marcos la laguna 	2	Febrero	2023-02-25T00:00:00	2024-11-08T06:00:00	8	Radiación solar	0
178921	7	Sololá	716	San Marcos la Laguna 	11	San Marcos la laguna 	2	Febrero	2023-02-25T00:00:00	2024-11-08T07:00:00	2	Temperatura media	14
178922	7	Sololá	716	San Marcos la Laguna 	11	San Marcos la laguna 	2	Febrero	2023-02-25T00:00:00	2024-11-08T07:00:00	4	Temperatura máxima	14.3
178923	7	Sololá	716	San Marcos la Laguna 	11	San Marcos la laguna 	2	Febrero	2023-02-25T00:00:00	2024-11-08T07:00:00	3	Temperatura mínima	13.5
178924	7	Sololá	716	San Marcos la Laguna 	11	San Marcos la laguna 	2	Febrero	2023-02-25T00:00:00	2024-11-08T07:00:00	5	Humedad	76
178925	7	Sololá	716	San Marcos la Laguna 	11	San Marcos la laguna 	2	Febrero	2023-02-25T00:00:00	2024-11-08T07:00:00	6	Velocidad del viento	8
178926	7	Sololá	716	San Marcos la Laguna 	11	San Marcos la laguna 	2	Febrero	2023-02-25T00:00:00	2024-11-08T07:00:00	7	Dirección del viento	8.05
178927	7	Sololá	716	San Marcos la Laguna 	11	San Marcos la laguna 	2	Febrero	2023-02-25T00:00:00	2024-11-08T07:00:00	1	Precipitación	0
178928	7	Sololá	716	San Marcos la Laguna 	11	San Marcos la laguna 	2	Febrero	2023-02-25T00:00:00	2024-11-08T07:00:00	8	Radiación solar	8
178929	7	Sololá	716	San Marcos la Laguna 	11	San Marcos la laguna 	2	Febrero	2023-02-25T00:00:00	2024-11-08T08:00:00	2	Temperatura media	17.4
178930	7	Sololá	716	San Marcos la Laguna 	11	San Marcos la laguna 	2	Febrero	2023-02-25T00:00:00	2024-11-08T08:00:00	4	Temperatura máxima	17.4
178931	7	Sololá	716	San Marcos la Laguna 	11	San Marcos la laguna 	2	Febrero	2023-02-25T00:00:00	2024-11-08T08:00:00	3	Temperatura mínima	14
178932	7	Sololá	716	San Marcos la Laguna 	11	San Marcos la laguna 	2	Febrero	2023-02-25T00:00:00	2024-11-08T08:00:00	5	Humedad	70
178933	7	Sololá	716	San Marcos la Laguna 	11	San Marcos la laguna 	2	Febrero	2023-02-25T00:00:00	2024-11-08T08:00:00	6	Velocidad del viento	4.8
178934	7	Sololá	716	San Marcos la Laguna 	11	San Marcos la laguna 	2	Febrero	2023-02-25T00:00:00	2024-11-08T08:00:00	7	Dirección del viento	4.83
178935	7	Sololá	716	San Marcos la Laguna 	11	San Marcos la laguna 	2	Febrero	2023-02-25T00:00:00	2024-11-08T08:00:00	1	Precipitación	0
178936	7	Sololá	716	San Marcos la Laguna 	11	San Marcos la laguna 	2	Febrero	2023-02-25T00:00:00	2024-11-08T08:00:00	8	Radiación solar	131
178937	7	Sololá	716	San Marcos la Laguna 	11	San Marcos la laguna 	2	Febrero	2023-02-25T00:00:00	2024-11-08T09:00:00	2	Temperatura media	20.5
178938	7	Sololá	716	San Marcos la Laguna 	11	San Marcos la laguna 	2	Febrero	2023-02-25T00:00:00	2024-11-08T09:00:00	4	Temperatura máxima	20.6
178939	7	Sololá	716	San Marcos la Laguna 	11	San Marcos la laguna 	2	Febrero	2023-02-25T00:00:00	2024-11-08T09:00:00	3	Temperatura mínima	17.4
178940	7	Sololá	716	San Marcos la Laguna 	11	San Marcos la laguna 	2	Febrero	2023-02-25T00:00:00	2024-11-08T09:00:00	5	Humedad	62
178941	7	Sololá	716	San Marcos la Laguna 	11	San Marcos la laguna 	2	Febrero	2023-02-25T00:00:00	2024-11-08T09:00:00	6	Velocidad del viento	1.6
178942	7	Sololá	716	San Marcos la Laguna 	11	San Marcos la laguna 	2	Febrero	2023-02-25T00:00:00	2024-11-08T09:00:00	7	Dirección del viento	1.61
178943	7	Sololá	716	San Marcos la Laguna 	11	San Marcos la laguna 	2	Febrero	2023-02-25T00:00:00	2024-11-08T09:00:00	1	Precipitación	0
178944	7	Sololá	716	San Marcos la Laguna 	11	San Marcos la laguna 	2	Febrero	2023-02-25T00:00:00	2024-11-08T09:00:00	8	Radiación solar	373
178945	7	Sololá	716	San Marcos la Laguna 	11	San Marcos la laguna 	2	Febrero	2023-02-25T00:00:00	2024-11-08T10:00:00	2	Temperatura media	22.2
178946	7	Sololá	716	San Marcos la Laguna 	11	San Marcos la laguna 	2	Febrero	2023-02-25T00:00:00	2024-11-08T10:00:00	4	Temperatura máxima	22.2
178947	7	Sololá	716	San Marcos la Laguna 	11	San Marcos la laguna 	2	Febrero	2023-02-25T00:00:00	2024-11-08T10:00:00	3	Temperatura mínima	20.5
178948	7	Sololá	716	San Marcos la Laguna 	11	San Marcos la laguna 	2	Febrero	2023-02-25T00:00:00	2024-11-08T10:00:00	5	Humedad	51
178949	7	Sololá	716	San Marcos la Laguna 	11	San Marcos la laguna 	2	Febrero	2023-02-25T00:00:00	2024-11-08T10:00:00	6	Velocidad del viento	3.2
178950	7	Sololá	716	San Marcos la Laguna 	11	San Marcos la laguna 	2	Febrero	2023-02-25T00:00:00	2024-11-08T10:00:00	7	Dirección del viento	3.22
178951	7	Sololá	716	San Marcos la Laguna 	11	San Marcos la laguna 	2	Febrero	2023-02-25T00:00:00	2024-11-08T10:00:00	1	Precipitación	0
178952	7	Sololá	716	San Marcos la Laguna 	11	San Marcos la laguna 	2	Febrero	2023-02-25T00:00:00	2024-11-08T10:00:00	8	Radiación solar	585
178953	7	Sololá	716	San Marcos la Laguna 	11	San Marcos la laguna 	2	Febrero	2023-02-25T00:00:00	2024-11-08T11:00:00	2	Temperatura media	23.8
178954	7	Sololá	716	San Marcos la Laguna 	11	San Marcos la laguna 	2	Febrero	2023-02-25T00:00:00	2024-11-08T11:00:00	4	Temperatura máxima	23.8
178955	7	Sololá	716	San Marcos la Laguna 	11	San Marcos la laguna 	2	Febrero	2023-02-25T00:00:00	2024-11-08T11:00:00	3	Temperatura mínima	22.2
178956	7	Sololá	716	San Marcos la Laguna 	11	San Marcos la laguna 	2	Febrero	2023-02-25T00:00:00	2024-11-08T11:00:00	5	Humedad	43
178957	7	Sololá	716	San Marcos la Laguna 	11	San Marcos la laguna 	2	Febrero	2023-02-25T00:00:00	2024-11-08T11:00:00	6	Velocidad del viento	3.2
178958	7	Sololá	716	San Marcos la Laguna 	11	San Marcos la laguna 	2	Febrero	2023-02-25T00:00:00	2024-11-08T11:00:00	7	Dirección del viento	3.22
178959	7	Sololá	716	San Marcos la Laguna 	11	San Marcos la laguna 	2	Febrero	2023-02-25T00:00:00	2024-11-08T11:00:00	1	Precipitación	0
178960	7	Sololá	716	San Marcos la Laguna 	11	San Marcos la laguna 	2	Febrero	2023-02-25T00:00:00	2024-11-08T11:00:00	8	Radiación solar	742
178961	7	Sololá	716	San Marcos la Laguna 	11	San Marcos la laguna 	2	Febrero	2023-02-25T00:00:00	2024-11-08T12:00:00	2	Temperatura media	25.8
178962	7	Sololá	716	San Marcos la Laguna 	11	San Marcos la laguna 	2	Febrero	2023-02-25T00:00:00	2024-11-08T12:00:00	4	Temperatura máxima	25.8
178963	7	Sololá	716	San Marcos la Laguna 	11	San Marcos la laguna 	2	Febrero	2023-02-25T00:00:00	2024-11-08T12:00:00	3	Temperatura mínima	23.8
178964	7	Sololá	716	San Marcos la Laguna 	11	San Marcos la laguna 	2	Febrero	2023-02-25T00:00:00	2024-11-08T12:00:00	5	Humedad	32
178965	7	Sololá	716	San Marcos la Laguna 	11	San Marcos la laguna 	2	Febrero	2023-02-25T00:00:00	2024-11-08T12:00:00	6	Velocidad del viento	3.2
178966	7	Sololá	716	San Marcos la Laguna 	11	San Marcos la laguna 	2	Febrero	2023-02-25T00:00:00	2024-11-08T12:00:00	7	Dirección del viento	3.22
178967	7	Sololá	716	San Marcos la Laguna 	11	San Marcos la laguna 	2	Febrero	2023-02-25T00:00:00	2024-11-08T12:00:00	1	Precipitación	0
178968	7	Sololá	716	San Marcos la Laguna 	11	San Marcos la laguna 	2	Febrero	2023-02-25T00:00:00	2024-11-08T12:00:00	8	Radiación solar	739
178969	7	Sololá	716	San Marcos la Laguna 	11	San Marcos la laguna 	2	Febrero	2023-02-25T00:00:00	2024-11-08T13:00:00	2	Temperatura media	23.7
178970	7	Sololá	716	San Marcos la Laguna 	11	San Marcos la laguna 	2	Febrero	2023-02-25T00:00:00	2024-11-08T13:00:00	4	Temperatura máxima	26
178971	7	Sololá	716	San Marcos la Laguna 	11	San Marcos la laguna 	2	Febrero	2023-02-25T00:00:00	2024-11-08T13:00:00	3	Temperatura mínima	23.6
178972	7	Sololá	716	San Marcos la Laguna 	11	San Marcos la laguna 	2	Febrero	2023-02-25T00:00:00	2024-11-08T13:00:00	5	Humedad	62
178973	7	Sololá	716	San Marcos la Laguna 	11	San Marcos la laguna 	2	Febrero	2023-02-25T00:00:00	2024-11-08T13:00:00	6	Velocidad del viento	9.7
178974	7	Sololá	716	San Marcos la Laguna 	11	San Marcos la laguna 	2	Febrero	2023-02-25T00:00:00	2024-11-08T13:00:00	7	Dirección del viento	9.66
178975	7	Sololá	716	San Marcos la Laguna 	11	San Marcos la laguna 	2	Febrero	2023-02-25T00:00:00	2024-11-08T13:00:00	1	Precipitación	0
178976	7	Sololá	716	San Marcos la Laguna 	11	San Marcos la laguna 	2	Febrero	2023-02-25T00:00:00	2024-11-08T13:00:00	8	Radiación solar	852
178977	7	Sololá	716	San Marcos la Laguna 	11	San Marcos la laguna 	2	Febrero	2023-02-25T00:00:00	2024-11-08T14:00:00	2	Temperatura media	23.2
178978	7	Sololá	716	San Marcos la Laguna 	11	San Marcos la laguna 	2	Febrero	2023-02-25T00:00:00	2024-11-08T14:00:00	4	Temperatura máxima	23.9
178979	7	Sololá	716	San Marcos la Laguna 	11	San Marcos la laguna 	2	Febrero	2023-02-25T00:00:00	2024-11-08T14:00:00	3	Temperatura mínima	23.1
178980	7	Sololá	716	San Marcos la Laguna 	11	San Marcos la laguna 	2	Febrero	2023-02-25T00:00:00	2024-11-08T14:00:00	5	Humedad	65
178981	7	Sololá	716	San Marcos la Laguna 	11	San Marcos la laguna 	2	Febrero	2023-02-25T00:00:00	2024-11-08T14:00:00	6	Velocidad del viento	12.9
178982	7	Sololá	716	San Marcos la Laguna 	11	San Marcos la laguna 	2	Febrero	2023-02-25T00:00:00	2024-11-08T14:00:00	7	Dirección del viento	12.87
178983	7	Sololá	716	San Marcos la Laguna 	11	San Marcos la laguna 	2	Febrero	2023-02-25T00:00:00	2024-11-08T14:00:00	1	Precipitación	0
178984	7	Sololá	716	San Marcos la Laguna 	11	San Marcos la laguna 	2	Febrero	2023-02-25T00:00:00	2024-11-08T14:00:00	8	Radiación solar	813
178985	7	Sololá	716	San Marcos la Laguna 	11	San Marcos la laguna 	2	Febrero	2023-02-25T00:00:00	2024-11-08T15:00:00	2	Temperatura media	23.4
178986	7	Sololá	716	San Marcos la Laguna 	11	San Marcos la laguna 	2	Febrero	2023-02-25T00:00:00	2024-11-08T15:00:00	4	Temperatura máxima	23.9
178987	7	Sololá	716	San Marcos la Laguna 	11	San Marcos la laguna 	2	Febrero	2023-02-25T00:00:00	2024-11-08T15:00:00	3	Temperatura mínima	23.1
178988	7	Sololá	716	San Marcos la Laguna 	11	San Marcos la laguna 	2	Febrero	2023-02-25T00:00:00	2024-11-08T15:00:00	5	Humedad	67
178989	7	Sololá	716	San Marcos la Laguna 	11	San Marcos la laguna 	2	Febrero	2023-02-25T00:00:00	2024-11-08T15:00:00	6	Velocidad del viento	9.7
178990	7	Sololá	716	San Marcos la Laguna 	11	San Marcos la laguna 	2	Febrero	2023-02-25T00:00:00	2024-11-08T15:00:00	7	Dirección del viento	9.66
178991	7	Sololá	716	San Marcos la Laguna 	11	San Marcos la laguna 	2	Febrero	2023-02-25T00:00:00	2024-11-08T15:00:00	1	Precipitación	0
178992	7	Sololá	716	San Marcos la Laguna 	11	San Marcos la laguna 	2	Febrero	2023-02-25T00:00:00	2024-11-08T15:00:00	8	Radiación solar	694
178993	7	Sololá	716	San Marcos la Laguna 	11	San Marcos la laguna 	2	Febrero	2023-02-25T00:00:00	2024-11-08T16:00:00	2	Temperatura media	23.1
178994	7	Sololá	716	San Marcos la Laguna 	11	San Marcos la laguna 	2	Febrero	2023-02-25T00:00:00	2024-11-08T16:00:00	4	Temperatura máxima	24.7
178995	7	Sololá	716	San Marcos la Laguna 	11	San Marcos la laguna 	2	Febrero	2023-02-25T00:00:00	2024-11-08T16:00:00	3	Temperatura mínima	23.1
178996	7	Sololá	716	San Marcos la Laguna 	11	San Marcos la laguna 	2	Febrero	2023-02-25T00:00:00	2024-11-08T16:00:00	5	Humedad	70
178997	7	Sololá	716	San Marcos la Laguna 	11	San Marcos la laguna 	2	Febrero	2023-02-25T00:00:00	2024-11-08T16:00:00	6	Velocidad del viento	6.4
178998	7	Sololá	716	San Marcos la Laguna 	11	San Marcos la laguna 	2	Febrero	2023-02-25T00:00:00	2024-11-08T16:00:00	7	Dirección del viento	6.44
178999	7	Sololá	716	San Marcos la Laguna 	11	San Marcos la laguna 	2	Febrero	2023-02-25T00:00:00	2024-11-08T16:00:00	1	Precipitación	0
179000	7	Sololá	716	San Marcos la Laguna 	11	San Marcos la laguna 	2	Febrero	2023-02-25T00:00:00	2024-11-08T16:00:00	8	Radiación solar	515
179001	7	Sololá	716	San Marcos la Laguna 	11	San Marcos la laguna 	2	Febrero	2023-02-25T00:00:00	2024-11-08T17:00:00	2	Temperatura media	22.3
179002	7	Sololá	716	San Marcos la Laguna 	11	San Marcos la laguna 	2	Febrero	2023-02-25T00:00:00	2024-11-08T17:00:00	4	Temperatura máxima	23.1
179003	7	Sololá	716	San Marcos la Laguna 	11	San Marcos la laguna 	2	Febrero	2023-02-25T00:00:00	2024-11-08T17:00:00	3	Temperatura mínima	22.2
179004	7	Sololá	716	San Marcos la Laguna 	11	San Marcos la laguna 	2	Febrero	2023-02-25T00:00:00	2024-11-08T17:00:00	5	Humedad	74
179005	7	Sololá	716	San Marcos la Laguna 	11	San Marcos la laguna 	2	Febrero	2023-02-25T00:00:00	2024-11-08T17:00:00	6	Velocidad del viento	8
179006	7	Sololá	716	San Marcos la Laguna 	11	San Marcos la laguna 	2	Febrero	2023-02-25T00:00:00	2024-11-08T17:00:00	7	Dirección del viento	8.05
179007	7	Sololá	716	San Marcos la Laguna 	11	San Marcos la laguna 	2	Febrero	2023-02-25T00:00:00	2024-11-08T17:00:00	1	Precipitación	0
179008	7	Sololá	716	San Marcos la Laguna 	11	San Marcos la laguna 	2	Febrero	2023-02-25T00:00:00	2024-11-08T17:00:00	8	Radiación solar	159
179009	7	Sololá	716	San Marcos la Laguna 	11	San Marcos la laguna 	2	Febrero	2023-02-25T00:00:00	2024-11-08T18:00:00	2	Temperatura media	20.4
179010	7	Sololá	716	San Marcos la Laguna 	11	San Marcos la laguna 	2	Febrero	2023-02-25T00:00:00	2024-11-08T18:00:00	4	Temperatura máxima	22.3
179011	7	Sololá	716	San Marcos la Laguna 	11	San Marcos la laguna 	2	Febrero	2023-02-25T00:00:00	2024-11-08T18:00:00	3	Temperatura mínima	20.4
179012	7	Sololá	716	San Marcos la Laguna 	11	San Marcos la laguna 	2	Febrero	2023-02-25T00:00:00	2024-11-08T18:00:00	5	Humedad	82
179013	7	Sololá	716	San Marcos la Laguna 	11	San Marcos la laguna 	2	Febrero	2023-02-25T00:00:00	2024-11-08T18:00:00	6	Velocidad del viento	6.4
179014	7	Sololá	716	San Marcos la Laguna 	11	San Marcos la laguna 	2	Febrero	2023-02-25T00:00:00	2024-11-08T18:00:00	7	Dirección del viento	6.44
179015	7	Sololá	716	San Marcos la Laguna 	11	San Marcos la laguna 	2	Febrero	2023-02-25T00:00:00	2024-11-08T18:00:00	1	Precipitación	0
179016	7	Sololá	716	San Marcos la Laguna 	11	San Marcos la laguna 	2	Febrero	2023-02-25T00:00:00	2024-11-08T18:00:00	8	Radiación solar	31
179017	7	Sololá	716	San Marcos la Laguna 	11	San Marcos la laguna 	2	Febrero	2023-02-25T00:00:00	2024-11-08T19:00:00	2	Temperatura media	19.4
179018	7	Sololá	716	San Marcos la Laguna 	11	San Marcos la laguna 	2	Febrero	2023-02-25T00:00:00	2024-11-08T19:00:00	4	Temperatura máxima	20.4
179019	7	Sololá	716	San Marcos la Laguna 	11	San Marcos la laguna 	2	Febrero	2023-02-25T00:00:00	2024-11-08T19:00:00	3	Temperatura mínima	19.3
179020	7	Sololá	716	San Marcos la Laguna 	11	San Marcos la laguna 	2	Febrero	2023-02-25T00:00:00	2024-11-08T19:00:00	5	Humedad	85
179021	7	Sololá	716	San Marcos la Laguna 	11	San Marcos la laguna 	2	Febrero	2023-02-25T00:00:00	2024-11-08T19:00:00	6	Velocidad del viento	4.8
179022	7	Sololá	716	San Marcos la Laguna 	11	San Marcos la laguna 	2	Febrero	2023-02-25T00:00:00	2024-11-08T19:00:00	7	Dirección del viento	4.83
179023	7	Sololá	716	San Marcos la Laguna 	11	San Marcos la laguna 	2	Febrero	2023-02-25T00:00:00	2024-11-08T19:00:00	1	Precipitación	0
179024	7	Sololá	716	San Marcos la Laguna 	11	San Marcos la laguna 	2	Febrero	2023-02-25T00:00:00	2024-11-08T19:00:00	8	Radiación solar	0
179025	7	Sololá	716	San Marcos la Laguna 	11	San Marcos la laguna 	2	Febrero	2023-02-25T00:00:00	2024-11-08T20:00:00	2	Temperatura media	18.2
179026	7	Sololá	716	San Marcos la Laguna 	11	San Marcos la laguna 	2	Febrero	2023-02-25T00:00:00	2024-11-08T20:00:00	4	Temperatura máxima	19.4
179027	7	Sololá	716	San Marcos la Laguna 	11	San Marcos la laguna 	2	Febrero	2023-02-25T00:00:00	2024-11-08T20:00:00	3	Temperatura mínima	18.1
179028	7	Sololá	716	San Marcos la Laguna 	11	San Marcos la laguna 	2	Febrero	2023-02-25T00:00:00	2024-11-08T20:00:00	5	Humedad	81
179029	7	Sololá	716	San Marcos la Laguna 	11	San Marcos la laguna 	2	Febrero	2023-02-25T00:00:00	2024-11-08T20:00:00	6	Velocidad del viento	3.2
179030	7	Sololá	716	San Marcos la Laguna 	11	San Marcos la laguna 	2	Febrero	2023-02-25T00:00:00	2024-11-08T20:00:00	7	Dirección del viento	3.22
179031	7	Sololá	716	San Marcos la Laguna 	11	San Marcos la laguna 	2	Febrero	2023-02-25T00:00:00	2024-11-08T20:00:00	1	Precipitación	0
179032	7	Sololá	716	San Marcos la Laguna 	11	San Marcos la laguna 	2	Febrero	2023-02-25T00:00:00	2024-11-08T20:00:00	8	Radiación solar	0
179033	7	Sololá	716	San Marcos la Laguna 	11	San Marcos la laguna 	2	Febrero	2023-02-25T00:00:00	2024-11-08T21:00:00	2	Temperatura media	18.1
179034	7	Sololá	716	San Marcos la Laguna 	11	San Marcos la laguna 	2	Febrero	2023-02-25T00:00:00	2024-11-08T21:00:00	4	Temperatura máxima	18.3
179035	7	Sololá	716	San Marcos la Laguna 	11	San Marcos la laguna 	2	Febrero	2023-02-25T00:00:00	2024-11-08T21:00:00	3	Temperatura mínima	17.8
179036	7	Sololá	716	San Marcos la Laguna 	11	San Marcos la laguna 	2	Febrero	2023-02-25T00:00:00	2024-11-08T21:00:00	5	Humedad	74
179037	7	Sololá	716	San Marcos la Laguna 	11	San Marcos la laguna 	2	Febrero	2023-02-25T00:00:00	2024-11-08T21:00:00	6	Velocidad del viento	4.8
179038	7	Sololá	716	San Marcos la Laguna 	11	San Marcos la laguna 	2	Febrero	2023-02-25T00:00:00	2024-11-08T21:00:00	7	Dirección del viento	4.83
179039	7	Sololá	716	San Marcos la Laguna 	11	San Marcos la laguna 	2	Febrero	2023-02-25T00:00:00	2024-11-08T21:00:00	1	Precipitación	0
179040	7	Sololá	716	San Marcos la Laguna 	11	San Marcos la laguna 	2	Febrero	2023-02-25T00:00:00	2024-11-08T21:00:00	8	Radiación solar	0
179041	7	Sololá	716	San Marcos la Laguna 	11	San Marcos la laguna 	2	Febrero	2023-02-25T00:00:00	2024-11-08T22:00:00	2	Temperatura media	17.6
179042	7	Sololá	716	San Marcos la Laguna 	11	San Marcos la laguna 	2	Febrero	2023-02-25T00:00:00	2024-11-08T22:00:00	4	Temperatura máxima	18.5
179043	7	Sololá	716	San Marcos la Laguna 	11	San Marcos la laguna 	2	Febrero	2023-02-25T00:00:00	2024-11-08T22:00:00	3	Temperatura mínima	17.6
179044	7	Sololá	716	San Marcos la Laguna 	11	San Marcos la laguna 	2	Febrero	2023-02-25T00:00:00	2024-11-08T22:00:00	5	Humedad	68
179045	7	Sololá	716	San Marcos la Laguna 	11	San Marcos la laguna 	2	Febrero	2023-02-25T00:00:00	2024-11-08T22:00:00	6	Velocidad del viento	6.4
179046	7	Sololá	716	San Marcos la Laguna 	11	San Marcos la laguna 	2	Febrero	2023-02-25T00:00:00	2024-11-08T22:00:00	7	Dirección del viento	6.44
179047	7	Sololá	716	San Marcos la Laguna 	11	San Marcos la laguna 	2	Febrero	2023-02-25T00:00:00	2024-11-08T22:00:00	1	Precipitación	0
179048	7	Sololá	716	San Marcos la Laguna 	11	San Marcos la laguna 	2	Febrero	2023-02-25T00:00:00	2024-11-08T22:00:00	8	Radiación solar	0
179049	7	Sololá	716	San Marcos la Laguna 	11	San Marcos la laguna 	2	Febrero	2023-02-25T00:00:00	2024-11-08T23:00:00	2	Temperatura media	16.6
179050	7	Sololá	716	San Marcos la Laguna 	11	San Marcos la laguna 	2	Febrero	2023-02-25T00:00:00	2024-11-08T23:00:00	4	Temperatura máxima	17.6
179051	7	Sololá	716	San Marcos la Laguna 	11	San Marcos la laguna 	2	Febrero	2023-02-25T00:00:00	2024-11-08T23:00:00	3	Temperatura mínima	16.6
179052	7	Sololá	716	San Marcos la Laguna 	11	San Marcos la laguna 	2	Febrero	2023-02-25T00:00:00	2024-11-08T23:00:00	5	Humedad	70
179053	7	Sololá	716	San Marcos la Laguna 	11	San Marcos la laguna 	2	Febrero	2023-02-25T00:00:00	2024-11-08T23:00:00	6	Velocidad del viento	8
179054	7	Sololá	716	San Marcos la Laguna 	11	San Marcos la laguna 	2	Febrero	2023-02-25T00:00:00	2024-11-08T23:00:00	7	Dirección del viento	8.05
179055	7	Sololá	716	San Marcos la Laguna 	11	San Marcos la laguna 	2	Febrero	2023-02-25T00:00:00	2024-11-08T23:00:00	1	Precipitación	0
179056	7	Sololá	716	San Marcos la Laguna 	11	San Marcos la laguna 	2	Febrero	2023-02-25T00:00:00	2024-11-08T23:00:00	8	Radiación solar	0
179057	7	Sololá	716	San Marcos la Laguna 	11	San Marcos la laguna 	2	Febrero	2023-02-26T00:00:00	2024-11-08T00:00:00	2	Temperatura media	16.4
179058	7	Sololá	716	San Marcos la Laguna 	11	San Marcos la laguna 	2	Febrero	2023-02-26T00:00:00	2024-11-08T00:00:00	4	Temperatura máxima	16.9
179059	7	Sololá	716	San Marcos la Laguna 	11	San Marcos la laguna 	2	Febrero	2023-02-26T00:00:00	2024-11-08T00:00:00	3	Temperatura mínima	16.4
179060	7	Sololá	716	San Marcos la Laguna 	11	San Marcos la laguna 	2	Febrero	2023-02-26T00:00:00	2024-11-08T00:00:00	5	Humedad	68
179061	7	Sololá	716	San Marcos la Laguna 	11	San Marcos la laguna 	2	Febrero	2023-02-26T00:00:00	2024-11-08T00:00:00	6	Velocidad del viento	6.4
179062	7	Sololá	716	San Marcos la Laguna 	11	San Marcos la laguna 	2	Febrero	2023-02-26T00:00:00	2024-11-08T00:00:00	7	Dirección del viento	6.44
179063	7	Sololá	716	San Marcos la Laguna 	11	San Marcos la laguna 	2	Febrero	2023-02-26T00:00:00	2024-11-08T00:00:00	1	Precipitación	0
179064	7	Sololá	716	San Marcos la Laguna 	11	San Marcos la laguna 	2	Febrero	2023-02-26T00:00:00	2024-11-08T00:00:00	8	Radiación solar	0
179065	7	Sololá	716	San Marcos la Laguna 	11	San Marcos la laguna 	2	Febrero	2023-02-26T00:00:00	2024-11-08T01:00:00	2	Temperatura media	16.2
179066	7	Sololá	716	San Marcos la Laguna 	11	San Marcos la laguna 	2	Febrero	2023-02-26T00:00:00	2024-11-08T01:00:00	4	Temperatura máxima	16.4
179067	7	Sololá	716	San Marcos la Laguna 	11	San Marcos la laguna 	2	Febrero	2023-02-26T00:00:00	2024-11-08T01:00:00	3	Temperatura mínima	15.4
179068	7	Sololá	716	San Marcos la Laguna 	11	San Marcos la laguna 	2	Febrero	2023-02-26T00:00:00	2024-11-08T01:00:00	5	Humedad	65
179069	7	Sololá	716	San Marcos la Laguna 	11	San Marcos la laguna 	2	Febrero	2023-02-26T00:00:00	2024-11-08T01:00:00	6	Velocidad del viento	8
179070	7	Sololá	716	San Marcos la Laguna 	11	San Marcos la laguna 	2	Febrero	2023-02-26T00:00:00	2024-11-08T01:00:00	7	Dirección del viento	8.05
179071	7	Sololá	716	San Marcos la Laguna 	11	San Marcos la laguna 	2	Febrero	2023-02-26T00:00:00	2024-11-08T01:00:00	1	Precipitación	0
179072	7	Sololá	716	San Marcos la Laguna 	11	San Marcos la laguna 	2	Febrero	2023-02-26T00:00:00	2024-11-08T01:00:00	8	Radiación solar	0
179073	7	Sololá	716	San Marcos la Laguna 	11	San Marcos la laguna 	2	Febrero	2023-02-26T00:00:00	2024-11-08T02:00:00	2	Temperatura media	15.2
179074	7	Sololá	716	San Marcos la Laguna 	11	San Marcos la laguna 	2	Febrero	2023-02-26T00:00:00	2024-11-08T02:00:00	4	Temperatura máxima	16.2
179075	7	Sololá	716	San Marcos la Laguna 	11	San Marcos la laguna 	2	Febrero	2023-02-26T00:00:00	2024-11-08T02:00:00	3	Temperatura mínima	15.1
179076	7	Sololá	716	San Marcos la Laguna 	11	San Marcos la laguna 	2	Febrero	2023-02-26T00:00:00	2024-11-08T02:00:00	5	Humedad	69
179077	7	Sololá	716	San Marcos la Laguna 	11	San Marcos la laguna 	2	Febrero	2023-02-26T00:00:00	2024-11-08T02:00:00	6	Velocidad del viento	8
179078	7	Sololá	716	San Marcos la Laguna 	11	San Marcos la laguna 	2	Febrero	2023-02-26T00:00:00	2024-11-08T02:00:00	7	Dirección del viento	8.05
179079	7	Sololá	716	San Marcos la Laguna 	11	San Marcos la laguna 	2	Febrero	2023-02-26T00:00:00	2024-11-08T02:00:00	1	Precipitación	0
179080	7	Sololá	716	San Marcos la Laguna 	11	San Marcos la laguna 	2	Febrero	2023-02-26T00:00:00	2024-11-08T02:00:00	8	Radiación solar	0
179081	7	Sololá	716	San Marcos la Laguna 	11	San Marcos la laguna 	2	Febrero	2023-02-26T00:00:00	2024-11-08T03:00:00	2	Temperatura media	15.1
179082	7	Sololá	716	San Marcos la Laguna 	11	San Marcos la laguna 	2	Febrero	2023-02-26T00:00:00	2024-11-08T03:00:00	4	Temperatura máxima	15.4
179083	7	Sololá	716	San Marcos la Laguna 	11	San Marcos la laguna 	2	Febrero	2023-02-26T00:00:00	2024-11-08T03:00:00	3	Temperatura mínima	14.7
179084	7	Sololá	716	San Marcos la Laguna 	11	San Marcos la laguna 	2	Febrero	2023-02-26T00:00:00	2024-11-08T03:00:00	5	Humedad	67
179085	7	Sololá	716	San Marcos la Laguna 	11	San Marcos la laguna 	2	Febrero	2023-02-26T00:00:00	2024-11-08T03:00:00	6	Velocidad del viento	8
179086	7	Sololá	716	San Marcos la Laguna 	11	San Marcos la laguna 	2	Febrero	2023-02-26T00:00:00	2024-11-08T03:00:00	7	Dirección del viento	8.05
179087	7	Sololá	716	San Marcos la Laguna 	11	San Marcos la laguna 	2	Febrero	2023-02-26T00:00:00	2024-11-08T03:00:00	1	Precipitación	0
179088	7	Sololá	716	San Marcos la Laguna 	11	San Marcos la laguna 	2	Febrero	2023-02-26T00:00:00	2024-11-08T03:00:00	8	Radiación solar	0
179089	7	Sololá	716	San Marcos la Laguna 	11	San Marcos la laguna 	2	Febrero	2023-02-26T00:00:00	2024-11-08T04:00:00	2	Temperatura media	14.4
179090	7	Sololá	716	San Marcos la Laguna 	11	San Marcos la laguna 	2	Febrero	2023-02-26T00:00:00	2024-11-08T04:00:00	4	Temperatura máxima	15.1
179091	7	Sololá	716	San Marcos la Laguna 	11	San Marcos la laguna 	2	Febrero	2023-02-26T00:00:00	2024-11-08T04:00:00	3	Temperatura mínima	13.8
179092	7	Sololá	716	San Marcos la Laguna 	11	San Marcos la laguna 	2	Febrero	2023-02-26T00:00:00	2024-11-08T04:00:00	5	Humedad	67
179093	7	Sololá	716	San Marcos la Laguna 	11	San Marcos la laguna 	2	Febrero	2023-02-26T00:00:00	2024-11-08T04:00:00	6	Velocidad del viento	9.7
179094	7	Sololá	716	San Marcos la Laguna 	11	San Marcos la laguna 	2	Febrero	2023-02-26T00:00:00	2024-11-08T04:00:00	7	Dirección del viento	9.66
179095	7	Sololá	716	San Marcos la Laguna 	11	San Marcos la laguna 	2	Febrero	2023-02-26T00:00:00	2024-11-08T04:00:00	1	Precipitación	0
179096	7	Sololá	716	San Marcos la Laguna 	11	San Marcos la laguna 	2	Febrero	2023-02-26T00:00:00	2024-11-08T04:00:00	8	Radiación solar	0
179097	7	Sololá	716	San Marcos la Laguna 	11	San Marcos la laguna 	2	Febrero	2023-02-26T00:00:00	2024-11-08T05:00:00	2	Temperatura media	14.2
179098	7	Sololá	716	San Marcos la Laguna 	11	San Marcos la laguna 	2	Febrero	2023-02-26T00:00:00	2024-11-08T05:00:00	4	Temperatura máxima	14.6
179099	7	Sololá	716	San Marcos la Laguna 	11	San Marcos la laguna 	2	Febrero	2023-02-26T00:00:00	2024-11-08T05:00:00	3	Temperatura mínima	14
179100	7	Sololá	716	San Marcos la Laguna 	11	San Marcos la laguna 	2	Febrero	2023-02-26T00:00:00	2024-11-08T05:00:00	5	Humedad	67
179101	7	Sololá	716	San Marcos la Laguna 	11	San Marcos la laguna 	2	Febrero	2023-02-26T00:00:00	2024-11-08T05:00:00	6	Velocidad del viento	9.7
179102	7	Sololá	716	San Marcos la Laguna 	11	San Marcos la laguna 	2	Febrero	2023-02-26T00:00:00	2024-11-08T05:00:00	7	Dirección del viento	9.66
179103	7	Sololá	716	San Marcos la Laguna 	11	San Marcos la laguna 	2	Febrero	2023-02-26T00:00:00	2024-11-08T05:00:00	1	Precipitación	0
179104	7	Sololá	716	San Marcos la Laguna 	11	San Marcos la laguna 	2	Febrero	2023-02-26T00:00:00	2024-11-08T05:00:00	8	Radiación solar	0
179105	7	Sololá	716	San Marcos la Laguna 	11	San Marcos la laguna 	2	Febrero	2023-02-26T00:00:00	2024-11-08T06:00:00	2	Temperatura media	13.3
179106	7	Sololá	716	San Marcos la Laguna 	11	San Marcos la laguna 	2	Febrero	2023-02-26T00:00:00	2024-11-08T06:00:00	4	Temperatura máxima	14.2
179107	7	Sololá	716	San Marcos la Laguna 	11	San Marcos la laguna 	2	Febrero	2023-02-26T00:00:00	2024-11-08T06:00:00	3	Temperatura mínima	13.2
179108	7	Sololá	716	San Marcos la Laguna 	11	San Marcos la laguna 	2	Febrero	2023-02-26T00:00:00	2024-11-08T06:00:00	5	Humedad	70
179109	7	Sololá	716	San Marcos la Laguna 	11	San Marcos la laguna 	2	Febrero	2023-02-26T00:00:00	2024-11-08T06:00:00	6	Velocidad del viento	8
179110	7	Sololá	716	San Marcos la Laguna 	11	San Marcos la laguna 	2	Febrero	2023-02-26T00:00:00	2024-11-08T06:00:00	7	Dirección del viento	8.05
179111	7	Sololá	716	San Marcos la Laguna 	11	San Marcos la laguna 	2	Febrero	2023-02-26T00:00:00	2024-11-08T06:00:00	1	Precipitación	0
179112	7	Sololá	716	San Marcos la Laguna 	11	San Marcos la laguna 	2	Febrero	2023-02-26T00:00:00	2024-11-08T06:00:00	8	Radiación solar	0
179113	7	Sololá	716	San Marcos la Laguna 	11	San Marcos la laguna 	2	Febrero	2023-02-26T00:00:00	2024-11-08T07:00:00	2	Temperatura media	13.3
179114	7	Sololá	716	San Marcos la Laguna 	11	San Marcos la laguna 	2	Febrero	2023-02-26T00:00:00	2024-11-08T07:00:00	4	Temperatura máxima	13.7
179115	7	Sololá	716	San Marcos la Laguna 	11	San Marcos la laguna 	2	Febrero	2023-02-26T00:00:00	2024-11-08T07:00:00	3	Temperatura mínima	13.1
179116	7	Sololá	716	San Marcos la Laguna 	11	San Marcos la laguna 	2	Febrero	2023-02-26T00:00:00	2024-11-08T07:00:00	5	Humedad	71
179117	7	Sololá	716	San Marcos la Laguna 	11	San Marcos la laguna 	2	Febrero	2023-02-26T00:00:00	2024-11-08T07:00:00	6	Velocidad del viento	9.7
179118	7	Sololá	716	San Marcos la Laguna 	11	San Marcos la laguna 	2	Febrero	2023-02-26T00:00:00	2024-11-08T07:00:00	7	Dirección del viento	9.66
179119	7	Sololá	716	San Marcos la Laguna 	11	San Marcos la laguna 	2	Febrero	2023-02-26T00:00:00	2024-11-08T07:00:00	1	Precipitación	0
179120	7	Sololá	716	San Marcos la Laguna 	11	San Marcos la laguna 	2	Febrero	2023-02-26T00:00:00	2024-11-08T07:00:00	8	Radiación solar	8
179121	7	Sololá	716	San Marcos la Laguna 	11	San Marcos la laguna 	2	Febrero	2023-02-26T00:00:00	2024-11-08T08:00:00	2	Temperatura media	16.4
179122	7	Sololá	716	San Marcos la Laguna 	11	San Marcos la laguna 	2	Febrero	2023-02-26T00:00:00	2024-11-08T08:00:00	4	Temperatura máxima	16.4
179123	7	Sololá	716	San Marcos la Laguna 	11	San Marcos la laguna 	2	Febrero	2023-02-26T00:00:00	2024-11-08T08:00:00	3	Temperatura mínima	13.2
179124	7	Sololá	716	San Marcos la Laguna 	11	San Marcos la laguna 	2	Febrero	2023-02-26T00:00:00	2024-11-08T08:00:00	5	Humedad	68
179125	7	Sololá	716	San Marcos la Laguna 	11	San Marcos la laguna 	2	Febrero	2023-02-26T00:00:00	2024-11-08T08:00:00	6	Velocidad del viento	6.4
179126	7	Sololá	716	San Marcos la Laguna 	11	San Marcos la laguna 	2	Febrero	2023-02-26T00:00:00	2024-11-08T08:00:00	7	Dirección del viento	6.44
179127	7	Sololá	716	San Marcos la Laguna 	11	San Marcos la laguna 	2	Febrero	2023-02-26T00:00:00	2024-11-08T08:00:00	1	Precipitación	0
179128	7	Sololá	716	San Marcos la Laguna 	11	San Marcos la laguna 	2	Febrero	2023-02-26T00:00:00	2024-11-08T08:00:00	8	Radiación solar	128
179129	7	Sololá	716	San Marcos la Laguna 	11	San Marcos la laguna 	2	Febrero	2023-02-26T00:00:00	2024-11-08T09:00:00	2	Temperatura media	19.5
179130	7	Sololá	716	San Marcos la Laguna 	11	San Marcos la laguna 	2	Febrero	2023-02-26T00:00:00	2024-11-08T09:00:00	4	Temperatura máxima	19.7
179131	7	Sololá	716	San Marcos la Laguna 	11	San Marcos la laguna 	2	Febrero	2023-02-26T00:00:00	2024-11-08T09:00:00	3	Temperatura mínima	16.4
179132	7	Sololá	716	San Marcos la Laguna 	11	San Marcos la laguna 	2	Febrero	2023-02-26T00:00:00	2024-11-08T09:00:00	5	Humedad	57
179133	7	Sololá	716	San Marcos la Laguna 	11	San Marcos la laguna 	2	Febrero	2023-02-26T00:00:00	2024-11-08T09:00:00	6	Velocidad del viento	1.6
179134	7	Sololá	716	San Marcos la Laguna 	11	San Marcos la laguna 	2	Febrero	2023-02-26T00:00:00	2024-11-08T09:00:00	7	Dirección del viento	1.61
179135	7	Sololá	716	San Marcos la Laguna 	11	San Marcos la laguna 	2	Febrero	2023-02-26T00:00:00	2024-11-08T09:00:00	1	Precipitación	0
179136	7	Sololá	716	San Marcos la Laguna 	11	San Marcos la laguna 	2	Febrero	2023-02-26T00:00:00	2024-11-08T09:00:00	8	Radiación solar	365
179137	7	Sololá	716	San Marcos la Laguna 	11	San Marcos la laguna 	2	Febrero	2023-02-26T00:00:00	2024-11-08T10:00:00	2	Temperatura media	20.9
179138	7	Sololá	716	San Marcos la Laguna 	11	San Marcos la laguna 	2	Febrero	2023-02-26T00:00:00	2024-11-08T10:00:00	4	Temperatura máxima	20.9
179139	7	Sololá	716	San Marcos la Laguna 	11	San Marcos la laguna 	2	Febrero	2023-02-26T00:00:00	2024-11-08T10:00:00	3	Temperatura mínima	19.3
179140	7	Sololá	716	San Marcos la Laguna 	11	San Marcos la laguna 	2	Febrero	2023-02-26T00:00:00	2024-11-08T10:00:00	5	Humedad	50
179141	7	Sololá	716	San Marcos la Laguna 	11	San Marcos la laguna 	2	Febrero	2023-02-26T00:00:00	2024-11-08T10:00:00	6	Velocidad del viento	3.2
179142	7	Sololá	716	San Marcos la Laguna 	11	San Marcos la laguna 	2	Febrero	2023-02-26T00:00:00	2024-11-08T10:00:00	7	Dirección del viento	3.22
179143	7	Sololá	716	San Marcos la Laguna 	11	San Marcos la laguna 	2	Febrero	2023-02-26T00:00:00	2024-11-08T10:00:00	1	Precipitación	0
179144	7	Sololá	716	San Marcos la Laguna 	11	San Marcos la laguna 	2	Febrero	2023-02-26T00:00:00	2024-11-08T10:00:00	8	Radiación solar	567
179145	7	Sololá	716	San Marcos la Laguna 	11	San Marcos la laguna 	2	Febrero	2023-02-26T00:00:00	2024-11-08T11:00:00	2	Temperatura media	23.2
179146	7	Sololá	716	San Marcos la Laguna 	11	San Marcos la laguna 	2	Febrero	2023-02-26T00:00:00	2024-11-08T11:00:00	4	Temperatura máxima	23.2
179147	7	Sololá	716	San Marcos la Laguna 	11	San Marcos la laguna 	2	Febrero	2023-02-26T00:00:00	2024-11-08T11:00:00	3	Temperatura mínima	20.9
179148	7	Sololá	716	San Marcos la Laguna 	11	San Marcos la laguna 	2	Febrero	2023-02-26T00:00:00	2024-11-08T11:00:00	5	Humedad	45
179149	7	Sololá	716	San Marcos la Laguna 	11	San Marcos la laguna 	2	Febrero	2023-02-26T00:00:00	2024-11-08T11:00:00	6	Velocidad del viento	3.2
179150	7	Sololá	716	San Marcos la Laguna 	11	San Marcos la laguna 	2	Febrero	2023-02-26T00:00:00	2024-11-08T11:00:00	7	Dirección del viento	3.22
179151	7	Sololá	716	San Marcos la Laguna 	11	San Marcos la laguna 	2	Febrero	2023-02-26T00:00:00	2024-11-08T11:00:00	1	Precipitación	0
179152	7	Sololá	716	San Marcos la Laguna 	11	San Marcos la laguna 	2	Febrero	2023-02-26T00:00:00	2024-11-08T11:00:00	8	Radiación solar	726
179153	7	Sololá	716	San Marcos la Laguna 	11	San Marcos la laguna 	2	Febrero	2023-02-26T00:00:00	2024-11-08T12:00:00	2	Temperatura media	23.7
179154	7	Sololá	716	San Marcos la Laguna 	11	San Marcos la laguna 	2	Febrero	2023-02-26T00:00:00	2024-11-08T12:00:00	4	Temperatura máxima	23.8
179155	7	Sololá	716	San Marcos la Laguna 	11	San Marcos la laguna 	2	Febrero	2023-02-26T00:00:00	2024-11-08T12:00:00	3	Temperatura mínima	23.1
179156	7	Sololá	716	San Marcos la Laguna 	11	San Marcos la laguna 	2	Febrero	2023-02-26T00:00:00	2024-11-08T12:00:00	5	Humedad	46
179157	7	Sololá	716	San Marcos la Laguna 	11	San Marcos la laguna 	2	Febrero	2023-02-26T00:00:00	2024-11-08T12:00:00	6	Velocidad del viento	4.8
179158	7	Sololá	716	San Marcos la Laguna 	11	San Marcos la laguna 	2	Febrero	2023-02-26T00:00:00	2024-11-08T12:00:00	7	Dirección del viento	4.83
179159	7	Sololá	716	San Marcos la Laguna 	11	San Marcos la laguna 	2	Febrero	2023-02-26T00:00:00	2024-11-08T12:00:00	1	Precipitación	0
179160	7	Sololá	716	San Marcos la Laguna 	11	San Marcos la laguna 	2	Febrero	2023-02-26T00:00:00	2024-11-08T12:00:00	8	Radiación solar	745
179161	7	Sololá	716	San Marcos la Laguna 	11	San Marcos la laguna 	2	Febrero	2023-02-26T00:00:00	2024-11-08T13:00:00	2	Temperatura media	22.6
179162	7	Sololá	716	San Marcos la Laguna 	11	San Marcos la laguna 	2	Febrero	2023-02-26T00:00:00	2024-11-08T13:00:00	4	Temperatura máxima	23.7
179163	7	Sololá	716	San Marcos la Laguna 	11	San Marcos la laguna 	2	Febrero	2023-02-26T00:00:00	2024-11-08T13:00:00	3	Temperatura mínima	22.6
179164	7	Sololá	716	San Marcos la Laguna 	11	San Marcos la laguna 	2	Febrero	2023-02-26T00:00:00	2024-11-08T13:00:00	5	Humedad	63
179165	7	Sololá	716	San Marcos la Laguna 	11	San Marcos la laguna 	2	Febrero	2023-02-26T00:00:00	2024-11-08T13:00:00	6	Velocidad del viento	9.7
179166	7	Sololá	716	San Marcos la Laguna 	11	San Marcos la laguna 	2	Febrero	2023-02-26T00:00:00	2024-11-08T13:00:00	7	Dirección del viento	9.66
179167	7	Sololá	716	San Marcos la Laguna 	11	San Marcos la laguna 	2	Febrero	2023-02-26T00:00:00	2024-11-08T13:00:00	1	Precipitación	0
179168	7	Sololá	716	San Marcos la Laguna 	11	San Marcos la laguna 	2	Febrero	2023-02-26T00:00:00	2024-11-08T13:00:00	8	Radiación solar	878
179169	7	Sololá	716	San Marcos la Laguna 	11	San Marcos la laguna 	2	Febrero	2023-02-26T00:00:00	2024-11-08T14:00:00	2	Temperatura media	22.2
179170	7	Sololá	716	San Marcos la Laguna 	11	San Marcos la laguna 	2	Febrero	2023-02-26T00:00:00	2024-11-08T14:00:00	4	Temperatura máxima	22.8
179171	7	Sololá	716	San Marcos la Laguna 	11	San Marcos la laguna 	2	Febrero	2023-02-26T00:00:00	2024-11-08T14:00:00	3	Temperatura mínima	22.1
179172	7	Sololá	716	San Marcos la Laguna 	11	San Marcos la laguna 	2	Febrero	2023-02-26T00:00:00	2024-11-08T14:00:00	5	Humedad	64
179173	7	Sololá	716	San Marcos la Laguna 	11	San Marcos la laguna 	2	Febrero	2023-02-26T00:00:00	2024-11-08T14:00:00	6	Velocidad del viento	12.9
179174	7	Sololá	716	San Marcos la Laguna 	11	San Marcos la laguna 	2	Febrero	2023-02-26T00:00:00	2024-11-08T14:00:00	7	Dirección del viento	12.87
179175	7	Sololá	716	San Marcos la Laguna 	11	San Marcos la laguna 	2	Febrero	2023-02-26T00:00:00	2024-11-08T14:00:00	1	Precipitación	0
179176	7	Sololá	716	San Marcos la Laguna 	11	San Marcos la laguna 	2	Febrero	2023-02-26T00:00:00	2024-11-08T14:00:00	8	Radiación solar	736
179177	7	Sololá	716	San Marcos la Laguna 	11	San Marcos la laguna 	2	Febrero	2023-02-26T00:00:00	2024-11-08T15:00:00	2	Temperatura media	22.8
179178	7	Sololá	716	San Marcos la Laguna 	11	San Marcos la laguna 	2	Febrero	2023-02-26T00:00:00	2024-11-08T15:00:00	4	Temperatura máxima	22.8
179179	7	Sololá	716	San Marcos la Laguna 	11	San Marcos la laguna 	2	Febrero	2023-02-26T00:00:00	2024-11-08T15:00:00	3	Temperatura mínima	22
179180	7	Sololá	716	San Marcos la Laguna 	11	San Marcos la laguna 	2	Febrero	2023-02-26T00:00:00	2024-11-08T15:00:00	5	Humedad	65
179181	7	Sololá	716	San Marcos la Laguna 	11	San Marcos la laguna 	2	Febrero	2023-02-26T00:00:00	2024-11-08T15:00:00	6	Velocidad del viento	11.3
179182	7	Sololá	716	San Marcos la Laguna 	11	San Marcos la laguna 	2	Febrero	2023-02-26T00:00:00	2024-11-08T15:00:00	7	Dirección del viento	11.27
179183	7	Sololá	716	San Marcos la Laguna 	11	San Marcos la laguna 	2	Febrero	2023-02-26T00:00:00	2024-11-08T15:00:00	1	Precipitación	0
179184	7	Sololá	716	San Marcos la Laguna 	11	San Marcos la laguna 	2	Febrero	2023-02-26T00:00:00	2024-11-08T15:00:00	8	Radiación solar	543
179185	7	Sololá	716	San Marcos la Laguna 	11	San Marcos la laguna 	2	Febrero	2023-02-26T00:00:00	2024-11-08T16:00:00	2	Temperatura media	21.5
179186	7	Sololá	716	San Marcos la Laguna 	11	San Marcos la laguna 	2	Febrero	2023-02-26T00:00:00	2024-11-08T16:00:00	4	Temperatura máxima	23.8
179187	7	Sololá	716	San Marcos la Laguna 	11	San Marcos la laguna 	2	Febrero	2023-02-26T00:00:00	2024-11-08T16:00:00	3	Temperatura mínima	21.4
179188	7	Sololá	716	San Marcos la Laguna 	11	San Marcos la laguna 	2	Febrero	2023-02-26T00:00:00	2024-11-08T16:00:00	5	Humedad	69
179189	7	Sololá	716	San Marcos la Laguna 	11	San Marcos la laguna 	2	Febrero	2023-02-26T00:00:00	2024-11-08T16:00:00	6	Velocidad del viento	8
179190	7	Sololá	716	San Marcos la Laguna 	11	San Marcos la laguna 	2	Febrero	2023-02-26T00:00:00	2024-11-08T16:00:00	7	Dirección del viento	8.05
179191	7	Sololá	716	San Marcos la Laguna 	11	San Marcos la laguna 	2	Febrero	2023-02-26T00:00:00	2024-11-08T16:00:00	1	Precipitación	0
179192	7	Sololá	716	San Marcos la Laguna 	11	San Marcos la laguna 	2	Febrero	2023-02-26T00:00:00	2024-11-08T16:00:00	8	Radiación solar	380
179193	7	Sololá	716	San Marcos la Laguna 	11	San Marcos la laguna 	2	Febrero	2023-02-26T00:00:00	2024-11-08T17:00:00	2	Temperatura media	20.6
179194	7	Sololá	716	San Marcos la Laguna 	11	San Marcos la laguna 	2	Febrero	2023-02-26T00:00:00	2024-11-08T17:00:00	4	Temperatura máxima	21.5
179195	7	Sololá	716	San Marcos la Laguna 	11	San Marcos la laguna 	2	Febrero	2023-02-26T00:00:00	2024-11-08T17:00:00	3	Temperatura mínima	20.6
179196	7	Sololá	716	San Marcos la Laguna 	11	San Marcos la laguna 	2	Febrero	2023-02-26T00:00:00	2024-11-08T17:00:00	5	Humedad	77
179197	7	Sololá	716	San Marcos la Laguna 	11	San Marcos la laguna 	2	Febrero	2023-02-26T00:00:00	2024-11-08T17:00:00	6	Velocidad del viento	8
179198	7	Sololá	716	San Marcos la Laguna 	11	San Marcos la laguna 	2	Febrero	2023-02-26T00:00:00	2024-11-08T17:00:00	7	Dirección del viento	8.05
179199	7	Sololá	716	San Marcos la Laguna 	11	San Marcos la laguna 	2	Febrero	2023-02-26T00:00:00	2024-11-08T17:00:00	1	Precipitación	0
179200	7	Sololá	716	San Marcos la Laguna 	11	San Marcos la laguna 	2	Febrero	2023-02-26T00:00:00	2024-11-08T17:00:00	8	Radiación solar	319
179201	7	Sololá	716	San Marcos la Laguna 	11	San Marcos la laguna 	2	Febrero	2023-02-26T00:00:00	2024-11-08T18:00:00	2	Temperatura media	19.7
179202	7	Sololá	716	San Marcos la Laguna 	11	San Marcos la laguna 	2	Febrero	2023-02-26T00:00:00	2024-11-08T18:00:00	4	Temperatura máxima	20.6
179203	7	Sololá	716	San Marcos la Laguna 	11	San Marcos la laguna 	2	Febrero	2023-02-26T00:00:00	2024-11-08T18:00:00	3	Temperatura mínima	19.7
179204	7	Sololá	716	San Marcos la Laguna 	11	San Marcos la laguna 	2	Febrero	2023-02-26T00:00:00	2024-11-08T18:00:00	5	Humedad	80
179205	7	Sololá	716	San Marcos la Laguna 	11	San Marcos la laguna 	2	Febrero	2023-02-26T00:00:00	2024-11-08T18:00:00	6	Velocidad del viento	6.4
179206	7	Sololá	716	San Marcos la Laguna 	11	San Marcos la laguna 	2	Febrero	2023-02-26T00:00:00	2024-11-08T18:00:00	7	Dirección del viento	6.44
179207	7	Sololá	716	San Marcos la Laguna 	11	San Marcos la laguna 	2	Febrero	2023-02-26T00:00:00	2024-11-08T18:00:00	1	Precipitación	0
179208	7	Sololá	716	San Marcos la Laguna 	11	San Marcos la laguna 	2	Febrero	2023-02-26T00:00:00	2024-11-08T18:00:00	8	Radiación solar	80
179209	7	Sololá	716	San Marcos la Laguna 	11	San Marcos la laguna 	2	Febrero	2023-02-26T00:00:00	2024-11-08T19:00:00	2	Temperatura media	19.2
179210	7	Sololá	716	San Marcos la Laguna 	11	San Marcos la laguna 	2	Febrero	2023-02-26T00:00:00	2024-11-08T19:00:00	4	Temperatura máxima	19.7
179211	7	Sololá	716	San Marcos la Laguna 	11	San Marcos la laguna 	2	Febrero	2023-02-26T00:00:00	2024-11-08T19:00:00	3	Temperatura mínima	19.2
179212	7	Sololá	716	San Marcos la Laguna 	11	San Marcos la laguna 	2	Febrero	2023-02-26T00:00:00	2024-11-08T19:00:00	5	Humedad	83
179213	7	Sololá	716	San Marcos la Laguna 	11	San Marcos la laguna 	2	Febrero	2023-02-26T00:00:00	2024-11-08T19:00:00	6	Velocidad del viento	4.8
179214	7	Sololá	716	San Marcos la Laguna 	11	San Marcos la laguna 	2	Febrero	2023-02-26T00:00:00	2024-11-08T19:00:00	7	Dirección del viento	4.83
179215	7	Sololá	716	San Marcos la Laguna 	11	San Marcos la laguna 	2	Febrero	2023-02-26T00:00:00	2024-11-08T19:00:00	1	Precipitación	0
179216	7	Sololá	716	San Marcos la Laguna 	11	San Marcos la laguna 	2	Febrero	2023-02-26T00:00:00	2024-11-08T19:00:00	8	Radiación solar	0
179217	7	Sololá	716	San Marcos la Laguna 	11	San Marcos la laguna 	2	Febrero	2023-02-26T00:00:00	2024-11-08T20:00:00	2	Temperatura media	18.8
179218	7	Sololá	716	San Marcos la Laguna 	11	San Marcos la laguna 	2	Febrero	2023-02-26T00:00:00	2024-11-08T20:00:00	4	Temperatura máxima	19.2
179219	7	Sololá	716	San Marcos la Laguna 	11	San Marcos la laguna 	2	Febrero	2023-02-26T00:00:00	2024-11-08T20:00:00	3	Temperatura mínima	18.8
179220	7	Sololá	716	San Marcos la Laguna 	11	San Marcos la laguna 	2	Febrero	2023-02-26T00:00:00	2024-11-08T20:00:00	5	Humedad	85
179221	7	Sololá	716	San Marcos la Laguna 	11	San Marcos la laguna 	2	Febrero	2023-02-26T00:00:00	2024-11-08T20:00:00	6	Velocidad del viento	4.8
179222	7	Sololá	716	San Marcos la Laguna 	11	San Marcos la laguna 	2	Febrero	2023-02-26T00:00:00	2024-11-08T20:00:00	7	Dirección del viento	4.83
179223	7	Sololá	716	San Marcos la Laguna 	11	San Marcos la laguna 	2	Febrero	2023-02-26T00:00:00	2024-11-08T20:00:00	1	Precipitación	0
179224	7	Sololá	716	San Marcos la Laguna 	11	San Marcos la laguna 	2	Febrero	2023-02-26T00:00:00	2024-11-08T20:00:00	8	Radiación solar	0
179225	7	Sololá	716	San Marcos la Laguna 	11	San Marcos la laguna 	2	Febrero	2023-02-26T00:00:00	2024-11-08T21:00:00	2	Temperatura media	18.8
179226	7	Sololá	716	San Marcos la Laguna 	11	San Marcos la laguna 	2	Febrero	2023-02-26T00:00:00	2024-11-08T21:00:00	4	Temperatura máxima	18.9
179227	7	Sololá	716	San Marcos la Laguna 	11	San Marcos la laguna 	2	Febrero	2023-02-26T00:00:00	2024-11-08T21:00:00	3	Temperatura mínima	18.7
179228	7	Sololá	716	San Marcos la Laguna 	11	San Marcos la laguna 	2	Febrero	2023-02-26T00:00:00	2024-11-08T21:00:00	5	Humedad	83
179229	7	Sololá	716	San Marcos la Laguna 	11	San Marcos la laguna 	2	Febrero	2023-02-26T00:00:00	2024-11-08T21:00:00	6	Velocidad del viento	3.2
179230	7	Sololá	716	San Marcos la Laguna 	11	San Marcos la laguna 	2	Febrero	2023-02-26T00:00:00	2024-11-08T21:00:00	7	Dirección del viento	3.22
179231	7	Sololá	716	San Marcos la Laguna 	11	San Marcos la laguna 	2	Febrero	2023-02-26T00:00:00	2024-11-08T21:00:00	1	Precipitación	0
179232	7	Sololá	716	San Marcos la Laguna 	11	San Marcos la laguna 	2	Febrero	2023-02-26T00:00:00	2024-11-08T21:00:00	8	Radiación solar	0
179233	7	Sololá	716	San Marcos la Laguna 	11	San Marcos la laguna 	2	Febrero	2023-02-26T00:00:00	2024-11-08T22:00:00	2	Temperatura media	17.7
179234	7	Sololá	716	San Marcos la Laguna 	11	San Marcos la laguna 	2	Febrero	2023-02-26T00:00:00	2024-11-08T22:00:00	4	Temperatura máxima	18.8
179235	7	Sololá	716	San Marcos la Laguna 	11	San Marcos la laguna 	2	Febrero	2023-02-26T00:00:00	2024-11-08T22:00:00	3	Temperatura mínima	17.6
179236	7	Sololá	716	San Marcos la Laguna 	11	San Marcos la laguna 	2	Febrero	2023-02-26T00:00:00	2024-11-08T22:00:00	5	Humedad	70
179237	7	Sololá	716	San Marcos la Laguna 	11	San Marcos la laguna 	2	Febrero	2023-02-26T00:00:00	2024-11-08T22:00:00	6	Velocidad del viento	4.8
179238	7	Sololá	716	San Marcos la Laguna 	11	San Marcos la laguna 	2	Febrero	2023-02-26T00:00:00	2024-11-08T22:00:00	7	Dirección del viento	4.83
179239	7	Sololá	716	San Marcos la Laguna 	11	San Marcos la laguna 	2	Febrero	2023-02-26T00:00:00	2024-11-08T22:00:00	1	Precipitación	0
179240	7	Sololá	716	San Marcos la Laguna 	11	San Marcos la laguna 	2	Febrero	2023-02-26T00:00:00	2024-11-08T22:00:00	8	Radiación solar	0
179241	7	Sololá	716	San Marcos la Laguna 	11	San Marcos la laguna 	2	Febrero	2023-02-26T00:00:00	2024-11-08T23:00:00	2	Temperatura media	17
179242	7	Sololá	716	San Marcos la Laguna 	11	San Marcos la laguna 	2	Febrero	2023-02-26T00:00:00	2024-11-08T23:00:00	4	Temperatura máxima	17.8
179243	7	Sololá	716	San Marcos la Laguna 	11	San Marcos la laguna 	2	Febrero	2023-02-26T00:00:00	2024-11-08T23:00:00	3	Temperatura mínima	17
179244	7	Sololá	716	San Marcos la Laguna 	11	San Marcos la laguna 	2	Febrero	2023-02-26T00:00:00	2024-11-08T23:00:00	5	Humedad	72
179245	7	Sololá	716	San Marcos la Laguna 	11	San Marcos la laguna 	2	Febrero	2023-02-26T00:00:00	2024-11-08T23:00:00	6	Velocidad del viento	4.8
179246	7	Sololá	716	San Marcos la Laguna 	11	San Marcos la laguna 	2	Febrero	2023-02-26T00:00:00	2024-11-08T23:00:00	7	Dirección del viento	4.83
179247	7	Sololá	716	San Marcos la Laguna 	11	San Marcos la laguna 	2	Febrero	2023-02-26T00:00:00	2024-11-08T23:00:00	1	Precipitación	0
179248	7	Sololá	716	San Marcos la Laguna 	11	San Marcos la laguna 	2	Febrero	2023-02-26T00:00:00	2024-11-08T23:00:00	8	Radiación solar	0
179249	7	Sololá	716	San Marcos la Laguna 	11	San Marcos la laguna 	2	Febrero	2023-02-27T00:00:00	2024-11-08T00:00:00	2	Temperatura media	16
179250	7	Sololá	716	San Marcos la Laguna 	11	San Marcos la laguna 	2	Febrero	2023-02-27T00:00:00	2024-11-08T00:00:00	4	Temperatura máxima	17
179251	7	Sololá	716	San Marcos la Laguna 	11	San Marcos la laguna 	2	Febrero	2023-02-27T00:00:00	2024-11-08T00:00:00	3	Temperatura mínima	16
179252	7	Sololá	716	San Marcos la Laguna 	11	San Marcos la laguna 	2	Febrero	2023-02-27T00:00:00	2024-11-08T00:00:00	5	Humedad	75
179253	7	Sololá	716	San Marcos la Laguna 	11	San Marcos la laguna 	2	Febrero	2023-02-27T00:00:00	2024-11-08T00:00:00	6	Velocidad del viento	6.4
179254	7	Sololá	716	San Marcos la Laguna 	11	San Marcos la laguna 	2	Febrero	2023-02-27T00:00:00	2024-11-08T00:00:00	7	Dirección del viento	6.44
179255	7	Sololá	716	San Marcos la Laguna 	11	San Marcos la laguna 	2	Febrero	2023-02-27T00:00:00	2024-11-08T00:00:00	1	Precipitación	0
179256	7	Sololá	716	San Marcos la Laguna 	11	San Marcos la laguna 	2	Febrero	2023-02-27T00:00:00	2024-11-08T00:00:00	8	Radiación solar	0
179257	7	Sololá	716	San Marcos la Laguna 	11	San Marcos la laguna 	2	Febrero	2023-02-27T00:00:00	2024-11-08T01:00:00	2	Temperatura media	15.7
179258	7	Sololá	716	San Marcos la Laguna 	11	San Marcos la laguna 	2	Febrero	2023-02-27T00:00:00	2024-11-08T01:00:00	4	Temperatura máxima	16.1
179259	7	Sololá	716	San Marcos la Laguna 	11	San Marcos la laguna 	2	Febrero	2023-02-27T00:00:00	2024-11-08T01:00:00	3	Temperatura mínima	15.7
179260	7	Sololá	716	San Marcos la Laguna 	11	San Marcos la laguna 	2	Febrero	2023-02-27T00:00:00	2024-11-08T01:00:00	5	Humedad	74
179261	7	Sololá	716	San Marcos la Laguna 	11	San Marcos la laguna 	2	Febrero	2023-02-27T00:00:00	2024-11-08T01:00:00	6	Velocidad del viento	6.4
179262	7	Sololá	716	San Marcos la Laguna 	11	San Marcos la laguna 	2	Febrero	2023-02-27T00:00:00	2024-11-08T01:00:00	7	Dirección del viento	6.44
179263	7	Sololá	716	San Marcos la Laguna 	11	San Marcos la laguna 	2	Febrero	2023-02-27T00:00:00	2024-11-08T01:00:00	1	Precipitación	0
179264	7	Sololá	716	San Marcos la Laguna 	11	San Marcos la laguna 	2	Febrero	2023-02-27T00:00:00	2024-11-08T01:00:00	8	Radiación solar	0
179265	7	Sololá	716	San Marcos la Laguna 	11	San Marcos la laguna 	2	Febrero	2023-02-27T00:00:00	2024-11-08T02:00:00	2	Temperatura media	14.2
179266	7	Sololá	716	San Marcos la Laguna 	11	San Marcos la laguna 	2	Febrero	2023-02-27T00:00:00	2024-11-08T02:00:00	4	Temperatura máxima	15.7
179267	7	Sololá	716	San Marcos la Laguna 	11	San Marcos la laguna 	2	Febrero	2023-02-27T00:00:00	2024-11-08T02:00:00	3	Temperatura mínima	14.2
179268	7	Sololá	716	San Marcos la Laguna 	11	San Marcos la laguna 	2	Febrero	2023-02-27T00:00:00	2024-11-08T02:00:00	5	Humedad	76
179269	7	Sololá	716	San Marcos la Laguna 	11	San Marcos la laguna 	2	Febrero	2023-02-27T00:00:00	2024-11-08T02:00:00	6	Velocidad del viento	8
179270	7	Sololá	716	San Marcos la Laguna 	11	San Marcos la laguna 	2	Febrero	2023-02-27T00:00:00	2024-11-08T02:00:00	7	Dirección del viento	8.05
179271	7	Sololá	716	San Marcos la Laguna 	11	San Marcos la laguna 	2	Febrero	2023-02-27T00:00:00	2024-11-08T02:00:00	1	Precipitación	0
179272	7	Sololá	716	San Marcos la Laguna 	11	San Marcos la laguna 	2	Febrero	2023-02-27T00:00:00	2024-11-08T02:00:00	8	Radiación solar	0
179273	7	Sololá	716	San Marcos la Laguna 	11	San Marcos la laguna 	2	Febrero	2023-02-27T00:00:00	2024-11-08T03:00:00	2	Temperatura media	13.4
179274	7	Sololá	716	San Marcos la Laguna 	11	San Marcos la laguna 	2	Febrero	2023-02-27T00:00:00	2024-11-08T03:00:00	4	Temperatura máxima	14.3
179275	7	Sololá	716	San Marcos la Laguna 	11	San Marcos la laguna 	2	Febrero	2023-02-27T00:00:00	2024-11-08T03:00:00	3	Temperatura mínima	13.4
179276	7	Sololá	716	San Marcos la Laguna 	11	San Marcos la laguna 	2	Febrero	2023-02-27T00:00:00	2024-11-08T03:00:00	5	Humedad	80
179277	7	Sololá	716	San Marcos la Laguna 	11	San Marcos la laguna 	2	Febrero	2023-02-27T00:00:00	2024-11-08T03:00:00	6	Velocidad del viento	6.4
179278	7	Sololá	716	San Marcos la Laguna 	11	San Marcos la laguna 	2	Febrero	2023-02-27T00:00:00	2024-11-08T03:00:00	7	Dirección del viento	6.44
179279	7	Sololá	716	San Marcos la Laguna 	11	San Marcos la laguna 	2	Febrero	2023-02-27T00:00:00	2024-11-08T03:00:00	1	Precipitación	0
179280	7	Sololá	716	San Marcos la Laguna 	11	San Marcos la laguna 	2	Febrero	2023-02-27T00:00:00	2024-11-08T03:00:00	8	Radiación solar	0
179281	7	Sololá	716	San Marcos la Laguna 	11	San Marcos la laguna 	2	Febrero	2023-02-27T00:00:00	2024-11-08T04:00:00	2	Temperatura media	13.6
179282	7	Sololá	716	San Marcos la Laguna 	11	San Marcos la laguna 	2	Febrero	2023-02-27T00:00:00	2024-11-08T04:00:00	4	Temperatura máxima	13.8
179283	7	Sololá	716	San Marcos la Laguna 	11	San Marcos la laguna 	2	Febrero	2023-02-27T00:00:00	2024-11-08T04:00:00	3	Temperatura mínima	13.2
179284	7	Sololá	716	San Marcos la Laguna 	11	San Marcos la laguna 	2	Febrero	2023-02-27T00:00:00	2024-11-08T04:00:00	5	Humedad	78
179285	7	Sololá	716	San Marcos la Laguna 	11	San Marcos la laguna 	2	Febrero	2023-02-27T00:00:00	2024-11-08T04:00:00	6	Velocidad del viento	8
179286	7	Sololá	716	San Marcos la Laguna 	11	San Marcos la laguna 	2	Febrero	2023-02-27T00:00:00	2024-11-08T04:00:00	7	Dirección del viento	8.05
179287	7	Sololá	716	San Marcos la Laguna 	11	San Marcos la laguna 	2	Febrero	2023-02-27T00:00:00	2024-11-08T04:00:00	1	Precipitación	0
179288	7	Sololá	716	San Marcos la Laguna 	11	San Marcos la laguna 	2	Febrero	2023-02-27T00:00:00	2024-11-08T04:00:00	8	Radiación solar	0
179289	7	Sololá	716	San Marcos la Laguna 	11	San Marcos la laguna 	2	Febrero	2023-02-27T00:00:00	2024-11-08T05:00:00	2	Temperatura media	12.7
179290	7	Sololá	716	San Marcos la Laguna 	11	San Marcos la laguna 	2	Febrero	2023-02-27T00:00:00	2024-11-08T05:00:00	4	Temperatura máxima	13.7
179291	7	Sololá	716	San Marcos la Laguna 	11	San Marcos la laguna 	2	Febrero	2023-02-27T00:00:00	2024-11-08T05:00:00	3	Temperatura mínima	12.6
179292	7	Sololá	716	San Marcos la Laguna 	11	San Marcos la laguna 	2	Febrero	2023-02-27T00:00:00	2024-11-08T05:00:00	5	Humedad	82
179293	7	Sololá	716	San Marcos la Laguna 	11	San Marcos la laguna 	2	Febrero	2023-02-27T00:00:00	2024-11-08T05:00:00	6	Velocidad del viento	6.4
179294	7	Sololá	716	San Marcos la Laguna 	11	San Marcos la laguna 	2	Febrero	2023-02-27T00:00:00	2024-11-08T05:00:00	7	Dirección del viento	6.44
179295	7	Sololá	716	San Marcos la Laguna 	11	San Marcos la laguna 	2	Febrero	2023-02-27T00:00:00	2024-11-08T05:00:00	1	Precipitación	0
179296	7	Sololá	716	San Marcos la Laguna 	11	San Marcos la laguna 	2	Febrero	2023-02-27T00:00:00	2024-11-08T05:00:00	8	Radiación solar	0
179297	7	Sololá	716	San Marcos la Laguna 	11	San Marcos la laguna 	2	Febrero	2023-02-27T00:00:00	2024-11-08T06:00:00	2	Temperatura media	12.5
179298	7	Sololá	716	San Marcos la Laguna 	11	San Marcos la laguna 	2	Febrero	2023-02-27T00:00:00	2024-11-08T06:00:00	4	Temperatura máxima	12.8
179299	7	Sololá	716	San Marcos la Laguna 	11	San Marcos la laguna 	2	Febrero	2023-02-27T00:00:00	2024-11-08T06:00:00	3	Temperatura mínima	12.3
179300	7	Sololá	716	San Marcos la Laguna 	11	San Marcos la laguna 	2	Febrero	2023-02-27T00:00:00	2024-11-08T06:00:00	5	Humedad	83
179301	7	Sololá	716	San Marcos la Laguna 	11	San Marcos la laguna 	2	Febrero	2023-02-27T00:00:00	2024-11-08T06:00:00	6	Velocidad del viento	6.4
179302	7	Sololá	716	San Marcos la Laguna 	11	San Marcos la laguna 	2	Febrero	2023-02-27T00:00:00	2024-11-08T06:00:00	7	Dirección del viento	6.44
179303	7	Sololá	716	San Marcos la Laguna 	11	San Marcos la laguna 	2	Febrero	2023-02-27T00:00:00	2024-11-08T06:00:00	1	Precipitación	0
179304	7	Sololá	716	San Marcos la Laguna 	11	San Marcos la laguna 	2	Febrero	2023-02-27T00:00:00	2024-11-08T06:00:00	8	Radiación solar	0
179305	7	Sololá	716	San Marcos la Laguna 	11	San Marcos la laguna 	2	Febrero	2023-02-27T00:00:00	2024-11-08T07:00:00	2	Temperatura media	12.8
179306	7	Sololá	716	San Marcos la Laguna 	11	San Marcos la laguna 	2	Febrero	2023-02-27T00:00:00	2024-11-08T07:00:00	4	Temperatura máxima	12.8
179307	7	Sololá	716	San Marcos la Laguna 	11	San Marcos la laguna 	2	Febrero	2023-02-27T00:00:00	2024-11-08T07:00:00	3	Temperatura mínima	12.4
179308	7	Sololá	716	San Marcos la Laguna 	11	San Marcos la laguna 	2	Febrero	2023-02-27T00:00:00	2024-11-08T07:00:00	5	Humedad	83
179309	7	Sololá	716	San Marcos la Laguna 	11	San Marcos la laguna 	2	Febrero	2023-02-27T00:00:00	2024-11-08T07:00:00	6	Velocidad del viento	4.8
179310	7	Sololá	716	San Marcos la Laguna 	11	San Marcos la laguna 	2	Febrero	2023-02-27T00:00:00	2024-11-08T07:00:00	7	Dirección del viento	4.83
179311	7	Sololá	716	San Marcos la Laguna 	11	San Marcos la laguna 	2	Febrero	2023-02-27T00:00:00	2024-11-08T07:00:00	1	Precipitación	0
179312	7	Sololá	716	San Marcos la Laguna 	11	San Marcos la laguna 	2	Febrero	2023-02-27T00:00:00	2024-11-08T07:00:00	8	Radiación solar	7
179313	7	Sololá	716	San Marcos la Laguna 	11	San Marcos la laguna 	2	Febrero	2023-02-27T00:00:00	2024-11-08T08:00:00	2	Temperatura media	17.1
179314	7	Sololá	716	San Marcos la Laguna 	11	San Marcos la laguna 	2	Febrero	2023-02-27T00:00:00	2024-11-08T08:00:00	4	Temperatura máxima	17.1
179315	7	Sololá	716	San Marcos la Laguna 	11	San Marcos la laguna 	2	Febrero	2023-02-27T00:00:00	2024-11-08T08:00:00	3	Temperatura mínima	12.8
179316	7	Sololá	716	San Marcos la Laguna 	11	San Marcos la laguna 	2	Febrero	2023-02-27T00:00:00	2024-11-08T08:00:00	5	Humedad	75
179317	7	Sololá	716	San Marcos la Laguna 	11	San Marcos la laguna 	2	Febrero	2023-02-27T00:00:00	2024-11-08T08:00:00	6	Velocidad del viento	3.2
179318	7	Sololá	716	San Marcos la Laguna 	11	San Marcos la laguna 	2	Febrero	2023-02-27T00:00:00	2024-11-08T08:00:00	7	Dirección del viento	3.22
179319	7	Sololá	716	San Marcos la Laguna 	11	San Marcos la laguna 	2	Febrero	2023-02-27T00:00:00	2024-11-08T08:00:00	1	Precipitación	0
179320	7	Sololá	716	San Marcos la Laguna 	11	San Marcos la laguna 	2	Febrero	2023-02-27T00:00:00	2024-11-08T08:00:00	8	Radiación solar	132
179321	7	Sololá	716	San Marcos la Laguna 	11	San Marcos la laguna 	2	Febrero	2023-02-27T00:00:00	2024-11-08T09:00:00	2	Temperatura media	18.4
179322	7	Sololá	716	San Marcos la Laguna 	11	San Marcos la laguna 	2	Febrero	2023-02-27T00:00:00	2024-11-08T09:00:00	4	Temperatura máxima	18.5
179323	7	Sololá	716	San Marcos la Laguna 	11	San Marcos la laguna 	2	Febrero	2023-02-27T00:00:00	2024-11-08T09:00:00	3	Temperatura mínima	17.1
179324	7	Sololá	716	San Marcos la Laguna 	11	San Marcos la laguna 	2	Febrero	2023-02-27T00:00:00	2024-11-08T09:00:00	5	Humedad	72
179325	7	Sololá	716	San Marcos la Laguna 	11	San Marcos la laguna 	2	Febrero	2023-02-27T00:00:00	2024-11-08T09:00:00	6	Velocidad del viento	3.2
179326	7	Sololá	716	San Marcos la Laguna 	11	San Marcos la laguna 	2	Febrero	2023-02-27T00:00:00	2024-11-08T09:00:00	7	Dirección del viento	3.22
179327	7	Sololá	716	San Marcos la Laguna 	11	San Marcos la laguna 	2	Febrero	2023-02-27T00:00:00	2024-11-08T09:00:00	1	Precipitación	0
179328	7	Sololá	716	San Marcos la Laguna 	11	San Marcos la laguna 	2	Febrero	2023-02-27T00:00:00	2024-11-08T09:00:00	8	Radiación solar	385
179329	7	Sololá	716	San Marcos la Laguna 	11	San Marcos la laguna 	2	Febrero	2023-02-27T00:00:00	2024-11-08T10:00:00	2	Temperatura media	18.9
179330	7	Sololá	716	San Marcos la Laguna 	11	San Marcos la laguna 	2	Febrero	2023-02-27T00:00:00	2024-11-08T10:00:00	4	Temperatura máxima	18.9
179331	7	Sololá	716	San Marcos la Laguna 	11	San Marcos la laguna 	2	Febrero	2023-02-27T00:00:00	2024-11-08T10:00:00	3	Temperatura mínima	18.1
179332	7	Sololá	716	San Marcos la Laguna 	11	San Marcos la laguna 	2	Febrero	2023-02-27T00:00:00	2024-11-08T10:00:00	5	Humedad	71
179333	7	Sololá	716	San Marcos la Laguna 	11	San Marcos la laguna 	2	Febrero	2023-02-27T00:00:00	2024-11-08T10:00:00	6	Velocidad del viento	8
179334	7	Sololá	716	San Marcos la Laguna 	11	San Marcos la laguna 	2	Febrero	2023-02-27T00:00:00	2024-11-08T10:00:00	7	Dirección del viento	8.05
179335	7	Sololá	716	San Marcos la Laguna 	11	San Marcos la laguna 	2	Febrero	2023-02-27T00:00:00	2024-11-08T10:00:00	1	Precipitación	0
179336	7	Sololá	716	San Marcos la Laguna 	11	San Marcos la laguna 	2	Febrero	2023-02-27T00:00:00	2024-11-08T10:00:00	8	Radiación solar	593
179337	7	Sololá	716	San Marcos la Laguna 	11	San Marcos la laguna 	2	Febrero	2023-02-27T00:00:00	2024-11-08T11:00:00	2	Temperatura media	20.4
179338	7	Sololá	716	San Marcos la Laguna 	11	San Marcos la laguna 	2	Febrero	2023-02-27T00:00:00	2024-11-08T11:00:00	4	Temperatura máxima	20.4
179339	7	Sololá	716	San Marcos la Laguna 	11	San Marcos la laguna 	2	Febrero	2023-02-27T00:00:00	2024-11-08T11:00:00	3	Temperatura mínima	18.9
179340	7	Sololá	716	San Marcos la Laguna 	11	San Marcos la laguna 	2	Febrero	2023-02-27T00:00:00	2024-11-08T11:00:00	5	Humedad	61
179341	7	Sololá	716	San Marcos la Laguna 	11	San Marcos la laguna 	2	Febrero	2023-02-27T00:00:00	2024-11-08T11:00:00	6	Velocidad del viento	8
179342	7	Sololá	716	San Marcos la Laguna 	11	San Marcos la laguna 	2	Febrero	2023-02-27T00:00:00	2024-11-08T11:00:00	7	Dirección del viento	8.05
179343	7	Sololá	716	San Marcos la Laguna 	11	San Marcos la laguna 	2	Febrero	2023-02-27T00:00:00	2024-11-08T11:00:00	1	Precipitación	0
179344	7	Sololá	716	San Marcos la Laguna 	11	San Marcos la laguna 	2	Febrero	2023-02-27T00:00:00	2024-11-08T11:00:00	8	Radiación solar	740
179345	7	Sololá	716	San Marcos la Laguna 	11	San Marcos la laguna 	2	Febrero	2023-02-27T00:00:00	2024-11-08T12:00:00	2	Temperatura media	20.7
179346	7	Sololá	716	San Marcos la Laguna 	11	San Marcos la laguna 	2	Febrero	2023-02-27T00:00:00	2024-11-08T12:00:00	4	Temperatura máxima	21.2
179347	7	Sololá	716	San Marcos la Laguna 	11	San Marcos la laguna 	2	Febrero	2023-02-27T00:00:00	2024-11-08T12:00:00	3	Temperatura mínima	20.2
179348	7	Sololá	716	San Marcos la Laguna 	11	San Marcos la laguna 	2	Febrero	2023-02-27T00:00:00	2024-11-08T12:00:00	5	Humedad	66
179349	7	Sololá	716	San Marcos la Laguna 	11	San Marcos la laguna 	2	Febrero	2023-02-27T00:00:00	2024-11-08T12:00:00	6	Velocidad del viento	8
179350	7	Sololá	716	San Marcos la Laguna 	11	San Marcos la laguna 	2	Febrero	2023-02-27T00:00:00	2024-11-08T12:00:00	7	Dirección del viento	8.05
179351	7	Sololá	716	San Marcos la Laguna 	11	San Marcos la laguna 	2	Febrero	2023-02-27T00:00:00	2024-11-08T12:00:00	1	Precipitación	0
179352	7	Sololá	716	San Marcos la Laguna 	11	San Marcos la laguna 	2	Febrero	2023-02-27T00:00:00	2024-11-08T12:00:00	8	Radiación solar	757
179353	7	Sololá	716	San Marcos la Laguna 	11	San Marcos la laguna 	2	Febrero	2023-02-27T00:00:00	2024-11-08T13:00:00	2	Temperatura media	22.1
179354	7	Sololá	716	San Marcos la Laguna 	11	San Marcos la laguna 	2	Febrero	2023-02-27T00:00:00	2024-11-08T13:00:00	4	Temperatura máxima	22.1
179355	7	Sololá	716	San Marcos la Laguna 	11	San Marcos la laguna 	2	Febrero	2023-02-27T00:00:00	2024-11-08T13:00:00	3	Temperatura mínima	20.6
179356	7	Sololá	716	San Marcos la Laguna 	11	San Marcos la laguna 	2	Febrero	2023-02-27T00:00:00	2024-11-08T13:00:00	5	Humedad	63
179357	7	Sololá	716	San Marcos la Laguna 	11	San Marcos la laguna 	2	Febrero	2023-02-27T00:00:00	2024-11-08T13:00:00	6	Velocidad del viento	11.3
179358	7	Sololá	716	San Marcos la Laguna 	11	San Marcos la laguna 	2	Febrero	2023-02-27T00:00:00	2024-11-08T13:00:00	7	Dirección del viento	11.27
179359	7	Sololá	716	San Marcos la Laguna 	11	San Marcos la laguna 	2	Febrero	2023-02-27T00:00:00	2024-11-08T13:00:00	1	Precipitación	0
179360	7	Sololá	716	San Marcos la Laguna 	11	San Marcos la laguna 	2	Febrero	2023-02-27T00:00:00	2024-11-08T13:00:00	8	Radiación solar	899
179361	7	Sololá	716	San Marcos la Laguna 	11	San Marcos la laguna 	2	Febrero	2023-02-27T00:00:00	2024-11-08T14:00:00	2	Temperatura media	22.5
179362	7	Sololá	716	San Marcos la Laguna 	11	San Marcos la laguna 	2	Febrero	2023-02-27T00:00:00	2024-11-08T14:00:00	4	Temperatura máxima	22.5
179363	7	Sololá	716	San Marcos la Laguna 	11	San Marcos la laguna 	2	Febrero	2023-02-27T00:00:00	2024-11-08T14:00:00	3	Temperatura mínima	21.9
179364	7	Sololá	716	San Marcos la Laguna 	11	San Marcos la laguna 	2	Febrero	2023-02-27T00:00:00	2024-11-08T14:00:00	5	Humedad	66
179365	7	Sololá	716	San Marcos la Laguna 	11	San Marcos la laguna 	2	Febrero	2023-02-27T00:00:00	2024-11-08T14:00:00	6	Velocidad del viento	12.9
179366	7	Sololá	716	San Marcos la Laguna 	11	San Marcos la laguna 	2	Febrero	2023-02-27T00:00:00	2024-11-08T14:00:00	7	Dirección del viento	12.87
179367	7	Sololá	716	San Marcos la Laguna 	11	San Marcos la laguna 	2	Febrero	2023-02-27T00:00:00	2024-11-08T14:00:00	1	Precipitación	0
179368	7	Sololá	716	San Marcos la Laguna 	11	San Marcos la laguna 	2	Febrero	2023-02-27T00:00:00	2024-11-08T14:00:00	8	Radiación solar	874
179369	7	Sololá	716	San Marcos la Laguna 	11	San Marcos la laguna 	2	Febrero	2023-02-27T00:00:00	2024-11-08T15:00:00	2	Temperatura media	21.7
179370	7	Sololá	716	San Marcos la Laguna 	11	San Marcos la laguna 	2	Febrero	2023-02-27T00:00:00	2024-11-08T15:00:00	4	Temperatura máxima	22.7
179371	7	Sololá	716	San Marcos la Laguna 	11	San Marcos la laguna 	2	Febrero	2023-02-27T00:00:00	2024-11-08T15:00:00	3	Temperatura mínima	21.4
179372	7	Sololá	716	San Marcos la Laguna 	11	San Marcos la laguna 	2	Febrero	2023-02-27T00:00:00	2024-11-08T15:00:00	5	Humedad	68
179373	7	Sololá	716	San Marcos la Laguna 	11	San Marcos la laguna 	2	Febrero	2023-02-27T00:00:00	2024-11-08T15:00:00	6	Velocidad del viento	9.7
179374	7	Sololá	716	San Marcos la Laguna 	11	San Marcos la laguna 	2	Febrero	2023-02-27T00:00:00	2024-11-08T15:00:00	7	Dirección del viento	9.66
179375	7	Sololá	716	San Marcos la Laguna 	11	San Marcos la laguna 	2	Febrero	2023-02-27T00:00:00	2024-11-08T15:00:00	1	Precipitación	0
179376	7	Sololá	716	San Marcos la Laguna 	11	San Marcos la laguna 	2	Febrero	2023-02-27T00:00:00	2024-11-08T15:00:00	8	Radiación solar	699
179377	7	Sololá	716	San Marcos la Laguna 	11	San Marcos la laguna 	2	Febrero	2023-02-27T00:00:00	2024-11-08T16:00:00	2	Temperatura media	21.1
179378	7	Sololá	716	San Marcos la Laguna 	11	San Marcos la laguna 	2	Febrero	2023-02-27T00:00:00	2024-11-08T16:00:00	4	Temperatura máxima	21.9
179379	7	Sololá	716	San Marcos la Laguna 	11	San Marcos la laguna 	2	Febrero	2023-02-27T00:00:00	2024-11-08T16:00:00	3	Temperatura mínima	21.1
179380	7	Sololá	716	San Marcos la Laguna 	11	San Marcos la laguna 	2	Febrero	2023-02-27T00:00:00	2024-11-08T16:00:00	5	Humedad	73
179381	7	Sololá	716	San Marcos la Laguna 	11	San Marcos la laguna 	2	Febrero	2023-02-27T00:00:00	2024-11-08T16:00:00	6	Velocidad del viento	8
179382	7	Sololá	716	San Marcos la Laguna 	11	San Marcos la laguna 	2	Febrero	2023-02-27T00:00:00	2024-11-08T16:00:00	7	Dirección del viento	8.05
179383	7	Sololá	716	San Marcos la Laguna 	11	San Marcos la laguna 	2	Febrero	2023-02-27T00:00:00	2024-11-08T16:00:00	1	Precipitación	0
179384	7	Sololá	716	San Marcos la Laguna 	11	San Marcos la laguna 	2	Febrero	2023-02-27T00:00:00	2024-11-08T16:00:00	8	Radiación solar	605
179385	7	Sololá	716	San Marcos la Laguna 	11	San Marcos la laguna 	2	Febrero	2023-02-27T00:00:00	2024-11-08T17:00:00	2	Temperatura media	20.9
179386	7	Sololá	716	San Marcos la Laguna 	11	San Marcos la laguna 	2	Febrero	2023-02-27T00:00:00	2024-11-08T17:00:00	4	Temperatura máxima	21.2
179387	7	Sololá	716	San Marcos la Laguna 	11	San Marcos la laguna 	2	Febrero	2023-02-27T00:00:00	2024-11-08T17:00:00	3	Temperatura mínima	20.8
179388	7	Sololá	716	San Marcos la Laguna 	11	San Marcos la laguna 	2	Febrero	2023-02-27T00:00:00	2024-11-08T17:00:00	5	Humedad	73
179389	7	Sololá	716	San Marcos la Laguna 	11	San Marcos la laguna 	2	Febrero	2023-02-27T00:00:00	2024-11-08T17:00:00	6	Velocidad del viento	6.4
179390	7	Sololá	716	San Marcos la Laguna 	11	San Marcos la laguna 	2	Febrero	2023-02-27T00:00:00	2024-11-08T17:00:00	7	Dirección del viento	6.44
179391	7	Sololá	716	San Marcos la Laguna 	11	San Marcos la laguna 	2	Febrero	2023-02-27T00:00:00	2024-11-08T17:00:00	1	Precipitación	0
179392	7	Sololá	716	San Marcos la Laguna 	11	San Marcos la laguna 	2	Febrero	2023-02-27T00:00:00	2024-11-08T17:00:00	8	Radiación solar	208
179393	7	Sololá	716	San Marcos la Laguna 	11	San Marcos la laguna 	2	Febrero	2023-02-27T00:00:00	2024-11-08T18:00:00	2	Temperatura media	20.8
179394	7	Sololá	716	San Marcos la Laguna 	11	San Marcos la laguna 	2	Febrero	2023-02-27T00:00:00	2024-11-08T18:00:00	4	Temperatura máxima	21
179395	7	Sololá	716	San Marcos la Laguna 	11	San Marcos la laguna 	2	Febrero	2023-02-27T00:00:00	2024-11-08T18:00:00	3	Temperatura mínima	20.7
179396	7	Sololá	716	San Marcos la Laguna 	11	San Marcos la laguna 	2	Febrero	2023-02-27T00:00:00	2024-11-08T18:00:00	5	Humedad	73
179397	7	Sololá	716	San Marcos la Laguna 	11	San Marcos la laguna 	2	Febrero	2023-02-27T00:00:00	2024-11-08T18:00:00	6	Velocidad del viento	4.8
179398	7	Sololá	716	San Marcos la Laguna 	11	San Marcos la laguna 	2	Febrero	2023-02-27T00:00:00	2024-11-08T18:00:00	7	Dirección del viento	4.83
179399	7	Sololá	716	San Marcos la Laguna 	11	San Marcos la laguna 	2	Febrero	2023-02-27T00:00:00	2024-11-08T18:00:00	1	Precipitación	0
179400	7	Sololá	716	San Marcos la Laguna 	11	San Marcos la laguna 	2	Febrero	2023-02-27T00:00:00	2024-11-08T18:00:00	8	Radiación solar	96
179401	7	Sololá	716	San Marcos la Laguna 	11	San Marcos la laguna 	2	Febrero	2023-02-27T00:00:00	2024-11-08T19:00:00	2	Temperatura media	19.5
179402	7	Sololá	716	San Marcos la Laguna 	11	San Marcos la laguna 	2	Febrero	2023-02-27T00:00:00	2024-11-08T19:00:00	4	Temperatura máxima	20.8
179403	7	Sololá	716	San Marcos la Laguna 	11	San Marcos la laguna 	2	Febrero	2023-02-27T00:00:00	2024-11-08T19:00:00	3	Temperatura mínima	19.3
179404	7	Sololá	716	San Marcos la Laguna 	11	San Marcos la laguna 	2	Febrero	2023-02-27T00:00:00	2024-11-08T19:00:00	5	Humedad	84
179405	7	Sololá	716	San Marcos la Laguna 	11	San Marcos la laguna 	2	Febrero	2023-02-27T00:00:00	2024-11-08T19:00:00	6	Velocidad del viento	3.2
179406	7	Sololá	716	San Marcos la Laguna 	11	San Marcos la laguna 	2	Febrero	2023-02-27T00:00:00	2024-11-08T19:00:00	7	Dirección del viento	3.22
179407	7	Sololá	716	San Marcos la Laguna 	11	San Marcos la laguna 	2	Febrero	2023-02-27T00:00:00	2024-11-08T19:00:00	1	Precipitación	0
179408	7	Sololá	716	San Marcos la Laguna 	11	San Marcos la laguna 	2	Febrero	2023-02-27T00:00:00	2024-11-08T19:00:00	8	Radiación solar	0
179409	7	Sololá	716	San Marcos la Laguna 	11	San Marcos la laguna 	2	Febrero	2023-02-27T00:00:00	2024-11-08T20:00:00	2	Temperatura media	18.4
179410	7	Sololá	716	San Marcos la Laguna 	11	San Marcos la laguna 	2	Febrero	2023-02-27T00:00:00	2024-11-08T20:00:00	4	Temperatura máxima	19.5
179411	7	Sololá	716	San Marcos la Laguna 	11	San Marcos la laguna 	2	Febrero	2023-02-27T00:00:00	2024-11-08T20:00:00	3	Temperatura mínima	18.4
179412	7	Sololá	716	San Marcos la Laguna 	11	San Marcos la laguna 	2	Febrero	2023-02-27T00:00:00	2024-11-08T20:00:00	5	Humedad	82
179413	7	Sololá	716	San Marcos la Laguna 	11	San Marcos la laguna 	2	Febrero	2023-02-27T00:00:00	2024-11-08T20:00:00	6	Velocidad del viento	3.2
179414	7	Sololá	716	San Marcos la Laguna 	11	San Marcos la laguna 	2	Febrero	2023-02-27T00:00:00	2024-11-08T20:00:00	7	Dirección del viento	3.22
179415	7	Sololá	716	San Marcos la Laguna 	11	San Marcos la laguna 	2	Febrero	2023-02-27T00:00:00	2024-11-08T20:00:00	1	Precipitación	0
179416	7	Sololá	716	San Marcos la Laguna 	11	San Marcos la laguna 	2	Febrero	2023-02-27T00:00:00	2024-11-08T20:00:00	8	Radiación solar	0
179417	7	Sololá	716	San Marcos la Laguna 	11	San Marcos la laguna 	2	Febrero	2023-02-27T00:00:00	2024-11-08T21:00:00	2	Temperatura media	17.4
179418	7	Sololá	716	San Marcos la Laguna 	11	San Marcos la laguna 	2	Febrero	2023-02-27T00:00:00	2024-11-08T21:00:00	4	Temperatura máxima	18.4
179419	7	Sololá	716	San Marcos la Laguna 	11	San Marcos la laguna 	2	Febrero	2023-02-27T00:00:00	2024-11-08T21:00:00	3	Temperatura mínima	17.4
179420	7	Sololá	716	San Marcos la Laguna 	11	San Marcos la laguna 	2	Febrero	2023-02-27T00:00:00	2024-11-08T21:00:00	5	Humedad	82
179421	7	Sololá	716	San Marcos la Laguna 	11	San Marcos la laguna 	2	Febrero	2023-02-27T00:00:00	2024-11-08T21:00:00	6	Velocidad del viento	4.8
179422	7	Sololá	716	San Marcos la Laguna 	11	San Marcos la laguna 	2	Febrero	2023-02-27T00:00:00	2024-11-08T21:00:00	7	Dirección del viento	4.83
179423	7	Sololá	716	San Marcos la Laguna 	11	San Marcos la laguna 	2	Febrero	2023-02-27T00:00:00	2024-11-08T21:00:00	1	Precipitación	0
179424	7	Sololá	716	San Marcos la Laguna 	11	San Marcos la laguna 	2	Febrero	2023-02-27T00:00:00	2024-11-08T21:00:00	8	Radiación solar	0
179425	7	Sololá	716	San Marcos la Laguna 	11	San Marcos la laguna 	2	Febrero	2023-02-27T00:00:00	2024-11-08T22:00:00	2	Temperatura media	16.7
179426	7	Sololá	716	San Marcos la Laguna 	11	San Marcos la laguna 	2	Febrero	2023-02-27T00:00:00	2024-11-08T22:00:00	4	Temperatura máxima	17.7
179427	7	Sololá	716	San Marcos la Laguna 	11	San Marcos la laguna 	2	Febrero	2023-02-27T00:00:00	2024-11-08T22:00:00	3	Temperatura mínima	16.7
179428	7	Sololá	716	San Marcos la Laguna 	11	San Marcos la laguna 	2	Febrero	2023-02-27T00:00:00	2024-11-08T22:00:00	5	Humedad	84
179429	7	Sololá	716	San Marcos la Laguna 	11	San Marcos la laguna 	2	Febrero	2023-02-27T00:00:00	2024-11-08T22:00:00	6	Velocidad del viento	6.4
179430	7	Sololá	716	San Marcos la Laguna 	11	San Marcos la laguna 	2	Febrero	2023-02-27T00:00:00	2024-11-08T22:00:00	7	Dirección del viento	6.44
179431	7	Sololá	716	San Marcos la Laguna 	11	San Marcos la laguna 	2	Febrero	2023-02-27T00:00:00	2024-11-08T22:00:00	1	Precipitación	0
179432	7	Sololá	716	San Marcos la Laguna 	11	San Marcos la laguna 	2	Febrero	2023-02-27T00:00:00	2024-11-08T22:00:00	8	Radiación solar	0
179433	7	Sololá	716	San Marcos la Laguna 	11	San Marcos la laguna 	2	Febrero	2023-02-27T00:00:00	2024-11-08T23:00:00	2	Temperatura media	16.1
179434	7	Sololá	716	San Marcos la Laguna 	11	San Marcos la laguna 	2	Febrero	2023-02-27T00:00:00	2024-11-08T23:00:00	4	Temperatura máxima	16.7
179435	7	Sololá	716	San Marcos la Laguna 	11	San Marcos la laguna 	2	Febrero	2023-02-27T00:00:00	2024-11-08T23:00:00	3	Temperatura mínima	16.1
179436	7	Sololá	716	San Marcos la Laguna 	11	San Marcos la laguna 	2	Febrero	2023-02-27T00:00:00	2024-11-08T23:00:00	5	Humedad	87
179437	7	Sololá	716	San Marcos la Laguna 	11	San Marcos la laguna 	2	Febrero	2023-02-27T00:00:00	2024-11-08T23:00:00	6	Velocidad del viento	6.4
179438	7	Sololá	716	San Marcos la Laguna 	11	San Marcos la laguna 	2	Febrero	2023-02-27T00:00:00	2024-11-08T23:00:00	7	Dirección del viento	6.44
179439	7	Sololá	716	San Marcos la Laguna 	11	San Marcos la laguna 	2	Febrero	2023-02-27T00:00:00	2024-11-08T23:00:00	1	Precipitación	0
179440	7	Sololá	716	San Marcos la Laguna 	11	San Marcos la laguna 	2	Febrero	2023-02-27T00:00:00	2024-11-08T23:00:00	8	Radiación solar	0
179441	7	Sololá	716	San Marcos la Laguna 	11	San Marcos la laguna 	2	Febrero	2023-02-28T00:00:00	2024-11-08T00:00:00	2	Temperatura media	15.4
179442	7	Sololá	716	San Marcos la Laguna 	11	San Marcos la laguna 	2	Febrero	2023-02-28T00:00:00	2024-11-08T00:00:00	4	Temperatura máxima	16.1
179443	7	Sololá	716	San Marcos la Laguna 	11	San Marcos la laguna 	2	Febrero	2023-02-28T00:00:00	2024-11-08T00:00:00	3	Temperatura mínima	15.3
179444	7	Sololá	716	San Marcos la Laguna 	11	San Marcos la laguna 	2	Febrero	2023-02-28T00:00:00	2024-11-08T00:00:00	5	Humedad	86
179445	7	Sololá	716	San Marcos la Laguna 	11	San Marcos la laguna 	2	Febrero	2023-02-28T00:00:00	2024-11-08T00:00:00	6	Velocidad del viento	6.4
179446	7	Sololá	716	San Marcos la Laguna 	11	San Marcos la laguna 	2	Febrero	2023-02-28T00:00:00	2024-11-08T00:00:00	7	Dirección del viento	6.44
179447	7	Sololá	716	San Marcos la Laguna 	11	San Marcos la laguna 	2	Febrero	2023-02-28T00:00:00	2024-11-08T00:00:00	1	Precipitación	0
179448	7	Sololá	716	San Marcos la Laguna 	11	San Marcos la laguna 	2	Febrero	2023-02-28T00:00:00	2024-11-08T00:00:00	8	Radiación solar	0
179449	7	Sololá	716	San Marcos la Laguna 	11	San Marcos la laguna 	2	Febrero	2023-02-28T00:00:00	2024-11-08T01:00:00	2	Temperatura media	14.7
179450	7	Sololá	716	San Marcos la Laguna 	11	San Marcos la laguna 	2	Febrero	2023-02-28T00:00:00	2024-11-08T01:00:00	4	Temperatura máxima	15.4
179451	7	Sololá	716	San Marcos la Laguna 	11	San Marcos la laguna 	2	Febrero	2023-02-28T00:00:00	2024-11-08T01:00:00	3	Temperatura mínima	14.7
179452	7	Sololá	716	San Marcos la Laguna 	11	San Marcos la laguna 	2	Febrero	2023-02-28T00:00:00	2024-11-08T01:00:00	5	Humedad	86
179453	7	Sololá	716	San Marcos la Laguna 	11	San Marcos la laguna 	2	Febrero	2023-02-28T00:00:00	2024-11-08T01:00:00	6	Velocidad del viento	4.8
179454	7	Sololá	716	San Marcos la Laguna 	11	San Marcos la laguna 	2	Febrero	2023-02-28T00:00:00	2024-11-08T01:00:00	7	Dirección del viento	4.83
179455	7	Sololá	716	San Marcos la Laguna 	11	San Marcos la laguna 	2	Febrero	2023-02-28T00:00:00	2024-11-08T01:00:00	1	Precipitación	0
179456	7	Sololá	716	San Marcos la Laguna 	11	San Marcos la laguna 	2	Febrero	2023-02-28T00:00:00	2024-11-08T01:00:00	8	Radiación solar	0
179457	7	Sololá	716	San Marcos la Laguna 	11	San Marcos la laguna 	2	Febrero	2023-02-28T00:00:00	2024-11-08T02:00:00	2	Temperatura media	15.1
179458	7	Sololá	716	San Marcos la Laguna 	11	San Marcos la laguna 	2	Febrero	2023-02-28T00:00:00	2024-11-08T02:00:00	4	Temperatura máxima	15.1
179459	7	Sololá	716	San Marcos la Laguna 	11	San Marcos la laguna 	2	Febrero	2023-02-28T00:00:00	2024-11-08T02:00:00	3	Temperatura mínima	14.7
179460	7	Sololá	716	San Marcos la Laguna 	11	San Marcos la laguna 	2	Febrero	2023-02-28T00:00:00	2024-11-08T02:00:00	5	Humedad	87
179461	7	Sololá	716	San Marcos la Laguna 	11	San Marcos la laguna 	2	Febrero	2023-02-28T00:00:00	2024-11-08T02:00:00	6	Velocidad del viento	6.4
179462	7	Sololá	716	San Marcos la Laguna 	11	San Marcos la laguna 	2	Febrero	2023-02-28T00:00:00	2024-11-08T02:00:00	7	Dirección del viento	6.44
179463	7	Sololá	716	San Marcos la Laguna 	11	San Marcos la laguna 	2	Febrero	2023-02-28T00:00:00	2024-11-08T02:00:00	1	Precipitación	0
179464	7	Sololá	716	San Marcos la Laguna 	11	San Marcos la laguna 	2	Febrero	2023-02-28T00:00:00	2024-11-08T02:00:00	8	Radiación solar	0
179465	7	Sololá	716	San Marcos la Laguna 	11	San Marcos la laguna 	2	Febrero	2023-02-28T00:00:00	2024-11-08T03:00:00	2	Temperatura media	14.3
179466	7	Sololá	716	San Marcos la Laguna 	11	San Marcos la laguna 	2	Febrero	2023-02-28T00:00:00	2024-11-08T03:00:00	4	Temperatura máxima	15.2
179467	7	Sololá	716	San Marcos la Laguna 	11	San Marcos la laguna 	2	Febrero	2023-02-28T00:00:00	2024-11-08T03:00:00	3	Temperatura mínima	14.3
179468	7	Sololá	716	San Marcos la Laguna 	11	San Marcos la laguna 	2	Febrero	2023-02-28T00:00:00	2024-11-08T03:00:00	5	Humedad	87
179469	7	Sololá	716	San Marcos la Laguna 	11	San Marcos la laguna 	2	Febrero	2023-02-28T00:00:00	2024-11-08T03:00:00	6	Velocidad del viento	6.4
179470	7	Sololá	716	San Marcos la Laguna 	11	San Marcos la laguna 	2	Febrero	2023-02-28T00:00:00	2024-11-08T03:00:00	7	Dirección del viento	6.44
179471	7	Sololá	716	San Marcos la Laguna 	11	San Marcos la laguna 	2	Febrero	2023-02-28T00:00:00	2024-11-08T03:00:00	1	Precipitación	0
179472	7	Sololá	716	San Marcos la Laguna 	11	San Marcos la laguna 	2	Febrero	2023-02-28T00:00:00	2024-11-08T03:00:00	8	Radiación solar	0
179473	7	Sololá	716	San Marcos la Laguna 	11	San Marcos la laguna 	2	Febrero	2023-02-28T00:00:00	2024-11-08T04:00:00	2	Temperatura media	13.9
179474	7	Sololá	716	San Marcos la Laguna 	11	San Marcos la laguna 	2	Febrero	2023-02-28T00:00:00	2024-11-08T04:00:00	4	Temperatura máxima	14.3
179475	7	Sololá	716	San Marcos la Laguna 	11	San Marcos la laguna 	2	Febrero	2023-02-28T00:00:00	2024-11-08T04:00:00	3	Temperatura mínima	13.8
179476	7	Sololá	716	San Marcos la Laguna 	11	San Marcos la laguna 	2	Febrero	2023-02-28T00:00:00	2024-11-08T04:00:00	5	Humedad	85
179477	7	Sololá	716	San Marcos la Laguna 	11	San Marcos la laguna 	2	Febrero	2023-02-28T00:00:00	2024-11-08T04:00:00	6	Velocidad del viento	6.4
179478	7	Sololá	716	San Marcos la Laguna 	11	San Marcos la laguna 	2	Febrero	2023-02-28T00:00:00	2024-11-08T04:00:00	7	Dirección del viento	6.44
179479	7	Sololá	716	San Marcos la Laguna 	11	San Marcos la laguna 	2	Febrero	2023-02-28T00:00:00	2024-11-08T04:00:00	1	Precipitación	0
179480	7	Sololá	716	San Marcos la Laguna 	11	San Marcos la laguna 	2	Febrero	2023-02-28T00:00:00	2024-11-08T04:00:00	8	Radiación solar	0
179481	7	Sololá	716	San Marcos la Laguna 	11	San Marcos la laguna 	2	Febrero	2023-02-28T00:00:00	2024-11-08T05:00:00	2	Temperatura media	13.4
179482	7	Sololá	716	San Marcos la Laguna 	11	San Marcos la laguna 	2	Febrero	2023-02-28T00:00:00	2024-11-08T05:00:00	4	Temperatura máxima	14.1
179483	7	Sololá	716	San Marcos la Laguna 	11	San Marcos la laguna 	2	Febrero	2023-02-28T00:00:00	2024-11-08T05:00:00	3	Temperatura mínima	13.4
179484	7	Sololá	716	San Marcos la Laguna 	11	San Marcos la laguna 	2	Febrero	2023-02-28T00:00:00	2024-11-08T05:00:00	5	Humedad	85
179485	7	Sololá	716	San Marcos la Laguna 	11	San Marcos la laguna 	2	Febrero	2023-02-28T00:00:00	2024-11-08T05:00:00	6	Velocidad del viento	6.4
179486	7	Sololá	716	San Marcos la Laguna 	11	San Marcos la laguna 	2	Febrero	2023-02-28T00:00:00	2024-11-08T05:00:00	7	Dirección del viento	6.44
179487	7	Sololá	716	San Marcos la Laguna 	11	San Marcos la laguna 	2	Febrero	2023-02-28T00:00:00	2024-11-08T05:00:00	1	Precipitación	0
179488	7	Sololá	716	San Marcos la Laguna 	11	San Marcos la laguna 	2	Febrero	2023-02-28T00:00:00	2024-11-08T05:00:00	8	Radiación solar	0
179489	7	Sololá	716	San Marcos la Laguna 	11	San Marcos la laguna 	2	Febrero	2023-02-28T00:00:00	2024-11-08T06:00:00	2	Temperatura media	13.2
179490	7	Sololá	716	San Marcos la Laguna 	11	San Marcos la laguna 	2	Febrero	2023-02-28T00:00:00	2024-11-08T06:00:00	4	Temperatura máxima	13.6
179491	7	Sololá	716	San Marcos la Laguna 	11	San Marcos la laguna 	2	Febrero	2023-02-28T00:00:00	2024-11-08T06:00:00	3	Temperatura mínima	13.1
179492	7	Sololá	716	San Marcos la Laguna 	11	San Marcos la laguna 	2	Febrero	2023-02-28T00:00:00	2024-11-08T06:00:00	5	Humedad	80
179493	7	Sololá	716	San Marcos la Laguna 	11	San Marcos la laguna 	2	Febrero	2023-02-28T00:00:00	2024-11-08T06:00:00	6	Velocidad del viento	6.4
179494	7	Sololá	716	San Marcos la Laguna 	11	San Marcos la laguna 	2	Febrero	2023-02-28T00:00:00	2024-11-08T06:00:00	7	Dirección del viento	6.44
179495	7	Sololá	716	San Marcos la Laguna 	11	San Marcos la laguna 	2	Febrero	2023-02-28T00:00:00	2024-11-08T06:00:00	1	Precipitación	0
179496	7	Sololá	716	San Marcos la Laguna 	11	San Marcos la laguna 	2	Febrero	2023-02-28T00:00:00	2024-11-08T06:00:00	8	Radiación solar	0
179497	7	Sololá	716	San Marcos la Laguna 	11	San Marcos la laguna 	2	Febrero	2023-02-28T00:00:00	2024-11-08T07:00:00	2	Temperatura media	13.6
179498	7	Sololá	716	San Marcos la Laguna 	11	San Marcos la laguna 	2	Febrero	2023-02-28T00:00:00	2024-11-08T07:00:00	4	Temperatura máxima	13.6
179499	7	Sololá	716	San Marcos la Laguna 	11	San Marcos la laguna 	2	Febrero	2023-02-28T00:00:00	2024-11-08T07:00:00	3	Temperatura mínima	13
179500	7	Sololá	716	San Marcos la Laguna 	11	San Marcos la laguna 	2	Febrero	2023-02-28T00:00:00	2024-11-08T07:00:00	5	Humedad	78
179501	7	Sololá	716	San Marcos la Laguna 	11	San Marcos la laguna 	2	Febrero	2023-02-28T00:00:00	2024-11-08T07:00:00	6	Velocidad del viento	6.4
179502	7	Sololá	716	San Marcos la Laguna 	11	San Marcos la laguna 	2	Febrero	2023-02-28T00:00:00	2024-11-08T07:00:00	7	Dirección del viento	6.44
179503	7	Sololá	716	San Marcos la Laguna 	11	San Marcos la laguna 	2	Febrero	2023-02-28T00:00:00	2024-11-08T07:00:00	1	Precipitación	0
179504	7	Sololá	716	San Marcos la Laguna 	11	San Marcos la laguna 	2	Febrero	2023-02-28T00:00:00	2024-11-08T07:00:00	8	Radiación solar	6
179505	7	Sololá	716	San Marcos la Laguna 	11	San Marcos la laguna 	2	Febrero	2023-02-28T00:00:00	2024-11-08T08:00:00	2	Temperatura media	17.2
179506	7	Sololá	716	San Marcos la Laguna 	11	San Marcos la laguna 	2	Febrero	2023-02-28T00:00:00	2024-11-08T08:00:00	4	Temperatura máxima	17.2
179507	7	Sololá	716	San Marcos la Laguna 	11	San Marcos la laguna 	2	Febrero	2023-02-28T00:00:00	2024-11-08T08:00:00	3	Temperatura mínima	13.6
179508	7	Sololá	716	San Marcos la Laguna 	11	San Marcos la laguna 	2	Febrero	2023-02-28T00:00:00	2024-11-08T08:00:00	5	Humedad	80
179509	7	Sololá	716	San Marcos la Laguna 	11	San Marcos la laguna 	2	Febrero	2023-02-28T00:00:00	2024-11-08T08:00:00	6	Velocidad del viento	4.8
179510	7	Sololá	716	San Marcos la Laguna 	11	San Marcos la laguna 	2	Febrero	2023-02-28T00:00:00	2024-11-08T08:00:00	7	Dirección del viento	4.83
179511	7	Sololá	716	San Marcos la Laguna 	11	San Marcos la laguna 	2	Febrero	2023-02-28T00:00:00	2024-11-08T08:00:00	1	Precipitación	0
179512	7	Sololá	716	San Marcos la Laguna 	11	San Marcos la laguna 	2	Febrero	2023-02-28T00:00:00	2024-11-08T08:00:00	8	Radiación solar	137
179513	7	Sololá	716	San Marcos la Laguna 	11	San Marcos la laguna 	2	Febrero	2023-02-28T00:00:00	2024-11-08T09:00:00	2	Temperatura media	18.8
179514	7	Sololá	716	San Marcos la Laguna 	11	San Marcos la laguna 	2	Febrero	2023-02-28T00:00:00	2024-11-08T09:00:00	4	Temperatura máxima	18.8
179515	7	Sololá	716	San Marcos la Laguna 	11	San Marcos la laguna 	2	Febrero	2023-02-28T00:00:00	2024-11-08T09:00:00	3	Temperatura mínima	17.2
179516	7	Sololá	716	San Marcos la Laguna 	11	San Marcos la laguna 	2	Febrero	2023-02-28T00:00:00	2024-11-08T09:00:00	5	Humedad	74
179517	7	Sololá	716	San Marcos la Laguna 	11	San Marcos la laguna 	2	Febrero	2023-02-28T00:00:00	2024-11-08T09:00:00	6	Velocidad del viento	3.2
179518	7	Sololá	716	San Marcos la Laguna 	11	San Marcos la laguna 	2	Febrero	2023-02-28T00:00:00	2024-11-08T09:00:00	7	Dirección del viento	3.22
179519	7	Sololá	716	San Marcos la Laguna 	11	San Marcos la laguna 	2	Febrero	2023-02-28T00:00:00	2024-11-08T09:00:00	1	Precipitación	0
179520	7	Sololá	716	San Marcos la Laguna 	11	San Marcos la laguna 	2	Febrero	2023-02-28T00:00:00	2024-11-08T09:00:00	8	Radiación solar	389
179521	7	Sololá	716	San Marcos la Laguna 	11	San Marcos la laguna 	2	Febrero	2023-02-28T00:00:00	2024-11-08T10:00:00	2	Temperatura media	19.6
179522	7	Sololá	716	San Marcos la Laguna 	11	San Marcos la laguna 	2	Febrero	2023-02-28T00:00:00	2024-11-08T10:00:00	4	Temperatura máxima	19.7
179523	7	Sololá	716	San Marcos la Laguna 	11	San Marcos la laguna 	2	Febrero	2023-02-28T00:00:00	2024-11-08T10:00:00	3	Temperatura mínima	18.6
179524	7	Sololá	716	San Marcos la Laguna 	11	San Marcos la laguna 	2	Febrero	2023-02-28T00:00:00	2024-11-08T10:00:00	5	Humedad	74
179525	7	Sololá	716	San Marcos la Laguna 	11	San Marcos la laguna 	2	Febrero	2023-02-28T00:00:00	2024-11-08T10:00:00	6	Velocidad del viento	4.8
179526	7	Sololá	716	San Marcos la Laguna 	11	San Marcos la laguna 	2	Febrero	2023-02-28T00:00:00	2024-11-08T10:00:00	7	Dirección del viento	4.83
179527	7	Sololá	716	San Marcos la Laguna 	11	San Marcos la laguna 	2	Febrero	2023-02-28T00:00:00	2024-11-08T10:00:00	1	Precipitación	0
179528	7	Sololá	716	San Marcos la Laguna 	11	San Marcos la laguna 	2	Febrero	2023-02-28T00:00:00	2024-11-08T10:00:00	8	Radiación solar	593
179529	7	Sololá	716	San Marcos la Laguna 	11	San Marcos la laguna 	2	Febrero	2023-02-28T00:00:00	2024-11-08T11:00:00	2	Temperatura media	20.7
179530	7	Sololá	716	San Marcos la Laguna 	11	San Marcos la laguna 	2	Febrero	2023-02-28T00:00:00	2024-11-08T11:00:00	4	Temperatura máxima	20.7
179531	7	Sololá	716	San Marcos la Laguna 	11	San Marcos la laguna 	2	Febrero	2023-02-28T00:00:00	2024-11-08T11:00:00	3	Temperatura mínima	19.4
179532	7	Sololá	716	San Marcos la Laguna 	11	San Marcos la laguna 	2	Febrero	2023-02-28T00:00:00	2024-11-08T11:00:00	5	Humedad	67
179533	7	Sololá	716	San Marcos la Laguna 	11	San Marcos la laguna 	2	Febrero	2023-02-28T00:00:00	2024-11-08T11:00:00	6	Velocidad del viento	6.4
179534	7	Sololá	716	San Marcos la Laguna 	11	San Marcos la laguna 	2	Febrero	2023-02-28T00:00:00	2024-11-08T11:00:00	7	Dirección del viento	6.44
179535	7	Sololá	716	San Marcos la Laguna 	11	San Marcos la laguna 	2	Febrero	2023-02-28T00:00:00	2024-11-08T11:00:00	1	Precipitación	0
179536	7	Sololá	716	San Marcos la Laguna 	11	San Marcos la laguna 	2	Febrero	2023-02-28T00:00:00	2024-11-08T11:00:00	8	Radiación solar	746
179537	7	Sololá	716	San Marcos la Laguna 	11	San Marcos la laguna 	2	Febrero	2023-02-28T00:00:00	2024-11-08T12:00:00	2	Temperatura media	21.4
179538	7	Sololá	716	San Marcos la Laguna 	11	San Marcos la laguna 	2	Febrero	2023-02-28T00:00:00	2024-11-08T12:00:00	4	Temperatura máxima	21.5
179539	7	Sololá	716	San Marcos la Laguna 	11	San Marcos la laguna 	2	Febrero	2023-02-28T00:00:00	2024-11-08T12:00:00	3	Temperatura mínima	20.5
179540	7	Sololá	716	San Marcos la Laguna 	11	San Marcos la laguna 	2	Febrero	2023-02-28T00:00:00	2024-11-08T12:00:00	5	Humedad	72
179541	7	Sololá	716	San Marcos la Laguna 	11	San Marcos la laguna 	2	Febrero	2023-02-28T00:00:00	2024-11-08T12:00:00	6	Velocidad del viento	9.7
179542	7	Sololá	716	San Marcos la Laguna 	11	San Marcos la laguna 	2	Febrero	2023-02-28T00:00:00	2024-11-08T12:00:00	7	Dirección del viento	9.66
179543	7	Sololá	716	San Marcos la Laguna 	11	San Marcos la laguna 	2	Febrero	2023-02-28T00:00:00	2024-11-08T12:00:00	1	Precipitación	0
179544	7	Sololá	716	San Marcos la Laguna 	11	San Marcos la laguna 	2	Febrero	2023-02-28T00:00:00	2024-11-08T12:00:00	8	Radiación solar	756
179545	7	Sololá	716	San Marcos la Laguna 	11	San Marcos la laguna 	2	Febrero	2023-02-28T00:00:00	2024-11-08T13:00:00	2	Temperatura media	21.7
179546	7	Sololá	716	San Marcos la Laguna 	11	San Marcos la laguna 	2	Febrero	2023-02-28T00:00:00	2024-11-08T13:00:00	4	Temperatura máxima	21.9
179547	7	Sololá	716	San Marcos la Laguna 	11	San Marcos la laguna 	2	Febrero	2023-02-28T00:00:00	2024-11-08T13:00:00	3	Temperatura mínima	21.4
179548	7	Sololá	716	San Marcos la Laguna 	11	San Marcos la laguna 	2	Febrero	2023-02-28T00:00:00	2024-11-08T13:00:00	5	Humedad	72
179549	7	Sololá	716	San Marcos la Laguna 	11	San Marcos la laguna 	2	Febrero	2023-02-28T00:00:00	2024-11-08T13:00:00	6	Velocidad del viento	12.9
179550	7	Sololá	716	San Marcos la Laguna 	11	San Marcos la laguna 	2	Febrero	2023-02-28T00:00:00	2024-11-08T13:00:00	7	Dirección del viento	12.87
179551	7	Sololá	716	San Marcos la Laguna 	11	San Marcos la laguna 	2	Febrero	2023-02-28T00:00:00	2024-11-08T13:00:00	1	Precipitación	0
179552	7	Sololá	716	San Marcos la Laguna 	11	San Marcos la laguna 	2	Febrero	2023-02-28T00:00:00	2024-11-08T13:00:00	8	Radiación solar	877
179553	7	Sololá	716	San Marcos la Laguna 	11	San Marcos la laguna 	2	Febrero	2023-02-28T00:00:00	2024-11-08T14:00:00	2	Temperatura media	22.1
179554	7	Sololá	716	San Marcos la Laguna 	11	San Marcos la laguna 	2	Febrero	2023-02-28T00:00:00	2024-11-08T14:00:00	4	Temperatura máxima	22.1
179555	7	Sololá	716	San Marcos la Laguna 	11	San Marcos la laguna 	2	Febrero	2023-02-28T00:00:00	2024-11-08T14:00:00	3	Temperatura mínima	21.6
179556	7	Sololá	716	San Marcos la Laguna 	11	San Marcos la laguna 	2	Febrero	2023-02-28T00:00:00	2024-11-08T14:00:00	5	Humedad	72
179557	7	Sololá	716	San Marcos la Laguna 	11	San Marcos la laguna 	2	Febrero	2023-02-28T00:00:00	2024-11-08T14:00:00	6	Velocidad del viento	14.5
179558	7	Sololá	716	San Marcos la Laguna 	11	San Marcos la laguna 	2	Febrero	2023-02-28T00:00:00	2024-11-08T14:00:00	7	Dirección del viento	14.48
179559	7	Sololá	716	San Marcos la Laguna 	11	San Marcos la laguna 	2	Febrero	2023-02-28T00:00:00	2024-11-08T14:00:00	1	Precipitación	0
179560	7	Sololá	716	San Marcos la Laguna 	11	San Marcos la laguna 	2	Febrero	2023-02-28T00:00:00	2024-11-08T14:00:00	8	Radiación solar	840
179561	7	Sololá	716	San Marcos la Laguna 	11	San Marcos la laguna 	2	Febrero	2023-02-28T00:00:00	2024-11-08T15:00:00	2	Temperatura media	22.4
179562	7	Sololá	716	San Marcos la Laguna 	11	San Marcos la laguna 	2	Febrero	2023-02-28T00:00:00	2024-11-08T15:00:00	4	Temperatura máxima	22.7
179563	7	Sololá	716	San Marcos la Laguna 	11	San Marcos la laguna 	2	Febrero	2023-02-28T00:00:00	2024-11-08T15:00:00	3	Temperatura mínima	21.9
179564	7	Sololá	716	San Marcos la Laguna 	11	San Marcos la laguna 	2	Febrero	2023-02-28T00:00:00	2024-11-08T15:00:00	5	Humedad	71
179565	7	Sololá	716	San Marcos la Laguna 	11	San Marcos la laguna 	2	Febrero	2023-02-28T00:00:00	2024-11-08T15:00:00	6	Velocidad del viento	11.3
179566	7	Sololá	716	San Marcos la Laguna 	11	San Marcos la laguna 	2	Febrero	2023-02-28T00:00:00	2024-11-08T15:00:00	7	Dirección del viento	11.27
179567	7	Sololá	716	San Marcos la Laguna 	11	San Marcos la laguna 	2	Febrero	2023-02-28T00:00:00	2024-11-08T15:00:00	1	Precipitación	0
179568	7	Sololá	716	San Marcos la Laguna 	11	San Marcos la laguna 	2	Febrero	2023-02-28T00:00:00	2024-11-08T15:00:00	8	Radiación solar	732
179569	7	Sololá	716	San Marcos la Laguna 	11	San Marcos la laguna 	2	Febrero	2023-02-28T00:00:00	2024-11-08T16:00:00	2	Temperatura media	22.1
179570	7	Sololá	716	San Marcos la Laguna 	11	San Marcos la laguna 	2	Febrero	2023-02-28T00:00:00	2024-11-08T16:00:00	4	Temperatura máxima	22.4
179571	7	Sololá	716	San Marcos la Laguna 	11	San Marcos la laguna 	2	Febrero	2023-02-28T00:00:00	2024-11-08T16:00:00	3	Temperatura mínima	21.9
179572	7	Sololá	716	San Marcos la Laguna 	11	San Marcos la laguna 	2	Febrero	2023-02-28T00:00:00	2024-11-08T16:00:00	5	Humedad	76
179573	7	Sololá	716	San Marcos la Laguna 	11	San Marcos la laguna 	2	Febrero	2023-02-28T00:00:00	2024-11-08T16:00:00	6	Velocidad del viento	8
179574	7	Sololá	716	San Marcos la Laguna 	11	San Marcos la laguna 	2	Febrero	2023-02-28T00:00:00	2024-11-08T16:00:00	7	Dirección del viento	8.05
179575	7	Sololá	716	San Marcos la Laguna 	11	San Marcos la laguna 	2	Febrero	2023-02-28T00:00:00	2024-11-08T16:00:00	1	Precipitación	0
179576	7	Sololá	716	San Marcos la Laguna 	11	San Marcos la laguna 	2	Febrero	2023-02-28T00:00:00	2024-11-08T16:00:00	8	Radiación solar	569
179577	7	Sololá	716	San Marcos la Laguna 	11	San Marcos la laguna 	2	Febrero	2023-02-28T00:00:00	2024-11-08T17:00:00	2	Temperatura media	21
179578	7	Sololá	716	San Marcos la Laguna 	11	San Marcos la laguna 	2	Febrero	2023-02-28T00:00:00	2024-11-08T17:00:00	4	Temperatura máxima	22.1
179579	7	Sololá	716	San Marcos la Laguna 	11	San Marcos la laguna 	2	Febrero	2023-02-28T00:00:00	2024-11-08T17:00:00	3	Temperatura mínima	21
179580	7	Sololá	716	San Marcos la Laguna 	11	San Marcos la laguna 	2	Febrero	2023-02-28T00:00:00	2024-11-08T17:00:00	5	Humedad	81
179581	7	Sololá	716	San Marcos la Laguna 	11	San Marcos la laguna 	2	Febrero	2023-02-28T00:00:00	2024-11-08T17:00:00	6	Velocidad del viento	8
179582	7	Sololá	716	San Marcos la Laguna 	11	San Marcos la laguna 	2	Febrero	2023-02-28T00:00:00	2024-11-08T17:00:00	7	Dirección del viento	8.05
179583	7	Sololá	716	San Marcos la Laguna 	11	San Marcos la laguna 	2	Febrero	2023-02-28T00:00:00	2024-11-08T17:00:00	1	Precipitación	0
179584	7	Sololá	716	San Marcos la Laguna 	11	San Marcos la laguna 	2	Febrero	2023-02-28T00:00:00	2024-11-08T17:00:00	8	Radiación solar	355
179585	7	Sololá	716	San Marcos la Laguna 	11	San Marcos la laguna 	2	Febrero	2023-02-28T00:00:00	2024-11-08T18:00:00	2	Temperatura media	20.6
179586	7	Sololá	716	San Marcos la Laguna 	11	San Marcos la laguna 	2	Febrero	2023-02-28T00:00:00	2024-11-08T18:00:00	4	Temperatura máxima	21.1
179587	7	Sololá	716	San Marcos la Laguna 	11	San Marcos la laguna 	2	Febrero	2023-02-28T00:00:00	2024-11-08T18:00:00	3	Temperatura mínima	20.6
179588	7	Sololá	716	San Marcos la Laguna 	11	San Marcos la laguna 	2	Febrero	2023-02-28T00:00:00	2024-11-08T18:00:00	5	Humedad	81
179589	7	Sololá	716	San Marcos la Laguna 	11	San Marcos la laguna 	2	Febrero	2023-02-28T00:00:00	2024-11-08T18:00:00	6	Velocidad del viento	6.4
179590	7	Sololá	716	San Marcos la Laguna 	11	San Marcos la laguna 	2	Febrero	2023-02-28T00:00:00	2024-11-08T18:00:00	7	Dirección del viento	6.44
179591	7	Sololá	716	San Marcos la Laguna 	11	San Marcos la laguna 	2	Febrero	2023-02-28T00:00:00	2024-11-08T18:00:00	1	Precipitación	0
179592	7	Sololá	716	San Marcos la Laguna 	11	San Marcos la laguna 	2	Febrero	2023-02-28T00:00:00	2024-11-08T18:00:00	8	Radiación solar	98
179593	7	Sololá	716	San Marcos la Laguna 	11	San Marcos la laguna 	2	Febrero	2023-02-28T00:00:00	2024-11-08T19:00:00	2	Temperatura media	20.4
179594	7	Sololá	716	San Marcos la Laguna 	11	San Marcos la laguna 	2	Febrero	2023-02-28T00:00:00	2024-11-08T19:00:00	4	Temperatura máxima	20.6
179595	7	Sololá	716	San Marcos la Laguna 	11	San Marcos la laguna 	2	Febrero	2023-02-28T00:00:00	2024-11-08T19:00:00	3	Temperatura mínima	20.4
179596	7	Sololá	716	San Marcos la Laguna 	11	San Marcos la laguna 	2	Febrero	2023-02-28T00:00:00	2024-11-08T19:00:00	5	Humedad	82
179597	7	Sololá	716	San Marcos la Laguna 	11	San Marcos la laguna 	2	Febrero	2023-02-28T00:00:00	2024-11-08T19:00:00	6	Velocidad del viento	4.8
179598	7	Sololá	716	San Marcos la Laguna 	11	San Marcos la laguna 	2	Febrero	2023-02-28T00:00:00	2024-11-08T19:00:00	7	Dirección del viento	4.83
179599	7	Sololá	716	San Marcos la Laguna 	11	San Marcos la laguna 	2	Febrero	2023-02-28T00:00:00	2024-11-08T19:00:00	1	Precipitación	0
179600	7	Sololá	716	San Marcos la Laguna 	11	San Marcos la laguna 	2	Febrero	2023-02-28T00:00:00	2024-11-08T19:00:00	8	Radiación solar	0
179601	7	Sololá	716	San Marcos la Laguna 	11	San Marcos la laguna 	2	Febrero	2023-02-28T00:00:00	2024-11-08T20:00:00	2	Temperatura media	19.1
179602	7	Sololá	716	San Marcos la Laguna 	11	San Marcos la laguna 	2	Febrero	2023-02-28T00:00:00	2024-11-08T20:00:00	4	Temperatura máxima	20.4
179603	7	Sololá	716	San Marcos la Laguna 	11	San Marcos la laguna 	2	Febrero	2023-02-28T00:00:00	2024-11-08T20:00:00	3	Temperatura mínima	19.1
179604	7	Sololá	716	San Marcos la Laguna 	11	San Marcos la laguna 	2	Febrero	2023-02-28T00:00:00	2024-11-08T20:00:00	5	Humedad	81
179605	7	Sololá	716	San Marcos la Laguna 	11	San Marcos la laguna 	2	Febrero	2023-02-28T00:00:00	2024-11-08T20:00:00	6	Velocidad del viento	3.2
179606	7	Sololá	716	San Marcos la Laguna 	11	San Marcos la laguna 	2	Febrero	2023-02-28T00:00:00	2024-11-08T20:00:00	7	Dirección del viento	3.22
179607	7	Sololá	716	San Marcos la Laguna 	11	San Marcos la laguna 	2	Febrero	2023-02-28T00:00:00	2024-11-08T20:00:00	1	Precipitación	0
179608	7	Sololá	716	San Marcos la Laguna 	11	San Marcos la laguna 	2	Febrero	2023-02-28T00:00:00	2024-11-08T20:00:00	8	Radiación solar	0
179609	7	Sololá	716	San Marcos la Laguna 	11	San Marcos la laguna 	2	Febrero	2023-02-28T00:00:00	2024-11-08T21:00:00	2	Temperatura media	18.2
179610	7	Sololá	716	San Marcos la Laguna 	11	San Marcos la laguna 	2	Febrero	2023-02-28T00:00:00	2024-11-08T21:00:00	4	Temperatura máxima	19.2
179611	7	Sololá	716	San Marcos la Laguna 	11	San Marcos la laguna 	2	Febrero	2023-02-28T00:00:00	2024-11-08T21:00:00	3	Temperatura mínima	18.2
179612	7	Sololá	716	San Marcos la Laguna 	11	San Marcos la laguna 	2	Febrero	2023-02-28T00:00:00	2024-11-08T21:00:00	5	Humedad	81
179613	7	Sololá	716	San Marcos la Laguna 	11	San Marcos la laguna 	2	Febrero	2023-02-28T00:00:00	2024-11-08T21:00:00	6	Velocidad del viento	4.8
179614	7	Sololá	716	San Marcos la Laguna 	11	San Marcos la laguna 	2	Febrero	2023-02-28T00:00:00	2024-11-08T21:00:00	7	Dirección del viento	4.83
179615	7	Sololá	716	San Marcos la Laguna 	11	San Marcos la laguna 	2	Febrero	2023-02-28T00:00:00	2024-11-08T21:00:00	1	Precipitación	0
179616	7	Sololá	716	San Marcos la Laguna 	11	San Marcos la laguna 	2	Febrero	2023-02-28T00:00:00	2024-11-08T21:00:00	8	Radiación solar	0
179617	7	Sololá	716	San Marcos la Laguna 	11	San Marcos la laguna 	2	Febrero	2023-02-28T00:00:00	2024-11-08T22:00:00	2	Temperatura media	18.9
179618	7	Sololá	716	San Marcos la Laguna 	11	San Marcos la laguna 	2	Febrero	2023-02-28T00:00:00	2024-11-08T22:00:00	4	Temperatura máxima	19.1
179619	7	Sololá	716	San Marcos la Laguna 	11	San Marcos la laguna 	2	Febrero	2023-02-28T00:00:00	2024-11-08T22:00:00	3	Temperatura mínima	17.9
179620	7	Sololá	716	San Marcos la Laguna 	11	San Marcos la laguna 	2	Febrero	2023-02-28T00:00:00	2024-11-08T22:00:00	5	Humedad	78
179621	7	Sololá	716	San Marcos la Laguna 	11	San Marcos la laguna 	2	Febrero	2023-02-28T00:00:00	2024-11-08T22:00:00	6	Velocidad del viento	4.8
179622	7	Sololá	716	San Marcos la Laguna 	11	San Marcos la laguna 	2	Febrero	2023-02-28T00:00:00	2024-11-08T22:00:00	7	Dirección del viento	4.83
179623	7	Sololá	716	San Marcos la Laguna 	11	San Marcos la laguna 	2	Febrero	2023-02-28T00:00:00	2024-11-08T22:00:00	1	Precipitación	0
179624	7	Sololá	716	San Marcos la Laguna 	11	San Marcos la laguna 	2	Febrero	2023-02-28T00:00:00	2024-11-08T22:00:00	8	Radiación solar	0
179625	7	Sololá	716	San Marcos la Laguna 	11	San Marcos la laguna 	2	Febrero	2023-02-28T00:00:00	2024-11-08T23:00:00	2	Temperatura media	17.4
179626	7	Sololá	716	San Marcos la Laguna 	11	San Marcos la laguna 	2	Febrero	2023-02-28T00:00:00	2024-11-08T23:00:00	4	Temperatura máxima	19
179627	7	Sololá	716	San Marcos la Laguna 	11	San Marcos la laguna 	2	Febrero	2023-02-28T00:00:00	2024-11-08T23:00:00	3	Temperatura mínima	17.4
179628	7	Sololá	716	San Marcos la Laguna 	11	San Marcos la laguna 	2	Febrero	2023-02-28T00:00:00	2024-11-08T23:00:00	5	Humedad	80
179629	7	Sololá	716	San Marcos la Laguna 	11	San Marcos la laguna 	2	Febrero	2023-02-28T00:00:00	2024-11-08T23:00:00	6	Velocidad del viento	6.4
179630	7	Sololá	716	San Marcos la Laguna 	11	San Marcos la laguna 	2	Febrero	2023-02-28T00:00:00	2024-11-08T23:00:00	7	Dirección del viento	6.44
179631	7	Sololá	716	San Marcos la Laguna 	11	San Marcos la laguna 	2	Febrero	2023-02-28T00:00:00	2024-11-08T23:00:00	1	Precipitación	0
179632	7	Sololá	716	San Marcos la Laguna 	11	San Marcos la laguna 	2	Febrero	2023-02-28T00:00:00	2024-11-08T23:00:00	8	Radiación solar	0
179633	7	Sololá	716	San Marcos la Laguna 	11	San Marcos la laguna 	3	Marzo	2023-01-03T00:00:00	2024-11-08T00:00:00	2	Temperatura media	16.7
179634	7	Sololá	716	San Marcos la Laguna 	11	San Marcos la laguna 	3	Marzo	2023-01-03T00:00:00	2024-11-08T00:00:00	4	Temperatura máxima	17.4
179635	7	Sololá	716	San Marcos la Laguna 	11	San Marcos la laguna 	3	Marzo	2023-01-03T00:00:00	2024-11-08T00:00:00	3	Temperatura mínima	16.7
179636	7	Sololá	716	San Marcos la Laguna 	11	San Marcos la laguna 	3	Marzo	2023-01-03T00:00:00	2024-11-08T00:00:00	5	Humedad	75
179637	7	Sololá	716	San Marcos la Laguna 	11	San Marcos la laguna 	3	Marzo	2023-01-03T00:00:00	2024-11-08T00:00:00	6	Velocidad del viento	8
179638	7	Sololá	716	San Marcos la Laguna 	11	San Marcos la laguna 	3	Marzo	2023-01-03T00:00:00	2024-11-08T00:00:00	7	Dirección del viento	8.05
179639	7	Sololá	716	San Marcos la Laguna 	11	San Marcos la laguna 	3	Marzo	2023-01-03T00:00:00	2024-11-08T00:00:00	1	Precipitación	0
179640	7	Sololá	716	San Marcos la Laguna 	11	San Marcos la laguna 	3	Marzo	2023-01-03T00:00:00	2024-11-08T00:00:00	8	Radiación solar	0
179641	7	Sololá	716	San Marcos la Laguna 	11	San Marcos la laguna 	3	Marzo	2023-01-03T00:00:00	2024-11-08T01:00:00	2	Temperatura media	15.6
179642	7	Sololá	716	San Marcos la Laguna 	11	San Marcos la laguna 	3	Marzo	2023-01-03T00:00:00	2024-11-08T01:00:00	4	Temperatura máxima	16.7
179643	7	Sololá	716	San Marcos la Laguna 	11	San Marcos la laguna 	3	Marzo	2023-01-03T00:00:00	2024-11-08T01:00:00	3	Temperatura mínima	15.6
179644	7	Sololá	716	San Marcos la Laguna 	11	San Marcos la laguna 	3	Marzo	2023-01-03T00:00:00	2024-11-08T01:00:00	5	Humedad	77
179645	7	Sololá	716	San Marcos la Laguna 	11	San Marcos la laguna 	3	Marzo	2023-01-03T00:00:00	2024-11-08T01:00:00	6	Velocidad del viento	6.4
179646	7	Sololá	716	San Marcos la Laguna 	11	San Marcos la laguna 	3	Marzo	2023-01-03T00:00:00	2024-11-08T01:00:00	7	Dirección del viento	6.44
179647	7	Sololá	716	San Marcos la Laguna 	11	San Marcos la laguna 	3	Marzo	2023-01-03T00:00:00	2024-11-08T01:00:00	1	Precipitación	0
179648	7	Sololá	716	San Marcos la Laguna 	11	San Marcos la laguna 	3	Marzo	2023-01-03T00:00:00	2024-11-08T01:00:00	8	Radiación solar	0
179649	7	Sololá	716	San Marcos la Laguna 	11	San Marcos la laguna 	3	Marzo	2023-01-03T00:00:00	2024-11-08T02:00:00	2	Temperatura media	15
179650	7	Sololá	716	San Marcos la Laguna 	11	San Marcos la laguna 	3	Marzo	2023-01-03T00:00:00	2024-11-08T02:00:00	4	Temperatura máxima	15.6
179651	7	Sololá	716	San Marcos la Laguna 	11	San Marcos la laguna 	3	Marzo	2023-01-03T00:00:00	2024-11-08T02:00:00	3	Temperatura mínima	14.9
179652	7	Sololá	716	San Marcos la Laguna 	11	San Marcos la laguna 	3	Marzo	2023-01-03T00:00:00	2024-11-08T02:00:00	5	Humedad	75
179653	7	Sololá	716	San Marcos la Laguna 	11	San Marcos la laguna 	3	Marzo	2023-01-03T00:00:00	2024-11-08T02:00:00	6	Velocidad del viento	6.4
179654	7	Sololá	716	San Marcos la Laguna 	11	San Marcos la laguna 	3	Marzo	2023-01-03T00:00:00	2024-11-08T02:00:00	7	Dirección del viento	6.44
179655	7	Sololá	716	San Marcos la Laguna 	11	San Marcos la laguna 	3	Marzo	2023-01-03T00:00:00	2024-11-08T02:00:00	1	Precipitación	0
179656	7	Sololá	716	San Marcos la Laguna 	11	San Marcos la laguna 	3	Marzo	2023-01-03T00:00:00	2024-11-08T02:00:00	8	Radiación solar	0
179657	7	Sololá	716	San Marcos la Laguna 	11	San Marcos la laguna 	3	Marzo	2023-01-03T00:00:00	2024-11-08T03:00:00	2	Temperatura media	14.3
179658	7	Sololá	716	San Marcos la Laguna 	11	San Marcos la laguna 	3	Marzo	2023-01-03T00:00:00	2024-11-08T03:00:00	4	Temperatura máxima	15.1
179659	7	Sololá	716	San Marcos la Laguna 	11	San Marcos la laguna 	3	Marzo	2023-01-03T00:00:00	2024-11-08T03:00:00	3	Temperatura mínima	14.3
179660	7	Sololá	716	San Marcos la Laguna 	11	San Marcos la laguna 	3	Marzo	2023-01-03T00:00:00	2024-11-08T03:00:00	5	Humedad	79
179661	7	Sololá	716	San Marcos la Laguna 	11	San Marcos la laguna 	3	Marzo	2023-01-03T00:00:00	2024-11-08T03:00:00	6	Velocidad del viento	6.4
179662	7	Sololá	716	San Marcos la Laguna 	11	San Marcos la laguna 	3	Marzo	2023-01-03T00:00:00	2024-11-08T03:00:00	7	Dirección del viento	6.44
179663	7	Sololá	716	San Marcos la Laguna 	11	San Marcos la laguna 	3	Marzo	2023-01-03T00:00:00	2024-11-08T03:00:00	1	Precipitación	0
179664	7	Sololá	716	San Marcos la Laguna 	11	San Marcos la laguna 	3	Marzo	2023-01-03T00:00:00	2024-11-08T03:00:00	8	Radiación solar	0
179665	7	Sololá	716	San Marcos la Laguna 	11	San Marcos la laguna 	3	Marzo	2023-01-03T00:00:00	2024-11-08T04:00:00	2	Temperatura media	13.8
179666	7	Sololá	716	San Marcos la Laguna 	11	San Marcos la laguna 	3	Marzo	2023-01-03T00:00:00	2024-11-08T04:00:00	4	Temperatura máxima	14.3
179667	7	Sololá	716	San Marcos la Laguna 	11	San Marcos la laguna 	3	Marzo	2023-01-03T00:00:00	2024-11-08T04:00:00	3	Temperatura mínima	13.8
179668	7	Sololá	716	San Marcos la Laguna 	11	San Marcos la laguna 	3	Marzo	2023-01-03T00:00:00	2024-11-08T04:00:00	5	Humedad	81
179669	7	Sololá	716	San Marcos la Laguna 	11	San Marcos la laguna 	3	Marzo	2023-01-03T00:00:00	2024-11-08T04:00:00	6	Velocidad del viento	6.4
179670	7	Sololá	716	San Marcos la Laguna 	11	San Marcos la laguna 	3	Marzo	2023-01-03T00:00:00	2024-11-08T04:00:00	7	Dirección del viento	6.44
179671	7	Sololá	716	San Marcos la Laguna 	11	San Marcos la laguna 	3	Marzo	2023-01-03T00:00:00	2024-11-08T04:00:00	1	Precipitación	0
179672	7	Sololá	716	San Marcos la Laguna 	11	San Marcos la laguna 	3	Marzo	2023-01-03T00:00:00	2024-11-08T04:00:00	8	Radiación solar	0
179673	7	Sololá	716	San Marcos la Laguna 	11	San Marcos la laguna 	3	Marzo	2023-01-03T00:00:00	2024-11-08T05:00:00	2	Temperatura media	13.3
179674	7	Sololá	716	San Marcos la Laguna 	11	San Marcos la laguna 	3	Marzo	2023-01-03T00:00:00	2024-11-08T05:00:00	4	Temperatura máxima	13.8
179675	7	Sololá	716	San Marcos la Laguna 	11	San Marcos la laguna 	3	Marzo	2023-01-03T00:00:00	2024-11-08T05:00:00	3	Temperatura mínima	13.3
179676	7	Sololá	716	San Marcos la Laguna 	11	San Marcos la laguna 	3	Marzo	2023-01-03T00:00:00	2024-11-08T05:00:00	5	Humedad	80
179677	7	Sololá	716	San Marcos la Laguna 	11	San Marcos la laguna 	3	Marzo	2023-01-03T00:00:00	2024-11-08T05:00:00	6	Velocidad del viento	6.4
179678	7	Sololá	716	San Marcos la Laguna 	11	San Marcos la laguna 	3	Marzo	2023-01-03T00:00:00	2024-11-08T05:00:00	7	Dirección del viento	6.44
179679	7	Sololá	716	San Marcos la Laguna 	11	San Marcos la laguna 	3	Marzo	2023-01-03T00:00:00	2024-11-08T05:00:00	1	Precipitación	0
179680	7	Sololá	716	San Marcos la Laguna 	11	San Marcos la laguna 	3	Marzo	2023-01-03T00:00:00	2024-11-08T05:00:00	8	Radiación solar	0
179681	7	Sololá	716	San Marcos la Laguna 	11	San Marcos la laguna 	3	Marzo	2023-01-03T00:00:00	2024-11-08T06:00:00	2	Temperatura media	13.1
179682	7	Sololá	716	San Marcos la Laguna 	11	San Marcos la laguna 	3	Marzo	2023-01-03T00:00:00	2024-11-08T06:00:00	4	Temperatura máxima	13.4
179683	7	Sololá	716	San Marcos la Laguna 	11	San Marcos la laguna 	3	Marzo	2023-01-03T00:00:00	2024-11-08T06:00:00	3	Temperatura mínima	13.1
179684	7	Sololá	716	San Marcos la Laguna 	11	San Marcos la laguna 	3	Marzo	2023-01-03T00:00:00	2024-11-08T06:00:00	5	Humedad	77
179685	7	Sololá	716	San Marcos la Laguna 	11	San Marcos la laguna 	3	Marzo	2023-01-03T00:00:00	2024-11-08T06:00:00	6	Velocidad del viento	6.4
179686	7	Sololá	716	San Marcos la Laguna 	11	San Marcos la laguna 	3	Marzo	2023-01-03T00:00:00	2024-11-08T06:00:00	7	Dirección del viento	6.44
179687	7	Sololá	716	San Marcos la Laguna 	11	San Marcos la laguna 	3	Marzo	2023-01-03T00:00:00	2024-11-08T06:00:00	1	Precipitación	0
179688	7	Sololá	716	San Marcos la Laguna 	11	San Marcos la laguna 	3	Marzo	2023-01-03T00:00:00	2024-11-08T06:00:00	8	Radiación solar	0
179689	7	Sololá	716	San Marcos la Laguna 	11	San Marcos la laguna 	3	Marzo	2023-01-03T00:00:00	2024-11-08T07:00:00	2	Temperatura media	13.1
179690	7	Sololá	716	San Marcos la Laguna 	11	San Marcos la laguna 	3	Marzo	2023-01-03T00:00:00	2024-11-08T07:00:00	4	Temperatura máxima	13.2
179691	7	Sololá	716	San Marcos la Laguna 	11	San Marcos la laguna 	3	Marzo	2023-01-03T00:00:00	2024-11-08T07:00:00	3	Temperatura mínima	12.7
179692	7	Sololá	716	San Marcos la Laguna 	11	San Marcos la laguna 	3	Marzo	2023-01-03T00:00:00	2024-11-08T07:00:00	5	Humedad	77
179693	7	Sololá	716	San Marcos la Laguna 	11	San Marcos la laguna 	3	Marzo	2023-01-03T00:00:00	2024-11-08T07:00:00	6	Velocidad del viento	6.4
179694	7	Sololá	716	San Marcos la Laguna 	11	San Marcos la laguna 	3	Marzo	2023-01-03T00:00:00	2024-11-08T07:00:00	7	Dirección del viento	6.44
179695	7	Sololá	716	San Marcos la Laguna 	11	San Marcos la laguna 	3	Marzo	2023-01-03T00:00:00	2024-11-08T07:00:00	1	Precipitación	0
179696	7	Sololá	716	San Marcos la Laguna 	11	San Marcos la laguna 	3	Marzo	2023-01-03T00:00:00	2024-11-08T07:00:00	8	Radiación solar	43
179697	7	Sololá	716	San Marcos la Laguna 	11	San Marcos la laguna 	3	Marzo	2023-01-03T00:00:00	2024-11-08T08:00:00	2	Temperatura media	17.2
179698	7	Sololá	716	San Marcos la Laguna 	11	San Marcos la laguna 	3	Marzo	2023-01-03T00:00:00	2024-11-08T08:00:00	4	Temperatura máxima	17.2
179699	7	Sololá	716	San Marcos la Laguna 	11	San Marcos la laguna 	3	Marzo	2023-01-03T00:00:00	2024-11-08T08:00:00	3	Temperatura mínima	13.2
179700	7	Sololá	716	San Marcos la Laguna 	11	San Marcos la laguna 	3	Marzo	2023-01-03T00:00:00	2024-11-08T08:00:00	5	Humedad	72
179701	7	Sololá	716	San Marcos la Laguna 	11	San Marcos la laguna 	3	Marzo	2023-01-03T00:00:00	2024-11-08T08:00:00	6	Velocidad del viento	4.8
179702	7	Sololá	716	San Marcos la Laguna 	11	San Marcos la laguna 	3	Marzo	2023-01-03T00:00:00	2024-11-08T08:00:00	7	Dirección del viento	4.83
179703	7	Sololá	716	San Marcos la Laguna 	11	San Marcos la laguna 	3	Marzo	2023-01-03T00:00:00	2024-11-08T08:00:00	1	Precipitación	0
179704	7	Sololá	716	San Marcos la Laguna 	11	San Marcos la laguna 	3	Marzo	2023-01-03T00:00:00	2024-11-08T08:00:00	8	Radiación solar	215
179705	7	Sololá	716	San Marcos la Laguna 	11	San Marcos la laguna 	3	Marzo	2023-01-03T00:00:00	2024-11-08T09:00:00	2	Temperatura media	19.1
179706	7	Sololá	716	San Marcos la Laguna 	11	San Marcos la laguna 	3	Marzo	2023-01-03T00:00:00	2024-11-08T09:00:00	4	Temperatura máxima	19.2
179707	7	Sololá	716	San Marcos la Laguna 	11	San Marcos la laguna 	3	Marzo	2023-01-03T00:00:00	2024-11-08T09:00:00	3	Temperatura mínima	17.2
179708	7	Sololá	716	San Marcos la Laguna 	11	San Marcos la laguna 	3	Marzo	2023-01-03T00:00:00	2024-11-08T09:00:00	5	Humedad	72
179709	7	Sololá	716	San Marcos la Laguna 	11	San Marcos la laguna 	3	Marzo	2023-01-03T00:00:00	2024-11-08T09:00:00	6	Velocidad del viento	3.2
179710	7	Sololá	716	San Marcos la Laguna 	11	San Marcos la laguna 	3	Marzo	2023-01-03T00:00:00	2024-11-08T09:00:00	7	Dirección del viento	3.22
179711	7	Sololá	716	San Marcos la Laguna 	11	San Marcos la laguna 	3	Marzo	2023-01-03T00:00:00	2024-11-08T09:00:00	1	Precipitación	0
179712	7	Sololá	716	San Marcos la Laguna 	11	San Marcos la laguna 	3	Marzo	2023-01-03T00:00:00	2024-11-08T09:00:00	8	Radiación solar	459
179713	7	Sololá	716	San Marcos la Laguna 	11	San Marcos la laguna 	3	Marzo	2023-01-03T00:00:00	2024-11-08T10:00:00	2	Temperatura media	20.2
179714	7	Sololá	716	San Marcos la Laguna 	11	San Marcos la laguna 	3	Marzo	2023-01-03T00:00:00	2024-11-08T10:00:00	4	Temperatura máxima	20.4
179715	7	Sololá	716	San Marcos la Laguna 	11	San Marcos la laguna 	3	Marzo	2023-01-03T00:00:00	2024-11-08T10:00:00	3	Temperatura mínima	19.1
179716	7	Sololá	716	San Marcos la Laguna 	11	San Marcos la laguna 	3	Marzo	2023-01-03T00:00:00	2024-11-08T10:00:00	5	Humedad	70
179717	7	Sololá	716	San Marcos la Laguna 	11	San Marcos la laguna 	3	Marzo	2023-01-03T00:00:00	2024-11-08T10:00:00	6	Velocidad del viento	4.8
179718	7	Sololá	716	San Marcos la Laguna 	11	San Marcos la laguna 	3	Marzo	2023-01-03T00:00:00	2024-11-08T10:00:00	7	Dirección del viento	4.83
179719	7	Sololá	716	San Marcos la Laguna 	11	San Marcos la laguna 	3	Marzo	2023-01-03T00:00:00	2024-11-08T10:00:00	1	Precipitación	0
179720	7	Sololá	716	San Marcos la Laguna 	11	San Marcos la laguna 	3	Marzo	2023-01-03T00:00:00	2024-11-08T10:00:00	8	Radiación solar	698
179721	7	Sololá	716	San Marcos la Laguna 	11	San Marcos la laguna 	3	Marzo	2023-01-03T00:00:00	2024-11-08T11:00:00	2	Temperatura media	21.4
179722	7	Sololá	716	San Marcos la Laguna 	11	San Marcos la laguna 	3	Marzo	2023-01-03T00:00:00	2024-11-08T11:00:00	4	Temperatura máxima	21.4
179723	7	Sololá	716	San Marcos la Laguna 	11	San Marcos la laguna 	3	Marzo	2023-01-03T00:00:00	2024-11-08T11:00:00	3	Temperatura mínima	20.2
179724	7	Sololá	716	San Marcos la Laguna 	11	San Marcos la laguna 	3	Marzo	2023-01-03T00:00:00	2024-11-08T11:00:00	5	Humedad	65
179725	7	Sololá	716	San Marcos la Laguna 	11	San Marcos la laguna 	3	Marzo	2023-01-03T00:00:00	2024-11-08T11:00:00	6	Velocidad del viento	6.4
179726	7	Sololá	716	San Marcos la Laguna 	11	San Marcos la laguna 	3	Marzo	2023-01-03T00:00:00	2024-11-08T11:00:00	7	Dirección del viento	6.44
179727	7	Sololá	716	San Marcos la Laguna 	11	San Marcos la laguna 	3	Marzo	2023-01-03T00:00:00	2024-11-08T11:00:00	1	Precipitación	0
179728	7	Sololá	716	San Marcos la Laguna 	11	San Marcos la laguna 	3	Marzo	2023-01-03T00:00:00	2024-11-08T11:00:00	8	Radiación solar	874
179729	7	Sololá	716	San Marcos la Laguna 	11	San Marcos la laguna 	3	Marzo	2023-01-03T00:00:00	2024-11-08T12:00:00	2	Temperatura media	21.6
179730	7	Sololá	716	San Marcos la Laguna 	11	San Marcos la laguna 	3	Marzo	2023-01-03T00:00:00	2024-11-08T12:00:00	4	Temperatura máxima	21.7
179731	7	Sololá	716	San Marcos la Laguna 	11	San Marcos la laguna 	3	Marzo	2023-01-03T00:00:00	2024-11-08T12:00:00	3	Temperatura mínima	21.3
179732	7	Sololá	716	San Marcos la Laguna 	11	San Marcos la laguna 	3	Marzo	2023-01-03T00:00:00	2024-11-08T12:00:00	5	Humedad	75
179733	7	Sololá	716	San Marcos la Laguna 	11	San Marcos la laguna 	3	Marzo	2023-01-03T00:00:00	2024-11-08T12:00:00	6	Velocidad del viento	11.3
179734	7	Sololá	716	San Marcos la Laguna 	11	San Marcos la laguna 	3	Marzo	2023-01-03T00:00:00	2024-11-08T12:00:00	7	Dirección del viento	11.27
179735	7	Sololá	716	San Marcos la Laguna 	11	San Marcos la laguna 	3	Marzo	2023-01-03T00:00:00	2024-11-08T12:00:00	1	Precipitación	0
179736	7	Sololá	716	San Marcos la Laguna 	11	San Marcos la laguna 	3	Marzo	2023-01-03T00:00:00	2024-11-08T12:00:00	8	Radiación solar	661
179737	7	Sololá	716	San Marcos la Laguna 	11	San Marcos la laguna 	3	Marzo	2023-01-03T00:00:00	2024-11-08T13:00:00	2	Temperatura media	21.8
179738	7	Sololá	716	San Marcos la Laguna 	11	San Marcos la laguna 	3	Marzo	2023-01-03T00:00:00	2024-11-08T13:00:00	4	Temperatura máxima	21.9
179739	7	Sololá	716	San Marcos la Laguna 	11	San Marcos la laguna 	3	Marzo	2023-01-03T00:00:00	2024-11-08T13:00:00	3	Temperatura mínima	21.4
179740	7	Sololá	716	San Marcos la Laguna 	11	San Marcos la laguna 	3	Marzo	2023-01-03T00:00:00	2024-11-08T13:00:00	5	Humedad	74
179741	7	Sololá	716	San Marcos la Laguna 	11	San Marcos la laguna 	3	Marzo	2023-01-03T00:00:00	2024-11-08T13:00:00	6	Velocidad del viento	14.5
179742	7	Sololá	716	San Marcos la Laguna 	11	San Marcos la laguna 	3	Marzo	2023-01-03T00:00:00	2024-11-08T13:00:00	7	Dirección del viento	14.48
179743	7	Sololá	716	San Marcos la Laguna 	11	San Marcos la laguna 	3	Marzo	2023-01-03T00:00:00	2024-11-08T13:00:00	1	Precipitación	0
179744	7	Sololá	716	San Marcos la Laguna 	11	San Marcos la laguna 	3	Marzo	2023-01-03T00:00:00	2024-11-08T13:00:00	8	Radiación solar	399
179745	7	Sololá	716	San Marcos la Laguna 	11	San Marcos la laguna 	3	Marzo	2023-01-03T00:00:00	2024-11-08T14:00:00	2	Temperatura media	21.8
179746	7	Sololá	716	San Marcos la Laguna 	11	San Marcos la laguna 	3	Marzo	2023-01-03T00:00:00	2024-11-08T14:00:00	4	Temperatura máxima	22.1
179747	7	Sololá	716	San Marcos la Laguna 	11	San Marcos la laguna 	3	Marzo	2023-01-03T00:00:00	2024-11-08T14:00:00	3	Temperatura mínima	21.5
179748	7	Sololá	716	San Marcos la Laguna 	11	San Marcos la laguna 	3	Marzo	2023-01-03T00:00:00	2024-11-08T14:00:00	5	Humedad	73
179749	7	Sololá	716	San Marcos la Laguna 	11	San Marcos la laguna 	3	Marzo	2023-01-03T00:00:00	2024-11-08T14:00:00	6	Velocidad del viento	14.5
179750	7	Sololá	716	San Marcos la Laguna 	11	San Marcos la laguna 	3	Marzo	2023-01-03T00:00:00	2024-11-08T14:00:00	7	Dirección del viento	14.48
179751	7	Sololá	716	San Marcos la Laguna 	11	San Marcos la laguna 	3	Marzo	2023-01-03T00:00:00	2024-11-08T14:00:00	1	Precipitación	0
179752	7	Sololá	716	San Marcos la Laguna 	11	San Marcos la laguna 	3	Marzo	2023-01-03T00:00:00	2024-11-08T14:00:00	8	Radiación solar	365
179753	7	Sololá	716	San Marcos la Laguna 	11	San Marcos la laguna 	3	Marzo	2023-01-03T00:00:00	2024-11-08T15:00:00	2	Temperatura media	21.7
179754	7	Sololá	716	San Marcos la Laguna 	11	San Marcos la laguna 	3	Marzo	2023-01-03T00:00:00	2024-11-08T15:00:00	4	Temperatura máxima	22.3
179755	7	Sololá	716	San Marcos la Laguna 	11	San Marcos la laguna 	3	Marzo	2023-01-03T00:00:00	2024-11-08T15:00:00	3	Temperatura mínima	21.6
179756	7	Sololá	716	San Marcos la Laguna 	11	San Marcos la laguna 	3	Marzo	2023-01-03T00:00:00	2024-11-08T15:00:00	5	Humedad	75
179757	7	Sololá	716	San Marcos la Laguna 	11	San Marcos la laguna 	3	Marzo	2023-01-03T00:00:00	2024-11-08T15:00:00	6	Velocidad del viento	11.3
179758	7	Sololá	716	San Marcos la Laguna 	11	San Marcos la laguna 	3	Marzo	2023-01-03T00:00:00	2024-11-08T15:00:00	7	Dirección del viento	11.27
179759	7	Sololá	716	San Marcos la Laguna 	11	San Marcos la laguna 	3	Marzo	2023-01-03T00:00:00	2024-11-08T15:00:00	1	Precipitación	0
179760	7	Sololá	716	San Marcos la Laguna 	11	San Marcos la laguna 	3	Marzo	2023-01-03T00:00:00	2024-11-08T15:00:00	8	Radiación solar	139
179761	7	Sololá	716	San Marcos la Laguna 	11	San Marcos la laguna 	3	Marzo	2023-01-03T00:00:00	2024-11-08T16:00:00	2	Temperatura media	21.6
179762	7	Sololá	716	San Marcos la Laguna 	11	San Marcos la laguna 	3	Marzo	2023-01-03T00:00:00	2024-11-08T16:00:00	4	Temperatura máxima	21.8
179763	7	Sololá	716	San Marcos la Laguna 	11	San Marcos la laguna 	3	Marzo	2023-01-03T00:00:00	2024-11-08T16:00:00	3	Temperatura mínima	21.6
179764	7	Sololá	716	San Marcos la Laguna 	11	San Marcos la laguna 	3	Marzo	2023-01-03T00:00:00	2024-11-08T16:00:00	5	Humedad	77
179765	7	Sololá	716	San Marcos la Laguna 	11	San Marcos la laguna 	3	Marzo	2023-01-03T00:00:00	2024-11-08T16:00:00	6	Velocidad del viento	9.7
179766	7	Sololá	716	San Marcos la Laguna 	11	San Marcos la laguna 	3	Marzo	2023-01-03T00:00:00	2024-11-08T16:00:00	7	Dirección del viento	9.66
179767	7	Sololá	716	San Marcos la Laguna 	11	San Marcos la laguna 	3	Marzo	2023-01-03T00:00:00	2024-11-08T16:00:00	1	Precipitación	0
179768	7	Sololá	716	San Marcos la Laguna 	11	San Marcos la laguna 	3	Marzo	2023-01-03T00:00:00	2024-11-08T16:00:00	8	Radiación solar	104
179769	7	Sololá	716	San Marcos la Laguna 	11	San Marcos la laguna 	3	Marzo	2023-01-03T00:00:00	2024-11-08T17:00:00	2	Temperatura media	21.1
179770	7	Sololá	716	San Marcos la Laguna 	11	San Marcos la laguna 	3	Marzo	2023-01-03T00:00:00	2024-11-08T17:00:00	4	Temperatura máxima	21.6
179771	7	Sololá	716	San Marcos la Laguna 	11	San Marcos la laguna 	3	Marzo	2023-01-03T00:00:00	2024-11-08T17:00:00	3	Temperatura mínima	20.9
179772	7	Sololá	716	San Marcos la Laguna 	11	San Marcos la laguna 	3	Marzo	2023-01-03T00:00:00	2024-11-08T17:00:00	5	Humedad	79
179773	7	Sololá	716	San Marcos la Laguna 	11	San Marcos la laguna 	3	Marzo	2023-01-03T00:00:00	2024-11-08T17:00:00	6	Velocidad del viento	8
179774	7	Sololá	716	San Marcos la Laguna 	11	San Marcos la laguna 	3	Marzo	2023-01-03T00:00:00	2024-11-08T17:00:00	7	Dirección del viento	8.05
179775	7	Sololá	716	San Marcos la Laguna 	11	San Marcos la laguna 	3	Marzo	2023-01-03T00:00:00	2024-11-08T17:00:00	1	Precipitación	0
179776	7	Sololá	716	San Marcos la Laguna 	11	San Marcos la laguna 	3	Marzo	2023-01-03T00:00:00	2024-11-08T17:00:00	8	Radiación solar	108
179777	7	Sololá	716	San Marcos la Laguna 	11	San Marcos la laguna 	3	Marzo	2023-01-03T00:00:00	2024-11-08T18:00:00	2	Temperatura media	20.3
179778	7	Sololá	716	San Marcos la Laguna 	11	San Marcos la laguna 	3	Marzo	2023-01-03T00:00:00	2024-11-08T18:00:00	4	Temperatura máxima	21.1
179779	7	Sololá	716	San Marcos la Laguna 	11	San Marcos la laguna 	3	Marzo	2023-01-03T00:00:00	2024-11-08T18:00:00	3	Temperatura mínima	20.3
179780	7	Sololá	716	San Marcos la Laguna 	11	San Marcos la laguna 	3	Marzo	2023-01-03T00:00:00	2024-11-08T18:00:00	5	Humedad	83
179781	7	Sololá	716	San Marcos la Laguna 	11	San Marcos la laguna 	3	Marzo	2023-01-03T00:00:00	2024-11-08T18:00:00	6	Velocidad del viento	6.4
179782	7	Sololá	716	San Marcos la Laguna 	11	San Marcos la laguna 	3	Marzo	2023-01-03T00:00:00	2024-11-08T18:00:00	7	Dirección del viento	6.44
179783	7	Sololá	716	San Marcos la Laguna 	11	San Marcos la laguna 	3	Marzo	2023-01-03T00:00:00	2024-11-08T18:00:00	1	Precipitación	0
179784	7	Sololá	716	San Marcos la Laguna 	11	San Marcos la laguna 	3	Marzo	2023-01-03T00:00:00	2024-11-08T18:00:00	8	Radiación solar	27
179785	7	Sololá	716	San Marcos la Laguna 	11	San Marcos la laguna 	3	Marzo	2023-01-03T00:00:00	2024-11-08T19:00:00	2	Temperatura media	19.6
179786	7	Sololá	716	San Marcos la Laguna 	11	San Marcos la laguna 	3	Marzo	2023-01-03T00:00:00	2024-11-08T19:00:00	4	Temperatura máxima	20.3
179787	7	Sololá	716	San Marcos la Laguna 	11	San Marcos la laguna 	3	Marzo	2023-01-03T00:00:00	2024-11-08T19:00:00	3	Temperatura mínima	19.6
179788	7	Sololá	716	San Marcos la Laguna 	11	San Marcos la laguna 	3	Marzo	2023-01-03T00:00:00	2024-11-08T19:00:00	5	Humedad	83
179789	7	Sololá	716	San Marcos la Laguna 	11	San Marcos la laguna 	3	Marzo	2023-01-03T00:00:00	2024-11-08T19:00:00	6	Velocidad del viento	3.2
179790	7	Sololá	716	San Marcos la Laguna 	11	San Marcos la laguna 	3	Marzo	2023-01-03T00:00:00	2024-11-08T19:00:00	7	Dirección del viento	3.22
179791	7	Sololá	716	San Marcos la Laguna 	11	San Marcos la laguna 	3	Marzo	2023-01-03T00:00:00	2024-11-08T19:00:00	1	Precipitación	0
179792	7	Sololá	716	San Marcos la Laguna 	11	San Marcos la laguna 	3	Marzo	2023-01-03T00:00:00	2024-11-08T19:00:00	8	Radiación solar	0
179793	7	Sololá	716	San Marcos la Laguna 	11	San Marcos la laguna 	3	Marzo	2023-01-03T00:00:00	2024-11-08T20:00:00	2	Temperatura media	19.6
179794	7	Sololá	716	San Marcos la Laguna 	11	San Marcos la laguna 	3	Marzo	2023-01-03T00:00:00	2024-11-08T20:00:00	4	Temperatura máxima	19.8
179795	7	Sololá	716	San Marcos la Laguna 	11	San Marcos la laguna 	3	Marzo	2023-01-03T00:00:00	2024-11-08T20:00:00	3	Temperatura mínima	19.5
179796	7	Sololá	716	San Marcos la Laguna 	11	San Marcos la laguna 	3	Marzo	2023-01-03T00:00:00	2024-11-08T20:00:00	5	Humedad	80
179797	7	Sololá	716	San Marcos la Laguna 	11	San Marcos la laguna 	3	Marzo	2023-01-03T00:00:00	2024-11-08T20:00:00	6	Velocidad del viento	1.6
179798	7	Sololá	716	San Marcos la Laguna 	11	San Marcos la laguna 	3	Marzo	2023-01-03T00:00:00	2024-11-08T20:00:00	7	Dirección del viento	1.61
179799	7	Sololá	716	San Marcos la Laguna 	11	San Marcos la laguna 	3	Marzo	2023-01-03T00:00:00	2024-11-08T20:00:00	1	Precipitación	0
179800	7	Sololá	716	San Marcos la Laguna 	11	San Marcos la laguna 	3	Marzo	2023-01-03T00:00:00	2024-11-08T20:00:00	8	Radiación solar	0
179801	7	Sololá	716	San Marcos la Laguna 	11	San Marcos la laguna 	3	Marzo	2023-01-03T00:00:00	2024-11-08T21:00:00	2	Temperatura media	18.3
179802	7	Sololá	716	San Marcos la Laguna 	11	San Marcos la laguna 	3	Marzo	2023-01-03T00:00:00	2024-11-08T21:00:00	4	Temperatura máxima	19.6
179803	7	Sololá	716	San Marcos la Laguna 	11	San Marcos la laguna 	3	Marzo	2023-01-03T00:00:00	2024-11-08T21:00:00	3	Temperatura mínima	18.3
179804	7	Sololá	716	San Marcos la Laguna 	11	San Marcos la laguna 	3	Marzo	2023-01-03T00:00:00	2024-11-08T21:00:00	5	Humedad	82
179805	7	Sololá	716	San Marcos la Laguna 	11	San Marcos la laguna 	3	Marzo	2023-01-03T00:00:00	2024-11-08T21:00:00	6	Velocidad del viento	4.8
179806	7	Sololá	716	San Marcos la Laguna 	11	San Marcos la laguna 	3	Marzo	2023-01-03T00:00:00	2024-11-08T21:00:00	7	Dirección del viento	4.83
179807	7	Sololá	716	San Marcos la Laguna 	11	San Marcos la laguna 	3	Marzo	2023-01-03T00:00:00	2024-11-08T21:00:00	1	Precipitación	0
179808	7	Sololá	716	San Marcos la Laguna 	11	San Marcos la laguna 	3	Marzo	2023-01-03T00:00:00	2024-11-08T21:00:00	8	Radiación solar	0
179809	7	Sololá	716	San Marcos la Laguna 	11	San Marcos la laguna 	3	Marzo	2023-01-03T00:00:00	2024-11-08T22:00:00	2	Temperatura media	17.8
179810	7	Sololá	716	San Marcos la Laguna 	11	San Marcos la laguna 	3	Marzo	2023-01-03T00:00:00	2024-11-08T22:00:00	4	Temperatura máxima	18.3
179811	7	Sololá	716	San Marcos la Laguna 	11	San Marcos la laguna 	3	Marzo	2023-01-03T00:00:00	2024-11-08T22:00:00	3	Temperatura mínima	17.4
179812	7	Sololá	716	San Marcos la Laguna 	11	San Marcos la laguna 	3	Marzo	2023-01-03T00:00:00	2024-11-08T22:00:00	5	Humedad	83
179813	7	Sololá	716	San Marcos la Laguna 	11	San Marcos la laguna 	3	Marzo	2023-01-03T00:00:00	2024-11-08T22:00:00	6	Velocidad del viento	4.8
179814	7	Sololá	716	San Marcos la Laguna 	11	San Marcos la laguna 	3	Marzo	2023-01-03T00:00:00	2024-11-08T22:00:00	7	Dirección del viento	4.83
179815	7	Sololá	716	San Marcos la Laguna 	11	San Marcos la laguna 	3	Marzo	2023-01-03T00:00:00	2024-11-08T22:00:00	1	Precipitación	0
179816	7	Sololá	716	San Marcos la Laguna 	11	San Marcos la laguna 	3	Marzo	2023-01-03T00:00:00	2024-11-08T22:00:00	8	Radiación solar	0
179817	7	Sololá	716	San Marcos la Laguna 	11	San Marcos la laguna 	3	Marzo	2023-01-03T00:00:00	2024-11-08T23:00:00	2	Temperatura media	17.3
179818	7	Sololá	716	San Marcos la Laguna 	11	San Marcos la laguna 	3	Marzo	2023-01-03T00:00:00	2024-11-08T23:00:00	4	Temperatura máxima	17.8
179819	7	Sololá	716	San Marcos la Laguna 	11	San Marcos la laguna 	3	Marzo	2023-01-03T00:00:00	2024-11-08T23:00:00	3	Temperatura mínima	17.2
179820	7	Sololá	716	San Marcos la Laguna 	11	San Marcos la laguna 	3	Marzo	2023-01-03T00:00:00	2024-11-08T23:00:00	5	Humedad	82
179821	7	Sololá	716	San Marcos la Laguna 	11	San Marcos la laguna 	3	Marzo	2023-01-03T00:00:00	2024-11-08T23:00:00	6	Velocidad del viento	6.4
179822	7	Sololá	716	San Marcos la Laguna 	11	San Marcos la laguna 	3	Marzo	2023-01-03T00:00:00	2024-11-08T23:00:00	7	Dirección del viento	6.44
179823	7	Sololá	716	San Marcos la Laguna 	11	San Marcos la laguna 	3	Marzo	2023-01-03T00:00:00	2024-11-08T23:00:00	1	Precipitación	0
179824	7	Sololá	716	San Marcos la Laguna 	11	San Marcos la laguna 	3	Marzo	2023-01-03T00:00:00	2024-11-08T23:00:00	8	Radiación solar	0
179825	7	Sololá	716	San Marcos la Laguna 	11	San Marcos la laguna 	3	Marzo	2023-02-03T00:00:00	2024-11-08T00:00:00	2	Temperatura media	17.3
179826	7	Sololá	716	San Marcos la Laguna 	11	San Marcos la laguna 	3	Marzo	2023-02-03T00:00:00	2024-11-08T00:00:00	4	Temperatura máxima	17.3
179827	7	Sololá	716	San Marcos la Laguna 	11	San Marcos la laguna 	3	Marzo	2023-02-03T00:00:00	2024-11-08T00:00:00	3	Temperatura mínima	16.9
179828	7	Sololá	716	San Marcos la Laguna 	11	San Marcos la laguna 	3	Marzo	2023-02-03T00:00:00	2024-11-08T00:00:00	5	Humedad	83
179829	7	Sololá	716	San Marcos la Laguna 	11	San Marcos la laguna 	3	Marzo	2023-02-03T00:00:00	2024-11-08T00:00:00	6	Velocidad del viento	6.4
179830	7	Sololá	716	San Marcos la Laguna 	11	San Marcos la laguna 	3	Marzo	2023-02-03T00:00:00	2024-11-08T00:00:00	7	Dirección del viento	6.44
179831	7	Sololá	716	San Marcos la Laguna 	11	San Marcos la laguna 	3	Marzo	2023-02-03T00:00:00	2024-11-08T00:00:00	1	Precipitación	0
179832	7	Sololá	716	San Marcos la Laguna 	11	San Marcos la laguna 	3	Marzo	2023-02-03T00:00:00	2024-11-08T00:00:00	8	Radiación solar	0
179833	7	Sololá	716	San Marcos la Laguna 	11	San Marcos la laguna 	3	Marzo	2023-02-03T00:00:00	2024-11-08T01:00:00	2	Temperatura media	17.9
179834	7	Sololá	716	San Marcos la Laguna 	11	San Marcos la laguna 	3	Marzo	2023-02-03T00:00:00	2024-11-08T01:00:00	4	Temperatura máxima	18
179835	7	Sololá	716	San Marcos la Laguna 	11	San Marcos la laguna 	3	Marzo	2023-02-03T00:00:00	2024-11-08T01:00:00	3	Temperatura mínima	17.3
179836	7	Sololá	716	San Marcos la Laguna 	11	San Marcos la laguna 	3	Marzo	2023-02-03T00:00:00	2024-11-08T01:00:00	5	Humedad	83
179837	7	Sololá	716	San Marcos la Laguna 	11	San Marcos la laguna 	3	Marzo	2023-02-03T00:00:00	2024-11-08T01:00:00	6	Velocidad del viento	1.6
179838	7	Sololá	716	San Marcos la Laguna 	11	San Marcos la laguna 	3	Marzo	2023-02-03T00:00:00	2024-11-08T01:00:00	7	Dirección del viento	1.61
179839	7	Sololá	716	San Marcos la Laguna 	11	San Marcos la laguna 	3	Marzo	2023-02-03T00:00:00	2024-11-08T01:00:00	1	Precipitación	0
179840	7	Sololá	716	San Marcos la Laguna 	11	San Marcos la laguna 	3	Marzo	2023-02-03T00:00:00	2024-11-08T01:00:00	8	Radiación solar	0
179841	7	Sololá	716	San Marcos la Laguna 	11	San Marcos la laguna 	3	Marzo	2023-02-03T00:00:00	2024-11-08T02:00:00	2	Temperatura media	16.7
179842	7	Sololá	716	San Marcos la Laguna 	11	San Marcos la laguna 	3	Marzo	2023-02-03T00:00:00	2024-11-08T02:00:00	4	Temperatura máxima	18
179843	7	Sololá	716	San Marcos la Laguna 	11	San Marcos la laguna 	3	Marzo	2023-02-03T00:00:00	2024-11-08T02:00:00	3	Temperatura mínima	16.7
179844	7	Sololá	716	San Marcos la Laguna 	11	San Marcos la laguna 	3	Marzo	2023-02-03T00:00:00	2024-11-08T02:00:00	5	Humedad	87
179845	7	Sololá	716	San Marcos la Laguna 	11	San Marcos la laguna 	3	Marzo	2023-02-03T00:00:00	2024-11-08T02:00:00	6	Velocidad del viento	3.2
179846	7	Sololá	716	San Marcos la Laguna 	11	San Marcos la laguna 	3	Marzo	2023-02-03T00:00:00	2024-11-08T02:00:00	7	Dirección del viento	3.22
179847	7	Sololá	716	San Marcos la Laguna 	11	San Marcos la laguna 	3	Marzo	2023-02-03T00:00:00	2024-11-08T02:00:00	1	Precipitación	0
179848	7	Sololá	716	San Marcos la Laguna 	11	San Marcos la laguna 	3	Marzo	2023-02-03T00:00:00	2024-11-08T02:00:00	8	Radiación solar	0
179849	7	Sololá	716	San Marcos la Laguna 	11	San Marcos la laguna 	3	Marzo	2023-02-03T00:00:00	2024-11-08T03:00:00	2	Temperatura media	16.4
179850	7	Sololá	716	San Marcos la Laguna 	11	San Marcos la laguna 	3	Marzo	2023-02-03T00:00:00	2024-11-08T03:00:00	4	Temperatura máxima	16.7
179851	7	Sololá	716	San Marcos la Laguna 	11	San Marcos la laguna 	3	Marzo	2023-02-03T00:00:00	2024-11-08T03:00:00	3	Temperatura mínima	16.2
179852	7	Sololá	716	San Marcos la Laguna 	11	San Marcos la laguna 	3	Marzo	2023-02-03T00:00:00	2024-11-08T03:00:00	5	Humedad	86
179853	7	Sololá	716	San Marcos la Laguna 	11	San Marcos la laguna 	3	Marzo	2023-02-03T00:00:00	2024-11-08T03:00:00	6	Velocidad del viento	6.4
179854	7	Sololá	716	San Marcos la Laguna 	11	San Marcos la laguna 	3	Marzo	2023-02-03T00:00:00	2024-11-08T03:00:00	7	Dirección del viento	6.44
179855	7	Sololá	716	San Marcos la Laguna 	11	San Marcos la laguna 	3	Marzo	2023-02-03T00:00:00	2024-11-08T03:00:00	1	Precipitación	0
179856	7	Sololá	716	San Marcos la Laguna 	11	San Marcos la laguna 	3	Marzo	2023-02-03T00:00:00	2024-11-08T03:00:00	8	Radiación solar	0
179857	7	Sololá	716	San Marcos la Laguna 	11	San Marcos la laguna 	3	Marzo	2023-02-03T00:00:00	2024-11-08T04:00:00	2	Temperatura media	16.9
179858	7	Sololá	716	San Marcos la Laguna 	11	San Marcos la laguna 	3	Marzo	2023-02-03T00:00:00	2024-11-08T04:00:00	4	Temperatura máxima	16.9
179859	7	Sololá	716	San Marcos la Laguna 	11	San Marcos la laguna 	3	Marzo	2023-02-03T00:00:00	2024-11-08T04:00:00	3	Temperatura mínima	16.3
179860	7	Sololá	716	San Marcos la Laguna 	11	San Marcos la laguna 	3	Marzo	2023-02-03T00:00:00	2024-11-08T04:00:00	5	Humedad	83
179861	7	Sololá	716	San Marcos la Laguna 	11	San Marcos la laguna 	3	Marzo	2023-02-03T00:00:00	2024-11-08T04:00:00	6	Velocidad del viento	6.4
179862	7	Sololá	716	San Marcos la Laguna 	11	San Marcos la laguna 	3	Marzo	2023-02-03T00:00:00	2024-11-08T04:00:00	7	Dirección del viento	6.44
179863	7	Sololá	716	San Marcos la Laguna 	11	San Marcos la laguna 	3	Marzo	2023-02-03T00:00:00	2024-11-08T04:00:00	1	Precipitación	0
179864	7	Sololá	716	San Marcos la Laguna 	11	San Marcos la laguna 	3	Marzo	2023-02-03T00:00:00	2024-11-08T04:00:00	8	Radiación solar	0
179865	7	Sololá	716	San Marcos la Laguna 	11	San Marcos la laguna 	3	Marzo	2023-02-03T00:00:00	2024-11-08T05:00:00	2	Temperatura media	16.1
179866	7	Sololá	716	San Marcos la Laguna 	11	San Marcos la laguna 	3	Marzo	2023-02-03T00:00:00	2024-11-08T05:00:00	4	Temperatura máxima	16.9
179867	7	Sololá	716	San Marcos la Laguna 	11	San Marcos la laguna 	3	Marzo	2023-02-03T00:00:00	2024-11-08T05:00:00	3	Temperatura mínima	15.9
179868	7	Sololá	716	San Marcos la Laguna 	11	San Marcos la laguna 	3	Marzo	2023-02-03T00:00:00	2024-11-08T05:00:00	5	Humedad	85
179869	7	Sololá	716	San Marcos la Laguna 	11	San Marcos la laguna 	3	Marzo	2023-02-03T00:00:00	2024-11-08T05:00:00	6	Velocidad del viento	4.8
179870	7	Sololá	716	San Marcos la Laguna 	11	San Marcos la laguna 	3	Marzo	2023-02-03T00:00:00	2024-11-08T05:00:00	7	Dirección del viento	4.83
179871	7	Sololá	716	San Marcos la Laguna 	11	San Marcos la laguna 	3	Marzo	2023-02-03T00:00:00	2024-11-08T05:00:00	1	Precipitación	0
179872	7	Sololá	716	San Marcos la Laguna 	11	San Marcos la laguna 	3	Marzo	2023-02-03T00:00:00	2024-11-08T05:00:00	8	Radiación solar	0
179873	7	Sololá	716	San Marcos la Laguna 	11	San Marcos la laguna 	3	Marzo	2023-02-03T00:00:00	2024-11-08T06:00:00	2	Temperatura media	16.3
179874	7	Sololá	716	San Marcos la Laguna 	11	San Marcos la laguna 	3	Marzo	2023-02-03T00:00:00	2024-11-08T06:00:00	4	Temperatura máxima	16.4
179875	7	Sololá	716	San Marcos la Laguna 	11	San Marcos la laguna 	3	Marzo	2023-02-03T00:00:00	2024-11-08T06:00:00	3	Temperatura mínima	16.1
179876	7	Sololá	716	San Marcos la Laguna 	11	San Marcos la laguna 	3	Marzo	2023-02-03T00:00:00	2024-11-08T06:00:00	5	Humedad	85
179877	7	Sololá	716	San Marcos la Laguna 	11	San Marcos la laguna 	3	Marzo	2023-02-03T00:00:00	2024-11-08T06:00:00	6	Velocidad del viento	4.8
179878	7	Sololá	716	San Marcos la Laguna 	11	San Marcos la laguna 	3	Marzo	2023-02-03T00:00:00	2024-11-08T06:00:00	7	Dirección del viento	4.83
179879	7	Sololá	716	San Marcos la Laguna 	11	San Marcos la laguna 	3	Marzo	2023-02-03T00:00:00	2024-11-08T06:00:00	1	Precipitación	0
179880	7	Sololá	716	San Marcos la Laguna 	11	San Marcos la laguna 	3	Marzo	2023-02-03T00:00:00	2024-11-08T06:00:00	8	Radiación solar	0
179881	7	Sololá	716	San Marcos la Laguna 	11	San Marcos la laguna 	3	Marzo	2023-02-03T00:00:00	2024-11-08T07:00:00	2	Temperatura media	16.9
179882	7	Sololá	716	San Marcos la Laguna 	11	San Marcos la laguna 	3	Marzo	2023-02-03T00:00:00	2024-11-08T07:00:00	4	Temperatura máxima	16.9
179883	7	Sololá	716	San Marcos la Laguna 	11	San Marcos la laguna 	3	Marzo	2023-02-03T00:00:00	2024-11-08T07:00:00	3	Temperatura mínima	16
179884	7	Sololá	716	San Marcos la Laguna 	11	San Marcos la laguna 	3	Marzo	2023-02-03T00:00:00	2024-11-08T07:00:00	5	Humedad	78
179885	7	Sololá	716	San Marcos la Laguna 	11	San Marcos la laguna 	3	Marzo	2023-02-03T00:00:00	2024-11-08T07:00:00	6	Velocidad del viento	6.4
179886	7	Sololá	716	San Marcos la Laguna 	11	San Marcos la laguna 	3	Marzo	2023-02-03T00:00:00	2024-11-08T07:00:00	7	Dirección del viento	6.44
179887	7	Sololá	716	San Marcos la Laguna 	11	San Marcos la laguna 	3	Marzo	2023-02-03T00:00:00	2024-11-08T07:00:00	1	Precipitación	0
179888	7	Sololá	716	San Marcos la Laguna 	11	San Marcos la laguna 	3	Marzo	2023-02-03T00:00:00	2024-11-08T07:00:00	8	Radiación solar	5
179889	7	Sololá	716	San Marcos la Laguna 	11	San Marcos la laguna 	3	Marzo	2023-02-03T00:00:00	2024-11-08T08:00:00	2	Temperatura media	19.2
179890	7	Sololá	716	San Marcos la Laguna 	11	San Marcos la laguna 	3	Marzo	2023-02-03T00:00:00	2024-11-08T08:00:00	4	Temperatura máxima	19.2
179891	7	Sololá	716	San Marcos la Laguna 	11	San Marcos la laguna 	3	Marzo	2023-02-03T00:00:00	2024-11-08T08:00:00	3	Temperatura mínima	16.9
179892	7	Sololá	716	San Marcos la Laguna 	11	San Marcos la laguna 	3	Marzo	2023-02-03T00:00:00	2024-11-08T08:00:00	5	Humedad	78
179893	7	Sololá	716	San Marcos la Laguna 	11	San Marcos la laguna 	3	Marzo	2023-02-03T00:00:00	2024-11-08T08:00:00	6	Velocidad del viento	3.2
179894	7	Sololá	716	San Marcos la Laguna 	11	San Marcos la laguna 	3	Marzo	2023-02-03T00:00:00	2024-11-08T08:00:00	7	Dirección del viento	3.22
179895	7	Sololá	716	San Marcos la Laguna 	11	San Marcos la laguna 	3	Marzo	2023-02-03T00:00:00	2024-11-08T08:00:00	1	Precipitación	0
179896	7	Sololá	716	San Marcos la Laguna 	11	San Marcos la laguna 	3	Marzo	2023-02-03T00:00:00	2024-11-08T08:00:00	8	Radiación solar	80
179897	7	Sololá	716	San Marcos la Laguna 	11	San Marcos la laguna 	3	Marzo	2023-02-03T00:00:00	2024-11-08T09:00:00	2	Temperatura media	20.4
179898	7	Sololá	716	San Marcos la Laguna 	11	San Marcos la laguna 	3	Marzo	2023-02-03T00:00:00	2024-11-08T09:00:00	4	Temperatura máxima	20.5
179899	7	Sololá	716	San Marcos la Laguna 	11	San Marcos la laguna 	3	Marzo	2023-02-03T00:00:00	2024-11-08T09:00:00	3	Temperatura mínima	19.2
179900	7	Sololá	716	San Marcos la Laguna 	11	San Marcos la laguna 	3	Marzo	2023-02-03T00:00:00	2024-11-08T09:00:00	5	Humedad	75
179901	7	Sololá	716	San Marcos la Laguna 	11	San Marcos la laguna 	3	Marzo	2023-02-03T00:00:00	2024-11-08T09:00:00	6	Velocidad del viento	3.2
179902	7	Sololá	716	San Marcos la Laguna 	11	San Marcos la laguna 	3	Marzo	2023-02-03T00:00:00	2024-11-08T09:00:00	7	Dirección del viento	3.22
179903	7	Sololá	716	San Marcos la Laguna 	11	San Marcos la laguna 	3	Marzo	2023-02-03T00:00:00	2024-11-08T09:00:00	1	Precipitación	0
179904	7	Sololá	716	San Marcos la Laguna 	11	San Marcos la laguna 	3	Marzo	2023-02-03T00:00:00	2024-11-08T09:00:00	8	Radiación solar	236
179905	7	Sololá	716	San Marcos la Laguna 	11	San Marcos la laguna 	3	Marzo	2023-02-03T00:00:00	2024-11-08T10:00:00	2	Temperatura media	20.2
179906	7	Sololá	716	San Marcos la Laguna 	11	San Marcos la laguna 	3	Marzo	2023-02-03T00:00:00	2024-11-08T10:00:00	4	Temperatura máxima	20.7
179907	7	Sololá	716	San Marcos la Laguna 	11	San Marcos la laguna 	3	Marzo	2023-02-03T00:00:00	2024-11-08T10:00:00	3	Temperatura mínima	20
179908	7	Sololá	716	San Marcos la Laguna 	11	San Marcos la laguna 	3	Marzo	2023-02-03T00:00:00	2024-11-08T10:00:00	5	Humedad	75
179909	7	Sololá	716	San Marcos la Laguna 	11	San Marcos la laguna 	3	Marzo	2023-02-03T00:00:00	2024-11-08T10:00:00	6	Velocidad del viento	6.4
179910	7	Sololá	716	San Marcos la Laguna 	11	San Marcos la laguna 	3	Marzo	2023-02-03T00:00:00	2024-11-08T10:00:00	7	Dirección del viento	6.44
179911	7	Sololá	716	San Marcos la Laguna 	11	San Marcos la laguna 	3	Marzo	2023-02-03T00:00:00	2024-11-08T10:00:00	1	Precipitación	0
179912	7	Sololá	716	San Marcos la Laguna 	11	San Marcos la laguna 	3	Marzo	2023-02-03T00:00:00	2024-11-08T10:00:00	8	Radiación solar	390
179913	7	Sololá	716	San Marcos la Laguna 	11	San Marcos la laguna 	3	Marzo	2023-02-03T00:00:00	2024-11-08T11:00:00	2	Temperatura media	21.4
179914	7	Sololá	716	San Marcos la Laguna 	11	San Marcos la laguna 	3	Marzo	2023-02-03T00:00:00	2024-11-08T11:00:00	4	Temperatura máxima	21.4
179915	7	Sololá	716	San Marcos la Laguna 	11	San Marcos la laguna 	3	Marzo	2023-02-03T00:00:00	2024-11-08T11:00:00	3	Temperatura mínima	20.2
179916	7	Sololá	716	San Marcos la Laguna 	11	San Marcos la laguna 	3	Marzo	2023-02-03T00:00:00	2024-11-08T11:00:00	5	Humedad	68
179917	7	Sololá	716	San Marcos la Laguna 	11	San Marcos la laguna 	3	Marzo	2023-02-03T00:00:00	2024-11-08T11:00:00	6	Velocidad del viento	8
179918	7	Sololá	716	San Marcos la Laguna 	11	San Marcos la laguna 	3	Marzo	2023-02-03T00:00:00	2024-11-08T11:00:00	7	Dirección del viento	8.05
179919	7	Sololá	716	San Marcos la Laguna 	11	San Marcos la laguna 	3	Marzo	2023-02-03T00:00:00	2024-11-08T11:00:00	1	Precipitación	0
179920	7	Sololá	716	San Marcos la Laguna 	11	San Marcos la laguna 	3	Marzo	2023-02-03T00:00:00	2024-11-08T11:00:00	8	Radiación solar	365
179921	7	Sololá	716	San Marcos la Laguna 	11	San Marcos la laguna 	3	Marzo	2023-02-03T00:00:00	2024-11-08T12:00:00	2	Temperatura media	21.8
179922	7	Sololá	716	San Marcos la Laguna 	11	San Marcos la laguna 	3	Marzo	2023-02-03T00:00:00	2024-11-08T12:00:00	4	Temperatura máxima	21.8
179923	7	Sololá	716	San Marcos la Laguna 	11	San Marcos la laguna 	3	Marzo	2023-02-03T00:00:00	2024-11-08T12:00:00	3	Temperatura mínima	21.2
179924	7	Sololá	716	San Marcos la Laguna 	11	San Marcos la laguna 	3	Marzo	2023-02-03T00:00:00	2024-11-08T12:00:00	5	Humedad	61
179925	7	Sololá	716	San Marcos la Laguna 	11	San Marcos la laguna 	3	Marzo	2023-02-03T00:00:00	2024-11-08T12:00:00	6	Velocidad del viento	12.9
179926	7	Sololá	716	San Marcos la Laguna 	11	San Marcos la laguna 	3	Marzo	2023-02-03T00:00:00	2024-11-08T12:00:00	7	Dirección del viento	12.87
179927	7	Sololá	716	San Marcos la Laguna 	11	San Marcos la laguna 	3	Marzo	2023-02-03T00:00:00	2024-11-08T12:00:00	1	Precipitación	0
179928	7	Sololá	716	San Marcos la Laguna 	11	San Marcos la laguna 	3	Marzo	2023-02-03T00:00:00	2024-11-08T12:00:00	8	Radiación solar	677
179929	7	Sololá	716	San Marcos la Laguna 	11	San Marcos la laguna 	3	Marzo	2023-02-03T00:00:00	2024-11-08T13:00:00	2	Temperatura media	22.7
179930	7	Sololá	716	San Marcos la Laguna 	11	San Marcos la laguna 	3	Marzo	2023-02-03T00:00:00	2024-11-08T13:00:00	4	Temperatura máxima	22.7
179931	7	Sololá	716	San Marcos la Laguna 	11	San Marcos la laguna 	3	Marzo	2023-02-03T00:00:00	2024-11-08T13:00:00	3	Temperatura mínima	21.7
179932	7	Sololá	716	San Marcos la Laguna 	11	San Marcos la laguna 	3	Marzo	2023-02-03T00:00:00	2024-11-08T13:00:00	5	Humedad	62
179933	7	Sololá	716	San Marcos la Laguna 	11	San Marcos la laguna 	3	Marzo	2023-02-03T00:00:00	2024-11-08T13:00:00	6	Velocidad del viento	9.7
179934	7	Sololá	716	San Marcos la Laguna 	11	San Marcos la laguna 	3	Marzo	2023-02-03T00:00:00	2024-11-08T13:00:00	7	Dirección del viento	9.66
179935	7	Sololá	716	San Marcos la Laguna 	11	San Marcos la laguna 	3	Marzo	2023-02-03T00:00:00	2024-11-08T13:00:00	1	Precipitación	0
179936	7	Sololá	716	San Marcos la Laguna 	11	San Marcos la laguna 	3	Marzo	2023-02-03T00:00:00	2024-11-08T13:00:00	8	Radiación solar	322
179937	7	Sololá	716	San Marcos la Laguna 	11	San Marcos la laguna 	3	Marzo	2023-02-03T00:00:00	2024-11-08T14:00:00	2	Temperatura media	23.2
179938	7	Sololá	716	San Marcos la Laguna 	11	San Marcos la laguna 	3	Marzo	2023-02-03T00:00:00	2024-11-08T14:00:00	4	Temperatura máxima	23.4
179939	7	Sololá	716	San Marcos la Laguna 	11	San Marcos la laguna 	3	Marzo	2023-02-03T00:00:00	2024-11-08T14:00:00	3	Temperatura mínima	22.7
179940	7	Sololá	716	San Marcos la Laguna 	11	San Marcos la laguna 	3	Marzo	2023-02-03T00:00:00	2024-11-08T14:00:00	5	Humedad	62
179941	7	Sololá	716	San Marcos la Laguna 	11	San Marcos la laguna 	3	Marzo	2023-02-03T00:00:00	2024-11-08T14:00:00	6	Velocidad del viento	9.7
179942	7	Sololá	716	San Marcos la Laguna 	11	San Marcos la laguna 	3	Marzo	2023-02-03T00:00:00	2024-11-08T14:00:00	7	Dirección del viento	9.66
179943	7	Sololá	716	San Marcos la Laguna 	11	San Marcos la laguna 	3	Marzo	2023-02-03T00:00:00	2024-11-08T14:00:00	1	Precipitación	0
179944	7	Sololá	716	San Marcos la Laguna 	11	San Marcos la laguna 	3	Marzo	2023-02-03T00:00:00	2024-11-08T14:00:00	8	Radiación solar	252
179945	7	Sololá	716	San Marcos la Laguna 	11	San Marcos la laguna 	3	Marzo	2023-02-03T00:00:00	2024-11-08T15:00:00	2	Temperatura media	22.1
179946	7	Sololá	716	San Marcos la Laguna 	11	San Marcos la laguna 	3	Marzo	2023-02-03T00:00:00	2024-11-08T15:00:00	4	Temperatura máxima	23.3
179947	7	Sololá	716	San Marcos la Laguna 	11	San Marcos la laguna 	3	Marzo	2023-02-03T00:00:00	2024-11-08T15:00:00	3	Temperatura mínima	21.7
179948	7	Sololá	716	San Marcos la Laguna 	11	San Marcos la laguna 	3	Marzo	2023-02-03T00:00:00	2024-11-08T15:00:00	5	Humedad	71
179949	7	Sololá	716	San Marcos la Laguna 	11	San Marcos la laguna 	3	Marzo	2023-02-03T00:00:00	2024-11-08T15:00:00	6	Velocidad del viento	14.5
179950	7	Sololá	716	San Marcos la Laguna 	11	San Marcos la laguna 	3	Marzo	2023-02-03T00:00:00	2024-11-08T15:00:00	7	Dirección del viento	14.48
179951	7	Sololá	716	San Marcos la Laguna 	11	San Marcos la laguna 	3	Marzo	2023-02-03T00:00:00	2024-11-08T15:00:00	1	Precipitación	0
179952	7	Sololá	716	San Marcos la Laguna 	11	San Marcos la laguna 	3	Marzo	2023-02-03T00:00:00	2024-11-08T15:00:00	8	Radiación solar	64
179953	7	Sololá	716	San Marcos la Laguna 	11	San Marcos la laguna 	3	Marzo	2023-02-03T00:00:00	2024-11-08T16:00:00	2	Temperatura media	23.8
179954	7	Sololá	716	San Marcos la Laguna 	11	San Marcos la laguna 	3	Marzo	2023-02-03T00:00:00	2024-11-08T16:00:00	4	Temperatura máxima	24.2
179955	7	Sololá	716	San Marcos la Laguna 	11	San Marcos la laguna 	3	Marzo	2023-02-03T00:00:00	2024-11-08T16:00:00	3	Temperatura mínima	22.1
179956	7	Sololá	716	San Marcos la Laguna 	11	San Marcos la laguna 	3	Marzo	2023-02-03T00:00:00	2024-11-08T16:00:00	5	Humedad	65
179957	7	Sololá	716	San Marcos la Laguna 	11	San Marcos la laguna 	3	Marzo	2023-02-03T00:00:00	2024-11-08T16:00:00	6	Velocidad del viento	8
179958	7	Sololá	716	San Marcos la Laguna 	11	San Marcos la laguna 	3	Marzo	2023-02-03T00:00:00	2024-11-08T16:00:00	7	Dirección del viento	8.05
179959	7	Sololá	716	San Marcos la Laguna 	11	San Marcos la laguna 	3	Marzo	2023-02-03T00:00:00	2024-11-08T16:00:00	1	Precipitación	0
179960	7	Sololá	716	San Marcos la Laguna 	11	San Marcos la laguna 	3	Marzo	2023-02-03T00:00:00	2024-11-08T16:00:00	8	Radiación solar	23
179961	7	Sololá	716	San Marcos la Laguna 	11	San Marcos la laguna 	3	Marzo	2023-02-03T00:00:00	2024-11-08T17:00:00	2	Temperatura media	21.7
179962	7	Sololá	716	San Marcos la Laguna 	11	San Marcos la laguna 	3	Marzo	2023-02-03T00:00:00	2024-11-08T17:00:00	4	Temperatura máxima	23.8
179963	7	Sololá	716	San Marcos la Laguna 	11	San Marcos la laguna 	3	Marzo	2023-02-03T00:00:00	2024-11-08T17:00:00	3	Temperatura mínima	21.4
179964	7	Sololá	716	San Marcos la Laguna 	11	San Marcos la laguna 	3	Marzo	2023-02-03T00:00:00	2024-11-08T17:00:00	5	Humedad	70
179965	7	Sololá	716	San Marcos la Laguna 	11	San Marcos la laguna 	3	Marzo	2023-02-03T00:00:00	2024-11-08T17:00:00	6	Velocidad del viento	8
179966	7	Sololá	716	San Marcos la Laguna 	11	San Marcos la laguna 	3	Marzo	2023-02-03T00:00:00	2024-11-08T17:00:00	7	Dirección del viento	8.05
179967	7	Sololá	716	San Marcos la Laguna 	11	San Marcos la laguna 	3	Marzo	2023-02-03T00:00:00	2024-11-08T17:00:00	1	Precipitación	0
179968	7	Sololá	716	San Marcos la Laguna 	11	San Marcos la laguna 	3	Marzo	2023-02-03T00:00:00	2024-11-08T17:00:00	8	Radiación solar	30
179969	7	Sololá	716	San Marcos la Laguna 	11	San Marcos la laguna 	3	Marzo	2023-02-03T00:00:00	2024-11-08T18:00:00	2	Temperatura media	21.1
179970	7	Sololá	716	San Marcos la Laguna 	11	San Marcos la laguna 	3	Marzo	2023-02-03T00:00:00	2024-11-08T18:00:00	4	Temperatura máxima	22.6
179971	7	Sololá	716	San Marcos la Laguna 	11	San Marcos la laguna 	3	Marzo	2023-02-03T00:00:00	2024-11-08T18:00:00	3	Temperatura mínima	21.1
179972	7	Sololá	716	San Marcos la Laguna 	11	San Marcos la laguna 	3	Marzo	2023-02-03T00:00:00	2024-11-08T18:00:00	5	Humedad	68
179973	7	Sololá	716	San Marcos la Laguna 	11	San Marcos la laguna 	3	Marzo	2023-02-03T00:00:00	2024-11-08T18:00:00	6	Velocidad del viento	3.2
179974	7	Sololá	716	San Marcos la Laguna 	11	San Marcos la laguna 	3	Marzo	2023-02-03T00:00:00	2024-11-08T18:00:00	7	Dirección del viento	3.22
179975	7	Sololá	716	San Marcos la Laguna 	11	San Marcos la laguna 	3	Marzo	2023-02-03T00:00:00	2024-11-08T18:00:00	1	Precipitación	0
179976	7	Sololá	716	San Marcos la Laguna 	11	San Marcos la laguna 	3	Marzo	2023-02-03T00:00:00	2024-11-08T18:00:00	8	Radiación solar	25
179977	7	Sololá	716	San Marcos la Laguna 	11	San Marcos la laguna 	3	Marzo	2023-02-03T00:00:00	2024-11-08T19:00:00	2	Temperatura media	19.6
179978	7	Sololá	716	San Marcos la Laguna 	11	San Marcos la laguna 	3	Marzo	2023-02-03T00:00:00	2024-11-08T19:00:00	4	Temperatura máxima	21.1
179979	7	Sololá	716	San Marcos la Laguna 	11	San Marcos la laguna 	3	Marzo	2023-02-03T00:00:00	2024-11-08T19:00:00	3	Temperatura mínima	19.6
179980	7	Sololá	716	San Marcos la Laguna 	11	San Marcos la laguna 	3	Marzo	2023-02-03T00:00:00	2024-11-08T19:00:00	5	Humedad	81
179981	7	Sololá	716	San Marcos la Laguna 	11	San Marcos la laguna 	3	Marzo	2023-02-03T00:00:00	2024-11-08T19:00:00	6	Velocidad del viento	3.2
179982	7	Sololá	716	San Marcos la Laguna 	11	San Marcos la laguna 	3	Marzo	2023-02-03T00:00:00	2024-11-08T19:00:00	7	Dirección del viento	3.22
179983	7	Sololá	716	San Marcos la Laguna 	11	San Marcos la laguna 	3	Marzo	2023-02-03T00:00:00	2024-11-08T19:00:00	1	Precipitación	0
179984	7	Sololá	716	San Marcos la Laguna 	11	San Marcos la laguna 	3	Marzo	2023-02-03T00:00:00	2024-11-08T19:00:00	8	Radiación solar	0
179985	7	Sololá	716	San Marcos la Laguna 	11	San Marcos la laguna 	3	Marzo	2023-02-03T00:00:00	2024-11-08T20:00:00	2	Temperatura media	19
179986	7	Sololá	716	San Marcos la Laguna 	11	San Marcos la laguna 	3	Marzo	2023-02-03T00:00:00	2024-11-08T20:00:00	4	Temperatura máxima	19.6
179987	7	Sololá	716	San Marcos la Laguna 	11	San Marcos la laguna 	3	Marzo	2023-02-03T00:00:00	2024-11-08T20:00:00	3	Temperatura mínima	18.9
179988	7	Sololá	716	San Marcos la Laguna 	11	San Marcos la laguna 	3	Marzo	2023-02-03T00:00:00	2024-11-08T20:00:00	5	Humedad	81
179989	7	Sololá	716	San Marcos la Laguna 	11	San Marcos la laguna 	3	Marzo	2023-02-03T00:00:00	2024-11-08T20:00:00	6	Velocidad del viento	4.8
179990	7	Sololá	716	San Marcos la Laguna 	11	San Marcos la laguna 	3	Marzo	2023-02-03T00:00:00	2024-11-08T20:00:00	7	Dirección del viento	4.83
179991	7	Sololá	716	San Marcos la Laguna 	11	San Marcos la laguna 	3	Marzo	2023-02-03T00:00:00	2024-11-08T20:00:00	1	Precipitación	0
179992	7	Sololá	716	San Marcos la Laguna 	11	San Marcos la laguna 	3	Marzo	2023-02-03T00:00:00	2024-11-08T20:00:00	8	Radiación solar	0
179993	7	Sololá	716	San Marcos la Laguna 	11	San Marcos la laguna 	3	Marzo	2023-02-03T00:00:00	2024-11-08T21:00:00	2	Temperatura media	18.5
179994	7	Sololá	716	San Marcos la Laguna 	11	San Marcos la laguna 	3	Marzo	2023-02-03T00:00:00	2024-11-08T21:00:00	4	Temperatura máxima	19.1
179995	7	Sololá	716	San Marcos la Laguna 	11	San Marcos la laguna 	3	Marzo	2023-02-03T00:00:00	2024-11-08T21:00:00	3	Temperatura mínima	18.5
179996	7	Sololá	716	San Marcos la Laguna 	11	San Marcos la laguna 	3	Marzo	2023-02-03T00:00:00	2024-11-08T21:00:00	5	Humedad	82
179997	7	Sololá	716	San Marcos la Laguna 	11	San Marcos la laguna 	3	Marzo	2023-02-03T00:00:00	2024-11-08T21:00:00	6	Velocidad del viento	4.8
179998	7	Sololá	716	San Marcos la Laguna 	11	San Marcos la laguna 	3	Marzo	2023-02-03T00:00:00	2024-11-08T21:00:00	7	Dirección del viento	4.83
179999	7	Sololá	716	San Marcos la Laguna 	11	San Marcos la laguna 	3	Marzo	2023-02-03T00:00:00	2024-11-08T21:00:00	1	Precipitación	0
180000	7	Sololá	716	San Marcos la Laguna 	11	San Marcos la laguna 	3	Marzo	2023-02-03T00:00:00	2024-11-08T21:00:00	8	Radiación solar	0
180001	7	Sololá	716	San Marcos la Laguna 	11	San Marcos la laguna 	3	Marzo	2023-02-03T00:00:00	2024-11-08T22:00:00	2	Temperatura media	17.4
180002	7	Sololá	716	San Marcos la Laguna 	11	San Marcos la laguna 	3	Marzo	2023-02-03T00:00:00	2024-11-08T22:00:00	4	Temperatura máxima	18.6
180003	7	Sololá	716	San Marcos la Laguna 	11	San Marcos la laguna 	3	Marzo	2023-02-03T00:00:00	2024-11-08T22:00:00	3	Temperatura mínima	17.4
180004	7	Sololá	716	San Marcos la Laguna 	11	San Marcos la laguna 	3	Marzo	2023-02-03T00:00:00	2024-11-08T22:00:00	5	Humedad	70
180005	7	Sololá	716	San Marcos la Laguna 	11	San Marcos la laguna 	3	Marzo	2023-02-03T00:00:00	2024-11-08T22:00:00	6	Velocidad del viento	3.2
180006	7	Sololá	716	San Marcos la Laguna 	11	San Marcos la laguna 	3	Marzo	2023-02-03T00:00:00	2024-11-08T22:00:00	7	Dirección del viento	3.22
180007	7	Sololá	716	San Marcos la Laguna 	11	San Marcos la laguna 	3	Marzo	2023-02-03T00:00:00	2024-11-08T22:00:00	1	Precipitación	0
180008	7	Sololá	716	San Marcos la Laguna 	11	San Marcos la laguna 	3	Marzo	2023-02-03T00:00:00	2024-11-08T22:00:00	8	Radiación solar	0
180009	7	Sololá	716	San Marcos la Laguna 	11	San Marcos la laguna 	3	Marzo	2023-02-03T00:00:00	2024-11-08T23:00:00	2	Temperatura media	16.3
180010	7	Sololá	716	San Marcos la Laguna 	11	San Marcos la laguna 	3	Marzo	2023-02-03T00:00:00	2024-11-08T23:00:00	4	Temperatura máxima	17.4
180011	7	Sololá	716	San Marcos la Laguna 	11	San Marcos la laguna 	3	Marzo	2023-02-03T00:00:00	2024-11-08T23:00:00	3	Temperatura mínima	16.2
180012	7	Sololá	716	San Marcos la Laguna 	11	San Marcos la laguna 	3	Marzo	2023-02-03T00:00:00	2024-11-08T23:00:00	5	Humedad	70
180013	7	Sololá	716	San Marcos la Laguna 	11	San Marcos la laguna 	3	Marzo	2023-02-03T00:00:00	2024-11-08T23:00:00	6	Velocidad del viento	6.4
180014	7	Sololá	716	San Marcos la Laguna 	11	San Marcos la laguna 	3	Marzo	2023-02-03T00:00:00	2024-11-08T23:00:00	7	Dirección del viento	6.44
180015	7	Sololá	716	San Marcos la Laguna 	11	San Marcos la laguna 	3	Marzo	2023-02-03T00:00:00	2024-11-08T23:00:00	1	Precipitación	0
180016	7	Sololá	716	San Marcos la Laguna 	11	San Marcos la laguna 	3	Marzo	2023-02-03T00:00:00	2024-11-08T23:00:00	8	Radiación solar	0
180017	7	Sololá	716	San Marcos la Laguna 	11	San Marcos la laguna 	3	Marzo	2023-03-03T00:00:00	2024-11-08T00:00:00	2	Temperatura media	15.6
180018	7	Sololá	716	San Marcos la Laguna 	11	San Marcos la laguna 	3	Marzo	2023-03-03T00:00:00	2024-11-08T00:00:00	4	Temperatura máxima	16.5
180019	7	Sololá	716	San Marcos la Laguna 	11	San Marcos la laguna 	3	Marzo	2023-03-03T00:00:00	2024-11-08T00:00:00	3	Temperatura mínima	15.4
180020	7	Sololá	716	San Marcos la Laguna 	11	San Marcos la laguna 	3	Marzo	2023-03-03T00:00:00	2024-11-08T00:00:00	5	Humedad	75
180021	7	Sololá	716	San Marcos la Laguna 	11	San Marcos la laguna 	3	Marzo	2023-03-03T00:00:00	2024-11-08T00:00:00	6	Velocidad del viento	8
180022	7	Sololá	716	San Marcos la Laguna 	11	San Marcos la laguna 	3	Marzo	2023-03-03T00:00:00	2024-11-08T00:00:00	7	Dirección del viento	8.05
180023	7	Sololá	716	San Marcos la Laguna 	11	San Marcos la laguna 	3	Marzo	2023-03-03T00:00:00	2024-11-08T00:00:00	1	Precipitación	0
180024	7	Sololá	716	San Marcos la Laguna 	11	San Marcos la laguna 	3	Marzo	2023-03-03T00:00:00	2024-11-08T00:00:00	8	Radiación solar	0
180025	7	Sololá	716	San Marcos la Laguna 	11	San Marcos la laguna 	3	Marzo	2023-03-03T00:00:00	2024-11-08T01:00:00	2	Temperatura media	13.9
180026	7	Sololá	716	San Marcos la Laguna 	11	San Marcos la laguna 	3	Marzo	2023-03-03T00:00:00	2024-11-08T01:00:00	4	Temperatura máxima	15.7
180027	7	Sololá	716	San Marcos la Laguna 	11	San Marcos la laguna 	3	Marzo	2023-03-03T00:00:00	2024-11-08T01:00:00	3	Temperatura mínima	13.9
180028	7	Sololá	716	San Marcos la Laguna 	11	San Marcos la laguna 	3	Marzo	2023-03-03T00:00:00	2024-11-08T01:00:00	5	Humedad	70
180029	7	Sololá	716	San Marcos la Laguna 	11	San Marcos la laguna 	3	Marzo	2023-03-03T00:00:00	2024-11-08T01:00:00	6	Velocidad del viento	8
180030	7	Sololá	716	San Marcos la Laguna 	11	San Marcos la laguna 	3	Marzo	2023-03-03T00:00:00	2024-11-08T01:00:00	7	Dirección del viento	8.05
180031	7	Sololá	716	San Marcos la Laguna 	11	San Marcos la laguna 	3	Marzo	2023-03-03T00:00:00	2024-11-08T01:00:00	1	Precipitación	0
180032	7	Sololá	716	San Marcos la Laguna 	11	San Marcos la laguna 	3	Marzo	2023-03-03T00:00:00	2024-11-08T01:00:00	8	Radiación solar	0
180033	7	Sololá	716	San Marcos la Laguna 	11	San Marcos la laguna 	3	Marzo	2023-03-03T00:00:00	2024-11-08T02:00:00	2	Temperatura media	13.3
180034	7	Sololá	716	San Marcos la Laguna 	11	San Marcos la laguna 	3	Marzo	2023-03-03T00:00:00	2024-11-08T02:00:00	4	Temperatura máxima	13.9
180035	7	Sololá	716	San Marcos la Laguna 	11	San Marcos la laguna 	3	Marzo	2023-03-03T00:00:00	2024-11-08T02:00:00	3	Temperatura mínima	13.3
180036	7	Sololá	716	San Marcos la Laguna 	11	San Marcos la laguna 	3	Marzo	2023-03-03T00:00:00	2024-11-08T02:00:00	5	Humedad	78
180037	7	Sololá	716	San Marcos la Laguna 	11	San Marcos la laguna 	3	Marzo	2023-03-03T00:00:00	2024-11-08T02:00:00	6	Velocidad del viento	6.4
180038	7	Sololá	716	San Marcos la Laguna 	11	San Marcos la laguna 	3	Marzo	2023-03-03T00:00:00	2024-11-08T02:00:00	7	Dirección del viento	6.44
180039	7	Sololá	716	San Marcos la Laguna 	11	San Marcos la laguna 	3	Marzo	2023-03-03T00:00:00	2024-11-08T02:00:00	1	Precipitación	0
180040	7	Sololá	716	San Marcos la Laguna 	11	San Marcos la laguna 	3	Marzo	2023-03-03T00:00:00	2024-11-08T02:00:00	8	Radiación solar	0
180041	7	Sololá	716	San Marcos la Laguna 	11	San Marcos la laguna 	3	Marzo	2023-03-03T00:00:00	2024-11-08T03:00:00	2	Temperatura media	13.1
180042	7	Sololá	716	San Marcos la Laguna 	11	San Marcos la laguna 	3	Marzo	2023-03-03T00:00:00	2024-11-08T03:00:00	4	Temperatura máxima	13.4
180043	7	Sololá	716	San Marcos la Laguna 	11	San Marcos la laguna 	3	Marzo	2023-03-03T00:00:00	2024-11-08T03:00:00	3	Temperatura mínima	13.1
180044	7	Sololá	716	San Marcos la Laguna 	11	San Marcos la laguna 	3	Marzo	2023-03-03T00:00:00	2024-11-08T03:00:00	5	Humedad	85
180045	7	Sololá	716	San Marcos la Laguna 	11	San Marcos la laguna 	3	Marzo	2023-03-03T00:00:00	2024-11-08T03:00:00	6	Velocidad del viento	6.4
180046	7	Sololá	716	San Marcos la Laguna 	11	San Marcos la laguna 	3	Marzo	2023-03-03T00:00:00	2024-11-08T03:00:00	7	Dirección del viento	6.44
180047	7	Sololá	716	San Marcos la Laguna 	11	San Marcos la laguna 	3	Marzo	2023-03-03T00:00:00	2024-11-08T03:00:00	1	Precipitación	0
180048	7	Sololá	716	San Marcos la Laguna 	11	San Marcos la laguna 	3	Marzo	2023-03-03T00:00:00	2024-11-08T03:00:00	8	Radiación solar	0
180049	7	Sololá	716	San Marcos la Laguna 	11	San Marcos la laguna 	3	Marzo	2023-03-03T00:00:00	2024-11-08T04:00:00	2	Temperatura media	12.6
180050	7	Sololá	716	San Marcos la Laguna 	11	San Marcos la laguna 	3	Marzo	2023-03-03T00:00:00	2024-11-08T04:00:00	4	Temperatura máxima	13.1
180051	7	Sololá	716	San Marcos la Laguna 	11	San Marcos la laguna 	3	Marzo	2023-03-03T00:00:00	2024-11-08T04:00:00	3	Temperatura mínima	12.6
180052	7	Sololá	716	San Marcos la Laguna 	11	San Marcos la laguna 	3	Marzo	2023-03-03T00:00:00	2024-11-08T04:00:00	5	Humedad	82
180053	7	Sololá	716	San Marcos la Laguna 	11	San Marcos la laguna 	3	Marzo	2023-03-03T00:00:00	2024-11-08T04:00:00	6	Velocidad del viento	4.8
180054	7	Sololá	716	San Marcos la Laguna 	11	San Marcos la laguna 	3	Marzo	2023-03-03T00:00:00	2024-11-08T04:00:00	7	Dirección del viento	4.83
180055	7	Sololá	716	San Marcos la Laguna 	11	San Marcos la laguna 	3	Marzo	2023-03-03T00:00:00	2024-11-08T04:00:00	1	Precipitación	0
180056	7	Sololá	716	San Marcos la Laguna 	11	San Marcos la laguna 	3	Marzo	2023-03-03T00:00:00	2024-11-08T04:00:00	8	Radiación solar	0
180057	7	Sololá	716	San Marcos la Laguna 	11	San Marcos la laguna 	3	Marzo	2023-03-03T00:00:00	2024-11-08T05:00:00	2	Temperatura media	12.2
180058	7	Sololá	716	San Marcos la Laguna 	11	San Marcos la laguna 	3	Marzo	2023-03-03T00:00:00	2024-11-08T05:00:00	4	Temperatura máxima	12.6
180059	7	Sololá	716	San Marcos la Laguna 	11	San Marcos la laguna 	3	Marzo	2023-03-03T00:00:00	2024-11-08T05:00:00	3	Temperatura mínima	12.2
180060	7	Sololá	716	San Marcos la Laguna 	11	San Marcos la laguna 	3	Marzo	2023-03-03T00:00:00	2024-11-08T05:00:00	5	Humedad	78
180061	7	Sololá	716	San Marcos la Laguna 	11	San Marcos la laguna 	3	Marzo	2023-03-03T00:00:00	2024-11-08T05:00:00	6	Velocidad del viento	6.4
180062	7	Sololá	716	San Marcos la Laguna 	11	San Marcos la laguna 	3	Marzo	2023-03-03T00:00:00	2024-11-08T05:00:00	7	Dirección del viento	6.44
180063	7	Sololá	716	San Marcos la Laguna 	11	San Marcos la laguna 	3	Marzo	2023-03-03T00:00:00	2024-11-08T05:00:00	1	Precipitación	0
180064	7	Sololá	716	San Marcos la Laguna 	11	San Marcos la laguna 	3	Marzo	2023-03-03T00:00:00	2024-11-08T05:00:00	8	Radiación solar	0
180065	7	Sololá	716	San Marcos la Laguna 	11	San Marcos la laguna 	3	Marzo	2023-03-03T00:00:00	2024-11-08T06:00:00	2	Temperatura media	12
180066	7	Sololá	716	San Marcos la Laguna 	11	San Marcos la laguna 	3	Marzo	2023-03-03T00:00:00	2024-11-08T06:00:00	4	Temperatura máxima	12.2
180067	7	Sololá	716	San Marcos la Laguna 	11	San Marcos la laguna 	3	Marzo	2023-03-03T00:00:00	2024-11-08T06:00:00	3	Temperatura mínima	11.9
180068	7	Sololá	716	San Marcos la Laguna 	11	San Marcos la laguna 	3	Marzo	2023-03-03T00:00:00	2024-11-08T06:00:00	5	Humedad	80
180069	7	Sololá	716	San Marcos la Laguna 	11	San Marcos la laguna 	3	Marzo	2023-03-03T00:00:00	2024-11-08T06:00:00	6	Velocidad del viento	6.4
180070	7	Sololá	716	San Marcos la Laguna 	11	San Marcos la laguna 	3	Marzo	2023-03-03T00:00:00	2024-11-08T06:00:00	7	Dirección del viento	6.44
180071	7	Sololá	716	San Marcos la Laguna 	11	San Marcos la laguna 	3	Marzo	2023-03-03T00:00:00	2024-11-08T06:00:00	1	Precipitación	0
180072	7	Sololá	716	San Marcos la Laguna 	11	San Marcos la laguna 	3	Marzo	2023-03-03T00:00:00	2024-11-08T06:00:00	8	Radiación solar	0
180073	7	Sololá	716	San Marcos la Laguna 	11	San Marcos la laguna 	3	Marzo	2023-03-03T00:00:00	2024-11-08T07:00:00	2	Temperatura media	12.8
180074	7	Sololá	716	San Marcos la Laguna 	11	San Marcos la laguna 	3	Marzo	2023-03-03T00:00:00	2024-11-08T07:00:00	4	Temperatura máxima	12.8
180075	7	Sololá	716	San Marcos la Laguna 	11	San Marcos la laguna 	3	Marzo	2023-03-03T00:00:00	2024-11-08T07:00:00	3	Temperatura mínima	11.7
180076	7	Sololá	716	San Marcos la Laguna 	11	San Marcos la laguna 	3	Marzo	2023-03-03T00:00:00	2024-11-08T07:00:00	5	Humedad	74
180077	7	Sololá	716	San Marcos la Laguna 	11	San Marcos la laguna 	3	Marzo	2023-03-03T00:00:00	2024-11-08T07:00:00	6	Velocidad del viento	6.4
180078	7	Sololá	716	San Marcos la Laguna 	11	San Marcos la laguna 	3	Marzo	2023-03-03T00:00:00	2024-11-08T07:00:00	7	Dirección del viento	6.44
180079	7	Sololá	716	San Marcos la Laguna 	11	San Marcos la laguna 	3	Marzo	2023-03-03T00:00:00	2024-11-08T07:00:00	1	Precipitación	0
180080	7	Sololá	716	San Marcos la Laguna 	11	San Marcos la laguna 	3	Marzo	2023-03-03T00:00:00	2024-11-08T07:00:00	8	Radiación solar	26
180081	7	Sololá	716	San Marcos la Laguna 	11	San Marcos la laguna 	3	Marzo	2023-03-03T00:00:00	2024-11-08T08:00:00	2	Temperatura media	17.4
180082	7	Sololá	716	San Marcos la Laguna 	11	San Marcos la laguna 	3	Marzo	2023-03-03T00:00:00	2024-11-08T08:00:00	4	Temperatura máxima	17.4
180083	7	Sololá	716	San Marcos la Laguna 	11	San Marcos la laguna 	3	Marzo	2023-03-03T00:00:00	2024-11-08T08:00:00	3	Temperatura mínima	12.8
180084	7	Sololá	716	San Marcos la Laguna 	11	San Marcos la laguna 	3	Marzo	2023-03-03T00:00:00	2024-11-08T08:00:00	5	Humedad	74
180085	7	Sololá	716	San Marcos la Laguna 	11	San Marcos la laguna 	3	Marzo	2023-03-03T00:00:00	2024-11-08T08:00:00	6	Velocidad del viento	3.2
180086	7	Sololá	716	San Marcos la Laguna 	11	San Marcos la laguna 	3	Marzo	2023-03-03T00:00:00	2024-11-08T08:00:00	7	Dirección del viento	3.22
180087	7	Sololá	716	San Marcos la Laguna 	11	San Marcos la laguna 	3	Marzo	2023-03-03T00:00:00	2024-11-08T08:00:00	1	Precipitación	0
180088	7	Sololá	716	San Marcos la Laguna 	11	San Marcos la laguna 	3	Marzo	2023-03-03T00:00:00	2024-11-08T08:00:00	8	Radiación solar	140
180089	7	Sololá	716	San Marcos la Laguna 	11	San Marcos la laguna 	3	Marzo	2023-03-03T00:00:00	2024-11-08T09:00:00	2	Temperatura media	18.4
180090	7	Sololá	716	San Marcos la Laguna 	11	San Marcos la laguna 	3	Marzo	2023-03-03T00:00:00	2024-11-08T09:00:00	4	Temperatura máxima	18.4
180091	7	Sololá	716	San Marcos la Laguna 	11	San Marcos la laguna 	3	Marzo	2023-03-03T00:00:00	2024-11-08T09:00:00	3	Temperatura mínima	17.5
180092	7	Sololá	716	San Marcos la Laguna 	11	San Marcos la laguna 	3	Marzo	2023-03-03T00:00:00	2024-11-08T09:00:00	5	Humedad	75
180093	7	Sololá	716	San Marcos la Laguna 	11	San Marcos la laguna 	3	Marzo	2023-03-03T00:00:00	2024-11-08T09:00:00	6	Velocidad del viento	4.8
180094	7	Sololá	716	San Marcos la Laguna 	11	San Marcos la laguna 	3	Marzo	2023-03-03T00:00:00	2024-11-08T09:00:00	7	Dirección del viento	4.83
180095	7	Sololá	716	San Marcos la Laguna 	11	San Marcos la laguna 	3	Marzo	2023-03-03T00:00:00	2024-11-08T09:00:00	1	Precipitación	0
180096	7	Sololá	716	San Marcos la Laguna 	11	San Marcos la laguna 	3	Marzo	2023-03-03T00:00:00	2024-11-08T09:00:00	8	Radiación solar	338
180097	7	Sololá	716	San Marcos la Laguna 	11	San Marcos la laguna 	3	Marzo	2023-03-03T00:00:00	2024-11-08T10:00:00	2	Temperatura media	20.4
180098	7	Sololá	716	San Marcos la Laguna 	11	San Marcos la laguna 	3	Marzo	2023-03-03T00:00:00	2024-11-08T10:00:00	4	Temperatura máxima	20.5
180099	7	Sololá	716	San Marcos la Laguna 	11	San Marcos la laguna 	3	Marzo	2023-03-03T00:00:00	2024-11-08T10:00:00	3	Temperatura mínima	18.4
180100	7	Sololá	716	San Marcos la Laguna 	11	San Marcos la laguna 	3	Marzo	2023-03-03T00:00:00	2024-11-08T10:00:00	5	Humedad	68
180101	7	Sololá	716	San Marcos la Laguna 	11	San Marcos la laguna 	3	Marzo	2023-03-03T00:00:00	2024-11-08T10:00:00	6	Velocidad del viento	3.2
180102	7	Sololá	716	San Marcos la Laguna 	11	San Marcos la laguna 	3	Marzo	2023-03-03T00:00:00	2024-11-08T10:00:00	7	Dirección del viento	3.22
180103	7	Sololá	716	San Marcos la Laguna 	11	San Marcos la laguna 	3	Marzo	2023-03-03T00:00:00	2024-11-08T10:00:00	1	Precipitación	0
180104	7	Sololá	716	San Marcos la Laguna 	11	San Marcos la laguna 	3	Marzo	2023-03-03T00:00:00	2024-11-08T10:00:00	8	Radiación solar	629
180105	7	Sololá	716	San Marcos la Laguna 	11	San Marcos la laguna 	3	Marzo	2023-03-03T00:00:00	2024-11-08T11:00:00	2	Temperatura media	22.3
180106	7	Sololá	716	San Marcos la Laguna 	11	San Marcos la laguna 	3	Marzo	2023-03-03T00:00:00	2024-11-08T11:00:00	4	Temperatura máxima	22.3
180107	7	Sololá	716	San Marcos la Laguna 	11	San Marcos la laguna 	3	Marzo	2023-03-03T00:00:00	2024-11-08T11:00:00	3	Temperatura mínima	20.2
180108	7	Sololá	716	San Marcos la Laguna 	11	San Marcos la laguna 	3	Marzo	2023-03-03T00:00:00	2024-11-08T11:00:00	5	Humedad	42
180109	7	Sololá	716	San Marcos la Laguna 	11	San Marcos la laguna 	3	Marzo	2023-03-03T00:00:00	2024-11-08T11:00:00	6	Velocidad del viento	8
180110	7	Sololá	716	San Marcos la Laguna 	11	San Marcos la laguna 	3	Marzo	2023-03-03T00:00:00	2024-11-08T11:00:00	7	Dirección del viento	8.05
180111	7	Sololá	716	San Marcos la Laguna 	11	San Marcos la laguna 	3	Marzo	2023-03-03T00:00:00	2024-11-08T11:00:00	1	Precipitación	0
180112	7	Sololá	716	San Marcos la Laguna 	11	San Marcos la laguna 	3	Marzo	2023-03-03T00:00:00	2024-11-08T11:00:00	8	Radiación solar	848
180113	7	Sololá	716	San Marcos la Laguna 	11	San Marcos la laguna 	3	Marzo	2023-03-03T00:00:00	2024-11-08T12:00:00	2	Temperatura media	22
180114	7	Sololá	716	San Marcos la Laguna 	11	San Marcos la laguna 	3	Marzo	2023-03-03T00:00:00	2024-11-08T12:00:00	4	Temperatura máxima	22.3
180115	7	Sololá	716	San Marcos la Laguna 	11	San Marcos la laguna 	3	Marzo	2023-03-03T00:00:00	2024-11-08T12:00:00	3	Temperatura mínima	21.4
180116	7	Sololá	716	San Marcos la Laguna 	11	San Marcos la laguna 	3	Marzo	2023-03-03T00:00:00	2024-11-08T12:00:00	5	Humedad	56
180117	7	Sololá	716	San Marcos la Laguna 	11	San Marcos la laguna 	3	Marzo	2023-03-03T00:00:00	2024-11-08T12:00:00	6	Velocidad del viento	17.7
180118	7	Sololá	716	San Marcos la Laguna 	11	San Marcos la laguna 	3	Marzo	2023-03-03T00:00:00	2024-11-08T12:00:00	7	Dirección del viento	17.7
180119	7	Sololá	716	San Marcos la Laguna 	11	San Marcos la laguna 	3	Marzo	2023-03-03T00:00:00	2024-11-08T12:00:00	1	Precipitación	0
180120	7	Sololá	716	San Marcos la Laguna 	11	San Marcos la laguna 	3	Marzo	2023-03-03T00:00:00	2024-11-08T12:00:00	8	Radiación solar	874
180121	7	Sololá	716	San Marcos la Laguna 	11	San Marcos la laguna 	3	Marzo	2023-03-03T00:00:00	2024-11-08T13:00:00	2	Temperatura media	22.9
180122	7	Sololá	716	San Marcos la Laguna 	11	San Marcos la laguna 	3	Marzo	2023-03-03T00:00:00	2024-11-08T13:00:00	4	Temperatura máxima	23.2
180123	7	Sololá	716	San Marcos la Laguna 	11	San Marcos la laguna 	3	Marzo	2023-03-03T00:00:00	2024-11-08T13:00:00	3	Temperatura mínima	21.9
180124	7	Sololá	716	San Marcos la Laguna 	11	San Marcos la laguna 	3	Marzo	2023-03-03T00:00:00	2024-11-08T13:00:00	5	Humedad	55
180125	7	Sololá	716	San Marcos la Laguna 	11	San Marcos la laguna 	3	Marzo	2023-03-03T00:00:00	2024-11-08T13:00:00	6	Velocidad del viento	16.1
180126	7	Sololá	716	San Marcos la Laguna 	11	San Marcos la laguna 	3	Marzo	2023-03-03T00:00:00	2024-11-08T13:00:00	7	Dirección del viento	16.09
180127	7	Sololá	716	San Marcos la Laguna 	11	San Marcos la laguna 	3	Marzo	2023-03-03T00:00:00	2024-11-08T13:00:00	1	Precipitación	0
180128	7	Sololá	716	San Marcos la Laguna 	11	San Marcos la laguna 	3	Marzo	2023-03-03T00:00:00	2024-11-08T13:00:00	8	Radiación solar	936
180129	7	Sololá	716	San Marcos la Laguna 	11	San Marcos la laguna 	3	Marzo	2023-03-03T00:00:00	2024-11-08T14:00:00	2	Temperatura media	23.6
180130	7	Sololá	716	San Marcos la Laguna 	11	San Marcos la laguna 	3	Marzo	2023-03-03T00:00:00	2024-11-08T14:00:00	4	Temperatura máxima	24.1
180131	7	Sololá	716	San Marcos la Laguna 	11	San Marcos la laguna 	3	Marzo	2023-03-03T00:00:00	2024-11-08T14:00:00	3	Temperatura mínima	22.8
180132	7	Sololá	716	San Marcos la Laguna 	11	San Marcos la laguna 	3	Marzo	2023-03-03T00:00:00	2024-11-08T14:00:00	5	Humedad	61
180133	7	Sololá	716	San Marcos la Laguna 	11	San Marcos la laguna 	3	Marzo	2023-03-03T00:00:00	2024-11-08T14:00:00	6	Velocidad del viento	12.9
180134	7	Sololá	716	San Marcos la Laguna 	11	San Marcos la laguna 	3	Marzo	2023-03-03T00:00:00	2024-11-08T14:00:00	7	Dirección del viento	12.87
180135	7	Sololá	716	San Marcos la Laguna 	11	San Marcos la laguna 	3	Marzo	2023-03-03T00:00:00	2024-11-08T14:00:00	1	Precipitación	0
180136	7	Sololá	716	San Marcos la Laguna 	11	San Marcos la laguna 	3	Marzo	2023-03-03T00:00:00	2024-11-08T14:00:00	8	Radiación solar	535
180137	7	Sololá	716	San Marcos la Laguna 	11	San Marcos la laguna 	3	Marzo	2023-03-03T00:00:00	2024-11-08T15:00:00	2	Temperatura media	22.3
180138	7	Sololá	716	San Marcos la Laguna 	11	San Marcos la laguna 	3	Marzo	2023-03-03T00:00:00	2024-11-08T15:00:00	4	Temperatura máxima	23.6
180139	7	Sololá	716	San Marcos la Laguna 	11	San Marcos la laguna 	3	Marzo	2023-03-03T00:00:00	2024-11-08T15:00:00	3	Temperatura mínima	22.3
180140	7	Sololá	716	San Marcos la Laguna 	11	San Marcos la laguna 	3	Marzo	2023-03-03T00:00:00	2024-11-08T15:00:00	5	Humedad	67
180141	7	Sololá	716	San Marcos la Laguna 	11	San Marcos la laguna 	3	Marzo	2023-03-03T00:00:00	2024-11-08T15:00:00	6	Velocidad del viento	14.5
180142	7	Sololá	716	San Marcos la Laguna 	11	San Marcos la laguna 	3	Marzo	2023-03-03T00:00:00	2024-11-08T15:00:00	7	Dirección del viento	14.48
180143	7	Sololá	716	San Marcos la Laguna 	11	San Marcos la laguna 	3	Marzo	2023-03-03T00:00:00	2024-11-08T15:00:00	1	Precipitación	0
180144	7	Sololá	716	San Marcos la Laguna 	11	San Marcos la laguna 	3	Marzo	2023-03-03T00:00:00	2024-11-08T15:00:00	8	Radiación solar	191
180145	7	Sololá	716	San Marcos la Laguna 	11	San Marcos la laguna 	3	Marzo	2023-03-03T00:00:00	2024-11-08T16:00:00	2	Temperatura media	22.3
180146	7	Sololá	716	San Marcos la Laguna 	11	San Marcos la laguna 	3	Marzo	2023-03-03T00:00:00	2024-11-08T16:00:00	4	Temperatura máxima	22.3
180147	7	Sololá	716	San Marcos la Laguna 	11	San Marcos la laguna 	3	Marzo	2023-03-03T00:00:00	2024-11-08T16:00:00	3	Temperatura mínima	21.8
180148	7	Sololá	716	San Marcos la Laguna 	11	San Marcos la laguna 	3	Marzo	2023-03-03T00:00:00	2024-11-08T16:00:00	5	Humedad	68
180149	7	Sololá	716	San Marcos la Laguna 	11	San Marcos la laguna 	3	Marzo	2023-03-03T00:00:00	2024-11-08T16:00:00	6	Velocidad del viento	11.3
180150	7	Sololá	716	San Marcos la Laguna 	11	San Marcos la laguna 	3	Marzo	2023-03-03T00:00:00	2024-11-08T16:00:00	7	Dirección del viento	11.27
180151	7	Sololá	716	San Marcos la Laguna 	11	San Marcos la laguna 	3	Marzo	2023-03-03T00:00:00	2024-11-08T16:00:00	1	Precipitación	0
180152	7	Sololá	716	San Marcos la Laguna 	11	San Marcos la laguna 	3	Marzo	2023-03-03T00:00:00	2024-11-08T16:00:00	8	Radiación solar	195
180153	7	Sololá	716	San Marcos la Laguna 	11	San Marcos la laguna 	3	Marzo	2023-03-03T00:00:00	2024-11-08T17:00:00	2	Temperatura media	21.4
180154	7	Sololá	716	San Marcos la Laguna 	11	San Marcos la laguna 	3	Marzo	2023-03-03T00:00:00	2024-11-08T17:00:00	4	Temperatura máxima	22.4
180155	7	Sololá	716	San Marcos la Laguna 	11	San Marcos la laguna 	3	Marzo	2023-03-03T00:00:00	2024-11-08T17:00:00	3	Temperatura mínima	21.4
180156	7	Sololá	716	San Marcos la Laguna 	11	San Marcos la laguna 	3	Marzo	2023-03-03T00:00:00	2024-11-08T17:00:00	5	Humedad	73
180157	7	Sololá	716	San Marcos la Laguna 	11	San Marcos la laguna 	3	Marzo	2023-03-03T00:00:00	2024-11-08T17:00:00	6	Velocidad del viento	8
180158	7	Sololá	716	San Marcos la Laguna 	11	San Marcos la laguna 	3	Marzo	2023-03-03T00:00:00	2024-11-08T17:00:00	7	Dirección del viento	8.05
180159	7	Sololá	716	San Marcos la Laguna 	11	San Marcos la laguna 	3	Marzo	2023-03-03T00:00:00	2024-11-08T17:00:00	1	Precipitación	0
180160	7	Sololá	716	San Marcos la Laguna 	11	San Marcos la laguna 	3	Marzo	2023-03-03T00:00:00	2024-11-08T17:00:00	8	Radiación solar	204
180161	7	Sololá	716	San Marcos la Laguna 	11	San Marcos la laguna 	3	Marzo	2023-03-03T00:00:00	2024-11-08T18:00:00	2	Temperatura media	20.4
180162	7	Sololá	716	San Marcos la Laguna 	11	San Marcos la laguna 	3	Marzo	2023-03-03T00:00:00	2024-11-08T18:00:00	4	Temperatura máxima	21.4
180163	7	Sololá	716	San Marcos la Laguna 	11	San Marcos la laguna 	3	Marzo	2023-03-03T00:00:00	2024-11-08T18:00:00	3	Temperatura mínima	20.4
180164	7	Sololá	716	San Marcos la Laguna 	11	San Marcos la laguna 	3	Marzo	2023-03-03T00:00:00	2024-11-08T18:00:00	5	Humedad	75
180165	7	Sololá	716	San Marcos la Laguna 	11	San Marcos la laguna 	3	Marzo	2023-03-03T00:00:00	2024-11-08T18:00:00	6	Velocidad del viento	4.8
180166	7	Sololá	716	San Marcos la Laguna 	11	San Marcos la laguna 	3	Marzo	2023-03-03T00:00:00	2024-11-08T18:00:00	7	Dirección del viento	4.83
180167	7	Sololá	716	San Marcos la Laguna 	11	San Marcos la laguna 	3	Marzo	2023-03-03T00:00:00	2024-11-08T18:00:00	1	Precipitación	0
180168	7	Sololá	716	San Marcos la Laguna 	11	San Marcos la laguna 	3	Marzo	2023-03-03T00:00:00	2024-11-08T18:00:00	8	Radiación solar	36
180169	7	Sololá	716	San Marcos la Laguna 	11	San Marcos la laguna 	3	Marzo	2023-03-03T00:00:00	2024-11-08T19:00:00	2	Temperatura media	19.9
180170	7	Sololá	716	San Marcos la Laguna 	11	San Marcos la laguna 	3	Marzo	2023-03-03T00:00:00	2024-11-08T19:00:00	4	Temperatura máxima	20.4
180171	7	Sololá	716	San Marcos la Laguna 	11	San Marcos la laguna 	3	Marzo	2023-03-03T00:00:00	2024-11-08T19:00:00	3	Temperatura mínima	19.9
180172	7	Sololá	716	San Marcos la Laguna 	11	San Marcos la laguna 	3	Marzo	2023-03-03T00:00:00	2024-11-08T19:00:00	5	Humedad	81
180173	7	Sololá	716	San Marcos la Laguna 	11	San Marcos la laguna 	3	Marzo	2023-03-03T00:00:00	2024-11-08T19:00:00	6	Velocidad del viento	4.8
180174	7	Sololá	716	San Marcos la Laguna 	11	San Marcos la laguna 	3	Marzo	2023-03-03T00:00:00	2024-11-08T19:00:00	7	Dirección del viento	4.83
180175	7	Sololá	716	San Marcos la Laguna 	11	San Marcos la laguna 	3	Marzo	2023-03-03T00:00:00	2024-11-08T19:00:00	1	Precipitación	0
180176	7	Sololá	716	San Marcos la Laguna 	11	San Marcos la laguna 	3	Marzo	2023-03-03T00:00:00	2024-11-08T19:00:00	8	Radiación solar	0
180177	7	Sololá	716	San Marcos la Laguna 	11	San Marcos la laguna 	3	Marzo	2023-03-03T00:00:00	2024-11-08T20:00:00	2	Temperatura media	18.9
180178	7	Sololá	716	San Marcos la Laguna 	11	San Marcos la laguna 	3	Marzo	2023-03-03T00:00:00	2024-11-08T20:00:00	4	Temperatura máxima	19.9
180179	7	Sololá	716	San Marcos la Laguna 	11	San Marcos la laguna 	3	Marzo	2023-03-03T00:00:00	2024-11-08T20:00:00	3	Temperatura mínima	18.9
180180	7	Sololá	716	San Marcos la Laguna 	11	San Marcos la laguna 	3	Marzo	2023-03-03T00:00:00	2024-11-08T20:00:00	5	Humedad	81
180181	7	Sololá	716	San Marcos la Laguna 	11	San Marcos la laguna 	3	Marzo	2023-03-03T00:00:00	2024-11-08T20:00:00	6	Velocidad del viento	1.6
180182	7	Sololá	716	San Marcos la Laguna 	11	San Marcos la laguna 	3	Marzo	2023-03-03T00:00:00	2024-11-08T20:00:00	7	Dirección del viento	1.61
180183	7	Sololá	716	San Marcos la Laguna 	11	San Marcos la laguna 	3	Marzo	2023-03-03T00:00:00	2024-11-08T20:00:00	1	Precipitación	0
180184	7	Sololá	716	San Marcos la Laguna 	11	San Marcos la laguna 	3	Marzo	2023-03-03T00:00:00	2024-11-08T20:00:00	8	Radiación solar	0
180185	7	Sololá	716	San Marcos la Laguna 	11	San Marcos la laguna 	3	Marzo	2023-03-03T00:00:00	2024-11-08T21:00:00	2	Temperatura media	18.4
180186	7	Sololá	716	San Marcos la Laguna 	11	San Marcos la laguna 	3	Marzo	2023-03-03T00:00:00	2024-11-08T21:00:00	4	Temperatura máxima	18.9
180187	7	Sololá	716	San Marcos la Laguna 	11	San Marcos la laguna 	3	Marzo	2023-03-03T00:00:00	2024-11-08T21:00:00	3	Temperatura mínima	18.4
180188	7	Sololá	716	San Marcos la Laguna 	11	San Marcos la laguna 	3	Marzo	2023-03-03T00:00:00	2024-11-08T21:00:00	5	Humedad	84
180189	7	Sololá	716	San Marcos la Laguna 	11	San Marcos la laguna 	3	Marzo	2023-03-03T00:00:00	2024-11-08T21:00:00	6	Velocidad del viento	1.6
180190	7	Sololá	716	San Marcos la Laguna 	11	San Marcos la laguna 	3	Marzo	2023-03-03T00:00:00	2024-11-08T21:00:00	7	Dirección del viento	1.61
180191	7	Sololá	716	San Marcos la Laguna 	11	San Marcos la laguna 	3	Marzo	2023-03-03T00:00:00	2024-11-08T21:00:00	1	Precipitación	0
180192	7	Sololá	716	San Marcos la Laguna 	11	San Marcos la laguna 	3	Marzo	2023-03-03T00:00:00	2024-11-08T21:00:00	8	Radiación solar	0
180193	7	Sololá	716	San Marcos la Laguna 	11	San Marcos la laguna 	3	Marzo	2023-03-03T00:00:00	2024-11-08T22:00:00	2	Temperatura media	17.4
180194	7	Sololá	716	San Marcos la Laguna 	11	San Marcos la laguna 	3	Marzo	2023-03-03T00:00:00	2024-11-08T22:00:00	4	Temperatura máxima	18.4
180195	7	Sololá	716	San Marcos la Laguna 	11	San Marcos la laguna 	3	Marzo	2023-03-03T00:00:00	2024-11-08T22:00:00	3	Temperatura mínima	17.4
180196	7	Sololá	716	San Marcos la Laguna 	11	San Marcos la laguna 	3	Marzo	2023-03-03T00:00:00	2024-11-08T22:00:00	5	Humedad	78
180197	7	Sololá	716	San Marcos la Laguna 	11	San Marcos la laguna 	3	Marzo	2023-03-03T00:00:00	2024-11-08T22:00:00	6	Velocidad del viento	3.2
180198	7	Sololá	716	San Marcos la Laguna 	11	San Marcos la laguna 	3	Marzo	2023-03-03T00:00:00	2024-11-08T22:00:00	7	Dirección del viento	3.22
180199	7	Sololá	716	San Marcos la Laguna 	11	San Marcos la laguna 	3	Marzo	2023-03-03T00:00:00	2024-11-08T22:00:00	1	Precipitación	0
180200	7	Sololá	716	San Marcos la Laguna 	11	San Marcos la laguna 	3	Marzo	2023-03-03T00:00:00	2024-11-08T22:00:00	8	Radiación solar	0
180201	7	Sololá	716	San Marcos la Laguna 	11	San Marcos la laguna 	3	Marzo	2023-03-03T00:00:00	2024-11-08T23:00:00	2	Temperatura media	16.7
180202	7	Sololá	716	San Marcos la Laguna 	11	San Marcos la laguna 	3	Marzo	2023-03-03T00:00:00	2024-11-08T23:00:00	4	Temperatura máxima	17.4
180203	7	Sololá	716	San Marcos la Laguna 	11	San Marcos la laguna 	3	Marzo	2023-03-03T00:00:00	2024-11-08T23:00:00	3	Temperatura mínima	16.6
180204	7	Sololá	716	San Marcos la Laguna 	11	San Marcos la laguna 	3	Marzo	2023-03-03T00:00:00	2024-11-08T23:00:00	5	Humedad	81
180205	7	Sololá	716	San Marcos la Laguna 	11	San Marcos la laguna 	3	Marzo	2023-03-03T00:00:00	2024-11-08T23:00:00	6	Velocidad del viento	4.8
180206	7	Sololá	716	San Marcos la Laguna 	11	San Marcos la laguna 	3	Marzo	2023-03-03T00:00:00	2024-11-08T23:00:00	7	Dirección del viento	4.83
180207	7	Sololá	716	San Marcos la Laguna 	11	San Marcos la laguna 	3	Marzo	2023-03-03T00:00:00	2024-11-08T23:00:00	1	Precipitación	0
180208	7	Sololá	716	San Marcos la Laguna 	11	San Marcos la laguna 	3	Marzo	2023-03-03T00:00:00	2024-11-08T23:00:00	8	Radiación solar	0
180209	7	Sololá	716	San Marcos la Laguna 	11	San Marcos la laguna 	3	Marzo	2023-04-03T00:00:00	2024-11-08T00:00:00	2	Temperatura media	16.4
180210	7	Sololá	716	San Marcos la Laguna 	11	San Marcos la laguna 	3	Marzo	2023-04-03T00:00:00	2024-11-08T00:00:00	4	Temperatura máxima	16.7
180211	7	Sololá	716	San Marcos la Laguna 	11	San Marcos la laguna 	3	Marzo	2023-04-03T00:00:00	2024-11-08T00:00:00	3	Temperatura mínima	16.1
180212	7	Sololá	716	San Marcos la Laguna 	11	San Marcos la laguna 	3	Marzo	2023-04-03T00:00:00	2024-11-08T00:00:00	5	Humedad	84
180213	7	Sololá	716	San Marcos la Laguna 	11	San Marcos la laguna 	3	Marzo	2023-04-03T00:00:00	2024-11-08T00:00:00	6	Velocidad del viento	4.8
180214	7	Sololá	716	San Marcos la Laguna 	11	San Marcos la laguna 	3	Marzo	2023-04-03T00:00:00	2024-11-08T00:00:00	7	Dirección del viento	4.83
180215	7	Sololá	716	San Marcos la Laguna 	11	San Marcos la laguna 	3	Marzo	2023-04-03T00:00:00	2024-11-08T00:00:00	1	Precipitación	0
180216	7	Sololá	716	San Marcos la Laguna 	11	San Marcos la laguna 	3	Marzo	2023-04-03T00:00:00	2024-11-08T00:00:00	8	Radiación solar	0
180217	7	Sololá	716	San Marcos la Laguna 	11	San Marcos la laguna 	3	Marzo	2023-04-03T00:00:00	2024-11-08T01:00:00	2	Temperatura media	16.6
180218	7	Sololá	716	San Marcos la Laguna 	11	San Marcos la laguna 	3	Marzo	2023-04-03T00:00:00	2024-11-08T01:00:00	4	Temperatura máxima	17.1
180219	7	Sololá	716	San Marcos la Laguna 	11	San Marcos la laguna 	3	Marzo	2023-04-03T00:00:00	2024-11-08T01:00:00	3	Temperatura mínima	16.4
180220	7	Sololá	716	San Marcos la Laguna 	11	San Marcos la laguna 	3	Marzo	2023-04-03T00:00:00	2024-11-08T01:00:00	5	Humedad	79
180221	7	Sololá	716	San Marcos la Laguna 	11	San Marcos la laguna 	3	Marzo	2023-04-03T00:00:00	2024-11-08T01:00:00	6	Velocidad del viento	4.8
180222	7	Sololá	716	San Marcos la Laguna 	11	San Marcos la laguna 	3	Marzo	2023-04-03T00:00:00	2024-11-08T01:00:00	7	Dirección del viento	4.83
180223	7	Sololá	716	San Marcos la Laguna 	11	San Marcos la laguna 	3	Marzo	2023-04-03T00:00:00	2024-11-08T01:00:00	1	Precipitación	0
180224	7	Sololá	716	San Marcos la Laguna 	11	San Marcos la laguna 	3	Marzo	2023-04-03T00:00:00	2024-11-08T01:00:00	8	Radiación solar	0
180225	7	Sololá	716	San Marcos la Laguna 	11	San Marcos la laguna 	3	Marzo	2023-04-03T00:00:00	2024-11-08T02:00:00	2	Temperatura media	15.7
180226	7	Sololá	716	San Marcos la Laguna 	11	San Marcos la laguna 	3	Marzo	2023-04-03T00:00:00	2024-11-08T02:00:00	4	Temperatura máxima	16.6
180227	7	Sololá	716	San Marcos la Laguna 	11	San Marcos la laguna 	3	Marzo	2023-04-03T00:00:00	2024-11-08T02:00:00	3	Temperatura mínima	15.7
180228	7	Sololá	716	San Marcos la Laguna 	11	San Marcos la laguna 	3	Marzo	2023-04-03T00:00:00	2024-11-08T02:00:00	5	Humedad	84
180229	7	Sololá	716	San Marcos la Laguna 	11	San Marcos la laguna 	3	Marzo	2023-04-03T00:00:00	2024-11-08T02:00:00	6	Velocidad del viento	6.4
180230	7	Sololá	716	San Marcos la Laguna 	11	San Marcos la laguna 	3	Marzo	2023-04-03T00:00:00	2024-11-08T02:00:00	7	Dirección del viento	6.44
180231	7	Sololá	716	San Marcos la Laguna 	11	San Marcos la laguna 	3	Marzo	2023-04-03T00:00:00	2024-11-08T02:00:00	1	Precipitación	0
180232	7	Sololá	716	San Marcos la Laguna 	11	San Marcos la laguna 	3	Marzo	2023-04-03T00:00:00	2024-11-08T02:00:00	8	Radiación solar	0
180233	7	Sololá	716	San Marcos la Laguna 	11	San Marcos la laguna 	3	Marzo	2023-04-03T00:00:00	2024-11-08T03:00:00	2	Temperatura media	16.5
180234	7	Sololá	716	San Marcos la Laguna 	11	San Marcos la laguna 	3	Marzo	2023-04-03T00:00:00	2024-11-08T03:00:00	4	Temperatura máxima	16.5
180235	7	Sololá	716	San Marcos la Laguna 	11	San Marcos la laguna 	3	Marzo	2023-04-03T00:00:00	2024-11-08T03:00:00	3	Temperatura mínima	15.7
180236	7	Sololá	716	San Marcos la Laguna 	11	San Marcos la laguna 	3	Marzo	2023-04-03T00:00:00	2024-11-08T03:00:00	5	Humedad	82
180237	7	Sololá	716	San Marcos la Laguna 	11	San Marcos la laguna 	3	Marzo	2023-04-03T00:00:00	2024-11-08T03:00:00	6	Velocidad del viento	4.8
180238	7	Sololá	716	San Marcos la Laguna 	11	San Marcos la laguna 	3	Marzo	2023-04-03T00:00:00	2024-11-08T03:00:00	7	Dirección del viento	4.83
180239	7	Sololá	716	San Marcos la Laguna 	11	San Marcos la laguna 	3	Marzo	2023-04-03T00:00:00	2024-11-08T03:00:00	1	Precipitación	0
180240	7	Sololá	716	San Marcos la Laguna 	11	San Marcos la laguna 	3	Marzo	2023-04-03T00:00:00	2024-11-08T03:00:00	8	Radiación solar	0
180241	7	Sololá	716	San Marcos la Laguna 	11	San Marcos la laguna 	3	Marzo	2023-04-03T00:00:00	2024-11-08T04:00:00	2	Temperatura media	16.1
180242	7	Sololá	716	San Marcos la Laguna 	11	San Marcos la laguna 	3	Marzo	2023-04-03T00:00:00	2024-11-08T04:00:00	4	Temperatura máxima	16.6
180243	7	Sololá	716	San Marcos la Laguna 	11	San Marcos la laguna 	3	Marzo	2023-04-03T00:00:00	2024-11-08T04:00:00	3	Temperatura mínima	16.1
180244	7	Sololá	716	San Marcos la Laguna 	11	San Marcos la laguna 	3	Marzo	2023-04-03T00:00:00	2024-11-08T04:00:00	5	Humedad	81
180245	7	Sololá	716	San Marcos la Laguna 	11	San Marcos la laguna 	3	Marzo	2023-04-03T00:00:00	2024-11-08T04:00:00	6	Velocidad del viento	4.8
180246	7	Sololá	716	San Marcos la Laguna 	11	San Marcos la laguna 	3	Marzo	2023-04-03T00:00:00	2024-11-08T04:00:00	7	Dirección del viento	4.83
180247	7	Sololá	716	San Marcos la Laguna 	11	San Marcos la laguna 	3	Marzo	2023-04-03T00:00:00	2024-11-08T04:00:00	1	Precipitación	0
180248	7	Sololá	716	San Marcos la Laguna 	11	San Marcos la laguna 	3	Marzo	2023-04-03T00:00:00	2024-11-08T04:00:00	8	Radiación solar	0
180249	7	Sololá	716	San Marcos la Laguna 	11	San Marcos la laguna 	3	Marzo	2023-04-03T00:00:00	2024-11-08T05:00:00	2	Temperatura media	15.6
180250	7	Sololá	716	San Marcos la Laguna 	11	San Marcos la laguna 	3	Marzo	2023-04-03T00:00:00	2024-11-08T05:00:00	4	Temperatura máxima	16.1
180251	7	Sololá	716	San Marcos la Laguna 	11	San Marcos la laguna 	3	Marzo	2023-04-03T00:00:00	2024-11-08T05:00:00	3	Temperatura mínima	15.6
180252	7	Sololá	716	San Marcos la Laguna 	11	San Marcos la laguna 	3	Marzo	2023-04-03T00:00:00	2024-11-08T05:00:00	5	Humedad	82
180253	7	Sololá	716	San Marcos la Laguna 	11	San Marcos la laguna 	3	Marzo	2023-04-03T00:00:00	2024-11-08T05:00:00	6	Velocidad del viento	6.4
180254	7	Sololá	716	San Marcos la Laguna 	11	San Marcos la laguna 	3	Marzo	2023-04-03T00:00:00	2024-11-08T05:00:00	7	Dirección del viento	6.44
180255	7	Sololá	716	San Marcos la Laguna 	11	San Marcos la laguna 	3	Marzo	2023-04-03T00:00:00	2024-11-08T05:00:00	1	Precipitación	0
180256	7	Sololá	716	San Marcos la Laguna 	11	San Marcos la laguna 	3	Marzo	2023-04-03T00:00:00	2024-11-08T05:00:00	8	Radiación solar	0
180257	7	Sololá	716	San Marcos la Laguna 	11	San Marcos la laguna 	3	Marzo	2023-04-03T00:00:00	2024-11-08T06:00:00	2	Temperatura media	15.2
180258	7	Sololá	716	San Marcos la Laguna 	11	San Marcos la laguna 	3	Marzo	2023-04-03T00:00:00	2024-11-08T06:00:00	4	Temperatura máxima	15.6
180259	7	Sololá	716	San Marcos la Laguna 	11	San Marcos la laguna 	3	Marzo	2023-04-03T00:00:00	2024-11-08T06:00:00	3	Temperatura mínima	14.8
180260	7	Sololá	716	San Marcos la Laguna 	11	San Marcos la laguna 	3	Marzo	2023-04-03T00:00:00	2024-11-08T06:00:00	5	Humedad	83
180261	7	Sololá	716	San Marcos la Laguna 	11	San Marcos la laguna 	3	Marzo	2023-04-03T00:00:00	2024-11-08T06:00:00	6	Velocidad del viento	8
180262	7	Sololá	716	San Marcos la Laguna 	11	San Marcos la laguna 	3	Marzo	2023-04-03T00:00:00	2024-11-08T06:00:00	7	Dirección del viento	8.05
180263	7	Sololá	716	San Marcos la Laguna 	11	San Marcos la laguna 	3	Marzo	2023-04-03T00:00:00	2024-11-08T06:00:00	1	Precipitación	0
180264	7	Sololá	716	San Marcos la Laguna 	11	San Marcos la laguna 	3	Marzo	2023-04-03T00:00:00	2024-11-08T06:00:00	8	Radiación solar	0
180265	7	Sololá	716	San Marcos la Laguna 	11	San Marcos la laguna 	3	Marzo	2023-04-03T00:00:00	2024-11-08T07:00:00	2	Temperatura media	14.6
180266	7	Sololá	716	San Marcos la Laguna 	11	San Marcos la laguna 	3	Marzo	2023-04-03T00:00:00	2024-11-08T07:00:00	4	Temperatura máxima	15.2
180267	7	Sololá	716	San Marcos la Laguna 	11	San Marcos la laguna 	3	Marzo	2023-04-03T00:00:00	2024-11-08T07:00:00	3	Temperatura mínima	14.4
180268	7	Sololá	716	San Marcos la Laguna 	11	San Marcos la laguna 	3	Marzo	2023-04-03T00:00:00	2024-11-08T07:00:00	5	Humedad	80
180269	7	Sololá	716	San Marcos la Laguna 	11	San Marcos la laguna 	3	Marzo	2023-04-03T00:00:00	2024-11-08T07:00:00	6	Velocidad del viento	8
180270	7	Sololá	716	San Marcos la Laguna 	11	San Marcos la laguna 	3	Marzo	2023-04-03T00:00:00	2024-11-08T07:00:00	7	Dirección del viento	8.05
180271	7	Sololá	716	San Marcos la Laguna 	11	San Marcos la laguna 	3	Marzo	2023-04-03T00:00:00	2024-11-08T07:00:00	1	Precipitación	0
180272	7	Sololá	716	San Marcos la Laguna 	11	San Marcos la laguna 	3	Marzo	2023-04-03T00:00:00	2024-11-08T07:00:00	8	Radiación solar	32
180273	7	Sololá	716	San Marcos la Laguna 	11	San Marcos la laguna 	3	Marzo	2023-04-03T00:00:00	2024-11-08T08:00:00	2	Temperatura media	17.8
180274	7	Sololá	716	San Marcos la Laguna 	11	San Marcos la laguna 	3	Marzo	2023-04-03T00:00:00	2024-11-08T08:00:00	4	Temperatura máxima	17.8
180275	7	Sololá	716	San Marcos la Laguna 	11	San Marcos la laguna 	3	Marzo	2023-04-03T00:00:00	2024-11-08T08:00:00	3	Temperatura mínima	14.6
180276	7	Sololá	716	San Marcos la Laguna 	11	San Marcos la laguna 	3	Marzo	2023-04-03T00:00:00	2024-11-08T08:00:00	5	Humedad	79
180277	7	Sololá	716	San Marcos la Laguna 	11	San Marcos la laguna 	3	Marzo	2023-04-03T00:00:00	2024-11-08T08:00:00	6	Velocidad del viento	3.2
180278	7	Sololá	716	San Marcos la Laguna 	11	San Marcos la laguna 	3	Marzo	2023-04-03T00:00:00	2024-11-08T08:00:00	7	Dirección del viento	3.22
180279	7	Sololá	716	San Marcos la Laguna 	11	San Marcos la laguna 	3	Marzo	2023-04-03T00:00:00	2024-11-08T08:00:00	1	Precipitación	0
180280	7	Sololá	716	San Marcos la Laguna 	11	San Marcos la laguna 	3	Marzo	2023-04-03T00:00:00	2024-11-08T08:00:00	8	Radiación solar	207
180281	7	Sololá	716	San Marcos la Laguna 	11	San Marcos la laguna 	3	Marzo	2023-04-03T00:00:00	2024-11-08T09:00:00	2	Temperatura media	20.1
180282	7	Sololá	716	San Marcos la Laguna 	11	San Marcos la laguna 	3	Marzo	2023-04-03T00:00:00	2024-11-08T09:00:00	4	Temperatura máxima	20.1
180283	7	Sololá	716	San Marcos la Laguna 	11	San Marcos la laguna 	3	Marzo	2023-04-03T00:00:00	2024-11-08T09:00:00	3	Temperatura mínima	17.8
180284	7	Sololá	716	San Marcos la Laguna 	11	San Marcos la laguna 	3	Marzo	2023-04-03T00:00:00	2024-11-08T09:00:00	5	Humedad	73
180285	7	Sololá	716	San Marcos la Laguna 	11	San Marcos la laguna 	3	Marzo	2023-04-03T00:00:00	2024-11-08T09:00:00	6	Velocidad del viento	3.2
180286	7	Sololá	716	San Marcos la Laguna 	11	San Marcos la laguna 	3	Marzo	2023-04-03T00:00:00	2024-11-08T09:00:00	7	Dirección del viento	3.22
180287	7	Sololá	716	San Marcos la Laguna 	11	San Marcos la laguna 	3	Marzo	2023-04-03T00:00:00	2024-11-08T09:00:00	1	Precipitación	0
180288	7	Sololá	716	San Marcos la Laguna 	11	San Marcos la laguna 	3	Marzo	2023-04-03T00:00:00	2024-11-08T09:00:00	8	Radiación solar	461
180289	7	Sololá	716	San Marcos la Laguna 	11	San Marcos la laguna 	3	Marzo	2023-04-03T00:00:00	2024-11-08T10:00:00	2	Temperatura media	21.9
180290	7	Sololá	716	San Marcos la Laguna 	11	San Marcos la laguna 	3	Marzo	2023-04-03T00:00:00	2024-11-08T10:00:00	4	Temperatura máxima	21.9
180291	7	Sololá	716	San Marcos la Laguna 	11	San Marcos la laguna 	3	Marzo	2023-04-03T00:00:00	2024-11-08T10:00:00	3	Temperatura mínima	20.2
180292	7	Sololá	716	San Marcos la Laguna 	11	San Marcos la laguna 	3	Marzo	2023-04-03T00:00:00	2024-11-08T10:00:00	5	Humedad	65
180293	7	Sololá	716	San Marcos la Laguna 	11	San Marcos la laguna 	3	Marzo	2023-04-03T00:00:00	2024-11-08T10:00:00	6	Velocidad del viento	3.2
180294	7	Sololá	716	San Marcos la Laguna 	11	San Marcos la laguna 	3	Marzo	2023-04-03T00:00:00	2024-11-08T10:00:00	7	Dirección del viento	3.22
180295	7	Sololá	716	San Marcos la Laguna 	11	San Marcos la laguna 	3	Marzo	2023-04-03T00:00:00	2024-11-08T10:00:00	1	Precipitación	0
180296	7	Sololá	716	San Marcos la Laguna 	11	San Marcos la laguna 	3	Marzo	2023-04-03T00:00:00	2024-11-08T10:00:00	8	Radiación solar	669
180297	7	Sololá	716	San Marcos la Laguna 	11	San Marcos la laguna 	3	Marzo	2023-04-03T00:00:00	2024-11-08T11:00:00	2	Temperatura media	21.2
180298	7	Sololá	716	San Marcos la Laguna 	11	San Marcos la laguna 	3	Marzo	2023-04-03T00:00:00	2024-11-08T11:00:00	4	Temperatura máxima	22
180299	7	Sololá	716	San Marcos la Laguna 	11	San Marcos la laguna 	3	Marzo	2023-04-03T00:00:00	2024-11-08T11:00:00	3	Temperatura mínima	20.7
180300	7	Sololá	716	San Marcos la Laguna 	11	San Marcos la laguna 	3	Marzo	2023-04-03T00:00:00	2024-11-08T11:00:00	5	Humedad	70
180301	7	Sololá	716	San Marcos la Laguna 	11	San Marcos la laguna 	3	Marzo	2023-04-03T00:00:00	2024-11-08T11:00:00	6	Velocidad del viento	9.7
180302	7	Sololá	716	San Marcos la Laguna 	11	San Marcos la laguna 	3	Marzo	2023-04-03T00:00:00	2024-11-08T11:00:00	7	Dirección del viento	9.66
180303	7	Sololá	716	San Marcos la Laguna 	11	San Marcos la laguna 	3	Marzo	2023-04-03T00:00:00	2024-11-08T11:00:00	1	Precipitación	0
180304	7	Sololá	716	San Marcos la Laguna 	11	San Marcos la laguna 	3	Marzo	2023-04-03T00:00:00	2024-11-08T11:00:00	8	Radiación solar	813
180305	7	Sololá	716	San Marcos la Laguna 	11	San Marcos la laguna 	3	Marzo	2023-04-03T00:00:00	2024-11-08T12:00:00	2	Temperatura media	22.5
180306	7	Sololá	716	San Marcos la Laguna 	11	San Marcos la laguna 	3	Marzo	2023-04-03T00:00:00	2024-11-08T12:00:00	4	Temperatura máxima	22.5
180307	7	Sololá	716	San Marcos la Laguna 	11	San Marcos la laguna 	3	Marzo	2023-04-03T00:00:00	2024-11-08T12:00:00	3	Temperatura mínima	21.1
180308	7	Sololá	716	San Marcos la Laguna 	11	San Marcos la laguna 	3	Marzo	2023-04-03T00:00:00	2024-11-08T12:00:00	5	Humedad	64
180309	7	Sololá	716	San Marcos la Laguna 	11	San Marcos la laguna 	3	Marzo	2023-04-03T00:00:00	2024-11-08T12:00:00	6	Velocidad del viento	17.7
180310	7	Sololá	716	San Marcos la Laguna 	11	San Marcos la laguna 	3	Marzo	2023-04-03T00:00:00	2024-11-08T12:00:00	7	Dirección del viento	17.7
180311	7	Sololá	716	San Marcos la Laguna 	11	San Marcos la laguna 	3	Marzo	2023-04-03T00:00:00	2024-11-08T12:00:00	1	Precipitación	0
180312	7	Sololá	716	San Marcos la Laguna 	11	San Marcos la laguna 	3	Marzo	2023-04-03T00:00:00	2024-11-08T12:00:00	8	Radiación solar	905
180313	7	Sololá	716	San Marcos la Laguna 	11	San Marcos la laguna 	3	Marzo	2023-04-03T00:00:00	2024-11-08T13:00:00	2	Temperatura media	23.1
180314	7	Sololá	716	San Marcos la Laguna 	11	San Marcos la laguna 	3	Marzo	2023-04-03T00:00:00	2024-11-08T13:00:00	4	Temperatura máxima	23.2
180315	7	Sololá	716	San Marcos la Laguna 	11	San Marcos la laguna 	3	Marzo	2023-04-03T00:00:00	2024-11-08T13:00:00	3	Temperatura mínima	22.5
180316	7	Sololá	716	San Marcos la Laguna 	11	San Marcos la laguna 	3	Marzo	2023-04-03T00:00:00	2024-11-08T13:00:00	5	Humedad	62
180317	7	Sololá	716	San Marcos la Laguna 	11	San Marcos la laguna 	3	Marzo	2023-04-03T00:00:00	2024-11-08T13:00:00	6	Velocidad del viento	16.1
180318	7	Sololá	716	San Marcos la Laguna 	11	San Marcos la laguna 	3	Marzo	2023-04-03T00:00:00	2024-11-08T13:00:00	7	Dirección del viento	16.09
180319	7	Sololá	716	San Marcos la Laguna 	11	San Marcos la laguna 	3	Marzo	2023-04-03T00:00:00	2024-11-08T13:00:00	1	Precipitación	0
180320	7	Sololá	716	San Marcos la Laguna 	11	San Marcos la laguna 	3	Marzo	2023-04-03T00:00:00	2024-11-08T13:00:00	8	Radiación solar	929
180321	7	Sololá	716	San Marcos la Laguna 	11	San Marcos la laguna 	3	Marzo	2023-04-03T00:00:00	2024-11-08T14:00:00	2	Temperatura media	23.5
180322	7	Sololá	716	San Marcos la Laguna 	11	San Marcos la laguna 	3	Marzo	2023-04-03T00:00:00	2024-11-08T14:00:00	4	Temperatura máxima	23.5
180323	7	Sololá	716	San Marcos la Laguna 	11	San Marcos la laguna 	3	Marzo	2023-04-03T00:00:00	2024-11-08T14:00:00	3	Temperatura mínima	23
180324	7	Sololá	716	San Marcos la Laguna 	11	San Marcos la laguna 	3	Marzo	2023-04-03T00:00:00	2024-11-08T14:00:00	5	Humedad	68
180325	7	Sololá	716	San Marcos la Laguna 	11	San Marcos la laguna 	3	Marzo	2023-04-03T00:00:00	2024-11-08T14:00:00	6	Velocidad del viento	12.9
180326	7	Sololá	716	San Marcos la Laguna 	11	San Marcos la laguna 	3	Marzo	2023-04-03T00:00:00	2024-11-08T14:00:00	7	Dirección del viento	12.87
180327	7	Sololá	716	San Marcos la Laguna 	11	San Marcos la laguna 	3	Marzo	2023-04-03T00:00:00	2024-11-08T14:00:00	1	Precipitación	0
180328	7	Sololá	716	San Marcos la Laguna 	11	San Marcos la laguna 	3	Marzo	2023-04-03T00:00:00	2024-11-08T14:00:00	8	Radiación solar	859
180329	7	Sololá	716	San Marcos la Laguna 	11	San Marcos la laguna 	3	Marzo	2023-04-03T00:00:00	2024-11-08T15:00:00	2	Temperatura media	24.1
180330	7	Sololá	716	San Marcos la Laguna 	11	San Marcos la laguna 	3	Marzo	2023-04-03T00:00:00	2024-11-08T15:00:00	4	Temperatura máxima	24.1
180331	7	Sololá	716	San Marcos la Laguna 	11	San Marcos la laguna 	3	Marzo	2023-04-03T00:00:00	2024-11-08T15:00:00	3	Temperatura mínima	22.9
180332	7	Sololá	716	San Marcos la Laguna 	11	San Marcos la laguna 	3	Marzo	2023-04-03T00:00:00	2024-11-08T15:00:00	5	Humedad	66
180333	7	Sololá	716	San Marcos la Laguna 	11	San Marcos la laguna 	3	Marzo	2023-04-03T00:00:00	2024-11-08T15:00:00	6	Velocidad del viento	8
180334	7	Sololá	716	San Marcos la Laguna 	11	San Marcos la laguna 	3	Marzo	2023-04-03T00:00:00	2024-11-08T15:00:00	7	Dirección del viento	8.05
180335	7	Sololá	716	San Marcos la Laguna 	11	San Marcos la laguna 	3	Marzo	2023-04-03T00:00:00	2024-11-08T15:00:00	1	Precipitación	0
180336	7	Sololá	716	San Marcos la Laguna 	11	San Marcos la laguna 	3	Marzo	2023-04-03T00:00:00	2024-11-08T15:00:00	8	Radiación solar	432
180337	7	Sololá	716	San Marcos la Laguna 	11	San Marcos la laguna 	3	Marzo	2023-04-03T00:00:00	2024-11-08T16:00:00	2	Temperatura media	23.6
180338	7	Sololá	716	San Marcos la Laguna 	11	San Marcos la laguna 	3	Marzo	2023-04-03T00:00:00	2024-11-08T16:00:00	4	Temperatura máxima	24.3
180339	7	Sololá	716	San Marcos la Laguna 	11	San Marcos la laguna 	3	Marzo	2023-04-03T00:00:00	2024-11-08T16:00:00	3	Temperatura mínima	23.2
180340	7	Sololá	716	San Marcos la Laguna 	11	San Marcos la laguna 	3	Marzo	2023-04-03T00:00:00	2024-11-08T16:00:00	5	Humedad	69
180341	7	Sololá	716	San Marcos la Laguna 	11	San Marcos la laguna 	3	Marzo	2023-04-03T00:00:00	2024-11-08T16:00:00	6	Velocidad del viento	6.4
180342	7	Sololá	716	San Marcos la Laguna 	11	San Marcos la laguna 	3	Marzo	2023-04-03T00:00:00	2024-11-08T16:00:00	7	Dirección del viento	6.44
180343	7	Sololá	716	San Marcos la Laguna 	11	San Marcos la laguna 	3	Marzo	2023-04-03T00:00:00	2024-11-08T16:00:00	1	Precipitación	0
180344	7	Sololá	716	San Marcos la Laguna 	11	San Marcos la laguna 	3	Marzo	2023-04-03T00:00:00	2024-11-08T16:00:00	8	Radiación solar	125
180345	7	Sololá	716	San Marcos la Laguna 	11	San Marcos la laguna 	3	Marzo	2023-04-03T00:00:00	2024-11-08T17:00:00	2	Temperatura media	21.9
180346	7	Sololá	716	San Marcos la Laguna 	11	San Marcos la laguna 	3	Marzo	2023-04-03T00:00:00	2024-11-08T17:00:00	4	Temperatura máxima	23.8
180347	7	Sololá	716	San Marcos la Laguna 	11	San Marcos la laguna 	3	Marzo	2023-04-03T00:00:00	2024-11-08T17:00:00	3	Temperatura mínima	21.9
180348	7	Sololá	716	San Marcos la Laguna 	11	San Marcos la laguna 	3	Marzo	2023-04-03T00:00:00	2024-11-08T17:00:00	5	Humedad	74
180349	7	Sololá	716	San Marcos la Laguna 	11	San Marcos la laguna 	3	Marzo	2023-04-03T00:00:00	2024-11-08T17:00:00	6	Velocidad del viento	6.4
180350	7	Sololá	716	San Marcos la Laguna 	11	San Marcos la laguna 	3	Marzo	2023-04-03T00:00:00	2024-11-08T17:00:00	7	Dirección del viento	6.44
180351	7	Sololá	716	San Marcos la Laguna 	11	San Marcos la laguna 	3	Marzo	2023-04-03T00:00:00	2024-11-08T17:00:00	1	Precipitación	0
180352	7	Sololá	716	San Marcos la Laguna 	11	San Marcos la laguna 	3	Marzo	2023-04-03T00:00:00	2024-11-08T17:00:00	8	Radiación solar	129
180353	7	Sololá	716	San Marcos la Laguna 	11	San Marcos la laguna 	3	Marzo	2023-04-03T00:00:00	2024-11-08T18:00:00	2	Temperatura media	20.9
180354	7	Sololá	716	San Marcos la Laguna 	11	San Marcos la laguna 	3	Marzo	2023-04-03T00:00:00	2024-11-08T18:00:00	4	Temperatura máxima	21.9
180355	7	Sololá	716	San Marcos la Laguna 	11	San Marcos la laguna 	3	Marzo	2023-04-03T00:00:00	2024-11-08T18:00:00	3	Temperatura mínima	20.9
180356	7	Sololá	716	San Marcos la Laguna 	11	San Marcos la laguna 	3	Marzo	2023-04-03T00:00:00	2024-11-08T18:00:00	5	Humedad	80
180357	7	Sololá	716	San Marcos la Laguna 	11	San Marcos la laguna 	3	Marzo	2023-04-03T00:00:00	2024-11-08T18:00:00	6	Velocidad del viento	6.4
180358	7	Sololá	716	San Marcos la Laguna 	11	San Marcos la laguna 	3	Marzo	2023-04-03T00:00:00	2024-11-08T18:00:00	7	Dirección del viento	6.44
180359	7	Sololá	716	San Marcos la Laguna 	11	San Marcos la laguna 	3	Marzo	2023-04-03T00:00:00	2024-11-08T18:00:00	1	Precipitación	0
180360	7	Sololá	716	San Marcos la Laguna 	11	San Marcos la laguna 	3	Marzo	2023-04-03T00:00:00	2024-11-08T18:00:00	8	Radiación solar	43
180361	7	Sololá	716	San Marcos la Laguna 	11	San Marcos la laguna 	3	Marzo	2023-04-03T00:00:00	2024-11-08T19:00:00	2	Temperatura media	20
180362	7	Sololá	716	San Marcos la Laguna 	11	San Marcos la laguna 	3	Marzo	2023-04-03T00:00:00	2024-11-08T19:00:00	4	Temperatura máxima	21
180363	7	Sololá	716	San Marcos la Laguna 	11	San Marcos la laguna 	3	Marzo	2023-04-03T00:00:00	2024-11-08T19:00:00	3	Temperatura mínima	19.9
180364	7	Sololá	716	San Marcos la Laguna 	11	San Marcos la laguna 	3	Marzo	2023-04-03T00:00:00	2024-11-08T19:00:00	5	Humedad	79
180365	7	Sololá	716	San Marcos la Laguna 	11	San Marcos la laguna 	3	Marzo	2023-04-03T00:00:00	2024-11-08T19:00:00	6	Velocidad del viento	3.2
180366	7	Sololá	716	San Marcos la Laguna 	11	San Marcos la laguna 	3	Marzo	2023-04-03T00:00:00	2024-11-08T19:00:00	7	Dirección del viento	3.22
180367	7	Sololá	716	San Marcos la Laguna 	11	San Marcos la laguna 	3	Marzo	2023-04-03T00:00:00	2024-11-08T19:00:00	1	Precipitación	0
180368	7	Sololá	716	San Marcos la Laguna 	11	San Marcos la laguna 	3	Marzo	2023-04-03T00:00:00	2024-11-08T19:00:00	8	Radiación solar	0
180369	7	Sololá	716	San Marcos la Laguna 	11	San Marcos la laguna 	3	Marzo	2023-04-03T00:00:00	2024-11-08T20:00:00	2	Temperatura media	20.2
180370	7	Sololá	716	San Marcos la Laguna 	11	San Marcos la laguna 	3	Marzo	2023-04-03T00:00:00	2024-11-08T20:00:00	4	Temperatura máxima	20.3
180371	7	Sololá	716	San Marcos la Laguna 	11	San Marcos la laguna 	3	Marzo	2023-04-03T00:00:00	2024-11-08T20:00:00	3	Temperatura mínima	19.9
180372	7	Sololá	716	San Marcos la Laguna 	11	San Marcos la laguna 	3	Marzo	2023-04-03T00:00:00	2024-11-08T20:00:00	5	Humedad	77
180373	7	Sololá	716	San Marcos la Laguna 	11	San Marcos la laguna 	3	Marzo	2023-04-03T00:00:00	2024-11-08T20:00:00	6	Velocidad del viento	4.8
180374	7	Sololá	716	San Marcos la Laguna 	11	San Marcos la laguna 	3	Marzo	2023-04-03T00:00:00	2024-11-08T20:00:00	7	Dirección del viento	4.83
180375	7	Sololá	716	San Marcos la Laguna 	11	San Marcos la laguna 	3	Marzo	2023-04-03T00:00:00	2024-11-08T20:00:00	1	Precipitación	0
180376	7	Sololá	716	San Marcos la Laguna 	11	San Marcos la laguna 	3	Marzo	2023-04-03T00:00:00	2024-11-08T20:00:00	8	Radiación solar	0
180377	7	Sololá	716	San Marcos la Laguna 	11	San Marcos la laguna 	3	Marzo	2023-04-03T00:00:00	2024-11-08T21:00:00	2	Temperatura media	19.7
180378	7	Sololá	716	San Marcos la Laguna 	11	San Marcos la laguna 	3	Marzo	2023-04-03T00:00:00	2024-11-08T21:00:00	4	Temperatura máxima	20.3
180379	7	Sololá	716	San Marcos la Laguna 	11	San Marcos la laguna 	3	Marzo	2023-04-03T00:00:00	2024-11-08T21:00:00	3	Temperatura mínima	19.4
180380	7	Sololá	716	San Marcos la Laguna 	11	San Marcos la laguna 	3	Marzo	2023-04-03T00:00:00	2024-11-08T21:00:00	5	Humedad	80
180381	7	Sololá	716	San Marcos la Laguna 	11	San Marcos la laguna 	3	Marzo	2023-04-03T00:00:00	2024-11-08T21:00:00	6	Velocidad del viento	3.2
180382	7	Sololá	716	San Marcos la Laguna 	11	San Marcos la laguna 	3	Marzo	2023-04-03T00:00:00	2024-11-08T21:00:00	7	Dirección del viento	3.22
180383	7	Sololá	716	San Marcos la Laguna 	11	San Marcos la laguna 	3	Marzo	2023-04-03T00:00:00	2024-11-08T21:00:00	1	Precipitación	0
180384	7	Sololá	716	San Marcos la Laguna 	11	San Marcos la laguna 	3	Marzo	2023-04-03T00:00:00	2024-11-08T21:00:00	8	Radiación solar	0
180385	7	Sololá	716	San Marcos la Laguna 	11	San Marcos la laguna 	3	Marzo	2023-04-03T00:00:00	2024-11-08T22:00:00	2	Temperatura media	19.4
180386	7	Sololá	716	San Marcos la Laguna 	11	San Marcos la laguna 	3	Marzo	2023-04-03T00:00:00	2024-11-08T22:00:00	4	Temperatura máxima	19.8
180387	7	Sololá	716	San Marcos la Laguna 	11	San Marcos la laguna 	3	Marzo	2023-04-03T00:00:00	2024-11-08T22:00:00	3	Temperatura mínima	19.4
180388	7	Sololá	716	San Marcos la Laguna 	11	San Marcos la laguna 	3	Marzo	2023-04-03T00:00:00	2024-11-08T22:00:00	5	Humedad	81
180389	7	Sololá	716	San Marcos la Laguna 	11	San Marcos la laguna 	3	Marzo	2023-04-03T00:00:00	2024-11-08T22:00:00	6	Velocidad del viento	3.2
180390	7	Sololá	716	San Marcos la Laguna 	11	San Marcos la laguna 	3	Marzo	2023-04-03T00:00:00	2024-11-08T22:00:00	7	Dirección del viento	3.22
180391	7	Sololá	716	San Marcos la Laguna 	11	San Marcos la laguna 	3	Marzo	2023-04-03T00:00:00	2024-11-08T22:00:00	1	Precipitación	0
180392	7	Sololá	716	San Marcos la Laguna 	11	San Marcos la laguna 	3	Marzo	2023-04-03T00:00:00	2024-11-08T22:00:00	8	Radiación solar	0
180393	7	Sololá	716	San Marcos la Laguna 	11	San Marcos la laguna 	3	Marzo	2023-04-03T00:00:00	2024-11-08T23:00:00	2	Temperatura media	18.4
180394	7	Sololá	716	San Marcos la Laguna 	11	San Marcos la laguna 	3	Marzo	2023-04-03T00:00:00	2024-11-08T23:00:00	4	Temperatura máxima	19.4
180395	7	Sololá	716	San Marcos la Laguna 	11	San Marcos la laguna 	3	Marzo	2023-04-03T00:00:00	2024-11-08T23:00:00	3	Temperatura mínima	18.4
180396	7	Sololá	716	San Marcos la Laguna 	11	San Marcos la laguna 	3	Marzo	2023-04-03T00:00:00	2024-11-08T23:00:00	5	Humedad	81
180397	7	Sololá	716	San Marcos la Laguna 	11	San Marcos la laguna 	3	Marzo	2023-04-03T00:00:00	2024-11-08T23:00:00	6	Velocidad del viento	4.8
180398	7	Sololá	716	San Marcos la Laguna 	11	San Marcos la laguna 	3	Marzo	2023-04-03T00:00:00	2024-11-08T23:00:00	7	Dirección del viento	4.83
180399	7	Sololá	716	San Marcos la Laguna 	11	San Marcos la laguna 	3	Marzo	2023-04-03T00:00:00	2024-11-08T23:00:00	1	Precipitación	0
180400	7	Sololá	716	San Marcos la Laguna 	11	San Marcos la laguna 	3	Marzo	2023-04-03T00:00:00	2024-11-08T23:00:00	8	Radiación solar	0
180401	7	Sololá	716	San Marcos la Laguna 	11	San Marcos la laguna 	3	Marzo	2023-05-03T00:00:00	2024-11-08T00:00:00	2	Temperatura media	17.8
180402	7	Sololá	716	San Marcos la Laguna 	11	San Marcos la laguna 	3	Marzo	2023-05-03T00:00:00	2024-11-08T00:00:00	4	Temperatura máxima	18.4
180403	7	Sololá	716	San Marcos la Laguna 	11	San Marcos la laguna 	3	Marzo	2023-05-03T00:00:00	2024-11-08T00:00:00	3	Temperatura mínima	17.8
180404	7	Sololá	716	San Marcos la Laguna 	11	San Marcos la laguna 	3	Marzo	2023-05-03T00:00:00	2024-11-08T00:00:00	5	Humedad	81
180405	7	Sololá	716	San Marcos la Laguna 	11	San Marcos la laguna 	3	Marzo	2023-05-03T00:00:00	2024-11-08T00:00:00	6	Velocidad del viento	6.4
180406	7	Sololá	716	San Marcos la Laguna 	11	San Marcos la laguna 	3	Marzo	2023-05-03T00:00:00	2024-11-08T00:00:00	7	Dirección del viento	6.44
180407	7	Sololá	716	San Marcos la Laguna 	11	San Marcos la laguna 	3	Marzo	2023-05-03T00:00:00	2024-11-08T00:00:00	1	Precipitación	0
180408	7	Sololá	716	San Marcos la Laguna 	11	San Marcos la laguna 	3	Marzo	2023-05-03T00:00:00	2024-11-08T00:00:00	8	Radiación solar	0
180409	7	Sololá	716	San Marcos la Laguna 	11	San Marcos la laguna 	3	Marzo	2023-05-03T00:00:00	2024-11-08T01:00:00	2	Temperatura media	17.4
180410	7	Sololá	716	San Marcos la Laguna 	11	San Marcos la laguna 	3	Marzo	2023-05-03T00:00:00	2024-11-08T01:00:00	4	Temperatura máxima	17.8
180411	7	Sololá	716	San Marcos la Laguna 	11	San Marcos la laguna 	3	Marzo	2023-05-03T00:00:00	2024-11-08T01:00:00	3	Temperatura mínima	17.4
180412	7	Sololá	716	San Marcos la Laguna 	11	San Marcos la laguna 	3	Marzo	2023-05-03T00:00:00	2024-11-08T01:00:00	5	Humedad	82
180413	7	Sololá	716	San Marcos la Laguna 	11	San Marcos la laguna 	3	Marzo	2023-05-03T00:00:00	2024-11-08T01:00:00	6	Velocidad del viento	6.4
180414	7	Sololá	716	San Marcos la Laguna 	11	San Marcos la laguna 	3	Marzo	2023-05-03T00:00:00	2024-11-08T01:00:00	7	Dirección del viento	6.44
180415	7	Sololá	716	San Marcos la Laguna 	11	San Marcos la laguna 	3	Marzo	2023-05-03T00:00:00	2024-11-08T01:00:00	1	Precipitación	0
180416	7	Sololá	716	San Marcos la Laguna 	11	San Marcos la laguna 	3	Marzo	2023-05-03T00:00:00	2024-11-08T01:00:00	8	Radiación solar	0
180417	7	Sololá	716	San Marcos la Laguna 	11	San Marcos la laguna 	3	Marzo	2023-05-03T00:00:00	2024-11-08T02:00:00	2	Temperatura media	17.8
180418	7	Sololá	716	San Marcos la Laguna 	11	San Marcos la laguna 	3	Marzo	2023-05-03T00:00:00	2024-11-08T02:00:00	4	Temperatura máxima	17.8
180419	7	Sololá	716	San Marcos la Laguna 	11	San Marcos la laguna 	3	Marzo	2023-05-03T00:00:00	2024-11-08T02:00:00	3	Temperatura mínima	17.4
180420	7	Sololá	716	San Marcos la Laguna 	11	San Marcos la laguna 	3	Marzo	2023-05-03T00:00:00	2024-11-08T02:00:00	5	Humedad	78
180421	7	Sololá	716	San Marcos la Laguna 	11	San Marcos la laguna 	3	Marzo	2023-05-03T00:00:00	2024-11-08T02:00:00	6	Velocidad del viento	8
180422	7	Sololá	716	San Marcos la Laguna 	11	San Marcos la laguna 	3	Marzo	2023-05-03T00:00:00	2024-11-08T02:00:00	7	Dirección del viento	8.05
180423	7	Sololá	716	San Marcos la Laguna 	11	San Marcos la laguna 	3	Marzo	2023-05-03T00:00:00	2024-11-08T02:00:00	1	Precipitación	0
180424	7	Sololá	716	San Marcos la Laguna 	11	San Marcos la laguna 	3	Marzo	2023-05-03T00:00:00	2024-11-08T02:00:00	8	Radiación solar	0
180425	7	Sololá	716	San Marcos la Laguna 	11	San Marcos la laguna 	3	Marzo	2023-05-03T00:00:00	2024-11-08T03:00:00	2	Temperatura media	17.3
180426	7	Sololá	716	San Marcos la Laguna 	11	San Marcos la laguna 	3	Marzo	2023-05-03T00:00:00	2024-11-08T03:00:00	4	Temperatura máxima	17.8
180427	7	Sololá	716	San Marcos la Laguna 	11	San Marcos la laguna 	3	Marzo	2023-05-03T00:00:00	2024-11-08T03:00:00	3	Temperatura mínima	16.9
180428	7	Sololá	716	San Marcos la Laguna 	11	San Marcos la laguna 	3	Marzo	2023-05-03T00:00:00	2024-11-08T03:00:00	5	Humedad	79
180429	7	Sololá	716	San Marcos la Laguna 	11	San Marcos la laguna 	3	Marzo	2023-05-03T00:00:00	2024-11-08T03:00:00	6	Velocidad del viento	6.4
180430	7	Sololá	716	San Marcos la Laguna 	11	San Marcos la laguna 	3	Marzo	2023-05-03T00:00:00	2024-11-08T03:00:00	7	Dirección del viento	6.44
180431	7	Sololá	716	San Marcos la Laguna 	11	San Marcos la laguna 	3	Marzo	2023-05-03T00:00:00	2024-11-08T03:00:00	1	Precipitación	0
180432	7	Sololá	716	San Marcos la Laguna 	11	San Marcos la laguna 	3	Marzo	2023-05-03T00:00:00	2024-11-08T03:00:00	8	Radiación solar	0
180433	7	Sololá	716	San Marcos la Laguna 	11	San Marcos la laguna 	3	Marzo	2023-05-03T00:00:00	2024-11-08T04:00:00	2	Temperatura media	16.9
180434	7	Sololá	716	San Marcos la Laguna 	11	San Marcos la laguna 	3	Marzo	2023-05-03T00:00:00	2024-11-08T04:00:00	4	Temperatura máxima	17.3
180435	7	Sololá	716	San Marcos la Laguna 	11	San Marcos la laguna 	3	Marzo	2023-05-03T00:00:00	2024-11-08T04:00:00	3	Temperatura mínima	16.6
180436	7	Sololá	716	San Marcos la Laguna 	11	San Marcos la laguna 	3	Marzo	2023-05-03T00:00:00	2024-11-08T04:00:00	5	Humedad	79
180437	7	Sololá	716	San Marcos la Laguna 	11	San Marcos la laguna 	3	Marzo	2023-05-03T00:00:00	2024-11-08T04:00:00	6	Velocidad del viento	8
180438	7	Sololá	716	San Marcos la Laguna 	11	San Marcos la laguna 	3	Marzo	2023-05-03T00:00:00	2024-11-08T04:00:00	7	Dirección del viento	8.05
180439	7	Sololá	716	San Marcos la Laguna 	11	San Marcos la laguna 	3	Marzo	2023-05-03T00:00:00	2024-11-08T04:00:00	1	Precipitación	0
180440	7	Sololá	716	San Marcos la Laguna 	11	San Marcos la laguna 	3	Marzo	2023-05-03T00:00:00	2024-11-08T04:00:00	8	Radiación solar	0
180441	7	Sololá	716	San Marcos la Laguna 	11	San Marcos la laguna 	3	Marzo	2023-05-03T00:00:00	2024-11-08T05:00:00	2	Temperatura media	16.6
180442	7	Sololá	716	San Marcos la Laguna 	11	San Marcos la laguna 	3	Marzo	2023-05-03T00:00:00	2024-11-08T05:00:00	4	Temperatura máxima	16.9
180443	7	Sololá	716	San Marcos la Laguna 	11	San Marcos la laguna 	3	Marzo	2023-05-03T00:00:00	2024-11-08T05:00:00	3	Temperatura mínima	16.4
180444	7	Sololá	716	San Marcos la Laguna 	11	San Marcos la laguna 	3	Marzo	2023-05-03T00:00:00	2024-11-08T05:00:00	5	Humedad	79
180445	7	Sololá	716	San Marcos la Laguna 	11	San Marcos la laguna 	3	Marzo	2023-05-03T00:00:00	2024-11-08T05:00:00	6	Velocidad del viento	6.4
180446	7	Sololá	716	San Marcos la Laguna 	11	San Marcos la laguna 	3	Marzo	2023-05-03T00:00:00	2024-11-08T05:00:00	7	Dirección del viento	6.44
180447	7	Sololá	716	San Marcos la Laguna 	11	San Marcos la laguna 	3	Marzo	2023-05-03T00:00:00	2024-11-08T05:00:00	1	Precipitación	0
180448	7	Sololá	716	San Marcos la Laguna 	11	San Marcos la laguna 	3	Marzo	2023-05-03T00:00:00	2024-11-08T05:00:00	8	Radiación solar	0
180449	7	Sololá	716	San Marcos la Laguna 	11	San Marcos la laguna 	3	Marzo	2023-05-03T00:00:00	2024-11-08T06:00:00	2	Temperatura media	15.9
180450	7	Sololá	716	San Marcos la Laguna 	11	San Marcos la laguna 	3	Marzo	2023-05-03T00:00:00	2024-11-08T06:00:00	4	Temperatura máxima	16.7
180451	7	Sololá	716	San Marcos la Laguna 	11	San Marcos la laguna 	3	Marzo	2023-05-03T00:00:00	2024-11-08T06:00:00	3	Temperatura mínima	15.9
180452	7	Sololá	716	San Marcos la Laguna 	11	San Marcos la laguna 	3	Marzo	2023-05-03T00:00:00	2024-11-08T06:00:00	5	Humedad	79
180453	7	Sololá	716	San Marcos la Laguna 	11	San Marcos la laguna 	3	Marzo	2023-05-03T00:00:00	2024-11-08T06:00:00	6	Velocidad del viento	8
180454	7	Sololá	716	San Marcos la Laguna 	11	San Marcos la laguna 	3	Marzo	2023-05-03T00:00:00	2024-11-08T06:00:00	7	Dirección del viento	8.05
180455	7	Sololá	716	San Marcos la Laguna 	11	San Marcos la laguna 	3	Marzo	2023-05-03T00:00:00	2024-11-08T06:00:00	1	Precipitación	0
180456	7	Sololá	716	San Marcos la Laguna 	11	San Marcos la laguna 	3	Marzo	2023-05-03T00:00:00	2024-11-08T06:00:00	8	Radiación solar	0
180457	7	Sololá	716	San Marcos la Laguna 	11	San Marcos la laguna 	3	Marzo	2023-05-03T00:00:00	2024-11-08T07:00:00	2	Temperatura media	16.4
180458	7	Sololá	716	San Marcos la Laguna 	11	San Marcos la laguna 	3	Marzo	2023-05-03T00:00:00	2024-11-08T07:00:00	4	Temperatura máxima	16.5
180459	7	Sololá	716	San Marcos la Laguna 	11	San Marcos la laguna 	3	Marzo	2023-05-03T00:00:00	2024-11-08T07:00:00	3	Temperatura mínima	15.7
180460	7	Sololá	716	San Marcos la Laguna 	11	San Marcos la laguna 	3	Marzo	2023-05-03T00:00:00	2024-11-08T07:00:00	5	Humedad	79
180461	7	Sololá	716	San Marcos la Laguna 	11	San Marcos la laguna 	3	Marzo	2023-05-03T00:00:00	2024-11-08T07:00:00	6	Velocidad del viento	8
180462	7	Sololá	716	San Marcos la Laguna 	11	San Marcos la laguna 	3	Marzo	2023-05-03T00:00:00	2024-11-08T07:00:00	7	Dirección del viento	8.05
180463	7	Sololá	716	San Marcos la Laguna 	11	San Marcos la laguna 	3	Marzo	2023-05-03T00:00:00	2024-11-08T07:00:00	1	Precipitación	0
180464	7	Sololá	716	San Marcos la Laguna 	11	San Marcos la laguna 	3	Marzo	2023-05-03T00:00:00	2024-11-08T07:00:00	8	Radiación solar	34
180465	7	Sololá	716	San Marcos la Laguna 	11	San Marcos la laguna 	3	Marzo	2023-05-03T00:00:00	2024-11-08T08:00:00	2	Temperatura media	19.3
180466	7	Sololá	716	San Marcos la Laguna 	11	San Marcos la laguna 	3	Marzo	2023-05-03T00:00:00	2024-11-08T08:00:00	4	Temperatura máxima	19.3
180467	7	Sololá	716	San Marcos la Laguna 	11	San Marcos la laguna 	3	Marzo	2023-05-03T00:00:00	2024-11-08T08:00:00	3	Temperatura mínima	16.3
180468	7	Sololá	716	San Marcos la Laguna 	11	San Marcos la laguna 	3	Marzo	2023-05-03T00:00:00	2024-11-08T08:00:00	5	Humedad	73
180469	7	Sololá	716	San Marcos la Laguna 	11	San Marcos la laguna 	3	Marzo	2023-05-03T00:00:00	2024-11-08T08:00:00	6	Velocidad del viento	4.8
180470	7	Sololá	716	San Marcos la Laguna 	11	San Marcos la laguna 	3	Marzo	2023-05-03T00:00:00	2024-11-08T08:00:00	7	Dirección del viento	4.83
180471	7	Sololá	716	San Marcos la Laguna 	11	San Marcos la laguna 	3	Marzo	2023-05-03T00:00:00	2024-11-08T08:00:00	1	Precipitación	0
180472	7	Sololá	716	San Marcos la Laguna 	11	San Marcos la laguna 	3	Marzo	2023-05-03T00:00:00	2024-11-08T08:00:00	8	Radiación solar	199
180473	7	Sololá	716	San Marcos la Laguna 	11	San Marcos la laguna 	3	Marzo	2023-05-03T00:00:00	2024-11-08T09:00:00	2	Temperatura media	21.3
180474	7	Sololá	716	San Marcos la Laguna 	11	San Marcos la laguna 	3	Marzo	2023-05-03T00:00:00	2024-11-08T09:00:00	4	Temperatura máxima	21.5
180475	7	Sololá	716	San Marcos la Laguna 	11	San Marcos la laguna 	3	Marzo	2023-05-03T00:00:00	2024-11-08T09:00:00	3	Temperatura mínima	19.3
180476	7	Sololá	716	San Marcos la Laguna 	11	San Marcos la laguna 	3	Marzo	2023-05-03T00:00:00	2024-11-08T09:00:00	5	Humedad	66
180477	7	Sololá	716	San Marcos la Laguna 	11	San Marcos la laguna 	3	Marzo	2023-05-03T00:00:00	2024-11-08T09:00:00	6	Velocidad del viento	3.2
180478	7	Sololá	716	San Marcos la Laguna 	11	San Marcos la laguna 	3	Marzo	2023-05-03T00:00:00	2024-11-08T09:00:00	7	Dirección del viento	3.22
180479	7	Sololá	716	San Marcos la Laguna 	11	San Marcos la laguna 	3	Marzo	2023-05-03T00:00:00	2024-11-08T09:00:00	1	Precipitación	0
180480	7	Sololá	716	San Marcos la Laguna 	11	San Marcos la laguna 	3	Marzo	2023-05-03T00:00:00	2024-11-08T09:00:00	8	Radiación solar	446
180481	7	Sololá	716	San Marcos la Laguna 	11	San Marcos la laguna 	3	Marzo	2023-05-03T00:00:00	2024-11-08T10:00:00	2	Temperatura media	22.3
180482	7	Sololá	716	San Marcos la Laguna 	11	San Marcos la laguna 	3	Marzo	2023-05-03T00:00:00	2024-11-08T10:00:00	4	Temperatura máxima	22.3
180483	7	Sololá	716	San Marcos la Laguna 	11	San Marcos la laguna 	3	Marzo	2023-05-03T00:00:00	2024-11-08T10:00:00	3	Temperatura mínima	21.2
180484	7	Sololá	716	San Marcos la Laguna 	11	San Marcos la laguna 	3	Marzo	2023-05-03T00:00:00	2024-11-08T10:00:00	5	Humedad	62
180485	7	Sololá	716	San Marcos la Laguna 	11	San Marcos la laguna 	3	Marzo	2023-05-03T00:00:00	2024-11-08T10:00:00	6	Velocidad del viento	4.8
180486	7	Sololá	716	San Marcos la Laguna 	11	San Marcos la laguna 	3	Marzo	2023-05-03T00:00:00	2024-11-08T10:00:00	7	Dirección del viento	4.83
180487	7	Sololá	716	San Marcos la Laguna 	11	San Marcos la laguna 	3	Marzo	2023-05-03T00:00:00	2024-11-08T10:00:00	1	Precipitación	0
180488	7	Sololá	716	San Marcos la Laguna 	11	San Marcos la laguna 	3	Marzo	2023-05-03T00:00:00	2024-11-08T10:00:00	8	Radiación solar	650
180489	7	Sololá	716	San Marcos la Laguna 	11	San Marcos la laguna 	3	Marzo	2023-05-03T00:00:00	2024-11-08T11:00:00	2	Temperatura media	24.1
180490	7	Sololá	716	San Marcos la Laguna 	11	San Marcos la laguna 	3	Marzo	2023-05-03T00:00:00	2024-11-08T11:00:00	4	Temperatura máxima	24.1
180491	7	Sololá	716	San Marcos la Laguna 	11	San Marcos la laguna 	3	Marzo	2023-05-03T00:00:00	2024-11-08T11:00:00	3	Temperatura mínima	22.3
180492	7	Sololá	716	San Marcos la Laguna 	11	San Marcos la laguna 	3	Marzo	2023-05-03T00:00:00	2024-11-08T11:00:00	5	Humedad	53
180493	7	Sololá	716	San Marcos la Laguna 	11	San Marcos la laguna 	3	Marzo	2023-05-03T00:00:00	2024-11-08T11:00:00	6	Velocidad del viento	3.2
180494	7	Sololá	716	San Marcos la Laguna 	11	San Marcos la laguna 	3	Marzo	2023-05-03T00:00:00	2024-11-08T11:00:00	7	Dirección del viento	3.22
180495	7	Sololá	716	San Marcos la Laguna 	11	San Marcos la laguna 	3	Marzo	2023-05-03T00:00:00	2024-11-08T11:00:00	1	Precipitación	0
180496	7	Sololá	716	San Marcos la Laguna 	11	San Marcos la laguna 	3	Marzo	2023-05-03T00:00:00	2024-11-08T11:00:00	8	Radiación solar	823
180497	7	Sololá	716	San Marcos la Laguna 	11	San Marcos la laguna 	3	Marzo	2023-05-03T00:00:00	2024-11-08T12:00:00	2	Temperatura media	23.6
180498	7	Sololá	716	San Marcos la Laguna 	11	San Marcos la laguna 	3	Marzo	2023-05-03T00:00:00	2024-11-08T12:00:00	4	Temperatura máxima	24
180499	7	Sololá	716	San Marcos la Laguna 	11	San Marcos la laguna 	3	Marzo	2023-05-03T00:00:00	2024-11-08T12:00:00	3	Temperatura mínima	22.9
180500	7	Sololá	716	San Marcos la Laguna 	11	San Marcos la laguna 	3	Marzo	2023-05-03T00:00:00	2024-11-08T12:00:00	5	Humedad	63
180501	7	Sololá	716	San Marcos la Laguna 	11	San Marcos la laguna 	3	Marzo	2023-05-03T00:00:00	2024-11-08T12:00:00	6	Velocidad del viento	11.3
180502	7	Sololá	716	San Marcos la Laguna 	11	San Marcos la laguna 	3	Marzo	2023-05-03T00:00:00	2024-11-08T12:00:00	7	Dirección del viento	11.27
180503	7	Sololá	716	San Marcos la Laguna 	11	San Marcos la laguna 	3	Marzo	2023-05-03T00:00:00	2024-11-08T12:00:00	1	Precipitación	0
180504	7	Sololá	716	San Marcos la Laguna 	11	San Marcos la laguna 	3	Marzo	2023-05-03T00:00:00	2024-11-08T12:00:00	8	Radiación solar	869
180505	7	Sololá	716	San Marcos la Laguna 	11	San Marcos la laguna 	3	Marzo	2023-05-03T00:00:00	2024-11-08T13:00:00	2	Temperatura media	24
180506	7	Sololá	716	San Marcos la Laguna 	11	San Marcos la laguna 	3	Marzo	2023-05-03T00:00:00	2024-11-08T13:00:00	4	Temperatura máxima	24.1
180507	7	Sololá	716	San Marcos la Laguna 	11	San Marcos la laguna 	3	Marzo	2023-05-03T00:00:00	2024-11-08T13:00:00	3	Temperatura mínima	23.3
180508	7	Sololá	716	San Marcos la Laguna 	11	San Marcos la laguna 	3	Marzo	2023-05-03T00:00:00	2024-11-08T13:00:00	5	Humedad	66
180509	7	Sololá	716	San Marcos la Laguna 	11	San Marcos la laguna 	3	Marzo	2023-05-03T00:00:00	2024-11-08T13:00:00	6	Velocidad del viento	14.5
180510	7	Sololá	716	San Marcos la Laguna 	11	San Marcos la laguna 	3	Marzo	2023-05-03T00:00:00	2024-11-08T13:00:00	7	Dirección del viento	14.48
180511	7	Sololá	716	San Marcos la Laguna 	11	San Marcos la laguna 	3	Marzo	2023-05-03T00:00:00	2024-11-08T13:00:00	1	Precipitación	0
180512	7	Sololá	716	San Marcos la Laguna 	11	San Marcos la laguna 	3	Marzo	2023-05-03T00:00:00	2024-11-08T13:00:00	8	Radiación solar	645
180513	7	Sololá	716	San Marcos la Laguna 	11	San Marcos la laguna 	3	Marzo	2023-05-03T00:00:00	2024-11-08T14:00:00	2	Temperatura media	23.9
180514	7	Sololá	716	San Marcos la Laguna 	11	San Marcos la laguna 	3	Marzo	2023-05-03T00:00:00	2024-11-08T14:00:00	4	Temperatura máxima	24.2
180515	7	Sololá	716	San Marcos la Laguna 	11	San Marcos la laguna 	3	Marzo	2023-05-03T00:00:00	2024-11-08T14:00:00	3	Temperatura mínima	23.7
180516	7	Sololá	716	San Marcos la Laguna 	11	San Marcos la laguna 	3	Marzo	2023-05-03T00:00:00	2024-11-08T14:00:00	5	Humedad	67
180517	7	Sololá	716	San Marcos la Laguna 	11	San Marcos la laguna 	3	Marzo	2023-05-03T00:00:00	2024-11-08T14:00:00	6	Velocidad del viento	11.3
180518	7	Sololá	716	San Marcos la Laguna 	11	San Marcos la laguna 	3	Marzo	2023-05-03T00:00:00	2024-11-08T14:00:00	7	Dirección del viento	11.27
180519	7	Sololá	716	San Marcos la Laguna 	11	San Marcos la laguna 	3	Marzo	2023-05-03T00:00:00	2024-11-08T14:00:00	1	Precipitación	0
180520	7	Sololá	716	San Marcos la Laguna 	11	San Marcos la laguna 	3	Marzo	2023-05-03T00:00:00	2024-11-08T14:00:00	8	Radiación solar	342
180521	7	Sololá	716	San Marcos la Laguna 	11	San Marcos la laguna 	3	Marzo	2023-05-03T00:00:00	2024-11-08T15:00:00	2	Temperatura media	23.4
180522	7	Sololá	716	San Marcos la Laguna 	11	San Marcos la laguna 	3	Marzo	2023-05-03T00:00:00	2024-11-08T15:00:00	4	Temperatura máxima	25.2
180523	7	Sololá	716	San Marcos la Laguna 	11	San Marcos la laguna 	3	Marzo	2023-05-03T00:00:00	2024-11-08T15:00:00	3	Temperatura mínima	23.1
180524	7	Sololá	716	San Marcos la Laguna 	11	San Marcos la laguna 	3	Marzo	2023-05-03T00:00:00	2024-11-08T15:00:00	5	Humedad	71
180525	7	Sololá	716	San Marcos la Laguna 	11	San Marcos la laguna 	3	Marzo	2023-05-03T00:00:00	2024-11-08T15:00:00	6	Velocidad del viento	11.3
180526	7	Sololá	716	San Marcos la Laguna 	11	San Marcos la laguna 	3	Marzo	2023-05-03T00:00:00	2024-11-08T15:00:00	7	Dirección del viento	11.27
180527	7	Sololá	716	San Marcos la Laguna 	11	San Marcos la laguna 	3	Marzo	2023-05-03T00:00:00	2024-11-08T15:00:00	1	Precipitación	0
180528	7	Sololá	716	San Marcos la Laguna 	11	San Marcos la laguna 	3	Marzo	2023-05-03T00:00:00	2024-11-08T15:00:00	8	Radiación solar	180
180529	7	Sololá	716	San Marcos la Laguna 	11	San Marcos la laguna 	3	Marzo	2023-05-03T00:00:00	2024-11-08T16:00:00	2	Temperatura media	23
180530	7	Sololá	716	San Marcos la Laguna 	11	San Marcos la laguna 	3	Marzo	2023-05-03T00:00:00	2024-11-08T16:00:00	4	Temperatura máxima	23.7
180531	7	Sololá	716	San Marcos la Laguna 	11	San Marcos la laguna 	3	Marzo	2023-05-03T00:00:00	2024-11-08T16:00:00	3	Temperatura mínima	22.8
180532	7	Sololá	716	San Marcos la Laguna 	11	San Marcos la laguna 	3	Marzo	2023-05-03T00:00:00	2024-11-08T16:00:00	5	Humedad	73
180533	7	Sololá	716	San Marcos la Laguna 	11	San Marcos la laguna 	3	Marzo	2023-05-03T00:00:00	2024-11-08T16:00:00	6	Velocidad del viento	9.7
180534	7	Sololá	716	San Marcos la Laguna 	11	San Marcos la laguna 	3	Marzo	2023-05-03T00:00:00	2024-11-08T16:00:00	7	Dirección del viento	9.66
180535	7	Sololá	716	San Marcos la Laguna 	11	San Marcos la laguna 	3	Marzo	2023-05-03T00:00:00	2024-11-08T16:00:00	1	Precipitación	0
180536	7	Sololá	716	San Marcos la Laguna 	11	San Marcos la laguna 	3	Marzo	2023-05-03T00:00:00	2024-11-08T16:00:00	8	Radiación solar	110
180537	7	Sololá	716	San Marcos la Laguna 	11	San Marcos la laguna 	3	Marzo	2023-05-03T00:00:00	2024-11-08T17:00:00	2	Temperatura media	22.2
180538	7	Sololá	716	San Marcos la Laguna 	11	San Marcos la laguna 	3	Marzo	2023-05-03T00:00:00	2024-11-08T17:00:00	4	Temperatura máxima	23.3
180539	7	Sololá	716	San Marcos la Laguna 	11	San Marcos la laguna 	3	Marzo	2023-05-03T00:00:00	2024-11-08T17:00:00	3	Temperatura mínima	22.2
180540	7	Sololá	716	San Marcos la Laguna 	11	San Marcos la laguna 	3	Marzo	2023-05-03T00:00:00	2024-11-08T17:00:00	5	Humedad	77
180541	7	Sololá	716	San Marcos la Laguna 	11	San Marcos la laguna 	3	Marzo	2023-05-03T00:00:00	2024-11-08T17:00:00	6	Velocidad del viento	6.4
180542	7	Sololá	716	San Marcos la Laguna 	11	San Marcos la laguna 	3	Marzo	2023-05-03T00:00:00	2024-11-08T17:00:00	7	Dirección del viento	6.44
180543	7	Sololá	716	San Marcos la Laguna 	11	San Marcos la laguna 	3	Marzo	2023-05-03T00:00:00	2024-11-08T17:00:00	1	Precipitación	0
180544	7	Sololá	716	San Marcos la Laguna 	11	San Marcos la laguna 	3	Marzo	2023-05-03T00:00:00	2024-11-08T17:00:00	8	Radiación solar	57
180545	7	Sololá	716	San Marcos la Laguna 	11	San Marcos la laguna 	3	Marzo	2023-05-03T00:00:00	2024-11-08T18:00:00	2	Temperatura media	21
180546	7	Sololá	716	San Marcos la Laguna 	11	San Marcos la laguna 	3	Marzo	2023-05-03T00:00:00	2024-11-08T18:00:00	4	Temperatura máxima	22.2
180547	7	Sololá	716	San Marcos la Laguna 	11	San Marcos la laguna 	3	Marzo	2023-05-03T00:00:00	2024-11-08T18:00:00	3	Temperatura mínima	21
180548	7	Sololá	716	San Marcos la Laguna 	11	San Marcos la laguna 	3	Marzo	2023-05-03T00:00:00	2024-11-08T18:00:00	5	Humedad	83
180549	7	Sololá	716	San Marcos la Laguna 	11	San Marcos la laguna 	3	Marzo	2023-05-03T00:00:00	2024-11-08T18:00:00	6	Velocidad del viento	8
180550	7	Sololá	716	San Marcos la Laguna 	11	San Marcos la laguna 	3	Marzo	2023-05-03T00:00:00	2024-11-08T18:00:00	7	Dirección del viento	8.05
180551	7	Sololá	716	San Marcos la Laguna 	11	San Marcos la laguna 	3	Marzo	2023-05-03T00:00:00	2024-11-08T18:00:00	1	Precipitación	0
180552	7	Sololá	716	San Marcos la Laguna 	11	San Marcos la laguna 	3	Marzo	2023-05-03T00:00:00	2024-11-08T18:00:00	8	Radiación solar	31
180553	7	Sololá	716	San Marcos la Laguna 	11	San Marcos la laguna 	3	Marzo	2023-05-03T00:00:00	2024-11-08T19:00:00	2	Temperatura media	19.8
180554	7	Sololá	716	San Marcos la Laguna 	11	San Marcos la laguna 	3	Marzo	2023-05-03T00:00:00	2024-11-08T19:00:00	4	Temperatura máxima	21
180555	7	Sololá	716	San Marcos la Laguna 	11	San Marcos la laguna 	3	Marzo	2023-05-03T00:00:00	2024-11-08T19:00:00	3	Temperatura mínima	19.8
180556	7	Sololá	716	San Marcos la Laguna 	11	San Marcos la laguna 	3	Marzo	2023-05-03T00:00:00	2024-11-08T19:00:00	5	Humedad	86
180557	7	Sololá	716	San Marcos la Laguna 	11	San Marcos la laguna 	3	Marzo	2023-05-03T00:00:00	2024-11-08T19:00:00	6	Velocidad del viento	8
180558	7	Sololá	716	San Marcos la Laguna 	11	San Marcos la laguna 	3	Marzo	2023-05-03T00:00:00	2024-11-08T19:00:00	7	Dirección del viento	8.05
180559	7	Sololá	716	San Marcos la Laguna 	11	San Marcos la laguna 	3	Marzo	2023-05-03T00:00:00	2024-11-08T19:00:00	1	Precipitación	0
180560	7	Sololá	716	San Marcos la Laguna 	11	San Marcos la laguna 	3	Marzo	2023-05-03T00:00:00	2024-11-08T19:00:00	8	Radiación solar	0
180561	7	Sololá	716	San Marcos la Laguna 	11	San Marcos la laguna 	3	Marzo	2023-05-03T00:00:00	2024-11-08T20:00:00	2	Temperatura media	19.3
180562	7	Sololá	716	San Marcos la Laguna 	11	San Marcos la laguna 	3	Marzo	2023-05-03T00:00:00	2024-11-08T20:00:00	4	Temperatura máxima	19.8
180563	7	Sololá	716	San Marcos la Laguna 	11	San Marcos la laguna 	3	Marzo	2023-05-03T00:00:00	2024-11-08T20:00:00	3	Temperatura mínima	19.3
180564	7	Sololá	716	San Marcos la Laguna 	11	San Marcos la laguna 	3	Marzo	2023-05-03T00:00:00	2024-11-08T20:00:00	5	Humedad	88
180565	7	Sololá	716	San Marcos la Laguna 	11	San Marcos la laguna 	3	Marzo	2023-05-03T00:00:00	2024-11-08T20:00:00	6	Velocidad del viento	3.2
180566	7	Sololá	716	San Marcos la Laguna 	11	San Marcos la laguna 	3	Marzo	2023-05-03T00:00:00	2024-11-08T20:00:00	7	Dirección del viento	3.22
180567	7	Sololá	716	San Marcos la Laguna 	11	San Marcos la laguna 	3	Marzo	2023-05-03T00:00:00	2024-11-08T20:00:00	1	Precipitación	0
180568	7	Sololá	716	San Marcos la Laguna 	11	San Marcos la laguna 	3	Marzo	2023-05-03T00:00:00	2024-11-08T20:00:00	8	Radiación solar	0
180569	7	Sololá	716	San Marcos la Laguna 	11	San Marcos la laguna 	3	Marzo	2023-05-03T00:00:00	2024-11-08T21:00:00	2	Temperatura media	19.1
180570	7	Sololá	716	San Marcos la Laguna 	11	San Marcos la laguna 	3	Marzo	2023-05-03T00:00:00	2024-11-08T21:00:00	4	Temperatura máxima	19.4
180571	7	Sololá	716	San Marcos la Laguna 	11	San Marcos la laguna 	3	Marzo	2023-05-03T00:00:00	2024-11-08T21:00:00	3	Temperatura mínima	19.1
180572	7	Sololá	716	San Marcos la Laguna 	11	San Marcos la laguna 	3	Marzo	2023-05-03T00:00:00	2024-11-08T21:00:00	5	Humedad	89
180573	7	Sololá	716	San Marcos la Laguna 	11	San Marcos la laguna 	3	Marzo	2023-05-03T00:00:00	2024-11-08T21:00:00	6	Velocidad del viento	3.2
180574	7	Sololá	716	San Marcos la Laguna 	11	San Marcos la laguna 	3	Marzo	2023-05-03T00:00:00	2024-11-08T21:00:00	7	Dirección del viento	3.22
180575	7	Sololá	716	San Marcos la Laguna 	11	San Marcos la laguna 	3	Marzo	2023-05-03T00:00:00	2024-11-08T21:00:00	1	Precipitación	0
180576	7	Sololá	716	San Marcos la Laguna 	11	San Marcos la laguna 	3	Marzo	2023-05-03T00:00:00	2024-11-08T21:00:00	8	Radiación solar	0
180577	7	Sololá	716	San Marcos la Laguna 	11	San Marcos la laguna 	3	Marzo	2023-05-03T00:00:00	2024-11-08T22:00:00	2	Temperatura media	18.6
180578	7	Sololá	716	San Marcos la Laguna 	11	San Marcos la laguna 	3	Marzo	2023-05-03T00:00:00	2024-11-08T22:00:00	4	Temperatura máxima	19.1
180579	7	Sololá	716	San Marcos la Laguna 	11	San Marcos la laguna 	3	Marzo	2023-05-03T00:00:00	2024-11-08T22:00:00	3	Temperatura mínima	18.6
180580	7	Sololá	716	San Marcos la Laguna 	11	San Marcos la laguna 	3	Marzo	2023-05-03T00:00:00	2024-11-08T22:00:00	5	Humedad	89
180581	7	Sololá	716	San Marcos la Laguna 	11	San Marcos la laguna 	3	Marzo	2023-05-03T00:00:00	2024-11-08T22:00:00	6	Velocidad del viento	3.2
180582	7	Sololá	716	San Marcos la Laguna 	11	San Marcos la laguna 	3	Marzo	2023-05-03T00:00:00	2024-11-08T22:00:00	7	Dirección del viento	3.22
180583	7	Sololá	716	San Marcos la Laguna 	11	San Marcos la laguna 	3	Marzo	2023-05-03T00:00:00	2024-11-08T22:00:00	1	Precipitación	0
180584	7	Sololá	716	San Marcos la Laguna 	11	San Marcos la laguna 	3	Marzo	2023-05-03T00:00:00	2024-11-08T22:00:00	8	Radiación solar	0
180585	7	Sololá	716	San Marcos la Laguna 	11	San Marcos la laguna 	3	Marzo	2023-05-03T00:00:00	2024-11-08T23:00:00	2	Temperatura media	17.9
180586	7	Sololá	716	San Marcos la Laguna 	11	San Marcos la laguna 	3	Marzo	2023-05-03T00:00:00	2024-11-08T23:00:00	4	Temperatura máxima	18.6
180587	7	Sololá	716	San Marcos la Laguna 	11	San Marcos la laguna 	3	Marzo	2023-05-03T00:00:00	2024-11-08T23:00:00	3	Temperatura mínima	17.9
180588	7	Sololá	716	San Marcos la Laguna 	11	San Marcos la laguna 	3	Marzo	2023-05-03T00:00:00	2024-11-08T23:00:00	5	Humedad	83
180589	7	Sololá	716	San Marcos la Laguna 	11	San Marcos la laguna 	3	Marzo	2023-05-03T00:00:00	2024-11-08T23:00:00	6	Velocidad del viento	4.8
180590	7	Sololá	716	San Marcos la Laguna 	11	San Marcos la laguna 	3	Marzo	2023-05-03T00:00:00	2024-11-08T23:00:00	7	Dirección del viento	4.83
180591	7	Sololá	716	San Marcos la Laguna 	11	San Marcos la laguna 	3	Marzo	2023-05-03T00:00:00	2024-11-08T23:00:00	1	Precipitación	0
180592	7	Sololá	716	San Marcos la Laguna 	11	San Marcos la laguna 	3	Marzo	2023-05-03T00:00:00	2024-11-08T23:00:00	8	Radiación solar	0
180593	7	Sololá	716	San Marcos la Laguna 	11	San Marcos la laguna 	3	Marzo	2023-06-03T00:00:00	2024-11-08T00:00:00	2	Temperatura media	17.2
180594	7	Sololá	716	San Marcos la Laguna 	11	San Marcos la laguna 	3	Marzo	2023-06-03T00:00:00	2024-11-08T00:00:00	4	Temperatura máxima	17.9
180595	7	Sololá	716	San Marcos la Laguna 	11	San Marcos la laguna 	3	Marzo	2023-06-03T00:00:00	2024-11-08T00:00:00	3	Temperatura mínima	17.1
180596	7	Sololá	716	San Marcos la Laguna 	11	San Marcos la laguna 	3	Marzo	2023-06-03T00:00:00	2024-11-08T00:00:00	5	Humedad	84
180597	7	Sololá	716	San Marcos la Laguna 	11	San Marcos la laguna 	3	Marzo	2023-06-03T00:00:00	2024-11-08T00:00:00	6	Velocidad del viento	8
180598	7	Sololá	716	San Marcos la Laguna 	11	San Marcos la laguna 	3	Marzo	2023-06-03T00:00:00	2024-11-08T00:00:00	7	Dirección del viento	8.05
180599	7	Sololá	716	San Marcos la Laguna 	11	San Marcos la laguna 	3	Marzo	2023-06-03T00:00:00	2024-11-08T00:00:00	1	Precipitación	0
180600	7	Sololá	716	San Marcos la Laguna 	11	San Marcos la laguna 	3	Marzo	2023-06-03T00:00:00	2024-11-08T00:00:00	8	Radiación solar	0
180601	7	Sololá	716	San Marcos la Laguna 	11	San Marcos la laguna 	3	Marzo	2023-06-03T00:00:00	2024-11-08T01:00:00	2	Temperatura media	16.9
180602	7	Sololá	716	San Marcos la Laguna 	11	San Marcos la laguna 	3	Marzo	2023-06-03T00:00:00	2024-11-08T01:00:00	4	Temperatura máxima	17.3
180603	7	Sololá	716	San Marcos la Laguna 	11	San Marcos la laguna 	3	Marzo	2023-06-03T00:00:00	2024-11-08T01:00:00	3	Temperatura mínima	16.9
180604	7	Sololá	716	San Marcos la Laguna 	11	San Marcos la laguna 	3	Marzo	2023-06-03T00:00:00	2024-11-08T01:00:00	5	Humedad	81
180605	7	Sololá	716	San Marcos la Laguna 	11	San Marcos la laguna 	3	Marzo	2023-06-03T00:00:00	2024-11-08T01:00:00	6	Velocidad del viento	9.7
180606	7	Sololá	716	San Marcos la Laguna 	11	San Marcos la laguna 	3	Marzo	2023-06-03T00:00:00	2024-11-08T01:00:00	7	Dirección del viento	9.66
180607	7	Sololá	716	San Marcos la Laguna 	11	San Marcos la laguna 	3	Marzo	2023-06-03T00:00:00	2024-11-08T01:00:00	1	Precipitación	0
180608	7	Sololá	716	San Marcos la Laguna 	11	San Marcos la laguna 	3	Marzo	2023-06-03T00:00:00	2024-11-08T01:00:00	8	Radiación solar	0
180609	7	Sololá	716	San Marcos la Laguna 	11	San Marcos la laguna 	3	Marzo	2023-06-03T00:00:00	2024-11-08T02:00:00	2	Temperatura media	16.5
180610	7	Sololá	716	San Marcos la Laguna 	11	San Marcos la laguna 	3	Marzo	2023-06-03T00:00:00	2024-11-08T02:00:00	4	Temperatura máxima	17
180611	7	Sololá	716	San Marcos la Laguna 	11	San Marcos la laguna 	3	Marzo	2023-06-03T00:00:00	2024-11-08T02:00:00	3	Temperatura mínima	16.3
180612	7	Sololá	716	San Marcos la Laguna 	11	San Marcos la laguna 	3	Marzo	2023-06-03T00:00:00	2024-11-08T02:00:00	5	Humedad	82
180613	7	Sololá	716	San Marcos la Laguna 	11	San Marcos la laguna 	3	Marzo	2023-06-03T00:00:00	2024-11-08T02:00:00	6	Velocidad del viento	9.7
180614	7	Sololá	716	San Marcos la Laguna 	11	San Marcos la laguna 	3	Marzo	2023-06-03T00:00:00	2024-11-08T02:00:00	7	Dirección del viento	9.66
180615	7	Sololá	716	San Marcos la Laguna 	11	San Marcos la laguna 	3	Marzo	2023-06-03T00:00:00	2024-11-08T02:00:00	1	Precipitación	0
180616	7	Sololá	716	San Marcos la Laguna 	11	San Marcos la laguna 	3	Marzo	2023-06-03T00:00:00	2024-11-08T02:00:00	8	Radiación solar	0
180617	7	Sololá	716	San Marcos la Laguna 	11	San Marcos la laguna 	3	Marzo	2023-06-03T00:00:00	2024-11-08T03:00:00	2	Temperatura media	16.1
180618	7	Sololá	716	San Marcos la Laguna 	11	San Marcos la laguna 	3	Marzo	2023-06-03T00:00:00	2024-11-08T03:00:00	4	Temperatura máxima	16.5
180619	7	Sololá	716	San Marcos la Laguna 	11	San Marcos la laguna 	3	Marzo	2023-06-03T00:00:00	2024-11-08T03:00:00	3	Temperatura mínima	15.9
180620	7	Sololá	716	San Marcos la Laguna 	11	San Marcos la laguna 	3	Marzo	2023-06-03T00:00:00	2024-11-08T03:00:00	5	Humedad	81
180621	7	Sololá	716	San Marcos la Laguna 	11	San Marcos la laguna 	3	Marzo	2023-06-03T00:00:00	2024-11-08T03:00:00	6	Velocidad del viento	9.7
180622	7	Sololá	716	San Marcos la Laguna 	11	San Marcos la laguna 	3	Marzo	2023-06-03T00:00:00	2024-11-08T03:00:00	7	Dirección del viento	9.66
180623	7	Sololá	716	San Marcos la Laguna 	11	San Marcos la laguna 	3	Marzo	2023-06-03T00:00:00	2024-11-08T03:00:00	1	Precipitación	0
180624	7	Sololá	716	San Marcos la Laguna 	11	San Marcos la laguna 	3	Marzo	2023-06-03T00:00:00	2024-11-08T03:00:00	8	Radiación solar	0
180625	7	Sololá	716	San Marcos la Laguna 	11	San Marcos la laguna 	3	Marzo	2023-06-03T00:00:00	2024-11-08T04:00:00	2	Temperatura media	15.9
180626	7	Sololá	716	San Marcos la Laguna 	11	San Marcos la laguna 	3	Marzo	2023-06-03T00:00:00	2024-11-08T04:00:00	4	Temperatura máxima	16.3
180627	7	Sololá	716	San Marcos la Laguna 	11	San Marcos la laguna 	3	Marzo	2023-06-03T00:00:00	2024-11-08T04:00:00	3	Temperatura mínima	15.4
180628	7	Sololá	716	San Marcos la Laguna 	11	San Marcos la laguna 	3	Marzo	2023-06-03T00:00:00	2024-11-08T04:00:00	5	Humedad	80
180629	7	Sololá	716	San Marcos la Laguna 	11	San Marcos la laguna 	3	Marzo	2023-06-03T00:00:00	2024-11-08T04:00:00	6	Velocidad del viento	8
180630	7	Sololá	716	San Marcos la Laguna 	11	San Marcos la laguna 	3	Marzo	2023-06-03T00:00:00	2024-11-08T04:00:00	7	Dirección del viento	8.05
180631	7	Sololá	716	San Marcos la Laguna 	11	San Marcos la laguna 	3	Marzo	2023-06-03T00:00:00	2024-11-08T04:00:00	1	Precipitación	0
180632	7	Sololá	716	San Marcos la Laguna 	11	San Marcos la laguna 	3	Marzo	2023-06-03T00:00:00	2024-11-08T04:00:00	8	Radiación solar	0
180633	7	Sololá	716	San Marcos la Laguna 	11	San Marcos la laguna 	3	Marzo	2023-06-03T00:00:00	2024-11-08T05:00:00	2	Temperatura media	15.4
180634	7	Sololá	716	San Marcos la Laguna 	11	San Marcos la laguna 	3	Marzo	2023-06-03T00:00:00	2024-11-08T05:00:00	4	Temperatura máxima	16.1
180635	7	Sololá	716	San Marcos la Laguna 	11	San Marcos la laguna 	3	Marzo	2023-06-03T00:00:00	2024-11-08T05:00:00	3	Temperatura mínima	15.3
180636	7	Sololá	716	San Marcos la Laguna 	11	San Marcos la laguna 	3	Marzo	2023-06-03T00:00:00	2024-11-08T05:00:00	5	Humedad	82
180637	7	Sololá	716	San Marcos la Laguna 	11	San Marcos la laguna 	3	Marzo	2023-06-03T00:00:00	2024-11-08T05:00:00	6	Velocidad del viento	8
180638	7	Sololá	716	San Marcos la Laguna 	11	San Marcos la laguna 	3	Marzo	2023-06-03T00:00:00	2024-11-08T05:00:00	7	Dirección del viento	8.05
180639	7	Sololá	716	San Marcos la Laguna 	11	San Marcos la laguna 	3	Marzo	2023-06-03T00:00:00	2024-11-08T05:00:00	1	Precipitación	0
180640	7	Sololá	716	San Marcos la Laguna 	11	San Marcos la laguna 	3	Marzo	2023-06-03T00:00:00	2024-11-08T05:00:00	8	Radiación solar	0
180641	7	Sololá	716	San Marcos la Laguna 	11	San Marcos la laguna 	3	Marzo	2023-06-03T00:00:00	2024-11-08T06:00:00	2	Temperatura media	15.3
180642	7	Sololá	716	San Marcos la Laguna 	11	San Marcos la laguna 	3	Marzo	2023-06-03T00:00:00	2024-11-08T06:00:00	4	Temperatura máxima	15.8
180643	7	Sololá	716	San Marcos la Laguna 	11	San Marcos la laguna 	3	Marzo	2023-06-03T00:00:00	2024-11-08T06:00:00	3	Temperatura mínima	14.7
180644	7	Sololá	716	San Marcos la Laguna 	11	San Marcos la laguna 	3	Marzo	2023-06-03T00:00:00	2024-11-08T06:00:00	5	Humedad	81
180645	7	Sololá	716	San Marcos la Laguna 	11	San Marcos la laguna 	3	Marzo	2023-06-03T00:00:00	2024-11-08T06:00:00	6	Velocidad del viento	8
180646	7	Sololá	716	San Marcos la Laguna 	11	San Marcos la laguna 	3	Marzo	2023-06-03T00:00:00	2024-11-08T06:00:00	7	Dirección del viento	8.05
180647	7	Sololá	716	San Marcos la Laguna 	11	San Marcos la laguna 	3	Marzo	2023-06-03T00:00:00	2024-11-08T06:00:00	1	Precipitación	0
180648	7	Sololá	716	San Marcos la Laguna 	11	San Marcos la laguna 	3	Marzo	2023-06-03T00:00:00	2024-11-08T06:00:00	8	Radiación solar	0
180649	7	Sololá	716	San Marcos la Laguna 	11	San Marcos la laguna 	3	Marzo	2023-06-03T00:00:00	2024-11-08T07:00:00	2	Temperatura media	14.8
180650	7	Sololá	716	San Marcos la Laguna 	11	San Marcos la laguna 	3	Marzo	2023-06-03T00:00:00	2024-11-08T07:00:00	4	Temperatura máxima	15.2
180651	7	Sololá	716	San Marcos la Laguna 	11	San Marcos la laguna 	3	Marzo	2023-06-03T00:00:00	2024-11-08T07:00:00	3	Temperatura mínima	14.7
180652	7	Sololá	716	San Marcos la Laguna 	11	San Marcos la laguna 	3	Marzo	2023-06-03T00:00:00	2024-11-08T07:00:00	5	Humedad	83
180653	7	Sololá	716	San Marcos la Laguna 	11	San Marcos la laguna 	3	Marzo	2023-06-03T00:00:00	2024-11-08T07:00:00	6	Velocidad del viento	6.4
180654	7	Sololá	716	San Marcos la Laguna 	11	San Marcos la laguna 	3	Marzo	2023-06-03T00:00:00	2024-11-08T07:00:00	7	Dirección del viento	6.44
180655	7	Sololá	716	San Marcos la Laguna 	11	San Marcos la laguna 	3	Marzo	2023-06-03T00:00:00	2024-11-08T07:00:00	1	Precipitación	0
180656	7	Sololá	716	San Marcos la Laguna 	11	San Marcos la laguna 	3	Marzo	2023-06-03T00:00:00	2024-11-08T07:00:00	8	Radiación solar	35
180657	7	Sololá	716	San Marcos la Laguna 	11	San Marcos la laguna 	3	Marzo	2023-06-03T00:00:00	2024-11-08T08:00:00	2	Temperatura media	18.4
180658	7	Sololá	716	San Marcos la Laguna 	11	San Marcos la laguna 	3	Marzo	2023-06-03T00:00:00	2024-11-08T08:00:00	4	Temperatura máxima	18.4
180659	7	Sololá	716	San Marcos la Laguna 	11	San Marcos la laguna 	3	Marzo	2023-06-03T00:00:00	2024-11-08T08:00:00	3	Temperatura mínima	14.8
180660	7	Sololá	716	San Marcos la Laguna 	11	San Marcos la laguna 	3	Marzo	2023-06-03T00:00:00	2024-11-08T08:00:00	5	Humedad	75
180661	7	Sololá	716	San Marcos la Laguna 	11	San Marcos la laguna 	3	Marzo	2023-06-03T00:00:00	2024-11-08T08:00:00	6	Velocidad del viento	4.8
180662	7	Sololá	716	San Marcos la Laguna 	11	San Marcos la laguna 	3	Marzo	2023-06-03T00:00:00	2024-11-08T08:00:00	7	Dirección del viento	4.83
180663	7	Sololá	716	San Marcos la Laguna 	11	San Marcos la laguna 	3	Marzo	2023-06-03T00:00:00	2024-11-08T08:00:00	1	Precipitación	0
180664	7	Sololá	716	San Marcos la Laguna 	11	San Marcos la laguna 	3	Marzo	2023-06-03T00:00:00	2024-11-08T08:00:00	8	Radiación solar	198
180665	7	Sololá	716	San Marcos la Laguna 	11	San Marcos la laguna 	3	Marzo	2023-06-03T00:00:00	2024-11-08T09:00:00	2	Temperatura media	20.3
180666	7	Sololá	716	San Marcos la Laguna 	11	San Marcos la laguna 	3	Marzo	2023-06-03T00:00:00	2024-11-08T09:00:00	4	Temperatura máxima	20.3
180667	7	Sololá	716	San Marcos la Laguna 	11	San Marcos la laguna 	3	Marzo	2023-06-03T00:00:00	2024-11-08T09:00:00	3	Temperatura mínima	18.4
180668	7	Sololá	716	San Marcos la Laguna 	11	San Marcos la laguna 	3	Marzo	2023-06-03T00:00:00	2024-11-08T09:00:00	5	Humedad	69
180669	7	Sololá	716	San Marcos la Laguna 	11	San Marcos la laguna 	3	Marzo	2023-06-03T00:00:00	2024-11-08T09:00:00	6	Velocidad del viento	3.2
180670	7	Sololá	716	San Marcos la Laguna 	11	San Marcos la laguna 	3	Marzo	2023-06-03T00:00:00	2024-11-08T09:00:00	7	Dirección del viento	3.22
180671	7	Sololá	716	San Marcos la Laguna 	11	San Marcos la laguna 	3	Marzo	2023-06-03T00:00:00	2024-11-08T09:00:00	1	Precipitación	0
180672	7	Sololá	716	San Marcos la Laguna 	11	San Marcos la laguna 	3	Marzo	2023-06-03T00:00:00	2024-11-08T09:00:00	8	Radiación solar	442
180673	7	Sololá	716	San Marcos la Laguna 	11	San Marcos la laguna 	3	Marzo	2023-06-03T00:00:00	2024-11-08T10:00:00	2	Temperatura media	21.1
180674	7	Sololá	716	San Marcos la Laguna 	11	San Marcos la laguna 	3	Marzo	2023-06-03T00:00:00	2024-11-08T10:00:00	4	Temperatura máxima	21.1
180675	7	Sololá	716	San Marcos la Laguna 	11	San Marcos la laguna 	3	Marzo	2023-06-03T00:00:00	2024-11-08T10:00:00	3	Temperatura mínima	20.3
180676	7	Sololá	716	San Marcos la Laguna 	11	San Marcos la laguna 	3	Marzo	2023-06-03T00:00:00	2024-11-08T10:00:00	5	Humedad	67
180677	7	Sololá	716	San Marcos la Laguna 	11	San Marcos la laguna 	3	Marzo	2023-06-03T00:00:00	2024-11-08T10:00:00	6	Velocidad del viento	4.8
180678	7	Sololá	716	San Marcos la Laguna 	11	San Marcos la laguna 	3	Marzo	2023-06-03T00:00:00	2024-11-08T10:00:00	7	Dirección del viento	4.83
180679	7	Sololá	716	San Marcos la Laguna 	11	San Marcos la laguna 	3	Marzo	2023-06-03T00:00:00	2024-11-08T10:00:00	1	Precipitación	0
180680	7	Sololá	716	San Marcos la Laguna 	11	San Marcos la laguna 	3	Marzo	2023-06-03T00:00:00	2024-11-08T10:00:00	8	Radiación solar	649
180681	7	Sololá	716	San Marcos la Laguna 	11	San Marcos la laguna 	3	Marzo	2023-06-03T00:00:00	2024-11-08T11:00:00	2	Temperatura media	22
180682	7	Sololá	716	San Marcos la Laguna 	11	San Marcos la laguna 	3	Marzo	2023-06-03T00:00:00	2024-11-08T11:00:00	4	Temperatura máxima	22.2
180683	7	Sololá	716	San Marcos la Laguna 	11	San Marcos la laguna 	3	Marzo	2023-06-03T00:00:00	2024-11-08T11:00:00	3	Temperatura mínima	21.1
180684	7	Sololá	716	San Marcos la Laguna 	11	San Marcos la laguna 	3	Marzo	2023-06-03T00:00:00	2024-11-08T11:00:00	5	Humedad	62
180685	7	Sololá	716	San Marcos la Laguna 	11	San Marcos la laguna 	3	Marzo	2023-06-03T00:00:00	2024-11-08T11:00:00	6	Velocidad del viento	4.8
180686	7	Sololá	716	San Marcos la Laguna 	11	San Marcos la laguna 	3	Marzo	2023-06-03T00:00:00	2024-11-08T11:00:00	7	Dirección del viento	4.83
180687	7	Sololá	716	San Marcos la Laguna 	11	San Marcos la laguna 	3	Marzo	2023-06-03T00:00:00	2024-11-08T11:00:00	1	Precipitación	0
180688	7	Sololá	716	San Marcos la Laguna 	11	San Marcos la laguna 	3	Marzo	2023-06-03T00:00:00	2024-11-08T11:00:00	8	Radiación solar	806
180689	7	Sololá	716	San Marcos la Laguna 	11	San Marcos la laguna 	3	Marzo	2023-06-03T00:00:00	2024-11-08T12:00:00	2	Temperatura media	23.3
180690	7	Sololá	716	San Marcos la Laguna 	11	San Marcos la laguna 	3	Marzo	2023-06-03T00:00:00	2024-11-08T12:00:00	4	Temperatura máxima	23.3
180691	7	Sololá	716	San Marcos la Laguna 	11	San Marcos la laguna 	3	Marzo	2023-06-03T00:00:00	2024-11-08T12:00:00	3	Temperatura mínima	21.4
180692	7	Sololá	716	San Marcos la Laguna 	11	San Marcos la laguna 	3	Marzo	2023-06-03T00:00:00	2024-11-08T12:00:00	5	Humedad	59
180693	7	Sololá	716	San Marcos la Laguna 	11	San Marcos la laguna 	3	Marzo	2023-06-03T00:00:00	2024-11-08T12:00:00	6	Velocidad del viento	9.7
180694	7	Sololá	716	San Marcos la Laguna 	11	San Marcos la laguna 	3	Marzo	2023-06-03T00:00:00	2024-11-08T12:00:00	7	Dirección del viento	9.66
180695	7	Sololá	716	San Marcos la Laguna 	11	San Marcos la laguna 	3	Marzo	2023-06-03T00:00:00	2024-11-08T12:00:00	1	Precipitación	0
180696	7	Sololá	716	San Marcos la Laguna 	11	San Marcos la laguna 	3	Marzo	2023-06-03T00:00:00	2024-11-08T12:00:00	8	Radiación solar	532
180697	7	Sololá	716	San Marcos la Laguna 	11	San Marcos la laguna 	3	Marzo	2023-06-03T00:00:00	2024-11-08T13:00:00	2	Temperatura media	23.2
180698	7	Sololá	716	San Marcos la Laguna 	11	San Marcos la laguna 	3	Marzo	2023-06-03T00:00:00	2024-11-08T13:00:00	4	Temperatura máxima	23.4
180699	7	Sololá	716	San Marcos la Laguna 	11	San Marcos la laguna 	3	Marzo	2023-06-03T00:00:00	2024-11-08T13:00:00	3	Temperatura mínima	23.1
180700	7	Sololá	716	San Marcos la Laguna 	11	San Marcos la laguna 	3	Marzo	2023-06-03T00:00:00	2024-11-08T13:00:00	5	Humedad	68
180701	7	Sololá	716	San Marcos la Laguna 	11	San Marcos la laguna 	3	Marzo	2023-06-03T00:00:00	2024-11-08T13:00:00	6	Velocidad del viento	9.7
180702	7	Sololá	716	San Marcos la Laguna 	11	San Marcos la laguna 	3	Marzo	2023-06-03T00:00:00	2024-11-08T13:00:00	7	Dirección del viento	9.66
180703	7	Sololá	716	San Marcos la Laguna 	11	San Marcos la laguna 	3	Marzo	2023-06-03T00:00:00	2024-11-08T13:00:00	1	Precipitación	0
180704	7	Sololá	716	San Marcos la Laguna 	11	San Marcos la laguna 	3	Marzo	2023-06-03T00:00:00	2024-11-08T13:00:00	8	Radiación solar	743
180705	7	Sololá	716	San Marcos la Laguna 	11	San Marcos la laguna 	3	Marzo	2023-06-03T00:00:00	2024-11-08T14:00:00	2	Temperatura media	23.3
180706	7	Sololá	716	San Marcos la Laguna 	11	San Marcos la laguna 	3	Marzo	2023-06-03T00:00:00	2024-11-08T14:00:00	4	Temperatura máxima	23.4
180707	7	Sololá	716	San Marcos la Laguna 	11	San Marcos la laguna 	3	Marzo	2023-06-03T00:00:00	2024-11-08T14:00:00	3	Temperatura mínima	22.7
180708	7	Sololá	716	San Marcos la Laguna 	11	San Marcos la laguna 	3	Marzo	2023-06-03T00:00:00	2024-11-08T14:00:00	5	Humedad	67
180709	7	Sololá	716	San Marcos la Laguna 	11	San Marcos la laguna 	3	Marzo	2023-06-03T00:00:00	2024-11-08T14:00:00	6	Velocidad del viento	11.3
180710	7	Sololá	716	San Marcos la Laguna 	11	San Marcos la laguna 	3	Marzo	2023-06-03T00:00:00	2024-11-08T14:00:00	7	Dirección del viento	11.27
180711	7	Sololá	716	San Marcos la Laguna 	11	San Marcos la laguna 	3	Marzo	2023-06-03T00:00:00	2024-11-08T14:00:00	1	Precipitación	0
180712	7	Sololá	716	San Marcos la Laguna 	11	San Marcos la laguna 	3	Marzo	2023-06-03T00:00:00	2024-11-08T14:00:00	8	Radiación solar	711
180713	7	Sololá	716	San Marcos la Laguna 	11	San Marcos la laguna 	3	Marzo	2023-06-03T00:00:00	2024-11-08T15:00:00	2	Temperatura media	23.1
180714	7	Sololá	716	San Marcos la Laguna 	11	San Marcos la laguna 	3	Marzo	2023-06-03T00:00:00	2024-11-08T15:00:00	4	Temperatura máxima	23.4
180715	7	Sololá	716	San Marcos la Laguna 	11	San Marcos la laguna 	3	Marzo	2023-06-03T00:00:00	2024-11-08T15:00:00	3	Temperatura mínima	23
180716	7	Sololá	716	San Marcos la Laguna 	11	San Marcos la laguna 	3	Marzo	2023-06-03T00:00:00	2024-11-08T15:00:00	5	Humedad	69
180717	7	Sololá	716	San Marcos la Laguna 	11	San Marcos la laguna 	3	Marzo	2023-06-03T00:00:00	2024-11-08T15:00:00	6	Velocidad del viento	9.7
180718	7	Sololá	716	San Marcos la Laguna 	11	San Marcos la laguna 	3	Marzo	2023-06-03T00:00:00	2024-11-08T15:00:00	7	Dirección del viento	9.66
180719	7	Sololá	716	San Marcos la Laguna 	11	San Marcos la laguna 	3	Marzo	2023-06-03T00:00:00	2024-11-08T15:00:00	1	Precipitación	0
180720	7	Sololá	716	San Marcos la Laguna 	11	San Marcos la laguna 	3	Marzo	2023-06-03T00:00:00	2024-11-08T15:00:00	8	Radiación solar	460
180721	7	Sololá	716	San Marcos la Laguna 	11	San Marcos la laguna 	3	Marzo	2023-06-03T00:00:00	2024-11-08T16:00:00	2	Temperatura media	22.5
180722	7	Sololá	716	San Marcos la Laguna 	11	San Marcos la laguna 	3	Marzo	2023-06-03T00:00:00	2024-11-08T16:00:00	4	Temperatura máxima	23.3
180723	7	Sololá	716	San Marcos la Laguna 	11	San Marcos la laguna 	3	Marzo	2023-06-03T00:00:00	2024-11-08T16:00:00	3	Temperatura mínima	22.5
180724	7	Sololá	716	San Marcos la Laguna 	11	San Marcos la laguna 	3	Marzo	2023-06-03T00:00:00	2024-11-08T16:00:00	5	Humedad	69
180725	7	Sololá	716	San Marcos la Laguna 	11	San Marcos la laguna 	3	Marzo	2023-06-03T00:00:00	2024-11-08T16:00:00	6	Velocidad del viento	6.4
180726	7	Sololá	716	San Marcos la Laguna 	11	San Marcos la laguna 	3	Marzo	2023-06-03T00:00:00	2024-11-08T16:00:00	7	Dirección del viento	6.44
180727	7	Sololá	716	San Marcos la Laguna 	11	San Marcos la laguna 	3	Marzo	2023-06-03T00:00:00	2024-11-08T16:00:00	1	Precipitación	0
180728	7	Sololá	716	San Marcos la Laguna 	11	San Marcos la laguna 	3	Marzo	2023-06-03T00:00:00	2024-11-08T16:00:00	8	Radiación solar	302
180729	7	Sololá	716	San Marcos la Laguna 	11	San Marcos la laguna 	3	Marzo	2023-06-03T00:00:00	2024-11-08T17:00:00	2	Temperatura media	21.6
180730	7	Sololá	716	San Marcos la Laguna 	11	San Marcos la laguna 	3	Marzo	2023-06-03T00:00:00	2024-11-08T17:00:00	4	Temperatura máxima	22.5
180731	7	Sololá	716	San Marcos la Laguna 	11	San Marcos la laguna 	3	Marzo	2023-06-03T00:00:00	2024-11-08T17:00:00	3	Temperatura mínima	21.6
180732	7	Sololá	716	San Marcos la Laguna 	11	San Marcos la laguna 	3	Marzo	2023-06-03T00:00:00	2024-11-08T17:00:00	5	Humedad	77
180733	7	Sololá	716	San Marcos la Laguna 	11	San Marcos la laguna 	3	Marzo	2023-06-03T00:00:00	2024-11-08T17:00:00	6	Velocidad del viento	8
180734	7	Sololá	716	San Marcos la Laguna 	11	San Marcos la laguna 	3	Marzo	2023-06-03T00:00:00	2024-11-08T17:00:00	7	Dirección del viento	8.05
180735	7	Sololá	716	San Marcos la Laguna 	11	San Marcos la laguna 	3	Marzo	2023-06-03T00:00:00	2024-11-08T17:00:00	1	Precipitación	0
180736	7	Sololá	716	San Marcos la Laguna 	11	San Marcos la laguna 	3	Marzo	2023-06-03T00:00:00	2024-11-08T17:00:00	8	Radiación solar	122
180737	7	Sololá	716	San Marcos la Laguna 	11	San Marcos la laguna 	3	Marzo	2023-06-03T00:00:00	2024-11-08T18:00:00	2	Temperatura media	20.6
180738	7	Sololá	716	San Marcos la Laguna 	11	San Marcos la laguna 	3	Marzo	2023-06-03T00:00:00	2024-11-08T18:00:00	4	Temperatura máxima	21.6
180739	7	Sololá	716	San Marcos la Laguna 	11	San Marcos la laguna 	3	Marzo	2023-06-03T00:00:00	2024-11-08T18:00:00	3	Temperatura mínima	20.6
180740	7	Sololá	716	San Marcos la Laguna 	11	San Marcos la laguna 	3	Marzo	2023-06-03T00:00:00	2024-11-08T18:00:00	5	Humedad	81
180741	7	Sololá	716	San Marcos la Laguna 	11	San Marcos la laguna 	3	Marzo	2023-06-03T00:00:00	2024-11-08T18:00:00	6	Velocidad del viento	8
180742	7	Sololá	716	San Marcos la Laguna 	11	San Marcos la laguna 	3	Marzo	2023-06-03T00:00:00	2024-11-08T18:00:00	7	Dirección del viento	8.05
180743	7	Sololá	716	San Marcos la Laguna 	11	San Marcos la laguna 	3	Marzo	2023-06-03T00:00:00	2024-11-08T18:00:00	1	Precipitación	0
180744	7	Sololá	716	San Marcos la Laguna 	11	San Marcos la laguna 	3	Marzo	2023-06-03T00:00:00	2024-11-08T18:00:00	8	Radiación solar	32
180745	7	Sololá	716	San Marcos la Laguna 	11	San Marcos la laguna 	3	Marzo	2023-06-03T00:00:00	2024-11-08T19:00:00	2	Temperatura media	19.7
180746	7	Sololá	716	San Marcos la Laguna 	11	San Marcos la laguna 	3	Marzo	2023-06-03T00:00:00	2024-11-08T19:00:00	4	Temperatura máxima	20.7
180747	7	Sololá	716	San Marcos la Laguna 	11	San Marcos la laguna 	3	Marzo	2023-06-03T00:00:00	2024-11-08T19:00:00	3	Temperatura mínima	19.7
180748	7	Sololá	716	San Marcos la Laguna 	11	San Marcos la laguna 	3	Marzo	2023-06-03T00:00:00	2024-11-08T19:00:00	5	Humedad	85
180749	7	Sololá	716	San Marcos la Laguna 	11	San Marcos la laguna 	3	Marzo	2023-06-03T00:00:00	2024-11-08T19:00:00	6	Velocidad del viento	8
180750	7	Sololá	716	San Marcos la Laguna 	11	San Marcos la laguna 	3	Marzo	2023-06-03T00:00:00	2024-11-08T19:00:00	7	Dirección del viento	8.05
180751	7	Sololá	716	San Marcos la Laguna 	11	San Marcos la laguna 	3	Marzo	2023-06-03T00:00:00	2024-11-08T19:00:00	1	Precipitación	0
180752	7	Sololá	716	San Marcos la Laguna 	11	San Marcos la laguna 	3	Marzo	2023-06-03T00:00:00	2024-11-08T19:00:00	8	Radiación solar	0
180753	7	Sololá	716	San Marcos la Laguna 	11	San Marcos la laguna 	3	Marzo	2023-06-03T00:00:00	2024-11-08T20:00:00	2	Temperatura media	19.2
180754	7	Sololá	716	San Marcos la Laguna 	11	San Marcos la laguna 	3	Marzo	2023-06-03T00:00:00	2024-11-08T20:00:00	4	Temperatura máxima	19.7
180755	7	Sololá	716	San Marcos la Laguna 	11	San Marcos la laguna 	3	Marzo	2023-06-03T00:00:00	2024-11-08T20:00:00	3	Temperatura mínima	19.2
180756	7	Sololá	716	San Marcos la Laguna 	11	San Marcos la laguna 	3	Marzo	2023-06-03T00:00:00	2024-11-08T20:00:00	5	Humedad	86
180757	7	Sololá	716	San Marcos la Laguna 	11	San Marcos la laguna 	3	Marzo	2023-06-03T00:00:00	2024-11-08T20:00:00	6	Velocidad del viento	4.8
180758	7	Sololá	716	San Marcos la Laguna 	11	San Marcos la laguna 	3	Marzo	2023-06-03T00:00:00	2024-11-08T20:00:00	7	Dirección del viento	4.83
180759	7	Sololá	716	San Marcos la Laguna 	11	San Marcos la laguna 	3	Marzo	2023-06-03T00:00:00	2024-11-08T20:00:00	1	Precipitación	0
180760	7	Sololá	716	San Marcos la Laguna 	11	San Marcos la laguna 	3	Marzo	2023-06-03T00:00:00	2024-11-08T20:00:00	8	Radiación solar	0
180761	7	Sololá	716	San Marcos la Laguna 	11	San Marcos la laguna 	3	Marzo	2023-06-03T00:00:00	2024-11-08T21:00:00	2	Temperatura media	18.4
180762	7	Sololá	716	San Marcos la Laguna 	11	San Marcos la laguna 	3	Marzo	2023-06-03T00:00:00	2024-11-08T21:00:00	4	Temperatura máxima	19.2
180763	7	Sololá	716	San Marcos la Laguna 	11	San Marcos la laguna 	3	Marzo	2023-06-03T00:00:00	2024-11-08T21:00:00	3	Temperatura mínima	18.4
180764	7	Sololá	716	San Marcos la Laguna 	11	San Marcos la laguna 	3	Marzo	2023-06-03T00:00:00	2024-11-08T21:00:00	5	Humedad	87
180765	7	Sololá	716	San Marcos la Laguna 	11	San Marcos la laguna 	3	Marzo	2023-06-03T00:00:00	2024-11-08T21:00:00	6	Velocidad del viento	1.6
180766	7	Sololá	716	San Marcos la Laguna 	11	San Marcos la laguna 	3	Marzo	2023-06-03T00:00:00	2024-11-08T21:00:00	7	Dirección del viento	1.61
180767	7	Sololá	716	San Marcos la Laguna 	11	San Marcos la laguna 	3	Marzo	2023-06-03T00:00:00	2024-11-08T21:00:00	1	Precipitación	0
180768	7	Sololá	716	San Marcos la Laguna 	11	San Marcos la laguna 	3	Marzo	2023-06-03T00:00:00	2024-11-08T21:00:00	8	Radiación solar	0
180769	7	Sololá	716	San Marcos la Laguna 	11	San Marcos la laguna 	3	Marzo	2023-06-03T00:00:00	2024-11-08T22:00:00	2	Temperatura media	17.8
180770	7	Sololá	716	San Marcos la Laguna 	11	San Marcos la laguna 	3	Marzo	2023-06-03T00:00:00	2024-11-08T22:00:00	4	Temperatura máxima	18.4
180771	7	Sololá	716	San Marcos la Laguna 	11	San Marcos la laguna 	3	Marzo	2023-06-03T00:00:00	2024-11-08T22:00:00	3	Temperatura mínima	17.8
180772	7	Sololá	716	San Marcos la Laguna 	11	San Marcos la laguna 	3	Marzo	2023-06-03T00:00:00	2024-11-08T22:00:00	5	Humedad	78
180773	7	Sololá	716	San Marcos la Laguna 	11	San Marcos la laguna 	3	Marzo	2023-06-03T00:00:00	2024-11-08T22:00:00	6	Velocidad del viento	6.4
180774	7	Sololá	716	San Marcos la Laguna 	11	San Marcos la laguna 	3	Marzo	2023-06-03T00:00:00	2024-11-08T22:00:00	7	Dirección del viento	6.44
180775	7	Sololá	716	San Marcos la Laguna 	11	San Marcos la laguna 	3	Marzo	2023-06-03T00:00:00	2024-11-08T22:00:00	1	Precipitación	0
180776	7	Sololá	716	San Marcos la Laguna 	11	San Marcos la laguna 	3	Marzo	2023-06-03T00:00:00	2024-11-08T22:00:00	8	Radiación solar	0
180777	7	Sololá	716	San Marcos la Laguna 	11	San Marcos la laguna 	3	Marzo	2023-06-03T00:00:00	2024-11-08T23:00:00	2	Temperatura media	18.1
180778	7	Sololá	716	San Marcos la Laguna 	11	San Marcos la laguna 	3	Marzo	2023-06-03T00:00:00	2024-11-08T23:00:00	4	Temperatura máxima	18.2
180779	7	Sololá	716	San Marcos la Laguna 	11	San Marcos la laguna 	3	Marzo	2023-06-03T00:00:00	2024-11-08T23:00:00	3	Temperatura mínima	17.8
180780	7	Sololá	716	San Marcos la Laguna 	11	San Marcos la laguna 	3	Marzo	2023-06-03T00:00:00	2024-11-08T23:00:00	5	Humedad	75
180781	7	Sololá	716	San Marcos la Laguna 	11	San Marcos la laguna 	3	Marzo	2023-06-03T00:00:00	2024-11-08T23:00:00	6	Velocidad del viento	6.4
180782	7	Sololá	716	San Marcos la Laguna 	11	San Marcos la laguna 	3	Marzo	2023-06-03T00:00:00	2024-11-08T23:00:00	7	Dirección del viento	6.44
180783	7	Sololá	716	San Marcos la Laguna 	11	San Marcos la laguna 	3	Marzo	2023-06-03T00:00:00	2024-11-08T23:00:00	1	Precipitación	0
180784	7	Sololá	716	San Marcos la Laguna 	11	San Marcos la laguna 	3	Marzo	2023-06-03T00:00:00	2024-11-08T23:00:00	8	Radiación solar	0
180785	7	Sololá	716	San Marcos la Laguna 	11	San Marcos la laguna 	3	Marzo	2023-07-03T00:00:00	2024-11-08T00:00:00	2	Temperatura media	16.9
180786	7	Sololá	716	San Marcos la Laguna 	11	San Marcos la laguna 	3	Marzo	2023-07-03T00:00:00	2024-11-08T00:00:00	4	Temperatura máxima	18.1
180787	7	Sololá	716	San Marcos la Laguna 	11	San Marcos la laguna 	3	Marzo	2023-07-03T00:00:00	2024-11-08T00:00:00	3	Temperatura mínima	16.9
180788	7	Sololá	716	San Marcos la Laguna 	11	San Marcos la laguna 	3	Marzo	2023-07-03T00:00:00	2024-11-08T00:00:00	5	Humedad	75
180789	7	Sololá	716	San Marcos la Laguna 	11	San Marcos la laguna 	3	Marzo	2023-07-03T00:00:00	2024-11-08T00:00:00	6	Velocidad del viento	6.4
180790	7	Sololá	716	San Marcos la Laguna 	11	San Marcos la laguna 	3	Marzo	2023-07-03T00:00:00	2024-11-08T00:00:00	7	Dirección del viento	6.44
180791	7	Sololá	716	San Marcos la Laguna 	11	San Marcos la laguna 	3	Marzo	2023-07-03T00:00:00	2024-11-08T00:00:00	1	Precipitación	0
180792	7	Sololá	716	San Marcos la Laguna 	11	San Marcos la laguna 	3	Marzo	2023-07-03T00:00:00	2024-11-08T00:00:00	8	Radiación solar	0
180793	7	Sololá	716	San Marcos la Laguna 	11	San Marcos la laguna 	3	Marzo	2023-07-03T00:00:00	2024-11-08T01:00:00	2	Temperatura media	16.4
180794	7	Sololá	716	San Marcos la Laguna 	11	San Marcos la laguna 	3	Marzo	2023-07-03T00:00:00	2024-11-08T01:00:00	4	Temperatura máxima	17.1
180795	7	Sololá	716	San Marcos la Laguna 	11	San Marcos la laguna 	3	Marzo	2023-07-03T00:00:00	2024-11-08T01:00:00	3	Temperatura mínima	16.4
180796	7	Sololá	716	San Marcos la Laguna 	11	San Marcos la laguna 	3	Marzo	2023-07-03T00:00:00	2024-11-08T01:00:00	5	Humedad	76
180797	7	Sololá	716	San Marcos la Laguna 	11	San Marcos la laguna 	3	Marzo	2023-07-03T00:00:00	2024-11-08T01:00:00	6	Velocidad del viento	6.4
180798	7	Sololá	716	San Marcos la Laguna 	11	San Marcos la laguna 	3	Marzo	2023-07-03T00:00:00	2024-11-08T01:00:00	7	Dirección del viento	6.44
180799	7	Sololá	716	San Marcos la Laguna 	11	San Marcos la laguna 	3	Marzo	2023-07-03T00:00:00	2024-11-08T01:00:00	1	Precipitación	0
180800	7	Sololá	716	San Marcos la Laguna 	11	San Marcos la laguna 	3	Marzo	2023-07-03T00:00:00	2024-11-08T01:00:00	8	Radiación solar	0
180801	7	Sololá	716	San Marcos la Laguna 	11	San Marcos la laguna 	3	Marzo	2023-07-03T00:00:00	2024-11-08T02:00:00	2	Temperatura media	15.8
180802	7	Sololá	716	San Marcos la Laguna 	11	San Marcos la laguna 	3	Marzo	2023-07-03T00:00:00	2024-11-08T02:00:00	4	Temperatura máxima	16.4
180803	7	Sololá	716	San Marcos la Laguna 	11	San Marcos la laguna 	3	Marzo	2023-07-03T00:00:00	2024-11-08T02:00:00	3	Temperatura mínima	15.6
180804	7	Sololá	716	San Marcos la Laguna 	11	San Marcos la laguna 	3	Marzo	2023-07-03T00:00:00	2024-11-08T02:00:00	5	Humedad	79
180805	7	Sololá	716	San Marcos la Laguna 	11	San Marcos la laguna 	3	Marzo	2023-07-03T00:00:00	2024-11-08T02:00:00	6	Velocidad del viento	6.4
180806	7	Sololá	716	San Marcos la Laguna 	11	San Marcos la laguna 	3	Marzo	2023-07-03T00:00:00	2024-11-08T02:00:00	7	Dirección del viento	6.44
180807	7	Sololá	716	San Marcos la Laguna 	11	San Marcos la laguna 	3	Marzo	2023-07-03T00:00:00	2024-11-08T02:00:00	1	Precipitación	0
180808	7	Sololá	716	San Marcos la Laguna 	11	San Marcos la laguna 	3	Marzo	2023-07-03T00:00:00	2024-11-08T02:00:00	8	Radiación solar	0
180809	7	Sololá	716	San Marcos la Laguna 	11	San Marcos la laguna 	3	Marzo	2023-07-03T00:00:00	2024-11-08T03:00:00	2	Temperatura media	15.4
180810	7	Sololá	716	San Marcos la Laguna 	11	San Marcos la laguna 	3	Marzo	2023-07-03T00:00:00	2024-11-08T03:00:00	4	Temperatura máxima	16
180811	7	Sololá	716	San Marcos la Laguna 	11	San Marcos la laguna 	3	Marzo	2023-07-03T00:00:00	2024-11-08T03:00:00	3	Temperatura mínima	15.4
180812	7	Sololá	716	San Marcos la Laguna 	11	San Marcos la laguna 	3	Marzo	2023-07-03T00:00:00	2024-11-08T03:00:00	5	Humedad	80
180813	7	Sololá	716	San Marcos la Laguna 	11	San Marcos la laguna 	3	Marzo	2023-07-03T00:00:00	2024-11-08T03:00:00	6	Velocidad del viento	6.4
180814	7	Sololá	716	San Marcos la Laguna 	11	San Marcos la laguna 	3	Marzo	2023-07-03T00:00:00	2024-11-08T03:00:00	7	Dirección del viento	6.44
180815	7	Sololá	716	San Marcos la Laguna 	11	San Marcos la laguna 	3	Marzo	2023-07-03T00:00:00	2024-11-08T03:00:00	1	Precipitación	0
180816	7	Sololá	716	San Marcos la Laguna 	11	San Marcos la laguna 	3	Marzo	2023-07-03T00:00:00	2024-11-08T03:00:00	8	Radiación solar	0
180817	7	Sololá	716	San Marcos la Laguna 	11	San Marcos la laguna 	3	Marzo	2023-07-03T00:00:00	2024-11-08T04:00:00	2	Temperatura media	15.2
180818	7	Sololá	716	San Marcos la Laguna 	11	San Marcos la laguna 	3	Marzo	2023-07-03T00:00:00	2024-11-08T04:00:00	4	Temperatura máxima	15.6
180819	7	Sololá	716	San Marcos la Laguna 	11	San Marcos la laguna 	3	Marzo	2023-07-03T00:00:00	2024-11-08T04:00:00	3	Temperatura mínima	15.1
180820	7	Sololá	716	San Marcos la Laguna 	11	San Marcos la laguna 	3	Marzo	2023-07-03T00:00:00	2024-11-08T04:00:00	5	Humedad	80
180821	7	Sololá	716	San Marcos la Laguna 	11	San Marcos la laguna 	3	Marzo	2023-07-03T00:00:00	2024-11-08T04:00:00	6	Velocidad del viento	6.4
180822	7	Sololá	716	San Marcos la Laguna 	11	San Marcos la laguna 	3	Marzo	2023-07-03T00:00:00	2024-11-08T04:00:00	7	Dirección del viento	6.44
180823	7	Sololá	716	San Marcos la Laguna 	11	San Marcos la laguna 	3	Marzo	2023-07-03T00:00:00	2024-11-08T04:00:00	1	Precipitación	0
180824	7	Sololá	716	San Marcos la Laguna 	11	San Marcos la laguna 	3	Marzo	2023-07-03T00:00:00	2024-11-08T04:00:00	8	Radiación solar	0
180825	7	Sololá	716	San Marcos la Laguna 	11	San Marcos la laguna 	3	Marzo	2023-07-03T00:00:00	2024-11-08T05:00:00	2	Temperatura media	14.9
180826	7	Sololá	716	San Marcos la Laguna 	11	San Marcos la laguna 	3	Marzo	2023-07-03T00:00:00	2024-11-08T05:00:00	4	Temperatura máxima	15.4
180827	7	Sololá	716	San Marcos la Laguna 	11	San Marcos la laguna 	3	Marzo	2023-07-03T00:00:00	2024-11-08T05:00:00	3	Temperatura mínima	14.9
180828	7	Sololá	716	San Marcos la Laguna 	11	San Marcos la laguna 	3	Marzo	2023-07-03T00:00:00	2024-11-08T05:00:00	5	Humedad	80
180829	7	Sololá	716	San Marcos la Laguna 	11	San Marcos la laguna 	3	Marzo	2023-07-03T00:00:00	2024-11-08T05:00:00	6	Velocidad del viento	6.4
180830	7	Sololá	716	San Marcos la Laguna 	11	San Marcos la laguna 	3	Marzo	2023-07-03T00:00:00	2024-11-08T05:00:00	7	Dirección del viento	6.44
180831	7	Sololá	716	San Marcos la Laguna 	11	San Marcos la laguna 	3	Marzo	2023-07-03T00:00:00	2024-11-08T05:00:00	1	Precipitación	0
180832	7	Sololá	716	San Marcos la Laguna 	11	San Marcos la laguna 	3	Marzo	2023-07-03T00:00:00	2024-11-08T05:00:00	8	Radiación solar	0
180833	7	Sololá	716	San Marcos la Laguna 	11	San Marcos la laguna 	3	Marzo	2023-07-03T00:00:00	2024-11-08T06:00:00	2	Temperatura media	14.1
180834	7	Sololá	716	San Marcos la Laguna 	11	San Marcos la laguna 	3	Marzo	2023-07-03T00:00:00	2024-11-08T06:00:00	4	Temperatura máxima	14.9
180835	7	Sololá	716	San Marcos la Laguna 	11	San Marcos la laguna 	3	Marzo	2023-07-03T00:00:00	2024-11-08T06:00:00	3	Temperatura mínima	14.1
180836	7	Sololá	716	San Marcos la Laguna 	11	San Marcos la laguna 	3	Marzo	2023-07-03T00:00:00	2024-11-08T06:00:00	5	Humedad	82
180837	7	Sololá	716	San Marcos la Laguna 	11	San Marcos la laguna 	3	Marzo	2023-07-03T00:00:00	2024-11-08T06:00:00	6	Velocidad del viento	6.4
180838	7	Sololá	716	San Marcos la Laguna 	11	San Marcos la laguna 	3	Marzo	2023-07-03T00:00:00	2024-11-08T06:00:00	7	Dirección del viento	6.44
180839	7	Sololá	716	San Marcos la Laguna 	11	San Marcos la laguna 	3	Marzo	2023-07-03T00:00:00	2024-11-08T06:00:00	1	Precipitación	0
180840	7	Sololá	716	San Marcos la Laguna 	11	San Marcos la laguna 	3	Marzo	2023-07-03T00:00:00	2024-11-08T06:00:00	8	Radiación solar	0
180841	7	Sololá	716	San Marcos la Laguna 	11	San Marcos la laguna 	3	Marzo	2023-07-03T00:00:00	2024-11-08T07:00:00	2	Temperatura media	14.4
180842	7	Sololá	716	San Marcos la Laguna 	11	San Marcos la laguna 	3	Marzo	2023-07-03T00:00:00	2024-11-08T07:00:00	4	Temperatura máxima	14.4
180843	7	Sololá	716	San Marcos la Laguna 	11	San Marcos la laguna 	3	Marzo	2023-07-03T00:00:00	2024-11-08T07:00:00	3	Temperatura mínima	13.8
180844	7	Sololá	716	San Marcos la Laguna 	11	San Marcos la laguna 	3	Marzo	2023-07-03T00:00:00	2024-11-08T07:00:00	5	Humedad	80
180845	7	Sololá	716	San Marcos la Laguna 	11	San Marcos la laguna 	3	Marzo	2023-07-03T00:00:00	2024-11-08T07:00:00	6	Velocidad del viento	6.4
180846	7	Sololá	716	San Marcos la Laguna 	11	San Marcos la laguna 	3	Marzo	2023-07-03T00:00:00	2024-11-08T07:00:00	7	Dirección del viento	6.44
180847	7	Sololá	716	San Marcos la Laguna 	11	San Marcos la laguna 	3	Marzo	2023-07-03T00:00:00	2024-11-08T07:00:00	1	Precipitación	0
180848	7	Sololá	716	San Marcos la Laguna 	11	San Marcos la laguna 	3	Marzo	2023-07-03T00:00:00	2024-11-08T07:00:00	8	Radiación solar	33
180849	7	Sololá	716	San Marcos la Laguna 	11	San Marcos la laguna 	3	Marzo	2023-07-03T00:00:00	2024-11-08T08:00:00	2	Temperatura media	16.9
180850	7	Sololá	716	San Marcos la Laguna 	11	San Marcos la laguna 	3	Marzo	2023-07-03T00:00:00	2024-11-08T08:00:00	4	Temperatura máxima	17
180851	7	Sololá	716	San Marcos la Laguna 	11	San Marcos la laguna 	3	Marzo	2023-07-03T00:00:00	2024-11-08T08:00:00	3	Temperatura mínima	14.4
180852	7	Sololá	716	San Marcos la Laguna 	11	San Marcos la laguna 	3	Marzo	2023-07-03T00:00:00	2024-11-08T08:00:00	5	Humedad	78
180853	7	Sololá	716	San Marcos la Laguna 	11	San Marcos la laguna 	3	Marzo	2023-07-03T00:00:00	2024-11-08T08:00:00	6	Velocidad del viento	3.2
180854	7	Sololá	716	San Marcos la Laguna 	11	San Marcos la laguna 	3	Marzo	2023-07-03T00:00:00	2024-11-08T08:00:00	7	Dirección del viento	3.22
180855	7	Sololá	716	San Marcos la Laguna 	11	San Marcos la laguna 	3	Marzo	2023-07-03T00:00:00	2024-11-08T08:00:00	1	Precipitación	0
180856	7	Sololá	716	San Marcos la Laguna 	11	San Marcos la laguna 	3	Marzo	2023-07-03T00:00:00	2024-11-08T08:00:00	8	Radiación solar	189
180857	7	Sololá	716	San Marcos la Laguna 	11	San Marcos la laguna 	3	Marzo	2023-07-03T00:00:00	2024-11-08T09:00:00	2	Temperatura media	18.9
180858	7	Sololá	716	San Marcos la Laguna 	11	San Marcos la laguna 	3	Marzo	2023-07-03T00:00:00	2024-11-08T09:00:00	4	Temperatura máxima	18.9
180859	7	Sololá	716	San Marcos la Laguna 	11	San Marcos la laguna 	3	Marzo	2023-07-03T00:00:00	2024-11-08T09:00:00	3	Temperatura mínima	17
180860	7	Sololá	716	San Marcos la Laguna 	11	San Marcos la laguna 	3	Marzo	2023-07-03T00:00:00	2024-11-08T09:00:00	5	Humedad	73
180861	7	Sololá	716	San Marcos la Laguna 	11	San Marcos la laguna 	3	Marzo	2023-07-03T00:00:00	2024-11-08T09:00:00	6	Velocidad del viento	1.6
180862	7	Sololá	716	San Marcos la Laguna 	11	San Marcos la laguna 	3	Marzo	2023-07-03T00:00:00	2024-11-08T09:00:00	7	Dirección del viento	1.61
180863	7	Sololá	716	San Marcos la Laguna 	11	San Marcos la laguna 	3	Marzo	2023-07-03T00:00:00	2024-11-08T09:00:00	1	Precipitación	0
180864	7	Sololá	716	San Marcos la Laguna 	11	San Marcos la laguna 	3	Marzo	2023-07-03T00:00:00	2024-11-08T09:00:00	8	Radiación solar	437
180865	7	Sololá	716	San Marcos la Laguna 	11	San Marcos la laguna 	3	Marzo	2023-07-03T00:00:00	2024-11-08T10:00:00	2	Temperatura media	19.4
180866	7	Sololá	716	San Marcos la Laguna 	11	San Marcos la laguna 	3	Marzo	2023-07-03T00:00:00	2024-11-08T10:00:00	4	Temperatura máxima	19.8
180867	7	Sololá	716	San Marcos la Laguna 	11	San Marcos la laguna 	3	Marzo	2023-07-03T00:00:00	2024-11-08T10:00:00	3	Temperatura mínima	18.8
180868	7	Sololá	716	San Marcos la Laguna 	11	San Marcos la laguna 	3	Marzo	2023-07-03T00:00:00	2024-11-08T10:00:00	5	Humedad	71
180869	7	Sololá	716	San Marcos la Laguna 	11	San Marcos la laguna 	3	Marzo	2023-07-03T00:00:00	2024-11-08T10:00:00	6	Velocidad del viento	4.8
180870	7	Sololá	716	San Marcos la Laguna 	11	San Marcos la laguna 	3	Marzo	2023-07-03T00:00:00	2024-11-08T10:00:00	7	Dirección del viento	4.83
180871	7	Sololá	716	San Marcos la Laguna 	11	San Marcos la laguna 	3	Marzo	2023-07-03T00:00:00	2024-11-08T10:00:00	1	Precipitación	0
180872	7	Sololá	716	San Marcos la Laguna 	11	San Marcos la laguna 	3	Marzo	2023-07-03T00:00:00	2024-11-08T10:00:00	8	Radiación solar	654
180873	7	Sololá	716	San Marcos la Laguna 	11	San Marcos la laguna 	3	Marzo	2023-07-03T00:00:00	2024-11-08T11:00:00	2	Temperatura media	21
180874	7	Sololá	716	San Marcos la Laguna 	11	San Marcos la laguna 	3	Marzo	2023-07-03T00:00:00	2024-11-08T11:00:00	4	Temperatura máxima	21
180875	7	Sololá	716	San Marcos la Laguna 	11	San Marcos la laguna 	3	Marzo	2023-07-03T00:00:00	2024-11-08T11:00:00	3	Temperatura mínima	19.2
180876	7	Sololá	716	San Marcos la Laguna 	11	San Marcos la laguna 	3	Marzo	2023-07-03T00:00:00	2024-11-08T11:00:00	5	Humedad	62
180877	7	Sololá	716	San Marcos la Laguna 	11	San Marcos la laguna 	3	Marzo	2023-07-03T00:00:00	2024-11-08T11:00:00	6	Velocidad del viento	8
180878	7	Sololá	716	San Marcos la Laguna 	11	San Marcos la laguna 	3	Marzo	2023-07-03T00:00:00	2024-11-08T11:00:00	7	Dirección del viento	8.05
180879	7	Sololá	716	San Marcos la Laguna 	11	San Marcos la laguna 	3	Marzo	2023-07-03T00:00:00	2024-11-08T11:00:00	1	Precipitación	0
180880	7	Sololá	716	San Marcos la Laguna 	11	San Marcos la laguna 	3	Marzo	2023-07-03T00:00:00	2024-11-08T11:00:00	8	Radiación solar	799
180881	7	Sololá	716	San Marcos la Laguna 	11	San Marcos la laguna 	3	Marzo	2023-07-03T00:00:00	2024-11-08T12:00:00	2	Temperatura media	22.6
180882	7	Sololá	716	San Marcos la Laguna 	11	San Marcos la laguna 	3	Marzo	2023-07-03T00:00:00	2024-11-08T12:00:00	4	Temperatura máxima	22.6
180883	7	Sololá	716	San Marcos la Laguna 	11	San Marcos la laguna 	3	Marzo	2023-07-03T00:00:00	2024-11-08T12:00:00	3	Temperatura mínima	21
180884	7	Sololá	716	San Marcos la Laguna 	11	San Marcos la laguna 	3	Marzo	2023-07-03T00:00:00	2024-11-08T12:00:00	5	Humedad	64
180885	7	Sololá	716	San Marcos la Laguna 	11	San Marcos la laguna 	3	Marzo	2023-07-03T00:00:00	2024-11-08T12:00:00	6	Velocidad del viento	6.4
180886	7	Sololá	716	San Marcos la Laguna 	11	San Marcos la laguna 	3	Marzo	2023-07-03T00:00:00	2024-11-08T12:00:00	7	Dirección del viento	6.44
180887	7	Sololá	716	San Marcos la Laguna 	11	San Marcos la laguna 	3	Marzo	2023-07-03T00:00:00	2024-11-08T12:00:00	1	Precipitación	0
180888	7	Sololá	716	San Marcos la Laguna 	11	San Marcos la laguna 	3	Marzo	2023-07-03T00:00:00	2024-11-08T12:00:00	8	Radiación solar	896
180889	7	Sololá	716	San Marcos la Laguna 	11	San Marcos la laguna 	3	Marzo	2023-07-03T00:00:00	2024-11-08T13:00:00	2	Temperatura media	21.5
180890	7	Sololá	716	San Marcos la Laguna 	11	San Marcos la laguna 	3	Marzo	2023-07-03T00:00:00	2024-11-08T13:00:00	4	Temperatura máxima	22.6
180891	7	Sololá	716	San Marcos la Laguna 	11	San Marcos la laguna 	3	Marzo	2023-07-03T00:00:00	2024-11-08T13:00:00	3	Temperatura mínima	21.4
180892	7	Sololá	716	San Marcos la Laguna 	11	San Marcos la laguna 	3	Marzo	2023-07-03T00:00:00	2024-11-08T13:00:00	5	Humedad	69
180893	7	Sololá	716	San Marcos la Laguna 	11	San Marcos la laguna 	3	Marzo	2023-07-03T00:00:00	2024-11-08T13:00:00	6	Velocidad del viento	9.7
180894	7	Sololá	716	San Marcos la Laguna 	11	San Marcos la laguna 	3	Marzo	2023-07-03T00:00:00	2024-11-08T13:00:00	7	Dirección del viento	9.66
180895	7	Sololá	716	San Marcos la Laguna 	11	San Marcos la laguna 	3	Marzo	2023-07-03T00:00:00	2024-11-08T13:00:00	1	Precipitación	0
180896	7	Sololá	716	San Marcos la Laguna 	11	San Marcos la laguna 	3	Marzo	2023-07-03T00:00:00	2024-11-08T13:00:00	8	Radiación solar	916
180897	7	Sololá	716	San Marcos la Laguna 	11	San Marcos la laguna 	3	Marzo	2023-07-03T00:00:00	2024-11-08T14:00:00	2	Temperatura media	21.3
180898	7	Sololá	716	San Marcos la Laguna 	11	San Marcos la laguna 	3	Marzo	2023-07-03T00:00:00	2024-11-08T14:00:00	4	Temperatura máxima	22
180899	7	Sololá	716	San Marcos la Laguna 	11	San Marcos la laguna 	3	Marzo	2023-07-03T00:00:00	2024-11-08T14:00:00	3	Temperatura mínima	21.3
180900	7	Sololá	716	San Marcos la Laguna 	11	San Marcos la laguna 	3	Marzo	2023-07-03T00:00:00	2024-11-08T14:00:00	5	Humedad	70
180901	7	Sololá	716	San Marcos la Laguna 	11	San Marcos la laguna 	3	Marzo	2023-07-03T00:00:00	2024-11-08T14:00:00	6	Velocidad del viento	11.3
180902	7	Sololá	716	San Marcos la Laguna 	11	San Marcos la laguna 	3	Marzo	2023-07-03T00:00:00	2024-11-08T14:00:00	7	Dirección del viento	11.27
180903	7	Sololá	716	San Marcos la Laguna 	11	San Marcos la laguna 	3	Marzo	2023-07-03T00:00:00	2024-11-08T14:00:00	1	Precipitación	0
180904	7	Sololá	716	San Marcos la Laguna 	11	San Marcos la laguna 	3	Marzo	2023-07-03T00:00:00	2024-11-08T14:00:00	8	Radiación solar	891
180905	7	Sololá	716	San Marcos la Laguna 	11	San Marcos la laguna 	3	Marzo	2023-07-03T00:00:00	2024-11-08T15:00:00	2	Temperatura media	21.4
180906	7	Sololá	716	San Marcos la Laguna 	11	San Marcos la laguna 	3	Marzo	2023-07-03T00:00:00	2024-11-08T15:00:00	4	Temperatura máxima	21.6
180907	7	Sololá	716	San Marcos la Laguna 	11	San Marcos la laguna 	3	Marzo	2023-07-03T00:00:00	2024-11-08T15:00:00	3	Temperatura mínima	21
180908	7	Sololá	716	San Marcos la Laguna 	11	San Marcos la laguna 	3	Marzo	2023-07-03T00:00:00	2024-11-08T15:00:00	5	Humedad	76
180909	7	Sololá	716	San Marcos la Laguna 	11	San Marcos la laguna 	3	Marzo	2023-07-03T00:00:00	2024-11-08T15:00:00	6	Velocidad del viento	8
180910	7	Sololá	716	San Marcos la Laguna 	11	San Marcos la laguna 	3	Marzo	2023-07-03T00:00:00	2024-11-08T15:00:00	7	Dirección del viento	8.05
180911	7	Sololá	716	San Marcos la Laguna 	11	San Marcos la laguna 	3	Marzo	2023-07-03T00:00:00	2024-11-08T15:00:00	1	Precipitación	0
180912	7	Sololá	716	San Marcos la Laguna 	11	San Marcos la laguna 	3	Marzo	2023-07-03T00:00:00	2024-11-08T15:00:00	8	Radiación solar	692
180913	7	Sololá	716	San Marcos la Laguna 	11	San Marcos la laguna 	3	Marzo	2023-07-03T00:00:00	2024-11-08T16:00:00	2	Temperatura media	20.9
180914	7	Sololá	716	San Marcos la Laguna 	11	San Marcos la laguna 	3	Marzo	2023-07-03T00:00:00	2024-11-08T16:00:00	4	Temperatura máxima	21.4
180915	7	Sololá	716	San Marcos la Laguna 	11	San Marcos la laguna 	3	Marzo	2023-07-03T00:00:00	2024-11-08T16:00:00	3	Temperatura mínima	20.6
180916	7	Sololá	716	San Marcos la Laguna 	11	San Marcos la laguna 	3	Marzo	2023-07-03T00:00:00	2024-11-08T16:00:00	5	Humedad	74
180917	7	Sololá	716	San Marcos la Laguna 	11	San Marcos la laguna 	3	Marzo	2023-07-03T00:00:00	2024-11-08T16:00:00	6	Velocidad del viento	6.4
180918	7	Sololá	716	San Marcos la Laguna 	11	San Marcos la laguna 	3	Marzo	2023-07-03T00:00:00	2024-11-08T16:00:00	7	Dirección del viento	6.44
180919	7	Sololá	716	San Marcos la Laguna 	11	San Marcos la laguna 	3	Marzo	2023-07-03T00:00:00	2024-11-08T16:00:00	1	Precipitación	0
180920	7	Sololá	716	San Marcos la Laguna 	11	San Marcos la laguna 	3	Marzo	2023-07-03T00:00:00	2024-11-08T16:00:00	8	Radiación solar	269
180921	7	Sololá	716	San Marcos la Laguna 	11	San Marcos la laguna 	3	Marzo	2023-07-03T00:00:00	2024-11-08T17:00:00	2	Temperatura media	20.1
180922	7	Sololá	716	San Marcos la Laguna 	11	San Marcos la laguna 	3	Marzo	2023-07-03T00:00:00	2024-11-08T17:00:00	4	Temperatura máxima	21.1
180923	7	Sololá	716	San Marcos la Laguna 	11	San Marcos la laguna 	3	Marzo	2023-07-03T00:00:00	2024-11-08T17:00:00	3	Temperatura mínima	20.1
180924	7	Sololá	716	San Marcos la Laguna 	11	San Marcos la laguna 	3	Marzo	2023-07-03T00:00:00	2024-11-08T17:00:00	5	Humedad	79
180925	7	Sololá	716	San Marcos la Laguna 	11	San Marcos la laguna 	3	Marzo	2023-07-03T00:00:00	2024-11-08T17:00:00	6	Velocidad del viento	4.8
180926	7	Sololá	716	San Marcos la Laguna 	11	San Marcos la laguna 	3	Marzo	2023-07-03T00:00:00	2024-11-08T17:00:00	7	Dirección del viento	4.83
180927	7	Sololá	716	San Marcos la Laguna 	11	San Marcos la laguna 	3	Marzo	2023-07-03T00:00:00	2024-11-08T17:00:00	1	Precipitación	0
180928	7	Sololá	716	San Marcos la Laguna 	11	San Marcos la laguna 	3	Marzo	2023-07-03T00:00:00	2024-11-08T17:00:00	8	Radiación solar	82
180929	7	Sololá	716	San Marcos la Laguna 	11	San Marcos la laguna 	3	Marzo	2023-07-03T00:00:00	2024-11-08T18:00:00	2	Temperatura media	19.9
180930	7	Sololá	716	San Marcos la Laguna 	11	San Marcos la laguna 	3	Marzo	2023-07-03T00:00:00	2024-11-08T18:00:00	4	Temperatura máxima	20.3
180931	7	Sololá	716	San Marcos la Laguna 	11	San Marcos la laguna 	3	Marzo	2023-07-03T00:00:00	2024-11-08T18:00:00	3	Temperatura mínima	19.9
180932	7	Sololá	716	San Marcos la Laguna 	11	San Marcos la laguna 	3	Marzo	2023-07-03T00:00:00	2024-11-08T18:00:00	5	Humedad	81
180933	7	Sololá	716	San Marcos la Laguna 	11	San Marcos la laguna 	3	Marzo	2023-07-03T00:00:00	2024-11-08T18:00:00	6	Velocidad del viento	8
180934	7	Sololá	716	San Marcos la Laguna 	11	San Marcos la laguna 	3	Marzo	2023-07-03T00:00:00	2024-11-08T18:00:00	7	Dirección del viento	8.05
180935	7	Sololá	716	San Marcos la Laguna 	11	San Marcos la laguna 	3	Marzo	2023-07-03T00:00:00	2024-11-08T18:00:00	1	Precipitación	0
180936	7	Sololá	716	San Marcos la Laguna 	11	San Marcos la laguna 	3	Marzo	2023-07-03T00:00:00	2024-11-08T18:00:00	8	Radiación solar	24
180937	7	Sololá	716	San Marcos la Laguna 	11	San Marcos la laguna 	3	Marzo	2023-07-03T00:00:00	2024-11-08T19:00:00	2	Temperatura media	18.7
180938	7	Sololá	716	San Marcos la Laguna 	11	San Marcos la laguna 	3	Marzo	2023-07-03T00:00:00	2024-11-08T19:00:00	4	Temperatura máxima	19.9
180939	7	Sololá	716	San Marcos la Laguna 	11	San Marcos la laguna 	3	Marzo	2023-07-03T00:00:00	2024-11-08T19:00:00	3	Temperatura mínima	18.6
180940	7	Sololá	716	San Marcos la Laguna 	11	San Marcos la laguna 	3	Marzo	2023-07-03T00:00:00	2024-11-08T19:00:00	5	Humedad	89
180941	7	Sololá	716	San Marcos la Laguna 	11	San Marcos la laguna 	3	Marzo	2023-07-03T00:00:00	2024-11-08T19:00:00	6	Velocidad del viento	8
180942	7	Sololá	716	San Marcos la Laguna 	11	San Marcos la laguna 	3	Marzo	2023-07-03T00:00:00	2024-11-08T19:00:00	7	Dirección del viento	8.05
180943	7	Sololá	716	San Marcos la Laguna 	11	San Marcos la laguna 	3	Marzo	2023-07-03T00:00:00	2024-11-08T19:00:00	1	Precipitación	0
180944	7	Sololá	716	San Marcos la Laguna 	11	San Marcos la laguna 	3	Marzo	2023-07-03T00:00:00	2024-11-08T19:00:00	8	Radiación solar	0
180945	7	Sololá	716	San Marcos la Laguna 	11	San Marcos la laguna 	3	Marzo	2023-07-03T00:00:00	2024-11-08T20:00:00	2	Temperatura media	18.7
180946	7	Sololá	716	San Marcos la Laguna 	11	San Marcos la laguna 	3	Marzo	2023-07-03T00:00:00	2024-11-08T20:00:00	4	Temperatura máxima	18.7
180947	7	Sololá	716	San Marcos la Laguna 	11	San Marcos la laguna 	3	Marzo	2023-07-03T00:00:00	2024-11-08T20:00:00	3	Temperatura mínima	18.4
180948	7	Sololá	716	San Marcos la Laguna 	11	San Marcos la laguna 	3	Marzo	2023-07-03T00:00:00	2024-11-08T20:00:00	5	Humedad	89
180949	7	Sololá	716	San Marcos la Laguna 	11	San Marcos la laguna 	3	Marzo	2023-07-03T00:00:00	2024-11-08T20:00:00	6	Velocidad del viento	4.8
180950	7	Sololá	716	San Marcos la Laguna 	11	San Marcos la laguna 	3	Marzo	2023-07-03T00:00:00	2024-11-08T20:00:00	7	Dirección del viento	4.83
180951	7	Sololá	716	San Marcos la Laguna 	11	San Marcos la laguna 	3	Marzo	2023-07-03T00:00:00	2024-11-08T20:00:00	1	Precipitación	0
180952	7	Sololá	716	San Marcos la Laguna 	11	San Marcos la laguna 	3	Marzo	2023-07-03T00:00:00	2024-11-08T20:00:00	8	Radiación solar	0
180953	7	Sololá	716	San Marcos la Laguna 	11	San Marcos la laguna 	3	Marzo	2023-07-03T00:00:00	2024-11-08T21:00:00	2	Temperatura media	18.4
180954	7	Sololá	716	San Marcos la Laguna 	11	San Marcos la laguna 	3	Marzo	2023-07-03T00:00:00	2024-11-08T21:00:00	4	Temperatura máxima	18.7
180955	7	Sololá	716	San Marcos la Laguna 	11	San Marcos la laguna 	3	Marzo	2023-07-03T00:00:00	2024-11-08T21:00:00	3	Temperatura mínima	18.3
180956	7	Sololá	716	San Marcos la Laguna 	11	San Marcos la laguna 	3	Marzo	2023-07-03T00:00:00	2024-11-08T21:00:00	5	Humedad	87
180957	7	Sololá	716	San Marcos la Laguna 	11	San Marcos la laguna 	3	Marzo	2023-07-03T00:00:00	2024-11-08T21:00:00	6	Velocidad del viento	1.6
180958	7	Sololá	716	San Marcos la Laguna 	11	San Marcos la laguna 	3	Marzo	2023-07-03T00:00:00	2024-11-08T21:00:00	7	Dirección del viento	1.61
180959	7	Sololá	716	San Marcos la Laguna 	11	San Marcos la laguna 	3	Marzo	2023-07-03T00:00:00	2024-11-08T21:00:00	1	Precipitación	0
180960	7	Sololá	716	San Marcos la Laguna 	11	San Marcos la laguna 	3	Marzo	2023-07-03T00:00:00	2024-11-08T21:00:00	8	Radiación solar	0
180961	7	Sololá	716	San Marcos la Laguna 	11	San Marcos la laguna 	3	Marzo	2023-07-03T00:00:00	2024-11-08T22:00:00	2	Temperatura media	17.8
180962	7	Sololá	716	San Marcos la Laguna 	11	San Marcos la laguna 	3	Marzo	2023-07-03T00:00:00	2024-11-08T22:00:00	4	Temperatura máxima	18.4
180963	7	Sololá	716	San Marcos la Laguna 	11	San Marcos la laguna 	3	Marzo	2023-07-03T00:00:00	2024-11-08T22:00:00	3	Temperatura mínima	17.7
180964	7	Sololá	716	San Marcos la Laguna 	11	San Marcos la laguna 	3	Marzo	2023-07-03T00:00:00	2024-11-08T22:00:00	5	Humedad	84
180965	7	Sololá	716	San Marcos la Laguna 	11	San Marcos la laguna 	3	Marzo	2023-07-03T00:00:00	2024-11-08T22:00:00	6	Velocidad del viento	3.2
180966	7	Sololá	716	San Marcos la Laguna 	11	San Marcos la laguna 	3	Marzo	2023-07-03T00:00:00	2024-11-08T22:00:00	7	Dirección del viento	3.22
180967	7	Sololá	716	San Marcos la Laguna 	11	San Marcos la laguna 	3	Marzo	2023-07-03T00:00:00	2024-11-08T22:00:00	1	Precipitación	0
180968	7	Sololá	716	San Marcos la Laguna 	11	San Marcos la laguna 	3	Marzo	2023-07-03T00:00:00	2024-11-08T22:00:00	8	Radiación solar	0
180969	7	Sololá	716	San Marcos la Laguna 	11	San Marcos la laguna 	3	Marzo	2023-07-03T00:00:00	2024-11-08T23:00:00	2	Temperatura media	17.6
180970	7	Sololá	716	San Marcos la Laguna 	11	San Marcos la laguna 	3	Marzo	2023-07-03T00:00:00	2024-11-08T23:00:00	4	Temperatura máxima	18.2
180971	7	Sololá	716	San Marcos la Laguna 	11	San Marcos la laguna 	3	Marzo	2023-07-03T00:00:00	2024-11-08T23:00:00	3	Temperatura mínima	17.6
180972	7	Sololá	716	San Marcos la Laguna 	11	San Marcos la laguna 	3	Marzo	2023-07-03T00:00:00	2024-11-08T23:00:00	5	Humedad	83
180973	7	Sololá	716	San Marcos la Laguna 	11	San Marcos la laguna 	3	Marzo	2023-07-03T00:00:00	2024-11-08T23:00:00	6	Velocidad del viento	6.4
180974	7	Sololá	716	San Marcos la Laguna 	11	San Marcos la laguna 	3	Marzo	2023-07-03T00:00:00	2024-11-08T23:00:00	7	Dirección del viento	6.44
180975	7	Sololá	716	San Marcos la Laguna 	11	San Marcos la laguna 	3	Marzo	2023-07-03T00:00:00	2024-11-08T23:00:00	1	Precipitación	0
180976	7	Sololá	716	San Marcos la Laguna 	11	San Marcos la laguna 	3	Marzo	2023-07-03T00:00:00	2024-11-08T23:00:00	8	Radiación solar	0
180977	7	Sololá	716	San Marcos la Laguna 	11	San Marcos la laguna 	3	Marzo	2023-08-03T00:00:00	2024-11-08T00:00:00	2	Temperatura media	18.1
180978	7	Sololá	716	San Marcos la Laguna 	11	San Marcos la laguna 	3	Marzo	2023-08-03T00:00:00	2024-11-08T00:00:00	4	Temperatura máxima	18.2
180979	7	Sololá	716	San Marcos la Laguna 	11	San Marcos la laguna 	3	Marzo	2023-08-03T00:00:00	2024-11-08T00:00:00	3	Temperatura mínima	17.6
180980	7	Sololá	716	San Marcos la Laguna 	11	San Marcos la laguna 	3	Marzo	2023-08-03T00:00:00	2024-11-08T00:00:00	5	Humedad	79
180981	7	Sololá	716	San Marcos la Laguna 	11	San Marcos la laguna 	3	Marzo	2023-08-03T00:00:00	2024-11-08T00:00:00	6	Velocidad del viento	4.8
180982	7	Sololá	716	San Marcos la Laguna 	11	San Marcos la laguna 	3	Marzo	2023-08-03T00:00:00	2024-11-08T00:00:00	7	Dirección del viento	4.83
180983	7	Sololá	716	San Marcos la Laguna 	11	San Marcos la laguna 	3	Marzo	2023-08-03T00:00:00	2024-11-08T00:00:00	1	Precipitación	0
180984	7	Sololá	716	San Marcos la Laguna 	11	San Marcos la laguna 	3	Marzo	2023-08-03T00:00:00	2024-11-08T00:00:00	8	Radiación solar	0
180985	7	Sololá	716	San Marcos la Laguna 	11	San Marcos la laguna 	3	Marzo	2023-08-03T00:00:00	2024-11-08T01:00:00	2	Temperatura media	17.9
180986	7	Sololá	716	San Marcos la Laguna 	11	San Marcos la laguna 	3	Marzo	2023-08-03T00:00:00	2024-11-08T01:00:00	4	Temperatura máxima	18.1
180987	7	Sololá	716	San Marcos la Laguna 	11	San Marcos la laguna 	3	Marzo	2023-08-03T00:00:00	2024-11-08T01:00:00	3	Temperatura mínima	17.9
180988	7	Sololá	716	San Marcos la Laguna 	11	San Marcos la laguna 	3	Marzo	2023-08-03T00:00:00	2024-11-08T01:00:00	5	Humedad	81
180989	7	Sololá	716	San Marcos la Laguna 	11	San Marcos la laguna 	3	Marzo	2023-08-03T00:00:00	2024-11-08T01:00:00	6	Velocidad del viento	1.6
180990	7	Sololá	716	San Marcos la Laguna 	11	San Marcos la laguna 	3	Marzo	2023-08-03T00:00:00	2024-11-08T01:00:00	7	Dirección del viento	1.61
180991	7	Sololá	716	San Marcos la Laguna 	11	San Marcos la laguna 	3	Marzo	2023-08-03T00:00:00	2024-11-08T01:00:00	1	Precipitación	0
180992	7	Sololá	716	San Marcos la Laguna 	11	San Marcos la laguna 	3	Marzo	2023-08-03T00:00:00	2024-11-08T01:00:00	8	Radiación solar	0
180993	7	Sololá	716	San Marcos la Laguna 	11	San Marcos la laguna 	3	Marzo	2023-08-03T00:00:00	2024-11-08T02:00:00	2	Temperatura media	17
180994	7	Sololá	716	San Marcos la Laguna 	11	San Marcos la laguna 	3	Marzo	2023-08-03T00:00:00	2024-11-08T02:00:00	4	Temperatura máxima	17.9
180995	7	Sololá	716	San Marcos la Laguna 	11	San Marcos la laguna 	3	Marzo	2023-08-03T00:00:00	2024-11-08T02:00:00	3	Temperatura mínima	16.9
180996	7	Sololá	716	San Marcos la Laguna 	11	San Marcos la laguna 	3	Marzo	2023-08-03T00:00:00	2024-11-08T02:00:00	5	Humedad	83
180997	7	Sololá	716	San Marcos la Laguna 	11	San Marcos la laguna 	3	Marzo	2023-08-03T00:00:00	2024-11-08T02:00:00	6	Velocidad del viento	3.2
180998	7	Sololá	716	San Marcos la Laguna 	11	San Marcos la laguna 	3	Marzo	2023-08-03T00:00:00	2024-11-08T02:00:00	7	Dirección del viento	3.22
180999	7	Sololá	716	San Marcos la Laguna 	11	San Marcos la laguna 	3	Marzo	2023-08-03T00:00:00	2024-11-08T02:00:00	1	Precipitación	0
181000	7	Sololá	716	San Marcos la Laguna 	11	San Marcos la laguna 	3	Marzo	2023-08-03T00:00:00	2024-11-08T02:00:00	8	Radiación solar	0
181001	7	Sololá	716	San Marcos la Laguna 	11	San Marcos la laguna 	3	Marzo	2023-08-03T00:00:00	2024-11-08T03:00:00	2	Temperatura media	16.9
181002	7	Sololá	716	San Marcos la Laguna 	11	San Marcos la laguna 	3	Marzo	2023-08-03T00:00:00	2024-11-08T03:00:00	4	Temperatura máxima	17.2
181003	7	Sololá	716	San Marcos la Laguna 	11	San Marcos la laguna 	3	Marzo	2023-08-03T00:00:00	2024-11-08T03:00:00	3	Temperatura mínima	16.6
181004	7	Sololá	716	San Marcos la Laguna 	11	San Marcos la laguna 	3	Marzo	2023-08-03T00:00:00	2024-11-08T03:00:00	5	Humedad	82
181005	7	Sololá	716	San Marcos la Laguna 	11	San Marcos la laguna 	3	Marzo	2023-08-03T00:00:00	2024-11-08T03:00:00	6	Velocidad del viento	4.8
181006	7	Sololá	716	San Marcos la Laguna 	11	San Marcos la laguna 	3	Marzo	2023-08-03T00:00:00	2024-11-08T03:00:00	7	Dirección del viento	4.83
181007	7	Sololá	716	San Marcos la Laguna 	11	San Marcos la laguna 	3	Marzo	2023-08-03T00:00:00	2024-11-08T03:00:00	1	Precipitación	0
181008	7	Sololá	716	San Marcos la Laguna 	11	San Marcos la laguna 	3	Marzo	2023-08-03T00:00:00	2024-11-08T03:00:00	8	Radiación solar	0
181009	7	Sololá	716	San Marcos la Laguna 	11	San Marcos la laguna 	3	Marzo	2023-08-03T00:00:00	2024-11-08T04:00:00	2	Temperatura media	17.3
181010	7	Sololá	716	San Marcos la Laguna 	11	San Marcos la laguna 	3	Marzo	2023-08-03T00:00:00	2024-11-08T04:00:00	4	Temperatura máxima	17.4
181011	7	Sololá	716	San Marcos la Laguna 	11	San Marcos la laguna 	3	Marzo	2023-08-03T00:00:00	2024-11-08T04:00:00	3	Temperatura mínima	16.8
181012	7	Sololá	716	San Marcos la Laguna 	11	San Marcos la laguna 	3	Marzo	2023-08-03T00:00:00	2024-11-08T04:00:00	5	Humedad	80
181013	7	Sololá	716	San Marcos la Laguna 	11	San Marcos la laguna 	3	Marzo	2023-08-03T00:00:00	2024-11-08T04:00:00	6	Velocidad del viento	4.8
181014	7	Sololá	716	San Marcos la Laguna 	11	San Marcos la laguna 	3	Marzo	2023-08-03T00:00:00	2024-11-08T04:00:00	7	Dirección del viento	4.83
181015	7	Sololá	716	San Marcos la Laguna 	11	San Marcos la laguna 	3	Marzo	2023-08-03T00:00:00	2024-11-08T04:00:00	1	Precipitación	0
181016	7	Sololá	716	San Marcos la Laguna 	11	San Marcos la laguna 	3	Marzo	2023-08-03T00:00:00	2024-11-08T04:00:00	8	Radiación solar	0
181017	7	Sololá	716	San Marcos la Laguna 	11	San Marcos la laguna 	3	Marzo	2023-08-03T00:00:00	2024-11-08T05:00:00	2	Temperatura media	16.7
181018	7	Sololá	716	San Marcos la Laguna 	11	San Marcos la laguna 	3	Marzo	2023-08-03T00:00:00	2024-11-08T05:00:00	4	Temperatura máxima	17.4
181019	7	Sololá	716	San Marcos la Laguna 	11	San Marcos la laguna 	3	Marzo	2023-08-03T00:00:00	2024-11-08T05:00:00	3	Temperatura mínima	16.7
181020	7	Sololá	716	San Marcos la Laguna 	11	San Marcos la laguna 	3	Marzo	2023-08-03T00:00:00	2024-11-08T05:00:00	5	Humedad	81
181021	7	Sololá	716	San Marcos la Laguna 	11	San Marcos la laguna 	3	Marzo	2023-08-03T00:00:00	2024-11-08T05:00:00	6	Velocidad del viento	3.2
181022	7	Sololá	716	San Marcos la Laguna 	11	San Marcos la laguna 	3	Marzo	2023-08-03T00:00:00	2024-11-08T05:00:00	7	Dirección del viento	3.22
181023	7	Sololá	716	San Marcos la Laguna 	11	San Marcos la laguna 	3	Marzo	2023-08-03T00:00:00	2024-11-08T05:00:00	1	Precipitación	0
181024	7	Sololá	716	San Marcos la Laguna 	11	San Marcos la laguna 	3	Marzo	2023-08-03T00:00:00	2024-11-08T05:00:00	8	Radiación solar	0
181025	7	Sololá	716	San Marcos la Laguna 	11	San Marcos la laguna 	3	Marzo	2023-08-03T00:00:00	2024-11-08T06:00:00	2	Temperatura media	16.3
181026	7	Sololá	716	San Marcos la Laguna 	11	San Marcos la laguna 	3	Marzo	2023-08-03T00:00:00	2024-11-08T06:00:00	4	Temperatura máxima	16.9
181027	7	Sololá	716	San Marcos la Laguna 	11	San Marcos la laguna 	3	Marzo	2023-08-03T00:00:00	2024-11-08T06:00:00	3	Temperatura mínima	16.2
181028	7	Sololá	716	San Marcos la Laguna 	11	San Marcos la laguna 	3	Marzo	2023-08-03T00:00:00	2024-11-08T06:00:00	5	Humedad	83
181029	7	Sololá	716	San Marcos la Laguna 	11	San Marcos la laguna 	3	Marzo	2023-08-03T00:00:00	2024-11-08T06:00:00	6	Velocidad del viento	4.8
181030	7	Sololá	716	San Marcos la Laguna 	11	San Marcos la laguna 	3	Marzo	2023-08-03T00:00:00	2024-11-08T06:00:00	7	Dirección del viento	4.83
181031	7	Sololá	716	San Marcos la Laguna 	11	San Marcos la laguna 	3	Marzo	2023-08-03T00:00:00	2024-11-08T06:00:00	1	Precipitación	0
181032	7	Sololá	716	San Marcos la Laguna 	11	San Marcos la laguna 	3	Marzo	2023-08-03T00:00:00	2024-11-08T06:00:00	8	Radiación solar	0
181033	7	Sololá	716	San Marcos la Laguna 	11	San Marcos la laguna 	3	Marzo	2023-08-03T00:00:00	2024-11-08T07:00:00	2	Temperatura media	16.7
181034	7	Sololá	716	San Marcos la Laguna 	11	San Marcos la laguna 	3	Marzo	2023-08-03T00:00:00	2024-11-08T07:00:00	4	Temperatura máxima	16.8
181035	7	Sololá	716	San Marcos la Laguna 	11	San Marcos la laguna 	3	Marzo	2023-08-03T00:00:00	2024-11-08T07:00:00	3	Temperatura mínima	16.3
181036	7	Sololá	716	San Marcos la Laguna 	11	San Marcos la laguna 	3	Marzo	2023-08-03T00:00:00	2024-11-08T07:00:00	5	Humedad	81
181037	7	Sololá	716	San Marcos la Laguna 	11	San Marcos la laguna 	3	Marzo	2023-08-03T00:00:00	2024-11-08T07:00:00	6	Velocidad del viento	3.2
181038	7	Sololá	716	San Marcos la Laguna 	11	San Marcos la laguna 	3	Marzo	2023-08-03T00:00:00	2024-11-08T07:00:00	7	Dirección del viento	3.22
181039	7	Sololá	716	San Marcos la Laguna 	11	San Marcos la laguna 	3	Marzo	2023-08-03T00:00:00	2024-11-08T07:00:00	1	Precipitación	0
181040	7	Sololá	716	San Marcos la Laguna 	11	San Marcos la laguna 	3	Marzo	2023-08-03T00:00:00	2024-11-08T07:00:00	8	Radiación solar	28
181041	7	Sololá	716	San Marcos la Laguna 	11	San Marcos la laguna 	3	Marzo	2023-08-03T00:00:00	2024-11-08T08:00:00	2	Temperatura media	18.4
181042	7	Sololá	716	San Marcos la Laguna 	11	San Marcos la laguna 	3	Marzo	2023-08-03T00:00:00	2024-11-08T08:00:00	4	Temperatura máxima	18.4
181043	7	Sololá	716	San Marcos la Laguna 	11	San Marcos la laguna 	3	Marzo	2023-08-03T00:00:00	2024-11-08T08:00:00	3	Temperatura mínima	16.7
181044	7	Sololá	716	San Marcos la Laguna 	11	San Marcos la laguna 	3	Marzo	2023-08-03T00:00:00	2024-11-08T08:00:00	5	Humedad	82
181045	7	Sololá	716	San Marcos la Laguna 	11	San Marcos la laguna 	3	Marzo	2023-08-03T00:00:00	2024-11-08T08:00:00	6	Velocidad del viento	4.8
181046	7	Sololá	716	San Marcos la Laguna 	11	San Marcos la laguna 	3	Marzo	2023-08-03T00:00:00	2024-11-08T08:00:00	7	Dirección del viento	4.83
181047	7	Sololá	716	San Marcos la Laguna 	11	San Marcos la laguna 	3	Marzo	2023-08-03T00:00:00	2024-11-08T08:00:00	1	Precipitación	0
181048	7	Sololá	716	San Marcos la Laguna 	11	San Marcos la laguna 	3	Marzo	2023-08-03T00:00:00	2024-11-08T08:00:00	8	Radiación solar	180
181049	7	Sololá	716	San Marcos la Laguna 	11	San Marcos la laguna 	3	Marzo	2023-08-03T00:00:00	2024-11-08T09:00:00	2	Temperatura media	19.3
181050	7	Sololá	716	San Marcos la Laguna 	11	San Marcos la laguna 	3	Marzo	2023-08-03T00:00:00	2024-11-08T09:00:00	4	Temperatura máxima	19.4
181051	7	Sololá	716	San Marcos la Laguna 	11	San Marcos la laguna 	3	Marzo	2023-08-03T00:00:00	2024-11-08T09:00:00	3	Temperatura mínima	18.5
181052	7	Sololá	716	San Marcos la Laguna 	11	San Marcos la laguna 	3	Marzo	2023-08-03T00:00:00	2024-11-08T09:00:00	5	Humedad	77
181053	7	Sololá	716	San Marcos la Laguna 	11	San Marcos la laguna 	3	Marzo	2023-08-03T00:00:00	2024-11-08T09:00:00	6	Velocidad del viento	8
181054	7	Sololá	716	San Marcos la Laguna 	11	San Marcos la laguna 	3	Marzo	2023-08-03T00:00:00	2024-11-08T09:00:00	7	Dirección del viento	8.05
181055	7	Sololá	716	San Marcos la Laguna 	11	San Marcos la laguna 	3	Marzo	2023-08-03T00:00:00	2024-11-08T09:00:00	1	Precipitación	0
181056	7	Sololá	716	San Marcos la Laguna 	11	San Marcos la laguna 	3	Marzo	2023-08-03T00:00:00	2024-11-08T09:00:00	8	Radiación solar	425
181057	7	Sololá	716	San Marcos la Laguna 	11	San Marcos la laguna 	3	Marzo	2023-08-03T00:00:00	2024-11-08T10:00:00	2	Temperatura media	20.7
181058	7	Sololá	716	San Marcos la Laguna 	11	San Marcos la laguna 	3	Marzo	2023-08-03T00:00:00	2024-11-08T10:00:00	4	Temperatura máxima	20.7
181059	7	Sololá	716	San Marcos la Laguna 	11	San Marcos la laguna 	3	Marzo	2023-08-03T00:00:00	2024-11-08T10:00:00	3	Temperatura mínima	19.3
181060	7	Sololá	716	San Marcos la Laguna 	11	San Marcos la laguna 	3	Marzo	2023-08-03T00:00:00	2024-11-08T10:00:00	5	Humedad	74
181061	7	Sololá	716	San Marcos la Laguna 	11	San Marcos la laguna 	3	Marzo	2023-08-03T00:00:00	2024-11-08T10:00:00	6	Velocidad del viento	9.7
181062	7	Sololá	716	San Marcos la Laguna 	11	San Marcos la laguna 	3	Marzo	2023-08-03T00:00:00	2024-11-08T10:00:00	7	Dirección del viento	9.66
181063	7	Sololá	716	San Marcos la Laguna 	11	San Marcos la laguna 	3	Marzo	2023-08-03T00:00:00	2024-11-08T10:00:00	1	Precipitación	0
181064	7	Sololá	716	San Marcos la Laguna 	11	San Marcos la laguna 	3	Marzo	2023-08-03T00:00:00	2024-11-08T10:00:00	8	Radiación solar	628
181065	7	Sololá	716	San Marcos la Laguna 	11	San Marcos la laguna 	3	Marzo	2023-08-03T00:00:00	2024-11-08T11:00:00	2	Temperatura media	21.1
181066	7	Sololá	716	San Marcos la Laguna 	11	San Marcos la laguna 	3	Marzo	2023-08-03T00:00:00	2024-11-08T11:00:00	4	Temperatura máxima	21.2
181067	7	Sololá	716	San Marcos la Laguna 	11	San Marcos la laguna 	3	Marzo	2023-08-03T00:00:00	2024-11-08T11:00:00	3	Temperatura mínima	20.3
181068	7	Sololá	716	San Marcos la Laguna 	11	San Marcos la laguna 	3	Marzo	2023-08-03T00:00:00	2024-11-08T11:00:00	5	Humedad	76
181069	7	Sololá	716	San Marcos la Laguna 	11	San Marcos la laguna 	3	Marzo	2023-08-03T00:00:00	2024-11-08T11:00:00	6	Velocidad del viento	9.7
181070	7	Sololá	716	San Marcos la Laguna 	11	San Marcos la laguna 	3	Marzo	2023-08-03T00:00:00	2024-11-08T11:00:00	7	Dirección del viento	9.66
181071	7	Sololá	716	San Marcos la Laguna 	11	San Marcos la laguna 	3	Marzo	2023-08-03T00:00:00	2024-11-08T11:00:00	1	Precipitación	0
181072	7	Sololá	716	San Marcos la Laguna 	11	San Marcos la laguna 	3	Marzo	2023-08-03T00:00:00	2024-11-08T11:00:00	8	Radiación solar	791
181073	7	Sololá	716	San Marcos la Laguna 	11	San Marcos la laguna 	3	Marzo	2023-08-03T00:00:00	2024-11-08T12:00:00	2	Temperatura media	20.8
181074	7	Sololá	716	San Marcos la Laguna 	11	San Marcos la laguna 	3	Marzo	2023-08-03T00:00:00	2024-11-08T12:00:00	4	Temperatura máxima	21.2
181075	7	Sololá	716	San Marcos la Laguna 	11	San Marcos la laguna 	3	Marzo	2023-08-03T00:00:00	2024-11-08T12:00:00	3	Temperatura mínima	20.3
181076	7	Sololá	716	San Marcos la Laguna 	11	San Marcos la laguna 	3	Marzo	2023-08-03T00:00:00	2024-11-08T12:00:00	5	Humedad	71
181077	7	Sololá	716	San Marcos la Laguna 	11	San Marcos la laguna 	3	Marzo	2023-08-03T00:00:00	2024-11-08T12:00:00	6	Velocidad del viento	12.9
181078	7	Sololá	716	San Marcos la Laguna 	11	San Marcos la laguna 	3	Marzo	2023-08-03T00:00:00	2024-11-08T12:00:00	7	Dirección del viento	12.87
181079	7	Sololá	716	San Marcos la Laguna 	11	San Marcos la laguna 	3	Marzo	2023-08-03T00:00:00	2024-11-08T12:00:00	1	Precipitación	0
181080	7	Sololá	716	San Marcos la Laguna 	11	San Marcos la laguna 	3	Marzo	2023-08-03T00:00:00	2024-11-08T12:00:00	8	Radiación solar	880
181081	7	Sololá	716	San Marcos la Laguna 	11	San Marcos la laguna 	3	Marzo	2023-08-03T00:00:00	2024-11-08T13:00:00	2	Temperatura media	21.3
181082	7	Sololá	716	San Marcos la Laguna 	11	San Marcos la laguna 	3	Marzo	2023-08-03T00:00:00	2024-11-08T13:00:00	4	Temperatura máxima	21.9
181083	7	Sololá	716	San Marcos la Laguna 	11	San Marcos la laguna 	3	Marzo	2023-08-03T00:00:00	2024-11-08T13:00:00	3	Temperatura mínima	20.7
181084	7	Sololá	716	San Marcos la Laguna 	11	San Marcos la laguna 	3	Marzo	2023-08-03T00:00:00	2024-11-08T13:00:00	5	Humedad	72
181085	7	Sololá	716	San Marcos la Laguna 	11	San Marcos la laguna 	3	Marzo	2023-08-03T00:00:00	2024-11-08T13:00:00	6	Velocidad del viento	9.7
181086	7	Sololá	716	San Marcos la Laguna 	11	San Marcos la laguna 	3	Marzo	2023-08-03T00:00:00	2024-11-08T13:00:00	7	Dirección del viento	9.66
181087	7	Sololá	716	San Marcos la Laguna 	11	San Marcos la laguna 	3	Marzo	2023-08-03T00:00:00	2024-11-08T13:00:00	1	Precipitación	0
181088	7	Sololá	716	San Marcos la Laguna 	11	San Marcos la laguna 	3	Marzo	2023-08-03T00:00:00	2024-11-08T13:00:00	8	Radiación solar	876
181089	7	Sololá	716	San Marcos la Laguna 	11	San Marcos la laguna 	3	Marzo	2023-08-03T00:00:00	2024-11-08T14:00:00	2	Temperatura media	20.6
181090	7	Sololá	716	San Marcos la Laguna 	11	San Marcos la laguna 	3	Marzo	2023-08-03T00:00:00	2024-11-08T14:00:00	4	Temperatura máxima	21.3
181091	7	Sololá	716	San Marcos la Laguna 	11	San Marcos la laguna 	3	Marzo	2023-08-03T00:00:00	2024-11-08T14:00:00	3	Temperatura mínima	20.6
181092	7	Sololá	716	San Marcos la Laguna 	11	San Marcos la laguna 	3	Marzo	2023-08-03T00:00:00	2024-11-08T14:00:00	5	Humedad	75
181093	7	Sololá	716	San Marcos la Laguna 	11	San Marcos la laguna 	3	Marzo	2023-08-03T00:00:00	2024-11-08T14:00:00	6	Velocidad del viento	11.3
181094	7	Sololá	716	San Marcos la Laguna 	11	San Marcos la laguna 	3	Marzo	2023-08-03T00:00:00	2024-11-08T14:00:00	7	Dirección del viento	11.27
181095	7	Sololá	716	San Marcos la Laguna 	11	San Marcos la laguna 	3	Marzo	2023-08-03T00:00:00	2024-11-08T14:00:00	1	Precipitación	0
181096	7	Sololá	716	San Marcos la Laguna 	11	San Marcos la laguna 	3	Marzo	2023-08-03T00:00:00	2024-11-08T14:00:00	8	Radiación solar	698
181097	7	Sololá	716	San Marcos la Laguna 	11	San Marcos la laguna 	3	Marzo	2023-08-03T00:00:00	2024-11-08T15:00:00	2	Temperatura media	20
181098	7	Sololá	716	San Marcos la Laguna 	11	San Marcos la laguna 	3	Marzo	2023-08-03T00:00:00	2024-11-08T15:00:00	4	Temperatura máxima	20.6
181099	7	Sololá	716	San Marcos la Laguna 	11	San Marcos la laguna 	3	Marzo	2023-08-03T00:00:00	2024-11-08T15:00:00	3	Temperatura mínima	19.9
181100	7	Sololá	716	San Marcos la Laguna 	11	San Marcos la laguna 	3	Marzo	2023-08-03T00:00:00	2024-11-08T15:00:00	5	Humedad	76
181101	7	Sololá	716	San Marcos la Laguna 	11	San Marcos la laguna 	3	Marzo	2023-08-03T00:00:00	2024-11-08T15:00:00	6	Velocidad del viento	8
181102	7	Sololá	716	San Marcos la Laguna 	11	San Marcos la laguna 	3	Marzo	2023-08-03T00:00:00	2024-11-08T15:00:00	7	Dirección del viento	8.05
181103	7	Sololá	716	San Marcos la Laguna 	11	San Marcos la laguna 	3	Marzo	2023-08-03T00:00:00	2024-11-08T15:00:00	1	Precipitación	0
181104	7	Sololá	716	San Marcos la Laguna 	11	San Marcos la laguna 	3	Marzo	2023-08-03T00:00:00	2024-11-08T15:00:00	8	Radiación solar	416
181105	7	Sololá	716	San Marcos la Laguna 	11	San Marcos la laguna 	3	Marzo	2023-08-03T00:00:00	2024-11-08T16:00:00	2	Temperatura media	19.8
181106	7	Sololá	716	San Marcos la Laguna 	11	San Marcos la laguna 	3	Marzo	2023-08-03T00:00:00	2024-11-08T16:00:00	4	Temperatura máxima	20.5
181107	7	Sololá	716	San Marcos la Laguna 	11	San Marcos la laguna 	3	Marzo	2023-08-03T00:00:00	2024-11-08T16:00:00	3	Temperatura mínima	19.8
181108	7	Sololá	716	San Marcos la Laguna 	11	San Marcos la laguna 	3	Marzo	2023-08-03T00:00:00	2024-11-08T16:00:00	5	Humedad	78
181109	7	Sololá	716	San Marcos la Laguna 	11	San Marcos la laguna 	3	Marzo	2023-08-03T00:00:00	2024-11-08T16:00:00	6	Velocidad del viento	6.4
181110	7	Sololá	716	San Marcos la Laguna 	11	San Marcos la laguna 	3	Marzo	2023-08-03T00:00:00	2024-11-08T16:00:00	7	Dirección del viento	6.44
181111	7	Sololá	716	San Marcos la Laguna 	11	San Marcos la laguna 	3	Marzo	2023-08-03T00:00:00	2024-11-08T16:00:00	1	Precipitación	0
181112	7	Sololá	716	San Marcos la Laguna 	11	San Marcos la laguna 	3	Marzo	2023-08-03T00:00:00	2024-11-08T16:00:00	8	Radiación solar	433
181113	7	Sololá	716	San Marcos la Laguna 	11	San Marcos la laguna 	3	Marzo	2023-08-03T00:00:00	2024-11-08T17:00:00	2	Temperatura media	19.6
181114	7	Sololá	716	San Marcos la Laguna 	11	San Marcos la laguna 	3	Marzo	2023-08-03T00:00:00	2024-11-08T17:00:00	4	Temperatura máxima	19.8
181115	7	Sololá	716	San Marcos la Laguna 	11	San Marcos la laguna 	3	Marzo	2023-08-03T00:00:00	2024-11-08T17:00:00	3	Temperatura mínima	19.5
181116	7	Sololá	716	San Marcos la Laguna 	11	San Marcos la laguna 	3	Marzo	2023-08-03T00:00:00	2024-11-08T17:00:00	5	Humedad	82
181117	7	Sololá	716	San Marcos la Laguna 	11	San Marcos la laguna 	3	Marzo	2023-08-03T00:00:00	2024-11-08T17:00:00	6	Velocidad del viento	11.3
181118	7	Sololá	716	San Marcos la Laguna 	11	San Marcos la laguna 	3	Marzo	2023-08-03T00:00:00	2024-11-08T17:00:00	7	Dirección del viento	11.27
181119	7	Sololá	716	San Marcos la Laguna 	11	San Marcos la laguna 	3	Marzo	2023-08-03T00:00:00	2024-11-08T17:00:00	1	Precipitación	0
181120	7	Sololá	716	San Marcos la Laguna 	11	San Marcos la laguna 	3	Marzo	2023-08-03T00:00:00	2024-11-08T17:00:00	8	Radiación solar	243
181121	7	Sololá	716	San Marcos la Laguna 	11	San Marcos la laguna 	3	Marzo	2023-08-03T00:00:00	2024-11-08T18:00:00	2	Temperatura media	19.2
181122	7	Sololá	716	San Marcos la Laguna 	11	San Marcos la laguna 	3	Marzo	2023-08-03T00:00:00	2024-11-08T18:00:00	4	Temperatura máxima	19.7
181123	7	Sololá	716	San Marcos la Laguna 	11	San Marcos la laguna 	3	Marzo	2023-08-03T00:00:00	2024-11-08T18:00:00	3	Temperatura mínima	19.1
181124	7	Sololá	716	San Marcos la Laguna 	11	San Marcos la laguna 	3	Marzo	2023-08-03T00:00:00	2024-11-08T18:00:00	5	Humedad	82
181125	7	Sololá	716	San Marcos la Laguna 	11	San Marcos la laguna 	3	Marzo	2023-08-03T00:00:00	2024-11-08T18:00:00	6	Velocidad del viento	9.7
181126	7	Sololá	716	San Marcos la Laguna 	11	San Marcos la laguna 	3	Marzo	2023-08-03T00:00:00	2024-11-08T18:00:00	7	Dirección del viento	9.66
181127	7	Sololá	716	San Marcos la Laguna 	11	San Marcos la laguna 	3	Marzo	2023-08-03T00:00:00	2024-11-08T18:00:00	1	Precipitación	0
181128	7	Sololá	716	San Marcos la Laguna 	11	San Marcos la laguna 	3	Marzo	2023-08-03T00:00:00	2024-11-08T18:00:00	8	Radiación solar	70
181129	7	Sololá	716	San Marcos la Laguna 	11	San Marcos la laguna 	3	Marzo	2023-08-03T00:00:00	2024-11-08T19:00:00	2	Temperatura media	18.7
181130	7	Sololá	716	San Marcos la Laguna 	11	San Marcos la laguna 	3	Marzo	2023-08-03T00:00:00	2024-11-08T19:00:00	4	Temperatura máxima	19.2
181131	7	Sololá	716	San Marcos la Laguna 	11	San Marcos la laguna 	3	Marzo	2023-08-03T00:00:00	2024-11-08T19:00:00	3	Temperatura mínima	18.7
181132	7	Sololá	716	San Marcos la Laguna 	11	San Marcos la laguna 	3	Marzo	2023-08-03T00:00:00	2024-11-08T19:00:00	5	Humedad	87
181133	7	Sololá	716	San Marcos la Laguna 	11	San Marcos la laguna 	3	Marzo	2023-08-03T00:00:00	2024-11-08T19:00:00	6	Velocidad del viento	8
181134	7	Sololá	716	San Marcos la Laguna 	11	San Marcos la laguna 	3	Marzo	2023-08-03T00:00:00	2024-11-08T19:00:00	7	Dirección del viento	8.05
181135	7	Sololá	716	San Marcos la Laguna 	11	San Marcos la laguna 	3	Marzo	2023-08-03T00:00:00	2024-11-08T19:00:00	1	Precipitación	0
181136	7	Sololá	716	San Marcos la Laguna 	11	San Marcos la laguna 	3	Marzo	2023-08-03T00:00:00	2024-11-08T19:00:00	8	Radiación solar	0
181137	7	Sololá	716	San Marcos la Laguna 	11	San Marcos la laguna 	3	Marzo	2023-08-03T00:00:00	2024-11-08T20:00:00	2	Temperatura media	18.2
181138	7	Sololá	716	San Marcos la Laguna 	11	San Marcos la laguna 	3	Marzo	2023-08-03T00:00:00	2024-11-08T20:00:00	4	Temperatura máxima	18.7
181139	7	Sololá	716	San Marcos la Laguna 	11	San Marcos la laguna 	3	Marzo	2023-08-03T00:00:00	2024-11-08T20:00:00	3	Temperatura mínima	18.2
181140	7	Sololá	716	San Marcos la Laguna 	11	San Marcos la laguna 	3	Marzo	2023-08-03T00:00:00	2024-11-08T20:00:00	5	Humedad	86
181141	7	Sololá	716	San Marcos la Laguna 	11	San Marcos la laguna 	3	Marzo	2023-08-03T00:00:00	2024-11-08T20:00:00	6	Velocidad del viento	4.8
181142	7	Sololá	716	San Marcos la Laguna 	11	San Marcos la laguna 	3	Marzo	2023-08-03T00:00:00	2024-11-08T20:00:00	7	Dirección del viento	4.83
181143	7	Sololá	716	San Marcos la Laguna 	11	San Marcos la laguna 	3	Marzo	2023-08-03T00:00:00	2024-11-08T20:00:00	1	Precipitación	0
181144	7	Sololá	716	San Marcos la Laguna 	11	San Marcos la laguna 	3	Marzo	2023-08-03T00:00:00	2024-11-08T20:00:00	8	Radiación solar	0
181145	7	Sololá	716	San Marcos la Laguna 	11	San Marcos la laguna 	3	Marzo	2023-08-03T00:00:00	2024-11-08T21:00:00	2	Temperatura media	17.5
181146	7	Sololá	716	San Marcos la Laguna 	11	San Marcos la laguna 	3	Marzo	2023-08-03T00:00:00	2024-11-08T21:00:00	4	Temperatura máxima	18.3
181147	7	Sololá	716	San Marcos la Laguna 	11	San Marcos la laguna 	3	Marzo	2023-08-03T00:00:00	2024-11-08T21:00:00	3	Temperatura mínima	17.5
181148	7	Sololá	716	San Marcos la Laguna 	11	San Marcos la laguna 	3	Marzo	2023-08-03T00:00:00	2024-11-08T21:00:00	5	Humedad	86
181149	7	Sololá	716	San Marcos la Laguna 	11	San Marcos la laguna 	3	Marzo	2023-08-03T00:00:00	2024-11-08T21:00:00	6	Velocidad del viento	3.2
181150	7	Sololá	716	San Marcos la Laguna 	11	San Marcos la laguna 	3	Marzo	2023-08-03T00:00:00	2024-11-08T21:00:00	7	Dirección del viento	3.22
181151	7	Sololá	716	San Marcos la Laguna 	11	San Marcos la laguna 	3	Marzo	2023-08-03T00:00:00	2024-11-08T21:00:00	1	Precipitación	0
181152	7	Sololá	716	San Marcos la Laguna 	11	San Marcos la laguna 	3	Marzo	2023-08-03T00:00:00	2024-11-08T21:00:00	8	Radiación solar	0
181153	7	Sololá	716	San Marcos la Laguna 	11	San Marcos la laguna 	3	Marzo	2023-08-03T00:00:00	2024-11-08T22:00:00	2	Temperatura media	17.8
181154	7	Sololá	716	San Marcos la Laguna 	11	San Marcos la laguna 	3	Marzo	2023-08-03T00:00:00	2024-11-08T22:00:00	4	Temperatura máxima	17.8
181155	7	Sololá	716	San Marcos la Laguna 	11	San Marcos la laguna 	3	Marzo	2023-08-03T00:00:00	2024-11-08T22:00:00	3	Temperatura mínima	17.5
181156	7	Sololá	716	San Marcos la Laguna 	11	San Marcos la laguna 	3	Marzo	2023-08-03T00:00:00	2024-11-08T22:00:00	5	Humedad	81
181157	7	Sololá	716	San Marcos la Laguna 	11	San Marcos la laguna 	3	Marzo	2023-08-03T00:00:00	2024-11-08T22:00:00	6	Velocidad del viento	4.8
181158	7	Sololá	716	San Marcos la Laguna 	11	San Marcos la laguna 	3	Marzo	2023-08-03T00:00:00	2024-11-08T22:00:00	7	Dirección del viento	4.83
181159	7	Sololá	716	San Marcos la Laguna 	11	San Marcos la laguna 	3	Marzo	2023-08-03T00:00:00	2024-11-08T22:00:00	1	Precipitación	0
181160	7	Sololá	716	San Marcos la Laguna 	11	San Marcos la laguna 	3	Marzo	2023-08-03T00:00:00	2024-11-08T22:00:00	8	Radiación solar	0
181161	7	Sololá	716	San Marcos la Laguna 	11	San Marcos la laguna 	3	Marzo	2023-08-03T00:00:00	2024-11-08T23:00:00	2	Temperatura media	16.8
181162	7	Sololá	716	San Marcos la Laguna 	11	San Marcos la laguna 	3	Marzo	2023-08-03T00:00:00	2024-11-08T23:00:00	4	Temperatura máxima	17.9
181163	7	Sololá	716	San Marcos la Laguna 	11	San Marcos la laguna 	3	Marzo	2023-08-03T00:00:00	2024-11-08T23:00:00	3	Temperatura mínima	16.8
181164	7	Sololá	716	San Marcos la Laguna 	11	San Marcos la laguna 	3	Marzo	2023-08-03T00:00:00	2024-11-08T23:00:00	5	Humedad	83
181165	7	Sololá	716	San Marcos la Laguna 	11	San Marcos la laguna 	3	Marzo	2023-08-03T00:00:00	2024-11-08T23:00:00	6	Velocidad del viento	4.8
181166	7	Sololá	716	San Marcos la Laguna 	11	San Marcos la laguna 	3	Marzo	2023-08-03T00:00:00	2024-11-08T23:00:00	7	Dirección del viento	4.83
181167	7	Sololá	716	San Marcos la Laguna 	11	San Marcos la laguna 	3	Marzo	2023-08-03T00:00:00	2024-11-08T23:00:00	1	Precipitación	0
181168	7	Sololá	716	San Marcos la Laguna 	11	San Marcos la laguna 	3	Marzo	2023-08-03T00:00:00	2024-11-08T23:00:00	8	Radiación solar	0
181169	7	Sololá	716	San Marcos la Laguna 	11	San Marcos la laguna 	3	Marzo	2023-09-03T00:00:00	2024-11-08T00:00:00	2	Temperatura media	16.3
181170	7	Sololá	716	San Marcos la Laguna 	11	San Marcos la laguna 	3	Marzo	2023-09-03T00:00:00	2024-11-08T00:00:00	4	Temperatura máxima	16.8
181171	7	Sololá	716	San Marcos la Laguna 	11	San Marcos la laguna 	3	Marzo	2023-09-03T00:00:00	2024-11-08T00:00:00	3	Temperatura mínima	16.2
181172	7	Sololá	716	San Marcos la Laguna 	11	San Marcos la laguna 	3	Marzo	2023-09-03T00:00:00	2024-11-08T00:00:00	5	Humedad	81
181173	7	Sololá	716	San Marcos la Laguna 	11	San Marcos la laguna 	3	Marzo	2023-09-03T00:00:00	2024-11-08T00:00:00	6	Velocidad del viento	6.4
181174	7	Sololá	716	San Marcos la Laguna 	11	San Marcos la laguna 	3	Marzo	2023-09-03T00:00:00	2024-11-08T00:00:00	7	Dirección del viento	6.44
181175	7	Sololá	716	San Marcos la Laguna 	11	San Marcos la laguna 	3	Marzo	2023-09-03T00:00:00	2024-11-08T00:00:00	1	Precipitación	0
181176	7	Sololá	716	San Marcos la Laguna 	11	San Marcos la laguna 	3	Marzo	2023-09-03T00:00:00	2024-11-08T00:00:00	8	Radiación solar	0
181177	7	Sololá	716	San Marcos la Laguna 	11	San Marcos la laguna 	3	Marzo	2023-09-03T00:00:00	2024-11-08T01:00:00	2	Temperatura media	16.4
181178	7	Sololá	716	San Marcos la Laguna 	11	San Marcos la laguna 	3	Marzo	2023-09-03T00:00:00	2024-11-08T01:00:00	4	Temperatura máxima	16.6
181179	7	Sololá	716	San Marcos la Laguna 	11	San Marcos la laguna 	3	Marzo	2023-09-03T00:00:00	2024-11-08T01:00:00	3	Temperatura mínima	15.9
181180	7	Sololá	716	San Marcos la Laguna 	11	San Marcos la laguna 	3	Marzo	2023-09-03T00:00:00	2024-11-08T01:00:00	5	Humedad	77
181181	7	Sololá	716	San Marcos la Laguna 	11	San Marcos la laguna 	3	Marzo	2023-09-03T00:00:00	2024-11-08T01:00:00	6	Velocidad del viento	8
181182	7	Sololá	716	San Marcos la Laguna 	11	San Marcos la laguna 	3	Marzo	2023-09-03T00:00:00	2024-11-08T01:00:00	7	Dirección del viento	8.05
181183	7	Sololá	716	San Marcos la Laguna 	11	San Marcos la laguna 	3	Marzo	2023-09-03T00:00:00	2024-11-08T01:00:00	1	Precipitación	0
181184	7	Sololá	716	San Marcos la Laguna 	11	San Marcos la laguna 	3	Marzo	2023-09-03T00:00:00	2024-11-08T01:00:00	8	Radiación solar	0
181185	7	Sololá	716	San Marcos la Laguna 	11	San Marcos la laguna 	3	Marzo	2023-09-03T00:00:00	2024-11-08T02:00:00	2	Temperatura media	15.9
181186	7	Sololá	716	San Marcos la Laguna 	11	San Marcos la laguna 	3	Marzo	2023-09-03T00:00:00	2024-11-08T02:00:00	4	Temperatura máxima	16.4
181187	7	Sololá	716	San Marcos la Laguna 	11	San Marcos la laguna 	3	Marzo	2023-09-03T00:00:00	2024-11-08T02:00:00	3	Temperatura mínima	15.6
181188	7	Sololá	716	San Marcos la Laguna 	11	San Marcos la laguna 	3	Marzo	2023-09-03T00:00:00	2024-11-08T02:00:00	5	Humedad	78
181189	7	Sololá	716	San Marcos la Laguna 	11	San Marcos la laguna 	3	Marzo	2023-09-03T00:00:00	2024-11-08T02:00:00	6	Velocidad del viento	6.4
181190	7	Sololá	716	San Marcos la Laguna 	11	San Marcos la laguna 	3	Marzo	2023-09-03T00:00:00	2024-11-08T02:00:00	7	Dirección del viento	6.44
181191	7	Sololá	716	San Marcos la Laguna 	11	San Marcos la laguna 	3	Marzo	2023-09-03T00:00:00	2024-11-08T02:00:00	1	Precipitación	0
181192	7	Sololá	716	San Marcos la Laguna 	11	San Marcos la laguna 	3	Marzo	2023-09-03T00:00:00	2024-11-08T02:00:00	8	Radiación solar	0
181193	7	Sololá	716	San Marcos la Laguna 	11	San Marcos la laguna 	3	Marzo	2023-09-03T00:00:00	2024-11-08T03:00:00	2	Temperatura media	15.8
181194	7	Sololá	716	San Marcos la Laguna 	11	San Marcos la laguna 	3	Marzo	2023-09-03T00:00:00	2024-11-08T03:00:00	4	Temperatura máxima	16.1
181195	7	Sololá	716	San Marcos la Laguna 	11	San Marcos la laguna 	3	Marzo	2023-09-03T00:00:00	2024-11-08T03:00:00	3	Temperatura mínima	15.2
181196	7	Sololá	716	San Marcos la Laguna 	11	San Marcos la laguna 	3	Marzo	2023-09-03T00:00:00	2024-11-08T03:00:00	5	Humedad	80
181197	7	Sololá	716	San Marcos la Laguna 	11	San Marcos la laguna 	3	Marzo	2023-09-03T00:00:00	2024-11-08T03:00:00	6	Velocidad del viento	6.4
181198	7	Sololá	716	San Marcos la Laguna 	11	San Marcos la laguna 	3	Marzo	2023-09-03T00:00:00	2024-11-08T03:00:00	7	Dirección del viento	6.44
181199	7	Sololá	716	San Marcos la Laguna 	11	San Marcos la laguna 	3	Marzo	2023-09-03T00:00:00	2024-11-08T03:00:00	1	Precipitación	0
181200	7	Sololá	716	San Marcos la Laguna 	11	San Marcos la laguna 	3	Marzo	2023-09-03T00:00:00	2024-11-08T03:00:00	8	Radiación solar	0
181201	7	Sololá	716	San Marcos la Laguna 	11	San Marcos la laguna 	3	Marzo	2023-09-03T00:00:00	2024-11-08T04:00:00	2	Temperatura media	16
181202	7	Sololá	716	San Marcos la Laguna 	11	San Marcos la laguna 	3	Marzo	2023-09-03T00:00:00	2024-11-08T04:00:00	4	Temperatura máxima	16
181203	7	Sololá	716	San Marcos la Laguna 	11	San Marcos la laguna 	3	Marzo	2023-09-03T00:00:00	2024-11-08T04:00:00	3	Temperatura mínima	15.7
181204	7	Sololá	716	San Marcos la Laguna 	11	San Marcos la laguna 	3	Marzo	2023-09-03T00:00:00	2024-11-08T04:00:00	5	Humedad	82
181205	7	Sololá	716	San Marcos la Laguna 	11	San Marcos la laguna 	3	Marzo	2023-09-03T00:00:00	2024-11-08T04:00:00	6	Velocidad del viento	6.4
181206	7	Sololá	716	San Marcos la Laguna 	11	San Marcos la laguna 	3	Marzo	2023-09-03T00:00:00	2024-11-08T04:00:00	7	Dirección del viento	6.44
181207	7	Sololá	716	San Marcos la Laguna 	11	San Marcos la laguna 	3	Marzo	2023-09-03T00:00:00	2024-11-08T04:00:00	1	Precipitación	0
181208	7	Sololá	716	San Marcos la Laguna 	11	San Marcos la laguna 	3	Marzo	2023-09-03T00:00:00	2024-11-08T04:00:00	8	Radiación solar	0
181209	7	Sololá	716	San Marcos la Laguna 	11	San Marcos la laguna 	3	Marzo	2023-09-03T00:00:00	2024-11-08T05:00:00	2	Temperatura media	14.6
181210	7	Sololá	716	San Marcos la Laguna 	11	San Marcos la laguna 	3	Marzo	2023-09-03T00:00:00	2024-11-08T05:00:00	4	Temperatura máxima	16
181211	7	Sololá	716	San Marcos la Laguna 	11	San Marcos la laguna 	3	Marzo	2023-09-03T00:00:00	2024-11-08T05:00:00	3	Temperatura mínima	14.6
181212	7	Sololá	716	San Marcos la Laguna 	11	San Marcos la laguna 	3	Marzo	2023-09-03T00:00:00	2024-11-08T05:00:00	5	Humedad	85
181213	7	Sololá	716	San Marcos la Laguna 	11	San Marcos la laguna 	3	Marzo	2023-09-03T00:00:00	2024-11-08T05:00:00	6	Velocidad del viento	4.8
181214	7	Sololá	716	San Marcos la Laguna 	11	San Marcos la laguna 	3	Marzo	2023-09-03T00:00:00	2024-11-08T05:00:00	7	Dirección del viento	4.83
181215	7	Sololá	716	San Marcos la Laguna 	11	San Marcos la laguna 	3	Marzo	2023-09-03T00:00:00	2024-11-08T05:00:00	1	Precipitación	0
181216	7	Sololá	716	San Marcos la Laguna 	11	San Marcos la laguna 	3	Marzo	2023-09-03T00:00:00	2024-11-08T05:00:00	8	Radiación solar	0
181217	7	Sololá	716	San Marcos la Laguna 	11	San Marcos la laguna 	3	Marzo	2023-09-03T00:00:00	2024-11-08T06:00:00	2	Temperatura media	14.9
181218	7	Sololá	716	San Marcos la Laguna 	11	San Marcos la laguna 	3	Marzo	2023-09-03T00:00:00	2024-11-08T06:00:00	4	Temperatura máxima	15.1
181219	7	Sololá	716	San Marcos la Laguna 	11	San Marcos la laguna 	3	Marzo	2023-09-03T00:00:00	2024-11-08T06:00:00	3	Temperatura mínima	14.3
181220	7	Sololá	716	San Marcos la Laguna 	11	San Marcos la laguna 	3	Marzo	2023-09-03T00:00:00	2024-11-08T06:00:00	5	Humedad	83
181221	7	Sololá	716	San Marcos la Laguna 	11	San Marcos la laguna 	3	Marzo	2023-09-03T00:00:00	2024-11-08T06:00:00	6	Velocidad del viento	6.4
181222	7	Sololá	716	San Marcos la Laguna 	11	San Marcos la laguna 	3	Marzo	2023-09-03T00:00:00	2024-11-08T06:00:00	7	Dirección del viento	6.44
181223	7	Sololá	716	San Marcos la Laguna 	11	San Marcos la laguna 	3	Marzo	2023-09-03T00:00:00	2024-11-08T06:00:00	1	Precipitación	0
181224	7	Sololá	716	San Marcos la Laguna 	11	San Marcos la laguna 	3	Marzo	2023-09-03T00:00:00	2024-11-08T06:00:00	8	Radiación solar	0
181225	7	Sololá	716	San Marcos la Laguna 	11	San Marcos la laguna 	3	Marzo	2023-09-03T00:00:00	2024-11-08T07:00:00	2	Temperatura media	15
181226	7	Sololá	716	San Marcos la Laguna 	11	San Marcos la laguna 	3	Marzo	2023-09-03T00:00:00	2024-11-08T07:00:00	4	Temperatura máxima	15
181227	7	Sololá	716	San Marcos la Laguna 	11	San Marcos la laguna 	3	Marzo	2023-09-03T00:00:00	2024-11-08T07:00:00	3	Temperatura mínima	14.3
181228	7	Sololá	716	San Marcos la Laguna 	11	San Marcos la laguna 	3	Marzo	2023-09-03T00:00:00	2024-11-08T07:00:00	5	Humedad	85
181229	7	Sololá	716	San Marcos la Laguna 	11	San Marcos la laguna 	3	Marzo	2023-09-03T00:00:00	2024-11-08T07:00:00	6	Velocidad del viento	6.4
181230	7	Sololá	716	San Marcos la Laguna 	11	San Marcos la laguna 	3	Marzo	2023-09-03T00:00:00	2024-11-08T07:00:00	7	Dirección del viento	6.44
181231	7	Sololá	716	San Marcos la Laguna 	11	San Marcos la laguna 	3	Marzo	2023-09-03T00:00:00	2024-11-08T07:00:00	1	Precipitación	0
181232	7	Sololá	716	San Marcos la Laguna 	11	San Marcos la laguna 	3	Marzo	2023-09-03T00:00:00	2024-11-08T07:00:00	8	Radiación solar	26
181233	7	Sololá	716	San Marcos la Laguna 	11	San Marcos la laguna 	3	Marzo	2023-09-03T00:00:00	2024-11-08T08:00:00	2	Temperatura media	17.7
181234	7	Sololá	716	San Marcos la Laguna 	11	San Marcos la laguna 	3	Marzo	2023-09-03T00:00:00	2024-11-08T08:00:00	4	Temperatura máxima	17.7
181235	7	Sololá	716	San Marcos la Laguna 	11	San Marcos la laguna 	3	Marzo	2023-09-03T00:00:00	2024-11-08T08:00:00	3	Temperatura mínima	15
181236	7	Sololá	716	San Marcos la Laguna 	11	San Marcos la laguna 	3	Marzo	2023-09-03T00:00:00	2024-11-08T08:00:00	5	Humedad	79
181237	7	Sololá	716	San Marcos la Laguna 	11	San Marcos la laguna 	3	Marzo	2023-09-03T00:00:00	2024-11-08T08:00:00	6	Velocidad del viento	1.6
181238	7	Sololá	716	San Marcos la Laguna 	11	San Marcos la laguna 	3	Marzo	2023-09-03T00:00:00	2024-11-08T08:00:00	7	Dirección del viento	1.61
181239	7	Sololá	716	San Marcos la Laguna 	11	San Marcos la laguna 	3	Marzo	2023-09-03T00:00:00	2024-11-08T08:00:00	1	Precipitación	0
181240	7	Sololá	716	San Marcos la Laguna 	11	San Marcos la laguna 	3	Marzo	2023-09-03T00:00:00	2024-11-08T08:00:00	8	Radiación solar	172
181241	7	Sololá	716	San Marcos la Laguna 	11	San Marcos la laguna 	3	Marzo	2023-09-03T00:00:00	2024-11-08T09:00:00	2	Temperatura media	19.6
181242	7	Sololá	716	San Marcos la Laguna 	11	San Marcos la laguna 	3	Marzo	2023-09-03T00:00:00	2024-11-08T09:00:00	4	Temperatura máxima	19.6
181243	7	Sololá	716	San Marcos la Laguna 	11	San Marcos la laguna 	3	Marzo	2023-09-03T00:00:00	2024-11-08T09:00:00	3	Temperatura mínima	17.7
181244	7	Sololá	716	San Marcos la Laguna 	11	San Marcos la laguna 	3	Marzo	2023-09-03T00:00:00	2024-11-08T09:00:00	5	Humedad	74
181245	7	Sololá	716	San Marcos la Laguna 	11	San Marcos la laguna 	3	Marzo	2023-09-03T00:00:00	2024-11-08T09:00:00	6	Velocidad del viento	3.2
181246	7	Sololá	716	San Marcos la Laguna 	11	San Marcos la laguna 	3	Marzo	2023-09-03T00:00:00	2024-11-08T09:00:00	7	Dirección del viento	3.22
181247	7	Sololá	716	San Marcos la Laguna 	11	San Marcos la laguna 	3	Marzo	2023-09-03T00:00:00	2024-11-08T09:00:00	1	Precipitación	0
181248	7	Sololá	716	San Marcos la Laguna 	11	San Marcos la laguna 	3	Marzo	2023-09-03T00:00:00	2024-11-08T09:00:00	8	Radiación solar	424
181249	7	Sololá	716	San Marcos la Laguna 	11	San Marcos la laguna 	3	Marzo	2023-09-03T00:00:00	2024-11-08T10:00:00	2	Temperatura media	19.2
181250	7	Sololá	716	San Marcos la Laguna 	11	San Marcos la laguna 	3	Marzo	2023-09-03T00:00:00	2024-11-08T10:00:00	4	Temperatura máxima	19.6
181251	7	Sololá	716	San Marcos la Laguna 	11	San Marcos la laguna 	3	Marzo	2023-09-03T00:00:00	2024-11-08T10:00:00	3	Temperatura mínima	19.2
181252	7	Sololá	716	San Marcos la Laguna 	11	San Marcos la laguna 	3	Marzo	2023-09-03T00:00:00	2024-11-08T10:00:00	5	Humedad	76
181253	7	Sololá	716	San Marcos la Laguna 	11	San Marcos la laguna 	3	Marzo	2023-09-03T00:00:00	2024-11-08T10:00:00	6	Velocidad del viento	6.4
181254	7	Sololá	716	San Marcos la Laguna 	11	San Marcos la laguna 	3	Marzo	2023-09-03T00:00:00	2024-11-08T10:00:00	7	Dirección del viento	6.44
181255	7	Sololá	716	San Marcos la Laguna 	11	San Marcos la laguna 	3	Marzo	2023-09-03T00:00:00	2024-11-08T10:00:00	1	Precipitación	0
181256	7	Sololá	716	San Marcos la Laguna 	11	San Marcos la laguna 	3	Marzo	2023-09-03T00:00:00	2024-11-08T10:00:00	8	Radiación solar	626
181257	7	Sololá	716	San Marcos la Laguna 	11	San Marcos la laguna 	3	Marzo	2023-09-03T00:00:00	2024-11-08T11:00:00	2	Temperatura media	21.2
181258	7	Sololá	716	San Marcos la Laguna 	11	San Marcos la laguna 	3	Marzo	2023-09-03T00:00:00	2024-11-08T11:00:00	4	Temperatura máxima	21.6
181259	7	Sololá	716	San Marcos la Laguna 	11	San Marcos la laguna 	3	Marzo	2023-09-03T00:00:00	2024-11-08T11:00:00	3	Temperatura mínima	19.2
181260	7	Sololá	716	San Marcos la Laguna 	11	San Marcos la laguna 	3	Marzo	2023-09-03T00:00:00	2024-11-08T11:00:00	5	Humedad	66
181261	7	Sololá	716	San Marcos la Laguna 	11	San Marcos la laguna 	3	Marzo	2023-09-03T00:00:00	2024-11-08T11:00:00	6	Velocidad del viento	4.8
181262	7	Sololá	716	San Marcos la Laguna 	11	San Marcos la laguna 	3	Marzo	2023-09-03T00:00:00	2024-11-08T11:00:00	7	Dirección del viento	4.83
181263	7	Sololá	716	San Marcos la Laguna 	11	San Marcos la laguna 	3	Marzo	2023-09-03T00:00:00	2024-11-08T11:00:00	1	Precipitación	0
181264	7	Sololá	716	San Marcos la Laguna 	11	San Marcos la laguna 	3	Marzo	2023-09-03T00:00:00	2024-11-08T11:00:00	8	Radiación solar	759
181265	7	Sololá	716	San Marcos la Laguna 	11	San Marcos la laguna 	3	Marzo	2023-09-03T00:00:00	2024-11-08T12:00:00	2	Temperatura media	21.1
181266	7	Sololá	716	San Marcos la Laguna 	11	San Marcos la laguna 	3	Marzo	2023-09-03T00:00:00	2024-11-08T12:00:00	4	Temperatura máxima	21.3
181267	7	Sololá	716	San Marcos la Laguna 	11	San Marcos la laguna 	3	Marzo	2023-09-03T00:00:00	2024-11-08T12:00:00	3	Temperatura mínima	20.8
181268	7	Sololá	716	San Marcos la Laguna 	11	San Marcos la laguna 	3	Marzo	2023-09-03T00:00:00	2024-11-08T12:00:00	5	Humedad	72
181269	7	Sololá	716	San Marcos la Laguna 	11	San Marcos la laguna 	3	Marzo	2023-09-03T00:00:00	2024-11-08T12:00:00	6	Velocidad del viento	11.3
181270	7	Sololá	716	San Marcos la Laguna 	11	San Marcos la laguna 	3	Marzo	2023-09-03T00:00:00	2024-11-08T12:00:00	7	Dirección del viento	11.27
181271	7	Sololá	716	San Marcos la Laguna 	11	San Marcos la laguna 	3	Marzo	2023-09-03T00:00:00	2024-11-08T12:00:00	1	Precipitación	0
181272	7	Sololá	716	San Marcos la Laguna 	11	San Marcos la laguna 	3	Marzo	2023-09-03T00:00:00	2024-11-08T12:00:00	8	Radiación solar	866
181273	7	Sololá	716	San Marcos la Laguna 	11	San Marcos la laguna 	3	Marzo	2023-09-03T00:00:00	2024-11-08T13:00:00	2	Temperatura media	21.3
181274	7	Sololá	716	San Marcos la Laguna 	11	San Marcos la laguna 	3	Marzo	2023-09-03T00:00:00	2024-11-08T13:00:00	4	Temperatura máxima	21.7
181275	7	Sololá	716	San Marcos la Laguna 	11	San Marcos la laguna 	3	Marzo	2023-09-03T00:00:00	2024-11-08T13:00:00	3	Temperatura mínima	20.8
181276	7	Sololá	716	San Marcos la Laguna 	11	San Marcos la laguna 	3	Marzo	2023-09-03T00:00:00	2024-11-08T13:00:00	5	Humedad	74
181277	7	Sololá	716	San Marcos la Laguna 	11	San Marcos la laguna 	3	Marzo	2023-09-03T00:00:00	2024-11-08T13:00:00	6	Velocidad del viento	12.9
181278	7	Sololá	716	San Marcos la Laguna 	11	San Marcos la laguna 	3	Marzo	2023-09-03T00:00:00	2024-11-08T13:00:00	7	Dirección del viento	12.87
181279	7	Sololá	716	San Marcos la Laguna 	11	San Marcos la laguna 	3	Marzo	2023-09-03T00:00:00	2024-11-08T13:00:00	1	Precipitación	0
181280	7	Sololá	716	San Marcos la Laguna 	11	San Marcos la laguna 	3	Marzo	2023-09-03T00:00:00	2024-11-08T13:00:00	8	Radiación solar	739
181281	7	Sololá	716	San Marcos la Laguna 	11	San Marcos la laguna 	3	Marzo	2023-09-03T00:00:00	2024-11-08T14:00:00	2	Temperatura media	21.1
181282	7	Sololá	716	San Marcos la Laguna 	11	San Marcos la laguna 	3	Marzo	2023-09-03T00:00:00	2024-11-08T14:00:00	4	Temperatura máxima	21.6
181283	7	Sololá	716	San Marcos la Laguna 	11	San Marcos la laguna 	3	Marzo	2023-09-03T00:00:00	2024-11-08T14:00:00	3	Temperatura mínima	20.7
181284	7	Sololá	716	San Marcos la Laguna 	11	San Marcos la laguna 	3	Marzo	2023-09-03T00:00:00	2024-11-08T14:00:00	5	Humedad	74
181285	7	Sololá	716	San Marcos la Laguna 	11	San Marcos la laguna 	3	Marzo	2023-09-03T00:00:00	2024-11-08T14:00:00	6	Velocidad del viento	14.5
181286	7	Sololá	716	San Marcos la Laguna 	11	San Marcos la laguna 	3	Marzo	2023-09-03T00:00:00	2024-11-08T14:00:00	7	Dirección del viento	14.48
181287	7	Sololá	716	San Marcos la Laguna 	11	San Marcos la laguna 	3	Marzo	2023-09-03T00:00:00	2024-11-08T14:00:00	1	Precipitación	0
181288	7	Sololá	716	San Marcos la Laguna 	11	San Marcos la laguna 	3	Marzo	2023-09-03T00:00:00	2024-11-08T14:00:00	8	Radiación solar	727
181289	7	Sololá	716	San Marcos la Laguna 	11	San Marcos la laguna 	3	Marzo	2023-09-03T00:00:00	2024-11-08T15:00:00	2	Temperatura media	21.1
181290	7	Sololá	716	San Marcos la Laguna 	11	San Marcos la laguna 	3	Marzo	2023-09-03T00:00:00	2024-11-08T15:00:00	4	Temperatura máxima	21.4
181291	7	Sololá	716	San Marcos la Laguna 	11	San Marcos la laguna 	3	Marzo	2023-09-03T00:00:00	2024-11-08T15:00:00	3	Temperatura mínima	21.1
181292	7	Sololá	716	San Marcos la Laguna 	11	San Marcos la laguna 	3	Marzo	2023-09-03T00:00:00	2024-11-08T15:00:00	5	Humedad	76
181293	7	Sololá	716	San Marcos la Laguna 	11	San Marcos la laguna 	3	Marzo	2023-09-03T00:00:00	2024-11-08T15:00:00	6	Velocidad del viento	11.3
181294	7	Sololá	716	San Marcos la Laguna 	11	San Marcos la laguna 	3	Marzo	2023-09-03T00:00:00	2024-11-08T15:00:00	7	Dirección del viento	11.27
181295	7	Sololá	716	San Marcos la Laguna 	11	San Marcos la laguna 	3	Marzo	2023-09-03T00:00:00	2024-11-08T15:00:00	1	Precipitación	0
181296	7	Sololá	716	San Marcos la Laguna 	11	San Marcos la laguna 	3	Marzo	2023-09-03T00:00:00	2024-11-08T15:00:00	8	Radiación solar	265
181297	7	Sololá	716	San Marcos la Laguna 	11	San Marcos la laguna 	3	Marzo	2023-09-03T00:00:00	2024-11-08T16:00:00	2	Temperatura media	20.9
181298	7	Sololá	716	San Marcos la Laguna 	11	San Marcos la laguna 	3	Marzo	2023-09-03T00:00:00	2024-11-08T16:00:00	4	Temperatura máxima	21.1
181299	7	Sololá	716	San Marcos la Laguna 	11	San Marcos la laguna 	3	Marzo	2023-09-03T00:00:00	2024-11-08T16:00:00	3	Temperatura mínima	20.8
181300	7	Sololá	716	San Marcos la Laguna 	11	San Marcos la laguna 	3	Marzo	2023-09-03T00:00:00	2024-11-08T16:00:00	5	Humedad	75
181301	7	Sololá	716	San Marcos la Laguna 	11	San Marcos la laguna 	3	Marzo	2023-09-03T00:00:00	2024-11-08T16:00:00	6	Velocidad del viento	9.7
181302	7	Sololá	716	San Marcos la Laguna 	11	San Marcos la laguna 	3	Marzo	2023-09-03T00:00:00	2024-11-08T16:00:00	7	Dirección del viento	9.66
181303	7	Sololá	716	San Marcos la Laguna 	11	San Marcos la laguna 	3	Marzo	2023-09-03T00:00:00	2024-11-08T16:00:00	1	Precipitación	0
181304	7	Sololá	716	San Marcos la Laguna 	11	San Marcos la laguna 	3	Marzo	2023-09-03T00:00:00	2024-11-08T16:00:00	8	Radiación solar	480
181305	7	Sololá	716	San Marcos la Laguna 	11	San Marcos la laguna 	3	Marzo	2023-09-03T00:00:00	2024-11-08T17:00:00	2	Temperatura media	20.4
181306	7	Sololá	716	San Marcos la Laguna 	11	San Marcos la laguna 	3	Marzo	2023-09-03T00:00:00	2024-11-08T17:00:00	4	Temperatura máxima	21
181307	7	Sololá	716	San Marcos la Laguna 	11	San Marcos la laguna 	3	Marzo	2023-09-03T00:00:00	2024-11-08T17:00:00	3	Temperatura mínima	20.4
181308	7	Sololá	716	San Marcos la Laguna 	11	San Marcos la laguna 	3	Marzo	2023-09-03T00:00:00	2024-11-08T17:00:00	5	Humedad	77
181309	7	Sololá	716	San Marcos la Laguna 	11	San Marcos la laguna 	3	Marzo	2023-09-03T00:00:00	2024-11-08T17:00:00	6	Velocidad del viento	8
181310	7	Sololá	716	San Marcos la Laguna 	11	San Marcos la laguna 	3	Marzo	2023-09-03T00:00:00	2024-11-08T17:00:00	7	Dirección del viento	8.05
181311	7	Sololá	716	San Marcos la Laguna 	11	San Marcos la laguna 	3	Marzo	2023-09-03T00:00:00	2024-11-08T17:00:00	1	Precipitación	0
181312	7	Sololá	716	San Marcos la Laguna 	11	San Marcos la laguna 	3	Marzo	2023-09-03T00:00:00	2024-11-08T17:00:00	8	Radiación solar	170
181313	7	Sololá	716	San Marcos la Laguna 	11	San Marcos la laguna 	3	Marzo	2023-09-03T00:00:00	2024-11-08T18:00:00	2	Temperatura media	20.3
181314	7	Sololá	716	San Marcos la Laguna 	11	San Marcos la laguna 	3	Marzo	2023-09-03T00:00:00	2024-11-08T18:00:00	4	Temperatura máxima	20.4
181315	7	Sololá	716	San Marcos la Laguna 	11	San Marcos la laguna 	3	Marzo	2023-09-03T00:00:00	2024-11-08T18:00:00	3	Temperatura mínima	20.3
181316	7	Sololá	716	San Marcos la Laguna 	11	San Marcos la laguna 	3	Marzo	2023-09-03T00:00:00	2024-11-08T18:00:00	5	Humedad	79
181317	7	Sololá	716	San Marcos la Laguna 	11	San Marcos la laguna 	3	Marzo	2023-09-03T00:00:00	2024-11-08T18:00:00	6	Velocidad del viento	4.8
181318	7	Sololá	716	San Marcos la Laguna 	11	San Marcos la laguna 	3	Marzo	2023-09-03T00:00:00	2024-11-08T18:00:00	7	Dirección del viento	4.83
181319	7	Sololá	716	San Marcos la Laguna 	11	San Marcos la laguna 	3	Marzo	2023-09-03T00:00:00	2024-11-08T18:00:00	1	Precipitación	0
181320	7	Sololá	716	San Marcos la Laguna 	11	San Marcos la laguna 	3	Marzo	2023-09-03T00:00:00	2024-11-08T18:00:00	8	Radiación solar	126
181321	7	Sololá	716	San Marcos la Laguna 	11	San Marcos la laguna 	3	Marzo	2023-09-03T00:00:00	2024-11-08T19:00:00	2	Temperatura media	19.9
181322	7	Sololá	716	San Marcos la Laguna 	11	San Marcos la laguna 	3	Marzo	2023-09-03T00:00:00	2024-11-08T19:00:00	4	Temperatura máxima	20.3
181323	7	Sololá	716	San Marcos la Laguna 	11	San Marcos la laguna 	3	Marzo	2023-09-03T00:00:00	2024-11-08T19:00:00	3	Temperatura mínima	19.9
181324	7	Sololá	716	San Marcos la Laguna 	11	San Marcos la laguna 	3	Marzo	2023-09-03T00:00:00	2024-11-08T19:00:00	5	Humedad	81
181325	7	Sololá	716	San Marcos la Laguna 	11	San Marcos la laguna 	3	Marzo	2023-09-03T00:00:00	2024-11-08T19:00:00	6	Velocidad del viento	3.2
181326	7	Sololá	716	San Marcos la Laguna 	11	San Marcos la laguna 	3	Marzo	2023-09-03T00:00:00	2024-11-08T19:00:00	7	Dirección del viento	3.22
181327	7	Sololá	716	San Marcos la Laguna 	11	San Marcos la laguna 	3	Marzo	2023-09-03T00:00:00	2024-11-08T19:00:00	1	Precipitación	0
181328	7	Sololá	716	San Marcos la Laguna 	11	San Marcos la laguna 	3	Marzo	2023-09-03T00:00:00	2024-11-08T19:00:00	8	Radiación solar	0
181329	7	Sololá	716	San Marcos la Laguna 	11	San Marcos la laguna 	3	Marzo	2023-09-03T00:00:00	2024-11-08T20:00:00	2	Temperatura media	19.4
181330	7	Sololá	716	San Marcos la Laguna 	11	San Marcos la laguna 	3	Marzo	2023-09-03T00:00:00	2024-11-08T20:00:00	4	Temperatura máxima	20.1
181331	7	Sololá	716	San Marcos la Laguna 	11	San Marcos la laguna 	3	Marzo	2023-09-03T00:00:00	2024-11-08T20:00:00	3	Temperatura mínima	19.4
181332	7	Sololá	716	San Marcos la Laguna 	11	San Marcos la laguna 	3	Marzo	2023-09-03T00:00:00	2024-11-08T20:00:00	5	Humedad	87
181333	7	Sololá	716	San Marcos la Laguna 	11	San Marcos la laguna 	3	Marzo	2023-09-03T00:00:00	2024-11-08T20:00:00	6	Velocidad del viento	6.4
181334	7	Sololá	716	San Marcos la Laguna 	11	San Marcos la laguna 	3	Marzo	2023-09-03T00:00:00	2024-11-08T20:00:00	7	Dirección del viento	6.44
181335	7	Sololá	716	San Marcos la Laguna 	11	San Marcos la laguna 	3	Marzo	2023-09-03T00:00:00	2024-11-08T20:00:00	1	Precipitación	0
181336	7	Sololá	716	San Marcos la Laguna 	11	San Marcos la laguna 	3	Marzo	2023-09-03T00:00:00	2024-11-08T20:00:00	8	Radiación solar	0
181337	7	Sololá	716	San Marcos la Laguna 	11	San Marcos la laguna 	3	Marzo	2023-09-03T00:00:00	2024-11-08T21:00:00	2	Temperatura media	18.6
181338	7	Sololá	716	San Marcos la Laguna 	11	San Marcos la laguna 	3	Marzo	2023-09-03T00:00:00	2024-11-08T21:00:00	4	Temperatura máxima	19.4
181339	7	Sololá	716	San Marcos la Laguna 	11	San Marcos la laguna 	3	Marzo	2023-09-03T00:00:00	2024-11-08T21:00:00	3	Temperatura mínima	18.6
181340	7	Sololá	716	San Marcos la Laguna 	11	San Marcos la laguna 	3	Marzo	2023-09-03T00:00:00	2024-11-08T21:00:00	5	Humedad	89
181341	7	Sololá	716	San Marcos la Laguna 	11	San Marcos la laguna 	3	Marzo	2023-09-03T00:00:00	2024-11-08T21:00:00	6	Velocidad del viento	8
181342	7	Sololá	716	San Marcos la Laguna 	11	San Marcos la laguna 	3	Marzo	2023-09-03T00:00:00	2024-11-08T21:00:00	7	Dirección del viento	8.05
181343	7	Sololá	716	San Marcos la Laguna 	11	San Marcos la laguna 	3	Marzo	2023-09-03T00:00:00	2024-11-08T21:00:00	1	Precipitación	0
181344	7	Sololá	716	San Marcos la Laguna 	11	San Marcos la laguna 	3	Marzo	2023-09-03T00:00:00	2024-11-08T21:00:00	8	Radiación solar	0
181345	7	Sololá	716	San Marcos la Laguna 	11	San Marcos la laguna 	3	Marzo	2023-09-03T00:00:00	2024-11-08T22:00:00	2	Temperatura media	18.2
181346	7	Sololá	716	San Marcos la Laguna 	11	San Marcos la laguna 	3	Marzo	2023-09-03T00:00:00	2024-11-08T22:00:00	4	Temperatura máxima	18.6
181347	7	Sololá	716	San Marcos la Laguna 	11	San Marcos la laguna 	3	Marzo	2023-09-03T00:00:00	2024-11-08T22:00:00	3	Temperatura mínima	18.2
181348	7	Sololá	716	San Marcos la Laguna 	11	San Marcos la laguna 	3	Marzo	2023-09-03T00:00:00	2024-11-08T22:00:00	5	Humedad	89
181349	7	Sololá	716	San Marcos la Laguna 	11	San Marcos la laguna 	3	Marzo	2023-09-03T00:00:00	2024-11-08T22:00:00	6	Velocidad del viento	8
181350	7	Sololá	716	San Marcos la Laguna 	11	San Marcos la laguna 	3	Marzo	2023-09-03T00:00:00	2024-11-08T22:00:00	7	Dirección del viento	8.05
181351	7	Sololá	716	San Marcos la Laguna 	11	San Marcos la laguna 	3	Marzo	2023-09-03T00:00:00	2024-11-08T22:00:00	1	Precipitación	0
181352	7	Sololá	716	San Marcos la Laguna 	11	San Marcos la laguna 	3	Marzo	2023-09-03T00:00:00	2024-11-08T22:00:00	8	Radiación solar	0
181353	7	Sololá	716	San Marcos la Laguna 	11	San Marcos la laguna 	3	Marzo	2023-09-03T00:00:00	2024-11-08T23:00:00	2	Temperatura media	17.3
181354	7	Sololá	716	San Marcos la Laguna 	11	San Marcos la laguna 	3	Marzo	2023-09-03T00:00:00	2024-11-08T23:00:00	4	Temperatura máxima	18.2
181355	7	Sololá	716	San Marcos la Laguna 	11	San Marcos la laguna 	3	Marzo	2023-09-03T00:00:00	2024-11-08T23:00:00	3	Temperatura mínima	17.3
181356	7	Sololá	716	San Marcos la Laguna 	11	San Marcos la laguna 	3	Marzo	2023-09-03T00:00:00	2024-11-08T23:00:00	5	Humedad	82
181357	7	Sololá	716	San Marcos la Laguna 	11	San Marcos la laguna 	3	Marzo	2023-09-03T00:00:00	2024-11-08T23:00:00	6	Velocidad del viento	3.2
181358	7	Sololá	716	San Marcos la Laguna 	11	San Marcos la laguna 	3	Marzo	2023-09-03T00:00:00	2024-11-08T23:00:00	7	Dirección del viento	3.22
181359	7	Sololá	716	San Marcos la Laguna 	11	San Marcos la laguna 	3	Marzo	2023-09-03T00:00:00	2024-11-08T23:00:00	1	Precipitación	0
181360	7	Sololá	716	San Marcos la Laguna 	11	San Marcos la laguna 	3	Marzo	2023-09-03T00:00:00	2024-11-08T23:00:00	8	Radiación solar	0
181361	7	Sololá	716	San Marcos la Laguna 	11	San Marcos la laguna 	3	Marzo	2023-10-03T00:00:00	2024-11-08T00:00:00	2	Temperatura media	16.7
181362	7	Sololá	716	San Marcos la Laguna 	11	San Marcos la laguna 	3	Marzo	2023-10-03T00:00:00	2024-11-08T00:00:00	4	Temperatura máxima	17.3
181363	7	Sololá	716	San Marcos la Laguna 	11	San Marcos la laguna 	3	Marzo	2023-10-03T00:00:00	2024-11-08T00:00:00	3	Temperatura mínima	16.7
181364	7	Sololá	716	San Marcos la Laguna 	11	San Marcos la laguna 	3	Marzo	2023-10-03T00:00:00	2024-11-08T00:00:00	5	Humedad	82
181365	7	Sololá	716	San Marcos la Laguna 	11	San Marcos la laguna 	3	Marzo	2023-10-03T00:00:00	2024-11-08T00:00:00	6	Velocidad del viento	4.8
181366	7	Sololá	716	San Marcos la Laguna 	11	San Marcos la laguna 	3	Marzo	2023-10-03T00:00:00	2024-11-08T00:00:00	7	Dirección del viento	4.83
181367	7	Sololá	716	San Marcos la Laguna 	11	San Marcos la laguna 	3	Marzo	2023-10-03T00:00:00	2024-11-08T00:00:00	1	Precipitación	0
181368	7	Sololá	716	San Marcos la Laguna 	11	San Marcos la laguna 	3	Marzo	2023-10-03T00:00:00	2024-11-08T00:00:00	8	Radiación solar	0
181369	7	Sololá	716	San Marcos la Laguna 	11	San Marcos la laguna 	3	Marzo	2023-10-03T00:00:00	2024-11-08T01:00:00	2	Temperatura media	16.8
181370	7	Sololá	716	San Marcos la Laguna 	11	San Marcos la laguna 	3	Marzo	2023-10-03T00:00:00	2024-11-08T01:00:00	4	Temperatura máxima	16.9
181371	7	Sololá	716	San Marcos la Laguna 	11	San Marcos la laguna 	3	Marzo	2023-10-03T00:00:00	2024-11-08T01:00:00	3	Temperatura mínima	16.2
181372	7	Sololá	716	San Marcos la Laguna 	11	San Marcos la laguna 	3	Marzo	2023-10-03T00:00:00	2024-11-08T01:00:00	5	Humedad	81
181373	7	Sololá	716	San Marcos la Laguna 	11	San Marcos la laguna 	3	Marzo	2023-10-03T00:00:00	2024-11-08T01:00:00	6	Velocidad del viento	4.8
181374	7	Sololá	716	San Marcos la Laguna 	11	San Marcos la laguna 	3	Marzo	2023-10-03T00:00:00	2024-11-08T01:00:00	7	Dirección del viento	4.83
181375	7	Sololá	716	San Marcos la Laguna 	11	San Marcos la laguna 	3	Marzo	2023-10-03T00:00:00	2024-11-08T01:00:00	1	Precipitación	0
181376	7	Sololá	716	San Marcos la Laguna 	11	San Marcos la laguna 	3	Marzo	2023-10-03T00:00:00	2024-11-08T01:00:00	8	Radiación solar	0
181377	7	Sololá	716	San Marcos la Laguna 	11	San Marcos la laguna 	3	Marzo	2023-10-03T00:00:00	2024-11-08T02:00:00	2	Temperatura media	16.2
181378	7	Sololá	716	San Marcos la Laguna 	11	San Marcos la laguna 	3	Marzo	2023-10-03T00:00:00	2024-11-08T02:00:00	4	Temperatura máxima	16.9
181379	7	Sololá	716	San Marcos la Laguna 	11	San Marcos la laguna 	3	Marzo	2023-10-03T00:00:00	2024-11-08T02:00:00	3	Temperatura mínima	16.1
181380	7	Sololá	716	San Marcos la Laguna 	11	San Marcos la laguna 	3	Marzo	2023-10-03T00:00:00	2024-11-08T02:00:00	5	Humedad	81
181381	7	Sololá	716	San Marcos la Laguna 	11	San Marcos la laguna 	3	Marzo	2023-10-03T00:00:00	2024-11-08T02:00:00	6	Velocidad del viento	4.8
181382	7	Sololá	716	San Marcos la Laguna 	11	San Marcos la laguna 	3	Marzo	2023-10-03T00:00:00	2024-11-08T02:00:00	7	Dirección del viento	4.83
181383	7	Sololá	716	San Marcos la Laguna 	11	San Marcos la laguna 	3	Marzo	2023-10-03T00:00:00	2024-11-08T02:00:00	1	Precipitación	0
181384	7	Sololá	716	San Marcos la Laguna 	11	San Marcos la laguna 	3	Marzo	2023-10-03T00:00:00	2024-11-08T02:00:00	8	Radiación solar	0
181385	7	Sololá	716	San Marcos la Laguna 	11	San Marcos la laguna 	3	Marzo	2023-10-03T00:00:00	2024-11-08T03:00:00	2	Temperatura media	16.6
181386	7	Sololá	716	San Marcos la Laguna 	11	San Marcos la laguna 	3	Marzo	2023-10-03T00:00:00	2024-11-08T03:00:00	4	Temperatura máxima	16.6
181387	7	Sololá	716	San Marcos la Laguna 	11	San Marcos la laguna 	3	Marzo	2023-10-03T00:00:00	2024-11-08T03:00:00	3	Temperatura mínima	16.2
181388	7	Sololá	716	San Marcos la Laguna 	11	San Marcos la laguna 	3	Marzo	2023-10-03T00:00:00	2024-11-08T03:00:00	5	Humedad	81
181389	7	Sololá	716	San Marcos la Laguna 	11	San Marcos la laguna 	3	Marzo	2023-10-03T00:00:00	2024-11-08T03:00:00	6	Velocidad del viento	4.8
181390	7	Sololá	716	San Marcos la Laguna 	11	San Marcos la laguna 	3	Marzo	2023-10-03T00:00:00	2024-11-08T03:00:00	7	Dirección del viento	4.83
181391	7	Sololá	716	San Marcos la Laguna 	11	San Marcos la laguna 	3	Marzo	2023-10-03T00:00:00	2024-11-08T03:00:00	1	Precipitación	0
181392	7	Sololá	716	San Marcos la Laguna 	11	San Marcos la laguna 	3	Marzo	2023-10-03T00:00:00	2024-11-08T03:00:00	8	Radiación solar	0
181393	7	Sololá	716	San Marcos la Laguna 	11	San Marcos la laguna 	3	Marzo	2023-10-03T00:00:00	2024-11-08T04:00:00	2	Temperatura media	16.7
181394	7	Sololá	716	San Marcos la Laguna 	11	San Marcos la laguna 	3	Marzo	2023-10-03T00:00:00	2024-11-08T04:00:00	4	Temperatura máxima	16.8
181395	7	Sololá	716	San Marcos la Laguna 	11	San Marcos la laguna 	3	Marzo	2023-10-03T00:00:00	2024-11-08T04:00:00	3	Temperatura mínima	16.4
181396	7	Sololá	716	San Marcos la Laguna 	11	San Marcos la laguna 	3	Marzo	2023-10-03T00:00:00	2024-11-08T04:00:00	5	Humedad	81
181397	7	Sololá	716	San Marcos la Laguna 	11	San Marcos la laguna 	3	Marzo	2023-10-03T00:00:00	2024-11-08T04:00:00	6	Velocidad del viento	4.8
181398	7	Sololá	716	San Marcos la Laguna 	11	San Marcos la laguna 	3	Marzo	2023-10-03T00:00:00	2024-11-08T04:00:00	7	Dirección del viento	4.83
181399	7	Sololá	716	San Marcos la Laguna 	11	San Marcos la laguna 	3	Marzo	2023-10-03T00:00:00	2024-11-08T04:00:00	1	Precipitación	0
181400	7	Sololá	716	San Marcos la Laguna 	11	San Marcos la laguna 	3	Marzo	2023-10-03T00:00:00	2024-11-08T04:00:00	8	Radiación solar	0
181401	7	Sololá	716	San Marcos la Laguna 	11	San Marcos la laguna 	3	Marzo	2023-10-03T00:00:00	2024-11-08T05:00:00	2	Temperatura media	16.7
181402	7	Sololá	716	San Marcos la Laguna 	11	San Marcos la laguna 	3	Marzo	2023-10-03T00:00:00	2024-11-08T05:00:00	4	Temperatura máxima	16.8
181403	7	Sololá	716	San Marcos la Laguna 	11	San Marcos la laguna 	3	Marzo	2023-10-03T00:00:00	2024-11-08T05:00:00	3	Temperatura mínima	16.4
181404	7	Sololá	716	San Marcos la Laguna 	11	San Marcos la laguna 	3	Marzo	2023-10-03T00:00:00	2024-11-08T05:00:00	5	Humedad	82
181405	7	Sololá	716	San Marcos la Laguna 	11	San Marcos la laguna 	3	Marzo	2023-10-03T00:00:00	2024-11-08T05:00:00	6	Velocidad del viento	4.8
181406	7	Sololá	716	San Marcos la Laguna 	11	San Marcos la laguna 	3	Marzo	2023-10-03T00:00:00	2024-11-08T05:00:00	7	Dirección del viento	4.83
181407	7	Sololá	716	San Marcos la Laguna 	11	San Marcos la laguna 	3	Marzo	2023-10-03T00:00:00	2024-11-08T05:00:00	1	Precipitación	0
181408	7	Sololá	716	San Marcos la Laguna 	11	San Marcos la laguna 	3	Marzo	2023-10-03T00:00:00	2024-11-08T05:00:00	8	Radiación solar	0
181409	7	Sololá	716	San Marcos la Laguna 	11	San Marcos la laguna 	3	Marzo	2023-10-03T00:00:00	2024-11-08T06:00:00	2	Temperatura media	16.6
181410	7	Sololá	716	San Marcos la Laguna 	11	San Marcos la laguna 	3	Marzo	2023-10-03T00:00:00	2024-11-08T06:00:00	4	Temperatura máxima	17
181411	7	Sololá	716	San Marcos la Laguna 	11	San Marcos la laguna 	3	Marzo	2023-10-03T00:00:00	2024-11-08T06:00:00	3	Temperatura mínima	16.6
181412	7	Sololá	716	San Marcos la Laguna 	11	San Marcos la laguna 	3	Marzo	2023-10-03T00:00:00	2024-11-08T06:00:00	5	Humedad	81
181413	7	Sololá	716	San Marcos la Laguna 	11	San Marcos la laguna 	3	Marzo	2023-10-03T00:00:00	2024-11-08T06:00:00	6	Velocidad del viento	3.2
181414	7	Sololá	716	San Marcos la Laguna 	11	San Marcos la laguna 	3	Marzo	2023-10-03T00:00:00	2024-11-08T06:00:00	7	Dirección del viento	3.22
181415	7	Sololá	716	San Marcos la Laguna 	11	San Marcos la laguna 	3	Marzo	2023-10-03T00:00:00	2024-11-08T06:00:00	1	Precipitación	0
181416	7	Sololá	716	San Marcos la Laguna 	11	San Marcos la laguna 	3	Marzo	2023-10-03T00:00:00	2024-11-08T06:00:00	8	Radiación solar	0
181417	7	Sololá	716	San Marcos la Laguna 	11	San Marcos la laguna 	3	Marzo	2023-10-03T00:00:00	2024-11-08T07:00:00	2	Temperatura media	16.8
181418	7	Sololá	716	San Marcos la Laguna 	11	San Marcos la laguna 	3	Marzo	2023-10-03T00:00:00	2024-11-08T07:00:00	4	Temperatura máxima	16.8
181419	7	Sololá	716	San Marcos la Laguna 	11	San Marcos la laguna 	3	Marzo	2023-10-03T00:00:00	2024-11-08T07:00:00	3	Temperatura mínima	16.3
181420	7	Sololá	716	San Marcos la Laguna 	11	San Marcos la laguna 	3	Marzo	2023-10-03T00:00:00	2024-11-08T07:00:00	5	Humedad	82
181421	7	Sololá	716	San Marcos la Laguna 	11	San Marcos la laguna 	3	Marzo	2023-10-03T00:00:00	2024-11-08T07:00:00	6	Velocidad del viento	3.2
181422	7	Sololá	716	San Marcos la Laguna 	11	San Marcos la laguna 	3	Marzo	2023-10-03T00:00:00	2024-11-08T07:00:00	7	Dirección del viento	3.22
181423	7	Sololá	716	San Marcos la Laguna 	11	San Marcos la laguna 	3	Marzo	2023-10-03T00:00:00	2024-11-08T07:00:00	1	Precipitación	0
181424	7	Sololá	716	San Marcos la Laguna 	11	San Marcos la laguna 	3	Marzo	2023-10-03T00:00:00	2024-11-08T07:00:00	8	Radiación solar	5
181425	7	Sololá	716	San Marcos la Laguna 	11	San Marcos la laguna 	3	Marzo	2023-10-03T00:00:00	2024-11-08T08:00:00	2	Temperatura media	17.2
181426	7	Sololá	716	San Marcos la Laguna 	11	San Marcos la laguna 	3	Marzo	2023-10-03T00:00:00	2024-11-08T08:00:00	4	Temperatura máxima	17.2
181427	7	Sololá	716	San Marcos la Laguna 	11	San Marcos la laguna 	3	Marzo	2023-10-03T00:00:00	2024-11-08T08:00:00	3	Temperatura mínima	16.7
181428	7	Sololá	716	San Marcos la Laguna 	11	San Marcos la laguna 	3	Marzo	2023-10-03T00:00:00	2024-11-08T08:00:00	5	Humedad	83
181429	7	Sololá	716	San Marcos la Laguna 	11	San Marcos la laguna 	3	Marzo	2023-10-03T00:00:00	2024-11-08T08:00:00	6	Velocidad del viento	3.2
181430	7	Sololá	716	San Marcos la Laguna 	11	San Marcos la laguna 	3	Marzo	2023-10-03T00:00:00	2024-11-08T08:00:00	7	Dirección del viento	3.22
181431	7	Sololá	716	San Marcos la Laguna 	11	San Marcos la laguna 	3	Marzo	2023-10-03T00:00:00	2024-11-08T08:00:00	1	Precipitación	0
181432	7	Sololá	716	San Marcos la Laguna 	11	San Marcos la laguna 	3	Marzo	2023-10-03T00:00:00	2024-11-08T08:00:00	8	Radiación solar	27
181433	7	Sololá	716	San Marcos la Laguna 	11	San Marcos la laguna 	3	Marzo	2023-10-03T00:00:00	2024-11-08T09:00:00	2	Temperatura media	18.7
181434	7	Sololá	716	San Marcos la Laguna 	11	San Marcos la laguna 	3	Marzo	2023-10-03T00:00:00	2024-11-08T09:00:00	4	Temperatura máxima	18.7
181435	7	Sololá	716	San Marcos la Laguna 	11	San Marcos la laguna 	3	Marzo	2023-10-03T00:00:00	2024-11-08T09:00:00	3	Temperatura mínima	17.2
181436	7	Sololá	716	San Marcos la Laguna 	11	San Marcos la laguna 	3	Marzo	2023-10-03T00:00:00	2024-11-08T09:00:00	5	Humedad	77
181437	7	Sololá	716	San Marcos la Laguna 	11	San Marcos la laguna 	3	Marzo	2023-10-03T00:00:00	2024-11-08T09:00:00	6	Velocidad del viento	1.6
181438	7	Sololá	716	San Marcos la Laguna 	11	San Marcos la laguna 	3	Marzo	2023-10-03T00:00:00	2024-11-08T09:00:00	7	Dirección del viento	1.61
181439	7	Sololá	716	San Marcos la Laguna 	11	San Marcos la laguna 	3	Marzo	2023-10-03T00:00:00	2024-11-08T09:00:00	1	Precipitación	0
181440	7	Sololá	716	San Marcos la Laguna 	11	San Marcos la laguna 	3	Marzo	2023-10-03T00:00:00	2024-11-08T09:00:00	8	Radiación solar	238
181441	7	Sololá	716	San Marcos la Laguna 	11	San Marcos la laguna 	3	Marzo	2023-10-03T00:00:00	2024-11-08T10:00:00	2	Temperatura media	19.3
181442	7	Sololá	716	San Marcos la Laguna 	11	San Marcos la laguna 	3	Marzo	2023-10-03T00:00:00	2024-11-08T10:00:00	4	Temperatura máxima	19.3
181443	7	Sololá	716	San Marcos la Laguna 	11	San Marcos la laguna 	3	Marzo	2023-10-03T00:00:00	2024-11-08T10:00:00	3	Temperatura mínima	18.6
181444	7	Sololá	716	San Marcos la Laguna 	11	San Marcos la laguna 	3	Marzo	2023-10-03T00:00:00	2024-11-08T10:00:00	5	Humedad	75
181445	7	Sololá	716	San Marcos la Laguna 	11	San Marcos la laguna 	3	Marzo	2023-10-03T00:00:00	2024-11-08T10:00:00	6	Velocidad del viento	6.4
181446	7	Sololá	716	San Marcos la Laguna 	11	San Marcos la laguna 	3	Marzo	2023-10-03T00:00:00	2024-11-08T10:00:00	7	Dirección del viento	6.44
181447	7	Sololá	716	San Marcos la Laguna 	11	San Marcos la laguna 	3	Marzo	2023-10-03T00:00:00	2024-11-08T10:00:00	1	Precipitación	0
181448	7	Sololá	716	San Marcos la Laguna 	11	San Marcos la laguna 	3	Marzo	2023-10-03T00:00:00	2024-11-08T10:00:00	8	Radiación solar	362
181449	7	Sololá	716	San Marcos la Laguna 	11	San Marcos la laguna 	3	Marzo	2023-10-03T00:00:00	2024-11-08T11:00:00	2	Temperatura media	18.9
181450	7	Sololá	716	San Marcos la Laguna 	11	San Marcos la laguna 	3	Marzo	2023-10-03T00:00:00	2024-11-08T11:00:00	4	Temperatura máxima	19.9
181451	7	Sololá	716	San Marcos la Laguna 	11	San Marcos la laguna 	3	Marzo	2023-10-03T00:00:00	2024-11-08T11:00:00	3	Temperatura mínima	18.9
181452	7	Sololá	716	San Marcos la Laguna 	11	San Marcos la laguna 	3	Marzo	2023-10-03T00:00:00	2024-11-08T11:00:00	5	Humedad	75
181453	7	Sololá	716	San Marcos la Laguna 	11	San Marcos la laguna 	3	Marzo	2023-10-03T00:00:00	2024-11-08T11:00:00	6	Velocidad del viento	8
181454	7	Sololá	716	San Marcos la Laguna 	11	San Marcos la laguna 	3	Marzo	2023-10-03T00:00:00	2024-11-08T11:00:00	7	Dirección del viento	8.05
181455	7	Sololá	716	San Marcos la Laguna 	11	San Marcos la laguna 	3	Marzo	2023-10-03T00:00:00	2024-11-08T11:00:00	1	Precipitación	0
181456	7	Sololá	716	San Marcos la Laguna 	11	San Marcos la laguna 	3	Marzo	2023-10-03T00:00:00	2024-11-08T11:00:00	8	Radiación solar	833
181457	7	Sololá	716	San Marcos la Laguna 	11	San Marcos la laguna 	3	Marzo	2023-10-03T00:00:00	2024-11-08T12:00:00	2	Temperatura media	18.6
181458	7	Sololá	716	San Marcos la Laguna 	11	San Marcos la laguna 	3	Marzo	2023-10-03T00:00:00	2024-11-08T12:00:00	4	Temperatura máxima	18.9
181459	7	Sololá	716	San Marcos la Laguna 	11	San Marcos la laguna 	3	Marzo	2023-10-03T00:00:00	2024-11-08T12:00:00	3	Temperatura mínima	18.6
181460	7	Sololá	716	San Marcos la Laguna 	11	San Marcos la laguna 	3	Marzo	2023-10-03T00:00:00	2024-11-08T12:00:00	5	Humedad	77
181461	7	Sololá	716	San Marcos la Laguna 	11	San Marcos la laguna 	3	Marzo	2023-10-03T00:00:00	2024-11-08T12:00:00	6	Velocidad del viento	8
181462	7	Sololá	716	San Marcos la Laguna 	11	San Marcos la laguna 	3	Marzo	2023-10-03T00:00:00	2024-11-08T12:00:00	7	Dirección del viento	8.05
181463	7	Sololá	716	San Marcos la Laguna 	11	San Marcos la laguna 	3	Marzo	2023-10-03T00:00:00	2024-11-08T12:00:00	1	Precipitación	0
181464	7	Sololá	716	San Marcos la Laguna 	11	San Marcos la laguna 	3	Marzo	2023-10-03T00:00:00	2024-11-08T12:00:00	8	Radiación solar	833
181465	7	Sololá	716	San Marcos la Laguna 	11	San Marcos la laguna 	3	Marzo	2023-10-03T00:00:00	2024-11-08T13:00:00	2	Temperatura media	19.7
181466	7	Sololá	716	San Marcos la Laguna 	11	San Marcos la laguna 	3	Marzo	2023-10-03T00:00:00	2024-11-08T13:00:00	4	Temperatura máxima	20.1
181467	7	Sololá	716	San Marcos la Laguna 	11	San Marcos la laguna 	3	Marzo	2023-10-03T00:00:00	2024-11-08T13:00:00	3	Temperatura mínima	18.6
181468	7	Sololá	716	San Marcos la Laguna 	11	San Marcos la laguna 	3	Marzo	2023-10-03T00:00:00	2024-11-08T13:00:00	5	Humedad	75
181469	7	Sololá	716	San Marcos la Laguna 	11	San Marcos la laguna 	3	Marzo	2023-10-03T00:00:00	2024-11-08T13:00:00	6	Velocidad del viento	8
181470	7	Sololá	716	San Marcos la Laguna 	11	San Marcos la laguna 	3	Marzo	2023-10-03T00:00:00	2024-11-08T13:00:00	7	Dirección del viento	8.05
181471	7	Sololá	716	San Marcos la Laguna 	11	San Marcos la laguna 	3	Marzo	2023-10-03T00:00:00	2024-11-08T13:00:00	1	Precipitación	0
181472	7	Sololá	716	San Marcos la Laguna 	11	San Marcos la laguna 	3	Marzo	2023-10-03T00:00:00	2024-11-08T13:00:00	8	Radiación solar	892
181473	7	Sololá	716	San Marcos la Laguna 	11	San Marcos la laguna 	3	Marzo	2023-10-03T00:00:00	2024-11-08T14:00:00	2	Temperatura media	19.9
181474	7	Sololá	716	San Marcos la Laguna 	11	San Marcos la laguna 	3	Marzo	2023-10-03T00:00:00	2024-11-08T14:00:00	4	Temperatura máxima	20.4
181475	7	Sololá	716	San Marcos la Laguna 	11	San Marcos la laguna 	3	Marzo	2023-10-03T00:00:00	2024-11-08T14:00:00	3	Temperatura mínima	19.6
181476	7	Sololá	716	San Marcos la Laguna 	11	San Marcos la laguna 	3	Marzo	2023-10-03T00:00:00	2024-11-08T14:00:00	5	Humedad	75
181477	7	Sololá	716	San Marcos la Laguna 	11	San Marcos la laguna 	3	Marzo	2023-10-03T00:00:00	2024-11-08T14:00:00	6	Velocidad del viento	9.7
181478	7	Sololá	716	San Marcos la Laguna 	11	San Marcos la laguna 	3	Marzo	2023-10-03T00:00:00	2024-11-08T14:00:00	7	Dirección del viento	9.66
181479	7	Sololá	716	San Marcos la Laguna 	11	San Marcos la laguna 	3	Marzo	2023-10-03T00:00:00	2024-11-08T14:00:00	1	Precipitación	0
181480	7	Sololá	716	San Marcos la Laguna 	11	San Marcos la laguna 	3	Marzo	2023-10-03T00:00:00	2024-11-08T14:00:00	8	Radiación solar	495
181481	7	Sololá	716	San Marcos la Laguna 	11	San Marcos la laguna 	3	Marzo	2023-10-03T00:00:00	2024-11-08T15:00:00	2	Temperatura media	20.2
181482	7	Sololá	716	San Marcos la Laguna 	11	San Marcos la laguna 	3	Marzo	2023-10-03T00:00:00	2024-11-08T15:00:00	4	Temperatura máxima	20.4
181483	7	Sololá	716	San Marcos la Laguna 	11	San Marcos la laguna 	3	Marzo	2023-10-03T00:00:00	2024-11-08T15:00:00	3	Temperatura mínima	19.9
181484	7	Sololá	716	San Marcos la Laguna 	11	San Marcos la laguna 	3	Marzo	2023-10-03T00:00:00	2024-11-08T15:00:00	5	Humedad	77
181485	7	Sololá	716	San Marcos la Laguna 	11	San Marcos la laguna 	3	Marzo	2023-10-03T00:00:00	2024-11-08T15:00:00	6	Velocidad del viento	9.7
181486	7	Sololá	716	San Marcos la Laguna 	11	San Marcos la laguna 	3	Marzo	2023-10-03T00:00:00	2024-11-08T15:00:00	7	Dirección del viento	9.66
181487	7	Sololá	716	San Marcos la Laguna 	11	San Marcos la laguna 	3	Marzo	2023-10-03T00:00:00	2024-11-08T15:00:00	1	Precipitación	0
181488	7	Sololá	716	San Marcos la Laguna 	11	San Marcos la laguna 	3	Marzo	2023-10-03T00:00:00	2024-11-08T15:00:00	8	Radiación solar	212
181489	7	Sololá	716	San Marcos la Laguna 	11	San Marcos la laguna 	3	Marzo	2023-10-03T00:00:00	2024-11-08T16:00:00	2	Temperatura media	19.5
181490	7	Sololá	716	San Marcos la Laguna 	11	San Marcos la laguna 	3	Marzo	2023-10-03T00:00:00	2024-11-08T16:00:00	4	Temperatura máxima	20.3
181491	7	Sololá	716	San Marcos la Laguna 	11	San Marcos la laguna 	3	Marzo	2023-10-03T00:00:00	2024-11-08T16:00:00	3	Temperatura mínima	19.4
181492	7	Sololá	716	San Marcos la Laguna 	11	San Marcos la laguna 	3	Marzo	2023-10-03T00:00:00	2024-11-08T16:00:00	5	Humedad	79
181493	7	Sololá	716	San Marcos la Laguna 	11	San Marcos la laguna 	3	Marzo	2023-10-03T00:00:00	2024-11-08T16:00:00	6	Velocidad del viento	9.7
181494	7	Sololá	716	San Marcos la Laguna 	11	San Marcos la laguna 	3	Marzo	2023-10-03T00:00:00	2024-11-08T16:00:00	7	Dirección del viento	9.66
181495	7	Sololá	716	San Marcos la Laguna 	11	San Marcos la laguna 	3	Marzo	2023-10-03T00:00:00	2024-11-08T16:00:00	1	Precipitación	0
181496	7	Sololá	716	San Marcos la Laguna 	11	San Marcos la laguna 	3	Marzo	2023-10-03T00:00:00	2024-11-08T16:00:00	8	Radiación solar	119
181497	7	Sololá	716	San Marcos la Laguna 	11	San Marcos la laguna 	3	Marzo	2023-10-03T00:00:00	2024-11-08T17:00:00	2	Temperatura media	19.6
181498	7	Sololá	716	San Marcos la Laguna 	11	San Marcos la laguna 	3	Marzo	2023-10-03T00:00:00	2024-11-08T17:00:00	4	Temperatura máxima	19.7
181499	7	Sololá	716	San Marcos la Laguna 	11	San Marcos la laguna 	3	Marzo	2023-10-03T00:00:00	2024-11-08T17:00:00	3	Temperatura mínima	19.4
181500	7	Sololá	716	San Marcos la Laguna 	11	San Marcos la laguna 	3	Marzo	2023-10-03T00:00:00	2024-11-08T17:00:00	5	Humedad	78
181501	7	Sololá	716	San Marcos la Laguna 	11	San Marcos la laguna 	3	Marzo	2023-10-03T00:00:00	2024-11-08T17:00:00	6	Velocidad del viento	6.4
181502	7	Sololá	716	San Marcos la Laguna 	11	San Marcos la laguna 	3	Marzo	2023-10-03T00:00:00	2024-11-08T17:00:00	7	Dirección del viento	6.44
181503	7	Sololá	716	San Marcos la Laguna 	11	San Marcos la laguna 	3	Marzo	2023-10-03T00:00:00	2024-11-08T17:00:00	1	Precipitación	0
181504	7	Sololá	716	San Marcos la Laguna 	11	San Marcos la laguna 	3	Marzo	2023-10-03T00:00:00	2024-11-08T17:00:00	8	Radiación solar	139
181505	7	Sololá	716	San Marcos la Laguna 	11	San Marcos la laguna 	3	Marzo	2023-10-03T00:00:00	2024-11-08T18:00:00	2	Temperatura media	19.3
181506	7	Sololá	716	San Marcos la Laguna 	11	San Marcos la laguna 	3	Marzo	2023-10-03T00:00:00	2024-11-08T18:00:00	4	Temperatura máxima	19.6
181507	7	Sololá	716	San Marcos la Laguna 	11	San Marcos la laguna 	3	Marzo	2023-10-03T00:00:00	2024-11-08T18:00:00	3	Temperatura mínima	19.3
181508	7	Sololá	716	San Marcos la Laguna 	11	San Marcos la laguna 	3	Marzo	2023-10-03T00:00:00	2024-11-08T18:00:00	5	Humedad	81
181509	7	Sololá	716	San Marcos la Laguna 	11	San Marcos la laguna 	3	Marzo	2023-10-03T00:00:00	2024-11-08T18:00:00	6	Velocidad del viento	3.2
181510	7	Sololá	716	San Marcos la Laguna 	11	San Marcos la laguna 	3	Marzo	2023-10-03T00:00:00	2024-11-08T18:00:00	7	Dirección del viento	3.22
181511	7	Sololá	716	San Marcos la Laguna 	11	San Marcos la laguna 	3	Marzo	2023-10-03T00:00:00	2024-11-08T18:00:00	1	Precipitación	0
181512	7	Sololá	716	San Marcos la Laguna 	11	San Marcos la laguna 	3	Marzo	2023-10-03T00:00:00	2024-11-08T18:00:00	8	Radiación solar	43
181513	7	Sololá	716	San Marcos la Laguna 	11	San Marcos la laguna 	3	Marzo	2023-10-03T00:00:00	2024-11-08T19:00:00	2	Temperatura media	18.1
181514	7	Sololá	716	San Marcos la Laguna 	11	San Marcos la laguna 	3	Marzo	2023-10-03T00:00:00	2024-11-08T19:00:00	4	Temperatura máxima	19.3
181515	7	Sololá	716	San Marcos la Laguna 	11	San Marcos la laguna 	3	Marzo	2023-10-03T00:00:00	2024-11-08T19:00:00	3	Temperatura mínima	18.1
181516	7	Sololá	716	San Marcos la Laguna 	11	San Marcos la laguna 	3	Marzo	2023-10-03T00:00:00	2024-11-08T19:00:00	5	Humedad	83
181517	7	Sololá	716	San Marcos la Laguna 	11	San Marcos la laguna 	3	Marzo	2023-10-03T00:00:00	2024-11-08T19:00:00	6	Velocidad del viento	3.2
181518	7	Sololá	716	San Marcos la Laguna 	11	San Marcos la laguna 	3	Marzo	2023-10-03T00:00:00	2024-11-08T19:00:00	7	Dirección del viento	3.22
181519	7	Sololá	716	San Marcos la Laguna 	11	San Marcos la laguna 	3	Marzo	2023-10-03T00:00:00	2024-11-08T19:00:00	1	Precipitación	0
181520	7	Sololá	716	San Marcos la Laguna 	11	San Marcos la laguna 	3	Marzo	2023-10-03T00:00:00	2024-11-08T19:00:00	8	Radiación solar	0
181521	7	Sololá	716	San Marcos la Laguna 	11	San Marcos la laguna 	3	Marzo	2023-10-03T00:00:00	2024-11-08T20:00:00	2	Temperatura media	17.3
181522	7	Sololá	716	San Marcos la Laguna 	11	San Marcos la laguna 	3	Marzo	2023-10-03T00:00:00	2024-11-08T20:00:00	4	Temperatura máxima	18.1
181523	7	Sololá	716	San Marcos la Laguna 	11	San Marcos la laguna 	3	Marzo	2023-10-03T00:00:00	2024-11-08T20:00:00	3	Temperatura mínima	17.3
181524	7	Sololá	716	San Marcos la Laguna 	11	San Marcos la laguna 	3	Marzo	2023-10-03T00:00:00	2024-11-08T20:00:00	5	Humedad	84
181525	7	Sololá	716	San Marcos la Laguna 	11	San Marcos la laguna 	3	Marzo	2023-10-03T00:00:00	2024-11-08T20:00:00	6	Velocidad del viento	4.8
181526	7	Sololá	716	San Marcos la Laguna 	11	San Marcos la laguna 	3	Marzo	2023-10-03T00:00:00	2024-11-08T20:00:00	7	Dirección del viento	4.83
181527	7	Sololá	716	San Marcos la Laguna 	11	San Marcos la laguna 	3	Marzo	2023-10-03T00:00:00	2024-11-08T20:00:00	1	Precipitación	0
181528	7	Sololá	716	San Marcos la Laguna 	11	San Marcos la laguna 	3	Marzo	2023-10-03T00:00:00	2024-11-08T20:00:00	8	Radiación solar	0
181529	7	Sololá	716	San Marcos la Laguna 	11	San Marcos la laguna 	3	Marzo	2023-10-03T00:00:00	2024-11-08T21:00:00	2	Temperatura media	17.9
181530	7	Sololá	716	San Marcos la Laguna 	11	San Marcos la laguna 	3	Marzo	2023-10-03T00:00:00	2024-11-08T21:00:00	4	Temperatura máxima	17.9
181531	7	Sololá	716	San Marcos la Laguna 	11	San Marcos la laguna 	3	Marzo	2023-10-03T00:00:00	2024-11-08T21:00:00	3	Temperatura mínima	17.3
181532	7	Sololá	716	San Marcos la Laguna 	11	San Marcos la laguna 	3	Marzo	2023-10-03T00:00:00	2024-11-08T21:00:00	5	Humedad	82
181533	7	Sololá	716	San Marcos la Laguna 	11	San Marcos la laguna 	3	Marzo	2023-10-03T00:00:00	2024-11-08T21:00:00	6	Velocidad del viento	4.8
181534	7	Sololá	716	San Marcos la Laguna 	11	San Marcos la laguna 	3	Marzo	2023-10-03T00:00:00	2024-11-08T21:00:00	7	Dirección del viento	4.83
181535	7	Sololá	716	San Marcos la Laguna 	11	San Marcos la laguna 	3	Marzo	2023-10-03T00:00:00	2024-11-08T21:00:00	1	Precipitación	0
181536	7	Sololá	716	San Marcos la Laguna 	11	San Marcos la laguna 	3	Marzo	2023-10-03T00:00:00	2024-11-08T21:00:00	8	Radiación solar	0
181537	7	Sololá	716	San Marcos la Laguna 	11	San Marcos la laguna 	3	Marzo	2023-10-03T00:00:00	2024-11-08T22:00:00	2	Temperatura media	17.6
181538	7	Sololá	716	San Marcos la Laguna 	11	San Marcos la laguna 	3	Marzo	2023-10-03T00:00:00	2024-11-08T22:00:00	4	Temperatura máxima	17.9
181539	7	Sololá	716	San Marcos la Laguna 	11	San Marcos la laguna 	3	Marzo	2023-10-03T00:00:00	2024-11-08T22:00:00	3	Temperatura mínima	17.4
181540	7	Sololá	716	San Marcos la Laguna 	11	San Marcos la laguna 	3	Marzo	2023-10-03T00:00:00	2024-11-08T22:00:00	5	Humedad	84
181541	7	Sololá	716	San Marcos la Laguna 	11	San Marcos la laguna 	3	Marzo	2023-10-03T00:00:00	2024-11-08T22:00:00	6	Velocidad del viento	3.2
181542	7	Sololá	716	San Marcos la Laguna 	11	San Marcos la laguna 	3	Marzo	2023-10-03T00:00:00	2024-11-08T22:00:00	7	Dirección del viento	3.22
181543	7	Sololá	716	San Marcos la Laguna 	11	San Marcos la laguna 	3	Marzo	2023-10-03T00:00:00	2024-11-08T22:00:00	1	Precipitación	0
181544	7	Sololá	716	San Marcos la Laguna 	11	San Marcos la laguna 	3	Marzo	2023-10-03T00:00:00	2024-11-08T22:00:00	8	Radiación solar	0
181545	7	Sololá	716	San Marcos la Laguna 	11	San Marcos la laguna 	3	Marzo	2023-10-03T00:00:00	2024-11-08T23:00:00	2	Temperatura media	17.2
181546	7	Sololá	716	San Marcos la Laguna 	11	San Marcos la laguna 	3	Marzo	2023-10-03T00:00:00	2024-11-08T23:00:00	4	Temperatura máxima	17.6
181547	7	Sololá	716	San Marcos la Laguna 	11	San Marcos la laguna 	3	Marzo	2023-10-03T00:00:00	2024-11-08T23:00:00	3	Temperatura mínima	17.2
181548	7	Sololá	716	San Marcos la Laguna 	11	San Marcos la laguna 	3	Marzo	2023-10-03T00:00:00	2024-11-08T23:00:00	5	Humedad	84
181549	7	Sololá	716	San Marcos la Laguna 	11	San Marcos la laguna 	3	Marzo	2023-10-03T00:00:00	2024-11-08T23:00:00	6	Velocidad del viento	4.8
181550	7	Sololá	716	San Marcos la Laguna 	11	San Marcos la laguna 	3	Marzo	2023-10-03T00:00:00	2024-11-08T23:00:00	7	Dirección del viento	4.83
181551	7	Sololá	716	San Marcos la Laguna 	11	San Marcos la laguna 	3	Marzo	2023-10-03T00:00:00	2024-11-08T23:00:00	1	Precipitación	0
181552	7	Sololá	716	San Marcos la Laguna 	11	San Marcos la laguna 	3	Marzo	2023-10-03T00:00:00	2024-11-08T23:00:00	8	Radiación solar	0
181553	7	Sololá	716	San Marcos la Laguna 	11	San Marcos la laguna 	3	Marzo	2023-11-03T00:00:00	2024-11-08T00:00:00	2	Temperatura media	16.9
181554	7	Sololá	716	San Marcos la Laguna 	11	San Marcos la laguna 	3	Marzo	2023-11-03T00:00:00	2024-11-08T00:00:00	4	Temperatura máxima	17.3
181555	7	Sololá	716	San Marcos la Laguna 	11	San Marcos la laguna 	3	Marzo	2023-11-03T00:00:00	2024-11-08T00:00:00	3	Temperatura mínima	16.9
181556	7	Sololá	716	San Marcos la Laguna 	11	San Marcos la laguna 	3	Marzo	2023-11-03T00:00:00	2024-11-08T00:00:00	5	Humedad	85
181557	7	Sololá	716	San Marcos la Laguna 	11	San Marcos la laguna 	3	Marzo	2023-11-03T00:00:00	2024-11-08T00:00:00	6	Velocidad del viento	4.8
181558	7	Sololá	716	San Marcos la Laguna 	11	San Marcos la laguna 	3	Marzo	2023-11-03T00:00:00	2024-11-08T00:00:00	7	Dirección del viento	4.83
181559	7	Sololá	716	San Marcos la Laguna 	11	San Marcos la laguna 	3	Marzo	2023-11-03T00:00:00	2024-11-08T00:00:00	1	Precipitación	0
181560	7	Sololá	716	San Marcos la Laguna 	11	San Marcos la laguna 	3	Marzo	2023-11-03T00:00:00	2024-11-08T00:00:00	8	Radiación solar	0
181561	7	Sololá	716	San Marcos la Laguna 	11	San Marcos la laguna 	3	Marzo	2023-11-03T00:00:00	2024-11-08T01:00:00	2	Temperatura media	16.7
181562	7	Sololá	716	San Marcos la Laguna 	11	San Marcos la laguna 	3	Marzo	2023-11-03T00:00:00	2024-11-08T01:00:00	4	Temperatura máxima	16.9
181563	7	Sololá	716	San Marcos la Laguna 	11	San Marcos la laguna 	3	Marzo	2023-11-03T00:00:00	2024-11-08T01:00:00	3	Temperatura mínima	16.7
181564	7	Sololá	716	San Marcos la Laguna 	11	San Marcos la laguna 	3	Marzo	2023-11-03T00:00:00	2024-11-08T01:00:00	5	Humedad	84
181565	7	Sololá	716	San Marcos la Laguna 	11	San Marcos la laguna 	3	Marzo	2023-11-03T00:00:00	2024-11-08T01:00:00	6	Velocidad del viento	4.8
181566	7	Sololá	716	San Marcos la Laguna 	11	San Marcos la laguna 	3	Marzo	2023-11-03T00:00:00	2024-11-08T01:00:00	7	Dirección del viento	4.83
181567	7	Sololá	716	San Marcos la Laguna 	11	San Marcos la laguna 	3	Marzo	2023-11-03T00:00:00	2024-11-08T01:00:00	1	Precipitación	0
181568	7	Sololá	716	San Marcos la Laguna 	11	San Marcos la laguna 	3	Marzo	2023-11-03T00:00:00	2024-11-08T01:00:00	8	Radiación solar	0
181569	7	Sololá	716	San Marcos la Laguna 	11	San Marcos la laguna 	3	Marzo	2023-11-03T00:00:00	2024-11-08T02:00:00	2	Temperatura media	16.8
181570	7	Sololá	716	San Marcos la Laguna 	11	San Marcos la laguna 	3	Marzo	2023-11-03T00:00:00	2024-11-08T02:00:00	4	Temperatura máxima	16.9
181571	7	Sololá	716	San Marcos la Laguna 	11	San Marcos la laguna 	3	Marzo	2023-11-03T00:00:00	2024-11-08T02:00:00	3	Temperatura mínima	16.3
181572	7	Sololá	716	San Marcos la Laguna 	11	San Marcos la laguna 	3	Marzo	2023-11-03T00:00:00	2024-11-08T02:00:00	5	Humedad	80
181573	7	Sololá	716	San Marcos la Laguna 	11	San Marcos la laguna 	3	Marzo	2023-11-03T00:00:00	2024-11-08T02:00:00	6	Velocidad del viento	6.4
181574	7	Sololá	716	San Marcos la Laguna 	11	San Marcos la laguna 	3	Marzo	2023-11-03T00:00:00	2024-11-08T02:00:00	7	Dirección del viento	6.44
181575	7	Sololá	716	San Marcos la Laguna 	11	San Marcos la laguna 	3	Marzo	2023-11-03T00:00:00	2024-11-08T02:00:00	1	Precipitación	0
181576	7	Sololá	716	San Marcos la Laguna 	11	San Marcos la laguna 	3	Marzo	2023-11-03T00:00:00	2024-11-08T02:00:00	8	Radiación solar	0
181577	7	Sololá	716	San Marcos la Laguna 	11	San Marcos la laguna 	3	Marzo	2023-11-03T00:00:00	2024-11-08T03:00:00	2	Temperatura media	16.2
181578	7	Sololá	716	San Marcos la Laguna 	11	San Marcos la laguna 	3	Marzo	2023-11-03T00:00:00	2024-11-08T03:00:00	4	Temperatura máxima	16.8
181579	7	Sololá	716	San Marcos la Laguna 	11	San Marcos la laguna 	3	Marzo	2023-11-03T00:00:00	2024-11-08T03:00:00	3	Temperatura mínima	15.8
181580	7	Sololá	716	San Marcos la Laguna 	11	San Marcos la laguna 	3	Marzo	2023-11-03T00:00:00	2024-11-08T03:00:00	5	Humedad	83
181581	7	Sololá	716	San Marcos la Laguna 	11	San Marcos la laguna 	3	Marzo	2023-11-03T00:00:00	2024-11-08T03:00:00	6	Velocidad del viento	6.4
181582	7	Sololá	716	San Marcos la Laguna 	11	San Marcos la laguna 	3	Marzo	2023-11-03T00:00:00	2024-11-08T03:00:00	7	Dirección del viento	6.44
181583	7	Sololá	716	San Marcos la Laguna 	11	San Marcos la laguna 	3	Marzo	2023-11-03T00:00:00	2024-11-08T03:00:00	1	Precipitación	0
181584	7	Sololá	716	San Marcos la Laguna 	11	San Marcos la laguna 	3	Marzo	2023-11-03T00:00:00	2024-11-08T03:00:00	8	Radiación solar	0
181585	7	Sololá	716	San Marcos la Laguna 	11	San Marcos la laguna 	3	Marzo	2023-11-03T00:00:00	2024-11-08T04:00:00	2	Temperatura media	15.9
181586	7	Sololá	716	San Marcos la Laguna 	11	San Marcos la laguna 	3	Marzo	2023-11-03T00:00:00	2024-11-08T04:00:00	4	Temperatura máxima	16.5
181587	7	Sololá	716	San Marcos la Laguna 	11	San Marcos la laguna 	3	Marzo	2023-11-03T00:00:00	2024-11-08T04:00:00	3	Temperatura mínima	15.8
181588	7	Sololá	716	San Marcos la Laguna 	11	San Marcos la laguna 	3	Marzo	2023-11-03T00:00:00	2024-11-08T04:00:00	5	Humedad	83
181589	7	Sololá	716	San Marcos la Laguna 	11	San Marcos la laguna 	3	Marzo	2023-11-03T00:00:00	2024-11-08T04:00:00	6	Velocidad del viento	4.8
181590	7	Sololá	716	San Marcos la Laguna 	11	San Marcos la laguna 	3	Marzo	2023-11-03T00:00:00	2024-11-08T04:00:00	7	Dirección del viento	4.83
181591	7	Sololá	716	San Marcos la Laguna 	11	San Marcos la laguna 	3	Marzo	2023-11-03T00:00:00	2024-11-08T04:00:00	1	Precipitación	0
181592	7	Sololá	716	San Marcos la Laguna 	11	San Marcos la laguna 	3	Marzo	2023-11-03T00:00:00	2024-11-08T04:00:00	8	Radiación solar	0
181593	7	Sololá	716	San Marcos la Laguna 	11	San Marcos la laguna 	3	Marzo	2023-11-03T00:00:00	2024-11-08T05:00:00	2	Temperatura media	16.4
181594	7	Sololá	716	San Marcos la Laguna 	11	San Marcos la laguna 	3	Marzo	2023-11-03T00:00:00	2024-11-08T05:00:00	4	Temperatura máxima	16.4
181595	7	Sololá	716	San Marcos la Laguna 	11	San Marcos la laguna 	3	Marzo	2023-11-03T00:00:00	2024-11-08T05:00:00	3	Temperatura mínima	15.9
181596	7	Sololá	716	San Marcos la Laguna 	11	San Marcos la laguna 	3	Marzo	2023-11-03T00:00:00	2024-11-08T05:00:00	5	Humedad	81
181597	7	Sololá	716	San Marcos la Laguna 	11	San Marcos la laguna 	3	Marzo	2023-11-03T00:00:00	2024-11-08T05:00:00	6	Velocidad del viento	6.4
181598	7	Sololá	716	San Marcos la Laguna 	11	San Marcos la laguna 	3	Marzo	2023-11-03T00:00:00	2024-11-08T05:00:00	7	Dirección del viento	6.44
181599	7	Sololá	716	San Marcos la Laguna 	11	San Marcos la laguna 	3	Marzo	2023-11-03T00:00:00	2024-11-08T05:00:00	1	Precipitación	0
181600	7	Sololá	716	San Marcos la Laguna 	11	San Marcos la laguna 	3	Marzo	2023-11-03T00:00:00	2024-11-08T05:00:00	8	Radiación solar	0
181601	7	Sololá	716	San Marcos la Laguna 	11	San Marcos la laguna 	3	Marzo	2023-11-03T00:00:00	2024-11-08T06:00:00	2	Temperatura media	16.1
181602	7	Sololá	716	San Marcos la Laguna 	11	San Marcos la laguna 	3	Marzo	2023-11-03T00:00:00	2024-11-08T06:00:00	4	Temperatura máxima	16.4
181603	7	Sololá	716	San Marcos la Laguna 	11	San Marcos la laguna 	3	Marzo	2023-11-03T00:00:00	2024-11-08T06:00:00	3	Temperatura mínima	15.9
181604	7	Sololá	716	San Marcos la Laguna 	11	San Marcos la laguna 	3	Marzo	2023-11-03T00:00:00	2024-11-08T06:00:00	5	Humedad	81
181605	7	Sololá	716	San Marcos la Laguna 	11	San Marcos la laguna 	3	Marzo	2023-11-03T00:00:00	2024-11-08T06:00:00	6	Velocidad del viento	4.8
181606	7	Sololá	716	San Marcos la Laguna 	11	San Marcos la laguna 	3	Marzo	2023-11-03T00:00:00	2024-11-08T06:00:00	7	Dirección del viento	4.83
181607	7	Sololá	716	San Marcos la Laguna 	11	San Marcos la laguna 	3	Marzo	2023-11-03T00:00:00	2024-11-08T06:00:00	1	Precipitación	0
181608	7	Sololá	716	San Marcos la Laguna 	11	San Marcos la laguna 	3	Marzo	2023-11-03T00:00:00	2024-11-08T06:00:00	8	Radiación solar	0
181609	7	Sololá	716	San Marcos la Laguna 	11	San Marcos la laguna 	3	Marzo	2023-11-03T00:00:00	2024-11-08T07:00:00	2	Temperatura media	16
181610	7	Sololá	716	San Marcos la Laguna 	11	San Marcos la laguna 	3	Marzo	2023-11-03T00:00:00	2024-11-08T07:00:00	4	Temperatura máxima	16.3
181611	7	Sololá	716	San Marcos la Laguna 	11	San Marcos la laguna 	3	Marzo	2023-11-03T00:00:00	2024-11-08T07:00:00	3	Temperatura mínima	15.8
181612	7	Sololá	716	San Marcos la Laguna 	11	San Marcos la laguna 	3	Marzo	2023-11-03T00:00:00	2024-11-08T07:00:00	5	Humedad	84
181613	7	Sololá	716	San Marcos la Laguna 	11	San Marcos la laguna 	3	Marzo	2023-11-03T00:00:00	2024-11-08T07:00:00	6	Velocidad del viento	4.8
181614	7	Sololá	716	San Marcos la Laguna 	11	San Marcos la laguna 	3	Marzo	2023-11-03T00:00:00	2024-11-08T07:00:00	7	Dirección del viento	4.83
181615	7	Sololá	716	San Marcos la Laguna 	11	San Marcos la laguna 	3	Marzo	2023-11-03T00:00:00	2024-11-08T07:00:00	1	Precipitación	0
181616	7	Sololá	716	San Marcos la Laguna 	11	San Marcos la laguna 	3	Marzo	2023-11-03T00:00:00	2024-11-08T07:00:00	8	Radiación solar	19
181617	7	Sololá	716	San Marcos la Laguna 	11	San Marcos la laguna 	3	Marzo	2023-11-03T00:00:00	2024-11-08T08:00:00	2	Temperatura media	18.3
181618	7	Sololá	716	San Marcos la Laguna 	11	San Marcos la laguna 	3	Marzo	2023-11-03T00:00:00	2024-11-08T08:00:00	4	Temperatura máxima	18.4
181619	7	Sololá	716	San Marcos la Laguna 	11	San Marcos la laguna 	3	Marzo	2023-11-03T00:00:00	2024-11-08T08:00:00	3	Temperatura mínima	16
181620	7	Sololá	716	San Marcos la Laguna 	11	San Marcos la laguna 	3	Marzo	2023-11-03T00:00:00	2024-11-08T08:00:00	5	Humedad	81
181621	7	Sololá	716	San Marcos la Laguna 	11	San Marcos la laguna 	3	Marzo	2023-11-03T00:00:00	2024-11-08T08:00:00	6	Velocidad del viento	1.6
181622	7	Sololá	716	San Marcos la Laguna 	11	San Marcos la laguna 	3	Marzo	2023-11-03T00:00:00	2024-11-08T08:00:00	7	Dirección del viento	1.61
181623	7	Sololá	716	San Marcos la Laguna 	11	San Marcos la laguna 	3	Marzo	2023-11-03T00:00:00	2024-11-08T08:00:00	1	Precipitación	0
181624	7	Sololá	716	San Marcos la Laguna 	11	San Marcos la laguna 	3	Marzo	2023-11-03T00:00:00	2024-11-08T08:00:00	8	Radiación solar	79
181625	7	Sololá	716	San Marcos la Laguna 	11	San Marcos la laguna 	3	Marzo	2023-11-03T00:00:00	2024-11-08T09:00:00	2	Temperatura media	18.3
181626	7	Sololá	716	San Marcos la Laguna 	11	San Marcos la laguna 	3	Marzo	2023-11-03T00:00:00	2024-11-08T09:00:00	4	Temperatura máxima	18.6
181627	7	Sololá	716	San Marcos la Laguna 	11	San Marcos la laguna 	3	Marzo	2023-11-03T00:00:00	2024-11-08T09:00:00	3	Temperatura mínima	18.2
181628	7	Sololá	716	San Marcos la Laguna 	11	San Marcos la laguna 	3	Marzo	2023-11-03T00:00:00	2024-11-08T09:00:00	5	Humedad	82
181629	7	Sololá	716	San Marcos la Laguna 	11	San Marcos la laguna 	3	Marzo	2023-11-03T00:00:00	2024-11-08T09:00:00	6	Velocidad del viento	1.6
181630	7	Sololá	716	San Marcos la Laguna 	11	San Marcos la laguna 	3	Marzo	2023-11-03T00:00:00	2024-11-08T09:00:00	7	Dirección del viento	1.61
181631	7	Sololá	716	San Marcos la Laguna 	11	San Marcos la laguna 	3	Marzo	2023-11-03T00:00:00	2024-11-08T09:00:00	1	Precipitación	0
181632	7	Sololá	716	San Marcos la Laguna 	11	San Marcos la laguna 	3	Marzo	2023-11-03T00:00:00	2024-11-08T09:00:00	8	Radiación solar	265
181633	7	Sololá	716	San Marcos la Laguna 	11	San Marcos la laguna 	3	Marzo	2023-11-03T00:00:00	2024-11-08T10:00:00	2	Temperatura media	19.4
181634	7	Sololá	716	San Marcos la Laguna 	11	San Marcos la laguna 	3	Marzo	2023-11-03T00:00:00	2024-11-08T10:00:00	4	Temperatura máxima	19.4
181635	7	Sololá	716	San Marcos la Laguna 	11	San Marcos la laguna 	3	Marzo	2023-11-03T00:00:00	2024-11-08T10:00:00	3	Temperatura mínima	18.2
181636	7	Sololá	716	San Marcos la Laguna 	11	San Marcos la laguna 	3	Marzo	2023-11-03T00:00:00	2024-11-08T10:00:00	5	Humedad	79
181637	7	Sololá	716	San Marcos la Laguna 	11	San Marcos la laguna 	3	Marzo	2023-11-03T00:00:00	2024-11-08T10:00:00	6	Velocidad del viento	4.8
181638	7	Sololá	716	San Marcos la Laguna 	11	San Marcos la laguna 	3	Marzo	2023-11-03T00:00:00	2024-11-08T10:00:00	7	Dirección del viento	4.83
181639	7	Sololá	716	San Marcos la Laguna 	11	San Marcos la laguna 	3	Marzo	2023-11-03T00:00:00	2024-11-08T10:00:00	1	Precipitación	0
181640	7	Sololá	716	San Marcos la Laguna 	11	San Marcos la laguna 	3	Marzo	2023-11-03T00:00:00	2024-11-08T10:00:00	8	Radiación solar	204
181641	7	Sololá	716	San Marcos la Laguna 	11	San Marcos la laguna 	3	Marzo	2023-11-03T00:00:00	2024-11-08T11:00:00	2	Temperatura media	20.1
181642	7	Sololá	716	San Marcos la Laguna 	11	San Marcos la laguna 	3	Marzo	2023-11-03T00:00:00	2024-11-08T11:00:00	4	Temperatura máxima	20.3
181643	7	Sololá	716	San Marcos la Laguna 	11	San Marcos la laguna 	3	Marzo	2023-11-03T00:00:00	2024-11-08T11:00:00	3	Temperatura mínima	19.4
181644	7	Sololá	716	San Marcos la Laguna 	11	San Marcos la laguna 	3	Marzo	2023-11-03T00:00:00	2024-11-08T11:00:00	5	Humedad	74
181645	7	Sololá	716	San Marcos la Laguna 	11	San Marcos la laguna 	3	Marzo	2023-11-03T00:00:00	2024-11-08T11:00:00	6	Velocidad del viento	11.3
181646	7	Sololá	716	San Marcos la Laguna 	11	San Marcos la laguna 	3	Marzo	2023-11-03T00:00:00	2024-11-08T11:00:00	7	Dirección del viento	11.27
181647	7	Sololá	716	San Marcos la Laguna 	11	San Marcos la laguna 	3	Marzo	2023-11-03T00:00:00	2024-11-08T11:00:00	1	Precipitación	0
181648	7	Sololá	716	San Marcos la Laguna 	11	San Marcos la laguna 	3	Marzo	2023-11-03T00:00:00	2024-11-08T11:00:00	8	Radiación solar	72
181649	7	Sololá	716	San Marcos la Laguna 	11	San Marcos la laguna 	3	Marzo	2023-11-03T00:00:00	2024-11-08T12:00:00	2	Temperatura media	20
181650	7	Sololá	716	San Marcos la Laguna 	11	San Marcos la laguna 	3	Marzo	2023-11-03T00:00:00	2024-11-08T12:00:00	4	Temperatura máxima	20.2
181651	7	Sololá	716	San Marcos la Laguna 	11	San Marcos la laguna 	3	Marzo	2023-11-03T00:00:00	2024-11-08T12:00:00	3	Temperatura mínima	19.3
181652	7	Sololá	716	San Marcos la Laguna 	11	San Marcos la laguna 	3	Marzo	2023-11-03T00:00:00	2024-11-08T12:00:00	5	Humedad	77
181653	7	Sololá	716	San Marcos la Laguna 	11	San Marcos la laguna 	3	Marzo	2023-11-03T00:00:00	2024-11-08T12:00:00	6	Velocidad del viento	9.7
181654	7	Sololá	716	San Marcos la Laguna 	11	San Marcos la laguna 	3	Marzo	2023-11-03T00:00:00	2024-11-08T12:00:00	7	Dirección del viento	9.66
181655	7	Sololá	716	San Marcos la Laguna 	11	San Marcos la laguna 	3	Marzo	2023-11-03T00:00:00	2024-11-08T12:00:00	1	Precipitación	0
181656	7	Sololá	716	San Marcos la Laguna 	11	San Marcos la laguna 	3	Marzo	2023-11-03T00:00:00	2024-11-08T12:00:00	8	Radiación solar	148
181657	7	Sololá	716	San Marcos la Laguna 	11	San Marcos la laguna 	3	Marzo	2023-11-03T00:00:00	2024-11-08T13:00:00	2	Temperatura media	19.9
181658	7	Sololá	716	San Marcos la Laguna 	11	San Marcos la laguna 	3	Marzo	2023-11-03T00:00:00	2024-11-08T13:00:00	4	Temperatura máxima	20.2
181659	7	Sololá	716	San Marcos la Laguna 	11	San Marcos la laguna 	3	Marzo	2023-11-03T00:00:00	2024-11-08T13:00:00	3	Temperatura mínima	19.9
181660	7	Sololá	716	San Marcos la Laguna 	11	San Marcos la laguna 	3	Marzo	2023-11-03T00:00:00	2024-11-08T13:00:00	5	Humedad	75
181661	7	Sololá	716	San Marcos la Laguna 	11	San Marcos la laguna 	3	Marzo	2023-11-03T00:00:00	2024-11-08T13:00:00	6	Velocidad del viento	8
181662	7	Sololá	716	San Marcos la Laguna 	11	San Marcos la laguna 	3	Marzo	2023-11-03T00:00:00	2024-11-08T13:00:00	7	Dirección del viento	8.05
181663	7	Sololá	716	San Marcos la Laguna 	11	San Marcos la laguna 	3	Marzo	2023-11-03T00:00:00	2024-11-08T13:00:00	1	Precipitación	0
181664	7	Sololá	716	San Marcos la Laguna 	11	San Marcos la laguna 	3	Marzo	2023-11-03T00:00:00	2024-11-08T13:00:00	8	Radiación solar	634
181665	7	Sololá	716	San Marcos la Laguna 	11	San Marcos la laguna 	3	Marzo	2023-11-03T00:00:00	2024-11-08T14:00:00	2	Temperatura media	20.1
181666	7	Sololá	716	San Marcos la Laguna 	11	San Marcos la laguna 	3	Marzo	2023-11-03T00:00:00	2024-11-08T14:00:00	4	Temperatura máxima	20.8
181667	7	Sololá	716	San Marcos la Laguna 	11	San Marcos la laguna 	3	Marzo	2023-11-03T00:00:00	2024-11-08T14:00:00	3	Temperatura mínima	19.9
181668	7	Sololá	716	San Marcos la Laguna 	11	San Marcos la laguna 	3	Marzo	2023-11-03T00:00:00	2024-11-08T14:00:00	5	Humedad	76
181669	7	Sololá	716	San Marcos la Laguna 	11	San Marcos la laguna 	3	Marzo	2023-11-03T00:00:00	2024-11-08T14:00:00	6	Velocidad del viento	4.8
181670	7	Sololá	716	San Marcos la Laguna 	11	San Marcos la laguna 	3	Marzo	2023-11-03T00:00:00	2024-11-08T14:00:00	7	Dirección del viento	4.83
181671	7	Sololá	716	San Marcos la Laguna 	11	San Marcos la laguna 	3	Marzo	2023-11-03T00:00:00	2024-11-08T14:00:00	1	Precipitación	0
181672	7	Sololá	716	San Marcos la Laguna 	11	San Marcos la laguna 	3	Marzo	2023-11-03T00:00:00	2024-11-08T14:00:00	8	Radiación solar	810
181673	7	Sololá	716	San Marcos la Laguna 	11	San Marcos la laguna 	3	Marzo	2023-11-03T00:00:00	2024-11-08T15:00:00	2	Temperatura media	19.9
181674	7	Sololá	716	San Marcos la Laguna 	11	San Marcos la laguna 	3	Marzo	2023-11-03T00:00:00	2024-11-08T15:00:00	4	Temperatura máxima	20.2
181675	7	Sololá	716	San Marcos la Laguna 	11	San Marcos la laguna 	3	Marzo	2023-11-03T00:00:00	2024-11-08T15:00:00	3	Temperatura mínima	19.8
181676	7	Sololá	716	San Marcos la Laguna 	11	San Marcos la laguna 	3	Marzo	2023-11-03T00:00:00	2024-11-08T15:00:00	5	Humedad	76
181677	7	Sololá	716	San Marcos la Laguna 	11	San Marcos la laguna 	3	Marzo	2023-11-03T00:00:00	2024-11-08T15:00:00	6	Velocidad del viento	3.2
181678	7	Sololá	716	San Marcos la Laguna 	11	San Marcos la laguna 	3	Marzo	2023-11-03T00:00:00	2024-11-08T15:00:00	7	Dirección del viento	3.22
181679	7	Sololá	716	San Marcos la Laguna 	11	San Marcos la laguna 	3	Marzo	2023-11-03T00:00:00	2024-11-08T15:00:00	1	Precipitación	0
181680	7	Sololá	716	San Marcos la Laguna 	11	San Marcos la laguna 	3	Marzo	2023-11-03T00:00:00	2024-11-08T15:00:00	8	Radiación solar	328
181681	7	Sololá	716	San Marcos la Laguna 	11	San Marcos la laguna 	3	Marzo	2023-11-03T00:00:00	2024-11-08T16:00:00	2	Temperatura media	21
181682	7	Sololá	716	San Marcos la Laguna 	11	San Marcos la laguna 	3	Marzo	2023-11-03T00:00:00	2024-11-08T16:00:00	4	Temperatura máxima	21.4
181683	7	Sololá	716	San Marcos la Laguna 	11	San Marcos la laguna 	3	Marzo	2023-11-03T00:00:00	2024-11-08T16:00:00	3	Temperatura mínima	19.9
181684	7	Sololá	716	San Marcos la Laguna 	11	San Marcos la laguna 	3	Marzo	2023-11-03T00:00:00	2024-11-08T16:00:00	5	Humedad	75
181685	7	Sololá	716	San Marcos la Laguna 	11	San Marcos la laguna 	3	Marzo	2023-11-03T00:00:00	2024-11-08T16:00:00	6	Velocidad del viento	3.2
181686	7	Sololá	716	San Marcos la Laguna 	11	San Marcos la laguna 	3	Marzo	2023-11-03T00:00:00	2024-11-08T16:00:00	7	Dirección del viento	3.22
181687	7	Sololá	716	San Marcos la Laguna 	11	San Marcos la laguna 	3	Marzo	2023-11-03T00:00:00	2024-11-08T16:00:00	1	Precipitación	0
181688	7	Sololá	716	San Marcos la Laguna 	11	San Marcos la laguna 	3	Marzo	2023-11-03T00:00:00	2024-11-08T16:00:00	8	Radiación solar	181
181689	7	Sololá	716	San Marcos la Laguna 	11	San Marcos la laguna 	3	Marzo	2023-11-03T00:00:00	2024-11-08T17:00:00	2	Temperatura media	19.9
181690	7	Sololá	716	San Marcos la Laguna 	11	San Marcos la laguna 	3	Marzo	2023-11-03T00:00:00	2024-11-08T17:00:00	4	Temperatura máxima	21
181691	7	Sololá	716	San Marcos la Laguna 	11	San Marcos la laguna 	3	Marzo	2023-11-03T00:00:00	2024-11-08T17:00:00	3	Temperatura mínima	19.6
181692	7	Sololá	716	San Marcos la Laguna 	11	San Marcos la laguna 	3	Marzo	2023-11-03T00:00:00	2024-11-08T17:00:00	5	Humedad	79
181693	7	Sololá	716	San Marcos la Laguna 	11	San Marcos la laguna 	3	Marzo	2023-11-03T00:00:00	2024-11-08T17:00:00	6	Velocidad del viento	3.2
181694	7	Sololá	716	San Marcos la Laguna 	11	San Marcos la laguna 	3	Marzo	2023-11-03T00:00:00	2024-11-08T17:00:00	7	Dirección del viento	3.22
181695	7	Sololá	716	San Marcos la Laguna 	11	San Marcos la laguna 	3	Marzo	2023-11-03T00:00:00	2024-11-08T17:00:00	1	Precipitación	0
181696	7	Sololá	716	San Marcos la Laguna 	11	San Marcos la laguna 	3	Marzo	2023-11-03T00:00:00	2024-11-08T17:00:00	8	Radiación solar	86
181697	7	Sololá	716	San Marcos la Laguna 	11	San Marcos la laguna 	3	Marzo	2023-11-03T00:00:00	2024-11-08T18:00:00	2	Temperatura media	19.3
181698	7	Sololá	716	San Marcos la Laguna 	11	San Marcos la laguna 	3	Marzo	2023-11-03T00:00:00	2024-11-08T18:00:00	4	Temperatura máxima	20
181699	7	Sololá	716	San Marcos la Laguna 	11	San Marcos la laguna 	3	Marzo	2023-11-03T00:00:00	2024-11-08T18:00:00	3	Temperatura mínima	19.3
181700	7	Sololá	716	San Marcos la Laguna 	11	San Marcos la laguna 	3	Marzo	2023-11-03T00:00:00	2024-11-08T18:00:00	5	Humedad	83
181701	7	Sololá	716	San Marcos la Laguna 	11	San Marcos la laguna 	3	Marzo	2023-11-03T00:00:00	2024-11-08T18:00:00	6	Velocidad del viento	4.8
181702	7	Sololá	716	San Marcos la Laguna 	11	San Marcos la laguna 	3	Marzo	2023-11-03T00:00:00	2024-11-08T18:00:00	7	Dirección del viento	4.83
181703	7	Sololá	716	San Marcos la Laguna 	11	San Marcos la laguna 	3	Marzo	2023-11-03T00:00:00	2024-11-08T18:00:00	1	Precipitación	0
181704	7	Sololá	716	San Marcos la Laguna 	11	San Marcos la laguna 	3	Marzo	2023-11-03T00:00:00	2024-11-08T18:00:00	8	Radiación solar	32
181705	7	Sololá	716	San Marcos la Laguna 	11	San Marcos la laguna 	3	Marzo	2023-11-03T00:00:00	2024-11-08T19:00:00	2	Temperatura media	18.9
181706	7	Sololá	716	San Marcos la Laguna 	11	San Marcos la laguna 	3	Marzo	2023-11-03T00:00:00	2024-11-08T19:00:00	4	Temperatura máxima	19.3
181707	7	Sololá	716	San Marcos la Laguna 	11	San Marcos la laguna 	3	Marzo	2023-11-03T00:00:00	2024-11-08T19:00:00	3	Temperatura mínima	18.9
181708	7	Sololá	716	San Marcos la Laguna 	11	San Marcos la laguna 	3	Marzo	2023-11-03T00:00:00	2024-11-08T19:00:00	5	Humedad	84
181709	7	Sololá	716	San Marcos la Laguna 	11	San Marcos la laguna 	3	Marzo	2023-11-03T00:00:00	2024-11-08T19:00:00	6	Velocidad del viento	3.2
181710	7	Sololá	716	San Marcos la Laguna 	11	San Marcos la laguna 	3	Marzo	2023-11-03T00:00:00	2024-11-08T19:00:00	7	Dirección del viento	3.22
181711	7	Sololá	716	San Marcos la Laguna 	11	San Marcos la laguna 	3	Marzo	2023-11-03T00:00:00	2024-11-08T19:00:00	1	Precipitación	0
181712	7	Sololá	716	San Marcos la Laguna 	11	San Marcos la laguna 	3	Marzo	2023-11-03T00:00:00	2024-11-08T19:00:00	8	Radiación solar	0
181713	7	Sololá	716	San Marcos la Laguna 	11	San Marcos la laguna 	3	Marzo	2023-11-03T00:00:00	2024-11-08T20:00:00	2	Temperatura media	18.7
181714	7	Sololá	716	San Marcos la Laguna 	11	San Marcos la laguna 	3	Marzo	2023-11-03T00:00:00	2024-11-08T20:00:00	4	Temperatura máxima	18.9
181715	7	Sololá	716	San Marcos la Laguna 	11	San Marcos la laguna 	3	Marzo	2023-11-03T00:00:00	2024-11-08T20:00:00	3	Temperatura mínima	18.6
181716	7	Sololá	716	San Marcos la Laguna 	11	San Marcos la laguna 	3	Marzo	2023-11-03T00:00:00	2024-11-08T20:00:00	5	Humedad	85
181717	7	Sololá	716	San Marcos la Laguna 	11	San Marcos la laguna 	3	Marzo	2023-11-03T00:00:00	2024-11-08T20:00:00	6	Velocidad del viento	1.6
181718	7	Sololá	716	San Marcos la Laguna 	11	San Marcos la laguna 	3	Marzo	2023-11-03T00:00:00	2024-11-08T20:00:00	7	Dirección del viento	1.61
181719	7	Sololá	716	San Marcos la Laguna 	11	San Marcos la laguna 	3	Marzo	2023-11-03T00:00:00	2024-11-08T20:00:00	1	Precipitación	0
181720	7	Sololá	716	San Marcos la Laguna 	11	San Marcos la laguna 	3	Marzo	2023-11-03T00:00:00	2024-11-08T20:00:00	8	Radiación solar	0
181721	7	Sololá	716	San Marcos la Laguna 	11	San Marcos la laguna 	3	Marzo	2023-11-03T00:00:00	2024-11-08T21:00:00	2	Temperatura media	18.3
181722	7	Sololá	716	San Marcos la Laguna 	11	San Marcos la laguna 	3	Marzo	2023-11-03T00:00:00	2024-11-08T21:00:00	4	Temperatura máxima	18.9
181723	7	Sololá	716	San Marcos la Laguna 	11	San Marcos la laguna 	3	Marzo	2023-11-03T00:00:00	2024-11-08T21:00:00	3	Temperatura mínima	18.2
181724	7	Sololá	716	San Marcos la Laguna 	11	San Marcos la laguna 	3	Marzo	2023-11-03T00:00:00	2024-11-08T21:00:00	5	Humedad	86
181725	7	Sololá	716	San Marcos la Laguna 	11	San Marcos la laguna 	3	Marzo	2023-11-03T00:00:00	2024-11-08T21:00:00	6	Velocidad del viento	3.2
181726	7	Sololá	716	San Marcos la Laguna 	11	San Marcos la laguna 	3	Marzo	2023-11-03T00:00:00	2024-11-08T21:00:00	7	Dirección del viento	3.22
181727	7	Sololá	716	San Marcos la Laguna 	11	San Marcos la laguna 	3	Marzo	2023-11-03T00:00:00	2024-11-08T21:00:00	1	Precipitación	0
181728	7	Sololá	716	San Marcos la Laguna 	11	San Marcos la laguna 	3	Marzo	2023-11-03T00:00:00	2024-11-08T21:00:00	8	Radiación solar	0
181729	7	Sololá	716	San Marcos la Laguna 	11	San Marcos la laguna 	3	Marzo	2023-11-03T00:00:00	2024-11-08T22:00:00	2	Temperatura media	17.9
181730	7	Sololá	716	San Marcos la Laguna 	11	San Marcos la laguna 	3	Marzo	2023-11-03T00:00:00	2024-11-08T22:00:00	4	Temperatura máxima	18.3
181731	7	Sololá	716	San Marcos la Laguna 	11	San Marcos la laguna 	3	Marzo	2023-11-03T00:00:00	2024-11-08T22:00:00	3	Temperatura mínima	17.8
181732	7	Sololá	716	San Marcos la Laguna 	11	San Marcos la laguna 	3	Marzo	2023-11-03T00:00:00	2024-11-08T22:00:00	5	Humedad	90
181733	7	Sololá	716	San Marcos la Laguna 	11	San Marcos la laguna 	3	Marzo	2023-11-03T00:00:00	2024-11-08T22:00:00	6	Velocidad del viento	3.2
181734	7	Sololá	716	San Marcos la Laguna 	11	San Marcos la laguna 	3	Marzo	2023-11-03T00:00:00	2024-11-08T22:00:00	7	Dirección del viento	3.22
181735	7	Sololá	716	San Marcos la Laguna 	11	San Marcos la laguna 	3	Marzo	2023-11-03T00:00:00	2024-11-08T22:00:00	1	Precipitación	0
181736	7	Sololá	716	San Marcos la Laguna 	11	San Marcos la laguna 	3	Marzo	2023-11-03T00:00:00	2024-11-08T22:00:00	8	Radiación solar	0
181737	7	Sololá	716	San Marcos la Laguna 	11	San Marcos la laguna 	3	Marzo	2023-11-03T00:00:00	2024-11-08T23:00:00	2	Temperatura media	17.7
181738	7	Sololá	716	San Marcos la Laguna 	11	San Marcos la laguna 	3	Marzo	2023-11-03T00:00:00	2024-11-08T23:00:00	4	Temperatura máxima	17.9
181739	7	Sololá	716	San Marcos la Laguna 	11	San Marcos la laguna 	3	Marzo	2023-11-03T00:00:00	2024-11-08T23:00:00	3	Temperatura mínima	17.7
181740	7	Sololá	716	San Marcos la Laguna 	11	San Marcos la laguna 	3	Marzo	2023-11-03T00:00:00	2024-11-08T23:00:00	5	Humedad	90
181741	7	Sololá	716	San Marcos la Laguna 	11	San Marcos la laguna 	3	Marzo	2023-11-03T00:00:00	2024-11-08T23:00:00	6	Velocidad del viento	3.2
181742	7	Sololá	716	San Marcos la Laguna 	11	San Marcos la laguna 	3	Marzo	2023-11-03T00:00:00	2024-11-08T23:00:00	7	Dirección del viento	3.22
181743	7	Sololá	716	San Marcos la Laguna 	11	San Marcos la laguna 	3	Marzo	2023-11-03T00:00:00	2024-11-08T23:00:00	1	Precipitación	0
181744	7	Sololá	716	San Marcos la Laguna 	11	San Marcos la laguna 	3	Marzo	2023-11-03T00:00:00	2024-11-08T23:00:00	8	Radiación solar	0
181745	7	Sololá	716	San Marcos la Laguna 	11	San Marcos la laguna 	3	Marzo	2023-12-03T00:00:00	2024-11-08T00:00:00	2	Temperatura media	16.7
181746	7	Sololá	716	San Marcos la Laguna 	11	San Marcos la laguna 	3	Marzo	2023-12-03T00:00:00	2024-11-08T00:00:00	4	Temperatura máxima	17.4
181747	7	Sololá	716	San Marcos la Laguna 	11	San Marcos la laguna 	3	Marzo	2023-12-03T00:00:00	2024-11-08T00:00:00	3	Temperatura mínima	16.7
181748	7	Sololá	716	San Marcos la Laguna 	11	San Marcos la laguna 	3	Marzo	2023-12-03T00:00:00	2024-11-08T00:00:00	5	Humedad	83
181749	7	Sololá	716	San Marcos la Laguna 	11	San Marcos la laguna 	3	Marzo	2023-12-03T00:00:00	2024-11-08T00:00:00	6	Velocidad del viento	3.2
181750	7	Sololá	716	San Marcos la Laguna 	11	San Marcos la laguna 	3	Marzo	2023-12-03T00:00:00	2024-11-08T00:00:00	7	Dirección del viento	3.22
181751	7	Sololá	716	San Marcos la Laguna 	11	San Marcos la laguna 	3	Marzo	2023-12-03T00:00:00	2024-11-08T00:00:00	1	Precipitación	0
181752	7	Sololá	716	San Marcos la Laguna 	11	San Marcos la laguna 	3	Marzo	2023-12-03T00:00:00	2024-11-08T00:00:00	8	Radiación solar	0
181753	7	Sololá	716	San Marcos la Laguna 	11	San Marcos la laguna 	3	Marzo	2023-12-03T00:00:00	2024-11-08T01:00:00	2	Temperatura media	17.6
181754	7	Sololá	716	San Marcos la Laguna 	11	San Marcos la laguna 	3	Marzo	2023-12-03T00:00:00	2024-11-08T01:00:00	4	Temperatura máxima	17.8
181755	7	Sololá	716	San Marcos la Laguna 	11	San Marcos la laguna 	3	Marzo	2023-12-03T00:00:00	2024-11-08T01:00:00	3	Temperatura mínima	17.6
181756	7	Sololá	716	San Marcos la Laguna 	11	San Marcos la laguna 	3	Marzo	2023-12-03T00:00:00	2024-11-08T01:00:00	5	Humedad	88
181757	7	Sololá	716	San Marcos la Laguna 	11	San Marcos la laguna 	3	Marzo	2023-12-03T00:00:00	2024-11-08T01:00:00	6	Velocidad del viento	1.6
181758	7	Sololá	716	San Marcos la Laguna 	11	San Marcos la laguna 	3	Marzo	2023-12-03T00:00:00	2024-11-08T01:00:00	7	Dirección del viento	1.61
181759	7	Sololá	716	San Marcos la Laguna 	11	San Marcos la laguna 	3	Marzo	2023-12-03T00:00:00	2024-11-08T01:00:00	1	Precipitación	0
181760	7	Sololá	716	San Marcos la Laguna 	11	San Marcos la laguna 	3	Marzo	2023-12-03T00:00:00	2024-11-08T01:00:00	8	Radiación solar	0
181761	7	Sololá	716	San Marcos la Laguna 	11	San Marcos la laguna 	3	Marzo	2023-12-03T00:00:00	2024-11-08T02:00:00	2	Temperatura media	17.7
181762	7	Sololá	716	San Marcos la Laguna 	11	San Marcos la laguna 	3	Marzo	2023-12-03T00:00:00	2024-11-08T02:00:00	4	Temperatura máxima	17.8
181763	7	Sololá	716	San Marcos la Laguna 	11	San Marcos la laguna 	3	Marzo	2023-12-03T00:00:00	2024-11-08T02:00:00	3	Temperatura mínima	17.6
181764	7	Sololá	716	San Marcos la Laguna 	11	San Marcos la laguna 	3	Marzo	2023-12-03T00:00:00	2024-11-08T02:00:00	5	Humedad	87
181765	7	Sololá	716	San Marcos la Laguna 	11	San Marcos la laguna 	3	Marzo	2023-12-03T00:00:00	2024-11-08T02:00:00	6	Velocidad del viento	3.2
181766	7	Sololá	716	San Marcos la Laguna 	11	San Marcos la laguna 	3	Marzo	2023-12-03T00:00:00	2024-11-08T02:00:00	7	Dirección del viento	3.22
181767	7	Sololá	716	San Marcos la Laguna 	11	San Marcos la laguna 	3	Marzo	2023-12-03T00:00:00	2024-11-08T02:00:00	1	Precipitación	0
181768	7	Sololá	716	San Marcos la Laguna 	11	San Marcos la laguna 	3	Marzo	2023-12-03T00:00:00	2024-11-08T02:00:00	8	Radiación solar	0
181769	7	Sololá	716	San Marcos la Laguna 	11	San Marcos la laguna 	3	Marzo	2023-12-03T00:00:00	2024-11-08T03:00:00	2	Temperatura media	17.3
181770	7	Sololá	716	San Marcos la Laguna 	11	San Marcos la laguna 	3	Marzo	2023-12-03T00:00:00	2024-11-08T03:00:00	4	Temperatura máxima	17.7
181771	7	Sololá	716	San Marcos la Laguna 	11	San Marcos la laguna 	3	Marzo	2023-12-03T00:00:00	2024-11-08T03:00:00	3	Temperatura mínima	17.3
181772	7	Sololá	716	San Marcos la Laguna 	11	San Marcos la laguna 	3	Marzo	2023-12-03T00:00:00	2024-11-08T03:00:00	5	Humedad	88
181773	7	Sololá	716	San Marcos la Laguna 	11	San Marcos la laguna 	3	Marzo	2023-12-03T00:00:00	2024-11-08T03:00:00	6	Velocidad del viento	1.6
181774	7	Sololá	716	San Marcos la Laguna 	11	San Marcos la laguna 	3	Marzo	2023-12-03T00:00:00	2024-11-08T03:00:00	7	Dirección del viento	1.61
181775	7	Sololá	716	San Marcos la Laguna 	11	San Marcos la laguna 	3	Marzo	2023-12-03T00:00:00	2024-11-08T03:00:00	1	Precipitación	0
181776	7	Sololá	716	San Marcos la Laguna 	11	San Marcos la laguna 	3	Marzo	2023-12-03T00:00:00	2024-11-08T03:00:00	8	Radiación solar	0
181777	7	Sololá	716	San Marcos la Laguna 	11	San Marcos la laguna 	3	Marzo	2023-12-03T00:00:00	2024-11-08T04:00:00	2	Temperatura media	17.7
181778	7	Sololá	716	San Marcos la Laguna 	11	San Marcos la laguna 	3	Marzo	2023-12-03T00:00:00	2024-11-08T04:00:00	4	Temperatura máxima	17.8
181779	7	Sololá	716	San Marcos la Laguna 	11	San Marcos la laguna 	3	Marzo	2023-12-03T00:00:00	2024-11-08T04:00:00	3	Temperatura mínima	17.3
181780	7	Sololá	716	San Marcos la Laguna 	11	San Marcos la laguna 	3	Marzo	2023-12-03T00:00:00	2024-11-08T04:00:00	5	Humedad	88
181781	7	Sololá	716	San Marcos la Laguna 	11	San Marcos la laguna 	3	Marzo	2023-12-03T00:00:00	2024-11-08T04:00:00	6	Velocidad del viento	3.2
181782	7	Sololá	716	San Marcos la Laguna 	11	San Marcos la laguna 	3	Marzo	2023-12-03T00:00:00	2024-11-08T04:00:00	7	Dirección del viento	3.22
181783	7	Sololá	716	San Marcos la Laguna 	11	San Marcos la laguna 	3	Marzo	2023-12-03T00:00:00	2024-11-08T04:00:00	1	Precipitación	0
181784	7	Sololá	716	San Marcos la Laguna 	11	San Marcos la laguna 	3	Marzo	2023-12-03T00:00:00	2024-11-08T04:00:00	8	Radiación solar	0
181785	7	Sololá	716	San Marcos la Laguna 	11	San Marcos la laguna 	3	Marzo	2023-12-03T00:00:00	2024-11-08T05:00:00	2	Temperatura media	17.7
181786	7	Sololá	716	San Marcos la Laguna 	11	San Marcos la laguna 	3	Marzo	2023-12-03T00:00:00	2024-11-08T05:00:00	4	Temperatura máxima	17.8
181787	7	Sololá	716	San Marcos la Laguna 	11	San Marcos la laguna 	3	Marzo	2023-12-03T00:00:00	2024-11-08T05:00:00	3	Temperatura mínima	17.7
181788	7	Sololá	716	San Marcos la Laguna 	11	San Marcos la laguna 	3	Marzo	2023-12-03T00:00:00	2024-11-08T05:00:00	5	Humedad	87
181789	7	Sololá	716	San Marcos la Laguna 	11	San Marcos la laguna 	3	Marzo	2023-12-03T00:00:00	2024-11-08T05:00:00	6	Velocidad del viento	3.2
181790	7	Sololá	716	San Marcos la Laguna 	11	San Marcos la laguna 	3	Marzo	2023-12-03T00:00:00	2024-11-08T05:00:00	7	Dirección del viento	3.22
181791	7	Sololá	716	San Marcos la Laguna 	11	San Marcos la laguna 	3	Marzo	2023-12-03T00:00:00	2024-11-08T05:00:00	1	Precipitación	0
181792	7	Sololá	716	San Marcos la Laguna 	11	San Marcos la laguna 	3	Marzo	2023-12-03T00:00:00	2024-11-08T05:00:00	8	Radiación solar	0
181793	7	Sololá	716	San Marcos la Laguna 	11	San Marcos la laguna 	3	Marzo	2023-12-03T00:00:00	2024-11-08T06:00:00	2	Temperatura media	17.4
181794	7	Sololá	716	San Marcos la Laguna 	11	San Marcos la laguna 	3	Marzo	2023-12-03T00:00:00	2024-11-08T06:00:00	4	Temperatura máxima	17.8
181795	7	Sololá	716	San Marcos la Laguna 	11	San Marcos la laguna 	3	Marzo	2023-12-03T00:00:00	2024-11-08T06:00:00	3	Temperatura mínima	17.4
181796	7	Sololá	716	San Marcos la Laguna 	11	San Marcos la laguna 	3	Marzo	2023-12-03T00:00:00	2024-11-08T06:00:00	5	Humedad	83
181797	7	Sololá	716	San Marcos la Laguna 	11	San Marcos la laguna 	3	Marzo	2023-12-03T00:00:00	2024-11-08T06:00:00	6	Velocidad del viento	3.2
181798	7	Sololá	716	San Marcos la Laguna 	11	San Marcos la laguna 	3	Marzo	2023-12-03T00:00:00	2024-11-08T06:00:00	7	Dirección del viento	3.22
181799	7	Sololá	716	San Marcos la Laguna 	11	San Marcos la laguna 	3	Marzo	2023-12-03T00:00:00	2024-11-08T06:00:00	1	Precipitación	0
181800	7	Sololá	716	San Marcos la Laguna 	11	San Marcos la laguna 	3	Marzo	2023-12-03T00:00:00	2024-11-08T06:00:00	8	Radiación solar	0
181801	7	Sololá	716	San Marcos la Laguna 	11	San Marcos la laguna 	3	Marzo	2023-12-03T00:00:00	2024-11-08T07:00:00	2	Temperatura media	17.4
181802	7	Sololá	716	San Marcos la Laguna 	11	San Marcos la laguna 	3	Marzo	2023-12-03T00:00:00	2024-11-08T07:00:00	4	Temperatura máxima	17.4
181803	7	Sololá	716	San Marcos la Laguna 	11	San Marcos la laguna 	3	Marzo	2023-12-03T00:00:00	2024-11-08T07:00:00	3	Temperatura mínima	17.3
181804	7	Sololá	716	San Marcos la Laguna 	11	San Marcos la laguna 	3	Marzo	2023-12-03T00:00:00	2024-11-08T07:00:00	5	Humedad	82
181805	7	Sololá	716	San Marcos la Laguna 	11	San Marcos la laguna 	3	Marzo	2023-12-03T00:00:00	2024-11-08T07:00:00	6	Velocidad del viento	3.2
181806	7	Sololá	716	San Marcos la Laguna 	11	San Marcos la laguna 	3	Marzo	2023-12-03T00:00:00	2024-11-08T07:00:00	7	Dirección del viento	3.22
181807	7	Sololá	716	San Marcos la Laguna 	11	San Marcos la laguna 	3	Marzo	2023-12-03T00:00:00	2024-11-08T07:00:00	1	Precipitación	0
181808	7	Sololá	716	San Marcos la Laguna 	11	San Marcos la laguna 	3	Marzo	2023-12-03T00:00:00	2024-11-08T07:00:00	8	Radiación solar	19
181809	7	Sololá	716	San Marcos la Laguna 	11	San Marcos la laguna 	3	Marzo	2023-12-03T00:00:00	2024-11-08T08:00:00	2	Temperatura media	17.9
181810	7	Sololá	716	San Marcos la Laguna 	11	San Marcos la laguna 	3	Marzo	2023-12-03T00:00:00	2024-11-08T08:00:00	4	Temperatura máxima	18
181811	7	Sololá	716	San Marcos la Laguna 	11	San Marcos la laguna 	3	Marzo	2023-12-03T00:00:00	2024-11-08T08:00:00	3	Temperatura mínima	17.3
181812	7	Sololá	716	San Marcos la Laguna 	11	San Marcos la laguna 	3	Marzo	2023-12-03T00:00:00	2024-11-08T08:00:00	5	Humedad	82
181813	7	Sololá	716	San Marcos la Laguna 	11	San Marcos la laguna 	3	Marzo	2023-12-03T00:00:00	2024-11-08T08:00:00	6	Velocidad del viento	1.6
181814	7	Sololá	716	San Marcos la Laguna 	11	San Marcos la laguna 	3	Marzo	2023-12-03T00:00:00	2024-11-08T08:00:00	7	Dirección del viento	1.61
181815	7	Sololá	716	San Marcos la Laguna 	11	San Marcos la laguna 	3	Marzo	2023-12-03T00:00:00	2024-11-08T08:00:00	1	Precipitación	0
181816	7	Sololá	716	San Marcos la Laguna 	11	San Marcos la laguna 	3	Marzo	2023-12-03T00:00:00	2024-11-08T08:00:00	8	Radiación solar	189
181817	7	Sololá	716	San Marcos la Laguna 	11	San Marcos la laguna 	3	Marzo	2023-12-03T00:00:00	2024-11-08T09:00:00	2	Temperatura media	18.3
181818	7	Sololá	716	San Marcos la Laguna 	11	San Marcos la laguna 	3	Marzo	2023-12-03T00:00:00	2024-11-08T09:00:00	4	Temperatura máxima	18.3
181819	7	Sololá	716	San Marcos la Laguna 	11	San Marcos la laguna 	3	Marzo	2023-12-03T00:00:00	2024-11-08T09:00:00	3	Temperatura mínima	17.9
181820	7	Sololá	716	San Marcos la Laguna 	11	San Marcos la laguna 	3	Marzo	2023-12-03T00:00:00	2024-11-08T09:00:00	5	Humedad	80
181821	7	Sololá	716	San Marcos la Laguna 	11	San Marcos la laguna 	3	Marzo	2023-12-03T00:00:00	2024-11-08T09:00:00	6	Velocidad del viento	4.8
181822	7	Sololá	716	San Marcos la Laguna 	11	San Marcos la laguna 	3	Marzo	2023-12-03T00:00:00	2024-11-08T09:00:00	7	Dirección del viento	4.83
181823	7	Sololá	716	San Marcos la Laguna 	11	San Marcos la laguna 	3	Marzo	2023-12-03T00:00:00	2024-11-08T09:00:00	1	Precipitación	0
181824	7	Sololá	716	San Marcos la Laguna 	11	San Marcos la laguna 	3	Marzo	2023-12-03T00:00:00	2024-11-08T09:00:00	8	Radiación solar	237
181825	7	Sololá	716	San Marcos la Laguna 	11	San Marcos la laguna 	3	Marzo	2023-12-03T00:00:00	2024-11-08T10:00:00	2	Temperatura media	19.1
181826	7	Sololá	716	San Marcos la Laguna 	11	San Marcos la laguna 	3	Marzo	2023-12-03T00:00:00	2024-11-08T10:00:00	4	Temperatura máxima	19.1
181827	7	Sololá	716	San Marcos la Laguna 	11	San Marcos la laguna 	3	Marzo	2023-12-03T00:00:00	2024-11-08T10:00:00	3	Temperatura mínima	18.2
181828	7	Sololá	716	San Marcos la Laguna 	11	San Marcos la laguna 	3	Marzo	2023-12-03T00:00:00	2024-11-08T10:00:00	5	Humedad	78
181829	7	Sololá	716	San Marcos la Laguna 	11	San Marcos la laguna 	3	Marzo	2023-12-03T00:00:00	2024-11-08T10:00:00	6	Velocidad del viento	4.8
181830	7	Sololá	716	San Marcos la Laguna 	11	San Marcos la laguna 	3	Marzo	2023-12-03T00:00:00	2024-11-08T10:00:00	7	Dirección del viento	4.83
181831	7	Sololá	716	San Marcos la Laguna 	11	San Marcos la laguna 	3	Marzo	2023-12-03T00:00:00	2024-11-08T10:00:00	1	Precipitación	0
181832	7	Sololá	716	San Marcos la Laguna 	11	San Marcos la laguna 	3	Marzo	2023-12-03T00:00:00	2024-11-08T10:00:00	8	Radiación solar	605
181833	7	Sololá	716	San Marcos la Laguna 	11	San Marcos la laguna 	3	Marzo	2023-12-03T00:00:00	2024-11-08T11:00:00	2	Temperatura media	19.9
181834	7	Sololá	716	San Marcos la Laguna 	11	San Marcos la laguna 	3	Marzo	2023-12-03T00:00:00	2024-11-08T11:00:00	4	Temperatura máxima	20.3
181835	7	Sololá	716	San Marcos la Laguna 	11	San Marcos la laguna 	3	Marzo	2023-12-03T00:00:00	2024-11-08T11:00:00	3	Temperatura mínima	19.1
181836	7	Sololá	716	San Marcos la Laguna 	11	San Marcos la laguna 	3	Marzo	2023-12-03T00:00:00	2024-11-08T11:00:00	5	Humedad	75
181837	7	Sololá	716	San Marcos la Laguna 	11	San Marcos la laguna 	3	Marzo	2023-12-03T00:00:00	2024-11-08T11:00:00	6	Velocidad del viento	6.4
181838	7	Sololá	716	San Marcos la Laguna 	11	San Marcos la laguna 	3	Marzo	2023-12-03T00:00:00	2024-11-08T11:00:00	7	Dirección del viento	6.44
181839	7	Sololá	716	San Marcos la Laguna 	11	San Marcos la laguna 	3	Marzo	2023-12-03T00:00:00	2024-11-08T11:00:00	1	Precipitación	0
181840	7	Sololá	716	San Marcos la Laguna 	11	San Marcos la laguna 	3	Marzo	2023-12-03T00:00:00	2024-11-08T11:00:00	8	Radiación solar	333
181841	7	Sololá	716	San Marcos la Laguna 	11	San Marcos la laguna 	3	Marzo	2023-12-03T00:00:00	2024-11-08T12:00:00	2	Temperatura media	20.3
181842	7	Sololá	716	San Marcos la Laguna 	11	San Marcos la laguna 	3	Marzo	2023-12-03T00:00:00	2024-11-08T12:00:00	4	Temperatura máxima	20.3
181843	7	Sololá	716	San Marcos la Laguna 	11	San Marcos la laguna 	3	Marzo	2023-12-03T00:00:00	2024-11-08T12:00:00	3	Temperatura mínima	19.8
181844	7	Sololá	716	San Marcos la Laguna 	11	San Marcos la laguna 	3	Marzo	2023-12-03T00:00:00	2024-11-08T12:00:00	5	Humedad	72
181845	7	Sololá	716	San Marcos la Laguna 	11	San Marcos la laguna 	3	Marzo	2023-12-03T00:00:00	2024-11-08T12:00:00	6	Velocidad del viento	6.4
181846	7	Sololá	716	San Marcos la Laguna 	11	San Marcos la laguna 	3	Marzo	2023-12-03T00:00:00	2024-11-08T12:00:00	7	Dirección del viento	6.44
181847	7	Sololá	716	San Marcos la Laguna 	11	San Marcos la laguna 	3	Marzo	2023-12-03T00:00:00	2024-11-08T12:00:00	1	Precipitación	0
181848	7	Sololá	716	San Marcos la Laguna 	11	San Marcos la laguna 	3	Marzo	2023-12-03T00:00:00	2024-11-08T12:00:00	8	Radiación solar	376
181849	7	Sololá	716	San Marcos la Laguna 	11	San Marcos la laguna 	3	Marzo	2023-12-03T00:00:00	2024-11-08T13:00:00	2	Temperatura media	20.5
181850	7	Sololá	716	San Marcos la Laguna 	11	San Marcos la laguna 	3	Marzo	2023-12-03T00:00:00	2024-11-08T13:00:00	4	Temperatura máxima	20.6
181851	7	Sololá	716	San Marcos la Laguna 	11	San Marcos la laguna 	3	Marzo	2023-12-03T00:00:00	2024-11-08T13:00:00	3	Temperatura mínima	20.1
181852	7	Sololá	716	San Marcos la Laguna 	11	San Marcos la laguna 	3	Marzo	2023-12-03T00:00:00	2024-11-08T13:00:00	5	Humedad	74
181853	7	Sololá	716	San Marcos la Laguna 	11	San Marcos la laguna 	3	Marzo	2023-12-03T00:00:00	2024-11-08T13:00:00	6	Velocidad del viento	3.2
181854	7	Sololá	716	San Marcos la Laguna 	11	San Marcos la laguna 	3	Marzo	2023-12-03T00:00:00	2024-11-08T13:00:00	7	Dirección del viento	3.22
181855	7	Sololá	716	San Marcos la Laguna 	11	San Marcos la laguna 	3	Marzo	2023-12-03T00:00:00	2024-11-08T13:00:00	1	Precipitación	0
181856	7	Sololá	716	San Marcos la Laguna 	11	San Marcos la laguna 	3	Marzo	2023-12-03T00:00:00	2024-11-08T13:00:00	8	Radiación solar	315
181857	7	Sololá	716	San Marcos la Laguna 	11	San Marcos la laguna 	3	Marzo	2023-12-03T00:00:00	2024-11-08T14:00:00	2	Temperatura media	21.1
181858	7	Sololá	716	San Marcos la Laguna 	11	San Marcos la laguna 	3	Marzo	2023-12-03T00:00:00	2024-11-08T14:00:00	4	Temperatura máxima	21.1
181859	7	Sololá	716	San Marcos la Laguna 	11	San Marcos la laguna 	3	Marzo	2023-12-03T00:00:00	2024-11-08T14:00:00	3	Temperatura mínima	20.3
181860	7	Sololá	716	San Marcos la Laguna 	11	San Marcos la laguna 	3	Marzo	2023-12-03T00:00:00	2024-11-08T14:00:00	5	Humedad	72
181861	7	Sololá	716	San Marcos la Laguna 	11	San Marcos la laguna 	3	Marzo	2023-12-03T00:00:00	2024-11-08T14:00:00	6	Velocidad del viento	3.2
181862	7	Sololá	716	San Marcos la Laguna 	11	San Marcos la laguna 	3	Marzo	2023-12-03T00:00:00	2024-11-08T14:00:00	7	Dirección del viento	3.22
181863	7	Sololá	716	San Marcos la Laguna 	11	San Marcos la laguna 	3	Marzo	2023-12-03T00:00:00	2024-11-08T14:00:00	1	Precipitación	0
181864	7	Sololá	716	San Marcos la Laguna 	11	San Marcos la laguna 	3	Marzo	2023-12-03T00:00:00	2024-11-08T14:00:00	8	Radiación solar	522
181865	7	Sololá	716	San Marcos la Laguna 	11	San Marcos la laguna 	3	Marzo	2023-12-03T00:00:00	2024-11-08T15:00:00	2	Temperatura media	19.6
181866	7	Sololá	716	San Marcos la Laguna 	11	San Marcos la laguna 	3	Marzo	2023-12-03T00:00:00	2024-11-08T15:00:00	4	Temperatura máxima	21.2
181867	7	Sololá	716	San Marcos la Laguna 	11	San Marcos la laguna 	3	Marzo	2023-12-03T00:00:00	2024-11-08T15:00:00	3	Temperatura mínima	19.5
181868	7	Sololá	716	San Marcos la Laguna 	11	San Marcos la laguna 	3	Marzo	2023-12-03T00:00:00	2024-11-08T15:00:00	5	Humedad	80
181869	7	Sololá	716	San Marcos la Laguna 	11	San Marcos la laguna 	3	Marzo	2023-12-03T00:00:00	2024-11-08T15:00:00	6	Velocidad del viento	4.8
181870	7	Sololá	716	San Marcos la Laguna 	11	San Marcos la laguna 	3	Marzo	2023-12-03T00:00:00	2024-11-08T15:00:00	7	Dirección del viento	4.83
181871	7	Sololá	716	San Marcos la Laguna 	11	San Marcos la laguna 	3	Marzo	2023-12-03T00:00:00	2024-11-08T15:00:00	1	Precipitación	0
181872	7	Sololá	716	San Marcos la Laguna 	11	San Marcos la laguna 	3	Marzo	2023-12-03T00:00:00	2024-11-08T15:00:00	8	Radiación solar	467
181873	7	Sololá	716	San Marcos la Laguna 	11	San Marcos la laguna 	3	Marzo	2023-12-03T00:00:00	2024-11-08T16:00:00	2	Temperatura media	19.3
181874	7	Sololá	716	San Marcos la Laguna 	11	San Marcos la laguna 	3	Marzo	2023-12-03T00:00:00	2024-11-08T16:00:00	4	Temperatura máxima	19.7
181875	7	Sololá	716	San Marcos la Laguna 	11	San Marcos la laguna 	3	Marzo	2023-12-03T00:00:00	2024-11-08T16:00:00	3	Temperatura mínima	19.3
181876	7	Sololá	716	San Marcos la Laguna 	11	San Marcos la laguna 	3	Marzo	2023-12-03T00:00:00	2024-11-08T16:00:00	5	Humedad	78
181877	7	Sololá	716	San Marcos la Laguna 	11	San Marcos la laguna 	3	Marzo	2023-12-03T00:00:00	2024-11-08T16:00:00	6	Velocidad del viento	6.4
181878	7	Sololá	716	San Marcos la Laguna 	11	San Marcos la laguna 	3	Marzo	2023-12-03T00:00:00	2024-11-08T16:00:00	7	Dirección del viento	6.44
181879	7	Sololá	716	San Marcos la Laguna 	11	San Marcos la laguna 	3	Marzo	2023-12-03T00:00:00	2024-11-08T16:00:00	1	Precipitación	0
181880	7	Sololá	716	San Marcos la Laguna 	11	San Marcos la laguna 	3	Marzo	2023-12-03T00:00:00	2024-11-08T16:00:00	8	Radiación solar	255
181881	7	Sololá	716	San Marcos la Laguna 	11	San Marcos la laguna 	3	Marzo	2023-12-03T00:00:00	2024-11-08T17:00:00	2	Temperatura media	19.3
181882	7	Sololá	716	San Marcos la Laguna 	11	San Marcos la laguna 	3	Marzo	2023-12-03T00:00:00	2024-11-08T17:00:00	4	Temperatura máxima	19.3
181883	7	Sololá	716	San Marcos la Laguna 	11	San Marcos la laguna 	3	Marzo	2023-12-03T00:00:00	2024-11-08T17:00:00	3	Temperatura mínima	19.2
181884	7	Sololá	716	San Marcos la Laguna 	11	San Marcos la laguna 	3	Marzo	2023-12-03T00:00:00	2024-11-08T17:00:00	5	Humedad	79
181885	7	Sololá	716	San Marcos la Laguna 	11	San Marcos la laguna 	3	Marzo	2023-12-03T00:00:00	2024-11-08T17:00:00	6	Velocidad del viento	1.6
181886	7	Sololá	716	San Marcos la Laguna 	11	San Marcos la laguna 	3	Marzo	2023-12-03T00:00:00	2024-11-08T17:00:00	7	Dirección del viento	1.61
181887	7	Sololá	716	San Marcos la Laguna 	11	San Marcos la laguna 	3	Marzo	2023-12-03T00:00:00	2024-11-08T17:00:00	1	Precipitación	0
181888	7	Sololá	716	San Marcos la Laguna 	11	San Marcos la laguna 	3	Marzo	2023-12-03T00:00:00	2024-11-08T17:00:00	8	Radiación solar	155
181889	7	Sololá	716	San Marcos la Laguna 	11	San Marcos la laguna 	3	Marzo	2023-12-03T00:00:00	2024-11-08T18:00:00	2	Temperatura media	18.8
181890	7	Sololá	716	San Marcos la Laguna 	11	San Marcos la laguna 	3	Marzo	2023-12-03T00:00:00	2024-11-08T18:00:00	4	Temperatura máxima	19.4
181891	7	Sololá	716	San Marcos la Laguna 	11	San Marcos la laguna 	3	Marzo	2023-12-03T00:00:00	2024-11-08T18:00:00	3	Temperatura mínima	18.7
181892	7	Sololá	716	San Marcos la Laguna 	11	San Marcos la laguna 	3	Marzo	2023-12-03T00:00:00	2024-11-08T18:00:00	5	Humedad	83
181893	7	Sololá	716	San Marcos la Laguna 	11	San Marcos la laguna 	3	Marzo	2023-12-03T00:00:00	2024-11-08T18:00:00	6	Velocidad del viento	1.6
181894	7	Sololá	716	San Marcos la Laguna 	11	San Marcos la laguna 	3	Marzo	2023-12-03T00:00:00	2024-11-08T18:00:00	7	Dirección del viento	1.61
181895	7	Sololá	716	San Marcos la Laguna 	11	San Marcos la laguna 	3	Marzo	2023-12-03T00:00:00	2024-11-08T18:00:00	1	Precipitación	0
181896	7	Sololá	716	San Marcos la Laguna 	11	San Marcos la laguna 	3	Marzo	2023-12-03T00:00:00	2024-11-08T18:00:00	8	Radiación solar	43
181897	7	Sololá	716	San Marcos la Laguna 	11	San Marcos la laguna 	3	Marzo	2023-12-03T00:00:00	2024-11-08T19:00:00	2	Temperatura media	18.7
181898	7	Sololá	716	San Marcos la Laguna 	11	San Marcos la laguna 	3	Marzo	2023-12-03T00:00:00	2024-11-08T19:00:00	4	Temperatura máxima	18.9
181899	7	Sololá	716	San Marcos la Laguna 	11	San Marcos la laguna 	3	Marzo	2023-12-03T00:00:00	2024-11-08T19:00:00	3	Temperatura mínima	18.7
181900	7	Sololá	716	San Marcos la Laguna 	11	San Marcos la laguna 	3	Marzo	2023-12-03T00:00:00	2024-11-08T19:00:00	5	Humedad	83
181901	7	Sololá	716	San Marcos la Laguna 	11	San Marcos la laguna 	3	Marzo	2023-12-03T00:00:00	2024-11-08T19:00:00	6	Velocidad del viento	0
181902	7	Sololá	716	San Marcos la Laguna 	11	San Marcos la laguna 	3	Marzo	2023-12-03T00:00:00	2024-11-08T19:00:00	7	Dirección del viento	0
181903	7	Sololá	716	San Marcos la Laguna 	11	San Marcos la laguna 	3	Marzo	2023-12-03T00:00:00	2024-11-08T19:00:00	1	Precipitación	0
181904	7	Sololá	716	San Marcos la Laguna 	11	San Marcos la laguna 	3	Marzo	2023-12-03T00:00:00	2024-11-08T19:00:00	8	Radiación solar	0
181905	7	Sololá	716	San Marcos la Laguna 	11	San Marcos la laguna 	3	Marzo	2023-12-03T00:00:00	2024-11-08T20:00:00	2	Temperatura media	18.6
181906	7	Sololá	716	San Marcos la Laguna 	11	San Marcos la laguna 	3	Marzo	2023-12-03T00:00:00	2024-11-08T20:00:00	4	Temperatura máxima	18.7
181907	7	Sololá	716	San Marcos la Laguna 	11	San Marcos la laguna 	3	Marzo	2023-12-03T00:00:00	2024-11-08T20:00:00	3	Temperatura mínima	18.6
181908	7	Sololá	716	San Marcos la Laguna 	11	San Marcos la laguna 	3	Marzo	2023-12-03T00:00:00	2024-11-08T20:00:00	5	Humedad	84
181909	7	Sololá	716	San Marcos la Laguna 	11	San Marcos la laguna 	3	Marzo	2023-12-03T00:00:00	2024-11-08T20:00:00	6	Velocidad del viento	1.6
181910	7	Sololá	716	San Marcos la Laguna 	11	San Marcos la laguna 	3	Marzo	2023-12-03T00:00:00	2024-11-08T20:00:00	7	Dirección del viento	1.61
181911	7	Sololá	716	San Marcos la Laguna 	11	San Marcos la laguna 	3	Marzo	2023-12-03T00:00:00	2024-11-08T20:00:00	1	Precipitación	0
181912	7	Sololá	716	San Marcos la Laguna 	11	San Marcos la laguna 	3	Marzo	2023-12-03T00:00:00	2024-11-08T20:00:00	8	Radiación solar	0
181913	7	Sololá	716	San Marcos la Laguna 	11	San Marcos la laguna 	3	Marzo	2023-12-03T00:00:00	2024-11-08T21:00:00	2	Temperatura media	18.4
181914	7	Sololá	716	San Marcos la Laguna 	11	San Marcos la laguna 	3	Marzo	2023-12-03T00:00:00	2024-11-08T21:00:00	4	Temperatura máxima	18.6
181915	7	Sololá	716	San Marcos la Laguna 	11	San Marcos la laguna 	3	Marzo	2023-12-03T00:00:00	2024-11-08T21:00:00	3	Temperatura mínima	18.4
181916	7	Sololá	716	San Marcos la Laguna 	11	San Marcos la laguna 	3	Marzo	2023-12-03T00:00:00	2024-11-08T21:00:00	5	Humedad	86
181917	7	Sololá	716	San Marcos la Laguna 	11	San Marcos la laguna 	3	Marzo	2023-12-03T00:00:00	2024-11-08T21:00:00	6	Velocidad del viento	0
181918	7	Sololá	716	San Marcos la Laguna 	11	San Marcos la laguna 	3	Marzo	2023-12-03T00:00:00	2024-11-08T21:00:00	7	Dirección del viento	0
181919	7	Sololá	716	San Marcos la Laguna 	11	San Marcos la laguna 	3	Marzo	2023-12-03T00:00:00	2024-11-08T21:00:00	1	Precipitación	0
181920	7	Sololá	716	San Marcos la Laguna 	11	San Marcos la laguna 	3	Marzo	2023-12-03T00:00:00	2024-11-08T21:00:00	8	Radiación solar	0
181921	7	Sololá	716	San Marcos la Laguna 	11	San Marcos la laguna 	3	Marzo	2023-12-03T00:00:00	2024-11-08T22:00:00	2	Temperatura media	18.2
181922	7	Sololá	716	San Marcos la Laguna 	11	San Marcos la laguna 	3	Marzo	2023-12-03T00:00:00	2024-11-08T22:00:00	4	Temperatura máxima	18.4
181923	7	Sololá	716	San Marcos la Laguna 	11	San Marcos la laguna 	3	Marzo	2023-12-03T00:00:00	2024-11-08T22:00:00	3	Temperatura mínima	18.2
181924	7	Sololá	716	San Marcos la Laguna 	11	San Marcos la laguna 	3	Marzo	2023-12-03T00:00:00	2024-11-08T22:00:00	5	Humedad	84
181925	7	Sololá	716	San Marcos la Laguna 	11	San Marcos la laguna 	3	Marzo	2023-12-03T00:00:00	2024-11-08T22:00:00	6	Velocidad del viento	3.2
181926	7	Sololá	716	San Marcos la Laguna 	11	San Marcos la laguna 	3	Marzo	2023-12-03T00:00:00	2024-11-08T22:00:00	7	Dirección del viento	3.22
181927	7	Sololá	716	San Marcos la Laguna 	11	San Marcos la laguna 	3	Marzo	2023-12-03T00:00:00	2024-11-08T22:00:00	1	Precipitación	0
181928	7	Sololá	716	San Marcos la Laguna 	11	San Marcos la laguna 	3	Marzo	2023-12-03T00:00:00	2024-11-08T22:00:00	8	Radiación solar	0
181929	7	Sololá	716	San Marcos la Laguna 	11	San Marcos la laguna 	3	Marzo	2023-12-03T00:00:00	2024-11-08T23:00:00	2	Temperatura media	18.2
181930	7	Sololá	716	San Marcos la Laguna 	11	San Marcos la laguna 	3	Marzo	2023-12-03T00:00:00	2024-11-08T23:00:00	4	Temperatura máxima	18.4
181931	7	Sololá	716	San Marcos la Laguna 	11	San Marcos la laguna 	3	Marzo	2023-12-03T00:00:00	2024-11-08T23:00:00	3	Temperatura mínima	17.9
181932	7	Sololá	716	San Marcos la Laguna 	11	San Marcos la laguna 	3	Marzo	2023-12-03T00:00:00	2024-11-08T23:00:00	5	Humedad	80
181933	7	Sololá	716	San Marcos la Laguna 	11	San Marcos la laguna 	3	Marzo	2023-12-03T00:00:00	2024-11-08T23:00:00	6	Velocidad del viento	6.4
181934	7	Sololá	716	San Marcos la Laguna 	11	San Marcos la laguna 	3	Marzo	2023-12-03T00:00:00	2024-11-08T23:00:00	7	Dirección del viento	6.44
181935	7	Sololá	716	San Marcos la Laguna 	11	San Marcos la laguna 	3	Marzo	2023-12-03T00:00:00	2024-11-08T23:00:00	1	Precipitación	0
181936	7	Sololá	716	San Marcos la Laguna 	11	San Marcos la laguna 	3	Marzo	2023-12-03T00:00:00	2024-11-08T23:00:00	8	Radiación solar	0
181937	7	Sololá	716	San Marcos la Laguna 	11	San Marcos la laguna 	3	Marzo	2023-03-13T00:00:00	2024-11-08T00:00:00	2	Temperatura media	17.6
181938	7	Sololá	716	San Marcos la Laguna 	11	San Marcos la laguna 	3	Marzo	2023-03-13T00:00:00	2024-11-08T00:00:00	4	Temperatura máxima	18.2
181939	7	Sololá	716	San Marcos la Laguna 	11	San Marcos la laguna 	3	Marzo	2023-03-13T00:00:00	2024-11-08T00:00:00	3	Temperatura mínima	17.5
181940	7	Sololá	716	San Marcos la Laguna 	11	San Marcos la laguna 	3	Marzo	2023-03-13T00:00:00	2024-11-08T00:00:00	5	Humedad	84
181941	7	Sololá	716	San Marcos la Laguna 	11	San Marcos la laguna 	3	Marzo	2023-03-13T00:00:00	2024-11-08T00:00:00	6	Velocidad del viento	4.8
181942	7	Sololá	716	San Marcos la Laguna 	11	San Marcos la laguna 	3	Marzo	2023-03-13T00:00:00	2024-11-08T00:00:00	7	Dirección del viento	4.83
181943	7	Sololá	716	San Marcos la Laguna 	11	San Marcos la laguna 	3	Marzo	2023-03-13T00:00:00	2024-11-08T00:00:00	1	Precipitación	0
181944	7	Sololá	716	San Marcos la Laguna 	11	San Marcos la laguna 	3	Marzo	2023-03-13T00:00:00	2024-11-08T00:00:00	8	Radiación solar	0
181945	7	Sololá	716	San Marcos la Laguna 	11	San Marcos la laguna 	3	Marzo	2023-03-13T00:00:00	2024-11-08T01:00:00	2	Temperatura media	17.1
181946	7	Sololá	716	San Marcos la Laguna 	11	San Marcos la laguna 	3	Marzo	2023-03-13T00:00:00	2024-11-08T01:00:00	4	Temperatura máxima	17.6
181947	7	Sololá	716	San Marcos la Laguna 	11	San Marcos la laguna 	3	Marzo	2023-03-13T00:00:00	2024-11-08T01:00:00	3	Temperatura mínima	17.1
181948	7	Sololá	716	San Marcos la Laguna 	11	San Marcos la laguna 	3	Marzo	2023-03-13T00:00:00	2024-11-08T01:00:00	5	Humedad	87
181949	7	Sololá	716	San Marcos la Laguna 	11	San Marcos la laguna 	3	Marzo	2023-03-13T00:00:00	2024-11-08T01:00:00	6	Velocidad del viento	3.2
181950	7	Sololá	716	San Marcos la Laguna 	11	San Marcos la laguna 	3	Marzo	2023-03-13T00:00:00	2024-11-08T01:00:00	7	Dirección del viento	3.22
181951	7	Sololá	716	San Marcos la Laguna 	11	San Marcos la laguna 	3	Marzo	2023-03-13T00:00:00	2024-11-08T01:00:00	1	Precipitación	0
181952	7	Sololá	716	San Marcos la Laguna 	11	San Marcos la laguna 	3	Marzo	2023-03-13T00:00:00	2024-11-08T01:00:00	8	Radiación solar	0
181953	7	Sololá	716	San Marcos la Laguna 	11	San Marcos la laguna 	3	Marzo	2023-03-13T00:00:00	2024-11-08T02:00:00	2	Temperatura media	16.3
181954	7	Sololá	716	San Marcos la Laguna 	11	San Marcos la laguna 	3	Marzo	2023-03-13T00:00:00	2024-11-08T02:00:00	4	Temperatura máxima	17.1
181955	7	Sololá	716	San Marcos la Laguna 	11	San Marcos la laguna 	3	Marzo	2023-03-13T00:00:00	2024-11-08T02:00:00	3	Temperatura mínima	16.3
181956	7	Sololá	716	San Marcos la Laguna 	11	San Marcos la laguna 	3	Marzo	2023-03-13T00:00:00	2024-11-08T02:00:00	5	Humedad	87
181957	7	Sololá	716	San Marcos la Laguna 	11	San Marcos la laguna 	3	Marzo	2023-03-13T00:00:00	2024-11-08T02:00:00	6	Velocidad del viento	3.2
181958	7	Sololá	716	San Marcos la Laguna 	11	San Marcos la laguna 	3	Marzo	2023-03-13T00:00:00	2024-11-08T02:00:00	7	Dirección del viento	3.22
181959	7	Sololá	716	San Marcos la Laguna 	11	San Marcos la laguna 	3	Marzo	2023-03-13T00:00:00	2024-11-08T02:00:00	1	Precipitación	0
181960	7	Sololá	716	San Marcos la Laguna 	11	San Marcos la laguna 	3	Marzo	2023-03-13T00:00:00	2024-11-08T02:00:00	8	Radiación solar	0
181961	7	Sololá	716	San Marcos la Laguna 	11	San Marcos la laguna 	3	Marzo	2023-03-13T00:00:00	2024-11-08T03:00:00	2	Temperatura media	15.4
181962	7	Sololá	716	San Marcos la Laguna 	11	San Marcos la laguna 	3	Marzo	2023-03-13T00:00:00	2024-11-08T03:00:00	4	Temperatura máxima	16.3
181963	7	Sololá	716	San Marcos la Laguna 	11	San Marcos la laguna 	3	Marzo	2023-03-13T00:00:00	2024-11-08T03:00:00	3	Temperatura mínima	15.4
181964	7	Sololá	716	San Marcos la Laguna 	11	San Marcos la laguna 	3	Marzo	2023-03-13T00:00:00	2024-11-08T03:00:00	5	Humedad	88
181965	7	Sololá	716	San Marcos la Laguna 	11	San Marcos la laguna 	3	Marzo	2023-03-13T00:00:00	2024-11-08T03:00:00	6	Velocidad del viento	4.8
181966	7	Sololá	716	San Marcos la Laguna 	11	San Marcos la laguna 	3	Marzo	2023-03-13T00:00:00	2024-11-08T03:00:00	7	Dirección del viento	4.83
181967	7	Sololá	716	San Marcos la Laguna 	11	San Marcos la laguna 	3	Marzo	2023-03-13T00:00:00	2024-11-08T03:00:00	1	Precipitación	0
181968	7	Sololá	716	San Marcos la Laguna 	11	San Marcos la laguna 	3	Marzo	2023-03-13T00:00:00	2024-11-08T03:00:00	8	Radiación solar	0
181969	7	Sololá	716	San Marcos la Laguna 	11	San Marcos la laguna 	3	Marzo	2023-03-13T00:00:00	2024-11-08T04:00:00	2	Temperatura media	14.9
181970	7	Sololá	716	San Marcos la Laguna 	11	San Marcos la laguna 	3	Marzo	2023-03-13T00:00:00	2024-11-08T04:00:00	4	Temperatura máxima	15.4
181971	7	Sololá	716	San Marcos la Laguna 	11	San Marcos la laguna 	3	Marzo	2023-03-13T00:00:00	2024-11-08T04:00:00	3	Temperatura mínima	14.8
181972	7	Sololá	716	San Marcos la Laguna 	11	San Marcos la laguna 	3	Marzo	2023-03-13T00:00:00	2024-11-08T04:00:00	5	Humedad	89
181973	7	Sololá	716	San Marcos la Laguna 	11	San Marcos la laguna 	3	Marzo	2023-03-13T00:00:00	2024-11-08T04:00:00	6	Velocidad del viento	6.4
181974	7	Sololá	716	San Marcos la Laguna 	11	San Marcos la laguna 	3	Marzo	2023-03-13T00:00:00	2024-11-08T04:00:00	7	Dirección del viento	6.44
181975	7	Sololá	716	San Marcos la Laguna 	11	San Marcos la laguna 	3	Marzo	2023-03-13T00:00:00	2024-11-08T04:00:00	1	Precipitación	0
181976	7	Sololá	716	San Marcos la Laguna 	11	San Marcos la laguna 	3	Marzo	2023-03-13T00:00:00	2024-11-08T04:00:00	8	Radiación solar	0
181977	7	Sololá	716	San Marcos la Laguna 	11	San Marcos la laguna 	3	Marzo	2023-03-13T00:00:00	2024-11-08T05:00:00	2	Temperatura media	14.5
181978	7	Sololá	716	San Marcos la Laguna 	11	San Marcos la laguna 	3	Marzo	2023-03-13T00:00:00	2024-11-08T05:00:00	4	Temperatura máxima	14.9
181979	7	Sololá	716	San Marcos la Laguna 	11	San Marcos la laguna 	3	Marzo	2023-03-13T00:00:00	2024-11-08T05:00:00	3	Temperatura mínima	14.4
181980	7	Sololá	716	San Marcos la Laguna 	11	San Marcos la laguna 	3	Marzo	2023-03-13T00:00:00	2024-11-08T05:00:00	5	Humedad	90
181981	7	Sololá	716	San Marcos la Laguna 	11	San Marcos la laguna 	3	Marzo	2023-03-13T00:00:00	2024-11-08T05:00:00	6	Velocidad del viento	6.4
181982	7	Sololá	716	San Marcos la Laguna 	11	San Marcos la laguna 	3	Marzo	2023-03-13T00:00:00	2024-11-08T05:00:00	7	Dirección del viento	6.44
181983	7	Sololá	716	San Marcos la Laguna 	11	San Marcos la laguna 	3	Marzo	2023-03-13T00:00:00	2024-11-08T05:00:00	1	Precipitación	0
181984	7	Sololá	716	San Marcos la Laguna 	11	San Marcos la laguna 	3	Marzo	2023-03-13T00:00:00	2024-11-08T05:00:00	8	Radiación solar	0
181985	7	Sololá	716	San Marcos la Laguna 	11	San Marcos la laguna 	3	Marzo	2023-03-13T00:00:00	2024-11-08T06:00:00	2	Temperatura media	14.2
181986	7	Sololá	716	San Marcos la Laguna 	11	San Marcos la laguna 	3	Marzo	2023-03-13T00:00:00	2024-11-08T06:00:00	4	Temperatura máxima	14.7
181987	7	Sololá	716	San Marcos la Laguna 	11	San Marcos la laguna 	3	Marzo	2023-03-13T00:00:00	2024-11-08T06:00:00	3	Temperatura mínima	14.2
181988	7	Sololá	716	San Marcos la Laguna 	11	San Marcos la laguna 	3	Marzo	2023-03-13T00:00:00	2024-11-08T06:00:00	5	Humedad	90
181989	7	Sololá	716	San Marcos la Laguna 	11	San Marcos la laguna 	3	Marzo	2023-03-13T00:00:00	2024-11-08T06:00:00	6	Velocidad del viento	6.4
181990	7	Sololá	716	San Marcos la Laguna 	11	San Marcos la laguna 	3	Marzo	2023-03-13T00:00:00	2024-11-08T06:00:00	7	Dirección del viento	6.44
181991	7	Sololá	716	San Marcos la Laguna 	11	San Marcos la laguna 	3	Marzo	2023-03-13T00:00:00	2024-11-08T06:00:00	1	Precipitación	0
181992	7	Sololá	716	San Marcos la Laguna 	11	San Marcos la laguna 	3	Marzo	2023-03-13T00:00:00	2024-11-08T06:00:00	8	Radiación solar	0
181993	7	Sololá	716	San Marcos la Laguna 	11	San Marcos la laguna 	3	Marzo	2023-03-13T00:00:00	2024-11-08T07:00:00	2	Temperatura media	15.2
181994	7	Sololá	716	San Marcos la Laguna 	11	San Marcos la laguna 	3	Marzo	2023-03-13T00:00:00	2024-11-08T07:00:00	4	Temperatura máxima	15.2
181995	7	Sololá	716	San Marcos la Laguna 	11	San Marcos la laguna 	3	Marzo	2023-03-13T00:00:00	2024-11-08T07:00:00	3	Temperatura mínima	14.2
181996	7	Sololá	716	San Marcos la Laguna 	11	San Marcos la laguna 	3	Marzo	2023-03-13T00:00:00	2024-11-08T07:00:00	5	Humedad	88
181997	7	Sololá	716	San Marcos la Laguna 	11	San Marcos la laguna 	3	Marzo	2023-03-13T00:00:00	2024-11-08T07:00:00	6	Velocidad del viento	6.4
181998	7	Sololá	716	San Marcos la Laguna 	11	San Marcos la laguna 	3	Marzo	2023-03-13T00:00:00	2024-11-08T07:00:00	7	Dirección del viento	6.44
181999	7	Sololá	716	San Marcos la Laguna 	11	San Marcos la laguna 	3	Marzo	2023-03-13T00:00:00	2024-11-08T07:00:00	1	Precipitación	0
182000	7	Sololá	716	San Marcos la Laguna 	11	San Marcos la laguna 	3	Marzo	2023-03-13T00:00:00	2024-11-08T07:00:00	8	Radiación solar	18
182001	7	Sololá	716	San Marcos la Laguna 	11	San Marcos la laguna 	3	Marzo	2023-03-13T00:00:00	2024-11-08T08:00:00	2	Temperatura media	18.5
182002	7	Sololá	716	San Marcos la Laguna 	11	San Marcos la laguna 	3	Marzo	2023-03-13T00:00:00	2024-11-08T08:00:00	4	Temperatura máxima	18.5
182003	7	Sololá	716	San Marcos la Laguna 	11	San Marcos la laguna 	3	Marzo	2023-03-13T00:00:00	2024-11-08T08:00:00	3	Temperatura mínima	15.2
182004	7	Sololá	716	San Marcos la Laguna 	11	San Marcos la laguna 	3	Marzo	2023-03-13T00:00:00	2024-11-08T08:00:00	5	Humedad	80
182005	7	Sololá	716	San Marcos la Laguna 	11	San Marcos la laguna 	3	Marzo	2023-03-13T00:00:00	2024-11-08T08:00:00	6	Velocidad del viento	3.2
182006	7	Sololá	716	San Marcos la Laguna 	11	San Marcos la laguna 	3	Marzo	2023-03-13T00:00:00	2024-11-08T08:00:00	7	Dirección del viento	3.22
182007	7	Sololá	716	San Marcos la Laguna 	11	San Marcos la laguna 	3	Marzo	2023-03-13T00:00:00	2024-11-08T08:00:00	1	Precipitación	0
182008	7	Sololá	716	San Marcos la Laguna 	11	San Marcos la laguna 	3	Marzo	2023-03-13T00:00:00	2024-11-08T08:00:00	8	Radiación solar	203
182009	7	Sololá	716	San Marcos la Laguna 	11	San Marcos la laguna 	3	Marzo	2023-03-13T00:00:00	2024-11-08T09:00:00	2	Temperatura media	19.2
182010	7	Sololá	716	San Marcos la Laguna 	11	San Marcos la laguna 	3	Marzo	2023-03-13T00:00:00	2024-11-08T09:00:00	4	Temperatura máxima	19.4
182011	7	Sololá	716	San Marcos la Laguna 	11	San Marcos la laguna 	3	Marzo	2023-03-13T00:00:00	2024-11-08T09:00:00	3	Temperatura mínima	18.5
182012	7	Sololá	716	San Marcos la Laguna 	11	San Marcos la laguna 	3	Marzo	2023-03-13T00:00:00	2024-11-08T09:00:00	5	Humedad	78
182013	7	Sololá	716	San Marcos la Laguna 	11	San Marcos la laguna 	3	Marzo	2023-03-13T00:00:00	2024-11-08T09:00:00	6	Velocidad del viento	3.2
182014	7	Sololá	716	San Marcos la Laguna 	11	San Marcos la laguna 	3	Marzo	2023-03-13T00:00:00	2024-11-08T09:00:00	7	Dirección del viento	3.22
182015	7	Sololá	716	San Marcos la Laguna 	11	San Marcos la laguna 	3	Marzo	2023-03-13T00:00:00	2024-11-08T09:00:00	1	Precipitación	0
182016	7	Sololá	716	San Marcos la Laguna 	11	San Marcos la laguna 	3	Marzo	2023-03-13T00:00:00	2024-11-08T09:00:00	8	Radiación solar	440
182017	7	Sololá	716	San Marcos la Laguna 	11	San Marcos la laguna 	3	Marzo	2023-03-13T00:00:00	2024-11-08T10:00:00	2	Temperatura media	19.9
182018	7	Sololá	716	San Marcos la Laguna 	11	San Marcos la laguna 	3	Marzo	2023-03-13T00:00:00	2024-11-08T10:00:00	4	Temperatura máxima	19.9
182019	7	Sololá	716	San Marcos la Laguna 	11	San Marcos la laguna 	3	Marzo	2023-03-13T00:00:00	2024-11-08T10:00:00	3	Temperatura mínima	19.2
182020	7	Sololá	716	San Marcos la Laguna 	11	San Marcos la laguna 	3	Marzo	2023-03-13T00:00:00	2024-11-08T10:00:00	5	Humedad	77
182021	7	Sololá	716	San Marcos la Laguna 	11	San Marcos la laguna 	3	Marzo	2023-03-13T00:00:00	2024-11-08T10:00:00	6	Velocidad del viento	6.4
182022	7	Sololá	716	San Marcos la Laguna 	11	San Marcos la laguna 	3	Marzo	2023-03-13T00:00:00	2024-11-08T10:00:00	7	Dirección del viento	6.44
182023	7	Sololá	716	San Marcos la Laguna 	11	San Marcos la laguna 	3	Marzo	2023-03-13T00:00:00	2024-11-08T10:00:00	1	Precipitación	0
182024	7	Sololá	716	San Marcos la Laguna 	11	San Marcos la laguna 	3	Marzo	2023-03-13T00:00:00	2024-11-08T10:00:00	8	Radiación solar	652
182025	7	Sololá	716	San Marcos la Laguna 	11	San Marcos la laguna 	3	Marzo	2023-03-13T00:00:00	2024-11-08T11:00:00	2	Temperatura media	21.3
182026	7	Sololá	716	San Marcos la Laguna 	11	San Marcos la laguna 	3	Marzo	2023-03-13T00:00:00	2024-11-08T11:00:00	4	Temperatura máxima	21.3
182027	7	Sololá	716	San Marcos la Laguna 	11	San Marcos la laguna 	3	Marzo	2023-03-13T00:00:00	2024-11-08T11:00:00	3	Temperatura mínima	19.9
182028	7	Sololá	716	San Marcos la Laguna 	11	San Marcos la laguna 	3	Marzo	2023-03-13T00:00:00	2024-11-08T11:00:00	5	Humedad	76
182029	7	Sololá	716	San Marcos la Laguna 	11	San Marcos la laguna 	3	Marzo	2023-03-13T00:00:00	2024-11-08T11:00:00	6	Velocidad del viento	8
182030	7	Sololá	716	San Marcos la Laguna 	11	San Marcos la laguna 	3	Marzo	2023-03-13T00:00:00	2024-11-08T11:00:00	7	Dirección del viento	8.05
182031	7	Sololá	716	San Marcos la Laguna 	11	San Marcos la laguna 	3	Marzo	2023-03-13T00:00:00	2024-11-08T11:00:00	1	Precipitación	0
182032	7	Sololá	716	San Marcos la Laguna 	11	San Marcos la laguna 	3	Marzo	2023-03-13T00:00:00	2024-11-08T11:00:00	8	Radiación solar	823
182033	7	Sololá	716	San Marcos la Laguna 	11	San Marcos la laguna 	3	Marzo	2023-03-13T00:00:00	2024-11-08T12:00:00	2	Temperatura media	21.6
182034	7	Sololá	716	San Marcos la Laguna 	11	San Marcos la laguna 	3	Marzo	2023-03-13T00:00:00	2024-11-08T12:00:00	4	Temperatura máxima	21.7
182035	7	Sololá	716	San Marcos la Laguna 	11	San Marcos la laguna 	3	Marzo	2023-03-13T00:00:00	2024-11-08T12:00:00	3	Temperatura mínima	20.9
182036	7	Sololá	716	San Marcos la Laguna 	11	San Marcos la laguna 	3	Marzo	2023-03-13T00:00:00	2024-11-08T12:00:00	5	Humedad	74
182037	7	Sololá	716	San Marcos la Laguna 	11	San Marcos la laguna 	3	Marzo	2023-03-13T00:00:00	2024-11-08T12:00:00	6	Velocidad del viento	11.3
182038	7	Sololá	716	San Marcos la Laguna 	11	San Marcos la laguna 	3	Marzo	2023-03-13T00:00:00	2024-11-08T12:00:00	7	Dirección del viento	11.27
182039	7	Sololá	716	San Marcos la Laguna 	11	San Marcos la laguna 	3	Marzo	2023-03-13T00:00:00	2024-11-08T12:00:00	1	Precipitación	0
182040	7	Sololá	716	San Marcos la Laguna 	11	San Marcos la laguna 	3	Marzo	2023-03-13T00:00:00	2024-11-08T12:00:00	8	Radiación solar	925
182041	7	Sololá	716	San Marcos la Laguna 	11	San Marcos la laguna 	3	Marzo	2023-03-13T00:00:00	2024-11-08T13:00:00	2	Temperatura media	22.2
182042	7	Sololá	716	San Marcos la Laguna 	11	San Marcos la laguna 	3	Marzo	2023-03-13T00:00:00	2024-11-08T13:00:00	4	Temperatura máxima	22.2
182043	7	Sololá	716	San Marcos la Laguna 	11	San Marcos la laguna 	3	Marzo	2023-03-13T00:00:00	2024-11-08T13:00:00	3	Temperatura mínima	21
182044	7	Sololá	716	San Marcos la Laguna 	11	San Marcos la laguna 	3	Marzo	2023-03-13T00:00:00	2024-11-08T13:00:00	5	Humedad	73
182045	7	Sololá	716	San Marcos la Laguna 	11	San Marcos la laguna 	3	Marzo	2023-03-13T00:00:00	2024-11-08T13:00:00	6	Velocidad del viento	12.9
182046	7	Sololá	716	San Marcos la Laguna 	11	San Marcos la laguna 	3	Marzo	2023-03-13T00:00:00	2024-11-08T13:00:00	7	Dirección del viento	12.87
182047	7	Sololá	716	San Marcos la Laguna 	11	San Marcos la laguna 	3	Marzo	2023-03-13T00:00:00	2024-11-08T13:00:00	1	Precipitación	0
182048	7	Sololá	716	San Marcos la Laguna 	11	San Marcos la laguna 	3	Marzo	2023-03-13T00:00:00	2024-11-08T13:00:00	8	Radiación solar	986
182049	7	Sololá	716	San Marcos la Laguna 	11	San Marcos la laguna 	3	Marzo	2023-03-13T00:00:00	2024-11-08T14:00:00	2	Temperatura media	21.7
182050	7	Sololá	716	San Marcos la Laguna 	11	San Marcos la laguna 	3	Marzo	2023-03-13T00:00:00	2024-11-08T14:00:00	4	Temperatura máxima	22.2
182051	7	Sololá	716	San Marcos la Laguna 	11	San Marcos la laguna 	3	Marzo	2023-03-13T00:00:00	2024-11-08T14:00:00	3	Temperatura mínima	20.9
182052	7	Sololá	716	San Marcos la Laguna 	11	San Marcos la laguna 	3	Marzo	2023-03-13T00:00:00	2024-11-08T14:00:00	5	Humedad	73
182053	7	Sololá	716	San Marcos la Laguna 	11	San Marcos la laguna 	3	Marzo	2023-03-13T00:00:00	2024-11-08T14:00:00	6	Velocidad del viento	11.3
182054	7	Sololá	716	San Marcos la Laguna 	11	San Marcos la laguna 	3	Marzo	2023-03-13T00:00:00	2024-11-08T14:00:00	7	Dirección del viento	11.27
182055	7	Sololá	716	San Marcos la Laguna 	11	San Marcos la laguna 	3	Marzo	2023-03-13T00:00:00	2024-11-08T14:00:00	1	Precipitación	0
182056	7	Sololá	716	San Marcos la Laguna 	11	San Marcos la laguna 	3	Marzo	2023-03-13T00:00:00	2024-11-08T14:00:00	8	Radiación solar	920
182057	7	Sololá	716	San Marcos la Laguna 	11	San Marcos la laguna 	3	Marzo	2023-03-13T00:00:00	2024-11-08T15:00:00	2	Temperatura media	21.3
182058	7	Sololá	716	San Marcos la Laguna 	11	San Marcos la laguna 	3	Marzo	2023-03-13T00:00:00	2024-11-08T15:00:00	4	Temperatura máxima	21.7
182059	7	Sololá	716	San Marcos la Laguna 	11	San Marcos la laguna 	3	Marzo	2023-03-13T00:00:00	2024-11-08T15:00:00	3	Temperatura mínima	21.2
182060	7	Sololá	716	San Marcos la Laguna 	11	San Marcos la laguna 	3	Marzo	2023-03-13T00:00:00	2024-11-08T15:00:00	5	Humedad	74
182061	7	Sololá	716	San Marcos la Laguna 	11	San Marcos la laguna 	3	Marzo	2023-03-13T00:00:00	2024-11-08T15:00:00	6	Velocidad del viento	6.4
182062	7	Sololá	716	San Marcos la Laguna 	11	San Marcos la laguna 	3	Marzo	2023-03-13T00:00:00	2024-11-08T15:00:00	7	Dirección del viento	6.44
182063	7	Sololá	716	San Marcos la Laguna 	11	San Marcos la laguna 	3	Marzo	2023-03-13T00:00:00	2024-11-08T15:00:00	1	Precipitación	0
182064	7	Sololá	716	San Marcos la Laguna 	11	San Marcos la laguna 	3	Marzo	2023-03-13T00:00:00	2024-11-08T15:00:00	8	Radiación solar	775
182065	7	Sololá	716	San Marcos la Laguna 	11	San Marcos la laguna 	3	Marzo	2023-03-13T00:00:00	2024-11-08T16:00:00	2	Temperatura media	20.2
182066	7	Sololá	716	San Marcos la Laguna 	11	San Marcos la laguna 	3	Marzo	2023-03-13T00:00:00	2024-11-08T16:00:00	4	Temperatura máxima	21.3
182067	7	Sololá	716	San Marcos la Laguna 	11	San Marcos la laguna 	3	Marzo	2023-03-13T00:00:00	2024-11-08T16:00:00	3	Temperatura mínima	20.1
182068	7	Sololá	716	San Marcos la Laguna 	11	San Marcos la laguna 	3	Marzo	2023-03-13T00:00:00	2024-11-08T16:00:00	5	Humedad	83
182069	7	Sololá	716	San Marcos la Laguna 	11	San Marcos la laguna 	3	Marzo	2023-03-13T00:00:00	2024-11-08T16:00:00	6	Velocidad del viento	8
182070	7	Sololá	716	San Marcos la Laguna 	11	San Marcos la laguna 	3	Marzo	2023-03-13T00:00:00	2024-11-08T16:00:00	7	Dirección del viento	8.05
182071	7	Sololá	716	San Marcos la Laguna 	11	San Marcos la laguna 	3	Marzo	2023-03-13T00:00:00	2024-11-08T16:00:00	1	Precipitación	0
182072	7	Sololá	716	San Marcos la Laguna 	11	San Marcos la laguna 	3	Marzo	2023-03-13T00:00:00	2024-11-08T16:00:00	8	Radiación solar	596
182073	7	Sololá	716	San Marcos la Laguna 	11	San Marcos la laguna 	3	Marzo	2023-03-13T00:00:00	2024-11-08T17:00:00	2	Temperatura media	20
182074	7	Sololá	716	San Marcos la Laguna 	11	San Marcos la laguna 	3	Marzo	2023-03-13T00:00:00	2024-11-08T17:00:00	4	Temperatura máxima	20.4
182075	7	Sololá	716	San Marcos la Laguna 	11	San Marcos la laguna 	3	Marzo	2023-03-13T00:00:00	2024-11-08T17:00:00	3	Temperatura mínima	20
182076	7	Sololá	716	San Marcos la Laguna 	11	San Marcos la laguna 	3	Marzo	2023-03-13T00:00:00	2024-11-08T17:00:00	5	Humedad	82
182077	7	Sololá	716	San Marcos la Laguna 	11	San Marcos la laguna 	3	Marzo	2023-03-13T00:00:00	2024-11-08T17:00:00	6	Velocidad del viento	8
182078	7	Sololá	716	San Marcos la Laguna 	11	San Marcos la laguna 	3	Marzo	2023-03-13T00:00:00	2024-11-08T17:00:00	7	Dirección del viento	8.05
182079	7	Sololá	716	San Marcos la Laguna 	11	San Marcos la laguna 	3	Marzo	2023-03-13T00:00:00	2024-11-08T17:00:00	1	Precipitación	0
182080	7	Sololá	716	San Marcos la Laguna 	11	San Marcos la laguna 	3	Marzo	2023-03-13T00:00:00	2024-11-08T17:00:00	8	Radiación solar	356
182081	7	Sololá	716	San Marcos la Laguna 	11	San Marcos la laguna 	3	Marzo	2023-03-13T00:00:00	2024-11-08T18:00:00	2	Temperatura media	19.6
182082	7	Sololá	716	San Marcos la Laguna 	11	San Marcos la laguna 	3	Marzo	2023-03-13T00:00:00	2024-11-08T18:00:00	4	Temperatura máxima	20
182083	7	Sololá	716	San Marcos la Laguna 	11	San Marcos la laguna 	3	Marzo	2023-03-13T00:00:00	2024-11-08T18:00:00	3	Temperatura mínima	19.6
182084	7	Sololá	716	San Marcos la Laguna 	11	San Marcos la laguna 	3	Marzo	2023-03-13T00:00:00	2024-11-08T18:00:00	5	Humedad	85
182085	7	Sololá	716	San Marcos la Laguna 	11	San Marcos la laguna 	3	Marzo	2023-03-13T00:00:00	2024-11-08T18:00:00	6	Velocidad del viento	9.7
182086	7	Sololá	716	San Marcos la Laguna 	11	San Marcos la laguna 	3	Marzo	2023-03-13T00:00:00	2024-11-08T18:00:00	7	Dirección del viento	9.66
182087	7	Sololá	716	San Marcos la Laguna 	11	San Marcos la laguna 	3	Marzo	2023-03-13T00:00:00	2024-11-08T18:00:00	1	Precipitación	0
182088	7	Sololá	716	San Marcos la Laguna 	11	San Marcos la laguna 	3	Marzo	2023-03-13T00:00:00	2024-11-08T18:00:00	8	Radiación solar	93
182089	7	Sololá	716	San Marcos la Laguna 	11	San Marcos la laguna 	3	Marzo	2023-03-13T00:00:00	2024-11-08T19:00:00	2	Temperatura media	19.6
182090	7	Sololá	716	San Marcos la Laguna 	11	San Marcos la laguna 	3	Marzo	2023-03-13T00:00:00	2024-11-08T19:00:00	4	Temperatura máxima	19.7
182091	7	Sololá	716	San Marcos la Laguna 	11	San Marcos la laguna 	3	Marzo	2023-03-13T00:00:00	2024-11-08T19:00:00	3	Temperatura mínima	19.6
182092	7	Sololá	716	San Marcos la Laguna 	11	San Marcos la laguna 	3	Marzo	2023-03-13T00:00:00	2024-11-08T19:00:00	5	Humedad	85
182093	7	Sololá	716	San Marcos la Laguna 	11	San Marcos la laguna 	3	Marzo	2023-03-13T00:00:00	2024-11-08T19:00:00	6	Velocidad del viento	6.4
182094	7	Sololá	716	San Marcos la Laguna 	11	San Marcos la laguna 	3	Marzo	2023-03-13T00:00:00	2024-11-08T19:00:00	7	Dirección del viento	6.44
182095	7	Sololá	716	San Marcos la Laguna 	11	San Marcos la laguna 	3	Marzo	2023-03-13T00:00:00	2024-11-08T19:00:00	1	Precipitación	0
182096	7	Sololá	716	San Marcos la Laguna 	11	San Marcos la laguna 	3	Marzo	2023-03-13T00:00:00	2024-11-08T19:00:00	8	Radiación solar	0
182097	7	Sololá	716	San Marcos la Laguna 	11	San Marcos la laguna 	3	Marzo	2023-03-13T00:00:00	2024-11-08T20:00:00	2	Temperatura media	19.5
182098	7	Sololá	716	San Marcos la Laguna 	11	San Marcos la laguna 	3	Marzo	2023-03-13T00:00:00	2024-11-08T20:00:00	4	Temperatura máxima	19.6
182099	7	Sololá	716	San Marcos la Laguna 	11	San Marcos la laguna 	3	Marzo	2023-03-13T00:00:00	2024-11-08T20:00:00	3	Temperatura mínima	19.4
182100	7	Sololá	716	San Marcos la Laguna 	11	San Marcos la laguna 	3	Marzo	2023-03-13T00:00:00	2024-11-08T20:00:00	5	Humedad	89
182101	7	Sololá	716	San Marcos la Laguna 	11	San Marcos la laguna 	3	Marzo	2023-03-13T00:00:00	2024-11-08T20:00:00	6	Velocidad del viento	6.4
182102	7	Sololá	716	San Marcos la Laguna 	11	San Marcos la laguna 	3	Marzo	2023-03-13T00:00:00	2024-11-08T20:00:00	7	Dirección del viento	6.44
182103	7	Sololá	716	San Marcos la Laguna 	11	San Marcos la laguna 	3	Marzo	2023-03-13T00:00:00	2024-11-08T20:00:00	1	Precipitación	0
182104	7	Sololá	716	San Marcos la Laguna 	11	San Marcos la laguna 	3	Marzo	2023-03-13T00:00:00	2024-11-08T20:00:00	8	Radiación solar	0
182105	7	Sololá	716	San Marcos la Laguna 	11	San Marcos la laguna 	3	Marzo	2023-03-13T00:00:00	2024-11-08T21:00:00	2	Temperatura media	19.2
182106	7	Sololá	716	San Marcos la Laguna 	11	San Marcos la laguna 	3	Marzo	2023-03-13T00:00:00	2024-11-08T21:00:00	4	Temperatura máxima	19.6
182107	7	Sololá	716	San Marcos la Laguna 	11	San Marcos la laguna 	3	Marzo	2023-03-13T00:00:00	2024-11-08T21:00:00	3	Temperatura mínima	19.2
182108	7	Sololá	716	San Marcos la Laguna 	11	San Marcos la laguna 	3	Marzo	2023-03-13T00:00:00	2024-11-08T21:00:00	5	Humedad	89
182109	7	Sololá	716	San Marcos la Laguna 	11	San Marcos la laguna 	3	Marzo	2023-03-13T00:00:00	2024-11-08T21:00:00	6	Velocidad del viento	4.8
182110	7	Sololá	716	San Marcos la Laguna 	11	San Marcos la laguna 	3	Marzo	2023-03-13T00:00:00	2024-11-08T21:00:00	7	Dirección del viento	4.83
182111	7	Sololá	716	San Marcos la Laguna 	11	San Marcos la laguna 	3	Marzo	2023-03-13T00:00:00	2024-11-08T21:00:00	1	Precipitación	0
182112	7	Sololá	716	San Marcos la Laguna 	11	San Marcos la laguna 	3	Marzo	2023-03-13T00:00:00	2024-11-08T21:00:00	8	Radiación solar	0
182113	7	Sololá	716	San Marcos la Laguna 	11	San Marcos la laguna 	3	Marzo	2023-03-13T00:00:00	2024-11-08T22:00:00	2	Temperatura media	18.4
182114	7	Sololá	716	San Marcos la Laguna 	11	San Marcos la laguna 	3	Marzo	2023-03-13T00:00:00	2024-11-08T22:00:00	4	Temperatura máxima	19.2
182115	7	Sololá	716	San Marcos la Laguna 	11	San Marcos la laguna 	3	Marzo	2023-03-13T00:00:00	2024-11-08T22:00:00	3	Temperatura mínima	18.3
182116	7	Sololá	716	San Marcos la Laguna 	11	San Marcos la laguna 	3	Marzo	2023-03-13T00:00:00	2024-11-08T22:00:00	5	Humedad	90
182117	7	Sololá	716	San Marcos la Laguna 	11	San Marcos la laguna 	3	Marzo	2023-03-13T00:00:00	2024-11-08T22:00:00	6	Velocidad del viento	3.2
182118	7	Sololá	716	San Marcos la Laguna 	11	San Marcos la laguna 	3	Marzo	2023-03-13T00:00:00	2024-11-08T22:00:00	7	Dirección del viento	3.22
182119	7	Sololá	716	San Marcos la Laguna 	11	San Marcos la laguna 	3	Marzo	2023-03-13T00:00:00	2024-11-08T22:00:00	1	Precipitación	0
182120	7	Sololá	716	San Marcos la Laguna 	11	San Marcos la laguna 	3	Marzo	2023-03-13T00:00:00	2024-11-08T22:00:00	8	Radiación solar	0
182121	7	Sololá	716	San Marcos la Laguna 	11	San Marcos la laguna 	3	Marzo	2023-03-13T00:00:00	2024-11-08T23:00:00	2	Temperatura media	17.8
182122	7	Sololá	716	San Marcos la Laguna 	11	San Marcos la laguna 	3	Marzo	2023-03-13T00:00:00	2024-11-08T23:00:00	4	Temperatura máxima	18.4
182123	7	Sololá	716	San Marcos la Laguna 	11	San Marcos la laguna 	3	Marzo	2023-03-13T00:00:00	2024-11-08T23:00:00	3	Temperatura mínima	17.8
182124	7	Sololá	716	San Marcos la Laguna 	11	San Marcos la laguna 	3	Marzo	2023-03-13T00:00:00	2024-11-08T23:00:00	5	Humedad	91
182125	7	Sololá	716	San Marcos la Laguna 	11	San Marcos la laguna 	3	Marzo	2023-03-13T00:00:00	2024-11-08T23:00:00	6	Velocidad del viento	3.2
182126	7	Sololá	716	San Marcos la Laguna 	11	San Marcos la laguna 	3	Marzo	2023-03-13T00:00:00	2024-11-08T23:00:00	7	Dirección del viento	3.22
182127	7	Sololá	716	San Marcos la Laguna 	11	San Marcos la laguna 	3	Marzo	2023-03-13T00:00:00	2024-11-08T23:00:00	1	Precipitación	0
182128	7	Sololá	716	San Marcos la Laguna 	11	San Marcos la laguna 	3	Marzo	2023-03-13T00:00:00	2024-11-08T23:00:00	8	Radiación solar	0
182129	7	Sololá	716	San Marcos la Laguna 	11	San Marcos la laguna 	3	Marzo	2023-03-14T00:00:00	2024-11-08T00:00:00	2	Temperatura media	16.6
182130	7	Sololá	716	San Marcos la Laguna 	11	San Marcos la laguna 	3	Marzo	2023-03-14T00:00:00	2024-11-08T00:00:00	4	Temperatura máxima	17.8
182131	7	Sololá	716	San Marcos la Laguna 	11	San Marcos la laguna 	3	Marzo	2023-03-14T00:00:00	2024-11-08T00:00:00	3	Temperatura mínima	16.6
182132	7	Sololá	716	San Marcos la Laguna 	11	San Marcos la laguna 	3	Marzo	2023-03-14T00:00:00	2024-11-08T00:00:00	5	Humedad	91
182133	7	Sololá	716	San Marcos la Laguna 	11	San Marcos la laguna 	3	Marzo	2023-03-14T00:00:00	2024-11-08T00:00:00	6	Velocidad del viento	4.8
182134	7	Sololá	716	San Marcos la Laguna 	11	San Marcos la laguna 	3	Marzo	2023-03-14T00:00:00	2024-11-08T00:00:00	7	Dirección del viento	4.83
182135	7	Sololá	716	San Marcos la Laguna 	11	San Marcos la laguna 	3	Marzo	2023-03-14T00:00:00	2024-11-08T00:00:00	1	Precipitación	0
182136	7	Sololá	716	San Marcos la Laguna 	11	San Marcos la laguna 	3	Marzo	2023-03-14T00:00:00	2024-11-08T00:00:00	8	Radiación solar	0
182137	7	Sololá	716	San Marcos la Laguna 	11	San Marcos la laguna 	3	Marzo	2023-03-14T00:00:00	2024-11-08T01:00:00	2	Temperatura media	16.8
182138	7	Sololá	716	San Marcos la Laguna 	11	San Marcos la laguna 	3	Marzo	2023-03-14T00:00:00	2024-11-08T01:00:00	4	Temperatura máxima	16.9
182139	7	Sololá	716	San Marcos la Laguna 	11	San Marcos la laguna 	3	Marzo	2023-03-14T00:00:00	2024-11-08T01:00:00	3	Temperatura mínima	16.6
182140	7	Sololá	716	San Marcos la Laguna 	11	San Marcos la laguna 	3	Marzo	2023-03-14T00:00:00	2024-11-08T01:00:00	5	Humedad	88
182141	7	Sololá	716	San Marcos la Laguna 	11	San Marcos la laguna 	3	Marzo	2023-03-14T00:00:00	2024-11-08T01:00:00	6	Velocidad del viento	6.4
182142	7	Sololá	716	San Marcos la Laguna 	11	San Marcos la laguna 	3	Marzo	2023-03-14T00:00:00	2024-11-08T01:00:00	7	Dirección del viento	6.44
182143	7	Sololá	716	San Marcos la Laguna 	11	San Marcos la laguna 	3	Marzo	2023-03-14T00:00:00	2024-11-08T01:00:00	1	Precipitación	0
182144	7	Sololá	716	San Marcos la Laguna 	11	San Marcos la laguna 	3	Marzo	2023-03-14T00:00:00	2024-11-08T01:00:00	8	Radiación solar	0
182145	7	Sololá	716	San Marcos la Laguna 	11	San Marcos la laguna 	3	Marzo	2023-03-14T00:00:00	2024-11-08T02:00:00	2	Temperatura media	16.8
182146	7	Sololá	716	San Marcos la Laguna 	11	San Marcos la laguna 	3	Marzo	2023-03-14T00:00:00	2024-11-08T02:00:00	4	Temperatura máxima	16.8
182147	7	Sololá	716	San Marcos la Laguna 	11	San Marcos la laguna 	3	Marzo	2023-03-14T00:00:00	2024-11-08T02:00:00	3	Temperatura mínima	16.6
182148	7	Sololá	716	San Marcos la Laguna 	11	San Marcos la laguna 	3	Marzo	2023-03-14T00:00:00	2024-11-08T02:00:00	5	Humedad	88
182149	7	Sololá	716	San Marcos la Laguna 	11	San Marcos la laguna 	3	Marzo	2023-03-14T00:00:00	2024-11-08T02:00:00	6	Velocidad del viento	6.4
182150	7	Sololá	716	San Marcos la Laguna 	11	San Marcos la laguna 	3	Marzo	2023-03-14T00:00:00	2024-11-08T02:00:00	7	Dirección del viento	6.44
182151	7	Sololá	716	San Marcos la Laguna 	11	San Marcos la laguna 	3	Marzo	2023-03-14T00:00:00	2024-11-08T02:00:00	1	Precipitación	0
182152	7	Sololá	716	San Marcos la Laguna 	11	San Marcos la laguna 	3	Marzo	2023-03-14T00:00:00	2024-11-08T02:00:00	8	Radiación solar	0
182153	7	Sololá	716	San Marcos la Laguna 	11	San Marcos la laguna 	3	Marzo	2023-03-14T00:00:00	2024-11-08T03:00:00	2	Temperatura media	16.8
182154	7	Sololá	716	San Marcos la Laguna 	11	San Marcos la laguna 	3	Marzo	2023-03-14T00:00:00	2024-11-08T03:00:00	4	Temperatura máxima	16.9
182155	7	Sololá	716	San Marcos la Laguna 	11	San Marcos la laguna 	3	Marzo	2023-03-14T00:00:00	2024-11-08T03:00:00	3	Temperatura mínima	16.7
182156	7	Sololá	716	San Marcos la Laguna 	11	San Marcos la laguna 	3	Marzo	2023-03-14T00:00:00	2024-11-08T03:00:00	5	Humedad	90
182157	7	Sololá	716	San Marcos la Laguna 	11	San Marcos la laguna 	3	Marzo	2023-03-14T00:00:00	2024-11-08T03:00:00	6	Velocidad del viento	4.8
182158	7	Sololá	716	San Marcos la Laguna 	11	San Marcos la laguna 	3	Marzo	2023-03-14T00:00:00	2024-11-08T03:00:00	7	Dirección del viento	4.83
182159	7	Sololá	716	San Marcos la Laguna 	11	San Marcos la laguna 	3	Marzo	2023-03-14T00:00:00	2024-11-08T03:00:00	1	Precipitación	0
182160	7	Sololá	716	San Marcos la Laguna 	11	San Marcos la laguna 	3	Marzo	2023-03-14T00:00:00	2024-11-08T03:00:00	8	Radiación solar	0
182161	7	Sololá	716	San Marcos la Laguna 	11	San Marcos la laguna 	3	Marzo	2023-03-14T00:00:00	2024-11-08T04:00:00	2	Temperatura media	16.5
182162	7	Sololá	716	San Marcos la Laguna 	11	San Marcos la laguna 	3	Marzo	2023-03-14T00:00:00	2024-11-08T04:00:00	4	Temperatura máxima	16.9
182163	7	Sololá	716	San Marcos la Laguna 	11	San Marcos la laguna 	3	Marzo	2023-03-14T00:00:00	2024-11-08T04:00:00	3	Temperatura mínima	16.5
182164	7	Sololá	716	San Marcos la Laguna 	11	San Marcos la laguna 	3	Marzo	2023-03-14T00:00:00	2024-11-08T04:00:00	5	Humedad	92
182165	7	Sololá	716	San Marcos la Laguna 	11	San Marcos la laguna 	3	Marzo	2023-03-14T00:00:00	2024-11-08T04:00:00	6	Velocidad del viento	4.8
182166	7	Sololá	716	San Marcos la Laguna 	11	San Marcos la laguna 	3	Marzo	2023-03-14T00:00:00	2024-11-08T04:00:00	7	Dirección del viento	4.83
182167	7	Sololá	716	San Marcos la Laguna 	11	San Marcos la laguna 	3	Marzo	2023-03-14T00:00:00	2024-11-08T04:00:00	1	Precipitación	0
182168	7	Sololá	716	San Marcos la Laguna 	11	San Marcos la laguna 	3	Marzo	2023-03-14T00:00:00	2024-11-08T04:00:00	8	Radiación solar	0
182169	7	Sololá	716	San Marcos la Laguna 	11	San Marcos la laguna 	3	Marzo	2023-03-14T00:00:00	2024-11-08T05:00:00	2	Temperatura media	16.6
182170	7	Sololá	716	San Marcos la Laguna 	11	San Marcos la laguna 	3	Marzo	2023-03-14T00:00:00	2024-11-08T05:00:00	4	Temperatura máxima	17
182171	7	Sololá	716	San Marcos la Laguna 	11	San Marcos la laguna 	3	Marzo	2023-03-14T00:00:00	2024-11-08T05:00:00	3	Temperatura mínima	16.4
182172	7	Sololá	716	San Marcos la Laguna 	11	San Marcos la laguna 	3	Marzo	2023-03-14T00:00:00	2024-11-08T05:00:00	5	Humedad	90
182173	7	Sololá	716	San Marcos la Laguna 	11	San Marcos la laguna 	3	Marzo	2023-03-14T00:00:00	2024-11-08T05:00:00	6	Velocidad del viento	6.4
182174	7	Sololá	716	San Marcos la Laguna 	11	San Marcos la laguna 	3	Marzo	2023-03-14T00:00:00	2024-11-08T05:00:00	7	Dirección del viento	6.44
182175	7	Sololá	716	San Marcos la Laguna 	11	San Marcos la laguna 	3	Marzo	2023-03-14T00:00:00	2024-11-08T05:00:00	1	Precipitación	0
182176	7	Sololá	716	San Marcos la Laguna 	11	San Marcos la laguna 	3	Marzo	2023-03-14T00:00:00	2024-11-08T05:00:00	8	Radiación solar	0
182177	7	Sololá	716	San Marcos la Laguna 	11	San Marcos la laguna 	3	Marzo	2023-03-14T00:00:00	2024-11-08T06:00:00	2	Temperatura media	15.9
182178	7	Sololá	716	San Marcos la Laguna 	11	San Marcos la laguna 	3	Marzo	2023-03-14T00:00:00	2024-11-08T06:00:00	4	Temperatura máxima	16.7
182179	7	Sololá	716	San Marcos la Laguna 	11	San Marcos la laguna 	3	Marzo	2023-03-14T00:00:00	2024-11-08T06:00:00	3	Temperatura mínima	15.8
182180	7	Sololá	716	San Marcos la Laguna 	11	San Marcos la laguna 	3	Marzo	2023-03-14T00:00:00	2024-11-08T06:00:00	5	Humedad	88
182181	7	Sololá	716	San Marcos la Laguna 	11	San Marcos la laguna 	3	Marzo	2023-03-14T00:00:00	2024-11-08T06:00:00	6	Velocidad del viento	4.8
182182	7	Sololá	716	San Marcos la Laguna 	11	San Marcos la laguna 	3	Marzo	2023-03-14T00:00:00	2024-11-08T06:00:00	7	Dirección del viento	4.83
182183	7	Sololá	716	San Marcos la Laguna 	11	San Marcos la laguna 	3	Marzo	2023-03-14T00:00:00	2024-11-08T06:00:00	1	Precipitación	0
182184	7	Sololá	716	San Marcos la Laguna 	11	San Marcos la laguna 	3	Marzo	2023-03-14T00:00:00	2024-11-08T06:00:00	8	Radiación solar	0
182185	7	Sololá	716	San Marcos la Laguna 	11	San Marcos la laguna 	3	Marzo	2023-03-14T00:00:00	2024-11-08T07:00:00	2	Temperatura media	16.4
182186	7	Sololá	716	San Marcos la Laguna 	11	San Marcos la laguna 	3	Marzo	2023-03-14T00:00:00	2024-11-08T07:00:00	4	Temperatura máxima	16.5
182187	7	Sololá	716	San Marcos la Laguna 	11	San Marcos la laguna 	3	Marzo	2023-03-14T00:00:00	2024-11-08T07:00:00	3	Temperatura mínima	15.7
182188	7	Sololá	716	San Marcos la Laguna 	11	San Marcos la laguna 	3	Marzo	2023-03-14T00:00:00	2024-11-08T07:00:00	5	Humedad	86
182189	7	Sololá	716	San Marcos la Laguna 	11	San Marcos la laguna 	3	Marzo	2023-03-14T00:00:00	2024-11-08T07:00:00	6	Velocidad del viento	6.4
182190	7	Sololá	716	San Marcos la Laguna 	11	San Marcos la laguna 	3	Marzo	2023-03-14T00:00:00	2024-11-08T07:00:00	7	Dirección del viento	6.44
182191	7	Sololá	716	San Marcos la Laguna 	11	San Marcos la laguna 	3	Marzo	2023-03-14T00:00:00	2024-11-08T07:00:00	1	Precipitación	0
182192	7	Sololá	716	San Marcos la Laguna 	11	San Marcos la laguna 	3	Marzo	2023-03-14T00:00:00	2024-11-08T07:00:00	8	Radiación solar	18
182193	7	Sololá	716	San Marcos la Laguna 	11	San Marcos la laguna 	3	Marzo	2023-03-14T00:00:00	2024-11-08T08:00:00	2	Temperatura media	19.2
182194	7	Sololá	716	San Marcos la Laguna 	11	San Marcos la laguna 	3	Marzo	2023-03-14T00:00:00	2024-11-08T08:00:00	4	Temperatura máxima	19.2
182195	7	Sololá	716	San Marcos la Laguna 	11	San Marcos la laguna 	3	Marzo	2023-03-14T00:00:00	2024-11-08T08:00:00	3	Temperatura mínima	16.4
182196	7	Sololá	716	San Marcos la Laguna 	11	San Marcos la laguna 	3	Marzo	2023-03-14T00:00:00	2024-11-08T08:00:00	5	Humedad	79
182197	7	Sololá	716	San Marcos la Laguna 	11	San Marcos la laguna 	3	Marzo	2023-03-14T00:00:00	2024-11-08T08:00:00	6	Velocidad del viento	4.8
182198	7	Sololá	716	San Marcos la Laguna 	11	San Marcos la laguna 	3	Marzo	2023-03-14T00:00:00	2024-11-08T08:00:00	7	Dirección del viento	4.83
182199	7	Sololá	716	San Marcos la Laguna 	11	San Marcos la laguna 	3	Marzo	2023-03-14T00:00:00	2024-11-08T08:00:00	1	Precipitación	0
182200	7	Sololá	716	San Marcos la Laguna 	11	San Marcos la laguna 	3	Marzo	2023-03-14T00:00:00	2024-11-08T08:00:00	8	Radiación solar	193
182201	7	Sololá	716	San Marcos la Laguna 	11	San Marcos la laguna 	3	Marzo	2023-03-14T00:00:00	2024-11-08T09:00:00	2	Temperatura media	21.6
182202	7	Sololá	716	San Marcos la Laguna 	11	San Marcos la laguna 	3	Marzo	2023-03-14T00:00:00	2024-11-08T09:00:00	4	Temperatura máxima	21.6
182203	7	Sololá	716	San Marcos la Laguna 	11	San Marcos la laguna 	3	Marzo	2023-03-14T00:00:00	2024-11-08T09:00:00	3	Temperatura mínima	19.2
182204	7	Sololá	716	San Marcos la Laguna 	11	San Marcos la laguna 	3	Marzo	2023-03-14T00:00:00	2024-11-08T09:00:00	5	Humedad	72
182205	7	Sololá	716	San Marcos la Laguna 	11	San Marcos la laguna 	3	Marzo	2023-03-14T00:00:00	2024-11-08T09:00:00	6	Velocidad del viento	1.6
182206	7	Sololá	716	San Marcos la Laguna 	11	San Marcos la laguna 	3	Marzo	2023-03-14T00:00:00	2024-11-08T09:00:00	7	Dirección del viento	1.61
182207	7	Sololá	716	San Marcos la Laguna 	11	San Marcos la laguna 	3	Marzo	2023-03-14T00:00:00	2024-11-08T09:00:00	1	Precipitación	0
182208	7	Sololá	716	San Marcos la Laguna 	11	San Marcos la laguna 	3	Marzo	2023-03-14T00:00:00	2024-11-08T09:00:00	8	Radiación solar	429
182209	7	Sololá	716	San Marcos la Laguna 	11	San Marcos la laguna 	3	Marzo	2023-03-14T00:00:00	2024-11-08T10:00:00	2	Temperatura media	22.8
182210	7	Sololá	716	San Marcos la Laguna 	11	San Marcos la laguna 	3	Marzo	2023-03-14T00:00:00	2024-11-08T10:00:00	4	Temperatura máxima	22.8
182211	7	Sololá	716	San Marcos la Laguna 	11	San Marcos la laguna 	3	Marzo	2023-03-14T00:00:00	2024-11-08T10:00:00	3	Temperatura mínima	21.4
182212	7	Sololá	716	San Marcos la Laguna 	11	San Marcos la laguna 	3	Marzo	2023-03-14T00:00:00	2024-11-08T10:00:00	5	Humedad	66
182213	7	Sololá	716	San Marcos la Laguna 	11	San Marcos la laguna 	3	Marzo	2023-03-14T00:00:00	2024-11-08T10:00:00	6	Velocidad del viento	3.2
182214	7	Sololá	716	San Marcos la Laguna 	11	San Marcos la laguna 	3	Marzo	2023-03-14T00:00:00	2024-11-08T10:00:00	7	Dirección del viento	3.22
182215	7	Sololá	716	San Marcos la Laguna 	11	San Marcos la laguna 	3	Marzo	2023-03-14T00:00:00	2024-11-08T10:00:00	1	Precipitación	0
182216	7	Sololá	716	San Marcos la Laguna 	11	San Marcos la laguna 	3	Marzo	2023-03-14T00:00:00	2024-11-08T10:00:00	8	Radiación solar	632
182217	7	Sololá	716	San Marcos la Laguna 	11	San Marcos la laguna 	3	Marzo	2023-03-14T00:00:00	2024-11-08T11:00:00	2	Temperatura media	22.5
182218	7	Sololá	716	San Marcos la Laguna 	11	San Marcos la laguna 	3	Marzo	2023-03-14T00:00:00	2024-11-08T11:00:00	4	Temperatura máxima	23.4
182219	7	Sololá	716	San Marcos la Laguna 	11	San Marcos la laguna 	3	Marzo	2023-03-14T00:00:00	2024-11-08T11:00:00	3	Temperatura mínima	22.4
182220	7	Sololá	716	San Marcos la Laguna 	11	San Marcos la laguna 	3	Marzo	2023-03-14T00:00:00	2024-11-08T11:00:00	5	Humedad	70
182221	7	Sololá	716	San Marcos la Laguna 	11	San Marcos la laguna 	3	Marzo	2023-03-14T00:00:00	2024-11-08T11:00:00	6	Velocidad del viento	6.4
182222	7	Sololá	716	San Marcos la Laguna 	11	San Marcos la laguna 	3	Marzo	2023-03-14T00:00:00	2024-11-08T11:00:00	7	Dirección del viento	6.44
182223	7	Sololá	716	San Marcos la Laguna 	11	San Marcos la laguna 	3	Marzo	2023-03-14T00:00:00	2024-11-08T11:00:00	1	Precipitación	0
182224	7	Sololá	716	San Marcos la Laguna 	11	San Marcos la laguna 	3	Marzo	2023-03-14T00:00:00	2024-11-08T11:00:00	8	Radiación solar	794
182225	7	Sololá	716	San Marcos la Laguna 	11	San Marcos la laguna 	3	Marzo	2023-03-14T00:00:00	2024-11-08T12:00:00	2	Temperatura media	22.2
182226	7	Sololá	716	San Marcos la Laguna 	11	San Marcos la laguna 	3	Marzo	2023-03-14T00:00:00	2024-11-08T12:00:00	4	Temperatura máxima	22.7
182227	7	Sololá	716	San Marcos la Laguna 	11	San Marcos la laguna 	3	Marzo	2023-03-14T00:00:00	2024-11-08T12:00:00	3	Temperatura mínima	22.1
182228	7	Sololá	716	San Marcos la Laguna 	11	San Marcos la laguna 	3	Marzo	2023-03-14T00:00:00	2024-11-08T12:00:00	5	Humedad	72
182229	7	Sololá	716	San Marcos la Laguna 	11	San Marcos la laguna 	3	Marzo	2023-03-14T00:00:00	2024-11-08T12:00:00	6	Velocidad del viento	14.5
182230	7	Sololá	716	San Marcos la Laguna 	11	San Marcos la laguna 	3	Marzo	2023-03-14T00:00:00	2024-11-08T12:00:00	7	Dirección del viento	14.48
182231	7	Sololá	716	San Marcos la Laguna 	11	San Marcos la laguna 	3	Marzo	2023-03-14T00:00:00	2024-11-08T12:00:00	1	Precipitación	0
182232	7	Sololá	716	San Marcos la Laguna 	11	San Marcos la laguna 	3	Marzo	2023-03-14T00:00:00	2024-11-08T12:00:00	8	Radiación solar	383
182233	7	Sololá	716	San Marcos la Laguna 	11	San Marcos la laguna 	3	Marzo	2023-03-14T00:00:00	2024-11-08T13:00:00	2	Temperatura media	22.9
182234	7	Sololá	716	San Marcos la Laguna 	11	San Marcos la laguna 	3	Marzo	2023-03-14T00:00:00	2024-11-08T13:00:00	4	Temperatura máxima	22.9
182235	7	Sololá	716	San Marcos la Laguna 	11	San Marcos la laguna 	3	Marzo	2023-03-14T00:00:00	2024-11-08T13:00:00	3	Temperatura mínima	22.2
182236	7	Sololá	716	San Marcos la Laguna 	11	San Marcos la laguna 	3	Marzo	2023-03-14T00:00:00	2024-11-08T13:00:00	5	Humedad	72
182237	7	Sololá	716	San Marcos la Laguna 	11	San Marcos la laguna 	3	Marzo	2023-03-14T00:00:00	2024-11-08T13:00:00	6	Velocidad del viento	14.5
182238	7	Sololá	716	San Marcos la Laguna 	11	San Marcos la laguna 	3	Marzo	2023-03-14T00:00:00	2024-11-08T13:00:00	7	Dirección del viento	14.48
182239	7	Sololá	716	San Marcos la Laguna 	11	San Marcos la laguna 	3	Marzo	2023-03-14T00:00:00	2024-11-08T13:00:00	1	Precipitación	0
182240	7	Sololá	716	San Marcos la Laguna 	11	San Marcos la laguna 	3	Marzo	2023-03-14T00:00:00	2024-11-08T13:00:00	8	Radiación solar	316
182241	7	Sololá	716	San Marcos la Laguna 	11	San Marcos la laguna 	3	Marzo	2023-03-14T00:00:00	2024-11-08T14:00:00	2	Temperatura media	23.1
182242	7	Sololá	716	San Marcos la Laguna 	11	San Marcos la laguna 	3	Marzo	2023-03-14T00:00:00	2024-11-08T14:00:00	4	Temperatura máxima	23.8
182243	7	Sololá	716	San Marcos la Laguna 	11	San Marcos la laguna 	3	Marzo	2023-03-14T00:00:00	2024-11-08T14:00:00	3	Temperatura mínima	22.8
182244	7	Sololá	716	San Marcos la Laguna 	11	San Marcos la laguna 	3	Marzo	2023-03-14T00:00:00	2024-11-08T14:00:00	5	Humedad	71
182245	7	Sololá	716	San Marcos la Laguna 	11	San Marcos la laguna 	3	Marzo	2023-03-14T00:00:00	2024-11-08T14:00:00	6	Velocidad del viento	11.3
182246	7	Sololá	716	San Marcos la Laguna 	11	San Marcos la laguna 	3	Marzo	2023-03-14T00:00:00	2024-11-08T14:00:00	7	Dirección del viento	11.27
182247	7	Sololá	716	San Marcos la Laguna 	11	San Marcos la laguna 	3	Marzo	2023-03-14T00:00:00	2024-11-08T14:00:00	1	Precipitación	0
182248	7	Sololá	716	San Marcos la Laguna 	11	San Marcos la laguna 	3	Marzo	2023-03-14T00:00:00	2024-11-08T14:00:00	8	Radiación solar	348
182249	7	Sololá	716	San Marcos la Laguna 	11	San Marcos la laguna 	3	Marzo	2023-03-14T00:00:00	2024-11-08T15:00:00	2	Temperatura media	21.9
182250	7	Sololá	716	San Marcos la Laguna 	11	San Marcos la laguna 	3	Marzo	2023-03-14T00:00:00	2024-11-08T15:00:00	4	Temperatura máxima	23
182251	7	Sololá	716	San Marcos la Laguna 	11	San Marcos la laguna 	3	Marzo	2023-03-14T00:00:00	2024-11-08T15:00:00	3	Temperatura mínima	21.5
182252	7	Sololá	716	San Marcos la Laguna 	11	San Marcos la laguna 	3	Marzo	2023-03-14T00:00:00	2024-11-08T15:00:00	5	Humedad	76
182253	7	Sololá	716	San Marcos la Laguna 	11	San Marcos la laguna 	3	Marzo	2023-03-14T00:00:00	2024-11-08T15:00:00	6	Velocidad del viento	9.7
182254	7	Sololá	716	San Marcos la Laguna 	11	San Marcos la laguna 	3	Marzo	2023-03-14T00:00:00	2024-11-08T15:00:00	7	Dirección del viento	9.66
182255	7	Sololá	716	San Marcos la Laguna 	11	San Marcos la laguna 	3	Marzo	2023-03-14T00:00:00	2024-11-08T15:00:00	1	Precipitación	0
182256	7	Sololá	716	San Marcos la Laguna 	11	San Marcos la laguna 	3	Marzo	2023-03-14T00:00:00	2024-11-08T15:00:00	8	Radiación solar	562
182257	7	Sololá	716	San Marcos la Laguna 	11	San Marcos la laguna 	3	Marzo	2023-03-14T00:00:00	2024-11-08T16:00:00	2	Temperatura media	21.6
182258	7	Sololá	716	San Marcos la Laguna 	11	San Marcos la laguna 	3	Marzo	2023-03-14T00:00:00	2024-11-08T16:00:00	4	Temperatura máxima	22.4
182259	7	Sololá	716	San Marcos la Laguna 	11	San Marcos la laguna 	3	Marzo	2023-03-14T00:00:00	2024-11-08T16:00:00	3	Temperatura mínima	21.6
182260	7	Sololá	716	San Marcos la Laguna 	11	San Marcos la laguna 	3	Marzo	2023-03-14T00:00:00	2024-11-08T16:00:00	5	Humedad	75
182261	7	Sololá	716	San Marcos la Laguna 	11	San Marcos la laguna 	3	Marzo	2023-03-14T00:00:00	2024-11-08T16:00:00	6	Velocidad del viento	6.4
182262	7	Sololá	716	San Marcos la Laguna 	11	San Marcos la laguna 	3	Marzo	2023-03-14T00:00:00	2024-11-08T16:00:00	7	Dirección del viento	6.44
182263	7	Sololá	716	San Marcos la Laguna 	11	San Marcos la laguna 	3	Marzo	2023-03-14T00:00:00	2024-11-08T16:00:00	1	Precipitación	0
182264	7	Sololá	716	San Marcos la Laguna 	11	San Marcos la laguna 	3	Marzo	2023-03-14T00:00:00	2024-11-08T16:00:00	8	Radiación solar	546
182265	7	Sololá	716	San Marcos la Laguna 	11	San Marcos la laguna 	3	Marzo	2023-03-14T00:00:00	2024-11-08T17:00:00	2	Temperatura media	21.2
182266	7	Sololá	716	San Marcos la Laguna 	11	San Marcos la laguna 	3	Marzo	2023-03-14T00:00:00	2024-11-08T17:00:00	4	Temperatura máxima	22.2
182267	7	Sololá	716	San Marcos la Laguna 	11	San Marcos la laguna 	3	Marzo	2023-03-14T00:00:00	2024-11-08T17:00:00	3	Temperatura mínima	21.1
182268	7	Sololá	716	San Marcos la Laguna 	11	San Marcos la laguna 	3	Marzo	2023-03-14T00:00:00	2024-11-08T17:00:00	5	Humedad	79
182269	7	Sololá	716	San Marcos la Laguna 	11	San Marcos la laguna 	3	Marzo	2023-03-14T00:00:00	2024-11-08T17:00:00	6	Velocidad del viento	8
182270	7	Sololá	716	San Marcos la Laguna 	11	San Marcos la laguna 	3	Marzo	2023-03-14T00:00:00	2024-11-08T17:00:00	7	Dirección del viento	8.05
182271	7	Sololá	716	San Marcos la Laguna 	11	San Marcos la laguna 	3	Marzo	2023-03-14T00:00:00	2024-11-08T17:00:00	1	Precipitación	0
182272	7	Sololá	716	San Marcos la Laguna 	11	San Marcos la laguna 	3	Marzo	2023-03-14T00:00:00	2024-11-08T17:00:00	8	Radiación solar	109
182273	7	Sololá	716	San Marcos la Laguna 	11	San Marcos la laguna 	3	Marzo	2023-03-14T00:00:00	2024-11-08T18:00:00	2	Temperatura media	20.4
182274	7	Sololá	716	San Marcos la Laguna 	11	San Marcos la laguna 	3	Marzo	2023-03-14T00:00:00	2024-11-08T18:00:00	4	Temperatura máxima	21.7
182275	7	Sololá	716	San Marcos la Laguna 	11	San Marcos la laguna 	3	Marzo	2023-03-14T00:00:00	2024-11-08T18:00:00	3	Temperatura mínima	20.4
182276	7	Sololá	716	San Marcos la Laguna 	11	San Marcos la laguna 	3	Marzo	2023-03-14T00:00:00	2024-11-08T18:00:00	5	Humedad	84
182277	7	Sololá	716	San Marcos la Laguna 	11	San Marcos la laguna 	3	Marzo	2023-03-14T00:00:00	2024-11-08T18:00:00	6	Velocidad del viento	6.4
182278	7	Sololá	716	San Marcos la Laguna 	11	San Marcos la laguna 	3	Marzo	2023-03-14T00:00:00	2024-11-08T18:00:00	7	Dirección del viento	6.44
182279	7	Sololá	716	San Marcos la Laguna 	11	San Marcos la laguna 	3	Marzo	2023-03-14T00:00:00	2024-11-08T18:00:00	1	Precipitación	0
182280	7	Sololá	716	San Marcos la Laguna 	11	San Marcos la laguna 	3	Marzo	2023-03-14T00:00:00	2024-11-08T18:00:00	8	Radiación solar	32
182281	7	Sololá	716	San Marcos la Laguna 	11	San Marcos la laguna 	3	Marzo	2023-03-14T00:00:00	2024-11-08T19:00:00	2	Temperatura media	19.8
182282	7	Sololá	716	San Marcos la Laguna 	11	San Marcos la laguna 	3	Marzo	2023-03-14T00:00:00	2024-11-08T19:00:00	4	Temperatura máxima	20.4
182283	7	Sololá	716	San Marcos la Laguna 	11	San Marcos la laguna 	3	Marzo	2023-03-14T00:00:00	2024-11-08T19:00:00	3	Temperatura mínima	19.7
182284	7	Sololá	716	San Marcos la Laguna 	11	San Marcos la laguna 	3	Marzo	2023-03-14T00:00:00	2024-11-08T19:00:00	5	Humedad	88
182285	7	Sololá	716	San Marcos la Laguna 	11	San Marcos la laguna 	3	Marzo	2023-03-14T00:00:00	2024-11-08T19:00:00	6	Velocidad del viento	4.8
182286	7	Sololá	716	San Marcos la Laguna 	11	San Marcos la laguna 	3	Marzo	2023-03-14T00:00:00	2024-11-08T19:00:00	7	Dirección del viento	4.83
182287	7	Sololá	716	San Marcos la Laguna 	11	San Marcos la laguna 	3	Marzo	2023-03-14T00:00:00	2024-11-08T19:00:00	1	Precipitación	0.2
182288	7	Sololá	716	San Marcos la Laguna 	11	San Marcos la laguna 	3	Marzo	2023-03-14T00:00:00	2024-11-08T19:00:00	8	Radiación solar	0
182289	7	Sololá	716	San Marcos la Laguna 	11	San Marcos la laguna 	3	Marzo	2023-03-14T00:00:00	2024-11-08T20:00:00	2	Temperatura media	19
182290	7	Sololá	716	San Marcos la Laguna 	11	San Marcos la laguna 	3	Marzo	2023-03-14T00:00:00	2024-11-08T20:00:00	4	Temperatura máxima	19.8
182291	7	Sololá	716	San Marcos la Laguna 	11	San Marcos la laguna 	3	Marzo	2023-03-14T00:00:00	2024-11-08T20:00:00	3	Temperatura mínima	19
182292	7	Sololá	716	San Marcos la Laguna 	11	San Marcos la laguna 	3	Marzo	2023-03-14T00:00:00	2024-11-08T20:00:00	5	Humedad	92
182293	7	Sololá	716	San Marcos la Laguna 	11	San Marcos la laguna 	3	Marzo	2023-03-14T00:00:00	2024-11-08T20:00:00	6	Velocidad del viento	1.6
182294	7	Sololá	716	San Marcos la Laguna 	11	San Marcos la laguna 	3	Marzo	2023-03-14T00:00:00	2024-11-08T20:00:00	7	Dirección del viento	1.61
182295	7	Sololá	716	San Marcos la Laguna 	11	San Marcos la laguna 	3	Marzo	2023-03-14T00:00:00	2024-11-08T20:00:00	1	Precipitación	0.4
182296	7	Sololá	716	San Marcos la Laguna 	11	San Marcos la laguna 	3	Marzo	2023-03-14T00:00:00	2024-11-08T20:00:00	8	Radiación solar	0
182297	7	Sololá	716	San Marcos la Laguna 	11	San Marcos la laguna 	3	Marzo	2023-03-14T00:00:00	2024-11-08T21:00:00	2	Temperatura media	18.1
182298	7	Sololá	716	San Marcos la Laguna 	11	San Marcos la laguna 	3	Marzo	2023-03-14T00:00:00	2024-11-08T21:00:00	4	Temperatura máxima	19
182299	7	Sololá	716	San Marcos la Laguna 	11	San Marcos la laguna 	3	Marzo	2023-03-14T00:00:00	2024-11-08T21:00:00	3	Temperatura mínima	18.1
182300	7	Sololá	716	San Marcos la Laguna 	11	San Marcos la laguna 	3	Marzo	2023-03-14T00:00:00	2024-11-08T21:00:00	5	Humedad	93
182301	7	Sololá	716	San Marcos la Laguna 	11	San Marcos la laguna 	3	Marzo	2023-03-14T00:00:00	2024-11-08T21:00:00	6	Velocidad del viento	1.6
182302	7	Sololá	716	San Marcos la Laguna 	11	San Marcos la laguna 	3	Marzo	2023-03-14T00:00:00	2024-11-08T21:00:00	7	Dirección del viento	1.61
182303	7	Sololá	716	San Marcos la Laguna 	11	San Marcos la laguna 	3	Marzo	2023-03-14T00:00:00	2024-11-08T21:00:00	1	Precipitación	0
182304	7	Sololá	716	San Marcos la Laguna 	11	San Marcos la laguna 	3	Marzo	2023-03-14T00:00:00	2024-11-08T21:00:00	8	Radiación solar	0
182305	7	Sololá	716	San Marcos la Laguna 	11	San Marcos la laguna 	3	Marzo	2023-03-14T00:00:00	2024-11-08T22:00:00	2	Temperatura media	17.3
182306	7	Sololá	716	San Marcos la Laguna 	11	San Marcos la laguna 	3	Marzo	2023-03-14T00:00:00	2024-11-08T22:00:00	4	Temperatura máxima	18.1
182307	7	Sololá	716	San Marcos la Laguna 	11	San Marcos la laguna 	3	Marzo	2023-03-14T00:00:00	2024-11-08T22:00:00	3	Temperatura mínima	17.1
182308	7	Sololá	716	San Marcos la Laguna 	11	San Marcos la laguna 	3	Marzo	2023-03-14T00:00:00	2024-11-08T22:00:00	5	Humedad	89
182309	7	Sololá	716	San Marcos la Laguna 	11	San Marcos la laguna 	3	Marzo	2023-03-14T00:00:00	2024-11-08T22:00:00	6	Velocidad del viento	4.8
182310	7	Sololá	716	San Marcos la Laguna 	11	San Marcos la laguna 	3	Marzo	2023-03-14T00:00:00	2024-11-08T22:00:00	7	Dirección del viento	4.83
182311	7	Sololá	716	San Marcos la Laguna 	11	San Marcos la laguna 	3	Marzo	2023-03-14T00:00:00	2024-11-08T22:00:00	1	Precipitación	0
182312	7	Sololá	716	San Marcos la Laguna 	11	San Marcos la laguna 	3	Marzo	2023-03-14T00:00:00	2024-11-08T22:00:00	8	Radiación solar	0
182313	7	Sololá	716	San Marcos la Laguna 	11	San Marcos la laguna 	3	Marzo	2023-03-14T00:00:00	2024-11-08T23:00:00	2	Temperatura media	17.1
182314	7	Sololá	716	San Marcos la Laguna 	11	San Marcos la laguna 	3	Marzo	2023-03-14T00:00:00	2024-11-08T23:00:00	4	Temperatura máxima	17.4
182315	7	Sololá	716	San Marcos la Laguna 	11	San Marcos la laguna 	3	Marzo	2023-03-14T00:00:00	2024-11-08T23:00:00	3	Temperatura mínima	17.1
182316	7	Sololá	716	San Marcos la Laguna 	11	San Marcos la laguna 	3	Marzo	2023-03-14T00:00:00	2024-11-08T23:00:00	5	Humedad	87
182317	7	Sololá	716	San Marcos la Laguna 	11	San Marcos la laguna 	3	Marzo	2023-03-14T00:00:00	2024-11-08T23:00:00	6	Velocidad del viento	6.4
182318	7	Sololá	716	San Marcos la Laguna 	11	San Marcos la laguna 	3	Marzo	2023-03-14T00:00:00	2024-11-08T23:00:00	7	Dirección del viento	6.44
182319	7	Sololá	716	San Marcos la Laguna 	11	San Marcos la laguna 	3	Marzo	2023-03-14T00:00:00	2024-11-08T23:00:00	1	Precipitación	0
182320	7	Sololá	716	San Marcos la Laguna 	11	San Marcos la laguna 	3	Marzo	2023-03-14T00:00:00	2024-11-08T23:00:00	8	Radiación solar	0
182321	7	Sololá	716	San Marcos la Laguna 	11	San Marcos la laguna 	3	Marzo	2023-03-15T00:00:00	2024-11-08T00:00:00	2	Temperatura media	16.7
182322	7	Sololá	716	San Marcos la Laguna 	11	San Marcos la laguna 	3	Marzo	2023-03-15T00:00:00	2024-11-08T00:00:00	4	Temperatura máxima	17.2
182323	7	Sololá	716	San Marcos la Laguna 	11	San Marcos la laguna 	3	Marzo	2023-03-15T00:00:00	2024-11-08T00:00:00	3	Temperatura mínima	16.4
182324	7	Sololá	716	San Marcos la Laguna 	11	San Marcos la laguna 	3	Marzo	2023-03-15T00:00:00	2024-11-08T00:00:00	5	Humedad	88
182325	7	Sololá	716	San Marcos la Laguna 	11	San Marcos la laguna 	3	Marzo	2023-03-15T00:00:00	2024-11-08T00:00:00	6	Velocidad del viento	6.4
182326	7	Sololá	716	San Marcos la Laguna 	11	San Marcos la laguna 	3	Marzo	2023-03-15T00:00:00	2024-11-08T00:00:00	7	Dirección del viento	6.44
182327	7	Sololá	716	San Marcos la Laguna 	11	San Marcos la laguna 	3	Marzo	2023-03-15T00:00:00	2024-11-08T00:00:00	1	Precipitación	0
182328	7	Sololá	716	San Marcos la Laguna 	11	San Marcos la laguna 	3	Marzo	2023-03-15T00:00:00	2024-11-08T00:00:00	8	Radiación solar	0
182329	7	Sololá	716	San Marcos la Laguna 	11	San Marcos la laguna 	3	Marzo	2023-03-15T00:00:00	2024-11-08T01:00:00	2	Temperatura media	16.4
182330	7	Sololá	716	San Marcos la Laguna 	11	San Marcos la laguna 	3	Marzo	2023-03-15T00:00:00	2024-11-08T01:00:00	4	Temperatura máxima	16.8
182331	7	Sololá	716	San Marcos la Laguna 	11	San Marcos la laguna 	3	Marzo	2023-03-15T00:00:00	2024-11-08T01:00:00	3	Temperatura mínima	16.3
182332	7	Sololá	716	San Marcos la Laguna 	11	San Marcos la laguna 	3	Marzo	2023-03-15T00:00:00	2024-11-08T01:00:00	5	Humedad	86
182333	7	Sololá	716	San Marcos la Laguna 	11	San Marcos la laguna 	3	Marzo	2023-03-15T00:00:00	2024-11-08T01:00:00	6	Velocidad del viento	6.4
182334	7	Sololá	716	San Marcos la Laguna 	11	San Marcos la laguna 	3	Marzo	2023-03-15T00:00:00	2024-11-08T01:00:00	7	Dirección del viento	6.44
182335	7	Sololá	716	San Marcos la Laguna 	11	San Marcos la laguna 	3	Marzo	2023-03-15T00:00:00	2024-11-08T01:00:00	1	Precipitación	0
182336	7	Sololá	716	San Marcos la Laguna 	11	San Marcos la laguna 	3	Marzo	2023-03-15T00:00:00	2024-11-08T01:00:00	8	Radiación solar	0
182337	7	Sololá	716	San Marcos la Laguna 	11	San Marcos la laguna 	3	Marzo	2023-03-15T00:00:00	2024-11-08T02:00:00	2	Temperatura media	15.8
182338	7	Sololá	716	San Marcos la Laguna 	11	San Marcos la laguna 	3	Marzo	2023-03-15T00:00:00	2024-11-08T02:00:00	4	Temperatura máxima	16.4
182339	7	Sololá	716	San Marcos la Laguna 	11	San Marcos la laguna 	3	Marzo	2023-03-15T00:00:00	2024-11-08T02:00:00	3	Temperatura mínima	15.7
182340	7	Sololá	716	San Marcos la Laguna 	11	San Marcos la laguna 	3	Marzo	2023-03-15T00:00:00	2024-11-08T02:00:00	5	Humedad	88
182341	7	Sololá	716	San Marcos la Laguna 	11	San Marcos la laguna 	3	Marzo	2023-03-15T00:00:00	2024-11-08T02:00:00	6	Velocidad del viento	6.4
182342	7	Sololá	716	San Marcos la Laguna 	11	San Marcos la laguna 	3	Marzo	2023-03-15T00:00:00	2024-11-08T02:00:00	7	Dirección del viento	6.44
182343	7	Sololá	716	San Marcos la Laguna 	11	San Marcos la laguna 	3	Marzo	2023-03-15T00:00:00	2024-11-08T02:00:00	1	Precipitación	0
182344	7	Sololá	716	San Marcos la Laguna 	11	San Marcos la laguna 	3	Marzo	2023-03-15T00:00:00	2024-11-08T02:00:00	8	Radiación solar	0
182345	7	Sololá	716	San Marcos la Laguna 	11	San Marcos la laguna 	3	Marzo	2023-03-15T00:00:00	2024-11-08T03:00:00	2	Temperatura media	15.3
182346	7	Sololá	716	San Marcos la Laguna 	11	San Marcos la laguna 	3	Marzo	2023-03-15T00:00:00	2024-11-08T03:00:00	4	Temperatura máxima	15.8
182347	7	Sololá	716	San Marcos la Laguna 	11	San Marcos la laguna 	3	Marzo	2023-03-15T00:00:00	2024-11-08T03:00:00	3	Temperatura mínima	15.3
182348	7	Sololá	716	San Marcos la Laguna 	11	San Marcos la laguna 	3	Marzo	2023-03-15T00:00:00	2024-11-08T03:00:00	5	Humedad	90
182349	7	Sololá	716	San Marcos la Laguna 	11	San Marcos la laguna 	3	Marzo	2023-03-15T00:00:00	2024-11-08T03:00:00	6	Velocidad del viento	6.4
182350	7	Sololá	716	San Marcos la Laguna 	11	San Marcos la laguna 	3	Marzo	2023-03-15T00:00:00	2024-11-08T03:00:00	7	Dirección del viento	6.44
182351	7	Sololá	716	San Marcos la Laguna 	11	San Marcos la laguna 	3	Marzo	2023-03-15T00:00:00	2024-11-08T03:00:00	1	Precipitación	0
182352	7	Sololá	716	San Marcos la Laguna 	11	San Marcos la laguna 	3	Marzo	2023-03-15T00:00:00	2024-11-08T03:00:00	8	Radiación solar	0
182353	7	Sololá	716	San Marcos la Laguna 	11	San Marcos la laguna 	3	Marzo	2023-03-15T00:00:00	2024-11-08T04:00:00	2	Temperatura media	15.1
182354	7	Sololá	716	San Marcos la Laguna 	11	San Marcos la laguna 	3	Marzo	2023-03-15T00:00:00	2024-11-08T04:00:00	4	Temperatura máxima	15.5
182355	7	Sololá	716	San Marcos la Laguna 	11	San Marcos la laguna 	3	Marzo	2023-03-15T00:00:00	2024-11-08T04:00:00	3	Temperatura mínima	15
182356	7	Sololá	716	San Marcos la Laguna 	11	San Marcos la laguna 	3	Marzo	2023-03-15T00:00:00	2024-11-08T04:00:00	5	Humedad	87
182357	7	Sololá	716	San Marcos la Laguna 	11	San Marcos la laguna 	3	Marzo	2023-03-15T00:00:00	2024-11-08T04:00:00	6	Velocidad del viento	6.4
182358	7	Sololá	716	San Marcos la Laguna 	11	San Marcos la laguna 	3	Marzo	2023-03-15T00:00:00	2024-11-08T04:00:00	7	Dirección del viento	6.44
182359	7	Sololá	716	San Marcos la Laguna 	11	San Marcos la laguna 	3	Marzo	2023-03-15T00:00:00	2024-11-08T04:00:00	1	Precipitación	0
182360	7	Sololá	716	San Marcos la Laguna 	11	San Marcos la laguna 	3	Marzo	2023-03-15T00:00:00	2024-11-08T04:00:00	8	Radiación solar	0
182361	7	Sololá	716	San Marcos la Laguna 	11	San Marcos la laguna 	3	Marzo	2023-03-15T00:00:00	2024-11-08T05:00:00	2	Temperatura media	14.9
182362	7	Sololá	716	San Marcos la Laguna 	11	San Marcos la laguna 	3	Marzo	2023-03-15T00:00:00	2024-11-08T05:00:00	4	Temperatura máxima	15.4
182363	7	Sololá	716	San Marcos la Laguna 	11	San Marcos la laguna 	3	Marzo	2023-03-15T00:00:00	2024-11-08T05:00:00	3	Temperatura mínima	14.8
182364	7	Sololá	716	San Marcos la Laguna 	11	San Marcos la laguna 	3	Marzo	2023-03-15T00:00:00	2024-11-08T05:00:00	5	Humedad	88
182365	7	Sololá	716	San Marcos la Laguna 	11	San Marcos la laguna 	3	Marzo	2023-03-15T00:00:00	2024-11-08T05:00:00	6	Velocidad del viento	8
182366	7	Sololá	716	San Marcos la Laguna 	11	San Marcos la laguna 	3	Marzo	2023-03-15T00:00:00	2024-11-08T05:00:00	7	Dirección del viento	8.05
182367	7	Sololá	716	San Marcos la Laguna 	11	San Marcos la laguna 	3	Marzo	2023-03-15T00:00:00	2024-11-08T05:00:00	1	Precipitación	0
182368	7	Sololá	716	San Marcos la Laguna 	11	San Marcos la laguna 	3	Marzo	2023-03-15T00:00:00	2024-11-08T05:00:00	8	Radiación solar	0
182369	7	Sololá	716	San Marcos la Laguna 	11	San Marcos la laguna 	3	Marzo	2023-03-15T00:00:00	2024-11-08T06:00:00	2	Temperatura media	14.9
182370	7	Sololá	716	San Marcos la Laguna 	11	San Marcos la laguna 	3	Marzo	2023-03-15T00:00:00	2024-11-08T06:00:00	4	Temperatura máxima	15
182371	7	Sololá	716	San Marcos la Laguna 	11	San Marcos la laguna 	3	Marzo	2023-03-15T00:00:00	2024-11-08T06:00:00	3	Temperatura mínima	14.8
182372	7	Sololá	716	San Marcos la Laguna 	11	San Marcos la laguna 	3	Marzo	2023-03-15T00:00:00	2024-11-08T06:00:00	5	Humedad	88
182373	7	Sololá	716	San Marcos la Laguna 	11	San Marcos la laguna 	3	Marzo	2023-03-15T00:00:00	2024-11-08T06:00:00	6	Velocidad del viento	6.4
182374	7	Sololá	716	San Marcos la Laguna 	11	San Marcos la laguna 	3	Marzo	2023-03-15T00:00:00	2024-11-08T06:00:00	7	Dirección del viento	6.44
182375	7	Sololá	716	San Marcos la Laguna 	11	San Marcos la laguna 	3	Marzo	2023-03-15T00:00:00	2024-11-08T06:00:00	1	Precipitación	0
182376	7	Sololá	716	San Marcos la Laguna 	11	San Marcos la laguna 	3	Marzo	2023-03-15T00:00:00	2024-11-08T06:00:00	8	Radiación solar	0
182377	7	Sololá	716	San Marcos la Laguna 	11	San Marcos la laguna 	3	Marzo	2023-03-15T00:00:00	2024-11-08T07:00:00	2	Temperatura media	15.4
182378	7	Sololá	716	San Marcos la Laguna 	11	San Marcos la laguna 	3	Marzo	2023-03-15T00:00:00	2024-11-08T07:00:00	4	Temperatura máxima	15.4
182379	7	Sololá	716	San Marcos la Laguna 	11	San Marcos la laguna 	3	Marzo	2023-03-15T00:00:00	2024-11-08T07:00:00	3	Temperatura mínima	14.8
182380	7	Sololá	716	San Marcos la Laguna 	11	San Marcos la laguna 	3	Marzo	2023-03-15T00:00:00	2024-11-08T07:00:00	5	Humedad	86
182381	7	Sololá	716	San Marcos la Laguna 	11	San Marcos la laguna 	3	Marzo	2023-03-15T00:00:00	2024-11-08T07:00:00	6	Velocidad del viento	6.4
182382	7	Sololá	716	San Marcos la Laguna 	11	San Marcos la laguna 	3	Marzo	2023-03-15T00:00:00	2024-11-08T07:00:00	7	Dirección del viento	6.44
182383	7	Sololá	716	San Marcos la Laguna 	11	San Marcos la laguna 	3	Marzo	2023-03-15T00:00:00	2024-11-08T07:00:00	1	Precipitación	0
182384	7	Sololá	716	San Marcos la Laguna 	11	San Marcos la laguna 	3	Marzo	2023-03-15T00:00:00	2024-11-08T07:00:00	8	Radiación solar	17
182385	7	Sololá	716	San Marcos la Laguna 	11	San Marcos la laguna 	3	Marzo	2023-03-15T00:00:00	2024-11-08T08:00:00	2	Temperatura media	18.6
182386	7	Sololá	716	San Marcos la Laguna 	11	San Marcos la laguna 	3	Marzo	2023-03-15T00:00:00	2024-11-08T08:00:00	4	Temperatura máxima	18.6
182387	7	Sololá	716	San Marcos la Laguna 	11	San Marcos la laguna 	3	Marzo	2023-03-15T00:00:00	2024-11-08T08:00:00	3	Temperatura mínima	15.4
182388	7	Sololá	716	San Marcos la Laguna 	11	San Marcos la laguna 	3	Marzo	2023-03-15T00:00:00	2024-11-08T08:00:00	5	Humedad	79
182389	7	Sololá	716	San Marcos la Laguna 	11	San Marcos la laguna 	3	Marzo	2023-03-15T00:00:00	2024-11-08T08:00:00	6	Velocidad del viento	4.8
182390	7	Sololá	716	San Marcos la Laguna 	11	San Marcos la laguna 	3	Marzo	2023-03-15T00:00:00	2024-11-08T08:00:00	7	Dirección del viento	4.83
182391	7	Sololá	716	San Marcos la Laguna 	11	San Marcos la laguna 	3	Marzo	2023-03-15T00:00:00	2024-11-08T08:00:00	1	Precipitación	0
182392	7	Sololá	716	San Marcos la Laguna 	11	San Marcos la laguna 	3	Marzo	2023-03-15T00:00:00	2024-11-08T08:00:00	8	Radiación solar	197
182393	7	Sololá	716	San Marcos la Laguna 	11	San Marcos la laguna 	3	Marzo	2023-03-15T00:00:00	2024-11-08T09:00:00	2	Temperatura media	21.7
182394	7	Sololá	716	San Marcos la Laguna 	11	San Marcos la laguna 	3	Marzo	2023-03-15T00:00:00	2024-11-08T09:00:00	4	Temperatura máxima	21.7
182395	7	Sololá	716	San Marcos la Laguna 	11	San Marcos la laguna 	3	Marzo	2023-03-15T00:00:00	2024-11-08T09:00:00	3	Temperatura mínima	18.6
182396	7	Sololá	716	San Marcos la Laguna 	11	San Marcos la laguna 	3	Marzo	2023-03-15T00:00:00	2024-11-08T09:00:00	5	Humedad	69
182397	7	Sololá	716	San Marcos la Laguna 	11	San Marcos la laguna 	3	Marzo	2023-03-15T00:00:00	2024-11-08T09:00:00	6	Velocidad del viento	1.6
182398	7	Sololá	716	San Marcos la Laguna 	11	San Marcos la laguna 	3	Marzo	2023-03-15T00:00:00	2024-11-08T09:00:00	7	Dirección del viento	1.61
182399	7	Sololá	716	San Marcos la Laguna 	11	San Marcos la laguna 	3	Marzo	2023-03-15T00:00:00	2024-11-08T09:00:00	1	Precipitación	0
182400	7	Sololá	716	San Marcos la Laguna 	11	San Marcos la laguna 	3	Marzo	2023-03-15T00:00:00	2024-11-08T09:00:00	8	Radiación solar	415
182401	7	Sololá	716	San Marcos la Laguna 	11	San Marcos la laguna 	3	Marzo	2023-03-15T00:00:00	2024-11-08T10:00:00	2	Temperatura media	21.7
182402	7	Sololá	716	San Marcos la Laguna 	11	San Marcos la laguna 	3	Marzo	2023-03-15T00:00:00	2024-11-08T10:00:00	4	Temperatura máxima	21.8
182403	7	Sololá	716	San Marcos la Laguna 	11	San Marcos la laguna 	3	Marzo	2023-03-15T00:00:00	2024-11-08T10:00:00	3	Temperatura mínima	21.2
182404	7	Sololá	716	San Marcos la Laguna 	11	San Marcos la laguna 	3	Marzo	2023-03-15T00:00:00	2024-11-08T10:00:00	5	Humedad	68
182405	7	Sololá	716	San Marcos la Laguna 	11	San Marcos la laguna 	3	Marzo	2023-03-15T00:00:00	2024-11-08T10:00:00	6	Velocidad del viento	3.2
182406	7	Sololá	716	San Marcos la Laguna 	11	San Marcos la laguna 	3	Marzo	2023-03-15T00:00:00	2024-11-08T10:00:00	7	Dirección del viento	3.22
182407	7	Sololá	716	San Marcos la Laguna 	11	San Marcos la laguna 	3	Marzo	2023-03-15T00:00:00	2024-11-08T10:00:00	1	Precipitación	0
182408	7	Sololá	716	San Marcos la Laguna 	11	San Marcos la laguna 	3	Marzo	2023-03-15T00:00:00	2024-11-08T10:00:00	8	Radiación solar	646
182409	7	Sololá	716	San Marcos la Laguna 	11	San Marcos la laguna 	3	Marzo	2023-03-15T00:00:00	2024-11-08T11:00:00	2	Temperatura media	24.7
182410	7	Sololá	716	San Marcos la Laguna 	11	San Marcos la laguna 	3	Marzo	2023-03-15T00:00:00	2024-11-08T11:00:00	4	Temperatura máxima	24.7
182411	7	Sololá	716	San Marcos la Laguna 	11	San Marcos la laguna 	3	Marzo	2023-03-15T00:00:00	2024-11-08T11:00:00	3	Temperatura mínima	21.4
182412	7	Sololá	716	San Marcos la Laguna 	11	San Marcos la laguna 	3	Marzo	2023-03-15T00:00:00	2024-11-08T11:00:00	5	Humedad	58
182413	7	Sololá	716	San Marcos la Laguna 	11	San Marcos la laguna 	3	Marzo	2023-03-15T00:00:00	2024-11-08T11:00:00	6	Velocidad del viento	3.2
182414	7	Sololá	716	San Marcos la Laguna 	11	San Marcos la laguna 	3	Marzo	2023-03-15T00:00:00	2024-11-08T11:00:00	7	Dirección del viento	3.22
182415	7	Sololá	716	San Marcos la Laguna 	11	San Marcos la laguna 	3	Marzo	2023-03-15T00:00:00	2024-11-08T11:00:00	1	Precipitación	0
182416	7	Sololá	716	San Marcos la Laguna 	11	San Marcos la laguna 	3	Marzo	2023-03-15T00:00:00	2024-11-08T11:00:00	8	Radiación solar	729
182417	7	Sololá	716	San Marcos la Laguna 	11	San Marcos la laguna 	3	Marzo	2023-03-15T00:00:00	2024-11-08T12:00:00	2	Temperatura media	24.9
182418	7	Sololá	716	San Marcos la Laguna 	11	San Marcos la laguna 	3	Marzo	2023-03-15T00:00:00	2024-11-08T12:00:00	4	Temperatura máxima	24.9
182419	7	Sololá	716	San Marcos la Laguna 	11	San Marcos la laguna 	3	Marzo	2023-03-15T00:00:00	2024-11-08T12:00:00	3	Temperatura mínima	24.2
182420	7	Sololá	716	San Marcos la Laguna 	11	San Marcos la laguna 	3	Marzo	2023-03-15T00:00:00	2024-11-08T12:00:00	5	Humedad	59
182421	7	Sololá	716	San Marcos la Laguna 	11	San Marcos la laguna 	3	Marzo	2023-03-15T00:00:00	2024-11-08T12:00:00	6	Velocidad del viento	3.2
182422	7	Sololá	716	San Marcos la Laguna 	11	San Marcos la laguna 	3	Marzo	2023-03-15T00:00:00	2024-11-08T12:00:00	7	Dirección del viento	3.22
182423	7	Sololá	716	San Marcos la Laguna 	11	San Marcos la laguna 	3	Marzo	2023-03-15T00:00:00	2024-11-08T12:00:00	1	Precipitación	0
182424	7	Sololá	716	San Marcos la Laguna 	11	San Marcos la laguna 	3	Marzo	2023-03-15T00:00:00	2024-11-08T12:00:00	8	Radiación solar	281
182425	7	Sololá	716	San Marcos la Laguna 	11	San Marcos la laguna 	3	Marzo	2023-03-15T00:00:00	2024-11-08T13:00:00	2	Temperatura media	23.4
182426	7	Sololá	716	San Marcos la Laguna 	11	San Marcos la laguna 	3	Marzo	2023-03-15T00:00:00	2024-11-08T13:00:00	4	Temperatura máxima	24.9
182427	7	Sololá	716	San Marcos la Laguna 	11	San Marcos la laguna 	3	Marzo	2023-03-15T00:00:00	2024-11-08T13:00:00	3	Temperatura mínima	23.1
182428	7	Sololá	716	San Marcos la Laguna 	11	San Marcos la laguna 	3	Marzo	2023-03-15T00:00:00	2024-11-08T13:00:00	5	Humedad	69
182429	7	Sololá	716	San Marcos la Laguna 	11	San Marcos la laguna 	3	Marzo	2023-03-15T00:00:00	2024-11-08T13:00:00	6	Velocidad del viento	9.7
182430	7	Sololá	716	San Marcos la Laguna 	11	San Marcos la laguna 	3	Marzo	2023-03-15T00:00:00	2024-11-08T13:00:00	7	Dirección del viento	9.66
182431	7	Sololá	716	San Marcos la Laguna 	11	San Marcos la laguna 	3	Marzo	2023-03-15T00:00:00	2024-11-08T13:00:00	1	Precipitación	0
182432	7	Sololá	716	San Marcos la Laguna 	11	San Marcos la laguna 	3	Marzo	2023-03-15T00:00:00	2024-11-08T13:00:00	8	Radiación solar	332
182433	7	Sololá	716	San Marcos la Laguna 	11	San Marcos la laguna 	3	Marzo	2023-03-15T00:00:00	2024-11-08T14:00:00	2	Temperatura media	20.8
182434	7	Sololá	716	San Marcos la Laguna 	11	San Marcos la laguna 	3	Marzo	2023-03-15T00:00:00	2024-11-08T14:00:00	4	Temperatura máxima	23.6
182435	7	Sololá	716	San Marcos la Laguna 	11	San Marcos la laguna 	3	Marzo	2023-03-15T00:00:00	2024-11-08T14:00:00	3	Temperatura mínima	20.8
182436	7	Sololá	716	San Marcos la Laguna 	11	San Marcos la laguna 	3	Marzo	2023-03-15T00:00:00	2024-11-08T14:00:00	5	Humedad	86
182437	7	Sololá	716	San Marcos la Laguna 	11	San Marcos la laguna 	3	Marzo	2023-03-15T00:00:00	2024-11-08T14:00:00	6	Velocidad del viento	4.8
182438	7	Sololá	716	San Marcos la Laguna 	11	San Marcos la laguna 	3	Marzo	2023-03-15T00:00:00	2024-11-08T14:00:00	7	Dirección del viento	4.83
182439	7	Sololá	716	San Marcos la Laguna 	11	San Marcos la laguna 	3	Marzo	2023-03-15T00:00:00	2024-11-08T14:00:00	1	Precipitación	2.8
182440	7	Sololá	716	San Marcos la Laguna 	11	San Marcos la laguna 	3	Marzo	2023-03-15T00:00:00	2024-11-08T14:00:00	8	Radiación solar	426
182441	7	Sololá	716	San Marcos la Laguna 	11	San Marcos la laguna 	3	Marzo	2023-03-15T00:00:00	2024-11-08T15:00:00	2	Temperatura media	21.4
182442	7	Sololá	716	San Marcos la Laguna 	11	San Marcos la laguna 	3	Marzo	2023-03-15T00:00:00	2024-11-08T15:00:00	4	Temperatura máxima	21.6
182443	7	Sololá	716	San Marcos la Laguna 	11	San Marcos la laguna 	3	Marzo	2023-03-15T00:00:00	2024-11-08T15:00:00	3	Temperatura mínima	20.8
182444	7	Sololá	716	San Marcos la Laguna 	11	San Marcos la laguna 	3	Marzo	2023-03-15T00:00:00	2024-11-08T15:00:00	5	Humedad	80
182445	7	Sololá	716	San Marcos la Laguna 	11	San Marcos la laguna 	3	Marzo	2023-03-15T00:00:00	2024-11-08T15:00:00	6	Velocidad del viento	3.2
182446	7	Sololá	716	San Marcos la Laguna 	11	San Marcos la laguna 	3	Marzo	2023-03-15T00:00:00	2024-11-08T15:00:00	7	Dirección del viento	3.22
182447	7	Sololá	716	San Marcos la Laguna 	11	San Marcos la laguna 	3	Marzo	2023-03-15T00:00:00	2024-11-08T15:00:00	1	Precipitación	0.2
182448	7	Sololá	716	San Marcos la Laguna 	11	San Marcos la laguna 	3	Marzo	2023-03-15T00:00:00	2024-11-08T15:00:00	8	Radiación solar	469
182449	7	Sololá	716	San Marcos la Laguna 	11	San Marcos la laguna 	3	Marzo	2023-03-15T00:00:00	2024-11-08T16:00:00	2	Temperatura media	20.6
182450	7	Sololá	716	San Marcos la Laguna 	11	San Marcos la laguna 	3	Marzo	2023-03-15T00:00:00	2024-11-08T16:00:00	4	Temperatura máxima	21.9
182451	7	Sololá	716	San Marcos la Laguna 	11	San Marcos la laguna 	3	Marzo	2023-03-15T00:00:00	2024-11-08T16:00:00	3	Temperatura mínima	20.6
182452	7	Sololá	716	San Marcos la Laguna 	11	San Marcos la laguna 	3	Marzo	2023-03-15T00:00:00	2024-11-08T16:00:00	5	Humedad	84
182453	7	Sololá	716	San Marcos la Laguna 	11	San Marcos la laguna 	3	Marzo	2023-03-15T00:00:00	2024-11-08T16:00:00	6	Velocidad del viento	3.2
182454	7	Sololá	716	San Marcos la Laguna 	11	San Marcos la laguna 	3	Marzo	2023-03-15T00:00:00	2024-11-08T16:00:00	7	Dirección del viento	3.22
182455	7	Sololá	716	San Marcos la Laguna 	11	San Marcos la laguna 	3	Marzo	2023-03-15T00:00:00	2024-11-08T16:00:00	1	Precipitación	0
182456	7	Sololá	716	San Marcos la Laguna 	11	San Marcos la laguna 	3	Marzo	2023-03-15T00:00:00	2024-11-08T16:00:00	8	Radiación solar	197
182457	7	Sololá	716	San Marcos la Laguna 	11	San Marcos la laguna 	3	Marzo	2023-03-15T00:00:00	2024-11-08T17:00:00	2	Temperatura media	18.6
182458	7	Sololá	716	San Marcos la Laguna 	11	San Marcos la laguna 	3	Marzo	2023-03-15T00:00:00	2024-11-08T17:00:00	4	Temperatura máxima	20.6
182459	7	Sololá	716	San Marcos la Laguna 	11	San Marcos la laguna 	3	Marzo	2023-03-15T00:00:00	2024-11-08T17:00:00	3	Temperatura mínima	18.3
182460	7	Sololá	716	San Marcos la Laguna 	11	San Marcos la laguna 	3	Marzo	2023-03-15T00:00:00	2024-11-08T17:00:00	5	Humedad	87
182461	7	Sololá	716	San Marcos la Laguna 	11	San Marcos la laguna 	3	Marzo	2023-03-15T00:00:00	2024-11-08T17:00:00	6	Velocidad del viento	6.4
182462	7	Sololá	716	San Marcos la Laguna 	11	San Marcos la laguna 	3	Marzo	2023-03-15T00:00:00	2024-11-08T17:00:00	7	Dirección del viento	6.44
182463	7	Sololá	716	San Marcos la Laguna 	11	San Marcos la laguna 	3	Marzo	2023-03-15T00:00:00	2024-11-08T17:00:00	1	Precipitación	0.6
182464	7	Sololá	716	San Marcos la Laguna 	11	San Marcos la laguna 	3	Marzo	2023-03-15T00:00:00	2024-11-08T17:00:00	8	Radiación solar	62
182465	7	Sololá	716	San Marcos la Laguna 	11	San Marcos la laguna 	3	Marzo	2023-03-15T00:00:00	2024-11-08T18:00:00	2	Temperatura media	17.2
182466	7	Sololá	716	San Marcos la Laguna 	11	San Marcos la laguna 	3	Marzo	2023-03-15T00:00:00	2024-11-08T18:00:00	4	Temperatura máxima	18.6
182467	7	Sololá	716	San Marcos la Laguna 	11	San Marcos la laguna 	3	Marzo	2023-03-15T00:00:00	2024-11-08T18:00:00	3	Temperatura mínima	17.2
182468	7	Sololá	716	San Marcos la Laguna 	11	San Marcos la laguna 	3	Marzo	2023-03-15T00:00:00	2024-11-08T18:00:00	5	Humedad	89
182469	7	Sololá	716	San Marcos la Laguna 	11	San Marcos la laguna 	3	Marzo	2023-03-15T00:00:00	2024-11-08T18:00:00	6	Velocidad del viento	4.8
182470	7	Sololá	716	San Marcos la Laguna 	11	San Marcos la laguna 	3	Marzo	2023-03-15T00:00:00	2024-11-08T18:00:00	7	Dirección del viento	4.83
182471	7	Sololá	716	San Marcos la Laguna 	11	San Marcos la laguna 	3	Marzo	2023-03-15T00:00:00	2024-11-08T18:00:00	1	Precipitación	2
182472	7	Sololá	716	San Marcos la Laguna 	11	San Marcos la laguna 	3	Marzo	2023-03-15T00:00:00	2024-11-08T18:00:00	8	Radiación solar	56
182473	7	Sololá	716	San Marcos la Laguna 	11	San Marcos la laguna 	3	Marzo	2023-03-15T00:00:00	2024-11-08T19:00:00	2	Temperatura media	16.6
182474	7	Sololá	716	San Marcos la Laguna 	11	San Marcos la laguna 	3	Marzo	2023-03-15T00:00:00	2024-11-08T19:00:00	4	Temperatura máxima	17.2
182475	7	Sololá	716	San Marcos la Laguna 	11	San Marcos la laguna 	3	Marzo	2023-03-15T00:00:00	2024-11-08T19:00:00	3	Temperatura mínima	16.6
182476	7	Sololá	716	San Marcos la Laguna 	11	San Marcos la laguna 	3	Marzo	2023-03-15T00:00:00	2024-11-08T19:00:00	5	Humedad	91
182477	7	Sololá	716	San Marcos la Laguna 	11	San Marcos la laguna 	3	Marzo	2023-03-15T00:00:00	2024-11-08T19:00:00	6	Velocidad del viento	3.2
182478	7	Sololá	716	San Marcos la Laguna 	11	San Marcos la laguna 	3	Marzo	2023-03-15T00:00:00	2024-11-08T19:00:00	7	Dirección del viento	3.22
182479	7	Sololá	716	San Marcos la Laguna 	11	San Marcos la laguna 	3	Marzo	2023-03-15T00:00:00	2024-11-08T19:00:00	1	Precipitación	0.2
182480	7	Sololá	716	San Marcos la Laguna 	11	San Marcos la laguna 	3	Marzo	2023-03-15T00:00:00	2024-11-08T19:00:00	8	Radiación solar	0
182481	7	Sololá	716	San Marcos la Laguna 	11	San Marcos la laguna 	3	Marzo	2023-03-15T00:00:00	2024-11-08T20:00:00	2	Temperatura media	15.7
182482	7	Sololá	716	San Marcos la Laguna 	11	San Marcos la laguna 	3	Marzo	2023-03-15T00:00:00	2024-11-08T20:00:00	4	Temperatura máxima	16.6
182483	7	Sololá	716	San Marcos la Laguna 	11	San Marcos la laguna 	3	Marzo	2023-03-15T00:00:00	2024-11-08T20:00:00	3	Temperatura mínima	15.7
182484	7	Sololá	716	San Marcos la Laguna 	11	San Marcos la laguna 	3	Marzo	2023-03-15T00:00:00	2024-11-08T20:00:00	5	Humedad	84
182485	7	Sololá	716	San Marcos la Laguna 	11	San Marcos la laguna 	3	Marzo	2023-03-15T00:00:00	2024-11-08T20:00:00	6	Velocidad del viento	6.4
182486	7	Sololá	716	San Marcos la Laguna 	11	San Marcos la laguna 	3	Marzo	2023-03-15T00:00:00	2024-11-08T20:00:00	7	Dirección del viento	6.44
182487	7	Sololá	716	San Marcos la Laguna 	11	San Marcos la laguna 	3	Marzo	2023-03-15T00:00:00	2024-11-08T20:00:00	1	Precipitación	0
182488	7	Sololá	716	San Marcos la Laguna 	11	San Marcos la laguna 	3	Marzo	2023-03-15T00:00:00	2024-11-08T20:00:00	8	Radiación solar	0
182489	7	Sololá	716	San Marcos la Laguna 	11	San Marcos la laguna 	3	Marzo	2023-03-15T00:00:00	2024-11-08T21:00:00	2	Temperatura media	15.6
182490	7	Sololá	716	San Marcos la Laguna 	11	San Marcos la laguna 	3	Marzo	2023-03-15T00:00:00	2024-11-08T21:00:00	4	Temperatura máxima	15.9
182491	7	Sololá	716	San Marcos la Laguna 	11	San Marcos la laguna 	3	Marzo	2023-03-15T00:00:00	2024-11-08T21:00:00	3	Temperatura mínima	14.9
182492	7	Sololá	716	San Marcos la Laguna 	11	San Marcos la laguna 	3	Marzo	2023-03-15T00:00:00	2024-11-08T21:00:00	5	Humedad	84
182493	7	Sololá	716	San Marcos la Laguna 	11	San Marcos la laguna 	3	Marzo	2023-03-15T00:00:00	2024-11-08T21:00:00	6	Velocidad del viento	6.4
182494	7	Sololá	716	San Marcos la Laguna 	11	San Marcos la laguna 	3	Marzo	2023-03-15T00:00:00	2024-11-08T21:00:00	7	Dirección del viento	6.44
182495	7	Sololá	716	San Marcos la Laguna 	11	San Marcos la laguna 	3	Marzo	2023-03-15T00:00:00	2024-11-08T21:00:00	1	Precipitación	0
182496	7	Sololá	716	San Marcos la Laguna 	11	San Marcos la laguna 	3	Marzo	2023-03-15T00:00:00	2024-11-08T21:00:00	8	Radiación solar	0
182497	7	Sololá	716	San Marcos la Laguna 	11	San Marcos la laguna 	3	Marzo	2023-03-15T00:00:00	2024-11-08T22:00:00	2	Temperatura media	15.4
182498	7	Sololá	716	San Marcos la Laguna 	11	San Marcos la laguna 	3	Marzo	2023-03-15T00:00:00	2024-11-08T22:00:00	4	Temperatura máxima	15.9
182499	7	Sololá	716	San Marcos la Laguna 	11	San Marcos la laguna 	3	Marzo	2023-03-15T00:00:00	2024-11-08T22:00:00	3	Temperatura mínima	15.1
182500	7	Sololá	716	San Marcos la Laguna 	11	San Marcos la laguna 	3	Marzo	2023-03-15T00:00:00	2024-11-08T22:00:00	5	Humedad	85
182501	7	Sololá	716	San Marcos la Laguna 	11	San Marcos la laguna 	3	Marzo	2023-03-15T00:00:00	2024-11-08T22:00:00	6	Velocidad del viento	8
182502	7	Sololá	716	San Marcos la Laguna 	11	San Marcos la laguna 	3	Marzo	2023-03-15T00:00:00	2024-11-08T22:00:00	7	Dirección del viento	8.05
182503	7	Sololá	716	San Marcos la Laguna 	11	San Marcos la laguna 	3	Marzo	2023-03-15T00:00:00	2024-11-08T22:00:00	1	Precipitación	0
182504	7	Sololá	716	San Marcos la Laguna 	11	San Marcos la laguna 	3	Marzo	2023-03-15T00:00:00	2024-11-08T22:00:00	8	Radiación solar	0
182505	7	Sololá	716	San Marcos la Laguna 	11	San Marcos la laguna 	3	Marzo	2023-03-15T00:00:00	2024-11-08T23:00:00	2	Temperatura media	15.6
182506	7	Sololá	716	San Marcos la Laguna 	11	San Marcos la laguna 	3	Marzo	2023-03-15T00:00:00	2024-11-08T23:00:00	4	Temperatura máxima	16.2
182507	7	Sololá	716	San Marcos la Laguna 	11	San Marcos la laguna 	3	Marzo	2023-03-15T00:00:00	2024-11-08T23:00:00	3	Temperatura mínima	15.1
182508	7	Sololá	716	San Marcos la Laguna 	11	San Marcos la laguna 	3	Marzo	2023-03-15T00:00:00	2024-11-08T23:00:00	5	Humedad	85
182509	7	Sololá	716	San Marcos la Laguna 	11	San Marcos la laguna 	3	Marzo	2023-03-15T00:00:00	2024-11-08T23:00:00	6	Velocidad del viento	9.7
182510	7	Sololá	716	San Marcos la Laguna 	11	San Marcos la laguna 	3	Marzo	2023-03-15T00:00:00	2024-11-08T23:00:00	7	Dirección del viento	9.66
182511	7	Sololá	716	San Marcos la Laguna 	11	San Marcos la laguna 	3	Marzo	2023-03-15T00:00:00	2024-11-08T23:00:00	1	Precipitación	0
182512	7	Sololá	716	San Marcos la Laguna 	11	San Marcos la laguna 	3	Marzo	2023-03-15T00:00:00	2024-11-08T23:00:00	8	Radiación solar	0
182513	7	Sololá	716	San Marcos la Laguna 	11	San Marcos la laguna 	3	Marzo	2023-03-16T00:00:00	2024-11-08T00:00:00	2	Temperatura media	16.8
182514	7	Sololá	716	San Marcos la Laguna 	11	San Marcos la laguna 	3	Marzo	2023-03-16T00:00:00	2024-11-08T00:00:00	4	Temperatura máxima	18.8
182515	7	Sololá	716	San Marcos la Laguna 	11	San Marcos la laguna 	3	Marzo	2023-03-16T00:00:00	2024-11-08T00:00:00	3	Temperatura mínima	16.8
182516	7	Sololá	716	San Marcos la Laguna 	11	San Marcos la laguna 	3	Marzo	2023-03-16T00:00:00	2024-11-08T00:00:00	5	Humedad	72
182517	7	Sololá	716	San Marcos la Laguna 	11	San Marcos la laguna 	3	Marzo	2023-03-16T00:00:00	2024-11-08T00:00:00	6	Velocidad del viento	4.8
182518	7	Sololá	716	San Marcos la Laguna 	11	San Marcos la laguna 	3	Marzo	2023-03-16T00:00:00	2024-11-08T00:00:00	7	Dirección del viento	4.83
182519	7	Sololá	716	San Marcos la Laguna 	11	San Marcos la laguna 	3	Marzo	2023-03-16T00:00:00	2024-11-08T00:00:00	1	Precipitación	0
182520	7	Sololá	716	San Marcos la Laguna 	11	San Marcos la laguna 	3	Marzo	2023-03-16T00:00:00	2024-11-08T00:00:00	8	Radiación solar	0
182521	7	Sololá	716	San Marcos la Laguna 	11	San Marcos la laguna 	3	Marzo	2023-03-16T00:00:00	2024-11-08T01:00:00	2	Temperatura media	16.1
182522	7	Sololá	716	San Marcos la Laguna 	11	San Marcos la laguna 	3	Marzo	2023-03-16T00:00:00	2024-11-08T01:00:00	4	Temperatura máxima	16.1
182523	7	Sololá	716	San Marcos la Laguna 	11	San Marcos la laguna 	3	Marzo	2023-03-16T00:00:00	2024-11-08T01:00:00	3	Temperatura mínima	14.9
182524	7	Sololá	716	San Marcos la Laguna 	11	San Marcos la laguna 	3	Marzo	2023-03-16T00:00:00	2024-11-08T01:00:00	5	Humedad	80
182525	7	Sololá	716	San Marcos la Laguna 	11	San Marcos la laguna 	3	Marzo	2023-03-16T00:00:00	2024-11-08T01:00:00	6	Velocidad del viento	9.7
182526	7	Sololá	716	San Marcos la Laguna 	11	San Marcos la laguna 	3	Marzo	2023-03-16T00:00:00	2024-11-08T01:00:00	7	Dirección del viento	9.66
182527	7	Sololá	716	San Marcos la Laguna 	11	San Marcos la laguna 	3	Marzo	2023-03-16T00:00:00	2024-11-08T01:00:00	1	Precipitación	0
182528	7	Sololá	716	San Marcos la Laguna 	11	San Marcos la laguna 	3	Marzo	2023-03-16T00:00:00	2024-11-08T01:00:00	8	Radiación solar	0
182529	7	Sololá	716	San Marcos la Laguna 	11	San Marcos la laguna 	3	Marzo	2023-03-16T00:00:00	2024-11-08T02:00:00	2	Temperatura media	15.2
182530	7	Sololá	716	San Marcos la Laguna 	11	San Marcos la laguna 	3	Marzo	2023-03-16T00:00:00	2024-11-08T02:00:00	4	Temperatura máxima	16
182531	7	Sololá	716	San Marcos la Laguna 	11	San Marcos la laguna 	3	Marzo	2023-03-16T00:00:00	2024-11-08T02:00:00	3	Temperatura mínima	15.2
182532	7	Sololá	716	San Marcos la Laguna 	11	San Marcos la laguna 	3	Marzo	2023-03-16T00:00:00	2024-11-08T02:00:00	5	Humedad	83
182533	7	Sololá	716	San Marcos la Laguna 	11	San Marcos la laguna 	3	Marzo	2023-03-16T00:00:00	2024-11-08T02:00:00	6	Velocidad del viento	8
182534	7	Sololá	716	San Marcos la Laguna 	11	San Marcos la laguna 	3	Marzo	2023-03-16T00:00:00	2024-11-08T02:00:00	7	Dirección del viento	8.05
182535	7	Sololá	716	San Marcos la Laguna 	11	San Marcos la laguna 	3	Marzo	2023-03-16T00:00:00	2024-11-08T02:00:00	1	Precipitación	0
182536	7	Sololá	716	San Marcos la Laguna 	11	San Marcos la laguna 	3	Marzo	2023-03-16T00:00:00	2024-11-08T02:00:00	8	Radiación solar	0
182537	7	Sololá	716	San Marcos la Laguna 	11	San Marcos la laguna 	3	Marzo	2023-03-16T00:00:00	2024-11-08T03:00:00	2	Temperatura media	14.7
182538	7	Sololá	716	San Marcos la Laguna 	11	San Marcos la laguna 	3	Marzo	2023-03-16T00:00:00	2024-11-08T03:00:00	4	Temperatura máxima	15.3
182539	7	Sololá	716	San Marcos la Laguna 	11	San Marcos la laguna 	3	Marzo	2023-03-16T00:00:00	2024-11-08T03:00:00	3	Temperatura mínima	14.2
182540	7	Sololá	716	San Marcos la Laguna 	11	San Marcos la laguna 	3	Marzo	2023-03-16T00:00:00	2024-11-08T03:00:00	5	Humedad	83
182541	7	Sololá	716	San Marcos la Laguna 	11	San Marcos la laguna 	3	Marzo	2023-03-16T00:00:00	2024-11-08T03:00:00	6	Velocidad del viento	9.7
182542	7	Sololá	716	San Marcos la Laguna 	11	San Marcos la laguna 	3	Marzo	2023-03-16T00:00:00	2024-11-08T03:00:00	7	Dirección del viento	9.66
182543	7	Sololá	716	San Marcos la Laguna 	11	San Marcos la laguna 	3	Marzo	2023-03-16T00:00:00	2024-11-08T03:00:00	1	Precipitación	0
182544	7	Sololá	716	San Marcos la Laguna 	11	San Marcos la laguna 	3	Marzo	2023-03-16T00:00:00	2024-11-08T03:00:00	8	Radiación solar	0
182545	7	Sololá	716	San Marcos la Laguna 	11	San Marcos la laguna 	3	Marzo	2023-03-16T00:00:00	2024-11-08T04:00:00	2	Temperatura media	15.4
182546	7	Sololá	716	San Marcos la Laguna 	11	San Marcos la laguna 	3	Marzo	2023-03-16T00:00:00	2024-11-08T04:00:00	4	Temperatura máxima	15.5
182547	7	Sololá	716	San Marcos la Laguna 	11	San Marcos la laguna 	3	Marzo	2023-03-16T00:00:00	2024-11-08T04:00:00	3	Temperatura mínima	14.6
182548	7	Sololá	716	San Marcos la Laguna 	11	San Marcos la laguna 	3	Marzo	2023-03-16T00:00:00	2024-11-08T04:00:00	5	Humedad	79
182549	7	Sololá	716	San Marcos la Laguna 	11	San Marcos la laguna 	3	Marzo	2023-03-16T00:00:00	2024-11-08T04:00:00	6	Velocidad del viento	9.7
182550	7	Sololá	716	San Marcos la Laguna 	11	San Marcos la laguna 	3	Marzo	2023-03-16T00:00:00	2024-11-08T04:00:00	7	Dirección del viento	9.66
182551	7	Sololá	716	San Marcos la Laguna 	11	San Marcos la laguna 	3	Marzo	2023-03-16T00:00:00	2024-11-08T04:00:00	1	Precipitación	0
182552	7	Sololá	716	San Marcos la Laguna 	11	San Marcos la laguna 	3	Marzo	2023-03-16T00:00:00	2024-11-08T04:00:00	8	Radiación solar	0
182553	7	Sololá	716	San Marcos la Laguna 	11	San Marcos la laguna 	3	Marzo	2023-03-16T00:00:00	2024-11-08T05:00:00	2	Temperatura media	13.8
182554	7	Sololá	716	San Marcos la Laguna 	11	San Marcos la laguna 	3	Marzo	2023-03-16T00:00:00	2024-11-08T05:00:00	4	Temperatura máxima	15.4
182555	7	Sololá	716	San Marcos la Laguna 	11	San Marcos la laguna 	3	Marzo	2023-03-16T00:00:00	2024-11-08T05:00:00	3	Temperatura mínima	13.8
182556	7	Sololá	716	San Marcos la Laguna 	11	San Marcos la laguna 	3	Marzo	2023-03-16T00:00:00	2024-11-08T05:00:00	5	Humedad	85
182557	7	Sololá	716	San Marcos la Laguna 	11	San Marcos la laguna 	3	Marzo	2023-03-16T00:00:00	2024-11-08T05:00:00	6	Velocidad del viento	6.4
182558	7	Sololá	716	San Marcos la Laguna 	11	San Marcos la laguna 	3	Marzo	2023-03-16T00:00:00	2024-11-08T05:00:00	7	Dirección del viento	6.44
182559	7	Sololá	716	San Marcos la Laguna 	11	San Marcos la laguna 	3	Marzo	2023-03-16T00:00:00	2024-11-08T05:00:00	1	Precipitación	0
182560	7	Sololá	716	San Marcos la Laguna 	11	San Marcos la laguna 	3	Marzo	2023-03-16T00:00:00	2024-11-08T05:00:00	8	Radiación solar	0
182561	7	Sololá	716	San Marcos la Laguna 	11	San Marcos la laguna 	3	Marzo	2023-03-16T00:00:00	2024-11-08T06:00:00	2	Temperatura media	14
182562	7	Sololá	716	San Marcos la Laguna 	11	San Marcos la laguna 	3	Marzo	2023-03-16T00:00:00	2024-11-08T06:00:00	4	Temperatura máxima	14.4
182563	7	Sololá	716	San Marcos la Laguna 	11	San Marcos la laguna 	3	Marzo	2023-03-16T00:00:00	2024-11-08T06:00:00	3	Temperatura mínima	13.8
182564	7	Sololá	716	San Marcos la Laguna 	11	San Marcos la laguna 	3	Marzo	2023-03-16T00:00:00	2024-11-08T06:00:00	5	Humedad	84
182565	7	Sololá	716	San Marcos la Laguna 	11	San Marcos la laguna 	3	Marzo	2023-03-16T00:00:00	2024-11-08T06:00:00	6	Velocidad del viento	8
182566	7	Sololá	716	San Marcos la Laguna 	11	San Marcos la laguna 	3	Marzo	2023-03-16T00:00:00	2024-11-08T06:00:00	7	Dirección del viento	8.05
182567	7	Sololá	716	San Marcos la Laguna 	11	San Marcos la laguna 	3	Marzo	2023-03-16T00:00:00	2024-11-08T06:00:00	1	Precipitación	0
182568	7	Sololá	716	San Marcos la Laguna 	11	San Marcos la laguna 	3	Marzo	2023-03-16T00:00:00	2024-11-08T06:00:00	8	Radiación solar	0
182569	7	Sololá	716	San Marcos la Laguna 	11	San Marcos la laguna 	3	Marzo	2023-03-16T00:00:00	2024-11-08T07:00:00	2	Temperatura media	14.3
182570	7	Sololá	716	San Marcos la Laguna 	11	San Marcos la laguna 	3	Marzo	2023-03-16T00:00:00	2024-11-08T07:00:00	4	Temperatura máxima	14.3
182571	7	Sololá	716	San Marcos la Laguna 	11	San Marcos la laguna 	3	Marzo	2023-03-16T00:00:00	2024-11-08T07:00:00	3	Temperatura mínima	13.6
182572	7	Sololá	716	San Marcos la Laguna 	11	San Marcos la laguna 	3	Marzo	2023-03-16T00:00:00	2024-11-08T07:00:00	5	Humedad	85
182573	7	Sololá	716	San Marcos la Laguna 	11	San Marcos la laguna 	3	Marzo	2023-03-16T00:00:00	2024-11-08T07:00:00	6	Velocidad del viento	6.4
182574	7	Sololá	716	San Marcos la Laguna 	11	San Marcos la laguna 	3	Marzo	2023-03-16T00:00:00	2024-11-08T07:00:00	7	Dirección del viento	6.44
182575	7	Sololá	716	San Marcos la Laguna 	11	San Marcos la laguna 	3	Marzo	2023-03-16T00:00:00	2024-11-08T07:00:00	1	Precipitación	0
182576	7	Sololá	716	San Marcos la Laguna 	11	San Marcos la laguna 	3	Marzo	2023-03-16T00:00:00	2024-11-08T07:00:00	8	Radiación solar	19
182577	7	Sololá	716	San Marcos la Laguna 	11	San Marcos la laguna 	3	Marzo	2023-03-16T00:00:00	2024-11-08T08:00:00	2	Temperatura media	17.8
182578	7	Sololá	716	San Marcos la Laguna 	11	San Marcos la laguna 	3	Marzo	2023-03-16T00:00:00	2024-11-08T08:00:00	4	Temperatura máxima	17.8
182579	7	Sololá	716	San Marcos la Laguna 	11	San Marcos la laguna 	3	Marzo	2023-03-16T00:00:00	2024-11-08T08:00:00	3	Temperatura mínima	14.3
182580	7	Sololá	716	San Marcos la Laguna 	11	San Marcos la laguna 	3	Marzo	2023-03-16T00:00:00	2024-11-08T08:00:00	5	Humedad	76
182581	7	Sololá	716	San Marcos la Laguna 	11	San Marcos la laguna 	3	Marzo	2023-03-16T00:00:00	2024-11-08T08:00:00	6	Velocidad del viento	4.8
182582	7	Sololá	716	San Marcos la Laguna 	11	San Marcos la laguna 	3	Marzo	2023-03-16T00:00:00	2024-11-08T08:00:00	7	Dirección del viento	4.83
182583	7	Sololá	716	San Marcos la Laguna 	11	San Marcos la laguna 	3	Marzo	2023-03-16T00:00:00	2024-11-08T08:00:00	1	Precipitación	0
182584	7	Sololá	716	San Marcos la Laguna 	11	San Marcos la laguna 	3	Marzo	2023-03-16T00:00:00	2024-11-08T08:00:00	8	Radiación solar	170
182585	7	Sololá	716	San Marcos la Laguna 	11	San Marcos la laguna 	3	Marzo	2023-03-16T00:00:00	2024-11-08T09:00:00	2	Temperatura media	20
182586	7	Sololá	716	San Marcos la Laguna 	11	San Marcos la laguna 	3	Marzo	2023-03-16T00:00:00	2024-11-08T09:00:00	4	Temperatura máxima	20
182587	7	Sololá	716	San Marcos la Laguna 	11	San Marcos la laguna 	3	Marzo	2023-03-16T00:00:00	2024-11-08T09:00:00	3	Temperatura mínima	17.9
182588	7	Sololá	716	San Marcos la Laguna 	11	San Marcos la laguna 	3	Marzo	2023-03-16T00:00:00	2024-11-08T09:00:00	5	Humedad	69
182589	7	Sololá	716	San Marcos la Laguna 	11	San Marcos la laguna 	3	Marzo	2023-03-16T00:00:00	2024-11-08T09:00:00	6	Velocidad del viento	1.6
182590	7	Sololá	716	San Marcos la Laguna 	11	San Marcos la laguna 	3	Marzo	2023-03-16T00:00:00	2024-11-08T09:00:00	7	Dirección del viento	1.61
182591	7	Sololá	716	San Marcos la Laguna 	11	San Marcos la laguna 	3	Marzo	2023-03-16T00:00:00	2024-11-08T09:00:00	1	Precipitación	0
182592	7	Sololá	716	San Marcos la Laguna 	11	San Marcos la laguna 	3	Marzo	2023-03-16T00:00:00	2024-11-08T09:00:00	8	Radiación solar	428
182593	7	Sololá	716	San Marcos la Laguna 	11	San Marcos la laguna 	3	Marzo	2023-03-16T00:00:00	2024-11-08T10:00:00	2	Temperatura media	21.9
182594	7	Sololá	716	San Marcos la Laguna 	11	San Marcos la laguna 	3	Marzo	2023-03-16T00:00:00	2024-11-08T10:00:00	4	Temperatura máxima	21.9
182595	7	Sololá	716	San Marcos la Laguna 	11	San Marcos la laguna 	3	Marzo	2023-03-16T00:00:00	2024-11-08T10:00:00	3	Temperatura mínima	19.9
182596	7	Sololá	716	San Marcos la Laguna 	11	San Marcos la laguna 	3	Marzo	2023-03-16T00:00:00	2024-11-08T10:00:00	5	Humedad	60
182597	7	Sololá	716	San Marcos la Laguna 	11	San Marcos la laguna 	3	Marzo	2023-03-16T00:00:00	2024-11-08T10:00:00	6	Velocidad del viento	3.2
182598	7	Sololá	716	San Marcos la Laguna 	11	San Marcos la laguna 	3	Marzo	2023-03-16T00:00:00	2024-11-08T10:00:00	7	Dirección del viento	3.22
182599	7	Sololá	716	San Marcos la Laguna 	11	San Marcos la laguna 	3	Marzo	2023-03-16T00:00:00	2024-11-08T10:00:00	1	Precipitación	0
182600	7	Sololá	716	San Marcos la Laguna 	11	San Marcos la laguna 	3	Marzo	2023-03-16T00:00:00	2024-11-08T10:00:00	8	Radiación solar	635
182601	7	Sololá	716	San Marcos la Laguna 	11	San Marcos la laguna 	3	Marzo	2023-03-16T00:00:00	2024-11-08T11:00:00	2	Temperatura media	21.3
182602	7	Sololá	716	San Marcos la Laguna 	11	San Marcos la laguna 	3	Marzo	2023-03-16T00:00:00	2024-11-08T11:00:00	4	Temperatura máxima	22.1
182603	7	Sololá	716	San Marcos la Laguna 	11	San Marcos la laguna 	3	Marzo	2023-03-16T00:00:00	2024-11-08T11:00:00	3	Temperatura mínima	21
182604	7	Sololá	716	San Marcos la Laguna 	11	San Marcos la laguna 	3	Marzo	2023-03-16T00:00:00	2024-11-08T11:00:00	5	Humedad	69
182605	7	Sololá	716	San Marcos la Laguna 	11	San Marcos la laguna 	3	Marzo	2023-03-16T00:00:00	2024-11-08T11:00:00	6	Velocidad del viento	8
182606	7	Sololá	716	San Marcos la Laguna 	11	San Marcos la laguna 	3	Marzo	2023-03-16T00:00:00	2024-11-08T11:00:00	7	Dirección del viento	8.05
182607	7	Sololá	716	San Marcos la Laguna 	11	San Marcos la laguna 	3	Marzo	2023-03-16T00:00:00	2024-11-08T11:00:00	1	Precipitación	0
182608	7	Sololá	716	San Marcos la Laguna 	11	San Marcos la laguna 	3	Marzo	2023-03-16T00:00:00	2024-11-08T11:00:00	8	Radiación solar	783
182609	7	Sololá	716	San Marcos la Laguna 	11	San Marcos la laguna 	3	Marzo	2023-03-16T00:00:00	2024-11-08T12:00:00	2	Temperatura media	21.7
182610	7	Sololá	716	San Marcos la Laguna 	11	San Marcos la laguna 	3	Marzo	2023-03-16T00:00:00	2024-11-08T12:00:00	4	Temperatura máxima	21.8
182611	7	Sololá	716	San Marcos la Laguna 	11	San Marcos la laguna 	3	Marzo	2023-03-16T00:00:00	2024-11-08T12:00:00	3	Temperatura mínima	21.3
182612	7	Sololá	716	San Marcos la Laguna 	11	San Marcos la laguna 	3	Marzo	2023-03-16T00:00:00	2024-11-08T12:00:00	5	Humedad	70
182613	7	Sololá	716	San Marcos la Laguna 	11	San Marcos la laguna 	3	Marzo	2023-03-16T00:00:00	2024-11-08T12:00:00	6	Velocidad del viento	12.9
182614	7	Sololá	716	San Marcos la Laguna 	11	San Marcos la laguna 	3	Marzo	2023-03-16T00:00:00	2024-11-08T12:00:00	7	Dirección del viento	12.87
182615	7	Sololá	716	San Marcos la Laguna 	11	San Marcos la laguna 	3	Marzo	2023-03-16T00:00:00	2024-11-08T12:00:00	1	Precipitación	0
182616	7	Sololá	716	San Marcos la Laguna 	11	San Marcos la laguna 	3	Marzo	2023-03-16T00:00:00	2024-11-08T12:00:00	8	Radiación solar	843
182617	7	Sololá	716	San Marcos la Laguna 	11	San Marcos la laguna 	3	Marzo	2023-03-16T00:00:00	2024-11-08T13:00:00	2	Temperatura media	21.8
182618	7	Sololá	716	San Marcos la Laguna 	11	San Marcos la laguna 	3	Marzo	2023-03-16T00:00:00	2024-11-08T13:00:00	4	Temperatura máxima	21.8
182619	7	Sololá	716	San Marcos la Laguna 	11	San Marcos la laguna 	3	Marzo	2023-03-16T00:00:00	2024-11-08T13:00:00	3	Temperatura mínima	21.4
182620	7	Sololá	716	San Marcos la Laguna 	11	San Marcos la laguna 	3	Marzo	2023-03-16T00:00:00	2024-11-08T13:00:00	5	Humedad	76
182621	7	Sololá	716	San Marcos la Laguna 	11	San Marcos la laguna 	3	Marzo	2023-03-16T00:00:00	2024-11-08T13:00:00	6	Velocidad del viento	11.3
182622	7	Sololá	716	San Marcos la Laguna 	11	San Marcos la laguna 	3	Marzo	2023-03-16T00:00:00	2024-11-08T13:00:00	7	Dirección del viento	11.27
182623	7	Sololá	716	San Marcos la Laguna 	11	San Marcos la laguna 	3	Marzo	2023-03-16T00:00:00	2024-11-08T13:00:00	1	Precipitación	0
182624	7	Sololá	716	San Marcos la Laguna 	11	San Marcos la laguna 	3	Marzo	2023-03-16T00:00:00	2024-11-08T13:00:00	8	Radiación solar	948
182625	7	Sololá	716	San Marcos la Laguna 	11	San Marcos la laguna 	3	Marzo	2023-03-16T00:00:00	2024-11-08T14:00:00	2	Temperatura media	22.2
182626	7	Sololá	716	San Marcos la Laguna 	11	San Marcos la laguna 	3	Marzo	2023-03-16T00:00:00	2024-11-08T14:00:00	4	Temperatura máxima	22.3
182627	7	Sololá	716	San Marcos la Laguna 	11	San Marcos la laguna 	3	Marzo	2023-03-16T00:00:00	2024-11-08T14:00:00	3	Temperatura mínima	21.7
182628	7	Sololá	716	San Marcos la Laguna 	11	San Marcos la laguna 	3	Marzo	2023-03-16T00:00:00	2024-11-08T14:00:00	5	Humedad	73
182629	7	Sololá	716	San Marcos la Laguna 	11	San Marcos la laguna 	3	Marzo	2023-03-16T00:00:00	2024-11-08T14:00:00	6	Velocidad del viento	9.7
182630	7	Sololá	716	San Marcos la Laguna 	11	San Marcos la laguna 	3	Marzo	2023-03-16T00:00:00	2024-11-08T14:00:00	7	Dirección del viento	9.66
182631	7	Sololá	716	San Marcos la Laguna 	11	San Marcos la laguna 	3	Marzo	2023-03-16T00:00:00	2024-11-08T14:00:00	1	Precipitación	0
182632	7	Sololá	716	San Marcos la Laguna 	11	San Marcos la laguna 	3	Marzo	2023-03-16T00:00:00	2024-11-08T14:00:00	8	Radiación solar	640
182633	7	Sololá	716	San Marcos la Laguna 	11	San Marcos la laguna 	3	Marzo	2023-03-16T00:00:00	2024-11-08T15:00:00	2	Temperatura media	22.9
182634	7	Sololá	716	San Marcos la Laguna 	11	San Marcos la laguna 	3	Marzo	2023-03-16T00:00:00	2024-11-08T15:00:00	4	Temperatura máxima	22.9
182635	7	Sololá	716	San Marcos la Laguna 	11	San Marcos la laguna 	3	Marzo	2023-03-16T00:00:00	2024-11-08T15:00:00	3	Temperatura mínima	22.2
182636	7	Sololá	716	San Marcos la Laguna 	11	San Marcos la laguna 	3	Marzo	2023-03-16T00:00:00	2024-11-08T15:00:00	5	Humedad	69
182637	7	Sololá	716	San Marcos la Laguna 	11	San Marcos la laguna 	3	Marzo	2023-03-16T00:00:00	2024-11-08T15:00:00	6	Velocidad del viento	8
182638	7	Sololá	716	San Marcos la Laguna 	11	San Marcos la laguna 	3	Marzo	2023-03-16T00:00:00	2024-11-08T15:00:00	7	Dirección del viento	8.05
182639	7	Sololá	716	San Marcos la Laguna 	11	San Marcos la laguna 	3	Marzo	2023-03-16T00:00:00	2024-11-08T15:00:00	1	Precipitación	0
182640	7	Sololá	716	San Marcos la Laguna 	11	San Marcos la laguna 	3	Marzo	2023-03-16T00:00:00	2024-11-08T15:00:00	8	Radiación solar	490
182641	7	Sololá	716	San Marcos la Laguna 	11	San Marcos la laguna 	3	Marzo	2023-03-16T00:00:00	2024-11-08T16:00:00	2	Temperatura media	21.6
182642	7	Sololá	716	San Marcos la Laguna 	11	San Marcos la laguna 	3	Marzo	2023-03-16T00:00:00	2024-11-08T16:00:00	4	Temperatura máxima	22.9
182643	7	Sololá	716	San Marcos la Laguna 	11	San Marcos la laguna 	3	Marzo	2023-03-16T00:00:00	2024-11-08T16:00:00	3	Temperatura mínima	21.6
182644	7	Sololá	716	San Marcos la Laguna 	11	San Marcos la laguna 	3	Marzo	2023-03-16T00:00:00	2024-11-08T16:00:00	5	Humedad	74
182645	7	Sololá	716	San Marcos la Laguna 	11	San Marcos la laguna 	3	Marzo	2023-03-16T00:00:00	2024-11-08T16:00:00	6	Velocidad del viento	8
182646	7	Sololá	716	San Marcos la Laguna 	11	San Marcos la laguna 	3	Marzo	2023-03-16T00:00:00	2024-11-08T16:00:00	7	Dirección del viento	8.05
182647	7	Sololá	716	San Marcos la Laguna 	11	San Marcos la laguna 	3	Marzo	2023-03-16T00:00:00	2024-11-08T16:00:00	1	Precipitación	0
182648	7	Sololá	716	San Marcos la Laguna 	11	San Marcos la laguna 	3	Marzo	2023-03-16T00:00:00	2024-11-08T16:00:00	8	Radiación solar	385
182649	7	Sololá	716	San Marcos la Laguna 	11	San Marcos la laguna 	3	Marzo	2023-03-16T00:00:00	2024-11-08T17:00:00	2	Temperatura media	20.3
182650	7	Sololá	716	San Marcos la Laguna 	11	San Marcos la laguna 	3	Marzo	2023-03-16T00:00:00	2024-11-08T17:00:00	4	Temperatura máxima	21.6
182651	7	Sololá	716	San Marcos la Laguna 	11	San Marcos la laguna 	3	Marzo	2023-03-16T00:00:00	2024-11-08T17:00:00	3	Temperatura mínima	20.2
182652	7	Sololá	716	San Marcos la Laguna 	11	San Marcos la laguna 	3	Marzo	2023-03-16T00:00:00	2024-11-08T17:00:00	5	Humedad	81
182653	7	Sololá	716	San Marcos la Laguna 	11	San Marcos la laguna 	3	Marzo	2023-03-16T00:00:00	2024-11-08T17:00:00	6	Velocidad del viento	6.4
182654	7	Sololá	716	San Marcos la Laguna 	11	San Marcos la laguna 	3	Marzo	2023-03-16T00:00:00	2024-11-08T17:00:00	7	Dirección del viento	6.44
182655	7	Sololá	716	San Marcos la Laguna 	11	San Marcos la laguna 	3	Marzo	2023-03-16T00:00:00	2024-11-08T17:00:00	1	Precipitación	0
182656	7	Sololá	716	San Marcos la Laguna 	11	San Marcos la laguna 	3	Marzo	2023-03-16T00:00:00	2024-11-08T17:00:00	8	Radiación solar	103
182657	7	Sololá	716	San Marcos la Laguna 	11	San Marcos la laguna 	3	Marzo	2023-03-16T00:00:00	2024-11-08T18:00:00	2	Temperatura media	19.4
182658	7	Sololá	716	San Marcos la Laguna 	11	San Marcos la laguna 	3	Marzo	2023-03-16T00:00:00	2024-11-08T18:00:00	4	Temperatura máxima	20.3
182659	7	Sololá	716	San Marcos la Laguna 	11	San Marcos la laguna 	3	Marzo	2023-03-16T00:00:00	2024-11-08T18:00:00	3	Temperatura mínima	19.4
182660	7	Sololá	716	San Marcos la Laguna 	11	San Marcos la laguna 	3	Marzo	2023-03-16T00:00:00	2024-11-08T18:00:00	5	Humedad	85
182661	7	Sololá	716	San Marcos la Laguna 	11	San Marcos la laguna 	3	Marzo	2023-03-16T00:00:00	2024-11-08T18:00:00	6	Velocidad del viento	6.4
182662	7	Sololá	716	San Marcos la Laguna 	11	San Marcos la laguna 	3	Marzo	2023-03-16T00:00:00	2024-11-08T18:00:00	7	Dirección del viento	6.44
182663	7	Sololá	716	San Marcos la Laguna 	11	San Marcos la laguna 	3	Marzo	2023-03-16T00:00:00	2024-11-08T18:00:00	1	Precipitación	0.4
182664	7	Sololá	716	San Marcos la Laguna 	11	San Marcos la laguna 	3	Marzo	2023-03-16T00:00:00	2024-11-08T18:00:00	8	Radiación solar	13
182665	7	Sololá	716	San Marcos la Laguna 	11	San Marcos la laguna 	3	Marzo	2023-03-16T00:00:00	2024-11-08T19:00:00	2	Temperatura media	17.9
182666	7	Sololá	716	San Marcos la Laguna 	11	San Marcos la laguna 	3	Marzo	2023-03-16T00:00:00	2024-11-08T19:00:00	4	Temperatura máxima	19.4
182667	7	Sololá	716	San Marcos la Laguna 	11	San Marcos la laguna 	3	Marzo	2023-03-16T00:00:00	2024-11-08T19:00:00	3	Temperatura mínima	17.9
182668	7	Sololá	716	San Marcos la Laguna 	11	San Marcos la laguna 	3	Marzo	2023-03-16T00:00:00	2024-11-08T19:00:00	5	Humedad	87
182669	7	Sololá	716	San Marcos la Laguna 	11	San Marcos la laguna 	3	Marzo	2023-03-16T00:00:00	2024-11-08T19:00:00	6	Velocidad del viento	3.2
182670	7	Sololá	716	San Marcos la Laguna 	11	San Marcos la laguna 	3	Marzo	2023-03-16T00:00:00	2024-11-08T19:00:00	7	Dirección del viento	3.22
182671	7	Sololá	716	San Marcos la Laguna 	11	San Marcos la laguna 	3	Marzo	2023-03-16T00:00:00	2024-11-08T19:00:00	1	Precipitación	1.6
182672	7	Sololá	716	San Marcos la Laguna 	11	San Marcos la laguna 	3	Marzo	2023-03-16T00:00:00	2024-11-08T19:00:00	8	Radiación solar	0
182673	7	Sololá	716	San Marcos la Laguna 	11	San Marcos la laguna 	3	Marzo	2023-03-16T00:00:00	2024-11-08T20:00:00	2	Temperatura media	17.2
182674	7	Sololá	716	San Marcos la Laguna 	11	San Marcos la laguna 	3	Marzo	2023-03-16T00:00:00	2024-11-08T20:00:00	4	Temperatura máxima	17.9
182675	7	Sololá	716	San Marcos la Laguna 	11	San Marcos la laguna 	3	Marzo	2023-03-16T00:00:00	2024-11-08T20:00:00	3	Temperatura mínima	17.2
182676	7	Sololá	716	San Marcos la Laguna 	11	San Marcos la laguna 	3	Marzo	2023-03-16T00:00:00	2024-11-08T20:00:00	5	Humedad	91
182677	7	Sololá	716	San Marcos la Laguna 	11	San Marcos la laguna 	3	Marzo	2023-03-16T00:00:00	2024-11-08T20:00:00	6	Velocidad del viento	1.6
182678	7	Sololá	716	San Marcos la Laguna 	11	San Marcos la laguna 	3	Marzo	2023-03-16T00:00:00	2024-11-08T20:00:00	7	Dirección del viento	1.61
182679	7	Sololá	716	San Marcos la Laguna 	11	San Marcos la laguna 	3	Marzo	2023-03-16T00:00:00	2024-11-08T20:00:00	1	Precipitación	0
182680	7	Sololá	716	San Marcos la Laguna 	11	San Marcos la laguna 	3	Marzo	2023-03-16T00:00:00	2024-11-08T20:00:00	8	Radiación solar	0
182681	7	Sololá	716	San Marcos la Laguna 	11	San Marcos la laguna 	3	Marzo	2023-03-16T00:00:00	2024-11-08T21:00:00	2	Temperatura media	15.9
182682	7	Sololá	716	San Marcos la Laguna 	11	San Marcos la laguna 	3	Marzo	2023-03-16T00:00:00	2024-11-08T21:00:00	4	Temperatura máxima	17.2
182683	7	Sololá	716	San Marcos la Laguna 	11	San Marcos la laguna 	3	Marzo	2023-03-16T00:00:00	2024-11-08T21:00:00	3	Temperatura mínima	15.9
182684	7	Sololá	716	San Marcos la Laguna 	11	San Marcos la laguna 	3	Marzo	2023-03-16T00:00:00	2024-11-08T21:00:00	5	Humedad	91
182685	7	Sololá	716	San Marcos la Laguna 	11	San Marcos la laguna 	3	Marzo	2023-03-16T00:00:00	2024-11-08T21:00:00	6	Velocidad del viento	4.8
182686	7	Sololá	716	San Marcos la Laguna 	11	San Marcos la laguna 	3	Marzo	2023-03-16T00:00:00	2024-11-08T21:00:00	7	Dirección del viento	4.83
182687	7	Sololá	716	San Marcos la Laguna 	11	San Marcos la laguna 	3	Marzo	2023-03-16T00:00:00	2024-11-08T21:00:00	1	Precipitación	0
182688	7	Sololá	716	San Marcos la Laguna 	11	San Marcos la laguna 	3	Marzo	2023-03-16T00:00:00	2024-11-08T21:00:00	8	Radiación solar	0
182689	7	Sololá	716	San Marcos la Laguna 	11	San Marcos la laguna 	3	Marzo	2023-03-16T00:00:00	2024-11-08T22:00:00	2	Temperatura media	15.9
182690	7	Sololá	716	San Marcos la Laguna 	11	San Marcos la laguna 	3	Marzo	2023-03-16T00:00:00	2024-11-08T22:00:00	4	Temperatura máxima	16.2
182691	7	Sololá	716	San Marcos la Laguna 	11	San Marcos la laguna 	3	Marzo	2023-03-16T00:00:00	2024-11-08T22:00:00	3	Temperatura mínima	15.7
182692	7	Sololá	716	San Marcos la Laguna 	11	San Marcos la laguna 	3	Marzo	2023-03-16T00:00:00	2024-11-08T22:00:00	5	Humedad	90
182693	7	Sololá	716	San Marcos la Laguna 	11	San Marcos la laguna 	3	Marzo	2023-03-16T00:00:00	2024-11-08T22:00:00	6	Velocidad del viento	6.4
182694	7	Sololá	716	San Marcos la Laguna 	11	San Marcos la laguna 	3	Marzo	2023-03-16T00:00:00	2024-11-08T22:00:00	7	Dirección del viento	6.44
182695	7	Sololá	716	San Marcos la Laguna 	11	San Marcos la laguna 	3	Marzo	2023-03-16T00:00:00	2024-11-08T22:00:00	1	Precipitación	0
182696	7	Sololá	716	San Marcos la Laguna 	11	San Marcos la laguna 	3	Marzo	2023-03-16T00:00:00	2024-11-08T22:00:00	8	Radiación solar	0
182697	7	Sololá	716	San Marcos la Laguna 	11	San Marcos la laguna 	3	Marzo	2023-03-16T00:00:00	2024-11-08T23:00:00	2	Temperatura media	16.1
182698	7	Sololá	716	San Marcos la Laguna 	11	San Marcos la laguna 	3	Marzo	2023-03-16T00:00:00	2024-11-08T23:00:00	4	Temperatura máxima	16.4
182699	7	Sololá	716	San Marcos la Laguna 	11	San Marcos la laguna 	3	Marzo	2023-03-16T00:00:00	2024-11-08T23:00:00	3	Temperatura mínima	15.8
182700	7	Sololá	716	San Marcos la Laguna 	11	San Marcos la laguna 	3	Marzo	2023-03-16T00:00:00	2024-11-08T23:00:00	5	Humedad	91
182701	7	Sololá	716	San Marcos la Laguna 	11	San Marcos la laguna 	3	Marzo	2023-03-16T00:00:00	2024-11-08T23:00:00	6	Velocidad del viento	4.8
182702	7	Sololá	716	San Marcos la Laguna 	11	San Marcos la laguna 	3	Marzo	2023-03-16T00:00:00	2024-11-08T23:00:00	7	Dirección del viento	4.83
182703	7	Sololá	716	San Marcos la Laguna 	11	San Marcos la laguna 	3	Marzo	2023-03-16T00:00:00	2024-11-08T23:00:00	1	Precipitación	0
182704	7	Sololá	716	San Marcos la Laguna 	11	San Marcos la laguna 	3	Marzo	2023-03-16T00:00:00	2024-11-08T23:00:00	8	Radiación solar	0
182705	7	Sololá	716	San Marcos la Laguna 	11	San Marcos la laguna 	3	Marzo	2023-03-17T00:00:00	2024-11-08T00:00:00	2	Temperatura media	16.1
182706	7	Sololá	716	San Marcos la Laguna 	11	San Marcos la laguna 	3	Marzo	2023-03-17T00:00:00	2024-11-08T00:00:00	4	Temperatura máxima	16.2
182707	7	Sololá	716	San Marcos la Laguna 	11	San Marcos la laguna 	3	Marzo	2023-03-17T00:00:00	2024-11-08T00:00:00	3	Temperatura mínima	15.7
182708	7	Sololá	716	San Marcos la Laguna 	11	San Marcos la laguna 	3	Marzo	2023-03-17T00:00:00	2024-11-08T00:00:00	5	Humedad	90
182709	7	Sololá	716	San Marcos la Laguna 	11	San Marcos la laguna 	3	Marzo	2023-03-17T00:00:00	2024-11-08T00:00:00	6	Velocidad del viento	4.8
182710	7	Sololá	716	San Marcos la Laguna 	11	San Marcos la laguna 	3	Marzo	2023-03-17T00:00:00	2024-11-08T00:00:00	7	Dirección del viento	4.83
182711	7	Sololá	716	San Marcos la Laguna 	11	San Marcos la laguna 	3	Marzo	2023-03-17T00:00:00	2024-11-08T00:00:00	1	Precipitación	0
182712	7	Sololá	716	San Marcos la Laguna 	11	San Marcos la laguna 	3	Marzo	2023-03-17T00:00:00	2024-11-08T00:00:00	8	Radiación solar	0
182713	7	Sololá	716	San Marcos la Laguna 	11	San Marcos la laguna 	3	Marzo	2023-03-17T00:00:00	2024-11-08T01:00:00	2	Temperatura media	16.1
182714	7	Sololá	716	San Marcos la Laguna 	11	San Marcos la laguna 	3	Marzo	2023-03-17T00:00:00	2024-11-08T01:00:00	4	Temperatura máxima	16.3
182715	7	Sololá	716	San Marcos la Laguna 	11	San Marcos la laguna 	3	Marzo	2023-03-17T00:00:00	2024-11-08T01:00:00	3	Temperatura mínima	16
182716	7	Sololá	716	San Marcos la Laguna 	11	San Marcos la laguna 	3	Marzo	2023-03-17T00:00:00	2024-11-08T01:00:00	5	Humedad	92
182717	7	Sololá	716	San Marcos la Laguna 	11	San Marcos la laguna 	3	Marzo	2023-03-17T00:00:00	2024-11-08T01:00:00	6	Velocidad del viento	3.2
182718	7	Sololá	716	San Marcos la Laguna 	11	San Marcos la laguna 	3	Marzo	2023-03-17T00:00:00	2024-11-08T01:00:00	7	Dirección del viento	3.22
182719	7	Sololá	716	San Marcos la Laguna 	11	San Marcos la laguna 	3	Marzo	2023-03-17T00:00:00	2024-11-08T01:00:00	1	Precipitación	0
182720	7	Sololá	716	San Marcos la Laguna 	11	San Marcos la laguna 	3	Marzo	2023-03-17T00:00:00	2024-11-08T01:00:00	8	Radiación solar	0
182721	7	Sololá	716	San Marcos la Laguna 	11	San Marcos la laguna 	3	Marzo	2023-03-17T00:00:00	2024-11-08T02:00:00	2	Temperatura media	15.9
182722	7	Sololá	716	San Marcos la Laguna 	11	San Marcos la laguna 	3	Marzo	2023-03-17T00:00:00	2024-11-08T02:00:00	4	Temperatura máxima	16.2
182723	7	Sololá	716	San Marcos la Laguna 	11	San Marcos la laguna 	3	Marzo	2023-03-17T00:00:00	2024-11-08T02:00:00	3	Temperatura mínima	15.9
182724	7	Sololá	716	San Marcos la Laguna 	11	San Marcos la laguna 	3	Marzo	2023-03-17T00:00:00	2024-11-08T02:00:00	5	Humedad	92
182725	7	Sololá	716	San Marcos la Laguna 	11	San Marcos la laguna 	3	Marzo	2023-03-17T00:00:00	2024-11-08T02:00:00	6	Velocidad del viento	3.2
182726	7	Sololá	716	San Marcos la Laguna 	11	San Marcos la laguna 	3	Marzo	2023-03-17T00:00:00	2024-11-08T02:00:00	7	Dirección del viento	3.22
182727	7	Sololá	716	San Marcos la Laguna 	11	San Marcos la laguna 	3	Marzo	2023-03-17T00:00:00	2024-11-08T02:00:00	1	Precipitación	0
182728	7	Sololá	716	San Marcos la Laguna 	11	San Marcos la laguna 	3	Marzo	2023-03-17T00:00:00	2024-11-08T02:00:00	8	Radiación solar	0
182729	7	Sololá	716	San Marcos la Laguna 	11	San Marcos la laguna 	3	Marzo	2023-03-17T00:00:00	2024-11-08T03:00:00	2	Temperatura media	16.1
182730	7	Sololá	716	San Marcos la Laguna 	11	San Marcos la laguna 	3	Marzo	2023-03-17T00:00:00	2024-11-08T03:00:00	4	Temperatura máxima	16.1
182731	7	Sololá	716	San Marcos la Laguna 	11	San Marcos la laguna 	3	Marzo	2023-03-17T00:00:00	2024-11-08T03:00:00	3	Temperatura mínima	15.8
182732	7	Sololá	716	San Marcos la Laguna 	11	San Marcos la laguna 	3	Marzo	2023-03-17T00:00:00	2024-11-08T03:00:00	5	Humedad	92
182733	7	Sololá	716	San Marcos la Laguna 	11	San Marcos la laguna 	3	Marzo	2023-03-17T00:00:00	2024-11-08T03:00:00	6	Velocidad del viento	3.2
182734	7	Sololá	716	San Marcos la Laguna 	11	San Marcos la laguna 	3	Marzo	2023-03-17T00:00:00	2024-11-08T03:00:00	7	Dirección del viento	3.22
182735	7	Sololá	716	San Marcos la Laguna 	11	San Marcos la laguna 	3	Marzo	2023-03-17T00:00:00	2024-11-08T03:00:00	1	Precipitación	0
182736	7	Sololá	716	San Marcos la Laguna 	11	San Marcos la laguna 	3	Marzo	2023-03-17T00:00:00	2024-11-08T03:00:00	8	Radiación solar	0
182737	7	Sololá	716	San Marcos la Laguna 	11	San Marcos la laguna 	3	Marzo	2023-03-17T00:00:00	2024-11-08T04:00:00	2	Temperatura media	16
182738	7	Sololá	716	San Marcos la Laguna 	11	San Marcos la laguna 	3	Marzo	2023-03-17T00:00:00	2024-11-08T04:00:00	4	Temperatura máxima	16.2
182739	7	Sololá	716	San Marcos la Laguna 	11	San Marcos la laguna 	3	Marzo	2023-03-17T00:00:00	2024-11-08T04:00:00	3	Temperatura mínima	15.8
182740	7	Sololá	716	San Marcos la Laguna 	11	San Marcos la laguna 	3	Marzo	2023-03-17T00:00:00	2024-11-08T04:00:00	5	Humedad	91
182741	7	Sololá	716	San Marcos la Laguna 	11	San Marcos la laguna 	3	Marzo	2023-03-17T00:00:00	2024-11-08T04:00:00	6	Velocidad del viento	3.2
182742	7	Sololá	716	San Marcos la Laguna 	11	San Marcos la laguna 	3	Marzo	2023-03-17T00:00:00	2024-11-08T04:00:00	7	Dirección del viento	3.22
182743	7	Sololá	716	San Marcos la Laguna 	11	San Marcos la laguna 	3	Marzo	2023-03-17T00:00:00	2024-11-08T04:00:00	1	Precipitación	0
182744	7	Sololá	716	San Marcos la Laguna 	11	San Marcos la laguna 	3	Marzo	2023-03-17T00:00:00	2024-11-08T04:00:00	8	Radiación solar	0
182745	7	Sololá	716	San Marcos la Laguna 	11	San Marcos la laguna 	3	Marzo	2023-03-17T00:00:00	2024-11-08T05:00:00	2	Temperatura media	15.1
182746	7	Sololá	716	San Marcos la Laguna 	11	San Marcos la laguna 	3	Marzo	2023-03-17T00:00:00	2024-11-08T05:00:00	4	Temperatura máxima	16.1
182747	7	Sololá	716	San Marcos la Laguna 	11	San Marcos la laguna 	3	Marzo	2023-03-17T00:00:00	2024-11-08T05:00:00	3	Temperatura mínima	15.1
182748	7	Sololá	716	San Marcos la Laguna 	11	San Marcos la laguna 	3	Marzo	2023-03-17T00:00:00	2024-11-08T05:00:00	5	Humedad	90
182749	7	Sololá	716	San Marcos la Laguna 	11	San Marcos la laguna 	3	Marzo	2023-03-17T00:00:00	2024-11-08T05:00:00	6	Velocidad del viento	4.8
182750	7	Sololá	716	San Marcos la Laguna 	11	San Marcos la laguna 	3	Marzo	2023-03-17T00:00:00	2024-11-08T05:00:00	7	Dirección del viento	4.83
182751	7	Sololá	716	San Marcos la Laguna 	11	San Marcos la laguna 	3	Marzo	2023-03-17T00:00:00	2024-11-08T05:00:00	1	Precipitación	0
182752	7	Sololá	716	San Marcos la Laguna 	11	San Marcos la laguna 	3	Marzo	2023-03-17T00:00:00	2024-11-08T05:00:00	8	Radiación solar	0
182753	7	Sololá	716	San Marcos la Laguna 	11	San Marcos la laguna 	3	Marzo	2023-03-17T00:00:00	2024-11-08T06:00:00	2	Temperatura media	15.8
182754	7	Sololá	716	San Marcos la Laguna 	11	San Marcos la laguna 	3	Marzo	2023-03-17T00:00:00	2024-11-08T06:00:00	4	Temperatura máxima	15.8
182755	7	Sololá	716	San Marcos la Laguna 	11	San Marcos la laguna 	3	Marzo	2023-03-17T00:00:00	2024-11-08T06:00:00	3	Temperatura mínima	14.8
182756	7	Sololá	716	San Marcos la Laguna 	11	San Marcos la laguna 	3	Marzo	2023-03-17T00:00:00	2024-11-08T06:00:00	5	Humedad	87
182757	7	Sololá	716	San Marcos la Laguna 	11	San Marcos la laguna 	3	Marzo	2023-03-17T00:00:00	2024-11-08T06:00:00	6	Velocidad del viento	6.4
182758	7	Sololá	716	San Marcos la Laguna 	11	San Marcos la laguna 	3	Marzo	2023-03-17T00:00:00	2024-11-08T06:00:00	7	Dirección del viento	6.44
182759	7	Sololá	716	San Marcos la Laguna 	11	San Marcos la laguna 	3	Marzo	2023-03-17T00:00:00	2024-11-08T06:00:00	1	Precipitación	0
182760	7	Sololá	716	San Marcos la Laguna 	11	San Marcos la laguna 	3	Marzo	2023-03-17T00:00:00	2024-11-08T06:00:00	8	Radiación solar	0
182761	7	Sololá	716	San Marcos la Laguna 	11	San Marcos la laguna 	3	Marzo	2023-03-17T00:00:00	2024-11-08T07:00:00	2	Temperatura media	15.6
182762	7	Sololá	716	San Marcos la Laguna 	11	San Marcos la laguna 	3	Marzo	2023-03-17T00:00:00	2024-11-08T07:00:00	4	Temperatura máxima	15.8
182763	7	Sololá	716	San Marcos la Laguna 	11	San Marcos la laguna 	3	Marzo	2023-03-17T00:00:00	2024-11-08T07:00:00	3	Temperatura mínima	15.1
182764	7	Sololá	716	San Marcos la Laguna 	11	San Marcos la laguna 	3	Marzo	2023-03-17T00:00:00	2024-11-08T07:00:00	5	Humedad	91
182765	7	Sololá	716	San Marcos la Laguna 	11	San Marcos la laguna 	3	Marzo	2023-03-17T00:00:00	2024-11-08T07:00:00	6	Velocidad del viento	4.8
182766	7	Sololá	716	San Marcos la Laguna 	11	San Marcos la laguna 	3	Marzo	2023-03-17T00:00:00	2024-11-08T07:00:00	7	Dirección del viento	4.83
182767	7	Sololá	716	San Marcos la Laguna 	11	San Marcos la laguna 	3	Marzo	2023-03-17T00:00:00	2024-11-08T07:00:00	1	Precipitación	0
182768	7	Sololá	716	San Marcos la Laguna 	11	San Marcos la laguna 	3	Marzo	2023-03-17T00:00:00	2024-11-08T07:00:00	8	Radiación solar	20
182769	7	Sololá	716	San Marcos la Laguna 	11	San Marcos la laguna 	3	Marzo	2023-03-17T00:00:00	2024-11-08T08:00:00	2	Temperatura media	18.9
182770	7	Sololá	716	San Marcos la Laguna 	11	San Marcos la laguna 	3	Marzo	2023-03-17T00:00:00	2024-11-08T08:00:00	4	Temperatura máxima	18.9
182771	7	Sololá	716	San Marcos la Laguna 	11	San Marcos la laguna 	3	Marzo	2023-03-17T00:00:00	2024-11-08T08:00:00	3	Temperatura mínima	15.6
182772	7	Sololá	716	San Marcos la Laguna 	11	San Marcos la laguna 	3	Marzo	2023-03-17T00:00:00	2024-11-08T08:00:00	5	Humedad	81
182773	7	Sololá	716	San Marcos la Laguna 	11	San Marcos la laguna 	3	Marzo	2023-03-17T00:00:00	2024-11-08T08:00:00	6	Velocidad del viento	3.2
182774	7	Sololá	716	San Marcos la Laguna 	11	San Marcos la laguna 	3	Marzo	2023-03-17T00:00:00	2024-11-08T08:00:00	7	Dirección del viento	3.22
182775	7	Sololá	716	San Marcos la Laguna 	11	San Marcos la laguna 	3	Marzo	2023-03-17T00:00:00	2024-11-08T08:00:00	1	Precipitación	0
182776	7	Sololá	716	San Marcos la Laguna 	11	San Marcos la laguna 	3	Marzo	2023-03-17T00:00:00	2024-11-08T08:00:00	8	Radiación solar	204
182777	7	Sololá	716	San Marcos la Laguna 	11	San Marcos la laguna 	3	Marzo	2023-03-17T00:00:00	2024-11-08T09:00:00	2	Temperatura media	19.4
182778	7	Sololá	716	San Marcos la Laguna 	11	San Marcos la laguna 	3	Marzo	2023-03-17T00:00:00	2024-11-08T09:00:00	4	Temperatura máxima	19.8
182779	7	Sololá	716	San Marcos la Laguna 	11	San Marcos la laguna 	3	Marzo	2023-03-17T00:00:00	2024-11-08T09:00:00	3	Temperatura mínima	18.9
182780	7	Sololá	716	San Marcos la Laguna 	11	San Marcos la laguna 	3	Marzo	2023-03-17T00:00:00	2024-11-08T09:00:00	5	Humedad	80
182781	7	Sololá	716	San Marcos la Laguna 	11	San Marcos la laguna 	3	Marzo	2023-03-17T00:00:00	2024-11-08T09:00:00	6	Velocidad del viento	4.8
182782	7	Sololá	716	San Marcos la Laguna 	11	San Marcos la laguna 	3	Marzo	2023-03-17T00:00:00	2024-11-08T09:00:00	7	Dirección del viento	4.83
182783	7	Sololá	716	San Marcos la Laguna 	11	San Marcos la laguna 	3	Marzo	2023-03-17T00:00:00	2024-11-08T09:00:00	1	Precipitación	0
182784	7	Sololá	716	San Marcos la Laguna 	11	San Marcos la laguna 	3	Marzo	2023-03-17T00:00:00	2024-11-08T09:00:00	8	Radiación solar	387
182785	7	Sololá	716	San Marcos la Laguna 	11	San Marcos la laguna 	3	Marzo	2023-03-17T00:00:00	2024-11-08T10:00:00	2	Temperatura media	20.3
182786	7	Sololá	716	San Marcos la Laguna 	11	San Marcos la laguna 	3	Marzo	2023-03-17T00:00:00	2024-11-08T10:00:00	4	Temperatura máxima	20.3
182787	7	Sololá	716	San Marcos la Laguna 	11	San Marcos la laguna 	3	Marzo	2023-03-17T00:00:00	2024-11-08T10:00:00	3	Temperatura mínima	19.4
182788	7	Sololá	716	San Marcos la Laguna 	11	San Marcos la laguna 	3	Marzo	2023-03-17T00:00:00	2024-11-08T10:00:00	5	Humedad	76
182789	7	Sololá	716	San Marcos la Laguna 	11	San Marcos la laguna 	3	Marzo	2023-03-17T00:00:00	2024-11-08T10:00:00	6	Velocidad del viento	9.7
182790	7	Sololá	716	San Marcos la Laguna 	11	San Marcos la laguna 	3	Marzo	2023-03-17T00:00:00	2024-11-08T10:00:00	7	Dirección del viento	9.66
182791	7	Sololá	716	San Marcos la Laguna 	11	San Marcos la laguna 	3	Marzo	2023-03-17T00:00:00	2024-11-08T10:00:00	1	Precipitación	0
182792	7	Sololá	716	San Marcos la Laguna 	11	San Marcos la laguna 	3	Marzo	2023-03-17T00:00:00	2024-11-08T10:00:00	8	Radiación solar	612
182793	7	Sololá	716	San Marcos la Laguna 	11	San Marcos la laguna 	3	Marzo	2023-03-17T00:00:00	2024-11-08T11:00:00	2	Temperatura media	21.2
182794	7	Sololá	716	San Marcos la Laguna 	11	San Marcos la laguna 	3	Marzo	2023-03-17T00:00:00	2024-11-08T11:00:00	4	Temperatura máxima	21.4
182795	7	Sololá	716	San Marcos la Laguna 	11	San Marcos la laguna 	3	Marzo	2023-03-17T00:00:00	2024-11-08T11:00:00	3	Temperatura mínima	20.3
182796	7	Sololá	716	San Marcos la Laguna 	11	San Marcos la laguna 	3	Marzo	2023-03-17T00:00:00	2024-11-08T11:00:00	5	Humedad	75
182797	7	Sololá	716	San Marcos la Laguna 	11	San Marcos la laguna 	3	Marzo	2023-03-17T00:00:00	2024-11-08T11:00:00	6	Velocidad del viento	8
182798	7	Sololá	716	San Marcos la Laguna 	11	San Marcos la laguna 	3	Marzo	2023-03-17T00:00:00	2024-11-08T11:00:00	7	Dirección del viento	8.05
182799	7	Sololá	716	San Marcos la Laguna 	11	San Marcos la laguna 	3	Marzo	2023-03-17T00:00:00	2024-11-08T11:00:00	1	Precipitación	0
182800	7	Sololá	716	San Marcos la Laguna 	11	San Marcos la laguna 	3	Marzo	2023-03-17T00:00:00	2024-11-08T11:00:00	8	Radiación solar	808
182801	7	Sololá	716	San Marcos la Laguna 	11	San Marcos la laguna 	3	Marzo	2023-03-17T00:00:00	2024-11-08T12:00:00	2	Temperatura media	22.2
182802	7	Sololá	716	San Marcos la Laguna 	11	San Marcos la laguna 	3	Marzo	2023-03-17T00:00:00	2024-11-08T12:00:00	4	Temperatura máxima	22.2
182803	7	Sololá	716	San Marcos la Laguna 	11	San Marcos la laguna 	3	Marzo	2023-03-17T00:00:00	2024-11-08T12:00:00	3	Temperatura mínima	21.1
182804	7	Sololá	716	San Marcos la Laguna 	11	San Marcos la laguna 	3	Marzo	2023-03-17T00:00:00	2024-11-08T12:00:00	5	Humedad	69
182805	7	Sololá	716	San Marcos la Laguna 	11	San Marcos la laguna 	3	Marzo	2023-03-17T00:00:00	2024-11-08T12:00:00	6	Velocidad del viento	11.3
182806	7	Sololá	716	San Marcos la Laguna 	11	San Marcos la laguna 	3	Marzo	2023-03-17T00:00:00	2024-11-08T12:00:00	7	Dirección del viento	11.27
182807	7	Sololá	716	San Marcos la Laguna 	11	San Marcos la laguna 	3	Marzo	2023-03-17T00:00:00	2024-11-08T12:00:00	1	Precipitación	0
182808	7	Sololá	716	San Marcos la Laguna 	11	San Marcos la laguna 	3	Marzo	2023-03-17T00:00:00	2024-11-08T12:00:00	8	Radiación solar	925
182809	7	Sololá	716	San Marcos la Laguna 	11	San Marcos la laguna 	3	Marzo	2023-03-17T00:00:00	2024-11-08T13:00:00	2	Temperatura media	22
182810	7	Sololá	716	San Marcos la Laguna 	11	San Marcos la laguna 	3	Marzo	2023-03-17T00:00:00	2024-11-08T13:00:00	4	Temperatura máxima	22.8
182811	7	Sololá	716	San Marcos la Laguna 	11	San Marcos la laguna 	3	Marzo	2023-03-17T00:00:00	2024-11-08T13:00:00	3	Temperatura mínima	21.9
182812	7	Sololá	716	San Marcos la Laguna 	11	San Marcos la laguna 	3	Marzo	2023-03-17T00:00:00	2024-11-08T13:00:00	5	Humedad	75
182813	7	Sololá	716	San Marcos la Laguna 	11	San Marcos la laguna 	3	Marzo	2023-03-17T00:00:00	2024-11-08T13:00:00	6	Velocidad del viento	12.9
182814	7	Sololá	716	San Marcos la Laguna 	11	San Marcos la laguna 	3	Marzo	2023-03-17T00:00:00	2024-11-08T13:00:00	7	Dirección del viento	12.87
182815	7	Sololá	716	San Marcos la Laguna 	11	San Marcos la laguna 	3	Marzo	2023-03-17T00:00:00	2024-11-08T13:00:00	1	Precipitación	0
182816	7	Sololá	716	San Marcos la Laguna 	11	San Marcos la laguna 	3	Marzo	2023-03-17T00:00:00	2024-11-08T13:00:00	8	Radiación solar	942
182817	7	Sololá	716	San Marcos la Laguna 	11	San Marcos la laguna 	3	Marzo	2023-03-17T00:00:00	2024-11-08T14:00:00	2	Temperatura media	20.2
182818	7	Sololá	716	San Marcos la Laguna 	11	San Marcos la laguna 	3	Marzo	2023-03-17T00:00:00	2024-11-08T14:00:00	4	Temperatura máxima	22
182819	7	Sololá	716	San Marcos la Laguna 	11	San Marcos la laguna 	3	Marzo	2023-03-17T00:00:00	2024-11-08T14:00:00	3	Temperatura mínima	20.2
182820	7	Sololá	716	San Marcos la Laguna 	11	San Marcos la laguna 	3	Marzo	2023-03-17T00:00:00	2024-11-08T14:00:00	5	Humedad	74
182821	7	Sololá	716	San Marcos la Laguna 	11	San Marcos la laguna 	3	Marzo	2023-03-17T00:00:00	2024-11-08T14:00:00	6	Velocidad del viento	6.4
182822	7	Sololá	716	San Marcos la Laguna 	11	San Marcos la laguna 	3	Marzo	2023-03-17T00:00:00	2024-11-08T14:00:00	7	Dirección del viento	6.44
182823	7	Sololá	716	San Marcos la Laguna 	11	San Marcos la laguna 	3	Marzo	2023-03-17T00:00:00	2024-11-08T14:00:00	1	Precipitación	0
182824	7	Sololá	716	San Marcos la Laguna 	11	San Marcos la laguna 	3	Marzo	2023-03-17T00:00:00	2024-11-08T14:00:00	8	Radiación solar	136
182825	7	Sololá	716	San Marcos la Laguna 	11	San Marcos la laguna 	3	Marzo	2023-03-17T00:00:00	2024-11-08T15:00:00	2	Temperatura media	18.3
182826	7	Sololá	716	San Marcos la Laguna 	11	San Marcos la laguna 	3	Marzo	2023-03-17T00:00:00	2024-11-08T15:00:00	4	Temperatura máxima	20.3
182827	7	Sololá	716	San Marcos la Laguna 	11	San Marcos la laguna 	3	Marzo	2023-03-17T00:00:00	2024-11-08T15:00:00	3	Temperatura mínima	18
182828	7	Sololá	716	San Marcos la Laguna 	11	San Marcos la laguna 	3	Marzo	2023-03-17T00:00:00	2024-11-08T15:00:00	5	Humedad	83
182829	7	Sololá	716	San Marcos la Laguna 	11	San Marcos la laguna 	3	Marzo	2023-03-17T00:00:00	2024-11-08T15:00:00	6	Velocidad del viento	4.8
182830	7	Sololá	716	San Marcos la Laguna 	11	San Marcos la laguna 	3	Marzo	2023-03-17T00:00:00	2024-11-08T15:00:00	7	Dirección del viento	4.83
182831	7	Sololá	716	San Marcos la Laguna 	11	San Marcos la laguna 	3	Marzo	2023-03-17T00:00:00	2024-11-08T15:00:00	1	Precipitación	1
182832	7	Sololá	716	San Marcos la Laguna 	11	San Marcos la laguna 	3	Marzo	2023-03-17T00:00:00	2024-11-08T15:00:00	8	Radiación solar	125
182833	7	Sololá	716	San Marcos la Laguna 	11	San Marcos la laguna 	3	Marzo	2023-03-17T00:00:00	2024-11-08T16:00:00	2	Temperatura media	20.4
182834	7	Sololá	716	San Marcos la Laguna 	11	San Marcos la laguna 	3	Marzo	2023-03-17T00:00:00	2024-11-08T16:00:00	4	Temperatura máxima	20.9
182835	7	Sololá	716	San Marcos la Laguna 	11	San Marcos la laguna 	3	Marzo	2023-03-17T00:00:00	2024-11-08T16:00:00	3	Temperatura mínima	18.3
182836	7	Sololá	716	San Marcos la Laguna 	11	San Marcos la laguna 	3	Marzo	2023-03-17T00:00:00	2024-11-08T16:00:00	5	Humedad	73
182837	7	Sololá	716	San Marcos la Laguna 	11	San Marcos la laguna 	3	Marzo	2023-03-17T00:00:00	2024-11-08T16:00:00	6	Velocidad del viento	1.6
182838	7	Sololá	716	San Marcos la Laguna 	11	San Marcos la laguna 	3	Marzo	2023-03-17T00:00:00	2024-11-08T16:00:00	7	Dirección del viento	1.61
182839	7	Sololá	716	San Marcos la Laguna 	11	San Marcos la laguna 	3	Marzo	2023-03-17T00:00:00	2024-11-08T16:00:00	1	Precipitación	0
182840	7	Sololá	716	San Marcos la Laguna 	11	San Marcos la laguna 	3	Marzo	2023-03-17T00:00:00	2024-11-08T16:00:00	8	Radiación solar	379
182841	7	Sololá	716	San Marcos la Laguna 	11	San Marcos la laguna 	3	Marzo	2023-03-17T00:00:00	2024-11-08T17:00:00	2	Temperatura media	19.8
182842	7	Sololá	716	San Marcos la Laguna 	11	San Marcos la laguna 	3	Marzo	2023-03-17T00:00:00	2024-11-08T17:00:00	4	Temperatura máxima	20.4
182843	7	Sololá	716	San Marcos la Laguna 	11	San Marcos la laguna 	3	Marzo	2023-03-17T00:00:00	2024-11-08T17:00:00	3	Temperatura mínima	19.7
182844	7	Sololá	716	San Marcos la Laguna 	11	San Marcos la laguna 	3	Marzo	2023-03-17T00:00:00	2024-11-08T17:00:00	5	Humedad	78
182845	7	Sololá	716	San Marcos la Laguna 	11	San Marcos la laguna 	3	Marzo	2023-03-17T00:00:00	2024-11-08T17:00:00	6	Velocidad del viento	1.6
182846	7	Sololá	716	San Marcos la Laguna 	11	San Marcos la laguna 	3	Marzo	2023-03-17T00:00:00	2024-11-08T17:00:00	7	Dirección del viento	1.61
182847	7	Sololá	716	San Marcos la Laguna 	11	San Marcos la laguna 	3	Marzo	2023-03-17T00:00:00	2024-11-08T17:00:00	1	Precipitación	0
182848	7	Sololá	716	San Marcos la Laguna 	11	San Marcos la laguna 	3	Marzo	2023-03-17T00:00:00	2024-11-08T17:00:00	8	Radiación solar	63
182849	7	Sololá	716	San Marcos la Laguna 	11	San Marcos la laguna 	3	Marzo	2023-03-17T00:00:00	2024-11-08T18:00:00	2	Temperatura media	18.1
182850	7	Sololá	716	San Marcos la Laguna 	11	San Marcos la laguna 	3	Marzo	2023-03-17T00:00:00	2024-11-08T18:00:00	4	Temperatura máxima	19.8
182851	7	Sololá	716	San Marcos la Laguna 	11	San Marcos la laguna 	3	Marzo	2023-03-17T00:00:00	2024-11-08T18:00:00	3	Temperatura mínima	18.1
182852	7	Sololá	716	San Marcos la Laguna 	11	San Marcos la laguna 	3	Marzo	2023-03-17T00:00:00	2024-11-08T18:00:00	5	Humedad	91
182853	7	Sololá	716	San Marcos la Laguna 	11	San Marcos la laguna 	3	Marzo	2023-03-17T00:00:00	2024-11-08T18:00:00	6	Velocidad del viento	4.8
182854	7	Sololá	716	San Marcos la Laguna 	11	San Marcos la laguna 	3	Marzo	2023-03-17T00:00:00	2024-11-08T18:00:00	7	Dirección del viento	4.83
182855	7	Sololá	716	San Marcos la Laguna 	11	San Marcos la laguna 	3	Marzo	2023-03-17T00:00:00	2024-11-08T18:00:00	1	Precipitación	0.4
182856	7	Sololá	716	San Marcos la Laguna 	11	San Marcos la laguna 	3	Marzo	2023-03-17T00:00:00	2024-11-08T18:00:00	8	Radiación solar	17
182857	7	Sololá	716	San Marcos la Laguna 	11	San Marcos la laguna 	3	Marzo	2023-03-17T00:00:00	2024-11-08T19:00:00	2	Temperatura media	17.9
182858	7	Sololá	716	San Marcos la Laguna 	11	San Marcos la laguna 	3	Marzo	2023-03-17T00:00:00	2024-11-08T19:00:00	4	Temperatura máxima	18.2
182859	7	Sololá	716	San Marcos la Laguna 	11	San Marcos la laguna 	3	Marzo	2023-03-17T00:00:00	2024-11-08T19:00:00	3	Temperatura mínima	17.8
182860	7	Sololá	716	San Marcos la Laguna 	11	San Marcos la laguna 	3	Marzo	2023-03-17T00:00:00	2024-11-08T19:00:00	5	Humedad	92
182861	7	Sololá	716	San Marcos la Laguna 	11	San Marcos la laguna 	3	Marzo	2023-03-17T00:00:00	2024-11-08T19:00:00	6	Velocidad del viento	1.6
182862	7	Sololá	716	San Marcos la Laguna 	11	San Marcos la laguna 	3	Marzo	2023-03-17T00:00:00	2024-11-08T19:00:00	7	Dirección del viento	1.61
182863	7	Sololá	716	San Marcos la Laguna 	11	San Marcos la laguna 	3	Marzo	2023-03-17T00:00:00	2024-11-08T19:00:00	1	Precipitación	0.2
182864	7	Sololá	716	San Marcos la Laguna 	11	San Marcos la laguna 	3	Marzo	2023-03-17T00:00:00	2024-11-08T19:00:00	8	Radiación solar	0
182865	7	Sololá	716	San Marcos la Laguna 	11	San Marcos la laguna 	3	Marzo	2023-03-17T00:00:00	2024-11-08T20:00:00	2	Temperatura media	17.4
182866	7	Sololá	716	San Marcos la Laguna 	11	San Marcos la laguna 	3	Marzo	2023-03-17T00:00:00	2024-11-08T20:00:00	4	Temperatura máxima	17.9
182867	7	Sololá	716	San Marcos la Laguna 	11	San Marcos la laguna 	3	Marzo	2023-03-17T00:00:00	2024-11-08T20:00:00	3	Temperatura mínima	17.4
182868	7	Sololá	716	San Marcos la Laguna 	11	San Marcos la laguna 	3	Marzo	2023-03-17T00:00:00	2024-11-08T20:00:00	5	Humedad	91
182869	7	Sololá	716	San Marcos la Laguna 	11	San Marcos la laguna 	3	Marzo	2023-03-17T00:00:00	2024-11-08T20:00:00	6	Velocidad del viento	3.2
182870	7	Sololá	716	San Marcos la Laguna 	11	San Marcos la laguna 	3	Marzo	2023-03-17T00:00:00	2024-11-08T20:00:00	7	Dirección del viento	3.22
182871	7	Sololá	716	San Marcos la Laguna 	11	San Marcos la laguna 	3	Marzo	2023-03-17T00:00:00	2024-11-08T20:00:00	1	Precipitación	0
182872	7	Sololá	716	San Marcos la Laguna 	11	San Marcos la laguna 	3	Marzo	2023-03-17T00:00:00	2024-11-08T20:00:00	8	Radiación solar	0
182873	7	Sololá	716	San Marcos la Laguna 	11	San Marcos la laguna 	3	Marzo	2023-03-17T00:00:00	2024-11-08T21:00:00	2	Temperatura media	16.7
182874	7	Sololá	716	San Marcos la Laguna 	11	San Marcos la laguna 	3	Marzo	2023-03-17T00:00:00	2024-11-08T21:00:00	4	Temperatura máxima	17.4
182875	7	Sololá	716	San Marcos la Laguna 	11	San Marcos la laguna 	3	Marzo	2023-03-17T00:00:00	2024-11-08T21:00:00	3	Temperatura mínima	16.6
182876	7	Sololá	716	San Marcos la Laguna 	11	San Marcos la laguna 	3	Marzo	2023-03-17T00:00:00	2024-11-08T21:00:00	5	Humedad	92
182877	7	Sololá	716	San Marcos la Laguna 	11	San Marcos la laguna 	3	Marzo	2023-03-17T00:00:00	2024-11-08T21:00:00	6	Velocidad del viento	3.2
182878	7	Sololá	716	San Marcos la Laguna 	11	San Marcos la laguna 	3	Marzo	2023-03-17T00:00:00	2024-11-08T21:00:00	7	Dirección del viento	3.22
182879	7	Sololá	716	San Marcos la Laguna 	11	San Marcos la laguna 	3	Marzo	2023-03-17T00:00:00	2024-11-08T21:00:00	1	Precipitación	0
182880	7	Sololá	716	San Marcos la Laguna 	11	San Marcos la laguna 	3	Marzo	2023-03-17T00:00:00	2024-11-08T21:00:00	8	Radiación solar	0
182881	7	Sololá	716	San Marcos la Laguna 	11	San Marcos la laguna 	3	Marzo	2023-03-17T00:00:00	2024-11-08T22:00:00	2	Temperatura media	16.2
182882	7	Sololá	716	San Marcos la Laguna 	11	San Marcos la laguna 	3	Marzo	2023-03-17T00:00:00	2024-11-08T22:00:00	4	Temperatura máxima	16.7
182883	7	Sololá	716	San Marcos la Laguna 	11	San Marcos la laguna 	3	Marzo	2023-03-17T00:00:00	2024-11-08T22:00:00	3	Temperatura mínima	16.2
182884	7	Sololá	716	San Marcos la Laguna 	11	San Marcos la laguna 	3	Marzo	2023-03-17T00:00:00	2024-11-08T22:00:00	5	Humedad	90
182885	7	Sololá	716	San Marcos la Laguna 	11	San Marcos la laguna 	3	Marzo	2023-03-17T00:00:00	2024-11-08T22:00:00	6	Velocidad del viento	4.8
182886	7	Sololá	716	San Marcos la Laguna 	11	San Marcos la laguna 	3	Marzo	2023-03-17T00:00:00	2024-11-08T22:00:00	7	Dirección del viento	4.83
182887	7	Sololá	716	San Marcos la Laguna 	11	San Marcos la laguna 	3	Marzo	2023-03-17T00:00:00	2024-11-08T22:00:00	1	Precipitación	0
182888	7	Sololá	716	San Marcos la Laguna 	11	San Marcos la laguna 	3	Marzo	2023-03-17T00:00:00	2024-11-08T22:00:00	8	Radiación solar	0
182889	7	Sololá	716	San Marcos la Laguna 	11	San Marcos la laguna 	3	Marzo	2023-03-17T00:00:00	2024-11-08T23:00:00	2	Temperatura media	16
182890	7	Sololá	716	San Marcos la Laguna 	11	San Marcos la laguna 	3	Marzo	2023-03-17T00:00:00	2024-11-08T23:00:00	4	Temperatura máxima	16.5
182891	7	Sololá	716	San Marcos la Laguna 	11	San Marcos la laguna 	3	Marzo	2023-03-17T00:00:00	2024-11-08T23:00:00	3	Temperatura mínima	15.9
182892	7	Sololá	716	San Marcos la Laguna 	11	San Marcos la laguna 	3	Marzo	2023-03-17T00:00:00	2024-11-08T23:00:00	5	Humedad	89
182893	7	Sololá	716	San Marcos la Laguna 	11	San Marcos la laguna 	3	Marzo	2023-03-17T00:00:00	2024-11-08T23:00:00	6	Velocidad del viento	4.8
182894	7	Sololá	716	San Marcos la Laguna 	11	San Marcos la laguna 	3	Marzo	2023-03-17T00:00:00	2024-11-08T23:00:00	7	Dirección del viento	4.83
182895	7	Sololá	716	San Marcos la Laguna 	11	San Marcos la laguna 	3	Marzo	2023-03-17T00:00:00	2024-11-08T23:00:00	1	Precipitación	0
182896	7	Sololá	716	San Marcos la Laguna 	11	San Marcos la laguna 	3	Marzo	2023-03-17T00:00:00	2024-11-08T23:00:00	8	Radiación solar	0
182897	7	Sololá	716	San Marcos la Laguna 	11	San Marcos la laguna 	3	Marzo	2023-03-18T00:00:00	2024-11-08T00:00:00	2	Temperatura media	15.5
182898	7	Sololá	716	San Marcos la Laguna 	11	San Marcos la laguna 	3	Marzo	2023-03-18T00:00:00	2024-11-08T00:00:00	4	Temperatura máxima	16
182899	7	Sololá	716	San Marcos la Laguna 	11	San Marcos la laguna 	3	Marzo	2023-03-18T00:00:00	2024-11-08T00:00:00	3	Temperatura mínima	15.3
182900	7	Sololá	716	San Marcos la Laguna 	11	San Marcos la laguna 	3	Marzo	2023-03-18T00:00:00	2024-11-08T00:00:00	5	Humedad	90
182901	7	Sololá	716	San Marcos la Laguna 	11	San Marcos la laguna 	3	Marzo	2023-03-18T00:00:00	2024-11-08T00:00:00	6	Velocidad del viento	6.4
182902	7	Sololá	716	San Marcos la Laguna 	11	San Marcos la laguna 	3	Marzo	2023-03-18T00:00:00	2024-11-08T00:00:00	7	Dirección del viento	6.44
182903	7	Sololá	716	San Marcos la Laguna 	11	San Marcos la laguna 	3	Marzo	2023-03-18T00:00:00	2024-11-08T00:00:00	1	Precipitación	0
182904	7	Sololá	716	San Marcos la Laguna 	11	San Marcos la laguna 	3	Marzo	2023-03-18T00:00:00	2024-11-08T00:00:00	8	Radiación solar	0
182905	7	Sololá	716	San Marcos la Laguna 	11	San Marcos la laguna 	3	Marzo	2023-03-18T00:00:00	2024-11-08T01:00:00	2	Temperatura media	15.6
182906	7	Sololá	716	San Marcos la Laguna 	11	San Marcos la laguna 	3	Marzo	2023-03-18T00:00:00	2024-11-08T01:00:00	4	Temperatura máxima	15.6
182907	7	Sololá	716	San Marcos la Laguna 	11	San Marcos la laguna 	3	Marzo	2023-03-18T00:00:00	2024-11-08T01:00:00	3	Temperatura mínima	15.2
182908	7	Sololá	716	San Marcos la Laguna 	11	San Marcos la laguna 	3	Marzo	2023-03-18T00:00:00	2024-11-08T01:00:00	5	Humedad	90
182909	7	Sololá	716	San Marcos la Laguna 	11	San Marcos la laguna 	3	Marzo	2023-03-18T00:00:00	2024-11-08T01:00:00	6	Velocidad del viento	6.4
182910	7	Sololá	716	San Marcos la Laguna 	11	San Marcos la laguna 	3	Marzo	2023-03-18T00:00:00	2024-11-08T01:00:00	7	Dirección del viento	6.44
182911	7	Sololá	716	San Marcos la Laguna 	11	San Marcos la laguna 	3	Marzo	2023-03-18T00:00:00	2024-11-08T01:00:00	1	Precipitación	0
182912	7	Sololá	716	San Marcos la Laguna 	11	San Marcos la laguna 	3	Marzo	2023-03-18T00:00:00	2024-11-08T01:00:00	8	Radiación solar	0
182913	7	Sololá	716	San Marcos la Laguna 	11	San Marcos la laguna 	3	Marzo	2023-03-18T00:00:00	2024-11-08T02:00:00	2	Temperatura media	16.2
182914	7	Sololá	716	San Marcos la Laguna 	11	San Marcos la laguna 	3	Marzo	2023-03-18T00:00:00	2024-11-08T02:00:00	4	Temperatura máxima	16.2
182915	7	Sololá	716	San Marcos la Laguna 	11	San Marcos la laguna 	3	Marzo	2023-03-18T00:00:00	2024-11-08T02:00:00	3	Temperatura mínima	15.6
182916	7	Sololá	716	San Marcos la Laguna 	11	San Marcos la laguna 	3	Marzo	2023-03-18T00:00:00	2024-11-08T02:00:00	5	Humedad	84
182917	7	Sololá	716	San Marcos la Laguna 	11	San Marcos la laguna 	3	Marzo	2023-03-18T00:00:00	2024-11-08T02:00:00	6	Velocidad del viento	4.8
182918	7	Sololá	716	San Marcos la Laguna 	11	San Marcos la laguna 	3	Marzo	2023-03-18T00:00:00	2024-11-08T02:00:00	7	Dirección del viento	4.83
182919	7	Sololá	716	San Marcos la Laguna 	11	San Marcos la laguna 	3	Marzo	2023-03-18T00:00:00	2024-11-08T02:00:00	1	Precipitación	0
182920	7	Sololá	716	San Marcos la Laguna 	11	San Marcos la laguna 	3	Marzo	2023-03-18T00:00:00	2024-11-08T02:00:00	8	Radiación solar	0
182921	7	Sololá	716	San Marcos la Laguna 	11	San Marcos la laguna 	3	Marzo	2023-03-18T00:00:00	2024-11-08T03:00:00	2	Temperatura media	16.2
182922	7	Sololá	716	San Marcos la Laguna 	11	San Marcos la laguna 	3	Marzo	2023-03-18T00:00:00	2024-11-08T03:00:00	4	Temperatura máxima	16.3
182923	7	Sololá	716	San Marcos la Laguna 	11	San Marcos la laguna 	3	Marzo	2023-03-18T00:00:00	2024-11-08T03:00:00	3	Temperatura mínima	16.1
182924	7	Sololá	716	San Marcos la Laguna 	11	San Marcos la laguna 	3	Marzo	2023-03-18T00:00:00	2024-11-08T03:00:00	5	Humedad	83
182925	7	Sololá	716	San Marcos la Laguna 	11	San Marcos la laguna 	3	Marzo	2023-03-18T00:00:00	2024-11-08T03:00:00	6	Velocidad del viento	4.8
182926	7	Sololá	716	San Marcos la Laguna 	11	San Marcos la laguna 	3	Marzo	2023-03-18T00:00:00	2024-11-08T03:00:00	7	Dirección del viento	4.83
182927	7	Sololá	716	San Marcos la Laguna 	11	San Marcos la laguna 	3	Marzo	2023-03-18T00:00:00	2024-11-08T03:00:00	1	Precipitación	0
182928	7	Sololá	716	San Marcos la Laguna 	11	San Marcos la laguna 	3	Marzo	2023-03-18T00:00:00	2024-11-08T03:00:00	8	Radiación solar	0
182929	7	Sololá	716	San Marcos la Laguna 	11	San Marcos la laguna 	3	Marzo	2023-03-18T00:00:00	2024-11-08T04:00:00	2	Temperatura media	15.8
182930	7	Sololá	716	San Marcos la Laguna 	11	San Marcos la laguna 	3	Marzo	2023-03-18T00:00:00	2024-11-08T04:00:00	4	Temperatura máxima	16.2
182931	7	Sololá	716	San Marcos la Laguna 	11	San Marcos la laguna 	3	Marzo	2023-03-18T00:00:00	2024-11-08T04:00:00	3	Temperatura mínima	15.7
182932	7	Sololá	716	San Marcos la Laguna 	11	San Marcos la laguna 	3	Marzo	2023-03-18T00:00:00	2024-11-08T04:00:00	5	Humedad	82
182933	7	Sololá	716	San Marcos la Laguna 	11	San Marcos la laguna 	3	Marzo	2023-03-18T00:00:00	2024-11-08T04:00:00	6	Velocidad del viento	6.4
182934	7	Sololá	716	San Marcos la Laguna 	11	San Marcos la laguna 	3	Marzo	2023-03-18T00:00:00	2024-11-08T04:00:00	7	Dirección del viento	6.44
182935	7	Sololá	716	San Marcos la Laguna 	11	San Marcos la laguna 	3	Marzo	2023-03-18T00:00:00	2024-11-08T04:00:00	1	Precipitación	0
182936	7	Sololá	716	San Marcos la Laguna 	11	San Marcos la laguna 	3	Marzo	2023-03-18T00:00:00	2024-11-08T04:00:00	8	Radiación solar	0
182937	7	Sololá	716	San Marcos la Laguna 	11	San Marcos la laguna 	3	Marzo	2023-03-18T00:00:00	2024-11-08T05:00:00	2	Temperatura media	15
182938	7	Sololá	716	San Marcos la Laguna 	11	San Marcos la laguna 	3	Marzo	2023-03-18T00:00:00	2024-11-08T05:00:00	4	Temperatura máxima	15.9
182939	7	Sololá	716	San Marcos la Laguna 	11	San Marcos la laguna 	3	Marzo	2023-03-18T00:00:00	2024-11-08T05:00:00	3	Temperatura mínima	15
182940	7	Sololá	716	San Marcos la Laguna 	11	San Marcos la laguna 	3	Marzo	2023-03-18T00:00:00	2024-11-08T05:00:00	5	Humedad	82
182941	7	Sololá	716	San Marcos la Laguna 	11	San Marcos la laguna 	3	Marzo	2023-03-18T00:00:00	2024-11-08T05:00:00	6	Velocidad del viento	6.4
182942	7	Sololá	716	San Marcos la Laguna 	11	San Marcos la laguna 	3	Marzo	2023-03-18T00:00:00	2024-11-08T05:00:00	7	Dirección del viento	6.44
182943	7	Sololá	716	San Marcos la Laguna 	11	San Marcos la laguna 	3	Marzo	2023-03-18T00:00:00	2024-11-08T05:00:00	1	Precipitación	0
182944	7	Sololá	716	San Marcos la Laguna 	11	San Marcos la laguna 	3	Marzo	2023-03-18T00:00:00	2024-11-08T05:00:00	8	Radiación solar	0
182945	7	Sololá	716	San Marcos la Laguna 	11	San Marcos la laguna 	3	Marzo	2023-03-18T00:00:00	2024-11-08T06:00:00	2	Temperatura media	14.6
182946	7	Sololá	716	San Marcos la Laguna 	11	San Marcos la laguna 	3	Marzo	2023-03-18T00:00:00	2024-11-08T06:00:00	4	Temperatura máxima	15.3
182947	7	Sololá	716	San Marcos la Laguna 	11	San Marcos la laguna 	3	Marzo	2023-03-18T00:00:00	2024-11-08T06:00:00	3	Temperatura mínima	14.6
182948	7	Sololá	716	San Marcos la Laguna 	11	San Marcos la laguna 	3	Marzo	2023-03-18T00:00:00	2024-11-08T06:00:00	5	Humedad	83
182949	7	Sololá	716	San Marcos la Laguna 	11	San Marcos la laguna 	3	Marzo	2023-03-18T00:00:00	2024-11-08T06:00:00	6	Velocidad del viento	8
182950	7	Sololá	716	San Marcos la Laguna 	11	San Marcos la laguna 	3	Marzo	2023-03-18T00:00:00	2024-11-08T06:00:00	7	Dirección del viento	8.05
182951	7	Sololá	716	San Marcos la Laguna 	11	San Marcos la laguna 	3	Marzo	2023-03-18T00:00:00	2024-11-08T06:00:00	1	Precipitación	0
182952	7	Sololá	716	San Marcos la Laguna 	11	San Marcos la laguna 	3	Marzo	2023-03-18T00:00:00	2024-11-08T06:00:00	8	Radiación solar	0
182953	7	Sololá	716	San Marcos la Laguna 	11	San Marcos la laguna 	3	Marzo	2023-03-18T00:00:00	2024-11-08T07:00:00	2	Temperatura media	14.3
182954	7	Sololá	716	San Marcos la Laguna 	11	San Marcos la laguna 	3	Marzo	2023-03-18T00:00:00	2024-11-08T07:00:00	4	Temperatura máxima	14.7
182955	7	Sololá	716	San Marcos la Laguna 	11	San Marcos la laguna 	3	Marzo	2023-03-18T00:00:00	2024-11-08T07:00:00	3	Temperatura mínima	13.9
182956	7	Sololá	716	San Marcos la Laguna 	11	San Marcos la laguna 	3	Marzo	2023-03-18T00:00:00	2024-11-08T07:00:00	5	Humedad	85
182957	7	Sololá	716	San Marcos la Laguna 	11	San Marcos la laguna 	3	Marzo	2023-03-18T00:00:00	2024-11-08T07:00:00	6	Velocidad del viento	6.4
182958	7	Sololá	716	San Marcos la Laguna 	11	San Marcos la laguna 	3	Marzo	2023-03-18T00:00:00	2024-11-08T07:00:00	7	Dirección del viento	6.44
182959	7	Sololá	716	San Marcos la Laguna 	11	San Marcos la laguna 	3	Marzo	2023-03-18T00:00:00	2024-11-08T07:00:00	1	Precipitación	0
182960	7	Sololá	716	San Marcos la Laguna 	11	San Marcos la laguna 	3	Marzo	2023-03-18T00:00:00	2024-11-08T07:00:00	8	Radiación solar	26
182961	7	Sololá	716	San Marcos la Laguna 	11	San Marcos la laguna 	3	Marzo	2023-03-18T00:00:00	2024-11-08T08:00:00	2	Temperatura media	18.3
182962	7	Sololá	716	San Marcos la Laguna 	11	San Marcos la laguna 	3	Marzo	2023-03-18T00:00:00	2024-11-08T08:00:00	4	Temperatura máxima	18.3
182963	7	Sololá	716	San Marcos la Laguna 	11	San Marcos la laguna 	3	Marzo	2023-03-18T00:00:00	2024-11-08T08:00:00	3	Temperatura mínima	14.3
182964	7	Sololá	716	San Marcos la Laguna 	11	San Marcos la laguna 	3	Marzo	2023-03-18T00:00:00	2024-11-08T08:00:00	5	Humedad	79
182965	7	Sololá	716	San Marcos la Laguna 	11	San Marcos la laguna 	3	Marzo	2023-03-18T00:00:00	2024-11-08T08:00:00	6	Velocidad del viento	3.2
182966	7	Sololá	716	San Marcos la Laguna 	11	San Marcos la laguna 	3	Marzo	2023-03-18T00:00:00	2024-11-08T08:00:00	7	Dirección del viento	3.22
182967	7	Sololá	716	San Marcos la Laguna 	11	San Marcos la laguna 	3	Marzo	2023-03-18T00:00:00	2024-11-08T08:00:00	1	Precipitación	0
182968	7	Sololá	716	San Marcos la Laguna 	11	San Marcos la laguna 	3	Marzo	2023-03-18T00:00:00	2024-11-08T08:00:00	8	Radiación solar	208
182969	7	Sololá	716	San Marcos la Laguna 	11	San Marcos la laguna 	3	Marzo	2023-03-18T00:00:00	2024-11-08T09:00:00	2	Temperatura media	19.5
182970	7	Sololá	716	San Marcos la Laguna 	11	San Marcos la laguna 	3	Marzo	2023-03-18T00:00:00	2024-11-08T09:00:00	4	Temperatura máxima	19.5
182971	7	Sololá	716	San Marcos la Laguna 	11	San Marcos la laguna 	3	Marzo	2023-03-18T00:00:00	2024-11-08T09:00:00	3	Temperatura mínima	18.3
182972	7	Sololá	716	San Marcos la Laguna 	11	San Marcos la laguna 	3	Marzo	2023-03-18T00:00:00	2024-11-08T09:00:00	5	Humedad	78
182973	7	Sololá	716	San Marcos la Laguna 	11	San Marcos la laguna 	3	Marzo	2023-03-18T00:00:00	2024-11-08T09:00:00	6	Velocidad del viento	3.2
182974	7	Sololá	716	San Marcos la Laguna 	11	San Marcos la laguna 	3	Marzo	2023-03-18T00:00:00	2024-11-08T09:00:00	7	Dirección del viento	3.22
182975	7	Sololá	716	San Marcos la Laguna 	11	San Marcos la laguna 	3	Marzo	2023-03-18T00:00:00	2024-11-08T09:00:00	1	Precipitación	0
182976	7	Sololá	716	San Marcos la Laguna 	11	San Marcos la laguna 	3	Marzo	2023-03-18T00:00:00	2024-11-08T09:00:00	8	Radiación solar	435
182977	7	Sololá	716	San Marcos la Laguna 	11	San Marcos la laguna 	3	Marzo	2023-03-18T00:00:00	2024-11-08T10:00:00	2	Temperatura media	21.2
182978	7	Sololá	716	San Marcos la Laguna 	11	San Marcos la laguna 	3	Marzo	2023-03-18T00:00:00	2024-11-08T10:00:00	4	Temperatura máxima	21.2
182979	7	Sololá	716	San Marcos la Laguna 	11	San Marcos la laguna 	3	Marzo	2023-03-18T00:00:00	2024-11-08T10:00:00	3	Temperatura mínima	19.5
182980	7	Sololá	716	San Marcos la Laguna 	11	San Marcos la laguna 	3	Marzo	2023-03-18T00:00:00	2024-11-08T10:00:00	5	Humedad	70
182981	7	Sololá	716	San Marcos la Laguna 	11	San Marcos la laguna 	3	Marzo	2023-03-18T00:00:00	2024-11-08T10:00:00	6	Velocidad del viento	4.8
182982	7	Sololá	716	San Marcos la Laguna 	11	San Marcos la laguna 	3	Marzo	2023-03-18T00:00:00	2024-11-08T10:00:00	7	Dirección del viento	4.83
182983	7	Sololá	716	San Marcos la Laguna 	11	San Marcos la laguna 	3	Marzo	2023-03-18T00:00:00	2024-11-08T10:00:00	1	Precipitación	0
182984	7	Sololá	716	San Marcos la Laguna 	11	San Marcos la laguna 	3	Marzo	2023-03-18T00:00:00	2024-11-08T10:00:00	8	Radiación solar	636
182985	7	Sololá	716	San Marcos la Laguna 	11	San Marcos la laguna 	3	Marzo	2023-03-18T00:00:00	2024-11-08T11:00:00	2	Temperatura media	21.2
182986	7	Sololá	716	San Marcos la Laguna 	11	San Marcos la laguna 	3	Marzo	2023-03-18T00:00:00	2024-11-08T11:00:00	4	Temperatura máxima	21.2
182987	7	Sololá	716	San Marcos la Laguna 	11	San Marcos la laguna 	3	Marzo	2023-03-18T00:00:00	2024-11-08T11:00:00	3	Temperatura mínima	20.5
182988	7	Sololá	716	San Marcos la Laguna 	11	San Marcos la laguna 	3	Marzo	2023-03-18T00:00:00	2024-11-08T11:00:00	5	Humedad	73
182989	7	Sololá	716	San Marcos la Laguna 	11	San Marcos la laguna 	3	Marzo	2023-03-18T00:00:00	2024-11-08T11:00:00	6	Velocidad del viento	8
182990	7	Sololá	716	San Marcos la Laguna 	11	San Marcos la laguna 	3	Marzo	2023-03-18T00:00:00	2024-11-08T11:00:00	7	Dirección del viento	8.05
182991	7	Sololá	716	San Marcos la Laguna 	11	San Marcos la laguna 	3	Marzo	2023-03-18T00:00:00	2024-11-08T11:00:00	1	Precipitación	0
182992	7	Sololá	716	San Marcos la Laguna 	11	San Marcos la laguna 	3	Marzo	2023-03-18T00:00:00	2024-11-08T11:00:00	8	Radiación solar	791
182993	7	Sololá	716	San Marcos la Laguna 	11	San Marcos la laguna 	3	Marzo	2023-03-18T00:00:00	2024-11-08T12:00:00	2	Temperatura media	21.6
182994	7	Sololá	716	San Marcos la Laguna 	11	San Marcos la laguna 	3	Marzo	2023-03-18T00:00:00	2024-11-08T12:00:00	4	Temperatura máxima	21.6
182995	7	Sololá	716	San Marcos la Laguna 	11	San Marcos la laguna 	3	Marzo	2023-03-18T00:00:00	2024-11-08T12:00:00	3	Temperatura mínima	20.9
182996	7	Sololá	716	San Marcos la Laguna 	11	San Marcos la laguna 	3	Marzo	2023-03-18T00:00:00	2024-11-08T12:00:00	5	Humedad	76
182997	7	Sololá	716	San Marcos la Laguna 	11	San Marcos la laguna 	3	Marzo	2023-03-18T00:00:00	2024-11-08T12:00:00	6	Velocidad del viento	14.5
182998	7	Sololá	716	San Marcos la Laguna 	11	San Marcos la laguna 	3	Marzo	2023-03-18T00:00:00	2024-11-08T12:00:00	7	Dirección del viento	14.48
182999	7	Sololá	716	San Marcos la Laguna 	11	San Marcos la laguna 	3	Marzo	2023-03-18T00:00:00	2024-11-08T12:00:00	1	Precipitación	0
183000	7	Sololá	716	San Marcos la Laguna 	11	San Marcos la laguna 	3	Marzo	2023-03-18T00:00:00	2024-11-08T12:00:00	8	Radiación solar	883
183001	7	Sololá	716	San Marcos la Laguna 	11	San Marcos la laguna 	3	Marzo	2023-03-18T00:00:00	2024-11-08T13:00:00	2	Temperatura media	22.5
183002	7	Sololá	716	San Marcos la Laguna 	11	San Marcos la laguna 	3	Marzo	2023-03-18T00:00:00	2024-11-08T13:00:00	4	Temperatura máxima	22.5
183003	7	Sololá	716	San Marcos la Laguna 	11	San Marcos la laguna 	3	Marzo	2023-03-18T00:00:00	2024-11-08T13:00:00	3	Temperatura mínima	21.6
183004	7	Sololá	716	San Marcos la Laguna 	11	San Marcos la laguna 	3	Marzo	2023-03-18T00:00:00	2024-11-08T13:00:00	5	Humedad	73
183005	7	Sololá	716	San Marcos la Laguna 	11	San Marcos la laguna 	3	Marzo	2023-03-18T00:00:00	2024-11-08T13:00:00	6	Velocidad del viento	11.3
183006	7	Sololá	716	San Marcos la Laguna 	11	San Marcos la laguna 	3	Marzo	2023-03-18T00:00:00	2024-11-08T13:00:00	7	Dirección del viento	11.27
183007	7	Sololá	716	San Marcos la Laguna 	11	San Marcos la laguna 	3	Marzo	2023-03-18T00:00:00	2024-11-08T13:00:00	1	Precipitación	0
183008	7	Sololá	716	San Marcos la Laguna 	11	San Marcos la laguna 	3	Marzo	2023-03-18T00:00:00	2024-11-08T13:00:00	8	Radiación solar	917
183009	7	Sololá	716	San Marcos la Laguna 	11	San Marcos la laguna 	3	Marzo	2023-03-18T00:00:00	2024-11-08T14:00:00	2	Temperatura media	22.7
183010	7	Sololá	716	San Marcos la Laguna 	11	San Marcos la laguna 	3	Marzo	2023-03-18T00:00:00	2024-11-08T14:00:00	4	Temperatura máxima	24
183011	7	Sololá	716	San Marcos la Laguna 	11	San Marcos la laguna 	3	Marzo	2023-03-18T00:00:00	2024-11-08T14:00:00	3	Temperatura mínima	21.8
183012	7	Sololá	716	San Marcos la Laguna 	11	San Marcos la laguna 	3	Marzo	2023-03-18T00:00:00	2024-11-08T14:00:00	5	Humedad	68
183013	7	Sololá	716	San Marcos la Laguna 	11	San Marcos la laguna 	3	Marzo	2023-03-18T00:00:00	2024-11-08T14:00:00	6	Velocidad del viento	8
183014	7	Sololá	716	San Marcos la Laguna 	11	San Marcos la laguna 	3	Marzo	2023-03-18T00:00:00	2024-11-08T14:00:00	7	Dirección del viento	8.05
183015	7	Sololá	716	San Marcos la Laguna 	11	San Marcos la laguna 	3	Marzo	2023-03-18T00:00:00	2024-11-08T14:00:00	1	Precipitación	0
183016	7	Sololá	716	San Marcos la Laguna 	11	San Marcos la laguna 	3	Marzo	2023-03-18T00:00:00	2024-11-08T14:00:00	8	Radiación solar	564
183017	7	Sololá	716	San Marcos la Laguna 	11	San Marcos la laguna 	3	Marzo	2023-03-18T00:00:00	2024-11-08T15:00:00	2	Temperatura media	21.2
183018	7	Sololá	716	San Marcos la Laguna 	11	San Marcos la laguna 	3	Marzo	2023-03-18T00:00:00	2024-11-08T15:00:00	4	Temperatura máxima	22.7
183019	7	Sololá	716	San Marcos la Laguna 	11	San Marcos la laguna 	3	Marzo	2023-03-18T00:00:00	2024-11-08T15:00:00	3	Temperatura mínima	21.1
183020	7	Sololá	716	San Marcos la Laguna 	11	San Marcos la laguna 	3	Marzo	2023-03-18T00:00:00	2024-11-08T15:00:00	5	Humedad	76
183021	7	Sololá	716	San Marcos la Laguna 	11	San Marcos la laguna 	3	Marzo	2023-03-18T00:00:00	2024-11-08T15:00:00	6	Velocidad del viento	4.8
183022	7	Sololá	716	San Marcos la Laguna 	11	San Marcos la laguna 	3	Marzo	2023-03-18T00:00:00	2024-11-08T15:00:00	7	Dirección del viento	4.83
183023	7	Sololá	716	San Marcos la Laguna 	11	San Marcos la laguna 	3	Marzo	2023-03-18T00:00:00	2024-11-08T15:00:00	1	Precipitación	0.2
183024	7	Sololá	716	San Marcos la Laguna 	11	San Marcos la laguna 	3	Marzo	2023-03-18T00:00:00	2024-11-08T15:00:00	8	Radiación solar	206
183025	7	Sololá	716	San Marcos la Laguna 	11	San Marcos la laguna 	3	Marzo	2023-03-18T00:00:00	2024-11-08T16:00:00	2	Temperatura media	21.4
183026	7	Sololá	716	San Marcos la Laguna 	11	San Marcos la laguna 	3	Marzo	2023-03-18T00:00:00	2024-11-08T16:00:00	4	Temperatura máxima	21.8
183027	7	Sololá	716	San Marcos la Laguna 	11	San Marcos la laguna 	3	Marzo	2023-03-18T00:00:00	2024-11-08T16:00:00	3	Temperatura mínima	21.1
183028	7	Sololá	716	San Marcos la Laguna 	11	San Marcos la laguna 	3	Marzo	2023-03-18T00:00:00	2024-11-08T16:00:00	5	Humedad	76
183029	7	Sololá	716	San Marcos la Laguna 	11	San Marcos la laguna 	3	Marzo	2023-03-18T00:00:00	2024-11-08T16:00:00	6	Velocidad del viento	3.2
183030	7	Sololá	716	San Marcos la Laguna 	11	San Marcos la laguna 	3	Marzo	2023-03-18T00:00:00	2024-11-08T16:00:00	7	Dirección del viento	3.22
183031	7	Sololá	716	San Marcos la Laguna 	11	San Marcos la laguna 	3	Marzo	2023-03-18T00:00:00	2024-11-08T16:00:00	1	Precipitación	0
183032	7	Sololá	716	San Marcos la Laguna 	11	San Marcos la laguna 	3	Marzo	2023-03-18T00:00:00	2024-11-08T16:00:00	8	Radiación solar	207
183033	7	Sololá	716	San Marcos la Laguna 	11	San Marcos la laguna 	3	Marzo	2023-03-18T00:00:00	2024-11-08T17:00:00	2	Temperatura media	17.4
183034	7	Sololá	716	San Marcos la Laguna 	11	San Marcos la laguna 	3	Marzo	2023-03-18T00:00:00	2024-11-08T17:00:00	4	Temperatura máxima	21.4
183035	7	Sololá	716	San Marcos la Laguna 	11	San Marcos la laguna 	3	Marzo	2023-03-18T00:00:00	2024-11-08T17:00:00	3	Temperatura mínima	17.4
183036	7	Sololá	716	San Marcos la Laguna 	11	San Marcos la laguna 	3	Marzo	2023-03-18T00:00:00	2024-11-08T17:00:00	5	Humedad	83
183037	7	Sololá	716	San Marcos la Laguna 	11	San Marcos la laguna 	3	Marzo	2023-03-18T00:00:00	2024-11-08T17:00:00	6	Velocidad del viento	6.4
183038	7	Sololá	716	San Marcos la Laguna 	11	San Marcos la laguna 	3	Marzo	2023-03-18T00:00:00	2024-11-08T17:00:00	7	Dirección del viento	6.44
183039	7	Sololá	716	San Marcos la Laguna 	11	San Marcos la laguna 	3	Marzo	2023-03-18T00:00:00	2024-11-08T17:00:00	1	Precipitación	1
183040	7	Sololá	716	San Marcos la Laguna 	11	San Marcos la laguna 	3	Marzo	2023-03-18T00:00:00	2024-11-08T17:00:00	8	Radiación solar	35
183041	7	Sololá	716	San Marcos la Laguna 	11	San Marcos la laguna 	3	Marzo	2023-03-18T00:00:00	2024-11-08T18:00:00	2	Temperatura media	17
183042	7	Sololá	716	San Marcos la Laguna 	11	San Marcos la laguna 	3	Marzo	2023-03-18T00:00:00	2024-11-08T18:00:00	4	Temperatura máxima	17.4
183043	7	Sololá	716	San Marcos la Laguna 	11	San Marcos la laguna 	3	Marzo	2023-03-18T00:00:00	2024-11-08T18:00:00	3	Temperatura mínima	16.3
183044	7	Sololá	716	San Marcos la Laguna 	11	San Marcos la laguna 	3	Marzo	2023-03-18T00:00:00	2024-11-08T18:00:00	5	Humedad	91
183045	7	Sololá	716	San Marcos la Laguna 	11	San Marcos la laguna 	3	Marzo	2023-03-18T00:00:00	2024-11-08T18:00:00	6	Velocidad del viento	4.8
183046	7	Sololá	716	San Marcos la Laguna 	11	San Marcos la laguna 	3	Marzo	2023-03-18T00:00:00	2024-11-08T18:00:00	7	Dirección del viento	4.83
183047	7	Sololá	716	San Marcos la Laguna 	11	San Marcos la laguna 	3	Marzo	2023-03-18T00:00:00	2024-11-08T18:00:00	1	Precipitación	0.6
183048	7	Sololá	716	San Marcos la Laguna 	11	San Marcos la laguna 	3	Marzo	2023-03-18T00:00:00	2024-11-08T18:00:00	8	Radiación solar	29
183049	7	Sololá	716	San Marcos la Laguna 	11	San Marcos la laguna 	3	Marzo	2023-03-18T00:00:00	2024-11-08T19:00:00	2	Temperatura media	16.3
183050	7	Sololá	716	San Marcos la Laguna 	11	San Marcos la laguna 	3	Marzo	2023-03-18T00:00:00	2024-11-08T19:00:00	4	Temperatura máxima	16.9
183051	7	Sololá	716	San Marcos la Laguna 	11	San Marcos la laguna 	3	Marzo	2023-03-18T00:00:00	2024-11-08T19:00:00	3	Temperatura mínima	16.3
183052	7	Sololá	716	San Marcos la Laguna 	11	San Marcos la laguna 	3	Marzo	2023-03-18T00:00:00	2024-11-08T19:00:00	5	Humedad	91
183053	7	Sololá	716	San Marcos la Laguna 	11	San Marcos la laguna 	3	Marzo	2023-03-18T00:00:00	2024-11-08T19:00:00	6	Velocidad del viento	1.6
183054	7	Sololá	716	San Marcos la Laguna 	11	San Marcos la laguna 	3	Marzo	2023-03-18T00:00:00	2024-11-08T19:00:00	7	Dirección del viento	1.61
183055	7	Sololá	716	San Marcos la Laguna 	11	San Marcos la laguna 	3	Marzo	2023-03-18T00:00:00	2024-11-08T19:00:00	1	Precipitación	0
183056	7	Sololá	716	San Marcos la Laguna 	11	San Marcos la laguna 	3	Marzo	2023-03-18T00:00:00	2024-11-08T19:00:00	8	Radiación solar	0
183057	7	Sololá	716	San Marcos la Laguna 	11	San Marcos la laguna 	3	Marzo	2023-03-18T00:00:00	2024-11-08T20:00:00	2	Temperatura media	16
183058	7	Sololá	716	San Marcos la Laguna 	11	San Marcos la laguna 	3	Marzo	2023-03-18T00:00:00	2024-11-08T20:00:00	4	Temperatura máxima	16.4
183059	7	Sololá	716	San Marcos la Laguna 	11	San Marcos la laguna 	3	Marzo	2023-03-18T00:00:00	2024-11-08T20:00:00	3	Temperatura mínima	16
183060	7	Sololá	716	San Marcos la Laguna 	11	San Marcos la laguna 	3	Marzo	2023-03-18T00:00:00	2024-11-08T20:00:00	5	Humedad	93
183061	7	Sololá	716	San Marcos la Laguna 	11	San Marcos la laguna 	3	Marzo	2023-03-18T00:00:00	2024-11-08T20:00:00	6	Velocidad del viento	3.2
183062	7	Sololá	716	San Marcos la Laguna 	11	San Marcos la laguna 	3	Marzo	2023-03-18T00:00:00	2024-11-08T20:00:00	7	Dirección del viento	3.22
183063	7	Sololá	716	San Marcos la Laguna 	11	San Marcos la laguna 	3	Marzo	2023-03-18T00:00:00	2024-11-08T20:00:00	1	Precipitación	0
183064	7	Sololá	716	San Marcos la Laguna 	11	San Marcos la laguna 	3	Marzo	2023-03-18T00:00:00	2024-11-08T20:00:00	8	Radiación solar	0
183065	7	Sololá	716	San Marcos la Laguna 	11	San Marcos la laguna 	3	Marzo	2023-03-18T00:00:00	2024-11-08T21:00:00	2	Temperatura media	15.7
183066	7	Sololá	716	San Marcos la Laguna 	11	San Marcos la laguna 	3	Marzo	2023-03-18T00:00:00	2024-11-08T21:00:00	4	Temperatura máxima	16.1
183067	7	Sololá	716	San Marcos la Laguna 	11	San Marcos la laguna 	3	Marzo	2023-03-18T00:00:00	2024-11-08T21:00:00	3	Temperatura mínima	15.7
183068	7	Sololá	716	San Marcos la Laguna 	11	San Marcos la laguna 	3	Marzo	2023-03-18T00:00:00	2024-11-08T21:00:00	5	Humedad	94
183069	7	Sololá	716	San Marcos la Laguna 	11	San Marcos la laguna 	3	Marzo	2023-03-18T00:00:00	2024-11-08T21:00:00	6	Velocidad del viento	3.2
183070	7	Sololá	716	San Marcos la Laguna 	11	San Marcos la laguna 	3	Marzo	2023-03-18T00:00:00	2024-11-08T21:00:00	7	Dirección del viento	3.22
183071	7	Sololá	716	San Marcos la Laguna 	11	San Marcos la laguna 	3	Marzo	2023-03-18T00:00:00	2024-11-08T21:00:00	1	Precipitación	0
183072	7	Sololá	716	San Marcos la Laguna 	11	San Marcos la laguna 	3	Marzo	2023-03-18T00:00:00	2024-11-08T21:00:00	8	Radiación solar	0
183073	7	Sololá	716	San Marcos la Laguna 	11	San Marcos la laguna 	3	Marzo	2023-03-18T00:00:00	2024-11-08T22:00:00	2	Temperatura media	15.3
183074	7	Sololá	716	San Marcos la Laguna 	11	San Marcos la laguna 	3	Marzo	2023-03-18T00:00:00	2024-11-08T22:00:00	4	Temperatura máxima	15.7
183075	7	Sololá	716	San Marcos la Laguna 	11	San Marcos la laguna 	3	Marzo	2023-03-18T00:00:00	2024-11-08T22:00:00	3	Temperatura mínima	15.3
183076	7	Sololá	716	San Marcos la Laguna 	11	San Marcos la laguna 	3	Marzo	2023-03-18T00:00:00	2024-11-08T22:00:00	5	Humedad	94
183077	7	Sololá	716	San Marcos la Laguna 	11	San Marcos la laguna 	3	Marzo	2023-03-18T00:00:00	2024-11-08T22:00:00	6	Velocidad del viento	4.8
183078	7	Sololá	716	San Marcos la Laguna 	11	San Marcos la laguna 	3	Marzo	2023-03-18T00:00:00	2024-11-08T22:00:00	7	Dirección del viento	4.83
183079	7	Sololá	716	San Marcos la Laguna 	11	San Marcos la laguna 	3	Marzo	2023-03-18T00:00:00	2024-11-08T22:00:00	1	Precipitación	0
183080	7	Sololá	716	San Marcos la Laguna 	11	San Marcos la laguna 	3	Marzo	2023-03-18T00:00:00	2024-11-08T22:00:00	8	Radiación solar	0
183081	7	Sololá	716	San Marcos la Laguna 	11	San Marcos la laguna 	3	Marzo	2023-03-18T00:00:00	2024-11-08T23:00:00	2	Temperatura media	15.3
183082	7	Sololá	716	San Marcos la Laguna 	11	San Marcos la laguna 	3	Marzo	2023-03-18T00:00:00	2024-11-08T23:00:00	4	Temperatura máxima	15.4
183083	7	Sololá	716	San Marcos la Laguna 	11	San Marcos la laguna 	3	Marzo	2023-03-18T00:00:00	2024-11-08T23:00:00	3	Temperatura mínima	15.2
183084	7	Sololá	716	San Marcos la Laguna 	11	San Marcos la laguna 	3	Marzo	2023-03-18T00:00:00	2024-11-08T23:00:00	5	Humedad	94
183085	7	Sololá	716	San Marcos la Laguna 	11	San Marcos la laguna 	3	Marzo	2023-03-18T00:00:00	2024-11-08T23:00:00	6	Velocidad del viento	3.2
183086	7	Sololá	716	San Marcos la Laguna 	11	San Marcos la laguna 	3	Marzo	2023-03-18T00:00:00	2024-11-08T23:00:00	7	Dirección del viento	3.22
183087	7	Sololá	716	San Marcos la Laguna 	11	San Marcos la laguna 	3	Marzo	2023-03-18T00:00:00	2024-11-08T23:00:00	1	Precipitación	0
183088	7	Sololá	716	San Marcos la Laguna 	11	San Marcos la laguna 	3	Marzo	2023-03-18T00:00:00	2024-11-08T23:00:00	8	Radiación solar	0
183089	7	Sololá	716	San Marcos la Laguna 	11	San Marcos la laguna 	3	Marzo	2023-03-19T00:00:00	2024-11-08T00:00:00	2	Temperatura media	15.2
183090	7	Sololá	716	San Marcos la Laguna 	11	San Marcos la laguna 	3	Marzo	2023-03-19T00:00:00	2024-11-08T00:00:00	4	Temperatura máxima	15.4
183091	7	Sololá	716	San Marcos la Laguna 	11	San Marcos la laguna 	3	Marzo	2023-03-19T00:00:00	2024-11-08T00:00:00	3	Temperatura mínima	15.2
183092	7	Sololá	716	San Marcos la Laguna 	11	San Marcos la laguna 	3	Marzo	2023-03-19T00:00:00	2024-11-08T00:00:00	5	Humedad	94
183093	7	Sololá	716	San Marcos la Laguna 	11	San Marcos la laguna 	3	Marzo	2023-03-19T00:00:00	2024-11-08T00:00:00	6	Velocidad del viento	3.2
183094	7	Sololá	716	San Marcos la Laguna 	11	San Marcos la laguna 	3	Marzo	2023-03-19T00:00:00	2024-11-08T00:00:00	7	Dirección del viento	3.22
183095	7	Sololá	716	San Marcos la Laguna 	11	San Marcos la laguna 	3	Marzo	2023-03-19T00:00:00	2024-11-08T00:00:00	1	Precipitación	0
183096	7	Sololá	716	San Marcos la Laguna 	11	San Marcos la laguna 	3	Marzo	2023-03-19T00:00:00	2024-11-08T00:00:00	8	Radiación solar	0
183097	7	Sololá	716	San Marcos la Laguna 	11	San Marcos la laguna 	3	Marzo	2023-03-19T00:00:00	2024-11-08T01:00:00	2	Temperatura media	15.2
183098	7	Sololá	716	San Marcos la Laguna 	11	San Marcos la laguna 	3	Marzo	2023-03-19T00:00:00	2024-11-08T01:00:00	4	Temperatura máxima	15.2
183099	7	Sololá	716	San Marcos la Laguna 	11	San Marcos la laguna 	3	Marzo	2023-03-19T00:00:00	2024-11-08T01:00:00	3	Temperatura mínima	15.1
183100	7	Sololá	716	San Marcos la Laguna 	11	San Marcos la laguna 	3	Marzo	2023-03-19T00:00:00	2024-11-08T01:00:00	5	Humedad	93
183101	7	Sololá	716	San Marcos la Laguna 	11	San Marcos la laguna 	3	Marzo	2023-03-19T00:00:00	2024-11-08T01:00:00	6	Velocidad del viento	4.8
183102	7	Sololá	716	San Marcos la Laguna 	11	San Marcos la laguna 	3	Marzo	2023-03-19T00:00:00	2024-11-08T01:00:00	7	Dirección del viento	4.83
183103	7	Sololá	716	San Marcos la Laguna 	11	San Marcos la laguna 	3	Marzo	2023-03-19T00:00:00	2024-11-08T01:00:00	1	Precipitación	0
183104	7	Sololá	716	San Marcos la Laguna 	11	San Marcos la laguna 	3	Marzo	2023-03-19T00:00:00	2024-11-08T01:00:00	8	Radiación solar	0
183105	7	Sololá	716	San Marcos la Laguna 	11	San Marcos la laguna 	3	Marzo	2023-03-19T00:00:00	2024-11-08T02:00:00	2	Temperatura media	15.8
183106	7	Sololá	716	San Marcos la Laguna 	11	San Marcos la laguna 	3	Marzo	2023-03-19T00:00:00	2024-11-08T02:00:00	4	Temperatura máxima	15.8
183107	7	Sololá	716	San Marcos la Laguna 	11	San Marcos la laguna 	3	Marzo	2023-03-19T00:00:00	2024-11-08T02:00:00	3	Temperatura mínima	15.2
183108	7	Sololá	716	San Marcos la Laguna 	11	San Marcos la laguna 	3	Marzo	2023-03-19T00:00:00	2024-11-08T02:00:00	5	Humedad	93
183109	7	Sololá	716	San Marcos la Laguna 	11	San Marcos la laguna 	3	Marzo	2023-03-19T00:00:00	2024-11-08T02:00:00	6	Velocidad del viento	4.8
183110	7	Sololá	716	San Marcos la Laguna 	11	San Marcos la laguna 	3	Marzo	2023-03-19T00:00:00	2024-11-08T02:00:00	7	Dirección del viento	4.83
183111	7	Sololá	716	San Marcos la Laguna 	11	San Marcos la laguna 	3	Marzo	2023-03-19T00:00:00	2024-11-08T02:00:00	1	Precipitación	0
183112	7	Sololá	716	San Marcos la Laguna 	11	San Marcos la laguna 	3	Marzo	2023-03-19T00:00:00	2024-11-08T02:00:00	8	Radiación solar	0
183113	7	Sololá	716	San Marcos la Laguna 	11	San Marcos la laguna 	3	Marzo	2023-03-19T00:00:00	2024-11-08T03:00:00	2	Temperatura media	15.7
183114	7	Sololá	716	San Marcos la Laguna 	11	San Marcos la laguna 	3	Marzo	2023-03-19T00:00:00	2024-11-08T03:00:00	4	Temperatura máxima	16.1
183115	7	Sololá	716	San Marcos la Laguna 	11	San Marcos la laguna 	3	Marzo	2023-03-19T00:00:00	2024-11-08T03:00:00	3	Temperatura mínima	15.7
183116	7	Sololá	716	San Marcos la Laguna 	11	San Marcos la laguna 	3	Marzo	2023-03-19T00:00:00	2024-11-08T03:00:00	5	Humedad	93
183117	7	Sololá	716	San Marcos la Laguna 	11	San Marcos la laguna 	3	Marzo	2023-03-19T00:00:00	2024-11-08T03:00:00	6	Velocidad del viento	1.6
183118	7	Sololá	716	San Marcos la Laguna 	11	San Marcos la laguna 	3	Marzo	2023-03-19T00:00:00	2024-11-08T03:00:00	7	Dirección del viento	1.61
183119	7	Sololá	716	San Marcos la Laguna 	11	San Marcos la laguna 	3	Marzo	2023-03-19T00:00:00	2024-11-08T03:00:00	1	Precipitación	0
183120	7	Sololá	716	San Marcos la Laguna 	11	San Marcos la laguna 	3	Marzo	2023-03-19T00:00:00	2024-11-08T03:00:00	8	Radiación solar	0
183121	7	Sololá	716	San Marcos la Laguna 	11	San Marcos la laguna 	3	Marzo	2023-03-19T00:00:00	2024-11-08T04:00:00	2	Temperatura media	15.6
183122	7	Sololá	716	San Marcos la Laguna 	11	San Marcos la laguna 	3	Marzo	2023-03-19T00:00:00	2024-11-08T04:00:00	4	Temperatura máxima	15.8
183123	7	Sololá	716	San Marcos la Laguna 	11	San Marcos la laguna 	3	Marzo	2023-03-19T00:00:00	2024-11-08T04:00:00	3	Temperatura mínima	15.6
183124	7	Sololá	716	San Marcos la Laguna 	11	San Marcos la laguna 	3	Marzo	2023-03-19T00:00:00	2024-11-08T04:00:00	5	Humedad	93
183125	7	Sololá	716	San Marcos la Laguna 	11	San Marcos la laguna 	3	Marzo	2023-03-19T00:00:00	2024-11-08T04:00:00	6	Velocidad del viento	4.8
183126	7	Sololá	716	San Marcos la Laguna 	11	San Marcos la laguna 	3	Marzo	2023-03-19T00:00:00	2024-11-08T04:00:00	7	Dirección del viento	4.83
183127	7	Sololá	716	San Marcos la Laguna 	11	San Marcos la laguna 	3	Marzo	2023-03-19T00:00:00	2024-11-08T04:00:00	1	Precipitación	0
183128	7	Sololá	716	San Marcos la Laguna 	11	San Marcos la laguna 	3	Marzo	2023-03-19T00:00:00	2024-11-08T04:00:00	8	Radiación solar	0
183129	7	Sololá	716	San Marcos la Laguna 	11	San Marcos la laguna 	3	Marzo	2023-03-19T00:00:00	2024-11-08T05:00:00	2	Temperatura media	15.7
183130	7	Sololá	716	San Marcos la Laguna 	11	San Marcos la laguna 	3	Marzo	2023-03-19T00:00:00	2024-11-08T05:00:00	4	Temperatura máxima	15.8
183131	7	Sololá	716	San Marcos la Laguna 	11	San Marcos la laguna 	3	Marzo	2023-03-19T00:00:00	2024-11-08T05:00:00	3	Temperatura mínima	15.5
183132	7	Sololá	716	San Marcos la Laguna 	11	San Marcos la laguna 	3	Marzo	2023-03-19T00:00:00	2024-11-08T05:00:00	5	Humedad	93
183133	7	Sololá	716	San Marcos la Laguna 	11	San Marcos la laguna 	3	Marzo	2023-03-19T00:00:00	2024-11-08T05:00:00	6	Velocidad del viento	3.2
183134	7	Sololá	716	San Marcos la Laguna 	11	San Marcos la laguna 	3	Marzo	2023-03-19T00:00:00	2024-11-08T05:00:00	7	Dirección del viento	3.22
183135	7	Sololá	716	San Marcos la Laguna 	11	San Marcos la laguna 	3	Marzo	2023-03-19T00:00:00	2024-11-08T05:00:00	1	Precipitación	0
183136	7	Sololá	716	San Marcos la Laguna 	11	San Marcos la laguna 	3	Marzo	2023-03-19T00:00:00	2024-11-08T05:00:00	8	Radiación solar	0
183137	7	Sololá	716	San Marcos la Laguna 	11	San Marcos la laguna 	3	Marzo	2023-03-19T00:00:00	2024-11-08T06:00:00	2	Temperatura media	15.1
183138	7	Sololá	716	San Marcos la Laguna 	11	San Marcos la laguna 	3	Marzo	2023-03-19T00:00:00	2024-11-08T06:00:00	4	Temperatura máxima	15.8
183139	7	Sololá	716	San Marcos la Laguna 	11	San Marcos la laguna 	3	Marzo	2023-03-19T00:00:00	2024-11-08T06:00:00	3	Temperatura mínima	15.1
183140	7	Sololá	716	San Marcos la Laguna 	11	San Marcos la laguna 	3	Marzo	2023-03-19T00:00:00	2024-11-08T06:00:00	5	Humedad	91
183141	7	Sololá	716	San Marcos la Laguna 	11	San Marcos la laguna 	3	Marzo	2023-03-19T00:00:00	2024-11-08T06:00:00	6	Velocidad del viento	4.8
183142	7	Sololá	716	San Marcos la Laguna 	11	San Marcos la laguna 	3	Marzo	2023-03-19T00:00:00	2024-11-08T06:00:00	7	Dirección del viento	4.83
183143	7	Sololá	716	San Marcos la Laguna 	11	San Marcos la laguna 	3	Marzo	2023-03-19T00:00:00	2024-11-08T06:00:00	1	Precipitación	0
183144	7	Sololá	716	San Marcos la Laguna 	11	San Marcos la laguna 	3	Marzo	2023-03-19T00:00:00	2024-11-08T06:00:00	8	Radiación solar	0
183145	7	Sololá	716	San Marcos la Laguna 	11	San Marcos la laguna 	3	Marzo	2023-03-19T00:00:00	2024-11-08T07:00:00	2	Temperatura media	15.7
183146	7	Sololá	716	San Marcos la Laguna 	11	San Marcos la laguna 	3	Marzo	2023-03-19T00:00:00	2024-11-08T07:00:00	4	Temperatura máxima	15.7
183147	7	Sololá	716	San Marcos la Laguna 	11	San Marcos la laguna 	3	Marzo	2023-03-19T00:00:00	2024-11-08T07:00:00	3	Temperatura mínima	14.7
183148	7	Sololá	716	San Marcos la Laguna 	11	San Marcos la laguna 	3	Marzo	2023-03-19T00:00:00	2024-11-08T07:00:00	5	Humedad	89
183149	7	Sololá	716	San Marcos la Laguna 	11	San Marcos la laguna 	3	Marzo	2023-03-19T00:00:00	2024-11-08T07:00:00	6	Velocidad del viento	6.4
183150	7	Sololá	716	San Marcos la Laguna 	11	San Marcos la laguna 	3	Marzo	2023-03-19T00:00:00	2024-11-08T07:00:00	7	Dirección del viento	6.44
183151	7	Sololá	716	San Marcos la Laguna 	11	San Marcos la laguna 	3	Marzo	2023-03-19T00:00:00	2024-11-08T07:00:00	1	Precipitación	0
183152	7	Sololá	716	San Marcos la Laguna 	11	San Marcos la laguna 	3	Marzo	2023-03-19T00:00:00	2024-11-08T07:00:00	8	Radiación solar	26
183153	7	Sololá	716	San Marcos la Laguna 	11	San Marcos la laguna 	3	Marzo	2023-03-19T00:00:00	2024-11-08T08:00:00	2	Temperatura media	18.6
183154	7	Sololá	716	San Marcos la Laguna 	11	San Marcos la laguna 	3	Marzo	2023-03-19T00:00:00	2024-11-08T08:00:00	4	Temperatura máxima	18.6
183155	7	Sololá	716	San Marcos la Laguna 	11	San Marcos la laguna 	3	Marzo	2023-03-19T00:00:00	2024-11-08T08:00:00	3	Temperatura mínima	15.7
183156	7	Sololá	716	San Marcos la Laguna 	11	San Marcos la laguna 	3	Marzo	2023-03-19T00:00:00	2024-11-08T08:00:00	5	Humedad	82
183157	7	Sololá	716	San Marcos la Laguna 	11	San Marcos la laguna 	3	Marzo	2023-03-19T00:00:00	2024-11-08T08:00:00	6	Velocidad del viento	1.6
183158	7	Sololá	716	San Marcos la Laguna 	11	San Marcos la laguna 	3	Marzo	2023-03-19T00:00:00	2024-11-08T08:00:00	7	Dirección del viento	1.61
183159	7	Sololá	716	San Marcos la Laguna 	11	San Marcos la laguna 	3	Marzo	2023-03-19T00:00:00	2024-11-08T08:00:00	1	Precipitación	0
183160	7	Sololá	716	San Marcos la Laguna 	11	San Marcos la laguna 	3	Marzo	2023-03-19T00:00:00	2024-11-08T08:00:00	8	Radiación solar	187
183161	7	Sololá	716	San Marcos la Laguna 	11	San Marcos la laguna 	3	Marzo	2023-03-19T00:00:00	2024-11-08T09:00:00	2	Temperatura media	20.5
183162	7	Sololá	716	San Marcos la Laguna 	11	San Marcos la laguna 	3	Marzo	2023-03-19T00:00:00	2024-11-08T09:00:00	4	Temperatura máxima	20.5
183163	7	Sololá	716	San Marcos la Laguna 	11	San Marcos la laguna 	3	Marzo	2023-03-19T00:00:00	2024-11-08T09:00:00	3	Temperatura mínima	18.6
183164	7	Sololá	716	San Marcos la Laguna 	11	San Marcos la laguna 	3	Marzo	2023-03-19T00:00:00	2024-11-08T09:00:00	5	Humedad	79
183165	7	Sololá	716	San Marcos la Laguna 	11	San Marcos la laguna 	3	Marzo	2023-03-19T00:00:00	2024-11-08T09:00:00	6	Velocidad del viento	3.2
183166	7	Sololá	716	San Marcos la Laguna 	11	San Marcos la laguna 	3	Marzo	2023-03-19T00:00:00	2024-11-08T09:00:00	7	Dirección del viento	3.22
183167	7	Sololá	716	San Marcos la Laguna 	11	San Marcos la laguna 	3	Marzo	2023-03-19T00:00:00	2024-11-08T09:00:00	1	Precipitación	0
183168	7	Sololá	716	San Marcos la Laguna 	11	San Marcos la laguna 	3	Marzo	2023-03-19T00:00:00	2024-11-08T09:00:00	8	Radiación solar	428
183169	7	Sololá	716	San Marcos la Laguna 	11	San Marcos la laguna 	3	Marzo	2023-03-19T00:00:00	2024-11-08T10:00:00	2	Temperatura media	22.1
183170	7	Sololá	716	San Marcos la Laguna 	11	San Marcos la laguna 	3	Marzo	2023-03-19T00:00:00	2024-11-08T10:00:00	4	Temperatura máxima	22.2
183171	7	Sololá	716	San Marcos la Laguna 	11	San Marcos la laguna 	3	Marzo	2023-03-19T00:00:00	2024-11-08T10:00:00	3	Temperatura mínima	20.5
183172	7	Sololá	716	San Marcos la Laguna 	11	San Marcos la laguna 	3	Marzo	2023-03-19T00:00:00	2024-11-08T10:00:00	5	Humedad	68
183173	7	Sololá	716	San Marcos la Laguna 	11	San Marcos la laguna 	3	Marzo	2023-03-19T00:00:00	2024-11-08T10:00:00	6	Velocidad del viento	3.2
183174	7	Sololá	716	San Marcos la Laguna 	11	San Marcos la laguna 	3	Marzo	2023-03-19T00:00:00	2024-11-08T10:00:00	7	Dirección del viento	3.22
183175	7	Sololá	716	San Marcos la Laguna 	11	San Marcos la laguna 	3	Marzo	2023-03-19T00:00:00	2024-11-08T10:00:00	1	Precipitación	0
183176	7	Sololá	716	San Marcos la Laguna 	11	San Marcos la laguna 	3	Marzo	2023-03-19T00:00:00	2024-11-08T10:00:00	8	Radiación solar	641
183177	7	Sololá	716	San Marcos la Laguna 	11	San Marcos la laguna 	3	Marzo	2023-03-19T00:00:00	2024-11-08T11:00:00	2	Temperatura media	21.9
183178	7	Sololá	716	San Marcos la Laguna 	11	San Marcos la laguna 	3	Marzo	2023-03-19T00:00:00	2024-11-08T11:00:00	4	Temperatura máxima	22.2
183179	7	Sololá	716	San Marcos la Laguna 	11	San Marcos la laguna 	3	Marzo	2023-03-19T00:00:00	2024-11-08T11:00:00	3	Temperatura mínima	21.2
183180	7	Sololá	716	San Marcos la Laguna 	11	San Marcos la laguna 	3	Marzo	2023-03-19T00:00:00	2024-11-08T11:00:00	5	Humedad	72
183181	7	Sololá	716	San Marcos la Laguna 	11	San Marcos la laguna 	3	Marzo	2023-03-19T00:00:00	2024-11-08T11:00:00	6	Velocidad del viento	9.7
183182	7	Sololá	716	San Marcos la Laguna 	11	San Marcos la laguna 	3	Marzo	2023-03-19T00:00:00	2024-11-08T11:00:00	7	Dirección del viento	9.66
183183	7	Sololá	716	San Marcos la Laguna 	11	San Marcos la laguna 	3	Marzo	2023-03-19T00:00:00	2024-11-08T11:00:00	1	Precipitación	0
183184	7	Sololá	716	San Marcos la Laguna 	11	San Marcos la laguna 	3	Marzo	2023-03-19T00:00:00	2024-11-08T11:00:00	8	Radiación solar	800
183185	7	Sololá	716	San Marcos la Laguna 	11	San Marcos la laguna 	3	Marzo	2023-03-19T00:00:00	2024-11-08T12:00:00	2	Temperatura media	22.3
183186	7	Sololá	716	San Marcos la Laguna 	11	San Marcos la laguna 	3	Marzo	2023-03-19T00:00:00	2024-11-08T12:00:00	4	Temperatura máxima	22.8
183187	7	Sololá	716	San Marcos la Laguna 	11	San Marcos la laguna 	3	Marzo	2023-03-19T00:00:00	2024-11-08T12:00:00	3	Temperatura mínima	21.8
183188	7	Sololá	716	San Marcos la Laguna 	11	San Marcos la laguna 	3	Marzo	2023-03-19T00:00:00	2024-11-08T12:00:00	5	Humedad	72
183189	7	Sololá	716	San Marcos la Laguna 	11	San Marcos la laguna 	3	Marzo	2023-03-19T00:00:00	2024-11-08T12:00:00	6	Velocidad del viento	9.7
183190	7	Sololá	716	San Marcos la Laguna 	11	San Marcos la laguna 	3	Marzo	2023-03-19T00:00:00	2024-11-08T12:00:00	7	Dirección del viento	9.66
183191	7	Sololá	716	San Marcos la Laguna 	11	San Marcos la laguna 	3	Marzo	2023-03-19T00:00:00	2024-11-08T12:00:00	1	Precipitación	0
183192	7	Sololá	716	San Marcos la Laguna 	11	San Marcos la laguna 	3	Marzo	2023-03-19T00:00:00	2024-11-08T12:00:00	8	Radiación solar	824
183193	7	Sololá	716	San Marcos la Laguna 	11	San Marcos la laguna 	3	Marzo	2023-03-19T00:00:00	2024-11-08T13:00:00	2	Temperatura media	22.7
183194	7	Sololá	716	San Marcos la Laguna 	11	San Marcos la laguna 	3	Marzo	2023-03-19T00:00:00	2024-11-08T13:00:00	4	Temperatura máxima	22.8
183195	7	Sololá	716	San Marcos la Laguna 	11	San Marcos la laguna 	3	Marzo	2023-03-19T00:00:00	2024-11-08T13:00:00	3	Temperatura mínima	21.8
183196	7	Sololá	716	San Marcos la Laguna 	11	San Marcos la laguna 	3	Marzo	2023-03-19T00:00:00	2024-11-08T13:00:00	5	Humedad	70
183197	7	Sololá	716	San Marcos la Laguna 	11	San Marcos la laguna 	3	Marzo	2023-03-19T00:00:00	2024-11-08T13:00:00	6	Velocidad del viento	9.7
183198	7	Sololá	716	San Marcos la Laguna 	11	San Marcos la laguna 	3	Marzo	2023-03-19T00:00:00	2024-11-08T13:00:00	7	Dirección del viento	9.66
183199	7	Sololá	716	San Marcos la Laguna 	11	San Marcos la laguna 	3	Marzo	2023-03-19T00:00:00	2024-11-08T13:00:00	1	Precipitación	0
183200	7	Sololá	716	San Marcos la Laguna 	11	San Marcos la laguna 	3	Marzo	2023-03-19T00:00:00	2024-11-08T13:00:00	8	Radiación solar	537
183201	7	Sololá	716	San Marcos la Laguna 	11	San Marcos la laguna 	3	Marzo	2023-03-19T00:00:00	2024-11-08T14:00:00	2	Temperatura media	21.6
183202	7	Sololá	716	San Marcos la Laguna 	11	San Marcos la laguna 	3	Marzo	2023-03-19T00:00:00	2024-11-08T14:00:00	4	Temperatura máxima	22.7
183203	7	Sololá	716	San Marcos la Laguna 	11	San Marcos la laguna 	3	Marzo	2023-03-19T00:00:00	2024-11-08T14:00:00	3	Temperatura mínima	21.1
183204	7	Sololá	716	San Marcos la Laguna 	11	San Marcos la laguna 	3	Marzo	2023-03-19T00:00:00	2024-11-08T14:00:00	5	Humedad	73
183205	7	Sololá	716	San Marcos la Laguna 	11	San Marcos la laguna 	3	Marzo	2023-03-19T00:00:00	2024-11-08T14:00:00	6	Velocidad del viento	6.4
183206	7	Sololá	716	San Marcos la Laguna 	11	San Marcos la laguna 	3	Marzo	2023-03-19T00:00:00	2024-11-08T14:00:00	7	Dirección del viento	6.44
183207	7	Sololá	716	San Marcos la Laguna 	11	San Marcos la laguna 	3	Marzo	2023-03-19T00:00:00	2024-11-08T14:00:00	1	Precipitación	0
183208	7	Sololá	716	San Marcos la Laguna 	11	San Marcos la laguna 	3	Marzo	2023-03-19T00:00:00	2024-11-08T14:00:00	8	Radiación solar	185
183209	7	Sololá	716	San Marcos la Laguna 	11	San Marcos la laguna 	3	Marzo	2023-03-19T00:00:00	2024-11-08T15:00:00	2	Temperatura media	21.6
183210	7	Sololá	716	San Marcos la Laguna 	11	San Marcos la laguna 	3	Marzo	2023-03-19T00:00:00	2024-11-08T15:00:00	4	Temperatura máxima	22.2
183211	7	Sololá	716	San Marcos la Laguna 	11	San Marcos la laguna 	3	Marzo	2023-03-19T00:00:00	2024-11-08T15:00:00	3	Temperatura mínima	21.5
183212	7	Sololá	716	San Marcos la Laguna 	11	San Marcos la laguna 	3	Marzo	2023-03-19T00:00:00	2024-11-08T15:00:00	5	Humedad	75
183213	7	Sololá	716	San Marcos la Laguna 	11	San Marcos la laguna 	3	Marzo	2023-03-19T00:00:00	2024-11-08T15:00:00	6	Velocidad del viento	6.4
183214	7	Sololá	716	San Marcos la Laguna 	11	San Marcos la laguna 	3	Marzo	2023-03-19T00:00:00	2024-11-08T15:00:00	7	Dirección del viento	6.44
183215	7	Sololá	716	San Marcos la Laguna 	11	San Marcos la laguna 	3	Marzo	2023-03-19T00:00:00	2024-11-08T15:00:00	1	Precipitación	0
183216	7	Sololá	716	San Marcos la Laguna 	11	San Marcos la laguna 	3	Marzo	2023-03-19T00:00:00	2024-11-08T15:00:00	8	Radiación solar	332
183217	7	Sololá	716	San Marcos la Laguna 	11	San Marcos la laguna 	3	Marzo	2023-03-19T00:00:00	2024-11-08T16:00:00	2	Temperatura media	19.4
183218	7	Sololá	716	San Marcos la Laguna 	11	San Marcos la laguna 	3	Marzo	2023-03-19T00:00:00	2024-11-08T16:00:00	4	Temperatura máxima	21.6
183219	7	Sololá	716	San Marcos la Laguna 	11	San Marcos la laguna 	3	Marzo	2023-03-19T00:00:00	2024-11-08T16:00:00	3	Temperatura mínima	19.4
183220	7	Sololá	716	San Marcos la Laguna 	11	San Marcos la laguna 	3	Marzo	2023-03-19T00:00:00	2024-11-08T16:00:00	5	Humedad	87
183221	7	Sololá	716	San Marcos la Laguna 	11	San Marcos la laguna 	3	Marzo	2023-03-19T00:00:00	2024-11-08T16:00:00	6	Velocidad del viento	3.2
183222	7	Sololá	716	San Marcos la Laguna 	11	San Marcos la laguna 	3	Marzo	2023-03-19T00:00:00	2024-11-08T16:00:00	7	Dirección del viento	3.22
183223	7	Sololá	716	San Marcos la Laguna 	11	San Marcos la laguna 	3	Marzo	2023-03-19T00:00:00	2024-11-08T16:00:00	1	Precipitación	0
183224	7	Sololá	716	San Marcos la Laguna 	11	San Marcos la laguna 	3	Marzo	2023-03-19T00:00:00	2024-11-08T16:00:00	8	Radiación solar	50
183225	7	Sololá	716	San Marcos la Laguna 	11	San Marcos la laguna 	3	Marzo	2023-03-19T00:00:00	2024-11-08T17:00:00	2	Temperatura media	19.7
183226	7	Sololá	716	San Marcos la Laguna 	11	San Marcos la laguna 	3	Marzo	2023-03-19T00:00:00	2024-11-08T17:00:00	4	Temperatura máxima	19.7
183227	7	Sololá	716	San Marcos la Laguna 	11	San Marcos la laguna 	3	Marzo	2023-03-19T00:00:00	2024-11-08T17:00:00	3	Temperatura mínima	19.2
183228	7	Sololá	716	San Marcos la Laguna 	11	San Marcos la laguna 	3	Marzo	2023-03-19T00:00:00	2024-11-08T17:00:00	5	Humedad	85
183229	7	Sololá	716	San Marcos la Laguna 	11	San Marcos la laguna 	3	Marzo	2023-03-19T00:00:00	2024-11-08T17:00:00	6	Velocidad del viento	1.6
183230	7	Sololá	716	San Marcos la Laguna 	11	San Marcos la laguna 	3	Marzo	2023-03-19T00:00:00	2024-11-08T17:00:00	7	Dirección del viento	1.61
183231	7	Sololá	716	San Marcos la Laguna 	11	San Marcos la laguna 	3	Marzo	2023-03-19T00:00:00	2024-11-08T17:00:00	1	Precipitación	0.4
183232	7	Sololá	716	San Marcos la Laguna 	11	San Marcos la laguna 	3	Marzo	2023-03-19T00:00:00	2024-11-08T17:00:00	8	Radiación solar	98
183233	7	Sololá	716	San Marcos la Laguna 	11	San Marcos la laguna 	3	Marzo	2023-03-19T00:00:00	2024-11-08T18:00:00	2	Temperatura media	18.7
183234	7	Sololá	716	San Marcos la Laguna 	11	San Marcos la laguna 	3	Marzo	2023-03-19T00:00:00	2024-11-08T18:00:00	4	Temperatura máxima	19.8
183235	7	Sololá	716	San Marcos la Laguna 	11	San Marcos la laguna 	3	Marzo	2023-03-19T00:00:00	2024-11-08T18:00:00	3	Temperatura mínima	18.7
183236	7	Sololá	716	San Marcos la Laguna 	11	San Marcos la laguna 	3	Marzo	2023-03-19T00:00:00	2024-11-08T18:00:00	5	Humedad	91
183237	7	Sololá	716	San Marcos la Laguna 	11	San Marcos la laguna 	3	Marzo	2023-03-19T00:00:00	2024-11-08T18:00:00	6	Velocidad del viento	1.6
183238	7	Sololá	716	San Marcos la Laguna 	11	San Marcos la laguna 	3	Marzo	2023-03-19T00:00:00	2024-11-08T18:00:00	7	Dirección del viento	1.61
183239	7	Sololá	716	San Marcos la Laguna 	11	San Marcos la laguna 	3	Marzo	2023-03-19T00:00:00	2024-11-08T18:00:00	1	Precipitación	0
183240	7	Sololá	716	San Marcos la Laguna 	11	San Marcos la laguna 	3	Marzo	2023-03-19T00:00:00	2024-11-08T18:00:00	8	Radiación solar	17
183241	7	Sololá	716	San Marcos la Laguna 	11	San Marcos la laguna 	3	Marzo	2023-03-19T00:00:00	2024-11-08T19:00:00	2	Temperatura media	18.2
183242	7	Sololá	716	San Marcos la Laguna 	11	San Marcos la laguna 	3	Marzo	2023-03-19T00:00:00	2024-11-08T19:00:00	4	Temperatura máxima	18.7
183243	7	Sololá	716	San Marcos la Laguna 	11	San Marcos la laguna 	3	Marzo	2023-03-19T00:00:00	2024-11-08T19:00:00	3	Temperatura mínima	18.1
183244	7	Sololá	716	San Marcos la Laguna 	11	San Marcos la laguna 	3	Marzo	2023-03-19T00:00:00	2024-11-08T19:00:00	5	Humedad	89
183245	7	Sololá	716	San Marcos la Laguna 	11	San Marcos la laguna 	3	Marzo	2023-03-19T00:00:00	2024-11-08T19:00:00	6	Velocidad del viento	4.8
183246	7	Sololá	716	San Marcos la Laguna 	11	San Marcos la laguna 	3	Marzo	2023-03-19T00:00:00	2024-11-08T19:00:00	7	Dirección del viento	4.83
183247	7	Sololá	716	San Marcos la Laguna 	11	San Marcos la laguna 	3	Marzo	2023-03-19T00:00:00	2024-11-08T19:00:00	1	Precipitación	0
183248	7	Sololá	716	San Marcos la Laguna 	11	San Marcos la laguna 	3	Marzo	2023-03-19T00:00:00	2024-11-08T19:00:00	8	Radiación solar	0
183249	7	Sololá	716	San Marcos la Laguna 	11	San Marcos la laguna 	3	Marzo	2023-03-19T00:00:00	2024-11-08T20:00:00	2	Temperatura media	17.2
183250	7	Sololá	716	San Marcos la Laguna 	11	San Marcos la laguna 	3	Marzo	2023-03-19T00:00:00	2024-11-08T20:00:00	4	Temperatura máxima	18.2
183251	7	Sololá	716	San Marcos la Laguna 	11	San Marcos la laguna 	3	Marzo	2023-03-19T00:00:00	2024-11-08T20:00:00	3	Temperatura mínima	17.2
183252	7	Sololá	716	San Marcos la Laguna 	11	San Marcos la laguna 	3	Marzo	2023-03-19T00:00:00	2024-11-08T20:00:00	5	Humedad	91
183253	7	Sololá	716	San Marcos la Laguna 	11	San Marcos la laguna 	3	Marzo	2023-03-19T00:00:00	2024-11-08T20:00:00	6	Velocidad del viento	4.8
183254	7	Sololá	716	San Marcos la Laguna 	11	San Marcos la laguna 	3	Marzo	2023-03-19T00:00:00	2024-11-08T20:00:00	7	Dirección del viento	4.83
183255	7	Sololá	716	San Marcos la Laguna 	11	San Marcos la laguna 	3	Marzo	2023-03-19T00:00:00	2024-11-08T20:00:00	1	Precipitación	0
183256	7	Sololá	716	San Marcos la Laguna 	11	San Marcos la laguna 	3	Marzo	2023-03-19T00:00:00	2024-11-08T20:00:00	8	Radiación solar	0
183257	7	Sololá	716	San Marcos la Laguna 	11	San Marcos la laguna 	3	Marzo	2023-03-19T00:00:00	2024-11-08T21:00:00	2	Temperatura media	17.7
183258	7	Sololá	716	San Marcos la Laguna 	11	San Marcos la laguna 	3	Marzo	2023-03-19T00:00:00	2024-11-08T21:00:00	4	Temperatura máxima	17.7
183259	7	Sololá	716	San Marcos la Laguna 	11	San Marcos la laguna 	3	Marzo	2023-03-19T00:00:00	2024-11-08T21:00:00	3	Temperatura mínima	17.2
183260	7	Sololá	716	San Marcos la Laguna 	11	San Marcos la laguna 	3	Marzo	2023-03-19T00:00:00	2024-11-08T21:00:00	5	Humedad	86
183261	7	Sololá	716	San Marcos la Laguna 	11	San Marcos la laguna 	3	Marzo	2023-03-19T00:00:00	2024-11-08T21:00:00	6	Velocidad del viento	6.4
183262	7	Sololá	716	San Marcos la Laguna 	11	San Marcos la laguna 	3	Marzo	2023-03-19T00:00:00	2024-11-08T21:00:00	7	Dirección del viento	6.44
183263	7	Sololá	716	San Marcos la Laguna 	11	San Marcos la laguna 	3	Marzo	2023-03-19T00:00:00	2024-11-08T21:00:00	1	Precipitación	0
183264	7	Sololá	716	San Marcos la Laguna 	11	San Marcos la laguna 	3	Marzo	2023-03-19T00:00:00	2024-11-08T21:00:00	8	Radiación solar	0
183265	7	Sololá	716	San Marcos la Laguna 	11	San Marcos la laguna 	3	Marzo	2023-03-19T00:00:00	2024-11-08T22:00:00	2	Temperatura media	17.3
183266	7	Sololá	716	San Marcos la Laguna 	11	San Marcos la laguna 	3	Marzo	2023-03-19T00:00:00	2024-11-08T22:00:00	4	Temperatura máxima	17.7
183267	7	Sololá	716	San Marcos la Laguna 	11	San Marcos la laguna 	3	Marzo	2023-03-19T00:00:00	2024-11-08T22:00:00	3	Temperatura mínima	16.9
183268	7	Sololá	716	San Marcos la Laguna 	11	San Marcos la laguna 	3	Marzo	2023-03-19T00:00:00	2024-11-08T22:00:00	5	Humedad	85
183269	7	Sololá	716	San Marcos la Laguna 	11	San Marcos la laguna 	3	Marzo	2023-03-19T00:00:00	2024-11-08T22:00:00	6	Velocidad del viento	8
183270	7	Sololá	716	San Marcos la Laguna 	11	San Marcos la laguna 	3	Marzo	2023-03-19T00:00:00	2024-11-08T22:00:00	7	Dirección del viento	8.05
183271	7	Sololá	716	San Marcos la Laguna 	11	San Marcos la laguna 	3	Marzo	2023-03-19T00:00:00	2024-11-08T22:00:00	1	Precipitación	0
183272	7	Sololá	716	San Marcos la Laguna 	11	San Marcos la laguna 	3	Marzo	2023-03-19T00:00:00	2024-11-08T22:00:00	8	Radiación solar	0
183273	7	Sololá	716	San Marcos la Laguna 	11	San Marcos la laguna 	3	Marzo	2023-03-19T00:00:00	2024-11-08T23:00:00	2	Temperatura media	16.7
183274	7	Sololá	716	San Marcos la Laguna 	11	San Marcos la laguna 	3	Marzo	2023-03-19T00:00:00	2024-11-08T23:00:00	4	Temperatura máxima	17.4
183275	7	Sololá	716	San Marcos la Laguna 	11	San Marcos la laguna 	3	Marzo	2023-03-19T00:00:00	2024-11-08T23:00:00	3	Temperatura mínima	16.6
183276	7	Sololá	716	San Marcos la Laguna 	11	San Marcos la laguna 	3	Marzo	2023-03-19T00:00:00	2024-11-08T23:00:00	5	Humedad	88
183277	7	Sololá	716	San Marcos la Laguna 	11	San Marcos la laguna 	3	Marzo	2023-03-19T00:00:00	2024-11-08T23:00:00	6	Velocidad del viento	6.4
183278	7	Sololá	716	San Marcos la Laguna 	11	San Marcos la laguna 	3	Marzo	2023-03-19T00:00:00	2024-11-08T23:00:00	7	Dirección del viento	6.44
183279	7	Sololá	716	San Marcos la Laguna 	11	San Marcos la laguna 	3	Marzo	2023-03-19T00:00:00	2024-11-08T23:00:00	1	Precipitación	0
183280	7	Sololá	716	San Marcos la Laguna 	11	San Marcos la laguna 	3	Marzo	2023-03-19T00:00:00	2024-11-08T23:00:00	8	Radiación solar	0
183281	7	Sololá	716	San Marcos la Laguna 	11	San Marcos la laguna 	3	Marzo	2023-03-20T00:00:00	2024-11-08T00:00:00	2	Temperatura media	16.9
183282	7	Sololá	716	San Marcos la Laguna 	11	San Marcos la laguna 	3	Marzo	2023-03-20T00:00:00	2024-11-08T00:00:00	4	Temperatura máxima	17.1
183283	7	Sololá	716	San Marcos la Laguna 	11	San Marcos la laguna 	3	Marzo	2023-03-20T00:00:00	2024-11-08T00:00:00	3	Temperatura mínima	16.4
183284	7	Sololá	716	San Marcos la Laguna 	11	San Marcos la laguna 	3	Marzo	2023-03-20T00:00:00	2024-11-08T00:00:00	5	Humedad	84
183285	7	Sololá	716	San Marcos la Laguna 	11	San Marcos la laguna 	3	Marzo	2023-03-20T00:00:00	2024-11-08T00:00:00	6	Velocidad del viento	8
183286	7	Sololá	716	San Marcos la Laguna 	11	San Marcos la laguna 	3	Marzo	2023-03-20T00:00:00	2024-11-08T00:00:00	7	Dirección del viento	8.05
183287	7	Sololá	716	San Marcos la Laguna 	11	San Marcos la laguna 	3	Marzo	2023-03-20T00:00:00	2024-11-08T00:00:00	1	Precipitación	0
183288	7	Sololá	716	San Marcos la Laguna 	11	San Marcos la laguna 	3	Marzo	2023-03-20T00:00:00	2024-11-08T00:00:00	8	Radiación solar	0
183289	7	Sololá	716	San Marcos la Laguna 	11	San Marcos la laguna 	3	Marzo	2023-03-20T00:00:00	2024-11-08T01:00:00	2	Temperatura media	16.3
183290	7	Sololá	716	San Marcos la Laguna 	11	San Marcos la laguna 	3	Marzo	2023-03-20T00:00:00	2024-11-08T01:00:00	4	Temperatura máxima	16.9
183291	7	Sololá	716	San Marcos la Laguna 	11	San Marcos la laguna 	3	Marzo	2023-03-20T00:00:00	2024-11-08T01:00:00	3	Temperatura mínima	16.1
183292	7	Sololá	716	San Marcos la Laguna 	11	San Marcos la laguna 	3	Marzo	2023-03-20T00:00:00	2024-11-08T01:00:00	5	Humedad	85
183293	7	Sololá	716	San Marcos la Laguna 	11	San Marcos la laguna 	3	Marzo	2023-03-20T00:00:00	2024-11-08T01:00:00	6	Velocidad del viento	8
183294	7	Sololá	716	San Marcos la Laguna 	11	San Marcos la laguna 	3	Marzo	2023-03-20T00:00:00	2024-11-08T01:00:00	7	Dirección del viento	8.05
183295	7	Sololá	716	San Marcos la Laguna 	11	San Marcos la laguna 	3	Marzo	2023-03-20T00:00:00	2024-11-08T01:00:00	1	Precipitación	0
183296	7	Sololá	716	San Marcos la Laguna 	11	San Marcos la laguna 	3	Marzo	2023-03-20T00:00:00	2024-11-08T01:00:00	8	Radiación solar	0
183297	7	Sololá	716	San Marcos la Laguna 	11	San Marcos la laguna 	3	Marzo	2023-03-20T00:00:00	2024-11-08T02:00:00	2	Temperatura media	15.9
183298	7	Sololá	716	San Marcos la Laguna 	11	San Marcos la laguna 	3	Marzo	2023-03-20T00:00:00	2024-11-08T02:00:00	4	Temperatura máxima	16.6
183299	7	Sololá	716	San Marcos la Laguna 	11	San Marcos la laguna 	3	Marzo	2023-03-20T00:00:00	2024-11-08T02:00:00	3	Temperatura mínima	15.8
183300	7	Sololá	716	San Marcos la Laguna 	11	San Marcos la laguna 	3	Marzo	2023-03-20T00:00:00	2024-11-08T02:00:00	5	Humedad	85
183301	7	Sololá	716	San Marcos la Laguna 	11	San Marcos la laguna 	3	Marzo	2023-03-20T00:00:00	2024-11-08T02:00:00	6	Velocidad del viento	8
183302	7	Sololá	716	San Marcos la Laguna 	11	San Marcos la laguna 	3	Marzo	2023-03-20T00:00:00	2024-11-08T02:00:00	7	Dirección del viento	8.05
183303	7	Sololá	716	San Marcos la Laguna 	11	San Marcos la laguna 	3	Marzo	2023-03-20T00:00:00	2024-11-08T02:00:00	1	Precipitación	0.2
183304	7	Sololá	716	San Marcos la Laguna 	11	San Marcos la laguna 	3	Marzo	2023-03-20T00:00:00	2024-11-08T02:00:00	8	Radiación solar	0
183305	7	Sololá	716	San Marcos la Laguna 	11	San Marcos la laguna 	3	Marzo	2023-03-20T00:00:00	2024-11-08T03:00:00	2	Temperatura media	15.3
183306	7	Sololá	716	San Marcos la Laguna 	11	San Marcos la laguna 	3	Marzo	2023-03-20T00:00:00	2024-11-08T03:00:00	4	Temperatura máxima	16.3
183307	7	Sololá	716	San Marcos la Laguna 	11	San Marcos la laguna 	3	Marzo	2023-03-20T00:00:00	2024-11-08T03:00:00	3	Temperatura mínima	15.3
183308	7	Sololá	716	San Marcos la Laguna 	11	San Marcos la laguna 	3	Marzo	2023-03-20T00:00:00	2024-11-08T03:00:00	5	Humedad	87
183309	7	Sololá	716	San Marcos la Laguna 	11	San Marcos la laguna 	3	Marzo	2023-03-20T00:00:00	2024-11-08T03:00:00	6	Velocidad del viento	8
183310	7	Sololá	716	San Marcos la Laguna 	11	San Marcos la laguna 	3	Marzo	2023-03-20T00:00:00	2024-11-08T03:00:00	7	Dirección del viento	8.05
183311	7	Sololá	716	San Marcos la Laguna 	11	San Marcos la laguna 	3	Marzo	2023-03-20T00:00:00	2024-11-08T03:00:00	1	Precipitación	0
183312	7	Sololá	716	San Marcos la Laguna 	11	San Marcos la laguna 	3	Marzo	2023-03-20T00:00:00	2024-11-08T03:00:00	8	Radiación solar	0
183313	7	Sololá	716	San Marcos la Laguna 	11	San Marcos la laguna 	3	Marzo	2023-03-20T00:00:00	2024-11-08T04:00:00	2	Temperatura media	15.4
183314	7	Sololá	716	San Marcos la Laguna 	11	San Marcos la laguna 	3	Marzo	2023-03-20T00:00:00	2024-11-08T04:00:00	4	Temperatura máxima	15.8
183315	7	Sololá	716	San Marcos la Laguna 	11	San Marcos la laguna 	3	Marzo	2023-03-20T00:00:00	2024-11-08T04:00:00	3	Temperatura mínima	15.2
183316	7	Sololá	716	San Marcos la Laguna 	11	San Marcos la laguna 	3	Marzo	2023-03-20T00:00:00	2024-11-08T04:00:00	5	Humedad	87
183317	7	Sololá	716	San Marcos la Laguna 	11	San Marcos la laguna 	3	Marzo	2023-03-20T00:00:00	2024-11-08T04:00:00	6	Velocidad del viento	8
183318	7	Sololá	716	San Marcos la Laguna 	11	San Marcos la laguna 	3	Marzo	2023-03-20T00:00:00	2024-11-08T04:00:00	7	Dirección del viento	8.05
183319	7	Sololá	716	San Marcos la Laguna 	11	San Marcos la laguna 	3	Marzo	2023-03-20T00:00:00	2024-11-08T04:00:00	1	Precipitación	0
183320	7	Sololá	716	San Marcos la Laguna 	11	San Marcos la laguna 	3	Marzo	2023-03-20T00:00:00	2024-11-08T04:00:00	8	Radiación solar	0
183321	7	Sololá	716	San Marcos la Laguna 	11	San Marcos la laguna 	3	Marzo	2023-03-20T00:00:00	2024-11-08T05:00:00	2	Temperatura media	15.2
183322	7	Sololá	716	San Marcos la Laguna 	11	San Marcos la laguna 	3	Marzo	2023-03-20T00:00:00	2024-11-08T05:00:00	4	Temperatura máxima	16.2
183323	7	Sololá	716	San Marcos la Laguna 	11	San Marcos la laguna 	3	Marzo	2023-03-20T00:00:00	2024-11-08T05:00:00	3	Temperatura mínima	15.1
183324	7	Sololá	716	San Marcos la Laguna 	11	San Marcos la laguna 	3	Marzo	2023-03-20T00:00:00	2024-11-08T05:00:00	5	Humedad	87
183325	7	Sololá	716	San Marcos la Laguna 	11	San Marcos la laguna 	3	Marzo	2023-03-20T00:00:00	2024-11-08T05:00:00	6	Velocidad del viento	8
183326	7	Sololá	716	San Marcos la Laguna 	11	San Marcos la laguna 	3	Marzo	2023-03-20T00:00:00	2024-11-08T05:00:00	7	Dirección del viento	8.05
183327	7	Sololá	716	San Marcos la Laguna 	11	San Marcos la laguna 	3	Marzo	2023-03-20T00:00:00	2024-11-08T05:00:00	1	Precipitación	0
183328	7	Sololá	716	San Marcos la Laguna 	11	San Marcos la laguna 	3	Marzo	2023-03-20T00:00:00	2024-11-08T05:00:00	8	Radiación solar	0
183329	7	Sololá	716	San Marcos la Laguna 	11	San Marcos la laguna 	3	Marzo	2023-03-20T00:00:00	2024-11-08T06:00:00	2	Temperatura media	15.7
183330	7	Sololá	716	San Marcos la Laguna 	11	San Marcos la laguna 	3	Marzo	2023-03-20T00:00:00	2024-11-08T06:00:00	4	Temperatura máxima	15.7
183331	7	Sololá	716	San Marcos la Laguna 	11	San Marcos la laguna 	3	Marzo	2023-03-20T00:00:00	2024-11-08T06:00:00	3	Temperatura mínima	14.7
183332	7	Sololá	716	San Marcos la Laguna 	11	San Marcos la laguna 	3	Marzo	2023-03-20T00:00:00	2024-11-08T06:00:00	5	Humedad	86
183333	7	Sololá	716	San Marcos la Laguna 	11	San Marcos la laguna 	3	Marzo	2023-03-20T00:00:00	2024-11-08T06:00:00	6	Velocidad del viento	8
183334	7	Sololá	716	San Marcos la Laguna 	11	San Marcos la laguna 	3	Marzo	2023-03-20T00:00:00	2024-11-08T06:00:00	7	Dirección del viento	8.05
183335	7	Sololá	716	San Marcos la Laguna 	11	San Marcos la laguna 	3	Marzo	2023-03-20T00:00:00	2024-11-08T06:00:00	1	Precipitación	0
183336	7	Sololá	716	San Marcos la Laguna 	11	San Marcos la laguna 	3	Marzo	2023-03-20T00:00:00	2024-11-08T06:00:00	8	Radiación solar	0
183337	7	Sololá	716	San Marcos la Laguna 	11	San Marcos la laguna 	3	Marzo	2023-03-20T00:00:00	2024-11-08T07:00:00	2	Temperatura media	16.1
183338	7	Sololá	716	San Marcos la Laguna 	11	San Marcos la laguna 	3	Marzo	2023-03-20T00:00:00	2024-11-08T07:00:00	4	Temperatura máxima	16.3
183339	7	Sololá	716	San Marcos la Laguna 	11	San Marcos la laguna 	3	Marzo	2023-03-20T00:00:00	2024-11-08T07:00:00	3	Temperatura mínima	15.2
183340	7	Sololá	716	San Marcos la Laguna 	11	San Marcos la laguna 	3	Marzo	2023-03-20T00:00:00	2024-11-08T07:00:00	5	Humedad	83
183341	7	Sololá	716	San Marcos la Laguna 	11	San Marcos la laguna 	3	Marzo	2023-03-20T00:00:00	2024-11-08T07:00:00	6	Velocidad del viento	8
183342	7	Sololá	716	San Marcos la Laguna 	11	San Marcos la laguna 	3	Marzo	2023-03-20T00:00:00	2024-11-08T07:00:00	7	Dirección del viento	8.05
183343	7	Sololá	716	San Marcos la Laguna 	11	San Marcos la laguna 	3	Marzo	2023-03-20T00:00:00	2024-11-08T07:00:00	1	Precipitación	0
183344	7	Sololá	716	San Marcos la Laguna 	11	San Marcos la laguna 	3	Marzo	2023-03-20T00:00:00	2024-11-08T07:00:00	8	Radiación solar	28
183345	7	Sololá	716	San Marcos la Laguna 	11	San Marcos la laguna 	3	Marzo	2023-03-20T00:00:00	2024-11-08T08:00:00	2	Temperatura media	20.4
183346	7	Sololá	716	San Marcos la Laguna 	11	San Marcos la laguna 	3	Marzo	2023-03-20T00:00:00	2024-11-08T08:00:00	4	Temperatura máxima	20.4
183347	7	Sololá	716	San Marcos la Laguna 	11	San Marcos la laguna 	3	Marzo	2023-03-20T00:00:00	2024-11-08T08:00:00	3	Temperatura mínima	16.1
183348	7	Sololá	716	San Marcos la Laguna 	11	San Marcos la laguna 	3	Marzo	2023-03-20T00:00:00	2024-11-08T08:00:00	5	Humedad	73
183349	7	Sololá	716	San Marcos la Laguna 	11	San Marcos la laguna 	3	Marzo	2023-03-20T00:00:00	2024-11-08T08:00:00	6	Velocidad del viento	4.8
183350	7	Sololá	716	San Marcos la Laguna 	11	San Marcos la laguna 	3	Marzo	2023-03-20T00:00:00	2024-11-08T08:00:00	7	Dirección del viento	4.83
183351	7	Sololá	716	San Marcos la Laguna 	11	San Marcos la laguna 	3	Marzo	2023-03-20T00:00:00	2024-11-08T08:00:00	1	Precipitación	0
183352	7	Sololá	716	San Marcos la Laguna 	11	San Marcos la laguna 	3	Marzo	2023-03-20T00:00:00	2024-11-08T08:00:00	8	Radiación solar	229
183353	7	Sololá	716	San Marcos la Laguna 	11	San Marcos la laguna 	3	Marzo	2023-03-20T00:00:00	2024-11-08T09:00:00	2	Temperatura media	22
183354	7	Sololá	716	San Marcos la Laguna 	11	San Marcos la laguna 	3	Marzo	2023-03-20T00:00:00	2024-11-08T09:00:00	4	Temperatura máxima	22.2
183355	7	Sololá	716	San Marcos la Laguna 	11	San Marcos la laguna 	3	Marzo	2023-03-20T00:00:00	2024-11-08T09:00:00	3	Temperatura mínima	20.4
183356	7	Sololá	716	San Marcos la Laguna 	11	San Marcos la laguna 	3	Marzo	2023-03-20T00:00:00	2024-11-08T09:00:00	5	Humedad	64
183357	7	Sololá	716	San Marcos la Laguna 	11	San Marcos la laguna 	3	Marzo	2023-03-20T00:00:00	2024-11-08T09:00:00	6	Velocidad del viento	1.6
183358	7	Sololá	716	San Marcos la Laguna 	11	San Marcos la laguna 	3	Marzo	2023-03-20T00:00:00	2024-11-08T09:00:00	7	Dirección del viento	1.61
183359	7	Sololá	716	San Marcos la Laguna 	11	San Marcos la laguna 	3	Marzo	2023-03-20T00:00:00	2024-11-08T09:00:00	1	Precipitación	0
183360	7	Sololá	716	San Marcos la Laguna 	11	San Marcos la laguna 	3	Marzo	2023-03-20T00:00:00	2024-11-08T09:00:00	8	Radiación solar	456
183361	7	Sololá	716	San Marcos la Laguna 	11	San Marcos la laguna 	3	Marzo	2023-03-20T00:00:00	2024-11-08T10:00:00	2	Temperatura media	23.2
183362	7	Sololá	716	San Marcos la Laguna 	11	San Marcos la laguna 	3	Marzo	2023-03-20T00:00:00	2024-11-08T10:00:00	4	Temperatura máxima	23.4
183363	7	Sololá	716	San Marcos la Laguna 	11	San Marcos la laguna 	3	Marzo	2023-03-20T00:00:00	2024-11-08T10:00:00	3	Temperatura mínima	21.8
183364	7	Sololá	716	San Marcos la Laguna 	11	San Marcos la laguna 	3	Marzo	2023-03-20T00:00:00	2024-11-08T10:00:00	5	Humedad	57
183365	7	Sololá	716	San Marcos la Laguna 	11	San Marcos la laguna 	3	Marzo	2023-03-20T00:00:00	2024-11-08T10:00:00	6	Velocidad del viento	4.8
183366	7	Sololá	716	San Marcos la Laguna 	11	San Marcos la laguna 	3	Marzo	2023-03-20T00:00:00	2024-11-08T10:00:00	7	Dirección del viento	4.83
183367	7	Sololá	716	San Marcos la Laguna 	11	San Marcos la laguna 	3	Marzo	2023-03-20T00:00:00	2024-11-08T10:00:00	1	Precipitación	0
183368	7	Sololá	716	San Marcos la Laguna 	11	San Marcos la laguna 	3	Marzo	2023-03-20T00:00:00	2024-11-08T10:00:00	8	Radiación solar	654
183369	7	Sololá	716	San Marcos la Laguna 	11	San Marcos la laguna 	3	Marzo	2023-03-20T00:00:00	2024-11-08T11:00:00	2	Temperatura media	23.6
183370	7	Sololá	716	San Marcos la Laguna 	11	San Marcos la laguna 	3	Marzo	2023-03-20T00:00:00	2024-11-08T11:00:00	4	Temperatura máxima	23.6
183371	7	Sololá	716	San Marcos la Laguna 	11	San Marcos la laguna 	3	Marzo	2023-03-20T00:00:00	2024-11-08T11:00:00	3	Temperatura mínima	22.7
183372	7	Sololá	716	San Marcos la Laguna 	11	San Marcos la laguna 	3	Marzo	2023-03-20T00:00:00	2024-11-08T11:00:00	5	Humedad	54
183373	7	Sololá	716	San Marcos la Laguna 	11	San Marcos la laguna 	3	Marzo	2023-03-20T00:00:00	2024-11-08T11:00:00	6	Velocidad del viento	25.7
183374	7	Sololá	716	San Marcos la Laguna 	11	San Marcos la laguna 	3	Marzo	2023-03-20T00:00:00	2024-11-08T11:00:00	7	Dirección del viento	25.75
183375	7	Sololá	716	San Marcos la Laguna 	11	San Marcos la laguna 	3	Marzo	2023-03-20T00:00:00	2024-11-08T11:00:00	1	Precipitación	0
183376	7	Sololá	716	San Marcos la Laguna 	11	San Marcos la laguna 	3	Marzo	2023-03-20T00:00:00	2024-11-08T11:00:00	8	Radiación solar	824
183377	7	Sololá	716	San Marcos la Laguna 	11	San Marcos la laguna 	3	Marzo	2023-03-20T00:00:00	2024-11-08T12:00:00	2	Temperatura media	24.6
183378	7	Sololá	716	San Marcos la Laguna 	11	San Marcos la laguna 	3	Marzo	2023-03-20T00:00:00	2024-11-08T12:00:00	4	Temperatura máxima	25.1
183379	7	Sololá	716	San Marcos la Laguna 	11	San Marcos la laguna 	3	Marzo	2023-03-20T00:00:00	2024-11-08T12:00:00	3	Temperatura mínima	23.6
183380	7	Sololá	716	San Marcos la Laguna 	11	San Marcos la laguna 	3	Marzo	2023-03-20T00:00:00	2024-11-08T12:00:00	5	Humedad	49
183381	7	Sololá	716	San Marcos la Laguna 	11	San Marcos la laguna 	3	Marzo	2023-03-20T00:00:00	2024-11-08T12:00:00	6	Velocidad del viento	19.3
183382	7	Sololá	716	San Marcos la Laguna 	11	San Marcos la laguna 	3	Marzo	2023-03-20T00:00:00	2024-11-08T12:00:00	7	Dirección del viento	19.31
183383	7	Sololá	716	San Marcos la Laguna 	11	San Marcos la laguna 	3	Marzo	2023-03-20T00:00:00	2024-11-08T12:00:00	1	Precipitación	0
183384	7	Sololá	716	San Marcos la Laguna 	11	San Marcos la laguna 	3	Marzo	2023-03-20T00:00:00	2024-11-08T12:00:00	8	Radiación solar	972
183385	7	Sololá	716	San Marcos la Laguna 	11	San Marcos la laguna 	3	Marzo	2023-03-20T00:00:00	2024-11-08T13:00:00	2	Temperatura media	24.1
183386	7	Sololá	716	San Marcos la Laguna 	11	San Marcos la laguna 	3	Marzo	2023-03-20T00:00:00	2024-11-08T13:00:00	4	Temperatura máxima	24.7
183387	7	Sololá	716	San Marcos la Laguna 	11	San Marcos la laguna 	3	Marzo	2023-03-20T00:00:00	2024-11-08T13:00:00	3	Temperatura mínima	23.8
183388	7	Sololá	716	San Marcos la Laguna 	11	San Marcos la laguna 	3	Marzo	2023-03-20T00:00:00	2024-11-08T13:00:00	5	Humedad	50
183389	7	Sololá	716	San Marcos la Laguna 	11	San Marcos la laguna 	3	Marzo	2023-03-20T00:00:00	2024-11-08T13:00:00	6	Velocidad del viento	22.5
183390	7	Sololá	716	San Marcos la Laguna 	11	San Marcos la laguna 	3	Marzo	2023-03-20T00:00:00	2024-11-08T13:00:00	7	Dirección del viento	22.53
183391	7	Sololá	716	San Marcos la Laguna 	11	San Marcos la laguna 	3	Marzo	2023-03-20T00:00:00	2024-11-08T13:00:00	1	Precipitación	0
183392	7	Sololá	716	San Marcos la Laguna 	11	San Marcos la laguna 	3	Marzo	2023-03-20T00:00:00	2024-11-08T13:00:00	8	Radiación solar	260
183393	7	Sololá	716	San Marcos la Laguna 	11	San Marcos la laguna 	3	Marzo	2023-03-20T00:00:00	2024-11-08T14:00:00	2	Temperatura media	23.2
183394	7	Sololá	716	San Marcos la Laguna 	11	San Marcos la laguna 	3	Marzo	2023-03-20T00:00:00	2024-11-08T14:00:00	4	Temperatura máxima	24.4
183395	7	Sololá	716	San Marcos la Laguna 	11	San Marcos la laguna 	3	Marzo	2023-03-20T00:00:00	2024-11-08T14:00:00	3	Temperatura mínima	23.2
183396	7	Sololá	716	San Marcos la Laguna 	11	San Marcos la laguna 	3	Marzo	2023-03-20T00:00:00	2024-11-08T14:00:00	5	Humedad	69
183397	7	Sololá	716	San Marcos la Laguna 	11	San Marcos la laguna 	3	Marzo	2023-03-20T00:00:00	2024-11-08T14:00:00	6	Velocidad del viento	19.3
183398	7	Sololá	716	San Marcos la Laguna 	11	San Marcos la laguna 	3	Marzo	2023-03-20T00:00:00	2024-11-08T14:00:00	7	Dirección del viento	19.31
183399	7	Sololá	716	San Marcos la Laguna 	11	San Marcos la laguna 	3	Marzo	2023-03-20T00:00:00	2024-11-08T14:00:00	1	Precipitación	0
183400	7	Sololá	716	San Marcos la Laguna 	11	San Marcos la laguna 	3	Marzo	2023-03-20T00:00:00	2024-11-08T14:00:00	8	Radiación solar	250
183401	7	Sololá	716	San Marcos la Laguna 	11	San Marcos la laguna 	3	Marzo	2023-03-20T00:00:00	2024-11-08T15:00:00	2	Temperatura media	22.6
183402	7	Sololá	716	San Marcos la Laguna 	11	San Marcos la laguna 	3	Marzo	2023-03-20T00:00:00	2024-11-08T15:00:00	4	Temperatura máxima	23.6
183403	7	Sololá	716	San Marcos la Laguna 	11	San Marcos la laguna 	3	Marzo	2023-03-20T00:00:00	2024-11-08T15:00:00	3	Temperatura mínima	22.6
183404	7	Sololá	716	San Marcos la Laguna 	11	San Marcos la laguna 	3	Marzo	2023-03-20T00:00:00	2024-11-08T15:00:00	5	Humedad	74
183405	7	Sololá	716	San Marcos la Laguna 	11	San Marcos la laguna 	3	Marzo	2023-03-20T00:00:00	2024-11-08T15:00:00	6	Velocidad del viento	8
183406	7	Sololá	716	San Marcos la Laguna 	11	San Marcos la laguna 	3	Marzo	2023-03-20T00:00:00	2024-11-08T15:00:00	7	Dirección del viento	8.05
183407	7	Sololá	716	San Marcos la Laguna 	11	San Marcos la laguna 	3	Marzo	2023-03-20T00:00:00	2024-11-08T15:00:00	1	Precipitación	0
183408	7	Sololá	716	San Marcos la Laguna 	11	San Marcos la laguna 	3	Marzo	2023-03-20T00:00:00	2024-11-08T15:00:00	8	Radiación solar	289
183409	7	Sololá	716	San Marcos la Laguna 	11	San Marcos la laguna 	3	Marzo	2023-03-20T00:00:00	2024-11-08T16:00:00	2	Temperatura media	21.8
183410	7	Sololá	716	San Marcos la Laguna 	11	San Marcos la laguna 	3	Marzo	2023-03-20T00:00:00	2024-11-08T16:00:00	4	Temperatura máxima	22.6
183411	7	Sololá	716	San Marcos la Laguna 	11	San Marcos la laguna 	3	Marzo	2023-03-20T00:00:00	2024-11-08T16:00:00	3	Temperatura mínima	21.8
183412	7	Sololá	716	San Marcos la Laguna 	11	San Marcos la laguna 	3	Marzo	2023-03-20T00:00:00	2024-11-08T16:00:00	5	Humedad	75
183413	7	Sololá	716	San Marcos la Laguna 	11	San Marcos la laguna 	3	Marzo	2023-03-20T00:00:00	2024-11-08T16:00:00	6	Velocidad del viento	6.4
183414	7	Sololá	716	San Marcos la Laguna 	11	San Marcos la laguna 	3	Marzo	2023-03-20T00:00:00	2024-11-08T16:00:00	7	Dirección del viento	6.44
183415	7	Sololá	716	San Marcos la Laguna 	11	San Marcos la laguna 	3	Marzo	2023-03-20T00:00:00	2024-11-08T16:00:00	1	Precipitación	0
183416	7	Sololá	716	San Marcos la Laguna 	11	San Marcos la laguna 	3	Marzo	2023-03-20T00:00:00	2024-11-08T16:00:00	8	Radiación solar	74
183417	7	Sololá	716	San Marcos la Laguna 	11	San Marcos la laguna 	3	Marzo	2023-03-20T00:00:00	2024-11-08T17:00:00	2	Temperatura media	21.9
183418	7	Sololá	716	San Marcos la Laguna 	11	San Marcos la laguna 	3	Marzo	2023-03-20T00:00:00	2024-11-08T17:00:00	4	Temperatura máxima	22.1
183419	7	Sololá	716	San Marcos la Laguna 	11	San Marcos la laguna 	3	Marzo	2023-03-20T00:00:00	2024-11-08T17:00:00	3	Temperatura mínima	21.3
183420	7	Sololá	716	San Marcos la Laguna 	11	San Marcos la laguna 	3	Marzo	2023-03-20T00:00:00	2024-11-08T17:00:00	5	Humedad	62
183421	7	Sololá	716	San Marcos la Laguna 	11	San Marcos la laguna 	3	Marzo	2023-03-20T00:00:00	2024-11-08T17:00:00	6	Velocidad del viento	8
183422	7	Sololá	716	San Marcos la Laguna 	11	San Marcos la laguna 	3	Marzo	2023-03-20T00:00:00	2024-11-08T17:00:00	7	Dirección del viento	8.05
183423	7	Sololá	716	San Marcos la Laguna 	11	San Marcos la laguna 	3	Marzo	2023-03-20T00:00:00	2024-11-08T17:00:00	1	Precipitación	0
183424	7	Sololá	716	San Marcos la Laguna 	11	San Marcos la laguna 	3	Marzo	2023-03-20T00:00:00	2024-11-08T17:00:00	8	Radiación solar	22
183425	7	Sololá	716	San Marcos la Laguna 	11	San Marcos la laguna 	3	Marzo	2023-03-20T00:00:00	2024-11-08T18:00:00	2	Temperatura media	21.3
183426	7	Sololá	716	San Marcos la Laguna 	11	San Marcos la laguna 	3	Marzo	2023-03-20T00:00:00	2024-11-08T18:00:00	4	Temperatura máxima	21.9
183427	7	Sololá	716	San Marcos la Laguna 	11	San Marcos la laguna 	3	Marzo	2023-03-20T00:00:00	2024-11-08T18:00:00	3	Temperatura mínima	21.3
183428	7	Sololá	716	San Marcos la Laguna 	11	San Marcos la laguna 	3	Marzo	2023-03-20T00:00:00	2024-11-08T18:00:00	5	Humedad	64
183429	7	Sololá	716	San Marcos la Laguna 	11	San Marcos la laguna 	3	Marzo	2023-03-20T00:00:00	2024-11-08T18:00:00	6	Velocidad del viento	17.7
183430	7	Sololá	716	San Marcos la Laguna 	11	San Marcos la laguna 	3	Marzo	2023-03-20T00:00:00	2024-11-08T18:00:00	7	Dirección del viento	17.7
183431	7	Sololá	716	San Marcos la Laguna 	11	San Marcos la laguna 	3	Marzo	2023-03-20T00:00:00	2024-11-08T18:00:00	1	Precipitación	0
183432	7	Sololá	716	San Marcos la Laguna 	11	San Marcos la laguna 	3	Marzo	2023-03-20T00:00:00	2024-11-08T18:00:00	8	Radiación solar	21
183433	7	Sololá	716	San Marcos la Laguna 	11	San Marcos la laguna 	3	Marzo	2023-03-20T00:00:00	2024-11-08T19:00:00	2	Temperatura media	20.7
183434	7	Sololá	716	San Marcos la Laguna 	11	San Marcos la laguna 	3	Marzo	2023-03-20T00:00:00	2024-11-08T19:00:00	4	Temperatura máxima	21.4
183435	7	Sololá	716	San Marcos la Laguna 	11	San Marcos la laguna 	3	Marzo	2023-03-20T00:00:00	2024-11-08T19:00:00	3	Temperatura mínima	20.6
183436	7	Sololá	716	San Marcos la Laguna 	11	San Marcos la laguna 	3	Marzo	2023-03-20T00:00:00	2024-11-08T19:00:00	5	Humedad	63
183437	7	Sololá	716	San Marcos la Laguna 	11	San Marcos la laguna 	3	Marzo	2023-03-20T00:00:00	2024-11-08T19:00:00	6	Velocidad del viento	19.3
183438	7	Sololá	716	San Marcos la Laguna 	11	San Marcos la laguna 	3	Marzo	2023-03-20T00:00:00	2024-11-08T19:00:00	7	Dirección del viento	19.31
183439	7	Sololá	716	San Marcos la Laguna 	11	San Marcos la laguna 	3	Marzo	2023-03-20T00:00:00	2024-11-08T19:00:00	1	Precipitación	0
183440	7	Sololá	716	San Marcos la Laguna 	11	San Marcos la laguna 	3	Marzo	2023-03-20T00:00:00	2024-11-08T19:00:00	8	Radiación solar	0
183441	7	Sololá	716	San Marcos la Laguna 	11	San Marcos la laguna 	3	Marzo	2023-03-20T00:00:00	2024-11-08T20:00:00	2	Temperatura media	20.1
183442	7	Sololá	716	San Marcos la Laguna 	11	San Marcos la laguna 	3	Marzo	2023-03-20T00:00:00	2024-11-08T20:00:00	4	Temperatura máxima	20.7
183443	7	Sololá	716	San Marcos la Laguna 	11	San Marcos la laguna 	3	Marzo	2023-03-20T00:00:00	2024-11-08T20:00:00	3	Temperatura mínima	19.9
183444	7	Sololá	716	San Marcos la Laguna 	11	San Marcos la laguna 	3	Marzo	2023-03-20T00:00:00	2024-11-08T20:00:00	5	Humedad	62
183445	7	Sololá	716	San Marcos la Laguna 	11	San Marcos la laguna 	3	Marzo	2023-03-20T00:00:00	2024-11-08T20:00:00	6	Velocidad del viento	6.4
183446	7	Sololá	716	San Marcos la Laguna 	11	San Marcos la laguna 	3	Marzo	2023-03-20T00:00:00	2024-11-08T20:00:00	7	Dirección del viento	6.44
183447	7	Sololá	716	San Marcos la Laguna 	11	San Marcos la laguna 	3	Marzo	2023-03-20T00:00:00	2024-11-08T20:00:00	1	Precipitación	0
183448	7	Sololá	716	San Marcos la Laguna 	11	San Marcos la laguna 	3	Marzo	2023-03-20T00:00:00	2024-11-08T20:00:00	8	Radiación solar	0
183449	7	Sololá	716	San Marcos la Laguna 	11	San Marcos la laguna 	3	Marzo	2023-03-20T00:00:00	2024-11-08T21:00:00	2	Temperatura media	17.5
183450	7	Sololá	716	San Marcos la Laguna 	11	San Marcos la laguna 	3	Marzo	2023-03-20T00:00:00	2024-11-08T21:00:00	4	Temperatura máxima	20.2
183451	7	Sololá	716	San Marcos la Laguna 	11	San Marcos la laguna 	3	Marzo	2023-03-20T00:00:00	2024-11-08T21:00:00	3	Temperatura mínima	17.5
183452	7	Sololá	716	San Marcos la Laguna 	11	San Marcos la laguna 	3	Marzo	2023-03-20T00:00:00	2024-11-08T21:00:00	5	Humedad	73
183453	7	Sololá	716	San Marcos la Laguna 	11	San Marcos la laguna 	3	Marzo	2023-03-20T00:00:00	2024-11-08T21:00:00	6	Velocidad del viento	4.8
183454	7	Sololá	716	San Marcos la Laguna 	11	San Marcos la laguna 	3	Marzo	2023-03-20T00:00:00	2024-11-08T21:00:00	7	Dirección del viento	4.83
183455	7	Sololá	716	San Marcos la Laguna 	11	San Marcos la laguna 	3	Marzo	2023-03-20T00:00:00	2024-11-08T21:00:00	1	Precipitación	0
183456	7	Sololá	716	San Marcos la Laguna 	11	San Marcos la laguna 	3	Marzo	2023-03-20T00:00:00	2024-11-08T21:00:00	8	Radiación solar	0
183457	7	Sololá	716	San Marcos la Laguna 	11	San Marcos la laguna 	3	Marzo	2023-03-20T00:00:00	2024-11-08T22:00:00	2	Temperatura media	19.8
183458	7	Sololá	716	San Marcos la Laguna 	11	San Marcos la laguna 	3	Marzo	2023-03-20T00:00:00	2024-11-08T22:00:00	4	Temperatura máxima	19.8
183459	7	Sololá	716	San Marcos la Laguna 	11	San Marcos la laguna 	3	Marzo	2023-03-20T00:00:00	2024-11-08T22:00:00	3	Temperatura mínima	16.9
183460	7	Sololá	716	San Marcos la Laguna 	11	San Marcos la laguna 	3	Marzo	2023-03-20T00:00:00	2024-11-08T22:00:00	5	Humedad	63
183461	7	Sololá	716	San Marcos la Laguna 	11	San Marcos la laguna 	3	Marzo	2023-03-20T00:00:00	2024-11-08T22:00:00	6	Velocidad del viento	4.8
183462	7	Sololá	716	San Marcos la Laguna 	11	San Marcos la laguna 	3	Marzo	2023-03-20T00:00:00	2024-11-08T22:00:00	7	Dirección del viento	4.83
183463	7	Sololá	716	San Marcos la Laguna 	11	San Marcos la laguna 	3	Marzo	2023-03-20T00:00:00	2024-11-08T22:00:00	1	Precipitación	0
183464	7	Sololá	716	San Marcos la Laguna 	11	San Marcos la laguna 	3	Marzo	2023-03-20T00:00:00	2024-11-08T22:00:00	8	Radiación solar	0
183465	7	Sololá	716	San Marcos la Laguna 	11	San Marcos la laguna 	3	Marzo	2023-03-20T00:00:00	2024-11-08T23:00:00	2	Temperatura media	17.4
183466	7	Sololá	716	San Marcos la Laguna 	11	San Marcos la laguna 	3	Marzo	2023-03-20T00:00:00	2024-11-08T23:00:00	4	Temperatura máxima	20.1
183467	7	Sololá	716	San Marcos la Laguna 	11	San Marcos la laguna 	3	Marzo	2023-03-20T00:00:00	2024-11-08T23:00:00	3	Temperatura mínima	17.3
183468	7	Sololá	716	San Marcos la Laguna 	11	San Marcos la laguna 	3	Marzo	2023-03-20T00:00:00	2024-11-08T23:00:00	5	Humedad	72
183469	7	Sololá	716	San Marcos la Laguna 	11	San Marcos la laguna 	3	Marzo	2023-03-20T00:00:00	2024-11-08T23:00:00	6	Velocidad del viento	3.2
183470	7	Sololá	716	San Marcos la Laguna 	11	San Marcos la laguna 	3	Marzo	2023-03-20T00:00:00	2024-11-08T23:00:00	7	Dirección del viento	3.22
183471	7	Sololá	716	San Marcos la Laguna 	11	San Marcos la laguna 	3	Marzo	2023-03-20T00:00:00	2024-11-08T23:00:00	1	Precipitación	0
183472	7	Sololá	716	San Marcos la Laguna 	11	San Marcos la laguna 	3	Marzo	2023-03-20T00:00:00	2024-11-08T23:00:00	8	Radiación solar	0
183473	7	Sololá	716	San Marcos la Laguna 	11	San Marcos la laguna 	3	Marzo	2023-03-21T00:00:00	2024-11-08T00:00:00	2	Temperatura media	20.5
183474	7	Sololá	716	San Marcos la Laguna 	11	San Marcos la laguna 	3	Marzo	2023-03-21T00:00:00	2024-11-08T00:00:00	4	Temperatura máxima	20.6
183475	7	Sololá	716	San Marcos la Laguna 	11	San Marcos la laguna 	3	Marzo	2023-03-21T00:00:00	2024-11-08T00:00:00	3	Temperatura mínima	16.9
183476	7	Sololá	716	San Marcos la Laguna 	11	San Marcos la laguna 	3	Marzo	2023-03-21T00:00:00	2024-11-08T00:00:00	5	Humedad	67
183477	7	Sololá	716	San Marcos la Laguna 	11	San Marcos la laguna 	3	Marzo	2023-03-21T00:00:00	2024-11-08T00:00:00	6	Velocidad del viento	12.9
183478	7	Sololá	716	San Marcos la Laguna 	11	San Marcos la laguna 	3	Marzo	2023-03-21T00:00:00	2024-11-08T00:00:00	7	Dirección del viento	12.87
183479	7	Sololá	716	San Marcos la Laguna 	11	San Marcos la laguna 	3	Marzo	2023-03-21T00:00:00	2024-11-08T00:00:00	1	Precipitación	0
183480	7	Sololá	716	San Marcos la Laguna 	11	San Marcos la laguna 	3	Marzo	2023-03-21T00:00:00	2024-11-08T00:00:00	8	Radiación solar	0
183481	7	Sololá	716	San Marcos la Laguna 	11	San Marcos la laguna 	3	Marzo	2023-03-21T00:00:00	2024-11-08T01:00:00	2	Temperatura media	19.4
183482	7	Sololá	716	San Marcos la Laguna 	11	San Marcos la laguna 	3	Marzo	2023-03-21T00:00:00	2024-11-08T01:00:00	4	Temperatura máxima	20.6
183483	7	Sololá	716	San Marcos la Laguna 	11	San Marcos la laguna 	3	Marzo	2023-03-21T00:00:00	2024-11-08T01:00:00	3	Temperatura mínima	19.2
183484	7	Sololá	716	San Marcos la Laguna 	11	San Marcos la laguna 	3	Marzo	2023-03-21T00:00:00	2024-11-08T01:00:00	5	Humedad	68
183485	7	Sololá	716	San Marcos la Laguna 	11	San Marcos la laguna 	3	Marzo	2023-03-21T00:00:00	2024-11-08T01:00:00	6	Velocidad del viento	14.5
183486	7	Sololá	716	San Marcos la Laguna 	11	San Marcos la laguna 	3	Marzo	2023-03-21T00:00:00	2024-11-08T01:00:00	7	Dirección del viento	14.48
183487	7	Sololá	716	San Marcos la Laguna 	11	San Marcos la laguna 	3	Marzo	2023-03-21T00:00:00	2024-11-08T01:00:00	1	Precipitación	0
183488	7	Sololá	716	San Marcos la Laguna 	11	San Marcos la laguna 	3	Marzo	2023-03-21T00:00:00	2024-11-08T01:00:00	8	Radiación solar	0
183489	7	Sololá	716	San Marcos la Laguna 	11	San Marcos la laguna 	3	Marzo	2023-03-21T00:00:00	2024-11-08T02:00:00	2	Temperatura media	16.9
183490	7	Sololá	716	San Marcos la Laguna 	11	San Marcos la laguna 	3	Marzo	2023-03-21T00:00:00	2024-11-08T02:00:00	4	Temperatura máxima	19.5
183491	7	Sololá	716	San Marcos la Laguna 	11	San Marcos la laguna 	3	Marzo	2023-03-21T00:00:00	2024-11-08T02:00:00	3	Temperatura mínima	16.4
183492	7	Sololá	716	San Marcos la Laguna 	11	San Marcos la laguna 	3	Marzo	2023-03-21T00:00:00	2024-11-08T02:00:00	5	Humedad	76
183493	7	Sololá	716	San Marcos la Laguna 	11	San Marcos la laguna 	3	Marzo	2023-03-21T00:00:00	2024-11-08T02:00:00	6	Velocidad del viento	6.4
183494	7	Sololá	716	San Marcos la Laguna 	11	San Marcos la laguna 	3	Marzo	2023-03-21T00:00:00	2024-11-08T02:00:00	7	Dirección del viento	6.44
183495	7	Sololá	716	San Marcos la Laguna 	11	San Marcos la laguna 	3	Marzo	2023-03-21T00:00:00	2024-11-08T02:00:00	1	Precipitación	0
183496	7	Sololá	716	San Marcos la Laguna 	11	San Marcos la laguna 	3	Marzo	2023-03-21T00:00:00	2024-11-08T02:00:00	8	Radiación solar	0
183497	7	Sololá	716	San Marcos la Laguna 	11	San Marcos la laguna 	3	Marzo	2023-03-21T00:00:00	2024-11-08T03:00:00	2	Temperatura media	16.5
183498	7	Sololá	716	San Marcos la Laguna 	11	San Marcos la laguna 	3	Marzo	2023-03-21T00:00:00	2024-11-08T03:00:00	4	Temperatura máxima	17.6
183499	7	Sololá	716	San Marcos la Laguna 	11	San Marcos la laguna 	3	Marzo	2023-03-21T00:00:00	2024-11-08T03:00:00	3	Temperatura mínima	16.4
183500	7	Sololá	716	San Marcos la Laguna 	11	San Marcos la laguna 	3	Marzo	2023-03-21T00:00:00	2024-11-08T03:00:00	5	Humedad	77
183501	7	Sololá	716	San Marcos la Laguna 	11	San Marcos la laguna 	3	Marzo	2023-03-21T00:00:00	2024-11-08T03:00:00	6	Velocidad del viento	4.8
183502	7	Sololá	716	San Marcos la Laguna 	11	San Marcos la laguna 	3	Marzo	2023-03-21T00:00:00	2024-11-08T03:00:00	7	Dirección del viento	4.83
183503	7	Sololá	716	San Marcos la Laguna 	11	San Marcos la laguna 	3	Marzo	2023-03-21T00:00:00	2024-11-08T03:00:00	1	Precipitación	0
183504	7	Sololá	716	San Marcos la Laguna 	11	San Marcos la laguna 	3	Marzo	2023-03-21T00:00:00	2024-11-08T03:00:00	8	Radiación solar	0
183505	7	Sololá	716	San Marcos la Laguna 	11	San Marcos la laguna 	3	Marzo	2023-03-21T00:00:00	2024-11-08T04:00:00	2	Temperatura media	16.6
183506	7	Sololá	716	San Marcos la Laguna 	11	San Marcos la laguna 	3	Marzo	2023-03-21T00:00:00	2024-11-08T04:00:00	4	Temperatura máxima	16.8
183507	7	Sololá	716	San Marcos la Laguna 	11	San Marcos la laguna 	3	Marzo	2023-03-21T00:00:00	2024-11-08T04:00:00	3	Temperatura mínima	16.4
183508	7	Sololá	716	San Marcos la Laguna 	11	San Marcos la laguna 	3	Marzo	2023-03-21T00:00:00	2024-11-08T04:00:00	5	Humedad	77
183509	7	Sololá	716	San Marcos la Laguna 	11	San Marcos la laguna 	3	Marzo	2023-03-21T00:00:00	2024-11-08T04:00:00	6	Velocidad del viento	6.4
183510	7	Sololá	716	San Marcos la Laguna 	11	San Marcos la laguna 	3	Marzo	2023-03-21T00:00:00	2024-11-08T04:00:00	7	Dirección del viento	6.44
183511	7	Sololá	716	San Marcos la Laguna 	11	San Marcos la laguna 	3	Marzo	2023-03-21T00:00:00	2024-11-08T04:00:00	1	Precipitación	0
183512	7	Sololá	716	San Marcos la Laguna 	11	San Marcos la laguna 	3	Marzo	2023-03-21T00:00:00	2024-11-08T04:00:00	8	Radiación solar	0
183513	7	Sololá	716	San Marcos la Laguna 	11	San Marcos la laguna 	3	Marzo	2023-03-21T00:00:00	2024-11-08T05:00:00	2	Temperatura media	15.9
183514	7	Sololá	716	San Marcos la Laguna 	11	San Marcos la laguna 	3	Marzo	2023-03-21T00:00:00	2024-11-08T05:00:00	4	Temperatura máxima	16.6
183515	7	Sololá	716	San Marcos la Laguna 	11	San Marcos la laguna 	3	Marzo	2023-03-21T00:00:00	2024-11-08T05:00:00	3	Temperatura mínima	15.7
183516	7	Sololá	716	San Marcos la Laguna 	11	San Marcos la laguna 	3	Marzo	2023-03-21T00:00:00	2024-11-08T05:00:00	5	Humedad	79
183517	7	Sololá	716	San Marcos la Laguna 	11	San Marcos la laguna 	3	Marzo	2023-03-21T00:00:00	2024-11-08T05:00:00	6	Velocidad del viento	8
183518	7	Sololá	716	San Marcos la Laguna 	11	San Marcos la laguna 	3	Marzo	2023-03-21T00:00:00	2024-11-08T05:00:00	7	Dirección del viento	8.05
183519	7	Sololá	716	San Marcos la Laguna 	11	San Marcos la laguna 	3	Marzo	2023-03-21T00:00:00	2024-11-08T05:00:00	1	Precipitación	0
183520	7	Sololá	716	San Marcos la Laguna 	11	San Marcos la laguna 	3	Marzo	2023-03-21T00:00:00	2024-11-08T05:00:00	8	Radiación solar	0
183521	7	Sololá	716	San Marcos la Laguna 	11	San Marcos la laguna 	3	Marzo	2023-03-21T00:00:00	2024-11-08T06:00:00	2	Temperatura media	15.8
183522	7	Sololá	716	San Marcos la Laguna 	11	San Marcos la laguna 	3	Marzo	2023-03-21T00:00:00	2024-11-08T06:00:00	4	Temperatura máxima	16.3
183523	7	Sololá	716	San Marcos la Laguna 	11	San Marcos la laguna 	3	Marzo	2023-03-21T00:00:00	2024-11-08T06:00:00	3	Temperatura mínima	15.3
183524	7	Sololá	716	San Marcos la Laguna 	11	San Marcos la laguna 	3	Marzo	2023-03-21T00:00:00	2024-11-08T06:00:00	5	Humedad	81
183525	7	Sololá	716	San Marcos la Laguna 	11	San Marcos la laguna 	3	Marzo	2023-03-21T00:00:00	2024-11-08T06:00:00	6	Velocidad del viento	6.4
183526	7	Sololá	716	San Marcos la Laguna 	11	San Marcos la laguna 	3	Marzo	2023-03-21T00:00:00	2024-11-08T06:00:00	7	Dirección del viento	6.44
183527	7	Sololá	716	San Marcos la Laguna 	11	San Marcos la laguna 	3	Marzo	2023-03-21T00:00:00	2024-11-08T06:00:00	1	Precipitación	0
183528	7	Sololá	716	San Marcos la Laguna 	11	San Marcos la laguna 	3	Marzo	2023-03-21T00:00:00	2024-11-08T06:00:00	8	Radiación solar	0
183529	7	Sololá	716	San Marcos la Laguna 	11	San Marcos la laguna 	3	Marzo	2023-03-21T00:00:00	2024-11-08T07:00:00	2	Temperatura media	16.3
183530	7	Sololá	716	San Marcos la Laguna 	11	San Marcos la laguna 	3	Marzo	2023-03-21T00:00:00	2024-11-08T07:00:00	4	Temperatura máxima	16.3
183531	7	Sololá	716	San Marcos la Laguna 	11	San Marcos la laguna 	3	Marzo	2023-03-21T00:00:00	2024-11-08T07:00:00	3	Temperatura mínima	15.4
183532	7	Sololá	716	San Marcos la Laguna 	11	San Marcos la laguna 	3	Marzo	2023-03-21T00:00:00	2024-11-08T07:00:00	5	Humedad	80
183533	7	Sololá	716	San Marcos la Laguna 	11	San Marcos la laguna 	3	Marzo	2023-03-21T00:00:00	2024-11-08T07:00:00	6	Velocidad del viento	6.4
183534	7	Sololá	716	San Marcos la Laguna 	11	San Marcos la laguna 	3	Marzo	2023-03-21T00:00:00	2024-11-08T07:00:00	7	Dirección del viento	6.44
183535	7	Sololá	716	San Marcos la Laguna 	11	San Marcos la laguna 	3	Marzo	2023-03-21T00:00:00	2024-11-08T07:00:00	1	Precipitación	0
183536	7	Sololá	716	San Marcos la Laguna 	11	San Marcos la laguna 	3	Marzo	2023-03-21T00:00:00	2024-11-08T07:00:00	8	Radiación solar	28
183537	7	Sololá	716	San Marcos la Laguna 	11	San Marcos la laguna 	3	Marzo	2023-03-21T00:00:00	2024-11-08T08:00:00	2	Temperatura media	20.9
183538	7	Sololá	716	San Marcos la Laguna 	11	San Marcos la laguna 	3	Marzo	2023-03-21T00:00:00	2024-11-08T08:00:00	4	Temperatura máxima	20.9
183539	7	Sololá	716	San Marcos la Laguna 	11	San Marcos la laguna 	3	Marzo	2023-03-21T00:00:00	2024-11-08T08:00:00	3	Temperatura mínima	16.3
183540	7	Sololá	716	San Marcos la Laguna 	11	San Marcos la laguna 	3	Marzo	2023-03-21T00:00:00	2024-11-08T08:00:00	5	Humedad	66
183541	7	Sololá	716	San Marcos la Laguna 	11	San Marcos la laguna 	3	Marzo	2023-03-21T00:00:00	2024-11-08T08:00:00	6	Velocidad del viento	4.8
183542	7	Sololá	716	San Marcos la Laguna 	11	San Marcos la laguna 	3	Marzo	2023-03-21T00:00:00	2024-11-08T08:00:00	7	Dirección del viento	4.83
183543	7	Sololá	716	San Marcos la Laguna 	11	San Marcos la laguna 	3	Marzo	2023-03-21T00:00:00	2024-11-08T08:00:00	1	Precipitación	0
183544	7	Sololá	716	San Marcos la Laguna 	11	San Marcos la laguna 	3	Marzo	2023-03-21T00:00:00	2024-11-08T08:00:00	8	Radiación solar	232
183545	7	Sololá	716	San Marcos la Laguna 	11	San Marcos la laguna 	3	Marzo	2023-03-21T00:00:00	2024-11-08T09:00:00	2	Temperatura media	22.5
183546	7	Sololá	716	San Marcos la Laguna 	11	San Marcos la laguna 	3	Marzo	2023-03-21T00:00:00	2024-11-08T09:00:00	4	Temperatura máxima	22.5
183547	7	Sololá	716	San Marcos la Laguna 	11	San Marcos la laguna 	3	Marzo	2023-03-21T00:00:00	2024-11-08T09:00:00	3	Temperatura mínima	21
183548	7	Sololá	716	San Marcos la Laguna 	11	San Marcos la laguna 	3	Marzo	2023-03-21T00:00:00	2024-11-08T09:00:00	5	Humedad	59
183549	7	Sololá	716	San Marcos la Laguna 	11	San Marcos la laguna 	3	Marzo	2023-03-21T00:00:00	2024-11-08T09:00:00	6	Velocidad del viento	19.3
183550	7	Sololá	716	San Marcos la Laguna 	11	San Marcos la laguna 	3	Marzo	2023-03-21T00:00:00	2024-11-08T09:00:00	7	Dirección del viento	19.31
183551	7	Sololá	716	San Marcos la Laguna 	11	San Marcos la laguna 	3	Marzo	2023-03-21T00:00:00	2024-11-08T09:00:00	1	Precipitación	0
183552	7	Sololá	716	San Marcos la Laguna 	11	San Marcos la laguna 	3	Marzo	2023-03-21T00:00:00	2024-11-08T09:00:00	8	Radiación solar	460
183553	7	Sololá	716	San Marcos la Laguna 	11	San Marcos la laguna 	3	Marzo	2023-03-21T00:00:00	2024-11-08T10:00:00	2	Temperatura media	22.2
183554	7	Sololá	716	San Marcos la Laguna 	11	San Marcos la laguna 	3	Marzo	2023-03-21T00:00:00	2024-11-08T10:00:00	4	Temperatura máxima	22.5
183555	7	Sololá	716	San Marcos la Laguna 	11	San Marcos la laguna 	3	Marzo	2023-03-21T00:00:00	2024-11-08T10:00:00	3	Temperatura mínima	21.8
183556	7	Sololá	716	San Marcos la Laguna 	11	San Marcos la laguna 	3	Marzo	2023-03-21T00:00:00	2024-11-08T10:00:00	5	Humedad	64
183557	7	Sololá	716	San Marcos la Laguna 	11	San Marcos la laguna 	3	Marzo	2023-03-21T00:00:00	2024-11-08T10:00:00	6	Velocidad del viento	27.4
183558	7	Sololá	716	San Marcos la Laguna 	11	San Marcos la laguna 	3	Marzo	2023-03-21T00:00:00	2024-11-08T10:00:00	7	Dirección del viento	27.36
183559	7	Sololá	716	San Marcos la Laguna 	11	San Marcos la laguna 	3	Marzo	2023-03-21T00:00:00	2024-11-08T10:00:00	1	Precipitación	0
183560	7	Sololá	716	San Marcos la Laguna 	11	San Marcos la laguna 	3	Marzo	2023-03-21T00:00:00	2024-11-08T10:00:00	8	Radiación solar	665
183561	7	Sololá	716	San Marcos la Laguna 	11	San Marcos la laguna 	3	Marzo	2023-03-21T00:00:00	2024-11-08T11:00:00	2	Temperatura media	22.9
183562	7	Sololá	716	San Marcos la Laguna 	11	San Marcos la laguna 	3	Marzo	2023-03-21T00:00:00	2024-11-08T11:00:00	4	Temperatura máxima	23.3
183563	7	Sololá	716	San Marcos la Laguna 	11	San Marcos la laguna 	3	Marzo	2023-03-21T00:00:00	2024-11-08T11:00:00	3	Temperatura mínima	22.2
183564	7	Sololá	716	San Marcos la Laguna 	11	San Marcos la laguna 	3	Marzo	2023-03-21T00:00:00	2024-11-08T11:00:00	5	Humedad	58
183565	7	Sololá	716	San Marcos la Laguna 	11	San Marcos la laguna 	3	Marzo	2023-03-21T00:00:00	2024-11-08T11:00:00	6	Velocidad del viento	30.6
183566	7	Sololá	716	San Marcos la Laguna 	11	San Marcos la laguna 	3	Marzo	2023-03-21T00:00:00	2024-11-08T11:00:00	7	Dirección del viento	30.58
183567	7	Sololá	716	San Marcos la Laguna 	11	San Marcos la laguna 	3	Marzo	2023-03-21T00:00:00	2024-11-08T11:00:00	1	Precipitación	0
183568	7	Sololá	716	San Marcos la Laguna 	11	San Marcos la laguna 	3	Marzo	2023-03-21T00:00:00	2024-11-08T11:00:00	8	Radiación solar	831
183569	7	Sololá	716	San Marcos la Laguna 	11	San Marcos la laguna 	3	Marzo	2023-03-21T00:00:00	2024-11-08T12:00:00	2	Temperatura media	22.9
183570	7	Sololá	716	San Marcos la Laguna 	11	San Marcos la laguna 	3	Marzo	2023-03-21T00:00:00	2024-11-08T12:00:00	4	Temperatura máxima	23.7
183571	7	Sololá	716	San Marcos la Laguna 	11	San Marcos la laguna 	3	Marzo	2023-03-21T00:00:00	2024-11-08T12:00:00	3	Temperatura mínima	22.8
183572	7	Sololá	716	San Marcos la Laguna 	11	San Marcos la laguna 	3	Marzo	2023-03-21T00:00:00	2024-11-08T12:00:00	5	Humedad	58
183573	7	Sololá	716	San Marcos la Laguna 	11	San Marcos la laguna 	3	Marzo	2023-03-21T00:00:00	2024-11-08T12:00:00	6	Velocidad del viento	29
183574	7	Sololá	716	San Marcos la Laguna 	11	San Marcos la laguna 	3	Marzo	2023-03-21T00:00:00	2024-11-08T12:00:00	7	Dirección del viento	28.97
183575	7	Sololá	716	San Marcos la Laguna 	11	San Marcos la laguna 	3	Marzo	2023-03-21T00:00:00	2024-11-08T12:00:00	1	Precipitación	0
183576	7	Sololá	716	San Marcos la Laguna 	11	San Marcos la laguna 	3	Marzo	2023-03-21T00:00:00	2024-11-08T12:00:00	8	Radiación solar	879
183577	7	Sololá	716	San Marcos la Laguna 	11	San Marcos la laguna 	3	Marzo	2023-03-21T00:00:00	2024-11-08T13:00:00	2	Temperatura media	24.2
183578	7	Sololá	716	San Marcos la Laguna 	11	San Marcos la laguna 	3	Marzo	2023-03-21T00:00:00	2024-11-08T13:00:00	4	Temperatura máxima	24.3
183579	7	Sololá	716	San Marcos la Laguna 	11	San Marcos la laguna 	3	Marzo	2023-03-21T00:00:00	2024-11-08T13:00:00	3	Temperatura mínima	22.8
183580	7	Sololá	716	San Marcos la Laguna 	11	San Marcos la laguna 	3	Marzo	2023-03-21T00:00:00	2024-11-08T13:00:00	5	Humedad	54
183581	7	Sololá	716	San Marcos la Laguna 	11	San Marcos la laguna 	3	Marzo	2023-03-21T00:00:00	2024-11-08T13:00:00	6	Velocidad del viento	29
183582	7	Sololá	716	San Marcos la Laguna 	11	San Marcos la laguna 	3	Marzo	2023-03-21T00:00:00	2024-11-08T13:00:00	7	Dirección del viento	28.97
183583	7	Sololá	716	San Marcos la Laguna 	11	San Marcos la laguna 	3	Marzo	2023-03-21T00:00:00	2024-11-08T13:00:00	1	Precipitación	0
183584	7	Sololá	716	San Marcos la Laguna 	11	San Marcos la laguna 	3	Marzo	2023-03-21T00:00:00	2024-11-08T13:00:00	8	Radiación solar	650
183585	7	Sololá	716	San Marcos la Laguna 	11	San Marcos la laguna 	3	Marzo	2023-03-21T00:00:00	2024-11-08T14:00:00	2	Temperatura media	23.9
183586	7	Sololá	716	San Marcos la Laguna 	11	San Marcos la laguna 	3	Marzo	2023-03-21T00:00:00	2024-11-08T14:00:00	4	Temperatura máxima	24.8
183587	7	Sololá	716	San Marcos la Laguna 	11	San Marcos la laguna 	3	Marzo	2023-03-21T00:00:00	2024-11-08T14:00:00	3	Temperatura mínima	23.7
183588	7	Sololá	716	San Marcos la Laguna 	11	San Marcos la laguna 	3	Marzo	2023-03-21T00:00:00	2024-11-08T14:00:00	5	Humedad	48
183589	7	Sololá	716	San Marcos la Laguna 	11	San Marcos la laguna 	3	Marzo	2023-03-21T00:00:00	2024-11-08T14:00:00	6	Velocidad del viento	29
183590	7	Sololá	716	San Marcos la Laguna 	11	San Marcos la laguna 	3	Marzo	2023-03-21T00:00:00	2024-11-08T14:00:00	7	Dirección del viento	28.97
183591	7	Sololá	716	San Marcos la Laguna 	11	San Marcos la laguna 	3	Marzo	2023-03-21T00:00:00	2024-11-08T14:00:00	1	Precipitación	0
183592	7	Sololá	716	San Marcos la Laguna 	11	San Marcos la laguna 	3	Marzo	2023-03-21T00:00:00	2024-11-08T14:00:00	8	Radiación solar	518
183593	7	Sololá	716	San Marcos la Laguna 	11	San Marcos la laguna 	3	Marzo	2023-03-21T00:00:00	2024-11-08T15:00:00	2	Temperatura media	24.5
183594	7	Sololá	716	San Marcos la Laguna 	11	San Marcos la laguna 	3	Marzo	2023-03-21T00:00:00	2024-11-08T15:00:00	4	Temperatura máxima	24.6
183595	7	Sololá	716	San Marcos la Laguna 	11	San Marcos la laguna 	3	Marzo	2023-03-21T00:00:00	2024-11-08T15:00:00	3	Temperatura mínima	23.9
183596	7	Sololá	716	San Marcos la Laguna 	11	San Marcos la laguna 	3	Marzo	2023-03-21T00:00:00	2024-11-08T15:00:00	5	Humedad	47
183597	7	Sololá	716	San Marcos la Laguna 	11	San Marcos la laguna 	3	Marzo	2023-03-21T00:00:00	2024-11-08T15:00:00	6	Velocidad del viento	20.9
183598	7	Sololá	716	San Marcos la Laguna 	11	San Marcos la laguna 	3	Marzo	2023-03-21T00:00:00	2024-11-08T15:00:00	7	Dirección del viento	20.92
183599	7	Sololá	716	San Marcos la Laguna 	11	San Marcos la laguna 	3	Marzo	2023-03-21T00:00:00	2024-11-08T15:00:00	1	Precipitación	0
183600	7	Sololá	716	San Marcos la Laguna 	11	San Marcos la laguna 	3	Marzo	2023-03-21T00:00:00	2024-11-08T15:00:00	8	Radiación solar	276
183601	7	Sololá	716	San Marcos la Laguna 	11	San Marcos la laguna 	3	Marzo	2023-03-21T00:00:00	2024-11-08T16:00:00	2	Temperatura media	24.1
183602	7	Sololá	716	San Marcos la Laguna 	11	San Marcos la laguna 	3	Marzo	2023-03-21T00:00:00	2024-11-08T16:00:00	4	Temperatura máxima	24.9
183603	7	Sololá	716	San Marcos la Laguna 	11	San Marcos la laguna 	3	Marzo	2023-03-21T00:00:00	2024-11-08T16:00:00	3	Temperatura mínima	24.1
183604	7	Sololá	716	San Marcos la Laguna 	11	San Marcos la laguna 	3	Marzo	2023-03-21T00:00:00	2024-11-08T16:00:00	5	Humedad	48
183605	7	Sololá	716	San Marcos la Laguna 	11	San Marcos la laguna 	3	Marzo	2023-03-21T00:00:00	2024-11-08T16:00:00	6	Velocidad del viento	22.5
183606	7	Sololá	716	San Marcos la Laguna 	11	San Marcos la laguna 	3	Marzo	2023-03-21T00:00:00	2024-11-08T16:00:00	7	Dirección del viento	22.53
183607	7	Sololá	716	San Marcos la Laguna 	11	San Marcos la laguna 	3	Marzo	2023-03-21T00:00:00	2024-11-08T16:00:00	1	Precipitación	0
183608	7	Sololá	716	San Marcos la Laguna 	11	San Marcos la laguna 	3	Marzo	2023-03-21T00:00:00	2024-11-08T16:00:00	8	Radiación solar	505
183609	7	Sololá	716	San Marcos la Laguna 	11	San Marcos la laguna 	3	Marzo	2023-03-21T00:00:00	2024-11-08T17:00:00	2	Temperatura media	24.1
183610	7	Sololá	716	San Marcos la Laguna 	11	San Marcos la laguna 	3	Marzo	2023-03-21T00:00:00	2024-11-08T17:00:00	4	Temperatura máxima	24.7
183611	7	Sololá	716	San Marcos la Laguna 	11	San Marcos la laguna 	3	Marzo	2023-03-21T00:00:00	2024-11-08T17:00:00	3	Temperatura mínima	23.9
183612	7	Sololá	716	San Marcos la Laguna 	11	San Marcos la laguna 	3	Marzo	2023-03-21T00:00:00	2024-11-08T17:00:00	5	Humedad	49
183613	7	Sololá	716	San Marcos la Laguna 	11	San Marcos la laguna 	3	Marzo	2023-03-21T00:00:00	2024-11-08T17:00:00	6	Velocidad del viento	16.1
183614	7	Sololá	716	San Marcos la Laguna 	11	San Marcos la laguna 	3	Marzo	2023-03-21T00:00:00	2024-11-08T17:00:00	7	Dirección del viento	16.09
183615	7	Sololá	716	San Marcos la Laguna 	11	San Marcos la laguna 	3	Marzo	2023-03-21T00:00:00	2024-11-08T17:00:00	1	Precipitación	0
183616	7	Sololá	716	San Marcos la Laguna 	11	San Marcos la laguna 	3	Marzo	2023-03-21T00:00:00	2024-11-08T17:00:00	8	Radiación solar	338
183617	7	Sololá	716	San Marcos la Laguna 	11	San Marcos la laguna 	3	Marzo	2023-03-21T00:00:00	2024-11-08T18:00:00	2	Temperatura media	23.1
183618	7	Sololá	716	San Marcos la Laguna 	11	San Marcos la laguna 	3	Marzo	2023-03-21T00:00:00	2024-11-08T18:00:00	4	Temperatura máxima	24.3
183619	7	Sololá	716	San Marcos la Laguna 	11	San Marcos la laguna 	3	Marzo	2023-03-21T00:00:00	2024-11-08T18:00:00	3	Temperatura mínima	23.1
183620	7	Sololá	716	San Marcos la Laguna 	11	San Marcos la laguna 	3	Marzo	2023-03-21T00:00:00	2024-11-08T18:00:00	5	Humedad	57
183621	7	Sololá	716	San Marcos la Laguna 	11	San Marcos la laguna 	3	Marzo	2023-03-21T00:00:00	2024-11-08T18:00:00	6	Velocidad del viento	14.5
183622	7	Sololá	716	San Marcos la Laguna 	11	San Marcos la laguna 	3	Marzo	2023-03-21T00:00:00	2024-11-08T18:00:00	7	Dirección del viento	14.48
183623	7	Sololá	716	San Marcos la Laguna 	11	San Marcos la laguna 	3	Marzo	2023-03-21T00:00:00	2024-11-08T18:00:00	1	Precipitación	0
183624	7	Sololá	716	San Marcos la Laguna 	11	San Marcos la laguna 	3	Marzo	2023-03-21T00:00:00	2024-11-08T18:00:00	8	Radiación solar	87
183625	7	Sololá	716	San Marcos la Laguna 	11	San Marcos la laguna 	3	Marzo	2023-03-21T00:00:00	2024-11-08T19:00:00	2	Temperatura media	22
183626	7	Sololá	716	San Marcos la Laguna 	11	San Marcos la laguna 	3	Marzo	2023-03-21T00:00:00	2024-11-08T19:00:00	4	Temperatura máxima	23.1
183627	7	Sololá	716	San Marcos la Laguna 	11	San Marcos la laguna 	3	Marzo	2023-03-21T00:00:00	2024-11-08T19:00:00	3	Temperatura mínima	22
183628	7	Sololá	716	San Marcos la Laguna 	11	San Marcos la laguna 	3	Marzo	2023-03-21T00:00:00	2024-11-08T19:00:00	5	Humedad	64
183629	7	Sololá	716	San Marcos la Laguna 	11	San Marcos la laguna 	3	Marzo	2023-03-21T00:00:00	2024-11-08T19:00:00	6	Velocidad del viento	14.5
183630	7	Sololá	716	San Marcos la Laguna 	11	San Marcos la laguna 	3	Marzo	2023-03-21T00:00:00	2024-11-08T19:00:00	7	Dirección del viento	14.48
183631	7	Sololá	716	San Marcos la Laguna 	11	San Marcos la laguna 	3	Marzo	2023-03-21T00:00:00	2024-11-08T19:00:00	1	Precipitación	0
183632	7	Sololá	716	San Marcos la Laguna 	11	San Marcos la laguna 	3	Marzo	2023-03-21T00:00:00	2024-11-08T19:00:00	8	Radiación solar	0
183633	7	Sololá	716	San Marcos la Laguna 	11	San Marcos la laguna 	3	Marzo	2023-03-21T00:00:00	2024-11-08T20:00:00	2	Temperatura media	21.3
183634	7	Sololá	716	San Marcos la Laguna 	11	San Marcos la laguna 	3	Marzo	2023-03-21T00:00:00	2024-11-08T20:00:00	4	Temperatura máxima	22
183635	7	Sololá	716	San Marcos la Laguna 	11	San Marcos la laguna 	3	Marzo	2023-03-21T00:00:00	2024-11-08T20:00:00	3	Temperatura mínima	21.3
183636	7	Sololá	716	San Marcos la Laguna 	11	San Marcos la laguna 	3	Marzo	2023-03-21T00:00:00	2024-11-08T20:00:00	5	Humedad	67
183637	7	Sololá	716	San Marcos la Laguna 	11	San Marcos la laguna 	3	Marzo	2023-03-21T00:00:00	2024-11-08T20:00:00	6	Velocidad del viento	20.9
183638	7	Sololá	716	San Marcos la Laguna 	11	San Marcos la laguna 	3	Marzo	2023-03-21T00:00:00	2024-11-08T20:00:00	7	Dirección del viento	20.92
183639	7	Sololá	716	San Marcos la Laguna 	11	San Marcos la laguna 	3	Marzo	2023-03-21T00:00:00	2024-11-08T20:00:00	1	Precipitación	0
183640	7	Sololá	716	San Marcos la Laguna 	11	San Marcos la laguna 	3	Marzo	2023-03-21T00:00:00	2024-11-08T20:00:00	8	Radiación solar	0
183641	7	Sololá	716	San Marcos la Laguna 	11	San Marcos la laguna 	3	Marzo	2023-03-21T00:00:00	2024-11-08T21:00:00	2	Temperatura media	21.2
183642	7	Sololá	716	San Marcos la Laguna 	11	San Marcos la laguna 	3	Marzo	2023-03-21T00:00:00	2024-11-08T21:00:00	4	Temperatura máxima	21.3
183643	7	Sololá	716	San Marcos la Laguna 	11	San Marcos la laguna 	3	Marzo	2023-03-21T00:00:00	2024-11-08T21:00:00	3	Temperatura mínima	21.1
183644	7	Sololá	716	San Marcos la Laguna 	11	San Marcos la laguna 	3	Marzo	2023-03-21T00:00:00	2024-11-08T21:00:00	5	Humedad	63
183645	7	Sololá	716	San Marcos la Laguna 	11	San Marcos la laguna 	3	Marzo	2023-03-21T00:00:00	2024-11-08T21:00:00	6	Velocidad del viento	25.7
183646	7	Sololá	716	San Marcos la Laguna 	11	San Marcos la laguna 	3	Marzo	2023-03-21T00:00:00	2024-11-08T21:00:00	7	Dirección del viento	25.75
183647	7	Sololá	716	San Marcos la Laguna 	11	San Marcos la laguna 	3	Marzo	2023-03-21T00:00:00	2024-11-08T21:00:00	1	Precipitación	0
183648	7	Sololá	716	San Marcos la Laguna 	11	San Marcos la laguna 	3	Marzo	2023-03-21T00:00:00	2024-11-08T21:00:00	8	Radiación solar	0
183649	7	Sololá	716	San Marcos la Laguna 	11	San Marcos la laguna 	3	Marzo	2023-03-21T00:00:00	2024-11-08T22:00:00	2	Temperatura media	21.1
183650	7	Sololá	716	San Marcos la Laguna 	11	San Marcos la laguna 	3	Marzo	2023-03-21T00:00:00	2024-11-08T22:00:00	4	Temperatura máxima	21.3
183651	7	Sololá	716	San Marcos la Laguna 	11	San Marcos la laguna 	3	Marzo	2023-03-21T00:00:00	2024-11-08T22:00:00	3	Temperatura mínima	21.1
183652	7	Sololá	716	San Marcos la Laguna 	11	San Marcos la laguna 	3	Marzo	2023-03-21T00:00:00	2024-11-08T22:00:00	5	Humedad	64
183653	7	Sololá	716	San Marcos la Laguna 	11	San Marcos la laguna 	3	Marzo	2023-03-21T00:00:00	2024-11-08T22:00:00	6	Velocidad del viento	29
183654	7	Sololá	716	San Marcos la Laguna 	11	San Marcos la laguna 	3	Marzo	2023-03-21T00:00:00	2024-11-08T22:00:00	7	Dirección del viento	28.97
183655	7	Sololá	716	San Marcos la Laguna 	11	San Marcos la laguna 	3	Marzo	2023-03-21T00:00:00	2024-11-08T22:00:00	1	Precipitación	0
183656	7	Sololá	716	San Marcos la Laguna 	11	San Marcos la laguna 	3	Marzo	2023-03-21T00:00:00	2024-11-08T22:00:00	8	Radiación solar	0
183657	7	Sololá	716	San Marcos la Laguna 	11	San Marcos la laguna 	3	Marzo	2023-03-21T00:00:00	2024-11-08T23:00:00	2	Temperatura media	20.8
183658	7	Sololá	716	San Marcos la Laguna 	11	San Marcos la laguna 	3	Marzo	2023-03-21T00:00:00	2024-11-08T23:00:00	4	Temperatura máxima	21.2
183659	7	Sololá	716	San Marcos la Laguna 	11	San Marcos la laguna 	3	Marzo	2023-03-21T00:00:00	2024-11-08T23:00:00	3	Temperatura mínima	20.7
183660	7	Sololá	716	San Marcos la Laguna 	11	San Marcos la laguna 	3	Marzo	2023-03-21T00:00:00	2024-11-08T23:00:00	5	Humedad	67
183661	7	Sololá	716	San Marcos la Laguna 	11	San Marcos la laguna 	3	Marzo	2023-03-21T00:00:00	2024-11-08T23:00:00	6	Velocidad del viento	25.7
183662	7	Sololá	716	San Marcos la Laguna 	11	San Marcos la laguna 	3	Marzo	2023-03-21T00:00:00	2024-11-08T23:00:00	7	Dirección del viento	25.75
183663	7	Sololá	716	San Marcos la Laguna 	11	San Marcos la laguna 	3	Marzo	2023-03-21T00:00:00	2024-11-08T23:00:00	1	Precipitación	0
183664	7	Sololá	716	San Marcos la Laguna 	11	San Marcos la laguna 	3	Marzo	2023-03-21T00:00:00	2024-11-08T23:00:00	8	Radiación solar	0
183665	7	Sololá	716	San Marcos la Laguna 	11	San Marcos la laguna 	3	Marzo	2023-03-22T00:00:00	2024-11-08T00:00:00	2	Temperatura media	20.8
183666	7	Sololá	716	San Marcos la Laguna 	11	San Marcos la laguna 	3	Marzo	2023-03-22T00:00:00	2024-11-08T00:00:00	4	Temperatura máxima	20.9
183667	7	Sololá	716	San Marcos la Laguna 	11	San Marcos la laguna 	3	Marzo	2023-03-22T00:00:00	2024-11-08T00:00:00	3	Temperatura mínima	20.6
183668	7	Sololá	716	San Marcos la Laguna 	11	San Marcos la laguna 	3	Marzo	2023-03-22T00:00:00	2024-11-08T00:00:00	5	Humedad	66
183669	7	Sololá	716	San Marcos la Laguna 	11	San Marcos la laguna 	3	Marzo	2023-03-22T00:00:00	2024-11-08T00:00:00	6	Velocidad del viento	14.5
183670	7	Sololá	716	San Marcos la Laguna 	11	San Marcos la laguna 	3	Marzo	2023-03-22T00:00:00	2024-11-08T00:00:00	7	Dirección del viento	14.48
183671	7	Sololá	716	San Marcos la Laguna 	11	San Marcos la laguna 	3	Marzo	2023-03-22T00:00:00	2024-11-08T00:00:00	1	Precipitación	0
183672	7	Sololá	716	San Marcos la Laguna 	11	San Marcos la laguna 	3	Marzo	2023-03-22T00:00:00	2024-11-08T00:00:00	8	Radiación solar	0
183673	7	Sololá	716	San Marcos la Laguna 	11	San Marcos la laguna 	3	Marzo	2023-03-22T00:00:00	2024-11-08T01:00:00	2	Temperatura media	20.7
183674	7	Sololá	716	San Marcos la Laguna 	11	San Marcos la laguna 	3	Marzo	2023-03-22T00:00:00	2024-11-08T01:00:00	4	Temperatura máxima	20.8
183675	7	Sololá	716	San Marcos la Laguna 	11	San Marcos la laguna 	3	Marzo	2023-03-22T00:00:00	2024-11-08T01:00:00	3	Temperatura mínima	20.5
183676	7	Sololá	716	San Marcos la Laguna 	11	San Marcos la laguna 	3	Marzo	2023-03-22T00:00:00	2024-11-08T01:00:00	5	Humedad	65
183677	7	Sololá	716	San Marcos la Laguna 	11	San Marcos la laguna 	3	Marzo	2023-03-22T00:00:00	2024-11-08T01:00:00	6	Velocidad del viento	17.7
183678	7	Sololá	716	San Marcos la Laguna 	11	San Marcos la laguna 	3	Marzo	2023-03-22T00:00:00	2024-11-08T01:00:00	7	Dirección del viento	17.7
183679	7	Sololá	716	San Marcos la Laguna 	11	San Marcos la laguna 	3	Marzo	2023-03-22T00:00:00	2024-11-08T01:00:00	1	Precipitación	0
183680	7	Sololá	716	San Marcos la Laguna 	11	San Marcos la laguna 	3	Marzo	2023-03-22T00:00:00	2024-11-08T01:00:00	8	Radiación solar	0
183681	7	Sololá	716	San Marcos la Laguna 	11	San Marcos la laguna 	3	Marzo	2023-03-22T00:00:00	2024-11-08T02:00:00	2	Temperatura media	19.4
183682	7	Sololá	716	San Marcos la Laguna 	11	San Marcos la laguna 	3	Marzo	2023-03-22T00:00:00	2024-11-08T02:00:00	4	Temperatura máxima	20.7
183683	7	Sololá	716	San Marcos la Laguna 	11	San Marcos la laguna 	3	Marzo	2023-03-22T00:00:00	2024-11-08T02:00:00	3	Temperatura mínima	19.4
183684	7	Sololá	716	San Marcos la Laguna 	11	San Marcos la laguna 	3	Marzo	2023-03-22T00:00:00	2024-11-08T02:00:00	5	Humedad	67
183685	7	Sololá	716	San Marcos la Laguna 	11	San Marcos la laguna 	3	Marzo	2023-03-22T00:00:00	2024-11-08T02:00:00	6	Velocidad del viento	11.3
183686	7	Sololá	716	San Marcos la Laguna 	11	San Marcos la laguna 	3	Marzo	2023-03-22T00:00:00	2024-11-08T02:00:00	7	Dirección del viento	11.27
183687	7	Sololá	716	San Marcos la Laguna 	11	San Marcos la laguna 	3	Marzo	2023-03-22T00:00:00	2024-11-08T02:00:00	1	Precipitación	0
183688	7	Sololá	716	San Marcos la Laguna 	11	San Marcos la laguna 	3	Marzo	2023-03-22T00:00:00	2024-11-08T02:00:00	8	Radiación solar	0
183689	7	Sololá	716	San Marcos la Laguna 	11	San Marcos la laguna 	3	Marzo	2023-03-22T00:00:00	2024-11-08T03:00:00	2	Temperatura media	20.4
183690	7	Sololá	716	San Marcos la Laguna 	11	San Marcos la laguna 	3	Marzo	2023-03-22T00:00:00	2024-11-08T03:00:00	4	Temperatura máxima	20.6
183691	7	Sololá	716	San Marcos la Laguna 	11	San Marcos la laguna 	3	Marzo	2023-03-22T00:00:00	2024-11-08T03:00:00	3	Temperatura mínima	19
183692	7	Sololá	716	San Marcos la Laguna 	11	San Marcos la laguna 	3	Marzo	2023-03-22T00:00:00	2024-11-08T03:00:00	5	Humedad	64
183693	7	Sololá	716	San Marcos la Laguna 	11	San Marcos la laguna 	3	Marzo	2023-03-22T00:00:00	2024-11-08T03:00:00	6	Velocidad del viento	6.4
183694	7	Sololá	716	San Marcos la Laguna 	11	San Marcos la laguna 	3	Marzo	2023-03-22T00:00:00	2024-11-08T03:00:00	7	Dirección del viento	6.44
183695	7	Sololá	716	San Marcos la Laguna 	11	San Marcos la laguna 	3	Marzo	2023-03-22T00:00:00	2024-11-08T03:00:00	1	Precipitación	0
183696	7	Sololá	716	San Marcos la Laguna 	11	San Marcos la laguna 	3	Marzo	2023-03-22T00:00:00	2024-11-08T03:00:00	8	Radiación solar	0
183697	7	Sololá	716	San Marcos la Laguna 	11	San Marcos la laguna 	3	Marzo	2023-03-22T00:00:00	2024-11-08T04:00:00	2	Temperatura media	20.6
183698	7	Sololá	716	San Marcos la Laguna 	11	San Marcos la laguna 	3	Marzo	2023-03-22T00:00:00	2024-11-08T04:00:00	4	Temperatura máxima	20.7
183699	7	Sololá	716	San Marcos la Laguna 	11	San Marcos la laguna 	3	Marzo	2023-03-22T00:00:00	2024-11-08T04:00:00	3	Temperatura mínima	20.2
183700	7	Sololá	716	San Marcos la Laguna 	11	San Marcos la laguna 	3	Marzo	2023-03-22T00:00:00	2024-11-08T04:00:00	5	Humedad	65
183701	7	Sololá	716	San Marcos la Laguna 	11	San Marcos la laguna 	3	Marzo	2023-03-22T00:00:00	2024-11-08T04:00:00	6	Velocidad del viento	6.4
183702	7	Sololá	716	San Marcos la Laguna 	11	San Marcos la laguna 	3	Marzo	2023-03-22T00:00:00	2024-11-08T04:00:00	7	Dirección del viento	6.44
183703	7	Sololá	716	San Marcos la Laguna 	11	San Marcos la laguna 	3	Marzo	2023-03-22T00:00:00	2024-11-08T04:00:00	1	Precipitación	0
183704	7	Sololá	716	San Marcos la Laguna 	11	San Marcos la laguna 	3	Marzo	2023-03-22T00:00:00	2024-11-08T04:00:00	8	Radiación solar	0
183705	7	Sololá	716	San Marcos la Laguna 	11	San Marcos la laguna 	3	Marzo	2023-03-22T00:00:00	2024-11-08T05:00:00	2	Temperatura media	20.3
183706	7	Sololá	716	San Marcos la Laguna 	11	San Marcos la laguna 	3	Marzo	2023-03-22T00:00:00	2024-11-08T05:00:00	4	Temperatura máxima	20.6
183707	7	Sololá	716	San Marcos la Laguna 	11	San Marcos la laguna 	3	Marzo	2023-03-22T00:00:00	2024-11-08T05:00:00	3	Temperatura mínima	20.2
183708	7	Sololá	716	San Marcos la Laguna 	11	San Marcos la laguna 	3	Marzo	2023-03-22T00:00:00	2024-11-08T05:00:00	5	Humedad	65
183709	7	Sololá	716	San Marcos la Laguna 	11	San Marcos la laguna 	3	Marzo	2023-03-22T00:00:00	2024-11-08T05:00:00	6	Velocidad del viento	4.8
183710	7	Sololá	716	San Marcos la Laguna 	11	San Marcos la laguna 	3	Marzo	2023-03-22T00:00:00	2024-11-08T05:00:00	7	Dirección del viento	4.83
183711	7	Sololá	716	San Marcos la Laguna 	11	San Marcos la laguna 	3	Marzo	2023-03-22T00:00:00	2024-11-08T05:00:00	1	Precipitación	0
183712	7	Sololá	716	San Marcos la Laguna 	11	San Marcos la laguna 	3	Marzo	2023-03-22T00:00:00	2024-11-08T05:00:00	8	Radiación solar	0
183713	7	Sololá	716	San Marcos la Laguna 	11	San Marcos la laguna 	3	Marzo	2023-03-22T00:00:00	2024-11-08T06:00:00	2	Temperatura media	20.2
183714	7	Sololá	716	San Marcos la Laguna 	11	San Marcos la laguna 	3	Marzo	2023-03-22T00:00:00	2024-11-08T06:00:00	4	Temperatura máxima	20.4
183715	7	Sololá	716	San Marcos la Laguna 	11	San Marcos la laguna 	3	Marzo	2023-03-22T00:00:00	2024-11-08T06:00:00	3	Temperatura mínima	20.2
183716	7	Sololá	716	San Marcos la Laguna 	11	San Marcos la laguna 	3	Marzo	2023-03-22T00:00:00	2024-11-08T06:00:00	5	Humedad	65
183717	7	Sololá	716	San Marcos la Laguna 	11	San Marcos la laguna 	3	Marzo	2023-03-22T00:00:00	2024-11-08T06:00:00	6	Velocidad del viento	4.8
183718	7	Sololá	716	San Marcos la Laguna 	11	San Marcos la laguna 	3	Marzo	2023-03-22T00:00:00	2024-11-08T06:00:00	7	Dirección del viento	4.83
183719	7	Sololá	716	San Marcos la Laguna 	11	San Marcos la laguna 	3	Marzo	2023-03-22T00:00:00	2024-11-08T06:00:00	1	Precipitación	0
183720	7	Sololá	716	San Marcos la Laguna 	11	San Marcos la laguna 	3	Marzo	2023-03-22T00:00:00	2024-11-08T06:00:00	8	Radiación solar	0
183721	7	Sololá	716	San Marcos la Laguna 	11	San Marcos la laguna 	3	Marzo	2023-03-22T00:00:00	2024-11-08T07:00:00	2	Temperatura media	20.1
183722	7	Sololá	716	San Marcos la Laguna 	11	San Marcos la laguna 	3	Marzo	2023-03-22T00:00:00	2024-11-08T07:00:00	4	Temperatura máxima	20.3
183723	7	Sololá	716	San Marcos la Laguna 	11	San Marcos la laguna 	3	Marzo	2023-03-22T00:00:00	2024-11-08T07:00:00	3	Temperatura mínima	20
183724	7	Sololá	716	San Marcos la Laguna 	11	San Marcos la laguna 	3	Marzo	2023-03-22T00:00:00	2024-11-08T07:00:00	5	Humedad	67
183725	7	Sololá	716	San Marcos la Laguna 	11	San Marcos la laguna 	3	Marzo	2023-03-22T00:00:00	2024-11-08T07:00:00	6	Velocidad del viento	9.7
183726	7	Sololá	716	San Marcos la Laguna 	11	San Marcos la laguna 	3	Marzo	2023-03-22T00:00:00	2024-11-08T07:00:00	7	Dirección del viento	9.66
183727	7	Sololá	716	San Marcos la Laguna 	11	San Marcos la laguna 	3	Marzo	2023-03-22T00:00:00	2024-11-08T07:00:00	1	Precipitación	0
183728	7	Sololá	716	San Marcos la Laguna 	11	San Marcos la laguna 	3	Marzo	2023-03-22T00:00:00	2024-11-08T07:00:00	8	Radiación solar	19
183729	7	Sololá	716	San Marcos la Laguna 	11	San Marcos la laguna 	3	Marzo	2023-03-22T00:00:00	2024-11-08T08:00:00	2	Temperatura media	20.8
183730	7	Sololá	716	San Marcos la Laguna 	11	San Marcos la laguna 	3	Marzo	2023-03-22T00:00:00	2024-11-08T08:00:00	4	Temperatura máxima	20.8
183731	7	Sololá	716	San Marcos la Laguna 	11	San Marcos la laguna 	3	Marzo	2023-03-22T00:00:00	2024-11-08T08:00:00	3	Temperatura mínima	19.9
183732	7	Sololá	716	San Marcos la Laguna 	11	San Marcos la laguna 	3	Marzo	2023-03-22T00:00:00	2024-11-08T08:00:00	5	Humedad	66
183733	7	Sololá	716	San Marcos la Laguna 	11	San Marcos la laguna 	3	Marzo	2023-03-22T00:00:00	2024-11-08T08:00:00	6	Velocidad del viento	14.5
183734	7	Sololá	716	San Marcos la Laguna 	11	San Marcos la laguna 	3	Marzo	2023-03-22T00:00:00	2024-11-08T08:00:00	7	Dirección del viento	14.48
183735	7	Sololá	716	San Marcos la Laguna 	11	San Marcos la laguna 	3	Marzo	2023-03-22T00:00:00	2024-11-08T08:00:00	1	Precipitación	0
183736	7	Sololá	716	San Marcos la Laguna 	11	San Marcos la laguna 	3	Marzo	2023-03-22T00:00:00	2024-11-08T08:00:00	8	Radiación solar	124
183737	7	Sololá	716	San Marcos la Laguna 	11	San Marcos la laguna 	3	Marzo	2023-03-22T00:00:00	2024-11-08T09:00:00	2	Temperatura media	22.3
183738	7	Sololá	716	San Marcos la Laguna 	11	San Marcos la laguna 	3	Marzo	2023-03-22T00:00:00	2024-11-08T09:00:00	4	Temperatura máxima	22.3
183739	7	Sololá	716	San Marcos la Laguna 	11	San Marcos la laguna 	3	Marzo	2023-03-22T00:00:00	2024-11-08T09:00:00	3	Temperatura mínima	20.7
183740	7	Sololá	716	San Marcos la Laguna 	11	San Marcos la laguna 	3	Marzo	2023-03-22T00:00:00	2024-11-08T09:00:00	5	Humedad	61
183741	7	Sololá	716	San Marcos la Laguna 	11	San Marcos la laguna 	3	Marzo	2023-03-22T00:00:00	2024-11-08T09:00:00	6	Velocidad del viento	20.9
183742	7	Sololá	716	San Marcos la Laguna 	11	San Marcos la laguna 	3	Marzo	2023-03-22T00:00:00	2024-11-08T09:00:00	7	Dirección del viento	20.92
183743	7	Sololá	716	San Marcos la Laguna 	11	San Marcos la laguna 	3	Marzo	2023-03-22T00:00:00	2024-11-08T09:00:00	1	Precipitación	0
183744	7	Sololá	716	San Marcos la Laguna 	11	San Marcos la laguna 	3	Marzo	2023-03-22T00:00:00	2024-11-08T09:00:00	8	Radiación solar	484
183745	7	Sololá	716	San Marcos la Laguna 	11	San Marcos la laguna 	3	Marzo	2023-03-22T00:00:00	2024-11-08T10:00:00	2	Temperatura media	23.1
183746	7	Sololá	716	San Marcos la Laguna 	11	San Marcos la laguna 	3	Marzo	2023-03-22T00:00:00	2024-11-08T10:00:00	4	Temperatura máxima	23.2
183747	7	Sololá	716	San Marcos la Laguna 	11	San Marcos la laguna 	3	Marzo	2023-03-22T00:00:00	2024-11-08T10:00:00	3	Temperatura mínima	21.8
183748	7	Sololá	716	San Marcos la Laguna 	11	San Marcos la laguna 	3	Marzo	2023-03-22T00:00:00	2024-11-08T10:00:00	5	Humedad	57
183749	7	Sololá	716	San Marcos la Laguna 	11	San Marcos la laguna 	3	Marzo	2023-03-22T00:00:00	2024-11-08T10:00:00	6	Velocidad del viento	19.3
183750	7	Sololá	716	San Marcos la Laguna 	11	San Marcos la laguna 	3	Marzo	2023-03-22T00:00:00	2024-11-08T10:00:00	7	Dirección del viento	19.31
183751	7	Sololá	716	San Marcos la Laguna 	11	San Marcos la laguna 	3	Marzo	2023-03-22T00:00:00	2024-11-08T10:00:00	1	Precipitación	0
183752	7	Sololá	716	San Marcos la Laguna 	11	San Marcos la laguna 	3	Marzo	2023-03-22T00:00:00	2024-11-08T10:00:00	8	Radiación solar	700
183753	7	Sololá	716	San Marcos la Laguna 	11	San Marcos la laguna 	3	Marzo	2023-03-22T00:00:00	2024-11-08T11:00:00	2	Temperatura media	23.9
183754	7	Sololá	716	San Marcos la Laguna 	11	San Marcos la laguna 	3	Marzo	2023-03-22T00:00:00	2024-11-08T11:00:00	4	Temperatura máxima	24.1
183755	7	Sololá	716	San Marcos la Laguna 	11	San Marcos la laguna 	3	Marzo	2023-03-22T00:00:00	2024-11-08T11:00:00	3	Temperatura mínima	23.1
183756	7	Sololá	716	San Marcos la Laguna 	11	San Marcos la laguna 	3	Marzo	2023-03-22T00:00:00	2024-11-08T11:00:00	5	Humedad	54
183757	7	Sololá	716	San Marcos la Laguna 	11	San Marcos la laguna 	3	Marzo	2023-03-22T00:00:00	2024-11-08T11:00:00	6	Velocidad del viento	16.1
183758	7	Sololá	716	San Marcos la Laguna 	11	San Marcos la laguna 	3	Marzo	2023-03-22T00:00:00	2024-11-08T11:00:00	7	Dirección del viento	16.09
183759	7	Sololá	716	San Marcos la Laguna 	11	San Marcos la laguna 	3	Marzo	2023-03-22T00:00:00	2024-11-08T11:00:00	1	Precipitación	0
183760	7	Sololá	716	San Marcos la Laguna 	11	San Marcos la laguna 	3	Marzo	2023-03-22T00:00:00	2024-11-08T11:00:00	8	Radiación solar	856
183761	7	Sololá	716	San Marcos la Laguna 	11	San Marcos la laguna 	3	Marzo	2023-03-22T00:00:00	2024-11-08T12:00:00	2	Temperatura media	24.4
183762	7	Sololá	716	San Marcos la Laguna 	11	San Marcos la laguna 	3	Marzo	2023-03-22T00:00:00	2024-11-08T12:00:00	4	Temperatura máxima	24.8
183763	7	Sololá	716	San Marcos la Laguna 	11	San Marcos la laguna 	3	Marzo	2023-03-22T00:00:00	2024-11-08T12:00:00	3	Temperatura mínima	23.8
183764	7	Sololá	716	San Marcos la Laguna 	11	San Marcos la laguna 	3	Marzo	2023-03-22T00:00:00	2024-11-08T12:00:00	5	Humedad	50
183765	7	Sololá	716	San Marcos la Laguna 	11	San Marcos la laguna 	3	Marzo	2023-03-22T00:00:00	2024-11-08T12:00:00	6	Velocidad del viento	20.9
183766	7	Sololá	716	San Marcos la Laguna 	11	San Marcos la laguna 	3	Marzo	2023-03-22T00:00:00	2024-11-08T12:00:00	7	Dirección del viento	20.92
183767	7	Sololá	716	San Marcos la Laguna 	11	San Marcos la laguna 	3	Marzo	2023-03-22T00:00:00	2024-11-08T12:00:00	1	Precipitación	0
183768	7	Sololá	716	San Marcos la Laguna 	11	San Marcos la laguna 	3	Marzo	2023-03-22T00:00:00	2024-11-08T12:00:00	8	Radiación solar	928
183769	7	Sololá	716	San Marcos la Laguna 	11	San Marcos la laguna 	3	Marzo	2023-03-22T00:00:00	2024-11-08T13:00:00	2	Temperatura media	24.2
183770	7	Sololá	716	San Marcos la Laguna 	11	San Marcos la laguna 	3	Marzo	2023-03-22T00:00:00	2024-11-08T13:00:00	4	Temperatura máxima	24.6
183771	7	Sololá	716	San Marcos la Laguna 	11	San Marcos la laguna 	3	Marzo	2023-03-22T00:00:00	2024-11-08T13:00:00	3	Temperatura mínima	23.8
183772	7	Sololá	716	San Marcos la Laguna 	11	San Marcos la laguna 	3	Marzo	2023-03-22T00:00:00	2024-11-08T13:00:00	5	Humedad	52
183773	7	Sololá	716	San Marcos la Laguna 	11	San Marcos la laguna 	3	Marzo	2023-03-22T00:00:00	2024-11-08T13:00:00	6	Velocidad del viento	17.7
183774	7	Sololá	716	San Marcos la Laguna 	11	San Marcos la laguna 	3	Marzo	2023-03-22T00:00:00	2024-11-08T13:00:00	7	Dirección del viento	17.7
183775	7	Sololá	716	San Marcos la Laguna 	11	San Marcos la laguna 	3	Marzo	2023-03-22T00:00:00	2024-11-08T13:00:00	1	Precipitación	0
183776	7	Sololá	716	San Marcos la Laguna 	11	San Marcos la laguna 	3	Marzo	2023-03-22T00:00:00	2024-11-08T13:00:00	8	Radiación solar	374
183777	7	Sololá	716	San Marcos la Laguna 	11	San Marcos la laguna 	3	Marzo	2023-03-22T00:00:00	2024-11-08T14:00:00	2	Temperatura media	25.4
183778	7	Sololá	716	San Marcos la Laguna 	11	San Marcos la laguna 	3	Marzo	2023-03-22T00:00:00	2024-11-08T14:00:00	4	Temperatura máxima	25.4
183779	7	Sololá	716	San Marcos la Laguna 	11	San Marcos la laguna 	3	Marzo	2023-03-22T00:00:00	2024-11-08T14:00:00	3	Temperatura mínima	24.1
183780	7	Sololá	716	San Marcos la Laguna 	11	San Marcos la laguna 	3	Marzo	2023-03-22T00:00:00	2024-11-08T14:00:00	5	Humedad	53
183781	7	Sololá	716	San Marcos la Laguna 	11	San Marcos la laguna 	3	Marzo	2023-03-22T00:00:00	2024-11-08T14:00:00	6	Velocidad del viento	16.1
183782	7	Sololá	716	San Marcos la Laguna 	11	San Marcos la laguna 	3	Marzo	2023-03-22T00:00:00	2024-11-08T14:00:00	7	Dirección del viento	16.09
183783	7	Sololá	716	San Marcos la Laguna 	11	San Marcos la laguna 	3	Marzo	2023-03-22T00:00:00	2024-11-08T14:00:00	1	Precipitación	0
183784	7	Sololá	716	San Marcos la Laguna 	11	San Marcos la laguna 	3	Marzo	2023-03-22T00:00:00	2024-11-08T14:00:00	8	Radiación solar	561
183785	7	Sololá	716	San Marcos la Laguna 	11	San Marcos la laguna 	3	Marzo	2023-03-22T00:00:00	2024-11-08T15:00:00	2	Temperatura media	25.1
183786	7	Sololá	716	San Marcos la Laguna 	11	San Marcos la laguna 	3	Marzo	2023-03-22T00:00:00	2024-11-08T15:00:00	4	Temperatura máxima	25.6
183787	7	Sololá	716	San Marcos la Laguna 	11	San Marcos la laguna 	3	Marzo	2023-03-22T00:00:00	2024-11-08T15:00:00	3	Temperatura mínima	24.6
183788	7	Sololá	716	San Marcos la Laguna 	11	San Marcos la laguna 	3	Marzo	2023-03-22T00:00:00	2024-11-08T15:00:00	5	Humedad	50
183789	7	Sololá	716	San Marcos la Laguna 	11	San Marcos la laguna 	3	Marzo	2023-03-22T00:00:00	2024-11-08T15:00:00	6	Velocidad del viento	19.3
183790	7	Sololá	716	San Marcos la Laguna 	11	San Marcos la laguna 	3	Marzo	2023-03-22T00:00:00	2024-11-08T15:00:00	7	Dirección del viento	19.31
183791	7	Sololá	716	San Marcos la Laguna 	11	San Marcos la laguna 	3	Marzo	2023-03-22T00:00:00	2024-11-08T15:00:00	1	Precipitación	0
183792	7	Sololá	716	San Marcos la Laguna 	11	San Marcos la laguna 	3	Marzo	2023-03-22T00:00:00	2024-11-08T15:00:00	8	Radiación solar	559
183793	7	Sololá	716	San Marcos la Laguna 	11	San Marcos la laguna 	3	Marzo	2023-03-22T00:00:00	2024-11-08T16:00:00	2	Temperatura media	25.7
183794	7	Sololá	716	San Marcos la Laguna 	11	San Marcos la laguna 	3	Marzo	2023-03-22T00:00:00	2024-11-08T16:00:00	4	Temperatura máxima	25.8
183795	7	Sololá	716	San Marcos la Laguna 	11	San Marcos la laguna 	3	Marzo	2023-03-22T00:00:00	2024-11-08T16:00:00	3	Temperatura mínima	24.9
183796	7	Sololá	716	San Marcos la Laguna 	11	San Marcos la laguna 	3	Marzo	2023-03-22T00:00:00	2024-11-08T16:00:00	5	Humedad	39
183797	7	Sololá	716	San Marcos la Laguna 	11	San Marcos la laguna 	3	Marzo	2023-03-22T00:00:00	2024-11-08T16:00:00	6	Velocidad del viento	22.5
183798	7	Sololá	716	San Marcos la Laguna 	11	San Marcos la laguna 	3	Marzo	2023-03-22T00:00:00	2024-11-08T16:00:00	7	Dirección del viento	22.53
183799	7	Sololá	716	San Marcos la Laguna 	11	San Marcos la laguna 	3	Marzo	2023-03-22T00:00:00	2024-11-08T16:00:00	1	Precipitación	0
183800	7	Sololá	716	San Marcos la Laguna 	11	San Marcos la laguna 	3	Marzo	2023-03-22T00:00:00	2024-11-08T16:00:00	8	Radiación solar	518
183801	7	Sololá	716	San Marcos la Laguna 	11	San Marcos la laguna 	3	Marzo	2023-03-22T00:00:00	2024-11-08T17:00:00	2	Temperatura media	23.6
183802	7	Sololá	716	San Marcos la Laguna 	11	San Marcos la laguna 	3	Marzo	2023-03-22T00:00:00	2024-11-08T17:00:00	4	Temperatura máxima	25.6
183803	7	Sololá	716	San Marcos la Laguna 	11	San Marcos la laguna 	3	Marzo	2023-03-22T00:00:00	2024-11-08T17:00:00	3	Temperatura mínima	23.6
183804	7	Sololá	716	San Marcos la Laguna 	11	San Marcos la laguna 	3	Marzo	2023-03-22T00:00:00	2024-11-08T17:00:00	5	Humedad	65
183805	7	Sololá	716	San Marcos la Laguna 	11	San Marcos la laguna 	3	Marzo	2023-03-22T00:00:00	2024-11-08T17:00:00	6	Velocidad del viento	20.9
183806	7	Sololá	716	San Marcos la Laguna 	11	San Marcos la laguna 	3	Marzo	2023-03-22T00:00:00	2024-11-08T17:00:00	7	Dirección del viento	20.92
183807	7	Sololá	716	San Marcos la Laguna 	11	San Marcos la laguna 	3	Marzo	2023-03-22T00:00:00	2024-11-08T17:00:00	1	Precipitación	0
183808	7	Sololá	716	San Marcos la Laguna 	11	San Marcos la laguna 	3	Marzo	2023-03-22T00:00:00	2024-11-08T17:00:00	8	Radiación solar	281
183809	7	Sololá	716	San Marcos la Laguna 	11	San Marcos la laguna 	3	Marzo	2023-03-22T00:00:00	2024-11-08T18:00:00	2	Temperatura media	23.1
183810	7	Sololá	716	San Marcos la Laguna 	11	San Marcos la laguna 	3	Marzo	2023-03-22T00:00:00	2024-11-08T18:00:00	4	Temperatura máxima	23.6
183811	7	Sololá	716	San Marcos la Laguna 	11	San Marcos la laguna 	3	Marzo	2023-03-22T00:00:00	2024-11-08T18:00:00	3	Temperatura mínima	22.3
183812	7	Sololá	716	San Marcos la Laguna 	11	San Marcos la laguna 	3	Marzo	2023-03-22T00:00:00	2024-11-08T18:00:00	5	Humedad	63
183813	7	Sololá	716	San Marcos la Laguna 	11	San Marcos la laguna 	3	Marzo	2023-03-22T00:00:00	2024-11-08T18:00:00	6	Velocidad del viento	8
183814	7	Sololá	716	San Marcos la Laguna 	11	San Marcos la laguna 	3	Marzo	2023-03-22T00:00:00	2024-11-08T18:00:00	7	Dirección del viento	8.05
183815	7	Sololá	716	San Marcos la Laguna 	11	San Marcos la laguna 	3	Marzo	2023-03-22T00:00:00	2024-11-08T18:00:00	1	Precipitación	0
183816	7	Sololá	716	San Marcos la Laguna 	11	San Marcos la laguna 	3	Marzo	2023-03-22T00:00:00	2024-11-08T18:00:00	8	Radiación solar	84
183817	7	Sololá	716	San Marcos la Laguna 	11	San Marcos la laguna 	3	Marzo	2023-03-22T00:00:00	2024-11-08T19:00:00	2	Temperatura media	22.2
183818	7	Sololá	716	San Marcos la Laguna 	11	San Marcos la laguna 	3	Marzo	2023-03-22T00:00:00	2024-11-08T19:00:00	4	Temperatura máxima	23.1
183819	7	Sololá	716	San Marcos la Laguna 	11	San Marcos la laguna 	3	Marzo	2023-03-22T00:00:00	2024-11-08T19:00:00	3	Temperatura mínima	22.2
183820	7	Sololá	716	San Marcos la Laguna 	11	San Marcos la laguna 	3	Marzo	2023-03-22T00:00:00	2024-11-08T19:00:00	5	Humedad	56
183821	7	Sololá	716	San Marcos la Laguna 	11	San Marcos la laguna 	3	Marzo	2023-03-22T00:00:00	2024-11-08T19:00:00	6	Velocidad del viento	8
183822	7	Sololá	716	San Marcos la Laguna 	11	San Marcos la laguna 	3	Marzo	2023-03-22T00:00:00	2024-11-08T19:00:00	7	Dirección del viento	8.05
183823	7	Sololá	716	San Marcos la Laguna 	11	San Marcos la laguna 	3	Marzo	2023-03-22T00:00:00	2024-11-08T19:00:00	1	Precipitación	0
183824	7	Sololá	716	San Marcos la Laguna 	11	San Marcos la laguna 	3	Marzo	2023-03-22T00:00:00	2024-11-08T19:00:00	8	Radiación solar	0
183825	7	Sololá	716	San Marcos la Laguna 	11	San Marcos la laguna 	3	Marzo	2023-03-22T00:00:00	2024-11-08T20:00:00	2	Temperatura media	21.2
183826	7	Sololá	716	San Marcos la Laguna 	11	San Marcos la laguna 	3	Marzo	2023-03-22T00:00:00	2024-11-08T20:00:00	4	Temperatura máxima	22.2
183827	7	Sololá	716	San Marcos la Laguna 	11	San Marcos la laguna 	3	Marzo	2023-03-22T00:00:00	2024-11-08T20:00:00	3	Temperatura mínima	21.2
183828	7	Sololá	716	San Marcos la Laguna 	11	San Marcos la laguna 	3	Marzo	2023-03-22T00:00:00	2024-11-08T20:00:00	5	Humedad	60
183829	7	Sololá	716	San Marcos la Laguna 	11	San Marcos la laguna 	3	Marzo	2023-03-22T00:00:00	2024-11-08T20:00:00	6	Velocidad del viento	9.7
183830	7	Sololá	716	San Marcos la Laguna 	11	San Marcos la laguna 	3	Marzo	2023-03-22T00:00:00	2024-11-08T20:00:00	7	Dirección del viento	9.66
183831	7	Sololá	716	San Marcos la Laguna 	11	San Marcos la laguna 	3	Marzo	2023-03-22T00:00:00	2024-11-08T20:00:00	1	Precipitación	0
183832	7	Sololá	716	San Marcos la Laguna 	11	San Marcos la laguna 	3	Marzo	2023-03-22T00:00:00	2024-11-08T20:00:00	8	Radiación solar	0
183833	7	Sololá	716	San Marcos la Laguna 	11	San Marcos la laguna 	3	Marzo	2023-03-22T00:00:00	2024-11-08T21:00:00	2	Temperatura media	20.5
183834	7	Sololá	716	San Marcos la Laguna 	11	San Marcos la laguna 	3	Marzo	2023-03-22T00:00:00	2024-11-08T21:00:00	4	Temperatura máxima	21.2
183835	7	Sololá	716	San Marcos la Laguna 	11	San Marcos la laguna 	3	Marzo	2023-03-22T00:00:00	2024-11-08T21:00:00	3	Temperatura mínima	20.5
183836	7	Sololá	716	San Marcos la Laguna 	11	San Marcos la laguna 	3	Marzo	2023-03-22T00:00:00	2024-11-08T21:00:00	5	Humedad	63
183837	7	Sololá	716	San Marcos la Laguna 	11	San Marcos la laguna 	3	Marzo	2023-03-22T00:00:00	2024-11-08T21:00:00	6	Velocidad del viento	3.2
183838	7	Sololá	716	San Marcos la Laguna 	11	San Marcos la laguna 	3	Marzo	2023-03-22T00:00:00	2024-11-08T21:00:00	7	Dirección del viento	3.22
183839	7	Sololá	716	San Marcos la Laguna 	11	San Marcos la laguna 	3	Marzo	2023-03-22T00:00:00	2024-11-08T21:00:00	1	Precipitación	0
183840	7	Sololá	716	San Marcos la Laguna 	11	San Marcos la laguna 	3	Marzo	2023-03-22T00:00:00	2024-11-08T21:00:00	8	Radiación solar	0
183841	7	Sololá	716	San Marcos la Laguna 	11	San Marcos la laguna 	3	Marzo	2023-03-22T00:00:00	2024-11-08T22:00:00	2	Temperatura media	18.4
183842	7	Sololá	716	San Marcos la Laguna 	11	San Marcos la laguna 	3	Marzo	2023-03-22T00:00:00	2024-11-08T22:00:00	4	Temperatura máxima	20.5
183843	7	Sololá	716	San Marcos la Laguna 	11	San Marcos la laguna 	3	Marzo	2023-03-22T00:00:00	2024-11-08T22:00:00	3	Temperatura mínima	18.4
183844	7	Sololá	716	San Marcos la Laguna 	11	San Marcos la laguna 	3	Marzo	2023-03-22T00:00:00	2024-11-08T22:00:00	5	Humedad	69
183845	7	Sololá	716	San Marcos la Laguna 	11	San Marcos la laguna 	3	Marzo	2023-03-22T00:00:00	2024-11-08T22:00:00	6	Velocidad del viento	4.8
183846	7	Sololá	716	San Marcos la Laguna 	11	San Marcos la laguna 	3	Marzo	2023-03-22T00:00:00	2024-11-08T22:00:00	7	Dirección del viento	4.83
183847	7	Sololá	716	San Marcos la Laguna 	11	San Marcos la laguna 	3	Marzo	2023-03-22T00:00:00	2024-11-08T22:00:00	1	Precipitación	0
183848	7	Sololá	716	San Marcos la Laguna 	11	San Marcos la laguna 	3	Marzo	2023-03-22T00:00:00	2024-11-08T22:00:00	8	Radiación solar	0
183849	7	Sololá	716	San Marcos la Laguna 	11	San Marcos la laguna 	3	Marzo	2023-03-22T00:00:00	2024-11-08T23:00:00	2	Temperatura media	19
183850	7	Sololá	716	San Marcos la Laguna 	11	San Marcos la laguna 	3	Marzo	2023-03-22T00:00:00	2024-11-08T23:00:00	4	Temperatura máxima	20.3
183851	7	Sololá	716	San Marcos la Laguna 	11	San Marcos la laguna 	3	Marzo	2023-03-22T00:00:00	2024-11-08T23:00:00	3	Temperatura mínima	18.2
183852	7	Sololá	716	San Marcos la Laguna 	11	San Marcos la laguna 	3	Marzo	2023-03-22T00:00:00	2024-11-08T23:00:00	5	Humedad	66
183853	7	Sololá	716	San Marcos la Laguna 	11	San Marcos la laguna 	3	Marzo	2023-03-22T00:00:00	2024-11-08T23:00:00	6	Velocidad del viento	6.4
183854	7	Sololá	716	San Marcos la Laguna 	11	San Marcos la laguna 	3	Marzo	2023-03-22T00:00:00	2024-11-08T23:00:00	7	Dirección del viento	6.44
183855	7	Sololá	716	San Marcos la Laguna 	11	San Marcos la laguna 	3	Marzo	2023-03-22T00:00:00	2024-11-08T23:00:00	1	Precipitación	0
183856	7	Sololá	716	San Marcos la Laguna 	11	San Marcos la laguna 	3	Marzo	2023-03-22T00:00:00	2024-11-08T23:00:00	8	Radiación solar	0
183857	7	Sololá	716	San Marcos la Laguna 	11	San Marcos la laguna 	3	Marzo	2023-03-23T00:00:00	2024-11-08T00:00:00	2	Temperatura media	17.9
183858	7	Sololá	716	San Marcos la Laguna 	11	San Marcos la laguna 	3	Marzo	2023-03-23T00:00:00	2024-11-08T00:00:00	4	Temperatura máxima	19
183859	7	Sololá	716	San Marcos la Laguna 	11	San Marcos la laguna 	3	Marzo	2023-03-23T00:00:00	2024-11-08T00:00:00	3	Temperatura mínima	17.7
183860	7	Sololá	716	San Marcos la Laguna 	11	San Marcos la laguna 	3	Marzo	2023-03-23T00:00:00	2024-11-08T00:00:00	5	Humedad	68
183861	7	Sololá	716	San Marcos la Laguna 	11	San Marcos la laguna 	3	Marzo	2023-03-23T00:00:00	2024-11-08T00:00:00	6	Velocidad del viento	6.4
183862	7	Sololá	716	San Marcos la Laguna 	11	San Marcos la laguna 	3	Marzo	2023-03-23T00:00:00	2024-11-08T00:00:00	7	Dirección del viento	6.44
183863	7	Sololá	716	San Marcos la Laguna 	11	San Marcos la laguna 	3	Marzo	2023-03-23T00:00:00	2024-11-08T00:00:00	1	Precipitación	0
183864	7	Sololá	716	San Marcos la Laguna 	11	San Marcos la laguna 	3	Marzo	2023-03-23T00:00:00	2024-11-08T00:00:00	8	Radiación solar	0
183865	7	Sololá	716	San Marcos la Laguna 	11	San Marcos la laguna 	3	Marzo	2023-03-23T00:00:00	2024-11-08T01:00:00	2	Temperatura media	16.6
183866	7	Sololá	716	San Marcos la Laguna 	11	San Marcos la laguna 	3	Marzo	2023-03-23T00:00:00	2024-11-08T01:00:00	4	Temperatura máxima	18.1
183867	7	Sololá	716	San Marcos la Laguna 	11	San Marcos la laguna 	3	Marzo	2023-03-23T00:00:00	2024-11-08T01:00:00	3	Temperatura mínima	16.6
183868	7	Sololá	716	San Marcos la Laguna 	11	San Marcos la laguna 	3	Marzo	2023-03-23T00:00:00	2024-11-08T01:00:00	5	Humedad	71
183869	7	Sololá	716	San Marcos la Laguna 	11	San Marcos la laguna 	3	Marzo	2023-03-23T00:00:00	2024-11-08T01:00:00	6	Velocidad del viento	6.4
183870	7	Sololá	716	San Marcos la Laguna 	11	San Marcos la laguna 	3	Marzo	2023-03-23T00:00:00	2024-11-08T01:00:00	7	Dirección del viento	6.44
183871	7	Sololá	716	San Marcos la Laguna 	11	San Marcos la laguna 	3	Marzo	2023-03-23T00:00:00	2024-11-08T01:00:00	1	Precipitación	0
183872	7	Sololá	716	San Marcos la Laguna 	11	San Marcos la laguna 	3	Marzo	2023-03-23T00:00:00	2024-11-08T01:00:00	8	Radiación solar	0
183873	7	Sololá	716	San Marcos la Laguna 	11	San Marcos la laguna 	3	Marzo	2023-03-23T00:00:00	2024-11-08T02:00:00	2	Temperatura media	15.8
183874	7	Sololá	716	San Marcos la Laguna 	11	San Marcos la laguna 	3	Marzo	2023-03-23T00:00:00	2024-11-08T02:00:00	4	Temperatura máxima	17
183875	7	Sololá	716	San Marcos la Laguna 	11	San Marcos la laguna 	3	Marzo	2023-03-23T00:00:00	2024-11-08T02:00:00	3	Temperatura mínima	15.8
183876	7	Sololá	716	San Marcos la Laguna 	11	San Marcos la laguna 	3	Marzo	2023-03-23T00:00:00	2024-11-08T02:00:00	5	Humedad	73
183877	7	Sololá	716	San Marcos la Laguna 	11	San Marcos la laguna 	3	Marzo	2023-03-23T00:00:00	2024-11-08T02:00:00	6	Velocidad del viento	6.4
183878	7	Sololá	716	San Marcos la Laguna 	11	San Marcos la laguna 	3	Marzo	2023-03-23T00:00:00	2024-11-08T02:00:00	7	Dirección del viento	6.44
183879	7	Sololá	716	San Marcos la Laguna 	11	San Marcos la laguna 	3	Marzo	2023-03-23T00:00:00	2024-11-08T02:00:00	1	Precipitación	0
183880	7	Sololá	716	San Marcos la Laguna 	11	San Marcos la laguna 	3	Marzo	2023-03-23T00:00:00	2024-11-08T02:00:00	8	Radiación solar	0
183881	7	Sololá	716	San Marcos la Laguna 	11	San Marcos la laguna 	3	Marzo	2023-03-23T00:00:00	2024-11-08T03:00:00	2	Temperatura media	15.6
183882	7	Sololá	716	San Marcos la Laguna 	11	San Marcos la laguna 	3	Marzo	2023-03-23T00:00:00	2024-11-08T03:00:00	4	Temperatura máxima	15.9
183883	7	Sololá	716	San Marcos la Laguna 	11	San Marcos la laguna 	3	Marzo	2023-03-23T00:00:00	2024-11-08T03:00:00	3	Temperatura mínima	15.6
183884	7	Sololá	716	San Marcos la Laguna 	11	San Marcos la laguna 	3	Marzo	2023-03-23T00:00:00	2024-11-08T03:00:00	5	Humedad	74
183885	7	Sololá	716	San Marcos la Laguna 	11	San Marcos la laguna 	3	Marzo	2023-03-23T00:00:00	2024-11-08T03:00:00	6	Velocidad del viento	8
183886	7	Sololá	716	San Marcos la Laguna 	11	San Marcos la laguna 	3	Marzo	2023-03-23T00:00:00	2024-11-08T03:00:00	7	Dirección del viento	8.05
183887	7	Sololá	716	San Marcos la Laguna 	11	San Marcos la laguna 	3	Marzo	2023-03-23T00:00:00	2024-11-08T03:00:00	1	Precipitación	0
183888	7	Sololá	716	San Marcos la Laguna 	11	San Marcos la laguna 	3	Marzo	2023-03-23T00:00:00	2024-11-08T03:00:00	8	Radiación solar	0
183889	7	Sololá	716	San Marcos la Laguna 	11	San Marcos la laguna 	3	Marzo	2023-03-23T00:00:00	2024-11-08T04:00:00	2	Temperatura media	15.3
183890	7	Sololá	716	San Marcos la Laguna 	11	San Marcos la laguna 	3	Marzo	2023-03-23T00:00:00	2024-11-08T04:00:00	4	Temperatura máxima	15.9
183891	7	Sololá	716	San Marcos la Laguna 	11	San Marcos la laguna 	3	Marzo	2023-03-23T00:00:00	2024-11-08T04:00:00	3	Temperatura mínima	15.3
183892	7	Sololá	716	San Marcos la Laguna 	11	San Marcos la laguna 	3	Marzo	2023-03-23T00:00:00	2024-11-08T04:00:00	5	Humedad	76
183893	7	Sololá	716	San Marcos la Laguna 	11	San Marcos la laguna 	3	Marzo	2023-03-23T00:00:00	2024-11-08T04:00:00	6	Velocidad del viento	8
183894	7	Sololá	716	San Marcos la Laguna 	11	San Marcos la laguna 	3	Marzo	2023-03-23T00:00:00	2024-11-08T04:00:00	7	Dirección del viento	8.05
183895	7	Sololá	716	San Marcos la Laguna 	11	San Marcos la laguna 	3	Marzo	2023-03-23T00:00:00	2024-11-08T04:00:00	1	Precipitación	0
183896	7	Sololá	716	San Marcos la Laguna 	11	San Marcos la laguna 	3	Marzo	2023-03-23T00:00:00	2024-11-08T04:00:00	8	Radiación solar	0
183897	7	Sololá	716	San Marcos la Laguna 	11	San Marcos la laguna 	3	Marzo	2023-03-23T00:00:00	2024-11-08T05:00:00	2	Temperatura media	15
183898	7	Sololá	716	San Marcos la Laguna 	11	San Marcos la laguna 	3	Marzo	2023-03-23T00:00:00	2024-11-08T05:00:00	4	Temperatura máxima	15.9
183899	7	Sololá	716	San Marcos la Laguna 	11	San Marcos la laguna 	3	Marzo	2023-03-23T00:00:00	2024-11-08T05:00:00	3	Temperatura mínima	14.9
183900	7	Sololá	716	San Marcos la Laguna 	11	San Marcos la laguna 	3	Marzo	2023-03-23T00:00:00	2024-11-08T05:00:00	5	Humedad	78
183901	7	Sololá	716	San Marcos la Laguna 	11	San Marcos la laguna 	3	Marzo	2023-03-23T00:00:00	2024-11-08T05:00:00	6	Velocidad del viento	8
183902	7	Sololá	716	San Marcos la Laguna 	11	San Marcos la laguna 	3	Marzo	2023-03-23T00:00:00	2024-11-08T05:00:00	7	Dirección del viento	8.05
183903	7	Sololá	716	San Marcos la Laguna 	11	San Marcos la laguna 	3	Marzo	2023-03-23T00:00:00	2024-11-08T05:00:00	1	Precipitación	0
183904	7	Sololá	716	San Marcos la Laguna 	11	San Marcos la laguna 	3	Marzo	2023-03-23T00:00:00	2024-11-08T05:00:00	8	Radiación solar	0
183905	7	Sololá	716	San Marcos la Laguna 	11	San Marcos la laguna 	3	Marzo	2023-03-23T00:00:00	2024-11-08T06:00:00	2	Temperatura media	14.7
183906	7	Sololá	716	San Marcos la Laguna 	11	San Marcos la laguna 	3	Marzo	2023-03-23T00:00:00	2024-11-08T06:00:00	4	Temperatura máxima	15.1
183907	7	Sololá	716	San Marcos la Laguna 	11	San Marcos la laguna 	3	Marzo	2023-03-23T00:00:00	2024-11-08T06:00:00	3	Temperatura mínima	14.7
183908	7	Sololá	716	San Marcos la Laguna 	11	San Marcos la laguna 	3	Marzo	2023-03-23T00:00:00	2024-11-08T06:00:00	5	Humedad	78
183909	7	Sololá	716	San Marcos la Laguna 	11	San Marcos la laguna 	3	Marzo	2023-03-23T00:00:00	2024-11-08T06:00:00	6	Velocidad del viento	6.4
183910	7	Sololá	716	San Marcos la Laguna 	11	San Marcos la laguna 	3	Marzo	2023-03-23T00:00:00	2024-11-08T06:00:00	7	Dirección del viento	6.44
183911	7	Sololá	716	San Marcos la Laguna 	11	San Marcos la laguna 	3	Marzo	2023-03-23T00:00:00	2024-11-08T06:00:00	1	Precipitación	0
183912	7	Sololá	716	San Marcos la Laguna 	11	San Marcos la laguna 	3	Marzo	2023-03-23T00:00:00	2024-11-08T06:00:00	8	Radiación solar	0
183913	7	Sololá	716	San Marcos la Laguna 	11	San Marcos la laguna 	3	Marzo	2023-03-23T00:00:00	2024-11-08T07:00:00	2	Temperatura media	15.5
183914	7	Sololá	716	San Marcos la Laguna 	11	San Marcos la laguna 	3	Marzo	2023-03-23T00:00:00	2024-11-08T07:00:00	4	Temperatura máxima	15.6
183915	7	Sololá	716	San Marcos la Laguna 	11	San Marcos la laguna 	3	Marzo	2023-03-23T00:00:00	2024-11-08T07:00:00	3	Temperatura mínima	14.6
183916	7	Sololá	716	San Marcos la Laguna 	11	San Marcos la laguna 	3	Marzo	2023-03-23T00:00:00	2024-11-08T07:00:00	5	Humedad	77
183917	7	Sololá	716	San Marcos la Laguna 	11	San Marcos la laguna 	3	Marzo	2023-03-23T00:00:00	2024-11-08T07:00:00	6	Velocidad del viento	4.8
183918	7	Sololá	716	San Marcos la Laguna 	11	San Marcos la laguna 	3	Marzo	2023-03-23T00:00:00	2024-11-08T07:00:00	7	Dirección del viento	4.83
183919	7	Sololá	716	San Marcos la Laguna 	11	San Marcos la laguna 	3	Marzo	2023-03-23T00:00:00	2024-11-08T07:00:00	1	Precipitación	0
183920	7	Sololá	716	San Marcos la Laguna 	11	San Marcos la laguna 	3	Marzo	2023-03-23T00:00:00	2024-11-08T07:00:00	8	Radiación solar	28
183921	7	Sololá	716	San Marcos la Laguna 	11	San Marcos la laguna 	3	Marzo	2023-03-23T00:00:00	2024-11-08T08:00:00	2	Temperatura media	19.9
183922	7	Sololá	716	San Marcos la Laguna 	11	San Marcos la laguna 	3	Marzo	2023-03-23T00:00:00	2024-11-08T08:00:00	4	Temperatura máxima	19.9
183923	7	Sololá	716	San Marcos la Laguna 	11	San Marcos la laguna 	3	Marzo	2023-03-23T00:00:00	2024-11-08T08:00:00	3	Temperatura mínima	15.5
183924	7	Sololá	716	San Marcos la Laguna 	11	San Marcos la laguna 	3	Marzo	2023-03-23T00:00:00	2024-11-08T08:00:00	5	Humedad	68
183925	7	Sololá	716	San Marcos la Laguna 	11	San Marcos la laguna 	3	Marzo	2023-03-23T00:00:00	2024-11-08T08:00:00	6	Velocidad del viento	3.2
183926	7	Sololá	716	San Marcos la Laguna 	11	San Marcos la laguna 	3	Marzo	2023-03-23T00:00:00	2024-11-08T08:00:00	7	Dirección del viento	3.22
183927	7	Sololá	716	San Marcos la Laguna 	11	San Marcos la laguna 	3	Marzo	2023-03-23T00:00:00	2024-11-08T08:00:00	1	Precipitación	0
183928	7	Sololá	716	San Marcos la Laguna 	11	San Marcos la laguna 	3	Marzo	2023-03-23T00:00:00	2024-11-08T08:00:00	8	Radiación solar	235
183929	7	Sololá	716	San Marcos la Laguna 	11	San Marcos la laguna 	3	Marzo	2023-03-23T00:00:00	2024-11-08T09:00:00	2	Temperatura media	22.3
183930	7	Sololá	716	San Marcos la Laguna 	11	San Marcos la laguna 	3	Marzo	2023-03-23T00:00:00	2024-11-08T09:00:00	4	Temperatura máxima	22.3
183931	7	Sololá	716	San Marcos la Laguna 	11	San Marcos la laguna 	3	Marzo	2023-03-23T00:00:00	2024-11-08T09:00:00	3	Temperatura mínima	19.9
183932	7	Sololá	716	San Marcos la Laguna 	11	San Marcos la laguna 	3	Marzo	2023-03-23T00:00:00	2024-11-08T09:00:00	5	Humedad	60
183933	7	Sololá	716	San Marcos la Laguna 	11	San Marcos la laguna 	3	Marzo	2023-03-23T00:00:00	2024-11-08T09:00:00	6	Velocidad del viento	1.6
183934	7	Sololá	716	San Marcos la Laguna 	11	San Marcos la laguna 	3	Marzo	2023-03-23T00:00:00	2024-11-08T09:00:00	7	Dirección del viento	1.61
183935	7	Sololá	716	San Marcos la Laguna 	11	San Marcos la laguna 	3	Marzo	2023-03-23T00:00:00	2024-11-08T09:00:00	1	Precipitación	0
183936	7	Sololá	716	San Marcos la Laguna 	11	San Marcos la laguna 	3	Marzo	2023-03-23T00:00:00	2024-11-08T09:00:00	8	Radiación solar	465
183937	7	Sololá	716	San Marcos la Laguna 	11	San Marcos la laguna 	3	Marzo	2023-03-23T00:00:00	2024-11-08T10:00:00	2	Temperatura media	22.6
183938	7	Sololá	716	San Marcos la Laguna 	11	San Marcos la laguna 	3	Marzo	2023-03-23T00:00:00	2024-11-08T10:00:00	4	Temperatura máxima	22.6
183939	7	Sololá	716	San Marcos la Laguna 	11	San Marcos la laguna 	3	Marzo	2023-03-23T00:00:00	2024-11-08T10:00:00	3	Temperatura mínima	21.9
183940	7	Sololá	716	San Marcos la Laguna 	11	San Marcos la laguna 	3	Marzo	2023-03-23T00:00:00	2024-11-08T10:00:00	5	Humedad	59
183941	7	Sololá	716	San Marcos la Laguna 	11	San Marcos la laguna 	3	Marzo	2023-03-23T00:00:00	2024-11-08T10:00:00	6	Velocidad del viento	4.8
183942	7	Sololá	716	San Marcos la Laguna 	11	San Marcos la laguna 	3	Marzo	2023-03-23T00:00:00	2024-11-08T10:00:00	7	Dirección del viento	4.83
183943	7	Sololá	716	San Marcos la Laguna 	11	San Marcos la laguna 	3	Marzo	2023-03-23T00:00:00	2024-11-08T10:00:00	1	Precipitación	0
183944	7	Sololá	716	San Marcos la Laguna 	11	San Marcos la laguna 	3	Marzo	2023-03-23T00:00:00	2024-11-08T10:00:00	8	Radiación solar	676
183945	7	Sololá	716	San Marcos la Laguna 	11	San Marcos la laguna 	3	Marzo	2023-03-23T00:00:00	2024-11-08T11:00:00	2	Temperatura media	23.5
183946	7	Sololá	716	San Marcos la Laguna 	11	San Marcos la laguna 	3	Marzo	2023-03-23T00:00:00	2024-11-08T11:00:00	4	Temperatura máxima	23.5
183947	7	Sololá	716	San Marcos la Laguna 	11	San Marcos la laguna 	3	Marzo	2023-03-23T00:00:00	2024-11-08T11:00:00	3	Temperatura mínima	22.6
183948	7	Sololá	716	San Marcos la Laguna 	11	San Marcos la laguna 	3	Marzo	2023-03-23T00:00:00	2024-11-08T11:00:00	5	Humedad	57
183949	7	Sololá	716	San Marcos la Laguna 	11	San Marcos la laguna 	3	Marzo	2023-03-23T00:00:00	2024-11-08T11:00:00	6	Velocidad del viento	8
183950	7	Sololá	716	San Marcos la Laguna 	11	San Marcos la laguna 	3	Marzo	2023-03-23T00:00:00	2024-11-08T11:00:00	7	Dirección del viento	8.05
183951	7	Sololá	716	San Marcos la Laguna 	11	San Marcos la laguna 	3	Marzo	2023-03-23T00:00:00	2024-11-08T11:00:00	1	Precipitación	0
183952	7	Sololá	716	San Marcos la Laguna 	11	San Marcos la laguna 	3	Marzo	2023-03-23T00:00:00	2024-11-08T11:00:00	8	Radiación solar	847
183953	7	Sololá	716	San Marcos la Laguna 	11	San Marcos la laguna 	3	Marzo	2023-03-23T00:00:00	2024-11-08T12:00:00	2	Temperatura media	24.4
183954	7	Sololá	716	San Marcos la Laguna 	11	San Marcos la laguna 	3	Marzo	2023-03-23T00:00:00	2024-11-08T12:00:00	4	Temperatura máxima	25.2
183955	7	Sololá	716	San Marcos la Laguna 	11	San Marcos la laguna 	3	Marzo	2023-03-23T00:00:00	2024-11-08T12:00:00	3	Temperatura mínima	23.4
183956	7	Sololá	716	San Marcos la Laguna 	11	San Marcos la laguna 	3	Marzo	2023-03-23T00:00:00	2024-11-08T12:00:00	5	Humedad	47
183957	7	Sololá	716	San Marcos la Laguna 	11	San Marcos la laguna 	3	Marzo	2023-03-23T00:00:00	2024-11-08T12:00:00	6	Velocidad del viento	9.7
183958	7	Sololá	716	San Marcos la Laguna 	11	San Marcos la laguna 	3	Marzo	2023-03-23T00:00:00	2024-11-08T12:00:00	7	Dirección del viento	9.66
183959	7	Sololá	716	San Marcos la Laguna 	11	San Marcos la laguna 	3	Marzo	2023-03-23T00:00:00	2024-11-08T12:00:00	1	Precipitación	0
183960	7	Sololá	716	San Marcos la Laguna 	11	San Marcos la laguna 	3	Marzo	2023-03-23T00:00:00	2024-11-08T12:00:00	8	Radiación solar	1006
183961	7	Sololá	716	San Marcos la Laguna 	11	San Marcos la laguna 	3	Marzo	2023-03-23T00:00:00	2024-11-08T13:00:00	2	Temperatura media	24.2
183962	7	Sololá	716	San Marcos la Laguna 	11	San Marcos la laguna 	3	Marzo	2023-03-23T00:00:00	2024-11-08T13:00:00	4	Temperatura máxima	25.1
183963	7	Sololá	716	San Marcos la Laguna 	11	San Marcos la laguna 	3	Marzo	2023-03-23T00:00:00	2024-11-08T13:00:00	3	Temperatura mínima	24.2
183964	7	Sololá	716	San Marcos la Laguna 	11	San Marcos la laguna 	3	Marzo	2023-03-23T00:00:00	2024-11-08T13:00:00	5	Humedad	58
183965	7	Sololá	716	San Marcos la Laguna 	11	San Marcos la laguna 	3	Marzo	2023-03-23T00:00:00	2024-11-08T13:00:00	6	Velocidad del viento	9.7
183966	7	Sololá	716	San Marcos la Laguna 	11	San Marcos la laguna 	3	Marzo	2023-03-23T00:00:00	2024-11-08T13:00:00	7	Dirección del viento	9.66
183967	7	Sololá	716	San Marcos la Laguna 	11	San Marcos la laguna 	3	Marzo	2023-03-23T00:00:00	2024-11-08T13:00:00	1	Precipitación	0
183968	7	Sololá	716	San Marcos la Laguna 	11	San Marcos la laguna 	3	Marzo	2023-03-23T00:00:00	2024-11-08T13:00:00	8	Radiación solar	546
183969	7	Sololá	716	San Marcos la Laguna 	11	San Marcos la laguna 	3	Marzo	2023-03-23T00:00:00	2024-11-08T14:00:00	2	Temperatura media	23.9
183970	7	Sololá	716	San Marcos la Laguna 	11	San Marcos la laguna 	3	Marzo	2023-03-23T00:00:00	2024-11-08T14:00:00	4	Temperatura máxima	24.7
183971	7	Sololá	716	San Marcos la Laguna 	11	San Marcos la laguna 	3	Marzo	2023-03-23T00:00:00	2024-11-08T14:00:00	3	Temperatura mínima	23.3
183972	7	Sololá	716	San Marcos la Laguna 	11	San Marcos la laguna 	3	Marzo	2023-03-23T00:00:00	2024-11-08T14:00:00	5	Humedad	64
183973	7	Sololá	716	San Marcos la Laguna 	11	San Marcos la laguna 	3	Marzo	2023-03-23T00:00:00	2024-11-08T14:00:00	6	Velocidad del viento	8
183974	7	Sololá	716	San Marcos la Laguna 	11	San Marcos la laguna 	3	Marzo	2023-03-23T00:00:00	2024-11-08T14:00:00	7	Dirección del viento	8.05
183975	7	Sololá	716	San Marcos la Laguna 	11	San Marcos la laguna 	3	Marzo	2023-03-23T00:00:00	2024-11-08T14:00:00	1	Precipitación	0
183976	7	Sololá	716	San Marcos la Laguna 	11	San Marcos la laguna 	3	Marzo	2023-03-23T00:00:00	2024-11-08T14:00:00	8	Radiación solar	751
183977	7	Sololá	716	San Marcos la Laguna 	11	San Marcos la laguna 	3	Marzo	2023-03-23T00:00:00	2024-11-08T15:00:00	2	Temperatura media	23.2
183978	7	Sololá	716	San Marcos la Laguna 	11	San Marcos la laguna 	3	Marzo	2023-03-23T00:00:00	2024-11-08T15:00:00	4	Temperatura máxima	24.1
183979	7	Sololá	716	San Marcos la Laguna 	11	San Marcos la laguna 	3	Marzo	2023-03-23T00:00:00	2024-11-08T15:00:00	3	Temperatura mínima	22.9
183980	7	Sololá	716	San Marcos la Laguna 	11	San Marcos la laguna 	3	Marzo	2023-03-23T00:00:00	2024-11-08T15:00:00	5	Humedad	70
183981	7	Sololá	716	San Marcos la Laguna 	11	San Marcos la laguna 	3	Marzo	2023-03-23T00:00:00	2024-11-08T15:00:00	6	Velocidad del viento	8
183982	7	Sololá	716	San Marcos la Laguna 	11	San Marcos la laguna 	3	Marzo	2023-03-23T00:00:00	2024-11-08T15:00:00	7	Dirección del viento	8.05
183983	7	Sololá	716	San Marcos la Laguna 	11	San Marcos la laguna 	3	Marzo	2023-03-23T00:00:00	2024-11-08T15:00:00	1	Precipitación	0
183984	7	Sololá	716	San Marcos la Laguna 	11	San Marcos la laguna 	3	Marzo	2023-03-23T00:00:00	2024-11-08T15:00:00	8	Radiación solar	543
183985	7	Sololá	716	San Marcos la Laguna 	11	San Marcos la laguna 	3	Marzo	2023-03-23T00:00:00	2024-11-08T16:00:00	2	Temperatura media	22.8
183986	7	Sololá	716	San Marcos la Laguna 	11	San Marcos la laguna 	3	Marzo	2023-03-23T00:00:00	2024-11-08T16:00:00	4	Temperatura máxima	24
183987	7	Sololá	716	San Marcos la Laguna 	11	San Marcos la laguna 	3	Marzo	2023-03-23T00:00:00	2024-11-08T16:00:00	3	Temperatura mínima	22.8
183988	7	Sololá	716	San Marcos la Laguna 	11	San Marcos la laguna 	3	Marzo	2023-03-23T00:00:00	2024-11-08T16:00:00	5	Humedad	72
183989	7	Sololá	716	San Marcos la Laguna 	11	San Marcos la laguna 	3	Marzo	2023-03-23T00:00:00	2024-11-08T16:00:00	6	Velocidad del viento	8
183990	7	Sololá	716	San Marcos la Laguna 	11	San Marcos la laguna 	3	Marzo	2023-03-23T00:00:00	2024-11-08T16:00:00	7	Dirección del viento	8.05
183991	7	Sololá	716	San Marcos la Laguna 	11	San Marcos la laguna 	3	Marzo	2023-03-23T00:00:00	2024-11-08T16:00:00	1	Precipitación	0
183992	7	Sololá	716	San Marcos la Laguna 	11	San Marcos la laguna 	3	Marzo	2023-03-23T00:00:00	2024-11-08T16:00:00	8	Radiación solar	482
183993	7	Sololá	716	San Marcos la Laguna 	11	San Marcos la laguna 	3	Marzo	2023-03-23T00:00:00	2024-11-08T17:00:00	2	Temperatura media	21.9
183994	7	Sololá	716	San Marcos la Laguna 	11	San Marcos la laguna 	3	Marzo	2023-03-23T00:00:00	2024-11-08T17:00:00	4	Temperatura máxima	23.3
183995	7	Sololá	716	San Marcos la Laguna 	11	San Marcos la laguna 	3	Marzo	2023-03-23T00:00:00	2024-11-08T17:00:00	3	Temperatura mínima	21.9
183996	7	Sololá	716	San Marcos la Laguna 	11	San Marcos la laguna 	3	Marzo	2023-03-23T00:00:00	2024-11-08T17:00:00	5	Humedad	76
183997	7	Sololá	716	San Marcos la Laguna 	11	San Marcos la laguna 	3	Marzo	2023-03-23T00:00:00	2024-11-08T17:00:00	6	Velocidad del viento	8
183998	7	Sololá	716	San Marcos la Laguna 	11	San Marcos la laguna 	3	Marzo	2023-03-23T00:00:00	2024-11-08T17:00:00	7	Dirección del viento	8.05
183999	7	Sololá	716	San Marcos la Laguna 	11	San Marcos la laguna 	3	Marzo	2023-03-23T00:00:00	2024-11-08T17:00:00	1	Precipitación	0
184000	7	Sololá	716	San Marcos la Laguna 	11	San Marcos la laguna 	3	Marzo	2023-03-23T00:00:00	2024-11-08T17:00:00	8	Radiación solar	221
184001	7	Sololá	716	San Marcos la Laguna 	11	San Marcos la laguna 	3	Marzo	2023-03-23T00:00:00	2024-11-08T18:00:00	2	Temperatura media	21.2
184002	7	Sololá	716	San Marcos la Laguna 	11	San Marcos la laguna 	3	Marzo	2023-03-23T00:00:00	2024-11-08T18:00:00	4	Temperatura máxima	22.1
184003	7	Sololá	716	San Marcos la Laguna 	11	San Marcos la laguna 	3	Marzo	2023-03-23T00:00:00	2024-11-08T18:00:00	3	Temperatura mínima	21.2
184004	7	Sololá	716	San Marcos la Laguna 	11	San Marcos la laguna 	3	Marzo	2023-03-23T00:00:00	2024-11-08T18:00:00	5	Humedad	79
184005	7	Sololá	716	San Marcos la Laguna 	11	San Marcos la laguna 	3	Marzo	2023-03-23T00:00:00	2024-11-08T18:00:00	6	Velocidad del viento	6.4
184006	7	Sololá	716	San Marcos la Laguna 	11	San Marcos la laguna 	3	Marzo	2023-03-23T00:00:00	2024-11-08T18:00:00	7	Dirección del viento	6.44
184007	7	Sololá	716	San Marcos la Laguna 	11	San Marcos la laguna 	3	Marzo	2023-03-23T00:00:00	2024-11-08T18:00:00	1	Precipitación	0
184008	7	Sololá	716	San Marcos la Laguna 	11	San Marcos la laguna 	3	Marzo	2023-03-23T00:00:00	2024-11-08T18:00:00	8	Radiación solar	47
184009	7	Sololá	716	San Marcos la Laguna 	11	San Marcos la laguna 	3	Marzo	2023-03-23T00:00:00	2024-11-08T19:00:00	2	Temperatura media	20.7
184010	7	Sololá	716	San Marcos la Laguna 	11	San Marcos la laguna 	3	Marzo	2023-03-23T00:00:00	2024-11-08T19:00:00	4	Temperatura máxima	21.2
184011	7	Sololá	716	San Marcos la Laguna 	11	San Marcos la laguna 	3	Marzo	2023-03-23T00:00:00	2024-11-08T19:00:00	3	Temperatura mínima	20.7
184012	7	Sololá	716	San Marcos la Laguna 	11	San Marcos la laguna 	3	Marzo	2023-03-23T00:00:00	2024-11-08T19:00:00	5	Humedad	81
184013	7	Sololá	716	San Marcos la Laguna 	11	San Marcos la laguna 	3	Marzo	2023-03-23T00:00:00	2024-11-08T19:00:00	6	Velocidad del viento	8
184014	7	Sololá	716	San Marcos la Laguna 	11	San Marcos la laguna 	3	Marzo	2023-03-23T00:00:00	2024-11-08T19:00:00	7	Dirección del viento	8.05
184015	7	Sololá	716	San Marcos la Laguna 	11	San Marcos la laguna 	3	Marzo	2023-03-23T00:00:00	2024-11-08T19:00:00	1	Precipitación	0
184016	7	Sololá	716	San Marcos la Laguna 	11	San Marcos la laguna 	3	Marzo	2023-03-23T00:00:00	2024-11-08T19:00:00	8	Radiación solar	0
184017	7	Sololá	716	San Marcos la Laguna 	11	San Marcos la laguna 	3	Marzo	2023-03-23T00:00:00	2024-11-08T20:00:00	2	Temperatura media	20.4
184018	7	Sololá	716	San Marcos la Laguna 	11	San Marcos la laguna 	3	Marzo	2023-03-23T00:00:00	2024-11-08T20:00:00	4	Temperatura máxima	21
184019	7	Sololá	716	San Marcos la Laguna 	11	San Marcos la laguna 	3	Marzo	2023-03-23T00:00:00	2024-11-08T20:00:00	3	Temperatura mínima	20.1
184020	7	Sololá	716	San Marcos la Laguna 	11	San Marcos la laguna 	3	Marzo	2023-03-23T00:00:00	2024-11-08T20:00:00	5	Humedad	69
184021	7	Sololá	716	San Marcos la Laguna 	11	San Marcos la laguna 	3	Marzo	2023-03-23T00:00:00	2024-11-08T20:00:00	6	Velocidad del viento	3.2
184022	7	Sololá	716	San Marcos la Laguna 	11	San Marcos la laguna 	3	Marzo	2023-03-23T00:00:00	2024-11-08T20:00:00	7	Dirección del viento	3.22
184023	7	Sololá	716	San Marcos la Laguna 	11	San Marcos la laguna 	3	Marzo	2023-03-23T00:00:00	2024-11-08T20:00:00	1	Precipitación	0
184024	7	Sololá	716	San Marcos la Laguna 	11	San Marcos la laguna 	3	Marzo	2023-03-23T00:00:00	2024-11-08T20:00:00	8	Radiación solar	0
184025	7	Sololá	716	San Marcos la Laguna 	11	San Marcos la laguna 	3	Marzo	2023-03-23T00:00:00	2024-11-08T21:00:00	2	Temperatura media	20.3
184026	7	Sololá	716	San Marcos la Laguna 	11	San Marcos la laguna 	3	Marzo	2023-03-23T00:00:00	2024-11-08T21:00:00	4	Temperatura máxima	21.1
184027	7	Sololá	716	San Marcos la Laguna 	11	San Marcos la laguna 	3	Marzo	2023-03-23T00:00:00	2024-11-08T21:00:00	3	Temperatura mínima	20.3
184028	7	Sololá	716	San Marcos la Laguna 	11	San Marcos la laguna 	3	Marzo	2023-03-23T00:00:00	2024-11-08T21:00:00	5	Humedad	66
184029	7	Sololá	716	San Marcos la Laguna 	11	San Marcos la laguna 	3	Marzo	2023-03-23T00:00:00	2024-11-08T21:00:00	6	Velocidad del viento	4.8
184030	7	Sololá	716	San Marcos la Laguna 	11	San Marcos la laguna 	3	Marzo	2023-03-23T00:00:00	2024-11-08T21:00:00	7	Dirección del viento	4.83
184031	7	Sololá	716	San Marcos la Laguna 	11	San Marcos la laguna 	3	Marzo	2023-03-23T00:00:00	2024-11-08T21:00:00	1	Precipitación	0
184032	7	Sololá	716	San Marcos la Laguna 	11	San Marcos la laguna 	3	Marzo	2023-03-23T00:00:00	2024-11-08T21:00:00	8	Radiación solar	0
184033	7	Sololá	716	San Marcos la Laguna 	11	San Marcos la laguna 	3	Marzo	2023-03-23T00:00:00	2024-11-08T22:00:00	2	Temperatura media	18.4
184034	7	Sololá	716	San Marcos la Laguna 	11	San Marcos la laguna 	3	Marzo	2023-03-23T00:00:00	2024-11-08T22:00:00	4	Temperatura máxima	20.3
184035	7	Sololá	716	San Marcos la Laguna 	11	San Marcos la laguna 	3	Marzo	2023-03-23T00:00:00	2024-11-08T22:00:00	3	Temperatura mínima	18.4
184036	7	Sololá	716	San Marcos la Laguna 	11	San Marcos la laguna 	3	Marzo	2023-03-23T00:00:00	2024-11-08T22:00:00	5	Humedad	70
184037	7	Sololá	716	San Marcos la Laguna 	11	San Marcos la laguna 	3	Marzo	2023-03-23T00:00:00	2024-11-08T22:00:00	6	Velocidad del viento	4.8
184038	7	Sololá	716	San Marcos la Laguna 	11	San Marcos la laguna 	3	Marzo	2023-03-23T00:00:00	2024-11-08T22:00:00	7	Dirección del viento	4.83
184039	7	Sololá	716	San Marcos la Laguna 	11	San Marcos la laguna 	3	Marzo	2023-03-23T00:00:00	2024-11-08T22:00:00	1	Precipitación	0
184040	7	Sololá	716	San Marcos la Laguna 	11	San Marcos la laguna 	3	Marzo	2023-03-23T00:00:00	2024-11-08T22:00:00	8	Radiación solar	0
184041	7	Sololá	716	San Marcos la Laguna 	11	San Marcos la laguna 	3	Marzo	2023-03-23T00:00:00	2024-11-08T23:00:00	2	Temperatura media	18.2
184042	7	Sololá	716	San Marcos la Laguna 	11	San Marcos la laguna 	3	Marzo	2023-03-23T00:00:00	2024-11-08T23:00:00	4	Temperatura máxima	18.4
184043	7	Sololá	716	San Marcos la Laguna 	11	San Marcos la laguna 	3	Marzo	2023-03-23T00:00:00	2024-11-08T23:00:00	3	Temperatura mínima	17.8
184044	7	Sololá	716	San Marcos la Laguna 	11	San Marcos la laguna 	3	Marzo	2023-03-23T00:00:00	2024-11-08T23:00:00	5	Humedad	69
184045	7	Sololá	716	San Marcos la Laguna 	11	San Marcos la laguna 	3	Marzo	2023-03-23T00:00:00	2024-11-08T23:00:00	6	Velocidad del viento	4.8
184046	7	Sololá	716	San Marcos la Laguna 	11	San Marcos la laguna 	3	Marzo	2023-03-23T00:00:00	2024-11-08T23:00:00	7	Dirección del viento	4.83
184047	7	Sololá	716	San Marcos la Laguna 	11	San Marcos la laguna 	3	Marzo	2023-03-23T00:00:00	2024-11-08T23:00:00	1	Precipitación	0
184048	7	Sololá	716	San Marcos la Laguna 	11	San Marcos la laguna 	3	Marzo	2023-03-23T00:00:00	2024-11-08T23:00:00	8	Radiación solar	0
184049	7	Sololá	716	San Marcos la Laguna 	11	San Marcos la laguna 	3	Marzo	2023-03-24T00:00:00	2024-11-08T00:00:00	2	Temperatura media	17.4
184050	7	Sololá	716	San Marcos la Laguna 	11	San Marcos la laguna 	3	Marzo	2023-03-24T00:00:00	2024-11-08T00:00:00	4	Temperatura máxima	18.2
184051	7	Sololá	716	San Marcos la Laguna 	11	San Marcos la laguna 	3	Marzo	2023-03-24T00:00:00	2024-11-08T00:00:00	3	Temperatura mínima	17.1
184052	7	Sololá	716	San Marcos la Laguna 	11	San Marcos la laguna 	3	Marzo	2023-03-24T00:00:00	2024-11-08T00:00:00	5	Humedad	70
184053	7	Sololá	716	San Marcos la Laguna 	11	San Marcos la laguna 	3	Marzo	2023-03-24T00:00:00	2024-11-08T00:00:00	6	Velocidad del viento	6.4
184054	7	Sololá	716	San Marcos la Laguna 	11	San Marcos la laguna 	3	Marzo	2023-03-24T00:00:00	2024-11-08T00:00:00	7	Dirección del viento	6.44
184055	7	Sololá	716	San Marcos la Laguna 	11	San Marcos la laguna 	3	Marzo	2023-03-24T00:00:00	2024-11-08T00:00:00	1	Precipitación	0
184056	7	Sololá	716	San Marcos la Laguna 	11	San Marcos la laguna 	3	Marzo	2023-03-24T00:00:00	2024-11-08T00:00:00	8	Radiación solar	0
184057	7	Sololá	716	San Marcos la Laguna 	11	San Marcos la laguna 	3	Marzo	2023-03-24T00:00:00	2024-11-08T01:00:00	2	Temperatura media	16.7
184058	7	Sololá	716	San Marcos la Laguna 	11	San Marcos la laguna 	3	Marzo	2023-03-24T00:00:00	2024-11-08T01:00:00	4	Temperatura máxima	17.4
184059	7	Sololá	716	San Marcos la Laguna 	11	San Marcos la laguna 	3	Marzo	2023-03-24T00:00:00	2024-11-08T01:00:00	3	Temperatura mínima	16.6
184060	7	Sololá	716	San Marcos la Laguna 	11	San Marcos la laguna 	3	Marzo	2023-03-24T00:00:00	2024-11-08T01:00:00	5	Humedad	68
184061	7	Sololá	716	San Marcos la Laguna 	11	San Marcos la laguna 	3	Marzo	2023-03-24T00:00:00	2024-11-08T01:00:00	6	Velocidad del viento	8
184062	7	Sololá	716	San Marcos la Laguna 	11	San Marcos la laguna 	3	Marzo	2023-03-24T00:00:00	2024-11-08T01:00:00	7	Dirección del viento	8.05
184063	7	Sololá	716	San Marcos la Laguna 	11	San Marcos la laguna 	3	Marzo	2023-03-24T00:00:00	2024-11-08T01:00:00	1	Precipitación	0
184064	7	Sololá	716	San Marcos la Laguna 	11	San Marcos la laguna 	3	Marzo	2023-03-24T00:00:00	2024-11-08T01:00:00	8	Radiación solar	0
184065	7	Sololá	716	San Marcos la Laguna 	11	San Marcos la laguna 	3	Marzo	2023-03-24T00:00:00	2024-11-08T02:00:00	2	Temperatura media	15.8
184066	7	Sololá	716	San Marcos la Laguna 	11	San Marcos la laguna 	3	Marzo	2023-03-24T00:00:00	2024-11-08T02:00:00	4	Temperatura máxima	17.2
184067	7	Sololá	716	San Marcos la Laguna 	11	San Marcos la laguna 	3	Marzo	2023-03-24T00:00:00	2024-11-08T02:00:00	3	Temperatura mínima	15.7
184068	7	Sololá	716	San Marcos la Laguna 	11	San Marcos la laguna 	3	Marzo	2023-03-24T00:00:00	2024-11-08T02:00:00	5	Humedad	71
184069	7	Sololá	716	San Marcos la Laguna 	11	San Marcos la laguna 	3	Marzo	2023-03-24T00:00:00	2024-11-08T02:00:00	6	Velocidad del viento	8
184070	7	Sololá	716	San Marcos la Laguna 	11	San Marcos la laguna 	3	Marzo	2023-03-24T00:00:00	2024-11-08T02:00:00	7	Dirección del viento	8.05
184071	7	Sololá	716	San Marcos la Laguna 	11	San Marcos la laguna 	3	Marzo	2023-03-24T00:00:00	2024-11-08T02:00:00	1	Precipitación	0
184072	7	Sololá	716	San Marcos la Laguna 	11	San Marcos la laguna 	3	Marzo	2023-03-24T00:00:00	2024-11-08T02:00:00	8	Radiación solar	0
184073	7	Sololá	716	San Marcos la Laguna 	11	San Marcos la laguna 	3	Marzo	2023-03-24T00:00:00	2024-11-08T03:00:00	2	Temperatura media	15.2
184074	7	Sololá	716	San Marcos la Laguna 	11	San Marcos la laguna 	3	Marzo	2023-03-24T00:00:00	2024-11-08T03:00:00	4	Temperatura máxima	16.1
184075	7	Sololá	716	San Marcos la Laguna 	11	San Marcos la laguna 	3	Marzo	2023-03-24T00:00:00	2024-11-08T03:00:00	3	Temperatura mínima	15.1
184076	7	Sololá	716	San Marcos la Laguna 	11	San Marcos la laguna 	3	Marzo	2023-03-24T00:00:00	2024-11-08T03:00:00	5	Humedad	74
184077	7	Sololá	716	San Marcos la Laguna 	11	San Marcos la laguna 	3	Marzo	2023-03-24T00:00:00	2024-11-08T03:00:00	6	Velocidad del viento	8
184078	7	Sololá	716	San Marcos la Laguna 	11	San Marcos la laguna 	3	Marzo	2023-03-24T00:00:00	2024-11-08T03:00:00	7	Dirección del viento	8.05
184079	7	Sololá	716	San Marcos la Laguna 	11	San Marcos la laguna 	3	Marzo	2023-03-24T00:00:00	2024-11-08T03:00:00	1	Precipitación	0
184080	7	Sololá	716	San Marcos la Laguna 	11	San Marcos la laguna 	3	Marzo	2023-03-24T00:00:00	2024-11-08T03:00:00	8	Radiación solar	0
184081	7	Sololá	716	San Marcos la Laguna 	11	San Marcos la laguna 	3	Marzo	2023-03-24T00:00:00	2024-11-08T04:00:00	2	Temperatura media	14.6
184082	7	Sololá	716	San Marcos la Laguna 	11	San Marcos la laguna 	3	Marzo	2023-03-24T00:00:00	2024-11-08T04:00:00	4	Temperatura máxima	15.1
184083	7	Sololá	716	San Marcos la Laguna 	11	San Marcos la laguna 	3	Marzo	2023-03-24T00:00:00	2024-11-08T04:00:00	3	Temperatura mínima	14.6
184084	7	Sololá	716	San Marcos la Laguna 	11	San Marcos la laguna 	3	Marzo	2023-03-24T00:00:00	2024-11-08T04:00:00	5	Humedad	76
184085	7	Sololá	716	San Marcos la Laguna 	11	San Marcos la laguna 	3	Marzo	2023-03-24T00:00:00	2024-11-08T04:00:00	6	Velocidad del viento	8
184086	7	Sololá	716	San Marcos la Laguna 	11	San Marcos la laguna 	3	Marzo	2023-03-24T00:00:00	2024-11-08T04:00:00	7	Dirección del viento	8.05
184087	7	Sololá	716	San Marcos la Laguna 	11	San Marcos la laguna 	3	Marzo	2023-03-24T00:00:00	2024-11-08T04:00:00	1	Precipitación	0
184088	7	Sololá	716	San Marcos la Laguna 	11	San Marcos la laguna 	3	Marzo	2023-03-24T00:00:00	2024-11-08T04:00:00	8	Radiación solar	0
184089	7	Sololá	716	San Marcos la Laguna 	11	San Marcos la laguna 	3	Marzo	2023-03-24T00:00:00	2024-11-08T05:00:00	2	Temperatura media	14.4
184090	7	Sololá	716	San Marcos la Laguna 	11	San Marcos la laguna 	3	Marzo	2023-03-24T00:00:00	2024-11-08T05:00:00	4	Temperatura máxima	14.9
184091	7	Sololá	716	San Marcos la Laguna 	11	San Marcos la laguna 	3	Marzo	2023-03-24T00:00:00	2024-11-08T05:00:00	3	Temperatura mínima	14.4
184092	7	Sololá	716	San Marcos la Laguna 	11	San Marcos la laguna 	3	Marzo	2023-03-24T00:00:00	2024-11-08T05:00:00	5	Humedad	77
184093	7	Sololá	716	San Marcos la Laguna 	11	San Marcos la laguna 	3	Marzo	2023-03-24T00:00:00	2024-11-08T05:00:00	6	Velocidad del viento	8
184094	7	Sololá	716	San Marcos la Laguna 	11	San Marcos la laguna 	3	Marzo	2023-03-24T00:00:00	2024-11-08T05:00:00	7	Dirección del viento	8.05
184095	7	Sololá	716	San Marcos la Laguna 	11	San Marcos la laguna 	3	Marzo	2023-03-24T00:00:00	2024-11-08T05:00:00	1	Precipitación	0
184096	7	Sololá	716	San Marcos la Laguna 	11	San Marcos la laguna 	3	Marzo	2023-03-24T00:00:00	2024-11-08T05:00:00	8	Radiación solar	0
184097	7	Sololá	716	San Marcos la Laguna 	11	San Marcos la laguna 	3	Marzo	2023-03-24T00:00:00	2024-11-08T06:00:00	2	Temperatura media	13.8
184098	7	Sololá	716	San Marcos la Laguna 	11	San Marcos la laguna 	3	Marzo	2023-03-24T00:00:00	2024-11-08T06:00:00	4	Temperatura máxima	14.4
184099	7	Sololá	716	San Marcos la Laguna 	11	San Marcos la laguna 	3	Marzo	2023-03-24T00:00:00	2024-11-08T06:00:00	3	Temperatura mínima	13.8
184100	7	Sololá	716	San Marcos la Laguna 	11	San Marcos la laguna 	3	Marzo	2023-03-24T00:00:00	2024-11-08T06:00:00	5	Humedad	79
184101	7	Sololá	716	San Marcos la Laguna 	11	San Marcos la laguna 	3	Marzo	2023-03-24T00:00:00	2024-11-08T06:00:00	6	Velocidad del viento	6.4
184102	7	Sololá	716	San Marcos la Laguna 	11	San Marcos la laguna 	3	Marzo	2023-03-24T00:00:00	2024-11-08T06:00:00	7	Dirección del viento	6.44
184103	7	Sololá	716	San Marcos la Laguna 	11	San Marcos la laguna 	3	Marzo	2023-03-24T00:00:00	2024-11-08T06:00:00	1	Precipitación	0
184104	7	Sololá	716	San Marcos la Laguna 	11	San Marcos la laguna 	3	Marzo	2023-03-24T00:00:00	2024-11-08T06:00:00	8	Radiación solar	0
184105	7	Sololá	716	San Marcos la Laguna 	11	San Marcos la laguna 	3	Marzo	2023-03-24T00:00:00	2024-11-08T07:00:00	2	Temperatura media	14.8
184106	7	Sololá	716	San Marcos la Laguna 	11	San Marcos la laguna 	3	Marzo	2023-03-24T00:00:00	2024-11-08T07:00:00	4	Temperatura máxima	14.8
184107	7	Sololá	716	San Marcos la Laguna 	11	San Marcos la laguna 	3	Marzo	2023-03-24T00:00:00	2024-11-08T07:00:00	3	Temperatura mínima	13.7
184108	7	Sololá	716	San Marcos la Laguna 	11	San Marcos la laguna 	3	Marzo	2023-03-24T00:00:00	2024-11-08T07:00:00	5	Humedad	77
184109	7	Sololá	716	San Marcos la Laguna 	11	San Marcos la laguna 	3	Marzo	2023-03-24T00:00:00	2024-11-08T07:00:00	6	Velocidad del viento	6.4
184110	7	Sololá	716	San Marcos la Laguna 	11	San Marcos la laguna 	3	Marzo	2023-03-24T00:00:00	2024-11-08T07:00:00	7	Dirección del viento	6.44
184111	7	Sololá	716	San Marcos la Laguna 	11	San Marcos la laguna 	3	Marzo	2023-03-24T00:00:00	2024-11-08T07:00:00	1	Precipitación	0
184112	7	Sololá	716	San Marcos la Laguna 	11	San Marcos la laguna 	3	Marzo	2023-03-24T00:00:00	2024-11-08T07:00:00	8	Radiación solar	29
184113	7	Sololá	716	San Marcos la Laguna 	11	San Marcos la laguna 	3	Marzo	2023-03-24T00:00:00	2024-11-08T08:00:00	2	Temperatura media	18.9
184114	7	Sololá	716	San Marcos la Laguna 	11	San Marcos la laguna 	3	Marzo	2023-03-24T00:00:00	2024-11-08T08:00:00	4	Temperatura máxima	18.9
184115	7	Sololá	716	San Marcos la Laguna 	11	San Marcos la laguna 	3	Marzo	2023-03-24T00:00:00	2024-11-08T08:00:00	3	Temperatura mínima	14.8
184116	7	Sololá	716	San Marcos la Laguna 	11	San Marcos la laguna 	3	Marzo	2023-03-24T00:00:00	2024-11-08T08:00:00	5	Humedad	70
184117	7	Sololá	716	San Marcos la Laguna 	11	San Marcos la laguna 	3	Marzo	2023-03-24T00:00:00	2024-11-08T08:00:00	6	Velocidad del viento	3.2
184118	7	Sololá	716	San Marcos la Laguna 	11	San Marcos la laguna 	3	Marzo	2023-03-24T00:00:00	2024-11-08T08:00:00	7	Dirección del viento	3.22
184119	7	Sololá	716	San Marcos la Laguna 	11	San Marcos la laguna 	3	Marzo	2023-03-24T00:00:00	2024-11-08T08:00:00	1	Precipitación	0
184120	7	Sololá	716	San Marcos la Laguna 	11	San Marcos la laguna 	3	Marzo	2023-03-24T00:00:00	2024-11-08T08:00:00	8	Radiación solar	237
184121	7	Sololá	716	San Marcos la Laguna 	11	San Marcos la laguna 	3	Marzo	2023-03-24T00:00:00	2024-11-08T09:00:00	2	Temperatura media	20.3
184122	7	Sololá	716	San Marcos la Laguna 	11	San Marcos la laguna 	3	Marzo	2023-03-24T00:00:00	2024-11-08T09:00:00	4	Temperatura máxima	20.4
184123	7	Sololá	716	San Marcos la Laguna 	11	San Marcos la laguna 	3	Marzo	2023-03-24T00:00:00	2024-11-08T09:00:00	3	Temperatura mínima	18.9
184124	7	Sololá	716	San Marcos la Laguna 	11	San Marcos la laguna 	3	Marzo	2023-03-24T00:00:00	2024-11-08T09:00:00	5	Humedad	68
184125	7	Sololá	716	San Marcos la Laguna 	11	San Marcos la laguna 	3	Marzo	2023-03-24T00:00:00	2024-11-08T09:00:00	6	Velocidad del viento	3.2
184126	7	Sololá	716	San Marcos la Laguna 	11	San Marcos la laguna 	3	Marzo	2023-03-24T00:00:00	2024-11-08T09:00:00	7	Dirección del viento	3.22
184127	7	Sololá	716	San Marcos la Laguna 	11	San Marcos la laguna 	3	Marzo	2023-03-24T00:00:00	2024-11-08T09:00:00	1	Precipitación	0
184128	7	Sololá	716	San Marcos la Laguna 	11	San Marcos la laguna 	3	Marzo	2023-03-24T00:00:00	2024-11-08T09:00:00	8	Radiación solar	467
184129	7	Sololá	716	San Marcos la Laguna 	11	San Marcos la laguna 	3	Marzo	2023-03-24T00:00:00	2024-11-08T10:00:00	2	Temperatura media	20.9
184130	7	Sololá	716	San Marcos la Laguna 	11	San Marcos la laguna 	3	Marzo	2023-03-24T00:00:00	2024-11-08T10:00:00	4	Temperatura máxima	20.9
184131	7	Sololá	716	San Marcos la Laguna 	11	San Marcos la laguna 	3	Marzo	2023-03-24T00:00:00	2024-11-08T10:00:00	3	Temperatura mínima	19.9
184132	7	Sololá	716	San Marcos la Laguna 	11	San Marcos la laguna 	3	Marzo	2023-03-24T00:00:00	2024-11-08T10:00:00	5	Humedad	63
184133	7	Sololá	716	San Marcos la Laguna 	11	San Marcos la laguna 	3	Marzo	2023-03-24T00:00:00	2024-11-08T10:00:00	6	Velocidad del viento	6.4
184134	7	Sololá	716	San Marcos la Laguna 	11	San Marcos la laguna 	3	Marzo	2023-03-24T00:00:00	2024-11-08T10:00:00	7	Dirección del viento	6.44
184135	7	Sololá	716	San Marcos la Laguna 	11	San Marcos la laguna 	3	Marzo	2023-03-24T00:00:00	2024-11-08T10:00:00	1	Precipitación	0
184136	7	Sololá	716	San Marcos la Laguna 	11	San Marcos la laguna 	3	Marzo	2023-03-24T00:00:00	2024-11-08T10:00:00	8	Radiación solar	666
184137	7	Sololá	716	San Marcos la Laguna 	11	San Marcos la laguna 	3	Marzo	2023-03-24T00:00:00	2024-11-08T11:00:00	2	Temperatura media	21.8
184138	7	Sololá	716	San Marcos la Laguna 	11	San Marcos la laguna 	3	Marzo	2023-03-24T00:00:00	2024-11-08T11:00:00	4	Temperatura máxima	22.1
184139	7	Sololá	716	San Marcos la Laguna 	11	San Marcos la laguna 	3	Marzo	2023-03-24T00:00:00	2024-11-08T11:00:00	3	Temperatura mínima	20.8
184140	7	Sololá	716	San Marcos la Laguna 	11	San Marcos la laguna 	3	Marzo	2023-03-24T00:00:00	2024-11-08T11:00:00	5	Humedad	59
184141	7	Sololá	716	San Marcos la Laguna 	11	San Marcos la laguna 	3	Marzo	2023-03-24T00:00:00	2024-11-08T11:00:00	6	Velocidad del viento	6.4
184142	7	Sololá	716	San Marcos la Laguna 	11	San Marcos la laguna 	3	Marzo	2023-03-24T00:00:00	2024-11-08T11:00:00	7	Dirección del viento	6.44
184143	7	Sololá	716	San Marcos la Laguna 	11	San Marcos la laguna 	3	Marzo	2023-03-24T00:00:00	2024-11-08T11:00:00	1	Precipitación	0
184144	7	Sololá	716	San Marcos la Laguna 	11	San Marcos la laguna 	3	Marzo	2023-03-24T00:00:00	2024-11-08T11:00:00	8	Radiación solar	815
184145	7	Sololá	716	San Marcos la Laguna 	11	San Marcos la laguna 	3	Marzo	2023-03-24T00:00:00	2024-11-08T12:00:00	2	Temperatura media	22.9
184146	7	Sololá	716	San Marcos la Laguna 	11	San Marcos la laguna 	3	Marzo	2023-03-24T00:00:00	2024-11-08T12:00:00	4	Temperatura máxima	22.9
184147	7	Sololá	716	San Marcos la Laguna 	11	San Marcos la laguna 	3	Marzo	2023-03-24T00:00:00	2024-11-08T12:00:00	3	Temperatura mínima	21.6
184148	7	Sololá	716	San Marcos la Laguna 	11	San Marcos la laguna 	3	Marzo	2023-03-24T00:00:00	2024-11-08T12:00:00	5	Humedad	63
184149	7	Sololá	716	San Marcos la Laguna 	11	San Marcos la laguna 	3	Marzo	2023-03-24T00:00:00	2024-11-08T12:00:00	6	Velocidad del viento	12.9
184150	7	Sololá	716	San Marcos la Laguna 	11	San Marcos la laguna 	3	Marzo	2023-03-24T00:00:00	2024-11-08T12:00:00	7	Dirección del viento	12.87
184151	7	Sololá	716	San Marcos la Laguna 	11	San Marcos la laguna 	3	Marzo	2023-03-24T00:00:00	2024-11-08T12:00:00	1	Precipitación	0
184152	7	Sololá	716	San Marcos la Laguna 	11	San Marcos la laguna 	3	Marzo	2023-03-24T00:00:00	2024-11-08T12:00:00	8	Radiación solar	927
184153	7	Sololá	716	San Marcos la Laguna 	11	San Marcos la laguna 	3	Marzo	2023-03-24T00:00:00	2024-11-08T13:00:00	2	Temperatura media	21.8
184154	7	Sololá	716	San Marcos la Laguna 	11	San Marcos la laguna 	3	Marzo	2023-03-24T00:00:00	2024-11-08T13:00:00	4	Temperatura máxima	23.1
184155	7	Sololá	716	San Marcos la Laguna 	11	San Marcos la laguna 	3	Marzo	2023-03-24T00:00:00	2024-11-08T13:00:00	3	Temperatura mínima	21.7
184156	7	Sololá	716	San Marcos la Laguna 	11	San Marcos la laguna 	3	Marzo	2023-03-24T00:00:00	2024-11-08T13:00:00	5	Humedad	72
184157	7	Sololá	716	San Marcos la Laguna 	11	San Marcos la laguna 	3	Marzo	2023-03-24T00:00:00	2024-11-08T13:00:00	6	Velocidad del viento	12.9
184158	7	Sololá	716	San Marcos la Laguna 	11	San Marcos la laguna 	3	Marzo	2023-03-24T00:00:00	2024-11-08T13:00:00	7	Dirección del viento	12.87
184159	7	Sololá	716	San Marcos la Laguna 	11	San Marcos la laguna 	3	Marzo	2023-03-24T00:00:00	2024-11-08T13:00:00	1	Precipitación	0
184160	7	Sololá	716	San Marcos la Laguna 	11	San Marcos la laguna 	3	Marzo	2023-03-24T00:00:00	2024-11-08T13:00:00	8	Radiación solar	809
184161	7	Sololá	716	San Marcos la Laguna 	11	San Marcos la laguna 	3	Marzo	2023-03-24T00:00:00	2024-11-08T14:00:00	2	Temperatura media	22.6
184162	7	Sololá	716	San Marcos la Laguna 	11	San Marcos la laguna 	3	Marzo	2023-03-24T00:00:00	2024-11-08T14:00:00	4	Temperatura máxima	22.8
184163	7	Sololá	716	San Marcos la Laguna 	11	San Marcos la laguna 	3	Marzo	2023-03-24T00:00:00	2024-11-08T14:00:00	3	Temperatura mínima	21.7
184164	7	Sololá	716	San Marcos la Laguna 	11	San Marcos la laguna 	3	Marzo	2023-03-24T00:00:00	2024-11-08T14:00:00	5	Humedad	66
184165	7	Sololá	716	San Marcos la Laguna 	11	San Marcos la laguna 	3	Marzo	2023-03-24T00:00:00	2024-11-08T14:00:00	6	Velocidad del viento	12.9
184166	7	Sololá	716	San Marcos la Laguna 	11	San Marcos la laguna 	3	Marzo	2023-03-24T00:00:00	2024-11-08T14:00:00	7	Dirección del viento	12.87
184167	7	Sololá	716	San Marcos la Laguna 	11	San Marcos la laguna 	3	Marzo	2023-03-24T00:00:00	2024-11-08T14:00:00	1	Precipitación	0
184168	7	Sololá	716	San Marcos la Laguna 	11	San Marcos la laguna 	3	Marzo	2023-03-24T00:00:00	2024-11-08T14:00:00	8	Radiación solar	838
184169	7	Sololá	716	San Marcos la Laguna 	11	San Marcos la laguna 	3	Marzo	2023-03-24T00:00:00	2024-11-08T15:00:00	2	Temperatura media	22.2
184170	7	Sololá	716	San Marcos la Laguna 	11	San Marcos la laguna 	3	Marzo	2023-03-24T00:00:00	2024-11-08T15:00:00	4	Temperatura máxima	22.7
184171	7	Sololá	716	San Marcos la Laguna 	11	San Marcos la laguna 	3	Marzo	2023-03-24T00:00:00	2024-11-08T15:00:00	3	Temperatura mínima	22
184172	7	Sololá	716	San Marcos la Laguna 	11	San Marcos la laguna 	3	Marzo	2023-03-24T00:00:00	2024-11-08T15:00:00	5	Humedad	69
184173	7	Sololá	716	San Marcos la Laguna 	11	San Marcos la laguna 	3	Marzo	2023-03-24T00:00:00	2024-11-08T15:00:00	6	Velocidad del viento	11.3
184174	7	Sololá	716	San Marcos la Laguna 	11	San Marcos la laguna 	3	Marzo	2023-03-24T00:00:00	2024-11-08T15:00:00	7	Dirección del viento	11.27
184175	7	Sololá	716	San Marcos la Laguna 	11	San Marcos la laguna 	3	Marzo	2023-03-24T00:00:00	2024-11-08T15:00:00	1	Precipitación	0
184176	7	Sololá	716	San Marcos la Laguna 	11	San Marcos la laguna 	3	Marzo	2023-03-24T00:00:00	2024-11-08T15:00:00	8	Radiación solar	443
184177	7	Sololá	716	San Marcos la Laguna 	11	San Marcos la laguna 	3	Marzo	2023-03-24T00:00:00	2024-11-08T16:00:00	2	Temperatura media	21.8
184178	7	Sololá	716	San Marcos la Laguna 	11	San Marcos la laguna 	3	Marzo	2023-03-24T00:00:00	2024-11-08T16:00:00	4	Temperatura máxima	22.8
184179	7	Sololá	716	San Marcos la Laguna 	11	San Marcos la laguna 	3	Marzo	2023-03-24T00:00:00	2024-11-08T16:00:00	3	Temperatura mínima	21.7
184180	7	Sololá	716	San Marcos la Laguna 	11	San Marcos la laguna 	3	Marzo	2023-03-24T00:00:00	2024-11-08T16:00:00	5	Humedad	74
184181	7	Sololá	716	San Marcos la Laguna 	11	San Marcos la laguna 	3	Marzo	2023-03-24T00:00:00	2024-11-08T16:00:00	6	Velocidad del viento	8
184182	7	Sololá	716	San Marcos la Laguna 	11	San Marcos la laguna 	3	Marzo	2023-03-24T00:00:00	2024-11-08T16:00:00	7	Dirección del viento	8.05
184183	7	Sololá	716	San Marcos la Laguna 	11	San Marcos la laguna 	3	Marzo	2023-03-24T00:00:00	2024-11-08T16:00:00	1	Precipitación	0
184184	7	Sololá	716	San Marcos la Laguna 	11	San Marcos la laguna 	3	Marzo	2023-03-24T00:00:00	2024-11-08T16:00:00	8	Radiación solar	234
184185	7	Sololá	716	San Marcos la Laguna 	11	San Marcos la laguna 	3	Marzo	2023-03-24T00:00:00	2024-11-08T17:00:00	2	Temperatura media	20.8
184186	7	Sololá	716	San Marcos la Laguna 	11	San Marcos la laguna 	3	Marzo	2023-03-24T00:00:00	2024-11-08T17:00:00	4	Temperatura máxima	21.9
184187	7	Sololá	716	San Marcos la Laguna 	11	San Marcos la laguna 	3	Marzo	2023-03-24T00:00:00	2024-11-08T17:00:00	3	Temperatura mínima	20.8
184188	7	Sololá	716	San Marcos la Laguna 	11	San Marcos la laguna 	3	Marzo	2023-03-24T00:00:00	2024-11-08T17:00:00	5	Humedad	81
184189	7	Sololá	716	San Marcos la Laguna 	11	San Marcos la laguna 	3	Marzo	2023-03-24T00:00:00	2024-11-08T17:00:00	6	Velocidad del viento	8
184190	7	Sololá	716	San Marcos la Laguna 	11	San Marcos la laguna 	3	Marzo	2023-03-24T00:00:00	2024-11-08T17:00:00	7	Dirección del viento	8.05
184191	7	Sololá	716	San Marcos la Laguna 	11	San Marcos la laguna 	3	Marzo	2023-03-24T00:00:00	2024-11-08T17:00:00	1	Precipitación	0
184192	7	Sololá	716	San Marcos la Laguna 	11	San Marcos la laguna 	3	Marzo	2023-03-24T00:00:00	2024-11-08T17:00:00	8	Radiación solar	105
184193	7	Sololá	716	San Marcos la Laguna 	11	San Marcos la laguna 	3	Marzo	2023-03-24T00:00:00	2024-11-08T18:00:00	2	Temperatura media	20.6
184194	7	Sololá	716	San Marcos la Laguna 	11	San Marcos la laguna 	3	Marzo	2023-03-24T00:00:00	2024-11-08T18:00:00	4	Temperatura máxima	20.9
184195	7	Sololá	716	San Marcos la Laguna 	11	San Marcos la laguna 	3	Marzo	2023-03-24T00:00:00	2024-11-08T18:00:00	3	Temperatura mínima	20.6
184196	7	Sololá	716	San Marcos la Laguna 	11	San Marcos la laguna 	3	Marzo	2023-03-24T00:00:00	2024-11-08T18:00:00	5	Humedad	81
184197	7	Sololá	716	San Marcos la Laguna 	11	San Marcos la laguna 	3	Marzo	2023-03-24T00:00:00	2024-11-08T18:00:00	6	Velocidad del viento	4.8
184198	7	Sololá	716	San Marcos la Laguna 	11	San Marcos la laguna 	3	Marzo	2023-03-24T00:00:00	2024-11-08T18:00:00	7	Dirección del viento	4.83
184199	7	Sololá	716	San Marcos la Laguna 	11	San Marcos la laguna 	3	Marzo	2023-03-24T00:00:00	2024-11-08T18:00:00	1	Precipitación	0
184200	7	Sololá	716	San Marcos la Laguna 	11	San Marcos la laguna 	3	Marzo	2023-03-24T00:00:00	2024-11-08T18:00:00	8	Radiación solar	30
184201	7	Sololá	716	San Marcos la Laguna 	11	San Marcos la laguna 	3	Marzo	2023-03-24T00:00:00	2024-11-08T19:00:00	2	Temperatura media	19.6
184202	7	Sololá	716	San Marcos la Laguna 	11	San Marcos la laguna 	3	Marzo	2023-03-24T00:00:00	2024-11-08T19:00:00	4	Temperatura máxima	20.6
184203	7	Sololá	716	San Marcos la Laguna 	11	San Marcos la laguna 	3	Marzo	2023-03-24T00:00:00	2024-11-08T19:00:00	3	Temperatura mínima	19.6
184204	7	Sololá	716	San Marcos la Laguna 	11	San Marcos la laguna 	3	Marzo	2023-03-24T00:00:00	2024-11-08T19:00:00	5	Humedad	87
184205	7	Sololá	716	San Marcos la Laguna 	11	San Marcos la laguna 	3	Marzo	2023-03-24T00:00:00	2024-11-08T19:00:00	6	Velocidad del viento	8
184206	7	Sololá	716	San Marcos la Laguna 	11	San Marcos la laguna 	3	Marzo	2023-03-24T00:00:00	2024-11-08T19:00:00	7	Dirección del viento	8.05
184207	7	Sololá	716	San Marcos la Laguna 	11	San Marcos la laguna 	3	Marzo	2023-03-24T00:00:00	2024-11-08T19:00:00	1	Precipitación	0
184208	7	Sololá	716	San Marcos la Laguna 	11	San Marcos la laguna 	3	Marzo	2023-03-24T00:00:00	2024-11-08T19:00:00	8	Radiación solar	0
184209	7	Sololá	716	San Marcos la Laguna 	11	San Marcos la laguna 	3	Marzo	2023-03-24T00:00:00	2024-11-08T20:00:00	2	Temperatura media	19.4
184210	7	Sololá	716	San Marcos la Laguna 	11	San Marcos la laguna 	3	Marzo	2023-03-24T00:00:00	2024-11-08T20:00:00	4	Temperatura máxima	19.6
184211	7	Sololá	716	San Marcos la Laguna 	11	San Marcos la laguna 	3	Marzo	2023-03-24T00:00:00	2024-11-08T20:00:00	3	Temperatura mínima	19.3
184212	7	Sololá	716	San Marcos la Laguna 	11	San Marcos la laguna 	3	Marzo	2023-03-24T00:00:00	2024-11-08T20:00:00	5	Humedad	86
184213	7	Sololá	716	San Marcos la Laguna 	11	San Marcos la laguna 	3	Marzo	2023-03-24T00:00:00	2024-11-08T20:00:00	6	Velocidad del viento	4.8
184214	7	Sololá	716	San Marcos la Laguna 	11	San Marcos la laguna 	3	Marzo	2023-03-24T00:00:00	2024-11-08T20:00:00	7	Dirección del viento	4.83
184215	7	Sololá	716	San Marcos la Laguna 	11	San Marcos la laguna 	3	Marzo	2023-03-24T00:00:00	2024-11-08T20:00:00	1	Precipitación	0
184216	7	Sololá	716	San Marcos la Laguna 	11	San Marcos la laguna 	3	Marzo	2023-03-24T00:00:00	2024-11-08T20:00:00	8	Radiación solar	0
184217	7	Sololá	716	San Marcos la Laguna 	11	San Marcos la laguna 	3	Marzo	2023-03-24T00:00:00	2024-11-08T21:00:00	2	Temperatura media	19.4
184218	7	Sololá	716	San Marcos la Laguna 	11	San Marcos la laguna 	3	Marzo	2023-03-24T00:00:00	2024-11-08T21:00:00	4	Temperatura máxima	19.5
184219	7	Sololá	716	San Marcos la Laguna 	11	San Marcos la laguna 	3	Marzo	2023-03-24T00:00:00	2024-11-08T21:00:00	3	Temperatura mínima	19.2
184220	7	Sololá	716	San Marcos la Laguna 	11	San Marcos la laguna 	3	Marzo	2023-03-24T00:00:00	2024-11-08T21:00:00	5	Humedad	85
184221	7	Sololá	716	San Marcos la Laguna 	11	San Marcos la laguna 	3	Marzo	2023-03-24T00:00:00	2024-11-08T21:00:00	6	Velocidad del viento	4.8
184222	7	Sololá	716	San Marcos la Laguna 	11	San Marcos la laguna 	3	Marzo	2023-03-24T00:00:00	2024-11-08T21:00:00	7	Dirección del viento	4.83
184223	7	Sololá	716	San Marcos la Laguna 	11	San Marcos la laguna 	3	Marzo	2023-03-24T00:00:00	2024-11-08T21:00:00	1	Precipitación	0
184224	7	Sololá	716	San Marcos la Laguna 	11	San Marcos la laguna 	3	Marzo	2023-03-24T00:00:00	2024-11-08T21:00:00	8	Radiación solar	0
184225	7	Sololá	716	San Marcos la Laguna 	11	San Marcos la laguna 	3	Marzo	2023-03-24T00:00:00	2024-11-08T22:00:00	2	Temperatura media	19.3
184226	7	Sololá	716	San Marcos la Laguna 	11	San Marcos la laguna 	3	Marzo	2023-03-24T00:00:00	2024-11-08T22:00:00	4	Temperatura máxima	19.4
184227	7	Sololá	716	San Marcos la Laguna 	11	San Marcos la laguna 	3	Marzo	2023-03-24T00:00:00	2024-11-08T22:00:00	3	Temperatura mínima	19.1
184228	7	Sololá	716	San Marcos la Laguna 	11	San Marcos la laguna 	3	Marzo	2023-03-24T00:00:00	2024-11-08T22:00:00	5	Humedad	86
184229	7	Sololá	716	San Marcos la Laguna 	11	San Marcos la laguna 	3	Marzo	2023-03-24T00:00:00	2024-11-08T22:00:00	6	Velocidad del viento	4.8
184230	7	Sololá	716	San Marcos la Laguna 	11	San Marcos la laguna 	3	Marzo	2023-03-24T00:00:00	2024-11-08T22:00:00	7	Dirección del viento	4.83
184231	7	Sololá	716	San Marcos la Laguna 	11	San Marcos la laguna 	3	Marzo	2023-03-24T00:00:00	2024-11-08T22:00:00	1	Precipitación	0
184232	7	Sololá	716	San Marcos la Laguna 	11	San Marcos la laguna 	3	Marzo	2023-03-24T00:00:00	2024-11-08T22:00:00	8	Radiación solar	0
184233	7	Sololá	716	San Marcos la Laguna 	11	San Marcos la laguna 	3	Marzo	2023-03-24T00:00:00	2024-11-08T23:00:00	2	Temperatura media	19.1
184234	7	Sololá	716	San Marcos la Laguna 	11	San Marcos la laguna 	3	Marzo	2023-03-24T00:00:00	2024-11-08T23:00:00	4	Temperatura máxima	19.3
184235	7	Sololá	716	San Marcos la Laguna 	11	San Marcos la laguna 	3	Marzo	2023-03-24T00:00:00	2024-11-08T23:00:00	3	Temperatura mínima	19.1
184236	7	Sololá	716	San Marcos la Laguna 	11	San Marcos la laguna 	3	Marzo	2023-03-24T00:00:00	2024-11-08T23:00:00	5	Humedad	88
184237	7	Sololá	716	San Marcos la Laguna 	11	San Marcos la laguna 	3	Marzo	2023-03-24T00:00:00	2024-11-08T23:00:00	6	Velocidad del viento	3.2
184238	7	Sololá	716	San Marcos la Laguna 	11	San Marcos la laguna 	3	Marzo	2023-03-24T00:00:00	2024-11-08T23:00:00	7	Dirección del viento	3.22
184239	7	Sololá	716	San Marcos la Laguna 	11	San Marcos la laguna 	3	Marzo	2023-03-24T00:00:00	2024-11-08T23:00:00	1	Precipitación	0
184240	7	Sololá	716	San Marcos la Laguna 	11	San Marcos la laguna 	3	Marzo	2023-03-24T00:00:00	2024-11-08T23:00:00	8	Radiación solar	0
184241	7	Sololá	716	San Marcos la Laguna 	11	San Marcos la laguna 	3	Marzo	2023-03-25T00:00:00	2024-11-08T00:00:00	2	Temperatura media	19
184242	7	Sololá	716	San Marcos la Laguna 	11	San Marcos la laguna 	3	Marzo	2023-03-25T00:00:00	2024-11-08T00:00:00	4	Temperatura máxima	19.2
184243	7	Sololá	716	San Marcos la Laguna 	11	San Marcos la laguna 	3	Marzo	2023-03-25T00:00:00	2024-11-08T00:00:00	3	Temperatura mínima	18.9
184244	7	Sololá	716	San Marcos la Laguna 	11	San Marcos la laguna 	3	Marzo	2023-03-25T00:00:00	2024-11-08T00:00:00	5	Humedad	85
184245	7	Sololá	716	San Marcos la Laguna 	11	San Marcos la laguna 	3	Marzo	2023-03-25T00:00:00	2024-11-08T00:00:00	6	Velocidad del viento	3.2
184246	7	Sololá	716	San Marcos la Laguna 	11	San Marcos la laguna 	3	Marzo	2023-03-25T00:00:00	2024-11-08T00:00:00	7	Dirección del viento	3.22
184247	7	Sololá	716	San Marcos la Laguna 	11	San Marcos la laguna 	3	Marzo	2023-03-25T00:00:00	2024-11-08T00:00:00	1	Precipitación	0
184248	7	Sololá	716	San Marcos la Laguna 	11	San Marcos la laguna 	3	Marzo	2023-03-25T00:00:00	2024-11-08T00:00:00	8	Radiación solar	0
184249	7	Sololá	716	San Marcos la Laguna 	11	San Marcos la laguna 	3	Marzo	2023-03-25T00:00:00	2024-11-08T01:00:00	2	Temperatura media	19
184250	7	Sololá	716	San Marcos la Laguna 	11	San Marcos la laguna 	3	Marzo	2023-03-25T00:00:00	2024-11-08T01:00:00	4	Temperatura máxima	19.1
184251	7	Sololá	716	San Marcos la Laguna 	11	San Marcos la laguna 	3	Marzo	2023-03-25T00:00:00	2024-11-08T01:00:00	3	Temperatura mínima	18.9
184252	7	Sololá	716	San Marcos la Laguna 	11	San Marcos la laguna 	3	Marzo	2023-03-25T00:00:00	2024-11-08T01:00:00	5	Humedad	84
184253	7	Sololá	716	San Marcos la Laguna 	11	San Marcos la laguna 	3	Marzo	2023-03-25T00:00:00	2024-11-08T01:00:00	6	Velocidad del viento	1.6
184254	7	Sololá	716	San Marcos la Laguna 	11	San Marcos la laguna 	3	Marzo	2023-03-25T00:00:00	2024-11-08T01:00:00	7	Dirección del viento	1.61
184255	7	Sololá	716	San Marcos la Laguna 	11	San Marcos la laguna 	3	Marzo	2023-03-25T00:00:00	2024-11-08T01:00:00	1	Precipitación	0
184256	7	Sololá	716	San Marcos la Laguna 	11	San Marcos la laguna 	3	Marzo	2023-03-25T00:00:00	2024-11-08T01:00:00	8	Radiación solar	0
184257	7	Sololá	716	San Marcos la Laguna 	11	San Marcos la laguna 	3	Marzo	2023-03-25T00:00:00	2024-11-08T02:00:00	2	Temperatura media	18.8
184258	7	Sololá	716	San Marcos la Laguna 	11	San Marcos la laguna 	3	Marzo	2023-03-25T00:00:00	2024-11-08T02:00:00	4	Temperatura máxima	19
184259	7	Sololá	716	San Marcos la Laguna 	11	San Marcos la laguna 	3	Marzo	2023-03-25T00:00:00	2024-11-08T02:00:00	3	Temperatura mínima	18.7
184260	7	Sololá	716	San Marcos la Laguna 	11	San Marcos la laguna 	3	Marzo	2023-03-25T00:00:00	2024-11-08T02:00:00	5	Humedad	82
184261	7	Sololá	716	San Marcos la Laguna 	11	San Marcos la laguna 	3	Marzo	2023-03-25T00:00:00	2024-11-08T02:00:00	6	Velocidad del viento	1.6
184262	7	Sololá	716	San Marcos la Laguna 	11	San Marcos la laguna 	3	Marzo	2023-03-25T00:00:00	2024-11-08T02:00:00	7	Dirección del viento	1.61
184263	7	Sololá	716	San Marcos la Laguna 	11	San Marcos la laguna 	3	Marzo	2023-03-25T00:00:00	2024-11-08T02:00:00	1	Precipitación	0
184264	7	Sololá	716	San Marcos la Laguna 	11	San Marcos la laguna 	3	Marzo	2023-03-25T00:00:00	2024-11-08T02:00:00	8	Radiación solar	0
184265	7	Sololá	716	San Marcos la Laguna 	11	San Marcos la laguna 	3	Marzo	2023-03-25T00:00:00	2024-11-08T03:00:00	2	Temperatura media	18.4
184266	7	Sololá	716	San Marcos la Laguna 	11	San Marcos la laguna 	3	Marzo	2023-03-25T00:00:00	2024-11-08T03:00:00	4	Temperatura máxima	18.8
184267	7	Sololá	716	San Marcos la Laguna 	11	San Marcos la laguna 	3	Marzo	2023-03-25T00:00:00	2024-11-08T03:00:00	3	Temperatura mínima	18.4
184268	7	Sololá	716	San Marcos la Laguna 	11	San Marcos la laguna 	3	Marzo	2023-03-25T00:00:00	2024-11-08T03:00:00	5	Humedad	83
184269	7	Sololá	716	San Marcos la Laguna 	11	San Marcos la laguna 	3	Marzo	2023-03-25T00:00:00	2024-11-08T03:00:00	6	Velocidad del viento	1.6
184270	7	Sololá	716	San Marcos la Laguna 	11	San Marcos la laguna 	3	Marzo	2023-03-25T00:00:00	2024-11-08T03:00:00	7	Dirección del viento	1.61
184271	7	Sololá	716	San Marcos la Laguna 	11	San Marcos la laguna 	3	Marzo	2023-03-25T00:00:00	2024-11-08T03:00:00	1	Precipitación	0
184272	7	Sololá	716	San Marcos la Laguna 	11	San Marcos la laguna 	3	Marzo	2023-03-25T00:00:00	2024-11-08T03:00:00	8	Radiación solar	0
184273	7	Sololá	716	San Marcos la Laguna 	11	San Marcos la laguna 	3	Marzo	2023-03-25T00:00:00	2024-11-08T04:00:00	2	Temperatura media	18.4
184274	7	Sololá	716	San Marcos la Laguna 	11	San Marcos la laguna 	3	Marzo	2023-03-25T00:00:00	2024-11-08T04:00:00	4	Temperatura máxima	18.6
184275	7	Sololá	716	San Marcos la Laguna 	11	San Marcos la laguna 	3	Marzo	2023-03-25T00:00:00	2024-11-08T04:00:00	3	Temperatura mínima	18.3
184276	7	Sololá	716	San Marcos la Laguna 	11	San Marcos la laguna 	3	Marzo	2023-03-25T00:00:00	2024-11-08T04:00:00	5	Humedad	83
184277	7	Sololá	716	San Marcos la Laguna 	11	San Marcos la laguna 	3	Marzo	2023-03-25T00:00:00	2024-11-08T04:00:00	6	Velocidad del viento	1.6
184278	7	Sololá	716	San Marcos la Laguna 	11	San Marcos la laguna 	3	Marzo	2023-03-25T00:00:00	2024-11-08T04:00:00	7	Dirección del viento	1.61
184279	7	Sololá	716	San Marcos la Laguna 	11	San Marcos la laguna 	3	Marzo	2023-03-25T00:00:00	2024-11-08T04:00:00	1	Precipitación	0
184280	7	Sololá	716	San Marcos la Laguna 	11	San Marcos la laguna 	3	Marzo	2023-03-25T00:00:00	2024-11-08T04:00:00	8	Radiación solar	0
184281	7	Sololá	716	San Marcos la Laguna 	11	San Marcos la laguna 	3	Marzo	2023-03-25T00:00:00	2024-11-08T05:00:00	2	Temperatura media	18.2
184282	7	Sololá	716	San Marcos la Laguna 	11	San Marcos la laguna 	3	Marzo	2023-03-25T00:00:00	2024-11-08T05:00:00	4	Temperatura máxima	18.6
184283	7	Sololá	716	San Marcos la Laguna 	11	San Marcos la laguna 	3	Marzo	2023-03-25T00:00:00	2024-11-08T05:00:00	3	Temperatura mínima	18.2
184284	7	Sololá	716	San Marcos la Laguna 	11	San Marcos la laguna 	3	Marzo	2023-03-25T00:00:00	2024-11-08T05:00:00	5	Humedad	83
184285	7	Sololá	716	San Marcos la Laguna 	11	San Marcos la laguna 	3	Marzo	2023-03-25T00:00:00	2024-11-08T05:00:00	6	Velocidad del viento	1.6
184286	7	Sololá	716	San Marcos la Laguna 	11	San Marcos la laguna 	3	Marzo	2023-03-25T00:00:00	2024-11-08T05:00:00	7	Dirección del viento	1.61
184287	7	Sololá	716	San Marcos la Laguna 	11	San Marcos la laguna 	3	Marzo	2023-03-25T00:00:00	2024-11-08T05:00:00	1	Precipitación	0
184288	7	Sololá	716	San Marcos la Laguna 	11	San Marcos la laguna 	3	Marzo	2023-03-25T00:00:00	2024-11-08T05:00:00	8	Radiación solar	0
184289	7	Sololá	716	San Marcos la Laguna 	11	San Marcos la laguna 	3	Marzo	2023-03-25T00:00:00	2024-11-08T06:00:00	2	Temperatura media	18.2
184290	7	Sololá	716	San Marcos la Laguna 	11	San Marcos la laguna 	3	Marzo	2023-03-25T00:00:00	2024-11-08T06:00:00	4	Temperatura máxima	18.3
184291	7	Sololá	716	San Marcos la Laguna 	11	San Marcos la laguna 	3	Marzo	2023-03-25T00:00:00	2024-11-08T06:00:00	3	Temperatura mínima	18.1
184292	7	Sololá	716	San Marcos la Laguna 	11	San Marcos la laguna 	3	Marzo	2023-03-25T00:00:00	2024-11-08T06:00:00	5	Humedad	81
184293	7	Sololá	716	San Marcos la Laguna 	11	San Marcos la laguna 	3	Marzo	2023-03-25T00:00:00	2024-11-08T06:00:00	6	Velocidad del viento	1.6
184294	7	Sololá	716	San Marcos la Laguna 	11	San Marcos la laguna 	3	Marzo	2023-03-25T00:00:00	2024-11-08T06:00:00	7	Dirección del viento	1.61
184295	7	Sololá	716	San Marcos la Laguna 	11	San Marcos la laguna 	3	Marzo	2023-03-25T00:00:00	2024-11-08T06:00:00	1	Precipitación	0
184296	7	Sololá	716	San Marcos la Laguna 	11	San Marcos la laguna 	3	Marzo	2023-03-25T00:00:00	2024-11-08T06:00:00	8	Radiación solar	0
184297	7	Sololá	716	San Marcos la Laguna 	11	San Marcos la laguna 	3	Marzo	2023-03-25T00:00:00	2024-11-08T07:00:00	2	Temperatura media	18
184298	7	Sololá	716	San Marcos la Laguna 	11	San Marcos la laguna 	3	Marzo	2023-03-25T00:00:00	2024-11-08T07:00:00	4	Temperatura máxima	18.3
184299	7	Sololá	716	San Marcos la Laguna 	11	San Marcos la laguna 	3	Marzo	2023-03-25T00:00:00	2024-11-08T07:00:00	3	Temperatura mínima	17.9
184300	7	Sololá	716	San Marcos la Laguna 	11	San Marcos la laguna 	3	Marzo	2023-03-25T00:00:00	2024-11-08T07:00:00	5	Humedad	83
184301	7	Sololá	716	San Marcos la Laguna 	11	San Marcos la laguna 	3	Marzo	2023-03-25T00:00:00	2024-11-08T07:00:00	6	Velocidad del viento	3.2
184302	7	Sololá	716	San Marcos la Laguna 	11	San Marcos la laguna 	3	Marzo	2023-03-25T00:00:00	2024-11-08T07:00:00	7	Dirección del viento	3.22
184303	7	Sololá	716	San Marcos la Laguna 	11	San Marcos la laguna 	3	Marzo	2023-03-25T00:00:00	2024-11-08T07:00:00	1	Precipitación	0
184304	7	Sololá	716	San Marcos la Laguna 	11	San Marcos la laguna 	3	Marzo	2023-03-25T00:00:00	2024-11-08T07:00:00	8	Radiación solar	11
184305	7	Sololá	716	San Marcos la Laguna 	11	San Marcos la laguna 	3	Marzo	2023-03-25T00:00:00	2024-11-08T08:00:00	2	Temperatura media	18.8
184306	7	Sololá	716	San Marcos la Laguna 	11	San Marcos la laguna 	3	Marzo	2023-03-25T00:00:00	2024-11-08T08:00:00	4	Temperatura máxima	18.8
184307	7	Sololá	716	San Marcos la Laguna 	11	San Marcos la laguna 	3	Marzo	2023-03-25T00:00:00	2024-11-08T08:00:00	3	Temperatura mínima	18
184308	7	Sololá	716	San Marcos la Laguna 	11	San Marcos la laguna 	3	Marzo	2023-03-25T00:00:00	2024-11-08T08:00:00	5	Humedad	79
184309	7	Sololá	716	San Marcos la Laguna 	11	San Marcos la laguna 	3	Marzo	2023-03-25T00:00:00	2024-11-08T08:00:00	6	Velocidad del viento	1.6
184310	7	Sololá	716	San Marcos la Laguna 	11	San Marcos la laguna 	3	Marzo	2023-03-25T00:00:00	2024-11-08T08:00:00	7	Dirección del viento	1.61
184311	7	Sololá	716	San Marcos la Laguna 	11	San Marcos la laguna 	3	Marzo	2023-03-25T00:00:00	2024-11-08T08:00:00	1	Precipitación	0
184312	7	Sololá	716	San Marcos la Laguna 	11	San Marcos la laguna 	3	Marzo	2023-03-25T00:00:00	2024-11-08T08:00:00	8	Radiación solar	57
184313	7	Sololá	716	San Marcos la Laguna 	11	San Marcos la laguna 	3	Marzo	2023-03-25T00:00:00	2024-11-08T09:00:00	2	Temperatura media	19.9
184314	7	Sololá	716	San Marcos la Laguna 	11	San Marcos la laguna 	3	Marzo	2023-03-25T00:00:00	2024-11-08T09:00:00	4	Temperatura máxima	20.1
184315	7	Sololá	716	San Marcos la Laguna 	11	San Marcos la laguna 	3	Marzo	2023-03-25T00:00:00	2024-11-08T09:00:00	3	Temperatura mínima	18.7
184316	7	Sololá	716	San Marcos la Laguna 	11	San Marcos la laguna 	3	Marzo	2023-03-25T00:00:00	2024-11-08T09:00:00	5	Humedad	75
184317	7	Sololá	716	San Marcos la Laguna 	11	San Marcos la laguna 	3	Marzo	2023-03-25T00:00:00	2024-11-08T09:00:00	6	Velocidad del viento	9.7
184318	7	Sololá	716	San Marcos la Laguna 	11	San Marcos la laguna 	3	Marzo	2023-03-25T00:00:00	2024-11-08T09:00:00	7	Dirección del viento	9.66
184319	7	Sololá	716	San Marcos la Laguna 	11	San Marcos la laguna 	3	Marzo	2023-03-25T00:00:00	2024-11-08T09:00:00	1	Precipitación	0
184320	7	Sololá	716	San Marcos la Laguna 	11	San Marcos la laguna 	3	Marzo	2023-03-25T00:00:00	2024-11-08T09:00:00	8	Radiación solar	311
184321	7	Sololá	716	San Marcos la Laguna 	11	San Marcos la laguna 	3	Marzo	2023-03-25T00:00:00	2024-11-08T10:00:00	2	Temperatura media	20.2
184322	7	Sololá	716	San Marcos la Laguna 	11	San Marcos la laguna 	3	Marzo	2023-03-25T00:00:00	2024-11-08T10:00:00	4	Temperatura máxima	20.3
184323	7	Sololá	716	San Marcos la Laguna 	11	San Marcos la laguna 	3	Marzo	2023-03-25T00:00:00	2024-11-08T10:00:00	3	Temperatura mínima	19.7
184324	7	Sololá	716	San Marcos la Laguna 	11	San Marcos la laguna 	3	Marzo	2023-03-25T00:00:00	2024-11-08T10:00:00	5	Humedad	75
184325	7	Sololá	716	San Marcos la Laguna 	11	San Marcos la laguna 	3	Marzo	2023-03-25T00:00:00	2024-11-08T10:00:00	6	Velocidad del viento	8
184326	7	Sololá	716	San Marcos la Laguna 	11	San Marcos la laguna 	3	Marzo	2023-03-25T00:00:00	2024-11-08T10:00:00	7	Dirección del viento	8.05
184327	7	Sololá	716	San Marcos la Laguna 	11	San Marcos la laguna 	3	Marzo	2023-03-25T00:00:00	2024-11-08T10:00:00	1	Precipitación	0
184328	7	Sololá	716	San Marcos la Laguna 	11	San Marcos la laguna 	3	Marzo	2023-03-25T00:00:00	2024-11-08T10:00:00	8	Radiación solar	304
184329	7	Sololá	716	San Marcos la Laguna 	11	San Marcos la laguna 	3	Marzo	2023-03-25T00:00:00	2024-11-08T11:00:00	2	Temperatura media	21.5
184330	7	Sololá	716	San Marcos la Laguna 	11	San Marcos la laguna 	3	Marzo	2023-03-25T00:00:00	2024-11-08T11:00:00	4	Temperatura máxima	21.5
184331	7	Sololá	716	San Marcos la Laguna 	11	San Marcos la laguna 	3	Marzo	2023-03-25T00:00:00	2024-11-08T11:00:00	3	Temperatura mínima	20.1
184332	7	Sololá	716	San Marcos la Laguna 	11	San Marcos la laguna 	3	Marzo	2023-03-25T00:00:00	2024-11-08T11:00:00	5	Humedad	70
184333	7	Sololá	716	San Marcos la Laguna 	11	San Marcos la laguna 	3	Marzo	2023-03-25T00:00:00	2024-11-08T11:00:00	6	Velocidad del viento	8
184334	7	Sololá	716	San Marcos la Laguna 	11	San Marcos la laguna 	3	Marzo	2023-03-25T00:00:00	2024-11-08T11:00:00	7	Dirección del viento	8.05
184335	7	Sololá	716	San Marcos la Laguna 	11	San Marcos la laguna 	3	Marzo	2023-03-25T00:00:00	2024-11-08T11:00:00	1	Precipitación	0
184336	7	Sololá	716	San Marcos la Laguna 	11	San Marcos la laguna 	3	Marzo	2023-03-25T00:00:00	2024-11-08T11:00:00	8	Radiación solar	815
184337	7	Sololá	716	San Marcos la Laguna 	11	San Marcos la laguna 	3	Marzo	2023-03-25T00:00:00	2024-11-08T12:00:00	2	Temperatura media	21.9
184338	7	Sololá	716	San Marcos la Laguna 	11	San Marcos la laguna 	3	Marzo	2023-03-25T00:00:00	2024-11-08T12:00:00	4	Temperatura máxima	22.2
184339	7	Sololá	716	San Marcos la Laguna 	11	San Marcos la laguna 	3	Marzo	2023-03-25T00:00:00	2024-11-08T12:00:00	3	Temperatura mínima	21.3
184340	7	Sololá	716	San Marcos la Laguna 	11	San Marcos la laguna 	3	Marzo	2023-03-25T00:00:00	2024-11-08T12:00:00	5	Humedad	69
184341	7	Sololá	716	San Marcos la Laguna 	11	San Marcos la laguna 	3	Marzo	2023-03-25T00:00:00	2024-11-08T12:00:00	6	Velocidad del viento	9.7
184342	7	Sololá	716	San Marcos la Laguna 	11	San Marcos la laguna 	3	Marzo	2023-03-25T00:00:00	2024-11-08T12:00:00	7	Dirección del viento	9.66
184343	7	Sololá	716	San Marcos la Laguna 	11	San Marcos la laguna 	3	Marzo	2023-03-25T00:00:00	2024-11-08T12:00:00	1	Precipitación	0
184344	7	Sololá	716	San Marcos la Laguna 	11	San Marcos la laguna 	3	Marzo	2023-03-25T00:00:00	2024-11-08T12:00:00	8	Radiación solar	950
184345	7	Sololá	716	San Marcos la Laguna 	11	San Marcos la laguna 	3	Marzo	2023-03-25T00:00:00	2024-11-08T13:00:00	2	Temperatura media	21.9
184346	7	Sololá	716	San Marcos la Laguna 	11	San Marcos la laguna 	3	Marzo	2023-03-25T00:00:00	2024-11-08T13:00:00	4	Temperatura máxima	22.2
184347	7	Sololá	716	San Marcos la Laguna 	11	San Marcos la laguna 	3	Marzo	2023-03-25T00:00:00	2024-11-08T13:00:00	3	Temperatura mínima	21.6
184348	7	Sololá	716	San Marcos la Laguna 	11	San Marcos la laguna 	3	Marzo	2023-03-25T00:00:00	2024-11-08T13:00:00	5	Humedad	68
184349	7	Sololá	716	San Marcos la Laguna 	11	San Marcos la laguna 	3	Marzo	2023-03-25T00:00:00	2024-11-08T13:00:00	6	Velocidad del viento	12.9
184350	7	Sololá	716	San Marcos la Laguna 	11	San Marcos la laguna 	3	Marzo	2023-03-25T00:00:00	2024-11-08T13:00:00	7	Dirección del viento	12.87
184351	7	Sololá	716	San Marcos la Laguna 	11	San Marcos la laguna 	3	Marzo	2023-03-25T00:00:00	2024-11-08T13:00:00	1	Precipitación	0
184352	7	Sololá	716	San Marcos la Laguna 	11	San Marcos la laguna 	3	Marzo	2023-03-25T00:00:00	2024-11-08T13:00:00	8	Radiación solar	941
184353	7	Sololá	716	San Marcos la Laguna 	11	San Marcos la laguna 	3	Marzo	2023-03-25T00:00:00	2024-11-08T14:00:00	2	Temperatura media	21.3
184354	7	Sololá	716	San Marcos la Laguna 	11	San Marcos la laguna 	3	Marzo	2023-03-25T00:00:00	2024-11-08T14:00:00	4	Temperatura máxima	22.4
184355	7	Sololá	716	San Marcos la Laguna 	11	San Marcos la laguna 	3	Marzo	2023-03-25T00:00:00	2024-11-08T14:00:00	3	Temperatura mínima	21.3
184356	7	Sololá	716	San Marcos la Laguna 	11	San Marcos la laguna 	3	Marzo	2023-03-25T00:00:00	2024-11-08T14:00:00	5	Humedad	73
184357	7	Sololá	716	San Marcos la Laguna 	11	San Marcos la laguna 	3	Marzo	2023-03-25T00:00:00	2024-11-08T14:00:00	6	Velocidad del viento	12.9
184358	7	Sololá	716	San Marcos la Laguna 	11	San Marcos la laguna 	3	Marzo	2023-03-25T00:00:00	2024-11-08T14:00:00	7	Dirección del viento	12.87
184359	7	Sololá	716	San Marcos la Laguna 	11	San Marcos la laguna 	3	Marzo	2023-03-25T00:00:00	2024-11-08T14:00:00	1	Precipitación	0
184360	7	Sololá	716	San Marcos la Laguna 	11	San Marcos la laguna 	3	Marzo	2023-03-25T00:00:00	2024-11-08T14:00:00	8	Radiación solar	747
184361	7	Sololá	716	San Marcos la Laguna 	11	San Marcos la laguna 	3	Marzo	2023-03-25T00:00:00	2024-11-08T15:00:00	2	Temperatura media	21.3
184362	7	Sololá	716	San Marcos la Laguna 	11	San Marcos la laguna 	3	Marzo	2023-03-25T00:00:00	2024-11-08T15:00:00	4	Temperatura máxima	21.8
184363	7	Sololá	716	San Marcos la Laguna 	11	San Marcos la laguna 	3	Marzo	2023-03-25T00:00:00	2024-11-08T15:00:00	3	Temperatura mínima	21
184364	7	Sololá	716	San Marcos la Laguna 	11	San Marcos la laguna 	3	Marzo	2023-03-25T00:00:00	2024-11-08T15:00:00	5	Humedad	73
184365	7	Sololá	716	San Marcos la Laguna 	11	San Marcos la laguna 	3	Marzo	2023-03-25T00:00:00	2024-11-08T15:00:00	6	Velocidad del viento	11.3
184366	7	Sololá	716	San Marcos la Laguna 	11	San Marcos la laguna 	3	Marzo	2023-03-25T00:00:00	2024-11-08T15:00:00	7	Dirección del viento	11.27
184367	7	Sololá	716	San Marcos la Laguna 	11	San Marcos la laguna 	3	Marzo	2023-03-25T00:00:00	2024-11-08T15:00:00	1	Precipitación	0
184368	7	Sololá	716	San Marcos la Laguna 	11	San Marcos la laguna 	3	Marzo	2023-03-25T00:00:00	2024-11-08T15:00:00	8	Radiación solar	281
184369	7	Sololá	716	San Marcos la Laguna 	11	San Marcos la laguna 	3	Marzo	2023-03-25T00:00:00	2024-11-08T16:00:00	2	Temperatura media	21.3
184370	7	Sololá	716	San Marcos la Laguna 	11	San Marcos la laguna 	3	Marzo	2023-03-25T00:00:00	2024-11-08T16:00:00	4	Temperatura máxima	21.4
184371	7	Sololá	716	San Marcos la Laguna 	11	San Marcos la laguna 	3	Marzo	2023-03-25T00:00:00	2024-11-08T16:00:00	3	Temperatura mínima	21.1
184372	7	Sololá	716	San Marcos la Laguna 	11	San Marcos la laguna 	3	Marzo	2023-03-25T00:00:00	2024-11-08T16:00:00	5	Humedad	72
184373	7	Sololá	716	San Marcos la Laguna 	11	San Marcos la laguna 	3	Marzo	2023-03-25T00:00:00	2024-11-08T16:00:00	6	Velocidad del viento	3.2
184374	7	Sololá	716	San Marcos la Laguna 	11	San Marcos la laguna 	3	Marzo	2023-03-25T00:00:00	2024-11-08T16:00:00	7	Dirección del viento	3.22
184375	7	Sololá	716	San Marcos la Laguna 	11	San Marcos la laguna 	3	Marzo	2023-03-25T00:00:00	2024-11-08T16:00:00	1	Precipitación	0
184376	7	Sololá	716	San Marcos la Laguna 	11	San Marcos la laguna 	3	Marzo	2023-03-25T00:00:00	2024-11-08T16:00:00	8	Radiación solar	148
184377	7	Sololá	716	San Marcos la Laguna 	11	San Marcos la laguna 	3	Marzo	2023-03-25T00:00:00	2024-11-08T17:00:00	2	Temperatura media	21.2
184378	7	Sololá	716	San Marcos la Laguna 	11	San Marcos la laguna 	3	Marzo	2023-03-25T00:00:00	2024-11-08T17:00:00	4	Temperatura máxima	21.3
184379	7	Sololá	716	San Marcos la Laguna 	11	San Marcos la laguna 	3	Marzo	2023-03-25T00:00:00	2024-11-08T17:00:00	3	Temperatura mínima	20.9
184380	7	Sololá	716	San Marcos la Laguna 	11	San Marcos la laguna 	3	Marzo	2023-03-25T00:00:00	2024-11-08T17:00:00	5	Humedad	72
184381	7	Sololá	716	San Marcos la Laguna 	11	San Marcos la laguna 	3	Marzo	2023-03-25T00:00:00	2024-11-08T17:00:00	6	Velocidad del viento	1.6
184382	7	Sololá	716	San Marcos la Laguna 	11	San Marcos la laguna 	3	Marzo	2023-03-25T00:00:00	2024-11-08T17:00:00	7	Dirección del viento	1.61
184383	7	Sololá	716	San Marcos la Laguna 	11	San Marcos la laguna 	3	Marzo	2023-03-25T00:00:00	2024-11-08T17:00:00	1	Precipitación	0
184384	7	Sololá	716	San Marcos la Laguna 	11	San Marcos la laguna 	3	Marzo	2023-03-25T00:00:00	2024-11-08T17:00:00	8	Radiación solar	102
184385	7	Sololá	716	San Marcos la Laguna 	11	San Marcos la laguna 	3	Marzo	2023-03-25T00:00:00	2024-11-08T18:00:00	2	Temperatura media	20.8
184386	7	Sololá	716	San Marcos la Laguna 	11	San Marcos la laguna 	3	Marzo	2023-03-25T00:00:00	2024-11-08T18:00:00	4	Temperatura máxima	21.4
184387	7	Sololá	716	San Marcos la Laguna 	11	San Marcos la laguna 	3	Marzo	2023-03-25T00:00:00	2024-11-08T18:00:00	3	Temperatura mínima	20.7
184388	7	Sololá	716	San Marcos la Laguna 	11	San Marcos la laguna 	3	Marzo	2023-03-25T00:00:00	2024-11-08T18:00:00	5	Humedad	74
184389	7	Sololá	716	San Marcos la Laguna 	11	San Marcos la laguna 	3	Marzo	2023-03-25T00:00:00	2024-11-08T18:00:00	6	Velocidad del viento	1.6
184390	7	Sololá	716	San Marcos la Laguna 	11	San Marcos la laguna 	3	Marzo	2023-03-25T00:00:00	2024-11-08T18:00:00	7	Dirección del viento	1.61
184391	7	Sololá	716	San Marcos la Laguna 	11	San Marcos la laguna 	3	Marzo	2023-03-25T00:00:00	2024-11-08T18:00:00	1	Precipitación	0
184392	7	Sololá	716	San Marcos la Laguna 	11	San Marcos la laguna 	3	Marzo	2023-03-25T00:00:00	2024-11-08T18:00:00	8	Radiación solar	70
184393	7	Sololá	716	San Marcos la Laguna 	11	San Marcos la laguna 	3	Marzo	2023-03-25T00:00:00	2024-11-08T19:00:00	2	Temperatura media	19.2
184394	7	Sololá	716	San Marcos la Laguna 	11	San Marcos la laguna 	3	Marzo	2023-03-25T00:00:00	2024-11-08T19:00:00	4	Temperatura máxima	20.8
184395	7	Sololá	716	San Marcos la Laguna 	11	San Marcos la laguna 	3	Marzo	2023-03-25T00:00:00	2024-11-08T19:00:00	3	Temperatura mínima	19.2
184396	7	Sololá	716	San Marcos la Laguna 	11	San Marcos la laguna 	3	Marzo	2023-03-25T00:00:00	2024-11-08T19:00:00	5	Humedad	78
184397	7	Sololá	716	San Marcos la Laguna 	11	San Marcos la laguna 	3	Marzo	2023-03-25T00:00:00	2024-11-08T19:00:00	6	Velocidad del viento	3.2
184398	7	Sololá	716	San Marcos la Laguna 	11	San Marcos la laguna 	3	Marzo	2023-03-25T00:00:00	2024-11-08T19:00:00	7	Dirección del viento	3.22
184399	7	Sololá	716	San Marcos la Laguna 	11	San Marcos la laguna 	3	Marzo	2023-03-25T00:00:00	2024-11-08T19:00:00	1	Precipitación	0
184400	7	Sololá	716	San Marcos la Laguna 	11	San Marcos la laguna 	3	Marzo	2023-03-25T00:00:00	2024-11-08T19:00:00	8	Radiación solar	0
184401	7	Sololá	716	San Marcos la Laguna 	11	San Marcos la laguna 	3	Marzo	2023-03-25T00:00:00	2024-11-08T20:00:00	2	Temperatura media	18.7
184402	7	Sololá	716	San Marcos la Laguna 	11	San Marcos la laguna 	3	Marzo	2023-03-25T00:00:00	2024-11-08T20:00:00	4	Temperatura máxima	19.2
184403	7	Sololá	716	San Marcos la Laguna 	11	San Marcos la laguna 	3	Marzo	2023-03-25T00:00:00	2024-11-08T20:00:00	3	Temperatura mínima	18.7
184404	7	Sololá	716	San Marcos la Laguna 	11	San Marcos la laguna 	3	Marzo	2023-03-25T00:00:00	2024-11-08T20:00:00	5	Humedad	78
184405	7	Sololá	716	San Marcos la Laguna 	11	San Marcos la laguna 	3	Marzo	2023-03-25T00:00:00	2024-11-08T20:00:00	6	Velocidad del viento	4.8
184406	7	Sololá	716	San Marcos la Laguna 	11	San Marcos la laguna 	3	Marzo	2023-03-25T00:00:00	2024-11-08T20:00:00	7	Dirección del viento	4.83
184407	7	Sololá	716	San Marcos la Laguna 	11	San Marcos la laguna 	3	Marzo	2023-03-25T00:00:00	2024-11-08T20:00:00	1	Precipitación	0
184408	7	Sololá	716	San Marcos la Laguna 	11	San Marcos la laguna 	3	Marzo	2023-03-25T00:00:00	2024-11-08T20:00:00	8	Radiación solar	0
184409	7	Sololá	716	San Marcos la Laguna 	11	San Marcos la laguna 	3	Marzo	2023-03-25T00:00:00	2024-11-08T21:00:00	2	Temperatura media	17.9
184410	7	Sololá	716	San Marcos la Laguna 	11	San Marcos la laguna 	3	Marzo	2023-03-25T00:00:00	2024-11-08T21:00:00	4	Temperatura máxima	18.7
184411	7	Sololá	716	San Marcos la Laguna 	11	San Marcos la laguna 	3	Marzo	2023-03-25T00:00:00	2024-11-08T21:00:00	3	Temperatura mínima	17.8
184412	7	Sololá	716	San Marcos la Laguna 	11	San Marcos la laguna 	3	Marzo	2023-03-25T00:00:00	2024-11-08T21:00:00	5	Humedad	82
184413	7	Sololá	716	San Marcos la Laguna 	11	San Marcos la laguna 	3	Marzo	2023-03-25T00:00:00	2024-11-08T21:00:00	6	Velocidad del viento	6.4
184414	7	Sololá	716	San Marcos la Laguna 	11	San Marcos la laguna 	3	Marzo	2023-03-25T00:00:00	2024-11-08T21:00:00	7	Dirección del viento	6.44
184415	7	Sololá	716	San Marcos la Laguna 	11	San Marcos la laguna 	3	Marzo	2023-03-25T00:00:00	2024-11-08T21:00:00	1	Precipitación	0
184416	7	Sololá	716	San Marcos la Laguna 	11	San Marcos la laguna 	3	Marzo	2023-03-25T00:00:00	2024-11-08T21:00:00	8	Radiación solar	0
184417	7	Sololá	716	San Marcos la Laguna 	11	San Marcos la laguna 	3	Marzo	2023-03-25T00:00:00	2024-11-08T22:00:00	2	Temperatura media	17.6
184418	7	Sololá	716	San Marcos la Laguna 	11	San Marcos la laguna 	3	Marzo	2023-03-25T00:00:00	2024-11-08T22:00:00	4	Temperatura máxima	17.8
184419	7	Sololá	716	San Marcos la Laguna 	11	San Marcos la laguna 	3	Marzo	2023-03-25T00:00:00	2024-11-08T22:00:00	3	Temperatura mínima	17.4
184420	7	Sololá	716	San Marcos la Laguna 	11	San Marcos la laguna 	3	Marzo	2023-03-25T00:00:00	2024-11-08T22:00:00	5	Humedad	84
184421	7	Sololá	716	San Marcos la Laguna 	11	San Marcos la laguna 	3	Marzo	2023-03-25T00:00:00	2024-11-08T22:00:00	6	Velocidad del viento	6.4
184422	7	Sololá	716	San Marcos la Laguna 	11	San Marcos la laguna 	3	Marzo	2023-03-25T00:00:00	2024-11-08T22:00:00	7	Dirección del viento	6.44
184423	7	Sololá	716	San Marcos la Laguna 	11	San Marcos la laguna 	3	Marzo	2023-03-25T00:00:00	2024-11-08T22:00:00	1	Precipitación	0
184424	7	Sololá	716	San Marcos la Laguna 	11	San Marcos la laguna 	3	Marzo	2023-03-25T00:00:00	2024-11-08T22:00:00	8	Radiación solar	0
184425	7	Sololá	716	San Marcos la Laguna 	11	San Marcos la laguna 	3	Marzo	2023-03-25T00:00:00	2024-11-08T23:00:00	2	Temperatura media	17.8
184426	7	Sololá	716	San Marcos la Laguna 	11	San Marcos la laguna 	3	Marzo	2023-03-25T00:00:00	2024-11-08T23:00:00	4	Temperatura máxima	17.9
184427	7	Sololá	716	San Marcos la Laguna 	11	San Marcos la laguna 	3	Marzo	2023-03-25T00:00:00	2024-11-08T23:00:00	3	Temperatura mínima	17.6
184428	7	Sololá	716	San Marcos la Laguna 	11	San Marcos la laguna 	3	Marzo	2023-03-25T00:00:00	2024-11-08T23:00:00	5	Humedad	83
184429	7	Sololá	716	San Marcos la Laguna 	11	San Marcos la laguna 	3	Marzo	2023-03-25T00:00:00	2024-11-08T23:00:00	6	Velocidad del viento	4.8
184430	7	Sololá	716	San Marcos la Laguna 	11	San Marcos la laguna 	3	Marzo	2023-03-25T00:00:00	2024-11-08T23:00:00	7	Dirección del viento	4.83
184431	7	Sololá	716	San Marcos la Laguna 	11	San Marcos la laguna 	3	Marzo	2023-03-25T00:00:00	2024-11-08T23:00:00	1	Precipitación	0
184432	7	Sololá	716	San Marcos la Laguna 	11	San Marcos la laguna 	3	Marzo	2023-03-25T00:00:00	2024-11-08T23:00:00	8	Radiación solar	0
184433	7	Sololá	716	San Marcos la Laguna 	11	San Marcos la laguna 	3	Marzo	2023-03-26T00:00:00	2024-11-08T00:00:00	2	Temperatura media	18.2
184434	7	Sololá	716	San Marcos la Laguna 	11	San Marcos la laguna 	3	Marzo	2023-03-26T00:00:00	2024-11-08T00:00:00	4	Temperatura máxima	18.3
184435	7	Sololá	716	San Marcos la Laguna 	11	San Marcos la laguna 	3	Marzo	2023-03-26T00:00:00	2024-11-08T00:00:00	3	Temperatura mínima	17.8
184436	7	Sololá	716	San Marcos la Laguna 	11	San Marcos la laguna 	3	Marzo	2023-03-26T00:00:00	2024-11-08T00:00:00	5	Humedad	83
184437	7	Sololá	716	San Marcos la Laguna 	11	San Marcos la laguna 	3	Marzo	2023-03-26T00:00:00	2024-11-08T00:00:00	6	Velocidad del viento	3.2
184438	7	Sololá	716	San Marcos la Laguna 	11	San Marcos la laguna 	3	Marzo	2023-03-26T00:00:00	2024-11-08T00:00:00	7	Dirección del viento	3.22
184439	7	Sololá	716	San Marcos la Laguna 	11	San Marcos la laguna 	3	Marzo	2023-03-26T00:00:00	2024-11-08T00:00:00	1	Precipitación	0
184440	7	Sololá	716	San Marcos la Laguna 	11	San Marcos la laguna 	3	Marzo	2023-03-26T00:00:00	2024-11-08T00:00:00	8	Radiación solar	0
184441	7	Sololá	716	San Marcos la Laguna 	11	San Marcos la laguna 	3	Marzo	2023-03-26T00:00:00	2024-11-08T01:00:00	2	Temperatura media	17.6
184442	7	Sololá	716	San Marcos la Laguna 	11	San Marcos la laguna 	3	Marzo	2023-03-26T00:00:00	2024-11-08T01:00:00	4	Temperatura máxima	18.3
184443	7	Sololá	716	San Marcos la Laguna 	11	San Marcos la laguna 	3	Marzo	2023-03-26T00:00:00	2024-11-08T01:00:00	3	Temperatura mínima	17.6
184444	7	Sololá	716	San Marcos la Laguna 	11	San Marcos la laguna 	3	Marzo	2023-03-26T00:00:00	2024-11-08T01:00:00	5	Humedad	86
184445	7	Sololá	716	San Marcos la Laguna 	11	San Marcos la laguna 	3	Marzo	2023-03-26T00:00:00	2024-11-08T01:00:00	6	Velocidad del viento	3.2
184446	7	Sololá	716	San Marcos la Laguna 	11	San Marcos la laguna 	3	Marzo	2023-03-26T00:00:00	2024-11-08T01:00:00	7	Dirección del viento	3.22
184447	7	Sololá	716	San Marcos la Laguna 	11	San Marcos la laguna 	3	Marzo	2023-03-26T00:00:00	2024-11-08T01:00:00	1	Precipitación	0
184448	7	Sololá	716	San Marcos la Laguna 	11	San Marcos la laguna 	3	Marzo	2023-03-26T00:00:00	2024-11-08T01:00:00	8	Radiación solar	0
184449	7	Sololá	716	San Marcos la Laguna 	11	San Marcos la laguna 	3	Marzo	2023-03-26T00:00:00	2024-11-08T02:00:00	2	Temperatura media	17.6
184450	7	Sololá	716	San Marcos la Laguna 	11	San Marcos la laguna 	3	Marzo	2023-03-26T00:00:00	2024-11-08T02:00:00	4	Temperatura máxima	17.9
184451	7	Sololá	716	San Marcos la Laguna 	11	San Marcos la laguna 	3	Marzo	2023-03-26T00:00:00	2024-11-08T02:00:00	3	Temperatura mínima	17.5
184452	7	Sololá	716	San Marcos la Laguna 	11	San Marcos la laguna 	3	Marzo	2023-03-26T00:00:00	2024-11-08T02:00:00	5	Humedad	87
184453	7	Sololá	716	San Marcos la Laguna 	11	San Marcos la laguna 	3	Marzo	2023-03-26T00:00:00	2024-11-08T02:00:00	6	Velocidad del viento	1.6
184454	7	Sololá	716	San Marcos la Laguna 	11	San Marcos la laguna 	3	Marzo	2023-03-26T00:00:00	2024-11-08T02:00:00	7	Dirección del viento	1.61
184455	7	Sololá	716	San Marcos la Laguna 	11	San Marcos la laguna 	3	Marzo	2023-03-26T00:00:00	2024-11-08T02:00:00	1	Precipitación	0
184456	7	Sololá	716	San Marcos la Laguna 	11	San Marcos la laguna 	3	Marzo	2023-03-26T00:00:00	2024-11-08T02:00:00	8	Radiación solar	0
184457	7	Sololá	716	San Marcos la Laguna 	11	San Marcos la laguna 	3	Marzo	2023-03-26T00:00:00	2024-11-08T03:00:00	2	Temperatura media	18.3
184458	7	Sololá	716	San Marcos la Laguna 	11	San Marcos la laguna 	3	Marzo	2023-03-26T00:00:00	2024-11-08T03:00:00	4	Temperatura máxima	18.3
184459	7	Sololá	716	San Marcos la Laguna 	11	San Marcos la laguna 	3	Marzo	2023-03-26T00:00:00	2024-11-08T03:00:00	3	Temperatura mínima	17.2
184460	7	Sololá	716	San Marcos la Laguna 	11	San Marcos la laguna 	3	Marzo	2023-03-26T00:00:00	2024-11-08T03:00:00	5	Humedad	85
184461	7	Sololá	716	San Marcos la Laguna 	11	San Marcos la laguna 	3	Marzo	2023-03-26T00:00:00	2024-11-08T03:00:00	6	Velocidad del viento	3.2
184462	7	Sololá	716	San Marcos la Laguna 	11	San Marcos la laguna 	3	Marzo	2023-03-26T00:00:00	2024-11-08T03:00:00	7	Dirección del viento	3.22
184463	7	Sololá	716	San Marcos la Laguna 	11	San Marcos la laguna 	3	Marzo	2023-03-26T00:00:00	2024-11-08T03:00:00	1	Precipitación	0
184464	7	Sololá	716	San Marcos la Laguna 	11	San Marcos la laguna 	3	Marzo	2023-03-26T00:00:00	2024-11-08T03:00:00	8	Radiación solar	0
184465	7	Sololá	716	San Marcos la Laguna 	11	San Marcos la laguna 	3	Marzo	2023-03-26T00:00:00	2024-11-08T04:00:00	2	Temperatura media	18.1
184466	7	Sololá	716	San Marcos la Laguna 	11	San Marcos la laguna 	3	Marzo	2023-03-26T00:00:00	2024-11-08T04:00:00	4	Temperatura máxima	18.3
184467	7	Sololá	716	San Marcos la Laguna 	11	San Marcos la laguna 	3	Marzo	2023-03-26T00:00:00	2024-11-08T04:00:00	3	Temperatura mínima	18.1
184468	7	Sololá	716	San Marcos la Laguna 	11	San Marcos la laguna 	3	Marzo	2023-03-26T00:00:00	2024-11-08T04:00:00	5	Humedad	87
184469	7	Sololá	716	San Marcos la Laguna 	11	San Marcos la laguna 	3	Marzo	2023-03-26T00:00:00	2024-11-08T04:00:00	6	Velocidad del viento	3.2
184470	7	Sololá	716	San Marcos la Laguna 	11	San Marcos la laguna 	3	Marzo	2023-03-26T00:00:00	2024-11-08T04:00:00	7	Dirección del viento	3.22
184471	7	Sololá	716	San Marcos la Laguna 	11	San Marcos la laguna 	3	Marzo	2023-03-26T00:00:00	2024-11-08T04:00:00	1	Precipitación	0
184472	7	Sololá	716	San Marcos la Laguna 	11	San Marcos la laguna 	3	Marzo	2023-03-26T00:00:00	2024-11-08T04:00:00	8	Radiación solar	0
184473	7	Sololá	716	San Marcos la Laguna 	11	San Marcos la laguna 	3	Marzo	2023-03-26T00:00:00	2024-11-08T05:00:00	2	Temperatura media	17.8
184474	7	Sololá	716	San Marcos la Laguna 	11	San Marcos la laguna 	3	Marzo	2023-03-26T00:00:00	2024-11-08T05:00:00	4	Temperatura máxima	18.1
184475	7	Sololá	716	San Marcos la Laguna 	11	San Marcos la laguna 	3	Marzo	2023-03-26T00:00:00	2024-11-08T05:00:00	3	Temperatura mínima	17.8
184476	7	Sololá	716	San Marcos la Laguna 	11	San Marcos la laguna 	3	Marzo	2023-03-26T00:00:00	2024-11-08T05:00:00	5	Humedad	80
184477	7	Sololá	716	San Marcos la Laguna 	11	San Marcos la laguna 	3	Marzo	2023-03-26T00:00:00	2024-11-08T05:00:00	6	Velocidad del viento	8
184478	7	Sololá	716	San Marcos la Laguna 	11	San Marcos la laguna 	3	Marzo	2023-03-26T00:00:00	2024-11-08T05:00:00	7	Dirección del viento	8.05
184479	7	Sololá	716	San Marcos la Laguna 	11	San Marcos la laguna 	3	Marzo	2023-03-26T00:00:00	2024-11-08T05:00:00	1	Precipitación	0
184480	7	Sololá	716	San Marcos la Laguna 	11	San Marcos la laguna 	3	Marzo	2023-03-26T00:00:00	2024-11-08T05:00:00	8	Radiación solar	0
184481	7	Sololá	716	San Marcos la Laguna 	11	San Marcos la laguna 	3	Marzo	2023-03-26T00:00:00	2024-11-08T06:00:00	2	Temperatura media	17.4
184482	7	Sololá	716	San Marcos la Laguna 	11	San Marcos la laguna 	3	Marzo	2023-03-26T00:00:00	2024-11-08T06:00:00	4	Temperatura máxima	17.9
184483	7	Sololá	716	San Marcos la Laguna 	11	San Marcos la laguna 	3	Marzo	2023-03-26T00:00:00	2024-11-08T06:00:00	3	Temperatura mínima	17.4
184484	7	Sololá	716	San Marcos la Laguna 	11	San Marcos la laguna 	3	Marzo	2023-03-26T00:00:00	2024-11-08T06:00:00	5	Humedad	81
184485	7	Sololá	716	San Marcos la Laguna 	11	San Marcos la laguna 	3	Marzo	2023-03-26T00:00:00	2024-11-08T06:00:00	6	Velocidad del viento	8
184486	7	Sololá	716	San Marcos la Laguna 	11	San Marcos la laguna 	3	Marzo	2023-03-26T00:00:00	2024-11-08T06:00:00	7	Dirección del viento	8.05
184487	7	Sololá	716	San Marcos la Laguna 	11	San Marcos la laguna 	3	Marzo	2023-03-26T00:00:00	2024-11-08T06:00:00	1	Precipitación	0
184488	7	Sololá	716	San Marcos la Laguna 	11	San Marcos la laguna 	3	Marzo	2023-03-26T00:00:00	2024-11-08T06:00:00	8	Radiación solar	0
184489	7	Sololá	716	San Marcos la Laguna 	11	San Marcos la laguna 	3	Marzo	2023-03-26T00:00:00	2024-11-08T07:00:00	2	Temperatura media	17.3
184490	7	Sololá	716	San Marcos la Laguna 	11	San Marcos la laguna 	3	Marzo	2023-03-26T00:00:00	2024-11-08T07:00:00	4	Temperatura máxima	17.4
184491	7	Sololá	716	San Marcos la Laguna 	11	San Marcos la laguna 	3	Marzo	2023-03-26T00:00:00	2024-11-08T07:00:00	3	Temperatura mínima	17.2
184492	7	Sololá	716	San Marcos la Laguna 	11	San Marcos la laguna 	3	Marzo	2023-03-26T00:00:00	2024-11-08T07:00:00	5	Humedad	82
184493	7	Sololá	716	San Marcos la Laguna 	11	San Marcos la laguna 	3	Marzo	2023-03-26T00:00:00	2024-11-08T07:00:00	6	Velocidad del viento	3.2
184494	7	Sololá	716	San Marcos la Laguna 	11	San Marcos la laguna 	3	Marzo	2023-03-26T00:00:00	2024-11-08T07:00:00	7	Dirección del viento	3.22
184495	7	Sololá	716	San Marcos la Laguna 	11	San Marcos la laguna 	3	Marzo	2023-03-26T00:00:00	2024-11-08T07:00:00	1	Precipitación	0
184496	7	Sololá	716	San Marcos la Laguna 	11	San Marcos la laguna 	3	Marzo	2023-03-26T00:00:00	2024-11-08T07:00:00	8	Radiación solar	30
184497	7	Sololá	716	San Marcos la Laguna 	11	San Marcos la laguna 	3	Marzo	2023-03-26T00:00:00	2024-11-08T08:00:00	2	Temperatura media	18.1
184498	7	Sololá	716	San Marcos la Laguna 	11	San Marcos la laguna 	3	Marzo	2023-03-26T00:00:00	2024-11-08T08:00:00	4	Temperatura máxima	18.1
184499	7	Sololá	716	San Marcos la Laguna 	11	San Marcos la laguna 	3	Marzo	2023-03-26T00:00:00	2024-11-08T08:00:00	3	Temperatura mínima	17.3
184500	7	Sololá	716	San Marcos la Laguna 	11	San Marcos la laguna 	3	Marzo	2023-03-26T00:00:00	2024-11-08T08:00:00	5	Humedad	82
184501	7	Sololá	716	San Marcos la Laguna 	11	San Marcos la laguna 	3	Marzo	2023-03-26T00:00:00	2024-11-08T08:00:00	6	Velocidad del viento	6.4
184502	7	Sololá	716	San Marcos la Laguna 	11	San Marcos la laguna 	3	Marzo	2023-03-26T00:00:00	2024-11-08T08:00:00	7	Dirección del viento	6.44
184503	7	Sololá	716	San Marcos la Laguna 	11	San Marcos la laguna 	3	Marzo	2023-03-26T00:00:00	2024-11-08T08:00:00	1	Precipitación	0
184504	7	Sololá	716	San Marcos la Laguna 	11	San Marcos la laguna 	3	Marzo	2023-03-26T00:00:00	2024-11-08T08:00:00	8	Radiación solar	87
184505	7	Sololá	716	San Marcos la Laguna 	11	San Marcos la laguna 	3	Marzo	2023-03-26T00:00:00	2024-11-08T09:00:00	2	Temperatura media	18.2
184506	7	Sololá	716	San Marcos la Laguna 	11	San Marcos la laguna 	3	Marzo	2023-03-26T00:00:00	2024-11-08T09:00:00	4	Temperatura máxima	18.2
184507	7	Sololá	716	San Marcos la Laguna 	11	San Marcos la laguna 	3	Marzo	2023-03-26T00:00:00	2024-11-08T09:00:00	3	Temperatura mínima	17.9
184508	7	Sololá	716	San Marcos la Laguna 	11	San Marcos la laguna 	3	Marzo	2023-03-26T00:00:00	2024-11-08T09:00:00	5	Humedad	81
184509	7	Sololá	716	San Marcos la Laguna 	11	San Marcos la laguna 	3	Marzo	2023-03-26T00:00:00	2024-11-08T09:00:00	6	Velocidad del viento	3.2
184510	7	Sololá	716	San Marcos la Laguna 	11	San Marcos la laguna 	3	Marzo	2023-03-26T00:00:00	2024-11-08T09:00:00	7	Dirección del viento	3.22
184511	7	Sololá	716	San Marcos la Laguna 	11	San Marcos la laguna 	3	Marzo	2023-03-26T00:00:00	2024-11-08T09:00:00	1	Precipitación	0
184512	7	Sololá	716	San Marcos la Laguna 	11	San Marcos la laguna 	3	Marzo	2023-03-26T00:00:00	2024-11-08T09:00:00	8	Radiación solar	94
184513	7	Sololá	716	San Marcos la Laguna 	11	San Marcos la laguna 	3	Marzo	2023-03-26T00:00:00	2024-11-08T10:00:00	2	Temperatura media	19.5
184514	7	Sololá	716	San Marcos la Laguna 	11	San Marcos la laguna 	3	Marzo	2023-03-26T00:00:00	2024-11-08T10:00:00	4	Temperatura máxima	19.5
184515	7	Sololá	716	San Marcos la Laguna 	11	San Marcos la laguna 	3	Marzo	2023-03-26T00:00:00	2024-11-08T10:00:00	3	Temperatura mínima	18.2
184516	7	Sololá	716	San Marcos la Laguna 	11	San Marcos la laguna 	3	Marzo	2023-03-26T00:00:00	2024-11-08T10:00:00	5	Humedad	75
184517	7	Sololá	716	San Marcos la Laguna 	11	San Marcos la laguna 	3	Marzo	2023-03-26T00:00:00	2024-11-08T10:00:00	6	Velocidad del viento	6.4
184518	7	Sololá	716	San Marcos la Laguna 	11	San Marcos la laguna 	3	Marzo	2023-03-26T00:00:00	2024-11-08T10:00:00	7	Dirección del viento	6.44
184519	7	Sololá	716	San Marcos la Laguna 	11	San Marcos la laguna 	3	Marzo	2023-03-26T00:00:00	2024-11-08T10:00:00	1	Precipitación	0
184520	7	Sololá	716	San Marcos la Laguna 	11	San Marcos la laguna 	3	Marzo	2023-03-26T00:00:00	2024-11-08T10:00:00	8	Radiación solar	309
184521	7	Sololá	716	San Marcos la Laguna 	11	San Marcos la laguna 	3	Marzo	2023-03-26T00:00:00	2024-11-08T11:00:00	2	Temperatura media	20.7
184522	7	Sololá	716	San Marcos la Laguna 	11	San Marcos la laguna 	3	Marzo	2023-03-26T00:00:00	2024-11-08T11:00:00	4	Temperatura máxima	21.9
184523	7	Sololá	716	San Marcos la Laguna 	11	San Marcos la laguna 	3	Marzo	2023-03-26T00:00:00	2024-11-08T11:00:00	3	Temperatura mínima	19.5
184524	7	Sololá	716	San Marcos la Laguna 	11	San Marcos la laguna 	3	Marzo	2023-03-26T00:00:00	2024-11-08T11:00:00	5	Humedad	71
184525	7	Sololá	716	San Marcos la Laguna 	11	San Marcos la laguna 	3	Marzo	2023-03-26T00:00:00	2024-11-08T11:00:00	6	Velocidad del viento	6.4
184526	7	Sololá	716	San Marcos la Laguna 	11	San Marcos la laguna 	3	Marzo	2023-03-26T00:00:00	2024-11-08T11:00:00	7	Dirección del viento	6.44
184527	7	Sololá	716	San Marcos la Laguna 	11	San Marcos la laguna 	3	Marzo	2023-03-26T00:00:00	2024-11-08T11:00:00	1	Precipitación	0
184528	7	Sololá	716	San Marcos la Laguna 	11	San Marcos la laguna 	3	Marzo	2023-03-26T00:00:00	2024-11-08T11:00:00	8	Radiación solar	867
184529	7	Sololá	716	San Marcos la Laguna 	11	San Marcos la laguna 	3	Marzo	2023-03-26T00:00:00	2024-11-08T12:00:00	2	Temperatura media	20.8
184530	7	Sololá	716	San Marcos la Laguna 	11	San Marcos la laguna 	3	Marzo	2023-03-26T00:00:00	2024-11-08T12:00:00	4	Temperatura máxima	20.9
184531	7	Sololá	716	San Marcos la Laguna 	11	San Marcos la laguna 	3	Marzo	2023-03-26T00:00:00	2024-11-08T12:00:00	3	Temperatura mínima	20.3
184532	7	Sololá	716	San Marcos la Laguna 	11	San Marcos la laguna 	3	Marzo	2023-03-26T00:00:00	2024-11-08T12:00:00	5	Humedad	73
184533	7	Sololá	716	San Marcos la Laguna 	11	San Marcos la laguna 	3	Marzo	2023-03-26T00:00:00	2024-11-08T12:00:00	6	Velocidad del viento	14.5
184534	7	Sololá	716	San Marcos la Laguna 	11	San Marcos la laguna 	3	Marzo	2023-03-26T00:00:00	2024-11-08T12:00:00	7	Dirección del viento	14.48
184535	7	Sololá	716	San Marcos la Laguna 	11	San Marcos la laguna 	3	Marzo	2023-03-26T00:00:00	2024-11-08T12:00:00	1	Precipitación	0
184536	7	Sololá	716	San Marcos la Laguna 	11	San Marcos la laguna 	3	Marzo	2023-03-26T00:00:00	2024-11-08T12:00:00	8	Radiación solar	923
184537	7	Sololá	716	San Marcos la Laguna 	11	San Marcos la laguna 	3	Marzo	2023-03-26T00:00:00	2024-11-08T13:00:00	2	Temperatura media	20.8
184538	7	Sololá	716	San Marcos la Laguna 	11	San Marcos la laguna 	3	Marzo	2023-03-26T00:00:00	2024-11-08T13:00:00	4	Temperatura máxima	21.2
184539	7	Sololá	716	San Marcos la Laguna 	11	San Marcos la laguna 	3	Marzo	2023-03-26T00:00:00	2024-11-08T13:00:00	3	Temperatura mínima	20.7
184540	7	Sololá	716	San Marcos la Laguna 	11	San Marcos la laguna 	3	Marzo	2023-03-26T00:00:00	2024-11-08T13:00:00	5	Humedad	75
184541	7	Sololá	716	San Marcos la Laguna 	11	San Marcos la laguna 	3	Marzo	2023-03-26T00:00:00	2024-11-08T13:00:00	6	Velocidad del viento	14.5
184542	7	Sololá	716	San Marcos la Laguna 	11	San Marcos la laguna 	3	Marzo	2023-03-26T00:00:00	2024-11-08T13:00:00	7	Dirección del viento	14.48
184543	7	Sololá	716	San Marcos la Laguna 	11	San Marcos la laguna 	3	Marzo	2023-03-26T00:00:00	2024-11-08T13:00:00	1	Precipitación	0
184544	7	Sololá	716	San Marcos la Laguna 	11	San Marcos la laguna 	3	Marzo	2023-03-26T00:00:00	2024-11-08T13:00:00	8	Radiación solar	948
184545	7	Sololá	716	San Marcos la Laguna 	11	San Marcos la laguna 	3	Marzo	2023-03-26T00:00:00	2024-11-08T14:00:00	2	Temperatura media	21.3
184546	7	Sololá	716	San Marcos la Laguna 	11	San Marcos la laguna 	3	Marzo	2023-03-26T00:00:00	2024-11-08T14:00:00	4	Temperatura máxima	21.6
184547	7	Sololá	716	San Marcos la Laguna 	11	San Marcos la laguna 	3	Marzo	2023-03-26T00:00:00	2024-11-08T14:00:00	3	Temperatura mínima	20.8
184548	7	Sololá	716	San Marcos la Laguna 	11	San Marcos la laguna 	3	Marzo	2023-03-26T00:00:00	2024-11-08T14:00:00	5	Humedad	77
184549	7	Sololá	716	San Marcos la Laguna 	11	San Marcos la laguna 	3	Marzo	2023-03-26T00:00:00	2024-11-08T14:00:00	6	Velocidad del viento	12.9
184550	7	Sololá	716	San Marcos la Laguna 	11	San Marcos la laguna 	3	Marzo	2023-03-26T00:00:00	2024-11-08T14:00:00	7	Dirección del viento	12.87
184551	7	Sololá	716	San Marcos la Laguna 	11	San Marcos la laguna 	3	Marzo	2023-03-26T00:00:00	2024-11-08T14:00:00	1	Precipitación	0
184552	7	Sololá	716	San Marcos la Laguna 	11	San Marcos la laguna 	3	Marzo	2023-03-26T00:00:00	2024-11-08T14:00:00	8	Radiación solar	905
184553	7	Sololá	716	San Marcos la Laguna 	11	San Marcos la laguna 	3	Marzo	2023-03-26T00:00:00	2024-11-08T15:00:00	2	Temperatura media	21.7
184554	7	Sololá	716	San Marcos la Laguna 	11	San Marcos la laguna 	3	Marzo	2023-03-26T00:00:00	2024-11-08T15:00:00	4	Temperatura máxima	21.8
184555	7	Sololá	716	San Marcos la Laguna 	11	San Marcos la laguna 	3	Marzo	2023-03-26T00:00:00	2024-11-08T15:00:00	3	Temperatura mínima	20.9
184556	7	Sololá	716	San Marcos la Laguna 	11	San Marcos la laguna 	3	Marzo	2023-03-26T00:00:00	2024-11-08T15:00:00	5	Humedad	74
184557	7	Sololá	716	San Marcos la Laguna 	11	San Marcos la laguna 	3	Marzo	2023-03-26T00:00:00	2024-11-08T15:00:00	6	Velocidad del viento	9.7
184558	7	Sololá	716	San Marcos la Laguna 	11	San Marcos la laguna 	3	Marzo	2023-03-26T00:00:00	2024-11-08T15:00:00	7	Dirección del viento	9.66
184559	7	Sololá	716	San Marcos la Laguna 	11	San Marcos la laguna 	3	Marzo	2023-03-26T00:00:00	2024-11-08T15:00:00	1	Precipitación	0
184560	7	Sololá	716	San Marcos la Laguna 	11	San Marcos la laguna 	3	Marzo	2023-03-26T00:00:00	2024-11-08T15:00:00	8	Radiación solar	631
184561	7	Sololá	716	San Marcos la Laguna 	11	San Marcos la laguna 	3	Marzo	2023-03-26T00:00:00	2024-11-08T16:00:00	2	Temperatura media	20.3
184562	7	Sololá	716	San Marcos la Laguna 	11	San Marcos la laguna 	3	Marzo	2023-03-26T00:00:00	2024-11-08T16:00:00	4	Temperatura máxima	21.8
184563	7	Sololá	716	San Marcos la Laguna 	11	San Marcos la laguna 	3	Marzo	2023-03-26T00:00:00	2024-11-08T16:00:00	3	Temperatura mínima	20.2
184564	7	Sololá	716	San Marcos la Laguna 	11	San Marcos la laguna 	3	Marzo	2023-03-26T00:00:00	2024-11-08T16:00:00	5	Humedad	79
184565	7	Sololá	716	San Marcos la Laguna 	11	San Marcos la laguna 	3	Marzo	2023-03-26T00:00:00	2024-11-08T16:00:00	6	Velocidad del viento	9.7
184566	7	Sololá	716	San Marcos la Laguna 	11	San Marcos la laguna 	3	Marzo	2023-03-26T00:00:00	2024-11-08T16:00:00	7	Dirección del viento	9.66
184567	7	Sololá	716	San Marcos la Laguna 	11	San Marcos la laguna 	3	Marzo	2023-03-26T00:00:00	2024-11-08T16:00:00	1	Precipitación	0
184568	7	Sololá	716	San Marcos la Laguna 	11	San Marcos la laguna 	3	Marzo	2023-03-26T00:00:00	2024-11-08T16:00:00	8	Radiación solar	287
184569	7	Sololá	716	San Marcos la Laguna 	11	San Marcos la laguna 	3	Marzo	2023-03-26T00:00:00	2024-11-08T17:00:00	2	Temperatura media	20.4
184570	7	Sololá	716	San Marcos la Laguna 	11	San Marcos la laguna 	3	Marzo	2023-03-26T00:00:00	2024-11-08T17:00:00	4	Temperatura máxima	20.5
184571	7	Sololá	716	San Marcos la Laguna 	11	San Marcos la laguna 	3	Marzo	2023-03-26T00:00:00	2024-11-08T17:00:00	3	Temperatura mínima	20.1
184572	7	Sololá	716	San Marcos la Laguna 	11	San Marcos la laguna 	3	Marzo	2023-03-26T00:00:00	2024-11-08T17:00:00	5	Humedad	79
184573	7	Sololá	716	San Marcos la Laguna 	11	San Marcos la laguna 	3	Marzo	2023-03-26T00:00:00	2024-11-08T17:00:00	6	Velocidad del viento	9.7
184574	7	Sololá	716	San Marcos la Laguna 	11	San Marcos la laguna 	3	Marzo	2023-03-26T00:00:00	2024-11-08T17:00:00	7	Dirección del viento	9.66
184575	7	Sololá	716	San Marcos la Laguna 	11	San Marcos la laguna 	3	Marzo	2023-03-26T00:00:00	2024-11-08T17:00:00	1	Precipitación	0
184576	7	Sololá	716	San Marcos la Laguna 	11	San Marcos la laguna 	3	Marzo	2023-03-26T00:00:00	2024-11-08T17:00:00	8	Radiación solar	182
184577	7	Sololá	716	San Marcos la Laguna 	11	San Marcos la laguna 	3	Marzo	2023-03-26T00:00:00	2024-11-08T18:00:00	2	Temperatura media	19.9
184578	7	Sololá	716	San Marcos la Laguna 	11	San Marcos la laguna 	3	Marzo	2023-03-26T00:00:00	2024-11-08T18:00:00	4	Temperatura máxima	20.4
184579	7	Sololá	716	San Marcos la Laguna 	11	San Marcos la laguna 	3	Marzo	2023-03-26T00:00:00	2024-11-08T18:00:00	3	Temperatura mínima	19.8
184580	7	Sololá	716	San Marcos la Laguna 	11	San Marcos la laguna 	3	Marzo	2023-03-26T00:00:00	2024-11-08T18:00:00	5	Humedad	82
184581	7	Sololá	716	San Marcos la Laguna 	11	San Marcos la laguna 	3	Marzo	2023-03-26T00:00:00	2024-11-08T18:00:00	6	Velocidad del viento	9.7
184582	7	Sololá	716	San Marcos la Laguna 	11	San Marcos la laguna 	3	Marzo	2023-03-26T00:00:00	2024-11-08T18:00:00	7	Dirección del viento	9.66
184583	7	Sololá	716	San Marcos la Laguna 	11	San Marcos la laguna 	3	Marzo	2023-03-26T00:00:00	2024-11-08T18:00:00	1	Precipitación	0
184584	7	Sololá	716	San Marcos la Laguna 	11	San Marcos la laguna 	3	Marzo	2023-03-26T00:00:00	2024-11-08T18:00:00	8	Radiación solar	67
184585	7	Sololá	716	San Marcos la Laguna 	11	San Marcos la laguna 	3	Marzo	2023-03-26T00:00:00	2024-11-08T19:00:00	2	Temperatura media	19.8
184586	7	Sololá	716	San Marcos la Laguna 	11	San Marcos la laguna 	3	Marzo	2023-03-26T00:00:00	2024-11-08T19:00:00	4	Temperatura máxima	20.1
184587	7	Sololá	716	San Marcos la Laguna 	11	San Marcos la laguna 	3	Marzo	2023-03-26T00:00:00	2024-11-08T19:00:00	3	Temperatura mínima	19.8
184588	7	Sololá	716	San Marcos la Laguna 	11	San Marcos la laguna 	3	Marzo	2023-03-26T00:00:00	2024-11-08T19:00:00	5	Humedad	83
184589	7	Sololá	716	San Marcos la Laguna 	11	San Marcos la laguna 	3	Marzo	2023-03-26T00:00:00	2024-11-08T19:00:00	6	Velocidad del viento	1.6
184590	7	Sololá	716	San Marcos la Laguna 	11	San Marcos la laguna 	3	Marzo	2023-03-26T00:00:00	2024-11-08T19:00:00	7	Dirección del viento	1.61
184591	7	Sololá	716	San Marcos la Laguna 	11	San Marcos la laguna 	3	Marzo	2023-03-26T00:00:00	2024-11-08T19:00:00	1	Precipitación	0
184592	7	Sololá	716	San Marcos la Laguna 	11	San Marcos la laguna 	3	Marzo	2023-03-26T00:00:00	2024-11-08T19:00:00	8	Radiación solar	0
184593	7	Sololá	716	San Marcos la Laguna 	11	San Marcos la laguna 	3	Marzo	2023-03-26T00:00:00	2024-11-08T20:00:00	2	Temperatura media	18.6
184594	7	Sololá	716	San Marcos la Laguna 	11	San Marcos la laguna 	3	Marzo	2023-03-26T00:00:00	2024-11-08T20:00:00	4	Temperatura máxima	19.9
184595	7	Sololá	716	San Marcos la Laguna 	11	San Marcos la laguna 	3	Marzo	2023-03-26T00:00:00	2024-11-08T20:00:00	3	Temperatura mínima	18.5
184596	7	Sololá	716	San Marcos la Laguna 	11	San Marcos la laguna 	3	Marzo	2023-03-26T00:00:00	2024-11-08T20:00:00	5	Humedad	83
184597	7	Sololá	716	San Marcos la Laguna 	11	San Marcos la laguna 	3	Marzo	2023-03-26T00:00:00	2024-11-08T20:00:00	6	Velocidad del viento	3.2
184598	7	Sololá	716	San Marcos la Laguna 	11	San Marcos la laguna 	3	Marzo	2023-03-26T00:00:00	2024-11-08T20:00:00	7	Dirección del viento	3.22
184599	7	Sololá	716	San Marcos la Laguna 	11	San Marcos la laguna 	3	Marzo	2023-03-26T00:00:00	2024-11-08T20:00:00	1	Precipitación	0
184600	7	Sololá	716	San Marcos la Laguna 	11	San Marcos la laguna 	3	Marzo	2023-03-26T00:00:00	2024-11-08T20:00:00	8	Radiación solar	0
184601	7	Sololá	716	San Marcos la Laguna 	11	San Marcos la laguna 	3	Marzo	2023-03-26T00:00:00	2024-11-08T21:00:00	2	Temperatura media	18.1
184602	7	Sololá	716	San Marcos la Laguna 	11	San Marcos la laguna 	3	Marzo	2023-03-26T00:00:00	2024-11-08T21:00:00	4	Temperatura máxima	18.7
184603	7	Sololá	716	San Marcos la Laguna 	11	San Marcos la laguna 	3	Marzo	2023-03-26T00:00:00	2024-11-08T21:00:00	3	Temperatura mínima	18.1
184604	7	Sololá	716	San Marcos la Laguna 	11	San Marcos la laguna 	3	Marzo	2023-03-26T00:00:00	2024-11-08T21:00:00	5	Humedad	83
184605	7	Sololá	716	San Marcos la Laguna 	11	San Marcos la laguna 	3	Marzo	2023-03-26T00:00:00	2024-11-08T21:00:00	6	Velocidad del viento	4.8
184606	7	Sololá	716	San Marcos la Laguna 	11	San Marcos la laguna 	3	Marzo	2023-03-26T00:00:00	2024-11-08T21:00:00	7	Dirección del viento	4.83
184607	7	Sololá	716	San Marcos la Laguna 	11	San Marcos la laguna 	3	Marzo	2023-03-26T00:00:00	2024-11-08T21:00:00	1	Precipitación	0
184608	7	Sololá	716	San Marcos la Laguna 	11	San Marcos la laguna 	3	Marzo	2023-03-26T00:00:00	2024-11-08T21:00:00	8	Radiación solar	0
184609	7	Sololá	716	San Marcos la Laguna 	11	San Marcos la laguna 	3	Marzo	2023-03-26T00:00:00	2024-11-08T22:00:00	2	Temperatura media	18.2
184610	7	Sololá	716	San Marcos la Laguna 	11	San Marcos la laguna 	3	Marzo	2023-03-26T00:00:00	2024-11-08T22:00:00	4	Temperatura máxima	18.7
184611	7	Sololá	716	San Marcos la Laguna 	11	San Marcos la laguna 	3	Marzo	2023-03-26T00:00:00	2024-11-08T22:00:00	3	Temperatura mínima	18.1
184612	7	Sololá	716	San Marcos la Laguna 	11	San Marcos la laguna 	3	Marzo	2023-03-26T00:00:00	2024-11-08T22:00:00	5	Humedad	81
184613	7	Sololá	716	San Marcos la Laguna 	11	San Marcos la laguna 	3	Marzo	2023-03-26T00:00:00	2024-11-08T22:00:00	6	Velocidad del viento	4.8
184614	7	Sololá	716	San Marcos la Laguna 	11	San Marcos la laguna 	3	Marzo	2023-03-26T00:00:00	2024-11-08T22:00:00	7	Dirección del viento	4.83
184615	7	Sololá	716	San Marcos la Laguna 	11	San Marcos la laguna 	3	Marzo	2023-03-26T00:00:00	2024-11-08T22:00:00	1	Precipitación	0
184616	7	Sololá	716	San Marcos la Laguna 	11	San Marcos la laguna 	3	Marzo	2023-03-26T00:00:00	2024-11-08T22:00:00	8	Radiación solar	0
184617	7	Sololá	716	San Marcos la Laguna 	11	San Marcos la laguna 	3	Marzo	2023-03-26T00:00:00	2024-11-08T23:00:00	2	Temperatura media	18.5
184618	7	Sololá	716	San Marcos la Laguna 	11	San Marcos la laguna 	3	Marzo	2023-03-26T00:00:00	2024-11-08T23:00:00	4	Temperatura máxima	18.6
184619	7	Sololá	716	San Marcos la Laguna 	11	San Marcos la laguna 	3	Marzo	2023-03-26T00:00:00	2024-11-08T23:00:00	3	Temperatura mínima	17.7
184620	7	Sololá	716	San Marcos la Laguna 	11	San Marcos la laguna 	3	Marzo	2023-03-26T00:00:00	2024-11-08T23:00:00	5	Humedad	80
184621	7	Sololá	716	San Marcos la Laguna 	11	San Marcos la laguna 	3	Marzo	2023-03-26T00:00:00	2024-11-08T23:00:00	6	Velocidad del viento	6.4
184622	7	Sololá	716	San Marcos la Laguna 	11	San Marcos la laguna 	3	Marzo	2023-03-26T00:00:00	2024-11-08T23:00:00	7	Dirección del viento	6.44
184623	7	Sololá	716	San Marcos la Laguna 	11	San Marcos la laguna 	3	Marzo	2023-03-26T00:00:00	2024-11-08T23:00:00	1	Precipitación	0
184624	7	Sololá	716	San Marcos la Laguna 	11	San Marcos la laguna 	3	Marzo	2023-03-26T00:00:00	2024-11-08T23:00:00	8	Radiación solar	0
184625	7	Sololá	716	San Marcos la Laguna 	11	San Marcos la laguna 	3	Marzo	2023-03-27T00:00:00	2024-11-08T00:00:00	2	Temperatura media	17.7
184626	7	Sololá	716	San Marcos la Laguna 	11	San Marcos la laguna 	3	Marzo	2023-03-27T00:00:00	2024-11-08T00:00:00	4	Temperatura máxima	18.6
184627	7	Sololá	716	San Marcos la Laguna 	11	San Marcos la laguna 	3	Marzo	2023-03-27T00:00:00	2024-11-08T00:00:00	3	Temperatura mínima	17.5
184628	7	Sololá	716	San Marcos la Laguna 	11	San Marcos la laguna 	3	Marzo	2023-03-27T00:00:00	2024-11-08T00:00:00	5	Humedad	72
184629	7	Sololá	716	San Marcos la Laguna 	11	San Marcos la laguna 	3	Marzo	2023-03-27T00:00:00	2024-11-08T00:00:00	6	Velocidad del viento	4.8
184630	7	Sololá	716	San Marcos la Laguna 	11	San Marcos la laguna 	3	Marzo	2023-03-27T00:00:00	2024-11-08T00:00:00	7	Dirección del viento	4.83
184631	7	Sololá	716	San Marcos la Laguna 	11	San Marcos la laguna 	3	Marzo	2023-03-27T00:00:00	2024-11-08T00:00:00	1	Precipitación	0
184632	7	Sololá	716	San Marcos la Laguna 	11	San Marcos la laguna 	3	Marzo	2023-03-27T00:00:00	2024-11-08T00:00:00	8	Radiación solar	0
184633	7	Sololá	716	San Marcos la Laguna 	11	San Marcos la laguna 	3	Marzo	2023-03-27T00:00:00	2024-11-08T01:00:00	2	Temperatura media	17.2
184634	7	Sololá	716	San Marcos la Laguna 	11	San Marcos la laguna 	3	Marzo	2023-03-27T00:00:00	2024-11-08T01:00:00	4	Temperatura máxima	18.4
184635	7	Sololá	716	San Marcos la Laguna 	11	San Marcos la laguna 	3	Marzo	2023-03-27T00:00:00	2024-11-08T01:00:00	3	Temperatura mínima	16.9
184636	7	Sololá	716	San Marcos la Laguna 	11	San Marcos la laguna 	3	Marzo	2023-03-27T00:00:00	2024-11-08T01:00:00	5	Humedad	84
184637	7	Sololá	716	San Marcos la Laguna 	11	San Marcos la laguna 	3	Marzo	2023-03-27T00:00:00	2024-11-08T01:00:00	6	Velocidad del viento	4.8
184638	7	Sololá	716	San Marcos la Laguna 	11	San Marcos la laguna 	3	Marzo	2023-03-27T00:00:00	2024-11-08T01:00:00	7	Dirección del viento	4.83
184639	7	Sololá	716	San Marcos la Laguna 	11	San Marcos la laguna 	3	Marzo	2023-03-27T00:00:00	2024-11-08T01:00:00	1	Precipitación	0
184640	7	Sololá	716	San Marcos la Laguna 	11	San Marcos la laguna 	3	Marzo	2023-03-27T00:00:00	2024-11-08T01:00:00	8	Radiación solar	0
184641	7	Sololá	716	San Marcos la Laguna 	11	San Marcos la laguna 	3	Marzo	2023-03-27T00:00:00	2024-11-08T02:00:00	2	Temperatura media	17.5
184642	7	Sololá	716	San Marcos la Laguna 	11	San Marcos la laguna 	3	Marzo	2023-03-27T00:00:00	2024-11-08T02:00:00	4	Temperatura máxima	17.6
184643	7	Sololá	716	San Marcos la Laguna 	11	San Marcos la laguna 	3	Marzo	2023-03-27T00:00:00	2024-11-08T02:00:00	3	Temperatura mínima	17.2
184644	7	Sololá	716	San Marcos la Laguna 	11	San Marcos la laguna 	3	Marzo	2023-03-27T00:00:00	2024-11-08T02:00:00	5	Humedad	83
184645	7	Sololá	716	San Marcos la Laguna 	11	San Marcos la laguna 	3	Marzo	2023-03-27T00:00:00	2024-11-08T02:00:00	6	Velocidad del viento	4.8
184646	7	Sololá	716	San Marcos la Laguna 	11	San Marcos la laguna 	3	Marzo	2023-03-27T00:00:00	2024-11-08T02:00:00	7	Dirección del viento	4.83
184647	7	Sololá	716	San Marcos la Laguna 	11	San Marcos la laguna 	3	Marzo	2023-03-27T00:00:00	2024-11-08T02:00:00	1	Precipitación	0
184648	7	Sololá	716	San Marcos la Laguna 	11	San Marcos la laguna 	3	Marzo	2023-03-27T00:00:00	2024-11-08T02:00:00	8	Radiación solar	0
184649	7	Sololá	716	San Marcos la Laguna 	11	San Marcos la laguna 	3	Marzo	2023-03-27T00:00:00	2024-11-08T03:00:00	2	Temperatura media	17.4
184650	7	Sololá	716	San Marcos la Laguna 	11	San Marcos la laguna 	3	Marzo	2023-03-27T00:00:00	2024-11-08T03:00:00	4	Temperatura máxima	17.6
184651	7	Sololá	716	San Marcos la Laguna 	11	San Marcos la laguna 	3	Marzo	2023-03-27T00:00:00	2024-11-08T03:00:00	3	Temperatura mínima	17
184652	7	Sololá	716	San Marcos la Laguna 	11	San Marcos la laguna 	3	Marzo	2023-03-27T00:00:00	2024-11-08T03:00:00	5	Humedad	84
184653	7	Sololá	716	San Marcos la Laguna 	11	San Marcos la laguna 	3	Marzo	2023-03-27T00:00:00	2024-11-08T03:00:00	6	Velocidad del viento	4.8
184654	7	Sololá	716	San Marcos la Laguna 	11	San Marcos la laguna 	3	Marzo	2023-03-27T00:00:00	2024-11-08T03:00:00	7	Dirección del viento	4.83
184655	7	Sololá	716	San Marcos la Laguna 	11	San Marcos la laguna 	3	Marzo	2023-03-27T00:00:00	2024-11-08T03:00:00	1	Precipitación	0
184656	7	Sololá	716	San Marcos la Laguna 	11	San Marcos la laguna 	3	Marzo	2023-03-27T00:00:00	2024-11-08T03:00:00	8	Radiación solar	0
184657	7	Sololá	716	San Marcos la Laguna 	11	San Marcos la laguna 	3	Marzo	2023-03-27T00:00:00	2024-11-08T04:00:00	2	Temperatura media	17.3
184658	7	Sololá	716	San Marcos la Laguna 	11	San Marcos la laguna 	3	Marzo	2023-03-27T00:00:00	2024-11-08T04:00:00	4	Temperatura máxima	17.6
184659	7	Sololá	716	San Marcos la Laguna 	11	San Marcos la laguna 	3	Marzo	2023-03-27T00:00:00	2024-11-08T04:00:00	3	Temperatura mínima	17.3
184660	7	Sololá	716	San Marcos la Laguna 	11	San Marcos la laguna 	3	Marzo	2023-03-27T00:00:00	2024-11-08T04:00:00	5	Humedad	81
184661	7	Sololá	716	San Marcos la Laguna 	11	San Marcos la laguna 	3	Marzo	2023-03-27T00:00:00	2024-11-08T04:00:00	6	Velocidad del viento	3.2
184662	7	Sololá	716	San Marcos la Laguna 	11	San Marcos la laguna 	3	Marzo	2023-03-27T00:00:00	2024-11-08T04:00:00	7	Dirección del viento	3.22
184663	7	Sololá	716	San Marcos la Laguna 	11	San Marcos la laguna 	3	Marzo	2023-03-27T00:00:00	2024-11-08T04:00:00	1	Precipitación	0
184664	7	Sololá	716	San Marcos la Laguna 	11	San Marcos la laguna 	3	Marzo	2023-03-27T00:00:00	2024-11-08T04:00:00	8	Radiación solar	0
184665	7	Sololá	716	San Marcos la Laguna 	11	San Marcos la laguna 	3	Marzo	2023-03-27T00:00:00	2024-11-08T05:00:00	2	Temperatura media	17.5
184666	7	Sololá	716	San Marcos la Laguna 	11	San Marcos la laguna 	3	Marzo	2023-03-27T00:00:00	2024-11-08T05:00:00	4	Temperatura máxima	17.6
184667	7	Sololá	716	San Marcos la Laguna 	11	San Marcos la laguna 	3	Marzo	2023-03-27T00:00:00	2024-11-08T05:00:00	3	Temperatura mínima	16.9
184668	7	Sololá	716	San Marcos la Laguna 	11	San Marcos la laguna 	3	Marzo	2023-03-27T00:00:00	2024-11-08T05:00:00	5	Humedad	82
184669	7	Sololá	716	San Marcos la Laguna 	11	San Marcos la laguna 	3	Marzo	2023-03-27T00:00:00	2024-11-08T05:00:00	6	Velocidad del viento	4.8
184670	7	Sololá	716	San Marcos la Laguna 	11	San Marcos la laguna 	3	Marzo	2023-03-27T00:00:00	2024-11-08T05:00:00	7	Dirección del viento	4.83
184671	7	Sololá	716	San Marcos la Laguna 	11	San Marcos la laguna 	3	Marzo	2023-03-27T00:00:00	2024-11-08T05:00:00	1	Precipitación	0
184672	7	Sololá	716	San Marcos la Laguna 	11	San Marcos la laguna 	3	Marzo	2023-03-27T00:00:00	2024-11-08T05:00:00	8	Radiación solar	0
184673	7	Sololá	716	San Marcos la Laguna 	11	San Marcos la laguna 	3	Marzo	2023-03-27T00:00:00	2024-11-08T06:00:00	2	Temperatura media	16.5
184674	7	Sololá	716	San Marcos la Laguna 	11	San Marcos la laguna 	3	Marzo	2023-03-27T00:00:00	2024-11-08T06:00:00	4	Temperatura máxima	17.6
184675	7	Sololá	716	San Marcos la Laguna 	11	San Marcos la laguna 	3	Marzo	2023-03-27T00:00:00	2024-11-08T06:00:00	3	Temperatura mínima	16.5
184676	7	Sololá	716	San Marcos la Laguna 	11	San Marcos la laguna 	3	Marzo	2023-03-27T00:00:00	2024-11-08T06:00:00	5	Humedad	79
184677	7	Sololá	716	San Marcos la Laguna 	11	San Marcos la laguna 	3	Marzo	2023-03-27T00:00:00	2024-11-08T06:00:00	6	Velocidad del viento	6.4
184678	7	Sololá	716	San Marcos la Laguna 	11	San Marcos la laguna 	3	Marzo	2023-03-27T00:00:00	2024-11-08T06:00:00	7	Dirección del viento	6.44
184679	7	Sololá	716	San Marcos la Laguna 	11	San Marcos la laguna 	3	Marzo	2023-03-27T00:00:00	2024-11-08T06:00:00	1	Precipitación	0
184680	7	Sololá	716	San Marcos la Laguna 	11	San Marcos la laguna 	3	Marzo	2023-03-27T00:00:00	2024-11-08T06:00:00	8	Radiación solar	0
184681	7	Sololá	716	San Marcos la Laguna 	11	San Marcos la laguna 	3	Marzo	2023-03-27T00:00:00	2024-11-08T07:00:00	2	Temperatura media	16.7
184682	7	Sololá	716	San Marcos la Laguna 	11	San Marcos la laguna 	3	Marzo	2023-03-27T00:00:00	2024-11-08T07:00:00	4	Temperatura máxima	16.7
184683	7	Sololá	716	San Marcos la Laguna 	11	San Marcos la laguna 	3	Marzo	2023-03-27T00:00:00	2024-11-08T07:00:00	3	Temperatura mínima	16
184684	7	Sololá	716	San Marcos la Laguna 	11	San Marcos la laguna 	3	Marzo	2023-03-27T00:00:00	2024-11-08T07:00:00	5	Humedad	74
184685	7	Sololá	716	San Marcos la Laguna 	11	San Marcos la laguna 	3	Marzo	2023-03-27T00:00:00	2024-11-08T07:00:00	6	Velocidad del viento	6.4
184686	7	Sololá	716	San Marcos la Laguna 	11	San Marcos la laguna 	3	Marzo	2023-03-27T00:00:00	2024-11-08T07:00:00	7	Dirección del viento	6.44
184687	7	Sololá	716	San Marcos la Laguna 	11	San Marcos la laguna 	3	Marzo	2023-03-27T00:00:00	2024-11-08T07:00:00	1	Precipitación	0
184688	7	Sololá	716	San Marcos la Laguna 	11	San Marcos la laguna 	3	Marzo	2023-03-27T00:00:00	2024-11-08T07:00:00	8	Radiación solar	34
184689	7	Sololá	716	San Marcos la Laguna 	11	San Marcos la laguna 	3	Marzo	2023-03-27T00:00:00	2024-11-08T08:00:00	2	Temperatura media	20.1
184690	7	Sololá	716	San Marcos la Laguna 	11	San Marcos la laguna 	3	Marzo	2023-03-27T00:00:00	2024-11-08T08:00:00	4	Temperatura máxima	20.2
184691	7	Sololá	716	San Marcos la Laguna 	11	San Marcos la laguna 	3	Marzo	2023-03-27T00:00:00	2024-11-08T08:00:00	3	Temperatura mínima	16.6
184692	7	Sololá	716	San Marcos la Laguna 	11	San Marcos la laguna 	3	Marzo	2023-03-27T00:00:00	2024-11-08T08:00:00	5	Humedad	75
184693	7	Sololá	716	San Marcos la Laguna 	11	San Marcos la laguna 	3	Marzo	2023-03-27T00:00:00	2024-11-08T08:00:00	6	Velocidad del viento	4.8
184694	7	Sololá	716	San Marcos la Laguna 	11	San Marcos la laguna 	3	Marzo	2023-03-27T00:00:00	2024-11-08T08:00:00	7	Dirección del viento	4.83
184695	7	Sololá	716	San Marcos la Laguna 	11	San Marcos la laguna 	3	Marzo	2023-03-27T00:00:00	2024-11-08T08:00:00	1	Precipitación	0
184696	7	Sololá	716	San Marcos la Laguna 	11	San Marcos la laguna 	3	Marzo	2023-03-27T00:00:00	2024-11-08T08:00:00	8	Radiación solar	252
184697	7	Sololá	716	San Marcos la Laguna 	11	San Marcos la laguna 	3	Marzo	2023-03-27T00:00:00	2024-11-08T09:00:00	2	Temperatura media	20
184698	7	Sololá	716	San Marcos la Laguna 	11	San Marcos la laguna 	3	Marzo	2023-03-27T00:00:00	2024-11-08T09:00:00	4	Temperatura máxima	20.7
184699	7	Sololá	716	San Marcos la Laguna 	11	San Marcos la laguna 	3	Marzo	2023-03-27T00:00:00	2024-11-08T09:00:00	3	Temperatura mínima	20
184700	7	Sololá	716	San Marcos la Laguna 	11	San Marcos la laguna 	3	Marzo	2023-03-27T00:00:00	2024-11-08T09:00:00	5	Humedad	70
184701	7	Sololá	716	San Marcos la Laguna 	11	San Marcos la laguna 	3	Marzo	2023-03-27T00:00:00	2024-11-08T09:00:00	6	Velocidad del viento	4.8
184702	7	Sololá	716	San Marcos la Laguna 	11	San Marcos la laguna 	3	Marzo	2023-03-27T00:00:00	2024-11-08T09:00:00	7	Dirección del viento	4.83
184703	7	Sololá	716	San Marcos la Laguna 	11	San Marcos la laguna 	3	Marzo	2023-03-27T00:00:00	2024-11-08T09:00:00	1	Precipitación	0
184704	7	Sololá	716	San Marcos la Laguna 	11	San Marcos la laguna 	3	Marzo	2023-03-27T00:00:00	2024-11-08T09:00:00	8	Radiación solar	509
184705	7	Sololá	716	San Marcos la Laguna 	11	San Marcos la laguna 	3	Marzo	2023-03-27T00:00:00	2024-11-08T10:00:00	2	Temperatura media	20.7
184706	7	Sololá	716	San Marcos la Laguna 	11	San Marcos la laguna 	3	Marzo	2023-03-27T00:00:00	2024-11-08T10:00:00	4	Temperatura máxima	20.8
184707	7	Sololá	716	San Marcos la Laguna 	11	San Marcos la laguna 	3	Marzo	2023-03-27T00:00:00	2024-11-08T10:00:00	3	Temperatura mínima	19.8
184708	7	Sololá	716	San Marcos la Laguna 	11	San Marcos la laguna 	3	Marzo	2023-03-27T00:00:00	2024-11-08T10:00:00	5	Humedad	70
184709	7	Sololá	716	San Marcos la Laguna 	11	San Marcos la laguna 	3	Marzo	2023-03-27T00:00:00	2024-11-08T10:00:00	6	Velocidad del viento	9.7
184710	7	Sololá	716	San Marcos la Laguna 	11	San Marcos la laguna 	3	Marzo	2023-03-27T00:00:00	2024-11-08T10:00:00	7	Dirección del viento	9.66
184711	7	Sololá	716	San Marcos la Laguna 	11	San Marcos la laguna 	3	Marzo	2023-03-27T00:00:00	2024-11-08T10:00:00	1	Precipitación	0
184712	7	Sololá	716	San Marcos la Laguna 	11	San Marcos la laguna 	3	Marzo	2023-03-27T00:00:00	2024-11-08T10:00:00	8	Radiación solar	670
184713	7	Sololá	716	San Marcos la Laguna 	11	San Marcos la laguna 	3	Marzo	2023-03-27T00:00:00	2024-11-08T11:00:00	2	Temperatura media	22.2
184714	7	Sololá	716	San Marcos la Laguna 	11	San Marcos la laguna 	3	Marzo	2023-03-27T00:00:00	2024-11-08T11:00:00	4	Temperatura máxima	22.3
184715	7	Sololá	716	San Marcos la Laguna 	11	San Marcos la laguna 	3	Marzo	2023-03-27T00:00:00	2024-11-08T11:00:00	3	Temperatura mínima	20.6
184716	7	Sololá	716	San Marcos la Laguna 	11	San Marcos la laguna 	3	Marzo	2023-03-27T00:00:00	2024-11-08T11:00:00	5	Humedad	64
184717	7	Sololá	716	San Marcos la Laguna 	11	San Marcos la laguna 	3	Marzo	2023-03-27T00:00:00	2024-11-08T11:00:00	6	Velocidad del viento	8
184718	7	Sololá	716	San Marcos la Laguna 	11	San Marcos la laguna 	3	Marzo	2023-03-27T00:00:00	2024-11-08T11:00:00	7	Dirección del viento	8.05
184719	7	Sololá	716	San Marcos la Laguna 	11	San Marcos la laguna 	3	Marzo	2023-03-27T00:00:00	2024-11-08T11:00:00	1	Precipitación	0
184720	7	Sololá	716	San Marcos la Laguna 	11	San Marcos la laguna 	3	Marzo	2023-03-27T00:00:00	2024-11-08T11:00:00	8	Radiación solar	808
184721	7	Sololá	716	San Marcos la Laguna 	11	San Marcos la laguna 	3	Marzo	2023-03-27T00:00:00	2024-11-08T12:00:00	2	Temperatura media	21.8
184722	7	Sololá	716	San Marcos la Laguna 	11	San Marcos la laguna 	3	Marzo	2023-03-27T00:00:00	2024-11-08T12:00:00	4	Temperatura máxima	22.6
184723	7	Sololá	716	San Marcos la Laguna 	11	San Marcos la laguna 	3	Marzo	2023-03-27T00:00:00	2024-11-08T12:00:00	3	Temperatura mínima	21.8
184724	7	Sololá	716	San Marcos la Laguna 	11	San Marcos la laguna 	3	Marzo	2023-03-27T00:00:00	2024-11-08T12:00:00	5	Humedad	71
184725	7	Sololá	716	San Marcos la Laguna 	11	San Marcos la laguna 	3	Marzo	2023-03-27T00:00:00	2024-11-08T12:00:00	6	Velocidad del viento	11.3
184726	7	Sololá	716	San Marcos la Laguna 	11	San Marcos la laguna 	3	Marzo	2023-03-27T00:00:00	2024-11-08T12:00:00	7	Dirección del viento	11.27
184727	7	Sololá	716	San Marcos la Laguna 	11	San Marcos la laguna 	3	Marzo	2023-03-27T00:00:00	2024-11-08T12:00:00	1	Precipitación	0
184728	7	Sololá	716	San Marcos la Laguna 	11	San Marcos la laguna 	3	Marzo	2023-03-27T00:00:00	2024-11-08T12:00:00	8	Radiación solar	913
184729	7	Sololá	716	San Marcos la Laguna 	11	San Marcos la laguna 	3	Marzo	2023-03-27T00:00:00	2024-11-08T13:00:00	2	Temperatura media	22.7
184730	7	Sololá	716	San Marcos la Laguna 	11	San Marcos la laguna 	3	Marzo	2023-03-27T00:00:00	2024-11-08T13:00:00	4	Temperatura máxima	22.7
184731	7	Sololá	716	San Marcos la Laguna 	11	San Marcos la laguna 	3	Marzo	2023-03-27T00:00:00	2024-11-08T13:00:00	3	Temperatura mínima	21.7
184732	7	Sololá	716	San Marcos la Laguna 	11	San Marcos la laguna 	3	Marzo	2023-03-27T00:00:00	2024-11-08T13:00:00	5	Humedad	73
184733	7	Sololá	716	San Marcos la Laguna 	11	San Marcos la laguna 	3	Marzo	2023-03-27T00:00:00	2024-11-08T13:00:00	6	Velocidad del viento	12.9
184734	7	Sololá	716	San Marcos la Laguna 	11	San Marcos la laguna 	3	Marzo	2023-03-27T00:00:00	2024-11-08T13:00:00	7	Dirección del viento	12.87
184735	7	Sololá	716	San Marcos la Laguna 	11	San Marcos la laguna 	3	Marzo	2023-03-27T00:00:00	2024-11-08T13:00:00	1	Precipitación	0
184736	7	Sololá	716	San Marcos la Laguna 	11	San Marcos la laguna 	3	Marzo	2023-03-27T00:00:00	2024-11-08T13:00:00	8	Radiación solar	938
184737	7	Sololá	716	San Marcos la Laguna 	11	San Marcos la laguna 	3	Marzo	2023-03-27T00:00:00	2024-11-08T14:00:00	2	Temperatura media	22.7
184738	7	Sololá	716	San Marcos la Laguna 	11	San Marcos la laguna 	3	Marzo	2023-03-27T00:00:00	2024-11-08T14:00:00	4	Temperatura máxima	23.4
184739	7	Sololá	716	San Marcos la Laguna 	11	San Marcos la laguna 	3	Marzo	2023-03-27T00:00:00	2024-11-08T14:00:00	3	Temperatura mínima	22.2
184740	7	Sololá	716	San Marcos la Laguna 	11	San Marcos la laguna 	3	Marzo	2023-03-27T00:00:00	2024-11-08T14:00:00	5	Humedad	71
184741	7	Sololá	716	San Marcos la Laguna 	11	San Marcos la laguna 	3	Marzo	2023-03-27T00:00:00	2024-11-08T14:00:00	6	Velocidad del viento	9.7
184742	7	Sololá	716	San Marcos la Laguna 	11	San Marcos la laguna 	3	Marzo	2023-03-27T00:00:00	2024-11-08T14:00:00	7	Dirección del viento	9.66
184743	7	Sololá	716	San Marcos la Laguna 	11	San Marcos la laguna 	3	Marzo	2023-03-27T00:00:00	2024-11-08T14:00:00	1	Precipitación	0
184744	7	Sololá	716	San Marcos la Laguna 	11	San Marcos la laguna 	3	Marzo	2023-03-27T00:00:00	2024-11-08T14:00:00	8	Radiación solar	901
184745	7	Sololá	716	San Marcos la Laguna 	11	San Marcos la laguna 	3	Marzo	2023-03-27T00:00:00	2024-11-08T15:00:00	2	Temperatura media	21.8
184746	7	Sololá	716	San Marcos la Laguna 	11	San Marcos la laguna 	3	Marzo	2023-03-27T00:00:00	2024-11-08T15:00:00	4	Temperatura máxima	23
184747	7	Sololá	716	San Marcos la Laguna 	11	San Marcos la laguna 	3	Marzo	2023-03-27T00:00:00	2024-11-08T15:00:00	3	Temperatura mínima	21.8
184748	7	Sololá	716	San Marcos la Laguna 	11	San Marcos la laguna 	3	Marzo	2023-03-27T00:00:00	2024-11-08T15:00:00	5	Humedad	74
184749	7	Sololá	716	San Marcos la Laguna 	11	San Marcos la laguna 	3	Marzo	2023-03-27T00:00:00	2024-11-08T15:00:00	6	Velocidad del viento	8
184750	7	Sololá	716	San Marcos la Laguna 	11	San Marcos la laguna 	3	Marzo	2023-03-27T00:00:00	2024-11-08T15:00:00	7	Dirección del viento	8.05
184751	7	Sololá	716	San Marcos la Laguna 	11	San Marcos la laguna 	3	Marzo	2023-03-27T00:00:00	2024-11-08T15:00:00	1	Precipitación	0
184752	7	Sololá	716	San Marcos la Laguna 	11	San Marcos la laguna 	3	Marzo	2023-03-27T00:00:00	2024-11-08T15:00:00	8	Radiación solar	469
184753	7	Sololá	716	San Marcos la Laguna 	11	San Marcos la laguna 	3	Marzo	2023-03-27T00:00:00	2024-11-08T16:00:00	2	Temperatura media	21.9
184754	7	Sololá	716	San Marcos la Laguna 	11	San Marcos la laguna 	3	Marzo	2023-03-27T00:00:00	2024-11-08T16:00:00	4	Temperatura máxima	22
184755	7	Sololá	716	San Marcos la Laguna 	11	San Marcos la laguna 	3	Marzo	2023-03-27T00:00:00	2024-11-08T16:00:00	3	Temperatura mínima	21.2
184756	7	Sololá	716	San Marcos la Laguna 	11	San Marcos la laguna 	3	Marzo	2023-03-27T00:00:00	2024-11-08T16:00:00	5	Humedad	74
184757	7	Sololá	716	San Marcos la Laguna 	11	San Marcos la laguna 	3	Marzo	2023-03-27T00:00:00	2024-11-08T16:00:00	6	Velocidad del viento	11.3
184758	7	Sololá	716	San Marcos la Laguna 	11	San Marcos la laguna 	3	Marzo	2023-03-27T00:00:00	2024-11-08T16:00:00	7	Dirección del viento	11.27
184759	7	Sololá	716	San Marcos la Laguna 	11	San Marcos la laguna 	3	Marzo	2023-03-27T00:00:00	2024-11-08T16:00:00	1	Precipitación	0
184760	7	Sololá	716	San Marcos la Laguna 	11	San Marcos la laguna 	3	Marzo	2023-03-27T00:00:00	2024-11-08T16:00:00	8	Radiación solar	470
184761	7	Sololá	716	San Marcos la Laguna 	11	San Marcos la laguna 	3	Marzo	2023-03-27T00:00:00	2024-11-08T17:00:00	2	Temperatura media	21.4
184762	7	Sololá	716	San Marcos la Laguna 	11	San Marcos la laguna 	3	Marzo	2023-03-27T00:00:00	2024-11-08T17:00:00	4	Temperatura máxima	21.9
184763	7	Sololá	716	San Marcos la Laguna 	11	San Marcos la laguna 	3	Marzo	2023-03-27T00:00:00	2024-11-08T17:00:00	3	Temperatura mínima	21.4
184764	7	Sololá	716	San Marcos la Laguna 	11	San Marcos la laguna 	3	Marzo	2023-03-27T00:00:00	2024-11-08T17:00:00	5	Humedad	75
184765	7	Sololá	716	San Marcos la Laguna 	11	San Marcos la laguna 	3	Marzo	2023-03-27T00:00:00	2024-11-08T17:00:00	6	Velocidad del viento	11.3
184766	7	Sololá	716	San Marcos la Laguna 	11	San Marcos la laguna 	3	Marzo	2023-03-27T00:00:00	2024-11-08T17:00:00	7	Dirección del viento	11.27
184767	7	Sololá	716	San Marcos la Laguna 	11	San Marcos la laguna 	3	Marzo	2023-03-27T00:00:00	2024-11-08T17:00:00	1	Precipitación	0
184768	7	Sololá	716	San Marcos la Laguna 	11	San Marcos la laguna 	3	Marzo	2023-03-27T00:00:00	2024-11-08T17:00:00	8	Radiación solar	312
184769	7	Sololá	716	San Marcos la Laguna 	11	San Marcos la laguna 	3	Marzo	2023-03-27T00:00:00	2024-11-08T18:00:00	2	Temperatura media	20.8
184770	7	Sololá	716	San Marcos la Laguna 	11	San Marcos la laguna 	3	Marzo	2023-03-27T00:00:00	2024-11-08T18:00:00	4	Temperatura máxima	21.5
184771	7	Sololá	716	San Marcos la Laguna 	11	San Marcos la laguna 	3	Marzo	2023-03-27T00:00:00	2024-11-08T18:00:00	3	Temperatura mínima	20.8
184772	7	Sololá	716	San Marcos la Laguna 	11	San Marcos la laguna 	3	Marzo	2023-03-27T00:00:00	2024-11-08T18:00:00	5	Humedad	79
184773	7	Sololá	716	San Marcos la Laguna 	11	San Marcos la laguna 	3	Marzo	2023-03-27T00:00:00	2024-11-08T18:00:00	6	Velocidad del viento	8
184774	7	Sololá	716	San Marcos la Laguna 	11	San Marcos la laguna 	3	Marzo	2023-03-27T00:00:00	2024-11-08T18:00:00	7	Dirección del viento	8.05
184775	7	Sololá	716	San Marcos la Laguna 	11	San Marcos la laguna 	3	Marzo	2023-03-27T00:00:00	2024-11-08T18:00:00	1	Precipitación	0
184776	7	Sololá	716	San Marcos la Laguna 	11	San Marcos la laguna 	3	Marzo	2023-03-27T00:00:00	2024-11-08T18:00:00	8	Radiación solar	65
184777	7	Sololá	716	San Marcos la Laguna 	11	San Marcos la laguna 	3	Marzo	2023-03-27T00:00:00	2024-11-08T19:00:00	2	Temperatura media	19.9
184778	7	Sololá	716	San Marcos la Laguna 	11	San Marcos la laguna 	3	Marzo	2023-03-27T00:00:00	2024-11-08T19:00:00	4	Temperatura máxima	20.8
184779	7	Sololá	716	San Marcos la Laguna 	11	San Marcos la laguna 	3	Marzo	2023-03-27T00:00:00	2024-11-08T19:00:00	3	Temperatura mínima	19.9
184780	7	Sololá	716	San Marcos la Laguna 	11	San Marcos la laguna 	3	Marzo	2023-03-27T00:00:00	2024-11-08T19:00:00	5	Humedad	78
184781	7	Sololá	716	San Marcos la Laguna 	11	San Marcos la laguna 	3	Marzo	2023-03-27T00:00:00	2024-11-08T19:00:00	6	Velocidad del viento	3.2
184782	7	Sololá	716	San Marcos la Laguna 	11	San Marcos la laguna 	3	Marzo	2023-03-27T00:00:00	2024-11-08T19:00:00	7	Dirección del viento	3.22
184783	7	Sololá	716	San Marcos la Laguna 	11	San Marcos la laguna 	3	Marzo	2023-03-27T00:00:00	2024-11-08T19:00:00	1	Precipitación	0
184784	7	Sololá	716	San Marcos la Laguna 	11	San Marcos la laguna 	3	Marzo	2023-03-27T00:00:00	2024-11-08T19:00:00	8	Radiación solar	0
184785	7	Sololá	716	San Marcos la Laguna 	11	San Marcos la laguna 	3	Marzo	2023-03-27T00:00:00	2024-11-08T20:00:00	2	Temperatura media	19.4
184786	7	Sololá	716	San Marcos la Laguna 	11	San Marcos la laguna 	3	Marzo	2023-03-27T00:00:00	2024-11-08T20:00:00	4	Temperatura máxima	20
184787	7	Sololá	716	San Marcos la Laguna 	11	San Marcos la laguna 	3	Marzo	2023-03-27T00:00:00	2024-11-08T20:00:00	3	Temperatura mínima	19.3
184788	7	Sololá	716	San Marcos la Laguna 	11	San Marcos la laguna 	3	Marzo	2023-03-27T00:00:00	2024-11-08T20:00:00	5	Humedad	78
184789	7	Sololá	716	San Marcos la Laguna 	11	San Marcos la laguna 	3	Marzo	2023-03-27T00:00:00	2024-11-08T20:00:00	6	Velocidad del viento	3.2
184790	7	Sololá	716	San Marcos la Laguna 	11	San Marcos la laguna 	3	Marzo	2023-03-27T00:00:00	2024-11-08T20:00:00	7	Dirección del viento	3.22
184791	7	Sololá	716	San Marcos la Laguna 	11	San Marcos la laguna 	3	Marzo	2023-03-27T00:00:00	2024-11-08T20:00:00	1	Precipitación	0
184792	7	Sololá	716	San Marcos la Laguna 	11	San Marcos la laguna 	3	Marzo	2023-03-27T00:00:00	2024-11-08T20:00:00	8	Radiación solar	0
184793	7	Sololá	716	San Marcos la Laguna 	11	San Marcos la laguna 	3	Marzo	2023-03-27T00:00:00	2024-11-08T21:00:00	2	Temperatura media	18.9
184794	7	Sololá	716	San Marcos la Laguna 	11	San Marcos la laguna 	3	Marzo	2023-03-27T00:00:00	2024-11-08T21:00:00	4	Temperatura máxima	19.4
184795	7	Sololá	716	San Marcos la Laguna 	11	San Marcos la laguna 	3	Marzo	2023-03-27T00:00:00	2024-11-08T21:00:00	3	Temperatura mínima	18.8
184796	7	Sololá	716	San Marcos la Laguna 	11	San Marcos la laguna 	3	Marzo	2023-03-27T00:00:00	2024-11-08T21:00:00	5	Humedad	82
184797	7	Sololá	716	San Marcos la Laguna 	11	San Marcos la laguna 	3	Marzo	2023-03-27T00:00:00	2024-11-08T21:00:00	6	Velocidad del viento	3.2
184798	7	Sololá	716	San Marcos la Laguna 	11	San Marcos la laguna 	3	Marzo	2023-03-27T00:00:00	2024-11-08T21:00:00	7	Dirección del viento	3.22
184799	7	Sololá	716	San Marcos la Laguna 	11	San Marcos la laguna 	3	Marzo	2023-03-27T00:00:00	2024-11-08T21:00:00	1	Precipitación	0
184800	7	Sololá	716	San Marcos la Laguna 	11	San Marcos la laguna 	3	Marzo	2023-03-27T00:00:00	2024-11-08T21:00:00	8	Radiación solar	0
184801	7	Sololá	716	San Marcos la Laguna 	11	San Marcos la laguna 	3	Marzo	2023-03-27T00:00:00	2024-11-08T22:00:00	2	Temperatura media	18.5
184802	7	Sololá	716	San Marcos la Laguna 	11	San Marcos la laguna 	3	Marzo	2023-03-27T00:00:00	2024-11-08T22:00:00	4	Temperatura máxima	19.3
184803	7	Sololá	716	San Marcos la Laguna 	11	San Marcos la laguna 	3	Marzo	2023-03-27T00:00:00	2024-11-08T22:00:00	3	Temperatura mínima	18.5
184804	7	Sololá	716	San Marcos la Laguna 	11	San Marcos la laguna 	3	Marzo	2023-03-27T00:00:00	2024-11-08T22:00:00	5	Humedad	82
184805	7	Sololá	716	San Marcos la Laguna 	11	San Marcos la laguna 	3	Marzo	2023-03-27T00:00:00	2024-11-08T22:00:00	6	Velocidad del viento	1.6
184806	7	Sololá	716	San Marcos la Laguna 	11	San Marcos la laguna 	3	Marzo	2023-03-27T00:00:00	2024-11-08T22:00:00	7	Dirección del viento	1.61
184807	7	Sololá	716	San Marcos la Laguna 	11	San Marcos la laguna 	3	Marzo	2023-03-27T00:00:00	2024-11-08T22:00:00	1	Precipitación	0
184808	7	Sololá	716	San Marcos la Laguna 	11	San Marcos la laguna 	3	Marzo	2023-03-27T00:00:00	2024-11-08T22:00:00	8	Radiación solar	0
184809	7	Sololá	716	San Marcos la Laguna 	11	San Marcos la laguna 	3	Marzo	2023-03-27T00:00:00	2024-11-08T23:00:00	2	Temperatura media	18.1
184810	7	Sololá	716	San Marcos la Laguna 	11	San Marcos la laguna 	3	Marzo	2023-03-27T00:00:00	2024-11-08T23:00:00	4	Temperatura máxima	18.5
184811	7	Sololá	716	San Marcos la Laguna 	11	San Marcos la laguna 	3	Marzo	2023-03-27T00:00:00	2024-11-08T23:00:00	3	Temperatura mínima	17.8
184812	7	Sololá	716	San Marcos la Laguna 	11	San Marcos la laguna 	3	Marzo	2023-03-27T00:00:00	2024-11-08T23:00:00	5	Humedad	84
184813	7	Sololá	716	San Marcos la Laguna 	11	San Marcos la laguna 	3	Marzo	2023-03-27T00:00:00	2024-11-08T23:00:00	6	Velocidad del viento	4.8
184814	7	Sololá	716	San Marcos la Laguna 	11	San Marcos la laguna 	3	Marzo	2023-03-27T00:00:00	2024-11-08T23:00:00	7	Dirección del viento	4.83
184815	7	Sololá	716	San Marcos la Laguna 	11	San Marcos la laguna 	3	Marzo	2023-03-27T00:00:00	2024-11-08T23:00:00	1	Precipitación	0
184816	7	Sololá	716	San Marcos la Laguna 	11	San Marcos la laguna 	3	Marzo	2023-03-27T00:00:00	2024-11-08T23:00:00	8	Radiación solar	0
184817	7	Sololá	716	San Marcos la Laguna 	11	San Marcos la laguna 	3	Marzo	2023-03-28T00:00:00	2024-11-08T00:00:00	2	Temperatura media	17.4
184818	7	Sololá	716	San Marcos la Laguna 	11	San Marcos la laguna 	3	Marzo	2023-03-28T00:00:00	2024-11-08T00:00:00	4	Temperatura máxima	18.3
184819	7	Sololá	716	San Marcos la Laguna 	11	San Marcos la laguna 	3	Marzo	2023-03-28T00:00:00	2024-11-08T00:00:00	3	Temperatura mínima	17.4
184820	7	Sololá	716	San Marcos la Laguna 	11	San Marcos la laguna 	3	Marzo	2023-03-28T00:00:00	2024-11-08T00:00:00	5	Humedad	82
184821	7	Sololá	716	San Marcos la Laguna 	11	San Marcos la laguna 	3	Marzo	2023-03-28T00:00:00	2024-11-08T00:00:00	6	Velocidad del viento	4.8
184822	7	Sololá	716	San Marcos la Laguna 	11	San Marcos la laguna 	3	Marzo	2023-03-28T00:00:00	2024-11-08T00:00:00	7	Dirección del viento	4.83
184823	7	Sololá	716	San Marcos la Laguna 	11	San Marcos la laguna 	3	Marzo	2023-03-28T00:00:00	2024-11-08T00:00:00	1	Precipitación	0
184824	7	Sololá	716	San Marcos la Laguna 	11	San Marcos la laguna 	3	Marzo	2023-03-28T00:00:00	2024-11-08T00:00:00	8	Radiación solar	0
184825	7	Sololá	716	San Marcos la Laguna 	11	San Marcos la laguna 	3	Marzo	2023-03-28T00:00:00	2024-11-08T01:00:00	2	Temperatura media	17.1
184826	7	Sololá	716	San Marcos la Laguna 	11	San Marcos la laguna 	3	Marzo	2023-03-28T00:00:00	2024-11-08T01:00:00	4	Temperatura máxima	17.6
184827	7	Sololá	716	San Marcos la Laguna 	11	San Marcos la laguna 	3	Marzo	2023-03-28T00:00:00	2024-11-08T01:00:00	3	Temperatura mínima	16.9
184828	7	Sololá	716	San Marcos la Laguna 	11	San Marcos la laguna 	3	Marzo	2023-03-28T00:00:00	2024-11-08T01:00:00	5	Humedad	83
184829	7	Sololá	716	San Marcos la Laguna 	11	San Marcos la laguna 	3	Marzo	2023-03-28T00:00:00	2024-11-08T01:00:00	6	Velocidad del viento	6.4
184830	7	Sololá	716	San Marcos la Laguna 	11	San Marcos la laguna 	3	Marzo	2023-03-28T00:00:00	2024-11-08T01:00:00	7	Dirección del viento	6.44
184831	7	Sololá	716	San Marcos la Laguna 	11	San Marcos la laguna 	3	Marzo	2023-03-28T00:00:00	2024-11-08T01:00:00	1	Precipitación	0
184832	7	Sololá	716	San Marcos la Laguna 	11	San Marcos la laguna 	3	Marzo	2023-03-28T00:00:00	2024-11-08T01:00:00	8	Radiación solar	0
184833	7	Sololá	716	San Marcos la Laguna 	11	San Marcos la laguna 	3	Marzo	2023-03-28T00:00:00	2024-11-08T02:00:00	2	Temperatura media	16.8
184834	7	Sololá	716	San Marcos la Laguna 	11	San Marcos la laguna 	3	Marzo	2023-03-28T00:00:00	2024-11-08T02:00:00	4	Temperatura máxima	17.3
184835	7	Sololá	716	San Marcos la Laguna 	11	San Marcos la laguna 	3	Marzo	2023-03-28T00:00:00	2024-11-08T02:00:00	3	Temperatura mínima	16.8
184836	7	Sololá	716	San Marcos la Laguna 	11	San Marcos la laguna 	3	Marzo	2023-03-28T00:00:00	2024-11-08T02:00:00	5	Humedad	82
184837	7	Sololá	716	San Marcos la Laguna 	11	San Marcos la laguna 	3	Marzo	2023-03-28T00:00:00	2024-11-08T02:00:00	6	Velocidad del viento	6.4
184838	7	Sololá	716	San Marcos la Laguna 	11	San Marcos la laguna 	3	Marzo	2023-03-28T00:00:00	2024-11-08T02:00:00	7	Dirección del viento	6.44
184839	7	Sololá	716	San Marcos la Laguna 	11	San Marcos la laguna 	3	Marzo	2023-03-28T00:00:00	2024-11-08T02:00:00	1	Precipitación	0
184840	7	Sololá	716	San Marcos la Laguna 	11	San Marcos la laguna 	3	Marzo	2023-03-28T00:00:00	2024-11-08T02:00:00	8	Radiación solar	0
184841	7	Sololá	716	San Marcos la Laguna 	11	San Marcos la laguna 	3	Marzo	2023-03-28T00:00:00	2024-11-08T03:00:00	2	Temperatura media	17.2
184842	7	Sololá	716	San Marcos la Laguna 	11	San Marcos la laguna 	3	Marzo	2023-03-28T00:00:00	2024-11-08T03:00:00	4	Temperatura máxima	17.2
184843	7	Sololá	716	San Marcos la Laguna 	11	San Marcos la laguna 	3	Marzo	2023-03-28T00:00:00	2024-11-08T03:00:00	3	Temperatura mínima	16.4
184844	7	Sololá	716	San Marcos la Laguna 	11	San Marcos la laguna 	3	Marzo	2023-03-28T00:00:00	2024-11-08T03:00:00	5	Humedad	81
184845	7	Sololá	716	San Marcos la Laguna 	11	San Marcos la laguna 	3	Marzo	2023-03-28T00:00:00	2024-11-08T03:00:00	6	Velocidad del viento	6.4
184846	7	Sololá	716	San Marcos la Laguna 	11	San Marcos la laguna 	3	Marzo	2023-03-28T00:00:00	2024-11-08T03:00:00	7	Dirección del viento	6.44
184847	7	Sololá	716	San Marcos la Laguna 	11	San Marcos la laguna 	3	Marzo	2023-03-28T00:00:00	2024-11-08T03:00:00	1	Precipitación	0
184848	7	Sololá	716	San Marcos la Laguna 	11	San Marcos la laguna 	3	Marzo	2023-03-28T00:00:00	2024-11-08T03:00:00	8	Radiación solar	0
184849	7	Sololá	716	San Marcos la Laguna 	11	San Marcos la laguna 	3	Marzo	2023-03-28T00:00:00	2024-11-08T04:00:00	2	Temperatura media	15.9
184850	7	Sololá	716	San Marcos la Laguna 	11	San Marcos la laguna 	3	Marzo	2023-03-28T00:00:00	2024-11-08T04:00:00	4	Temperatura máxima	17.2
184851	7	Sololá	716	San Marcos la Laguna 	11	San Marcos la laguna 	3	Marzo	2023-03-28T00:00:00	2024-11-08T04:00:00	3	Temperatura mínima	15.9
184852	7	Sololá	716	San Marcos la Laguna 	11	San Marcos la laguna 	3	Marzo	2023-03-28T00:00:00	2024-11-08T04:00:00	5	Humedad	86
184853	7	Sololá	716	San Marcos la Laguna 	11	San Marcos la laguna 	3	Marzo	2023-03-28T00:00:00	2024-11-08T04:00:00	6	Velocidad del viento	4.8
184854	7	Sololá	716	San Marcos la Laguna 	11	San Marcos la laguna 	3	Marzo	2023-03-28T00:00:00	2024-11-08T04:00:00	7	Dirección del viento	4.83
184855	7	Sololá	716	San Marcos la Laguna 	11	San Marcos la laguna 	3	Marzo	2023-03-28T00:00:00	2024-11-08T04:00:00	1	Precipitación	0
184856	7	Sololá	716	San Marcos la Laguna 	11	San Marcos la laguna 	3	Marzo	2023-03-28T00:00:00	2024-11-08T04:00:00	8	Radiación solar	0
184857	7	Sololá	716	San Marcos la Laguna 	11	San Marcos la laguna 	3	Marzo	2023-03-28T00:00:00	2024-11-08T05:00:00	2	Temperatura media	15.6
184858	7	Sololá	716	San Marcos la Laguna 	11	San Marcos la laguna 	3	Marzo	2023-03-28T00:00:00	2024-11-08T05:00:00	4	Temperatura máxima	16.1
184859	7	Sololá	716	San Marcos la Laguna 	11	San Marcos la laguna 	3	Marzo	2023-03-28T00:00:00	2024-11-08T05:00:00	3	Temperatura mínima	15.6
184860	7	Sololá	716	San Marcos la Laguna 	11	San Marcos la laguna 	3	Marzo	2023-03-28T00:00:00	2024-11-08T05:00:00	5	Humedad	85
184861	7	Sololá	716	San Marcos la Laguna 	11	San Marcos la laguna 	3	Marzo	2023-03-28T00:00:00	2024-11-08T05:00:00	6	Velocidad del viento	6.4
184862	7	Sololá	716	San Marcos la Laguna 	11	San Marcos la laguna 	3	Marzo	2023-03-28T00:00:00	2024-11-08T05:00:00	7	Dirección del viento	6.44
184863	7	Sololá	716	San Marcos la Laguna 	11	San Marcos la laguna 	3	Marzo	2023-03-28T00:00:00	2024-11-08T05:00:00	1	Precipitación	0
184864	7	Sololá	716	San Marcos la Laguna 	11	San Marcos la laguna 	3	Marzo	2023-03-28T00:00:00	2024-11-08T05:00:00	8	Radiación solar	0
184865	7	Sololá	716	San Marcos la Laguna 	11	San Marcos la laguna 	3	Marzo	2023-03-28T00:00:00	2024-11-08T06:00:00	2	Temperatura media	16.2
184866	7	Sololá	716	San Marcos la Laguna 	11	San Marcos la laguna 	3	Marzo	2023-03-28T00:00:00	2024-11-08T06:00:00	4	Temperatura máxima	16.3
184867	7	Sololá	716	San Marcos la Laguna 	11	San Marcos la laguna 	3	Marzo	2023-03-28T00:00:00	2024-11-08T06:00:00	3	Temperatura mínima	15.6
184868	7	Sololá	716	San Marcos la Laguna 	11	San Marcos la laguna 	3	Marzo	2023-03-28T00:00:00	2024-11-08T06:00:00	5	Humedad	84
184869	7	Sololá	716	San Marcos la Laguna 	11	San Marcos la laguna 	3	Marzo	2023-03-28T00:00:00	2024-11-08T06:00:00	6	Velocidad del viento	4.8
184870	7	Sololá	716	San Marcos la Laguna 	11	San Marcos la laguna 	3	Marzo	2023-03-28T00:00:00	2024-11-08T06:00:00	7	Dirección del viento	4.83
184871	7	Sololá	716	San Marcos la Laguna 	11	San Marcos la laguna 	3	Marzo	2023-03-28T00:00:00	2024-11-08T06:00:00	1	Precipitación	0
184872	7	Sololá	716	San Marcos la Laguna 	11	San Marcos la laguna 	3	Marzo	2023-03-28T00:00:00	2024-11-08T06:00:00	8	Radiación solar	0
184873	7	Sololá	716	San Marcos la Laguna 	11	San Marcos la laguna 	3	Marzo	2023-03-28T00:00:00	2024-11-08T07:00:00	2	Temperatura media	16.6
184874	7	Sololá	716	San Marcos la Laguna 	11	San Marcos la laguna 	3	Marzo	2023-03-28T00:00:00	2024-11-08T07:00:00	4	Temperatura máxima	16.7
184875	7	Sololá	716	San Marcos la Laguna 	11	San Marcos la laguna 	3	Marzo	2023-03-28T00:00:00	2024-11-08T07:00:00	3	Temperatura mínima	16.1
184876	7	Sololá	716	San Marcos la Laguna 	11	San Marcos la laguna 	3	Marzo	2023-03-28T00:00:00	2024-11-08T07:00:00	5	Humedad	83
184877	7	Sololá	716	San Marcos la Laguna 	11	San Marcos la laguna 	3	Marzo	2023-03-28T00:00:00	2024-11-08T07:00:00	6	Velocidad del viento	6.4
184878	7	Sololá	716	San Marcos la Laguna 	11	San Marcos la laguna 	3	Marzo	2023-03-28T00:00:00	2024-11-08T07:00:00	7	Dirección del viento	6.44
184879	7	Sololá	716	San Marcos la Laguna 	11	San Marcos la laguna 	3	Marzo	2023-03-28T00:00:00	2024-11-08T07:00:00	1	Precipitación	0
184880	7	Sololá	716	San Marcos la Laguna 	11	San Marcos la laguna 	3	Marzo	2023-03-28T00:00:00	2024-11-08T07:00:00	8	Radiación solar	22
184881	7	Sololá	716	San Marcos la Laguna 	11	San Marcos la laguna 	3	Marzo	2023-03-28T00:00:00	2024-11-08T08:00:00	2	Temperatura media	19.1
184882	7	Sololá	716	San Marcos la Laguna 	11	San Marcos la laguna 	3	Marzo	2023-03-28T00:00:00	2024-11-08T08:00:00	4	Temperatura máxima	19.1
184883	7	Sololá	716	San Marcos la Laguna 	11	San Marcos la laguna 	3	Marzo	2023-03-28T00:00:00	2024-11-08T08:00:00	3	Temperatura mínima	16.6
184884	7	Sololá	716	San Marcos la Laguna 	11	San Marcos la laguna 	3	Marzo	2023-03-28T00:00:00	2024-11-08T08:00:00	5	Humedad	79
184885	7	Sololá	716	San Marcos la Laguna 	11	San Marcos la laguna 	3	Marzo	2023-03-28T00:00:00	2024-11-08T08:00:00	6	Velocidad del viento	3.2
184886	7	Sololá	716	San Marcos la Laguna 	11	San Marcos la laguna 	3	Marzo	2023-03-28T00:00:00	2024-11-08T08:00:00	7	Dirección del viento	3.22
184887	7	Sololá	716	San Marcos la Laguna 	11	San Marcos la laguna 	3	Marzo	2023-03-28T00:00:00	2024-11-08T08:00:00	1	Precipitación	0
184888	7	Sololá	716	San Marcos la Laguna 	11	San Marcos la laguna 	3	Marzo	2023-03-28T00:00:00	2024-11-08T08:00:00	8	Radiación solar	159
184889	7	Sololá	716	San Marcos la Laguna 	11	San Marcos la laguna 	3	Marzo	2023-03-28T00:00:00	2024-11-08T09:00:00	2	Temperatura media	20.8
184890	7	Sololá	716	San Marcos la Laguna 	11	San Marcos la laguna 	3	Marzo	2023-03-28T00:00:00	2024-11-08T09:00:00	4	Temperatura máxima	21
184891	7	Sololá	716	San Marcos la Laguna 	11	San Marcos la laguna 	3	Marzo	2023-03-28T00:00:00	2024-11-08T09:00:00	3	Temperatura mínima	19.1
184892	7	Sololá	716	San Marcos la Laguna 	11	San Marcos la laguna 	3	Marzo	2023-03-28T00:00:00	2024-11-08T09:00:00	5	Humedad	76
184893	7	Sololá	716	San Marcos la Laguna 	11	San Marcos la laguna 	3	Marzo	2023-03-28T00:00:00	2024-11-08T09:00:00	6	Velocidad del viento	4.8
184894	7	Sololá	716	San Marcos la Laguna 	11	San Marcos la laguna 	3	Marzo	2023-03-28T00:00:00	2024-11-08T09:00:00	7	Dirección del viento	4.83
184895	7	Sololá	716	San Marcos la Laguna 	11	San Marcos la laguna 	3	Marzo	2023-03-28T00:00:00	2024-11-08T09:00:00	1	Precipitación	0
184896	7	Sololá	716	San Marcos la Laguna 	11	San Marcos la laguna 	3	Marzo	2023-03-28T00:00:00	2024-11-08T09:00:00	8	Radiación solar	455
184897	7	Sololá	716	San Marcos la Laguna 	11	San Marcos la laguna 	3	Marzo	2023-03-28T00:00:00	2024-11-08T10:00:00	2	Temperatura media	20.7
184898	7	Sololá	716	San Marcos la Laguna 	11	San Marcos la laguna 	3	Marzo	2023-03-28T00:00:00	2024-11-08T10:00:00	4	Temperatura máxima	21.1
184899	7	Sololá	716	San Marcos la Laguna 	11	San Marcos la laguna 	3	Marzo	2023-03-28T00:00:00	2024-11-08T10:00:00	3	Temperatura mínima	20.3
184900	7	Sololá	716	San Marcos la Laguna 	11	San Marcos la laguna 	3	Marzo	2023-03-28T00:00:00	2024-11-08T10:00:00	5	Humedad	76
184901	7	Sololá	716	San Marcos la Laguna 	11	San Marcos la laguna 	3	Marzo	2023-03-28T00:00:00	2024-11-08T10:00:00	6	Velocidad del viento	9.7
184902	7	Sololá	716	San Marcos la Laguna 	11	San Marcos la laguna 	3	Marzo	2023-03-28T00:00:00	2024-11-08T10:00:00	7	Dirección del viento	9.66
184903	7	Sololá	716	San Marcos la Laguna 	11	San Marcos la laguna 	3	Marzo	2023-03-28T00:00:00	2024-11-08T10:00:00	1	Precipitación	0
184904	7	Sololá	716	San Marcos la Laguna 	11	San Marcos la laguna 	3	Marzo	2023-03-28T00:00:00	2024-11-08T10:00:00	8	Radiación solar	661
184905	7	Sololá	716	San Marcos la Laguna 	11	San Marcos la laguna 	3	Marzo	2023-03-28T00:00:00	2024-11-08T11:00:00	2	Temperatura media	21.9
184906	7	Sololá	716	San Marcos la Laguna 	11	San Marcos la laguna 	3	Marzo	2023-03-28T00:00:00	2024-11-08T11:00:00	4	Temperatura máxima	21.9
184907	7	Sololá	716	San Marcos la Laguna 	11	San Marcos la laguna 	3	Marzo	2023-03-28T00:00:00	2024-11-08T11:00:00	3	Temperatura mínima	20.7
184908	7	Sololá	716	San Marcos la Laguna 	11	San Marcos la laguna 	3	Marzo	2023-03-28T00:00:00	2024-11-08T11:00:00	5	Humedad	74
184909	7	Sololá	716	San Marcos la Laguna 	11	San Marcos la laguna 	3	Marzo	2023-03-28T00:00:00	2024-11-08T11:00:00	6	Velocidad del viento	12.9
184910	7	Sololá	716	San Marcos la Laguna 	11	San Marcos la laguna 	3	Marzo	2023-03-28T00:00:00	2024-11-08T11:00:00	7	Dirección del viento	12.87
184911	7	Sololá	716	San Marcos la Laguna 	11	San Marcos la laguna 	3	Marzo	2023-03-28T00:00:00	2024-11-08T11:00:00	1	Precipitación	0
184912	7	Sololá	716	San Marcos la Laguna 	11	San Marcos la laguna 	3	Marzo	2023-03-28T00:00:00	2024-11-08T11:00:00	8	Radiación solar	801
184913	7	Sololá	716	San Marcos la Laguna 	11	San Marcos la laguna 	3	Marzo	2023-03-28T00:00:00	2024-11-08T12:00:00	2	Temperatura media	21.8
184914	7	Sololá	716	San Marcos la Laguna 	11	San Marcos la laguna 	3	Marzo	2023-03-28T00:00:00	2024-11-08T12:00:00	4	Temperatura máxima	21.9
184915	7	Sololá	716	San Marcos la Laguna 	11	San Marcos la laguna 	3	Marzo	2023-03-28T00:00:00	2024-11-08T12:00:00	3	Temperatura mínima	21.4
184916	7	Sololá	716	San Marcos la Laguna 	11	San Marcos la laguna 	3	Marzo	2023-03-28T00:00:00	2024-11-08T12:00:00	5	Humedad	73
184917	7	Sololá	716	San Marcos la Laguna 	11	San Marcos la laguna 	3	Marzo	2023-03-28T00:00:00	2024-11-08T12:00:00	6	Velocidad del viento	14.5
184918	7	Sololá	716	San Marcos la Laguna 	11	San Marcos la laguna 	3	Marzo	2023-03-28T00:00:00	2024-11-08T12:00:00	7	Dirección del viento	14.48
184919	7	Sololá	716	San Marcos la Laguna 	11	San Marcos la laguna 	3	Marzo	2023-03-28T00:00:00	2024-11-08T12:00:00	1	Precipitación	0
184920	7	Sololá	716	San Marcos la Laguna 	11	San Marcos la laguna 	3	Marzo	2023-03-28T00:00:00	2024-11-08T12:00:00	8	Radiación solar	896
184921	7	Sololá	716	San Marcos la Laguna 	11	San Marcos la laguna 	3	Marzo	2023-03-28T00:00:00	2024-11-08T13:00:00	2	Temperatura media	22.3
184922	7	Sololá	716	San Marcos la Laguna 	11	San Marcos la laguna 	3	Marzo	2023-03-28T00:00:00	2024-11-08T13:00:00	4	Temperatura máxima	22.4
184923	7	Sololá	716	San Marcos la Laguna 	11	San Marcos la laguna 	3	Marzo	2023-03-28T00:00:00	2024-11-08T13:00:00	3	Temperatura mínima	21.8
184924	7	Sololá	716	San Marcos la Laguna 	11	San Marcos la laguna 	3	Marzo	2023-03-28T00:00:00	2024-11-08T13:00:00	5	Humedad	73
184925	7	Sololá	716	San Marcos la Laguna 	11	San Marcos la laguna 	3	Marzo	2023-03-28T00:00:00	2024-11-08T13:00:00	6	Velocidad del viento	14.5
184926	7	Sololá	716	San Marcos la Laguna 	11	San Marcos la laguna 	3	Marzo	2023-03-28T00:00:00	2024-11-08T13:00:00	7	Dirección del viento	14.48
184927	7	Sololá	716	San Marcos la Laguna 	11	San Marcos la laguna 	3	Marzo	2023-03-28T00:00:00	2024-11-08T13:00:00	1	Precipitación	0
184928	7	Sololá	716	San Marcos la Laguna 	11	San Marcos la laguna 	3	Marzo	2023-03-28T00:00:00	2024-11-08T13:00:00	8	Radiación solar	910
184929	7	Sololá	716	San Marcos la Laguna 	11	San Marcos la laguna 	3	Marzo	2023-03-28T00:00:00	2024-11-08T14:00:00	2	Temperatura media	22.6
184930	7	Sololá	716	San Marcos la Laguna 	11	San Marcos la laguna 	3	Marzo	2023-03-28T00:00:00	2024-11-08T14:00:00	4	Temperatura máxima	22.8
184931	7	Sololá	716	San Marcos la Laguna 	11	San Marcos la laguna 	3	Marzo	2023-03-28T00:00:00	2024-11-08T14:00:00	3	Temperatura mínima	22.3
184932	7	Sololá	716	San Marcos la Laguna 	11	San Marcos la laguna 	3	Marzo	2023-03-28T00:00:00	2024-11-08T14:00:00	5	Humedad	74
184933	7	Sololá	716	San Marcos la Laguna 	11	San Marcos la laguna 	3	Marzo	2023-03-28T00:00:00	2024-11-08T14:00:00	6	Velocidad del viento	12.9
184934	7	Sololá	716	San Marcos la Laguna 	11	San Marcos la laguna 	3	Marzo	2023-03-28T00:00:00	2024-11-08T14:00:00	7	Dirección del viento	12.87
184935	7	Sololá	716	San Marcos la Laguna 	11	San Marcos la laguna 	3	Marzo	2023-03-28T00:00:00	2024-11-08T14:00:00	1	Precipitación	0
184936	7	Sololá	716	San Marcos la Laguna 	11	San Marcos la laguna 	3	Marzo	2023-03-28T00:00:00	2024-11-08T14:00:00	8	Radiación solar	888
184937	7	Sololá	716	San Marcos la Laguna 	11	San Marcos la laguna 	3	Marzo	2023-03-28T00:00:00	2024-11-08T15:00:00	2	Temperatura media	22.5
184938	7	Sololá	716	San Marcos la Laguna 	11	San Marcos la laguna 	3	Marzo	2023-03-28T00:00:00	2024-11-08T15:00:00	4	Temperatura máxima	22.7
184939	7	Sololá	716	San Marcos la Laguna 	11	San Marcos la laguna 	3	Marzo	2023-03-28T00:00:00	2024-11-08T15:00:00	3	Temperatura mínima	21.9
184940	7	Sololá	716	San Marcos la Laguna 	11	San Marcos la laguna 	3	Marzo	2023-03-28T00:00:00	2024-11-08T15:00:00	5	Humedad	74
184941	7	Sololá	716	San Marcos la Laguna 	11	San Marcos la laguna 	3	Marzo	2023-03-28T00:00:00	2024-11-08T15:00:00	6	Velocidad del viento	12.9
184942	7	Sololá	716	San Marcos la Laguna 	11	San Marcos la laguna 	3	Marzo	2023-03-28T00:00:00	2024-11-08T15:00:00	7	Dirección del viento	12.87
184943	7	Sololá	716	San Marcos la Laguna 	11	San Marcos la laguna 	3	Marzo	2023-03-28T00:00:00	2024-11-08T15:00:00	1	Precipitación	0
184944	7	Sololá	716	San Marcos la Laguna 	11	San Marcos la laguna 	3	Marzo	2023-03-28T00:00:00	2024-11-08T15:00:00	8	Radiación solar	594
184945	7	Sololá	716	San Marcos la Laguna 	11	San Marcos la laguna 	3	Marzo	2023-03-28T00:00:00	2024-11-08T16:00:00	2	Temperatura media	21.8
184946	7	Sololá	716	San Marcos la Laguna 	11	San Marcos la laguna 	3	Marzo	2023-03-28T00:00:00	2024-11-08T16:00:00	4	Temperatura máxima	23.6
184947	7	Sololá	716	San Marcos la Laguna 	11	San Marcos la laguna 	3	Marzo	2023-03-28T00:00:00	2024-11-08T16:00:00	3	Temperatura mínima	21.8
184948	7	Sololá	716	San Marcos la Laguna 	11	San Marcos la laguna 	3	Marzo	2023-03-28T00:00:00	2024-11-08T16:00:00	5	Humedad	78
184949	7	Sololá	716	San Marcos la Laguna 	11	San Marcos la laguna 	3	Marzo	2023-03-28T00:00:00	2024-11-08T16:00:00	6	Velocidad del viento	8
184950	7	Sololá	716	San Marcos la Laguna 	11	San Marcos la laguna 	3	Marzo	2023-03-28T00:00:00	2024-11-08T16:00:00	7	Dirección del viento	8.05
184951	7	Sololá	716	San Marcos la Laguna 	11	San Marcos la laguna 	3	Marzo	2023-03-28T00:00:00	2024-11-08T16:00:00	1	Precipitación	0
184952	7	Sololá	716	San Marcos la Laguna 	11	San Marcos la laguna 	3	Marzo	2023-03-28T00:00:00	2024-11-08T16:00:00	8	Radiación solar	265
184953	7	Sololá	716	San Marcos la Laguna 	11	San Marcos la laguna 	3	Marzo	2023-03-28T00:00:00	2024-11-08T17:00:00	2	Temperatura media	21.7
184954	7	Sololá	716	San Marcos la Laguna 	11	San Marcos la laguna 	3	Marzo	2023-03-28T00:00:00	2024-11-08T17:00:00	4	Temperatura máxima	22.4
184955	7	Sololá	716	San Marcos la Laguna 	11	San Marcos la laguna 	3	Marzo	2023-03-28T00:00:00	2024-11-08T17:00:00	3	Temperatura mínima	21.7
184956	7	Sololá	716	San Marcos la Laguna 	11	San Marcos la laguna 	3	Marzo	2023-03-28T00:00:00	2024-11-08T17:00:00	5	Humedad	78
184957	7	Sololá	716	San Marcos la Laguna 	11	San Marcos la laguna 	3	Marzo	2023-03-28T00:00:00	2024-11-08T17:00:00	6	Velocidad del viento	9.7
184958	7	Sololá	716	San Marcos la Laguna 	11	San Marcos la laguna 	3	Marzo	2023-03-28T00:00:00	2024-11-08T17:00:00	7	Dirección del viento	9.66
184959	7	Sololá	716	San Marcos la Laguna 	11	San Marcos la laguna 	3	Marzo	2023-03-28T00:00:00	2024-11-08T17:00:00	1	Precipitación	0
184960	7	Sololá	716	San Marcos la Laguna 	11	San Marcos la laguna 	3	Marzo	2023-03-28T00:00:00	2024-11-08T17:00:00	8	Radiación solar	227
184961	7	Sololá	716	San Marcos la Laguna 	11	San Marcos la laguna 	3	Marzo	2023-03-28T00:00:00	2024-11-08T18:00:00	2	Temperatura media	21.1
184962	7	Sololá	716	San Marcos la Laguna 	11	San Marcos la laguna 	3	Marzo	2023-03-28T00:00:00	2024-11-08T18:00:00	4	Temperatura máxima	21.8
184963	7	Sololá	716	San Marcos la Laguna 	11	San Marcos la laguna 	3	Marzo	2023-03-28T00:00:00	2024-11-08T18:00:00	3	Temperatura mínima	21.1
184964	7	Sololá	716	San Marcos la Laguna 	11	San Marcos la laguna 	3	Marzo	2023-03-28T00:00:00	2024-11-08T18:00:00	5	Humedad	81
184965	7	Sololá	716	San Marcos la Laguna 	11	San Marcos la laguna 	3	Marzo	2023-03-28T00:00:00	2024-11-08T18:00:00	6	Velocidad del viento	6.4
184966	7	Sololá	716	San Marcos la Laguna 	11	San Marcos la laguna 	3	Marzo	2023-03-28T00:00:00	2024-11-08T18:00:00	7	Dirección del viento	6.44
184967	7	Sololá	716	San Marcos la Laguna 	11	San Marcos la laguna 	3	Marzo	2023-03-28T00:00:00	2024-11-08T18:00:00	1	Precipitación	0
184968	7	Sololá	716	San Marcos la Laguna 	11	San Marcos la laguna 	3	Marzo	2023-03-28T00:00:00	2024-11-08T18:00:00	8	Radiación solar	53
184969	7	Sololá	716	San Marcos la Laguna 	11	San Marcos la laguna 	3	Marzo	2023-03-28T00:00:00	2024-11-08T19:00:00	2	Temperatura media	20.8
184970	7	Sololá	716	San Marcos la Laguna 	11	San Marcos la laguna 	3	Marzo	2023-03-28T00:00:00	2024-11-08T19:00:00	4	Temperatura máxima	21.1
184971	7	Sololá	716	San Marcos la Laguna 	11	San Marcos la laguna 	3	Marzo	2023-03-28T00:00:00	2024-11-08T19:00:00	3	Temperatura mínima	20.7
184972	7	Sololá	716	San Marcos la Laguna 	11	San Marcos la laguna 	3	Marzo	2023-03-28T00:00:00	2024-11-08T19:00:00	5	Humedad	83
184973	7	Sololá	716	San Marcos la Laguna 	11	San Marcos la laguna 	3	Marzo	2023-03-28T00:00:00	2024-11-08T19:00:00	6	Velocidad del viento	3.2
184974	7	Sololá	716	San Marcos la Laguna 	11	San Marcos la laguna 	3	Marzo	2023-03-28T00:00:00	2024-11-08T19:00:00	7	Dirección del viento	3.22
184975	7	Sololá	716	San Marcos la Laguna 	11	San Marcos la laguna 	3	Marzo	2023-03-28T00:00:00	2024-11-08T19:00:00	1	Precipitación	0
184976	7	Sololá	716	San Marcos la Laguna 	11	San Marcos la laguna 	3	Marzo	2023-03-28T00:00:00	2024-11-08T19:00:00	8	Radiación solar	0
184977	7	Sololá	716	San Marcos la Laguna 	11	San Marcos la laguna 	3	Marzo	2023-03-28T00:00:00	2024-11-08T20:00:00	2	Temperatura media	20.4
184978	7	Sololá	716	San Marcos la Laguna 	11	San Marcos la laguna 	3	Marzo	2023-03-28T00:00:00	2024-11-08T20:00:00	4	Temperatura máxima	20.8
184979	7	Sololá	716	San Marcos la Laguna 	11	San Marcos la laguna 	3	Marzo	2023-03-28T00:00:00	2024-11-08T20:00:00	3	Temperatura mínima	20.4
184980	7	Sololá	716	San Marcos la Laguna 	11	San Marcos la laguna 	3	Marzo	2023-03-28T00:00:00	2024-11-08T20:00:00	5	Humedad	85
184981	7	Sololá	716	San Marcos la Laguna 	11	San Marcos la laguna 	3	Marzo	2023-03-28T00:00:00	2024-11-08T20:00:00	6	Velocidad del viento	3.2
184982	7	Sololá	716	San Marcos la Laguna 	11	San Marcos la laguna 	3	Marzo	2023-03-28T00:00:00	2024-11-08T20:00:00	7	Dirección del viento	3.22
184983	7	Sololá	716	San Marcos la Laguna 	11	San Marcos la laguna 	3	Marzo	2023-03-28T00:00:00	2024-11-08T20:00:00	1	Precipitación	0
184984	7	Sololá	716	San Marcos la Laguna 	11	San Marcos la laguna 	3	Marzo	2023-03-28T00:00:00	2024-11-08T20:00:00	8	Radiación solar	0
184985	7	Sololá	716	San Marcos la Laguna 	11	San Marcos la laguna 	3	Marzo	2023-03-28T00:00:00	2024-11-08T21:00:00	2	Temperatura media	19.6
184986	7	Sololá	716	San Marcos la Laguna 	11	San Marcos la laguna 	3	Marzo	2023-03-28T00:00:00	2024-11-08T21:00:00	4	Temperatura máxima	20.5
184987	7	Sololá	716	San Marcos la Laguna 	11	San Marcos la laguna 	3	Marzo	2023-03-28T00:00:00	2024-11-08T21:00:00	3	Temperatura mínima	19.5
184988	7	Sololá	716	San Marcos la Laguna 	11	San Marcos la laguna 	3	Marzo	2023-03-28T00:00:00	2024-11-08T21:00:00	5	Humedad	82
184989	7	Sololá	716	San Marcos la Laguna 	11	San Marcos la laguna 	3	Marzo	2023-03-28T00:00:00	2024-11-08T21:00:00	6	Velocidad del viento	3.2
184990	7	Sololá	716	San Marcos la Laguna 	11	San Marcos la laguna 	3	Marzo	2023-03-28T00:00:00	2024-11-08T21:00:00	7	Dirección del viento	3.22
184991	7	Sololá	716	San Marcos la Laguna 	11	San Marcos la laguna 	3	Marzo	2023-03-28T00:00:00	2024-11-08T21:00:00	1	Precipitación	0
184992	7	Sololá	716	San Marcos la Laguna 	11	San Marcos la laguna 	3	Marzo	2023-03-28T00:00:00	2024-11-08T21:00:00	8	Radiación solar	0
184993	7	Sololá	716	San Marcos la Laguna 	11	San Marcos la laguna 	3	Marzo	2023-03-28T00:00:00	2024-11-08T22:00:00	2	Temperatura media	18.9
184994	7	Sololá	716	San Marcos la Laguna 	11	San Marcos la laguna 	3	Marzo	2023-03-28T00:00:00	2024-11-08T22:00:00	4	Temperatura máxima	19.7
184995	7	Sololá	716	San Marcos la Laguna 	11	San Marcos la laguna 	3	Marzo	2023-03-28T00:00:00	2024-11-08T22:00:00	3	Temperatura mínima	18.9
184996	7	Sololá	716	San Marcos la Laguna 	11	San Marcos la laguna 	3	Marzo	2023-03-28T00:00:00	2024-11-08T22:00:00	5	Humedad	83
184997	7	Sololá	716	San Marcos la Laguna 	11	San Marcos la laguna 	3	Marzo	2023-03-28T00:00:00	2024-11-08T22:00:00	6	Velocidad del viento	6.4
184998	7	Sololá	716	San Marcos la Laguna 	11	San Marcos la laguna 	3	Marzo	2023-03-28T00:00:00	2024-11-08T22:00:00	7	Dirección del viento	6.44
184999	7	Sololá	716	San Marcos la Laguna 	11	San Marcos la laguna 	3	Marzo	2023-03-28T00:00:00	2024-11-08T22:00:00	1	Precipitación	0
185000	7	Sololá	716	San Marcos la Laguna 	11	San Marcos la laguna 	3	Marzo	2023-03-28T00:00:00	2024-11-08T22:00:00	8	Radiación solar	0
185001	7	Sololá	716	San Marcos la Laguna 	11	San Marcos la laguna 	3	Marzo	2023-03-28T00:00:00	2024-11-08T23:00:00	2	Temperatura media	18.8
185002	7	Sololá	716	San Marcos la Laguna 	11	San Marcos la laguna 	3	Marzo	2023-03-28T00:00:00	2024-11-08T23:00:00	4	Temperatura máxima	18.9
185003	7	Sololá	716	San Marcos la Laguna 	11	San Marcos la laguna 	3	Marzo	2023-03-28T00:00:00	2024-11-08T23:00:00	3	Temperatura mínima	18.3
185004	7	Sololá	716	San Marcos la Laguna 	11	San Marcos la laguna 	3	Marzo	2023-03-28T00:00:00	2024-11-08T23:00:00	5	Humedad	80
185005	7	Sololá	716	San Marcos la Laguna 	11	San Marcos la laguna 	3	Marzo	2023-03-28T00:00:00	2024-11-08T23:00:00	6	Velocidad del viento	6.4
185006	7	Sololá	716	San Marcos la Laguna 	11	San Marcos la laguna 	3	Marzo	2023-03-28T00:00:00	2024-11-08T23:00:00	7	Dirección del viento	6.44
185007	7	Sololá	716	San Marcos la Laguna 	11	San Marcos la laguna 	3	Marzo	2023-03-28T00:00:00	2024-11-08T23:00:00	1	Precipitación	0
185008	7	Sololá	716	San Marcos la Laguna 	11	San Marcos la laguna 	3	Marzo	2023-03-28T00:00:00	2024-11-08T23:00:00	8	Radiación solar	0
185009	7	Sololá	716	San Marcos la Laguna 	11	San Marcos la laguna 	3	Marzo	2023-03-29T00:00:00	2024-11-08T00:00:00	2	Temperatura media	17.9
185010	7	Sololá	716	San Marcos la Laguna 	11	San Marcos la laguna 	3	Marzo	2023-03-29T00:00:00	2024-11-08T00:00:00	4	Temperatura máxima	18.9
185011	7	Sololá	716	San Marcos la Laguna 	11	San Marcos la laguna 	3	Marzo	2023-03-29T00:00:00	2024-11-08T00:00:00	3	Temperatura mínima	17.9
185012	7	Sololá	716	San Marcos la Laguna 	11	San Marcos la laguna 	3	Marzo	2023-03-29T00:00:00	2024-11-08T00:00:00	5	Humedad	78
185013	7	Sololá	716	San Marcos la Laguna 	11	San Marcos la laguna 	3	Marzo	2023-03-29T00:00:00	2024-11-08T00:00:00	6	Velocidad del viento	8
185014	7	Sololá	716	San Marcos la Laguna 	11	San Marcos la laguna 	3	Marzo	2023-03-29T00:00:00	2024-11-08T00:00:00	7	Dirección del viento	8.05
185015	7	Sololá	716	San Marcos la Laguna 	11	San Marcos la laguna 	3	Marzo	2023-03-29T00:00:00	2024-11-08T00:00:00	1	Precipitación	0
185016	7	Sololá	716	San Marcos la Laguna 	11	San Marcos la laguna 	3	Marzo	2023-03-29T00:00:00	2024-11-08T00:00:00	8	Radiación solar	0
185017	7	Sololá	716	San Marcos la Laguna 	11	San Marcos la laguna 	3	Marzo	2023-03-29T00:00:00	2024-11-08T01:00:00	2	Temperatura media	17.8
185018	7	Sololá	716	San Marcos la Laguna 	11	San Marcos la laguna 	3	Marzo	2023-03-29T00:00:00	2024-11-08T01:00:00	4	Temperatura máxima	18.1
185019	7	Sololá	716	San Marcos la Laguna 	11	San Marcos la laguna 	3	Marzo	2023-03-29T00:00:00	2024-11-08T01:00:00	3	Temperatura mínima	17.7
185020	7	Sololá	716	San Marcos la Laguna 	11	San Marcos la laguna 	3	Marzo	2023-03-29T00:00:00	2024-11-08T01:00:00	5	Humedad	81
185021	7	Sololá	716	San Marcos la Laguna 	11	San Marcos la laguna 	3	Marzo	2023-03-29T00:00:00	2024-11-08T01:00:00	6	Velocidad del viento	4.8
185022	7	Sololá	716	San Marcos la Laguna 	11	San Marcos la laguna 	3	Marzo	2023-03-29T00:00:00	2024-11-08T01:00:00	7	Dirección del viento	4.83
185023	7	Sololá	716	San Marcos la Laguna 	11	San Marcos la laguna 	3	Marzo	2023-03-29T00:00:00	2024-11-08T01:00:00	1	Precipitación	0
185024	7	Sololá	716	San Marcos la Laguna 	11	San Marcos la laguna 	3	Marzo	2023-03-29T00:00:00	2024-11-08T01:00:00	8	Radiación solar	0
185025	7	Sololá	716	San Marcos la Laguna 	11	San Marcos la laguna 	3	Marzo	2023-03-29T00:00:00	2024-11-08T02:00:00	2	Temperatura media	16.9
185026	7	Sololá	716	San Marcos la Laguna 	11	San Marcos la laguna 	3	Marzo	2023-03-29T00:00:00	2024-11-08T02:00:00	4	Temperatura máxima	17.8
185027	7	Sololá	716	San Marcos la Laguna 	11	San Marcos la laguna 	3	Marzo	2023-03-29T00:00:00	2024-11-08T02:00:00	3	Temperatura mínima	16.8
185028	7	Sololá	716	San Marcos la Laguna 	11	San Marcos la laguna 	3	Marzo	2023-03-29T00:00:00	2024-11-08T02:00:00	5	Humedad	81
185029	7	Sololá	716	San Marcos la Laguna 	11	San Marcos la laguna 	3	Marzo	2023-03-29T00:00:00	2024-11-08T02:00:00	6	Velocidad del viento	4.8
185030	7	Sololá	716	San Marcos la Laguna 	11	San Marcos la laguna 	3	Marzo	2023-03-29T00:00:00	2024-11-08T02:00:00	7	Dirección del viento	4.83
185031	7	Sololá	716	San Marcos la Laguna 	11	San Marcos la laguna 	3	Marzo	2023-03-29T00:00:00	2024-11-08T02:00:00	1	Precipitación	0
185032	7	Sololá	716	San Marcos la Laguna 	11	San Marcos la laguna 	3	Marzo	2023-03-29T00:00:00	2024-11-08T02:00:00	8	Radiación solar	0
185033	7	Sololá	716	San Marcos la Laguna 	11	San Marcos la laguna 	3	Marzo	2023-03-29T00:00:00	2024-11-08T03:00:00	2	Temperatura media	16.4
185034	7	Sololá	716	San Marcos la Laguna 	11	San Marcos la laguna 	3	Marzo	2023-03-29T00:00:00	2024-11-08T03:00:00	4	Temperatura máxima	17.1
185035	7	Sololá	716	San Marcos la Laguna 	11	San Marcos la laguna 	3	Marzo	2023-03-29T00:00:00	2024-11-08T03:00:00	3	Temperatura mínima	16.3
185036	7	Sololá	716	San Marcos la Laguna 	11	San Marcos la laguna 	3	Marzo	2023-03-29T00:00:00	2024-11-08T03:00:00	5	Humedad	81
185037	7	Sololá	716	San Marcos la Laguna 	11	San Marcos la laguna 	3	Marzo	2023-03-29T00:00:00	2024-11-08T03:00:00	6	Velocidad del viento	6.4
185038	7	Sololá	716	San Marcos la Laguna 	11	San Marcos la laguna 	3	Marzo	2023-03-29T00:00:00	2024-11-08T03:00:00	7	Dirección del viento	6.44
185039	7	Sololá	716	San Marcos la Laguna 	11	San Marcos la laguna 	3	Marzo	2023-03-29T00:00:00	2024-11-08T03:00:00	1	Precipitación	0
185040	7	Sololá	716	San Marcos la Laguna 	11	San Marcos la laguna 	3	Marzo	2023-03-29T00:00:00	2024-11-08T03:00:00	8	Radiación solar	0
185041	7	Sololá	716	San Marcos la Laguna 	11	San Marcos la laguna 	3	Marzo	2023-03-29T00:00:00	2024-11-08T04:00:00	2	Temperatura media	16.1
185042	7	Sololá	716	San Marcos la Laguna 	11	San Marcos la laguna 	3	Marzo	2023-03-29T00:00:00	2024-11-08T04:00:00	4	Temperatura máxima	16.6
185043	7	Sololá	716	San Marcos la Laguna 	11	San Marcos la laguna 	3	Marzo	2023-03-29T00:00:00	2024-11-08T04:00:00	3	Temperatura mínima	16.1
185044	7	Sololá	716	San Marcos la Laguna 	11	San Marcos la laguna 	3	Marzo	2023-03-29T00:00:00	2024-11-08T04:00:00	5	Humedad	80
185045	7	Sololá	716	San Marcos la Laguna 	11	San Marcos la laguna 	3	Marzo	2023-03-29T00:00:00	2024-11-08T04:00:00	6	Velocidad del viento	8
185046	7	Sololá	716	San Marcos la Laguna 	11	San Marcos la laguna 	3	Marzo	2023-03-29T00:00:00	2024-11-08T04:00:00	7	Dirección del viento	8.05
185047	7	Sololá	716	San Marcos la Laguna 	11	San Marcos la laguna 	3	Marzo	2023-03-29T00:00:00	2024-11-08T04:00:00	1	Precipitación	0
185048	7	Sololá	716	San Marcos la Laguna 	11	San Marcos la laguna 	3	Marzo	2023-03-29T00:00:00	2024-11-08T04:00:00	8	Radiación solar	0
185049	7	Sololá	716	San Marcos la Laguna 	11	San Marcos la laguna 	3	Marzo	2023-03-29T00:00:00	2024-11-08T05:00:00	2	Temperatura media	16.4
185050	7	Sololá	716	San Marcos la Laguna 	11	San Marcos la laguna 	3	Marzo	2023-03-29T00:00:00	2024-11-08T05:00:00	4	Temperatura máxima	16.5
185051	7	Sololá	716	San Marcos la Laguna 	11	San Marcos la laguna 	3	Marzo	2023-03-29T00:00:00	2024-11-08T05:00:00	3	Temperatura mínima	15.9
185052	7	Sololá	716	San Marcos la Laguna 	11	San Marcos la laguna 	3	Marzo	2023-03-29T00:00:00	2024-11-08T05:00:00	5	Humedad	81
185053	7	Sololá	716	San Marcos la Laguna 	11	San Marcos la laguna 	3	Marzo	2023-03-29T00:00:00	2024-11-08T05:00:00	6	Velocidad del viento	6.4
185054	7	Sololá	716	San Marcos la Laguna 	11	San Marcos la laguna 	3	Marzo	2023-03-29T00:00:00	2024-11-08T05:00:00	7	Dirección del viento	6.44
185055	7	Sololá	716	San Marcos la Laguna 	11	San Marcos la laguna 	3	Marzo	2023-03-29T00:00:00	2024-11-08T05:00:00	1	Precipitación	0
185056	7	Sololá	716	San Marcos la Laguna 	11	San Marcos la laguna 	3	Marzo	2023-03-29T00:00:00	2024-11-08T05:00:00	8	Radiación solar	0
185057	7	Sololá	716	San Marcos la Laguna 	11	San Marcos la laguna 	3	Marzo	2023-03-29T00:00:00	2024-11-08T06:00:00	2	Temperatura media	15.2
185058	7	Sololá	716	San Marcos la Laguna 	11	San Marcos la laguna 	3	Marzo	2023-03-29T00:00:00	2024-11-08T06:00:00	4	Temperatura máxima	16.4
185059	7	Sololá	716	San Marcos la Laguna 	11	San Marcos la laguna 	3	Marzo	2023-03-29T00:00:00	2024-11-08T06:00:00	3	Temperatura mínima	15.2
185060	7	Sololá	716	San Marcos la Laguna 	11	San Marcos la laguna 	3	Marzo	2023-03-29T00:00:00	2024-11-08T06:00:00	5	Humedad	84
185061	7	Sololá	716	San Marcos la Laguna 	11	San Marcos la laguna 	3	Marzo	2023-03-29T00:00:00	2024-11-08T06:00:00	6	Velocidad del viento	6.4
185062	7	Sololá	716	San Marcos la Laguna 	11	San Marcos la laguna 	3	Marzo	2023-03-29T00:00:00	2024-11-08T06:00:00	7	Dirección del viento	6.44
185063	7	Sololá	716	San Marcos la Laguna 	11	San Marcos la laguna 	3	Marzo	2023-03-29T00:00:00	2024-11-08T06:00:00	1	Precipitación	0
185064	7	Sololá	716	San Marcos la Laguna 	11	San Marcos la laguna 	3	Marzo	2023-03-29T00:00:00	2024-11-08T06:00:00	8	Radiación solar	0
185065	7	Sololá	716	San Marcos la Laguna 	11	San Marcos la laguna 	3	Marzo	2023-03-29T00:00:00	2024-11-08T07:00:00	2	Temperatura media	16.1
185066	7	Sololá	716	San Marcos la Laguna 	11	San Marcos la laguna 	3	Marzo	2023-03-29T00:00:00	2024-11-08T07:00:00	4	Temperatura máxima	16.2
185067	7	Sololá	716	San Marcos la Laguna 	11	San Marcos la laguna 	3	Marzo	2023-03-29T00:00:00	2024-11-08T07:00:00	3	Temperatura mínima	15.2
185068	7	Sololá	716	San Marcos la Laguna 	11	San Marcos la laguna 	3	Marzo	2023-03-29T00:00:00	2024-11-08T07:00:00	5	Humedad	83
185069	7	Sololá	716	San Marcos la Laguna 	11	San Marcos la laguna 	3	Marzo	2023-03-29T00:00:00	2024-11-08T07:00:00	6	Velocidad del viento	6.4
185070	7	Sololá	716	San Marcos la Laguna 	11	San Marcos la laguna 	3	Marzo	2023-03-29T00:00:00	2024-11-08T07:00:00	7	Dirección del viento	6.44
185071	7	Sololá	716	San Marcos la Laguna 	11	San Marcos la laguna 	3	Marzo	2023-03-29T00:00:00	2024-11-08T07:00:00	1	Precipitación	0
185072	7	Sololá	716	San Marcos la Laguna 	11	San Marcos la laguna 	3	Marzo	2023-03-29T00:00:00	2024-11-08T07:00:00	8	Radiación solar	34
185073	7	Sololá	716	San Marcos la Laguna 	11	San Marcos la laguna 	3	Marzo	2023-03-29T00:00:00	2024-11-08T08:00:00	2	Temperatura media	20.3
185074	7	Sololá	716	San Marcos la Laguna 	11	San Marcos la laguna 	3	Marzo	2023-03-29T00:00:00	2024-11-08T08:00:00	4	Temperatura máxima	20.3
185075	7	Sololá	716	San Marcos la Laguna 	11	San Marcos la laguna 	3	Marzo	2023-03-29T00:00:00	2024-11-08T08:00:00	3	Temperatura mínima	16.1
185076	7	Sololá	716	San Marcos la Laguna 	11	San Marcos la laguna 	3	Marzo	2023-03-29T00:00:00	2024-11-08T08:00:00	5	Humedad	70
185077	7	Sololá	716	San Marcos la Laguna 	11	San Marcos la laguna 	3	Marzo	2023-03-29T00:00:00	2024-11-08T08:00:00	6	Velocidad del viento	3.2
185078	7	Sololá	716	San Marcos la Laguna 	11	San Marcos la laguna 	3	Marzo	2023-03-29T00:00:00	2024-11-08T08:00:00	7	Dirección del viento	3.22
185079	7	Sololá	716	San Marcos la Laguna 	11	San Marcos la laguna 	3	Marzo	2023-03-29T00:00:00	2024-11-08T08:00:00	1	Precipitación	0
185080	7	Sololá	716	San Marcos la Laguna 	11	San Marcos la laguna 	3	Marzo	2023-03-29T00:00:00	2024-11-08T08:00:00	8	Radiación solar	212
185081	7	Sololá	716	San Marcos la Laguna 	11	San Marcos la laguna 	3	Marzo	2023-03-29T00:00:00	2024-11-08T09:00:00	2	Temperatura media	21.6
185082	7	Sololá	716	San Marcos la Laguna 	11	San Marcos la laguna 	3	Marzo	2023-03-29T00:00:00	2024-11-08T09:00:00	4	Temperatura máxima	21.8
185083	7	Sololá	716	San Marcos la Laguna 	11	San Marcos la laguna 	3	Marzo	2023-03-29T00:00:00	2024-11-08T09:00:00	3	Temperatura mínima	20.3
185084	7	Sololá	716	San Marcos la Laguna 	11	San Marcos la laguna 	3	Marzo	2023-03-29T00:00:00	2024-11-08T09:00:00	5	Humedad	64
185085	7	Sololá	716	San Marcos la Laguna 	11	San Marcos la laguna 	3	Marzo	2023-03-29T00:00:00	2024-11-08T09:00:00	6	Velocidad del viento	3.2
185086	7	Sololá	716	San Marcos la Laguna 	11	San Marcos la laguna 	3	Marzo	2023-03-29T00:00:00	2024-11-08T09:00:00	7	Dirección del viento	3.22
185087	7	Sololá	716	San Marcos la Laguna 	11	San Marcos la laguna 	3	Marzo	2023-03-29T00:00:00	2024-11-08T09:00:00	1	Precipitación	0
185088	7	Sololá	716	San Marcos la Laguna 	11	San Marcos la laguna 	3	Marzo	2023-03-29T00:00:00	2024-11-08T09:00:00	8	Radiación solar	462
185089	7	Sololá	716	San Marcos la Laguna 	11	San Marcos la laguna 	3	Marzo	2023-03-29T00:00:00	2024-11-08T10:00:00	2	Temperatura media	22.9
185090	7	Sololá	716	San Marcos la Laguna 	11	San Marcos la laguna 	3	Marzo	2023-03-29T00:00:00	2024-11-08T10:00:00	4	Temperatura máxima	23.1
185091	7	Sololá	716	San Marcos la Laguna 	11	San Marcos la laguna 	3	Marzo	2023-03-29T00:00:00	2024-11-08T10:00:00	3	Temperatura mínima	21.6
185092	7	Sololá	716	San Marcos la Laguna 	11	San Marcos la laguna 	3	Marzo	2023-03-29T00:00:00	2024-11-08T10:00:00	5	Humedad	53
185093	7	Sololá	716	San Marcos la Laguna 	11	San Marcos la laguna 	3	Marzo	2023-03-29T00:00:00	2024-11-08T10:00:00	6	Velocidad del viento	14.5
185094	7	Sololá	716	San Marcos la Laguna 	11	San Marcos la laguna 	3	Marzo	2023-03-29T00:00:00	2024-11-08T10:00:00	7	Dirección del viento	14.48
185095	7	Sololá	716	San Marcos la Laguna 	11	San Marcos la laguna 	3	Marzo	2023-03-29T00:00:00	2024-11-08T10:00:00	1	Precipitación	0
185096	7	Sololá	716	San Marcos la Laguna 	11	San Marcos la laguna 	3	Marzo	2023-03-29T00:00:00	2024-11-08T10:00:00	8	Radiación solar	667
185097	7	Sololá	716	San Marcos la Laguna 	11	San Marcos la laguna 	3	Marzo	2023-03-29T00:00:00	2024-11-08T11:00:00	2	Temperatura media	23.5
185098	7	Sololá	716	San Marcos la Laguna 	11	San Marcos la laguna 	3	Marzo	2023-03-29T00:00:00	2024-11-08T11:00:00	4	Temperatura máxima	23.9
185099	7	Sololá	716	San Marcos la Laguna 	11	San Marcos la laguna 	3	Marzo	2023-03-29T00:00:00	2024-11-08T11:00:00	3	Temperatura mínima	22.9
185100	7	Sololá	716	San Marcos la Laguna 	11	San Marcos la laguna 	3	Marzo	2023-03-29T00:00:00	2024-11-08T11:00:00	5	Humedad	52
185101	7	Sololá	716	San Marcos la Laguna 	11	San Marcos la laguna 	3	Marzo	2023-03-29T00:00:00	2024-11-08T11:00:00	6	Velocidad del viento	25.7
185102	7	Sololá	716	San Marcos la Laguna 	11	San Marcos la laguna 	3	Marzo	2023-03-29T00:00:00	2024-11-08T11:00:00	7	Dirección del viento	25.75
185103	7	Sololá	716	San Marcos la Laguna 	11	San Marcos la laguna 	3	Marzo	2023-03-29T00:00:00	2024-11-08T11:00:00	1	Precipitación	0
185104	7	Sololá	716	San Marcos la Laguna 	11	San Marcos la laguna 	3	Marzo	2023-03-29T00:00:00	2024-11-08T11:00:00	8	Radiación solar	814
185105	7	Sololá	716	San Marcos la Laguna 	11	San Marcos la laguna 	3	Marzo	2023-03-29T00:00:00	2024-11-08T12:00:00	2	Temperatura media	24.4
185106	7	Sololá	716	San Marcos la Laguna 	11	San Marcos la laguna 	3	Marzo	2023-03-29T00:00:00	2024-11-08T12:00:00	4	Temperatura máxima	24.6
185107	7	Sololá	716	San Marcos la Laguna 	11	San Marcos la laguna 	3	Marzo	2023-03-29T00:00:00	2024-11-08T12:00:00	3	Temperatura mínima	23.4
185108	7	Sololá	716	San Marcos la Laguna 	11	San Marcos la laguna 	3	Marzo	2023-03-29T00:00:00	2024-11-08T12:00:00	5	Humedad	53
185109	7	Sololá	716	San Marcos la Laguna 	11	San Marcos la laguna 	3	Marzo	2023-03-29T00:00:00	2024-11-08T12:00:00	6	Velocidad del viento	29
185110	7	Sololá	716	San Marcos la Laguna 	11	San Marcos la laguna 	3	Marzo	2023-03-29T00:00:00	2024-11-08T12:00:00	7	Dirección del viento	28.97
185111	7	Sololá	716	San Marcos la Laguna 	11	San Marcos la laguna 	3	Marzo	2023-03-29T00:00:00	2024-11-08T12:00:00	1	Precipitación	0
185112	7	Sololá	716	San Marcos la Laguna 	11	San Marcos la laguna 	3	Marzo	2023-03-29T00:00:00	2024-11-08T12:00:00	8	Radiación solar	904
185113	7	Sololá	716	San Marcos la Laguna 	11	San Marcos la laguna 	3	Marzo	2023-03-29T00:00:00	2024-11-08T13:00:00	2	Temperatura media	25.2
185114	7	Sololá	716	San Marcos la Laguna 	11	San Marcos la laguna 	3	Marzo	2023-03-29T00:00:00	2024-11-08T13:00:00	4	Temperatura máxima	25.5
185115	7	Sololá	716	San Marcos la Laguna 	11	San Marcos la laguna 	3	Marzo	2023-03-29T00:00:00	2024-11-08T13:00:00	3	Temperatura mínima	24.3
185116	7	Sololá	716	San Marcos la Laguna 	11	San Marcos la laguna 	3	Marzo	2023-03-29T00:00:00	2024-11-08T13:00:00	5	Humedad	39
185117	7	Sololá	716	San Marcos la Laguna 	11	San Marcos la laguna 	3	Marzo	2023-03-29T00:00:00	2024-11-08T13:00:00	6	Velocidad del viento	30.6
185118	7	Sololá	716	San Marcos la Laguna 	11	San Marcos la laguna 	3	Marzo	2023-03-29T00:00:00	2024-11-08T13:00:00	7	Dirección del viento	30.58
185119	7	Sololá	716	San Marcos la Laguna 	11	San Marcos la laguna 	3	Marzo	2023-03-29T00:00:00	2024-11-08T13:00:00	1	Precipitación	0
185120	7	Sololá	716	San Marcos la Laguna 	11	San Marcos la laguna 	3	Marzo	2023-03-29T00:00:00	2024-11-08T13:00:00	8	Radiación solar	921
185121	7	Sololá	716	San Marcos la Laguna 	11	San Marcos la laguna 	3	Marzo	2023-03-29T00:00:00	2024-11-08T14:00:00	2	Temperatura media	25.9
185122	7	Sololá	716	San Marcos la Laguna 	11	San Marcos la laguna 	3	Marzo	2023-03-29T00:00:00	2024-11-08T14:00:00	4	Temperatura máxima	25.9
185123	7	Sololá	716	San Marcos la Laguna 	11	San Marcos la laguna 	3	Marzo	2023-03-29T00:00:00	2024-11-08T14:00:00	3	Temperatura mínima	24.9
185124	7	Sololá	716	San Marcos la Laguna 	11	San Marcos la laguna 	3	Marzo	2023-03-29T00:00:00	2024-11-08T14:00:00	5	Humedad	41
185125	7	Sololá	716	San Marcos la Laguna 	11	San Marcos la laguna 	3	Marzo	2023-03-29T00:00:00	2024-11-08T14:00:00	6	Velocidad del viento	24.1
185126	7	Sololá	716	San Marcos la Laguna 	11	San Marcos la laguna 	3	Marzo	2023-03-29T00:00:00	2024-11-08T14:00:00	7	Dirección del viento	24.14
185127	7	Sololá	716	San Marcos la Laguna 	11	San Marcos la laguna 	3	Marzo	2023-03-29T00:00:00	2024-11-08T14:00:00	1	Precipitación	0
185128	7	Sololá	716	San Marcos la Laguna 	11	San Marcos la laguna 	3	Marzo	2023-03-29T00:00:00	2024-11-08T14:00:00	8	Radiación solar	878
185129	7	Sololá	716	San Marcos la Laguna 	11	San Marcos la laguna 	3	Marzo	2023-03-29T00:00:00	2024-11-08T15:00:00	2	Temperatura media	24.9
185130	7	Sololá	716	San Marcos la Laguna 	11	San Marcos la laguna 	3	Marzo	2023-03-29T00:00:00	2024-11-08T15:00:00	4	Temperatura máxima	25.8
185131	7	Sololá	716	San Marcos la Laguna 	11	San Marcos la laguna 	3	Marzo	2023-03-29T00:00:00	2024-11-08T15:00:00	3	Temperatura mínima	24.6
185132	7	Sololá	716	San Marcos la Laguna 	11	San Marcos la laguna 	3	Marzo	2023-03-29T00:00:00	2024-11-08T15:00:00	5	Humedad	60
185133	7	Sololá	716	San Marcos la Laguna 	11	San Marcos la laguna 	3	Marzo	2023-03-29T00:00:00	2024-11-08T15:00:00	6	Velocidad del viento	11.3
185134	7	Sololá	716	San Marcos la Laguna 	11	San Marcos la laguna 	3	Marzo	2023-03-29T00:00:00	2024-11-08T15:00:00	7	Dirección del viento	11.27
185135	7	Sololá	716	San Marcos la Laguna 	11	San Marcos la laguna 	3	Marzo	2023-03-29T00:00:00	2024-11-08T15:00:00	1	Precipitación	0
185136	7	Sololá	716	San Marcos la Laguna 	11	San Marcos la laguna 	3	Marzo	2023-03-29T00:00:00	2024-11-08T15:00:00	8	Radiación solar	763
185137	7	Sololá	716	San Marcos la Laguna 	11	San Marcos la laguna 	3	Marzo	2023-03-29T00:00:00	2024-11-08T16:00:00	2	Temperatura media	24.8
185138	7	Sololá	716	San Marcos la Laguna 	11	San Marcos la laguna 	3	Marzo	2023-03-29T00:00:00	2024-11-08T16:00:00	4	Temperatura máxima	25.1
185139	7	Sololá	716	San Marcos la Laguna 	11	San Marcos la laguna 	3	Marzo	2023-03-29T00:00:00	2024-11-08T16:00:00	3	Temperatura mínima	24.4
185140	7	Sololá	716	San Marcos la Laguna 	11	San Marcos la laguna 	3	Marzo	2023-03-29T00:00:00	2024-11-08T16:00:00	5	Humedad	57
185141	7	Sololá	716	San Marcos la Laguna 	11	San Marcos la laguna 	3	Marzo	2023-03-29T00:00:00	2024-11-08T16:00:00	6	Velocidad del viento	8
185142	7	Sololá	716	San Marcos la Laguna 	11	San Marcos la laguna 	3	Marzo	2023-03-29T00:00:00	2024-11-08T16:00:00	7	Dirección del viento	8.05
185143	7	Sololá	716	San Marcos la Laguna 	11	San Marcos la laguna 	3	Marzo	2023-03-29T00:00:00	2024-11-08T16:00:00	1	Precipitación	0
185144	7	Sololá	716	San Marcos la Laguna 	11	San Marcos la laguna 	3	Marzo	2023-03-29T00:00:00	2024-11-08T16:00:00	8	Radiación solar	566
185145	7	Sololá	716	San Marcos la Laguna 	11	San Marcos la laguna 	3	Marzo	2023-03-29T00:00:00	2024-11-08T17:00:00	2	Temperatura media	23.7
185146	7	Sololá	716	San Marcos la Laguna 	11	San Marcos la laguna 	3	Marzo	2023-03-29T00:00:00	2024-11-08T17:00:00	4	Temperatura máxima	24.8
185147	7	Sololá	716	San Marcos la Laguna 	11	San Marcos la laguna 	3	Marzo	2023-03-29T00:00:00	2024-11-08T17:00:00	3	Temperatura mínima	23.6
185148	7	Sololá	716	San Marcos la Laguna 	11	San Marcos la laguna 	3	Marzo	2023-03-29T00:00:00	2024-11-08T17:00:00	5	Humedad	61
185149	7	Sololá	716	San Marcos la Laguna 	11	San Marcos la laguna 	3	Marzo	2023-03-29T00:00:00	2024-11-08T17:00:00	6	Velocidad del viento	8
185150	7	Sololá	716	San Marcos la Laguna 	11	San Marcos la laguna 	3	Marzo	2023-03-29T00:00:00	2024-11-08T17:00:00	7	Dirección del viento	8.05
185151	7	Sololá	716	San Marcos la Laguna 	11	San Marcos la laguna 	3	Marzo	2023-03-29T00:00:00	2024-11-08T17:00:00	1	Precipitación	0
185152	7	Sololá	716	San Marcos la Laguna 	11	San Marcos la laguna 	3	Marzo	2023-03-29T00:00:00	2024-11-08T17:00:00	8	Radiación solar	340
185153	7	Sololá	716	San Marcos la Laguna 	11	San Marcos la laguna 	3	Marzo	2023-03-29T00:00:00	2024-11-08T18:00:00	2	Temperatura media	23.6
185154	7	Sololá	716	San Marcos la Laguna 	11	San Marcos la laguna 	3	Marzo	2023-03-29T00:00:00	2024-11-08T18:00:00	4	Temperatura máxima	24.4
185155	7	Sololá	716	San Marcos la Laguna 	11	San Marcos la laguna 	3	Marzo	2023-03-29T00:00:00	2024-11-08T18:00:00	3	Temperatura mínima	23.2
185156	7	Sololá	716	San Marcos la Laguna 	11	San Marcos la laguna 	3	Marzo	2023-03-29T00:00:00	2024-11-08T18:00:00	5	Humedad	43
185157	7	Sololá	716	San Marcos la Laguna 	11	San Marcos la laguna 	3	Marzo	2023-03-29T00:00:00	2024-11-08T18:00:00	6	Velocidad del viento	14.5
185158	7	Sololá	716	San Marcos la Laguna 	11	San Marcos la laguna 	3	Marzo	2023-03-29T00:00:00	2024-11-08T18:00:00	7	Dirección del viento	14.48
185159	7	Sololá	716	San Marcos la Laguna 	11	San Marcos la laguna 	3	Marzo	2023-03-29T00:00:00	2024-11-08T18:00:00	1	Precipitación	0
185160	7	Sololá	716	San Marcos la Laguna 	11	San Marcos la laguna 	3	Marzo	2023-03-29T00:00:00	2024-11-08T18:00:00	8	Radiación solar	97
185161	7	Sololá	716	San Marcos la Laguna 	11	San Marcos la laguna 	3	Marzo	2023-03-29T00:00:00	2024-11-08T19:00:00	2	Temperatura media	22.2
185162	7	Sololá	716	San Marcos la Laguna 	11	San Marcos la laguna 	3	Marzo	2023-03-29T00:00:00	2024-11-08T19:00:00	4	Temperatura máxima	23.7
185163	7	Sololá	716	San Marcos la Laguna 	11	San Marcos la laguna 	3	Marzo	2023-03-29T00:00:00	2024-11-08T19:00:00	3	Temperatura mínima	22.2
185164	7	Sololá	716	San Marcos la Laguna 	11	San Marcos la laguna 	3	Marzo	2023-03-29T00:00:00	2024-11-08T19:00:00	5	Humedad	47
185165	7	Sololá	716	San Marcos la Laguna 	11	San Marcos la laguna 	3	Marzo	2023-03-29T00:00:00	2024-11-08T19:00:00	6	Velocidad del viento	11.3
185166	7	Sololá	716	San Marcos la Laguna 	11	San Marcos la laguna 	3	Marzo	2023-03-29T00:00:00	2024-11-08T19:00:00	7	Dirección del viento	11.27
185167	7	Sololá	716	San Marcos la Laguna 	11	San Marcos la laguna 	3	Marzo	2023-03-29T00:00:00	2024-11-08T19:00:00	1	Precipitación	0
185168	7	Sololá	716	San Marcos la Laguna 	11	San Marcos la laguna 	3	Marzo	2023-03-29T00:00:00	2024-11-08T19:00:00	8	Radiación solar	0
185169	7	Sololá	716	San Marcos la Laguna 	11	San Marcos la laguna 	3	Marzo	2023-03-29T00:00:00	2024-11-08T20:00:00	2	Temperatura media	21
185170	7	Sololá	716	San Marcos la Laguna 	11	San Marcos la laguna 	3	Marzo	2023-03-29T00:00:00	2024-11-08T20:00:00	4	Temperatura máxima	22.2
185171	7	Sololá	716	San Marcos la Laguna 	11	San Marcos la laguna 	3	Marzo	2023-03-29T00:00:00	2024-11-08T20:00:00	3	Temperatura mínima	21
185172	7	Sololá	716	San Marcos la Laguna 	11	San Marcos la laguna 	3	Marzo	2023-03-29T00:00:00	2024-11-08T20:00:00	5	Humedad	53
185173	7	Sololá	716	San Marcos la Laguna 	11	San Marcos la laguna 	3	Marzo	2023-03-29T00:00:00	2024-11-08T20:00:00	6	Velocidad del viento	14.5
185174	7	Sololá	716	San Marcos la Laguna 	11	San Marcos la laguna 	3	Marzo	2023-03-29T00:00:00	2024-11-08T20:00:00	7	Dirección del viento	14.48
185175	7	Sololá	716	San Marcos la Laguna 	11	San Marcos la laguna 	3	Marzo	2023-03-29T00:00:00	2024-11-08T20:00:00	1	Precipitación	0
185176	7	Sololá	716	San Marcos la Laguna 	11	San Marcos la laguna 	3	Marzo	2023-03-29T00:00:00	2024-11-08T20:00:00	8	Radiación solar	0
185177	7	Sololá	716	San Marcos la Laguna 	11	San Marcos la laguna 	3	Marzo	2023-03-29T00:00:00	2024-11-08T21:00:00	2	Temperatura media	20.2
185178	7	Sololá	716	San Marcos la Laguna 	11	San Marcos la laguna 	3	Marzo	2023-03-29T00:00:00	2024-11-08T21:00:00	4	Temperatura máxima	21
185179	7	Sololá	716	San Marcos la Laguna 	11	San Marcos la laguna 	3	Marzo	2023-03-29T00:00:00	2024-11-08T21:00:00	3	Temperatura mínima	20.2
185180	7	Sololá	716	San Marcos la Laguna 	11	San Marcos la laguna 	3	Marzo	2023-03-29T00:00:00	2024-11-08T21:00:00	5	Humedad	55
185181	7	Sololá	716	San Marcos la Laguna 	11	San Marcos la laguna 	3	Marzo	2023-03-29T00:00:00	2024-11-08T21:00:00	6	Velocidad del viento	12.9
185182	7	Sololá	716	San Marcos la Laguna 	11	San Marcos la laguna 	3	Marzo	2023-03-29T00:00:00	2024-11-08T21:00:00	7	Dirección del viento	12.87
185183	7	Sololá	716	San Marcos la Laguna 	11	San Marcos la laguna 	3	Marzo	2023-03-29T00:00:00	2024-11-08T21:00:00	1	Precipitación	0
185184	7	Sololá	716	San Marcos la Laguna 	11	San Marcos la laguna 	3	Marzo	2023-03-29T00:00:00	2024-11-08T21:00:00	8	Radiación solar	0
185185	7	Sololá	716	San Marcos la Laguna 	11	San Marcos la laguna 	3	Marzo	2023-03-29T00:00:00	2024-11-08T22:00:00	2	Temperatura media	18
185186	7	Sololá	716	San Marcos la Laguna 	11	San Marcos la laguna 	3	Marzo	2023-03-29T00:00:00	2024-11-08T22:00:00	4	Temperatura máxima	20.3
185187	7	Sololá	716	San Marcos la Laguna 	11	San Marcos la laguna 	3	Marzo	2023-03-29T00:00:00	2024-11-08T22:00:00	3	Temperatura mínima	18
185188	7	Sololá	716	San Marcos la Laguna 	11	San Marcos la laguna 	3	Marzo	2023-03-29T00:00:00	2024-11-08T22:00:00	5	Humedad	59
185189	7	Sololá	716	San Marcos la Laguna 	11	San Marcos la laguna 	3	Marzo	2023-03-29T00:00:00	2024-11-08T22:00:00	6	Velocidad del viento	6.4
185190	7	Sololá	716	San Marcos la Laguna 	11	San Marcos la laguna 	3	Marzo	2023-03-29T00:00:00	2024-11-08T22:00:00	7	Dirección del viento	6.44
185191	7	Sololá	716	San Marcos la Laguna 	11	San Marcos la laguna 	3	Marzo	2023-03-29T00:00:00	2024-11-08T22:00:00	1	Precipitación	0
185192	7	Sololá	716	San Marcos la Laguna 	11	San Marcos la laguna 	3	Marzo	2023-03-29T00:00:00	2024-11-08T22:00:00	8	Radiación solar	0
185193	7	Sololá	716	San Marcos la Laguna 	11	San Marcos la laguna 	3	Marzo	2023-03-29T00:00:00	2024-11-08T23:00:00	2	Temperatura media	17.5
185194	7	Sololá	716	San Marcos la Laguna 	11	San Marcos la laguna 	3	Marzo	2023-03-29T00:00:00	2024-11-08T23:00:00	4	Temperatura máxima	18.4
185195	7	Sololá	716	San Marcos la Laguna 	11	San Marcos la laguna 	3	Marzo	2023-03-29T00:00:00	2024-11-08T23:00:00	3	Temperatura mínima	17.4
185196	7	Sololá	716	San Marcos la Laguna 	11	San Marcos la laguna 	3	Marzo	2023-03-29T00:00:00	2024-11-08T23:00:00	5	Humedad	55
185197	7	Sololá	716	San Marcos la Laguna 	11	San Marcos la laguna 	3	Marzo	2023-03-29T00:00:00	2024-11-08T23:00:00	6	Velocidad del viento	4.8
185198	7	Sololá	716	San Marcos la Laguna 	11	San Marcos la laguna 	3	Marzo	2023-03-29T00:00:00	2024-11-08T23:00:00	7	Dirección del viento	4.83
185199	7	Sololá	716	San Marcos la Laguna 	11	San Marcos la laguna 	3	Marzo	2023-03-29T00:00:00	2024-11-08T23:00:00	1	Precipitación	0
185200	7	Sololá	716	San Marcos la Laguna 	11	San Marcos la laguna 	3	Marzo	2023-03-29T00:00:00	2024-11-08T23:00:00	8	Radiación solar	0
185201	7	Sololá	716	San Marcos la Laguna 	11	San Marcos la laguna 	3	Marzo	2023-03-30T00:00:00	2024-11-08T00:00:00	2	Temperatura media	18.1
185202	7	Sololá	716	San Marcos la Laguna 	11	San Marcos la laguna 	3	Marzo	2023-03-30T00:00:00	2024-11-08T00:00:00	4	Temperatura máxima	19.1
185203	7	Sololá	716	San Marcos la Laguna 	11	San Marcos la laguna 	3	Marzo	2023-03-30T00:00:00	2024-11-08T00:00:00	3	Temperatura mínima	17.3
185204	7	Sololá	716	San Marcos la Laguna 	11	San Marcos la laguna 	3	Marzo	2023-03-30T00:00:00	2024-11-08T00:00:00	5	Humedad	58
185205	7	Sololá	716	San Marcos la Laguna 	11	San Marcos la laguna 	3	Marzo	2023-03-30T00:00:00	2024-11-08T00:00:00	6	Velocidad del viento	6.4
185206	7	Sololá	716	San Marcos la Laguna 	11	San Marcos la laguna 	3	Marzo	2023-03-30T00:00:00	2024-11-08T00:00:00	7	Dirección del viento	6.44
185207	7	Sololá	716	San Marcos la Laguna 	11	San Marcos la laguna 	3	Marzo	2023-03-30T00:00:00	2024-11-08T00:00:00	1	Precipitación	0
185208	7	Sololá	716	San Marcos la Laguna 	11	San Marcos la laguna 	3	Marzo	2023-03-30T00:00:00	2024-11-08T00:00:00	8	Radiación solar	0
185209	7	Sololá	716	San Marcos la Laguna 	11	San Marcos la laguna 	3	Marzo	2023-03-30T00:00:00	2024-11-08T01:00:00	2	Temperatura media	16.7
185210	7	Sololá	716	San Marcos la Laguna 	11	San Marcos la laguna 	3	Marzo	2023-03-30T00:00:00	2024-11-08T01:00:00	4	Temperatura máxima	19.1
185211	7	Sololá	716	San Marcos la Laguna 	11	San Marcos la laguna 	3	Marzo	2023-03-30T00:00:00	2024-11-08T01:00:00	3	Temperatura mínima	16.6
185212	7	Sololá	716	San Marcos la Laguna 	11	San Marcos la laguna 	3	Marzo	2023-03-30T00:00:00	2024-11-08T01:00:00	5	Humedad	58
185213	7	Sololá	716	San Marcos la Laguna 	11	San Marcos la laguna 	3	Marzo	2023-03-30T00:00:00	2024-11-08T01:00:00	6	Velocidad del viento	8
185214	7	Sololá	716	San Marcos la Laguna 	11	San Marcos la laguna 	3	Marzo	2023-03-30T00:00:00	2024-11-08T01:00:00	7	Dirección del viento	8.05
185215	7	Sololá	716	San Marcos la Laguna 	11	San Marcos la laguna 	3	Marzo	2023-03-30T00:00:00	2024-11-08T01:00:00	1	Precipitación	0
185216	7	Sololá	716	San Marcos la Laguna 	11	San Marcos la laguna 	3	Marzo	2023-03-30T00:00:00	2024-11-08T01:00:00	8	Radiación solar	0
185217	7	Sololá	716	San Marcos la Laguna 	11	San Marcos la laguna 	3	Marzo	2023-03-30T00:00:00	2024-11-08T02:00:00	2	Temperatura media	14.9
185218	7	Sololá	716	San Marcos la Laguna 	11	San Marcos la laguna 	3	Marzo	2023-03-30T00:00:00	2024-11-08T02:00:00	4	Temperatura máxima	16.8
185219	7	Sololá	716	San Marcos la Laguna 	11	San Marcos la laguna 	3	Marzo	2023-03-30T00:00:00	2024-11-08T02:00:00	3	Temperatura mínima	14.8
185220	7	Sololá	716	San Marcos la Laguna 	11	San Marcos la laguna 	3	Marzo	2023-03-30T00:00:00	2024-11-08T02:00:00	5	Humedad	60
185221	7	Sololá	716	San Marcos la Laguna 	11	San Marcos la laguna 	3	Marzo	2023-03-30T00:00:00	2024-11-08T02:00:00	6	Velocidad del viento	4.8
185222	7	Sololá	716	San Marcos la Laguna 	11	San Marcos la laguna 	3	Marzo	2023-03-30T00:00:00	2024-11-08T02:00:00	7	Dirección del viento	4.83
185223	7	Sololá	716	San Marcos la Laguna 	11	San Marcos la laguna 	3	Marzo	2023-03-30T00:00:00	2024-11-08T02:00:00	1	Precipitación	0
185224	7	Sololá	716	San Marcos la Laguna 	11	San Marcos la laguna 	3	Marzo	2023-03-30T00:00:00	2024-11-08T02:00:00	8	Radiación solar	0
185225	7	Sololá	716	San Marcos la Laguna 	11	San Marcos la laguna 	3	Marzo	2023-03-30T00:00:00	2024-11-08T03:00:00	2	Temperatura media	15.3
185226	7	Sololá	716	San Marcos la Laguna 	11	San Marcos la laguna 	3	Marzo	2023-03-30T00:00:00	2024-11-08T03:00:00	4	Temperatura máxima	15.4
185227	7	Sololá	716	San Marcos la Laguna 	11	San Marcos la laguna 	3	Marzo	2023-03-30T00:00:00	2024-11-08T03:00:00	3	Temperatura mínima	14.7
185228	7	Sololá	716	San Marcos la Laguna 	11	San Marcos la laguna 	3	Marzo	2023-03-30T00:00:00	2024-11-08T03:00:00	5	Humedad	57
185229	7	Sololá	716	San Marcos la Laguna 	11	San Marcos la laguna 	3	Marzo	2023-03-30T00:00:00	2024-11-08T03:00:00	6	Velocidad del viento	8
185230	7	Sololá	716	San Marcos la Laguna 	11	San Marcos la laguna 	3	Marzo	2023-03-30T00:00:00	2024-11-08T03:00:00	7	Dirección del viento	8.05
185231	7	Sololá	716	San Marcos la Laguna 	11	San Marcos la laguna 	3	Marzo	2023-03-30T00:00:00	2024-11-08T03:00:00	1	Precipitación	0
185232	7	Sololá	716	San Marcos la Laguna 	11	San Marcos la laguna 	3	Marzo	2023-03-30T00:00:00	2024-11-08T03:00:00	8	Radiación solar	0
185233	7	Sololá	716	San Marcos la Laguna 	11	San Marcos la laguna 	3	Marzo	2023-03-30T00:00:00	2024-11-08T04:00:00	2	Temperatura media	14.3
185234	7	Sololá	716	San Marcos la Laguna 	11	San Marcos la laguna 	3	Marzo	2023-03-30T00:00:00	2024-11-08T04:00:00	4	Temperatura máxima	15.3
185235	7	Sololá	716	San Marcos la Laguna 	11	San Marcos la laguna 	3	Marzo	2023-03-30T00:00:00	2024-11-08T04:00:00	3	Temperatura mínima	14.2
185236	7	Sololá	716	San Marcos la Laguna 	11	San Marcos la laguna 	3	Marzo	2023-03-30T00:00:00	2024-11-08T04:00:00	5	Humedad	62
185237	7	Sololá	716	San Marcos la Laguna 	11	San Marcos la laguna 	3	Marzo	2023-03-30T00:00:00	2024-11-08T04:00:00	6	Velocidad del viento	8
185238	7	Sololá	716	San Marcos la Laguna 	11	San Marcos la laguna 	3	Marzo	2023-03-30T00:00:00	2024-11-08T04:00:00	7	Dirección del viento	8.05
185239	7	Sololá	716	San Marcos la Laguna 	11	San Marcos la laguna 	3	Marzo	2023-03-30T00:00:00	2024-11-08T04:00:00	1	Precipitación	0
185240	7	Sololá	716	San Marcos la Laguna 	11	San Marcos la laguna 	3	Marzo	2023-03-30T00:00:00	2024-11-08T04:00:00	8	Radiación solar	0
185241	7	Sololá	716	San Marcos la Laguna 	11	San Marcos la laguna 	3	Marzo	2023-03-30T00:00:00	2024-11-08T05:00:00	2	Temperatura media	13.8
185242	7	Sololá	716	San Marcos la Laguna 	11	San Marcos la laguna 	3	Marzo	2023-03-30T00:00:00	2024-11-08T05:00:00	4	Temperatura máxima	14.2
185243	7	Sololá	716	San Marcos la Laguna 	11	San Marcos la laguna 	3	Marzo	2023-03-30T00:00:00	2024-11-08T05:00:00	3	Temperatura mínima	13.7
185244	7	Sololá	716	San Marcos la Laguna 	11	San Marcos la laguna 	3	Marzo	2023-03-30T00:00:00	2024-11-08T05:00:00	5	Humedad	65
185245	7	Sololá	716	San Marcos la Laguna 	11	San Marcos la laguna 	3	Marzo	2023-03-30T00:00:00	2024-11-08T05:00:00	6	Velocidad del viento	8
185246	7	Sololá	716	San Marcos la Laguna 	11	San Marcos la laguna 	3	Marzo	2023-03-30T00:00:00	2024-11-08T05:00:00	7	Dirección del viento	8.05
185247	7	Sololá	716	San Marcos la Laguna 	11	San Marcos la laguna 	3	Marzo	2023-03-30T00:00:00	2024-11-08T05:00:00	1	Precipitación	0
185248	7	Sololá	716	San Marcos la Laguna 	11	San Marcos la laguna 	3	Marzo	2023-03-30T00:00:00	2024-11-08T05:00:00	8	Radiación solar	0
185249	7	Sololá	716	San Marcos la Laguna 	11	San Marcos la laguna 	3	Marzo	2023-03-30T00:00:00	2024-11-08T06:00:00	2	Temperatura media	13.4
185250	7	Sololá	716	San Marcos la Laguna 	11	San Marcos la laguna 	3	Marzo	2023-03-30T00:00:00	2024-11-08T06:00:00	4	Temperatura máxima	14.6
185251	7	Sololá	716	San Marcos la Laguna 	11	San Marcos la laguna 	3	Marzo	2023-03-30T00:00:00	2024-11-08T06:00:00	3	Temperatura mínima	13.4
185252	7	Sololá	716	San Marcos la Laguna 	11	San Marcos la laguna 	3	Marzo	2023-03-30T00:00:00	2024-11-08T06:00:00	5	Humedad	63
185253	7	Sololá	716	San Marcos la Laguna 	11	San Marcos la laguna 	3	Marzo	2023-03-30T00:00:00	2024-11-08T06:00:00	6	Velocidad del viento	8
185254	7	Sololá	716	San Marcos la Laguna 	11	San Marcos la laguna 	3	Marzo	2023-03-30T00:00:00	2024-11-08T06:00:00	7	Dirección del viento	8.05
185255	7	Sololá	716	San Marcos la Laguna 	11	San Marcos la laguna 	3	Marzo	2023-03-30T00:00:00	2024-11-08T06:00:00	1	Precipitación	0
185256	7	Sololá	716	San Marcos la Laguna 	11	San Marcos la laguna 	3	Marzo	2023-03-30T00:00:00	2024-11-08T06:00:00	8	Radiación solar	0
185257	7	Sololá	716	San Marcos la Laguna 	11	San Marcos la laguna 	3	Marzo	2023-03-30T00:00:00	2024-11-08T07:00:00	2	Temperatura media	14.9
185258	7	Sololá	716	San Marcos la Laguna 	11	San Marcos la laguna 	3	Marzo	2023-03-30T00:00:00	2024-11-08T07:00:00	4	Temperatura máxima	15.1
185259	7	Sololá	716	San Marcos la Laguna 	11	San Marcos la laguna 	3	Marzo	2023-03-30T00:00:00	2024-11-08T07:00:00	3	Temperatura mínima	13.4
185260	7	Sololá	716	San Marcos la Laguna 	11	San Marcos la laguna 	3	Marzo	2023-03-30T00:00:00	2024-11-08T07:00:00	5	Humedad	63
185261	7	Sololá	716	San Marcos la Laguna 	11	San Marcos la laguna 	3	Marzo	2023-03-30T00:00:00	2024-11-08T07:00:00	6	Velocidad del viento	8
185262	7	Sololá	716	San Marcos la Laguna 	11	San Marcos la laguna 	3	Marzo	2023-03-30T00:00:00	2024-11-08T07:00:00	7	Dirección del viento	8.05
185263	7	Sololá	716	San Marcos la Laguna 	11	San Marcos la laguna 	3	Marzo	2023-03-30T00:00:00	2024-11-08T07:00:00	1	Precipitación	0
185264	7	Sololá	716	San Marcos la Laguna 	11	San Marcos la laguna 	3	Marzo	2023-03-30T00:00:00	2024-11-08T07:00:00	8	Radiación solar	37
185265	7	Sololá	716	San Marcos la Laguna 	11	San Marcos la laguna 	3	Marzo	2023-03-30T00:00:00	2024-11-08T08:00:00	2	Temperatura media	18.8
185266	7	Sololá	716	San Marcos la Laguna 	11	San Marcos la laguna 	3	Marzo	2023-03-30T00:00:00	2024-11-08T08:00:00	4	Temperatura máxima	18.8
185267	7	Sololá	716	San Marcos la Laguna 	11	San Marcos la laguna 	3	Marzo	2023-03-30T00:00:00	2024-11-08T08:00:00	3	Temperatura mínima	14.8
185268	7	Sololá	716	San Marcos la Laguna 	11	San Marcos la laguna 	3	Marzo	2023-03-30T00:00:00	2024-11-08T08:00:00	5	Humedad	57
185269	7	Sololá	716	San Marcos la Laguna 	11	San Marcos la laguna 	3	Marzo	2023-03-30T00:00:00	2024-11-08T08:00:00	6	Velocidad del viento	4.8
185270	7	Sololá	716	San Marcos la Laguna 	11	San Marcos la laguna 	3	Marzo	2023-03-30T00:00:00	2024-11-08T08:00:00	7	Dirección del viento	4.83
185271	7	Sololá	716	San Marcos la Laguna 	11	San Marcos la laguna 	3	Marzo	2023-03-30T00:00:00	2024-11-08T08:00:00	1	Precipitación	0
185272	7	Sololá	716	San Marcos la Laguna 	11	San Marcos la laguna 	3	Marzo	2023-03-30T00:00:00	2024-11-08T08:00:00	8	Radiación solar	221
185273	7	Sololá	716	San Marcos la Laguna 	11	San Marcos la laguna 	3	Marzo	2023-03-30T00:00:00	2024-11-08T09:00:00	2	Temperatura media	21.8
185274	7	Sololá	716	San Marcos la Laguna 	11	San Marcos la laguna 	3	Marzo	2023-03-30T00:00:00	2024-11-08T09:00:00	4	Temperatura máxima	21.9
185275	7	Sololá	716	San Marcos la Laguna 	11	San Marcos la laguna 	3	Marzo	2023-03-30T00:00:00	2024-11-08T09:00:00	3	Temperatura mínima	18.9
185276	7	Sololá	716	San Marcos la Laguna 	11	San Marcos la laguna 	3	Marzo	2023-03-30T00:00:00	2024-11-08T09:00:00	5	Humedad	48
185277	7	Sololá	716	San Marcos la Laguna 	11	San Marcos la laguna 	3	Marzo	2023-03-30T00:00:00	2024-11-08T09:00:00	6	Velocidad del viento	3.2
185278	7	Sololá	716	San Marcos la Laguna 	11	San Marcos la laguna 	3	Marzo	2023-03-30T00:00:00	2024-11-08T09:00:00	7	Dirección del viento	3.22
185279	7	Sololá	716	San Marcos la Laguna 	11	San Marcos la laguna 	3	Marzo	2023-03-30T00:00:00	2024-11-08T09:00:00	1	Precipitación	0
185280	7	Sololá	716	San Marcos la Laguna 	11	San Marcos la laguna 	3	Marzo	2023-03-30T00:00:00	2024-11-08T09:00:00	8	Radiación solar	489
185281	7	Sololá	716	San Marcos la Laguna 	11	San Marcos la laguna 	3	Marzo	2023-03-30T00:00:00	2024-11-08T10:00:00	2	Temperatura media	22.4
185282	7	Sololá	716	San Marcos la Laguna 	11	San Marcos la laguna 	3	Marzo	2023-03-30T00:00:00	2024-11-08T10:00:00	4	Temperatura máxima	22.6
185283	7	Sololá	716	San Marcos la Laguna 	11	San Marcos la laguna 	3	Marzo	2023-03-30T00:00:00	2024-11-08T10:00:00	3	Temperatura mínima	21.5
185284	7	Sololá	716	San Marcos la Laguna 	11	San Marcos la laguna 	3	Marzo	2023-03-30T00:00:00	2024-11-08T10:00:00	5	Humedad	59
185285	7	Sololá	716	San Marcos la Laguna 	11	San Marcos la laguna 	3	Marzo	2023-03-30T00:00:00	2024-11-08T10:00:00	6	Velocidad del viento	11.3
185286	7	Sololá	716	San Marcos la Laguna 	11	San Marcos la laguna 	3	Marzo	2023-03-30T00:00:00	2024-11-08T10:00:00	7	Dirección del viento	11.27
185287	7	Sololá	716	San Marcos la Laguna 	11	San Marcos la laguna 	3	Marzo	2023-03-30T00:00:00	2024-11-08T10:00:00	1	Precipitación	0
185288	7	Sololá	716	San Marcos la Laguna 	11	San Marcos la laguna 	3	Marzo	2023-03-30T00:00:00	2024-11-08T10:00:00	8	Radiación solar	685
185289	7	Sololá	716	San Marcos la Laguna 	11	San Marcos la laguna 	3	Marzo	2023-03-30T00:00:00	2024-11-08T11:00:00	2	Temperatura media	23.7
185290	7	Sololá	716	San Marcos la Laguna 	11	San Marcos la laguna 	3	Marzo	2023-03-30T00:00:00	2024-11-08T11:00:00	4	Temperatura máxima	23.7
185291	7	Sololá	716	San Marcos la Laguna 	11	San Marcos la laguna 	3	Marzo	2023-03-30T00:00:00	2024-11-08T11:00:00	3	Temperatura mínima	22.4
185292	7	Sololá	716	San Marcos la Laguna 	11	San Marcos la laguna 	3	Marzo	2023-03-30T00:00:00	2024-11-08T11:00:00	5	Humedad	49
185293	7	Sololá	716	San Marcos la Laguna 	11	San Marcos la laguna 	3	Marzo	2023-03-30T00:00:00	2024-11-08T11:00:00	6	Velocidad del viento	9.7
185294	7	Sololá	716	San Marcos la Laguna 	11	San Marcos la laguna 	3	Marzo	2023-03-30T00:00:00	2024-11-08T11:00:00	7	Dirección del viento	9.66
185295	7	Sololá	716	San Marcos la Laguna 	11	San Marcos la laguna 	3	Marzo	2023-03-30T00:00:00	2024-11-08T11:00:00	1	Precipitación	0
185296	7	Sololá	716	San Marcos la Laguna 	11	San Marcos la laguna 	3	Marzo	2023-03-30T00:00:00	2024-11-08T11:00:00	8	Radiación solar	829
185297	7	Sololá	716	San Marcos la Laguna 	11	San Marcos la laguna 	3	Marzo	2023-03-30T00:00:00	2024-11-08T12:00:00	2	Temperatura media	23.7
185298	7	Sololá	716	San Marcos la Laguna 	11	San Marcos la laguna 	3	Marzo	2023-03-30T00:00:00	2024-11-08T12:00:00	4	Temperatura máxima	24.4
185299	7	Sololá	716	San Marcos la Laguna 	11	San Marcos la laguna 	3	Marzo	2023-03-30T00:00:00	2024-11-08T12:00:00	3	Temperatura mínima	23.6
185300	7	Sololá	716	San Marcos la Laguna 	11	San Marcos la laguna 	3	Marzo	2023-03-30T00:00:00	2024-11-08T12:00:00	5	Humedad	48
185301	7	Sololá	716	San Marcos la Laguna 	11	San Marcos la laguna 	3	Marzo	2023-03-30T00:00:00	2024-11-08T12:00:00	6	Velocidad del viento	14.5
185302	7	Sololá	716	San Marcos la Laguna 	11	San Marcos la laguna 	3	Marzo	2023-03-30T00:00:00	2024-11-08T12:00:00	7	Dirección del viento	14.48
185303	7	Sololá	716	San Marcos la Laguna 	11	San Marcos la laguna 	3	Marzo	2023-03-30T00:00:00	2024-11-08T12:00:00	1	Precipitación	0
185304	7	Sololá	716	San Marcos la Laguna 	11	San Marcos la laguna 	3	Marzo	2023-03-30T00:00:00	2024-11-08T12:00:00	8	Radiación solar	924
185305	7	Sololá	716	San Marcos la Laguna 	11	San Marcos la laguna 	3	Marzo	2023-03-30T00:00:00	2024-11-08T13:00:00	2	Temperatura media	24.7
185306	7	Sololá	716	San Marcos la Laguna 	11	San Marcos la laguna 	3	Marzo	2023-03-30T00:00:00	2024-11-08T13:00:00	4	Temperatura máxima	24.7
185307	7	Sololá	716	San Marcos la Laguna 	11	San Marcos la laguna 	3	Marzo	2023-03-30T00:00:00	2024-11-08T13:00:00	3	Temperatura mínima	23.8
185308	7	Sololá	716	San Marcos la Laguna 	11	San Marcos la laguna 	3	Marzo	2023-03-30T00:00:00	2024-11-08T13:00:00	5	Humedad	47
185309	7	Sololá	716	San Marcos la Laguna 	11	San Marcos la laguna 	3	Marzo	2023-03-30T00:00:00	2024-11-08T13:00:00	6	Velocidad del viento	14.5
185310	7	Sololá	716	San Marcos la Laguna 	11	San Marcos la laguna 	3	Marzo	2023-03-30T00:00:00	2024-11-08T13:00:00	7	Dirección del viento	14.48
185311	7	Sololá	716	San Marcos la Laguna 	11	San Marcos la laguna 	3	Marzo	2023-03-30T00:00:00	2024-11-08T13:00:00	1	Precipitación	0
185312	7	Sololá	716	San Marcos la Laguna 	11	San Marcos la laguna 	3	Marzo	2023-03-30T00:00:00	2024-11-08T13:00:00	8	Radiación solar	929
185313	7	Sololá	716	San Marcos la Laguna 	11	San Marcos la laguna 	3	Marzo	2023-03-30T00:00:00	2024-11-08T14:00:00	2	Temperatura media	25.1
185314	7	Sololá	716	San Marcos la Laguna 	11	San Marcos la laguna 	3	Marzo	2023-03-30T00:00:00	2024-11-08T14:00:00	4	Temperatura máxima	25.3
185315	7	Sololá	716	San Marcos la Laguna 	11	San Marcos la laguna 	3	Marzo	2023-03-30T00:00:00	2024-11-08T14:00:00	3	Temperatura mínima	24.1
185316	7	Sololá	716	San Marcos la Laguna 	11	San Marcos la laguna 	3	Marzo	2023-03-30T00:00:00	2024-11-08T14:00:00	5	Humedad	59
185317	7	Sololá	716	San Marcos la Laguna 	11	San Marcos la laguna 	3	Marzo	2023-03-30T00:00:00	2024-11-08T14:00:00	6	Velocidad del viento	14.5
185318	7	Sololá	716	San Marcos la Laguna 	11	San Marcos la laguna 	3	Marzo	2023-03-30T00:00:00	2024-11-08T14:00:00	7	Dirección del viento	14.48
185319	7	Sololá	716	San Marcos la Laguna 	11	San Marcos la laguna 	3	Marzo	2023-03-30T00:00:00	2024-11-08T14:00:00	1	Precipitación	0
185320	7	Sololá	716	San Marcos la Laguna 	11	San Marcos la laguna 	3	Marzo	2023-03-30T00:00:00	2024-11-08T14:00:00	8	Radiación solar	859
185321	7	Sololá	716	San Marcos la Laguna 	11	San Marcos la laguna 	3	Marzo	2023-03-30T00:00:00	2024-11-08T15:00:00	2	Temperatura media	24.3
185322	7	Sololá	716	San Marcos la Laguna 	11	San Marcos la laguna 	3	Marzo	2023-03-30T00:00:00	2024-11-08T15:00:00	4	Temperatura máxima	25.2
185323	7	Sololá	716	San Marcos la Laguna 	11	San Marcos la laguna 	3	Marzo	2023-03-30T00:00:00	2024-11-08T15:00:00	3	Temperatura mínima	24.2
185324	7	Sololá	716	San Marcos la Laguna 	11	San Marcos la laguna 	3	Marzo	2023-03-30T00:00:00	2024-11-08T15:00:00	5	Humedad	58
185325	7	Sololá	716	San Marcos la Laguna 	11	San Marcos la laguna 	3	Marzo	2023-03-30T00:00:00	2024-11-08T15:00:00	6	Velocidad del viento	9.7
185326	7	Sololá	716	San Marcos la Laguna 	11	San Marcos la laguna 	3	Marzo	2023-03-30T00:00:00	2024-11-08T15:00:00	7	Dirección del viento	9.66
185327	7	Sololá	716	San Marcos la Laguna 	11	San Marcos la laguna 	3	Marzo	2023-03-30T00:00:00	2024-11-08T15:00:00	1	Precipitación	0
185328	7	Sololá	716	San Marcos la Laguna 	11	San Marcos la laguna 	3	Marzo	2023-03-30T00:00:00	2024-11-08T15:00:00	8	Radiación solar	733
185329	7	Sololá	716	San Marcos la Laguna 	11	San Marcos la laguna 	3	Marzo	2023-03-30T00:00:00	2024-11-08T16:00:00	2	Temperatura media	23.7
185330	7	Sololá	716	San Marcos la Laguna 	11	San Marcos la laguna 	3	Marzo	2023-03-30T00:00:00	2024-11-08T16:00:00	4	Temperatura máxima	24.6
185331	7	Sololá	716	San Marcos la Laguna 	11	San Marcos la laguna 	3	Marzo	2023-03-30T00:00:00	2024-11-08T16:00:00	3	Temperatura mínima	23.4
185332	7	Sololá	716	San Marcos la Laguna 	11	San Marcos la laguna 	3	Marzo	2023-03-30T00:00:00	2024-11-08T16:00:00	5	Humedad	62
185333	7	Sololá	716	San Marcos la Laguna 	11	San Marcos la laguna 	3	Marzo	2023-03-30T00:00:00	2024-11-08T16:00:00	6	Velocidad del viento	9.7
185334	7	Sololá	716	San Marcos la Laguna 	11	San Marcos la laguna 	3	Marzo	2023-03-30T00:00:00	2024-11-08T16:00:00	7	Dirección del viento	9.66
185335	7	Sololá	716	San Marcos la Laguna 	11	San Marcos la laguna 	3	Marzo	2023-03-30T00:00:00	2024-11-08T16:00:00	1	Precipitación	0
185336	7	Sololá	716	San Marcos la Laguna 	11	San Marcos la laguna 	3	Marzo	2023-03-30T00:00:00	2024-11-08T16:00:00	8	Radiación solar	547
185337	7	Sololá	716	San Marcos la Laguna 	11	San Marcos la laguna 	3	Marzo	2023-03-30T00:00:00	2024-11-08T17:00:00	2	Temperatura media	23.3
185338	7	Sololá	716	San Marcos la Laguna 	11	San Marcos la laguna 	3	Marzo	2023-03-30T00:00:00	2024-11-08T17:00:00	4	Temperatura máxima	24.7
185339	7	Sololá	716	San Marcos la Laguna 	11	San Marcos la laguna 	3	Marzo	2023-03-30T00:00:00	2024-11-08T17:00:00	3	Temperatura mínima	23.3
185340	7	Sololá	716	San Marcos la Laguna 	11	San Marcos la laguna 	3	Marzo	2023-03-30T00:00:00	2024-11-08T17:00:00	5	Humedad	63
185341	7	Sololá	716	San Marcos la Laguna 	11	San Marcos la laguna 	3	Marzo	2023-03-30T00:00:00	2024-11-08T17:00:00	6	Velocidad del viento	6.4
185342	7	Sololá	716	San Marcos la Laguna 	11	San Marcos la laguna 	3	Marzo	2023-03-30T00:00:00	2024-11-08T17:00:00	7	Dirección del viento	6.44
185343	7	Sololá	716	San Marcos la Laguna 	11	San Marcos la laguna 	3	Marzo	2023-03-30T00:00:00	2024-11-08T17:00:00	1	Precipitación	0
185344	7	Sololá	716	San Marcos la Laguna 	11	San Marcos la laguna 	3	Marzo	2023-03-30T00:00:00	2024-11-08T17:00:00	8	Radiación solar	316
185345	7	Sololá	716	San Marcos la Laguna 	11	San Marcos la laguna 	3	Marzo	2023-03-30T00:00:00	2024-11-08T18:00:00	2	Temperatura media	20.3
185346	7	Sololá	716	San Marcos la Laguna 	11	San Marcos la laguna 	3	Marzo	2023-03-30T00:00:00	2024-11-08T18:00:00	4	Temperatura máxima	23.3
185347	7	Sololá	716	San Marcos la Laguna 	11	San Marcos la laguna 	3	Marzo	2023-03-30T00:00:00	2024-11-08T18:00:00	3	Temperatura mínima	20.3
185348	7	Sololá	716	San Marcos la Laguna 	11	San Marcos la laguna 	3	Marzo	2023-03-30T00:00:00	2024-11-08T18:00:00	5	Humedad	78
185349	7	Sololá	716	San Marcos la Laguna 	11	San Marcos la laguna 	3	Marzo	2023-03-30T00:00:00	2024-11-08T18:00:00	6	Velocidad del viento	8
185350	7	Sololá	716	San Marcos la Laguna 	11	San Marcos la laguna 	3	Marzo	2023-03-30T00:00:00	2024-11-08T18:00:00	7	Dirección del viento	8.05
185351	7	Sololá	716	San Marcos la Laguna 	11	San Marcos la laguna 	3	Marzo	2023-03-30T00:00:00	2024-11-08T18:00:00	1	Precipitación	0
185352	7	Sololá	716	San Marcos la Laguna 	11	San Marcos la laguna 	3	Marzo	2023-03-30T00:00:00	2024-11-08T18:00:00	8	Radiación solar	67
185353	7	Sololá	716	San Marcos la Laguna 	11	San Marcos la laguna 	3	Marzo	2023-03-30T00:00:00	2024-11-08T19:00:00	2	Temperatura media	19.8
185354	7	Sololá	716	San Marcos la Laguna 	11	San Marcos la laguna 	3	Marzo	2023-03-30T00:00:00	2024-11-08T19:00:00	4	Temperatura máxima	20.3
185355	7	Sololá	716	San Marcos la Laguna 	11	San Marcos la laguna 	3	Marzo	2023-03-30T00:00:00	2024-11-08T19:00:00	3	Temperatura mínima	19.8
185356	7	Sololá	716	San Marcos la Laguna 	11	San Marcos la laguna 	3	Marzo	2023-03-30T00:00:00	2024-11-08T19:00:00	5	Humedad	81
185357	7	Sololá	716	San Marcos la Laguna 	11	San Marcos la laguna 	3	Marzo	2023-03-30T00:00:00	2024-11-08T19:00:00	6	Velocidad del viento	3.2
185358	7	Sololá	716	San Marcos la Laguna 	11	San Marcos la laguna 	3	Marzo	2023-03-30T00:00:00	2024-11-08T19:00:00	7	Dirección del viento	3.22
185359	7	Sololá	716	San Marcos la Laguna 	11	San Marcos la laguna 	3	Marzo	2023-03-30T00:00:00	2024-11-08T19:00:00	1	Precipitación	0
185360	7	Sololá	716	San Marcos la Laguna 	11	San Marcos la laguna 	3	Marzo	2023-03-30T00:00:00	2024-11-08T19:00:00	8	Radiación solar	0
185361	7	Sololá	716	San Marcos la Laguna 	11	San Marcos la laguna 	3	Marzo	2023-03-30T00:00:00	2024-11-08T20:00:00	2	Temperatura media	18.4
185362	7	Sololá	716	San Marcos la Laguna 	11	San Marcos la laguna 	3	Marzo	2023-03-30T00:00:00	2024-11-08T20:00:00	4	Temperatura máxima	19.8
185363	7	Sololá	716	San Marcos la Laguna 	11	San Marcos la laguna 	3	Marzo	2023-03-30T00:00:00	2024-11-08T20:00:00	3	Temperatura mínima	18.4
185364	7	Sololá	716	San Marcos la Laguna 	11	San Marcos la laguna 	3	Marzo	2023-03-30T00:00:00	2024-11-08T20:00:00	5	Humedad	80
185365	7	Sololá	716	San Marcos la Laguna 	11	San Marcos la laguna 	3	Marzo	2023-03-30T00:00:00	2024-11-08T20:00:00	6	Velocidad del viento	1.6
185366	7	Sololá	716	San Marcos la Laguna 	11	San Marcos la laguna 	3	Marzo	2023-03-30T00:00:00	2024-11-08T20:00:00	7	Dirección del viento	1.61
185367	7	Sololá	716	San Marcos la Laguna 	11	San Marcos la laguna 	3	Marzo	2023-03-30T00:00:00	2024-11-08T20:00:00	1	Precipitación	0
185368	7	Sololá	716	San Marcos la Laguna 	11	San Marcos la laguna 	3	Marzo	2023-03-30T00:00:00	2024-11-08T20:00:00	8	Radiación solar	0
185369	7	Sololá	716	San Marcos la Laguna 	11	San Marcos la laguna 	3	Marzo	2023-03-30T00:00:00	2024-11-08T21:00:00	2	Temperatura media	17.7
185370	7	Sololá	716	San Marcos la Laguna 	11	San Marcos la laguna 	3	Marzo	2023-03-30T00:00:00	2024-11-08T21:00:00	4	Temperatura máxima	18.4
185371	7	Sololá	716	San Marcos la Laguna 	11	San Marcos la laguna 	3	Marzo	2023-03-30T00:00:00	2024-11-08T21:00:00	3	Temperatura mínima	17.6
185372	7	Sololá	716	San Marcos la Laguna 	11	San Marcos la laguna 	3	Marzo	2023-03-30T00:00:00	2024-11-08T21:00:00	5	Humedad	82
185373	7	Sololá	716	San Marcos la Laguna 	11	San Marcos la laguna 	3	Marzo	2023-03-30T00:00:00	2024-11-08T21:00:00	6	Velocidad del viento	3.2
185374	7	Sololá	716	San Marcos la Laguna 	11	San Marcos la laguna 	3	Marzo	2023-03-30T00:00:00	2024-11-08T21:00:00	7	Dirección del viento	3.22
185375	7	Sololá	716	San Marcos la Laguna 	11	San Marcos la laguna 	3	Marzo	2023-03-30T00:00:00	2024-11-08T21:00:00	1	Precipitación	0
185376	7	Sololá	716	San Marcos la Laguna 	11	San Marcos la laguna 	3	Marzo	2023-03-30T00:00:00	2024-11-08T21:00:00	8	Radiación solar	0
185377	7	Sololá	716	San Marcos la Laguna 	11	San Marcos la laguna 	3	Marzo	2023-03-30T00:00:00	2024-11-08T22:00:00	2	Temperatura media	17.4
185378	7	Sololá	716	San Marcos la Laguna 	11	San Marcos la laguna 	3	Marzo	2023-03-30T00:00:00	2024-11-08T22:00:00	4	Temperatura máxima	17.7
185379	7	Sololá	716	San Marcos la Laguna 	11	San Marcos la laguna 	3	Marzo	2023-03-30T00:00:00	2024-11-08T22:00:00	3	Temperatura mínima	17
185380	7	Sololá	716	San Marcos la Laguna 	11	San Marcos la laguna 	3	Marzo	2023-03-30T00:00:00	2024-11-08T22:00:00	5	Humedad	79
185381	7	Sololá	716	San Marcos la Laguna 	11	San Marcos la laguna 	3	Marzo	2023-03-30T00:00:00	2024-11-08T22:00:00	6	Velocidad del viento	6.4
185382	7	Sololá	716	San Marcos la Laguna 	11	San Marcos la laguna 	3	Marzo	2023-03-30T00:00:00	2024-11-08T22:00:00	7	Dirección del viento	6.44
185383	7	Sololá	716	San Marcos la Laguna 	11	San Marcos la laguna 	3	Marzo	2023-03-30T00:00:00	2024-11-08T22:00:00	1	Precipitación	0
185384	7	Sololá	716	San Marcos la Laguna 	11	San Marcos la laguna 	3	Marzo	2023-03-30T00:00:00	2024-11-08T22:00:00	8	Radiación solar	0
185385	7	Sololá	716	San Marcos la Laguna 	11	San Marcos la laguna 	3	Marzo	2023-03-30T00:00:00	2024-11-08T23:00:00	2	Temperatura media	17.8
185386	7	Sololá	716	San Marcos la Laguna 	11	San Marcos la laguna 	3	Marzo	2023-03-30T00:00:00	2024-11-08T23:00:00	4	Temperatura máxima	18
185387	7	Sololá	716	San Marcos la Laguna 	11	San Marcos la laguna 	3	Marzo	2023-03-30T00:00:00	2024-11-08T23:00:00	3	Temperatura mínima	17.3
185388	7	Sololá	716	San Marcos la Laguna 	11	San Marcos la laguna 	3	Marzo	2023-03-30T00:00:00	2024-11-08T23:00:00	5	Humedad	72
185389	7	Sololá	716	San Marcos la Laguna 	11	San Marcos la laguna 	3	Marzo	2023-03-30T00:00:00	2024-11-08T23:00:00	6	Velocidad del viento	6.4
185390	7	Sololá	716	San Marcos la Laguna 	11	San Marcos la laguna 	3	Marzo	2023-03-30T00:00:00	2024-11-08T23:00:00	7	Dirección del viento	6.44
185391	7	Sololá	716	San Marcos la Laguna 	11	San Marcos la laguna 	3	Marzo	2023-03-30T00:00:00	2024-11-08T23:00:00	1	Precipitación	0
185392	7	Sololá	716	San Marcos la Laguna 	11	San Marcos la laguna 	3	Marzo	2023-03-30T00:00:00	2024-11-08T23:00:00	8	Radiación solar	0
185393	7	Sololá	716	San Marcos la Laguna 	11	San Marcos la laguna 	3	Marzo	2023-03-31T00:00:00	2024-11-08T00:00:00	2	Temperatura media	16.6
185394	7	Sololá	716	San Marcos la Laguna 	11	San Marcos la laguna 	3	Marzo	2023-03-31T00:00:00	2024-11-08T00:00:00	4	Temperatura máxima	17.8
185395	7	Sololá	716	San Marcos la Laguna 	11	San Marcos la laguna 	3	Marzo	2023-03-31T00:00:00	2024-11-08T00:00:00	3	Temperatura mínima	16.5
185396	7	Sololá	716	San Marcos la Laguna 	11	San Marcos la laguna 	3	Marzo	2023-03-31T00:00:00	2024-11-08T00:00:00	5	Humedad	76
185397	7	Sololá	716	San Marcos la Laguna 	11	San Marcos la laguna 	3	Marzo	2023-03-31T00:00:00	2024-11-08T00:00:00	6	Velocidad del viento	6.4
185398	7	Sololá	716	San Marcos la Laguna 	11	San Marcos la laguna 	3	Marzo	2023-03-31T00:00:00	2024-11-08T00:00:00	7	Dirección del viento	6.44
185399	7	Sololá	716	San Marcos la Laguna 	11	San Marcos la laguna 	3	Marzo	2023-03-31T00:00:00	2024-11-08T00:00:00	1	Precipitación	0
185400	7	Sololá	716	San Marcos la Laguna 	11	San Marcos la laguna 	3	Marzo	2023-03-31T00:00:00	2024-11-08T00:00:00	8	Radiación solar	0
185401	7	Sololá	716	San Marcos la Laguna 	11	San Marcos la laguna 	3	Marzo	2023-03-31T00:00:00	2024-11-08T01:00:00	2	Temperatura media	16
185402	7	Sololá	716	San Marcos la Laguna 	11	San Marcos la laguna 	3	Marzo	2023-03-31T00:00:00	2024-11-08T01:00:00	4	Temperatura máxima	17
185403	7	Sololá	716	San Marcos la Laguna 	11	San Marcos la laguna 	3	Marzo	2023-03-31T00:00:00	2024-11-08T01:00:00	3	Temperatura mínima	16
185404	7	Sololá	716	San Marcos la Laguna 	11	San Marcos la laguna 	3	Marzo	2023-03-31T00:00:00	2024-11-08T01:00:00	5	Humedad	74
185405	7	Sololá	716	San Marcos la Laguna 	11	San Marcos la laguna 	3	Marzo	2023-03-31T00:00:00	2024-11-08T01:00:00	6	Velocidad del viento	8
185406	7	Sololá	716	San Marcos la Laguna 	11	San Marcos la laguna 	3	Marzo	2023-03-31T00:00:00	2024-11-08T01:00:00	7	Dirección del viento	8.05
185407	7	Sololá	716	San Marcos la Laguna 	11	San Marcos la laguna 	3	Marzo	2023-03-31T00:00:00	2024-11-08T01:00:00	1	Precipitación	0
185408	7	Sololá	716	San Marcos la Laguna 	11	San Marcos la laguna 	3	Marzo	2023-03-31T00:00:00	2024-11-08T01:00:00	8	Radiación solar	0
185409	7	Sololá	716	San Marcos la Laguna 	11	San Marcos la laguna 	3	Marzo	2023-03-31T00:00:00	2024-11-08T02:00:00	2	Temperatura media	15.1
185410	7	Sololá	716	San Marcos la Laguna 	11	San Marcos la laguna 	3	Marzo	2023-03-31T00:00:00	2024-11-08T02:00:00	4	Temperatura máxima	16.1
185411	7	Sololá	716	San Marcos la Laguna 	11	San Marcos la laguna 	3	Marzo	2023-03-31T00:00:00	2024-11-08T02:00:00	3	Temperatura mínima	15.1
185412	7	Sololá	716	San Marcos la Laguna 	11	San Marcos la laguna 	3	Marzo	2023-03-31T00:00:00	2024-11-08T02:00:00	5	Humedad	74
185413	7	Sololá	716	San Marcos la Laguna 	11	San Marcos la laguna 	3	Marzo	2023-03-31T00:00:00	2024-11-08T02:00:00	6	Velocidad del viento	6.4
185414	7	Sololá	716	San Marcos la Laguna 	11	San Marcos la laguna 	3	Marzo	2023-03-31T00:00:00	2024-11-08T02:00:00	7	Dirección del viento	6.44
185415	7	Sololá	716	San Marcos la Laguna 	11	San Marcos la laguna 	3	Marzo	2023-03-31T00:00:00	2024-11-08T02:00:00	1	Precipitación	0
185416	7	Sololá	716	San Marcos la Laguna 	11	San Marcos la laguna 	3	Marzo	2023-03-31T00:00:00	2024-11-08T02:00:00	8	Radiación solar	0
185417	7	Sololá	716	San Marcos la Laguna 	11	San Marcos la laguna 	3	Marzo	2023-03-31T00:00:00	2024-11-08T03:00:00	2	Temperatura media	15.3
185418	7	Sololá	716	San Marcos la Laguna 	11	San Marcos la laguna 	3	Marzo	2023-03-31T00:00:00	2024-11-08T03:00:00	4	Temperatura máxima	15.4
185419	7	Sololá	716	San Marcos la Laguna 	11	San Marcos la laguna 	3	Marzo	2023-03-31T00:00:00	2024-11-08T03:00:00	3	Temperatura mínima	15.1
185420	7	Sololá	716	San Marcos la Laguna 	11	San Marcos la laguna 	3	Marzo	2023-03-31T00:00:00	2024-11-08T03:00:00	5	Humedad	72
185421	7	Sololá	716	San Marcos la Laguna 	11	San Marcos la laguna 	3	Marzo	2023-03-31T00:00:00	2024-11-08T03:00:00	6	Velocidad del viento	8
185422	7	Sololá	716	San Marcos la Laguna 	11	San Marcos la laguna 	3	Marzo	2023-03-31T00:00:00	2024-11-08T03:00:00	7	Dirección del viento	8.05
185423	7	Sololá	716	San Marcos la Laguna 	11	San Marcos la laguna 	3	Marzo	2023-03-31T00:00:00	2024-11-08T03:00:00	1	Precipitación	0
185424	7	Sololá	716	San Marcos la Laguna 	11	San Marcos la laguna 	3	Marzo	2023-03-31T00:00:00	2024-11-08T03:00:00	8	Radiación solar	0
185425	7	Sololá	716	San Marcos la Laguna 	11	San Marcos la laguna 	3	Marzo	2023-03-31T00:00:00	2024-11-08T04:00:00	2	Temperatura media	14.8
185426	7	Sololá	716	San Marcos la Laguna 	11	San Marcos la laguna 	3	Marzo	2023-03-31T00:00:00	2024-11-08T04:00:00	4	Temperatura máxima	16.1
185427	7	Sololá	716	San Marcos la Laguna 	11	San Marcos la laguna 	3	Marzo	2023-03-31T00:00:00	2024-11-08T04:00:00	3	Temperatura mínima	14.8
185428	7	Sololá	716	San Marcos la Laguna 	11	San Marcos la laguna 	3	Marzo	2023-03-31T00:00:00	2024-11-08T04:00:00	5	Humedad	73
185429	7	Sololá	716	San Marcos la Laguna 	11	San Marcos la laguna 	3	Marzo	2023-03-31T00:00:00	2024-11-08T04:00:00	6	Velocidad del viento	6.4
185430	7	Sololá	716	San Marcos la Laguna 	11	San Marcos la laguna 	3	Marzo	2023-03-31T00:00:00	2024-11-08T04:00:00	7	Dirección del viento	6.44
185431	7	Sololá	716	San Marcos la Laguna 	11	San Marcos la laguna 	3	Marzo	2023-03-31T00:00:00	2024-11-08T04:00:00	1	Precipitación	0
185432	7	Sololá	716	San Marcos la Laguna 	11	San Marcos la laguna 	3	Marzo	2023-03-31T00:00:00	2024-11-08T04:00:00	8	Radiación solar	0
185433	7	Sololá	716	San Marcos la Laguna 	11	San Marcos la laguna 	3	Marzo	2023-03-31T00:00:00	2024-11-08T05:00:00	2	Temperatura media	14.8
185434	7	Sololá	716	San Marcos la Laguna 	11	San Marcos la laguna 	3	Marzo	2023-03-31T00:00:00	2024-11-08T05:00:00	4	Temperatura máxima	15.4
185435	7	Sololá	716	San Marcos la Laguna 	11	San Marcos la laguna 	3	Marzo	2023-03-31T00:00:00	2024-11-08T05:00:00	3	Temperatura mínima	14.8
185436	7	Sololá	716	San Marcos la Laguna 	11	San Marcos la laguna 	3	Marzo	2023-03-31T00:00:00	2024-11-08T05:00:00	5	Humedad	74
185437	7	Sololá	716	San Marcos la Laguna 	11	San Marcos la laguna 	3	Marzo	2023-03-31T00:00:00	2024-11-08T05:00:00	6	Velocidad del viento	8
185438	7	Sololá	716	San Marcos la Laguna 	11	San Marcos la laguna 	3	Marzo	2023-03-31T00:00:00	2024-11-08T05:00:00	7	Dirección del viento	8.05
185439	7	Sololá	716	San Marcos la Laguna 	11	San Marcos la laguna 	3	Marzo	2023-03-31T00:00:00	2024-11-08T05:00:00	1	Precipitación	0
185440	7	Sololá	716	San Marcos la Laguna 	11	San Marcos la laguna 	3	Marzo	2023-03-31T00:00:00	2024-11-08T05:00:00	8	Radiación solar	0
185441	7	Sololá	716	San Marcos la Laguna 	11	San Marcos la laguna 	3	Marzo	2023-03-31T00:00:00	2024-11-08T06:00:00	2	Temperatura media	14.8
185442	7	Sololá	716	San Marcos la Laguna 	11	San Marcos la laguna 	3	Marzo	2023-03-31T00:00:00	2024-11-08T06:00:00	4	Temperatura máxima	15.9
185443	7	Sololá	716	San Marcos la Laguna 	11	San Marcos la laguna 	3	Marzo	2023-03-31T00:00:00	2024-11-08T06:00:00	3	Temperatura mínima	14.7
185444	7	Sololá	716	San Marcos la Laguna 	11	San Marcos la laguna 	3	Marzo	2023-03-31T00:00:00	2024-11-08T06:00:00	5	Humedad	76
185445	7	Sololá	716	San Marcos la Laguna 	11	San Marcos la laguna 	3	Marzo	2023-03-31T00:00:00	2024-11-08T06:00:00	6	Velocidad del viento	6.4
185446	7	Sololá	716	San Marcos la Laguna 	11	San Marcos la laguna 	3	Marzo	2023-03-31T00:00:00	2024-11-08T06:00:00	7	Dirección del viento	6.44
185447	7	Sololá	716	San Marcos la Laguna 	11	San Marcos la laguna 	3	Marzo	2023-03-31T00:00:00	2024-11-08T06:00:00	1	Precipitación	0
185448	7	Sololá	716	San Marcos la Laguna 	11	San Marcos la laguna 	3	Marzo	2023-03-31T00:00:00	2024-11-08T06:00:00	8	Radiación solar	0
185449	7	Sololá	716	San Marcos la Laguna 	11	San Marcos la laguna 	3	Marzo	2023-03-31T00:00:00	2024-11-08T07:00:00	2	Temperatura media	15.6
185450	7	Sololá	716	San Marcos la Laguna 	11	San Marcos la laguna 	3	Marzo	2023-03-31T00:00:00	2024-11-08T07:00:00	4	Temperatura máxima	15.6
185451	7	Sololá	716	San Marcos la Laguna 	11	San Marcos la laguna 	3	Marzo	2023-03-31T00:00:00	2024-11-08T07:00:00	3	Temperatura mínima	14.6
185452	7	Sololá	716	San Marcos la Laguna 	11	San Marcos la laguna 	3	Marzo	2023-03-31T00:00:00	2024-11-08T07:00:00	5	Humedad	76
185453	7	Sololá	716	San Marcos la Laguna 	11	San Marcos la laguna 	3	Marzo	2023-03-31T00:00:00	2024-11-08T07:00:00	6	Velocidad del viento	6.4
185454	7	Sololá	716	San Marcos la Laguna 	11	San Marcos la laguna 	3	Marzo	2023-03-31T00:00:00	2024-11-08T07:00:00	7	Dirección del viento	6.44
185455	7	Sololá	716	San Marcos la Laguna 	11	San Marcos la laguna 	3	Marzo	2023-03-31T00:00:00	2024-11-08T07:00:00	1	Precipitación	0
185456	7	Sololá	716	San Marcos la Laguna 	11	San Marcos la laguna 	3	Marzo	2023-03-31T00:00:00	2024-11-08T07:00:00	8	Radiación solar	37
185457	7	Sololá	716	San Marcos la Laguna 	11	San Marcos la laguna 	3	Marzo	2023-03-31T00:00:00	2024-11-08T08:00:00	2	Temperatura media	20.2
185458	7	Sololá	716	San Marcos la Laguna 	11	San Marcos la laguna 	3	Marzo	2023-03-31T00:00:00	2024-11-08T08:00:00	4	Temperatura máxima	20.2
185459	7	Sololá	716	San Marcos la Laguna 	11	San Marcos la laguna 	3	Marzo	2023-03-31T00:00:00	2024-11-08T08:00:00	3	Temperatura mínima	15.6
185460	7	Sololá	716	San Marcos la Laguna 	11	San Marcos la laguna 	3	Marzo	2023-03-31T00:00:00	2024-11-08T08:00:00	5	Humedad	66
185461	7	Sololá	716	San Marcos la Laguna 	11	San Marcos la laguna 	3	Marzo	2023-03-31T00:00:00	2024-11-08T08:00:00	6	Velocidad del viento	3.2
185462	7	Sololá	716	San Marcos la Laguna 	11	San Marcos la laguna 	3	Marzo	2023-03-31T00:00:00	2024-11-08T08:00:00	7	Dirección del viento	3.22
185463	7	Sololá	716	San Marcos la Laguna 	11	San Marcos la laguna 	3	Marzo	2023-03-31T00:00:00	2024-11-08T08:00:00	1	Precipitación	0
185464	7	Sololá	716	San Marcos la Laguna 	11	San Marcos la laguna 	3	Marzo	2023-03-31T00:00:00	2024-11-08T08:00:00	8	Radiación solar	211
185465	7	Sololá	716	San Marcos la Laguna 	11	San Marcos la laguna 	3	Marzo	2023-03-31T00:00:00	2024-11-08T09:00:00	2	Temperatura media	21.5
185466	7	Sololá	716	San Marcos la Laguna 	11	San Marcos la laguna 	3	Marzo	2023-03-31T00:00:00	2024-11-08T09:00:00	4	Temperatura máxima	21.7
185467	7	Sololá	716	San Marcos la Laguna 	11	San Marcos la laguna 	3	Marzo	2023-03-31T00:00:00	2024-11-08T09:00:00	3	Temperatura mínima	20.2
185468	7	Sololá	716	San Marcos la Laguna 	11	San Marcos la laguna 	3	Marzo	2023-03-31T00:00:00	2024-11-08T09:00:00	5	Humedad	55
185469	7	Sololá	716	San Marcos la Laguna 	11	San Marcos la laguna 	3	Marzo	2023-03-31T00:00:00	2024-11-08T09:00:00	6	Velocidad del viento	12.9
185470	7	Sololá	716	San Marcos la Laguna 	11	San Marcos la laguna 	3	Marzo	2023-03-31T00:00:00	2024-11-08T09:00:00	7	Dirección del viento	12.87
185471	7	Sololá	716	San Marcos la Laguna 	11	San Marcos la laguna 	3	Marzo	2023-03-31T00:00:00	2024-11-08T09:00:00	1	Precipitación	0
185472	7	Sololá	716	San Marcos la Laguna 	11	San Marcos la laguna 	3	Marzo	2023-03-31T00:00:00	2024-11-08T09:00:00	8	Radiación solar	485
185473	7	Sololá	716	San Marcos la Laguna 	11	San Marcos la laguna 	3	Marzo	2023-03-31T00:00:00	2024-11-08T10:00:00	2	Temperatura media	22.4
185474	7	Sololá	716	San Marcos la Laguna 	11	San Marcos la laguna 	3	Marzo	2023-03-31T00:00:00	2024-11-08T10:00:00	4	Temperatura máxima	22.6
185475	7	Sololá	716	San Marcos la Laguna 	11	San Marcos la laguna 	3	Marzo	2023-03-31T00:00:00	2024-11-08T10:00:00	3	Temperatura mínima	21.5
185476	7	Sololá	716	San Marcos la Laguna 	11	San Marcos la laguna 	3	Marzo	2023-03-31T00:00:00	2024-11-08T10:00:00	5	Humedad	53
185477	7	Sololá	716	San Marcos la Laguna 	11	San Marcos la laguna 	3	Marzo	2023-03-31T00:00:00	2024-11-08T10:00:00	6	Velocidad del viento	11.3
185478	7	Sololá	716	San Marcos la Laguna 	11	San Marcos la laguna 	3	Marzo	2023-03-31T00:00:00	2024-11-08T10:00:00	7	Dirección del viento	11.27
185479	7	Sololá	716	San Marcos la Laguna 	11	San Marcos la laguna 	3	Marzo	2023-03-31T00:00:00	2024-11-08T10:00:00	1	Precipitación	0
185480	7	Sololá	716	San Marcos la Laguna 	11	San Marcos la laguna 	3	Marzo	2023-03-31T00:00:00	2024-11-08T10:00:00	8	Radiación solar	679
185481	7	Sololá	716	San Marcos la Laguna 	11	San Marcos la laguna 	3	Marzo	2023-03-31T00:00:00	2024-11-08T11:00:00	2	Temperatura media	24.3
185482	7	Sololá	716	San Marcos la Laguna 	11	San Marcos la laguna 	3	Marzo	2023-03-31T00:00:00	2024-11-08T11:00:00	4	Temperatura máxima	24.4
185483	7	Sololá	716	San Marcos la Laguna 	11	San Marcos la laguna 	3	Marzo	2023-03-31T00:00:00	2024-11-08T11:00:00	3	Temperatura mínima	22.4
185484	7	Sololá	716	San Marcos la Laguna 	11	San Marcos la laguna 	3	Marzo	2023-03-31T00:00:00	2024-11-08T11:00:00	5	Humedad	44
185485	7	Sololá	716	San Marcos la Laguna 	11	San Marcos la laguna 	3	Marzo	2023-03-31T00:00:00	2024-11-08T11:00:00	6	Velocidad del viento	8
185486	7	Sololá	716	San Marcos la Laguna 	11	San Marcos la laguna 	3	Marzo	2023-03-31T00:00:00	2024-11-08T11:00:00	7	Dirección del viento	8.05
185487	7	Sololá	716	San Marcos la Laguna 	11	San Marcos la laguna 	3	Marzo	2023-03-31T00:00:00	2024-11-08T11:00:00	1	Precipitación	0
185488	7	Sololá	716	San Marcos la Laguna 	11	San Marcos la laguna 	3	Marzo	2023-03-31T00:00:00	2024-11-08T11:00:00	8	Radiación solar	827
185489	7	Sololá	716	San Marcos la Laguna 	11	San Marcos la laguna 	3	Marzo	2023-03-31T00:00:00	2024-11-08T12:00:00	2	Temperatura media	24.8
185490	7	Sololá	716	San Marcos la Laguna 	11	San Marcos la laguna 	3	Marzo	2023-03-31T00:00:00	2024-11-08T12:00:00	4	Temperatura máxima	25
185491	7	Sololá	716	San Marcos la Laguna 	11	San Marcos la laguna 	3	Marzo	2023-03-31T00:00:00	2024-11-08T12:00:00	3	Temperatura mínima	24.2
185492	7	Sololá	716	San Marcos la Laguna 	11	San Marcos la laguna 	3	Marzo	2023-03-31T00:00:00	2024-11-08T12:00:00	5	Humedad	44
185493	7	Sololá	716	San Marcos la Laguna 	11	San Marcos la laguna 	3	Marzo	2023-03-31T00:00:00	2024-11-08T12:00:00	6	Velocidad del viento	4.8
185494	7	Sololá	716	San Marcos la Laguna 	11	San Marcos la laguna 	3	Marzo	2023-03-31T00:00:00	2024-11-08T12:00:00	7	Dirección del viento	4.83
185495	7	Sololá	716	San Marcos la Laguna 	11	San Marcos la laguna 	3	Marzo	2023-03-31T00:00:00	2024-11-08T12:00:00	1	Precipitación	0
185496	7	Sololá	716	San Marcos la Laguna 	11	San Marcos la laguna 	3	Marzo	2023-03-31T00:00:00	2024-11-08T12:00:00	8	Radiación solar	919
185497	7	Sololá	716	San Marcos la Laguna 	11	San Marcos la laguna 	3	Marzo	2023-03-31T00:00:00	2024-11-08T13:00:00	2	Temperatura media	23.1
185498	7	Sololá	716	San Marcos la Laguna 	11	San Marcos la laguna 	3	Marzo	2023-03-31T00:00:00	2024-11-08T13:00:00	4	Temperatura máxima	24.8
185499	7	Sololá	716	San Marcos la Laguna 	11	San Marcos la laguna 	3	Marzo	2023-03-31T00:00:00	2024-11-08T13:00:00	3	Temperatura mínima	23.1
185500	7	Sololá	716	San Marcos la Laguna 	11	San Marcos la laguna 	3	Marzo	2023-03-31T00:00:00	2024-11-08T13:00:00	5	Humedad	69
185501	7	Sololá	716	San Marcos la Laguna 	11	San Marcos la laguna 	3	Marzo	2023-03-31T00:00:00	2024-11-08T13:00:00	6	Velocidad del viento	9.7
185502	7	Sololá	716	San Marcos la Laguna 	11	San Marcos la laguna 	3	Marzo	2023-03-31T00:00:00	2024-11-08T13:00:00	7	Dirección del viento	9.66
185503	7	Sololá	716	San Marcos la Laguna 	11	San Marcos la laguna 	3	Marzo	2023-03-31T00:00:00	2024-11-08T13:00:00	1	Precipitación	0
185504	7	Sololá	716	San Marcos la Laguna 	11	San Marcos la laguna 	3	Marzo	2023-03-31T00:00:00	2024-11-08T13:00:00	8	Radiación solar	921
185505	7	Sololá	716	San Marcos la Laguna 	11	San Marcos la laguna 	3	Marzo	2023-03-31T00:00:00	2024-11-08T14:00:00	2	Temperatura media	22.7
185506	7	Sololá	716	San Marcos la Laguna 	11	San Marcos la laguna 	3	Marzo	2023-03-31T00:00:00	2024-11-08T14:00:00	4	Temperatura máxima	23.4
185507	7	Sololá	716	San Marcos la Laguna 	11	San Marcos la laguna 	3	Marzo	2023-03-31T00:00:00	2024-11-08T14:00:00	3	Temperatura mínima	22.7
185508	7	Sololá	716	San Marcos la Laguna 	11	San Marcos la laguna 	3	Marzo	2023-03-31T00:00:00	2024-11-08T14:00:00	5	Humedad	68
185509	7	Sololá	716	San Marcos la Laguna 	11	San Marcos la laguna 	3	Marzo	2023-03-31T00:00:00	2024-11-08T14:00:00	6	Velocidad del viento	11.3
185510	7	Sololá	716	San Marcos la Laguna 	11	San Marcos la laguna 	3	Marzo	2023-03-31T00:00:00	2024-11-08T14:00:00	7	Dirección del viento	11.27
185511	7	Sololá	716	San Marcos la Laguna 	11	San Marcos la laguna 	3	Marzo	2023-03-31T00:00:00	2024-11-08T14:00:00	1	Precipitación	0
185512	7	Sololá	716	San Marcos la Laguna 	11	San Marcos la laguna 	3	Marzo	2023-03-31T00:00:00	2024-11-08T14:00:00	8	Radiación solar	847
185513	7	Sololá	716	San Marcos la Laguna 	11	San Marcos la laguna 	3	Marzo	2023-03-31T00:00:00	2024-11-08T15:00:00	2	Temperatura media	22.9
185514	7	Sololá	716	San Marcos la Laguna 	11	San Marcos la laguna 	3	Marzo	2023-03-31T00:00:00	2024-11-08T15:00:00	4	Temperatura máxima	24.7
185515	7	Sololá	716	San Marcos la Laguna 	11	San Marcos la laguna 	3	Marzo	2023-03-31T00:00:00	2024-11-08T15:00:00	3	Temperatura mínima	22.6
185516	7	Sololá	716	San Marcos la Laguna 	11	San Marcos la laguna 	3	Marzo	2023-03-31T00:00:00	2024-11-08T15:00:00	5	Humedad	71
185517	7	Sololá	716	San Marcos la Laguna 	11	San Marcos la laguna 	3	Marzo	2023-03-31T00:00:00	2024-11-08T15:00:00	6	Velocidad del viento	8
185518	7	Sololá	716	San Marcos la Laguna 	11	San Marcos la laguna 	3	Marzo	2023-03-31T00:00:00	2024-11-08T15:00:00	7	Dirección del viento	8.05
185519	7	Sololá	716	San Marcos la Laguna 	11	San Marcos la laguna 	3	Marzo	2023-03-31T00:00:00	2024-11-08T15:00:00	1	Precipitación	0
185520	7	Sololá	716	San Marcos la Laguna 	11	San Marcos la laguna 	3	Marzo	2023-03-31T00:00:00	2024-11-08T15:00:00	8	Radiación solar	602
185521	7	Sololá	716	San Marcos la Laguna 	11	San Marcos la laguna 	3	Marzo	2023-03-31T00:00:00	2024-11-08T16:00:00	2	Temperatura media	21.9
185522	7	Sololá	716	San Marcos la Laguna 	11	San Marcos la laguna 	3	Marzo	2023-03-31T00:00:00	2024-11-08T16:00:00	4	Temperatura máxima	22.9
185523	7	Sololá	716	San Marcos la Laguna 	11	San Marcos la laguna 	3	Marzo	2023-03-31T00:00:00	2024-11-08T16:00:00	3	Temperatura mínima	21.6
185524	7	Sololá	716	San Marcos la Laguna 	11	San Marcos la laguna 	3	Marzo	2023-03-31T00:00:00	2024-11-08T16:00:00	5	Humedad	75
185525	7	Sololá	716	San Marcos la Laguna 	11	San Marcos la laguna 	3	Marzo	2023-03-31T00:00:00	2024-11-08T16:00:00	6	Velocidad del viento	8
185526	7	Sololá	716	San Marcos la Laguna 	11	San Marcos la laguna 	3	Marzo	2023-03-31T00:00:00	2024-11-08T16:00:00	7	Dirección del viento	8.05
185527	7	Sololá	716	San Marcos la Laguna 	11	San Marcos la laguna 	3	Marzo	2023-03-31T00:00:00	2024-11-08T16:00:00	1	Precipitación	0
185528	7	Sololá	716	San Marcos la Laguna 	11	San Marcos la laguna 	3	Marzo	2023-03-31T00:00:00	2024-11-08T16:00:00	8	Radiación solar	155
185529	7	Sololá	716	San Marcos la Laguna 	11	San Marcos la laguna 	3	Marzo	2023-03-31T00:00:00	2024-11-08T17:00:00	2	Temperatura media	21.8
185530	7	Sololá	716	San Marcos la Laguna 	11	San Marcos la laguna 	3	Marzo	2023-03-31T00:00:00	2024-11-08T17:00:00	4	Temperatura máxima	22.4
185531	7	Sololá	716	San Marcos la Laguna 	11	San Marcos la laguna 	3	Marzo	2023-03-31T00:00:00	2024-11-08T17:00:00	3	Temperatura mínima	21.8
185532	7	Sololá	716	San Marcos la Laguna 	11	San Marcos la laguna 	3	Marzo	2023-03-31T00:00:00	2024-11-08T17:00:00	5	Humedad	75
185533	7	Sololá	716	San Marcos la Laguna 	11	San Marcos la laguna 	3	Marzo	2023-03-31T00:00:00	2024-11-08T17:00:00	6	Velocidad del viento	3.2
185534	7	Sololá	716	San Marcos la Laguna 	11	San Marcos la laguna 	3	Marzo	2023-03-31T00:00:00	2024-11-08T17:00:00	7	Dirección del viento	3.22
185535	7	Sololá	716	San Marcos la Laguna 	11	San Marcos la laguna 	3	Marzo	2023-03-31T00:00:00	2024-11-08T17:00:00	1	Precipitación	0
185536	7	Sololá	716	San Marcos la Laguna 	11	San Marcos la laguna 	3	Marzo	2023-03-31T00:00:00	2024-11-08T17:00:00	8	Radiación solar	164
185537	7	Sololá	716	San Marcos la Laguna 	11	San Marcos la laguna 	3	Marzo	2023-03-31T00:00:00	2024-11-08T18:00:00	2	Temperatura media	20.7
185538	7	Sololá	716	San Marcos la Laguna 	11	San Marcos la laguna 	3	Marzo	2023-03-31T00:00:00	2024-11-08T18:00:00	4	Temperatura máxima	21.8
185539	7	Sololá	716	San Marcos la Laguna 	11	San Marcos la laguna 	3	Marzo	2023-03-31T00:00:00	2024-11-08T18:00:00	3	Temperatura mínima	20.7
185540	7	Sololá	716	San Marcos la Laguna 	11	San Marcos la laguna 	3	Marzo	2023-03-31T00:00:00	2024-11-08T18:00:00	5	Humedad	81
185541	7	Sololá	716	San Marcos la Laguna 	11	San Marcos la laguna 	3	Marzo	2023-03-31T00:00:00	2024-11-08T18:00:00	6	Velocidad del viento	9.7
185542	7	Sololá	716	San Marcos la Laguna 	11	San Marcos la laguna 	3	Marzo	2023-03-31T00:00:00	2024-11-08T18:00:00	7	Dirección del viento	9.66
185543	7	Sololá	716	San Marcos la Laguna 	11	San Marcos la laguna 	3	Marzo	2023-03-31T00:00:00	2024-11-08T18:00:00	1	Precipitación	0
185544	7	Sololá	716	San Marcos la Laguna 	11	San Marcos la laguna 	3	Marzo	2023-03-31T00:00:00	2024-11-08T18:00:00	8	Radiación solar	72
185545	7	Sololá	716	San Marcos la Laguna 	11	San Marcos la laguna 	3	Marzo	2023-03-31T00:00:00	2024-11-08T19:00:00	2	Temperatura media	20.1
185546	7	Sololá	716	San Marcos la Laguna 	11	San Marcos la laguna 	3	Marzo	2023-03-31T00:00:00	2024-11-08T19:00:00	4	Temperatura máxima	20.7
185547	7	Sololá	716	San Marcos la Laguna 	11	San Marcos la laguna 	3	Marzo	2023-03-31T00:00:00	2024-11-08T19:00:00	3	Temperatura mínima	20.1
185548	7	Sololá	716	San Marcos la Laguna 	11	San Marcos la laguna 	3	Marzo	2023-03-31T00:00:00	2024-11-08T19:00:00	5	Humedad	84
185549	7	Sololá	716	San Marcos la Laguna 	11	San Marcos la laguna 	3	Marzo	2023-03-31T00:00:00	2024-11-08T19:00:00	6	Velocidad del viento	3.2
185550	7	Sololá	716	San Marcos la Laguna 	11	San Marcos la laguna 	3	Marzo	2023-03-31T00:00:00	2024-11-08T19:00:00	7	Dirección del viento	3.22
185551	7	Sololá	716	San Marcos la Laguna 	11	San Marcos la laguna 	3	Marzo	2023-03-31T00:00:00	2024-11-08T19:00:00	1	Precipitación	0
185552	7	Sololá	716	San Marcos la Laguna 	11	San Marcos la laguna 	3	Marzo	2023-03-31T00:00:00	2024-11-08T19:00:00	8	Radiación solar	0
185553	7	Sololá	716	San Marcos la Laguna 	11	San Marcos la laguna 	3	Marzo	2023-03-31T00:00:00	2024-11-08T20:00:00	2	Temperatura media	19.9
185554	7	Sololá	716	San Marcos la Laguna 	11	San Marcos la laguna 	3	Marzo	2023-03-31T00:00:00	2024-11-08T20:00:00	4	Temperatura máxima	20.1
185555	7	Sololá	716	San Marcos la Laguna 	11	San Marcos la laguna 	3	Marzo	2023-03-31T00:00:00	2024-11-08T20:00:00	3	Temperatura mínima	19.8
185556	7	Sololá	716	San Marcos la Laguna 	11	San Marcos la laguna 	3	Marzo	2023-03-31T00:00:00	2024-11-08T20:00:00	5	Humedad	83
185557	7	Sololá	716	San Marcos la Laguna 	11	San Marcos la laguna 	3	Marzo	2023-03-31T00:00:00	2024-11-08T20:00:00	6	Velocidad del viento	1.6
185558	7	Sololá	716	San Marcos la Laguna 	11	San Marcos la laguna 	3	Marzo	2023-03-31T00:00:00	2024-11-08T20:00:00	7	Dirección del viento	1.61
185559	7	Sololá	716	San Marcos la Laguna 	11	San Marcos la laguna 	3	Marzo	2023-03-31T00:00:00	2024-11-08T20:00:00	1	Precipitación	0
185560	7	Sololá	716	San Marcos la Laguna 	11	San Marcos la laguna 	3	Marzo	2023-03-31T00:00:00	2024-11-08T20:00:00	8	Radiación solar	0
185561	7	Sololá	716	San Marcos la Laguna 	11	San Marcos la laguna 	3	Marzo	2023-03-31T00:00:00	2024-11-08T21:00:00	2	Temperatura media	18.8
185562	7	Sololá	716	San Marcos la Laguna 	11	San Marcos la laguna 	3	Marzo	2023-03-31T00:00:00	2024-11-08T21:00:00	4	Temperatura máxima	19.8
185563	7	Sololá	716	San Marcos la Laguna 	11	San Marcos la laguna 	3	Marzo	2023-03-31T00:00:00	2024-11-08T21:00:00	3	Temperatura mínima	18.8
185564	7	Sololá	716	San Marcos la Laguna 	11	San Marcos la laguna 	3	Marzo	2023-03-31T00:00:00	2024-11-08T21:00:00	5	Humedad	78
185565	7	Sololá	716	San Marcos la Laguna 	11	San Marcos la laguna 	3	Marzo	2023-03-31T00:00:00	2024-11-08T21:00:00	6	Velocidad del viento	3.2
185566	7	Sololá	716	San Marcos la Laguna 	11	San Marcos la laguna 	3	Marzo	2023-03-31T00:00:00	2024-11-08T21:00:00	7	Dirección del viento	3.22
185567	7	Sololá	716	San Marcos la Laguna 	11	San Marcos la laguna 	3	Marzo	2023-03-31T00:00:00	2024-11-08T21:00:00	1	Precipitación	0
185568	7	Sololá	716	San Marcos la Laguna 	11	San Marcos la laguna 	3	Marzo	2023-03-31T00:00:00	2024-11-08T21:00:00	8	Radiación solar	0
185569	7	Sololá	716	San Marcos la Laguna 	11	San Marcos la laguna 	3	Marzo	2023-03-31T00:00:00	2024-11-08T22:00:00	2	Temperatura media	18.2
185570	7	Sololá	716	San Marcos la Laguna 	11	San Marcos la laguna 	3	Marzo	2023-03-31T00:00:00	2024-11-08T22:00:00	4	Temperatura máxima	18.8
185571	7	Sololá	716	San Marcos la Laguna 	11	San Marcos la laguna 	3	Marzo	2023-03-31T00:00:00	2024-11-08T22:00:00	3	Temperatura mínima	18
185572	7	Sololá	716	San Marcos la Laguna 	11	San Marcos la laguna 	3	Marzo	2023-03-31T00:00:00	2024-11-08T22:00:00	5	Humedad	82
185573	7	Sololá	716	San Marcos la Laguna 	11	San Marcos la laguna 	3	Marzo	2023-03-31T00:00:00	2024-11-08T22:00:00	6	Velocidad del viento	6.4
185574	7	Sololá	716	San Marcos la Laguna 	11	San Marcos la laguna 	3	Marzo	2023-03-31T00:00:00	2024-11-08T22:00:00	7	Dirección del viento	6.44
185575	7	Sololá	716	San Marcos la Laguna 	11	San Marcos la laguna 	3	Marzo	2023-03-31T00:00:00	2024-11-08T22:00:00	1	Precipitación	0
185576	7	Sololá	716	San Marcos la Laguna 	11	San Marcos la laguna 	3	Marzo	2023-03-31T00:00:00	2024-11-08T22:00:00	8	Radiación solar	0
185577	7	Sololá	716	San Marcos la Laguna 	11	San Marcos la laguna 	3	Marzo	2023-03-31T00:00:00	2024-11-08T23:00:00	2	Temperatura media	18.3
185578	7	Sololá	716	San Marcos la Laguna 	11	San Marcos la laguna 	3	Marzo	2023-03-31T00:00:00	2024-11-08T23:00:00	4	Temperatura máxima	18.6
185579	7	Sololá	716	San Marcos la Laguna 	11	San Marcos la laguna 	3	Marzo	2023-03-31T00:00:00	2024-11-08T23:00:00	3	Temperatura mínima	18.2
185580	7	Sololá	716	San Marcos la Laguna 	11	San Marcos la laguna 	3	Marzo	2023-03-31T00:00:00	2024-11-08T23:00:00	5	Humedad	77
185581	7	Sololá	716	San Marcos la Laguna 	11	San Marcos la laguna 	3	Marzo	2023-03-31T00:00:00	2024-11-08T23:00:00	6	Velocidad del viento	6.4
185582	7	Sololá	716	San Marcos la Laguna 	11	San Marcos la laguna 	3	Marzo	2023-03-31T00:00:00	2024-11-08T23:00:00	7	Dirección del viento	6.44
185583	7	Sololá	716	San Marcos la Laguna 	11	San Marcos la laguna 	3	Marzo	2023-03-31T00:00:00	2024-11-08T23:00:00	1	Precipitación	0
185584	7	Sololá	716	San Marcos la Laguna 	11	San Marcos la laguna 	3	Marzo	2023-03-31T00:00:00	2024-11-08T23:00:00	8	Radiación solar	0
185585	7	Sololá	716	San Marcos la Laguna 	11	San Marcos la laguna 	4	Abril	2023-01-04T00:00:00	2024-11-08T00:00:00	2	Temperatura media	17.9
185586	7	Sololá	716	San Marcos la Laguna 	11	San Marcos la laguna 	4	Abril	2023-01-04T00:00:00	2024-11-08T00:00:00	4	Temperatura máxima	18.4
185587	7	Sololá	716	San Marcos la Laguna 	11	San Marcos la laguna 	4	Abril	2023-01-04T00:00:00	2024-11-08T00:00:00	3	Temperatura mínima	17.9
185588	7	Sololá	716	San Marcos la Laguna 	11	San Marcos la laguna 	4	Abril	2023-01-04T00:00:00	2024-11-08T00:00:00	5	Humedad	74
185589	7	Sololá	716	San Marcos la Laguna 	11	San Marcos la laguna 	4	Abril	2023-01-04T00:00:00	2024-11-08T00:00:00	6	Velocidad del viento	8
185590	7	Sololá	716	San Marcos la Laguna 	11	San Marcos la laguna 	4	Abril	2023-01-04T00:00:00	2024-11-08T00:00:00	7	Dirección del viento	8.05
185591	7	Sololá	716	San Marcos la Laguna 	11	San Marcos la laguna 	4	Abril	2023-01-04T00:00:00	2024-11-08T00:00:00	1	Precipitación	0
185592	7	Sololá	716	San Marcos la Laguna 	11	San Marcos la laguna 	4	Abril	2023-01-04T00:00:00	2024-11-08T00:00:00	8	Radiación solar	0
185593	7	Sololá	716	San Marcos la Laguna 	11	San Marcos la laguna 	4	Abril	2023-01-04T00:00:00	2024-11-08T01:00:00	2	Temperatura media	16.8
185594	7	Sololá	716	San Marcos la Laguna 	11	San Marcos la laguna 	4	Abril	2023-01-04T00:00:00	2024-11-08T01:00:00	4	Temperatura máxima	17.9
185595	7	Sololá	716	San Marcos la Laguna 	11	San Marcos la laguna 	4	Abril	2023-01-04T00:00:00	2024-11-08T01:00:00	3	Temperatura mínima	16.6
185596	7	Sololá	716	San Marcos la Laguna 	11	San Marcos la laguna 	4	Abril	2023-01-04T00:00:00	2024-11-08T01:00:00	5	Humedad	78
185597	7	Sololá	716	San Marcos la Laguna 	11	San Marcos la laguna 	4	Abril	2023-01-04T00:00:00	2024-11-08T01:00:00	6	Velocidad del viento	6.4
185598	7	Sololá	716	San Marcos la Laguna 	11	San Marcos la laguna 	4	Abril	2023-01-04T00:00:00	2024-11-08T01:00:00	7	Dirección del viento	6.44
185599	7	Sololá	716	San Marcos la Laguna 	11	San Marcos la laguna 	4	Abril	2023-01-04T00:00:00	2024-11-08T01:00:00	1	Precipitación	0
185600	7	Sololá	716	San Marcos la Laguna 	11	San Marcos la laguna 	4	Abril	2023-01-04T00:00:00	2024-11-08T01:00:00	8	Radiación solar	0
185601	7	Sololá	716	San Marcos la Laguna 	11	San Marcos la laguna 	4	Abril	2023-01-04T00:00:00	2024-11-08T02:00:00	2	Temperatura media	16.3
185602	7	Sololá	716	San Marcos la Laguna 	11	San Marcos la laguna 	4	Abril	2023-01-04T00:00:00	2024-11-08T02:00:00	4	Temperatura máxima	16.8
185603	7	Sololá	716	San Marcos la Laguna 	11	San Marcos la laguna 	4	Abril	2023-01-04T00:00:00	2024-11-08T02:00:00	3	Temperatura mínima	16.3
185604	7	Sololá	716	San Marcos la Laguna 	11	San Marcos la laguna 	4	Abril	2023-01-04T00:00:00	2024-11-08T02:00:00	5	Humedad	77
185605	7	Sololá	716	San Marcos la Laguna 	11	San Marcos la laguna 	4	Abril	2023-01-04T00:00:00	2024-11-08T02:00:00	6	Velocidad del viento	6.4
185606	7	Sololá	716	San Marcos la Laguna 	11	San Marcos la laguna 	4	Abril	2023-01-04T00:00:00	2024-11-08T02:00:00	7	Dirección del viento	6.44
185607	7	Sololá	716	San Marcos la Laguna 	11	San Marcos la laguna 	4	Abril	2023-01-04T00:00:00	2024-11-08T02:00:00	1	Precipitación	0
185608	7	Sololá	716	San Marcos la Laguna 	11	San Marcos la laguna 	4	Abril	2023-01-04T00:00:00	2024-11-08T02:00:00	8	Radiación solar	0
185609	7	Sololá	716	San Marcos la Laguna 	11	San Marcos la laguna 	4	Abril	2023-01-04T00:00:00	2024-11-08T03:00:00	2	Temperatura media	16.3
185610	7	Sololá	716	San Marcos la Laguna 	11	San Marcos la laguna 	4	Abril	2023-01-04T00:00:00	2024-11-08T03:00:00	4	Temperatura máxima	16.4
185611	7	Sololá	716	San Marcos la Laguna 	11	San Marcos la laguna 	4	Abril	2023-01-04T00:00:00	2024-11-08T03:00:00	3	Temperatura mínima	15.9
185612	7	Sololá	716	San Marcos la Laguna 	11	San Marcos la laguna 	4	Abril	2023-01-04T00:00:00	2024-11-08T03:00:00	5	Humedad	81
185613	7	Sololá	716	San Marcos la Laguna 	11	San Marcos la laguna 	4	Abril	2023-01-04T00:00:00	2024-11-08T03:00:00	6	Velocidad del viento	6.4
185614	7	Sololá	716	San Marcos la Laguna 	11	San Marcos la laguna 	4	Abril	2023-01-04T00:00:00	2024-11-08T03:00:00	7	Dirección del viento	6.44
185615	7	Sololá	716	San Marcos la Laguna 	11	San Marcos la laguna 	4	Abril	2023-01-04T00:00:00	2024-11-08T03:00:00	1	Precipitación	0
185616	7	Sololá	716	San Marcos la Laguna 	11	San Marcos la laguna 	4	Abril	2023-01-04T00:00:00	2024-11-08T03:00:00	8	Radiación solar	0
185617	7	Sololá	716	San Marcos la Laguna 	11	San Marcos la laguna 	4	Abril	2023-01-04T00:00:00	2024-11-08T04:00:00	2	Temperatura media	15.3
185618	7	Sololá	716	San Marcos la Laguna 	11	San Marcos la laguna 	4	Abril	2023-01-04T00:00:00	2024-11-08T04:00:00	4	Temperatura máxima	16.3
185619	7	Sololá	716	San Marcos la Laguna 	11	San Marcos la laguna 	4	Abril	2023-01-04T00:00:00	2024-11-08T04:00:00	3	Temperatura mínima	15.3
185620	7	Sololá	716	San Marcos la Laguna 	11	San Marcos la laguna 	4	Abril	2023-01-04T00:00:00	2024-11-08T04:00:00	5	Humedad	83
185621	7	Sololá	716	San Marcos la Laguna 	11	San Marcos la laguna 	4	Abril	2023-01-04T00:00:00	2024-11-08T04:00:00	6	Velocidad del viento	6.4
185622	7	Sololá	716	San Marcos la Laguna 	11	San Marcos la laguna 	4	Abril	2023-01-04T00:00:00	2024-11-08T04:00:00	7	Dirección del viento	6.44
185623	7	Sololá	716	San Marcos la Laguna 	11	San Marcos la laguna 	4	Abril	2023-01-04T00:00:00	2024-11-08T04:00:00	1	Precipitación	0
185624	7	Sololá	716	San Marcos la Laguna 	11	San Marcos la laguna 	4	Abril	2023-01-04T00:00:00	2024-11-08T04:00:00	8	Radiación solar	0
185625	7	Sololá	716	San Marcos la Laguna 	11	San Marcos la laguna 	4	Abril	2023-01-04T00:00:00	2024-11-08T05:00:00	2	Temperatura media	14.7
185626	7	Sololá	716	San Marcos la Laguna 	11	San Marcos la laguna 	4	Abril	2023-01-04T00:00:00	2024-11-08T05:00:00	4	Temperatura máxima	15.3
185627	7	Sololá	716	San Marcos la Laguna 	11	San Marcos la laguna 	4	Abril	2023-01-04T00:00:00	2024-11-08T05:00:00	3	Temperatura mínima	14.6
185628	7	Sololá	716	San Marcos la Laguna 	11	San Marcos la laguna 	4	Abril	2023-01-04T00:00:00	2024-11-08T05:00:00	5	Humedad	85
185629	7	Sololá	716	San Marcos la Laguna 	11	San Marcos la laguna 	4	Abril	2023-01-04T00:00:00	2024-11-08T05:00:00	6	Velocidad del viento	6.4
185630	7	Sololá	716	San Marcos la Laguna 	11	San Marcos la laguna 	4	Abril	2023-01-04T00:00:00	2024-11-08T05:00:00	7	Dirección del viento	6.44
185631	7	Sololá	716	San Marcos la Laguna 	11	San Marcos la laguna 	4	Abril	2023-01-04T00:00:00	2024-11-08T05:00:00	1	Precipitación	0
185632	7	Sololá	716	San Marcos la Laguna 	11	San Marcos la laguna 	4	Abril	2023-01-04T00:00:00	2024-11-08T05:00:00	8	Radiación solar	0
185633	7	Sololá	716	San Marcos la Laguna 	11	San Marcos la laguna 	4	Abril	2023-01-04T00:00:00	2024-11-08T06:00:00	2	Temperatura media	14.2
185634	7	Sololá	716	San Marcos la Laguna 	11	San Marcos la laguna 	4	Abril	2023-01-04T00:00:00	2024-11-08T06:00:00	4	Temperatura máxima	14.7
185635	7	Sololá	716	San Marcos la Laguna 	11	San Marcos la laguna 	4	Abril	2023-01-04T00:00:00	2024-11-08T06:00:00	3	Temperatura mínima	14.2
185636	7	Sololá	716	San Marcos la Laguna 	11	San Marcos la laguna 	4	Abril	2023-01-04T00:00:00	2024-11-08T06:00:00	5	Humedad	85
185637	7	Sololá	716	San Marcos la Laguna 	11	San Marcos la laguna 	4	Abril	2023-01-04T00:00:00	2024-11-08T06:00:00	6	Velocidad del viento	6.4
185638	7	Sololá	716	San Marcos la Laguna 	11	San Marcos la laguna 	4	Abril	2023-01-04T00:00:00	2024-11-08T06:00:00	7	Dirección del viento	6.44
185639	7	Sololá	716	San Marcos la Laguna 	11	San Marcos la laguna 	4	Abril	2023-01-04T00:00:00	2024-11-08T06:00:00	1	Precipitación	0
185640	7	Sololá	716	San Marcos la Laguna 	11	San Marcos la laguna 	4	Abril	2023-01-04T00:00:00	2024-11-08T06:00:00	8	Radiación solar	0
185641	7	Sololá	716	San Marcos la Laguna 	11	San Marcos la laguna 	4	Abril	2023-01-04T00:00:00	2024-11-08T07:00:00	2	Temperatura media	15.2
185642	7	Sololá	716	San Marcos la Laguna 	11	San Marcos la laguna 	4	Abril	2023-01-04T00:00:00	2024-11-08T07:00:00	4	Temperatura máxima	15.2
185643	7	Sololá	716	San Marcos la Laguna 	11	San Marcos la laguna 	4	Abril	2023-01-04T00:00:00	2024-11-08T07:00:00	3	Temperatura mínima	14.1
185644	7	Sololá	716	San Marcos la Laguna 	11	San Marcos la laguna 	4	Abril	2023-01-04T00:00:00	2024-11-08T07:00:00	5	Humedad	84
185645	7	Sololá	716	San Marcos la Laguna 	11	San Marcos la laguna 	4	Abril	2023-01-04T00:00:00	2024-11-08T07:00:00	6	Velocidad del viento	6.4
185646	7	Sololá	716	San Marcos la Laguna 	11	San Marcos la laguna 	4	Abril	2023-01-04T00:00:00	2024-11-08T07:00:00	7	Dirección del viento	6.44
185647	7	Sololá	716	San Marcos la Laguna 	11	San Marcos la laguna 	4	Abril	2023-01-04T00:00:00	2024-11-08T07:00:00	1	Precipitación	0
185648	7	Sololá	716	San Marcos la Laguna 	11	San Marcos la laguna 	4	Abril	2023-01-04T00:00:00	2024-11-08T07:00:00	8	Radiación solar	39
185649	7	Sololá	716	San Marcos la Laguna 	11	San Marcos la laguna 	4	Abril	2023-01-04T00:00:00	2024-11-08T08:00:00	2	Temperatura media	19.4
185650	7	Sololá	716	San Marcos la Laguna 	11	San Marcos la laguna 	4	Abril	2023-01-04T00:00:00	2024-11-08T08:00:00	4	Temperatura máxima	19.4
185651	7	Sololá	716	San Marcos la Laguna 	11	San Marcos la laguna 	4	Abril	2023-01-04T00:00:00	2024-11-08T08:00:00	3	Temperatura mínima	15.2
185652	7	Sololá	716	San Marcos la Laguna 	11	San Marcos la laguna 	4	Abril	2023-01-04T00:00:00	2024-11-08T08:00:00	5	Humedad	74
185653	7	Sololá	716	San Marcos la Laguna 	11	San Marcos la laguna 	4	Abril	2023-01-04T00:00:00	2024-11-08T08:00:00	6	Velocidad del viento	3.2
185654	7	Sololá	716	San Marcos la Laguna 	11	San Marcos la laguna 	4	Abril	2023-01-04T00:00:00	2024-11-08T08:00:00	7	Dirección del viento	3.22
185655	7	Sololá	716	San Marcos la Laguna 	11	San Marcos la laguna 	4	Abril	2023-01-04T00:00:00	2024-11-08T08:00:00	1	Precipitación	0
185656	7	Sololá	716	San Marcos la Laguna 	11	San Marcos la laguna 	4	Abril	2023-01-04T00:00:00	2024-11-08T08:00:00	8	Radiación solar	200
185657	7	Sololá	716	San Marcos la Laguna 	11	San Marcos la laguna 	4	Abril	2023-01-04T00:00:00	2024-11-08T09:00:00	2	Temperatura media	20.1
185658	7	Sololá	716	San Marcos la Laguna 	11	San Marcos la laguna 	4	Abril	2023-01-04T00:00:00	2024-11-08T09:00:00	4	Temperatura máxima	20.1
185659	7	Sololá	716	San Marcos la Laguna 	11	San Marcos la laguna 	4	Abril	2023-01-04T00:00:00	2024-11-08T09:00:00	3	Temperatura mínima	19.3
185660	7	Sololá	716	San Marcos la Laguna 	11	San Marcos la laguna 	4	Abril	2023-01-04T00:00:00	2024-11-08T09:00:00	5	Humedad	73
185661	7	Sololá	716	San Marcos la Laguna 	11	San Marcos la laguna 	4	Abril	2023-01-04T00:00:00	2024-11-08T09:00:00	6	Velocidad del viento	4.8
185662	7	Sololá	716	San Marcos la Laguna 	11	San Marcos la laguna 	4	Abril	2023-01-04T00:00:00	2024-11-08T09:00:00	7	Dirección del viento	4.83
185663	7	Sololá	716	San Marcos la Laguna 	11	San Marcos la laguna 	4	Abril	2023-01-04T00:00:00	2024-11-08T09:00:00	1	Precipitación	0
185664	7	Sololá	716	San Marcos la Laguna 	11	San Marcos la laguna 	4	Abril	2023-01-04T00:00:00	2024-11-08T09:00:00	8	Radiación solar	466
185665	7	Sololá	716	San Marcos la Laguna 	11	San Marcos la laguna 	4	Abril	2023-01-04T00:00:00	2024-11-08T10:00:00	2	Temperatura media	20.5
185666	7	Sololá	716	San Marcos la Laguna 	11	San Marcos la laguna 	4	Abril	2023-01-04T00:00:00	2024-11-08T10:00:00	4	Temperatura máxima	20.7
185667	7	Sololá	716	San Marcos la Laguna 	11	San Marcos la laguna 	4	Abril	2023-01-04T00:00:00	2024-11-08T10:00:00	3	Temperatura mínima	19.5
185668	7	Sololá	716	San Marcos la Laguna 	11	San Marcos la laguna 	4	Abril	2023-01-04T00:00:00	2024-11-08T10:00:00	5	Humedad	68
185669	7	Sololá	716	San Marcos la Laguna 	11	San Marcos la laguna 	4	Abril	2023-01-04T00:00:00	2024-11-08T10:00:00	6	Velocidad del viento	9.7
185670	7	Sololá	716	San Marcos la Laguna 	11	San Marcos la laguna 	4	Abril	2023-01-04T00:00:00	2024-11-08T10:00:00	7	Dirección del viento	9.66
185671	7	Sololá	716	San Marcos la Laguna 	11	San Marcos la laguna 	4	Abril	2023-01-04T00:00:00	2024-11-08T10:00:00	1	Precipitación	0
185672	7	Sololá	716	San Marcos la Laguna 	11	San Marcos la laguna 	4	Abril	2023-01-04T00:00:00	2024-11-08T10:00:00	8	Radiación solar	663
185673	7	Sololá	716	San Marcos la Laguna 	11	San Marcos la laguna 	4	Abril	2023-01-04T00:00:00	2024-11-08T11:00:00	2	Temperatura media	22.2
185674	7	Sololá	716	San Marcos la Laguna 	11	San Marcos la laguna 	4	Abril	2023-01-04T00:00:00	2024-11-08T11:00:00	4	Temperatura máxima	22.2
185675	7	Sololá	716	San Marcos la Laguna 	11	San Marcos la laguna 	4	Abril	2023-01-04T00:00:00	2024-11-08T11:00:00	3	Temperatura mínima	20.5
185676	7	Sololá	716	San Marcos la Laguna 	11	San Marcos la laguna 	4	Abril	2023-01-04T00:00:00	2024-11-08T11:00:00	5	Humedad	65
185677	7	Sololá	716	San Marcos la Laguna 	11	San Marcos la laguna 	4	Abril	2023-01-04T00:00:00	2024-11-08T11:00:00	6	Velocidad del viento	4.8
185678	7	Sololá	716	San Marcos la Laguna 	11	San Marcos la laguna 	4	Abril	2023-01-04T00:00:00	2024-11-08T11:00:00	7	Dirección del viento	4.83
185679	7	Sololá	716	San Marcos la Laguna 	11	San Marcos la laguna 	4	Abril	2023-01-04T00:00:00	2024-11-08T11:00:00	1	Precipitación	0
185680	7	Sololá	716	San Marcos la Laguna 	11	San Marcos la laguna 	4	Abril	2023-01-04T00:00:00	2024-11-08T11:00:00	8	Radiación solar	816
185681	7	Sololá	716	San Marcos la Laguna 	11	San Marcos la laguna 	4	Abril	2023-01-04T00:00:00	2024-11-08T12:00:00	2	Temperatura media	22
185682	7	Sololá	716	San Marcos la Laguna 	11	San Marcos la laguna 	4	Abril	2023-01-04T00:00:00	2024-11-08T12:00:00	4	Temperatura máxima	22.7
185683	7	Sololá	716	San Marcos la Laguna 	11	San Marcos la laguna 	4	Abril	2023-01-04T00:00:00	2024-11-08T12:00:00	3	Temperatura mínima	21.4
185684	7	Sololá	716	San Marcos la Laguna 	11	San Marcos la laguna 	4	Abril	2023-01-04T00:00:00	2024-11-08T12:00:00	5	Humedad	72
185685	7	Sololá	716	San Marcos la Laguna 	11	San Marcos la laguna 	4	Abril	2023-01-04T00:00:00	2024-11-08T12:00:00	6	Velocidad del viento	12.9
185686	7	Sololá	716	San Marcos la Laguna 	11	San Marcos la laguna 	4	Abril	2023-01-04T00:00:00	2024-11-08T12:00:00	7	Dirección del viento	12.87
185687	7	Sololá	716	San Marcos la Laguna 	11	San Marcos la laguna 	4	Abril	2023-01-04T00:00:00	2024-11-08T12:00:00	1	Precipitación	0
185688	7	Sololá	716	San Marcos la Laguna 	11	San Marcos la laguna 	4	Abril	2023-01-04T00:00:00	2024-11-08T12:00:00	8	Radiación solar	896
185689	7	Sololá	716	San Marcos la Laguna 	11	San Marcos la laguna 	4	Abril	2023-01-04T00:00:00	2024-11-08T13:00:00	2	Temperatura media	22.2
185690	7	Sololá	716	San Marcos la Laguna 	11	San Marcos la laguna 	4	Abril	2023-01-04T00:00:00	2024-11-08T13:00:00	4	Temperatura máxima	22.4
185691	7	Sololá	716	San Marcos la Laguna 	11	San Marcos la laguna 	4	Abril	2023-01-04T00:00:00	2024-11-08T13:00:00	3	Temperatura mínima	21.9
185692	7	Sololá	716	San Marcos la Laguna 	11	San Marcos la laguna 	4	Abril	2023-01-04T00:00:00	2024-11-08T13:00:00	5	Humedad	73
185693	7	Sololá	716	San Marcos la Laguna 	11	San Marcos la laguna 	4	Abril	2023-01-04T00:00:00	2024-11-08T13:00:00	6	Velocidad del viento	12.9
185694	7	Sololá	716	San Marcos la Laguna 	11	San Marcos la laguna 	4	Abril	2023-01-04T00:00:00	2024-11-08T13:00:00	7	Dirección del viento	12.87
185695	7	Sololá	716	San Marcos la Laguna 	11	San Marcos la laguna 	4	Abril	2023-01-04T00:00:00	2024-11-08T13:00:00	1	Precipitación	0
185696	7	Sololá	716	San Marcos la Laguna 	11	San Marcos la laguna 	4	Abril	2023-01-04T00:00:00	2024-11-08T13:00:00	8	Radiación solar	902
185697	7	Sololá	716	San Marcos la Laguna 	11	San Marcos la laguna 	4	Abril	2023-01-04T00:00:00	2024-11-08T14:00:00	2	Temperatura media	22.3
185698	7	Sololá	716	San Marcos la Laguna 	11	San Marcos la laguna 	4	Abril	2023-01-04T00:00:00	2024-11-08T14:00:00	4	Temperatura máxima	22.3
185699	7	Sololá	716	San Marcos la Laguna 	11	San Marcos la laguna 	4	Abril	2023-01-04T00:00:00	2024-11-08T14:00:00	3	Temperatura mínima	21.9
185700	7	Sololá	716	San Marcos la Laguna 	11	San Marcos la laguna 	4	Abril	2023-01-04T00:00:00	2024-11-08T14:00:00	5	Humedad	73
185701	7	Sololá	716	San Marcos la Laguna 	11	San Marcos la laguna 	4	Abril	2023-01-04T00:00:00	2024-11-08T14:00:00	6	Velocidad del viento	14.5
185702	7	Sololá	716	San Marcos la Laguna 	11	San Marcos la laguna 	4	Abril	2023-01-04T00:00:00	2024-11-08T14:00:00	7	Dirección del viento	14.48
185703	7	Sololá	716	San Marcos la Laguna 	11	San Marcos la laguna 	4	Abril	2023-01-04T00:00:00	2024-11-08T14:00:00	1	Precipitación	0
185704	7	Sololá	716	San Marcos la Laguna 	11	San Marcos la laguna 	4	Abril	2023-01-04T00:00:00	2024-11-08T14:00:00	8	Radiación solar	835
185705	7	Sololá	716	San Marcos la Laguna 	11	San Marcos la laguna 	4	Abril	2023-01-04T00:00:00	2024-11-08T15:00:00	2	Temperatura media	22.3
185706	7	Sololá	716	San Marcos la Laguna 	11	San Marcos la laguna 	4	Abril	2023-01-04T00:00:00	2024-11-08T15:00:00	4	Temperatura máxima	22.4
185707	7	Sololá	716	San Marcos la Laguna 	11	San Marcos la laguna 	4	Abril	2023-01-04T00:00:00	2024-11-08T15:00:00	3	Temperatura mínima	22.1
185708	7	Sololá	716	San Marcos la Laguna 	11	San Marcos la laguna 	4	Abril	2023-01-04T00:00:00	2024-11-08T15:00:00	5	Humedad	74
185709	7	Sololá	716	San Marcos la Laguna 	11	San Marcos la laguna 	4	Abril	2023-01-04T00:00:00	2024-11-08T15:00:00	6	Velocidad del viento	9.7
185710	7	Sololá	716	San Marcos la Laguna 	11	San Marcos la laguna 	4	Abril	2023-01-04T00:00:00	2024-11-08T15:00:00	7	Dirección del viento	9.66
185711	7	Sololá	716	San Marcos la Laguna 	11	San Marcos la laguna 	4	Abril	2023-01-04T00:00:00	2024-11-08T15:00:00	1	Precipitación	0
185712	7	Sololá	716	San Marcos la Laguna 	11	San Marcos la laguna 	4	Abril	2023-01-04T00:00:00	2024-11-08T15:00:00	8	Radiación solar	500
185713	7	Sololá	716	San Marcos la Laguna 	11	San Marcos la laguna 	4	Abril	2023-01-04T00:00:00	2024-11-08T16:00:00	2	Temperatura media	22
185714	7	Sololá	716	San Marcos la Laguna 	11	San Marcos la laguna 	4	Abril	2023-01-04T00:00:00	2024-11-08T16:00:00	4	Temperatura máxima	22.3
185715	7	Sololá	716	San Marcos la Laguna 	11	San Marcos la laguna 	4	Abril	2023-01-04T00:00:00	2024-11-08T16:00:00	3	Temperatura mínima	21.9
185716	7	Sololá	716	San Marcos la Laguna 	11	San Marcos la laguna 	4	Abril	2023-01-04T00:00:00	2024-11-08T16:00:00	5	Humedad	77
185717	7	Sololá	716	San Marcos la Laguna 	11	San Marcos la laguna 	4	Abril	2023-01-04T00:00:00	2024-11-08T16:00:00	6	Velocidad del viento	11.3
185718	7	Sololá	716	San Marcos la Laguna 	11	San Marcos la laguna 	4	Abril	2023-01-04T00:00:00	2024-11-08T16:00:00	7	Dirección del viento	11.27
185719	7	Sololá	716	San Marcos la Laguna 	11	San Marcos la laguna 	4	Abril	2023-01-04T00:00:00	2024-11-08T16:00:00	1	Precipitación	0
185720	7	Sololá	716	San Marcos la Laguna 	11	San Marcos la laguna 	4	Abril	2023-01-04T00:00:00	2024-11-08T16:00:00	8	Radiación solar	510
185721	7	Sololá	716	San Marcos la Laguna 	11	San Marcos la laguna 	4	Abril	2023-01-04T00:00:00	2024-11-08T17:00:00	2	Temperatura media	21.3
185722	7	Sololá	716	San Marcos la Laguna 	11	San Marcos la laguna 	4	Abril	2023-01-04T00:00:00	2024-11-08T17:00:00	4	Temperatura máxima	22.2
185723	7	Sololá	716	San Marcos la Laguna 	11	San Marcos la laguna 	4	Abril	2023-01-04T00:00:00	2024-11-08T17:00:00	3	Temperatura mínima	21.2
185724	7	Sololá	716	San Marcos la Laguna 	11	San Marcos la laguna 	4	Abril	2023-01-04T00:00:00	2024-11-08T17:00:00	5	Humedad	80
185725	7	Sololá	716	San Marcos la Laguna 	11	San Marcos la laguna 	4	Abril	2023-01-04T00:00:00	2024-11-08T17:00:00	6	Velocidad del viento	9.7
185726	7	Sololá	716	San Marcos la Laguna 	11	San Marcos la laguna 	4	Abril	2023-01-04T00:00:00	2024-11-08T17:00:00	7	Dirección del viento	9.66
185727	7	Sololá	716	San Marcos la Laguna 	11	San Marcos la laguna 	4	Abril	2023-01-04T00:00:00	2024-11-08T17:00:00	1	Precipitación	0
185728	7	Sololá	716	San Marcos la Laguna 	11	San Marcos la laguna 	4	Abril	2023-01-04T00:00:00	2024-11-08T17:00:00	8	Radiación solar	259
185729	7	Sololá	716	San Marcos la Laguna 	11	San Marcos la laguna 	4	Abril	2023-01-04T00:00:00	2024-11-08T18:00:00	2	Temperatura media	20.4
185730	7	Sololá	716	San Marcos la Laguna 	11	San Marcos la laguna 	4	Abril	2023-01-04T00:00:00	2024-11-08T18:00:00	4	Temperatura máxima	21.3
185731	7	Sololá	716	San Marcos la Laguna 	11	San Marcos la laguna 	4	Abril	2023-01-04T00:00:00	2024-11-08T18:00:00	3	Temperatura mínima	20.3
185732	7	Sololá	716	San Marcos la Laguna 	11	San Marcos la laguna 	4	Abril	2023-01-04T00:00:00	2024-11-08T18:00:00	5	Humedad	86
185733	7	Sololá	716	San Marcos la Laguna 	11	San Marcos la laguna 	4	Abril	2023-01-04T00:00:00	2024-11-08T18:00:00	6	Velocidad del viento	9.7
185734	7	Sololá	716	San Marcos la Laguna 	11	San Marcos la laguna 	4	Abril	2023-01-04T00:00:00	2024-11-08T18:00:00	7	Dirección del viento	9.66
185735	7	Sololá	716	San Marcos la Laguna 	11	San Marcos la laguna 	4	Abril	2023-01-04T00:00:00	2024-11-08T18:00:00	1	Precipitación	0
185736	7	Sololá	716	San Marcos la Laguna 	11	San Marcos la laguna 	4	Abril	2023-01-04T00:00:00	2024-11-08T18:00:00	8	Radiación solar	49
185737	7	Sololá	716	San Marcos la Laguna 	11	San Marcos la laguna 	4	Abril	2023-01-04T00:00:00	2024-11-08T19:00:00	2	Temperatura media	20
185738	7	Sololá	716	San Marcos la Laguna 	11	San Marcos la laguna 	4	Abril	2023-01-04T00:00:00	2024-11-08T19:00:00	4	Temperatura máxima	20.4
185739	7	Sololá	716	San Marcos la Laguna 	11	San Marcos la laguna 	4	Abril	2023-01-04T00:00:00	2024-11-08T19:00:00	3	Temperatura mínima	20
185740	7	Sololá	716	San Marcos la Laguna 	11	San Marcos la laguna 	4	Abril	2023-01-04T00:00:00	2024-11-08T19:00:00	5	Humedad	87
185741	7	Sololá	716	San Marcos la Laguna 	11	San Marcos la laguna 	4	Abril	2023-01-04T00:00:00	2024-11-08T19:00:00	6	Velocidad del viento	4.8
185742	7	Sololá	716	San Marcos la Laguna 	11	San Marcos la laguna 	4	Abril	2023-01-04T00:00:00	2024-11-08T19:00:00	7	Dirección del viento	4.83
185743	7	Sololá	716	San Marcos la Laguna 	11	San Marcos la laguna 	4	Abril	2023-01-04T00:00:00	2024-11-08T19:00:00	1	Precipitación	0
185744	7	Sololá	716	San Marcos la Laguna 	11	San Marcos la laguna 	4	Abril	2023-01-04T00:00:00	2024-11-08T19:00:00	8	Radiación solar	0
185745	7	Sololá	716	San Marcos la Laguna 	11	San Marcos la laguna 	4	Abril	2023-01-04T00:00:00	2024-11-08T20:00:00	2	Temperatura media	19.6
185746	7	Sololá	716	San Marcos la Laguna 	11	San Marcos la laguna 	4	Abril	2023-01-04T00:00:00	2024-11-08T20:00:00	4	Temperatura máxima	20
185747	7	Sololá	716	San Marcos la Laguna 	11	San Marcos la laguna 	4	Abril	2023-01-04T00:00:00	2024-11-08T20:00:00	3	Temperatura mínima	19.6
185748	7	Sololá	716	San Marcos la Laguna 	11	San Marcos la laguna 	4	Abril	2023-01-04T00:00:00	2024-11-08T20:00:00	5	Humedad	88
185749	7	Sololá	716	San Marcos la Laguna 	11	San Marcos la laguna 	4	Abril	2023-01-04T00:00:00	2024-11-08T20:00:00	6	Velocidad del viento	1.6
185750	7	Sololá	716	San Marcos la Laguna 	11	San Marcos la laguna 	4	Abril	2023-01-04T00:00:00	2024-11-08T20:00:00	7	Dirección del viento	1.61
185751	7	Sololá	716	San Marcos la Laguna 	11	San Marcos la laguna 	4	Abril	2023-01-04T00:00:00	2024-11-08T20:00:00	1	Precipitación	0
185752	7	Sololá	716	San Marcos la Laguna 	11	San Marcos la laguna 	4	Abril	2023-01-04T00:00:00	2024-11-08T20:00:00	8	Radiación solar	0
185753	7	Sololá	716	San Marcos la Laguna 	11	San Marcos la laguna 	4	Abril	2023-01-04T00:00:00	2024-11-08T21:00:00	2	Temperatura media	18.8
185754	7	Sololá	716	San Marcos la Laguna 	11	San Marcos la laguna 	4	Abril	2023-01-04T00:00:00	2024-11-08T21:00:00	4	Temperatura máxima	19.6
185755	7	Sololá	716	San Marcos la Laguna 	11	San Marcos la laguna 	4	Abril	2023-01-04T00:00:00	2024-11-08T21:00:00	3	Temperatura mínima	18.8
185756	7	Sololá	716	San Marcos la Laguna 	11	San Marcos la laguna 	4	Abril	2023-01-04T00:00:00	2024-11-08T21:00:00	5	Humedad	83
185757	7	Sololá	716	San Marcos la Laguna 	11	San Marcos la laguna 	4	Abril	2023-01-04T00:00:00	2024-11-08T21:00:00	6	Velocidad del viento	1.6
185758	7	Sololá	716	San Marcos la Laguna 	11	San Marcos la laguna 	4	Abril	2023-01-04T00:00:00	2024-11-08T21:00:00	7	Dirección del viento	1.61
185759	7	Sololá	716	San Marcos la Laguna 	11	San Marcos la laguna 	4	Abril	2023-01-04T00:00:00	2024-11-08T21:00:00	1	Precipitación	0
185760	7	Sololá	716	San Marcos la Laguna 	11	San Marcos la laguna 	4	Abril	2023-01-04T00:00:00	2024-11-08T21:00:00	8	Radiación solar	0
185761	7	Sololá	716	San Marcos la Laguna 	11	San Marcos la laguna 	4	Abril	2023-01-04T00:00:00	2024-11-08T22:00:00	2	Temperatura media	17.8
185762	7	Sololá	716	San Marcos la Laguna 	11	San Marcos la laguna 	4	Abril	2023-01-04T00:00:00	2024-11-08T22:00:00	4	Temperatura máxima	18.7
185763	7	Sololá	716	San Marcos la Laguna 	11	San Marcos la laguna 	4	Abril	2023-01-04T00:00:00	2024-11-08T22:00:00	3	Temperatura mínima	17.7
185764	7	Sololá	716	San Marcos la Laguna 	11	San Marcos la laguna 	4	Abril	2023-01-04T00:00:00	2024-11-08T22:00:00	5	Humedad	78
185765	7	Sololá	716	San Marcos la Laguna 	11	San Marcos la laguna 	4	Abril	2023-01-04T00:00:00	2024-11-08T22:00:00	6	Velocidad del viento	4.8
185766	7	Sololá	716	San Marcos la Laguna 	11	San Marcos la laguna 	4	Abril	2023-01-04T00:00:00	2024-11-08T22:00:00	7	Dirección del viento	4.83
185767	7	Sololá	716	San Marcos la Laguna 	11	San Marcos la laguna 	4	Abril	2023-01-04T00:00:00	2024-11-08T22:00:00	1	Precipitación	0
185768	7	Sololá	716	San Marcos la Laguna 	11	San Marcos la laguna 	4	Abril	2023-01-04T00:00:00	2024-11-08T22:00:00	8	Radiación solar	0
185769	7	Sololá	716	San Marcos la Laguna 	11	San Marcos la laguna 	4	Abril	2023-01-04T00:00:00	2024-11-08T23:00:00	2	Temperatura media	18.1
185770	7	Sololá	716	San Marcos la Laguna 	11	San Marcos la laguna 	4	Abril	2023-01-04T00:00:00	2024-11-08T23:00:00	4	Temperatura máxima	18.3
185771	7	Sololá	716	San Marcos la Laguna 	11	San Marcos la laguna 	4	Abril	2023-01-04T00:00:00	2024-11-08T23:00:00	3	Temperatura mínima	17.7
185772	7	Sololá	716	San Marcos la Laguna 	11	San Marcos la laguna 	4	Abril	2023-01-04T00:00:00	2024-11-08T23:00:00	5	Humedad	69
185773	7	Sololá	716	San Marcos la Laguna 	11	San Marcos la laguna 	4	Abril	2023-01-04T00:00:00	2024-11-08T23:00:00	6	Velocidad del viento	4.8
185774	7	Sololá	716	San Marcos la Laguna 	11	San Marcos la laguna 	4	Abril	2023-01-04T00:00:00	2024-11-08T23:00:00	7	Dirección del viento	4.83
185775	7	Sololá	716	San Marcos la Laguna 	11	San Marcos la laguna 	4	Abril	2023-01-04T00:00:00	2024-11-08T23:00:00	1	Precipitación	0
185776	7	Sololá	716	San Marcos la Laguna 	11	San Marcos la laguna 	4	Abril	2023-01-04T00:00:00	2024-11-08T23:00:00	8	Radiación solar	0
185777	7	Sololá	716	San Marcos la Laguna 	11	San Marcos la laguna 	4	Abril	2023-02-04T00:00:00	2024-11-08T00:00:00	2	Temperatura media	17.5
185778	7	Sololá	716	San Marcos la Laguna 	11	San Marcos la laguna 	4	Abril	2023-02-04T00:00:00	2024-11-08T00:00:00	4	Temperatura máxima	18.2
185779	7	Sololá	716	San Marcos la Laguna 	11	San Marcos la laguna 	4	Abril	2023-02-04T00:00:00	2024-11-08T00:00:00	3	Temperatura mínima	17.5
185780	7	Sololá	716	San Marcos la Laguna 	11	San Marcos la laguna 	4	Abril	2023-02-04T00:00:00	2024-11-08T00:00:00	5	Humedad	74
185781	7	Sololá	716	San Marcos la Laguna 	11	San Marcos la laguna 	4	Abril	2023-02-04T00:00:00	2024-11-08T00:00:00	6	Velocidad del viento	8
185782	7	Sololá	716	San Marcos la Laguna 	11	San Marcos la laguna 	4	Abril	2023-02-04T00:00:00	2024-11-08T00:00:00	7	Dirección del viento	8.05
185783	7	Sololá	716	San Marcos la Laguna 	11	San Marcos la laguna 	4	Abril	2023-02-04T00:00:00	2024-11-08T00:00:00	1	Precipitación	0
185784	7	Sololá	716	San Marcos la Laguna 	11	San Marcos la laguna 	4	Abril	2023-02-04T00:00:00	2024-11-08T00:00:00	8	Radiación solar	0
185785	7	Sololá	716	San Marcos la Laguna 	11	San Marcos la laguna 	4	Abril	2023-02-04T00:00:00	2024-11-08T01:00:00	2	Temperatura media	17.4
185786	7	Sololá	716	San Marcos la Laguna 	11	San Marcos la laguna 	4	Abril	2023-02-04T00:00:00	2024-11-08T01:00:00	4	Temperatura máxima	17.6
185787	7	Sololá	716	San Marcos la Laguna 	11	San Marcos la laguna 	4	Abril	2023-02-04T00:00:00	2024-11-08T01:00:00	3	Temperatura mínima	17.2
185788	7	Sololá	716	San Marcos la Laguna 	11	San Marcos la laguna 	4	Abril	2023-02-04T00:00:00	2024-11-08T01:00:00	5	Humedad	63
185789	7	Sololá	716	San Marcos la Laguna 	11	San Marcos la laguna 	4	Abril	2023-02-04T00:00:00	2024-11-08T01:00:00	6	Velocidad del viento	6.4
185790	7	Sololá	716	San Marcos la Laguna 	11	San Marcos la laguna 	4	Abril	2023-02-04T00:00:00	2024-11-08T01:00:00	7	Dirección del viento	6.44
185791	7	Sololá	716	San Marcos la Laguna 	11	San Marcos la laguna 	4	Abril	2023-02-04T00:00:00	2024-11-08T01:00:00	1	Precipitación	0
185792	7	Sololá	716	San Marcos la Laguna 	11	San Marcos la laguna 	4	Abril	2023-02-04T00:00:00	2024-11-08T01:00:00	8	Radiación solar	0
185793	7	Sololá	716	San Marcos la Laguna 	11	San Marcos la laguna 	4	Abril	2023-02-04T00:00:00	2024-11-08T02:00:00	2	Temperatura media	16.6
185794	7	Sololá	716	San Marcos la Laguna 	11	San Marcos la laguna 	4	Abril	2023-02-04T00:00:00	2024-11-08T02:00:00	4	Temperatura máxima	17.4
185795	7	Sololá	716	San Marcos la Laguna 	11	San Marcos la laguna 	4	Abril	2023-02-04T00:00:00	2024-11-08T02:00:00	3	Temperatura mínima	16.3
185796	7	Sololá	716	San Marcos la Laguna 	11	San Marcos la laguna 	4	Abril	2023-02-04T00:00:00	2024-11-08T02:00:00	5	Humedad	62
185797	7	Sololá	716	San Marcos la Laguna 	11	San Marcos la laguna 	4	Abril	2023-02-04T00:00:00	2024-11-08T02:00:00	6	Velocidad del viento	8
185798	7	Sololá	716	San Marcos la Laguna 	11	San Marcos la laguna 	4	Abril	2023-02-04T00:00:00	2024-11-08T02:00:00	7	Dirección del viento	8.05
185799	7	Sololá	716	San Marcos la Laguna 	11	San Marcos la laguna 	4	Abril	2023-02-04T00:00:00	2024-11-08T02:00:00	1	Precipitación	0
185800	7	Sololá	716	San Marcos la Laguna 	11	San Marcos la laguna 	4	Abril	2023-02-04T00:00:00	2024-11-08T02:00:00	8	Radiación solar	0
185801	7	Sololá	716	San Marcos la Laguna 	11	San Marcos la laguna 	4	Abril	2023-02-04T00:00:00	2024-11-08T03:00:00	2	Temperatura media	16.3
185802	7	Sololá	716	San Marcos la Laguna 	11	San Marcos la laguna 	4	Abril	2023-02-04T00:00:00	2024-11-08T03:00:00	4	Temperatura máxima	16.6
185803	7	Sololá	716	San Marcos la Laguna 	11	San Marcos la laguna 	4	Abril	2023-02-04T00:00:00	2024-11-08T03:00:00	3	Temperatura mínima	15.6
185804	7	Sololá	716	San Marcos la Laguna 	11	San Marcos la laguna 	4	Abril	2023-02-04T00:00:00	2024-11-08T03:00:00	5	Humedad	64
185805	7	Sololá	716	San Marcos la Laguna 	11	San Marcos la laguna 	4	Abril	2023-02-04T00:00:00	2024-11-08T03:00:00	6	Velocidad del viento	8
185806	7	Sololá	716	San Marcos la Laguna 	11	San Marcos la laguna 	4	Abril	2023-02-04T00:00:00	2024-11-08T03:00:00	7	Dirección del viento	8.05
185807	7	Sololá	716	San Marcos la Laguna 	11	San Marcos la laguna 	4	Abril	2023-02-04T00:00:00	2024-11-08T03:00:00	1	Precipitación	0
185808	7	Sololá	716	San Marcos la Laguna 	11	San Marcos la laguna 	4	Abril	2023-02-04T00:00:00	2024-11-08T03:00:00	8	Radiación solar	0
185809	7	Sololá	716	San Marcos la Laguna 	11	San Marcos la laguna 	4	Abril	2023-02-04T00:00:00	2024-11-08T04:00:00	2	Temperatura media	15.3
185810	7	Sololá	716	San Marcos la Laguna 	11	San Marcos la laguna 	4	Abril	2023-02-04T00:00:00	2024-11-08T04:00:00	4	Temperatura máxima	16.3
185811	7	Sololá	716	San Marcos la Laguna 	11	San Marcos la laguna 	4	Abril	2023-02-04T00:00:00	2024-11-08T04:00:00	3	Temperatura mínima	14.9
185812	7	Sololá	716	San Marcos la Laguna 	11	San Marcos la laguna 	4	Abril	2023-02-04T00:00:00	2024-11-08T04:00:00	5	Humedad	63
185813	7	Sololá	716	San Marcos la Laguna 	11	San Marcos la laguna 	4	Abril	2023-02-04T00:00:00	2024-11-08T04:00:00	6	Velocidad del viento	9.7
185814	7	Sololá	716	San Marcos la Laguna 	11	San Marcos la laguna 	4	Abril	2023-02-04T00:00:00	2024-11-08T04:00:00	7	Dirección del viento	9.66
185815	7	Sololá	716	San Marcos la Laguna 	11	San Marcos la laguna 	4	Abril	2023-02-04T00:00:00	2024-11-08T04:00:00	1	Precipitación	0
185816	7	Sololá	716	San Marcos la Laguna 	11	San Marcos la laguna 	4	Abril	2023-02-04T00:00:00	2024-11-08T04:00:00	8	Radiación solar	0
185817	7	Sololá	716	San Marcos la Laguna 	11	San Marcos la laguna 	4	Abril	2023-02-04T00:00:00	2024-11-08T05:00:00	2	Temperatura media	14.9
185818	7	Sololá	716	San Marcos la Laguna 	11	San Marcos la laguna 	4	Abril	2023-02-04T00:00:00	2024-11-08T05:00:00	4	Temperatura máxima	15.6
185819	7	Sololá	716	San Marcos la Laguna 	11	San Marcos la laguna 	4	Abril	2023-02-04T00:00:00	2024-11-08T05:00:00	3	Temperatura mínima	14.5
185820	7	Sololá	716	San Marcos la Laguna 	11	San Marcos la laguna 	4	Abril	2023-02-04T00:00:00	2024-11-08T05:00:00	5	Humedad	60
185821	7	Sololá	716	San Marcos la Laguna 	11	San Marcos la laguna 	4	Abril	2023-02-04T00:00:00	2024-11-08T05:00:00	6	Velocidad del viento	9.7
185822	7	Sololá	716	San Marcos la Laguna 	11	San Marcos la laguna 	4	Abril	2023-02-04T00:00:00	2024-11-08T05:00:00	7	Dirección del viento	9.66
185823	7	Sololá	716	San Marcos la Laguna 	11	San Marcos la laguna 	4	Abril	2023-02-04T00:00:00	2024-11-08T05:00:00	1	Precipitación	0
185824	7	Sololá	716	San Marcos la Laguna 	11	San Marcos la laguna 	4	Abril	2023-02-04T00:00:00	2024-11-08T05:00:00	8	Radiación solar	0
185825	7	Sololá	716	San Marcos la Laguna 	11	San Marcos la laguna 	4	Abril	2023-02-04T00:00:00	2024-11-08T06:00:00	2	Temperatura media	13.7
185826	7	Sololá	716	San Marcos la Laguna 	11	San Marcos la laguna 	4	Abril	2023-02-04T00:00:00	2024-11-08T06:00:00	4	Temperatura máxima	15
185827	7	Sololá	716	San Marcos la Laguna 	11	San Marcos la laguna 	4	Abril	2023-02-04T00:00:00	2024-11-08T06:00:00	3	Temperatura mínima	13.7
185828	7	Sololá	716	San Marcos la Laguna 	11	San Marcos la laguna 	4	Abril	2023-02-04T00:00:00	2024-11-08T06:00:00	5	Humedad	61
185829	7	Sololá	716	San Marcos la Laguna 	11	San Marcos la laguna 	4	Abril	2023-02-04T00:00:00	2024-11-08T06:00:00	6	Velocidad del viento	8
185830	7	Sololá	716	San Marcos la Laguna 	11	San Marcos la laguna 	4	Abril	2023-02-04T00:00:00	2024-11-08T06:00:00	7	Dirección del viento	8.05
185831	7	Sololá	716	San Marcos la Laguna 	11	San Marcos la laguna 	4	Abril	2023-02-04T00:00:00	2024-11-08T06:00:00	1	Precipitación	0
185832	7	Sololá	716	San Marcos la Laguna 	11	San Marcos la laguna 	4	Abril	2023-02-04T00:00:00	2024-11-08T06:00:00	8	Radiación solar	0
185833	7	Sololá	716	San Marcos la Laguna 	11	San Marcos la laguna 	4	Abril	2023-02-04T00:00:00	2024-11-08T07:00:00	2	Temperatura media	14.1
185834	7	Sololá	716	San Marcos la Laguna 	11	San Marcos la laguna 	4	Abril	2023-02-04T00:00:00	2024-11-08T07:00:00	4	Temperatura máxima	14.1
185835	7	Sololá	716	San Marcos la Laguna 	11	San Marcos la laguna 	4	Abril	2023-02-04T00:00:00	2024-11-08T07:00:00	3	Temperatura mínima	13.6
185836	7	Sololá	716	San Marcos la Laguna 	11	San Marcos la laguna 	4	Abril	2023-02-04T00:00:00	2024-11-08T07:00:00	5	Humedad	65
185837	7	Sololá	716	San Marcos la Laguna 	11	San Marcos la laguna 	4	Abril	2023-02-04T00:00:00	2024-11-08T07:00:00	6	Velocidad del viento	8
185838	7	Sololá	716	San Marcos la Laguna 	11	San Marcos la laguna 	4	Abril	2023-02-04T00:00:00	2024-11-08T07:00:00	7	Dirección del viento	8.05
185839	7	Sololá	716	San Marcos la Laguna 	11	San Marcos la laguna 	4	Abril	2023-02-04T00:00:00	2024-11-08T07:00:00	1	Precipitación	0
185840	7	Sololá	716	San Marcos la Laguna 	11	San Marcos la laguna 	4	Abril	2023-02-04T00:00:00	2024-11-08T07:00:00	8	Radiación solar	43
185841	7	Sololá	716	San Marcos la Laguna 	11	San Marcos la laguna 	4	Abril	2023-02-04T00:00:00	2024-11-08T08:00:00	2	Temperatura media	18.6
185842	7	Sololá	716	San Marcos la Laguna 	11	San Marcos la laguna 	4	Abril	2023-02-04T00:00:00	2024-11-08T08:00:00	4	Temperatura máxima	18.6
185843	7	Sololá	716	San Marcos la Laguna 	11	San Marcos la laguna 	4	Abril	2023-02-04T00:00:00	2024-11-08T08:00:00	3	Temperatura mínima	14.1
185844	7	Sololá	716	San Marcos la Laguna 	11	San Marcos la laguna 	4	Abril	2023-02-04T00:00:00	2024-11-08T08:00:00	5	Humedad	59
185845	7	Sololá	716	San Marcos la Laguna 	11	San Marcos la laguna 	4	Abril	2023-02-04T00:00:00	2024-11-08T08:00:00	6	Velocidad del viento	3.2
185846	7	Sololá	716	San Marcos la Laguna 	11	San Marcos la laguna 	4	Abril	2023-02-04T00:00:00	2024-11-08T08:00:00	7	Dirección del viento	3.22
185847	7	Sololá	716	San Marcos la Laguna 	11	San Marcos la laguna 	4	Abril	2023-02-04T00:00:00	2024-11-08T08:00:00	1	Precipitación	0
185848	7	Sololá	716	San Marcos la Laguna 	11	San Marcos la laguna 	4	Abril	2023-02-04T00:00:00	2024-11-08T08:00:00	8	Radiación solar	210
185849	7	Sololá	716	San Marcos la Laguna 	11	San Marcos la laguna 	4	Abril	2023-02-04T00:00:00	2024-11-08T09:00:00	2	Temperatura media	20.8
185850	7	Sololá	716	San Marcos la Laguna 	11	San Marcos la laguna 	4	Abril	2023-02-04T00:00:00	2024-11-08T09:00:00	4	Temperatura máxima	20.8
185851	7	Sololá	716	San Marcos la Laguna 	11	San Marcos la laguna 	4	Abril	2023-02-04T00:00:00	2024-11-08T09:00:00	3	Temperatura mínima	18.6
185852	7	Sololá	716	San Marcos la Laguna 	11	San Marcos la laguna 	4	Abril	2023-02-04T00:00:00	2024-11-08T09:00:00	5	Humedad	58
185853	7	Sololá	716	San Marcos la Laguna 	11	San Marcos la laguna 	4	Abril	2023-02-04T00:00:00	2024-11-08T09:00:00	6	Velocidad del viento	4.8
185854	7	Sololá	716	San Marcos la Laguna 	11	San Marcos la laguna 	4	Abril	2023-02-04T00:00:00	2024-11-08T09:00:00	7	Dirección del viento	4.83
185855	7	Sololá	716	San Marcos la Laguna 	11	San Marcos la laguna 	4	Abril	2023-02-04T00:00:00	2024-11-08T09:00:00	1	Precipitación	0
185856	7	Sololá	716	San Marcos la Laguna 	11	San Marcos la laguna 	4	Abril	2023-02-04T00:00:00	2024-11-08T09:00:00	8	Radiación solar	486
185857	7	Sololá	716	San Marcos la Laguna 	11	San Marcos la laguna 	4	Abril	2023-02-04T00:00:00	2024-11-08T10:00:00	2	Temperatura media	22.6
185858	7	Sololá	716	San Marcos la Laguna 	11	San Marcos la laguna 	4	Abril	2023-02-04T00:00:00	2024-11-08T10:00:00	4	Temperatura máxima	22.6
185859	7	Sololá	716	San Marcos la Laguna 	11	San Marcos la laguna 	4	Abril	2023-02-04T00:00:00	2024-11-08T10:00:00	3	Temperatura mínima	20.8
185860	7	Sololá	716	San Marcos la Laguna 	11	San Marcos la laguna 	4	Abril	2023-02-04T00:00:00	2024-11-08T10:00:00	5	Humedad	45
185861	7	Sololá	716	San Marcos la Laguna 	11	San Marcos la laguna 	4	Abril	2023-02-04T00:00:00	2024-11-08T10:00:00	6	Velocidad del viento	3.2
185862	7	Sololá	716	San Marcos la Laguna 	11	San Marcos la laguna 	4	Abril	2023-02-04T00:00:00	2024-11-08T10:00:00	7	Dirección del viento	3.22
185863	7	Sololá	716	San Marcos la Laguna 	11	San Marcos la laguna 	4	Abril	2023-02-04T00:00:00	2024-11-08T10:00:00	1	Precipitación	0
185864	7	Sololá	716	San Marcos la Laguna 	11	San Marcos la laguna 	4	Abril	2023-02-04T00:00:00	2024-11-08T10:00:00	8	Radiación solar	687
185865	7	Sololá	716	San Marcos la Laguna 	11	San Marcos la laguna 	4	Abril	2023-02-04T00:00:00	2024-11-08T11:00:00	2	Temperatura media	22.4
185866	7	Sololá	716	San Marcos la Laguna 	11	San Marcos la laguna 	4	Abril	2023-02-04T00:00:00	2024-11-08T11:00:00	4	Temperatura máxima	23.6
185867	7	Sololá	716	San Marcos la Laguna 	11	San Marcos la laguna 	4	Abril	2023-02-04T00:00:00	2024-11-08T11:00:00	3	Temperatura mínima	21.9
185868	7	Sololá	716	San Marcos la Laguna 	11	San Marcos la laguna 	4	Abril	2023-02-04T00:00:00	2024-11-08T11:00:00	5	Humedad	50
185869	7	Sololá	716	San Marcos la Laguna 	11	San Marcos la laguna 	4	Abril	2023-02-04T00:00:00	2024-11-08T11:00:00	6	Velocidad del viento	6.4
185870	7	Sololá	716	San Marcos la Laguna 	11	San Marcos la laguna 	4	Abril	2023-02-04T00:00:00	2024-11-08T11:00:00	7	Dirección del viento	6.44
185871	7	Sololá	716	San Marcos la Laguna 	11	San Marcos la laguna 	4	Abril	2023-02-04T00:00:00	2024-11-08T11:00:00	1	Precipitación	0
185872	7	Sololá	716	San Marcos la Laguna 	11	San Marcos la laguna 	4	Abril	2023-02-04T00:00:00	2024-11-08T11:00:00	8	Radiación solar	828
185873	7	Sololá	716	San Marcos la Laguna 	11	San Marcos la laguna 	4	Abril	2023-02-04T00:00:00	2024-11-08T12:00:00	2	Temperatura media	23.7
185874	7	Sololá	716	San Marcos la Laguna 	11	San Marcos la laguna 	4	Abril	2023-02-04T00:00:00	2024-11-08T12:00:00	4	Temperatura máxima	23.8
185875	7	Sololá	716	San Marcos la Laguna 	11	San Marcos la laguna 	4	Abril	2023-02-04T00:00:00	2024-11-08T12:00:00	3	Temperatura mínima	22.5
185876	7	Sololá	716	San Marcos la Laguna 	11	San Marcos la laguna 	4	Abril	2023-02-04T00:00:00	2024-11-08T12:00:00	5	Humedad	57
185877	7	Sololá	716	San Marcos la Laguna 	11	San Marcos la laguna 	4	Abril	2023-02-04T00:00:00	2024-11-08T12:00:00	6	Velocidad del viento	9.7
185878	7	Sololá	716	San Marcos la Laguna 	11	San Marcos la laguna 	4	Abril	2023-02-04T00:00:00	2024-11-08T12:00:00	7	Dirección del viento	9.66
185879	7	Sololá	716	San Marcos la Laguna 	11	San Marcos la laguna 	4	Abril	2023-02-04T00:00:00	2024-11-08T12:00:00	1	Precipitación	0
185880	7	Sololá	716	San Marcos la Laguna 	11	San Marcos la laguna 	4	Abril	2023-02-04T00:00:00	2024-11-08T12:00:00	8	Radiación solar	914
185881	7	Sololá	716	San Marcos la Laguna 	11	San Marcos la laguna 	4	Abril	2023-02-04T00:00:00	2024-11-08T13:00:00	2	Temperatura media	23.8
185882	7	Sololá	716	San Marcos la Laguna 	11	San Marcos la laguna 	4	Abril	2023-02-04T00:00:00	2024-11-08T13:00:00	4	Temperatura máxima	24.2
185883	7	Sololá	716	San Marcos la Laguna 	11	San Marcos la laguna 	4	Abril	2023-02-04T00:00:00	2024-11-08T13:00:00	3	Temperatura mínima	23.6
185884	7	Sololá	716	San Marcos la Laguna 	11	San Marcos la laguna 	4	Abril	2023-02-04T00:00:00	2024-11-08T13:00:00	5	Humedad	66
185885	7	Sololá	716	San Marcos la Laguna 	11	San Marcos la laguna 	4	Abril	2023-02-04T00:00:00	2024-11-08T13:00:00	6	Velocidad del viento	9.7
185886	7	Sololá	716	San Marcos la Laguna 	11	San Marcos la laguna 	4	Abril	2023-02-04T00:00:00	2024-11-08T13:00:00	7	Dirección del viento	9.66
185887	7	Sololá	716	San Marcos la Laguna 	11	San Marcos la laguna 	4	Abril	2023-02-04T00:00:00	2024-11-08T13:00:00	1	Precipitación	0
185888	7	Sololá	716	San Marcos la Laguna 	11	San Marcos la laguna 	4	Abril	2023-02-04T00:00:00	2024-11-08T13:00:00	8	Radiación solar	923
185889	7	Sololá	716	San Marcos la Laguna 	11	San Marcos la laguna 	4	Abril	2023-02-04T00:00:00	2024-11-08T14:00:00	2	Temperatura media	24.1
185890	7	Sololá	716	San Marcos la Laguna 	11	San Marcos la laguna 	4	Abril	2023-02-04T00:00:00	2024-11-08T14:00:00	4	Temperatura máxima	24.2
185891	7	Sololá	716	San Marcos la Laguna 	11	San Marcos la laguna 	4	Abril	2023-02-04T00:00:00	2024-11-08T14:00:00	3	Temperatura mínima	23.8
185892	7	Sololá	716	San Marcos la Laguna 	11	San Marcos la laguna 	4	Abril	2023-02-04T00:00:00	2024-11-08T14:00:00	5	Humedad	60
185893	7	Sololá	716	San Marcos la Laguna 	11	San Marcos la laguna 	4	Abril	2023-02-04T00:00:00	2024-11-08T14:00:00	6	Velocidad del viento	9.7
185894	7	Sololá	716	San Marcos la Laguna 	11	San Marcos la laguna 	4	Abril	2023-02-04T00:00:00	2024-11-08T14:00:00	7	Dirección del viento	9.66
185895	7	Sololá	716	San Marcos la Laguna 	11	San Marcos la laguna 	4	Abril	2023-02-04T00:00:00	2024-11-08T14:00:00	1	Precipitación	0
185896	7	Sololá	716	San Marcos la Laguna 	11	San Marcos la laguna 	4	Abril	2023-02-04T00:00:00	2024-11-08T14:00:00	8	Radiación solar	856
185897	7	Sololá	716	San Marcos la Laguna 	11	San Marcos la laguna 	4	Abril	2023-02-04T00:00:00	2024-11-08T15:00:00	2	Temperatura media	23.8
185898	7	Sololá	716	San Marcos la Laguna 	11	San Marcos la laguna 	4	Abril	2023-02-04T00:00:00	2024-11-08T15:00:00	4	Temperatura máxima	24.3
185899	7	Sololá	716	San Marcos la Laguna 	11	San Marcos la laguna 	4	Abril	2023-02-04T00:00:00	2024-11-08T15:00:00	3	Temperatura mínima	23.8
185900	7	Sololá	716	San Marcos la Laguna 	11	San Marcos la laguna 	4	Abril	2023-02-04T00:00:00	2024-11-08T15:00:00	5	Humedad	60
185901	7	Sololá	716	San Marcos la Laguna 	11	San Marcos la laguna 	4	Abril	2023-02-04T00:00:00	2024-11-08T15:00:00	6	Velocidad del viento	9.7
185902	7	Sololá	716	San Marcos la Laguna 	11	San Marcos la laguna 	4	Abril	2023-02-04T00:00:00	2024-11-08T15:00:00	7	Dirección del viento	9.66
185903	7	Sololá	716	San Marcos la Laguna 	11	San Marcos la laguna 	4	Abril	2023-02-04T00:00:00	2024-11-08T15:00:00	1	Precipitación	0
185904	7	Sololá	716	San Marcos la Laguna 	11	San Marcos la laguna 	4	Abril	2023-02-04T00:00:00	2024-11-08T15:00:00	8	Radiación solar	728
185905	7	Sololá	716	San Marcos la Laguna 	11	San Marcos la laguna 	4	Abril	2023-02-04T00:00:00	2024-11-08T16:00:00	2	Temperatura media	23.8
185906	7	Sololá	716	San Marcos la Laguna 	11	San Marcos la laguna 	4	Abril	2023-02-04T00:00:00	2024-11-08T16:00:00	4	Temperatura máxima	24.2
185907	7	Sololá	716	San Marcos la Laguna 	11	San Marcos la laguna 	4	Abril	2023-02-04T00:00:00	2024-11-08T16:00:00	3	Temperatura mínima	23.6
185908	7	Sololá	716	San Marcos la Laguna 	11	San Marcos la laguna 	4	Abril	2023-02-04T00:00:00	2024-11-08T16:00:00	5	Humedad	62
185909	7	Sololá	716	San Marcos la Laguna 	11	San Marcos la laguna 	4	Abril	2023-02-04T00:00:00	2024-11-08T16:00:00	6	Velocidad del viento	8
185910	7	Sololá	716	San Marcos la Laguna 	11	San Marcos la laguna 	4	Abril	2023-02-04T00:00:00	2024-11-08T16:00:00	7	Dirección del viento	8.05
185911	7	Sololá	716	San Marcos la Laguna 	11	San Marcos la laguna 	4	Abril	2023-02-04T00:00:00	2024-11-08T16:00:00	1	Precipitación	0
185912	7	Sololá	716	San Marcos la Laguna 	11	San Marcos la laguna 	4	Abril	2023-02-04T00:00:00	2024-11-08T16:00:00	8	Radiación solar	541
185913	7	Sololá	716	San Marcos la Laguna 	11	San Marcos la laguna 	4	Abril	2023-02-04T00:00:00	2024-11-08T17:00:00	2	Temperatura media	22.3
185914	7	Sololá	716	San Marcos la Laguna 	11	San Marcos la laguna 	4	Abril	2023-02-04T00:00:00	2024-11-08T17:00:00	4	Temperatura máxima	24.2
185915	7	Sololá	716	San Marcos la Laguna 	11	San Marcos la laguna 	4	Abril	2023-02-04T00:00:00	2024-11-08T17:00:00	3	Temperatura mínima	22.3
185916	7	Sololá	716	San Marcos la Laguna 	11	San Marcos la laguna 	4	Abril	2023-02-04T00:00:00	2024-11-08T17:00:00	5	Humedad	74
185917	7	Sololá	716	San Marcos la Laguna 	11	San Marcos la laguna 	4	Abril	2023-02-04T00:00:00	2024-11-08T17:00:00	6	Velocidad del viento	6.4
185918	7	Sololá	716	San Marcos la Laguna 	11	San Marcos la laguna 	4	Abril	2023-02-04T00:00:00	2024-11-08T17:00:00	7	Dirección del viento	6.44
185919	7	Sololá	716	San Marcos la Laguna 	11	San Marcos la laguna 	4	Abril	2023-02-04T00:00:00	2024-11-08T17:00:00	1	Precipitación	0
185920	7	Sololá	716	San Marcos la Laguna 	11	San Marcos la laguna 	4	Abril	2023-02-04T00:00:00	2024-11-08T17:00:00	8	Radiación solar	310
185921	7	Sololá	716	San Marcos la Laguna 	11	San Marcos la laguna 	4	Abril	2023-02-04T00:00:00	2024-11-08T18:00:00	2	Temperatura media	21.2
185922	7	Sololá	716	San Marcos la Laguna 	11	San Marcos la laguna 	4	Abril	2023-02-04T00:00:00	2024-11-08T18:00:00	4	Temperatura máxima	22.3
185923	7	Sololá	716	San Marcos la Laguna 	11	San Marcos la laguna 	4	Abril	2023-02-04T00:00:00	2024-11-08T18:00:00	3	Temperatura mínima	21.2
185924	7	Sololá	716	San Marcos la Laguna 	11	San Marcos la laguna 	4	Abril	2023-02-04T00:00:00	2024-11-08T18:00:00	5	Humedad	77
185925	7	Sololá	716	San Marcos la Laguna 	11	San Marcos la laguna 	4	Abril	2023-02-04T00:00:00	2024-11-08T18:00:00	6	Velocidad del viento	8
185926	7	Sololá	716	San Marcos la Laguna 	11	San Marcos la laguna 	4	Abril	2023-02-04T00:00:00	2024-11-08T18:00:00	7	Dirección del viento	8.05
185927	7	Sololá	716	San Marcos la Laguna 	11	San Marcos la laguna 	4	Abril	2023-02-04T00:00:00	2024-11-08T18:00:00	1	Precipitación	0
185928	7	Sololá	716	San Marcos la Laguna 	11	San Marcos la laguna 	4	Abril	2023-02-04T00:00:00	2024-11-08T18:00:00	8	Radiación solar	65
185929	7	Sololá	716	San Marcos la Laguna 	11	San Marcos la laguna 	4	Abril	2023-02-04T00:00:00	2024-11-08T19:00:00	2	Temperatura media	20.3
185930	7	Sololá	716	San Marcos la Laguna 	11	San Marcos la laguna 	4	Abril	2023-02-04T00:00:00	2024-11-08T19:00:00	4	Temperatura máxima	21.2
185931	7	Sololá	716	San Marcos la Laguna 	11	San Marcos la laguna 	4	Abril	2023-02-04T00:00:00	2024-11-08T19:00:00	3	Temperatura mínima	20.3
185932	7	Sololá	716	San Marcos la Laguna 	11	San Marcos la laguna 	4	Abril	2023-02-04T00:00:00	2024-11-08T19:00:00	5	Humedad	79
185933	7	Sololá	716	San Marcos la Laguna 	11	San Marcos la laguna 	4	Abril	2023-02-04T00:00:00	2024-11-08T19:00:00	6	Velocidad del viento	1.6
185934	7	Sololá	716	San Marcos la Laguna 	11	San Marcos la laguna 	4	Abril	2023-02-04T00:00:00	2024-11-08T19:00:00	7	Dirección del viento	1.61
185935	7	Sololá	716	San Marcos la Laguna 	11	San Marcos la laguna 	4	Abril	2023-02-04T00:00:00	2024-11-08T19:00:00	1	Precipitación	0
185936	7	Sololá	716	San Marcos la Laguna 	11	San Marcos la laguna 	4	Abril	2023-02-04T00:00:00	2024-11-08T19:00:00	8	Radiación solar	0
185937	7	Sololá	716	San Marcos la Laguna 	11	San Marcos la laguna 	4	Abril	2023-02-04T00:00:00	2024-11-08T20:00:00	2	Temperatura media	19.6
185938	7	Sololá	716	San Marcos la Laguna 	11	San Marcos la laguna 	4	Abril	2023-02-04T00:00:00	2024-11-08T20:00:00	4	Temperatura máxima	20.3
185939	7	Sololá	716	San Marcos la Laguna 	11	San Marcos la laguna 	4	Abril	2023-02-04T00:00:00	2024-11-08T20:00:00	3	Temperatura mínima	19.6
185940	7	Sololá	716	San Marcos la Laguna 	11	San Marcos la laguna 	4	Abril	2023-02-04T00:00:00	2024-11-08T20:00:00	5	Humedad	78
185941	7	Sololá	716	San Marcos la Laguna 	11	San Marcos la laguna 	4	Abril	2023-02-04T00:00:00	2024-11-08T20:00:00	6	Velocidad del viento	1.6
185942	7	Sololá	716	San Marcos la Laguna 	11	San Marcos la laguna 	4	Abril	2023-02-04T00:00:00	2024-11-08T20:00:00	7	Dirección del viento	1.61
185943	7	Sololá	716	San Marcos la Laguna 	11	San Marcos la laguna 	4	Abril	2023-02-04T00:00:00	2024-11-08T20:00:00	1	Precipitación	0
185944	7	Sololá	716	San Marcos la Laguna 	11	San Marcos la laguna 	4	Abril	2023-02-04T00:00:00	2024-11-08T20:00:00	8	Radiación solar	0
185945	7	Sololá	716	San Marcos la Laguna 	11	San Marcos la laguna 	4	Abril	2023-02-04T00:00:00	2024-11-08T21:00:00	2	Temperatura media	18.6
185946	7	Sololá	716	San Marcos la Laguna 	11	San Marcos la laguna 	4	Abril	2023-02-04T00:00:00	2024-11-08T21:00:00	4	Temperatura máxima	19.7
185947	7	Sololá	716	San Marcos la Laguna 	11	San Marcos la laguna 	4	Abril	2023-02-04T00:00:00	2024-11-08T21:00:00	3	Temperatura mínima	18.6
185948	7	Sololá	716	San Marcos la Laguna 	11	San Marcos la laguna 	4	Abril	2023-02-04T00:00:00	2024-11-08T21:00:00	5	Humedad	77
185949	7	Sololá	716	San Marcos la Laguna 	11	San Marcos la laguna 	4	Abril	2023-02-04T00:00:00	2024-11-08T21:00:00	6	Velocidad del viento	3.2
185950	7	Sololá	716	San Marcos la Laguna 	11	San Marcos la laguna 	4	Abril	2023-02-04T00:00:00	2024-11-08T21:00:00	7	Dirección del viento	3.22
185951	7	Sololá	716	San Marcos la Laguna 	11	San Marcos la laguna 	4	Abril	2023-02-04T00:00:00	2024-11-08T21:00:00	1	Precipitación	0
185952	7	Sololá	716	San Marcos la Laguna 	11	San Marcos la laguna 	4	Abril	2023-02-04T00:00:00	2024-11-08T21:00:00	8	Radiación solar	0
185953	7	Sololá	716	San Marcos la Laguna 	11	San Marcos la laguna 	4	Abril	2023-02-04T00:00:00	2024-11-08T22:00:00	2	Temperatura media	18.8
185954	7	Sololá	716	San Marcos la Laguna 	11	San Marcos la laguna 	4	Abril	2023-02-04T00:00:00	2024-11-08T22:00:00	4	Temperatura máxima	19.2
185955	7	Sololá	716	San Marcos la Laguna 	11	San Marcos la laguna 	4	Abril	2023-02-04T00:00:00	2024-11-08T22:00:00	3	Temperatura mínima	18
185956	7	Sololá	716	San Marcos la Laguna 	11	San Marcos la laguna 	4	Abril	2023-02-04T00:00:00	2024-11-08T22:00:00	5	Humedad	71
185957	7	Sololá	716	San Marcos la Laguna 	11	San Marcos la laguna 	4	Abril	2023-02-04T00:00:00	2024-11-08T22:00:00	6	Velocidad del viento	6.4
185958	7	Sololá	716	San Marcos la Laguna 	11	San Marcos la laguna 	4	Abril	2023-02-04T00:00:00	2024-11-08T22:00:00	7	Dirección del viento	6.44
185959	7	Sololá	716	San Marcos la Laguna 	11	San Marcos la laguna 	4	Abril	2023-02-04T00:00:00	2024-11-08T22:00:00	1	Precipitación	0
185960	7	Sololá	716	San Marcos la Laguna 	11	San Marcos la laguna 	4	Abril	2023-02-04T00:00:00	2024-11-08T22:00:00	8	Radiación solar	0
185961	7	Sololá	716	San Marcos la Laguna 	11	San Marcos la laguna 	4	Abril	2023-02-04T00:00:00	2024-11-08T23:00:00	2	Temperatura media	18.3
185962	7	Sololá	716	San Marcos la Laguna 	11	San Marcos la laguna 	4	Abril	2023-02-04T00:00:00	2024-11-08T23:00:00	4	Temperatura máxima	18.8
185963	7	Sololá	716	San Marcos la Laguna 	11	San Marcos la laguna 	4	Abril	2023-02-04T00:00:00	2024-11-08T23:00:00	3	Temperatura mínima	18.3
185964	7	Sololá	716	San Marcos la Laguna 	11	San Marcos la laguna 	4	Abril	2023-02-04T00:00:00	2024-11-08T23:00:00	5	Humedad	69
185965	7	Sololá	716	San Marcos la Laguna 	11	San Marcos la laguna 	4	Abril	2023-02-04T00:00:00	2024-11-08T23:00:00	6	Velocidad del viento	8
185966	7	Sololá	716	San Marcos la Laguna 	11	San Marcos la laguna 	4	Abril	2023-02-04T00:00:00	2024-11-08T23:00:00	7	Dirección del viento	8.05
185967	7	Sololá	716	San Marcos la Laguna 	11	San Marcos la laguna 	4	Abril	2023-02-04T00:00:00	2024-11-08T23:00:00	1	Precipitación	0
185968	7	Sololá	716	San Marcos la Laguna 	11	San Marcos la laguna 	4	Abril	2023-02-04T00:00:00	2024-11-08T23:00:00	8	Radiación solar	0
185969	7	Sololá	716	San Marcos la Laguna 	11	San Marcos la laguna 	4	Abril	2023-03-04T00:00:00	2024-11-08T00:00:00	2	Temperatura media	17.2
185970	7	Sololá	716	San Marcos la Laguna 	11	San Marcos la laguna 	4	Abril	2023-03-04T00:00:00	2024-11-08T00:00:00	4	Temperatura máxima	18.3
185971	7	Sololá	716	San Marcos la Laguna 	11	San Marcos la laguna 	4	Abril	2023-03-04T00:00:00	2024-11-08T00:00:00	3	Temperatura mínima	17.2
185972	7	Sololá	716	San Marcos la Laguna 	11	San Marcos la laguna 	4	Abril	2023-03-04T00:00:00	2024-11-08T00:00:00	5	Humedad	72
185973	7	Sololá	716	San Marcos la Laguna 	11	San Marcos la laguna 	4	Abril	2023-03-04T00:00:00	2024-11-08T00:00:00	6	Velocidad del viento	8
185974	7	Sololá	716	San Marcos la Laguna 	11	San Marcos la laguna 	4	Abril	2023-03-04T00:00:00	2024-11-08T00:00:00	7	Dirección del viento	8.05
185975	7	Sololá	716	San Marcos la Laguna 	11	San Marcos la laguna 	4	Abril	2023-03-04T00:00:00	2024-11-08T00:00:00	1	Precipitación	0
185976	7	Sololá	716	San Marcos la Laguna 	11	San Marcos la laguna 	4	Abril	2023-03-04T00:00:00	2024-11-08T00:00:00	8	Radiación solar	0
185977	7	Sololá	716	San Marcos la Laguna 	11	San Marcos la laguna 	4	Abril	2023-03-04T00:00:00	2024-11-08T01:00:00	2	Temperatura media	16.7
185978	7	Sololá	716	San Marcos la Laguna 	11	San Marcos la laguna 	4	Abril	2023-03-04T00:00:00	2024-11-08T01:00:00	4	Temperatura máxima	17.3
185979	7	Sololá	716	San Marcos la Laguna 	11	San Marcos la laguna 	4	Abril	2023-03-04T00:00:00	2024-11-08T01:00:00	3	Temperatura mínima	16.6
185980	7	Sololá	716	San Marcos la Laguna 	11	San Marcos la laguna 	4	Abril	2023-03-04T00:00:00	2024-11-08T01:00:00	5	Humedad	72
185981	7	Sololá	716	San Marcos la Laguna 	11	San Marcos la laguna 	4	Abril	2023-03-04T00:00:00	2024-11-08T01:00:00	6	Velocidad del viento	8
185982	7	Sololá	716	San Marcos la Laguna 	11	San Marcos la laguna 	4	Abril	2023-03-04T00:00:00	2024-11-08T01:00:00	7	Dirección del viento	8.05
185983	7	Sololá	716	San Marcos la Laguna 	11	San Marcos la laguna 	4	Abril	2023-03-04T00:00:00	2024-11-08T01:00:00	1	Precipitación	0
185984	7	Sololá	716	San Marcos la Laguna 	11	San Marcos la laguna 	4	Abril	2023-03-04T00:00:00	2024-11-08T01:00:00	8	Radiación solar	0
185985	7	Sololá	716	San Marcos la Laguna 	11	San Marcos la laguna 	4	Abril	2023-03-04T00:00:00	2024-11-08T02:00:00	2	Temperatura media	15.5
185986	7	Sololá	716	San Marcos la Laguna 	11	San Marcos la laguna 	4	Abril	2023-03-04T00:00:00	2024-11-08T02:00:00	4	Temperatura máxima	16.7
185987	7	Sololá	716	San Marcos la Laguna 	11	San Marcos la laguna 	4	Abril	2023-03-04T00:00:00	2024-11-08T02:00:00	3	Temperatura mínima	15.5
185988	7	Sololá	716	San Marcos la Laguna 	11	San Marcos la laguna 	4	Abril	2023-03-04T00:00:00	2024-11-08T02:00:00	5	Humedad	72
185989	7	Sololá	716	San Marcos la Laguna 	11	San Marcos la laguna 	4	Abril	2023-03-04T00:00:00	2024-11-08T02:00:00	6	Velocidad del viento	8
185990	7	Sololá	716	San Marcos la Laguna 	11	San Marcos la laguna 	4	Abril	2023-03-04T00:00:00	2024-11-08T02:00:00	7	Dirección del viento	8.05
185991	7	Sololá	716	San Marcos la Laguna 	11	San Marcos la laguna 	4	Abril	2023-03-04T00:00:00	2024-11-08T02:00:00	1	Precipitación	0
185992	7	Sololá	716	San Marcos la Laguna 	11	San Marcos la laguna 	4	Abril	2023-03-04T00:00:00	2024-11-08T02:00:00	8	Radiación solar	0
185993	7	Sololá	716	San Marcos la Laguna 	11	San Marcos la laguna 	4	Abril	2023-03-04T00:00:00	2024-11-08T03:00:00	2	Temperatura media	14.7
185994	7	Sololá	716	San Marcos la Laguna 	11	San Marcos la laguna 	4	Abril	2023-03-04T00:00:00	2024-11-08T03:00:00	4	Temperatura máxima	15.5
185995	7	Sololá	716	San Marcos la Laguna 	11	San Marcos la laguna 	4	Abril	2023-03-04T00:00:00	2024-11-08T03:00:00	3	Temperatura mínima	14.7
185996	7	Sololá	716	San Marcos la Laguna 	11	San Marcos la laguna 	4	Abril	2023-03-04T00:00:00	2024-11-08T03:00:00	5	Humedad	73
185997	7	Sololá	716	San Marcos la Laguna 	11	San Marcos la laguna 	4	Abril	2023-03-04T00:00:00	2024-11-08T03:00:00	6	Velocidad del viento	8
185998	7	Sololá	716	San Marcos la Laguna 	11	San Marcos la laguna 	4	Abril	2023-03-04T00:00:00	2024-11-08T03:00:00	7	Dirección del viento	8.05
185999	7	Sololá	716	San Marcos la Laguna 	11	San Marcos la laguna 	4	Abril	2023-03-04T00:00:00	2024-11-08T03:00:00	1	Precipitación	0
186000	7	Sololá	716	San Marcos la Laguna 	11	San Marcos la laguna 	4	Abril	2023-03-04T00:00:00	2024-11-08T03:00:00	8	Radiación solar	0
186001	7	Sololá	716	San Marcos la Laguna 	11	San Marcos la laguna 	4	Abril	2023-03-04T00:00:00	2024-11-08T04:00:00	2	Temperatura media	14.4
186002	7	Sololá	716	San Marcos la Laguna 	11	San Marcos la laguna 	4	Abril	2023-03-04T00:00:00	2024-11-08T04:00:00	4	Temperatura máxima	14.8
186003	7	Sololá	716	San Marcos la Laguna 	11	San Marcos la laguna 	4	Abril	2023-03-04T00:00:00	2024-11-08T04:00:00	3	Temperatura mínima	14.4
186004	7	Sololá	716	San Marcos la Laguna 	11	San Marcos la laguna 	4	Abril	2023-03-04T00:00:00	2024-11-08T04:00:00	5	Humedad	75
186005	7	Sololá	716	San Marcos la Laguna 	11	San Marcos la laguna 	4	Abril	2023-03-04T00:00:00	2024-11-08T04:00:00	6	Velocidad del viento	6.4
186006	7	Sololá	716	San Marcos la Laguna 	11	San Marcos la laguna 	4	Abril	2023-03-04T00:00:00	2024-11-08T04:00:00	7	Dirección del viento	6.44
186007	7	Sololá	716	San Marcos la Laguna 	11	San Marcos la laguna 	4	Abril	2023-03-04T00:00:00	2024-11-08T04:00:00	1	Precipitación	0
186008	7	Sololá	716	San Marcos la Laguna 	11	San Marcos la laguna 	4	Abril	2023-03-04T00:00:00	2024-11-08T04:00:00	8	Radiación solar	0
186009	7	Sololá	716	San Marcos la Laguna 	11	San Marcos la laguna 	4	Abril	2023-03-04T00:00:00	2024-11-08T05:00:00	2	Temperatura media	14.3
186010	7	Sololá	716	San Marcos la Laguna 	11	San Marcos la laguna 	4	Abril	2023-03-04T00:00:00	2024-11-08T05:00:00	4	Temperatura máxima	14.6
186011	7	Sololá	716	San Marcos la Laguna 	11	San Marcos la laguna 	4	Abril	2023-03-04T00:00:00	2024-11-08T05:00:00	3	Temperatura mínima	14.1
186012	7	Sololá	716	San Marcos la Laguna 	11	San Marcos la laguna 	4	Abril	2023-03-04T00:00:00	2024-11-08T05:00:00	5	Humedad	78
186013	7	Sololá	716	San Marcos la Laguna 	11	San Marcos la laguna 	4	Abril	2023-03-04T00:00:00	2024-11-08T05:00:00	6	Velocidad del viento	6.4
186014	7	Sololá	716	San Marcos la Laguna 	11	San Marcos la laguna 	4	Abril	2023-03-04T00:00:00	2024-11-08T05:00:00	7	Dirección del viento	6.44
186015	7	Sololá	716	San Marcos la Laguna 	11	San Marcos la laguna 	4	Abril	2023-03-04T00:00:00	2024-11-08T05:00:00	1	Precipitación	0
186016	7	Sololá	716	San Marcos la Laguna 	11	San Marcos la laguna 	4	Abril	2023-03-04T00:00:00	2024-11-08T05:00:00	8	Radiación solar	0
186017	7	Sololá	716	San Marcos la Laguna 	11	San Marcos la laguna 	4	Abril	2023-03-04T00:00:00	2024-11-08T06:00:00	2	Temperatura media	14
186018	7	Sololá	716	San Marcos la Laguna 	11	San Marcos la laguna 	4	Abril	2023-03-04T00:00:00	2024-11-08T06:00:00	4	Temperatura máxima	14.3
186019	7	Sololá	716	San Marcos la Laguna 	11	San Marcos la laguna 	4	Abril	2023-03-04T00:00:00	2024-11-08T06:00:00	3	Temperatura mínima	13.9
186020	7	Sololá	716	San Marcos la Laguna 	11	San Marcos la laguna 	4	Abril	2023-03-04T00:00:00	2024-11-08T06:00:00	5	Humedad	80
186021	7	Sololá	716	San Marcos la Laguna 	11	San Marcos la laguna 	4	Abril	2023-03-04T00:00:00	2024-11-08T06:00:00	6	Velocidad del viento	6.4
186022	7	Sololá	716	San Marcos la Laguna 	11	San Marcos la laguna 	4	Abril	2023-03-04T00:00:00	2024-11-08T06:00:00	7	Dirección del viento	6.44
186023	7	Sololá	716	San Marcos la Laguna 	11	San Marcos la laguna 	4	Abril	2023-03-04T00:00:00	2024-11-08T06:00:00	1	Precipitación	0
186024	7	Sololá	716	San Marcos la Laguna 	11	San Marcos la laguna 	4	Abril	2023-03-04T00:00:00	2024-11-08T06:00:00	8	Radiación solar	0
186025	7	Sololá	716	San Marcos la Laguna 	11	San Marcos la laguna 	4	Abril	2023-03-04T00:00:00	2024-11-08T07:00:00	2	Temperatura media	14.8
186026	7	Sololá	716	San Marcos la Laguna 	11	San Marcos la laguna 	4	Abril	2023-03-04T00:00:00	2024-11-08T07:00:00	4	Temperatura máxima	14.8
186027	7	Sololá	716	San Marcos la Laguna 	11	San Marcos la laguna 	4	Abril	2023-03-04T00:00:00	2024-11-08T07:00:00	3	Temperatura mínima	13.9
186028	7	Sololá	716	San Marcos la Laguna 	11	San Marcos la laguna 	4	Abril	2023-03-04T00:00:00	2024-11-08T07:00:00	5	Humedad	82
186029	7	Sololá	716	San Marcos la Laguna 	11	San Marcos la laguna 	4	Abril	2023-03-04T00:00:00	2024-11-08T07:00:00	6	Velocidad del viento	6.4
186030	7	Sololá	716	San Marcos la Laguna 	11	San Marcos la laguna 	4	Abril	2023-03-04T00:00:00	2024-11-08T07:00:00	7	Dirección del viento	6.44
186031	7	Sololá	716	San Marcos la Laguna 	11	San Marcos la laguna 	4	Abril	2023-03-04T00:00:00	2024-11-08T07:00:00	1	Precipitación	0
186032	7	Sololá	716	San Marcos la Laguna 	11	San Marcos la laguna 	4	Abril	2023-03-04T00:00:00	2024-11-08T07:00:00	8	Radiación solar	31
186033	7	Sololá	716	San Marcos la Laguna 	11	San Marcos la laguna 	4	Abril	2023-03-04T00:00:00	2024-11-08T08:00:00	2	Temperatura media	19.1
186034	7	Sololá	716	San Marcos la Laguna 	11	San Marcos la laguna 	4	Abril	2023-03-04T00:00:00	2024-11-08T08:00:00	4	Temperatura máxima	19.1
186035	7	Sololá	716	San Marcos la Laguna 	11	San Marcos la laguna 	4	Abril	2023-03-04T00:00:00	2024-11-08T08:00:00	3	Temperatura mínima	14.8
186036	7	Sololá	716	San Marcos la Laguna 	11	San Marcos la laguna 	4	Abril	2023-03-04T00:00:00	2024-11-08T08:00:00	5	Humedad	71
186037	7	Sololá	716	San Marcos la Laguna 	11	San Marcos la laguna 	4	Abril	2023-03-04T00:00:00	2024-11-08T08:00:00	6	Velocidad del viento	3.2
186038	7	Sololá	716	San Marcos la Laguna 	11	San Marcos la laguna 	4	Abril	2023-03-04T00:00:00	2024-11-08T08:00:00	7	Dirección del viento	3.22
186039	7	Sololá	716	San Marcos la Laguna 	11	San Marcos la laguna 	4	Abril	2023-03-04T00:00:00	2024-11-08T08:00:00	1	Precipitación	0
186040	7	Sololá	716	San Marcos la Laguna 	11	San Marcos la laguna 	4	Abril	2023-03-04T00:00:00	2024-11-08T08:00:00	8	Radiación solar	188
186041	7	Sololá	716	San Marcos la Laguna 	11	San Marcos la laguna 	4	Abril	2023-03-04T00:00:00	2024-11-08T09:00:00	2	Temperatura media	20.1
186042	7	Sololá	716	San Marcos la Laguna 	11	San Marcos la laguna 	4	Abril	2023-03-04T00:00:00	2024-11-08T09:00:00	4	Temperatura máxima	20.2
186043	7	Sololá	716	San Marcos la Laguna 	11	San Marcos la laguna 	4	Abril	2023-03-04T00:00:00	2024-11-08T09:00:00	3	Temperatura mínima	19.1
186044	7	Sololá	716	San Marcos la Laguna 	11	San Marcos la laguna 	4	Abril	2023-03-04T00:00:00	2024-11-08T09:00:00	5	Humedad	70
186045	7	Sololá	716	San Marcos la Laguna 	11	San Marcos la laguna 	4	Abril	2023-03-04T00:00:00	2024-11-08T09:00:00	6	Velocidad del viento	3.2
186046	7	Sololá	716	San Marcos la Laguna 	11	San Marcos la laguna 	4	Abril	2023-03-04T00:00:00	2024-11-08T09:00:00	7	Dirección del viento	3.22
186047	7	Sololá	716	San Marcos la Laguna 	11	San Marcos la laguna 	4	Abril	2023-03-04T00:00:00	2024-11-08T09:00:00	1	Precipitación	0
186048	7	Sololá	716	San Marcos la Laguna 	11	San Marcos la laguna 	4	Abril	2023-03-04T00:00:00	2024-11-08T09:00:00	8	Radiación solar	454
186049	7	Sololá	716	San Marcos la Laguna 	11	San Marcos la laguna 	4	Abril	2023-03-04T00:00:00	2024-11-08T10:00:00	2	Temperatura media	21.4
186050	7	Sololá	716	San Marcos la Laguna 	11	San Marcos la laguna 	4	Abril	2023-03-04T00:00:00	2024-11-08T10:00:00	4	Temperatura máxima	21.4
186051	7	Sololá	716	San Marcos la Laguna 	11	San Marcos la laguna 	4	Abril	2023-03-04T00:00:00	2024-11-08T10:00:00	3	Temperatura mínima	19.9
186052	7	Sololá	716	San Marcos la Laguna 	11	San Marcos la laguna 	4	Abril	2023-03-04T00:00:00	2024-11-08T10:00:00	5	Humedad	66
186053	7	Sololá	716	San Marcos la Laguna 	11	San Marcos la laguna 	4	Abril	2023-03-04T00:00:00	2024-11-08T10:00:00	6	Velocidad del viento	4.8
186054	7	Sololá	716	San Marcos la Laguna 	11	San Marcos la laguna 	4	Abril	2023-03-04T00:00:00	2024-11-08T10:00:00	7	Dirección del viento	4.83
186055	7	Sololá	716	San Marcos la Laguna 	11	San Marcos la laguna 	4	Abril	2023-03-04T00:00:00	2024-11-08T10:00:00	1	Precipitación	0
186056	7	Sololá	716	San Marcos la Laguna 	11	San Marcos la laguna 	4	Abril	2023-03-04T00:00:00	2024-11-08T10:00:00	8	Radiación solar	661
186057	7	Sololá	716	San Marcos la Laguna 	11	San Marcos la laguna 	4	Abril	2023-03-04T00:00:00	2024-11-08T11:00:00	2	Temperatura media	21.6
186058	7	Sololá	716	San Marcos la Laguna 	11	San Marcos la laguna 	4	Abril	2023-03-04T00:00:00	2024-11-08T11:00:00	4	Temperatura máxima	22.1
186059	7	Sololá	716	San Marcos la Laguna 	11	San Marcos la laguna 	4	Abril	2023-03-04T00:00:00	2024-11-08T11:00:00	3	Temperatura mínima	21.3
186060	7	Sololá	716	San Marcos la Laguna 	11	San Marcos la laguna 	4	Abril	2023-03-04T00:00:00	2024-11-08T11:00:00	5	Humedad	66
186061	7	Sololá	716	San Marcos la Laguna 	11	San Marcos la laguna 	4	Abril	2023-03-04T00:00:00	2024-11-08T11:00:00	6	Velocidad del viento	8
186062	7	Sololá	716	San Marcos la Laguna 	11	San Marcos la laguna 	4	Abril	2023-03-04T00:00:00	2024-11-08T11:00:00	7	Dirección del viento	8.05
186063	7	Sololá	716	San Marcos la Laguna 	11	San Marcos la laguna 	4	Abril	2023-03-04T00:00:00	2024-11-08T11:00:00	1	Precipitación	0
186064	7	Sololá	716	San Marcos la Laguna 	11	San Marcos la laguna 	4	Abril	2023-03-04T00:00:00	2024-11-08T11:00:00	8	Radiación solar	805
186065	7	Sololá	716	San Marcos la Laguna 	11	San Marcos la laguna 	4	Abril	2023-03-04T00:00:00	2024-11-08T12:00:00	2	Temperatura media	21.8
186066	7	Sololá	716	San Marcos la Laguna 	11	San Marcos la laguna 	4	Abril	2023-03-04T00:00:00	2024-11-08T12:00:00	4	Temperatura máxima	22.3
186067	7	Sololá	716	San Marcos la Laguna 	11	San Marcos la laguna 	4	Abril	2023-03-04T00:00:00	2024-11-08T12:00:00	3	Temperatura mínima	21.4
186068	7	Sololá	716	San Marcos la Laguna 	11	San Marcos la laguna 	4	Abril	2023-03-04T00:00:00	2024-11-08T12:00:00	5	Humedad	70
186069	7	Sololá	716	San Marcos la Laguna 	11	San Marcos la laguna 	4	Abril	2023-03-04T00:00:00	2024-11-08T12:00:00	6	Velocidad del viento	12.9
186070	7	Sololá	716	San Marcos la Laguna 	11	San Marcos la laguna 	4	Abril	2023-03-04T00:00:00	2024-11-08T12:00:00	7	Dirección del viento	12.87
186071	7	Sololá	716	San Marcos la Laguna 	11	San Marcos la laguna 	4	Abril	2023-03-04T00:00:00	2024-11-08T12:00:00	1	Precipitación	0
186072	7	Sololá	716	San Marcos la Laguna 	11	San Marcos la laguna 	4	Abril	2023-03-04T00:00:00	2024-11-08T12:00:00	8	Radiación solar	888
186073	7	Sololá	716	San Marcos la Laguna 	11	San Marcos la laguna 	4	Abril	2023-03-04T00:00:00	2024-11-08T13:00:00	2	Temperatura media	21.8
186074	7	Sololá	716	San Marcos la Laguna 	11	San Marcos la laguna 	4	Abril	2023-03-04T00:00:00	2024-11-08T13:00:00	4	Temperatura máxima	22.3
186075	7	Sololá	716	San Marcos la Laguna 	11	San Marcos la laguna 	4	Abril	2023-03-04T00:00:00	2024-11-08T13:00:00	3	Temperatura mínima	21.7
186076	7	Sololá	716	San Marcos la Laguna 	11	San Marcos la laguna 	4	Abril	2023-03-04T00:00:00	2024-11-08T13:00:00	5	Humedad	70
186077	7	Sololá	716	San Marcos la Laguna 	11	San Marcos la laguna 	4	Abril	2023-03-04T00:00:00	2024-11-08T13:00:00	6	Velocidad del viento	14.5
186078	7	Sololá	716	San Marcos la Laguna 	11	San Marcos la laguna 	4	Abril	2023-03-04T00:00:00	2024-11-08T13:00:00	7	Dirección del viento	14.48
186079	7	Sololá	716	San Marcos la Laguna 	11	San Marcos la laguna 	4	Abril	2023-03-04T00:00:00	2024-11-08T13:00:00	1	Precipitación	0
186080	7	Sololá	716	San Marcos la Laguna 	11	San Marcos la laguna 	4	Abril	2023-03-04T00:00:00	2024-11-08T13:00:00	8	Radiación solar	901
186081	7	Sololá	716	San Marcos la Laguna 	11	San Marcos la laguna 	4	Abril	2023-03-04T00:00:00	2024-11-08T14:00:00	2	Temperatura media	21.8
186082	7	Sololá	716	San Marcos la Laguna 	11	San Marcos la laguna 	4	Abril	2023-03-04T00:00:00	2024-11-08T14:00:00	4	Temperatura máxima	22.7
186083	7	Sololá	716	San Marcos la Laguna 	11	San Marcos la laguna 	4	Abril	2023-03-04T00:00:00	2024-11-08T14:00:00	3	Temperatura mínima	21.8
186084	7	Sololá	716	San Marcos la Laguna 	11	San Marcos la laguna 	4	Abril	2023-03-04T00:00:00	2024-11-08T14:00:00	5	Humedad	72
186085	7	Sololá	716	San Marcos la Laguna 	11	San Marcos la laguna 	4	Abril	2023-03-04T00:00:00	2024-11-08T14:00:00	6	Velocidad del viento	11.3
186086	7	Sololá	716	San Marcos la Laguna 	11	San Marcos la laguna 	4	Abril	2023-03-04T00:00:00	2024-11-08T14:00:00	7	Dirección del viento	11.27
186087	7	Sololá	716	San Marcos la Laguna 	11	San Marcos la laguna 	4	Abril	2023-03-04T00:00:00	2024-11-08T14:00:00	1	Precipitación	0
186088	7	Sololá	716	San Marcos la Laguna 	11	San Marcos la laguna 	4	Abril	2023-03-04T00:00:00	2024-11-08T14:00:00	8	Radiación solar	854
186089	7	Sololá	716	San Marcos la Laguna 	11	San Marcos la laguna 	4	Abril	2023-03-04T00:00:00	2024-11-08T15:00:00	2	Temperatura media	21.2
186090	7	Sololá	716	San Marcos la Laguna 	11	San Marcos la laguna 	4	Abril	2023-03-04T00:00:00	2024-11-08T15:00:00	4	Temperatura máxima	21.9
186091	7	Sololá	716	San Marcos la Laguna 	11	San Marcos la laguna 	4	Abril	2023-03-04T00:00:00	2024-11-08T15:00:00	3	Temperatura mínima	21.2
186092	7	Sololá	716	San Marcos la Laguna 	11	San Marcos la laguna 	4	Abril	2023-03-04T00:00:00	2024-11-08T15:00:00	5	Humedad	74
186093	7	Sololá	716	San Marcos la Laguna 	11	San Marcos la laguna 	4	Abril	2023-03-04T00:00:00	2024-11-08T15:00:00	6	Velocidad del viento	11.3
186094	7	Sololá	716	San Marcos la Laguna 	11	San Marcos la laguna 	4	Abril	2023-03-04T00:00:00	2024-11-08T15:00:00	7	Dirección del viento	11.27
186095	7	Sololá	716	San Marcos la Laguna 	11	San Marcos la laguna 	4	Abril	2023-03-04T00:00:00	2024-11-08T15:00:00	1	Precipitación	0
186096	7	Sololá	716	San Marcos la Laguna 	11	San Marcos la laguna 	4	Abril	2023-03-04T00:00:00	2024-11-08T15:00:00	8	Radiación solar	356
186097	7	Sololá	716	San Marcos la Laguna 	11	San Marcos la laguna 	4	Abril	2023-03-04T00:00:00	2024-11-08T16:00:00	2	Temperatura media	21.4
186098	7	Sololá	716	San Marcos la Laguna 	11	San Marcos la laguna 	4	Abril	2023-03-04T00:00:00	2024-11-08T16:00:00	4	Temperatura máxima	21.4
186099	7	Sololá	716	San Marcos la Laguna 	11	San Marcos la laguna 	4	Abril	2023-03-04T00:00:00	2024-11-08T16:00:00	3	Temperatura mínima	21.1
186100	7	Sololá	716	San Marcos la Laguna 	11	San Marcos la laguna 	4	Abril	2023-03-04T00:00:00	2024-11-08T16:00:00	5	Humedad	76
186101	7	Sololá	716	San Marcos la Laguna 	11	San Marcos la laguna 	4	Abril	2023-03-04T00:00:00	2024-11-08T16:00:00	6	Velocidad del viento	6.4
186102	7	Sololá	716	San Marcos la Laguna 	11	San Marcos la laguna 	4	Abril	2023-03-04T00:00:00	2024-11-08T16:00:00	7	Dirección del viento	6.44
186103	7	Sololá	716	San Marcos la Laguna 	11	San Marcos la laguna 	4	Abril	2023-03-04T00:00:00	2024-11-08T16:00:00	1	Precipitación	0
186104	7	Sololá	716	San Marcos la Laguna 	11	San Marcos la laguna 	4	Abril	2023-03-04T00:00:00	2024-11-08T16:00:00	8	Radiación solar	186
186105	7	Sololá	716	San Marcos la Laguna 	11	San Marcos la laguna 	4	Abril	2023-03-04T00:00:00	2024-11-08T17:00:00	2	Temperatura media	21.4
186106	7	Sololá	716	San Marcos la Laguna 	11	San Marcos la laguna 	4	Abril	2023-03-04T00:00:00	2024-11-08T17:00:00	4	Temperatura máxima	21.5
186107	7	Sololá	716	San Marcos la Laguna 	11	San Marcos la laguna 	4	Abril	2023-03-04T00:00:00	2024-11-08T17:00:00	3	Temperatura mínima	21.3
186108	7	Sololá	716	San Marcos la Laguna 	11	San Marcos la laguna 	4	Abril	2023-03-04T00:00:00	2024-11-08T17:00:00	5	Humedad	75
186109	7	Sololá	716	San Marcos la Laguna 	11	San Marcos la laguna 	4	Abril	2023-03-04T00:00:00	2024-11-08T17:00:00	6	Velocidad del viento	3.2
186110	7	Sololá	716	San Marcos la Laguna 	11	San Marcos la laguna 	4	Abril	2023-03-04T00:00:00	2024-11-08T17:00:00	7	Dirección del viento	3.22
186111	7	Sololá	716	San Marcos la Laguna 	11	San Marcos la laguna 	4	Abril	2023-03-04T00:00:00	2024-11-08T17:00:00	1	Precipitación	0
186112	7	Sololá	716	San Marcos la Laguna 	11	San Marcos la laguna 	4	Abril	2023-03-04T00:00:00	2024-11-08T17:00:00	8	Radiación solar	142
186113	7	Sololá	716	San Marcos la Laguna 	11	San Marcos la laguna 	4	Abril	2023-03-04T00:00:00	2024-11-08T18:00:00	2	Temperatura media	20.3
186114	7	Sololá	716	San Marcos la Laguna 	11	San Marcos la laguna 	4	Abril	2023-03-04T00:00:00	2024-11-08T18:00:00	4	Temperatura máxima	21.4
186115	7	Sololá	716	San Marcos la Laguna 	11	San Marcos la laguna 	4	Abril	2023-03-04T00:00:00	2024-11-08T18:00:00	3	Temperatura mínima	20.3
186116	7	Sololá	716	San Marcos la Laguna 	11	San Marcos la laguna 	4	Abril	2023-03-04T00:00:00	2024-11-08T18:00:00	5	Humedad	80
186117	7	Sololá	716	San Marcos la Laguna 	11	San Marcos la laguna 	4	Abril	2023-03-04T00:00:00	2024-11-08T18:00:00	6	Velocidad del viento	6.4
186118	7	Sololá	716	San Marcos la Laguna 	11	San Marcos la laguna 	4	Abril	2023-03-04T00:00:00	2024-11-08T18:00:00	7	Dirección del viento	6.44
186119	7	Sololá	716	San Marcos la Laguna 	11	San Marcos la laguna 	4	Abril	2023-03-04T00:00:00	2024-11-08T18:00:00	1	Precipitación	0
186120	7	Sololá	716	San Marcos la Laguna 	11	San Marcos la laguna 	4	Abril	2023-03-04T00:00:00	2024-11-08T18:00:00	8	Radiación solar	57
186121	7	Sololá	716	San Marcos la Laguna 	11	San Marcos la laguna 	4	Abril	2023-03-04T00:00:00	2024-11-08T19:00:00	2	Temperatura media	19.9
186122	7	Sololá	716	San Marcos la Laguna 	11	San Marcos la laguna 	4	Abril	2023-03-04T00:00:00	2024-11-08T19:00:00	4	Temperatura máxima	20.3
186123	7	Sololá	716	San Marcos la Laguna 	11	San Marcos la laguna 	4	Abril	2023-03-04T00:00:00	2024-11-08T19:00:00	3	Temperatura mínima	19.9
186124	7	Sololá	716	San Marcos la Laguna 	11	San Marcos la laguna 	4	Abril	2023-03-04T00:00:00	2024-11-08T19:00:00	5	Humedad	84
186125	7	Sololá	716	San Marcos la Laguna 	11	San Marcos la laguna 	4	Abril	2023-03-04T00:00:00	2024-11-08T19:00:00	6	Velocidad del viento	8
186126	7	Sololá	716	San Marcos la Laguna 	11	San Marcos la laguna 	4	Abril	2023-03-04T00:00:00	2024-11-08T19:00:00	7	Dirección del viento	8.05
186127	7	Sololá	716	San Marcos la Laguna 	11	San Marcos la laguna 	4	Abril	2023-03-04T00:00:00	2024-11-08T19:00:00	1	Precipitación	0
186128	7	Sololá	716	San Marcos la Laguna 	11	San Marcos la laguna 	4	Abril	2023-03-04T00:00:00	2024-11-08T19:00:00	8	Radiación solar	0
186129	7	Sololá	716	San Marcos la Laguna 	11	San Marcos la laguna 	4	Abril	2023-03-04T00:00:00	2024-11-08T20:00:00	2	Temperatura media	19.3
186130	7	Sololá	716	San Marcos la Laguna 	11	San Marcos la laguna 	4	Abril	2023-03-04T00:00:00	2024-11-08T20:00:00	4	Temperatura máxima	19.9
186131	7	Sololá	716	San Marcos la Laguna 	11	San Marcos la laguna 	4	Abril	2023-03-04T00:00:00	2024-11-08T20:00:00	3	Temperatura mínima	19.3
186132	7	Sololá	716	San Marcos la Laguna 	11	San Marcos la laguna 	4	Abril	2023-03-04T00:00:00	2024-11-08T20:00:00	5	Humedad	78
186133	7	Sololá	716	San Marcos la Laguna 	11	San Marcos la laguna 	4	Abril	2023-03-04T00:00:00	2024-11-08T20:00:00	6	Velocidad del viento	3.2
186134	7	Sololá	716	San Marcos la Laguna 	11	San Marcos la laguna 	4	Abril	2023-03-04T00:00:00	2024-11-08T20:00:00	7	Dirección del viento	3.22
186135	7	Sololá	716	San Marcos la Laguna 	11	San Marcos la laguna 	4	Abril	2023-03-04T00:00:00	2024-11-08T20:00:00	1	Precipitación	0
186136	7	Sololá	716	San Marcos la Laguna 	11	San Marcos la laguna 	4	Abril	2023-03-04T00:00:00	2024-11-08T20:00:00	8	Radiación solar	0
186137	7	Sololá	716	San Marcos la Laguna 	11	San Marcos la laguna 	4	Abril	2023-03-04T00:00:00	2024-11-08T21:00:00	2	Temperatura media	18.1
186138	7	Sololá	716	San Marcos la Laguna 	11	San Marcos la laguna 	4	Abril	2023-03-04T00:00:00	2024-11-08T21:00:00	4	Temperatura máxima	19.3
186139	7	Sololá	716	San Marcos la Laguna 	11	San Marcos la laguna 	4	Abril	2023-03-04T00:00:00	2024-11-08T21:00:00	3	Temperatura mínima	18.1
186140	7	Sololá	716	San Marcos la Laguna 	11	San Marcos la laguna 	4	Abril	2023-03-04T00:00:00	2024-11-08T21:00:00	5	Humedad	78
186141	7	Sololá	716	San Marcos la Laguna 	11	San Marcos la laguna 	4	Abril	2023-03-04T00:00:00	2024-11-08T21:00:00	6	Velocidad del viento	3.2
186142	7	Sololá	716	San Marcos la Laguna 	11	San Marcos la laguna 	4	Abril	2023-03-04T00:00:00	2024-11-08T21:00:00	7	Dirección del viento	3.22
186143	7	Sololá	716	San Marcos la Laguna 	11	San Marcos la laguna 	4	Abril	2023-03-04T00:00:00	2024-11-08T21:00:00	1	Precipitación	0
186144	7	Sololá	716	San Marcos la Laguna 	11	San Marcos la laguna 	4	Abril	2023-03-04T00:00:00	2024-11-08T21:00:00	8	Radiación solar	0
186145	7	Sololá	716	San Marcos la Laguna 	11	San Marcos la laguna 	4	Abril	2023-03-04T00:00:00	2024-11-08T22:00:00	2	Temperatura media	18.2
186146	7	Sololá	716	San Marcos la Laguna 	11	San Marcos la laguna 	4	Abril	2023-03-04T00:00:00	2024-11-08T22:00:00	4	Temperatura máxima	18.6
186147	7	Sololá	716	San Marcos la Laguna 	11	San Marcos la laguna 	4	Abril	2023-03-04T00:00:00	2024-11-08T22:00:00	3	Temperatura mínima	17.8
186148	7	Sololá	716	San Marcos la Laguna 	11	San Marcos la laguna 	4	Abril	2023-03-04T00:00:00	2024-11-08T22:00:00	5	Humedad	79
186149	7	Sololá	716	San Marcos la Laguna 	11	San Marcos la laguna 	4	Abril	2023-03-04T00:00:00	2024-11-08T22:00:00	6	Velocidad del viento	6.4
186150	7	Sololá	716	San Marcos la Laguna 	11	San Marcos la laguna 	4	Abril	2023-03-04T00:00:00	2024-11-08T22:00:00	7	Dirección del viento	6.44
186151	7	Sololá	716	San Marcos la Laguna 	11	San Marcos la laguna 	4	Abril	2023-03-04T00:00:00	2024-11-08T22:00:00	1	Precipitación	0
186152	7	Sololá	716	San Marcos la Laguna 	11	San Marcos la laguna 	4	Abril	2023-03-04T00:00:00	2024-11-08T22:00:00	8	Radiación solar	0
186153	7	Sololá	716	San Marcos la Laguna 	11	San Marcos la laguna 	4	Abril	2023-03-04T00:00:00	2024-11-08T23:00:00	2	Temperatura media	17.7
186154	7	Sololá	716	San Marcos la Laguna 	11	San Marcos la laguna 	4	Abril	2023-03-04T00:00:00	2024-11-08T23:00:00	4	Temperatura máxima	18.2
186155	7	Sololá	716	San Marcos la Laguna 	11	San Marcos la laguna 	4	Abril	2023-03-04T00:00:00	2024-11-08T23:00:00	3	Temperatura mínima	17.2
186156	7	Sololá	716	San Marcos la Laguna 	11	San Marcos la laguna 	4	Abril	2023-03-04T00:00:00	2024-11-08T23:00:00	5	Humedad	81
186157	7	Sololá	716	San Marcos la Laguna 	11	San Marcos la laguna 	4	Abril	2023-03-04T00:00:00	2024-11-08T23:00:00	6	Velocidad del viento	8
186158	7	Sololá	716	San Marcos la Laguna 	11	San Marcos la laguna 	4	Abril	2023-03-04T00:00:00	2024-11-08T23:00:00	7	Dirección del viento	8.05
186159	7	Sololá	716	San Marcos la Laguna 	11	San Marcos la laguna 	4	Abril	2023-03-04T00:00:00	2024-11-08T23:00:00	1	Precipitación	0
186160	7	Sololá	716	San Marcos la Laguna 	11	San Marcos la laguna 	4	Abril	2023-03-04T00:00:00	2024-11-08T23:00:00	8	Radiación solar	0
186161	7	Sololá	716	San Marcos la Laguna 	11	San Marcos la laguna 	4	Abril	2023-04-04T00:00:00	2024-11-08T00:00:00	2	Temperatura media	17.1
186162	7	Sololá	716	San Marcos la Laguna 	11	San Marcos la laguna 	4	Abril	2023-04-04T00:00:00	2024-11-08T00:00:00	4	Temperatura máxima	17.8
186163	7	Sololá	716	San Marcos la Laguna 	11	San Marcos la laguna 	4	Abril	2023-04-04T00:00:00	2024-11-08T00:00:00	3	Temperatura mínima	16.7
186164	7	Sololá	716	San Marcos la Laguna 	11	San Marcos la laguna 	4	Abril	2023-04-04T00:00:00	2024-11-08T00:00:00	5	Humedad	80
186165	7	Sololá	716	San Marcos la Laguna 	11	San Marcos la laguna 	4	Abril	2023-04-04T00:00:00	2024-11-08T00:00:00	6	Velocidad del viento	6.4
186166	7	Sololá	716	San Marcos la Laguna 	11	San Marcos la laguna 	4	Abril	2023-04-04T00:00:00	2024-11-08T00:00:00	7	Dirección del viento	6.44
186167	7	Sololá	716	San Marcos la Laguna 	11	San Marcos la laguna 	4	Abril	2023-04-04T00:00:00	2024-11-08T00:00:00	1	Precipitación	0
186168	7	Sololá	716	San Marcos la Laguna 	11	San Marcos la laguna 	4	Abril	2023-04-04T00:00:00	2024-11-08T00:00:00	8	Radiación solar	0
186169	7	Sololá	716	San Marcos la Laguna 	11	San Marcos la laguna 	4	Abril	2023-04-04T00:00:00	2024-11-08T01:00:00	2	Temperatura media	15.9
186170	7	Sololá	716	San Marcos la Laguna 	11	San Marcos la laguna 	4	Abril	2023-04-04T00:00:00	2024-11-08T01:00:00	4	Temperatura máxima	17.1
186171	7	Sololá	716	San Marcos la Laguna 	11	San Marcos la laguna 	4	Abril	2023-04-04T00:00:00	2024-11-08T01:00:00	3	Temperatura mínima	15.7
186172	7	Sololá	716	San Marcos la Laguna 	11	San Marcos la laguna 	4	Abril	2023-04-04T00:00:00	2024-11-08T01:00:00	5	Humedad	80
186173	7	Sololá	716	San Marcos la Laguna 	11	San Marcos la laguna 	4	Abril	2023-04-04T00:00:00	2024-11-08T01:00:00	6	Velocidad del viento	6.4
186174	7	Sololá	716	San Marcos la Laguna 	11	San Marcos la laguna 	4	Abril	2023-04-04T00:00:00	2024-11-08T01:00:00	7	Dirección del viento	6.44
186175	7	Sololá	716	San Marcos la Laguna 	11	San Marcos la laguna 	4	Abril	2023-04-04T00:00:00	2024-11-08T01:00:00	1	Precipitación	0
186176	7	Sololá	716	San Marcos la Laguna 	11	San Marcos la laguna 	4	Abril	2023-04-04T00:00:00	2024-11-08T01:00:00	8	Radiación solar	0
186177	7	Sololá	716	San Marcos la Laguna 	11	San Marcos la laguna 	4	Abril	2023-04-04T00:00:00	2024-11-08T02:00:00	2	Temperatura media	15.6
186178	7	Sololá	716	San Marcos la Laguna 	11	San Marcos la laguna 	4	Abril	2023-04-04T00:00:00	2024-11-08T02:00:00	4	Temperatura máxima	16.1
186179	7	Sololá	716	San Marcos la Laguna 	11	San Marcos la laguna 	4	Abril	2023-04-04T00:00:00	2024-11-08T02:00:00	3	Temperatura mínima	15.4
186180	7	Sololá	716	San Marcos la Laguna 	11	San Marcos la laguna 	4	Abril	2023-04-04T00:00:00	2024-11-08T02:00:00	5	Humedad	79
186181	7	Sololá	716	San Marcos la Laguna 	11	San Marcos la laguna 	4	Abril	2023-04-04T00:00:00	2024-11-08T02:00:00	6	Velocidad del viento	4.8
186182	7	Sololá	716	San Marcos la Laguna 	11	San Marcos la laguna 	4	Abril	2023-04-04T00:00:00	2024-11-08T02:00:00	7	Dirección del viento	4.83
186183	7	Sololá	716	San Marcos la Laguna 	11	San Marcos la laguna 	4	Abril	2023-04-04T00:00:00	2024-11-08T02:00:00	1	Precipitación	0
186184	7	Sololá	716	San Marcos la Laguna 	11	San Marcos la laguna 	4	Abril	2023-04-04T00:00:00	2024-11-08T02:00:00	8	Radiación solar	0
186185	7	Sololá	716	San Marcos la Laguna 	11	San Marcos la laguna 	4	Abril	2023-04-04T00:00:00	2024-11-08T03:00:00	2	Temperatura media	15.2
186186	7	Sololá	716	San Marcos la Laguna 	11	San Marcos la laguna 	4	Abril	2023-04-04T00:00:00	2024-11-08T03:00:00	4	Temperatura máxima	15.7
186187	7	Sololá	716	San Marcos la Laguna 	11	San Marcos la laguna 	4	Abril	2023-04-04T00:00:00	2024-11-08T03:00:00	3	Temperatura mínima	15.1
186188	7	Sololá	716	San Marcos la Laguna 	11	San Marcos la laguna 	4	Abril	2023-04-04T00:00:00	2024-11-08T03:00:00	5	Humedad	81
186189	7	Sololá	716	San Marcos la Laguna 	11	San Marcos la laguna 	4	Abril	2023-04-04T00:00:00	2024-11-08T03:00:00	6	Velocidad del viento	6.4
186190	7	Sololá	716	San Marcos la Laguna 	11	San Marcos la laguna 	4	Abril	2023-04-04T00:00:00	2024-11-08T03:00:00	7	Dirección del viento	6.44
186191	7	Sololá	716	San Marcos la Laguna 	11	San Marcos la laguna 	4	Abril	2023-04-04T00:00:00	2024-11-08T03:00:00	1	Precipitación	0
186192	7	Sololá	716	San Marcos la Laguna 	11	San Marcos la laguna 	4	Abril	2023-04-04T00:00:00	2024-11-08T03:00:00	8	Radiación solar	0
186193	7	Sololá	716	San Marcos la Laguna 	11	San Marcos la laguna 	4	Abril	2023-04-04T00:00:00	2024-11-08T04:00:00	2	Temperatura media	14.4
186194	7	Sololá	716	San Marcos la Laguna 	11	San Marcos la laguna 	4	Abril	2023-04-04T00:00:00	2024-11-08T04:00:00	4	Temperatura máxima	15.3
186195	7	Sololá	716	San Marcos la Laguna 	11	San Marcos la laguna 	4	Abril	2023-04-04T00:00:00	2024-11-08T04:00:00	3	Temperatura mínima	14.4
186196	7	Sololá	716	San Marcos la Laguna 	11	San Marcos la laguna 	4	Abril	2023-04-04T00:00:00	2024-11-08T04:00:00	5	Humedad	81
186197	7	Sololá	716	San Marcos la Laguna 	11	San Marcos la laguna 	4	Abril	2023-04-04T00:00:00	2024-11-08T04:00:00	6	Velocidad del viento	6.4
186198	7	Sololá	716	San Marcos la Laguna 	11	San Marcos la laguna 	4	Abril	2023-04-04T00:00:00	2024-11-08T04:00:00	7	Dirección del viento	6.44
186199	7	Sololá	716	San Marcos la Laguna 	11	San Marcos la laguna 	4	Abril	2023-04-04T00:00:00	2024-11-08T04:00:00	1	Precipitación	0
186200	7	Sololá	716	San Marcos la Laguna 	11	San Marcos la laguna 	4	Abril	2023-04-04T00:00:00	2024-11-08T04:00:00	8	Radiación solar	0
186201	7	Sololá	716	San Marcos la Laguna 	11	San Marcos la laguna 	4	Abril	2023-04-04T00:00:00	2024-11-08T05:00:00	2	Temperatura media	14
186202	7	Sololá	716	San Marcos la Laguna 	11	San Marcos la laguna 	4	Abril	2023-04-04T00:00:00	2024-11-08T05:00:00	4	Temperatura máxima	14.4
186203	7	Sololá	716	San Marcos la Laguna 	11	San Marcos la laguna 	4	Abril	2023-04-04T00:00:00	2024-11-08T05:00:00	3	Temperatura mínima	13.9
186204	7	Sololá	716	San Marcos la Laguna 	11	San Marcos la laguna 	4	Abril	2023-04-04T00:00:00	2024-11-08T05:00:00	5	Humedad	83
186205	7	Sololá	716	San Marcos la Laguna 	11	San Marcos la laguna 	4	Abril	2023-04-04T00:00:00	2024-11-08T05:00:00	6	Velocidad del viento	6.4
186206	7	Sololá	716	San Marcos la Laguna 	11	San Marcos la laguna 	4	Abril	2023-04-04T00:00:00	2024-11-08T05:00:00	7	Dirección del viento	6.44
186207	7	Sololá	716	San Marcos la Laguna 	11	San Marcos la laguna 	4	Abril	2023-04-04T00:00:00	2024-11-08T05:00:00	1	Precipitación	0
186208	7	Sololá	716	San Marcos la Laguna 	11	San Marcos la laguna 	4	Abril	2023-04-04T00:00:00	2024-11-08T05:00:00	8	Radiación solar	0
186209	7	Sololá	716	San Marcos la Laguna 	11	San Marcos la laguna 	4	Abril	2023-04-04T00:00:00	2024-11-08T06:00:00	2	Temperatura media	13.7
186210	7	Sololá	716	San Marcos la Laguna 	11	San Marcos la laguna 	4	Abril	2023-04-04T00:00:00	2024-11-08T06:00:00	4	Temperatura máxima	14.2
186211	7	Sololá	716	San Marcos la Laguna 	11	San Marcos la laguna 	4	Abril	2023-04-04T00:00:00	2024-11-08T06:00:00	3	Temperatura mínima	13.6
186212	7	Sololá	716	San Marcos la Laguna 	11	San Marcos la laguna 	4	Abril	2023-04-04T00:00:00	2024-11-08T06:00:00	5	Humedad	83
186213	7	Sololá	716	San Marcos la Laguna 	11	San Marcos la laguna 	4	Abril	2023-04-04T00:00:00	2024-11-08T06:00:00	6	Velocidad del viento	6.4
186214	7	Sololá	716	San Marcos la Laguna 	11	San Marcos la laguna 	4	Abril	2023-04-04T00:00:00	2024-11-08T06:00:00	7	Dirección del viento	6.44
186215	7	Sololá	716	San Marcos la Laguna 	11	San Marcos la laguna 	4	Abril	2023-04-04T00:00:00	2024-11-08T06:00:00	1	Precipitación	0
186216	7	Sololá	716	San Marcos la Laguna 	11	San Marcos la laguna 	4	Abril	2023-04-04T00:00:00	2024-11-08T06:00:00	8	Radiación solar	0
186217	7	Sololá	716	San Marcos la Laguna 	11	San Marcos la laguna 	4	Abril	2023-04-04T00:00:00	2024-11-08T07:00:00	2	Temperatura media	14.3
186218	7	Sololá	716	San Marcos la Laguna 	11	San Marcos la laguna 	4	Abril	2023-04-04T00:00:00	2024-11-08T07:00:00	4	Temperatura máxima	14.3
186219	7	Sololá	716	San Marcos la Laguna 	11	San Marcos la laguna 	4	Abril	2023-04-04T00:00:00	2024-11-08T07:00:00	3	Temperatura mínima	13.6
186220	7	Sololá	716	San Marcos la Laguna 	11	San Marcos la laguna 	4	Abril	2023-04-04T00:00:00	2024-11-08T07:00:00	5	Humedad	81
186221	7	Sololá	716	San Marcos la Laguna 	11	San Marcos la laguna 	4	Abril	2023-04-04T00:00:00	2024-11-08T07:00:00	6	Velocidad del viento	6.4
186222	7	Sololá	716	San Marcos la Laguna 	11	San Marcos la laguna 	4	Abril	2023-04-04T00:00:00	2024-11-08T07:00:00	7	Dirección del viento	6.44
186223	7	Sololá	716	San Marcos la Laguna 	11	San Marcos la laguna 	4	Abril	2023-04-04T00:00:00	2024-11-08T07:00:00	1	Precipitación	0
186224	7	Sololá	716	San Marcos la Laguna 	11	San Marcos la laguna 	4	Abril	2023-04-04T00:00:00	2024-11-08T07:00:00	8	Radiación solar	41
186225	7	Sololá	716	San Marcos la Laguna 	11	San Marcos la laguna 	4	Abril	2023-04-04T00:00:00	2024-11-08T08:00:00	2	Temperatura media	18.8
186226	7	Sololá	716	San Marcos la Laguna 	11	San Marcos la laguna 	4	Abril	2023-04-04T00:00:00	2024-11-08T08:00:00	4	Temperatura máxima	18.8
186227	7	Sololá	716	San Marcos la Laguna 	11	San Marcos la laguna 	4	Abril	2023-04-04T00:00:00	2024-11-08T08:00:00	3	Temperatura mínima	14.3
186228	7	Sololá	716	San Marcos la Laguna 	11	San Marcos la laguna 	4	Abril	2023-04-04T00:00:00	2024-11-08T08:00:00	5	Humedad	75
186229	7	Sololá	716	San Marcos la Laguna 	11	San Marcos la laguna 	4	Abril	2023-04-04T00:00:00	2024-11-08T08:00:00	6	Velocidad del viento	3.2
186230	7	Sololá	716	San Marcos la Laguna 	11	San Marcos la laguna 	4	Abril	2023-04-04T00:00:00	2024-11-08T08:00:00	7	Dirección del viento	3.22
186231	7	Sololá	716	San Marcos la Laguna 	11	San Marcos la laguna 	4	Abril	2023-04-04T00:00:00	2024-11-08T08:00:00	1	Precipitación	0
186232	7	Sololá	716	San Marcos la Laguna 	11	San Marcos la laguna 	4	Abril	2023-04-04T00:00:00	2024-11-08T08:00:00	8	Radiación solar	189
186233	7	Sololá	716	San Marcos la Laguna 	11	San Marcos la laguna 	4	Abril	2023-04-04T00:00:00	2024-11-08T09:00:00	2	Temperatura media	19.3
186234	7	Sololá	716	San Marcos la Laguna 	11	San Marcos la laguna 	4	Abril	2023-04-04T00:00:00	2024-11-08T09:00:00	4	Temperatura máxima	19.6
186235	7	Sololá	716	San Marcos la Laguna 	11	San Marcos la laguna 	4	Abril	2023-04-04T00:00:00	2024-11-08T09:00:00	3	Temperatura mínima	18.8
186236	7	Sololá	716	San Marcos la Laguna 	11	San Marcos la laguna 	4	Abril	2023-04-04T00:00:00	2024-11-08T09:00:00	5	Humedad	74
186237	7	Sololá	716	San Marcos la Laguna 	11	San Marcos la laguna 	4	Abril	2023-04-04T00:00:00	2024-11-08T09:00:00	6	Velocidad del viento	4.8
186238	7	Sololá	716	San Marcos la Laguna 	11	San Marcos la laguna 	4	Abril	2023-04-04T00:00:00	2024-11-08T09:00:00	7	Dirección del viento	4.83
186239	7	Sololá	716	San Marcos la Laguna 	11	San Marcos la laguna 	4	Abril	2023-04-04T00:00:00	2024-11-08T09:00:00	1	Precipitación	0
186240	7	Sololá	716	San Marcos la Laguna 	11	San Marcos la laguna 	4	Abril	2023-04-04T00:00:00	2024-11-08T09:00:00	8	Radiación solar	445
186241	7	Sololá	716	San Marcos la Laguna 	11	San Marcos la laguna 	4	Abril	2023-04-04T00:00:00	2024-11-08T10:00:00	2	Temperatura media	20.7
186242	7	Sololá	716	San Marcos la Laguna 	11	San Marcos la laguna 	4	Abril	2023-04-04T00:00:00	2024-11-08T10:00:00	4	Temperatura máxima	20.7
186243	7	Sololá	716	San Marcos la Laguna 	11	San Marcos la laguna 	4	Abril	2023-04-04T00:00:00	2024-11-08T10:00:00	3	Temperatura mínima	19
186244	7	Sololá	716	San Marcos la Laguna 	11	San Marcos la laguna 	4	Abril	2023-04-04T00:00:00	2024-11-08T10:00:00	5	Humedad	66
186245	7	Sololá	716	San Marcos la Laguna 	11	San Marcos la laguna 	4	Abril	2023-04-04T00:00:00	2024-11-08T10:00:00	6	Velocidad del viento	9.7
186246	7	Sololá	716	San Marcos la Laguna 	11	San Marcos la laguna 	4	Abril	2023-04-04T00:00:00	2024-11-08T10:00:00	7	Dirección del viento	9.66
186247	7	Sololá	716	San Marcos la Laguna 	11	San Marcos la laguna 	4	Abril	2023-04-04T00:00:00	2024-11-08T10:00:00	1	Precipitación	0
186248	7	Sololá	716	San Marcos la Laguna 	11	San Marcos la laguna 	4	Abril	2023-04-04T00:00:00	2024-11-08T10:00:00	8	Radiación solar	658
186249	7	Sololá	716	San Marcos la Laguna 	11	San Marcos la laguna 	4	Abril	2023-04-04T00:00:00	2024-11-08T11:00:00	2	Temperatura media	21.2
186250	7	Sololá	716	San Marcos la Laguna 	11	San Marcos la laguna 	4	Abril	2023-04-04T00:00:00	2024-11-08T11:00:00	4	Temperatura máxima	21.4
186251	7	Sololá	716	San Marcos la Laguna 	11	San Marcos la laguna 	4	Abril	2023-04-04T00:00:00	2024-11-08T11:00:00	3	Temperatura mínima	20.6
186252	7	Sololá	716	San Marcos la Laguna 	11	San Marcos la laguna 	4	Abril	2023-04-04T00:00:00	2024-11-08T11:00:00	5	Humedad	65
186253	7	Sololá	716	San Marcos la Laguna 	11	San Marcos la laguna 	4	Abril	2023-04-04T00:00:00	2024-11-08T11:00:00	6	Velocidad del viento	9.7
186254	7	Sololá	716	San Marcos la Laguna 	11	San Marcos la laguna 	4	Abril	2023-04-04T00:00:00	2024-11-08T11:00:00	7	Dirección del viento	9.66
186255	7	Sololá	716	San Marcos la Laguna 	11	San Marcos la laguna 	4	Abril	2023-04-04T00:00:00	2024-11-08T11:00:00	1	Precipitación	0
186256	7	Sololá	716	San Marcos la Laguna 	11	San Marcos la laguna 	4	Abril	2023-04-04T00:00:00	2024-11-08T11:00:00	8	Radiación solar	717
186257	7	Sololá	716	San Marcos la Laguna 	11	San Marcos la laguna 	4	Abril	2023-04-04T00:00:00	2024-11-08T12:00:00	2	Temperatura media	22.2
186258	7	Sololá	716	San Marcos la Laguna 	11	San Marcos la laguna 	4	Abril	2023-04-04T00:00:00	2024-11-08T12:00:00	4	Temperatura máxima	22.2
186259	7	Sololá	716	San Marcos la Laguna 	11	San Marcos la laguna 	4	Abril	2023-04-04T00:00:00	2024-11-08T12:00:00	3	Temperatura mínima	21.2
186260	7	Sololá	716	San Marcos la Laguna 	11	San Marcos la laguna 	4	Abril	2023-04-04T00:00:00	2024-11-08T12:00:00	5	Humedad	68
186261	7	Sololá	716	San Marcos la Laguna 	11	San Marcos la laguna 	4	Abril	2023-04-04T00:00:00	2024-11-08T12:00:00	6	Velocidad del viento	9.7
186262	7	Sololá	716	San Marcos la Laguna 	11	San Marcos la laguna 	4	Abril	2023-04-04T00:00:00	2024-11-08T12:00:00	7	Dirección del viento	9.66
186263	7	Sololá	716	San Marcos la Laguna 	11	San Marcos la laguna 	4	Abril	2023-04-04T00:00:00	2024-11-08T12:00:00	1	Precipitación	0
186264	7	Sololá	716	San Marcos la Laguna 	11	San Marcos la laguna 	4	Abril	2023-04-04T00:00:00	2024-11-08T12:00:00	8	Radiación solar	893
186265	7	Sololá	716	San Marcos la Laguna 	11	San Marcos la laguna 	4	Abril	2023-04-04T00:00:00	2024-11-08T13:00:00	2	Temperatura media	22.8
186266	7	Sololá	716	San Marcos la Laguna 	11	San Marcos la laguna 	4	Abril	2023-04-04T00:00:00	2024-11-08T13:00:00	4	Temperatura máxima	23.5
186267	7	Sololá	716	San Marcos la Laguna 	11	San Marcos la laguna 	4	Abril	2023-04-04T00:00:00	2024-11-08T13:00:00	3	Temperatura mínima	22.2
186268	7	Sololá	716	San Marcos la Laguna 	11	San Marcos la laguna 	4	Abril	2023-04-04T00:00:00	2024-11-08T13:00:00	5	Humedad	68
186269	7	Sololá	716	San Marcos la Laguna 	11	San Marcos la laguna 	4	Abril	2023-04-04T00:00:00	2024-11-08T13:00:00	6	Velocidad del viento	8
186270	7	Sololá	716	San Marcos la Laguna 	11	San Marcos la laguna 	4	Abril	2023-04-04T00:00:00	2024-11-08T13:00:00	7	Dirección del viento	8.05
186271	7	Sololá	716	San Marcos la Laguna 	11	San Marcos la laguna 	4	Abril	2023-04-04T00:00:00	2024-11-08T13:00:00	1	Precipitación	0
186272	7	Sololá	716	San Marcos la Laguna 	11	San Marcos la laguna 	4	Abril	2023-04-04T00:00:00	2024-11-08T13:00:00	8	Radiación solar	932
186273	7	Sololá	716	San Marcos la Laguna 	11	San Marcos la laguna 	4	Abril	2023-04-04T00:00:00	2024-11-08T14:00:00	2	Temperatura media	22.6
186274	7	Sololá	716	San Marcos la Laguna 	11	San Marcos la laguna 	4	Abril	2023-04-04T00:00:00	2024-11-08T14:00:00	4	Temperatura máxima	22.8
186275	7	Sololá	716	San Marcos la Laguna 	11	San Marcos la laguna 	4	Abril	2023-04-04T00:00:00	2024-11-08T14:00:00	3	Temperatura mínima	22
186276	7	Sololá	716	San Marcos la Laguna 	11	San Marcos la laguna 	4	Abril	2023-04-04T00:00:00	2024-11-08T14:00:00	5	Humedad	69
186277	7	Sololá	716	San Marcos la Laguna 	11	San Marcos la laguna 	4	Abril	2023-04-04T00:00:00	2024-11-08T14:00:00	6	Velocidad del viento	9.7
186278	7	Sololá	716	San Marcos la Laguna 	11	San Marcos la laguna 	4	Abril	2023-04-04T00:00:00	2024-11-08T14:00:00	7	Dirección del viento	9.66
186279	7	Sololá	716	San Marcos la Laguna 	11	San Marcos la laguna 	4	Abril	2023-04-04T00:00:00	2024-11-08T14:00:00	1	Precipitación	0
186280	7	Sololá	716	San Marcos la Laguna 	11	San Marcos la laguna 	4	Abril	2023-04-04T00:00:00	2024-11-08T14:00:00	8	Radiación solar	527
186281	7	Sololá	716	San Marcos la Laguna 	11	San Marcos la laguna 	4	Abril	2023-04-04T00:00:00	2024-11-08T15:00:00	2	Temperatura media	21.7
186282	7	Sololá	716	San Marcos la Laguna 	11	San Marcos la laguna 	4	Abril	2023-04-04T00:00:00	2024-11-08T15:00:00	4	Temperatura máxima	22.6
186283	7	Sololá	716	San Marcos la Laguna 	11	San Marcos la laguna 	4	Abril	2023-04-04T00:00:00	2024-11-08T15:00:00	3	Temperatura mínima	21.7
186284	7	Sololá	716	San Marcos la Laguna 	11	San Marcos la laguna 	4	Abril	2023-04-04T00:00:00	2024-11-08T15:00:00	5	Humedad	71
186285	7	Sololá	716	San Marcos la Laguna 	11	San Marcos la laguna 	4	Abril	2023-04-04T00:00:00	2024-11-08T15:00:00	6	Velocidad del viento	6.4
186286	7	Sololá	716	San Marcos la Laguna 	11	San Marcos la laguna 	4	Abril	2023-04-04T00:00:00	2024-11-08T15:00:00	7	Dirección del viento	6.44
186287	7	Sololá	716	San Marcos la Laguna 	11	San Marcos la laguna 	4	Abril	2023-04-04T00:00:00	2024-11-08T15:00:00	1	Precipitación	0
186288	7	Sololá	716	San Marcos la Laguna 	11	San Marcos la laguna 	4	Abril	2023-04-04T00:00:00	2024-11-08T15:00:00	8	Radiación solar	243
186289	7	Sololá	716	San Marcos la Laguna 	11	San Marcos la laguna 	4	Abril	2023-04-04T00:00:00	2024-11-08T16:00:00	2	Temperatura media	21.7
186290	7	Sololá	716	San Marcos la Laguna 	11	San Marcos la laguna 	4	Abril	2023-04-04T00:00:00	2024-11-08T16:00:00	4	Temperatura máxima	22.1
186291	7	Sololá	716	San Marcos la Laguna 	11	San Marcos la laguna 	4	Abril	2023-04-04T00:00:00	2024-11-08T16:00:00	3	Temperatura mínima	21.7
186292	7	Sololá	716	San Marcos la Laguna 	11	San Marcos la laguna 	4	Abril	2023-04-04T00:00:00	2024-11-08T16:00:00	5	Humedad	72
186293	7	Sololá	716	San Marcos la Laguna 	11	San Marcos la laguna 	4	Abril	2023-04-04T00:00:00	2024-11-08T16:00:00	6	Velocidad del viento	3.2
186294	7	Sololá	716	San Marcos la Laguna 	11	San Marcos la laguna 	4	Abril	2023-04-04T00:00:00	2024-11-08T16:00:00	7	Dirección del viento	3.22
186295	7	Sololá	716	San Marcos la Laguna 	11	San Marcos la laguna 	4	Abril	2023-04-04T00:00:00	2024-11-08T16:00:00	1	Precipitación	0
186296	7	Sololá	716	San Marcos la Laguna 	11	San Marcos la laguna 	4	Abril	2023-04-04T00:00:00	2024-11-08T16:00:00	8	Radiación solar	177
186297	7	Sololá	716	San Marcos la Laguna 	11	San Marcos la laguna 	4	Abril	2023-04-04T00:00:00	2024-11-08T17:00:00	2	Temperatura media	21.5
186298	7	Sololá	716	San Marcos la Laguna 	11	San Marcos la laguna 	4	Abril	2023-04-04T00:00:00	2024-11-08T17:00:00	4	Temperatura máxima	21.8
186299	7	Sololá	716	San Marcos la Laguna 	11	San Marcos la laguna 	4	Abril	2023-04-04T00:00:00	2024-11-08T17:00:00	3	Temperatura mínima	21.4
186300	7	Sololá	716	San Marcos la Laguna 	11	San Marcos la laguna 	4	Abril	2023-04-04T00:00:00	2024-11-08T17:00:00	5	Humedad	72
186301	7	Sololá	716	San Marcos la Laguna 	11	San Marcos la laguna 	4	Abril	2023-04-04T00:00:00	2024-11-08T17:00:00	6	Velocidad del viento	3.2
186302	7	Sololá	716	San Marcos la Laguna 	11	San Marcos la laguna 	4	Abril	2023-04-04T00:00:00	2024-11-08T17:00:00	7	Dirección del viento	3.22
186303	7	Sololá	716	San Marcos la Laguna 	11	San Marcos la laguna 	4	Abril	2023-04-04T00:00:00	2024-11-08T17:00:00	1	Precipitación	0
186304	7	Sololá	716	San Marcos la Laguna 	11	San Marcos la laguna 	4	Abril	2023-04-04T00:00:00	2024-11-08T17:00:00	8	Radiación solar	89
186305	7	Sololá	716	San Marcos la Laguna 	11	San Marcos la laguna 	4	Abril	2023-04-04T00:00:00	2024-11-08T18:00:00	2	Temperatura media	20.8
186306	7	Sololá	716	San Marcos la Laguna 	11	San Marcos la laguna 	4	Abril	2023-04-04T00:00:00	2024-11-08T18:00:00	4	Temperatura máxima	21.5
186307	7	Sololá	716	San Marcos la Laguna 	11	San Marcos la laguna 	4	Abril	2023-04-04T00:00:00	2024-11-08T18:00:00	3	Temperatura mínima	20.8
186308	7	Sololá	716	San Marcos la Laguna 	11	San Marcos la laguna 	4	Abril	2023-04-04T00:00:00	2024-11-08T18:00:00	5	Humedad	77
186309	7	Sololá	716	San Marcos la Laguna 	11	San Marcos la laguna 	4	Abril	2023-04-04T00:00:00	2024-11-08T18:00:00	6	Velocidad del viento	4.8
186310	7	Sololá	716	San Marcos la Laguna 	11	San Marcos la laguna 	4	Abril	2023-04-04T00:00:00	2024-11-08T18:00:00	7	Dirección del viento	4.83
186311	7	Sololá	716	San Marcos la Laguna 	11	San Marcos la laguna 	4	Abril	2023-04-04T00:00:00	2024-11-08T18:00:00	1	Precipitación	0
186312	7	Sololá	716	San Marcos la Laguna 	11	San Marcos la laguna 	4	Abril	2023-04-04T00:00:00	2024-11-08T18:00:00	8	Radiación solar	32
186313	7	Sololá	716	San Marcos la Laguna 	11	San Marcos la laguna 	4	Abril	2023-04-04T00:00:00	2024-11-08T19:00:00	2	Temperatura media	20.5
186314	7	Sololá	716	San Marcos la Laguna 	11	San Marcos la laguna 	4	Abril	2023-04-04T00:00:00	2024-11-08T19:00:00	4	Temperatura máxima	20.8
186315	7	Sololá	716	San Marcos la Laguna 	11	San Marcos la laguna 	4	Abril	2023-04-04T00:00:00	2024-11-08T19:00:00	3	Temperatura mínima	20.4
186316	7	Sololá	716	San Marcos la Laguna 	11	San Marcos la laguna 	4	Abril	2023-04-04T00:00:00	2024-11-08T19:00:00	5	Humedad	80
186317	7	Sololá	716	San Marcos la Laguna 	11	San Marcos la laguna 	4	Abril	2023-04-04T00:00:00	2024-11-08T19:00:00	6	Velocidad del viento	6.4
186318	7	Sololá	716	San Marcos la Laguna 	11	San Marcos la laguna 	4	Abril	2023-04-04T00:00:00	2024-11-08T19:00:00	7	Dirección del viento	6.44
186319	7	Sololá	716	San Marcos la Laguna 	11	San Marcos la laguna 	4	Abril	2023-04-04T00:00:00	2024-11-08T19:00:00	1	Precipitación	0
186320	7	Sololá	716	San Marcos la Laguna 	11	San Marcos la laguna 	4	Abril	2023-04-04T00:00:00	2024-11-08T19:00:00	8	Radiación solar	0
186321	7	Sololá	716	San Marcos la Laguna 	11	San Marcos la laguna 	4	Abril	2023-04-04T00:00:00	2024-11-08T20:00:00	2	Temperatura media	20.2
186322	7	Sololá	716	San Marcos la Laguna 	11	San Marcos la laguna 	4	Abril	2023-04-04T00:00:00	2024-11-08T20:00:00	4	Temperatura máxima	20.5
186323	7	Sololá	716	San Marcos la Laguna 	11	San Marcos la laguna 	4	Abril	2023-04-04T00:00:00	2024-11-08T20:00:00	3	Temperatura mínima	20.2
186324	7	Sololá	716	San Marcos la Laguna 	11	San Marcos la laguna 	4	Abril	2023-04-04T00:00:00	2024-11-08T20:00:00	5	Humedad	80
186325	7	Sololá	716	San Marcos la Laguna 	11	San Marcos la laguna 	4	Abril	2023-04-04T00:00:00	2024-11-08T20:00:00	6	Velocidad del viento	1.6
186326	7	Sololá	716	San Marcos la Laguna 	11	San Marcos la laguna 	4	Abril	2023-04-04T00:00:00	2024-11-08T20:00:00	7	Dirección del viento	1.61
186327	7	Sololá	716	San Marcos la Laguna 	11	San Marcos la laguna 	4	Abril	2023-04-04T00:00:00	2024-11-08T20:00:00	1	Precipitación	0
186328	7	Sololá	716	San Marcos la Laguna 	11	San Marcos la laguna 	4	Abril	2023-04-04T00:00:00	2024-11-08T20:00:00	8	Radiación solar	0
186329	7	Sololá	716	San Marcos la Laguna 	11	San Marcos la laguna 	4	Abril	2023-04-04T00:00:00	2024-11-08T21:00:00	2	Temperatura media	18.7
186330	7	Sololá	716	San Marcos la Laguna 	11	San Marcos la laguna 	4	Abril	2023-04-04T00:00:00	2024-11-08T21:00:00	4	Temperatura máxima	20.2
186331	7	Sololá	716	San Marcos la Laguna 	11	San Marcos la laguna 	4	Abril	2023-04-04T00:00:00	2024-11-08T21:00:00	3	Temperatura mínima	18.7
186332	7	Sololá	716	San Marcos la Laguna 	11	San Marcos la laguna 	4	Abril	2023-04-04T00:00:00	2024-11-08T21:00:00	5	Humedad	83
186333	7	Sololá	716	San Marcos la Laguna 	11	San Marcos la laguna 	4	Abril	2023-04-04T00:00:00	2024-11-08T21:00:00	6	Velocidad del viento	3.2
186334	7	Sololá	716	San Marcos la Laguna 	11	San Marcos la laguna 	4	Abril	2023-04-04T00:00:00	2024-11-08T21:00:00	7	Dirección del viento	3.22
186335	7	Sololá	716	San Marcos la Laguna 	11	San Marcos la laguna 	4	Abril	2023-04-04T00:00:00	2024-11-08T21:00:00	1	Precipitación	0
186336	7	Sololá	716	San Marcos la Laguna 	11	San Marcos la laguna 	4	Abril	2023-04-04T00:00:00	2024-11-08T21:00:00	8	Radiación solar	0
186337	7	Sololá	716	San Marcos la Laguna 	11	San Marcos la laguna 	4	Abril	2023-04-04T00:00:00	2024-11-08T22:00:00	2	Temperatura media	18.2
186338	7	Sololá	716	San Marcos la Laguna 	11	San Marcos la laguna 	4	Abril	2023-04-04T00:00:00	2024-11-08T22:00:00	4	Temperatura máxima	18.7
186339	7	Sololá	716	San Marcos la Laguna 	11	San Marcos la laguna 	4	Abril	2023-04-04T00:00:00	2024-11-08T22:00:00	3	Temperatura mínima	18.1
186340	7	Sololá	716	San Marcos la Laguna 	11	San Marcos la laguna 	4	Abril	2023-04-04T00:00:00	2024-11-08T22:00:00	5	Humedad	84
186341	7	Sololá	716	San Marcos la Laguna 	11	San Marcos la laguna 	4	Abril	2023-04-04T00:00:00	2024-11-08T22:00:00	6	Velocidad del viento	4.8
186342	7	Sololá	716	San Marcos la Laguna 	11	San Marcos la laguna 	4	Abril	2023-04-04T00:00:00	2024-11-08T22:00:00	7	Dirección del viento	4.83
186343	7	Sololá	716	San Marcos la Laguna 	11	San Marcos la laguna 	4	Abril	2023-04-04T00:00:00	2024-11-08T22:00:00	1	Precipitación	0
186344	7	Sololá	716	San Marcos la Laguna 	11	San Marcos la laguna 	4	Abril	2023-04-04T00:00:00	2024-11-08T22:00:00	8	Radiación solar	0
186345	7	Sololá	716	San Marcos la Laguna 	11	San Marcos la laguna 	4	Abril	2023-04-04T00:00:00	2024-11-08T23:00:00	2	Temperatura media	17.3
186346	7	Sololá	716	San Marcos la Laguna 	11	San Marcos la laguna 	4	Abril	2023-04-04T00:00:00	2024-11-08T23:00:00	4	Temperatura máxima	18.2
186347	7	Sololá	716	San Marcos la Laguna 	11	San Marcos la laguna 	4	Abril	2023-04-04T00:00:00	2024-11-08T23:00:00	3	Temperatura mínima	17.3
186348	7	Sololá	716	San Marcos la Laguna 	11	San Marcos la laguna 	4	Abril	2023-04-04T00:00:00	2024-11-08T23:00:00	5	Humedad	85
186349	7	Sololá	716	San Marcos la Laguna 	11	San Marcos la laguna 	4	Abril	2023-04-04T00:00:00	2024-11-08T23:00:00	6	Velocidad del viento	6.4
186350	7	Sololá	716	San Marcos la Laguna 	11	San Marcos la laguna 	4	Abril	2023-04-04T00:00:00	2024-11-08T23:00:00	7	Dirección del viento	6.44
186351	7	Sololá	716	San Marcos la Laguna 	11	San Marcos la laguna 	4	Abril	2023-04-04T00:00:00	2024-11-08T23:00:00	1	Precipitación	0
186352	7	Sololá	716	San Marcos la Laguna 	11	San Marcos la laguna 	4	Abril	2023-04-04T00:00:00	2024-11-08T23:00:00	8	Radiación solar	0
186353	7	Sololá	716	San Marcos la Laguna 	11	San Marcos la laguna 	4	Abril	2023-05-04T00:00:00	2024-11-08T00:00:00	2	Temperatura media	16.9
186354	7	Sololá	716	San Marcos la Laguna 	11	San Marcos la laguna 	4	Abril	2023-05-04T00:00:00	2024-11-08T00:00:00	4	Temperatura máxima	17.6
186355	7	Sololá	716	San Marcos la Laguna 	11	San Marcos la laguna 	4	Abril	2023-05-04T00:00:00	2024-11-08T00:00:00	3	Temperatura mínima	16.9
186356	7	Sololá	716	San Marcos la Laguna 	11	San Marcos la laguna 	4	Abril	2023-05-04T00:00:00	2024-11-08T00:00:00	5	Humedad	86
186357	7	Sololá	716	San Marcos la Laguna 	11	San Marcos la laguna 	4	Abril	2023-05-04T00:00:00	2024-11-08T00:00:00	6	Velocidad del viento	4.8
186358	7	Sololá	716	San Marcos la Laguna 	11	San Marcos la laguna 	4	Abril	2023-05-04T00:00:00	2024-11-08T00:00:00	7	Dirección del viento	4.83
186359	7	Sololá	716	San Marcos la Laguna 	11	San Marcos la laguna 	4	Abril	2023-05-04T00:00:00	2024-11-08T00:00:00	1	Precipitación	0
186360	7	Sololá	716	San Marcos la Laguna 	11	San Marcos la laguna 	4	Abril	2023-05-04T00:00:00	2024-11-08T00:00:00	8	Radiación solar	0
186361	7	Sololá	716	San Marcos la Laguna 	11	San Marcos la laguna 	4	Abril	2023-05-04T00:00:00	2024-11-08T01:00:00	2	Temperatura media	16.2
186362	7	Sololá	716	San Marcos la Laguna 	11	San Marcos la laguna 	4	Abril	2023-05-04T00:00:00	2024-11-08T01:00:00	4	Temperatura máxima	16.9
186363	7	Sololá	716	San Marcos la Laguna 	11	San Marcos la laguna 	4	Abril	2023-05-04T00:00:00	2024-11-08T01:00:00	3	Temperatura mínima	16.2
186364	7	Sololá	716	San Marcos la Laguna 	11	San Marcos la laguna 	4	Abril	2023-05-04T00:00:00	2024-11-08T01:00:00	5	Humedad	87
186365	7	Sololá	716	San Marcos la Laguna 	11	San Marcos la laguna 	4	Abril	2023-05-04T00:00:00	2024-11-08T01:00:00	6	Velocidad del viento	6.4
186366	7	Sololá	716	San Marcos la Laguna 	11	San Marcos la laguna 	4	Abril	2023-05-04T00:00:00	2024-11-08T01:00:00	7	Dirección del viento	6.44
186367	7	Sololá	716	San Marcos la Laguna 	11	San Marcos la laguna 	4	Abril	2023-05-04T00:00:00	2024-11-08T01:00:00	1	Precipitación	0
186368	7	Sololá	716	San Marcos la Laguna 	11	San Marcos la laguna 	4	Abril	2023-05-04T00:00:00	2024-11-08T01:00:00	8	Radiación solar	0
186369	7	Sololá	716	San Marcos la Laguna 	11	San Marcos la laguna 	4	Abril	2023-05-04T00:00:00	2024-11-08T02:00:00	2	Temperatura media	16.3
186370	7	Sololá	716	San Marcos la Laguna 	11	San Marcos la laguna 	4	Abril	2023-05-04T00:00:00	2024-11-08T02:00:00	4	Temperatura máxima	16.4
186371	7	Sololá	716	San Marcos la Laguna 	11	San Marcos la laguna 	4	Abril	2023-05-04T00:00:00	2024-11-08T02:00:00	3	Temperatura mínima	15.9
186372	7	Sololá	716	San Marcos la Laguna 	11	San Marcos la laguna 	4	Abril	2023-05-04T00:00:00	2024-11-08T02:00:00	5	Humedad	86
186373	7	Sololá	716	San Marcos la Laguna 	11	San Marcos la laguna 	4	Abril	2023-05-04T00:00:00	2024-11-08T02:00:00	6	Velocidad del viento	4.8
186374	7	Sololá	716	San Marcos la Laguna 	11	San Marcos la laguna 	4	Abril	2023-05-04T00:00:00	2024-11-08T02:00:00	7	Dirección del viento	4.83
186375	7	Sololá	716	San Marcos la Laguna 	11	San Marcos la laguna 	4	Abril	2023-05-04T00:00:00	2024-11-08T02:00:00	1	Precipitación	0
186376	7	Sololá	716	San Marcos la Laguna 	11	San Marcos la laguna 	4	Abril	2023-05-04T00:00:00	2024-11-08T02:00:00	8	Radiación solar	0
186377	7	Sololá	716	San Marcos la Laguna 	11	San Marcos la laguna 	4	Abril	2023-05-04T00:00:00	2024-11-08T03:00:00	2	Temperatura media	15.6
186378	7	Sololá	716	San Marcos la Laguna 	11	San Marcos la laguna 	4	Abril	2023-05-04T00:00:00	2024-11-08T03:00:00	4	Temperatura máxima	16.3
186379	7	Sololá	716	San Marcos la Laguna 	11	San Marcos la laguna 	4	Abril	2023-05-04T00:00:00	2024-11-08T03:00:00	3	Temperatura mínima	15.6
186380	7	Sololá	716	San Marcos la Laguna 	11	San Marcos la laguna 	4	Abril	2023-05-04T00:00:00	2024-11-08T03:00:00	5	Humedad	88
186381	7	Sololá	716	San Marcos la Laguna 	11	San Marcos la laguna 	4	Abril	2023-05-04T00:00:00	2024-11-08T03:00:00	6	Velocidad del viento	6.4
186382	7	Sololá	716	San Marcos la Laguna 	11	San Marcos la laguna 	4	Abril	2023-05-04T00:00:00	2024-11-08T03:00:00	7	Dirección del viento	6.44
186383	7	Sololá	716	San Marcos la Laguna 	11	San Marcos la laguna 	4	Abril	2023-05-04T00:00:00	2024-11-08T03:00:00	1	Precipitación	0
186384	7	Sololá	716	San Marcos la Laguna 	11	San Marcos la laguna 	4	Abril	2023-05-04T00:00:00	2024-11-08T03:00:00	8	Radiación solar	0
186385	7	Sololá	716	San Marcos la Laguna 	11	San Marcos la laguna 	4	Abril	2023-05-04T00:00:00	2024-11-08T04:00:00	2	Temperatura media	15.2
186386	7	Sololá	716	San Marcos la Laguna 	11	San Marcos la laguna 	4	Abril	2023-05-04T00:00:00	2024-11-08T04:00:00	4	Temperatura máxima	15.6
186387	7	Sololá	716	San Marcos la Laguna 	11	San Marcos la laguna 	4	Abril	2023-05-04T00:00:00	2024-11-08T04:00:00	3	Temperatura mínima	15.2
186388	7	Sololá	716	San Marcos la Laguna 	11	San Marcos la laguna 	4	Abril	2023-05-04T00:00:00	2024-11-08T04:00:00	5	Humedad	86
186389	7	Sololá	716	San Marcos la Laguna 	11	San Marcos la laguna 	4	Abril	2023-05-04T00:00:00	2024-11-08T04:00:00	6	Velocidad del viento	6.4
186390	7	Sololá	716	San Marcos la Laguna 	11	San Marcos la laguna 	4	Abril	2023-05-04T00:00:00	2024-11-08T04:00:00	7	Dirección del viento	6.44
186391	7	Sololá	716	San Marcos la Laguna 	11	San Marcos la laguna 	4	Abril	2023-05-04T00:00:00	2024-11-08T04:00:00	1	Precipitación	0
186392	7	Sololá	716	San Marcos la Laguna 	11	San Marcos la laguna 	4	Abril	2023-05-04T00:00:00	2024-11-08T04:00:00	8	Radiación solar	0
186393	7	Sololá	716	San Marcos la Laguna 	11	San Marcos la laguna 	4	Abril	2023-05-04T00:00:00	2024-11-08T05:00:00	2	Temperatura media	14.9
186394	7	Sololá	716	San Marcos la Laguna 	11	San Marcos la laguna 	4	Abril	2023-05-04T00:00:00	2024-11-08T05:00:00	4	Temperatura máxima	15.2
186395	7	Sololá	716	San Marcos la Laguna 	11	San Marcos la laguna 	4	Abril	2023-05-04T00:00:00	2024-11-08T05:00:00	3	Temperatura mínima	14.9
186396	7	Sololá	716	San Marcos la Laguna 	11	San Marcos la laguna 	4	Abril	2023-05-04T00:00:00	2024-11-08T05:00:00	5	Humedad	88
186397	7	Sololá	716	San Marcos la Laguna 	11	San Marcos la laguna 	4	Abril	2023-05-04T00:00:00	2024-11-08T05:00:00	6	Velocidad del viento	6.4
186398	7	Sololá	716	San Marcos la Laguna 	11	San Marcos la laguna 	4	Abril	2023-05-04T00:00:00	2024-11-08T05:00:00	7	Dirección del viento	6.44
186399	7	Sololá	716	San Marcos la Laguna 	11	San Marcos la laguna 	4	Abril	2023-05-04T00:00:00	2024-11-08T05:00:00	1	Precipitación	0
186400	7	Sololá	716	San Marcos la Laguna 	11	San Marcos la laguna 	4	Abril	2023-05-04T00:00:00	2024-11-08T05:00:00	8	Radiación solar	0
186401	7	Sololá	716	San Marcos la Laguna 	11	San Marcos la laguna 	4	Abril	2023-05-04T00:00:00	2024-11-08T06:00:00	2	Temperatura media	14.3
186402	7	Sololá	716	San Marcos la Laguna 	11	San Marcos la laguna 	4	Abril	2023-05-04T00:00:00	2024-11-08T06:00:00	4	Temperatura máxima	14.9
186403	7	Sololá	716	San Marcos la Laguna 	11	San Marcos la laguna 	4	Abril	2023-05-04T00:00:00	2024-11-08T06:00:00	3	Temperatura mínima	14.3
186404	7	Sololá	716	San Marcos la Laguna 	11	San Marcos la laguna 	4	Abril	2023-05-04T00:00:00	2024-11-08T06:00:00	5	Humedad	86
186405	7	Sololá	716	San Marcos la Laguna 	11	San Marcos la laguna 	4	Abril	2023-05-04T00:00:00	2024-11-08T06:00:00	6	Velocidad del viento	6.4
186406	7	Sololá	716	San Marcos la Laguna 	11	San Marcos la laguna 	4	Abril	2023-05-04T00:00:00	2024-11-08T06:00:00	7	Dirección del viento	6.44
186407	7	Sololá	716	San Marcos la Laguna 	11	San Marcos la laguna 	4	Abril	2023-05-04T00:00:00	2024-11-08T06:00:00	1	Precipitación	0
186408	7	Sololá	716	San Marcos la Laguna 	11	San Marcos la laguna 	4	Abril	2023-05-04T00:00:00	2024-11-08T06:00:00	8	Radiación solar	0
186409	7	Sololá	716	San Marcos la Laguna 	11	San Marcos la laguna 	4	Abril	2023-05-04T00:00:00	2024-11-08T07:00:00	2	Temperatura media	15.3
186410	7	Sololá	716	San Marcos la Laguna 	11	San Marcos la laguna 	4	Abril	2023-05-04T00:00:00	2024-11-08T07:00:00	4	Temperatura máxima	15.3
186411	7	Sololá	716	San Marcos la Laguna 	11	San Marcos la laguna 	4	Abril	2023-05-04T00:00:00	2024-11-08T07:00:00	3	Temperatura mínima	14.3
186412	7	Sololá	716	San Marcos la Laguna 	11	San Marcos la laguna 	4	Abril	2023-05-04T00:00:00	2024-11-08T07:00:00	5	Humedad	87
186413	7	Sololá	716	San Marcos la Laguna 	11	San Marcos la laguna 	4	Abril	2023-05-04T00:00:00	2024-11-08T07:00:00	6	Velocidad del viento	6.4
186414	7	Sololá	716	San Marcos la Laguna 	11	San Marcos la laguna 	4	Abril	2023-05-04T00:00:00	2024-11-08T07:00:00	7	Dirección del viento	6.44
186415	7	Sololá	716	San Marcos la Laguna 	11	San Marcos la laguna 	4	Abril	2023-05-04T00:00:00	2024-11-08T07:00:00	1	Precipitación	0
186416	7	Sololá	716	San Marcos la Laguna 	11	San Marcos la laguna 	4	Abril	2023-05-04T00:00:00	2024-11-08T07:00:00	8	Radiación solar	40
186417	7	Sololá	716	San Marcos la Laguna 	11	San Marcos la laguna 	4	Abril	2023-05-04T00:00:00	2024-11-08T08:00:00	2	Temperatura media	19.3
186418	7	Sololá	716	San Marcos la Laguna 	11	San Marcos la laguna 	4	Abril	2023-05-04T00:00:00	2024-11-08T08:00:00	4	Temperatura máxima	19.3
186419	7	Sololá	716	San Marcos la Laguna 	11	San Marcos la laguna 	4	Abril	2023-05-04T00:00:00	2024-11-08T08:00:00	3	Temperatura mínima	15.3
186420	7	Sololá	716	San Marcos la Laguna 	11	San Marcos la laguna 	4	Abril	2023-05-04T00:00:00	2024-11-08T08:00:00	5	Humedad	80
186421	7	Sololá	716	San Marcos la Laguna 	11	San Marcos la laguna 	4	Abril	2023-05-04T00:00:00	2024-11-08T08:00:00	6	Velocidad del viento	3.2
186422	7	Sololá	716	San Marcos la Laguna 	11	San Marcos la laguna 	4	Abril	2023-05-04T00:00:00	2024-11-08T08:00:00	7	Dirección del viento	3.22
186423	7	Sololá	716	San Marcos la Laguna 	11	San Marcos la laguna 	4	Abril	2023-05-04T00:00:00	2024-11-08T08:00:00	1	Precipitación	0
186424	7	Sololá	716	San Marcos la Laguna 	11	San Marcos la laguna 	4	Abril	2023-05-04T00:00:00	2024-11-08T08:00:00	8	Radiación solar	196
186425	7	Sololá	716	San Marcos la Laguna 	11	San Marcos la laguna 	4	Abril	2023-05-04T00:00:00	2024-11-08T09:00:00	2	Temperatura media	20.4
186426	7	Sololá	716	San Marcos la Laguna 	11	San Marcos la laguna 	4	Abril	2023-05-04T00:00:00	2024-11-08T09:00:00	4	Temperatura máxima	20.4
186427	7	Sololá	716	San Marcos la Laguna 	11	San Marcos la laguna 	4	Abril	2023-05-04T00:00:00	2024-11-08T09:00:00	3	Temperatura mínima	19.3
186428	7	Sololá	716	San Marcos la Laguna 	11	San Marcos la laguna 	4	Abril	2023-05-04T00:00:00	2024-11-08T09:00:00	5	Humedad	77
186429	7	Sololá	716	San Marcos la Laguna 	11	San Marcos la laguna 	4	Abril	2023-05-04T00:00:00	2024-11-08T09:00:00	6	Velocidad del viento	3.2
186430	7	Sololá	716	San Marcos la Laguna 	11	San Marcos la laguna 	4	Abril	2023-05-04T00:00:00	2024-11-08T09:00:00	7	Dirección del viento	3.22
186431	7	Sololá	716	San Marcos la Laguna 	11	San Marcos la laguna 	4	Abril	2023-05-04T00:00:00	2024-11-08T09:00:00	1	Precipitación	0
186432	7	Sololá	716	San Marcos la Laguna 	11	San Marcos la laguna 	4	Abril	2023-05-04T00:00:00	2024-11-08T09:00:00	8	Radiación solar	448
186433	7	Sololá	716	San Marcos la Laguna 	11	San Marcos la laguna 	4	Abril	2023-05-04T00:00:00	2024-11-08T10:00:00	2	Temperatura media	21.3
186434	7	Sololá	716	San Marcos la Laguna 	11	San Marcos la laguna 	4	Abril	2023-05-04T00:00:00	2024-11-08T10:00:00	4	Temperatura máxima	21.3
186435	7	Sololá	716	San Marcos la Laguna 	11	San Marcos la laguna 	4	Abril	2023-05-04T00:00:00	2024-11-08T10:00:00	3	Temperatura mínima	20.4
186436	7	Sololá	716	San Marcos la Laguna 	11	San Marcos la laguna 	4	Abril	2023-05-04T00:00:00	2024-11-08T10:00:00	5	Humedad	75
186437	7	Sololá	716	San Marcos la Laguna 	11	San Marcos la laguna 	4	Abril	2023-05-04T00:00:00	2024-11-08T10:00:00	6	Velocidad del viento	4.8
186438	7	Sololá	716	San Marcos la Laguna 	11	San Marcos la laguna 	4	Abril	2023-05-04T00:00:00	2024-11-08T10:00:00	7	Dirección del viento	4.83
186439	7	Sololá	716	San Marcos la Laguna 	11	San Marcos la laguna 	4	Abril	2023-05-04T00:00:00	2024-11-08T10:00:00	1	Precipitación	0
186440	7	Sololá	716	San Marcos la Laguna 	11	San Marcos la laguna 	4	Abril	2023-05-04T00:00:00	2024-11-08T10:00:00	8	Radiación solar	663
186441	7	Sololá	716	San Marcos la Laguna 	11	San Marcos la laguna 	4	Abril	2023-05-04T00:00:00	2024-11-08T11:00:00	2	Temperatura media	22.3
186442	7	Sololá	716	San Marcos la Laguna 	11	San Marcos la laguna 	4	Abril	2023-05-04T00:00:00	2024-11-08T11:00:00	4	Temperatura máxima	22.8
186443	7	Sololá	716	San Marcos la Laguna 	11	San Marcos la laguna 	4	Abril	2023-05-04T00:00:00	2024-11-08T11:00:00	3	Temperatura mínima	21.1
186444	7	Sololá	716	San Marcos la Laguna 	11	San Marcos la laguna 	4	Abril	2023-05-04T00:00:00	2024-11-08T11:00:00	5	Humedad	61
186445	7	Sololá	716	San Marcos la Laguna 	11	San Marcos la laguna 	4	Abril	2023-05-04T00:00:00	2024-11-08T11:00:00	6	Velocidad del viento	9.7
186446	7	Sololá	716	San Marcos la Laguna 	11	San Marcos la laguna 	4	Abril	2023-05-04T00:00:00	2024-11-08T11:00:00	7	Dirección del viento	9.66
186447	7	Sololá	716	San Marcos la Laguna 	11	San Marcos la laguna 	4	Abril	2023-05-04T00:00:00	2024-11-08T11:00:00	1	Precipitación	0
186448	7	Sololá	716	San Marcos la Laguna 	11	San Marcos la laguna 	4	Abril	2023-05-04T00:00:00	2024-11-08T11:00:00	8	Radiación solar	796
186449	7	Sololá	716	San Marcos la Laguna 	11	San Marcos la laguna 	4	Abril	2023-05-04T00:00:00	2024-11-08T12:00:00	2	Temperatura media	22.8
186450	7	Sololá	716	San Marcos la Laguna 	11	San Marcos la laguna 	4	Abril	2023-05-04T00:00:00	2024-11-08T12:00:00	4	Temperatura máxima	23.2
186451	7	Sololá	716	San Marcos la Laguna 	11	San Marcos la laguna 	4	Abril	2023-05-04T00:00:00	2024-11-08T12:00:00	3	Temperatura mínima	22.3
186452	7	Sololá	716	San Marcos la Laguna 	11	San Marcos la laguna 	4	Abril	2023-05-04T00:00:00	2024-11-08T12:00:00	5	Humedad	64
186453	7	Sololá	716	San Marcos la Laguna 	11	San Marcos la laguna 	4	Abril	2023-05-04T00:00:00	2024-11-08T12:00:00	6	Velocidad del viento	11.3
186454	7	Sololá	716	San Marcos la Laguna 	11	San Marcos la laguna 	4	Abril	2023-05-04T00:00:00	2024-11-08T12:00:00	7	Dirección del viento	11.27
186455	7	Sololá	716	San Marcos la Laguna 	11	San Marcos la laguna 	4	Abril	2023-05-04T00:00:00	2024-11-08T12:00:00	1	Precipitación	0
186456	7	Sololá	716	San Marcos la Laguna 	11	San Marcos la laguna 	4	Abril	2023-05-04T00:00:00	2024-11-08T12:00:00	8	Radiación solar	893
186457	7	Sololá	716	San Marcos la Laguna 	11	San Marcos la laguna 	4	Abril	2023-05-04T00:00:00	2024-11-08T13:00:00	2	Temperatura media	22.7
186458	7	Sololá	716	San Marcos la Laguna 	11	San Marcos la laguna 	4	Abril	2023-05-04T00:00:00	2024-11-08T13:00:00	4	Temperatura máxima	22.9
186459	7	Sololá	716	San Marcos la Laguna 	11	San Marcos la laguna 	4	Abril	2023-05-04T00:00:00	2024-11-08T13:00:00	3	Temperatura mínima	22.4
186460	7	Sololá	716	San Marcos la Laguna 	11	San Marcos la laguna 	4	Abril	2023-05-04T00:00:00	2024-11-08T13:00:00	5	Humedad	69
186461	7	Sololá	716	San Marcos la Laguna 	11	San Marcos la laguna 	4	Abril	2023-05-04T00:00:00	2024-11-08T13:00:00	6	Velocidad del viento	14.5
186462	7	Sololá	716	San Marcos la Laguna 	11	San Marcos la laguna 	4	Abril	2023-05-04T00:00:00	2024-11-08T13:00:00	7	Dirección del viento	14.48
186463	7	Sololá	716	San Marcos la Laguna 	11	San Marcos la laguna 	4	Abril	2023-05-04T00:00:00	2024-11-08T13:00:00	1	Precipitación	0
186464	7	Sololá	716	San Marcos la Laguna 	11	San Marcos la laguna 	4	Abril	2023-05-04T00:00:00	2024-11-08T13:00:00	8	Radiación solar	917
186465	7	Sololá	716	San Marcos la Laguna 	11	San Marcos la laguna 	4	Abril	2023-05-04T00:00:00	2024-11-08T14:00:00	2	Temperatura media	22.8
186466	7	Sololá	716	San Marcos la Laguna 	11	San Marcos la laguna 	4	Abril	2023-05-04T00:00:00	2024-11-08T14:00:00	4	Temperatura máxima	23.2
186467	7	Sololá	716	San Marcos la Laguna 	11	San Marcos la laguna 	4	Abril	2023-05-04T00:00:00	2024-11-08T14:00:00	3	Temperatura mínima	22.7
186468	7	Sololá	716	San Marcos la Laguna 	11	San Marcos la laguna 	4	Abril	2023-05-04T00:00:00	2024-11-08T14:00:00	5	Humedad	72
186469	7	Sololá	716	San Marcos la Laguna 	11	San Marcos la laguna 	4	Abril	2023-05-04T00:00:00	2024-11-08T14:00:00	6	Velocidad del viento	12.9
186470	7	Sololá	716	San Marcos la Laguna 	11	San Marcos la laguna 	4	Abril	2023-05-04T00:00:00	2024-11-08T14:00:00	7	Dirección del viento	12.87
186471	7	Sololá	716	San Marcos la Laguna 	11	San Marcos la laguna 	4	Abril	2023-05-04T00:00:00	2024-11-08T14:00:00	1	Precipitación	0
186472	7	Sololá	716	San Marcos la Laguna 	11	San Marcos la laguna 	4	Abril	2023-05-04T00:00:00	2024-11-08T14:00:00	8	Radiación solar	848
186473	7	Sololá	716	San Marcos la Laguna 	11	San Marcos la laguna 	4	Abril	2023-05-04T00:00:00	2024-11-08T15:00:00	2	Temperatura media	22.6
186474	7	Sololá	716	San Marcos la Laguna 	11	San Marcos la laguna 	4	Abril	2023-05-04T00:00:00	2024-11-08T15:00:00	4	Temperatura máxima	23.2
186475	7	Sololá	716	San Marcos la Laguna 	11	San Marcos la laguna 	4	Abril	2023-05-04T00:00:00	2024-11-08T15:00:00	3	Temperatura mínima	22.5
186476	7	Sololá	716	San Marcos la Laguna 	11	San Marcos la laguna 	4	Abril	2023-05-04T00:00:00	2024-11-08T15:00:00	5	Humedad	73
186477	7	Sololá	716	San Marcos la Laguna 	11	San Marcos la laguna 	4	Abril	2023-05-04T00:00:00	2024-11-08T15:00:00	6	Velocidad del viento	12.9
186478	7	Sololá	716	San Marcos la Laguna 	11	San Marcos la laguna 	4	Abril	2023-05-04T00:00:00	2024-11-08T15:00:00	7	Dirección del viento	12.87
186479	7	Sololá	716	San Marcos la Laguna 	11	San Marcos la laguna 	4	Abril	2023-05-04T00:00:00	2024-11-08T15:00:00	1	Precipitación	0
186480	7	Sololá	716	San Marcos la Laguna 	11	San Marcos la laguna 	4	Abril	2023-05-04T00:00:00	2024-11-08T15:00:00	8	Radiación solar	664
186481	7	Sololá	716	San Marcos la Laguna 	11	San Marcos la laguna 	4	Abril	2023-05-04T00:00:00	2024-11-08T16:00:00	2	Temperatura media	22.1
186482	7	Sololá	716	San Marcos la Laguna 	11	San Marcos la laguna 	4	Abril	2023-05-04T00:00:00	2024-11-08T16:00:00	4	Temperatura máxima	22.7
186483	7	Sololá	716	San Marcos la Laguna 	11	San Marcos la laguna 	4	Abril	2023-05-04T00:00:00	2024-11-08T16:00:00	3	Temperatura mínima	22
186484	7	Sololá	716	San Marcos la Laguna 	11	San Marcos la laguna 	4	Abril	2023-05-04T00:00:00	2024-11-08T16:00:00	5	Humedad	77
186485	7	Sololá	716	San Marcos la Laguna 	11	San Marcos la laguna 	4	Abril	2023-05-04T00:00:00	2024-11-08T16:00:00	6	Velocidad del viento	11.3
186486	7	Sololá	716	San Marcos la Laguna 	11	San Marcos la laguna 	4	Abril	2023-05-04T00:00:00	2024-11-08T16:00:00	7	Dirección del viento	11.27
186487	7	Sololá	716	San Marcos la Laguna 	11	San Marcos la laguna 	4	Abril	2023-05-04T00:00:00	2024-11-08T16:00:00	1	Precipitación	0
186488	7	Sololá	716	San Marcos la Laguna 	11	San Marcos la laguna 	4	Abril	2023-05-04T00:00:00	2024-11-08T16:00:00	8	Radiación solar	335
186489	7	Sololá	716	San Marcos la Laguna 	11	San Marcos la laguna 	4	Abril	2023-05-04T00:00:00	2024-11-08T17:00:00	2	Temperatura media	21.8
186490	7	Sololá	716	San Marcos la Laguna 	11	San Marcos la laguna 	4	Abril	2023-05-04T00:00:00	2024-11-08T17:00:00	4	Temperatura máxima	22.1
186491	7	Sololá	716	San Marcos la Laguna 	11	San Marcos la laguna 	4	Abril	2023-05-04T00:00:00	2024-11-08T17:00:00	3	Temperatura mínima	21.8
186492	7	Sololá	716	San Marcos la Laguna 	11	San Marcos la laguna 	4	Abril	2023-05-04T00:00:00	2024-11-08T17:00:00	5	Humedad	80
186493	7	Sololá	716	San Marcos la Laguna 	11	San Marcos la laguna 	4	Abril	2023-05-04T00:00:00	2024-11-08T17:00:00	6	Velocidad del viento	8
186494	7	Sololá	716	San Marcos la Laguna 	11	San Marcos la laguna 	4	Abril	2023-05-04T00:00:00	2024-11-08T17:00:00	7	Dirección del viento	8.05
186495	7	Sololá	716	San Marcos la Laguna 	11	San Marcos la laguna 	4	Abril	2023-05-04T00:00:00	2024-11-08T17:00:00	1	Precipitación	0
186496	7	Sololá	716	San Marcos la Laguna 	11	San Marcos la laguna 	4	Abril	2023-05-04T00:00:00	2024-11-08T17:00:00	8	Radiación solar	129
186497	7	Sololá	716	San Marcos la Laguna 	11	San Marcos la laguna 	4	Abril	2023-05-04T00:00:00	2024-11-08T18:00:00	2	Temperatura media	21.1
186498	7	Sololá	716	San Marcos la Laguna 	11	San Marcos la laguna 	4	Abril	2023-05-04T00:00:00	2024-11-08T18:00:00	4	Temperatura máxima	21.8
186499	7	Sololá	716	San Marcos la Laguna 	11	San Marcos la laguna 	4	Abril	2023-05-04T00:00:00	2024-11-08T18:00:00	3	Temperatura mínima	21.1
186500	7	Sololá	716	San Marcos la Laguna 	11	San Marcos la laguna 	4	Abril	2023-05-04T00:00:00	2024-11-08T18:00:00	5	Humedad	83
186501	7	Sololá	716	San Marcos la Laguna 	11	San Marcos la laguna 	4	Abril	2023-05-04T00:00:00	2024-11-08T18:00:00	6	Velocidad del viento	8
186502	7	Sololá	716	San Marcos la Laguna 	11	San Marcos la laguna 	4	Abril	2023-05-04T00:00:00	2024-11-08T18:00:00	7	Dirección del viento	8.05
186503	7	Sololá	716	San Marcos la Laguna 	11	San Marcos la laguna 	4	Abril	2023-05-04T00:00:00	2024-11-08T18:00:00	1	Precipitación	0
186504	7	Sololá	716	San Marcos la Laguna 	11	San Marcos la laguna 	4	Abril	2023-05-04T00:00:00	2024-11-08T18:00:00	8	Radiación solar	32
186505	7	Sololá	716	San Marcos la Laguna 	11	San Marcos la laguna 	4	Abril	2023-05-04T00:00:00	2024-11-08T19:00:00	2	Temperatura media	20.7
186506	7	Sololá	716	San Marcos la Laguna 	11	San Marcos la laguna 	4	Abril	2023-05-04T00:00:00	2024-11-08T19:00:00	4	Temperatura máxima	21.1
186507	7	Sololá	716	San Marcos la Laguna 	11	San Marcos la laguna 	4	Abril	2023-05-04T00:00:00	2024-11-08T19:00:00	3	Temperatura mínima	20.6
186508	7	Sololá	716	San Marcos la Laguna 	11	San Marcos la laguna 	4	Abril	2023-05-04T00:00:00	2024-11-08T19:00:00	5	Humedad	84
186509	7	Sololá	716	San Marcos la Laguna 	11	San Marcos la laguna 	4	Abril	2023-05-04T00:00:00	2024-11-08T19:00:00	6	Velocidad del viento	6.4
186510	7	Sololá	716	San Marcos la Laguna 	11	San Marcos la laguna 	4	Abril	2023-05-04T00:00:00	2024-11-08T19:00:00	7	Dirección del viento	6.44
186511	7	Sololá	716	San Marcos la Laguna 	11	San Marcos la laguna 	4	Abril	2023-05-04T00:00:00	2024-11-08T19:00:00	1	Precipitación	0
186512	7	Sololá	716	San Marcos la Laguna 	11	San Marcos la laguna 	4	Abril	2023-05-04T00:00:00	2024-11-08T19:00:00	8	Radiación solar	0
186513	7	Sololá	716	San Marcos la Laguna 	11	San Marcos la laguna 	4	Abril	2023-05-04T00:00:00	2024-11-08T20:00:00	2	Temperatura media	20.6
186514	7	Sololá	716	San Marcos la Laguna 	11	San Marcos la laguna 	4	Abril	2023-05-04T00:00:00	2024-11-08T20:00:00	4	Temperatura máxima	20.9
186515	7	Sololá	716	San Marcos la Laguna 	11	San Marcos la laguna 	4	Abril	2023-05-04T00:00:00	2024-11-08T20:00:00	3	Temperatura mínima	20.6
186516	7	Sololá	716	San Marcos la Laguna 	11	San Marcos la laguna 	4	Abril	2023-05-04T00:00:00	2024-11-08T20:00:00	5	Humedad	85
186517	7	Sololá	716	San Marcos la Laguna 	11	San Marcos la laguna 	4	Abril	2023-05-04T00:00:00	2024-11-08T20:00:00	6	Velocidad del viento	1.6
186518	7	Sololá	716	San Marcos la Laguna 	11	San Marcos la laguna 	4	Abril	2023-05-04T00:00:00	2024-11-08T20:00:00	7	Dirección del viento	1.61
186519	7	Sololá	716	San Marcos la Laguna 	11	San Marcos la laguna 	4	Abril	2023-05-04T00:00:00	2024-11-08T20:00:00	1	Precipitación	0
186520	7	Sololá	716	San Marcos la Laguna 	11	San Marcos la laguna 	4	Abril	2023-05-04T00:00:00	2024-11-08T20:00:00	8	Radiación solar	0
186521	7	Sololá	716	San Marcos la Laguna 	11	San Marcos la laguna 	4	Abril	2023-05-04T00:00:00	2024-11-08T21:00:00	2	Temperatura media	20.2
186522	7	Sololá	716	San Marcos la Laguna 	11	San Marcos la laguna 	4	Abril	2023-05-04T00:00:00	2024-11-08T21:00:00	4	Temperatura máxima	20.7
186523	7	Sololá	716	San Marcos la Laguna 	11	San Marcos la laguna 	4	Abril	2023-05-04T00:00:00	2024-11-08T21:00:00	3	Temperatura mínima	20.2
186524	7	Sololá	716	San Marcos la Laguna 	11	San Marcos la laguna 	4	Abril	2023-05-04T00:00:00	2024-11-08T21:00:00	5	Humedad	88
186525	7	Sololá	716	San Marcos la Laguna 	11	San Marcos la laguna 	4	Abril	2023-05-04T00:00:00	2024-11-08T21:00:00	6	Velocidad del viento	4.8
186526	7	Sololá	716	San Marcos la Laguna 	11	San Marcos la laguna 	4	Abril	2023-05-04T00:00:00	2024-11-08T21:00:00	7	Dirección del viento	4.83
186527	7	Sololá	716	San Marcos la Laguna 	11	San Marcos la laguna 	4	Abril	2023-05-04T00:00:00	2024-11-08T21:00:00	1	Precipitación	0
186528	7	Sololá	716	San Marcos la Laguna 	11	San Marcos la laguna 	4	Abril	2023-05-04T00:00:00	2024-11-08T21:00:00	8	Radiación solar	0
186529	7	Sololá	716	San Marcos la Laguna 	11	San Marcos la laguna 	4	Abril	2023-05-04T00:00:00	2024-11-08T22:00:00	2	Temperatura media	19.9
186530	7	Sololá	716	San Marcos la Laguna 	11	San Marcos la laguna 	4	Abril	2023-05-04T00:00:00	2024-11-08T22:00:00	4	Temperatura máxima	20.3
186531	7	Sololá	716	San Marcos la Laguna 	11	San Marcos la laguna 	4	Abril	2023-05-04T00:00:00	2024-11-08T22:00:00	3	Temperatura mínima	19.9
186532	7	Sololá	716	San Marcos la Laguna 	11	San Marcos la laguna 	4	Abril	2023-05-04T00:00:00	2024-11-08T22:00:00	5	Humedad	87
186533	7	Sololá	716	San Marcos la Laguna 	11	San Marcos la laguna 	4	Abril	2023-05-04T00:00:00	2024-11-08T22:00:00	6	Velocidad del viento	3.2
186534	7	Sololá	716	San Marcos la Laguna 	11	San Marcos la laguna 	4	Abril	2023-05-04T00:00:00	2024-11-08T22:00:00	7	Dirección del viento	3.22
186535	7	Sololá	716	San Marcos la Laguna 	11	San Marcos la laguna 	4	Abril	2023-05-04T00:00:00	2024-11-08T22:00:00	1	Precipitación	0
186536	7	Sololá	716	San Marcos la Laguna 	11	San Marcos la laguna 	4	Abril	2023-05-04T00:00:00	2024-11-08T22:00:00	8	Radiación solar	0
186537	7	Sololá	716	San Marcos la Laguna 	11	San Marcos la laguna 	4	Abril	2023-05-04T00:00:00	2024-11-08T23:00:00	2	Temperatura media	19.3
186538	7	Sololá	716	San Marcos la Laguna 	11	San Marcos la laguna 	4	Abril	2023-05-04T00:00:00	2024-11-08T23:00:00	4	Temperatura máxima	20
186539	7	Sololá	716	San Marcos la Laguna 	11	San Marcos la laguna 	4	Abril	2023-05-04T00:00:00	2024-11-08T23:00:00	3	Temperatura mínima	19.3
186540	7	Sololá	716	San Marcos la Laguna 	11	San Marcos la laguna 	4	Abril	2023-05-04T00:00:00	2024-11-08T23:00:00	5	Humedad	88
186541	7	Sololá	716	San Marcos la Laguna 	11	San Marcos la laguna 	4	Abril	2023-05-04T00:00:00	2024-11-08T23:00:00	6	Velocidad del viento	4.8
186542	7	Sololá	716	San Marcos la Laguna 	11	San Marcos la laguna 	4	Abril	2023-05-04T00:00:00	2024-11-08T23:00:00	7	Dirección del viento	4.83
186543	7	Sololá	716	San Marcos la Laguna 	11	San Marcos la laguna 	4	Abril	2023-05-04T00:00:00	2024-11-08T23:00:00	1	Precipitación	0
186544	7	Sololá	716	San Marcos la Laguna 	11	San Marcos la laguna 	4	Abril	2023-05-04T00:00:00	2024-11-08T23:00:00	8	Radiación solar	0
186545	7	Sololá	716	San Marcos la Laguna 	11	San Marcos la laguna 	4	Abril	2023-06-04T00:00:00	2024-11-08T00:00:00	2	Temperatura media	18.4
186546	7	Sololá	716	San Marcos la Laguna 	11	San Marcos la laguna 	4	Abril	2023-06-04T00:00:00	2024-11-08T00:00:00	4	Temperatura máxima	19.3
186547	7	Sololá	716	San Marcos la Laguna 	11	San Marcos la laguna 	4	Abril	2023-06-04T00:00:00	2024-11-08T00:00:00	3	Temperatura mínima	18
186548	7	Sololá	716	San Marcos la Laguna 	11	San Marcos la laguna 	4	Abril	2023-06-04T00:00:00	2024-11-08T00:00:00	5	Humedad	84
186549	7	Sololá	716	San Marcos la Laguna 	11	San Marcos la laguna 	4	Abril	2023-06-04T00:00:00	2024-11-08T00:00:00	6	Velocidad del viento	4.8
186550	7	Sololá	716	San Marcos la Laguna 	11	San Marcos la laguna 	4	Abril	2023-06-04T00:00:00	2024-11-08T00:00:00	7	Dirección del viento	4.83
186551	7	Sololá	716	San Marcos la Laguna 	11	San Marcos la laguna 	4	Abril	2023-06-04T00:00:00	2024-11-08T00:00:00	1	Precipitación	0
186552	7	Sololá	716	San Marcos la Laguna 	11	San Marcos la laguna 	4	Abril	2023-06-04T00:00:00	2024-11-08T00:00:00	8	Radiación solar	0
186553	7	Sololá	716	San Marcos la Laguna 	11	San Marcos la laguna 	4	Abril	2023-06-04T00:00:00	2024-11-08T01:00:00	2	Temperatura media	18.8
186554	7	Sololá	716	San Marcos la Laguna 	11	San Marcos la laguna 	4	Abril	2023-06-04T00:00:00	2024-11-08T01:00:00	4	Temperatura máxima	19.1
186555	7	Sololá	716	San Marcos la Laguna 	11	San Marcos la laguna 	4	Abril	2023-06-04T00:00:00	2024-11-08T01:00:00	3	Temperatura mínima	18.4
186556	7	Sololá	716	San Marcos la Laguna 	11	San Marcos la laguna 	4	Abril	2023-06-04T00:00:00	2024-11-08T01:00:00	5	Humedad	83
186557	7	Sololá	716	San Marcos la Laguna 	11	San Marcos la laguna 	4	Abril	2023-06-04T00:00:00	2024-11-08T01:00:00	6	Velocidad del viento	3.2
186558	7	Sololá	716	San Marcos la Laguna 	11	San Marcos la laguna 	4	Abril	2023-06-04T00:00:00	2024-11-08T01:00:00	7	Dirección del viento	3.22
186559	7	Sololá	716	San Marcos la Laguna 	11	San Marcos la laguna 	4	Abril	2023-06-04T00:00:00	2024-11-08T01:00:00	1	Precipitación	0
186560	7	Sololá	716	San Marcos la Laguna 	11	San Marcos la laguna 	4	Abril	2023-06-04T00:00:00	2024-11-08T01:00:00	8	Radiación solar	0
186561	7	Sololá	716	San Marcos la Laguna 	11	San Marcos la laguna 	4	Abril	2023-06-04T00:00:00	2024-11-08T02:00:00	2	Temperatura media	18.7
186562	7	Sololá	716	San Marcos la Laguna 	11	San Marcos la laguna 	4	Abril	2023-06-04T00:00:00	2024-11-08T02:00:00	4	Temperatura máxima	19.1
186563	7	Sololá	716	San Marcos la Laguna 	11	San Marcos la laguna 	4	Abril	2023-06-04T00:00:00	2024-11-08T02:00:00	3	Temperatura mínima	18.7
186564	7	Sololá	716	San Marcos la Laguna 	11	San Marcos la laguna 	4	Abril	2023-06-04T00:00:00	2024-11-08T02:00:00	5	Humedad	85
186565	7	Sololá	716	San Marcos la Laguna 	11	San Marcos la laguna 	4	Abril	2023-06-04T00:00:00	2024-11-08T02:00:00	6	Velocidad del viento	1.6
186566	7	Sololá	716	San Marcos la Laguna 	11	San Marcos la laguna 	4	Abril	2023-06-04T00:00:00	2024-11-08T02:00:00	7	Dirección del viento	1.61
186567	7	Sololá	716	San Marcos la Laguna 	11	San Marcos la laguna 	4	Abril	2023-06-04T00:00:00	2024-11-08T02:00:00	1	Precipitación	0
186568	7	Sololá	716	San Marcos la Laguna 	11	San Marcos la laguna 	4	Abril	2023-06-04T00:00:00	2024-11-08T02:00:00	8	Radiación solar	0
186569	7	Sololá	716	San Marcos la Laguna 	11	San Marcos la laguna 	4	Abril	2023-06-04T00:00:00	2024-11-08T03:00:00	2	Temperatura media	18.6
186570	7	Sololá	716	San Marcos la Laguna 	11	San Marcos la laguna 	4	Abril	2023-06-04T00:00:00	2024-11-08T03:00:00	4	Temperatura máxima	18.7
186571	7	Sololá	716	San Marcos la Laguna 	11	San Marcos la laguna 	4	Abril	2023-06-04T00:00:00	2024-11-08T03:00:00	3	Temperatura mínima	18.1
186572	7	Sololá	716	San Marcos la Laguna 	11	San Marcos la laguna 	4	Abril	2023-06-04T00:00:00	2024-11-08T03:00:00	5	Humedad	80
186573	7	Sololá	716	San Marcos la Laguna 	11	San Marcos la laguna 	4	Abril	2023-06-04T00:00:00	2024-11-08T03:00:00	6	Velocidad del viento	3.2
186574	7	Sololá	716	San Marcos la Laguna 	11	San Marcos la laguna 	4	Abril	2023-06-04T00:00:00	2024-11-08T03:00:00	7	Dirección del viento	3.22
186575	7	Sololá	716	San Marcos la Laguna 	11	San Marcos la laguna 	4	Abril	2023-06-04T00:00:00	2024-11-08T03:00:00	1	Precipitación	0
186576	7	Sololá	716	San Marcos la Laguna 	11	San Marcos la laguna 	4	Abril	2023-06-04T00:00:00	2024-11-08T03:00:00	8	Radiación solar	0
186577	7	Sololá	716	San Marcos la Laguna 	11	San Marcos la laguna 	4	Abril	2023-06-04T00:00:00	2024-11-08T04:00:00	2	Temperatura media	17.9
186578	7	Sololá	716	San Marcos la Laguna 	11	San Marcos la laguna 	4	Abril	2023-06-04T00:00:00	2024-11-08T04:00:00	4	Temperatura máxima	18.6
186579	7	Sololá	716	San Marcos la Laguna 	11	San Marcos la laguna 	4	Abril	2023-06-04T00:00:00	2024-11-08T04:00:00	3	Temperatura mínima	17.9
186580	7	Sololá	716	San Marcos la Laguna 	11	San Marcos la laguna 	4	Abril	2023-06-04T00:00:00	2024-11-08T04:00:00	5	Humedad	84
186581	7	Sololá	716	San Marcos la Laguna 	11	San Marcos la laguna 	4	Abril	2023-06-04T00:00:00	2024-11-08T04:00:00	6	Velocidad del viento	4.8
186582	7	Sololá	716	San Marcos la Laguna 	11	San Marcos la laguna 	4	Abril	2023-06-04T00:00:00	2024-11-08T04:00:00	7	Dirección del viento	4.83
186583	7	Sololá	716	San Marcos la Laguna 	11	San Marcos la laguna 	4	Abril	2023-06-04T00:00:00	2024-11-08T04:00:00	1	Precipitación	0
186584	7	Sololá	716	San Marcos la Laguna 	11	San Marcos la laguna 	4	Abril	2023-06-04T00:00:00	2024-11-08T04:00:00	8	Radiación solar	0
186585	7	Sololá	716	San Marcos la Laguna 	11	San Marcos la laguna 	4	Abril	2023-06-04T00:00:00	2024-11-08T05:00:00	2	Temperatura media	17.5
186586	7	Sololá	716	San Marcos la Laguna 	11	San Marcos la laguna 	4	Abril	2023-06-04T00:00:00	2024-11-08T05:00:00	4	Temperatura máxima	18
186587	7	Sololá	716	San Marcos la Laguna 	11	San Marcos la laguna 	4	Abril	2023-06-04T00:00:00	2024-11-08T05:00:00	3	Temperatura mínima	17.2
186588	7	Sololá	716	San Marcos la Laguna 	11	San Marcos la laguna 	4	Abril	2023-06-04T00:00:00	2024-11-08T05:00:00	5	Humedad	85
186589	7	Sololá	716	San Marcos la Laguna 	11	San Marcos la laguna 	4	Abril	2023-06-04T00:00:00	2024-11-08T05:00:00	6	Velocidad del viento	4.8
186590	7	Sololá	716	San Marcos la Laguna 	11	San Marcos la laguna 	4	Abril	2023-06-04T00:00:00	2024-11-08T05:00:00	7	Dirección del viento	4.83
186591	7	Sololá	716	San Marcos la Laguna 	11	San Marcos la laguna 	4	Abril	2023-06-04T00:00:00	2024-11-08T05:00:00	1	Precipitación	0
186592	7	Sololá	716	San Marcos la Laguna 	11	San Marcos la laguna 	4	Abril	2023-06-04T00:00:00	2024-11-08T05:00:00	8	Radiación solar	0
186593	7	Sololá	716	San Marcos la Laguna 	11	San Marcos la laguna 	4	Abril	2023-06-04T00:00:00	2024-11-08T06:00:00	2	Temperatura media	17.8
186594	7	Sololá	716	San Marcos la Laguna 	11	San Marcos la laguna 	4	Abril	2023-06-04T00:00:00	2024-11-08T06:00:00	4	Temperatura máxima	18.1
186595	7	Sololá	716	San Marcos la Laguna 	11	San Marcos la laguna 	4	Abril	2023-06-04T00:00:00	2024-11-08T06:00:00	3	Temperatura mínima	17.5
186596	7	Sololá	716	San Marcos la Laguna 	11	San Marcos la laguna 	4	Abril	2023-06-04T00:00:00	2024-11-08T06:00:00	5	Humedad	82
186597	7	Sololá	716	San Marcos la Laguna 	11	San Marcos la laguna 	4	Abril	2023-06-04T00:00:00	2024-11-08T06:00:00	6	Velocidad del viento	4.8
186598	7	Sololá	716	San Marcos la Laguna 	11	San Marcos la laguna 	4	Abril	2023-06-04T00:00:00	2024-11-08T06:00:00	7	Dirección del viento	4.83
186599	7	Sololá	716	San Marcos la Laguna 	11	San Marcos la laguna 	4	Abril	2023-06-04T00:00:00	2024-11-08T06:00:00	1	Precipitación	0
186600	7	Sololá	716	San Marcos la Laguna 	11	San Marcos la laguna 	4	Abril	2023-06-04T00:00:00	2024-11-08T06:00:00	8	Radiación solar	0
186601	7	Sololá	716	San Marcos la Laguna 	11	San Marcos la laguna 	4	Abril	2023-06-04T00:00:00	2024-11-08T07:00:00	2	Temperatura media	18.9
186602	7	Sololá	716	San Marcos la Laguna 	11	San Marcos la laguna 	4	Abril	2023-06-04T00:00:00	2024-11-08T07:00:00	4	Temperatura máxima	18.9
186603	7	Sololá	716	San Marcos la Laguna 	11	San Marcos la laguna 	4	Abril	2023-06-04T00:00:00	2024-11-08T07:00:00	3	Temperatura mínima	17.8
186604	7	Sololá	716	San Marcos la Laguna 	11	San Marcos la laguna 	4	Abril	2023-06-04T00:00:00	2024-11-08T07:00:00	5	Humedad	81
186605	7	Sololá	716	San Marcos la Laguna 	11	San Marcos la laguna 	4	Abril	2023-06-04T00:00:00	2024-11-08T07:00:00	6	Velocidad del viento	3.2
186606	7	Sololá	716	San Marcos la Laguna 	11	San Marcos la laguna 	4	Abril	2023-06-04T00:00:00	2024-11-08T07:00:00	7	Dirección del viento	3.22
186607	7	Sololá	716	San Marcos la Laguna 	11	San Marcos la laguna 	4	Abril	2023-06-04T00:00:00	2024-11-08T07:00:00	1	Precipitación	0
186608	7	Sololá	716	San Marcos la Laguna 	11	San Marcos la laguna 	4	Abril	2023-06-04T00:00:00	2024-11-08T07:00:00	8	Radiación solar	16
186609	7	Sololá	716	San Marcos la Laguna 	11	San Marcos la laguna 	4	Abril	2023-06-04T00:00:00	2024-11-08T08:00:00	2	Temperatura media	20.4
186610	7	Sololá	716	San Marcos la Laguna 	11	San Marcos la laguna 	4	Abril	2023-06-04T00:00:00	2024-11-08T08:00:00	4	Temperatura máxima	20.4
186611	7	Sololá	716	San Marcos la Laguna 	11	San Marcos la laguna 	4	Abril	2023-06-04T00:00:00	2024-11-08T08:00:00	3	Temperatura mínima	18.8
186612	7	Sololá	716	San Marcos la Laguna 	11	San Marcos la laguna 	4	Abril	2023-06-04T00:00:00	2024-11-08T08:00:00	5	Humedad	80
186613	7	Sololá	716	San Marcos la Laguna 	11	San Marcos la laguna 	4	Abril	2023-06-04T00:00:00	2024-11-08T08:00:00	6	Velocidad del viento	1.6
186614	7	Sololá	716	San Marcos la Laguna 	11	San Marcos la laguna 	4	Abril	2023-06-04T00:00:00	2024-11-08T08:00:00	7	Dirección del viento	1.61
186615	7	Sololá	716	San Marcos la Laguna 	11	San Marcos la laguna 	4	Abril	2023-06-04T00:00:00	2024-11-08T08:00:00	1	Precipitación	0
186616	7	Sololá	716	San Marcos la Laguna 	11	San Marcos la laguna 	4	Abril	2023-06-04T00:00:00	2024-11-08T08:00:00	8	Radiación solar	133
186617	7	Sololá	716	San Marcos la Laguna 	11	San Marcos la laguna 	4	Abril	2023-06-04T00:00:00	2024-11-08T09:00:00	2	Temperatura media	20.2
186618	7	Sololá	716	San Marcos la Laguna 	11	San Marcos la laguna 	4	Abril	2023-06-04T00:00:00	2024-11-08T09:00:00	4	Temperatura máxima	20.4
186619	7	Sololá	716	San Marcos la Laguna 	11	San Marcos la laguna 	4	Abril	2023-06-04T00:00:00	2024-11-08T09:00:00	3	Temperatura mínima	20
186620	7	Sololá	716	San Marcos la Laguna 	11	San Marcos la laguna 	4	Abril	2023-06-04T00:00:00	2024-11-08T09:00:00	5	Humedad	79
186621	7	Sololá	716	San Marcos la Laguna 	11	San Marcos la laguna 	4	Abril	2023-06-04T00:00:00	2024-11-08T09:00:00	6	Velocidad del viento	11.3
186622	7	Sololá	716	San Marcos la Laguna 	11	San Marcos la laguna 	4	Abril	2023-06-04T00:00:00	2024-11-08T09:00:00	7	Dirección del viento	11.27
186623	7	Sololá	716	San Marcos la Laguna 	11	San Marcos la laguna 	4	Abril	2023-06-04T00:00:00	2024-11-08T09:00:00	1	Precipitación	0
186624	7	Sololá	716	San Marcos la Laguna 	11	San Marcos la laguna 	4	Abril	2023-06-04T00:00:00	2024-11-08T09:00:00	8	Radiación solar	472
186625	7	Sololá	716	San Marcos la Laguna 	11	San Marcos la laguna 	4	Abril	2023-06-04T00:00:00	2024-11-08T10:00:00	2	Temperatura media	20.9
186626	7	Sololá	716	San Marcos la Laguna 	11	San Marcos la laguna 	4	Abril	2023-06-04T00:00:00	2024-11-08T10:00:00	4	Temperatura máxima	21.1
186627	7	Sololá	716	San Marcos la Laguna 	11	San Marcos la laguna 	4	Abril	2023-06-04T00:00:00	2024-11-08T10:00:00	3	Temperatura mínima	20.2
186628	7	Sololá	716	San Marcos la Laguna 	11	San Marcos la laguna 	4	Abril	2023-06-04T00:00:00	2024-11-08T10:00:00	5	Humedad	76
186629	7	Sololá	716	San Marcos la Laguna 	11	San Marcos la laguna 	4	Abril	2023-06-04T00:00:00	2024-11-08T10:00:00	6	Velocidad del viento	12.9
186630	7	Sololá	716	San Marcos la Laguna 	11	San Marcos la laguna 	4	Abril	2023-06-04T00:00:00	2024-11-08T10:00:00	7	Dirección del viento	12.87
186631	7	Sololá	716	San Marcos la Laguna 	11	San Marcos la laguna 	4	Abril	2023-06-04T00:00:00	2024-11-08T10:00:00	1	Precipitación	0
186632	7	Sololá	716	San Marcos la Laguna 	11	San Marcos la laguna 	4	Abril	2023-06-04T00:00:00	2024-11-08T10:00:00	8	Radiación solar	678
186633	7	Sololá	716	San Marcos la Laguna 	11	San Marcos la laguna 	4	Abril	2023-06-04T00:00:00	2024-11-08T11:00:00	2	Temperatura media	21.7
186634	7	Sololá	716	San Marcos la Laguna 	11	San Marcos la laguna 	4	Abril	2023-06-04T00:00:00	2024-11-08T11:00:00	4	Temperatura máxima	22.3
186635	7	Sololá	716	San Marcos la Laguna 	11	San Marcos la laguna 	4	Abril	2023-06-04T00:00:00	2024-11-08T11:00:00	3	Temperatura mínima	20.9
186636	7	Sololá	716	San Marcos la Laguna 	11	San Marcos la laguna 	4	Abril	2023-06-04T00:00:00	2024-11-08T11:00:00	5	Humedad	74
186637	7	Sololá	716	San Marcos la Laguna 	11	San Marcos la laguna 	4	Abril	2023-06-04T00:00:00	2024-11-08T11:00:00	6	Velocidad del viento	12.9
186638	7	Sololá	716	San Marcos la Laguna 	11	San Marcos la laguna 	4	Abril	2023-06-04T00:00:00	2024-11-08T11:00:00	7	Dirección del viento	12.87
186639	7	Sololá	716	San Marcos la Laguna 	11	San Marcos la laguna 	4	Abril	2023-06-04T00:00:00	2024-11-08T11:00:00	1	Precipitación	0
186640	7	Sololá	716	San Marcos la Laguna 	11	San Marcos la laguna 	4	Abril	2023-06-04T00:00:00	2024-11-08T11:00:00	8	Radiación solar	848
186641	7	Sololá	716	San Marcos la Laguna 	11	San Marcos la laguna 	4	Abril	2023-06-04T00:00:00	2024-11-08T12:00:00	2	Temperatura media	22.1
186642	7	Sololá	716	San Marcos la Laguna 	11	San Marcos la laguna 	4	Abril	2023-06-04T00:00:00	2024-11-08T12:00:00	4	Temperatura máxima	22.3
186643	7	Sololá	716	San Marcos la Laguna 	11	San Marcos la laguna 	4	Abril	2023-06-04T00:00:00	2024-11-08T12:00:00	3	Temperatura mínima	21.6
186644	7	Sololá	716	San Marcos la Laguna 	11	San Marcos la laguna 	4	Abril	2023-06-04T00:00:00	2024-11-08T12:00:00	5	Humedad	73
186645	7	Sololá	716	San Marcos la Laguna 	11	San Marcos la laguna 	4	Abril	2023-06-04T00:00:00	2024-11-08T12:00:00	6	Velocidad del viento	12.9
186646	7	Sololá	716	San Marcos la Laguna 	11	San Marcos la laguna 	4	Abril	2023-06-04T00:00:00	2024-11-08T12:00:00	7	Dirección del viento	12.87
186647	7	Sololá	716	San Marcos la Laguna 	11	San Marcos la laguna 	4	Abril	2023-06-04T00:00:00	2024-11-08T12:00:00	1	Precipitación	0
186648	7	Sololá	716	San Marcos la Laguna 	11	San Marcos la laguna 	4	Abril	2023-06-04T00:00:00	2024-11-08T12:00:00	8	Radiación solar	925
186649	7	Sololá	716	San Marcos la Laguna 	11	San Marcos la laguna 	4	Abril	2023-06-04T00:00:00	2024-11-08T13:00:00	2	Temperatura media	22.5
186650	7	Sololá	716	San Marcos la Laguna 	11	San Marcos la laguna 	4	Abril	2023-06-04T00:00:00	2024-11-08T13:00:00	4	Temperatura máxima	22.7
186651	7	Sololá	716	San Marcos la Laguna 	11	San Marcos la laguna 	4	Abril	2023-06-04T00:00:00	2024-11-08T13:00:00	3	Temperatura mínima	21.8
186652	7	Sololá	716	San Marcos la Laguna 	11	San Marcos la laguna 	4	Abril	2023-06-04T00:00:00	2024-11-08T13:00:00	5	Humedad	71
186653	7	Sololá	716	San Marcos la Laguna 	11	San Marcos la laguna 	4	Abril	2023-06-04T00:00:00	2024-11-08T13:00:00	6	Velocidad del viento	12.9
186654	7	Sololá	716	San Marcos la Laguna 	11	San Marcos la laguna 	4	Abril	2023-06-04T00:00:00	2024-11-08T13:00:00	7	Dirección del viento	12.87
186655	7	Sololá	716	San Marcos la Laguna 	11	San Marcos la laguna 	4	Abril	2023-06-04T00:00:00	2024-11-08T13:00:00	1	Precipitación	0
186656	7	Sololá	716	San Marcos la Laguna 	11	San Marcos la laguna 	4	Abril	2023-06-04T00:00:00	2024-11-08T13:00:00	8	Radiación solar	703
186657	7	Sololá	716	San Marcos la Laguna 	11	San Marcos la laguna 	4	Abril	2023-06-04T00:00:00	2024-11-08T14:00:00	2	Temperatura media	22.5
186658	7	Sololá	716	San Marcos la Laguna 	11	San Marcos la laguna 	4	Abril	2023-06-04T00:00:00	2024-11-08T14:00:00	4	Temperatura máxima	22.9
186659	7	Sololá	716	San Marcos la Laguna 	11	San Marcos la laguna 	4	Abril	2023-06-04T00:00:00	2024-11-08T14:00:00	3	Temperatura mínima	22
186660	7	Sololá	716	San Marcos la Laguna 	11	San Marcos la laguna 	4	Abril	2023-06-04T00:00:00	2024-11-08T14:00:00	5	Humedad	76
186661	7	Sololá	716	San Marcos la Laguna 	11	San Marcos la laguna 	4	Abril	2023-06-04T00:00:00	2024-11-08T14:00:00	6	Velocidad del viento	8
186662	7	Sololá	716	San Marcos la Laguna 	11	San Marcos la laguna 	4	Abril	2023-06-04T00:00:00	2024-11-08T14:00:00	7	Dirección del viento	8.05
186663	7	Sololá	716	San Marcos la Laguna 	11	San Marcos la laguna 	4	Abril	2023-06-04T00:00:00	2024-11-08T14:00:00	1	Precipitación	0
186664	7	Sololá	716	San Marcos la Laguna 	11	San Marcos la laguna 	4	Abril	2023-06-04T00:00:00	2024-11-08T14:00:00	8	Radiación solar	496
186665	7	Sololá	716	San Marcos la Laguna 	11	San Marcos la laguna 	4	Abril	2023-06-04T00:00:00	2024-11-08T15:00:00	2	Temperatura media	21.7
186666	7	Sololá	716	San Marcos la Laguna 	11	San Marcos la laguna 	4	Abril	2023-06-04T00:00:00	2024-11-08T15:00:00	4	Temperatura máxima	23.3
186667	7	Sololá	716	San Marcos la Laguna 	11	San Marcos la laguna 	4	Abril	2023-06-04T00:00:00	2024-11-08T15:00:00	3	Temperatura mínima	21.7
186668	7	Sololá	716	San Marcos la Laguna 	11	San Marcos la laguna 	4	Abril	2023-06-04T00:00:00	2024-11-08T15:00:00	5	Humedad	78
186669	7	Sololá	716	San Marcos la Laguna 	11	San Marcos la laguna 	4	Abril	2023-06-04T00:00:00	2024-11-08T15:00:00	6	Velocidad del viento	8
186670	7	Sololá	716	San Marcos la Laguna 	11	San Marcos la laguna 	4	Abril	2023-06-04T00:00:00	2024-11-08T15:00:00	7	Dirección del viento	8.05
186671	7	Sololá	716	San Marcos la Laguna 	11	San Marcos la laguna 	4	Abril	2023-06-04T00:00:00	2024-11-08T15:00:00	1	Precipitación	0
186672	7	Sololá	716	San Marcos la Laguna 	11	San Marcos la laguna 	4	Abril	2023-06-04T00:00:00	2024-11-08T15:00:00	8	Radiación solar	535
186673	7	Sololá	716	San Marcos la Laguna 	11	San Marcos la laguna 	4	Abril	2023-06-04T00:00:00	2024-11-08T16:00:00	2	Temperatura media	20.7
186674	7	Sololá	716	San Marcos la Laguna 	11	San Marcos la laguna 	4	Abril	2023-06-04T00:00:00	2024-11-08T16:00:00	4	Temperatura máxima	21.8
186675	7	Sololá	716	San Marcos la Laguna 	11	San Marcos la laguna 	4	Abril	2023-06-04T00:00:00	2024-11-08T16:00:00	3	Temperatura mínima	20.6
186676	7	Sololá	716	San Marcos la Laguna 	11	San Marcos la laguna 	4	Abril	2023-06-04T00:00:00	2024-11-08T16:00:00	5	Humedad	83
186677	7	Sololá	716	San Marcos la Laguna 	11	San Marcos la laguna 	4	Abril	2023-06-04T00:00:00	2024-11-08T16:00:00	6	Velocidad del viento	11.3
186678	7	Sololá	716	San Marcos la Laguna 	11	San Marcos la laguna 	4	Abril	2023-06-04T00:00:00	2024-11-08T16:00:00	7	Dirección del viento	11.27
186679	7	Sololá	716	San Marcos la Laguna 	11	San Marcos la laguna 	4	Abril	2023-06-04T00:00:00	2024-11-08T16:00:00	1	Precipitación	0
186680	7	Sololá	716	San Marcos la Laguna 	11	San Marcos la laguna 	4	Abril	2023-06-04T00:00:00	2024-11-08T16:00:00	8	Radiación solar	344
186681	7	Sololá	716	San Marcos la Laguna 	11	San Marcos la laguna 	4	Abril	2023-06-04T00:00:00	2024-11-08T17:00:00	2	Temperatura media	20.6
186682	7	Sololá	716	San Marcos la Laguna 	11	San Marcos la laguna 	4	Abril	2023-06-04T00:00:00	2024-11-08T17:00:00	4	Temperatura máxima	21.1
186683	7	Sololá	716	San Marcos la Laguna 	11	San Marcos la laguna 	4	Abril	2023-06-04T00:00:00	2024-11-08T17:00:00	3	Temperatura mínima	20.4
186684	7	Sololá	716	San Marcos la Laguna 	11	San Marcos la laguna 	4	Abril	2023-06-04T00:00:00	2024-11-08T17:00:00	5	Humedad	82
186685	7	Sololá	716	San Marcos la Laguna 	11	San Marcos la laguna 	4	Abril	2023-06-04T00:00:00	2024-11-08T17:00:00	6	Velocidad del viento	8
186686	7	Sololá	716	San Marcos la Laguna 	11	San Marcos la laguna 	4	Abril	2023-06-04T00:00:00	2024-11-08T17:00:00	7	Dirección del viento	8.05
186687	7	Sololá	716	San Marcos la Laguna 	11	San Marcos la laguna 	4	Abril	2023-06-04T00:00:00	2024-11-08T17:00:00	1	Precipitación	0
186688	7	Sololá	716	San Marcos la Laguna 	11	San Marcos la laguna 	4	Abril	2023-06-04T00:00:00	2024-11-08T17:00:00	8	Radiación solar	224
186689	7	Sololá	716	San Marcos la Laguna 	11	San Marcos la laguna 	4	Abril	2023-06-04T00:00:00	2024-11-08T18:00:00	2	Temperatura media	20.1
186690	7	Sololá	716	San Marcos la Laguna 	11	San Marcos la laguna 	4	Abril	2023-06-04T00:00:00	2024-11-08T18:00:00	4	Temperatura máxima	20.6
186691	7	Sololá	716	San Marcos la Laguna 	11	San Marcos la laguna 	4	Abril	2023-06-04T00:00:00	2024-11-08T18:00:00	3	Temperatura mínima	20.1
186692	7	Sololá	716	San Marcos la Laguna 	11	San Marcos la laguna 	4	Abril	2023-06-04T00:00:00	2024-11-08T18:00:00	5	Humedad	84
186693	7	Sololá	716	San Marcos la Laguna 	11	San Marcos la laguna 	4	Abril	2023-06-04T00:00:00	2024-11-08T18:00:00	6	Velocidad del viento	8
186694	7	Sololá	716	San Marcos la Laguna 	11	San Marcos la laguna 	4	Abril	2023-06-04T00:00:00	2024-11-08T18:00:00	7	Dirección del viento	8.05
186695	7	Sololá	716	San Marcos la Laguna 	11	San Marcos la laguna 	4	Abril	2023-06-04T00:00:00	2024-11-08T18:00:00	1	Precipitación	0
186696	7	Sololá	716	San Marcos la Laguna 	11	San Marcos la laguna 	4	Abril	2023-06-04T00:00:00	2024-11-08T18:00:00	8	Radiación solar	56
186697	7	Sololá	716	San Marcos la Laguna 	11	San Marcos la laguna 	4	Abril	2023-06-04T00:00:00	2024-11-08T19:00:00	2	Temperatura media	19.9
186698	7	Sololá	716	San Marcos la Laguna 	11	San Marcos la laguna 	4	Abril	2023-06-04T00:00:00	2024-11-08T19:00:00	4	Temperatura máxima	20.1
186699	7	Sololá	716	San Marcos la Laguna 	11	San Marcos la laguna 	4	Abril	2023-06-04T00:00:00	2024-11-08T19:00:00	3	Temperatura mínima	19.9
186700	7	Sololá	716	San Marcos la Laguna 	11	San Marcos la laguna 	4	Abril	2023-06-04T00:00:00	2024-11-08T19:00:00	5	Humedad	85
186701	7	Sololá	716	San Marcos la Laguna 	11	San Marcos la laguna 	4	Abril	2023-06-04T00:00:00	2024-11-08T19:00:00	6	Velocidad del viento	4.8
186702	7	Sololá	716	San Marcos la Laguna 	11	San Marcos la laguna 	4	Abril	2023-06-04T00:00:00	2024-11-08T19:00:00	7	Dirección del viento	4.83
186703	7	Sololá	716	San Marcos la Laguna 	11	San Marcos la laguna 	4	Abril	2023-06-04T00:00:00	2024-11-08T19:00:00	1	Precipitación	0
186704	7	Sololá	716	San Marcos la Laguna 	11	San Marcos la laguna 	4	Abril	2023-06-04T00:00:00	2024-11-08T19:00:00	8	Radiación solar	0
186705	7	Sololá	716	San Marcos la Laguna 	11	San Marcos la laguna 	4	Abril	2023-06-04T00:00:00	2024-11-08T20:00:00	2	Temperatura media	19.9
186706	7	Sololá	716	San Marcos la Laguna 	11	San Marcos la laguna 	4	Abril	2023-06-04T00:00:00	2024-11-08T20:00:00	4	Temperatura máxima	20.1
186707	7	Sololá	716	San Marcos la Laguna 	11	San Marcos la laguna 	4	Abril	2023-06-04T00:00:00	2024-11-08T20:00:00	3	Temperatura mínima	19.9
186708	7	Sololá	716	San Marcos la Laguna 	11	San Marcos la laguna 	4	Abril	2023-06-04T00:00:00	2024-11-08T20:00:00	5	Humedad	85
186709	7	Sololá	716	San Marcos la Laguna 	11	San Marcos la laguna 	4	Abril	2023-06-04T00:00:00	2024-11-08T20:00:00	6	Velocidad del viento	3.2
186710	7	Sololá	716	San Marcos la Laguna 	11	San Marcos la laguna 	4	Abril	2023-06-04T00:00:00	2024-11-08T20:00:00	7	Dirección del viento	3.22
186711	7	Sololá	716	San Marcos la Laguna 	11	San Marcos la laguna 	4	Abril	2023-06-04T00:00:00	2024-11-08T20:00:00	1	Precipitación	0
186712	7	Sololá	716	San Marcos la Laguna 	11	San Marcos la laguna 	4	Abril	2023-06-04T00:00:00	2024-11-08T20:00:00	8	Radiación solar	0
186713	7	Sololá	716	San Marcos la Laguna 	11	San Marcos la laguna 	4	Abril	2023-06-04T00:00:00	2024-11-08T21:00:00	2	Temperatura media	19.6
186714	7	Sololá	716	San Marcos la Laguna 	11	San Marcos la laguna 	4	Abril	2023-06-04T00:00:00	2024-11-08T21:00:00	4	Temperatura máxima	19.9
186715	7	Sololá	716	San Marcos la Laguna 	11	San Marcos la laguna 	4	Abril	2023-06-04T00:00:00	2024-11-08T21:00:00	3	Temperatura mínima	19.6
186716	7	Sololá	716	San Marcos la Laguna 	11	San Marcos la laguna 	4	Abril	2023-06-04T00:00:00	2024-11-08T21:00:00	5	Humedad	86
186717	7	Sololá	716	San Marcos la Laguna 	11	San Marcos la laguna 	4	Abril	2023-06-04T00:00:00	2024-11-08T21:00:00	6	Velocidad del viento	0
186718	7	Sololá	716	San Marcos la Laguna 	11	San Marcos la laguna 	4	Abril	2023-06-04T00:00:00	2024-11-08T21:00:00	7	Dirección del viento	0
186719	7	Sololá	716	San Marcos la Laguna 	11	San Marcos la laguna 	4	Abril	2023-06-04T00:00:00	2024-11-08T21:00:00	1	Precipitación	0
186720	7	Sololá	716	San Marcos la Laguna 	11	San Marcos la laguna 	4	Abril	2023-06-04T00:00:00	2024-11-08T21:00:00	8	Radiación solar	0
186721	7	Sololá	716	San Marcos la Laguna 	11	San Marcos la laguna 	4	Abril	2023-06-04T00:00:00	2024-11-08T22:00:00	2	Temperatura media	18.8
186722	7	Sololá	716	San Marcos la Laguna 	11	San Marcos la laguna 	4	Abril	2023-06-04T00:00:00	2024-11-08T22:00:00	4	Temperatura máxima	19.6
186723	7	Sololá	716	San Marcos la Laguna 	11	San Marcos la laguna 	4	Abril	2023-06-04T00:00:00	2024-11-08T22:00:00	3	Temperatura mínima	18.8
186724	7	Sololá	716	San Marcos la Laguna 	11	San Marcos la laguna 	4	Abril	2023-06-04T00:00:00	2024-11-08T22:00:00	5	Humedad	86
186725	7	Sololá	716	San Marcos la Laguna 	11	San Marcos la laguna 	4	Abril	2023-06-04T00:00:00	2024-11-08T22:00:00	6	Velocidad del viento	4.8
186726	7	Sololá	716	San Marcos la Laguna 	11	San Marcos la laguna 	4	Abril	2023-06-04T00:00:00	2024-11-08T22:00:00	7	Dirección del viento	4.83
186727	7	Sololá	716	San Marcos la Laguna 	11	San Marcos la laguna 	4	Abril	2023-06-04T00:00:00	2024-11-08T22:00:00	1	Precipitación	0
186728	7	Sololá	716	San Marcos la Laguna 	11	San Marcos la laguna 	4	Abril	2023-06-04T00:00:00	2024-11-08T22:00:00	8	Radiación solar	0
186729	7	Sololá	716	San Marcos la Laguna 	11	San Marcos la laguna 	4	Abril	2023-06-04T00:00:00	2024-11-08T23:00:00	2	Temperatura media	18.7
186730	7	Sololá	716	San Marcos la Laguna 	11	San Marcos la laguna 	4	Abril	2023-06-04T00:00:00	2024-11-08T23:00:00	4	Temperatura máxima	19.1
186731	7	Sololá	716	San Marcos la Laguna 	11	San Marcos la laguna 	4	Abril	2023-06-04T00:00:00	2024-11-08T23:00:00	3	Temperatura mínima	18.5
186732	7	Sololá	716	San Marcos la Laguna 	11	San Marcos la laguna 	4	Abril	2023-06-04T00:00:00	2024-11-08T23:00:00	5	Humedad	82
186733	7	Sololá	716	San Marcos la Laguna 	11	San Marcos la laguna 	4	Abril	2023-06-04T00:00:00	2024-11-08T23:00:00	6	Velocidad del viento	4.8
186734	7	Sololá	716	San Marcos la Laguna 	11	San Marcos la laguna 	4	Abril	2023-06-04T00:00:00	2024-11-08T23:00:00	7	Dirección del viento	4.83
186735	7	Sololá	716	San Marcos la Laguna 	11	San Marcos la laguna 	4	Abril	2023-06-04T00:00:00	2024-11-08T23:00:00	1	Precipitación	0
186736	7	Sololá	716	San Marcos la Laguna 	11	San Marcos la laguna 	4	Abril	2023-06-04T00:00:00	2024-11-08T23:00:00	8	Radiación solar	0
186737	7	Sololá	716	San Marcos la Laguna 	11	San Marcos la laguna 	4	Abril	2023-07-04T00:00:00	2024-11-08T00:00:00	2	Temperatura media	18.3
186738	7	Sololá	716	San Marcos la Laguna 	11	San Marcos la laguna 	4	Abril	2023-07-04T00:00:00	2024-11-08T00:00:00	4	Temperatura máxima	18.8
186739	7	Sololá	716	San Marcos la Laguna 	11	San Marcos la laguna 	4	Abril	2023-07-04T00:00:00	2024-11-08T00:00:00	3	Temperatura mínima	18.3
186740	7	Sololá	716	San Marcos la Laguna 	11	San Marcos la laguna 	4	Abril	2023-07-04T00:00:00	2024-11-08T00:00:00	5	Humedad	84
186741	7	Sololá	716	San Marcos la Laguna 	11	San Marcos la laguna 	4	Abril	2023-07-04T00:00:00	2024-11-08T00:00:00	6	Velocidad del viento	4.8
186742	7	Sololá	716	San Marcos la Laguna 	11	San Marcos la laguna 	4	Abril	2023-07-04T00:00:00	2024-11-08T00:00:00	7	Dirección del viento	4.83
186743	7	Sololá	716	San Marcos la Laguna 	11	San Marcos la laguna 	4	Abril	2023-07-04T00:00:00	2024-11-08T00:00:00	1	Precipitación	0
186744	7	Sololá	716	San Marcos la Laguna 	11	San Marcos la laguna 	4	Abril	2023-07-04T00:00:00	2024-11-08T00:00:00	8	Radiación solar	0
186745	7	Sololá	716	San Marcos la Laguna 	11	San Marcos la laguna 	4	Abril	2023-07-04T00:00:00	2024-11-08T01:00:00	2	Temperatura media	18.4
186746	7	Sololá	716	San Marcos la Laguna 	11	San Marcos la laguna 	4	Abril	2023-07-04T00:00:00	2024-11-08T01:00:00	4	Temperatura máxima	18.4
186747	7	Sololá	716	San Marcos la Laguna 	11	San Marcos la laguna 	4	Abril	2023-07-04T00:00:00	2024-11-08T01:00:00	3	Temperatura mínima	17.8
186748	7	Sololá	716	San Marcos la Laguna 	11	San Marcos la laguna 	4	Abril	2023-07-04T00:00:00	2024-11-08T01:00:00	5	Humedad	86
186749	7	Sololá	716	San Marcos la Laguna 	11	San Marcos la laguna 	4	Abril	2023-07-04T00:00:00	2024-11-08T01:00:00	6	Velocidad del viento	3.2
186750	7	Sololá	716	San Marcos la Laguna 	11	San Marcos la laguna 	4	Abril	2023-07-04T00:00:00	2024-11-08T01:00:00	7	Dirección del viento	3.22
186751	7	Sololá	716	San Marcos la Laguna 	11	San Marcos la laguna 	4	Abril	2023-07-04T00:00:00	2024-11-08T01:00:00	1	Precipitación	0
186752	7	Sololá	716	San Marcos la Laguna 	11	San Marcos la laguna 	4	Abril	2023-07-04T00:00:00	2024-11-08T01:00:00	8	Radiación solar	0
186753	7	Sololá	716	San Marcos la Laguna 	11	San Marcos la laguna 	4	Abril	2023-07-04T00:00:00	2024-11-08T02:00:00	2	Temperatura media	17.6
186754	7	Sololá	716	San Marcos la Laguna 	11	San Marcos la laguna 	4	Abril	2023-07-04T00:00:00	2024-11-08T02:00:00	4	Temperatura máxima	18.4
186755	7	Sololá	716	San Marcos la Laguna 	11	San Marcos la laguna 	4	Abril	2023-07-04T00:00:00	2024-11-08T02:00:00	3	Temperatura mínima	17.5
186756	7	Sololá	716	San Marcos la Laguna 	11	San Marcos la laguna 	4	Abril	2023-07-04T00:00:00	2024-11-08T02:00:00	5	Humedad	85
186757	7	Sololá	716	San Marcos la Laguna 	11	San Marcos la laguna 	4	Abril	2023-07-04T00:00:00	2024-11-08T02:00:00	6	Velocidad del viento	3.2
186758	7	Sololá	716	San Marcos la Laguna 	11	San Marcos la laguna 	4	Abril	2023-07-04T00:00:00	2024-11-08T02:00:00	7	Dirección del viento	3.22
186759	7	Sololá	716	San Marcos la Laguna 	11	San Marcos la laguna 	4	Abril	2023-07-04T00:00:00	2024-11-08T02:00:00	1	Precipitación	0
186760	7	Sololá	716	San Marcos la Laguna 	11	San Marcos la laguna 	4	Abril	2023-07-04T00:00:00	2024-11-08T02:00:00	8	Radiación solar	0
186761	7	Sololá	716	San Marcos la Laguna 	11	San Marcos la laguna 	4	Abril	2023-07-04T00:00:00	2024-11-08T03:00:00	2	Temperatura media	17.4
186762	7	Sololá	716	San Marcos la Laguna 	11	San Marcos la laguna 	4	Abril	2023-07-04T00:00:00	2024-11-08T03:00:00	4	Temperatura máxima	17.7
186763	7	Sololá	716	San Marcos la Laguna 	11	San Marcos la laguna 	4	Abril	2023-07-04T00:00:00	2024-11-08T03:00:00	3	Temperatura mínima	17.3
186764	7	Sololá	716	San Marcos la Laguna 	11	San Marcos la laguna 	4	Abril	2023-07-04T00:00:00	2024-11-08T03:00:00	5	Humedad	84
186765	7	Sololá	716	San Marcos la Laguna 	11	San Marcos la laguna 	4	Abril	2023-07-04T00:00:00	2024-11-08T03:00:00	6	Velocidad del viento	4.8
186766	7	Sololá	716	San Marcos la Laguna 	11	San Marcos la laguna 	4	Abril	2023-07-04T00:00:00	2024-11-08T03:00:00	7	Dirección del viento	4.83
186767	7	Sololá	716	San Marcos la Laguna 	11	San Marcos la laguna 	4	Abril	2023-07-04T00:00:00	2024-11-08T03:00:00	1	Precipitación	0
186768	7	Sololá	716	San Marcos la Laguna 	11	San Marcos la laguna 	4	Abril	2023-07-04T00:00:00	2024-11-08T03:00:00	8	Radiación solar	0
186769	7	Sololá	716	San Marcos la Laguna 	11	San Marcos la laguna 	4	Abril	2023-07-04T00:00:00	2024-11-08T04:00:00	2	Temperatura media	16.9
186770	7	Sololá	716	San Marcos la Laguna 	11	San Marcos la laguna 	4	Abril	2023-07-04T00:00:00	2024-11-08T04:00:00	4	Temperatura máxima	17.6
186771	7	Sololá	716	San Marcos la Laguna 	11	San Marcos la laguna 	4	Abril	2023-07-04T00:00:00	2024-11-08T04:00:00	3	Temperatura mínima	16.9
186772	7	Sololá	716	San Marcos la Laguna 	11	San Marcos la laguna 	4	Abril	2023-07-04T00:00:00	2024-11-08T04:00:00	5	Humedad	83
186773	7	Sololá	716	San Marcos la Laguna 	11	San Marcos la laguna 	4	Abril	2023-07-04T00:00:00	2024-11-08T04:00:00	6	Velocidad del viento	6.4
186774	7	Sololá	716	San Marcos la Laguna 	11	San Marcos la laguna 	4	Abril	2023-07-04T00:00:00	2024-11-08T04:00:00	7	Dirección del viento	6.44
186775	7	Sololá	716	San Marcos la Laguna 	11	San Marcos la laguna 	4	Abril	2023-07-04T00:00:00	2024-11-08T04:00:00	1	Precipitación	0
186776	7	Sololá	716	San Marcos la Laguna 	11	San Marcos la laguna 	4	Abril	2023-07-04T00:00:00	2024-11-08T04:00:00	8	Radiación solar	0
186777	7	Sololá	716	San Marcos la Laguna 	11	San Marcos la laguna 	4	Abril	2023-07-04T00:00:00	2024-11-08T05:00:00	2	Temperatura media	17.6
186778	7	Sololá	716	San Marcos la Laguna 	11	San Marcos la laguna 	4	Abril	2023-07-04T00:00:00	2024-11-08T05:00:00	4	Temperatura máxima	17.7
186779	7	Sololá	716	San Marcos la Laguna 	11	San Marcos la laguna 	4	Abril	2023-07-04T00:00:00	2024-11-08T05:00:00	3	Temperatura mínima	16.8
186780	7	Sololá	716	San Marcos la Laguna 	11	San Marcos la laguna 	4	Abril	2023-07-04T00:00:00	2024-11-08T05:00:00	5	Humedad	83
186781	7	Sololá	716	San Marcos la Laguna 	11	San Marcos la laguna 	4	Abril	2023-07-04T00:00:00	2024-11-08T05:00:00	6	Velocidad del viento	4.8
186782	7	Sololá	716	San Marcos la Laguna 	11	San Marcos la laguna 	4	Abril	2023-07-04T00:00:00	2024-11-08T05:00:00	7	Dirección del viento	4.83
186783	7	Sololá	716	San Marcos la Laguna 	11	San Marcos la laguna 	4	Abril	2023-07-04T00:00:00	2024-11-08T05:00:00	1	Precipitación	0
186784	7	Sololá	716	San Marcos la Laguna 	11	San Marcos la laguna 	4	Abril	2023-07-04T00:00:00	2024-11-08T05:00:00	8	Radiación solar	0
186785	7	Sololá	716	San Marcos la Laguna 	11	San Marcos la laguna 	4	Abril	2023-07-04T00:00:00	2024-11-08T06:00:00	2	Temperatura media	16.9
186786	7	Sololá	716	San Marcos la Laguna 	11	San Marcos la laguna 	4	Abril	2023-07-04T00:00:00	2024-11-08T06:00:00	4	Temperatura máxima	17.6
186787	7	Sololá	716	San Marcos la Laguna 	11	San Marcos la laguna 	4	Abril	2023-07-04T00:00:00	2024-11-08T06:00:00	3	Temperatura mínima	16.7
186788	7	Sololá	716	San Marcos la Laguna 	11	San Marcos la laguna 	4	Abril	2023-07-04T00:00:00	2024-11-08T06:00:00	5	Humedad	81
186789	7	Sololá	716	San Marcos la Laguna 	11	San Marcos la laguna 	4	Abril	2023-07-04T00:00:00	2024-11-08T06:00:00	6	Velocidad del viento	6.4
186790	7	Sololá	716	San Marcos la Laguna 	11	San Marcos la laguna 	4	Abril	2023-07-04T00:00:00	2024-11-08T06:00:00	7	Dirección del viento	6.44
186791	7	Sololá	716	San Marcos la Laguna 	11	San Marcos la laguna 	4	Abril	2023-07-04T00:00:00	2024-11-08T06:00:00	1	Precipitación	0
186792	7	Sololá	716	San Marcos la Laguna 	11	San Marcos la laguna 	4	Abril	2023-07-04T00:00:00	2024-11-08T06:00:00	8	Radiación solar	0
186793	7	Sololá	716	San Marcos la Laguna 	11	San Marcos la laguna 	4	Abril	2023-07-04T00:00:00	2024-11-08T07:00:00	2	Temperatura media	17.6
186794	7	Sololá	716	San Marcos la Laguna 	11	San Marcos la laguna 	4	Abril	2023-07-04T00:00:00	2024-11-08T07:00:00	4	Temperatura máxima	17.6
186795	7	Sololá	716	San Marcos la Laguna 	11	San Marcos la laguna 	4	Abril	2023-07-04T00:00:00	2024-11-08T07:00:00	3	Temperatura mínima	16.3
186796	7	Sololá	716	San Marcos la Laguna 	11	San Marcos la laguna 	4	Abril	2023-07-04T00:00:00	2024-11-08T07:00:00	5	Humedad	80
186797	7	Sololá	716	San Marcos la Laguna 	11	San Marcos la laguna 	4	Abril	2023-07-04T00:00:00	2024-11-08T07:00:00	6	Velocidad del viento	4.8
186798	7	Sololá	716	San Marcos la Laguna 	11	San Marcos la laguna 	4	Abril	2023-07-04T00:00:00	2024-11-08T07:00:00	7	Dirección del viento	4.83
186799	7	Sololá	716	San Marcos la Laguna 	11	San Marcos la laguna 	4	Abril	2023-07-04T00:00:00	2024-11-08T07:00:00	1	Precipitación	0
186800	7	Sololá	716	San Marcos la Laguna 	11	San Marcos la laguna 	4	Abril	2023-07-04T00:00:00	2024-11-08T07:00:00	8	Radiación solar	62
186801	7	Sololá	716	San Marcos la Laguna 	11	San Marcos la laguna 	4	Abril	2023-07-04T00:00:00	2024-11-08T08:00:00	2	Temperatura media	20.6
186802	7	Sololá	716	San Marcos la Laguna 	11	San Marcos la laguna 	4	Abril	2023-07-04T00:00:00	2024-11-08T08:00:00	4	Temperatura máxima	20.6
186803	7	Sololá	716	San Marcos la Laguna 	11	San Marcos la laguna 	4	Abril	2023-07-04T00:00:00	2024-11-08T08:00:00	3	Temperatura mínima	17.6
186804	7	Sololá	716	San Marcos la Laguna 	11	San Marcos la laguna 	4	Abril	2023-07-04T00:00:00	2024-11-08T08:00:00	5	Humedad	74
186805	7	Sololá	716	San Marcos la Laguna 	11	San Marcos la laguna 	4	Abril	2023-07-04T00:00:00	2024-11-08T08:00:00	6	Velocidad del viento	0
186806	7	Sololá	716	San Marcos la Laguna 	11	San Marcos la laguna 	4	Abril	2023-07-04T00:00:00	2024-11-08T08:00:00	7	Dirección del viento	0
186807	7	Sololá	716	San Marcos la Laguna 	11	San Marcos la laguna 	4	Abril	2023-07-04T00:00:00	2024-11-08T08:00:00	1	Precipitación	0
186808	7	Sololá	716	San Marcos la Laguna 	11	San Marcos la laguna 	4	Abril	2023-07-04T00:00:00	2024-11-08T08:00:00	8	Radiación solar	233
186809	7	Sololá	716	San Marcos la Laguna 	11	San Marcos la laguna 	4	Abril	2023-07-04T00:00:00	2024-11-08T09:00:00	2	Temperatura media	20.9
186810	7	Sololá	716	San Marcos la Laguna 	11	San Marcos la laguna 	4	Abril	2023-07-04T00:00:00	2024-11-08T09:00:00	4	Temperatura máxima	20.9
186811	7	Sololá	716	San Marcos la Laguna 	11	San Marcos la laguna 	4	Abril	2023-07-04T00:00:00	2024-11-08T09:00:00	3	Temperatura mínima	20.3
186812	7	Sololá	716	San Marcos la Laguna 	11	San Marcos la laguna 	4	Abril	2023-07-04T00:00:00	2024-11-08T09:00:00	5	Humedad	72
186813	7	Sololá	716	San Marcos la Laguna 	11	San Marcos la laguna 	4	Abril	2023-07-04T00:00:00	2024-11-08T09:00:00	6	Velocidad del viento	3.2
186814	7	Sololá	716	San Marcos la Laguna 	11	San Marcos la laguna 	4	Abril	2023-07-04T00:00:00	2024-11-08T09:00:00	7	Dirección del viento	3.22
186815	7	Sololá	716	San Marcos la Laguna 	11	San Marcos la laguna 	4	Abril	2023-07-04T00:00:00	2024-11-08T09:00:00	1	Precipitación	0
186816	7	Sololá	716	San Marcos la Laguna 	11	San Marcos la laguna 	4	Abril	2023-07-04T00:00:00	2024-11-08T09:00:00	8	Radiación solar	446
186817	7	Sololá	716	San Marcos la Laguna 	11	San Marcos la laguna 	4	Abril	2023-07-04T00:00:00	2024-11-08T10:00:00	2	Temperatura media	21.9
186818	7	Sololá	716	San Marcos la Laguna 	11	San Marcos la laguna 	4	Abril	2023-07-04T00:00:00	2024-11-08T10:00:00	4	Temperatura máxima	21.9
186819	7	Sololá	716	San Marcos la Laguna 	11	San Marcos la laguna 	4	Abril	2023-07-04T00:00:00	2024-11-08T10:00:00	3	Temperatura mínima	20.7
186820	7	Sololá	716	San Marcos la Laguna 	11	San Marcos la laguna 	4	Abril	2023-07-04T00:00:00	2024-11-08T10:00:00	5	Humedad	66
186821	7	Sololá	716	San Marcos la Laguna 	11	San Marcos la laguna 	4	Abril	2023-07-04T00:00:00	2024-11-08T10:00:00	6	Velocidad del viento	4.8
186822	7	Sololá	716	San Marcos la Laguna 	11	San Marcos la laguna 	4	Abril	2023-07-04T00:00:00	2024-11-08T10:00:00	7	Dirección del viento	4.83
186823	7	Sololá	716	San Marcos la Laguna 	11	San Marcos la laguna 	4	Abril	2023-07-04T00:00:00	2024-11-08T10:00:00	1	Precipitación	0
186824	7	Sololá	716	San Marcos la Laguna 	11	San Marcos la laguna 	4	Abril	2023-07-04T00:00:00	2024-11-08T10:00:00	8	Radiación solar	655
186825	7	Sololá	716	San Marcos la Laguna 	11	San Marcos la laguna 	4	Abril	2023-07-04T00:00:00	2024-11-08T11:00:00	2	Temperatura media	21.8
186826	7	Sololá	716	San Marcos la Laguna 	11	San Marcos la laguna 	4	Abril	2023-07-04T00:00:00	2024-11-08T11:00:00	4	Temperatura máxima	23.2
186827	7	Sololá	716	San Marcos la Laguna 	11	San Marcos la laguna 	4	Abril	2023-07-04T00:00:00	2024-11-08T11:00:00	3	Temperatura mínima	21.8
186828	7	Sololá	716	San Marcos la Laguna 	11	San Marcos la laguna 	4	Abril	2023-07-04T00:00:00	2024-11-08T11:00:00	5	Humedad	62
186829	7	Sololá	716	San Marcos la Laguna 	11	San Marcos la laguna 	4	Abril	2023-07-04T00:00:00	2024-11-08T11:00:00	6	Velocidad del viento	8
186830	7	Sololá	716	San Marcos la Laguna 	11	San Marcos la laguna 	4	Abril	2023-07-04T00:00:00	2024-11-08T11:00:00	7	Dirección del viento	8.05
186831	7	Sololá	716	San Marcos la Laguna 	11	San Marcos la laguna 	4	Abril	2023-07-04T00:00:00	2024-11-08T11:00:00	1	Precipitación	0
186832	7	Sololá	716	San Marcos la Laguna 	11	San Marcos la laguna 	4	Abril	2023-07-04T00:00:00	2024-11-08T11:00:00	8	Radiación solar	796
186833	7	Sololá	716	San Marcos la Laguna 	11	San Marcos la laguna 	4	Abril	2023-07-04T00:00:00	2024-11-08T12:00:00	2	Temperatura media	21.9
186834	7	Sololá	716	San Marcos la Laguna 	11	San Marcos la laguna 	4	Abril	2023-07-04T00:00:00	2024-11-08T12:00:00	4	Temperatura máxima	22.4
186835	7	Sololá	716	San Marcos la Laguna 	11	San Marcos la laguna 	4	Abril	2023-07-04T00:00:00	2024-11-08T12:00:00	3	Temperatura mínima	21.6
186836	7	Sololá	716	San Marcos la Laguna 	11	San Marcos la laguna 	4	Abril	2023-07-04T00:00:00	2024-11-08T12:00:00	5	Humedad	73
186837	7	Sololá	716	San Marcos la Laguna 	11	San Marcos la laguna 	4	Abril	2023-07-04T00:00:00	2024-11-08T12:00:00	6	Velocidad del viento	16.1
186838	7	Sololá	716	San Marcos la Laguna 	11	San Marcos la laguna 	4	Abril	2023-07-04T00:00:00	2024-11-08T12:00:00	7	Dirección del viento	16.09
186839	7	Sololá	716	San Marcos la Laguna 	11	San Marcos la laguna 	4	Abril	2023-07-04T00:00:00	2024-11-08T12:00:00	1	Precipitación	0
186840	7	Sololá	716	San Marcos la Laguna 	11	San Marcos la laguna 	4	Abril	2023-07-04T00:00:00	2024-11-08T12:00:00	8	Radiación solar	876
186841	7	Sololá	716	San Marcos la Laguna 	11	San Marcos la laguna 	4	Abril	2023-07-04T00:00:00	2024-11-08T13:00:00	2	Temperatura media	22.1
186842	7	Sololá	716	San Marcos la Laguna 	11	San Marcos la laguna 	4	Abril	2023-07-04T00:00:00	2024-11-08T13:00:00	4	Temperatura máxima	22.3
186843	7	Sololá	716	San Marcos la Laguna 	11	San Marcos la laguna 	4	Abril	2023-07-04T00:00:00	2024-11-08T13:00:00	3	Temperatura mínima	21.5
186844	7	Sololá	716	San Marcos la Laguna 	11	San Marcos la laguna 	4	Abril	2023-07-04T00:00:00	2024-11-08T13:00:00	5	Humedad	71
186845	7	Sololá	716	San Marcos la Laguna 	11	San Marcos la laguna 	4	Abril	2023-07-04T00:00:00	2024-11-08T13:00:00	6	Velocidad del viento	14.5
186846	7	Sololá	716	San Marcos la Laguna 	11	San Marcos la laguna 	4	Abril	2023-07-04T00:00:00	2024-11-08T13:00:00	7	Dirección del viento	14.48
186847	7	Sololá	716	San Marcos la Laguna 	11	San Marcos la laguna 	4	Abril	2023-07-04T00:00:00	2024-11-08T13:00:00	1	Precipitación	0
186848	7	Sololá	716	San Marcos la Laguna 	11	San Marcos la laguna 	4	Abril	2023-07-04T00:00:00	2024-11-08T13:00:00	8	Radiación solar	883
186849	7	Sololá	716	San Marcos la Laguna 	11	San Marcos la laguna 	4	Abril	2023-07-04T00:00:00	2024-11-08T14:00:00	2	Temperatura media	21.6
186850	7	Sololá	716	San Marcos la Laguna 	11	San Marcos la laguna 	4	Abril	2023-07-04T00:00:00	2024-11-08T14:00:00	4	Temperatura máxima	22.3
186851	7	Sololá	716	San Marcos la Laguna 	11	San Marcos la laguna 	4	Abril	2023-07-04T00:00:00	2024-11-08T14:00:00	3	Temperatura mínima	21.4
186852	7	Sololá	716	San Marcos la Laguna 	11	San Marcos la laguna 	4	Abril	2023-07-04T00:00:00	2024-11-08T14:00:00	5	Humedad	76
186853	7	Sololá	716	San Marcos la Laguna 	11	San Marcos la laguna 	4	Abril	2023-07-04T00:00:00	2024-11-08T14:00:00	6	Velocidad del viento	12.9
186854	7	Sololá	716	San Marcos la Laguna 	11	San Marcos la laguna 	4	Abril	2023-07-04T00:00:00	2024-11-08T14:00:00	7	Dirección del viento	12.87
186855	7	Sololá	716	San Marcos la Laguna 	11	San Marcos la laguna 	4	Abril	2023-07-04T00:00:00	2024-11-08T14:00:00	1	Precipitación	0
186856	7	Sololá	716	San Marcos la Laguna 	11	San Marcos la laguna 	4	Abril	2023-07-04T00:00:00	2024-11-08T14:00:00	8	Radiación solar	464
186857	7	Sololá	716	San Marcos la Laguna 	11	San Marcos la laguna 	4	Abril	2023-07-04T00:00:00	2024-11-08T15:00:00	2	Temperatura media	21.7
186858	7	Sololá	716	San Marcos la Laguna 	11	San Marcos la laguna 	4	Abril	2023-07-04T00:00:00	2024-11-08T15:00:00	4	Temperatura máxima	22.4
186859	7	Sololá	716	San Marcos la Laguna 	11	San Marcos la laguna 	4	Abril	2023-07-04T00:00:00	2024-11-08T15:00:00	3	Temperatura mínima	21.4
186860	7	Sololá	716	San Marcos la Laguna 	11	San Marcos la laguna 	4	Abril	2023-07-04T00:00:00	2024-11-08T15:00:00	5	Humedad	78
186861	7	Sololá	716	San Marcos la Laguna 	11	San Marcos la laguna 	4	Abril	2023-07-04T00:00:00	2024-11-08T15:00:00	6	Velocidad del viento	9.7
186862	7	Sololá	716	San Marcos la Laguna 	11	San Marcos la laguna 	4	Abril	2023-07-04T00:00:00	2024-11-08T15:00:00	7	Dirección del viento	9.66
186863	7	Sololá	716	San Marcos la Laguna 	11	San Marcos la laguna 	4	Abril	2023-07-04T00:00:00	2024-11-08T15:00:00	1	Precipitación	0
186864	7	Sololá	716	San Marcos la Laguna 	11	San Marcos la laguna 	4	Abril	2023-07-04T00:00:00	2024-11-08T15:00:00	8	Radiación solar	348
186865	7	Sololá	716	San Marcos la Laguna 	11	San Marcos la laguna 	4	Abril	2023-07-04T00:00:00	2024-11-08T16:00:00	2	Temperatura media	21.7
186866	7	Sololá	716	San Marcos la Laguna 	11	San Marcos la laguna 	4	Abril	2023-07-04T00:00:00	2024-11-08T16:00:00	4	Temperatura máxima	21.8
186867	7	Sololá	716	San Marcos la Laguna 	11	San Marcos la laguna 	4	Abril	2023-07-04T00:00:00	2024-11-08T16:00:00	3	Temperatura mínima	21.4
186868	7	Sololá	716	San Marcos la Laguna 	11	San Marcos la laguna 	4	Abril	2023-07-04T00:00:00	2024-11-08T16:00:00	5	Humedad	75
186869	7	Sololá	716	San Marcos la Laguna 	11	San Marcos la laguna 	4	Abril	2023-07-04T00:00:00	2024-11-08T16:00:00	6	Velocidad del viento	9.7
186870	7	Sololá	716	San Marcos la Laguna 	11	San Marcos la laguna 	4	Abril	2023-07-04T00:00:00	2024-11-08T16:00:00	7	Dirección del viento	9.66
186871	7	Sololá	716	San Marcos la Laguna 	11	San Marcos la laguna 	4	Abril	2023-07-04T00:00:00	2024-11-08T16:00:00	1	Precipitación	0
186872	7	Sololá	716	San Marcos la Laguna 	11	San Marcos la laguna 	4	Abril	2023-07-04T00:00:00	2024-11-08T16:00:00	8	Radiación solar	381
186873	7	Sololá	716	San Marcos la Laguna 	11	San Marcos la laguna 	4	Abril	2023-07-04T00:00:00	2024-11-08T17:00:00	2	Temperatura media	21.4
186874	7	Sololá	716	San Marcos la Laguna 	11	San Marcos la laguna 	4	Abril	2023-07-04T00:00:00	2024-11-08T17:00:00	4	Temperatura máxima	21.7
186875	7	Sololá	716	San Marcos la Laguna 	11	San Marcos la laguna 	4	Abril	2023-07-04T00:00:00	2024-11-08T17:00:00	3	Temperatura mínima	21.2
186876	7	Sololá	716	San Marcos la Laguna 	11	San Marcos la laguna 	4	Abril	2023-07-04T00:00:00	2024-11-08T17:00:00	5	Humedad	76
186877	7	Sololá	716	San Marcos la Laguna 	11	San Marcos la laguna 	4	Abril	2023-07-04T00:00:00	2024-11-08T17:00:00	6	Velocidad del viento	8
186878	7	Sololá	716	San Marcos la Laguna 	11	San Marcos la laguna 	4	Abril	2023-07-04T00:00:00	2024-11-08T17:00:00	7	Dirección del viento	8.05
186879	7	Sololá	716	San Marcos la Laguna 	11	San Marcos la laguna 	4	Abril	2023-07-04T00:00:00	2024-11-08T17:00:00	1	Precipitación	0
186880	7	Sololá	716	San Marcos la Laguna 	11	San Marcos la laguna 	4	Abril	2023-07-04T00:00:00	2024-11-08T17:00:00	8	Radiación solar	206
186881	7	Sololá	716	San Marcos la Laguna 	11	San Marcos la laguna 	4	Abril	2023-07-04T00:00:00	2024-11-08T18:00:00	2	Temperatura media	20.6
186882	7	Sololá	716	San Marcos la Laguna 	11	San Marcos la laguna 	4	Abril	2023-07-04T00:00:00	2024-11-08T18:00:00	4	Temperatura máxima	21.4
186883	7	Sololá	716	San Marcos la Laguna 	11	San Marcos la laguna 	4	Abril	2023-07-04T00:00:00	2024-11-08T18:00:00	3	Temperatura mínima	20.6
186884	7	Sololá	716	San Marcos la Laguna 	11	San Marcos la laguna 	4	Abril	2023-07-04T00:00:00	2024-11-08T18:00:00	5	Humedad	84
186885	7	Sololá	716	San Marcos la Laguna 	11	San Marcos la laguna 	4	Abril	2023-07-04T00:00:00	2024-11-08T18:00:00	6	Velocidad del viento	6.4
186886	7	Sololá	716	San Marcos la Laguna 	11	San Marcos la laguna 	4	Abril	2023-07-04T00:00:00	2024-11-08T18:00:00	7	Dirección del viento	6.44
186887	7	Sololá	716	San Marcos la Laguna 	11	San Marcos la laguna 	4	Abril	2023-07-04T00:00:00	2024-11-08T18:00:00	1	Precipitación	0
186888	7	Sololá	716	San Marcos la Laguna 	11	San Marcos la laguna 	4	Abril	2023-07-04T00:00:00	2024-11-08T18:00:00	8	Radiación solar	65
186889	7	Sololá	716	San Marcos la Laguna 	11	San Marcos la laguna 	4	Abril	2023-07-04T00:00:00	2024-11-08T19:00:00	2	Temperatura media	20.2
186890	7	Sololá	716	San Marcos la Laguna 	11	San Marcos la laguna 	4	Abril	2023-07-04T00:00:00	2024-11-08T19:00:00	4	Temperatura máxima	20.6
186891	7	Sololá	716	San Marcos la Laguna 	11	San Marcos la laguna 	4	Abril	2023-07-04T00:00:00	2024-11-08T19:00:00	3	Temperatura mínima	20.2
186892	7	Sololá	716	San Marcos la Laguna 	11	San Marcos la laguna 	4	Abril	2023-07-04T00:00:00	2024-11-08T19:00:00	5	Humedad	86
186893	7	Sololá	716	San Marcos la Laguna 	11	San Marcos la laguna 	4	Abril	2023-07-04T00:00:00	2024-11-08T19:00:00	6	Velocidad del viento	6.4
186894	7	Sololá	716	San Marcos la Laguna 	11	San Marcos la laguna 	4	Abril	2023-07-04T00:00:00	2024-11-08T19:00:00	7	Dirección del viento	6.44
186895	7	Sololá	716	San Marcos la Laguna 	11	San Marcos la laguna 	4	Abril	2023-07-04T00:00:00	2024-11-08T19:00:00	1	Precipitación	0
186896	7	Sololá	716	San Marcos la Laguna 	11	San Marcos la laguna 	4	Abril	2023-07-04T00:00:00	2024-11-08T19:00:00	8	Radiación solar	0
186897	7	Sololá	716	San Marcos la Laguna 	11	San Marcos la laguna 	4	Abril	2023-07-04T00:00:00	2024-11-08T20:00:00	2	Temperatura media	20.9
186898	7	Sololá	716	San Marcos la Laguna 	11	San Marcos la laguna 	4	Abril	2023-07-04T00:00:00	2024-11-08T20:00:00	4	Temperatura máxima	20.9
186899	7	Sololá	716	San Marcos la Laguna 	11	San Marcos la laguna 	4	Abril	2023-07-04T00:00:00	2024-11-08T20:00:00	3	Temperatura mínima	20.1
186900	7	Sololá	716	San Marcos la Laguna 	11	San Marcos la laguna 	4	Abril	2023-07-04T00:00:00	2024-11-08T20:00:00	5	Humedad	67
186901	7	Sololá	716	San Marcos la Laguna 	11	San Marcos la laguna 	4	Abril	2023-07-04T00:00:00	2024-11-08T20:00:00	6	Velocidad del viento	6.4
186902	7	Sololá	716	San Marcos la Laguna 	11	San Marcos la laguna 	4	Abril	2023-07-04T00:00:00	2024-11-08T20:00:00	7	Dirección del viento	6.44
186903	7	Sololá	716	San Marcos la Laguna 	11	San Marcos la laguna 	4	Abril	2023-07-04T00:00:00	2024-11-08T20:00:00	1	Precipitación	0
186904	7	Sololá	716	San Marcos la Laguna 	11	San Marcos la laguna 	4	Abril	2023-07-04T00:00:00	2024-11-08T20:00:00	8	Radiación solar	0
186905	7	Sololá	716	San Marcos la Laguna 	11	San Marcos la laguna 	4	Abril	2023-07-04T00:00:00	2024-11-08T21:00:00	2	Temperatura media	18.8
186906	7	Sololá	716	San Marcos la Laguna 	11	San Marcos la laguna 	4	Abril	2023-07-04T00:00:00	2024-11-08T21:00:00	4	Temperatura máxima	21.1
186907	7	Sololá	716	San Marcos la Laguna 	11	San Marcos la laguna 	4	Abril	2023-07-04T00:00:00	2024-11-08T21:00:00	3	Temperatura mínima	18.8
186908	7	Sololá	716	San Marcos la Laguna 	11	San Marcos la laguna 	4	Abril	2023-07-04T00:00:00	2024-11-08T21:00:00	5	Humedad	72
186909	7	Sololá	716	San Marcos la Laguna 	11	San Marcos la laguna 	4	Abril	2023-07-04T00:00:00	2024-11-08T21:00:00	6	Velocidad del viento	4.8
186910	7	Sololá	716	San Marcos la Laguna 	11	San Marcos la laguna 	4	Abril	2023-07-04T00:00:00	2024-11-08T21:00:00	7	Dirección del viento	4.83
186911	7	Sololá	716	San Marcos la Laguna 	11	San Marcos la laguna 	4	Abril	2023-07-04T00:00:00	2024-11-08T21:00:00	1	Precipitación	0
186912	7	Sololá	716	San Marcos la Laguna 	11	San Marcos la laguna 	4	Abril	2023-07-04T00:00:00	2024-11-08T21:00:00	8	Radiación solar	0
186913	7	Sololá	716	San Marcos la Laguna 	11	San Marcos la laguna 	4	Abril	2023-07-04T00:00:00	2024-11-08T22:00:00	2	Temperatura media	19.6
186914	7	Sololá	716	San Marcos la Laguna 	11	San Marcos la laguna 	4	Abril	2023-07-04T00:00:00	2024-11-08T22:00:00	4	Temperatura máxima	19.8
186915	7	Sololá	716	San Marcos la Laguna 	11	San Marcos la laguna 	4	Abril	2023-07-04T00:00:00	2024-11-08T22:00:00	3	Temperatura mínima	18.6
186916	7	Sololá	716	San Marcos la Laguna 	11	San Marcos la laguna 	4	Abril	2023-07-04T00:00:00	2024-11-08T22:00:00	5	Humedad	68
186917	7	Sololá	716	San Marcos la Laguna 	11	San Marcos la laguna 	4	Abril	2023-07-04T00:00:00	2024-11-08T22:00:00	6	Velocidad del viento	4.8
186918	7	Sololá	716	San Marcos la Laguna 	11	San Marcos la laguna 	4	Abril	2023-07-04T00:00:00	2024-11-08T22:00:00	7	Dirección del viento	4.83
186919	7	Sololá	716	San Marcos la Laguna 	11	San Marcos la laguna 	4	Abril	2023-07-04T00:00:00	2024-11-08T22:00:00	1	Precipitación	0
186920	7	Sololá	716	San Marcos la Laguna 	11	San Marcos la laguna 	4	Abril	2023-07-04T00:00:00	2024-11-08T22:00:00	8	Radiación solar	0
186921	7	Sololá	716	San Marcos la Laguna 	11	San Marcos la laguna 	4	Abril	2023-07-04T00:00:00	2024-11-08T23:00:00	2	Temperatura media	18.8
186922	7	Sololá	716	San Marcos la Laguna 	11	San Marcos la laguna 	4	Abril	2023-07-04T00:00:00	2024-11-08T23:00:00	4	Temperatura máxima	19.7
186923	7	Sololá	716	San Marcos la Laguna 	11	San Marcos la laguna 	4	Abril	2023-07-04T00:00:00	2024-11-08T23:00:00	3	Temperatura mínima	18.3
186924	7	Sololá	716	San Marcos la Laguna 	11	San Marcos la laguna 	4	Abril	2023-07-04T00:00:00	2024-11-08T23:00:00	5	Humedad	68
186925	7	Sololá	716	San Marcos la Laguna 	11	San Marcos la laguna 	4	Abril	2023-07-04T00:00:00	2024-11-08T23:00:00	6	Velocidad del viento	4.8
186926	7	Sololá	716	San Marcos la Laguna 	11	San Marcos la laguna 	4	Abril	2023-07-04T00:00:00	2024-11-08T23:00:00	7	Dirección del viento	4.83
186927	7	Sololá	716	San Marcos la Laguna 	11	San Marcos la laguna 	4	Abril	2023-07-04T00:00:00	2024-11-08T23:00:00	1	Precipitación	0
186928	7	Sololá	716	San Marcos la Laguna 	11	San Marcos la laguna 	4	Abril	2023-07-04T00:00:00	2024-11-08T23:00:00	8	Radiación solar	0
186929	7	Sololá	716	San Marcos la Laguna 	11	San Marcos la laguna 	4	Abril	2023-08-04T00:00:00	2024-11-08T00:00:00	2	Temperatura media	18.7
186930	7	Sololá	716	San Marcos la Laguna 	11	San Marcos la laguna 	4	Abril	2023-08-04T00:00:00	2024-11-08T00:00:00	4	Temperatura máxima	18.9
186931	7	Sololá	716	San Marcos la Laguna 	11	San Marcos la laguna 	4	Abril	2023-08-04T00:00:00	2024-11-08T00:00:00	3	Temperatura mínima	17.9
186932	7	Sololá	716	San Marcos la Laguna 	11	San Marcos la laguna 	4	Abril	2023-08-04T00:00:00	2024-11-08T00:00:00	5	Humedad	68
186933	7	Sololá	716	San Marcos la Laguna 	11	San Marcos la laguna 	4	Abril	2023-08-04T00:00:00	2024-11-08T00:00:00	6	Velocidad del viento	6.4
186934	7	Sololá	716	San Marcos la Laguna 	11	San Marcos la laguna 	4	Abril	2023-08-04T00:00:00	2024-11-08T00:00:00	7	Dirección del viento	6.44
186935	7	Sololá	716	San Marcos la Laguna 	11	San Marcos la laguna 	4	Abril	2023-08-04T00:00:00	2024-11-08T00:00:00	1	Precipitación	0
186936	7	Sololá	716	San Marcos la Laguna 	11	San Marcos la laguna 	4	Abril	2023-08-04T00:00:00	2024-11-08T00:00:00	8	Radiación solar	0
186937	7	Sololá	716	San Marcos la Laguna 	11	San Marcos la laguna 	4	Abril	2023-08-04T00:00:00	2024-11-08T01:00:00	2	Temperatura media	17.9
186938	7	Sololá	716	San Marcos la Laguna 	11	San Marcos la laguna 	4	Abril	2023-08-04T00:00:00	2024-11-08T01:00:00	4	Temperatura máxima	18.8
186939	7	Sololá	716	San Marcos la Laguna 	11	San Marcos la laguna 	4	Abril	2023-08-04T00:00:00	2024-11-08T01:00:00	3	Temperatura mínima	17.9
186940	7	Sololá	716	San Marcos la Laguna 	11	San Marcos la laguna 	4	Abril	2023-08-04T00:00:00	2024-11-08T01:00:00	5	Humedad	72
186941	7	Sololá	716	San Marcos la Laguna 	11	San Marcos la laguna 	4	Abril	2023-08-04T00:00:00	2024-11-08T01:00:00	6	Velocidad del viento	4.8
186942	7	Sololá	716	San Marcos la Laguna 	11	San Marcos la laguna 	4	Abril	2023-08-04T00:00:00	2024-11-08T01:00:00	7	Dirección del viento	4.83
186943	7	Sololá	716	San Marcos la Laguna 	11	San Marcos la laguna 	4	Abril	2023-08-04T00:00:00	2024-11-08T01:00:00	1	Precipitación	0
186944	7	Sololá	716	San Marcos la Laguna 	11	San Marcos la laguna 	4	Abril	2023-08-04T00:00:00	2024-11-08T01:00:00	8	Radiación solar	0
186945	7	Sololá	716	San Marcos la Laguna 	11	San Marcos la laguna 	4	Abril	2023-08-04T00:00:00	2024-11-08T02:00:00	2	Temperatura media	17.5
186946	7	Sololá	716	San Marcos la Laguna 	11	San Marcos la laguna 	4	Abril	2023-08-04T00:00:00	2024-11-08T02:00:00	4	Temperatura máxima	17.9
186947	7	Sololá	716	San Marcos la Laguna 	11	San Marcos la laguna 	4	Abril	2023-08-04T00:00:00	2024-11-08T02:00:00	3	Temperatura mínima	17.3
186948	7	Sololá	716	San Marcos la Laguna 	11	San Marcos la laguna 	4	Abril	2023-08-04T00:00:00	2024-11-08T02:00:00	5	Humedad	74
186949	7	Sololá	716	San Marcos la Laguna 	11	San Marcos la laguna 	4	Abril	2023-08-04T00:00:00	2024-11-08T02:00:00	6	Velocidad del viento	6.4
186950	7	Sololá	716	San Marcos la Laguna 	11	San Marcos la laguna 	4	Abril	2023-08-04T00:00:00	2024-11-08T02:00:00	7	Dirección del viento	6.44
186951	7	Sololá	716	San Marcos la Laguna 	11	San Marcos la laguna 	4	Abril	2023-08-04T00:00:00	2024-11-08T02:00:00	1	Precipitación	0
186952	7	Sololá	716	San Marcos la Laguna 	11	San Marcos la laguna 	4	Abril	2023-08-04T00:00:00	2024-11-08T02:00:00	8	Radiación solar	0
186953	7	Sololá	716	San Marcos la Laguna 	11	San Marcos la laguna 	4	Abril	2023-08-04T00:00:00	2024-11-08T03:00:00	2	Temperatura media	17.1
186954	7	Sololá	716	San Marcos la Laguna 	11	San Marcos la laguna 	4	Abril	2023-08-04T00:00:00	2024-11-08T03:00:00	4	Temperatura máxima	17.6
186955	7	Sololá	716	San Marcos la Laguna 	11	San Marcos la laguna 	4	Abril	2023-08-04T00:00:00	2024-11-08T03:00:00	3	Temperatura mínima	17
186956	7	Sololá	716	San Marcos la Laguna 	11	San Marcos la laguna 	4	Abril	2023-08-04T00:00:00	2024-11-08T03:00:00	5	Humedad	75
186957	7	Sololá	716	San Marcos la Laguna 	11	San Marcos la laguna 	4	Abril	2023-08-04T00:00:00	2024-11-08T03:00:00	6	Velocidad del viento	8
186958	7	Sololá	716	San Marcos la Laguna 	11	San Marcos la laguna 	4	Abril	2023-08-04T00:00:00	2024-11-08T03:00:00	7	Dirección del viento	8.05
186959	7	Sololá	716	San Marcos la Laguna 	11	San Marcos la laguna 	4	Abril	2023-08-04T00:00:00	2024-11-08T03:00:00	1	Precipitación	0
186960	7	Sololá	716	San Marcos la Laguna 	11	San Marcos la laguna 	4	Abril	2023-08-04T00:00:00	2024-11-08T03:00:00	8	Radiación solar	0
186961	7	Sololá	716	San Marcos la Laguna 	11	San Marcos la laguna 	4	Abril	2023-08-04T00:00:00	2024-11-08T04:00:00	2	Temperatura media	16.8
186962	7	Sololá	716	San Marcos la Laguna 	11	San Marcos la laguna 	4	Abril	2023-08-04T00:00:00	2024-11-08T04:00:00	4	Temperatura máxima	17.2
186963	7	Sololá	716	San Marcos la Laguna 	11	San Marcos la laguna 	4	Abril	2023-08-04T00:00:00	2024-11-08T04:00:00	3	Temperatura mínima	16.8
186964	7	Sololá	716	San Marcos la Laguna 	11	San Marcos la laguna 	4	Abril	2023-08-04T00:00:00	2024-11-08T04:00:00	5	Humedad	76
186965	7	Sololá	716	San Marcos la Laguna 	11	San Marcos la laguna 	4	Abril	2023-08-04T00:00:00	2024-11-08T04:00:00	6	Velocidad del viento	8
186966	7	Sololá	716	San Marcos la Laguna 	11	San Marcos la laguna 	4	Abril	2023-08-04T00:00:00	2024-11-08T04:00:00	7	Dirección del viento	8.05
186967	7	Sololá	716	San Marcos la Laguna 	11	San Marcos la laguna 	4	Abril	2023-08-04T00:00:00	2024-11-08T04:00:00	1	Precipitación	0
186968	7	Sololá	716	San Marcos la Laguna 	11	San Marcos la laguna 	4	Abril	2023-08-04T00:00:00	2024-11-08T04:00:00	8	Radiación solar	0
186969	7	Sololá	716	San Marcos la Laguna 	11	San Marcos la laguna 	4	Abril	2023-08-04T00:00:00	2024-11-08T05:00:00	2	Temperatura media	16.7
186970	7	Sololá	716	San Marcos la Laguna 	11	San Marcos la laguna 	4	Abril	2023-08-04T00:00:00	2024-11-08T05:00:00	4	Temperatura máxima	16.8
186971	7	Sololá	716	San Marcos la Laguna 	11	San Marcos la laguna 	4	Abril	2023-08-04T00:00:00	2024-11-08T05:00:00	3	Temperatura mínima	16.2
186972	7	Sololá	716	San Marcos la Laguna 	11	San Marcos la laguna 	4	Abril	2023-08-04T00:00:00	2024-11-08T05:00:00	5	Humedad	76
186973	7	Sololá	716	San Marcos la Laguna 	11	San Marcos la laguna 	4	Abril	2023-08-04T00:00:00	2024-11-08T05:00:00	6	Velocidad del viento	8
186974	7	Sololá	716	San Marcos la Laguna 	11	San Marcos la laguna 	4	Abril	2023-08-04T00:00:00	2024-11-08T05:00:00	7	Dirección del viento	8.05
186975	7	Sololá	716	San Marcos la Laguna 	11	San Marcos la laguna 	4	Abril	2023-08-04T00:00:00	2024-11-08T05:00:00	1	Precipitación	0
186976	7	Sololá	716	San Marcos la Laguna 	11	San Marcos la laguna 	4	Abril	2023-08-04T00:00:00	2024-11-08T05:00:00	8	Radiación solar	0
186977	7	Sololá	716	San Marcos la Laguna 	11	San Marcos la laguna 	4	Abril	2023-08-04T00:00:00	2024-11-08T06:00:00	2	Temperatura media	15.6
186978	7	Sololá	716	San Marcos la Laguna 	11	San Marcos la laguna 	4	Abril	2023-08-04T00:00:00	2024-11-08T06:00:00	4	Temperatura máxima	16.8
186979	7	Sololá	716	San Marcos la Laguna 	11	San Marcos la laguna 	4	Abril	2023-08-04T00:00:00	2024-11-08T06:00:00	3	Temperatura mínima	15.6
186980	7	Sololá	716	San Marcos la Laguna 	11	San Marcos la laguna 	4	Abril	2023-08-04T00:00:00	2024-11-08T06:00:00	5	Humedad	79
186981	7	Sololá	716	San Marcos la Laguna 	11	San Marcos la laguna 	4	Abril	2023-08-04T00:00:00	2024-11-08T06:00:00	6	Velocidad del viento	8
186982	7	Sololá	716	San Marcos la Laguna 	11	San Marcos la laguna 	4	Abril	2023-08-04T00:00:00	2024-11-08T06:00:00	7	Dirección del viento	8.05
186983	7	Sololá	716	San Marcos la Laguna 	11	San Marcos la laguna 	4	Abril	2023-08-04T00:00:00	2024-11-08T06:00:00	1	Precipitación	0
186984	7	Sololá	716	San Marcos la Laguna 	11	San Marcos la laguna 	4	Abril	2023-08-04T00:00:00	2024-11-08T06:00:00	8	Radiación solar	0
186985	7	Sololá	716	San Marcos la Laguna 	11	San Marcos la laguna 	4	Abril	2023-08-04T00:00:00	2024-11-08T07:00:00	2	Temperatura media	16
186986	7	Sololá	716	San Marcos la Laguna 	11	San Marcos la laguna 	4	Abril	2023-08-04T00:00:00	2024-11-08T07:00:00	4	Temperatura máxima	16
186987	7	Sololá	716	San Marcos la Laguna 	11	San Marcos la laguna 	4	Abril	2023-08-04T00:00:00	2024-11-08T07:00:00	3	Temperatura mínima	15.3
186988	7	Sololá	716	San Marcos la Laguna 	11	San Marcos la laguna 	4	Abril	2023-08-04T00:00:00	2024-11-08T07:00:00	5	Humedad	81
186989	7	Sololá	716	San Marcos la Laguna 	11	San Marcos la laguna 	4	Abril	2023-08-04T00:00:00	2024-11-08T07:00:00	6	Velocidad del viento	6.4
186990	7	Sololá	716	San Marcos la Laguna 	11	San Marcos la laguna 	4	Abril	2023-08-04T00:00:00	2024-11-08T07:00:00	7	Dirección del viento	6.44
186991	7	Sololá	716	San Marcos la Laguna 	11	San Marcos la laguna 	4	Abril	2023-08-04T00:00:00	2024-11-08T07:00:00	1	Precipitación	0
186992	7	Sololá	716	San Marcos la Laguna 	11	San Marcos la laguna 	4	Abril	2023-08-04T00:00:00	2024-11-08T07:00:00	8	Radiación solar	42
186993	7	Sololá	716	San Marcos la Laguna 	11	San Marcos la laguna 	4	Abril	2023-08-04T00:00:00	2024-11-08T08:00:00	2	Temperatura media	19.8
186994	7	Sololá	716	San Marcos la Laguna 	11	San Marcos la laguna 	4	Abril	2023-08-04T00:00:00	2024-11-08T08:00:00	4	Temperatura máxima	19.8
186995	7	Sololá	716	San Marcos la Laguna 	11	San Marcos la laguna 	4	Abril	2023-08-04T00:00:00	2024-11-08T08:00:00	3	Temperatura mínima	16
186996	7	Sololá	716	San Marcos la Laguna 	11	San Marcos la laguna 	4	Abril	2023-08-04T00:00:00	2024-11-08T08:00:00	5	Humedad	72
186997	7	Sololá	716	San Marcos la Laguna 	11	San Marcos la laguna 	4	Abril	2023-08-04T00:00:00	2024-11-08T08:00:00	6	Velocidad del viento	3.2
186998	7	Sololá	716	San Marcos la Laguna 	11	San Marcos la laguna 	4	Abril	2023-08-04T00:00:00	2024-11-08T08:00:00	7	Dirección del viento	3.22
186999	7	Sololá	716	San Marcos la Laguna 	11	San Marcos la laguna 	4	Abril	2023-08-04T00:00:00	2024-11-08T08:00:00	1	Precipitación	0
187000	7	Sololá	716	San Marcos la Laguna 	11	San Marcos la laguna 	4	Abril	2023-08-04T00:00:00	2024-11-08T08:00:00	8	Radiación solar	213
187001	7	Sololá	716	San Marcos la Laguna 	11	San Marcos la laguna 	4	Abril	2023-08-04T00:00:00	2024-11-08T09:00:00	2	Temperatura media	20.5
187002	7	Sololá	716	San Marcos la Laguna 	11	San Marcos la laguna 	4	Abril	2023-08-04T00:00:00	2024-11-08T09:00:00	4	Temperatura máxima	20.8
187003	7	Sololá	716	San Marcos la Laguna 	11	San Marcos la laguna 	4	Abril	2023-08-04T00:00:00	2024-11-08T09:00:00	3	Temperatura mínima	19.8
187004	7	Sololá	716	San Marcos la Laguna 	11	San Marcos la laguna 	4	Abril	2023-08-04T00:00:00	2024-11-08T09:00:00	5	Humedad	71
187005	7	Sololá	716	San Marcos la Laguna 	11	San Marcos la laguna 	4	Abril	2023-08-04T00:00:00	2024-11-08T09:00:00	6	Velocidad del viento	3.2
187006	7	Sololá	716	San Marcos la Laguna 	11	San Marcos la laguna 	4	Abril	2023-08-04T00:00:00	2024-11-08T09:00:00	7	Dirección del viento	3.22
187007	7	Sololá	716	San Marcos la Laguna 	11	San Marcos la laguna 	4	Abril	2023-08-04T00:00:00	2024-11-08T09:00:00	1	Precipitación	0
187008	7	Sololá	716	San Marcos la Laguna 	11	San Marcos la laguna 	4	Abril	2023-08-04T00:00:00	2024-11-08T09:00:00	8	Radiación solar	460
187009	7	Sololá	716	San Marcos la Laguna 	11	San Marcos la laguna 	4	Abril	2023-08-04T00:00:00	2024-11-08T10:00:00	2	Temperatura media	21.7
187010	7	Sololá	716	San Marcos la Laguna 	11	San Marcos la laguna 	4	Abril	2023-08-04T00:00:00	2024-11-08T10:00:00	4	Temperatura máxima	21.8
187011	7	Sololá	716	San Marcos la Laguna 	11	San Marcos la laguna 	4	Abril	2023-08-04T00:00:00	2024-11-08T10:00:00	3	Temperatura mínima	20.4
187012	7	Sololá	716	San Marcos la Laguna 	11	San Marcos la laguna 	4	Abril	2023-08-04T00:00:00	2024-11-08T10:00:00	5	Humedad	62
187013	7	Sololá	716	San Marcos la Laguna 	11	San Marcos la laguna 	4	Abril	2023-08-04T00:00:00	2024-11-08T10:00:00	6	Velocidad del viento	6.4
187014	7	Sololá	716	San Marcos la Laguna 	11	San Marcos la laguna 	4	Abril	2023-08-04T00:00:00	2024-11-08T10:00:00	7	Dirección del viento	6.44
187015	7	Sololá	716	San Marcos la Laguna 	11	San Marcos la laguna 	4	Abril	2023-08-04T00:00:00	2024-11-08T10:00:00	1	Precipitación	0
187016	7	Sololá	716	San Marcos la Laguna 	11	San Marcos la laguna 	4	Abril	2023-08-04T00:00:00	2024-11-08T10:00:00	8	Radiación solar	679
187017	7	Sololá	716	San Marcos la Laguna 	11	San Marcos la laguna 	4	Abril	2023-08-04T00:00:00	2024-11-08T11:00:00	2	Temperatura media	21.8
187018	7	Sololá	716	San Marcos la Laguna 	11	San Marcos la laguna 	4	Abril	2023-08-04T00:00:00	2024-11-08T11:00:00	4	Temperatura máxima	22.2
187019	7	Sololá	716	San Marcos la Laguna 	11	San Marcos la laguna 	4	Abril	2023-08-04T00:00:00	2024-11-08T11:00:00	3	Temperatura mínima	21.2
187020	7	Sololá	716	San Marcos la Laguna 	11	San Marcos la laguna 	4	Abril	2023-08-04T00:00:00	2024-11-08T11:00:00	5	Humedad	70
187021	7	Sololá	716	San Marcos la Laguna 	11	San Marcos la laguna 	4	Abril	2023-08-04T00:00:00	2024-11-08T11:00:00	6	Velocidad del viento	11.3
187022	7	Sololá	716	San Marcos la Laguna 	11	San Marcos la laguna 	4	Abril	2023-08-04T00:00:00	2024-11-08T11:00:00	7	Dirección del viento	11.27
187023	7	Sololá	716	San Marcos la Laguna 	11	San Marcos la laguna 	4	Abril	2023-08-04T00:00:00	2024-11-08T11:00:00	1	Precipitación	0
187024	7	Sololá	716	San Marcos la Laguna 	11	San Marcos la laguna 	4	Abril	2023-08-04T00:00:00	2024-11-08T11:00:00	8	Radiación solar	811
187025	7	Sololá	716	San Marcos la Laguna 	11	San Marcos la laguna 	4	Abril	2023-08-04T00:00:00	2024-11-08T12:00:00	2	Temperatura media	22.1
187026	7	Sololá	716	San Marcos la Laguna 	11	San Marcos la laguna 	4	Abril	2023-08-04T00:00:00	2024-11-08T12:00:00	4	Temperatura máxima	22.4
187027	7	Sololá	716	San Marcos la Laguna 	11	San Marcos la laguna 	4	Abril	2023-08-04T00:00:00	2024-11-08T12:00:00	3	Temperatura mínima	21.8
187028	7	Sololá	716	San Marcos la Laguna 	11	San Marcos la laguna 	4	Abril	2023-08-04T00:00:00	2024-11-08T12:00:00	5	Humedad	75
187029	7	Sololá	716	San Marcos la Laguna 	11	San Marcos la laguna 	4	Abril	2023-08-04T00:00:00	2024-11-08T12:00:00	6	Velocidad del viento	12.9
187030	7	Sololá	716	San Marcos la Laguna 	11	San Marcos la laguna 	4	Abril	2023-08-04T00:00:00	2024-11-08T12:00:00	7	Dirección del viento	12.87
187031	7	Sololá	716	San Marcos la Laguna 	11	San Marcos la laguna 	4	Abril	2023-08-04T00:00:00	2024-11-08T12:00:00	1	Precipitación	0
187032	7	Sololá	716	San Marcos la Laguna 	11	San Marcos la laguna 	4	Abril	2023-08-04T00:00:00	2024-11-08T12:00:00	8	Radiación solar	908
187033	7	Sololá	716	San Marcos la Laguna 	11	San Marcos la laguna 	4	Abril	2023-08-04T00:00:00	2024-11-08T13:00:00	2	Temperatura media	21.7
187034	7	Sololá	716	San Marcos la Laguna 	11	San Marcos la laguna 	4	Abril	2023-08-04T00:00:00	2024-11-08T13:00:00	4	Temperatura máxima	22.7
187035	7	Sololá	716	San Marcos la Laguna 	11	San Marcos la laguna 	4	Abril	2023-08-04T00:00:00	2024-11-08T13:00:00	3	Temperatura mínima	21.6
187036	7	Sololá	716	San Marcos la Laguna 	11	San Marcos la laguna 	4	Abril	2023-08-04T00:00:00	2024-11-08T13:00:00	5	Humedad	73
187037	7	Sololá	716	San Marcos la Laguna 	11	San Marcos la laguna 	4	Abril	2023-08-04T00:00:00	2024-11-08T13:00:00	6	Velocidad del viento	12.9
187038	7	Sololá	716	San Marcos la Laguna 	11	San Marcos la laguna 	4	Abril	2023-08-04T00:00:00	2024-11-08T13:00:00	7	Dirección del viento	12.87
187039	7	Sololá	716	San Marcos la Laguna 	11	San Marcos la laguna 	4	Abril	2023-08-04T00:00:00	2024-11-08T13:00:00	1	Precipitación	0
187040	7	Sololá	716	San Marcos la Laguna 	11	San Marcos la laguna 	4	Abril	2023-08-04T00:00:00	2024-11-08T13:00:00	8	Radiación solar	923
187041	7	Sololá	716	San Marcos la Laguna 	11	San Marcos la laguna 	4	Abril	2023-08-04T00:00:00	2024-11-08T14:00:00	2	Temperatura media	22.2
187042	7	Sololá	716	San Marcos la Laguna 	11	San Marcos la laguna 	4	Abril	2023-08-04T00:00:00	2024-11-08T14:00:00	4	Temperatura máxima	22.2
187043	7	Sololá	716	San Marcos la Laguna 	11	San Marcos la laguna 	4	Abril	2023-08-04T00:00:00	2024-11-08T14:00:00	3	Temperatura mínima	21.2
187044	7	Sololá	716	San Marcos la Laguna 	11	San Marcos la laguna 	4	Abril	2023-08-04T00:00:00	2024-11-08T14:00:00	5	Humedad	78
187045	7	Sololá	716	San Marcos la Laguna 	11	San Marcos la laguna 	4	Abril	2023-08-04T00:00:00	2024-11-08T14:00:00	6	Velocidad del viento	16.1
187046	7	Sololá	716	San Marcos la Laguna 	11	San Marcos la laguna 	4	Abril	2023-08-04T00:00:00	2024-11-08T14:00:00	7	Dirección del viento	16.09
187047	7	Sololá	716	San Marcos la Laguna 	11	San Marcos la laguna 	4	Abril	2023-08-04T00:00:00	2024-11-08T14:00:00	1	Precipitación	0
187048	7	Sololá	716	San Marcos la Laguna 	11	San Marcos la laguna 	4	Abril	2023-08-04T00:00:00	2024-11-08T14:00:00	8	Radiación solar	778
187049	7	Sololá	716	San Marcos la Laguna 	11	San Marcos la laguna 	4	Abril	2023-08-04T00:00:00	2024-11-08T15:00:00	2	Temperatura media	22.7
187050	7	Sololá	716	San Marcos la Laguna 	11	San Marcos la laguna 	4	Abril	2023-08-04T00:00:00	2024-11-08T15:00:00	4	Temperatura máxima	22.8
187051	7	Sololá	716	San Marcos la Laguna 	11	San Marcos la laguna 	4	Abril	2023-08-04T00:00:00	2024-11-08T15:00:00	3	Temperatura mínima	21.4
187052	7	Sololá	716	San Marcos la Laguna 	11	San Marcos la laguna 	4	Abril	2023-08-04T00:00:00	2024-11-08T15:00:00	5	Humedad	71
187053	7	Sololá	716	San Marcos la Laguna 	11	San Marcos la laguna 	4	Abril	2023-08-04T00:00:00	2024-11-08T15:00:00	6	Velocidad del viento	9.7
187054	7	Sololá	716	San Marcos la Laguna 	11	San Marcos la laguna 	4	Abril	2023-08-04T00:00:00	2024-11-08T15:00:00	7	Dirección del viento	9.66
187055	7	Sololá	716	San Marcos la Laguna 	11	San Marcos la laguna 	4	Abril	2023-08-04T00:00:00	2024-11-08T15:00:00	1	Precipitación	0
187056	7	Sololá	716	San Marcos la Laguna 	11	San Marcos la laguna 	4	Abril	2023-08-04T00:00:00	2024-11-08T15:00:00	8	Radiación solar	513
187057	7	Sololá	716	San Marcos la Laguna 	11	San Marcos la laguna 	4	Abril	2023-08-04T00:00:00	2024-11-08T16:00:00	2	Temperatura media	21.9
187058	7	Sololá	716	San Marcos la Laguna 	11	San Marcos la laguna 	4	Abril	2023-08-04T00:00:00	2024-11-08T16:00:00	4	Temperatura máxima	23.1
187059	7	Sololá	716	San Marcos la Laguna 	11	San Marcos la laguna 	4	Abril	2023-08-04T00:00:00	2024-11-08T16:00:00	3	Temperatura mínima	21.7
187060	7	Sololá	716	San Marcos la Laguna 	11	San Marcos la laguna 	4	Abril	2023-08-04T00:00:00	2024-11-08T16:00:00	5	Humedad	75
187061	7	Sololá	716	San Marcos la Laguna 	11	San Marcos la laguna 	4	Abril	2023-08-04T00:00:00	2024-11-08T16:00:00	6	Velocidad del viento	9.7
187062	7	Sololá	716	San Marcos la Laguna 	11	San Marcos la laguna 	4	Abril	2023-08-04T00:00:00	2024-11-08T16:00:00	7	Dirección del viento	9.66
187063	7	Sololá	716	San Marcos la Laguna 	11	San Marcos la laguna 	4	Abril	2023-08-04T00:00:00	2024-11-08T16:00:00	1	Precipitación	0
187064	7	Sololá	716	San Marcos la Laguna 	11	San Marcos la laguna 	4	Abril	2023-08-04T00:00:00	2024-11-08T16:00:00	8	Radiación solar	518
187065	7	Sololá	716	San Marcos la Laguna 	11	San Marcos la laguna 	4	Abril	2023-08-04T00:00:00	2024-11-08T17:00:00	2	Temperatura media	21.2
187066	7	Sololá	716	San Marcos la Laguna 	11	San Marcos la laguna 	4	Abril	2023-08-04T00:00:00	2024-11-08T17:00:00	4	Temperatura máxima	21.9
187067	7	Sololá	716	San Marcos la Laguna 	11	San Marcos la laguna 	4	Abril	2023-08-04T00:00:00	2024-11-08T17:00:00	3	Temperatura mínima	21.2
187068	7	Sololá	716	San Marcos la Laguna 	11	San Marcos la laguna 	4	Abril	2023-08-04T00:00:00	2024-11-08T17:00:00	5	Humedad	80
187069	7	Sololá	716	San Marcos la Laguna 	11	San Marcos la laguna 	4	Abril	2023-08-04T00:00:00	2024-11-08T17:00:00	6	Velocidad del viento	11.3
187070	7	Sololá	716	San Marcos la Laguna 	11	San Marcos la laguna 	4	Abril	2023-08-04T00:00:00	2024-11-08T17:00:00	7	Dirección del viento	11.27
187071	7	Sololá	716	San Marcos la Laguna 	11	San Marcos la laguna 	4	Abril	2023-08-04T00:00:00	2024-11-08T17:00:00	1	Precipitación	0
187072	7	Sololá	716	San Marcos la Laguna 	11	San Marcos la laguna 	4	Abril	2023-08-04T00:00:00	2024-11-08T17:00:00	8	Radiación solar	272
187073	7	Sololá	716	San Marcos la Laguna 	11	San Marcos la laguna 	4	Abril	2023-08-04T00:00:00	2024-11-08T18:00:00	2	Temperatura media	20.3
187074	7	Sololá	716	San Marcos la Laguna 	11	San Marcos la laguna 	4	Abril	2023-08-04T00:00:00	2024-11-08T18:00:00	4	Temperatura máxima	21.2
187075	7	Sololá	716	San Marcos la Laguna 	11	San Marcos la laguna 	4	Abril	2023-08-04T00:00:00	2024-11-08T18:00:00	3	Temperatura mínima	20.3
187076	7	Sololá	716	San Marcos la Laguna 	11	San Marcos la laguna 	4	Abril	2023-08-04T00:00:00	2024-11-08T18:00:00	5	Humedad	87
187077	7	Sololá	716	San Marcos la Laguna 	11	San Marcos la laguna 	4	Abril	2023-08-04T00:00:00	2024-11-08T18:00:00	6	Velocidad del viento	9.7
187078	7	Sololá	716	San Marcos la Laguna 	11	San Marcos la laguna 	4	Abril	2023-08-04T00:00:00	2024-11-08T18:00:00	7	Dirección del viento	9.66
187079	7	Sololá	716	San Marcos la Laguna 	11	San Marcos la laguna 	4	Abril	2023-08-04T00:00:00	2024-11-08T18:00:00	1	Precipitación	0
187080	7	Sololá	716	San Marcos la Laguna 	11	San Marcos la laguna 	4	Abril	2023-08-04T00:00:00	2024-11-08T18:00:00	8	Radiación solar	62
187081	7	Sololá	716	San Marcos la Laguna 	11	San Marcos la laguna 	4	Abril	2023-08-04T00:00:00	2024-11-08T19:00:00	2	Temperatura media	19.9
187082	7	Sololá	716	San Marcos la Laguna 	11	San Marcos la laguna 	4	Abril	2023-08-04T00:00:00	2024-11-08T19:00:00	4	Temperatura máxima	20.3
187083	7	Sololá	716	San Marcos la Laguna 	11	San Marcos la laguna 	4	Abril	2023-08-04T00:00:00	2024-11-08T19:00:00	3	Temperatura mínima	19.8
187084	7	Sololá	716	San Marcos la Laguna 	11	San Marcos la laguna 	4	Abril	2023-08-04T00:00:00	2024-11-08T19:00:00	5	Humedad	86
187085	7	Sololá	716	San Marcos la Laguna 	11	San Marcos la laguna 	4	Abril	2023-08-04T00:00:00	2024-11-08T19:00:00	6	Velocidad del viento	8
187086	7	Sololá	716	San Marcos la Laguna 	11	San Marcos la laguna 	4	Abril	2023-08-04T00:00:00	2024-11-08T19:00:00	7	Dirección del viento	8.05
187087	7	Sololá	716	San Marcos la Laguna 	11	San Marcos la laguna 	4	Abril	2023-08-04T00:00:00	2024-11-08T19:00:00	1	Precipitación	0
187088	7	Sololá	716	San Marcos la Laguna 	11	San Marcos la laguna 	4	Abril	2023-08-04T00:00:00	2024-11-08T19:00:00	8	Radiación solar	0
187089	7	Sololá	716	San Marcos la Laguna 	11	San Marcos la laguna 	4	Abril	2023-08-04T00:00:00	2024-11-08T20:00:00	2	Temperatura media	20.7
187090	7	Sololá	716	San Marcos la Laguna 	11	San Marcos la laguna 	4	Abril	2023-08-04T00:00:00	2024-11-08T20:00:00	4	Temperatura máxima	20.9
187091	7	Sololá	716	San Marcos la Laguna 	11	San Marcos la laguna 	4	Abril	2023-08-04T00:00:00	2024-11-08T20:00:00	3	Temperatura mínima	19.8
187092	7	Sololá	716	San Marcos la Laguna 	11	San Marcos la laguna 	4	Abril	2023-08-04T00:00:00	2024-11-08T20:00:00	5	Humedad	58
187093	7	Sololá	716	San Marcos la Laguna 	11	San Marcos la laguna 	4	Abril	2023-08-04T00:00:00	2024-11-08T20:00:00	6	Velocidad del viento	12.9
187094	7	Sololá	716	San Marcos la Laguna 	11	San Marcos la laguna 	4	Abril	2023-08-04T00:00:00	2024-11-08T20:00:00	7	Dirección del viento	12.87
187095	7	Sololá	716	San Marcos la Laguna 	11	San Marcos la laguna 	4	Abril	2023-08-04T00:00:00	2024-11-08T20:00:00	1	Precipitación	0
187096	7	Sololá	716	San Marcos la Laguna 	11	San Marcos la laguna 	4	Abril	2023-08-04T00:00:00	2024-11-08T20:00:00	8	Radiación solar	0
187097	7	Sololá	716	San Marcos la Laguna 	11	San Marcos la laguna 	4	Abril	2023-08-04T00:00:00	2024-11-08T21:00:00	2	Temperatura media	18.2
187098	7	Sololá	716	San Marcos la Laguna 	11	San Marcos la laguna 	4	Abril	2023-08-04T00:00:00	2024-11-08T21:00:00	4	Temperatura máxima	20.7
187099	7	Sololá	716	San Marcos la Laguna 	11	San Marcos la laguna 	4	Abril	2023-08-04T00:00:00	2024-11-08T21:00:00	3	Temperatura mínima	18.2
187100	7	Sololá	716	San Marcos la Laguna 	11	San Marcos la laguna 	4	Abril	2023-08-04T00:00:00	2024-11-08T21:00:00	5	Humedad	65
187101	7	Sololá	716	San Marcos la Laguna 	11	San Marcos la laguna 	4	Abril	2023-08-04T00:00:00	2024-11-08T21:00:00	6	Velocidad del viento	6.4
187102	7	Sololá	716	San Marcos la Laguna 	11	San Marcos la laguna 	4	Abril	2023-08-04T00:00:00	2024-11-08T21:00:00	7	Dirección del viento	6.44
187103	7	Sololá	716	San Marcos la Laguna 	11	San Marcos la laguna 	4	Abril	2023-08-04T00:00:00	2024-11-08T21:00:00	1	Precipitación	0
187104	7	Sololá	716	San Marcos la Laguna 	11	San Marcos la laguna 	4	Abril	2023-08-04T00:00:00	2024-11-08T21:00:00	8	Radiación solar	0
187105	7	Sololá	716	San Marcos la Laguna 	11	San Marcos la laguna 	4	Abril	2023-08-04T00:00:00	2024-11-08T22:00:00	2	Temperatura media	17.9
187106	7	Sololá	716	San Marcos la Laguna 	11	San Marcos la laguna 	4	Abril	2023-08-04T00:00:00	2024-11-08T22:00:00	4	Temperatura máxima	19.2
187107	7	Sololá	716	San Marcos la Laguna 	11	San Marcos la laguna 	4	Abril	2023-08-04T00:00:00	2024-11-08T22:00:00	3	Temperatura mínima	17.9
187108	7	Sololá	716	San Marcos la Laguna 	11	San Marcos la laguna 	4	Abril	2023-08-04T00:00:00	2024-11-08T22:00:00	5	Humedad	63
187109	7	Sololá	716	San Marcos la Laguna 	11	San Marcos la laguna 	4	Abril	2023-08-04T00:00:00	2024-11-08T22:00:00	6	Velocidad del viento	8
187110	7	Sololá	716	San Marcos la Laguna 	11	San Marcos la laguna 	4	Abril	2023-08-04T00:00:00	2024-11-08T22:00:00	7	Dirección del viento	8.05
187111	7	Sololá	716	San Marcos la Laguna 	11	San Marcos la laguna 	4	Abril	2023-08-04T00:00:00	2024-11-08T22:00:00	1	Precipitación	0
187112	7	Sololá	716	San Marcos la Laguna 	11	San Marcos la laguna 	4	Abril	2023-08-04T00:00:00	2024-11-08T22:00:00	8	Radiación solar	0
187113	7	Sololá	716	San Marcos la Laguna 	11	San Marcos la laguna 	4	Abril	2023-08-04T00:00:00	2024-11-08T23:00:00	2	Temperatura media	16.8
187114	7	Sololá	716	San Marcos la Laguna 	11	San Marcos la laguna 	4	Abril	2023-08-04T00:00:00	2024-11-08T23:00:00	4	Temperatura máxima	17.9
187115	7	Sololá	716	San Marcos la Laguna 	11	San Marcos la laguna 	4	Abril	2023-08-04T00:00:00	2024-11-08T23:00:00	3	Temperatura mínima	16.8
187116	7	Sololá	716	San Marcos la Laguna 	11	San Marcos la laguna 	4	Abril	2023-08-04T00:00:00	2024-11-08T23:00:00	5	Humedad	68
187117	7	Sololá	716	San Marcos la Laguna 	11	San Marcos la laguna 	4	Abril	2023-08-04T00:00:00	2024-11-08T23:00:00	6	Velocidad del viento	6.4
187118	7	Sololá	716	San Marcos la Laguna 	11	San Marcos la laguna 	4	Abril	2023-08-04T00:00:00	2024-11-08T23:00:00	7	Dirección del viento	6.44
187119	7	Sololá	716	San Marcos la Laguna 	11	San Marcos la laguna 	4	Abril	2023-08-04T00:00:00	2024-11-08T23:00:00	1	Precipitación	0
187120	7	Sololá	716	San Marcos la Laguna 	11	San Marcos la laguna 	4	Abril	2023-08-04T00:00:00	2024-11-08T23:00:00	8	Radiación solar	0
187121	7	Sololá	716	San Marcos la Laguna 	11	San Marcos la laguna 	4	Abril	2023-09-04T00:00:00	2024-11-08T00:00:00	2	Temperatura media	17.2
187122	7	Sololá	716	San Marcos la Laguna 	11	San Marcos la laguna 	4	Abril	2023-09-04T00:00:00	2024-11-08T00:00:00	4	Temperatura máxima	17.6
187123	7	Sololá	716	San Marcos la Laguna 	11	San Marcos la laguna 	4	Abril	2023-09-04T00:00:00	2024-11-08T00:00:00	3	Temperatura mínima	16.1
187124	7	Sololá	716	San Marcos la Laguna 	11	San Marcos la laguna 	4	Abril	2023-09-04T00:00:00	2024-11-08T00:00:00	5	Humedad	59
187125	7	Sololá	716	San Marcos la Laguna 	11	San Marcos la laguna 	4	Abril	2023-09-04T00:00:00	2024-11-08T00:00:00	6	Velocidad del viento	6.4
187126	7	Sololá	716	San Marcos la Laguna 	11	San Marcos la laguna 	4	Abril	2023-09-04T00:00:00	2024-11-08T00:00:00	7	Dirección del viento	6.44
187127	7	Sololá	716	San Marcos la Laguna 	11	San Marcos la laguna 	4	Abril	2023-09-04T00:00:00	2024-11-08T00:00:00	1	Precipitación	0
187128	7	Sololá	716	San Marcos la Laguna 	11	San Marcos la laguna 	4	Abril	2023-09-04T00:00:00	2024-11-08T00:00:00	8	Radiación solar	0
187129	7	Sololá	716	San Marcos la Laguna 	11	San Marcos la laguna 	4	Abril	2023-09-04T00:00:00	2024-11-08T01:00:00	2	Temperatura media	15.5
187130	7	Sololá	716	San Marcos la Laguna 	11	San Marcos la laguna 	4	Abril	2023-09-04T00:00:00	2024-11-08T01:00:00	4	Temperatura máxima	17.8
187131	7	Sololá	716	San Marcos la Laguna 	11	San Marcos la laguna 	4	Abril	2023-09-04T00:00:00	2024-11-08T01:00:00	3	Temperatura mínima	14.8
187132	7	Sololá	716	San Marcos la Laguna 	11	San Marcos la laguna 	4	Abril	2023-09-04T00:00:00	2024-11-08T01:00:00	5	Humedad	60
187133	7	Sololá	716	San Marcos la Laguna 	11	San Marcos la laguna 	4	Abril	2023-09-04T00:00:00	2024-11-08T01:00:00	6	Velocidad del viento	6.4
187134	7	Sololá	716	San Marcos la Laguna 	11	San Marcos la laguna 	4	Abril	2023-09-04T00:00:00	2024-11-08T01:00:00	7	Dirección del viento	6.44
187135	7	Sololá	716	San Marcos la Laguna 	11	San Marcos la laguna 	4	Abril	2023-09-04T00:00:00	2024-11-08T01:00:00	1	Precipitación	0
187136	7	Sololá	716	San Marcos la Laguna 	11	San Marcos la laguna 	4	Abril	2023-09-04T00:00:00	2024-11-08T01:00:00	8	Radiación solar	0
187137	7	Sololá	716	San Marcos la Laguna 	11	San Marcos la laguna 	4	Abril	2023-09-04T00:00:00	2024-11-08T02:00:00	2	Temperatura media	15.3
187138	7	Sololá	716	San Marcos la Laguna 	11	San Marcos la laguna 	4	Abril	2023-09-04T00:00:00	2024-11-08T02:00:00	4	Temperatura máxima	15.7
187139	7	Sololá	716	San Marcos la Laguna 	11	San Marcos la laguna 	4	Abril	2023-09-04T00:00:00	2024-11-08T02:00:00	3	Temperatura mínima	14.8
187140	7	Sololá	716	San Marcos la Laguna 	11	San Marcos la laguna 	4	Abril	2023-09-04T00:00:00	2024-11-08T02:00:00	5	Humedad	58
187141	7	Sololá	716	San Marcos la Laguna 	11	San Marcos la laguna 	4	Abril	2023-09-04T00:00:00	2024-11-08T02:00:00	6	Velocidad del viento	6.4
187142	7	Sololá	716	San Marcos la Laguna 	11	San Marcos la laguna 	4	Abril	2023-09-04T00:00:00	2024-11-08T02:00:00	7	Dirección del viento	6.44
187143	7	Sololá	716	San Marcos la Laguna 	11	San Marcos la laguna 	4	Abril	2023-09-04T00:00:00	2024-11-08T02:00:00	1	Precipitación	0
187144	7	Sololá	716	San Marcos la Laguna 	11	San Marcos la laguna 	4	Abril	2023-09-04T00:00:00	2024-11-08T02:00:00	8	Radiación solar	0
187145	7	Sololá	716	San Marcos la Laguna 	11	San Marcos la laguna 	4	Abril	2023-09-04T00:00:00	2024-11-08T03:00:00	2	Temperatura media	14.7
187146	7	Sololá	716	San Marcos la Laguna 	11	San Marcos la laguna 	4	Abril	2023-09-04T00:00:00	2024-11-08T03:00:00	4	Temperatura máxima	15.7
187147	7	Sololá	716	San Marcos la Laguna 	11	San Marcos la laguna 	4	Abril	2023-09-04T00:00:00	2024-11-08T03:00:00	3	Temperatura mínima	14.7
187148	7	Sololá	716	San Marcos la Laguna 	11	San Marcos la laguna 	4	Abril	2023-09-04T00:00:00	2024-11-08T03:00:00	5	Humedad	63
187149	7	Sololá	716	San Marcos la Laguna 	11	San Marcos la laguna 	4	Abril	2023-09-04T00:00:00	2024-11-08T03:00:00	6	Velocidad del viento	8
187150	7	Sololá	716	San Marcos la Laguna 	11	San Marcos la laguna 	4	Abril	2023-09-04T00:00:00	2024-11-08T03:00:00	7	Dirección del viento	8.05
187151	7	Sololá	716	San Marcos la Laguna 	11	San Marcos la laguna 	4	Abril	2023-09-04T00:00:00	2024-11-08T03:00:00	1	Precipitación	0
187152	7	Sololá	716	San Marcos la Laguna 	11	San Marcos la laguna 	4	Abril	2023-09-04T00:00:00	2024-11-08T03:00:00	8	Radiación solar	0
187153	7	Sololá	716	San Marcos la Laguna 	11	San Marcos la laguna 	4	Abril	2023-09-04T00:00:00	2024-11-08T04:00:00	2	Temperatura media	13.9
187154	7	Sololá	716	San Marcos la Laguna 	11	San Marcos la laguna 	4	Abril	2023-09-04T00:00:00	2024-11-08T04:00:00	4	Temperatura máxima	14.7
187155	7	Sololá	716	San Marcos la Laguna 	11	San Marcos la laguna 	4	Abril	2023-09-04T00:00:00	2024-11-08T04:00:00	3	Temperatura mínima	13.7
187156	7	Sololá	716	San Marcos la Laguna 	11	San Marcos la laguna 	4	Abril	2023-09-04T00:00:00	2024-11-08T04:00:00	5	Humedad	68
187157	7	Sololá	716	San Marcos la Laguna 	11	San Marcos la laguna 	4	Abril	2023-09-04T00:00:00	2024-11-08T04:00:00	6	Velocidad del viento	4.8
187158	7	Sololá	716	San Marcos la Laguna 	11	San Marcos la laguna 	4	Abril	2023-09-04T00:00:00	2024-11-08T04:00:00	7	Dirección del viento	4.83
187159	7	Sololá	716	San Marcos la Laguna 	11	San Marcos la laguna 	4	Abril	2023-09-04T00:00:00	2024-11-08T04:00:00	1	Precipitación	0
187160	7	Sololá	716	San Marcos la Laguna 	11	San Marcos la laguna 	4	Abril	2023-09-04T00:00:00	2024-11-08T04:00:00	8	Radiación solar	0
187161	7	Sololá	716	San Marcos la Laguna 	11	San Marcos la laguna 	4	Abril	2023-09-04T00:00:00	2024-11-08T05:00:00	2	Temperatura media	15.3
187162	7	Sololá	716	San Marcos la Laguna 	11	San Marcos la laguna 	4	Abril	2023-09-04T00:00:00	2024-11-08T05:00:00	4	Temperatura máxima	15.7
187163	7	Sololá	716	San Marcos la Laguna 	11	San Marcos la laguna 	4	Abril	2023-09-04T00:00:00	2024-11-08T05:00:00	3	Temperatura mínima	13.9
187164	7	Sololá	716	San Marcos la Laguna 	11	San Marcos la laguna 	4	Abril	2023-09-04T00:00:00	2024-11-08T05:00:00	5	Humedad	64
187165	7	Sololá	716	San Marcos la Laguna 	11	San Marcos la laguna 	4	Abril	2023-09-04T00:00:00	2024-11-08T05:00:00	6	Velocidad del viento	9.7
187166	7	Sololá	716	San Marcos la Laguna 	11	San Marcos la laguna 	4	Abril	2023-09-04T00:00:00	2024-11-08T05:00:00	7	Dirección del viento	9.66
187167	7	Sololá	716	San Marcos la Laguna 	11	San Marcos la laguna 	4	Abril	2023-09-04T00:00:00	2024-11-08T05:00:00	1	Precipitación	0
187168	7	Sololá	716	San Marcos la Laguna 	11	San Marcos la laguna 	4	Abril	2023-09-04T00:00:00	2024-11-08T05:00:00	8	Radiación solar	0
187169	7	Sololá	716	San Marcos la Laguna 	11	San Marcos la laguna 	4	Abril	2023-09-04T00:00:00	2024-11-08T06:00:00	2	Temperatura media	14.4
187170	7	Sololá	716	San Marcos la Laguna 	11	San Marcos la laguna 	4	Abril	2023-09-04T00:00:00	2024-11-08T06:00:00	4	Temperatura máxima	15.6
187171	7	Sololá	716	San Marcos la Laguna 	11	San Marcos la laguna 	4	Abril	2023-09-04T00:00:00	2024-11-08T06:00:00	3	Temperatura mínima	14.4
187172	7	Sololá	716	San Marcos la Laguna 	11	San Marcos la laguna 	4	Abril	2023-09-04T00:00:00	2024-11-08T06:00:00	5	Humedad	68
187173	7	Sololá	716	San Marcos la Laguna 	11	San Marcos la laguna 	4	Abril	2023-09-04T00:00:00	2024-11-08T06:00:00	6	Velocidad del viento	9.7
187174	7	Sololá	716	San Marcos la Laguna 	11	San Marcos la laguna 	4	Abril	2023-09-04T00:00:00	2024-11-08T06:00:00	7	Dirección del viento	9.66
187175	7	Sololá	716	San Marcos la Laguna 	11	San Marcos la laguna 	4	Abril	2023-09-04T00:00:00	2024-11-08T06:00:00	1	Precipitación	0
187176	7	Sololá	716	San Marcos la Laguna 	11	San Marcos la laguna 	4	Abril	2023-09-04T00:00:00	2024-11-08T06:00:00	8	Radiación solar	0
187177	7	Sololá	716	San Marcos la Laguna 	11	San Marcos la laguna 	4	Abril	2023-09-04T00:00:00	2024-11-08T07:00:00	2	Temperatura media	15.3
187178	7	Sololá	716	San Marcos la Laguna 	11	San Marcos la laguna 	4	Abril	2023-09-04T00:00:00	2024-11-08T07:00:00	4	Temperatura máxima	15.3
187179	7	Sololá	716	San Marcos la Laguna 	11	San Marcos la laguna 	4	Abril	2023-09-04T00:00:00	2024-11-08T07:00:00	3	Temperatura mínima	14.2
187180	7	Sololá	716	San Marcos la Laguna 	11	San Marcos la laguna 	4	Abril	2023-09-04T00:00:00	2024-11-08T07:00:00	5	Humedad	69
187181	7	Sololá	716	San Marcos la Laguna 	11	San Marcos la laguna 	4	Abril	2023-09-04T00:00:00	2024-11-08T07:00:00	6	Velocidad del viento	8
187182	7	Sololá	716	San Marcos la Laguna 	11	San Marcos la laguna 	4	Abril	2023-09-04T00:00:00	2024-11-08T07:00:00	7	Dirección del viento	8.05
187183	7	Sololá	716	San Marcos la Laguna 	11	San Marcos la laguna 	4	Abril	2023-09-04T00:00:00	2024-11-08T07:00:00	1	Precipitación	0
187184	7	Sololá	716	San Marcos la Laguna 	11	San Marcos la laguna 	4	Abril	2023-09-04T00:00:00	2024-11-08T07:00:00	8	Radiación solar	44
187185	7	Sololá	716	San Marcos la Laguna 	11	San Marcos la laguna 	4	Abril	2023-09-04T00:00:00	2024-11-08T08:00:00	2	Temperatura media	20.3
187186	7	Sololá	716	San Marcos la Laguna 	11	San Marcos la laguna 	4	Abril	2023-09-04T00:00:00	2024-11-08T08:00:00	4	Temperatura máxima	20.3
187187	7	Sololá	716	San Marcos la Laguna 	11	San Marcos la laguna 	4	Abril	2023-09-04T00:00:00	2024-11-08T08:00:00	3	Temperatura mínima	15.3
187188	7	Sololá	716	San Marcos la Laguna 	11	San Marcos la laguna 	4	Abril	2023-09-04T00:00:00	2024-11-08T08:00:00	5	Humedad	57
187189	7	Sololá	716	San Marcos la Laguna 	11	San Marcos la laguna 	4	Abril	2023-09-04T00:00:00	2024-11-08T08:00:00	6	Velocidad del viento	3.2
187190	7	Sololá	716	San Marcos la Laguna 	11	San Marcos la laguna 	4	Abril	2023-09-04T00:00:00	2024-11-08T08:00:00	7	Dirección del viento	3.22
187191	7	Sololá	716	San Marcos la Laguna 	11	San Marcos la laguna 	4	Abril	2023-09-04T00:00:00	2024-11-08T08:00:00	1	Precipitación	0
187192	7	Sololá	716	San Marcos la Laguna 	11	San Marcos la laguna 	4	Abril	2023-09-04T00:00:00	2024-11-08T08:00:00	8	Radiación solar	231
187193	7	Sololá	716	San Marcos la Laguna 	11	San Marcos la laguna 	4	Abril	2023-09-04T00:00:00	2024-11-08T09:00:00	2	Temperatura media	22.7
187194	7	Sololá	716	San Marcos la Laguna 	11	San Marcos la laguna 	4	Abril	2023-09-04T00:00:00	2024-11-08T09:00:00	4	Temperatura máxima	23.2
187195	7	Sololá	716	San Marcos la Laguna 	11	San Marcos la laguna 	4	Abril	2023-09-04T00:00:00	2024-11-08T09:00:00	3	Temperatura mínima	20.3
187196	7	Sololá	716	San Marcos la Laguna 	11	San Marcos la laguna 	4	Abril	2023-09-04T00:00:00	2024-11-08T09:00:00	5	Humedad	40
187197	7	Sololá	716	San Marcos la Laguna 	11	San Marcos la laguna 	4	Abril	2023-09-04T00:00:00	2024-11-08T09:00:00	6	Velocidad del viento	3.2
187198	7	Sololá	716	San Marcos la Laguna 	11	San Marcos la laguna 	4	Abril	2023-09-04T00:00:00	2024-11-08T09:00:00	7	Dirección del viento	3.22
187199	7	Sololá	716	San Marcos la Laguna 	11	San Marcos la laguna 	4	Abril	2023-09-04T00:00:00	2024-11-08T09:00:00	1	Precipitación	0
187200	7	Sololá	716	San Marcos la Laguna 	11	San Marcos la laguna 	4	Abril	2023-09-04T00:00:00	2024-11-08T09:00:00	8	Radiación solar	463
187201	7	Sololá	716	San Marcos la Laguna 	11	San Marcos la laguna 	4	Abril	2023-09-04T00:00:00	2024-11-08T10:00:00	2	Temperatura media	22.2
187202	7	Sololá	716	San Marcos la Laguna 	11	San Marcos la laguna 	4	Abril	2023-09-04T00:00:00	2024-11-08T10:00:00	4	Temperatura máxima	22.6
187203	7	Sololá	716	San Marcos la Laguna 	11	San Marcos la laguna 	4	Abril	2023-09-04T00:00:00	2024-11-08T10:00:00	3	Temperatura mínima	22
187204	7	Sololá	716	San Marcos la Laguna 	11	San Marcos la laguna 	4	Abril	2023-09-04T00:00:00	2024-11-08T10:00:00	5	Humedad	48
187205	7	Sololá	716	San Marcos la Laguna 	11	San Marcos la laguna 	4	Abril	2023-09-04T00:00:00	2024-11-08T10:00:00	6	Velocidad del viento	20.9
187206	7	Sololá	716	San Marcos la Laguna 	11	San Marcos la laguna 	4	Abril	2023-09-04T00:00:00	2024-11-08T10:00:00	7	Dirección del viento	20.92
187207	7	Sololá	716	San Marcos la Laguna 	11	San Marcos la laguna 	4	Abril	2023-09-04T00:00:00	2024-11-08T10:00:00	1	Precipitación	0
187208	7	Sololá	716	San Marcos la Laguna 	11	San Marcos la laguna 	4	Abril	2023-09-04T00:00:00	2024-11-08T10:00:00	8	Radiación solar	686
187209	7	Sololá	716	San Marcos la Laguna 	11	San Marcos la laguna 	4	Abril	2023-09-04T00:00:00	2024-11-08T11:00:00	2	Temperatura media	23.2
187210	7	Sololá	716	San Marcos la Laguna 	11	San Marcos la laguna 	4	Abril	2023-09-04T00:00:00	2024-11-08T11:00:00	4	Temperatura máxima	23.2
187211	7	Sololá	716	San Marcos la Laguna 	11	San Marcos la laguna 	4	Abril	2023-09-04T00:00:00	2024-11-08T11:00:00	3	Temperatura mínima	22.1
187212	7	Sololá	716	San Marcos la Laguna 	11	San Marcos la laguna 	4	Abril	2023-09-04T00:00:00	2024-11-08T11:00:00	5	Humedad	43
187213	7	Sololá	716	San Marcos la Laguna 	11	San Marcos la laguna 	4	Abril	2023-09-04T00:00:00	2024-11-08T11:00:00	6	Velocidad del viento	27.4
187214	7	Sololá	716	San Marcos la Laguna 	11	San Marcos la laguna 	4	Abril	2023-09-04T00:00:00	2024-11-08T11:00:00	7	Dirección del viento	27.36
187215	7	Sololá	716	San Marcos la Laguna 	11	San Marcos la laguna 	4	Abril	2023-09-04T00:00:00	2024-11-08T11:00:00	1	Precipitación	0
187216	7	Sololá	716	San Marcos la Laguna 	11	San Marcos la laguna 	4	Abril	2023-09-04T00:00:00	2024-11-08T11:00:00	8	Radiación solar	822
187217	7	Sololá	716	San Marcos la Laguna 	11	San Marcos la laguna 	4	Abril	2023-09-04T00:00:00	2024-11-08T12:00:00	2	Temperatura media	23.7
187218	7	Sololá	716	San Marcos la Laguna 	11	San Marcos la laguna 	4	Abril	2023-09-04T00:00:00	2024-11-08T12:00:00	4	Temperatura máxima	23.7
187219	7	Sololá	716	San Marcos la Laguna 	11	San Marcos la laguna 	4	Abril	2023-09-04T00:00:00	2024-11-08T12:00:00	3	Temperatura mínima	23.1
187220	7	Sololá	716	San Marcos la Laguna 	11	San Marcos la laguna 	4	Abril	2023-09-04T00:00:00	2024-11-08T12:00:00	5	Humedad	49
187221	7	Sololá	716	San Marcos la Laguna 	11	San Marcos la laguna 	4	Abril	2023-09-04T00:00:00	2024-11-08T12:00:00	6	Velocidad del viento	29
187222	7	Sololá	716	San Marcos la Laguna 	11	San Marcos la laguna 	4	Abril	2023-09-04T00:00:00	2024-11-08T12:00:00	7	Dirección del viento	28.97
187223	7	Sololá	716	San Marcos la Laguna 	11	San Marcos la laguna 	4	Abril	2023-09-04T00:00:00	2024-11-08T12:00:00	1	Precipitación	0
187224	7	Sololá	716	San Marcos la Laguna 	11	San Marcos la laguna 	4	Abril	2023-09-04T00:00:00	2024-11-08T12:00:00	8	Radiación solar	906
187225	7	Sololá	716	San Marcos la Laguna 	11	San Marcos la laguna 	4	Abril	2023-09-04T00:00:00	2024-11-08T13:00:00	2	Temperatura media	24.6
187226	7	Sololá	716	San Marcos la Laguna 	11	San Marcos la laguna 	4	Abril	2023-09-04T00:00:00	2024-11-08T13:00:00	4	Temperatura máxima	24.6
187227	7	Sololá	716	San Marcos la Laguna 	11	San Marcos la laguna 	4	Abril	2023-09-04T00:00:00	2024-11-08T13:00:00	3	Temperatura mínima	23.7
187228	7	Sololá	716	San Marcos la Laguna 	11	San Marcos la laguna 	4	Abril	2023-09-04T00:00:00	2024-11-08T13:00:00	5	Humedad	58
187229	7	Sololá	716	San Marcos la Laguna 	11	San Marcos la laguna 	4	Abril	2023-09-04T00:00:00	2024-11-08T13:00:00	6	Velocidad del viento	22.5
187230	7	Sololá	716	San Marcos la Laguna 	11	San Marcos la laguna 	4	Abril	2023-09-04T00:00:00	2024-11-08T13:00:00	7	Dirección del viento	22.53
187231	7	Sololá	716	San Marcos la Laguna 	11	San Marcos la laguna 	4	Abril	2023-09-04T00:00:00	2024-11-08T13:00:00	1	Precipitación	0
187232	7	Sololá	716	San Marcos la Laguna 	11	San Marcos la laguna 	4	Abril	2023-09-04T00:00:00	2024-11-08T13:00:00	8	Radiación solar	920
187233	7	Sololá	716	San Marcos la Laguna 	11	San Marcos la laguna 	4	Abril	2023-09-04T00:00:00	2024-11-08T14:00:00	2	Temperatura media	24
187234	7	Sololá	716	San Marcos la Laguna 	11	San Marcos la laguna 	4	Abril	2023-09-04T00:00:00	2024-11-08T14:00:00	4	Temperatura máxima	24.8
187235	7	Sololá	716	San Marcos la Laguna 	11	San Marcos la laguna 	4	Abril	2023-09-04T00:00:00	2024-11-08T14:00:00	3	Temperatura mínima	23.7
187236	7	Sololá	716	San Marcos la Laguna 	11	San Marcos la laguna 	4	Abril	2023-09-04T00:00:00	2024-11-08T14:00:00	5	Humedad	61
187237	7	Sololá	716	San Marcos la Laguna 	11	San Marcos la laguna 	4	Abril	2023-09-04T00:00:00	2024-11-08T14:00:00	6	Velocidad del viento	9.7
187238	7	Sololá	716	San Marcos la Laguna 	11	San Marcos la laguna 	4	Abril	2023-09-04T00:00:00	2024-11-08T14:00:00	7	Dirección del viento	9.66
187239	7	Sololá	716	San Marcos la Laguna 	11	San Marcos la laguna 	4	Abril	2023-09-04T00:00:00	2024-11-08T14:00:00	1	Precipitación	0
187240	7	Sololá	716	San Marcos la Laguna 	11	San Marcos la laguna 	4	Abril	2023-09-04T00:00:00	2024-11-08T14:00:00	8	Radiación solar	864
187241	7	Sololá	716	San Marcos la Laguna 	11	San Marcos la laguna 	4	Abril	2023-09-04T00:00:00	2024-11-08T15:00:00	2	Temperatura media	23.8
187242	7	Sololá	716	San Marcos la Laguna 	11	San Marcos la laguna 	4	Abril	2023-09-04T00:00:00	2024-11-08T15:00:00	4	Temperatura máxima	24
187243	7	Sololá	716	San Marcos la Laguna 	11	San Marcos la laguna 	4	Abril	2023-09-04T00:00:00	2024-11-08T15:00:00	3	Temperatura mínima	22.4
187244	7	Sololá	716	San Marcos la Laguna 	11	San Marcos la laguna 	4	Abril	2023-09-04T00:00:00	2024-11-08T15:00:00	5	Humedad	65
187245	7	Sololá	716	San Marcos la Laguna 	11	San Marcos la laguna 	4	Abril	2023-09-04T00:00:00	2024-11-08T15:00:00	6	Velocidad del viento	9.7
187246	7	Sololá	716	San Marcos la Laguna 	11	San Marcos la laguna 	4	Abril	2023-09-04T00:00:00	2024-11-08T15:00:00	7	Dirección del viento	9.66
187247	7	Sololá	716	San Marcos la Laguna 	11	San Marcos la laguna 	4	Abril	2023-09-04T00:00:00	2024-11-08T15:00:00	1	Precipitación	0
187248	7	Sololá	716	San Marcos la Laguna 	11	San Marcos la laguna 	4	Abril	2023-09-04T00:00:00	2024-11-08T15:00:00	8	Radiación solar	655
187249	7	Sololá	716	San Marcos la Laguna 	11	San Marcos la laguna 	4	Abril	2023-09-04T00:00:00	2024-11-08T16:00:00	2	Temperatura media	23.9
187250	7	Sololá	716	San Marcos la Laguna 	11	San Marcos la laguna 	4	Abril	2023-09-04T00:00:00	2024-11-08T16:00:00	4	Temperatura máxima	24.4
187251	7	Sololá	716	San Marcos la Laguna 	11	San Marcos la laguna 	4	Abril	2023-09-04T00:00:00	2024-11-08T16:00:00	3	Temperatura mínima	23.3
187252	7	Sololá	716	San Marcos la Laguna 	11	San Marcos la laguna 	4	Abril	2023-09-04T00:00:00	2024-11-08T16:00:00	5	Humedad	63
187253	7	Sololá	716	San Marcos la Laguna 	11	San Marcos la laguna 	4	Abril	2023-09-04T00:00:00	2024-11-08T16:00:00	6	Velocidad del viento	4.8
187254	7	Sololá	716	San Marcos la Laguna 	11	San Marcos la laguna 	4	Abril	2023-09-04T00:00:00	2024-11-08T16:00:00	7	Dirección del viento	4.83
187255	7	Sololá	716	San Marcos la Laguna 	11	San Marcos la laguna 	4	Abril	2023-09-04T00:00:00	2024-11-08T16:00:00	1	Precipitación	0
187256	7	Sololá	716	San Marcos la Laguna 	11	San Marcos la laguna 	4	Abril	2023-09-04T00:00:00	2024-11-08T16:00:00	8	Radiación solar	499
187257	7	Sololá	716	San Marcos la Laguna 	11	San Marcos la laguna 	4	Abril	2023-09-04T00:00:00	2024-11-08T17:00:00	2	Temperatura media	21.7
187258	7	Sololá	716	San Marcos la Laguna 	11	San Marcos la laguna 	4	Abril	2023-09-04T00:00:00	2024-11-08T17:00:00	4	Temperatura máxima	23.9
187259	7	Sololá	716	San Marcos la Laguna 	11	San Marcos la laguna 	4	Abril	2023-09-04T00:00:00	2024-11-08T17:00:00	3	Temperatura mínima	21.7
187260	7	Sololá	716	San Marcos la Laguna 	11	San Marcos la laguna 	4	Abril	2023-09-04T00:00:00	2024-11-08T17:00:00	5	Humedad	72
187261	7	Sololá	716	San Marcos la Laguna 	11	San Marcos la laguna 	4	Abril	2023-09-04T00:00:00	2024-11-08T17:00:00	6	Velocidad del viento	4.8
187262	7	Sololá	716	San Marcos la Laguna 	11	San Marcos la laguna 	4	Abril	2023-09-04T00:00:00	2024-11-08T17:00:00	7	Dirección del viento	4.83
187263	7	Sololá	716	San Marcos la Laguna 	11	San Marcos la laguna 	4	Abril	2023-09-04T00:00:00	2024-11-08T17:00:00	1	Precipitación	0
187264	7	Sololá	716	San Marcos la Laguna 	11	San Marcos la laguna 	4	Abril	2023-09-04T00:00:00	2024-11-08T17:00:00	8	Radiación solar	80
187265	7	Sololá	716	San Marcos la Laguna 	11	San Marcos la laguna 	4	Abril	2023-09-04T00:00:00	2024-11-08T18:00:00	2	Temperatura media	20.9
187266	7	Sololá	716	San Marcos la Laguna 	11	San Marcos la laguna 	4	Abril	2023-09-04T00:00:00	2024-11-08T18:00:00	4	Temperatura máxima	21.7
187267	7	Sololá	716	San Marcos la Laguna 	11	San Marcos la laguna 	4	Abril	2023-09-04T00:00:00	2024-11-08T18:00:00	3	Temperatura mínima	20.9
187268	7	Sololá	716	San Marcos la Laguna 	11	San Marcos la laguna 	4	Abril	2023-09-04T00:00:00	2024-11-08T18:00:00	5	Humedad	77
187269	7	Sololá	716	San Marcos la Laguna 	11	San Marcos la laguna 	4	Abril	2023-09-04T00:00:00	2024-11-08T18:00:00	6	Velocidad del viento	6.4
187270	7	Sololá	716	San Marcos la Laguna 	11	San Marcos la laguna 	4	Abril	2023-09-04T00:00:00	2024-11-08T18:00:00	7	Dirección del viento	6.44
187271	7	Sololá	716	San Marcos la Laguna 	11	San Marcos la laguna 	4	Abril	2023-09-04T00:00:00	2024-11-08T18:00:00	1	Precipitación	0
187272	7	Sololá	716	San Marcos la Laguna 	11	San Marcos la laguna 	4	Abril	2023-09-04T00:00:00	2024-11-08T18:00:00	8	Radiación solar	30
187273	7	Sololá	716	San Marcos la Laguna 	11	San Marcos la laguna 	4	Abril	2023-09-04T00:00:00	2024-11-08T19:00:00	2	Temperatura media	20.2
187274	7	Sololá	716	San Marcos la Laguna 	11	San Marcos la laguna 	4	Abril	2023-09-04T00:00:00	2024-11-08T19:00:00	4	Temperatura máxima	21
187275	7	Sololá	716	San Marcos la Laguna 	11	San Marcos la laguna 	4	Abril	2023-09-04T00:00:00	2024-11-08T19:00:00	3	Temperatura mínima	20
187276	7	Sololá	716	San Marcos la Laguna 	11	San Marcos la laguna 	4	Abril	2023-09-04T00:00:00	2024-11-08T19:00:00	5	Humedad	74
187277	7	Sololá	716	San Marcos la Laguna 	11	San Marcos la laguna 	4	Abril	2023-09-04T00:00:00	2024-11-08T19:00:00	6	Velocidad del viento	6.4
187278	7	Sololá	716	San Marcos la Laguna 	11	San Marcos la laguna 	4	Abril	2023-09-04T00:00:00	2024-11-08T19:00:00	7	Dirección del viento	6.44
187279	7	Sololá	716	San Marcos la Laguna 	11	San Marcos la laguna 	4	Abril	2023-09-04T00:00:00	2024-11-08T19:00:00	1	Precipitación	0
187280	7	Sololá	716	San Marcos la Laguna 	11	San Marcos la laguna 	4	Abril	2023-09-04T00:00:00	2024-11-08T19:00:00	8	Radiación solar	0
187281	7	Sololá	716	San Marcos la Laguna 	11	San Marcos la laguna 	4	Abril	2023-09-04T00:00:00	2024-11-08T20:00:00	2	Temperatura media	20.3
187282	7	Sololá	716	San Marcos la Laguna 	11	San Marcos la laguna 	4	Abril	2023-09-04T00:00:00	2024-11-08T20:00:00	4	Temperatura máxima	20.8
187283	7	Sololá	716	San Marcos la Laguna 	11	San Marcos la laguna 	4	Abril	2023-09-04T00:00:00	2024-11-08T20:00:00	3	Temperatura mínima	20.3
187284	7	Sololá	716	San Marcos la Laguna 	11	San Marcos la laguna 	4	Abril	2023-09-04T00:00:00	2024-11-08T20:00:00	5	Humedad	52
187285	7	Sololá	716	San Marcos la Laguna 	11	San Marcos la laguna 	4	Abril	2023-09-04T00:00:00	2024-11-08T20:00:00	6	Velocidad del viento	14.5
187286	7	Sololá	716	San Marcos la Laguna 	11	San Marcos la laguna 	4	Abril	2023-09-04T00:00:00	2024-11-08T20:00:00	7	Dirección del viento	14.48
187287	7	Sololá	716	San Marcos la Laguna 	11	San Marcos la laguna 	4	Abril	2023-09-04T00:00:00	2024-11-08T20:00:00	1	Precipitación	0
187288	7	Sololá	716	San Marcos la Laguna 	11	San Marcos la laguna 	4	Abril	2023-09-04T00:00:00	2024-11-08T20:00:00	8	Radiación solar	0
187289	7	Sololá	716	San Marcos la Laguna 	11	San Marcos la laguna 	4	Abril	2023-09-04T00:00:00	2024-11-08T21:00:00	2	Temperatura media	19.2
187290	7	Sololá	716	San Marcos la Laguna 	11	San Marcos la laguna 	4	Abril	2023-09-04T00:00:00	2024-11-08T21:00:00	4	Temperatura máxima	20.3
187291	7	Sololá	716	San Marcos la Laguna 	11	San Marcos la laguna 	4	Abril	2023-09-04T00:00:00	2024-11-08T21:00:00	3	Temperatura mínima	19.2
187292	7	Sololá	716	San Marcos la Laguna 	11	San Marcos la laguna 	4	Abril	2023-09-04T00:00:00	2024-11-08T21:00:00	5	Humedad	51
187293	7	Sololá	716	San Marcos la Laguna 	11	San Marcos la laguna 	4	Abril	2023-09-04T00:00:00	2024-11-08T21:00:00	6	Velocidad del viento	14.5
187294	7	Sololá	716	San Marcos la Laguna 	11	San Marcos la laguna 	4	Abril	2023-09-04T00:00:00	2024-11-08T21:00:00	7	Dirección del viento	14.48
187295	7	Sololá	716	San Marcos la Laguna 	11	San Marcos la laguna 	4	Abril	2023-09-04T00:00:00	2024-11-08T21:00:00	1	Precipitación	0
187296	7	Sololá	716	San Marcos la Laguna 	11	San Marcos la laguna 	4	Abril	2023-09-04T00:00:00	2024-11-08T21:00:00	8	Radiación solar	0
187297	7	Sololá	716	San Marcos la Laguna 	11	San Marcos la laguna 	4	Abril	2023-09-04T00:00:00	2024-11-08T22:00:00	2	Temperatura media	16.8
187298	7	Sololá	716	San Marcos la Laguna 	11	San Marcos la laguna 	4	Abril	2023-09-04T00:00:00	2024-11-08T22:00:00	4	Temperatura máxima	19.2
187299	7	Sololá	716	San Marcos la Laguna 	11	San Marcos la laguna 	4	Abril	2023-09-04T00:00:00	2024-11-08T22:00:00	3	Temperatura mínima	16.8
187300	7	Sololá	716	San Marcos la Laguna 	11	San Marcos la laguna 	4	Abril	2023-09-04T00:00:00	2024-11-08T22:00:00	5	Humedad	56
187301	7	Sololá	716	San Marcos la Laguna 	11	San Marcos la laguna 	4	Abril	2023-09-04T00:00:00	2024-11-08T22:00:00	6	Velocidad del viento	4.8
187302	7	Sololá	716	San Marcos la Laguna 	11	San Marcos la laguna 	4	Abril	2023-09-04T00:00:00	2024-11-08T22:00:00	7	Dirección del viento	4.83
187303	7	Sololá	716	San Marcos la Laguna 	11	San Marcos la laguna 	4	Abril	2023-09-04T00:00:00	2024-11-08T22:00:00	1	Precipitación	0
187304	7	Sololá	716	San Marcos la Laguna 	11	San Marcos la laguna 	4	Abril	2023-09-04T00:00:00	2024-11-08T22:00:00	8	Radiación solar	0
187305	7	Sololá	716	San Marcos la Laguna 	11	San Marcos la laguna 	4	Abril	2023-09-04T00:00:00	2024-11-08T23:00:00	2	Temperatura media	16.3
187306	7	Sololá	716	San Marcos la Laguna 	11	San Marcos la laguna 	4	Abril	2023-09-04T00:00:00	2024-11-08T23:00:00	4	Temperatura máxima	16.8
187307	7	Sololá	716	San Marcos la Laguna 	11	San Marcos la laguna 	4	Abril	2023-09-04T00:00:00	2024-11-08T23:00:00	3	Temperatura mínima	16.2
187308	7	Sololá	716	San Marcos la Laguna 	11	San Marcos la laguna 	4	Abril	2023-09-04T00:00:00	2024-11-08T23:00:00	5	Humedad	57
187309	7	Sololá	716	San Marcos la Laguna 	11	San Marcos la laguna 	4	Abril	2023-09-04T00:00:00	2024-11-08T23:00:00	6	Velocidad del viento	6.4
187310	7	Sololá	716	San Marcos la Laguna 	11	San Marcos la laguna 	4	Abril	2023-09-04T00:00:00	2024-11-08T23:00:00	7	Dirección del viento	6.44
187311	7	Sololá	716	San Marcos la Laguna 	11	San Marcos la laguna 	4	Abril	2023-09-04T00:00:00	2024-11-08T23:00:00	1	Precipitación	0
187312	7	Sololá	716	San Marcos la Laguna 	11	San Marcos la laguna 	4	Abril	2023-09-04T00:00:00	2024-11-08T23:00:00	8	Radiación solar	0
187313	7	Sololá	716	San Marcos la Laguna 	11	San Marcos la laguna 	4	Abril	2023-10-04T00:00:00	2024-11-08T00:00:00	2	Temperatura media	16.7
187314	7	Sololá	716	San Marcos la Laguna 	11	San Marcos la laguna 	4	Abril	2023-10-04T00:00:00	2024-11-08T00:00:00	4	Temperatura máxima	16.9
187315	7	Sololá	716	San Marcos la Laguna 	11	San Marcos la laguna 	4	Abril	2023-10-04T00:00:00	2024-11-08T00:00:00	3	Temperatura mínima	16.3
187316	7	Sololá	716	San Marcos la Laguna 	11	San Marcos la laguna 	4	Abril	2023-10-04T00:00:00	2024-11-08T00:00:00	5	Humedad	54
187317	7	Sololá	716	San Marcos la Laguna 	11	San Marcos la laguna 	4	Abril	2023-10-04T00:00:00	2024-11-08T00:00:00	6	Velocidad del viento	6.4
187318	7	Sololá	716	San Marcos la Laguna 	11	San Marcos la laguna 	4	Abril	2023-10-04T00:00:00	2024-11-08T00:00:00	7	Dirección del viento	6.44
187319	7	Sololá	716	San Marcos la Laguna 	11	San Marcos la laguna 	4	Abril	2023-10-04T00:00:00	2024-11-08T00:00:00	1	Precipitación	0
187320	7	Sololá	716	San Marcos la Laguna 	11	San Marcos la laguna 	4	Abril	2023-10-04T00:00:00	2024-11-08T00:00:00	8	Radiación solar	0
187321	7	Sololá	716	San Marcos la Laguna 	11	San Marcos la laguna 	4	Abril	2023-10-04T00:00:00	2024-11-08T01:00:00	2	Temperatura media	16.4
187322	7	Sololá	716	San Marcos la Laguna 	11	San Marcos la laguna 	4	Abril	2023-10-04T00:00:00	2024-11-08T01:00:00	4	Temperatura máxima	17
187323	7	Sololá	716	San Marcos la Laguna 	11	San Marcos la laguna 	4	Abril	2023-10-04T00:00:00	2024-11-08T01:00:00	3	Temperatura mínima	16.4
187324	7	Sololá	716	San Marcos la Laguna 	11	San Marcos la laguna 	4	Abril	2023-10-04T00:00:00	2024-11-08T01:00:00	5	Humedad	53
187325	7	Sololá	716	San Marcos la Laguna 	11	San Marcos la laguna 	4	Abril	2023-10-04T00:00:00	2024-11-08T01:00:00	6	Velocidad del viento	6.4
187326	7	Sololá	716	San Marcos la Laguna 	11	San Marcos la laguna 	4	Abril	2023-10-04T00:00:00	2024-11-08T01:00:00	7	Dirección del viento	6.44
187327	7	Sololá	716	San Marcos la Laguna 	11	San Marcos la laguna 	4	Abril	2023-10-04T00:00:00	2024-11-08T01:00:00	1	Precipitación	0
187328	7	Sololá	716	San Marcos la Laguna 	11	San Marcos la laguna 	4	Abril	2023-10-04T00:00:00	2024-11-08T01:00:00	8	Radiación solar	0
187329	7	Sololá	716	San Marcos la Laguna 	11	San Marcos la laguna 	4	Abril	2023-10-04T00:00:00	2024-11-08T02:00:00	2	Temperatura media	16.1
187330	7	Sololá	716	San Marcos la Laguna 	11	San Marcos la laguna 	4	Abril	2023-10-04T00:00:00	2024-11-08T02:00:00	4	Temperatura máxima	16.4
187331	7	Sololá	716	San Marcos la Laguna 	11	San Marcos la laguna 	4	Abril	2023-10-04T00:00:00	2024-11-08T02:00:00	3	Temperatura mínima	15.8
187332	7	Sololá	716	San Marcos la Laguna 	11	San Marcos la laguna 	4	Abril	2023-10-04T00:00:00	2024-11-08T02:00:00	5	Humedad	55
